{
  "fields": [{"id":"_id","type":"int"},{"id":"HCEP_id","type":"text"},{"id":"DateTime","type":"text"},{"id":"Temperature_C","type":"text"},{"id":"Conductivity_Sm","type":"text"},{"id":"Pressure_dbar","type":"text"},{"id":"Oxygen_mgL","type":"text"},{"id":"pH","type":"text"},{"id":"Chlorophyll_ugL","type":"text"},{"id":"Turbidity_NTU","type":"text"},{"id":"Chlorophyll_SD_ugL","type":"text"},{"id":"Turbidity_SD_ugL","type":"text"},{"id":"Salinity_PSU","type":"text"},{"id":"Spec_Conductivity_Sm","type":"text"},{"id":"Oxygen_sat","type":"text"},{"id":"Event_Flags","type":"text"},{"id":"SUNA_id","type":"text"},{"id":"NO3_umol","type":"text"},{"id":"NO3_mgNL","type":"text"},{"id":"NO3_n","type":"text"}],
  "records": [
    [1,"HCEP03730564","2023-09-28 09:00:00","11.4248","3.44276","24.315","2.147","7.65","3.789","2.88","0.78","0.27","30.0733","4.72585","23.77","0","NA",null,null,null],
    [2,"HCEP03730564","2023-09-28 09:15:00","11.4237","3.44236","24.266","2.1","7.6","3.41","2.634","0.58","0.4","30.0704","4.72544","23.25","0","SATNPRO1963","24.218","0.3392","5"],
    [3,"HCEP03730564","2023-09-28 09:30:00","11.424","3.44029","24.285","2.086","7.56","3.192","2.023","0.72","0.41","30.05","4.72255","23.09","0","SATNPRO1963","24.388","0.3416","5"],
    [4,"HCEP03730564","2023-09-28 09:45:00","11.4184","3.44093","24.315","2.062","7.54","3.318","2.285","0.52","0.4","30.0608","4.72417","22.83","0","SATNPRO1963","24.244","0.33954","5"],
    [5,"HCEP03730564","2023-09-28 10:00:00","11.4166","3.44046","24.37","2.05","7.52","3.346","2.462","0.47","0.49","30.0577","4.72375","22.69","0","SATNPRO1963","24.426","0.34216","5"],
    [6,"HCEP03730564","2023-09-28 10:15:00","11.4163","3.44172","24.427","2.031","7.51","3.371","2.363","0.62","0.22","30.0701","4.72552","22.48","0","SATNPRO1963","24.52","0.34346","5"],
    [7,"HCEP03730564","2023-09-28 10:30:00","11.4085","3.44291","24.56","1.957","7.5","3.435","2.701","0.31","0.29","30.0879","4.72816","21.66","0","SATNPRO1963","24.262","0.33984","5"],
    [8,"HCEP03730564","2023-09-28 10:45:00","11.3959","3.44392","24.663","1.854","7.49","3.723","2.914","0.35","0.37","30.1079","4.73118","20.52","0","SATNPRO1963","24.186","0.33878","5"],
    [9,"HCEP03730564","2023-09-28 11:00:00","11.4248","3.44273","24.801","2.056","7.49","2.967","2.188","0.42","0.2","30.0729","4.72581","22.76","0","SATNPRO1963","24.286","0.3402","5"],
    [10,"HCEP03730564","2023-09-28 11:15:00","11.4042","3.44447","24.975","1.904","7.49","3.617","2.959","0.63","0.2","30.1064","4.73088","21.08","0","SATNPRO1963","24.404","0.34182","5"],
    [11,"HCEP03730564","2023-09-28 11:30:00","11.4044","3.44469","25.131","1.898","7.48","3.116","2.732","0.25","0.13","30.1082","4.73113","21.01","0","SATNPRO1963","24.62","0.34488","5"],
    [12,"HCEP03730564","2023-09-28 11:45:00","11.3955","3.44556","25.297","1.835","7.48","3.487","2.895","0.34","0.18","30.1239","4.7335","20.31","0","SATNPRO1963","24.46","0.3426","5"],
    [13,"HCEP03730564","2023-09-28 12:00:00","11.408","3.44527","25.495","1.936","7.48","2.521","2.168","0.24","0.12","30.1109","4.73148","21.43","0","SATNPRO1963","24.458","0.34262","5"],
    [14,"HCEP03730564","2023-09-28 12:15:00","11.408","3.44544","25.678","1.953","7.48","2.904","2.29","0.52","0.13","30.1124","4.73171","21.62","0","SATNPRO1963","24.451999999999998","0.3425","5"],
    [15,"HCEP03730564","2023-09-28 12:30:00","11.3946","3.44597","25.874","1.83","7.48","2.927","2.609","0.38","0.33","30.1284","4.73418","20.25","0","SATNPRO1963","24.694","0.34592","5"],
    [16,"HCEP03730564","2023-09-28 12:45:00","11.3709","3.44464","26.102","1.569","7.46","3.535","3.167","0.5","0.28","30.1347","4.73543","17.36","0","SATNPRO1963","24.954","0.34952","5"],
    [17,"HCEP03730564","2023-09-28 13:00:00","11.3739","3.4449","26.324","1.575","7.45","3.302","3.171","0.28","0.21","30.1347","4.73539","17.42","0","SATNPRO1963","24.912","0.34894","5"],
    [18,"HCEP03730564","2023-09-28 13:15:00","11.3842","3.4456","26.526","1.649","7.45","3.116","2.963","0.25","0.23","30.133","4.73502","18.25","0","SATNPRO1963","25.072","0.35118","5"],
    [19,"HCEP03730564","2023-09-28 13:30:00","11.3798","3.44542","26.767","1.624","7.45","3.132","3.026","0.34","0.21","30.1348","4.73535","17.97","0","SATNPRO1963","24.862000000000002","0.34822","5"],
    [20,"HCEP03730564","2023-09-28 13:45:00","11.3811","3.44556","26.971","1.622","7.45","3.313","2.986","0.38","0.25","30.135","4.73537","17.95","0","SATNPRO1963","24.16","0.3384","5"],
    [21,"HCEP03730564","2023-09-28 14:00:00","11.3829","3.44565","27.204","1.627","7.45","3.61","3.361","0.48","0.26","30.1344","4.73527","18.01","0","SATNPRO1963","24.198","0.33896","5"],
    [22,"HCEP03730564","2023-09-28 14:15:00","11.3856","3.44588","27.389","1.662","7.45","3.207","2.964","0.48","0.62","30.1342","4.73522","18.4","0","SATNPRO1963","24.424","0.34208","5"],
    [23,"HCEP03730564","2023-09-28 14:30:00","11.3982","3.446","27.545","1.794","7.46","2.311","2.114","0.44","0.21","30.1251","4.73375","19.86","0","SATNPRO1963","24.4","0.34178","5"],
    [24,"HCEP03730564","2023-09-28 14:45:00","11.4102","3.44604","27.712","1.875","7.46","2.573","2.444","0.4","0.16","30.1156","4.73224","20.77","0","SATNPRO1963","24.413999999999998","0.34196","5"],
    [25,"HCEP03730564","2023-09-28 15:00:00","11.4197","3.44496","27.865","1.899","7.47","3.419","3.292","0.31","0.48","30.0974","4.72953","21.03","0","SATNPRO1963","24.286","0.34016","5"],
    [26,"HCEP03730564","2023-09-28 15:15:00","11.4251","3.44423","27.966","1.943","7.47","3.036","2.725","0.34","0.35","30.0859","4.72782","21.52","0","SATNPRO1963","24.706","0.34608","5"],
    [27,"HCEP03730564","2023-09-28 15:30:00","11.428","3.44345","28.048","1.905","7.47","3.506","3.158","0.42","0.25","30.0759","4.72638","21.1","0","SATNPRO1963","24.984","0.34998","5"],
    [28,"HCEP03730564","2023-09-28 15:45:00","11.4326","3.44263","28.071","1.896","7.47","3.239","2.771","0.34","0.3","30.0643","4.72466","21","0","SATNPRO1963","24.728","0.34634","5"],
    [29,"HCEP03730564","2023-09-28 16:00:00","11.4335","3.44158","28.094","1.84","7.47","3.6","3.072","0.38","0.24","30.0534","4.72311","20.38","0","SATNPRO1963","24.922","0.34906","5"],
    [30,"HCEP03730564","2023-09-28 16:15:00","11.4399","3.44101","28.084","1.826","7.47","3.798","2.966","0.55","0.3","30.0427","4.7215","20.22","0","SATNPRO1963","24.876","0.34846","5"],
    [31,"HCEP03730564","2023-09-28 16:30:00","11.4507","3.44031","28.017","1.808","7.46","3.799","2.756","0.47","0.17","30.0271","4.71912","20.03","0","SATNPRO1963","24.512","0.34334","5"],
    [32,"HCEP03730564","2023-09-28 16:45:00","11.4607","3.44041","27.976","1.847","7.46","3.502","2.503","0.65","0.16","30.02","4.71797","20.46","0","SATNPRO1963","24.316","0.34058","5"],
    [33,"HCEP03730564","2023-09-28 17:00:00","11.465","3.43953","27.907","1.69","7.46","3.938","2.841","0.84","0.3","30.0081","4.71621","18.72","0","SATNPRO1963","24.298000000000002","0.34034","5"],
    [34,"HCEP03730564","2023-09-28 17:15:00","11.484","3.44098","27.813","1.703","7.46","4.72","3.324","0.42","0.15","30.0067","4.71574","18.87","0","SATNPRO1963","24.218","0.33924","5"],
    [35,"HCEP03730564","2023-09-28 17:30:00","11.4893","3.44117","27.772","1.813","7.46","3.612","2.779","0.21","0.17","30.0043","4.71533","20.09","0","SATNPRO1963","23.86","0.33418","5"],
    [36,"HCEP03730564","2023-09-28 17:45:00","11.4631","3.43958","27.647","1.723","7.46","3.643","2.875","0.23","0.12","30.0102","4.71652","19.09","0","SATNPRO1963","23.67","0.33152","5"],
    [37,"HCEP03730564","2023-09-28 18:00:00","11.4168","3.4417","27.509","1.679","7.45","3.483","2.893","0.34","0.18","30.0683","4.72543","18.59","0","SATNPRO1963","23.157999999999998","0.32436","5"],
    [38,"HCEP03730564","2023-09-28 18:15:00","11.4344","3.44084","27.381","1.749","7.45","3.036","2.692","0.16","0.14","30.0457","4.72196","19.36","0","SATNPRO1963","22.976","0.3218","5"],
    [39,"HCEP03730564","2023-09-28 18:30:00","11.439","3.44053","27.296","1.76","7.46","3.069","2.584","0.26","0.16","30.039","4.72094","19.49","0","SATNPRO1963","23.22","0.32526","5"],
    [40,"HCEP03730564","2023-09-28 18:45:00","11.4306","3.4404","27.083","1.717","7.46","3.225","2.697","0.2","0.23","30.0446","4.72185","19.01","0","SATNPRO1963","23.162","0.32442","5"],
    [41,"HCEP03730564","2023-09-28 19:00:00","11.4381","3.44002","26.927","1.727","7.45","3.126","2.478","0.34","0.12","30.035","4.72037","19.12","0","SATNPRO1963","23.924","0.3351","5"],
    [42,"HCEP03730564","2023-09-28 19:15:00","11.4393","3.43999","26.785","1.734","7.46","3.143","2.496","0.34","0.14","30.0338","4.72017","19.2","0","SATNPRO1963","23.908","0.33486","5"],
    [43,"HCEP03730564","2023-09-28 19:30:00","11.4455","3.43976","26.597","1.781","7.46","2.674","2.202","0.31","0.12","30.0265","4.71904","19.72","0","SATNPRO1963","23.778","0.33304","5"],
    [44,"HCEP03730564","2023-09-28 19:45:00","11.4448","3.43974","26.444","1.773","7.46","2.574","2.168","0.21","0.11","30.027","4.71911","19.63","0","SATNPRO1963","23.752","0.33268","5"],
    [45,"HCEP03730564","2023-09-28 20:00:00","11.4474","3.43961","26.299","1.776","7.46","2.633","2.098","0.26","0.12","30.0237","4.71859","19.67","0","SATNPRO1963","23.812","0.33358","5"],
    [46,"HCEP03730564","2023-09-28 20:15:00","11.3802","3.44194","26.017","1.287","7.45","6.822","5.641","0.42","0.27","30.101","4.73051","14.24","0","SATNPRO1963","23.964","0.33566","5"],
    [47,"HCEP03730564","2023-09-28 20:30:00","11.3841","3.44194","25.796","1.407","7.43","3.688","3.22","0.25","0.14","30.0979","4.73","15.57","0","SATNPRO1963","24","0.33618","5"],
    [48,"HCEP03730564","2023-09-28 20:45:00","11.3642","3.43972","25.641","1.479","7.43","2.601","2.549","0.28","0.18","30.0926","4.72954","16.36","0","SATNPRO1963","23.956","0.33556","5"],
    [49,"HCEP03730564","2023-09-28 21:00:00","11.3596","3.43984","25.47","1.497","7.43","3.824","4.081","0.45","0.31","30.0976","4.73031","16.56","0","SATNPRO1963","23.734","0.3324","5"],
    [50,"HCEP03730564","2023-09-28 21:15:00","11.3504","3.43956","25.326","1.416","7.43","2.983","2.773","0.44","0.35","30.1025","4.73113","15.65","0","SATNPRO1963","22.536","0.3157","5"],
    [51,"HCEP03730564","2023-09-28 21:30:00","11.3445","3.43881","25.214","1.347","7.43","2.622","2.321","0.3","0.34","30.1","4.73085","14.9","0","SATNPRO1963","23.768","0.33292","5"],
    [52,"HCEP03730564","2023-09-28 21:45:00","11.3388","3.43783","25.111","1.341","7.42","2.301","1.724","0.41","0.11","30.0952","4.73024","14.83","0","SATNPRO1963","24.046","0.33682","5"],
    [53,"HCEP03730564","2023-09-28 22:00:00","11.3341","3.43677","25.089","1.333","7.42","2.208","1.609","0.46","0.12","30.0887","4.7294","14.73","0","SATNPRO1963","23.932000000000002","0.33518","5"],
    [54,"HCEP03730564","2023-09-28 22:15:00","11.325","3.43455","25.084","1.355","7.42","1.822","1.223","0.26","0.19","30.0746","4.72753","14.97","0","SATNPRO1963","23.788","0.3332","5"],
    [55,"HCEP03730564","2023-09-28 22:30:00","11.3238","3.43419","25.132","1.348","7.42","2.087","1.418","0.42","0.51","30.072","4.72719","14.89","0","SATNPRO1963","23.76","0.33284","5"],
    [56,"HCEP03730564","2023-09-28 22:45:00","11.3215","3.43414","25.176","1.331","7.42","1.919","1.201","0.34","0.15","30.0735","4.72743","14.71","0","SATNPRO1963","23.674","0.33158","5"],
    [57,"HCEP03730564","2023-09-28 23:00:00","11.319","3.43389","25.245","1.325","7.42","1.802","1.08","0.46","0.2","30.073","4.7274","14.64","0","SATNPRO1963","23.726","0.33234","5"],
    [58,"HCEP03730564","2023-09-28 23:15:00","11.3307","3.43629","25.325","1.312","7.42","1.878","1.477","0.31","0.33","30.0868","4.72918","14.5","0","SATNPRO1963","23.89","0.33462","5"],
    [59,"HCEP03730564","2023-09-28 23:30:00","11.3327","3.43648","25.447","1.319","7.42","1.757","1.373","0.24","0.22","30.0869","4.72918","14.58","0","SATNPRO1963","24.07","0.33714","5"],
    [60,"HCEP03730564","2023-09-28 23:45:00","11.3461","3.43876","25.561","1.338","7.42","2.6","1.788","0.84","0.16","30.0981","4.73058","14.79","0","SATNPRO1963","23.887999999999998","0.33458","5"],
    [61,"HCEP03730564","2023-09-29 00:00:00","11.3507","3.43895","25.684","1.367","7.42","2.753","2.293","0.37","0.25","30.0962","4.73024","15.12","0","SATNPRO1963","23.86","0.33418","5"],
    [62,"HCEP03730564","2023-09-29 00:15:00","11.3673","3.43889","25.814","1.427","7.42","3.616","3.167","0.37","0.2","30.0819","4.72799","15.78","0","SATNPRO1963","23.814","0.33356","5"],
    [63,"HCEP03730564","2023-09-29 00:30:00","11.367","3.44046","25.976","1.302","7.42","4.724","4.353","0.53","0.49","30.0975","4.7302","14.4","0","SATNPRO1963","23.922","0.33508","5"],
    [64,"HCEP03730564","2023-09-29 00:45:00","11.3943","3.4403","26.144","1.411","7.42","4.579","3.897","0.87","0.6","30.0736","4.72642","15.61","0","SATNPRO1963","23.978","0.33586","5"],
    [65,"HCEP03730564","2023-09-29 01:00:00","11.4516","3.44036","26.312","1.706","7.44","2.563","2.275","0.39","0.2","30.0276","4.71908","18.89","0","SATNPRO1963","23.916","0.33496","5"],
    [66,"HCEP03730564","2023-09-29 01:15:00","11.5703","3.4513","26.467","2.22","7.47","2.204","1.582","0.32","0.19","30.037","4.71872","24.65","0","SATNPRO1963","23.738","0.3325","5"],
    [67,"HCEP03730564","2023-09-29 01:30:00","11.4641","3.44444","26.612","1.694","7.48","2.574","2.372","0.44","0.12","30.0568","4.72306","18.77","0","SATNPRO1963","23.47","0.32872","5"],
    [68,"HCEP03730564","2023-09-29 01:45:00","11.4444","3.44632","26.769","1.659","7.46","3.123","3.082","0.3","0.27","30.091","4.7282","18.38","0","SATNPRO1963","23.644","0.33118","5"],
    [69,"HCEP03730564","2023-09-29 02:00:00","11.4602","3.44849","26.916","1.641","7.46","4.174","4.158","0.3","0.27","30.099","4.72912","18.19","0","SATNPRO1963","23.884","0.33452","5"],
    [70,"HCEP03730564","2023-09-29 02:15:00","11.4881","3.45101","27.065","1.743","7.46","4.519","4.963","0.51","0.65","30.1007","4.72896","19.33","0","SATNPRO1963","24.94","0.34934","5"],
    [71,"HCEP03730564","2023-09-29 02:30:00","11.5982","3.46018","27.245","2.624","7.5","2.017","1.621","0.22","0.18","30.0998","4.72726","29.17","0","SATNPRO1963","24.27","0.33996","5"],
    [72,"HCEP03730564","2023-09-29 02:45:00","11.5987","3.45998","27.394","2.483","7.52","2.488","2.227","0.23","0.21","30.0974","4.72692","27.6","0","SATNPRO1963","24.468","0.34272","5"],
    [73,"HCEP03730564","2023-09-29 03:00:00","11.5647","3.45709","27.506","2.18","7.52","3.299","2.944","0.39","0.28","30.097","4.72736","24.21","0","SATNPRO1963","24.15","0.33826","5"],
    [74,"HCEP03730564","2023-09-29 03:15:00","11.5827","3.45877","27.594","2.387","7.52","3.319","2.74","0.55","0.29","30.0986","4.72732","26.52","0","SATNPRO1963","24.59","0.34442","5"],
    [75,"HCEP03730564","2023-09-29 03:30:00","11.6096","3.46128","27.687","2.622","7.53","2.168","1.516","0.22","0.15","30.101","4.72728","29.15","0","SATNPRO1963","26.156","0.36636","5"],
    [76,"HCEP03730564","2023-09-29 03:45:00","11.6156","3.46204","27.738","2.705","7.55","2.496","1.999","0.3","0.18","30.1035","4.72756","30.08","0","SATNPRO1963","25.490000000000002","0.35702","5"],
    [77,"HCEP03730564","2023-09-29 04:00:00","11.6244","3.45857","27.758","2.905","7.56","1.726","0.788","0.49","0.12","30.0629","4.72168","32.3","0","SATNPRO1963","25.26","0.35386","5"],
    [78,"HCEP03730564","2023-09-29 04:15:00","11.6462","3.45952","27.751","2.91","7.57","1.728","0.81","0.38","0.17","30.0543","4.72016","32.37","0","SATNPRO1963","25.276","0.35402","5"],
    [79,"HCEP03730564","2023-09-29 04:30:00","11.6302","3.459","27.725","2.786","7.57","2.676","1.225","1.66","0.68","30.0623","4.72151","30.98","0","SATNPRO1963","25.826","0.36172","5"],
    [80,"HCEP03730564","2023-09-29 04:45:00","11.603","3.45542","27.677","2.753","7.57","2.881","0.986","3.11","0.37","30.0499","4.72014","30.6","0","SATNPRO1963","25.876","0.36244","5"],
    [81,"HCEP03730564","2023-09-29 05:00:00","11.6206","3.45928","27.602","2.798","7.57","2.017","1.338","0.33","0.26","30.0728","4.72314","31.11","0","SATNPRO1963","25.936","0.36328","5"],
    [82,"HCEP03730564","2023-09-29 05:15:00","11.5941","3.46059","27.52","2.479","7.56","2.81","3.023","0.59","0.3","30.107","4.72834","27.56","0","SATNPRO1963","25.41","0.35592","5"],
    [83,"HCEP03730564","2023-09-29 05:30:00","11.5886","3.46032","27.41","2.429","7.55","2.622","3.051","0.3","0.24","30.1089","4.7287","26.99","0","SATNPRO1963","25.63","0.35898","5"],
    [84,"HCEP03730564","2023-09-29 05:45:00","11.5886","3.46032","27.278","2.433","7.54","2.664","2.839","0.36","0.18","30.109","4.7287","27.04","0","SATNPRO1963","25.286","0.35418","5"],
    [85,"HCEP03730564","2023-09-29 06:00:00","11.5898","3.46042","27.134","2.443","7.54","2.4","2.934","0.29","0.26","30.1089","4.72866","27.16","0","SATNPRO1963","25.57","0.35816","5"],
    [86,"HCEP03730564","2023-09-29 06:15:00","11.59","3.46021","26.973","2.453","7.54","2.88","2.416","0.89","0.22","30.1069","4.72836","27.26","0","SATNPRO1963","25.552","0.3579","5"],
    [87,"HCEP03730564","2023-09-29 06:30:00","11.5864","3.45965","26.823","2.423","7.54","2.494","2.803","0.24","0.27","30.1044","4.72805","26.93","0","SATNPRO1963","25.246","0.35358","5"],
    [88,"HCEP03730564","2023-09-29 06:45:00","11.5906","3.45897","26.673","2.413","7.54","2.859","3.078","0.96","1.11","30.0945","4.72659","26.82","0","SATNPRO1963","25.488","0.357","5"],
    [89,"HCEP03730564","2023-09-29 07:00:00","11.6019","3.4595","26.499","2.513","7.54","2.462","2.269","0.38","0.18","30.0905","4.72585","27.93","0","SATNPRO1963","25.616","0.35884","5"],
    [90,"HCEP03730564","2023-09-29 07:15:00","11.6087","3.45994","26.325","2.565","7.54","2.602","2.297","0.64","0.35","30.0894","4.72558","28.52","0","SATNPRO1963","25.41","0.3559","5"],
    [91,"HCEP03730564","2023-09-29 07:30:00","11.6092","3.45956","26.139","2.574","7.55","2.71","2.368","0.91","0.39","30.0853","4.72499","28.62","0","SATNPRO1963","25.316","0.35458","5"],
    [92,"HCEP03730564","2023-09-29 07:45:00","11.6102","3.45927","25.944","2.576","7.55","2.477","2.286","0.3","0.25","30.0818","4.72446","28.64","0","SATNPRO1963","25.122","0.35188","5"],
    [93,"HCEP03730564","2023-09-29 08:00:00","11.6115","3.45914","25.75","2.584","7.55","2.576","2.515","0.66","0.46","30.0796","4.72412","28.73","0","SATNPRO1963","25.418","0.35604","5"],
    [94,"HCEP03730564","2023-09-29 08:15:00","11.602","3.45838","25.554","2.497","7.55","2.369","2.11","0.3","0.2","30.08","4.7243","27.76","0","SATNPRO1963","25.408","0.35588","5"],
    [95,"HCEP03730564","2023-09-29 08:30:00","11.6024","3.45934","25.348","2.533","7.55","1.907","1.53","0.25","0.16","30.089","4.72556","28.15","0","SATNPRO1963","25.346","0.35506","5"],
    [96,"HCEP03730564","2023-09-29 08:45:00","11.5984","3.45968","25.151","2.513","7.55","2.497","2.202","1.06","0.22","30.0956","4.72653","27.94","0","SATNPRO1963","25.296","0.35434","5"],
    [97,"HCEP03730564","2023-09-29 09:00:00","11.587","3.45838","24.973","2.427","7.54","2.247","2.18","0.19","0.15","30.0924","4.72624","26.97","0","SATNPRO1963","25.436","0.35628","5"],
    [98,"HCEP03730564","2023-09-29 09:15:00","11.5683","3.45623","24.813","2.293","7.53","2.185","1.999","0.18","0.14","30.0869","4.72572","25.47","0","SATNPRO1963","25.1","0.35158","5"],
    [99,"HCEP03730564","2023-09-29 09:30:00","11.5786","3.4573","24.678","2.386","7.53","2.166","1.732","0.54","0.14","30.0889","4.72584","26.51","0","SATNPRO1963","25.376","0.35546","5"],
    [100,"HCEP03730564","2023-09-29 09:45:00","11.5782","3.45681","24.584","2.35","7.53","2.191","1.726","0.43","0.13","30.0845","4.72523","26.11","0","SATNPRO1963","25.566","0.3581","5"],
    [101,"HCEP03730564","2023-09-29 10:00:00","11.5794","3.4566","24.565","2.459","7.53","1.946","1.453","0.45","0.12","30.0815","4.72478","27.32","0","SATNPRO1963","25.436","0.3563","5"],
    [102,"HCEP03730564","2023-09-29 10:15:00","11.451","3.44698","24.582","1.595","7.51","4.166","3.275","2.29","0.21","30.0928","4.72824","17.67","0","SATNPRO1963","25.498","0.35714","5"],
    [103,"HCEP03730564","2023-09-29 10:30:00","11.4432","3.4464","24.636","1.488","7.48","3.101","2.643","0.51","0.2","30.0936","4.72846","16.48","0","SATNPRO1963","25.476","0.35684","5"],
    [104,"HCEP03730564","2023-09-29 10:45:00","11.4654","3.44809","24.668","1.591","7.46","2.793","2.653","0.2","0.24","30.0918","4.72789","17.64","0","SATNPRO1963","25.398","0.3557","5"],
    [105,"HCEP03730564","2023-09-29 11:00:00","11.4971","3.45103","24.759","1.887","7.47","2.544","2.264","0.34","0.19","30.0945","4.72782","20.93","0","SATNPRO1963","25.706","0.36006","5"],
    [106,"HCEP03730564","2023-09-29 11:15:00","11.5504","3.45579","24.824","2.172","7.49","2.194","1.646","0.64","0.13","30.0971","4.72743","24.11","0","SATNPRO1963","23.81","0.33348","5"],
    [107,"HCEP03730564","2023-09-29 11:30:00","11.5457","3.45571","24.966","2.225","7.5","2.194","1.594","0.51","0.14","30.1002","4.72793","24.71","0","SATNPRO1963","23.472","0.3288","5"],
    [108,"HCEP03730564","2023-09-29 11:45:00","11.4688","3.45016","25.116","1.822","7.5","2.957","2.652","0.85","0.35","30.1089","4.73028","20.2","0","SATNPRO1963","23.804000000000002","0.33342","5"],
    [109,"HCEP03730564","2023-09-29 12:00:00","11.475","3.452","25.287","1.682","7.48","2.771","3.146","0.29","0.16","30.1216","4.73201","18.65","0","SATNPRO1963","24.414","0.34196","5"],
    [110,"HCEP03730564","2023-09-29 12:15:00","11.4837","3.45361","25.473","1.774","7.47","2.689","3.429","0.3","0.3","30.1301","4.73309","19.68","0","SATNPRO1963","25.202","0.35302","5"],
    [111,"HCEP03730564","2023-09-29 12:30:00","11.5031","3.45572","25.663","1.872","7.48","2.413","2.902","0.59","0.25","30.1345","4.73345","20.77","0","SATNPRO1963","25.27","0.35398","5"],
    [112,"HCEP03730564","2023-09-29 12:45:00","11.4993","3.45519","25.858","1.872","7.48","2.414","3.28","0.28","0.22","30.1325","4.73323","20.77","0","SATNPRO1963","24.628","0.34496","5"],
    [113,"HCEP03730564","2023-09-29 13:00:00","11.5151","3.45659","26.09","1.948","7.49","2.519","3.9","0.22","0.45","30.1331","4.73309","21.62","0","SATNPRO1963","24.402","0.3418","5"],
    [114,"HCEP03730564","2023-09-29 13:15:00","11.5489","3.45966","26.289","2.016","7.49","2.625","4.079","0.28","0.26","30.1352","4.73292","22.39","0","SATNPRO1963","24.662","0.3454","5"],
    [115,"HCEP03730564","2023-09-29 13:30:00","11.5547","3.45981","26.485","2.178","7.51","2.591","4.142","0.21","0.29","30.1318","4.73237","24.19","0","SATNPRO1963","25.196","0.35292","5"],
    [116,"HCEP03730564","2023-09-29 13:45:00","11.5666","3.46061","26.686","2.181","7.51","2.588","4.347","0.28","0.52","30.1299","4.73193","24.23","0","SATNPRO1963","24.894","0.3487","5"],
    [117,"HCEP03730564","2023-09-29 14:00:00","11.5696","3.46088","26.882","2.211","7.51","2.71","4.734","0.24","0.43","30.13","4.73191","24.57","0","SATNPRO1963","25.366","0.3553","5"],
    [118,"HCEP03730564","2023-09-29 14:15:00","11.5752","3.46143","27.097","2.204","7.52","2.77","4.877","0.22","0.44","30.1306","4.73194","24.49","0","SATNPRO1963","25.446","0.35646","5"],
    [119,"HCEP03730564","2023-09-29 14:30:00","11.5712","3.46133","27.288","2.119","7.51","3.611","7.527","0.19","0.46","30.1328","4.73231","23.55","0","SATNPRO1963","25.282","0.35416","5"],
    [120,"HCEP03730564","2023-09-29 14:45:00","11.5729","3.46215","27.517","2.067","7.51","4.009","8.012","0.23","0.74","30.1393","4.73322","22.97","0","SATNPRO1963","25.508","0.35728","5"],
    [121,"HCEP03730564","2023-09-29 15:00:00","11.5776","3.46404","27.657","2.045","7.51","3.81","7.445","0.31","0.56","30.1536","4.73519","22.73","0","SATNPRO1963","25.592","0.35846","5"],
    [122,"HCEP03730564","2023-09-29 15:15:00","11.5855","3.46562","27.787","2.088","7.51","3.283","5.759","0.33","0.37","30.1625","4.73634","23.21","0","SATNPRO1963","25.599999999999998","0.3586","5"],
    [123,"HCEP03730564","2023-09-29 15:30:00","11.593","3.46653","27.957","2.092","7.51","3.412","6.219","0.26","0.44","30.165","4.7366","23.26","0","SATNPRO1963","24.978","0.34984","5"],
    [124,"HCEP03730564","2023-09-29 15:45:00","11.5936","3.4671","28.046","2.118","7.51","3.401","6.23","0.22","0.31","30.17","4.7373","23.55","0","SATNPRO1963","24.904","0.34884","5"],
    [125,"HCEP03730564","2023-09-29 16:00:00","11.5896","3.46661","28.122","2.062","7.51","3.849","7.212","0.38","1.48","30.1685","4.73716","22.93","0","SATNPRO1963","25.08","0.35126","5"],
    [126,"HCEP03730564","2023-09-29 16:15:00","11.5948","3.46711","28.152","2.103","7.51","3.233","5.465","0.4","0.35","30.1691","4.73716","23.39","0","SATNPRO1963","25.31","0.35448","5"],
    [127,"HCEP03730564","2023-09-29 16:30:00","11.6121","3.46894","28.162","2.3","7.52","2.208","3.446","0.21","0.32","30.1727","4.73742","25.58","0","SATNPRO1963","25.55","0.35792","5"],
    [128,"HCEP03730564","2023-09-29 16:45:00","11.5996","3.46769","28.134","2.143","7.52","3.306","5.249","0.54","0.41","30.1708","4.73734","23.83","0","SATNPRO1963","25.19","0.3528","5"],
    [129,"HCEP03730564","2023-09-29 17:00:00","11.5946","3.46699","28.102","2.056","7.51","3.518","6.205","0.29","0.45","30.1682","4.73703","22.87","0","SATNPRO1963","25.099999999999998","0.35158","5"],
    [130,"HCEP03730564","2023-09-29 17:15:00","11.5969","3.46892","28.044","2.28","7.52","2.603","4.364","0.21","0.25","30.1849","4.73937","25.36","0","SATNPRO1963","25.442","0.35636","5"],
    [131,"HCEP03730564","2023-09-29 17:30:00","11.6061","3.47001","27.96","2.373","7.53","2.435","3.925","0.36","0.19","30.188","4.73967","26.39","0","SATNPRO1963","26.078","0.36526","5"],
    [132,"HCEP03730564","2023-09-29 17:45:00","11.6113","3.47001","27.859","2.359","7.53","2.544","4.655","0.37","0.32","30.1838","4.73899","26.24","0","SATNPRO1963","25.318","0.35466","5"],
    [133,"HCEP03730564","2023-09-29 18:00:00","11.6136","3.46971","27.742","2.352","7.53","2.561","4.916","0.28","1.1","30.1791","4.73828","26.16","0","SATNPRO1963","25.166","0.35252","5"],
    [134,"HCEP03730564","2023-09-29 18:15:00","11.6152","3.46945","27.61","2.326","7.53","2.644","4.944","0.3","0.47","30.1753","4.73772","25.88","0","SATNPRO1963","25.876","0.36246","5"],
    [135,"HCEP03730564","2023-09-29 18:30:00","11.6193","3.46959","27.459","2.311","7.53","2.706","5.036","0.24","0.47","30.1734","4.73739","25.71","0","SATNPRO1963","26.442","0.37034","5"],
    [136,"HCEP03730564","2023-09-29 18:45:00","11.6164","3.46919","27.308","2.301","7.53","2.701","5.243","0.21","0.55","30.1719","4.7372","25.59","0","SATNPRO1963","25.87","0.36236","5"],
    [137,"HCEP03730564","2023-09-29 19:00:00","11.6187","3.46941","27.15","2.292","7.53","2.582","5.206","0.16","0.55","30.1723","4.73722","25.5","0","SATNPRO1963","25.918","0.36302","5"],
    [138,"HCEP03730564","2023-09-29 19:15:00","11.6253","3.46952","26.975","2.359","7.53","2.354","4.547","0.17","0.3","30.168","4.73651","26.25","0","SATNPRO1963","25.598","0.35852","5"],
    [139,"HCEP03730564","2023-09-29 19:30:00","11.6244","3.46942","26.814","2.358","7.53","2.378","4.68","0.31","0.37","30.1678","4.73649","26.23","0","SATNPRO1963","25.486","0.35698","5"],
    [140,"HCEP03730564","2023-09-29 19:45:00","11.6213","3.46924","26.61","2.329","7.53","2.367","4.259","0.36","0.37","30.1686","4.73663","25.92","0","SATNPRO1963","25.400000000000002","0.35578","5"],
    [141,"HCEP03730564","2023-09-29 20:00:00","11.6237","3.46909","26.419","2.365","7.54","2.21","3.979","0.26","0.45","30.1654","4.73613","26.31","0","SATNPRO1963","25.644000000000002","0.35922","5"],
    [142,"HCEP03730564","2023-09-29 20:15:00","11.6264","3.46884","26.208","2.431","7.54","1.904","3.352","0.14","0.18","30.1609","4.73545","27.05","0","SATNPRO1963","25.482","0.35694","5"],
    [143,"HCEP03730564","2023-09-29 20:30:00","11.6275","3.46952","25.978","2.493","7.54","1.725","2.59","0.44","0.16","30.1667","4.73623","27.74","0","SATNPRO1963","25.462","0.35664","5"],
    [144,"HCEP03730564","2023-09-29 20:45:00","11.6174","3.46992","25.755","2.413","7.54","1.857","3.433","0.21","0.15","30.1787","4.73807","26.85","0","SATNPRO1963","25.562","0.35806","5"],
    [145,"HCEP03730564","2023-09-29 21:00:00","11.6176","3.46983","25.535","2.418","7.54","1.74","2.971","0.52","0.16","30.1779","4.73793","26.9","0","SATNPRO1963","25.368","0.35534","5"],
    [146,"HCEP03730564","2023-09-29 21:15:00","11.6302","3.47001","25.294","2.574","7.55","1.407","2.12","0.13","0.14","30.1694","4.73654","28.64","0","SATNPRO1963","25.574","0.35816","5"],
    [147,"HCEP03730564","2023-09-29 21:30:00","11.6028","3.46906","25.082","2.289","7.54","2.088","3.644","0.27","0.15","30.1825","4.73878","25.46","0","SATNPRO1963","25.812","0.36154","5"],
    [148,"HCEP03730564","2023-09-29 21:45:00","11.5976","3.46866","24.883","2.249","7.53","1.817","3.452","0.21","0.22","30.183","4.73891","25.01","0","SATNPRO1963","25.898","0.36274","5"],
    [149,"HCEP03730564","2023-09-29 22:00:00","11.5923","3.46855","24.731","2.198","7.53","1.874","3.277","0.52","0.29","30.1864","4.73946","24.44","0","SATNPRO1963","26.13","0.36602","5"],
    [150,"HCEP03730564","2023-09-29 22:15:00","11.5835","3.46891","24.631","2.125","7.52","2.222","3.664","0.37","0.41","30.1971","4.74109","23.63","0","SATNPRO1963","26.468","0.37074","5"],
    [151,"HCEP03730564","2023-09-29 22:30:00","11.5804","3.46921","24.565","2.088","7.52","2.216","3.677","0.4","0.18","30.2025","4.7419","23.21","0","SATNPRO1963","25.926","0.36314","5"],
    [152,"HCEP03730564","2023-09-29 22:45:00","11.5929","3.46954","24.551","2.242","7.52","1.524","2.531","0.21","0.05","30.1955","4.74073","24.93","0","SATNPRO1963","25.828","0.36176","5"],
    [153,"HCEP03730564","2023-09-29 23:00:00","11.5867","3.46942","24.564","2.181","7.52","1.753","3.198","0.21","0.56","30.1994","4.74137","24.26","0","SATNPRO1963","25.658","0.3594","5"],
    [154,"HCEP03730564","2023-09-29 23:15:00","11.5897","3.46985","24.604","2.255","7.53","1.484","2.799","0.14","0.23","30.201","4.74156","25.08","0","SATNPRO1963","25.81","0.36152","5"],
    [155,"HCEP03730564","2023-09-29 23:30:00","11.6017","3.47042","24.672","2.393","7.53","1.407","2.642","0.19","0.29","30.1968","4.74079","26.61","0","SATNPRO1963","26.028","0.36458","5"],
    [156,"HCEP03730564","2023-09-29 23:45:00","11.601","3.47054","24.745","2.392","7.54","1.584","2.408","0.58","0.09","30.1985","4.74105","26.61","0","SATNPRO1963","25.87","0.36236","5"],
    [157,"HCEP03730564","2023-09-30 00:00:00","11.6027","3.4705","24.849","2.371","7.54","1.471","2.818","0.4","1.11","30.1967","4.74077","26.37","0","SATNPRO1963","25.832","0.36184","5"],
    [158,"HCEP03730564","2023-09-30 00:15:00","11.5979","3.47036","24.979","2.339","7.54","1.411","2.813","0.16","0.26","30.1992","4.7412","26.02","0","SATNPRO1963","26.2","0.367","5"],
    [159,"HCEP03730564","2023-09-30 00:30:00","11.5996","3.47029","25.122","2.375","7.54","1.441","2.676","0.3","0.37","30.197","4.74088","26.42","0","SATNPRO1963","26.188","0.36684","5"],
    [160,"HCEP03730564","2023-09-30 00:45:00","11.5907","3.46989","25.289","2.236","7.53","2.133","4.64","0.22","0.37","30.2004","4.74149","24.87","0","SATNPRO1963","26.446","0.37042","5"],
    [161,"HCEP03730564","2023-09-30 01:00:00","11.5849","3.46976","25.487","2.133","7.52","2.422","6.182","0.4","0.39","30.2037","4.74206","23.71","0","SATNPRO1963","26.24","0.36752","5"],
    [162,"HCEP03730564","2023-09-30 01:15:00","11.6016","3.47172","25.69","2.197","7.52","2.198","5.549","0.2","0.42","30.209","4.74258","24.43","0","SATNPRO1963","26.144","0.36616","5"],
    [163,"HCEP03730564","2023-09-30 01:30:00","11.6053","3.47225","25.861","2.324","7.53","2.225","5.879","0.26","0.42","30.211","4.74282","25.85","0","SATNPRO1963","27.169999999999998","0.38058","5"],
    [164,"HCEP03730564","2023-09-30 01:45:00","11.6094","3.47328","26.049","2.39","7.54","1.81","4.388","0.18","0.82","30.2176","4.7437","26.6","0","SATNPRO1963","26.012","0.36432","5"],
    [165,"HCEP03730564","2023-09-30 02:00:00","11.6163","3.47465","26.231","2.454","7.54","1.671","4.037","0.14","0.38","30.2251","4.74467","27.31","0","SATNPRO1963","25.836","0.36188","5"],
    [166,"HCEP03730564","2023-09-30 02:15:00","11.6152","3.47461","26.4","2.443","7.55","1.927","5.015","0.23","0.54","30.2255","4.74476","27.19","0","SATNPRO1963","26","0.36416","5"],
    [167,"HCEP03730564","2023-09-30 02:30:00","11.6198","3.4755","26.576","2.468","7.55","1.838","5.388","0.24","1.02","30.2304","4.74539","27.47","0","SATNPRO1963","25.97","0.36374","5"],
    [168,"HCEP03730564","2023-09-30 02:45:00","11.62","3.47565","26.751","2.483","7.55","1.886","4.919","0.45","0.38","30.2316","4.74557","27.63","0","SATNPRO1963","26.918","0.37702","5"],
    [169,"HCEP03730564","2023-09-30 03:00:00","11.6191","3.47574","26.923","2.53","7.55","1.788","5.334","0.18","0.52","30.2331","4.7458","28.16","0","SATNPRO1963","26.99","0.37804","5"],
    [170,"HCEP03730564","2023-09-30 03:15:00","11.6287","3.47654","27.093","2.566","7.56","1.559","4.411","0.14","0.38","30.2329","4.74564","28.57","0","SATNPRO1963","26.98","0.37788","5"],
    [171,"HCEP03730564","2023-09-30 03:30:00","11.6352","3.47665","27.258","2.583","7.56","1.545","4.324","0.17","0.49","30.2286","4.74495","28.76","0","SATNPRO1963","27.03","0.3786","5"],
    [172,"HCEP03730564","2023-09-30 03:45:00","11.6437","3.47674","27.414","2.629","7.56","1.419","3.863","0.11","0.35","30.2226","4.74399","29.27","0","SATNPRO1963","27.03","0.37858","5"],
    [173,"HCEP03730564","2023-09-30 04:00:00","11.6494","3.47621","27.527","2.636","7.56","1.52","3.779","0.13","0.26","30.2127","4.74252","29.35","0","SATNPRO1963","27.27","0.38194","5"],
    [174,"HCEP03730564","2023-09-30 04:15:00","11.6529","3.4753","27.631","2.666","7.57","1.4","3.211","0.19","0.31","30.2011","4.74083","29.68","0","SATNPRO1963","27.036","0.3787","5"],
    [175,"HCEP03730564","2023-09-30 04:30:00","11.6536","3.47503","27.666","2.636","7.57","1.554","3.702","0.15","0.4","30.1979","4.74037","29.35","0","SATNPRO1963","27.004","0.3782","5"],
    [176,"HCEP03730564","2023-09-30 04:45:00","11.6543","3.47527","27.697","2.647","7.57","1.396","3.459","0.14","0.35","30.1996","4.7406","29.48","0","SATNPRO1963","27.092","0.37948","5"],
    [177,"HCEP03730564","2023-09-30 05:00:00","11.6503","3.47616","27.697","2.624","7.57","1.536","4.103","0.12","0.46","30.2114","4.74233","29.23","0","SATNPRO1963","26.876","0.37644","5"],
    [178,"HCEP03730564","2023-09-30 05:15:00","11.6488","3.47662","27.679","2.622","7.57","1.532","3.296","0.27","0.21","30.2171","4.74316","29.2","0","SATNPRO1963","26.754","0.37472","5"],
    [179,"HCEP03730564","2023-09-30 05:30:00","11.649","3.47673","27.652","2.624","7.57","1.48","3.757","0.17","0.55","30.218","4.74328","29.22","0","SATNPRO1963","26.526","0.37156","5"],
    [180,"HCEP03730564","2023-09-30 05:45:00","11.6455","3.4766","27.598","2.61","7.57","1.415","3.17","0.19","0.24","30.2196","4.74355","29.06","0","SATNPRO1963","26.258","0.36776","5"],
    [181,"HCEP03730564","2023-09-30 06:00:00","11.6439","3.47626","27.529","2.607","7.57","1.29","3.064","0.16","0.14","30.2177","4.7433","29.03","0","SATNPRO1963","26.616","0.37284","5"],
    [182,"HCEP03730564","2023-09-30 06:15:00","11.6429","3.47588","27.435","2.605","7.56","1.333","2.705","0.21","0.16","30.2148","4.7429","29.01","0","SATNPRO1963","26.902","0.3768","5"],
    [183,"HCEP03730564","2023-09-30 06:30:00","11.6452","3.47535","27.338","2.617","7.56","1.254","2.626","0.16","0.17","30.2079","4.74189","29.14","0","SATNPRO1963","26.888","0.37662","5"],
    [184,"HCEP03730564","2023-09-30 06:45:00","11.6355","3.4723","27.22","2.681","7.57","1.076","1.785","0.21","0.17","30.1864","4.73898","29.84","0","SATNPRO1963","26.85","0.37606","5"],
    [185,"HCEP03730564","2023-09-30 07:00:00","11.6308","3.47128","27.084","2.683","7.57","1.068","1.505","0.21","0.2","30.1804","4.73819","29.86","0","SATNPRO1963","26.73","0.37442","5"],
    [186,"HCEP03730564","2023-09-30 07:15:00","11.6287","3.47055","26.95","2.709","7.57","1.119","1.509","0.14","0.22","30.1752","4.73747","30.15","0","SATNPRO1963","26.716","0.37422","5"],
    [187,"HCEP03730564","2023-09-30 07:30:00","11.6152","3.46866","26.819","2.729","7.57","0.88","1.033","0.15","0.09","30.168","4.73664","30.36","0","SATNPRO1963","26.708","0.3741","5"],
    [188,"HCEP03730564","2023-09-30 07:45:00","11.6264","3.46949","26.683","2.724","7.57","1.112","1.288","0.36","0.23","30.167","4.73633","30.3","0","SATNPRO1963","26.622","0.37288","5"],
    [189,"HCEP03730564","2023-09-30 08:00:00","11.6391","3.47365","26.542","2.572","7.57","1.638","3.383","0.24","0.58","30.1968","4.74036","28.63","0","SATNPRO1963","26.782","0.37508","5"],
    [190,"HCEP03730564","2023-09-30 08:15:00","11.6371","3.47383","26.381","2.539","7.56","1.975","4.271","0.35","0.29","30.2002","4.74086","28.26","0","SATNPRO1963","26.744","0.3746","5"],
    [191,"HCEP03730564","2023-09-30 08:30:00","11.636","3.47377","26.216","2.534","7.56","1.777","4.351","0.19","0.3","30.2005","4.74092","28.21","0","SATNPRO1963","27.004","0.37826","5"],
    [192,"HCEP03730564","2023-09-30 08:45:00","11.64","3.47258","26.054","2.606","7.56","1.209","2.321","0.18","0.27","30.1859","4.73878","29.01","0","SATNPRO1963","26.962","0.37766","5"],
    [193,"HCEP03730564","2023-09-30 09:00:00","11.6317","3.47413","25.852","2.532","7.56","1.642","4.032","0.17","0.25","30.2077","4.74197","28.18","0","SATNPRO1963","26.268","0.36792","5"],
    [194,"HCEP03730564","2023-09-30 09:15:00","11.6206","3.47438","25.676","2.442","7.55","1.852","4.749","0.29","0.34","30.2192","4.74375","27.18","0","SATNPRO1963","26.434","0.37024","5"],
    [195,"HCEP03730564","2023-09-30 09:30:00","11.6101","3.4736","25.49","2.329","7.55","1.947","5.399","0.18","0.41","30.2203","4.74405","25.91","0","SATNPRO1963","26.03","0.36464","5"],
    [196,"HCEP03730564","2023-09-30 09:45:00","11.6066","3.47327","25.326","2.304","7.54","1.932","4.836","0.16","0.28","30.22","4.74404","25.63","0","SATNPRO1963","26.504","0.37128","5"],
    [197,"HCEP03730564","2023-09-30 10:00:00","11.6044","3.47303","25.184","2.286","7.54","2.149","4.738","1.2","0.36","30.2195","4.74399","25.43","0","SATNPRO1963","26.292","0.36826","5"],
    [198,"HCEP03730564","2023-09-30 10:15:00","11.6032","3.47289","25.066","2.291","7.54","1.802","4.136","0.28","0.2","30.2193","4.74397","25.49","0","SATNPRO1963","26.288","0.36818","5"],
    [199,"HCEP03730564","2023-09-30 10:30:00","11.6002","3.47293","24.988","2.222","7.53","2.019","5.068","0.15","0.24","30.2221","4.74441","24.72","0","SATNPRO1963","26.304000000000002","0.36844","5"],
    [200,"HCEP03730564","2023-09-30 10:45:00","11.5998","3.473","24.928","2.217","7.53","1.979","4.577","0.22","0.23","30.2232","4.74456","24.67","0","SATNPRO1963","26.216","0.3672","5"],
    [201,"HCEP03730564","2023-09-30 11:00:00","11.6001","3.47319","24.94","2.271","7.53","1.719","3.787","0.16","0.22","30.2248","4.74479","25.27","0","SATNPRO1963","26.25","0.36766","5"],
    [202,"HCEP03730564","2023-09-30 11:15:00","11.5963","3.4735","24.96","2.161","7.53","1.945","4.311","0.22","0.25","30.2308","4.7457","24.04","0","SATNPRO1963","26.276","0.36804","5"],
    [203,"HCEP03730564","2023-09-30 11:30:00","11.6034","3.47381","25.013","2.27","7.53","1.714","3.603","0.59","0.27","30.228","4.7452","25.25","0","SATNPRO1963","25.976","0.36384","5"],
    [204,"HCEP03730564","2023-09-30 11:45:00","11.61","3.47466","25.099","2.388","7.54","1.237","2.536","0.13","0.15","30.2307","4.7455","26.57","0","SATNPRO1963","25.986","0.364","5"],
    [205,"HCEP03730564","2023-09-30 12:00:00","11.6096","3.47473","25.212","2.332","7.54","1.513","3.254","0.15","0.25","30.2318","4.74566","25.95","0","SATNPRO1963","26.084","0.36536","5"],
    [206,"HCEP03730564","2023-09-30 12:15:00","11.6134","3.47506","25.343","2.431","7.54","1.191","2.43","0.16","0.15","30.2318","4.74562","27.05","0","SATNPRO1963","25.876","0.36246","5"],
    [207,"HCEP03730564","2023-09-30 12:30:00","11.6141","3.47492","25.487","2.405","7.54","1.232","2.516","0.18","0.17","30.2299","4.74534","26.76","0","SATNPRO1963","26.52","0.3715","5"],
    [208,"HCEP03730564","2023-09-30 12:45:00","11.6159","3.475","25.641","2.471","7.55","0.984","1.846","0.18","0.1","30.2291","4.74521","27.5","0","SATNPRO1963","26.792","0.37528","5"],
    [209,"HCEP03730564","2023-09-30 13:00:00","11.6129","3.47458","25.811","2.502","7.55","1.068","1.587","0.33","0.2","30.2274","4.74502","27.84","0","SATNPRO1963","26.73","0.37442","5"],
    [210,"HCEP03730564","2023-09-30 13:15:00","11.5982","3.47232","25.97","2.524","7.55","0.941","1.365","0.23","0.08","30.2175","4.74384","28.08","0","SATNPRO1963","26.95","0.37752","5"],
    [211,"HCEP03730564","2023-09-30 13:30:00","11.6001","3.47275","26.138","2.487","7.55","0.793","1.539","0.09","0.16","30.22","4.74418","27.67","0","SATNPRO1963","26.94","0.37736","5"],
    [212,"HCEP03730564","2023-09-30 13:45:00","11.6006","3.47321","26.315","2.478","7.55","0.926","1.547","0.2","0.11","30.2239","4.74473","27.57","0","SATNPRO1963","26.994","0.3781","5"],
    [213,"HCEP03730564","2023-09-30 14:00:00","11.6196","3.47574","26.508","2.511","7.55","0.949","1.96","0.14","0.28","30.2328","4.74573","27.95","0","SATNPRO1963","27.334","0.3829","5"],
    [214,"HCEP03730564","2023-09-30 14:15:00","11.6189","3.47566","26.689","2.477","7.55","1.166","2.529","0.24","0.32","30.2326","4.74573","27.57","0","SATNPRO1963","27.444","0.38442","5"],
    [215,"HCEP03730564","2023-09-30 14:30:00","11.6052","3.47425","26.876","2.384","7.55","1.302","3.009","0.24","0.27","30.2301","4.74558","26.53","0","SATNPRO1963","27.308","0.38248","5"],
    [216,"HCEP03730564","2023-09-30 14:45:00","11.6308","3.47393","27.065","2.652","7.55","0.813","1.063","0.09","0.07","30.206","4.74181","29.51","0","SATNPRO1963","27.384","0.38356","5"],
    [217,"HCEP03730564","2023-09-30 15:00:00","11.621","3.47571","27.255","2.326","7.55","1.407","4.166","0.12","0.24","30.2311","4.74551","25.88","0","SATNPRO1963","27.318","0.38266","5"],
    [218,"HCEP03730564","2023-09-30 15:15:00","11.6235","3.47583","27.454","2.295","7.54","1.505","4.522","0.13","0.31","30.2302","4.74536","25.55","0","SATNPRO1963","27.182","0.38076","5"],
    [219,"HCEP03730564","2023-09-30 15:30:00","11.6249","3.47584","27.634","2.267","7.54","1.376","4.492","0.08","0.27","30.2291","4.74519","25.24","0","SATNPRO1963","26.778","0.37504","5"],
    [220,"HCEP03730564","2023-09-30 15:45:00","11.6263","3.4758","27.792","2.279","7.54","1.49","4.68","0.16","0.36","30.2275","4.74495","25.37","0","SATNPRO1963","27.323999999999998","0.38278","5"],
    [221,"HCEP03730564","2023-09-30 16:00:00","11.6229","3.47541","27.92","2.18","7.53","1.476","4.889","0.14","0.42","30.2264","4.74486","24.26","0","SATNPRO1963","26.432","0.37024","5"],
    [222,"HCEP03730564","2023-09-30 16:15:00","11.6272","3.47545","28.025","2.201","7.53","1.502","4.547","0.18","0.24","30.2233","4.74437","24.5","0","SATNPRO1963","26.222","0.36726","5"],
    [223,"HCEP03730564","2023-09-30 16:30:00","11.6278","3.47536","28.109","2.186","7.53","1.478","4.578","0.16","0.33","30.2219","4.74416","24.33","0","SATNPRO1963","25.948","0.36346","5"],
    [224,"HCEP03730564","2023-09-30 16:45:00","11.6357","3.47519","28.149","2.194","7.53","1.635","4.767","0.21","0.32","30.2138","4.7429","24.42","0","SATNPRO1963","26.114","0.36578","5"],
    [225,"HCEP03730564","2023-09-30 17:00:00","11.638","3.47553","28.151","2.25","7.53","1.396","4.243","0.17","0.31","30.2152","4.74307","25.05","0","SATNPRO1963","25.528","0.35754","5"],
    [226,"HCEP03730564","2023-09-30 17:15:00","11.6396","3.47583","28.129","2.262","7.53","1.463","4.131","0.15","0.32","30.2168","4.74327","25.18","0","SATNPRO1963","25.558","0.35798","5"],
    [227,"HCEP03730564","2023-09-30 17:30:00","11.6391","3.47614","28.063","2.293","7.53","1.291","3.833","0.15","0.2","30.2202","4.74375","25.53","0","SATNPRO1963","25.602","0.35858","5"],
    [228,"HCEP03730564","2023-09-30 17:45:00","11.6389","3.47636","27.991","2.305","7.53","1.312","3.562","0.17","0.25","30.2225","4.74407","25.67","0","SATNPRO1963","25.288","0.35422","5"],
    [229,"HCEP03730564","2023-09-30 18:00:00","11.6353","3.47618","27.919","2.319","7.54","1.243","3.319","0.35","0.17","30.2237","4.7443","25.82","0","SATNPRO1963","25.722","0.36026","5"],
    [230,"HCEP03730564","2023-09-30 18:15:00","11.6305","3.47603","27.801","2.295","7.54","1.128","3.34","0.09","0.17","30.2262","4.74471","25.54","0","SATNPRO1963","25.612","0.35876","5"],
    [231,"HCEP03730564","2023-09-30 18:30:00","11.6247","3.47588","27.676","2.241","7.53","1.09","3.455","0.1","0.35","30.2296","4.74526","24.94","0","SATNPRO1963","25.82","0.36162","5"],
    [232,"HCEP03730564","2023-09-30 18:45:00","11.6196","3.47567","27.53","2.267","7.53","1.092","3.19","0.09","0.26","30.2317","4.74564","25.23","0","SATNPRO1963","26.008","0.36428","5"],
    [233,"HCEP03730564","2023-09-30 19:00:00","11.6152","3.47525","27.369","2.283","7.53","0.99","2.89","0.09","0.24","30.2314","4.74564","25.41","0","SATNPRO1963","25.99","0.36404","5"],
    [234,"HCEP03730564","2023-09-30 19:15:00","11.6099","3.47481","27.197","2.329","7.54","0.969","2.412","0.12","0.2","30.2315","4.74573","25.92","0","SATNPRO1963","25.924","0.3631","5"],
    [235,"HCEP03730564","2023-09-30 19:30:00","11.5965","3.47362","27.02","2.281","7.54","0.958","2.348","0.12","0.22","30.231","4.74584","25.37","0","SATNPRO1963","25.966","0.36372","5"],
    [236,"HCEP03730564","2023-09-30 19:45:00","11.5926","3.47341","26.848","2.23","7.53","1.165","2.951","0.36","0.22","30.2322","4.74605","24.81","0","SATNPRO1963","26.088","0.36542","5"],
    [237,"HCEP03730564","2023-09-30 20:00:00","11.5887","3.47273","26.659","2.2","7.53","0.996","2.832","0.12","0.42","30.2289","4.74563","24.47","0","SATNPRO1963","26.276","0.36802","5"],
    [238,"HCEP03730564","2023-09-30 20:15:00","11.5862","3.47233","26.455","2.181","7.53","1.041","2.767","0.15","0.39","30.2272","4.74541","24.26","0","SATNPRO1963","26.483999999999998","0.37098","5"],
    [239,"HCEP03730564","2023-09-30 20:30:00","11.5822","3.47163","26.24","2.194","7.53","1.052","2.749","0.13","0.15","30.2237","4.74496","24.4","0","SATNPRO1963","26.924","0.3771","5"],
    [240,"HCEP03730564","2023-09-30 20:45:00","11.5798","3.47122","26.008","2.201","7.53","0.939","2.257","0.11","0.17","30.221800000000002","4.74472","24.47","0","SATNPRO1963","26.46","0.37062","5"],
    [241,"HCEP03730564","2023-09-30 21:00:00","11.5844","3.4711","25.78","2.22","7.53","0.902","2.368","0.09","0.18","30.217","4.74396","24.69","0","SATNPRO1963","26.958","0.37762","5"],
    [242,"HCEP03730564","2023-09-30 21:15:00","11.5942","3.47197","25.534","2.197","7.53","1.072","3.242","0.12","0.21","30.2175","4.74388","24.44","0","SATNPRO1963","26.428","0.37016","5"],
    [243,"HCEP03730564","2023-09-30 21:30:00","11.5912","3.47147","25.291","2.134","7.52","1.117","3.54","0.08","0.2","30.2152","4.74359","23.73","0","SATNPRO1963","26.434","0.37024","5"],
    [244,"HCEP03730564","2023-09-30 21:45:00","11.5907","3.47109","25.046","2.167","7.52","1.137","3.283","0.13","0.39","30.212","4.74313","24.1","0","SATNPRO1963","26.544","0.37176","5"],
    [245,"HCEP03730564","2023-09-30 22:00:00","11.5873","3.47069","24.809","2.176","7.52","1.005","2.553","0.15","0.16","30.2111","4.74303","24.2","0","SATNPRO1963","26.464","0.3707","5"],
    [246,"HCEP03730564","2023-09-30 22:15:00","11.591","3.4713","24.611","2.136","7.52","0.99","2.549","0.22","0.22","30.214","4.74338","23.75","0","SATNPRO1963","26.026","0.36452","5"],
    [247,"HCEP03730564","2023-09-30 22:30:00","11.5926","3.47229","24.449","2.076","7.52","1.078","2.806","0.24","0.21","30.2223","4.74452","23.1","0","SATNPRO1963","25.774","0.36098","5"],
    [248,"HCEP03730564","2023-09-30 22:45:00","11.5834","3.47303","24.325","1.866","7.51","1.341","4.512","0.14","0.46","30.237","4.74672","20.76","0","SATNPRO1963","25.952","0.36348","5"],
    [249,"HCEP03730564","2023-09-30 23:00:00","11.5817","3.47319","24.253","1.815","7.5","1.453","4.93","0.2","0.48","30.24","4.74716","20.18","0","SATNPRO1963","25.962","0.36366","5"],
    [250,"HCEP03730564","2023-09-30 23:15:00","11.5819","3.47351","24.218","1.785","7.5","1.337","4.349","0.17","0.24","30.2429","4.74758","19.85","0","SATNPRO1963","26.054000000000002","0.36494","5"],
    [251,"HCEP03730564","2023-09-30 23:30:00","11.5847","3.47369","24.216","1.825","7.5","1.397","5.119","0.12","0.34","30.2424","4.74746","20.29","0","SATNPRO1963","25.826","0.36176","5"],
    [252,"HCEP03730564","2023-09-30 23:45:00","11.5838","3.47366","24.244","1.836","7.5","1.306","4.68","0.13","0.26","30.2428","4.74754","20.42","0","SATNPRO1963","24.855999999999998","0.34816","5"],
    [253,"HCEP03730564","2023-10-01 00:00:00","11.5984","3.47411","24.284","2.167","7.51","0.985","3.13","0.13","0.09","30.2353","4.74627","24.11","0","SATNPRO1963","24.52","0.34342","5"],
    [254,"HCEP03730564","2023-10-01 00:15:00","11.5778","3.46944","24.347","2.39","7.53","0.673","1.382","0.13","0.1","30.2069","4.74255","26.57","0","SATNPRO1963","24.798000000000002","0.34736","5"],
    [255,"HCEP03730564","2023-10-01 00:30:00","11.5991","3.47312","24.434","2.391","7.54","0.774","1.622","0.14","0.13","30.2251","4.74482","26.6","0","SATNPRO1963","24.732","0.34642","5"],
    [256,"HCEP03730564","2023-10-01 00:45:00","11.5915","3.4707","24.553","2.454","7.54","0.662","1.171","0.09","0.28","30.2079","4.7425","27.29","0","SATNPRO1963","24.84","0.3479","5"],
    [257,"HCEP03730564","2023-10-01 01:00:00","11.5953","3.47264","24.692","2.262","7.54","0.805","1.975","0.16","0.17","30.2234","4.74465","25.16","0","SATNPRO1963","25.855999999999998","0.36212","5"],
    [258,"HCEP03730564","2023-10-01 01:15:00","11.5919","3.47245","24.857","2.145","7.53","0.965","3.151","0.1","0.1","30.2243","4.74483","23.86","0","SATNPRO1963","26.93","0.3772","5"],
    [259,"HCEP03730564","2023-10-01 01:30:00","11.5843","3.47257","25.048","1.938","7.52","1.055","4.231","0.29","0.29","30.2316","4.74599","21.56","0","SATNPRO1963","26.994","0.37808","5"],
    [260,"HCEP03730564","2023-10-01 01:45:00","11.5845","3.47233","25.249","1.964","7.51","0.917","3.277","0.07","0.2","30.2291","4.74564","21.85","0","SATNPRO1963","27.142","0.38018","5"],
    [261,"HCEP03730564","2023-10-01 02:00:00","11.5676","3.46746","25.438","2.304","7.52","0.859","2.159","0.28","0.13","30.1957","4.74117","25.61","0","SATNPRO1963","26.594","0.37252","5"],
    [262,"HCEP03730564","2023-10-01 02:15:00","11.5644","3.46516","25.619","2.405","7.53","0.621","0.566","0.07","0.04","30.176","4.73843","26.72","0","SATNPRO1963","25.85","0.3621","5"],
    [263,"HCEP03730564","2023-10-01 02:30:00","11.5718","3.46699","25.801","2.399","7.54","0.713","1.418","0.14","0.19","30.1876","4.73998","26.67","0","SATNPRO1963","25.118","0.35178","5"],
    [264,"HCEP03730564","2023-10-01 02:45:00","11.5842","3.4724","25.989","1.906","7.52","1.113","5.364","0.08","0.24","30.2297","4.74577","21.2","0","SATNPRO1963","25.412","0.35592","5"],
    [265,"HCEP03730564","2023-10-01 03:00:00","11.5864","3.47317","26.182","1.886","7.51","1.026","5.61","0.08","0.5","30.2352","4.74653","20.98","0","SATNPRO1963","27.202","0.38104","5"],
    [266,"HCEP03730564","2023-10-01 03:15:00","11.5887","3.47375","26.377","1.919","7.5","1.132","5.666","0.09","0.41","30.2389","4.74703","21.35","0","SATNPRO1963","26.968","0.37772","5"],
    [267,"HCEP03730564","2023-10-01 03:30:00","11.5944","3.47459","26.584","1.975","7.5","1.091","5.123","0.13","0.35","30.2423","4.74744","21.97","0","SATNPRO1963","27.33","0.3828","5"],
    [268,"HCEP03730564","2023-10-01 03:45:00","11.5997","3.47533","26.784","1.988","7.51","1.126","5.302","0.15","0.46","30.245","4.74776","22.12","0","SATNPRO1963","25.11","0.35166","5"],
    [269,"HCEP03730564","2023-10-01 04:00:00","11.6048","3.47578","26.969","2.005","7.51","1.066","5.493","0.09","0.49","30.2452","4.74772","22.31","0","SATNPRO1963","25.274","0.35402","5"],
    [270,"HCEP03730564","2023-10-01 04:15:00","11.6054","3.47566","27.134","1.985","7.51","1.009","4.957","0.13","0.33","30.2434","4.74747","22.08","0","SATNPRO1963","25.438","0.3563","5"],
    [271,"HCEP03730564","2023-10-01 04:30:00","11.6065","3.47574","27.282","1.982","7.51","1.002","4.828","0.1","0.4","30.2432","4.74744","22.06","0","SATNPRO1963","25.634","0.35906","5"],
    [272,"HCEP03730564","2023-10-01 04:45:00","11.607","3.47571","27.423","1.975","7.51","1.153","4.613","0.13","0.19","30.2425","4.74733","21.97","0","SATNPRO1963","25.546","0.35784","5"],
    [273,"HCEP03730564","2023-10-01 05:00:00","11.6094","3.47591","27.524","1.974","7.51","1.415","4.683","0.54","0.21","30.2425","4.7473","21.97","0","SATNPRO1963","25.678","0.35968","5"],
    [274,"HCEP03730564","2023-10-01 05:15:00","11.6106","3.47626","27.608","1.992","7.51","1.03","4.66","0.24","0.28","30.2448","4.74762","22.17","0","SATNPRO1963","26.064","0.36502","5"],
    [275,"HCEP03730564","2023-10-01 05:30:00","11.6126","3.47686","27.66","2.016","7.51","0.955","4.545","0.13","0.29","30.2489","4.74817","22.44","0","SATNPRO1963","25.758","0.36076","5"],
    [276,"HCEP03730564","2023-10-01 05:45:00","11.6174","3.4774","27.685","2.044","7.51","0.864","4.108","0.09","0.29","30.2502","4.74829","22.75","0","SATNPRO1963","25.672","0.3596","5"],
    [277,"HCEP03730564","2023-10-01 06:00:00","11.6189","3.47778","27.686","2.054","7.51","0.861","3.953","0.12","0.26","30.2526","4.74861","22.86","0","SATNPRO1963","25.344","0.35496","5"],
    [278,"HCEP03730564","2023-10-01 06:15:00","11.6152","3.47748","27.667","2.031","7.51","0.973","4.221","0.13","0.18","30.2527","4.74868","22.61","0","SATNPRO1963","25.776","0.36104","5"],
    [279,"HCEP03730564","2023-10-01 06:30:00","11.6117","3.47745","27.624","1.974","7.51","0.988","4.831","0.12","0.3","30.2554","4.7491","21.97","0","SATNPRO1963","26.026","0.36454","5"],
    [280,"HCEP03730564","2023-10-01 06:45:00","11.6086","3.47734","27.568","1.956","7.51","1.094","5.04","0.12","0.51","30.2568","4.74935","21.77","0","SATNPRO1963","25.942","0.36338","5"],
    [281,"HCEP03730564","2023-10-01 07:00:00","11.6059","3.47717","27.504","1.94","7.51","0.925","4.491","0.07","0.31","30.2575","4.74947","21.59","0","SATNPRO1963","25.842000000000002","0.36192","5"],
    [282,"HCEP03730564","2023-10-01 07:15:00","11.6035","3.4769","27.433","1.908","7.5","1.09","4.857","0.16","0.53","30.2569","4.74942","21.23","0","SATNPRO1963","25.938","0.3633","5"],
    [283,"HCEP03730564","2023-10-01 07:30:00","11.6066","3.4774","27.341","1.956","7.5","0.892","3.446","0.1","0.18","30.2591","4.74969","21.77","0","SATNPRO1963","25.436","0.35626","5"],
    [284,"HCEP03730564","2023-10-01 07:45:00","11.6185","3.47797","27.249","2.07","7.51","0.871","3.717","0.09","0.34","30.2549","4.74892","23.04","0","SATNPRO1963","25.6","0.35858","5"],
    [285,"HCEP03730564","2023-10-01 08:00:00","11.5968","3.47494","27.127","1.958","7.51","0.877","3.886","0.12","0.23","30.2435","4.7476","21.78","0","SATNPRO1963","25.382","0.35554","5"],
    [286,"HCEP03730564","2023-10-01 08:15:00","11.5968","3.47454","27.011","1.952","7.51","1.079","4.488","0.12","0.22","30.2397","4.74707","21.72","0","SATNPRO1963","25.418","0.35602","5"],
    [287,"HCEP03730564","2023-10-01 08:30:00","11.5873","3.47311","26.902","1.865","7.5","1.055","4.436","0.17","0.31","30.2336","4.74633","20.74","0","SATNPRO1963","25.768","0.3609","5"],
    [288,"HCEP03730564","2023-10-01 08:45:00","11.5966","3.47385","26.784","1.947","7.5","0.958","3.785","0.11","0.29","30.2332","4.74613","21.66","0","SATNPRO1963","26.026","0.3646","5"],
    [289,"HCEP03730564","2023-10-01 09:00:00","11.603","3.47427","26.654","2.015","7.51","0.866","3.438","0.08","0.27","30.2322","4.74589","22.42","0","SATNPRO1963","25.496","0.35714","5"],
    [290,"HCEP03730564","2023-10-01 09:15:00","11.614","3.47527","26.515","2.164","7.51","0.768","2.443","0.12","0.23","30.2329","4.74583","24.08","0","SATNPRO1963","25.478","0.3569","5"],
    [291,"HCEP03730564","2023-10-01 09:30:00","11.601","3.47345","26.374","2.082","7.52","0.779","2.911","0.12","0.24","30.226","4.74502","23.16","0","SATNPRO1963","25.658","0.35938","5"],
    [292,"HCEP03730564","2023-10-01 09:45:00","11.5938","3.47181","26.22","2","7.51","0.893","3.207","0.14","0.19","30.2161","4.74372","22.25","0","SATNPRO1963","25.82","0.36162","5"],
    [293,"HCEP03730564","2023-10-01 10:00:00","11.5987","3.47202","26.065","2.096","7.51","0.845","3.168","0.21","0.2","30.2141","4.74336","23.32","0","SATNPRO1963","25.534","0.35768","5"],
    [294,"HCEP03730564","2023-10-01 10:15:00","11.5966","3.47151","25.904","2.052","7.51","0.9","3.396","0.14","0.22","30.211","4.74295","22.82","0","SATNPRO1963","26.364","0.36926","5"],
    [295,"HCEP03730564","2023-10-01 10:30:00","11.5997","3.47144","25.752","2.093","7.51","0.921","3.61","0.1","0.23","30.2079","4.74245","23.28","0","SATNPRO1963","25.788","0.36122","5"],
    [296,"HCEP03730564","2023-10-01 10:45:00","11.599","3.47121","25.616","1.979","7.51","1.114","4.1","0.41","0.33","30.2063","4.74222","22.02","0","SATNPRO1963","25.73","0.3604","5"],
    [297,"HCEP03730564","2023-10-01 11:00:00","11.5937","3.47108","25.505","1.902","7.5","1.003","3.789","0.13","0.25","30.2094","4.74273","21.16","0","SATNPRO1963","25.936","0.3633","5"],
    [298,"HCEP03730564","2023-10-01 11:15:00","11.5929","3.47101","25.422","1.89","7.5","0.886","3.372","0.09","0.2","30.2093","4.74273","21.02","0","SATNPRO1963","25.454","0.35654","5"],
    [299,"HCEP03730564","2023-10-01 11:30:00","11.5961","3.47085","25.373","1.978","7.5","1.031","3.532","0.3","0.2","30.2052","4.7421","22","0","SATNPRO1963","25.578","0.35828","5"],
    [300,"HCEP03730564","2023-10-01 11:45:00","11.5929","3.47047","25.362","2.086","7.51","0.9","3.233","0.12","0.08","30.2042","4.74201","23.2","0","SATNPRO1963","24.986","0.35","5"],
    [301,"HCEP03730564","2023-10-01 12:00:00","11.5929","3.47055","25.387","2.07","7.51","0.9","2.517","0.2","0.2","30.2049","4.7421","23.02","0","SATNPRO1963","25.2","0.35302","5"],
    [302,"HCEP03730564","2023-10-01 12:15:00","11.5903","3.47033","25.463","2.029","7.51","0.848","2.841","0.33","0.17","30.2048","4.74214","22.57","0","SATNPRO1963","24.738","0.34648","5"],
    [303,"HCEP03730564","2023-10-01 12:30:00","11.588","3.47082","25.537","2.077","7.51","0.661","2.303","0.08","0.16","30.2115","4.74311","23.1","0","SATNPRO1963","25.44","0.35636","5"],
    [304,"HCEP03730564","2023-10-01 12:45:00","11.5911","3.47252","25.629","2.098","7.51","0.722","2.208","0.15","0.6","30.2254","4.74504","23.33","0","SATNPRO1963","25.902","0.36282","5"],
    [305,"HCEP03730564","2023-10-01 13:00:00","11.5892","3.47477","25.737","1.792","7.5","1.039","3.998","0.48","0.13","30.2486","4.74836","19.94","0","SATNPRO1963","25.952","0.36344","5"],
    [306,"HCEP03730564","2023-10-01 13:15:00","11.5908","3.47341","25.867","1.882","7.5","0.745","3.079","0.08","0.23","30.234","4.74628","20.94","0","SATNPRO1963","25.612","0.35872","5"],
    [307,"HCEP03730564","2023-10-01 13:30:00","11.5892","3.47477","26.002","1.802","7.5","0.949","4.072","0.15","0.18","30.2485","4.74836","20.04","0","SATNPRO1963","25.686","0.35974","5"],
    [308,"HCEP03730564","2023-10-01 13:45:00","11.5829","3.47479","26.138","1.588","7.49","1.013","4.607","0.11","0.18","30.2538","4.74921","17.67","0","SATNPRO1963","26.118","0.36582","5"],
    [309,"HCEP03730564","2023-10-01 14:00:00","11.5936","3.47491","26.268","1.807","7.49","0.745","3.293","0.08","0.15","30.2461","4.74798","20.1","0","SATNPRO1963","24.746000000000002","0.34656","5"],
    [310,"HCEP03730564","2023-10-01 14:15:00","11.5901","3.47561","26.426","1.69","7.49","0.917","3.977","0.12","0.26","30.2557","4.74939","18.8","0","SATNPRO1963","25.198","0.35296","5"],
    [311,"HCEP03730564","2023-10-01 14:30:00","11.5967","3.47618","26.58","1.802","7.49","0.812","3.917","0.09","0.3","30.2557","4.74931","20.05","0","SATNPRO1963","25.036","0.3507","5"],
    [312,"HCEP03730564","2023-10-01 14:45:00","11.5971","3.47641","26.739","1.788","7.49","0.797","4.004","0.07","1.07","30.2575","4.74957","19.9","0","SATNPRO1963","24.416","0.34198","5"],
    [313,"HCEP03730564","2023-10-01 15:00:00","11.6111","3.4766","26.899","1.971","7.5","0.742","3.27","0.15","0.49","30.2479","4.74801","21.93","0","SATNPRO1963","25.094","0.35146","5"],
    [314,"HCEP03730564","2023-10-01 15:15:00","11.6024","3.47652","27.059","1.818","7.5","0.839","4.163","0.07","0.22","30.2542","4.74903","20.23","0","SATNPRO1963","24.648","0.34526","5"],
    [315,"HCEP03730564","2023-10-01 15:30:00","11.6038","3.47662","27.217","1.806","7.49","0.878","4.188","0.18","0.25","30.2539","4.74898","20.1","0","SATNPRO1963","24.95","0.34946","5"],
    [316,"HCEP03730564","2023-10-01 15:45:00","11.6264","3.47649","27.373","2.17","7.51","0.708","2.758","0.09","0.17","30.2342","4.74588","24.16","0","SATNPRO1963","25.282","0.3541","5"],
    [317,"HCEP03730564","2023-10-01 16:00:00","11.6118","3.47634","27.516","1.923","7.51","0.856","4.616","0.09","0.22","30.2446","4.74757","21.41","0","SATNPRO1963","25.878","0.3625","5"],
    [318,"HCEP03730564","2023-10-01 16:15:00","11.6081","3.47511","27.662","1.927","7.51","0.845","3.866","0.14","0.6","30.2357","4.74637","21.44","0","SATNPRO1963","25.07","0.35112","5"],
    [319,"HCEP03730564","2023-10-01 16:30:00","11.5966","3.47401","27.773","1.722","7.49","0.955","4.741","0.1","0.24","30.2344","4.74636","19.15","0","SATNPRO1963","25.06","0.35098","5"],
    [320,"HCEP03730564","2023-10-01 16:45:00","11.5953","3.47364","27.892","1.671","7.48","1.043","5.722","0.14","0.4","30.2318","4.74602","18.59","0","SATNPRO1963","26.5","0.37118","5"],
    [321,"HCEP03730564","2023-10-01 17:00:00","11.5993","3.47356","27.976","1.672","7.48","0.926","5.056","0.11","0.43","30.2277","4.74538","18.6","0","SATNPRO1963","25.512","0.35738","5"],
    [322,"HCEP03730564","2023-10-01 17:15:00","11.5987","3.47328","28.016","1.636","7.48","0.985","5.494","0.09","0.6","30.2255","4.74508","18.2","0","SATNPRO1963","24.91","0.34892","5"],
    [323,"HCEP03730564","2023-10-01 17:30:00","11.5973","3.47324","28.032","1.607","7.47","0.966","5.883","0.08","0.48","30.2262","4.74521","17.88","0","SATNPRO1963","24.494","0.34308","5"],
    [324,"HCEP03730564","2023-10-01 17:45:00","11.597","3.47316","28.02","1.594","7.47","1.01","5.542","0.08","0.32","30.2258","4.74515","17.73","0","SATNPRO1963","24.116","0.33778","5"],
    [325,"HCEP03730564","2023-10-01 18:00:00","11.6004","3.47325","27.992","1.603","7.47","0.989","5.139","0.1","0.41","30.2239","4.74483","17.84","0","SATNPRO1963","24.104","0.33764","5"],
    [326,"HCEP03730564","2023-10-01 18:15:00","11.6032","3.4734","27.95","1.612","7.47","0.882","4.651","0.12","0.3","30.2231","4.74467","17.93","0","SATNPRO1963","23.8","0.33336","5"],
    [327,"HCEP03730564","2023-10-01 18:30:00","11.6065","3.47372","27.874","1.631","7.47","0.788","4.527","0.12","0.29","30.2236","4.74469","18.15","0","SATNPRO1963","23.814","0.33354","5"],
    [328,"HCEP03730564","2023-10-01 18:45:00","11.6079","3.47395","27.781","1.652","7.47","0.743","3.975","0.09","0.16","30.2245","4.7448","18.38","0","SATNPRO1963","23.842","0.33392","5"],
    [329,"HCEP03730564","2023-10-01 19:00:00","11.6086","3.47424","27.665","1.666","7.47","0.714","3.864","0.1","0.15","30.2269","4.74512","18.54","0","SATNPRO1963","23.782","0.33308","5"],
    [330,"HCEP03730564","2023-10-01 19:15:00","11.6039","3.47413","27.522","1.666","7.48","0.782","3.826","0.07","0.27","30.2296","4.74557","18.53","0","SATNPRO1963","23.806","0.33342","5"],
    [331,"HCEP03730564","2023-10-01 19:30:00","11.6066","3.47492","27.361","1.743","7.48","0.781","4.43","0.07","0.29","30.2351","4.74629","19.4","0","SATNPRO1963","23.574","0.33022","5"],
    [332,"HCEP03730564","2023-10-01 19:45:00","11.6055","3.47512","27.194","1.752","7.48","0.736","4.161","0.07","0.38","30.2381","4.74672","19.5","0","SATNPRO1963","23.952","0.33548","5"],
    [333,"HCEP03730564","2023-10-01 20:00:00","11.6139","3.47665","27.016","1.862","7.49","0.613","3.119","0.06","0.2","30.2461","4.74772","20.72","0","SATNPRO1963","24.048","0.33686","5"],
    [334,"HCEP03730564","2023-10-01 20:15:00","11.6167","3.4769","26.829","1.898","7.49","0.695","3.179","0.16","0.22","30.2462","4.74769","21.12","0","SATNPRO1963","24.02","0.33646","5"],
    [335,"HCEP03730564","2023-10-01 20:30:00","11.6189","3.47703","26.641","1.927","7.5","0.592","3.112","0.14","0.23","30.2458","4.74758","21.45","0","SATNPRO1963","24.942","0.34936","5"],
    [336,"HCEP03730564","2023-10-01 20:45:00","11.6245","3.47777","26.427","1.997","7.5","0.683","2.584","0.18","0.24","30.2485","4.74787","22.23","0","SATNPRO1963","24.732","0.3464","5"],
    [337,"HCEP03730564","2023-10-01 21:00:00","11.6301","3.47838","26.194","2.078","7.51","0.587","2.536","0.11","0.13","30.2499","4.74798","23.14","0","SATNPRO1963","25.36","0.35522","5"],
    [338,"HCEP03730564","2023-10-01 21:15:00","11.6363","3.47917","25.955","2.145","7.52","0.514","2.006","0.08","0.34","30.2526","4.74826","23.89","0","SATNPRO1963","25.422","0.35606","5"],
    [339,"HCEP03730564","2023-10-01 21:30:00","11.6402","3.47936","25.731","2.221","7.52","0.572","1.668","0.16","0.13","30.2513","4.74801","24.73","0","SATNPRO1963","25.44","0.35636","5"],
    [340,"HCEP03730564","2023-10-01 21:45:00","11.6417","3.47931","25.489","2.257","7.53","0.501","1.563","0.06","0.1","30.2497","4.74776","25.14","0","SATNPRO1963","26.004","0.36422","5"],
    [341,"HCEP03730564","2023-10-01 22:00:00","11.6427","3.47966","25.233","2.272","7.53","0.489","1.631","0.1","0.15","30.2524","4.7481","25.3","0","SATNPRO1963","25.972","0.3638","5"],
    [342,"HCEP03730564","2023-10-01 22:15:00","11.6438","3.48003","24.977","2.27","7.54","0.484","1.352","0.08","0.07","30.2551","4.74846","25.29","0","SATNPRO1963","26.404","0.36984","5"],
    [343,"HCEP03730564","2023-10-01 22:30:00","11.6467","3.47993","24.739","2.32","7.54","0.477","1.378","0.08","0.06","30.2519","4.74794","25.84","0","SATNPRO1963","26.512","0.37136","5"],
    [344,"HCEP03730564","2023-10-01 22:45:00","11.6477","3.47934","24.498","2.324","7.54","0.474","1.383","0.06","0.07","30.2455","4.74701","25.89","0","SATNPRO1963","26.758","0.37476","5"],
    [345,"HCEP03730564","2023-10-01 23:00:00","11.6472","3.47938","24.318","2.318","7.54","0.476","1.445","0.07","0.24","30.2463","4.74713","25.82","0","SATNPRO1963","26.868000000000002","0.37632","5"],
    [346,"HCEP03730564","2023-10-01 23:15:00","11.6461","3.47934","24.179","2.314","7.54","0.504","1.245","0.09","0.11","30.2468","4.74721","25.78","0","SATNPRO1963","26.945999999999998","0.37746","5"],
    [347,"HCEP03730564","2023-10-01 23:30:00","11.6464","3.47919","24.072","2.314","7.54","0.453","1.502","0.07","0.24","30.2452","4.74697","25.77","0","SATNPRO1963","26.744","0.37462","5"],
    [348,"HCEP03730564","2023-10-01 23:45:00","11.6485","3.47947","24.027","2.34","7.54","0.599","1.321","0.32","0.12","30.2463","4.74709","26.06","0","SATNPRO1963","26.788","0.3752","5"],
    [349,"HCEP03730564","2023-10-02 00:00:00","11.6503","3.47997","24.011","2.376","7.55","0.464","1.177","0.09","0.09","30.2497","4.74754","26.47","0","SATNPRO1963","26.918","0.37704","5"],
    [350,"HCEP03730564","2023-10-02 00:15:00","11.648","3.47926","24.017","2.377","7.55","0.443","1.097","0.04","0.07","30.2446","4.74686","26.48","0","SATNPRO1963","26.892","0.37666","5"],
    [351,"HCEP03730564","2023-10-02 00:30:00","11.6422","3.47853","24.054","2.374","7.55","0.436","1.21","0.07","0.45","30.2423","4.74661","26.44","0","SATNPRO1963","27.228","0.38136","5"],
    [352,"HCEP03730564","2023-10-02 00:45:00","11.6271","3.47737","24.09","2.092","7.54","0.584","2.637","0.06","0.16","30.2434","4.74699","23.29","0","SATNPRO1963","27.062","0.37906","5"],
    [353,"HCEP03730564","2023-10-02 01:00:00","11.645","3.47896","24.162","2.262","7.53","0.453","1.477","0.06","0.12","30.2441","4.74683","25.19","0","SATNPRO1963","27.156","0.38034","5"],
    [354,"HCEP03730564","2023-10-02 01:15:00","11.6341","3.47782","24.259","2.102","7.53","0.509","2.026","0.06","0.12","30.242","4.7467","23.41","0","SATNPRO1963","27.24","0.38152","5"],
    [355,"HCEP03730564","2023-10-02 01:30:00","11.6273","3.47749","24.38","2.021","7.52","0.616","2.48","0.09","0.14","30.2443","4.74713","22.5","0","SATNPRO1963","27.268","0.38194","5"],
    [356,"HCEP03730564","2023-10-02 01:45:00","11.6285","3.47815","24.512","1.971","7.51","0.695","4.179","0.1","1.36","30.2496","4.74787","21.94","0","SATNPRO1963","26.04","0.36474","5"],
    [357,"HCEP03730564","2023-10-02 02:00:00","11.624","3.47771","24.67","1.888","7.51","0.608","3.375","0.07","0.33","30.249","4.74785","21.02","0","SATNPRO1963","26.748","0.37466","5"],
    [358,"HCEP03730564","2023-10-02 02:15:00","11.6135","3.47711","24.855","1.7","7.49","0.735","4.915","0.04","0.46","30.2517","4.7484","18.92","0","SATNPRO1963","26.01","0.3643","5"],
    [359,"HCEP03730564","2023-10-02 02:30:00","11.6218","3.47727","25.047","1.798","7.49","0.649","4.018","0.05","0.24","30.2464","4.74754","20.02","0","SATNPRO1963","25.812","0.3615","5"],
    [360,"HCEP03730564","2023-10-02 02:45:00","11.623","3.47891","25.244","1.717","7.49","0.732","5.13","0.04","0.31","30.2612","4.74963","19.12","0","SATNPRO1963","25.323999999999998","0.3547","5"],
    [361,"HCEP03730564","2023-10-02 03:00:00","11.6265","3.47927","25.437","1.743","7.49","0.727","5.123","0.06","0.35","30.2617","4.74966","19.4","0","SATNPRO1963","25.188","0.3528","5"],
    [362,"HCEP03730564","2023-10-02 03:15:00","11.63","3.47946","25.629","1.745","7.49","0.741","4.845","0.09","0.17","30.2606","4.74947","19.42","0","SATNPRO1963","24.324","0.3407","5"],
    [363,"HCEP03730564","2023-10-02 03:30:00","11.6281","3.47921","25.844","1.702","7.48","0.736","5.256","0.09","0.19","30.2597","4.74937","18.95","0","SATNPRO1963","24.88","0.3485","5"],
    [364,"HCEP03730564","2023-10-02 03:45:00","11.6303","3.47896","26.043","1.705","7.48","0.784","5.903","0.08","0.39","30.2554","4.74875","18.99","0","SATNPRO1963","24.384","0.3415","5"],
    [365,"HCEP03730564","2023-10-02 04:00:00","11.6334","3.47888","26.255","1.731","7.48","0.776","5.898","0.1","0.33","30.2521","4.74824","19.28","0","SATNPRO1963","24.742","0.34656","5"],
    [366,"HCEP03730564","2023-10-02 04:15:00","11.636","3.47939","26.463","1.737","7.48","0.8","6.283","0.06","0.42","30.2548","4.74861","19.34","0","SATNPRO1963","24.58","0.3443","5"],
    [367,"HCEP03730564","2023-10-02 04:30:00","11.6409","3.47898","26.666","1.768","7.48","0.729","5.632","0.06","0.66","30.2467","4.7474","19.68","0","SATNPRO1963","24.462","0.34264","5"],
    [368,"HCEP03730564","2023-10-02 04:45:00","11.6442","3.4788","26.846","1.773","7.49","0.768","5.703","0.07","0.42","30.2421","4.74672","19.75","0","SATNPRO1963","24.284","0.34016","5"],
    [369,"HCEP03730564","2023-10-02 05:00:00","11.6521","3.47898","27.022","1.861","7.49","0.725","5.363","0.05","0.31","30.2374","4.74595","20.73","0","SATNPRO1963","24.602","0.34458","5"],
    [370,"HCEP03730564","2023-10-02 05:15:00","11.656","3.47878","27.158","1.894","7.49","0.786","5.267","0.08","0.39","30.2322","4.74516","21.09","0","SATNPRO1963","24.451999999999998","0.34248","5"],
    [371,"HCEP03730564","2023-10-02 05:30:00","11.6557","3.47895","27.285","1.895","7.5","0.744","5.513","0.08","0.51","30.234","4.74543","21.11","0","SATNPRO1963","24.45","0.34248","5"],
    [372,"HCEP03730564","2023-10-02 05:45:00","11.6561","3.47952","27.407","1.92","7.5","0.698","4.923","0.05","0.36","30.2393","4.74617","21.39","0","SATNPRO1963","24.366","0.34132","5"],
    [373,"HCEP03730564","2023-10-02 06:00:00","11.6561","3.48095","27.514","1.948","7.5","0.709","5.411","0.05","0.27","30.253","4.74812","21.7","0","SATNPRO1963","24.904","0.34882","5"],
    [374,"HCEP03730564","2023-10-02 06:15:00","11.6656","3.48395","27.594","2.017","7.51","0.817","5.962","0.05","0.67","30.2741","4.75098","22.48","0","SATNPRO1963","24.744","0.3466","5"],
    [375,"HCEP03730564","2023-10-02 06:30:00","11.656","3.48459","27.656","1.968","7.51","0.896","6.969","0.07","0.65","30.2881","4.7531","21.93","0","SATNPRO1963","24.796","0.34734","5"],
    [376,"HCEP03730564","2023-10-02 06:45:00","11.6525","3.48474","27.647","1.949","7.51","0.811","5.413","0.06","0.34","30.2924","4.75376","21.72","0","SATNPRO1963","24.894","0.34868","5"],
    [377,"HCEP03730564","2023-10-02 07:00:00","11.6487","3.48458","27.647","1.941","7.51","0.809","5.487","0.08","0.47","30.2939","4.75402","21.63","0","SATNPRO1963","25.330000000000002","0.35474","5"],
    [378,"HCEP03730564","2023-10-02 07:15:00","11.6475","3.48459","27.637","1.98","7.51","0.79","4.942","0.07","0.37","30.2951","4.75421","22.06","0","SATNPRO1963","25.974","0.36382","5"],
    [379,"HCEP03730564","2023-10-02 07:30:00","11.6451","3.48456","27.597","2.014","7.51","0.756","4.883","0.05","0.35","30.2967","4.75446","22.44","0","SATNPRO1963","25.990000000000002","0.36402","5"],
    [380,"HCEP03730564","2023-10-02 07:45:00","11.6439","3.48426","27.585","2.023","7.51","0.721","4.22","0.05","0.19","30.2948","4.75422","22.54","0","SATNPRO1963","26.03","0.36462","5"],
    [381,"HCEP03730564","2023-10-02 08:00:00","11.6436","3.48385","27.564","2.219","7.52","0.675","3.628","0.04","0.19","30.2911","4.75369","24.72","0","SATNPRO1963","25.998","0.36408","5"],
    [382,"HCEP03730564","2023-10-02 08:15:00","11.6482","3.48402","27.485","2.247","7.53","0.638","2.596","0.06","0.16","30.2891","4.75333","25.03","0","SATNPRO1963","26.222","0.36726","5"],
    [383,"HCEP03730564","2023-10-02 08:30:00","11.6552","3.48435","27.381","2.253","7.53","0.578","2.336","0.09","0.12","30.2866","4.75288","25.11","0","SATNPRO1963","26.384","0.36954","5"],
    [384,"HCEP03730564","2023-10-02 08:45:00","11.656","3.48415","27.291","2.115","7.53","0.606","3.003","0.05","0.11","30.284","4.7525","23.56","0","SATNPRO1963","26.432000000000002","0.37022","5"],
    [385,"HCEP03730564","2023-10-02 09:00:00","11.6568","3.48365","27.203","2.484","7.54","0.647","2.631","0.25","0.11","30.2786","4.75171","27.68","0","SATNPRO1963","27.26","0.38178","5"],
    [386,"HCEP03730564","2023-10-02 09:15:00","11.6838","3.48507","27.114","2.602","7.56","0.525","1.035","0.06","0.12","30.2703","4.75016","29.01","0","SATNPRO1963","27.462","0.38468","5"],
    [387,"HCEP03730564","2023-10-02 09:30:00","11.6564","3.48351","27.041","2.517","7.56","0.62","2.148","0.09","0.13","30.2776","4.75158","28.05","0","SATNPRO1963","27.384","0.38358","5"],
    [388,"HCEP03730564","2023-10-02 09:45:00","11.6636","3.48378","26.933","2.544","7.56","0.526","1","0.04","0.05","30.2745","4.75102","28.35","0","SATNPRO1963","26.586","0.37236","5"],
    [389,"HCEP03730564","2023-10-02 10:00:00","11.6667","3.4841","26.816","2.503","7.56","0.524","1.637","0.05","0.11","30.2749","4.75103","27.9","0","SATNPRO1963","28.344","0.397","5"],
    [390,"HCEP03730564","2023-10-02 10:15:00","11.673","3.48445","26.708","2.409","7.56","0.567","1.802","0.05","0.11","30.2733","4.7507","26.85","0","SATNPRO1963","28.122","0.39386","5"],
    [391,"HCEP03730564","2023-10-02 10:30:00","11.668","3.48394","26.591","2.204","7.55","0.581","2.765","0.07","0.11","30.2724","4.75065","24.56","0","SATNPRO1963","28.094","0.3935","5"],
    [392,"HCEP03730564","2023-10-02 10:45:00","11.6586","3.48292","26.461","2.074","7.53","0.636","3.52","0.1","0.29","30.2704","4.75048","23.11","0","SATNPRO1963","28.183999999999997","0.39478","5"],
    [393,"HCEP03730564","2023-10-02 11:00:00","11.6617","3.48225","26.379","2.214","7.53","0.523","2.101","0.05","0.15","30.2614","4.74917","24.67","0","SATNPRO1963","28.066","0.39314","5"],
    [394,"HCEP03730564","2023-10-02 11:15:00","11.6475","3.48058","26.29","2.24","7.53","0.54","2.099","0.05","0.11","30.2568","4.74872","24.95","0","SATNPRO1963","27.616","0.38682","5"],
    [395,"HCEP03730564","2023-10-02 11:30:00","11.6341","3.47875","26.144","2.045","7.52","0.55","2.722","0.05","0.22","30.2503","4.74797","22.77","0","SATNPRO1963","26.376","0.36942","5"],
    [396,"HCEP03730564","2023-10-02 11:45:00","11.6463","3.48153","25.979","1.989","7.51","0.588","3.394","0.04","0.13","30.2671","4.75018","22.16","0","SATNPRO1963","26.084","0.36534","5"],
    [397,"HCEP03730564","2023-10-02 12:00:00","11.6424","3.48135","25.922","1.938","7.51","0.54","3.308","0.04","0.09","30.2686","4.75043","21.58","0","SATNPRO1963","27.084","0.37934","5"],
    [398,"HCEP03730564","2023-10-02 12:15:00","11.6325","3.48089","25.882","1.824","7.5","0.664","4.163","0.04","0.22","30.2723","4.7511","20.31","0","SATNPRO1963","26.596","0.37254","5"],
    [399,"HCEP03730564","2023-10-02 12:30:00","11.624","3.47947","25.794","1.802","7.5","0.601","3.82","0.05","0.16","30.2655","4.75025","20.06","0","SATNPRO1963","25.612","0.35876","5"],
    [400,"HCEP03730564","2023-10-02 12:45:00","11.6253","3.47972","25.848","1.787","7.49","0.649","4.053","0.04","0.14","30.2669","4.75043","19.89","0","SATNPRO1963","25.556","0.35796","5"],
    [401,"HCEP03730564","2023-10-02 13:00:00","11.6247","3.47987","25.94","1.761","7.49","0.66","4.3","0.04","0.15","30.2688","4.75072","19.6","0","SATNPRO1963","25.576","0.35822","5"],
    [402,"HCEP03730564","2023-10-02 13:15:00","11.6206","3.47949","25.981","1.719","7.49","0.646","4.112","0.04","0.1","30.2684","4.75073","19.14","0","SATNPRO1963","25.034","0.35064","5"],
    [403,"HCEP03730564","2023-10-02 13:30:00","11.6182","3.47853","25.994","1.74","7.49","0.607","3.825","0.2","0.11","30.2611","4.74972","19.36","0","SATNPRO1963","25.13","0.35198","5"],
    [404,"HCEP03730564","2023-10-02 13:45:00","11.6213","3.47843","26.102","1.804","7.49","0.555","3.278","0.03","0.09","30.2576","4.74919","20.08","0","SATNPRO1963","24.956","0.34954","5"],
    [405,"HCEP03730564","2023-10-02 14:00:00","11.6163","3.4782","26.177","1.724","7.49","0.621","3.936","0.06","0.15","30.2594","4.74952","19.19","0","SATNPRO1963","24.82","0.34764","5"],
    [406,"HCEP03730564","2023-10-02 14:15:00","11.6106","3.47753","26.343","1.678","7.48","0.589","3.524","0.05","0.1","30.2575","4.74934","18.67","0","SATNPRO1963","24.596","0.34454","5"],
    [407,"HCEP03730564","2023-10-02 14:30:00","11.6097","3.47735","26.482","1.695","7.48","0.524","3.395","0.03","0.08","30.2564","4.74921","18.86","0","SATNPRO1963","24.594","0.34446","5"],
    [408,"HCEP03730564","2023-10-02 14:45:00","11.6068","3.47721","26.547","1.65","7.48","0.554","3.306","0.04","0.13","30.2574","4.7494","18.37","0","SATNPRO1963","24.92","0.34904","5"],
    [409,"HCEP03730564","2023-10-02 15:00:00","11.6107","3.47736","26.696","1.747","7.48","0.486","2.893","0.03","0.07","30.2557","4.74911","19.44","0","SATNPRO1963","24.406","0.34188","5"],
    [410,"HCEP03730564","2023-10-02 15:15:00","11.6143","3.47761","26.82","1.779","7.49","0.492","2.725","0.03","0.09","30.2551","4.74898","19.8","0","SATNPRO1963","24.274","0.34006","5"],
    [411,"HCEP03730564","2023-10-02 15:30:00","11.6087","3.47823","26.938","1.63","7.48","0.651","4.479","0.03","0.12","30.2656","4.75056","18.14","0","SATNPRO1963","24.348","0.34104","5"],
    [412,"HCEP03730564","2023-10-02 15:45:00","11.6143","3.47992","27.029","1.659","7.48","0.665","4.402","0.05","0.13","30.2772","4.75212","18.47","0","SATNPRO1963","24.150000000000002","0.33828","5"],
    [413,"HCEP03730564","2023-10-02 16:00:00","11.6162","3.48054","27.233","1.672","7.48","0.644","4.252","0.05","0.11","30.2817","4.75274","18.62","0","SATNPRO1963","24.588","0.3444","5"],
    [414,"HCEP03730564","2023-10-02 16:15:00","11.6229","3.48271","27.315","1.847","7.49","0.793","5.341","0.07","0.23","30.2971","4.75482","20.57","0","SATNPRO1963","24.984","0.34994","5"],
    [415,"HCEP03730564","2023-10-02 16:30:00","11.6238","3.482","27.495","1.865","7.5","0.608","4.069","0.04","0.23","30.2895","4.75375","20.77","0","SATNPRO1963","24.246","0.3396","5"],
    [416,"HCEP03730564","2023-10-02 16:45:00","11.6273","3.48247","27.584","1.903","7.5","0.661","4.277","0.05","0.22","30.2911","4.75393","21.19","0","SATNPRO1963","24.644000000000002","0.34518","5"],
    [417,"HCEP03730564","2023-10-02 17:00:00","11.6305","3.48288","27.684","1.935","7.5","0.613","4.121","0.03","0.26","30.2925","4.75408","21.55","0","SATNPRO1963","24.704","0.34602","5"],
    [418,"HCEP03730564","2023-10-02 17:15:00","11.6303","3.48288","27.801","1.921","7.5","0.663","4.433","0.03","0.15","30.2925","4.7541","21.4","0","SATNPRO1963","26.248","0.36768","5"],
    [419,"HCEP03730564","2023-10-02 17:30:00","11.6229","3.48318","27.803","1.833","7.5","0.744","5.967","0.03","0.18","30.3015","4.75547","20.41","0","SATNPRO1963","26.144","0.3662","5"],
    [420,"HCEP03730564","2023-10-02 17:45:00","11.6216","3.48319","27.884","1.785","7.5","0.796","6.071","0.07","0.29","30.3026","4.75565","19.88","0","SATNPRO1963","26.144000000000002","0.36618","5"],
    [421,"HCEP03730564","2023-10-02 18:00:00","11.6219","3.48357","27.932","1.826","7.49","0.762","5.808","0.07","0.14","30.3059","4.75612","20.34","0","SATNPRO1963","26.136","0.3661","5"],
    [422,"HCEP03730564","2023-10-02 18:15:00","11.6398","3.48342","27.922","1.961","7.5","0.643","3.511","0.04","0.19","30.29","4.75361","21.84","0","SATNPRO1963","26.058","0.36498","5"],
    [423,"HCEP03730564","2023-10-02 18:30:00","11.6466","3.48365","27.933","2.196","7.51","0.587","2.626","0.06","0.19","30.2867","4.75304","24.46","0","SATNPRO1963","26.308","0.3685","5"],
    [424,"HCEP03730564","2023-10-02 18:45:00","11.6482","3.48354","27.901","2.271","7.53","0.591","2.788","0.05","0.17","30.2842","4.75267","25.3","0","SATNPRO1963","25.942","0.36338","5"],
    [425,"HCEP03730564","2023-10-02 19:00:00","11.6426","3.48328","27.849","2.283","7.53","0.549","2.238","0.09","0.33","30.2863","4.75304","25.43","0","SATNPRO1963","26.454","0.37058","5"],
    [426,"HCEP03730564","2023-10-02 19:15:00","11.6389","3.48325","27.779","2.233","7.53","0.574","2.57","0.03","0.15","30.2891","4.75349","24.87","0","SATNPRO1963","26.516","0.37136","5"],
    [427,"HCEP03730564","2023-10-02 19:30:00","11.6462","3.48289","27.694","2.299","7.54","0.535","2.038","0.08","0.24","30.2797","4.75205","25.61","0","SATNPRO1963","27.498","0.38516","5"],
    [428,"HCEP03730564","2023-10-02 19:45:00","11.6556","3.48257","27.573","2.337","7.54","0.482","1.389","0.09","0.19","30.269","4.7504","26.03","0","SATNPRO1963","27.684","0.38772","5"],
    [429,"HCEP03730564","2023-10-02 20:00:00","11.6577","3.48259","27.43","2.312","7.54","0.446","1.572","0.05","0.17","30.2676","4.75016","25.76","0","SATNPRO1963","27.918","0.39106","5"],
    [430,"HCEP03730564","2023-10-02 20:15:00","11.6578","3.48258","27.269","2.306","7.54","0.556","1.695","0.17","0.17","30.2673","4.75011","25.69","0","SATNPRO1963","27.276","0.38204","5"],
    [431,"HCEP03730564","2023-10-02 20:30:00","11.6562","3.48226","27.082","2.211","7.54","0.503","1.95","0.07","0.28","30.2657","4.7499","24.63","0","SATNPRO1963","27.826","0.38976","5"],
    [432,"HCEP03730564","2023-10-02 20:45:00","11.6567","3.48231","26.895","2.192","7.53","0.487","1.966","0.08","0.12","30.2658","4.7499","24.43","0","SATNPRO1963","27.47","0.38474","5"],
    [433,"HCEP03730564","2023-10-02 21:00:00","11.6553","3.48193","26.705","2.079","7.53","0.5","2.257","0.07","0.16","30.2634","4.74956","23.16","0","SATNPRO1963","27.074","0.37922","5"],
    [434,"HCEP03730564","2023-10-02 21:15:00","11.6519","3.4815","26.479","1.951","7.52","0.536","2.873","0.04","0.11","30.2621","4.74941","21.73","0","SATNPRO1963","26.924","0.37712","5"],
    [435,"HCEP03730564","2023-10-02 21:30:00","11.651","3.48106","26.236","1.917","7.51","0.496","2.946","0.03","0.12","30.2587","4.74893","21.35","0","SATNPRO1963","26.564","0.37212","5"],
    [436,"HCEP03730564","2023-10-02 21:45:00","11.6492","3.48056","25.996","1.847","7.5","0.535","3.319","0.03","0.15","30.2554","4.74847","20.57","0","SATNPRO1963","26.58","0.3723","5"],
    [437,"HCEP03730564","2023-10-02 22:00:00","11.649","3.48053","25.739","1.845","7.5","0.523","3.807","0.06","3.13","30.2553","4.74846","20.55","0","SATNPRO1963","25.516","0.35742","5"],
    [438,"HCEP03730564","2023-10-02 22:15:00","11.6555","3.4815","25.502","2.11","7.51","0.521","2.209","0.18","0.31","30.2596","4.74895","23.5","0","SATNPRO1963","25.352","0.35514","5"],
    [439,"HCEP03730564","2023-10-02 22:30:00","11.6558","3.48139","25.263","2.186","7.52","0.458","1.97","0.06","0.09","30.2584","4.74876","24.35","0","SATNPRO1963","25.323999999999998","0.35464","5"],
    [440,"HCEP03730564","2023-10-02 22:45:00","11.6553","3.48135","25.026","2.234","7.53","0.575","1.739","0.5","0.14","30.2584","4.74876","24.89","0","SATNPRO1963","24.724","0.3463","5"],
    [441,"HCEP03730564","2023-10-02 23:00:00","11.6545","3.48111","24.791","2.252","7.53","0.419","1.588","0.04","0.1","30.2569","4.74854","25.09","0","SATNPRO1963","24.355999999999998","0.34116","5"],
    [442,"HCEP03730564","2023-10-02 23:15:00","11.6532","3.48091","24.579","2.26","7.53","0.452","1.544","0.08","0.13","30.2561","4.74844","25.18","0","SATNPRO1963","26.482","0.37092","5"],
    [443,"HCEP03730564","2023-10-02 23:30:00","11.6456","3.48217","24.406","2.185","7.53","0.507","1.867","0.08","0.43","30.2745","4.75114","24.34","0","SATNPRO1963","26.663999999999998","0.3735","5"],
    [444,"HCEP03730564","2023-10-02 23:45:00","11.6353","3.48268","24.255","2.162","7.53","0.573","2.091","0.05","0.14","30.2878","4.75317","24.08","0","SATNPRO1963","26.826","0.37574","5"],
    [445,"HCEP03730564","2023-10-03 00:00:00","11.6309","3.48225","24.121","2.16","7.53","0.507","1.694","0.12","0.15","30.2873","4.75315","24.06","0","SATNPRO1963","26.932","0.37724","5"],
    [446,"HCEP03730564","2023-10-03 00:15:00","11.624","3.4803","24.045","2.147","7.53","0.61","1.456","0.51","1.22","30.2743","4.7514","23.91","0","SATNPRO1963","27.052","0.37888","5"],
    [447,"HCEP03730564","2023-10-03 00:30:00","11.6257","3.48074","24.004","2.17","7.53","0.408","1.33","0.04","0.08","30.2771","4.75177","24.16","0","SATNPRO1963","27.648","0.38728","5"],
    [448,"HCEP03730564","2023-10-03 00:45:00","11.6101","3.47666","23.972","2.152","7.53","0.439","1.121","0.06","0.1","30.2504","4.74822","23.95","0","SATNPRO1963","27.338","0.38292","5"],
    [449,"HCEP03730564","2023-10-03 01:00:00","11.6251","3.48106","23.986","2.166","7.53","0.411","1.343","0.05","0.06","30.2807","4.75228","24.12","0","SATNPRO1963","27.364","0.3833","5"],
    [450,"HCEP03730564","2023-10-03 01:15:00","11.6121","3.47646","24.008","2.175","7.53","0.409","1.105","0.05","0.12","30.2469","4.7477","24.21","0","SATNPRO1963","27.062","0.37908","5"],
    [451,"HCEP03730564","2023-10-03 01:30:00","11.5949","3.47384","24.058","2.082","7.52","0.394","1.129","0.05","0.06","30.2356","4.74635","23.17","0","SATNPRO1963","27.28","0.38212","5"],
    [452,"HCEP03730564","2023-10-03 01:45:00","11.6233","3.4799","24.14","2.188","7.52","0.417","1.227","0.05","0.07","30.271","4.75095","24.36","0","SATNPRO1963","27.158","0.38038","5"],
    [453,"HCEP03730564","2023-10-03 02:00:00","11.611","3.47704","24.208","2.071","7.52","0.392","1.184","0.04","0.04","30.2533","4.74862","23.05","0","SATNPRO1963","27.41","0.3839","5"],
    [454,"HCEP03730564","2023-10-03 02:15:00","11.6149","3.47822","24.328","2.082","7.52","0.426","1.147","0.07","0.16","30.2615","4.74974","23.18","0","SATNPRO1963","27.062","0.37908","5"],
    [455,"HCEP03730564","2023-10-03 02:30:00","11.6303","3.48225","24.468","2.161","7.52","0.477","2.024","0.04","0.19","30.2877","4.75324","24.07","0","SATNPRO1963","26.626","0.37296","5"],
    [456,"HCEP03730564","2023-10-03 02:45:00","11.6129","3.47708","24.624","2.17","7.52","0.402","1.226","0.03","0.09","30.252","4.74845","24.16","0","SATNPRO1963","26.978","0.3779","5"],
    [457,"HCEP03730564","2023-10-03 03:00:00","11.6448","3.48029","24.799","2.36","7.53","0.456","1.82","0.08","0.33","30.2569","4.74868","26.29","0","SATNPRO1963","26.764","0.37488","5"],
    [458,"HCEP03730564","2023-10-03 03:15:00","11.6373","3.47929","24.968","2.242","7.54","0.499","2.387","0.04","0.11","30.2532","4.74828","24.97","0","SATNPRO1963","26.91","0.3769","5"],
    [459,"HCEP03730564","2023-10-03 03:30:00","11.64","3.47995","25.15","2.179","7.53","0.532","3.325","0.07","0.37","30.2573","4.74883","24.27","0","SATNPRO1963","27.625999999999998","0.38694","5"],
    [460,"HCEP03730564","2023-10-03 03:45:00","11.5727","3.4691","25.312","1.909","7.52","0.386","1.046","0.05","0.09","30.2074","4.74275","21.23","0","SATNPRO1963","26.826","0.37574","5"],
    [461,"HCEP03730564","2023-10-03 04:00:00","11.5456","3.46434","25.509","1.756","7.5","0.368","0.992","0.1","0.06","30.1834","4.73975","19.5","0","SATNPRO1963","27.562","0.38606","5"],
    [462,"HCEP03730564","2023-10-03 04:15:00","11.5578","3.46588","25.734","1.819","7.49","0.413","1.012","0.06","0.05","30.1882","4.74027","20.21","0","SATNPRO1963","26.498","0.37114","5"],
    [463,"HCEP03730564","2023-10-03 04:30:00","11.5758","3.4686","25.925","1.869","7.49","0.476","1.441","0.14","0.69","30.1998","4.74166","20.78","0","SATNPRO1963","26.588","0.3724","5"],
    [464,"HCEP03730564","2023-10-03 04:45:00","11.613","3.47513","26.117","1.744","7.49","0.627","3.362","0.32","0.36","30.2325","4.74576","19.41","0","SATNPRO1963","24.336","0.34086","5"],
    [465,"HCEP03730564","2023-10-03 05:00:00","11.5639","3.4671","26.33","1.748","7.49","0.554","2.345","0.32","0.27","30.1948","4.74115","19.43","0","SATNPRO1963","25.816","0.36164","5"],
    [466,"HCEP03730564","2023-10-03 05:15:00","11.5735","3.4695","26.525","1.669","7.48","0.529","2.848","0.18","0.2","30.2101","4.74319","18.56","0","SATNPRO1963","25.548","0.35782","5"],
    [467,"HCEP03730564","2023-10-03 05:30:00","11.6193","3.47837","26.677","1.72","7.48","0.544","3.946","0.03","0.15","30.2584","4.74937","19.14","0","SATNPRO1963","25.592","0.35848","5"],
    [468,"HCEP03730564","2023-10-03 05:45:00","11.6288","3.48012","26.843","1.745","7.48","0.605","4.467","0.04","0.19","30.2675","4.75052","19.43","0","SATNPRO1963","25.108","0.35172","5"],
    [469,"HCEP03730564","2023-10-03 06:00:00","11.6203","3.48144","27.022","1.572","7.48","0.648","6.142","0.03","0.25","30.2871","4.75343","17.51","0","SATNPRO1963","24.962","0.34962","5"],
    [470,"HCEP03730564","2023-10-03 06:15:00","11.6221","3.48073","27.163","1.734","7.48","0.639","5.055","0.05","0.26","30.2787","4.75223","19.3","0","SATNPRO1963","24.744","0.3466","5"],
    [471,"HCEP03730564","2023-10-03 06:30:00","11.6214","3.4807","27.286","1.74","7.48","0.614","5.132","0.1","0.27","30.2789","4.75227","19.37","0","SATNPRO1963","24.874","0.34838","5"],
    [472,"HCEP03730564","2023-10-03 06:45:00","11.617","3.47976","27.395","1.572","7.48","0.701","5.772","0.08","0.24","30.2734","4.75157","17.5","0","SATNPRO1963","24.772000000000002","0.34698","5"],
    [473,"HCEP03730564","2023-10-03 07:00:00","11.611","3.47726","27.491","1.532","7.47","0.653","5.826","0.08","0.27","30.2541","4.74893","17.05","0","SATNPRO1963","24.352","0.34108","5"],
    [474,"HCEP03730564","2023-10-03 07:15:00","11.6111","3.47712","27.543","1.529","7.47","0.675","5.514","0.06","0.27","30.2527","4.74872","17.01","0","SATNPRO1963","25.188","0.35284","5"],
    [475,"HCEP03730564","2023-10-03 07:30:00","11.609","3.47598","27.598","1.535","7.47","0.619","5.357","0.05","0.33","30.2434","4.74744","17.08","0","SATNPRO1963","25.086","0.35136","5"],
    [476,"HCEP03730564","2023-10-03 07:45:00","11.609","3.47596","27.622","1.528","7.47","0.676","5.417","0.06","0.4","30.2432","4.74742","17.01","0","SATNPRO1963","23.88","0.33448","5"],
    [477,"HCEP03730564","2023-10-03 08:00:00","11.6085","3.47576","27.636","1.549","7.47","0.591","4.899","0.05","0.23","30.2417","4.74722","17.24","0","SATNPRO1963","23.536","0.32968","5"],
    [478,"HCEP03730564","2023-10-03 08:15:00","11.6092","3.4761","27.635","1.569","7.47","0.627","4.852","0.05","0.31","30.2443","4.74757","17.46","0","SATNPRO1963","23.605999999999998","0.33062","5"],
    [479,"HCEP03730564","2023-10-03 08:30:00","11.6081","3.47629","27.644","1.561","7.47","0.561","4.376","0.09","0.23","30.2471","4.74798","17.37","0","SATNPRO1963","23.716","0.33216","5"],
    [480,"HCEP03730564","2023-10-03 08:45:00","11.6056","3.47592","27.611","1.555","7.47","0.622","4.749","0.04","0.22","30.2455","4.7478","17.3","0","SATNPRO1963","23.448","0.32844","5"],
    [481,"HCEP03730564","2023-10-03 09:00:00","11.6043","3.47522","27.559","1.567","7.47","0.658","5.226","0.08","0.34","30.2399","4.74701","17.44","0","SATNPRO1963","23.602","0.3306","5"],
    [482,"HCEP03730564","2023-10-03 09:15:00","11.6041","3.47482","27.516","1.565","7.47","0.685","4.536","0.09","0.71","30.2362","4.74648","17.41","0","SATNPRO1963","23.87","0.33438","5"],
    [483,"HCEP03730564","2023-10-03 09:30:00","11.6051","3.47477","27.461","1.568","7.47","0.651","4.531","0.1","0.41","30.235","4.7463","17.44","0","SATNPRO1963","23.810000000000002","0.33348","5"],
    [484,"HCEP03730564","2023-10-03 09:45:00","11.6021","3.47313","27.395","1.607","7.47","0.612","4.314","0.08","0.42","30.2216","4.74445","17.88","0","SATNPRO1963","23.822","0.33368","5"],
    [485,"HCEP03730564","2023-10-03 10:00:00","11.605","3.47453","27.333","1.575","7.47","0.647","4.195","0.15","0.3","30.2328","4.74598","17.52","0","SATNPRO1963","23.79","0.33322","5"],
    [486,"HCEP03730564","2023-10-03 10:15:00","11.6046","3.47532","27.247","1.552","7.47","0.621","4.173","0.08","0.33","30.2407","4.74711","17.27","0","SATNPRO1963","23.9","0.33476","5"],
    [487,"HCEP03730564","2023-10-03 10:30:00","11.6002","3.47611","27.159","1.507","7.47","0.566","4.353","0.05","0.3","30.252","4.74876","16.77","0","SATNPRO1963","23.88","0.33446","5"],
    [488,"HCEP03730564","2023-10-03 10:45:00","11.596","3.47589","27.09","1.484","7.46","0.557","3.961","0.05","0.53","30.2533","4.749","16.51","0","SATNPRO1963","23.996","0.33614","5"],
    [489,"HCEP03730564","2023-10-03 11:00:00","11.591","3.47519","26.998","1.453","7.46","0.566","3.803","0.13","0.21","30.2507","4.7487","16.17","0","SATNPRO1963","23.948","0.33542","5"],
    [490,"HCEP03730564","2023-10-03 11:15:00","11.5879","3.47449","26.902","1.442","7.46","0.569","3.44","0.17","0.21","30.2465","4.74815","16.05","0","SATNPRO1963","24.064","0.33708","5"],
    [491,"HCEP03730564","2023-10-03 11:30:00","11.586","3.47385","26.806","1.448","7.46","0.459","3.285","0.03","0.23","30.2419","4.74752","16.1","0","SATNPRO1963","23.722","0.33228","5"],
    [492,"HCEP03730564","2023-10-03 11:45:00","11.5841","3.4741","26.701","1.394","7.46","0.521","3.914","0.06","0.28","30.2458","4.7481","15.5","0","SATNPRO1963","23.678","0.33164","5"],
    [493,"HCEP03730564","2023-10-03 12:00:00","11.5878","3.47492","26.596","1.388","7.45","0.553","4.188","0.06","0.46","30.2508","4.74874","15.44","0","SATNPRO1963","23.456","0.32854","5"],
    [494,"HCEP03730564","2023-10-03 12:15:00","11.5919","3.47541","26.495","1.397","7.45","0.562","4.626","0.04","0.37","30.2522","4.74888","15.55","0","SATNPRO1963","23.41","0.32788","5"],
    [495,"HCEP03730564","2023-10-03 12:30:00","11.5932","3.47549","26.397","1.411","7.45","0.507","4.067","0.05","0.48","30.252","4.74882","15.69","0","SATNPRO1963","23.276","0.32608","5"],
    [496,"HCEP03730564","2023-10-03 12:45:00","11.5944","3.47548","26.319","1.421","7.45","0.616","3.703","0.14","0.24","30.2509","4.74864","15.81","0","SATNPRO1963","23.192","0.32482","5"],
    [497,"HCEP03730564","2023-10-03 13:00:00","11.5989","3.47445","26.263","1.522","7.46","0.533","3.145","0.12","0.25","30.2374","4.74666","16.94","0","SATNPRO1963","23.232","0.32542","5"],
    [498,"HCEP03730564","2023-10-03 13:15:00","11.5998","3.47439","26.262","1.551","7.46","0.509","3.112","0.05","0.28","30.2361","4.74647","17.25","0","SATNPRO1963","23.317999999999998","0.32662","5"],
    [499,"HCEP03730564","2023-10-03 13:30:00","11.5999","3.47461","26.253","1.549","7.46","0.495","3.484","0.04","0.36","30.2381","4.74675","17.23","0","SATNPRO1963","23.274","0.32604","5"],
    [500,"HCEP03730564","2023-10-03 13:45:00","11.6019","3.47556","26.298","1.499","7.46","0.577","4.08","0.07","0.34","30.2456","4.74778","16.68","0","SATNPRO1963","23.246","0.3256","5"],
    [501,"HCEP03730564","2023-10-03 14:00:00","11.606","3.47624","26.334","1.512","7.46","0.547","4.026","0.05","0.19","30.2489","4.74819","16.83","0","SATNPRO1963","23.838","0.33386","5"],
    [502,"HCEP03730564","2023-10-03 14:15:00","11.6058","3.47576","26.364","1.558","7.46","0.547","3.688","0.06","0.31","30.2444","4.74756","17.34","0","SATNPRO1963","23.96","0.33562","5"],
    [503,"HCEP03730564","2023-10-03 14:30:00","11.6017","3.47504","26.418","1.527","7.47","0.575","4.424","0.05","0.27","30.2407","4.7471","16.99","0","SATNPRO1963","23.740000000000002","0.33254","5"],
    [504,"HCEP03730564","2023-10-03 14:45:00","11.5991","3.47369","26.495","1.744","7.47","0.528","3.118","0.08","0.26","30.2297","4.74559","19.4","0","SATNPRO1963","23.67","0.33156","5"],
    [505,"HCEP03730564","2023-10-03 15:00:00","11.5973","3.47332","26.59","1.823","7.48","0.525","3.438","0.09","0.24","30.2276","4.74532","20.28","0","SATNPRO1963","23.998","0.33614","5"],
    [506,"HCEP03730564","2023-10-03 15:15:00","11.5969","3.4738","26.696","1.806","7.49","0.568","4.513","0.04","0.35","30.2325","4.74603","20.09","0","SATNPRO1963","24.106","0.33766","5"],
    [507,"HCEP03730564","2023-10-03 15:30:00","11.5949","3.47375","26.783","1.811","7.49","0.562","4.852","0.06","0.42","30.2336","4.74622","20.15","0","SATNPRO1963","24.174","0.33862","5"],
    [508,"HCEP03730564","2023-10-03 15:45:00","11.5968","3.47453","26.87","1.789","7.49","0.633","5.652","0.06","0.44","30.2397","4.74705","19.9","0","SATNPRO1963","25.46","0.3566","5"],
    [509,"HCEP03730564","2023-10-03 16:00:00","11.5999","3.47622","26.971","1.721","7.49","0.532","4.396","0.16","0.32","30.2534","4.74895","19.15","0","SATNPRO1963","25.256","0.35378","5"],
    [510,"HCEP03730564","2023-10-03 16:15:00","11.5918","3.47572","27.049","1.651","7.48","0.541","4.473","0.05","0.23","30.2551","4.74931","18.37","0","SATNPRO1963","25.376","0.35548","5"],
    [511,"HCEP03730564","2023-10-03 16:30:00","11.5867","3.47534","27.121","1.537","7.47","0.504","4.924","0.03","0.45","30.2555","4.74945","17.1","0","SATNPRO1963","25.846","0.362","5"],
    [512,"HCEP03730564","2023-10-03 16:45:00","11.5828","3.47448","27.216","1.477","7.47","0.573","4.846","0.11","0.43","30.2504","4.74878","16.42","0","SATNPRO1963","25.564","0.35808","5"],
    [513,"HCEP03730564","2023-10-03 17:00:00","11.5888","3.47553","27.304","1.538","7.46","0.527","5.34","0.03","0.37","30.2556","4.74944","17.11","0","SATNPRO1963","25.328","0.3548","5"],
    [514,"HCEP03730564","2023-10-03 17:15:00","11.5957","3.47753","27.41","1.564","7.47","0.576","5.667","0.04","0.5","30.2692","4.75127","17.41","0","SATNPRO1963","24.762","0.34688","5"],
    [515,"HCEP03730564","2023-10-03 17:30:00","11.5973","3.47822","27.436","1.534","7.47","0.588","6.067","0.07","0.44","30.2746","4.75202","17.07","0","SATNPRO1963","24.276","0.34008","5"],
    [516,"HCEP03730564","2023-10-03 17:45:00","11.6004","3.47873","27.448","1.548","7.47","0.631","5.819","0.07","0.24","30.2769","4.7523","17.22","0","SATNPRO1963","24.048","0.33686","5"],
    [517,"HCEP03730564","2023-10-03 18:00:00","11.6086","3.48009","27.465","1.626","7.47","0.649","6.12","0.06","0.49","30.2835","4.75311","18.1","0","SATNPRO1963","24.684","0.34576","5"],
    [518,"HCEP03730564","2023-10-03 18:15:00","11.6354","3.48388","27.52","2.007","7.49","0.692","5.568","0.07","0.42","30.2981","4.7548","22.36","0","SATNPRO1963","24.842","0.34792","5"],
    [519,"HCEP03730564","2023-10-03 18:30:00","11.6542","3.48727","27.561","2.188","7.51","0.622","5.129","0.04","0.48","30.3155","4.757","24.38","0","SATNPRO1963","24.578","0.34426","5"],
    [520,"HCEP03730564","2023-10-03 18:45:00","11.6619","3.48915","27.59","2.245","7.52","0.622","4.692","0.04","0.51","30.3273","4.75856","25.03","0","SATNPRO1963","24.724","0.3463","5"],
    [521,"HCEP03730564","2023-10-03 19:00:00","11.6626","3.48981","27.587","2.236","7.53","0.592","4.442","0.06","0.27","30.3331","4.75936","24.93","0","SATNPRO1963","25.176","0.35264","5"],
    [522,"HCEP03730564","2023-10-03 19:15:00","11.6609","3.48951","27.562","2.225","7.53","0.586","4.169","0.04","0.25","30.3316","4.75917","24.8","0","SATNPRO1963","27.076","0.37926","5"],
    [523,"HCEP03730564","2023-10-03 19:30:00","11.6591","3.48938","27.533","2.207","7.53","0.549","4.157","0.04","0.2","30.3318","4.75922","24.6","0","SATNPRO1963","28.328","0.39682","5"],
    [524,"HCEP03730564","2023-10-03 19:45:00","11.6575","3.48914","27.48","2.189","7.53","0.565","3.943","0.1","0.2","30.3308","4.75911","24.4","0","SATNPRO1963","28.454","0.39854","5"],
    [525,"HCEP03730564","2023-10-03 20:00:00","11.6564","3.48902","27.412","2.193","7.53","0.486","3.06","0.05","0.11","30.3306","4.75908","24.44","0","SATNPRO1963","28.308","0.39652","5"],
    [526,"HCEP03730564","2023-10-03 20:15:00","11.6569","3.48885","27.338","2.192","7.53","0.539","3.462","0.04","0.27","30.3286","4.75879","24.43","0","SATNPRO1963","28.35","0.3971","5"],
    [527,"HCEP03730564","2023-10-03 20:30:00","11.6538","3.48811","27.226","2.185","7.53","0.51","3.461","0.03","0.18","30.324","4.75819","24.36","0","SATNPRO1963","28.334","0.39688","5"],
    [528,"HCEP03730564","2023-10-03 20:45:00","11.6532","3.48812","27.14","2.18","7.53","0.536","3.538","0.06","0.3","30.3247","4.75828","24.3","0","SATNPRO1963","28.466","0.39876","5"],
    [529,"HCEP03730564","2023-10-03 21:00:00","11.6507","3.48772","26.964","2.174","7.53","0.5","3.282","0.04","0.26","30.3229","4.75806","24.23","0","SATNPRO1963","28.286","0.3962","5"],
    [530,"HCEP03730564","2023-10-03 21:15:00","11.651","3.48772","26.826","2.164","7.53","0.514","3.272","0.03","0.18","30.3226","4.758","24.12","0","SATNPRO1963","28.364","0.39728","5"],
    [531,"HCEP03730564","2023-10-03 21:30:00","11.6483","3.48708","26.657","2.129","7.53","0.518","3.829","0.03","0.2","30.3188","4.75749","23.73","0","SATNPRO1963","28.336","0.39692","5"],
    [532,"HCEP03730564","2023-10-03 21:45:00","11.6485","3.48727","26.458","2.113","7.52","0.523","3.96","0.02","0.14","30.3206","4.75773","23.54","0","SATNPRO1963","28.354","0.39712","5"],
    [533,"HCEP03730564","2023-10-03 22:00:00","11.6479","3.4873","26.256","2.088","7.52","0.518","4.285","0.02","0.22","30.3214","4.75785","23.27","0","SATNPRO1963","28.272000000000002","0.39596","5"],
    [534,"HCEP03730564","2023-10-03 22:15:00","11.6449","3.48696","26.056","2.033","7.52","0.538","4.178","0.03","0.26","30.3206","4.75777","22.65","0","SATNPRO1963","27.972","0.39178","5"],
    [535,"HCEP03730564","2023-10-03 22:30:00","11.6448","3.48725","25.846","2.004","7.52","0.556","4.492","0.04","0.25","30.3236","4.75818","22.33","0","SATNPRO1963","27.894","0.39068","5"],
    [536,"HCEP03730564","2023-10-03 22:45:00","11.6497","3.48812","25.623","2.078","7.52","0.533","3.521","0.04","0.21","30.3281","4.75873","23.16","0","SATNPRO1963","27.838","0.38994","5"],
    [537,"HCEP03730564","2023-10-03 23:00:00","11.6519","3.48863","25.402","2.082","7.52","0.521","3.758","0.04","0.2","30.3313","4.75914","23.21","0","SATNPRO1963","28","0.3922","5"],
    [538,"HCEP03730564","2023-10-03 23:15:00","11.6572","3.48986","25.191","2.094","7.52","0.564","3.849","0.06","0.26","30.3389","4.76013","23.34","0","SATNPRO1963","27.362","0.38328","5"],
    [539,"HCEP03730564","2023-10-03 23:30:00","11.6658","3.49197","24.975","2.137","7.52","0.549","3.94","0.06","0.57","30.3524","4.7619","23.83","0","SATNPRO1963","27.244","0.38156","5"],
    [540,"HCEP03730564","2023-10-03 23:45:00","11.6733","3.49348","24.768","2.168","7.53","0.561","3.912","0.06","0.24","30.3608","4.76297","24.18","0","SATNPRO1963","27.83","0.38982","5"],
    [541,"HCEP03730564","2023-10-04 00:00:00","11.6817","3.49492","24.508","2.242","7.53","0.533","3.841","0.06","0.28","30.368","4.76385","25.01","0","SATNPRO1963","27.808","0.38952","5"],
    [542,"HCEP03730564","2023-10-04 00:15:00","11.6837","3.49525","24.338","2.256","7.54","0.571","3.895","0.05","0.33","30.3696","4.76404","25.17","0","SATNPRO1963","27.992","0.39206","5"],
    [543,"HCEP03730564","2023-10-04 00:30:00","11.6933","3.49691","24.2","2.333","7.54","0.55","3.766","0.07","0.3","30.3778","4.76505","26.03","0","SATNPRO1963","27.872","0.39036","5"],
    [544,"HCEP03730564","2023-10-04 00:45:00","11.7005","3.49758","24.115","2.402","7.55","0.466","1.879","0.05","0.15","30.3784","4.76503","26.81","0","SATNPRO1963","28.318","0.39662","5"],
    [545,"HCEP03730564","2023-10-04 01:00:00","11.7046","3.49831","24.073","2.44","7.56","0.421","2.053","0.03","0.18","30.382","4.76548","27.23","0","SATNPRO1963","28.57","0.4002","5"],
    [546,"HCEP03730564","2023-10-04 01:15:00","11.7089","3.49921","24.048","2.464","7.56","0.471","1.999","0.09","0.11","30.3872","4.76616","27.5","0","SATNPRO1963","28.34","0.39694","5"],
    [547,"HCEP03730564","2023-10-04 01:30:00","11.7093","3.4994","24.045","2.454","7.56","0.455","2.845","0.03","0.23","30.3888","4.76637","27.4","0","SATNPRO1963","28.516000000000002","0.3994","5"],
    [548,"HCEP03730564","2023-10-04 01:45:00","11.7109","3.49988","24.056","2.452","7.56","0.496","2.764","0.05","0.29","30.3921","4.76682","27.38","0","SATNPRO1963","29.144000000000002","0.40816","5"],
    [549,"HCEP03730564","2023-10-04 02:00:00","11.7118","3.50003","24.074","2.457","7.56","0.457","2.904","0.05","0.13","30.3928","4.7669","27.42","0","SATNPRO1963","29.174","0.40866","5"],
    [550,"HCEP03730564","2023-10-04 02:15:00","11.7137","3.50011","24.106","2.465","7.56","0.492","2.874","0.04","0.1","30.392","4.76676","27.52","0","SATNPRO1963","29.2","0.40902","5"],
    [551,"HCEP03730564","2023-10-04 02:30:00","11.71","3.49997","24.16","2.437","7.56","0.467","3.34","0.04","0.28","30.3936","4.76704","27.2","0","SATNPRO1963","29.244","0.40958","5"],
    [552,"HCEP03730564","2023-10-04 02:45:00","11.7089","3.49973","24.24","2.396","7.56","0.513","3.713","0.04","0.22","30.3922","4.76686","26.74","0","SATNPRO1963","29.104","0.40766","5"],
    [553,"HCEP03730564","2023-10-04 03:00:00","11.7089","3.49978","24.348","2.386","7.56","0.522","3.75","0.05","0.23","30.3926","4.76693","26.63","0","SATNPRO1963","29.322","0.41066","5"],
    [554,"HCEP03730564","2023-10-04 03:15:00","11.7133","3.50055","24.473","2.411","7.56","0.532","3.55","0.04","0.19","30.3965","4.76742","26.92","0","SATNPRO1963","29.21","0.40914","5"],
    [555,"HCEP03730564","2023-10-04 03:30:00","11.7181","3.50138","24.611","2.453","7.56","0.475","3.681","0.03","0.44","30.4004","4.76792","27.39","0","SATNPRO1963","29.166","0.40854","5"],
    [556,"HCEP03730564","2023-10-04 03:45:00","11.7177","3.50151","24.768","2.418","7.56","0.569","4.493","0.05","0.3","30.4019","4.76815","26.99","0","SATNPRO1963","29.012","0.4064","5"],
    [557,"HCEP03730564","2023-10-04 04:00:00","11.7214","3.50219","24.934","2.413","7.56","0.503","4.086","0.04","0.27","30.4054","4.76859","26.95","0","SATNPRO1963","29.168","0.40858","5"],
    [558,"HCEP03730564","2023-10-04 04:15:00","11.7218","3.50246","25.104","2.351","7.56","0.588","4.838","0.08","0.34","30.4075","4.7689","26.25","0","SATNPRO1963","28.936","0.40526","5"],
    [559,"HCEP03730564","2023-10-04 04:30:00","11.7298","3.50389","25.28","2.404","7.56","0.53","4.529","0.05","0.37","30.4148","4.76982","26.85","0","SATNPRO1963","29.036","0.40672","5"],
    [560,"HCEP03730564","2023-10-04 04:45:00","11.7341","3.5045","25.463","2.46","7.56","0.504","3.504","0.05","0.29","30.4171","4.77009","27.47","0","SATNPRO1963","28.94","0.40536","5"],
    [561,"HCEP03730564","2023-10-04 05:00:00","11.7318","3.50422","25.647","2.424","7.56","0.478","3.844","0.04","0.48","30.4161","4.77001","27.07","0","SATNPRO1963","29.168","0.40856","5"],
    [562,"HCEP03730564","2023-10-04 05:15:00","11.7326","3.50432","25.835","2.429","7.56","0.507","3.444","0.05","0.16","30.4163","4.77003","27.13","0","SATNPRO1963","28.662","0.40146","5"],
    [563,"HCEP03730564","2023-10-04 05:30:00","11.7277","3.50338","26.04","2.419","7.56","0.527","4.512","0.14","0.53","30.4113","4.7694","27.01","0","SATNPRO1963","28.996","0.4061","5"],
    [564,"HCEP03730564","2023-10-04 05:45:00","11.7257","3.50294","26.243","2.432","7.56","0.5","3.63","0.06","0.59","30.4086","4.76907","27.16","0","SATNPRO1963","29.1","0.40758","5"],
    [565,"HCEP03730564","2023-10-04 06:00:00","11.7205","3.50203","26.449","2.43","7.56","0.484","3.68","0.06","0.3","30.404","4.76849","27.13","0","SATNPRO1963","29.163999999999998","0.4085","5"],
    [566,"HCEP03730564","2023-10-04 06:15:00","11.7167","3.5011","26.627","2.456","7.56","0.466","2.76","0.06","0.16","30.3981","4.76772","27.42","0","SATNPRO1963","29.254","0.40974","5"],
    [567,"HCEP03730564","2023-10-04 06:30:00","11.7135","3.50043","26.794","2.466","7.56","0.444","2.742","0.03","0.17","30.3942","4.76723","27.53","0","SATNPRO1963","28.912","0.40496","5"],
    [568,"HCEP03730564","2023-10-04 06:45:00","11.7124","3.50045","26.947","2.413","7.56","0.519","3.809","0.03","0.24","30.3952","4.7674","26.94","0","SATNPRO1963","29.168","0.40854","5"],
    [569,"HCEP03730564","2023-10-04 07:00:00","11.7086","3.49982","27.09","2.375","7.56","0.522","4.409","0.04","0.3","30.3922","4.76703","26.51","0","SATNPRO1963","29.308","0.41052","5"],
    [570,"HCEP03730564","2023-10-04 07:15:00","11.7099","3.5002","27.227","2.339","7.55","0.565","4.669","0.06","0.33","30.3947","4.76738","26.11","0","SATNPRO1963","29.222","0.4093","5"],
    [571,"HCEP03730564","2023-10-04 07:30:00","11.7157","3.50138","27.355","2.352","7.55","0.547","4.099","0.06","0.27","30.4013","4.76822","26.26","0","SATNPRO1963","29.568","0.41414","5"],
    [572,"HCEP03730564","2023-10-04 07:45:00","11.72","3.50211","27.427","2.347","7.55","0.555","4.522","0.04","0.32","30.4048","4.76867","26.21","0","SATNPRO1963","29.054000000000002","0.407","5"],
    [573,"HCEP03730564","2023-10-04 08:00:00","11.7263","3.50334","27.506","2.357","7.55","0.554","4.642","0.05","0.29","30.4115","4.76953","26.33","0","SATNPRO1963","29.256","0.4098","5"],
    [574,"HCEP03730564","2023-10-04 08:15:00","11.7269","3.50331","27.524","2.399","7.56","0.511","3.505","0.04","0.2","30.4106","4.7694","26.79","0","SATNPRO1963","28.695999999999998","0.40196","5"],
    [575,"HCEP03730564","2023-10-04 08:30:00","11.7298","3.50385","27.563","2.406","7.56","0.52","3.805","0.11","0.19","30.4135","4.76976","26.87","0","SATNPRO1963","28.904","0.40488","5"],
    [576,"HCEP03730564","2023-10-04 08:45:00","11.7298","3.50393","27.59","2.375","7.56","0.557","4.22","0.06","0.33","30.4142","4.76987","26.52","0","SATNPRO1963","28.752","0.40272","5"],
    [577,"HCEP03730564","2023-10-04 09:00:00","11.7304","3.50406","27.587","2.359","7.56","0.53","4.614","0.03","0.3","30.4151","4.76998","26.35","0","SATNPRO1963","28.964","0.40568","5"],
    [578,"HCEP03730564","2023-10-04 09:15:00","11.7294","3.50382","27.612","2.355","7.56","0.551","3.993","0.05","0.24","30.4136","4.76978","26.3","0","SATNPRO1963","29.282","0.41016","5"],
    [579,"HCEP03730564","2023-10-04 09:30:00","11.7269","3.50333","27.608","2.332","7.55","0.547","4.477","0.05","0.26","30.4109","4.76944","26.04","0","SATNPRO1963","28.812","0.40354","5"],
    [580,"HCEP03730564","2023-10-04 09:45:00","11.7252","3.50292","27.619","2.331","7.55","0.559","4.276","0.06","0.26","30.4082","4.76909","26.04","0","SATNPRO1963","28.872","0.4044","5"],
    [581,"HCEP03730564","2023-10-04 10:00:00","11.7271","3.50311","27.593","2.355","7.55","0.526","3.865","0.06","0.18","30.4085","4.7691","26.3","0","SATNPRO1963","28.814","0.40362","5"],
    [582,"HCEP03730564","2023-10-04 10:15:00","11.7276","3.50319","27.57","2.358","7.55","0.544","3.679","0.04","0.29","30.4089","4.76914","26.33","0","SATNPRO1963","28.740000000000002","0.40256","5"],
    [583,"HCEP03730564","2023-10-04 10:30:00","11.73","3.50323","27.531","2.395","7.56","0.487","3.057","0.07","0.27","30.4074","4.7689","26.75","0","SATNPRO1963","28.701999999999998","0.40204","5"],
    [584,"HCEP03730564","2023-10-04 10:45:00","11.7238","3.50139","27.469","2.463","7.56","0.441","1.616","0.04","0.16","30.3947","4.76719","27.5","0","SATNPRO1963","28.907999999999998","0.4049","5"],
    [585,"HCEP03730564","2023-10-04 11:00:00","11.7189","3.50063","27.418","2.475","7.56","0.452","1.895","0.08","0.27","30.3914","4.76679","27.63","0","SATNPRO1963","28.832","0.40382","5"],
    [586,"HCEP03730564","2023-10-04 11:15:00","11.7137","3.49953","27.357","2.43","7.56","0.496","2.27","0.06","0.23","30.3852","4.76598","27.12","0","SATNPRO1963","28.966","0.40576","5"],
    [587,"HCEP03730564","2023-10-04 11:30:00","11.7107","3.49909","27.289","2.385","7.56","0.463","2.569","0.04","0.32","30.3834","4.76577","26.62","0","SATNPRO1963","29.058","0.40704","5"],
    [588,"HCEP03730564","2023-10-04 11:45:00","11.7098","3.49904","27.221","2.374","7.56","0.53","2.277","0.2","0.2","30.3836","4.76581","26.5","0","SATNPRO1963","29.324","0.41074","5"],
    [589,"HCEP03730564","2023-10-04 12:00:00","11.7064","3.49871","27.147","2.34","7.55","0.492","2.918","0.06","0.18","30.3832","4.76579","26.12","0","SATNPRO1963","29.392","0.41166","5"],
    [590,"HCEP03730564","2023-10-04 12:15:00","11.7118","3.49986","27.076","2.333","7.55","0.515","2.861","0.07","0.2","30.39","4.76667","26.05","0","SATNPRO1963","29.146","0.40824","5"],
    [591,"HCEP03730564","2023-10-04 12:30:00","11.7181","3.5011","27.001","2.327","7.55","0.55","3.46","0.08","0.3","30.3968","4.76754","25.98","0","SATNPRO1963","28.682","0.40176","5"],
    [592,"HCEP03730564","2023-10-04 12:45:00","11.7179","3.50105","26.911","2.317","7.55","0.532","3.454","0.05","0.33","30.3965","4.7675","25.87","0","SATNPRO1963","28.858","0.40422","5"],
    [593,"HCEP03730564","2023-10-04 13:00:00","11.7185","3.50126","26.828","2.328","7.55","0.512","3.232","0.08","0.23","30.3981","4.76771","26","0","SATNPRO1963","28.834","0.40386","5"],
    [594,"HCEP03730564","2023-10-04 13:15:00","11.7237","3.50241","26.759","2.318","7.55","0.527","3.333","0.04","0.19","30.4049","4.76859","25.88","0","SATNPRO1963","28.733999999999998","0.40244","5"],
    [595,"HCEP03730564","2023-10-04 13:30:00","11.7232","3.50224","26.656","2.32","7.55","0.495","3.531","0.03","0.29","30.4038","4.76843","25.91","0","SATNPRO1963","28.678","0.4017","5"],
    [596,"HCEP03730564","2023-10-04 13:45:00","11.7208","3.5018","26.562","2.321","7.55","0.526","3.283","0.04","0.2","30.4014","4.76813","25.92","0","SATNPRO1963","28.674","0.40164","5"],
    [597,"HCEP03730564","2023-10-04 14:00:00","11.7194","3.50167","26.561","2.293","7.55","0.529","3.585","0.04","0.18","30.4014","4.76814","25.6","0","SATNPRO1963","28.802","0.40342","5"],
    [598,"HCEP03730564","2023-10-04 14:15:00","11.7196","3.5018","26.522","2.259","7.55","0.573","3.807","0.04","0.17","30.4024","4.76829","25.22","0","SATNPRO1963","28.858","0.40422","5"],
    [599,"HCEP03730564","2023-10-04 14:30:00","11.7165","3.50118","26.511","2.245","7.55","0.553","4.041","0.04","0.58","30.3991","4.76786","25.07","0","SATNPRO1963","28.706","0.40206","5"],
    [600,"HCEP03730564","2023-10-04 14:45:00","11.7152","3.50102","26.515","2.211","7.54","0.641","4.276","0.1","0.67","30.3986","4.76781","24.69","0","SATNPRO1963","28.716","0.4022","5"],
    [601,"HCEP03730564","2023-10-04 15:00:00","11.7116","3.50022","26.541","2.192","7.54","0.57","4.004","0.06","0.35","30.3937","4.76717","24.46","0","SATNPRO1963","28.412","0.39798","5"],
    [602,"HCEP03730564","2023-10-04 15:15:00","11.7087","3.49964","26.576","2.174","7.54","0.589","3.961","0.05","0.22","30.3905","4.76676","24.26","0","SATNPRO1963","28.376","0.39748","5"],
    [603,"HCEP03730564","2023-10-04 15:30:00","11.7058","3.49898","26.613","2.156","7.54","0.64","4.107","0.13","0.47","30.3866","4.76625","24.07","0","SATNPRO1963","28.494","0.3991","5"],
    [604,"HCEP03730564","2023-10-04 15:45:00","11.7013","3.49783","26.657","2.149","7.53","0.593","3.493","0.08","0.19","30.3792","4.76527","23.98","0","SATNPRO1963","28.376","0.39744","5"],
    [605,"HCEP03730564","2023-10-04 16:00:00","11.6994","3.4975","26.705","2.128","7.53","0.62","3.706","0.24","0.31","30.3775","4.76506","23.75","0","SATNPRO1963","28.078","0.39326","5"],
    [606,"HCEP03730564","2023-10-04 16:15:00","11.6958","3.49641","26.765","2.117","7.53","0.608","3.762","0.1","0.43","30.3699","4.76405","23.63","0","SATNPRO1963","28.054","0.39292","5"],
    [607,"HCEP03730564","2023-10-04 16:30:00","11.6964","3.49677","26.817","2.112","7.53","0.585","4.03","0.07","0.24","30.3728","4.76445","23.56","0","SATNPRO1963","28.254","0.39576","5"],
    [608,"HCEP03730564","2023-10-04 16:45:00","11.6962","3.49683","26.869","2.115","7.53","0.567","3.542","0.04","0.31","30.3736","4.76457","23.59","0","SATNPRO1963","27.87","0.3904","5"],
    [609,"HCEP03730564","2023-10-04 17:00:00","11.6972","3.49693","26.926","2.114","7.53","0.582","3.966","0.17","0.49","30.3737","4.76457","23.59","0","SATNPRO1963","27.716","0.3882","5"],
    [610,"HCEP03730564","2023-10-04 17:15:00","11.701","3.4978","26.982","2.11","7.53","0.601","4.1","0.05","0.25","30.379","4.76527","23.55","0","SATNPRO1963","27.818","0.38964","5"],
    [611,"HCEP03730564","2023-10-04 17:30:00","11.7043","3.49878","27.04","2.103","7.53","0.588","4.839","0.06","0.3","30.3857","4.76617","23.47","0","SATNPRO1963","27.73","0.38842","5"],
    [612,"HCEP03730564","2023-10-04 17:45:00","11.709","3.49992","27.089","2.075","7.53","0.603","4.709","0.05","0.37","30.3928","4.7671","23.17","0","SATNPRO1963","27.694","0.3879","5"],
    [613,"HCEP03730564","2023-10-04 18:00:00","11.7116","3.5005","27.141","2.064","7.53","0.589","5.291","0.03","0.28","30.3963","4.76757","23.04","0","SATNPRO1963","27.866","0.39028","5"],
    [614,"HCEP03730564","2023-10-04 18:15:00","11.7025","3.49794","27.193","2.145","7.53","0.531","3.581","0.06","0.25","30.379","4.76526","23.94","0","SATNPRO1963","27.782","0.38916","5"],
    [615,"HCEP03730564","2023-10-04 18:30:00","11.7058","3.49901","27.239","2.148","7.53","0.528","3.774","0.05","0.19","30.3866","4.76629","23.97","0","SATNPRO1963","27.628","0.38698","5"],
    [616,"HCEP03730564","2023-10-04 18:45:00","11.705","3.49836","27.275","2.161","7.53","0.539","3.952","0.14","0.39","30.381","4.76551","24.12","0","SATNPRO1963","27.444","0.3844","5"],
    [617,"HCEP03730564","2023-10-04 19:00:00","11.7102","3.5","27.305","2.117","7.53","0.688","4.518","0.11","0.27","30.3926","4.76707","23.63","0","SATNPRO1963","27.338","0.38292","5"],
    [618,"HCEP03730564","2023-10-04 19:15:00","11.7105","3.49987","27.324","2.151","7.53","0.554","4.045","0.07","0.42","30.391","4.76684","24.02","0","SATNPRO1963","27.88","0.39054","5"],
    [619,"HCEP03730564","2023-10-04 19:30:00","11.7062","3.49885","27.334","2.201","7.53","0.457","2.797","0.05","0.36","30.3847","4.76602","24.57","0","SATNPRO1963","28.022","0.3925","5"],
    [620,"HCEP03730564","2023-10-04 19:45:00","11.7092","3.49954","27.339","2.212","7.54","0.45","2.8","0.04","0.13","30.3889","4.76657","24.69","0","SATNPRO1963","27.904","0.39088","5"],
    [621,"HCEP03730564","2023-10-04 20:00:00","11.7139","3.50053","27.308","2.205","7.54","0.466","3.38","0.05","0.28","30.3946","4.76731","24.62","0","SATNPRO1963","28.022","0.3925","5"],
    [622,"HCEP03730564","2023-10-04 20:15:00","11.7165","3.50155","27.276","2.133","7.54","0.552","4.336","0.08","0.28","30.4024","4.76837","23.81","0","SATNPRO1963","27.948","0.3915","5"],
    [623,"HCEP03730564","2023-10-04 20:30:00","11.7153","3.50129","27.238","2.126","7.53","0.506","4.021","0.04","0.15","30.4008","4.76816","23.74","0","SATNPRO1963","28.186","0.3948","5"],
    [624,"HCEP03730564","2023-10-04 20:45:00","11.7134","3.50068","27.19","2.151","7.53","0.605","3.918","0.33","0.25","30.3966","4.76758","24.02","0","SATNPRO1963","28.242","0.39558","5"],
    [625,"HCEP03730564","2023-10-04 21:00:00","11.7121","3.50045","27.12","2.149","7.53","0.487","3.993","0.05","0.3","30.3954","4.76744","23.99","0","SATNPRO1963","28.046","0.3928","5"],
    [626,"HCEP03730564","2023-10-04 21:15:00","11.7101","3.50008","27.036","2.141","7.53","0.531","3.976","0.07","0.24","30.3935","4.76719","23.9","0","SATNPRO1963","27.602","0.3866","5"],
    [627,"HCEP03730564","2023-10-04 21:30:00","11.7102","3.50005","26.925","2.134","7.53","0.52","3.868","0.2","0.15","30.3931","4.76713","23.82","0","SATNPRO1963","27.952","0.3915","5"],
    [628,"HCEP03730564","2023-10-04 21:45:00","11.709","3.4998","26.79","2.126","7.53","0.512","4.003","0.05","0.31","30.3918","4.76696","23.73","0","SATNPRO1963","27.734","0.38842","5"],
    [629,"HCEP03730564","2023-10-04 22:00:00","11.7093","3.49993","26.661","2.103","7.53","0.567","4.304","0.11","0.36","30.3928","4.76709","23.47","0","SATNPRO1963","27.945999999999998","0.3914","5"],
    [630,"HCEP03730564","2023-10-04 22:15:00","11.7132","3.50057","26.511","2.12","7.53","0.543","4.216","0.05","0.25","30.3958","4.76745","23.67","0","SATNPRO1963","28.002","0.3922","5"],
    [631,"HCEP03730564","2023-10-04 22:30:00","11.7176","3.50132","26.342","2.162","7.53","0.483","4.01","0.13","0.22","30.3996","4.7679","24.13","0","SATNPRO1963","27.96","0.39162","5"],
    [632,"HCEP03730564","2023-10-04 22:45:00","11.7176","3.50109","26.157","2.204","7.54","0.435","2.893","0.02","0.08","30.3975","4.7676","24.61","0","SATNPRO1963","27.837999999999997","0.38996","5"],
    [633,"HCEP03730564","2023-10-04 23:00:00","11.7136","3.50002","25.982","2.266","7.54","0.429","3.046","0.07","0.21","30.3905","4.76666","25.3","0","SATNPRO1963","27.694","0.3879","5"],
    [634,"HCEP03730564","2023-10-04 23:15:00","11.71","3.49926","25.799","2.284","7.54","0.407","2.199","0.03","0.12","30.3861","4.76608","25.49","0","SATNPRO1963","29.35","0.4111","5"],
    [635,"HCEP03730564","2023-10-04 23:30:00","11.7131","3.49992","25.605","2.289","7.54","0.462","2.877","0.14","0.31","30.39","4.76658","25.56","0","SATNPRO1963","29.894","0.4187","5"],
    [636,"HCEP03730564","2023-10-04 23:45:00","11.7139","3.50018","25.407","2.268","7.55","0.416","2.843","0.03","0.18","30.392","4.76684","25.32","0","SATNPRO1963","28.352","0.39718","5"],
    [637,"HCEP03730564","2023-10-05 00:00:00","11.7065","3.49865","25.228","2.218","7.54","0.382","2.612","0.03","0.12","30.3833","4.76571","24.76","0","SATNPRO1963","28.196","0.39496","5"],
    [638,"HCEP03730564","2023-10-05 00:15:00","11.7067","3.49858","25.047","2.256","7.54","0.481","2.188","0.27","0.07","30.3826","4.76559","25.18","0","SATNPRO1963","28.742","0.40256","5"],
    [639,"HCEP03730564","2023-10-05 00:30:00","11.7066","3.49856","24.894","2.278","7.54","0.409","2.216","0.06","0.13","30.3825","4.76557","25.43","0","SATNPRO1963","28.758","0.4028","5"],
    [640,"HCEP03730564","2023-10-05 00:45:00","11.7012","3.49751","24.724","2.271","7.54","0.421","2.261","0.06","0.25","30.3769","4.76485","25.34","0","SATNPRO1963","28.716","0.40222","5"],
    [641,"HCEP03730564","2023-10-05 01:00:00","11.6984","3.49672","24.558","2.274","7.54","0.368","1.968","0.03","0.11","30.3717","4.76413","25.37","0","SATNPRO1963","28.492","0.39906","5"],
    [642,"HCEP03730564","2023-10-05 01:15:00","11.7051","3.49808","24.456","2.282","7.55","0.41","2.135","0.02","0.16","30.3793","4.76511","25.46","0","SATNPRO1963","28.608","0.40068","5"],
    [643,"HCEP03730564","2023-10-05 01:30:00","11.7149","3.50064","24.36","2.211","7.54","0.417","2.904","0.04","0.21","30.396","4.76733","24.68","0","SATNPRO1963","28.614","0.40078","5"],
    [644,"HCEP03730564","2023-10-05 01:45:00","11.7133","3.4998","24.304","2.32","7.55","0.399","2.095","0.02","0.19","30.3892","4.76639","25.9","0","SATNPRO1963","28.442","0.39838","5"],
    [645,"HCEP03730564","2023-10-05 02:00:00","11.7146","3.50042","24.266","2.278","7.55","0.404","2.084","0.06","0.24","30.3942","4.76707","25.44","0","SATNPRO1963","28.586","0.4004","5"],
    [646,"HCEP03730564","2023-10-05 02:15:00","11.71","3.49904","24.246","2.344","7.55","0.448","1.528","0.13","0.11","30.3846","4.76579","26.16","0","SATNPRO1963","28.712","0.4022","5"],
    [647,"HCEP03730564","2023-10-05 02:30:00","11.7085","3.49901","24.247","2.271","7.55","0.442","2.585","0.12","0.49","30.3856","4.76594","25.34","0","SATNPRO1963","28.344","0.397","5"],
    [648,"HCEP03730564","2023-10-05 02:45:00","11.7053","3.49838","24.257","2.259","7.55","0.429","2.466","0.04","0.19","30.3821","4.7655","25.21","0","SATNPRO1963","28.748","0.40266","5"],
    [649,"HCEP03730564","2023-10-05 03:00:00","11.7078","3.4993","24.287","2.153","7.54","0.444","3.567","0.05","0.18","30.3889","4.76642","24.03","0","SATNPRO1963","28.78","0.40314","5"],
    [650,"HCEP03730564","2023-10-05 03:15:00","11.7016","3.49793","24.338","2.135","7.53","0.445","3.011","0.04","0.15","30.3808","4.76537","23.83","0","SATNPRO1963","29.218","0.4093","5"],
    [651,"HCEP03730564","2023-10-05 03:30:00","11.701","3.49785","24.385","2.112","7.53","0.44","3.38","0.05","0.33","30.3805","4.76533","23.57","0","SATNPRO1963","28.584","0.40036","5"],
    [652,"HCEP03730564","2023-10-05 03:45:00","11.699","3.49751","24.448","2.087","7.53","0.468","3.564","0.04","0.17","30.3788","4.76513","23.29","0","SATNPRO1963","28.528","0.39958","5"],
    [653,"HCEP03730564","2023-10-05 04:00:00","11.6937","3.49649","24.537","2.048","7.53","0.441","3.692","0.04","0.3","30.3733","4.76443","22.85","0","SATNPRO1963","28","0.39214","5"],
    [654,"HCEP03730564","2023-10-05 04:15:00","11.6931","3.4963","24.645","2.059","7.52","0.438","3.262","0.03","0.12","30.3718","4.76424","22.97","0","SATNPRO1963","28.404","0.39782","5"],
    [655,"HCEP03730564","2023-10-05 04:30:00","11.6964","3.49715","24.779","2.064","7.52","0.425","3.612","0.03","0.39","30.3773","4.76497","23.03","0","SATNPRO1963","28.244","0.39562","5"],
    [656,"HCEP03730564","2023-10-05 04:45:00","11.6972","3.49736","24.921","2.063","7.52","0.492","3.629","0.07","0.15","30.3787","4.76516","23.02","0","SATNPRO1963","27.806","0.38946","5"],
    [657,"HCEP03730564","2023-10-05 05:00:00","11.697","3.49746","25.076","2.029","7.52","0.486","4.336","0.05","0.24","30.3797","4.76532","22.64","0","SATNPRO1963","27.516","0.3854","5"],
    [658,"HCEP03730564","2023-10-05 05:15:00","11.6952","3.4973","25.229","1.973","7.52","0.536","4.975","0.03","0.32","30.3795","4.76533","22.02","0","SATNPRO1963","27.902","0.39082","5"],
    [659,"HCEP03730564","2023-10-05 05:30:00","11.6952","3.4974","25.4","1.945","7.52","0.49","4.991","0.04","0.28","30.3805","4.76547","21.7","0","SATNPRO1963","28.012","0.39236","5"],
    [660,"HCEP03730564","2023-10-05 05:45:00","11.694","3.49723","25.569","1.922","7.51","0.506","4.76","0.03","0.19","30.3797","4.76539","21.44","0","SATNPRO1963","27.798","0.38934","5"],
    [661,"HCEP03730564","2023-10-05 06:00:00","11.6918","3.49675","25.754","1.915","7.51","0.473","5.039","0.05","0.29","30.3768","4.76503","21.36","0","SATNPRO1963","27.396","0.38372","5"],
    [662,"HCEP03730564","2023-10-05 06:15:00","11.687","3.496","25.908","1.852","7.51","0.599","5.211","0.38","0.32","30.3735","4.76463","20.66","0","SATNPRO1963","27.236","0.38146","5"],
    [663,"HCEP03730564","2023-10-05 06:30:00","11.6772","3.49433","26.116","1.712","7.5","0.516","5.723","0.1","0.35","30.3654","4.76363","19.09","0","SATNPRO1963","26.875999999999998","0.37644","5"],
    [664,"HCEP03730564","2023-10-05 06:45:00","11.6724","3.49368","26.282","1.626","7.49","0.513","5.525","0.04","0.43","30.363","4.76337","18.14","0","SATNPRO1963","26.87","0.37636","5"],
    [665,"HCEP03730564","2023-10-05 07:00:00","11.6725","3.49386","26.468","1.601","7.48","0.505","5.74","0.04","0.34","30.3645","4.76359","17.85","0","SATNPRO1963","26.896","0.37672","5"],
    [666,"HCEP03730564","2023-10-05 07:15:00","11.6737","3.49416","26.638","1.61","7.48","0.532","5.283","0.16","0.29","30.3664","4.76385","17.96","0","SATNPRO1963","26.47","0.37078","5"],
    [667,"HCEP03730564","2023-10-05 07:30:00","11.6747","3.49428","26.783","1.615","7.48","0.503","5.745","0.04","0.36","30.3666","4.76389","18.01","0","SATNPRO1963","25.81","0.3615","5"],
    [668,"HCEP03730564","2023-10-05 07:45:00","11.675","3.49441","26.927","1.62","7.48","0.49","5.099","0.05","0.27","30.3676","4.76402","18.07","0","SATNPRO1963","25.156000000000002","0.35236","5"],
    [669,"HCEP03730564","2023-10-05 08:00:00","11.6752","3.49436","27.056","1.612","7.48","0.483","5.642","0.05","0.38","30.3668","4.76392","17.98","0","SATNPRO1963","25.376","0.35546","5"],
    [670,"HCEP03730564","2023-10-05 08:15:00","11.6752","3.49458","27.196","1.606","7.48","0.514","5.272","0.07","0.32","30.3689","4.76423","17.91","0","SATNPRO1963","25.580000000000002","0.3583","5"],
    [671,"HCEP03730564","2023-10-05 08:30:00","11.6761","3.49474","27.29","1.609","7.48","0.468","5.306","0.04","0.39","30.3698","4.76434","17.94","0","SATNPRO1963","25.368","0.35536","5"],
    [672,"HCEP03730564","2023-10-05 08:45:00","11.6739","3.49439","27.376","1.546","7.48","0.55","6.328","0.05","0.55","30.3681","4.76414","17.25","0","SATNPRO1963","25.268","0.35394","5"],
    [673,"HCEP03730564","2023-10-05 09:00:00","11.68","3.49541","27.45","1.637","7.48","0.473","5.212","0.03","0.25","30.3729","4.76473","18.26","0","SATNPRO1963","25.386","0.35562","5"],
    [674,"HCEP03730564","2023-10-05 09:15:00","11.6848","3.4963","27.503","1.71","7.48","0.465","4.455","0.03","0.19","30.3775","4.76532","19.08","0","SATNPRO1963","25.388","0.35558","5"],
    [675,"HCEP03730564","2023-10-05 09:30:00","11.6861","3.49655","27.556","1.742","7.49","0.429","4.527","0.03","0.18","30.3789","4.7655","19.43","0","SATNPRO1963","25.63","0.35904","5"],
    [676,"HCEP03730564","2023-10-05 09:45:00","11.6872","3.49676","27.591","1.748","7.49","0.494","4.363","0.09","0.29","30.38","4.76564","19.5","0","SATNPRO1963","24.972","0.34978","5"],
    [677,"HCEP03730564","2023-10-05 10:00:00","11.6866","3.49656","27.611","1.73","7.49","0.469","5.24","0.05","0.41","30.3786","4.76545","19.3","0","SATNPRO1963","25.436","0.35632","5"],
    [678,"HCEP03730564","2023-10-05 10:15:00","11.6892","3.49723","27.616","1.74","7.49","0.625","5.764","0.29","0.37","30.3829","4.76602","19.42","0","SATNPRO1963","26.004","0.36424","5"],
    [679,"HCEP03730564","2023-10-05 10:30:00","11.6943","3.49798","27.609","1.802","7.49","0.459","4.531","0.03","0.17","30.3859","4.76637","20.1","0","SATNPRO1963","26.016","0.36438","5"],
    [680,"HCEP03730564","2023-10-05 10:45:00","11.6938","3.49782","27.629","1.801","7.49","0.464","4.445","0.02","0.2","30.3848","4.76622","20.09","0","SATNPRO1963","26.096","0.36554","5"],
    [681,"HCEP03730564","2023-10-05 11:00:00","11.6925","3.49755","27.609","1.78","7.49","0.467","4.94","0.03","0.24","30.3832","4.76602","19.86","0","SATNPRO1963","26.098","0.36554","5"],
    [682,"HCEP03730564","2023-10-05 11:15:00","11.6918","3.49743","27.588","1.772","7.49","0.481","4.753","0.03","0.29","30.3828","4.76596","19.77","0","SATNPRO1963","26.208","0.36708","5"],
    [683,"HCEP03730564","2023-10-05 11:30:00","11.6911","3.4973","27.567","1.774","7.49","0.46","4.752","0.02","0.25","30.382","4.76586","19.79","0","SATNPRO1963","26.616","0.37282","5"],
    [684,"HCEP03730564","2023-10-05 11:45:00","11.6907","3.49718","27.529","1.772","7.49","0.476","4.476","0.04","0.22","30.3812","4.76575","19.77","0","SATNPRO1963","26.656","0.37338","5"],
    [685,"HCEP03730564","2023-10-05 12:00:00","11.6904","3.49714","27.462","1.759","7.49","0.468","4.839","0.05","0.23","30.3811","4.76574","19.63","0","SATNPRO1963","26.354","0.36912","5"],
    [686,"HCEP03730564","2023-10-05 12:15:00","11.6925","3.49764","27.392","1.79","7.49","0.473","4.445","0.04","0.25","30.3842","4.76614","19.98","0","SATNPRO1963","26.368","0.36932","5"],
    [687,"HCEP03730564","2023-10-05 12:30:00","11.7009","3.49916","27.348","1.811","7.5","0.482","5.1","0.03","0.28","30.392","4.76713","20.22","0","SATNPRO1963","26.466","0.3707","5"],
    [688,"HCEP03730564","2023-10-05 12:45:00","11.7035","3.4995","27.301","1.837","7.5","0.481","4.81","0.04","0.28","30.3932","4.76726","20.5","0","SATNPRO1963","26.392","0.36968","5"],
    [689,"HCEP03730564","2023-10-05 13:00:00","11.7071","3.50027","27.259","1.86","7.5","0.485","4.694","0.07","0.22","30.3977","4.76784","20.77","0","SATNPRO1963","26.262","0.36782","5"],
    [690,"HCEP03730564","2023-10-05 13:15:00","11.7079","3.50064","27.154","1.86","7.5","0.508","4.821","0.05","0.29","30.4007","4.76824","20.77","0","SATNPRO1963","26.68","0.3737","5"],
    [691,"HCEP03730564","2023-10-05 13:30:00","11.7091","3.5007","27.078","1.892","7.5","0.464","4.546","0.04","0.33","30.4003","4.76817","21.12","0","SATNPRO1963","26.574","0.37218","5"],
    [692,"HCEP03730564","2023-10-05 13:45:00","11.7079","3.50043","27.021","1.892","7.51","0.483","4.383","0.04","0.24","30.3987","4.76795","21.12","0","SATNPRO1963","26.826","0.37574","5"],
    [693,"HCEP03730564","2023-10-05 14:00:00","11.708","3.50051","26.956","1.891","7.51","0.462","4.54","0.04","0.35","30.3994","4.76805","21.11","0","SATNPRO1963","26.754","0.37476","5"],
    [694,"HCEP03730564","2023-10-05 14:15:00","11.7068","3.50012","26.891","1.898","7.51","0.494","4.432","0.04","0.29","30.3966","4.76767","21.19","0","SATNPRO1963","26.858","0.37616","5"],
    [695,"HCEP03730564","2023-10-05 14:30:00","11.7038","3.49931","26.835","1.921","7.51","0.44","3.934","0.03","0.22","30.3913","4.76695","21.44","0","SATNPRO1963","26.806","0.3755","5"],
    [696,"HCEP03730564","2023-10-05 14:45:00","11.7009","3.49864","26.78","1.927","7.51","0.512","3.662","0.24","0.19","30.3872","4.76642","21.51","0","SATNPRO1963","27.108","0.37968","5"],
    [697,"HCEP03730564","2023-10-05 15:00:00","11.7011","3.49861","26.762","1.937","7.51","0.431","3.666","0.02","0.17","30.3867","4.76635","21.62","0","SATNPRO1963","27.192","0.38084","5"],
    [698,"HCEP03730564","2023-10-05 15:15:00","11.7005","3.49839","26.715","1.941","7.51","0.456","3.868","0.03","0.34","30.3851","4.76613","21.66","0","SATNPRO1963","26.994","0.37806","5"],
    [699,"HCEP03730564","2023-10-05 15:30:00","11.7003","3.49838","26.719","1.958","7.51","0.424","3.565","0.04","0.17","30.3852","4.76613","21.85","0","SATNPRO1963","27.226","0.38134","5"],
    [700,"HCEP03730564","2023-10-05 15:45:00","11.7042","3.49934","26.689","1.932","7.51","0.458","3.933","0.02","0.22","30.3913","4.76694","21.56","0","SATNPRO1963","27.296","0.38232","5"],
    [701,"HCEP03730564","2023-10-05 16:00:00","11.7046","3.49955","26.69","1.905","7.51","0.497","3.904","0.12","0.21","30.393","4.76718","21.26","0","SATNPRO1963","27.19","0.38082","5"],
    [702,"HCEP03730564","2023-10-05 16:15:00","11.7063","3.50035","26.684","1.827","7.51","0.509","4.667","0.04","0.17","30.3994","4.76805","20.39","0","SATNPRO1963","27.296","0.38232","5"],
    [703,"HCEP03730564","2023-10-05 16:30:00","11.7031","3.49934","26.699","1.878","7.5","0.434","3.859","0.04","0.23","30.3921","4.76708","20.96","0","SATNPRO1963","27.28","0.3821","5"],
    [704,"HCEP03730564","2023-10-05 16:45:00","11.7041","3.49959","26.696","1.862","7.51","0.562","4.141","0.4","0.32","30.3938","4.76729","20.78","0","SATNPRO1963","27.162","0.38048","5"],
    [705,"HCEP03730564","2023-10-05 17:00:00","11.7022","3.49907","26.72","1.878","7.51","0.435","3.879","0.03","0.16","30.3904","4.76684","20.96","0","SATNPRO1963","26.892","0.37664","5"],
    [706,"HCEP03730564","2023-10-05 17:15:00","11.7032","3.49938","26.742","1.879","7.51","0.451","3.754","0.04","0.13","30.3925","4.76713","20.98","0","SATNPRO1963","26.746","0.37462","5"],
    [707,"HCEP03730564","2023-10-05 17:30:00","11.7053","3.49989","26.768","1.861","7.51","0.413","3.991","0.02","0.22","30.3956","4.76754","20.77","0","SATNPRO1963","27.116","0.37984","5"],
    [708,"HCEP03730564","2023-10-05 17:45:00","11.7048","3.49973","26.796","1.882","7.51","0.425","3.644","0.03","0.27","30.3946","4.76741","21.01","0","SATNPRO1963","26.816","0.37558","5"],
    [709,"HCEP03730564","2023-10-05 18:00:00","11.7102","3.50095","26.822","1.878","7.51","0.455","4.168","0.07","0.22","30.4018","4.76835","20.97","0","SATNPRO1963","26.956","0.37758","5"],
    [710,"HCEP03730564","2023-10-05 18:15:00","11.7181","3.50267","26.843","1.919","7.51","0.48","4.324","0.04","0.28","30.4119","4.76967","21.43","0","SATNPRO1963","26.838","0.37588","5"],
    [711,"HCEP03730564","2023-10-05 18:30:00","11.7178","3.50256","26.864","1.926","7.51","0.473","4.412","0.09","0.26","30.4112","4.76957","21.5","0","SATNPRO1963","27.034","0.37862","5"],
    [712,"HCEP03730564","2023-10-05 18:45:00","11.7144","3.5018","26.891","1.908","7.51","0.488","4.828","0.02","0.28","30.4066","4.76897","21.3","0","SATNPRO1963","27.07","0.37916","5"],
    [713,"HCEP03730564","2023-10-05 19:00:00","11.7185","3.50295","26.907","1.846","7.51","0.476","5.249","0.04","0.54","30.4143","4.77","20.62","0","SATNPRO1963","27.038","0.37872","5"],
    [714,"HCEP03730564","2023-10-05 19:15:00","11.7169","3.50261","26.935","1.848","7.51","0.469","4.374","0.03","0.27","30.4123","4.76975","20.64","0","SATNPRO1963","27.382","0.38354","5"],
    [715,"HCEP03730564","2023-10-05 19:30:00","11.7161","3.50255","26.963","1.811","7.5","0.45","4.771","0.03","0.25","30.4124","4.76977","20.22","0","SATNPRO1963","26.876","0.37644","5"],
    [716,"HCEP03730564","2023-10-05 19:45:00","11.7092","3.50082","26.979","1.801","7.5","0.451","4.164","0.04","0.21","30.4014","4.76831","20.1","0","SATNPRO1963","26.882","0.37654","5"],
    [717,"HCEP03730564","2023-10-05 20:00:00","11.7046","3.49992","26.988","1.781","7.5","0.434","4.496","0.05","0.28","30.3965","4.76769","19.88","0","SATNPRO1963","26.830000000000002","0.3758","5"],
    [718,"HCEP03730564","2023-10-05 20:15:00","11.7007","3.49926","26.987","1.744","7.5","0.429","4.39","0.02","0.25","30.3933","4.76729","19.46","0","SATNPRO1963","26.982","0.37794","5"],
    [719,"HCEP03730564","2023-10-05 20:30:00","11.7003","3.49936","26.989","1.711","7.49","0.437","4.744","0.04","0.27","30.3946","4.76748","19.1","0","SATNPRO1963","26.818","0.37564","5"],
    [720,"HCEP03730564","2023-10-05 20:45:00","11.7026","3.49999","26.984","1.677","7.49","0.481","5.012","0.06","0.4","30.3988","4.76804","18.72","0","SATNPRO1963","26.856","0.37614","5"],
    [721,"HCEP03730564","2023-10-05 21:00:00","11.7008","3.49979","26.97","1.662","7.49","0.436","4.809","0.06","0.22","30.3983","4.768","18.55","0","SATNPRO1963","26.43","0.37018","5"],
    [722,"HCEP03730564","2023-10-05 21:15:00","11.6968","3.49894","26.938","1.661","7.48","0.487","4.71","0.1","0.21","30.3934","4.76736","18.53","0","SATNPRO1963","26.214000000000002","0.36714","5"],
    [723,"HCEP03730564","2023-10-05 21:30:00","11.6959","3.49893","26.896","1.669","7.48","0.467","4.863","0.04","0.21","30.3941","4.76747","18.62","0","SATNPRO1963","26.186","0.3668","5"],
    [724,"HCEP03730564","2023-10-05 21:45:00","11.6863","3.49696","26.832","1.609","7.48","0.447","4.625","0.03","0.24","30.383","4.76603","17.95","0","SATNPRO1963","25.75","0.36066","5"],
    [725,"HCEP03730564","2023-10-05 22:00:00","11.6816","3.49623","26.758","1.536","7.48","0.468","4.991","0.05","0.21","30.3798","4.76565","17.14","0","SATNPRO1963","26.056","0.36496","5"],
    [726,"HCEP03730564","2023-10-05 22:15:00","11.6749","3.49492","26.67","1.462","7.47","0.481","5.037","0.1","0.26","30.3727","4.76474","16.31","0","SATNPRO1963","25.544","0.3578","5"],
    [727,"HCEP03730564","2023-10-05 22:30:00","11.6743","3.49479","26.574","1.43","7.46","0.459","5.308","0.03","0.33","30.3719","4.76463","15.95","0","SATNPRO1963","25.81","0.36148","5"],
    [728,"HCEP03730564","2023-10-05 22:45:00","11.6687","3.4936","26.479","1.397","7.46","0.495","5.094","0.12","0.27","30.3651","4.76373","15.58","0","SATNPRO1963","25.72","0.36024","5"],
    [729,"HCEP03730564","2023-10-05 23:00:00","11.6728","3.49452","26.327","1.396","7.46","0.473","5.417","0.06","0.33","30.3707","4.76446","15.57","0","SATNPRO1963","25.232","0.3534","5"],
    [730,"HCEP03730564","2023-10-05 23:15:00","11.6741","3.49474","26.191","1.412","7.46","0.496","5.339","0.05","0.4","30.3718","4.76459","15.75","0","SATNPRO1963","24.69","0.3458","5"],
    [731,"HCEP03730564","2023-10-05 23:30:00","11.6757","3.49491","26.04","1.471","7.46","0.433","4.864","0.03","0.29","30.3722","4.76461","16.41","0","SATNPRO1963","24.686","0.34576","5"],
    [732,"HCEP03730564","2023-10-05 23:45:00","11.6779","3.49529","25.91","1.52","7.46","0.473","4.699","0.04","0.3","30.3741","4.76484","16.95","0","SATNPRO1963","24.14","0.3381","5"],
    [733,"HCEP03730564","2023-10-06 00:00:00","11.6781","3.49532","25.771","1.524","7.47","0.455","4.807","0.07","0.31","30.3742","4.76485","17","0","SATNPRO1963","24.256","0.33978","5"],
    [734,"HCEP03730564","2023-10-06 00:15:00","11.6791","3.49527","25.617","1.587","7.47","0.492","4.95","0.07","0.3","30.3731","4.76467","17.7","0","SATNPRO1963","24.535999999999998","0.34366","5"],
    [735,"HCEP03730564","2023-10-06 00:30:00","11.6785","3.49524","25.475","1.556","7.47","0.451","4.719","0.08","0.3","30.3733","4.76471","17.36","0","SATNPRO1963","25.102","0.35156","5"],
    [736,"HCEP03730564","2023-10-06 00:45:00","11.6792","3.49536","25.321","1.566","7.47","0.504","4.58","0.08","0.21","30.3739","4.76477","17.47","0","SATNPRO1963","25.088","0.3514","5"],
    [737,"HCEP03730564","2023-10-06 01:00:00","11.6792","3.49537","25.181","1.556","7.47","0.445","4.933","0.03","0.51","30.3741","4.76478","17.36","0","SATNPRO1963","25.272","0.35396","5"],
    [738,"HCEP03730564","2023-10-06 01:15:00","11.6809","3.49575","25.045","1.555","7.47","0.44","4.642","0.02","0.41","30.3765","4.76509","17.34","0","SATNPRO1963","24.754","0.34676","5"],
    [739,"HCEP03730564","2023-10-06 01:30:00","11.6836","3.4963","24.926","1.564","7.47","0.484","4.612","0.15","0.22","30.3795","4.76548","17.45","0","SATNPRO1963","25.268","0.35396","5"],
    [740,"HCEP03730564","2023-10-06 01:45:00","11.6888","3.49734","24.807","1.601","7.47","0.44","4.421","0.03","0.2","30.3854","4.76622","17.87","0","SATNPRO1963","25.202","0.35298","5"],
    [741,"HCEP03730564","2023-10-06 02:00:00","11.6931","3.49805","24.718","1.647","7.48","0.423","4.255","0.04","0.16","30.3888","4.76664","18.38","0","SATNPRO1963","25.438","0.3563","5"],
    [742,"HCEP03730564","2023-10-06 02:15:00","11.6963","3.49876","24.597","1.661","7.48","0.43","4.115","0.05","0.24","30.393","4.76718","18.54","0","SATNPRO1963","25.29","0.35424","5"],
    [743,"HCEP03730564","2023-10-06 02:30:00","11.6999","3.4997","24.522","1.635","7.48","0.402","4.539","0.03","0.14","30.3992","4.768","18.25","0","SATNPRO1963","25.418","0.35604","5"],
    [744,"HCEP03730564","2023-10-06 02:45:00","11.6996","3.49969","24.457","1.601","7.48","0.451","4.981","0.11","0.42","30.3993","4.76802","17.87","0","SATNPRO1963","25.514","0.35738","5"],
    [745,"HCEP03730564","2023-10-06 03:00:00","11.6996","3.49973","24.401","1.601","7.48","0.413","4.808","0.03","0.24","30.3997","4.76807","17.87","0","SATNPRO1963","25.848","0.36206","5"],
    [746,"HCEP03730564","2023-10-06 03:15:00","11.6993","3.49965","24.383","1.603","7.48","0.449","4.884","0.05","0.28","30.3992","4.768","17.89","0","SATNPRO1963","25.848","0.36202","5"],
    [747,"HCEP03730564","2023-10-06 03:30:00","11.7086","3.50091","24.372","1.677","7.48","0.411","4.509","0.02","0.2","30.4038","4.76852","18.72","0","SATNPRO1963","25.628","0.35894","5"],
    [748,"HCEP03730564","2023-10-06 03:45:00","11.7173","3.50217","24.392","1.704","7.48","0.464","4.618","0.09","0.31","30.4088","4.7691","19.03","0","SATNPRO1963","25.492","0.35706","5"],
    [749,"HCEP03730564","2023-10-06 04:00:00","11.7228","3.50298","24.422","1.733","7.49","0.439","4.224","0.12","0.19","30.4121","4.76949","19.36","0","SATNPRO1963","25.722","0.36028","5"],
    [750,"HCEP03730564","2023-10-06 04:15:00","11.7337","3.50437","24.477","1.763","7.49","0.448","4.126","0.04","0.2","30.4165","4.76996","19.7","0","SATNPRO1963","25.586","0.3584","5"],
    [751,"HCEP03730564","2023-10-06 04:30:00","11.737","3.50477","24.525","1.773","7.49","0.451","4.21","0.06","0.25","30.4177","4.77009","19.81","0","SATNPRO1963","26.02","0.36446","5"],
    [752,"HCEP03730564","2023-10-06 04:45:00","11.7339","3.50446","24.599","1.735","7.49","0.464","4.592","0.03","0.44","30.4171","4.77006","19.38","0","SATNPRO1963","26.338","0.36892","5"],
    [753,"HCEP03730564","2023-10-06 05:00:00","11.736","3.50485","24.69","1.71","7.49","0.471","5.204","0.08","0.62","30.4192","4.77032","19.1","0","SATNPRO1963","26.426","0.37012","5"],
    [754,"HCEP03730564","2023-10-06 05:15:00","11.7418","3.50582","24.782","1.708","7.49","0.499","5.228","0.03","0.29","30.4237","4.77089","19.09","0","SATNPRO1963","26.67","0.37354","5"],
    [755,"HCEP03730564","2023-10-06 05:30:00","11.7632","3.5089","24.893","1.772","7.49","0.482","4.995","0.06","0.24","30.4358","4.7723","19.8","0","SATNPRO1963","26.554","0.37192","5"],
    [756,"HCEP03730564","2023-10-06 05:45:00","11.7804","3.51061","25.007","1.961","7.5","0.469","3.572","0.07","0.2","30.4382","4.7724","21.93","0","SATNPRO1963","26.274","0.368","5"],
    [757,"HCEP03730564","2023-10-06 06:00:00","11.7759","3.50955","25.128","2.038","7.51","0.438","3.614","0.03","0.35","30.4316","4.77153","22.79","0","SATNPRO1963","26.082","0.36536","5"],
    [758,"HCEP03730564","2023-10-06 06:15:00","11.7871","3.51237","25.25","1.917","7.51","0.509","4.723","0.02","0.32","30.4495","4.77392","21.45","0","SATNPRO1963","26.048","0.3648","5"],
    [759,"HCEP03730564","2023-10-06 06:30:00","11.7818","3.51154","25.404","1.841","7.51","0.539","5.613","0.04","0.37","30.4458","4.77347","20.59","0","SATNPRO1963","26.792","0.37524","5"],
    [760,"HCEP03730564","2023-10-06 06:45:00","11.7776","3.51093","25.557","1.789","7.5","0.564","6.08","0.03","0.42","30.4433","4.77319","20.01","0","SATNPRO1963","27.436","0.38428","5"],
    [761,"HCEP03730564","2023-10-06 07:00:00","11.7712","3.50963","25.72","1.786","7.5","0.56","6.145","0.05","0.66","30.436","4.77225","19.96","0","SATNPRO1963","27.77","0.38894","5"],
    [762,"HCEP03730564","2023-10-06 07:15:00","11.7674","3.50901","25.929","1.78","7.5","0.548","5.449","0.02","0.33","30.4331","4.77191","19.9","0","SATNPRO1963","27.116","0.3798","5"],
    [763,"HCEP03730564","2023-10-06 07:30:00","11.772","3.50971","26.111","1.797","7.5","0.494","4.725","0.04","0.3","30.436","4.77226","20.09","0","SATNPRO1963","26.692","0.37386","5"],
    [764,"HCEP03730564","2023-10-06 07:45:00","11.7704","3.50961","26.277","1.776","7.5","0.559","5.015","0.09","0.22","30.4363","4.77234","19.86","0","SATNPRO1963","26.418","0.37004","5"],
    [765,"HCEP03730564","2023-10-06 08:00:00","11.7587","3.50688","26.462","1.792","7.5","0.474","4.261","0.04","0.34","30.4195","4.77014","20.03","0","SATNPRO1963","26.612","0.37276","5"],
    [766,"HCEP03730564","2023-10-06 08:15:00","11.7746","3.51013","26.621","1.816","7.5","0.537","4.687","0.09","0.25","30.4376","4.77248","20.31","0","SATNPRO1963","26.376","0.36942","5"],
    [767,"HCEP03730564","2023-10-06 08:30:00","11.7771","3.51056","26.764","1.797","7.5","0.504","5.188","0.03","0.22","30.4398","4.77276","20.09","0","SATNPRO1963","26.674","0.37362","5"],
    [768,"HCEP03730564","2023-10-06 08:45:00","11.7836","3.51162","26.889","1.823","7.5","0.561","4.716","0.06","0.22","30.4446","4.77335","20.39","0","SATNPRO1963","26.562","0.37206","5"],
    [769,"HCEP03730564","2023-10-06 09:00:00","11.7876","3.51234","27.014","1.834","7.5","0.513","5.521","0.03","0.24","30.4481","4.77381","20.51","0","SATNPRO1963","26.608","0.3727","5"],
    [770,"HCEP03730564","2023-10-06 09:15:00","11.8083","3.51625","27.135","1.899","7.51","0.542","5.913","0.03","0.4","30.4688","4.77644","21.25","0","SATNPRO1963","27.224","0.3813","5"],
    [771,"HCEP03730564","2023-10-06 09:30:00","11.8202","3.51845","27.235","1.991","7.51","0.49","5.358","0.02","0.36","30.4801","4.77788","22.29","0","SATNPRO1963","26.326","0.36876","5"],
    [772,"HCEP03730564","2023-10-06 09:45:00","11.8231","3.5191","27.334","2.004","7.52","0.513","5.151","0.02","0.47","30.4839","4.77838","22.44","0","SATNPRO1963","26.604","0.37266","5"],
    [773,"HCEP03730564","2023-10-06 10:00:00","11.8287","3.52031","27.418","2.035","7.52","0.447","4.432","0.04","0.31","30.4909","4.77929","22.79","0","SATNPRO1963","26.408","0.3699","5"],
    [774,"HCEP03730564","2023-10-06 10:15:00","11.8283","3.52054","27.473","2.07","7.53","0.505","4.844","0.03","0.29","30.4935","4.77966","23.18","0","SATNPRO1963","27.086","0.37944","5"],
    [775,"HCEP03730564","2023-10-06 10:30:00","11.8292","3.52094","27.516","2.071","7.53","0.473","4.77","0.05","0.48","30.4966","4.7801","23.19","0","SATNPRO1963","27.456","0.38462","5"],
    [776,"HCEP03730564","2023-10-06 10:45:00","11.8273","3.52079","27.547","2.061","7.53","0.497","4.487","0.03","0.28","30.4967","4.78014","23.08","0","SATNPRO1963","27.462","0.38468","5"],
    [777,"HCEP03730564","2023-10-06 11:00:00","11.8263","3.52059","27.568","2.047","7.53","0.454","4.405","0.03","0.16","30.4957","4.78","22.93","0","SATNPRO1963","27.802","0.38942","5"],
    [778,"HCEP03730564","2023-10-06 11:15:00","11.8242","3.52041","27.595","2.038","7.53","0.496","4.649","0.03","0.39","30.4956","4.78002","22.82","0","SATNPRO1963","27.88","0.3905","5"],
    [779,"HCEP03730564","2023-10-06 11:30:00","11.8218","3.52022","27.596","2.031","7.53","0.461","4.149","0.07","0.18","30.4957","4.78007","22.75","0","SATNPRO1963","28.118","0.39388","5"],
    [780,"HCEP03730564","2023-10-06 11:45:00","11.8221","3.52009","27.601","2.016","7.53","0.496","4.14","0.05","0.18","30.4942","4.77986","22.58","0","SATNPRO1963","27.946","0.3914","5"],
    [781,"HCEP03730564","2023-10-06 12:00:00","11.8216","3.51999","27.592","2.017","7.53","0.437","3.985","0.03","0.11","30.4936","4.77978","22.59","0","SATNPRO1963","27.848","0.39002","5"],
    [782,"HCEP03730564","2023-10-06 12:15:00","11.8181","3.51939","27.575","2.031","7.53","0.446","3.551","0.03","0.15","30.4907","4.77942","22.74","0","SATNPRO1963","27.904","0.39084","5"],
    [783,"HCEP03730564","2023-10-06 12:30:00","11.8203","3.51968","27.559","2.029","7.53","0.427","3.845","0.04","0.22","30.4918","4.77954","22.71","0","SATNPRO1963","27.938","0.39134","5"],
    [784,"HCEP03730564","2023-10-06 12:45:00","11.8214","3.51973","27.532","2.032","7.53","0.461","3.95","0.03","0.29","30.4913","4.77946","22.75","0","SATNPRO1963","27.78","0.38914","5"],
    [785,"HCEP03730564","2023-10-06 13:00:00","11.8187","3.51915","27.495","2.019","7.53","0.425","3.978","0.02","0.21","30.4881","4.77903","22.61","0","SATNPRO1963","27.904","0.3909","5"],
    [786,"HCEP03730564","2023-10-06 13:15:00","11.8214","3.51938","27.448","2.021","7.53","0.485","4.532","0.06","1.3","30.488","4.77898","22.63","0","SATNPRO1963","28.29","0.39622","5"],
    [787,"HCEP03730564","2023-10-06 13:30:00","11.8187","3.51887","27.404","2.016","7.53","0.44","3.875","0.04","0.19","30.4853","4.77864","22.58","0","SATNPRO1963","28.092","0.3935","5"],
    [788,"HCEP03730564","2023-10-06 13:45:00","11.8148","3.51823","27.356","2.012","7.53","0.457","3.824","0.03","0.17","30.4824","4.77829","22.53","0","SATNPRO1963","27.938","0.39132","5"],
    [789,"HCEP03730564","2023-10-06 14:00:00","11.8048","3.51704","27.305","2.02","7.53","0.445","3.228","0.11","0.25","30.4791","4.77796","22.61","0","SATNPRO1963","27.704","0.38806","5"],
    [790,"HCEP03730564","2023-10-06 14:15:00","11.8109","3.51755","27.259","2.002","7.52","0.473","3.659","0.06","0.17","30.4791","4.77787","22.41","0","SATNPRO1963","27.872","0.3904","5"],
    [791,"HCEP03730564","2023-10-06 14:30:00","11.814","3.51784","27.203","1.967","7.52","0.475","4.091","0.05","0.13","30.4794","4.77786","22.02","0","SATNPRO1963","27.716","0.38818","5"],
    [792,"HCEP03730564","2023-10-06 14:45:00","11.8069","3.5168","27.141","1.969","7.52","0.451","3.726","0.03","0.13","30.4752","4.77737","22.03","0","SATNPRO1963","27.75","0.38872","5"],
    [793,"HCEP03730564","2023-10-06 15:00:00","11.8056","3.51673","27.061","1.963","7.52","0.437","4.054","0.02","0.23","30.4757","4.77745","21.97","0","SATNPRO1963","27.834","0.38988","5"],
    [794,"HCEP03730564","2023-10-06 15:15:00","11.8055","3.51675","26.997","1.923","7.52","0.476","4.199","0.02","0.15","30.476","4.77748","21.52","0","SATNPRO1963","27.782","0.38916","5"],
    [795,"HCEP03730564","2023-10-06 15:30:00","11.8011","3.51595","26.928","1.947","7.52","0.446","4.088","0.03","0.18","30.4719","4.77697","21.79","0","SATNPRO1963","27.41","0.3839","5"],
    [796,"HCEP03730564","2023-10-06 15:45:00","11.7989","3.51564","26.879","1.969","7.52","0.482","4.088","0.06","0.19","30.4707","4.77683","22.03","0","SATNPRO1963","27.718","0.38824","5"],
    [797,"HCEP03730564","2023-10-06 16:00:00","11.8001","3.5159","26.822","1.907","7.52","0.477","4.218","0.03","0.46","30.4722","4.77701","21.34","0","SATNPRO1963","27.648","0.38728","5"],
    [798,"HCEP03730564","2023-10-06 16:15:00","11.7966","3.51595","26.77","1.853","7.51","0.504","4.364","0.04","0.24","30.4756","4.77755","20.74","0","SATNPRO1963","27.296","0.38234","5"],
    [799,"HCEP03730564","2023-10-06 16:30:00","11.7953","3.51603","26.709","1.825","7.51","0.483","5.088","0.06","1.04","30.4774","4.77782","20.42","0","SATNPRO1963","27.618","0.38682","5"],
    [800,"HCEP03730564","2023-10-06 16:45:00","11.7951","3.51613","26.685","1.812","7.51","0.53","4.42","0.16","0.27","30.4786","4.77798","20.28","0","SATNPRO1963","27.692","0.38784","5"],
    [801,"HCEP03730564","2023-10-06 17:00:00","11.7932","3.51611","26.657","1.784","7.51","0.433","4.461","0.03","0.36","30.4801","4.77822","19.96","0","SATNPRO1963","27.386","0.38358","5"],
    [802,"HCEP03730564","2023-10-06 17:15:00","11.7916","3.51597","26.634","1.758","7.5","0.477","4.325","0.05","0.16","30.48","4.77823","19.67","0","SATNPRO1963","26.932","0.37726","5"],
    [803,"HCEP03730564","2023-10-06 17:30:00","11.7902","3.51573","26.616","1.761","7.5","0.426","4.283","0.02","0.46","30.4789","4.77809","19.7","0","SATNPRO1963","26.84","0.37592","5"],
    [804,"HCEP03730564","2023-10-06 17:45:00","11.7855","3.51475","26.608","1.783","7.5","0.436","3.517","0.03","0.16","30.4732","4.77736","19.94","0","SATNPRO1963","26.786","0.37518","5"],
    [805,"HCEP03730564","2023-10-06 18:00:00","11.7814","3.51397","26.608","1.759","7.5","0.415","3.824","0.07","0.44","30.4691","4.77684","19.68","0","SATNPRO1963","26.846","0.37606","5"],
    [806,"HCEP03730564","2023-10-06 18:15:00","11.7718","3.51212","26.613","1.73","7.5","0.429","3.609","0.03","0.18","30.4591","4.77556","19.35","0","SATNPRO1963","26.664","0.3735","5"],
    [807,"HCEP03730564","2023-10-06 18:30:00","11.7668","3.51112","26.624","1.711","7.5","0.379","3.444","0.04","0.24","30.4536","4.77485","19.13","0","SATNPRO1963","27.05","0.37884","5"],
    [808,"HCEP03730564","2023-10-06 18:45:00","11.7529","3.509","26.627","1.716","7.49","0.41","3.53","0.04","0.18","30.4445","4.77376","19.18","0","SATNPRO1963","27.003999999999998","0.37822","5"],
    [809,"HCEP03730564","2023-10-06 19:00:00","11.7436","3.50737","26.638","1.771","7.5","0.376","3.207","0.02","0.07","30.4364","4.77276","19.79","0","SATNPRO1963","26.516","0.3714","5"],
    [810,"HCEP03730564","2023-10-06 19:15:00","11.7408","3.50695","26.653","1.76","7.5","0.389","3.226","0.03","0.25","30.4347","4.77255","19.66","0","SATNPRO1963","26.386","0.36954","5"],
    [811,"HCEP03730564","2023-10-06 19:30:00","11.7467","3.50802","26.664","1.735","7.5","0.41","2.884","0.04","0.03","30.4402","4.77325","19.38","0","SATNPRO1963","26.516000000000002","0.37138","5"],
    [812,"HCEP03730564","2023-10-06 19:45:00","11.7758","3.5137","26.679","1.674","7.49","0.41","3.628","0.02","0.45","30.471","4.77718","18.72","0","SATNPRO1963","26.55","0.37184","5"],
    [813,"HCEP03730564","2023-10-06 20:00:00","11.7786","3.51455","26.692","1.643","7.49","0.421","4.146","0.03","0.3","30.477","4.77799","18.37","0","SATNPRO1963","27.074","0.37924","5"],
    [814,"HCEP03730564","2023-10-06 20:15:00","11.7787","3.51493","26.706","1.613","7.49","0.425","4.585","0.02","0.22","30.4805","4.77849","18.04","0","SATNPRO1963","27.344","0.38306","5"],
    [815,"HCEP03730564","2023-10-06 20:30:00","11.7739","3.51398","26.727","1.612","7.49","0.446","4.235","0.14","0.22","30.4752","4.77781","18.03","0","SATNPRO1963","27.432","0.38422","5"],
    [816,"HCEP03730564","2023-10-06 20:45:00","11.7754","3.51486","26.742","1.546","7.48","0.415","4.728","0.02","0.12","30.4825","4.77882","17.29","0","SATNPRO1963","26.384","0.36954","5"],
    [817,"HCEP03730564","2023-10-06 21:00:00","11.7737","3.51446","26.747","1.561","7.48","0.404","4.647","0.05","0.16","30.4801","4.77851","17.46","0","SATNPRO1963","26.23","0.36742","5"],
    [818,"HCEP03730564","2023-10-06 21:15:00","11.7736","3.51463","26.752","1.568","7.48","0.418","4.465","0.03","0.28","30.4817","4.77874","17.54","0","SATNPRO1963","25.722","0.36026","5"],
    [819,"HCEP03730564","2023-10-06 21:30:00","11.7729","3.51417","26.748","1.579","7.48","0.394","4.905","0.03","1.28","30.4779","4.77821","17.66","0","SATNPRO1963","25.918","0.36304","5"],
    [820,"HCEP03730564","2023-10-06 21:45:00","11.7733","3.51427","26.741","1.582","7.48","0.414","4.038","0.04","0.14","30.4785","4.77829","17.69","0","SATNPRO1963","25.166","0.3525","5"],
    [821,"HCEP03730564","2023-10-06 22:00:00","11.7753","3.51493","26.722","1.535","7.48","0.395","4.254","0.05","0.3","30.4833","4.77893","17.17","0","SATNPRO1963","25.876","0.36244","5"],
    [822,"HCEP03730564","2023-10-06 22:15:00","11.7754","3.51491","26.693","1.551","7.48","0.443","3.977","0.04","0.13","30.483","4.77888","17.35","0","SATNPRO1963","25.564","0.35808","5"],
    [823,"HCEP03730564","2023-10-06 22:30:00","11.7771","3.51525","26.651","1.539","7.48","0.386","4.351","0.03","0.12","30.485","4.77914","17.22","0","SATNPRO1963","25.68","0.35972","5"],
    [824,"HCEP03730564","2023-10-06 22:45:00","11.778","3.51531","26.613","1.548","7.48","0.41","4.39","0.03","0.21","30.4848","4.7791","17.31","0","SATNPRO1963","25.672","0.35958","5"],
    [825,"HCEP03730564","2023-10-06 23:00:00","11.7752","3.51442","26.572","1.629","7.48","0.392","3.662","0.03","0.17","30.4785","4.77825","18.22","0","SATNPRO1963","25.392","0.35564","5"],
    [826,"HCEP03730564","2023-10-06 23:15:00","11.7784","3.5147","26.507","1.672","7.49","0.384","3.189","0.02","0.12","30.4786","4.77822","18.7","0","SATNPRO1963","25.526","0.3575","5"],
    [827,"HCEP03730564","2023-10-06 23:30:00","11.781","3.51503","26.435","1.713","7.49","0.394","3.132","0.07","0.17","30.4797","4.77833","19.16","0","SATNPRO1963","25.598","0.35854","5"],
    [828,"HCEP03730564","2023-10-06 23:45:00","11.7825","3.51591","26.347","1.619","7.49","0.411","4.244","0.03","0.26","30.4869","4.77932","18.11","0","SATNPRO1963","25.786","0.36118","5"],
    [829,"HCEP03730564","2023-10-07 00:00:00","11.7826","3.51593","26.27","1.592","7.49","0.392","4.253","0.04","0.24","30.4871","4.77934","17.81","0","SATNPRO1963","26.266000000000002","0.3679","5"],
    [830,"HCEP03730564","2023-10-07 00:15:00","11.7823","3.51618","26.18","1.537","7.48","0.415","4.337","0.04","0.28","30.4898","4.77972","17.2","0","SATNPRO1963","26.432","0.37026","5"],
    [831,"HCEP03730564","2023-10-07 00:30:00","11.7823","3.51623","26.075","1.541","7.48","0.378","4.365","0.02","0.28","30.4903","4.77979","17.24","0","SATNPRO1963","26.496","0.3711","5"],
    [832,"HCEP03730564","2023-10-07 00:45:00","11.7825","3.51632","25.957","1.537","7.48","0.392","4.346","0.02","0.18","30.4911","4.77989","17.19","0","SATNPRO1963","25.698","0.35996","5"],
    [833,"HCEP03730564","2023-10-07 01:00:00","11.7829","3.51639","25.84","1.543","7.48","0.365","4.424","0.01","0.26","30.4914","4.77992","17.26","0","SATNPRO1963","25.686","0.35976","5"],
    [834,"HCEP03730564","2023-10-07 01:15:00","11.7849","3.51653","25.725","1.622","7.48","0.379","3.637","0.03","0.17","30.4911","4.77985","18.14","0","SATNPRO1963","25.332","0.35482","5"],
    [835,"HCEP03730564","2023-10-07 01:30:00","11.7853","3.51647","25.595","1.651","7.49","0.35","3.67","0.02","0.21","30.4904","4.77973","18.47","0","SATNPRO1963","25.466","0.35672","5"],
    [836,"HCEP03730564","2023-10-07 01:45:00","11.7855","3.51649","25.481","1.674","7.49","0.382","3.315","0.02","0.18","30.4904","4.77973","18.73","0","SATNPRO1963","25.438","0.35634","5"],
    [837,"HCEP03730564","2023-10-07 02:00:00","11.7861","3.51652","25.372","1.668","7.49","0.34","3.275","0.02","0.12","30.4902","4.77969","18.67","0","SATNPRO1963","25.538","0.3577","5"],
    [838,"HCEP03730564","2023-10-07 02:15:00","11.7867","3.51675","25.261","1.592","7.49","0.378","3.98","0.02","0.14","30.492","4.77991","17.81","0","SATNPRO1963","25.934","0.36328","5"],
    [839,"HCEP03730564","2023-10-07 02:30:00","11.789","3.51697","25.11","1.619","7.49","0.354","3.812","0.01","0.05","30.4923","4.77992","18.12","0","SATNPRO1963","26.184","0.36678","5"],
    [840,"HCEP03730564","2023-10-07 02:45:00","11.7887","3.51699","25.007","1.584","7.49","0.374","4.212","0.02","0.24","30.4928","4.77999","17.73","0","SATNPRO1963","26.264","0.3679","5"],
    [841,"HCEP03730564","2023-10-07 03:00:00","11.7877","3.51683","24.909","1.624","7.49","0.365","3.562","0.03","0.13","30.4921","4.7799","18.17","0","SATNPRO1963","25.946","0.3634","5"],
    [842,"HCEP03730564","2023-10-07 03:15:00","11.7899","3.5171","24.818","1.608","7.49","0.387","3.945","0.04","0.11","30.493","4.77998","17.99","0","SATNPRO1963","25.93","0.36318","5"],
    [843,"HCEP03730564","2023-10-07 03:30:00","11.7888","3.51689","24.739","1.563","7.49","0.373","4.272","0.02","0.23","30.4918","4.77984","17.49","0","SATNPRO1963","26.236","0.36746","5"],
    [844,"HCEP03730564","2023-10-07 03:45:00","11.7911","3.51717","24.667","1.6","7.49","0.399","3.983","0.03","0.15","30.4927","4.77992","17.9","0","SATNPRO1963","25.838","0.3619","5"],
    [845,"HCEP03730564","2023-10-07 04:00:00","11.7936","3.51749","24.626","1.675","7.49","0.377","3.681","0.03","0.11","30.4937","4.78003","18.74","0","SATNPRO1963","26.244","0.36762","5"],
    [846,"HCEP03730564","2023-10-07 04:15:00","11.7982","3.51801","24.604","1.696","7.49","0.425","3.794","0.07","0.34","30.495","4.78014","18.98","0","SATNPRO1963","25.972","0.36376","5"],
    [847,"HCEP03730564","2023-10-07 04:30:00","11.8034","3.51834","24.601","1.728","7.5","0.379","3.663","0.03","0.16","30.4939","4.77991","19.34","0","SATNPRO1963","25.754","0.36072","5"],
    [848,"HCEP03730564","2023-10-07 04:45:00","11.8037","3.5183","24.597","1.73","7.5","0.425","4.067","0.04","0.42","30.4933","4.77982","19.36","0","SATNPRO1963","26.172","0.36656","5"],
    [849,"HCEP03730564","2023-10-07 05:00:00","11.8","3.51746","24.606","1.642","7.49","0.401","4.65","0.06","0.17","30.4882","4.77916","18.37","0","SATNPRO1963","26.588","0.37242","5"],
    [850,"HCEP03730564","2023-10-07 05:15:00","11.8029","3.51759","24.647","1.652","7.49","0.436","4.895","0.06","0.56","30.4871","4.77896","18.48","0","SATNPRO1963","26.686","0.3738","5"],
    [851,"HCEP03730564","2023-10-07 05:30:00","11.803","3.51756","24.669","1.63","7.49","0.424","4.968","0.03","0.19","30.4867","4.77891","18.24","0","SATNPRO1963","26.738","0.37448","5"],
    [852,"HCEP03730564","2023-10-07 05:45:00","11.806","3.5178","24.729","1.647","7.49","0.451","5.028","0.03","0.21","30.4865","4.77884","18.43","0","SATNPRO1963","26.512","0.37134","5"],
    [853,"HCEP03730564","2023-10-07 06:00:00","11.8065","3.51788","24.809","1.64","7.49","0.441","5.274","0.03","0.22","30.4868","4.77888","18.35","0","SATNPRO1963","26.142","0.36618","5"],
    [854,"HCEP03730564","2023-10-07 06:15:00","11.8133","3.51873","24.9","1.717","7.49","0.494","4.891","0.09","0.27","30.4894","4.77915","19.22","0","SATNPRO1963","25.904","0.36282","5"],
    [855,"HCEP03730564","2023-10-07 06:30:00","11.8155","3.51888","25.002","1.752","7.5","0.492","5.174","0.16","0.43","30.489","4.77907","19.62","0","SATNPRO1963","26.01","0.36434","5"],
    [856,"HCEP03730564","2023-10-07 06:45:00","11.8154","3.51878","25.114","1.73","7.5","0.481","5.613","0.03","0.39","30.4881","4.77895","19.37","0","SATNPRO1963","26.314","0.36856","5"],
    [857,"HCEP03730564","2023-10-07 07:00:00","11.8206","3.51946","25.231","1.775","7.5","0.443","5.101","0.11","0.32","30.4903","4.7792","19.87","0","SATNPRO1963","26.136","0.3661","5"],
    [858,"HCEP03730564","2023-10-07 07:15:00","11.8206","3.51918","25.372","1.788","7.5","0.534","5.216","0.33","0.3","30.4876","4.77882","20.02","0","SATNPRO1963","26.57","0.37212","5"],
    [859,"HCEP03730564","2023-10-07 07:30:00","11.8227","3.51905","25.5","1.86","7.5","0.424","4.799","0.02","0.22","30.4846","4.77838","20.82","0","SATNPRO1963","26.534","0.37164","5"],
    [860,"HCEP03730564","2023-10-07 07:45:00","11.8272","3.5194","25.644","1.936","7.51","0.443","4.308","0.02","0.2","30.4842","4.77826","21.68","0","SATNPRO1963","26.67","0.37352","5"],
    [861,"HCEP03730564","2023-10-07 08:00:00","11.8263","3.51937","25.797","1.912","7.51","0.431","4.796","0.02","0.29","30.4845","4.77833","21.41","0","SATNPRO1963","26.742","0.37456","5"],
    [862,"HCEP03730564","2023-10-07 08:15:00","11.8275","3.51954","25.977","1.904","7.51","0.454","4.644","0.02","0.24","30.4851","4.77841","21.32","0","SATNPRO1963","26.782","0.37512","5"],
    [863,"HCEP03730564","2023-10-07 08:30:00","11.8238","3.51882","26.128","1.835","7.51","0.431","4.793","0.03","0.17","30.4812","4.77791","20.55","0","SATNPRO1963","27.374","0.3834","5"],
    [864,"HCEP03730564","2023-10-07 08:45:00","11.8268","3.51957","26.28","1.848","7.51","0.482","5.172","0.05","0.27","30.4859","4.77854","20.7","0","SATNPRO1963","27.544","0.38576","5"],
    [865,"HCEP03730564","2023-10-07 09:00:00","11.8263","3.51979","26.449","1.837","7.51","0.462","5.728","0.02","0.26","30.4883","4.7789","20.56","0","SATNPRO1963","27.284","0.38218","5"],
    [866,"HCEP03730564","2023-10-07 09:15:00","11.8302","3.52062","26.592","1.848","7.51","0.493","5.502","0.06","0.31","30.4931","4.77954","20.7","0","SATNPRO1963","27.174","0.38066","5"],
    [867,"HCEP03730564","2023-10-07 09:30:00","11.8306","3.52063","26.743","1.851","7.51","0.484","4.926","0.07","0.25","30.4928","4.77949","20.73","0","SATNPRO1963","26.834","0.37584","5"],
    [868,"HCEP03730564","2023-10-07 09:45:00","11.8302","3.52059","26.883","1.852","7.51","0.46","5.182","0.03","0.25","30.4927","4.77949","20.74","0","SATNPRO1963","26.914","0.377","5"],
    [869,"HCEP03730564","2023-10-07 10:00:00","11.8332","3.52114","27.012","1.883","7.51","0.47","5.285","0.03","0.28","30.4954","4.77984","21.09","0","SATNPRO1963","26.868","0.37636","5"],
    [870,"HCEP03730564","2023-10-07 10:15:00","11.8358","3.52166","27.125","1.905","7.51","0.476","4.989","0.02","0.34","30.4983","4.78022","21.34","0","SATNPRO1963","27.01","0.3783","5"],
    [871,"HCEP03730564","2023-10-07 10:30:00","11.8425","3.52271","27.238","2.003","7.52","0.49","4.227","0.29","0.4","30.5028","4.78076","22.44","0","SATNPRO1963","26.994","0.3781","5"],
    [872,"HCEP03730564","2023-10-07 10:45:00","11.8453","3.52331","27.334","2.034","7.52","0.456","4.107","0.03","0.29","30.5063","4.78122","22.78","0","SATNPRO1963","27.298","0.38234","5"],
    [873,"HCEP03730564","2023-10-07 11:00:00","11.8456","3.52331","27.424","2.043","7.53","0.444","4.195","0.04","0.25","30.506","4.78118","22.89","0","SATNPRO1963","27.284","0.38214","5"],
    [874,"HCEP03730564","2023-10-07 11:15:00","11.8468","3.5235","27.487","2.05","7.53","0.447","4.106","0.02","0.27","30.5068","4.78129","22.96","0","SATNPRO1963","27.71","0.38814","5"],
    [875,"HCEP03730564","2023-10-07 11:30:00","11.8455","3.52327","27.528","2.034","7.53","0.429","4.152","0.03","0.28","30.5057","4.78114","22.79","0","SATNPRO1963","28.204","0.39504","5"],
    [876,"HCEP03730564","2023-10-07 11:45:00","11.8485","3.52369","27.573","2.077","7.53","0.498","3.399","0.19","0.17","30.5072","4.78132","23.27","0","SATNPRO1963","28.206","0.3951","5"],
    [877,"HCEP03730564","2023-10-07 12:00:00","11.8458","3.5233","27.598","2.046","7.53","0.414","3.611","0.02","0.16","30.5056","4.78114","22.92","0","SATNPRO1963","28.098000000000003","0.39358","5"],
    [878,"HCEP03730564","2023-10-07 12:15:00","11.8476","3.52353","27.629","2.06","7.53","0.444","3.505","0.05","0.14","30.5064","4.78122","23.08","0","SATNPRO1963","28.066","0.3931","5"],
    [879,"HCEP03730564","2023-10-07 12:30:00","11.8433","3.52303","27.655","2.013","7.53","0.443","4.302","0.03","0.16","30.5051","4.7811","22.55","0","SATNPRO1963","28.374","0.39742","5"],
    [880,"HCEP03730564","2023-10-07 12:45:00","11.8462","3.52329","27.666","2.036","7.53","0.448","3.64","0.03","0.15","30.5052","4.78108","22.81","0","SATNPRO1963","28.258000000000003","0.3958","5"],
    [881,"HCEP03730564","2023-10-07 13:00:00","11.8467","3.52341","27.661","2.046","7.53","0.445","3.767","0.04","0.17","30.506","4.78119","22.92","0","SATNPRO1963","28.32","0.39664","5"],
    [882,"HCEP03730564","2023-10-07 13:15:00","11.8459","3.5233","27.661","2.031","7.53","0.437","3.791","0.02","0.15","30.5055","4.78112","22.75","0","SATNPRO1963","28.268","0.3959","5"],
    [883,"HCEP03730564","2023-10-07 13:30:00","11.848","3.52362","27.643","2.055","7.53","0.392","3.391","0.02","0.11","30.5069","4.78129","23.03","0","SATNPRO1963","27.882","0.39056","5"],
    [884,"HCEP03730564","2023-10-07 13:45:00","11.8448","3.52324","27.609","2.015","7.53","0.467","3.872","0.04","0.15","30.5059","4.7812","22.58","0","SATNPRO1963","28.174","0.39462","5"],
    [885,"HCEP03730564","2023-10-07 14:00:00","11.847","3.52361","27.587","2.049","7.53","0.401","3.488","0.05","0.09","30.5077","4.78141","22.95","0","SATNPRO1963","28.136","0.39412","5"],
    [886,"HCEP03730564","2023-10-07 14:15:00","11.8459","3.52349","27.532","2.031","7.53","0.445","3.5","0.04","0.15","30.5074","4.78138","22.75","0","SATNPRO1963","28.330000000000002","0.39684","5"],
    [887,"HCEP03730564","2023-10-07 14:30:00","11.8482","3.52383","27.485","2.066","7.53","0.408","3.298","0.1","0.12","30.5088","4.78154","23.14","0","SATNPRO1963","28.426","0.39814","5"],
    [888,"HCEP03730564","2023-10-07 14:45:00","11.8469","3.5237","27.426","2.07","7.53","0.406","3.123","0.02","0.12","30.5087","4.78154","23.19","0","SATNPRO1963","28.09","0.39346","5"],
    [889,"HCEP03730564","2023-10-07 15:00:00","11.8487","3.524","27.366","2.085","7.53","0.38","3.056","0.03","0.09","30.51","4.7817","23.36","0","SATNPRO1963","28.438","0.39834","5"],
    [890,"HCEP03730564","2023-10-07 15:15:00","11.8478","3.52394","27.317","2.078","7.53","0.407","3.009","0.05","0.12","30.5103","4.78176","23.28","0","SATNPRO1963","28.284","0.39618","5"],
    [891,"HCEP03730564","2023-10-07 15:30:00","11.8465","3.5238","27.251","2.056","7.53","0.371","3.206","0.02","0.1","30.5101","4.78174","23.03","0","SATNPRO1963","28.534","0.39968","5"],
    [892,"HCEP03730564","2023-10-07 15:45:00","11.8452","3.52365","27.184","2.036","7.53","0.416","3.294","0.04","0.25","30.5097","4.7817","22.81","0","SATNPRO1963","28.572","0.40024","5"],
    [893,"HCEP03730564","2023-10-07 16:00:00","11.8444","3.52363","27.108","2.018","7.53","0.389","3.461","0.04","0.14","30.5102","4.78177","22.61","0","SATNPRO1963","28.712","0.40218","5"],
    [894,"HCEP03730564","2023-10-07 16:15:00","11.841","3.52328","27.025","1.956","7.53","0.418","3.762","0.02","0.16","30.5096","4.78174","21.91","0","SATNPRO1963","28.64","0.40114","5"],
    [895,"HCEP03730564","2023-10-07 16:30:00","11.8423","3.52356","26.959","1.964","7.52","0.414","3.821","0.04","0.17","30.5113","4.78195","22","0","SATNPRO1963","28.48","0.39888","5"],
    [896,"HCEP03730564","2023-10-07 16:45:00","11.8404","3.52341","26.865","1.944","7.52","0.48","3.909","0.22","0.18","30.5115","4.782","21.78","0","SATNPRO1963","28.32","0.3967","5"],
    [897,"HCEP03730564","2023-10-07 17:00:00","11.8406","3.52353","26.781","1.932","7.52","0.408","3.803","0.03","0.16","30.5125","4.78213","21.64","0","SATNPRO1963","28.318","0.39664","5"],
    [898,"HCEP03730564","2023-10-07 17:15:00","11.8403","3.52361","26.714","1.923","7.52","0.424","3.865","0.03","0.22","30.5135","4.78227","21.54","0","SATNPRO1963","28.126","0.39396","5"],
    [899,"HCEP03730564","2023-10-07 17:30:00","11.8413","3.52368","26.651","1.946","7.52","0.397","3.573","0.03","0.11","30.5134","4.78225","21.8","0","SATNPRO1963","28.102","0.3936","5"],
    [900,"HCEP03730564","2023-10-07 17:45:00","11.8384","3.52335","26.614","1.905","7.52","0.454","3.601","0.11","0.14","30.5127","4.78218","21.34","0","SATNPRO1963","28.056","0.39294","5"],
    [901,"HCEP03730564","2023-10-07 18:00:00","11.8408","3.52365","26.571","1.951","7.52","0.387","3.616","0.02","0.09","30.5135","4.78226","21.86","0","SATNPRO1963","27.976","0.39182","5"],
    [902,"HCEP03730564","2023-10-07 18:15:00","11.8403","3.52354","26.532","1.975","7.52","0.403","3.144","0.02","0.14","30.5129","4.78218","22.12","0","SATNPRO1963","27.733999999999998","0.38844","5"],
    [903,"HCEP03730564","2023-10-07 18:30:00","11.8399","3.52348","26.51","1.968","7.52","0.387","3.338","0.03","0.16","30.5127","4.78215","22.05","0","SATNPRO1963","27.926","0.39114","5"],
    [904,"HCEP03730564","2023-10-07 18:45:00","11.8404","3.52343","26.494","1.97","7.52","0.386","3.028","0.03","0.1","30.5118","4.78202","22.07","0","SATNPRO1963","27.824","0.3897","5"],
    [905,"HCEP03730564","2023-10-07 19:00:00","11.8402","3.52343","26.494","1.967","7.52","0.4","3.585","0.03","0.16","30.5119","4.78204","22.03","0","SATNPRO1963","28.198","0.39494","5"],
    [906,"HCEP03730564","2023-10-07 19:15:00","11.8404","3.5235","26.489","1.963","7.52","0.398","3.452","0.04","0.11","30.5124","4.78211","21.99","0","SATNPRO1963","27.984","0.39192","5"],
    [907,"HCEP03730564","2023-10-07 19:30:00","11.8403","3.52334","26.495","1.973","7.52","0.38","3.641","0.03","0.23","30.511","4.78191","22.1","0","SATNPRO1963","28.186","0.39476","5"],
    [908,"HCEP03730564","2023-10-07 19:45:00","11.8401","3.52332","26.498","1.956","7.52","0.433","3.664","0.06","0.28","30.511","4.78192","21.91","0","SATNPRO1963","28.236","0.39546","5"],
    [909,"HCEP03730564","2023-10-07 20:00:00","11.8389","3.52319","26.504","1.91","7.52","0.392","3.934","0.05","0.28","30.5106","4.78188","21.39","0","SATNPRO1963","28.29","0.39624","5"],
    [910,"HCEP03730564","2023-10-07 20:15:00","11.8408","3.52338","26.516","1.94","7.52","0.409","3.555","0.04","0.19","30.5109","4.7819","21.73","0","SATNPRO1963","28.34","0.39696","5"],
    [911,"HCEP03730564","2023-10-07 20:30:00","11.8393","3.52325","26.531","1.91","7.52","0.403","4.33","0.02","0.17","30.5109","4.78192","21.4","0","SATNPRO1963","28.262","0.39586","5"],
    [912,"HCEP03730564","2023-10-07 20:45:00","11.8397","3.52325","26.545","1.9","7.52","0.437","4.328","0.03","0.24","30.5106","4.78187","21.28","0","SATNPRO1963","28.158","0.3944","5"],
    [913,"HCEP03730564","2023-10-07 21:00:00","11.8387","3.52316","26.558","1.874","7.52","0.418","4.626","0.08","0.32","30.5105","4.78187","20.99","0","SATNPRO1963","28.17","0.39454","5"],
    [914,"HCEP03730564","2023-10-07 21:15:00","11.837","3.52298","26.573","1.835","7.51","0.425","4.661","0.03","0.23","30.5102","4.78185","20.56","0","SATNPRO1963","28.1","0.3936","5"],
    [915,"HCEP03730564","2023-10-07 21:30:00","11.8382","3.52308","26.589","1.841","7.51","0.435","4.494","0.23","0.22","30.5102","4.78183","20.62","0","SATNPRO1963","27.932","0.39124","5"],
    [916,"HCEP03730564","2023-10-07 21:45:00","11.8365","3.52293","26.6","1.816","7.51","0.627","4.33","0.63","0.28","30.5101","4.78184","20.34","0","SATNPRO1963","27.912","0.39094","5"],
    [917,"HCEP03730564","2023-10-07 22:00:00","11.8403","3.52313","26.614","1.855","7.51","0.386","4.301","0.03","0.26","30.5089","4.78162","20.78","0","SATNPRO1963","27.838","0.3899","5"],
    [918,"HCEP03730564","2023-10-07 22:15:00","11.8363","3.52278","26.633","1.805","7.51","0.421","4.54","0.03","0.17","30.5089","4.78168","20.22","0","SATNPRO1963","27.204","0.38106","5"],
    [919,"HCEP03730564","2023-10-07 22:30:00","11.8355","3.52269","26.632","1.769","7.51","0.421","4.623","0.07","0.26","30.5087","4.78166","19.82","0","SATNPRO1963","27.554","0.38594","5"],
    [920,"HCEP03730564","2023-10-07 22:45:00","11.8348","3.52252","26.642","1.768","7.51","0.428","4.7","0.02","0.37","30.5075","4.78151","19.8","0","SATNPRO1963","27.2","0.38098","5"],
    [921,"HCEP03730564","2023-10-07 23:00:00","11.8389","3.52286","26.628","1.842","7.51","0.408","4.397","0.06","0.17","30.5075","4.78144","20.63","0","SATNPRO1963","27.602","0.3866","5"],
    [922,"HCEP03730564","2023-10-07 23:15:00","11.8397","3.52303","26.619","1.877","7.51","0.41","4.163","0.03","0.14","30.5084","4.78156","21.03","0","SATNPRO1963","27.022","0.37848","5"],
    [923,"HCEP03730564","2023-10-07 23:30:00","11.8388","3.52274","26.62","1.862","7.51","0.393","4.128","0.04","0.13","30.5064","4.78129","20.86","0","SATNPRO1963","26.79","0.3752","5"],
    [924,"HCEP03730564","2023-10-07 23:45:00","11.8379","3.52256","26.604","1.848","7.51","0.411","4.321","0.01","0.14","30.5054","4.78116","20.7","0","SATNPRO1963","26.998","0.37814","5"],
    [925,"HCEP03730564","2023-10-08 00:00:00","11.8378","3.52246","26.605","1.816","7.51","0.395","4.542","0.02","0.1","30.5045","4.78103","20.34","0","SATNPRO1963","27.662","0.38742","5"],
    [926,"HCEP03730564","2023-10-08 00:15:00","11.834","3.52215","26.564","1.765","7.51","0.427","4.924","0.03","0.12","30.5047","4.78112","19.77","0","SATNPRO1963","27.994","0.39208","5"],
    [927,"HCEP03730564","2023-10-08 00:30:00","11.8344","3.52213","26.532","1.75","7.5","0.41","4.968","0.02","0.12","30.5042","4.78104","19.6","0","SATNPRO1963","27.549999999999997","0.3859","5"],
    [928,"HCEP03730564","2023-10-08 00:45:00","11.8341","3.52213","26.472","1.743","7.5","0.417","4.965","0.01","0.09","30.5045","4.78107","19.52","0","SATNPRO1963","27.504","0.38528","5"],
    [929,"HCEP03730564","2023-10-08 01:00:00","11.8374","3.52255","26.421","1.76","7.5","0.389","4.751","0.02","0.12","30.5058","4.78121","19.71","0","SATNPRO1963","27.134","0.38004","5"],
    [930,"HCEP03730564","2023-10-08 01:15:00","11.8402","3.52292","26.328","1.799","7.5","0.389","4.228","0.01","0.1","30.5071","4.78136","20.15","0","SATNPRO1963","26.698","0.37392","5"],
    [931,"HCEP03730564","2023-10-08 01:30:00","11.8378","3.52268","26.249","1.77","7.5","0.38","4.598","0.01","0.08","30.5068","4.78135","19.83","0","SATNPRO1963","26.736","0.37446","5"],
    [932,"HCEP03730564","2023-10-08 01:45:00","11.8421","3.52305","26.189","1.835","7.51","0.394","4.035","0.02","0.11","30.5068","4.78128","20.55","0","SATNPRO1963","26.722","0.37428","5"],
    [933,"HCEP03730564","2023-10-08 02:00:00","11.841","3.5229","26.124","1.838","7.51","0.379","4.205","0.02","0.14","30.5063","4.78122","20.59","0","SATNPRO1963","26.994","0.37814","5"],
    [934,"HCEP03730564","2023-10-08 02:15:00","11.8407","3.52306","25.999","1.801","7.51","0.39","4.266","0.01","0.12","30.5081","4.78147","20.18","0","SATNPRO1963","27.376","0.38348","5"],
    [935,"HCEP03730564","2023-10-08 02:30:00","11.8391","3.52301","25.913","1.739","7.5","0.375","4.515","0.01","0.13","30.509","4.78162","19.48","0","SATNPRO1963","26.874","0.37642","5"],
    [936,"HCEP03730564","2023-10-08 02:45:00","11.8373","3.52294","25.809","1.695","7.5","0.395","4.524","0.02","0.14","30.5099","4.78176","18.98","0","SATNPRO1963","27.312","0.38252","5"],
    [937,"HCEP03730564","2023-10-08 03:00:00","11.8327","3.52252","25.703","1.606","7.5","0.4","5.211","0.02","0.17","30.5097","4.78179","17.98","0","SATNPRO1963","27.586000000000002","0.3864","5"],
    [938,"HCEP03730564","2023-10-08 03:15:00","11.835","3.52277","25.598","1.679","7.49","0.429","4.434","0.09","0.17","30.5102","4.78182","18.81","0","SATNPRO1963","27.02","0.37848","5"],
    [939,"HCEP03730564","2023-10-08 03:30:00","11.8401","3.52318","25.479","1.711","7.5","0.389","4.671","0.06","0.13","30.51","4.78172","19.17","0","SATNPRO1963","26.900000000000002","0.37678","5"],
    [940,"HCEP03730564","2023-10-08 03:45:00","11.8398","3.52315","25.375","1.74","7.5","0.387","3.985","0.02","0.1","30.51","4.78172","19.49","0","SATNPRO1963","26.716","0.37422","5"],
    [941,"HCEP03730564","2023-10-08 04:00:00","11.8422","3.52325","25.267","1.771","7.5","0.37","3.892","0.04","0.13","30.509","4.78153","19.84","0","SATNPRO1963","25.976","0.36384","5"],
    [942,"HCEP03730564","2023-10-08 04:15:00","11.8371","3.5226","25.176","1.75","7.5","0.402","4.26","0.03","0.16","30.507","4.78132","19.6","0","SATNPRO1963","26.972","0.3778","5"],
    [943,"HCEP03730564","2023-10-08 04:30:00","11.8366","3.52246","25.08","1.718","7.5","0.395","4.166","0.05","0.1","30.5061","4.78119","19.25","0","SATNPRO1963","26.71","0.37408","5"],
    [944,"HCEP03730564","2023-10-08 04:45:00","11.8364","3.52226","25","1.721","7.5","0.395","4.141","0.03","0.21","30.5044","4.78095","19.27","0","SATNPRO1963","26.928","0.37718","5"],
    [945,"HCEP03730564","2023-10-08 05:00:00","11.8348","3.52196","24.933","1.742","7.5","0.358","4.036","0.02","0.2","30.5028","4.78075","19.51","0","SATNPRO1963","27.124","0.37992","5"],
    [946,"HCEP03730564","2023-10-08 05:15:00","11.8363","3.52207","24.89","1.737","7.5","0.372","3.771","0.01","0.13","30.5027","4.7807","19.46","0","SATNPRO1963","27.018","0.3784","5"],
    [947,"HCEP03730564","2023-10-08 05:30:00","11.8365","3.52211","24.847","1.745","7.5","0.365","4.124","0.05","0.17","30.5029","4.78073","19.55","0","SATNPRO1963","26.742","0.37462","5"],
    [948,"HCEP03730564","2023-10-08 05:45:00","11.8346","3.52177","24.827","1.748","7.5","0.41","3.781","0.03","0.11","30.5012","4.78052","19.58","0","SATNPRO1963","27.068","0.37912","5"],
    [949,"HCEP03730564","2023-10-08 06:00:00","11.8353","3.52183","24.826","1.737","7.5","0.354","3.61","0.02","0.05","30.5012","4.7805","19.46","0","SATNPRO1963","26.946","0.37746","5"],
    [950,"HCEP03730564","2023-10-08 06:15:00","11.8399","3.52228","24.83","1.815","7.5","0.383","3.621","0.06","0.4","30.5017","4.78051","20.33","0","SATNPRO1963","27.112000000000002","0.3797","5"],
    [951,"HCEP03730564","2023-10-08 06:30:00","11.8355","3.52162","24.84","1.832","7.51","0.425","3.742","0.19","0.19","30.499","4.78019","20.52","0","SATNPRO1963","27.07","0.37918","5"],
    [952,"HCEP03730564","2023-10-08 06:45:00","11.8299","3.52074","24.874","1.69","7.5","0.392","3.825","0.03","0.33","30.4951","4.77973","18.93","0","SATNPRO1963","27.122","0.3799","5"],
    [953,"HCEP03730564","2023-10-08 07:00:00","11.8276","3.52015","24.923","1.68","7.5","0.4","3.741","0.04","0.21","30.4914","4.77923","18.82","0","SATNPRO1963","27.212","0.3812","5"],
    [954,"HCEP03730564","2023-10-08 07:15:00","11.8254","3.51969","25.004","1.661","7.5","0.408","3.531","0.03","0.13","30.4886","4.77888","18.59","0","SATNPRO1963","27.538","0.38572","5"],
    [955,"HCEP03730564","2023-10-08 07:30:00","11.8242","3.51943","25.096","1.663","7.49","0.406","3.65","0.05","0.13","30.4871","4.77869","18.62","0","SATNPRO1963","27.634","0.38708","5"],
    [956,"HCEP03730564","2023-10-08 07:45:00","11.8233","3.5191","25.201","1.652","7.49","0.422","3.493","0.04","0.13","30.4846","4.77835","18.5","0","SATNPRO1963","27.029999999999998","0.37862","5"],
    [957,"HCEP03730564","2023-10-08 08:00:00","11.8221","3.51868","25.278","1.658","7.49","0.401","3.404","0.06","0.1","30.4816","4.77795","18.56","0","SATNPRO1963","26.580000000000002","0.3723","5"],
    [958,"HCEP03730564","2023-10-08 08:15:00","11.8182","3.51802","25.422","1.595","7.49","0.424","3.714","0.02","0.19","30.4784","4.77756","17.85","0","SATNPRO1963","26.608","0.37268","5"],
    [959,"HCEP03730564","2023-10-08 08:30:00","11.8163","3.51792","25.508","1.542","7.49","0.442","4.19","0.04","0.14","30.4789","4.77766","17.26","0","SATNPRO1963","26.444","0.37036","5"],
    [960,"HCEP03730564","2023-10-08 08:45:00","11.8244","3.51895","25.698","1.669","7.49","0.424","3.348","0.03","0.07","30.4821","4.77801","18.69","0","SATNPRO1963","26.630000000000003","0.37302","5"],
    [961,"HCEP03730564","2023-10-08 09:00:00","11.8264","3.51925","25.763","1.716","7.49","0.4","3.284","0.03","0.1","30.4833","4.77816","19.22","0","SATNPRO1963","26.378","0.36948","5"],
    [962,"HCEP03730564","2023-10-08 09:15:00","11.8249","3.51907","25.9","1.686","7.49","0.459","3.434","0.11","0.12","30.4828","4.77811","18.87","0","SATNPRO1963","26.078","0.3653","5"],
    [963,"HCEP03730564","2023-10-08 09:30:00","11.8273","3.51959","26.064","1.691","7.49","0.401","3.519","0.02","0.17","30.4858","4.77851","18.93","0","SATNPRO1963","26.236","0.36748","5"],
    [964,"HCEP03730564","2023-10-08 09:45:00","11.8315","3.52017","26.222","1.764","7.5","0.413","3.127","0.03","0.16","30.4879","4.77876","19.76","0","SATNPRO1963","26.794","0.3753","5"],
    [965,"HCEP03730564","2023-10-08 10:00:00","11.8318","3.52016","26.378","1.773","7.5","0.407","3.476","0.04","0.14","30.4874","4.7787","19.85","0","SATNPRO1963","26.776","0.37508","5"],
    [966,"HCEP03730564","2023-10-08 10:15:00","11.8272","3.51969","26.549","1.691","7.5","0.454","4.044","0.04","0.21","30.4866","4.77866","18.93","0","SATNPRO1963","26.782","0.3751","5"],
    [967,"HCEP03730564","2023-10-08 10:30:00","11.8312","3.52024","26.692","1.698","7.5","0.399","3.652","0.03","0.16","30.4886","4.77889","19.02","0","SATNPRO1963","27.14","0.38014","5"],
    [968,"HCEP03730564","2023-10-08 10:45:00","11.8306","3.52027","26.851","1.717","7.5","0.443","3.999","0.02","0.17","30.4893","4.779","19.23","0","SATNPRO1963","27.69","0.38784","5"],
    [969,"HCEP03730564","2023-10-08 11:00:00","11.831","3.52037","26.991","1.702","7.5","0.411","3.99","0.02","0.23","30.4899","4.77909","19.06","0","SATNPRO1963","27.592","0.38644","5"],
    [970,"HCEP03730564","2023-10-08 11:15:00","11.8283","3.52023","27.114","1.645","7.5","0.455","4.291","0.04","0.14","30.4906","4.77924","18.42","0","SATNPRO1963","26.944","0.37738","5"],
    [971,"HCEP03730564","2023-10-08 11:30:00","11.8336","3.52089","27.23","1.705","7.5","0.412","3.816","0.04","0.27","30.4926","4.77944","19.09","0","SATNPRO1963","26.49","0.3711","5"],
    [972,"HCEP03730564","2023-10-08 11:45:00","11.8275","3.5202","27.326","1.609","7.49","0.457","4.131","0.06","0.13","30.4909","4.77931","18.02","0","SATNPRO1963","27.028","0.37858","5"],
    [973,"HCEP03730564","2023-10-08 12:00:00","11.8281","3.52042","27.414","1.582","7.49","0.414","4.245","0.06","0.37","30.4926","4.77954","17.71","0","SATNPRO1963","27.11","0.3797","5"],
    [974,"HCEP03730564","2023-10-08 12:15:00","11.8259","3.52016","27.498","1.531","7.49","0.441","4.782","0.03","0.3","30.4918","4.77946","17.14","0","SATNPRO1963","26.82","0.37566","5"],
    [975,"HCEP03730564","2023-10-08 12:30:00","11.824","3.51995","27.566","1.518","7.48","0.496","4.506","0.25","0.17","30.4913","4.77943","16.99","0","SATNPRO1963","26.738","0.37452","5"],
    [976,"HCEP03730564","2023-10-08 12:45:00","11.8244","3.51993","27.605","1.51","7.48","0.446","4.498","0.05","0.17","30.4908","4.77934","16.91","0","SATNPRO1963","26.248","0.36766","5"],
    [977,"HCEP03730564","2023-10-08 13:00:00","11.8261","3.52009","27.628","1.54","7.48","0.451","4.173","0.08","0.19","30.4909","4.77934","17.25","0","SATNPRO1963","26.073999999999998","0.36522","5"],
    [978,"HCEP03730564","2023-10-08 13:15:00","11.8237","3.51977","27.667","1.526","7.48","0.496","4.408","0.16","0.2","30.4898","4.77922","17.08","0","SATNPRO1963","25.8","0.36136","5"],
    [979,"HCEP03730564","2023-10-08 13:30:00","11.8214","3.51957","27.691","1.47","7.48","0.426","4.474","0.04","0.2","30.4898","4.77925","16.46","0","SATNPRO1963","25.990000000000002","0.36406","5"],
    [980,"HCEP03730564","2023-10-08 13:45:00","11.8217","3.5196","27.691","1.472","7.48","0.455","4.737","0.03","0.37","30.4898","4.77925","16.48","0","SATNPRO1963","25.514","0.35732","5"],
    [981,"HCEP03730564","2023-10-08 14:00:00","11.8199","3.51945","27.719","1.451","7.48","0.432","4.87","0.04","0.28","30.4898","4.77928","16.24","0","SATNPRO1963","26.05","0.36488","5"],
    [982,"HCEP03730564","2023-10-08 14:15:00","11.822","3.51979","27.701","1.46","7.48","0.479","4.505","0.11","0.28","30.4914","4.77947","16.34","0","SATNPRO1963","25.864","0.36224","5"],
    [983,"HCEP03730564","2023-10-08 14:30:00","11.8234","3.5199","27.701","1.534","7.48","0.485","4.157","0.39","0.25","30.4913","4.77944","17.18","0","SATNPRO1963","25.742","0.36056","5"],
    [984,"HCEP03730564","2023-10-08 14:45:00","11.831","3.52089","27.646","1.619","7.48","0.429","3.92","0.05","0.17","30.4945","4.77978","18.13","0","SATNPRO1963","25.462","0.35662","5"],
    [985,"HCEP03730564","2023-10-08 15:00:00","11.8329","3.52128","27.612","1.659","7.49","0.546","4.156","0.68","0.19","30.4968","4.78007","18.58","0","SATNPRO1963","25.504","0.3572","5"],
    [986,"HCEP03730564","2023-10-08 15:15:00","11.838","3.52184","27.576","1.713","7.5","0.426","3.829","0.04","0.17","30.498","4.78017","19.18","0","SATNPRO1963","26.136","0.36606","5"],
    [987,"HCEP03730564","2023-10-08 15:30:00","11.8387","3.52198","27.529","1.733","7.5","0.426","4.259","0.05","0.3","30.4989","4.78028","19.41","0","SATNPRO1963","26.414","0.36996","5"],
    [988,"HCEP03730564","2023-10-08 15:45:00","11.841","3.52239","27.469","1.762","7.5","0.414","3.906","0.02","0.17","30.5009","4.78053","19.74","0","SATNPRO1963","26.596","0.3725","5"],
    [989,"HCEP03730564","2023-10-08 16:00:00","11.8395","3.52249","27.403","1.714","7.5","0.431","4.36","0.09","0.29","30.5031","4.78085","19.19","0","SATNPRO1963","26.802","0.37546","5"],
    [990,"HCEP03730564","2023-10-08 16:15:00","11.8378","3.52253","27.322","1.617","7.5","0.465","5.035","0.05","0.31","30.5049","4.78113","18.11","0","SATNPRO1963","27.044","0.3788","5"],
    [991,"HCEP03730564","2023-10-08 16:30:00","11.8368","3.5228","27.246","1.548","7.5","0.443","5.074","0.02","0.35","30.5083","4.78163","17.34","0","SATNPRO1963","27.18","0.38068","5"],
    [992,"HCEP03730564","2023-10-08 16:45:00","11.8404","3.52337","27.158","1.584","7.49","0.469","4.665","0.05","0.42","30.5109","4.78193","17.75","0","SATNPRO1963","27.29","0.38226","5"],
    [993,"HCEP03730564","2023-10-08 17:00:00","11.8385","3.52331","27.061","1.571","7.49","0.431","4.931","0.03","0.41","30.5119","4.78209","17.6","0","SATNPRO1963","27.192","0.38088","5"],
    [994,"HCEP03730564","2023-10-08 17:15:00","11.8369","3.52294","26.961","1.57","7.49","0.465","4.612","0.06","0.24","30.5097","4.78181","17.58","0","SATNPRO1963","26.508","0.3713","5"],
    [995,"HCEP03730564","2023-10-08 17:30:00","11.8353","3.52275","26.825","1.575","7.49","0.486","4.569","0.25","0.2","30.5093","4.78175","17.65","0","SATNPRO1963","26.306","0.36842","5"],
    [996,"HCEP03730564","2023-10-08 17:45:00","11.8345","3.52269","26.73","1.548","7.49","0.456","4.752","0.07","0.38","30.5094","4.78179","17.34","0","SATNPRO1963","26.53","0.37158","5"],
    [997,"HCEP03730564","2023-10-08 18:00:00","11.8342","3.52239","26.635","1.574","7.49","0.466","4.803","0.09","0.18","30.5068","4.78141","17.63","0","SATNPRO1963","26.428","0.37016","5"],
    [998,"HCEP03730564","2023-10-08 18:15:00","11.8363","3.52252","26.557","1.638","7.5","0.451","4.665","0.02","0.2","30.5063","4.78131","18.34","0","SATNPRO1963","26.508","0.3713","5"],
    [999,"HCEP03730564","2023-10-08 18:30:00","11.8389","3.52258","26.474","1.704","7.5","0.398","4.099","0.03","0.28","30.5048","4.78105","19.09","0","SATNPRO1963","26.580000000000002","0.37232","5"],
    [1000,"HCEP03730564","2023-10-08 18:45:00","11.8404","3.52284","26.405","1.749","7.51","0.432","4.199","0.03","0.27","30.5061","4.78122","19.59","0","SATNPRO1963","26.672","0.37362","5"],
    [1001,"HCEP03730564","2023-10-08 19:00:00","11.8408","3.52308","26.337","1.795","7.51","0.408","4.371","0.02","0.12","30.5081","4.78148","20.11","0","SATNPRO1963","26.82","0.37568","5"],
    [1002,"HCEP03730564","2023-10-08 19:15:00","11.8408","3.52318","26.319","1.774","7.51","0.435","4.35","0.02","0.11","30.5092","4.78164","19.88","0","SATNPRO1963","27.224","0.38132","5"],
    [1003,"HCEP03730564","2023-10-08 19:30:00","11.8396","3.52316","26.289","1.746","7.51","0.394","4.204","0.01","0.13","30.51","4.78176","19.56","0","SATNPRO1963","27.73","0.3884","5"],
    [1004,"HCEP03730564","2023-10-08 19:45:00","11.8393","3.52314","26.25","1.743","7.51","0.413","3.999","0.04","0.12","30.51","4.78177","19.52","0","SATNPRO1963","27.868","0.39036","5"],
    [1005,"HCEP03730564","2023-10-08 20:00:00","11.8384","3.52313","26.245","1.725","7.51","0.402","4.055","0.03","0.16","30.5106","4.78187","19.32","0","SATNPRO1963","28.012","0.39236","5"],
    [1006,"HCEP03730564","2023-10-08 20:15:00","11.8376","3.52313","26.284","1.675","7.51","0.413","3.938","0.02","0.11","30.5113","4.78198","18.77","0","SATNPRO1963","27.884","0.39056","5"],
    [1007,"HCEP03730564","2023-10-08 20:30:00","11.8374","3.52349","26.302","1.659","7.5","0.418","3.993","0.15","0.13","30.5149","4.78249","18.58","0","SATNPRO1963","27.572","0.38618","5"],
    [1008,"HCEP03730564","2023-10-08 20:45:00","11.8382","3.52397","26.328","1.671","7.5","0.394","3.505","0.02","0.1","30.5189","4.78305","18.72","0","SATNPRO1963","27.616","0.3868","5"],
    [1009,"HCEP03730564","2023-10-08 21:00:00","11.8332","3.52337","26.337","1.609","7.5","0.391","3.828","0.03","0.18","30.5172","4.78288","18.02","0","SATNPRO1963","27.774","0.38904","5"],
    [1010,"HCEP03730564","2023-10-08 21:15:00","11.8274","3.5228","26.334","1.536","7.5","0.425","3.891","0.02","0.14","30.5164","4.78284","17.2","0","SATNPRO1963","27.386","0.38356","5"],
    [1011,"HCEP03730564","2023-10-08 21:30:00","11.8204","3.52184","26.378","1.47","7.49","0.415","4.026","0.03","0.11","30.5129","4.78246","16.46","0","SATNPRO1963","27.588","0.38642","5"],
    [1012,"HCEP03730564","2023-10-08 21:45:00","11.814","3.52068","26.417","1.377","7.49","0.418","3.974","0.02","0.13","30.507","4.78172","15.42","0","SATNPRO1963","27.43","0.38426","5"],
    [1013,"HCEP03730564","2023-10-08 22:00:00","11.8102","3.52016","26.451","1.335","7.48","0.403","4.128","0.02","0.19","30.5051","4.7815","14.94","0","SATNPRO1963","27.242","0.38156","5"],
    [1014,"HCEP03730564","2023-10-08 22:15:00","11.8058","3.51944","26.488","1.328","7.48","0.412","3.989","0.02","0.19","30.5017","4.78109","14.86","0","SATNPRO1963","26.656","0.37334","5"],
    [1015,"HCEP03730564","2023-10-08 22:30:00","11.802","3.5189","26.526","1.3","7.47","0.391","4.004","0.02","0.18","30.4996","4.78085","14.55","0","SATNPRO1963","26.36","0.36924","5"],
    [1016,"HCEP03730564","2023-10-08 22:45:00","11.7994","3.51845","26.565","1.284","7.47","0.432","4.068","0.03","0.21","30.4974","4.78057","14.37","0","SATNPRO1963","25.894000000000002","0.36268","5"],
    [1017,"HCEP03730564","2023-10-08 23:00:00","11.797","3.5179","26.608","1.293","7.47","0.43","3.875","0.09","0.15","30.4941","4.78015","14.47","0","SATNPRO1963","25.830000000000002","0.3618","5"],
    [1018,"HCEP03730564","2023-10-08 23:15:00","11.7969","3.5178","26.644","1.301","7.47","0.432","3.693","0.05","0.2","30.4932","4.78002","14.56","0","SATNPRO1963","25.73","0.36042","5"],
    [1019,"HCEP03730564","2023-10-08 23:30:00","11.7973","3.51787","26.665","1.295","7.47","0.413","4.173","0.03","0.62","30.4935","4.78006","14.49","0","SATNPRO1963","25.44","0.35632","5"],
    [1020,"HCEP03730564","2023-10-08 23:45:00","11.7981","3.51798","26.689","1.285","7.47","0.44","3.862","0.12","0.37","30.494","4.78012","14.38","0","SATNPRO1963","25.44","0.35628","5"],
    [1021,"HCEP03730564","2023-10-09 00:00:00","11.7979","3.51794","26.71","1.315","7.47","0.396","3.837","0.04","0.19","30.4937","4.78008","14.71","0","SATNPRO1963","25.502","0.35718","5"],
    [1022,"HCEP03730564","2023-10-09 00:15:00","11.8028","3.5183","26.737","1.376","7.47","0.437","3.676","0.05","0.11","30.4931","4.77993","15.4","0","SATNPRO1963","25.63","0.35902","5"],
    [1023,"HCEP03730564","2023-10-09 00:30:00","11.8017","3.51824","26.75","1.378","7.48","0.392","3.701","0.02","0.13","30.4935","4.78","15.42","0","SATNPRO1963","25.541999999999998","0.35778","5"],
    [1024,"HCEP03730564","2023-10-09 00:45:00","11.8016","3.51803","26.749","1.378","7.48","0.403","3.56","0.03","0.13","30.4915","4.77973","15.42","0","SATNPRO1963","25.768","0.36094","5"],
    [1025,"HCEP03730564","2023-10-09 01:00:00","11.7988","3.51777","26.758","1.359","7.48","0.403","3.529","0.04","0.12","30.4913","4.77973","15.2","0","SATNPRO1963","25.95","0.36348","5"],
    [1026,"HCEP03730564","2023-10-09 01:15:00","11.8048","3.51835","26.702","1.425","7.48","0.417","3.317","0.04","0.13","30.492","4.77974","15.95","0","SATNPRO1963","26.168","0.36654","5"],
    [1027,"HCEP03730564","2023-10-09 01:30:00","11.7988","3.51762","26.666","1.387","7.48","0.394","3.511","0.03","0.13","30.4899","4.77953","15.52","0","SATNPRO1963","25.988","0.364","5"],
    [1028,"HCEP03730564","2023-10-09 01:45:00","11.7976","3.51738","26.636","1.356","7.48","0.419","3.352","0.09","0.17","30.4886","4.77937","15.18","0","SATNPRO1963","25.808","0.36152","5"],
    [1029,"HCEP03730564","2023-10-09 02:00:00","11.7947","3.51693","26.58","1.317","7.48","0.39","3.304","0.05","0.11","30.4867","4.77913","14.74","0","SATNPRO1963","26.098","0.36556","5"],
    [1030,"HCEP03730564","2023-10-09 02:15:00","11.7932","3.51675","26.512","1.284","7.47","0.4","3.272","0.06","0.15","30.4862","4.77908","14.37","0","SATNPRO1963","26.514","0.37142","5"],
    [1031,"HCEP03730564","2023-10-09 02:30:00","11.7928","3.51655","26.428","1.285","7.47","0.382","3.345","0.03","0.24","30.4846","4.77886","14.38","0","SATNPRO1963","26.118","0.36582","5"],
    [1032,"HCEP03730564","2023-10-09 02:45:00","11.7932","3.5164","26.334","1.307","7.48","0.438","3.129","0.13","0.21","30.4829","4.7786","14.62","0","SATNPRO1963","26.272000000000002","0.36796","5"],
    [1033,"HCEP03730564","2023-10-09 03:00:00","11.7926","3.51628","26.31","1.369","7.48","0.376","3.144","0.03","0.14","30.4822","4.77852","15.31","0","SATNPRO1963","25.874","0.3624","5"],
    [1034,"HCEP03730564","2023-10-09 03:15:00","11.7909","3.51595","26.153","1.398","7.48","0.401","3.068","0.04","0.18","30.4805","4.77829","15.64","0","SATNPRO1963","25.812","0.36152","5"],
    [1035,"HCEP03730564","2023-10-09 03:30:00","11.7906","3.51589","26.104","1.407","7.48","0.397","3.188","0.09","0.06","30.4802","4.77824","15.75","0","SATNPRO1963","26.252","0.36768","5"],
    [1036,"HCEP03730564","2023-10-09 03:45:00","11.7899","3.51573","26.037","1.409","7.48","0.415","3.353","0.03","0.06","30.4793","4.77812","15.77","0","SATNPRO1963","26.476","0.37086","5"],
    [1037,"HCEP03730564","2023-10-09 04:00:00","11.7888","3.51567","25.848","1.343","7.48","0.396","3.69","0.02","0.09","30.4797","4.77818","15.03","0","SATNPRO1963","25.984","0.36398","5"],
    [1038,"HCEP03730564","2023-10-09 04:15:00","11.7905","3.51592","25.713","1.38","7.48","0.423","3.153","0.05","0.05","30.4808","4.7783","15.44","0","SATNPRO1963","26.266","0.3679","5"],
    [1039,"HCEP03730564","2023-10-09 04:30:00","11.7929","3.51618","25.645","1.402","7.48","0.412","3.149","0.06","0.08","30.4813","4.77835","15.69","0","SATNPRO1963","26.01","0.36432","5"],
    [1040,"HCEP03730564","2023-10-09 04:45:00","11.7898","3.5161","25.624","1.338","7.48","0.433","3.588","0.03","0.09","30.4831","4.77863","14.97","0","SATNPRO1963","25.936","0.36326","5"],
    [1041,"HCEP03730564","2023-10-09 05:00:00","11.7913","3.51633","25.425","1.318","7.47","0.414","3.63","0.04","0.06","30.4841","4.77875","14.75","0","SATNPRO1963","25.91","0.3629","5"],
    [1042,"HCEP03730564","2023-10-09 05:15:00","11.7942","3.51671","25.299","1.334","7.47","0.433","3.467","0.03","0.1","30.4854","4.77889","14.93","0","SATNPRO1963","25.945999999999998","0.36342","5"],
    [1043,"HCEP03730564","2023-10-09 05:30:00","11.7957","3.51686","25.275","1.371","7.47","0.43","3.302","0.08","0.07","30.4857","4.77891","15.34","0","SATNPRO1963","26.222","0.36726","5"],
    [1044,"HCEP03730564","2023-10-09 05:45:00","11.7969","3.51705","25.189","1.382","7.48","0.438","3.173","0.12","0.05","30.4866","4.77901","15.46","0","SATNPRO1963","25.67","0.35956","5"],
    [1045,"HCEP03730564","2023-10-09 06:00:00","11.8008","3.51776","25.021","1.386","7.48","0.445","3.905","0.03","0.18","30.4903","4.77946","15.52","0","SATNPRO1963","25.584","0.35836","5"],
    [1046,"HCEP03730564","2023-10-09 06:15:00","11.8033","3.5181","24.987","1.364","7.48","0.459","3.6","0.06","0.09","30.4915","4.7796","15.27","0","SATNPRO1963","25.924","0.36308","5"],
    [1047,"HCEP03730564","2023-10-09 06:30:00","11.8061","3.5185","24.986","1.405","7.48","0.46","3.355","0.06","0.09","30.493","4.77977","15.73","0","SATNPRO1963","26.166","0.3665","5"],
    [1048,"HCEP03730564","2023-10-09 06:45:00","11.8069","3.51831","24.926","1.462","7.48","0.461","3.059","0.05","0.06","30.4906","4.77942","16.36","0","SATNPRO1963","26.404","0.36984","5"],
    [1049,"HCEP03730564","2023-10-09 07:00:00","11.8071","3.51832","24.854","1.468","7.49","0.455","3.153","0.06","0.18","30.4905","4.7794","16.43","0","SATNPRO1963","26.114","0.36574","5"],
    [1050,"HCEP03730564","2023-10-09 07:15:00","11.8095","3.51868","24.874","1.474","7.49","0.491","3.033","0.04","0.07","30.4921","4.77958","16.5","0","SATNPRO1963","26.024","0.36452","5"],
    [1051,"HCEP03730564","2023-10-09 07:30:00","11.8071","3.51787","24.916","1.493","7.49","0.476","2.858","0.07","0.05","30.4862","4.77879","16.71","0","SATNPRO1963","26.478","0.3709","5"],
    [1052,"HCEP03730564","2023-10-09 07:45:00","11.8093","3.51824","24.985","1.49","7.49","0.572","2.919","0.12","0.09","30.4879","4.779","16.68","0","SATNPRO1963","26.828","0.37576","5"],
    [1053,"HCEP03730564","2023-10-09 08:00:00","11.8069","3.51773","25.009","1.488","7.49","0.496","2.78","0.04","0.06","30.485","4.77863","16.65","0","SATNPRO1963","26.752","0.3747","5"],
    [1054,"HCEP03730564","2023-10-09 08:15:00","11.8097","3.51812","25.084","1.487","7.49","0.528","2.946","0.05","0.09","30.4865","4.7788","16.65","0","SATNPRO1963","26.872","0.3764","5"],
    [1055,"HCEP03730564","2023-10-09 08:30:00","11.8089","3.5181","25.165","1.494","7.49","0.489","3.309","0.04","0.1","30.4868","4.77887","16.72","0","SATNPRO1963","26.928","0.37718","5"],
    [1056,"HCEP03730564","2023-10-09 08:45:00","11.8086","3.5185","25.28","1.489","7.49","0.604","3.412","0.21","0.13","30.4908","4.77945","16.66","0","SATNPRO1963","26.848000000000003","0.37608","5"],
    [1057,"HCEP03730564","2023-10-09 09:00:00","11.8073","3.51787","25.383","1.51","7.49","0.516","3.023","0.08","0.12","30.4859","4.77877","16.9","0","SATNPRO1963","26.887999999999998","0.37664","5"],
    [1058,"HCEP03730564","2023-10-09 09:15:00","11.8048","3.51747","25.475","1.523","7.49","0.533","2.741","0.09","0.05","30.4841","4.77855","17.05","0","SATNPRO1963","26.872","0.37638","5"],
    [1059,"HCEP03730564","2023-10-09 09:30:00","11.7842","3.51418","25.616","1.45","7.49","0.533","2.447","0.06","0.06","30.4692","4.77676","16.22","0","SATNPRO1963","26.94","0.3774","5"],
    [1060,"HCEP03730564","2023-10-09 09:45:00","11.7926","3.51531","25.765","1.485","7.49","0.563","2.579","0.06","0.06","30.4732","4.77721","16.61","0","SATNPRO1963","26.758","0.37476","5"],
    [1061,"HCEP03730564","2023-10-09 10:00:00","11.8083","3.51878","25.937","1.44","7.49","0.522","3.277","0.07","0.13","30.4936","4.77988","16.11","0","SATNPRO1963","26.958000000000002","0.3776","5"],
    [1062,"HCEP03730564","2023-10-09 10:15:00","11.8084","3.51878","26.12","1.437","7.48","0.528","3.38","0.04","0.07","30.4934","4.77986","16.09","0","SATNPRO1963","27.11","0.3797","5"],
    [1063,"HCEP03730564","2023-10-09 10:30:00","11.8074","3.51845","26.283","1.484","7.48","0.524","3.149","0.06","0.13","30.4909","4.77953","16.61","0","SATNPRO1963","26.562","0.37206","5"],
    [1064,"HCEP03730564","2023-10-09 10:45:00","11.7989","3.51743","26.341","1.365","7.48","0.56","3.473","0.04","0.06","30.4881","4.77926","15.28","0","SATNPRO1963","26.922","0.37708","5"],
    [1065,"HCEP03730564","2023-10-09 11:00:00","11.7944","3.51657","26.538","1.313","7.47","0.675","3.515","0.23","0.12","30.4835","4.77868","14.7","0","SATNPRO1963","26.456","0.37058","5"],
    [1066,"HCEP03730564","2023-10-09 11:15:00","11.7823","3.51488","26.755","1.244","7.47","0.589","3.259","0.13","0.07","30.477","4.77795","13.92","0","SATNPRO1963","26.364","0.36928","5"],
    [1067,"HCEP03730564","2023-10-09 11:30:00","11.7795","3.51425","26.817","1.267","7.47","0.572","3.264","0.1","0.07","30.4733","4.77746","14.17","0","SATNPRO1963","26.934","0.37724","5"],
    [1068,"HCEP03730564","2023-10-09 11:45:00","11.7762","3.51357","26.997","1.287","7.47","0.696","3.227","0.37","0.35","30.4693","4.77696","14.4","0","SATNPRO1963","25.946","0.36342","5"],
    [1069,"HCEP03730564","2023-10-09 12:00:00","11.7745","3.51318","27.115","1.308","7.47","0.694","3.266","0.25","0.15","30.4669","4.77666","14.63","0","SATNPRO1963","25.812","0.36152","5"],
    [1070,"HCEP03730564","2023-10-09 12:15:00","11.7746","3.51305","27.268","1.333","7.47","0.746","3.227","0.19","0.14","30.4655","4.77646","14.9","0","SATNPRO1963","25.31","0.35452","5"],
    [1071,"HCEP03730564","2023-10-09 12:30:00","11.7713","3.51265","27.291","1.288","7.47","0.751","3.695","0.24","0.11","30.4644","4.77636","14.41","0","SATNPRO1963","25.14","0.3521","5"],
    [1072,"HCEP03730564","2023-10-09 12:45:00","11.7708","3.51251","27.371","1.316","7.47","0.817","3.339","0.46","0.11","30.4634","4.77622","14.71","0","SATNPRO1963","25.376","0.35544","5"],
    [1073,"HCEP03730564","2023-10-09 13:00:00","11.7694","3.51241","27.563","1.292","7.47","0.673","3.63","0.07","0.11","30.4635","4.77627","14.45","0","SATNPRO1963","25.604","0.35862","5"],
    [1074,"HCEP03730564","2023-10-09 13:15:00","11.7627","3.51127","27.535","1.265","7.47","0.728","2.976","0.18","0.11","30.4581","4.7756","14.15","0","SATNPRO1963","25.844","0.362","5"],
    [1075,"HCEP03730564","2023-10-09 13:30:00","11.7737","3.51319","27.636","1.222","7.46","0.784","3.785","0.19","0.12","30.4674","4.77677","13.67","0","SATNPRO1963","25.48","0.3569","5"],
    [1076,"HCEP03730564","2023-10-09 13:45:00","11.7584","3.51061","27.635","1.205","7.46","0.655","3.065","0.07","0.11","30.4552","4.77526","13.47","0","SATNPRO1963","25.482","0.35694","5"],
    [1077,"HCEP03730564","2023-10-09 14:00:00","11.7756","3.51376","27.653","1.208","7.46","0.71","3.72","0.12","0.12","30.4714","4.7773","13.51","0","SATNPRO1963","25.548","0.35784","5"],
    [1078,"HCEP03730564","2023-10-09 14:15:00","11.7806","3.51451","27.67","1.201","7.46","0.807","3.873","0.27","0.28","30.4746","4.77768","13.44","0","SATNPRO1963","25.308","0.35446","5"],
    [1079,"HCEP03730564","2023-10-09 14:30:00","11.7789","3.51422","27.687","1.196","7.46","0.816","4.033","0.14","0.15","30.4731","4.7775","13.37","0","SATNPRO1963","24.708","0.3461","5"],
    [1080,"HCEP03730564","2023-10-09 14:45:00","11.7739","3.51338","27.686","1.212","7.46","0.75","3.841","0.16","0.24","30.4691","4.777","13.55","0","SATNPRO1963","24.75","0.3467","5"],
    [1081,"HCEP03730564","2023-10-09 15:00:00","11.7598","3.51083","27.627","1.149","7.46","0.785","3.541","0.17","0.2","30.4561","4.77536","12.84","0","SATNPRO1963","24.786","0.34716","5"],
    [1082,"HCEP03730564","2023-10-09 15:15:00","11.7559","3.5103","27.565","1.109","7.45","0.832","3.38","0.17","0.21","30.4543","4.77516","12.39","0","SATNPRO1963","24.906","0.34882","5"],
    [1083,"HCEP03730564","2023-10-09 15:30:00","11.7494","3.50897","27.601","1.07","7.45","0.804","3.852","0.14","0.12","30.4467","4.77418","11.96","0","SATNPRO1963","24.945999999999998","0.3494","5"],
    [1084,"HCEP03730564","2023-10-09 15:45:00","11.7499","3.50931","27.6","0.993","7.44","0.852","4.309","0.13","0.17","30.4496","4.77458","11.1","0","SATNPRO1963","24.948","0.34942","5"],
    [1085,"HCEP03730564","2023-10-09 16:00:00","11.7391","3.5072","27.509","0.976","7.44","0.888","4.083","0.25","0.13","30.4382","4.77311","10.91","0","SATNPRO1963","24.396","0.3417","5"],
    [1086,"HCEP03730564","2023-10-09 16:15:00","11.7358","3.50662","27.438","0.943","7.44","0.934","3.962","0.16","0.13","30.4353","4.77276","10.54","0","SATNPRO1963","23.998","0.33612","5"],
    [1087,"HCEP03730564","2023-10-09 16:30:00","11.7345","3.50656","27.315","0.932","7.44","0.863","3.948","0.14","0.13","30.4359","4.77285","10.42","0","SATNPRO1963","23.73","0.3324","5"],
    [1088,"HCEP03730564","2023-10-09 16:45:00","11.7312","3.50577","27.268","0.923","7.43","0.855","3.668","0.25","0.14","30.4309","4.77219","10.31","0","SATNPRO1963","23.496","0.3291","5"],
    [1089,"HCEP03730564","2023-10-09 17:00:00","11.7318","3.506","27.161","0.904","7.43","0.813","3.861","0.22","0.45","30.4328","4.77244","10.1","0","SATNPRO1963","22.926","0.32114","5"],
    [1090,"HCEP03730564","2023-10-09 17:15:00","11.7313","3.50602","27.081","0.896","7.43","0.87","3.817","0.18","0.22","30.4333","4.77252","10.01","0","SATNPRO1963","22.338","0.31286","5"],
    [1091,"HCEP03730564","2023-10-09 17:30:00","11.7345","3.50653","27.027","0.911","7.43","0.729","3.756","0.14","0.24","30.4357","4.7728","10.18","0","SATNPRO1963","22.404","0.31384","5"],
    [1092,"HCEP03730564","2023-10-09 17:45:00","11.7377","3.50706","26.93","0.934","7.43","0.708","3.377","0.14","0.2","30.4382","4.77311","10.43","0","SATNPRO1963","22.328","0.31276","5"],
    [1093,"HCEP03730564","2023-10-09 18:00:00","11.7414","3.50772","26.826","0.95","7.43","0.725","3.512","0.26","0.14","30.4415","4.77352","10.61","0","SATNPRO1963","22.204","0.31104","5"],
    [1094,"HCEP03730564","2023-10-09 18:15:00","11.7395","3.50736","26.698","0.929","7.43","0.814","3.621","0.55","0.28","30.4397","4.77328","10.38","0","SATNPRO1963","22.062","0.309","5"],
    [1095,"HCEP03730564","2023-10-09 18:30:00","11.7356","3.50663","26.593","0.913","7.43","0.782","3.672","0.31","0.44","30.436","4.77281","10.2","0","SATNPRO1963","22.326","0.31266","5"],
    [1096,"HCEP03730564","2023-10-09 18:45:00","11.7343","3.50648","26.491","0.892","7.43","0.696","3.31","0.19","0.23","30.4356","4.77276","9.97","0","SATNPRO1963","22.46","0.31462","5"],
    [1097,"HCEP03730564","2023-10-09 19:00:00","11.7279","3.5053","26.378","0.859","7.43","0.723","3.266","0.51","0.15","30.4295","4.77198","9.6","0","SATNPRO1963","22.78","0.31906","5"],
    [1098,"HCEP03730564","2023-10-09 19:15:00","11.7246","3.50462","26.279","0.846","7.43","0.63","3.063","0.12","0.11","30.4257","4.7715","9.45","0","SATNPRO1963","22.490000000000002","0.315","5"],
    [1099,"HCEP03730564","2023-10-09 19:30:00","11.7226","3.50434","26.196","0.84","7.43","0.636","3.175","0.28","0.2","30.4246","4.77137","9.38","0","SATNPRO1963","22.318","0.3126","5"],
    [1100,"HCEP03730564","2023-10-09 19:45:00","11.7213","3.50407","26.149","0.84","7.43","0.664","3.057","0.27","0.16","30.4231","4.77116","9.39","0","SATNPRO1963","22.004","0.3082","5"],
    [1101,"HCEP03730564","2023-10-09 20:00:00","11.723","3.50437","26.101","0.855","7.43","0.557","3.098","0.06","0.11","30.4246","4.77135","9.55","0","SATNPRO1963","21.802","0.30536","5"],
    [1102,"HCEP03730564","2023-10-09 20:15:00","11.7273","3.50519","26.079","0.856","7.43","0.625","3.048","0.12","0.13","30.429","4.77191","9.57","0","SATNPRO1963","21.646","0.30318","5"],
    [1103,"HCEP03730564","2023-10-09 20:30:00","11.7288","3.50548","26.077","0.858","7.43","0.593","3.016","0.1","0.1","30.4306","4.77211","9.58","0","SATNPRO1963","21.436","0.30026","5"],
    [1104,"HCEP03730564","2023-10-09 20:45:00","11.7289","3.50555","26.082","0.858","7.43","0.687","3.06","0.26","0.1","30.4312","4.7722","9.58","0","SATNPRO1963","21.674","0.30356","5"],
    [1105,"HCEP03730564","2023-10-09 21:00:00","11.7285","3.5054","26.087","0.85","7.43","0.586","3.133","0.28","0.15","30.4301","4.77205","9.49","0","SATNPRO1963","21.746","0.30458","5"],
    [1106,"HCEP03730564","2023-10-09 21:15:00","11.7263","3.50505","26.109","0.838","7.43","0.765","3.252","0.58","0.19","30.4284","4.77185","9.36","0","SATNPRO1963","21.918","0.307","5"],
    [1107,"HCEP03730564","2023-10-09 21:30:00","11.725","3.50473","26.137","0.835","7.42","0.724","3.427","0.38","0.32","30.4264","4.77158","9.32","0","SATNPRO1963","21.91","0.30688","5"],
    [1108,"HCEP03730564","2023-10-09 21:45:00","11.7245","3.50472","26.173","0.832","7.42","0.758","3.423","0.17","0.17","30.4268","4.77164","9.29","0","SATNPRO1963","21.886","0.30656","5"],
    [1109,"HCEP03730564","2023-10-09 22:00:00","11.7263","3.50509","26.222","0.823","7.42","0.852","3.789","0.3","0.32","30.4288","4.77191","9.19","0","SATNPRO1963","21.778","0.30504","5"],
    [1110,"HCEP03730564","2023-10-09 22:15:00","11.7324","3.5061","26.267","0.847","7.42","0.845","3.772","0.15","0.14","30.4335","4.77248","9.46","0","SATNPRO1963","21.695999999999998","0.30386","5"],
    [1111,"HCEP03730564","2023-10-09 22:30:00","11.7378","3.50702","26.312","0.908","7.43","0.832","3.956","0.16","0.25","30.4379","4.77304","10.15","0","SATNPRO1963","21.695999999999998","0.30386","5"],
    [1112,"HCEP03730564","2023-10-09 22:45:00","11.7406","3.50747","26.385","0.918","7.43","0.97","4.058","0.39","0.15","30.44","4.77329","10.26","0","SATNPRO1963","21.66","0.3034","5"],
    [1113,"HCEP03730564","2023-10-09 23:00:00","11.743","3.50778","26.466","0.956","7.43","0.985","4.265","0.3","0.15","30.441","4.7734","10.69","0","SATNPRO1963","21.586","0.30236","5"],
    [1114,"HCEP03730564","2023-10-09 23:15:00","11.7476","3.50851","26.5","0.972","7.43","1.016","4.934","0.14","0.15","30.4443","4.7738","10.86","0","SATNPRO1963","22.22","0.31126","5"],
    [1115,"HCEP03730564","2023-10-09 23:30:00","11.7548","3.50977","26.586","1.025","7.43","0.893","4.978","0.1","0.13","30.4504","4.77457","11.45","0","SATNPRO1963","22.902","0.3208","5"],
    [1116,"HCEP03730564","2023-10-09 23:45:00","11.7638","3.51133","26.652","1.067","7.44","0.816","4.777","0.13","0.14","30.458","4.77552","11.93","0","SATNPRO1963","22.919999999999998","0.32106","5"],
    [1117,"HCEP03730564","2023-10-10 00:00:00","11.7684","3.51207","26.673","1.092","7.44","0.735","4.806","0.12","0.16","30.4614","4.77593","12.21","0","SATNPRO1963","23.428","0.3282","5"],
    [1118,"HCEP03730564","2023-10-10 00:15:00","11.7683","3.51198","26.748","1.102","7.44","0.76","4.623","0.3","0.14","30.4606","4.77583","12.32","0","SATNPRO1963","23.374","0.3274","5"],
    [1119,"HCEP03730564","2023-10-10 00:30:00","11.7681","3.51187","26.792","1.099","7.44","0.65","4.576","0.06","0.16","30.4597","4.77571","12.29","0","SATNPRO1963","23.776","0.33304","5"],
    [1120,"HCEP03730564","2023-10-10 00:45:00","11.7636","3.51092","26.818","1.101","7.44","0.713","4.456","0.15","0.25","30.4542","4.77499","12.31","0","SATNPRO1963","24.413999999999998","0.34198","5"],
    [1121,"HCEP03730564","2023-10-10 01:00:00","11.7644","3.51085","26.864","1.119","7.44","0.67","4.321","0.11","0.25","30.4529","4.7748","12.51","0","SATNPRO1963","24.468","0.34274","5"],
    [1122,"HCEP03730564","2023-10-10 01:15:00","11.767","3.51119","26.884","1.124","7.44","0.704","4.431","0.14","0.12","30.454","4.77493","12.57","0","SATNPRO1963","24.292","0.34024","5"],
    [1123,"HCEP03730564","2023-10-10 01:30:00","11.7647","3.51071","26.9","1.13","7.44","0.763","4.293","0.2","0.12","30.4513","4.77458","12.63","0","SATNPRO1963","24.334","0.34084","5"],
    [1124,"HCEP03730564","2023-10-10 01:45:00","11.7752","3.51226","26.9","1.132","7.44","0.691","4.606","0.13","0.15","30.4576","4.77531","12.66","0","SATNPRO1963","24.282","0.34012","5"],
    [1125,"HCEP03730564","2023-10-10 02:00:00","11.7797","3.51273","26.871","1.126","7.44","0.744","4.882","0.16","0.17","30.4584","4.77536","12.59","0","SATNPRO1963","24.266000000000002","0.33988","5"],
    [1126,"HCEP03730564","2023-10-10 02:15:00","11.7788","3.51241","26.831","1.121","7.44","0.824","4.561","0.52","0.1","30.4561","4.77505","12.53","0","SATNPRO1963","24.268","0.33988","5"],
    [1127,"HCEP03730564","2023-10-10 02:30:00","11.7746","3.51158","26.801","1.113","7.44","0.64","4.469","0.08","0.17","30.4516","4.77447","12.44","0","SATNPRO1963","24.5","0.34316","5"],
    [1128,"HCEP03730564","2023-10-10 02:45:00","11.7527","3.50855","26.816","1.109","7.44","0.656","3.717","0.13","0.14","30.4403","4.77318","12.4","0","SATNPRO1963","24.34","0.34092","5"],
    [1129,"HCEP03730564","2023-10-10 03:00:00","11.7578","3.50921","26.723","1.116","7.44","0.641","3.844","0.13","0.14","30.4425","4.77342","12.48","0","SATNPRO1963","24.372","0.34138","5"],
    [1130,"HCEP03730564","2023-10-10 03:15:00","11.752","3.50843","26.674","1.124","7.44","0.623","3.53","0.1","0.29","30.4398","4.77311","12.56","0","SATNPRO1963","24.284","0.34014","5"],
    [1131,"HCEP03730564","2023-10-10 03:30:00","11.752","3.50817","26.634","1.124","7.44","0.625","3.345","0.15","0.16","30.4373","4.77276","12.56","0","SATNPRO1963","24.330000000000002","0.3408","5"],
    [1132,"HCEP03730564","2023-10-10 03:45:00","11.7498","3.508","26.485","1.125","7.44","0.638","3.435","0.13","0.1","30.4375","4.77282","12.58","0","SATNPRO1963","23.912","0.33494","5"],
    [1133,"HCEP03730564","2023-10-10 04:00:00","11.7343","3.50482","26.437","1.127","7.44","0.693","2.801","0.11","0.07","30.4196","4.7705","12.59","0","SATNPRO1963","23.834","0.33388","5"],
    [1134,"HCEP03730564","2023-10-10 04:15:00","11.7496","3.50698","26.321","1.127","7.44","0.717","3.196","0.18","0.15","30.4279","4.77146","12.6","0","SATNPRO1963","24.03","0.33658","5"],
    [1135,"HCEP03730564","2023-10-10 04:30:00","11.7233","3.50326","26.139","1.117","7.44","0.717","2.531","0.15","0.06","30.4137","4.7698","12.48","0","SATNPRO1963","23.964","0.33568","5"],
    [1136,"HCEP03730564","2023-10-10 04:45:00","11.7077","3.50083","26.065","1.106","7.44","0.909","2.34","0.3","0.07","30.403","4.76851","12.35","0","SATNPRO1963","24.018","0.3364","5"],
    [1137,"HCEP03730564","2023-10-10 05:00:00","11.7416","3.5062","26.022","1.098","7.44","0.768","3.217","0.17","0.08","30.4271","4.77144","12.27","0","SATNPRO1963","23.736","0.33246","5"],
    [1138,"HCEP03730564","2023-10-10 05:15:00","11.7344","3.50445","25.919","1.097","7.44","0.894","2.647","0.28","0.06","30.4162","4.76999","12.26","0","SATNPRO1963","23.878","0.33446","5"],
    [1139,"HCEP03730564","2023-10-10 05:30:00","11.7202","3.50273","25.714","1.084","7.44","0.775","2.516","0.15","0.09","30.4113","4.76949","12.1","0","SATNPRO1963","23.58","0.33028","5"],
    [1140,"HCEP03730564","2023-10-10 05:45:00","11.7257","3.50323","25.557","1.091","7.44","0.884","2.516","0.38","0.09","30.4117","4.76946","12.19","0","SATNPRO1963","23.24","0.32552","5"],
    [1141,"HCEP03730564","2023-10-10 06:00:00","11.7109","3.50097","25.49","1.067","7.44","0.89","2.371","0.29","0.05","30.402","4.7683","11.91","0","SATNPRO1963","23.644","0.33122","5"],
    [1142,"HCEP03730564","2023-10-10 06:15:00","11.7167","3.50161","25.367","1.083","7.44","0.895","2.355","0.21","0.06","30.4035","4.76842","12.09","0","SATNPRO1963","23.51","0.32932","5"],
    [1143,"HCEP03730564","2023-10-10 06:30:00","11.7135","3.50123","25.367","1.087","7.44","0.863","2.305","0.27","0.06","30.4024","4.76831","12.14","0","SATNPRO1963","23.318","0.32658","5"],
    [1144,"HCEP03730564","2023-10-10 06:45:00","11.7082","3.50026","25.169","1.094","7.44","0.925","2.252","0.22","0.11","30.3975","4.76768","12.21","0","SATNPRO1963","23.412","0.32792","5"],
    [1145,"HCEP03730564","2023-10-10 07:00:00","11.7077","3.50011","25.084","1.105","7.44","0.883","2.219","0.29","0.04","30.3965","4.76754","12.33","0","SATNPRO1963","22.942","0.32134","5"],
    [1146,"HCEP03730564","2023-10-10 07:15:00","11.7189","3.50241","25.014","1.127","7.44","0.875","2.418","0.22","0.15","30.4095","4.76922","12.59","0","SATNPRO1963","23.216","0.32518","5"],
    [1147,"HCEP03730564","2023-10-10 07:30:00","11.7142","3.50141","24.957","1.133","7.44","0.836","2.252","0.21","0.09","30.4038","4.76847","12.65","0","SATNPRO1963","23.124000000000002","0.32388","5"],
    [1148,"HCEP03730564","2023-10-10 07:45:00","11.7152","3.50141","24.996","1.13","7.44","0.913","2.21","0.26","0.05","30.403","4.76834","12.61","0","SATNPRO1963","23.21","0.32514","5"],
    [1149,"HCEP03730564","2023-10-10 08:00:00","11.7113","3.50054","24.902","1.112","7.44","0.855","2.222","0.16","0.06","30.3978","4.76766","12.42","0","SATNPRO1963","23.08","0.32326","5"],
    [1150,"HCEP03730564","2023-10-10 08:15:00","11.7083","3.4999","24.968","1.06","7.44","1.219","2.251","0.31","0.05","30.394","4.76717","11.84","0","SATNPRO1963","23.584","0.33034","5"],
    [1151,"HCEP03730564","2023-10-10 08:30:00","11.7163","3.50126","24.988","1.077","7.44","1.153","2.342","0.34","0.08","30.4007","4.768","12.02","0","SATNPRO1963","23.516000000000002","0.32936","5"],
    [1152,"HCEP03730564","2023-10-10 08:45:00","11.7042","3.49948","25.002","1.102","7.44","0.875","2.136","0.2","0.08","30.3933","4.76714","12.3","0","SATNPRO1963","23.532","0.32962","5"],
    [1153,"HCEP03730564","2023-10-10 09:00:00","11.7064","3.49932","25.04","1.205","7.44","0.842","2.125","0.19","0.06","30.39","4.76663","13.45","0","SATNPRO1963","23.2","0.32494","5"],
    [1154,"HCEP03730564","2023-10-10 09:15:00","11.7382","3.50487","25.144","1.129","7.44","1.025","3.78","0.17","0.3","30.4174","4.77006","12.62","0","SATNPRO1963","22.676","0.31764","5"],
    [1155,"HCEP03730564","2023-10-10 09:30:00","11.7418","3.50599","25.264","1.079","7.44","1.019","3.783","0.21","0.29","30.4252","4.77113","12.05","0","SATNPRO1963","23.036","0.32262","5"],
    [1156,"HCEP03730564","2023-10-10 09:45:00","11.738","3.50516","25.35","1.068","7.44","1.082","3.872","0.23","0.16","30.4203","4.77049","11.93","0","SATNPRO1963","23.072","0.32314","5"],
    [1157,"HCEP03730564","2023-10-10 10:00:00","11.7399","3.50528","25.455","1.052","7.43","1.025","3.761","0.16","0.14","30.4198","4.77039","11.75","0","SATNPRO1963","24.198","0.33894","5"],
    [1158,"HCEP03730564","2023-10-10 10:15:00","11.7377","3.50494","25.624","1.111","7.44","1.002","3.249","0.39","0.13","30.4183","4.77023","12.41","0","SATNPRO1963","23.44","0.32832","5"],
    [1159,"HCEP03730564","2023-10-10 10:30:00","11.7437","3.50653","25.796","1.039","7.43","0.991","4.137","0.17","0.15","30.4287","4.77161","11.61","0","SATNPRO1963","23.212","0.3251","5"],
    [1160,"HCEP03730564","2023-10-10 10:45:00","11.7482","3.50731","25.95","1.007","7.43","1.04","4.207","0.24","0.14","30.4324","4.77208","11.25","0","SATNPRO1963","22.96","0.32164","5"],
    [1161,"HCEP03730564","2023-10-10 11:00:00","11.7468","3.50697","26.114","0.985","7.43","1.016","4.264","0.29","0.15","30.4302","4.7718","11.01","0","SATNPRO1963","23.302","0.32638","5"],
    [1162,"HCEP03730564","2023-10-10 11:15:00","11.7453","3.50656","26.227","0.988","7.43","0.954","4.049","0.11","0.22","30.4275","4.77144","11.04","0","SATNPRO1963","24.144","0.3382","5"],
    [1163,"HCEP03730564","2023-10-10 11:30:00","11.7394","3.50566","26.417","1.019","7.43","0.975","3.715","0.23","0.2","30.4235","4.77098","11.38","0","SATNPRO1963","23.138","0.32406","5"],
    [1164,"HCEP03730564","2023-10-10 11:45:00","11.739","3.50578","26.586","1.017","7.43","0.949","3.955","0.13","0.13","30.4249","4.77119","11.37","0","SATNPRO1963","23.074","0.32316","5"],
    [1165,"HCEP03730564","2023-10-10 12:00:00","11.7387","3.50597","26.733","1.017","7.43","0.89","4.12","0.11","0.16","30.427","4.7715","11.36","0","SATNPRO1963","22.878","0.32046","5"],
    [1166,"HCEP03730564","2023-10-10 12:15:00","11.7347","3.50552","26.937","0.998","7.43","0.798","3.897","0.11","0.25","30.4259","4.77141","11.15","0","SATNPRO1963","22.882","0.3205","5"],
    [1167,"HCEP03730564","2023-10-10 12:30:00","11.731","3.50494","27.06","0.976","7.43","0.814","3.905","0.14","0.18","30.4232","4.77108","10.91","0","SATNPRO1963","23.238","0.32546","5"],
    [1168,"HCEP03730564","2023-10-10 12:45:00","11.7213","3.50329","27.193","0.97","7.43","0.789","3.611","0.12","0.14","30.4152","4.7701","10.83","0","SATNPRO1963","23.122","0.32388","5"],
    [1169,"HCEP03730564","2023-10-10 13:00:00","11.7214","3.50333","27.325","0.948","7.43","0.791","3.954","0.08","0.12","30.4155","4.77015","10.59","0","SATNPRO1963","23.148","0.32422","5"],
    [1170,"HCEP03730564","2023-10-10 13:15:00","11.7204","3.50331","27.514","0.929","7.42","0.753","3.525","0.09","0.2","30.416","4.77025","10.37","0","SATNPRO1963","22.832","0.3198","5"],
    [1171,"HCEP03730564","2023-10-10 13:30:00","11.7185","3.50286","27.666","0.898","7.42","0.787","3.764","0.1","0.22","30.4132","4.76988","10.03","0","SATNPRO1963","22.756","0.31876","5"],
    [1172,"HCEP03730564","2023-10-10 13:45:00","11.7151","3.5018","27.663","0.868","7.42","0.863","3.574","0.14","0.51","30.4058","4.76889","9.69","0","SATNPRO1963","22.456","0.31458","5"],
    [1173,"HCEP03730564","2023-10-10 14:00:00","11.7096","3.50099","27.748","0.832","7.42","0.968","3.401","0.21","0.12","30.4024","4.76849","9.29","0","SATNPRO1963","22.398","0.31374","5"],
    [1174,"HCEP03730564","2023-10-10 14:15:00","11.7039","3.49967","27.757","0.8","7.41","0.99","3.273","0.17","0.14","30.3943","4.76744","8.93","0","SATNPRO1963","22.374","0.31338","5"],
    [1175,"HCEP03730564","2023-10-10 14:30:00","11.6996","3.49864","27.777","0.776","7.41","1.053","3.311","0.23","0.15","30.3879","4.76658","8.67","0","SATNPRO1963","21.962","0.30764","5"],
    [1176,"HCEP03730564","2023-10-10 14:45:00","11.6968","3.49786","27.827","0.769","7.41","1.039","3.135","0.13","0.15","30.3827","4.7659","8.58","0","SATNPRO1963","21.886","0.30656","5"],
    [1177,"HCEP03730564","2023-10-10 15:00:00","11.6964","3.49775","27.791","0.761","7.41","1.073","3.196","0.18","0.18","30.382","4.7658","8.49","0","SATNPRO1963","21.326","0.2987","5"],
    [1178,"HCEP03730564","2023-10-10 15:15:00","11.6963","3.49765","27.823","0.76","7.41","1.17","3.016","0.29","0.13","30.381","4.76567","8.48","0","SATNPRO1963","20.748","0.29064","5"],
    [1179,"HCEP03730564","2023-10-10 15:30:00","11.6977","3.49777","27.809","0.766","7.41","1.127","3.061","0.47","0.13","30.381","4.76565","8.55","0","SATNPRO1963","20.682000000000002","0.28968","5"],
    [1180,"HCEP03730564","2023-10-10 15:45:00","11.6991","3.49794","27.744","0.774","7.41","1.05","3.048","0.26","0.09","30.3816","4.76571","8.64","0","SATNPRO1963","20.536","0.28766","5"],
    [1181,"HCEP03730564","2023-10-10 16:00:00","11.699","3.49735","27.804","0.789","7.41","0.98","2.76","0.27","0.05","30.3759","4.76491","8.8","0","SATNPRO1963","20.582","0.28828","5"],
    [1182,"HCEP03730564","2023-10-10 16:15:00","11.6951","3.49695","27.709","0.789","7.41","0.991","2.81","0.2","0.08","30.3753","4.76487","8.81","0","SATNPRO1963","20.296","0.28428","5"],
    [1183,"HCEP03730564","2023-10-10 16:30:00","11.6963","3.49608","27.677","0.792","7.41","0.985","2.857","0.15","0.08","30.366","4.76354","8.84","0","SATNPRO1963","20.442","0.28632","5"],
    [1184,"HCEP03730564","2023-10-10 16:45:00","11.692","3.49508","27.493","0.786","7.41","1.097","2.793","0.25","0.06","30.3599","4.76272","8.77","0","SATNPRO1963","20.634","0.289","5"],
    [1185,"HCEP03730564","2023-10-10 17:00:00","11.6848","3.49342","27.356","0.755","7.41","1.059","2.708","0.14","0.11","30.3498","4.7614","8.42","0","SATNPRO1963","20.75","0.29064","5"],
    [1186,"HCEP03730564","2023-10-10 17:15:00","11.689","3.49432","27.31","0.76","7.41","1.033","2.754","0.11","0.08","30.3551","4.76208","8.48","0","SATNPRO1963","20.874","0.29244","5"],
    [1187,"HCEP03730564","2023-10-10 17:30:00","11.6874","3.49366","27.339","0.763","7.41","1.121","2.798","0.38","0.19","30.3501","4.76139","8.51","0","SATNPRO1963","20.516000000000002","0.28738","5"],
    [1188,"HCEP03730564","2023-10-10 17:45:00","11.6915","3.49433","27.19","0.787","7.41","1.046","2.748","0.33","0.05","30.3532","4.76177","8.78","0","SATNPRO1963","20.506","0.28722","5"],
    [1189,"HCEP03730564","2023-10-10 18:00:00","11.691","3.49415","27.062","0.788","7.41","1.002","2.741","0.1","0.06","30.3519","4.76158","8.8","0","SATNPRO1963","19.992","0.28","5"],
    [1190,"HCEP03730564","2023-10-10 18:15:00","11.69","3.49413","26.888","0.782","7.41","0.985","2.663","0.14","0.09","30.3526","4.76169","8.72","0","SATNPRO1963","20.126","0.28192","5"],
    [1191,"HCEP03730564","2023-10-10 18:30:00","11.69","3.49438","26.8","0.778","7.41","0.948","2.644","0.16","0.09","30.355","4.76203","8.68","0","SATNPRO1963","20.192","0.28284","5"],
    [1192,"HCEP03730564","2023-10-10 18:45:00","11.6898","3.49428","26.663","0.775","7.41","0.994","2.574","0.28","0.07","30.3543","4.76191","8.64","0","SATNPRO1963","20.218","0.28318","5"],
    [1193,"HCEP03730564","2023-10-10 19:00:00","11.6904","3.49449","26.545","0.774","7.41","0.829","2.58","0.14","0.14","30.3559","4.76213","8.64","0","SATNPRO1963","20.524","0.28748","5"],
    [1194,"HCEP03730564","2023-10-10 19:15:00","11.6896","3.49418","26.379","0.776","7.41","0.909","2.536","0.16","0.12","30.3536","4.76181","8.66","0","SATNPRO1963","20.44","0.2863","5"],
    [1195,"HCEP03730564","2023-10-10 19:30:00","11.6863","3.49313","26.272","0.762","7.41","0.874","2.535","0.18","0.12","30.3463","4.76081","8.5","0","SATNPRO1963","20.426","0.28612","5"],
    [1196,"HCEP03730564","2023-10-10 19:45:00","11.6851","3.49323","26.191","0.752","7.41","1.026","2.473","0.19","0.13","30.3483","4.76111","8.38","0","SATNPRO1963","20.274","0.284","5"],
    [1197,"HCEP03730564","2023-10-10 20:00:00","11.6792","3.49254","26.086","0.715","7.41","0.985","2.466","0.21","0.07","30.3464","4.76092","7.98","0","SATNPRO1963","20.428","0.28612","5"],
    [1198,"HCEP03730564","2023-10-10 20:15:00","11.6818","3.4925","25.952","0.727","7.41","1.17","2.537","0.39","0.09","30.3439","4.76053","8.11","0","SATNPRO1963","20.316","0.28454","5"],
    [1199,"HCEP03730564","2023-10-10 20:30:00","11.6869","3.49305","25.924","0.76","7.41","0.923","2.601","0.14","0.08","30.3452","4.76063","8.47","0","SATNPRO1963","20.388","0.2856","5"],
    [1200,"HCEP03730564","2023-10-10 20:45:00","11.6931","3.49377","25.862","0.807","7.41","0.902","2.639","0.1","0.19","30.3471","4.7608","9","0","SATNPRO1963","20.362000000000002","0.2852","5"],
    [1201,"HCEP03730564","2023-10-10 21:00:00","11.7215","3.49694","25.91","0.904","7.41","0.967","3.119","0.23","0.11","30.3544","4.76144","10.09","0","SATNPRO1963","19.736","0.27642","5"],
    [1202,"HCEP03730564","2023-10-10 21:15:00","11.7432","3.49918","25.892","0.979","7.42","0.945","3.784","0.11","0.13","30.3582","4.76166","10.94","0","SATNPRO1963","19.722","0.27624","5"],
    [1203,"HCEP03730564","2023-10-10 21:30:00","11.7436","3.49955","25.952","1.016","7.42","0.94","4.024","0.1","0.12","30.3614","4.76212","11.35","0","SATNPRO1963","20.022","0.28046","5"],
    [1204,"HCEP03730564","2023-10-10 21:45:00","11.7447","3.50002","25.958","1.028","7.43","0.965","4.035","0.14","0.11","30.3651","4.76262","11.48","0","SATNPRO1963","20.51","0.28728","5"],
    [1205,"HCEP03730564","2023-10-10 22:00:00","11.7432","3.50005","25.964","1.028","7.43","0.937","4.282","0.08","0.13","30.3666","4.76285","11.49","0","SATNPRO1963","21.642","0.3031","5"],
    [1206,"HCEP03730564","2023-10-10 22:15:00","11.7485","3.50097","26.095","1.072","7.43","0.952","4.435","0.08","0.15","30.3711","4.76343","11.98","0","SATNPRO1963","22.528","0.31554","5"],
    [1207,"HCEP03730564","2023-10-10 22:30:00","11.7767","3.50586","26.206","1.184","7.43","1.048","5.486","0.17","0.15","30.3951","4.76642","13.24","0","SATNPRO1963","22.224","0.31128","5"],
    [1208,"HCEP03730564","2023-10-10 22:45:00","11.7757","3.50635","26.234","1.181","7.44","0.992","5.398","0.1","0.18","30.4005","4.7672","13.2","0","SATNPRO1963","22.66","0.31738","5"],
    [1209,"HCEP03730564","2023-10-10 23:00:00","11.7733","3.50663","26.22","1.137","7.44","0.95","5.32","0.08","0.14","30.4052","4.7679","12.71","0","SATNPRO1963","22.558","0.31602","5"],
    [1210,"HCEP03730564","2023-10-10 23:15:00","11.7737","3.50688","26.255","1.183","7.44","0.905","4.709","0.11","0.23","30.4072","4.76818","13.22","0","SATNPRO1963","23.364","0.32722","5"],
    [1211,"HCEP03730564","2023-10-10 23:30:00","11.7728","3.50738","26.427","1.153","7.44","0.888","4.444","0.11","0.1","30.4127","4.76898","12.89","0","SATNPRO1963","24.152","0.33828","5"],
    [1212,"HCEP03730564","2023-10-10 23:45:00","11.7637","3.50755","26.462","1.07","7.43","0.835","4.415","0.08","0.18","30.4218","4.77039","11.96","0","SATNPRO1963","23.874","0.3344","5"],
    [1213,"HCEP03730564","2023-10-11 00:00:00","11.7618","3.50825","26.612","1.025","7.43","0.728","4.341","0.07","0.15","30.43","4.77159","11.45","0","SATNPRO1963","23.824","0.3337","5"],
    [1214,"HCEP03730564","2023-10-11 00:15:00","11.7583","3.50822","26.529","1.014","7.43","0.727","4.288","0.07","0.15","30.4327","4.77201","11.34","0","SATNPRO1963","24.094","0.33746","5"],
    [1215,"HCEP03730564","2023-10-11 00:30:00","11.757","3.50808","26.65","1.007","7.42","0.71","4.158","0.16","0.21","30.4323","4.77199","11.25","0","SATNPRO1963","23.984","0.33594","5"],
    [1216,"HCEP03730564","2023-10-11 00:45:00","11.7546","3.50775","26.751","0.999","7.42","0.695","3.944","0.14","0.13","30.431","4.77184","11.17","0","SATNPRO1963","23.678","0.33166","5"],
    [1217,"HCEP03730564","2023-10-11 01:00:00","11.7512","3.50722","26.726","0.993","7.42","0.647","3.87","0.07","0.12","30.4287","4.77157","11.1","0","SATNPRO1963","23.514","0.32938","5"],
    [1218,"HCEP03730564","2023-10-11 01:15:00","11.753","3.50757","26.866","0.994","7.42","0.65","3.785","0.05","0.11","30.4306","4.77181","11.11","0","SATNPRO1963","23.404","0.32782","5"],
    [1219,"HCEP03730564","2023-10-11 01:30:00","11.7534","3.50755","26.971","0.997","7.42","0.606","3.716","0.06","0.11","30.4301","4.77174","11.14","0","SATNPRO1963","23.498","0.32914","5"],
    [1220,"HCEP03730564","2023-10-11 01:45:00","11.7541","3.50767","26.96","1.001","7.42","0.695","3.577","0.18","0.1","30.4306","4.77181","11.18","0","SATNPRO1963","23.506","0.32924","5"],
    [1221,"HCEP03730564","2023-10-11 02:00:00","11.7547","3.50765","27.02","1.009","7.42","0.598","3.51","0.1","0.11","30.43","4.77171","11.27","0","SATNPRO1963","23.156","0.32436","5"],
    [1222,"HCEP03730564","2023-10-11 02:15:00","11.7518","3.50721","27.053","1.009","7.42","0.609","3.337","0.05","0.08","30.428","4.77147","11.28","0","SATNPRO1963","23.256","0.32572","5"],
    [1223,"HCEP03730564","2023-10-11 02:30:00","11.7494","3.50678","27.108","1.009","7.42","0.603","3.292","0.07","0.24","30.4258","4.7712","11.27","0","SATNPRO1963","23.374","0.32738","5"],
    [1224,"HCEP03730564","2023-10-11 02:45:00","11.7556","3.50737","27.082","1.052","7.43","0.682","3.429","0.16","0.14","30.4265","4.77121","11.76","0","SATNPRO1963","23.122","0.32384","5"],
    [1225,"HCEP03730564","2023-10-11 03:00:00","11.7395","3.50475","27.026","0.99","7.43","0.605","3.12","0.09","0.09","30.4144","4.76972","11.06","0","SATNPRO1963","23.432","0.32826","5"],
    [1226,"HCEP03730564","2023-10-11 03:15:00","11.7468","3.50615","27.025","1.007","7.43","0.597","3.211","0.08","0.1","30.422","4.77069","11.25","0","SATNPRO1963","23.272","0.32598","5"],
    [1227,"HCEP03730564","2023-10-11 03:30:00","11.7451","3.50584","26.942","1.018","7.43","0.589","3.241","0.05","0.08","30.4203","4.77048","11.37","0","SATNPRO1963","23.364","0.32726","5"],
    [1228,"HCEP03730564","2023-10-11 03:45:00","11.7496","3.50663","26.946","1.041","7.43","0.655","3.295","0.07","0.09","30.4243","4.77098","11.63","0","SATNPRO1963","23.696","0.3319","5"],
    [1229,"HCEP03730564","2023-10-11 04:00:00","11.7469","3.50607","26.838","1.035","7.43","0.632","3.391","0.1","0.1","30.4211","4.77056","11.56","0","SATNPRO1963","23.262","0.32584","5"],
    [1230,"HCEP03730564","2023-10-11 04:15:00","11.7479","3.50651","26.817","1.034","7.43","0.635","3.496","0.06","0.09","30.4246","4.77104","11.55","0","SATNPRO1963","23.568","0.33012","5"],
    [1231,"HCEP03730564","2023-10-11 04:30:00","11.7477","3.50666","26.742","1.023","7.43","0.616","3.561","0.1","0.07","30.4262","4.77127","11.43","0","SATNPRO1963","23.354","0.3271","5"],
    [1232,"HCEP03730564","2023-10-11 04:45:00","11.7491","3.507","26.645","1.02","7.43","0.647","3.765","0.08","0.12","30.4284","4.77154","11.39","0","SATNPRO1963","23.576","0.33022","5"],
    [1233,"HCEP03730564","2023-10-11 05:00:00","11.7494","3.50723","26.498","1.024","7.43","0.621","3.803","0.14","0.12","30.4304","4.77181","11.44","0","SATNPRO1963","23.498","0.32914","5"],
    [1234,"HCEP03730564","2023-10-11 05:15:00","11.7504","3.50741","26.411","1.031","7.43","0.631","3.82","0.09","0.11","30.4314","4.77193","11.52","0","SATNPRO1963","23.566","0.33008","5"],
    [1235,"HCEP03730564","2023-10-11 05:30:00","11.7507","3.50753","26.283","1.038","7.43","0.571","3.805","0.04","0.1","30.4323","4.77206","11.6","0","SATNPRO1963","23.634","0.33102","5"],
    [1236,"HCEP03730564","2023-10-11 05:45:00","11.7513","3.50759","26.205","1.036","7.43","0.583","3.776","0.05","0.11","30.4325","4.77207","11.58","0","SATNPRO1963","23.612","0.33076","5"],
    [1237,"HCEP03730564","2023-10-11 06:00:00","11.7507","3.50753","26.041","1.034","7.43","0.549","3.732","0.06","0.15","30.4324","4.77206","11.56","0","SATNPRO1963","23.506","0.32926","5"],
    [1238,"HCEP03730564","2023-10-11 06:15:00","11.7498","3.50732","25.938","1.023","7.43","0.587","3.669","0.07","0.09","30.4311","4.77188","11.43","0","SATNPRO1963","23.588","0.33042","5"],
    [1239,"HCEP03730564","2023-10-11 06:30:00","11.749","3.50703","25.812","1.023","7.43","0.554","3.512","0.04","0.11","30.4291","4.7716","11.43","0","SATNPRO1963","23.726","0.33232","5"],
    [1240,"HCEP03730564","2023-10-11 06:45:00","11.7488","3.50668","25.678","1.015","7.43","0.61","3.573","0.05","0.1","30.4259","4.77115","11.34","0","SATNPRO1963","23.82","0.33364","5"],
    [1241,"HCEP03730564","2023-10-11 07:00:00","11.7484","3.50656","25.519","1.017","7.43","0.644","3.439","0.14","0.14","30.4252","4.77104","11.36","0","SATNPRO1963","23.736","0.33246","5"],
    [1242,"HCEP03730564","2023-10-11 07:15:00","11.7472","3.50625","25.416","1.006","7.43","0.616","3.514","0.04","0.16","30.4232","4.77077","11.25","0","SATNPRO1963","23.726","0.33234","5"],
    [1243,"HCEP03730564","2023-10-11 07:30:00","11.7455","3.50593","25.309","0.995","7.42","0.69","3.51","0.26","0.21","30.4216","4.77057","11.11","0","SATNPRO1963","23.674","0.3316","5"],
    [1244,"HCEP03730564","2023-10-11 07:45:00","11.748","3.50586","25.173","0.983","7.42","0.639","3.41","0.06","0.07","30.4189","4.77014","10.98","0","SATNPRO1963","23.605999999999998","0.33062","5"],
    [1245,"HCEP03730564","2023-10-11 08:00:00","11.7538","3.50612","25.096","1.004","7.42","0.639","3.421","0.07","0.08","30.4167","4.76973","11.22","0","SATNPRO1963","23.528","0.32956","5"],
    [1246,"HCEP03730564","2023-10-11 08:15:00","11.7547","3.50574","25.066","1.001","7.42","0.718","3.565","0.08","0.07","30.4123","4.7691","11.18","0","SATNPRO1963","23.396","0.32772","5"],
    [1247,"HCEP03730564","2023-10-11 08:30:00","11.7586","3.50554","25.018","1.018","7.43","0.705","3.788","0.08","0.07","30.4072","4.76833","11.37","0","SATNPRO1963","23.178","0.32464","5"],
    [1248,"HCEP03730564","2023-10-11 08:45:00","11.7637","3.50548","25.035","1.025","7.43","0.785","3.899","0.1","0.07","30.4024","4.76758","11.46","0","SATNPRO1963","23.124","0.3239","5"],
    [1249,"HCEP03730564","2023-10-11 09:00:00","11.7645","3.50546","25.06","1.024","7.43","0.845","4.386","0.22","0.66","30.4016","4.76745","11.44","0","SATNPRO1963","23.32","0.32662","5"],
    [1250,"HCEP03730564","2023-10-11 09:15:00","11.7645","3.50473","25.107","1.053","7.43","0.817","3.813","0.12","0.1","30.3945","4.76645","11.76","0","SATNPRO1963","23.326","0.32668","5"],
    [1251,"HCEP03730564","2023-10-11 09:30:00","11.7641","3.50435","25.164","1.052","7.43","0.803","4.252","0.07","0.16","30.3912","4.76599","11.76","0","SATNPRO1963","23.274","0.326","5"],
    [1252,"HCEP03730564","2023-10-11 09:45:00","11.764","3.50405","25.2","1.053","7.43","0.839","3.965","0.09","0.09","30.3884","4.76559","11.77","0","SATNPRO1963","23.288","0.32622","5"],
    [1253,"HCEP03730564","2023-10-11 10:00:00","11.7615","3.50312","25.336","1.056","7.43","0.825","4.066","0.11","0.26","30.3814","4.76466","11.8","0","SATNPRO1963","23.150000000000002","0.32428","5"],
    [1254,"HCEP03730564","2023-10-11 10:15:00","11.7598","3.50281","25.433","1.051","7.43","0.836","3.866","0.07","0.1","30.3798","4.76445","11.75","0","SATNPRO1963","23.252","0.32568","5"],
    [1255,"HCEP03730564","2023-10-11 10:30:00","11.7522","3.50071","25.531","1.042","7.43","0.823","3.474","0.09","0.14","30.3657","4.76258","11.64","0","SATNPRO1963","23.364","0.32728","5"],
    [1256,"HCEP03730564","2023-10-11 10:45:00","11.7443","3.4968","25.594","1.011","7.43","0.883","3.232","0.09","0.1","30.3346","4.75829","11.3","0","SATNPRO1963","23.392","0.32766","5"],
    [1257,"HCEP03730564","2023-10-11 11:00:00","11.7445","3.4989","25.791","0.985","7.42","0.903","3.493","0.21","0.09","30.3544","4.76111","11","0","SATNPRO1963","23.416","0.32798","5"],
    [1258,"HCEP03730564","2023-10-11 11:15:00","11.7461","3.50097","25.914","0.965","7.42","0.864","3.521","0.12","0.11","30.3731","4.76373","10.78","0","SATNPRO1963","22.998","0.32212","5"],
    [1259,"HCEP03730564","2023-10-11 11:30:00","11.744","3.50097","26.082","0.95","7.42","0.728","3.371","0.07","0.1","30.3748","4.76401","10.61","0","SATNPRO1963","22.998","0.32214","5"],
    [1260,"HCEP03730564","2023-10-11 11:45:00","11.7429","3.50179","26.273","0.913","7.42","0.697","3.343","0.05","0.16","30.3835","4.76526","10.2","0","SATNPRO1963","21.868","0.3063","5"],
    [1261,"HCEP03730564","2023-10-11 12:00:00","11.7418","3.50214","26.432","0.877","7.41","0.655","3.343","0.08","0.11","30.3876","4.76588","9.79","0","SATNPRO1963","22.2","0.31096","5"],
    [1262,"HCEP03730564","2023-10-11 12:15:00","11.7391","3.5021","26.562","0.846","7.41","0.651","3.19","0.06","0.09","30.3894","4.76618","9.45","0","SATNPRO1963","22.27","0.31196","5"],
    [1263,"HCEP03730564","2023-10-11 12:30:00","11.7378","3.50162","26.761","0.847","7.41","0.639","3.077","0.07","0.11","30.3858","4.76569","9.46","0","SATNPRO1963","22.34","0.31288","5"],
    [1264,"HCEP03730564","2023-10-11 12:45:00","11.7336","3.50125","26.957","0.817","7.41","0.693","2.958","0.13","0.1","30.3856","4.76573","9.13","0","SATNPRO1963","22.394000000000002","0.31366","5"],
    [1265,"HCEP03730564","2023-10-11 13:00:00","11.7318","3.50109","27.079","0.806","7.41","0.646","2.997","0.1","0.11","30.3855","4.76575","9","0","SATNPRO1963","22.087999999999997","0.30942","5"],
    [1266,"HCEP03730564","2023-10-11 13:15:00","11.7298","3.50085","27.217","0.801","7.41","0.636","2.816","0.06","0.09","30.3848","4.76569","8.94","0","SATNPRO1963","21.896","0.3067","5"],
    [1267,"HCEP03730564","2023-10-11 13:30:00","11.7297","3.50042","27.4","0.806","7.41","0.653","2.811","0.14","0.08","30.3806","4.76511","9","0","SATNPRO1963","21.904","0.3068","5"],
    [1268,"HCEP03730564","2023-10-11 13:45:00","11.7276","3.50084","27.53","0.788","7.41","0.67","2.818","0.11","0.11","30.3863","4.76596","8.8","0","SATNPRO1963","21.672","0.30358","5"],
    [1269,"HCEP03730564","2023-10-11 14:00:00","11.7283","3.5009","27.672","0.789","7.4","0.671","2.753","0.46","0.12","30.3862","4.76594","8.81","0","SATNPRO1963","21.678","0.30364","5"],
    [1270,"HCEP03730564","2023-10-11 14:15:00","11.7377","3.50145","27.75","0.858","7.41","0.635","2.687","0.1","0.16","30.3838","4.76547","9.58","0","SATNPRO1963","21.242","0.2975","5"],
    [1271,"HCEP03730564","2023-10-11 14:30:00","11.7333","3.50294","27.843","0.795","7.41","0.621","3.003","0.12","0.17","30.4017","4.76807","8.87","0","SATNPRO1963","21.445999999999998","0.30038","5"],
    [1272,"HCEP03730564","2023-10-11 14:45:00","11.7343","3.50314","27.863","0.778","7.4","0.668","3.064","0.21","0.26","30.4029","4.76821","8.69","0","SATNPRO1963","21.386","0.29956","5"],
    [1273,"HCEP03730564","2023-10-11 15:00:00","11.735900000000001","3.50364","27.892","0.793","7.4","0.658","3.146","0.21","0.17","30.4064","4.76869","8.86","0","SATNPRO1963","21.296","0.29832","5"],
    [1274,"HCEP03730564","2023-10-11 15:15:00","11.7355","3.50374","27.902","0.797","7.4","0.676","3.29","0.11","0.32","30.4076","4.76887","8.9","0","SATNPRO1963","22.226","0.31132","5"],
    [1275,"HCEP03730564","2023-10-11 15:30:00","11.7367","3.50352","27.89","0.813","7.41","0.627","3.076","0.12","0.15","30.4046","4.76842","9.08","0","SATNPRO1963","21.558","0.30194","5"],
    [1276,"HCEP03730564","2023-10-11 15:45:00","11.7364","3.50356","27.855","0.83","7.41","0.606","2.875","0.06","0.14","30.4052","4.76851","9.27","0","SATNPRO1963","21.756","0.30474","5"],
    [1277,"HCEP03730564","2023-10-11 16:00:00","11.7416","3.50409","27.816","0.844","7.41","0.653","3.296","0.12","0.29","30.4061","4.76856","9.43","0","SATNPRO1963","21.858","0.30622","5"],
    [1278,"HCEP03730564","2023-10-11 16:15:00","11.7439","3.50477","27.763","0.867","7.41","0.714","3.324","0.14","0.15","30.4108","4.76919","9.68","0","SATNPRO1963","21.748","0.30462","5"],
    [1279,"HCEP03730564","2023-10-11 16:30:00","11.7494","3.50558","27.647","0.886","7.41","0.695","3.71","0.09","0.22","30.4141","4.76957","9.9","0","SATNPRO1963","22.124000000000002","0.30988","5"],
    [1280,"HCEP03730564","2023-10-11 16:45:00","11.7544","3.50603","27.513","0.915","7.41","0.798","3.633","0.18","0.25","30.4144","4.76954","10.22","0","SATNPRO1963","22.078","0.30926","5"],
    [1281,"HCEP03730564","2023-10-11 17:00:00","11.7547","3.50631","27.433","0.914","7.42","0.848","4.059","0.23","0.34","30.4169","4.76988","10.21","0","SATNPRO1963","22.148","0.31022","5"],
    [1282,"HCEP03730564","2023-10-11 17:15:00","11.7561","3.50663","27.329","0.919","7.42","0.929","4.192","0.21","0.15","30.4188","4.77013","10.28","0","SATNPRO1963","22.632","0.31702","5"],
    [1283,"HCEP03730564","2023-10-11 17:30:00","11.7549","3.5066","27.203","0.913","7.42","0.901","4.045","0.24","0.47","30.4196","4.77025","10.2","0","SATNPRO1963","22.91","0.32086","5"],
    [1284,"HCEP03730564","2023-10-11 17:45:00","11.7546","3.50627","27.097","0.915","7.42","0.926","3.95","0.16","0.3","30.4167","4.76984","10.23","0","SATNPRO1963","22.952","0.32146","5"],
    [1285,"HCEP03730564","2023-10-11 18:00:00","11.7544","3.50595","27.011","0.92","7.42","0.98","4.122","0.33","0.45","30.4139","4.76944","10.28","0","SATNPRO1963","22.868","0.32036","5"],
    [1286,"HCEP03730564","2023-10-11 18:15:00","11.7567","3.50623","26.894","0.929","7.42","1.026","4.005","0.16","0.32","30.4147","4.76951","10.38","0","SATNPRO1963","23.026","0.32256","5"],
    [1287,"HCEP03730564","2023-10-11 18:30:00","11.763","3.50663","26.777","0.946","7.42","1.137","4.203","0.33","0.44","30.4134","4.76924","10.58","0","SATNPRO1963","22.976","0.32182","5"],
    [1288,"HCEP03730564","2023-10-11 18:45:00","11.7671","3.50696","26.638","0.953","7.42","1.118","4.512","0.25","0.53","30.4133","4.76916","10.66","0","SATNPRO1963","22.894000000000002","0.32066","5"],
    [1289,"HCEP03730564","2023-10-11 19:00:00","11.774","3.50755","26.5","0.977","7.42","0.995","4.444","0.25","0.29","30.4134","4.76907","10.92","0","SATNPRO1963","23.148","0.32424","5"],
    [1290,"HCEP03730564","2023-10-11 19:15:00","11.7758","3.50785","26.341","0.984","7.42","1.114","4.402","0.34","0.38","30.4148","4.76923","11","0","SATNPRO1963","23.06","0.323","5"],
    [1291,"HCEP03730564","2023-10-11 19:30:00","11.7737","3.50799","26.191","0.977","7.42","1.126","4.271","0.5","0.64","30.418","4.7697","10.92","0","SATNPRO1963","23.11","0.32372","5"],
    [1292,"HCEP03730564","2023-10-11 19:45:00","11.7714","3.50792","26.052","0.959","7.42","0.857","4.141","0.16","0.48","30.4192","4.7699","10.73","0","SATNPRO1963","23.222","0.32526","5"],
    [1293,"HCEP03730564","2023-10-11 20:00:00","11.7681","3.50834","25.924","0.951","7.42","0.975","3.823","0.52","0.25","30.4261","4.77091","10.63","0","SATNPRO1963","23.554","0.32994","5"],
    [1294,"HCEP03730564","2023-10-11 20:15:00","11.7706","3.5093","25.784","0.957","7.42","0.745","3.579","0.16","0.26","30.4333","4.77189","10.7","0","SATNPRO1963","23.394000000000002","0.32768","5"],
    [1295,"HCEP03730564","2023-10-11 20:30:00","11.7701","3.50983","25.672","0.957","7.42","0.761","3.533","0.22","0.15","30.4388","4.77267","10.7","0","SATNPRO1963","23.41","0.32784","5"],
    [1296,"HCEP03730564","2023-10-11 20:45:00","11.7708","3.51002","25.585","0.974","7.42","1.051","3.539","0.75","0.46","30.4401","4.77284","10.89","0","SATNPRO1963","23.36","0.32716","5"],
    [1297,"HCEP03730564","2023-10-11 21:00:00","11.7709","3.51021","25.534","0.972","7.42","0.695","3.46","0.17","0.32","30.4419","4.77308","10.86","0","SATNPRO1963","23.696","0.33192","5"],
    [1298,"HCEP03730564","2023-10-11 21:15:00","11.7703","3.51013","25.504","0.963","7.42","0.653","3.306","0.14","0.2","30.4416","4.77304","10.77","0","SATNPRO1963","23.648","0.33124","5"],
    [1299,"HCEP03730564","2023-10-11 21:30:00","11.7713","3.50996","25.502","0.976","7.42","1.07","3.336","0.89","0.33","30.4391","4.77268","10.91","0","SATNPRO1963","23.736","0.33244","5"],
    [1300,"HCEP03730564","2023-10-11 21:45:00","11.773","3.51013","25.519","0.97","7.42","0.863","3.215","0.76","0.1","30.4394","4.7727","10.84","0","SATNPRO1963","23.965999999999998","0.33566","5"],
    [1301,"HCEP03730564","2023-10-11 22:00:00","11.7731","3.51","25.543","0.983","7.42","0.582","3.223","0.08","0.13","30.4381","4.77252","10.99","0","SATNPRO1963","23.77","0.3329","5"],
    [1302,"HCEP03730564","2023-10-11 22:15:00","11.7748","3.51007","25.574","1.022","7.43","0.865","3.341","0.3","0.28","30.4373","4.77238","11.43","0","SATNPRO1963","23.990000000000002","0.33604","5"],
    [1303,"HCEP03730564","2023-10-11 22:30:00","11.7782","3.51028","25.627","1.126","7.43","0.699","2.777","0.17","0.14","30.4366","4.77224","12.59","0","SATNPRO1963","23.962","0.33562","5"],
    [1304,"HCEP03730564","2023-10-11 22:45:00","11.7796","3.51054","25.695","1.177","7.44","0.687","2.684","0.23","0.18","30.4379","4.77241","13.17","0","SATNPRO1963","23.932","0.3352","5"],
    [1305,"HCEP03730564","2023-10-11 23:00:00","11.7801","3.51082","25.774","1.179","7.44","1.14","2.619","1.71","0.12","30.4401","4.77271","13.18","0","SATNPRO1963","24.052","0.33692","5"],
    [1306,"HCEP03730564","2023-10-11 23:15:00","11.7795","3.51049","25.859","1.201","7.44","0.622","2.562","0.17","0.1","30.4374","4.77235","13.43","0","SATNPRO1963","24.266","0.33988","5"],
    [1307,"HCEP03730564","2023-10-11 23:30:00","11.7806","3.51048","25.992","1.19","7.44","0.727","2.774","0.23","0.17","30.4364","4.77219","13.31","0","SATNPRO1963","24.522","0.3435","5"],
    [1308,"HCEP03730564","2023-10-11 23:45:00","11.7805","3.51024","26.085","1.187","7.44","0.883","2.894","0.52","0.27","30.4341","4.77187","13.28","0","SATNPRO1963","25.104","0.3516","5"],
    [1309,"HCEP03730564","2023-10-12 00:00:00","11.7832","3.51024","26.183","1.225","7.45","1.242","3.084","1.61","0.41","30.4319","4.77153","13.7","0","SATNPRO1963","24.874","0.3484","5"],
    [1310,"HCEP03730564","2023-10-12 00:15:00","11.7836","3.50996","26.285","1.216","7.45","0.965","2.935","0.5","0.47","30.4288","4.77109","13.6","0","SATNPRO1963","25.386","0.35558","5"],
    [1311,"HCEP03730564","2023-10-12 00:30:00","11.7845","3.50962","26.396","1.232","7.45","0.963","2.761","0.72","0.43","30.4247","4.77051","13.78","0","SATNPRO1963","25.003999999999998","0.35024","5"],
    [1312,"HCEP03730564","2023-10-12 00:45:00","11.7844","3.50927","26.499","1.216","7.45","0.857","2.67","0.26","0.23","30.4215","4.77006","13.6","0","SATNPRO1963","25.354","0.35514","5"],
    [1313,"HCEP03730564","2023-10-12 01:00:00","11.781","3.50878","26.608","1.353","7.45","1.012","2.054","1.12","0.31","30.4194","4.76982","15.13","0","SATNPRO1963","24.892","0.34864","5"],
    [1314,"HCEP03730564","2023-10-12 01:15:00","11.7809","3.50841","26.714","1.373","7.46","0.776","1.881","0.25","0.13","30.416","4.76934","15.35","0","SATNPRO1963","24.816","0.3476","5"],
    [1315,"HCEP03730564","2023-10-12 01:30:00","11.7797","3.50764","26.826","1.425","7.46","0.871","1.891","0.4","0.13","30.4095","4.76845","15.93","0","SATNPRO1963","25.22","0.35328","5"],
    [1316,"HCEP03730564","2023-10-12 01:45:00","11.779","3.50694","26.937","1.466","7.47","1.141","2.123","0.54","0.3","30.4033","4.76758","16.38","0","SATNPRO1963","25.178","0.35268","5"],
    [1317,"HCEP03730564","2023-10-12 02:00:00","11.778","3.50728","27.053","1.483","7.47","0.992","1.819","0.57","0.16","30.4073","4.76818","16.58","0","SATNPRO1963","25.872","0.36238","5"],
    [1318,"HCEP03730564","2023-10-12 02:15:00","11.778","3.50737","27.139","1.425","7.47","0.937","1.932","0.23","0.12","30.4081","4.76829","15.93","0","SATNPRO1963","25.994","0.36408","5"],
    [1319,"HCEP03730564","2023-10-12 02:30:00","11.7789","3.508","27.194","1.404","7.47","0.91","2.073","0.26","0.08","30.4134","4.76903","15.7","0","SATNPRO1963","26.664","0.37352","5"],
    [1320,"HCEP03730564","2023-10-12 02:45:00","11.7812","3.50888","27.24","1.283","7.46","0.935","2.265","0.52","0.25","30.42","4.76994","14.34","0","SATNPRO1963","26.233999999999998","0.36744","5"],
    [1321,"HCEP03730564","2023-10-12 03:00:00","11.7814","3.50873","27.272","1.309","7.46","0.792","2.156","0.22","0.09","30.4183","4.7697","14.63","0","SATNPRO1963","26.122","0.3659","5"],
    [1322,"HCEP03730564","2023-10-12 03:15:00","11.7827","3.50907","27.286","1.26","7.45","0.744","2.431","0.12","0.16","30.4206","4.77001","14.09","0","SATNPRO1963","25.97","0.36374","5"],
    [1323,"HCEP03730564","2023-10-12 03:30:00","11.783","3.50913","27.283","1.288","7.45","0.918","2.302","0.34","0.2","30.421","4.77005","14.4","0","SATNPRO1963","25.962","0.36366","5"],
    [1324,"HCEP03730564","2023-10-12 03:45:00","11.783","3.50921","27.249","1.279","7.45","0.748","2.331","0.25","0.26","30.4216","4.77014","14.3","0","SATNPRO1963","25.492","0.35704","5"],
    [1325,"HCEP03730564","2023-10-12 04:00:00","11.7822","3.50938","27.213","1.28","7.45","0.937","2.396","0.56","0.14","30.424","4.77048","14.32","0","SATNPRO1963","25.588","0.35836","5"],
    [1326,"HCEP03730564","2023-10-12 04:15:00","11.7824","3.50949","27.161","1.301","7.45","0.668","2.399","0.15","0.16","30.4249","4.77061","14.54","0","SATNPRO1963","25.188","0.35278","5"],
    [1327,"HCEP03730564","2023-10-12 04:30:00","11.7822","3.50951","27.092","1.295","7.45","0.701","2.301","0.22","0.15","30.4253","4.77066","14.48","0","SATNPRO1963","25.599999999999998","0.35858","5"],
    [1328,"NA","2023-10-12 04:45:00",null,null,null,null,null,null,null,null,null,null,null,null,null,"SATNPRO1963","25.27","0.35396","5"],
    [1329,"HCEP03730564","2023-10-12 04:45:01","11.7813","3.50951","27.02","1.295","7.45","0.756","2.555","0.31","0.28","30.4261","4.77079","14.48","0","NA",null,null,null],
    [1330,"HCEP03730564","2023-10-12 05:00:00","11.7793","3.51043","26.932","1.251","7.45","0.66","2.85","0.13","0.19","30.4366","4.77229","13.99","0","SATNPRO1963","25.42","0.35606","5"],
    [1331,"HCEP03730564","2023-10-12 05:15:00","11.7846","3.51078","26.849","1.335","7.46","0.864","2.829","0.52","0.32","30.4356","4.77207","14.94","0","SATNPRO1963","25.678","0.35968","5"],
    [1332,"HCEP03730564","2023-10-12 05:30:00","11.7903","3.5109","26.745","1.458","7.46","0.72","2.366","0.26","0.44","30.4322","4.7715","16.3","0","SATNPRO1963","25.494","0.3571","5"],
    [1333,"HCEP03730564","2023-10-12 05:45:00","11.7881","3.51156","26.633","1.391","7.47","0.815","3.14","0.19","0.35","30.4403","4.77268","15.56","0","SATNPRO1963","25.764","0.36088","5"],
    [1334,"HCEP03730564","2023-10-12 06:00:00","11.7902","3.5123","26.508","1.363","7.46","0.799","3.276","0.19","0.19","30.4459","4.77343","15.25","0","SATNPRO1963","25.106","0.3516","5"],
    [1335,"HCEP03730564","2023-10-12 06:15:00","11.7945","3.51319","26.391","1.379","7.46","0.811","3.141","0.16","0.23","30.4509","4.77407","15.42","0","SATNPRO1963","25.99","0.36404","5"],
    [1336,"HCEP03730564","2023-10-12 06:30:00","11.7973","3.51359","26.275","1.425","7.47","0.835","3.261","0.19","0.46","30.4525","4.77425","15.94","0","SATNPRO1963","26.598","0.37256","5"],
    [1337,"HCEP03730564","2023-10-12 06:45:00","11.801","3.51416","26.116","1.466","7.47","0.93","3.377","0.4","0.47","30.4551","4.77455","16.41","0","SATNPRO1963","25.968","0.36374","5"],
    [1338,"HCEP03730564","2023-10-12 07:00:00","11.8037","3.51444","25.979","1.503","7.47","0.841","3.185","0.14","0.38","30.4555","4.77457","16.82","0","SATNPRO1963","25.812","0.36154","5"],
    [1339,"HCEP03730564","2023-10-12 07:15:00","11.8026","3.51429","25.861","1.495","7.47","0.894","3.35","0.15","0.35","30.4552","4.77453","16.73","0","SATNPRO1963","26.11","0.36572","5"],
    [1340,"HCEP03730564","2023-10-12 07:30:00","11.805","3.51473","25.709","1.505","7.48","0.882","3.176","0.22","0.25","30.4573","4.77479","16.84","0","SATNPRO1963","26.384","0.36958","5"],
    [1341,"HCEP03730564","2023-10-12 07:45:00","11.8195","3.51696","25.594","1.614","7.48","0.849","2.885","0.12","0.31","30.4671","4.77595","18.07","0","SATNPRO1963","26.626","0.37296","5"],
    [1342,"HCEP03730564","2023-10-12 08:00:00","11.8231","3.51743","25.455","1.684","7.49","1.012","3.062","0.37","0.3","30.4687","4.77613","18.85","0","SATNPRO1963","26.796","0.37536","5"],
    [1343,"HCEP03730564","2023-10-12 08:15:00","11.8247","3.51778","25.352","1.695","7.49","0.945","2.827","0.27","0.18","30.4708","4.77639","18.98","0","SATNPRO1963","26.644","0.37318","5"],
    [1344,"HCEP03730564","2023-10-12 08:30:00","11.8206","3.51736","25.273","1.669","7.49","0.847","2.904","0.26","0.86","30.4701","4.77634","18.69","0","SATNPRO1963","26.838","0.37592","5"],
    [1345,"HCEP03730564","2023-10-12 08:45:00","11.8242","3.51751","25.191","1.683","7.49","0.892","2.556","0.24","0.16","30.4687","4.77609","18.84","0","SATNPRO1963","27.6","0.38658","5"],
    [1346,"HCEP03730564","2023-10-12 09:00:00","11.8212","3.51715","25.137","1.664","7.49","0.963","2.589","0.41","0.26","30.4677","4.77599","18.62","0","SATNPRO1963","27.826","0.38976","5"],
    [1347,"HCEP03730564","2023-10-12 09:15:00","11.824","3.51763","25.145","1.663","7.49","0.966","2.519","0.36","0.21","30.47","4.77628","18.62","0","SATNPRO1963","27.838","0.38988","5"],
    [1348,"HCEP03730564","2023-10-12 09:30:00","11.8194","3.51691","25.159","1.643","7.49","0.752","2.358","0.12","0.14","30.4668","4.77589","18.4","0","SATNPRO1963","27.786","0.3892","5"],
    [1349,"HCEP03730564","2023-10-12 09:45:00","11.8201","3.51708","25.18","1.634","7.49","0.839","2.408","0.25","0.27","30.4678","4.77603","18.29","0","SATNPRO1963","27.848","0.39004","5"],
    [1350,"HCEP03730564","2023-10-12 10:00:00","11.821","3.51715","25.187","1.646","7.49","0.989","2.333","0.42","0.15","30.4678","4.77601","18.43","0","SATNPRO1963","27.836","0.3899","5"],
    [1351,"HCEP03730564","2023-10-12 10:15:00","11.8268","3.5181","25.284","1.679","7.49","0.754","2.254","0.11","0.15","30.4721","4.77654","18.8","0","SATNPRO1963","27.476","0.38486","5"],
    [1352,"HCEP03730564","2023-10-12 10:30:00","11.8289","3.51851","25.353","1.698","7.49","0.84","2.409","0.3","0.1","30.4744","4.77684","19.01","0","SATNPRO1963","27.516000000000002","0.3854","5"],
    [1353,"HCEP03730564","2023-10-12 10:45:00","11.8345","3.51976","25.465","1.727","7.5","0.769","2.302","0.17","0.13","30.4817","4.7778","19.34","0","SATNPRO1963","27.490000000000002","0.38508","5"],
    [1354,"HCEP03730564","2023-10-12 11:00:00","11.8387","3.5205","25.571","1.742","7.5","0.806","2.654","0.22","0.42","30.4853","4.77826","19.51","0","SATNPRO1963","27.592","0.38648","5"],
    [1355,"HCEP03730564","2023-10-12 11:15:00","11.8422","3.52122","25.697","1.754","7.5","0.904","2.501","0.33","0.16","30.4894","4.77879","19.65","0","SATNPRO1963","27.776","0.38902","5"],
    [1356,"HCEP03730564","2023-10-12 11:30:00","11.8416","3.52103","25.829","1.767","7.5","0.864","2.322","0.31","0.13","30.488","4.77861","19.79","0","SATNPRO1963","27.892","0.3907","5"],
    [1357,"HCEP03730564","2023-10-12 11:45:00","11.8424","3.52115","25.966","1.772","7.5","0.831","2.28","0.34","0.19","30.4884","4.77866","19.84","0","SATNPRO1963","28.082","0.39336","5"],
    [1358,"HCEP03730564","2023-10-12 12:00:00","11.8445","3.52168","26.102","1.749","7.5","0.942","2.646","0.58","0.2","30.4918","4.77911","19.59","0","SATNPRO1963","28.168","0.39452","5"],
    [1359,"HCEP03730564","2023-10-12 12:15:00","11.8442","3.52176","26.256","1.721","7.5","0.817","2.633","0.14","0.15","30.4927","4.77926","19.28","0","SATNPRO1963","28.186","0.3948","5"],
    [1360,"HCEP03730564","2023-10-12 12:30:00","11.8436","3.52152","26.413","1.749","7.5","0.78","2.465","0.2","0.21","30.4908","4.77901","19.6","0","SATNPRO1963","28.34","0.397","5"],
    [1361,"HCEP03730564","2023-10-12 12:45:00","11.8325","3.51931","26.573","1.719","7.5","0.738","2.53","0.21","1.18","30.4786","4.77745","19.25","0","SATNPRO1963","28.45","0.3985","5"],
    [1362,"HCEP03730564","2023-10-12 13:00:00","11.8386","3.52056","26.728","1.736","7.5","0.817","2.476","0.17","0.2","30.4855","4.77835","19.44","0","SATNPRO1963","28.218","0.39526","5"],
    [1363,"HCEP03730564","2023-10-12 13:15:00","11.8416","3.52147","26.862","1.681","7.5","0.849","2.766","0.17","0.14","30.4918","4.7792","18.83","0","SATNPRO1963","27.86","0.39026","5"],
    [1364,"HCEP03730564","2023-10-12 13:30:00","11.8404","3.52137","26.998","1.653","7.5","0.969","2.842","0.28","0.15","30.4918","4.77923","18.52","0","SATNPRO1963","28.240000000000002","0.3955","5"],
    [1365,"HCEP03730564","2023-10-12 13:45:00","11.8407","3.52146","27.157","1.654","7.5","0.859","2.825","0.16","0.18","30.4923","4.77931","18.52","0","SATNPRO1963","28.084","0.39334","5"],
    [1366,"HCEP03730564","2023-10-12 14:00:00","11.8387","3.5213","27.301","1.616","7.49","0.871","2.997","0.16","0.18","30.4923","4.77934","18.1","0","SATNPRO1963","28.16","0.39442","5"],
    [1367,"HCEP03730564","2023-10-12 14:15:00","11.838","3.52115","27.435","1.593","7.49","1.102","3.143","0.4","0.2","30.4914","4.77923","17.84","0","SATNPRO1963","27.776","0.38904","5"],
    [1368,"HCEP03730564","2023-10-12 14:30:00","11.8357","3.52091","27.57","1.553","7.49","0.9","3.356","0.16","0.25","30.491","4.77922","17.39","0","SATNPRO1963","27.824","0.3897","5"],
    [1369,"HCEP03730564","2023-10-12 14:45:00","11.8345","3.52082","27.668","1.519","7.49","0.944","3.191","0.24","0.22","30.4911","4.77925","17.01","0","SATNPRO1963","27.788","0.38918","5"],
    [1370,"HCEP03730564","2023-10-12 15:00:00","11.833","3.52057","27.735","1.513","7.48","0.893","3.31","0.21","0.47","30.4898","4.7791","16.94","0","SATNPRO1963","27.534","0.38568","5"],
    [1371,"HCEP03730564","2023-10-12 15:15:00","11.8314","3.52014","27.788","1.549","7.48","0.859","2.956","0.21","0.21","30.4871","4.77873","17.35","0","SATNPRO1963","27.402","0.38382","5"],
    [1372,"HCEP03730564","2023-10-12 15:30:00","11.8301","3.52006","27.821","1.515","7.48","0.847","3.255","0.17","0.2","30.4873","4.77878","16.97","0","SATNPRO1963","27.052","0.37892","5"],
    [1373,"HCEP03730564","2023-10-12 15:45:00","11.8287","3.51975","27.83","1.488","7.48","0.951","3.357","0.19","0.2","30.4855","4.77854","16.66","0","SATNPRO1963","26.916","0.377","5"],
    [1374,"HCEP03730564","2023-10-12 16:00:00","11.8272","3.51964","27.815","1.457","7.48","1.084","3.434","0.83","0.4","30.4857","4.77859","16.32","0","SATNPRO1963","26.946","0.37746","5"],
    [1375,"HCEP03730564","2023-10-12 16:15:00","11.8253","3.51869","27.787","1.525","7.48","1.152","2.691","1.11","0.18","30.478","4.77754","17.08","0","SATNPRO1963","27.474","0.38476","5"],
    [1376,"HCEP03730564","2023-10-12 16:30:00","11.8258","3.5191","27.738","1.495","7.48","0.884","2.899","0.34","0.13","30.4816","4.77803","16.74","0","SATNPRO1963","27.11","0.3797","5"],
    [1377,"HCEP03730564","2023-10-12 16:45:00","11.8242","3.51881","27.678","1.457","7.48","0.85","3.023","0.26","0.13","30.4802","4.77785","16.31","0","SATNPRO1963","26.794","0.37532","5"],
    [1378,"HCEP03730564","2023-10-12 17:00:00","11.812","3.51513","27.604","1.408","7.48","1.045","2.985","1.52","0.85","30.4548","4.77444","15.76","0","SATNPRO1963","26.886","0.37654","5"],
    [1379,"HCEP03730564","2023-10-12 17:15:00","11.8222","3.51845","27.513","1.419","7.47","0.784","3.155","0.13","0.15","30.4784","4.77762","15.89","0","SATNPRO1963","26.832","0.37582","5"],
    [1380,"HCEP03730564","2023-10-12 17:30:00","11.8204","3.51808","27.407","1.402","7.47","1.063","3.377","0.78","0.33","30.4764","4.77735","15.69","0","SATNPRO1963","26.918","0.37702","5"],
    [1381,"HCEP03730564","2023-10-12 17:45:00","11.8121","3.51535","27.281","1.349","7.47","1.01","3.364","0.22","0.5","30.4569","4.77472","15.09","0","SATNPRO1963","26.87","0.37638","5"],
    [1382,"HCEP03730564","2023-10-12 18:00:00","11.7896","3.50852","27.143","1.218","7.46","1.17","3.17","0.3","0.35","30.4097","4.76835","13.62","0","SATNPRO1963","26.041999999999998","0.3647","5"],
    [1383,"HCEP03730564","2023-10-12 18:15:00","11.7882","3.50823","27.026","1.147","7.45","1.204","3.046","0.38","0.24","30.4081","4.76815","12.83","0","SATNPRO1963","26.514","0.37138","5"],
    [1384,"HCEP03730564","2023-10-12 18:30:00","11.7833","3.50697","26.885","1.115","7.44","1.84","3.532","1.59","1.1","30.4","4.76706","12.47","0","SATNPRO1963","26.276","0.36806","5"],
    [1385,"HCEP03730564","2023-10-12 18:45:00","11.7828","3.5071","26.706","1.099","7.44","1.17","3.247","0.2","0.2","30.4018","4.76731","12.28","0","SATNPRO1963","25.874000000000002","0.3624","5"],
    [1386,"HCEP03730564","2023-10-12 19:00:00","11.7845","3.50705","26.564","1.139","7.44","1.099","3.112","0.21","0.17","30.3999","4.76702","12.73","0","SATNPRO1963","24.852","0.34812","5"],
    [1387,"HCEP03730564","2023-10-12 19:15:00","11.7872","3.50805","26.406","1.139","7.44","1.093","2.963","0.24","0.11","30.4074","4.76802","12.73","0","SATNPRO1963","25.006","0.35026","5"],
    [1388,"HCEP03730564","2023-10-12 19:30:00","11.7877","3.5083","26.248","1.144","7.44","0.99","3.232","0.24","0.42","30.4095","4.7683","12.79","0","SATNPRO1963","24.67","0.34556","5"],
    [1389,"HCEP03730564","2023-10-12 19:45:00","11.7864","3.50811","26.082","1.154","7.44","1.022","2.883","0.25","0.27","30.4089","4.76823","12.9","0","SATNPRO1963","24.374","0.34138","5"],
    [1390,"HCEP03730564","2023-10-12 20:00:00","11.7859","3.5084","25.91","1.148","7.44","0.95","3.007","0.26","0.19","30.4121","4.76868","12.84","0","SATNPRO1963","24.91","0.3489","5"],
    [1391,"HCEP03730564","2023-10-12 20:15:00","11.7936","3.51115","25.772","1.134","7.44","1.1","4.191","0.23","0.31","30.4323","4.77141","12.68","0","SATNPRO1963","24.824","0.3477","5"],
    [1392,"HCEP03730564","2023-10-12 20:30:00","11.8033","3.51385","25.619","1.181","7.44","0.912","3.669","0.21","0.32","30.4504","4.77382","13.21","0","SATNPRO1963","25.054","0.35096","5"],
    [1393,"HCEP03730564","2023-10-12 20:45:00","11.8049","3.51454","25.489","1.226","7.45","0.908","3.251","0.32","0.16","30.4557","4.77455","13.72","0","SATNPRO1963","25.082","0.3513","5"],
    [1394,"HCEP03730564","2023-10-12 21:00:00","11.803","3.51359","25.381","1.232","7.45","0.814","3.059","0.12","0.14","30.4482","4.77352","13.79","0","SATNPRO1963","25.07","0.35118","5"],
    [1395,"HCEP03730564","2023-10-12 21:15:00","11.7948","3.51165","25.31","1.202","7.45","0.907","2.958","0.37","0.28","30.4363","4.77194","13.44","0","SATNPRO1963","24.934","0.34922","5"],
    [1396,"HCEP03730564","2023-10-12 21:30:00","11.7942","3.51099","25.26","1.193","7.45","0.768","2.713","0.13","0.15","30.4305","4.77112","13.34","0","SATNPRO1963","25.27","0.35394","5"],
    [1397,"HCEP03730564","2023-10-12 21:45:00","11.7922","3.51053","25.238","1.174","7.45","0.879","2.987","0.21","0.19","30.4276","4.77074","13.13","0","SATNPRO1963","25.352","0.35512","5"],
    [1398,"HCEP03730564","2023-10-12 22:00:00","11.7915","3.51044","25.232","1.16","7.44","0.89","3.037","0.51","0.24","30.4275","4.77073","12.97","0","SATNPRO1963","25.458","0.35658","5"],
    [1399,"HCEP03730564","2023-10-12 22:15:00","11.7861","3.5089","25.257","1.163","7.44","0.95","3.56","0.22","0.92","30.4169","4.76932","13","0","SATNPRO1963","25.2","0.35298","5"],
    [1400,"HCEP03730564","2023-10-12 22:30:00","11.7859","3.5078","25.296","1.201","7.44","1.059","3.258","0.43","0.88","30.4065","4.76785","13.42","0","SATNPRO1963","25.42","0.35598","5"],
    [1401,"HCEP03730564","2023-10-12 22:45:00","11.7864","3.50776","25.347","1.253","7.45","1.068","3.604","0.31","0.81","30.4058","4.76775","14.01","0","SATNPRO1963","25.02","0.35048","5"],
    [1402,"HCEP03730564","2023-10-12 23:00:00","11.7874","3.50873","25.419","1.195","7.45","1.428","3.19","0.68","0.3","30.4143","4.76894","13.37","0","SATNPRO1963","25.026","0.35048","5"],
    [1403,"HCEP03730564","2023-10-12 23:15:00","11.7869","3.50819","25.521","1.245","7.45","1.076","2.785","0.43","0.35","30.4094","4.76826","13.93","0","SATNPRO1963","25.23","0.3534","5"],
    [1404,"HCEP03730564","2023-10-12 23:30:00","11.7841","3.50709","25.624","1.271","7.45","1.017","2.455","0.35","0.17","30.401","4.76713","14.21","0","SATNPRO1963","25.836000000000002","0.36186","5"],
    [1405,"HCEP03730564","2023-10-12 23:45:00","11.7856","3.50785","25.728","1.281","7.45","1.111","2.573","0.32","0.16","30.4071","4.76796","14.32","0","SATNPRO1963","26.168","0.36652","5"],
    [1406,"HCEP03730564","2023-10-13 00:00:00","11.7896","3.50816","25.847","1.42","7.46","1.306","2.194","0.77","0.16","30.4067","4.76786","15.88","0","SATNPRO1963","25.304000000000002","0.35442","5"],
    [1407,"HCEP03730564","2023-10-13 00:15:00","11.7918","3.5089","25.974","1.426","7.46","1.151","2.186","0.46","0.16","30.412","4.76858","15.95","0","SATNPRO1963","25.964","0.36364","5"],
    [1408,"HCEP03730564","2023-10-13 00:30:00","11.7927","3.50947","26.118","1.399","7.46","1.035","2.675","0.19","0.26","30.4167","4.76925","15.64","0","SATNPRO1963","25.966","0.36372","5"],
    [1409,"HCEP03730564","2023-10-13 00:45:00","11.7935","3.50976","26.251","1.419","7.46","1.101","2.683","0.21","0.21","30.4188","4.76954","15.87","0","SATNPRO1963","26.13","0.366","5"],
    [1410,"HCEP03730564","2023-10-13 01:00:00","11.792","3.50948","26.373","1.375","7.46","1.093","2.978","0.19","0.19","30.4172","4.76934","15.38","0","SATNPRO1963","26.822","0.3757","5"],
    [1411,"HCEP03730564","2023-10-13 01:15:00","11.7903","3.50878","26.496","1.389","7.46","1.179","3.085","0.19","0.19","30.4119","4.76862","15.54","0","SATNPRO1963","26.686","0.37382","5"],
    [1412,"HCEP03730564","2023-10-13 01:30:00","11.7883","3.50801","26.626","1.401","7.46","1.257","3.507","0.2","0.34","30.4061","4.76784","15.67","0","SATNPRO1963","26.636","0.3731","5"],
    [1413,"HCEP03730564","2023-10-13 01:45:00","11.7872","3.50758","26.763","1.427","7.46","1.183","3.2","0.15","0.52","30.4028","4.76739","15.95","0","SATNPRO1963","26.634","0.37306","5"],
    [1414,"HCEP03730564","2023-10-13 02:00:00","11.7875","3.50766","26.894","1.433","7.47","1.166","3.036","0.19","0.3","30.4033","4.76747","16.02","0","SATNPRO1963","26.294","0.36826","5"],
    [1415,"HCEP03730564","2023-10-13 02:15:00","11.7882","3.50776","27.038","1.447","7.47","1.151","3.139","0.19","0.26","30.4036","4.76751","16.18","0","SATNPRO1963","26.582","0.37232","5"],
    [1416,"HCEP03730564","2023-10-13 02:30:00","11.7877","3.50765","27.147","1.459","7.47","1.08","3.052","0.15","0.14","30.4029","4.76743","16.32","0","SATNPRO1963","26.458","0.37054","5"],
    [1417,"HCEP03730564","2023-10-13 02:45:00","11.7871","3.50707","27.229","1.502","7.47","1.062","2.831","0.13","0.22","30.3978","4.76671","16.8","0","SATNPRO1963","26.706","0.37404","5"],
    [1418,"HCEP03730564","2023-10-13 03:00:00","11.787","3.50703","27.335","1.498","7.47","1.146","2.744","0.29","0.24","30.3975","4.76668","16.75","0","SATNPRO1963","26.566","0.37208","5"],
    [1419,"HCEP03730564","2023-10-13 03:15:00","11.7868","3.50731","27.399","1.453","7.47","1.2","2.968","0.23","0.14","30.4002","4.76707","16.25","0","SATNPRO1963","26.372","0.36938","5"],
    [1420,"HCEP03730564","2023-10-13 03:30:00","11.7874","3.5072","27.429","1.458","7.47","1.042","2.814","0.18","0.24","30.3988","4.76686","16.3","0","SATNPRO1963","26.474","0.37082","5"],
    [1421,"HCEP03730564","2023-10-13 03:45:00","11.7874","3.50736","27.453","1.459","7.47","1.266","2.933","0.29","0.18","30.4003","4.76707","16.31","0","SATNPRO1963","26.752","0.37466","5"],
    [1422,"HCEP03730564","2023-10-13 04:00:00","11.788","3.50775","27.462","1.445","7.47","1.453","3.017","0.52","0.31","30.4034","4.76751","16.15","0","SATNPRO1963","26.584","0.37234","5"],
    [1423,"HCEP03730564","2023-10-13 04:15:00","11.7887","3.5081","27.442","1.429","7.47","1.158","2.877","0.35","0.27","30.4063","4.76791","15.98","0","SATNPRO1963","26.612000000000002","0.37274","5"],
    [1424,"HCEP03730564","2023-10-13 04:30:00","11.7896","3.50855","27.408","1.406","7.47","1.009","2.935","0.28","0.3","30.4098","4.76839","15.73","0","SATNPRO1963","26.646","0.37326","5"],
    [1425,"HCEP03730564","2023-10-13 04:45:00","11.7882","3.5083","27.363","1.374","7.46","1.443","3.271","1.15","0.29","30.4086","4.76824","15.36","0","SATNPRO1963","26.692","0.3739","5"],
    [1426,"HCEP03730564","2023-10-13 05:00:00","11.7896","3.5086","27.305","1.378","7.46","1.028","2.996","0.2","0.15","30.4103","4.76846","15.41","0","SATNPRO1963","26.57","0.37216","5"],
    [1427,"HCEP03730564","2023-10-13 05:15:00","11.7887","3.50835","27.225","1.376","7.46","1.126","3.14","0.17","0.19","30.4088","4.76825","15.38","0","SATNPRO1963","26.492","0.37108","5"],
    [1428,"HCEP03730564","2023-10-13 05:30:00","11.7889","3.50822","27.134","1.392","7.46","1.092","2.946","0.18","0.18","30.4074","4.76805","15.57","0","SATNPRO1963","26.567999999999998","0.37214","5"],
    [1429,"HCEP03730564","2023-10-13 05:45:00","11.7883","3.50801","27.039","1.406","7.46","1.049","2.798","0.12","0.18","30.4059","4.76783","15.72","0","SATNPRO1963","26.624","0.3729","5"],
    [1430,"HCEP03730564","2023-10-13 06:00:00","11.7885","3.5077","26.925","1.439","7.46","1.064","2.598","0.22","0.18","30.4028","4.76739","16.09","0","SATNPRO1963","26.39","0.36964","5"],
    [1431,"HCEP03730564","2023-10-13 06:15:00","11.7868","3.50724","26.808","1.449","7.47","0.963","2.49","0.14","0.11","30.3998","4.76698","16.2","0","SATNPRO1963","26.372","0.3694","5"],
    [1432,"HCEP03730564","2023-10-13 06:30:00","11.7853","3.50652","26.688","1.461","7.47","1.068","2.449","0.17","0.12","30.3942","4.7662","16.34","0","SATNPRO1963","26.542","0.37176","5"],
    [1433,"HCEP03730564","2023-10-13 06:45:00","11.7857","3.50643","26.561","1.485","7.47","1.19","2.31","0.43","0.13","30.3931","4.76603","16.6","0","SATNPRO1963","26.708000000000002","0.37412","5"],
    [1434,"HCEP03730564","2023-10-13 07:00:00","11.7886","3.50736","26.44","1.497","7.47","1.015","2.288","0.25","0.19","30.3997","4.76692","16.74","0","SATNPRO1963","26.764","0.37488","5"],
    [1435,"HCEP03730564","2023-10-13 07:15:00","11.7889","3.50747","26.307","1.483","7.47","1.136","2.408","0.22","0.2","30.4006","4.76703","16.58","0","SATNPRO1963","26.646","0.3732","5"],
    [1436,"HCEP03730564","2023-10-13 07:30:00","11.7934","3.50835","26.161","1.532","7.47","1.229","2.591","0.48","0.27","30.4054","4.76764","17.13","0","SATNPRO1963","26.698","0.37396","5"],
    [1437,"HCEP03730564","2023-10-13 07:45:00","11.7977","3.50898","26.019","1.544","7.47","1.094","2.567","0.2","0.17","30.408","4.76793","17.27","0","SATNPRO1963","26.93","0.3772","5"],
    [1438,"HCEP03730564","2023-10-13 08:00:00","11.7936","3.50946","25.887","1.415","7.47","1.195","3.558","0.24","0.24","30.416","4.76912","15.83","0","SATNPRO1963","26.916","0.377","5"],
    [1439,"HCEP03730564","2023-10-13 08:15:00","11.7966","3.51001","25.739","1.414","7.47","1.092","3.078","0.2","0.25","30.4189","4.76948","15.81","0","SATNPRO1963","26.852","0.3761","5"],
    [1440,"HCEP03730564","2023-10-13 08:30:00","11.7995","3.51087","25.595","1.441","7.47","1.031","2.764","0.25","0.16","30.4248","4.77027","16.12","0","SATNPRO1963","27.044","0.37876","5"],
    [1441,"HCEP03730564","2023-10-13 08:45:00","11.8026","3.51139","25.463","1.482","7.47","1.063","3.062","0.28","3.2","30.4274","4.77059","16.58","0","SATNPRO1963","26.682","0.37374","5"],
    [1442,"HCEP03730564","2023-10-13 09:00:00","11.8098","3.51283","25.36","1.601","7.48","0.989","1.916","0.18","0.13","30.4354","4.7716","17.92","0","SATNPRO1963","26.524","0.3715","5"],
    [1443,"HCEP03730564","2023-10-13 09:15:00","11.8084","3.5121","25.303","1.609","7.48","0.916","1.55","0.15","0.15","30.4295","4.77078","18","0","SATNPRO1963","26.844","0.37602","5"],
    [1444,"HCEP03730564","2023-10-13 09:30:00","11.812","3.51291","25.256","1.588","7.48","0.933","2.252","0.17","0.12","30.4344","4.77143","17.77","0","SATNPRO1963","27.08","0.37932","5"],
    [1445,"HCEP03730564","2023-10-13 09:45:00","11.8098","3.51194","25.233","1.627","7.48","1.004","1.676","0.19","0.11","30.4269","4.77039","18.2","0","SATNPRO1963","27.189999999999998","0.38082","5"],
    [1446,"HCEP03730564","2023-10-13 10:00:00","11.8136","3.51266","25.235","1.658","7.49","1.047","2.16","0.25","0.15","30.4307","4.77088","18.55","0","SATNPRO1963","27.914","0.39098","5"],
    [1447,"HCEP03730564","2023-10-13 10:15:00","11.8118","3.51208","25.278","1.669","7.49","1.006","1.578","0.16","0.14","30.4266","4.77033","18.68","0","SATNPRO1963","27.612","0.38672","5"],
    [1448,"HCEP03730564","2023-10-13 10:30:00","11.8104","3.51267","25.334","1.648","7.49","0.97","2.06","0.18","0.15","30.4333","4.7713","18.43","0","SATNPRO1963","27.514","0.38534","5"],
    [1449,"HCEP03730564","2023-10-13 10:45:00","11.8065","3.51134","25.423","1.581","7.48","0.939","1.651","0.11","0.2","30.4237","4.77","17.69","0","SATNPRO1963","27.858","0.39022","5"],
    [1450,"HCEP03730564","2023-10-13 11:00:00","11.805","3.51089","25.504","1.592","7.48","1.015","1.592","0.23","0.12","30.4206","4.76959","17.82","0","SATNPRO1963","27.605999999999998","0.38666","5"],
    [1451,"HCEP03730564","2023-10-13 11:15:00","11.8059","3.51101","25.594","1.609","7.48","0.95","1.492","0.17","0.11","30.4209","4.76962","18","0","SATNPRO1963","28.052","0.3929","5"],
    [1452,"HCEP03730564","2023-10-13 11:30:00","11.8073","3.51123","25.719","1.629","7.48","0.988","1.493","0.26","0.14","30.4218","4.76974","18.23","0","SATNPRO1963","27.678","0.38768","5"],
    [1453,"HCEP03730564","2023-10-13 11:45:00","11.8127","3.51203","25.837","1.694","7.49","0.927","1.346","0.16","0.11","30.425","4.77012","18.96","0","SATNPRO1963","27.422","0.3841","5"],
    [1454,"HCEP03730564","2023-10-13 12:00:00","11.8061","3.51176","25.964","1.659","7.49","0.98","1.798","0.16","0.09","30.4278","4.77062","18.56","0","SATNPRO1963","27.99","0.39206","5"],
    [1455,"HCEP03730564","2023-10-13 12:15:00","11.8031","3.51218","26.093","1.438","7.48","0.996","2.006","0.19","0.12","30.4343","4.77158","16.09","0","SATNPRO1963","27.902","0.3908","5"],
    [1456,"HCEP03730564","2023-10-13 12:30:00","11.8169","3.51274","26.232","1.694","7.48","0.889","1.261","0.16","0.09","30.4284","4.77057","18.96","0","SATNPRO1963","27.982","0.39188","5"],
    [1457,"HCEP03730564","2023-10-13 12:45:00","11.8069","3.51083","26.386","1.683","7.49","1.069","1.55","0.48","0.21","30.418","4.76925","18.83","0","SATNPRO1963","28.458","0.39862","5"],
    [1458,"HCEP03730564","2023-10-13 13:00:00","11.8096","3.51171","26.557","1.64","7.49","0.941","1.478","0.33","0.08","30.4242","4.7701","18.35","0","SATNPRO1963","28.17","0.39456","5"],
    [1459,"HCEP03730564","2023-10-13 13:15:00","11.8122","3.51239","26.702","1.67","7.49","0.916","1.483","0.26","0.12","30.4287","4.77069","18.69","0","SATNPRO1963","27.38","0.38352","5"],
    [1460,"HCEP03730564","2023-10-13 13:30:00","11.8092","3.51239","26.85","1.608","7.49","0.942","1.99","0.24","0.17","30.431","4.77107","17.99","0","SATNPRO1963","28.752","0.40268","5"],
    [1461,"HCEP03730564","2023-10-13 13:45:00","11.8043","3.51266","26.996","1.449","7.48","1.032","2.93","0.28","0.28","30.4376","4.77209","16.21","0","SATNPRO1963","27.728","0.38838","5"],
    [1462,"HCEP03730564","2023-10-13 14:00:00","11.8014","3.51279","27.162","1.337","7.47","1.02","3.078","0.21","0.14","30.4411","4.77262","14.96","0","SATNPRO1963","28.02","0.39248","5"],
    [1463,"HCEP03730564","2023-10-13 14:15:00","11.8083","3.51273","27.313","1.389","7.47","1.013","2.325","0.27","0.23","30.4348","4.77165","15.54","0","SATNPRO1963","28.240000000000002","0.39552","5"],
    [1464,"HCEP03730564","2023-10-13 14:30:00","11.8035","3.51306","27.448","1.384","7.47","0.896","2.416","0.15","0.24","30.4419","4.77273","15.49","0","SATNPRO1963","27.876","0.39044","5"],
    [1465,"HCEP03730564","2023-10-13 14:45:00","11.8024","3.51298","27.582","1.358","7.46","1.116","2.997","0.2","0.15","30.442","4.77277","15.2","0","SATNPRO1963","27.036","0.37872","5"],
    [1466,"HCEP03730564","2023-10-13 15:00:00","11.802","3.51285","27.686","1.309","7.46","1.072","2.847","0.25","0.19","30.441","4.77263","14.64","0","SATNPRO1963","26.086","0.36538","5"],
    [1467,"HCEP03730564","2023-10-13 15:15:00","11.8031","3.51273","27.764","1.315","7.46","1.134","2.852","0.24","0.17","30.4389","4.77233","14.71","0","SATNPRO1963","28.21","0.39516","5"],
    [1468,"HCEP03730564","2023-10-13 15:30:00","11.7979","3.5117","27.797","1.278","7.46","1.172","3.06","0.52","0.23","30.4332","4.77159","14.29","0","SATNPRO1963","28.472","0.39882","5"],
    [1469,"HCEP03730564","2023-10-13 15:45:00","11.7911","3.51061","27.82","1.172","7.45","1.146","3.499","0.28","0.19","30.4283","4.77101","13.11","0","SATNPRO1963","27.806","0.38944","5"],
    [1470,"HCEP03730564","2023-10-13 16:00:00","11.7878","3.50984","27.826","1.101","7.44","1.061","3.688","0.17","0.15","30.4236","4.77038","12.32","0","SATNPRO1963","27.582","0.38638","5"],
    [1471,"HCEP03730564","2023-10-13 16:15:00","11.7858","3.50947","27.816","1.072","7.44","1.097","3.622","0.15","0.15","30.4217","4.77014","11.99","0","SATNPRO1963","26.412","0.36994","5"],
    [1472,"HCEP03730564","2023-10-13 16:30:00","11.7851","3.50914","27.792","1.075","7.44","1.099","3.706","0.12","0.1","30.4191","4.76978","12.02","0","SATNPRO1963","26.008","0.36426","5"],
    [1473,"HCEP03730564","2023-10-13 16:45:00","11.7844","3.509","27.743","1.05","7.43","1.148","3.977","0.26","0.31","30.4184","4.76969","11.74","0","SATNPRO1963","25.104","0.35162","5"],
    [1474,"HCEP03730564","2023-10-13 17:00:00","11.7822","3.50831","27.693","1.051","7.43","1.246","3.901","0.31","0.28","30.4136","4.76904","11.75","0","SATNPRO1963","24.886","0.34858","5"],
    [1475,"HCEP03730564","2023-10-13 17:15:00","11.7832","3.50737","27.624","1.153","7.44","1.176","3.379","0.28","0.24","30.4037","4.76762","12.9","0","SATNPRO1963","24.722","0.3463","5"],
    [1476,"HCEP03730564","2023-10-13 17:30:00","11.7832","3.50733","27.529","1.204","7.44","1.121","3.437","0.29","0.23","30.4034","4.76758","13.46","0","SATNPRO1963","24.708000000000002","0.34608","5"],
    [1477,"HCEP03730564","2023-10-13 17:45:00","11.784","3.50718","27.421","1.241","7.44","1.127","3.276","0.27","0.19","30.4014","4.76727","13.88","0","SATNPRO1963","24.44","0.34232","5"],
    [1478,"HCEP03730564","2023-10-13 18:00:00","11.7859","3.50635","27.31","1.334","7.45","0.976","2.788","0.17","0.13","30.3918","4.76589","14.91","0","SATNPRO1963","24.65","0.34524","5"],
    [1479,"HCEP03730564","2023-10-13 18:15:00","11.7852","3.50623","27.174","1.36","7.45","1.091","2.979","0.16","0.16","30.3913","4.76582","15.2","0","SATNPRO1963","25.432000000000002","0.35624","5"],
    [1480,"HCEP03730564","2023-10-13 18:30:00","11.7832","3.50615","27.051","1.259","7.45","1.115","3.503","0.15","0.13","30.3922","4.76597","14.08","0","SATNPRO1963","25.238","0.3535","5"],
    [1481,"HCEP03730564","2023-10-13 18:45:00","11.7806","3.50581","26.929","1.197","7.45","1.106","3.514","0.16","0.14","30.3911","4.76584","13.38","0","SATNPRO1963","26.438","0.37032","5"],
    [1482,"HCEP03730564","2023-10-13 19:00:00","11.7785","3.50542","26.778","1.119","7.44","1.104","3.589","0.16","0.11","30.3891","4.76559","12.51","0","SATNPRO1963","26.662","0.37348","5"],
    [1483,"HCEP03730564","2023-10-13 19:15:00","11.7784","3.50526","26.642","1.134","7.44","1.064","3.628","0.1","0.14","30.3877","4.76538","12.68","0","SATNPRO1963","26.228","0.36734","5"],
    [1484,"HCEP03730564","2023-10-13 19:30:00","11.7778","3.50462","26.468","1.204","7.44","1.011","3.463","0.11","0.14","30.3822","4.76459","13.46","0","SATNPRO1963","25.686","0.35978","5"],
    [1485,"HCEP03730564","2023-10-13 19:45:00","11.7764","3.50441","26.267","1.203","7.44","0.995","3.082","0.1","0.08","30.3813","4.76448","13.45","0","SATNPRO1963","25.208","0.35306","5"],
    [1486,"HCEP03730564","2023-10-13 20:00:00","11.7743","3.50409","26.149","1.17","7.44","1.022","3.266","0.1","0.16","30.3799","4.76431","13.07","0","SATNPRO1963","24.606","0.34466","5"],
    [1487,"HCEP03730564","2023-10-13 20:15:00","11.7739","3.50412","25.908","1.151","7.44","1.021","3.225","0.14","0.1","30.3808","4.76442","12.87","0","SATNPRO1963","25.214","0.35314","5"],
    [1488,"HCEP03730564","2023-10-13 20:30:00","11.7735","3.50399","25.777","1.141","7.44","0.949","3.248","0.06","0.1","30.3799","4.76429","12.76","0","SATNPRO1963","25.558","0.358","5"],
    [1489,"HCEP03730564","2023-10-13 20:45:00","11.7746","3.50469","25.637","1.109","7.44","0.983","3.307","0.09","0.11","30.3857","4.76509","12.4","0","SATNPRO1963","25.380000000000003","0.35548","5"],
    [1490,"HCEP03730564","2023-10-13 21:00:00","11.7739","3.50412","25.469","1.11","7.44","0.96","3.23","0.1","0.1","30.3809","4.76441","12.41","0","SATNPRO1963","24.96","0.3496","5"],
    [1491,"HCEP03730564","2023-10-13 21:15:00","11.774","3.50443","25.268","1.102","7.44","1.021","3.148","0.12","0.18","30.3838","4.76482","12.32","0","SATNPRO1963","24.86","0.3482","5"],
    [1492,"HCEP03730564","2023-10-13 21:30:00","11.7812","3.50795","25.214","1.031","7.43","0.827","3.274","0.07","0.08","30.4118","4.76867","11.52","0","SATNPRO1963","24.868","0.34832","5"],
    [1493,"HCEP03730564","2023-10-13 21:45:00","11.7894","3.51064","25.122","1.053","7.43","0.773","3.046","0.08","0.08","30.4311","4.77128","11.77","0","SATNPRO1963","24.323999999999998","0.3407","5"],
    [1494,"HCEP03730564","2023-10-13 22:00:00","11.7855","3.50952","25.091","1.016","7.43","0.781","3.06","0.08","0.07","30.4235","4.77025","11.36","0","SATNPRO1963","24.706","0.34604","5"],
    [1495,"HCEP03730564","2023-10-13 22:15:00","11.7859","3.50953","25.096","1.017","7.43","0.803","3.091","0.08","0.1","30.4232","4.7702","11.37","0","SATNPRO1963","25.034","0.35064","5"],
    [1496,"HCEP03730564","2023-10-13 22:30:00","11.7894","3.51061","25.123","1.038","7.43","0.693","2.916","0.05","0.06","30.4308","4.77123","11.61","0","SATNPRO1963","24.056","0.33692","5"],
    [1497,"HCEP03730564","2023-10-13 22:45:00","11.7934","3.51208","25.156","1.062","7.43","0.711","2.995","0.04","0.05","30.4416","4.7727","11.88","0","SATNPRO1963","24.746","0.3466","5"],
    [1498,"HCEP03730564","2023-10-13 23:00:00","11.7932","3.51218","25.131","1.068","7.43","0.698","2.863","0.1","0.08","30.4427","4.77286","11.95","0","SATNPRO1963","24.48","0.34288","5"],
    [1499,"HCEP03730564","2023-10-13 23:15:00","11.7906","3.51143","25.249","1.018","7.43","0.728","2.959","0.09","0.07","30.4376","4.77218","11.39","0","SATNPRO1963","24.378","0.34144","5"],
    [1500,"HCEP03730564","2023-10-13 23:30:00","11.7908","3.51129","25.37","1.038","7.43","0.7","2.853","0.11","0.09","30.436","4.77196","11.61","0","SATNPRO1963","24.826","0.34774","5"],
    [1501,"HCEP03730564","2023-10-13 23:45:00","11.7915","3.51123","25.445","1.05","7.43","0.726","2.794","0.08","0.08","30.4349","4.77179","11.74","0","SATNPRO1963","25.034","0.35068","5"],
    [1502,"HCEP03730564","2023-10-14 00:00:00","11.7932","3.51175","25.541","1.062","7.43","0.701","2.798","0.08","0.07","30.4385","4.77229","11.87","0","SATNPRO1963","24.908","0.34886","5"],
    [1503,"HCEP03730564","2023-10-14 00:15:00","11.7885","3.51142","25.731","0.974","7.43","0.765","3.323","0.09","0.12","30.4391","4.77245","10.9","0","SATNPRO1963","24.642","0.34514","5"],
    [1504,"HCEP03730564","2023-10-14 00:30:00","11.7854","3.51049","25.793","0.914","7.42","0.736","3.364","0.07","0.09","30.4326","4.77158","10.23","0","SATNPRO1963","24.822","0.34766","5"],
    [1505,"HCEP03730564","2023-10-14 00:45:00","11.788","3.51049","25.928","0.94","7.42","0.696","3.24","0.08","0.09","30.4304","4.77124","10.51","0","SATNPRO1963","24.796","0.34732","5"],
    [1506,"HCEP03730564","2023-10-14 01:00:00","11.7898","3.51037","26.074","0.981","7.42","0.713","3.264","0.06","0.08","30.4277","4.77084","10.97","0","SATNPRO1963","25.054","0.3509","5"],
    [1507,"HCEP03730564","2023-10-14 01:15:00","11.7859","3.50971","26.16","0.891","7.42","0.77","3.608","0.06","0.08","30.4246","4.77046","9.96","0","SATNPRO1963","23.668","0.33152","5"],
    [1508,"HCEP03730564","2023-10-14 01:30:00","11.7896","3.5097","26.369","0.911","7.42","0.847","3.856","0.15","0.07","30.4213","4.76995","10.19","0","SATNPRO1963","23.854","0.3341","5"],
    [1509,"HCEP03730564","2023-10-14 01:45:00","11.8176","3.5115","26.553","1.149","7.43","0.882","3.241","0.08","0.1","30.4158","4.76878","12.86","0","SATNPRO1963","24.054","0.33692","5"],
    [1510,"HCEP03730564","2023-10-14 02:00:00","11.8302","3.51261","26.665","1.222","7.44","0.926","3.527","0.06","0.15","30.416","4.76865","13.68","0","SATNPRO1963","24.39","0.34162","5"],
    [1511,"HCEP03730564","2023-10-14 02:15:00","11.8624","3.5154","26.755","1.463","7.45","1.084","3.147","0.32","0.17","30.4166","4.76828","16.38","0","SATNPRO1963","23.36","0.32722","5"],
    [1512,"HCEP03730564","2023-10-14 02:30:00","11.9169","3.52139","26.962","1.854","7.48","1.048","3.109","0.12","0.15","30.4295","4.76935","20.79","0","SATNPRO1963","23.624","0.3309","5"],
    [1513,"HCEP03730564","2023-10-14 02:45:00","11.9397","3.52385","27.148","2.067","7.51","1.025","2.794","0.12","0.2","30.4343","4.76973","23.19","0","SATNPRO1963","25.306","0.35448","5"],
    [1514,"HCEP03730564","2023-10-14 03:00:00","11.9303","3.52315","27.227","2.03","7.52","0.975","3","0.1","0.15","30.4353","4.77","22.78","0","SATNPRO1963","25.14","0.35212","5"],
    [1515,"HCEP03730564","2023-10-14 03:15:00","11.9198","3.52207","27.379","1.935","7.52","0.962","3.435","0.09","0.17","30.4335","4.7699","21.7","0","SATNPRO1963","26.708","0.3741","5"],
    [1516,"HCEP03730564","2023-10-14 03:30:00","11.9104","3.52103","27.461","1.808","7.51","0.932","3.941","0.1","0.25","30.4311","4.7697","20.28","0","SATNPRO1963","27.278","0.3821","5"],
    [1517,"HCEP03730564","2023-10-14 03:45:00","11.9078","3.52074","27.59","1.754","7.5","1.021","4.515","0.09","0.86","30.4304","4.76964","19.67","0","SATNPRO1963","27.918","0.39104","5"],
    [1518,"HCEP03730564","2023-10-14 04:00:00","11.9069","3.52064","27.651","1.724","7.5","1.007","4.317","0.16","0.22","30.4301","4.76962","19.33","0","SATNPRO1963","27.66","0.38742","5"],
    [1519,"HCEP03730564","2023-10-14 04:15:00","11.907","3.52054","27.635","1.712","7.5","1.136","4.741","0.18","0.41","30.4291","4.76948","19.19","0","SATNPRO1963","27.562","0.38608","5"],
    [1520,"HCEP03730564","2023-10-14 04:30:00","11.9064","3.52051","27.651","1.706","7.5","1.07","4.794","0.15","0.22","30.4293","4.76951","19.13","0","SATNPRO1963","26.844","0.37602","5"],
    [1521,"HCEP03730564","2023-10-14 04:45:00","11.9067","3.52047","27.673","1.707","7.49","1.071","4.424","0.15","0.29","30.4287","4.76942","19.13","0","SATNPRO1963","26.684","0.37378","5"],
    [1522,"HCEP03730564","2023-10-14 05:00:00","11.9061","3.52039","27.649","1.713","7.49","0.953","4.112","0.09","0.23","30.4284","4.7694","19.21","0","SATNPRO1963","26.483999999999998","0.37096","5"],
    [1523,"HCEP03730564","2023-10-14 05:15:00","11.9089","3.52075","27.531","1.742","7.5","0.919","3.832","0.09","0.1","30.4296","4.76951","19.53","0","SATNPRO1963","26.573999999999998","0.37222","5"],
    [1524,"HCEP03730564","2023-10-14 05:30:00","11.9112","3.52093","27.506","1.769","7.5","0.891","3.532","0.11","0.14","30.4294","4.76945","19.83","0","SATNPRO1963","26.306","0.36842","5"],
    [1525,"HCEP03730564","2023-10-14 05:45:00","11.9145","3.52148","27.369","1.808","7.5","0.931","3.584","0.1","0.22","30.4321","4.76978","20.28","0","SATNPRO1963","26.36","0.3692","5"],
    [1526,"HCEP03730564","2023-10-14 06:00:00","11.9301","3.52316","27.343","1.949","7.51","1","3.446","0.11","0.22","30.4354","4.77003","21.86","0","SATNPRO1963","26.514","0.3714","5"],
    [1527,"HCEP03730564","2023-10-14 06:15:00","11.8946","3.51967","27.227","1.759","7.51","1.068","4.446","0.07","0.23","30.431","4.7699","19.72","0","SATNPRO1963","26.744","0.37458","5"],
    [1528,"HCEP03730564","2023-10-14 06:30:00","11.8672","3.51702","27.108","1.505","7.49","1.099","4.455","0.16","0.27","30.428","4.76985","16.86","0","SATNPRO1963","26.83","0.37582","5"],
    [1529,"HCEP03730564","2023-10-14 06:45:00","11.8344","3.51385","26.961","1.249","7.47","0.993","4.22","0.11","0.23","30.4245","4.7698","13.99","0","SATNPRO1963","27.258","0.38178","5"],
    [1530,"HCEP03730564","2023-10-14 07:00:00","11.8129","3.51179","26.864","1.093","7.45","0.919","4.142","0.1","0.17","30.4222","4.76978","12.23","0","SATNPRO1963","27.712","0.38816","5"],
    [1531,"HCEP03730564","2023-10-14 07:15:00","11.8314","3.51347","26.78","1.214","7.45","0.947","3.312","0.13","0.13","30.4233","4.76967","13.59","0","SATNPRO1963","26.328","0.36874","5"],
    [1532,"HCEP03730564","2023-10-14 07:30:00","11.8669","3.51683","26.661","1.491","7.46","0.969","3.022","0.17","0.22","30.4267","4.76964","16.7","0","SATNPRO1963","25.518","0.35744","5"],
    [1533,"HCEP03730564","2023-10-14 07:45:00","11.8508","3.51493","26.522","1.52","7.47","1.03","3.387","0.15","0.15","30.4216","4.76913","17.02","0","SATNPRO1963","24.252","0.33968","5"],
    [1534,"HCEP03730564","2023-10-14 08:00:00","11.8239","3.51157","26.45","1.382","7.47","0.994","3.276","0.13","0.2","30.4113","4.76806","15.46","0","SATNPRO1963","23.764","0.33286","5"],
    [1535,"HCEP03730564","2023-10-14 08:15:00","11.7902","3.50912","26.273","1.164","7.45","0.982","3.348","0.09","0.26","30.4154","4.7691","13.01","0","SATNPRO1963","24.87","0.34836","5"],
    [1536,"HCEP03730564","2023-10-14 08:30:00","11.7983","3.51113","26.187","1.22","7.45","0.902","3.318","0.1","0.24","30.4281","4.77078","13.65","0","SATNPRO1963","26.054","0.36492","5"],
    [1537,"HCEP03730564","2023-10-14 08:45:00","11.7964","3.51154","26.14","1.172","7.45","0.892","3.202","0.11","0.18","30.4336","4.77158","13.11","0","SATNPRO1963","26.236","0.36748","5"],
    [1538,"HCEP03730564","2023-10-14 09:00:00","11.7976","3.51198","25.998","1.161","7.44","0.881","3.152","0.11","0.15","30.4369","4.77203","12.99","0","SATNPRO1963","25.962","0.36366","5"],
    [1539,"HCEP03730564","2023-10-14 09:15:00","11.7972","3.51119","25.885","1.177","7.44","0.962","3.154","0.17","0.21","30.4297","4.77101","13.17","0","SATNPRO1963","25.436","0.35628","5"],
    [1540,"HCEP03730564","2023-10-14 09:30:00","11.7955","3.51036","25.781","1.206","7.45","1.06","3.455","0.18","0.14","30.4232","4.7701","13.48","0","SATNPRO1963","25.93","0.36318","5"],
    [1541,"HCEP03730564","2023-10-14 09:45:00","11.7941","3.50976","25.648","1.23","7.45","1.109","3.561","0.16","0.21","30.4186","4.76947","13.75","0","SATNPRO1963","25.526","0.35752","5"],
    [1542,"HCEP03730564","2023-10-14 10:00:00","11.7949","3.50923","25.574","1.253","7.45","1.052","3.311","0.09","0.14","30.4129","4.76865","14.01","0","SATNPRO1963","25.508","0.35728","5"],
    [1543,"HCEP03730564","2023-10-14 10:15:00","11.7933","3.50848","25.534","1.269","7.45","1.175","3.465","0.2","0.19","30.4069","4.76782","14.19","0","SATNPRO1963","25.52","0.35748","5"],
    [1544,"HCEP03730564","2023-10-14 10:30:00","11.7904","3.50793","25.489","1.27","7.45","1.074","3.416","0.07","0.3","30.404","4.76745","14.2","0","SATNPRO1963","25.404","0.35584","5"],
    [1545,"HCEP03730564","2023-10-14 10:45:00","11.7864","3.50657","25.492","1.253","7.45","1.209","3.546","0.18","0.17","30.3942","4.76612","14.01","0","SATNPRO1963","25.614","0.35874","5"],
    [1546,"HCEP03730564","2023-10-14 11:00:00","11.7844","3.50575","25.578","1.233","7.45","1.226","3.843","0.14","0.36","30.388","4.76528","13.78","0","SATNPRO1963","25.95","0.3635","5"],
    [1547,"HCEP03730564","2023-10-14 11:15:00","11.7827","3.5057","25.655","1.221","7.45","1.284","3.735","0.14","0.17","30.3889","4.76543","13.65","0","SATNPRO1963","25.748","0.36066","5"],
    [1548,"HCEP03730564","2023-10-14 11:30:00","11.7819","3.50527","25.793","1.222","7.45","1.207","3.858","0.1","0.18","30.3852","4.76493","13.66","0","SATNPRO1963","25.854","0.3621","5"],
    [1549,"HCEP03730564","2023-10-14 11:45:00","11.7816","3.50502","25.923","1.249","7.45","1.183","3.415","0.1","0.38","30.3831","4.76464","13.96","0","SATNPRO1963","25.708","0.36008","5"],
    [1550,"HCEP03730564","2023-10-14 12:00:00","11.7814","3.50489","25.946","1.275","7.45","1.198","3.377","0.18","0.26","30.382","4.76449","14.25","0","SATNPRO1963","25.554","0.3579","5"],
    [1551,"HCEP03730564","2023-10-14 12:15:00","11.7819","3.50482","26.144","1.28","7.45","1.181","3.398","0.11","0.2","30.3808","4.76433","14.31","0","SATNPRO1963","25.408","0.35586","5"],
    [1552,"HCEP03730564","2023-10-14 12:30:00","11.7822","3.5049","26.171","1.288","7.45","1.193","3.424","0.26","0.21","30.3813","4.76439","14.4","0","SATNPRO1963","25.382","0.35554","5"],
    [1553,"HCEP03730564","2023-10-14 12:45:00","11.7833","3.50506","26.191","1.295","7.45","1.211","3.282","0.11","0.15","30.3819","4.76447","14.47","0","SATNPRO1963","25.564","0.35806","5"],
    [1554,"HCEP03730564","2023-10-14 13:00:00","11.7845","3.50541","26.451","1.297","7.45","1.131","3.153","0.14","0.17","30.3842","4.76479","14.5","0","SATNPRO1963","25.686","0.3598","5"],
    [1555,"HCEP03730564","2023-10-14 13:15:00","11.785","3.5057","26.56","1.293","7.45","1.116","2.941","0.08","0.1","30.3865","4.76512","14.46","0","SATNPRO1963","25.752","0.36072","5"],
    [1556,"HCEP03730564","2023-10-14 13:30:00","11.7842","3.50568","26.767","1.279","7.45","1.025","2.884","0.1","0.14","30.387","4.76521","14.31","0","SATNPRO1963","25.764","0.36084","5"],
    [1557,"HCEP03730564","2023-10-14 13:45:00","11.7827","3.50543","26.818","1.264","7.45","1.043","2.809","0.09","0.09","30.3858","4.76506","14.13","0","SATNPRO1963","25.876","0.36246","5"],
    [1558,"HCEP03730564","2023-10-14 14:00:00","11.781","3.505","26.96","1.254","7.45","1.009","2.78","0.1","0.08","30.383","4.76469","14.01","0","SATNPRO1963","25.57","0.35812","5"],
    [1559,"HCEP03730564","2023-10-14 14:15:00","11.7797","3.50459","27.162","1.243","7.45","1.034","2.871","0.06","0.17","30.3799","4.76429","13.9","0","SATNPRO1963","25.67","0.35954","5"],
    [1560,"HCEP03730564","2023-10-14 14:30:00","11.7775","3.50396","27.261","1.23","7.45","1.029","2.737","0.13","0.15","30.3756","4.76372","13.75","0","SATNPRO1963","25.598","0.35852","5"],
    [1561,"HCEP03730564","2023-10-14 14:45:00","11.7757","3.50357","27.482","1.213","7.45","1.125","3.055","0.14","0.36","30.3733","4.76343","13.55","0","SATNPRO1963","25.51","0.35734","5"],
    [1562,"HCEP03730564","2023-10-14 15:00:00","11.775","3.50324","27.565","1.212","7.45","0.982","2.748","0.11","0.14","30.3707","4.76307","13.55","0","SATNPRO1963","25.376","0.35544","5"],
    [1563,"HCEP03730564","2023-10-14 15:15:00","11.7744","3.50299","27.7","1.218","7.45","1.033","3.122","0.08","0.13","30.3687","4.76281","13.61","0","SATNPRO1963","25.204","0.353","5"],
    [1564,"HCEP03730564","2023-10-14 15:30:00","11.7738","3.50283","27.81","1.211","7.45","1.022","3.23","0.09","0.12","30.3676","4.76267","13.53","0","SATNPRO1963","25.002","0.3502","5"],
    [1565,"HCEP03730564","2023-10-14 15:45:00","11.7743","3.50304","27.821","1.205","7.45","1.058","2.871","0.14","0.19","30.3692","4.76289","13.47","0","SATNPRO1963","24.882","0.34852","5"],
    [1566,"HCEP03730564","2023-10-14 16:00:00","11.7765","3.50376","27.873","1.198","7.45","1.02","2.864","0.16","0.1","30.3743","4.76358","13.39","0","SATNPRO1963","25.03","0.35056","5"],
    [1567,"HCEP03730564","2023-10-14 16:15:00","11.7788","3.50452","27.914","1.208","7.45","0.986","2.502","0.09","0.13","30.3797","4.76432","13.5","0","SATNPRO1963","24.812","0.34748","5"],
    [1568,"HCEP03730564","2023-10-14 16:30:00","11.7803","3.50473","27.906","1.211","7.45","0.942","2.771","0.09","0.11","30.3805","4.76441","13.54","0","SATNPRO1963","24.85","0.34806","5"],
    [1569,"HCEP03730564","2023-10-14 16:45:00","11.7887","3.50487","27.869","1.223","7.45","0.954","2.849","0.12","0.14","30.375","4.76351","13.67","0","SATNPRO1963","24.868","0.34832","5"],
    [1570,"HCEP03730564","2023-10-14 17:00:00","11.7949","3.50449","27.789","1.222","7.45","0.994","3.489","0.1","0.13","30.3664","4.7622","13.67","0","SATNPRO1963","24.886","0.34854","5"],
    [1571,"HCEP03730564","2023-10-14 17:15:00","11.8336","3.50615","27.806","1.308","7.45","1.064","3.772","0.09","0.29","30.3508","4.75944","14.64","0","SATNPRO1963","24.962","0.34964","5"],
    [1572,"HCEP03730564","2023-10-14 17:30:00","11.8399","3.50756","27.7","1.324","7.46","1.096","4.626","0.09","0.2","30.3593","4.76056","14.82","0","SATNPRO1963","25.168","0.3525","5"],
    [1573,"HCEP03730564","2023-10-14 17:45:00","11.8585","3.50993","27.638","1.413","7.46","1.233","5.208","0.11","0.25","30.3669","4.76136","15.82","0","SATNPRO1963","25.082","0.35132","5"],
    [1574,"HCEP03730564","2023-10-14 18:00:00","11.9468","3.51954","27.56","1.818","7.48","1.296","5.902","0.11","0.18","30.3871","4.76298","20.39","0","SATNPRO1963","24.82","0.34768","5"],
    [1575,"HCEP03730564","2023-10-14 18:15:00","11.9552","3.52067","27.369","1.97","7.51","1.391","5.988","0.18","0.31","30.3911","4.76343","22.11","0","SATNPRO1963","24.868","0.34832","5"],
    [1576,"HCEP03730564","2023-10-14 18:30:00","11.9622","3.52155","27.281","2.013","7.52","1.209","5.113","0.13","0.21","30.394","4.76373","22.59","0","SATNPRO1963","24.874000000000002","0.34836","5"],
    [1577,"HCEP03730564","2023-10-14 18:45:00","11.9695","3.52259","27.087","2.037","7.52","1.223","5.525","0.08","0.28","30.398","4.76419","22.87","0","SATNPRO1963","25.266","0.3539","5"],
    [1578,"HCEP03730564","2023-10-14 19:00:00","11.9651","3.52258","26.951","2.038","7.52","1.204","5.576","0.12","0.34","30.4015","4.76474","22.87","0","SATNPRO1963","26.998","0.37816","5"],
    [1579,"HCEP03730564","2023-10-14 19:15:00","11.9638","3.52272","26.792","2.035","7.53","1.171","5.065","0.09","0.22","30.4041","4.7651","22.84","0","SATNPRO1963","27.112000000000002","0.37976","5"],
    [1580,"HCEP03730564","2023-10-14 19:30:00","11.9645","3.52293","26.566","2.036","7.53","1.157","5.193","0.16","0.14","30.4055","4.76529","22.86","0","SATNPRO1963","27.16","0.38044","5"],
    [1581,"HCEP03730564","2023-10-14 19:45:00","11.9678","3.52326","26.39","2.044","7.53","1.15","4.922","0.11","0.15","30.4061","4.76531","22.95","0","SATNPRO1963","27.132","0.38002","5"],
    [1582,"HCEP03730564","2023-10-14 20:00:00","11.9696","3.52319","26.21","2.039","7.53","1.104","4.836","0.1","0.14","30.4041","4.76499","22.89","0","SATNPRO1963","27.224","0.38132","5"],
    [1583,"HCEP03730564","2023-10-14 20:15:00","11.9644","3.52207","25.992","2.015","7.53","1.13","4.515","0.16","0.15","30.3976","4.76414","22.62","0","SATNPRO1963","27.456","0.38458","5"],
    [1584,"HCEP03730564","2023-10-14 20:30:00","11.9625","3.52142","25.799","2.002","7.53","1.108","4.662","0.09","0.11","30.3929","4.76349","22.47","0","SATNPRO1963","27.394","0.3837","5"],
    [1585,"HCEP03730564","2023-10-14 20:45:00","11.9625","3.52154","25.667","1.997","7.52","1.155","4.586","0.1","0.13","30.3942","4.76366","22.42","0","SATNPRO1963","27.43","0.38418","5"],
    [1586,"HCEP03730564","2023-10-14 21:00:00","11.9601","3.52153","25.471","1.998","7.52","1.085","4.135","0.14","0.25","30.3961","4.76396","22.42","0","SATNPRO1963","27.344","0.38302","5"],
    [1587,"HCEP03730564","2023-10-14 21:15:00","11.9587","3.5214","25.274","1.992","7.52","1.05","3.774","0.16","0.1","30.3961","4.76397","22.35","0","SATNPRO1963","27.03","0.37858","5"],
    [1588,"HCEP03730564","2023-10-14 21:30:00","11.9602","3.52174","25.14","1.999","7.52","0.966","3.795","0.07","0.13","30.3981","4.76422","22.43","0","SATNPRO1963","26.932","0.37724","5"],
    [1589,"HCEP03730564","2023-10-14 21:45:00","11.9539","3.52104","24.998","1.983","7.52","0.962","3.569","0.08","0.1","30.3967","4.7641","22.25","0","SATNPRO1963","27.084","0.37938","5"],
    [1590,"HCEP03730564","2023-10-14 22:00:00","11.9499","3.52038","24.852","1.962","7.52","0.975","3.629","0.08","0.09","30.3937","4.76373","22.02","0","SATNPRO1963","27.14","0.38016","5"],
    [1591,"HCEP03730564","2023-10-14 22:15:00","11.9552","3.52093","24.867","1.971","7.52","0.955","3.538","0.07","0.11","30.3947","4.76379","22.11","0","SATNPRO1963","27.014","0.37834","5"],
    [1592,"HCEP03730564","2023-10-14 22:30:00","11.9595","3.5213","24.787","1.983","7.52","1.006","3.729","0.12","0.09","30.3946","4.76372","22.26","0","SATNPRO1963","27.172","0.3806","5"],
    [1593,"HCEP03730564","2023-10-14 22:45:00","11.9412","3.5186","24.78","1.944","7.52","1.053","3.143","0.19","0.07","30.3836","4.76242","21.81","0","SATNPRO1963","27.022","0.37848","5"],
    [1594,"HCEP03730564","2023-10-14 23:00:00","11.9158","3.5149","24.868","1.827","7.51","0.904","2.808","0.09","0.07","30.3689","4.7607","20.49","0","SATNPRO1963","27.118","0.37984","5"],
    [1595,"HCEP03730564","2023-10-14 23:15:00","11.9506","3.51997","24.932","1.902","7.51","1.147","4.101","0.12","0.12","30.3891","4.76307","21.34","0","SATNPRO1963","27.036","0.37868","5"],
    [1596,"HCEP03730564","2023-10-14 23:30:00","11.9539","3.51987","24.916","1.937","7.52","1.069","4.038","0.08","0.09","30.3855","4.76252","21.73","0","SATNPRO1963","27.122","0.3799","5"],
    [1597,"HCEP03730564","2023-10-14 23:45:00","11.9449","3.51975","25.097","1.855","7.51","1.174","5.429","0.06","0.1","30.3917","4.76352","20.81","0","SATNPRO1963","26.902","0.3768","5"],
    [1598,"HCEP03730564","2023-10-15 00:00:00","11.9459","3.51982","25.076","1.848","7.51","1.137","5.224","0.08","0.16","30.3914","4.76347","20.74","0","SATNPRO1963","26.682","0.37374","5"],
    [1599,"HCEP03730564","2023-10-15 00:15:00","11.9466","3.51988","25.313","1.843","7.51","1.146","5.213","0.08","0.12","30.3913","4.76346","20.68","0","SATNPRO1963","26.784","0.37512","5"],
    [1600,"HCEP03730564","2023-10-15 00:30:00","11.9497","3.51971","25.364","1.856","7.51","1.15","4.849","0.13","0.13","30.3872","4.76283","20.82","0","SATNPRO1963","26.900000000000002","0.3768","5"],
    [1601,"HCEP03730564","2023-10-15 00:45:00","11.9501","3.51965","25.508","1.837","7.51","1.207","5.298","0.11","0.14","30.3863","4.76271","20.62","0","SATNPRO1963","26.326","0.36872","5"],
    [1602,"HCEP03730564","2023-10-15 01:00:00","11.9489","3.51978","25.707","1.82","7.51","1.137","5.546","0.08","0.12","30.3884","4.76304","20.42","0","SATNPRO1963","26.32","0.36862","5"],
    [1603,"HCEP03730564","2023-10-15 01:15:00","11.9475","3.52008","25.856","1.815","7.51","1.157","5.313","0.13","0.12","30.3924","4.76363","20.36","0","SATNPRO1963","26.336","0.36888","5"],
    [1604,"HCEP03730564","2023-10-15 01:30:00","11.9512","3.52016","25.949","1.857","7.51","1.049","4.546","0.07","0.09","30.39","4.76325","20.84","0","SATNPRO1963","26.352","0.36912","5"],
    [1605,"HCEP03730564","2023-10-15 01:45:00","11.9455","3.5205","26.146","1.881","7.51","1.04","4.444","0.08","0.12","30.398","4.76446","21.1","0","SATNPRO1963","26.25","0.36772","5"],
    [1606,"HCEP03730564","2023-10-15 02:00:00","11.9518","3.5202","26.29","1.894","7.51","0.982","3.844","0.09","0.11","30.3898","4.76322","21.25","0","SATNPRO1963","26.308","0.3685","5"],
    [1607,"HCEP03730564","2023-10-15 02:15:00","11.9567","3.52","26.435","1.938","7.52","1.028","3.844","0.08","0.11","30.3839","4.76233","21.74","0","SATNPRO1963","26.272000000000002","0.36798","5"],
    [1608,"HCEP03730564","2023-10-15 02:30:00","11.9556","3.52003","26.559","1.922","7.52","1.004","3.79","0.09","0.11","30.385","4.7625","21.57","0","SATNPRO1963","26.486","0.37094","5"],
    [1609,"HCEP03730564","2023-10-15 02:45:00","11.9474","3.52005","26.814","1.899","7.52","0.921","3.454","0.07","0.06","30.3918","4.76361","21.31","0","SATNPRO1963","26.652","0.37336","5"],
    [1610,"HCEP03730564","2023-10-15 03:00:00","11.9448","3.51981","26.955","1.896","7.51","0.879","3.403","0.08","0.07","30.3915","4.76361","21.27","0","SATNPRO1963","26.562","0.37204","5"],
    [1611,"HCEP03730564","2023-10-15 03:15:00","11.9206","3.5179","27.122","1.745","7.51","1.076","4.461","0.14","0.1","30.3929","4.76415","19.57","0","SATNPRO1963","26.604","0.37266","5"],
    [1612,"HCEP03730564","2023-10-15 03:30:00","11.9027","3.51559","27.239","1.655","7.5","1.052","4.411","0.07","0.13","30.3853","4.76333","18.55","0","SATNPRO1963","26.702","0.37402","5"],
    [1613,"HCEP03730564","2023-10-15 03:45:00","11.9052","3.51559","27.422","1.647","7.49","1.018","3.822","0.09","0.17","30.3832","4.76301","18.46","0","SATNPRO1963","26.754","0.37474","5"],
    [1614,"HCEP03730564","2023-10-15 04:00:00","11.8925","3.51452","27.533","1.596","7.49","1.044","4.036","0.12","0.22","30.3832","4.76319","17.89","0","SATNPRO1963","26.762","0.37484","5"],
    [1615,"HCEP03730564","2023-10-15 04:15:00","11.9063","3.51571","27.627","1.638","7.49","1.043","3.721","0.1","0.14","30.3834","4.76303","18.36","0","SATNPRO1963","26.137999999999998","0.36606","5"],
    [1616,"HCEP03730564","2023-10-15 04:30:00","11.9338","3.51861","27.671","1.785","7.5","1.026","3.806","0.11","0.13","30.3887","4.7634","20.02","0","SATNPRO1963","25.96","0.36362","5"],
    [1617,"HCEP03730564","2023-10-15 04:45:00","11.9439","3.51938","27.708","1.813","7.5","1.066","4.053","0.09","0.16","30.3879","4.76314","20.34","0","SATNPRO1963","25.87","0.36234","5"],
    [1618,"HCEP03730564","2023-10-15 05:00:00","11.9401","3.51885","27.783","1.752","7.5","1.179","4.937","0.15","0.24","30.3859","4.76292","19.65","0","SATNPRO1963","25.588","0.35838","5"],
    [1619,"HCEP03730564","2023-10-15 05:15:00","11.9735","3.51761","27.78","2.004","7.51","1.206","3.196","0.27","0.28","30.346800000000002","4.75693","22.49","0","SATNPRO1963","26.032","0.36462","5"],
    [1620,"HCEP03730564","2023-10-15 05:30:00","11.9238","3.51705","27.777","1.741","7.51","1.158","4.585","0.24","0.21","30.3818","4.76257","19.52","0","SATNPRO1963","26.688000000000002","0.37378","5"],
    [1621,"HCEP03730564","2023-10-15 05:45:00","11.913","3.51569","27.734","1.626","7.5","1.202","4.709","0.15","0.28","30.3777","4.76213","18.23","0","SATNPRO1963","26.376","0.36946","5"],
    [1622,"HCEP03730564","2023-10-15 06:00:00","11.9116","3.51406","27.701","1.599","7.49","1.166","4.205","0.14","0.2","30.3632","4.7601","17.92","0","SATNPRO1963","25.822","0.36164","5"],
    [1623,"HCEP03730564","2023-10-15 06:15:00","11.8778","3.51099","27.636","1.438","7.48","1.212","4.468","0.22","0.16","30.3613","4.76031","16.11","0","SATNPRO1963","26.85","0.37606","5"],
    [1624,"HCEP03730564","2023-10-15 06:30:00","11.8679","3.51","27.574","1.359","7.47","1.209","4.662","0.2","0.31","30.3599","4.76025","15.22","0","SATNPRO1963","25.93","0.36322","5"],
    [1625,"HCEP03730564","2023-10-15 06:45:00","11.8649","3.50928","27.492","1.34","7.47","1.149","4.332","0.15","0.21","30.3554","4.75964","15","0","SATNPRO1963","25.464","0.35662","5"],
    [1626,"HCEP03730564","2023-10-15 07:00:00","11.8621","3.50934","27.409","1.326","7.46","1.158","4.208","0.12","0.16","30.3583","4.76009","14.85","0","SATNPRO1963","25.296","0.3543","5"],
    [1627,"HCEP03730564","2023-10-15 07:15:00","11.8611","3.50934","27.327","1.319","7.46","1.118","3.935","0.13","0.18","30.3592","4.76023","14.77","0","SATNPRO1963","24.572","0.34416","5"],
    [1628,"HCEP03730564","2023-10-15 07:30:00","11.8601","3.50928","27.239","1.317","7.46","1.04","4.088","0.15","0.39","30.3594","4.76027","14.74","0","SATNPRO1963","24.426","0.34212","5"],
    [1629,"HCEP03730564","2023-10-15 07:45:00","11.8588","3.50911","27.145","1.318","7.46","1.093","3.784","0.25","0.39","30.3589","4.76021","14.75","0","SATNPRO1963","24.45","0.34248","5"],
    [1630,"HCEP03730564","2023-10-15 08:00:00","11.8586","3.50898","27.043","1.317","7.46","1.113","3.251","0.36","0.13","30.3578","4.76005","14.75","0","SATNPRO1963","24.782","0.34712","5"],
    [1631,"HCEP03730564","2023-10-15 08:15:00","11.8577","3.50853","26.933","1.324","7.46","1.097","3.509","0.14","0.19","30.3543","4.75956","14.83","0","SATNPRO1963","24.338","0.34084","5"],
    [1632,"HCEP03730564","2023-10-15 08:30:00","11.8582","3.50873","26.805","1.324","7.46","0.989","3.383","0.15","0.19","30.3558","4.75976","14.82","0","SATNPRO1963","24.494","0.34306","5"],
    [1633,"HCEP03730564","2023-10-15 08:45:00","11.8588","3.5088","26.687","1.325","7.46","1.043","3.342","0.13","0.27","30.3562","4.75979","14.84","0","SATNPRO1963","24.376","0.34148","5"],
    [1634,"HCEP03730564","2023-10-15 09:00:00","11.8607","3.5085","26.553","1.334","7.46","0.988","3.251","0.23","0.17","30.3518","4.75914","14.93","0","SATNPRO1963","24.612000000000002","0.34474","5"],
    [1635,"HCEP03730564","2023-10-15 09:15:00","11.8533","3.50899","26.417","1.302","7.46","0.969","3.578","0.2","0.4","30.3625","4.76076","14.57","0","SATNPRO1963","24.454","0.34254","5"],
    [1636,"HCEP03730564","2023-10-15 09:30:00","11.8542","3.5083","26.281","1.305","7.46","0.968","3.237","0.21","0.28","30.3552","4.7597","14.61","0","SATNPRO1963","24.498","0.34316","5"],
    [1637,"HCEP03730564","2023-10-15 09:45:00","11.8573","3.50819","26.153","1.315","7.46","1.032","3.03","0.28","0.17","30.3517","4.75916","14.72","0","SATNPRO1963","24.46","0.34256","5"],
    [1638,"HCEP03730564","2023-10-15 10:00:00","11.8569","3.50852","26.03","1.314","7.46","0.914","2.933","0.16","0.14","30.3553","4.75966","14.71","0","SATNPRO1963","24.392","0.34164","5"],
    [1639,"HCEP03730564","2023-10-15 10:15:00","11.8509","3.50841","25.928","1.284","7.46","0.99","2.983","0.17","0.14","30.3591","4.76028","14.37","0","SATNPRO1963","24.28","0.34014","5"],
    [1640,"HCEP03730564","2023-10-15 10:30:00","11.8408","3.5076","25.857","1.23","7.45","0.806","2.941","0.15","0.16","30.3595","4.76047","13.77","0","SATNPRO1963","24.448","0.34242","5"],
    [1641,"HCEP03730564","2023-10-15 10:45:00","11.8336","3.50703","25.814","1.194","7.45","1.493","2.898","2.44","0.17","30.36","4.76064","13.36","0","SATNPRO1963","24.396","0.3417","5"],
    [1642,"HCEP03730564","2023-10-15 11:00:00","11.8364","3.50711","25.819","1.203","7.45","0.733","2.782","0.22","0.14","30.3585","4.76039","13.46","0","SATNPRO1963","24.53","0.34356","5"],
    [1643,"HCEP03730564","2023-10-15 11:15:00","11.8341","3.50711","25.836","1.21","7.45","0.962","2.908","0.21","0.21","30.3604","4.76069","13.53","0","SATNPRO1963","24.048000000000002","0.33682","5"],
    [1644,"HCEP03730564","2023-10-15 11:30:00","11.8358","3.50722","25.873","1.225","7.45","1.096","2.62","0.72","0.14","30.36","4.76061","13.7","0","SATNPRO1963","24.132","0.338","5"],
    [1645,"HCEP03730564","2023-10-15 11:45:00","11.8371","3.50733","25.924","1.259","7.45","0.937","2.873","0.18","0.15","30.3599","4.76059","14.09","0","SATNPRO1963","23.848","0.33404","5"],
    [1646,"HCEP03730564","2023-10-15 12:00:00","11.8413","3.50745","26.001","1.264","7.45","0.897","2.39","0.2","0.15","30.3576","4.76021","14.15","0","SATNPRO1963","23.914","0.33498","5"],
    [1647,"HCEP03730564","2023-10-15 12:15:00","11.8448","3.50751","26.098","1.286","7.45","0.909","2.555","0.25","0.38","30.3554","4.75985","14.39","0","SATNPRO1963","24.04","0.33668","5"],
    [1648,"HCEP03730564","2023-10-15 12:30:00","11.8469","3.50756","26.195","1.294","7.45","0.847","2.292","0.26","0.13","30.3541","4.75964","14.48","0","SATNPRO1963","23.896","0.33474","5"],
    [1649,"HCEP03730564","2023-10-15 12:45:00","11.8477","3.5076","26.294","1.3","7.46","0.878","2.28","0.3","0.09","30.3538","4.75959","14.55","0","SATNPRO1963","23.483999999999998","0.3289","5"],
    [1650,"HCEP03730564","2023-10-15 13:00:00","11.8488","3.5077","26.396","1.303","7.46","0.872","2.506","0.14","0.25","30.3538","4.75959","14.59","0","SATNPRO1963","24.152","0.33824","5"],
    [1651,"HCEP03730564","2023-10-15 13:15:00","11.8462","3.50776","26.52","1.296","7.46","1.064","2.381","0.52","0.1","30.3565","4.76001","14.51","0","SATNPRO1963","24.198","0.33894","5"],
    [1652,"HCEP03730564","2023-10-15 13:30:00","11.8347","3.50746","26.647","1.112","7.45","1.26","3.923","0.68","0.38","30.3629","4.76109","12.45","0","SATNPRO1963","24.604","0.34466","5"],
    [1653,"HCEP03730564","2023-10-15 13:45:00","11.8393","3.50818","26.778","1.088","7.44","1.14","4.405","0.21","0.2","30.366","4.76146","12.18","0","SATNPRO1963","24.09","0.33742","5"],
    [1654,"HCEP03730564","2023-10-15 14:00:00","11.8664","3.51089","26.913","1.18","7.44","1.111","4.572","0.15","0.28","30.3699","4.76163","13.22","0","SATNPRO1963","24.342","0.34094","5"],
    [1655,"HCEP03730564","2023-10-15 14:15:00","11.8886","3.51311","27.045","1.295","7.45","1.168","4.691","0.15","0.22","30.3731","4.76178","14.51","0","SATNPRO1963","24.436","0.34226","5"],
    [1656,"HCEP03730564","2023-10-15 14:30:00","11.9062","3.51526","27.168","1.402","7.46","1.202","5.536","0.11","0.37","30.3793","4.76243","15.72","0","SATNPRO1963","23.12","0.32382","5"],
    [1657,"HCEP03730564","2023-10-15 14:45:00","11.902","3.51504","27.312","1.432","7.46","1.233","5.459","0.29","0.3","30.3806","4.76268","16.05","0","SATNPRO1963","22.791999999999998","0.31922","5"],
    [1658,"HCEP03730564","2023-10-15 15:00:00","11.8992","3.51497","27.433","1.45","7.47","1.16","5.994","0.09","0.35","30.3821","4.76294","16.25","0","SATNPRO1963","24","0.33614","5"],
    [1659,"HCEP03730564","2023-10-15 15:15:00","11.8829","3.51371","27.539","1.434","7.47","1.037","4.88","0.09","0.38","30.3833","4.76333","16.07","0","SATNPRO1963","24.184","0.33876","5"],
    [1660,"HCEP03730564","2023-10-15 15:30:00","11.861","3.51176","27.628","1.359","7.47","1.025","4.861","0.11","0.48","30.3824","4.76352","15.22","0","SATNPRO1963","24.758","0.34678","5"],
    [1661,"HCEP03730564","2023-10-15 15:45:00","11.8366","3.50953","27.722","1.261","7.46","1.019","4.237","0.18","0.43","30.3809","4.76365","14.12","0","SATNPRO1963","24.81","0.34754","5"],
    [1662,"HCEP03730564","2023-10-15 16:00:00","11.832","3.50953","27.79","1.235","7.45","1.038","4.297","0.2","0.59","30.3845","4.76423","13.82","0","SATNPRO1963","25.082","0.35132","5"],
    [1663,"HCEP03730564","2023-10-15 16:15:00","11.8264","3.50935","27.837","1.222","7.45","1.005","4.557","0.12","0.35","30.3874","4.76472","13.68","0","SATNPRO1963","25.204","0.35302","5"],
    [1664,"HCEP03730564","2023-10-15 16:30:00","11.8257","3.50946","27.879","1.227","7.45","0.963","4.389","0.14","0.41","30.3889","4.76495","13.73","0","SATNPRO1963","24.864","0.34828","5"],
    [1665,"HCEP03730564","2023-10-15 16:45:00","11.8275","3.50975","27.891","1.232","7.45","0.923","4.474","0.15","0.48","30.3903","4.76512","13.79","0","SATNPRO1963","24.646","0.34522","5"],
    [1666,"HCEP03730564","2023-10-15 17:00:00","11.8273","3.50989","27.871","1.228","7.45","0.929","4.431","0.14","0.41","30.3918","4.76534","13.74","0","SATNPRO1963","24.628","0.34494","5"],
    [1667,"HCEP03730564","2023-10-15 17:15:00","11.8296","3.51003","27.776","1.247","7.45","0.954","4.075","0.14","0.19","30.3913","4.76523","13.96","0","SATNPRO1963","24.562","0.34404","5"],
    [1668,"HCEP03730564","2023-10-15 17:30:00","11.8314","3.51","27.706","1.266","7.45","0.892","3.873","0.17","0.31","30.3896","4.76496","14.17","0","SATNPRO1963","24.758","0.34682","5"],
    [1669,"HCEP03730564","2023-10-15 17:45:00","11.8348","3.51037","27.66","1.267","7.45","0.911","3.963","0.17","0.31","30.3904","4.76502","14.18","0","SATNPRO1963","24.856","0.34816","5"],
    [1670,"HCEP03730564","2023-10-15 18:00:00","11.8353","3.51048","27.547","1.291","7.45","0.827","3.448","0.12","0.24","30.391","4.76509","14.45","0","SATNPRO1963","24.836000000000002","0.34786","5"],
    [1671,"HCEP03730564","2023-10-15 18:15:00","11.8363","3.51064","27.447","1.259","7.45","1.014","4.804","0.15","0.43","30.3919","4.76519","14.09","0","SATNPRO1963","24.848","0.348","5"],
    [1672,"HCEP03730564","2023-10-15 18:30:00","11.8336","3.51047","27.308","1.25","7.45","0.926","4.665","0.09","0.31","30.3925","4.76531","14","0","SATNPRO1963","24.944","0.34936","5"],
    [1673,"HCEP03730564","2023-10-15 18:45:00","11.8344","3.51148","27.18","1.298","7.45","0.909","4.257","0.15","0.25","30.4015","4.76657","14.53","0","SATNPRO1963","25.006","0.35026","5"],
    [1674,"HCEP03730564","2023-10-15 19:00:00","11.8848","3.52057","27.033","1.678","7.47","0.813","3.511","0.14","0.24","30.4478","4.7724","18.81","0","SATNPRO1963","25.046","0.3508","5"],
    [1675,"HCEP03730564","2023-10-15 19:15:00","11.8941","3.52228","26.866","1.841","7.49","0.784","3.083","0.11","0.26","30.4566","4.77349","20.65","0","SATNPRO1963","24.868","0.3483","5"],
    [1676,"HCEP03730564","2023-10-15 19:30:00","11.896","3.52269","26.718","1.874","7.5","0.815","3.1","0.14","0.11","30.4591","4.77381","21.01","0","SATNPRO1963","24.838","0.34788","5"],
    [1677,"HCEP03730564","2023-10-15 19:45:00","11.8992","3.52336","26.527","1.886","7.51","0.797","3.829","0.08","0.23","30.463","4.7743","21.15","0","SATNPRO1963","25.148","0.35226","5"],
    [1678,"HCEP03730564","2023-10-15 20:00:00","11.9061","3.52481","26.364","1.931","7.51","0.78","3.648","0.1","0.31","30.4713","4.77538","21.66","0","SATNPRO1963","27.326","0.38276","5"],
    [1679,"HCEP03730564","2023-10-15 20:15:00","11.9121","3.52544","26.166","1.983","7.52","0.793","3.039","0.15","0.17","30.4725","4.77546","22.25","0","SATNPRO1963","27.826","0.38976","5"],
    [1680,"HCEP03730564","2023-10-15 20:30:00","11.912","3.52555","25.962","1.979","7.52","0.802","3.042","0.2","0.2","30.4737","4.77562","22.2","0","SATNPRO1963","28.176000000000002","0.39466","5"],
    [1681,"HCEP03730564","2023-10-15 20:45:00","11.9147","3.52605","25.75","2.011","7.52","0.829","2.78","0.2","0.15","30.4764","4.77595","22.56","0","SATNPRO1963","27.924","0.39112","5"],
    [1682,"HCEP03730564","2023-10-15 21:00:00","11.9252","3.52525","25.542","2.146","7.53","0.687","2.284","0.09","0.15","30.4602","4.7735","24.08","0","SATNPRO1963","28.288","0.39624","5"],
    [1683,"HCEP03730564","2023-10-15 21:15:00","11.9261","3.52625","25.331","2.167","7.54","0.742","2.035","0.17","0.13","30.4692","4.77475","24.32","0","SATNPRO1963","28.742","0.40256","5"],
    [1684,"HCEP03730564","2023-10-15 21:30:00","11.9273","3.52658","25.127","2.182","7.54","0.625","1.732","0.12","0.09","30.4714","4.77503","24.48","0","SATNPRO1963","28.406","0.39788","5"],
    [1685,"HCEP03730564","2023-10-15 21:45:00","11.9307","3.52614","24.951","2.228","7.54","0.737","1.296","0.22","0.07","30.4645","4.77399","25","0","SATNPRO1963","28.628","0.40104","5"],
    [1686,"HCEP03730564","2023-10-15 22:00:00","11.9321","3.52682","24.791","2.236","7.55","0.566","1.437","0.19","0.1","30.47","4.77474","25.09","0","SATNPRO1963","28.954","0.40556","5"],
    [1687,"HCEP03730564","2023-10-15 22:15:00","11.9322","3.52696","24.661","2.234","7.55","0.646","1.45","0.14","0.17","30.4712","4.77491","25.07","0","SATNPRO1963","28.982","0.40594","5"],
    [1688,"HCEP03730564","2023-10-15 22:30:00","11.9338","3.52783","24.565","2.241","7.55","0.546","1.344","0.13","0.08","30.4783","4.77587","25.15","0","SATNPRO1963","29.036","0.40672","5"],
    [1689,"HCEP03730564","2023-10-15 22:45:00","11.9345","3.52923","24.502","2.206","7.55","0.706","1.942","0.31","0.3","30.4912","4.77769","24.75","0","SATNPRO1963","29.09","0.40744","5"],
    [1690,"HCEP03730564","2023-10-15 23:00:00","11.9352","3.52955","24.488","2.182","7.55","0.614","1.799","0.16","0.09","30.4938","4.77803","24.49","0","SATNPRO1963","29.061999999999998","0.40708","5"],
    [1691,"HCEP03730564","2023-10-15 23:15:00","11.9265","3.52897","24.523","2.118","7.54","0.653","2.447","0.1","0.19","30.4952","4.77837","23.77","0","SATNPRO1963","29.137999999999998","0.40814","5"],
    [1692,"HCEP03730564","2023-10-15 23:30:00","11.9255","3.52898","24.535","2.102","7.54","0.679","2.688","0.19","0.37","30.4962","4.77852","23.59","0","SATNPRO1963","29.134","0.4081","5"],
    [1693,"HCEP03730564","2023-10-15 23:45:00","11.9244","3.52894","24.574","2.087","7.54","0.616","2.165","0.1","0.12","30.4966","4.7786","23.42","0","SATNPRO1963","29.368000000000002","0.41134","5"],
    [1694,"HCEP03730564","2023-10-16 00:00:00","11.924","3.52888","24.646","2.072","7.54","0.625","2.48","0.21","0.13","30.4964","4.77858","23.25","0","SATNPRO1963","29.169999999999998","0.40856","5"],
    [1695,"HCEP03730564","2023-10-16 00:15:00","11.9212","3.52864","24.754","2.005","7.53","0.819","3.767","0.11","0.24","30.4963","4.77861","22.49","0","SATNPRO1963","29.04","0.40674","5"],
    [1696,"HCEP03730564","2023-10-16 00:30:00","11.9181","3.52831","24.864","1.912","7.53","0.852","4.79","0.13","0.31","30.4957","4.77857","21.45","0","SATNPRO1963","28.922","0.40508","5"],
    [1697,"HCEP03730564","2023-10-16 00:45:00","11.9198","3.5288","24.976","1.919","7.52","0.84","4.34","0.13","0.24","30.499","4.77901","21.53","0","SATNPRO1963","28.984","0.40598","5"],
    [1698,"HCEP03730564","2023-10-16 01:00:00","11.92","3.52907","25.104","1.898","7.52","0.975","5.434","0.29","0.56","30.5013","4.77935","21.3","0","SATNPRO1963","28.864","0.40432","5"],
    [1699,"HCEP03730564","2023-10-16 01:15:00","11.9246","3.52988","25.249","1.95","7.52","1.103","4.243","0.74","0.52","30.5052","4.77984","21.88","0","SATNPRO1963","28.424","0.39812","5"],
    [1700,"HCEP03730564","2023-10-16 01:30:00","11.9265","3.53041","25.393","1.994","7.53","0.884","4.187","0.15","0.36","30.5087","4.78032","22.38","0","SATNPRO1963","27.816","0.3896","5"],
    [1701,"HCEP03730564","2023-10-16 01:45:00","11.929","3.53071","25.562","2.032","7.53","0.783","3.537","0.14","0.3","30.5095","4.7804","22.81","0","SATNPRO1963","28.208","0.3951","5"],
    [1702,"HCEP03730564","2023-10-16 02:00:00","11.9278","3.53039","25.709","2.04","7.53","0.686","3.274","0.05","0.11","30.5073","4.78012","22.89","0","SATNPRO1963","28.008","0.3923","5"],
    [1703,"HCEP03730564","2023-10-16 02:15:00","11.9288","3.53081","25.881","2.034","7.53","0.751","3.401","0.07","0.15","30.5105","4.78056","22.83","0","SATNPRO1963","28.433999999999997","0.3983","5"],
    [1704,"HCEP03730564","2023-10-16 02:30:00","11.9284","3.53084","26.063","2.018","7.53","0.673","3.197","0.08","0.1","30.511","4.78065","22.65","0","SATNPRO1963","28.832","0.40382","5"],
    [1705,"HCEP03730564","2023-10-16 02:45:00","11.9283","3.53095","26.228","1.994","7.53","0.759","3.669","0.07","0.12","30.5121","4.78082","22.37","0","SATNPRO1963","28.824","0.4037","5"],
    [1706,"HCEP03730564","2023-10-16 03:00:00","11.9306","3.53142","26.419","2.008","7.53","0.74","3.737","0.12","0.19","30.5147","4.78116","22.54","0","SATNPRO1963","28.786","0.4032","5"],
    [1707,"HCEP03730564","2023-10-16 03:15:00","11.9293","3.53136","26.628","1.984","7.53","0.855","4.463","0.11","0.21","30.5151","4.78125","22.26","0","SATNPRO1963","28.796","0.4033","5"],
    [1708,"HCEP03730564","2023-10-16 03:30:00","11.9292","3.53118","26.803","1.981","7.53","0.759","3.871","0.08","0.14","30.5134","4.78101","22.24","0","SATNPRO1963","28.734","0.4025","5"],
    [1709,"HCEP03730564","2023-10-16 03:45:00","11.9294","3.53083","26.983","2.023","7.53","0.72","3.126","0.09","0.16","30.5098","4.78051","22.71","0","SATNPRO1963","28.59","0.40046","5"],
    [1710,"HCEP03730564","2023-10-16 04:00:00","11.9261","3.53055","27.142","1.977","7.53","0.848","4.335","0.18","0.12","30.5097","4.78056","22.19","0","SATNPRO1963","28.576","0.40028","5"],
    [1711,"HCEP03730564","2023-10-16 04:15:00","11.9265","3.53009","27.251","2.008","7.53","0.686","3.045","0.07","0.14","30.5049","4.77989","22.53","0","SATNPRO1963","28.308","0.39648","5"],
    [1712,"HCEP03730564","2023-10-16 04:30:00","11.9267","3.53062","27.454","1.986","7.53","0.78","4.142","0.08","0.16","30.5097","4.78057","22.29","0","SATNPRO1963","28.32","0.39668","5"],
    [1713,"HCEP03730564","2023-10-16 04:45:00","11.9298","3.53152","27.551","1.971","7.53","0.814","4.12","0.09","0.13","30.5159","4.7814","22.12","0","SATNPRO1963","28.608","0.40072","5"],
    [1714,"HCEP03730564","2023-10-16 05:00:00","11.9286","3.53114","27.66","1.97","7.53","0.711","3.765","0.06","0.11","30.5131","4.78104","22.11","0","SATNPRO1963","28.304","0.39644","5"],
    [1715,"HCEP03730564","2023-10-16 05:15:00","11.9267","3.53046","27.732","1.983","7.53","0.74","3.194","0.12","0.13","30.5081","4.78035","22.25","0","SATNPRO1963","28.662","0.40146","5"],
    [1716,"HCEP03730564","2023-10-16 05:30:00","11.9272","3.53005","27.764","2.042","7.53","0.578","2.119","0.1","0.06","30.5038","4.77974","22.92","0","SATNPRO1963","28.366","0.3973","5"],
    [1717,"HCEP03730564","2023-10-16 05:45:00","11.9285","3.53036","27.792","2.061","7.53","0.633","2.118","0.12","0.1","30.5057","4.78","23.14","0","SATNPRO1963","28.212","0.39518","5"],
    [1718,"HCEP03730564","2023-10-16 06:00:00","11.9286","3.53044","27.802","2.063","7.53","0.585","2.23","0.09","0.06","30.5064","4.78009","23.15","0","SATNPRO1963","28.48","0.39894","5"],
    [1719,"HCEP03730564","2023-10-16 06:15:00","11.9284","3.53043","27.813","2.054","7.53","0.626","2.404","0.12","0.16","30.5063","4.78009","23.05","0","SATNPRO1963","28.664","0.40152","5"],
    [1720,"HCEP03730564","2023-10-16 06:30:00","11.9267","3.53006","27.712","2.041","7.53","0.564","2.309","0.05","0.18","30.5043","4.77982","22.91","0","SATNPRO1963","29.014000000000003","0.40638","5"],
    [1721,"HCEP03730564","2023-10-16 06:45:00","11.9254","3.52967","27.735","2.037","7.53","0.554","2.052","0.04","0.08","30.5016","4.77946","22.86","0","SATNPRO1963","29.148","0.40828","5"],
    [1722,"HCEP03730564","2023-10-16 07:00:00","11.9235","3.52845","27.693","2.04","7.53","0.565","2.073","0.06","0.16","30.4915","4.77807","22.89","0","SATNPRO1963","28.896","0.40474","5"],
    [1723,"HCEP03730564","2023-10-16 07:15:00","11.919","3.52679","27.64","2.031","7.53","0.668","2.308","0.14","0.18","30.4793","4.7764","22.79","0","SATNPRO1963","29.056","0.40698","5"],
    [1724,"HCEP03730564","2023-10-16 07:30:00","11.916","3.52565","27.567","2.033","7.53","0.66","2.533","0.07","0.1","30.4708","4.77523","22.81","0","SATNPRO1963","28.738","0.40256","5"],
    [1725,"HCEP03730564","2023-10-16 07:45:00","11.9182","3.52683","27.527","1.986","7.53","0.768","3.6","0.09","0.12","30.4803","4.77654","22.28","0","SATNPRO1963","28.778","0.40306","5"],
    [1726,"HCEP03730564","2023-10-16 08:00:00","11.9177","3.52878","27.443","1.807","7.52","0.807","5.155","0.04","0.26","30.4995","4.77925","20.27","0","SATNPRO1963","28.738","0.40252","5"],
    [1727,"HCEP03730564","2023-10-16 08:15:00","11.9171","3.52873","27.381","1.763","7.51","0.85","5.375","0.06","0.12","30.4995","4.77925","19.78","0","SATNPRO1963","28.462","0.39864","5"],
    [1728,"HCEP03730564","2023-10-16 08:30:00","11.9162","3.52823","27.261","1.757","7.51","0.93","6.233","0.05","0.29","30.4955","4.7787","19.71","0","SATNPRO1963","28.328","0.39678","5"],
    [1729,"HCEP03730564","2023-10-16 08:45:00","11.916","3.52815","27.176","1.747","7.51","0.994","6.827","0.06","0.29","30.495","4.77863","19.6","0","SATNPRO1963","28.23","0.39542","5"],
    [1730,"HCEP03730564","2023-10-16 09:00:00","11.9179","3.52885","27.138","1.742","7.51","0.83","5.811","0.06","0.46","30.5001","4.77931","19.55","0","SATNPRO1963","27.509999999999998","0.3853","5"],
    [1731,"HCEP03730564","2023-10-16 09:15:00","11.9183","3.5286","27.003","1.764","7.51","0.848","5.471","0.06","0.23","30.4974","4.77893","19.8","0","SATNPRO1963","27.5","0.38516","5"],
    [1732,"HCEP03730564","2023-10-16 09:30:00","11.9187","3.52884","26.93","1.771","7.51","0.836","5.526","0.07","0.36","30.4995","4.77921","19.87","0","SATNPRO1963","27.37","0.38336","5"],
    [1733,"HCEP03730564","2023-10-16 09:45:00","11.9125","3.52683","26.821","1.737","7.51","0.875","5.146","0.08","0.18","30.4853","4.77729","19.48","0","SATNPRO1963","27.352","0.3831","5"],
    [1734,"HCEP03730564","2023-10-16 10:00:00","11.9164","3.52798","26.718","1.731","7.5","0.856","5.507","0.09","0.23","30.4932","4.77834","19.41","0","SATNPRO1963","27.444","0.3844","5"],
    [1735,"HCEP03730564","2023-10-16 10:15:00","11.9226","3.53007","26.567","1.749","7.5","0.897","5.837","0.11","0.44","30.5082","4.78036","19.62","0","SATNPRO1963","27.528","0.3856","5"],
    [1736,"HCEP03730564","2023-10-16 10:30:00","11.929","3.53158","26.43","1.808","7.51","0.83","5.577","0.05","0.14","30.5175","4.78158","20.29","0","SATNPRO1963","27.686","0.3878","5"],
    [1737,"HCEP03730564","2023-10-16 10:45:00","11.9349","3.53291","26.36","1.857","7.51","0.841","5.376","0.06","0.15","30.5255","4.78262","20.84","0","SATNPRO1963","27.538","0.38572","5"],
    [1738,"HCEP03730564","2023-10-16 11:00:00","11.9368","3.53319","26.342","1.901","7.52","0.776","5.071","0.05","0.18","30.5266","4.78276","21.34","0","SATNPRO1963","27.374","0.3834","5"],
    [1739,"HCEP03730564","2023-10-16 11:15:00","11.9352","3.53259","26.273","1.904","7.52","0.744","4.562","0.07","0.11","30.5222","4.78215","21.37","0","SATNPRO1963","27.526","0.38556","5"],
    [1740,"HCEP03730564","2023-10-16 11:30:00","11.941","3.53401","26.201","1.964","7.52","0.768","4.748","0.08","0.35","30.5311","4.78332","22.05","0","SATNPRO1963","27.702","0.38802","5"],
    [1741,"HCEP03730564","2023-10-16 11:45:00","11.937","3.53221","26.245","2.098","7.53","0.702","2.978","0.06","0.17","30.5171","4.7814","23.55","0","SATNPRO1963","27.97","0.39182","5"],
    [1742,"HCEP03730564","2023-10-16 12:00:00","11.9444","3.5342","26.236","2.116","7.54","0.651","2.958","0.08","0.27","30.5301","4.78314","23.76","0","SATNPRO1963","28.176","0.39464","5"],
    [1743,"HCEP03730564","2023-10-16 12:15:00","11.9493","3.53559","26.268","2.12","7.54","0.666","2.99","0.08","0.14","30.5394","4.78438","23.81","0","SATNPRO1963","28.414","0.39802","5"],
    [1744,"HCEP03730564","2023-10-16 12:30:00","11.9507","3.53611","26.404","2.064","7.54","0.686","4.073","0.06","0.32","30.5432","4.7849","23.18","0","SATNPRO1963","28.624","0.40092","5"],
    [1745,"HCEP03730564","2023-10-16 12:45:00","11.9537","3.5369","26.462","2.04","7.54","0.706","4.258","0.04","0.09","30.5483","4.78559","22.91","0","SATNPRO1963","29.727999999999998","0.41638","5"],
    [1746,"HCEP03730564","2023-10-16 13:00:00","11.9604","3.53841","26.438","2.064","7.54","0.686","4.534","0.05","0.2","30.5573","4.78677","23.19","0","SATNPRO1963","29.29","0.41022","5"],
    [1747,"HCEP03730564","2023-10-16 13:15:00","11.971","3.54057","26.497","2.101","7.54","0.723","4.592","0.05","0.19","30.5693","4.78831","23.61","0","SATNPRO1963","29.168","0.4085","5"],
    [1748,"HCEP03730564","2023-10-16 13:30:00","11.9788","3.54233","26.632","2.155","7.54","0.697","4.812","0.05","0.43","30.5797","4.78968","24.23","0","SATNPRO1963","28.972","0.40578","5"],
    [1749,"HCEP03730564","2023-10-16 13:45:00","11.9862","3.54369","26.759","2.211","7.55","0.757","5.413","0.06","0.45","30.5866","4.79056","24.86","0","SATNPRO1963","28.444","0.39842","5"],
    [1750,"HCEP03730564","2023-10-16 14:00:00","11.9897","3.5443","26.791","2.246","7.55","0.694","4.588","0.06","0.46","30.5896","4.79093","25.26","0","SATNPRO1963","28.428","0.39814","5"],
    [1751,"HCEP03730564","2023-10-16 14:15:00","11.9925","3.54474","26.929","2.27","7.56","0.716","4.525","0.06","0.21","30.5915","4.79116","25.52","0","SATNPRO1963","28.704","0.40206","5"],
    [1752,"HCEP03730564","2023-10-16 14:30:00","11.9911","3.5436","26.978","2.366","7.56","0.643","4.007","0.07","0.57","30.5817","4.7898","26.6","0","SATNPRO1963","28.97","0.40578","5"],
    [1753,"HCEP03730564","2023-10-16 14:45:00","11.9847","3.54266","27.055","2.362","7.57","0.712","4.064","0.1","0.35","30.5778","4.78935","26.55","0","SATNPRO1963","28.788","0.4032","5"],
    [1754,"HCEP03730564","2023-10-16 15:00:00","11.9803","3.54181","27.148","2.326","7.56","0.768","4.881","0.09","0.38","30.5732","4.78877","26.15","0","SATNPRO1963","29.478","0.4129","5"],
    [1755,"HCEP03730564","2023-10-16 15:15:00","11.9762","3.54064","27.304","2.334","7.56","0.729","4.337","0.08","0.29","30.5654","4.78772","26.23","0","SATNPRO1963","29.268","0.40996","5"],
    [1756,"HCEP03730564","2023-10-16 15:30:00","11.9654","3.53876","27.36","2.28","7.56","0.704","4.566","0.07","0.17","30.5562","4.78659","25.62","0","SATNPRO1963","29.648","0.41524","5"],
    [1757,"HCEP03730564","2023-10-16 15:45:00","11.9545","3.53632","27.477","2.154","7.55","0.78","4.99","0.08","0.42","30.5417","4.78469","24.19","0","SATNPRO1963","29.605999999999998","0.4147","5"],
    [1758,"HCEP03730564","2023-10-16 16:00:00","11.946","3.53375","27.598","1.982","7.54","0.782","5.661","0.06","0.27","30.5239","4.78231","22.26","0","SATNPRO1963","29.494","0.41312","5"],
    [1759,"HCEP03730564","2023-10-16 16:15:00","11.9215","3.53017","27.689","1.864","7.52","0.813","4.955","0.06","0.18","30.5096","4.78064","20.92","0","SATNPRO1963","29.484","0.41298","5"],
    [1760,"HCEP03730564","2023-10-16 16:30:00","11.9082","3.52723","27.736","1.795","7.52","0.752","4.647","0.07","0.13","30.4923","4.77838","20.13","0","SATNPRO1963","29.488","0.413","5"],
    [1761,"HCEP03730564","2023-10-16 16:45:00","11.9082","3.52682","27.764","1.749","7.51","0.779","4.491","0.05","0.2","30.4883","4.77782","19.62","0","SATNPRO1963","29.078","0.40728","5"],
    [1762,"HCEP03730564","2023-10-16 17:00:00","11.9086","3.52708","27.783","1.725","7.5","0.858","5.181","0.07","0.18","30.4904","4.77812","19.35","0","SATNPRO1963","28.208","0.39514","5"],
    [1763,"HCEP03730564","2023-10-16 17:15:00","11.9063","3.52642","27.804","1.704","7.5","0.915","5.13","0.27","0.38","30.4861","4.77754","19.12","0","SATNPRO1963","27.928","0.39114","5"],
    [1764,"HCEP03730564","2023-10-16 17:30:00","11.9031","3.52549","27.828","1.699","7.5","0.772","4.106","0.1","0.25","30.4797","4.77669","19.05","0","SATNPRO1963","27.84","0.38996","5"],
    [1765,"HCEP03730564","2023-10-16 17:45:00","11.8909","3.52044","27.766","1.842","7.5","0.737","2.273","0.17","0.56","30.4413","4.77143","20.65","0","SATNPRO1963","27.544","0.38578","5"],
    [1766,"HCEP03730564","2023-10-16 18:00:00","11.9007","3.52491","27.747","1.711","7.5","0.913","4.362","0.22","0.29","30.4761","4.77621","19.19","0","SATNPRO1963","27.35","0.38306","5"],
    [1767,"HCEP03730564","2023-10-16 18:15:00","11.8996","3.52463","27.686","1.636","7.5","0.811","4.387","0.11","0.26","30.4744","4.77597","18.34","0","SATNPRO1963","27.42","0.3841","5"],
    [1768,"HCEP03730564","2023-10-16 18:30:00","11.8964","3.52375","27.609","1.605","7.49","0.785","3.92","0.15","0.18","30.4686","4.77519","18","0","SATNPRO1963","27.396","0.38374","5"],
    [1769,"HCEP03730564","2023-10-16 18:45:00","11.892","3.5226","27.505","1.595","7.49","0.789","3.581","0.14","0.15","30.4612","4.77421","17.88","0","SATNPRO1963","28.026","0.39258","5"],
    [1770,"HCEP03730564","2023-10-16 19:00:00","11.8868","3.52121","27.394","1.588","7.49","0.73","3.301","0.11","0.24","30.4521","4.77299","17.8","0","SATNPRO1963","26.906","0.37688","5"],
    [1771,"HCEP03730564","2023-10-16 19:15:00","11.881","3.51937","27.243","1.621","7.49","0.744","3.16","0.12","0.18","30.4393","4.77125","18.16","0","SATNPRO1963","26.992","0.37802","5"],
    [1772,"HCEP03730564","2023-10-16 19:30:00","11.8791","3.51922","27.098","1.616","7.49","0.73","3.719","0.09","0.21","30.4394","4.77129","18.11","0","SATNPRO1963","26.822","0.37568","5"],
    [1773,"HCEP03730564","2023-10-16 19:45:00","11.8929","3.52301","26.929","1.521","7.48","0.979","6.541","0.11","0.65","30.4646","4.77465","17.05","0","SATNPRO1963","26.87","0.37636","5"],
    [1774,"HCEP03730564","2023-10-16 20:00:00","11.9119","3.52743","26.757","1.699","7.49","0.812","5.017","0.19","0.34","30.4916","4.77818","19.06","0","SATNPRO1963","26.722","0.37426","5"],
    [1775,"HCEP03730564","2023-10-16 20:15:00","11.9209","3.52947","26.411","1.822","7.5","0.832","4.725","0.12","0.36","30.5039","4.77977","20.44","0","SATNPRO1963","26.626","0.37298","5"],
    [1776,"HCEP03730564","2023-10-16 20:30:00","11.9298","3.53132","26.159","1.903","7.51","0.837","5.035","0.07","0.2","30.5145","4.78113","21.36","0","SATNPRO1963","26.264","0.36786","5"],
    [1777,"HCEP03730564","2023-10-16 20:45:00","11.9462","3.53458","25.927","2.05","7.52","0.764","4.352","0.07","0.4","30.5324","4.78342","23.02","0","SATNPRO1963","26.602","0.37258","5"],
    [1778,"HCEP03730564","2023-10-16 21:00:00","11.9545","3.53616","25.717","2.13","7.53","0.815","4.933","0.1","0.32","30.5408","4.78448","23.92","0","SATNPRO1963","27.39","0.38366","5"],
    [1779,"HCEP03730564","2023-10-16 21:15:00","11.9537","3.53612","25.503","2.142","7.54","0.824","4.951","0.1","0.22","30.5411","4.78452","24.06","0","SATNPRO1963","27.836000000000002","0.38992","5"],
    [1780,"HCEP03730564","2023-10-16 21:30:00","11.9472","3.53455","25.285","2.123","7.54","0.798","4.51","0.1","0.17","30.5315","4.78324","23.83","0","SATNPRO1963","28.152","0.39436","5"],
    [1781,"HCEP03730564","2023-10-16 21:45:00","11.9412","3.53309","25.073","2.115","7.54","0.878","4.033","0.35","0.18","30.5225","4.78204","23.75","0","SATNPRO1963","28.856","0.40422","5"],
    [1782,"HCEP03730564","2023-10-16 22:00:00","11.9311","3.53112","24.845","1.979","7.53","0.801","4.618","0.08","0.22","30.512","4.78068","22.21","0","SATNPRO1963","28.924","0.40514","5"],
    [1783,"HCEP03730564","2023-10-16 22:15:00","11.9214","3.52907","24.674","1.873","7.52","0.822","4.592","0.09","0.21","30.5003","4.77916","21.01","0","SATNPRO1963","28.964","0.40568","5"],
    [1784,"HCEP03730564","2023-10-16 22:30:00","11.9118","3.52603","24.536","1.81","7.52","0.771","4.734","0.07","0.23","30.479","4.77629","20.3","0","SATNPRO1963","28.864","0.40428","5"],
    [1785,"HCEP03730564","2023-10-16 22:45:00","11.9074","3.52465","24.413","1.788","7.51","0.775","4.246","0.07","0.44","30.4695","4.775","20.06","0","SATNPRO1963","28.994","0.40608","5"],
    [1786,"HCEP03730564","2023-10-16 23:00:00","11.9034","3.52369","24.338","1.754","7.51","0.772","4.346","0.07","0.29","30.4636","4.77422","19.67","0","SATNPRO1963","28.09","0.39342","5"],
    [1787,"HCEP03730564","2023-10-16 23:15:00","11.9046","3.52362","24.279","1.746","7.51","0.804","4.175","0.1","0.42","30.462","4.77396","19.58","0","SATNPRO1963","27.934","0.3913","5"],
    [1788,"HCEP03730564","2023-10-16 23:30:00","11.9023","3.52276","24.227","1.76","7.5","0.798","4.213","0.09","0.31","30.4556","4.7731","19.73","0","SATNPRO1963","27.614","0.38678","5"],
    [1789,"HCEP03730564","2023-10-16 23:45:00","11.9061","3.52423","24.224","1.798","7.51","0.87","4.213","0.16","0.36","30.4666","4.7746","20.17","0","SATNPRO1963","27.32","0.38264","5"],
    [1790,"HCEP03730564","2023-10-17 00:00:00","11.9128","3.52629","24.252","1.889","7.51","0.862","4.615","0.13","0.38","30.4809","4.77651","21.19","0","SATNPRO1963","27.282","0.38214","5"],
    [1791,"HCEP03730564","2023-10-17 00:15:00","11.9157","3.52701","24.288","1.929","7.52","0.963","4.715","0.27","0.43","30.4854","4.77712","21.64","0","SATNPRO1963","27.486","0.385","5"],
    [1792,"HCEP03730564","2023-10-17 00:30:00","11.913","3.52587","24.383","1.922","7.52","0.902","4.502","0.09","0.43","30.4767","4.77593","21.56","0","SATNPRO1963","27.416","0.384","5"],
    [1793,"HCEP03730564","2023-10-17 00:45:00","11.9149","3.5258","24.489","1.904","7.52","0.97","4.835","0.11","0.49","30.4743","4.77557","21.35","0","SATNPRO1963","27.598","0.38654","5"],
    [1794,"HCEP03730564","2023-10-17 01:00:00","11.9185","3.52595","24.565","1.881","7.52","0.899","4.29","0.1","0.19","30.4729","4.77533","21.1","0","SATNPRO1963","28.078","0.39328","5"],
    [1795,"HCEP03730564","2023-10-17 01:15:00","11.9189","3.5258","24.721","1.881","7.52","1.013","4.815","0.15","0.43","30.471","4.77506","21.1","0","SATNPRO1963","28.038","0.39274","5"],
    [1796,"HCEP03730564","2023-10-17 01:30:00","11.9183","3.52534","24.875","1.908","7.52","1.001","4.454","0.13","0.3","30.467","4.77452","21.41","0","SATNPRO1963","28.166","0.3945","5"],
    [1797,"HCEP03730564","2023-10-17 01:45:00","11.9198","3.52503","25.026","1.957","7.52","0.999","4.381","0.15","0.32","30.4628","4.77391","21.95","0","SATNPRO1963","27.814","0.3896","5"],
    [1798,"HCEP03730564","2023-10-17 02:00:00","11.9203","3.52495","25.207","1.986","7.52","0.944","4.97","0.1","0.56","30.4615","4.77372","22.27","0","SATNPRO1963","27.588","0.38644","5"],
    [1799,"HCEP03730564","2023-10-17 02:15:00","11.9179","3.5242","25.391","1.965","7.52","1.01","4.92","0.13","0.48","30.4562","4.77302","22.04","0","SATNPRO1963","27.65","0.38728","5"],
    [1800,"HCEP03730564","2023-10-17 02:30:00","11.9143","3.52331","25.533","1.918","7.52","0.932","4.417","0.14","0.38","30.4506","4.77229","21.51","0","SATNPRO1963","27.776","0.38906","5"],
    [1801,"HCEP03730564","2023-10-17 02:45:00","11.9116","3.52241","25.711","1.88","7.52","0.946","4.234","0.09","0.33","30.444","4.77141","21.09","0","SATNPRO1963","27.830000000000002","0.38978","5"],
    [1802,"HCEP03730564","2023-10-17 03:00:00","11.9062","3.52091","25.894","1.843","7.52","0.906","4.199","0.11","0.34","30.434","4.77008","20.66","0","SATNPRO1963","27.962","0.3917","5"],
    [1803,"HCEP03730564","2023-10-17 03:15:00","11.9006","3.5197","26.118","1.79","7.51","1.006","4.454","0.14","0.32","30.4268","4.76916","20.06","0","SATNPRO1963","27.742","0.38856","5"],
    [1804,"HCEP03730564","2023-10-17 03:30:00","11.8958","3.51855","26.294","1.736","7.51","0.899","4.348","0.1","0.37","30.4197","4.76822","19.46","0","SATNPRO1963","27.492","0.3851","5"],
    [1805,"HCEP03730564","2023-10-17 03:45:00","11.8909","3.51741","26.504","1.691","7.5","0.934","4.223","0.12","0.37","30.4127","4.76732","18.95","0","SATNPRO1963","27.286","0.38222","5"],
    [1806,"HCEP03730564","2023-10-17 04:00:00","11.887","3.51641","26.723","1.652","7.5","0.918","4.422","0.1","0.28","30.4061","4.76645","18.51","0","SATNPRO1963","26.924","0.37712","5"],
    [1807,"HCEP03730564","2023-10-17 04:15:00","11.8838","3.51558","26.884","1.619","7.49","0.933","4.352","0.1","0.33","30.4007","4.76575","18.14","0","SATNPRO1963","26.54","0.37174","5"],
    [1808,"HCEP03730564","2023-10-17 04:30:00","11.8831","3.51534","27.075","1.602","7.49","0.919","4.68","0.12","0.35","30.399","4.76552","17.95","0","SATNPRO1963","26.272000000000002","0.36798","5"],
    [1809,"HCEP03730564","2023-10-17 04:45:00","11.8808","3.51458","27.178","1.575","7.49","0.896","4.186","0.08","0.21","30.3935","4.76478","17.64","0","SATNPRO1963","25.89","0.36262","5"],
    [1810,"HCEP03730564","2023-10-17 05:00:00","11.8753","3.51384","27.316","1.488","7.48","0.865","4.366","0.1","0.24","30.3909","4.7645","16.67","0","SATNPRO1963","25.663999999999998","0.35944","5"],
    [1811,"HCEP03730564","2023-10-17 05:15:00","11.8683","3.51273","27.448","1.347","7.47","0.917","4.483","0.13","0.27","30.3857","4.76388","15.08","0","SATNPRO1963","25.44","0.35634","5"],
    [1812,"HCEP03730564","2023-10-17 05:30:00","11.8632","3.5116","27.588","1.245","7.47","0.928","4.519","0.14","0.4","30.3791","4.76302","13.94","0","SATNPRO1963","25.482","0.35692","5"],
    [1813,"HCEP03730564","2023-10-17 05:45:00","11.8602","3.51063","27.675","1.179","7.46","0.919","4.303","0.11","0.18","30.3721","4.76208","13.2","0","SATNPRO1963","25.068","0.35116","5"],
    [1814,"HCEP03730564","2023-10-17 06:00:00","11.8604","3.51007","27.77","1.155","7.45","0.912","4.387","0.13","0.2","30.3666","4.7613","12.94","0","SATNPRO1963","24.644000000000002","0.34516","5"],
    [1815,"HCEP03730564","2023-10-17 06:15:00","11.8607","3.50989","27.809","1.15","7.45","0.908","4.245","0.15","0.29","30.3647","4.76103","12.88","0","SATNPRO1963","23.612000000000002","0.33068","5"],
    [1816,"HCEP03730564","2023-10-17 06:30:00","11.8623","3.51058","27.847","1.167","7.45","0.85","4.135","0.09","0.29","30.3699","4.76175","13.06","0","SATNPRO1963","23.068","0.3231","5"],
    [1817,"HCEP03730564","2023-10-17 06:45:00","11.8677","3.51206","27.911","1.237","7.45","0.936","4.195","0.19","0.29","30.3796","4.76305","13.85","0","SATNPRO1963","22.808","0.31946","5"],
    [1818,"HCEP03730564","2023-10-17 07:00:00","11.8768","3.51338","28.004","1.381","7.46","0.914","4.669","0.11","0.25","30.3849","4.76368","15.47","0","SATNPRO1963","22.582","0.31626","5"],
    [1819,"HCEP03730564","2023-10-17 07:15:00","11.8905","3.5158","28.049","1.525","7.47","1.043","5.344","0.11","0.46","30.3969","4.76518","17.09","0","SATNPRO1963","22.77","0.3189","5"],
    [1820,"HCEP03730564","2023-10-17 07:30:00","11.9145","3.52055","28.051","1.704","7.48","1.178","6.881","0.14","0.43","30.423","4.76853","19.11","0","SATNPRO1963","22.746","0.31864","5"],
    [1821,"HCEP03730564","2023-10-17 07:45:00","11.9187","3.5201","27.975","1.676","7.49","1.329","8.766","0.08","0.69","30.4152","4.76737","18.79","0","SATNPRO1963","23.472","0.32876","5"],
    [1822,"HCEP03730564","2023-10-17 08:00:00","11.9247","3.51349","27.942","1.523","7.49","1.32","8.083","0.16","0.62","30.347","4.75765","17.08","0","SATNPRO1963","24.534","0.34364","5"],
    [1823,"HCEP03730564","2023-10-17 08:15:00","11.9132","3.51422","27.845","1.467","7.48","1.192","7.403","0.1","0.42","30.3633","4.76011","16.45","0","SATNPRO1963","25.606","0.35866","5"],
    [1824,"HCEP03730564","2023-10-17 08:30:00","11.9049","3.51517","27.798","1.48","7.48","1.028","6.344","0.08","0.57","30.3792","4.76246","16.59","0","SATNPRO1963","26.452","0.37052","5"],
    [1825,"HCEP03730564","2023-10-17 08:45:00","11.9013","3.51623","27.771","1.489","7.48","0.954","5.506","0.08","0.34","30.3924","4.76438","16.69","0","SATNPRO1963","26.336","0.3689","5"],
    [1826,"HCEP03730564","2023-10-17 09:00:00","11.9011","3.51736","27.666","1.495","7.48","0.961","6.129","0.1","0.45","30.4033","4.76592","16.75","0","SATNPRO1963","24.63","0.345","5"],
    [1827,"HCEP03730564","2023-10-17 09:15:00","11.8988","3.51843","27.552","1.517","7.48","0.944","5.503","0.1","0.33","30.4156","4.76768","17.01","0","SATNPRO1963","24.992","0.35006","5"],
    [1828,"HCEP03730564","2023-10-17 09:30:00","11.8981","3.519","27.401","1.53","7.48","0.839","5.333","0.08","0.28","30.4217","4.76854","17.15","0","SATNPRO1963","25.438","0.3563","5"],
    [1829,"HCEP03730564","2023-10-17 09:45:00","11.8989","3.51919","27.232","1.536","7.48","0.881","5.333","0.1","0.45","30.4229","4.76869","17.22","0","SATNPRO1963","25.704","0.36002","5"],
    [1830,"HCEP03730564","2023-10-17 10:00:00","11.8998","3.51933","27.143","1.531","7.48","0.841","5.053","0.12","0.25","30.4235","4.76876","17.16","0","SATNPRO1963","25.912","0.3629","5"],
    [1831,"HCEP03730564","2023-10-17 10:15:00","11.9017","3.51952","27.033","1.537","7.48","0.832","4.803","0.11","0.28","30.4239","4.76878","17.23","0","SATNPRO1963","26.22","0.36728","5"],
    [1832,"HCEP03730564","2023-10-17 10:30:00","11.9029","3.51977","26.967","1.543","7.48","0.798","4.282","0.08","0.34","30.4253","4.76896","17.3","0","SATNPRO1963","26.34","0.3689","5"],
    [1833,"HCEP03730564","2023-10-17 10:45:00","11.9037","3.52015","26.849","1.545","7.48","0.79","4.176","0.09","0.36","30.4283","4.76937","17.32","0","SATNPRO1963","26.192","0.36688","5"],
    [1834,"HCEP03730564","2023-10-17 11:00:00","11.9047","3.52037","26.728","1.56","7.48","0.737","4.237","0.07","0.29","30.4297","4.76954","17.48","0","SATNPRO1963","26.312","0.36856","5"],
    [1835,"HCEP03730564","2023-10-17 11:15:00","11.9051","3.52064","26.645","1.569","7.48","0.801","4.359","0.1","0.22","30.432","4.76986","17.6","0","SATNPRO1963","26.27","0.368","5"],
    [1836,"HCEP03730564","2023-10-17 11:30:00","11.9051","3.52092","26.555","1.586","7.48","0.727","3.894","0.11","0.13","30.4347","4.77023","17.78","0","SATNPRO1963","26.308","0.36848","5"],
    [1837,"HCEP03730564","2023-10-17 11:45:00","11.9056","3.52099","26.531","1.6","7.49","0.778","4.048","0.14","0.17","30.435","4.77026","17.94","0","SATNPRO1963","26.456","0.37056","5"],
    [1838,"HCEP03730564","2023-10-17 12:00:00","11.9076","3.52089","26.554","1.629","7.49","0.739","3.925","0.1","0.25","30.4324","4.76987","18.27","0","SATNPRO1963","26.4","0.36976","5"],
    [1839,"HCEP03730564","2023-10-17 12:15:00","11.9061","3.52131","26.496","1.622","7.49","0.85","4.37","0.15","0.23","30.4377","4.77063","18.18","0","SATNPRO1963","26.41","0.3699","5"],
    [1840,"HCEP03730564","2023-10-17 12:30:00","11.9095","3.52074","26.56","1.632","7.49","0.81","4.052","0.1","0.23","30.4294","4.76942","18.3","0","SATNPRO1963","26.658","0.37338","5"],
    [1841,"HCEP03730564","2023-10-17 12:45:00","11.9109","3.52093","26.535","1.642","7.49","0.868","4.576","0.14","0.32","30.4301","4.7695","18.41","0","SATNPRO1963","26.598","0.37256","5"],
    [1842,"HCEP03730564","2023-10-17 13:00:00","11.9128","3.52085","26.597","1.647","7.49","0.805","4.195","0.1","0.26","30.4277","4.76914","18.47","0","SATNPRO1963","26.438","0.3703","5"],
    [1843,"HCEP03730564","2023-10-17 13:15:00","11.9119","3.52144","26.675","1.643","7.49","0.928","4.589","0.21","0.25","30.4341","4.77006","18.43","0","SATNPRO1963","26.656","0.37336","5"],
    [1844,"HCEP03730564","2023-10-17 13:30:00","11.9122","3.52275","26.764","1.659","7.49","0.872","5.106","0.17","0.25","30.4464","4.77179","18.61","0","SATNPRO1963","26.538","0.37172","5"],
    [1845,"HCEP03730564","2023-10-17 13:45:00","11.9076","3.52237","26.825","1.66","7.49","0.868","4.809","0.17","0.29","30.4464","4.77187","18.61","0","SATNPRO1963","26.486","0.37098","5"],
    [1846,"HCEP03730564","2023-10-17 14:00:00","11.9072","3.52234","26.887","1.655","7.49","0.837","4.887","0.09","0.31","30.4464","4.77188","18.55","0","SATNPRO1963","26.564","0.37206","5"],
    [1847,"HCEP03730564","2023-10-17 14:15:00","11.908","3.5224","26.96","1.656","7.49","0.87","4.975","0.12","0.56","30.4464","4.77186","18.57","0","SATNPRO1963","26.556","0.37196","5"],
    [1848,"HCEP03730564","2023-10-17 14:30:00","11.9115","3.52281","27.017","1.676","7.5","0.902","5.613","0.1","0.36","30.4475","4.77197","18.79","0","SATNPRO1963","26.694","0.37388","5"],
    [1849,"HCEP03730564","2023-10-17 14:45:00","11.9143","3.52321","27.149","1.703","7.5","0.897","5.351","0.1","0.3","30.4489","4.77215","19.1","0","SATNPRO1963","26.836","0.37588","5"],
    [1850,"HCEP03730564","2023-10-17 15:00:00","11.9183","3.52381","27.254","1.732","7.5","0.879","5.568","0.08","0.34","30.4514","4.77245","19.42","0","SATNPRO1963","26.634","0.37304","5"],
    [1851,"HCEP03730564","2023-10-17 15:15:00","11.9175","3.52416","27.28","1.741","7.5","0.857","5.174","0.08","0.3","30.4555","4.77303","19.52","0","SATNPRO1963","26.722","0.37432","5"],
    [1852,"HCEP03730564","2023-10-17 15:30:00","11.9179","3.52473","27.357","1.743","7.5","0.857","5.433","0.08","0.28","30.4605","4.77373","19.56","0","SATNPRO1963","26.67","0.37352","5"],
    [1853,"HCEP03730564","2023-10-17 15:45:00","11.9198","3.52519","27.388","1.768","7.5","0.905","5.49","0.08","0.32","30.4633","4.77411","19.83","0","SATNPRO1963","26.694","0.37388","5"],
    [1854,"HCEP03730564","2023-10-17 16:00:00","11.9261","3.52625","27.454","1.813","7.51","0.826","4.947","0.05","0.32","30.4684","4.77474","20.34","0","SATNPRO1963","26.712","0.37418","5"],
    [1855,"HCEP03730564","2023-10-17 16:15:00","11.9508","3.53025","27.553","1.937","7.51","0.868","4.381","0.16","0.42","30.4864","4.77695","21.74","0","SATNPRO1963","26.972","0.37778","5"],
    [1856,"HCEP03730564","2023-10-17 16:30:00","11.9528","3.53139","27.644","1.982","7.52","0.82","4.597","0.06","0.32","30.4957","4.77824","22.25","0","SATNPRO1963","27.056","0.37896","5"],
    [1857,"HCEP03730564","2023-10-17 16:45:00","11.9528","3.53184","27.696","1.989","7.53","0.796","4.09","0.1","0.27","30.5001","4.77886","22.33","0","SATNPRO1963","27.208","0.3811","5"],
    [1858,"HCEP03730564","2023-10-17 17:00:00","11.9561","3.53273","27.782","2.05","7.53","0.865","4.895","0.16","0.24","30.5058","4.77963","23.02","0","SATNPRO1963","27.318","0.38266","5"],
    [1859,"HCEP03730564","2023-10-17 17:15:00","11.9583","3.53318","27.763","2.086","7.53","0.851","4.781","0.09","0.23","30.5083","4.77995","23.42","0","SATNPRO1963","27.76","0.38882","5"],
    [1860,"HCEP03730564","2023-10-17 17:30:00","11.9714","3.53562","27.748","2.198","7.54","0.72","3.951","0.06","0.36","30.521","4.78156","24.69","0","SATNPRO1963","27.79","0.38922","5"],
    [1861,"HCEP03730564","2023-10-17 17:45:00","11.9811","3.53756","27.796","2.291","7.55","0.673","3.607","0.04","0.18","30.5316","4.78292","25.75","0","SATNPRO1963","27.694","0.3879","5"],
    [1862,"HCEP03730564","2023-10-17 18:00:00","11.9811","3.53764","27.74","2.303","7.56","0.704","4.092","0.04","0.23","30.5325","4.78304","25.88","0","SATNPRO1963","28.266","0.39592","5"],
    [1863,"HCEP03730564","2023-10-17 18:15:00","11.9802","3.53748","27.725","2.297","7.56","0.709","3.956","0.06","0.17","30.5317","4.78294","25.81","0","SATNPRO1963","28.152","0.3943","5"],
    [1864,"HCEP03730564","2023-10-17 18:30:00","11.977","3.53697","27.728","2.273","7.56","0.708","4.268","0.08","0.15","30.5294","4.78266","25.53","0","SATNPRO1963","28.99","0.40606","5"],
    [1865,"HCEP03730564","2023-10-17 18:45:00","11.9735","3.53638","27.653","2.234","7.56","0.698","3.941","0.05","0.14","30.5266","4.78232","25.1","0","SATNPRO1963","28.988","0.40602","5"],
    [1866,"HCEP03730564","2023-10-17 19:00:00","11.972","3.53613","27.518","2.214","7.55","0.671","3.568","0.06","0.11","30.5256","4.78218","24.87","0","SATNPRO1963","29.112","0.40778","5"],
    [1867,"HCEP03730564","2023-10-17 19:15:00","11.9679","3.53546","27.397","2.182","7.55","0.671","3.318","0.06","0.11","30.5225","4.78179","24.51","0","SATNPRO1963","29.096","0.40756","5"],
    [1868,"HCEP03730564","2023-10-17 19:30:00","11.967","3.53526","27.276","2.162","7.55","0.647","3.437","0.07","0.18","30.5214","4.78164","24.29","0","SATNPRO1963","29.19","0.40886","5"],
    [1869,"HCEP03730564","2023-10-17 19:45:00","11.9649","3.53489","27.171","2.139","7.55","0.672","3.078","0.07","0.1","30.5196","4.78142","24.03","0","SATNPRO1963","28.945999999999998","0.40548","5"],
    [1870,"HCEP03730564","2023-10-17 20:00:00","11.9638","3.5346","26.998","2.126","7.54","0.639","3.207","0.06","0.13","30.5178","4.78117","23.88","0","SATNPRO1963","29.012","0.40638","5"],
    [1871,"HCEP03730564","2023-10-17 20:15:00","11.9635","3.53472","26.768","2.102","7.54","0.726","3.967","0.06","0.13","30.5192","4.78136","23.61","0","SATNPRO1963","28.714","0.40222","5"],
    [1872,"HCEP03730564","2023-10-17 20:30:00","11.9652","3.53486","26.62","2.113","7.54","0.648","3.568","0.04","0.14","30.5193","4.78134","23.73","0","SATNPRO1963","28.596","0.40056","5"],
    [1873,"HCEP03730564","2023-10-17 20:45:00","11.966","3.53502","26.393","2.119","7.54","0.654","3.401","0.04","0.1","30.5202","4.78145","23.8","0","SATNPRO1963","28.782","0.4031","5"],
    [1874,"HCEP03730564","2023-10-17 21:00:00","11.9635","3.53452","26.212","2.099","7.54","0.65","3.326","0.07","0.1","30.5175","4.78109","23.57","0","SATNPRO1963","28.588","0.40046","5"],
    [1875,"HCEP03730564","2023-10-17 21:15:00","11.9575","3.53328","26.023","2.066","7.54","0.637","3.07","0.05","0.08","30.5107","4.7802","23.2","0","SATNPRO1963","28.413999999999998","0.39796","5"],
    [1876,"HCEP03730564","2023-10-17 21:30:00","11.956","3.53283","25.811","2.054","7.54","0.592","2.913","0.06","0.09","30.5077","4.77978","23.06","0","SATNPRO1963","28.538","0.39972","5"],
    [1877,"HCEP03730564","2023-10-17 21:45:00","11.9423","3.53047","25.57","1.965","7.53","0.656","3.111","0.07","0.12","30.4964","4.77836","22.06","0","SATNPRO1963","28.474","0.39882","5"],
    [1878,"HCEP03730564","2023-10-17 22:00:00","11.9411","3.53028","25.39","1.919","7.53","0.631","3.302","0.08","0.09","30.4955","4.77825","21.54","0","SATNPRO1963","28.3","0.39638","5"],
    [1879,"HCEP03730564","2023-10-17 22:15:00","11.9371","3.5295","25.219","1.883","7.52","0.635","3.098","0.06","0.07","30.4914","4.77772","21.13","0","SATNPRO1963","28.468","0.39876","5"],
    [1880,"HCEP03730564","2023-10-17 22:30:00","11.9471","3.53132","24.956","1.926","7.52","0.641","3.619","0.04","0.31","30.5008","4.77889","21.63","0","SATNPRO1963","28.322","0.3967","5"],
    [1881,"HCEP03730564","2023-10-17 22:45:00","11.9376","3.52954","24.802","1.898","7.52","0.644","3.017","0.07","0.23","30.4915","4.7777","21.3","0","SATNPRO1963","27.824","0.38972","5"],
    [1882,"HCEP03730564","2023-10-17 23:00:00","11.9516","3.53208","24.62","1.942","7.52","0.728","3.567","0.14","0.27","30.5045","4.77933","21.8","0","SATNPRO1963","27.826","0.38974","5"],
    [1883,"HCEP03730564","2023-10-17 23:15:00","11.9707","3.53562","24.476","2.05","7.53","0.71","4.122","0.06","0.19","30.5229","4.78165","23.03","0","SATNPRO1963","27.7","0.38796","5"],
    [1884,"HCEP03730564","2023-10-17 23:30:00","11.9769","3.53686","24.386","2.142","7.54","0.664","3.744","0.08","0.41","30.5297","4.78253","24.06","0","SATNPRO1963","28.124","0.3939","5"],
    [1885,"HCEP03730564","2023-10-17 23:45:00","11.9857","3.53824","24.288","2.203","7.54","0.689","3.881","0.06","0.2","30.5358","4.78326","24.76","0","SATNPRO1963","27.806","0.38942","5"],
    [1886,"HCEP03730564","2023-10-18 00:00:00","11.9927","3.53918","24.279","2.309","7.55","0.598","3.16","0.08","0.19","30.5391","4.78363","25.96","0","SATNPRO1963","27.727999999999998","0.38836","5"],
    [1887,"HCEP03730564","2023-10-18 00:15:00","11.9942","3.53931","24.239","2.34","7.56","0.613","2.994","0.05","0.15","30.5391","4.7836","26.31","0","SATNPRO1963","27.996","0.39216","5"],
    [1888,"HCEP03730564","2023-10-18 00:30:00","11.9938","3.53898","24.294","2.381","7.56","0.565","2.773","0.07","0.17","30.5363","4.78321","26.77","0","SATNPRO1963","28.508","0.39928","5"],
    [1889,"HCEP03730564","2023-10-18 00:45:00","11.9954","3.53987","24.366","2.363","7.56","0.605","3.076","0.05","0.25","30.5435","4.78421","26.56","0","SATNPRO1963","28.732","0.40242","5"],
    [1890,"HCEP03730564","2023-10-18 01:00:00","11.9922","3.53899","24.371","2.325","7.56","0.541","2.945","0.04","0.12","30.5376","4.78342","26.13","0","SATNPRO1963","29.24","0.40954","5"],
    [1891,"HCEP03730564","2023-10-18 01:15:00","11.9882","3.53846","24.456","2.32","7.56","0.616","3.041","0.05","0.13","30.5357","4.78322","26.07","0","SATNPRO1963","29.37","0.41138","5"],
    [1892,"HCEP03730564","2023-10-18 01:30:00","11.9846","3.53707","24.61","2.353","7.56","0.537","2.602","0.04","0.13","30.5254","4.78182","26.44","0","SATNPRO1963","29.386","0.4116","5"],
    [1893,"HCEP03730564","2023-10-18 01:45:00","11.9758","3.53517","24.678","2.314","7.56","0.515","1.94","0.04","0.07","30.5143","4.78038","25.99","0","SATNPRO1963","29.148","0.40828","5"],
    [1894,"HCEP03730564","2023-10-18 02:00:00","11.9645","3.53327","24.814","2.143","7.55","0.535","2.153","0.12","0.08","30.5053","4.77928","24.07","0","SATNPRO1963","29.26","0.40984","5"],
    [1895,"HCEP03730564","2023-10-18 02:15:00","11.9591","3.5325","24.952","2.096","7.55","0.545","2.134","0.04","0.07","30.5022","4.77892","23.54","0","SATNPRO1963","29.018","0.40646","5"],
    [1896,"HCEP03730564","2023-10-18 02:30:00","11.9691","3.53442","25.111","2.119","7.54","0.523","2.462","0.04","0.09","30.5125","4.78024","23.8","0","SATNPRO1963","29.344","0.41098","5"],
    [1897,"HCEP03730564","2023-10-18 02:45:00","11.9621","3.53292","25.279","2.084","7.54","0.534","2.192","0.04","0.06","30.5037","4.77911","23.41","0","SATNPRO1963","29.146","0.40822","5"],
    [1898,"HCEP03730564","2023-10-18 03:00:00","11.9585","3.53209","25.515","2.057","7.54","0.472","2.105","0.04","0.04","30.4986","4.77845","23.1","0","SATNPRO1963","28.556","0.39996","5"],
    [1899,"HCEP03730564","2023-10-18 03:15:00","11.9637","3.53323","25.689","2.091","7.54","0.518","2.297","0.04","0.06","30.5052","4.77932","23.49","0","SATNPRO1963","28.326","0.39672","5"],
    [1900,"HCEP03730564","2023-10-18 03:30:00","11.9654","3.53314","25.79","2.143","7.54","0.527","2.5","0.06","0.12","30.503","4.77899","24.06","0","SATNPRO1963","28.692","0.40186","5"],
    [1901,"HCEP03730564","2023-10-18 03:45:00","11.9681","3.53366","25.984","2.084","7.54","0.598","3.311","0.04","0.11","30.5056","4.77933","23.4","0","SATNPRO1963","28.292","0.3963","5"],
    [1902,"HCEP03730564","2023-10-18 04:00:00","11.9697","3.53384","26.174","2.082","7.54","0.568","3.266","0.03","0.14","30.506","4.77938","23.39","0","SATNPRO1963","28.145999999999997","0.39424","5"],
    [1903,"HCEP03730564","2023-10-18 04:15:00","11.9732","3.53399","26.382","2.12","7.54","0.619","3.418","0.04","0.14","30.5045","4.77912","23.81","0","SATNPRO1963","28.556","0.40002","5"],
    [1904,"HCEP03730564","2023-10-18 04:30:00","11.9745","3.53381","26.531","2.112","7.54","0.615","3.43","0.05","0.14","30.5016","4.77871","23.72","0","SATNPRO1963","28.408","0.3979","5"],
    [1905,"HCEP03730564","2023-10-18 04:45:00","11.9749","3.53325","26.777","2.107","7.54","0.646","3.205","0.08","0.18","30.4958","4.7779","23.66","0","SATNPRO1963","27.834","0.3899","5"],
    [1906,"HCEP03730564","2023-10-18 05:00:00","11.9744","3.53294","26.934","2.101","7.54","0.647","3.616","0.07","0.23","30.4932","4.77755","23.6","0","SATNPRO1963","28.012","0.39232","5"],
    [1907,"HCEP03730564","2023-10-18 05:15:00","11.9725","3.53259","27.087","2.09","7.54","0.656","3.547","0.05","0.2","30.4913","4.77732","23.47","0","SATNPRO1963","28.248","0.39562","5"],
    [1908,"HCEP03730564","2023-10-18 05:30:00","11.9707","3.53225","27.261","2.057","7.54","0.659","3.786","0.06","0.34","30.4895","4.77709","23.1","0","SATNPRO1963","27.966","0.39172","5"],
    [1909,"HCEP03730564","2023-10-18 05:45:00","11.9689","3.53173","27.376","2.033","7.54","0.705","3.832","0.04","0.11","30.486","4.77663","22.83","0","SATNPRO1963","27.932","0.39124","5"],
    [1910,"HCEP03730564","2023-10-18 06:00:00","11.9675","3.53132","27.499","2.018","7.53","0.689","3.85","0.04","0.18","30.4831","4.77625","22.67","0","SATNPRO1963","27.938000000000002","0.3913","5"],
    [1911,"HCEP03730564","2023-10-18 06:15:00","11.9655","3.53097","27.666","2.008","7.53","0.747","3.952","0.06","0.2","30.4813","4.77603","22.55","0","SATNPRO1963","27.85","0.3901","5"],
    [1912,"HCEP03730564","2023-10-18 06:30:00","11.9634","3.53024","27.719","2","7.53","0.736","4.009","0.07","0.18","30.476","4.77531","22.46","0","SATNPRO1963","27.794","0.3893","5"],
    [1913,"HCEP03730564","2023-10-18 06:45:00","11.9607","3.52966","27.738","1.98","7.53","0.815","4.085","0.09","0.26","30.4726","4.77487","22.23","0","SATNPRO1963","27.62","0.38682","5"],
    [1914,"HCEP03730564","2023-10-18 07:00:00","11.9583","3.52912","27.893","1.956","7.53","0.805","4.398","0.09","0.17","30.4694","4.77447","21.96","0","SATNPRO1963","27.514","0.38532","5"],
    [1915,"HCEP03730564","2023-10-18 07:15:00","11.9539","3.52827","27.908","1.917","7.52","0.846","4.6","0.11","0.22","30.4648","4.77388","21.52","0","SATNPRO1963","27.512","0.38534","5"],
    [1916,"HCEP03730564","2023-10-18 07:30:00","11.9499","3.52743","27.894","1.871","7.52","0.81","4.1","0.08","0.32","30.46","4.77326","21","0","SATNPRO1963","27.552","0.3859","5"],
    [1917,"HCEP03730564","2023-10-18 07:45:00","11.9472","3.52691","27.9","1.834","7.52","0.852","4.264","0.09","0.16","30.4573","4.77291","20.58","0","SATNPRO1963","27.432","0.38424","5"],
    [1918,"HCEP03730564","2023-10-18 08:00:00","11.9468","3.52671","27.936","1.811","7.51","0.832","4.111","0.19","0.16","30.4556","4.77269","20.32","0","SATNPRO1963","27.33","0.3828","5"],
    [1919,"HCEP03730564","2023-10-18 08:15:00","11.9461","3.52662","27.88","1.796","7.51","0.854","4.234","0.07","0.2","30.4554","4.77265","20.16","0","SATNPRO1963","26.992","0.37808","5"],
    [1920,"HCEP03730564","2023-10-18 08:30:00","11.9464","3.52675","27.925","1.785","7.51","0.857","4.398","0.08","0.14","30.4564","4.7728","20.04","0","SATNPRO1963","26.65","0.37328","5"],
    [1921,"HCEP03730564","2023-10-18 08:45:00","11.9447","3.52635","27.903","1.777","7.51","0.816","3.986","0.06","0.15","30.4539","4.77247","19.94","0","SATNPRO1963","26.692","0.37386","5"],
    [1922,"HCEP03730564","2023-10-18 09:00:00","11.9424","3.52599","27.913","1.754","7.51","0.82","3.93","0.13","0.16","30.4524","4.77229","19.68","0","SATNPRO1963","26.72","0.37428","5"],
    [1923,"HCEP03730564","2023-10-18 09:15:00","11.9401","3.52555","27.772","1.726","7.51","0.819","3.621","0.06","0.13","30.45","4.77198","19.37","0","SATNPRO1963","26.516000000000002","0.3714","5"],
    [1924,"HCEP03730564","2023-10-18 09:30:00","11.9353","3.52471","27.716","1.68","7.5","0.76","3.586","0.08","0.09","30.446","4.77147","18.85","0","SATNPRO1963","26.742","0.3746","5"],
    [1925,"HCEP03730564","2023-10-18 09:45:00","11.9325","3.52415","27.611","1.65","7.5","0.788","3.351","0.16","0.1","30.4429","4.77106","18.51","0","SATNPRO1963","26.482","0.37096","5"],
    [1926,"HCEP03730564","2023-10-18 10:00:00","11.9266","3.52316","27.576","1.607","7.5","0.772","3.257","0.09","0.1","30.4383","4.7705","18.03","0","SATNPRO1963","26.176000000000002","0.36662","5"],
    [1927,"HCEP03730564","2023-10-18 10:15:00","11.9207","3.52213","27.547","1.541","7.49","0.794","3.161","0.19","0.09","30.4332","4.76986","17.29","0","SATNPRO1963","26.232","0.36744","5"],
    [1928,"HCEP03730564","2023-10-18 10:30:00","11.9204","3.52214","27.396","1.527","7.49","0.703","3.198","0.08","0.07","30.4337","4.76992","17.12","0","SATNPRO1963","26.122","0.36588","5"],
    [1929,"HCEP03730564","2023-10-18 10:45:00","11.9185","3.5218","27.282","1.506","7.48","0.773","3.105","0.12","0.09","30.4319","4.76969","16.89","0","SATNPRO1963","25.976","0.36382","5"],
    [1930,"HCEP03730564","2023-10-18 11:00:00","11.9194","3.5221","27.229","1.508","7.48","0.728","3.192","0.06","0.11","30.4341","4.76999","16.92","0","SATNPRO1963","25.634","0.35904","5"],
    [1931,"HCEP03730564","2023-10-18 11:15:00","11.9251","3.52295","27.163","1.543","7.48","0.834","3.566","0.07","0.12","30.4376","4.7704","17.31","0","SATNPRO1963","25.42","0.35604","5"],
    [1932,"HCEP03730564","2023-10-18 11:30:00","11.9315","3.52415","27.053","1.533","7.49","0.816","4.275","0.07","0.11","30.4439","4.77119","17.2","0","SATNPRO1963","25.48","0.35688","5"],
    [1933,"HCEP03730564","2023-10-18 11:45:00","11.9289","3.52342","26.972","1.564","7.49","0.857","3.513","0.1","0.13","30.4391","4.77055","17.54","0","SATNPRO1963","25.414","0.35598","5"],
    [1934,"HCEP03730564","2023-10-18 12:00:00","11.9334","3.52388","26.884","1.587","7.49","0.884","3.503","0.14","0.14","30.4399","4.7706","17.81","0","SATNPRO1963","25.52","0.35744","5"],
    [1935,"HCEP03730564","2023-10-18 12:15:00","11.9254","3.52254","26.826","1.557","7.49","0.771","3.098","0.09","0.19","30.4337","4.76982","17.46","0","SATNPRO1963","25.506","0.35726","5"],
    [1936,"HCEP03730564","2023-10-18 12:30:00","11.9367","3.52401","26.761","1.597","7.49","0.777","3.269","0.09","0.16","30.4385","4.77034","17.92","0","SATNPRO1963","25.248","0.35364","5"],
    [1937,"HCEP03730564","2023-10-18 12:45:00","11.945","3.5244","26.74","1.629","7.49","0.854","3.479","0.1","0.18","30.4354","4.76979","18.28","0","SATNPRO1963","25.464","0.35664","5"],
    [1938,"HCEP03730564","2023-10-18 13:00:00","11.9511","3.52482","26.684","1.639","7.49","0.905","4.266","0.11","0.23","30.4345","4.76957","18.4","0","SATNPRO1963","25.632","0.35902","5"],
    [1939,"HCEP03730564","2023-10-18 13:15:00","11.9512","3.52446","26.717","1.621","7.49","0.941","4.328","0.08","0.26","30.4309","4.76907","18.19","0","SATNPRO1963","25.766","0.36092","5"],
    [1940,"HCEP03730564","2023-10-18 13:30:00","11.9522","3.5227","26.743","1.613","7.49","0.98","4.21","0.14","0.15","30.4133","4.76656","18.1","0","SATNPRO1963","25.764","0.36084","5"],
    [1941,"HCEP03730564","2023-10-18 13:45:00","11.9444","3.52528","26.762","1.587","7.49","0.875","4.199","0.08","0.15","30.4444","4.77107","17.81","0","SATNPRO1963","25.814","0.36156","5"],
    [1942,"HCEP03730564","2023-10-18 14:00:00","11.9482","3.525","26.798","1.599","7.49","0.912","4.149","0.12","0.25","30.4385","4.77019","17.95","0","SATNPRO1963","25.637999999999998","0.35912","5"],
    [1943,"HCEP03730564","2023-10-18 14:15:00","11.9514","3.52345","26.821","1.56","7.49","0.981","4.423","0.12","0.25","30.4211","4.76769","17.51","0","SATNPRO1963","25.434","0.35626","5"],
    [1944,"HCEP03730564","2023-10-18 14:30:00","11.9468","3.52487","26.876","1.554","7.49","0.944","4.584","0.1","0.22","30.4384","4.77019","17.44","0","SATNPRO1963","25.338","0.3549","5"],
    [1945,"HCEP03730564","2023-10-18 14:45:00","11.9474","3.52509","26.944","1.553","7.49","0.97","5.123","0.11","0.25","30.4401","4.77042","17.43","0","SATNPRO1963","25.724","0.36028","5"],
    [1946,"HCEP03730564","2023-10-18 15:00:00","11.9513","3.52472","27.01","1.55","7.49","1.029","5.365","0.11","0.22","30.4332","4.76941","17.4","0","SATNPRO1963","25.424","0.3561","5"],
    [1947,"HCEP03730564","2023-10-18 15:15:00","11.9584","3.52279","27.077","1.585","7.49","1.066","5.415","0.11","0.23","30.4089","4.76588","17.79","0","SATNPRO1963","25.09","0.35144","5"],
    [1948,"HCEP03730564","2023-10-18 15:30:00","11.9602","3.52191","27.159","1.587","7.49","1.156","6.571","0.16","0.39","30.399","4.76446","17.81","0","SATNPRO1963","25.158","0.35236","5"],
    [1949,"HCEP03730564","2023-10-18 15:45:00","11.9785","3.51788","27.215","1.7","7.49","1.292","5.406","0.23","0.35","30.3456","4.75666","19.08","0","SATNPRO1963","25.206","0.35304","5"],
    [1950,"HCEP03730564","2023-10-18 16:00:00","11.9826","3.51813","27.276","1.781","7.5","1.119","4.52","0.21","0.29","30.3446","4.75647","19.99","0","SATNPRO1963","25.314","0.35458","5"],
    [1951,"HCEP03730564","2023-10-18 16:15:00","11.9704","3.51839","27.344","1.758","7.5","1.014","3.258","0.13","0.17","30.357","4.75839","19.73","0","SATNPRO1963","25.06","0.35102","5"],
    [1952,"HCEP03730564","2023-10-18 16:30:00","11.9633","3.51904","27.401","1.75","7.5","0.993","4.301","0.15","0.22","30.3689","4.76018","19.64","0","SATNPRO1963","24.986","0.35","5"],
    [1953,"HCEP03730564","2023-10-18 16:45:00","11.9552","3.52119","27.457","1.676","7.5","0.961","4.315","0.11","0.23","30.3961","4.76414","18.81","0","SATNPRO1963","25.18","0.35266","5"],
    [1954,"HCEP03730564","2023-10-18 17:00:00","11.9506","3.52241","27.51","1.613","7.49","0.906","4.446","0.09","0.25","30.4115","4.76637","18.1","0","SATNPRO1963","25.308","0.35448","5"],
    [1955,"HCEP03730564","2023-10-18 17:15:00","11.9477","3.52323","27.563","1.573","7.49","0.997","5.032","0.15","0.39","30.4217","4.76786","17.65","0","SATNPRO1963","25.488","0.357","5"],
    [1956,"HCEP03730564","2023-10-18 17:30:00","11.9443","3.52518","27.591","1.562","7.49","0.894","4.686","0.12","0.44","30.4432","4.77094","17.53","0","SATNPRO1963","25.654","0.35932","5"],
    [1957,"HCEP03730564","2023-10-18 17:45:00","11.9432","3.52637","27.614","1.566","7.49","0.836","4.597","0.08","0.32","30.4555","4.7727","17.57","0","SATNPRO1963","25.72","0.36028","5"],
    [1958,"HCEP03730564","2023-10-18 18:00:00","11.9434","3.52697","27.628","1.57","7.49","0.941","5.059","0.49","0.56","30.4611","4.77348","17.63","0","SATNPRO1963","25.618000000000002","0.35882","5"],
    [1959,"HCEP03730564","2023-10-18 18:15:00","11.9437","3.52815","27.642","1.593","7.49","0.802","4.301","0.14","0.25","30.4721","4.77503","17.88","0","SATNPRO1963","25.556","0.35798","5"],
    [1960,"HCEP03730564","2023-10-18 18:30:00","11.9447","3.52882","27.636","1.618","7.49","0.812","4.528","0.13","0.24","30.4778","4.77582","18.16","0","SATNPRO1963","25.976","0.36386","5"],
    [1961,"HCEP03730564","2023-10-18 18:45:00","11.9456","3.52905","27.617","1.645","7.49","0.718","4.145","0.13","0.41","30.4792","4.77601","18.46","0","SATNPRO1963","26.26","0.36784","5"],
    [1962,"HCEP03730564","2023-10-18 19:00:00","11.9463","3.52919","27.558","1.658","7.49","0.715","3.878","0.14","0.25","30.4799","4.7761","18.61","0","SATNPRO1963","26.22","0.3673","5"],
    [1963,"HCEP03730564","2023-10-18 19:15:00","11.9464","3.52927","27.515","1.659","7.5","0.757","4.008","0.2","0.32","30.4807","4.7762","18.62","0","SATNPRO1963","26.494","0.3711","5"],
    [1964,"HCEP03730564","2023-10-18 19:30:00","11.9474","3.52944","27.435","1.673","7.5","0.679","3.753","0.13","0.34","30.4815","4.77629","18.78","0","SATNPRO1963","26.758","0.3748","5"],
    [1965,"HCEP03730564","2023-10-18 19:45:00","11.9476","3.52955","27.344","1.682","7.5","0.718","3.937","0.09","0.38","30.4825","4.77643","18.88","0","SATNPRO1963","26.864","0.37624","5"],
    [1966,"HCEP03730564","2023-10-18 20:00:00","11.9476","3.52965","27.219","1.678","7.5","0.634","3.868","0.1","0.22","30.4835","4.77657","18.84","0","SATNPRO1963","26.85","0.3761","5"],
    [1967,"HCEP03730564","2023-10-18 20:15:00","11.9475","3.52971","27.08","1.67","7.5","0.682","3.696","0.09","0.18","30.4841","4.77665","18.74","0","SATNPRO1963","26.791999999999998","0.37524","5"],
    [1968,"HCEP03730564","2023-10-18 20:30:00","11.9479","3.52977","26.918","1.669","7.5","0.609","3.613","0.08","0.17","30.4845","4.77669","18.73","0","SATNPRO1963","26.854","0.37616","5"],
    [1969,"HCEP03730564","2023-10-18 20:45:00","11.9477","3.52974","26.753","1.66","7.5","0.64","3.924","0.09","0.57","30.4845","4.77668","18.63","0","SATNPRO1963","26.849999999999998","0.3761","5"],
    [1970,"HCEP03730564","2023-10-18 21:00:00","11.9478","3.52974","26.567","1.667","7.5","0.639","3.657","0.11","0.26","30.4844","4.77666","18.71","0","SATNPRO1963","26.836","0.37588","5"],
    [1971,"HCEP03730564","2023-10-18 21:15:00","11.9474","3.5295","26.394","1.671","7.5","0.66","3.577","0.08","0.22","30.4825","4.77639","18.76","0","SATNPRO1963","27.02","0.37846","5"],
    [1972,"HCEP03730564","2023-10-18 21:30:00","11.9481","3.5296","26.195","1.675","7.5","0.647","3.535","0.32","0.26","30.4829","4.77642","18.8","0","SATNPRO1963","26.906","0.37684","5"],
    [1973,"HCEP03730564","2023-10-18 21:45:00","11.9476","3.52945","25.981","1.669","7.5","0.672","3.257","0.1","0.2","30.482","4.77629","18.73","0","SATNPRO1963","26.88","0.37652","5"],
    [1974,"HCEP03730564","2023-10-18 22:00:00","11.9463","3.52914","25.763","1.651","7.5","0.644","3.428","0.13","0.2","30.4802","4.77604","18.53","0","SATNPRO1963","26.936","0.37726","5"],
    [1975,"HCEP03730564","2023-10-18 22:15:00","11.9465","3.52889","25.537","1.643","7.5","0.617","3.534","0.09","0.45","30.4777","4.77568","18.44","0","SATNPRO1963","26.81","0.37558","5"],
    [1976,"HCEP03730564","2023-10-18 22:30:00","11.9451","3.5287","25.317","1.629","7.49","0.623","3.443","0.13","0.28","30.4772","4.77561","18.28","0","SATNPRO1963","27.080000000000002","0.37928","5"],
    [1977,"HCEP03730564","2023-10-18 22:45:00","11.9449","3.52854","25.102","1.607","7.49","0.677","3.659","0.1","0.21","30.4759","4.77541","18.04","0","SATNPRO1963","26.822","0.37568","5"],
    [1978,"HCEP03730564","2023-10-18 23:00:00","11.9462","3.52671","24.918","1.633","7.49","0.555","2.583","0.15","0.09","30.4573","4.77276","18.33","0","SATNPRO1963","27.06","0.37902","5"],
    [1979,"HCEP03730564","2023-10-18 23:15:00","11.9465","3.52652","24.731","1.637","7.49","0.613","3.134","0.09","0.39","30.4553","4.77246","18.38","0","SATNPRO1963","26.74","0.37458","5"],
    [1980,"HCEP03730564","2023-10-18 23:30:00","11.9473","3.52588","24.556","1.643","7.49","0.754","3.082","0.22","0.39","30.4486","4.7715","18.44","0","SATNPRO1963","26.726","0.37438","5"],
    [1981,"HCEP03730564","2023-10-18 23:45:00","11.9483","3.52534","24.424","1.672","7.49","0.714","2.758","0.22","0.2","30.4427","4.77064","18.77","0","SATNPRO1963","26.588","0.3724","5"],
    [1982,"HCEP03730564","2023-10-19 00:00:00","11.9493","3.52507","24.315","1.688","7.5","0.674","2.778","0.16","0.17","30.4393","4.77015","18.95","0","SATNPRO1963","26.55","0.37186","5"],
    [1983,"HCEP03730564","2023-10-19 00:15:00","11.9481","3.52551","24.238","1.671","7.5","0.754","2.685","0.19","0.2","30.4445","4.77089","18.75","0","SATNPRO1963","26.573999999999998","0.37222","5"],
    [1984,"HCEP03730564","2023-10-19 00:30:00","11.9472","3.52358","24.2","1.633","7.49","0.735","2.993","0.14","0.34","30.4268","4.7684","18.33","0","SATNPRO1963","26.529999999999998","0.37158","5"],
    [1985,"HCEP03730564","2023-10-19 00:45:00","11.9438","3.52306","24.192","1.616","7.49","0.643","2.25","0.15","0.14","30.4246","4.76814","18.14","0","SATNPRO1963","26.51","0.37128","5"],
    [1986,"HCEP03730564","2023-10-19 01:00:00","11.9456","3.52363","24.194","1.62","7.49","0.614","2.384","0.18","0.14","30.4286","4.76868","18.18","0","SATNPRO1963","26.483999999999998","0.37094","5"],
    [1987,"HCEP03730564","2023-10-19 01:15:00","11.9439","3.52352","24.219","1.605","7.49","0.604","2.413","0.15","0.17","30.4289","4.76875","18.01","0","SATNPRO1963","26.618","0.37284","5"],
    [1988,"HCEP03730564","2023-10-19 01:30:00","11.9439","3.52455","24.262","1.586","7.49","0.607","2.868","0.12","0.32","30.4387","4.77013","17.8","0","SATNPRO1963","26.082","0.36534","5"],
    [1989,"HCEP03730564","2023-10-19 01:45:00","11.9437","3.52499","24.331","1.568","7.49","0.729","2.582","0.37","0.24","30.4431","4.77075","17.59","0","SATNPRO1963","25.832","0.3618","5"],
    [1990,"HCEP03730564","2023-10-19 02:00:00","11.942","3.52603","24.412","1.517","7.49","0.564","3.11","0.1","0.15","30.4544","4.77239","17.02","0","SATNPRO1963","25.996","0.36414","5"],
    [1991,"HCEP03730564","2023-10-19 02:15:00","11.9414","3.52622","24.504","1.491","7.48","0.632","3.159","0.13","0.21","30.4568","4.77273","16.73","0","SATNPRO1963","25.796","0.36134","5"],
    [1992,"HCEP03730564","2023-10-19 02:30:00","11.9405","3.52636","24.628","1.468","7.48","0.653","3.408","0.14","0.13","30.4588","4.77303","16.47","0","SATNPRO1963","26.094","0.36548","5"],
    [1993,"HCEP03730564","2023-10-19 02:45:00","11.9388","3.52647","24.813","1.432","7.48","0.62","3.701","0.11","0.17","30.4612","4.77341","16.07","0","SATNPRO1963","26.104","0.36564","5"],
    [1994,"HCEP03730564","2023-10-19 03:00:00","11.9382","3.52617","24.925","1.424","7.48","0.587","3.889","0.08","0.25","30.4586","4.77306","15.98","0","SATNPRO1963","25.75","0.36064","5"],
    [1995,"HCEP03730564","2023-10-19 03:15:00","11.9366","3.52604","25.047","1.409","7.47","0.678","4.189","0.14","0.23","30.4587","4.77309","15.82","0","SATNPRO1963","25.718","0.36022","5"],
    [1996,"HCEP03730564","2023-10-19 03:30:00","11.9355","3.52523","25.197","1.399","7.47","0.689","4.289","0.08","0.34","30.4518","4.77215","15.7","0","SATNPRO1963","25.584","0.35838","5"],
    [1997,"HCEP03730564","2023-10-19 03:45:00","11.9359","3.52498","25.358","1.396","7.47","0.732","4.073","0.14","0.54","30.4489","4.77175","15.67","0","SATNPRO1963","25.55","0.35788","5"],
    [1998,"HCEP03730564","2023-10-19 04:00:00","11.9373","3.52461","25.551","1.408","7.47","0.707","4.315","0.13","0.28","30.4442","4.77107","15.79","0","SATNPRO1963","25.586","0.3584","5"],
    [1999,"HCEP03730564","2023-10-19 04:15:00","11.9372","3.52406","25.75","1.419","7.47","0.735","4.079","0.13","0.31","30.439","4.77035","15.92","0","SATNPRO1963","25.392","0.35566","5"],
    [2000,"HCEP03730564","2023-10-19 04:30:00","11.9376","3.5233","25.964","1.436","7.47","0.684","4.046","0.09","0.25","30.4312","4.76926","16.12","0","SATNPRO1963","25.354","0.35508","5"],
    [2001,"HCEP03730564","2023-10-19 04:45:00","11.9368","3.52263","26.166","1.45","7.48","0.716","3.834","0.08","0.18","30.4254","4.76846","16.27","0","SATNPRO1963","25.18","0.35264","5"],
    [2002,"HCEP03730564","2023-10-19 05:00:00","11.9332","3.52209","26.346","1.416","7.47","0.686","4.246","0.1","0.26","30.4231","4.76819","15.88","0","SATNPRO1963","25.058","0.351","5"],
    [2003,"HCEP03730564","2023-10-19 05:15:00","11.9302","3.521","26.556","1.358","7.47","0.802","4.552","0.08","0.26","30.415","4.7671","15.23","0","SATNPRO1963","25.204","0.353","5"],
    [2004,"HCEP03730564","2023-10-19 05:30:00","11.9267","3.52002","26.804","1.29","7.47","0.835","4.731","0.09","0.18","30.4084","4.76622","14.47","0","SATNPRO1963","25.022000000000002","0.35048","5"],
    [2005,"HCEP03730564","2023-10-19 05:45:00","11.9229","3.51887","26.953","1.229","7.46","0.855","4.585","0.11","0.29","30.4004","4.76517","13.78","0","SATNPRO1963","24.768","0.3469","5"],
    [2006,"HCEP03730564","2023-10-19 06:00:00","11.9189","3.51792","27.119","1.176","7.46","0.919","4.351","0.22","0.32","30.3945","4.76439","13.19","0","SATNPRO1963","24.848","0.34802","5"],
    [2007,"HCEP03730564","2023-10-19 06:15:00","11.9165","3.51731","27.284","1.14","7.45","0.864","4.385","0.09","0.21","30.3905","4.76387","12.78","0","SATNPRO1963","24.378","0.34146","5"],
    [2008,"HCEP03730564","2023-10-19 06:30:00","11.9156","3.51709","27.409","1.121","7.45","0.787","4.43","0.17","0.45","30.389","4.76368","12.57","0","SATNPRO1963","24.060000000000002","0.33704","5"],
    [2009,"HCEP03730564","2023-10-19 06:45:00","11.9142","3.51668","27.526","1.108","7.45","0.837","3.814","0.15","0.18","30.3862","4.76331","12.43","0","SATNPRO1963","23.594","0.3305","5"],
    [2010,"HCEP03730564","2023-10-19 07:00:00","11.9128","3.51636","27.641","1.098","7.45","0.706","3.814","0.15","0.78","30.3843","4.76307","12.31","0","SATNPRO1963","23.188","0.32476","5"],
    [2011,"HCEP03730564","2023-10-19 07:15:00","11.9141","3.51668","27.736","1.099","7.45","0.851","3.939","0.14","0.25","30.3862","4.76333","12.32","0","SATNPRO1963","23.168","0.3245","5"],
    [2012,"HCEP03730564","2023-10-19 07:30:00","11.9162","3.51723","27.8","1.108","7.45","0.799","4.177","0.08","0.17","30.3897","4.76379","12.42","0","SATNPRO1963","22.986","0.32196","5"],
    [2013,"HCEP03730564","2023-10-19 07:45:00","11.9191","3.51808","27.863","1.133","7.45","0.883","4.338","0.14","0.4","30.3956","4.76458","12.71","0","SATNPRO1963","22.742","0.31854","5"],
    [2014,"HCEP03730564","2023-10-19 08:00:00","11.9217","3.51853","27.882","1.169","7.45","0.813","4.095","0.09","0.26","30.3977","4.76485","13.11","0","SATNPRO1963","22.854","0.32014","5"],
    [2015,"HCEP03730564","2023-10-19 08:15:00","11.9225","3.51911","27.914","1.202","7.45","0.793","4.085","0.08","0.34","30.4026","4.76553","13.48","0","SATNPRO1963","22.722","0.31826","5"],
    [2016,"HCEP03730564","2023-10-19 08:30:00","11.9231","3.5193","27.948","1.214","7.45","0.826","4.752","0.06","0.33","30.404","4.76572","13.61","0","SATNPRO1963","22.84","0.31992","5"],
    [2017,"HCEP03730564","2023-10-19 08:45:00","11.9226","3.5197","27.945","1.216","7.45","0.899","4.744","0.11","0.41","30.4082","4.76632","13.64","0","SATNPRO1963","23.198","0.32492","5"],
    [2018,"HCEP03730564","2023-10-19 09:00:00","11.925","3.52032","27.969","1.229","7.46","0.84","4.86","0.09","0.29","30.4122","4.76685","13.78","0","SATNPRO1963","23.314","0.32656","5"],
    [2019,"HCEP03730564","2023-10-19 09:15:00","11.9269","3.52111","27.981","1.258","7.46","0.818","4.941","0.11","0.45","30.4182","4.76768","14.11","0","SATNPRO1963","23.490000000000002","0.32902","5"],
    [2020,"HCEP03730564","2023-10-19 09:30:00","11.9282","3.52159","27.975","1.278","7.46","0.821","5.028","0.09","0.4","30.4217","4.76815","14.34","0","SATNPRO1963","23.6","0.33056","5"],
    [2021,"HCEP03730564","2023-10-19 09:45:00","11.9297","3.52197","27.935","1.313","7.46","0.85","4.868","0.13","0.4","30.4242","4.76848","14.73","0","SATNPRO1963","23.598","0.33052","5"],
    [2022,"HCEP03730564","2023-10-19 10:00:00","11.931","3.52244","27.924","1.331","7.46","0.802","4.974","0.11","0.43","30.4277","4.76895","14.93","0","SATNPRO1963","23.682","0.33172","5"],
    [2023,"HCEP03730564","2023-10-19 10:15:00","11.9332","3.52315","27.875","1.34","7.46","0.772","4.808","0.12","0.26","30.4327","4.76963","15.03","0","SATNPRO1963","24.002","0.3362","5"],
    [2024,"HCEP03730564","2023-10-19 10:30:00","11.9345","3.52376","27.794","1.342","7.46","0.812","5.508","0.26","0.4","30.4375","4.77029","15.06","0","SATNPRO1963","24.204","0.339","5"],
    [2025,"HCEP03730564","2023-10-19 10:45:00","11.9372","3.52447","27.748","1.346","7.46","0.803","4.589","0.16","0.52","30.4421","4.7709","15.1","0","SATNPRO1963","24.258","0.33978","5"],
    [2026,"HCEP03730564","2023-10-19 11:00:00","11.9375","3.52484","27.657","1.347","7.47","0.753","4.79","0.11","0.4","30.4454","4.77136","15.11","0","SATNPRO1963","24.786","0.34718","5"],
    [2027,"HCEP03730564","2023-10-19 11:15:00","11.9384","3.52495","27.619","1.336","7.46","0.801","4.799","0.1","0.3","30.4458","4.77139","14.99","0","SATNPRO1963","24.634","0.34502","5"],
    [2028,"HCEP03730564","2023-10-19 11:30:00","11.9384","3.52497","27.513","1.325","7.46","0.942","5.221","0.62","0.55","30.4459","4.77141","14.87","0","SATNPRO1963","24.756","0.34674","5"],
    [2029,"HCEP03730564","2023-10-19 11:45:00","11.9386","3.52488","27.451","1.313","7.46","0.889","5.274","0.23","0.35","30.445","4.77127","14.73","0","SATNPRO1963","24.785999999999998","0.34716","5"],
    [2030,"HCEP03730564","2023-10-19 12:00:00","11.9407","3.52413","27.361","1.31","7.46","0.884","5.294","0.24","0.4","30.4362","4.76999","14.69","0","SATNPRO1963","24.902","0.34878","5"],
    [2031,"HCEP03730564","2023-10-19 12:15:00","11.9464","3.52313","27.262","1.347","7.46","0.899","4.683","0.42","0.25","30.4219","4.76789","15.11","0","SATNPRO1963","24.806","0.34746","5"],
    [2032,"HCEP03730564","2023-10-19 12:30:00","11.947","3.52295","27.178","1.372","7.46","0.916","4.93","0.15","0.31","30.4198","4.76758","15.4","0","SATNPRO1963","24.759999999999998","0.34682","5"],
    [2033,"HCEP03730564","2023-10-19 12:45:00","11.9495","3.52277","27.082","1.417","7.47","1.025","4.768","0.38","0.51","30.416","4.76701","15.9","0","SATNPRO1963","24.694","0.34592","5"],
    [2034,"HCEP03730564","2023-10-19 13:00:00","11.9472","3.52323","27.012","1.429","7.47","0.865","4.914","0.16","0.48","30.4224","4.76793","16.04","0","SATNPRO1963","24.664","0.34544","5"],
    [2035,"HCEP03730564","2023-10-19 13:15:00","11.9431","3.52418","26.965","1.397","7.47","0.839","4.328","0.39","0.4","30.4348","4.76974","15.68","0","SATNPRO1963","24.802","0.3474","5"],
    [2036,"HCEP03730564","2023-10-19 13:30:00","11.9419","3.52447","26.924","1.399","7.47","0.827","4.531","0.18","0.27","30.4386","4.77029","15.7","0","SATNPRO1963","24.938","0.3493","5"],
    [2037,"HCEP03730564","2023-10-19 13:45:00","11.9361","3.52479","26.907","1.407","7.47","0.69","3.339","0.11","0.27","30.4464","4.77148","15.79","0","SATNPRO1963","24.876","0.34844","5"],
    [2038,"HCEP03730564","2023-10-19 14:00:00","11.9371","3.52491","26.905","1.429","7.47","0.681","3.39","0.11","0.3","30.4467","4.7715","16.04","0","SATNPRO1963","25.104","0.35162","5"],
    [2039,"HCEP03730564","2023-10-19 14:15:00","11.9373","3.52494","26.916","1.423","7.47","0.714","3.329","0.13","0.19","30.4468","4.77152","15.97","0","SATNPRO1963","25.228","0.35334","5"],
    [2040,"HCEP03730564","2023-10-19 14:30:00","11.938","3.52522","26.949","1.417","7.47","0.624","3.728","0.1","0.36","30.4489","4.77181","15.9","0","SATNPRO1963","24.916","0.34902","5"],
    [2041,"HCEP03730564","2023-10-19 14:45:00","11.9384","3.52497","27.013","1.418","7.47","0.754","4.071","0.23","0.22","30.4461","4.77141","15.91","0","SATNPRO1963","25.098","0.35156","5"],
    [2042,"HCEP03730564","2023-10-19 15:00:00","11.9396","3.52482","27.022","1.424","7.47","0.761","4.412","0.26","0.3","30.4438","4.77106","15.98","0","SATNPRO1963","25.126","0.35192","5"],
    [2043,"HCEP03730564","2023-10-19 15:15:00","11.941","3.52477","27.061","1.428","7.47","0.713","4.688","0.08","0.32","30.4422","4.77081","16.03","0","SATNPRO1963","25.246","0.3536","5"],
    [2044,"HCEP03730564","2023-10-19 15:30:00","11.9403","3.52441","27.115","1.423","7.47","0.743","5.173","0.1","0.38","30.4393","4.77042","15.97","0","SATNPRO1963","25.472","0.3568","5"],
    [2045,"HCEP03730564","2023-10-19 15:45:00","11.943","3.52568","27.153","1.424","7.47","0.735","5.355","0.06","0.6","30.4492","4.77179","15.98","0","SATNPRO1963","25.362","0.35524","5"],
    [2046,"HCEP03730564","2023-10-19 16:00:00","11.9434","3.52592","27.203","1.437","7.47","0.739","5.572","0.07","0.36","30.4512","4.77207","16.13","0","SATNPRO1963","25.406","0.35586","5"],
    [2047,"HCEP03730564","2023-10-19 16:15:00","11.9435","3.52643","27.256","1.457","7.47","0.748","5.848","0.05","0.51","30.456","4.77274","16.35","0","SATNPRO1963","25.402","0.35578","5"],
    [2048,"HCEP03730564","2023-10-19 16:30:00","11.9438","3.52693","27.269","1.463","7.48","0.768","6.292","0.19","0.57","30.4605","4.77337","16.42","0","SATNPRO1963","25.312","0.35454","5"],
    [2049,"HCEP03730564","2023-10-19 16:45:00","11.9448","3.52738","27.277","1.491","7.48","0.717","5.637","0.08","0.28","30.4639","4.77385","16.74","0","SATNPRO1963","25.57","0.35816","5"],
    [2050,"HCEP03730564","2023-10-19 17:00:00","11.9521","3.52812","27.315","1.531","7.48","0.677","4.557","0.11","0.52","30.4651","4.77391","17.18","0","SATNPRO1963","25.592","0.35848","5"],
    [2051,"HCEP03730564","2023-10-19 17:15:00","11.9529","3.52873","27.364","1.564","7.48","0.938","5.116","0.49","0.42","30.4703","4.77464","17.56","0","SATNPRO1963","25.738","0.36048","5"],
    [2052,"HCEP03730564","2023-10-19 17:30:00","11.9547","3.52909","27.403","1.581","7.49","0.743","5.556","0.11","0.44","30.4723","4.77489","17.75","0","SATNPRO1963","25.908","0.3629","5"],
    [2053,"HCEP03730564","2023-10-19 17:45:00","11.9531","3.52947","27.442","1.557","7.49","0.759","5.802","0.07","0.47","30.4772","4.77561","17.48","0","SATNPRO1963","25.95","0.36346","5"],
    [2054,"HCEP03730564","2023-10-19 18:00:00","11.9529","3.52992","27.468","1.54","7.49","0.773","5.461","0.1","0.33","30.4816","4.77624","17.29","0","SATNPRO1963","26.55","0.3719","5"],
    [2055,"HCEP03730564","2023-10-19 18:15:00","11.9549","3.53075","27.476","1.549","7.48","0.737","5.137","0.09","0.32","30.488","4.77711","17.39","0","SATNPRO1963","26.688000000000002","0.3738","5"],
    [2056,"HCEP03730564","2023-10-19 18:30:00","11.96","3.53185","27.5","1.587","7.49","0.735","5.271","0.3","0.4","30.4943","4.77793","17.82","0","SATNPRO1963","26.588","0.37242","5"],
    [2057,"HCEP03730564","2023-10-19 18:45:00","11.9736","3.53427","27.493","1.685","7.49","0.66","4.569","0.05","0.55","30.5064","4.77945","18.93","0","SATNPRO1963","26.582","0.3723","5"],
    [2058,"HCEP03730564","2023-10-19 19:00:00","11.9804","3.53541","27.494","1.782","7.5","0.648","4.614","0.08","0.26","30.5117","4.78011","20.02","0","SATNPRO1963","26.418","0.37002","5"],
    [2059,"HCEP03730564","2023-10-19 19:15:00","11.9787","3.53499","27.481","1.795","7.51","0.663","4.469","0.07","0.37","30.5091","4.77976","20.17","0","SATNPRO1963","26.522","0.37148","5"],
    [2060,"HCEP03730564","2023-10-19 19:30:00","11.9818","3.53552","27.474","1.809","7.51","0.726","5.111","0.13","0.5","30.5117","4.78008","20.32","0","SATNPRO1963","26.696","0.3739","5"],
    [2061,"HCEP03730564","2023-10-19 19:45:00","11.9948","3.53782","27.434","1.899","7.51","0.682","4.391","0.13","0.31","30.5231","4.78151","21.35","0","SATNPRO1963","27.394000000000002","0.38372","5"],
    [2062,"HCEP03730564","2023-10-19 20:00:00","11.9987","3.5384","27.385","1.942","7.52","0.67","4.761","0.09","0.24","30.5255","4.78179","21.83","0","SATNPRO1963","27.664","0.38752","5"],
    [2063,"HCEP03730564","2023-10-19 20:15:00","12.0043","3.53944","27.304","1.978","7.52","0.638","4.223","0.08","0.22","30.5309","4.78248","22.24","0","SATNPRO1963","27.612000000000002","0.38676","5"],
    [2064,"HCEP03730564","2023-10-19 20:30:00","12.0061","3.53967","27.21","1.996","7.53","0.577","4.109","0.09","0.15","30.5317","4.78256","22.44","0","SATNPRO1963","27.654","0.38736","5"],
    [2065,"HCEP03730564","2023-10-19 20:45:00","12.0083","3.54017","27.126","2.009","7.53","0.618","4.41","0.07","0.25","30.5347","4.78294","22.59","0","SATNPRO1963","28.242","0.39558","5"],
    [2066,"HCEP03730564","2023-10-19 21:00:00","12.0096","3.54036","26.896","2.009","7.53","0.575","4.589","0.05","0.15","30.5355","4.78303","22.59","0","SATNPRO1963","28.02","0.3924","5"],
    [2067,"HCEP03730564","2023-10-19 21:15:00","12.009","3.53997","26.772","2.016","7.53","0.591","4.197","0.07","0.12","30.5324","4.78259","22.67","0","SATNPRO1963","28.464000000000002","0.39866","5"],
    [2068,"HCEP03730564","2023-10-19 21:30:00","12.0077","3.53962","26.594","2.014","7.53","0.586","4.065","0.08","0.16","30.5301","4.78227","22.64","0","SATNPRO1963","28.362000000000002","0.39726","5"],
    [2069,"HCEP03730564","2023-10-19 21:45:00","12.0044","3.53896","26.411","2","7.53","0.601","4.18","0.06","0.09","30.5265","4.78181","22.49","0","SATNPRO1963","28.376","0.39748","5"],
    [2070,"HCEP03730564","2023-10-19 22:00:00","12.0042","3.53902","26.21","1.983","7.53","0.6","4.48","0.07","0.18","30.5274","4.78192","22.3","0","SATNPRO1963","28.41","0.39794","5"],
    [2071,"HCEP03730564","2023-10-19 22:15:00","12.0051","3.53936","26.047","1.977","7.53","0.591","4.336","0.05","0.19","30.5299","4.78225","22.23","0","SATNPRO1963","28.476","0.39886","5"],
    [2072,"HCEP03730564","2023-10-19 22:30:00","12.0075","3.53993","25.805","1.99","7.53","0.635","4.06","0.22","0.2","30.5335","4.78272","22.38","0","SATNPRO1963","28.2","0.39498","5"],
    [2073,"HCEP03730564","2023-10-19 22:45:00","12.0113","3.54086","25.611","2.002","7.53","0.571","3.793","0.08","0.19","30.5395","4.78349","22.51","0","SATNPRO1963","28.41","0.39792","5"],
    [2074,"HCEP03730564","2023-10-19 23:00:00","12.0229","3.54389","25.437","2.019","7.53","0.561","4.361","0.06","0.25","30.559","4.78608","22.71","0","SATNPRO1963","28.294","0.39632","5"],
    [2075,"HCEP03730564","2023-10-19 23:15:00","12.0605","3.55138","25.226","2.169","7.54","0.676","5.762","0.08","0.27","30.6","4.79133","24.43","0","SATNPRO1963","28.29","0.39626","5"],
    [2076,"HCEP03730564","2023-10-19 23:30:00","12.0694","3.55321","25.087","2.292","7.56","0.583","4.864","0.04","0.2","30.6102","4.79264","25.82","0","SATNPRO1963","28.27","0.39598","5"],
    [2077,"HCEP03730564","2023-10-19 23:45:00","12.0726","3.55394","24.907","2.319","7.56","0.625","4.811","0.08","0.21","30.6147","4.79322","26.13","0","SATNPRO1963","28.458000000000002","0.39858","5"],
    [2078,"HCEP03730564","2023-10-20 00:00:00","12.076","3.55491","24.714","2.328","7.57","0.594","4.739","0.06","0.26","30.6213","4.79409","26.22","0","SATNPRO1963","28.804000000000002","0.40344","5"],
    [2079,"HCEP03730564","2023-10-20 00:15:00","12.0807","3.55573","24.605","2.367","7.57","0.554","3.824","0.04","0.24","30.6253","4.79459","26.67","0","SATNPRO1963","29.356","0.41118","5"],
    [2080,"HCEP03730564","2023-10-20 00:30:00","12.0813","3.55597","24.447","2.369","7.57","0.501","3.463","0.04","0.16","30.6272","4.79483","26.7","0","SATNPRO1963","29.434","0.41232","5"],
    [2081,"HCEP03730564","2023-10-20 00:45:00","12.0815","3.55618","24.396","2.367","7.57","0.611","4.495","0.07","0.17","30.629","4.79508","26.67","0","SATNPRO1963","29.516","0.41344","5"],
    [2082,"HCEP03730564","2023-10-20 01:00:00","12.0826","3.55655","24.315","2.352","7.57","0.571","4.458","0.07","0.2","30.6317","4.79544","26.51","0","SATNPRO1963","29.648","0.41528","5"],
    [2083,"HCEP03730564","2023-10-20 01:15:00","12.0868","3.55759","24.306","2.366","7.57","0.586","4.198","0.06","0.24","30.6382","4.79631","26.66","0","SATNPRO1963","29.784","0.4172","5"],
    [2084,"HCEP03730564","2023-10-20 01:30:00","12.0901","3.55804","24.289","2.406","7.57","0.573","4.217","0.06","0.2","30.6397","4.79647","27.12","0","SATNPRO1963","29.896","0.41874","5"],
    [2085,"HCEP03730564","2023-10-20 01:45:00","12.089","3.55844","24.275","2.368","7.57","0.6","4.401","0.04","0.23","30.6445","4.79717","26.69","0","SATNPRO1963","29.958","0.4196","5"],
    [2086,"HCEP03730564","2023-10-20 02:00:00","12.0882","3.55839","24.26","2.325","7.57","0.634","5.137","0.06","0.2","30.6447","4.7972","26.21","0","SATNPRO1963","29.742","0.4166","5"],
    [2087,"HCEP03730564","2023-10-20 02:15:00","12.089","3.55834","24.317","2.338","7.57","0.607","4.681","0.05","0.2","30.6436","4.79703","26.35","0","SATNPRO1963","29.61","0.41476","5"],
    [2088,"HCEP03730564","2023-10-20 02:30:00","12.0891","3.55862","24.35","2.324","7.57","0.582","4.878","0.04","0.33","30.6462","4.79739","26.2","0","SATNPRO1963","30.163999999999998","0.4225","5"],
    [2089,"HCEP03730564","2023-10-20 02:45:00","12.0897","3.55883","24.447","2.319","7.57","0.59","4.748","0.05","0.15","30.6476","4.7976","26.14","0","SATNPRO1963","29.556","0.41402","5"],
    [2090,"HCEP03730564","2023-10-20 03:00:00","12.0892","3.55869","24.507","2.321","7.57","0.563","4.407","0.07","0.14","30.6467","4.79748","26.16","0","SATNPRO1963","29.503999999999998","0.41326","5"],
    [2091,"HCEP03730564","2023-10-20 03:15:00","12.0888","3.55843","24.629","2.321","7.57","0.565","4.331","0.04","0.18","30.6445","4.79718","26.16","0","SATNPRO1963","29.714","0.41614","5"],
    [2092,"HCEP03730564","2023-10-20 03:30:00","12.0869","3.55768","24.732","2.331","7.57","0.556","4.18","0.08","0.18","30.6388","4.79642","26.27","0","SATNPRO1963","29.496","0.41312","5"],
    [2093,"HCEP03730564","2023-10-20 03:45:00","12.0776","3.55596","24.924","2.274","7.57","0.588","4.548","0.06","0.2","30.6299","4.79529","25.63","0","SATNPRO1963","29.362","0.41126","5"],
    [2094,"HCEP03730564","2023-10-20 04:00:00","12.0775","3.5555","25.054","2.289","7.57","0.507","3.881","0.04","0.26","30.6256","4.79469","25.79","0","SATNPRO1963","29.558","0.414","5"],
    [2095,"HCEP03730564","2023-10-20 04:15:00","12.0719","3.55387","25.228","2.302","7.57","0.54","3.787","0.04","0.36","30.6145","4.79322","25.93","0","SATNPRO1963","29.536","0.41372","5"],
    [2096,"HCEP03730564","2023-10-20 04:30:00","12.0558","3.54937","25.366","2.262","7.56","0.444","2.562","0.06","0.2","30.5845","4.78922","25.47","0","SATNPRO1963","29.59","0.41438","5"],
    [2097,"HCEP03730564","2023-10-20 04:45:00","12.0166","3.54221","25.558","2.07","7.55","0.46","2.638","0.04","0.08","30.548","4.78462","23.28","0","SATNPRO1963","29.126","0.40798","5"],
    [2098,"HCEP03730564","2023-10-20 05:00:00","12.0093","3.54054","25.72","1.983","7.54","0.441","2.659","0.04","0.09","30.5379","4.78331","22.3","0","SATNPRO1963","29.576","0.41426","5"],
    [2099,"HCEP03730564","2023-10-20 05:15:00","12.0073","3.54022","25.89","1.956","7.54","0.461","2.583","0.05","0.07","30.5364","4.78313","22","0","SATNPRO1963","29.68","0.41574","5"],
    [2100,"HCEP03730564","2023-10-20 05:30:00","12.0123","3.54115","26.083","1.952","7.53","0.464","2.955","0.06","0.14","30.5411","4.78374","21.95","0","SATNPRO1963","28.8","0.40338","5"],
    [2101,"HCEP03730564","2023-10-20 05:45:00","12.0342","3.54571","26.307","2.04","7.53","0.606","4.724","0.09","0.17","30.5668","4.78707","22.96","0","SATNPRO1963","28.522000000000002","0.39948","5"],
    [2102,"HCEP03730564","2023-10-20 06:00:00","12.0274","3.54418","26.488","2.051","7.54","0.556","4.397","0.06","0.17","30.5577","4.78589","23.07","0","SATNPRO1963","28.428","0.39818","5"],
    [2103,"HCEP03730564","2023-10-20 06:15:00","12.0356","3.54612","26.684","2.056","7.54","0.64","5.395","0.08","0.37","30.5695","4.78745","23.13","0","SATNPRO1963","28.342","0.39696","5"],
    [2104,"HCEP03730564","2023-10-20 06:30:00","12.0422","3.54793","26.831","2.071","7.54","0.663","5.984","0.12","0.3","30.5814","4.78904","23.31","0","SATNPRO1963","28.282","0.39614","5"],
    [2105,"HCEP03730564","2023-10-20 06:45:00","12.0463","3.54897","26.982","2.082","7.54","0.736","6.913","0.06","0.38","30.5879","4.78991","23.44","0","SATNPRO1963","28.71","0.40212","5"],
    [2106,"HCEP03730564","2023-10-20 07:00:00","12.0431","3.54758","27.122","2.105","7.54","0.668","6.543","0.06","0.3","30.5771","4.78845","23.69","0","SATNPRO1963","28.652","0.4013","5"],
    [2107,"HCEP03730564","2023-10-20 07:15:00","12.0344","3.545","27.262","2.118","7.55","0.688","5.797","0.11","0.47","30.5595","4.78609","23.84","0","SATNPRO1963","28.754","0.4027","5"],
    [2108,"HCEP03730564","2023-10-20 07:30:00","12.0232","3.54184","27.419","2.144","7.55","0.546","4.945","0.04","0.32","30.5384","4.78327","24.11","0","SATNPRO1963","28.718","0.40228","5"],
    [2109,"HCEP03730564","2023-10-20 07:45:00","12.0166","3.54023","27.534","2.115","7.55","0.639","5.75","0.07","0.56","30.5284","4.78196","23.79","0","SATNPRO1963","28.752","0.40268","5"],
    [2110,"HCEP03730564","2023-10-20 08:00:00","12.0183","3.54074","27.615","2.099","7.54","0.628","5.888","0.04","0.53","30.5318","4.78242","23.6","0","SATNPRO1963","28.887999999999998","0.40462","5"],
    [2111,"HCEP03730564","2023-10-20 08:15:00","12.0178","3.54105","27.696","2.057","7.54","0.658","5.912","0.06","0.37","30.5351","4.78291","23.14","0","SATNPRO1963","28.93","0.4052","5"],
    [2112,"HCEP03730564","2023-10-20 08:30:00","12.0153","3.54049","27.721","2.01","7.54","0.681","5.93","0.06","0.59","30.5318","4.78247","22.61","0","SATNPRO1963","28.994","0.40612","5"],
    [2113,"HCEP03730564","2023-10-20 08:45:00","12.0104","3.53898","27.811","1.99","7.54","0.701","5.727","0.05","0.58","30.5213","4.78106","22.38","0","SATNPRO1963","28.886","0.40458","5"],
    [2114,"HCEP03730564","2023-10-20 09:00:00","12.002","3.53638","27.835","1.96","7.53","0.728","6.111","0.06","0.45","30.5032","4.77863","22.03","0","SATNPRO1963","28.812","0.40358","5"],
    [2115,"HCEP03730564","2023-10-20 09:15:00","11.9934","3.53363","27.853","1.909","7.53","0.778","5.924","0.07","0.7","30.484","4.77604","21.45","0","SATNPRO1963","28.33","0.3968","5"],
    [2116,"HCEP03730564","2023-10-20 09:30:00","11.988","3.53208","27.863","1.865","7.52","0.751","6.436","0.06","0.4","30.4735","4.77463","20.95","0","SATNPRO1963","28.196","0.39494","5"],
    [2117,"HCEP03730564","2023-10-20 09:45:00","11.9862","3.53192","27.897","1.849","7.52","0.778","5.618","0.15","0.51","30.4734","4.77464","20.78","0","SATNPRO1963","28.174","0.3946","5"],
    [2118,"HCEP03730564","2023-10-20 10:00:00","11.9849","3.53186","27.912","1.846","7.52","0.691","5.61","0.05","0.48","30.4739","4.77473","20.74","0","SATNPRO1963","27.77","0.38894","5"],
    [2119,"HCEP03730564","2023-10-20 10:15:00","11.9854","3.53203","27.89","1.852","7.52","0.779","5.86","0.1","0.82","30.4752","4.77491","20.8","0","SATNPRO1963","27.512","0.38536","5"],
    [2120,"HCEP03730564","2023-10-20 10:30:00","11.9863","3.53234","27.844","1.849","7.52","0.721","5.863","0.07","0.54","30.4774","4.7752","20.77","0","SATNPRO1963","27.414","0.38398","5"],
    [2121,"HCEP03730564","2023-10-20 10:45:00","11.9876","3.53269","27.817","1.849","7.52","0.788","5.845","0.09","0.44","30.4797","4.77551","20.77","0","SATNPRO1963","27.286","0.38222","5"],
    [2122,"HCEP03730564","2023-10-20 11:00:00","11.9872","3.53223","27.738","1.845","7.51","0.792","6.289","0.09","0.47","30.4756","4.77493","20.73","0","SATNPRO1963","27.51","0.38532","5"],
    [2123,"HCEP03730564","2023-10-20 11:15:00","11.9867","3.53167","27.716","1.837","7.51","0.76","5.822","0.07","0.53","30.4706","4.77424","20.64","0","SATNPRO1963","27.526","0.38556","5"],
    [2124,"HCEP03730564","2023-10-20 11:30:00","11.9849","3.531","27.691","1.821","7.51","0.994","6.384","0.26","0.71","30.4658","4.77357","20.46","0","SATNPRO1963","27.526","0.38552","5"],
    [2125,"HCEP03730564","2023-10-20 11:45:00","11.9829","3.53029","27.654","1.799","7.51","0.839","5.961","0.08","0.44","30.4605","4.77286","20.21","0","SATNPRO1963","27.258","0.38184","5"],
    [2126,"HCEP03730564","2023-10-20 12:00:00","11.9818","3.52977","27.589","1.784","7.51","0.846","6.282","0.14","0.54","30.4566","4.77231","20.04","0","SATNPRO1963","27.508","0.38526","5"],
    [2127,"HCEP03730564","2023-10-20 12:15:00","11.9791","3.52903","27.537","1.742","7.51","0.89","5.931","0.09","0.47","30.4517","4.77166","19.56","0","SATNPRO1963","27.256","0.38178","5"],
    [2128,"HCEP03730564","2023-10-20 12:30:00","11.9776","3.52851","27.493","1.698","7.5","0.855","5.528","0.13","0.29","30.4479","4.77114","19.07","0","SATNPRO1963","27.082","0.37934","5"],
    [2129,"HCEP03730564","2023-10-20 12:45:00","11.9832","3.52841","27.424","1.713","7.5","0.767","4.555","0.13","0.26","30.4424","4.77028","19.24","0","SATNPRO1963","26.986","0.37798","5"],
    [2130,"HCEP03730564","2023-10-20 13:00:00","11.985900000000001","3.52849","27.364","1.723","7.5","0.74","4.828","0.08","0.31","30.441","4.77005","19.35","0","SATNPRO1963","26.962","0.37766","5"],
    [2131,"HCEP03730564","2023-10-20 13:15:00","11.9853","3.52895","27.318","1.735","7.5","0.774","4.637","0.09","0.34","30.446","4.77075","19.49","0","SATNPRO1963","26.792","0.37528","5"],
    [2132,"HCEP03730564","2023-10-20 13:30:00","11.9924","3.52983","27.263","1.774","7.51","0.727","4.251","0.14","0.35","30.4486","4.77102","19.93","0","SATNPRO1963","26.428","0.37018","5"],
    [2133,"HCEP03730564","2023-10-20 13:45:00","11.9909","3.53024","27.218","1.755","7.51","0.819","5.025","0.08","0.45","30.4537","4.77176","19.72","0","SATNPRO1963","26.558","0.372","5"],
    [2134,"HCEP03730564","2023-10-20 14:00:00","11.9911","3.53053","27.161","1.75","7.5","0.796","5.554","0.1","0.43","30.4563","4.77213","19.66","0","SATNPRO1963","26.566","0.3721","5"],
    [2135,"HCEP03730564","2023-10-20 14:15:00","11.9918","3.531","27.126","1.748","7.5","0.725","4.329","0.12","0.23","30.4603","4.77268","19.64","0","SATNPRO1963","26.444","0.37042","5"],
    [2136,"HCEP03730564","2023-10-20 14:30:00","11.9915","3.5313","27.08","1.754","7.5","0.769","5.2","0.1","0.33","30.4635","4.77312","19.71","0","SATNPRO1963","26.816","0.37564","5"],
    [2137,"HCEP03730564","2023-10-20 14:45:00","11.9939","3.53163","27.08","1.755","7.51","0.769","4.67","0.1","0.36","30.4647","4.77326","19.71","0","SATNPRO1963","26.696","0.37394","5"],
    [2138,"HCEP03730564","2023-10-20 15:00:00","11.9993","3.53192","27.107","1.797","7.51","0.747","5.035","0.11","0.35","30.463","4.77295","20.2","0","SATNPRO1963","26.87","0.3764","5"],
    [2139,"HCEP03730564","2023-10-20 15:15:00","12.0039","3.53255","27.108","1.831","7.51","0.656","3.983","0.05","0.5","30.4654","4.77322","20.57","0","SATNPRO1963","26.924","0.3771","5"],
    [2140,"HCEP03730564","2023-10-20 15:30:00","12.0015","3.53285","27.099","1.818","7.51","0.635","4.294","0.08","0.33","30.4702","4.77393","20.43","0","SATNPRO1963","26.818","0.37564","5"],
    [2141,"HCEP03730564","2023-10-20 15:45:00","11.998","3.53357","27.087","1.779","7.51","0.739","5.196","0.07","0.32","30.4799","4.77535","19.99","0","SATNPRO1963","26.854","0.37618","5"],
    [2142,"HCEP03730564","2023-10-20 16:00:00","11.9984","3.53401","27.09","1.757","7.51","0.656","4.828","0.08","0.27","30.4839","4.77591","19.74","0","SATNPRO1963","26.896","0.37674","5"],
    [2143,"HCEP03730564","2023-10-20 16:15:00","11.9983","3.53448","27.099","1.734","7.51","0.726","5.431","0.1","0.37","30.4884","4.77655","19.48","0","SATNPRO1963","27.216","0.38126","5"],
    [2144,"HCEP03730564","2023-10-20 16:30:00","11.9973","3.53513","27.115","1.707","7.5","0.727","5.5","0.12","0.5","30.4954","4.77755","19.18","0","SATNPRO1963","27.016000000000002","0.37842","5"],
    [2145,"HCEP03730564","2023-10-20 16:45:00","11.9973","3.53566","27.081","1.676","7.5","0.75","5.192","0.09","0.33","30.5005","4.77827","18.84","0","SATNPRO1963","26.998","0.37818","5"],
    [2146,"HCEP03730564","2023-10-20 17:00:00","11.9994","3.53628","27.088","1.663","7.5","0.738","6.232","0.07","0.5","30.5047","4.77884","18.69","0","SATNPRO1963","26.938","0.37734","5"],
    [2147,"HCEP03730564","2023-10-20 17:15:00","12.005","3.53775","27.092","1.697","7.5","0.748","5.589","0.08","0.26","30.5142","4.78009","19.08","0","SATNPRO1963","26.93","0.3772","5"],
    [2148,"HCEP03730564","2023-10-20 17:30:00","12.0067","3.53861","27.057","1.72","7.5","0.684","5.634","0.11","0.39","30.5211","4.78104","19.33","0","SATNPRO1963","26.862000000000002","0.37626","5"],
    [2149,"HCEP03730564","2023-10-20 17:45:00","12.0074","3.5389","27.067","1.731","7.5","0.693","5.436","0.06","0.38","30.5232","4.78134","19.47","0","SATNPRO1963","26.96","0.37766","5"],
    [2150,"HCEP03730564","2023-10-20 18:00:00","12.0092","3.53943","27.112","1.737","7.51","0.7","5.61","0.13","0.67","30.5268","4.78182","19.53","0","SATNPRO1963","26.656000000000002","0.37338","5"],
    [2151,"HCEP03730564","2023-10-20 18:15:00","12.0123","3.54023","27.138","1.764","7.51","0.78","5.126","0.26","0.24","30.532","4.7825","19.84","0","SATNPRO1963","27.294","0.3823","5"],
    [2152,"HCEP03730564","2023-10-20 18:30:00","12.0124","3.54027","27.157","1.777","7.51","0.646","5.06","0.1","0.45","30.5323","4.78255","19.98","0","SATNPRO1963","27.244","0.38162","5"],
    [2153,"HCEP03730564","2023-10-20 18:45:00","12.0136","3.54071","27.179","1.785","7.51","0.634","4.634","0.07","0.34","30.5354","4.78298","20.07","0","SATNPRO1963","27.326","0.3827","5"],
    [2154,"HCEP03730564","2023-10-20 19:00:00","12.0162","3.54128","27.2","1.801","7.51","0.574","4.442","0.06","0.27","30.5389","4.78343","20.26","0","SATNPRO1963","27.36","0.38326","5"],
    [2155,"HCEP03730564","2023-10-20 19:15:00","12.0171","3.54154","27.198","1.828","7.51","0.642","4.606","0.12","0.42","30.5405","4.78365","20.56","0","SATNPRO1963","27.336000000000002","0.3829","5"],
    [2156,"HCEP03730564","2023-10-20 19:30:00","12.0227","3.54289","27.17","1.849","7.51","0.605","4.452","0.11","0.22","30.5489","4.78476","20.79","0","SATNPRO1963","27.662","0.3874","5"],
    [2157,"HCEP03730564","2023-10-20 19:45:00","12.0284","3.54435","27.198","1.87","7.52","0.605","4.636","0.1","0.5","30.5582","4.78598","21.04","0","SATNPRO1963","27.536","0.38568","5"],
    [2158,"HCEP03730564","2023-10-20 20:00:00","12.0338","3.54558","27.194","1.892","7.52","0.551","4.259","0.1","0.71","30.5656","4.78695","21.29","0","SATNPRO1963","27.816","0.38962","5"],
    [2159,"HCEP03730564","2023-10-20 20:15:00","12.034","3.54561","27.176","1.91","7.52","0.609","4.21","0.18","0.54","30.5657","4.78697","21.49","0","SATNPRO1963","27.924","0.39114","5"],
    [2160,"HCEP03730564","2023-10-20 20:30:00","12.0338","3.54557","27.147","1.901","7.52","0.554","4.683","0.07","0.39","30.5655","4.78694","21.39","0","SATNPRO1963","27.900000000000002","0.39074","5"],
    [2161,"HCEP03730564","2023-10-20 20:45:00","12.038","3.54669","27.106","1.917","7.53","0.567","4.145","0.09","0.2","30.5728","4.7879","21.57","0","SATNPRO1963","28.198","0.39494","5"],
    [2162,"HCEP03730564","2023-10-20 21:00:00","12.0398","3.54704","27.044","1.923","7.53","0.549","4.588","0.07","0.26","30.5747","4.78815","21.64","0","SATNPRO1963","28.108","0.39374","5"],
    [2163,"HCEP03730564","2023-10-20 21:15:00","12.0427","3.5479","26.961","1.938","7.53","0.566","4.074","0.08","0.28","30.5806","4.78893","21.82","0","SATNPRO1963","28.304000000000002","0.39644","5"],
    [2164,"HCEP03730564","2023-10-20 21:30:00","12.0465","3.54879","26.864","1.933","7.53","0.528","4.306","0.07","0.28","30.5861","4.78965","21.76","0","SATNPRO1963","28.238","0.3955","5"],
    [2165,"HCEP03730564","2023-10-20 21:45:00","12.0508","3.54986","26.745","1.941","7.53","0.547","4.143","0.04","0.4","30.5928","4.79053","21.85","0","SATNPRO1963","28.444","0.39842","5"],
    [2166,"HCEP03730564","2023-10-20 22:00:00","12.0544","3.55086","26.625","1.939","7.53","0.571","4.798","0.09","0.89","30.5995","4.79142","21.83","0","SATNPRO1963","28.282","0.39616","5"],
    [2167,"HCEP03730564","2023-10-20 22:15:00","12.0579","3.55188","26.491","1.934","7.53","0.599","4.486","0.21","0.48","30.6064","4.79234","21.77","0","SATNPRO1963","28.412","0.39794","5"],
    [2168,"HCEP03730564","2023-10-20 22:30:00","12.062","3.55289","26.342","1.939","7.53","0.535","4.754","0.06","0.42","30.6127","4.79316","21.84","0","SATNPRO1963","28.282","0.39614","5"],
    [2169,"HCEP03730564","2023-10-20 22:45:00","12.0643","3.55355","26.18","1.952","7.53","0.57","4.108","0.09","0.24","30.6172","4.79375","21.98","0","SATNPRO1963","28.452","0.39854","5"],
    [2170,"HCEP03730564","2023-10-20 23:00:00","12.0661","3.55392","26","1.967","7.53","0.513","4.126","0.05","0.54","30.6194","4.79403","22.15","0","SATNPRO1963","28.4","0.3978","5"],
    [2171,"HCEP03730564","2023-10-20 23:15:00","12.0654","3.5537","25.823","1.97","7.53","0.548","3.973","0.06","0.28","30.618","4.79383","22.19","0","SATNPRO1963","28.646","0.40124","5"],
    [2172,"HCEP03730564","2023-10-20 23:30:00","12.0652","3.55366","25.64","1.965","7.53","0.511","4.14","0.07","0.31","30.6178","4.79379","22.13","0","SATNPRO1963","28.663999999999998","0.40148","5"],
    [2173,"HCEP03730564","2023-10-20 23:45:00","12.0678","3.55423","25.472","1.973","7.53","0.502","3.925","0.06","0.21","30.6212","4.79423","22.23","0","SATNPRO1963","28.79","0.40326","5"],
    [2174,"HCEP03730564","2023-10-21 00:00:00","12.067","3.55414","25.307","1.973","7.53","0.512","4.093","0.07","0.2","30.621","4.7942","22.22","0","SATNPRO1963","28.752","0.40272","5"],
    [2175,"HCEP03730564","2023-10-21 00:15:00","12.069","3.55445","25.136","1.987","7.53","0.512","3.808","0.06","0.25","30.6224","4.79437","22.38","0","SATNPRO1963","28.872","0.40436","5"],
    [2176,"HCEP03730564","2023-10-21 00:30:00","12.0702","3.55486","24.931","1.984","7.53","0.488","4.119","0.05","0.3","30.6255","4.79477","22.35","0","SATNPRO1963","28.786","0.4032","5"],
    [2177,"HCEP03730564","2023-10-21 00:45:00","12.0713","3.55518","24.786","1.989","7.54","0.495","3.554","0.11","0.27","30.6277","4.79506","22.4","0","SATNPRO1963","28.808","0.4035","5"],
    [2178,"HCEP03730564","2023-10-21 01:00:00","12.0708","3.55516","24.65","1.984","7.54","0.492","3.884","0.07","0.26","30.628","4.7951","22.35","0","SATNPRO1963","28.688","0.40184","5"],
    [2179,"HCEP03730564","2023-10-21 01:15:00","12.0712","3.55524","24.534","1.981","7.54","0.519","3.839","0.12","0.41","30.6285","4.79516","22.32","0","SATNPRO1963","28.886","0.40458","5"],
    [2180,"HCEP03730564","2023-10-21 01:30:00","12.0708","3.55522","24.439","1.974","7.54","0.476","3.835","0.05","0.26","30.6285","4.79517","22.23","0","SATNPRO1963","28.948","0.40546","5"],
    [2181,"HCEP03730564","2023-10-21 01:45:00","12.0702","3.55515","24.348","1.96","7.53","0.542","4.043","0.08","0.42","30.6284","4.79516","22.08","0","SATNPRO1963","28.908","0.40486","5"],
    [2182,"HCEP03730564","2023-10-21 02:00:00","12.0706","3.5553","24.289","1.961","7.53","0.482","3.999","0.06","0.47","30.6296","4.79531","22.09","0","SATNPRO1963","28.756","0.40276","5"],
    [2183,"HCEP03730564","2023-10-21 02:15:00","12.0712","3.55538","24.25","1.965","7.53","0.537","4.139","0.08","0.22","30.6298","4.79533","22.14","0","SATNPRO1963","28.748","0.40268","5"],
    [2184,"HCEP03730564","2023-10-21 02:30:00","12.0708","3.5554","24.243","1.959","7.53","0.533","4.123","0.24","0.28","30.6304","4.79542","22.07","0","SATNPRO1963","28.766","0.4029","5"],
    [2185,"HCEP03730564","2023-10-21 02:45:00","12.0696","3.5553","24.252","1.921","7.53","0.54","4.716","0.05","0.26","30.6304","4.79543","21.64","0","SATNPRO1963","28.86","0.40424","5"],
    [2186,"HCEP03730564","2023-10-21 03:00:00","12.0772","3.55656","24.282","1.997","7.53","0.463","3.989","0.04","0.26","30.6362","4.79616","22.51","0","SATNPRO1963","28.802","0.40342","5"],
    [2187,"HCEP03730564","2023-10-21 03:15:00","12.0849","3.55744","24.322","2.107","7.54","0.461","3.367","0.05","0.5","30.6383","4.79634","23.75","0","SATNPRO1963","28.808","0.40346","5"],
    [2188,"HCEP03730564","2023-10-21 03:30:00","12.0909","3.55837","24.373","2.138","7.55","0.43","3.108","0.08","0.2","30.6423","4.79683","24.1","0","SATNPRO1963","28.81","0.40354","5"],
    [2189,"HCEP03730564","2023-10-21 03:45:00","12.0981","3.55922","24.452","2.222","7.55","0.495","2.826","0.14","0.26","30.6444","4.79703","25.05","0","SATNPRO1963","28.364","0.39728","5"],
    [2190,"HCEP03730564","2023-10-21 04:00:00","12.1033","3.55978","24.547","2.27","7.56","0.406","2.568","0.07","0.32","30.6455","4.79712","25.59","0","SATNPRO1963","29.09","0.40746","5"],
    [2191,"HCEP03730564","2023-10-21 04:15:00","12.0995","3.55934","24.658","2.301","7.56","0.464","2.521","0.08","0.2","30.6443","4.79701","25.94","0","SATNPRO1963","29.682","0.41576","5"],
    [2192,"HCEP03730564","2023-10-21 04:30:00","12.0931","3.55873","24.77","2.197","7.56","0.684","3.211","0.95","0.24","30.6438","4.79703","24.76","0","SATNPRO1963","29.766","0.4169","5"],
    [2193,"HCEP03730564","2023-10-21 04:45:00","12.0895","3.55867","24.884","2.125","7.55","0.461","3.395","0.05","0.3","30.6461","4.79741","23.95","0","SATNPRO1963","29.91","0.41898","5"],
    [2194,"HCEP03730564","2023-10-21 05:00:00","12.0901","3.55883","25.033","2.11","7.55","0.443","3.284","0.08","0.13","30.647","4.79754","23.78","0","SATNPRO1963","29.806","0.41748","5"],
    [2195,"HCEP03730564","2023-10-21 05:15:00","12.0903","3.55888","25.193","2.107","7.55","0.466","3.185","0.06","0.18","30.6473","4.79758","23.75","0","SATNPRO1963","29.828","0.4178","5"],
    [2196,"HCEP03730564","2023-10-21 05:30:00","12.0939","3.55887","25.338","2.153","7.55","0.527","3.289","0.24","0.2","30.6442","4.79711","24.27","0","SATNPRO1963","29.294","0.4103","5"],
    [2197,"HCEP03730564","2023-10-21 05:45:00","12.0947","3.55884","25.501","2.19","7.55","0.451","3.061","0.08","0.17","30.6432","4.79696","24.69","0","SATNPRO1963","29.702","0.41602","5"],
    [2198,"HCEP03730564","2023-10-21 06:00:00","12.0987","3.55921","25.695","2.243","7.56","0.35","2.212","0.03","0.1","30.6434","4.79694","25.29","0","SATNPRO1963","29.538","0.41372","5"],
    [2199,"HCEP03730564","2023-10-21 06:15:00","12.0975","3.55911","25.881","2.235","7.56","0.426","2.904","0.05","0.25","30.6434","4.79697","25.2","0","SATNPRO1963","29.5","0.41318","5"],
    [2200,"HCEP03730564","2023-10-21 06:30:00","12.0956","3.5589","26.064","2.211","7.56","0.443","3.357","0.05","0.16","30.6429","4.79694","24.93","0","SATNPRO1963","29.522","0.41352","5"],
    [2201,"HCEP03730564","2023-10-21 06:45:00","12.0931","3.55888","26.233","2.166","7.56","0.476","3.595","0.06","0.27","30.6447","4.79724","24.41","0","SATNPRO1963","29.541999999999998","0.41378","5"],
    [2202,"HCEP03730564","2023-10-21 07:00:00","12.092","3.559","26.426","2.123","7.55","0.464","3.683","0.1","0.32","30.6466","4.79753","23.93","0","SATNPRO1963","29.89","0.41868","5"],
    [2203,"HCEP03730564","2023-10-21 07:15:00","12.0899","3.55897","26.603","2.1","7.55","0.521","3.979","0.22","0.26","30.6479","4.79776","23.67","0","SATNPRO1963","29.858","0.41822","5"],
    [2204,"HCEP03730564","2023-10-21 07:30:00","12.0892","3.55897","26.771","2.046","7.55","0.463","4.249","0.17","0.45","30.6485","4.79786","23.06","0","SATNPRO1963","30.232","0.42346","5"],
    [2205,"HCEP03730564","2023-10-21 07:45:00","12.0899","3.55914","26.938","2.043","7.54","0.538","4.876","0.1","0.77","30.6494","4.79799","23.02","0","SATNPRO1963","29.376","0.41148","5"],
    [2206,"HCEP03730564","2023-10-21 08:00:00","12.0913","3.55913","27.075","2.064","7.54","0.571","5.109","0.1","0.87","30.6482","4.7978","23.27","0","SATNPRO1963","29.438","0.41234","5"],
    [2207,"HCEP03730564","2023-10-21 08:15:00","12.0923","3.55932","27.207","2.087","7.55","0.519","4.43","0.06","0.58","30.6491","4.79793","23.52","0","SATNPRO1963","29.242","0.4096","5"],
    [2208,"HCEP03730564","2023-10-21 08:30:00","12.0921","3.55946","27.334","2.083","7.55","0.439","4.139","0.05","0.3","30.6506","4.79814","23.48","0","SATNPRO1963","29.094","0.40754","5"],
    [2209,"HCEP03730564","2023-10-21 08:45:00","12.0931","3.55958","27.469","2.097","7.55","0.553","3.989","0.26","0.46","30.6508","4.79816","23.64","0","SATNPRO1963","28.826","0.40374","5"],
    [2210,"HCEP03730564","2023-10-21 09:00:00","12.0934","3.55963","27.546","2.09","7.55","0.549","4.057","0.23","0.56","30.6511","4.7982","23.55","0","SATNPRO1963","29.144","0.40822","5"],
    [2211,"HCEP03730564","2023-10-21 09:15:00","12.0955","3.55988","27.62","2.112","7.55","0.507","3.569","0.1","0.31","30.6517","4.79827","23.81","0","SATNPRO1963","29.03","0.40662","5"],
    [2212,"HCEP03730564","2023-10-21 09:30:00","12.0962","3.55989","27.673","2.103","7.55","0.479","4.282","0.06","0.32","30.6512","4.79819","23.71","0","SATNPRO1963","29.343999999999998","0.411","5"],
    [2213,"HCEP03730564","2023-10-21 09:45:00","12.1021","3.56052","27.718","2.156","7.55","0.542","3.816","0.17","0.24","30.6524","4.79828","24.31","0","SATNPRO1963","29.35","0.41108","5"],
    [2214,"HCEP03730564","2023-10-21 10:00:00","12.1052","3.56098","27.751","2.215","7.55","0.461","3.475","0.05","0.45","30.6541","4.79848","24.97","0","SATNPRO1963","29.364","0.41134","5"],
    [2215,"HCEP03730564","2023-10-21 10:15:00","12.1111","3.56199","27.793","2.279","7.56","0.479","2.969","0.07","0.23","30.6589","4.79908","25.7","0","SATNPRO1963","29.36","0.41124","5"],
    [2216,"HCEP03730564","2023-10-21 10:30:00","12.110900000000001","3.56171","27.809","2.243","7.56","0.468","3.365","0.05","0.32","30.6565","4.79875","25.3","0","SATNPRO1963","29.168","0.40854","5"],
    [2217,"HCEP03730564","2023-10-21 10:45:00","12.1074","3.56171","27.818","2.192","7.56","0.52","3.934","0.13","0.65","30.659300000000002","4.79919","24.72","0","SATNPRO1963","29.264","0.4099","5"],
    [2218,"HCEP03730564","2023-10-21 11:00:00","12.1068","3.56171","27.836","2.194","7.56","0.47","3.505","0.05","0.21","30.6598","4.79926","24.74","0","SATNPRO1963","29.696","0.41594","5"],
    [2219,"HCEP03730564","2023-10-21 11:15:00","12.1055","3.56155","27.841","2.167","7.56","0.538","4.142","0.07","0.24","30.659300000000002","4.79922","24.44","0","SATNPRO1963","29.994","0.4201","5"],
    [2220,"HCEP03730564","2023-10-21 11:30:00","12.1064","3.56176","27.82","2.173","7.56","0.508","3.92","0.09","0.35","30.6607","4.7994","24.51","0","SATNPRO1963","29.752","0.41672","5"],
    [2221,"HCEP03730564","2023-10-21 11:45:00","12.1064","3.562","27.795","2.138","7.55","0.56","4.562","0.06","0.34","30.663","4.79972","24.11","0","SATNPRO1963","29.458000000000002","0.41262","5"],
    [2222,"HCEP03730564","2023-10-21 12:00:00","12.1072","3.56208","27.766","2.156","7.55","0.509","4.363","0.05","0.42","30.6631","4.79972","24.31","0","SATNPRO1963","29.432","0.41224","5"],
    [2223,"HCEP03730564","2023-10-21 12:15:00","12.1091","3.56131","27.729","2.249","7.56","0.587","3.953","0.35","0.61","30.6542","4.79843","25.36","0","SATNPRO1963","29.468","0.41274","5"],
    [2224,"HCEP03730564","2023-10-21 12:30:00","12.1085","3.56189","27.671","2.235","7.56","0.552","4.271","0.17","0.28","30.6603","4.7993","25.21","0","SATNPRO1963","29.604","0.41464","5"],
    [2225,"HCEP03730564","2023-10-21 12:45:00","12.1041","3.56071","27.638","2.241","7.56","0.529","3.805","0.1","0.28","30.6525","4.79826","25.27","0","SATNPRO1963","29.488","0.41304","5"],
    [2226,"HCEP03730564","2023-10-21 13:00:00","12.1101","3.56281","27.574","2.165","7.56","0.544","4.504","0.12","0.48","30.6678","4.80033","24.41","0","SATNPRO1963","29.522000000000002","0.41348","5"],
    [2227,"HCEP03730564","2023-10-21 13:15:00","12.1099","3.56315","27.504","2.1","7.55","0.585","5.029","0.08","0.48","30.6711","4.8008","23.68","0","SATNPRO1963","29.982","0.41994","5"],
    [2228,"HCEP03730564","2023-10-21 13:30:00","12.1118","3.56312","27.434","2.141","7.55","0.529","4.416","0.08","0.28","30.6693","4.80052","24.14","0","SATNPRO1963","30.016","0.42044","5"],
    [2229,"HCEP03730564","2023-10-21 13:45:00","12.1122","3.56322","27.372","2.162","7.55","0.575","4.109","0.09","0.35","30.67","4.80061","24.38","0","SATNPRO1963","29.622","0.41494","5"],
    [2230,"HCEP03730564","2023-10-21 14:00:00","12.1134","3.56376","27.314","2.172","7.55","0.522","3.816","0.07","0.33","30.6742","4.80118","24.49","0","SATNPRO1963","29.3","0.41038","5"],
    [2231,"HCEP03730564","2023-10-21 14:15:00","12.1131","3.564","27.248","2.103","7.55","0.548","4.156","0.06","0.2","30.6767","4.80154","23.72","0","SATNPRO1963","29.24","0.40958","5"],
    [2232,"HCEP03730564","2023-10-21 14:30:00","12.1134","3.56397","27.186","2.093","7.55","0.502","4.072","0.05","0.19","30.6763","4.80147","23.61","0","SATNPRO1963","29.336","0.41092","5"],
    [2233,"HCEP03730564","2023-10-21 14:45:00","12.1134","3.56391","27.13","2.118","7.55","0.546","4.025","0.07","0.31","30.6757","4.80138","23.89","0","SATNPRO1963","29.496","0.41314","5"],
    [2234,"HCEP03730564","2023-10-21 15:00:00","12.1124","3.56408","27.079","2.074","7.55","0.551","4.408","0.06","0.21","30.6781","4.80173","23.39","0","SATNPRO1963","29.582","0.41436","5"],
    [2235,"HCEP03730564","2023-10-21 15:15:00","12.1138","3.56438","27.022","2.07","7.55","0.561","4.479","0.06","0.22","30.6798","4.80195","23.35","0","SATNPRO1963","29.34","0.41094","5"],
    [2236,"HCEP03730564","2023-10-21 15:30:00","12.1158","3.56386","26.971","2.193","7.55","0.472","3.267","0.06","0.23","30.6734","4.80101","24.73","0","SATNPRO1963","29.282","0.41014","5"],
    [2237,"HCEP03730564","2023-10-21 15:45:00","12.1153","3.56385","26.941","2.23","7.56","0.509","3.744","0.07","0.3","30.6736","4.80105","25.16","0","SATNPRO1963","29.184","0.40874","5"],
    [2238,"HCEP03730564","2023-10-21 16:00:00","12.1148","3.56401","26.913","2.187","7.56","0.495","3.813","0.08","0.31","30.6756","4.80134","24.66","0","SATNPRO1963","29.130000000000003","0.40802","5"],
    [2239,"HCEP03730564","2023-10-21 16:15:00","12.1148","3.56414","26.882","2.117","7.55","0.572","4.042","0.1","0.18","30.6769","4.80151","23.88","0","SATNPRO1963","28.87","0.40438","5"],
    [2240,"HCEP03730564","2023-10-21 16:30:00","12.1148","3.56391","26.869","2.123","7.55","0.498","4.142","0.07","0.39","30.6747","4.8012","23.95","0","SATNPRO1963","29.983999999999998","0.41996","5"],
    [2241,"HCEP03730564","2023-10-21 16:45:00","12.1157","3.56472","26.872","2.134","7.55","0.533","4.079","0.1","0.33","30.6816","4.80217","24.07","0","SATNPRO1963","29.708","0.4161","5"],
    [2242,"HCEP03730564","2023-10-21 17:00:00","12.1164","3.56496","26.88","2.099","7.55","0.514","4.472","0.08","0.39","30.6833","4.80239","23.68","0","SATNPRO1963","29.958","0.4196","5"],
    [2243,"HCEP03730564","2023-10-21 17:15:00","12.1172","3.56511","26.892","2.09","7.55","0.517","4.364","0.07","0.83","30.6841","4.8025","23.57","0","SATNPRO1963","29.384","0.41158","5"],
    [2244,"HCEP03730564","2023-10-21 17:30:00","12.1187","3.56521","26.904","2.134","7.55","0.451","3.682","0.05","0.27","30.6839","4.80244","24.08","0","SATNPRO1963","29.518","0.41344","5"],
    [2245,"HCEP03730564","2023-10-21 17:45:00","12.1188","3.56514","26.91","2.127","7.55","0.468","3.674","0.05","0.32","30.6832","4.80235","23.99","0","SATNPRO1963","29.496000000000002","0.41314","5"],
    [2246,"HCEP03730564","2023-10-21 18:00:00","12.1171","3.56435","26.928","2.165","7.55","0.433","3.313","0.07","0.24","30.6769","4.80149","24.42","0","SATNPRO1963","29.21","0.4091","5"],
    [2247,"HCEP03730564","2023-10-21 18:15:00","12.112","3.56056","26.909","2.342","7.56","0.426","1.841","0.06","0.26","30.6449","4.79704","26.41","0","SATNPRO1963","29.162","0.40846","5"],
    [2248,"HCEP03730564","2023-10-21 18:30:00","12.105","3.55823","26.925","2.414","7.57","0.385","1.675","0.08","0.17","30.6284","4.79481","27.21","0","SATNPRO1963","29.412","0.41198","5"],
    [2249,"HCEP03730564","2023-10-21 18:45:00","12.109","3.55975","26.961","2.311","7.57","0.46","3.201","0.07","0.53","30.6396","4.79634","26.05","0","SATNPRO1963","29.386","0.4116","5"],
    [2250,"HCEP03730564","2023-10-21 19:00:00","12.106","3.5612","26.955","2.243","7.56","0.428","2.894","0.06","0.17","30.6559","4.79868","25.29","0","SATNPRO1963","29.896","0.41874","5"],
    [2251,"HCEP03730564","2023-10-21 19:15:00","12.1034","3.56138","26.968","2.117","7.56","0.488","3.417","0.12","0.88","30.6598","4.79926","23.87","0","SATNPRO1963","30.576","0.42826","5"],
    [2252,"HCEP03730564","2023-10-21 19:30:00","12.1009","3.56118","26.985","2.043","7.55","0.485","3.736","0.09","0.18","30.6599","4.79931","23.03","0","SATNPRO1963","30.486","0.427","5"],
    [2253,"HCEP03730564","2023-10-21 19:45:00","12.0995","3.56109","27.001","2.005","7.54","0.504","3.982","0.1","0.23","30.6602","4.79937","22.61","0","SATNPRO1963","30.36","0.42524","5"],
    [2254,"HCEP03730564","2023-10-21 20:00:00","12.0972","3.5607","27.008","1.981","7.54","0.452","3.904","0.05","0.19","30.6584","4.79915","22.33","0","SATNPRO1963","29.802","0.41742","5"],
    [2255,"HCEP03730564","2023-10-21 20:15:00","12.0962","3.56061","27.011","1.98","7.54","0.473","3.737","0.07","0.24","30.6583","4.79916","22.32","0","SATNPRO1963","29.636","0.4151","5"],
    [2256,"HCEP03730564","2023-10-21 20:30:00","12.0917","3.55985","27.018","1.927","7.53","0.444","3.978","0.04","0.23","30.6547","4.79871","21.73","0","SATNPRO1963","28.916","0.40498","5"],
    [2257,"HCEP03730564","2023-10-21 20:45:00","12.0845","3.55731","27.011","1.894","7.53","0.485","4.134","0.05","1.1","30.6364","4.79622","21.35","0","SATNPRO1963","28.91","0.4049","5"],
    [2258,"HCEP03730564","2023-10-21 21:00:00","12.0835","3.55741","26.994","1.876","7.53","4.104","34.181","3.42","23.49","30.6381","4.79649","21.15","0","SATNPRO1963","29.126","0.40796","5"],
    [2259,"HCEP03730564","2023-10-21 21:15:00","12.081","3.55648","26.958","1.871","7.53","0.493","4.453","0.04","0.47","30.6313","4.79556","21.09","0","SATNPRO1963","28.898","0.4048","5"],
    [2260,"HCEP03730564","2023-10-21 21:30:00","12.0791","3.55613","26.929","1.867","7.53","0.48","4.5","0.06","0.26","30.6295","4.79533","21.03","0","SATNPRO1963","28.792","0.40328","5"],
    [2261,"HCEP03730564","2023-10-21 21:45:00","12.0744","3.55473","26.864","1.846","7.53","0.522","4.515","0.05","0.3","30.62","4.79405","20.8","0","SATNPRO1963","28.386","0.39756","5"],
    [2262,"HCEP03730564","2023-10-21 22:00:00","12.0712","3.55435","26.828","1.823","7.52","0.488","4.732","0.06","0.34","30.619","4.79395","20.54","0","SATNPRO1963","28.494","0.39908","5"],
    [2263,"HCEP03730564","2023-10-21 22:15:00","12.0675","3.55378","26.77","1.77","7.52","0.534","4.804","0.09","0.46","30.6166","4.79366","19.94","0","SATNPRO1963","28.436","0.39826","5"],
    [2264,"HCEP03730564","2023-10-21 22:30:00","12.0638","3.55343","26.694","1.696","7.51","0.528","5","0.12","0.38","30.6163","4.79367","19.1","0","SATNPRO1963","28.137999999999998","0.39412","5"],
    [2265,"HCEP03730564","2023-10-21 22:45:00","12.061","3.55321","26.6","1.617","7.51","0.513","4.869","0.06","0.38","30.6165","4.79372","18.21","0","SATNPRO1963","28.073999999999998","0.3932","5"],
    [2266,"HCEP03730564","2023-10-21 23:00:00","12.0609","3.55343","26.489","1.579","7.5","0.498","4.843","0.09","0.27","30.6188","4.79404","17.78","0","SATNPRO1963","27.974","0.39182","5"],
    [2267,"HCEP03730564","2023-10-21 23:15:00","12.063","3.55382","26.377","1.578","7.5","0.47","4.345","0.05","0.29","30.6208","4.79429","17.77","0","SATNPRO1963","27.742","0.38858","5"],
    [2268,"HCEP03730564","2023-10-21 23:30:00","12.0634","3.55397","26.264","1.584","7.5","0.5","4.69","0.08","0.53","30.622","4.79445","17.84","0","SATNPRO1963","27.355999999999998","0.38316","5"],
    [2269,"HCEP03730564","2023-10-21 23:45:00","12.0657","3.55436","26.118","1.587","7.5","0.482","4.34","0.07","0.29","30.6239","4.79467","17.88","0","SATNPRO1963","27.018","0.37842","5"],
    [2270,"HCEP03730564","2023-10-22 00:00:00","12.0672","3.55464","25.978","1.622","7.5","0.412","4.107","0.06","0.24","30.6254","4.79486","18.28","0","SATNPRO1963","26.828","0.37576","5"],
    [2271,"HCEP03730564","2023-10-22 00:15:00","12.0679","3.55485","25.826","1.635","7.5","0.513","4.296","0.13","0.32","30.6269","4.79505","18.41","0","SATNPRO1963","27.19","0.38088","5"],
    [2272,"HCEP03730564","2023-10-22 00:30:00","12.0704","3.55512","25.687","1.652","7.5","0.441","4.038","0.1","0.23","30.6274","4.79508","18.61","0","SATNPRO1963","27.038","0.37872","5"],
    [2273,"HCEP03730564","2023-10-22 00:45:00","12.0704","3.5552","25.53","1.66","7.5","0.45","4.019","0.06","0.21","30.6283","4.7952","18.7","0","SATNPRO1963","27.374","0.38342","5"],
    [2274,"HCEP03730564","2023-10-22 01:00:00","12.0714","3.55536","25.372","1.651","7.5","0.431","4.146","0.06","0.21","30.6291","4.79528","18.59","0","SATNPRO1963","27.412","0.38396","5"],
    [2275,"HCEP03730564","2023-10-22 01:15:00","12.0722","3.55547","25.23","1.659","7.5","0.45","3.657","0.09","0.2","30.6296","4.79534","18.69","0","SATNPRO1963","27.466","0.38472","5"],
    [2276,"HCEP03730564","2023-10-22 01:30:00","12.0729","3.55558","25.067","1.656","7.5","0.483","4.228","0.09","0.08","30.6301","4.79539","18.65","0","SATNPRO1963","27.654","0.38732","5"],
    [2277,"HCEP03730564","2023-10-22 01:45:00","12.0723","3.5556","24.932","1.646","7.5","0.446","3.655","0.06","0.11","30.6309","4.7955","18.54","0","SATNPRO1963","27.490000000000002","0.38506","5"],
    [2278,"HCEP03730564","2023-10-22 02:00:00","12.0731","3.55567","24.749","1.663","7.51","0.353","3.384","0.04","0.14","30.6309","4.79548","18.74","0","SATNPRO1963","27.37","0.38332","5"],
    [2279,"HCEP03730564","2023-10-22 02:15:00","12.0717","3.55547","24.654","1.646","7.5","0.429","3.536","0.07","0.1","30.6302","4.7954","18.54","0","SATNPRO1963","27.476","0.3848","5"],
    [2280,"HCEP03730564","2023-10-22 02:30:00","12.0747","3.55599","24.55","1.683","7.51","0.416","3.271","0.09","0.05","30.6327","4.79571","18.96","0","SATNPRO1963","27.538","0.38572","5"],
    [2281,"HCEP03730564","2023-10-22 02:45:00","12.0737","3.55583","24.488","1.677","7.51","0.413","3.603","0.05","0.09","30.632","4.79562","18.9","0","SATNPRO1963","27.396","0.38372","5"],
    [2282,"HCEP03730564","2023-10-22 03:00:00","12.0723","3.55562","24.416","1.654","7.51","0.469","5.673","0.07","2.29","30.6312","4.79552","18.64","0","SATNPRO1963","27.6","0.38658","5"],
    [2283,"HCEP03730564","2023-10-22 03:15:00","12.0745","3.55594","24.372","1.661","7.51","0.415","3.865","0.06","0.16","30.6325","4.79567","18.72","0","SATNPRO1963","27.326","0.38276","5"],
    [2284,"HCEP03730564","2023-10-22 03:30:00","12.0737","3.55572","24.336","1.664","7.51","0.425","3.836","0.09","0.14","30.6311","4.79548","18.75","0","SATNPRO1963","28.448","0.39848","5"],
    [2285,"HCEP03730564","2023-10-22 03:45:00","12.0729","3.55566","24.327","1.665","7.51","0.422","3.706","0.09","0.18","30.6311","4.79549","18.76","0","SATNPRO1963","27.938","0.39132","5"],
    [2286,"HCEP03730564","2023-10-22 04:00:00","12.0734","3.55577","24.337","1.681","7.51","0.399","3.528","0.07","0.19","30.6318","4.79559","18.94","0","SATNPRO1963","27.102","0.3796","5"],
    [2287,"HCEP03730564","2023-10-22 04:15:00","12.0766","3.55627","24.379","1.72","7.51","0.402","3.604","0.04","1.17","30.6339","4.79584","19.38","0","SATNPRO1963","27.744","0.38858","5"],
    [2288,"HCEP03730564","2023-10-22 04:30:00","12.0796","3.55682","24.429","1.743","7.51","0.392","3.455","0.07","0.26","30.6366","4.79619","19.64","0","SATNPRO1963","28.009999999999998","0.39234","5"],
    [2289,"HCEP03730564","2023-10-22 04:45:00","12.082","3.55712","24.489","1.786","7.51","0.381","3.113","0.05","0.17","30.6376","4.79629","20.12","0","SATNPRO1963","27.528000000000002","0.38556","5"],
    [2290,"HCEP03730564","2023-10-22 05:00:00","12.0847","3.55751","24.57","1.812","7.52","0.388","3.706","0.06","0.25","30.6391","4.79647","20.42","0","SATNPRO1963","27.798000000000002","0.38934","5"],
    [2291,"HCEP03730564","2023-10-22 05:15:00","12.0824","3.55739","24.659","1.76","7.52","0.434","3.976","0.05","0.24","30.6398","4.79661","19.83","0","SATNPRO1963","28.198","0.39494","5"],
    [2292,"HCEP03730564","2023-10-22 05:30:00","12.0837","3.55776","24.767","1.735","7.51","0.411","4.011","0.05","0.23","30.6422","4.79694","19.56","0","SATNPRO1963","28.25","0.39568","5"],
    [2293,"HCEP03730564","2023-10-22 05:45:00","12.0861","3.55808","24.891","1.744","7.51","0.425","3.908","0.05","0.31","30.6432","4.79705","19.65","0","SATNPRO1963","28.396","0.39774","5"],
    [2294,"HCEP03730564","2023-10-22 06:00:00","12.0856","3.55799","25.092","1.735","7.51","0.4","4.349","0.03","0.22","30.6427","4.797","19.56","0","SATNPRO1963","28.436","0.39832","5"],
    [2295,"HCEP03730564","2023-10-22 06:15:00","12.0847","3.55799","25.216","1.708","7.51","0.429","4.088","0.07","0.3","30.6434","4.79711","19.25","0","SATNPRO1963","28.136","0.3941","5"],
    [2296,"HCEP03730564","2023-10-22 06:30:00","12.085","3.558","25.341","1.696","7.51","0.448","3.985","0.1","0.1","30.6432","4.7971","19.11","0","SATNPRO1963","27.938","0.3913","5"],
    [2297,"HCEP03730564","2023-10-22 06:45:00","12.0848","3.55804","25.486","1.69","7.51","0.437","3.98","0.07","0.25","30.6437","4.79716","19.05","0","SATNPRO1963","27.983999999999998","0.39194","5"],
    [2298,"HCEP03730564","2023-10-22 07:00:00","12.0848","3.55798","25.668","1.689","7.51","0.417","4.118","0.1","0.27","30.643","4.79708","19.03","0","SATNPRO1963","27.69","0.38786","5"],
    [2299,"HCEP03730564","2023-10-22 07:15:00","12.0845","3.55775","25.846","1.699","7.51","0.415","3.812","0.03","0.62","30.641","4.79682","19.15","0","SATNPRO1963","27.791999999999998","0.38924","5"],
    [2300,"HCEP03730564","2023-10-22 07:30:00","12.0841","3.55772","26.038","1.695","7.51","0.409","4.045","0.06","0.22","30.641","4.79683","19.11","0","SATNPRO1963","27.602","0.38662","5"],
    [2301,"HCEP03730564","2023-10-22 07:45:00","12.0825","3.55773","26.245","1.66","7.51","0.485","4.765","0.07","0.27","30.6424","4.79706","18.71","0","SATNPRO1963","27.67","0.38756","5"],
    [2302,"HCEP03730564","2023-10-22 08:00:00","12.0836","3.55782","26.406","1.657","7.5","0.44","4.235","0.06","0.32","30.6422","4.79702","18.67","0","SATNPRO1963","27.65","0.38728","5"],
    [2303,"HCEP03730564","2023-10-22 08:15:00","12.0843","3.55802","26.6","1.662","7.5","0.441","4.157","0.05","0.27","30.6435","4.79721","18.73","0","SATNPRO1963","27.592000000000002","0.38648","5"],
    [2304,"HCEP03730564","2023-10-22 08:30:00","12.0834","3.558","26.77","1.655","7.5","0.476","4.416","0.1","0.29","30.6439","4.79729","18.65","0","SATNPRO1963","27.594","0.3865","5"],
    [2305,"HCEP03730564","2023-10-22 08:45:00","12.0826","3.55787","26.928","1.645","7.5","0.463","4.395","0.09","0.28","30.6433","4.79723","18.53","0","SATNPRO1963","27.34","0.38294","5"],
    [2306,"HCEP03730564","2023-10-22 09:00:00","12.0849","3.5582","27.078","1.663","7.5","0.418","4.248","0.03","0.15","30.6445","4.79737","18.74","0","SATNPRO1963","27.306","0.38248","5"],
    [2307,"HCEP03730564","2023-10-22 09:15:00","12.0835","3.55817","27.207","1.665","7.5","0.484","4.316","0.1","0.23","30.6453","4.79751","18.77","0","SATNPRO1963","27.602","0.3866","5"],
    [2308,"HCEP03730564","2023-10-22 09:30:00","12.085","3.55871","27.338","1.667","7.5","0.447","4.392","0.06","0.25","30.6492","4.79805","18.78","0","SATNPRO1963","27.618000000000002","0.38686","5"],
    [2309,"HCEP03730564","2023-10-22 09:45:00","12.0826","3.5585","27.463","1.661","7.51","0.481","4.456","0.06","0.25","30.6491","4.79807","18.72","0","SATNPRO1963","27.592","0.3865","5"],
    [2310,"HCEP03730564","2023-10-22 10:00:00","12.0812","3.55822","27.575","1.634","7.51","0.464","5.075","0.06","0.31","30.6476","4.79788","18.41","0","SATNPRO1963","27.566","0.38614","5"],
    [2311,"HCEP03730564","2023-10-22 10:15:00","12.0845","3.55836","27.664","1.67","7.51","0.459","4.538","0.05","0.32","30.6461","4.79764","18.82","0","SATNPRO1963","27.668","0.38756","5"],
    [2312,"HCEP03730564","2023-10-22 10:30:00","12.0839","3.55846","27.725","1.717","7.51","0.449","4.242","0.05","0.34","30.6476","4.79785","19.35","0","SATNPRO1963","27.31","0.3825","5"],
    [2313,"HCEP03730564","2023-10-22 10:45:00","12.0826","3.55802","27.776","1.711","7.51","0.468","3.939","0.04","0.13","30.6444","4.79743","19.28","0","SATNPRO1963","27.716","0.38822","5"],
    [2314,"HCEP03730564","2023-10-22 11:00:00","12.081","3.55785","27.819","1.68","7.51","0.436","4.493","0.05","0.54","30.6441","4.79741","18.93","0","SATNPRO1963","27.434","0.38428","5"],
    [2315,"HCEP03730564","2023-10-22 11:15:00","12.0806","3.55809","27.865","1.644","7.51","0.506","4.645","0.07","0.21","30.6466","4.79777","18.53","0","SATNPRO1963","27.849999999999998","0.39008","5"],
    [2316,"HCEP03730564","2023-10-22 11:30:00","12.0775","3.55739","27.893","1.61","7.5","0.473","5.113","0.06","0.42","30.6425","4.79723","18.14","0","SATNPRO1963","27.968","0.39174","5"],
    [2317,"HCEP03730564","2023-10-22 11:45:00","12.0772","3.55718","27.902","1.612","7.5","0.575","4.638","0.32","0.29","30.6408","4.797","18.16","0","SATNPRO1963","28.256","0.39576","5"],
    [2318,"HCEP03730564","2023-10-22 12:00:00","12.0761","3.55634","27.898","1.662","7.5","0.436","4.309","0.07","1.42","30.6337","4.79601","18.72","0","SATNPRO1963","27.814","0.38958","5"],
    [2319,"HCEP03730564","2023-10-22 12:15:00","12.0806","3.55774","27.904","1.682","7.51","0.518","4.607","0.07","0.49","30.6433","4.79731","18.95","0","SATNPRO1963","27.76","0.38884","5"],
    [2320,"HCEP03730564","2023-10-22 12:30:00","12.081","3.55768","27.887","1.688","7.51","0.468","4.328","0.07","0.16","30.6424","4.79717","19.02","0","SATNPRO1963","27.348","0.3831","5"],
    [2321,"HCEP03730564","2023-10-22 12:45:00","12.0813","3.55797","27.853","1.678","7.51","0.487","4.255","0.06","0.2","30.6449","4.79752","18.91","0","SATNPRO1963","27.494","0.38508","5"],
    [2322,"HCEP03730564","2023-10-22 13:00:00","12.0829","3.55833","27.805","1.678","7.51","0.464","4.756","0.04","0.25","30.647","4.79779","18.91","0","SATNPRO1963","27.956","0.3916","5"],
    [2323,"HCEP03730564","2023-10-22 13:15:00","12.0861","3.55912","27.785","1.678","7.51","0.519","5.048","0.05","0.3","30.652","4.79845","18.92","0","SATNPRO1963","27.924","0.3911","5"],
    [2324,"HCEP03730564","2023-10-22 13:30:00","12.0875","3.55953","27.731","1.679","7.51","0.497","5.309","0.07","0.72","30.6549","4.79883","18.92","0","SATNPRO1963","27.916","0.39098","5"],
    [2325,"HCEP03730564","2023-10-22 13:45:00","12.0854","3.5587","27.677","1.683","7.51","0.48","4.382","0.04","0.22","30.6487","4.79799","18.97","0","SATNPRO1963","27.91","0.39096","5"],
    [2326,"HCEP03730564","2023-10-22 14:00:00","12.0869","3.55913","27.594","1.692","7.51","0.478","5.069","0.06","0.3","30.6516","4.79836","19.07","0","SATNPRO1963","27.946","0.39142","5"],
    [2327,"HCEP03730564","2023-10-22 14:15:00","12.0884","3.55952","27.538","1.699","7.51","0.547","5.334","0.07","0.91","30.6541","4.7987","19.15","0","SATNPRO1963","27.784","0.38912","5"],
    [2328,"HCEP03730564","2023-10-22 14:30:00","12.0904","3.55971","27.479","1.715","7.51","0.485","5.335","0.05","0.6","30.6542","4.79869","19.34","0","SATNPRO1963","27.868000000000002","0.39032","5"],
    [2329,"HCEP03730564","2023-10-22 14:45:00","12.0923","3.56015","27.405","1.738","7.51","0.519","4.721","0.07","0.27","30.657","4.79904","19.59","0","SATNPRO1963","27.894","0.3907","5"],
    [2330,"HCEP03730564","2023-10-22 15:00:00","12.0935","3.56039","27.322","1.745","7.51","0.498","4.717","0.05","0.29","30.6583","4.79921","19.67","0","SATNPRO1963","28.032","0.39268","5"],
    [2331,"HCEP03730564","2023-10-22 15:15:00","12.095","3.56066","27.233","1.74","7.51","0.524","4.494","0.1","0.23","30.6597","4.79938","19.62","0","SATNPRO1963","27.983999999999998","0.39194","5"],
    [2332,"HCEP03730564","2023-10-22 15:30:00","12.0956","3.56085","27.149","1.734","7.51","0.485","4.818","0.06","0.59","30.661","4.79956","19.54","0","SATNPRO1963","27.89","0.3906","5"],
    [2333,"HCEP03730564","2023-10-22 15:45:00","12.0964","3.56086","27.077","1.734","7.52","0.519","6.441","0.09","6.31","30.6606","4.79948","19.55","0","SATNPRO1963","28.182","0.39476","5"],
    [2334,"HCEP03730564","2023-10-22 16:00:00","12.0977","3.56119","26.989","1.721","7.52","0.556","5.325","0.13","0.46","30.6626","4.79975","19.41","0","SATNPRO1963","28.136","0.39408","5"],
    [2335,"HCEP03730564","2023-10-22 16:15:00","12.098","3.56117","26.915","1.731","7.51","0.495","4.82","0.06","0.67","30.6622","4.79967","19.52","0","SATNPRO1963","28.178","0.39474","5"],
    [2336,"HCEP03730564","2023-10-22 16:30:00","12.0999","3.56161","26.842","1.742","7.52","0.476","4.51","0.05","0.32","30.6648","4.80001","19.64","0","SATNPRO1963","27.93","0.39124","5"],
    [2337,"HCEP03730564","2023-10-22 16:45:00","12.0995","3.56121","26.775","1.754","7.52","0.483","4.101","0.04","0.33","30.6614","4.79954","19.78","0","SATNPRO1963","27.922","0.39108","5"],
    [2338,"HCEP03730564","2023-10-22 17:00:00","12.098","3.56067","26.72","1.779","7.52","0.464","4.151","0.05","0.39","30.6575","4.79901","20.06","0","SATNPRO1963","28.396","0.39774","5"],
    [2339,"HCEP03730564","2023-10-22 17:15:00","12.0952","3.55975","26.69","1.815","7.52","0.472","3.806","0.05","0.32","30.651","4.79812","20.46","0","SATNPRO1963","28","0.39218","5"],
    [2340,"HCEP03730564","2023-10-22 17:30:00","12.0952","3.55959","26.66","1.828","7.52","0.444","4.023","0.04","0.25","30.6495","4.79791","20.6","0","SATNPRO1963","28.226","0.39536","5"],
    [2341,"HCEP03730564","2023-10-22 17:45:00","12.099","3.56112","26.642","1.788","7.52","0.465","3.808","0.07","0.33","30.661","4.79948","20.16","0","SATNPRO1963","28.442","0.39836","5"],
    [2342,"HCEP03730564","2023-10-22 18:00:00","12.0985","3.56091","26.644","1.785","7.52","0.441","3.896","0.06","0.23","30.6594","4.79926","20.12","0","SATNPRO1963","28.348","0.39704","5"],
    [2343,"HCEP03730564","2023-10-22 18:15:00","12.1009","3.56178","26.646","1.752","7.52","0.441","4.028","0.04","0.38","30.6658","4.80013","19.75","0","SATNPRO1963","28.392","0.39766","5"],
    [2344,"HCEP03730564","2023-10-22 18:30:00","12.1007","3.56179","26.656","1.731","7.52","0.446","4.181","0.04","0.13","30.666","4.80017","19.52","0","SATNPRO1963","28.608","0.4007","5"],
    [2345,"HCEP03730564","2023-10-22 18:45:00","12.1014","3.56225","26.672","1.684","7.51","0.533","4.899","0.06","0.22","30.6698","4.80069","18.99","0","SATNPRO1963","28.06","0.39304","5"],
    [2346,"HCEP03730564","2023-10-22 19:00:00","12.1015","3.56235","26.69","1.668","7.51","0.5","4.706","0.05","0.18","30.6708","4.80083","18.81","0","SATNPRO1963","28.314","0.39658","5"],
    [2347,"HCEP03730564","2023-10-22 19:15:00","12.1019","3.56223","26.705","1.685","7.51","0.491","4.258","0.07","0.21","30.6692","4.8006","19","0","SATNPRO1963","27.948","0.39146","5"],
    [2348,"HCEP03730564","2023-10-22 19:30:00","12.1019","3.56215","26.727","1.699","7.51","0.471","4.147","0.07","0.27","30.6685","4.8005","19.16","0","SATNPRO1963","27.694","0.38794","5"],
    [2349,"HCEP03730564","2023-10-22 19:45:00","12.1023","3.56212","26.749","1.696","7.51","0.474","4.346","0.06","0.73","30.6678","4.8004","19.13","0","SATNPRO1963","27.407999999999998","0.38388","5"],
    [2350,"HCEP03730564","2023-10-22 20:00:00","12.102","3.56236","26.778","1.687","7.51","0.44","4.343","0.05","0.22","30.6704","4.80077","19.02","0","SATNPRO1963","27.224","0.38134","5"],
    [2351,"HCEP03730564","2023-10-22 20:15:00","12.1022","3.56219","26.81","1.695","7.51","0.469","4.135","0.06","0.22","30.6686","4.80051","19.11","0","SATNPRO1963","27.584","0.38632","5"],
    [2352,"HCEP03730564","2023-10-22 20:30:00","12.1027","3.56249","26.84","1.68","7.51","0.411","4.125","0.04","0.23","30.671","4.80085","18.94","0","SATNPRO1963","28.032","0.39264","5"],
    [2353,"HCEP03730564","2023-10-22 20:45:00","12.1031","3.5625","26.871","1.688","7.51","0.527","3.889","0.25","0.13","30.6708","4.80081","19.04","0","SATNPRO1963","29.718","0.41626","5"],
    [2354,"HCEP03730564","2023-10-22 21:00:00","12.1034","3.56265","26.899","1.695","7.51","0.458","3.969","0.12","0.21","30.672","4.80098","19.11","0","SATNPRO1963","27.538","0.38572","5"],
    [2355,"HCEP03730564","2023-10-22 21:15:00","12.1042","3.56257","26.919","1.727","7.51","0.43","3.481","0.06","0.15","30.6705","4.80075","19.47","0","SATNPRO1963","27.832","0.38986","5"],
    [2356,"HCEP03730564","2023-10-22 21:30:00","12.1042","3.56252","26.935","1.758","7.51","0.388","3.389","0.06","0.3","30.67","4.80069","19.83","0","SATNPRO1963","27.656","0.38738","5"],
    [2357,"HCEP03730564","2023-10-22 21:45:00","12.1042","3.56271","26.939","1.734","7.51","0.437","3.761","0.04","0.14","30.6719","4.80096","19.55","0","SATNPRO1963","27.968","0.39174","5"],
    [2358,"HCEP03730564","2023-10-22 22:00:00","12.103","3.56237","26.936","1.757","7.52","0.362","3.33","0.04","0.19","30.6696","4.80065","19.81","0","SATNPRO1963","27.902","0.39078","5"],
    [2359,"HCEP03730564","2023-10-22 22:15:00","12.0976","3.56125","26.934","1.731","7.52","0.407","3.28","0.04","0.17","30.6633","4.79983","19.52","0","SATNPRO1963","27.95","0.3915","5"],
    [2360,"HCEP03730564","2023-10-22 22:30:00","12.095","3.56095","26.931","1.692","7.51","0.411","3.734","0.06","0.21","30.6626","4.79977","19.08","0","SATNPRO1963","28.214","0.39516","5"],
    [2361,"HCEP03730564","2023-10-22 22:45:00","12.0906","3.56024","26.916","1.631","7.51","0.428","4.45","0.05","0.3","30.6594","4.79938","18.38","0","SATNPRO1963","28.188","0.39482","5"],
    [2362,"HCEP03730564","2023-10-22 23:00:00","12.0863","3.55953","26.891","1.578","7.5","0.433","4.725","0.05","0.24","30.6561","4.79898","17.79","0","SATNPRO1963","28.156","0.39442","5"],
    [2363,"HCEP03730564","2023-10-22 23:15:00","12.0806","3.55828","26.783","1.541","7.5","0.433","4.506","0.04","0.22","30.6489","4.79803","17.37","0","SATNPRO1963","28.108","0.39374","5"],
    [2364,"HCEP03730564","2023-10-22 23:30:00","12.0825","3.55851","26.731","1.519","7.5","0.453","4.732","0.08","0.16","30.6495","4.79809","17.11","0","SATNPRO1963","27.946","0.39142","5"],
    [2365,"HCEP03730564","2023-10-22 23:45:00","12.0755","3.55737","26.667","1.48","7.49","0.591","4.736","0.16","0.23","30.6444","4.79746","16.68","0","SATNPRO1963","27.546","0.3858","5"],
    [2366,"HCEP03730564","2023-10-23 00:00:00","12.0735","3.55631","26.607","1.447","7.49","0.407","4.516","0.04","0.16","30.636","4.7963","16.3","0","SATNPRO1963","27.242","0.38158","5"],
    [2367,"HCEP03730564","2023-10-23 00:15:00","12.063","3.5541","26.502","1.383","7.48","0.499","4.66","0.08","0.19","30.6235","4.79468","15.58","0","SATNPRO1963","27.068","0.37912","5"],
    [2368,"HCEP03730564","2023-10-23 00:30:00","12.0592","3.55304","26.42","1.333","7.48","0.461","4.79","0.06","0.18","30.6164","4.79373","15.01","0","SATNPRO1963","26.908","0.3769","5"],
    [2369,"HCEP03730564","2023-10-23 00:45:00","12.0577","3.55275","26.273","1.313","7.48","0.459","4.681","0.06","0.31","30.615","4.79354","14.79","0","SATNPRO1963","26.71","0.37412","5"],
    [2370,"HCEP03730564","2023-10-23 01:00:00","12.0575","3.55253","26.187","1.314","7.47","0.455","4.618","0.07","0.2","30.6131","4.79327","14.8","0","SATNPRO1963","26.234","0.36744","5"],
    [2371,"HCEP03730564","2023-10-23 01:15:00","12.0572","3.55209","26.05","1.323","7.47","0.455","4.289","0.06","0.15","30.6091","4.79271","14.89","0","SATNPRO1963","25.818","0.36164","5"],
    [2372,"HCEP03730564","2023-10-23 01:30:00","12.0574","3.55231","25.886","1.327","7.47","0.421","4.45","0.05","0.18","30.6112","4.79299","14.95","0","SATNPRO1963","25.8","0.3614","5"],
    [2373,"HCEP03730564","2023-10-23 01:45:00","12.0574","3.55245","25.734","1.317","7.47","0.457","4.612","0.05","0.55","30.6126","4.79317","14.83","0","SATNPRO1963","25.548","0.35782","5"],
    [2374,"HCEP03730564","2023-10-23 02:00:00","12.0577","3.5526","25.604","1.309","7.47","0.417","4.433","0.05","0.2","30.6139","4.79334","14.74","0","SATNPRO1963","25.87","0.36236","5"],
    [2375,"HCEP03730564","2023-10-23 02:15:00","12.0576","3.5525","25.46","1.312","7.47","0.449","4.308","0.06","0.25","30.613","4.79321","14.78","0","SATNPRO1963","25.852","0.36208","5"],
    [2376,"HCEP03730564","2023-10-23 02:30:00","12.0587","3.55278","25.312","1.32","7.47","0.403","4.432","0.04","0.19","30.6148","4.79345","14.87","0","SATNPRO1963","25.736","0.36048","5"],
    [2377,"HCEP03730564","2023-10-23 02:45:00","12.0591","3.55288","25.153","1.327","7.47","0.449","4.284","0.07","0.18","30.6155","4.79353","14.95","0","SATNPRO1963","25.642","0.35914","5"],
    [2378,"HCEP03730564","2023-10-23 03:00:00","12.06","3.55324","25.019","1.334","7.47","0.401","4.145","0.07","0.25","30.6183","4.79391","15.03","0","SATNPRO1963","25.462","0.35662","5"],
    [2379,"HCEP03730564","2023-10-23 03:15:00","12.0608","3.55315","24.901","1.367","7.47","0.477","4.308","0.06","0.32","30.6168","4.79367","15.4","0","SATNPRO1963","25.846","0.362","5"],
    [2380,"HCEP03730564","2023-10-23 03:30:00","12.0603","3.55311","24.78","1.342","7.47","0.353","4.152","0.04","0.16","30.6169","4.79369","15.11","0","SATNPRO1963","25.904","0.36282","5"],
    [2381,"HCEP03730564","2023-10-23 03:45:00","12.0607","3.55331","24.667","1.32","7.48","0.45","4.134","0.06","0.18","30.6185","4.7939","14.86","0","SATNPRO1963","25.951999999999998","0.3635","5"],
    [2382,"HCEP03730564","2023-10-23 04:00:00","12.0606","3.5533","24.549","1.312","7.48","0.4","3.994","0.07","0.09","30.6185","4.7939","14.78","0","SATNPRO1963","26.114","0.3658","5"],
    [2383,"HCEP03730564","2023-10-23 04:15:00","12.06","3.55307","24.483","1.332","7.48","0.531","3.359","0.32","0.1","30.6169","4.79368","15","0","SATNPRO1963","26.446","0.37046","5"],
    [2384,"HCEP03730564","2023-10-23 04:30:00","12.066","3.554","24.427","1.459","7.48","0.368","3.342","0.04","0.11","30.6208","4.79415","16.43","0","SATNPRO1963","26.092","0.36546","5"],
    [2385,"HCEP03730564","2023-10-23 04:45:00","12.0643","3.55377","24.388","1.438","7.48","0.379","3.37","0.04","0.14","30.62","4.79406","16.2","0","SATNPRO1963","26.054","0.36492","5"],
    [2386,"HCEP03730564","2023-10-23 05:00:00","12.0631","3.55368","24.363","1.387","7.48","0.341","3.662","0.03","0.22","30.6202","4.7941","15.63","0","SATNPRO1963","25.998","0.3641","5"],
    [2387,"HCEP03730564","2023-10-23 05:15:00","12.064","3.55397","24.361","1.391","7.48","0.382","3.642","0.05","0.19","30.6222","4.79437","15.67","0","SATNPRO1963","26.116","0.3658","5"],
    [2388,"HCEP03730564","2023-10-23 05:30:00","12.0677","3.55457","24.381","1.424","7.48","0.351","3.512","0.08","0.21","30.625","4.7947","16.04","0","SATNPRO1963","26.856","0.37616","5"],
    [2389,"HCEP03730564","2023-10-23 05:45:00","12.0693","3.55508","24.53","1.437","7.48","0.428","3.35","0.08","0.14","30.6285","4.79518","16.19","0","SATNPRO1963","26.65","0.37328","5"],
    [2390,"HCEP03730564","2023-10-23 06:00:00","12.0703","3.55525","24.589","1.448","7.48","0.813","4.156","0.59","0.64","30.6292","4.79528","16.31","0","SATNPRO1963","26.408","0.3699","5"],
    [2391,"HCEP03730564","2023-10-23 06:15:00","12.0717","3.55547","24.673","1.449","7.48","0.389","3.463","0.07","0.21","30.6302","4.7954","16.32","0","SATNPRO1963","26.456","0.37058","5"],
    [2392,"HCEP03730564","2023-10-23 06:30:00","12.0729","3.55567","24.752","1.471","7.48","0.37","3.199","0.06","0.2","30.631","4.7955","16.57","0","SATNPRO1963","26.654","0.37334","5"],
    [2393,"HCEP03730564","2023-10-23 06:45:00","12.0718","3.55549","24.866","1.459","7.49","0.335","3.308","0.04","0.2","30.6301","4.7954","16.44","0","SATNPRO1963","26.738","0.37454","5"],
    [2394,"HCEP03730564","2023-10-23 07:00:00","12.0726","3.55565","24.988","1.451","7.48","0.386","3.419","0.07","0.21","30.631","4.79552","16.35","0","SATNPRO1963","26.672","0.37354","5"],
    [2395,"HCEP03730564","2023-10-23 07:15:00","12.0722","3.55572","25.121","1.43","7.48","0.383","3.859","0.04","0.68","30.632","4.79567","16.11","0","SATNPRO1963","26.826","0.3757","5"],
    [2396,"HCEP03730564","2023-10-23 07:30:00","12.0716","3.55585","25.274","1.383","7.48","0.374","3.926","0.05","0.2","30.6337","4.79593","15.58","0","SATNPRO1963","27.014","0.37844","5"],
    [2397,"HCEP03730564","2023-10-23 07:45:00","12.0765","3.55684","25.439","1.407","7.48","0.399","3.992","0.04","0.21","30.639","4.79662","15.86","0","SATNPRO1963","26.733999999999998","0.37448","5"],
    [2398,"HCEP03730564","2023-10-23 08:00:00","12.0718","3.55631","25.585","1.343","7.48","0.422","5.645","0.07","0.3","30.6377","4.79651","15.13","0","SATNPRO1963","26.806","0.37546","5"],
    [2399,"HCEP03730564","2023-10-23 08:15:00","12.0772","3.55745","25.748","1.354","7.48","0.468","5.186","0.06","0.26","30.6441","4.79734","15.26","0","SATNPRO1963","26.556","0.37194","5"],
    [2400,"HCEP03730564","2023-10-23 08:30:00","12.0798","3.55799","25.958","1.39","7.48","0.383","4.861","0.04","0.24","30.6471","4.79775","15.67","0","SATNPRO1963","26.268","0.36796","5"],
    [2401,"HCEP03730564","2023-10-23 08:45:00","12.0813","3.55826","26.137","1.412","7.48","0.411","4.152","0.07","0.14","30.6484","4.79792","15.91","0","SATNPRO1963","26.53","0.37156","5"],
    [2402,"HCEP03730564","2023-10-23 09:00:00","12.085","3.55863","26.327","1.478","7.48","0.314","3.306","0.04","0.15","30.6488","4.79793","16.65","0","SATNPRO1963","26.044","0.3648","5"],
    [2403,"HCEP03730564","2023-10-23 09:15:00","12.0841","3.55848","26.531","1.476","7.49","0.347","3.419","0.05","0.09","30.648","4.79784","16.63","0","SATNPRO1963","26.318","0.36866","5"],
    [2404,"HCEP03730564","2023-10-23 09:30:00","12.0805","3.55805","26.706","1.394","7.48","0.379","4.14","0.05","0.21","30.6469","4.79775","15.71","0","SATNPRO1963","26.432","0.3702","5"],
    [2405,"HCEP03730564","2023-10-23 09:45:00","12.0785","3.55778","26.878","1.344","7.48","0.41","4.215","0.07","0.16","30.6459","4.79764","15.15","0","SATNPRO1963","27.094","0.37948","5"],
    [2406,"HCEP03730564","2023-10-23 10:00:00","12.0785","3.55782","27.054","1.33","7.48","0.372","3.982","0.06","0.11","30.6462","4.79769","14.99","0","SATNPRO1963","27.23","0.38138","5"],
    [2407,"HCEP03730564","2023-10-23 10:15:00","12.079","3.55787","27.207","1.329","7.47","0.41","4.31","0.05","0.24","30.6461","4.79769","14.98","0","SATNPRO1963","26.922","0.3771","5"],
    [2408,"HCEP03730564","2023-10-23 10:30:00","12.0816","3.55845","27.35","1.352","7.48","0.407","3.966","0.11","0.23","30.6495","4.79813","15.24","0","SATNPRO1963","26.274","0.36804","5"],
    [2409,"HCEP03730564","2023-10-23 10:45:00","12.0813","3.55851","27.478","1.354","7.48","0.383","4.411","0.03","0.14","30.6503","4.79825","15.26","0","SATNPRO1963","26.038","0.36472","5"],
    [2410,"HCEP03730564","2023-10-23 11:00:00","12.0792","3.55824","27.605","1.325","7.47","0.392","4.544","0.05","0.14","30.6493","4.79815","14.94","0","SATNPRO1963","26.198","0.36692","5"],
    [2411,"HCEP03730564","2023-10-23 11:15:00","12.0798","3.55826","27.713","1.336","7.47","0.4","4.268","0.05","0.18","30.649","4.7981","15.06","0","SATNPRO1963","26.032","0.36466","5"],
    [2412,"HCEP03730564","2023-10-23 11:30:00","12.0778","3.55779","27.784","1.318","7.47","0.35","4.105","0.03","0.13","30.6461","4.79773","14.85","0","SATNPRO1963","26.652","0.37328","5"],
    [2413,"HCEP03730564","2023-10-23 11:45:00","12.0757","3.55734","27.852","1.302","7.47","0.4","4.196","0.04","0.14","30.6436","4.79741","14.66","0","SATNPRO1963","26.506","0.37126","5"],
    [2414,"HCEP03730564","2023-10-23 12:00:00","12.0748","3.55717","27.872","1.291","7.47","0.366","4.06","0.04","0.12","30.6426","4.79729","14.55","0","SATNPRO1963","25.918","0.36304","5"],
    [2415,"HCEP03730564","2023-10-23 12:15:00","12.0759","3.55736","27.921","1.304","7.47","0.407","3.991","0.05","0.11","30.6436","4.79741","14.69","0","SATNPRO1963","26.316","0.3686","5"],
    [2416,"HCEP03730564","2023-10-23 12:30:00","12.0686","3.55583","27.943","1.26","7.47","0.37","4.272","0.04","0.11","30.6349","4.79629","14.2","0","SATNPRO1963","25.91","0.3629","5"],
    [2417,"HCEP03730564","2023-10-23 12:45:00","12.0738","3.55607","27.924","1.328","7.47","0.378","3.762","0.04","0.1","30.6329","4.79593","14.96","0","SATNPRO1963","26.008","0.3643","5"],
    [2418,"HCEP03730564","2023-10-23 13:00:00","12.0717","3.55529","27.896","1.362","7.47","0.381","3.911","0.07","0.08","30.6272","4.79516","15.34","0","SATNPRO1963","25.828","0.36174","5"],
    [2419,"HCEP03730564","2023-10-23 13:15:00","12.0624","3.55405","27.898","1.266","7.47","0.415","4.611","0.03","0.13","30.623","4.79469","14.25","0","SATNPRO1963","26.044","0.36478","5"],
    [2420,"HCEP03730564","2023-10-23 13:30:00","12.063","3.55448","27.9","1.225","7.46","2.397","41.691","3.32","35.57","30.6265","4.79518","13.8","0","SATNPRO1963","25.798","0.36132","5"],
    [2421,"HCEP03730564","2023-10-23 13:45:00","12.0653","3.55512","27.902","1.22","7.46","0.411","4.584","0.03","0.08","30.6307","4.79574","13.74","0","SATNPRO1963","25.918","0.36302","5"],
    [2422,"HCEP03730564","2023-10-23 14:00:00","12.0729","3.55692","27.812","1.232","7.46","0.37","4.726","0.02","0.08","30.6418","4.7972","13.88","0","SATNPRO1963","26.184","0.36676","5"],
    [2423,"HCEP03730564","2023-10-23 14:15:00","12.0732","3.55696","27.761","1.246","7.46","0.388","4.543","0.02","0.07","30.6419","4.79721","14.03","0","SATNPRO1963","25.451999999999998","0.35648","5"],
    [2424,"HCEP03730564","2023-10-23 14:30:00","12.0792","3.55765","27.71","1.321","7.47","0.359","4.426","0.02","0.1","30.6437","4.79737","14.89","0","SATNPRO1963","25.376","0.35546","5"],
    [2425,"HCEP03730564","2023-10-23 14:45:00","12.0798","3.55817","27.61","1.313","7.47","0.386","4.323","0.03","0.09","30.6482","4.79799","14.8","0","SATNPRO1963","25.349999999999998","0.35508","5"],
    [2426,"HCEP03730564","2023-10-23 15:00:00","12.0816","3.55865","27.557","1.293","7.47","0.346","4.445","0.02","0.1","30.6513","4.79841","14.57","0","SATNPRO1963","25.232","0.35344","5"],
    [2427,"HCEP03730564","2023-10-23 15:15:00","12.087","3.55945","27.437","1.355","7.47","0.631","7.202","0.7","5.44","30.6546","4.79878","15.27","0","SATNPRO1963","25.456","0.35658","5"],
    [2428,"HCEP03730564","2023-10-23 15:30:00","12.0884","3.55981","27.358","1.397","7.47","0.332","4.113","0.02","0.1","30.6569","4.79908","15.74","0","SATNPRO1963","25.96","0.36358","5"],
    [2429,"HCEP03730564","2023-10-23 15:45:00","12.0817","3.55905","27.289","1.282","7.47","0.39","4.73","0.02","0.1","30.6551","4.79892","14.45","0","SATNPRO1963","25.898","0.36276","5"],
    [2430,"HCEP03730564","2023-10-23 16:00:00","12.0784","3.55863","27.173","1.23","7.46","0.363","4.824","0.03","0.12","30.6539","4.79879","13.86","0","SATNPRO1963","26.046","0.36484","5"],
    [2431,"HCEP03730564","2023-10-23 16:15:00","12.0856","3.55966","27.102","1.285","7.46","0.371","4.434","0.03","0.1","30.6578","4.79924","14.49","0","SATNPRO1963","26.214","0.36718","5"],
    [2432,"HCEP03730564","2023-10-23 16:30:00","12.0898","3.56059","26.978","1.31","7.47","0.345","4.608","0.02","0.1","30.6634","4.79996","14.76","0","SATNPRO1963","26.402","0.36982","5"],
    [2433,"HCEP03730564","2023-10-23 16:45:00","12.0951","3.56154","26.857","1.36","7.47","7.277","666.129","1.39","169.64","30.6681","4.80055","15.33","0","SATNPRO1963","25.54","0.35774","5"],
    [2434,"HCEP03730564","2023-10-23 17:00:00","12.0954","3.56171","26.785","1.404","7.48","2.814","564.882","1.25","77.27","30.6695","4.80073","15.83","0","SATNPRO1963","25.394","0.3557","5"],
    [2435,"HCEP03730564","2023-10-23 17:15:00","12.0956","3.56181","26.672","1.392","7.48","4.188","430.231","2.38","112.1","30.6704","4.80085","15.69","0","SATNPRO1963","25.822","0.36168","5"],
    [2436,"HCEP03730564","2023-10-23 17:30:00","12.0993","3.56237","26.56","1.453","7.48","2.657","37.659","2.91","31.59","30.6727","4.80113","16.38","0","SATNPRO1963","26.054","0.36494","5"],
    [2437,"HCEP03730564","2023-10-23 17:45:00","12.0974","3.5622","26.479","1.418","7.48","0.365","4.586","0.02","0.09","30.6727","4.80114","15.99","0","SATNPRO1963","26.686","0.3738","5"],
    [2438,"HCEP03730564","2023-10-23 18:00:00","12.099","3.56241","26.414","1.425","7.48","0.35","4.993","0.02","0.1","30.6734","4.80122","16.07","0","SATNPRO1963","26.378","0.36948","5"],
    [2439,"HCEP03730564","2023-10-23 18:15:00","12.104","3.56316","26.335","1.468","7.48","0.395","4.545","0.09","0.16","30.6766","4.80159","16.55","0","SATNPRO1963","26.334","0.36888","5"],
    [2440,"HCEP03730564","2023-10-23 18:30:00","12.1064","3.56373","26.324","1.518","7.49","0.35","4.624","0.03","0.14","30.68","4.80204","17.12","0","SATNPRO1963","26.748","0.37464","5"],
    [2441,"HCEP03730564","2023-10-23 18:45:00","12.1105","3.56424","26.257","1.558","7.49","0.387","4.731","0.03","0.34","30.6816","4.8022","17.58","0","SATNPRO1963","26.424","0.37008","5"],
    [2442,"HCEP03730564","2023-10-23 19:00:00","12.1139","3.56463","26.291","1.64","7.5","0.345","4.927","0.02","0.59","30.6825","4.80228","18.49","0","SATNPRO1963","26.582","0.37232","5"],
    [2443,"HCEP03730564","2023-10-23 19:15:00","12.1151","3.56489","26.318","1.651","7.5","0.388","5.184","0.02","0.64","30.684","4.80248","18.62","0","SATNPRO1963","26.996","0.37812","5"],
    [2444,"HCEP03730564","2023-10-23 19:30:00","12.1162","3.56519","26.32","1.677","7.5","0.362","5.002","0.02","0.18","30.686","4.80274","18.92","0","SATNPRO1963","27.192","0.38086","5"],
    [2445,"HCEP03730564","2023-10-23 19:45:00","12.1163","3.56523","26.367","1.669","7.51","0.388","5.082","0.02","0.35","30.6862","4.80278","18.82","0","SATNPRO1963","27.426000000000002","0.38414","5"],
    [2446,"HCEP03730564","2023-10-23 20:00:00","12.1159","3.56526","26.367","1.659","7.51","0.363","5.126","0.02","0.43","30.6868","4.80287","18.72","0","SATNPRO1963","27.884","0.39054","5"],
    [2447,"HCEP03730564","2023-10-23 20:15:00","12.1158","3.56536","26.443","1.653","7.5","0.365","4.492","0.02","0.07","30.6879","4.80303","18.65","0","SATNPRO1963","27.874","0.39044","5"],
    [2448,"HCEP03730564","2023-10-23 20:30:00","12.1152","3.56536","26.408","1.629","7.5","9.48","163.841","1.71","56.4","30.6883","4.80309","18.38","0","SATNPRO1963","27.896","0.3907","5"],
    [2449,"HCEP03730564","2023-10-23 20:45:00","12.1156","3.5656","26.442","1.613","7.5","8.767","185.078","1.12","99.22","30.6903","4.80337","18.2","0","SATNPRO1963","28.01","0.39234","5"],
    [2450,"HCEP03730564","2023-10-23 21:00:00","12.1173","3.56609","26.485","1.624","7.5","7.009","97.66","1.26","48.76","30.6936","4.80381","18.33","0","SATNPRO1963","27.878","0.39054","5"],
    [2451,"HCEP03730564","2023-10-23 21:15:00","12.119","3.56638","26.53","1.643","7.5","8.321","301.223","0.83","62.54","30.695","4.80398","18.53","0","SATNPRO1963","28.076","0.39324","5"],
    [2452,"HCEP03730564","2023-10-23 21:30:00","12.12","3.56662","26.558","1.667","7.5","9.759","778.876","0.88","146.94","30.6964","4.80417","18.81","0","SATNPRO1963","27.812","0.38952","5"],
    [2453,"HCEP03730564","2023-10-23 21:45:00","12.1235","3.56707","26.627","1.707","7.51","2.65","61.167","1.57","17.91","30.6979","4.80434","19.26","0","SATNPRO1963","27.846","0.39004","5"],
    [2454,"HCEP03730564","2023-10-23 22:00:00","12.1242","3.56746","26.695","1.735","7.51","0.362","5.193","0.02","0.2","30.701","4.80477","19.58","0","SATNPRO1963","27.934","0.39126","5"],
    [2455,"HCEP03730564","2023-10-23 22:15:00","12.1274","3.5681","26.705","1.787","7.51","0.362","4.137","0.02","0.25","30.7044","4.80521","20.16","0","SATNPRO1963","27.85","0.39012","5"],
    [2456,"HCEP03730564","2023-10-23 22:30:00","12.1267","3.56825","26.754","1.76","7.52","0.364","5.383","0.02","0.13","30.7064","4.8055","19.86","0","SATNPRO1963","28.204","0.39508","5"],
    [2457,"HCEP03730564","2023-10-23 22:45:00","12.1309","3.5695","26.817","1.78","7.52","0.359","4.141","0.02","0.21","30.7149","4.80664","20.09","0","SATNPRO1963","28.322","0.39668","5"],
    [2458,"HCEP03730564","2023-10-23 23:00:00","12.1362","3.57072","26.818","1.822","7.52","0.35","4.693","0.02","0.14","30.7222","4.8076","20.56","0","SATNPRO1963","28.058","0.39304","5"],
    [2459,"HCEP03730564","2023-10-23 23:15:00","12.1394","3.57182","26.891","1.843","7.52","0.388","4.981","0.03","0.3","30.73","4.80867","20.8","0","SATNPRO1963","28.451999999999998","0.39852","5"],
    [2460,"HCEP03730564","2023-10-23 23:30:00","12.1425","3.57205","26.879","1.894","7.53","0.343","4.58","0.02","0.3","30.7297","4.80858","21.39","0","SATNPRO1963","28.324","0.3967","5"],
    [2461,"HCEP03730564","2023-10-23 23:45:00","12.1475","3.57306","26.891","1.981","7.53","0.341","3.568","0.01","0.09","30.7352","4.80929","22.37","0","SATNPRO1963","28.56","0.40002","5"],
    [2462,"HCEP03730564","2023-10-24 00:00:00","12.1472","3.57301","26.919","1.979","7.54","0.321","3.953","0.01","0.11","30.735","4.80926","22.35","0","SATNPRO1963","28.732","0.40246","5"],
    [2463,"HCEP03730564","2023-10-24 00:15:00","12.1447","3.57261","26.897","1.939","7.53","0.373","4.536","0.02","0.21","30.7332","4.80904","21.89","0","SATNPRO1963","28.972","0.4058","5"],
    [2464,"HCEP03730564","2023-10-24 00:30:00","12.1519","3.57373","26.915","2.012","7.53","0.302","3.18","0.02","0.07","30.738","4.80962","22.72","0","SATNPRO1963","29.136","0.4081","5"],
    [2465,"HCEP03730564","2023-10-24 00:45:00","12.1499","3.57313","26.852","2.04","7.54","0.341","3.331","0.02","0.08","30.7339","4.80906","23.04","0","SATNPRO1963","29.436","0.4123","5"],
    [2466,"HCEP03730564","2023-10-24 01:00:00","12.1422","3.57209","26.784","1.923","7.53","0.362","4.855","0.02","0.16","30.7304","4.80867","21.71","0","SATNPRO1963","29.204","0.40906","5"],
    [2467,"HCEP03730564","2023-10-24 01:15:00","12.138","3.5715","26.719","1.827","7.53","0.418","5.24","0.03","0.21","30.7282","4.80841","20.63","0","SATNPRO1963","29.216","0.40922","5"],
    [2468,"HCEP03730564","2023-10-24 01:30:00","12.1542","3.57396","26.659","2.051","7.53","0.296","2.719","0.04","0.13","30.7384","4.80963","23.16","0","SATNPRO1963","29.768","0.41692","5"],
    [2469,"HCEP03730564","2023-10-24 01:45:00","12.1506","3.5734","26.603","2.046","7.54","0.332","3.491","0.02","0.17","30.7361","4.80935","23.1","0","SATNPRO1963","29.541999999999998","0.41378","5"],
    [2470,"HCEP03730564","2023-10-24 02:00:00","12.146","3.57242","26.485","1.982","7.54","0.33","3.826","0.03","0.22","30.7305","4.80862","22.38","0","SATNPRO1963","28.779999999999998","0.40312","5"],
    [2471,"HCEP03730564","2023-10-24 02:15:00","12.152","3.573","26.372","2.075","7.54","0.324","2.693","0.02","0.07","30.7311","4.80862","23.43","0","SATNPRO1963","28.706","0.40206","5"],
    [2472,"HCEP03730564","2023-10-24 02:30:00","12.1514","3.57266","26.223","2.096","7.54","0.294","2.983","0.02","0.08","30.7284","4.80824","23.67","0","SATNPRO1963","29.924","0.41912","5"],
    [2473,"HCEP03730564","2023-10-24 02:45:00","12.1473","3.57184","26.094","2.075","7.55","0.325","3.142","0.02","0.11","30.7241","4.80768","23.43","0","SATNPRO1963","29.42","0.41206","5"],
    [2474,"HCEP03730564","2023-10-24 03:00:00","12.1509","3.57224","25.954","2.12","7.55","0.299","2.84","0.02","0.11","30.7251","4.80776","23.94","0","SATNPRO1963","29.184","0.40878","5"],
    [2475,"HCEP03730564","2023-10-24 03:15:00","12.1453","3.57152","25.803","2.054","7.55","0.336","3.157","0.03","0.08","30.7227","4.80749","23.19","0","SATNPRO1963","29.954","0.41956","5"],
    [2476,"HCEP03730564","2023-10-24 03:30:00","12.1446","3.5716","25.638","1.997","7.54","0.309","3.369","0.02","0.07","30.7242","4.8077","22.54","0","SATNPRO1963","30.024","0.42052","5"],
    [2477,"HCEP03730564","2023-10-24 03:45:00","12.1421","3.57109","25.474","1.952","7.54","0.336","3.394","0.02","0.1","30.7214","4.80734","22.04","0","SATNPRO1963","29.814","0.41762","5"],
    [2478,"HCEP03730564","2023-10-24 04:00:00","12.1375","3.57063","25.35","1.877","7.53","0.351","4.567","0.02","0.2","30.7209","4.80731","21.19","0","SATNPRO1963","30.154","0.42234","5"],
    [2479,"HCEP03730564","2023-10-24 04:15:00","12.137","3.57046","25.222","1.859","7.53","4.105","84.996","0.75","18.2","30.7197","4.80715","20.98","0","SATNPRO1963","29.454","0.41256","5"],
    [2480,"HCEP03730564","2023-10-24 04:30:00","12.1363","3.57035","25.08","1.851","7.53","0.341","4.161","0.02","0.27","30.7193","4.8071","20.89","0","SATNPRO1963","29.37","0.4114","5"],
    [2481,"HCEP03730564","2023-10-24 04:45:00","12.1381","3.57126","24.948","1.84","7.52","0.408","5.001","0.03","0.27","30.7265","4.80808","20.77","0","SATNPRO1963","29.264","0.40988","5"],
    [2482,"HCEP03730564","2023-10-24 05:00:00","12.1429","3.57223","24.795","1.875","7.52","0.366","4.639","0.02","0.17","30.7319","4.80876","21.16","0","SATNPRO1963","28.604","0.40064","5"],
    [2483,"HCEP03730564","2023-10-24 05:15:00","12.1436","3.5719","24.692","1.928","7.53","0.378","3.994","0.04","0.33","30.7283","4.80824","21.76","0","SATNPRO1963","29.008","0.40634","5"],
    [2484,"HCEP03730564","2023-10-24 05:30:00","12.1469","3.57246","24.593","1.981","7.53","0.358","4.591","0.02","0.29","30.7309","4.80856","22.36","0","SATNPRO1963","28.864","0.40432","5"],
    [2485,"HCEP03730564","2023-10-24 05:45:00","12.1457","3.57231","24.55","1.983","7.54","0.392","4.511","0.03","0.23","30.7305","4.80851","22.39","0","SATNPRO1963","28.754","0.40274","5"],
    [2486,"HCEP03730564","2023-10-24 06:00:00","12.1412","3.57112","24.508","1.953","7.53","0.355","4.408","0.02","0.24","30.7229","4.8075","22.04","0","SATNPRO1963","29.216","0.40924","5"],
    [2487,"HCEP03730564","2023-10-24 06:15:00","12.1455","3.57217","24.491","1.984","7.54","0.384","4.326","0.03","0.22","30.7293","4.80834","22.4","0","SATNPRO1963","29.454","0.41256","5"],
    [2488,"HCEP03730564","2023-10-24 06:30:00","12.1377","3.56988","24.495","1.947","7.54","0.332","3.794","0.03","0.21","30.7139","4.80628","21.97","0","SATNPRO1963","29.588","0.41444","5"],
    [2489,"HCEP03730564","2023-10-24 06:45:00","12.1319","3.5685","24.562","1.891","7.53","0.367","3.536","0.04","0.15","30.7054","4.80516","21.35","0","SATNPRO1963","29.436","0.41228","5"],
    [2490,"HCEP03730564","2023-10-24 07:00:00","12.1317","3.56797","24.665","1.893","7.53","0.315","3.236","0.02","0.11","30.7004","4.80448","21.37","0","SATNPRO1963","29.102","0.40764","5"],
    [2491,"HCEP03730564","2023-10-24 07:15:00","12.1333","3.56802","24.676","1.93","7.53","0.338","3.105","0.02","0.11","30.6996","4.80434","21.78","0","SATNPRO1963","29.5","0.4132","5"],
    [2492,"HCEP03730564","2023-10-24 07:30:00","12.1326","3.56868","24.823","1.875","7.53","0.325","3.623","0.01","0.11","30.7065","4.80532","21.16","0","SATNPRO1963","29.342","0.41098","5"],
    [2493,"HCEP03730564","2023-10-24 07:45:00","12.1545","3.57385","24.929","2.084","7.54","0.42","4.612","0.02","0.23","30.7378","4.80944","23.53","0","SATNPRO1963","29.114","0.4078","5"],
    [2494,"HCEP03730564","2023-10-24 08:00:00","12.1553","3.57395","25.042","2.17","7.55","0.356","4.2","0.02","0.15","30.7381","4.80947","24.51","0","SATNPRO1963","29.482","0.41296","5"],
    [2495,"HCEP03730564","2023-10-24 08:15:00","12.1548","3.5745","25.148","2.111","7.55","0.451","5.041","0.14","0.18","30.7437","4.81028","23.84","0","SATNPRO1963","29.496","0.41316","5"],
    [2496,"HCEP03730564","2023-10-24 08:30:00","12.1564","3.57482","25.296","2.114","7.55","0.406","4.938","0.03","0.21","30.7454","4.81051","23.88","0","SATNPRO1963","28.848","0.4041","5"],
    [2497,"HCEP03730564","2023-10-24 08:45:00","12.1562","3.57484","25.442","2.12","7.55","0.44","5.147","0.02","0.14","30.7457","4.81057","23.94","0","SATNPRO1963","30.408","0.42594","5"],
    [2498,"HCEP03730564","2023-10-24 09:00:00","12.1564","3.57502","25.692","2.101","7.55","0.427","5.655","0.02","0.21","30.7471","4.81078","23.73","0","SATNPRO1963","30.538","0.42776","5"],
    [2499,"HCEP03730564","2023-10-24 09:15:00","12.1573","3.57397","25.783","2.126","7.55","0.416","4.512","0.02","0.13","30.7363","4.80924","24.01","0","SATNPRO1963","29.945999999999998","0.41946","5"],
    [2500,"HCEP03730564","2023-10-24 09:30:00","12.1553","3.57496","25.973","2.075","7.55","0.426","5.568","0.03","0.14","30.7474","4.81084","23.43","0","SATNPRO1963","30.11","0.42176","5"],
    [2501,"HCEP03730564","2023-10-24 09:45:00","12.1577","3.57482","26.194","2.144","7.55","0.409","4.155","0.04","0.22","30.7439","4.81033","24.21","0","SATNPRO1963","29.994","0.42012","5"],
    [2502,"HCEP03730564","2023-10-24 10:00:00","12.1574","3.57499","26.438","2.155","7.55","0.372","4.255","0.02","0.14","30.7458","4.81061","24.34","0","SATNPRO1963","29.788","0.41726","5"],
    [2503,"HCEP03730564","2023-10-24 10:15:00","12.1572","3.5746","26.54","2.155","7.55","0.388","4.114","0.02","0.13","30.7421","4.81011","24.34","0","SATNPRO1963","30.246","0.42364","5"],
    [2504,"HCEP03730564","2023-10-24 10:30:00","12.1307","3.56708","26.813","1.986","7.55","0.315","2.909","0.03","0.1","30.6919","4.80341","22.42","0","SATNPRO1963","29.678","0.4157","5"],
    [2505,"HCEP03730564","2023-10-24 10:45:00","12.139","3.56934","26.923","1.969","7.54","0.348","3.041","0.02","0.08","30.7066","4.80537","22.23","0","SATNPRO1963","30.317999999999998","0.42468","5"],
    [2506,"HCEP03730564","2023-10-24 11:00:00","12.1298","3.56695","27.08","1.894","7.54","0.325","3.132","0.02","0.06","30.6913","4.80336","21.37","0","SATNPRO1963","30.25","0.42364","5"],
    [2507,"HCEP03730564","2023-10-24 11:15:00","12.1233","3.56519","27.261","1.88","7.53","0.357","3.247","0.03","0.12","30.6798","4.80183","21.21","0","SATNPRO1963","30.336","0.42488","5"],
    [2508,"HCEP03730564","2023-10-24 11:30:00","12.1235","3.56589","27.435","1.823","7.52","0.337","3.62","0.02","0.13","30.6862","4.80273","20.57","0","SATNPRO1963","29.56","0.41402","5"],
    [2509,"HCEP03730564","2023-10-24 11:45:00","12.1234","3.56524","27.528","1.82","7.52","0.362","3.47","0.03","0.14","30.6801","4.80188","20.53","0","SATNPRO1963","29.418","0.41204","5"],
    [2510,"HCEP03730564","2023-10-24 12:00:00","12.1202","3.5649","27.654","1.807","7.52","0.335","3.493","0.02","0.1","30.6794","4.80183","20.39","0","SATNPRO1963","29.13","0.40802","5"],
    [2511,"HCEP03730564","2023-10-24 12:15:00","12.1221","3.56574","27.734","1.754","7.52","0.358","3.401","0.02","0.07","30.6857","4.80271","19.79","0","SATNPRO1963","28.97","0.4058","5"],
    [2512,"HCEP03730564","2023-10-24 12:30:00","12.128","3.56695","27.819","1.813","7.52","0.34","3.597","0.03","0.29","30.6925","4.80359","20.46","0","SATNPRO1963","28.728","0.40234","5"],
    [2513,"HCEP03730564","2023-10-24 12:45:00","12.1329","3.56813","27.831","1.864","7.52","0.364","3.398","0.03","0.37","30.6998","4.80454","21.04","0","SATNPRO1963","28.762","0.40286","5"],
    [2514,"HCEP03730564","2023-10-24 13:00:00","12.1429","3.57241","27.841","1.847","7.53","0.44","6.079","0.02","0.32","30.7324","4.80901","20.85","0","SATNPRO1963","28.686","0.4018","5"],
    [2515,"HCEP03730564","2023-10-24 13:15:00","12.1422","3.57243","27.9","1.797","7.53","0.512","7.179","0.02","0.34","30.7331","4.80912","20.29","0","SATNPRO1963","28.7","0.40194","5"],
    [2516,"HCEP03730564","2023-10-24 13:30:00","12.1441","3.57288","27.925","1.818","7.52","0.439","6.164","0.02","0.4","30.7359","4.80949","20.52","0","SATNPRO1963","28.752","0.4027","5"],
    [2517,"HCEP03730564","2023-10-24 13:45:00","12.1505","3.57385","27.919","1.935","7.53","0.452","5.666","0.02","0.28","30.7399","4.80996","21.85","0","SATNPRO1963","29.494","0.41312","5"],
    [2518,"HCEP03730564","2023-10-24 14:00:00","12.1519","3.57381","27.878","2.037","7.54","0.384","5.063","0.02","0.19","30.7383","4.80972","23.01","0","SATNPRO1963","28.736","0.40248","5"],
    [2519,"HCEP03730564","2023-10-24 14:15:00","12.1467","3.57246","27.816","2.034","7.54","0.417","4.88","0.02","0.18","30.7298","4.80858","22.96","0","SATNPRO1963","28.296","0.39636","5"],
    [2520,"HCEP03730564","2023-10-24 14:30:00","12.143","3.57136","27.749","1.995","7.54","0.393","4.932","0.02","0.52","30.7224","4.80758","22.52","0","SATNPRO1963","28.706","0.40206","5"],
    [2521,"HCEP03730564","2023-10-24 14:45:00","12.1412","3.5707","27.679","1.976","7.54","0.439","5.593","0.03","0.4","30.7175","4.80692","22.31","0","SATNPRO1963","29.602","0.41462","5"],
    [2522,"HCEP03730564","2023-10-24 15:00:00","12.1383","3.56955","27.646","1.958","7.54","0.391","4.962","0.02","0.27","30.7089","4.80575","22.1","0","SATNPRO1963","30.006","0.42026","5"],
    [2523,"HCEP03730564","2023-10-24 15:15:00","12.1352","3.56905","27.517","1.932","7.54","0.427","5.154","0.02","0.25","30.7068","4.80548","21.8","0","SATNPRO1963","29.776","0.41702","5"],
    [2524,"HCEP03730564","2023-10-24 15:30:00","12.1316","3.56792","27.467","1.92","7.53","0.413","5.912","0.02","0.27","30.6989","4.80442","21.67","0","SATNPRO1963","29.714","0.41622","5"],
    [2525,"HCEP03730564","2023-10-24 15:45:00","12.1295","3.56742","27.336","1.895","7.53","0.486","5.862","0.03","0.27","30.696","4.80403","21.38","0","SATNPRO1963","29.664","0.41552","5"],
    [2526,"HCEP03730564","2023-10-24 16:00:00","12.1255","3.56631","27.219","1.86","7.53","0.464","6.285","0.03","0.39","30.6886","4.80304","20.98","0","SATNPRO1963","29.596","0.41458","5"],
    [2527,"HCEP03730564","2023-10-24 16:15:00","12.1204","3.56449","27.113","1.839","7.53","0.496","6.3","0.03","0.34","30.6755","4.80125","20.74","0","SATNPRO1963","29.664","0.4155","5"],
    [2528,"HCEP03730564","2023-10-24 16:30:00","12.1163","3.56296","26.947","1.882","7.53","0.448","5.835","0.02","0.54","30.6643","4.79973","21.23","0","SATNPRO1963","29.474","0.41282","5"],
    [2529,"HCEP03730564","2023-10-24 16:45:00","12.1066","3.56037","26.903","1.856","7.53","0.478","5.713","0.03","0.4","30.6476","4.7975","20.93","0","SATNPRO1963","29.296","0.41034","5"],
    [2530,"HCEP03730564","2023-10-24 17:00:00","12.1013","3.5591","26.713","1.833","7.52","0.45","6.131","0.03","0.29","30.6398","4.79646","20.67","0","SATNPRO1963","29.1","0.40758","5"],
    [2531,"HCEP03730564","2023-10-24 17:15:00","12.0943","3.5579","26.557","1.762","7.52","0.492","5.975","0.03","0.29","30.6342","4.79575","19.86","0","SATNPRO1963","29.168","0.40854","5"],
    [2532,"HCEP03730564","2023-10-24 17:30:00","12.0851","3.55626","26.46","1.641","7.51","0.447","5.976","0.03","0.32","30.626","4.79472","18.49","0","SATNPRO1963","29.438000000000002","0.4123","5"],
    [2533,"HCEP03730564","2023-10-24 17:45:00","12.0803","3.55509","26.307","1.579","7.5","0.484","5.889","0.02","0.35","30.6188","4.79377","17.79","0","SATNPRO1963","28.828","0.40378","5"],
    [2534,"HCEP03730564","2023-10-24 18:00:00","12.0734","3.55351","26.202","1.532","7.5","0.438","5.493","0.03","0.3","30.6094","4.79254","17.26","0","SATNPRO1963","28.926","0.40514","5"],
    [2535,"HCEP03730564","2023-10-24 18:15:00","12.0686","3.5524","26.079","1.486","7.49","0.474","5.651","0.02","0.28","30.6028","4.79165","16.74","0","SATNPRO1963","28.6","0.40058","5"],
    [2536,"HCEP03730564","2023-10-24 18:30:00","12.0642","3.55155","25.933","1.422","7.49","0.426","5.137","0.02","0.28","30.5984","4.79109","16.02","0","SATNPRO1963","28.104","0.39364","5"],
    [2537,"HCEP03730564","2023-10-24 18:45:00","12.0586","3.55053","25.916","1.375","7.48","0.473","5.416","0.02","0.21","30.5931","4.79042","15.48","0","SATNPRO1963","27.85","0.39012","5"],
    [2538,"HCEP03730564","2023-10-24 19:00:00","12.0564","3.54985","25.873","1.374","7.48","0.443","5.457","0.03","0.21","30.5885","4.7898","15.48","0","SATNPRO1963","27.594","0.38652","5"],
    [2539,"HCEP03730564","2023-10-24 19:15:00","12.0512","3.54823","25.856","1.395","7.48","0.475","5.347","0.02","0.18","30.5772","4.78828","15.7","0","SATNPRO1963","27.364","0.38326","5"],
    [2540,"HCEP03730564","2023-10-24 19:30:00","12.0456","3.5465","25.824","1.414","7.48","0.432","5.027","0.03","0.18","30.5653","4.78667","15.91","0","SATNPRO1963","26.866","0.37628","5"],
    [2541,"HCEP03730564","2023-10-24 19:45:00","12.0462","3.54645","25.853","1.418","7.48","0.467","5.112","0.02","0.27","30.5643","4.78653","15.96","0","SATNPRO1963","26.622","0.37288","5"],
    [2542,"HCEP03730564","2023-10-24 20:00:00","12.0455","3.5466","25.981","1.393","7.48","0.436","5.365","0.03","0.24","30.5662","4.78682","15.68","0","SATNPRO1963","26.632","0.37302","5"],
    [2543,"HCEP03730564","2023-10-24 20:15:00","12.0436","3.5466","25.85","1.339","7.48","0.47","5.163","0.02","0.21","30.5679","4.78707","15.08","0","SATNPRO1963","27.052","0.3789","5"],
    [2544,"HCEP03730564","2023-10-24 20:30:00","12.0402","3.54593","25.88","1.298","7.48","0.419","5.1","0.03","0.25","30.5642","4.78659","14.6","0","SATNPRO1963","26.882","0.37652","5"],
    [2545,"HCEP03730564","2023-10-24 20:45:00","12.0363","3.54503","26.034","1.278","7.47","0.49","4.883","0.13","0.3","30.5587","4.78588","14.38","0","SATNPRO1963","26.89","0.37664","5"],
    [2546,"HCEP03730564","2023-10-24 21:00:00","12.0315","3.54352","26.031","1.266","7.47","0.426","4.698","0.03","0.32","30.5482","4.78446","14.24","0","SATNPRO1963","26.646","0.37322","5"],
    [2547,"HCEP03730564","2023-10-24 21:15:00","12.0283","3.54274","26.08","1.263","7.47","0.456","4.394","0.03","0.2","30.5433","4.78383","14.2","0","SATNPRO1963","26.168","0.3665","5"],
    [2548,"HCEP03730564","2023-10-24 21:30:00","12.024","3.54143","26.193","1.26","7.47","0.441","4.662","0.03","0.21","30.5342","4.78261","14.17","0","SATNPRO1963","25.796","0.3613","5"],
    [2549,"HCEP03730564","2023-10-24 21:45:00","12.0211","3.54051","26.282","1.258","7.47","0.458","4.192","0.03","0.14","30.5278","4.78174","14.15","0","SATNPRO1963","25.434","0.3563","5"],
    [2550,"HCEP03730564","2023-10-24 22:00:00","12.0186","3.53986","26.333","1.249","7.47","0.438","4.502","0.03","0.22","30.5236","4.78119","14.04","0","SATNPRO1963","25.566","0.35808","5"],
    [2551,"HCEP03730564","2023-10-24 22:15:00","12.016","3.53916","26.437","1.206","7.47","0.472","4.47","0.03","0.16","30.519","4.78059","13.56","0","SATNPRO1963","25.46","0.35662","5"],
    [2552,"HCEP03730564","2023-10-24 22:30:00","12.014","3.53866","26.567","1.166","7.46","0.44","4.344","0.03","0.19","30.5158","4.78016","13.11","0","SATNPRO1963","25.282","0.3541","5"],
    [2553,"HCEP03730564","2023-10-24 22:45:00","12.0133","3.53843","26.598","1.148","7.46","0.481","4.452","0.04","0.14","30.5141","4.77994","12.91","0","SATNPRO1963","25.394000000000002","0.35562","5"],
    [2554,"HCEP03730564","2023-10-24 23:00:00","12.0125","3.53818","26.694","1.137","7.46","0.432","4.315","0.04","0.18","30.5123","4.7797","12.79","0","SATNPRO1963","25.282","0.35416","5"],
    [2555,"HCEP03730564","2023-10-24 23:15:00","12.0117","3.53763","26.784","1.123","7.46","0.473","4.354","0.04","0.12","30.5077","4.77906","12.63","0","SATNPRO1963","25.062","0.35106","5"],
    [2556,"HCEP03730564","2023-10-24 23:30:00","12.0107","3.53731","26.853","1.107","7.45","0.439","4.516","0.02","0.19","30.5055","4.77877","12.45","0","SATNPRO1963","24.65","0.34528","5"],
    [2557,"HCEP03730564","2023-10-24 23:45:00","12.0093","3.53668","26.94","1.105","7.45","0.469","3.965","0.03","0.11","30.5006","4.7781","12.42","0","SATNPRO1963","24.526","0.34352","5"],
    [2558,"HCEP03730564","2023-10-25 00:00:00","12.008","3.53582","27.011","1.092","7.45","0.434","3.762","0.04","0.14","30.4933","4.7771","12.28","0","SATNPRO1963","24.294","0.34028","5"],
    [2559,"HCEP03730564","2023-10-25 00:15:00","12.0066","3.53517","27.1","1.067","7.45","0.489","3.773","0.06","0.19","30.4882","4.77641","11.99","0","SATNPRO1963","24.169999999999998","0.33856","5"],
    [2560,"HCEP03730564","2023-10-25 00:30:00","12.0073","3.53495","27.133","1.063","7.45","0.421","3.694","0.03","0.16","30.4856","4.77603","11.95","0","SATNPRO1963","23.882","0.33448","5"],
    [2561,"HCEP03730564","2023-10-25 00:45:00","12.0087","3.53533","27.205","1.071","7.45","0.496","3.774","0.08","0.19","30.488","4.77635","12.03","0","SATNPRO1963","23.618","0.3308","5"],
    [2562,"HCEP03730564","2023-10-25 01:00:00","12.0104","3.53594","27.221","1.092","7.45","0.441","4.043","0.04","0.37","30.4925","4.77697","12.28","0","SATNPRO1963","23.442","0.32836","5"],
    [2563,"HCEP03730564","2023-10-25 01:15:00","12.0127","3.53671","27.223","1.109","7.45","0.489","4.283","0.04","0.17","30.4979","4.77769","12.47","0","SATNPRO1963","22.942","0.32138","5"],
    [2564,"HCEP03730564","2023-10-25 01:30:00","12.0167","3.53725","27.194","1.145","7.45","0.461","4.651","0.03","0.16","30.4998","4.77791","12.87","0","SATNPRO1963","23.038","0.32268","5"],
    [2565,"HCEP03730564","2023-10-25 01:45:00","12.02","3.53759","27.157","1.175","7.46","0.534","4.84","0.05","0.16","30.5004","4.77794","13.22","0","SATNPRO1963","23.214","0.32514","5"],
    [2566,"HCEP03730564","2023-10-25 02:00:00","12.0276","3.5378","27.14","1.214","7.46","0.536","4.842","0.05","0.09","30.4962","4.77725","13.66","0","SATNPRO1963","23.464","0.32866","5"],
    [2567,"HCEP03730564","2023-10-25 02:15:00","12.0536","3.53536","27.091","1.343","7.46","0.628","4.241","0.1","0.11","30.4517","4.7706","15.11","0","SATNPRO1963","23.958","0.33558","5"],
    [2568,"HCEP03730564","2023-10-25 02:30:00","12.0307","3.53708","27.021","1.312","7.47","0.508","4.493","0.05","0.09","30.4868","4.77587","14.75","0","SATNPRO1963","24.536","0.34364","5"],
    [2569,"HCEP03730564","2023-10-25 02:45:00","12.0634","3.53018","26.886","1.441","7.47","0.65","3.486","0.07","0.09","30.3943","4.76236","16.2","0","SATNPRO1963","24.642","0.34514","5"],
    [2570,"HCEP03730564","2023-10-25 03:00:00","12.0658","3.5249","26.753","1.577","7.48","0.618","3.008","0.08","0.14","30.3419","4.75492","17.74","0","SATNPRO1963","24.846","0.34804","5"],
    [2571,"HCEP03730564","2023-10-25 03:15:00","12.03","3.53087","26.659","1.306","7.47","0.573","3.501","0.07","0.16","30.4281","4.76758","14.68","0","SATNPRO1963","24.522000000000002","0.34346","5"],
    [2572,"HCEP03730564","2023-10-25 03:30:00","12.0205","3.53265","26.54","1.186","7.46","0.497","3.575","0.05","0.11","30.4529","4.7712","13.33","0","SATNPRO1963","24.812","0.34754","5"],
    [2573,"HCEP03730564","2023-10-25 03:45:00","12.0178","3.53181","26.412","1.117","7.46","0.522","3.544","0.06","0.2","30.4472","4.77043","12.55","0","SATNPRO1963","24.534","0.34364","5"],
    [2574,"HCEP03730564","2023-10-25 04:00:00","12.0163","3.53191","26.312","1.08","7.45","0.48","3.559","0.05","0.2","30.4494","4.77076","12.14","0","SATNPRO1963","24.258","0.3398","5"],
    [2575,"HCEP03730564","2023-10-25 04:15:00","12.016","3.5322","26.133","1.074","7.45","0.511","3.775","0.03","0.1","30.4525","4.77119","12.07","0","SATNPRO1963","23.988","0.336","5"],
    [2576,"HCEP03730564","2023-10-25 04:30:00","12.0175","3.53185","26.001","1.083","7.45","0.505","3.592","0.05","0.09","30.4479","4.7705","12.17","0","SATNPRO1963","23.518","0.32944","5"],
    [2577,"HCEP03730564","2023-10-25 04:45:00","12.0181","3.53213","25.891","1.091","7.45","0.533","3.88","0.05","0.11","30.4503","4.77082","12.26","0","SATNPRO1963","23.122","0.32384","5"],
    [2578,"HCEP03730564","2023-10-25 05:00:00","12.0208","3.53204","25.738","1.124","7.45","0.506","3.644","0.05","0.09","30.4472","4.77035","12.63","0","SATNPRO1963","23.002","0.3222","5"],
    [2579,"HCEP03730564","2023-10-25 05:15:00","12.0235","3.53304","25.639","1.155","7.45","0.584","4.946","0.05","0.11","30.4545","4.77134","12.98","0","SATNPRO1963","22.86","0.32016","5"],
    [2580,"HCEP03730564","2023-10-25 05:30:00","12.0266","3.53403","25.452","1.165","7.45","0.565","4.915","0.06","0.13","30.4616","4.77229","13.1","0","SATNPRO1963","22.972","0.32174","5"],
    [2581,"HCEP03730564","2023-10-25 05:45:00","12.0266","3.53235","25.306","1.183","7.45","0.566","4.103","0.05","0.12","30.4456","4.77002","13.3","0","SATNPRO1963","23.276","0.326","5"],
    [2582,"HCEP03730564","2023-10-25 06:00:00","12.0238","3.5323","25.14","1.164","7.45","0.533","4.16","0.06","0.16","30.4474","4.7703","13.09","0","SATNPRO1963","23.458","0.3286","5"],
    [2583,"HCEP03730564","2023-10-25 06:15:00","12.0252","3.53183","24.996","1.156","7.45","0.576","3.936","0.05","0.2","30.4419","4.7695","13","0","SATNPRO1963","24.092","0.3374","5"],
    [2584,"HCEP03730564","2023-10-25 06:30:00","12.1483","3.5079","24.858","2.098","7.49","1.01","2.505","0.29","0.1","30.1137","4.72147","23.59","0","SATNPRO1963","24.204","0.33902","5"],
    [2585,"HCEP03730564","2023-10-25 06:45:00","12.0553","3.52791","24.789","1.681","7.51","0.671","3.561","0.14","0.12","30.38","4.76033","18.9","0","SATNPRO1963","24.002","0.33618","5"],
    [2586,"HCEP03730564","2023-10-25 07:00:00","12.0718","3.52526","24.747","1.517","7.49","0.66","3.603","0.07","0.11","30.3413","4.75464","17.06","0","SATNPRO1963","23.624","0.3309","5"],
    [2587,"HCEP03730564","2023-10-25 07:15:00","12.1774","3.49324","24.744","2.485","7.53","1.107","2.682","0.17","0.17","29.951","4.69808","27.93","0","SATNPRO1963","23.698","0.33196","5"],
    [2588,"HCEP03730564","2023-10-25 07:30:00","12.0818","3.52663","24.758","1.902","7.52","0.597","4.11","0.07","0.1","30.3462","4.7552","21.4","0","SATNPRO1963","23.378","0.32744","5"],
    [2589,"HCEP03730564","2023-10-25 07:45:00","12.0354","3.53102","24.796","1.292","7.49","0.606","3.719","0.07","0.09","30.4259","4.76708","14.53","0","SATNPRO1963","23.922","0.33506","5"],
    [2590,"HCEP03730564","2023-10-25 08:00:00","12.0621","3.52346","24.799","1.468","7.48","0.695","3.16","0.12","0.11","30.3319","4.75346","16.51","0","SATNPRO1963","23.754","0.3327","5"],
    [2591,"HCEP03730564","2023-10-25 08:15:00","12.0554","3.52379","24.869","1.409","7.48","0.688","3.432","0.1","0.11","30.3404","4.75475","15.84","0","SATNPRO1963","22.722","0.31824","5"],
    [2592,"HCEP03730564","2023-10-25 08:30:00","12.0416","3.52744","24.946","1.269","7.47","0.617","3.893","0.08","0.16","30.3865","4.76145","14.26","0","SATNPRO1963","23.198","0.32492","5"],
    [2593,"HCEP03730564","2023-10-25 08:45:00","12.0265","3.53046","25.089","1.167","7.46","0.633","3.785","0.11","0.13","30.4277","4.76748","13.11","0","SATNPRO1963","23.722","0.33222","5"],
    [2594,"HCEP03730564","2023-10-25 09:00:00","12.0317","3.52799","25.174","1.149","7.45","0.653","3.741","0.14","0.19","30.3998","4.76348","12.92","0","SATNPRO1963","23.342","0.32696","5"],
    [2595,"HCEP03730564","2023-10-25 09:15:00","12.0313","3.52716","25.332","1.149","7.45","0.656","3.28","0.17","0.16","30.3921","4.7624","12.92","0","SATNPRO1963","23.186","0.32474","5"],
    [2596,"HCEP03730564","2023-10-25 09:30:00","12.0323","3.5277","25.509","1.144","7.45","0.608","3.458","0.11","0.14","30.3964","4.76301","12.86","0","SATNPRO1963","23.022","0.32244","5"],
    [2597,"HCEP03730564","2023-10-25 09:45:00","12.0261","3.52991","25.698","1.114","7.45","0.623","3.54","0.07","0.26","30.4225","4.76678","12.52","0","SATNPRO1963","22.786","0.31918","5"],
    [2598,"HCEP03730564","2023-10-25 10:00:00","12.0208","3.53106","25.897","1.047","7.45","0.609","4.765","0.07","0.18","30.4377","4.76902","11.76","0","SATNPRO1963","22.438","0.3143","5"],
    [2599,"HCEP03730564","2023-10-25 10:15:00","12.0193","3.53125","26.049","1.004","7.44","0.687","5.162","0.08","0.23","30.4408","4.76948","11.29","0","SATNPRO1963","22.19","0.3108","5"],
    [2600,"HCEP03730564","2023-10-25 10:30:00","12.027","3.53329","26.23","1.049","7.44","0.686","5.87","0.08","0.23","30.4538","4.77123","11.8","0","SATNPRO1963","22.52","0.31546","5"],
    [2601,"HCEP03730564","2023-10-25 10:45:00","12.0444","3.53458","26.405","1.189","7.44","0.768","6.896","0.13","0.39","30.452","4.77073","13.37","0","SATNPRO1963","22.71","0.31808","5"],
    [2602,"HCEP03730564","2023-10-25 11:00:00","12.0533","3.5367","26.581","1.318","7.45","0.635","6.367","0.05","0.31","30.4649","4.77244","14.83","0","SATNPRO1963","22.436","0.31426","5"],
    [2603,"HCEP03730564","2023-10-25 11:15:00","12.0615","3.53715","26.747","1.428","7.46","0.609","4.859","0.07","0.33","30.4625","4.772","16.07","0","SATNPRO1963","22.408","0.31386","5"],
    [2604,"HCEP03730564","2023-10-25 11:30:00","12.1052","3.50954","26.942","1.874","7.48","1.076","2.339","0.18","0.13","30.1634","4.72918","21.06","0","SATNPRO1963","23.238","0.32548","5"],
    [2605,"HCEP03730564","2023-10-25 11:45:00","12.0769","3.51671","27.137","1.822","7.5","0.641","4.101","0.06","0.29","30.2545","4.74245","20.48","0","SATNPRO1963","24.348","0.34104","5"],
    [2606,"HCEP03730564","2023-10-25 12:00:00","12.0729","3.53487","27.33","1.621","7.49","0.587","4.163","0.07","0.33","30.4312","4.76746","18.24","0","SATNPRO1963","25.052","0.35088","5"],
    [2607,"HCEP03730564","2023-10-25 12:15:00","12.0747","3.53587","27.487","1.575","7.49","0.63","4.584","0.08","0.23","30.4393","4.76859","17.72","0","SATNPRO1963","25.348","0.35506","5"],
    [2608,"HCEP03730564","2023-10-25 12:30:00","12.0718","3.53527","27.612","1.552","7.49","0.64","4.877","0.09","0.33","30.4359","4.76815","17.47","0","SATNPRO1963","21.888","0.30656","5"],
    [2609,"HCEP03730564","2023-10-25 12:45:00","12.0771","3.53641","27.751","1.569","7.49","0.683","5.04","0.1","0.31","30.4423","4.769","17.65","0","SATNPRO1963","24.802","0.34742","5"],
    [2610,"HCEP03730564","2023-10-25 13:00:00","12.0634","3.53295","27.852","1.479","7.48","0.63","3.611","0.15","0.26","30.4203","4.76608","16.63","0","SATNPRO1963","25.266","0.3539","5"],
    [2611,"HCEP03730564","2023-10-25 13:15:00","12.0443","3.52768","27.948","1.283","7.47","0.688","2.792","0.11","0.18","30.3854","4.76142","14.43","0","SATNPRO1963","24.99","0.35002","5"],
    [2612,"HCEP03730564","2023-10-25 13:30:00","12.0526","3.53113","27.995","1.289","7.47","0.618","3.272","0.12","0.29","30.4117","4.76503","14.49","0","SATNPRO1963","25.274","0.354","5"],
    [2613,"HCEP03730564","2023-10-25 13:45:00","12.0562","3.53253","28","1.321","7.47","0.694","3.714","0.11","0.27","30.4222","4.76645","14.85","0","SATNPRO1963","25.506","0.35726","5"],
    [2614,"HCEP03730564","2023-10-25 14:00:00","12.0532","3.5329","28.029","1.307","7.47","0.627","3.741","0.1","0.18","30.4281","4.76733","14.7","0","SATNPRO1963","23.608","0.33066","5"],
    [2615,"HCEP03730564","2023-10-25 14:15:00","12.056","3.5346","28.003","1.309","7.46","0.638","4.326","0.08","0.31","30.4421","4.76926","14.73","0","SATNPRO1963","22.76","0.3188","5"],
    [2616,"HCEP03730564","2023-10-25 14:30:00","12.055","3.53638","27.979","1.322","7.46","0.533","3.556","0.08","0.22","30.4599","4.77179","14.87","0","SATNPRO1963","23.32","0.32666","5"],
    [2617,"HCEP03730564","2023-10-25 14:45:00","12.064","3.53871","27.941","1.377","7.47","0.578","3.969","0.06","0.31","30.475","4.77379","15.49","0","SATNPRO1963","23.695999999999998","0.33196","5"],
    [2618,"HCEP03730564","2023-10-25 15:00:00","12.0704","3.54127","27.923","1.44","7.47","0.54","4.393","0.05","0.2","30.4941","4.77641","16.21","0","SATNPRO1963","23.658","0.33136","5"],
    [2619,"HCEP03730564","2023-10-25 15:15:00","12.0675","3.54239","27.85","1.44","7.47","0.562","4.518","0.06","0.72","30.5073","4.7783","16.21","0","SATNPRO1963","24.314","0.34054","5"],
    [2620,"HCEP03730564","2023-10-25 15:30:00","12.0654","3.54305","27.784","1.438","7.48","0.523","4.621","0.04","0.57","30.5153","4.77945","16.18","0","SATNPRO1963","24.382","0.34152","5"],
    [2621,"HCEP03730564","2023-10-25 15:45:00","12.0616","3.54328","27.7","1.424","7.48","0.552","5.048","0.05","0.34","30.5207","4.78026","16.02","0","SATNPRO1963","25.072","0.35116","5"],
    [2622,"HCEP03730564","2023-10-25 16:00:00","12.0643","3.5439","27.581","1.47","7.48","0.509","4.37","0.04","0.21","30.5244","4.78075","16.55","0","SATNPRO1963","26.122","0.36584","5"],
    [2623,"HCEP03730564","2023-10-25 16:15:00","12.0673","3.54415","27.441","1.544","7.48","0.553","4.365","0.05","0.37","30.5244","4.78069","17.38","0","SATNPRO1963","26.131999999999998","0.366","5"],
    [2624,"HCEP03730564","2023-10-25 16:30:00","12.0721","3.54498","27.305","1.602","7.49","0.528","4.772","0.05","0.52","30.5285","4.78121","18.04","0","SATNPRO1963","26.285999999999998","0.3682","5"],
    [2625,"HCEP03730564","2023-10-25 16:45:00","12.0878","3.54894","27.143","1.745","7.5","0.598","5.019","0.09","0.5","30.5535","4.7845","19.65","0","SATNPRO1963","26.276","0.36806","5"],
    [2626,"HCEP03730564","2023-10-25 17:00:00","12.0913","3.55043","27.01","1.827","7.5","0.536","4.857","0.08","0.58","30.5649","4.78606","20.58","0","SATNPRO1963","26.61","0.37268","5"],
    [2627,"HCEP03730564","2023-10-25 17:15:00","12.0937","3.55113","26.861","1.843","7.51","0.571","4.236","0.1","0.5","30.5698","4.7867","20.77","0","SATNPRO1963","27.132","0.38","5"],
    [2628,"HCEP03730564","2023-10-25 17:30:00","12.092","3.55091","26.714","1.825","7.51","0.519","4.552","0.08","0.36","30.5692","4.78663","20.56","0","SATNPRO1963","27.206","0.38108","5"],
    [2629,"HCEP03730564","2023-10-25 17:45:00","12.0892","3.55043","26.568","1.779","7.51","0.575","5.063","0.18","0.33","30.5669","4.78634","20.04","0","SATNPRO1963","28.2","0.39498","5"],
    [2630,"HCEP03730564","2023-10-25 18:00:00","12.094","3.55254","26.382","1.795","7.51","0.461","3.796","0.08","0.33","30.5832","4.78856","20.22","0","SATNPRO1963","28.596","0.40056","5"],
    [2631,"HCEP03730564","2023-10-25 18:15:00","12.0919","3.55293","26.205","1.749","7.51","0.486","4.553","0.05","0.37","30.5888","4.78937","19.71","0","SATNPRO1963","28.628","0.40098","5"],
    [2632,"HCEP03730564","2023-10-25 18:30:00","12.0954","3.55435","26.015","1.76","7.51","0.427","3.779","0.04","0.32","30.5995","4.79082","19.84","0","SATNPRO1963","28.496","0.39912","5"],
    [2633,"HCEP03730564","2023-10-25 18:45:00","12.1017","3.55591","25.868","1.853","7.51","0.467","3.877","0.05","0.59","30.6094","4.79212","20.89","0","SATNPRO1963","28.098","0.39352","5"],
    [2634,"HCEP03730564","2023-10-25 19:00:00","12.1025","3.55616","25.713","1.869","7.52","0.401","3.688","0.05","0.28","30.6111","4.79235","21.06","0","SATNPRO1963","28.556","0.39994","5"],
    [2635,"HCEP03730564","2023-10-25 19:15:00","12.0952","3.55469","25.582","1.787","7.51","0.525","5.01","0.07","0.84","30.603","4.7913","20.14","0","SATNPRO1963","28.386","0.39758","5"],
    [2636,"HCEP03730564","2023-10-25 19:30:00","12.0959","3.55535","25.478","1.701","7.51","0.439","3.743","0.06","0.14","30.6088","4.7921","19.17","0","SATNPRO1963","28.618","0.40086","5"],
    [2637,"HCEP03730564","2023-10-25 19:45:00","12.0948","3.55543","25.431","1.66","7.51","0.468","4.539","0.04","0.27","30.6106","4.79236","18.71","0","SATNPRO1963","29.256","0.4098","5"],
    [2638,"HCEP03730564","2023-10-25 20:00:00","12.0949","3.55557","25.4","1.636","7.5","0.467","4.953","0.05","0.34","30.6118","4.79254","18.44","0","SATNPRO1963","29.126","0.40796","5"],
    [2639,"HCEP03730564","2023-10-25 20:15:00","12.0965","3.55632","25.412","1.633","7.5","0.508","5.141","0.05","0.27","30.6177","4.79334","18.4","0","SATNPRO1963","28.518","0.39944","5"],
    [2640,"HCEP03730564","2023-10-25 20:30:00","12.0999","3.55714","25.413","1.67","7.5","0.455","4.694","0.07","0.3","30.6227","4.79399","18.82","0","SATNPRO1963","28.534","0.39966","5"],
    [2641,"HCEP03730564","2023-10-25 20:45:00","12.1014","3.55806","25.443","1.657","7.5","0.477","4.447","0.05","0.18","30.6303","4.79505","18.68","0","SATNPRO1963","28.07","0.39316","5"],
    [2642,"HCEP03730564","2023-10-25 21:00:00","12.1035","3.55825","25.457","1.674","7.5","0.458","4.754","0.05","0.17","30.6304","4.79503","18.87","0","SATNPRO1963","28.266","0.3959","5"],
    [2643,"HCEP03730564","2023-10-25 21:15:00","12.1056","3.55852","25.511","1.733","7.5","0.483","4.51","0.07","0.94","30.6312","4.79512","19.54","0","SATNPRO1963","27.98","0.39188","5"],
    [2644,"HCEP03730564","2023-10-25 21:30:00","12.1068","3.55876","25.59","1.753","7.51","0.456","4.433","0.07","0.25","30.6325","4.7953","19.76","0","SATNPRO1963","28.414","0.398","5"],
    [2645,"HCEP03730564","2023-10-25 21:45:00","12.1075","3.55906","25.663","1.755","7.51","0.501","5.111","0.06","0.32","30.6348","4.79561","19.79","0","SATNPRO1963","28.418","0.39806","5"],
    [2646,"HCEP03730564","2023-10-25 22:00:00","12.1076","3.55911","25.768","1.737","7.51","0.468","4.94","0.08","0.33","30.6351","4.79566","19.58","0","SATNPRO1963","28.358","0.39722","5"],
    [2647,"HCEP03730564","2023-10-25 22:15:00","12.11","3.55949","25.862","1.769","7.51","0.509","4.669","0.12","0.25","30.6368","4.79587","19.95","0","SATNPRO1963","28.758","0.4028","5"],
    [2648,"HCEP03730564","2023-10-25 22:30:00","12.1123","3.55933","25.968","1.813","7.51","0.415","4.3","0.06","0.31","30.6333","4.79536","20.44","0","SATNPRO1963","28.752","0.4027","5"],
    [2649,"HCEP03730564","2023-10-25 22:45:00","12.115","3.56073","26.061","1.845","7.51","0.468","5.013","0.04","0.3","30.6444","4.79688","20.8","0","SATNPRO1963","28.514","0.3994","5"],
    [2650,"HCEP03730564","2023-10-25 23:00:00","12.1166","3.56149","26.178","1.847","7.52","0.446","5.293","0.07","0.55","30.6503","4.79769","20.83","0","SATNPRO1963","28.668","0.40152","5"],
    [2651,"HCEP03730564","2023-10-25 23:15:00","12.117","3.56096","26.32","1.855","7.52","0.454","4.48","0.06","0.35","30.6448","4.79693","20.92","0","SATNPRO1963","28.54","0.39974","5"],
    [2652,"HCEP03730564","2023-10-25 23:30:00","12.1201","3.56157","26.449","1.899","7.52","0.429","4.251","0.06","0.32","30.6481","4.79736","21.41","0","SATNPRO1963","29.038","0.40676","5"],
    [2653,"HCEP03730564","2023-10-25 23:45:00","12.1251","3.56288","26.559","1.956","7.52","0.454","4.213","0.07","0.38","30.6565","4.79848","22.07","0","SATNPRO1963","28.946","0.40546","5"],
    [2654,"HCEP03730564","2023-10-26 00:00:00","12.1285","3.56443","26.677","1.967","7.53","0.444","4.706","0.08","0.28","30.6684","4.80012","22.19","0","SATNPRO1963","29.27","0.41","5"],
    [2655,"HCEP03730564","2023-10-26 00:15:00","12.1304","3.56511","26.829","1.962","7.53","0.474","4.77","0.1","0.29","30.6734","4.80081","22.13","0","SATNPRO1963","29.07","0.40718","5"],
    [2656,"HCEP03730564","2023-10-26 00:30:00","12.1283","3.56394","26.921","1.947","7.53","0.459","4.749","0.07","0.29","30.6639","4.7995","21.97","0","SATNPRO1963","29.526","0.41358","5"],
    [2657,"HCEP03730564","2023-10-26 00:45:00","12.1267","3.56351","27.046","1.928","7.53","0.476","4.674","0.05","0.26","30.661","4.79912","21.75","0","SATNPRO1963","29.652","0.4153","5"],
    [2658,"HCEP03730564","2023-10-26 01:00:00","12.1254","3.56297","27.113","1.913","7.53","0.436","4.681","0.06","0.22","30.6568","4.79855","21.58","0","SATNPRO1963","29.698","0.41594","5"],
    [2659,"HCEP03730564","2023-10-26 01:15:00","12.1235","3.56213","27.212","1.899","7.53","0.453","4.263","0.05","0.23","30.6504","4.79768","21.42","0","SATNPRO1963","29.594","0.4145","5"],
    [2660,"HCEP03730564","2023-10-26 01:30:00","12.1252","3.56287","27.301","1.901","7.53","0.437","4.46","0.07","0.28","30.656","4.79844","21.44","0","SATNPRO1963","29.41","0.41192","5"],
    [2661,"HCEP03730564","2023-10-26 01:45:00","12.1314","3.56537","27.35","1.938","7.53","0.428","4.091","0.03","0.22","30.6748","4.80102","21.87","0","SATNPRO1963","29.503999999999998","0.41326","5"],
    [2662,"HCEP03730564","2023-10-26 02:00:00","12.1347","3.56691","27.381","1.97","7.53","0.394","4.047","0.04","0.15","30.6868","4.80266","22.23","0","SATNPRO1963","29.45","0.41248","5"],
    [2663,"HCEP03730564","2023-10-26 02:15:00","12.1366","3.56763","27.394","1.992","7.53","0.429","4.347","0.04","0.29","30.6921","4.80339","22.48","0","SATNPRO1963","29.248","0.40968","5"],
    [2664,"HCEP03730564","2023-10-26 02:30:00","12.138","3.56815","27.401","2","7.53","0.402","3.927","0.08","0.3","30.6959","4.8039","22.57","0","SATNPRO1963","29.218","0.4093","5"],
    [2665,"HCEP03730564","2023-10-26 02:45:00","12.1384","3.56843","27.386","2.006","7.54","0.416","3.793","0.06","0.29","30.6983","4.80423","22.64","0","SATNPRO1963","29.73","0.41644","5"],
    [2666,"HCEP03730564","2023-10-26 03:00:00","12.1383","3.56842","27.345","2.006","7.54","0.396","3.744","0.08","0.37","30.6983","4.80423","22.64","0","SATNPRO1963","30.148","0.42226","5"],
    [2667,"HCEP03730564","2023-10-26 03:15:00","12.1382","3.5684","27.28","1.997","7.54","0.398","3.891","0.05","0.35","30.6982","4.80421","22.54","0","SATNPRO1963","30.134","0.42206","5"],
    [2668,"HCEP03730564","2023-10-26 03:30:00","12.1383","3.56834","27.203","1.996","7.54","0.373","3.801","0.05","0.62","30.6976","4.80413","22.52","0","SATNPRO1963","30.282","0.42412","5"],
    [2669,"HCEP03730564","2023-10-26 03:45:00","12.1385","3.56832","27.101","1.998","7.54","0.429","3.806","0.09","0.28","30.6972","4.80407","22.54","0","SATNPRO1963","30.412","0.42596","5"],
    [2670,"HCEP03730564","2023-10-26 04:00:00","12.1384","3.56825","26.984","2.003","7.54","0.463","3.653","0.24","0.22","30.6967","4.80398","22.61","0","SATNPRO1963","30.322","0.42474","5"],
    [2671,"HCEP03730564","2023-10-26 04:15:00","12.1375","3.56802","26.856","1.991","7.54","0.361","3.595","0.03","0.35","30.6953","4.8038","22.47","0","SATNPRO1963","30.232","0.42348","5"],
    [2672,"HCEP03730564","2023-10-26 04:30:00","12.1378","3.56802","26.717","1.988","7.54","0.353","3.416","0.05","0.19","30.6952","4.80377","22.44","0","SATNPRO1963","30.188","0.4228","5"],
    [2673,"HCEP03730564","2023-10-26 04:45:00","12.1384","3.56827","26.575","2.008","7.54","0.391","2.953","0.06","0.29","30.697","4.80401","22.66","0","SATNPRO1963","30.322","0.42472","5"],
    [2674,"HCEP03730564","2023-10-26 05:00:00","12.1368","3.56761","26.438","2.002","7.54","0.356","2.969","0.05","0.19","30.6922","4.80334","22.59","0","SATNPRO1963","30.066000000000003","0.42112","5"],
    [2675,"HCEP03730564","2023-10-26 05:15:00","12.1387","3.56829","26.288","2.006","7.54","0.386","2.974","0.06","0.16","30.6971","4.804","22.64","0","SATNPRO1963","30.052","0.42094","5"],
    [2676,"HCEP03730564","2023-10-26 05:30:00","12.1387","3.56845","26.128","1.997","7.54","0.36","3.274","0.05","0.24","30.6987","4.80422","22.53","0","SATNPRO1963","30.168","0.42256","5"],
    [2677,"HCEP03730564","2023-10-26 05:45:00","12.1385","3.56845","25.98","1.993","7.54","0.412","3.448","0.06","0.24","30.6989","4.80425","22.5","0","SATNPRO1963","30.44","0.42638","5"],
    [2678,"HCEP03730564","2023-10-26 06:00:00","12.1377","3.5684","25.828","1.976","7.54","0.383","3.738","0.11","0.28","30.6992","4.80428","22.3","0","SATNPRO1963","30.36","0.42524","5"],
    [2679,"HCEP03730564","2023-10-26 06:15:00","12.1375","3.56846","25.661","1.959","7.53","0.407","4.218","0.06","0.83","30.7","4.80439","22.11","0","SATNPRO1963","30.482","0.42696","5"],
    [2680,"HCEP03730564","2023-10-26 06:30:00","12.1381","3.56863","25.515","1.967","7.53","0.369","3.804","0.07","0.23","30.7011","4.80453","22.2","0","SATNPRO1963","30.342","0.42502","5"],
    [2681,"HCEP03730564","2023-10-26 06:45:00","12.1377","3.56848","25.393","1.968","7.53","0.435","4.249","0.06","0.58","30.7001","4.80439","22.21","0","SATNPRO1963","30.368","0.42534","5"],
    [2682,"HCEP03730564","2023-10-26 07:00:00","12.1375","3.5684","25.253","1.963","7.53","0.403","4.678","0.05","0.51","30.6996","4.80431","22.16","0","SATNPRO1963","30.064","0.42108","5"],
    [2683,"HCEP03730564","2023-10-26 07:15:00","12.1369","3.56827","25.13","1.955","7.53","0.438","4.401","0.04","0.37","30.6989","4.80422","22.06","0","SATNPRO1963","29.958","0.41962","5"],
    [2684,"HCEP03730564","2023-10-26 07:30:00","12.1374","3.56845","25.04","1.954","7.53","0.395","4.574","0.05","0.29","30.7002","4.80439","22.05","0","SATNPRO1963","30.201999999999998","0.42302","5"],
    [2685,"HCEP03730564","2023-10-26 07:45:00","12.1378","3.56858","24.986","1.949","7.53","0.447","4.633","0.05","0.25","30.7011","4.80451","22","0","SATNPRO1963","30.28","0.42414","5"],
    [2686,"HCEP03730564","2023-10-26 08:00:00","12.1376","3.56858","24.933","1.956","7.53","0.392","4.261","0.04","0.3","30.7013","4.80454","22.08","0","SATNPRO1963","30.038","0.42072","5"],
    [2687,"HCEP03730564","2023-10-26 08:15:00","12.138","3.56855","24.955","1.957","7.53","0.423","4.006","0.04","0.13","30.7006","4.80443","22.08","0","SATNPRO1963","30.19","0.4229","5"],
    [2688,"HCEP03730564","2023-10-26 08:30:00","12.1376","3.56831","24.962","1.96","7.53","0.387","4.063","0.03","0.19","30.6987","4.80417","22.12","0","SATNPRO1963","30.238","0.4235","5"],
    [2689,"HCEP03730564","2023-10-26 08:45:00","12.1373","3.56791","24.97","1.981","7.54","0.399","3.561","0.03","0.16","30.6951","4.80367","22.36","0","SATNPRO1963","30.194","0.4229","5"],
    [2690,"HCEP03730564","2023-10-26 09:00:00","12.1377","3.56766","25.057","2.022","7.54","0.347","3.006","0.03","0.11","30.6924","4.80328","22.82","0","SATNPRO1963","30.106","0.42172","5"],
    [2691,"HCEP03730564","2023-10-26 09:15:00","12.138","3.56822","25.144","2.012","7.54","0.394","3.224","0.03","0.16","30.6975","4.804","22.71","0","SATNPRO1963","30.074","0.42124","5"],
    [2692,"HCEP03730564","2023-10-26 09:30:00","12.1385","3.56816","25.254","2.003","7.54","0.376","3.341","0.03","0.16","30.6964","4.80385","22.61","0","SATNPRO1963","30.22","0.4233","5"],
    [2693,"HCEP03730564","2023-10-26 09:45:00","12.1382","3.56829","25.368","1.99","7.54","0.415","3.617","0.03","0.14","30.6978","4.80406","22.46","0","SATNPRO1963","30.36","0.42524","5"],
    [2694,"HCEP03730564","2023-10-26 10:00:00","12.1382","3.56836","25.514","1.977","7.54","0.373","3.431","0.03","0.14","30.6985","4.80416","22.31","0","SATNPRO1963","30.54","0.42776","5"],
    [2695,"HCEP03730564","2023-10-26 10:15:00","12.138","3.56841","25.645","1.973","7.54","0.398","3.443","0.03","0.15","30.6991","4.80426","22.27","0","SATNPRO1963","30.492","0.4271","5"],
    [2696,"HCEP03730564","2023-10-26 10:30:00","12.1382","3.56839","25.815","1.971","7.54","0.395","3.387","0.05","0.2","30.6987","4.80421","22.25","0","SATNPRO1963","30.308","0.42452","5"],
    [2697,"HCEP03730564","2023-10-26 10:45:00","12.1378","3.56849","25.987","1.958","7.53","0.416","3.557","0.03","0.19","30.6998","4.80438","22.1","0","SATNPRO1963","30.2","0.42302","5"],
    [2698,"HCEP03730564","2023-10-26 11:00:00","12.1373","3.56852","26.133","1.939","7.53","0.394","3.688","0.05","0.2","30.7005","4.80449","21.89","0","SATNPRO1963","30.374","0.42544","5"],
    [2699,"HCEP03730564","2023-10-26 11:15:00","12.1376","3.56848","26.315","1.93","7.53","0.42","3.687","0.05","0.28","30.6998","4.8044","21.79","0","SATNPRO1963","30.48","0.42692","5"],
    [2700,"HCEP03730564","2023-10-26 11:30:00","12.1376","3.5685","26.487","1.922","7.53","0.4","3.606","0.06","0.21","30.6999","4.80443","21.69","0","SATNPRO1963","30.438","0.4263","5"],
    [2701,"HCEP03730564","2023-10-26 11:45:00","12.1374","3.56858","26.678","1.909","7.53","0.437","3.864","0.07","0.35","30.7008","4.80456","21.55","0","SATNPRO1963","30.346","0.42506","5"],
    [2702,"HCEP03730564","2023-10-26 12:00:00","12.1377","3.56872","26.856","1.913","7.53","0.41","3.719","0.04","0.34","30.7018","4.80471","21.6","0","SATNPRO1963","29.882","0.41856","5"],
    [2703,"HCEP03730564","2023-10-26 12:15:00","12.1374","3.56875","27.05","1.895","7.53","0.461","4.192","0.06","0.34","30.7023","4.80479","21.39","0","SATNPRO1963","30.036","0.4207","5"],
    [2704,"HCEP03730564","2023-10-26 12:30:00","12.137","3.56873","27.229","1.884","7.53","0.383","3.706","0.05","0.34","30.7023","4.80481","21.26","0","SATNPRO1963","30.036","0.42072","5"],
    [2705,"HCEP03730564","2023-10-26 12:45:00","12.1361","3.56868","27.423","1.847","7.53","0.461","4.265","0.04","0.27","30.7026","4.80487","20.84","0","SATNPRO1963","30.032","0.42064","5"],
    [2706,"HCEP03730564","2023-10-26 13:00:00","12.1363","3.56876","27.593","1.833","7.52","0.395","4.142","0.04","0.2","30.7031","4.80495","20.69","0","SATNPRO1963","30.163999999999998","0.42252","5"],
    [2707,"HCEP03730564","2023-10-26 13:15:00","12.1372","3.56882","27.743","1.857","7.52","0.453","4.046","0.06","0.24","30.7029","4.80492","20.96","0","SATNPRO1963","29.994","0.42012","5"],
    [2708,"HCEP03730564","2023-10-26 13:30:00","12.1373","3.56884","27.875","1.872","7.53","0.429","3.794","0.08","0.34","30.7029","4.80493","21.13","0","SATNPRO1963","30.142","0.42218","5"],
    [2709,"HCEP03730564","2023-10-26 13:45:00","12.1365","3.56885","27.994","1.854","7.52","0.418","3.983","0.05","0.3","30.7036","4.80505","20.92","0","SATNPRO1963","29.811999999999998","0.41758","5"],
    [2710,"HCEP03730564","2023-10-26 14:00:00","12.1362","3.56892","28.082","1.827","7.52","0.43","4.181","0.07","0.27","30.7045","4.80517","20.62","0","SATNPRO1963","30.016","0.42044","5"],
    [2711,"HCEP03730564","2023-10-26 14:15:00","12.1366","3.56901","28.128","1.821","7.52","0.445","4.36","0.05","0.39","30.705","4.80524","20.56","0","SATNPRO1963","30.073999999999998","0.42126","5"],
    [2712,"HCEP03730564","2023-10-26 14:30:00","12.1356","3.56899","28.136","1.8","7.52","0.457","4.069","0.1","0.3","30.7056","4.80535","20.32","0","SATNPRO1963","30.15","0.42232","5"],
    [2713,"HCEP03730564","2023-10-26 14:45:00","12.1351","3.56893","28.129","1.774","7.52","0.506","5.328","0.06","0.98","30.7055","4.80534","20.02","0","SATNPRO1963","30.064","0.42108","5"],
    [2714,"HCEP03730564","2023-10-26 15:00:00","12.1378","3.56953","28.107","1.801","7.52","0.451","4.323","0.07","0.28","30.709","4.80579","20.33","0","SATNPRO1963","29.686","0.41578","5"],
    [2715,"HCEP03730564","2023-10-26 15:15:00","12.1374","3.56957","28.049","1.818","7.52","0.446","4.455","0.08","0.64","30.7097","4.80589","20.52","0","SATNPRO1963","29.758","0.41682","5"],
    [2716,"HCEP03730564","2023-10-26 15:30:00","12.1399","3.56985","27.989","1.872","7.52","0.394","3.776","0.05","0.46","30.7104","4.80595","21.13","0","SATNPRO1963","29.701999999999998","0.41604","5"],
    [2717,"HCEP03730564","2023-10-26 15:45:00","12.1398","3.56985","27.898","1.862","7.52","0.447","3.705","0.07","0.3","30.7105","4.80596","21.01","0","SATNPRO1963","29.727999999999998","0.41646","5"],
    [2718,"HCEP03730564","2023-10-26 16:00:00","12.141","3.56998","27.794","1.882","7.52","0.4","3.729","0.04","0.37","30.7108","4.80598","21.24","0","SATNPRO1963","29.614","0.41482","5"],
    [2719,"HCEP03730564","2023-10-26 16:15:00","12.1407","3.56992","27.676","1.88","7.53","0.45","3.743","0.08","0.28","30.7106","4.80595","21.22","0","SATNPRO1963","30.112000000000002","0.42176","5"],
    [2720,"HCEP03730564","2023-10-26 16:30:00","12.1399","3.5698","27.553","1.868","7.53","0.392","3.677","0.05","0.42","30.7101","4.80588","21.09","0","SATNPRO1963","30.102","0.42162","5"],
    [2721,"HCEP03730564","2023-10-26 16:45:00","12.1388","3.56962","27.404","1.837","7.53","0.402","3.529","0.05","0.3","30.7093","4.80578","20.73","0","SATNPRO1963","30.291999999999998","0.42428","5"],
    [2722,"HCEP03730564","2023-10-26 17:00:00","12.1372","3.56935","27.251","1.792","7.52","0.389","3.854","0.04","0.26","30.7081","4.80563","20.22","0","SATNPRO1963","30.14","0.42216","5"],
    [2723,"HCEP03730564","2023-10-26 17:15:00","12.1363","3.56918","27.099","1.777","7.52","0.41","3.768","0.06","0.2","30.7073","4.80552","20.06","0","SATNPRO1963","30.328","0.4248","5"],
    [2724,"HCEP03730564","2023-10-26 17:30:00","12.1367","3.56923","26.944","1.793","7.52","6.843","62.613","8.66","25.24","30.7075","4.80554","20.24","0","SATNPRO1963","30.216","0.4232","5"],
    [2725,"HCEP03730564","2023-10-26 17:45:00","12.1369","3.56919","26.769","1.794","7.52","0.403","3.439","0.06","0.18","30.707","4.80545","20.25","0","SATNPRO1963","29.908","0.41888","5"],
    [2726,"HCEP03730564","2023-10-26 18:00:00","12.1349","3.56891","26.597","1.76","7.52","0.361","3.708","0.04","0.19","30.7061","4.80534","19.87","0","SATNPRO1963","29.446","0.41242","5"],
    [2727,"HCEP03730564","2023-10-26 18:15:00","12.1362","3.56902","26.395","1.775","7.52","0.397","3.908","0.05","0.34","30.7062","4.80532","20.04","0","SATNPRO1963","29.52","0.41348","5"],
    [2728,"HCEP03730564","2023-10-26 18:30:00","12.1362","3.56898","26.195","1.788","7.52","0.332","3.46","0.04","0.27","30.7058","4.80526","20.18","0","SATNPRO1963","29.654","0.41538","5"],
    [2729,"HCEP03730564","2023-10-26 18:45:00","12.1352","3.56884","25.983","1.779","7.52","0.427","3.02","0.09","0.09","30.7054","4.8052","20.08","0","SATNPRO1963","29.784","0.4172","5"],
    [2730,"HCEP03730564","2023-10-26 19:00:00","12.1355","3.5688","25.772","1.776","7.52","0.368","3.524","0.06","0.23","30.7048","4.8051","20.04","0","SATNPRO1963","29.612","0.41476","5"],
    [2731,"HCEP03730564","2023-10-26 19:15:00","12.1369","3.56895","25.554","1.801","7.52","0.43","3.087","0.1","0.21","30.7053","4.80514","20.33","0","SATNPRO1963","29.483999999999998","0.41298","5"],
    [2732,"HCEP03730564","2023-10-26 19:30:00","12.1368","3.56891","25.347","1.814","7.52","0.335","3.094","0.04","0.15","30.705","4.80509","20.47","0","SATNPRO1963","29.708","0.41612","5"],
    [2733,"HCEP03730564","2023-10-26 19:45:00","12.137","3.5689","25.172","1.824","7.52","0.392","3.145","0.05","0.26","30.7048","4.80504","20.59","0","SATNPRO1963","29.912","0.41896","5"],
    [2734,"HCEP03730564","2023-10-26 20:00:00","12.137","3.56887","25.022","1.835","7.52","0.393","3.335","0.18","0.31","30.7046","4.80501","20.71","0","SATNPRO1963","29.436","0.4123","5"],
    [2735,"HCEP03730564","2023-10-26 20:15:00","12.1363","3.56871","24.906","1.82","7.52","0.401","3.715","0.05","0.26","30.7037","4.80488","20.54","0","SATNPRO1963","29.962","0.4197","5"],
    [2736,"HCEP03730564","2023-10-26 20:30:00","12.1348","3.56847","24.873","1.794","7.52","0.359","2.951","0.09","0.12","30.7026","4.80475","20.25","0","SATNPRO1963","29.785999999999998","0.41724","5"],
    [2737,"HCEP03730564","2023-10-26 20:45:00","12.1356","3.56846","24.853","1.809","7.52","0.438","3.063","0.13","0.2","30.7018","4.80463","20.42","0","SATNPRO1963","30.038","0.42074","5"],
    [2738,"HCEP03730564","2023-10-26 21:00:00","12.1355","3.56845","24.865","1.811","7.52","0.331","3.241","0.04","0.2","30.7018","4.80463","20.44","0","SATNPRO1963","29.95","0.41952","5"],
    [2739,"HCEP03730564","2023-10-26 21:15:00","12.1355","3.56845","24.864","1.81","7.52","0.367","3.442","0.05","0.11","30.7019","4.80464","20.43","0","SATNPRO1963","29.818","0.4176","5"],
    [2740,"HCEP03730564","2023-10-26 21:30:00","12.1355","3.56848","24.911","1.805","7.52","0.369","3.423","0.08","0.22","30.7021","4.80467","20.37","0","SATNPRO1963","29.994","0.42012","5"],
    [2741,"HCEP03730564","2023-10-26 21:45:00","12.1353","3.56844","24.956","1.809","7.52","0.385","3.355","0.05","0.21","30.7018","4.80464","20.41","0","SATNPRO1963","30.126","0.42194","5"],
    [2742,"HCEP03730564","2023-10-26 22:00:00","12.1359","3.56844","25.024","1.827","7.52","0.335","2.988","0.05","0.22","30.7014","4.80457","20.62","0","SATNPRO1963","30.136","0.4221","5"],
    [2743,"HCEP03730564","2023-10-26 22:15:00","12.1352","3.56846","25.109","1.807","7.52","0.391","3.719","0.04","0.23","30.7021","4.80468","20.39","0","SATNPRO1963","29.964","0.4197","5"],
    [2744,"HCEP03730564","2023-10-26 22:30:00","12.1339","3.56841","25.22","1.762","7.52","0.366","4.302","0.03","0.32","30.7026","4.80479","19.88","0","SATNPRO1963","29.954","0.41954","5"],
    [2745,"HCEP03730564","2023-10-26 22:45:00","12.1367","3.56859","25.332","1.816","7.52","0.387","3.817","0.04","0.35","30.702","4.80466","20.5","0","SATNPRO1963","29.918","0.41904","5"],
    [2746,"HCEP03730564","2023-10-26 23:00:00","12.1347","3.56841","25.479","1.801","7.52","0.373","4.147","0.05","0.24","30.7019","4.80468","20.33","0","SATNPRO1963","30.088","0.42146","5"],
    [2747,"HCEP03730564","2023-10-26 23:15:00","12.1336","3.56791","25.635","1.791","7.52","0.401","3.87","0.05","0.19","30.6979","4.80415","20.22","0","SATNPRO1963","29.584","0.41436","5"],
    [2748,"HCEP03730564","2023-10-26 23:30:00","12.1311","3.56743","25.798","1.729","7.51","0.416","4.389","0.07","0.2","30.6954","4.80384","19.51","0","SATNPRO1963","29.564","0.41408","5"],
    [2749,"HCEP03730564","2023-10-26 23:45:00","12.1292","3.56695","25.949","1.693","7.51","0.458","4.698","0.05","0.19","30.6922","4.80342","19.1","0","SATNPRO1963","29.808","0.41752","5"],
    [2750,"HCEP03730564","2023-10-27 00:00:00","12.1284","3.56659","26.09","1.689","7.51","0.388","4.628","0.04","0.22","30.6894","4.80305","19.06","0","SATNPRO1963","29.964","0.4197","5"],
    [2751,"HCEP03730564","2023-10-27 00:15:00","12.1282","3.56652","26.246","1.684","7.51","0.427","4.751","0.04","0.23","30.6888","4.80298","19","0","SATNPRO1963","29.733999999999998","0.4165","5"],
    [2752,"HCEP03730564","2023-10-27 00:30:00","12.1279","3.56616","26.408","1.688","7.51","0.4","4.389","0.06","0.35","30.6856","4.80253","19.05","0","SATNPRO1963","29.352","0.4111","5"],
    [2753,"HCEP03730564","2023-10-27 00:45:00","12.127","3.56609","26.598","1.678","7.51","0.449","4.773","0.06","0.22","30.6855","4.80255","18.93","0","SATNPRO1963","29.13","0.408","5"],
    [2754,"HCEP03730564","2023-10-27 01:00:00","12.1256","3.56568","26.783","1.652","7.5","0.421","4.743","0.04","0.2","30.6828","4.80219","18.63","0","SATNPRO1963","29.32","0.41066","5"],
    [2755,"HCEP03730564","2023-10-27 01:15:00","12.1248","3.56562","26.905","1.627","7.5","0.466","4.839","0.05","0.26","30.6828","4.8022","18.35","0","SATNPRO1963","29.158","0.40842","5"],
    [2756,"HCEP03730564","2023-10-27 01:30:00","12.125","3.56576","27.051","1.607","7.5","0.433","4.644","0.07","0.18","30.6839","4.80237","18.14","0","SATNPRO1963","28.876","0.40448","5"],
    [2757,"HCEP03730564","2023-10-27 01:45:00","12.1256","3.56604","27.2","1.596","7.5","0.451","4.742","0.05","0.23","30.686","4.80267","18.01","0","SATNPRO1963","28.844","0.40398","5"],
    [2758,"HCEP03730564","2023-10-27 02:00:00","12.1258","3.56628","27.317","1.587","7.5","0.42","4.783","0.04","0.27","30.6881","4.80297","17.91","0","SATNPRO1963","28.78","0.4031","5"],
    [2759,"HCEP03730564","2023-10-27 02:15:00","12.1268","3.56648","27.419","1.594","7.5","0.449","4.636","0.04","0.25","30.6891","4.8031","17.99","0","SATNPRO1963","28.656","0.40138","5"],
    [2760,"HCEP03730564","2023-10-27 02:30:00","12.1292","3.56724","27.499","1.613","7.5","9.822","286.744","1.73","37.48","30.6944","4.80382","18.2","0","SATNPRO1963","28.546","0.39984","5"],
    [2761,"HCEP03730564","2023-10-27 02:45:00","12.1297","3.56741","27.57","1.63","7.5","0.42","4.415","0.04","0.24","30.6957","4.80399","18.39","0","SATNPRO1963","28.586","0.40042","5"],
    [2762,"HCEP03730564","2023-10-27 03:00:00","12.1286","3.56706","27.587","1.63","7.5","0.39","4.925","0.06","0.38","30.6932","4.80365","18.4","0","SATNPRO1963","28.27","0.39598","5"],
    [2763,"HCEP03730564","2023-10-27 03:15:00","12.1329","3.56807","27.61","1.664","7.5","0.389","3.689","0.04","0.2","30.6993","4.80447","18.78","0","SATNPRO1963","28.706","0.40208","5"],
    [2764,"HCEP03730564","2023-10-27 03:30:00","12.1296","3.56722","27.579","1.675","7.5","0.404","4.422","0.07","0.28","30.6938","4.80374","18.9","0","SATNPRO1963","28.566","0.40012","5"],
    [2765,"HCEP03730564","2023-10-27 03:45:00","12.1294","3.56719","27.546","1.689","7.5","0.412","4.346","0.04","0.22","30.6937","4.80372","19.06","0","SATNPRO1963","28.932","0.40522","5"],
    [2766,"HCEP03730564","2023-10-27 04:00:00","12.1311","3.56757","27.487","1.686","7.5","0.385","4.632","0.03","0.25","30.696","4.80401","19.03","0","SATNPRO1963","28.87","0.40436","5"],
    [2767,"HCEP03730564","2023-10-27 04:15:00","12.131","3.56763","27.411","1.683","7.51","0.405","5.431","0.04","0.46","30.6967","4.80412","18.99","0","SATNPRO1963","29.118","0.40784","5"],
    [2768,"HCEP03730564","2023-10-27 04:30:00","12.1316","3.56794","27.314","1.685","7.51","4.353","60.51","3.64","26.72","30.6992","4.80445","19.02","0","SATNPRO1963","28.946","0.40546","5"],
    [2769,"HCEP03730564","2023-10-27 04:45:00","12.1325","3.56827","27.208","1.696","7.51","0.406","4.314","0.08","0.62","30.7016","4.80477","19.13","0","SATNPRO1963","29.136","0.40812","5"],
    [2770,"HCEP03730564","2023-10-27 05:00:00","12.1332","3.56841","27.123","1.695","7.51","0.383","4.654","0.07","0.64","30.7024","4.80487","19.12","0","SATNPRO1963","29.326","0.41076","5"],
    [2771,"HCEP03730564","2023-10-27 05:15:00","12.133","3.56846","27.011","1.697","7.51","0.408","4.38","0.04","0.19","30.7032","4.80498","19.16","0","SATNPRO1963","29.038","0.40674","5"],
    [2772,"HCEP03730564","2023-10-27 05:30:00","12.1347","3.56878","26.87","1.713","7.51","0.356","4.142","0.04","0.15","30.7049","4.80519","19.34","0","SATNPRO1963","29.172","0.40862","5"],
    [2773,"HCEP03730564","2023-10-27 05:45:00","12.1358","3.56901","26.755","1.727","7.51","0.381","3.68","0.03","0.19","30.7062","4.80535","19.49","0","SATNPRO1963","29.326","0.41078","5"],
    [2774,"HCEP03730564","2023-10-27 06:00:00","12.1361","3.56913","26.625","1.742","7.51","0.359","3.723","0.07","0.21","30.7072","4.80548","19.66","0","SATNPRO1963","29.39","0.41164","5"],
    [2775,"HCEP03730564","2023-10-27 06:15:00","12.1361","3.56907","26.499","1.738","7.51","1.965","53.564","1.14","33.26","30.7067","4.80539","19.62","0","SATNPRO1963","29.546","0.41386","5"],
    [2776,"HCEP03730564","2023-10-27 06:30:00","12.1352","3.56894","26.353","1.723","7.51","0.36","3.934","0.05","0.19","30.7062","4.80534","19.45","0","SATNPRO1963","29.406","0.41184","5"],
    [2777,"HCEP03730564","2023-10-27 06:45:00","12.1359","3.56902","26.22","1.726","7.51","0.397","4.145","0.04","0.39","30.7064","4.80535","19.48","0","SATNPRO1963","29.492","0.41308","5"],
    [2778,"HCEP03730564","2023-10-27 07:00:00","12.1354","3.56897","26.077","1.721","7.51","0.466","5.124","0.11","0.95","30.7064","4.80534","19.43","0","SATNPRO1963","29.504","0.41326","5"],
    [2779,"HCEP03730564","2023-10-27 07:15:00","12.1356","3.56892","25.918","1.72","7.51","0.429","4.396","0.06","0.67","30.7059","4.80526","19.41","0","SATNPRO1963","29.536","0.41372","5"],
    [2780,"HCEP03730564","2023-10-27 07:30:00","12.1355","3.56887","25.76","1.723","7.51","0.426","4.603","0.08","0.93","30.7055","4.8052","19.44","0","SATNPRO1963","29.372","0.41138","5"],
    [2781,"HCEP03730564","2023-10-27 07:45:00","12.1359","3.56891","25.599","1.721","7.51","0.429","4.672","0.06","0.88","30.7056","4.8052","19.43","0","SATNPRO1963","29.476","0.41284","5"],
    [2782,"HCEP03730564","2023-10-27 08:00:00","12.1359","3.56898","25.46","1.72","7.51","0.408","4.641","0.05","0.95","30.7064","4.8053","19.41","0","SATNPRO1963","29.324","0.4107","5"],
    [2783,"HCEP03730564","2023-10-27 08:15:00","12.1363","3.56904","25.331","1.726","7.51","0.438","4.7","0.05","0.85","30.7067","4.80533","19.48","0","SATNPRO1963","29.538","0.41372","5"],
    [2784,"HCEP03730564","2023-10-27 08:30:00","12.1363","3.56905","25.239","1.724","7.51","0.418","4.645","0.1","0.95","30.7068","4.80534","19.46","0","SATNPRO1963","29.568","0.41416","5"],
    [2785,"HCEP03730564","2023-10-27 08:45:00","12.1365","3.56911","25.189","1.727","7.51","0.416","4.332","0.06","0.51","30.7072","4.80539","19.49","0","SATNPRO1963","29.65","0.41526","5"],
    [2786,"HCEP03730564","2023-10-27 09:00:00","12.1372","3.5691","25.177","1.738","7.51","0.429","5.222","0.05","0.76","30.7065","4.80529","19.62","0","SATNPRO1963","29.65","0.4153","5"],
    [2787,"HCEP03730564","2023-10-27 09:15:00","12.1388","3.56955","25.22","1.764","7.51","0.414","5.904","0.04","0.69","30.7095","4.80569","19.91","0","SATNPRO1963","29.548","0.41388","5"],
    [2788,"HCEP03730564","2023-10-27 09:30:00","12.1396","3.56954","25.273","1.787","7.52","0.364","3.645","0.04","0.23","30.7087","4.80557","20.17","0","SATNPRO1963","29.34","0.41094","5"],
    [2789,"HCEP03730564","2023-10-27 09:45:00","12.1407","3.56989","25.357","1.809","7.52","0.411","3.805","0.05","0.33","30.7112","4.8059","20.42","0","SATNPRO1963","29.46","0.41262","5"],
    [2790,"HCEP03730564","2023-10-27 10:00:00","12.1414","3.56999","25.429","1.813","7.52","0.378","3.908","0.06","0.39","30.7115","4.80594","20.47","0","SATNPRO1963","29.606","0.41468","5"],
    [2791,"HCEP03730564","2023-10-27 10:15:00","12.1423","3.5702","25.543","1.824","7.52","0.408","3.858","0.04","0.26","30.7127","4.80611","20.59","0","SATNPRO1963","29.688","0.41586","5"],
    [2792,"HCEP03730564","2023-10-27 10:30:00","12.142","3.57011","25.661","1.822","7.52","0.36","3.612","0.03","0.16","30.712","4.80603","20.56","0","SATNPRO1963","29.85","0.41808","5"],
    [2793,"HCEP03730564","2023-10-27 10:45:00","12.1423","3.57024","25.772","1.827","7.52","0.416","3.75","0.04","0.18","30.713","4.80616","20.62","0","SATNPRO1963","29.962","0.41964","5"],
    [2794,"HCEP03730564","2023-10-27 11:00:00","12.1434","3.57053","25.923","1.839","7.52","0.372","3.736","0.03","0.18","30.7148","4.80641","20.76","0","SATNPRO1963","30.073999999999998","0.42122","5"],
    [2795,"HCEP03730564","2023-10-27 11:15:00","12.1439","3.57067","26.075","1.835","7.52","0.394","3.714","0.03","0.24","30.7157","4.80654","20.71","0","SATNPRO1963","30.186","0.42282","5"],
    [2796,"HCEP03730564","2023-10-27 11:30:00","12.1449","3.57081","26.232","1.846","7.52","0.363","3.602","0.04","0.2","30.7162","4.8066","20.84","0","SATNPRO1963","30.034","0.42068","5"],
    [2797,"HCEP03730564","2023-10-27 11:45:00","12.1432","3.5706","26.415","1.842","7.52","0.388","3.876","0.03","0.29","30.7155","4.80654","20.79","0","SATNPRO1963","30.394","0.42574","5"],
    [2798,"HCEP03730564","2023-10-27 12:00:00","12.1427","3.5705","26.588","1.823","7.52","0.36","3.824","0.03","0.2","30.7149","4.80647","20.58","0","SATNPRO1963","30.426","0.42616","5"],
    [2799,"HCEP03730564","2023-10-27 12:15:00","12.1426","3.57043","26.741","1.828","7.52","0.397","3.86","0.04","0.2","30.7141","4.80637","20.64","0","SATNPRO1963","30.462","0.42668","5"],
    [2800,"HCEP03730564","2023-10-27 12:30:00","12.1416","3.57028","26.903","1.801","7.52","0.366","3.748","0.04","0.14","30.7135","4.80631","20.33","0","SATNPRO1963","30.412","0.42596","5"],
    [2801,"HCEP03730564","2023-10-27 12:45:00","12.1408","3.57015","27.069","1.767","7.52","0.388","3.818","0.04","0.17","30.7129","4.80624","19.95","0","SATNPRO1963","30.558","0.42804","5"],
    [2802,"HCEP03730564","2023-10-27 13:00:00","12.1398","3.57003","27.243","1.745","7.52","0.369","4.176","0.04","0.21","30.7125","4.80621","19.7","0","SATNPRO1963","30.502","0.42724","5"],
    [2803,"HCEP03730564","2023-10-27 13:15:00","12.1394","3.56998","27.438","1.735","7.51","0.391","3.94","0.04","0.2","30.7123","4.80619","19.59","0","SATNPRO1963","30.322","0.4247","5"],
    [2804,"HCEP03730564","2023-10-27 13:30:00","12.1392","3.56992","27.605","1.73","7.51","0.371","4.142","0.04","0.23","30.7118","4.80613","19.53","0","SATNPRO1963","30.04","0.42076","5"],
    [2805,"HCEP03730564","2023-10-27 13:45:00","12.1396","3.56989","27.765","1.739","7.51","0.402","4.13","0.05","0.31","30.7111","4.80604","19.63","0","SATNPRO1963","30.244","0.4236","5"],
    [2806,"HCEP03730564","2023-10-27 14:00:00","12.1388","3.56973","27.905","1.734","7.51","0.38","4.152","0.03","0.28","30.7101","4.80592","19.57","0","SATNPRO1963","29.86","0.41824","5"],
    [2807,"HCEP03730564","2023-10-27 14:15:00","12.1372","3.56948","28.013","1.708","7.51","0.421","4.136","0.05","0.16","30.709","4.8058","19.28","0","SATNPRO1963","30.078","0.42132","5"],
    [2808,"HCEP03730564","2023-10-27 14:30:00","12.1369","3.56935","28.106","1.697","7.51","0.375","4.127","0.04","0.24","30.708","4.80566","19.16","0","SATNPRO1963","29.942","0.41934","5"],
    [2809,"HCEP03730564","2023-10-27 14:45:00","12.1361","3.56923","28.161","1.678","7.51","0.421","4.367","0.05","0.46","30.7076","4.80562","18.94","0","SATNPRO1963","29.832","0.41788","5"],
    [2810,"HCEP03730564","2023-10-27 15:00:00","12.1363","3.56929","28.191","1.677","7.51","0.374","3.95","0.05","0.24","30.7079","4.80566","18.92","0","SATNPRO1963","30.088","0.42142","5"],
    [2811,"HCEP03730564","2023-10-27 15:15:00","12.1365","3.56935","28.175","1.679","7.51","0.403","4.008","0.05","0.23","30.7084","4.80572","18.95","0","SATNPRO1963","29.774","0.41702","5"],
    [2812,"HCEP03730564","2023-10-27 15:30:00","12.1373","3.56951","28.132","1.692","7.51","0.382","4.002","0.05","0.23","30.7092","4.80582","19.1","0","SATNPRO1963","29.566","0.41414","5"],
    [2813,"HCEP03730564","2023-10-27 15:45:00","12.1373","3.56968","28.082","1.684","7.51","0.468","4.831","0.07","0.64","30.7108","4.80605","19","0","SATNPRO1963","29.696","0.41594","5"],
    [2814,"HCEP03730564","2023-10-27 16:00:00","12.1365","3.56962","28.016","1.656","7.51","0.425","4.693","0.13","0.72","30.7109","4.80607","18.69","0","SATNPRO1963","29.48","0.41292","5"],
    [2815,"HCEP03730564","2023-10-27 16:15:00","12.1367","3.56964","27.907","1.635","7.51","0.421","4.115","0.07","0.38","30.7111","4.80609","18.45","0","SATNPRO1963","29.788","0.41722","5"],
    [2816,"HCEP03730564","2023-10-27 16:30:00","12.1365","3.56967","27.798","1.63","7.5","0.402","4.317","0.05","0.38","30.7115","4.80614","18.4","0","SATNPRO1963","29.698","0.416","5"],
    [2817,"HCEP03730564","2023-10-27 16:45:00","12.1374","3.56981","27.667","1.634","7.5","0.428","4.041","0.06","0.35","30.7121","4.80621","18.44","0","SATNPRO1963","29.672","0.41562","5"],
    [2818,"HCEP03730564","2023-10-27 17:00:00","12.1376","3.56986","27.528","1.647","7.5","0.355","3.751","0.03","0.19","30.7126","4.80626","18.59","0","SATNPRO1963","29.532","0.41368","5"],
    [2819,"HCEP03730564","2023-10-27 17:15:00","12.1371","3.5698","27.368","1.638","7.5","0.388","3.593","0.04","0.13","30.7124","4.80624","18.49","0","SATNPRO1963","29.296","0.41032","5"],
    [2820,"HCEP03730564","2023-10-27 17:30:00","12.1376","3.56985","27.207","1.642","7.5","0.354","3.851","0.04","0.18","30.7126","4.80625","18.53","0","SATNPRO1963","29.22","0.40932","5"],
    [2821,"HCEP03730564","2023-10-27 17:45:00","12.1377","3.56978","27.041","1.661","7.51","0.363","3.324","0.04","0.15","30.7119","4.80614","18.75","0","SATNPRO1963","29.722","0.4163","5"],
    [2822,"HCEP03730564","2023-10-27 18:00:00","12.1373","3.56961","26.847","1.671","7.51","0.378","3.537","0.07","0.17","30.7106","4.80596","18.86","0","SATNPRO1963","29.496","0.41314","5"],
    [2823,"HCEP03730564","2023-10-27 18:15:00","12.1387","3.5697","26.662","1.715","7.51","0.376","3.342","0.04","0.23","30.7105","4.80591","19.36","0","SATNPRO1963","29.558","0.41406","5"],
    [2824,"HCEP03730564","2023-10-27 18:30:00","12.1384","3.56954","26.478","1.733","7.51","0.34","3.105","0.06","0.41","30.7093","4.80573","19.56","0","SATNPRO1963","29.606","0.41468","5"],
    [2825,"HCEP03730564","2023-10-27 18:45:00","12.1379","3.56941","26.229","1.729","7.51","0.351","3.003","0.03","0.14","30.7085","4.80562","19.52","0","SATNPRO1963","29.538","0.41374","5"],
    [2826,"HCEP03730564","2023-10-27 19:00:00","12.138","3.56956","26.007","1.722","7.51","0.313","3.139","0.03","0.11","30.7099","4.8058","19.44","0","SATNPRO1963","29.74","0.41656","5"],
    [2827,"HCEP03730564","2023-10-27 19:15:00","12.1376","3.56951","25.776","1.712","7.51","0.363","2.988","0.03","0.08","30.7099","4.80579","19.32","0","SATNPRO1963","30.084","0.42136","5"],
    [2828,"HCEP03730564","2023-10-27 19:30:00","12.1378","3.56958","25.543","1.708","7.51","0.325","3.151","0.04","0.1","30.7105","4.80586","19.28","0","SATNPRO1963","30.294","0.42432","5"],
    [2829,"HCEP03730564","2023-10-27 19:45:00","12.1382","3.56962","25.295","1.711","7.51","0.348","3.016","0.02","0.14","30.7107","4.80586","19.31","0","SATNPRO1963","30.24","0.42358","5"],
    [2830,"HCEP03730564","2023-10-27 20:00:00","12.1382","3.56953","25.081","1.718","7.51","0.328","3.018","0.05","0.14","30.7098","4.80573","19.39","0","SATNPRO1963","30.162","0.42246","5"],
    [2831,"HCEP03730564","2023-10-27 20:15:00","12.1378","3.56941","24.86","1.725","7.51","0.381","2.885","0.04","0.18","30.7092","4.80564","19.47","0","SATNPRO1963","29.988","0.42008","5"],
    [2832,"HCEP03730564","2023-10-27 20:30:00","12.1367","3.56917","24.669","1.718","7.51","0.323","3.023","0.06","0.13","30.7078","4.80544","19.39","0","SATNPRO1963","29.852","0.4181","5"],
    [2833,"HCEP03730564","2023-10-27 20:45:00","12.1361","3.56893","24.539","1.711","7.51","0.337","2.723","0.03","0.17","30.7061","4.80521","19.31","0","SATNPRO1963","30.054000000000002","0.42096","5"],
    [2834,"HCEP03730564","2023-10-27 21:00:00","12.1351","3.56863","24.431","1.712","7.51","0.318","2.697","0.05","0.12","30.704","4.80492","19.32","0","SATNPRO1963","30.062","0.42106","5"],
    [2835,"HCEP03730564","2023-10-27 21:15:00","12.1346","3.5685","24.366","1.694","7.51","0.339","2.749","0.05","0.17","30.7033","4.80482","19.12","0","SATNPRO1963","29.974","0.41986","5"],
    [2836,"HCEP03730564","2023-10-27 21:30:00","12.1337","3.56825","24.327","1.677","7.51","0.352","2.717","0.14","0.14","30.7016","4.8046","18.93","0","SATNPRO1963","29.791999999999998","0.41728","5"],
    [2837,"HCEP03730564","2023-10-27 21:45:00","12.1332","3.5681","24.319","1.666","7.51","0.408","2.9","0.18","0.15","30.7006","4.80447","18.81","0","SATNPRO1963","29.922","0.41914","5"],
    [2838,"HCEP03730564","2023-10-27 22:00:00","12.1327","3.56799","24.333","1.669","7.51","0.316","2.715","0.06","0.16","30.6999","4.80437","18.84","0","SATNPRO1963","29.976","0.41986","5"],
    [2839,"HCEP03730564","2023-10-27 22:15:00","12.1329","3.56782","24.381","1.663","7.51","0.367","2.78","0.05","0.3","30.6981","4.80412","18.77","0","SATNPRO1963","30.034","0.42066","5"],
    [2840,"HCEP03730564","2023-10-27 22:30:00","12.1327","3.5676","24.465","1.685","7.51","0.311","2.59","0.04","0.15","30.6962","4.80385","19.02","0","SATNPRO1963","29.864","0.4183","5"],
    [2841,"HCEP03730564","2023-10-27 22:45:00","12.1325","3.56711","24.551","1.719","7.51","0.384","2.56","0.08","0.32","30.6917","4.80322","19.39","0","SATNPRO1963","29.78","0.41712","5"],
    [2842,"HCEP03730564","2023-10-27 23:00:00","12.1308","3.56674","24.666","1.72","7.51","0.343","2.623","0.04","0.13","30.6894","4.80294","19.4","0","SATNPRO1963","29.81","0.41756","5"],
    [2843,"HCEP03730564","2023-10-27 23:15:00","12.1289","3.56616","24.83","1.68","7.51","0.378","2.69","0.06","0.09","30.6854","4.80241","18.96","0","SATNPRO1963","29.924","0.41916","5"],
    [2844,"HCEP03730564","2023-10-27 23:30:00","12.1258","3.56636","25.029","1.58","7.5","0.362","3.102","0.05","0.15","30.6897","4.80306","17.83","0","SATNPRO1963","29.836000000000002","0.4179","5"],
    [2845,"HCEP03730564","2023-10-27 23:45:00","12.1262","3.56671","25.235","1.529","7.5","0.41","3.759","0.06","0.53","30.6927","4.80349","17.25","0","SATNPRO1963","30.25","0.42374","5"],
    [2846,"HCEP03730564","2023-10-28 00:00:00","12.1247","3.56692","25.397","1.477","7.49","0.372","4.552","0.03","0.21","30.6959","4.80397","16.67","0","SATNPRO1963","29.764","0.4169","5"],
    [2847,"HCEP03730564","2023-10-28 00:15:00","12.1245","3.56711","25.588","1.424","7.49","0.428","4.295","0.08","0.16","30.6978","4.80426","16.06","0","SATNPRO1963","29.714000000000002","0.4162","5"],
    [2848,"HCEP03730564","2023-10-28 00:30:00","12.125","3.56696","25.761","1.432","7.49","0.371","3.931","0.04","0.17","30.6959","4.80399","16.16","0","SATNPRO1963","28.986","0.40602","5"],
    [2849,"HCEP03730564","2023-10-28 00:45:00","12.1244","3.56685","25.912","1.432","7.48","0.427","4.265","0.09","0.19","30.6953","4.80392","16.16","0","SATNPRO1963","28.94","0.40534","5"],
    [2850,"HCEP03730564","2023-10-28 01:00:00","12.1225","3.56621","26.089","1.405","7.48","0.376","4.221","0.05","0.14","30.6906","4.80329","15.85","0","SATNPRO1963","28.272","0.39598","5"],
    [2851,"HCEP03730564","2023-10-28 01:15:00","12.1209","3.56564","26.299","1.402","7.48","0.435","4.539","0.05","0.2","30.6864","4.80273","15.82","0","SATNPRO1963","28.276","0.39602","5"],
    [2852,"HCEP03730564","2023-10-28 01:30:00","12.1207","3.56529","26.467","1.423","7.48","0.413","4.302","0.05","0.16","30.6832","4.80229","16.06","0","SATNPRO1963","28.82","0.40366","5"],
    [2853,"HCEP03730564","2023-10-28 01:45:00","12.122","3.56531","26.642","1.463","7.48","0.431","4.136","0.05","0.23","30.6822","4.80215","16.5","0","SATNPRO1963","28.13","0.39402","5"],
    [2854,"HCEP03730564","2023-10-28 02:00:00","12.1242","3.56562","26.772","1.51","7.48","0.398","4.229","0.05","0.29","30.6833","4.80228","17.04","0","SATNPRO1963","28.131999999999998","0.39404","5"],
    [2855,"HCEP03730564","2023-10-28 02:15:00","12.1283","3.56609","26.987","1.635","7.49","0.41","3.937","0.05","0.24","30.6844","4.80239","18.45","0","SATNPRO1963","27.830000000000002","0.38976","5"],
    [2856,"HCEP03730564","2023-10-28 02:30:00","12.1338","3.56673","27.181","1.788","7.5","0.361","3.594","0.05","0.28","30.6859","4.80254","20.18","0","SATNPRO1963","27.91","0.39092","5"],
    [2857,"HCEP03730564","2023-10-28 02:45:00","12.1334","3.56674","27.292","1.824","7.51","0.417","3.956","0.05","0.23","30.6863","4.8026","20.58","0","SATNPRO1963","28.216","0.39518","5"],
    [2858,"HCEP03730564","2023-10-28 03:00:00","12.1338","3.56634","27.434","1.849","7.51","0.368","3.793","0.04","0.27","30.6821","4.80202","20.87","0","SATNPRO1963","28.21","0.39516","5"],
    [2859,"HCEP03730564","2023-10-28 03:15:00","12.1339","3.56643","27.547","1.853","7.52","0.416","4.437","0.07","0.27","30.6829","4.80213","20.91","0","SATNPRO1963","29.29","0.41024","5"],
    [2860,"HCEP03730564","2023-10-28 03:30:00","12.1343","3.56664","27.632","1.853","7.52","0.381","4.1","0.05","0.22","30.6845","4.80236","20.91","0","SATNPRO1963","30.154","0.42238","5"],
    [2861,"HCEP03730564","2023-10-28 03:45:00","12.1348","3.56689","27.702","1.854","7.52","0.411","4.044","0.06","0.28","30.6864","4.80263","20.93","0","SATNPRO1963","30.038","0.42072","5"],
    [2862,"HCEP03730564","2023-10-28 04:00:00","12.1343","3.56685","27.723","1.844","7.52","0.398","3.962","0.07","0.23","30.6864","4.80264","20.81","0","SATNPRO1963","30.194","0.42292","5"],
    [2863,"HCEP03730564","2023-10-28 04:15:00","12.1353","3.56695","27.73","1.853","7.52","3.879","40.092","4.62","34.14","30.6865","4.80264","20.91","0","SATNPRO1963","30.169999999999998","0.42258","5"],
    [2864,"HCEP03730564","2023-10-28 04:30:00","12.1341","3.56677","27.701","1.848","7.52","0.376","3.872","0.09","0.33","30.6858","4.80254","20.85","0","SATNPRO1963","30.142","0.42222","5"],
    [2865,"HCEP03730564","2023-10-28 04:45:00","12.1325","3.56653","27.643","1.809","7.52","0.392","3.966","0.04","0.27","30.6849","4.80244","20.42","0","SATNPRO1963","30.302","0.42446","5"],
    [2866,"HCEP03730564","2023-10-28 05:00:00","12.1323","3.5664","27.546","1.804","7.51","0.355","3.777","0.04","0.18","30.6838","4.80228","20.36","0","SATNPRO1963","30.158","0.42242","5"],
    [2867,"HCEP03730564","2023-10-28 05:15:00","12.1281","3.56565","27.48","1.741","7.51","0.431","3.954","0.06","0.18","30.6801","4.80182","19.65","0","SATNPRO1963","30.302","0.42446","5"],
    [2868,"HCEP03730564","2023-10-28 05:30:00","12.1294","3.5655","27.41","1.769","7.51","0.368","3.694","0.03","0.14","30.6776","4.80144","19.96","0","SATNPRO1963","29.97","0.41978","5"],
    [2869,"HCEP03730564","2023-10-28 05:45:00","12.1305","3.56555","27.323","1.789","7.51","0.39","3.383","0.04","0.14","30.6773","4.80137","20.19","0","SATNPRO1963","29.858","0.41822","5"],
    [2870,"HCEP03730564","2023-10-28 06:00:00","12.1308","3.56549","27.229","1.813","7.51","0.349","3.44","0.05","0.15","30.6765","4.80125","20.46","0","SATNPRO1963","29.826","0.41776","5"],
    [2871,"HCEP03730564","2023-10-28 06:15:00","12.1305","3.56527","27.146","1.829","7.51","1.318","19.043","0.76","5.23","30.6747","4.801","20.64","0","SATNPRO1963","29.732","0.41644","5"],
    [2872,"HCEP03730564","2023-10-28 06:30:00","12.1288","3.56509","27.044","1.784","7.51","0.377","3.744","0.06","0.16","30.6744","4.80098","20.13","0","SATNPRO1963","29.798000000000002","0.41736","5"],
    [2873,"HCEP03730564","2023-10-28 06:45:00","12.1309","3.56515","26.928","1.827","7.51","0.417","3.23","0.06","0.14","30.6733","4.80079","20.61","0","SATNPRO1963","29.878","0.41848","5"],
    [2874,"HCEP03730564","2023-10-28 07:00:00","12.1238","3.56447","26.806","1.699","7.51","0.431","4.571","0.09","0.22","30.6727","4.80079","19.16","0","SATNPRO1963","30.105999999999998","0.42172","5"],
    [2875,"HCEP03730564","2023-10-28 07:15:00","12.1189","3.56458","26.685","1.464","7.5","0.487","5.393","0.05","0.35","30.6778","4.80158","16.51","0","SATNPRO1963","29.986","0.42004","5"],
    [2876,"HCEP03730564","2023-10-28 07:30:00","12.1235","3.56379","26.534","1.542","7.49","0.428","4.203","0.06","0.29","30.6664","4.7999","17.4","0","SATNPRO1963","29.804","0.41744","5"],
    [2877,"HCEP03730564","2023-10-28 07:45:00","12.1178","3.56339","26.404","1.452","7.49","0.458","4.554","0.06","0.16","30.6674","4.80011","16.38","0","SATNPRO1963","30.058","0.42098","5"],
    [2878,"HCEP03730564","2023-10-28 08:00:00","12.1211","3.56483","26.239","1.451","7.49","0.42","4.501","0.05","0.22","30.6785","4.80163","16.37","0","SATNPRO1963","29.092","0.4075","5"],
    [2879,"HCEP03730564","2023-10-28 08:15:00","12.1211","3.56455","26.108","1.46","7.49","0.454","4.571","0.06","0.26","30.6758","4.80124","16.47","0","SATNPRO1963","27.752","0.3887","5"],
    [2880,"HCEP03730564","2023-10-28 08:30:00","12.1176","3.56457","25.977","1.359","7.48","0.438","4.988","0.06","0.28","30.679","4.80172","15.33","0","SATNPRO1963","28.594","0.40048","5"],
    [2881,"HCEP03730564","2023-10-28 08:45:00","12.1199","3.56539","25.837","1.334","7.48","0.47","4.946","0.05","0.31","30.685","4.80252","15.05","0","SATNPRO1963","28.176","0.39462","5"],
    [2882,"HCEP03730564","2023-10-28 09:00:00","12.123","3.56611","25.714","1.376","7.48","0.491","5.113","0.09","0.31","30.6894","4.8031","15.53","0","SATNPRO1963","28.228","0.39538","5"],
    [2883,"HCEP03730564","2023-10-28 09:15:00","12.1263","3.56689","25.618","1.47","7.48","0.464","4.965","0.07","0.28","30.6941","4.80372","16.58","0","SATNPRO1963","28.578","0.40026","5"],
    [2884,"HCEP03730564","2023-10-28 09:30:00","12.13","3.56736","25.566","1.563","7.49","0.402","4.384","0.05","0.22","30.6957","4.80388","17.64","0","SATNPRO1963","27.142","0.38022","5"],
    [2885,"HCEP03730564","2023-10-28 09:45:00","12.1311","3.56733","25.547","1.628","7.5","0.409","3.946","0.04","0.28","30.6945","4.80369","18.37","0","SATNPRO1963","27.53","0.3856","5"],
    [2886,"HCEP03730564","2023-10-28 10:00:00","12.1318","3.56708","25.541","1.674","7.5","0.361","3.362","0.04","0.17","30.6915","4.80327","18.89","0","SATNPRO1963","28.192","0.39486","5"],
    [2887,"HCEP03730564","2023-10-28 10:15:00","12.1326","3.56739","25.589","1.696","7.51","0.574","4.195","0.68","0.85","30.6938","4.80358","19.14","0","SATNPRO1963","29.004","0.40628","5"],
    [2888,"HCEP03730564","2023-10-28 10:30:00","12.1337","3.5676","25.644","1.706","7.51","0.36","3.539","0.04","0.24","30.6949","4.80372","19.25","0","SATNPRO1963","29.490000000000002","0.41306","5"],
    [2889,"HCEP03730564","2023-10-28 10:45:00","12.1337","3.5677","25.725","1.696","7.51","0.388","3.868","0.03","0.26","30.6959","4.80387","19.14","0","SATNPRO1963","30.002","0.42024","5"],
    [2890,"HCEP03730564","2023-10-28 11:00:00","12.1335","3.56775","25.823","1.69","7.51","0.354","3.642","0.04","0.15","30.6964","4.80395","19.07","0","SATNPRO1963","30.26","0.42386","5"],
    [2891,"HCEP03730564","2023-10-28 11:15:00","12.1337","3.56797","25.942","1.674","7.51","0.407","3.472","0.07","0.21","30.6983","4.80422","18.89","0","SATNPRO1963","30.412","0.42592","5"],
    [2892,"HCEP03730564","2023-10-28 11:30:00","12.1339","3.56838","26.072","1.644","7.5","0.449","4.19","0.06","0.28","30.702","4.80475","18.56","0","SATNPRO1963","30.342","0.42498","5"],
    [2893,"HCEP03730564","2023-10-28 11:45:00","12.1341","3.56864","26.202","1.607","7.5","0.416","4.061","0.03","0.22","30.7043","4.80508","18.14","0","SATNPRO1963","30.182","0.42274","5"],
    [2894,"HCEP03730564","2023-10-28 12:00:00","12.1345","3.5688","26.353","1.59","7.5","0.413","4.435","0.04","0.6","30.7054","4.80524","17.95","0","SATNPRO1963","30.218","0.42324","5"],
    [2895,"HCEP03730564","2023-10-28 12:15:00","12.1344","3.56863","26.492","1.594","7.5","0.44","4.396","0.05","0.73","30.7038","4.80502","17.99","0","SATNPRO1963","30.169999999999998","0.42258","5"],
    [2896,"HCEP03730564","2023-10-28 12:30:00","12.134","3.5688","26.639","1.565","7.5","0.369","3.786","0.04","0.17","30.7057","4.8053","17.66","0","SATNPRO1963","29.97","0.4198","5"],
    [2897,"HCEP03730564","2023-10-28 12:45:00","12.1341","3.56875","26.779","1.541","7.5","5.704","60.55","2.53","17.37","30.7051","4.80522","17.39","0","SATNPRO1963","29.622","0.41492","5"],
    [2898,"HCEP03730564","2023-10-28 13:00:00","12.1339","3.56862","26.945","1.555","7.5","0.367","3.799","0.05","0.22","30.7039","4.80506","17.55","0","SATNPRO1963","29.674","0.41566","5"],
    [2899,"HCEP03730564","2023-10-28 13:15:00","12.1341","3.56872","27.094","1.556","7.5","0.409","3.798","0.04","0.24","30.7047","4.80518","17.56","0","SATNPRO1963","29.378","0.4115","5"],
    [2900,"HCEP03730564","2023-10-28 13:30:00","12.1345","3.56862","27.26","1.58","7.5","0.389","3.532","0.08","0.16","30.7034","4.805","17.83","0","SATNPRO1963","29.36","0.41124","5"],
    [2901,"HCEP03730564","2023-10-28 13:45:00","12.1343","3.56872","27.404","1.578","7.5","0.417","3.757","0.08","0.18","30.7043","4.80514","17.81","0","SATNPRO1963","29.512","0.41338","5"],
    [2902,"HCEP03730564","2023-10-28 14:00:00","12.1335","3.56864","27.557","1.559","7.5","0.369","4.002","0.04","0.22","30.7043","4.80515","17.59","0","SATNPRO1963","29.502","0.41324","5"],
    [2903,"HCEP03730564","2023-10-28 14:15:00","12.1332","3.56854","27.695","1.552","7.5","0.434","3.826","0.06","0.24","30.7035","4.80505","17.51","0","SATNPRO1963","29.76","0.41684","5"],
    [2904,"HCEP03730564","2023-10-28 14:30:00","12.1336","3.56837","27.822","1.57","7.5","0.385","3.696","0.05","0.28","30.7015","4.80477","17.72","0","SATNPRO1963","29.614","0.41482","5"],
    [2905,"HCEP03730564","2023-10-28 14:45:00","12.1324","3.56814","27.926","1.574","7.5","0.416","3.625","0.07","0.25","30.7002","4.80461","17.76","0","SATNPRO1963","29.724","0.41634","5"],
    [2906,"HCEP03730564","2023-10-28 15:00:00","12.1311","3.56778","28.018","1.554","7.5","0.417","4.243","0.05","0.64","30.6978","4.8043","17.53","0","SATNPRO1963","29.567999999999998","0.41414","5"],
    [2907,"HCEP03730564","2023-10-28 15:15:00","12.1306","3.56751","28.081","1.55","7.49","0.423","3.889","0.07","0.28","30.6956","4.804","17.49","0","SATNPRO1963","29.802","0.4174","5"],
    [2908,"HCEP03730564","2023-10-28 15:30:00","12.128","3.56683","28.114","1.535","7.49","0.529","4.051","0.17","0.24","30.6912","4.80342","17.32","0","SATNPRO1963","29.336000000000002","0.41088","5"],
    [2909,"HCEP03730564","2023-10-28 15:45:00","12.1258","3.56642","28.119","1.496","7.49","0.433","4.367","0.06","0.24","30.6891","4.80315","16.88","0","SATNPRO1963","29.674","0.41564","5"],
    [2910,"HCEP03730564","2023-10-28 16:00:00","12.1249","3.56628","28.104","1.468","7.49","0.429","4.225","0.08","0.31","30.6885","4.80308","16.56","0","SATNPRO1963","29.86","0.41826","5"],
    [2911,"HCEP03730564","2023-10-28 16:15:00","12.1258","3.56651","28.067","1.471","7.49","0.435","3.9","0.09","0.28","30.69","4.80328","16.6","0","SATNPRO1963","29.638","0.41516","5"],
    [2912,"HCEP03730564","2023-10-28 16:30:00","12.1299","3.56748","28.008","1.515","7.49","0.392","3.49","0.08","0.18","30.6959","4.80405","17.1","0","SATNPRO1963","29.408","0.41192","5"],
    [2913,"HCEP03730564","2023-10-28 16:45:00","12.1301","3.56751","27.926","1.54","7.49","0.399","3.824","0.05","0.2","30.6961","4.80407","17.37","0","SATNPRO1963","29.034","0.40664","5"],
    [2914,"HCEP03730564","2023-10-28 17:00:00","12.1319","3.56791","27.815","1.554","7.49","0.365","3.552","0.06","0.57","30.6985","4.80437","17.54","0","SATNPRO1963","28.914","0.40498","5"],
    [2915,"HCEP03730564","2023-10-28 17:15:00","12.1327","3.56841","27.684","1.551","7.49","0.393","3.476","0.05","0.18","30.7027","4.80495","17.5","0","SATNPRO1963","28.93","0.40522","5"],
    [2916,"HCEP03730564","2023-10-28 17:30:00","12.1353","3.56928","27.528","1.531","7.49","0.37","3.423","0.06","0.21","30.7089","4.80579","17.27","0","SATNPRO1963","29.396","0.41176","5"],
    [2917,"HCEP03730564","2023-10-28 17:45:00","12.1357","3.56929","27.353","1.523","7.49","0.373","3.425","0.04","0.12","30.7087","4.80574","17.19","0","SATNPRO1963","29.578","0.41432","5"],
    [2918,"HCEP03730564","2023-10-28 18:00:00","12.136","3.56921","27.166","1.538","7.49","0.357","3.258","0.09","0.14","30.7078","4.80559","17.36","0","SATNPRO1963","29.882","0.41852","5"],
    [2919,"HCEP03730564","2023-10-28 18:15:00","12.1365","3.56941","26.92","1.53","7.49","0.363","3.401","0.04","0.22","30.7094","4.8058","17.27","0","SATNPRO1963","29.44","0.4123","5"],
    [2920,"HCEP03730564","2023-10-28 18:30:00","12.1367","3.56934","26.718","1.544","7.49","0.313","2.956","0.04","0.15","30.7086","4.80567","17.43","0","SATNPRO1963","29.466","0.41274","5"],
    [2921,"HCEP03730564","2023-10-28 18:45:00","12.1367","3.56928","26.511","1.56","7.5","0.378","3.387","0.03","0.19","30.7081","4.8056","17.61","0","SATNPRO1963","29.06","0.40702","5"],
    [2922,"HCEP03730564","2023-10-28 19:00:00","12.1367","3.56912","26.302","1.574","7.5","0.362","3.198","0.06","0.23","30.7067","4.80538","17.77","0","SATNPRO1963","29.406","0.41188","5"],
    [2923,"HCEP03730564","2023-10-28 19:15:00","12.1362","3.56928","26.084","1.55","7.5","0.386","3.727","0.04","0.33","30.7087","4.80566","17.49","0","SATNPRO1963","29.768","0.41694","5"],
    [2924,"HCEP03730564","2023-10-28 19:30:00","12.1335","3.56812","25.841","1.574","7.5","0.334","3.057","0.04","0.33","30.7","4.80445","17.76","0","SATNPRO1963","29.872","0.41838","5"],
    [2925,"HCEP03730564","2023-10-28 19:45:00","12.1213","3.56503","25.607","1.44","7.49","0.404","3.047","0.06","0.15","30.6805","4.80186","16.24","0","SATNPRO1963","29.806","0.41742","5"],
    [2926,"HCEP03730564","2023-10-28 20:00:00","12.1342","3.56866","25.365","1.525","7.49","0.48","3.673","0.59","0.73","30.7048","4.80509","17.21","0","SATNPRO1963","30.04","0.42074","5"],
    [2927,"HCEP03730564","2023-10-28 20:15:00","12.1353","3.56921","25.119","1.527","7.49","0.375","3.269","0.06","0.2","30.7092","4.80568","17.24","0","SATNPRO1963","30.106","0.42166","5"],
    [2928,"HCEP03730564","2023-10-28 20:30:00","12.1367","3.56938","24.884","1.54","7.49","0.338","2.958","0.05","0.18","30.7098","4.80574","17.38","0","SATNPRO1963","29.898","0.41876","5"],
    [2929,"HCEP03730564","2023-10-28 20:45:00","12.1359","3.56867","24.638","1.592","7.5","0.356","2.601","0.05","0.15","30.7037","4.80488","17.96","0","SATNPRO1963","27.716","0.38826","5"],
    [2930,"HCEP03730564","2023-10-28 21:00:00","12.1337","3.56768","24.424","1.622","7.5","0.337","2.497","0.05","0.15","30.6961","4.80383","18.31","0","SATNPRO1963","29.822","0.41772","5"],
    [2931,"HCEP03730564","2023-10-28 21:15:00","12.1315","3.56714","24.253","1.614","7.5","0.376","2.586","0.05","0.2","30.6928","4.80339","18.21","0","SATNPRO1963","29.445999999999998","0.41248","5"],
    [2932,"HCEP03730564","2023-10-28 21:30:00","12.1308","3.56693","24.116","1.594","7.5","0.387","2.675","0.11","0.55","30.6914","4.80319","17.98","0","SATNPRO1963","29.97","0.41976","5"],
    [2933,"HCEP03730564","2023-10-28 21:45:00","12.1201","3.56471","24.008","1.41","7.49","0.408","3.023","0.1","0.31","30.6791","4.80159","15.91","0","SATNPRO1963","30.054000000000002","0.42098","5"],
    [2934,"HCEP03730564","2023-10-28 22:00:00","12.1174","3.564","23.962","1.338","7.48","0.368","3.298","0.1","0.17","30.6746","4.80099","15.09","0","SATNPRO1963","30.198","0.42298","5"],
    [2935,"HCEP03730564","2023-10-28 22:15:00","12.118","3.56393","23.937","1.337","7.48","0.397","3.243","0.08","0.18","30.6733","4.80081","15.08","0","SATNPRO1963","30.162","0.42248","5"],
    [2936,"HCEP03730564","2023-10-28 22:30:00","12.1223","3.56531","23.935","1.392","7.48","0.361","3.097","0.1","0.11","30.683","4.80211","15.7","0","SATNPRO1963","29.826","0.41778","5"],
    [2937,"HCEP03730564","2023-10-28 22:45:00","12.1196","3.56387","23.961","1.412","7.48","0.364","3.068","0.07","0.08","30.6714","4.80052","15.92","0","SATNPRO1963","28.006","0.39226","5"],
    [2938,"HCEP03730564","2023-10-28 23:00:00","12.1195","3.5639","24.007","1.409","7.48","0.377","2.9","0.09","0.06","30.6718","4.80058","15.9","0","SATNPRO1963","27.762","0.38886","5"],
    [2939,"HCEP03730564","2023-10-28 23:15:00","12.119","3.56389","24.087","1.395","7.48","0.372","2.952","0.08","0.13","30.6721","4.80062","15.73","0","SATNPRO1963","27.938","0.3913","5"],
    [2940,"HCEP03730564","2023-10-28 23:30:00","12.1202","3.56398","24.198","1.413","7.48","0.347","3.044","0.07","0.14","30.6719","4.80059","15.94","0","SATNPRO1963","28.334","0.39686","5"],
    [2941,"HCEP03730564","2023-10-28 23:45:00","12.1222","3.56416","24.348","1.471","7.48","0.369","2.809","0.07","0.12","30.672","4.80058","16.59","0","SATNPRO1963","28.152","0.39436","5"],
    [2942,"HCEP03730564","2023-10-29 00:00:00","12.1217","3.56407","24.548","1.479","7.48","0.316","2.653","0.1","0.13","30.6714","4.80052","16.68","0","SATNPRO1963","28.32","0.39664","5"],
    [2943,"HCEP03730564","2023-10-29 00:15:00","12.1231","3.56395","24.757","1.518","7.49","0.368","2.323","0.07","0.12","30.669","4.80017","17.12","0","SATNPRO1963","28.288","0.3962","5"],
    [2944,"HCEP03730564","2023-10-29 00:30:00","12.1287","3.56438","25.009","1.658","7.49","0.317","2.482","0.04","0.25","30.6684","4.80003","18.7","0","SATNPRO1963","28.348","0.39702","5"],
    [2945,"HCEP03730564","2023-10-29 00:45:00","12.1288","3.56428","25.197","1.712","7.5","0.325","2.467","0.03","0.09","30.6674","4.79988","19.32","0","SATNPRO1963","28.740000000000002","0.40252","5"],
    [2946,"HCEP03730564","2023-10-29 01:00:00","12.1397","3.56477","25.398","1.955","7.51","0.28","1.957","0.03","0.11","30.663","4.79913","22.06","0","SATNPRO1963","28.752","0.40272","5"],
    [2947,"HCEP03730564","2023-10-29 01:15:00","12.1349","3.5646","25.583","1.947","7.52","0.328","2.375","0.04","0.17","30.6653","4.79954","21.97","0","SATNPRO1963","29.332","0.41086","5"],
    [2948,"HCEP03730564","2023-10-29 01:30:00","12.1278","3.56421","25.769","1.747","7.51","0.337","2.901","0.06","0.26","30.6673","4.79992","19.71","0","SATNPRO1963","29.674","0.41566","5"],
    [2949,"HCEP03730564","2023-10-29 01:45:00","12.1218","3.56419","25.959","1.54","7.5","0.389","3.91","0.04","0.12","30.672","4.80068","17.37","0","SATNPRO1963","29.8","0.41736","5"],
    [2950,"HCEP03730564","2023-10-29 02:00:00","12.134","3.56493","26.191","1.645","7.5","0.326","3.134","0.04","0.12","30.6689","4.80009","18.56","0","SATNPRO1963","30.384","0.4256","5"],
    [2951,"HCEP03730564","2023-10-29 02:15:00","12.1339","3.56523","26.367","1.772","7.51","0.342","3.345","0.03","0.16","30.6718","4.8005","19.99","0","SATNPRO1963","29.974","0.41988","5"],
    [2952,"HCEP03730564","2023-10-29 02:30:00","12.1294","3.565","26.593","1.715","7.5","0.326","3.808","0.03","0.1","30.6732","4.80077","19.34","0","SATNPRO1963","29.068","0.40714","5"],
    [2953,"HCEP03730564","2023-10-29 02:45:00","12.1304","3.56496","26.781","1.713","7.5","0.356","3.829","0.03","0.23","30.6719","4.80059","19.32","0","SATNPRO1963","28.508","0.3993","5"],
    [2954,"HCEP03730564","2023-10-29 03:00:00","12.1335","3.56512","26.999","1.731","7.5","0.331","3.715","0.03","0.07","30.6709","4.80042","19.53","0","SATNPRO1963","29.37","0.4114","5"],
    [2955,"HCEP03730564","2023-10-29 03:15:00","12.1407","3.56564","27.138","1.867","7.51","0.342","3.247","0.03","0.07","30.6698","4.80018","21.07","0","SATNPRO1963","29.138","0.40814","5"],
    [2956,"HCEP03730564","2023-10-29 03:30:00","12.1377","3.56564","27.361","1.859","7.51","0.306","3.226","0.03","0.09","30.6722","4.80057","20.98","0","SATNPRO1963","28.619999999999997","0.40086","5"],
    [2957,"HCEP03730564","2023-10-29 03:45:00","12.1368","3.56563","27.515","1.879","7.52","0.345","3.225","0.04","0.18","30.6728","4.80067","21.21","0","SATNPRO1963","29.036","0.40674","5"],
    [2958,"HCEP03730564","2023-10-29 04:00:00","12.1262","3.56477","27.613","1.694","7.51","0.362","4.629","0.04","0.29","30.6732","4.80087","19.12","0","SATNPRO1963","28.605999999999998","0.40066","5"],
    [2959,"HCEP03730564","2023-10-29 04:15:00","12.1347","3.56524","27.712","1.751","7.51","0.321","2.901","0.04","0.14","30.6707","4.80042","19.76","0","SATNPRO1963","29.29","0.41022","5"],
    [2960,"HCEP03730564","2023-10-29 04:30:00","12.127","3.56463","27.8","1.635","7.51","0.358","4.529","0.04","0.21","30.6712","4.80059","18.44","0","SATNPRO1963","29.516000000000002","0.4134","5"],
    [2961,"HCEP03730564","2023-10-29 04:45:00","12.1228","3.56398","27.835","1.521","7.5","0.375","3.78","0.05","0.21","30.6684","4.80026","17.15","0","SATNPRO1963","29.18","0.40874","5"],
    [2962,"HCEP03730564","2023-10-29 05:00:00","12.1228","3.56355","27.847","1.496","7.49","0.359","3.932","0.04","0.15","30.6643","4.79968","16.88","0","SATNPRO1963","28.214","0.39518","5"],
    [2963,"HCEP03730564","2023-10-29 05:15:00","12.1233","3.5633","27.824","1.52","7.49","0.367","3.72","0.04","0.15","30.6614","4.79927","17.14","0","SATNPRO1963","29.334","0.41086","5"],
    [2964,"HCEP03730564","2023-10-29 05:30:00","12.119","3.56273","27.797","1.45","7.49","0.383","4.91","0.05","0.26","30.6596","4.79906","16.36","0","SATNPRO1963","28.254","0.39574","5"],
    [2965,"HCEP03730564","2023-10-29 05:45:00","12.1208","3.56267","27.768","1.509","7.48","0.421","4.131","0.08","0.27","30.6576","4.79876","17.02","0","SATNPRO1963","27.936","0.39128","5"],
    [2966,"HCEP03730564","2023-10-29 06:00:00","12.1172","3.56249","27.733","1.404","7.48","0.399","5.059","0.05","0.28","30.6587","4.79896","15.84","0","SATNPRO1963","28.226","0.39532","5"],
    [2967,"HCEP03730564","2023-10-29 06:15:00","12.1165","3.56329","27.673","1.323","7.48","0.467","6.143","0.05","0.22","30.667","4.80014","14.92","0","SATNPRO1963","28.12","0.39386","5"],
    [2968,"HCEP03730564","2023-10-29 06:30:00","12.1204","3.56411","27.601","1.353","7.47","0.402","5.869","0.04","0.42","30.6717","4.80074","15.26","0","SATNPRO1963","27.314","0.38258","5"],
    [2969,"HCEP03730564","2023-10-29 06:45:00","12.1187","3.56453","27.519","1.324","7.47","0.418","4.312","0.06","0.17","30.6772","4.80154","14.93","0","SATNPRO1963","28.138","0.3941","5"],
    [2970,"HCEP03730564","2023-10-29 07:00:00","12.1219","3.56413","27.438","1.412","7.47","0.341","3.868","0.04","0.33","30.6707","4.80057","15.93","0","SATNPRO1963","27.088","0.37938","5"],
    [2971,"HCEP03730564","2023-10-29 07:15:00","12.1245","3.564","27.35","1.525","7.48","0.363","2.927","0.06","0.25","30.6674","4.80007","17.21","0","SATNPRO1963","26.436","0.3703","5"],
    [2972,"HCEP03730564","2023-10-29 07:30:00","12.1191","3.56418","27.253","1.368","7.48","0.381","4.267","0.04","0.3","30.6736","4.80101","15.43","0","SATNPRO1963","27.532","0.38566","5"],
    [2973,"HCEP03730564","2023-10-29 07:45:00","12.1262","3.56328","27.152","1.591","7.49","0.401","2.89","0.08","0.27","30.6592","4.79887","17.95","0","SATNPRO1963","27.746","0.38864","5"],
    [2974,"HCEP03730564","2023-10-29 08:00:00","12.1203","3.56317","27.042","1.49","7.49","0.398","4.189","0.04","0.44","30.663","4.79949","16.81","0","SATNPRO1963","28.152","0.39434","5"],
    [2975,"HCEP03730564","2023-10-29 08:15:00","12.1208","3.56235","26.936","1.502","7.49","0.409","3.56","0.06","0.16","30.6548","4.79832","16.94","0","SATNPRO1963","28.79","0.40326","5"],
    [2976,"HCEP03730564","2023-10-29 08:30:00","12.1212","3.5623","26.826","1.526","7.49","0.414","3.467","0.07","0.25","30.6541","4.7982","17.21","0","SATNPRO1963","27.854","0.3901","5"],
    [2977,"HCEP03730564","2023-10-29 08:45:00","12.1205","3.56445","26.707","1.423","7.48","0.429","3.994","0.07","0.26","30.6751","4.80118","16.05","0","SATNPRO1963","29.534","0.41368","5"],
    [2978,"HCEP03730564","2023-10-29 09:00:00","12.1203","3.56475","26.579","1.341","7.48","0.37","4.464","0.04","0.28","30.6783","4.80162","15.13","0","SATNPRO1963","28.154","0.39434","5"],
    [2979,"HCEP03730564","2023-10-29 09:15:00","12.1232","3.56543","26.453","1.358","7.48","0.401","4.364","0.04","0.28","30.6824","4.80216","15.32","0","SATNPRO1963","28.588","0.4004","5"],
    [2980,"HCEP03730564","2023-10-29 09:30:00","12.1288","3.56703","26.31","1.425","7.48","0.409","4.962","0.05","0.39","30.6932","4.80359","16.08","0","SATNPRO1963","28.796","0.40332","5"],
    [2981,"HCEP03730564","2023-10-29 09:45:00","12.1283","3.56774","26.18","1.356","7.48","0.422","4.634","0.04","0.28","30.7005","4.80461","15.31","0","SATNPRO1963","28.432000000000002","0.39824","5"],
    [2982,"HCEP03730564","2023-10-29 10:00:00","12.1305","3.56795","26.039","1.351","7.48","0.382","4.502","0.05","0.29","30.7008","4.80462","15.24","0","SATNPRO1963","28.336000000000002","0.3969","5"],
    [2983,"HCEP03730564","2023-10-29 10:15:00","12.1298","3.56765","25.96","1.389","7.48","0.416","3.8","0.04","0.24","30.6984","4.8043","15.67","0","SATNPRO1963","28.656","0.40136","5"],
    [2984,"HCEP03730564","2023-10-29 10:30:00","12.1288","3.56753","25.898","1.373","7.48","0.387","4.081","0.04","0.2","30.6981","4.80425","15.49","0","SATNPRO1963","29.216","0.40924","5"],
    [2985,"HCEP03730564","2023-10-29 10:45:00","12.1282","3.56761","25.903","1.346","7.48","0.436","4.633","0.04","0.28","30.6994","4.80445","15.19","0","SATNPRO1963","28.198","0.39498","5"],
    [2986,"HCEP03730564","2023-10-29 11:00:00","12.128","3.56756","25.936","1.323","7.48","0.443","4.909","0.09","0.3","30.699","4.8044","14.93","0","SATNPRO1963","29.048","0.40684","5"],
    [2987,"HCEP03730564","2023-10-29 11:15:00","12.1276","3.56743","25.975","1.32","7.48","0.491","5.034","0.08","0.61","30.6982","4.80429","14.89","0","SATNPRO1963","29.108","0.4077","5"],
    [2988,"HCEP03730564","2023-10-29 11:30:00","12.1272","3.56731","26.031","1.321","7.47","0.449","4.758","0.07","0.41","30.6973","4.80417","14.91","0","SATNPRO1963","28.686","0.4018","5"],
    [2989,"HCEP03730564","2023-10-29 11:45:00","12.127","3.56712","26.121","1.323","7.47","0.459","4.696","0.05","0.34","30.6956","4.80394","14.93","0","SATNPRO1963","28.404","0.39784","5"],
    [2990,"HCEP03730564","2023-10-29 12:00:00","12.1268","3.56687","26.214","1.337","7.47","0.426","4.638","0.06","0.46","30.6934","4.80364","15.08","0","SATNPRO1963","28.452","0.39852","5"],
    [2991,"HCEP03730564","2023-10-29 12:15:00","12.1262","3.56654","26.317","1.339","7.48","0.449","4.08","0.07","0.26","30.6906","4.80326","15.11","0","SATNPRO1963","28.442","0.39838","5"],
    [2992,"HCEP03730564","2023-10-29 12:30:00","12.126","3.56645","26.451","1.345","7.48","0.394","4.291","0.03","0.37","30.6898","4.80316","15.17","0","SATNPRO1963","28.302","0.39636","5"],
    [2993,"HCEP03730564","2023-10-29 12:45:00","12.1256","3.56628","26.57","1.349","7.48","0.436","4.184","0.17","0.37","30.6886","4.803","15.22","0","SATNPRO1963","28.528000000000002","0.39956","5"],
    [2994,"HCEP03730564","2023-10-29 13:00:00","12.1245","3.56607","26.69","1.331","7.47","0.415","4.312","0.06","0.44","30.6874","4.80286","15.01","0","SATNPRO1963","28.631999999999998","0.40102","5"],
    [2995,"HCEP03730564","2023-10-29 13:15:00","12.1231","3.56566","26.825","1.3","7.47","0.429","3.749","0.06","0.27","30.6846","4.80249","14.67","0","SATNPRO1963","28.366","0.3973","5"],
    [2996,"HCEP03730564","2023-10-29 13:30:00","12.1225","3.56555","26.953","1.285","7.47","0.398","3.786","0.06","0.19","30.684","4.80241","14.49","0","SATNPRO1963","28.658","0.40142","5"],
    [2997,"HCEP03730564","2023-10-29 13:45:00","12.1226","3.5655","27.093","1.284","7.47","0.405","3.559","0.04","0.19","30.6834","4.80233","14.48","0","SATNPRO1963","28.59","0.40046","5"],
    [2998,"HCEP03730564","2023-10-29 14:00:00","12.1229","3.5656","27.218","1.292","7.47","0.362","3.536","0.04","0.14","30.684","4.80243","14.57","0","SATNPRO1963","28.276","0.39604","5"],
    [2999,"HCEP03730564","2023-10-29 14:15:00","12.1238","3.56581","27.354","1.309","7.47","0.424","3.729","0.05","0.3","30.6853","4.8026","14.77","0","SATNPRO1963","28.32","0.39668","5"],
    [3000,"HCEP03730564","2023-10-29 14:30:00","12.1246","3.56597","27.495","1.326","7.47","0.403","3.665","0.09","0.33","30.6861","4.80271","14.96","0","SATNPRO1963","28.164","0.39452","5"],
    [3001,"HCEP03730564","2023-10-29 14:45:00","12.1246","3.56616","27.632","1.314","7.47","0.426","3.813","0.05","0.24","30.6878","4.80296","14.82","0","SATNPRO1963","28.292","0.39628","5"],
    [3002,"HCEP03730564","2023-10-29 15:00:00","12.1228","3.56618","27.748","1.264","7.47","0.464","4.585","0.1","0.34","30.6894","4.80322","14.27","0","SATNPRO1963","28.162","0.39446","5"],
    [3003,"HCEP03730564","2023-10-29 15:15:00","12.1219","3.56611","27.847","1.216","7.47","0.435","4.776","0.05","0.5","30.6894","4.80323","13.72","0","SATNPRO1963","28.53","0.3996","5"],
    [3004,"HCEP03730564","2023-10-29 15:30:00","12.1211","3.56606","27.927","1.189","7.47","0.424","4.557","0.05","0.3","30.6897","4.80329","13.41","0","SATNPRO1963","28.748","0.40268","5"],
    [3005,"HCEP03730564","2023-10-29 15:45:00","12.1207","3.5659","27.989","1.184","7.46","0.434","4.108","0.05","0.2","30.6884","4.80312","13.36","0","SATNPRO1963","28.4","0.39774","5"],
    [3006,"HCEP03730564","2023-10-29 16:00:00","12.1202","3.56587","28.034","1.156","7.46","0.433","4.202","0.2","0.35","30.6885","4.80313","13.04","0","SATNPRO1963","28.026","0.3926","5"],
    [3007,"HCEP03730564","2023-10-29 16:15:00","12.1206","3.56593","28.054","1.159","7.46","0.44","3.978","0.06","0.2","30.6887","4.80317","13.07","0","SATNPRO1963","27.424","0.38414","5"],
    [3008,"HCEP03730564","2023-10-29 16:30:00","12.1217","3.56635","28.053","1.164","7.46","0.389","4.113","0.05","0.19","30.6918","4.80359","13.13","0","SATNPRO1963","27.602","0.3866","5"],
    [3009,"HCEP03730564","2023-10-29 16:45:00","12.1224","3.56644","28.027","1.174","7.46","0.411","3.897","0.04","0.24","30.6921","4.80362","13.24","0","SATNPRO1963","27.446","0.38444","5"],
    [3010,"HCEP03730564","2023-10-29 17:00:00","12.1235","3.56667","27.99","1.203","7.46","0.392","3.762","0.07","0.15","30.6934","4.80378","13.57","0","SATNPRO1963","27.104","0.37964","5"],
    [3011,"HCEP03730564","2023-10-29 17:15:00","12.1247","3.56671","27.919","1.241","7.46","0.393","3.587","0.04","0.31","30.6929","4.80369","14","0","SATNPRO1963","27.298","0.38236","5"],
    [3012,"HCEP03730564","2023-10-29 17:30:00","12.1264","3.56701","27.824","1.278","7.47","0.386","3.578","0.08","0.34","30.6944","4.80387","14.42","0","SATNPRO1963","27.362","0.38324","5"],
    [3013,"HCEP03730564","2023-10-29 17:45:00","12.126","3.56682","27.71","1.292","7.47","0.389","3.51","0.07","0.2","30.6929","4.80367","14.58","0","SATNPRO1963","27.204","0.38106","5"],
    [3014,"HCEP03730564","2023-10-29 18:00:00","12.127","3.5666","27.556","1.362","7.47","0.344","3.207","0.05","0.13","30.6901","4.80324","15.37","0","SATNPRO1963","27.79","0.38922","5"],
    [3015,"HCEP03730564","2023-10-29 18:15:00","12.1262","3.56584","27.397","1.412","7.48","0.403","3.252","0.07","0.12","30.6835","4.80232","15.93","0","SATNPRO1963","28.198","0.39496","5"],
    [3016,"HCEP03730564","2023-10-29 18:30:00","12.1227","3.56465","27.171","1.409","7.48","0.472","3.319","0.17","0.16","30.6752","4.80118","15.9","0","SATNPRO1963","28.354","0.39716","5"],
    [3017,"HCEP03730564","2023-10-29 18:45:00","12.1213","3.5638","26.979","1.421","7.48","0.412","2.942","0.07","0.15","30.6683","4.80022","16.03","0","SATNPRO1963","28.546","0.39984","5"],
    [3018,"HCEP03730564","2023-10-29 19:00:00","12.1205","3.56347","26.768","1.418","7.48","0.407","2.99","0.1","0.11","30.6659","4.79987","15.99","0","SATNPRO1963","28.844","0.40402","5"],
    [3019,"HCEP03730564","2023-10-29 19:15:00","12.1192","3.56276","26.55","1.407","7.48","0.402","3.138","0.06","0.18","30.6602","4.79908","15.87","0","SATNPRO1963","29.454","0.41254","5"],
    [3020,"HCEP03730564","2023-10-29 19:30:00","12.1177","3.56224","26.324","1.392","7.48","0.424","3.474","0.07","0.17","30.6565","4.79857","15.7","0","SATNPRO1963","29.6","0.41462","5"],
    [3021,"HCEP03730564","2023-10-29 19:45:00","12.1188","3.56182","26.093","1.414","7.48","0.481","3.664","0.09","0.36","30.6518","4.79788","15.95","0","SATNPRO1963","29.456","0.41254","5"],
    [3022,"HCEP03730564","2023-10-29 20:00:00","12.1198","3.56187","25.818","1.45","7.48","0.418","3.494","0.07","0.16","30.6514","4.7978","16.36","0","SATNPRO1963","29.216","0.4092","5"],
    [3023,"HCEP03730564","2023-10-29 20:15:00","12.1188","3.56196","25.561","1.438","7.48","0.447","3.44","0.07","0.14","30.6533","4.79806","16.22","0","SATNPRO1963","28.605999999999998","0.40064","5"],
    [3024,"HCEP03730564","2023-10-29 20:30:00","12.1186","3.56231","25.308","1.42","7.48","0.37","3.151","0.08","0.09","30.6569","4.79855","16.02","0","SATNPRO1963","28.574","0.40022","5"],
    [3025,"HCEP03730564","2023-10-29 20:45:00","12.119","3.56233","25.067","1.42","7.48","0.43","3.109","0.07","0.15","30.6568","4.79853","16.01","0","SATNPRO1963","28.718","0.40222","5"],
    [3026,"HCEP03730564","2023-10-29 21:00:00","12.1191","3.56307","24.814","1.391","7.48","0.364","3.005","0.06","0.15","30.6639","4.7995","15.69","0","SATNPRO1963","28.452","0.3985","5"],
    [3027,"HCEP03730564","2023-10-29 21:15:00","12.1198","3.56346","24.569","1.374","7.48","0.401","3.034","0.06","0.13","30.6672","4.79995","15.49","0","SATNPRO1963","28.810000000000002","0.40352","5"],
    [3028,"HCEP03730564","2023-10-29 21:30:00","12.1199","3.5637","24.354","1.37","7.47","0.351","2.994","0.04","0.3","30.6694","4.80025","15.46","0","SATNPRO1963","28.76","0.40282","5"],
    [3029,"HCEP03730564","2023-10-29 21:45:00","12.1205","3.56378","24.174","1.374","7.48","0.428","2.969","0.08","0.18","30.6698","4.80029","15.49","0","SATNPRO1963","29.12","0.40788","5"],
    [3030,"HCEP03730564","2023-10-29 22:00:00","12.1208","3.56404","24.016","1.364","7.47","0.376","3.017","0.06","0.23","30.6721","4.80059","15.39","0","SATNPRO1963","28.794","0.40332","5"],
    [3031,"HCEP03730564","2023-10-29 22:15:00","12.1211","3.56427","23.912","1.361","7.47","0.399","2.957","0.06","0.18","30.6741","4.80087","15.35","0","SATNPRO1963","28.637999999999998","0.4011","5"],
    [3032,"HCEP03730564","2023-10-29 22:30:00","12.1217","3.56422","23.835","1.411","7.48","0.411","2.874","0.07","0.13","30.6732","4.80073","15.92","0","SATNPRO1963","28.82","0.40368","5"],
    [3033,"HCEP03730564","2023-10-29 22:45:00","12.1209","3.56457","23.774","1.352","7.48","0.41","3.039","0.1","0.12","30.6771","4.80129","15.26","0","SATNPRO1963","28.946","0.40546","5"],
    [3034,"HCEP03730564","2023-10-29 23:00:00","12.1215","3.56411","23.747","1.371","7.48","0.376","2.714","0.15","0.18","30.6723","4.80061","15.46","0","SATNPRO1963","29","0.4062","5"],
    [3035,"HCEP03730564","2023-10-29 23:15:00","12.1217","3.56393","23.747","1.43","7.48","0.42","2.402","0.13","0.11","30.6704","4.80034","16.13","0","SATNPRO1963","29.022","0.40648","5"],
    [3036,"HCEP03730564","2023-10-29 23:30:00","12.1196","3.56349","23.764","1.399","7.48","0.365","2.819","0.05","0.12","30.6679","4.80001","15.78","0","SATNPRO1963","29.738","0.41654","5"],
    [3037,"HCEP03730564","2023-10-29 23:45:00","12.1213","3.56344","23.81","1.408","7.48","0.389","2.838","0.07","0.26","30.666","4.79972","15.89","0","SATNPRO1963","28.95","0.4055","5"],
    [3038,"HCEP03730564","2023-10-30 00:00:00","12.1225","3.56343","23.903","1.432","7.48","0.34","2.969","0.06","0.15","30.6649","4.79955","16.15","0","SATNPRO1963","29.542","0.4138","5"],
    [3039,"HCEP03730564","2023-10-30 00:15:00","12.1247","3.56358","24.027","1.471","7.48","0.4","3.987","0.09","0.26","30.6645","4.79947","16.59","0","SATNPRO1963","29.906000000000002","0.4189","5"],
    [3040,"HCEP03730564","2023-10-30 00:30:00","12.1217","3.56347","24.213","1.453","7.48","0.383","4.093","0.06","0.25","30.6659","4.79972","16.39","0","SATNPRO1963","29.016","0.40642","5"],
    [3041,"HCEP03730564","2023-10-30 00:45:00","12.1223","3.56394","24.415","1.371","7.48","0.462","4.104","0.09","0.37","30.6698","4.80028","15.47","0","SATNPRO1963","28.996","0.40616","5"],
    [3042,"HCEP03730564","2023-10-30 01:00:00","12.1213","3.56414","24.603","1.356","7.47","0.376","4.383","0.05","0.28","30.6725","4.80068","15.29","0","SATNPRO1963","28.556","0.39998","5"],
    [3043,"HCEP03730564","2023-10-30 01:15:00","12.1214","3.56419","24.795","1.345","7.47","0.425","4.758","0.05","0.27","30.6727","4.80072","15.17","0","SATNPRO1963","28.68","0.40174","5"],
    [3044,"HCEP03730564","2023-10-30 01:30:00","12.1234","3.56447","24.993","1.37","7.47","0.384","4.737","0.04","0.22","30.6737","4.80084","15.46","0","SATNPRO1963","28.22","0.3953","5"],
    [3045,"HCEP03730564","2023-10-30 01:45:00","12.1251","3.56457","25.184","1.42","7.47","0.393","4.902","0.04","0.29","30.6732","4.80075","16.02","0","SATNPRO1963","28.014","0.3924","5"],
    [3046,"HCEP03730564","2023-10-30 02:00:00","12.1296","3.56477","25.381","1.549","7.48","0.376","4.668","0.06","0.61","30.6713","4.80044","17.47","0","SATNPRO1963","28.08","0.39334","5"],
    [3047,"HCEP03730564","2023-10-30 02:15:00","12.1355","3.56519","25.604","1.687","7.49","0.394","4.81","0.04","0.34","30.6704","4.80025","19.03","0","SATNPRO1963","27.674","0.3876","5"],
    [3048,"HCEP03730564","2023-10-30 02:30:00","12.1402","3.5656","25.826","1.826","7.5","0.346","4.789","0.03","0.43","30.6704","4.80019","20.61","0","SATNPRO1963","28.032","0.3926","5"],
    [3049,"HCEP03730564","2023-10-30 02:45:00","12.1424","3.56583","26.05","1.921","7.51","0.398","4.913","0.03","0.22","30.6707","4.80022","21.68","0","SATNPRO1963","28.470000000000002","0.3988","5"],
    [3050,"HCEP03730564","2023-10-30 03:00:00","12.1471","3.56589","26.279","2.074","7.52","0.366","4.656","0.03","0.25","30.6674","4.79969","23.41","0","SATNPRO1963","28.67","0.40158","5"],
    [3051,"HCEP03730564","2023-10-30 03:15:00","12.1508","3.56582","26.491","2.241","7.54","0.368","3.953","0.07","0.24","30.6636","4.79912","25.3","0","SATNPRO1963","28.714","0.40218","5"],
    [3052,"HCEP03730564","2023-10-30 03:30:00","12.1497","3.56542","26.688","2.277","7.55","0.345","3.744","0.06","0.18","30.6605","4.79872","25.69","0","SATNPRO1963","28.842","0.40396","5"],
    [3053,"HCEP03730564","2023-10-30 03:45:00","12.1485","3.5651","26.92","2.266","7.55","0.383","3.341","0.06","0.17","30.6584","4.79844","25.57","0","SATNPRO1963","29.306","0.41048","5"],
    [3054,"HCEP03730564","2023-10-30 04:00:00","12.1463","3.56477","27.113","2.198","7.55","0.35","3.942","0.08","0.26","30.657","4.79829","24.81","0","SATNPRO1963","29.986","0.42","5"],
    [3055,"HCEP03730564","2023-10-30 04:15:00","12.148","3.56481","27.28","2.248","7.55","0.369","3.368","0.06","0.32","30.6559","4.79812","25.37","0","SATNPRO1963","30.436","0.42628","5"],
    [3056,"HCEP03730564","2023-10-30 04:30:00","12.1475","3.56481","27.432","2.236","7.55","0.359","3.973","0.04","0.17","30.6562","4.79818","25.24","0","SATNPRO1963","30.102","0.42162","5"],
    [3057,"HCEP03730564","2023-10-30 04:45:00","12.1471","3.56482","27.557","2.209","7.55","0.377","3.677","0.07","0.16","30.6565","4.79824","24.93","0","SATNPRO1963","30.326","0.4248","5"],
    [3058,"HCEP03730564","2023-10-30 05:00:00","12.1483","3.56505","27.666","2.227","7.55","0.332","3.583","0.05","0.13","30.6577","4.7984","25.13","0","SATNPRO1963","30.062","0.4211","5"],
    [3059,"HCEP03730564","2023-10-30 05:15:00","12.1463","3.56551","27.751","2.167","7.55","0.49","6.5","0.06","0.53","30.6638","4.79928","24.45","0","SATNPRO1963","30.176","0.42268","5"],
    [3060,"HCEP03730564","2023-10-30 05:30:00","12.1439","3.56578","27.789","2.059","7.54","0.392","5.684","0.04","0.32","30.6683","4.79995","23.24","0","SATNPRO1963","29.988","0.42004","5"],
    [3061,"HCEP03730564","2023-10-30 05:45:00","12.1402","3.56562","27.821","1.954","7.54","0.44","6.278","0.07","0.32","30.6697","4.80021","22.05","0","SATNPRO1963","30.158","0.4224","5"],
    [3062,"HCEP03730564","2023-10-30 06:00:00","12.1418","3.56579","27.826","1.918","7.53","0.374","4.839","0.06","0.43","30.6702","4.80025","21.64","0","SATNPRO1963","30.3","0.4244","5"],
    [3063,"HCEP03730564","2023-10-30 06:15:00","12.1438","3.5659","27.807","2.013","7.53","0.381","4.354","0.09","0.16","30.6695","4.80013","22.71","0","SATNPRO1963","29.698","0.41596","5"],
    [3064,"HCEP03730564","2023-10-30 06:30:00","12.1461","3.56597","27.792","2.047","7.53","0.344","3.751","0.08","0.1","30.6683","4.79993","23.1","0","SATNPRO1963","29.444","0.41242","5"],
    [3065,"HCEP03730564","2023-10-30 06:45:00","12.1484","3.56608","27.771","2.147","7.54","0.359","3.05","0.08","0.18","30.6675","4.79978","24.24","0","SATNPRO1963","29.378","0.41152","5"],
    [3066,"HCEP03730564","2023-10-30 07:00:00","12.1492","3.56603","27.732","2.192","7.55","0.358","3.076","0.09","0.23","30.6664","4.79961","24.74","0","SATNPRO1963","29.612000000000002","0.4148","5"],
    [3067,"HCEP03730564","2023-10-30 07:15:00","12.1499","3.56611","27.685","2.215","7.55","0.468","2.785","0.15","0.12","30.6665","4.79961","25","0","SATNPRO1963","29.49","0.4131","5"],
    [3068,"HCEP03730564","2023-10-30 07:30:00","12.1471","3.56577","27.614","2.162","7.55","0.373","4.274","0.05","0.31","30.6657","4.79953","24.4","0","SATNPRO1963","29.75","0.41672","5"],
    [3069,"HCEP03730564","2023-10-30 07:45:00","12.1474","3.56575","27.538","2.146","7.55","0.414","3.986","0.11","0.37","30.6652","4.79946","24.22","0","SATNPRO1963","30.176000000000002","0.42266","5"],
    [3070,"HCEP03730564","2023-10-30 08:00:00","12.1456","3.56538","27.47","2.097","7.55","0.377","4.035","0.07","0.26","30.6632","4.79919","23.67","0","SATNPRO1963","30.258","0.4238","5"],
    [3071,"HCEP03730564","2023-10-30 08:15:00","12.1486","3.56563","27.382","2.177","7.55","0.366","2.98","0.07","0.47","30.6632","4.79915","24.57","0","SATNPRO1963","30.25","0.4237","5"],
    [3072,"HCEP03730564","2023-10-30 08:30:00","12.1483","3.56528","27.3","2.207","7.55","0.374","3.622","0.06","0.58","30.6601","4.79871","24.9","0","SATNPRO1963","30.052","0.42094","5"],
    [3073,"HCEP03730564","2023-10-30 08:45:00","12.1469","3.56458","27.198","2.195","7.55","0.409","2.388","0.08","0.11","30.6546","4.79795","24.77","0","SATNPRO1963","29.972","0.41982","5"],
    [3074,"HCEP03730564","2023-10-30 09:00:00","12.1418","3.56391","27.113","2.108","7.55","0.401","3.483","0.07","0.21","30.6524","4.7977","23.79","0","SATNPRO1963","29.87","0.41838","5"],
    [3075,"HCEP03730564","2023-10-30 09:15:00","12.1361","3.56324","27.005","1.927","7.54","0.507","4.464","0.1","0.17","30.6507","4.79754","21.74","0","SATNPRO1963","30.32","0.42472","5"],
    [3076,"HCEP03730564","2023-10-30 09:30:00","12.136","3.5632","26.894","1.874","7.53","0.455","4.651","0.08","0.21","30.6505","4.7975","21.14","0","SATNPRO1963","30.07","0.42118","5"],
    [3077,"HCEP03730564","2023-10-30 09:45:00","12.1382","3.56358","26.778","1.917","7.53","0.467","4.312","0.06","0.21","30.6524","4.79773","21.62","0","SATNPRO1963","30.124","0.42192","5"],
    [3078,"HCEP03730564","2023-10-30 10:00:00","12.1406","3.56323","26.658","2.041","7.53","0.43","2.873","0.11","0.13","30.6471","4.79695","23.03","0","SATNPRO1963","29.79","0.41724","5"],
    [3079,"HCEP03730564","2023-10-30 10:15:00","12.1418","3.56304","26.553","2.141","7.54","0.42","2.201","0.06","0.18","30.6443","4.79653","24.16","0","SATNPRO1963","28.6","0.40056","5"],
    [3080,"HCEP03730564","2023-10-30 10:30:00","12.1351","3.56226","26.468","2.047","7.54","0.492","3.418","0.07","0.29","30.6425","4.79636","23.1","0","SATNPRO1963","28.672","0.4016","5"],
    [3081,"HCEP03730564","2023-10-30 10:45:00","12.1288","3.56319","26.351","1.733","7.52","0.611","6.533","0.16","0.38","30.6566","4.79843","19.55","0","SATNPRO1963","29.080000000000002","0.4073","5"],
    [3082,"HCEP03730564","2023-10-30 11:00:00","12.1258","3.56301","26.271","1.559","7.51","0.606","5.871","0.22","0.34","30.6572","4.79855","17.58","0","SATNPRO1963","30.198","0.42298","5"],
    [3083,"HCEP03730564","2023-10-30 11:15:00","12.1229","3.56265","26.206","1.465","7.5","0.604","6.237","0.1","0.41","30.6563","4.79846","16.52","0","SATNPRO1963","30.664","0.4295","5"],
    [3084,"HCEP03730564","2023-10-30 11:30:00","12.119","3.56174","26.201","1.388","7.49","0.593","5.229","0.1","0.31","30.6508","4.79773","15.65","0","SATNPRO1963","30.034","0.42068","5"],
    [3085,"HCEP03730564","2023-10-30 11:45:00","12.118","3.56199","26.21","1.339","7.48","0.613","5.364","0.09","0.65","30.654","4.7982","15.1","0","SATNPRO1963","28.102","0.39362","5"],
    [3086,"HCEP03730564","2023-10-30 12:00:00","12.1174","3.56243","26.231","1.308","7.48","0.537","4.811","0.11","0.55","30.6586","4.79886","14.75","0","SATNPRO1963","27.954","0.39154","5"],
    [3087,"HCEP03730564","2023-10-30 12:15:00","12.1174","3.56272","26.282","1.286","7.47","0.549","4.286","0.11","0.37","30.6614","4.79926","14.51","0","SATNPRO1963","28.012","0.39238","5"],
    [3088,"HCEP03730564","2023-10-30 12:30:00","12.1164","3.56316","26.339","1.235","7.47","0.522","4.614","0.11","0.31","30.6663","4.79997","13.93","0","SATNPRO1963","28.234","0.39546","5"],
    [3089,"HCEP03730564","2023-10-30 12:45:00","12.1161","3.56345","26.403","1.177","7.46","0.537","5.025","0.08","0.52","30.6694","4.80041","13.28","0","SATNPRO1963","28.004","0.39224","5"],
    [3090,"HCEP03730564","2023-10-30 13:00:00","12.1158","3.5639","26.506","1.13","7.46","0.522","5.012","0.08","0.52","30.6739","4.80106","12.75","0","SATNPRO1963","28.504","0.39924","5"],
    [3091,"HCEP03730564","2023-10-30 13:15:00","12.116","3.56421","26.589","1.106","7.46","0.546","4.617","0.1","0.5","30.6767","4.80145","12.48","0","SATNPRO1963","28.598","0.4006","5"],
    [3092,"HCEP03730564","2023-10-30 13:30:00","12.1154","3.56416","26.696","1.077","7.45","0.496","4.249","0.12","0.28","30.6767","4.80146","12.15","0","SATNPRO1963","28.108","0.39372","5"],
    [3093,"HCEP03730564","2023-10-30 13:45:00","12.1146","3.56401","26.808","1.051","7.45","0.553","3.777","0.29","0.25","30.6758","4.80136","11.85","0","SATNPRO1963","27.734","0.38848","5"],
    [3094,"HCEP03730564","2023-10-30 14:00:00","12.1141","3.56387","26.918","1.032","7.45","0.438","3.809","0.06","0.19","30.6748","4.80123","11.64","0","SATNPRO1963","27.64","0.38712","5"],
    [3095,"HCEP03730564","2023-10-30 14:15:00","12.1142","3.56397","27.034","1.024","7.45","0.534","3.894","0.1","0.21","30.6756","4.80135","11.55","0","SATNPRO1963","27.518","0.38542","5"],
    [3096,"HCEP03730564","2023-10-30 14:30:00","12.1139","3.56397","27.148","1.019","7.45","0.476","3.714","0.07","0.26","30.6758","4.80139","11.49","0","SATNPRO1963","26.95","0.37748","5"],
    [3097,"HCEP03730564","2023-10-30 14:45:00","12.1138","3.56391","27.263","1.011","7.45","0.509","3.563","0.16","0.22","30.6753","4.80132","11.4","0","SATNPRO1963","27.118","0.37978","5"],
    [3098,"HCEP03730564","2023-10-30 15:00:00","12.1138","3.56398","27.375","1.009","7.45","0.477","3.522","0.11","0.22","30.6759","4.80142","11.38","0","SATNPRO1963","27.012","0.37834","5"],
    [3099,"HCEP03730564","2023-10-30 15:15:00","12.1137","3.5639","27.519","1.011","7.45","0.533","3.393","0.1","0.19","30.6752","4.80132","11.4","0","SATNPRO1963","26.83","0.37578","5"],
    [3100,"HCEP03730564","2023-10-30 15:30:00","12.1138","3.564","27.625","1.014","7.45","0.478","3.558","0.1","0.22","30.6761","4.80145","11.44","0","SATNPRO1963","27.008","0.3783","5"],
    [3101,"HCEP03730564","2023-10-30 15:45:00","12.1138","3.56401","27.708","1.019","7.45","0.471","3.705","0.06","0.33","30.6761","4.80146","11.5","0","SATNPRO1963","26.887999999999998","0.3766","5"],
    [3102,"HCEP03730564","2023-10-30 16:00:00","12.1146","3.56393","27.774","1.041","7.45","0.45","3.184","0.09","0.2","30.6746","4.80125","11.74","0","SATNPRO1963","26.824","0.37568","5"],
    [3103,"HCEP03730564","2023-10-30 16:15:00","12.1144","3.56412","27.833","1.036","7.45","0.594","3.508","0.19","0.28","30.6766","4.80153","11.69","0","SATNPRO1963","26.82","0.3757","5"],
    [3104,"HCEP03730564","2023-10-30 16:30:00","12.1145","3.56419","27.874","1.035","7.45","0.488","3.594","0.13","0.18","30.6772","4.80162","11.67","0","SATNPRO1963","26.848","0.37608","5"],
    [3105,"HCEP03730564","2023-10-30 16:45:00","12.1138","3.56417","27.888","1.024","7.45","0.535","3.753","0.12","0.21","30.6775","4.80167","11.55","0","SATNPRO1963","27.756","0.38874","5"],
    [3106,"HCEP03730564","2023-10-30 17:00:00","12.1144","3.56423","27.888","1.038","7.45","0.428","3.58","0.09","0.32","30.6776","4.80168","11.71","0","SATNPRO1963","27.067999999999998","0.37916","5"],
    [3107,"HCEP03730564","2023-10-30 17:15:00","12.1144","3.56423","27.869","1.037","7.45","0.455","3.685","0.12","0.2","30.6777","4.80169","11.69","0","SATNPRO1963","27.108","0.37968","5"],
    [3108,"HCEP03730564","2023-10-30 17:30:00","12.1138","3.56405","27.828","1.046","7.45","0.453","3.991","0.1","0.32","30.6765","4.80152","11.8","0","SATNPRO1963","27.334","0.38286","5"],
    [3109,"HCEP03730564","2023-10-30 17:45:00","12.1156","3.56425","27.773","1.073","7.45","0.539","3.768","0.23","0.29","30.6769","4.80155","12.11","0","SATNPRO1963","27.236","0.38152","5"],
    [3110,"HCEP03730564","2023-10-30 18:00:00","12.116","3.5641","27.684","1.09","7.45","0.429","3.702","0.13","0.25","30.6752","4.8013","12.3","0","SATNPRO1963","27.46","0.38462","5"],
    [3111,"HCEP03730564","2023-10-30 18:15:00","12.1133","3.56381","27.569","1.045","7.45","0.552","4.085","0.15","0.25","30.6747","4.80126","11.79","0","SATNPRO1963","26.994","0.37812","5"],
    [3112,"HCEP03730564","2023-10-30 18:30:00","12.113","3.56374","27.443","1.019","7.45","0.431","3.809","0.06","0.17","30.6743","4.80121","11.5","0","SATNPRO1963","26.964","0.37766","5"],
    [3113,"HCEP03730564","2023-10-30 18:45:00","12.1129","3.56359","27.299","1.026","7.44","0.524","4.249","0.11","0.37","30.673","4.80101","11.57","0","SATNPRO1963","27.778","0.38906","5"],
    [3114,"HCEP03730564","2023-10-30 19:00:00","12.1138","3.5635","27.126","1.028","7.44","0.482","4.264","0.1","0.18","30.6714","4.80076","11.6","0","SATNPRO1963","27.584","0.38636","5"],
    [3115,"HCEP03730564","2023-10-30 19:15:00","12.1137","3.56348","26.949","1.038","7.44","0.563","4.388","0.13","0.27","30.6714","4.80076","11.71","0","SATNPRO1963","26.906","0.37686","5"],
    [3116,"HCEP03730564","2023-10-30 19:30:00","12.1139","3.56342","26.747","1.044","7.45","0.527","4.272","0.12","0.26","30.6708","4.80065","11.78","0","SATNPRO1963","27.064","0.37906","5"],
    [3117,"HCEP03730564","2023-10-30 19:45:00","12.1133","3.56333","26.529","1.028","7.45","0.613","4.588","0.11","0.26","30.6705","4.80062","11.6","0","SATNPRO1963","26.746","0.37464","5"],
    [3118,"HCEP03730564","2023-10-30 20:00:00","12.1129","3.5633","26.302","1.017","7.45","0.553","4.535","0.12","0.2","30.6705","4.80061","11.47","0","SATNPRO1963","26.782","0.37514","5"],
    [3119,"HCEP03730564","2023-10-30 20:15:00","12.1123","3.56329","26.066","1.004","7.44","0.583","4.645","0.13","0.29","30.6711","4.80068","11.32","0","SATNPRO1963","26.938","0.37732","5"],
    [3120,"HCEP03730564","2023-10-30 20:30:00","12.112","3.56333","25.814","0.993","7.44","0.516","4.369","0.11","0.3","30.6718","4.80078","11.2","0","SATNPRO1963","26.804","0.37542","5"],
    [3121,"HCEP03730564","2023-10-30 20:45:00","12.1125","3.56336","25.557","1.003","7.44","0.488","4.227","0.06","0.22","30.6718","4.80075","11.31","0","SATNPRO1963","26.54","0.3717","5"],
    [3122,"HCEP03730564","2023-10-30 21:00:00","12.1131","3.56329","25.302","1.014","7.44","0.491","4.035","0.11","0.22","30.6708","4.80059","11.43","0","SATNPRO1963","26.596","0.37254","5"],
    [3123,"HCEP03730564","2023-10-30 21:15:00","12.1132","3.56327","25.063","1.017","7.45","0.507","3.732","0.11","0.16","30.6706","4.80054","11.47","0","SATNPRO1963","26.616","0.37282","5"],
    [3124,"HCEP03730564","2023-10-30 21:30:00","12.1132","3.56329","24.82","1.015","7.45","0.529","3.869","0.12","0.15","30.6708","4.80057","11.45","0","SATNPRO1963","26.656","0.3734","5"],
    [3125,"HCEP03730564","2023-10-30 21:45:00","12.1136","3.56329","24.592","1.016","7.45","0.546","4.974","0.1","2.21","30.6706","4.80052","11.46","0","SATNPRO1963","26.934","0.37726","5"],
    [3126,"HCEP03730564","2023-10-30 22:00:00","12.1132","3.56319","24.386","1.024","7.45","0.454","3.645","0.09","0.13","30.6701","4.80043","11.55","0","SATNPRO1963","26.706","0.37408","5"],
    [3127,"HCEP03730564","2023-10-30 22:15:00","12.1133","3.56313","24.179","1.031","7.45","0.424","3.461","0.05","0.19","30.6695","4.80035","11.62","0","SATNPRO1963","26.896","0.3767","5"],
    [3128,"HCEP03730564","2023-10-30 22:30:00","12.1134","3.56311","24.011","1.037","7.45","0.47","3.682","0.08","0.17","30.6693","4.80031","11.69","0","SATNPRO1963","27.098","0.37956","5"],
    [3129,"HCEP03730564","2023-10-30 22:45:00","12.1138","3.56319","23.884","1.05","7.45","0.483","3.667","0.08","0.15","30.6698","4.80036","11.84","0","SATNPRO1963","27.014","0.3784","5"],
    [3130,"HCEP03730564","2023-10-30 23:00:00","12.1156","3.56332","23.767","1.082","7.45","0.421","3.868","0.05","0.29","30.6696","4.8003","12.2","0","SATNPRO1963","27.22","0.38124","5"],
    [3131,"HCEP03730564","2023-10-30 23:15:00","12.1156","3.56338","23.716","1.109","7.45","0.473","3.896","0.07","0.31","30.6701","4.80037","12.51","0","SATNPRO1963","26.788","0.37524","5"],
    [3132,"HCEP03730564","2023-10-30 23:30:00","12.119","3.56364","23.698","1.156","7.45","0.525","3.768","0.14","0.19","30.6699","4.8003","13.04","0","SATNPRO1963","26.856","0.37618","5"],
    [3133,"HCEP03730564","2023-10-30 23:45:00","12.1219","3.56391","23.703","1.205","7.46","0.554","3.74","0.15","0.25","30.6701","4.80028","13.6","0","SATNPRO1963","26.968","0.37774","5"],
    [3134,"HCEP03730564","2023-10-31 00:00:00","12.1215","3.56378","23.711","1.3","7.46","0.465","4.026","0.09","0.25","30.6692","4.80016","14.66","0","SATNPRO1963","27.076","0.37928","5"],
    [3135,"HCEP03730564","2023-10-31 00:15:00","12.1235","3.56405","23.749","1.295","7.46","0.544","4.035","0.11","0.3","30.6701","4.80027","14.61","0","SATNPRO1963","27.04","0.37876","5"],
    [3136,"HCEP03730564","2023-10-31 00:30:00","12.1278","3.56428","23.824","1.404","7.47","0.526","4.168","0.1","0.41","30.6688","4.80002","15.84","0","SATNPRO1963","27.244","0.3816","5"],
    [3137,"HCEP03730564","2023-10-31 00:45:00","12.1205","3.56378","23.928","1.348","7.47","0.62","4.625","0.19","0.23","30.67","4.8003","15.21","0","SATNPRO1963","28.058","0.39302","5"],
    [3138,"HCEP03730564","2023-10-31 01:00:00","12.1304","3.5648","24.054","1.444","7.47","0.511","4.144","0.16","0.35","30.6715","4.80038","16.3","0","SATNPRO1963","28.548","0.39988","5"],
    [3139,"HCEP03730564","2023-10-31 01:15:00","12.126","3.56391","24.234","1.497","7.48","0.658","5.505","0.12","0.36","30.6665","4.79975","16.89","0","SATNPRO1963","28.438","0.39834","5"],
    [3140,"HCEP03730564","2023-10-31 01:30:00","12.136","3.56463","24.431","1.594","7.49","0.568","4.747","0.12","0.27","30.6651","4.79943","17.98","0","SATNPRO1963","28.894","0.40474","5"],
    [3141,"HCEP03730564","2023-10-31 01:45:00","12.1357","3.5645","24.628","1.758","7.5","0.583","4.871","0.13","0.36","30.664","4.79929","19.84","0","SATNPRO1963","27.174","0.3806","5"],
    [3142,"HCEP03730564","2023-10-31 02:00:00","12.1369","3.56476","24.828","1.745","7.51","0.623","5.409","0.13","0.34","30.6655","4.79949","19.69","0","SATNPRO1963","28.926","0.40516","5"],
    [3143,"HCEP03730564","2023-10-31 02:15:00","12.1357","3.56471","25.027","1.732","7.51","0.642","5.359","0.14","0.28","30.6659","4.79958","19.54","0","SATNPRO1963","27.482","0.38492","5"],
    [3144,"HCEP03730564","2023-10-31 02:30:00","12.1351","3.56479","25.238","1.715","7.51","0.955","5.98","0.99","0.51","30.667","4.79976","19.35","0","SATNPRO1963","29.546","0.41384","5"],
    [3145,"HCEP03730564","2023-10-31 02:45:00","12.1364","3.56487","25.449","1.733","7.51","0.684","5.65","0.09","0.51","30.6667","4.79969","19.55","0","SATNPRO1963","29.366","0.41132","5"],
    [3146,"HCEP03730564","2023-10-31 03:00:00","12.1369","3.5649","25.658","1.759","7.51","0.639","5.325","0.19","0.3","30.6665","4.79968","19.85","0","SATNPRO1963","28.662","0.40146","5"],
    [3147,"HCEP03730564","2023-10-31 03:15:00","12.1376","3.56488","25.885","1.776","7.51","0.759","5.974","0.1","0.28","30.6656","4.79956","20.04","0","SATNPRO1963","28.194","0.3949","5"],
    [3148,"HCEP03730564","2023-10-31 03:30:00","12.1378","3.56481","26.114","1.799","7.51","0.648","5.953","0.08","0.6","30.6647","4.79944","20.3","0","SATNPRO1963","28.506","0.3993","5"],
    [3149,"HCEP03730564","2023-10-31 03:45:00","12.1393","3.56454","26.338","1.855","7.51","0.739","6.041","0.17","0.33","30.6608","4.79888","20.94","0","SATNPRO1963","28.514","0.39932","5"],
    [3150,"HCEP03730564","2023-10-31 04:00:00","12.1413","3.56423","26.593","1.922","7.52","0.74","6.142","0.11","0.48","30.6561","4.79821","21.69","0","SATNPRO1963","28.566","0.4001","5"],
    [3151,"HCEP03730564","2023-10-31 04:15:00","12.1431","3.56369","26.81","2.002","7.52","0.795","5.913","0.11","0.49","30.6494","4.79725","22.59","0","SATNPRO1963","28.666","0.40154","5"],
    [3152,"HCEP03730564","2023-10-31 04:30:00","12.1429","3.56338","26.997","2.051","7.53","0.744","5.264","0.13","0.26","30.6465","4.79685","23.14","0","SATNPRO1963","28.798","0.4034","5"],
    [3153,"HCEP03730564","2023-10-31 04:45:00","12.1475","3.56344","27.157","2.216","7.54","0.664","3.207","0.23","0.31","30.6432","4.79633","25.01","0","SATNPRO1963","29.028","0.40662","5"],
    [3154,"HCEP03730564","2023-10-31 05:00:00","12.1444","3.56329","27.346","2.207","7.55","0.675","4.279","0.21","0.25","30.6443","4.79653","24.91","0","SATNPRO1963","29.19","0.40888","5"],
    [3155,"HCEP03730564","2023-10-31 05:15:00","12.1422","3.56349","27.489","2.065","7.54","0.756","5.561","0.12","0.4","30.648","4.7971","23.31","0","SATNPRO1963","29.748","0.41666","5"],
    [3156,"HCEP03730564","2023-10-31 05:30:00","12.1416","3.56388","27.623","1.991","7.54","0.687","6.143","0.09","0.39","30.6521","4.7977","22.47","0","SATNPRO1963","29.812","0.41758","5"],
    [3157,"HCEP03730564","2023-10-31 05:45:00","12.141","3.56415","27.761","1.951","7.53","0.713","5.216","0.1","0.3","30.6551","4.79813","22.01","0","SATNPRO1963","30.994","0.43414","5"],
    [3158,"HCEP03730564","2023-10-31 06:00:00","12.1392","3.5646","27.815","1.887","7.53","0.646","4.846","0.1","0.22","30.6609","4.79898","21.3","0","SATNPRO1963","31.246","0.43766","5"],
    [3159,"HCEP03730564","2023-10-31 06:15:00","12.1398","3.56472","27.874","1.855","7.52","0.591","4.456","0.13","0.26","30.6615","4.79906","20.94","0","SATNPRO1963","29.567999999999998","0.41414","5"],
    [3160,"HCEP03730564","2023-10-31 06:30:00","12.1405","3.56468","27.916","1.873","7.52","0.532","4.246","0.12","0.29","30.6605","4.79891","21.14","0","SATNPRO1963","29.39","0.41168","5"],
    [3161,"HCEP03730564","2023-10-31 06:45:00","12.1394","3.56479","27.933","1.853","7.52","0.592","3.933","0.14","0.22","30.6625","4.7992","20.91","0","SATNPRO1963","29.318","0.41066","5"],
    [3162,"HCEP03730564","2023-10-31 07:00:00","12.1393","3.56496","27.949","1.83","7.52","0.577","4.085","0.12","0.24","30.6641","4.79944","20.65","0","SATNPRO1963","28.976","0.40584","5"],
    [3163,"HCEP03730564","2023-10-31 07:15:00","12.14","3.56499","27.957","1.832","7.52","0.544","3.994","0.12","0.28","30.6638","4.79939","20.67","0","SATNPRO1963","29.1","0.40756","5"],
    [3164,"HCEP03730564","2023-10-31 07:30:00","12.1412","3.56469","27.942","1.887","7.52","0.672","3.885","0.16","0.34","30.6601","4.79884","21.29","0","SATNPRO1963","29.444","0.41244","5"],
    [3165,"HCEP03730564","2023-10-31 07:45:00","12.1399","3.56492","27.918","1.881","7.52","0.547","4.032","0.14","0.4","30.6634","4.79932","21.23","0","SATNPRO1963","29.154","0.40836","5"],
    [3166,"HCEP03730564","2023-10-31 08:00:00","12.14","3.56492","27.88","1.858","7.52","0.511","3.682","0.12","0.16","30.6633","4.79931","20.97","0","SATNPRO1963","28.996000000000002","0.40616","5"],
    [3167,"HCEP03730564","2023-10-31 08:15:00","12.1392","3.56497","27.827","1.829","7.52","0.823","3.984","0.52","0.27","30.6644","4.79947","20.64","0","SATNPRO1963","29.1","0.40762","5"],
    [3168,"HCEP03730564","2023-10-31 08:30:00","12.14","3.56502","27.763","1.833","7.52","0.514","3.974","0.11","0.91","30.6643","4.79944","20.68","0","SATNPRO1963","29.532","0.41366","5"],
    [3169,"HCEP03730564","2023-10-31 08:45:00","12.14","3.56504","27.695","1.836","7.52","0.48","3.448","0.11","0.16","30.6645","4.79947","20.72","0","SATNPRO1963","29.088","0.4074","5"],
    [3170,"HCEP03730564","2023-10-31 09:00:00","12.1396","3.56507","27.621","1.825","7.52","0.564","3.556","0.15","0.35","30.6651","4.79956","20.6","0","SATNPRO1963","29.346","0.41106","5"],
    [3171,"HCEP03730564","2023-10-31 09:15:00","12.14","3.56507","27.544","1.838","7.52","0.539","3.254","0.1","0.18","30.6648","4.7995","20.74","0","SATNPRO1963","29.122","0.40792","5"],
    [3172,"HCEP03730564","2023-10-31 09:30:00","12.1404","3.56503","27.459","1.854","7.52","0.711","3.268","0.47","0.3","30.6642","4.7994","20.92","0","SATNPRO1963","29.116","0.4078","5"],
    [3173,"HCEP03730564","2023-10-31 09:45:00","12.14","3.56503","27.369","1.839","7.52","0.687","3.323","0.25","0.15","30.6645","4.79945","20.75","0","SATNPRO1963","29.322","0.41072","5"],
    [3174,"HCEP03730564","2023-10-31 10:00:00","12.138","3.56494","27.277","1.789","7.52","0.567","4.209","0.19","0.41","30.6653","4.79958","20.19","0","SATNPRO1963","29.2","0.40902","5"],
    [3175,"HCEP03730564","2023-10-31 10:15:00","12.1395","3.56538","27.181","1.787","7.51","0.712","3.171","0.26","0.17","30.6683","4.79998","20.17","0","SATNPRO1963","29.564","0.4141","5"],
    [3176,"HCEP03730564","2023-10-31 10:30:00","12.1399","3.56555","27.09","1.796","7.51","0.6","2.705","0.28","0.13","30.6696","4.80016","20.26","0","SATNPRO1963","29.326","0.41078","5"],
    [3177,"HCEP03730564","2023-10-31 10:45:00","12.1369","3.56532","26.995","1.733","7.51","0.587","3.494","0.11","0.13","30.67","4.80025","19.56","0","SATNPRO1963","29.398","0.41176","5"],
    [3178,"HCEP03730564","2023-10-31 11:00:00","12.1325","3.56489","26.894","1.609","7.5","0.658","4.757","0.17","0.2","30.6695","4.80023","18.16","0","SATNPRO1963","28.944","0.4054","5"],
    [3179,"HCEP03730564","2023-10-31 11:15:00","12.1296","3.56469","26.794","1.506","7.5","0.762","5.448","0.12","0.32","30.67","4.80034","16.99","0","SATNPRO1963","29.406000000000002","0.41196","5"],
    [3180,"HCEP03730564","2023-10-31 11:30:00","12.1282","3.56457","26.712","1.447","7.49","0.606","4.613","0.11","0.32","30.6701","4.80036","16.32","0","SATNPRO1963","29.46","0.41264","5"],
    [3181,"HCEP03730564","2023-10-31 11:45:00","12.1271","3.56438","26.624","1.418","7.48","0.705","5.192","0.08","0.36","30.6691","4.80024","16","0","SATNPRO1963","29.11","0.40774","5"],
    [3182,"HCEP03730564","2023-10-31 12:00:00","12.1264","3.56428","26.517","1.415","7.48","0.778","5.615","0.23","0.34","30.6689","4.8002","15.97","0","SATNPRO1963","28.69","0.40188","5"],
    [3183,"HCEP03730564","2023-10-31 12:15:00","12.1263","3.56414","26.434","1.415","7.48","0.709","5.253","0.1","0.24","30.6676","4.80002","15.96","0","SATNPRO1963","28.376","0.39742","5"],
    [3184,"HCEP03730564","2023-10-31 12:30:00","12.1254","3.56402","26.436","1.393","7.48","0.746","5.269","0.14","0.39","30.6672","4.79998","15.71","0","SATNPRO1963","28.445999999999998","0.39846","5"],
    [3185,"HCEP03730564","2023-10-31 12:45:00","12.1273","3.56411","26.472","1.429","7.48","0.84","5.268","0.2","0.48","30.6664","4.79985","16.12","0","SATNPRO1963","28.082","0.39334","5"],
    [3186,"HCEP03730564","2023-10-31 13:00:00","12.1268","3.564","26.504","1.424","7.48","0.759","5.832","0.15","0.5","30.6658","4.79976","16.06","0","SATNPRO1963","27.93","0.39118","5"],
    [3187,"HCEP03730564","2023-10-31 13:15:00","12.1247","3.56384","26.55","1.376","7.48","0.766","5.278","0.18","0.43","30.6659","4.79982","15.53","0","SATNPRO1963","28.006","0.3923","5"],
    [3188,"HCEP03730564","2023-10-31 13:30:00","12.121","3.56357","26.612","1.296","7.47","0.728","5.41","0.14","0.81","30.6664","4.79994","14.62","0","SATNPRO1963","27.932","0.39124","5"],
    [3189,"HCEP03730564","2023-10-31 13:45:00","12.1225","3.56362","26.677","1.254","7.47","0.762","4.502","0.18","0.43","30.6656","4.79981","14.15","0","SATNPRO1963","28.024","0.3925","5"],
    [3190,"HCEP03730564","2023-10-31 14:00:00","12.1204","3.56353","26.754","1.24","7.47","0.705","4.224","0.21","0.43","30.6665","4.79996","13.99","0","SATNPRO1963","28.046","0.39282","5"],
    [3191,"HCEP03730564","2023-10-31 14:15:00","12.1207","3.56356","26.838","1.231","7.47","0.663","3.815","0.16","0.28","30.6664","4.79996","13.88","0","SATNPRO1963","27.849999999999998","0.39012","5"],
    [3192,"HCEP03730564","2023-10-31 14:30:00","12.1193","3.5635","26.933","1.208","7.46","0.626","3.753","0.13","0.29","30.667","4.80006","13.63","0","SATNPRO1963","27.136","0.38006","5"],
    [3193,"HCEP03730564","2023-10-31 14:45:00","12.1187","3.56347","27.032","1.18","7.46","0.721","3.928","0.14","0.38","30.6672","4.8001","13.31","0","SATNPRO1963","27.588","0.38642","5"],
    [3194,"HCEP03730564","2023-10-31 15:00:00","12.1183","3.56344","27.122","1.153","7.46","0.548","3.559","0.09","0.22","30.6672","4.80011","13","0","SATNPRO1963","27.716","0.38816","5"],
    [3195,"HCEP03730564","2023-10-31 15:15:00","12.118","3.56345","27.208","1.149","7.46","0.614","3.596","0.14","0.18","30.6675","4.80017","12.96","0","SATNPRO1963","27.412","0.38394","5"],
    [3196,"HCEP03730564","2023-10-31 15:30:00","12.1166","3.56338","27.291","1.126","7.46","0.604","3.539","0.13","0.19","30.6679","4.80024","12.7","0","SATNPRO1963","27.778","0.38908","5"],
    [3197,"HCEP03730564","2023-10-31 15:45:00","12.1156","3.56333","27.378","1.095","7.45","0.688","4.288","0.16","1.43","30.6682","4.8003","12.36","0","SATNPRO1963","27.5","0.38524","5"],
    [3198,"HCEP03730564","2023-10-31 16:00:00","12.1133","3.56316","27.46","1.04","7.45","0.657","3.855","0.23","0.51","30.6686","4.80039","11.73","0","SATNPRO1963","27.43","0.38416","5"],
    [3199,"HCEP03730564","2023-10-31 16:15:00","12.1136","3.56318","27.543","1.021","7.45","0.715","3.714","0.2","0.58","30.6684","4.80037","11.51","0","SATNPRO1963","27.582","0.38634","5"],
    [3200,"HCEP03730564","2023-10-31 16:30:00","12.1131","3.56317","27.607","1.013","7.45","0.594","3.38","0.14","0.12","30.6687","4.80042","11.42","0","SATNPRO1963","27.56","0.38602","5"],
    [3201,"HCEP03730564","2023-10-31 16:45:00","12.1133","3.56321","27.654","1.016","7.45","0.669","3.526","0.18","0.33","30.6689","4.80045","11.46","0","SATNPRO1963","27.512","0.38538","5"],
    [3202,"HCEP03730564","2023-10-31 17:00:00","12.1143","3.56327","27.688","1.023","7.44","0.752","3.457","0.18","0.33","30.6686","4.8004","11.53","0","SATNPRO1963","27.490000000000002","0.38506","5"],
    [3203,"HCEP03730564","2023-10-31 17:15:00","12.1141","3.56327","27.717","1.033","7.44","0.792","3.638","0.15","0.38","30.6688","4.80043","11.65","0","SATNPRO1963","27.323999999999998","0.38272","5"],
    [3204,"HCEP03730564","2023-10-31 17:30:00","12.1151","3.56335","27.732","1.053","7.45","0.704","3.473","0.19","0.38","30.6687","4.80041","11.87","0","SATNPRO1963","27.502","0.3852","5"],
    [3205,"HCEP03730564","2023-10-31 17:45:00","12.1151","3.56336","27.727","1.072","7.45","0.671","4.164","0.14","0.67","30.6688","4.80042","12.09","0","SATNPRO1963","27.496","0.38508","5"],
    [3206,"HCEP03730564","2023-10-31 18:00:00","12.1162","3.56336","27.706","1.093","7.45","0.688","3.882","0.13","0.2","30.6679","4.80028","12.33","0","SATNPRO1963","27.534","0.38564","5"],
    [3207,"HCEP03730564","2023-10-31 18:15:00","12.1171","3.56347","27.677","1.119","7.45","0.681","3.834","0.16","0.27","30.6683","4.80031","12.62","0","SATNPRO1963","26.712","0.37416","5"],
    [3208,"HCEP03730564","2023-10-31 18:30:00","12.1176","3.56349","27.616","1.133","7.45","0.766","3.675","0.23","0.14","30.6681","4.80028","12.78","0","SATNPRO1963","27.32","0.3827","5"],
    [3209,"HCEP03730564","2023-10-31 18:45:00","12.1179","3.56353","27.534","1.141","7.45","0.673","3.74","0.15","0.21","30.6683","4.80029","12.87","0","SATNPRO1963","27.654","0.38734","5"],
    [3210,"HCEP03730564","2023-10-31 19:00:00","12.1183","3.56352","27.437","1.156","7.45","0.703","4.348","0.16","0.72","30.6678","4.80022","13.04","0","SATNPRO1963","27.408","0.38392","5"],
    [3211,"HCEP03730564","2023-10-31 19:15:00","12.12","3.56359","27.306","1.184","7.45","0.742","4.501","0.18","0.26","30.6672","4.80009","13.36","0","SATNPRO1963","27.666","0.38752","5"],
    [3212,"HCEP03730564","2023-10-31 19:30:00","12.1216","3.56371","27.171","1.226","7.46","0.692","4.307","0.12","0.18","30.6671","4.80005","13.83","0","SATNPRO1963","27.858","0.39022","5"],
    [3213,"HCEP03730564","2023-10-31 19:45:00","12.1234","3.56386","27.015","1.269","7.46","0.649","4.227","0.11","0.2","30.667","4.80001","14.32","0","SATNPRO1963","27.858","0.39018","5"],
    [3214,"HCEP03730564","2023-10-31 20:00:00","12.125","3.56396","26.831","1.321","7.46","0.664","4.016","0.15","0.21","30.6667","4.79993","14.91","0","SATNPRO1963","27.733999999999998","0.38846","5"],
    [3215,"HCEP03730564","2023-10-31 20:15:00","12.1252","3.56387","26.616","1.338","7.47","0.686","3.996","0.18","0.12","30.6659","4.79981","15.09","0","SATNPRO1963","27.474","0.38482","5"],
    [3216,"HCEP03730564","2023-10-31 20:30:00","12.1265","3.56401","26.393","1.356","7.47","0.726","3.825","0.11","0.07","30.6662","4.79981","15.3","0","SATNPRO1963","27.624","0.38692","5"],
    [3217,"HCEP03730564","2023-10-31 20:45:00","12.1247","3.56383","26.165","1.318","7.47","0.646","3.919","0.14","0.15","30.6661","4.79982","14.87","0","SATNPRO1963","27.79","0.38924","5"],
    [3218,"HCEP03730564","2023-10-31 21:00:00","12.1229","3.56364","25.96","1.284","7.47","0.624","4.255","0.11","0.16","30.6658","4.79978","14.49","0","SATNPRO1963","27.868","0.39034","5"],
    [3219,"HCEP03730564","2023-10-31 21:15:00","12.1239","3.56375","25.722","1.277","7.47","0.699","3.688","0.16","0.15","30.6661","4.79981","14.41","0","SATNPRO1963","27.746","0.38864","5"],
    [3220,"HCEP03730564","2023-10-31 21:30:00","12.1241","3.5638","25.46","1.293","7.47","0.515","4.042","0.1","0.26","30.6666","4.79985","14.59","0","SATNPRO1963","28.036","0.3927","5"],
    [3221,"HCEP03730564","2023-10-31 21:45:00","12.1243","3.56385","25.225","1.302","7.47","0.668","3.514","0.22","0.09","30.667","4.7999","14.69","0","SATNPRO1963","27.306","0.38242","5"],
    [3222,"HCEP03730564","2023-10-31 22:00:00","12.1239","3.56389","24.971","1.301","7.47","0.663","3.688","0.16","0.21","30.6678","4.8","14.67","0","SATNPRO1963","27.17","0.38054","5"],
    [3223,"HCEP03730564","2023-10-31 22:15:00","12.1227","3.5638","24.729","1.276","7.47","0.712","3.646","0.17","0.21","30.668","4.80003","14.39","0","SATNPRO1963","27.734","0.38846","5"],
    [3224,"HCEP03730564","2023-10-31 22:30:00","12.122","3.56377","24.514","1.244","7.46","0.614","3.508","0.14","0.22","30.6684","4.80008","14.03","0","SATNPRO1963","27.634","0.38702","5"],
    [3225,"HCEP03730564","2023-10-31 22:45:00","12.1209","3.56374","24.302","1.224","7.46","0.644","3.361","0.25","0.25","30.669","4.80018","13.81","0","SATNPRO1963","27.962","0.39168","5"],
    [3226,"HCEP03730564","2023-10-31 23:00:00","12.1201","3.56367","24.133","1.203","7.46","0.546","3.406","0.17","0.18","30.669","4.80018","13.57","0","SATNPRO1963","28.078","0.39324","5"],
    [3227,"HCEP03730564","2023-10-31 23:15:00","12.1196","3.56363","24","1.18","7.46","0.59","3.55","0.12","0.33","30.6691","4.8002","13.31","0","SATNPRO1963","28.014","0.39238","5"],
    [3228,"HCEP03730564","2023-10-31 23:30:00","12.1184","3.56355","23.887","1.146","7.46","0.751","3.66","0.22","0.24","30.6694","4.80024","12.93","0","SATNPRO1963","27.708000000000002","0.38812","5"],
    [3229,"HCEP03730564","2023-10-31 23:45:00","12.1255","3.56447","23.805","1.244","7.46","0.578","3.204","0.15","0.19","30.6724","4.80057","14.04","0","SATNPRO1963","28.046","0.39286","5"],
    [3230,"HCEP03730564","2023-11-01 00:00:00","12.1209","3.56384","23.786","1.218","7.46","0.581","3.443","0.18","0.23","30.6701","4.8003","13.74","0","SATNPRO1963","28.118000000000002","0.39382","5"],
    [3231,"HCEP03730564","2023-11-01 00:15:00","12.1288","3.56495","23.773","1.306","7.46","0.586","3.09","0.11","0.13","30.6744","4.8008","14.73","0","SATNPRO1963","27.776","0.38906","5"],
    [3232,"HCEP03730564","2023-11-01 00:30:00","12.1241","3.56447","23.788","1.251","7.46","0.73","3.634","0.27","0.22","30.6736","4.80076","14.11","0","SATNPRO1963","27.32","0.38266","5"],
    [3233,"HCEP03730564","2023-11-01 00:45:00","12.1248","3.56452","23.792","1.272","7.47","0.589","3.025","0.16","0.13","30.6735","4.80072","14.35","0","SATNPRO1963","28.308","0.3965","5"],
    [3234,"HCEP03730564","2023-11-01 01:00:00","12.1315","3.56541","23.845","1.361","7.47","0.52","2.851","0.09","0.16","30.6765","4.80107","15.36","0","SATNPRO1963","28.276","0.39608","5"],
    [3235,"HCEP03730564","2023-11-01 01:15:00","12.1292","3.56525","23.919","1.373","7.47","0.598","3.105","0.11","0.22","30.6768","4.80114","15.49","0","SATNPRO1963","29.004","0.40626","5"],
    [3236,"HCEP03730564","2023-11-01 01:30:00","12.1311","3.56553","24.047","1.347","7.47","0.528","3.302","0.1","0.25","30.6778","4.80126","15.19","0","SATNPRO1963","28.114","0.39378","5"],
    [3237,"HCEP03730564","2023-11-01 01:45:00","12.1237","3.56458","24.165","1.274","7.47","0.712","4.62","0.12","0.32","30.6748","4.80095","14.37","0","SATNPRO1963","28.666","0.40152","5"],
    [3238,"HCEP03730564","2023-11-01 02:00:00","12.126","3.56489","24.325","1.258","7.47","0.655","4.354","0.17","0.32","30.6759","4.80107","14.19","0","SATNPRO1963","29.408","0.41192","5"],
    [3239,"HCEP03730564","2023-11-01 02:15:00","12.1272","3.56523","24.526","1.269","7.47","0.692","4.654","0.12","0.23","30.678","4.80137","14.32","0","SATNPRO1963","28.852","0.40414","5"],
    [3240,"HCEP03730564","2023-11-01 02:30:00","12.1292","3.56559","24.742","1.304","7.47","0.678","4.718","0.12","0.28","30.6798","4.8016","14.72","0","SATNPRO1963","29.294","0.4103","5"],
    [3241,"HCEP03730564","2023-11-01 02:45:00","12.1296","3.5657","24.977","1.318","7.47","0.717","4.914","0.12","0.26","30.6804","4.8017","14.87","0","SATNPRO1963","27.946","0.39142","5"],
    [3242,"HCEP03730564","2023-11-01 03:00:00","12.1302","3.56583","25.154","1.333","7.47","0.626","4.928","0.08","0.19","30.6811","4.8018","15.04","0","SATNPRO1963","28.188","0.3948","5"],
    [3243,"HCEP03730564","2023-11-01 03:15:00","12.132","3.56605","25.337","1.355","7.47","0.694","4.486","0.12","0.3","30.6816","4.80186","15.29","0","SATNPRO1963","28.472","0.39878","5"],
    [3244,"HCEP03730564","2023-11-01 03:30:00","12.1307","3.56593","25.531","1.343","7.47","0.614","4.769","0.13","0.31","30.6814","4.80186","15.15","0","SATNPRO1963","28.622","0.40092","5"],
    [3245,"HCEP03730564","2023-11-01 03:45:00","12.1293","3.56583","25.732","1.313","7.47","0.661","5.036","0.1","0.26","30.6816","4.80191","14.81","0","SATNPRO1963","28.414","0.398","5"],
    [3246,"HCEP03730564","2023-11-01 04:00:00","12.1288","3.56578","25.962","1.294","7.47","0.665","5.12","0.12","0.33","30.6814","4.80191","14.6","0","SATNPRO1963","28.388","0.39764","5"],
    [3247,"HCEP03730564","2023-11-01 04:15:00","12.1277","3.56555","26.19","1.273","7.46","0.686","5.092","0.08","0.33","30.68","4.80174","14.36","0","SATNPRO1963","28.796","0.40336","5"],
    [3248,"HCEP03730564","2023-11-01 04:30:00","12.1272","3.56524","26.418","1.28","7.46","0.674","5.011","0.11","0.18","30.6774","4.80139","14.44","0","SATNPRO1963","28.672","0.40162","5"],
    [3249,"HCEP03730564","2023-11-01 04:45:00","12.1274","3.5648","26.602","1.316","7.46","0.781","5.379","0.21","0.32","30.6729","4.80076","14.84","0","SATNPRO1963","28.336","0.3969","5"],
    [3250,"HCEP03730564","2023-11-01 05:00:00","12.131","3.56419","26.825","1.434","7.47","0.682","5.108","0.11","0.25","30.6641","4.79948","16.18","0","SATNPRO1963","28.150000000000002","0.39432","5"],
    [3251,"HCEP03730564","2023-11-01 05:15:00","12.1316","3.56407","27.004","1.495","7.48","0.803","5.789","0.11","0.31","30.6623","4.79924","16.86","0","SATNPRO1963","27.992","0.39204","5"],
    [3252,"HCEP03730564","2023-11-01 05:30:00","12.132","3.56389","27.18","1.521","7.48","0.845","5.912","0.17","0.45","30.6602","4.79894","17.16","0","SATNPRO1963","27.778","0.38908","5"],
    [3253,"HCEP03730564","2023-11-01 05:45:00","12.1317","3.56387","27.342","1.527","7.48","0.756","4.999","0.12","0.26","30.6602","4.79895","17.22","0","SATNPRO1963","27.496000000000002","0.38514","5"],
    [3254,"HCEP03730564","2023-11-01 06:00:00","12.1317","3.56382","27.494","1.526","7.49","0.845","4.384","0.54","0.37","30.6597","4.79889","17.22","0","SATNPRO1963","28.162","0.39444","5"],
    [3255,"HCEP03730564","2023-11-01 06:15:00","12.1316","3.5639","27.627","1.514","7.49","0.704","4.709","0.16","0.29","30.6605","4.79901","17.08","0","SATNPRO1963","28.486","0.399","5"],
    [3256,"HCEP03730564","2023-11-01 06:30:00","12.1315","3.56387","27.742","1.515","7.49","0.674","4.411","0.2","0.31","30.6602","4.79898","17.09","0","SATNPRO1963","28.418","0.398","5"],
    [3257,"HCEP03730564","2023-11-01 06:45:00","12.1313","3.56391","27.816","1.509","7.49","0.706","4.515","0.16","0.29","30.6608","4.79907","17.02","0","SATNPRO1963","28.608","0.4007","5"],
    [3258,"HCEP03730564","2023-11-01 07:00:00","12.1314","3.56399","27.891","1.506","7.49","0.733","4.464","0.12","0.22","30.6614","4.79916","16.99","0","SATNPRO1963","28.362","0.39724","5"],
    [3259,"HCEP03730564","2023-11-01 07:15:00","12.1316","3.56403","27.913","1.51","7.49","0.749","4.406","0.12","0.2","30.6616","4.79918","17.04","0","SATNPRO1963","27.998","0.39214","5"],
    [3260,"HCEP03730564","2023-11-01 07:30:00","12.132","3.56401","27.943","1.52","7.48","0.659","4.221","0.09","0.22","30.6611","4.79911","17.15","0","SATNPRO1963","28.546","0.39984","5"],
    [3261,"HCEP03730564","2023-11-01 07:45:00","12.1327","3.56397","27.97","1.535","7.49","0.722","4.375","0.13","0.42","30.6601","4.79897","17.32","0","SATNPRO1963","28.266000000000002","0.3959","5"],
    [3262,"HCEP03730564","2023-11-01 08:00:00","12.1328","3.56387","27.991","1.55","7.49","0.666","4.181","0.14","0.29","30.6591","4.79882","17.49","0","SATNPRO1963","28.304","0.3964","5"],
    [3263,"HCEP03730564","2023-11-01 08:15:00","12.1325","3.56381","28","1.556","7.49","0.938","4.322","0.18","0.36","30.6587","4.79877","17.55","0","SATNPRO1963","28.468","0.39876","5"],
    [3264,"HCEP03730564","2023-11-01 08:30:00","12.1329","3.56382","27.997","1.562","7.49","0.625","4.045","0.12","0.19","30.6585","4.79874","17.62","0","SATNPRO1963","28.426000000000002","0.39814","5"],
    [3265,"HCEP03730564","2023-11-01 08:45:00","12.1323","3.56387","27.977","1.548","7.49","0.737","4.081","0.15","0.33","30.6595","4.79888","17.47","0","SATNPRO1963","28.616","0.40078","5"],
    [3266,"HCEP03730564","2023-11-01 09:00:00","12.1321","3.56376","27.939","1.535","7.49","0.737","3.936","0.19","0.2","30.6587","4.79876","17.32","0","SATNPRO1963","28.468","0.39876","5"],
    [3267,"HCEP03730564","2023-11-01 09:15:00","12.1318","3.56411","27.895","1.508","7.49","0.648","3.676","0.13","0.22","30.6622","4.79926","17.02","0","SATNPRO1963","28.726","0.40236","5"],
    [3268,"HCEP03730564","2023-11-01 09:30:00","12.1311","3.56419","27.833","1.484","7.48","0.591","3.788","0.15","0.32","30.6636","4.79947","16.74","0","SATNPRO1963","28.656","0.40138","5"],
    [3269,"HCEP03730564","2023-11-01 09:45:00","12.13","3.56436","27.757","1.455","7.48","0.644","3.331","0.16","0.15","30.6661","4.79983","16.41","0","SATNPRO1963","28.362","0.39726","5"],
    [3270,"HCEP03730564","2023-11-01 10:00:00","12.1309","3.56424","27.674","1.458","7.48","0.635","3.469","0.11","0.12","30.6643","4.79956","16.44","0","SATNPRO1963","28.668","0.40156","5"],
    [3271,"HCEP03730564","2023-11-01 10:15:00","12.1303","3.56435","27.592","1.445","7.48","0.538","3.541","0.07","0.16","30.6658","4.79978","16.31","0","SATNPRO1963","28.182","0.39474","5"],
    [3272,"HCEP03730564","2023-11-01 10:30:00","12.1267","3.56469","27.523","1.348","7.48","0.732","4.177","0.12","0.26","30.6721","4.80071","15.21","0","SATNPRO1963","28.106","0.3937","5"],
    [3273,"HCEP03730564","2023-11-01 10:45:00","12.1215","3.56442","27.434","1.175","7.47","0.724","5.719","0.14","0.35","30.6739","4.80102","13.25","0","SATNPRO1963","28.294","0.39634","5"],
    [3274,"HCEP03730564","2023-11-01 11:00:00","12.133","3.56646","27.324","1.279","7.46","0.63","4.828","0.08","0.27","30.6839","4.80228","14.43","0","SATNPRO1963","28.476","0.39882","5"],
    [3275,"HCEP03730564","2023-11-01 11:15:00","12.1424","3.56776","27.202","1.473","7.47","0.702","3.452","0.14","0.23","30.6887","4.80281","16.62","0","SATNPRO1963","27.942","0.39138","5"],
    [3276,"HCEP03730564","2023-11-01 11:30:00","12.139","3.56733","27.103","1.479","7.48","0.661","4.215","0.12","0.36","30.6873","4.80266","16.69","0","SATNPRO1963","27.628","0.38698","5"],
    [3277,"HCEP03730564","2023-11-01 11:45:00","12.1366","3.56694","27.014","1.441","7.48","0.755","4.725","0.12","0.46","30.6857","4.80246","16.26","0","SATNPRO1963","26.686","0.37374","5"],
    [3278,"HCEP03730564","2023-11-01 12:00:00","12.1371","3.56692","26.936","1.451","7.48","0.676","4.295","0.11","0.33","30.6851","4.80237","16.37","0","SATNPRO1963","29.04","0.40676","5"],
    [3279,"HCEP03730564","2023-11-01 12:15:00","12.1347","3.56638","26.838","1.396","7.48","0.807","4.365","0.22","0.2","30.6819","4.80195","15.75","0","SATNPRO1963","29.824","0.41772","5"],
    [3280,"HCEP03730564","2023-11-01 12:30:00","12.133","3.56585","26.768","1.38","7.48","0.807","4.365","0.22","0.2","30.6783","4.80146","15.57","0","SATNPRO1963","29.31","0.41054","5"],
    [3281,"HCEP03730564","2023-11-01 12:45:00","12.1347","3.56597","26.724","1.406","7.48",null,null,null,null,"30.6781","4.8014","15.87","2","SATNPRO1963","29.156","0.40836","5"],
    [3282,"HCEP03730564","2023-11-01 13:00:00","12.1339","3.56589","26.691","1.398","7.48",null,null,null,null,"30.678","4.8014","15.78","2","SATNPRO1963","29.706","0.41608","5"],
    [3283,"HCEP03730564","2023-11-01 13:15:00","12.1354","3.56606","26.659","1.429","7.48",null,null,null,null,"30.6783","4.80142","16.13","2","SATNPRO1963","29.014","0.40636","5"],
    [3284,"HCEP03730564","2023-11-01 13:30:00","12.1361","3.56611","26.654","1.459","7.48",null,null,null,null,"30.6783","4.80141","16.46","2","SATNPRO1963","28.752","0.40274","5"],
    [3285,"HCEP03730564","2023-11-01 13:45:00","12.1376","3.56636","26.662","1.487","7.48",null,null,null,null,"30.6795","4.80156","16.78","2","SATNPRO1963","29.456","0.41258","5"],
    [3286,"HCEP03730564","2023-11-01 14:00:00","12.1355","3.56601","26.712","1.445","7.48",null,null,null,null,"30.6778","4.80135","16.3","2","SATNPRO1963","28.992","0.40602","5"],
    [3287,"HCEP03730564","2023-11-01 14:15:00","12.1335","3.56585","26.742","1.388","7.48",null,null,null,null,"30.6779","4.80139","15.66","2","SATNPRO1963","29.602","0.4146","5"],
    [3288,"HCEP03730564","2023-11-01 14:30:00","12.1321","3.56577","26.786","1.333","7.47",null,null,null,null,"30.6783","4.80147","15.04","2","SATNPRO1963","29.662","0.41542","5"],
    [3289,"HCEP03730564","2023-11-01 14:45:00","12.1319","3.56575","26.827","1.304","7.47",null,null,null,null,"30.6782","4.80146","14.71","2","SATNPRO1963","30.018","0.42044","5"],
    [3290,"HCEP03730564","2023-11-01 15:00:00","12.131","3.56562","26.863","1.291","7.47",null,null,null,null,"30.6777","4.8014","14.56","2","SATNPRO1963","29.226","0.40938","5"],
    [3291,"HCEP03730564","2023-11-01 15:15:00","12.1309","3.56567","26.954","1.28","7.47",null,null,null,null,"30.6782","4.80147","14.44","2","SATNPRO1963","28.752","0.40278","5"],
    [3292,"HCEP03730564","2023-11-01 15:30:00","12.13","3.56555","27","1.265","7.47",null,null,null,null,"30.6778","4.80143","14.28","2","SATNPRO1963","28.512","0.39936","5"],
    [3293,"HCEP03730564","2023-11-01 15:45:00","12.1296","3.56543","27.057","1.252","7.46",null,null,null,null,"30.6769","4.80132","14.12","2","SATNPRO1963","28.386","0.39762","5"],
    [3294,"HCEP03730564","2023-11-01 16:00:00","12.1296","3.56552","27.104","1.243","7.46",null,null,null,null,"30.6778","4.80145","14.03","2","SATNPRO1963","28.534","0.39968","5"],
    [3295,"HCEP03730564","2023-11-01 16:15:00","12.1297","3.56552","27.172","1.239","7.46",null,null,null,null,"30.6777","4.80144","13.98","2","SATNPRO1963","28.294","0.39632","5"],
    [3296,"HCEP03730564","2023-11-01 16:30:00","12.1297","3.56555","27.233","1.235","7.46",null,null,null,null,"30.6779","4.80148","13.94","2","SATNPRO1963","28.346","0.39702","5"],
    [3297,"HCEP03730564","2023-11-01 16:45:00","12.129","3.56541","27.296","1.228","7.46",null,null,null,null,"30.6771","4.80138","13.86","2","SATNPRO1963","28.212","0.39518","5"],
    [3298,"HCEP03730564","2023-11-01 17:00:00","12.1294","3.56559","27.352","1.222","7.46",null,null,null,null,"30.6786","4.80158","13.78","2","SATNPRO1963","28.134","0.39408","5"],
    [3299,"HCEP03730564","2023-11-01 17:15:00","12.132","3.56612","27.42","1.237","7.46",null,null,null,null,"30.6814","4.80195","13.95","2","SATNPRO1963","28.252","0.3957","5"],
    [3300,"HCEP03730564","2023-11-01 17:30:00","12.1329","3.56628","27.444","1.252","7.46",null,null,null,null,"30.6823","4.80206","14.13","2","SATNPRO1963","28.372","0.3974","5"],
    [3301,"HCEP03730564","2023-11-01 17:45:00","12.134","3.56648","27.433","1.263","7.46",null,null,null,null,"30.6832","4.80217","14.25","2","SATNPRO1963","28.056","0.39298","5"],
    [3302,"HCEP03730564","2023-11-01 18:00:00","12.1349","3.56677","27.444","1.273","7.47",null,null,null,null,"30.6852","4.80244","14.37","2","SATNPRO1963","28.152","0.39432","5"],
    [3303,"HCEP03730564","2023-11-01 18:15:00","12.1356","3.56704","27.462","1.288","7.47",null,null,null,null,"30.6873","4.80273","14.53","2","SATNPRO1963","28.018","0.3924","5"],
    [3304,"HCEP03730564","2023-11-01 18:30:00","12.1376","3.56756","27.505","1.305","7.47",null,null,null,null,"30.6906","4.80317","14.73","2","SATNPRO1963","28.134","0.39404","5"],
    [3305,"HCEP03730564","2023-11-01 18:45:00","12.1388","3.56786","27.489","1.318","7.47",null,null,null,null,"30.6924","4.80341","14.88","2","SATNPRO1963","28.3","0.3964","5"],
    [3306,"HCEP03730564","2023-11-01 19:00:00","12.1402","3.56812","27.389","1.346","7.47",null,null,null,null,"30.6939","4.80359","15.19","2","SATNPRO1963","28.216","0.39522","5"],
    [3307,"HCEP03730564","2023-11-01 19:15:00","12.1404","3.56794","27.325","1.363","7.48",null,null,null,null,"30.6919","4.8033","15.39","2","SATNPRO1963","28.372","0.39738","5"],
    [3308,"HCEP03730564","2023-11-01 19:30:00","12.1398","3.56746","27.252","1.376","7.48",null,null,null,null,"30.6879","4.80275","15.53","2","SATNPRO1963","28.274","0.39606","5"],
    [3309,"HCEP03730564","2023-11-01 19:45:00","12.1422","3.56829","27.161","1.405","7.48",null,null,null,null,"30.6939","4.80355","15.85","2","SATNPRO1963","28.508","0.39934","5"],
    [3310,"HCEP03730564","2023-11-01 20:00:00","12.1432","3.5686","27.016","1.437","7.48",null,null,null,null,"30.6961","4.80383","16.22","2","SATNPRO1963","28.497999999999998","0.39916","5"],
    [3311,"HCEP03730564","2023-11-01 20:15:00","12.1427","3.56842","26.867","1.433","7.48",null,null,null,null,"30.6949","4.80366","16.17","2","SATNPRO1963","28.759999999999998","0.40284","5"],
    [3312,"HCEP03730564","2023-11-01 20:30:00","12.138","3.5677","26.71","1.377","7.48",null,null,null,null,"30.6919","4.8033","15.54","2","SATNPRO1963","28.968","0.40576","5"],
    [3313,"HCEP03730564","2023-11-01 20:45:00","12.1364","3.56711","26.529","1.335","7.47",null,null,null,null,"30.6876","4.80271","15.07","2","SATNPRO1963","29.032","0.40664","5"],
    [3314,"HCEP03730564","2023-11-01 21:00:00","12.1349","3.56677","26.402","1.316","7.47",null,null,null,null,"30.6857","4.80245","14.85","2","SATNPRO1963","29.387999999999998","0.41164","5"],
    [3315,"HCEP03730564","2023-11-01 21:15:00","12.1334","3.56648","26.173","1.285","7.47",null,null,null,null,"30.6842","4.80225","14.5","2","SATNPRO1963","29.073999999999998","0.40722","5"],
    [3316,"HCEP03730564","2023-11-01 21:30:00","12.1311","3.56603","25.956","1.247","7.46",null,null,null,null,"30.6819","4.80195","14.07","2","SATNPRO1963","28.914","0.40494","5"],
    [3317,"HCEP03730564","2023-11-01 21:45:00","12.1288","3.56531","25.722","1.221","7.46",null,null,null,null,"30.677","4.80127","13.77","2","SATNPRO1963","28.872","0.40442","5"],
    [3318,"HCEP03730564","2023-11-01 22:00:00","12.129","3.56513","25.528","1.227","7.46",null,null,null,null,"30.6752","4.801","13.85","2","SATNPRO1963","28.77","0.40298","5"],
    [3319,"HCEP03730564","2023-11-01 22:15:00","12.1286","3.56487","25.342","1.243","7.46",null,null,null,null,"30.6732","4.80072","14.02","2","SATNPRO1963","28.412","0.39796","5"],
    [3320,"HCEP03730564","2023-11-01 22:30:00","12.1284","3.5644","25.113","1.289","7.46",null,null,null,null,"30.6688","4.80009","14.54","2","SATNPRO1963","28.222","0.39534","5"],
    [3321,"HCEP03730564","2023-11-01 22:45:00","12.1266","3.56388","24.983","1.275","7.47",null,null,null,null,"30.6654","4.79963","14.39","2","SATNPRO1963","27.958","0.3916","5"],
    [3322,"HCEP03730564","2023-11-01 23:00:00","12.1247","3.56337","24.699","1.242","7.46",null,null,null,null,"30.6622","4.79919","14.01","2","SATNPRO1963","28.116","0.3938","5"],
    [3323,"HCEP03730564","2023-11-01 23:15:00","12.1245","3.5635","24.533","1.205","7.46",null,null,null,null,"30.6637","4.79939","13.59","2","SATNPRO1963","28.126","0.39394","5"],
    [3324,"HCEP03730564","2023-11-01 23:30:00","12.1248","3.56349","24.501","1.199","7.46",null,null,null,null,"30.6634","4.79934","13.52","2","SATNPRO1963","28.758","0.4028","5"],
    [3325,"HCEP03730564","2023-11-01 23:45:00","12.1282","3.56385","24.31","1.282","7.46",null,null,null,null,"30.664","4.79938","14.47","2","SATNPRO1963","28.426","0.39816","5"],
    [3326,"HCEP03730564","2023-11-02 00:00:00","12.1289","3.56433","24.15","1.313","7.47",null,null,null,null,"30.6682","4.79994","14.82","2","SATNPRO1963","27.994","0.39208","5"],
    [3327,"HCEP03730564","2023-11-02 00:15:00","12.1284","3.5648","24.064","1.27","7.47",null,null,null,null,"30.6731","4.80064","14.33","2","SATNPRO1963","27.938","0.39134","5"],
    [3328,"HCEP03730564","2023-11-02 00:30:00","12.1302","3.56488","24.039","1.284","7.46",null,null,null,null,"30.6724","4.80052","14.49","2","SATNPRO1963","28.05","0.39286","5"],
    [3329,"HCEP03730564","2023-11-02 00:45:00","12.1359","3.56683","23.952","1.341","7.47",null,null,null,null,"30.6864","4.8024","15.13","2","SATNPRO1963","29.108","0.4077","5"],
    [3330,"HCEP03730564","2023-11-02 01:00:00","12.1387","3.56722","23.988","1.374","7.47",null,null,null,null,"30.6878","4.80256","15.51","2","SATNPRO1963","28.93","0.4052","5"],
    [3331,"HCEP03730564","2023-11-02 01:15:00","12.14","3.56744","24.046","1.385","7.47",null,null,null,null,"30.6888","4.80269","15.63","2","SATNPRO1963","28.444","0.3984","5"],
    [3332,"HCEP03730564","2023-11-02 01:30:00","12.1398","3.56715","24.033","1.403","7.47",null,null,null,null,"30.6862","4.80233","15.83","2","SATNPRO1963","29.148","0.40824","5"],
    [3333,"HCEP03730564","2023-11-02 01:45:00","12.1399","3.56792","24.143","1.364","7.47",null,null,null,null,"30.6935","4.80335","15.39","2","SATNPRO1963","29.258","0.4098","5"],
    [3334,"HCEP03730564","2023-11-02 02:00:00","12.141","3.56807","24.342","1.366","7.47",null,null,null,null,"30.6938","4.8034","15.41","2","SATNPRO1963","29.396","0.41174","5"],
    [3335,"HCEP03730564","2023-11-02 02:15:00","12.1455","3.56789","24.396","1.516","7.48",null,null,null,null,"30.6885","4.80259","17.11","2","SATNPRO1963","29.212","0.40916","5"],
    [3336,"HCEP03730564","2023-11-02 02:30:00","12.1447","3.56844","24.49","1.513","7.49",null,null,null,null,"30.6944","4.80344","17.07","2","SATNPRO1963","29.974","0.41986","5"],
    [3337,"HCEP03730564","2023-11-02 02:45:00","12.1499","3.56786","24.566","1.721","7.49",null,null,null,null,"30.6845","4.80198","19.42","2","SATNPRO1963","29.264","0.4099","5"],
    [3338,"HCEP03730564","2023-11-02 03:00:00","12.1572","3.56806","24.807","1.976","7.51",null,null,null,null,"30.6803","4.8013","22.31","2","SATNPRO1963","28.98","0.40592","5"],
    [3339,"HCEP03730564","2023-11-02 03:15:00","12.1589","3.56892","24.926","2.067","7.53",null,null,null,null,"30.6871","4.80225","23.34","2","SATNPRO1963","30.518","0.42742","5"],
    [3340,"HCEP03730564","2023-11-02 03:30:00","12.1604","3.56904","25.119","2.054","7.53",null,null,null,null,"30.6869","4.8022","23.2","2","SATNPRO1963","30.37","0.42538","5"],
    [3341,"HCEP03730564","2023-11-02 03:45:00","12.1458","3.56895","25.333","1.672","7.52",null,null,null,null,"30.698","4.80398","18.87","2","SATNPRO1963","31.562","0.44208","5"],
    [3342,"HCEP03730564","2023-11-02 04:00:00","12.144","3.56894","25.477","1.459","7.5",null,null,null,null,"30.6993","4.80419","16.47","2","SATNPRO1963","32.278","0.45206","5"],
    [3343,"HCEP03730564","2023-11-02 04:15:00","12.1467","3.5693","25.675","1.492","7.49",null,null,null,null,"30.7005","4.80433","16.84","2","SATNPRO1963","31.916","0.44702","5"],
    [3344,"HCEP03730564","2023-11-02 04:30:00","12.1441","3.56894","25.855","1.469","7.49",null,null,null,null,"30.699","4.80418","16.58","2","SATNPRO1963","31.886","0.44664","5"],
    [3345,"HCEP03730564","2023-11-02 04:45:00","12.1424","3.56854","26.067","1.437","7.48",null,null,null,null,"30.6965","4.80386","16.22","2","SATNPRO1963","29.586","0.41442","5"],
    [3346,"HCEP03730564","2023-11-02 05:00:00","12.1397","3.56789","26.308","1.401","7.48",null,null,null,null,"30.6925","4.80334","15.81","2","SATNPRO1963","29.573999999999998","0.41424","5"],
    [3347,"HCEP03730564","2023-11-02 05:15:00","12.1369","3.56741","26.509","1.348","7.48",null,null,null,null,"30.6901","4.80305","15.22","2","SATNPRO1963","29.814","0.41756","5"],
    [3348,"HCEP03730564","2023-11-02 05:30:00","12.1349","3.56722","26.741","1.29","7.47",null,null,null,null,"30.6899","4.80306","14.56","2","SATNPRO1963","29.63","0.41502","5"],
    [3349,"HCEP03730564","2023-11-02 05:45:00","12.1332","3.5668","26.879","1.248","7.47",null,null,null,null,"30.6872","4.80271","14.09","2","SATNPRO1963","29.45","0.41248","5"],
    [3350,"HCEP03730564","2023-11-02 06:00:00","12.1315","3.56631","27.124","1.223","7.46",null,null,null,null,"30.6838","4.80228","13.8","2","SATNPRO1963","29.584","0.41442","5"],
    [3351,"HCEP03730564","2023-11-02 06:15:00","12.1301","3.56568","27.208","1.232","7.46",null,null,null,null,"30.6789","4.8016","13.9","2","SATNPRO1963","29.074","0.40726","5"],
    [3352,"HCEP03730564","2023-11-02 06:30:00","12.129","3.5651","27.35","1.245","7.46",null,null,null,null,"30.6742","4.80097","14.05","2","SATNPRO1963","28.832","0.40382","5"],
    [3353,"HCEP03730564","2023-11-02 06:45:00","12.1278","3.56481","27.518","1.239","7.46",null,null,null,null,"30.6723","4.80073","13.98","2","SATNPRO1963","28.541999999999998","0.3998","5"],
    [3354,"HCEP03730564","2023-11-02 07:00:00","12.1275","3.56447","27.648","1.241","7.46",null,null,null,null,"30.6692","4.8003","14","2","SATNPRO1963","28.316","0.39662","5"],
    [3355,"HCEP03730564","2023-11-02 07:15:00","12.1278","3.56436","27.783","1.267","7.46",null,null,null,null,"30.6679","4.80012","14.29","2","SATNPRO1963","28.188","0.3948","5"],
    [3356,"HCEP03730564","2023-11-02 07:30:00","12.1272","3.56425","27.86","1.253","7.46",null,null,null,null,"30.6673","4.80005","14.13","2","SATNPRO1963","28.054","0.39296","5"],
    [3357,"HCEP03730564","2023-11-02 07:45:00","12.1264","3.56411","27.87","1.241","7.46",null,null,null,null,"30.6667","4.79997","14","2","SATNPRO1963","27.942","0.39138","5"],
    [3358,"HCEP03730564","2023-11-02 08:00:00","12.1258","3.56404","27.946","1.222","7.46",null,null,null,null,"30.6664","4.79994","13.78","2","SATNPRO1963","28.098","0.39356","5"],
    [3359,"HCEP03730564","2023-11-02 08:15:00","12.1245","3.56343","27.971","1.211","7.46",null,null,null,null,"30.6617","4.7993","13.66","2","SATNPRO1963","28.154","0.39436","5"],
    [3360,"HCEP03730564","2023-11-02 08:30:00","12.1256","3.56317","28.013","1.238","7.46",null,null,null,null,"30.6583","4.79881","13.96","2","SATNPRO1963","28.208","0.3951","5"],
    [3361,"HCEP03730564","2023-11-02 08:45:00","12.1238","3.56342","28.017","1.177","7.46",null,null,null,null,"30.6621","4.79937","13.28","2","SATNPRO1963","27.99","0.3921","5"],
    [3362,"HCEP03730564","2023-11-02 09:00:00","12.1235","3.56332","28.088","1.143","7.46",null,null,null,null,"30.6615","4.79929","12.89","2","SATNPRO1963","27.782","0.38912","5"],
    [3363,"HCEP03730564","2023-11-02 09:15:00","12.1234","3.56368","28.079","1.124","7.45",null,null,null,null,"30.6649","4.79978","12.68","2","SATNPRO1963","27.509999999999998","0.3853","5"],
    [3364,"HCEP03730564","2023-11-02 09:30:00","12.1236","3.5637","28.054","1.111","7.45",null,null,null,null,"30.665","4.79978","12.54","2","SATNPRO1963","27.608","0.38672","5"],
    [3365,"HCEP03730564","2023-11-02 09:45:00","12.1239","3.56391","28.061","1.109","7.45",null,null,null,null,"30.6667","4.80002","12.51","2","SATNPRO1963","27.018","0.37846","5"],
    [3366,"HCEP03730564","2023-11-02 10:00:00","12.1243","3.56374","28.033","1.13","7.45",null,null,null,null,"30.6648","4.79974","12.74","2","SATNPRO1963","26.951999999999998","0.3775","5"],
    [3367,"HCEP03730564","2023-11-02 10:15:00","12.1248","3.56376","27.982","1.136","7.45",null,null,null,null,"30.6646","4.79971","12.82","2","SATNPRO1963","27.258","0.38178","5"],
    [3368,"HCEP03730564","2023-11-02 10:30:00","12.1262","3.56384","27.957","1.169","7.46",null,null,null,null,"30.6642","4.79963","13.19","2","SATNPRO1963","27.073999999999998","0.37924","5"],
    [3369,"HCEP03730564","2023-11-02 10:45:00","12.1317","3.56426","27.907","1.3","7.46",null,null,null,null,"30.6638","4.79949","14.67","2","SATNPRO1963","27.233999999999998","0.38142","5"],
    [3370,"HCEP03730564","2023-11-02 11:00:00","12.1312","3.56426","27.856","1.357","7.47",null,null,null,null,"30.6641","4.79954","15.31","2","SATNPRO1963","27.266000000000002","0.38192","5"],
    [3371,"HCEP03730564","2023-11-02 11:15:00","12.1317","3.5643","27.825","1.365","7.47",null,null,null,null,"30.6641","4.79953","15.4","2","SATNPRO1963","27.544","0.3858","5"],
    [3372,"HCEP03730564","2023-11-02 11:30:00","12.1315","3.56432","27.74","1.356","7.47",null,null,null,null,"30.6646","4.79959","15.3","2","SATNPRO1963","28.044","0.39278","5"],
    [3373,"HCEP03730564","2023-11-02 11:45:00","12.1329","3.56439","27.673","1.359","7.47",null,null,null,null,"30.6641","4.79951","15.33","2","SATNPRO1963","28.866","0.40432","5"],
    [3374,"HCEP03730564","2023-11-02 12:00:00","12.1341","3.5648","27.601","1.379","7.47",null,null,null,null,"30.6671","4.7999","15.56","2","SATNPRO1963","29.13","0.40804","5"],
    [3375,"HCEP03730564","2023-11-02 12:15:00","12.1367","3.56524","27.504","1.441","7.47",null,null,null,null,"30.6692","4.80016","16.26","2","SATNPRO1963","28.87","0.40434","5"],
    [3376,"HCEP03730564","2023-11-02 12:30:00","12.1367","3.56553","27.411","1.432","7.48",null,null,null,null,"30.672","4.80055","16.16","2","SATNPRO1963","29.008","0.4063","5"],
    [3377,"HCEP03730564","2023-11-02 12:45:00","12.1358","3.56509","27.282","1.418","7.48",null,null,null,null,"30.6686","4.80008","16","2","SATNPRO1963","29.306","0.41046","5"],
    [3378,"HCEP03730564","2023-11-02 13:00:00","12.1339","3.56435","27.223","1.417","7.48",null,null,null,null,"30.663","4.79931","15.99","2","SATNPRO1963","29.388","0.41164","5"],
    [3379,"HCEP03730564","2023-11-02 13:15:00","12.1292","3.56324","27.157","1.363","7.47",null,null,null,null,"30.6563","4.79843","15.38","2","SATNPRO1963","29.516000000000002","0.4134","5"],
    [3380,"HCEP03730564","2023-11-02 13:30:00","12.124","3.56196","27.088","1.278","7.47",null,null,null,null,"30.6484","4.79738","14.42","2","SATNPRO1963","29.93","0.41926","5"],
    [3381,"HCEP03730564","2023-11-02 13:45:00","12.1191","3.56052","27.014","1.201","7.46",null,null,null,null,"30.6387","4.79608","13.55","2","SATNPRO1963","29.44","0.41238","5"],
    [3382,"HCEP03730564","2023-11-02 14:00:00","12.1156","3.55944","26.95","1.152","7.46",null,null,null,null,"30.6312","4.79506","12.99","2","SATNPRO1963","29.814","0.4176","5"],
    [3383,"HCEP03730564","2023-11-02 14:15:00","12.1117","3.55848","26.912","1.093","7.45",null,null,null,null,"30.6252","4.79427","12.32","2","SATNPRO1963","29.552","0.41396","5"],
    [3384,"HCEP03730564","2023-11-02 14:30:00","12.1083","3.55819","26.912","0.996","7.45",null,null,null,null,"30.6253","4.79433","11.23","2","SATNPRO1963","29.384","0.41156","5"],
    [3385,"HCEP03730564","2023-11-02 14:45:00","12.1061","3.55804","26.903","0.911","7.44",null,null,null,null,"30.6256","4.79441","10.27","2","SATNPRO1963","29.188","0.40884","5"],
    [3386,"HCEP03730564","2023-11-02 15:00:00","12.1042","3.5581","26.911","0.849","7.44",null,null,null,null,"30.6278","4.79473","9.57","2","SATNPRO1963","29.292","0.41028","5"],
    [3387,"HCEP03730564","2023-11-02 15:15:00","12.1034","3.55847","26.915","0.792","7.43",null,null,null,null,"30.632","4.79534","8.93","2","SATNPRO1963","28.642","0.40122","5"],
    [3388,"HCEP03730564","2023-11-02 15:30:00","12.103","3.55866","26.928","0.753","7.42",null,null,null,null,"30.6342","4.79566","8.49","2","SATNPRO1963","28.400000000000002","0.39782","5"],
    [3389,"HCEP03730564","2023-11-02 15:45:00","12.1032","3.55897","26.956","0.729","7.42",null,null,null,null,"30.6369","4.79605","8.22","2","SATNPRO1963","27.79","0.38928","5"],
    [3390,"HCEP03730564","2023-11-02 16:00:00","12.1028","3.5591","26.994","0.712","7.42",null,null,null,null,"30.6385","4.79627","8.03","2","SATNPRO1963","27.458","0.38464","5"],
    [3391,"HCEP03730564","2023-11-02 16:15:00","12.1024","3.55909","27.031","0.698","7.42",null,null,null,null,"30.6387","4.7963","7.87","2","SATNPRO1963","26.93","0.37718","5"],
    [3392,"HCEP03730564","2023-11-02 16:30:00","12.1021","3.55907","27.067","0.69","7.42",null,null,null,null,"30.6387","4.79631","7.78","2","SATNPRO1963","26.842","0.37594","5"],
    [3393,"HCEP03730564","2023-11-02 16:45:00","12.1019","3.55903","27.09","0.686","7.42",null,null,null,null,"30.6385","4.79629","7.73","2","SATNPRO1963","26.646","0.37324","5"],
    [3394,"HCEP03730564","2023-11-02 17:00:00","12.1018","3.55903","27.112","0.68","7.41",null,null,null,null,"30.6386","4.7963","7.67","2","SATNPRO1963","26.266000000000002","0.36788","5"],
    [3395,"HCEP03730564","2023-11-02 17:15:00","12.1019","3.55895","27.148","0.68","7.42",null,null,null,null,"30.6377","4.79618","7.67","2","SATNPRO1963","26.256","0.36778","5"],
    [3396,"HCEP03730564","2023-11-02 17:30:00","12.1017","3.55893","27.179","0.678","7.41",null,null,null,null,"30.6378","4.79619","7.64","2","SATNPRO1963","26.248","0.36764","5"],
    [3397,"HCEP03730564","2023-11-02 17:45:00","12.1018","3.5589","27.197","0.676","7.41",null,null,null,null,"30.6373","4.79612","7.63","2","SATNPRO1963","26.242","0.36758","5"],
    [3398,"HCEP03730564","2023-11-02 18:00:00","12.102","3.55888","27.221","0.675","7.41","0.807","4.365","0.22","0.2","30.6369","4.79607","7.61","0","SATNPRO1963","24.638","0.34506","5"],
    [3399,"HCEP03730564","2023-11-02 18:15:00","12.1014","3.5589","27.24","0.669","7.41","0.807","4.365","0.22","0.2","30.6376","4.79618","7.54","0","SATNPRO1963","26.7","0.374","5"],
    [3400,"HCEP03730564","2023-11-02 18:30:00","12.1014","3.55888","27.254","0.664","7.41","0.807","4.365","0.22","0.2","30.6374","4.79615","7.48","0","SATNPRO1963","26.06","0.365","5"],
    [3401,"HCEP03730564","2023-11-02 18:45:00","12.1012","3.55885","27.27","0.659","7.41","0.807","4.365","0.22","0.2","30.6373","4.79614","7.43","0","SATNPRO1963","25.918","0.36302","5"],
    [3402,"HCEP03730564","2023-11-02 19:00:00","12.1011","3.55885","27.257","0.658","7.41","0.807","4.365","0.22","0.2","30.6374","4.79615","7.42","0","SATNPRO1963","26.39","0.3696","5"],
    [3403,"HCEP03730564","2023-11-02 19:15:00","12.1006","3.55882","27.243","0.65","7.41","0.807","4.365","0.22","0.2","30.6375","4.79617","7.32","0","SATNPRO1963","26.04","0.36476","5"],
    [3404,"HCEP03730564","2023-11-02 19:30:00","12.1003","3.5588","27.237","0.643","7.41","0.807","4.365","0.22","0.2","30.6375","4.79619","7.25","0","SATNPRO1963","26.054000000000002","0.36496","5"],
    [3405,"HCEP03730564","2023-11-02 19:45:00","12.0995","3.55875","27.203","0.628","7.41","0.807","4.365","0.22","0.2","30.6377","4.79622","7.08","0","SATNPRO1963","25.838","0.3619","5"],
    [3406,"HCEP03730564","2023-11-02 20:00:00","12.0994","3.55872","27.158","0.616","7.41","0.807","4.365","0.22","0.2","30.6376","4.7962","6.94","0","SATNPRO1963","25.788","0.36116","5"],
    [3407,"HCEP03730564","2023-11-02 20:15:00","12.0993","3.55866","27.085","0.613","7.41","0.807","4.365","0.22","0.2","30.6371","4.79613","6.91","0","SATNPRO1963","25.96","0.36364","5"],
    [3408,"HCEP03730564","2023-11-02 20:30:00","12.0992","3.55863","27.003","0.613","7.41","0.807","4.365","0.22","0.2","30.6369","4.7961","6.91","0","SATNPRO1963","25.578","0.35826","5"],
    [3409,"HCEP03730564","2023-11-02 20:45:00","12.0991","3.55862","26.921","0.61","7.41","0.807","4.365","0.22","0.2","30.6369","4.79609","6.88","0","SATNPRO1963","25.369999999999997","0.35538","5"],
    [3410,"HCEP03730564","2023-11-02 21:00:00","12.0999","3.55857","26.778","0.619","7.41","0.807","4.365","0.22","0.2","30.6358","4.79592","6.97","0","SATNPRO1963","25.386","0.3556","5"],
    [3411,"HCEP03730564","2023-11-02 21:15:00","12.0995","3.55855","26.65","0.619","7.41","0.807","4.365","0.22","0.2","30.6361","4.79596","6.98","0","SATNPRO1963","25.424","0.35612","5"],
    [3412,"HCEP03730564","2023-11-02 21:30:00","12.1016","3.55845","26.519","0.653","7.41","0.807","4.365","0.22","0.2","30.6334","4.79555","7.37","0","SATNPRO1963","25.588","0.3584","5"],
    [3413,"HCEP03730564","2023-11-02 21:45:00","12.1023","3.55845","26.378","0.691","7.41","0.807","4.365","0.22","0.2","30.6329","4.79545","7.79","0","SATNPRO1963","25.348","0.35502","5"],
    [3414,"HCEP03730564","2023-11-02 22:00:00","12.1047","3.55844","26.202","0.747","7.41","0.807","4.365","0.22","0.2","30.6309","4.79513","8.42","0","SATNPRO1963","25.294","0.3543","5"],
    [3415,"HCEP03730564","2023-11-02 22:15:00","12.1074","3.55841","26.025","0.825","7.42","0.807","4.365","0.22","0.2","30.6284","4.79474","9.3","0","SATNPRO1963","25.168","0.3525","5"],
    [3416,"HCEP03730564","2023-11-02 22:30:00","12.1128","3.55833","25.838","0.967","7.42","0.807","4.365","0.22","0.2","30.6234","4.79394","10.91","0","SATNPRO1963","26.076","0.36522","5"],
    [3417,"HCEP03730564","2023-11-02 22:45:00","12.1111","3.55837","25.645","0.99","7.43","0.807","4.365","0.22","0.2","30.6252","4.79421","11.16","0","SATNPRO1963","25.966","0.36368","5"],
    [3418,"HCEP03730564","2023-11-02 23:00:00","12.1146","3.55851","25.458","1.017","7.43","0.807","4.365","0.22","0.2","30.6237","4.79394","11.47","0","SATNPRO1963","26.778","0.37508","5"],
    [3419,"HCEP03730564","2023-11-02 23:15:00","12.1127","3.55851","25.282","1.016","7.44","0.807","4.365","0.22","0.2","30.6253","4.79419","11.46","0","SATNPRO1963","26.77","0.37494","5"],
    [3420,"HCEP03730564","2023-11-02 23:30:00","12.1118","3.55844","25.106","0.994","7.44","0.807","4.365","0.22","0.2","30.6256","4.79422","11.2","0","SATNPRO1963","27.542","0.38576","5"],
    [3421,"HCEP03730564","2023-11-02 23:45:00","12.1056","3.55833","24.952","0.86","7.43","0.807","4.365","0.22","0.2","30.6296","4.79487","9.7","0","SATNPRO1963","27.34","0.38294","5"],
    [3422,"HCEP03730564","2023-11-03 00:00:00","12.1012","3.55831","24.786","0.714","7.43","0.807","4.365","0.22","0.2","30.6331","4.79541","8.05","0","SATNPRO1963","27.536","0.3857","5"],
    [3423,"HCEP03730564","2023-11-03 00:15:00","12.1058","3.55829","24.641","0.765","7.42","0.807","4.365","0.22","0.2","30.6292","4.7948","8.62","0","SATNPRO1963","27.246","0.38168","5"],
    [3424,"HCEP03730564","2023-11-03 00:30:00","12.1055","3.55819","24.518","0.807","7.42","0.807","4.365","0.22","0.2","30.6285","4.79469","9.1","0","SATNPRO1963","27.068","0.37912","5"],
    [3425,"HCEP03730564","2023-11-03 00:45:00","12.1042","3.55816","24.412","0.763","7.42","0.807","4.365","0.22","0.2","30.6293","4.79482","8.6","0","SATNPRO1963","26.244","0.3676","5"],
    [3426,"HCEP03730564","2023-11-03 01:00:00","12.1024","3.55817","24.33","0.718","7.42","0.807","4.365","0.22","0.2","30.6309","4.79506","8.1","0","SATNPRO1963","25.932","0.36324","5"],
    [3427,"HCEP03730564","2023-11-03 01:15:00","12.1055","3.55817","24.268","0.77","7.42","0.807","4.365","0.22","0.2","30.6284","4.79466","8.68","0","SATNPRO1963","26.74","0.37454","5"],
    [3428,"HCEP03730564","2023-11-03 01:30:00","12.1071","3.55831","24.231","0.823","7.42","0.807","4.365","0.22","0.2","30.6284","4.79464","9.28","0","SATNPRO1963","27.038","0.37874","5"],
    [3429,"HCEP03730564","2023-11-03 01:45:00","12.1095","3.55832","24.222","0.891","7.42","0.807","4.365","0.22","0.2","30.6266","4.79434","10.04","0","SATNPRO1963","26.67","0.37356","5"],
    [3430,"HCEP03730564","2023-11-03 02:00:00","12.1116","3.55841","24.231","0.947","7.43","0.807","4.365","0.22","0.2","30.6257","4.7942","10.68","0","SATNPRO1963","26.486","0.37096","5"],
    [3431,"HCEP03730564","2023-11-03 02:15:00","12.1148","3.55837","24.264","1.038","7.43","0.807","4.365","0.22","0.2","30.6227","4.79373","11.7","0","SATNPRO1963","27.035999999999998","0.3787","5"],
    [3432,"HCEP03730564","2023-11-03 02:30:00","12.1195","3.55829","24.324","1.167","7.44","0.807","4.365","0.22","0.2","30.618","4.79301","13.16","0","SATNPRO1963","27.058","0.37898","5"],
    [3433,"HCEP03730564","2023-11-03 02:45:00","12.1199","3.55739","24.398","1.236","7.45","0.807","4.365","0.22","0.2","30.6091","4.79176","13.94","0","SATNPRO1963","27.646","0.38722","5"],
    [3434,"HCEP03730564","2023-11-03 03:00:00","12.1205","3.55579","24.476","1.303","7.46","0.807","4.365","0.22","0.2","30.5933","4.78952","14.69","0","SATNPRO1963","27.506","0.38528","5"],
    [3435,"HCEP03730564","2023-11-03 03:15:00","12.1205","3.55673","24.591","1.288","7.46","0.807","4.365","0.22","0.2","30.6023","4.79079","14.52","0","SATNPRO1963","28.074","0.39326","5"],
    [3436,"HCEP03730564","2023-11-03 03:30:00","12.1212","3.55495","24.713","1.297","7.46","0.807","4.365","0.22","0.2","30.5846","4.7883","14.63","0","SATNPRO1963","28.986","0.406","5"],
    [3437,"HCEP03730564","2023-11-03 03:45:00","12.1193","3.55782","24.858","1.265","7.46","0.807","4.365","0.22","0.2","30.6135","4.7924","14.27","0","SATNPRO1963","29.034","0.40668","5"],
    [3438,"HCEP03730564","2023-11-03 04:00:00","12.1181","3.55811","24.998","1.193","7.46","0.807","4.365","0.22","0.2","30.6173","4.79296","13.45","0","SATNPRO1963","29.006","0.4063","5"],
    [3439,"HCEP03730564","2023-11-03 04:15:00","12.1177","3.55822","25.139","1.172","7.45","0.807","4.365","0.22","0.2","30.6186","4.79316","13.22","0","SATNPRO1963","28.69","0.40188","5"],
    [3440,"HCEP03730564","2023-11-03 04:30:00","12.1186","3.55791","25.301","1.159","7.45","0.807","4.365","0.22","0.2","30.6149","4.79263","13.06","0","SATNPRO1963","30.244","0.42364","5"],
    [3441,"HCEP03730564","2023-11-03 04:45:00","12.1181","3.55783","25.468","1.157","7.45","0.807","4.365","0.22","0.2","30.6144","4.79259","13.05","0","SATNPRO1963","28.560000000000002","0.40004","5"],
    [3442,"HCEP03730564","2023-11-03 05:00:00","12.1181","3.55742","25.634","1.14","7.45","0.807","4.365","0.22","0.2","30.6104","4.79203","12.86","0","SATNPRO1963","28.272","0.396","5"],
    [3443,"HCEP03730564","2023-11-03 05:15:00","12.119","3.55681","25.834","1.157","7.45","0.807","4.365","0.22","0.2","30.6038","4.7911","13.04","0","SATNPRO1963","28.096","0.39354","5"],
    [3444,"HCEP03730564","2023-11-03 05:30:00","12.1211","3.55592","26.029","1.214","7.45","0.807","4.365","0.22","0.2","30.5935","4.78962","13.69","0","SATNPRO1963","28.136","0.3941","5"],
    [3445,"HCEP03730564","2023-11-03 05:45:00","12.1227","3.55576","26.248","1.27","7.45","0.807","4.365","0.22","0.2","30.5905","4.78919","14.32","0","SATNPRO1963","27.844","0.39","5"],
    [3446,"HCEP03730564","2023-11-03 06:00:00","12.1232","3.55523","26.451","1.309","7.46","0.807","4.365","0.22","0.2","30.585","4.78842","14.76","0","SATNPRO1963","27.580000000000002","0.38632","5"],
    [3447,"HCEP03730564","2023-11-03 06:15:00","12.1242","3.55439","26.645","1.361","7.46","0.807","4.365","0.22","0.2","30.5761","4.78717","15.34","0","SATNPRO1963","28.064","0.3931","5"],
    [3448,"HCEP03730564","2023-11-03 06:30:00","12.1244","3.55327","26.823","1.388","7.46","0.807","4.365","0.22","0.2","30.5652","4.78563","15.65","0","SATNPRO1963","28.65","0.40126","5"],
    [3449,"HCEP03730564","2023-11-03 06:45:00","12.1245","3.55246","26.988","1.4","7.46","0.807","4.365","0.22","0.2","30.5572","4.78452","15.78","0","SATNPRO1963","28.4","0.3978","5"],
    [3450,"HCEP03730564","2023-11-03 07:00:00","12.1252","3.55096","27.145","1.447","7.47","0.807","4.365","0.22","0.2","30.5423","4.78241","16.31","0","SATNPRO1963","28.738","0.4025","5"],
    [3451,"HCEP03730564","2023-11-03 07:15:00","12.1246","3.55086","27.304","1.471","7.47","0.807","4.365","0.22","0.2","30.5418","4.78236","16.58","0","SATNPRO1963","29.13","0.40802","5"],
    [3452,"HCEP03730564","2023-11-03 07:30:00","12.125","3.55079","27.431","1.476","7.47","0.807","4.365","0.22","0.2","30.5408","4.78221","16.64","0","SATNPRO1963","28.98","0.4059","5"],
    [3453,"HCEP03730564","2023-11-03 07:45:00","12.125","3.54995","27.562","1.493","7.47","0.807","4.365","0.22","0.2","30.5327","4.78108","16.82","0","SATNPRO1963","29.336","0.41088","5"],
    [3454,"HCEP03730564","2023-11-03 08:00:00","12.1255","3.53691","27.672","1.747","7.48","0.807","4.365","0.22","0.2","30.4078","4.76346","19.68","0","SATNPRO1963","29.332","0.41084","5"],
    [3455,"HCEP03730564","2023-11-03 08:15:00","12.1237","3.53952","27.753","1.847","7.49","0.807","4.365","0.22","0.2","30.434","4.76719","20.8","0","SATNPRO1963","29.102","0.40766","5"],
    [3456,"HCEP03730564","2023-11-03 08:30:00","12.126","3.5473","27.824","1.672","7.49","0.807","4.365","0.22","0.2","30.5065","4.77738","18.84","0","SATNPRO1963","29.192","0.4089","5"],
    [3457,"HCEP03730564","2023-11-03 08:45:00","12.1262","3.5499","27.877","1.56","7.48","0.807","4.365","0.22","0.2","30.5312","4.78086","17.59","0","SATNPRO1963","29.37","0.41138","5"],
    [3458,"HCEP03730564","2023-11-03 09:00:00","12.1213","3.55285","27.906","1.379","7.48","0.807","4.365","0.22","0.2","30.5633","4.78546","15.55","0","SATNPRO1963","29.986","0.42004","5"],
    [3459,"HCEP03730564","2023-11-03 09:15:00","12.1202","3.55286","27.954","1.293","7.47","0.807","4.365","0.22","0.2","30.5642","4.78562","14.58","0","SATNPRO1963","29.93","0.4192","5"],
    [3460,"HCEP03730564","2023-11-03 09:30:00","12.1193","3.55324","27.95","1.247","7.46","0.807","4.365","0.22","0.2","30.5686","4.78624","14.05","0","SATNPRO1963","29.614","0.4148","5"],
    [3461,"HCEP03730564","2023-11-03 09:45:00","12.1188","3.55371","27.958","1.21","7.45","0.807","4.365","0.22","0.2","30.5736","4.78695","13.64","0","SATNPRO1963","29.682","0.41576","5"],
    [3462,"HCEP03730564","2023-11-03 10:00:00","12.1161","3.55534","27.873","1.146","7.45","0.807","4.365","0.22","0.2","30.5913","4.78949","12.91","0","SATNPRO1963","28.67","0.40156","5"],
    [3463,"HCEP03730564","2023-11-03 10:15:00","12.1154","3.55576","27.978","1.105","7.45","0.807","4.365","0.22","0.2","30.5959","4.79015","12.46","0","SATNPRO1963","28.438","0.39832","5"],
    [3464,"HCEP03730564","2023-11-03 10:30:00","12.1148","3.55599","27.918","1.085","7.44","0.807","4.365","0.22","0.2","30.5986","4.79053","12.23","0","SATNPRO1963","27.798","0.38936","5"],
    [3465,"HCEP03730564","2023-11-03 10:45:00","12.1134","3.55644","27.916","1.062","7.44","0.807","4.365","0.22","0.2","30.604","4.79132","11.98","0","SATNPRO1963","27.688","0.3878","5"],
    [3466,"HCEP03730564","2023-11-03 11:00:00","12.115","3.5562","27.877","1.081","7.44","0.807","4.365","0.22","0.2","30.6004","4.79078","12.18","0","SATNPRO1963","27.53","0.38558","5"],
    [3467,"HCEP03730564","2023-11-03 11:15:00","12.1157","3.55601","27.816","1.108","7.44","0.807","4.365","0.22","0.2","30.5981","4.79044","12.49","0","SATNPRO1963","27.45","0.3845","5"],
    [3468,"HCEP03730564","2023-11-03 11:30:00","12.1207","3.55566","27.752","1.187","7.44","0.807","4.365","0.22","0.2","30.5906","4.78932","13.38","0","SATNPRO1963","27.274","0.38206","5"],
    [3469,"HCEP03730564","2023-11-03 11:45:00","12.1215","3.55603","27.684","1.253","7.45","0.807","4.365","0.22","0.2","30.5935","4.78972","14.13","0","SATNPRO1963","27.428","0.38416","5"],
    [3470,"HCEP03730564","2023-11-03 12:00:00","12.1183","3.55653","27.648","1.19","7.45","0.807","4.365","0.22","0.2","30.601","4.7908","13.42","0","SATNPRO1963","27.742","0.38856","5"],
    [3471,"HCEP03730564","2023-11-03 12:15:00","12.1138","3.55702","27.532","1.076","7.45","0.807","4.365","0.22","0.2","30.6093","4.79204","12.14","0","SATNPRO1963","28.198","0.39496","5"],
    [3472,"HCEP03730564","2023-11-03 12:30:00","12.1125","3.55686","27.448","1.005","7.44","0.807","4.365","0.22","0.2","30.609","4.792","11.33","0","SATNPRO1963","29.036","0.40666","5"],
    [3473,"HCEP03730564","2023-11-03 12:45:00","12.1104","3.55672","27.365","0.957","7.43","0.807","4.365","0.22","0.2","30.6094","4.79208","10.79","0","SATNPRO1963","28.73","0.40238","5"],
    [3474,"HCEP03730564","2023-11-03 13:00:00","12.1104","3.55733","27.322","0.927","7.43","0.807","4.365","0.22","0.2","30.6152","4.7929","10.45","0","SATNPRO1963","28.284","0.39616","5"],
    [3475,"HCEP03730564","2023-11-03 13:15:00","12.1088","3.55709","27.26","0.914","7.42","0.807","4.365","0.22","0.2","30.6142","4.79278","10.3","0","SATNPRO1963","27.504","0.38524","5"],
    [3476,"HCEP03730564","2023-11-03 13:30:00","12.1074","3.55693","27.148","0.882","7.42","0.807","4.365","0.22","0.2","30.6139","4.79276","9.94","0","SATNPRO1963","26.9","0.37678","5"],
    [3477,"HCEP03730564","2023-11-03 13:45:00","12.1074","3.55701","27.072","0.871","7.42","0.807","4.365","0.22","0.2","30.6146","4.79285","9.82","0","SATNPRO1963","26.45","0.37048","5"],
    [3478,"HCEP03730564","2023-11-03 14:00:00","12.1083","3.55729","26.987","0.873","7.42","0.807","4.365","0.22","0.2","30.6166","4.79311","9.84","0","SATNPRO1963","26.55","0.37188","5"],
    [3479,"HCEP03730564","2023-11-03 14:15:00","12.1078","3.5575","26.948","0.864","7.42","0.807","4.365","0.22","0.2","30.6191","4.79347","9.74","0","SATNPRO1963","26.56","0.37202","5"],
    [3480,"HCEP03730564","2023-11-03 14:30:00","12.1056","3.55749","26.908","0.818","7.42","0.807","4.365","0.22","0.2","30.6208","4.79374","9.22","0","SATNPRO1963","26.512","0.37136","5"],
    [3481,"HCEP03730564","2023-11-03 14:45:00","12.1076","3.55771","26.861","0.832","7.42","0.807","4.365","0.22","0.2","30.6213","4.79377","9.38","0","SATNPRO1963","26.36","0.36918","5"],
    [3482,"HCEP03730564","2023-11-03 15:00:00","12.108","3.55783","26.801","0.849","7.42","0.807","4.365","0.22","0.2","30.6222","4.79389","9.57","0","SATNPRO1963","26.55","0.37186","5"],
    [3483,"HCEP03730564","2023-11-03 15:15:00","12.1097","3.55792","26.793","0.881","7.42","0.807","4.365","0.22","0.2","30.6216","4.79379","9.93","0","SATNPRO1963","26.634","0.37308","5"],
    [3484,"HCEP03730564","2023-11-03 15:30:00","12.1108","3.55799","26.809","0.919","7.42","0.807","4.365","0.22","0.2","30.6213","4.79373","10.36","0","SATNPRO1963","26.296","0.36834","5"],
    [3485,"HCEP03730564","2023-11-03 15:45:00","12.112","3.55801","26.777","0.949","7.43","0.807","4.365","0.22","0.2","30.6206","4.79361","10.71","0","SATNPRO1963","26.599999999999998","0.37258","5"],
    [3486,"HCEP03730564","2023-11-03 16:00:00","12.1113","3.55791","26.771","0.938","7.43","0.807","4.365","0.22","0.2","30.6203","4.79357","10.58","0","SATNPRO1963","26.792","0.37526","5"],
    [3487,"HCEP03730564","2023-11-03 16:15:00","12.1101","3.55787","26.772","0.918","7.43","0.807","4.365","0.22","0.2","30.6208","4.79367","10.35","0","SATNPRO1963","26.922","0.37708","5"],
    [3488,"HCEP03730564","2023-11-03 16:30:00","12.1079","3.55765","26.774","0.878","7.43","0.807","4.365","0.22","0.2","30.6206","4.79366","9.9","0","SATNPRO1963","26.892","0.37668","5"],
    [3489,"HCEP03730564","2023-11-03 16:45:00","12.1061","3.55757","26.787","0.848","7.42","0.807","4.365","0.22","0.2","30.6212","4.79378","9.56","0","SATNPRO1963","27.108","0.37968","5"],
    [3490,"HCEP03730564","2023-11-03 17:00:00","12.1068","3.55777","26.795","0.833","7.42","0.807","4.365","0.22","0.2","30.6226","4.79397","9.39","0","SATNPRO1963","26.894","0.37666","5"],
    [3491,"HCEP03730564","2023-11-03 17:15:00","12.1076","3.55809","26.805","0.841","7.42","0.807","4.365","0.22","0.2","30.625","4.79429","9.49","0","SATNPRO1963","26.9","0.3768","5"],
    [3492,"HCEP03730564","2023-11-03 17:30:00","12.1083","3.55827","26.827","0.845","7.42","0.807","4.365","0.22","0.2","30.6261","4.79444","9.53","0","SATNPRO1963","26.688","0.37384","5"],
    [3493,"HCEP03730564","2023-11-03 17:45:00","12.1101","3.55897","26.836","0.86","7.42","0.807","4.365","0.22","0.2","30.6313","4.79515","9.69","0","SATNPRO1963","26.436","0.37028","5"],
    [3494,"HCEP03730564","2023-11-03 18:00:00","12.1104","3.55915","26.856","0.872","7.42","0.807","4.365","0.22","0.2","30.6328","4.79535","9.84","0","SATNPRO1963","26.576","0.37222","5"],
    [3495,"HCEP03730564","2023-11-03 18:15:00","12.112","3.55955","26.843","0.892","7.42","0.807","4.365","0.22","0.2","30.6353","4.79569","10.06","0","SATNPRO1963","26.804","0.37544","5"],
    [3496,"HCEP03730564","2023-11-03 18:30:00","12.1135","3.55995","26.871","0.904","7.42","0.807","4.365","0.22","0.2","30.6379","4.79603","10.19","0","SATNPRO1963","26.69","0.37384","5"],
    [3497,"HCEP03730564","2023-11-03 18:45:00","12.1126","3.56012","26.882","0.905","7.42","0.807","4.365","0.22","0.2","30.6402","4.79637","10.2","0","SATNPRO1963","27.008","0.3783","5"],
    [3498,"HCEP03730564","2023-11-03 19:00:00","12.115","3.56115","26.933","0.915","7.42","0.807","4.365","0.22","0.2","30.6481","4.79745","10.32","0","SATNPRO1963","27.104","0.37962","5"],
    [3499,"HCEP03730564","2023-11-03 19:15:00","12.1144","3.56133","26.921","0.91","7.43","0.807","4.365","0.22","0.2","30.6504","4.79778","10.26","0","SATNPRO1963","27.5","0.38516","5"],
    [3500,"HCEP03730564","2023-11-03 19:30:00","12.116","3.56177","26.959","0.913","7.43","0.807","4.365","0.22","0.2","30.6533","4.79817","10.29","0","SATNPRO1963","27.43","0.38418","5"],
    [3501,"HCEP03730564","2023-11-03 19:45:00","12.1175","3.56228","26.977","0.937","7.43","0.807","4.365","0.22","0.2","30.6568","4.79865","10.57","0","SATNPRO1963","27.21","0.38112","5"],
    [3502,"HCEP03730564","2023-11-03 20:00:00","12.1175","3.56223","26.909","0.94","7.43","0.807","4.365","0.22","0.2","30.6564","4.79859","10.6","0","SATNPRO1963","27.418","0.38408","5"],
    [3503,"HCEP03730564","2023-11-03 20:15:00","12.1178","3.56248","26.92","0.94","7.43","0.807","4.365","0.22","0.2","30.6585","4.79888","10.6","0","SATNPRO1963","27.444","0.3844","5"],
    [3504,"HCEP03730564","2023-11-03 20:30:00","12.1375","3.56564","26.816","1.22","7.44","0.807","4.365","0.22","0.2","30.6726","4.80059","13.77","0","SATNPRO1963","27.566","0.38608","5"],
    [3505,"HCEP03730564","2023-11-03 20:45:00","12.1477","3.56742","26.835","1.509","7.46","0.807","4.365","0.22","0.2","30.6812","4.80167","17.03","0","SATNPRO1963","27.88","0.3905","5"],
    [3506,"HCEP03730564","2023-11-03 21:00:00","12.1433","3.56686","26.76","1.508","7.47","0.807","4.365","0.22","0.2","30.6795","4.80149","17.02","0","SATNPRO1963","27.708","0.3881","5"],
    [3507,"HCEP03730564","2023-11-03 21:15:00","12.1468","3.56773","26.737","1.515","7.48","0.807","4.365","0.22","0.2","30.685","4.80221","17.1","0","SATNPRO1963","27.78","0.38908","5"],
    [3508,"HCEP03730564","2023-11-03 21:30:00","12.1487","3.56821","26.676","1.568","7.48","0.807","4.365","0.22","0.2","30.688","4.8026","17.7","0","SATNPRO1963","29.714","0.41622","5"],
    [3509,"HCEP03730564","2023-11-03 21:45:00","12.1554","3.56972","26.579","1.638","7.49","0.807","4.365","0.22","0.2","30.697","4.80378","18.5","0","SATNPRO1963","30.61","0.42872","5"],
    [3510,"HCEP03730564","2023-11-03 22:00:00","12.1542","3.5697","26.482","1.662","7.5","0.807","4.365","0.22","0.2","30.6977","4.80389","18.76","0","SATNPRO1963","29.88","0.41852","5"],
    [3511,"HCEP03730564","2023-11-03 22:15:00","12.1558","3.57034","26.344","1.66","7.5","0.807","4.365","0.22","0.2","30.7027","4.80455","18.74","0","SATNPRO1963","30.018","0.42044","5"],
    [3512,"HCEP03730564","2023-11-03 22:30:00","12.1568","3.5706","26.266","1.672","7.5","0.807","4.365","0.22","0.2","30.7043","4.80476","18.88","0","SATNPRO1963","30.4","0.4258","5"],
    [3513,"HCEP03730564","2023-11-03 22:45:00","12.157","3.57083","26.159","1.675","7.5","0.807","4.365","0.22","0.2","30.7064","4.80505","18.92","0","SATNPRO1963","30.87","0.4324","5"],
    [3514,"HCEP03730564","2023-11-03 23:00:00","12.158","3.57102","26.06","1.674","7.5","0.807","4.365","0.22","0.2","30.7075","4.80519","18.9","0","SATNPRO1963","30.66","0.42944","5"],
    [3515,"HCEP03730564","2023-11-03 23:15:00","12.1604","3.57155","26.02","1.703","7.5","0.807","4.365","0.22","0.2","30.7105","4.80558","19.23","0","SATNPRO1963","30.75","0.4307","5"],
    [3516,"HCEP03730564","2023-11-03 23:30:00","12.1616","3.57173","25.78","1.735","7.51","0.807","4.365","0.22","0.2","30.7114","4.80567","19.6","0","SATNPRO1963","30.580000000000002","0.42836","5"],
    [3517,"HCEP03730564","2023-11-03 23:45:00","12.1625","3.57189","25.687","1.753","7.51","0.807","4.365","0.22","0.2","30.7122","4.80577","19.8","0","SATNPRO1963","30.754","0.4308","5"],
    [3518,"HCEP03730564","2023-11-04 00:00:00","12.1631","3.57196","25.489","1.761","7.51","0.807","4.365","0.22","0.2","30.7125","4.80579","19.88","0","SATNPRO1963","30.848","0.43208","5"],
    [3519,"HCEP03730564","2023-11-04 00:15:00","12.1644","3.57204","25.529","1.819","7.52","0.807","4.365","0.22","0.2","30.7122","4.80573","20.55","0","SATNPRO1963","30.876","0.43246","5"],
    [3520,"HCEP03730564","2023-11-04 00:30:00","12.1657","3.57236","25.255","1.823","7.52","0.807","4.365","0.22","0.2","30.7142","4.80598","20.59","0","SATNPRO1963","31.222","0.43732","5"],
    [3521,"HCEP03730564","2023-11-04 00:45:00","12.1656","3.57251","25.202","1.815","7.52","0.807","4.365","0.22","0.2","30.7158","4.8062","20.5","0","SATNPRO1963","31.03","0.43464","5"],
    [3522,"HCEP03730564","2023-11-04 01:00:00","12.1651","3.57242","25.013","1.804","7.52","0.807","4.365","0.22","0.2","30.7154","4.80615","20.37","0","SATNPRO1963","31.292","0.43828","5"],
    [3523,"HCEP03730564","2023-11-04 01:15:00","12.1694","3.57339","25.028","1.877","7.52","0.807","4.365","0.22","0.2","30.7211","4.80689","21.2","0","SATNPRO1963","31.042","0.43478","5"],
    [3524,"HCEP03730564","2023-11-04 01:30:00","12.1699","3.57374","24.862","1.885","7.52","0.807","4.365","0.22","0.2","30.7241","4.8073","21.29","0","SATNPRO1963","31.444","0.44042","5"],
    [3525,"HCEP03730564","2023-11-04 01:45:00","12.173400000000001","3.57457","24.733","1.925","7.52","0.807","4.365","0.22","0.2","30.7293","4.80798","21.74","0","SATNPRO1963","31.22","0.43728","5"],
    [3526,"HCEP03730564","2023-11-04 02:00:00","12.1737","3.57492","24.756","1.938","7.52","0.807","4.365","0.22","0.2","30.7324","4.80841","21.9","0","SATNPRO1963","31.292","0.43826","5"],
    [3527,"HCEP03730564","2023-11-04 02:15:00","12.1748","3.57543","24.748","1.926","7.53","0.807","4.365","0.22","0.2","30.7363","4.80895","21.76","0","SATNPRO1963","31.644","0.4432","5"],
    [3528,"HCEP03730564","2023-11-04 02:30:00","12.1826","3.57735","24.725","2.002","7.53","0.807","4.365","0.22","0.2","30.7482","4.81051","22.62","0","SATNPRO1963","31.494","0.44112","5"],
    [3529,"HCEP03730564","2023-11-04 02:45:00","12.1857","3.57817","24.69","2.052","7.54","0.807","4.365","0.22","0.2","30.7536","4.81123","23.2","0","SATNPRO1963","31.706","0.44406","5"],
    [3530,"HCEP03730564","2023-11-04 03:00:00","12.1866","3.57855","24.622","2.064","7.54","0.807","4.365","0.22","0.2","30.7564","4.81161","23.33","0","SATNPRO1963","31.48","0.44096","5"],
    [3531,"HCEP03730564","2023-11-04 03:15:00","12.1857","3.57836","24.67","2.059","7.54","0.807","4.365","0.22","0.2","30.7553","4.81146","23.27","0","SATNPRO1963","31.624","0.44292","5"],
    [3532,"HCEP03730564","2023-11-04 03:30:00","12.1845","3.57793","24.748","2.044","7.54","0.807","4.365","0.22","0.2","30.7521","4.81104","23.1","0","SATNPRO1963","31.812","0.4456","5"],
    [3533,"HCEP03730564","2023-11-04 03:45:00","12.1856","3.57844","24.858","2.037","7.54","0.807","4.365","0.22","0.2","30.7561","4.81159","23.02","0","SATNPRO1963","31.906","0.44688","5"],
    [3534,"HCEP03730564","2023-11-04 04:00:00","12.1785","3.57623","24.91","1.99","7.54","0.807","4.365","0.22","0.2","30.7409","4.80955","22.48","0","SATNPRO1963","32.01","0.44834","5"],
    [3535,"HCEP03730564","2023-11-04 04:15:00","12.176","3.57549","24.975","1.945","7.53","0.807","4.365","0.22","0.2","30.7358","4.80888","21.97","0","SATNPRO1963","31.88","0.44654","5"],
    [3536,"HCEP03730564","2023-11-04 04:30:00","12.1742","3.57507","25.151","1.922","7.53","0.807","4.365","0.22","0.2","30.7332","4.80854","21.72","0","SATNPRO1963","31.758","0.4448","5"],
    [3537,"HCEP03730564","2023-11-04 04:45:00","12.1748","3.57533","25.244","1.91","7.53","0.807","4.365","0.22","0.2","30.7352","4.80881","21.57","0","SATNPRO1963","31.982","0.448","5"],
    [3538,"HCEP03730564","2023-11-04 05:00:00","12.1745","3.5747","25.358","1.924","7.53","0.807","4.365","0.22","0.2","30.7294","4.80801","21.73","0","SATNPRO1963","31.884","0.4466","5"],
    [3539,"HCEP03730564","2023-11-04 05:15:00","12.1716","3.57426","25.438","1.877","7.53","0.807","4.365","0.22","0.2","30.7275","4.80779","21.21","0","SATNPRO1963","31.634","0.44308","5"],
    [3540,"HCEP03730564","2023-11-04 05:30:00","12.165","3.57241","25.631","1.806","7.52","0.807","4.365","0.22","0.2","30.7152","4.80615","20.39","0","SATNPRO1963","31.786","0.44524","5"],
    [3541,"HCEP03730564","2023-11-04 05:45:00","12.1736","3.57503","25.768","1.863","7.52","0.807","4.365","0.22","0.2","30.733","4.80855","21.04","0","SATNPRO1963","31.663999999999998","0.4435","5"],
    [3542,"HCEP03730564","2023-11-04 06:00:00","12.1789","3.57667","26.004","1.93","7.53","0.807","4.365","0.22","0.2","30.7443","4.81008","21.8","0","SATNPRO1963","31.544","0.44182","5"],
    [3543,"HCEP03730564","2023-11-04 06:15:00","12.1784","3.57652","26.099","1.93","7.53","0.807","4.365","0.22","0.2","30.7432","4.80995","21.8","0","SATNPRO1963","31.592","0.44248","5"],
    [3544,"HCEP03730564","2023-11-04 06:30:00","12.1741","3.57531","26.368","1.888","7.53","0.807","4.365","0.22","0.2","30.7351","4.80887","21.33","0","SATNPRO1963","31.274","0.43808","5"],
    [3545,"HCEP03730564","2023-11-04 06:45:00","12.1741","3.5756","26.471","1.861","7.53","0.807","4.365","0.22","0.2","30.7378","4.80926","21.03","0","SATNPRO1963","31.386","0.43958","5"],
    [3546,"HCEP03730564","2023-11-04 07:00:00","12.1746","3.5759","26.656","1.853","7.53","0.807","4.365","0.22","0.2","30.7402","4.80961","20.94","0","SATNPRO1963","31.57","0.44218","5"],
    [3547,"HCEP03730564","2023-11-04 07:15:00","12.1682","3.57404","26.834","1.792","7.52","0.807","4.365","0.22","0.2","30.7276","4.80793","20.24","0","SATNPRO1963","31.45","0.4405","5"],
    [3548,"HCEP03730564","2023-11-04 07:30:00","12.1639","3.57299","27.018","1.714","7.52","0.807","4.365","0.22","0.2","30.7211","4.80707","19.36","0","SATNPRO1963","31.388","0.43968","5"],
    [3549,"HCEP03730564","2023-11-04 07:45:00","12.1568","3.57102","27.055","1.622","7.51","0.807","4.365","0.22","0.2","30.708","4.80533","18.32","0","SATNPRO1963","31.48","0.44096","5"],
    [3550,"HCEP03730564","2023-11-04 08:00:00","12.155","3.57055","27.261","1.563","7.5","0.807","4.365","0.22","0.2","30.7049","4.80493","17.65","0","SATNPRO1963","31.314","0.43864","5"],
    [3551,"HCEP03730564","2023-11-04 08:15:00","12.1545","3.57063","27.424","1.534","7.5","0.807","4.365","0.22","0.2","30.7061","4.80512","17.32","0","SATNPRO1963","31.19","0.4369","5"],
    [3552,"HCEP03730564","2023-11-04 08:30:00","12.1511","3.56875","27.585","1.536","7.49","0.807","4.365","0.22","0.2","30.6909","4.80302","17.34","0","SATNPRO1963","30.792","0.4313","5"],
    [3553,"HCEP03730564","2023-11-04 08:45:00","12.1504","3.56848","27.598","1.532","7.49","0.807","4.365","0.22","0.2","30.6888","4.80275","17.29","0","SATNPRO1963","30.458","0.42664","5"],
    [3554,"HCEP03730564","2023-11-04 09:00:00","12.146","3.56751","27.613","1.512","7.49","0.807","4.365","0.22","0.2","30.6832","4.80201","17.07","0","SATNPRO1963","30.242","0.42356","5"],
    [3555,"HCEP03730564","2023-11-04 09:15:00","12.1401","3.56608","27.718","1.43","7.49","0.807","4.365","0.22","0.2","30.6743","4.80085","16.14","0","SATNPRO1963","30.03","0.42062","5"],
    [3556,"HCEP03730564","2023-11-04 09:30:00","12.1361","3.56482","27.862","1.325","7.48","0.807","4.365","0.22","0.2","30.6655","4.79967","14.95","0","SATNPRO1963","30.258","0.42378","5"],
    [3557,"HCEP03730564","2023-11-04 09:45:00","12.1358","3.56439","27.9","1.285","7.48","0.807","4.365","0.22","0.2","30.6616","4.79913","14.5","0","SATNPRO1963","30.5","0.42722","5"],
    [3558,"HCEP03730564","2023-11-04 10:00:00","12.1315","3.5633","27.917","1.206","7.47","0.807","4.365","0.22","0.2","30.6548","4.79822","13.6","0","SATNPRO1963","30.432","0.42622","5"],
    [3559,"HCEP03730564","2023-11-04 10:15:00","12.1256","3.56167","27.917","1.14","7.46","0.807","4.365","0.22","0.2","30.644","4.79678","12.86","0","SATNPRO1963","29.66","0.41548","5"],
    [3560,"HCEP03730564","2023-11-04 10:30:00","12.1246","3.56147","27.872","1.096","7.46","0.807","4.365","0.22","0.2","30.643","4.79665","12.37","0","SATNPRO1963","29.502","0.41324","5"],
    [3561,"HCEP03730564","2023-11-04 10:45:00","12.1234","3.56135","27.971","1.061","7.45","0.807","4.365","0.22","0.2","30.6428","4.79664","11.96","0","SATNPRO1963","29.178","0.40868","5"],
    [3562,"HCEP03730564","2023-11-04 11:00:00","12.125","3.56189","27.98","1.065","7.45","0.807","4.365","0.22","0.2","30.6466","4.79716","12.02","0","SATNPRO1963","29.074","0.40726","5"],
    [3563,"HCEP03730564","2023-11-04 11:15:00","12.1248","3.5616","27.973","1.063","7.45","0.807","4.365","0.22","0.2","30.6439","4.79679","11.99","0","SATNPRO1963","28.576","0.40022","5"],
    [3564,"HCEP03730564","2023-11-04 11:30:00","12.1222","3.56077","27.991","1.039","7.45","0.807","4.365","0.22","0.2","30.6381","4.79601","11.72","0","SATNPRO1963","28.232","0.39542","5"],
    [3565,"HCEP03730564","2023-11-04 11:45:00","12.1208","3.55987","27.991","1.029","7.45","0.807","4.365","0.22","0.2","30.6307","4.79498","11.61","0","SATNPRO1963","28.044","0.39282","5"],
    [3566,"HCEP03730564","2023-11-04 12:00:00","12.1209","3.55946","27.954","1.047","7.44","0.807","4.365","0.22","0.2","30.6266","4.7944","11.81","0","SATNPRO1963","28.274","0.39604","5"],
    [3567,"HCEP03730564","2023-11-04 12:15:00","12.1198","3.55918","27.921","1.044","7.44","0.807","4.365","0.22","0.2","30.6249","4.79418","11.77","0","SATNPRO1963","28.322","0.39672","5"],
    [3568,"HCEP03730564","2023-11-04 12:30:00","12.116","3.55853","27.873","0.975","7.44","0.807","4.365","0.22","0.2","30.6219","4.79379","11","0","SATNPRO1963","28.222","0.39528","5"],
    [3569,"HCEP03730564","2023-11-04 12:45:00","12.1107","3.5576","27.843","0.866","7.44","0.807","4.365","0.22","0.2","30.6173","4.79323","9.76","0","SATNPRO1963","28.268","0.39594","5"],
    [3570,"HCEP03730564","2023-11-04 13:00:00","12.1067","3.55682","27.762","0.779","7.43","0.807","4.365","0.22","0.2","30.6132","4.7927","8.78","0","SATNPRO1963","28.24","0.39554","5"],
    [3571,"HCEP03730564","2023-11-04 13:15:00","12.1026","3.55609","27.701","0.696","7.42","0.807","4.365","0.22","0.2","30.6096","4.79224","7.85","0","SATNPRO1963","28.012","0.39232","5"],
    [3572,"HCEP03730564","2023-11-04 13:30:00","12.099","3.5555","27.627","0.627","7.42","0.807","4.365","0.22","0.2","30.6069","4.7919","7.07","0","SATNPRO1963","27.394000000000002","0.3837","5"],
    [3573,"HCEP03730564","2023-11-04 13:45:00","12.0967","3.555","27.543","0.574","7.41","0.807","4.365","0.22","0.2","30.604","4.79153","6.47","0","SATNPRO1963","26.69","0.37384","5"],
    [3574,"HCEP03730564","2023-11-04 14:00:00","12.0952","3.55453","27.393","0.54","7.41","0.807","4.365","0.22","0.2","30.6008","4.79108","6.09","0","SATNPRO1963","26.138","0.36612","5"],
    [3575,"HCEP03730564","2023-11-04 14:15:00","12.0946","3.55424","27.257","0.532","7.4","0.807","4.365","0.22","0.2","30.5986","4.79077","5.99","0","SATNPRO1963","25.332","0.35482","5"],
    [3576,"HCEP03730564","2023-11-04 14:30:00","12.0946","3.55407","27.174","0.533","7.4","0.807","4.365","0.22","0.2","30.597","4.79054","6","0","SATNPRO1963","24.842","0.348","5"],
    [3577,"HCEP03730564","2023-11-04 14:45:00","12.0945","3.55386","27.11","0.536","7.4","0.807","4.365","0.22","0.2","30.5951","4.79028","6.04","0","SATNPRO1963","24.24","0.33946","5"],
    [3578,"HCEP03730564","2023-11-04 15:00:00","12.0946","3.55371","27.06","0.539","7.4","0.807","4.365","0.22","0.2","30.5937","4.79007","6.08","0","SATNPRO1963","23.9","0.33474","5"],
    [3579,"HCEP03730564","2023-11-04 15:15:00","12.0952","3.55338","26.968","0.552","7.4","0.807","4.365","0.22","0.2","30.59","4.78953","6.22","0","SATNPRO1963","23.758","0.33284","5"],
    [3580,"HCEP03730564","2023-11-04 15:30:00","12.0952","3.55336","26.89","0.563","7.4","0.807","4.365","0.22","0.2","30.5899","4.78951","6.35","0","SATNPRO1963","23.796","0.33328","5"],
    [3581,"HCEP03730564","2023-11-04 15:45:00","12.0956","3.55306","26.826","0.573","7.4","0.807","4.365","0.22","0.2","30.5867","4.78906","6.46","0","SATNPRO1963","23.91","0.33492","5"],
    [3582,"HCEP03730564","2023-11-04 16:00:00","12.0963","3.55297","26.776","0.587","7.4","0.807","4.365","0.22","0.2","30.5853","4.78885","6.61","0","SATNPRO1963","23.682","0.33174","5"],
    [3583,"HCEP03730564","2023-11-04 16:15:00","12.0966","3.5528","26.738","0.592","7.4","0.807","4.365","0.22","0.2","30.5834","4.78857","6.67","0","SATNPRO1963","23.84","0.33392","5"],
    [3584,"HCEP03730564","2023-11-04 16:30:00","12.097","3.55263","26.727","0.602","7.4","0.807","4.365","0.22","0.2","30.5814","4.78829","6.79","0","SATNPRO1963","23.939999999999998","0.33532","5"],
    [3585,"HCEP03730564","2023-11-04 16:45:00","12.0966","3.55267","26.716","0.607","7.4","0.807","4.365","0.22","0.2","30.5821","4.78839","6.84","0","SATNPRO1963","23.830000000000002","0.33378","5"],
    [3586,"HCEP03730564","2023-11-04 17:00:00","12.0968","3.55263","26.711","0.605","7.4","0.807","4.365","0.22","0.2","30.5817","4.78834","6.82","0","SATNPRO1963","24.02","0.33642","5"],
    [3587,"HCEP03730564","2023-11-04 17:15:00","12.0968","3.5527","26.715","0.6","7.4","0.807","4.365","0.22","0.2","30.5823","4.78842","6.76","0","SATNPRO1963","24.118","0.3378","5"],
    [3588,"HCEP03730564","2023-11-04 17:30:00","12.0964","3.55286","26.695","0.592","7.4","0.807","4.365","0.22","0.2","30.5842","4.78869","6.67","0","SATNPRO1963","24.246000000000002","0.33962","5"],
    [3589,"HCEP03730564","2023-11-04 17:45:00","12.0959","3.55301","26.717","0.578","7.4","0.807","4.365","0.22","0.2","30.586","4.78895","6.51","0","SATNPRO1963","23.884","0.33452","5"],
    [3590,"HCEP03730564","2023-11-04 18:00:00","12.0951","3.55316","26.719","0.559","7.4","0.807","4.365","0.22","0.2","30.5881","4.78925","6.3","0","SATNPRO1963","24.046","0.3368","5"],
    [3591,"HCEP03730564","2023-11-04 18:15:00","12.0947","3.55335","26.733","0.541","7.4","0.807","4.365","0.22","0.2","30.5902","4.78957","6.1","0","SATNPRO1963","24.036","0.33666","5"],
    [3592,"HCEP03730564","2023-11-04 18:30:00","12.0943","3.55372","26.696","0.521","7.4","0.807","4.365","0.22","0.2","30.5941","4.79012","5.87","0","SATNPRO1963","24.026","0.33652","5"],
    [3593,"HCEP03730564","2023-11-04 18:45:00","12.0947","3.55425","26.728","0.512","7.4","0.807","4.365","0.22","0.2","30.5988","4.79078","5.76","0","SATNPRO1963","23.812","0.33356","5"],
    [3594,"HCEP03730564","2023-11-04 19:00:00","12.1042","3.55583","26.708","0.625","7.4","0.807","4.365","0.22","0.2","30.6062","4.79169","7.04","0","SATNPRO1963","23.772","0.33298","5"],
    [3595,"HCEP03730564","2023-11-04 19:15:00","12.1119","3.55675","26.749","0.786","7.41","0.807","4.365","0.22","0.2","30.6087","4.79193","8.86","0","SATNPRO1963","23.402","0.32776","5"],
    [3596,"HCEP03730564","2023-11-04 19:30:00","12.1124","3.55686","26.759","0.852","7.42","0.807","4.365","0.22","0.2","30.6093","4.79201","9.61","0","SATNPRO1963","23.514","0.32936","5"],
    [3597,"HCEP03730564","2023-11-04 19:45:00","12.122","3.55983","26.786","0.958","7.42","0.807","4.365","0.22","0.2","30.6298","4.79477","10.8","0","SATNPRO1963","23.672","0.33156","5"],
    [3598,"HCEP03730564","2023-11-04 20:00:00","12.1259","3.56098","26.768","1.058","7.43","0.807","4.365","0.22","0.2","30.6376","4.79581","11.93","0","SATNPRO1963","25.492","0.35704","5"],
    [3599,"HCEP03730564","2023-11-04 20:15:00","12.1353","3.56359","26.797","1.169","7.44","0.807","4.365","0.22","0.2","30.6548","4.79811","13.19","0","SATNPRO1963","26.846","0.37604","5"],
    [3600,"HCEP03730564","2023-11-04 20:30:00","12.1391","3.56485","26.785","1.244","7.45","0.807","4.365","0.22","0.2","30.6637","4.79932","14.04","0","SATNPRO1963","26.876","0.37646","5"],
    [3601,"HCEP03730564","2023-11-04 20:45:00","12.141","3.56562","26.784","1.279","7.45","0.807","4.365","0.22","0.2","30.6695","4.8001","14.44","0","SATNPRO1963","27.168","0.38054","5"],
    [3602,"HCEP03730564","2023-11-04 21:00:00","12.1451","3.567","26.774","1.329","7.46","0.807","4.365","0.22","0.2","30.6794","4.80144","15","0","SATNPRO1963","27.702","0.388","5"],
    [3603,"HCEP03730564","2023-11-04 21:15:00","12.1483","3.56802","26.764","1.383","7.46","0.807","4.365","0.22","0.2","30.6865","4.8024","15.61","0","SATNPRO1963","28.51","0.3993","5"],
    [3604,"HCEP03730564","2023-11-04 21:30:00","12.152","3.56911","26.749","1.443","7.47","0.807","4.365","0.22","0.2","30.6938","4.80338","16.29","0","SATNPRO1963","29.052","0.4069","5"],
    [3605,"HCEP03730564","2023-11-04 21:45:00","12.1539","3.56973","26.706","1.487","7.47","0.807","4.365","0.22","0.2","30.6983","4.80398","16.79","0","SATNPRO1963","28.91","0.40496","5"],
    [3606,"HCEP03730564","2023-11-04 22:00:00","12.156","3.57035","26.686","1.517","7.48","0.807","4.365","0.22","0.2","30.7025","4.80455","17.13","0","SATNPRO1963","29.466","0.41274","5"],
    [3607,"HCEP03730564","2023-11-04 22:15:00","12.1576","3.57081","26.641","1.538","7.48","0.807","4.365","0.22","0.2","30.7056","4.80496","17.37","0","SATNPRO1963","29.526","0.41354","5"],
    [3608,"HCEP03730564","2023-11-04 22:30:00","12.1584","3.57104","26.6","1.552","7.48","0.807","4.365","0.22","0.2","30.7071","4.80516","17.52","0","SATNPRO1963","30.15","0.42228","5"],
    [3609,"HCEP03730564","2023-11-04 22:45:00","12.158","3.57102","26.516","1.551","7.48","0.807","4.365","0.22","0.2","30.7073","4.80519","17.52","0","SATNPRO1963","30.176000000000002","0.42264","5"],
    [3610,"HCEP03730564","2023-11-04 23:00:00","12.1569","3.57075","26.453","1.534","7.48","0.807","4.365","0.22","0.2","30.7056","4.80496","17.32","0","SATNPRO1963","30.456","0.42658","5"],
    [3611,"HCEP03730564","2023-11-04 23:15:00","12.157","3.57095","26.383","1.528","7.48","0.807","4.365","0.22","0.2","30.7074","4.80521","17.25","0","SATNPRO1963","30.528","0.42758","5"],
    [3612,"HCEP03730564","2023-11-04 23:30:00","12.1567","3.57109","26.298","1.516","7.48","0.807","4.365","0.22","0.2","30.7091","4.80545","17.12","0","SATNPRO1963","30.568","0.42818","5"],
    [3613,"HCEP03730564","2023-11-04 23:45:00","12.1585","3.57176","26.219","1.526","7.48","0.807","4.365","0.22","0.2","30.7141","4.80612","17.23","0","SATNPRO1963","30.630000000000003","0.42902","5"],
    [3614,"HCEP03730564","2023-11-05 00:00:00","12.1576","3.57134","26.116","1.525","7.49","0.807","4.365","0.22","0.2","30.7109","4.80568","17.23","0","SATNPRO1963","30.29","0.42426","5"],
    [3615,"HCEP03730564","2023-11-05 00:15:00","12.1544","3.57037","25.993","1.497","7.49","0.807","4.365","0.22","0.2","30.7042","4.80477","16.91","0","SATNPRO1963","30.546","0.4278","5"],
    [3616,"HCEP03730564","2023-11-05 00:30:00","12.151","3.56921","25.898","1.46","7.48","0.807","4.365","0.22","0.2","30.696","4.80366","16.48","0","SATNPRO1963","30.43","0.42624","5"],
    [3617,"HCEP03730564","2023-11-05 00:45:00","12.1481","3.56833","25.786","1.42","7.48","0.807","4.365","0.22","0.2","30.69","4.80284","16.03","0","SATNPRO1963","30.408","0.42594","5"],
    [3618,"HCEP03730564","2023-11-05 01:00:00","12.1436","3.56638","25.671","1.38","7.48","0.807","4.365","0.22","0.2","30.6751","4.80079","15.58","0","SATNPRO1963","30.422","0.42612","5"],
    [3619,"HCEP03730564","2023-11-05 01:15:00","12.1279","3.56067","25.584","1.191","7.47","0.807","4.365","0.22","0.2","30.6335","4.79515","13.43","0","SATNPRO1963","30.184","0.42278","5"],
    [3620,"HCEP03730564","2023-11-05 01:30:00","12.1283","3.56057","25.463","1.114","7.46","0.807","4.365","0.22","0.2","30.6323","4.79496","12.57","0","SATNPRO1963","29.968","0.41976","5"],
    [3621,"HCEP03730564","2023-11-05 01:45:00","12.1274","3.56008","25.367","1.097","7.45","0.807","4.365","0.22","0.2","30.6283","4.7944","12.37","0","SATNPRO1963","29.808","0.4175","5"],
    [3622,"HCEP03730564","2023-11-05 02:00:00","12.124","3.55936","25.279","1.059","7.45","0.807","4.365","0.22","0.2","30.6243","4.79388","11.94","0","SATNPRO1963","29.666","0.41552","5"],
    [3623,"HCEP03730564","2023-11-05 02:15:00","12.1237","3.55914","25.179","1.046","7.45","0.807","4.365","0.22","0.2","30.6224","4.79362","11.8","0","SATNPRO1963","28.672","0.40162","5"],
    [3624,"HCEP03730564","2023-11-05 02:30:00","12.1191","3.55829","25.108","1.006","7.44","0.807","4.365","0.22","0.2","30.6181","4.79307","11.34","0","SATNPRO1963","28.652","0.40128","5"],
    [3625,"HCEP03730564","2023-11-05 02:45:00","12.119","3.55814","25.067","0.98","7.44","0.807","4.365","0.22","0.2","30.6167","4.79287","11.05","0","SATNPRO1963","28.606","0.40064","5"],
    [3626,"HCEP03730564","2023-11-05 03:00:00","12.1342","3.56261","25.021","1.176","7.44","0.807","4.365","0.22","0.2","30.6471","4.79694","13.27","0","SATNPRO1963","28.445999999999998","0.3984","5"],
    [3627,"HCEP03730564","2023-11-05 03:15:00","12.1298","3.56104","25.018","1.221","7.45","0.807","4.365","0.22","0.2","30.6357","4.7954","13.77","0","SATNPRO1963","27.996","0.3921","5"],
    [3628,"HCEP03730564","2023-11-05 03:30:00","12.1302","3.56102","25.008","1.206","7.45","0.807","4.365","0.22","0.2","30.6352","4.79532","13.6","0","SATNPRO1963","27.836000000000002","0.3899","5"],
    [3629,"HCEP03730564","2023-11-05 03:45:00","12.1266","3.56003","25.01","1.149","7.45","0.807","4.365","0.22","0.2","30.6286","4.79444","12.96","0","SATNPRO1963","27.3","0.3824","5"],
    [3630,"HCEP03730564","2023-11-05 04:00:00","12.1249","3.55941","25.016","1.095","7.45","0.807","4.365","0.22","0.2","30.6241","4.79383","12.35","0","SATNPRO1963","28.808","0.4035","5"],
    [3631,"HCEP03730564","2023-11-05 04:15:00","12.125","3.55955","25.012","1.07","7.45","0.807","4.365","0.22","0.2","30.6253","4.794","12.07","0","SATNPRO1963","28.88","0.4045","5"],
    [3632,"HCEP03730564","2023-11-05 04:30:00","12.1259","3.55986","25.035","1.071","7.45","0.807","4.365","0.22","0.2","30.6275","4.7943","12.08","0","SATNPRO1963","29.082","0.40736","5"],
    [3633,"HCEP03730564","2023-11-05 04:45:00","12.1355","3.56458","25.076","1.19","7.45","0.807","4.365","0.22","0.2","30.6648","4.79943","13.43","0","SATNPRO1963","28.66","0.40144","5"],
    [3634,"HCEP03730564","2023-11-05 05:00:00","12.1374","3.56531","25.102","1.246","7.45","0.807","4.365","0.22","0.2","30.6702","4.80016","14.06","0","SATNPRO1963","28.596","0.40054","5"],
    [3635,"HCEP03730564","2023-11-05 05:15:00","12.1381","3.56543","25.178","1.246","7.46","0.807","4.365","0.22","0.2","30.6707","4.80023","14.06","0","SATNPRO1963","28.51","0.39934","5"],
    [3636,"HCEP03730564","2023-11-05 05:30:00","12.1438","3.5677","25.252","1.257","7.46","0.807","4.365","0.22","0.2","30.6877","4.80255","14.18","0","SATNPRO1963","28.564","0.4001","5"],
    [3637,"HCEP03730564","2023-11-05 05:45:00","12.1449","3.56809","25.359","1.27","7.46","0.807","4.365","0.22","0.2","30.6905","4.80293","14.33","0","SATNPRO1963","29.148","0.40824","5"],
    [3638,"HCEP03730564","2023-11-05 06:00:00","12.14","3.56636","25.448","1.248","7.46","0.807","4.365","0.22","0.2","30.6779","4.80123","14.08","0","SATNPRO1963","29.132","0.40804","5"],
    [3639,"HCEP03730564","2023-11-05 06:15:00","12.1345","3.56424","25.576","1.196","7.46","0.807","4.365","0.22","0.2","30.6622","4.7991","13.49","0","SATNPRO1963","28.868","0.40432","5"],
    [3640,"HCEP03730564","2023-11-05 06:30:00","12.1399","3.56595","25.733","1.204","7.46","0.807","4.365","0.22","0.2","30.674","4.80071","13.59","0","SATNPRO1963","28.956","0.40554","5"],
    [3641,"HCEP03730564","2023-11-05 06:45:00","12.1361","3.5648","25.861","1.193","7.46","0.807","4.365","0.22","0.2","30.6661","4.79964","13.46","0","SATNPRO1963","28.852","0.40412","5"],
    [3642,"HCEP03730564","2023-11-05 07:00:00","12.1321","3.56321","26.011","1.15","7.45","0.807","4.365","0.22","0.2","30.6541","4.79802","12.97","0","SATNPRO1963","29.068","0.40718","5"],
    [3643,"HCEP03730564","2023-11-05 07:15:00","12.1374","3.56376","26.162","1.186","7.45","0.807","4.365","0.22","0.2","30.6549","4.79807","13.38","0","SATNPRO1963","28.538","0.39972","5"],
    [3644,"HCEP03730564","2023-11-05 07:30:00","12.1367","3.5636","26.359","1.203","7.45","0.807","4.365","0.22","0.2","30.654","4.79796","13.57","0","SATNPRO1963","28.908","0.40492","5"],
    [3645,"HCEP03730564","2023-11-05 07:45:00","12.1344","3.56367","26.483","1.18","7.46","0.807","4.365","0.22","0.2","30.6565","4.79834","13.32","0","SATNPRO1963","28.76","0.4028","5"],
    [3646,"HCEP03730564","2023-11-05 08:00:00","12.1352","3.56393","26.661","1.174","7.46","0.807","4.365","0.22","0.2","30.6582","4.79859","13.24","0","SATNPRO1963","28.44","0.39832","5"],
    [3647,"HCEP03730564","2023-11-05 08:15:00","12.1346","3.56471","26.827","1.127","7.45","0.807","4.365","0.22","0.2","30.6661","4.79972","12.72","0","SATNPRO1963","29.372","0.41142","5"],
    [3648,"HCEP03730564","2023-11-05 08:30:00","12.1387","3.56581","26.985","1.173","7.45","0.807","4.365","0.22","0.2","30.6732","4.80067","13.23","0","SATNPRO1963","29.282","0.41016","5"],
    [3649,"HCEP03730564","2023-11-05 08:45:00","12.1388","3.56601","27.104","1.188","7.46","0.807","4.365","0.22","0.2","30.675","4.80093","13.4","0","SATNPRO1963","28.834","0.40386","5"],
    [3650,"HCEP03730564","2023-11-05 09:00:00","12.137","3.56536","27.277","1.151","7.46","0.807","4.365","0.22","0.2","30.6702","4.80029","12.98","0","SATNPRO1963","28.688","0.4018","5"],
    [3651,"HCEP03730564","2023-11-05 09:15:00","12.1333","3.56404","27.347","1.116","7.46","0.807","4.365","0.22","0.2","30.6605","4.79898","12.59","0","SATNPRO1963","27.988","0.39202","5"],
    [3652,"HCEP03730564","2023-11-05 09:30:00","12.1301","3.56299","27.465","1.084","7.45","0.807","4.365","0.22","0.2","30.6531","4.79798","12.23","0","SATNPRO1963","28.508","0.39926","5"],
    [3653,"HCEP03730564","2023-11-05 09:45:00","12.1242","3.56091","27.593","1.039","7.45","0.807","4.365","0.22","0.2","30.638","4.79594","11.72","0","SATNPRO1963","28.582","0.40034","5"],
    [3654,"HCEP03730564","2023-11-05 10:00:00","12.1215","3.55938","27.68","1.039","7.45","0.807","4.365","0.22","0.2","30.6256","4.79423","11.71","0","SATNPRO1963","28.482","0.39894","5"],
    [3655,"HCEP03730564","2023-11-05 10:15:00","12.1228","3.56087","27.764","1.011","7.45","0.807","4.365","0.22","0.2","30.6387","4.79607","11.41","0","SATNPRO1963","27.986","0.392","5"],
    [3656,"HCEP03730564","2023-11-05 10:30:00","12.1232","3.56097","27.781","0.968","7.44","0.807","4.365","0.22","0.2","30.6393","4.79615","10.91","0","SATNPRO1963","27.874","0.39042","5"],
    [3657,"HCEP03730564","2023-11-05 10:45:00","12.1233","3.56102","27.856","0.949","7.44","0.807","4.365","0.22","0.2","30.6397","4.7962","10.7","0","SATNPRO1963","27.128","0.37996","5"],
    [3658,"HCEP03730564","2023-11-05 11:00:00","12.1268","3.56225","27.863","0.994","7.44","0.807","4.365","0.22","0.2","30.6486","4.79741","11.21","0","SATNPRO1963","26.983999999999998","0.37794","5"],
    [3659,"HCEP03730564","2023-11-05 11:15:00","12.1319","3.56387","27.886","1.05","7.44","0.807","4.365","0.22","0.2","30.6599","4.79893","11.85","0","SATNPRO1963","27.073999999999998","0.37922","5"],
    [3660,"HCEP03730564","2023-11-05 11:30:00","12.1326","3.56408","28.006","1.068","7.45","0.807","4.365","0.22","0.2","30.6613","4.79913","12.05","0","SATNPRO1963","26.858","0.37616","5"],
    [3661,"HCEP03730564","2023-11-05 11:45:00","12.1336","3.56453","27.945","1.071","7.45","0.807","4.365","0.22","0.2","30.6648","4.79961","12.08","0","SATNPRO1963","27.184","0.38074","5"],
    [3662,"HCEP03730564","2023-11-05 12:00:00","12.1333","3.56462","27.97","1.066","7.45","0.807","4.365","0.22","0.2","30.6658","4.79976","12.03","0","SATNPRO1963","27.69","0.38782","5"],
    [3663,"HCEP03730564","2023-11-05 12:15:00","12.1317","3.56399","27.954","1.041","7.45","0.807","4.365","0.22","0.2","30.6611","4.79912","11.74","0","SATNPRO1963","27.826","0.38974","5"],
    [3664,"HCEP03730564","2023-11-05 12:30:00","12.1298","3.56326","27.937","1.009","7.45","0.807","4.365","0.22","0.2","30.6557","4.79839","11.38","0","SATNPRO1963","28.138","0.39416","5"],
    [3665,"HCEP03730564","2023-11-05 12:45:00","12.129","3.56326","27.847","0.986","7.44","0.807","4.365","0.22","0.2","30.6564","4.79848","11.12","0","SATNPRO1963","28.014","0.39236","5"],
    [3666,"HCEP03730564","2023-11-05 13:00:00","12.1275","3.56276","27.843","0.967","7.44","0.807","4.365","0.22","0.2","30.6528","4.798","10.91","0","SATNPRO1963","27.904","0.39084","5"],
    [3667,"HCEP03730564","2023-11-05 13:15:00","12.1268","3.56255","27.769","0.948","7.44","0.807","4.365","0.22","0.2","30.6514","4.79781","10.69","0","SATNPRO1963","27.904","0.39084","5"],
    [3668,"HCEP03730564","2023-11-05 13:30:00","12.1256","3.56223","27.754","0.931","7.44","0.807","4.365","0.22","0.2","30.6494","4.79754","10.5","0","SATNPRO1963","27.483999999999998","0.38492","5"],
    [3669,"HCEP03730564","2023-11-05 13:45:00","12.1247","3.56189","27.693","0.909","7.44","0.807","4.365","0.22","0.2","30.6469","4.79719","10.26","0","SATNPRO1963","27.652","0.3873","5"],
    [3670,"HCEP03730564","2023-11-05 14:00:00","12.1264","3.56243","27.621","0.913","7.44","0.807","4.365","0.22","0.2","30.6507","4.7977","10.3","0","SATNPRO1963","27.442","0.38442","5"],
    [3671,"HCEP03730564","2023-11-05 14:15:00","12.1242","3.56186","27.579","0.883","7.43","0.807","4.365","0.22","0.2","30.6471","4.79723","9.96","0","SATNPRO1963","27.304","0.38246","5"],
    [3672,"HCEP03730564","2023-11-05 14:30:00","12.1237","3.56182","27.465","0.836","7.43","0.807","4.365","0.22","0.2","30.6471","4.79723","9.43","0","SATNPRO1963","27.104","0.37966","5"],
    [3673,"HCEP03730564","2023-11-05 14:45:00","12.1207","3.56088","27.363","0.8","7.43","0.807","4.365","0.22","0.2","30.6407","4.79636","9.02","0","SATNPRO1963","26.86","0.3762","5"],
    [3674,"HCEP03730564","2023-11-05 15:00:00","12.1189","3.56023","27.268","0.769","7.42","0.807","4.365","0.22","0.2","30.636","4.79571","8.67","0","SATNPRO1963","27.08","0.3793","5"],
    [3675,"HCEP03730564","2023-11-05 15:15:00","12.1161","3.55938","27.187","0.747","7.42","0.807","4.365","0.22","0.2","30.6302","4.79493","8.42","0","SATNPRO1963","26.674","0.37362","5"],
    [3676,"HCEP03730564","2023-11-05 15:30:00","12.1159","3.55942","27.092","0.73","7.42","0.807","4.365","0.22","0.2","30.6307","4.795","8.23","0","SATNPRO1963","26.186","0.36676","5"],
    [3677,"HCEP03730564","2023-11-05 15:45:00","12.1162","3.55944","26.99","0.721","7.42","0.807","4.365","0.22","0.2","30.6307","4.795","8.13","0","SATNPRO1963","25.982","0.36392","5"],
    [3678,"HCEP03730564","2023-11-05 16:00:00","12.1172","3.55999","26.918","0.727","7.42","0.807","4.365","0.22","0.2","30.6352","4.7956","8.2","0","SATNPRO1963","25.718","0.36026","5"],
    [3679,"HCEP03730564","2023-11-05 16:15:00","12.1184","3.56025","26.781","0.745","7.42","0.807","4.365","0.22","0.2","30.6368","4.7958","8.4","0","SATNPRO1963","25.53","0.35758","5"],
    [3680,"HCEP03730564","2023-11-05 16:30:00","12.1102","3.55775","26.783","0.853","7.42","0.807","4.365","0.22","0.2","30.6196","4.7935","9.62","0","SATNPRO1963","25.37","0.35534","5"],
    [3681,"HCEP03730564","2023-11-05 16:45:00","12.1191","3.56008","26.645","0.833","7.42","0.807","4.365","0.22","0.2","30.6346","4.79547","9.39","0","SATNPRO1963","25.63","0.35898","5"],
    [3682,"HCEP03730564","2023-11-05 17:00:00","12.1082","3.55456","26.627","0.905","7.43","0.533","2.807","0.06","0.05","30.5909","4.78946","10.2","2","SATNPRO1963","25.556","0.35798","5"],
    [3683,"HCEP03730564","2023-11-05 17:15:00","12.1186","3.55935","26.574","0.929","7.43","0.533","2.807","0.06","0.05","30.6281","4.79457","10.47","0","SATNPRO1963","26.002","0.3642","5"],
    [3684,"HCEP03730564","2023-11-05 17:30:00","12.1178","3.55929","26.547","0.914","7.43","0.533","2.807","0.06","0.05","30.6282","4.79459","10.31","0","SATNPRO1963","25.866","0.36232","5"],
    [3685,"HCEP03730564","2023-11-05 17:45:00","12.1142","3.55777","26.535","0.937","7.43","0.533","2.807","0.06","0.05","30.6165","4.79299","10.57","0","SATNPRO1963","26.484","0.37094","5"],
    [3686,"HCEP03730564","2023-11-05 18:00:00","12.1108","3.55611","26.502","0.986","7.43","0.533","2.807","0.06","0.05","30.6036","4.79121","11.11","0","SATNPRO1963","26.412","0.36996","5"],
    [3687,"HCEP03730564","2023-11-05 18:15:00","12.1131","3.55646","26.465","1.039","7.43","0.533","2.807","0.06","0.05","30.605","4.79139","11.71","0","SATNPRO1963","26.648","0.37326","5"],
    [3688,"HCEP03730564","2023-11-05 18:30:00","12.1193","3.55895","26.453","1.043","7.44","0.533","2.807","0.06","0.05","30.6237","4.79393","11.76","0","SATNPRO1963","26.562","0.37208","5"],
    [3689,"HCEP03730564","2023-11-05 18:45:00","12.1227","3.56027","26.562","1.022","7.44","0.533","2.807","0.06","0.05","30.6335","4.79526","11.53","0","SATNPRO1963","26.572","0.37216","5"],
    [3690,"HCEP03730564","2023-11-05 19:00:00","12.1252","3.56157","26.492","1.01","7.44","0.533","2.807","0.06","0.05","30.6438","4.79669","11.39","0","SATNPRO1963","26.614","0.37276","5"],
    [3691,"HCEP03730564","2023-11-05 19:15:00","12.1278","3.56248","26.482","1.009","7.44","0.533","2.807","0.06","0.05","30.6506","4.7976","11.38","0","SATNPRO1963","27.355999999999998","0.38312","5"],
    [3692,"HCEP03730564","2023-11-05 19:30:00","12.1296","3.56314","26.539","1.031","7.44","0.533","2.807","0.06","0.05","30.6553","4.79824","11.63","0","SATNPRO1963","27.318","0.38264","5"],
    [3693,"HCEP03730564","2023-11-05 19:45:00","12.1326","3.56435","26.495","1.057","7.44",null,null,null,null,"30.6644","4.79948","11.93","2","SATNPRO1963","27.25","0.38166","5"],
    [3694,"HCEP03730564","2023-11-05 20:00:00","12.1387","3.5664","26.497","1.129","7.45","0.533","2.807","0.06","0.05","30.679","4.80146","12.74","0","SATNPRO1963","27.358","0.38316","5"],
    [3695,"HCEP03730564","2023-11-05 20:15:00","12.1414","3.56721","26.514","1.176","7.45","0.533","2.807","0.06","0.05","30.6845","4.8022","13.27","0","SATNPRO1963","27.402","0.38382","5"],
    [3696,"HCEP03730564","2023-11-05 20:30:00","12.1424","3.56761","26.495","1.189","7.45","0.533","2.807","0.06","0.05","30.6876","4.80262","13.41","0","SATNPRO1963","27.554","0.38592","5"],
    [3697,"HCEP03730564","2023-11-05 20:45:00","12.1418","3.56763","26.544","1.186","7.45",null,null,null,null,"30.6881","4.80271","13.39","2","SATNPRO1963","27.696","0.38792","5"],
    [3698,"HCEP03730564","2023-11-05 21:00:00","12.1423","3.56752","26.573","1.193","7.46",null,null,null,null,"30.6867","4.8025","13.46","2","SATNPRO1963","28.296","0.39632","5"],
    [3699,"HCEP03730564","2023-11-05 21:15:00","12.1422","3.5677","26.608","1.19","7.46",null,null,null,null,"30.6885","4.80276","13.43","2","SATNPRO1963","28.37","0.39736","5"],
    [3700,"HCEP03730564","2023-11-05 21:30:00","12.1429","3.56775","26.612","1.211","7.46",null,null,null,null,"30.6884","4.80273","13.67","2","SATNPRO1963","28.466","0.39874","5"],
    [3701,"HCEP03730564","2023-11-05 21:45:00","12.1432","3.56749","26.601","1.227","7.46",null,null,null,null,"30.6857","4.80235","13.84","2","SATNPRO1963","28.32","0.39664","5"],
    [3702,"HCEP03730564","2023-11-05 22:00:00","12.1471","3.567","26.626","1.319","7.46",null,null,null,null,"30.6779","4.80119","14.89","2","SATNPRO1963","28.336000000000002","0.39688","5"],
    [3703,"HCEP03730564","2023-11-05 22:15:00","12.1424","3.56695","26.671","1.279","7.46",null,null,null,null,"30.6812","4.80173","14.43","2","SATNPRO1963","28.54","0.39974","5"],
    [3704,"HCEP03730564","2023-11-05 22:30:00","12.1432","3.56735","26.611","1.225","7.46",null,null,null,null,"30.6843","4.80216","13.83","2","SATNPRO1963","28.596","0.40056","5"],
    [3705,"HCEP03730564","2023-11-05 22:45:00","12.1436","3.56786","26.649","1.216","7.46",null,null,null,null,"30.6888","4.80279","13.72","2","SATNPRO1963","28.514","0.39936","5"],
    [3706,"HCEP03730564","2023-11-05 23:00:00","12.1452","3.568","26.577","1.24","7.46",null,null,null,null,"30.689","4.80278","14","2","SATNPRO1963","29.093999999999998","0.4075","5"],
    [3707,"HCEP03730564","2023-11-05 23:15:00","12.1445","3.56817","26.546","1.23","7.46",null,null,null,null,"30.6911","4.80308","13.89","2","SATNPRO1963","28.666","0.40152","5"],
    [3708,"HCEP03730564","2023-11-05 23:30:00","12.1466","3.56884","26.564","1.237","7.46",null,null,null,null,"30.6958","4.80372","13.96","2","SATNPRO1963","28.704","0.40204","5"],
    [3709,"HCEP03730564","2023-11-05 23:45:00","12.1498","3.56918","26.578","1.293","7.46",null,null,null,null,"30.6964","4.80377","14.6","2","SATNPRO1963","28.758","0.40278","5"],
    [3710,"HCEP03730564","2023-11-06 00:00:00","12.1498","3.56933","26.459","1.318","7.46",null,null,null,null,"30.6979","4.80396","14.88","2","SATNPRO1963","29.004","0.40626","5"],
    [3711,"HCEP03730564","2023-11-06 00:15:00","12.1483","3.56917","26.423","1.28","7.46",null,null,null,null,"30.6977","4.80396","14.45","2","SATNPRO1963","28.76","0.40284","5"],
    [3712,"HCEP03730564","2023-11-06 00:30:00","12.1492","3.56915","26.352","1.293","7.46",null,null,null,null,"30.6967","4.8038","14.6","2","SATNPRO1963","28.834","0.4039","5"],
    [3713,"HCEP03730564","2023-11-06 00:45:00","12.1469","3.56855","26.343","1.279","7.46",null,null,null,null,"30.6929","4.8033","14.44","2","SATNPRO1963","29.16","0.40842","5"],
    [3714,"HCEP03730564","2023-11-06 01:00:00","12.1475","3.56802","26.305","1.294","7.46",null,null,null,null,"30.6873","4.8025","14.61","2","SATNPRO1963","29.134","0.4081","5"],
    [3715,"HCEP03730564","2023-11-06 01:15:00","12.1469","3.56755","26.182","1.312","7.47",null,null,null,null,"30.6834","4.80195","14.81","2","SATNPRO1963","28.764","0.40288","5"],
    [3716,"HCEP03730564","2023-11-06 01:30:00","12.1464","3.56736","26.134","1.308","7.47",null,null,null,null,"30.682","4.80176","14.77","2","SATNPRO1963","28.848","0.40406","5"],
    [3717,"HCEP03730564","2023-11-06 01:45:00","12.1467","3.56739","26.034","1.321","7.47",null,null,null,null,"30.682","4.80175","14.91","2","SATNPRO1963","28.964000000000002","0.4057","5"],
    [3718,"HCEP03730564","2023-11-06 02:00:00","12.1465","3.56703","25.938","1.325","7.47",null,null,null,null,"30.6788","4.80129","14.96","2","SATNPRO1963","29.02","0.40644","5"],
    [3719,"HCEP03730564","2023-11-06 02:15:00","12.1447","3.5663","25.877","1.315","7.47",null,null,null,null,"30.6733","4.80054","14.84","2","SATNPRO1963","29.012","0.40634","5"],
    [3720,"HCEP03730564","2023-11-06 02:30:00","12.1446","3.5662","25.773","1.31","7.47",null,null,null,null,"30.6725","4.80043","14.79","2","SATNPRO1963","29.002000000000002","0.40622","5"],
    [3721,"HCEP03730564","2023-11-06 02:45:00","12.1418","3.56604","25.653","1.253","7.46",null,null,null,null,"30.6733","4.80057","14.14","2","SATNPRO1963","29.028","0.40664","5"],
    [3722,"HCEP03730564","2023-11-06 03:00:00","12.1416","3.56682","25.644","1.197","7.46",null,null,null,null,"30.681","4.80166","13.51","2","SATNPRO1963","28.916","0.40502","5"],
    [3723,"HCEP03730564","2023-11-06 03:15:00","12.1439","3.5675","25.496","1.194","7.46",null,null,null,null,"30.6856","4.80226","13.48","2","SATNPRO1963","28.76","0.40286","5"],
    [3724,"HCEP03730564","2023-11-06 03:30:00","12.1453","3.56771","25.492","1.229","7.46",null,null,null,null,"30.6865","4.80237","13.87","2","SATNPRO1963","28.67","0.40158","5"],
    [3725,"HCEP03730564","2023-11-06 03:45:00","12.1461","3.56821","25.399","1.241","7.46",null,null,null,null,"30.6906","4.80294","14.01","2","SATNPRO1963","28.314","0.3966","5"],
    [3726,"HCEP03730564","2023-11-06 04:00:00","12.1473","3.56861","25.375","1.252","7.46",null,null,null,null,"30.6934","4.80332","14.13","2","SATNPRO1963","28.154","0.39434","5"],
    [3727,"HCEP03730564","2023-11-06 04:15:00","12.1534","3.57026","25.334","1.329","7.46",null,null,null,null,"30.7042","4.80475","15.01","2","SATNPRO1963","28.378","0.3975","5"],
    [3728,"HCEP03730564","2023-11-06 04:30:00","12.1567","3.57101","25.262","1.409","7.47",null,null,null,null,"30.7088","4.80534","15.9","2","SATNPRO1963","28.592","0.40046","5"],
    [3729,"HCEP03730564","2023-11-06 04:45:00","12.1536","3.57126","25.264","1.384","7.47",null,null,null,null,"30.7137","4.80607","15.63","2","SATNPRO1963","28.752","0.4027","5"],
    [3730,"HCEP03730564","2023-11-06 05:00:00","12.1502","3.57082","25.305","1.261","7.47",null,null,null,null,"30.7122","4.80592","14.23","2","SATNPRO1963","29.13","0.408","5"],
    [3731,"HCEP03730564","2023-11-06 05:15:00","12.1503","3.57077","25.303","1.222","7.46",null,null,null,null,"30.7117","4.80585","13.8","2","SATNPRO1963","29.432","0.41228","5"],
    [3732,"HCEP03730564","2023-11-06 05:30:00","12.1503","3.57066","25.289","1.224","7.46",null,null,null,null,"30.7107","4.8057","13.82","2","SATNPRO1963","29.67","0.41556","5"],
    [3733,"HCEP03730564","2023-11-06 05:45:00","12.1503","3.57068","25.372","1.223","7.46",null,null,null,null,"30.7109","4.80573","13.81","2","SATNPRO1963","28.956","0.4056","5"],
    [3734,"HCEP03730564","2023-11-06 06:00:00","12.1492","3.56977","25.404","1.242","7.46",null,null,null,null,"30.703","4.80463","14.02","2","SATNPRO1963","28.466","0.3987","5"],
    [3735,"HCEP03730564","2023-11-06 06:15:00","12.1509","3.57091","25.419","1.236","7.46",null,null,null,null,"30.7125","4.80595","13.95","2","SATNPRO1963","28.466","0.39872","5"],
    [3736,"HCEP03730564","2023-11-06 06:30:00","12.1472","3.56921","25.55","1.226","7.46",null,null,null,null,"30.6992","4.80414","13.84","2","SATNPRO1963","28.316","0.3966","5"],
    [3737,"HCEP03730564","2023-11-06 06:45:00","12.152","3.57131","25.62","1.237","7.46",null,null,null,null,"30.7154","4.80636","13.96","2","SATNPRO1963","28.332","0.39684","5"],
    [3738,"HCEP03730564","2023-11-06 07:00:00","12.1521","3.57113","25.719","1.255","7.46",null,null,null,null,"30.7135","4.80609","14.17","2","SATNPRO1963","28.804","0.40344","5"],
    [3739,"HCEP03730564","2023-11-06 07:15:00","12.1441","3.56792","25.754","1.213","7.46",null,null,null,null,"30.6894","4.80281","13.7","2","SATNPRO1963","28.548000000000002","0.39988","5"],
    [3740,"HCEP03730564","2023-11-06 07:30:00","12.1506","3.57055","25.911","1.223","7.46",null,null,null,null,"30.7091","4.80551","13.81","2","SATNPRO1963","28.478","0.39886","5"],
    [3741,"HCEP03730564","2023-11-06 07:45:00","12.1491","3.57045","26.062","1.227","7.46",null,null,null,null,"30.7093","4.80557","13.85","2","SATNPRO1963","28.536","0.3997","5"],
    [3742,"HCEP03730564","2023-11-06 08:00:00","12.1456","3.56872","26.195","1.201","7.46",null,null,null,null,"30.6956","4.80369","13.56","2","SATNPRO1963","28.446","0.39842","5"],
    [3743,"HCEP03730564","2023-11-06 08:15:00","12.1443","3.56826","26.264","1.178","7.46",null,null,null,null,"30.6923","4.80325","13.3","2","SATNPRO1963","28.73","0.40242","5"],
    [3744,"HCEP03730564","2023-11-06 08:30:00","12.1478","3.56955","26.443","1.194","7.46",null,null,null,null,"30.7016","4.80452","13.48","2","SATNPRO1963","28.84","0.40396","5"],
    [3745,"HCEP03730564","2023-11-06 08:45:00","12.1475","3.57003","26.629","1.182","7.45",null,null,null,null,"30.7064","4.8052","13.35","2","SATNPRO1963","28.552","0.39992","5"],
    [3746,"HCEP03730564","2023-11-06 09:00:00","12.1467","3.56926","26.722","1.176","7.45",null,null,null,null,"30.6997","4.80428","13.28","2","SATNPRO1963","28.55","0.39992","5"],
    [3747,"HCEP03730564","2023-11-06 09:15:00","12.1467","3.56941","26.951","1.172","7.45",null,null,null,null,"30.7011","4.80449","13.23","2","SATNPRO1963","28.772","0.40298","5"],
    [3748,"HCEP03730564","2023-11-06 09:30:00","12.1477","3.56988","27.074","1.166","7.45",null,null,null,null,"30.7046","4.80498","13.16","2","SATNPRO1963","28.720000000000002","0.4023","5"],
    [3749,"HCEP03730564","2023-11-06 09:45:00","12.1485","3.5704","27.218","1.171","7.45",null,null,null,null,"30.7089","4.80558","13.22","2","SATNPRO1963","28.354","0.3971","5"],
    [3750,"HCEP03730564","2023-11-06 10:00:00","12.1505","3.57106","27.343","1.196","7.45",null,null,null,null,"30.7136","4.80622","13.5","2","SATNPRO1963","28.522","0.39954","5"],
    [3751,"HCEP03730564","2023-11-06 10:15:00","12.1532","3.57152","27.494","1.23","7.46",null,null,null,null,"30.7156","4.80647","13.89","2","SATNPRO1963","28.644","0.40126","5"],
    [3752,"HCEP03730564","2023-11-06 10:30:00","12.154","3.57143","27.59","1.273","7.46",null,null,null,null,"30.7141","4.80625","14.38","2","SATNPRO1963","28.388","0.3976","5"],
    [3753,"HCEP03730564","2023-11-06 10:45:00","12.154","3.5715","27.706","1.284","7.46",null,null,null,null,"30.7146","4.80634","14.5","2","SATNPRO1963","28.394","0.39772","5"],
    [3754,"HCEP03730564","2023-11-06 11:00:00","12.1507","3.57019","27.786","1.267","7.46",null,null,null,null,"30.7049","4.80501","14.31","2","SATNPRO1963","28.374","0.39744","5"],
    [3755,"HCEP03730564","2023-11-06 11:15:00","12.1282","3.55932","27.858","1.251","7.46",null,null,null,null,"30.6194","4.79328","14.11","2","SATNPRO1963","28.782","0.40316","5"],
    [3756,"HCEP03730564","2023-11-06 11:30:00","12.1319","3.56281","27.889","1.197","7.46",null,null,null,null,"30.6497","4.7975","13.51","2","SATNPRO1963","28.92","0.40506","5"],
    [3757,"HCEP03730564","2023-11-06 11:45:00","12.1229","3.56021","27.892","1.078","7.45",null,null,null,null,"30.6323","4.79517","12.15","2","SATNPRO1963","28.855999999999998","0.4042","5"],
    [3758,"HCEP03730564","2023-11-06 12:00:00","12.1048","3.55152","27.974","1.108","7.45",null,null,null,null,"30.564","4.7858","12.48","2","SATNPRO1963","28.592","0.40048","5"],
    [3759,"HCEP03730564","2023-11-06 12:15:00","12.0893","3.5415","28.016","1.277","7.45",null,null,null,null,"30.481","4.7743","14.38","2","SATNPRO1963","27.568","0.38614","5"],
    [3760,"HCEP03730564","2023-11-06 12:30:00","12.0811","3.5366","28.002","1.469","7.46",null,null,null,null,"30.4408","4.76873","16.54","2","SATNPRO1963","27.994","0.3921","5"],
    [3761,"HCEP03730564","2023-11-06 12:45:00","12.0804","3.53498","28.055","1.582","7.47",null,null,null,null,"30.4259","4.76665","17.81","2","SATNPRO1963","26.844","0.37602","5"],
    [3762,"HCEP03730564","2023-11-06 13:00:00","12.0843","3.53537","28.016","1.656","7.48",null,null,null,null,"30.4264","4.76667","18.64","2","SATNPRO1963","26.484","0.37098","5"],
    [3763,"HCEP03730564","2023-11-06 13:15:00","12.0912","3.53686","28.024","1.737","7.48",null,null,null,null,"30.435","4.76779","19.55","2","SATNPRO1963","26.482","0.37096","5"],
    [3764,"HCEP03730564","2023-11-06 13:30:00","12.0938","3.53739","28.041","1.797","7.49",null,null,null,null,"30.438","4.76817","20.23","2","SATNPRO1963","26.866","0.37632","5"],
    [3765,"HCEP03730564","2023-11-06 13:45:00","12.0964","3.53839","27.972","1.789","7.5",null,null,null,null,"30.4455","4.76919","20.14","2","SATNPRO1963","26.956","0.3776","5"],
    [3766,"HCEP03730564","2023-11-06 14:00:00","12.1019","3.54137","27.917","1.748","7.5",null,null,null,null,"30.4694","4.77249","19.68","2","SATNPRO1963","27.432","0.38424","5"],
    [3767,"HCEP03730564","2023-11-06 14:15:00","12.1079","3.5455","27.869","1.654","7.49",null,null,null,null,"30.504","4.77729","18.64","2","SATNPRO1963","27.99","0.39206","5"],
    [3768,"HCEP03730564","2023-11-06 14:30:00","12.1105","3.54737","27.766","1.587","7.48",null,null,null,null,"30.5199","4.77948","17.88","2","SATNPRO1963","28.291999999999998","0.3963","5"],
    [3769,"HCEP03730564","2023-11-06 14:45:00","12.1143","3.54958","27.663","1.531","7.48",null,null,null,null,"30.5378","4.78195","17.25","2","SATNPRO1963","28.306","0.39646","5"],
    [3770,"HCEP03730564","2023-11-06 15:00:00","12.1177","3.55137","27.597","1.504","7.48",null,null,null,null,"30.5522","4.78394","16.95","2","SATNPRO1963","28.554","0.39992","5"],
    [3771,"HCEP03730564","2023-11-06 15:15:00","12.1174","3.55101","27.488","1.508","7.48",null,null,null,null,"30.549","4.78348","16.99","2","SATNPRO1963","28.434","0.39828","5"],
    [3772,"HCEP03730564","2023-11-06 15:30:00","12.1168","3.55041","27.386","1.513","7.48",null,null,null,null,"30.5438","4.78275","17.05","2","SATNPRO1963","28.312","0.39658","5"],
    [3773,"HCEP03730564","2023-11-06 15:45:00","12.1157","3.54938","27.281","1.541","7.48",null,null,null,null,"30.5349","4.7815","17.37","2","SATNPRO1963","28.458000000000002","0.3986","5"],
    [3774,"HCEP03730564","2023-11-06 16:00:00","12.1149","3.54923","27.137","1.545","7.48",null,null,null,null,"30.5342","4.78141","17.41","2","SATNPRO1963","28.648","0.40124","5"],
    [3775,"HCEP03730564","2023-11-06 16:15:00","12.1159","3.54925","27.013","1.558","7.48",null,null,null,null,"30.5336","4.78131","17.55","2","SATNPRO1963","28.58","0.40032","5"],
    [3776,"HCEP03730564","2023-11-06 16:30:00","12.1149","3.54869","26.833","1.568","7.48",null,null,null,null,"30.5292","4.78068","17.67","2","SATNPRO1963","28.382","0.39758","5"],
    [3777,"HCEP03730564","2023-11-06 16:45:00","12.1145","3.54849","26.734","1.572","7.48",null,null,null,null,"30.5276","4.78046","17.71","2","SATNPRO1963","28.55","0.39988","5"],
    [3778,"HCEP03730564","2023-11-06 17:00:00","12.1132","3.54761","26.581","1.582","7.48",null,null,null,null,"30.5203","4.77944","17.83","2","SATNPRO1963","28.526","0.39952","5"],
    [3779,"HCEP03730564","2023-11-06 17:15:00","12.1125","3.54734","26.489","1.595","7.48",null,null,null,null,"30.5183","4.77916","17.97","2","SATNPRO1963","28.718","0.40224","5"],
    [3780,"HCEP03730564","2023-11-06 17:30:00","12.1119","3.54675","26.403","1.606","7.48",null,null,null,null,"30.5133","4.77845","18.1","2","SATNPRO1963","28.54","0.39974","5"],
    [3781,"HCEP03730564","2023-11-06 17:45:00","12.1086","3.54443","26.3","1.645","7.48",null,null,null,null,"30.4938","4.77575","18.54","2","SATNPRO1963","28.4","0.3978","5"],
    [3782,"HCEP03730564","2023-11-06 18:00:00","12.106","3.54313","26.225","1.687","7.49",null,null,null,null,"30.4836","4.77435","19","2","SATNPRO1963","28.574","0.40024","5"],
    [3783,"HCEP03730564","2023-11-06 18:15:00","12.1091","3.54494","26.166","1.65","7.49",null,null,null,null,"30.4983","4.77637","18.59","2","SATNPRO1963","28.418","0.398","5"],
    [3784,"HCEP03730564","2023-11-06 18:30:00","12.1093","3.54565","26.1","1.607","7.48",null,null,null,null,"30.5049","4.7773","18.1","2","SATNPRO1963","28.419999999999998","0.39806","5"],
    [3785,"HCEP03730564","2023-11-06 18:45:00","12.110900000000001","3.54704","26.079","1.54","7.48",null,null,null,null,"30.5169","4.77896","17.35","2","SATNPRO1963","27.828","0.38974","5"],
    [3786,"HCEP03730564","2023-11-06 19:00:00","12.1149","3.54966","26.081","1.454","7.48",null,null,null,null,"30.5388","4.78199","16.38","2","SATNPRO1963","27.532","0.38562","5"],
    [3787,"HCEP03730564","2023-11-06 19:15:00","12.1213","3.55295","26.094","1.407","7.47",null,null,null,null,"30.5649","4.7856","15.86","2","SATNPRO1963","27.806","0.3895","5"],
    [3788,"HCEP03730564","2023-11-06 19:30:00","12.1241","3.5544","26.091","1.388","7.47",null,null,null,null,"30.5765","4.78719","15.65","2","SATNPRO1963","28.112","0.39374","5"],
    [3789,"HCEP03730564","2023-11-06 19:45:00","12.1253","3.55454","26.078","1.419","7.47",null,null,null,null,"30.5769","4.78722","16","2","SATNPRO1963","27.926","0.39114","5"],
    [3790,"HCEP03730564","2023-11-06 20:00:00","12.1291","3.55616","26.102","1.48","7.47",null,null,null,null,"30.5892","4.78892","16.69","2","SATNPRO1963","27.798","0.38938","5"],
    [3791,"HCEP03730564","2023-11-06 20:15:00","12.1328","3.55822","26.123","1.47","7.47",null,null,null,null,"30.6058","4.7912","16.58","2","SATNPRO1963","28.036","0.39272","5"],
    [3792,"HCEP03730564","2023-11-06 20:30:00","12.1378","3.56033","26.138","1.489","7.47",null,null,null,null,"30.6219","4.79341","16.8","2","SATNPRO1963","28.472","0.39884","5"],
    [3793,"HCEP03730564","2023-11-06 20:45:00","12.1413","3.56213","26.174","1.495","7.47",null,null,null,null,"30.6362","4.79537","16.87","2","SATNPRO1963","28.024","0.39252","5"],
    [3794,"HCEP03730564","2023-11-06 21:00:00","12.1424","3.56286","26.196","1.484","7.47",null,null,null,null,"30.6423","4.79622","16.75","2","SATNPRO1963","28.398","0.39774","5"],
    [3795,"HCEP03730564","2023-11-06 21:15:00","12.1432","3.56336","26.227","1.475","7.48",null,null,null,null,"30.6465","4.7968","16.64","2","SATNPRO1963","28.695999999999998","0.40192","5"],
    [3796,"HCEP03730564","2023-11-06 21:30:00","12.1452","3.56407","26.263","1.473","7.48",null,null,null,null,"30.6515","4.79748","16.62","2","SATNPRO1963","28.972","0.40578","5"],
    [3797,"HCEP03730564","2023-11-06 21:45:00","12.146","3.56456","26.299","1.475","7.48",null,null,null,null,"30.6555","4.79804","16.65","2","SATNPRO1963","29.144","0.40822","5"],
    [3798,"HCEP03730564","2023-11-06 22:00:00","12.1465","3.56482","26.34","1.482","7.48","0.533","2.807","0.06","0.05","30.6576","4.79832","16.73","0","SATNPRO1963","29.52","0.41348","5"],
    [3799,"HCEP03730564","2023-11-06 22:15:00","12.1523","3.56605","26.363","1.599","7.48",null,null,null,null,"30.6645","4.79923","18.05","2","SATNPRO1963","29.456","0.41258","5"],
    [3800,"HCEP03730564","2023-11-06 22:30:00","12.1482","3.56519","26.394","1.607","7.49",null,null,null,null,"30.6597","4.7986","18.13","2","SATNPRO1963","29.486","0.413","5"],
    [3801,"HCEP03730564","2023-11-06 22:45:00","12.1486","3.56506","26.44","1.584","7.49",null,null,null,null,"30.6581","4.79838","17.87","2","SATNPRO1963","29.644","0.4152","5"],
    [3802,"HCEP03730564","2023-11-06 23:00:00","12.1441","3.56399","26.489","1.497","7.48",null,null,null,null,"30.6515","4.79752","16.89","2","SATNPRO1963","29.346","0.41106","5"],
    [3803,"HCEP03730564","2023-11-06 23:15:00","12.1432","3.56394","26.532","1.432","7.48",null,null,null,null,"30.6518","4.79757","16.16","2","SATNPRO1963","29.864","0.4183","5"],
    [3804,"HCEP03730564","2023-11-06 23:30:00","12.1416","3.56362","26.57","1.369","7.47",null,null,null,null,"30.6501","4.79735","15.45","2","SATNPRO1963","29.422","0.41214","5"],
    [3805,"HCEP03730564","2023-11-06 23:45:00","12.1431","3.56464","26.599","1.332","7.47",null,null,null,null,"30.6586","4.79852","15.03","2","SATNPRO1963","29.508","0.41332","5"],
    [3806,"HCEP03730564","2023-11-07 00:00:00","12.1446","3.56524","26.624","1.335","7.47",null,null,null,null,"30.663","4.79913","15.06","2","SATNPRO1963","29.042","0.4068","5"],
    [3807,"HCEP03730564","2023-11-07 00:15:00","12.1461","3.56577","26.633","1.356","7.47",null,null,null,null,"30.6669","4.79966","15.31","2","SATNPRO1963","29.21","0.40912","5"],
    [3808,"HCEP03730564","2023-11-07 00:30:00","12.1459","3.56566","26.649","1.343","7.47",null,null,null,null,"30.666","4.79954","15.16","2","SATNPRO1963","28.740000000000002","0.40254","5"],
    [3809,"HCEP03730564","2023-11-07 00:45:00","12.1441","3.56578","26.634","1.287","7.47","0.533","2.807","0.06","0.05","30.6685","4.79992","14.52","0","SATNPRO1963","28.808","0.4035","5"],
    [3810,"HCEP03730564","2023-11-07 01:00:00","12.1424","3.56572","26.603","1.219","7.46",null,null,null,null,"30.6694","4.80007","13.76","2","SATNPRO1963","29.028","0.4066","5"],
    [3811,"HCEP03730564","2023-11-07 01:15:00","12.1436","3.56639","26.583","1.199","7.46","0.533","2.807","0.06","0.05","30.6749","4.80082","13.53","0","SATNPRO1963","28.966","0.40572","5"],
    [3812,"HCEP03730564","2023-11-07 01:30:00","12.1416","3.56558","26.548","1.189","7.46",null,null,null,null,"30.6688","4.79998","13.42","2","SATNPRO1963","28.8","0.40338","5"],
    [3813,"HCEP03730564","2023-11-07 01:45:00","12.1396","3.56447","26.521","1.2","7.45","0.533","2.807","0.06","0.05","30.6598","4.79874","13.54","0","SATNPRO1963","28.338","0.3969","5"],
    [3814,"HCEP03730564","2023-11-07 02:00:00","12.138","3.56404","26.482","1.191","7.45",null,null,null,null,"30.6571","4.79838","13.44","2","SATNPRO1963","28.044","0.3928","5"],
    [3815,"HCEP03730564","2023-11-07 02:15:00","12.1383","3.56392","26.43","1.215","7.45",null,null,null,null,"30.6556","4.79817","13.71","2","SATNPRO1963","28.232","0.39542","5"],
    [3816,"HCEP03730564","2023-11-07 02:30:00","12.1412","3.56379","26.362","1.317","7.46","0.533","2.807","0.06","0.05","30.6521","4.79763","14.86","0","SATNPRO1963","28.108","0.39368","5"],
    [3817,"HCEP03730564","2023-11-07 02:45:00","12.1379","3.56349","26.307","1.281","7.46",null,null,null,null,"30.6519","4.79764","14.45","2","SATNPRO1963","28.323999999999998","0.39674","5"],
    [3818,"HCEP03730564","2023-11-07 03:00:00","12.1359","3.56243","26.22","1.256","7.46",null,null,null,null,"30.6435","4.79648","14.17","2","SATNPRO1963","28.256","0.3958","5"],
    [3819,"HCEP03730564","2023-11-07 03:15:00","12.1342","3.56196","26.154","1.229","7.46",null,null,null,null,"30.6404","4.79606","13.86","2","SATNPRO1963","28.2","0.39498","5"],
    [3820,"HCEP03730564","2023-11-07 03:30:00","12.1363","3.56441","26.085","1.124","7.45",null,null,null,null,"30.6622","4.7991","12.68","2","SATNPRO1963","28.407999999999998","0.39788","5"],
    [3821,"HCEP03730564","2023-11-07 03:45:00","12.1382","3.56542","26.036","1.08","7.45","0.533","2.807","0.06","0.05","30.6702","4.8002","12.19","0","SATNPRO1963","28.296","0.39636","5"],
    [3822,"HCEP03730564","2023-11-07 04:00:00","12.1386","3.56529","26.049","1.087","7.45",null,null,null,null,"30.6686","4.79997","12.27","2","SATNPRO1963","28.192","0.39488","5"],
    [3823,"HCEP03730564","2023-11-07 04:15:00","12.1392","3.56558","25.905","1.089","7.45","0.533","2.807","0.06","0.05","30.671","4.80029","12.28","0","SATNPRO1963","27.868000000000002","0.39034","5"],
    [3824,"HCEP03730564","2023-11-07 04:30:00","12.1369","3.56493","25.876","1.079","7.44","0.533","2.807","0.06","0.05","30.6667","4.79971","12.17","0","SATNPRO1963","27.4","0.38376","5"],
    [3825,"HCEP03730564","2023-11-07 04:45:00","12.1357","3.56499","25.811","1.06","7.44","0.533","2.807","0.06","0.05","30.6683","4.79995","11.96","0","SATNPRO1963","27.404","0.3838","5"],
    [3826,"HCEP03730564","2023-11-07 05:00:00","12.1331","3.56326","25.682","1.053","7.44","0.533","2.807","0.06","0.05","30.6539","4.79796","11.88","0","SATNPRO1963","27.386","0.3836","5"],
    [3827,"HCEP03730564","2023-11-07 05:15:00","12.1316","3.56272","25.648","1.068","7.44","0.533","2.807","0.06","0.05","30.65","4.79743","12.05","0","SATNPRO1963","27.318","0.38262","5"],
    [3828,"HCEP03730564","2023-11-07 05:30:00","12.13","3.56164","25.63","1.083","7.44","0.533","2.807","0.06","0.05","30.6409","4.79617","12.22","0","SATNPRO1963","27.138","0.38014","5"],
    [3829,"HCEP03730564","2023-11-07 05:45:00","12.1296","3.56131","25.616","1.095","7.44","0.533","2.807","0.06","0.05","30.6382","4.79579","12.35","0","SATNPRO1963","27.21","0.38112","5"],
    [3830,"HCEP03730564","2023-11-07 06:00:00","12.1296","3.56106","25.572","1.104","7.45","0.409","3.217","0","0","30.6358","4.79545","12.45","2","SATNPRO1963","27.166","0.38052","5"],
    [3831,"HCEP03730564","2023-11-07 06:15:00","12.1292","3.56089","25.56","1.109","7.45","0.671","2.997","0","0","30.6345","4.79527","12.51","2","SATNPRO1963","27.32","0.3827","5"],
    [3832,"HCEP03730564","2023-11-07 06:30:00","12.1294","3.56106","25.533","1.105","7.44","0.455","3","0.04","0.03","30.6361","4.79548","12.46","2","SATNPRO1963","27.396","0.38376","5"],
    [3833,"HCEP03730564","2023-11-07 06:45:00","12.1301","3.56131","25.575","1.098","7.44","0.401","3.017","0.05","0.07","30.6378","4.79572","12.38","2","SATNPRO1963","27.418","0.384","5"],
    [3834,"HCEP03730564","2023-11-07 07:00:00","12.1317","3.56203","25.617","1.097","7.45","0.406","2.835","0.01","0.03","30.6434","4.79649","12.37","2","SATNPRO1963","27.574","0.38622","5"],
    [3835,"HCEP03730564","2023-11-07 07:15:00","12.1321","3.56231","25.622","1.092","7.45","0.415","2.727","0.07","0.09","30.6457","4.79681","12.32","2","SATNPRO1963","27.45","0.38448","5"],
    [3836,"HCEP03730564","2023-11-07 07:30:00","12.1329","3.56291","25.667","1.083","7.45","0.374","2.657","0.01","0.11","30.6507","4.79751","12.21","2","SATNPRO1963","27.618","0.3868","5"],
    [3837,"HCEP03730564","2023-11-07 07:45:00","12.1334","3.56333","25.734","1.067","7.44","0.374","2.657","0.01","0.11","30.6543","4.79801","12.04","0","SATNPRO1963","27.786","0.3892","5"],
    [3838,"HCEP03730564","2023-11-07 08:00:00","12.1331","3.56318","25.818","1.063","7.44","0.392","2.915","0.02","0.02","30.653","4.79784","11.99","2","SATNPRO1963","27.684","0.38774","5"],
    [3839,"HCEP03730564","2023-11-07 08:15:00","12.1329","3.56304","25.914","1.06","7.44","0.383","3.005","0.03","0.06","30.6519","4.79769","11.96","2","SATNPRO1963","27.69","0.38784","5"],
    [3840,"HCEP03730564","2023-11-07 08:30:00","12.1313","3.56253","26.013","1.047","7.44","0.464","3.595","0.02","0.15","30.6483","4.79721","11.82","2","SATNPRO1963","27.532","0.38562","5"],
    [3841,"HCEP03730564","2023-11-07 08:45:00","12.1266","3.56083","26.113","1.082","7.44","0.464","3.595","0.02","0.15","30.6358","4.79552","12.21","0","SATNPRO1963","27.646","0.38724","5"],
    [3842,"HCEP03730564","2023-11-07 09:00:00","12.1157","3.55252","26.204","1.097","7.44","0.464","3.595","0.02","0.15","30.5654","4.78574","12.36","0","SATNPRO1963","27.572","0.3862","5"],
    [3843,"HCEP03730564","2023-11-07 09:15:00","12.1247","3.5586","26.323","1.111","7.45","0.464","3.595","0.02","0.15","30.6161","4.79277","12.53","0","SATNPRO1963","27.27","0.38192","5"],
    [3844,"HCEP03730564","2023-11-07 09:30:00","12.1162","3.55397","26.421","1.173","7.45","0.464","3.595","0.02","0.15","30.5787","4.78762","13.22","0","SATNPRO1963","27.068","0.37912","5"],
    [3845,"HCEP03730564","2023-11-07 09:45:00","12.1152","3.55228","26.595","1.183","7.45","0.464","3.595","0.02","0.15","30.5633","4.78548","13.34","0","SATNPRO1963","26.983999999999998","0.37798","5"],
    [3846,"HCEP03730564","2023-11-07 10:00:00","12.1083","3.54868","26.733","1.242","7.46","0.723","4.327","0","0","30.5345","4.78152","14","2","SATNPRO1963","26.726","0.37436","5"],
    [3847,"HCEP03730564","2023-11-07 10:15:00","12.1044","3.54606","26.849","1.349","7.46","0.762","4.547","0","0","30.5126","4.77849","15.2","2","SATNPRO1963","26.768","0.37494","5"],
    [3848,"HCEP03730564","2023-11-07 10:30:00","12.1029","3.5437","27.019","1.507","7.47","1.145","4.25","0.12","0.02","30.4913","4.77552","16.97","2","SATNPRO1963","26.858","0.3762","5"],
    [3849,"HCEP03730564","2023-11-07 10:45:00","12.1054","3.54564","27.164","1.544","7.48","1.145","4.25","0.12","0.02","30.5077","4.77779","17.4","0","SATNPRO1963","26.578","0.3723","5"],
    [3850,"HCEP03730564","2023-11-07 11:00:00","12.1067","3.54553","27.25","1.609","7.48","0.852","4.629","0","0","30.5055","4.77748","18.13","2","SATNPRO1963","26.666","0.3735","5"],
    [3851,"HCEP03730564","2023-11-07 11:15:00","12.1079","3.54446","27.381","1.679","7.49","0.878","3.587","0.14","0.12","30.4943","4.77588","18.91","2","SATNPRO1963","26.856","0.3762","5"],
    [3852,"HCEP03730564","2023-11-07 11:30:00","12.1117","3.54598","27.496","1.718","7.49","0.955","3.767","0.11","0.14","30.5056","4.77744","19.35","2","SATNPRO1963","27.156","0.38036","5"],
    [3853,"HCEP03730564","2023-11-07 11:45:00","12.1148","3.54719","27.621","1.736","7.5","0.871","3.289","0.14","0.19","30.5146","4.77867","19.56","2","SATNPRO1963","27.276","0.38204","5"],
    [3854,"HCEP03730564","2023-11-07 12:00:00","12.118","3.54892","27.695","1.76","7.5","0.872","2.99","0.15","0.08","30.5286","4.7806","19.84","2","SATNPRO1963","27.644000000000002","0.3872","5"],
    [3855,"HCEP03730564","2023-11-07 12:15:00","12.1202","3.55056","27.786","1.711","7.5","0.82","3.615","0.09","0.09","30.5424","4.78252","19.29","2","SATNPRO1963","27.936","0.39128","5"],
    [3856,"HCEP03730564","2023-11-07 12:30:00","12.1236","3.55222","27.819","1.711","7.5","0.814","3.229","0.1","0.1","30.5554","4.78432","19.29","2","SATNPRO1963","28.232","0.39544","5"],
    [3857,"HCEP03730564","2023-11-07 12:45:00","12.126","3.55405","27.863","1.66","7.5","0.797","3.193","0.11","0.05","30.5709","4.78647","18.71","2","SATNPRO1963","28.802","0.4034","5"],
    [3858,"HCEP03730564","2023-11-07 13:00:00","12.1266","3.55449","27.901","1.626","7.49","0.76","3.555","0.07","0.07","30.5746","4.78699","18.33","2","SATNPRO1963","28.712","0.40218","5"],
    [3859,"HCEP03730564","2023-11-07 13:15:00","12.1292","3.55603","27.875","1.614","7.49","0.699","3.239","0.05","0.1","30.5872","4.78872","18.2","2","SATNPRO1963","28.907999999999998","0.40492","5"],
    [3860,"HCEP03730564","2023-11-07 13:30:00","12.1322","3.55701","27.935","1.661","7.49","0.748","2.915","0.13","0.15","30.594","4.78965","18.73","2","SATNPRO1963","28.916","0.40502","5"],
    [3861,"HCEP03730564","2023-11-07 13:45:00","12.1349","3.55785","27.924","1.7","7.5","0.763","2.923","0.18","0.09","30.5999","4.79044","19.17","2","SATNPRO1963","29.048","0.40682","5"],
    [3862,"HCEP03730564","2023-11-07 14:00:00","12.1353","3.55842","27.897","1.691","7.5","0.722","2.916","0.08","0.09","30.605","4.79115","19.07","2","SATNPRO1963","28.872","0.40442","5"],
    [3863,"HCEP03730564","2023-11-07 14:15:00","12.1352","3.55856","27.833","1.648","7.5","0.754","3.175","0.14","0.13","30.6064","4.79135","18.59","2","SATNPRO1963","28.798000000000002","0.40334","5"],
    [3864,"HCEP03730564","2023-11-07 14:30:00","12.1365","3.55898","27.772","1.656","7.49","0.641","3.109","0.05","0.08","30.6095","4.79176","18.68","2","SATNPRO1963","28.88","0.40456","5"],
    [3865,"HCEP03730564","2023-11-07 14:45:00","12.1374","3.55932","27.713","1.708","7.5","0.653","3.129","0.1","0.07","30.612","4.7921","19.26","2","SATNPRO1963","28.856","0.40418","5"],
    [3866,"HCEP03730564","2023-11-07 15:00:00","12.139","3.5596","27.668","1.734","7.5","0.675","3.168","0.11","0.07","30.6134","4.79227","19.56","2","SATNPRO1963","28.882","0.40456","5"],
    [3867,"HCEP03730564","2023-11-07 15:15:00","12.1406","3.55989","27.544","1.784","7.5","1.812","37.851","1.6","31.99","30.6149","4.79245","20.12","2","SATNPRO1963","28.842","0.40394","5"],
    [3868,"HCEP03730564","2023-11-07 15:30:00","12.1422","3.56012","27.439","1.84","7.5","0.682","2.829","0.09","0.13","30.6158","4.79256","20.76","2","SATNPRO1963","28.99","0.40606","5"],
    [3869,"HCEP03730564","2023-11-07 15:45:00","12.1479","3.56097","27.399","2.053","7.51","0.71","2.263","0.1","0.08","30.6192","4.79296","23.17","2","SATNPRO1963","29.028","0.40658","5"],
    [3870,"HCEP03730564","2023-11-07 16:00:00","12.1468","3.56084","27.264","2.088","7.52","0.687","2.343","0.11","0.12","30.619","4.79293","23.56","2","SATNPRO1963","29.106","0.40766","5"],
    [3871,"HCEP03730564","2023-11-07 16:15:00","12.1467","3.56096","27.102","2.035","7.52","0.704","2.501","0.08","0.11","30.6202","4.7931","22.96","2","SATNPRO1963","29.16","0.40846","5"],
    [3872,"HCEP03730564","2023-11-07 16:30:00","12.1466","3.56094","27.005","2.04","7.52","0.705","2.306","0.19","0.17","30.6202","4.79309","23.02","2","SATNPRO1963","29.108","0.40772","5"],
    [3873,"HCEP03730564","2023-11-07 16:45:00","12.1481","3.56116","26.843","2.091","7.53","0.705","2.306","0.19","0.17","30.6211","4.7932","23.59","0","SATNPRO1963","29.548000000000002","0.41386","5"],
    [3874,"HCEP03730564","2023-11-07 17:00:00","12.1576","3.56335","26.745","2.306","7.54","0.705","2.306","0.19","0.17","30.6343","4.79492","26.02","0","SATNPRO1963","29.554000000000002","0.41396","5"],
    [3875,"HCEP03730564","2023-11-07 17:15:00","12.1574","3.56423","26.602","2.331","7.54","0.705","2.306","0.19","0.17","30.6429","4.79612","26.31","0","SATNPRO1963","29.516000000000002","0.41342","5"],
    [3876,"HCEP03730564","2023-11-07 17:30:00","12.1584","3.56451","26.458","2.324","7.55","0.705","2.306","0.19","0.17","30.6448","4.79638","26.24","0","SATNPRO1963","29.508","0.41326","5"],
    [3877,"HCEP03730564","2023-11-07 17:45:00","12.1563","3.56314","26.316","2.354","7.55","0.705","2.306","0.19","0.17","30.6335","4.7948","26.57","0","SATNPRO1963","29.716","0.41624","5"],
    [3878,"HCEP03730564","2023-11-07 18:00:00","12.1568","3.56326","26.222","2.372","7.56","0.705","2.306","0.19","0.17","30.6343","4.7949","26.77","0","SATNPRO1963","30.157999999999998","0.42242","5"],
    [3879,"HCEP03730564","2023-11-07 18:15:00","12.157","3.56304","26.063","2.412","7.56","0.705","2.306","0.19","0.17","30.632","4.79457","27.23","0","SATNPRO1963","29.746","0.41664","5"],
    [3880,"HCEP03730564","2023-11-07 18:30:00","12.1593","3.56358","25.959","2.476","7.56","0.705","2.306","0.19","0.17","30.6354","4.795","27.95","0","SATNPRO1963","29.976","0.41988","5"],
    [3881,"HCEP03730564","2023-11-07 18:45:00","12.1618","3.56657","25.901","2.355","7.56","0.705","2.306","0.19","0.17","30.6619","4.7987","26.59","0","SATNPRO1963","29.912","0.41896","5"],
    [3882,"HCEP03730564","2023-11-07 19:00:00","12.1623","3.56753","25.842","2.219","7.55","0.671","3.865","0","0","30.6707","4.79994","25.05","2","SATNPRO1963","29.886","0.4186","5"],
    [3883,"HCEP03730564","2023-11-07 19:15:00","12.163","3.56797","25.841","2.157","7.55","0.671","3.865","0","0","30.6743","4.80044","24.35","0","SATNPRO1963","30.052","0.42094","5"],
    [3884,"HCEP03730564","2023-11-07 19:30:00","12.1637","3.56849","25.822","2.127","7.54","0.684","2.87","0","0","30.6787","4.80104","24.01","2","SATNPRO1963","30.314","0.42458","5"],
    [3885,"HCEP03730564","2023-11-07 19:45:00","12.1629","3.56851","25.824","2.094","7.54","0.525","3.404","0.12","0.22","30.6796","4.80117","23.64","2","SATNPRO1963","29.484","0.41298","5"],
    [3886,"HCEP03730564","2023-11-07 20:00:00","12.1629","3.56868","25.824","2.06","7.54","0.752","2.927","0.07","0.17","30.6811","4.80139","23.26","2","SATNPRO1963","29.354","0.41118","5"],
    [3887,"HCEP03730564","2023-11-07 20:15:00","12.1636","3.5689","25.856","2.049","7.53","0.656","3.203","0.03","0.33","30.6827","4.8016","23.13","2","SATNPRO1963","29.802","0.41744","5"],
    [3888,"HCEP03730564","2023-11-07 20:30:00","12.1639","3.56896","25.868","2.053","7.53","0.818","2.792","0","0","30.6831","4.80165","23.18","2","SATNPRO1963","29.740000000000002","0.41656","5"],
    [3889,"HCEP03730564","2023-11-07 20:45:00","12.1657","3.56883","25.887","2.149","7.53","0.691","2.155","0.09","0.09","30.6803","4.80124","24.27","2","SATNPRO1963","29.6","0.41456","5"],
    [3890,"HCEP03730564","2023-11-07 21:00:00","12.1656","3.56855","25.92","2.192","7.54","0.834","2.124","0.08","0.01","30.6777","4.80088","24.76","2","SATNPRO1963","29.296","0.41034","5"],
    [3891,"HCEP03730564","2023-11-07 21:15:00","12.166","3.5686","25.951","2.214","7.54","0.537","2.155","0.04","0.19","30.6779","4.8009","25","2","SATNPRO1963","29.456","0.41258","5"],
    [3892,"HCEP03730564","2023-11-07 21:30:00","12.1643","3.568","26.021","2.198","7.54","0.64","2.127","0.13","0.07","30.6735","4.80031","24.82","2","SATNPRO1963","29.64","0.41518","5"],
    [3893,"HCEP03730564","2023-11-07 21:45:00","12.165","3.56834","26.072","2.19","7.54","0.769","2.329","0.26","0.21","30.6762","4.80068","24.73","2","SATNPRO1963","29.914","0.41898","5"],
    [3894,"HCEP03730564","2023-11-07 22:00:00","12.1655","3.56873","26.135","2.187","7.54","0.584","2.177","0.09","0.1","30.6795","4.80114","24.69","2","SATNPRO1963","29.944","0.41944","5"],
    [3895,"HCEP03730564","2023-11-07 22:15:00","12.1673","3.56973","26.206","2.185","7.54","0.654","2.83","0.18","0.45","30.6875","4.80226","24.67","2","SATNPRO1963","30.1","0.42158","5"],
    [3896,"HCEP03730564","2023-11-07 22:30:00","12.1648","3.56935","26.242","2.098","7.54","0.626","2.983","0.12","0.25","30.6859","4.80206","23.69","2","SATNPRO1963","29.983999999999998","0.41998","5"],
    [3897,"HCEP03730564","2023-11-07 22:45:00","12.1645","3.56901","26.315","2.079","7.54","0.687","2.912","0.3","0.16","30.6828","4.80164","23.47","2","SATNPRO1963","29.784","0.41718","5"],
    [3898,"HCEP03730564","2023-11-07 23:00:00","12.164","3.56844","26.36","2.113","7.54","0.526","2.563","0.14","0.17","30.6778","4.80094","23.86","2","SATNPRO1963","29.806","0.41744","5"],
    [3899,"HCEP03730564","2023-11-07 23:15:00","12.1631","3.568","26.444","2.109","7.53","0.56","2.482","0.1","0.23","30.6744","4.80047","23.82","2","SATNPRO1963","29.914","0.41902","5"],
    [3900,"HCEP03730564","2023-11-07 23:30:00","12.1638","3.56831","26.498","2.124","7.53","0.527","2.194","0.13","0.07","30.6766","4.80078","23.98","2","SATNPRO1963","29.254","0.40976","5"],
    [3901,"HCEP03730564","2023-11-07 23:45:00","12.1621","3.56764","26.566","2.102","7.53","0.55","2.365","0.05","0.2","30.6716","4.80011","23.73","2","SATNPRO1963","29.400000000000002","0.4118","5"],
    [3902,"HCEP03730564","2023-11-08 00:00:00","12.166","3.56961","26.601","2.081","7.53","0.773","3.082","0.24","0","30.6873","4.80226","23.5","2","SATNPRO1963","29.564","0.41408","5"],
    [3903,"HCEP03730564","2023-11-08 00:15:00","12.1647","3.56916","26.691","2.065","7.53","0.686","3.546","0.06","0.67","30.6839","4.80181","23.32","2","SATNPRO1963","29.5","0.41318","5"],
    [3904,"HCEP03730564","2023-11-08 00:30:00","12.1629","3.56845","26.765","2.015","7.53","0.76","3.317","0.16","0.24","30.6787","4.8011","22.75","2","SATNPRO1963","29.496","0.41316","5"],
    [3905,"HCEP03730564","2023-11-08 00:45:00","12.1609","3.5678","26.789","2.001","7.53","0.473","3.066","0","0","30.674","4.80047","22.59","2","SATNPRO1963","29.528000000000002","0.41356","5"],
    [3906,"HCEP03730564","2023-11-08 01:00:00","12.1599","3.56709","26.795","2.026","7.53","0.473","3.066","0","0","30.6681","4.79965","22.87","0","SATNPRO1963","29.562","0.41408","5"],
    [3907,"HCEP03730564","2023-11-08 01:15:00","12.1597","3.56681","26.777","2.053","7.53","0.641","3.532","0","0","30.6655","4.79929","23.17","2","SATNPRO1963","29.716","0.41624","5"],
    [3908,"HCEP03730564","2023-11-08 01:30:00","12.1599","3.56622","26.765","2.115","7.53","0.663","3.276","0","0","30.6598","4.79848","23.87","2","SATNPRO1963","29.348","0.4111","5"],
    [3909,"HCEP03730564","2023-11-08 01:45:00","12.1572","3.56465","26.736","2.156","7.54","0.622","2.68","0.09","0.04","30.6471","4.79672","24.34","2","SATNPRO1963","29.416","0.412","5"],
    [3910,"HCEP03730564","2023-11-08 02:00:00","12.1586","3.56528","26.69","2.164","7.54","0.69","3.171","0.12","0.13","30.6519","4.79738","24.43","2","SATNPRO1963","29.432","0.41224","5"],
    [3911,"HCEP03730564","2023-11-08 02:15:00","12.1569","3.56462","26.66","2.137","7.54","0.642","2.39","0.13","0.09","30.647","4.79671","24.13","2","SATNPRO1963","29.416","0.41206","5"],
    [3912,"HCEP03730564","2023-11-08 02:30:00","12.1575","3.56487","26.663","2.139","7.54","0.687","2.81","0.17","0.05","30.6489","4.79697","24.15","2","SATNPRO1963","29.606","0.41464","5"],
    [3913,"HCEP03730564","2023-11-08 02:45:00","12.1578","3.56507","26.629","2.151","7.54","0.732","2.833","0","0","30.6506","4.79721","24.28","2","SATNPRO1963","29.386","0.41158","5"],
    [3914,"HCEP03730564","2023-11-08 03:00:00","12.1589","3.56534","26.575","2.177","7.54","0.671","2.956","0","0","30.6523","4.79742","24.58","2","SATNPRO1963","29.586","0.4144","5"],
    [3915,"HCEP03730564","2023-11-08 03:15:00","12.1611","3.56592","26.508","2.233","7.54","0.671","2.956","0","0","30.656","4.79792","25.21","0","SATNPRO1963","29.748","0.41662","5"],
    [3916,"HCEP03730564","2023-11-08 03:30:00","12.1623","3.56606","26.436","2.263","7.54","0.671","2.956","0","0","30.6564","4.79795","25.54","0","SATNPRO1963","29.494","0.41312","5"],
    [3917,"HCEP03730564","2023-11-08 03:45:00","12.1631","3.56711","26.347","2.266","7.55","0.671","2.956","0","0","30.6658","4.79925","25.58","0","SATNPRO1963","29.678","0.41566","5"],
    [3918,"HCEP03730564","2023-11-08 04:00:00","12.1629","3.56716","26.284","2.223","7.54",null,null,null,null,"30.6664","4.79935","25.1","2","SATNPRO1963","29.664","0.4155","5"],
    [3919,"HCEP03730564","2023-11-08 04:15:00","12.1626","3.56767","26.238","2.157","7.54","0.671","2.956","0","0","30.6716","4.80008","24.36","0","SATNPRO1963","29.782","0.41716","5"],
    [3920,"HCEP03730564","2023-11-08 04:30:00","12.1579","3.56751","26.158","1.963","7.53",null,null,null,null,"30.674","4.80048","22.16","2","SATNPRO1963","29.892","0.41868","5"],
    [3921,"HCEP03730564","2023-11-08 04:45:00","12.1514","3.56672","26.119","1.714","7.52","0.671","2.956","0","0","30.6718","4.80025","19.35","0","SATNPRO1963","29.582","0.41434","5"],
    [3922,"HCEP03730564","2023-11-08 05:00:00","12.1481","3.56624","26.063","1.531","7.5","0.671","2.956","0","0","30.67","4.80004","17.28","0","SATNPRO1963","29.266","0.4099","5"],
    [3923,"HCEP03730564","2023-11-08 05:15:00","12.1462","3.5659","25.971","1.442","7.49",null,null,null,null,"30.6682","4.79981","16.27","2","SATNPRO1963","29.094","0.40752","5"],
    [3924,"HCEP03730564","2023-11-08 05:30:00","12.1444","3.56555","25.879","1.357","7.48",null,null,null,null,"30.6664","4.79957","15.31","2","SATNPRO1963","28.336","0.39692","5"],
    [3925,"HCEP03730564","2023-11-08 05:45:00","12.1441","3.5655","25.822","1.323","7.48",null,null,null,null,"30.6663","4.79956","14.93","2","SATNPRO1963","27.753999999999998","0.38872","5"],
    [3926,"HCEP03730564","2023-11-08 06:00:00","12.1423","3.56497","25.766","1.292","7.47","0.615","3.137","0.13","0.02","30.6626","4.79907","14.58","2","SATNPRO1963","27.56","0.38602","5"],
    [3927,"HCEP03730564","2023-11-08 06:15:00","12.1386","3.56399","25.674","1.2","7.47",null,null,null,null,"30.6564","4.79824","13.54","2","SATNPRO1963","27.33","0.3828","5"],
    [3928,"HCEP03730564","2023-11-08 06:30:00","12.1437","3.5653","25.646","1.249","7.46",null,null,null,null,"30.6647","4.79934","14.1","2","SATNPRO1963","27.226","0.38134","5"],
    [3929,"HCEP03730564","2023-11-08 06:45:00","12.1436","3.56523","25.631","1.309","7.47",null,null,null,null,"30.6642","4.79926","14.78","2","SATNPRO1963","27.368","0.38334","5"],
    [3930,"HCEP03730564","2023-11-08 07:00:00","12.142","3.56471","25.603","1.279","7.47","0.615","3.137","0.13","0.02","30.6605","4.79875","14.44","0","SATNPRO1963","27.003999999999998","0.3782","5"],
    [3931,"HCEP03730564","2023-11-08 07:15:00","12.1435","3.56519","25.614","1.283","7.46",null,null,null,null,"30.6639","4.79922","14.48","2","SATNPRO1963","26.668","0.37354","5"],
    [3932,"HCEP03730564","2023-11-08 07:30:00","12.1393","3.5641","25.622","1.244","7.46",null,null,null,null,"30.6569","4.79829","14.04","2","SATNPRO1963","27.196","0.3809","5"],
    [3933,"HCEP03730564","2023-11-08 07:45:00","12.1412","3.56414","25.652","1.27","7.46","0.453","2.576","0.07","0.21","30.6557","4.7981","14.33","2","SATNPRO1963","27.18","0.3807","5"],
    [3934,"HCEP03730564","2023-11-08 08:00:00","12.167","3.57095","25.709","1.779","7.47","0.959","5.847","0.07","0.3","30.6995","4.80392","20.09","2","SATNPRO1963","26.96","0.37766","5"],
    [3935,"HCEP03730564","2023-11-08 08:15:00","12.172","3.57234","25.789","2.157","7.5","1.082","5.294","0.18","0.27","30.7086","4.80514","24.36","2","SATNPRO1963","27.004","0.37828","5"],
    [3936,"HCEP03730564","2023-11-08 08:30:00","12.1789","3.57484","25.83","2.268","7.52","0.892","4.996","0.12","0.13","30.7269","4.80763","25.62","2","SATNPRO1963","26.92","0.37706","5"],
    [3937,"HCEP03730564","2023-11-08 08:45:00","12.1799","3.57526","25.944","2.29","7.53","0.892","4.996","0.12","0.13","30.73","4.80806","25.88","0","SATNPRO1963","27.16","0.38042","5"],
    [3938,"HCEP03730564","2023-11-08 09:00:00","12.1797","3.5752","26.027","2.272","7.54",null,null,null,null,"30.7295","4.80799","25.67","2","SATNPRO1963","28.63","0.40102","5"],
    [3939,"HCEP03730564","2023-11-08 09:15:00","12.1787","3.57478","26.136","2.247","7.54","0.912","4.195","0.18","0.07","30.7264","4.80757","25.39","2","SATNPRO1963","29.058","0.407","5"],
    [3940,"HCEP03730564","2023-11-08 09:30:00","12.1783","3.57469","26.246","2.219","7.54",null,null,null,null,"30.7257","4.80749","25.07","2","SATNPRO1963","29.378","0.41148","5"],
    [3941,"HCEP03730564","2023-11-08 09:45:00","12.1791","3.57498","26.356","2.223","7.54",null,null,null,null,"30.7278","4.80778","25.12","2","SATNPRO1963","29.41","0.41194","5"],
    [3942,"HCEP03730564","2023-11-08 10:00:00","12.1791","3.57516","26.484","2.227","7.54",null,null,null,null,"30.7295","4.80802","25.16","2","SATNPRO1963","29.374","0.4114","5"],
    [3943,"HCEP03730564","2023-11-08 10:15:00","12.1802","3.57556","26.653","2.23","7.54",null,null,null,null,"30.7324","4.80842","25.2","2","SATNPRO1963","29.364","0.41132","5"],
    [3944,"HCEP03730564","2023-11-08 10:30:00","12.1807","3.57591","26.737","2.22","7.54",null,null,null,null,"30.7352","4.80883","25.09","2","SATNPRO1963","29.36","0.41124","5"],
    [3945,"HCEP03730564","2023-11-08 10:45:00","12.1803","3.57597","26.871","2.205","7.54",null,null,null,null,"30.7361","4.80896","24.92","2","SATNPRO1963","29.386","0.4116","5"],
    [3946,"HCEP03730564","2023-11-08 11:00:00","12.1807","3.57612","27.021","2.211","7.54","0.912","4.195","0.18","0.07","30.7372","4.80911","24.98","0","SATNPRO1963","29.248","0.40966","5"],
    [3947,"HCEP03730564","2023-11-08 11:15:00","12.1811","3.5762","27.105","2.214","7.54","0.933","4.148","0.13","0.14","30.7375","4.80916","25.02","2","SATNPRO1963","29.258","0.40982","5"],
    [3948,"HCEP03730564","2023-11-08 11:30:00","12.1796","3.57547","27.236","2.231","7.54","0.894","4.407","0.07","0.15","30.7317","4.80837","25.2","2","SATNPRO1963","29.122","0.40792","5"],
    [3949,"HCEP03730564","2023-11-08 11:45:00","12.176","3.57389","27.393","2.249","7.54","1.148","3.431","0.29","0.1","30.7196","4.80672","25.4","2","SATNPRO1963","29.014","0.40642","5"],
    [3950,"HCEP03730564","2023-11-08 12:00:00","12.1703","3.57086","27.484","2.219","7.54","0.723","2.781","0.05","0.04","30.6953","4.80338","25.06","2","SATNPRO1963","29.2","0.409","5"],
    [3951,"HCEP03730564","2023-11-08 12:15:00","12.1686","3.57113","27.593","2.111","7.54","0.919","3.74","0.08","0.18","30.6992","4.80396","23.84","2","SATNPRO1963","29.348","0.41106","5"],
    [3952,"HCEP03730564","2023-11-08 12:30:00","12.1772","3.57443","27.668","2.164","7.54","0.935","3.995","0.12","0.2","30.7236","4.80728","24.45","2","SATNPRO1963","29.041999999999998","0.4068","5"],
    [3953,"HCEP03730564","2023-11-08 12:45:00","12.1779","3.5753","27.76","2.176","7.54","0.991","4.275","0.16","0.18","30.7313","4.80837","24.58","2","SATNPRO1963","29.195999999999998","0.40894","5"],
    [3954,"HCEP03730564","2023-11-08 13:00:00","12.1631","3.56902","27.803","2.069","7.54","0.6","2.806","0.1","0.12","30.6836","4.80184","23.37","2","SATNPRO1963","28.948","0.40544","5"],
    [3955,"HCEP03730564","2023-11-08 13:15:00","12.1449","3.56602","27.841","1.579","7.52","0.753","2.98","0.17","0.15","30.6697","4.80014","17.82","2","SATNPRO1963","29.12","0.40786","5"],
    [3956,"HCEP03730564","2023-11-08 13:30:00","12.1644","3.57244","27.869","1.678","7.5","0.857","3.761","0.11","0.15","30.7151","4.80627","18.95","2","SATNPRO1963","28.956","0.40556","5"],
    [3957,"HCEP03730564","2023-11-08 13:45:00","12.1693","3.57255","27.916","1.903","7.51","0.719","3.95","0.05","0.29","30.712","4.80578","21.5","2","SATNPRO1963","28.86","0.4042","5"],
    [3958,"HCEP03730564","2023-11-08 14:00:00","12.1629","3.57026","27.929","1.823","7.51","0.697","4.112","0.1","0.24","30.6954","4.80353","20.58","2","SATNPRO1963","28.808","0.4035","5"],
    [3959,"HCEP03730564","2023-11-08 14:15:00","12.1695","3.57234","27.902","1.884","7.51","0.906","4.62","0.09","0.1","30.7099","4.80547","21.28","2","SATNPRO1963","26.618","0.37286","5"],
    [3960,"HCEP03730564","2023-11-08 14:30:00","12.167","3.57169","27.88","1.883","7.51","0.906","4.62","0.09","0.1","30.7058","4.80492","21.27","0","SATNPRO1963","28.128","0.39396","5"],
    [3961,"HCEP03730564","2023-11-08 14:45:00","12.1597","3.56925","27.856","1.763","7.51","0.906","4.62","0.09","0.1","30.6885","4.80258","19.91","0","SATNPRO1963","28.36","0.39722","5"],
    [3962,"HCEP03730564","2023-11-08 15:00:00","12.1664","3.57133","27.749","1.791","7.51","0.906","4.62","0.09","0.1","30.7029","4.80452","20.23","0","SATNPRO1963","27.794","0.38932","5"],
    [3963,"HCEP03730564","2023-11-08 15:15:00","12.1689","3.57185","27.709","1.889","7.51",null,null,null,null,"30.7058","4.80489","21.33","2","SATNPRO1963","28.224","0.39534","5"],
    [3964,"HCEP03730564","2023-11-08 15:30:00","12.17","3.57227","27.577","1.931","7.51",null,null,null,null,"30.7089","4.80531","21.81","2","SATNPRO1963","28.394","0.3977","5"],
    [3965,"HCEP03730564","2023-11-08 15:45:00","12.1689","3.57161","27.514","1.949","7.51","0.906","4.62","0.09","0.1","30.7036","4.80457","22.02","0","SATNPRO1963","27.66","0.38744","5"],
    [3966,"HCEP03730564","2023-11-08 16:00:00","12.1728","3.57374","27.405","1.944","7.52","0.943","4.442","0","0","30.7207","4.80692","21.96","2","SATNPRO1963","28.308","0.39652","5"],
    [3967,"HCEP03730564","2023-11-08 16:15:00","12.1745","3.57491","27.306","1.918","7.52","0.943","4.442","0","0","30.7305","4.80828","21.66","0","SATNPRO1963","28.362","0.39726","5"],
    [3968,"HCEP03730564","2023-11-08 16:30:00","12.1702","3.57239","27.183","1.845","7.51","0.943","4.442","0","0","30.71","4.80544","20.84","0","SATNPRO1963","28.622","0.4009","5"],
    [3969,"HCEP03730564","2023-11-08 16:45:00","12.165","3.57068","27.047","1.81","7.51",null,null,null,null,"30.6981","4.80382","20.44","2","SATNPRO1963","28.57","0.40014","5"],
    [3970,"HCEP03730564","2023-11-08 17:00:00","12.1593","3.56867","26.903","1.797","7.51","0.461","2.559","0","0","30.6836","4.80185","20.29","2","SATNPRO1963","28.346","0.39708","5"],
    [3971,"HCEP03730564","2023-11-08 17:15:00","12.1709","3.57291","26.754","1.852","7.51",null,null,null,null,"30.7146","4.80605","20.92","2","SATNPRO1963","28.21","0.39516","5"],
    [3972,"HCEP03730564","2023-11-08 17:30:00","12.1572","3.56801","26.572","1.715","7.51","0.461","2.559","0","0","30.6792","4.80123","19.37","0","SATNPRO1963","28.338","0.39694","5"],
    [3973,"HCEP03730564","2023-11-08 17:45:00","12.1467","3.5652","26.443","1.52","7.5",null,null,null,null,"30.661","4.79881","17.15","2","SATNPRO1963","28.4","0.3978","5"],
    [3974,"HCEP03730564","2023-11-08 18:00:00","12.151","3.56687","26.27","1.493","7.49","0.461","2.559","0","0","30.6735","4.8005","16.86","0","SATNPRO1963","27.986","0.392","5"],
    [3975,"HCEP03730564","2023-11-08 18:15:00","12.1494","3.5659","26.111","1.513","7.48","0.461","2.559","0","0","30.6656","4.7994","17.08","0","SATNPRO1963","28.544","0.39978","5"],
    [3976,"HCEP03730564","2023-11-08 18:30:00","12.1562","3.568","25.951","1.586","7.48",null,null,null,null,"30.6801","4.80135","17.9","2","SATNPRO1963","28.052","0.39288","5"],
    [3977,"HCEP03730564","2023-11-08 18:45:00","12.1499","3.56583","25.82","1.55","7.49",null,null,null,null,"30.6646","4.79924","17.49","2","SATNPRO1963","27.508","0.38528","5"],
    [3978,"HCEP03730564","2023-11-08 19:00:00","12.1708","3.5733","25.707","1.753","7.49",null,null,null,null,"30.7188","4.80659","19.8","2","SATNPRO1963","27.977999999999998","0.39192","5"],
    [3979,"HCEP03730564","2023-11-08 19:15:00","12.167","3.57177","25.62","1.828","7.5","0.461","2.559","0","0","30.7074","4.80503","20.65","0","SATNPRO1963","27.64","0.3871","5"],
    [3980,"HCEP03730564","2023-11-08 19:30:00","12.1693","3.57228","25.545","1.856","7.51","0.461","2.559","0","0","30.7104","4.80541","20.96","0","SATNPRO1963","28.144","0.3942","5"],
    [3981,"HCEP03730564","2023-11-08 19:45:00","12.1703","3.57134","25.51","2.044","7.51",null,null,null,null,"30.7007","4.80403","23.08","2","SATNPRO1963","27.798000000000002","0.3894","5"],
    [3982,"HCEP03730564","2023-11-08 20:00:00","12.1709","3.57256","25.487","2.005","7.52",null,null,null,null,"30.7118","4.80559","22.65","2","SATNPRO1963","28.264","0.39588","5"],
    [3983,"HCEP03730564","2023-11-08 20:15:00","12.1726","3.57402","25.49","1.91","7.52",null,null,null,null,"30.7244","4.80733","21.57","2","SATNPRO1963","28.334","0.39688","5"],
    [3984,"HCEP03730564","2023-11-08 20:30:00","12.1765","3.57556","25.481","1.942","7.52",null,null,null,null,"30.7359","4.8089","21.94","2","SATNPRO1963","28.526","0.39954","5"],
    [3985,"HCEP03730564","2023-11-08 20:45:00","12.1801","3.57679","25.499","2.006","7.52",null,null,null,null,"30.7447","4.8101","22.66","2","SATNPRO1963","29.832","0.41784","5"],
    [3986,"HCEP03730564","2023-11-08 21:00:00","12.1822","3.57737","25.575","2.051","7.52",null,null,null,null,"30.7484","4.8106","23.17","2","SATNPRO1963","29.072","0.40722","5"],
    [3987,"HCEP03730564","2023-11-08 21:15:00","12.1834","3.57785","25.588","2.08","7.52",null,null,null,null,"30.752","4.81108","23.51","2","SATNPRO1963","28.292","0.39628","5"],
    [3988,"HCEP03730564","2023-11-08 21:30:00","12.1865","3.57913","25.667","2.118","7.53",null,null,null,null,"30.7616","4.8124","23.94","2","SATNPRO1963","28.358","0.3972","5"],
    [3989,"HCEP03730564","2023-11-08 21:45:00","12.1859","3.57858","25.72","2.147","7.53",null,null,null,null,"30.7568","4.81173","24.27","2","SATNPRO1963","28.894","0.40474","5"],
    [3990,"HCEP03730564","2023-11-08 22:00:00","12.187","3.57905","25.769","2.149","7.53",null,null,null,null,"30.7604","4.81223","24.29","2","SATNPRO1963","28.908","0.40488","5"],
    [3991,"HCEP03730564","2023-11-08 22:15:00","12.1883","3.58002","25.855","2.122","7.53",null,null,null,null,"30.7686","4.81337","23.98","2","SATNPRO1963","28.854","0.4041","5"],
    [3992,"HCEP03730564","2023-11-08 22:30:00","12.1894","3.58031","25.964","2.124","7.53",null,null,null,null,"30.7704","4.81362","24.01","2","SATNPRO1963","29.12","0.40784","5"],
    [3993,"HCEP03730564","2023-11-08 22:45:00","12.1928","3.58127","26.045","2.185","7.53",null,null,null,null,"30.7768","4.81447","24.7","2","SATNPRO1963","29.264","0.4099","5"],
    [3994,"HCEP03730564","2023-11-08 23:00:00","12.1952","3.58235","26.087","2.235","7.54",null,null,null,null,"30.785","4.8156","25.27","2","SATNPRO1963","29.144","0.40818","5"],
    [3995,"HCEP03730564","2023-11-08 23:15:00","12.1984","3.58378","26.192","2.266","7.54",null,null,null,null,"30.796","4.81711","25.62","2","SATNPRO1963","28.954","0.40556","5"],
    [3996,"HCEP03730564","2023-11-08 23:30:00","12.201","3.58486","26.28","2.303","7.54",null,null,null,null,"30.8042","4.81824","26.04","2","SATNPRO1963","28.678","0.40168","5"],
    [3997,"HCEP03730564","2023-11-08 23:45:00","12.2018","3.58518","26.369","2.331","7.55",null,null,null,null,"30.8065","4.81856","26.36","2","SATNPRO1963","29.28","0.41014","5"],
    [3998,"HCEP03730564","2023-11-09 00:00:00","12.2035","3.58565","26.456","2.36","7.55","0.577","3.245","0.14","0.45","30.8096","4.81897","26.69","0","SATNPRO1963","29.422","0.41206","5"],
    [3999,"HCEP03730564","2023-11-09 00:15:00","12.2057","3.58616","26.565","2.407","7.55",null,null,null,null,"30.8126","4.81937","27.22","2","SATNPRO1963","29.41","0.41194","5"],
    [4000,"HCEP03730564","2023-11-09 00:30:00","12.2069","3.58621","26.658","2.463","7.56",null,null,null,null,"30.8121","4.81929","27.86","2","SATNPRO1963","29.62","0.41486","5"],
    [4001,"HCEP03730564","2023-11-09 00:45:00","12.2066","3.5862","26.74","2.481","7.56",null,null,null,null,"30.8121","4.8193","28.06","2","SATNPRO1963","29.416","0.41198","5"],
    [4002,"HCEP03730564","2023-11-09 01:00:00","12.2049","3.58581","26.834","2.449","7.56",null,null,null,null,"30.8098","4.819","27.7","2","SATNPRO1963","29.988","0.42004","5"],
    [4003,"HCEP03730564","2023-11-09 01:15:00","12.2046","3.58548","26.904","2.44","7.56",null,null,null,null,"30.8069","4.8186","27.6","2","SATNPRO1963","30.17","0.42256","5"],
    [4004,"HCEP03730564","2023-11-09 01:30:00","12.205","3.58574","26.955","2.437","7.56",null,null,null,null,"30.809","4.8189","27.56","2","SATNPRO1963","30.348","0.42506","5"],
    [4005,"HCEP03730564","2023-11-09 01:45:00","12.2026","3.58507","27.032","2.399","7.56",null,null,null,null,"30.8046","4.81831","27.13","2","SATNPRO1963","30.232","0.42348","5"],
    [4006,"HCEP03730564","2023-11-09 02:00:00","12.2","3.58367","27.053","2.364","7.56",null,null,null,null,"30.7933","4.81675","26.73","2","SATNPRO1963","30.056","0.421","5"],
    [4007,"HCEP03730564","2023-11-09 02:15:00","12.1993","3.58293","27.074","2.368","7.56",null,null,null,null,"30.7869","4.81586","26.77","2","SATNPRO1963","30.07","0.42116","5"],
    [4008,"HCEP03730564","2023-11-09 02:30:00","12.1931","3.58048","27.053","2.303","7.56",null,null,null,null,"30.7685","4.81336","26.03","2","SATNPRO1963","30.342000000000002","0.42504","5"],
    [4009,"HCEP03730564","2023-11-09 02:45:00","12.191","3.57979","27.059","2.27","7.55",null,null,null,null,"30.7637","4.81271","25.66","2","SATNPRO1963","30.169999999999998","0.4226","5"],
    [4010,"HCEP03730564","2023-11-09 03:00:00","12.1914","3.58054","27.041","2.232","7.55",null,null,null,null,"30.7705","4.81366","25.23","2","SATNPRO1963","30.144000000000002","0.42222","5"],
    [4011,"HCEP03730564","2023-11-09 03:15:00","12.1895","3.57951","26.997","2.212","7.55",null,null,null,null,"30.7623","4.81252","25","2","SATNPRO1963","30.504","0.42726","5"],
    [4012,"HCEP03730564","2023-11-09 03:30:00","12.1877","3.57866","26.95","2.205","7.54",null,null,null,null,"30.7557","4.81162","24.92","2","SATNPRO1963","29.878","0.41846","5"],
    [4013,"HCEP03730564","2023-11-09 03:45:00","12.1836","3.57635","26.896","2.204","7.54",null,null,null,null,"30.737","4.80905","24.91","2","SATNPRO1963","29.968","0.41976","5"],
    [4014,"HCEP03730564","2023-11-09 04:00:00","12.1808","3.57559","26.855","2.179","7.54",null,null,null,null,"30.732","4.80838","24.62","2","SATNPRO1963","29.306","0.4105","5"],
    [4015,"HCEP03730564","2023-11-09 04:15:00","12.1832","3.57679","26.795","2.153","7.53",null,null,null,null,"30.7416","4.80969","24.33","2","SATNPRO1963","29.631999999999998","0.41502","5"],
    [4016,"HCEP03730564","2023-11-09 04:30:00","12.1842","3.57774","26.738","2.142","7.53",null,null,null,null,"30.7498","4.81083","24.21","2","SATNPRO1963","29.538","0.41374","5"],
    [4017,"HCEP03730564","2023-11-09 04:45:00","12.1864","3.57916","26.618","2.096","7.53",null,null,null,null,"30.7617","4.81246","23.69","2","SATNPRO1963","30.138","0.42214","5"],
    [4018,"HCEP03730564","2023-11-09 05:00:00","12.1869","3.57921","26.564","2.094","7.53",null,null,null,null,"30.7617","4.81246","23.67","2","SATNPRO1963","29.744","0.41664","5"],
    [4019,"HCEP03730564","2023-11-09 05:15:00","12.1867","3.5791","26.478","2.091","7.53",null,null,null,null,"30.7609","4.81234","23.63","2","SATNPRO1963","29.538","0.4137","5"],
    [4020,"HCEP03730564","2023-11-09 05:30:00","12.1867","3.57902","26.418","2.084","7.53",null,null,null,null,"30.7602","4.81224","23.55","2","SATNPRO1963","29.342","0.41098","5"],
    [4021,"HCEP03730564","2023-11-09 05:45:00","12.1867","3.57911","26.362","2.074","7.53","0.474","4.267","0.05","0.19","30.761","4.81235","23.44","0","SATNPRO1963","29","0.40618","5"],
    [4022,"HCEP03730564","2023-11-09 06:00:00","12.1863","3.57894","26.273","2.063","7.53","0.509","4.393","0.06","0.13","30.7598","4.81218","23.32","2","SATNPRO1963","29.094","0.40754","5"],
    [4023,"HCEP03730564","2023-11-09 06:15:00","12.1863","3.57952","26.128","2.027","7.53","0.519","4.69","0.11","0.13","30.7654","4.81296","22.91","2","SATNPRO1963","29.102","0.40762","5"],
    [4024,"HCEP03730564","2023-11-09 06:30:00","12.1854","3.57937","26.091","1.992","7.52","0.508","4.659","0.07","0.12","30.7647","4.81287","22.51","2","SATNPRO1963","29.018","0.40646","5"],
    [4025,"HCEP03730564","2023-11-09 06:45:00","12.1859","3.5796","25.978","1.976","7.52","0.462","4.8","0.11","0.28","30.7665","4.81312","22.33","2","SATNPRO1963","28.922","0.40512","5"],
    [4026,"HCEP03730564","2023-11-09 07:00:00","12.1859","3.5797","25.92","1.96","7.52","0.52","5.143","0.08","0.17","30.7675","4.81326","22.16","2","SATNPRO1963","28.768","0.40294","5"],
    [4027,"HCEP03730564","2023-11-09 07:15:00","12.1865","3.57995","25.868","1.959","7.52","0.555","4.6","0.19","0.13","30.7694","4.81351","22.15","2","SATNPRO1963","28.368","0.39734","5"],
    [4028,"HCEP03730564","2023-11-09 07:30:00","12.1877","3.58036","25.827","1.974","7.52","0.486","4.629","0.08","0.02","30.7724","4.81391","22.31","2","SATNPRO1963","28.25","0.3957","5"],
    [4029,"HCEP03730564","2023-11-09 07:45:00","12.1896","3.58107","25.718","2.007","7.52","0.45","4.225","0.1","0.18","30.7775","4.81461","22.69","2","SATNPRO1963","28.02","0.3925","5"],
    [4030,"HCEP03730564","2023-11-09 08:00:00","12.1905","3.5814","25.78","2.019","7.52","0.448","4.229","0.05","0.14","30.78","4.81494","22.83","2","SATNPRO1963","28.024","0.39252","5"],
    [4031,"HCEP03730564","2023-11-09 08:15:00","12.1909","3.58176","25.743","2.013","7.52","0.443","4.67","0.04","0.25","30.7831","4.81537","22.75","2","SATNPRO1963","28.09","0.39342","5"],
    [4032,"HCEP03730564","2023-11-09 08:30:00","12.1954","3.58356","25.804","2.063","7.52","0.534","4.289","0.06","0.13","30.7966","4.81721","23.32","2","SATNPRO1963","28.12","0.39384","5"],
    [4033,"HCEP03730564","2023-11-09 08:45:00","12.197","3.58413","25.805","2.095","7.53","0.501","4.404","0.07","0.18","30.8006","4.81776","23.69","2","SATNPRO1963","28.31","0.39652","5"],
    [4034,"HCEP03730564","2023-11-09 09:00:00","12.1961","3.58385","25.887","2.107","7.53","0.501","4.404","0.07","0.18","30.7988","4.81751","23.82","0","SATNPRO1963","28.51","0.39932","5"],
    [4035,"HCEP03730564","2023-11-09 09:15:00","12.1967","3.58389","25.918","2.103","7.53",null,null,null,null,"30.7986","4.81749","23.78","2","SATNPRO1963","28.362000000000002","0.39722","5"],
    [4036,"HCEP03730564","2023-11-09 09:30:00","12.1962","3.58378","26.025","2.103","7.53","0.501","4.404","0.07","0.18","30.7979","4.81739","23.78","0","SATNPRO1963","28.51","0.3993","5"],
    [4037,"HCEP03730564","2023-11-09 09:45:00","12.1971","3.58393","26.113","2.125","7.53",null,null,null,null,"30.7986","4.81749","24.03","2","SATNPRO1963","28.836","0.40392","5"],
    [4038,"HCEP03730564","2023-11-09 10:00:00","12.1966","3.58385","26.178","2.111","7.53","0.501","4.404","0.07","0.18","30.7982","4.81744","23.88","0","SATNPRO1963","28.69","0.40184","5"],
    [4039,"HCEP03730564","2023-11-09 10:15:00","12.1958","3.58377","26.338","2.103","7.53","0.451","4.382","0.07","0.16","30.798","4.81743","23.77","2","SATNPRO1963","28.828","0.40376","5"],
    [4040,"HCEP03730564","2023-11-09 10:30:00","12.1975","3.58425","26.452","2.108","7.53","0.451","4.382","0.07","0.16","30.8011","4.81786","23.84","0","SATNPRO1963","28.886","0.40458","5"],
    [4041,"HCEP03730564","2023-11-09 10:45:00","12.1991","3.58459","26.547","2.16","7.53","0.363","3.272","0.06","0.11","30.8031","4.81812","24.43","2","SATNPRO1963","28.91","0.40494","5"],
    [4042,"HCEP03730564","2023-11-09 11:00:00","12.2","3.58489","26.659","2.199","7.54","0.363","3.272","0.06","0.11","30.8052","4.81841","24.87","0","SATNPRO1963","28.792","0.4033","5"],
    [4043,"HCEP03730564","2023-11-09 11:15:00","12.1956","3.5832","26.804","2.141","7.54","0.363","3.272","0.06","0.11","30.7926","4.8167","24.21","0","SATNPRO1963","28.682","0.40174","5"],
    [4044,"HCEP03730564","2023-11-09 11:30:00","12.19","3.58109","26.956","2.043","7.53","0.417","3.644","0.04","0.21","30.777","4.81459","23.1","2","SATNPRO1963","28.983999999999998","0.40594","5"],
    [4045,"HCEP03730564","2023-11-09 11:45:00","12.1915","3.58183","27.136","2.015","7.53","0.399","3.611","0.06","0.34","30.7827","4.81538","22.79","2","SATNPRO1963","29.259999999999998","0.4098","5"],
    [4046,"HCEP03730564","2023-11-09 12:00:00","12.1898","3.58134","27.211","1.986","7.52","0.399","3.611","0.06","0.34","30.7793","4.81494","22.45","0","SATNPRO1963","29.296","0.41036","5"],
    [4047,"HCEP03730564","2023-11-09 12:15:00","12.1901","3.58149","27.278","1.972","7.52","0.43","3.983","0.05","0.11","30.7806","4.81511","22.29","2","SATNPRO1963","28.916","0.40502","5"],
    [4048,"HCEP03730564","2023-11-09 12:30:00","12.1881","3.58059","27.406","1.976","7.52","0.446","3.968","0.03","0.12","30.7736","4.81416","22.33","2","SATNPRO1963","28.21","0.39512","5"],
    [4049,"HCEP03730564","2023-11-09 12:45:00","12.1881","3.58106","27.553","1.958","7.52","0.437","5.076","0.04","0.86","30.778","4.81479","22.14","2","SATNPRO1963","28.362","0.3973","5"],
    [4050,"HCEP03730564","2023-11-09 13:00:00","12.1881","3.58111","27.622","1.923","7.52","0.437","5.076","0.04","0.86","30.7784","4.81486","21.74","0","SATNPRO1963","28.406","0.39786","5"],
    [4051,"HCEP03730564","2023-11-09 13:15:00","12.1889","3.58093","27.699","1.943","7.52","0.486","4.584","0.02","0.15","30.7761","4.81452","21.97","2","SATNPRO1963","28.216","0.39522","5"],
    [4052,"HCEP03730564","2023-11-09 13:30:00","12.1902","3.58028","27.77","2.049","7.52","0.55","3.993","0.04","0.14","30.7687","4.81347","23.16","2","SATNPRO1963","28.116","0.39382","5"],
    [4053,"HCEP03730564","2023-11-09 13:45:00","12.1891","3.5811","27.87","2.013","7.52","0.491","5.06","0","0","30.7775","4.81472","22.75","2","SATNPRO1963","27.95","0.39146","5"],
    [4054,"HCEP03730564","2023-11-09 14:00:00","12.1892","3.58089","27.85","1.973","7.52","0.595","4.653","0.08","0.13","30.7754","4.81442","22.3","2","SATNPRO1963","27.768","0.38894","5"],
    [4055,"HCEP03730564","2023-11-09 14:15:00","12.1906","3.58046","27.844","2.051","7.52","0.575","4.131","0.05","0.14","30.7701","4.81366","23.19","2","SATNPRO1963","27.73","0.38838","5"],
    [4056,"HCEP03730564","2023-11-09 14:30:00","12.1893","3.58023","27.8","2.04","7.52","0.575","4.131","0.05","0.14","30.769","4.81352","23.06","0","SATNPRO1963","28.286","0.39618","5"],
    [4057,"HCEP03730564","2023-11-09 14:45:00","12.1861","3.5797","27.826","1.976","7.52","0.592","4.641","0.04","0.13","30.7666","4.81323","22.33","2","SATNPRO1963","27.816","0.38962","5"],
    [4058,"HCEP03730564","2023-11-09 15:00:00","12.1863","3.57969","27.832","1.964","7.52",null,null,null,null,"30.7663","4.81319","22.2","2","SATNPRO1963","27.982","0.39194","5"],
    [4059,"HCEP03730564","2023-11-09 15:15:00","12.1877","3.57967","27.828","1.993","7.52",null,null,null,null,"30.765","4.81299","22.53","2","SATNPRO1963","28.184","0.39474","5"],
    [4060,"HCEP03730564","2023-11-09 15:30:00","12.186","3.57899","27.717","2.008","7.52","0.592","4.641","0.04","0.13","30.7599","4.81229","22.7","0","SATNPRO1963","28.062","0.39306","5"],
    [4061,"HCEP03730564","2023-11-09 15:45:00","12.1849","3.57844","27.634","2.034","7.53","0.491","4.195","0","0","30.7556","4.81169","22.99","2","SATNPRO1963","27.54","0.38574","5"],
    [4062,"HCEP03730564","2023-11-09 16:00:00","12.1922","3.57925","27.513","2.217","7.54","0.587","2.758","0.04","0.04","30.7574","4.81183","25.06","2","SATNPRO1963","27.422","0.3841","5"],
    [4063,"HCEP03730564","2023-11-09 16:15:00","12.1903","3.57888","27.389","2.247","7.54","0.604","2.852","0.07","0.09","30.7554","4.81157","25.4","2","SATNPRO1963","28.026","0.39256","5"],
    [4064,"HCEP03730564","2023-11-09 16:30:00","12.1883","3.57812","27.319","2.217","7.54","0.541","2.871","0.05","0.08","30.7498","4.81081","25.05","2","SATNPRO1963","27.82","0.38968","5"],
    [4065,"HCEP03730564","2023-11-09 16:45:00","12.1827","3.57757","27.106","2.046","7.53","0.534","4.677","0.06","0.16","30.7493","4.8108","23.12","2","SATNPRO1963","28.11","0.39374","5"],
    [4066,"HCEP03730564","2023-11-09 17:00:00","12.1841","3.57804","27.04","1.914","7.52","0.534","4.677","0.06","0.16","30.7527","4.81126","21.63","0","SATNPRO1963","29.048000000000002","0.40688","5"],
    [4067,"HCEP03730564","2023-11-09 17:15:00","12.1849","3.58043","26.959","1.816","7.52","0.547","5.763","0.08","0.25","30.7749","4.81437","20.53","2","SATNPRO1963","29.038","0.4067","5"],
    [4068,"HCEP03730564","2023-11-09 17:30:00","12.1883","3.58108","26.766","1.863","7.51","0.559","4.893","0.05","0.2","30.7784","4.8148","21.06","2","SATNPRO1963","28.956","0.40558","5"],
    [4069,"HCEP03730564","2023-11-09 17:45:00","12.1889","3.58181","26.605","1.888","7.51","0.574","5.584","0.18","0.13","30.7849","4.8157","21.34","2","SATNPRO1963","28.516000000000002","0.3994","5"],
    [4070,"HCEP03730564","2023-11-09 18:00:00","12.1893","3.58159","26.486","1.896","7.51","0.509","5.294","0.04","0.23","30.7825","4.81534","21.44","2","SATNPRO1963","28.178","0.39468","5"],
    [4071,"HCEP03730564","2023-11-09 18:15:00","12.1873","3.58089","26.252","1.908","7.51","0.536","5.339","0.06","0.16","30.7775","4.81466","21.57","2","SATNPRO1963","27.09","0.3794","5"],
    [4072,"HCEP03730564","2023-11-09 18:30:00","12.1862","3.58004","26.09","1.923","7.51","0.524","4.776","0.09","0.16","30.7704","4.81367","21.74","2","SATNPRO1963","27.812","0.38958","5"],
    [4073,"HCEP03730564","2023-11-09 18:45:00","12.1841","3.57897","25.922","1.936","7.51","0.448","4.536","0.02","0.07","30.762","4.8125","21.88","2","SATNPRO1963","27.8","0.3894","5"],
    [4074,"HCEP03730564","2023-11-09 19:00:00","12.1832","3.57851","25.74","1.938","7.52","0.461","4.753","0.04","0.12","30.7584","4.81199","21.9","2","SATNPRO1963","27.848","0.39004","5"],
    [4075,"HCEP03730564","2023-11-09 19:15:00","12.1833","3.57836","25.644","1.933","7.52","0.579","4.72","0.14","0.27","30.757","4.81179","21.84","2","SATNPRO1963","28.094","0.39352","5"],
    [4076,"HCEP03730564","2023-11-09 19:30:00","12.1863","3.57918","25.468","1.979","7.52","0.523","4.545","0.03","0.74","30.7623","4.8125","22.37","2","SATNPRO1963","28.276","0.39608","5"],
    [4077,"HCEP03730564","2023-11-09 19:45:00","12.19","3.58113","25.387","2.003","7.52","0.538","4.978","0.06","0.17","30.778","4.81465","22.64","2","SATNPRO1963","28.37","0.39736","5"],
    [4078,"HCEP03730564","2023-11-09 20:00:00","12.1967","3.58387","25.295","2.047","7.52","0.58","5.168","0.15","0.4","30.7986","4.81745","23.14","2","SATNPRO1963","28.424","0.3981","5"],
    [4079,"HCEP03730564","2023-11-09 20:15:00","12.1971","3.58386","25.264","2.093","7.53","0.524","4.395","0.02","0.31","30.7982","4.81739","23.66","2","SATNPRO1963","28.07","0.39318","5"],
    [4080,"HCEP03730564","2023-11-09 20:30:00","12.1988","3.58452","25.173","2.124","7.53","0.582","4.71","0.06","0.57","30.8032","4.81806","24.02","2","SATNPRO1963","28.618","0.40084","5"],
    [4081,"HCEP03730564","2023-11-09 20:45:00","12.199","3.5845","25.135","2.148","7.53","0.473","4.637","0.07","0.19","30.8028","4.81801","24.29","2","SATNPRO1963","28.418","0.39804","5"],
    [4082,"HCEP03730564","2023-11-09 21:00:00","12.1993","3.58458","25.19","2.162","7.54","0.535","3.998","0.05","0.19","30.8033","4.81807","24.44","2","SATNPRO1963","28.881999999999998","0.40454","5"],
    [4083,"HCEP03730564","2023-11-09 21:15:00","12.1998","3.5847","25.169","2.178","7.54","0.646","3.879","0.05","0.03","30.804","4.81817","24.63","2","SATNPRO1963","28.936","0.40528","5"],
    [4084,"HCEP03730564","2023-11-09 21:30:00","12.2008","3.58514","25.208","2.194","7.54","0.568","3.593","0.05","0.1","30.8075","4.81864","24.82","2","SATNPRO1963","29.14","0.40814","5"],
    [4085,"HCEP03730564","2023-11-09 21:45:00","12.2014","3.58534","25.284","2.208","7.54","0.571","3.425","0.07","0.11","30.8089","4.81883","24.97","2","SATNPRO1963","29.258","0.40982","5"],
    [4086,"HCEP03730564","2023-11-09 22:00:00","12.2028","3.58612","25.332","2.223","7.54","0.504","3.341","0.06","0.11","30.815","4.81968","25.14","2","SATNPRO1963","29.439999999999998","0.41236","5"],
    [4087,"HCEP03730564","2023-11-09 22:15:00","12.2048","3.5866","25.432","2.252","7.54","0.469","3.169","0.01","0.05","30.8179","4.82007","25.47","2","SATNPRO1963","29.504","0.41326","5"],
    [4088,"HCEP03730564","2023-11-09 22:30:00","12.2057","3.58709","25.484","2.261","7.54","0.467","3.123","0.04","0.26","30.8219","4.82062","25.57","2","SATNPRO1963","29.548000000000002","0.41386","5"],
    [4089,"HCEP03730564","2023-11-09 22:45:00","12.2038","3.58631","25.624","2.253","7.55","0.488","2.967","0.05","0.09","30.816","4.81982","25.48","2","SATNPRO1963","29.526","0.41356","5"],
    [4090,"HCEP03730564","2023-11-09 23:00:00","12.2048","3.58666","25.673","2.247","7.55","0.486","2.943","0.09","0.14","30.8185","4.82016","25.42","2","SATNPRO1963","29.528","0.41356","5"],
    [4091,"HCEP03730564","2023-11-09 23:15:00","12.2053","3.58716","25.788","2.241","7.55","0.436","3.41","0.03","0.14","30.8228","4.82077","25.35","2","SATNPRO1963","30.048","0.42088","5"],
    [4092,"HCEP03730564","2023-11-09 23:30:00","12.2053","3.58712","25.974","2.22","7.55","0.5","4.139","0.07","0.6","30.8223","4.8207","25.11","2","SATNPRO1963","29.652","0.41536","5"],
    [4093,"HCEP03730564","2023-11-09 23:45:00","12.2041","3.58677","26.064","2.198","7.54","0.482","3.467","0.04","0.07","30.8199","4.82039","24.87","2","SATNPRO1963","29.722","0.41628","5"],
    [4094,"HCEP03730564","2023-11-10 00:00:00","12.2043","3.58682","26.22","2.189","7.55","0.526","3.455","0.08","0.14","30.8202","4.82043","24.76","2","SATNPRO1963","29.354","0.41114","5"],
    [4095,"HCEP03730564","2023-11-10 00:15:00","12.2047","3.58719","26.318","2.187","7.54","0.45","3.721","0.07","0.03","30.8233","4.82088","24.73","2","SATNPRO1963","29.736","0.4165","5"],
    [4096,"HCEP03730564","2023-11-10 00:30:00","12.2045","3.58687","26.447","2.183","7.54","0.514","3.39","0.05","0.1","30.8204","4.82048","24.7","2","SATNPRO1963","29.61","0.41476","5"],
    [4097,"HCEP03730564","2023-11-10 00:45:00","12.2041","3.58692","26.556","2.188","7.55","0.443","3.413","0","0","30.8212","4.8206","24.75","2","SATNPRO1963","29.448","0.41246","5"],
    [4098,"HCEP03730564","2023-11-10 01:00:00","12.2031","3.58639","26.669","2.175","7.55","0.454","3.1","0.04","0.22","30.8169","4.82001","24.59","2","SATNPRO1963","29.408","0.4119","5"],
    [4099,"HCEP03730564","2023-11-10 01:15:00","12.2024","3.58614","26.787","2.158","7.55","0.454","3.1","0.04","0.22","30.8151","4.81978","24.41","0","SATNPRO1963","29.372","0.41142","5"],
    [4100,"HCEP03730564","2023-11-10 01:30:00","12.2015","3.58574","26.899","2.14","7.54","0.43","3.431","0","0","30.8119","4.81935","24.2","2","SATNPRO1963","29.268","0.40994","5"],
    [4101,"HCEP03730564","2023-11-10 01:45:00","12.2001","3.58513","26.98","2.12","7.54","0.43","3.431","0","0","30.8073","4.81872","23.97","0","SATNPRO1963","29.406","0.41186","5"],
    [4102,"HCEP03730564","2023-11-10 02:00:00","12.1985","3.58449","27.072","2.094","7.54","0.478","3.559","0.01","0.12","30.8024","4.81806","23.67","2","SATNPRO1963","29.352","0.41114","5"],
    [4103,"HCEP03730564","2023-11-10 02:15:00","12.1896","3.58119","27.125","2.024","7.54","0.435","3.244","0","0","30.7781","4.81477","22.88","2","SATNPRO1963","29.094","0.4075","5"],
    [4104,"HCEP03730564","2023-11-10 02:30:00","12.1848","3.5786","27.172","1.918","7.53","0.579","3.315","0.18","0.13","30.7574","4.81192","21.68","2","SATNPRO1963","29.232","0.40946","5"],
    [4105,"HCEP03730564","2023-11-10 02:45:00","12.1813","3.57699","27.214","1.931","7.53","0.579","3.315","0.18","0.13","30.7449","4.8102","21.81","0","SATNPRO1963","29.09","0.40746","5"],
    [4106,"HCEP03730564","2023-11-10 03:00:00","12.1832","3.5781","27.255","1.927","7.53","0.579","3.315","0.18","0.13","30.7539","4.81144","21.77","0","SATNPRO1963","28.846","0.40404","5"],
    [4107,"HCEP03730564","2023-11-10 03:15:00","12.1823","3.57764","27.309","1.905","7.52",null,null,null,null,"30.7502","4.81094","21.53","2","SATNPRO1963","28.646","0.40124","5"],
    [4108,"HCEP03730564","2023-11-10 03:30:00","12.1784","3.57618","27.328","1.851","7.52",null,null,null,null,"30.7395","4.80948","20.91","2","SATNPRO1963","28.466","0.39872","5"],
    [4109,"HCEP03730564","2023-11-10 03:45:00","12.177","3.57593","27.33","1.788","7.51","0.43","4.126","0","0","30.7382","4.80933","20.2","2","SATNPRO1963","28.478","0.3989","5"],
    [4110,"HCEP03730564","2023-11-10 04:00:00","12.1735","3.57475","27.289","1.721","7.51","0.344","3.546","0","0","30.7299","4.8082","19.44","2","SATNPRO1963","28.582","0.40032","5"],
    [4111,"HCEP03730564","2023-11-10 04:15:00","12.1725","3.57462","27.233","1.683","7.5","0.413","3.5","0","0","30.7295","4.80816","19.02","2","SATNPRO1963","28.13","0.39402","5"],
    [4112,"HCEP03730564","2023-11-10 04:30:00","12.1726","3.57458","27.153","1.658","7.5","0.413","3.5","0","0","30.729","4.80808","18.73","0","SATNPRO1963","27.924","0.3911","5"],
    [4113,"HCEP03730564","2023-11-10 04:45:00","12.17","3.57363","27.096","1.635","7.5","0.413","3.5","0","0","30.7221","4.80714","18.47","0","SATNPRO1963","27.38","0.38354","5"],
    [4114,"HCEP03730564","2023-11-10 05:00:00","12.1654","3.57173","26.986","1.605","7.5","0.344","3.875","0","0","30.7078","4.80518","18.12","2","SATNPRO1963","27.291999999999998","0.38224","5"],
    [4115,"HCEP03730564","2023-11-10 05:15:00","12.161","3.5702","26.901","1.546","7.49","0.342","3.532","0.02","0.01","30.6968","4.80369","17.46","2","SATNPRO1963","27.362","0.38324","5"],
    [4116,"HCEP03730564","2023-11-10 05:30:00","12.1589","3.56948","26.823","1.502","7.49","0.527","3.724","0.05","0.04","30.6917","4.80299","16.96","2","SATNPRO1963","27.004","0.3782","5"],
    [4117,"HCEP03730564","2023-11-10 05:45:00","12.1506","3.56671","26.723","1.415","7.48","0.362","3.952","0","0","30.6721","4.80034","15.97","2","SATNPRO1963","26.91","0.37694","5"],
    [4118,"HCEP03730564","2023-11-10 06:00:00","12.1472","3.5658","26.629","1.33","7.48","0.423","3.625","0.06","0.1","30.6663","4.79956","15.01","2","SATNPRO1963","26.672","0.37356","5"],
    [4119,"HCEP03730564","2023-11-10 06:15:00","12.1405","3.56129","26.535","1.274","7.47","0.423","3.625","0.06","0.1","30.6287","4.79435","14.37","0","SATNPRO1963","26.584","0.37236","5"],
    [4120,"HCEP03730564","2023-11-10 06:30:00","12.1323","3.5595","26.458","1.235","7.47","0.359","2.769","0.02","0.05","30.6183","4.79299","13.92","2","SATNPRO1963","26.336","0.36888","5"],
    [4121,"HCEP03730564","2023-11-10 06:45:00","12.1271","3.55711","26.365","1.254","7.46","1.84","38.175","0.78","20.13","30.5998","4.79044","14.14","2","SATNPRO1963","25.57","0.35812","5"],
    [4122,"HCEP03730564","2023-11-10 07:00:00","12.1292","3.55894","26.253","1.271","7.46","0.491","3.342","0.15","0.07","30.6156","4.79265","14.33","2","SATNPRO1963","25.18","0.3527","5"],
    [4123,"HCEP03730564","2023-11-10 07:15:00","12.1327","3.56","26.125","1.255","7.46","0.353","3.811","0","0","30.6228","4.79361","14.16","2","SATNPRO1963","25.113999999999997","0.35174","5"],
    [4124,"HCEP03730564","2023-11-10 07:30:00","12.1367","3.56152","26.048","1.204","7.46","0.409","3.964","0.06","0.28","30.6341","4.79514","13.58","2","SATNPRO1963","24.736","0.34646","5"],
    [4125,"HCEP03730564","2023-11-10 07:45:00","12.087","3.53489","25.97","1.631","7.47","0.475","3.725","0.06","0.31","30.4204","4.76567","18.35","2","SATNPRO1963","24.92","0.34904","5"],
    [4126,"HCEP03730564","2023-11-10 08:00:00","12.0882","3.53642","25.829","1.922","7.49","0.435","3.153","0","0","30.4341","4.76759","21.63","2","SATNPRO1963","24.548","0.34388","5"],
    [4127,"HCEP03730564","2023-11-10 08:15:00","12.1144","3.54924","25.83","1.881","7.49","0.435","3.153","0","0","30.5352","4.78149","21.19","0","SATNPRO1963","24.762","0.34686","5"],
    [4128,"HCEP03730564","2023-11-10 08:30:00","12.1252","3.55469","25.707","1.8","7.5","0.633","4.314","0","0","30.5785","4.78743","20.3","2","SATNPRO1963","24.458","0.3426","5"],
    [4129,"HCEP03730564","2023-11-10 08:45:00","12.1335","3.55599","25.698","1.785","7.5","0.622","4.359","0.05","0.25","30.5841","4.78812","20.13","2","SATNPRO1963","24.648","0.34522","5"],
    [4130,"HCEP03730564","2023-11-10 09:00:00","12.1312","3.55599","25.716","1.821","7.5","0.621","4.575","0.17","0.11","30.586","4.78841","20.53","2","SATNPRO1963","25.048000000000002","0.35086","5"],
    [4131,"HCEP03730564","2023-11-10 09:15:00","12.1224","3.55093","25.741","2.003","7.51","0.77","4.739","0","0","30.5449","4.78274","22.58","2","SATNPRO1963","25.544","0.35778","5"],
    [4132,"HCEP03730564","2023-11-10 09:30:00","12.1193","3.54913","25.827","2.111","7.52","0.801","4.93","0.06","0.2","30.5301","4.78069","23.79","2","SATNPRO1963","25.822","0.36164","5"],
    [4133,"HCEP03730564","2023-11-10 09:45:00","12.1202","3.54936","25.981","2.162","7.52","0.821","5.515","0.06","0.12","30.5316","4.7809","24.37","2","SATNPRO1963","26.062","0.36504","5"],
    [4134,"HCEP03730564","2023-11-10 10:00:00","12.1268","3.55265","26.044","2.12","7.52","0.745","5.248","0","0","30.5576","4.78448","23.9","2","SATNPRO1963","26.456","0.37056","5"],
    [4135,"HCEP03730564","2023-11-10 10:15:00","12.1283","3.55246","26.126","2.147","7.52","0.78","4.937","0.11","0.08","30.5546","4.78404","24.21","2","SATNPRO1963","26.892","0.37668","5"],
    [4136,"HCEP03730564","2023-11-10 10:30:00","12.1296","3.55267","26.207","2.197","7.52","0.856","6.247","0","0","30.5554","4.78415","24.77","2","SATNPRO1963","26.951999999999998","0.37748","5"],
    [4137,"HCEP03730564","2023-11-10 10:45:00","12.1319","3.55331","26.334","2.226","7.53","0.835","7.414","0","0","30.5596","4.78472","25.1","2","SATNPRO1963","26.934","0.3773","5"],
    [4138,"HCEP03730564","2023-11-10 11:00:00","12.1297","3.55112","26.458","2.343","7.53","0.868","7.229","0.05","1.45","30.5405","4.78205","26.41","2","SATNPRO1963","27.16","0.3804","5"],
    [4139,"HCEP03730564","2023-11-10 11:15:00","12.1321","3.55182","26.562","2.434","7.54","0.846","7.324","0.06","0.88","30.5451","4.78267","27.44","2","SATNPRO1963","27.444","0.3844","5"],
    [4140,"HCEP03730564","2023-11-10 11:30:00","12.1422","3.55611","26.688","2.462","7.55","1.231","10.823","0.02","7.43","30.5777","4.78715","27.77","2","SATNPRO1963","27.546","0.38584","5"],
    [4141,"HCEP03730564","2023-11-10 11:45:00","12.1473","3.55806","26.789","2.466","7.55","0.912","5.423","0.36","0.12","30.5922","4.78912","27.81","2","SATNPRO1963","27.616","0.38678","5"],
    [4142,"HCEP03730564","2023-11-10 12:00:00","12.1422","3.55604","26.978","2.472","7.55","0.598","4.058","0.08","0.03","30.577","4.78706","27.88","2","SATNPRO1963","28.105999999999998","0.3937","5"],
    [4143,"HCEP03730564","2023-11-10 12:15:00","12.1384","3.55441","27.071","2.497","7.55","0.859","4.636","0.16","0.15","30.5644","4.78534","28.15","2","SATNPRO1963","28.288","0.39626","5"],
    [4144,"HCEP03730564","2023-11-10 12:30:00","12.1389","3.55422","27.175","2.542","7.56","1.067","4.099","0.01","0.2","30.5622","4.78503","28.67","2","SATNPRO1963","28.791999999999998","0.40328","5"],
    [4145,"HCEP03730564","2023-11-10 12:45:00","12.1406","3.55497","27.282","2.542","7.56","0.763","4.709","0.03","0.13","30.568","4.78582","28.67","2","SATNPRO1963","28.932000000000002","0.40528","5"],
    [4146,"HCEP03730564","2023-11-10 13:00:00","12.1434","3.55616","27.47","2.545","7.56","0.93","4.526","0.1","0.07","30.577","4.78707","28.71","2","SATNPRO1963","28.913999999999998","0.405","5"],
    [4147,"HCEP03730564","2023-11-10 13:15:00","12.144","3.55636","27.53","2.549","7.56","0.656","4.467","0","0.13","30.5783","4.78726","28.75","2","SATNPRO1963","28.954","0.40552","5"],
    [4148,"HCEP03730564","2023-11-10 13:30:00","12.1452","3.5569","27.665","2.529","7.56","0.785","4.257","0.12","0","30.5825","4.78784","28.52","2","SATNPRO1963","28.82","0.40366","5"],
    [4149,"HCEP03730564","2023-11-10 13:45:00","12.1491","3.55837","27.707","2.547","7.56","0.816","4.565","0.13","0.17","30.5933","4.78931","28.73","2","SATNPRO1963","28.94","0.40538","5"],
    [4150,"HCEP03730564","2023-11-10 14:00:00","12.1535","3.55991","27.765","2.614","7.57","1.067","4.323","0","0","30.6044","4.79081","29.49","2","SATNPRO1963","29.192","0.40892","5"],
    [4151,"HCEP03730564","2023-11-10 14:15:00","12.1529","3.55969","27.78","2.64","7.58","0.803","4.222","0.13","0.18","30.6028","4.79059","29.79","2","SATNPRO1963","29.392","0.41168","5"],
    [4152,"HCEP03730564","2023-11-10 14:30:00","12.1519","3.55912","27.799","2.641","7.58","0.878","4.478","0","0","30.5981","4.78995","29.79","2","SATNPRO1963","29.288","0.41022","5"],
    [4153,"HCEP03730564","2023-11-10 14:45:00","12.1487","3.55798","27.861","2.624","7.57","0.74","4.629","0.15","0.21","30.5898","4.78883","29.61","2","SATNPRO1963","29.318","0.4106","5"],
    [4154,"HCEP03730564","2023-11-10 15:00:00","12.1452","3.55675","27.854","2.615","7.57","0.802","4.637","0.1","0.17","30.581","4.78764","29.5","2","SATNPRO1963","29.384","0.41158","5"],
    [4155,"HCEP03730564","2023-11-10 15:15:00","12.1455","3.55655","27.792","2.594","7.57","0.792","4.306","0.07","0.07","30.5788","4.78731","29.26","2","SATNPRO1963","29.4","0.41176","5"],
    [4156,"HCEP03730564","2023-11-10 15:30:00","12.1462","3.55692","27.729","2.593","7.57","0.864","4.675","0.22","0.17","30.5819","4.78774","29.25","2","SATNPRO1963","29.23","0.40938","5"],
    [4157,"HCEP03730564","2023-11-10 15:45:00","12.1471","3.55734","27.694","2.573","7.56","0.809","4.474","0","0","30.5851","4.78818","29.03","2","SATNPRO1963","29.246","0.40964","5"],
    [4158,"HCEP03730564","2023-11-10 16:00:00","12.1477","3.55784","27.624","2.548","7.56","0.845","4.378","0.16","0.11","30.5895","4.78878","28.74","2","SATNPRO1963","29.212","0.40916","5"],
    [4159,"HCEP03730564","2023-11-10 16:15:00","12.1509","3.55911","27.527","2.555","7.56","0.897","5.106","0.23","0.29","30.599","4.79008","28.83","2","SATNPRO1963","29.114","0.40778","5"],
    [4160,"HCEP03730564","2023-11-10 16:30:00","12.1546","3.56069","27.386","2.559","7.56","0.818","4.263","0","0","30.6112","4.79173","28.88","2","SATNPRO1963","28.918","0.40508","5"],
    [4161,"HCEP03730564","2023-11-10 16:45:00","12.1572","3.56176","27.302","2.546","7.56","0.726","4.453","0.03","0.22","30.6192","4.79282","28.73","2","SATNPRO1963","28.968","0.40576","5"],
    [4162,"HCEP03730564","2023-11-10 17:00:00","12.1591","3.5627","27.166","2.501","7.56","0.69","4.283","0.06","0.16","30.6267","4.79385","28.22","2","SATNPRO1963","29.094","0.4075","5"],
    [4163,"HCEP03730564","2023-11-10 17:15:00","12.1617","3.56381","26.939","2.492","7.56","0.633","3.711","0.05","0.08","30.6353","4.79501","28.13","2","SATNPRO1963","29.036","0.40666","5"],
    [4164,"HCEP03730564","2023-11-10 17:30:00","12.1632","3.56463","26.721","2.49","7.56","0.738","4.266","0.08","0.02","30.6419","4.79591","28.11","2","SATNPRO1963","28.958","0.40562","5"],
    [4165,"HCEP03730564","2023-11-10 17:45:00","12.1643","3.56525","26.577","2.478","7.56","0.676","3.927","0.01","0.08","30.647","4.7966","27.97","2","SATNPRO1963","29.312","0.41052","5"],
    [4166,"HCEP03730564","2023-11-10 18:00:00","12.1626","3.5651","26.344","2.377","7.56","0.91","5.28","0.21","0.06","30.647","4.79662","26.84","2","SATNPRO1963","29.408","0.41194","5"],
    [4167,"HCEP03730564","2023-11-10 18:15:00","12.1629","3.56584","26.177","2.275","7.55","0.805","5.429","0.18","0.28","30.6539","4.79758","25.68","2","SATNPRO1963","29.536","0.4137","5"],
    [4168,"HCEP03730564","2023-11-10 18:30:00","12.1626","3.5657","25.995","2.251","7.55","0.654","4.784","0.08","0.18","30.6529","4.79743","25.41","2","SATNPRO1963","29.352","0.41116","5"],
    [4169,"HCEP03730564","2023-11-10 18:45:00","12.1625","3.56567","25.83","2.244","7.55","0.729","4.486","0.03","0.12","30.6528","4.79741","25.34","2","SATNPRO1963","29.456","0.41258","5"],
    [4170,"HCEP03730564","2023-11-10 19:00:00","12.1607","3.56494","25.565","2.243","7.55","0.704","5.016","0.06","0.32","30.6474","4.79665","25.32","2","SATNPRO1963","28.962","0.40566","5"],
    [4171,"HCEP03730564","2023-11-10 19:15:00","12.1594","3.5649","25.448","2.214","7.55","0.747","5.294","0.1","0.27","30.6481","4.79676","25","2","SATNPRO1963","28.684","0.40182","5"],
    [4172,"HCEP03730564","2023-11-10 19:30:00","12.1537","3.56229","25.328","2.229","7.55","0.76","4.446","0.02","0.1","30.6279","4.79399","25.16","2","SATNPRO1963","28.878","0.4045","5"],
    [4173,"HCEP03730564","2023-11-10 19:45:00","12.1512","3.56103","25.148","2.235","7.55","0.779","4.867","0.07","0.08","30.618","4.79261","25.22","2","SATNPRO1963","28.756","0.4028","5"],
    [4174,"HCEP03730564","2023-11-10 20:00:00","12.1338","3.55453","24.913","2.2","7.55","0.742","4.805","0.07","0.12","30.5703","4.78611","24.81","2","SATNPRO1963","28.392","0.39766","5"],
    [4175,"HCEP03730564","2023-11-10 20:15:00","12.1345","3.55547","24.813","2.109","7.54","0.76","5.237","0.07","0.18","30.5787","4.78729","23.79","2","SATNPRO1963","28.588","0.40038","5"],
    [4176,"HCEP03730564","2023-11-10 20:30:00","12.135","3.55519","24.806","2.126","7.54","0.7","4.976","0.04","0.14","30.5756","4.78685","23.97","2","SATNPRO1963","28.52","0.39946","5"],
    [4177,"HCEP03730564","2023-11-10 20:45:00","12.1384","3.55621","24.726","2.193","7.54","0.662","4.383","0.12","0.2","30.5826","4.78778","24.73","2","SATNPRO1963","28.582","0.40036","5"],
    [4178,"HCEP03730564","2023-11-10 21:00:00","12.1495","3.56131","24.814","2.11","7.54","0.753","4.577","0.07","0.07","30.6223","4.79323","23.81","2","SATNPRO1963","27.664","0.38752","5"],
    [4179,"HCEP03730564","2023-11-10 21:15:00","12.1501","3.5621","24.871","2.035","7.54","0.591","4.352","0.04","0.15","30.6292","4.7942","22.97","2","SATNPRO1963","27.338","0.3829","5"],
    [4180,"HCEP03730564","2023-11-10 21:30:00","12.1493","3.56201","24.841","1.98","7.53","0.709","4.469","0.1","0.18","30.629","4.79417","22.34","2","SATNPRO1963","27.69","0.38784","5"],
    [4181,"HCEP03730564","2023-11-10 21:45:00","12.1481","3.56177","24.891","1.946","7.53","0.615","4.117","0","0","30.6276","4.79401","21.96","2","SATNPRO1963","28.02","0.39248","5"],
    [4182,"HCEP03730564","2023-11-10 22:00:00","12.1469","3.56128","24.919","1.926","7.53","0.62","4.492","0","0","30.624","4.79351","21.73","2","SATNPRO1963","28.002000000000002","0.39218","5"],
    [4183,"HCEP03730564","2023-11-10 22:15:00","12.1458","3.56085","25.051","1.91","7.52","0.653","4.093","0.05","0.15","30.6207","4.79307","21.55","2","SATNPRO1963","28.105999999999998","0.39372","5"],
    [4184,"HCEP03730564","2023-11-10 22:30:00","12.1443","3.56022","25.079","1.895","7.52","0.65","4.231","0.01","0.03","30.616","4.79242","21.38","2","SATNPRO1963","27.708","0.38808","5"],
    [4185,"HCEP03730564","2023-11-10 22:45:00","12.143","3.55986","25.22","1.874","7.52","0.637","4.341","0","0","30.6135","4.79209","21.15","2","SATNPRO1963","27.733999999999998","0.38846","5"],
    [4186,"HCEP03730564","2023-11-10 23:00:00","12.1415","3.55942","25.23","1.857","7.51","0.637","4.341","0","0","30.6106","4.79171","20.95","0","SATNPRO1963","27.522","0.38544","5"],
    [4187,"HCEP03730564","2023-11-10 23:15:00","12.1373","3.55772","25.462","1.836","7.51","0.59","4.135","0","0","30.5976","4.78995","20.71","2","SATNPRO1963","27.23","0.3814","5"],
    [4188,"HCEP03730564","2023-11-10 23:30:00","12.1345","3.55683","25.501","1.815","7.51","0.622","3.808","0.02","0.01","30.5914","4.78911","20.47","2","SATNPRO1963","27.246","0.38162","5"],
    [4189,"HCEP03730564","2023-11-10 23:45:00","12.1321","3.5556","25.772","1.797","7.51","0.585","3.957","0","0","30.5815","4.78776","20.26","2","SATNPRO1963","27.232","0.38144","5"],
    [4190,"HCEP03730564","2023-11-11 00:00:00","12.1243","3.55265","25.83","1.783","7.51","0.588","3.465","0.05","0.11","30.5597","4.7848","20.1","2","SATNPRO1963","27.106","0.37966","5"],
    [4191,"HCEP03730564","2023-11-11 00:15:00","12.1256","3.55225","25.973","1.786","7.51","0.502","4.198","0.03","0.06","30.5547","4.78409","20.14","2","SATNPRO1963","27.004","0.3782","5"],
    [4192,"HCEP03730564","2023-11-11 00:30:00","12.1246","3.55208","26.102","1.817","7.51","0.624","4.25","0.08","0.18","30.5539","4.78399","20.48","2","SATNPRO1963","26.823999999999998","0.37572","5"],
    [4193,"HCEP03730564","2023-11-11 00:45:00","12.1239","3.55103","26.223","1.893","7.51","0.572","3.728","0","0","30.5445","4.78268","21.34","2","SATNPRO1963","26.728","0.37432","5"],
    [4194,"HCEP03730564","2023-11-11 01:00:00","12.1134","3.54715","26.368","1.947","7.51","0.628","3.392","0.04","0.05","30.5159","4.7788","21.94","2","SATNPRO1963","26.38","0.36948","5"],
    [4195,"HCEP03730564","2023-11-11 01:15:00","12.1182","3.54889","26.566","1.971","7.52","0.637","4.048","0.14","0.05","30.5286","4.78054","22.21","2","SATNPRO1963","26.268","0.36792","5"],
    [4196,"HCEP03730564","2023-11-11 01:30:00","12.1121","3.54613","26.654","2","7.52","0.635","3.849","0.06","0.21","30.507","4.77758","22.54","2","SATNPRO1963","26.669999999999998","0.37354","5"],
    [4197,"HCEP03730564","2023-11-11 01:45:00","12.1087","3.5437","26.793","2.01","7.52","0.639","3.815","0.09","0.07","30.4865","4.77475","22.64","2","SATNPRO1963","26.802","0.3754","5"],
    [4198,"HCEP03730564","2023-11-11 02:00:00","12.1038","3.5425","26.987","2.033","7.52","0.754","4.262","0.11","0.23","30.4791","4.77377","22.9","2","SATNPRO1963","26.726","0.37434","5"],
    [4199,"HCEP03730564","2023-11-11 02:15:00","12.0911","3.53566","27.224","2.158","7.53","0.644","5.313","0.08","0.29","30.424","4.76619","24.29","2","SATNPRO1963","26.464","0.3707","5"],
    [4200,"HCEP03730564","2023-11-11 02:30:00","12.064","3.52023","27.147","2.31","7.54","0.687","5.318","0.07","0.42","30.2986","4.74886","25.97","2","SATNPRO1963","26.412","0.36992","5"],
    [4201,"HCEP03730564","2023-11-11 02:45:00","12.0861","3.53416","27.332","2.247","7.54","0.669","6.42","0.05","0.44","30.4137","4.76481","25.28","2","SATNPRO1963","26.124","0.36594","5"],
    [4202,"HCEP03730564","2023-11-11 03:00:00","12.0706","3.52607","27.495","2.277","7.54","0.718","6.408","0.08","0.55","30.349","4.75589","25.6","2","SATNPRO1963","25.806","0.36142","5"],
    [4203,"HCEP03730564","2023-11-11 03:15:00","12.0587","3.52144","27.62","2.421","7.54","0.76","6.094","0.06","0.35","30.3143","4.75117","27.21","2","SATNPRO1963","25.64","0.35912","5"],
    [4204,"HCEP03730564","2023-11-11 03:30:00","12.0468","3.51421","27.716","2.59","7.54","0.874","4.973","0.16","0.34","30.2547","4.74292","29.1","2","SATNPRO1963","24.95","0.34942","5"],
    [4205,"HCEP03730564","2023-11-11 03:45:00","12.0443","3.51314","27.734","2.572","7.56","0.796","6.26","0.11","0.37","30.2467","4.74182","28.89","2","SATNPRO1963","25.25","0.35364","5"],
    [4206,"HCEP03730564","2023-11-11 04:00:00","12.0554","3.5189","27.692","2.479","7.55","0.739","6.184","0.01","0.15","30.2926","4.74816","27.86","2","SATNPRO1963","25.082","0.35132","5"],
    [4207,"HCEP03730564","2023-11-11 04:15:00","12.0486","3.51547","27.744","2.506","7.55","0.881","6.434","0.12","0.27","30.2654","4.74441","28.15","2","SATNPRO1963","24.912","0.34894","5"],
    [4208,"HCEP03730564","2023-11-11 04:30:00","11.6973","3.37184","27.678","4.171","7.61","1.571","7.648","0.05","0.4","29.171","4.59413","46.21","2","SATNPRO1963","24.876","0.34846","5"],
    [4209,"HCEP03730564","2023-11-11 04:45:00","11.7257","3.38151","27.661","5.235","7.71","2.102","6.185","0.12","0","29.2412","4.60373","58.04","2","SATNPRO1963","24.71","0.3461","5"],
    [4210,"HCEP03730564","2023-11-11 05:00:00","11.6597","3.34991","27.602","5.62","7.74","1.986","5.163","0.11","0.29","28.9902","4.56893","62.12","2","SATNPRO1963","24.695999999999998","0.34594","5"],
    [4211,"HCEP03730564","2023-11-11 05:15:00","11.8969","3.45719","27.498","4.539","7.72","1.097","4.831","0","0","29.8304","4.68494","50.68","2","SATNPRO1963","24.636","0.3451","5"],
    [4212,"HCEP03730564","2023-11-11 05:30:00","11.7711","3.40795","27.404","4.711","7.7","1.092","5.003","0.2","0.27","29.459","4.63401","52.35","2","SATNPRO1963","20.588","0.28838","5"],
    [4213,"HCEP03730564","2023-11-11 05:45:00","11.9077","3.45883","27.31","4.137","7.69","1.092","5.003","0.2","0.27","29.8374","4.68578","46.21","0","SATNPRO1963","21.326","0.2987","5"],
    [4214,"HCEP03730564","2023-11-11 06:00:00","11.5913","3.34216","27.22","5.206","7.71","2.059","5.679","0.34","0.43","28.9693","4.56688","57.46","2","SATNPRO1963","20.314","0.28454","5"],
    [4215,"HCEP03730564","2023-11-11 06:15:00","11.6231","3.35964","27.12","5.872","7.78","1.839","6.321","0.19","0.39","29.1124","4.58679","64.9","2","SATNPRO1963","21.764","0.30482","5"],
    [4216,"HCEP03730564","2023-11-11 06:30:00","11.6564","3.37133","27.067","5.677","7.78","2.271","7.571","0.17","0.65","29.1985","4.59857","62.83","2","SATNPRO1963","22.36","0.31322","5"],
    [4217,"HCEP03730564","2023-11-11 06:45:00","11.7814","3.41837","27.02","4.832","7.75","1.38","5.72","0.21","0.63","29.5508","4.64687","53.74","2","SATNPRO1963","23.846","0.33402","5"],
    [4218,"HCEP03730564","2023-11-11 07:00:00","11.8433","3.43797","26.959","4.29","7.72","1.693","6.591","0.38","1.13","29.6893","4.66566","47.81","2","SATNPRO1963","21.96","0.3076","5"],
    [4219,"HCEP03730564","2023-11-11 07:15:00","12.0605","3.52471","26.85","2.595","7.65","0.721","5.69","0.05","0.38","30.3443","4.75534","29.17","2","SATNPRO1963","22.652","0.3173","5"],
    [4220,"HCEP03730564","2023-11-11 07:30:00","12.0464","3.51801","26.801","2.099","7.59","0.912","5.017","0.1","0.35","30.2918","4.74811","23.59","2","SATNPRO1963","22.978","0.32184","5"],
    [4221,"HCEP03730564","2023-11-11 07:45:00","12.0379","3.51394","26.698","2.029","7.55","0.68","4.431","0.09","0.27","30.2598","4.7437","22.79","2","SATNPRO1963","23.126","0.32392","5"],
    [4222,"HCEP03730564","2023-11-11 08:00:00","12.0241","3.50915","26.632","2.05","7.54","0.723","4.593","0","0","30.2253","4.73901","23.02","2","SATNPRO1963","23.438","0.3283","5"],
    [4223,"HCEP03730564","2023-11-11 08:15:00","12.0247","3.50715","26.515","2.171","7.54","0.996","6.183","0.03","0.09","30.2057","4.73623","24.37","2","SATNPRO1963","23.972","0.3358","5"],
    [4224,"HCEP03730564","2023-11-11 08:30:00","11.9133","3.45913","26.422","3.135","7.56","0.906","4.877","0.22","0.57","29.8361","4.68548","35.03","2","SATNPRO1963","22.896","0.3207","5"],
    [4225,"HCEP03730564","2023-11-11 08:45:00","11.8965","3.46045","26.369","3.616","7.59","0.979","4.581","0.12","0.5","29.8623","4.68941","40.4","2","SATNPRO1963","21.71","0.30408","5"],
    [4226,"HCEP03730564","2023-11-11 09:00:00","11.7789","3.4038","26.343","4.318","7.63","1.229","2.596","0.28","0.08","29.4134","4.62738","47.97","2","SATNPRO1963","21.404","0.29978","5"],
    [4227,"HCEP03730564","2023-11-11 09:15:00","11.88","3.4494","26.368","4.095","7.65","1.151","3.45","0.05","0.52","29.7697","4.67652","45.7","2","SATNPRO1963","22.477999999999998","0.31488","5"],
    [4228,"HCEP03730564","2023-11-11 09:30:00","11.9576","3.47754","26.296","3.089","7.62","1.054","4.964","0.12","0.11","29.9768","4.70477","34.57","2","SATNPRO1963","22.272000000000002","0.31194","5"],
    [4229,"HCEP03730564","2023-11-11 09:45:00","11.9093","3.4612","26.363","3.074","7.6","1.09","4.813","0.22","0.11","29.8592","4.68879","34.34","2","SATNPRO1963","22.49","0.31498","5"],
    [4230,"HCEP03730564","2023-11-11 10:00:00","11.9489","3.47456","26.257","2.895","7.59","1.143","5.443","0.17","0.54","29.9553","4.70185","32.39","2","SATNPRO1963","21.728","0.30434","5"],
    [4231,"HCEP03730564","2023-11-11 10:15:00","11.7723","3.40514","26.19","3.872","7.61","1.355","4.114","0.09","1.19","29.4316","4.63004","43.04","2","SATNPRO1963","21.138","0.29608","5"],
    [4232,"HCEP03730564","2023-11-11 10:30:00","11.8376","3.43109","26.295","3.48","7.62","1.526","4.244","0.57","0.29","29.6282","4.65704","38.77","2","SATNPRO1963","20.876","0.29242","5"],
    [4233,"HCEP03730564","2023-11-11 10:45:00","11.9116","3.45779","26.371","3.262","7.62","1.104","4.868","0.42","0.3","29.8247","4.68388","36.44","2","SATNPRO1963","21.214","0.29712","5"],
    [4234,"HCEP03730564","2023-11-11 11:00:00","11.9084","3.45622","26.472","3.116","7.61","1.104","4.868","0.42","0.3","29.8122","4.68216","34.81","0","SATNPRO1963","20.542","0.28772","5"],
    [4235,"HCEP03730564","2023-11-11 11:15:00","11.8556","3.43463","26.544","3.42","7.61","1.373","3.696","0","0","29.6477","4.65958","38.12","2","SATNPRO1963","20.422","0.28606","5"],
    [4236,"HCEP03730564","2023-11-11 11:30:00","11.7224","3.38407","26.637","4.396","7.64","1.61","2.436","0.33","0.29","29.2689","4.60764","48.75","2","SATNPRO1963","20.09","0.2814","5"],
    [4237,"HCEP03730564","2023-11-11 11:45:00","11.6644","3.36297","26.728","5.379","7.73","1.295","2.486","0","0","29.1121","4.58616","59.51","2","SATNPRO1963","20.288","0.2842","5"],
    [4238,"HCEP03730564","2023-11-11 12:00:00","11.6323","3.35119","26.852","5.644","7.75","1.923","1.733","0.16","0.17","29.0241","4.57409","62.36","2","SATNPRO1963","20.38","0.28546","5"],
    [4239,"HCEP03730564","2023-11-11 12:15:00","11.6088","3.3432","26.921","5.847","7.77","1.802","1.635","0.3","0.17","28.9658","4.56612","64.55","2","SATNPRO1963","20.233999999999998","0.28342","5"],
    [4240,"HCEP03730564","2023-11-11 12:30:00","11.5968","3.33869","27.092","5.987","7.78","1.993","1.981","0.33","0.25","28.9318","4.56146","66.06","2","SATNPRO1963","20.038","0.28066","5"],
    [4241,"HCEP03730564","2023-11-11 12:45:00","11.5937","3.33819","27.22","5.989","7.79","2.29","5.233","0.32","1.52","28.9293","4.56114","66.08","2","SATNPRO1963","20.462","0.2866","5"],
    [4242,"HCEP03730564","2023-11-11 13:00:00","11.6696","3.36675","27.262","5.311","7.77","1.638","5.942","0.23","0.19","29.1441","4.59066","58.78","2","SATNPRO1963","20.652","0.28926","5"],
    [4243,"HCEP03730564","2023-11-11 13:15:00","11.981","3.48859","27.361","2.611","7.67","0.933","5.467","0.12","0.14","30.0633","4.71674","29.26","2","SATNPRO1963","21.24","0.2975","5"],
    [4244,"HCEP03730564","2023-11-11 13:30:00","11.9806","3.48844","27.493","2.356","7.6","0.836","4.516","0.07","0.08","30.0621","4.71659","26.4","2","SATNPRO1963","21.118","0.29578","5"],
    [4245,"HCEP03730564","2023-11-11 13:45:00","11.9522","3.47501","27.575","2.508","7.57","0.852","3.837","0.19","0.08","29.9564","4.70204","28.06","2","SATNPRO1963","20.69","0.2898","5"],
    [4246,"HCEP03730564","2023-11-11 14:00:00","11.9692","3.4848","27.657","2.471","7.56","0.951","3.84","0.09","0.43","30.0364","4.71312","27.67","2","SATNPRO1963","20.746","0.29058","5"],
    [4247,"HCEP03730564","2023-11-11 14:15:00","11.9785","3.48814","27.73","2.333","7.55","0.912","4.561","0","0","30.0608","4.71645","26.14","2","SATNPRO1963","20.46","0.2866","5"],
    [4248,"HCEP03730564","2023-11-11 14:30:00","11.9776","3.48788","27.781","2.3","7.54","0.912","4.561","0","0","30.059","4.71621","25.77","0","SATNPRO1963","20.62","0.28882","5"],
    [4249,"HCEP03730564","2023-11-11 14:45:00","11.977","3.48773","27.823","2.311","7.54","0.912","4.561","0","0","30.0581","4.71609","25.89","0","SATNPRO1963","20.624","0.28888","5"],
    [4250,"HCEP03730564","2023-11-11 15:00:00","11.976","3.4872","27.845","2.309","7.53","0.912","4.561","0","0","30.0537","4.71549","25.87","0","SATNPRO1963","20.604","0.28856","5"],
    [4251,"HCEP03730564","2023-11-11 15:15:00","11.9614","3.48019","27.834","2.378","7.53","0.912","4.561","0","0","29.9984","4.70786","26.62","0","SATNPRO1963","20.3","0.28432","5"],
    [4252,"HCEP03730564","2023-11-11 15:30:00","11.9684","3.48402","27.824","2.379","7.53","0.912","4.561","0","0","30.0295","4.71216","26.65","0","SATNPRO1963","20.402","0.28576","5"],
    [4253,"HCEP03730564","2023-11-11 15:45:00","11.9664","3.48331","27.801","2.346","7.53","0.912","4.561","0","0","30.0243","4.71146","26.27","0","SATNPRO1963","20.37","0.28534","5"],
    [4254,"HCEP03730564","2023-11-11 16:00:00","11.9448","3.47389","27.751","2.457","7.54","0.912","4.561","0","0","29.9516","4.70146","27.48","0","SATNPRO1963","20.326","0.28472","5"],
    [4255,"HCEP03730564","2023-11-11 16:15:00","11.9127","3.46019","27.673","2.772","7.54","0.912","4.561","0","0","29.8464","4.687","30.97","0","SATNPRO1963","20.416","0.28594","5"],
    [4256,"HCEP03730564","2023-11-11 16:30:00","11.9522","3.4771","27.602","2.526","7.54","0.912","4.561","0","0","29.9764","4.70487","28.26","0","SATNPRO1963","20.444","0.28636","5"],
    [4257,"HCEP03730564","2023-11-11 16:45:00","11.9415","3.47214","27.477","2.425","7.54","0.912","4.561","0","0","29.9376","4.69951","27.13","0","SATNPRO1963","19.868","0.27826","5"],
    [4258,"HCEP03730564","2023-11-11 17:00:00","11.9374","3.47114","27.355","2.531","7.54","0.912","4.561","0","0","29.9313","4.69867","28.31","0","SATNPRO1963","19.862","0.27822","5"],
    [4259,"HCEP03730564","2023-11-11 17:15:00","11.9834","3.49462","27.22","3.015","7.55","0.912","4.561","0","0","30.119","4.72458","33.79","0","SATNPRO1963","20.068","0.28108","5"],
    [4260,"HCEP03730564","2023-11-11 17:30:00","12.0081","3.50368","27.079","3.091","7.57","0.912","4.561","0","0","30.1857","4.73367","34.68","0","SATNPRO1963","19.792","0.27722","5"],
    [4261,"HCEP03730564","2023-11-11 17:45:00","12.0271","3.51265","26.902","3.137","7.58","0.912","4.561","0","0","30.2562","4.74335","35.22","0","SATNPRO1963","19.514","0.27332","5"],
    [4262,"HCEP03730564","2023-11-11 18:00:00","12.032","3.51504","26.704","3.196","7.59","0.912","4.561","0","0","30.2752","4.74595","35.89","0","SATNPRO1963","19.736","0.2764","5"],
    [4263,"HCEP03730564","2023-11-11 18:15:00","12.0377","3.51721","26.51","3.199","7.59","0.912","4.561","0","0","30.2914","4.74816","35.94","0","SATNPRO1963","25.384","0.3555","5"],
    [4264,"HCEP03730564","2023-11-11 18:30:00","12.025","3.51204","26.286","3.282","7.6","0.912","4.561","0","0","30.2522","4.74279","36.85","0","SATNPRO1963","25.538","0.35766","5"],
    [4265,"HCEP03730564","2023-11-11 18:45:00","12.0231","3.51162","26.078","3.313","7.6","1.177","3.027","0.2","0.02","30.2499","4.74247","37.2","2","SATNPRO1963","26.532","0.37164","5"],
    [4266,"HCEP03730564","2023-11-11 19:00:00","12.0056","3.50317","25.889","3.385","7.61","1.177","3.027","0.2","0.02","30.1833","4.73329","37.97","0","SATNPRO1963","26.538","0.37172","5"],
    [4267,"HCEP03730564","2023-11-11 19:15:00","11.9898","3.49558","25.669","3.451","7.62","1.177","3.027","0.2","0.02","30.1236","4.72505","38.69","0","SATNPRO1963","26.914","0.37698","5"],
    [4268,"HCEP03730564","2023-11-11 19:30:00","11.991","3.49769","25.442","3.413","7.62","1.177","3.027","0.2","0.02","30.1429","4.72775","38.27","0","SATNPRO1963","26.522","0.3715","5"],
    [4269,"HCEP03730564","2023-11-11 19:45:00","11.9853","3.49564","25.236","3.409","7.62","1.177","3.027","0.2","0.02","30.128","4.72572","38.22","0","SATNPRO1963","26.554","0.37194","5"],
    [4270,"HCEP03730564","2023-11-11 20:00:00","11.989","3.49796","25.078","3.355","7.62","1.177","3.027","0.2","0.02","30.1472","4.72838","37.62","0","SATNPRO1963","26.198","0.36692","5"],
    [4271,"HCEP03730564","2023-11-11 20:15:00","11.984","3.49534","24.893","3.304","7.61","1.177","3.027","0.2","0.02","30.1263","4.72548","37.03","0","SATNPRO1963","25.89","0.3626","5"],
    [4272,"HCEP03730564","2023-11-11 20:30:00","11.9783","3.49256","24.759","3.293","7.6","1.177","3.027","0.2","0.02","30.1043","4.72244","36.9","0","SATNPRO1963","25.862","0.36222","5"],
    [4273,"HCEP03730564","2023-11-11 20:45:00","11.9662","3.48794","24.628","3.355","7.61","1.177","3.027","0.2","0.02","30.07","4.71774","37.58","0","SATNPRO1963","25.534","0.35764","5"],
    [4274,"HCEP03730564","2023-11-11 21:00:00","11.943","3.47872","24.566","3.472","7.61","1.177","3.027","0.2","0.02","30.0005","4.70824","38.85","0","SATNPRO1963","25.669999999999998","0.35952","5"],
    [4275,"HCEP03730564","2023-11-11 21:15:00","11.9233","3.47005","24.512","3.663","7.63","1.177","3.027","0.2","0.02","29.9334","4.699","40.96","0","SATNPRO1963","25.2","0.35298","5"],
    [4276,"HCEP03730564","2023-11-11 21:30:00","11.9093","3.46451","24.547","3.731","7.63","1.177","3.027","0.2","0.02","29.8915","4.69327","41.69","0","SATNPRO1963","25.186","0.35278","5"],
    [4277,"HCEP03730564","2023-11-11 21:45:00","11.8907","3.45724","24.609","3.839","7.64","1.33","3.575","0.11","0.37","29.8369","4.68579","42.87","2","SATNPRO1963","24.884","0.34856","5"],
    [4278,"HCEP03730564","2023-11-11 22:00:00","11.8916","3.45817","24.616","3.825","7.64","1.33","3.575","0.11","0.37","29.8451","4.68694","42.71","0","SATNPRO1963","24.672","0.34556","5"],
    [4279,"HCEP03730564","2023-11-11 22:15:00","11.8927","3.45855","24.668","3.809","7.64","1.33","3.575","0.11","0.37","29.8478","4.68731","42.54","0","SATNPRO1963","24.454","0.3425","5"],
    [4280,"HCEP03730564","2023-11-11 22:30:00","11.8867","3.45595","24.712","3.817","7.63","1.33","3.575","0.11","0.37","29.8277","4.68455","42.61","0","SATNPRO1963","24.148","0.33822","5"],
    [4281,"HCEP03730564","2023-11-11 22:45:00","11.8713","3.44996","24.829","3.909","7.64","1.33","3.575","0.11","0.37","29.7826","4.67838","43.62","0","SATNPRO1963","23.898","0.33476","5"],
    [4282,"HCEP03730564","2023-11-11 23:00:00","11.8705","3.45001","24.929","3.961","7.64","1.33","3.575","0.11","0.37","29.7836","4.67854","44.2","0","SATNPRO1963","23.672","0.33154","5"],
    [4283,"HCEP03730564","2023-11-11 23:15:00","11.8704","3.44767","25.043","3.915","7.64","1.33","3.575","0.11","0.37","29.7613","4.67539","43.68","0","SATNPRO1963","23.76","0.33278","5"],
    [4284,"HCEP03730564","2023-11-11 23:30:00","11.883","3.45189","25.162","3.798","7.63","1.33","3.575","0.11","0.37","29.7916","4.67952","42.39","0","SATNPRO1963","23.836","0.33384","5"],
    [4285,"HCEP03730564","2023-11-11 23:45:00","11.8897","3.45667","25.32","3.698","7.63","1.33","3.575","0.11","0.37","29.832","4.68515","41.29","0","SATNPRO1963","23.184","0.32474","5"],
    [4286,"HCEP03730564","2023-11-12 00:00:00","11.9139","3.46833","25.422","3.567","7.63","1.33","3.575","0.11","0.37","29.9241","4.69786","39.88","0","SATNPRO1963","23.37","0.32736","5"],
    [4287,"HCEP03730564","2023-11-12 00:15:00","11.9521","3.48247","25.63","3.24","7.62","1.33","3.575","0.11","0.37","30.0286","4.71214","36.27","0","SATNPRO1963","23.21","0.3251","5"],
    [4288,"HCEP03730564","2023-11-12 00:30:00","11.9726","3.49142","25.766","3.068","7.59","1.33","3.575","0.11","0.37","30.0977","4.72163","34.38","0","SATNPRO1963","23.288","0.32622","5"],
    [4289,"HCEP03730564","2023-11-12 00:45:00","11.9885","3.49787","25.902","3.089","7.58","1.33","3.575","0.11","0.37","30.1464","4.72831","34.63","0","SATNPRO1963","23.082","0.32328","5"],
    [4290,"HCEP03730564","2023-11-12 01:00:00","12.002","3.50333","26.023","3.093","7.58","1.33","3.575","0.11","0.37","30.1878","4.73398","34.7","0","SATNPRO1963","23.812","0.33348","5"],
    [4291,"HCEP03730564","2023-11-12 01:15:00","12.0233","3.51226","26.227","2.992","7.58","1.33","3.575","0.11","0.37","30.2558","4.74331","33.59","0","SATNPRO1963","23.768","0.33292","5"],
    [4292,"HCEP03730564","2023-11-12 01:30:00","12.0272","3.51344","26.37","3.01","7.57","1.33","3.575","0.11","0.37","30.2639","4.74441","33.8","0","SATNPRO1963","24.31","0.3405","5"],
    [4293,"HCEP03730564","2023-11-12 01:45:00","12.0415","3.51963","26.529","2.948","7.57","1.33","3.575","0.11","0.37","30.3114","4.75093","33.12","0","SATNPRO1963","25.262","0.35384","5"],
    [4294,"HCEP03730564","2023-11-12 02:00:00","12.044","3.52066","26.769","2.909","7.57","1.33","3.575","0.11","0.37","30.3191","4.752","32.69","0","SATNPRO1963","25.564","0.35804","5"],
    [4295,"HCEP03730564","2023-11-12 02:15:00","12.0478","3.52185","26.913","2.909","7.58","1.33","3.575","0.11","0.37","30.3273","4.75311","32.7","0","SATNPRO1963","25.81","0.36152","5"],
    [4296,"HCEP03730564","2023-11-12 02:30:00","12.0512","3.52318","27.107","2.936","7.58","1.33","3.575","0.11","0.37","30.3372","4.75448","33","0","SATNPRO1963","26.242","0.36756","5"],
    [4297,"HCEP03730564","2023-11-12 02:45:00","12.049","3.52251","27.236","2.915","7.58","1.33","3.575","0.11","0.37","30.3325","4.75385","32.76","0","SATNPRO1963","26.306","0.36844","5"],
    [4298,"HCEP03730564","2023-11-12 03:00:00","12.0428","3.52017","27.36","2.901","7.58","1.33","3.575","0.11","0.37","30.3151","4.75149","32.6","0","SATNPRO1963","26.216","0.36722","5"],
    [4299,"HCEP03730564","2023-11-12 03:15:00","12.0385","3.51869","27.492","2.881","7.58","1.33","3.575","0.11","0.37","30.3044","4.75004","32.37","0","SATNPRO1963","26.578","0.37228","5"],
    [4300,"HCEP03730564","2023-11-12 03:30:00","12.036","3.51739","27.602","2.851","7.58","1.33","3.575","0.11","0.37","30.294","4.7486","32.03","0","SATNPRO1963","26.706","0.3741","5"],
    [4301,"HCEP03730564","2023-11-12 03:45:00","12.0144","3.50899","27.679","2.976","7.58","1.33","3.575","0.11","0.37","30.2311","4.74002","33.4","0","SATNPRO1963","26.488","0.37104","5"],
    [4302,"HCEP03730564","2023-11-12 04:00:00","12.015","3.50883","27.785","3.053","7.58","1.33","3.575","0.11","0.37","30.2291","4.73974","34.26","0","SATNPRO1963","26.204","0.36704","5"],
    [4303,"HCEP03730564","2023-11-12 04:15:00","12.0182","3.51006","27.787","3.056","7.58","1.33","3.575","0.11","0.37","30.2383","4.74099","34.31","0","SATNPRO1963","26.03","0.3646","5"],
    [4304,"HCEP03730564","2023-11-12 04:30:00","12.0311","3.51489","27.832","3.067","7.58","1.33","3.575","0.11","0.37","30.2739","4.74585","34.44","0","SATNPRO1963","25.918","0.36304","5"],
    [4305,"HCEP03730564","2023-11-12 04:45:00","12.0333","3.51591","27.813","3.038","7.58","1.33","3.575","0.11","0.37","30.282","4.74696","34.13","0","SATNPRO1963","25.846","0.36198","5"],
    [4306,"HCEP03730564","2023-11-12 05:00:00","12.0333","3.51609","27.746","3.032","7.58","1.33","3.575","0.11","0.37","30.2837","4.7472","34.05","0","SATNPRO1963","25.858","0.36222","5"],
    [4307,"HCEP03730564","2023-11-12 05:15:00","12.0376","3.51756","27.761","3.039","7.58","1.33","3.575","0.11","0.37","30.2943","4.74864","34.14","0","SATNPRO1963","26.226","0.36736","5"],
    [4308,"HCEP03730564","2023-11-12 05:30:00","12.0495","3.52267","27.671","3.027","7.58","1.33","3.575","0.11","0.37","30.3334","4.754","34.02","0","SATNPRO1963","26.34","0.36896","5"],
    [4309,"HCEP03730564","2023-11-12 05:45:00","12.0722","3.53294","27.676","2.963","7.57","1.33","3.575","0.11","0.37","30.4132","4.76495","33.33","0","SATNPRO1963","26.432","0.3702","5"],
    [4310,"HCEP03730564","2023-11-12 06:00:00","12.0867","3.5394","27.593","2.938","7.57","1.33","3.575","0.11","0.37","30.4632","4.7718","33.07","0","SATNPRO1963","26.486","0.371","5"],
    [4311,"HCEP03730564","2023-11-12 06:15:00","12.1036","3.5468","27.535","2.935","7.58","1.33","3.575","0.11","0.37","30.5201","4.77959","33.06","0","SATNPRO1963","26.59","0.37244","5"],
    [4312,"HCEP03730564","2023-11-12 06:30:00","12.1185","3.5519","27.459","2.936","7.58","1.33","3.575","0.11","0.37","30.5567","4.78454","33.1","0","SATNPRO1963","26.822","0.37568","5"],
    [4313,"HCEP03730564","2023-11-12 06:45:00","12.1232","3.55397","27.295","2.913","7.58","1.33","3.575","0.11","0.37","30.5726","4.78672","32.84","0","SATNPRO1963","27.298","0.38234","5"],
    [4314,"HCEP03730564","2023-11-12 07:00:00","12.1262","3.55518","27.28","2.896","7.58","1.33","3.575","0.11","0.37","30.5818","4.78797","32.65","0","SATNPRO1963","27.746","0.38866","5"],
    [4315,"HCEP03730564","2023-11-12 07:15:00","12.1315","3.55734","27.108","2.893","7.59","1.33","3.575","0.11","0.37","30.5981","4.79019","32.62","0","SATNPRO1963","28.244","0.39562","5"],
    [4316,"HCEP03730564","2023-11-12 07:30:00","12.1356","3.55891","27.068","2.888","7.59","1.33","3.575","0.11","0.37","30.6098","4.79178","32.57","0","SATNPRO1963","28.572","0.4002","5"],
    [4317,"HCEP03730564","2023-11-12 07:45:00","12.1406","3.56071","26.969","2.891","7.59","1.33","3.575","0.11","0.37","30.623","4.79356","32.62","0","SATNPRO1963","28.808","0.40348","5"],
    [4318,"HCEP03730564","2023-11-12 08:00:00","12.1407","3.56088","26.846","2.895","7.59","1.33","3.575","0.11","0.37","30.6245","4.79377","32.66","0","SATNPRO1963","28.84","0.40396","5"],
    [4319,"HCEP03730564","2023-11-12 08:15:00","12.1443","3.56257","26.728","2.863","7.59","1.33","3.575","0.11","0.37","30.6377","4.79557","32.3","0","SATNPRO1963","29.218","0.40926","5"],
    [4320,"HCEP03730564","2023-11-12 08:30:00","12.148","3.56409","26.651","2.851","7.59","1.33","3.575","0.11","0.37","30.6492","4.79715","32.17","0","SATNPRO1963","29.132","0.40808","5"],
    [4321,"HCEP03730564","2023-11-12 08:45:00","12.1469","3.56383","26.607","2.849","7.59","1.33","3.575","0.11","0.37","30.6476","4.79694","32.15","0","SATNPRO1963","29.233999999999998","0.40946","5"],
    [4322,"HCEP03730564","2023-11-12 09:00:00","12.1459","3.56345","26.504","2.837","7.59","1.33","3.575","0.11","0.37","30.6449","4.79656","32.01","0","SATNPRO1963","29.144000000000002","0.4082","5"],
    [4323,"HCEP03730564","2023-11-12 09:15:00","12.1335","3.55871","26.447","2.841","7.59","1.33","3.575","0.11","0.37","30.6098","4.79178","32.04","0","SATNPRO1963","29.216","0.40918","5"],
    [4324,"HCEP03730564","2023-11-12 09:30:00","12.1003","3.54634","26.416","2.896","7.58","1.33","3.575","0.11","0.37","30.5188","4.7794","32.62","0","SATNPRO1963","29.32","0.41066","5"],
    [4325,"HCEP03730564","2023-11-12 09:45:00","12.1011","3.54882","26.385","2.894","7.58","1.33","3.575","0.11","0.37","30.5419","4.78264","32.61","0","SATNPRO1963","29.242","0.4096","5"],
    [4326,"HCEP03730564","2023-11-12 10:00:00","12.1458","3.56447","26.348","2.788","7.58","1.33","3.575","0.11","0.37","30.6548","4.79794","31.46","0","SATNPRO1963","29.272000000000002","0.41","5"],
    [4327,"HCEP03730564","2023-11-12 10:15:00","12.1562","3.56813","26.4","2.756","7.58","1.33","3.575","0.11","0.37","30.6812","4.80152","31.12","0","SATNPRO1963","28.868","0.4043","5"],
    [4328,"HCEP03730564","2023-11-12 10:30:00","12.1625","3.57002","26.45","2.77","7.58","1.33","3.575","0.11","0.37","30.694","4.80325","31.28","0","SATNPRO1963","28.2","0.39498","5"],
    [4329,"HCEP03730564","2023-11-12 10:45:00","12.1635","3.57044","26.468","2.783","7.58","1.33","3.575","0.11","0.37","30.6972","4.80369","31.43","0","SATNPRO1963","28.31","0.39654","5"],
    [4330,"HCEP03730564","2023-11-12 11:00:00","12.1615","3.56869","26.58","2.797","7.58","1.33","3.575","0.11","0.37","30.6821","4.80159","31.58","0","SATNPRO1963","28.958","0.4056","5"],
    [4331,"HCEP03730564","2023-11-12 11:15:00","12.1489","3.56512","26.668","2.802","7.57","1.33","3.575","0.11","0.37","30.6584","4.79842","31.62","0","SATNPRO1963","29.502","0.41326","5"],
    [4332,"HCEP03730564","2023-11-12 11:30:00","12.1509","3.56614","26.774","2.758","7.57","1.33","3.575","0.11","0.37","30.6665","4.79954","31.13","0","SATNPRO1963","29.62","0.4149","5"],
    [4333,"HCEP03730564","2023-11-12 11:45:00","12.1391","3.56166","26.849","2.732","7.57","1.33","3.575","0.11","0.37","30.6333","4.79503","30.82","0","SATNPRO1963","29.552","0.41396","5"],
    [4334,"HCEP03730564","2023-11-12 12:00:00","12.1329","3.55832","26.927","2.765","7.57","1.33","3.575","0.11","0.37","30.6064","4.79132","31.18","0","SATNPRO1963","29.548000000000002","0.41386","5"],
    [4335,"HCEP03730564","2023-11-12 12:15:00","12.1384","3.55927","26.956","2.881","7.57","1.33","3.575","0.11","0.37","30.6109","4.79189","32.5","0","SATNPRO1963","29.188","0.40882","5"],
    [4336,"HCEP03730564","2023-11-12 12:30:00","12.1397","3.56002","27.026","2.913","7.58","1.33","3.575","0.11","0.37","30.617","4.79274","32.86","0","SATNPRO1963","29.092","0.4075","5"],
    [4337,"HCEP03730564","2023-11-12 12:45:00","12.139","3.55974","27.115","2.907","7.58","1.33","3.575","0.11","0.37","30.615","4.79246","32.79","0","SATNPRO1963","28.7","0.402","5"],
    [4338,"HCEP03730564","2023-11-12 13:00:00","12.1447","3.56161","27.2","2.929","7.58","1.33","3.575","0.11","0.37","30.6281","4.79424","33.05","0","SATNPRO1963","28.826","0.40374","5"],
    [4339,"HCEP03730564","2023-11-12 13:15:00","12.1471","3.5624","27.345","2.932","7.58","1.33","3.575","0.11","0.37","30.6336","4.79499","33.08","0","SATNPRO1963","29.322","0.41074","5"],
    [4340,"HCEP03730564","2023-11-12 13:30:00","12.1499","3.56358","27.431","2.922","7.58","1.33","3.575","0.11","0.37","30.6426","4.79623","32.98","0","SATNPRO1963","29.476","0.41284","5"],
    [4341,"HCEP03730564","2023-11-12 13:45:00","12.152","3.56441","27.525","2.906","7.58","1.33","3.575","0.11","0.37","30.6486","4.79706","32.79","0","SATNPRO1963","29.412","0.412","5"],
    [4342,"HCEP03730564","2023-11-12 14:00:00","12.1577","3.5663","27.633","2.9","7.58","1.33","3.575","0.11","0.37","30.662","4.79887","32.74","0","SATNPRO1963","29.72","0.4163","5"],
    [4343,"HCEP03730564","2023-11-12 14:15:00","12.1623","3.5679","27.7","2.896","7.58","1.33","3.575","0.11","0.37","30.6736","4.80044","32.69","0","SATNPRO1963","29.724","0.41634","5"],
    [4344,"HCEP03730564","2023-11-12 14:30:00","12.1655","3.56916","27.764","2.887","7.58","1.33","3.575","0.11","0.37","30.6829","4.80172","32.6","0","SATNPRO1963","29.636","0.41504","5"],
    [4345,"HCEP03730564","2023-11-12 14:45:00","12.1686","3.57032","27.828","2.885","7.58","1.33","3.575","0.11","0.37","30.6914","4.80287","32.58","0","SATNPRO1963","29.64","0.41516","5"],
    [4346,"HCEP03730564","2023-11-12 15:00:00","12.1694","3.57078","27.883","2.867","7.58","1.33","3.575","0.11","0.37","30.6951","4.80338","32.38","0","SATNPRO1963","29.914","0.419","5"],
    [4347,"HCEP03730564","2023-11-12 15:15:00","12.1716","3.57157","27.897","2.864","7.58","1.33","3.575","0.11","0.37","30.7009","4.80417","32.35","0","SATNPRO1963","30.194","0.42296","5"],
    [4348,"HCEP03730564","2023-11-12 15:30:00","12.1718","3.57187","27.88","2.854","7.58","1.33","3.575","0.11","0.37","30.7035","4.80453","32.24","0","SATNPRO1963","30.248","0.42366","5"],
    [4349,"HCEP03730564","2023-11-12 15:45:00","12.1725","3.57232","27.891","2.839","7.58","1.33","3.575","0.11","0.37","30.7073","4.80506","32.06","0","SATNPRO1963","30.355999999999998","0.42518","5"],
    [4350,"HCEP03730564","2023-11-12 16:00:00","12.1726","3.57247","27.833","2.819","7.58","1.33","3.575","0.11","0.37","30.7086","4.80524","31.85","0","SATNPRO1963","30.11","0.42174","5"],
    [4351,"HCEP03730564","2023-11-12 16:15:00","12.1728","3.57268","27.779","2.8","7.58","1.33","3.575","0.11","0.37","30.7105","4.80551","31.63","0","SATNPRO1963","30.262","0.42386","5"],
    [4352,"HCEP03730564","2023-11-12 16:30:00","12.173400000000001","3.57287","27.718","2.796","7.58","1.33","3.575","0.11","0.37","30.7118","4.80568","31.58","0","SATNPRO1963","30.2","0.423","5"],
    [4353,"HCEP03730564","2023-11-12 16:45:00","12.1746","3.57344","27.648","2.792","7.58","1.33","3.575","0.11","0.37","30.7164","4.8063","31.54","0","SATNPRO1963","30.278000000000002","0.4241","5"],
    [4354,"HCEP03730564","2023-11-12 17:00:00","12.1768","3.57414","27.501","2.801","7.58","1.33","3.575","0.11","0.37","30.7213","4.80695","31.64","0","SATNPRO1963","29.964","0.4197","5"],
    [4355,"HCEP03730564","2023-11-12 17:15:00","12.1768","3.57436","27.376","2.793","7.58","1.33","3.575","0.11","0.37","30.7234","4.80725","31.56","0","SATNPRO1963","30.072","0.42118","5"],
    [4356,"HCEP03730564","2023-11-12 17:30:00","12.1781","3.57486","27.238","2.786","7.58","1.33","3.575","0.11","0.37","30.7272","4.80776","31.48","0","SATNPRO1963","30.094","0.4215","5"],
    [4357,"HCEP03730564","2023-11-12 17:45:00","12.1787","3.57491","27.079","2.79","7.58","1.33","3.575","0.11","0.37","30.7273","4.80775","31.52","0","SATNPRO1963","30.034","0.42068","5"],
    [4358,"HCEP03730564","2023-11-12 18:00:00","12.1772","3.57453","26.922","2.78","7.58","1.33","3.575","0.11","0.37","30.7249","4.80743","31.4","0","SATNPRO1963","30.29","0.42426","5"],
    [4359,"HCEP03730564","2023-11-12 18:15:00","12.1758","3.57409","26.728","2.771","7.58","1.33","3.575","0.11","0.37","30.7219","4.80701","31.3","0","SATNPRO1963","29.884","0.41856","5"],
    [4360,"HCEP03730564","2023-11-12 18:30:00","12.1744","3.57359","26.553","2.761","7.58","1.33","3.575","0.11","0.37","30.7183","4.80652","31.19","0","SATNPRO1963","30.08","0.4213","5"],
    [4361,"HCEP03730564","2023-11-12 18:45:00","12.1718","3.57301","26.345","2.744","7.58","1.33","3.575","0.11","0.37","30.715","4.80607","31","0","SATNPRO1963","30.29","0.42428","5"],
    [4362,"HCEP03730564","2023-11-12 19:00:00","12.1724","3.57303","26.115","2.746","7.58","1.33","3.575","0.11","0.37","30.7148","4.80603","31.01","0","SATNPRO1963","30.064","0.4211","5"],
    [4363,"HCEP03730564","2023-11-12 19:15:00","12.1704","3.57236","25.883","2.755","7.58","1.33","3.575","0.11","0.37","30.7101","4.80537","31.12","0","SATNPRO1963","29.988","0.42008","5"],
    [4364,"HCEP03730564","2023-11-12 19:30:00","12.1697","3.57205","25.635","2.751","7.57","1.33","3.575","0.11","0.37","30.7078","4.80505","31.07","0","SATNPRO1963","30.006","0.4203","5"],
    [4365,"HCEP03730564","2023-11-12 19:45:00","12.1645","3.56947","25.349","2.778","7.57","1.33","3.575","0.11","0.37","30.6876","4.80225","31.37","0","SATNPRO1963","29.966","0.41968","5"],
    [4366,"HCEP03730564","2023-11-12 20:00:00","12.1618","3.56904","25.172","2.759","7.57","1.33","3.575","0.11","0.37","30.6858","4.80203","31.15","0","SATNPRO1963","29.704","0.41606","5"],
    [4367,"HCEP03730564","2023-11-12 20:15:00","12.1609","3.56899","24.968","2.725","7.57","1.33","3.575","0.11","0.37","30.686","4.80206","30.77","0","SATNPRO1963","29.832","0.41784","5"],
    [4368,"HCEP03730564","2023-11-12 20:30:00","12.1615","3.56904","24.785","2.734","7.57","1.33","3.575","0.11","0.37","30.6862","4.80207","30.87","0","SATNPRO1963","29.798","0.41738","5"],
    [4369,"HCEP03730564","2023-11-12 20:45:00","12.1596","3.5686","24.61","2.728","7.57","1.33","3.575","0.11","0.37","30.6836","4.80172","30.8","0","SATNPRO1963","29.924","0.41916","5"],
    [4370,"HCEP03730564","2023-11-12 21:00:00","12.1617","3.56979","24.395","2.687","7.57","1.33","3.575","0.11","0.37","30.6933","4.80305","30.34","0","SATNPRO1963","29.584","0.41436","5"],
    [4371,"HCEP03730564","2023-11-12 21:15:00","12.1651","3.57121","24.283","2.679","7.57","1.33","3.575","0.11","0.37","30.7041","4.80451","30.26","0","SATNPRO1963","29.322","0.4107","5"],
    [4372,"HCEP03730564","2023-11-12 21:30:00","12.1636","3.57","24.226","2.703","7.57","1.33","3.575","0.11","0.37","30.6939","4.80309","30.53","0","SATNPRO1963","29.622","0.41492","5"],
    [4373,"HCEP03730564","2023-11-12 21:45:00","12.1632","3.5697","24.228","2.726","7.57","1.33","3.575","0.11","0.37","30.6913","4.80273","30.78","0","SATNPRO1963","29.288","0.41024","5"],
    [4374,"HCEP03730564","2023-11-12 22:00:00","12.1635","3.57015","24.287","2.727","7.57","1.33","3.575","0.11","0.37","30.6954","4.8033","30.79","0","SATNPRO1963","29.248","0.40964","5"],
    [4375,"HCEP03730564","2023-11-12 22:15:00","12.1627","3.56979","24.257","2.721","7.57","1.33","3.575","0.11","0.37","30.6926","4.80292","30.73","0","SATNPRO1963","29.09","0.40746","5"],
    [4376,"HCEP03730564","2023-11-12 22:30:00","12.1625","3.56971","24.251","2.706","7.57","1.33","3.575","0.11","0.37","30.692","4.80285","30.55","0","SATNPRO1963","29.278","0.41012","5"],
    [4377,"HCEP03730564","2023-11-12 22:45:00","12.1615","3.56964","24.298","2.686","7.57","1.33","3.575","0.11","0.37","30.6921","4.80287","30.33","0","SATNPRO1963","29.458","0.41258","5"],
    [4378,"HCEP03730564","2023-11-12 23:00:00","12.1613","3.56982","24.445","2.666","7.57","1.33","3.575","0.11","0.37","30.6939","4.80314","30.1","0","SATNPRO1963","29.264","0.40994","5"],
    [4379,"HCEP03730564","2023-11-12 23:15:00","12.1606","3.56944","24.472","2.662","7.56","1.33","3.575","0.11","0.37","30.6908","4.80272","30.06","0","SATNPRO1963","29.306","0.4105","5"],
    [4380,"HCEP03730564","2023-11-12 23:30:00","12.1597","3.56899","24.661","2.664","7.57","1.33","3.575","0.11","0.37","30.6872","4.80223","30.07","0","SATNPRO1963","29.344","0.41098","5"],
    [4381,"HCEP03730564","2023-11-12 23:45:00","12.1572","3.56793","24.752","2.664","7.57","1.33","3.575","0.11","0.37","30.6792","4.80114","30.07","0","SATNPRO1963","29.142","0.4082","5"],
    [4382,"HCEP03730564","2023-11-13 00:00:00","12.1555","3.56731","24.887","2.69","7.57","1.33","3.575","0.11","0.37","30.6745","4.80051","30.37","0","SATNPRO1963","29.018","0.40644","5"],
    [4383,"HCEP03730564","2023-11-13 00:15:00","12.1531","3.56583","25.067","2.67","7.57","1.33","3.575","0.11","0.37","30.6623","4.79883","30.13","0","SATNPRO1963","29.036","0.4067","5"],
    [4384,"HCEP03730564","2023-11-13 00:30:00","12.1517","3.56562","25.32","2.677","7.57","1.33","3.575","0.11","0.37","30.6613","4.79873","30.22","0","SATNPRO1963","29.009999999999998","0.40632","5"],
    [4385,"HCEP03730564","2023-11-13 00:45:00","12.1487","3.56434","25.483","2.677","7.56","1.33","3.575","0.11","0.37","30.6515","4.7974","30.21","0","SATNPRO1963","29.018","0.40644","5"],
    [4386,"HCEP03730564","2023-11-13 01:00:00","12.1447","3.56277","25.594","2.687","7.56","1.33","3.575","0.11","0.37","30.6398","4.79581","30.32","0","SATNPRO1963","29.14","0.40812","5"],
    [4387,"HCEP03730564","2023-11-13 01:15:00","12.1402","3.56086","25.804","2.704","7.56","1.33","3.575","0.11","0.37","30.6251","4.7938","30.51","0","SATNPRO1963","28.802","0.40342","5"],
    [4388,"HCEP03730564","2023-11-13 01:30:00","12.1351","3.55895","25.994","2.718","7.56","1.33","3.575","0.11","0.37","30.611","4.7919","30.66","0","SATNPRO1963","28.922","0.4051","5"],
    [4389,"HCEP03730564","2023-11-13 01:45:00","12.1312","3.55741","26.207","2.717","7.57","1.33","3.575","0.11","0.37","30.5993","4.79032","30.64","0","SATNPRO1963","28.828","0.40382","5"],
    [4390,"HCEP03730564","2023-11-13 02:00:00","12.1282","3.55629","26.411","2.717","7.57","1.33","3.575","0.11","0.37","30.591","4.7892","30.64","0","SATNPRO1963","28.742","0.40258","5"],
    [4391,"HCEP03730564","2023-11-13 02:15:00","12.1285","3.55631","26.595","2.721","7.57","1.33","3.575","0.11","0.37","30.591","4.7892","30.69","0","SATNPRO1963","28.582","0.40034","5"],
    [4392,"HCEP03730564","2023-11-13 02:30:00","12.1274","3.55578","26.829","2.726","7.57","1.33","3.575","0.11","0.37","30.5867","4.78862","30.74","0","SATNPRO1963","28.65","0.40126","5"],
    [4393,"HCEP03730564","2023-11-13 02:45:00","12.1323","3.55761","27.01","2.732","7.57","1.33","3.575","0.11","0.37","30.6001","4.79046","30.82","0","SATNPRO1963","28.31","0.39652","5"],
    [4394,"HCEP03730564","2023-11-13 03:00:00","12.1329","3.55788","27.189","2.734","7.57","1.33","3.575","0.11","0.37","30.6021","4.79074","30.84","0","SATNPRO1963","28.560000000000002","0.40004","5"],
    [4395,"HCEP03730564","2023-11-13 03:15:00","12.1357","3.55928","27.352","2.687","7.57","1.33","3.575","0.11","0.37","30.6131","4.79227","30.3","0","SATNPRO1963","28.26","0.39584","5"],
    [4396,"HCEP03730564","2023-11-13 03:30:00","12.1376","3.56045","27.527","2.641","7.57","1.33","3.575","0.11","0.37","30.6227","4.79359","29.79","0","SATNPRO1963","28.512","0.3994","5"],
    [4397,"HCEP03730564","2023-11-13 03:45:00","12.1221","3.55512","27.69","2.656","7.56","1.33","3.575","0.11","0.37","30.5844","4.78841","29.95","0","SATNPRO1963","28.546","0.39982","5"],
    [4398,"HCEP03730564","2023-11-13 04:00:00","12.0988","3.5471","27.77","2.712","7.56","1.33","3.575","0.11","0.37","30.5267","4.78061","30.55","0","SATNPRO1963","28.64","0.40122","5"],
    [4399,"HCEP03730564","2023-11-13 04:15:00","12.102","3.54726","27.887","2.707","7.56","1.33","3.575","0.11","0.37","30.5256","4.78041","30.5","0","SATNPRO1963","28.452","0.39852","5"],
    [4400,"HCEP03730564","2023-11-13 04:30:00","12.1083","3.55037","27.848","2.685","7.56","1.33","3.575","0.11","0.37","30.5502","4.7838","30.25","0","SATNPRO1963","28.524","0.39952","5"],
    [4401,"HCEP03730564","2023-11-13 04:45:00","12.0999","3.54737","27.901","2.663","7.56","1.33","3.575","0.11","0.37","30.5283","4.78083","30","0","SATNPRO1963","28.07","0.3932","5"],
    [4402,"HCEP03730564","2023-11-13 05:00:00","12.1065","3.54979","27.896","2.645","7.56","1.33","3.575","0.11","0.37","30.5461","4.78325","29.81","0","SATNPRO1963","27.614","0.38678","5"],
    [4403,"HCEP03730564","2023-11-13 05:15:00","12.1137","3.55167","27.855","2.633","7.56","1.33","3.575","0.11","0.37","30.5582","4.78485","29.67","0","SATNPRO1963","27.848000000000003","0.39004","5"],
    [4404,"HCEP03730564","2023-11-13 05:30:00","12.1158","3.55303","27.859","2.622","7.56","1.15","4.899","0.2","0.32","30.5695","4.78641","29.56","2","SATNPRO1963","27.954","0.39156","5"],
    [4405,"HCEP03730564","2023-11-13 05:45:00","12.1174","3.55346","27.874","2.621","7.56","0.936","4.294","0.19","0.16","30.5724","4.78679","29.54","2","SATNPRO1963","27.832","0.38984","5"],
    [4406,"HCEP03730564","2023-11-13 06:00:00","12.1206","3.55465","27.856","2.625","7.56","1.069","4.782","0.16","0.26","30.581","4.78797","29.59","2","SATNPRO1963","27.578","0.38626","5"],
    [4407,"HCEP03730564","2023-11-13 06:15:00","12.118","3.5537","27.831","2.621","7.56","1.162","5.098","0.14","0.49","30.5741","4.78703","29.54","2","SATNPRO1963","27.774","0.38906","5"],
    [4408,"HCEP03730564","2023-11-13 06:30:00","12.1136","3.55206","27.788","2.63","7.56","0.988","4.47","0.09","0.3","30.562","4.78539","29.64","2","SATNPRO1963","27.830000000000002","0.3898","5"],
    [4409,"HCEP03730564","2023-11-13 06:45:00","12.1064","3.54935","27.737","2.664","7.56","0.934","4.398","0.14","0.19","30.5421","4.78266","30.02","2","SATNPRO1963","28.038","0.39272","5"],
    [4410,"HCEP03730564","2023-11-13 07:00:00","12.1022","3.54798","27.685","2.665","7.56","1.108","4.01","0.15","0.27","30.5324","4.78136","30.03","2","SATNPRO1963","28.052","0.39292","5"],
    [4411,"HCEP03730564","2023-11-13 07:15:00","12.0908","3.54361","27.623","2.695","7.56","1.054","4.515","0","0","30.5","4.77694","30.35","2","SATNPRO1963","27.948","0.39148","5"],
    [4412,"HCEP03730564","2023-11-13 07:30:00","12.0677","3.5341","27.537","2.834","7.57","1.054","4.515","0","0","30.428","4.76709","31.88","0","SATNPRO1963","27.964","0.39168","5"],
    [4413,"HCEP03730564","2023-11-13 07:45:00","12.0595","3.53058","27.442","2.922","7.57","1.054","4.515","0","0","30.4011","4.7634","32.87","0","SATNPRO1963","27.72","0.38826","5"],
    [4414,"HCEP03730564","2023-11-13 08:00:00","12.0587","3.53031","27.37","2.936","7.57","1.054","4.515","0","0","30.3991","4.76312","33.02","0","SATNPRO1963","27.84","0.38994","5"],
    [4415,"HCEP03730564","2023-11-13 08:15:00","12.059","3.53057","27.305","2.929","7.57","0.941","3.292","0.18","0.05","30.4015","4.76345","32.94","2","SATNPRO1963","27.456","0.38454","5"],
    [4416,"HCEP03730564","2023-11-13 08:30:00","12.058","3.53","27.182","2.921","7.57","0.941","3.292","0.18","0.05","30.3969","4.76281","32.85","0","SATNPRO1963","27.36","0.3832","5"],
    [4417,"HCEP03730564","2023-11-13 08:45:00","12.0404","3.52296","27.092","3.006","7.57","0.941","3.292","0.18","0.05","30.3439","4.75557","33.78","0","SATNPRO1963","27.564","0.3861","5"],
    [4418,"HCEP03730564","2023-11-13 09:00:00","12.0255","3.51679","27.006","3.118","7.58","0.941","3.292","0.18","0.05","30.297","4.74915","35.02","0","SATNPRO1963","27.378","0.38346","5"],
    [4419,"HCEP03730564","2023-11-13 09:15:00","11.9933","3.50377","26.903","3.328","7.59","0.941","3.292","0.18","0.05","30.1986","4.73569","37.33","0","SATNPRO1963","27.298000000000002","0.38238","5"],
    [4420,"HCEP03730564","2023-11-13 09:30:00","11.9855","3.50023","26.82","3.437","7.59","0.941","3.292","0.18","0.05","30.171","4.73189","38.54","0","SATNPRO1963","27.08","0.3793","5"],
    [4421,"HCEP03730564","2023-11-13 09:45:00","11.9978","3.50604","26.708","3.389","7.6","0.594","2.669","0","0","30.2168","4.73818","38.02","2","SATNPRO1963","27.106","0.37966","5"],
    [4422,"HCEP03730564","2023-11-13 10:00:00","11.987","3.50091","26.63","3.422","7.6","0.745","3.299","0","0","30.1765","4.73263","38.37","2","SATNPRO1963","26.932000000000002","0.37724","5"],
    [4423,"HCEP03730564","2023-11-13 10:15:00","11.997","3.50426","26.568","3.421","7.6","0.745","3.299","0","0","30.2004","4.73587","38.37","0","SATNPRO1963","26.76","0.37482","5"],
    [4424,"HCEP03730564","2023-11-13 10:30:00","12.0415","3.52456","26.534","2.961","7.6","0.745","3.299","0","0","30.3585","4.75758","33.28","0","SATNPRO1963","26.482","0.37094","5"],
    [4425,"HCEP03730564","2023-11-13 10:45:00","12.0363","3.52254","26.505","2.793","7.58","0.745","3.299","0","0","30.3434","4.75552","31.38","0","SATNPRO1963","26.764","0.37486","5"],
    [4426,"HCEP03730564","2023-11-13 11:00:00","12.0136","3.51487","26.497","2.925","7.58","0.745","3.299","0","0","30.2885","4.74808","32.84","0","SATNPRO1963","26.738","0.37456","5"],
    [4427,"HCEP03730564","2023-11-13 11:15:00","12.0257","3.51776","26.511","3.063","7.59","0.745","3.299","0","0","30.3064","4.75044","34.4","0","SATNPRO1963","26.784","0.37518","5"],
    [4428,"HCEP03730564","2023-11-13 11:30:00","12.0226","3.5167","26.557","2.915","7.59","0.745","3.299","0","0","30.2987","4.74939","32.74","0","SATNPRO1963","26.038","0.3647","5"],
    [4429,"HCEP03730564","2023-11-13 11:45:00","12.0322","3.51981","26.569","2.983","7.59","0.745","3.299","0","0","30.3206","4.75236","33.51","0","SATNPRO1963","26.268","0.36792","5"],
    [4430,"HCEP03730564","2023-11-13 12:00:00","12.0345","3.52","26.637","3.069","7.59","0.745","3.299","0","0","30.3206","4.75233","34.48","0","SATNPRO1963","26.704","0.37404","5"],
    [4431,"HCEP03730564","2023-11-13 12:15:00","12.0485","3.52448","26.687","3.132","7.6","0.745","3.299","0","0","30.3519","4.75657","35.2","0","SATNPRO1963","26.558","0.372","5"],
    [4432,"HCEP03730564","2023-11-13 12:30:00","12.058","3.52787","26.761","3.12","7.6","0.745","3.299","0","0","30.3766","4.75993","35.08","0","SATNPRO1963","26.188","0.3668","5"],
    [4433,"HCEP03730564","2023-11-13 12:45:00","12.0647","3.53057","26.87","3.085","7.59","0.745","3.299","0","0","30.3969","4.76271","34.69","0","SATNPRO1963","26.534","0.37168","5"],
    [4434,"HCEP03730564","2023-11-13 13:00:00","12.0905","3.5413","26.959","2.945","7.59","0.839","5.023","0","0","30.4784","4.77386","33.15","2","SATNPRO1963","26.814","0.37556","5"],
    [4435,"HCEP03730564","2023-11-13 13:15:00","12.0976","3.54427","27.043","2.892","7.59","0.839","5.023","0","0","30.501","4.77696","32.58","0","SATNPRO1963","27.396","0.38368","5"],
    [4436,"HCEP03730564","2023-11-13 13:30:00","12.1022","3.54606","27.108","2.878","7.58","0.839","5.023","0","0","30.5143","4.77878","32.42","0","SATNPRO1963","27.804","0.38942","5"],
    [4437,"HCEP03730564","2023-11-13 13:45:00","12.1024","3.54611","27.22","2.864","7.58","0.839","5.023","0","0","30.5146","4.77882","32.26","0","SATNPRO1963","27.974","0.39184","5"],
    [4438,"HCEP03730564","2023-11-13 14:00:00","12.1207","3.55353","27.292","2.811","7.58","0.839","5.023","0","0","30.5705","4.78646","31.68","0","SATNPRO1963","28.19","0.39484","5"],
    [4439,"HCEP03730564","2023-11-13 14:15:00","12.1252","3.55528","27.39","2.805","7.57","0.839","5.023","0","0","30.5835","4.78824","31.62","0","SATNPRO1963","28.318","0.39666","5"],
    [4440,"HCEP03730564","2023-11-13 14:30:00","12.1323","3.55809","27.474","2.895","7.58","0.839","5.023","0","0","30.6045","4.7911","32.65","0","SATNPRO1963","28.542","0.39976","5"],
    [4441,"HCEP03730564","2023-11-13 14:45:00","12.1349","3.55919","27.558","2.949","7.58","1.227","4.11","0.33","0.31","30.6128","4.79223","33.26","2","SATNPRO1963","28.346","0.39704","5"],
    [4442,"HCEP03730564","2023-11-13 15:00:00","12.1365","3.55976","27.631","2.96","7.59","1.175","3.642","0","0","30.6169","4.7928","33.39","2","SATNPRO1963","28.812","0.40356","5"],
    [4443,"HCEP03730564","2023-11-13 15:15:00","12.1363","3.55974","27.696","2.957","7.59","1.175","3.642","0","0","30.6169","4.79281","33.36","0","SATNPRO1963","28.958","0.4056","5"],
    [4444,"HCEP03730564","2023-11-13 15:30:00","12.1353","3.55948","27.733","2.954","7.59","0.983","3.758","0.09","0.13","30.6152","4.79258","33.32","2","SATNPRO1963","29.368","0.41136","5"],
    [4445,"HCEP03730564","2023-11-13 15:45:00","12.1349","3.55922","27.751","2.943","7.59","0.983","3.758","0.09","0.13","30.613","4.79228","33.2","0","SATNPRO1963","29.64","0.41516","5"],
    [4446,"HCEP03730564","2023-11-13 16:00:00","12.1353","3.55949","27.747","2.935","7.59","0.983","3.758","0.09","0.13","30.6154","4.79261","33.1","0","SATNPRO1963","29.682","0.41574","5"],
    [4447,"HCEP03730564","2023-11-13 16:15:00","12.1351","3.55945","27.755","2.917","7.59","1.141","4.474","0.41","0.1","30.615","4.79256","32.91","2","SATNPRO1963","29.608","0.4147","5"],
    [4448,"HCEP03730564","2023-11-13 16:30:00","12.1347","3.55931","27.729","2.919","7.59","1.141","4.474","0.41","0.1","30.6141","4.79244","32.92","0","SATNPRO1963","29.554","0.414","5"],
    [4449,"HCEP03730564","2023-11-13 16:45:00","12.1341","3.55922","27.688","2.915","7.59","1.141","4.474","0.41","0.1","30.6137","4.79239","32.88","0","SATNPRO1963","29.486","0.41302","5"],
    [4450,"HCEP03730564","2023-11-13 17:00:00","12.1332","3.55883","27.608","2.912","7.58","1.221","3.52","0.12","0.06","30.6107","4.79197","32.85","2","SATNPRO1963","29.482","0.41294","5"],
    [4451,"HCEP03730564","2023-11-13 17:15:00","12.1322","3.55848","27.529","2.919","7.58","1.221","3.52","0.12","0.06","30.6083","4.79164","32.93","0","SATNPRO1963","29.368","0.41134","5"],
    [4452,"HCEP03730564","2023-11-13 17:30:00","12.1312","3.55807","27.418","2.923","7.58","1.196","3.461","0.15","0.01","30.6052","4.79121","32.96","2","SATNPRO1963","29.516000000000002","0.41338","5"],
    [4453,"HCEP03730564","2023-11-13 17:45:00","12.1298","3.55763","27.284","2.92","7.59","1.196","3.461","0.15","0.01","30.6022","4.7908","32.93","0","SATNPRO1963","29.52","0.41348","5"],
    [4454,"HCEP03730564","2023-11-13 18:00:00","12.1284","3.55706","27.13","2.931","7.59","1.162","3.674","0","0","30.598","4.79022","33.05","2","SATNPRO1963","29.381999999999998","0.41152","5"],
    [4455,"HCEP03730564","2023-11-13 18:15:00","12.1272","3.55664","26.967","2.938","7.59","1.162","3.674","0","0","30.595","4.7898","33.13","0","SATNPRO1963","29.468","0.41276","5"],
    [4456,"HCEP03730564","2023-11-13 18:30:00","12.1264","3.55636","26.793","2.936","7.59","1.162","3.674","0","0","30.593","4.78952","33.11","0","SATNPRO1963","29.3","0.4104","5"],
    [4457,"HCEP03730564","2023-11-13 18:45:00","12.1264","3.55623","26.593","2.94","7.59","1.135","3.594","0.2","0.14","30.5919","4.78936","33.15","2","SATNPRO1963","29.172","0.4086","5"],
    [4458,"HCEP03730564","2023-11-13 19:00:00","12.1263","3.55642","26.391","2.919","7.58","1.135","3.594","0.2","0.14","30.5939","4.78962","32.92","0","SATNPRO1963","29.334","0.41086","5"],
    [4459,"HCEP03730564","2023-11-13 19:15:00","12.1272","3.5569","26.173","2.876","7.58","1.635","3.98","0","0","30.5978","4.79016","32.43","2","SATNPRO1963","29.318","0.4106","5"],
    [4460,"HCEP03730564","2023-11-13 19:30:00","12.1278","3.55709","25.973","2.857","7.58","1.635","3.98","0","0","30.5991","4.79032","32.21","0","SATNPRO1963","29.626","0.41496","5"],
    [4461,"HCEP03730564","2023-11-13 19:45:00","12.129","3.55721","25.737","2.879","7.58","1.635","3.98","0","0","30.5994","4.79034","32.47","0","SATNPRO1963","29.452","0.4125","5"],
    [4462,"HCEP03730564","2023-11-13 20:00:00","12.1296","3.5575","25.529","2.873","7.58","1.089","3.968","0.26","0.38","30.6018","4.79065","32.4","2","SATNPRO1963","29.471999999999998","0.41278","5"],
    [4463,"HCEP03730564","2023-11-13 20:15:00","12.1299","3.55743","25.282","2.888","7.58","1.089","3.968","0.26","0.38","30.601","4.79052","32.57","0","SATNPRO1963","29.224","0.4093","5"],
    [4464,"HCEP03730564","2023-11-13 20:30:00","12.13","3.5575","25.032","2.875","7.58","0.76","4.042","0.12","0.54","30.6017","4.7906","32.43","2","SATNPRO1963","29.186","0.4088","5"],
    [4465,"HCEP03730564","2023-11-13 20:45:00","12.1313","3.55799","24.763","2.863","7.58","0.76","4.042","0.12","0.54","30.6054","4.7911","32.28","0","SATNPRO1963","29.364","0.4113","5"],
    [4466,"HCEP03730564","2023-11-13 21:00:00","12.1309","3.55781","24.551","2.852","7.58","0.76","4.042","0.12","0.54","30.6041","4.7909","32.16","0","SATNPRO1963","29.048000000000002","0.40684","5"],
    [4467,"HCEP03730564","2023-11-13 21:15:00","12.1294","3.55705","24.358","2.841","7.58","1.239","4.652","0","0","30.5981","4.79007","32.04","2","SATNPRO1963","29.262","0.40986","5"],
    [4468,"HCEP03730564","2023-11-13 21:30:00","12.1239","3.55516","24.208","2.819","7.58","1.239","4.652","0","0","30.5846","4.78823","31.78","0","SATNPRO1963","29.41","0.41194","5"],
    [4469,"HCEP03730564","2023-11-13 21:45:00","12.1264","3.55608","24.118","2.81","7.57","1.239","4.652","0","0","30.5914","4.78916","31.69","0","SATNPRO1963","29.548","0.41384","5"],
    [4470,"HCEP03730564","2023-11-13 22:00:00","12.1303","3.55761","24.024","2.78","7.57","1.239","4.652","0","0","30.6029","4.79072","31.36","0","SATNPRO1963","29.264","0.40988","5"],
    [4471,"HCEP03730564","2023-11-13 22:15:00","12.1306","3.55768","23.946","2.735","7.57","0.802","3.937","0.17","0.29","30.6033","4.79077","30.84","2","SATNPRO1963","28.966","0.40574","5"],
    [4472,"HCEP03730564","2023-11-13 22:30:00","12.1302","3.55758","23.959","2.698","7.57","0.802","3.937","0.17","0.29","30.6026","4.79067","30.42","0","SATNPRO1963","29.042","0.4068","5"],
    [4473,"HCEP03730564","2023-11-13 22:45:00","12.1279","3.55673","24.007","2.667","7.57","0.802","3.937","0.17","0.29","30.5964","4.78983","30.07","0","SATNPRO1963","28.962","0.40562","5"],
    [4474,"HCEP03730564","2023-11-13 23:00:00","12.1254","3.55592","24.061","2.666","7.56","1.043","4.356","0.17","0.41","30.5907","4.78907","30.06","2","SATNPRO1963","29.292","0.4103","5"],
    [4475,"HCEP03730564","2023-11-13 23:15:00","12.1229","3.55498","24.108","2.674","7.56","1.043","4.356","0.17","0.41","30.5837","4.78811","30.15","0","SATNPRO1963","29.028","0.40658","5"],
    [4476,"HCEP03730564","2023-11-13 23:30:00","12.1213","3.55432","24.224","2.669","7.57","1.043","4.356","0.17","0.41","30.5787","4.78744","30.09","0","SATNPRO1963","28.812","0.40354","5"],
    [4477,"HCEP03730564","2023-11-13 23:45:00","12.1201","3.55388","24.339","2.655","7.56","1.043","4.356","0.17","0.41","30.5754","4.78699","29.93","0","SATNPRO1963","28.712","0.40218","5"],
    [4478,"HCEP03730564","2023-11-14 00:00:00","12.1183","3.55339","24.467","2.664","7.56","1.043","4.356","0.17","0.41","30.5722","4.78657","30.03","0","SATNPRO1963","28.392","0.39768","5"],
    [4479,"HCEP03730564","2023-11-14 00:15:00","12.0992","3.54626","24.561","2.668","7.56","1.043","4.356","0.17","0.41","30.5197","4.77943","30.05","0","SATNPRO1963","28.669999999999998","0.4016","5"],
    [4480,"HCEP03730564","2023-11-14 00:30:00","12.0883","3.54167","24.716","2.699","7.56","0.882","3.491","0","0","30.4846","4.77464","30.38","2","SATNPRO1963","28.39","0.39766","5"],
    [4481,"HCEP03730564","2023-11-14 00:45:00","12.114","3.55065","24.857","2.63","7.55","0.882","3.491","0","0","30.5494","4.78344","29.64","0","SATNPRO1963","28.376","0.39744","5"],
    [4482,"HCEP03730564","2023-11-14 01:00:00","12.107","3.54892","25.023","2.598","7.55","0.882","3.491","0","0","30.5386","4.78202","29.27","0","SATNPRO1963","28.318","0.39664","5"],
    [4483,"HCEP03730564","2023-11-14 01:15:00","12.1101","3.55015","25.255","2.578","7.55","0.912","3.792","0","0","30.5477","4.78327","29.05","2","SATNPRO1963","27.804","0.38942","5"],
    [4484,"HCEP03730564","2023-11-14 01:30:00","12.1115","3.55058","25.45","2.545","7.55","0.878","3.82","0","0","30.5505","4.78366","28.68","2","SATNPRO1963","27.374","0.38342","5"],
    [4485,"HCEP03730564","2023-11-14 01:45:00","12.1072","3.54891","25.662","2.547","7.56","0.878","3.82","0","0","30.538","4.78197","28.7","0","SATNPRO1963","28.046","0.39282","5"],
    [4486,"HCEP03730564","2023-11-14 02:00:00","12.1052","3.54833","25.882","2.539","7.56","0.878","3.82","0","0","30.534","4.78144","28.61","0","SATNPRO1963","27.754","0.38872","5"],
    [4487,"HCEP03730564","2023-11-14 02:15:00","12.1015","3.5467","26.074","2.535","7.56","0.878","3.82","0","0","30.5214","4.77973","28.56","0","SATNPRO1963","27.75","0.38866","5"],
    [4488,"HCEP03730564","2023-11-14 02:30:00","12.0974","3.54524","26.258","2.528","7.55","0.878","3.82","0","0","30.5107","4.77829","28.47","0","SATNPRO1963","27.704","0.38802","5"],
    [4489,"HCEP03730564","2023-11-14 02:45:00","12.0923","3.5432","26.475","2.53","7.55","0.938","4.44","0.1","0.49","30.4953","4.77619","28.49","2","SATNPRO1963","27.558","0.38604","5"],
    [4490,"HCEP03730564","2023-11-14 03:00:00","12.0919","3.54275","26.684","2.53","7.55","1.403","4.099","0","0","30.4912","4.77563","28.48","2","SATNPRO1963","27.386","0.38358","5"],
    [4491,"HCEP03730564","2023-11-14 03:15:00","12.0915","3.54318","26.867","2.532","7.54","0.852","3.706","0","0","30.4956","4.77626","28.51","2","SATNPRO1963","27.316","0.38264","5"],
    [4492,"HCEP03730564","2023-11-14 03:30:00","12.0913","3.54276","27.067","2.534","7.54","0.852","3.706","0","0","30.4917","4.77573","28.53","0","SATNPRO1963","26.990000000000002","0.37804","5"],
    [4493,"HCEP03730564","2023-11-14 03:45:00","12.0919","3.54291","27.232","2.536","7.54","0.749","3.431","0","0","30.4926","4.77586","28.56","2","SATNPRO1963","27.014","0.37838","5"],
    [4494,"HCEP03730564","2023-11-14 04:00:00","12.0916","3.5427","27.374","2.552","7.54","1.149","3.308","0","0","30.4908","4.77561","28.73","2","SATNPRO1963","26.758","0.3748","5"],
    [4495,"HCEP03730564","2023-11-14 04:15:00","12.0934","3.54357","27.528","2.542","7.55","0.865","3.404","0","0","30.4975","4.77655","28.62","2","SATNPRO1963","27.054","0.37894","5"],
    [4496,"HCEP03730564","2023-11-14 04:30:00","12.0921","3.54303","27.68","2.533","7.55","1.003","3.795","0.09","0.06","30.4934","4.776","28.52","2","SATNPRO1963","27.004","0.37824","5"],
    [4497,"HCEP03730564","2023-11-14 04:45:00","12.0919","3.54299","27.803","2.523","7.55","0.822","3.527","0","0","30.4931","4.77597","28.41","2","SATNPRO1963","27.08","0.3793","5"],
    [4498,"HCEP03730564","2023-11-14 05:00:00","12.0891","3.54199","27.901","2.525","7.54","0.697","3.399","0","0","30.4858","4.77497","28.43","2","SATNPRO1963","27.105999999999998","0.37964","5"],
    [4499,"HCEP03730564","2023-11-14 05:15:00","12.0876","3.54121","27.948","2.536","7.54","0.757","3.194","0","0","30.4796","4.77412","28.55","2","SATNPRO1963","27.28","0.38208","5"],
    [4500,"HCEP03730564","2023-11-14 05:30:00","12.0887","3.54181","27.98","2.532","7.55","0.852","4.076","0","0","30.4844","4.77479","28.51","2","SATNPRO1963","27.16","0.3804","5"],
    [4501,"HCEP03730564","2023-11-14 05:45:00","12.091","3.54253","28","2.532","7.55","1.097","4.273","0","0","30.4894","4.77546","28.51","2","SATNPRO1963","26.968","0.37774","5"],
    [4502,"HCEP03730564","2023-11-14 06:00:00","12.0895","3.54177","28","2.558","7.55","0.796","3.361","0.1","0.1","30.4834","4.77463","28.81","2","SATNPRO1963","27.014","0.37838","5"],
    [4503,"HCEP03730564","2023-11-14 06:15:00","12.0879","3.54128","27.997","2.585","7.55","0.994","4.026","0","0","30.48","4.77418","29.11","2","SATNPRO1963","26.908","0.37686","5"],
    [4504,"HCEP03730564","2023-11-14 06:30:00","12.0491","3.52517","28.022","2.81","7.56","0.658","3.121","0","0","30.3576","4.75743","31.58","2","SATNPRO1963","26.888","0.3766","5"],
    [4505,"HCEP03730564","2023-11-14 06:45:00","12.0596","3.53059","28.052","2.828","7.56","0.658","3.121","0","0","30.4009","4.7634","31.81","0","SATNPRO1963","27.228","0.38136","5"],
    [4506,"HCEP03730564","2023-11-14 07:00:00","12.0768","3.53718","27.985","2.729","7.56","0.658","3.121","0","0","30.4498","4.77007","30.71","0","SATNPRO1963","27.035999999999998","0.37868","5"],
    [4507,"HCEP03730564","2023-11-14 07:15:00","12.0791","3.53802","27.879","2.674","7.56","0.783","4.694","0","0","30.4561","4.77092","30.09","2","SATNPRO1963","27.418","0.38404","5"],
    [4508,"HCEP03730564","2023-11-14 07:30:00","12.0814","3.53893","27.796","2.649","7.55","0.766","4.808","0","0","30.4629","4.77184","29.82","2","SATNPRO1963","26.904","0.37686","5"],
    [4509,"HCEP03730564","2023-11-14 07:45:00","12.0827","3.53947","27.71","2.625","7.55","1.194","4.781","0.06","0.3","30.4671","4.77241","29.55","2","SATNPRO1963","27.006","0.37826","5"],
    [4510,"HCEP03730564","2023-11-14 08:00:00","12.0842","3.54001","27.613","2.61","7.55","1.194","4.781","0.06","0.3","30.4709","4.77293","29.38","0","SATNPRO1963","27.166","0.3805","5"],
    [4511,"HCEP03730564","2023-11-14 08:15:00","12.0763","3.53712","27.546","2.623","7.55","0.977","4.396","0","0","30.4499","4.77006","29.52","2","SATNPRO1963","27.419999999999998","0.38406","5"],
    [4512,"HCEP03730564","2023-11-14 08:30:00","12.0733","3.53636","27.434","2.696","7.55","0.951","5.688","0","0","30.445","4.76942","30.34","2","SATNPRO1963","27.256","0.38178","5"],
    [4513,"HCEP03730564","2023-11-14 08:45:00","12.0759","3.53713","27.344","2.721","7.55","0.889","5.3","0.09","0.36","30.4503","4.77012","30.62","2","SATNPRO1963","27.134","0.38004","5"],
    [4514,"HCEP03730564","2023-11-14 09:00:00","12.0795","3.53901","27.265","2.701","7.55","0.889","5.3","0.09","0.36","30.4654","4.7722","30.4","0","SATNPRO1963","27.158","0.38038","5"],
    [4515,"HCEP03730564","2023-11-14 09:15:00","12.0793","3.5386","27.212","2.71","7.56","0.889","5.3","0.09","0.36","30.4617","4.77167","30.5","0","SATNPRO1963","27.154","0.38034","5"],
    [4516,"HCEP03730564","2023-11-14 09:30:00","12.0797","3.53825","27.119","2.763","7.56","0.951","4.483","0","0","30.458","4.77114","31.1","2","SATNPRO1963","27.416","0.38396","5"],
    [4517,"HCEP03730564","2023-11-14 09:45:00","12.0839","3.53942","27.035","2.769","7.57","0.951","4.483","0","0","30.4658","4.77218","31.17","0","SATNPRO1963","27.49","0.38502","5"],
    [4518,"HCEP03730564","2023-11-14 10:00:00","12.0842","3.53944","26.953","2.755","7.57","0.99","4.854","0","0","30.4658","4.77217","31.02","2","SATNPRO1963","27.532","0.38564","5"],
    [4519,"HCEP03730564","2023-11-14 10:15:00","12.0868","3.54064","26.877","2.736","7.56","0.788","3.898","0","0","30.4752","4.77346","30.8","2","SATNPRO1963","27.522","0.38548","5"],
    [4520,"HCEP03730564","2023-11-14 10:30:00","12.0888","3.54137","26.819","2.71","7.56","0.788","3.898","0","0","30.4805","4.77417","30.51","0","SATNPRO1963","27.71","0.38814","5"],
    [4521,"HCEP03730564","2023-11-14 10:45:00","12.0882","3.54106","26.735","2.707","7.56","0.788","3.898","0","0","30.4781","4.77384","30.48","0","SATNPRO1963","27.648","0.38724","5"],
    [4522,"HCEP03730564","2023-11-14 11:00:00","12.0884","3.54105","26.681","2.719","7.56","0.788","3.898","0","0","30.4779","4.7738","30.62","0","SATNPRO1963","27.524","0.38552","5"],
    [4523,"HCEP03730564","2023-11-14 11:15:00","12.0874","3.54068","26.643","2.73","7.56","0.899","4.652","0","0","30.4752","4.77343","30.73","2","SATNPRO1963","27.642","0.38718","5"],
    [4524,"HCEP03730564","2023-11-14 11:30:00","12.089","3.54138","26.634","2.727","7.56","0.899","4.652","0","0","30.4806","4.77417","30.71","0","SATNPRO1963","27.636","0.38708","5"],
    [4525,"HCEP03730564","2023-11-14 11:45:00","12.091","3.54239","26.639","2.707","7.56","0.899","4.652","0","0","30.4886","4.77527","30.48","0","SATNPRO1963","27.668","0.38756","5"],
    [4526,"HCEP03730564","2023-11-14 12:00:00","12.0938","3.54347","26.662","2.708","7.56","0.899","4.652","0","0","30.4966","4.77636","30.5","0","SATNPRO1963","27.676","0.38764","5"],
    [4527,"HCEP03730564","2023-11-14 12:15:00","12.0939","3.54374","26.7","2.713","7.56","0.899","4.652","0","0","30.499","4.77671","30.56","0","SATNPRO1963","27.79","0.38922","5"],
    [4528,"HCEP03730564","2023-11-14 12:30:00","12.098","3.54572","26.735","2.711","7.56","0.899","4.652","0","0","30.5147","4.77887","30.53","0","SATNPRO1963","27.55","0.38586","5"],
    [4529,"HCEP03730564","2023-11-14 12:45:00","12.1021","3.5476","26.799","2.708","7.56","0.899","4.652","0","0","30.5293","4.78087","30.51","0","SATNPRO1963","27.926","0.39114","5"],
    [4530,"HCEP03730564","2023-11-14 13:00:00","12.1121","3.55122","26.825","2.565","7.55","0.899","4.652","0","0","30.5556","4.78445","28.91","0","SATNPRO1963","27.87","0.39034","5"],
    [4531,"HCEP03730564","2023-11-14 13:15:00","12.1162","3.55299","26.935","2.499","7.55","0.899","4.652","0","0","30.5691","4.78631","28.17","0","SATNPRO1963","28.088","0.39342","5"],
    [4532,"HCEP03730564","2023-11-14 13:30:00","12.137","3.561","27.009","2.675","7.55","0.899","4.652","0","0","30.6286","4.79441","30.18","0","SATNPRO1963","28.11","0.39374","5"],
    [4533,"HCEP03730564","2023-11-14 13:45:00","12.1486","3.56566","27.093","2.833","7.57","0.899","4.652","0","0","30.6636","4.79918","31.97","0","SATNPRO1963","28.054","0.39296","5"],
    [4534,"HCEP03730564","2023-11-14 14:00:00","12.1516","3.56669","27.192","2.852","7.57","0.831","3.751","0","0","30.6709","4.80018","32.19","2","SATNPRO1963","27.748","0.38866","5"],
    [4535,"HCEP03730564","2023-11-14 14:15:00","12.1603","3.5699","27.226","2.852","7.58","0.831","3.751","0","0","30.6944","4.80337","32.2","0","SATNPRO1963","28.098","0.39354","5"],
    [4536,"HCEP03730564","2023-11-14 14:30:00","12.1583","3.56929","27.281","2.842","7.58","0.831","3.751","0","0","30.6902","4.80282","32.08","0","SATNPRO1963","29.438","0.41238","5"],
    [4537,"HCEP03730564","2023-11-14 14:45:00","12.1594","3.56964","27.333","2.826","7.58","0.745","4.259","0","0","30.6926","4.80314","31.91","2","SATNPRO1963","30.222","0.4233","5"],
    [4538,"HCEP03730564","2023-11-14 15:00:00","12.1633","3.57076","27.404","2.831","7.58","0.745","4.259","0","0","30.7001","4.80414","31.97","0","SATNPRO1963","30.122","0.42192","5"],
    [4539,"HCEP03730564","2023-11-14 15:15:00","12.1621","3.57033","27.523","2.832","7.58","0.745","4.259","0","0","30.6969","4.80371","31.98","0","SATNPRO1963","30.464","0.4267","5"],
    [4540,"HCEP03730564","2023-11-14 15:30:00","12.1613","3.57017","27.575","2.822","7.58","0.745","4.259","0","0","30.696","4.80361","31.86","0","SATNPRO1963","30.446","0.42644","5"],
    [4541,"HCEP03730564","2023-11-14 15:45:00","12.1612","3.57012","27.635","2.816","7.58","0.745","4.259","0","0","30.6956","4.80356","31.8","0","SATNPRO1963","30.284","0.42418","5"],
    [4542,"HCEP03730564","2023-11-14 16:00:00","12.1593","3.5696","27.656","2.807","7.58","0.745","4.259","0","0","30.6922","4.8031","31.69","0","SATNPRO1963","30.466","0.42672","5"],
    [4543,"HCEP03730564","2023-11-14 16:15:00","12.1593","3.56959","27.677","2.804","7.57","0.745","4.259","0","0","30.6921","4.80309","31.66","0","SATNPRO1963","30.368000000000002","0.42534","5"],
    [4544,"HCEP03730564","2023-11-14 16:30:00","12.1578","3.56914","27.714","2.796","7.58","0.745","4.259","0","0","30.689","4.80267","31.57","0","SATNPRO1963","30.422","0.4261","5"],
    [4545,"HCEP03730564","2023-11-14 16:45:00","12.1558","3.56847","27.711","2.791","7.58","0.745","4.259","0","0","30.6843","4.80204","31.51","0","SATNPRO1963","30.332","0.42486","5"],
    [4546,"HCEP03730564","2023-11-14 17:00:00","12.1549","3.56812","27.7","2.791","7.58","0.745","4.259","0","0","30.6816","4.80168","31.5","0","SATNPRO1963","30.164","0.42248","5"],
    [4547,"HCEP03730564","2023-11-14 17:15:00","12.1547","3.56795","27.632","2.797","7.58","0.745","4.259","0","0","30.6802","4.80148","31.58","0","SATNPRO1963","30.22","0.42328","5"],
    [4548,"HCEP03730564","2023-11-14 17:30:00","12.1558","3.56841","27.577","2.792","7.57","0.745","4.259","0","0","30.6838","4.80196","31.52","0","SATNPRO1963","30.258","0.42378","5"],
    [4549,"HCEP03730564","2023-11-14 17:45:00","12.1582","3.56898","27.501","2.788","7.57","0.745","4.259","0","0","30.6872","4.80241","31.48","0","SATNPRO1963","30.052","0.42092","5"],
    [4550,"HCEP03730564","2023-11-14 18:00:00","12.1614","3.57023","27.394","2.78","7.57","0.745","4.259","0","0","30.6966","4.80367","31.39","0","SATNPRO1963","30.116","0.42184","5"],
    [4551,"HCEP03730564","2023-11-14 18:15:00","12.1618","3.5703","27.251","2.775","7.57","0.745","4.259","0","0","30.697","4.80372","31.33","0","SATNPRO1963","30.046","0.42086","5"],
    [4552,"HCEP03730564","2023-11-14 18:30:00","12.165","3.57123","27.091","2.782","7.57","0.745","4.259","0","0","30.7033","4.80456","31.42","0","SATNPRO1963","29.816","0.41766","5"],
    [4553,"HCEP03730564","2023-11-14 18:45:00","12.1682","3.57202","26.925","2.809","7.58","0.745","4.259","0","0","30.7083","4.80521","31.73","0","SATNPRO1963","30.836","0.43188","5"],
    [4554,"HCEP03730564","2023-11-14 19:00:00","12.1718","3.57274","26.723","2.862","7.58","0.745","4.259","0","0","30.7122","4.8057","32.32","0","SATNPRO1963","30.3","0.42444","5"],
    [4555,"HCEP03730564","2023-11-14 19:15:00","12.1741","3.57301","26.527","2.913","7.58","0.745","4.259","0","0","30.713","4.80577","32.9","0","SATNPRO1963","30.18","0.42272","5"],
    [4556,"HCEP03730564","2023-11-14 19:30:00","12.1768","3.57399","26.319","2.923","7.58","0.745","4.259","0","0","30.7203","4.80675","33.02","0","SATNPRO1963","30.442","0.4264","5"],
    [4557,"HCEP03730564","2023-11-14 19:45:00","12.173400000000001","3.57362","26.106","2.854","7.58","0.745","4.259","0","0","30.7196","4.80669","32.24","0","SATNPRO1963","30.464","0.42672","5"],
    [4558,"HCEP03730564","2023-11-14 20:00:00","12.1851","3.57773","25.897","2.865","7.58","0.745","4.259","0","0","30.7493","4.8107","32.38","0","SATNPRO1963","30.695999999999998","0.42996","5"],
    [4559,"HCEP03730564","2023-11-14 20:15:00","12.1861","3.5783","25.675","2.894","7.58","0.745","4.259","0","0","30.754","4.81134","32.71","0","SATNPRO1963","30.818","0.43164","5"],
    [4560,"HCEP03730564","2023-11-14 20:30:00","12.1847","3.57759","25.444","2.89","7.58","0.745","4.259","0","0","30.7486","4.81058","32.66","0","SATNPRO1963","30.942","0.4334","5"],
    [4561,"HCEP03730564","2023-11-14 20:45:00","12.1842","3.57747","25.202","2.873","7.58","0.745","4.259","0","0","30.7479","4.81048","32.47","0","SATNPRO1963","30.308","0.4245","5"],
    [4562,"HCEP03730564","2023-11-14 21:00:00","12.1839","3.57747","24.958","2.856","7.58","0.745","4.259","0","0","30.7483","4.81052","32.27","0","SATNPRO1963","30.544","0.4278","5"],
    [4563,"HCEP03730564","2023-11-14 21:15:00","12.1827","3.57712","24.706","2.84","7.58","0.745","4.259","0","0","30.7459","4.81019","32.09","0","SATNPRO1963","30.886","0.43262","5"],
    [4564,"HCEP03730564","2023-11-14 21:30:00","12.1817","3.57671","24.47","2.839","7.58","0.745","4.259","0","0","30.7429","4.80976","32.08","0","SATNPRO1963","30.784","0.4312","5"],
    [4565,"HCEP03730564","2023-11-14 21:45:00","12.1813","3.57652","24.25","2.84","7.58","0.745","4.259","0","0","30.7416","4.80958","32.09","0","SATNPRO1963","30.71","0.43012","5"],
    [4566,"HCEP03730564","2023-11-14 22:00:00","12.1824","3.57708","24.061","2.83","7.58","0.745","4.259","0","0","30.7461","4.81018","31.98","0","SATNPRO1963","30.404","0.42584","5"],
    [4567,"HCEP03730564","2023-11-14 22:15:00","12.1816","3.5766","23.91","2.852","7.58","0.745","4.259","0","0","30.7422","4.80963","32.22","0","SATNPRO1963","30.654","0.42932","5"],
    [4568,"HCEP03730564","2023-11-14 22:30:00","12.182","3.57652","23.823","2.87","7.58","0.745","4.259","0","0","30.7411","4.80947","32.43","0","SATNPRO1963","30.928","0.4332","5"],
    [4569,"HCEP03730564","2023-11-14 22:45:00","12.1815","3.57675","23.77","2.873","7.58","0.745","4.259","0","0","30.7437","4.80985","32.46","0","SATNPRO1963","30.846","0.43204","5"],
    [4570,"HCEP03730564","2023-11-14 23:00:00","12.1825","3.57688","23.757","2.859","7.59","0.745","4.259","0","0","30.7442","4.8099","32.3","0","SATNPRO1963","30.596","0.42854","5"],
    [4571,"HCEP03730564","2023-11-14 23:15:00","12.1811","3.57669","23.783","2.853","7.59","0.745","4.259","0","0","30.7435","4.80981","32.24","0","SATNPRO1963","30.556","0.42802","5"],
    [4572,"HCEP03730564","2023-11-14 23:30:00","12.1791","3.57606","23.787","2.84","7.58","0.745","4.259","0","0","30.7391","4.80922","32.09","0","SATNPRO1963","30.802","0.43144","5"],
    [4573,"HCEP03730564","2023-11-14 23:45:00","12.1744","3.57445","23.834","2.811","7.58","0.745","4.259","0","0","30.7277","4.80769","31.75","0","SATNPRO1963","30.776","0.43108","5"],
    [4574,"HCEP03730564","2023-11-15 00:00:00","12.1768","3.57557","23.949","2.799","7.58","0.745","4.259","0","0","30.7363","4.80887","31.63","0","SATNPRO1963","30.626","0.42898","5"],
    [4575,"HCEP03730564","2023-11-15 00:15:00","12.174","3.57458","24.057","2.784","7.58","0.745","4.259","0","0","30.7291","4.8079","31.45","0","SATNPRO1963","30.61","0.42876","5"],
    [4576,"HCEP03730564","2023-11-15 00:30:00","12.1665","3.57233","24.21","2.755","7.58","0.745","4.259","0","0","30.7138","4.80585","31.11","0","SATNPRO1963","30.692","0.42988","5"],
    [4577,"HCEP03730564","2023-11-15 00:45:00","12.1628","3.56967","24.348","2.733","7.58","0.745","4.259","0","0","30.6913","4.80275","30.86","0","SATNPRO1963","30.516","0.42742","5"],
    [4578,"HCEP03730564","2023-11-15 01:00:00","12.1552","3.56776","24.524","2.736","7.58","0.745","4.259","0","0","30.6792","4.80116","30.88","0","SATNPRO1963","30.426000000000002","0.42618","5"],
    [4579,"HCEP03730564","2023-11-15 01:15:00","12.1477","3.56544","24.695","2.742","7.58","0.745","4.259","0","0","30.6632","4.79901","30.95","0","SATNPRO1963","30.262","0.42386","5"],
    [4580,"HCEP03730564","2023-11-15 01:30:00","12.1491","3.56529","24.899","2.743","7.58","0.745","4.259","0","0","30.6605","4.79862","30.95","0","SATNPRO1963","30.144000000000002","0.42224","5"],
    [4581,"HCEP03730564","2023-11-15 01:45:00","12.1576","3.56919","25.063","2.731","7.57","0.745","4.259","0","0","30.6907","4.80277","30.83","0","SATNPRO1963","29.856","0.41822","5"],
    [4582,"HCEP03730564","2023-11-15 02:00:00","12.1607","3.57053","25.233","2.719","7.57","0.745","4.259","0","0","30.7009","4.80417","30.7","0","SATNPRO1963","30.006","0.4203","5"],
    [4583,"HCEP03730564","2023-11-15 02:15:00","12.1641","3.57116","25.41","2.721","7.57","0.745","4.259","0","0","30.7041","4.80459","30.72","0","SATNPRO1963","29.74","0.41658","5"],
    [4584,"HCEP03730564","2023-11-15 02:30:00","12.1696","3.57341","25.629","2.72","7.57","0.745","4.259","0","0","30.7209","4.8069","30.72","0","SATNPRO1963","29.85","0.41806","5"],
    [4585,"HCEP03730564","2023-11-15 02:45:00","12.1673","3.57264","25.846","2.716","7.57","0.745","4.259","0","0","30.7154","4.80616","30.67","0","SATNPRO1963","30.108","0.42174","5"],
    [4586,"HCEP03730564","2023-11-15 03:00:00","12.1679","3.57243","26.049","2.71","7.57","0.745","4.259","0","0","30.7128","4.8058","30.61","0","SATNPRO1963","30.108","0.42172","5"],
    [4587,"HCEP03730564","2023-11-15 03:15:00","12.1685","3.57268","26.257","2.702","7.57","0.745","4.259","0","0","30.7146","4.80606","30.51","0","SATNPRO1963","29.998","0.42018","5"],
    [4588,"HCEP03730564","2023-11-15 03:30:00","12.1655","3.57177","26.495","2.725","7.57","0.745","4.259","0","0","30.7082","4.80521","30.78","0","SATNPRO1963","30.138","0.42216","5"],
    [4589,"HCEP03730564","2023-11-15 03:45:00","12.1613","3.56987","26.688","2.775","7.57","0.745","4.259","0","0","30.6935","4.80321","31.34","0","SATNPRO1963","30.306","0.42448","5"],
    [4590,"HCEP03730564","2023-11-15 04:00:00","12.1591","3.56898","26.891","2.807","7.57","0.745","4.259","0","0","30.6867","4.80229","31.7","0","SATNPRO1963","30.154","0.42236","5"],
    [4591,"HCEP03730564","2023-11-15 04:15:00","12.1688","3.57304","27.077","2.752","7.58","0.745","4.259","0","0","30.7175","4.8065","31.08","0","SATNPRO1963","30.034","0.42066","5"],
    [4592,"HCEP03730564","2023-11-15 04:30:00","12.1694","3.57324","27.246","2.7","7.57","0.745","4.259","0","0","30.7188","4.8067","30.5","0","SATNPRO1963","29.978","0.41986","5"],
    [4593,"HCEP03730564","2023-11-15 04:45:00","12.1695","3.57346","27.41","2.674","7.57","0.745","4.259","0","0","30.7208","4.80698","30.2","0","SATNPRO1963","30.396","0.4258","5"],
    [4594,"HCEP03730564","2023-11-15 05:00:00","12.1695","3.57341","27.551","2.676","7.56","0.745","4.259","0","0","30.7202","4.80691","30.23","0","SATNPRO1963","30.488","0.42706","5"],
    [4595,"HCEP03730564","2023-11-15 05:15:00","12.1693","3.57329","27.677","2.657","7.56","0.745","4.259","0","0","30.7192","4.80677","30.01","0","SATNPRO1963","30.278","0.42408","5"],
    [4596,"HCEP03730564","2023-11-15 05:30:00","12.1688","3.57318","27.789","2.658","7.56","0.745","4.259","0","0","30.7186","4.8067","30.03","0","SATNPRO1963","30.201999999999998","0.42302","5"],
    [4597,"HCEP03730564","2023-11-15 05:45:00","12.1689","3.57325","27.887","2.66","7.56","0.745","4.259","0","0","30.719","4.80677","30.04","0","SATNPRO1963","29.992","0.4201","5"],
    [4598,"HCEP03730564","2023-11-15 06:00:00","12.1688","3.57309","27.967","2.655","7.56","0.745","4.259","0","0","30.7177","4.80658","29.98","0","SATNPRO1963","30.108","0.42168","5"],
    [4599,"HCEP03730564","2023-11-15 06:15:00","12.168","3.57257","27.98","2.715","7.57","0.745","4.259","0","0","30.7132","4.80596","30.66","0","SATNPRO1963","29.964","0.4197","5"],
    [4600,"HCEP03730564","2023-11-15 06:30:00","12.1677","3.57252","28.01","2.728","7.56","0.745","4.259","0","0","30.713","4.80594","30.82","0","SATNPRO1963","30.16","0.42248","5"],
    [4601,"HCEP03730564","2023-11-15 06:45:00","12.1613","3.57009","28.05","2.721","7.57","0.745","4.259","0","0","30.6951","4.8035","30.73","0","SATNPRO1963","30.1","0.4216","5"],
    [4602,"HCEP03730564","2023-11-15 07:00:00","12.1647","3.57169","28.051","2.669","7.56","0.745","4.259","0","0","30.7076","4.80523","30.14","0","SATNPRO1963","30.238","0.4235","5"],
    [4603,"HCEP03730564","2023-11-15 07:15:00","12.1601","3.57029","28.074","2.602","7.56","0.745","4.259","0","0","30.6979","4.80392","29.38","0","SATNPRO1963","30.498","0.42718","5"],
    [4604,"HCEP03730564","2023-11-15 07:30:00","12.1514","3.56716","28.036","2.589","7.55","0.745","4.259","0","0","30.6753","4.80085","29.22","0","SATNPRO1963","30.346","0.42502","5"],
    [4605,"HCEP03730564","2023-11-15 07:45:00","12.1581","3.56977","27.983","2.548","7.55","0.745","4.259","0","0","30.6947","4.80348","28.77","0","SATNPRO1963","30.078","0.42132","5"],
    [4606,"HCEP03730564","2023-11-15 08:00:00","12.1565","3.56909","27.926","2.548","7.55","0.745","4.259","0","0","30.6896","4.80279","28.77","0","SATNPRO1963","29.695999999999998","0.41596","5"],
    [4607,"HCEP03730564","2023-11-15 08:15:00","12.1602","3.57033","27.797","2.549","7.55","0.745","4.259","0","0","30.6983","4.80396","28.78","0","SATNPRO1963","29.338","0.41094","5"],
    [4608,"HCEP03730564","2023-11-15 08:30:00","12.1675","3.57305","27.782","2.549","7.55","0.745","4.259","0","0","30.7184","4.80668","28.79","0","SATNPRO1963","29.2","0.40896","5"],
    [4609,"HCEP03730564","2023-11-15 08:45:00","12.169","3.57355","27.733","2.578","7.55","0.745","4.259","0","0","30.7219","4.80716","29.12","0","SATNPRO1963","29.182","0.40874","5"],
    [4610,"HCEP03730564","2023-11-15 09:00:00","12.1681","3.57273","27.67","2.59","7.55","0.745","4.259","0","0","30.7148","4.80618","29.25","0","SATNPRO1963","29.142","0.40818","5"],
    [4611,"HCEP03730564","2023-11-15 09:15:00","12.168","3.57259","27.59","2.602","7.55","0.745","4.259","0","0","30.7137","4.80601","29.39","0","SATNPRO1963","29.57","0.41414","5"],
    [4612,"HCEP03730564","2023-11-15 09:30:00","12.1551","3.56865","27.508","2.567","7.55","0.745","4.259","0","0","30.6867","4.80237","28.98","0","SATNPRO1963","29.346","0.41102","5"],
    [4613,"HCEP03730564","2023-11-15 09:45:00","12.1534","3.56787","27.425","2.541","7.55","0.745","4.259","0","0","30.6806","4.80153","28.68","0","SATNPRO1963","29.622","0.4149","5"],
    [4614,"HCEP03730564","2023-11-15 10:00:00","12.1542","3.56861","27.371","2.534","7.55","0.745","4.259","0","0","30.6871","4.80243","28.61","0","SATNPRO1963","29.62","0.4149","5"],
    [4615,"HCEP03730564","2023-11-15 10:15:00","12.1476","3.56625","27.354","2.522","7.55","0.745","4.259","0","0","30.6699","4.80011","28.46","0","SATNPRO1963","29.7","0.41604","5"],
    [4616,"HCEP03730564","2023-11-15 10:30:00","12.1424","3.56427","27.215","2.508","7.54","0.745","4.259","0","0","30.6553","4.79811","28.3","0","SATNPRO1963","29.162","0.40848","5"],
    [4617,"HCEP03730564","2023-11-15 10:45:00","12.1475","3.56594","27.101","2.485","7.54","0.745","4.259","0","0","30.6671","4.7997","28.05","0","SATNPRO1963","29.169999999999998","0.40858","5"],
    [4618,"HCEP03730564","2023-11-15 11:00:00","12.145","3.56528","27.022","2.485","7.54","0.745","4.259","0","0","30.6629","4.79914","28.05","0","SATNPRO1963","29.064","0.40708","5"],
    [4619,"HCEP03730564","2023-11-15 11:15:00","12.1463","3.56556","26.963","2.485","7.54","0.745","4.259","0","0","30.6646","4.79936","28.04","0","SATNPRO1963","29.09","0.40744","5"],
    [4620,"HCEP03730564","2023-11-15 11:30:00","12.1487","3.56667","26.894","2.468","7.54","0.745","4.259","0","0","30.6731","4.80052","27.86","0","SATNPRO1963","29.004","0.40626","5"],
    [4621,"HCEP03730564","2023-11-15 11:45:00","12.142","3.56429","26.865","2.44","7.54","0.745","4.259","0","0","30.656","4.7982","27.54","0","SATNPRO1963","29.03","0.40662","5"],
    [4622,"HCEP03730564","2023-11-15 12:00:00","12.1376","3.56294","26.811","2.425","7.54","0.745","4.259","0","0","30.6467","4.79694","27.37","0","SATNPRO1963","28.904","0.40488","5"],
    [4623,"HCEP03730564","2023-11-15 12:15:00","12.1327","3.56101","26.802","2.432","7.54","0.745","4.259","0","0","30.6323","4.79498","27.44","0","SATNPRO1963","28.938","0.40534","5"],
    [4624,"HCEP03730564","2023-11-15 12:30:00","12.1268","3.55893","26.806","2.436","7.54","0.745","4.259","0","0","30.6173","4.79294","27.48","0","SATNPRO1963","28.936","0.40528","5"],
    [4625,"HCEP03730564","2023-11-15 12:45:00","12.1275","3.55857","26.821","2.448","7.54","0.745","4.259","0","0","30.6132","4.79236","27.61","0","SATNPRO1963","28.574","0.4002","5"],
    [4626,"HCEP03730564","2023-11-15 13:00:00","12.1226","3.55709","26.86","2.451","7.54","0.745","4.259","0","0","30.6031","4.79101","27.64","0","SATNPRO1963","28.644000000000002","0.4012","5"],
    [4627,"HCEP03730564","2023-11-15 13:15:00","12.1223","3.55685","26.884","2.449","7.54","0.745","4.259","0","0","30.6011","4.79072","27.61","0","SATNPRO1963","28.454","0.39852","5"],
    [4628,"HCEP03730564","2023-11-15 13:30:00","12.1217","3.55649","26.938","2.475","7.54","0.745","4.259","0","0","30.5981","4.79031","27.9","0","SATNPRO1963","28.23","0.3954","5"],
    [4629,"HCEP03730564","2023-11-15 13:45:00","12.1205","3.55595","26.996","2.5","7.54","0.745","4.259","0","0","30.5939","4.78974","28.19","0","SATNPRO1963","28.316","0.39662","5"],
    [4630,"HCEP03730564","2023-11-15 14:00:00","12.1204","3.55602","27.051","2.493","7.54","0.745","4.259","0","0","30.5946","4.78984","28.11","0","SATNPRO1963","28.212","0.39514","5"],
    [4631,"HCEP03730564","2023-11-15 14:15:00","12.1216","3.55636","27.19","2.496","7.54","0.745","4.259","0","0","30.5969","4.79016","28.14","0","SATNPRO1963","28.214","0.39518","5"],
    [4632,"HCEP03730564","2023-11-15 14:30:00","12.1245","3.55715","27.249","2.508","7.54","0.745","4.259","0","0","30.602","4.79085","28.28","0","SATNPRO1963","28.25","0.39566","5"],
    [4633,"HCEP03730564","2023-11-15 14:45:00","12.1274","3.55825","27.303","2.525","7.55","0.745","4.259","0","0","30.61","4.79194","28.47","0","SATNPRO1963","28.32","0.39666","5"],
    [4634,"HCEP03730564","2023-11-15 15:00:00","12.1349","3.56049","27.357","2.579","7.55","0.745","4.259","0","0","30.6253","4.79399","29.1","0","SATNPRO1963","28.278000000000002","0.39606","5"],
    [4635,"HCEP03730564","2023-11-15 15:15:00","12.1445","3.56328","27.419","2.69","7.56","0.745","4.259","0","0","30.644","4.7965","30.35","0","SATNPRO1963","28.454","0.39856","5"],
    [4636,"HCEP03730564","2023-11-15 15:30:00","12.1475","3.56401","27.475","2.753","7.56","0.745","4.259","0","0","30.6486","4.7971","31.07","0","SATNPRO1963","28.306","0.39648","5"],
    [4637,"HCEP03730564","2023-11-15 15:45:00","12.1479","3.56421","27.535","2.766","7.57","0.745","4.259","0","0","30.6501","4.79732","31.21","0","SATNPRO1963","28.748","0.4027","5"],
    [4638,"HCEP03730564","2023-11-15 16:00:00","12.1502","3.56464","27.572","2.791","7.57","0.745","4.259","0","0","30.6524","4.79761","31.5","0","SATNPRO1963","28.858","0.40424","5"],
    [4639,"HCEP03730564","2023-11-15 16:15:00","12.1505","3.56474","27.599","2.781","7.57","0.745","4.259","0","0","30.653","4.79769","31.38","0","SATNPRO1963","29.728","0.41638","5"],
    [4640,"HCEP03730564","2023-11-15 16:30:00","12.1494","3.56461","27.651","2.758","7.57","0.745","4.259","0","0","30.6527","4.79767","31.12","0","SATNPRO1963","29.666","0.41554","5"],
    [4641,"HCEP03730564","2023-11-15 16:45:00","12.1488","3.56446","27.685","2.74","7.57","0.745","4.259","0","0","30.6518","4.79755","30.92","0","SATNPRO1963","30.058","0.42096","5"],
    [4642,"HCEP03730564","2023-11-15 17:00:00","12.1482","3.56433","27.688","2.718","7.57","0.745","4.259","0","0","30.6509","4.79744","30.68","0","SATNPRO1963","30.082","0.42136","5"],
    [4643,"HCEP03730564","2023-11-15 17:15:00","12.1481","3.56438","27.674","2.703","7.57","0.745","4.259","0","0","30.6515","4.79753","30.5","0","SATNPRO1963","29.728","0.4164","5"],
    [4644,"HCEP03730564","2023-11-15 17:30:00","12.1493","3.56464","27.649","2.703","7.57","0.745","4.259","0","0","30.6531","4.79773","30.51","0","SATNPRO1963","29.864","0.4183","5"],
    [4645,"HCEP03730564","2023-11-15 17:45:00","12.1501","3.56495","27.628","2.7","7.56","0.745","4.259","0","0","30.6554","4.79804","30.47","0","SATNPRO1963","29.688000000000002","0.41586","5"],
    [4646,"HCEP03730564","2023-11-15 18:00:00","12.1524","3.56583","27.582","2.69","7.56","0.745","4.259","0","0","30.6618","4.79892","30.36","0","SATNPRO1963","29.738","0.41654","5"],
    [4647,"HCEP03730564","2023-11-15 18:15:00","12.1598","3.56858","27.503","2.713","7.56","0.745","4.259","0","0","30.6821","4.80167","30.63","0","SATNPRO1963","29.68","0.41572","5"],
    [4648,"HCEP03730564","2023-11-15 18:30:00","12.1636","3.56988","27.397","2.731","7.56","0.745","4.259","0","0","30.6914","4.80292","30.84","0","SATNPRO1963","29.73","0.41638","5"],
    [4649,"HCEP03730564","2023-11-15 18:45:00","12.1664","3.57082","27.286","2.736","7.56","0.745","4.259","0","0","30.6982","4.80382","30.9","0","SATNPRO1963","29.662","0.41548","5"],
    [4650,"HCEP03730564","2023-11-15 19:00:00","12.1676","3.57134","27.159","2.746","7.57","0.745","4.259","0","0","30.7023","4.80438","31.01","0","SATNPRO1963","29.436","0.41232","5"],
    [4651,"HCEP03730564","2023-11-15 19:15:00","12.1661","3.57078","26.998","2.739","7.57","0.745","4.259","0","0","30.6982","4.80382","30.93","0","SATNPRO1963","30.07","0.4212","5"],
    [4652,"HCEP03730564","2023-11-15 19:30:00","12.1653","3.57038","26.818","2.746","7.57","0.745","4.259","0","0","30.6951","4.80338","31.01","0","SATNPRO1963","29.862","0.41826","5"],
    [4653,"HCEP03730564","2023-11-15 19:45:00","12.1645","3.5702","26.634","2.75","7.56","0.745","4.259","0","0","30.694","4.80324","31.06","0","SATNPRO1963","30.008","0.42028","5"],
    [4654,"HCEP03730564","2023-11-15 20:00:00","12.1639","3.57009","26.441","2.745","7.56","0.745","4.259","0","0","30.6936","4.80317","31","0","SATNPRO1963","30.612000000000002","0.42874","5"],
    [4655,"HCEP03730564","2023-11-15 20:15:00","12.16","3.5685","26.232","2.733","7.56","0.745","4.259","0","0","30.6817","4.80153","30.86","0","SATNPRO1963","30.022","0.4205","5"],
    [4656,"HCEP03730564","2023-11-15 20:30:00","12.1591","3.56826","25.994","2.718","7.56","0.745","4.259","0","0","30.6802","4.80132","30.68","0","SATNPRO1963","30.062","0.42104","5"],
    [4657,"HCEP03730564","2023-11-15 20:45:00","12.1584","3.56794","25.752","2.709","7.56","0.745","4.259","0","0","30.6778","4.80099","30.58","0","SATNPRO1963","30.042","0.4208","5"],
    [4658,"HCEP03730564","2023-11-15 21:00:00","12.1587","3.56836","25.485","2.694","7.56","0.745","4.259","0","0","30.6817","4.80151","30.41","0","SATNPRO1963","30.048000000000002","0.42088","5"],
    [4659,"HCEP03730564","2023-11-15 21:15:00","12.158","3.56795","25.249","2.691","7.56","0.745","4.259","0","0","30.6785","4.80105","30.38","0","SATNPRO1963","29.924","0.41914","5"],
    [4660,"HCEP03730564","2023-11-15 21:30:00","12.1562","3.56684","25.011","2.677","7.56","0.745","4.259","0","0","30.6695","4.7998","30.22","0","SATNPRO1963","29.878","0.4185","5"],
    [4661,"HCEP03730564","2023-11-15 21:45:00","12.1548","3.56704","24.758","2.666","7.56","0.745","4.259","0","0","30.6726","4.80024","30.09","0","SATNPRO1963","29.788","0.41722","5"],
    [4662,"HCEP03730564","2023-11-15 22:00:00","12.1522","3.56582","24.528","2.663","7.56","0.745","4.259","0","0","30.6632","4.79894","30.06","0","SATNPRO1963","29.740000000000002","0.41654","5"],
    [4663,"HCEP03730564","2023-11-15 22:15:00","12.1526","3.56573","24.325","2.673","7.56","0.745","4.259","0","0","30.662","4.79875","30.17","0","SATNPRO1963","29.626","0.41496","5"],
    [4664,"HCEP03730564","2023-11-15 22:30:00","12.1521","3.56559","24.126","2.689","7.56","0.745","4.259","0","0","30.6612","4.79864","30.35","0","SATNPRO1963","29.516","0.41344","5"],
    [4665,"HCEP03730564","2023-11-15 22:45:00","12.1511","3.56506","23.979","2.706","7.56","0.745","4.259","0","0","30.657","4.79805","30.54","0","SATNPRO1963","29.592","0.41452","5"],
    [4666,"HCEP03730564","2023-11-15 23:00:00","12.1526","3.56591","23.866","2.684","7.56","0.745","4.259","0","0","30.6639","4.799","30.29","0","SATNPRO1963","29.541999999999998","0.41374","5"],
    [4667,"HCEP03730564","2023-11-15 23:15:00","12.153","3.56626","23.78","2.64","7.56","0.745","4.259","0","0","30.667","4.79942","29.79","0","SATNPRO1963","29.79","0.41726","5"],
    [4668,"HCEP03730564","2023-11-15 23:30:00","12.1532","3.56653","23.755","2.594","7.55","0.745","4.259","0","0","30.6693","4.79975","29.28","0","SATNPRO1963","29.634","0.4151","5"],
    [4669,"HCEP03730564","2023-11-15 23:45:00","12.1532","3.56666","23.705","2.562","7.55","0.745","4.259","0","0","30.6707","4.79994","28.92","0","SATNPRO1963","29.816","0.41762","5"],
    [4670,"HCEP03730564","2023-11-16 00:00:00","12.1532","3.56683","23.707","2.547","7.55","0.745","4.259","0","0","30.6723","4.80017","28.75","0","SATNPRO1963","29.66","0.41546","5"],
    [4671,"HCEP03730564","2023-11-16 00:15:00","12.1536","3.5671","23.751","2.509","7.55","0.745","4.259","0","0","30.6745","4.80048","28.32","0","SATNPRO1963","29.486","0.413","5"],
    [4672,"HCEP03730564","2023-11-16 00:30:00","12.1534","3.56737","23.82","2.47","7.54","0.745","4.259","0","0","30.6773","4.80087","27.89","0","SATNPRO1963","29.25","0.40968","5"],
    [4673,"HCEP03730564","2023-11-16 00:45:00","12.1552","3.56827","23.911","2.434","7.54","0.745","4.259","0","0","30.6843","4.80185","27.48","0","SATNPRO1963","29.152","0.40834","5"],
    [4674,"HCEP03730564","2023-11-16 01:00:00","12.1571","3.56919","23.984","2.433","7.54","0.745","4.259","0","0","30.6915","4.80283","27.47","0","SATNPRO1963","29.03","0.40658","5"],
    [4675,"HCEP03730564","2023-11-16 01:15:00","12.1587","3.56966","24.218","2.443","7.54","0.745","4.259","0","0","30.6947","4.80327","27.59","0","SATNPRO1963","28.84","0.40392","5"],
    [4676,"HCEP03730564","2023-11-16 01:30:00","12.1591","3.56981","24.374","2.45","7.54","0.745","4.259","0","0","30.6957","4.80341","27.66","0","SATNPRO1963","28.958","0.40562","5"],
    [4677,"HCEP03730564","2023-11-16 01:45:00","12.1593","3.57004","24.526","2.448","7.54","0.745","4.259","0","0","30.6976","4.80369","27.65","0","SATNPRO1963","28.962","0.40566","5"],
    [4678,"HCEP03730564","2023-11-16 02:00:00","12.1597","3.57009","24.712","2.445","7.54","0.745","4.259","0","0","30.6977","4.80372","27.61","0","SATNPRO1963","29.024","0.40652","5"],
    [4679,"HCEP03730564","2023-11-16 02:15:00","12.1585","3.56975","24.901","2.454","7.54","0.745","4.259","0","0","30.6954","4.80342","27.71","0","SATNPRO1963","28.932","0.40524","5"],
    [4680,"HCEP03730564","2023-11-16 02:30:00","12.1581","3.56926","25.083","2.46","7.55","0.745","4.259","0","0","30.691","4.80281","27.77","0","SATNPRO1963","29.124","0.4079","5"],
    [4681,"HCEP03730564","2023-11-16 02:45:00","12.1562","3.56905","25.29","2.458","7.55","0.745","4.259","0","0","30.6904","4.80276","27.75","0","SATNPRO1963","28.916","0.405","5"],
    [4682,"HCEP03730564","2023-11-16 03:00:00","12.1534","3.56528","25.493","2.45","7.55","0.745","4.259","0","0","30.6566","4.79804","27.65","0","SATNPRO1963","28.976","0.40584","5"],
    [4683,"HCEP03730564","2023-11-16 03:15:00","12.1412","3.56325","25.694","2.454","7.55","0.745","4.259","0","0","30.6472","4.79689","27.69","0","SATNPRO1963","29.084","0.40736","5"],
    [4684,"HCEP03730564","2023-11-16 03:30:00","12.1439","3.56457","25.917","2.46","7.55","0.745","4.259","0","0","30.6575","4.79833","27.76","0","SATNPRO1963","28.874","0.40444","5"],
    [4685,"HCEP03730564","2023-11-16 03:45:00","12.1456","3.56516","26.15","2.457","7.55","0.745","4.259","0","0","30.6616","4.79889","27.73","0","SATNPRO1963","28.984","0.40598","5"],
    [4686,"HCEP03730564","2023-11-16 04:00:00","12.1438","3.56449","26.362","2.456","7.55","0.745","4.259","0","0","30.6567","4.79824","27.71","0","SATNPRO1963","28.956","0.40556","5"],
    [4687,"HCEP03730564","2023-11-16 04:15:00","12.1461","3.56507","26.599","2.449","7.55","0.745","4.259","0","0","30.6601","4.79871","27.63","0","SATNPRO1963","28.78","0.40312","5"],
    [4688,"HCEP03730564","2023-11-16 04:30:00","12.1416","3.56323","26.813","2.442","7.55","0.745","4.259","0","0","30.6462","4.79682","27.55","0","SATNPRO1963","28.858","0.40418","5"],
    [4689,"HCEP03730564","2023-11-16 04:45:00","12.1443","3.56309","27.001","2.525","7.55","0.745","4.259","0","0","30.6426","4.79628","28.49","0","SATNPRO1963","28.872","0.40438","5"],
    [4690,"HCEP03730564","2023-11-16 05:00:00","12.1418","3.56211","27.185","2.639","7.56","0.745","4.259","0","0","30.6353","4.79529","29.77","0","SATNPRO1963","28.844","0.40404","5"],
    [4691,"HCEP03730564","2023-11-16 05:15:00","12.1436","3.56324","27.342","2.678","7.56","0.745","4.259","0","0","30.6445","4.79658","30.21","0","SATNPRO1963","28.718","0.40224","5"],
    [4692,"HCEP03730564","2023-11-16 05:30:00","12.1481","3.5653","27.489","2.586","7.56","0.745","4.259","0","0","30.6604","4.79876","29.18","0","SATNPRO1963","28.714","0.40216","5"],
    [4693,"HCEP03730564","2023-11-16 05:45:00","12.1526","3.56717","27.62","2.479","7.55","0.745","4.259","0","0","30.6745","4.80069","27.98","0","SATNPRO1963","29.368000000000002","0.41132","5"],
    [4694,"HCEP03730564","2023-11-16 06:00:00","12.1529","3.56785","27.745","2.419","7.54","0.745","4.259","0","0","30.6807","4.80157","27.31","0","SATNPRO1963","29.388","0.4116","5"],
    [4695,"HCEP03730564","2023-11-16 06:15:00","12.1518","3.56731","27.843","2.39","7.54","0.745","4.259","0","0","30.6763","4.80098","26.98","0","SATNPRO1963","29.56","0.414","5"],
    [4696,"HCEP03730564","2023-11-16 06:30:00","12.1517","3.56738","27.917","2.398","7.54","0.745","4.259","0","0","30.6771","4.80109","27.07","0","SATNPRO1963","29.168","0.4086","5"],
    [4697,"HCEP03730564","2023-11-16 06:45:00","12.1512","3.56706","27.953","2.395","7.54","0.745","4.259","0","0","30.6745","4.80074","27.03","0","SATNPRO1963","28.962","0.4057","5"],
    [4698,"HCEP03730564","2023-11-16 07:00:00","12.1516","3.56729","28.026","2.397","7.54","0.745","4.259","0","0","30.6764","4.801","27.06","0","SATNPRO1963","28.758","0.40282","5"],
    [4699,"HCEP03730564","2023-11-16 07:15:00","12.1525","3.56753","28.067","2.392","7.54","0.745","4.259","0","0","30.6779","4.8012","27","0","SATNPRO1963","28.98","0.40592","5"],
    [4700,"HCEP03730564","2023-11-16 07:30:00","12.1521","3.56719","28.098","2.407","7.54","0.745","4.259","0","0","30.6749","4.80079","27.17","0","SATNPRO1963","28.558","0.40006","5"],
    [4701,"HCEP03730564","2023-11-16 07:45:00","12.1493","3.56576","28.131","2.452","7.54","0.745","4.259","0","0","30.6635","4.79923","27.67","0","SATNPRO1963","28.936","0.40532","5"],
    [4702,"HCEP03730564","2023-11-16 08:00:00","12.1464","3.56527","28.082","2.409","7.54","0.745","4.259","0","0","30.6613","4.79894","27.19","0","SATNPRO1963","28.808","0.40352","5"],
    [4703,"HCEP03730564","2023-11-16 08:15:00","12.1443","3.56448","28.094","2.414","7.53","0.745","4.259","0","0","30.6554","4.79814","27.25","0","SATNPRO1963","28.75","0.40274","5"],
    [4704,"HCEP03730564","2023-11-16 08:30:00","12.1426","3.56396","28.061","2.405","7.54","0.745","4.259","0","0","30.6519","4.79767","27.14","0","SATNPRO1963","28.866","0.40436","5"],
    [4705,"HCEP03730564","2023-11-16 08:45:00","12.1407","3.56357","28.013","2.372","7.54","0.745","4.259","0","0","30.6497","4.79739","26.77","0","SATNPRO1963","28.854","0.40416","5"],
    [4706,"HCEP03730564","2023-11-16 09:00:00","12.1431","3.56479","27.883","2.284","7.53","0.745","4.259","0","0","30.6595","4.79873","25.77","0","SATNPRO1963","28.578","0.40028","5"],
    [4707,"HCEP03730564","2023-11-16 09:15:00","12.1445","3.56542","27.845","2.244","7.53","0.745","4.259","0","0","30.6644","4.79939","25.32","0","SATNPRO1963","28.924","0.40514","5"],
    [4708,"HCEP03730564","2023-11-16 09:30:00","12.1473","3.56641","27.803","2.255","7.53","0.745","4.259","0","0","30.6715","4.80036","25.45","0","SATNPRO1963","28.556","0.39998","5"],
    [4709,"HCEP03730564","2023-11-16 09:45:00","12.1487","3.56675","27.734","2.284","7.53","0.745","4.259","0","0","30.6737","4.80064","25.78","0","SATNPRO1963","28.532","0.39964","5"],
    [4710,"HCEP03730564","2023-11-16 10:00:00","12.1497","3.56689","27.659","2.303","7.52","0.745","4.259","0","0","30.6742","4.8007","25.99","0","SATNPRO1963","27.662","0.38748","5"],
    [4711,"HCEP03730564","2023-11-16 10:15:00","12.1505","3.56692","27.597","2.317","7.53","0.745","4.259","0","0","30.6739","4.80065","26.16","0","SATNPRO1963","27.956","0.39156","5"],
    [4712,"HCEP03730564","2023-11-16 10:30:00","12.1518","3.5676","27.521","2.317","7.53","0.745","4.259","0","0","30.6794","4.80139","26.16","0","SATNPRO1963","28.124","0.39396","5"],
    [4713,"HCEP03730564","2023-11-16 10:45:00","12.1522","3.5677","27.445","2.31","7.53","0.745","4.259","0","0","30.68","4.80147","26.08","0","SATNPRO1963","28.31","0.39656","5"],
    [4714,"HCEP03730564","2023-11-16 11:00:00","12.1518","3.5676","27.374","2.305","7.53","0.564","4.911","0.03","0.21","30.6793","4.80138","26.01","2","SATNPRO1963","28.288","0.39626","5"],
    [4715,"HCEP03730564","2023-11-16 11:15:00","12.1513","3.56739","27.289","2.299","7.53","0.624","4.396","0","0","30.6778","4.80117","25.96","2","SATNPRO1963","28.434","0.39826","5"],
    [4716,"HCEP03730564","2023-11-16 11:30:00","12.1512","3.56721","27.21","2.293","7.52","0.733","4.404","0.04","0.15","30.6762","4.80094","25.89","2","SATNPRO1963","28.418","0.39806","5"],
    [4717,"HCEP03730564","2023-11-16 11:45:00","12.1503","3.56688","27.146","2.316","7.52","0.575","4.327","0.04","0.25","30.6738","4.80061","26.14","2","SATNPRO1963","28.323999999999998","0.39672","5"],
    [4718,"HCEP03730564","2023-11-16 12:00:00","12.1509","3.56683","27.067","2.356","7.53","0.617","4.314","0.05","0.2","30.6728","4.80046","26.59","2","SATNPRO1963","28.232","0.39546","5"],
    [4719,"HCEP03730564","2023-11-16 12:15:00","12.1509","3.56685","27.001","2.396","7.53","0.59","4.06","0.09","0.01","30.6731","4.80048","27.05","2","SATNPRO1963","28.264","0.39588","5"],
    [4720,"HCEP03730564","2023-11-16 12:30:00","12.1515","3.56701","26.947","2.398","7.53","0.75","4.303","0.02","0.21","30.6741","4.80063","27.06","2","SATNPRO1963","28.39","0.39766","5"],
    [4721,"HCEP03730564","2023-11-16 12:45:00","12.1517","3.56706","26.92","2.396","7.53","0.641","3.781","0.11","0.24","30.6745","4.80067","27.04","2","SATNPRO1963","28.490000000000002","0.39902","5"],
    [4722,"HCEP03730564","2023-11-16 13:00:00","12.1516","3.56698","26.905","2.414","7.53","0.58","3.855","0.08","0.06","30.6738","4.80058","27.24","2","SATNPRO1963","28.694","0.40194","5"],
    [4723,"HCEP03730564","2023-11-16 13:15:00","12.1523","3.56717","26.891","2.427","7.53","0.633","5.334","0.07","1.87","30.6751","4.80074","27.4","2","SATNPRO1963","28.766000000000002","0.40292","5"],
    [4724,"HCEP03730564","2023-11-16 13:30:00","12.1522","3.56734","26.931","2.408","7.53","0.534","4.137","0.04","0.15","30.6767","4.80098","27.18","2","SATNPRO1963","28.828","0.4038","5"],
    [4725,"HCEP03730564","2023-11-16 13:45:00","12.1524","3.56719","26.963","2.408","7.54","0.564","4.195","0.03","0.02","30.6752","4.80076","27.18","2","SATNPRO1963","28.756","0.40278","5"],
    [4726,"HCEP03730564","2023-11-16 14:00:00","12.1518","3.56688","26.982","2.423","7.54","0.644","4.064","0.05","0.16","30.6727","4.80041","27.35","2","SATNPRO1963","28.796","0.40332","5"],
    [4727,"HCEP03730564","2023-11-16 14:15:00","12.1509","3.56638","26.994","2.441","7.54","0.749","4.938","0.21","0.23","30.6686","4.79986","27.56","2","SATNPRO1963","28.972","0.40582","5"],
    [4728,"HCEP03730564","2023-11-16 14:30:00","12.1534","3.56719","27.03","2.478","7.54","0.499","4.833","0.07","0.06","30.6743","4.80062","27.97","2","SATNPRO1963","28.684","0.4018","5"],
    [4729,"HCEP03730564","2023-11-16 14:45:00","12.1562","3.56803","27.07","2.522","7.54","0.565","4.727","0.1","0.18","30.68","4.80139","28.47","2","SATNPRO1963","28.924","0.4051","5"],
    [4730,"HCEP03730564","2023-11-16 15:00:00","12.1576","3.56858","27.178","2.544","7.55","0.663","4.5","0.15","0.06","30.6841","4.80196","28.72","2","SATNPRO1963","28.766000000000002","0.40292","5"],
    [4731,"HCEP03730564","2023-11-16 15:15:00","12.1556","3.56772","27.199","2.543","7.55","0.456","3.945","0.02","0.21","30.6775","4.80106","28.71","2","SATNPRO1963","28.79","0.40322","5"],
    [4732,"HCEP03730564","2023-11-16 15:30:00","12.1543","3.56728","27.251","2.53","7.55","0.525","4.234","0.04","0.09","30.6743","4.80062","28.56","2","SATNPRO1963","29.242","0.40958","5"],
    [4733,"HCEP03730564","2023-11-16 15:45:00","12.1538","3.56697","27.335","2.526","7.55","0.61","4.465","0.06","0.35","30.6717","4.80028","28.52","2","SATNPRO1963","29.508","0.4133","5"],
    [4734,"HCEP03730564","2023-11-16 16:00:00","12.1532","3.56687","27.349","2.52","7.55","0.529","4.252","0.06","0.31","30.6712","4.80021","28.44","2","SATNPRO1963","29.25","0.40968","5"],
    [4735,"HCEP03730564","2023-11-16 16:15:00","12.1528","3.56668","27.423","2.502","7.55","0.476","3.801","0.04","0.06","30.6698","4.80002","28.25","2","SATNPRO1963","29.446","0.41242","5"],
    [4736,"HCEP03730564","2023-11-16 16:30:00","12.152","3.56643","27.47","2.484","7.55","0.585","5.131","0.04","0.61","30.668","4.79979","28.03","2","SATNPRO1963","29.233999999999998","0.40944","5"],
    [4737,"HCEP03730564","2023-11-16 16:45:00","12.1522","3.56658","27.509","2.481","7.55","0.656","4.341","0.2","0.03","30.6692","4.79995","28.01","2","SATNPRO1963","29.104","0.40764","5"],
    [4738,"HCEP03730564","2023-11-16 17:00:00","12.1532","3.56661","27.547","2.501","7.55","0.561","4.33","0.06","0.13","30.6687","4.79987","28.24","2","SATNPRO1963","29.146","0.40824","5"],
    [4739,"HCEP03730564","2023-11-16 17:15:00","12.1542","3.56662","27.573","2.537","7.55","0.633","4.673","0.16","0.41","30.6679","4.79974","28.64","2","SATNPRO1963","29.062","0.40706","5"],
    [4740,"HCEP03730564","2023-11-16 17:30:00","12.1554","3.56673","27.595","2.587","7.55","0.594","7.03","0.14","1.14","30.668","4.79974","29.21","2","SATNPRO1963","29.01","0.40634","5"],
    [4741,"HCEP03730564","2023-11-16 17:45:00","12.1599","3.56774","27.601","2.653","7.55","0.426","3.92","0.01","0.27","30.674","4.80053","29.95","2","SATNPRO1963","29.026","0.40656","5"],
    [4742,"HCEP03730564","2023-11-16 18:00:00","12.1584","3.56742","27.582","2.66","7.55","0.521","4.485","0","0.11","30.6721","4.80028","30.03","2","SATNPRO1963","29.311999999999998","0.41058","5"],
    [4743,"HCEP03730564","2023-11-16 18:15:00","12.1615","3.56855","27.547","2.657","7.56","0.521","4.485","0","0.11","30.6803","4.8014","30","0","SATNPRO1963","29.316","0.4106","5"],
    [4744,"HCEP03730564","2023-11-16 18:30:00","12.1621","3.56873","27.513","2.654","7.56","0.521","4.485","0","0.11","30.6816","4.80156","29.97","0","SATNPRO1963","29.404","0.41186","5"],
    [4745,"HCEP03730564","2023-11-16 18:45:00","12.1625","3.56889","27.465","2.641","7.56","0.521","4.485","0","0.11","30.6829","4.80174","29.82","0","SATNPRO1963","29.852","0.41812","5"],
    [4746,"HCEP03730564","2023-11-16 19:00:00","12.1632","3.56922","27.398","2.641","7.55","0.521","4.485","0","0.11","30.6855","4.8021","29.82","0","SATNPRO1963","29.490000000000002","0.41308","5"],
    [4747,"HCEP03730564","2023-11-16 19:15:00","12.1637","3.5695","27.296","2.63","7.55","0.521","4.485","0","0.11","30.6877","4.80239","29.7","0","SATNPRO1963","29.654","0.41538","5"],
    [4748,"HCEP03730564","2023-11-16 19:30:00","12.1642","3.56962","27.188","2.631","7.55","0.521","4.485","0","0.11","30.6886","4.8025","29.7","0","SATNPRO1963","29.662","0.41546","5"],
    [4749,"HCEP03730564","2023-11-16 19:45:00","12.1638","3.56963","27.045","2.618","7.55","0.521","4.485","0","0.11","30.6891","4.80257","29.56","0","SATNPRO1963","29.716","0.41622","5"],
    [4750,"HCEP03730564","2023-11-16 20:00:00","12.1638","3.56952","26.885","2.623","7.55","0.521","4.485","0","0.11","30.6881","4.80242","29.62","0","SATNPRO1963","29.688","0.41584","5"],
    [4751,"HCEP03730564","2023-11-16 20:15:00","12.1619","3.56953","26.709","2.574","7.55","0.521","4.485","0","0.11","30.6898","4.80267","29.06","0","SATNPRO1963","29.724","0.41634","5"],
    [4752,"HCEP03730564","2023-11-16 20:30:00","12.1637","3.57021","26.532","2.575","7.55","0.521","4.485","0","0.11","30.6949","4.80336","29.08","0","SATNPRO1963","29.72","0.41624","5"],
    [4753,"HCEP03730564","2023-11-16 20:45:00","12.1641","3.57045","26.312","2.582","7.55","0.521","4.485","0","0.11","30.697","4.80363","29.16","0","SATNPRO1963","29.47","0.41278","5"],
    [4754,"HCEP03730564","2023-11-16 21:00:00","12.164","3.57048","26.099","2.565","7.55","0.521","4.485","0","0.11","30.6973","4.80368","28.97","0","SATNPRO1963","29.7","0.416","5"],
    [4755,"HCEP03730564","2023-11-16 21:15:00","12.1637","3.5704","25.868","2.55","7.54","0.521","4.485","0","0.11","30.6969","4.80361","28.79","0","SATNPRO1963","29.634","0.4151","5"],
    [4756,"HCEP03730564","2023-11-16 21:30:00","12.1638","3.57052","25.647","2.533","7.54","0.521","4.485","0","0.11","30.6981","4.80376","28.61","0","SATNPRO1963","29.584","0.41436","5"],
    [4757,"HCEP03730564","2023-11-16 21:45:00","12.1648","3.57105","25.4","2.52","7.54","0.521","4.485","0","0.11","30.7024","4.80434","28.46","0","SATNPRO1963","29.782","0.41718","5"],
    [4758,"HCEP03730564","2023-11-16 22:00:00","12.1653","3.57122","25.168","2.523","7.54","0.521","4.485","0","0.11","30.7038","4.80452","28.49","0","SATNPRO1963","29.752","0.41676","5"],
    [4759,"HCEP03730564","2023-11-16 22:15:00","12.1651","3.57117","24.964","2.517","7.54","0.521","4.485","0","0.11","30.7036","4.80448","28.43","0","SATNPRO1963","29.49","0.41306","5"],
    [4760,"HCEP03730564","2023-11-16 22:30:00","12.165","3.57123","24.769","2.512","7.54","0.521","4.485","0","0.11","30.7042","4.80456","28.37","0","SATNPRO1963","29.576","0.41426","5"],
    [4761,"HCEP03730564","2023-11-16 22:45:00","12.1648","3.57107","24.542","2.516","7.54",null,null,null,null,"30.703","4.80438","28.42","2","SATNPRO1963","29.472","0.41282","5"],
    [4762,"HCEP03730564","2023-11-16 23:00:00","12.1655","3.57127","24.358","2.527","7.54",null,null,null,null,"30.7044","4.80455","28.54","2","SATNPRO1963","29.554","0.41394","5"],
    [4763,"HCEP03730564","2023-11-16 23:15:00","12.1651","3.57112","24.172","2.534","7.54",null,null,null,null,"30.7033","4.80439","28.62","2","SATNPRO1963","29.648","0.41524","5"],
    [4764,"HCEP03730564","2023-11-16 23:30:00","12.1641","3.57081","23.999","2.521","7.54",null,null,null,null,"30.7013","4.80412","28.47","2","SATNPRO1963","29.506","0.41326","5"],
    [4765,"HCEP03730564","2023-11-16 23:45:00","12.1637","3.57078","23.888","2.5","7.54",null,null,null,null,"30.7013","4.80412","28.24","2","SATNPRO1963","29.616","0.41486","5"],
    [4766,"HCEP03730564","2023-11-17 00:00:00","12.164","3.5707","23.838","2.518","7.54",null,null,null,null,"30.7003","4.80397","28.43","2","SATNPRO1963","29.518","0.41344","5"],
    [4767,"HCEP03730564","2023-11-17 00:15:00","12.1637","3.57068","23.812","2.524","7.54",null,null,null,null,"30.7004","4.80398","28.5","2","SATNPRO1963","29.53","0.41364","5"],
    [4768,"HCEP03730564","2023-11-17 00:30:00","12.1641","3.57073","23.756","2.537","7.54",null,null,null,null,"30.7005","4.804","28.65","2","SATNPRO1963","29.524","0.41352","5"],
    [4769,"HCEP03730564","2023-11-17 00:45:00","12.1654","3.57128","23.769","2.534","7.54",null,null,null,null,"30.7048","4.80458","28.61","2","SATNPRO1963","29.212","0.40914","5"],
    [4770,"HCEP03730564","2023-11-17 01:00:00","12.1653","3.57142","23.828","2.52","7.54",null,null,null,null,"30.7061","4.80477","28.46","2","SATNPRO1963","29.838","0.41796","5"],
    [4771,"HCEP03730564","2023-11-17 01:15:00","12.1663","3.57168","23.821","2.513","7.54",null,null,null,null,"30.7078","4.805","28.39","2","SATNPRO1963","29.788","0.41726","5"],
    [4772,"HCEP03730564","2023-11-17 01:30:00","12.1658","3.57163","23.95","2.51","7.54",null,null,null,null,"30.7077","4.805","28.35","2","SATNPRO1963","29.548","0.41384","5"],
    [4773,"HCEP03730564","2023-11-17 01:45:00","12.1658","3.57159","24.088","2.498","7.54","0.521","4.485","0","0.11","30.7073","4.80494","28.21","0","SATNPRO1963","29.172","0.40858","5"],
    [4774,"HCEP03730564","2023-11-17 02:00:00","12.166","3.57177","24.204","2.506","7.54",null,null,null,null,"30.7087","4.80515","28.3","2","SATNPRO1963","29.37","0.4114","5"],
    [4775,"HCEP03730564","2023-11-17 02:15:00","12.1658","3.57187","24.351","2.464","7.54",null,null,null,null,"30.7098","4.80531","27.83","2","SATNPRO1963","29.43","0.41224","5"],
    [4776,"HCEP03730564","2023-11-17 02:30:00","12.1665","3.57196","24.542","2.475","7.54","0.521","4.485","0","0.11","30.71","4.80535","27.95","0","SATNPRO1963","29.334","0.41084","5"],
    [4777,"HCEP03730564","2023-11-17 02:45:00","12.1663","3.57207","24.751","2.473","7.54","0.521","4.485","0","0.11","30.7111","4.80552","27.93","0","SATNPRO1963","29.342","0.411","5"],
    [4778,"HCEP03730564","2023-11-17 03:00:00","12.1666","3.57216","24.936","2.445","7.53","0.495","3.358","0","0","30.7118","4.80561","27.61","2","SATNPRO1963","29.504","0.41322","5"],
    [4779,"HCEP03730564","2023-11-17 03:15:00","12.1665","3.57221","25.124","2.414","7.54","0.422","3.998","0","0","30.7122","4.80569","27.26","2","SATNPRO1963","29.468","0.41272","5"],
    [4780,"HCEP03730564","2023-11-17 03:30:00","12.1671","3.5725","25.283","2.413","7.54","0.426","4.115","0.09","0.08","30.7145","4.80601","27.25","2","SATNPRO1963","29.39","0.41166","5"],
    [4781,"HCEP03730564","2023-11-17 03:45:00","12.1663","3.57233","25.493","2.408","7.54","0.417","3.6","0","0","30.7134","4.80588","27.2","2","SATNPRO1963","29.382","0.41152","5"],
    [4782,"HCEP03730564","2023-11-17 04:00:00","12.1658","3.57234","25.708","2.407","7.54","0.74","3.249","0","0","30.7139","4.80596","27.18","2","SATNPRO1963","29.232","0.40942","5"],
    [4783,"HCEP03730564","2023-11-17 04:15:00","12.1653","3.57225","25.917","2.382","7.53","0.389","3.92","0.05","0.08","30.7133","4.80589","26.9","2","SATNPRO1963","29.176000000000002","0.40866","5"],
    [4784,"HCEP03730564","2023-11-17 04:30:00","12.1647","3.57196","26.127","2.366","7.53","0.374","3.61","0","0","30.711","4.80559","26.72","2","SATNPRO1963","29.334","0.41084","5"],
    [4785,"HCEP03730564","2023-11-17 04:45:00","12.1644","3.57201","26.366","2.352","7.53","0.374","3.61","0","0","30.7116","4.80569","26.56","0","SATNPRO1963","29.328","0.4108","5"],
    [4786,"HCEP03730564","2023-11-17 05:00:00","12.1641","3.57189","26.569","2.329","7.53","0.559","4.112","0","0","30.7106","4.80557","26.3","2","SATNPRO1963","29.096","0.40752","5"],
    [4787,"HCEP03730564","2023-11-17 05:15:00","12.163","3.57174","26.767","2.304","7.52","0.31","3.619","0","0","30.71","4.80551","26.02","2","SATNPRO1963","28.878","0.40448","5"],
    [4788,"HCEP03730564","2023-11-17 05:30:00","12.1628","3.5715","26.968","2.31","7.52","0.31","3.619","0","0","30.7078","4.80521","26.09","0","SATNPRO1963","28.792","0.40328","5"],
    [4789,"HCEP03730564","2023-11-17 05:45:00","12.1625","3.57153","27.138","2.265","7.52","0.31","3.619","0","0","30.7082","4.80529","25.58","0","SATNPRO1963","29.168","0.4086","5"],
    [4790,"HCEP03730564","2023-11-17 06:00:00","12.1618","3.57136","27.282","2.236","7.52","0.452","3.833","0","0","30.7071","4.80515","25.25","2","SATNPRO1963","28.958","0.40554","5"],
    [4791,"HCEP03730564","2023-11-17 06:15:00","12.161","3.57116","27.434","2.237","7.52","0.452","3.833","0","0","30.7058","4.80498","25.26","0","SATNPRO1963","28.654","0.40132","5"],
    [4792,"HCEP03730564","2023-11-17 06:30:00","12.1607","3.57104","27.558","2.243","7.52","0.452","3.833","0","0","30.7048","4.80486","25.33","0","SATNPRO1963","28.936","0.40528","5"],
    [4793,"HCEP03730564","2023-11-17 06:45:00","12.16","3.57065","27.688","2.236","7.52","0.452","3.833","0","0","30.7016","4.80442","25.25","0","SATNPRO1963","28.588","0.40042","5"],
    [4794,"HCEP03730564","2023-11-17 07:00:00","12.1593","3.57084","27.782","2.188","7.52","0.452","3.833","0","0","30.704","4.80477","24.7","0","SATNPRO1963","28.5","0.39918","5"],
    [4795,"HCEP03730564","2023-11-17 07:15:00","12.1589","3.57024","27.857","2.208","7.52","0.452","3.833","0","0","30.6986","4.80403","24.93","0","SATNPRO1963","28.67","0.40158","5"],
    [4796,"HCEP03730564","2023-11-17 07:30:00","12.1576","3.56982","27.913","2.251","7.52","0.452","3.833","0","0","30.6956","4.80361","25.42","0","SATNPRO1963","28.634","0.40104","5"],
    [4797,"HCEP03730564","2023-11-17 07:45:00","12.1574","3.57","27.969","2.208","7.52","0.452","3.833","0","0","30.6974","4.80388","24.93","0","SATNPRO1963","28.61","0.40074","5"],
    [4798,"HCEP03730564","2023-11-17 08:00:00","12.1564","3.56969","28.032","2.17","7.51","0.452","3.833","0","0","30.6953","4.80361","24.5","0","SATNPRO1963","28.256","0.39578","5"],
    [4799,"HCEP03730564","2023-11-17 08:15:00","12.1558","3.5696","28.016","2.14","7.51",null,null,null,null,"30.6949","4.80355","24.16","2","SATNPRO1963","28.432","0.39826","5"],
    [4800,"HCEP03730564","2023-11-17 08:30:00","12.1551","3.56918","28.054","2.142","7.51",null,null,null,null,"30.6915","4.80308","24.19","2","SATNPRO1963","28.768","0.40298","5"],
    [4801,"HCEP03730564","2023-11-17 08:45:00","12.1555","3.56941","28.109","2.139","7.51",null,null,null,null,"30.6933","4.80334","24.15","2","SATNPRO1963","28.352","0.39712","5"],
    [4802,"HCEP03730564","2023-11-17 09:00:00","12.1558","3.56964","28.09","2.126","7.51","0.452","3.833","0","0","30.6953","4.80362","24","0","SATNPRO1963","28.082","0.39332","5"],
    [4803,"HCEP03730564","2023-11-17 09:15:00","12.1563","3.56985","28.102","2.124","7.51","0.452","3.833","0","0","30.6969","4.80384","23.98","0","SATNPRO1963","28.114","0.39376","5"],
    [4804,"HCEP03730564","2023-11-17 09:30:00","12.1571","3.57003","28.092","2.144","7.51","0.452","3.833","0","0","30.698","4.80397","24.21","0","SATNPRO1963","28.035999999999998","0.3927","5"],
    [4805,"HCEP03730564","2023-11-17 09:45:00","12.158","3.57011","28.043","2.169","7.51","0.452","3.833","0","0","30.6981","4.80397","24.49","0","SATNPRO1963","28.218","0.39522","5"],
    [4806,"HCEP03730564","2023-11-17 10:00:00","12.1584","3.57019","27.983","2.179","7.51","0.452","3.833","0","0","30.6985","4.80402","24.6","0","SATNPRO1963","28.034","0.39266","5"],
    [4807,"HCEP03730564","2023-11-17 10:15:00","12.1583","3.57026","27.913","2.174","7.51","0.452","3.833","0","0","30.6992","4.80412","24.54","0","SATNPRO1963","28.032","0.39266","5"],
    [4808,"HCEP03730564","2023-11-17 10:30:00","12.1586","3.57019","27.841","2.169","7.51","0.452","3.833","0","0","30.6984","4.80399","24.49","0","SATNPRO1963","28.066","0.39312","5"],
    [4809,"HCEP03730564","2023-11-17 10:45:00","12.1584","3.57014","27.751","2.18","7.51","0.452","3.833","0","0","30.6981","4.80395","24.62","0","SATNPRO1963","28.394","0.3977","5"],
    [4810,"HCEP03730564","2023-11-17 11:00:00","12.1589","3.57007","27.669","2.229","7.51","0.452","3.833","0","0","30.697","4.80379","25.17","0","SATNPRO1963","28.332","0.39686","5"],
    [4811,"HCEP03730564","2023-11-17 11:15:00","12.1598","3.57111","27.588","2.14","7.51","0.452","3.833","0","0","30.7062","4.80506","24.17","0","SATNPRO1963","28.456","0.3986","5"],
    [4812,"HCEP03730564","2023-11-17 11:30:00","12.1605","3.57162","27.508","2.068","7.51","0.452","3.833","0","0","30.7106","4.80566","23.35","0","SATNPRO1963","28.442","0.39838","5"],
    [4813,"HCEP03730564","2023-11-17 11:45:00","12.161","3.57191","27.434","2.054","7.51","0.452","3.833","0","0","30.7129","4.80599","23.19","0","SATNPRO1963","28.226","0.39538","5"],
    [4814,"HCEP03730564","2023-11-17 12:00:00","12.1605","3.57185","27.347","2.023","7.5",null,null,null,null,"30.7128","4.80598","22.85","2","SATNPRO1963","28.442","0.39838","5"],
    [4815,"HCEP03730564","2023-11-17 12:15:00","12.1597","3.57162","27.283","1.996","7.5","0.452","3.833","0","0","30.7113","4.80577","22.54","0","SATNPRO1963","28.016000000000002","0.39242","5"],
    [4816,"HCEP03730564","2023-11-17 12:30:00","12.1597","3.57149","27.207","1.994","7.5","0.452","3.833","0","0","30.7101","4.80559","22.51","0","SATNPRO1963","27.776","0.38904","5"],
    [4817,"HCEP03730564","2023-11-17 12:45:00","12.1595","3.57132","27.127","2.015","7.5","0.452","3.833","0","0","30.7087","4.8054","22.75","0","SATNPRO1963","27.624","0.38692","5"],
    [4818,"HCEP03730564","2023-11-17 13:00:00","12.1599","3.57124","27.078","2.063","7.5","0.452","3.833","0","0","30.7076","4.80523","23.29","0","SATNPRO1963","27.316","0.38262","5"],
    [4819,"HCEP03730564","2023-11-17 13:15:00","12.1605","3.57071","27.05","2.19","7.51","0.452","3.833","0","0","30.7021","4.80445","24.73","0","SATNPRO1963","27.448","0.38446","5"],
    [4820,"HCEP03730564","2023-11-17 13:30:00","12.1603","3.57062","26.981","2.256","7.51","0.452","3.833","0","0","30.7014","4.80434","25.48","0","SATNPRO1963","27.812","0.38954","5"],
    [4821,"HCEP03730564","2023-11-17 13:45:00","12.1619","3.5712","26.969","2.251","7.52","0.452","3.833","0","0","30.7056","4.80493","25.42","0","SATNPRO1963","27.88","0.3905","5"],
    [4822,"HCEP03730564","2023-11-17 14:00:00","12.1622","3.57153","26.937","2.228","7.52","0.452","3.833","0","0","30.7086","4.80533","25.16","0","SATNPRO1963","27.936","0.3913","5"],
    [4823,"HCEP03730564","2023-11-17 14:15:00","12.1627","3.57167","26.928","2.213","7.51","0.452","3.833","0","0","30.7094","4.80544","24.99","0","SATNPRO1963","28.654","0.40136","5"],
    [4824,"HCEP03730564","2023-11-17 14:30:00","12.1621","3.57169","26.921","2.167","7.51","0.452","3.833","0","0","30.7101","4.80555","24.48","0","SATNPRO1963","28.842","0.40396","5"],
    [4825,"HCEP03730564","2023-11-17 14:45:00","12.162","3.57167","26.922","2.171","7.51","0.452","3.833","0","0","30.7101","4.80554","24.52","0","SATNPRO1963","28.534","0.39964","5"],
    [4826,"HCEP03730564","2023-11-17 15:00:00","12.1627","3.57167","26.941","2.187","7.51","0.452","3.833","0","0","30.7095","4.80545","24.7","0","SATNPRO1963","28.637999999999998","0.40112","5"],
    [4827,"HCEP03730564","2023-11-17 15:15:00","12.1627","3.57128","26.988","2.255","7.52","0.452","3.833","0","0","30.7058","4.80493","25.46","0","SATNPRO1963","28.53","0.39962","5"],
    [4828,"HCEP03730564","2023-11-17 15:30:00","12.1626","3.57115","27.027","2.312","7.52","0.452","3.833","0","0","30.7045","4.80476","26.11","0","SATNPRO1963","28.218","0.39524","5"],
    [4829,"HCEP03730564","2023-11-17 15:45:00","12.1625","3.57128","27.062","2.282","7.52","0.452","3.833","0","0","30.7058","4.80495","25.77","0","SATNPRO1963","28.25","0.39568","5"],
    [4830,"HCEP03730564","2023-11-17 16:00:00","12.1617","3.57034","27.081","2.338","7.52",null,null,null,null,"30.6976","4.8038","26.4","2","SATNPRO1963","28.676","0.40168","5"],
    [4831,"HCEP03730564","2023-11-17 16:15:00","12.1607","3.56994","27.129","2.403","7.53","0.452","3.833","0","0","30.6945","4.80339","27.13","0","SATNPRO1963","28.938","0.40532","5"],
    [4832,"HCEP03730564","2023-11-17 16:30:00","12.1609","3.57029","27.191","2.376","7.53","0.452","3.833","0","0","30.6977","4.80383","26.83","0","SATNPRO1963","29.182","0.40872","5"],
    [4833,"HCEP03730564","2023-11-17 16:45:00","12.1609","3.57029","27.241","2.336","7.53","0.452","3.833","0","0","30.6977","4.80383","26.38","0","SATNPRO1963","28.786","0.40318","5"],
    [4834,"HCEP03730564","2023-11-17 17:00:00","12.1602","3.57014","27.3","2.314","7.53","0.452","3.833","0","0","30.6967","4.80371","26.12","0","SATNPRO1963","29.418","0.41206","5"],
    [4835,"HCEP03730564","2023-11-17 17:15:00","12.1595","3.56988","27.329","2.293","7.53","0.452","3.833","0","0","30.6949","4.80346","25.89","0","SATNPRO1963","28.992","0.4061","5"],
    [4836,"HCEP03730564","2023-11-17 17:30:00","12.1613","3.57003","27.364","2.324","7.53",null,null,null,null,"30.6948","4.80343","26.25","2","SATNPRO1963","28.906","0.4049","5"],
    [4837,"HCEP03730564","2023-11-17 17:45:00","12.1599","3.56982","27.392","2.37","7.53","0.452","3.833","0","0","30.6939","4.80332","26.76","0","SATNPRO1963","28.982","0.40598","5"],
    [4838,"HCEP03730564","2023-11-17 18:00:00","12.1605","3.56969","27.413","2.376","7.53","0.452","3.833","0","0","30.6921","4.80307","26.82","0","SATNPRO1963","28.822","0.40372","5"],
    [4839,"HCEP03730564","2023-11-17 18:15:00","12.1586","3.56925","27.422","2.336","7.53",null,null,null,null,"30.6896","4.80273","26.37","2","SATNPRO1963","28.748","0.40266","5"],
    [4840,"HCEP03730564","2023-11-17 18:30:00","12.1597","3.56964","27.418","2.313","7.53",null,null,null,null,"30.6923","4.8031","26.12","2","SATNPRO1963","28.998","0.40616","5"],
    [4841,"HCEP03730564","2023-11-17 18:45:00","12.1616","3.57027","27.41","2.334","7.53","0.452","3.833","0","0","30.6968","4.80371","26.35","0","SATNPRO1963","29.198","0.40896","5"],
    [4842,"HCEP03730564","2023-11-17 19:00:00","12.1614","3.57021","27.39","2.356","7.53",null,null,null,null,"30.6964","4.80366","26.61","2","SATNPRO1963","28.992","0.40606","5"],
    [4843,"HCEP03730564","2023-11-17 19:15:00","12.1617","3.56995","27.36","2.36","7.53",null,null,null,null,"30.6937","4.80327","26.65","2","SATNPRO1963","28.63","0.40104","5"],
    [4844,"HCEP03730564","2023-11-17 19:30:00","12.161","3.56995","27.329","2.358","7.53","0.452","3.833","0","0","30.6943","4.80336","26.63","0","SATNPRO1963","28.742","0.40256","5"],
    [4845,"HCEP03730564","2023-11-17 19:45:00","12.1611","3.57012","27.275","2.344","7.53",null,null,null,null,"30.6959","4.80358","26.46","2","SATNPRO1963","28.864","0.4043","5"],
    [4846,"HCEP03730564","2023-11-17 20:00:00","12.162","3.57036","27.194","2.346","7.53","0.452","3.833","0","0","30.6974","4.80377","26.5","0","SATNPRO1963","28.966","0.4057","5"],
    [4847,"HCEP03730564","2023-11-17 20:15:00","12.1618","3.57048","27.098","2.338","7.53",null,null,null,null,"30.6988","4.80397","26.4","2","SATNPRO1963","29.022","0.40654","5"],
    [4848,"HCEP03730564","2023-11-17 20:30:00","12.1639","3.57097","26.97","2.369","7.53",null,null,null,null,"30.7018","4.80436","26.75","2","SATNPRO1963","29.104","0.40764","5"],
    [4849,"HCEP03730564","2023-11-17 20:45:00","12.1649","3.57133","26.82","2.409","7.53",null,null,null,null,"30.7045","4.80471","27.21","2","SATNPRO1963","28.806","0.40346","5"],
    [4850,"HCEP03730564","2023-11-17 21:00:00","12.1655","3.57155","26.673","2.414","7.53","0.452","3.833","0","0","30.7061","4.80493","27.26","0","SATNPRO1963","29.032","0.40664","5"],
    [4851,"HCEP03730564","2023-11-17 21:15:00","12.1663","3.57185","26.505","2.425","7.53",null,null,null,null,"30.7084","4.80523","27.38","2","SATNPRO1963","28.855999999999998","0.4042","5"],
    [4852,"HCEP03730564","2023-11-17 21:30:00","12.1676","3.57231","26.314","2.449","7.53","0.452","3.833","0","0","30.7118","4.80568","27.66","0","SATNPRO1963","29.134","0.4081","5"],
    [4853,"HCEP03730564","2023-11-17 21:45:00","12.169","3.57263","26.13","2.467","7.53",null,null,null,null,"30.7138","4.80594","27.87","2","SATNPRO1963","29.282","0.41012","5"],
    [4854,"HCEP03730564","2023-11-17 22:00:00","12.1692","3.57281","25.924","2.463","7.53","0.452","3.833","0","0","30.7154","4.80615","27.82","0","SATNPRO1963","29.678","0.4157","5"],
    [4855,"HCEP03730564","2023-11-17 22:15:00","12.1704","3.57329","25.687","2.475","7.53","0.452","3.833","0","0","30.7192","4.80664","27.96","0","SATNPRO1963","29.362000000000002","0.41124","5"],
    [4856,"HCEP03730564","2023-11-17 22:30:00","12.172","3.57365","25.425","2.528","7.53","0.452","3.833","0","0","30.7213","4.80691","28.56","0","SATNPRO1963","29.128","0.40804","5"],
    [4857,"HCEP03730564","2023-11-17 22:45:00","12.1708","3.5734","25.204","2.528","7.54","0.452","3.833","0","0","30.7199","4.80672","28.56","0","SATNPRO1963","29.762","0.41688","5"],
    [4858,"HCEP03730564","2023-11-17 23:00:00","12.1706","3.57325","24.987","2.519","7.54",null,null,null,null,"30.7188","4.80655","28.46","2","SATNPRO1963","29.48","0.41292","5"],
    [4859,"HCEP03730564","2023-11-17 23:15:00","12.17","3.57309","24.809","2.485","7.54",null,null,null,null,"30.7179","4.80642","28.07","2","SATNPRO1963","29.586","0.41438","5"],
    [4860,"HCEP03730564","2023-11-17 23:30:00","12.1704","3.57312","24.629","2.501","7.53",null,null,null,null,"30.7179","4.80641","28.25","2","SATNPRO1963","30.07","0.4212","5"],
    [4861,"HCEP03730564","2023-11-17 23:45:00","12.1697","3.57291","24.461","2.5","7.54","0.452","3.833","0","0","30.7165","4.80621","28.24","0","SATNPRO1963","29.67","0.4156","5"],
    [4862,"HCEP03730564","2023-11-18 00:00:00","12.1694","3.57283","24.292","2.475","7.54","0.452","3.833","0","0","30.716","4.80614","27.96","0","SATNPRO1963","29.672","0.41564","5"],
    [4863,"HCEP03730564","2023-11-18 00:15:00","12.1694","3.57297","24.18","2.472","7.53",null,null,null,null,"30.7174","4.80633","27.92","2","SATNPRO1963","29.451999999999998","0.41254","5"],
    [4864,"HCEP03730564","2023-11-18 00:30:00","12.1699","3.573","24.08","2.491","7.53",null,null,null,null,"30.7174","4.80631","28.14","2","SATNPRO1963","29.772","0.41702","5"],
    [4865,"HCEP03730564","2023-11-18 00:45:00","12.1711","3.57316","24.044","2.553","7.53","0.452","3.833","0","0","30.7179","4.80637","28.83","0","SATNPRO1963","29.674","0.41562","5"],
    [4866,"HCEP03730564","2023-11-18 01:00:00","12.1696","3.57265","23.961","2.572","7.54",null,null,null,null,"30.7143","4.80587","29.05","2","SATNPRO1963","29.349999999999998","0.41108","5"],
    [4867,"HCEP03730564","2023-11-18 01:15:00","12.1696","3.57253","23.91","2.583","7.54",null,null,null,null,"30.7132","4.80571","29.17","2","SATNPRO1963","29.631999999999998","0.41506","5"],
    [4868,"HCEP03730564","2023-11-18 01:30:00","12.1698","3.57257","23.921","2.573","7.54","0.452","3.833","0","0","30.7134","4.80574","29.06","0","SATNPRO1963","29.812","0.41754","5"],
    [4869,"HCEP03730564","2023-11-18 01:45:00","12.1692","3.57256","23.95","2.541","7.54",null,null,null,null,"30.7138","4.80581","28.7","2","SATNPRO1963","30.206","0.42306","5"],
    [4870,"HCEP03730564","2023-11-18 02:00:00","12.1681","3.57261","23.997","2.447","7.54",null,null,null,null,"30.7151","4.80601","27.64","2","SATNPRO1963","30.156","0.42246","5"],
    [4871,"HCEP03730564","2023-11-18 02:15:00","12.1687","3.57279","24.076","2.391","7.53","0.452","3.833","0","0","30.7164","4.80618","27","0","SATNPRO1963","30.43","0.4262","5"],
    [4872,"HCEP03730564","2023-11-18 02:30:00","12.1686","3.57275","24.174","2.386","7.53","0.452","3.833","0","0","30.716","4.80614","26.95","0","SATNPRO1963","30.304000000000002","0.42446","5"],
    [4873,"HCEP03730564","2023-11-18 02:45:00","12.169","3.57306","24.332","2.379","7.53",null,null,null,null,"30.7185","4.80649","26.88","2","SATNPRO1963","29.75","0.4167","5"],
    [4874,"HCEP03730564","2023-11-18 03:00:00","12.169","3.57298","24.401","2.387","7.53",null,null,null,null,"30.7178","4.8064","26.96","2","SATNPRO1963","29.234","0.4095","5"],
    [4875,"HCEP03730564","2023-11-18 03:15:00","12.1687","3.57214","24.575","2.538","7.53","0.452","3.833","0","0","30.7099","4.8053","28.66","0","SATNPRO1963","29.334","0.41088","5"],
    [4876,"HCEP03730564","2023-11-18 03:30:00","12.1624","3.57051","24.688","2.416","7.53",null,null,null,null,"30.6995","4.80393","27.28","2","SATNPRO1963","29.392","0.41168","5"],
    [4877,"HCEP03730564","2023-11-18 03:45:00","12.165","3.57128","24.855","2.391","7.53","0.452","3.833","0","0","30.7047","4.80463","27","0","SATNPRO1963","29.406","0.41186","5"],
    [4878,"HCEP03730564","2023-11-18 04:00:00","12.1678","3.57245","25.053","2.426","7.53",null,null,null,null,"30.7134","4.80584","27.41","2","SATNPRO1963","29.402","0.41182","5"],
    [4879,"HCEP03730564","2023-11-18 04:15:00","12.1682","3.57296","25.232","2.374","7.52",null,null,null,null,"30.7178","4.80646","26.81","2","SATNPRO1963","29.862","0.41828","5"],
    [4880,"HCEP03730564","2023-11-18 04:30:00","12.168","3.57264","25.434","2.38","7.53","0.452","3.833","0","0","30.7149","4.80606","26.88","0","SATNPRO1963","28.974","0.40582","5"],
    [4881,"HCEP03730564","2023-11-18 04:45:00","12.168","3.5726","25.675","2.428","7.52",null,null,null,null,"30.7144","4.806","27.43","2","SATNPRO1963","29.414","0.41196","5"],
    [4882,"HCEP03730564","2023-11-18 05:00:00","12.168","3.57265","25.899","2.434","7.53","0.452","3.833","0","0","30.7149","4.80608","27.49","0","SATNPRO1963","29.724","0.41634","5"],
    [4883,"HCEP03730564","2023-11-18 05:15:00","12.1697","3.5725","26.094","2.567","7.53",null,null,null,null,"30.712","4.80566","29","2","SATNPRO1963","29.108","0.40768","5"],
    [4884,"HCEP03730564","2023-11-18 05:30:00","12.1661","3.57083","26.318","2.624","7.53","0.452","3.833","0","0","30.6989","4.80388","29.63","0","SATNPRO1963","29.85","0.41812","5"],
    [4885,"HCEP03730564","2023-11-18 05:45:00","12.1687","3.57136","26.518","2.77","7.55","0.452","3.833","0","0","30.7018","4.80426","31.28","0","SATNPRO1963","29.838","0.41792","5"],
    [4886,"HCEP03730564","2023-11-18 06:00:00","12.1702","3.57194","26.699","2.814","7.56","0.452","3.833","0","0","30.706","4.80484","31.78","0","SATNPRO1963","30.008","0.42032","5"],
    [4887,"HCEP03730564","2023-11-18 06:15:00","12.1707","3.57296","26.894","2.805","7.56",null,null,null,null,"30.7152","4.80615","31.68","2","SATNPRO1963","30.752","0.43072","5"],
    [4888,"HCEP03730564","2023-11-18 06:30:00","12.1695","3.57352","27.064","2.523","7.55","0.452","3.833","0","0","30.7214","4.80705","28.5","0","SATNPRO1963","30.02","0.42052","5"],
    [4889,"HCEP03730564","2023-11-18 06:45:00","12.1705","3.57382","27.222","2.432","7.54","0.452","3.833","0","0","30.7235","4.80733","27.47","0","SATNPRO1963","31.108","0.4357","5"],
    [4890,"HCEP03730564","2023-11-18 07:00:00","12.1725","3.57446","27.391","2.464","7.54",null,null,null,null,"30.7279","4.80794","27.83","2","SATNPRO1963","31.034","0.43466","5"],
    [4891,"HCEP03730564","2023-11-18 07:15:00","12.1717","3.57441","27.513","2.446","7.54","0.452","3.833","0","0","30.728","4.80797","27.64","0","SATNPRO1963","31.44","0.44036","5"],
    [4892,"HCEP03730564","2023-11-18 07:30:00","12.1714","3.57453","27.632","2.39","7.54",null,null,null,null,"30.7293","4.80817","27","2","SATNPRO1963","29.602","0.4146","5"],
    [4893,"HCEP03730564","2023-11-18 07:45:00","12.1708","3.57423","27.74","2.351","7.53","0.452","3.833","0","0","30.7269","4.80784","26.55","0","SATNPRO1963","29.474","0.41286","5"],
    [4894,"HCEP03730564","2023-11-18 08:00:00","12.1696","3.57358","27.829","2.337","7.53",null,null,null,null,"30.7216","4.80712","26.4","2","SATNPRO1963","29.796","0.41732","5"],
    [4895,"HCEP03730564","2023-11-18 08:15:00","12.1686","3.57355","27.898","2.31","7.53","0.452","3.833","0","0","30.7222","4.80722","26.1","0","SATNPRO1963","29.502","0.4132","5"],
    [4896,"HCEP03730564","2023-11-18 08:30:00","12.1667","3.57278","27.924","2.269","7.52",null,null,null,null,"30.7164","4.80642","25.63","2","SATNPRO1963","29.108","0.4077","5"],
    [4897,"HCEP03730564","2023-11-18 08:45:00","12.1659","3.57241","27.951","2.262","7.52","0.452","3.833","0","0","30.7135","4.80604","25.54","0","SATNPRO1963","29.196","0.40896","5"],
    [4898,"HCEP03730564","2023-11-18 09:00:00","12.1651","3.5722","27.981","2.247","7.52",null,null,null,null,"30.7122","4.80586","25.38","2","SATNPRO1963","29.16","0.40846","5"],
    [4899,"HCEP03730564","2023-11-18 09:15:00","12.1651","3.57235","28.038","2.227","7.52","0.452","3.833","0","0","30.7136","4.80605","25.16","0","SATNPRO1963","28.816","0.4036","5"],
    [4900,"HCEP03730564","2023-11-18 09:30:00","12.1641","3.57194","28.003","2.213","7.52","0.452","3.833","0","0","30.7105","4.80564","24.99","0","SATNPRO1963","29.006","0.40628","5"],
    [4901,"HCEP03730564","2023-11-18 09:45:00","12.1636","3.57187","28.048","2.188","7.51",null,null,null,null,"30.7102","4.8056","24.71","2","SATNPRO1963","28.734","0.40246","5"],
    [4902,"HCEP03730564","2023-11-18 10:00:00","12.1622","3.57124","27.998","2.158","7.52","0.452","3.833","0","0","30.7054","4.80494","24.37","0","SATNPRO1963","29.036","0.40668","5"],
    [4903,"HCEP03730564","2023-11-18 10:15:00","12.1615","3.57103","28.014","2.174","7.52",null,null,null,null,"30.7039","4.80475","24.55","2","SATNPRO1963","28.904","0.40484","5"],
    [4904,"HCEP03730564","2023-11-18 10:30:00","12.1611","3.57082","28.003","2.213","7.51","0.452","3.833","0","0","30.7022","4.80451","24.99","0","SATNPRO1963","28.68","0.4017","5"],
    [4905,"HCEP03730564","2023-11-18 10:45:00","12.1611","3.57087","27.966","2.17","7.51",null,null,null,null,"30.7027","4.80457","24.51","2","SATNPRO1963","28.508","0.39926","5"],
    [4906,"HCEP03730564","2023-11-18 11:00:00","12.161","3.57102","27.921","2.144","7.51","0.452","3.833","0","0","30.7043","4.8048","24.21","0","SATNPRO1963","28.316","0.39664","5"],
    [4907,"HCEP03730564","2023-11-18 11:15:00","12.161","3.57116","27.854","2.107","7.51",null,null,null,null,"30.7056","4.80498","23.79","2","SATNPRO1963","28.748","0.40266","5"],
    [4908,"HCEP03730564","2023-11-18 11:30:00","12.1611","3.57119","27.793","2.087","7.51","0.452","3.833","0","0","30.7059","4.80501","23.56","0","SATNPRO1963","28.884","0.40458","5"],
    [4909,"HCEP03730564","2023-11-18 11:45:00","12.161","3.57126","27.724","2.068","7.51",null,null,null,null,"30.7067","4.80512","23.35","2","SATNPRO1963","28.454","0.39854","5"],
    [4910,"HCEP03730564","2023-11-18 12:00:00","12.1611","3.57124","27.635","2.048","7.51",null,null,null,null,"30.7064","4.80508","23.13","2","SATNPRO1963","28.37","0.39738","5"],
    [4911,"HCEP03730564","2023-11-18 12:15:00","12.1612","3.57135","27.526","2.04","7.51","0.452","3.833","0","0","30.7074","4.80521","23.04","0","SATNPRO1963","28.284","0.39618","5"],
    [4912,"HCEP03730564","2023-11-18 12:30:00","12.1617","3.57157","27.477","2.036","7.51","0.452","3.833","0","0","30.709","4.80543","22.99","0","SATNPRO1963","28.37","0.39738","5"],
    [4913,"HCEP03730564","2023-11-18 12:45:00","12.1621","3.57182","27.38","2.013","7.5",null,null,null,null,"30.7113","4.80574","22.74","2","SATNPRO1963","28.136","0.3941","5"],
    [4914,"HCEP03730564","2023-11-18 13:00:00","12.1613","3.57172","27.276","1.996","7.5",null,null,null,null,"30.711","4.80571","22.54","2","SATNPRO1963","28.126","0.39392","5"],
    [4915,"HCEP03730564","2023-11-18 13:15:00","12.1595","3.57141","27.187","1.949","7.5",null,null,null,null,"30.7095","4.80551","22.01","2","SATNPRO1963","28.204","0.39504","5"],
    [4916,"HCEP03730564","2023-11-18 13:30:00","12.1579","3.57101","27.123","1.897","7.5",null,null,null,null,"30.707","4.80518","21.42","2","SATNPRO1963","28.128","0.39398","5"],
    [4917,"HCEP03730564","2023-11-18 13:45:00","12.1569","3.57083","27.049","1.846","7.49","0.452","3.833","0","0","30.7062","4.80507","20.84","0","SATNPRO1963","27.788","0.38918","5"],
    [4918,"HCEP03730564","2023-11-18 14:00:00","12.1569","3.57097","26.997","1.81","7.49",null,null,null,null,"30.7075","4.80526","20.44","2","SATNPRO1963","27.746","0.38862","5"],
    [4919,"HCEP03730564","2023-11-18 14:15:00","12.1548","3.57029","26.946","1.786","7.48",null,null,null,null,"30.7028","4.80462","20.16","2","SATNPRO1963","27.51","0.38534","5"],
    [4920,"HCEP03730564","2023-11-18 14:30:00","12.1562","3.57052","26.903","1.812","7.48",null,null,null,null,"30.7039","4.80475","20.46","2","SATNPRO1963","27.298","0.38236","5"],
    [4921,"HCEP03730564","2023-11-18 14:45:00","12.1553","3.57026","26.873","1.811","7.48","0.452","3.833","0","0","30.7021","4.80451","20.45","0","SATNPRO1963","27.144","0.38022","5"],
    [4922,"HCEP03730564","2023-11-18 15:00:00","12.1574","3.57083","26.852","1.851","7.49",null,null,null,null,"30.7059","4.80501","20.9","2","SATNPRO1963","26.952","0.37752","5"],
    [4923,"HCEP03730564","2023-11-18 15:15:00","12.1615","3.57182","26.861","1.937","7.49","0.452","3.833","0","0","30.7119","4.80581","21.87","0","SATNPRO1963","26.826","0.37576","5"],
    [4924,"HCEP03730564","2023-11-18 15:30:00","12.162","3.57192","26.871","1.998","7.49",null,null,null,null,"30.7124","4.80587","22.57","2","SATNPRO1963","27.174","0.38064","5"],
    [4925,"HCEP03730564","2023-11-18 15:45:00","12.1617","3.57165","26.889","2.052","7.5",null,null,null,null,"30.7101","4.80554","23.17","2","SATNPRO1963","27.189999999999998","0.38082","5"],
    [4926,"HCEP03730564","2023-11-18 16:00:00","12.162","3.57194","26.905","2.021","7.5","0.452","3.833","0","0","30.7127","4.80591","22.82","0","SATNPRO1963","27.32","0.38268","5"],
    [4927,"HCEP03730564","2023-11-18 16:15:00","12.1631","3.57235","26.926","1.994","7.5",null,null,null,null,"30.7157","4.80632","22.52","2","SATNPRO1963","27.816","0.38962","5"],
    [4928,"HCEP03730564","2023-11-18 16:30:00","12.1638","3.5725","26.952","2.003","7.5","0.452","3.833","0","0","30.7165","4.80643","22.62","0","SATNPRO1963","28.088","0.3934","5"],
    [4929,"HCEP03730564","2023-11-18 16:45:00","12.1636","3.57243","26.95","2.026","7.5",null,null,null,null,"30.716","4.80635","22.88","2","SATNPRO1963","28.078","0.39326","5"],
    [4930,"HCEP03730564","2023-11-18 17:00:00","12.1645","3.57267","26.952","2.049","7.5","0.452","3.833","0","0","30.7175","4.80656","23.14","0","SATNPRO1963","27.85","0.3901","5"],
    [4931,"HCEP03730564","2023-11-18 17:15:00","12.1654","3.5731","26.968","2.065","7.5","0.452","3.833","0","0","30.7209","4.80703","23.32","0","SATNPRO1963","27.951999999999998","0.39156","5"],
    [4932,"HCEP03730564","2023-11-18 17:30:00","12.1656","3.5735","27.004","2.045","7.5","0.452","3.833","0","0","30.7246","4.80754","23.09","0","SATNPRO1963","27.796","0.38938","5"],
    [4933,"HCEP03730564","2023-11-18 17:45:00","12.1664","3.57384","27.04","2.048","7.5",null,null,null,null,"30.7271","4.80789","23.13","2","SATNPRO1963","28.082","0.39332","5"],
    [4934,"HCEP03730564","2023-11-18 18:00:00","12.1671","3.57379","27.069","2.081","7.51","0.452","3.833","0","0","30.7261","4.80773","23.5","0","SATNPRO1963","28.142","0.3942","5"],
    [4935,"HCEP03730564","2023-11-18 18:15:00","12.1678","3.57393","27.086","2.138","7.51","0.452","3.833","0","0","30.7268","4.80783","24.15","0","SATNPRO1963","28.024","0.39256","5"],
    [4936,"HCEP03730564","2023-11-18 18:30:00","12.168","3.57386","27.119","2.162","7.51",null,null,null,null,"30.726","4.80772","24.42","2","SATNPRO1963","27.75","0.38868","5"],
    [4937,"HCEP03730564","2023-11-18 18:45:00","12.1673","3.5737","27.164","2.16","7.51","0.452","3.833","0","0","30.7251","4.8076","24.4","0","SATNPRO1963","28.054","0.39296","5"],
    [4938,"HCEP03730564","2023-11-18 19:00:00","12.167","3.57352","27.182","2.174","7.51",null,null,null,null,"30.7235","4.80739","24.56","2","SATNPRO1963","28.37","0.39738","5"],
    [4939,"HCEP03730564","2023-11-18 19:15:00","12.1667","3.57309","27.197","2.225","7.52","0.452","3.833","0","0","30.7197","4.80685","25.13","0","SATNPRO1963","28.596","0.40056","5"],
    [4940,"HCEP03730564","2023-11-18 19:30:00","12.1673","3.5728","27.207","2.327","7.53",null,null,null,null,"30.7165","4.80639","26.28","2","SATNPRO1963","28.442","0.39838","5"],
    [4941,"HCEP03730564","2023-11-18 19:45:00","12.1676","3.57267","27.218","2.398","7.53",null,null,null,null,"30.7149","4.80616","27.08","2","SATNPRO1963","28.6","0.40062","5"],
    [4942,"HCEP03730564","2023-11-18 20:00:00","12.1671","3.57257","27.218","2.412","7.53","0.452","3.833","0","0","30.7143","4.80609","27.24","0","SATNPRO1963","28.51","0.39934","5"],
    [4943,"HCEP03730564","2023-11-18 20:15:00","12.1664","3.5722","27.171","2.406","7.53",null,null,null,null,"30.7114","4.80569","27.18","2","SATNPRO1963","28.96","0.40566","5"],
    [4944,"HCEP03730564","2023-11-18 20:30:00","12.1641","3.57167","27.151","2.356","7.53",null,null,null,null,"30.7082","4.80527","26.6","2","SATNPRO1963","29.062","0.40706","5"],
    [4945,"HCEP03730564","2023-11-18 20:45:00","12.1635","3.57155","27.083","2.29","7.53","0.452","3.833","0","0","30.7076","4.80518","25.86","0","SATNPRO1963","29.233999999999998","0.40948","5"],
    [4946,"HCEP03730564","2023-11-18 21:00:00","12.1639","3.57198","27.042","2.238","7.52",null,null,null,null,"30.7114","4.80571","25.28","2","SATNPRO1963","29.52","0.41346","5"],
    [4947,"HCEP03730564","2023-11-18 21:15:00","12.1631","3.57213","26.951","2.177","7.52",null,null,null,null,"30.7135","4.80601","24.59","2","SATNPRO1963","29.306","0.41048","5"],
    [4948,"HCEP03730564","2023-11-18 21:30:00","12.1602","3.57145","26.823","2.058","7.51",null,null,null,null,"30.7095","4.80548","23.24","2","SATNPRO1963","29.04","0.40676","5"],
    [4949,"HCEP03730564","2023-11-18 21:45:00","12.1596","3.57133","26.708","2.004","7.51","0.452","3.833","0","0","30.7088","4.80539","22.63","0","SATNPRO1963","28.738","0.40254","5"],
    [4950,"HCEP03730564","2023-11-18 22:00:00","12.1588","3.57155","26.555","1.976","7.5",null,null,null,null,"30.7117","4.80579","22.31","2","SATNPRO1963","28.724","0.40232","5"],
    [4951,"HCEP03730564","2023-11-18 22:15:00","12.162","3.57249","26.421","2.024","7.5",null,null,null,null,"30.7181","4.80664","22.86","2","SATNPRO1963","28.248","0.39566","5"],
    [4952,"HCEP03730564","2023-11-18 22:30:00","12.1627","3.5728","26.271","2.062","7.5",null,null,null,null,"30.7205","4.80696","23.29","2","SATNPRO1963","27.802","0.38938","5"],
    [4953,"HCEP03730564","2023-11-18 22:45:00","12.1627","3.57284","26.106","2.069","7.51","0.452","3.833","0","0","30.7209","4.80701","23.37","0","SATNPRO1963","27.658","0.3874","5"],
    [4954,"HCEP03730564","2023-11-18 23:00:00","12.163","3.57292","25.902","2.071","7.51",null,null,null,null,"30.7216","4.8071","23.39","2","SATNPRO1963","27.46","0.3846","5"],
    [4955,"HCEP03730564","2023-11-18 23:15:00","12.1631","3.57301","25.708","2.068","7.5",null,null,null,null,"30.7225","4.80721","23.35","2","SATNPRO1963","27.904","0.39084","5"],
    [4956,"HCEP03730564","2023-11-18 23:30:00","12.1634","3.57318","25.514","2.069","7.5","0.452","3.833","0","0","30.7238","4.80739","23.37","0","SATNPRO1963","28.058","0.393","5"],
    [4957,"HCEP03730564","2023-11-18 23:45:00","12.1637","3.57334","25.349","2.075","7.5","0.452","3.833","0","0","30.7252","4.80756","23.44","0","SATNPRO1963","28.03","0.3926","5"],
    [4958,"HCEP03730564","2023-11-19 00:00:00","12.1635","3.57332","25.139","2.064","7.5",null,null,null,null,"30.7253","4.80757","23.32","2","SATNPRO1963","28.092","0.39348","5"],
    [4959,"HCEP03730564","2023-11-19 00:15:00","12.1631","3.57323","24.997","2.044","7.5","0.452","3.833","0","0","30.7248","4.8075","23.09","0","SATNPRO1963","28.162","0.39448","5"],
    [4960,"HCEP03730564","2023-11-19 00:30:00","12.1632","3.57323","24.826","2.035","7.5",null,null,null,null,"30.7248","4.80749","22.99","2","SATNPRO1963","28.226","0.39542","5"],
    [4961,"HCEP03730564","2023-11-19 00:45:00","12.1626","3.57311","24.635","2.02","7.5",null,null,null,null,"30.7242","4.80739","22.82","2","SATNPRO1963","28.186","0.3948","5"],
    [4962,"HCEP03730564","2023-11-19 01:00:00","12.1629","3.57309","24.488","2.033","7.5","0.452","3.833","0","0","30.7238","4.80733","22.96","0","SATNPRO1963","28.062","0.39306","5"],
    [4963,"HCEP03730564","2023-11-19 01:15:00","12.1626","3.573","24.412","2.022","7.5",null,null,null,null,"30.7232","4.80725","22.84","2","SATNPRO1963","28.174","0.39464","5"],
    [4964,"HCEP03730564","2023-11-19 01:30:00","12.1633","3.57318","24.362","2.029","7.5",null,null,null,null,"30.7244","4.8074","22.91","2","SATNPRO1963","27.898","0.39078","5"],
    [4965,"HCEP03730564","2023-11-19 01:45:00","12.164","3.57342","24.313","2.048","7.5","0.452","3.833","0","0","30.7261","4.80764","23.13","0","SATNPRO1963","27.94","0.39132","5"],
    [4966,"HCEP03730564","2023-11-19 02:00:00","12.1645","3.5735","24.284","2.056","7.5","0.452","3.833","0","0","30.7265","4.80768","23.22","0","SATNPRO1963","27.958","0.39162","5"],
    [4967,"HCEP03730564","2023-11-19 02:15:00","12.1651","3.57368","24.273","2.056","7.5",null,null,null,null,"30.7278","4.80785","23.23","2","SATNPRO1963","27.822","0.38968","5"],
    [4968,"HCEP03730564","2023-11-19 02:30:00","12.1665","3.57407","24.36","2.087","7.5",null,null,null,null,"30.7303","4.80819","23.58","2","SATNPRO1963","28.02","0.39244","5"],
    [4969,"HCEP03730564","2023-11-19 02:45:00","12.1649","3.57389","24.283","2.028","7.49",null,null,null,null,"30.7299","4.80815","22.91","2","SATNPRO1963","28.03","0.3926","5"],
    [4970,"HCEP03730564","2023-11-19 03:00:00","12.1655","3.57403","24.448","1.986","7.49",null,null,null,null,"30.7307","4.80826","22.43","2","SATNPRO1963","28","0.39218","5"],
    [4971,"HCEP03730564","2023-11-19 03:15:00","12.1665","3.57432","24.443","2.045","7.5","0.452","3.833","0","0","30.7327","4.80853","23.09","0","SATNPRO1963","28.168","0.39454","5"],
    [4972,"HCEP03730564","2023-11-19 03:30:00","12.1675","3.57457","24.532","2.084","7.51",null,null,null,null,"30.7341","4.80872","23.54","2","SATNPRO1963","28.172","0.3946","5"],
    [4973,"HCEP03730564","2023-11-19 03:45:00","12.1678","3.57486","24.635","2.081","7.51",null,null,null,null,"30.7366","4.80908","23.51","2","SATNPRO1963","27.758","0.38876","5"],
    [4974,"HCEP03730564","2023-11-19 04:00:00","12.1693","3.57551","24.732","2.067","7.51",null,null,null,null,"30.7416","4.80976","23.35","2","SATNPRO1963","27.824","0.38974","5"],
    [4975,"HCEP03730564","2023-11-19 04:15:00","12.1697","3.57572","24.857","2.082","7.51",null,null,null,null,"30.7432","4.81","23.52","2","SATNPRO1963","28.174","0.39466","5"],
    [4976,"HCEP03730564","2023-11-19 04:30:00","12.1709","3.57608","24.959","2.118","7.51","0.452","3.833","0","0","30.7456","4.81033","23.93","0","SATNPRO1963","28.400000000000002","0.3978","5"],
    [4977,"HCEP03730564","2023-11-19 04:45:00","12.172","3.57627","25.087","2.149","7.52",null,null,null,null,"30.7465","4.81044","24.28","2","SATNPRO1963","28.216","0.39524","5"],
    [4978,"HCEP03730564","2023-11-19 05:00:00","12.177","3.57673","25.258","2.423","7.53",null,null,null,null,"30.7467","4.81041","27.38","2","SATNPRO1963","28.148","0.39428","5"],
    [4979,"HCEP03730564","2023-11-19 05:15:00","12.1751","3.57644","25.49","2.473","7.54",null,null,null,null,"30.7454","4.81027","27.94","2","SATNPRO1963","28.272","0.396","5"],
    [4980,"HCEP03730564","2023-11-19 05:30:00","12.1702","3.57535","25.722","2.279","7.53",null,null,null,null,"30.7389","4.80943","25.74","2","SATNPRO1963","28.548000000000002","0.39988","5"],
    [4981,"HCEP03730564","2023-11-19 05:45:00","12.1671","3.57447","25.857","2.14","7.52",null,null,null,null,"30.733","4.80865","24.18","2","SATNPRO1963","28.748","0.40272","5"],
    [4982,"HCEP03730564","2023-11-19 06:00:00","12.1653","3.57412","26.047","2.086","7.51",null,null,null,null,"30.731","4.80841","23.56","2","SATNPRO1963","30.36","0.42524","5"],
    [4983,"HCEP03730564","2023-11-19 06:15:00","12.1645","3.57387","26.248","2.046","7.5",null,null,null,null,"30.7293","4.80819","23.11","2","SATNPRO1963","30.35","0.4251","5"],
    [4984,"HCEP03730564","2023-11-19 06:30:00","12.1636","3.5737","26.389","1.995","7.5","0.452","3.833","0","0","30.7284","4.80807","22.53","0","SATNPRO1963","28.866","0.40434","5"],
    [4985,"HCEP03730564","2023-11-19 06:45:00","12.1644","3.57383","26.616","2.009","7.5",null,null,null,null,"30.7288","4.80814","22.69","2","SATNPRO1963","28.468","0.39872","5"],
    [4986,"HCEP03730564","2023-11-19 07:00:00","12.1657","3.57425","26.844","2.029","7.51",null,null,null,null,"30.7317","4.80854","22.92","2","SATNPRO1963","28.108","0.39366","5"],
    [4987,"HCEP03730564","2023-11-19 07:15:00","12.1664","3.57457","27.008","2.035","7.51","0.452","3.833","0","0","30.7341","4.80888","22.99","0","SATNPRO1963","28","0.39216","5"],
    [4988,"HCEP03730564","2023-11-19 07:30:00","12.1682","3.57515","27.164","2.066","7.51","0.452","3.833","0","0","30.7381","4.80942","23.33","0","SATNPRO1963","27.823999999999998","0.38972","5"],
    [4989,"HCEP03730564","2023-11-19 07:45:00","12.1737","3.57622","27.34","2.296","7.52",null,null,null,null,"30.7437","4.81015","25.93","2","SATNPRO1963","27.728","0.38836","5"],
    [4990,"HCEP03730564","2023-11-19 08:00:00","12.1752","3.57702","27.487","2.371","7.53",null,null,null,null,"30.75","4.81102","26.79","2","SATNPRO1963","28.002","0.39222","5"],
    [4991,"HCEP03730564","2023-11-19 08:15:00","12.1745","3.57711","27.683","2.289","7.53",null,null,null,null,"30.7514","4.81124","25.86","2","SATNPRO1963","28.004","0.39226","5"],
    [4992,"HCEP03730564","2023-11-19 08:30:00","12.1754","3.57729","27.737","2.35","7.53",null,null,null,null,"30.7524","4.81137","26.55","2","SATNPRO1963","28.4","0.39782","5"],
    [4993,"HCEP03730564","2023-11-19 08:45:00","12.1774","3.57783","27.83","2.336","7.53","0.452","3.833","0","0","30.7558","4.81183","26.4","0","SATNPRO1963","29.676","0.41566","5"],
    [4994,"HCEP03730564","2023-11-19 09:00:00","12.1776","3.57802","28.043","2.333","7.53","0.288","4.34","0.02","0.04","30.7574","4.81206","26.36","2","SATNPRO1963","29.546","0.41382","5"],
    [4995,"HCEP03730564","2023-11-19 09:15:00","12.1774","3.57804","28.046","2.326","7.53","0.349","4.456","0","0","30.7578","4.81213","26.29","2","SATNPRO1963","29.26","0.40984","5"],
    [4996,"HCEP03730564","2023-11-19 09:30:00","12.177","3.578","28.076","2.311","7.53","0.301","4.68","0.02","0.03","30.7577","4.81212","26.12","2","SATNPRO1963","29.502","0.41324","5"],
    [4997,"HCEP03730564","2023-11-19 09:45:00","12.1759","3.57766","28.057","2.251","7.52","0.336","5.188","0.02","0.14","30.7554","4.8118","25.44","2","SATNPRO1963","29.862","0.41826","5"],
    [4998,"HCEP03730564","2023-11-19 10:00:00","12.1766","3.57765","28.113","2.301","7.52","0.245","4.14","0","0","30.7547","4.8117","26","2","SATNPRO1963","29.588","0.41442","5"],
    [4999,"HCEP03730564","2023-11-19 10:15:00","12.177","3.57743","28.138","2.349","7.53",null,null,null,null,"30.7523","4.81136","26.54","2","SATNPRO1963","29.442","0.41238","5"],
    [5000,"HCEP03730564","2023-11-19 10:30:00","12.1753","3.57696","28.147","2.33","7.53","0.245","4.14","0","0","30.7492","4.81094","26.32","0","SATNPRO1963","29.428","0.4122","5"],
    [5001,"HCEP03730564","2023-11-19 10:45:00","12.176","3.57679","28.132","2.407","7.53","0.245","4.14","0","0","30.747","4.81062","27.19","0","SATNPRO1963","29.334","0.41084","5"],
    [5002,"HCEP03730564","2023-11-19 11:00:00","12.171","3.57581","28.106","2.309","7.54","0.245","4.14","0","0","30.7417","4.80995","26.09","0","SATNPRO1963","29.746","0.41664","5"],
    [5003,"HCEP03730564","2023-11-19 11:15:00","12.173","3.57588","28.079","2.37","7.54","0.245","4.14","0","0","30.7408","4.80978","26.77","0","SATNPRO1963","29.778","0.41708","5"],
    [5004,"HCEP03730564","2023-11-19 11:30:00","12.1732","3.57583","28.016","2.394","7.54",null,null,null,null,"30.7401","4.80969","27.05","2","SATNPRO1963","29.394000000000002","0.41174","5"],
    [5005,"HCEP03730564","2023-11-19 11:45:00","12.1721","3.57574","27.976","2.375","7.54","0.245","4.14","0","0","30.7402","4.80971","26.83","0","SATNPRO1963","30.156","0.42244","5"],
    [5006,"HCEP03730564","2023-11-19 12:00:00","12.1724","3.57576","27.897","2.354","7.54","0.245","4.14","0","0","30.7402","4.80971","26.59","0","SATNPRO1963","29.206","0.4091","5"],
    [5007,"HCEP03730564","2023-11-19 12:15:00","12.1727","3.57581","27.84","2.377","7.54","0.245","4.14","0","0","30.7405","4.80973","26.86","0","SATNPRO1963","29.752","0.41674","5"],
    [5008,"HCEP03730564","2023-11-19 12:30:00","12.169","3.57504","27.749","2.25","7.54","0.245","4.14","0","0","30.7362","4.80917","25.42","0","SATNPRO1963","29.9","0.41878","5"],
    [5009,"HCEP03730564","2023-11-19 12:45:00","12.1675","3.57365","27.698","2.235","7.53","0.245","4.14","0","0","30.7241","4.80749","25.25","0","SATNPRO1963","29.384","0.41158","5"],
    [5010,"HCEP03730564","2023-11-19 13:00:00","12.165","3.57413","27.608","2.104","7.52","0.245","4.14","0","0","30.7308","4.80847","23.76","0","SATNPRO1963","29.72","0.41626","5"],
    [5011,"HCEP03730564","2023-11-19 13:15:00","12.1637","3.5738","27.529","2.069","7.52","0.245","4.14","0","0","30.7288","4.80819","23.37","0","SATNPRO1963","29.784000000000002","0.41714","5"],
    [5012,"HCEP03730564","2023-11-19 13:30:00","12.1661","3.57387","27.377","2.121","7.52","0.245","4.14","0","0","30.7275","4.80797","23.96","0","SATNPRO1963","28.774","0.40302","5"],
    [5013,"HCEP03730564","2023-11-19 13:45:00","12.1658","3.57379","27.33","2.168","7.52","0.245","4.14","0","0","30.727","4.8079","24.49","0","SATNPRO1963","28.874","0.40444","5"],
    [5014,"HCEP03730564","2023-11-19 14:00:00","12.1671","3.57394","27.222","2.172","7.52","0.245","4.14","0","0","30.7274","4.80794","24.54","0","SATNPRO1963","28.364","0.3973","5"],
    [5015,"HCEP03730564","2023-11-19 14:15:00","12.1647","3.57368","27.156","2.111","7.52","0.245","4.14","0","0","30.7269","4.80789","23.84","0","SATNPRO1963","27.95","0.3915","5"],
    [5016,"HCEP03730564","2023-11-19 14:30:00","12.1657","3.57379","27.032","2.128","7.52","0.245","4.14","0","0","30.7273","4.80792","24.04","0","SATNPRO1963","28.676000000000002","0.40168","5"],
    [5017,"HCEP03730564","2023-11-19 14:45:00","12.1699","3.57441","26.935","2.265","7.52",null,null,null,null,"30.7297","4.8082","25.59","2","SATNPRO1963","28.506","0.39928","5"],
    [5018,"HCEP03730564","2023-11-19 15:00:00","12.1692","3.57442","26.867","2.35","7.53",null,null,null,null,"30.7304","4.80831","26.54","2","SATNPRO1963","28.878","0.40448","5"],
    [5019,"HCEP03730564","2023-11-19 15:15:00","12.1697","3.57456","26.776","2.368","7.53",null,null,null,null,"30.7314","4.80843","26.75","2","SATNPRO1963","28.306","0.39646","5"],
    [5020,"HCEP03730564","2023-11-19 15:30:00","12.1709","3.57492","26.702","2.408","7.54","0.245","4.14","0","0","30.7338","4.80876","27.21","0","SATNPRO1963","28.402","0.3978","5"],
    [5021,"HCEP03730564","2023-11-19 15:45:00","12.173400000000001","3.57551","26.656","2.464","7.54",null,null,null,null,"30.7375","4.80924","27.83","2","SATNPRO1963","29.796","0.41736","5"],
    [5022,"HCEP03730564","2023-11-19 16:00:00","12.1747","3.57586","26.593","2.534","7.54","0.245","4.14","0","0","30.7397","4.80953","28.63","0","SATNPRO1963","29.344","0.411","5"],
    [5023,"HCEP03730564","2023-11-19 16:15:00","12.1751","3.57601","26.592","2.555","7.54",null,null,null,null,"30.7408","4.80968","28.86","2","SATNPRO1963","29.706","0.41606","5"],
    [5024,"HCEP03730564","2023-11-19 16:30:00","12.1742","3.57596","26.585","2.504","7.54","0.245","4.14","0","0","30.7411","4.80973","28.29","0","SATNPRO1963","29.810000000000002","0.41752","5"],
    [5025,"HCEP03730564","2023-11-19 16:45:00","12.1752","3.57632","26.656","2.503","7.54","0.241","4.044","0","0","30.7437","4.81009","28.28","2","SATNPRO1963","30.206","0.42312","5"],
    [5026,"HCEP03730564","2023-11-19 17:00:00","12.175","3.57641","26.607","2.479","7.54","0.241","4.044","0","0","30.7448","4.81024","28.01","0","SATNPRO1963","30.176000000000002","0.42266","5"],
    [5027,"HCEP03730564","2023-11-19 17:15:00","12.1753","3.57649","26.636","2.465","7.53","0.241","4.044","0","0","30.7453","4.81031","27.85","0","SATNPRO1963","30.366","0.42532","5"],
    [5028,"HCEP03730564","2023-11-19 17:30:00","12.1737","3.57608","26.663","2.435","7.53","0.241","4.044","0","0","30.7426","4.80996","27.51","0","SATNPRO1963","30.16","0.42244","5"],
    [5029,"HCEP03730564","2023-11-19 17:45:00","12.1743","3.57601","26.698","2.447","7.53","0.241","4.044","0","0","30.7415","4.80979","27.64","0","SATNPRO1963","30.448","0.42644","5"],
    [5030,"HCEP03730564","2023-11-19 18:00:00","12.1748","3.57611","26.656","2.487","7.53","0.241","4.044","0","0","30.7421","4.80986","28.1","0","SATNPRO1963","30.292","0.42426","5"],
    [5031,"HCEP03730564","2023-11-19 18:15:00","12.176","3.57613","26.727","2.583","7.54","0.241","4.044","0","0","30.7412","4.80973","29.18","0","SATNPRO1963","30.208","0.42308","5"],
    [5032,"HCEP03730564","2023-11-19 18:30:00","12.1759","3.5762","26.757","2.616","7.54","0.241","4.044","0","0","30.742","4.80984","29.56","0","SATNPRO1963","29.9","0.41882","5"],
    [5033,"HCEP03730564","2023-11-19 18:45:00","12.1766","3.57644","26.762","2.605","7.54","0.241","4.044","0","0","30.7437","4.81008","29.44","0","SATNPRO1963","30.236","0.4235","5"],
    [5034,"HCEP03730564","2023-11-19 19:00:00","12.1769","3.57664","26.802","2.579","7.55","0.241","4.044","0","0","30.7453","4.8103","29.14","0","SATNPRO1963","30.224","0.42334","5"],
    [5035,"HCEP03730564","2023-11-19 19:15:00","12.176","3.57663","26.865","2.541","7.54","0.241","4.044","0","0","30.746","4.81041","28.71","0","SATNPRO1963","30.688","0.42986","5"],
    [5036,"HCEP03730564","2023-11-19 19:30:00","12.1761","3.57661","26.871","2.475","7.54","0.301","3.82","0.05","0.28","30.7457","4.81037","27.96","2","SATNPRO1963","30.584","0.42838","5"],
    [5037,"HCEP03730564","2023-11-19 19:45:00","12.1764","3.57652","26.897","2.523","7.53","0.301","3.82","0.05","0.28","30.7446","4.81021","28.51","0","SATNPRO1963","30.744","0.43056","5"],
    [5038,"HCEP03730564","2023-11-19 20:00:00","12.1754","3.5761","26.926","2.545","7.54",null,null,null,null,"30.7414","4.80978","28.75","2","SATNPRO1963","30.39","0.42568","5"],
    [5039,"HCEP03730564","2023-11-19 20:15:00","12.1744","3.57585","26.978","2.544","7.53",null,null,null,null,"30.7397","4.80956","28.74","2","SATNPRO1963","30.422","0.42614","5"],
    [5040,"HCEP03730564","2023-11-19 20:30:00","12.174","3.57559","26.983","2.556","7.54","0.301","3.82","0.05","0.28","30.7376","4.80926","28.88","0","SATNPRO1963","30.23","0.42342","5"],
    [5041,"HCEP03730564","2023-11-19 20:45:00","12.1711","3.57502","26.987","2.474","7.54","0.301","3.82","0.05","0.28","30.7345","4.80887","27.95","0","SATNPRO1963","30.224","0.42338","5"],
    [5042,"HCEP03730564","2023-11-19 21:00:00","12.1725","3.57513","26.943","2.462","7.53","0.301","3.82","0.05","0.28","30.7344","4.80883","27.81","0","SATNPRO1963","30.438","0.42628","5"],
    [5043,"HCEP03730564","2023-11-19 21:15:00","12.1719","3.57501","26.833","2.547","7.53","0.301","3.82","0.05","0.28","30.7338","4.80875","28.77","0","SATNPRO1963","30.436","0.42634","5"],
    [5044,"HCEP03730564","2023-11-19 21:30:00","12.1722","3.57486","26.779","2.534","7.53","0.301","3.82","0.05","0.28","30.7322","4.80852","28.62","0","SATNPRO1963","30.486","0.427","5"],
    [5045,"HCEP03730564","2023-11-19 21:45:00","12.1716","3.57479","26.739","2.563","7.54",null,null,null,null,"30.7321","4.8085","28.95","2","SATNPRO1963","29.414","0.412","5"],
    [5046,"HCEP03730564","2023-11-19 22:00:00","12.1722","3.57537","26.691","2.505","7.54",null,null,null,null,"30.737","4.80919","28.29","2","SATNPRO1963","29.928","0.41916","5"],
    [5047,"HCEP03730564","2023-11-19 22:15:00","12.1754","3.57629","26.603","2.508","7.54",null,null,null,null,"30.7433","4.81002","28.33","2","SATNPRO1963","30.07","0.42114","5"],
    [5048,"HCEP03730564","2023-11-19 22:30:00","12.1757","3.57635","26.54","2.522","7.54",null,null,null,null,"30.7437","4.81007","28.5","2","SATNPRO1963","30.029999999999998","0.4206","5"],
    [5049,"HCEP03730564","2023-11-19 22:45:00","12.1755","3.5762","26.414","2.529","7.54","0.301","3.82","0.05","0.28","30.7424","4.80989","28.58","0","SATNPRO1963","30.98","0.43396","5"],
    [5050,"HCEP03730564","2023-11-19 23:00:00","12.1746","3.57591","26.284","2.529","7.54",null,null,null,null,"30.7404","4.80961","28.57","2","SATNPRO1963","30.084","0.42136","5"],
    [5051,"HCEP03730564","2023-11-19 23:15:00","12.1736","3.57554","26.168","2.505","7.54",null,null,null,null,"30.7378","4.80925","28.3","2","SATNPRO1963","30.514","0.4274","5"],
    [5052,"HCEP03730564","2023-11-19 23:30:00","12.173400000000001","3.57547","26.051","2.484","7.54",null,null,null,null,"30.7373","4.80918","28.07","2","SATNPRO1963","30.284","0.42414","5"],
    [5053,"HCEP03730564","2023-11-19 23:45:00","12.1736","3.57539","25.873","2.511","7.53",null,null,null,null,"30.7365","4.80905","28.37","2","SATNPRO1963","30.554000000000002","0.42796","5"],
    [5054,"HCEP03730564","2023-11-20 00:00:00","12.1742","3.57554","25.723","2.557","7.54","0.301","3.82","0.05","0.28","30.7374","4.80917","28.89","0","SATNPRO1963","30.498","0.42718","5"],
    [5055,"HCEP03730564","2023-11-20 00:15:00","12.1765","3.57631","25.544","2.589","7.54",null,null,null,null,"30.743","4.80991","29.25","2","SATNPRO1963","30.262","0.42388","5"],
    [5056,"HCEP03730564","2023-11-20 00:30:00","12.1767","3.5763","25.434","2.633","7.55",null,null,null,null,"30.7427","4.80987","29.74","2","SATNPRO1963","30.224","0.42332","5"],
    [5057,"HCEP03730564","2023-11-20 00:45:00","12.1759","3.57602","25.246","2.646","7.55","0.301","3.82","0.05","0.28","30.7408","4.8096","29.9","0","SATNPRO1963","30.386","0.4256","5"],
    [5058,"HCEP03730564","2023-11-20 01:00:00","12.175","3.57562","25.163","2.652","7.56",null,null,null,null,"30.7378","4.80918","29.96","2","SATNPRO1963","30.855999999999998","0.43216","5"],
    [5059,"HCEP03730564","2023-11-20 01:15:00","12.1743","3.57518","24.995","2.649","7.56",null,null,null,null,"30.7342","4.80868","29.93","2","SATNPRO1963","30.844","0.43202","5"],
    [5060,"HCEP03730564","2023-11-20 01:30:00","12.1742","3.57538","24.874","2.636","7.55","0.301","3.82","0.05","0.28","30.7363","4.80896","29.78","0","SATNPRO1963","31.016","0.43446","5"],
    [5061,"HCEP03730564","2023-11-20 01:45:00","12.1715","3.57444","24.766","2.583","7.55",null,null,null,null,"30.7295","4.80804","29.18","2","SATNPRO1963","30.822","0.4317","5"],
    [5062,"HCEP03730564","2023-11-20 02:00:00","12.1694","3.57378","24.667","2.5","7.55",null,null,null,null,"30.725","4.80742","28.24","2","SATNPRO1963","30.93","0.43324","5"],
    [5063,"HCEP03730564","2023-11-20 02:15:00","12.1639","3.57133","24.574","2.434","7.54",null,null,null,null,"30.7061","4.80484","27.49","2","SATNPRO1963","31.028000000000002","0.43462","5"],
    [5064,"HCEP03730564","2023-11-20 02:30:00","12.1659","3.57237","24.509","2.446","7.54","0.301","3.82","0.05","0.28","30.7145","4.80598","27.62","0","SATNPRO1963","30.806","0.43148","5"],
    [5065,"HCEP03730564","2023-11-20 02:45:00","12.1649","3.57198","24.452","2.475","7.54",null,null,null,null,"30.7116","4.80558","27.95","2","SATNPRO1963","30.634","0.42906","5"],
    [5066,"HCEP03730564","2023-11-20 03:00:00","12.1651","3.57178","24.453","2.508","7.54",null,null,null,null,"30.7095","4.80528","28.32","2","SATNPRO1963","30.076","0.4213","5"],
    [5067,"HCEP03730564","2023-11-20 03:15:00","12.1663","3.57199","24.44","2.546","7.54",null,null,null,null,"30.7106","4.80542","28.76","2","SATNPRO1963","29.826","0.41776","5"],
    [5068,"HCEP03730564","2023-11-20 03:30:00","12.1669","3.57202","24.456","2.608","7.54",null,null,null,null,"30.7104","4.80539","29.46","2","SATNPRO1963","30.134","0.4221","5"],
    [5069,"HCEP03730564","2023-11-20 03:45:00","12.1678","3.57207","24.489","2.66","7.54",null,null,null,null,"30.71","4.80532","30.04","2","SATNPRO1963","30.096","0.42154","5"],
    [5070,"HCEP03730564","2023-11-20 04:00:00","12.1681","3.57208","24.533","2.698","7.55",null,null,null,null,"30.7099","4.8053","30.47","2","SATNPRO1963","30.22","0.42328","5"],
    [5071,"HCEP03730564","2023-11-20 04:15:00","12.168","3.57212","24.621","2.695","7.55",null,null,null,null,"30.7103","4.80537","30.44","2","SATNPRO1963","30.47","0.42678","5"],
    [5072,"HCEP03730564","2023-11-20 04:30:00","12.1682","3.57231","24.71","2.663","7.55",null,null,null,null,"30.712","4.80561","30.08","2","SATNPRO1963","30.652","0.42932","5"],
    [5073,"HCEP03730564","2023-11-20 04:45:00","12.1693","3.57292","24.791","2.642","7.55",null,null,null,null,"30.7168","4.80627","29.84","2","SATNPRO1963","30.692","0.42994","5"],
    [5074,"HCEP03730564","2023-11-20 05:00:00","12.1706","3.57362","24.921","2.607","7.55",null,null,null,null,"30.7224","4.80705","29.45","2","SATNPRO1963","30.928","0.43322","5"],
    [5075,"HCEP03730564","2023-11-20 05:15:00","12.1708","3.57381","25.053","2.572","7.55",null,null,null,null,"30.724","4.80729","29.05","2","SATNPRO1963","31.094","0.43554","5"],
    [5076,"HCEP03730564","2023-11-20 05:30:00","12.1702","3.57377","25.197","2.532","7.55",null,null,null,null,"30.724","4.8073","28.6","2","SATNPRO1963","30.808","0.43152","5"],
    [5077,"HCEP03730564","2023-11-20 05:45:00","12.1692","3.57352","25.381","2.488","7.54",null,null,null,null,"30.7224","4.8071","28.1","2","SATNPRO1963","30.842","0.43196","5"],
    [5078,"HCEP03730564","2023-11-20 06:00:00","12.1684","3.57324","25.498","2.44","7.54","0.301","3.82","0.05","0.28","30.7203","4.80683","27.56","0","SATNPRO1963","30.74","0.43056","5"],
    [5079,"HCEP03730564","2023-11-20 06:15:00","12.1678","3.57342","25.687","2.374","7.54","0.301","3.82","0.05","0.28","30.7224","4.80714","26.81","0","SATNPRO1963","30.636","0.4291","5"],
    [5080,"HCEP03730564","2023-11-20 06:30:00","12.1671","3.5732","25.842","2.314","7.53",null,null,null,null,"30.7209","4.80695","26.13","2","SATNPRO1963","30.598","0.42858","5"],
    [5081,"HCEP03730564","2023-11-20 06:45:00","12.1669","3.57313","26.014","2.313","7.53",null,null,null,null,"30.7204","4.80688","26.13","2","SATNPRO1963","30.233999999999998","0.42346","5"],
    [5082,"HCEP03730564","2023-11-20 07:00:00","12.1667","3.57291","26.204","2.333","7.52",null,null,null,null,"30.7183","4.8066","26.35","2","SATNPRO1963","30.154","0.42234","5"],
    [5083,"HCEP03730564","2023-11-20 07:15:00","12.1658","3.5726","26.417","2.348","7.53",null,null,null,null,"30.716","4.80631","26.51","2","SATNPRO1963","29.832","0.41784","5"],
    [5084,"HCEP03730564","2023-11-20 07:30:00","12.165","3.57219","26.596","2.332","7.53",null,null,null,null,"30.7127","4.80585","26.34","2","SATNPRO1963","29.68","0.41576","5"],
    [5085,"HCEP03730564","2023-11-20 07:45:00","12.1631","3.57148","26.789","2.306","7.53",null,null,null,null,"30.7074","4.80515","26.04","2","SATNPRO1963","29.734","0.41648","5"],
    [5086,"HCEP03730564","2023-11-20 08:00:00","12.1615","3.57093","26.977","2.271","7.53",null,null,null,null,"30.7034","4.80461","25.65","2","SATNPRO1963","29.82","0.4177","5"],
    [5087,"HCEP03730564","2023-11-20 08:15:00","12.1589","3.57","27.152","2.223","7.52",null,null,null,null,"30.6965","4.80369","25.1","2","SATNPRO1963","29.855999999999998","0.41818","5"],
    [5088,"HCEP03730564","2023-11-20 08:30:00","12.1542","3.56856","27.304","2.15","7.52",null,null,null,null,"30.6866","4.80237","24.27","2","SATNPRO1963","29.804000000000002","0.41748","5"],
    [5089,"HCEP03730564","2023-11-20 08:45:00","12.1522","3.56777","27.456","2.069","7.51",null,null,null,null,"30.6806","4.80156","23.36","2","SATNPRO1963","29.439999999999998","0.41234","5"],
    [5090,"HCEP03730564","2023-11-20 09:00:00","12.1487","3.56662","27.591","2.001","7.51",null,null,null,null,"30.6724","4.80045","22.58","2","SATNPRO1963","29.464000000000002","0.4127","5"],
    [5091,"HCEP03730564","2023-11-20 09:15:00","12.1463","3.56567","27.702","1.963","7.5",null,null,null,null,"30.6652","4.79948","22.16","2","SATNPRO1963","28.868","0.40436","5"],
    [5092,"HCEP03730564","2023-11-20 09:30:00","12.1448","3.56521","27.813","1.946","7.5",null,null,null,null,"30.6621","4.79906","21.96","2","SATNPRO1963","28.574","0.40024","5"],
    [5093,"HCEP03730564","2023-11-20 09:45:00","12.1444","3.56512","27.909","1.932","7.5",null,null,null,null,"30.6615","4.799","21.8","2","SATNPRO1963","28.438","0.39832","5"],
    [5094,"HCEP03730564","2023-11-20 10:00:00","12.1438","3.56496","27.989","1.911","7.5",null,null,null,null,"30.6605","4.79886","21.56","2","SATNPRO1963","27.855999999999998","0.39016","5"],
    [5095,"HCEP03730564","2023-11-20 10:15:00","12.1439","3.56509","28.066","1.894","7.49",null,null,null,null,"30.6616","4.79902","21.37","2","SATNPRO1963","27.644000000000002","0.38722","5"],
    [5096,"HCEP03730564","2023-11-20 10:30:00","12.1434","3.56477","28.082","1.897","7.49",null,null,null,null,"30.6589","4.79865","21.4","2","SATNPRO1963","27.602","0.38662","5"],
    [5097,"HCEP03730564","2023-11-20 10:45:00","12.1434","3.5646","28.085","1.924","7.49","0.301","3.82","0.05","0.28","30.6573","4.79843","21.71","0","SATNPRO1963","27.322000000000003","0.3827","5"],
    [5098,"HCEP03730564","2023-11-20 11:00:00","12.1428","3.56432","28.114","1.948","7.49",null,null,null,null,"30.6551","4.79813","21.98","2","SATNPRO1963","27.388","0.3836","5"],
    [5099,"HCEP03730564","2023-11-20 11:15:00","12.1426","3.56418","28.145","1.965","7.49",null,null,null,null,"30.6539","4.79797","22.17","2","SATNPRO1963","27.528","0.38556","5"],
    [5100,"HCEP03730564","2023-11-20 11:30:00","12.1428","3.56438","28.143","1.95","7.49",null,null,null,null,"30.6556","4.7982","22","2","SATNPRO1963","27.306","0.38246","5"],
    [5101,"HCEP03730564","2023-11-20 11:45:00","12.1468","3.56603","28.118","1.967","7.49",null,null,null,null,"30.6682","4.79992","22.2","2","SATNPRO1963","27.400000000000002","0.38376","5"],
    [5102,"HCEP03730564","2023-11-20 12:00:00","12.154","3.5684","28.121","2.072","7.5",null,null,null,null,"30.6849","4.80217","23.39","2","SATNPRO1963","27.526","0.38554","5"],
    [5103,"HCEP03730564","2023-11-20 12:15:00","12.1593","3.57037","28.08","2.154","7.5",null,null,null,null,"30.6994","4.80413","24.32","2","SATNPRO1963","27.67","0.3876","5"],
    [5104,"HCEP03730564","2023-11-20 12:30:00","12.161","3.57099","28.041","2.182","7.5","0.301","3.82","0.05","0.28","30.7039","4.80475","24.64","0","SATNPRO1963","27.477999999999998","0.38492","5"],
    [5105,"HCEP03730564","2023-11-20 12:45:00","12.1623","3.57146","27.972","2.2","7.5",null,null,null,null,"30.7074","4.80522","24.84","2","SATNPRO1963","28.016000000000002","0.39238","5"],
    [5106,"HCEP03730564","2023-11-20 13:00:00","12.1627","3.57165","27.887","2.211","7.51",null,null,null,null,"30.709","4.80543","24.97","2","SATNPRO1963","28.648","0.40124","5"],
    [5107,"HCEP03730564","2023-11-20 13:15:00","12.1631","3.57182","27.8","2.223","7.51","0.301","3.82","0.05","0.28","30.7102","4.80559","25.1","0","SATNPRO1963","29.2","0.40898","5"],
    [5108,"HCEP03730564","2023-11-20 13:30:00","12.164","3.57213","27.701","2.236","7.51","0.301","3.82","0.05","0.28","30.7124","4.80589","25.25","0","SATNPRO1963","29.026","0.40658","5"],
    [5109,"HCEP03730564","2023-11-20 13:45:00","12.1652","3.57262","27.605","2.253","7.51","0.301","3.82","0.05","0.28","30.7163","4.80641","25.44","0","SATNPRO1963","29.392","0.41166","5"],
    [5110,"HCEP03730564","2023-11-20 14:00:00","12.1671","3.57332","27.487","2.302","7.51","0.383","30.332","0","0","30.7214","4.80711","26","2","SATNPRO1963","29.332","0.41088","5"],
    [5111,"HCEP03730564","2023-11-20 14:15:00","12.1665","3.57376","27.397","2.387","7.52","0.392","5.371","0","0","30.7262","4.80778","26.96","2","SATNPRO1963","29.544","0.41384","5"],
    [5112,"HCEP03730564","2023-11-20 14:30:00","12.1654","3.57359","27.3","2.432","7.52","0.327","5.243","0","0","30.7255","4.80769","27.47","2","SATNPRO1963","29.732","0.41644","5"],
    [5113,"HCEP03730564","2023-11-20 14:45:00","12.1633","3.57304","27.183","2.446","7.52","0.443","5.014","0","0","30.722","4.80722","27.63","2","SATNPRO1963","29.82","0.41768","5"],
    [5114,"HCEP03730564","2023-11-20 15:00:00","12.1624","3.57263","27.068","2.439","7.53","0.473","6.784","0","0","30.7189","4.80679","27.54","2","SATNPRO1963","29.954","0.41958","5"],
    [5115,"HCEP03730564","2023-11-20 15:15:00","12.1646","3.57356","26.929","2.446","7.53","0.362","5.023","0","0","30.726","4.80775","27.63","2","SATNPRO1963","30.344","0.42506","5"],
    [5116,"HCEP03730564","2023-11-20 15:30:00","12.1664","3.57435","26.766","2.456","7.53","0.323","5.756","0","0","30.7321","4.80857","27.75","2","SATNPRO1963","30.358","0.4252","5"],
    [5117,"HCEP03730564","2023-11-20 15:45:00","12.1673","3.57479","26.641","2.457","7.53","0.34","5.775","0","0","30.7356","4.80905","27.76","2","SATNPRO1963","30.102","0.42156","5"],
    [5118,"HCEP03730564","2023-11-20 16:00:00","12.1684","3.57515","26.513","2.451","7.53","0.288","5.752","0","0","30.7382","4.80939","27.69","2","SATNPRO1963","30.104","0.42168","5"],
    [5119,"HCEP03730564","2023-11-20 16:15:00","12.1698","3.57574","26.427","2.439","7.53","0.327","6.5","0","0","30.7427","4.81001","27.55","2","SATNPRO1963","30.204","0.42306","5"],
    [5120,"HCEP03730564","2023-11-20 16:30:00","12.1714","3.57632","26.385","2.418","7.53","0.4","5.238","0","0","30.7469","4.81057","27.32","2","SATNPRO1963","30.298000000000002","0.42434","5"],
    [5121,"HCEP03730564","2023-11-20 16:45:00","12.1722","3.57671","26.333","2.397","7.53","0.4","5.238","0","0","30.75","4.811","27.08","0","SATNPRO1963","30.262","0.4239","5"],
    [5122,"HCEP03730564","2023-11-20 17:00:00","12.1731","3.57701","26.296","2.379","7.52","0.271","5.458","0","0","30.7522","4.81129","26.88","2","SATNPRO1963","30.406","0.4259","5"],
    [5123,"HCEP03730564","2023-11-20 17:15:00","12.173400000000001","3.57724","26.304","2.355","7.52","0.297","5.142","0","0","30.754","4.81155","26.6","2","SATNPRO1963","30.358","0.42524","5"],
    [5124,"HCEP03730564","2023-11-20 17:30:00","12.1735","3.57723","26.261","2.335","7.52","0.306","4.918","0","0","30.7539","4.81153","26.38","2","SATNPRO1963","30.34","0.42496","5"],
    [5125,"HCEP03730564","2023-11-20 17:45:00","12.1728","3.57692","26.18","2.323","7.51","0.306","4.918","0","0","30.7516","4.81121","26.25","0","SATNPRO1963","30.236","0.4235","5"],
    [5126,"HCEP03730564","2023-11-20 18:00:00","12.1728","3.57684","26.15","2.319","7.52","0.306","4.918","0","0","30.7508","4.81109","26.2","0","SATNPRO1963","30.186","0.4228","5"],
    [5127,"HCEP03730564","2023-11-20 18:15:00","12.172","3.57654","26.141","2.321","7.52","0.306","4.918","0","0","30.7486","4.81079","26.23","0","SATNPRO1963","30.195999999999998","0.42296","5"],
    [5128,"HCEP03730564","2023-11-20 18:30:00","12.1726","3.57652","26.208","2.332","7.52","0.306","4.918","0","0","30.748","4.8107","26.35","0","SATNPRO1963","30.28","0.42412","5"],
    [5129,"HCEP03730564","2023-11-20 18:45:00","12.1722","3.57639","26.202","2.328","7.52","0.323","4.684","0","0","30.7469","4.81056","26.31","2","SATNPRO1963","30.158","0.42242","5"],
    [5130,"HCEP03730564","2023-11-20 19:00:00","12.1713","3.57567","26.271","2.317","7.52","0.323","4.684","0","0","30.7408","4.80972","26.18","0","SATNPRO1963","30.128","0.422","5"],
    [5131,"HCEP03730564","2023-11-20 19:15:00","12.1702","3.57521","26.402","2.305","7.52","0.323","4.684","0","0","30.7373","4.80924","26.04","0","SATNPRO1963","30.122","0.4219","5"],
    [5132,"HCEP03730564","2023-11-20 19:30:00","12.1719","3.57605","26.413","2.308","7.52","0.323","4.684","0","0","30.7439","4.81015","26.08","0","SATNPRO1963","30.232","0.42346","5"],
    [5133,"HCEP03730564","2023-11-20 19:45:00","12.1732","3.57671","26.462","2.318","7.52","0.323","4.684","0","0","30.7492","4.81088","26.19","0","SATNPRO1963","30.178","0.42268","5"],
    [5134,"HCEP03730564","2023-11-20 20:00:00","12.1744","3.57714","26.507","2.338","7.52","0.323","4.684","0","0","30.7523","4.8113","26.41","0","SATNPRO1963","29.966","0.4197","5"],
    [5135,"HCEP03730564","2023-11-20 20:15:00","12.1751","3.57753","26.526","2.362","7.52","0.323","4.684","0","0","30.7554","4.81172","26.69","0","SATNPRO1963","30.034","0.42066","5"],
    [5136,"HCEP03730564","2023-11-20 20:30:00","12.1812","3.58007","26.614","2.444","7.53","0.284","3.875","0","0","30.7746","4.81435","27.62","2","SATNPRO1963","30.108","0.42172","5"],
    [5137,"HCEP03730564","2023-11-20 20:45:00","12.183","3.58095","26.658","2.495","7.53","0.263","3.962","0","0","30.7815","4.81531","28.2","2","SATNPRO1963","30.12","0.4219","5"],
    [5138,"HCEP03730564","2023-11-20 21:00:00","12.1845","3.58158","26.687","2.51","7.53","0.288","4.263","0","0","30.7863","4.81596","28.37","2","SATNPRO1963","30.294","0.42432","5"],
    [5139,"HCEP03730564","2023-11-20 21:15:00","12.1857","3.58214","26.731","2.524","7.54","0.267","3.619","0","0","30.7907","4.81656","28.53","2","SATNPRO1963","30.48","0.42694","5"],
    [5140,"HCEP03730564","2023-11-20 21:30:00","12.1859","3.5822","26.742","2.531","7.54","0.267","3.619","0","0","30.7911","4.81662","28.61","0","SATNPRO1963","31.356","0.43918","5"],
    [5141,"HCEP03730564","2023-11-20 21:45:00","12.1865","3.58247","26.796","2.526","7.54","0.271","3.838","0","0","30.7931","4.8169","28.56","2","SATNPRO1963","31.546","0.44186","5"],
    [5142,"HCEP03730564","2023-11-20 22:00:00","12.1839","3.58081","26.767","2.551","7.54","0.271","3.838","0","0","30.7794","4.81501","28.83","0","SATNPRO1963","31.502","0.44124","5"],
    [5143,"HCEP03730564","2023-11-20 22:15:00","12.1857","3.58224","26.784","2.538","7.54","0.318","3.55","0","0","30.7915","4.81668","28.69","2","SATNPRO1963","31.618000000000002","0.44286","5"],
    [5144,"HCEP03730564","2023-11-20 22:30:00","12.1852","3.58162","26.769","2.537","7.54","0.318","3.55","0","0","30.7861","4.81593","28.68","0","SATNPRO1963","31.642","0.4432","5"],
    [5145,"HCEP03730564","2023-11-20 22:45:00","12.1849","3.58165","26.749","2.539","7.54","0.349","3.463","0","0","30.7866","4.81601","28.71","2","SATNPRO1963","31.72","0.44426","5"],
    [5146,"HCEP03730564","2023-11-20 23:00:00","12.1845","3.58128","26.735","2.54","7.54","0.349","3.463","0","0","30.7834","4.81556","28.71","0","SATNPRO1963","31.59","0.44248","5"],
    [5147,"HCEP03730564","2023-11-20 23:15:00","12.1846","3.58133","26.769","2.534","7.54","0.349","3.463","0","0","30.7838","4.81562","28.65","0","SATNPRO1963","31.658","0.4434","5"],
    [5148,"HCEP03730564","2023-11-20 23:30:00","12.1836","3.58065","26.724","2.542","7.54","0.349","3.463","0","0","30.7781","4.81482","28.74","0","SATNPRO1963","31.734","0.4445","5"],
    [5149,"HCEP03730564","2023-11-20 23:45:00","12.1825","3.58016","26.628","2.551","7.54","0.349","3.463","0","0","30.7744","4.81431","28.83","0","SATNPRO1963","31.62","0.44288","5"],
    [5150,"HCEP03730564","2023-11-21 00:00:00","12.1816","3.57965","26.581","2.552","7.55","0.224","2.276","0","0","30.7702","4.81373","28.84","2","SATNPRO1963","31.52","0.44148","5"],
    [5151,"HCEP03730564","2023-11-21 00:15:00","12.1809","3.57912","26.467","2.547","7.55","0.232","1.966","0","0","30.7658","4.81312","28.79","2","SATNPRO1963","31.544","0.44184","5"],
    [5152,"HCEP03730564","2023-11-21 00:30:00","12.1817","3.57915","26.395","2.587","7.55","0.232","1.966","0","0","30.7655","4.81305","29.23","0","SATNPRO1963","31.779999999999998","0.44512","5"],
    [5153,"HCEP03730564","2023-11-21 00:45:00","12.1807","3.57906","26.322","2.599","7.55","0.232","1.966","0","0","30.7654","4.81305","29.38","0","SATNPRO1963","31.59","0.44244","5"],
    [5154,"HCEP03730564","2023-11-21 01:00:00","12.181","3.57898","26.222","2.608","7.55","0.232","1.966","0","0","30.7645","4.81291","29.47","0","SATNPRO1963","31.546","0.44184","5"],
    [5155,"HCEP03730564","2023-11-21 01:15:00","12.1806","3.57899","26.104","2.588","7.55","0.245","1.925","0","0","30.7649","4.81297","29.25","2","SATNPRO1963","31.512","0.44136","5"],
    [5156,"HCEP03730564","2023-11-21 01:30:00","12.1807","3.57919","26.023","2.567","7.55","0.245","1.925","0","0","30.7668","4.81323","29.01","0","SATNPRO1963","31.802","0.44542","5"],
    [5157,"HCEP03730564","2023-11-21 01:45:00","12.1815","3.57943","25.87","2.578","7.55","0.245","1.925","0","0","30.7685","4.81345","29.13","0","SATNPRO1963","31.676000000000002","0.44364","5"],
    [5158,"HCEP03730564","2023-11-21 02:00:00","12.1825","3.57968","25.735","2.584","7.55","0.245","1.925","0","0","30.7702","4.81366","29.21","0","SATNPRO1963","31.872","0.4464","5"],
    [5159,"HCEP03730564","2023-11-21 02:15:00","12.1822","3.5799","25.639","2.579","7.55","0.245","1.925","0","0","30.7726","4.814","29.15","0","SATNPRO1963","31.49","0.44108","5"],
    [5160,"HCEP03730564","2023-11-21 02:30:00","12.1823","3.58008","25.528","2.554","7.55","0.232","2.509","0","0","30.7742","4.81422","28.87","2","SATNPRO1963","31.582","0.44236","5"],
    [5161,"HCEP03730564","2023-11-21 02:45:00","12.1824","3.58038","25.422","2.546","7.54","0.224","2.71","0","0","30.7771","4.81462","28.77","2","SATNPRO1963","31.805999999999997","0.44552","5"],
    [5162,"HCEP03730564","2023-11-21 03:00:00","12.184","3.58101","25.294","2.519","7.54","0.224","2.71","0","0","30.7818","4.81526","28.47","0","SATNPRO1963","31.738","0.44452","5"],
    [5163,"HCEP03730564","2023-11-21 03:15:00","12.1836","3.58121","25.197","2.488","7.54","0.224","2.71","0","0","30.7841","4.81558","28.12","0","SATNPRO1963","31.701999999999998","0.44402","5"],
    [5164,"HCEP03730564","2023-11-21 03:30:00","12.1837","3.58142","25.106","2.452","7.54","0.224","2.71","0","0","30.786","4.81585","27.71","0","SATNPRO1963","31.676000000000002","0.4437","5"],
    [5165,"HCEP03730564","2023-11-21 03:45:00","12.1842","3.58156","25.022","2.455","7.53","0.224","2.71","0","0","30.787","4.81597","27.75","0","SATNPRO1963","31.548000000000002","0.44192","5"],
    [5166,"HCEP03730564","2023-11-21 04:00:00","12.1835","3.58156","24.99","2.429","7.53","0.224","2.71","0","0","30.7876","4.81607","27.46","0","SATNPRO1963","31.406","0.43986","5"],
    [5167,"HCEP03730564","2023-11-21 04:15:00","12.1839","3.5817","24.938","2.423","7.53","0.224","2.71","0","0","30.7886","4.8162","27.39","0","SATNPRO1963","31.354","0.43916","5"],
    [5168,"HCEP03730564","2023-11-21 04:30:00","12.1836","3.58127","24.905","2.45","7.53","0.224","2.71","0","0","30.7847","4.81565","27.69","0","SATNPRO1963","31.432","0.44032","5"],
    [5169,"HCEP03730564","2023-11-21 04:45:00","12.184","3.58162","24.898","2.447","7.53","0.224","2.71","0","0","30.7878","4.81608","27.66","0","SATNPRO1963","31.490000000000002","0.4411","5"],
    [5170,"HCEP03730564","2023-11-21 05:00:00","12.1841","3.58163","24.895","2.433","7.53","0.224","2.71","0","0","30.7878","4.81607","27.5","0","SATNPRO1963","31.052","0.43492","5"],
    [5171,"HCEP03730564","2023-11-21 05:15:00","12.1869","3.5831","24.954","2.429","7.53","0.258","3.541","0","0","30.7995","4.81769","27.46","2","SATNPRO1963","31.382","0.43954","5"],
    [5172,"HCEP03730564","2023-11-21 05:30:00","12.1877","3.58318","25.014","2.439","7.53","0.219","3.198","0","0","30.7996","4.8177","27.57","2","SATNPRO1963","31.33","0.43888","5"],
    [5173,"HCEP03730564","2023-11-21 05:45:00","12.1879","3.58326","25.095","2.449","7.53","0.284","3.212","0","0","30.8002","4.81779","27.69","2","SATNPRO1963","31.036","0.43472","5"],
    [5174,"HCEP03730564","2023-11-21 06:00:00","12.1892","3.58419","25.172","2.423","7.53","0.25","4.058","0","0","30.8079","4.81886","27.4","2","SATNPRO1963","31.226","0.43738","5"],
    [5175,"HCEP03730564","2023-11-21 06:15:00","12.1894","3.5842","25.287","2.412","7.53","0.258","3.386","0","0","30.8078","4.81885","27.27","2","SATNPRO1963","31.538","0.44176","5"],
    [5176,"HCEP03730564","2023-11-21 06:30:00","12.1898","3.58432","25.415","2.421","7.53","0.245","3.701","0","0","30.8086","4.81896","27.37","2","SATNPRO1963","31.74","0.44458","5"],
    [5177,"HCEP03730564","2023-11-21 06:45:00","12.1892","3.58358","25.579","2.467","7.54","0.28","2.984","0","0","30.802","4.81805","27.89","2","SATNPRO1963","31.626","0.44296","5"],
    [5178,"HCEP03730564","2023-11-21 07:00:00","12.1863","3.58221","25.708","2.504","7.54","0.202","1.912","0","0","30.7912","4.81658","28.31","2","SATNPRO1963","31.772","0.44502","5"],
    [5179,"HCEP03730564","2023-11-21 07:15:00","12.1848","3.58161","25.872","2.513","7.54","0.267","2.518","0","0","30.7867","4.81596","28.41","2","SATNPRO1963","31.656","0.44336","5"],
    [5180,"HCEP03730564","2023-11-21 07:30:00","12.1898","3.58511","26.015","2.384","7.53","0.254","3.862","0","0.03","30.8159","4.82002","26.95","2","SATNPRO1963","31.72","0.44428","5"],
    [5181,"HCEP03730564","2023-11-21 07:45:00","12.191","3.5858","26.178","2.294","7.53","0.254","3.862","0","0.03","30.8214","4.82079","25.94","0","SATNPRO1963","32.196","0.45092","5"],
    [5182,"HCEP03730564","2023-11-21 08:00:00","12.1907","3.58562","26.325","2.276","7.52","0.254","3.862","0","0.03","30.8199","4.82058","25.74","0","SATNPRO1963","31.856","0.44618","5"],
    [5183,"HCEP03730564","2023-11-21 08:15:00","12.1903","3.58549","26.517","2.278","7.52","0.254","3.862","0","0.03","30.8189","4.82046","25.76","0","SATNPRO1963","31.886","0.44664","5"],
    [5184,"HCEP03730564","2023-11-21 08:30:00","12.1905","3.58581","26.689","2.238","7.52","0.254","3.862","0","0.03","30.8217","4.82087","25.31","0","SATNPRO1963","31.112","0.43576","5"],
    [5185,"HCEP03730564","2023-11-21 08:45:00","12.1932","3.58653","26.936","2.265","7.52","0.271","4.41","0","0","30.8263","4.82148","25.61","2","SATNPRO1963","31.502","0.44124","5"],
    [5186,"HCEP03730564","2023-11-21 09:00:00","12.1937","3.58672","27.099","2.304","7.52","0.25","4.176","0","0","30.8276","4.82168","26.06","2","SATNPRO1963","31.432","0.44024","5"],
    [5187,"HCEP03730564","2023-11-21 09:15:00","12.1942","3.58697","27.284","2.324","7.52","0.263","4.227","0","0","30.8295","4.82195","26.28","2","SATNPRO1963","31.154","0.4364","5"],
    [5188,"HCEP03730564","2023-11-21 09:30:00","12.1946","3.58702","27.448","2.336","7.52","0.275","3.669","0","0","30.8297","4.82197","26.41","2","SATNPRO1963","31.076","0.43528","5"],
    [5189,"HCEP03730564","2023-11-21 09:45:00","12.1927","3.58571","27.625","2.377","7.53","0.228","2.751","0","0","30.8186","4.82045","26.87","2","SATNPRO1963","31.292","0.43834","5"],
    [5190,"HCEP03730564","2023-11-21 10:00:00","12.1934","3.58637","27.737","2.369","7.52","0.241","3.801","0","0","30.8242","4.82124","26.79","2","SATNPRO1963","31.69","0.44388","5"],
    [5191,"HCEP03730564","2023-11-21 10:15:00","12.1932","3.58627","27.883","2.354","7.52","0.241","3.801","0","0","30.8234","4.82114","26.61","0","SATNPRO1963","31.656","0.44336","5"],
    [5192,"HCEP03730564","2023-11-21 10:30:00","12.1926","3.58607","27.958","2.352","7.52","0.232","3.92","0","0","30.822","4.82094","26.6","2","SATNPRO1963","31.852","0.44612","5"],
    [5193,"HCEP03730564","2023-11-21 10:45:00","12.1924","3.58597","28.034","2.353","7.52","0.232","3.92","0","0","30.8211","4.82083","26.61","0","SATNPRO1963","31.768","0.44494","5"],
    [5194,"HCEP03730564","2023-11-21 11:00:00","12.1923","3.58587","28.109","2.349","7.52","0.232","3.92","0","0","30.8203","4.82072","26.56","0","SATNPRO1963","31.824","0.44572","5"],
    [5195,"HCEP03730564","2023-11-21 11:15:00","12.1916","3.58568","28.153","2.341","7.52","0.232","3.92","0","0","30.819","4.82055","26.47","0","SATNPRO1963","31.626","0.443","5"],
    [5196,"HCEP03730564","2023-11-21 11:30:00","12.191","3.58546","28.179","2.336","7.52","0.228","3.76","0","0","30.8174","4.82033","26.42","2","SATNPRO1963","31.698","0.444","5"],
    [5197,"HCEP03730564","2023-11-21 11:45:00","12.1911","3.58555","28.181","2.336","7.52","0.228","3.76","0","0","30.8181","4.82044","26.41","0","SATNPRO1963","31.606","0.44272","5"],
    [5198,"HCEP03730564","2023-11-21 12:00:00","12.1914","3.58551","28.166","2.348","7.52","0.228","3.614","0","0","30.8175","4.82035","26.55","2","SATNPRO1963","31.727999999999998","0.44436","5"],
    [5199,"HCEP03730564","2023-11-21 12:15:00","12.1908","3.58528","28.183","2.343","7.52","0.228","3.614","0","0","30.8158","4.82012","26.5","0","SATNPRO1963","31.508","0.44132","5"],
    [5200,"HCEP03730564","2023-11-21 12:30:00","12.1898","3.58498","28.119","2.335","7.52","0.228","3.614","0","0","30.8137","4.81983","26.4","0","SATNPRO1963","31.208000000000002","0.4371","5"],
    [5201,"HCEP03730564","2023-11-21 12:45:00","12.1888","3.58454","28.07","2.324","7.52","0.228","3.614","0","0","30.8105","4.81939","26.28","0","SATNPRO1963","31.352","0.43914","5"],
    [5202,"HCEP03730564","2023-11-21 13:00:00","12.1881","3.58424","28.029","2.315","7.52","0.228","3.614","0","0","30.8082","4.81907","26.18","0","SATNPRO1963","31.678","0.4437","5"],
    [5203,"HCEP03730564","2023-11-21 13:15:00","12.1871","3.58389","27.945","2.312","7.52","0.28","3.847","0","0","30.8056","4.81872","26.14","2","SATNPRO1963","31.494","0.44116","5"],
    [5204,"HCEP03730564","2023-11-21 13:30:00","12.1855","3.58312","27.887","2.311","7.52","0.25","3.87","0","0","30.7998","4.81791","26.12","2","SATNPRO1963","31.356","0.43916","5"],
    [5205,"HCEP03730564","2023-11-21 13:45:00","12.1847","3.58227","27.802","2.308","7.52","0.25","3.87","0","0","30.7923","4.81686","26.09","0","SATNPRO1963","31.23","0.43746","5"],
    [5206,"HCEP03730564","2023-11-21 14:00:00","12.183","3.58157","27.739","2.345","7.52","0.25","3.87","0","0","30.787","4.81615","26.5","0","SATNPRO1963","31.192","0.43688","5"],
    [5207,"HCEP03730564","2023-11-21 14:15:00","12.1827","3.58173","27.65","2.305","7.52","0.25","3.87","0","0","30.7889","4.8164","26.06","0","SATNPRO1963","31.2","0.43704","5"],
    [5208,"HCEP03730564","2023-11-21 14:30:00","12.1823","3.58149","27.502","2.286","7.52","0.25","3.87","0","0","30.787","4.81613","25.84","0","SATNPRO1963","30.844","0.43204","5"],
    [5209,"HCEP03730564","2023-11-21 14:45:00","12.1823","3.58134","27.393","2.285","7.52","0.25","3.87","0","0","30.7855","4.81592","25.82","0","SATNPRO1963","31.03","0.43464","5"],
    [5210,"HCEP03730564","2023-11-21 15:00:00","12.1815","3.58106","27.261","2.288","7.52","0.25","3.87","0","0","30.7836","4.81565","25.87","0","SATNPRO1963","31.022","0.4345","5"],
    [5211,"HCEP03730564","2023-11-21 15:15:00","12.1815","3.581","27.099","2.288","7.52","0.25","3.87","0","0","30.7831","4.81557","25.86","0","SATNPRO1963","30.882","0.43254","5"],
    [5212,"HCEP03730564","2023-11-21 15:30:00","12.1816","3.581","26.952","2.288","7.52","0.25","3.87","0","0","30.783","4.81556","25.86","0","SATNPRO1963","30.934","0.43328","5"],
    [5213,"HCEP03730564","2023-11-21 15:45:00","12.1808","3.58028","26.899","2.328","7.52","0.25","3.87","0","0","30.7768","4.81468","26.31","0","SATNPRO1963","30.8","0.43136","5"],
    [5214,"HCEP03730564","2023-11-21 16:00:00","12.1806","3.58028","26.717","2.339","7.52","0.25","3.87","0","0","30.777","4.81471","26.44","0","SATNPRO1963","30.886","0.43256","5"],
    [5215,"HCEP03730564","2023-11-21 16:15:00","12.1817","3.581","26.565","2.305","7.52","0.25","3.87","0","0","30.7831","4.81555","26.05","0","SATNPRO1963","30.884","0.4326","5"],
    [5216,"HCEP03730564","2023-11-21 16:30:00","12.1811","3.58061","26.43","2.305","7.52","0.25","3.87","0","0","30.7799","4.81509","26.05","0","SATNPRO1963","30.544","0.42782","5"],
    [5217,"HCEP03730564","2023-11-21 16:45:00","12.1823","3.5815","26.265","2.287","7.52","0.25","3.87","0","0","30.7876","4.81615","25.85","0","SATNPRO1963","31.144","0.43626","5"],
    [5218,"HCEP03730564","2023-11-21 17:00:00","12.1809","3.58048","26.138","2.292","7.52","0.25","3.87","0","0","30.779","4.81495","25.9","0","SATNPRO1963","30.924","0.43314","5"],
    [5219,"HCEP03730564","2023-11-21 17:15:00","12.1797","3.57989","26.014","2.3","7.51","0.241","3.185","0","0","30.7743","4.8143","26","2","SATNPRO1963","30.808","0.43154","5"],
    [5220,"HCEP03730564","2023-11-21 17:30:00","12.1811","3.58062","25.915","2.298","7.51","0.241","3.185","0","0","30.7801","4.8151","25.98","0","SATNPRO1963","30.916","0.43302","5"],
    [5221,"HCEP03730564","2023-11-21 17:45:00","12.1802","3.58012","25.842","2.303","7.52","0.241","3.185","0","0","30.7762","4.81455","26.03","0","SATNPRO1963","30.788","0.43126","5"],
    [5222,"HCEP03730564","2023-11-21 18:00:00","12.1825","3.58135","25.805","2.299","7.52","0.241","3.185","0","0","30.786","4.8159","25.98","0","SATNPRO1963","30.77","0.43098","5"],
    [5223,"HCEP03730564","2023-11-21 18:15:00","12.1866","3.58378","25.775","2.268","7.52","0.241","3.185","0","0","30.8059","4.81864","25.64","0","SATNPRO1963","30.896","0.43276","5"],
    [5224,"HCEP03730564","2023-11-21 18:30:00","12.1887","3.58506","25.775","2.212","7.52","0.241","3.185","0","0","30.8165","4.82011","25.02","0","SATNPRO1963","31","0.43422","5"],
    [5225,"HCEP03730564","2023-11-21 18:45:00","12.1901","3.58561","25.782","2.221","7.51","0.241","3.185","0","0","30.8205","4.82065","25.11","0","SATNPRO1963","31.006","0.43428","5"],
    [5226,"HCEP03730564","2023-11-21 19:00:00","12.1908","3.58541","25.793","2.273","7.51","0.241","3.185","0","0","30.818","4.8203","25.7","0","SATNPRO1963","31.04","0.4348","5"],
    [5227,"HCEP03730564","2023-11-21 19:15:00","12.193","3.58603","25.823","2.341","7.52",null,null,null,null,"30.8221","4.82084","26.47","2","SATNPRO1963","31.108","0.4357","5"],
    [5228,"HCEP03730564","2023-11-21 19:30:00","12.1945","3.58644","25.865","2.375","7.52",null,null,null,null,"30.8248","4.8212","26.85","2","SATNPRO1963","30.804000000000002","0.43144","5"],
    [5229,"HCEP03730564","2023-11-21 19:45:00","12.1922","3.58519","25.9","2.409","7.52","0.241","3.185","0","0","30.8147","4.81981","27.24","0","SATNPRO1963","31.268","0.43794","5"],
    [5230,"HCEP03730564","2023-11-21 20:00:00","12.1898","3.58454","25.938","2.385","7.52",null,null,null,null,"30.8104","4.81925","26.97","2","SATNPRO1963","31.614","0.44278","5"],
    [5231,"HCEP03730564","2023-11-21 20:15:00","12.1904","3.58481","25.971","2.37","7.52",null,null,null,null,"30.8125","4.81953","26.8","2","SATNPRO1963","31.804","0.44546","5"],
    [5232,"HCEP03730564","2023-11-21 20:30:00","12.1945","3.58585","26.045","2.432","7.52",null,null,null,null,"30.8191","4.82041","27.5","2","SATNPRO1963","31.855999999999998","0.44622","5"],
    [5233,"HCEP03730564","2023-11-21 20:45:00","12.1959","3.58653","26.08","2.472","7.53","0.241","3.185","0","0","30.8244","4.82114","27.95","0","SATNPRO1963","32.117999999999995","0.44988","5"],
    [5234,"HCEP03730564","2023-11-21 21:00:00","12.1942","3.58571","26.134","2.492","7.53",null,null,null,null,"30.8179","4.82025","28.18","2","SATNPRO1963","31.79","0.44526","5"],
    [5235,"HCEP03730564","2023-11-21 21:15:00","12.1928","3.58572","26.209","2.424","7.53",null,null,null,null,"30.8192","4.82045","27.41","2","SATNPRO1963","31.816","0.44562","5"],
    [5236,"HCEP03730564","2023-11-21 21:30:00","12.1916","3.58545","26.27","2.375","7.53",null,null,null,null,"30.8175","4.82023","26.86","2","SATNPRO1963","32.36","0.45324","5"],
    [5237,"HCEP03730564","2023-11-21 21:45:00","12.1874","3.5844","26.365","2.285","7.52",null,null,null,null,"30.811","4.81938","25.84","2","SATNPRO1963","32.632","0.45708","5"],
    [5238,"HCEP03730564","2023-11-21 22:00:00","12.1854","3.584","26.457","2.182","7.51",null,null,null,null,"30.8087","4.8191","24.67","2","SATNPRO1963","32.314","0.45262","5"],
    [5239,"HCEP03730564","2023-11-21 22:15:00","12.1841","3.58353","26.537","2.138","7.51",null,null,null,null,"30.8053","4.81863","24.17","2","SATNPRO1963","32.092","0.4495","5"],
    [5240,"HCEP03730564","2023-11-21 22:30:00","12.1848","3.58313","26.587","2.176","7.51","0.241","3.185","0","0","30.8009","4.818","24.6","0","SATNPRO1963","31.99","0.44808","5"],
    [5241,"HCEP03730564","2023-11-21 22:45:00","12.1827","3.58237","26.66","2.203","7.51","0.241","3.185","0","0","30.7954","4.81726","24.91","0","SATNPRO1963","31.04","0.43474","5"],
    [5242,"HCEP03730564","2023-11-21 23:00:00","12.1824","3.58245","26.719","2.144","7.51",null,null,null,null,"30.7963","4.8174","24.23","2","SATNPRO1963","30.276","0.42406","5"],
    [5243,"HCEP03730564","2023-11-21 23:15:00","12.1825","3.58276","26.74","2.13","7.51",null,null,null,null,"30.7992","4.81781","24.08","2","SATNPRO1963","30.782","0.43118","5"],
    [5244,"HCEP03730564","2023-11-21 23:30:00","12.1863","3.58394","26.786","2.174","7.51","0.241","3.185","0","0","30.8073","4.8189","24.58","0","SATNPRO1963","31.076","0.4353","5"],
    [5245,"HCEP03730564","2023-11-21 23:45:00","12.1867","3.58461","26.868","2.177","7.51",null,null,null,null,"30.8133","4.81975","24.61","2","SATNPRO1963","30.576","0.42824","5"],
    [5246,"HCEP03730564","2023-11-22 00:00:00","12.1879","3.58488","26.879","2.181","7.51",null,null,null,null,"30.8149","4.81995","24.66","2","SATNPRO1963","30.682000000000002","0.42974","5"],
    [5247,"HCEP03730564","2023-11-22 00:15:00","12.1879","3.58486","26.866","2.153","7.51","0.241","3.185","0","0","30.8148","4.81994","24.35","0","SATNPRO1963","30.228","0.4234","5"],
    [5248,"HCEP03730564","2023-11-22 00:30:00","12.1873","3.58472","26.823","2.134","7.51",null,null,null,null,"30.814","4.81983","24.13","2","SATNPRO1963","31.426","0.4402","5"],
    [5249,"HCEP03730564","2023-11-22 00:45:00","12.1879","3.585","26.792","2.127","7.51",null,null,null,null,"30.816","4.82011","24.05","2","SATNPRO1963","30.740000000000002","0.43056","5"],
    [5250,"HCEP03730564","2023-11-22 01:00:00","12.1889","3.5851","26.749","2.159","7.51","0.241","3.185","0","0","30.8162","4.82012","24.41","0","SATNPRO1963","31.272","0.43806","5"],
    [5251,"HCEP03730564","2023-11-22 01:15:00","12.1916","3.58603","26.725","2.199","7.51",null,null,null,null,"30.8228","4.82101","24.87","2","SATNPRO1963","30.622","0.42894","5"],
    [5252,"HCEP03730564","2023-11-22 01:30:00","12.1902","3.58533","26.675","2.205","7.51","0.241","3.185","0","0","30.8173","4.82025","24.93","0","SATNPRO1963","30.758","0.43084","5"],
    [5253,"HCEP03730564","2023-11-22 01:45:00","12.1892","3.5854","26.646","2.155","7.51",null,null,null,null,"30.8189","4.82049","24.36","2","SATNPRO1963","30.582","0.42836","5"],
    [5254,"HCEP03730564","2023-11-22 02:00:00","12.1885","3.58506","26.567","2.138","7.51",null,null,null,null,"30.8162","4.82011","24.18","2","SATNPRO1963","31.041999999999998","0.43478","5"],
    [5255,"HCEP03730564","2023-11-22 02:15:00","12.1879","3.58435","26.452","2.188","7.51","0.241","3.185","0","0","30.81","4.81923","24.73","0","SATNPRO1963","31.606","0.44268","5"],
    [5256,"HCEP03730564","2023-11-22 02:30:00","12.1861","3.58315","26.383","2.267","7.51","0.241","3.185","0","0","30.8","4.81786","25.63","0","SATNPRO1963","31.27","0.43796","5"],
    [5257,"HCEP03730564","2023-11-22 02:45:00","12.186","3.5827","26.307","2.311","7.51",null,null,null,null,"30.7959","4.81727","26.13","2","SATNPRO1963","30.756","0.4308","5"],
    [5258,"HCEP03730564","2023-11-22 03:00:00","12.1866","3.58324","26.195","2.304","7.52",null,null,null,null,"30.8006","4.81792","26.05","2","SATNPRO1963","30.936","0.43328","5"],
    [5259,"HCEP03730564","2023-11-22 03:15:00","12.1872","3.58371","26.124","2.274","7.52",null,null,null,null,"30.8046","4.81847","25.71","2","SATNPRO1963","31.494","0.44118","5"],
    [5260,"HCEP03730564","2023-11-22 03:30:00","12.1871","3.58385","26.005","2.244","7.52",null,null,null,null,"30.8061","4.81868","25.37","2","SATNPRO1963","31.472","0.4408","5"],
    [5261,"HCEP03730564","2023-11-22 03:45:00","12.1848","3.58287","25.898","2.224","7.51",null,null,null,null,"30.7987","4.81766","25.14","2","SATNPRO1963","31.832","0.44586","5"],
    [5262,"HCEP03730564","2023-11-22 04:00:00","12.1825","3.58167","25.685","2.223","7.51","0.241","3.185","0","0","30.7892","4.81634","25.13","0","SATNPRO1963","31.554","0.44196","5"],
    [5263,"HCEP03730564","2023-11-22 04:15:00","12.1791","3.58031","25.474","2.205","7.51","0.241","3.185","0","0","30.779","4.81494","24.92","0","SATNPRO1963","31.7","0.44402","5"],
    [5264,"HCEP03730564","2023-11-22 04:30:00","12.1762","3.57882","25.295","2.179","7.51",null,null,null,null,"30.7673","4.81333","24.62","2","SATNPRO1963","31.418","0.44006","5"],
    [5265,"HCEP03730564","2023-11-22 04:45:00","12.1756","3.57877","25.202","2.18","7.51",null,null,null,null,"30.7673","4.81333","24.64","2","SATNPRO1963","31.278","0.43812","5"],
    [5266,"HCEP03730564","2023-11-22 05:00:00","12.1737","3.57784","25.136","2.181","7.51","0.241","3.185","0","0","30.76","4.81233","24.64","0","SATNPRO1963","31.939999999999998","0.44738","5"],
    [5267,"HCEP03730564","2023-11-22 05:15:00","12.172","3.57701","25.096","2.184","7.51","0.241","3.185","0","0","30.7536","4.81144","24.67","0","SATNPRO1963","30.7","0.43002","5"],
    [5268,"HCEP03730564","2023-11-22 05:30:00","12.172","3.57691","25.059","2.201","7.51","0.241","3.185","0","0","30.7526","4.8113","24.87","0","SATNPRO1963","30.578","0.42828","5"],
    [5269,"HCEP03730564","2023-11-22 05:45:00","12.1725","3.57691","25.07","2.23","7.51",null,null,null,null,"30.7522","4.81123","25.19","2","SATNPRO1963","30.674","0.42966","5"],
    [5270,"HCEP03730564","2023-11-22 06:00:00","12.172","3.57676","25.088","2.24","7.51","0.241","3.185","0","0","30.7512","4.81109","25.31","0","SATNPRO1963","30.554","0.42796","5"],
    [5271,"HCEP03730564","2023-11-22 06:15:00","12.1718","3.57659","25.138","2.227","7.52","0.241","3.185","0","0","30.7497","4.81089","25.16","0","SATNPRO1963","30.432","0.42624","5"],
    [5272,"HCEP03730564","2023-11-22 06:30:00","12.1706","3.57624","25.207","2.204","7.51",null,null,null,null,"30.7473","4.81058","24.9","2","SATNPRO1963","30.68","0.42974","5"],
    [5273,"HCEP03730564","2023-11-22 06:45:00","12.1707","3.57623","25.266","2.187","7.51","0.241","3.185","0","0","30.7471","4.81055","24.7","0","SATNPRO1963","30.772","0.43104","5"],
    [5274,"HCEP03730564","2023-11-22 07:00:00","12.1701","3.57601","25.354","2.175","7.51","0.241","3.185","0","0","30.7455","4.81034","24.57","0","SATNPRO1963","30.956","0.43358","5"],
    [5275,"HCEP03730564","2023-11-22 07:15:00","12.1698","3.576","25.467","2.168","7.51","0.241","3.185","0","0","30.7456","4.81036","24.49","0","SATNPRO1963","30.644","0.42926","5"],
    [5276,"HCEP03730564","2023-11-22 07:30:00","12.17","3.57601","25.589","2.161","7.5",null,null,null,null,"30.7454","4.81034","24.41","2","SATNPRO1963","30.478","0.42686","5"],
    [5277,"HCEP03730564","2023-11-22 07:45:00","12.17","3.57601","25.718","2.16","7.5",null,null,null,null,"30.7454","4.81034","24.4","2","SATNPRO1963","30.636","0.42912","5"],
    [5278,"HCEP03730564","2023-11-22 08:00:00","12.17","3.57603","25.872","2.147","7.5","0.241","3.185","0","0","30.7455","4.81037","24.26","0","SATNPRO1963","30.42","0.42608","5"],
    [5279,"HCEP03730564","2023-11-22 08:15:00","12.1698","3.57596","26.014","2.15","7.5","0.241","3.185","0","0","30.745","4.81031","24.29","0","SATNPRO1963","30.42","0.42608","5"],
    [5280,"HCEP03730564","2023-11-22 08:30:00","12.17","3.57598","26.17","2.152","7.5",null,null,null,null,"30.7449","4.8103","24.31","2","SATNPRO1963","29.94","0.41932","5"],
    [5281,"HCEP03730564","2023-11-22 08:45:00","12.17","3.57611","26.345","2.154","7.5",null,null,null,null,"30.7461","4.81048","24.33","2","SATNPRO1963","30.25","0.42372","5"],
    [5282,"HCEP03730564","2023-11-22 09:00:00","12.1702","3.57608","26.522","2.144","7.5",null,null,null,null,"30.7456","4.81041","24.22","2","SATNPRO1963","30.264","0.4239","5"],
    [5283,"HCEP03730564","2023-11-22 09:15:00","12.1701","3.57598","26.693","2.149","7.5",null,null,null,null,"30.7446","4.81029","24.27","2","SATNPRO1963","30.286","0.42424","5"],
    [5284,"HCEP03730564","2023-11-22 09:30:00","12.17","3.57601","26.894","2.14","7.5","0.241","3.185","0","0","30.745","4.81035","24.18","0","SATNPRO1963","29.928","0.41918","5"],
    [5285,"HCEP03730564","2023-11-22 09:45:00","12.1681","3.57527","27.084","2.149","7.5",null,null,null,null,"30.7393","4.80959","24.27","2","SATNPRO1963","30.586","0.42844","5"],
    [5286,"HCEP03730564","2023-11-22 10:00:00","12.1692","3.57584","27.242","2.154","7.5",null,null,null,null,"30.7438","4.81022","24.33","2","SATNPRO1963","30.332","0.42482","5"],
    [5287,"HCEP03730564","2023-11-22 10:15:00","12.169","3.57566","27.408","2.151","7.5",null,null,null,null,"30.7421","4.80999","24.3","2","SATNPRO1963","30.31","0.42454","5"],
    [5288,"HCEP03730564","2023-11-22 10:30:00","12.1674","3.57511","27.573","2.149","7.5",null,null,null,null,"30.7382","4.80947","24.28","2","SATNPRO1963","30.622","0.42888","5"],
    [5289,"HCEP03730564","2023-11-22 10:45:00","12.1677","3.57528","27.743","2.149","7.5",null,null,null,null,"30.7395","4.80966","24.28","2","SATNPRO1963","30.259999999999998","0.42384","5"],
    [5290,"HCEP03730564","2023-11-22 11:00:00","12.1697","3.57596","27.891","2.131","7.5",null,null,null,null,"30.7443","4.81032","24.07","2","SATNPRO1963","30.422","0.42608","5"],
    [5291,"HCEP03730564","2023-11-22 11:15:00","12.1694","3.57588","28.014","2.105","7.5",null,null,null,null,"30.7437","4.81024","23.77","2","SATNPRO1963","30.488","0.42704","5"],
    [5292,"HCEP03730564","2023-11-22 11:30:00","12.1694","3.57584","28.09","2.094","7.5",null,null,null,null,"30.7433","4.81019","23.65","2","SATNPRO1963","30.195999999999998","0.42292","5"],
    [5293,"HCEP03730564","2023-11-22 11:45:00","12.1674","3.57515","28.179","2.125","7.5",null,null,null,null,"30.7383","4.80952","24.01","2","SATNPRO1963","30.55","0.42794","5"],
    [5294,"HCEP03730564","2023-11-22 12:00:00","12.1688","3.57559","28.224","2.134","7.5",null,null,null,null,"30.7414","4.80993","24.11","2","SATNPRO1963","30.458","0.42664","5"],
    [5295,"HCEP03730564","2023-11-22 12:15:00","12.1693","3.57569","28.189","2.126","7.5",null,null,null,null,"30.742","4.81001","24.01","2","SATNPRO1963","30.178","0.42268","5"],
    [5296,"HCEP03730564","2023-11-22 12:30:00","12.1694","3.57572","28.147","2.115","7.5",null,null,null,null,"30.7422","4.81003","23.9","2","SATNPRO1963","30.008","0.42028","5"],
    [5297,"HCEP03730564","2023-11-22 12:45:00","12.1691","3.57574","28.142","2.078","7.5",null,null,null,null,"30.7426","4.81009","23.47","2","SATNPRO1963","30.472","0.42678","5"],
    [5298,"HCEP03730564","2023-11-22 13:00:00","12.169","3.57588","28.114","2.061","7.49",null,null,null,null,"30.744","4.8103","23.28","2","SATNPRO1963","30.396","0.42574","5"],
    [5299,"HCEP03730564","2023-11-22 13:15:00","12.1686","3.57574","28.077","2.068","7.49","0.241","3.185","0","0","30.743","4.81015","23.36","0","SATNPRO1963","30.516000000000002","0.42744","5"],
    [5300,"HCEP03730564","2023-11-22 13:30:00","12.1601","3.57253","28.015","2.127","7.5","0.241","3.185","0","0","30.7194","4.80694","24.02","0","SATNPRO1963","30.312","0.42458","5"],
    [5301,"HCEP03730564","2023-11-22 13:45:00","12.1544","3.57031","27.925","2.174","7.5","0.241","3.185","0","0","30.7028","4.80469","24.55","0","SATNPRO1963","30.084","0.42134","5"],
    [5302,"HCEP03730564","2023-11-22 14:00:00","12.1516","3.56948","27.863","2.178","7.5","0.241","3.185","0","0","30.6973","4.80394","24.59","0","SATNPRO1963","29.954","0.41954","5"],
    [5303,"HCEP03730564","2023-11-22 14:15:00","12.1514","3.56954","27.777","2.144","7.49","0.241","3.185","0","0","30.6981","4.80405","24.21","0","SATNPRO1963","30.148","0.42228","5"],
    [5304,"HCEP03730564","2023-11-22 14:30:00","12.151","3.56971","27.67","2.109","7.49","0.241","3.185","0","0","30.7","4.80432","23.81","0","SATNPRO1963","30.086","0.4214","5"],
    [5305,"HCEP03730564","2023-11-22 14:45:00","12.1502","3.56934","27.544","2.09","7.49","0.241","3.185","0","0","30.6972","4.80393","23.6","0","SATNPRO1963","30.308","0.42454","5"],
    [5306,"HCEP03730564","2023-11-22 15:00:00","12.1491","3.56908","27.437","2.087","7.49","0.241","3.185","0","0","30.6957","4.80372","23.56","0","SATNPRO1963","29.936","0.41928","5"],
    [5307,"HCEP03730564","2023-11-22 15:15:00","12.1485","3.56898","27.302","2.078","7.49","0.241","3.185","0","0","30.6953","4.80366","23.46","0","SATNPRO1963","29.884","0.41856","5"],
    [5308,"HCEP03730564","2023-11-22 15:30:00","12.1476","3.56854","27.192","2.088","7.49","0.241","3.185","0","0","30.6919","4.80319","23.56","0","SATNPRO1963","29.416","0.41202","5"],
    [5309,"HCEP03730564","2023-11-22 15:45:00","12.1471","3.56839","27.035","2.093","7.49","0.241","3.185","0","0","30.6909","4.80306","23.63","0","SATNPRO1963","29.758","0.4168","5"],
    [5310,"HCEP03730564","2023-11-22 16:00:00","12.1475","3.56856","26.867","2.094","7.49","0.241","3.185","0","0","30.6922","4.80322","23.64","0","SATNPRO1963","29.45","0.4125","5"],
    [5311,"HCEP03730564","2023-11-22 16:15:00","12.1465","3.56818","26.699","2.109","7.49","0.241","3.185","0","0","30.6895","4.80284","23.81","0","SATNPRO1963","29.538","0.41372","5"],
    [5312,"HCEP03730564","2023-11-22 16:30:00","12.1467","3.56818","26.507","2.115","7.49","0.241","3.185","0","0","30.6895","4.80283","23.87","0","SATNPRO1963","29.625999999999998","0.41496","5"],
    [5313,"HCEP03730564","2023-11-22 16:45:00","12.1474","3.56837","26.335","2.112","7.49","0.241","3.185","0","0","30.6907","4.80299","23.84","0","SATNPRO1963","29.61","0.41474","5"],
    [5314,"HCEP03730564","2023-11-22 17:00:00","12.1487","3.56899","26.154","2.09","7.49","0.241","3.185","0","0","30.6956","4.80364","23.59","0","SATNPRO1963","29.561999999999998","0.41406","5"],
    [5315,"HCEP03730564","2023-11-22 17:15:00","12.1506","3.56985","25.96","2.056","7.49","0.241","3.185","0","0","30.7024","4.80456","23.21","0","SATNPRO1963","29.612","0.41476","5"],
    [5316,"HCEP03730564","2023-11-22 17:30:00","12.1516","3.57028","25.771","2.034","7.49","0.241","3.185","0","0","30.7057","4.80501","22.96","0","SATNPRO1963","29.812","0.41758","5"],
    [5317,"HCEP03730564","2023-11-22 17:45:00","12.1534","3.57097","25.604","2.022","7.48",null,null,null,null,"30.7109","4.80571","22.83","2","SATNPRO1963","29.69","0.41584","5"],
    [5318,"HCEP03730564","2023-11-22 18:00:00","12.1553","3.57167","25.447","2.004","7.49","0.241","3.185","0","0","30.7161","4.8064","22.63","0","SATNPRO1963","29.746000000000002","0.41664","5"],
    [5319,"HCEP03730564","2023-11-22 18:15:00","12.1581","3.57272","25.351","2.003","7.49","0.241","3.185","0","0","30.7239","4.80745","22.62","0","SATNPRO1963","29.418","0.41206","5"],
    [5320,"HCEP03730564","2023-11-22 18:30:00","12.1586","3.57289","25.251","2.003","7.49",null,null,null,null,"30.7252","4.80763","22.62","2","SATNPRO1963","29.468","0.41276","5"],
    [5321,"HCEP03730564","2023-11-22 18:45:00","12.1589","3.57307","25.191","2.007","7.49",null,null,null,null,"30.7266","4.80782","22.66","2","SATNPRO1963","29.66","0.41544","5"],
    [5322,"HCEP03730564","2023-11-22 19:00:00","12.1594","3.57331","25.165","1.981","7.49",null,null,null,null,"30.7286","4.80809","22.37","2","SATNPRO1963","29.464","0.41268","5"],
    [5323,"HCEP03730564","2023-11-22 19:15:00","12.1593","3.57333","25.129","1.974","7.49","0.241","3.185","0","0","30.7288","4.80812","22.29","0","SATNPRO1963","29.598","0.4146","5"],
    [5324,"HCEP03730564","2023-11-22 19:30:00","12.1594","3.57324","25.155","1.965","7.49","0.241","3.185","0","0","30.7278","4.80799","22.2","0","SATNPRO1963","29.582","0.41436","5"],
    [5325,"HCEP03730564","2023-11-22 19:45:00","12.1596","3.57357","25.17","1.953","7.48",null,null,null,null,"30.7308","4.80841","22.06","2","SATNPRO1963","29.814","0.41758","5"],
    [5326,"HCEP03730564","2023-11-22 20:00:00","12.1607","3.57398","25.206","1.952","7.49",null,null,null,null,"30.7339","4.80882","22.05","2","SATNPRO1963","29.566000000000003","0.4141","5"],
    [5327,"HCEP03730564","2023-11-22 20:15:00","12.1617","3.57429","25.24","1.966","7.49","0.241","3.185","0","0","30.7359","4.8091","22.2","0","SATNPRO1963","29.695999999999998","0.41594","5"],
    [5328,"HCEP03730564","2023-11-22 20:30:00","12.1625","3.57458","25.293","1.961","7.49","0.241","3.185","0","0","30.7381","4.80939","22.15","0","SATNPRO1963","29.5","0.4132","5"],
    [5329,"HCEP03730564","2023-11-22 20:45:00","12.1631","3.57479","25.364","1.972","7.48",null,null,null,null,"30.7395","4.8096","22.28","2","SATNPRO1963","29.43","0.41222","5"],
    [5330,"HCEP03730564","2023-11-22 21:00:00","12.1641","3.57507","25.41","1.974","7.48","0.241","3.185","0","0","30.7414","4.80984","22.3","0","SATNPRO1963","29.53","0.4136","5"],
    [5331,"HCEP03730564","2023-11-22 21:15:00","12.1658","3.5758","25.527","1.973","7.48",null,null,null,null,"30.7469","4.81061","22.29","2","SATNPRO1963","29.57","0.41418","5"],
    [5332,"HCEP03730564","2023-11-22 21:30:00","12.1676","3.57622","25.64","1.994","7.48",null,null,null,null,"30.7494","4.81093","22.52","2","SATNPRO1963","29.72","0.41626","5"],
    [5333,"HCEP03730564","2023-11-22 21:45:00","12.1688","3.5765","25.714","2.019","7.49",null,null,null,null,"30.7511","4.81116","22.81","2","SATNPRO1963","29.71","0.41614","5"],
    [5334,"HCEP03730564","2023-11-22 22:00:00","12.1688","3.57668","25.839","2.031","7.49",null,null,null,null,"30.7527","4.8114","22.94","2","SATNPRO1963","29.624","0.4149","5"],
    [5335,"HCEP03730564","2023-11-22 22:15:00","12.1698","3.57685","26.013","2.051","7.49","0.241","3.185","0","0","30.7534","4.81149","23.17","0","SATNPRO1963","29.984","0.41994","5"],
    [5336,"HCEP03730564","2023-11-22 22:30:00","12.1708","3.57729","26.221","2.072","7.49",null,null,null,null,"30.7568","4.81197","23.41","2","SATNPRO1963","30.142","0.42218","5"],
    [5337,"HCEP03730564","2023-11-22 22:45:00","12.1714","3.57753","26.248","2.084","7.49",null,null,null,null,"30.7585","4.8122","23.54","2","SATNPRO1963","30.304","0.42444","5"],
    [5338,"HCEP03730564","2023-11-22 23:00:00","12.1712","3.57737","26.372","2.097","7.49",null,null,null,null,"30.7571","4.81202","23.69","2","SATNPRO1963","30.456","0.42658","5"],
    [5339,"HCEP03730564","2023-11-22 23:15:00","12.1709","3.57724","26.5","2.101","7.49",null,null,null,null,"30.7561","4.81188","23.73","2","SATNPRO1963","30.462","0.42666","5"],
    [5340,"HCEP03730564","2023-11-22 23:30:00","12.1706","3.57708","26.613","2.105","7.49",null,null,null,null,"30.7548","4.81172","23.79","2","SATNPRO1963","30.7","0.43","5"],
    [5341,"HCEP03730564","2023-11-22 23:45:00","12.1708","3.57716","26.723","2.106","7.49",null,null,null,null,"30.7553","4.81179","23.79","2","SATNPRO1963","30.89","0.43268","5"],
    [5342,"HCEP03730564","2023-11-23 00:00:00","12.1707","3.57713","26.844","2.103","7.49",null,null,null,null,"30.755","4.81176","23.76","2","SATNPRO1963","30.786","0.43124","5"],
    [5343,"HCEP03730564","2023-11-23 00:15:00","12.1708","3.57713","26.909","2.109","7.49","0.241","3.185","0","0","30.7549","4.81174","23.83","0","SATNPRO1963","30.7","0.43","5"],
    [5344,"HCEP03730564","2023-11-23 00:30:00","12.1714","3.57736","26.969","2.107","7.49","0.241","3.185","0","0","30.7567","4.81199","23.8","0","SATNPRO1963","30.68","0.42976","5"],
    [5345,"HCEP03730564","2023-11-23 00:45:00","12.1716","3.57756","27.036","2.087","7.49","0.241","3.185","0","0","30.7584","4.81222","23.58","0","SATNPRO1963","30.887999999999998","0.43262","5"],
    [5346,"HCEP03730564","2023-11-23 01:00:00","12.172","3.5777","27.061","2.058","7.49","0.241","3.185","0","0","30.7594","4.81237","23.26","0","SATNPRO1963","30.896","0.43276","5"],
    [5347,"HCEP03730564","2023-11-23 01:15:00","12.1717","3.57773","27.063","2.044","7.49",null,null,null,null,"30.7599","4.81244","23.09","2","SATNPRO1963","31","0.43422","5"],
    [5348,"HCEP03730564","2023-11-23 01:30:00","12.1718","3.57774","27.059","2.034","7.49","0.241","3.185","0","0","30.7599","4.81243","22.98","0","SATNPRO1963","31.15","0.43632","5"],
    [5349,"HCEP03730564","2023-11-23 01:45:00","12.172","3.5779","27.047","2.027","7.49","0.241","3.185","0","0","30.7613","4.81264","22.9","0","SATNPRO1963","30.942","0.4334","5"],
    [5350,"HCEP03730564","2023-11-23 02:00:00","12.1721","3.57809","27.014","2.015","7.49",null,null,null,null,"30.763","4.81287","22.76","2","SATNPRO1963","30.580000000000002","0.42828","5"],
    [5351,"HCEP03730564","2023-11-23 02:15:00","12.1721","3.57819","26.965","2.002","7.49",null,null,null,null,"30.764","4.813","22.62","2","SATNPRO1963","30.648","0.42928","5"],
    [5352,"HCEP03730564","2023-11-23 02:30:00","12.1725","3.5784","26.892","1.998","7.49",null,null,null,null,"30.7657","4.81324","22.58","2","SATNPRO1963","30.564","0.42808","5"],
    [5353,"HCEP03730564","2023-11-23 02:45:00","12.1729","3.57842","26.849","2","7.49","0.241","3.185","0","0","30.7656","4.81321","22.6","0","SATNPRO1963","30.432","0.42624","5"],
    [5354,"HCEP03730564","2023-11-23 03:00:00","12.173","3.57843","26.778","2.006","7.49","0.241","3.185","0","0","30.7657","4.81322","22.67","0","SATNPRO1963","30.5","0.42716","5"],
    [5355,"HCEP03730564","2023-11-23 03:15:00","12.1727","3.5784","26.699","2.011","7.49",null,null,null,null,"30.7656","4.81321","22.72","2","SATNPRO1963","30.477999999999998","0.42686","5"],
    [5356,"HCEP03730564","2023-11-23 03:30:00","12.173","3.57843","26.608","2.014","7.49",null,null,null,null,"30.7656","4.8132","22.75","2","SATNPRO1963","30.538","0.4277","5"],
    [5357,"HCEP03730564","2023-11-23 03:45:00","12.1726","3.57841","26.521","2.018","7.49",null,null,null,null,"30.7659","4.81324","22.8","2","SATNPRO1963","30.652","0.42936","5"],
    [5358,"HCEP03730564","2023-11-23 04:00:00","12.1733","3.57849","26.411","2.021","7.49","0.241","3.185","0","0","30.7661","4.81325","22.84","0","SATNPRO1963","30.768","0.43096","5"],
    [5359,"HCEP03730564","2023-11-23 04:15:00","12.1728","3.57822","26.325","2.029","7.49","0.241","3.185","0","0","30.7639","4.81295","22.93","0","SATNPRO1963","30.316","0.42462","5"],
    [5360,"HCEP03730564","2023-11-23 04:30:00","12.1725","3.57797","26.238","2.055","7.49",null,null,null,null,"30.7618","4.81265","23.22","2","SATNPRO1963","30.512","0.42742","5"],
    [5361,"HCEP03730564","2023-11-23 04:45:00","12.1724","3.57801","26.17","2.063","7.49",null,null,null,null,"30.7624","4.81273","23.31","2","SATNPRO1963","30.522000000000002","0.4275","5"],
    [5362,"HCEP03730564","2023-11-23 05:00:00","12.1723","3.57794","26.058","2.047","7.49",null,null,null,null,"30.7618","4.81264","23.13","2","SATNPRO1963","30.624","0.42892","5"],
    [5363,"HCEP03730564","2023-11-23 05:15:00","12.1719","3.57786","25.918","2.041","7.49",null,null,null,null,"30.7614","4.81258","23.06","2","SATNPRO1963","30.784","0.43116","5"],
    [5364,"HCEP03730564","2023-11-23 05:30:00","12.1715","3.57769","25.805","2.054","7.49","0.241","3.185","0","0","30.7601","4.81241","23.21","0","SATNPRO1963","30.772","0.43102","5"],
    [5365,"HCEP03730564","2023-11-23 05:45:00","12.1716","3.57751","25.714","2.081","7.49",null,null,null,null,"30.7583","4.81214","23.51","2","SATNPRO1963","30.944","0.43344","5"],
    [5366,"HCEP03730564","2023-11-23 06:00:00","12.1708","3.57732","25.631","2.103","7.49",null,null,null,null,"30.7573","4.812","23.76","2","SATNPRO1963","30.818","0.43164","5"],
    [5367,"HCEP03730564","2023-11-23 06:15:00","12.1704","3.57724","25.605","2.078","7.49","0.241","3.185","0","0","30.7568","4.81194","23.48","0","SATNPRO1963","31.012","0.43438","5"],
    [5368,"HCEP03730564","2023-11-23 06:30:00","12.1704","3.57729","25.551","2.072","7.49","0.241","3.185","0","0","30.7573","4.81201","23.41","0","SATNPRO1963","30.996","0.43412","5"],
    [5369,"HCEP03730564","2023-11-23 06:45:00","12.1709","3.57737","25.512","2.083","7.49","0.241","3.185","0","0","30.7577","4.81205","23.54","0","SATNPRO1963","30.919999999999998","0.43308","5"],
    [5370,"HCEP03730564","2023-11-23 07:00:00","12.1706","3.57753","25.51","2.055","7.49","0.241","3.185","0","0","30.7595","4.81231","23.22","0","SATNPRO1963","30.84","0.43196","5"],
    [5371,"HCEP03730564","2023-11-23 07:15:00","12.171","3.57776","25.557","2.025","7.49",null,null,null,null,"30.7614","4.81258","22.88","2","SATNPRO1963","30.766","0.43092","5"],
    [5372,"HCEP03730564","2023-11-23 07:30:00","12.1712","3.57804","25.609","1.996","7.49","0.241","3.185","0","0","30.7639","4.81292","22.55","0","SATNPRO1963","30.824","0.43176","5"],
    [5373,"HCEP03730564","2023-11-23 07:45:00","12.172","3.57815","25.638","2.013","7.49",null,null,null,null,"30.7642","4.81296","22.74","2","SATNPRO1963","30.83","0.43184","5"],
    [5374,"HCEP03730564","2023-11-23 08:00:00","12.1726","3.57837","25.732","2.043","7.49","0.241","3.185","0","0","30.7657","4.81318","23.09","0","SATNPRO1963","30.564","0.42808","5"],
    [5375,"HCEP03730564","2023-11-23 08:15:00","12.1722","3.57846","25.803","2.024","7.49","0.241","3.185","0","0","30.7669","4.81335","22.87","0","SATNPRO1963","30.522","0.42752","5"],
    [5376,"HCEP03730564","2023-11-23 08:30:00","12.1721","3.57863","25.946","2.003","7.49",null,null,null,null,"30.7686","4.8136","22.63","2","SATNPRO1963","30.312","0.42454","5"],
    [5377,"HCEP03730564","2023-11-23 08:45:00","12.1728","3.5789","26.08","2.008","7.49",null,null,null,null,"30.7706","4.81388","22.69","2","SATNPRO1963","30.914","0.43302","5"],
    [5378,"HCEP03730564","2023-11-23 09:00:00","12.1738","3.57915","26.228","2.041","7.49",null,null,null,null,"30.7721","4.81408","23.07","2","SATNPRO1963","31.138","0.43614","5"],
    [5379,"HCEP03730564","2023-11-23 09:15:00","12.1744","3.57935","26.383","2.08","7.49",null,null,null,null,"30.7734","4.81427","23.51","2","SATNPRO1963","30.71","0.43012","5"],
    [5380,"HCEP03730564","2023-11-23 09:30:00","12.1744","3.57942","26.497","2.086","7.49","0.241","3.185","0","0","30.7741","4.81437","23.57","0","SATNPRO1963","30.503999999999998","0.42726","5"],
    [5381,"HCEP03730564","2023-11-23 09:45:00","12.175","3.57971","26.668","2.083","7.49","0.241","3.185","0","0","30.7762","4.81467","23.54","0","SATNPRO1963","30.786","0.4312","5"],
    [5382,"HCEP03730564","2023-11-23 10:00:00","12.1757","3.58014","26.856","2.088","7.49",null,null,null,null,"30.7797","4.81516","23.6","2","SATNPRO1963","30.84","0.432","5"],
    [5383,"HCEP03730564","2023-11-23 10:15:00","12.1761","3.58027","26.982","2.115","7.49",null,null,null,null,"30.7806","4.81529","23.9","2","SATNPRO1963","30.938","0.43334","5"],
    [5384,"HCEP03730564","2023-11-23 10:30:00","12.1764","3.58035","27.128","2.136","7.5",null,null,null,null,"30.781","4.81535","24.14","2","SATNPRO1963","31.018","0.43444","5"],
    [5385,"HCEP03730564","2023-11-23 10:45:00","12.1761","3.58028","27.283","2.135","7.5",null,null,null,null,"30.7805","4.8153","24.12","2","SATNPRO1963","31.02","0.43448","5"],
    [5386,"HCEP03730564","2023-11-23 11:00:00","12.1762","3.58023","27.388","2.126","7.5",null,null,null,null,"30.7799","4.81522","24.03","2","SATNPRO1963","31.024","0.43454","5"],
    [5387,"HCEP03730564","2023-11-23 11:15:00","12.1759","3.58017","27.568","2.118","7.5",null,null,null,null,"30.7795","4.81518","23.94","2","SATNPRO1963","31.376","0.43946","5"],
    [5388,"HCEP03730564","2023-11-23 11:30:00","12.1756","3.58007","27.701","2.126","7.5","0.241","3.185","0","0","30.7788","4.81508","24.03","0","SATNPRO1963","31.384","0.43956","5"],
    [5389,"HCEP03730564","2023-11-23 11:45:00","12.1753","3.58006","27.854","2.12","7.5","0.241","3.185","0","0","30.7789","4.81511","23.96","0","SATNPRO1963","31.514","0.44138","5"],
    [5390,"HCEP03730564","2023-11-23 12:00:00","12.1756","3.58006","27.964","2.116","7.5","0.241","3.185","0","0","30.7786","4.81507","23.91","0","SATNPRO1963","31.25","0.4377","5"],
    [5391,"HCEP03730564","2023-11-23 12:15:00","12.1754","3.58005","28.074","2.109","7.5","0.241","3.185","0","0","30.7786","4.81509","23.83","0","SATNPRO1963","31.174","0.43666","5"],
    [5392,"HCEP03730564","2023-11-23 12:30:00","12.1751","3.57983","28.109","2.086","7.5","0.241","3.185","0","0","30.7767","4.81482","23.58","0","SATNPRO1963","31.254","0.43778","5"],
    [5393,"HCEP03730564","2023-11-23 12:45:00","12.1748","3.58001","28.186","2.074","7.49",null,null,null,null,"30.7787","4.8151","23.43","2","SATNPRO1963","31.082","0.43536","5"],
    [5394,"HCEP03730564","2023-11-23 13:00:00","12.1763","3.58084","28.193","2.098","7.49",null,null,null,null,"30.7854","4.81603","23.71","2","SATNPRO1963","31.334","0.43886","5"],
    [5395,"HCEP03730564","2023-11-23 13:15:00","12.1761","3.58083","28.205","2.112","7.49",null,null,null,null,"30.7855","4.81604","23.87","2","SATNPRO1963","31.156","0.4364","5"],
    [5396,"HCEP03730564","2023-11-23 13:30:00","12.1758","3.58079","28.186","2.101","7.49","0.241","3.185","0","0","30.7853","4.81602","23.75","0","SATNPRO1963","31.058","0.43502","5"],
    [5397,"HCEP03730564","2023-11-23 13:45:00","12.1758","3.58044","28.149","2.085","7.49","0.241","3.185","0","0","30.782","4.81556","23.56","0","SATNPRO1963","30.966","0.43376","5"],
    [5398,"HCEP03730564","2023-11-23 14:00:00","12.1748","3.57999","28.049","2.057","7.49",null,null,null,null,"30.7785","4.81507","23.25","2","SATNPRO1963","31.26","0.43784","5"],
    [5399,"HCEP03730564","2023-11-23 14:15:00","12.1751","3.57983","27.996","2.047","7.49",null,null,null,null,"30.7768","4.81482","23.14","2","SATNPRO1963","31.326","0.4388","5"],
    [5400,"HCEP03730564","2023-11-23 14:30:00","12.1744","3.57962","27.887","2.032","7.49",null,null,null,null,"30.7754","4.81463","22.96","2","SATNPRO1963","31.328","0.43878","5"],
    [5401,"HCEP03730564","2023-11-23 14:45:00","12.1735","3.57942","27.778","2.004","7.49",null,null,null,null,"30.7743","4.81448","22.64","2","SATNPRO1963","31.178","0.43666","5"],
    [5402,"HCEP03730564","2023-11-23 15:00:00","12.1731","3.57918","27.643","1.983","7.49",null,null,null,null,"30.7724","4.81421","22.41","2","SATNPRO1963","30.848","0.43212","5"],
    [5403,"HCEP03730564","2023-11-23 15:15:00","12.1727","3.57912","27.526","1.968","7.48","0.241","3.185","0","0","30.7722","4.81418","22.24","0","SATNPRO1963","30.966","0.43374","5"],
    [5404,"HCEP03730564","2023-11-23 15:30:00","12.1729","3.57916","27.404","1.961","7.49",null,null,null,null,"30.7724","4.81421","22.16","2","SATNPRO1963","31.052","0.43492","5"],
    [5405,"HCEP03730564","2023-11-23 15:45:00","12.1732","3.57943","27.239","1.968","7.49",null,null,null,null,"30.7748","4.81452","22.24","2","SATNPRO1963","30.778","0.43102","5"],
    [5406,"HCEP03730564","2023-11-23 16:00:00","12.1736","3.57944","27.11","1.977","7.49",null,null,null,null,"30.7747","4.8145","22.34","2","SATNPRO1963","30.588","0.42844","5"],
    [5407,"HCEP03730564","2023-11-23 16:15:00","12.1728","3.57907","26.943","1.967","7.49",null,null,null,null,"30.7719","4.81411","22.23","2","SATNPRO1963","30.568","0.42818","5"],
    [5408,"HCEP03730564","2023-11-23 16:30:00","12.1722","3.5789","26.768","1.951","7.49",null,null,null,null,"30.7708","4.81395","22.05","2","SATNPRO1963","30.734","0.4305","5"],
    [5409,"HCEP03730564","2023-11-23 16:45:00","12.1731","3.57924","26.544","1.952","7.49",null,null,null,null,"30.7733","4.81429","22.06","2","SATNPRO1963","30.678","0.42976","5"],
    [5410,"HCEP03730564","2023-11-23 17:00:00","12.1718","3.57842","26.348","1.947","7.49","0.241","3.185","0","0","30.7667","4.81336","21.99","0","SATNPRO1963","30.796","0.43136","5"],
    [5411,"HCEP03730564","2023-11-23 17:15:00","12.1726","3.57899","26.149","1.953","7.49","0.241","3.185","0","0","30.7715","4.81401","22.07","0","SATNPRO1963","30.672","0.42958","5"],
    [5412,"HCEP03730564","2023-11-23 17:30:00","12.1726","3.57866","25.963","2.005","7.49","0.241","3.185","0","0","30.7685","4.81357","22.65","0","SATNPRO1963","30.662","0.4295","5"],
    [5413,"HCEP03730564","2023-11-23 17:45:00","12.1742","3.5798","25.715","2.017","7.48","0.241","3.185","0","0","30.7782","4.81491","22.79","0","SATNPRO1963","30.46","0.42662","5"],
    [5414,"HCEP03730564","2023-11-23 18:00:00","12.1745","3.58014","25.506","2.039","7.48",null,null,null,null,"30.7813","4.81532","23.05","2","SATNPRO1963","30.636","0.42908","5"],
    [5415,"HCEP03730564","2023-11-23 18:15:00","12.175","3.58016","25.314","2.041","7.49","0.241","3.185","0","0","30.7811","4.81528","23.07","0","SATNPRO1963","30.846","0.43202","5"],
    [5416,"HCEP03730564","2023-11-23 18:30:00","12.1747","3.57978","25.133","2.049","7.49","0.241","3.185","0","0","30.7777","4.81481","23.16","0","SATNPRO1963","31.444","0.44042","5"],
    [5417,"HCEP03730564","2023-11-23 18:45:00","12.1758","3.58152","24.963","2.111","7.49",null,null,null,null,"30.7935","4.81701","23.86","2","SATNPRO1963","31.114","0.4358","5"],
    [5418,"HCEP03730564","2023-11-23 19:00:00","12.1767","3.58193","24.874","2.195","7.5","0.241","3.185","0","0","30.7968","4.81745","24.81","0","SATNPRO1963","31.132","0.43606","5"],
    [5419,"HCEP03730564","2023-11-23 19:15:00","12.1768","3.58231","24.768","2.269","7.5","0.241","3.185","0","0","30.8003","4.81794","25.64","0","SATNPRO1963","31.099999999999998","0.4356","5"],
    [5420,"HCEP03730564","2023-11-23 19:30:00","12.1774","3.58258","24.71","2.327","7.51",null,null,null,null,"30.8024","4.81822","26.3","2","SATNPRO1963","31.146","0.43624","5"],
    [5421,"HCEP03730564","2023-11-23 19:45:00","12.1772","3.58284","24.688","2.332","7.51","0.241","3.185","0","0","30.8051","4.8186","26.35","0","SATNPRO1963","31.5","0.4412","5"],
    [5422,"HCEP03730564","2023-11-23 20:00:00","12.1775","3.58254","24.677","2.341","7.51",null,null,null,null,"30.802","4.81815","26.46","2","SATNPRO1963","31.694","0.44392","5"],
    [5423,"HCEP03730564","2023-11-23 20:15:00","12.1774","3.58189","24.689","2.312","7.51",null,null,null,null,"30.7958","4.81729","26.14","2","SATNPRO1963","32.062","0.4491","5"],
    [5424,"HCEP03730564","2023-11-23 20:30:00","12.177","3.58092","24.724","2.281","7.51",null,null,null,null,"30.7869","4.81604","25.78","2","SATNPRO1963","32.158","0.45042","5"],
    [5425,"HCEP03730564","2023-11-23 20:45:00","12.1775","3.58322","24.778","2.328","7.51",null,null,null,null,"30.8084","4.81907","26.32","2","SATNPRO1963","32.394","0.45372","5"],
    [5426,"HCEP03730564","2023-11-23 21:00:00","12.175","3.58258","24.846","2.243","7.51","0.241","3.185","0","0","30.8044","4.81854","25.36","0","SATNPRO1963","32.6","0.4566","5"],
    [5427,"HCEP03730564","2023-11-23 21:15:00","12.174","3.58215","24.919","2.186","7.5",null,null,null,null,"30.8011","4.81809","24.7","2","SATNPRO1963","32.262","0.45186","5"],
    [5428,"HCEP03730564","2023-11-23 21:30:00","12.1732","3.58173","25.02","2.103","7.5",null,null,null,null,"30.7976","4.81762","23.76","2","SATNPRO1963","32.098","0.44962","5"],
    [5429,"HCEP03730564","2023-11-23 21:45:00","12.1738","3.58166","25.128","2.081","7.5",null,null,null,null,"30.7964","4.81745","23.52","2","SATNPRO1963","32.448","0.4545","5"],
    [5430,"HCEP03730564","2023-11-23 22:00:00","12.1748","3.58171","25.257","2.121","7.5",null,null,null,null,"30.7961","4.81739","23.97","2","SATNPRO1963","31.712","0.44416","5"],
    [5431,"HCEP03730564","2023-11-23 22:15:00","12.1754","3.58141","25.39","2.127","7.49",null,null,null,null,"30.7927","4.81691","24.04","2","SATNPRO1963","31.418","0.44006","5"],
    [5432,"HCEP03730564","2023-11-23 22:30:00","12.1772","3.58113","25.534","2.103","7.49",null,null,null,null,"30.7884","4.8163","23.77","2","SATNPRO1963","31.086000000000002","0.4354","5"],
    [5433,"HCEP03730564","2023-11-23 22:45:00","12.1754","3.58109","25.673","2.075","7.49",null,null,null,null,"30.7894","4.81647","23.45","2","SATNPRO1963","31.02","0.43448","5"],
    [5434,"HCEP03730564","2023-11-23 23:00:00","12.1738","3.58081","25.82","1.999","7.49",null,null,null,null,"30.788","4.81631","22.6","2","SATNPRO1963","37.24","0.521566666666667","5"],
    [5435,"HCEP03730564","2023-11-23 23:15:00","12.173","3.58028","25.993","1.921","7.49",null,null,null,null,"30.7836","4.8157","21.71","2","SATNPRO1963","31.912","0.44698","5"],
    [5436,"HCEP03730564","2023-11-23 23:30:00","12.1721","3.57985","26.135","1.869","7.48",null,null,null,null,"30.7802","4.81524","21.12","2","SATNPRO1963","31.887999999999998","0.44662","5"],
    [5437,"HCEP03730564","2023-11-23 23:45:00","12.173400000000001","3.57989","26.306","1.865","7.48",null,null,null,null,"30.7795","4.81513","21.08","2","SATNPRO1963","31.054","0.43496","5"],
    [5438,"HCEP03730564","2023-11-24 00:00:00","12.1723","3.58018","26.474","1.849","7.48",null,null,null,null,"30.783","4.81565","20.89","2","SATNPRO1963","30.618","0.42886","5"],
    [5439,"HCEP03730564","2023-11-24 00:15:00","12.1735","3.58054","26.642","1.881","7.48",null,null,null,null,"30.7854","4.81599","21.26","2","SATNPRO1963","30.766000000000002","0.4309","5"],
    [5440,"HCEP03730564","2023-11-24 00:30:00","12.1746","3.58094","26.795","1.945","7.48",null,null,null,null,"30.7882","4.81637","21.98","2","SATNPRO1963","30.35","0.42512","5"],
    [5441,"HCEP03730564","2023-11-24 00:45:00","12.1756","3.58149","26.934","2.034","7.48","0.241","3.185","0","0","30.7926","4.81698","22.99","0","SATNPRO1963","30.638","0.42916","5"],
    [5442,"HCEP03730564","2023-11-24 01:00:00","12.1758","3.58175","27.038","2.086","7.49","0.241","3.185","0","0","30.795","4.81732","23.57","0","SATNPRO1963","30.14","0.42218","5"],
    [5443,"HCEP03730564","2023-11-24 01:15:00","12.1748","3.58186","27.143","2.097","7.49","0.241","3.185","0","0","30.7968","4.81759","23.7","0","SATNPRO1963","30.798","0.43134","5"],
    [5444,"HCEP03730564","2023-11-24 01:30:00","12.1738","3.58169","27.22","2.064","7.49","0.241","3.185","0","0","30.7959","4.81749","23.33","0","SATNPRO1963","31.992","0.44808","5"],
    [5445,"HCEP03730564","2023-11-24 01:45:00","12.1738","3.58156","27.256","2.058","7.49","0.241","3.185","0","0","30.7946","4.81731","23.26","0","SATNPRO1963","31.446","0.44048","5"],
    [5446,"HCEP03730564","2023-11-24 02:00:00","12.1757","3.58185","27.302","2.07","7.49","0.241","3.185","0","0","30.7959","4.81747","23.4","0","SATNPRO1963","31.316","0.43862","5"],
    [5447,"HCEP03730564","2023-11-24 02:15:00","12.1737","3.58156","27.306","2.054","7.49","0.241","3.185","0","0","30.7947","4.81733","23.22","0","SATNPRO1963","31.152","0.43632","5"],
    [5448,"HCEP03730564","2023-11-24 02:30:00","12.1749","3.58195","27.299","2.076","7.49","0.241","3.185","0","0","30.7974","4.8177","23.47","0","SATNPRO1963","30.96","0.43366","5"],
    [5449,"HCEP03730564","2023-11-24 02:45:00","12.1759","3.58224","27.284","2.146","7.5","0.241","3.185","0","0","30.7994","4.81796","24.25","0","SATNPRO1963","31.562","0.44208","5"],
    [5450,"HCEP03730564","2023-11-24 03:00:00","12.177","3.58232","27.257","2.227","7.5",null,null,null,null,"30.7993","4.81793","25.17","2","SATNPRO1963","31.631999999999998","0.44302","5"],
    [5451,"HCEP03730564","2023-11-24 03:15:00","12.1775","3.58234","27.214","2.239","7.5",null,null,null,null,"30.7991","4.81789","25.31","2","SATNPRO1963","30.816","0.43166","5"],
    [5452,"HCEP03730564","2023-11-24 03:30:00","12.1784","3.58249","27.172","2.267","7.5",null,null,null,null,"30.7998","4.81798","25.63","2","SATNPRO1963","31.516000000000002","0.44144","5"],
    [5453,"HCEP03730564","2023-11-24 03:45:00","12.1779","3.58239","27.116","2.261","7.5",null,null,null,null,"30.7993","4.81791","25.56","2","SATNPRO1963","31.886","0.44662","5"],
    [5454,"HCEP03730564","2023-11-24 04:00:00","12.1771","3.5823","27.05","2.238","7.5",null,null,null,null,"30.7991","4.81789","25.29","2","SATNPRO1963","31.894","0.44672","5"],
    [5455,"HCEP03730564","2023-11-24 04:15:00","12.1783","3.58229","26.975","2.254","7.5",null,null,null,null,"30.7981","4.81772","25.48","2","SATNPRO1963","32.172","0.4506","5"],
    [5456,"HCEP03730564","2023-11-24 04:30:00","12.1779","3.58205","26.895","2.274","7.51",null,null,null,null,"30.7961","4.81744","25.7","2","SATNPRO1963","32.188","0.45086","5"],
    [5457,"HCEP03730564","2023-11-24 04:45:00","12.1768","3.58179","26.817","2.24","7.5",null,null,null,null,"30.7946","4.81724","25.32","2","SATNPRO1963","32.024","0.44854","5"],
    [5458,"HCEP03730564","2023-11-24 05:00:00","12.1762","3.58159","26.738","2.205","7.5",null,null,null,null,"30.7931","4.81704","24.93","2","SATNPRO1963","31.98","0.44792","5"],
    [5459,"HCEP03730564","2023-11-24 05:15:00","12.1757","3.58059","26.654","2.202","7.5",null,null,null,null,"30.784","4.81576","24.88","2","SATNPRO1963","31.964","0.44768","5"],
    [5460,"HCEP03730564","2023-11-24 05:30:00","12.1756","3.57996","26.548","2.276","7.5",null,null,null,null,"30.7782","4.81493","25.72","2","SATNPRO1963","32.19","0.45086","5"],
    [5461,"HCEP03730564","2023-11-24 05:45:00","12.1746","3.57962","26.459","2.258","7.5",null,null,null,null,"30.7757","4.8146","25.52","2","SATNPRO1963","32.03","0.4486","5"],
    [5462,"HCEP03730564","2023-11-24 06:00:00","12.173400000000001","3.57976","26.368","2.158","7.5",null,null,null,null,"30.7781","4.81495","24.39","2","SATNPRO1963","31.734","0.44446","5"],
    [5463,"HCEP03730564","2023-11-24 06:15:00","12.1731","3.57997","26.255","2.095","7.49",null,null,null,null,"30.7804","4.81527","23.67","2","SATNPRO1963","31.954","0.44756","5"],
    [5464,"HCEP03730564","2023-11-24 06:30:00","12.1713","3.57866","26.162","2.081","7.49",null,null,null,null,"30.7695","4.81375","23.51","2","SATNPRO1963","32.458","0.45462","5"],
    [5465,"HCEP03730564","2023-11-24 06:45:00","12.1718","3.57936","26.026","2.061","7.5",null,null,null,null,"30.7758","4.81462","23.29","2","SATNPRO1963","32.096","0.44956","5"],
    [5466,"HCEP03730564","2023-11-24 07:00:00","12.1731","3.58149","25.906","2.021","7.49",null,null,null,null,"30.7951","4.81731","22.84","2","SATNPRO1963","31.7","0.444","5"],
    [5467,"HCEP03730564","2023-11-24 07:15:00","12.1742","3.58276","25.834","2.074","7.49",null,null,null,null,"30.8064","4.81889","23.44","2","SATNPRO1963","31.31","0.43856","5"],
    [5468,"HCEP03730564","2023-11-24 07:30:00","12.1758","3.58352","25.752","2.19","7.5",null,null,null,null,"30.8123","4.81969","24.76","2","SATNPRO1963","31.35","0.4391","5"],
    [5469,"HCEP03730564","2023-11-24 07:45:00","12.1754","3.58367","25.752","2.211","7.5",null,null,null,null,"30.8141","4.81995","24.99","2","SATNPRO1963","31.18","0.43674","5"],
    [5470,"HCEP03730564","2023-11-24 08:00:00","12.1752","3.5837","25.764","2.186","7.5","0.241","3.185","0","0","30.8145","4.82001","24.71","0","SATNPRO1963","30.876","0.43248","5"],
    [5471,"HCEP03730564","2023-11-24 08:15:00","12.175","3.58375","25.79","2.167","7.5","0.241","3.185","0","0","30.8152","4.82011","24.49","0","SATNPRO1963","31.186","0.43682","5"],
    [5472,"HCEP03730564","2023-11-24 08:30:00","12.1762","3.58341","25.823","2.188","7.5",null,null,null,null,"30.8109","4.8195","24.73","2","SATNPRO1963","32.054","0.44896","5"],
    [5473,"HCEP03730564","2023-11-24 08:45:00","12.1764","3.58341","25.884","2.208","7.5","0.241","3.185","0","0","30.8107","4.81946","24.96","0","SATNPRO1963","31.7","0.444","5"],
    [5474,"HCEP03730564","2023-11-24 09:00:00","12.1778","3.58311","25.965","2.242","7.5",null,null,null,null,"30.8067","4.81888","25.35","2","SATNPRO1963","31.794","0.44534","5"],
    [5475,"HCEP03730564","2023-11-24 09:15:00","12.1787","3.58296","26.067","2.303","7.51","0.241","3.185","0","0","30.8045","4.81857","26.04","0","SATNPRO1963","31.814","0.4456","5"],
    [5476,"HCEP03730564","2023-11-24 09:30:00","12.1779","3.58241","26.166","2.268","7.51","0.241","3.185","0","0","30.7999","4.81793","25.63","0","SATNPRO1963","31.744","0.44462","5"],
    [5477,"HCEP03730564","2023-11-24 09:45:00","12.1774","3.58259","26.289","2.243","7.5","0.241","3.185","0","0","30.802","4.81825","25.35","0","SATNPRO1963","31.932000000000002","0.44728","5"],
    [5478,"HCEP03730564","2023-11-24 10:00:00","12.1768","3.58306","26.413","2.231","7.5",null,null,null,null,"30.8068","4.81895","25.22","2","SATNPRO1963","31.958000000000002","0.44762","5"],
    [5479,"HCEP03730564","2023-11-24 10:15:00","12.176","3.58358","26.551","2.191","7.5",null,null,null,null,"30.8125","4.81976","24.76","2","SATNPRO1963","32.222","0.45134","5"],
    [5480,"HCEP03730564","2023-11-24 10:30:00","12.1753","3.58344","26.678","2.177","7.5",null,null,null,null,"30.8116","4.81965","24.61","2","SATNPRO1963","32.438","0.4544","5"],
    [5481,"HCEP03730564","2023-11-24 10:45:00","12.1753","3.58343","26.804","2.165","7.5",null,null,null,null,"30.8115","4.81964","24.47","2","SATNPRO1963","31.926","0.44718","5"],
    [5482,"HCEP03730564","2023-11-24 11:00:00","12.1753","3.58339","26.939","2.158","7.5","0.241","3.185","0","0","30.811","4.81958","24.4","0","SATNPRO1963","31.8","0.4454","5"],
    [5483,"HCEP03730564","2023-11-24 11:15:00","12.1746","3.58335","27.079","2.136","7.5","0.241","3.185","0","0","30.8112","4.81963","24.15","0","SATNPRO1963","31.746","0.44466","5"],
    [5484,"HCEP03730564","2023-11-24 11:30:00","12.1744","3.58331","27.223","2.114","7.5","0.241","3.185","0","0","30.8108","4.81959","23.9","0","SATNPRO1963","32.03","0.44866","5"],
    [5485,"HCEP03730564","2023-11-24 11:45:00","12.1746","3.58331","27.357","2.104","7.5","0.241","3.185","0","0","30.8107","4.81957","23.78","0","SATNPRO1963","31.72","0.4443","5"],
    [5486,"HCEP03730564","2023-11-24 12:00:00","12.1748","3.58329","27.463","2.102","7.5",null,null,null,null,"30.8104","4.81953","23.76","2","SATNPRO1963","31.568","0.44218","5"],
    [5487,"HCEP03730564","2023-11-24 12:15:00","12.175","3.58326","27.575","2.105","7.5",null,null,null,null,"30.8098","4.81945","23.79","2","SATNPRO1963","31.594","0.44254","5"],
    [5488,"HCEP03730564","2023-11-24 12:30:00","12.1747","3.5832","27.701","2.097","7.5","0.241","3.185","0","0","30.8094","4.81941","23.7","0","SATNPRO1963","31.464","0.44068","5"],
    [5489,"HCEP03730564","2023-11-24 12:45:00","12.1742","3.58312","27.783","2.08","7.49",null,null,null,null,"30.809","4.81937","23.51","2","SATNPRO1963","31.424","0.44012","5"],
    [5490,"HCEP03730564","2023-11-24 13:00:00","12.1744","3.58304","27.888","2.075","7.49",null,null,null,null,"30.8081","4.81924","23.45","2","SATNPRO1963","31.56","0.442","5"],
    [5491,"HCEP03730564","2023-11-24 13:15:00","12.1738","3.58285","27.945","2.064","7.49",null,null,null,null,"30.8067","4.81905","23.33","2","SATNPRO1963","31.426","0.44018","5"],
    [5492,"HCEP03730564","2023-11-24 13:30:00","12.1741","3.5828","28.004","2.055","7.49",null,null,null,null,"30.806","4.81895","23.23","2","SATNPRO1963","30.968","0.43376","5"],
    [5493,"HCEP03730564","2023-11-24 13:45:00","12.1737","3.58258","28.032","2.046","7.49",null,null,null,null,"30.8042","4.81871","23.13","2","SATNPRO1963","31.062","0.43508","5"],
    [5494,"HCEP03730564","2023-11-24 14:00:00","12.1736","3.58224","28.031","2.039","7.49",null,null,null,null,"30.801","4.81825","23.04","2","SATNPRO1963","31.382","0.43958","5"],
    [5495,"HCEP03730564","2023-11-24 14:15:00","12.1732","3.58191","28.025","2.029","7.49",null,null,null,null,"30.7982","4.81786","22.93","2","SATNPRO1963","31.288","0.43826","5"],
    [5496,"HCEP03730564","2023-11-24 14:30:00","12.1726","3.58159","28.015","2.012","7.49","0.241","3.185","0","0","30.7956","4.81751","22.74","0","SATNPRO1963","31.166","0.43654","5"],
    [5497,"HCEP03730564","2023-11-24 14:45:00","12.1715","3.58066","27.945","1.984","7.49",null,null,null,null,"30.7877","4.81641","22.42","2","SATNPRO1963","31.142","0.43618","5"],
    [5498,"HCEP03730564","2023-11-24 15:00:00","12.1733","3.57975","27.877","2.105","7.49",null,null,null,null,"30.7775","4.81495","23.78","2","SATNPRO1963","31.144","0.4362","5"],
    [5499,"HCEP03730564","2023-11-24 15:15:00","12.1703","3.57846","27.78","2.097","7.5",null,null,null,null,"30.7677","4.8136","23.69","2","SATNPRO1963","30.9","0.43286","5"],
    [5500,"HCEP03730564","2023-11-24 15:30:00","12.1684","3.57762","27.65","2.086","7.5",null,null,null,null,"30.7613","4.81271","23.57","2","SATNPRO1963","30.88","0.43254","5"],
    [5501,"HCEP03730564","2023-11-24 15:45:00","12.1698","3.57755","27.509","2.087","7.5",null,null,null,null,"30.7596","4.81245","23.58","2","SATNPRO1963","30.788","0.43124","5"],
    [5502,"HCEP03730564","2023-11-24 16:00:00","12.1682","3.57705","27.354","2.066","7.5","0.241","3.185","0","0","30.7561","4.81197","23.34","0","SATNPRO1963","31.944000000000003","0.44742","5"],
    [5503,"HCEP03730564","2023-11-24 16:15:00","12.1673","3.57661","27.21","2.045","7.49",null,null,null,null,"30.7527","4.81149","23.1","2","SATNPRO1963","31.518","0.44148","5"],
    [5504,"HCEP03730564","2023-11-24 16:30:00","12.1694","3.57771","27.008","2.054","7.49",null,null,null,null,"30.7617","4.81272","23.21","2","SATNPRO1963","31.582","0.44238","5"],
    [5505,"HCEP03730564","2023-11-24 16:45:00","12.169","3.5778","26.823","2.05","7.49",null,null,null,null,"30.7628","4.81287","23.16","2","SATNPRO1963","31.654","0.4434","5"],
    [5506,"HCEP03730564","2023-11-24 17:00:00","12.1692","3.57863","26.63","1.982","7.49",null,null,null,null,"30.7708","4.81398","22.4","2","SATNPRO1963","31.562","0.4421","5"],
    [5507,"HCEP03730564","2023-11-24 17:15:00","12.1691","3.5788","26.429","1.956","7.48",null,null,null,null,"30.7725","4.81421","22.1","2","SATNPRO1963","31.354","0.43916","5"],
    [5508,"HCEP03730564","2023-11-24 17:30:00","12.1686","3.57784","26.196","1.984","7.48",null,null,null,null,"30.7638","4.81298","22.42","2","SATNPRO1963","31.512","0.44136","5"],
    [5509,"HCEP03730564","2023-11-24 17:45:00","12.1684","3.57812","25.984","1.986","7.48",null,null,null,null,"30.7667","4.81338","22.44","2","SATNPRO1963","31.42","0.44008","5"],
    [5510,"HCEP03730564","2023-11-24 18:00:00","12.168","3.57781","25.753","1.975","7.48",null,null,null,null,"30.7642","4.81302","22.31","2","SATNPRO1963","30.994","0.43412","5"],
    [5511,"HCEP03730564","2023-11-24 18:15:00","12.1673","3.5772","25.52","1.988","7.48",null,null,null,null,"30.7591","4.8123","22.46","2","SATNPRO1963","30.842","0.43198","5"],
    [5512,"HCEP03730564","2023-11-24 18:30:00","12.1672","3.57674","25.299","2.01","7.48",null,null,null,null,"30.7548","4.81169","22.71","2","SATNPRO1963","31.014","0.4344","5"],
    [5513,"HCEP03730564","2023-11-24 18:45:00","12.1675","3.57748","25.074","2.008","7.48",null,null,null,null,"30.7618","4.81265","22.68","2","SATNPRO1963","30.886","0.4326","5"],
    [5514,"HCEP03730564","2023-11-24 19:00:00","12.1693","3.5807","24.857","1.895","7.48",null,null,null,null,"30.7911","4.81675","21.41","2","SATNPRO1963","31.08","0.43532","5"],
    [5515,"HCEP03730564","2023-11-24 19:15:00","12.1693","3.58068","24.658","1.842","7.48",null,null,null,null,"30.791","4.81671","20.82","2","SATNPRO1963","31.404","0.43988","5"],
    [5516,"HCEP03730564","2023-11-24 19:30:00","12.1694","3.58076","24.489","1.832","7.48","0.241","3.185","0","0","30.7917","4.81681","20.7","0","SATNPRO1963","31.512","0.44142","5"],
    [5517,"HCEP03730564","2023-11-24 19:45:00","12.1695","3.5806","24.356","1.848","7.48","0.241","3.185","0","0","30.7902","4.81659","20.89","0","SATNPRO1963","31.312","0.43856","5"],
    [5518,"HCEP03730564","2023-11-24 20:00:00","12.17","3.58016","24.261","1.891","7.48","0.241","3.185","0","0","30.7855","4.81592","21.37","0","SATNPRO1963","30.364","0.42532","5"],
    [5519,"HCEP03730564","2023-11-24 20:15:00","12.1698","3.5806","24.207","1.876","7.48",null,null,null,null,"30.79","4.81655","21.2","2","SATNPRO1963","30.394","0.42572","5"],
    [5520,"HCEP03730564","2023-11-24 20:30:00","12.17","3.58064","24.188","1.867","7.48",null,null,null,null,"30.7902","4.81657","21.1","2","SATNPRO1963","30.512","0.42738","5"],
    [5521,"HCEP03730564","2023-11-24 20:45:00","12.1702","3.58082","24.197","1.879","7.48",null,null,null,null,"30.7917","4.81678","21.23","2","SATNPRO1963","30.756","0.4308","5"],
    [5522,"HCEP03730564","2023-11-24 21:00:00","12.1708","3.58058","24.21","1.894","7.48","0.241","3.185","0","0","30.789","4.81639","21.41","0","SATNPRO1963","30.512","0.42738","5"],
    [5523,"HCEP03730564","2023-11-24 21:15:00","12.1701","3.58038","24.255","1.904","7.48","0.241","3.185","0","0","30.7876","4.8162","21.52","0","SATNPRO1963","30.498","0.4272","5"],
    [5524,"HCEP03730564","2023-11-24 21:30:00","12.1695","3.57952","24.318","1.929","7.48","0.241","3.185","0","0","30.7799","4.81513","21.79","0","SATNPRO1963","30.732","0.43046","5"],
    [5525,"HCEP03730564","2023-11-24 21:45:00","12.1692","3.57834","24.399","2","7.48","0.241","3.185","0","0","30.7688","4.81358","22.6","0","SATNPRO1963","31.324","0.43874","5"],
    [5526,"HCEP03730564","2023-11-24 22:00:00","12.1679","3.57765","24.507","2.015","7.48","0.241","3.185","0","0","30.7632","4.81282","22.77","0","SATNPRO1963","30.99","0.43408","5"],
    [5527,"HCEP03730564","2023-11-24 22:15:00","12.1666","3.57727","24.633","1.985","7.48","0.241","3.185","0","0","30.7606","4.81248","22.43","0","SATNPRO1963","31.018","0.43448","5"],
    [5528,"HCEP03730564","2023-11-24 22:30:00","12.1661","3.57734","24.79","1.949","7.48","0.241","3.185","0","0","30.7617","4.81264","22.02","0","SATNPRO1963","31.672","0.44358","5"],
    [5529,"HCEP03730564","2023-11-24 22:45:00","12.1657","3.5776","24.971","1.902","7.48","0.241","3.185","0","0","30.7644","4.81304","21.48","0","SATNPRO1963","31.544","0.44184","5"],
    [5530,"HCEP03730564","2023-11-24 23:00:00","12.166","3.57687","25.143","1.928","7.48",null,null,null,null,"30.7571","4.81202","21.78","2","SATNPRO1963","31.286","0.43822","5"],
    [5531,"HCEP03730564","2023-11-24 23:15:00","12.1667","3.57698","25.313","1.974","7.48","0.241","3.185","0","0","30.7576","4.81209","22.3","0","SATNPRO1963","31.022000000000002","0.43448","5"],
    [5532,"HCEP03730564","2023-11-24 23:30:00","12.1665","3.57804","25.467","1.892","7.48","0.241","3.185","0","0","30.7677","4.81353","21.37","0","SATNPRO1963","30.832","0.43184","5"],
    [5533,"HCEP03730564","2023-11-24 23:45:00","12.1647","3.57797","25.612","1.804","7.47","0.241","3.185","0","0","30.7685","4.81367","20.38","0","SATNPRO1963","30.628","0.42898","5"],
    [5534,"HCEP03730564","2023-11-25 00:00:00","12.1645","3.5773","25.777","1.775","7.47",null,null,null,null,"30.7622","4.81279","20.05","2","SATNPRO1963","31.404","0.43986","5"],
    [5535,"HCEP03730564","2023-11-25 00:15:00","12.166","3.57655","25.965","1.857","7.47","0.241","3.185","0","0","30.7537","4.81159","20.97","0","SATNPRO1963","31.664","0.4435","5"],
    [5536,"HCEP03730564","2023-11-25 00:30:00","12.1662","3.57933","26.17","1.817","7.47",null,null,null,null,"30.78","4.8153","20.53","2","SATNPRO1963","30.546","0.42788","5"],
    [5537,"HCEP03730564","2023-11-25 00:45:00","12.1671","3.57987","26.419","1.744","7.47","0.241","3.185","0","0","30.7844","4.81592","19.7","0","SATNPRO1963","29.894","0.41874","5"],
    [5538,"HCEP03730564","2023-11-25 01:00:00","12.1671","3.57996","26.639","1.722","7.47",null,null,null,null,"30.7851","4.81603","19.46","2","SATNPRO1963","30.486","0.427","5"],
    [5539,"HCEP03730564","2023-11-25 01:15:00","12.1677","3.58086","26.829","1.701","7.46","0.241","3.185","0","0","30.7932","4.81717","19.22","0","SATNPRO1963","30.772000000000002","0.431","5"],
    [5540,"HCEP03730564","2023-11-25 01:30:00","12.1678","3.58161","26.984","1.692","7.46",null,null,null,null,"30.8002","4.81817","19.12","2","SATNPRO1963","29.974","0.41986","5"],
    [5541,"HCEP03730564","2023-11-25 01:45:00","12.1685","3.58203","27.11","1.698","7.46",null,null,null,null,"30.8035","4.81863","19.19","2","SATNPRO1963","29.586","0.41442","5"],
    [5542,"HCEP03730564","2023-11-25 02:00:00","12.1694","3.58214","27.226","1.728","7.47",null,null,null,null,"30.8037","4.81866","19.53","2","SATNPRO1963","29.732","0.41648","5"],
    [5543,"HCEP03730564","2023-11-25 02:15:00","12.1701","3.58213","27.327","1.756","7.47",null,null,null,null,"30.8031","4.81856","19.84","2","SATNPRO1963","29.326","0.41076","5"],
    [5544,"HCEP03730564","2023-11-25 02:30:00","12.1705","3.58245","27.41","1.875","7.47",null,null,null,null,"30.8058","4.81894","21.19","2","SATNPRO1963","29.542","0.4138","5"],
    [5545,"HCEP03730564","2023-11-25 02:45:00","12.171","3.58251","27.466","1.855","7.47",null,null,null,null,"30.806","4.81897","20.97","2","SATNPRO1963","29.31","0.41054","5"],
    [5546,"HCEP03730564","2023-11-25 03:00:00","12.1714","3.58246","27.51","1.86","7.48","0.241","3.185","0","0","30.8052","4.81885","21.03","0","SATNPRO1963","29.828","0.41782","5"],
    [5547,"HCEP03730564","2023-11-25 03:15:00","12.1718","3.58219","27.537","1.895","7.48",null,null,null,null,"30.8023","4.81843","21.42","2","SATNPRO1963","29.786","0.41718","5"],
    [5548,"HCEP03730564","2023-11-25 03:30:00","12.1712","3.5822","27.529","1.904","7.48",null,null,null,null,"30.8029","4.81853","21.52","2","SATNPRO1963","30.64","0.42918","5"],
    [5549,"HCEP03730564","2023-11-25 03:45:00","12.1702","3.58168","27.524","1.847","7.48",null,null,null,null,"30.7986","4.81794","20.88","2","SATNPRO1963","30.526","0.42756","5"],
    [5550,"HCEP03730564","2023-11-25 04:00:00","12.1681","3.58014","27.491","1.813","7.48",null,null,null,null,"30.7857","4.81614","20.49","2","SATNPRO1963","30.76","0.43086","5"],
    [5551,"HCEP03730564","2023-11-25 04:15:00","12.1621","3.57642","27.451","1.77","7.47",null,null,null,null,"30.7552","4.81193","19.99","2","SATNPRO1963","30.726","0.43036","5"],
    [5552,"HCEP03730564","2023-11-25 04:30:00","12.1637","3.57555","27.421","1.903","7.48",null,null,null,null,"30.7455","4.81054","21.5","2","SATNPRO1963","30.938","0.43336","5"],
    [5553,"HCEP03730564","2023-11-25 04:45:00","12.1593","3.57505","27.361","1.858","7.48",null,null,null,null,"30.7444","4.81044","20.99","2","SATNPRO1963","30.362","0.42528","5"],
    [5554,"HCEP03730564","2023-11-25 05:00:00","12.1597","3.57515","27.303","1.792","7.47",null,null,null,null,"30.745","4.81052","20.25","2","SATNPRO1963","30.002000000000002","0.42026","5"],
    [5555,"HCEP03730564","2023-11-25 05:15:00","12.1627","3.57522","27.229","1.884","7.47",null,null,null,null,"30.7432","4.81022","21.28","2","SATNPRO1963","29.858","0.41822","5"],
    [5556,"HCEP03730564","2023-11-25 05:30:00","12.1621","3.57452","27.147","1.971","7.48",null,null,null,null,"30.7371","4.80937","22.27","2","SATNPRO1963","31.57","0.4422","5"],
    [5557,"HCEP03730564","2023-11-25 05:45:00","12.1647","3.57705","27.088","1.865","7.48",null,null,null,null,"30.7591","4.81242","21.07","2","SATNPRO1963","30.038","0.42072","5"],
    [5558,"HCEP03730564","2023-11-25 06:00:00","12.169","3.58014","27","1.824","7.47",null,null,null,null,"30.7852","4.81603","20.61","2","SATNPRO1963","30.172","0.42264","5"],
    [5559,"HCEP03730564","2023-11-25 06:15:00","12.1699","3.5806","26.916","1.811","7.47",null,null,null,null,"30.7888","4.81653","20.46","2","SATNPRO1963","31.21","0.43714","5"],
    [5560,"HCEP03730564","2023-11-25 06:30:00","12.1701","3.5806","26.805","1.815","7.48",null,null,null,null,"30.7887","4.8165","20.52","2","SATNPRO1963","31.534","0.44168","5"],
    [5561,"HCEP03730564","2023-11-25 06:45:00","12.1702","3.5802","26.697","1.83","7.48","0.241","3.185","0","0","30.7848","4.81594","20.68","0","SATNPRO1963","30.906","0.43288","5"],
    [5562,"HCEP03730564","2023-11-25 07:00:00","12.1701","3.58065","26.608","1.828","7.48","0.241","3.185","0","0","30.7893","4.81658","20.66","0","SATNPRO1963","30.618","0.42888","5"],
    [5563,"HCEP03730564","2023-11-25 07:15:00","12.1702","3.58055","26.514","1.777","7.47",null,null,null,null,"30.7882","4.81642","20.08","2","SATNPRO1963","30.37","0.4254","5"],
    [5564,"HCEP03730564","2023-11-25 07:30:00","12.1688","3.58045","26.443","1.73","7.47",null,null,null,null,"30.7885","4.81648","19.55","2","SATNPRO1963","30.823999999999998","0.43176","5"],
    [5565,"HCEP03730564","2023-11-25 07:45:00","12.1682","3.58008","26.309","1.678","7.47",null,null,null,null,"30.7854","4.81604","18.96","2","SATNPRO1963","30.912","0.43294","5"],
    [5566,"HCEP03730564","2023-11-25 08:00:00","12.1675","3.57972","26.234","1.652","7.47","0.241","3.185","0","0","30.7827","4.81566","18.67","0","SATNPRO1963","30.466","0.42674","5"],
    [5567,"HCEP03730564","2023-11-25 08:15:00","12.1669","3.57933","26.176","1.637","7.47","0.241","3.185","0","0","30.7795","4.81522","18.49","0","SATNPRO1963","30.355999999999998","0.42514","5"],
    [5568,"HCEP03730564","2023-11-25 08:30:00","12.1664","3.57895","26.131","1.623","7.46","0.241","3.185","0","0","30.7763","4.81477","18.34","0","SATNPRO1963","29.926","0.41916","5"],
    [5569,"HCEP03730564","2023-11-25 08:45:00","12.1661","3.57856","26.121","1.622","7.46",null,null,null,null,"30.7728","4.81428","18.33","2","SATNPRO1963","29.77","0.41698","5"],
    [5570,"HCEP03730564","2023-11-25 09:00:00","12.1657","3.57833","26.16","1.631","7.46",null,null,null,null,"30.7709","4.81403","18.43","2","SATNPRO1963","29.482","0.41294","5"],
    [5571,"HCEP03730564","2023-11-25 09:15:00","12.1657","3.57843","26.171","1.622","7.46","0.241","3.185","0","0","30.7718","4.81415","18.33","0","SATNPRO1963","29.35","0.4111","5"],
    [5572,"HCEP03730564","2023-11-25 09:30:00","12.1655","3.57831","26.224","1.615","7.46","0.241","3.185","0","0","30.7709","4.81402","18.25","0","SATNPRO1963","29.334","0.41084","5"],
    [5573,"HCEP03730564","2023-11-25 09:45:00","12.1654","3.57797","26.279","1.612","7.46",null,null,null,null,"30.7676","4.81357","18.21","2","SATNPRO1963","29.634","0.41508","5"],
    [5574,"HCEP03730564","2023-11-25 10:00:00","12.1647","3.57761","26.363","1.609","7.46","0.241","3.185","0","0","30.7648","4.81318","18.17","0","SATNPRO1963","29.316","0.41062","5"],
    [5575,"HCEP03730564","2023-11-25 10:15:00","12.1649","3.57776","26.443","1.612","7.46","0.241","3.185","0","0","30.766","4.81335","18.21","0","SATNPRO1963","29.59","0.41446","5"],
    [5576,"HCEP03730564","2023-11-25 10:30:00","12.1653","3.5777","26.544","1.625","7.46",null,null,null,null,"30.7651","4.81323","18.36","2","SATNPRO1963","29.503999999999998","0.41326","5"],
    [5577,"HCEP03730564","2023-11-25 10:45:00","12.1652","3.57772","26.683","1.636","7.46","0.241","3.185","0","0","30.7653","4.81327","18.48","0","SATNPRO1963","29.246","0.40966","5"],
    [5578,"HCEP03730564","2023-11-25 11:00:00","12.1657","3.57793","26.779","1.641","7.46","0.241","3.185","0","0","30.7668","4.81348","18.54","0","SATNPRO1963","29.64","0.41512","5"],
    [5579,"HCEP03730564","2023-11-25 11:15:00","12.1659","3.57824","26.887","1.648","7.46",null,null,null,null,"30.7697","4.81388","18.62","2","SATNPRO1963","29.67","0.41556","5"],
    [5580,"HCEP03730564","2023-11-25 11:30:00","12.1662","3.57827","27.001","1.658","7.46","0.241","3.185","0","0","30.7696","4.81388","18.73","0","SATNPRO1963","29.55","0.41388","5"],
    [5581,"HCEP03730564","2023-11-25 11:45:00","12.1667","3.57844","27.113","1.673","7.46",null,null,null,null,"30.7708","4.81404","18.9","2","SATNPRO1963","29.856","0.4182","5"],
    [5582,"HCEP03730564","2023-11-25 12:00:00","12.1669","3.57873","27.242","1.669","7.46","0.241","3.185","0","0","30.7733","4.8144","18.86","0","SATNPRO1963","29.772000000000002","0.41702","5"],
    [5583,"HCEP03730564","2023-11-25 12:15:00","12.1669","3.57922","27.353","1.639","7.46","0.241","3.185","0","0","30.7779","4.81506","18.52","0","SATNPRO1963","29.958","0.41958","5"],
    [5584,"HCEP03730564","2023-11-25 12:30:00","12.1668","3.57932","27.467","1.612","7.46","0.241","3.185","0","0","30.779","4.81521","18.21","0","SATNPRO1963","30.144","0.42222","5"],
    [5585,"HCEP03730564","2023-11-25 12:45:00","12.1667","3.57938","27.573","1.612","7.46",null,null,null,null,"30.7796","4.81531","18.21","2","SATNPRO1963","30.078","0.4213","5"],
    [5586,"HCEP03730564","2023-11-25 13:00:00","12.1672","3.57942","27.673","1.625","7.46","0.241","3.185","0","0","30.7795","4.8153","18.36","0","SATNPRO1963","30.174","0.42262","5"],
    [5587,"HCEP03730564","2023-11-25 13:15:00","12.167","3.57942","27.77","1.63","7.46",null,null,null,null,"30.7796","4.81532","18.42","2","SATNPRO1963","29.604","0.41466","5"],
    [5588,"HCEP03730564","2023-11-25 13:30:00","12.1673","3.57936","27.854","1.651","7.46","0.241","3.185","0","0","30.7788","4.8152","18.66","0","SATNPRO1963","29.753999999999998","0.41674","5"],
    [5589,"HCEP03730564","2023-11-25 13:45:00","12.1674","3.57925","27.915","1.685","7.46",null,null,null,null,"30.7776","4.81504","19.04","2","SATNPRO1963","29.898","0.4188","5"],
    [5590,"HCEP03730564","2023-11-25 14:00:00","12.1671","3.57905","27.968","1.698","7.46","0.241","3.185","0","0","30.7759","4.81481","19.19","0","SATNPRO1963","30.192","0.4229","5"],
    [5591,"HCEP03730564","2023-11-25 14:15:00","12.1659","3.57874","28.002","1.703","7.46",null,null,null,null,"30.7739","4.81455","19.24","2","SATNPRO1963","29.887999999999998","0.4186","5"],
    [5592,"HCEP03730564","2023-11-25 14:30:00","12.1644","3.57853","27.999","1.688","7.46","0.241","3.185","0","0","30.7731","4.81446","19.07","0","SATNPRO1963","30.006","0.42028","5"],
    [5593,"HCEP03730564","2023-11-25 14:45:00","12.1618","3.57734","27.974","1.687","7.46","0.241","3.185","0","0","30.7639","4.81319","19.06","0","SATNPRO1963","30.194","0.4229","5"],
    [5594,"HCEP03730564","2023-11-25 15:00:00","12.1608","3.57695","27.941","1.681","7.46",null,null,null,null,"30.761","4.81279","18.98","2","SATNPRO1963","30.526","0.42758","5"],
    [5595,"HCEP03730564","2023-11-25 15:15:00","12.1591","3.57666","27.848","1.65","7.46",null,null,null,null,"30.7597","4.81263","18.63","2","SATNPRO1963","30.298000000000002","0.42438","5"],
    [5596,"HCEP03730564","2023-11-25 15:30:00","12.1579","3.57625","27.789","1.614","7.46","0.241","3.185","0","0","30.7569","4.81224","18.23","0","SATNPRO1963","30.326","0.4248","5"],
    [5597,"HCEP03730564","2023-11-25 15:45:00","12.1569","3.57571","27.693","1.591","7.45",null,null,null,null,"30.7525","4.81163","17.97","2","SATNPRO1963","30.066","0.42114","5"],
    [5598,"HCEP03730564","2023-11-25 16:00:00","12.1551","3.575","27.586","1.567","7.45","0.241","3.185","0","0","30.7472","4.81091","17.7","0","SATNPRO1963","29.798000000000002","0.41736","5"],
    [5599,"HCEP03730564","2023-11-25 16:15:00","12.1535","3.57426","27.478","1.555","7.45",null,null,null,null,"30.7416","4.81013","17.56","2","SATNPRO1963","29.538","0.4137","5"],
    [5600,"HCEP03730564","2023-11-25 16:30:00","12.1531","3.57415","27.332","1.549","7.45","0.241","3.185","0","0","30.7409","4.81003","17.49","0","SATNPRO1963","29.246000000000002","0.40964","5"],
    [5601,"HCEP03730564","2023-11-25 16:45:00","12.152","3.57331","27.169","1.564","7.45",null,null,null,null,"30.7339","4.80905","17.66","2","SATNPRO1963","29.458000000000002","0.4126","5"],
    [5602,"HCEP03730564","2023-11-25 17:00:00","12.152","3.5734","26.968","1.571","7.45",null,null,null,null,"30.7347","4.80915","17.74","2","SATNPRO1963","29.336","0.41088","5"],
    [5603,"HCEP03730564","2023-11-25 17:15:00","12.1514","3.57287","26.769","1.594","7.45",null,null,null,null,"30.7303","4.80853","18","2","SATNPRO1963","29.07","0.40722","5"],
    [5604,"HCEP03730564","2023-11-25 17:30:00","12.1512","3.57278","26.554","1.626","7.45",null,null,null,null,"30.7296","4.80842","18.36","2","SATNPRO1963","29.062","0.40706","5"],
    [5605,"HCEP03730564","2023-11-25 17:45:00","12.151","3.5727","26.354","1.635","7.45",null,null,null,null,"30.7292","4.80836","18.46","2","SATNPRO1963","29.424","0.41212","5"],
    [5606,"HCEP03730564","2023-11-25 18:00:00","12.1523","3.573","26.115","1.671","7.45",null,null,null,null,"30.731","4.80858","18.87","2","SATNPRO1963","29.586000000000002","0.41438","5"],
    [5607,"HCEP03730564","2023-11-25 18:15:00","12.1524","3.57296","25.879","1.695","7.45",null,null,null,null,"30.7307","4.80852","19.14","2","SATNPRO1963","29.514","0.4134","5"],
    [5608,"HCEP03730564","2023-11-25 18:30:00","12.1522","3.57292","25.633","1.679","7.46",null,null,null,null,"30.7305","4.80848","18.96","2","SATNPRO1963","29.7","0.41598","5"],
    [5609,"HCEP03730564","2023-11-25 18:45:00","12.1522","3.5729","25.387","1.666","7.45",null,null,null,null,"30.7304","4.80846","18.81","2","SATNPRO1963","29.612","0.41478","5"],
    [5610,"HCEP03730564","2023-11-25 19:00:00","12.1513","3.57272","25.146","1.646","7.45",null,null,null,null,"30.7296","4.80834","18.58","2","SATNPRO1963","30.016","0.4205","5"],
    [5611,"HCEP03730564","2023-11-25 19:15:00","12.1498","3.57234","24.91","1.619","7.45",null,null,null,null,"30.7272","4.80802","18.28","2","SATNPRO1963","30.038","0.42072","5"],
    [5612,"HCEP03730564","2023-11-25 19:30:00","12.1493","3.57217","24.656","1.619","7.45",null,null,null,null,"30.7261","4.80785","18.28","2","SATNPRO1963","29.888","0.41862","5"],
    [5613,"HCEP03730564","2023-11-25 19:45:00","12.1487","3.57194","24.364","1.603","7.45",null,null,null,null,"30.7246","4.80763","18.1","2","SATNPRO1963","29.752","0.41668","5"],
    [5614,"HCEP03730564","2023-11-25 20:00:00","12.1487","3.57192","24.19","1.6","7.45",null,null,null,null,"30.7245","4.80761","18.07","2","SATNPRO1963","29.708","0.41608","5"],
    [5615,"HCEP03730564","2023-11-25 20:15:00","12.1495","3.57218","24.065","1.62","7.45",null,null,null,null,"30.7263","4.80785","18.3","2","SATNPRO1963","29.39","0.4116","5"],
    [5616,"HCEP03730564","2023-11-25 20:30:00","12.1503","3.57236","23.955","1.646","7.45",null,null,null,null,"30.7274","4.80798","18.58","2","SATNPRO1963","29.504","0.41324","5"],
    [5617,"HCEP03730564","2023-11-25 20:45:00","12.1512","3.57256","23.865","1.653","7.45",null,null,null,null,"30.7286","4.80814","18.67","2","SATNPRO1963","29.264","0.40988","5"],
    [5618,"HCEP03730564","2023-11-25 21:00:00","12.1521","3.57287","23.824","1.662","7.45",null,null,null,null,"30.7309","4.80844","18.76","2","SATNPRO1963","30.062","0.42106","5"],
    [5619,"HCEP03730564","2023-11-25 21:15:00","12.1531","3.57319","23.806","1.699","7.45",null,null,null,null,"30.7331","4.80874","19.18","2","SATNPRO1963","29.812","0.4176","5"],
    [5620,"HCEP03730564","2023-11-25 21:30:00","12.1538","3.57346","23.81","1.728","7.46",null,null,null,null,"30.735","4.809","19.52","2","SATNPRO1963","29.772000000000002","0.41698","5"],
    [5621,"HCEP03730564","2023-11-25 21:45:00","12.1552","3.5739","23.843","1.739","7.46",null,null,null,null,"30.7382","4.80943","19.64","2","SATNPRO1963","29.712","0.4162","5"],
    [5622,"HCEP03730564","2023-11-25 22:00:00","12.1554","3.57407","23.882","1.726","7.46",null,null,null,null,"30.7396","4.80964","19.49","2","SATNPRO1963","29.97","0.41976","5"],
    [5623,"HCEP03730564","2023-11-25 22:15:00","12.1567","3.57444","23.966","1.742","7.46",null,null,null,null,"30.742","4.80995","19.67","2","SATNPRO1963","30.09","0.42146","5"],
    [5624,"HCEP03730564","2023-11-25 22:30:00","12.1578","3.57481","24.077","1.76","7.46",null,null,null,null,"30.7445","4.8103","19.88","2","SATNPRO1963","30.396","0.42576","5"],
    [5625,"HCEP03730564","2023-11-25 22:45:00","12.1569","3.57454","24.216","1.76","7.46","0.241","3.185","0","0","30.7427","4.81006","19.88","0","SATNPRO1963","30.322","0.42476","5"],
    [5626,"HCEP03730564","2023-11-25 23:00:00","12.1571","3.57473","24.393","1.721","7.46","0.241","3.185","0","0","30.7443","4.81029","19.43","0","SATNPRO1963","30.22","0.4233","5"],
    [5627,"HCEP03730564","2023-11-25 23:15:00","12.157","3.57482","24.592","1.691","7.46",null,null,null,null,"30.7452","4.81043","19.1","2","SATNPRO1963","30.682","0.42976","5"],
    [5628,"HCEP03730564","2023-11-25 23:30:00","12.1556","3.57469","24.765","1.651","7.45","0.241","3.185","0","0","30.7449","4.81042","18.65","0","SATNPRO1963","30.478","0.4269","5"],
    [5629,"HCEP03730564","2023-11-25 23:45:00","12.1538","3.57416","24.953","1.607","7.45",null,null,null,null,"30.7414","4.80996","18.15","2","SATNPRO1963","30.798000000000002","0.43138","5"],
    [5630,"HCEP03730564","2023-11-26 00:00:00","12.1544","3.57408","25.258","1.694","7.45","0.241","3.185","0","0","30.7399","4.80976","19.13","0","SATNPRO1963","30.632","0.42902","5"],
    [5631,"HCEP03730564","2023-11-26 00:15:00","12.1554","3.574","25.349","1.689","7.45",null,null,null,null,"30.7383","4.80953","19.07","2","SATNPRO1963","30.29","0.42428","5"],
    [5632,"HCEP03730564","2023-11-26 00:30:00","12.1558","3.57446","25.506","1.683","7.45",null,null,null,null,"30.7423","4.81009","19.01","2","SATNPRO1963","29.99","0.42004","5"],
    [5633,"HCEP03730564","2023-11-26 00:45:00","12.1562","3.5745","25.692","1.683","7.45","0.241","3.185","0","0","30.7423","4.81009","19.01","0","SATNPRO1963","29.814","0.41758","5"],
    [5634,"HCEP03730564","2023-11-26 01:00:00","12.1542","3.57428","25.936","1.662","7.45",null,null,null,null,"30.7417","4.81005","18.77","2","SATNPRO1963","30.02","0.4205","5"],
    [5635,"HCEP03730564","2023-11-26 01:15:00","12.1544","3.57459","26.154","1.596","7.45",null,null,null,null,"30.7445","4.81046","18.03","2","SATNPRO1963","30.326","0.42476","5"],
    [5636,"HCEP03730564","2023-11-26 01:30:00","12.1557","3.57501","26.399","1.576","7.45","0.241","3.185","0","0","30.7474","4.81086","17.79","0","SATNPRO1963","30.366","0.42538","5"],
    [5637,"HCEP03730564","2023-11-26 01:45:00","12.1537","3.57533","26.602","1.462","7.45",null,null,null,null,"30.752","4.81155","16.52","2","SATNPRO1963","30.222","0.42332","5"],
    [5638,"HCEP03730564","2023-11-26 02:00:00","12.1554","3.57559","26.843","1.432","7.44",null,null,null,null,"30.7529","4.81166","16.17","2","SATNPRO1963","29.672","0.4156","5"],
    [5639,"HCEP03730564","2023-11-26 02:15:00","12.1569","3.57549","27.015","1.537","7.45","0.241","3.185","0","0","30.7506","4.81134","17.36","0","SATNPRO1963","29.104","0.40766","5"],
    [5640,"HCEP03730564","2023-11-26 02:30:00","12.155","3.57523","27.177","1.517","7.45",null,null,null,null,"30.7496","4.81123","17.14","2","SATNPRO1963","29.318","0.41064","5"],
    [5641,"HCEP03730564","2023-11-26 02:45:00","12.1548","3.57494","27.317","1.505","7.45",null,null,null,null,"30.7471","4.81088","16.99","2","SATNPRO1963","28.398","0.39776","5"],
    [5642,"HCEP03730564","2023-11-26 03:00:00","12.1553","3.57542","27.434","1.478","7.45","0.241","3.185","0","0","30.7512","4.81146","16.69","0","SATNPRO1963","29.178","0.4087","5"],
    [5643,"HCEP03730564","2023-11-26 03:15:00","12.1582","3.57639","27.53","1.492","7.45",null,null,null,null,"30.758","4.81238","16.85","2","SATNPRO1963","29.71","0.4161","5"],
    [5644,"HCEP03730564","2023-11-26 03:30:00","12.1601","3.57708","27.628","1.525","7.45","0.241","3.185","0","0","30.7629","4.81306","17.22","0","SATNPRO1963","29.238","0.40954","5"],
    [5645,"HCEP03730564","2023-11-26 03:45:00","12.1608","3.57727","27.691","1.519","7.45","0.241","3.185","0","0","30.7642","4.81323","17.16","0","SATNPRO1963","29.538","0.41374","5"],
    [5646,"HCEP03730564","2023-11-26 04:00:00","12.1601","3.57703","27.722","1.518","7.45","0.241","3.185","0","0","30.7625","4.813","17.15","0","SATNPRO1963","29.03","0.40662","5"],
    [5647,"HCEP03730564","2023-11-26 04:15:00","12.1597","3.57671","27.744","1.528","7.45",null,null,null,null,"30.7598","4.81263","17.26","2","SATNPRO1963","29.368000000000002","0.41134","5"],
    [5648,"HCEP03730564","2023-11-26 04:30:00","12.1585","3.57552","27.742","1.599","7.46","0.241","3.185","0","0","30.7494","4.81117","18.06","0","SATNPRO1963","29.5","0.4132","5"],
    [5649,"HCEP03730564","2023-11-26 04:45:00","12.1587","3.57565","27.715","1.643","7.46","0.241","3.185","0","0","30.7505","4.81132","18.55","0","SATNPRO1963","29.573999999999998","0.41424","5"],
    [5650,"HCEP03730564","2023-11-26 05:00:00","12.1588","3.576","27.714","1.606","7.46","0.241","3.185","0","0","30.7537","4.81178","18.14","0","SATNPRO1963","29.544","0.41378","5"],
    [5651,"HCEP03730564","2023-11-26 05:15:00","12.1583","3.57591","27.671","1.569","7.46",null,null,null,null,"30.7533","4.81173","17.72","2","SATNPRO1963","29.264","0.40988","5"],
    [5652,"HCEP03730564","2023-11-26 05:30:00","12.1583","3.57584","27.628","1.571","7.45","0.241","3.185","0","0","30.7526","4.81163","17.75","0","SATNPRO1963","30.228","0.42342","5"],
    [5653,"HCEP03730564","2023-11-26 05:45:00","12.1586","3.57574","27.585","1.592","7.45","0.241","3.185","0","0","30.7515","4.81146","17.99","0","SATNPRO1963","29.928","0.41918","5"],
    [5654,"HCEP03730564","2023-11-26 06:00:00","12.1596","3.576","27.522","1.616","7.45",null,null,null,null,"30.7531","4.81168","18.25","2","SATNPRO1963","29.888","0.41866","5"],
    [5655,"HCEP03730564","2023-11-26 06:15:00","12.1602","3.57651","27.462","1.585","7.46","0.241","3.185","0","0","30.7575","4.81229","17.91","0","SATNPRO1963","29.612","0.41478","5"],
    [5656,"HCEP03730564","2023-11-26 06:30:00","12.1606","3.57674","27.385","1.575","7.46",null,null,null,null,"30.7595","4.81255","17.79","2","SATNPRO1963","29.838","0.41796","5"],
    [5657,"HCEP03730564","2023-11-26 06:45:00","12.1607","3.5768","27.306","1.561","7.46","0.241","3.185","0","0","30.7599","4.81261","17.64","0","SATNPRO1963","30.298","0.42436","5"],
    [5658,"HCEP03730564","2023-11-26 07:00:00","12.1605","3.57664","27.219","1.521","7.45",null,null,null,null,"30.7586","4.81242","17.18","2","SATNPRO1963","29.876","0.4185","5"],
    [5659,"HCEP03730564","2023-11-26 07:15:00","12.1609","3.57715","27.136","1.461","7.45",null,null,null,null,"30.7632","4.81306","16.5","2","SATNPRO1963","29.734","0.41648","5"],
    [5660,"HCEP03730564","2023-11-26 07:30:00","12.1605","3.57722","27.086","1.4","7.45","0.241","3.185","0","0","30.7641","4.81319","15.81","0","SATNPRO1963","29.966","0.4197","5"],
    [5661,"HCEP03730564","2023-11-26 07:45:00","12.1599","3.57697","26.99","1.372","7.44",null,null,null,null,"30.7623","4.81293","15.5","2","SATNPRO1963","29.826","0.41778","5"],
    [5662,"HCEP03730564","2023-11-26 08:00:00","12.1595","3.57669","26.911","1.361","7.44",null,null,null,null,"30.76","4.81262","15.37","2","SATNPRO1963","29.748","0.41666","5"],
    [5663,"HCEP03730564","2023-11-26 08:15:00","12.1594","3.57654","26.828","1.358","7.44",null,null,null,null,"30.7587","4.81242","15.34","2","SATNPRO1963","29.284","0.41016","5"],
    [5664,"HCEP03730564","2023-11-26 08:30:00","12.1597","3.57672","26.758","1.352","7.44",null,null,null,null,"30.7602","4.81263","15.27","2","SATNPRO1963","28.538","0.39976","5"],
    [5665,"HCEP03730564","2023-11-26 08:45:00","12.159","3.57638","26.66","1.353","7.44",null,null,null,null,"30.7576","4.81226","15.28","2","SATNPRO1963","28.558","0.4","5"],
    [5666,"HCEP03730564","2023-11-26 09:00:00","12.1594","3.57659","26.574","1.353","7.44",null,null,null,null,"30.7593","4.81249","15.29","2","SATNPRO1963","28.566","0.40008","5"],
    [5667,"HCEP03730564","2023-11-26 09:15:00","12.1596","3.57671","26.517","1.353","7.44",null,null,null,null,"30.7603","4.81263","15.28","2","SATNPRO1963","28.446","0.39842","5"],
    [5668,"HCEP03730564","2023-11-26 09:30:00","12.1592","3.5766","26.483","1.347","7.44",null,null,null,null,"30.7596","4.81253","15.22","2","SATNPRO1963","28.242","0.39558","5"],
    [5669,"HCEP03730564","2023-11-26 09:45:00","12.1591","3.57652","26.447","1.341","7.44",null,null,null,null,"30.7589","4.81243","15.15","2","SATNPRO1963","28.744","0.40262","5"],
    [5670,"HCEP03730564","2023-11-26 10:00:00","12.1587","3.57629","26.444","1.334","7.44",null,null,null,null,"30.757","4.81218","15.07","2","SATNPRO1963","28.718","0.40224","5"],
    [5671,"HCEP03730564","2023-11-26 10:15:00","12.1584","3.57642","26.467","1.325","7.44",null,null,null,null,"30.7586","4.81241","14.96","2","SATNPRO1963","28.6","0.4006","5"],
    [5672,"HCEP03730564","2023-11-26 10:30:00","12.1583","3.57659","26.502","1.317","7.44",null,null,null,null,"30.7602","4.81264","14.87","2","SATNPRO1963","28.566","0.40008","5"],
    [5673,"HCEP03730564","2023-11-26 10:45:00","12.1585","3.57664","26.549","1.312","7.43",null,null,null,null,"30.7605","4.81268","14.82","2","SATNPRO1963","28.53","0.39962","5"],
    [5674,"HCEP03730564","2023-11-26 11:00:00","12.1584","3.57665","26.621","1.308","7.43",null,null,null,null,"30.7607","4.81271","14.78","2","SATNPRO1963","28.560000000000002","0.40004","5"],
    [5675,"HCEP03730564","2023-11-26 11:15:00","12.1587","3.57669","26.69","1.31","7.43",null,null,null,null,"30.7608","4.81272","14.79","2","SATNPRO1963","28.558","0.40004","5"],
    [5676,"HCEP03730564","2023-11-26 11:30:00","12.1586","3.57659","26.781","1.312","7.43",null,null,null,null,"30.7598","4.81259","14.82","2","SATNPRO1963","28.442","0.39836","5"],
    [5677,"HCEP03730564","2023-11-26 11:45:00","12.1592","3.57664","26.878","1.314","7.43",null,null,null,null,"30.7598","4.81259","14.84","2","SATNPRO1963","28.666","0.4015","5"],
    [5678,"HCEP03730564","2023-11-26 12:00:00","12.159","3.57669","26.974","1.314","7.43",null,null,null,null,"30.7604","4.81268","14.84","2","SATNPRO1963","28.54","0.39972","5"],
    [5679,"HCEP03730564","2023-11-26 12:15:00","12.1591","3.57678","27.061","1.329","7.44",null,null,null,null,"30.7611","4.81278","15.01","2","SATNPRO1963","28.616","0.40078","5"],
    [5680,"HCEP03730564","2023-11-26 12:30:00","12.1592","3.57683","27.144","1.342","7.44",null,null,null,null,"30.7615","4.81284","15.15","2","SATNPRO1963","28.576","0.40024","5"],
    [5681,"HCEP03730564","2023-11-26 12:45:00","12.1593","3.57671","27.231","1.346","7.44",null,null,null,null,"30.7603","4.81267","15.21","2","SATNPRO1963","28.631999999999998","0.40102","5"],
    [5682,"HCEP03730564","2023-11-26 13:00:00","12.1591","3.57672","27.336","1.355","7.44",null,null,null,null,"30.7604","4.8127","15.31","2","SATNPRO1963","28.424","0.39816","5"],
    [5683,"HCEP03730564","2023-11-26 13:15:00","12.1591","3.5762","27.437","1.4","7.44",null,null,null,null,"30.7555","4.81201","15.81","2","SATNPRO1963","28.744","0.4026","5"],
    [5684,"HCEP03730564","2023-11-26 13:30:00","12.1592","3.57675","27.531","1.425","7.44",null,null,null,null,"30.7606","4.81274","16.09","2","SATNPRO1963","28.838","0.40394","5"],
    [5685,"HCEP03730564","2023-11-26 13:45:00","12.1566","3.57593","27.6","1.438","7.44",null,null,null,null,"30.7548","4.81196","16.24","2","SATNPRO1963","28.998","0.40614","5"],
    [5686,"HCEP03730564","2023-11-26 14:00:00","12.154","3.57495","27.661","1.421","7.44",null,null,null,null,"30.7476","4.81099","16.05","2","SATNPRO1963","28.828","0.4038","5"],
    [5687,"HCEP03730564","2023-11-26 14:15:00","12.1528","3.5745","27.691","1.42","7.44",null,null,null,null,"30.7443","4.81053","16.03","2","SATNPRO1963","29.85","0.41808","5"],
    [5688,"HCEP03730564","2023-11-26 14:30:00","12.151","3.57401","27.748","1.392","7.44",null,null,null,null,"30.741","4.8101","15.72","2","SATNPRO1963","29.422","0.41208","5"],
    [5689,"HCEP03730564","2023-11-26 14:45:00","12.1499","3.5736","27.801","1.385","7.44",null,null,null,null,"30.7381","4.80971","15.64","2","SATNPRO1963","29.404","0.41188","5"],
    [5690,"HCEP03730564","2023-11-26 15:00:00","12.1505","3.5736","27.86","1.41","7.44",null,null,null,null,"30.7376","4.80963","15.93","2","SATNPRO1963","29.006","0.40628","5"],
    [5691,"HCEP03730564","2023-11-26 15:15:00","12.1514","3.57383","27.853","1.446","7.44",null,null,null,null,"30.739","4.80982","16.32","2","SATNPRO1963","28.884","0.40454","5"],
    [5692,"HCEP03730564","2023-11-26 15:30:00","12.1522","3.57373","27.843","1.508","7.44",null,null,null,null,"30.7374","4.80957","17.03","2","SATNPRO1963","28.502","0.39924","5"],
    [5693,"HCEP03730564","2023-11-26 15:45:00","12.1534","3.5738","27.829","1.627","7.45",null,null,null,null,"30.7371","4.80951","18.38","2","SATNPRO1963","28.704","0.40206","5"],
    [5694,"HCEP03730564","2023-11-26 16:00:00","12.1528","3.5736","27.774","1.705","7.45",null,null,null,null,"30.7356","4.80932","19.26","2","SATNPRO1963","28.814","0.4036","5"],
    [5695,"HCEP03730564","2023-11-26 16:15:00","12.1528","3.57328","27.709","1.786","7.46",null,null,null,null,"30.7326","4.80889","20.17","2","SATNPRO1963","28.984","0.40598","5"],
    [5696,"HCEP03730564","2023-11-26 16:30:00","12.1525","3.57305","27.617","1.838","7.47",null,null,null,null,"30.7307","4.80863","20.75","2","SATNPRO1963","29.324","0.41072","5"],
    [5697,"HCEP03730564","2023-11-26 16:45:00","12.1528","3.573","27.516","1.864","7.47",null,null,null,null,"30.7301","4.80852","21.05","2","SATNPRO1963","29.936","0.41926","5"],
    [5698,"HCEP03730564","2023-11-26 17:00:00","12.1528","3.57275","27.367","1.927","7.47",null,null,null,null,"30.7278","4.80819","21.76","2","SATNPRO1963","29.926","0.41912","5"],
    [5699,"HCEP03730564","2023-11-26 17:15:00","12.152","3.57245","27.216","1.952","7.47",null,null,null,null,"30.7255","4.80787","22.04","2","SATNPRO1963","30.276","0.42408","5"],
    [5700,"HCEP03730564","2023-11-26 17:30:00","12.1518","3.57219","27.011","1.986","7.48",null,null,null,null,"30.7234","4.80757","22.43","2","SATNPRO1963","30.387999999999998","0.42562","5"],
    [5701,"HCEP03730564","2023-11-26 17:45:00","12.1513","3.57202","26.813","1.996","7.48",null,null,null,null,"30.7222","4.8074","22.54","2","SATNPRO1963","30.398","0.42576","5"],
    [5702,"HCEP03730564","2023-11-26 18:00:00","12.1509","3.57178","26.605","2.019","7.48","0.241","3.185","0","0","30.7204","4.80713","22.8","0","SATNPRO1963","30.36","0.42522","5"],
    [5703,"HCEP03730564","2023-11-26 18:15:00","12.1504","3.57162","26.375","2.03","7.48","0.28","4.456","0.04","0.23","30.7193","4.80698","22.92","2","SATNPRO1963","30.28","0.42408","5"],
    [5704,"HCEP03730564","2023-11-26 18:30:00","12.1502","3.57148","26.126","2.042","7.48","0.292","4.644","0.04","0.17","30.7183","4.80682","23.06","2","SATNPRO1963","30.541999999999998","0.4278","5"],
    [5705,"HCEP03730564","2023-11-26 18:45:00","12.1505","3.57158","25.887","2.024","7.48","0.275","4.826","0","0","30.719","4.8069","22.85","2","SATNPRO1963","30.322","0.42476","5"],
    [5706,"HCEP03730564","2023-11-26 19:00:00","12.1503","3.57158","25.64","2.027","7.48","0.275","4.826","0","0","30.7192","4.80693","22.89","0","SATNPRO1963","30.58","0.42836","5"],
    [5707,"HCEP03730564","2023-11-26 19:15:00","12.1508","3.57182","25.388","2.018","7.48",null,null,null,null,"30.7213","4.8072","22.79","2","SATNPRO1963","30.53","0.42764","5"],
    [5708,"HCEP03730564","2023-11-26 19:30:00","12.1512","3.57206","25.155","1.994","7.48","0.275","4.826","0","0","30.7233","4.80746","22.52","0","SATNPRO1963","30.532","0.42768","5"],
    [5709,"HCEP03730564","2023-11-26 19:45:00","12.152","3.57238","24.908","1.946","7.48",null,null,null,null,"30.7259","4.8078","21.97","2","SATNPRO1963","30.358","0.42522","5"],
    [5710,"HCEP03730564","2023-11-26 20:00:00","12.1518","3.57262","24.656","1.894","7.47",null,null,null,null,"30.7284","4.80814","21.38","2","SATNPRO1963","30.634","0.42904","5"],
    [5711,"HCEP03730564","2023-11-26 20:15:00","12.1513","3.57268","24.416","1.833","7.47",null,null,null,null,"30.7294","4.80828","20.7","2","SATNPRO1963","30.44","0.42632","5"],
    [5712,"HCEP03730564","2023-11-26 20:30:00","12.1522","3.57299","24.113","1.817","7.47",null,null,null,null,"30.7318","4.80858","20.51","2","SATNPRO1963","30.482","0.42694","5"],
    [5713,"HCEP03730564","2023-11-26 20:45:00","12.1533","3.57328","23.917","1.847","7.47",null,null,null,null,"30.7337","4.80883","20.86","2","SATNPRO1963","30.242","0.42356","5"],
    [5714,"HCEP03730564","2023-11-26 21:00:00","12.1536","3.57336","23.791","1.867","7.47",null,null,null,null,"30.7343","4.8089","21.09","2","SATNPRO1963","30.114","0.4218","5"],
    [5715,"HCEP03730564","2023-11-26 21:15:00","12.1542","3.57346","23.723","1.911","7.47",null,null,null,null,"30.7348","4.80896","21.58","2","SATNPRO1963","30.302","0.42446","5"],
    [5716,"HCEP03730564","2023-11-26 21:30:00","12.1539","3.57345","23.671","1.902","7.47",null,null,null,null,"30.735","4.80899","21.47","2","SATNPRO1963","29.932000000000002","0.41924","5"],
    [5717,"HCEP03730564","2023-11-26 21:45:00","12.1536","3.57339","23.62","1.863","7.47",null,null,null,null,"30.7347","4.80894","21.03","2","SATNPRO1963","30.282","0.42414","5"],
    [5718,"HCEP03730564","2023-11-26 22:00:00","12.1534","3.57329","23.613","1.858","7.47",null,null,null,null,"30.7339","4.80883","20.98","2","SATNPRO1963","30.424","0.42616","5"],
    [5719,"HCEP03730564","2023-11-26 22:15:00","12.1529","3.57298","23.631","1.866","7.47",null,null,null,null,"30.7313","4.80848","21.07","2","SATNPRO1963","30.712","0.4302","5"],
    [5720,"HCEP03730564","2023-11-26 22:30:00","12.1527","3.57302","23.699","1.859","7.47",null,null,null,null,"30.7318","4.80856","20.99","2","SATNPRO1963","30.392","0.42566","5"],
    [5721,"HCEP03730564","2023-11-26 22:45:00","12.1522","3.57287","23.742","1.855","7.47",null,null,null,null,"30.7308","4.80842","20.95","2","SATNPRO1963","30.444","0.42644","5"],
    [5722,"HCEP03730564","2023-11-26 23:00:00","12.1522","3.57294","23.87","1.85","7.47",null,null,null,null,"30.7314","4.80851","20.89","2","SATNPRO1963","30.53","0.42762","5"],
    [5723,"HCEP03730564","2023-11-26 23:15:00","12.1523","3.5729","24.032","1.876","7.47",null,null,null,null,"30.7309","4.80845","21.18","2","SATNPRO1963","30.322","0.42472","5"],
    [5724,"HCEP03730564","2023-11-26 23:30:00","12.1526","3.57298","24.23","1.921","7.47",null,null,null,null,"30.7313","4.80851","21.7","2","SATNPRO1963","30.444","0.42644","5"],
    [5725,"HCEP03730564","2023-11-26 23:45:00","12.152","3.57299","24.408","1.915","7.47",null,null,null,null,"30.7318","4.80861","21.62","2","SATNPRO1963","30.352","0.42514","5"],
    [5726,"HCEP03730564","2023-11-27 00:00:00","12.1523","3.57307","24.606","1.893","7.47",null,null,null,null,"30.7323","4.80868","21.38","2","SATNPRO1963","30.394000000000002","0.42572","5"],
    [5727,"HCEP03730564","2023-11-27 00:15:00","12.152","3.57313","24.803","1.903","7.48",null,null,null,null,"30.733","4.80879","21.49","2","SATNPRO1963","30.376","0.42544","5"],
    [5728,"HCEP03730564","2023-11-27 00:30:00","12.1524","3.5731","24.975","1.943","7.48",null,null,null,null,"30.7323","4.8087","21.94","2","SATNPRO1963","30.412","0.426","5"],
    [5729,"HCEP03730564","2023-11-27 00:45:00","12.1517","3.5728","25.223","1.953","7.49",null,null,null,null,"30.73","4.8084","22.06","2","SATNPRO1963","29.844","0.41804","5"],
    [5730,"HCEP03730564","2023-11-27 01:00:00","12.1516","3.57258","25.453","1.966","7.5",null,null,null,null,"30.7278","4.8081","22.2","2","SATNPRO1963","30.048","0.42088","5"],
    [5731,"HCEP03730564","2023-11-27 01:15:00","12.1509","3.57224","25.626","1.973","7.5",null,null,null,null,"30.7251","4.80774","22.28","2","SATNPRO1963","29.896","0.41878","5"],
    [5732,"HCEP03730564","2023-11-27 01:30:00","12.151","3.57229","25.857","1.981","7.5",null,null,null,null,"30.7254","4.8078","22.37","2","SATNPRO1963","30.142","0.42218","5"],
    [5733,"HCEP03730564","2023-11-27 01:45:00","12.151","3.5725","26.097","1.961","7.5",null,null,null,null,"30.7273","4.80808","22.14","2","SATNPRO1963","30.04","0.42078","5"],
    [5734,"HCEP03730564","2023-11-27 02:00:00","12.1515","3.57271","26.29","1.939","7.51",null,null,null,null,"30.7288","4.8083","21.9","2","SATNPRO1963","30.178","0.4227","5"],
    [5735,"HCEP03730564","2023-11-27 02:15:00","12.1517","3.57291","26.553","1.887","7.51","0.275","4.826","0","0","30.7304","4.80853","21.31","0","SATNPRO1963","30.022","0.4205","5"],
    [5736,"HCEP03730564","2023-11-27 02:30:00","12.1517","3.57301","26.743","1.854","7.5","0.275","4.826","0","0","30.7313","4.80867","20.94","0","SATNPRO1963","30.098","0.42158","5"],
    [5737,"HCEP03730564","2023-11-27 02:45:00","12.1539","3.57503","26.95","1.681","7.49","0.275","4.826","0","0","30.7487","4.8111","18.98","0","SATNPRO1963","29.76","0.41682","5"],
    [5738,"HCEP03730564","2023-11-27 03:00:00","12.156","3.57559","27.122","1.645","7.49","0.275","4.826","0","0","30.7524","4.8116","18.57","0","SATNPRO1963","29.934","0.41928","5"],
    [5739,"HCEP03730564","2023-11-27 03:15:00","12.157","3.57596","27.296","1.687","7.48","0.275","4.826","0","0","30.7549","4.81195","19.06","0","SATNPRO1963","29.736","0.41648","5"],
    [5740,"HCEP03730564","2023-11-27 03:30:00","12.1561","3.57596","27.434","1.654","7.48","0.275","4.826","0","0","30.7557","4.81208","18.68","0","SATNPRO1963","29.768","0.41696","5"],
    [5741,"HCEP03730564","2023-11-27 03:45:00","12.1573","3.5762","27.567","1.618","7.48","0.275","4.826","0","0","30.7569","4.81224","18.28","0","SATNPRO1963","29.322","0.41074","5"],
    [5742,"HCEP03730564","2023-11-27 04:00:00","12.1569","3.57611","27.681","1.599","7.48","0.275","4.826","0","0","30.7563","4.81217","18.06","0","SATNPRO1963","29.726","0.41638","5"],
    [5743,"HCEP03730564","2023-11-27 04:15:00","12.1563","3.57579","27.788","1.591","7.48","0.275","4.826","0","0","30.7537","4.81182","17.97","0","SATNPRO1963","30.038","0.42074","5"],
    [5744,"HCEP03730564","2023-11-27 04:30:00","12.1557","3.57553","27.826","1.586","7.48","0.275","4.826","0","0","30.7517","4.81155","17.92","0","SATNPRO1963","29.796","0.41732","5"],
    [5745,"HCEP03730564","2023-11-27 04:45:00","12.155","3.57505","27.874","1.596","7.48","0.275","4.826","0","0","30.7477","4.81099","18.03","0","SATNPRO1963","29.854","0.41816","5"],
    [5746,"HCEP03730564","2023-11-27 05:00:00","12.1542","3.57477","27.929","1.611","7.48","0.275","4.826","0","0","30.7457","4.81073","18.2","0","SATNPRO1963","29.76","0.41684","5"],
    [5747,"HCEP03730564","2023-11-27 05:15:00","12.154","3.57435","27.905","1.642","7.48","0.275","4.826","0","0","30.7418","4.81018","18.54","0","SATNPRO1963","29.658","0.41538","5"],
    [5748,"HCEP03730564","2023-11-27 05:30:00","12.1539","3.57369","27.913","1.817","7.49","0.275","4.826","0","0","30.7356","4.8093","20.52","0","SATNPRO1963","29.638","0.41514","5"],
    [5749,"HCEP03730564","2023-11-27 05:45:00","12.1542","3.5734","27.91","1.931","7.5","0.275","4.826","0","0","30.7325","4.80887","21.81","0","SATNPRO1963","29.618","0.41484","5"],
    [5750,"HCEP03730564","2023-11-27 06:00:00","12.1537","3.57424","27.894","1.728","7.49","0.275","4.826","0","0","30.741","4.81007","19.52","0","SATNPRO1963","29.64","0.41514","5"],
    [5751,"HCEP03730564","2023-11-27 06:15:00","12.1544","3.57386","27.86","1.7","7.49","0.275","4.826","0","0","30.7369","4.80948","19.2","0","SATNPRO1963","29.996","0.42016","5"],
    [5752,"HCEP03730564","2023-11-27 06:30:00","12.1542","3.57418","27.823","1.801","7.5","0.275","4.826","0","0","30.74","4.80992","20.34","0","SATNPRO1963","30.334","0.4249","5"],
    [5753,"HCEP03730564","2023-11-27 06:45:00","12.1543","3.57345","27.789","1.825","7.5","0.275","4.826","0","0","30.733","4.80893","20.61","0","SATNPRO1963","30.624","0.42896","5"],
    [5754,"HCEP03730564","2023-11-27 07:00:00","12.1548","3.57377","27.684","1.875","7.5","0.275","4.826","0","0","30.7358","4.80931","21.18","0","SATNPRO1963","29.698","0.41598","5"],
    [5755,"HCEP03730564","2023-11-27 07:15:00","12.1551","3.57445","27.649","1.773","7.5","0.275","4.826","0","0","30.742","4.81017","20.02","0","SATNPRO1963","30.454","0.4265","5"],
    [5756,"HCEP03730564","2023-11-27 07:30:00","12.155","3.57488","27.589","1.62","7.49","0.275","4.826","0","0","30.7461","4.81076","18.3","0","SATNPRO1963","30.386","0.4256","5"],
    [5757,"HCEP03730564","2023-11-27 07:45:00","12.1549","3.57511","27.491","1.513","7.48","0.275","4.826","0","0","30.7485","4.81109","17.09","0","SATNPRO1963","30.628","0.42902","5"],
    [5758,"HCEP03730564","2023-11-27 08:00:00","12.155","3.57524","27.405","1.436","7.47",null,null,null,null,"30.7497","4.81125","16.22","2","SATNPRO1963","30.674","0.42962","5"],
    [5759,"HCEP03730564","2023-11-27 08:15:00","12.1547","3.57533","27.315","1.358","7.47","0.275","4.826","0","0","30.7508","4.81141","15.34","0","SATNPRO1963","30.122","0.42188","5"],
    [5760,"HCEP03730564","2023-11-27 08:30:00","12.1542","3.57523","27.234","1.276","7.46","0.275","4.826","0","0","30.7503","4.81134","14.41","0","SATNPRO1963","29.696","0.41598","5"],
    [5761,"HCEP03730564","2023-11-27 08:45:00","12.154","3.57514","27.178","1.235","7.45","0.275","4.826","0","0","30.7496","4.81124","13.95","0","SATNPRO1963","29.418","0.41208","5"],
    [5762,"HCEP03730564","2023-11-27 09:00:00","12.1538","3.57497","27.08","1.22","7.45","0.275","4.826","0","0","30.7483","4.81105","13.78","0","SATNPRO1963","29.552","0.4139","5"],
    [5763,"HCEP03730564","2023-11-27 09:15:00","12.1536","3.57471","26.989","1.216","7.45","0.275","4.826","0","0","30.7459","4.81072","13.73","0","SATNPRO1963","28.98","0.40588","5"],
    [5764,"HCEP03730564","2023-11-27 09:30:00","12.1536","3.57468","26.897","1.204","7.45","0.275","4.826","0","0","30.7457","4.81067","13.59","0","SATNPRO1963","28.716","0.40224","5"],
    [5765,"HCEP03730564","2023-11-27 09:45:00","12.1532","3.57467","26.824","1.186","7.45","0.275","4.826","0","0","30.746","4.81072","13.39","0","SATNPRO1963","28.381999999999998","0.3975","5"],
    [5766,"HCEP03730564","2023-11-27 10:00:00","12.1529","3.57451","26.755","1.182","7.45","0.275","4.826","0","0","30.7447","4.81054","13.35","0","SATNPRO1963","28.498","0.39916","5"],
    [5767,"HCEP03730564","2023-11-27 10:15:00","12.153","3.57457","26.69","1.18","7.45","0.275","4.826","0","0","30.7453","4.81061","13.32","0","SATNPRO1963","28.518","0.39942","5"],
    [5768,"HCEP03730564","2023-11-27 10:30:00","12.1529","3.57462","26.659","1.178","7.45","0.275","4.826","0","0","30.7458","4.81069","13.3","0","SATNPRO1963","28.492","0.39902","5"],
    [5769,"HCEP03730564","2023-11-27 10:45:00","12.153","3.57473","26.642","1.174","7.44","0.275","4.826","0","0","30.7468","4.81083","13.26","0","SATNPRO1963","28.464","0.39868","5"],
    [5770,"HCEP03730564","2023-11-27 11:00:00","12.1531","3.57479","26.654","1.171","7.44","0.275","4.826","0","0","30.7472","4.81089","13.22","0","SATNPRO1963","28.212","0.39514","5"],
    [5771,"HCEP03730564","2023-11-27 11:15:00","12.1532","3.57484","26.681","1.168","7.44","0.275","4.826","0","0","30.7476","4.81094","13.19","0","SATNPRO1963","28.266","0.39592","5"],
    [5772,"HCEP03730564","2023-11-27 11:30:00","12.153","3.57486","26.718","1.167","7.44","0.275","4.826","0","0","30.748","4.811","13.18","0","SATNPRO1963","28.402","0.39786","5"],
    [5773,"HCEP03730564","2023-11-27 11:45:00","12.1534","3.57489","26.764","1.169","7.44","0.275","4.826","0","0","30.7479","4.81099","13.2","0","SATNPRO1963","28.3","0.3964","5"],
    [5774,"HCEP03730564","2023-11-27 12:00:00","12.1532","3.57499","26.822","1.178","7.44","0.275","4.826","0","0","30.749","4.81114","13.31","0","SATNPRO1963","28.288","0.39622","5"],
    [5775,"HCEP03730564","2023-11-27 12:15:00","12.1532","3.57505","26.897","1.188","7.44","0.275","4.826","0","0","30.7496","4.81123","13.41","0","SATNPRO1963","28.272","0.39596","5"],
    [5776,"HCEP03730564","2023-11-27 12:30:00","12.1535","3.57515","26.991","1.212","7.45",null,null,null,null,"30.7502","4.81132","13.69","2","SATNPRO1963","28.354","0.39714","5"],
    [5777,"HCEP03730564","2023-11-27 12:45:00","12.1538","3.57522","27.083","1.245","7.45","0.275","4.826","0","0","30.7506","4.81138","14.06","0","SATNPRO1963","28.326","0.39678","5"],
    [5778,"HCEP03730564","2023-11-27 13:00:00","12.154","3.57528","27.166","1.275","7.45",null,null,null,null,"30.7509","4.81143","14.4","2","SATNPRO1963","28.244","0.3956","5"],
    [5779,"HCEP03730564","2023-11-27 13:15:00","12.1548","3.57535","27.238","1.319","7.45","0.275","4.826","0","0","30.751","4.81142","14.9","0","SATNPRO1963","28.512","0.39938","5"],
    [5780,"HCEP03730564","2023-11-27 13:30:00","12.1544","3.57535","27.308","1.344","7.45",null,null,null,null,"30.7512","4.81147","15.18","2","SATNPRO1963","28.802","0.40342","5"],
    [5781,"HCEP03730564","2023-11-27 13:45:00","12.1541","3.57536","27.385","1.36","7.46",null,null,null,null,"30.7516","4.81153","15.36","2","SATNPRO1963","28.560000000000002","0.40004","5"],
    [5782,"HCEP03730564","2023-11-27 14:00:00","12.1539","3.57533","27.428","1.382","7.46",null,null,null,null,"30.7515","4.81152","15.61","2","SATNPRO1963","28.942","0.40536","5"],
    [5783,"HCEP03730564","2023-11-27 14:15:00","12.1546","3.57544","27.491","1.415","7.46","0.275","4.826","0","0","30.7518","4.81156","15.98","0","SATNPRO1963","29.33","0.41082","5"],
    [5784,"HCEP03730564","2023-11-27 14:30:00","12.154","3.57534","27.587","1.441","7.47",null,null,null,null,"30.7514","4.81152","16.28","2","SATNPRO1963","29.252","0.4097","5"],
    [5785,"HCEP03730564","2023-11-27 14:45:00","12.1539","3.57534","27.647","1.469","7.47",null,null,null,null,"30.7515","4.81153","16.59","2","SATNPRO1963","28.972","0.40582","5"],
    [5786,"HCEP03730564","2023-11-27 15:00:00","12.1534","3.57517","27.738","1.498","7.47",null,null,null,null,"30.7502","4.81136","16.91","2","SATNPRO1963","29.198","0.409","5"],
    [5787,"HCEP03730564","2023-11-27 15:15:00","12.153","3.57488","27.774","1.524","7.47",null,null,null,null,"30.7478","4.81103","17.21","2","SATNPRO1963","29.246000000000002","0.40964","5"],
    [5788,"HCEP03730564","2023-11-27 15:30:00","12.1523","3.57459","27.831","1.534","7.47",null,null,null,null,"30.7456","4.81073","17.32","2","SATNPRO1963","29.086","0.40738","5"],
    [5789,"HCEP03730564","2023-11-27 15:45:00","12.1522","3.57435","27.826","1.562","7.47",null,null,null,null,"30.7433","4.81041","17.64","2","SATNPRO1963","29.428","0.41216","5"],
    [5790,"HCEP03730564","2023-11-27 16:00:00","12.152","3.57423","27.832","1.594","7.48",null,null,null,null,"30.7424","4.81029","18","2","SATNPRO1963","29.304000000000002","0.41046","5"],
    [5791,"HCEP03730564","2023-11-27 16:15:00","12.152","3.57416","27.821","1.614","7.48",null,null,null,null,"30.7416","4.81018","18.23","2","SATNPRO1963","29.332","0.41084","5"],
    [5792,"HCEP03730564","2023-11-27 16:30:00","12.152","3.57408","27.791","1.651","7.48",null,null,null,null,"30.741","4.81008","18.65","2","SATNPRO1963","29.318","0.41068","5"],
    [5793,"HCEP03730564","2023-11-27 16:45:00","12.1522","3.57413","27.735","1.684","7.48",null,null,null,null,"30.7413","4.81013","19.02","2","SATNPRO1963","29.336","0.41088","5"],
    [5794,"HCEP03730564","2023-11-27 17:00:00","12.152","3.57413","27.658","1.704","7.49",null,null,null,null,"30.7415","4.81015","19.24","2","SATNPRO1963","29.497999999999998","0.41314","5"],
    [5795,"HCEP03730564","2023-11-27 17:15:00","12.1519","3.57403","27.561","1.729","7.49",null,null,null,null,"30.7406","4.81002","19.53","2","SATNPRO1963","29.598","0.41456","5"],
    [5796,"HCEP03730564","2023-11-27 17:30:00","12.1518","3.57401","27.434","1.773","7.49",null,null,null,null,"30.7406","4.81001","20.02","2","SATNPRO1963","29.544","0.4138","5"],
    [5797,"HCEP03730564","2023-11-27 17:45:00","12.152","3.57403","27.277","1.827","7.49",null,null,null,null,"30.7406","4.81001","20.64","2","SATNPRO1963","29.524","0.41356","5"],
    [5798,"HCEP03730564","2023-11-27 18:00:00","12.1528","3.574","27.119","1.897","7.49",null,null,null,null,"30.7398","4.80987","21.42","2","SATNPRO1963","29.578","0.41424","5"],
    [5799,"HCEP03730564","2023-11-27 18:15:00","12.1524","3.57397","26.935","1.934","7.5",null,null,null,null,"30.7398","4.80987","21.84","2","SATNPRO1963","29.374","0.41144","5"],
    [5800,"HCEP03730564","2023-11-27 18:30:00","12.1526","3.57402","26.711","1.966","7.5",null,null,null,null,"30.7403","4.80992","22.2","2","SATNPRO1963","29.592","0.41448","5"],
    [5801,"HCEP03730564","2023-11-27 18:45:00","12.1523","3.57399","26.487","1.975","7.5",null,null,null,null,"30.7403","4.80991","22.31","2","SATNPRO1963","29.646","0.41524","5"],
    [5802,"HCEP03730564","2023-11-27 19:00:00","12.153","3.57413","26.26","1.995","7.5",null,null,null,null,"30.7412","4.81002","22.53","2","SATNPRO1963","29.72","0.41628","5"],
    [5803,"HCEP03730564","2023-11-27 19:15:00","12.1525","3.57409","26.003","1.983","7.51",null,null,null,null,"30.7413","4.81002","22.39","2","SATNPRO1963","29.766000000000002","0.4169","5"],
    [5804,"HCEP03730564","2023-11-27 19:30:00","12.1522","3.57407","25.749","1.934","7.51",null,null,null,null,"30.7414","4.81003","21.84","2","SATNPRO1963","29.812","0.41758","5"],
    [5805,"HCEP03730564","2023-11-27 19:45:00","12.1526","3.57425","25.525","1.921","7.5",null,null,null,null,"30.7429","4.81023","21.69","2","SATNPRO1963","29.688","0.41586","5"],
    [5806,"HCEP03730564","2023-11-27 20:00:00","12.1524","3.57415","25.272","1.913","7.5",null,null,null,null,"30.7423","4.81012","21.6","2","SATNPRO1963","29.66","0.41546","5"],
    [5807,"HCEP03730564","2023-11-27 20:15:00","12.1525","3.57407","25.016","1.912","7.5",null,null,null,null,"30.7415","4.81","21.6","2","SATNPRO1963","29.636","0.4151","5"],
    [5808,"HCEP03730564","2023-11-27 20:30:00","12.1525","3.57392","24.799","1.906","7.5",null,null,null,null,"30.7402","4.8098","21.52","2","SATNPRO1963","29.778000000000002","0.41708","5"],
    [5809,"HCEP03730564","2023-11-27 20:45:00","12.1525","3.57394","24.44","1.912","7.5",null,null,null,null,"30.7405","4.80983","21.59","2","SATNPRO1963","29.740000000000002","0.41658","5"],
    [5810,"HCEP03730564","2023-11-27 21:00:00","12.1522","3.57384","24.228","1.92","7.5",null,null,null,null,"30.7399","4.80973","21.69","2","SATNPRO1963","29.733999999999998","0.41652","5"],
    [5811,"HCEP03730564","2023-11-27 21:15:00","12.1524","3.57382","24.092","1.923","7.5",null,null,null,null,"30.7395","4.80967","21.71","2","SATNPRO1963","29.830000000000002","0.4178","5"],
    [5812,"HCEP03730564","2023-11-27 21:30:00","12.1525","3.57383","23.936","1.929","7.5",null,null,null,null,"30.7396","4.80967","21.78","2","SATNPRO1963","29.61","0.41474","5"],
    [5813,"HCEP03730564","2023-11-27 21:45:00","12.152","3.57375","23.828","1.912","7.5",null,null,null,null,"30.7393","4.80963","21.59","2","SATNPRO1963","29.944","0.41942","5"],
    [5814,"HCEP03730564","2023-11-27 22:00:00","12.1514","3.57369","23.712","1.884","7.5",null,null,null,null,"30.7393","4.80963","21.28","2","SATNPRO1963","29.89","0.4187","5"],
    [5815,"HCEP03730564","2023-11-27 22:15:00","12.151","3.57372","23.686","1.851","7.5",null,null,null,null,"30.74","4.80973","20.9","2","SATNPRO1963","29.754","0.41672","5"],
    [5816,"HCEP03730564","2023-11-27 22:30:00","12.1512","3.57403","23.681","1.803","7.5",null,null,null,null,"30.7427","4.81012","20.36","2","SATNPRO1963","29.924","0.41912","5"],
    [5817,"HCEP03730564","2023-11-27 22:45:00","12.1544","3.57514","23.7","1.871","7.5",null,null,null,null,"30.7506","4.81119","21.13","2","SATNPRO1963","29.632","0.41502","5"],
    [5818,"HCEP03730564","2023-11-27 23:00:00","12.1551","3.57549","23.715","1.94","7.5",null,null,null,null,"30.7535","4.81158","21.91","2","SATNPRO1963","29.5","0.41322","5"],
    [5819,"HCEP03730564","2023-11-27 23:15:00","12.156","3.57569","23.739","1.974","7.5",null,null,null,null,"30.7546","4.81173","22.3","2","SATNPRO1963","29.282","0.41012","5"],
    [5820,"HCEP03730564","2023-11-27 23:30:00","12.1562","3.57591","23.848","1.995","7.51","0.275","4.826","0","0","30.7564","4.81199","22.53","0","SATNPRO1963","29.214","0.40918","5"],
    [5821,"HCEP03730564","2023-11-27 23:45:00","12.1566","3.57603","23.947","1.982","7.51","0.275","4.826","0","0","30.7573","4.81211","22.39","0","SATNPRO1963","30.076","0.4213","5"],
    [5822,"HCEP03730564","2023-11-28 00:00:00","12.1572","3.57619","24.121","1.994","7.51","0.275","4.826","0","0","30.7583","4.81225","22.53","0","SATNPRO1963","30.266000000000002","0.42394","5"],
    [5823,"HCEP03730564","2023-11-28 00:15:00","12.1573","3.57652","24.334","2.032","7.51","0.275","4.826","0","0","30.7613","4.81268","22.95","0","SATNPRO1963","30.605999999999998","0.42868","5"],
    [5824,"HCEP03730564","2023-11-28 00:30:00","12.1563","3.57641","24.504","2.051","7.51","0.275","4.826","0","0","30.7609","4.81266","23.16","0","SATNPRO1963","30.416","0.42604","5"],
    [5825,"HCEP03730564","2023-11-28 00:45:00","12.1568","3.57652","24.689","2.057","7.51","0.275","4.826","0","0","30.7616","4.81275","23.24","0","SATNPRO1963","30.516000000000002","0.42746","5"],
    [5826,"HCEP03730564","2023-11-28 01:00:00","12.1569","3.57651","24.89","2.073","7.52","0.232","4.382","0","0","30.7613","4.81272","23.41","2","SATNPRO1963","30.714","0.43018","5"],
    [5827,"HCEP03730564","2023-11-28 01:15:00","12.1573","3.57648","25.114","2.095","7.52","0.207","3.44","0","0","30.7606","4.81262","23.67","2","SATNPRO1963","30.754","0.4308","5"],
    [5828,"HCEP03730564","2023-11-28 01:30:00","12.1584","3.57654","25.283","2.138","7.52","0.207","3.44","0","0","30.7602","4.81256","24.15","0","SATNPRO1963","30.632","0.42908","5"],
    [5829,"HCEP03730564","2023-11-28 01:45:00","12.1589","3.57657","25.519","2.183","7.52","0.207","3.44","0","0","30.7599","4.81253","24.65","0","SATNPRO1963","30.664","0.4295","5"],
    [5830,"HCEP03730564","2023-11-28 02:00:00","12.1587","3.57662","25.753","2.195","7.53","0.207","3.44","0","0","30.7605","4.81263","24.79","0","SATNPRO1963","30.548","0.42788","5"],
    [5831,"HCEP03730564","2023-11-28 02:15:00","12.1584","3.57659","25.99","2.171","7.53","0.207","3.44","0","0","30.7604","4.81264","24.53","0","SATNPRO1963","30.81","0.43152","5"],
    [5832,"HCEP03730564","2023-11-28 02:30:00","12.1588","3.57662","26.19","2.172","7.53","0.207","3.44","0","0","30.7602","4.81261","24.54","0","SATNPRO1963","31.488","0.44098","5"],
    [5833,"HCEP03730564","2023-11-28 02:45:00","12.1568","3.57648","26.441","2.125","7.53","0.207","3.44","0","0","30.7604","4.81268","24.01","0","SATNPRO1963","31.394000000000002","0.43968","5"],
    [5834,"HCEP03730564","2023-11-28 03:00:00","12.1576","3.57665","26.69","2.117","7.52","0.207","3.44","0","0","30.7613","4.81282","23.92","0","SATNPRO1963","31.454","0.44058","5"],
    [5835,"HCEP03730564","2023-11-28 03:15:00","12.1572","3.57677","26.873","2.143","7.53","0.207","3.44","0","0","30.7627","4.81302","24.2","0","SATNPRO1963","31.102","0.43562","5"],
    [5836,"HCEP03730564","2023-11-28 03:30:00","12.1579","3.5769","27.088","2.13","7.52","0.207","3.44","0","0","30.7633","4.8131","24.06","0","SATNPRO1963","31.274","0.43804","5"],
    [5837,"HCEP03730564","2023-11-28 03:45:00","12.1567","3.57673","27.268","2.07","7.52","0.207","3.44","0","0","30.7626","4.81303","23.38","0","SATNPRO1963","30.582","0.42836","5"],
    [5838,"HCEP03730564","2023-11-28 04:00:00","12.1561","3.57666","27.43","1.981","7.52","0.207","3.44","0","0","30.7623","4.81301","22.38","0","SATNPRO1963","30.746","0.43066","5"],
    [5839,"HCEP03730564","2023-11-28 04:15:00","12.1564","3.57669","27.579","1.939","7.51","0.207","3.44","0","0","30.7624","4.81302","21.91","0","SATNPRO1963","30.902","0.43286","5"],
    [5840,"HCEP03730564","2023-11-28 04:30:00","12.1563","3.57666","27.714","1.891","7.51","0.207","3.44","0","0","30.762","4.81299","21.36","0","SATNPRO1963","30.848","0.43206","5"],
    [5841,"HCEP03730564","2023-11-28 04:45:00","12.156","3.57649","27.835","1.853","7.5","0.207","3.44","0","0","30.7607","4.81281","20.93","0","SATNPRO1963","30.568","0.42816","5"],
    [5842,"HCEP03730564","2023-11-28 05:00:00","12.1557","3.57641","27.935","1.823","7.5","0.207","3.44","0","0","30.76","4.81273","20.6","0","SATNPRO1963","30.21","0.42314","5"],
    [5843,"HCEP03730564","2023-11-28 05:15:00","12.1554","3.57629","27.977","1.799","7.5","0.207","3.44","0","0","30.7591","4.8126","20.32","0","SATNPRO1963","30.22","0.42328","5"],
    [5844,"HCEP03730564","2023-11-28 05:30:00","12.1551","3.57603","28.013","1.786","7.49","0.207","3.44","0","0","30.7569","4.8123","20.17","0","SATNPRO1963","30.124","0.42194","5"],
    [5845,"HCEP03730564","2023-11-28 05:45:00","12.1543","3.57568","28.056","1.762","7.49","0.207","3.44","0","0","30.7542","4.81193","19.9","0","SATNPRO1963","29.98","0.4199","5"],
    [5846,"HCEP03730564","2023-11-28 06:00:00","12.153","3.57523","28.054","1.686","7.49","0.207","3.44","0","0","30.7509","4.81149","19.04","0","SATNPRO1963","29.916","0.41902","5"],
    [5847,"HCEP03730564","2023-11-28 06:15:00","12.1524","3.57496","28.087","1.622","7.48","0.207","3.44","0","0","30.7488","4.8112","18.32","0","SATNPRO1963","30.002","0.42024","5"],
    [5848,"HCEP03730564","2023-11-28 06:30:00","12.1528","3.57508","28.104","1.596","7.48","0.207","3.44","0","0","30.7497","4.81132","18.02","0","SATNPRO1963","29.81","0.41756","5"],
    [5849,"HCEP03730564","2023-11-28 06:45:00","12.1529","3.5751","28.083","1.602","7.48","0.207","3.44","0","0","30.7498","4.81133","18.1","0","SATNPRO1963","29.674","0.41564","5"],
    [5850,"HCEP03730564","2023-11-28 07:00:00","12.1526","3.57479","28.058","1.598","7.48","0.207","3.44","0","0","30.7471","4.81096","18.05","0","SATNPRO1963","29.259999999999998","0.40982","5"],
    [5851,"HCEP03730564","2023-11-28 07:15:00","12.1528","3.5749","28.03","1.593","7.48","0.207","3.44","0","0","30.748","4.81108","17.99","0","SATNPRO1963","29.122","0.4079","5"],
    [5852,"HCEP03730564","2023-11-28 07:30:00","12.1533","3.57471","27.946","1.614","7.48","0.207","3.44","0","0","30.7458","4.81075","18.23","0","SATNPRO1963","29.073999999999998","0.4072","5"],
    [5853,"HCEP03730564","2023-11-28 07:45:00","12.1532","3.57485","27.891","1.626","7.48","0.207","3.44","0","0","30.7472","4.81095","18.37","0","SATNPRO1963","29.136","0.4081","5"],
    [5854,"HCEP03730564","2023-11-28 08:00:00","12.1538","3.57503","27.822","1.642","7.48","0.207","3.44","0","0","30.7485","4.81112","18.54","0","SATNPRO1963","29.47","0.41278","5"],
    [5855,"HCEP03730564","2023-11-28 08:15:00","12.1542","3.57489","27.741","1.718","7.48","0.207","3.44","0","0","30.7468","4.81088","19.41","0","SATNPRO1963","29.372","0.4114","5"],
    [5856,"HCEP03730564","2023-11-28 08:30:00","12.1539","3.57503","27.652","1.699","7.48","0.207","3.44","0","0","30.7485","4.81111","19.19","0","SATNPRO1963","29.718","0.41626","5"],
    [5857,"HCEP03730564","2023-11-28 08:45:00","12.1538","3.57493","27.552","1.663","7.48","0.207","3.44","0","0","30.7477","4.81099","18.78","0","SATNPRO1963","29.53","0.41362","5"],
    [5858,"HCEP03730564","2023-11-28 09:00:00","12.1542","3.57484","27.49","1.686","7.48","0.207","3.44","0","0","30.7465","4.81082","19.05","0","SATNPRO1963","29.868","0.4183","5"],
    [5859,"HCEP03730564","2023-11-28 09:15:00","12.1543","3.57476","27.418","1.706","7.48","0.207","3.44","0","0","30.7456","4.81069","19.26","0","SATNPRO1963","29.936","0.4193","5"],
    [5860,"HCEP03730564","2023-11-28 09:30:00","12.1545","3.57488","27.331","1.705","7.48","0.207","3.44","0","0","30.7467","4.81082","19.26","0","SATNPRO1963","30.216","0.42324","5"],
    [5861,"HCEP03730564","2023-11-28 09:45:00","12.1542","3.57518","27.231","1.645","7.48","0.207","3.44","0","0","30.7498","4.81126","18.58","0","SATNPRO1963","29.948","0.4195","5"],
    [5862,"HCEP03730564","2023-11-28 10:00:00","12.1539","3.57533","27.124","1.542","7.48","0.207","3.44","0","0","30.7516","4.81151","17.42","0","SATNPRO1963","30.25","0.42372","5"],
    [5863,"HCEP03730564","2023-11-28 10:15:00","12.1534","3.5753","27.033","1.463","7.47","0.207","3.44","0","0","30.7517","4.81154","16.52","0","SATNPRO1963","30.03","0.42064","5"],
    [5864,"HCEP03730564","2023-11-28 10:30:00","12.153","3.57526","26.958","1.403","7.46","0.207","3.44","0","0","30.7517","4.81153","15.84","0","SATNPRO1963","30.038","0.42068","5"],
    [5865,"HCEP03730564","2023-11-28 10:45:00","12.1524","3.5751","26.88","1.336","7.46","0.207","3.44","0","0","30.7507","4.8114","15.09","0","SATNPRO1963","29.81","0.41754","5"],
    [5866,"HCEP03730564","2023-11-28 11:00:00","12.1517","3.57494","26.819","1.278","7.46","0.207","3.44","0","0","30.7498","4.81128","14.44","0","SATNPRO1963","29.506","0.41328","5"],
    [5867,"HCEP03730564","2023-11-28 11:15:00","12.1519","3.57499","26.795","1.262","7.45","0.207","3.44","0","0","30.7501","4.81131","14.25","0","SATNPRO1963","29.474","0.41286","5"],
    [5868,"HCEP03730564","2023-11-28 11:30:00","12.1515","3.57486","26.782","1.258","7.45","0.207","3.44","0","0","30.7492","4.81119","14.21","0","SATNPRO1963","28.934","0.40528","5"],
    [5869,"HCEP03730564","2023-11-28 11:45:00","12.1514","3.57495","26.789","1.253","7.45","0.207","3.44","0","0","30.7501","4.81132","14.15","0","SATNPRO1963","28.82","0.40366","5"],
    [5870,"HCEP03730564","2023-11-28 12:00:00","12.1515","3.57501","26.822","1.244","7.45","0.207","3.44","0","0","30.7506","4.8114","14.05","0","SATNPRO1963","28.592","0.40046","5"],
    [5871,"HCEP03730564","2023-11-28 12:15:00","12.1518","3.57506","26.841","1.254","7.45","0.207","3.44","0","0","30.7508","4.81142","14.16","0","SATNPRO1963","28.742","0.4026","5"],
    [5872,"HCEP03730564","2023-11-28 12:30:00","12.1522","3.57522","26.882","1.275","7.45","0.207","3.44","0","0","30.752","4.81158","14.4","0","SATNPRO1963","28.452","0.39848","5"],
    [5873,"HCEP03730564","2023-11-28 12:45:00","12.152","3.57522","26.926","1.28","7.45","0.207","3.44","0","0","30.7521","4.81161","14.45","0","SATNPRO1963","28.67","0.40152","5"],
    [5874,"HCEP03730564","2023-11-28 13:00:00","12.1524","3.57523","26.982","1.273","7.45","0.207","3.44","0","0","30.752","4.81158","14.38","0","SATNPRO1963","28.534","0.39964","5"],
    [5875,"HCEP03730564","2023-11-28 13:15:00","12.152","3.57526","27.05","1.27","7.45","0.207","3.44","0","0","30.7525","4.81167","14.34","0","SATNPRO1963","28.712","0.40218","5"],
    [5876,"HCEP03730564","2023-11-28 13:30:00","12.1519","3.57533","27.116","1.259","7.45","0.207","3.44","0","0","30.7533","4.81178","14.22","0","SATNPRO1963","28.855999999999998","0.4042","5"],
    [5877,"HCEP03730564","2023-11-28 13:45:00","12.1518","3.57534","27.186","1.258","7.45","0.207","3.44","0","0","30.7533","4.81179","14.21","0","SATNPRO1963","28.746","0.40268","5"],
    [5878,"HCEP03730564","2023-11-28 14:00:00","12.1518","3.57537","27.265","1.254","7.45","0.207","3.44","0","0","30.7536","4.81184","14.16","0","SATNPRO1963","28.796","0.40338","5"],
    [5879,"HCEP03730564","2023-11-28 14:15:00","12.1519","3.57544","27.337","1.265","7.45","0.207","3.44","0","0","30.7541","4.81191","14.28","0","SATNPRO1963","28.758","0.4028","5"],
    [5880,"HCEP03730564","2023-11-28 14:30:00","12.1525","3.57552","27.409","1.3","7.45","0.207","3.44","0","0","30.7545","4.81195","14.68","0","SATNPRO1963","28.558","0.4","5"],
    [5881,"HCEP03730564","2023-11-28 14:45:00","12.1535","3.57559","27.471","1.352","7.45",null,null,null,null,"30.7543","4.81192","15.26","2","SATNPRO1963","28.514","0.3994","5"],
    [5882,"HCEP03730564","2023-11-28 15:00:00","12.1536","3.57549","27.532","1.432","7.46","0.207","3.44","0","0","30.7532","4.81177","16.17","0","SATNPRO1963","28.628","0.40098","5"],
    [5883,"HCEP03730564","2023-11-28 15:15:00","12.1531","3.57533","27.593","1.496","7.46",null,null,null,null,"30.752","4.81161","16.9","2","SATNPRO1963","28.84","0.40394","5"],
    [5884,"HCEP03730564","2023-11-28 15:30:00","12.1531","3.57522","27.649","1.536","7.47",null,null,null,null,"30.751","4.81147","17.34","2","SATNPRO1963","29.232","0.40944","5"],
    [5885,"HCEP03730564","2023-11-28 15:45:00","12.1526","3.57537","27.693","1.556","7.47","0.207","3.44","0","0","30.7528","4.81173","17.58","0","SATNPRO1963","29.18","0.40868","5"],
    [5886,"HCEP03730564","2023-11-28 16:00:00","12.1527","3.57552","27.734","1.552","7.47",null,null,null,null,"30.7542","4.81193","17.53","2","SATNPRO1963","29.75","0.4167","5"],
    [5887,"HCEP03730564","2023-11-28 16:15:00","12.1528","3.57566","27.754","1.544","7.47",null,null,null,null,"30.7554","4.8121","17.44","2","SATNPRO1963","29.52","0.41346","5"],
    [5888,"HCEP03730564","2023-11-28 16:30:00","12.1529","3.57588","27.78","1.54","7.47",null,null,null,null,"30.7574","4.81239","17.39","2","SATNPRO1963","29.31","0.41056","5"],
    [5889,"HCEP03730564","2023-11-28 16:45:00","12.1528","3.57591","27.782","1.545","7.47","0.207","3.44","0","0","30.7578","4.81244","17.44","0","SATNPRO1963","29.504","0.41322","5"],
    [5890,"HCEP03730564","2023-11-28 17:00:00","12.1529","3.57593","27.759","1.556","7.47",null,null,null,null,"30.7578","4.81245","17.57","2","SATNPRO1963","29.346","0.41102","5"],
    [5891,"HCEP03730564","2023-11-28 17:15:00","12.1534","3.57596","27.711","1.578","7.47",null,null,null,null,"30.7577","4.81242","17.82","2","SATNPRO1963","29.466","0.4127","5"],
    [5892,"HCEP03730564","2023-11-28 17:30:00","12.1528","3.5758","27.655","1.592","7.47",null,null,null,null,"30.7568","4.81229","17.98","2","SATNPRO1963","29.402","0.41184","5"],
    [5893,"HCEP03730564","2023-11-28 17:45:00","12.1528","3.57569","27.575","1.595","7.47",null,null,null,null,"30.7557","4.81214","18.02","2","SATNPRO1963","29.604","0.41462","5"],
    [5894,"HCEP03730564","2023-11-28 18:00:00","12.1528","3.57565","27.465","1.638","7.47",null,null,null,null,"30.7554","4.81208","18.49","2","SATNPRO1963","29.48","0.41292","5"],
    [5895,"HCEP03730564","2023-11-28 18:15:00","12.1534","3.57569","27.332","1.669","7.48",null,null,null,null,"30.7553","4.81206","18.85","2","SATNPRO1963","29.516000000000002","0.41342","5"],
    [5896,"HCEP03730564","2023-11-28 18:30:00","12.153","3.57558","27.195","1.699","7.48",null,null,null,null,"30.7546","4.81196","19.19","2","SATNPRO1963","29.584","0.4144","5"],
    [5897,"HCEP03730564","2023-11-28 18:45:00","12.1543","3.57556","27.017","1.798","7.48",null,null,null,null,"30.7534","4.81176","20.31","2","SATNPRO1963","29.64","0.41518","5"],
    [5898,"HCEP03730564","2023-11-28 19:00:00","12.1539","3.57551","26.826","1.83","7.49",null,null,null,null,"30.7534","4.81176","20.67","2","SATNPRO1963","29.34","0.41096","5"],
    [5899,"HCEP03730564","2023-11-28 19:15:00","12.1532","3.5754","26.615","1.81","7.49",null,null,null,null,"30.7531","4.81171","20.44","2","SATNPRO1963","30.03","0.4206","5"],
    [5900,"HCEP03730564","2023-11-28 19:30:00","12.1526","3.57525","26.398","1.782","7.49",null,null,null,null,"30.7522","4.81157","20.13","2","SATNPRO1963","29.848","0.41806","5"],
    [5901,"HCEP03730564","2023-11-28 19:45:00","12.1526","3.57515","26.166","1.777","7.49",null,null,null,null,"30.7512","4.81143","20.07","2","SATNPRO1963","30.286","0.4242","5"],
    [5902,"HCEP03730564","2023-11-28 20:00:00","12.1523","3.57501","25.927","1.761","7.49",null,null,null,null,"30.7503","4.81128","19.88","2","SATNPRO1963","29.254","0.40976","5"],
    [5903,"HCEP03730564","2023-11-28 20:15:00","12.1524","3.57493","25.662","1.764","7.49",null,null,null,null,"30.7495","4.81117","19.92","2","SATNPRO1963","29.89","0.41866","5"],
    [5904,"HCEP03730564","2023-11-28 20:30:00","12.1524","3.57485","25.421","1.773","7.49",null,null,null,null,"30.7488","4.81106","20.02","2","SATNPRO1963","29.636","0.41508","5"],
    [5905,"HCEP03730564","2023-11-28 20:45:00","12.1522","3.57474","25.193","1.782","7.49",null,null,null,null,"30.748","4.81093","20.12","2","SATNPRO1963","29.67","0.41554","5"],
    [5906,"HCEP03730564","2023-11-28 21:00:00","12.1521","3.57458","24.955","1.784","7.49",null,null,null,null,"30.7467","4.81073","20.15","2","SATNPRO1963","29.366","0.41128","5"],
    [5907,"HCEP03730564","2023-11-28 21:15:00","12.1512","3.57413","24.724","1.794","7.49",null,null,null,null,"30.7432","4.81024","20.26","2","SATNPRO1963","29.662","0.41548","5"],
    [5908,"HCEP03730564","2023-11-28 21:30:00","12.1506","3.57391","24.467","1.853","7.49",null,null,null,null,"30.7418","4.81003","20.93","2","SATNPRO1963","29.518","0.41346","5"],
    [5909,"HCEP03730564","2023-11-28 21:45:00","12.1507","3.57378","24.159","1.894","7.5",null,null,null,null,"30.7405","4.80984","21.39","2","SATNPRO1963","29.672","0.4156","5"],
    [5910,"HCEP03730564","2023-11-28 22:00:00","12.1501","3.57374","23.928","1.909","7.5",null,null,null,null,"30.7408","4.80987","21.56","2","SATNPRO1963","29.61","0.41476","5"],
    [5911,"HCEP03730564","2023-11-28 22:15:00","12.1519","3.57404","23.777","1.969","7.5",null,null,null,null,"30.7422","4.81003","22.24","2","SATNPRO1963","29.631999999999998","0.41502","5"],
    [5912,"HCEP03730564","2023-11-28 22:30:00","12.1517","3.57404","23.796","1.988","7.51",null,null,null,null,"30.7424","4.81007","22.45","2","SATNPRO1963","29.68","0.41572","5"],
    [5913,"HCEP03730564","2023-11-28 22:45:00","12.1517","3.57396","23.751","1.996","7.51",null,null,null,null,"30.7416","4.80996","22.54","2","SATNPRO1963","29.71","0.41612","5"],
    [5914,"HCEP03730564","2023-11-28 23:00:00","12.1512","3.57374","23.729","2.014","7.51",null,null,null,null,"30.7399","4.80972","22.74","2","SATNPRO1963","29.566","0.41412","5"],
    [5915,"HCEP03730564","2023-11-28 23:15:00","12.152","3.57394","23.683","2.026","7.51",null,null,null,null,"30.7412","4.80989","22.88","2","SATNPRO1963","30.098","0.42152","5"],
    [5916,"HCEP03730564","2023-11-28 23:30:00","12.1522","3.57419","23.658","2.023","7.51",null,null,null,null,"30.7434","4.8102","22.84","2","SATNPRO1963","30.172","0.42258","5"],
    [5917,"HCEP03730564","2023-11-28 23:45:00","12.1526","3.57421","23.686","2.004","7.51",null,null,null,null,"30.7433","4.81017","22.63","2","SATNPRO1963","30.05","0.4209","5"],
    [5918,"HCEP03730564","2023-11-29 00:00:00","12.1507","3.57429","23.755","1.85","7.51",null,null,null,null,"30.7456","4.81053","20.89","2","SATNPRO1963","29.798000000000002","0.41734","5"],
    [5919,"HCEP03730564","2023-11-29 00:15:00","12.15","3.57452","23.865","1.704","7.5",null,null,null,null,"30.7483","4.81093","19.25","2","SATNPRO1963","30.108","0.42168","5"],
    [5920,"HCEP03730564","2023-11-29 00:30:00","12.1506","3.57453","24.009","1.719","7.49",null,null,null,null,"30.7479","4.81087","19.41","2","SATNPRO1963","30.084","0.42138","5"],
    [5921,"HCEP03730564","2023-11-29 00:45:00","12.1512","3.57464","24.17","1.782","7.49",null,null,null,null,"30.7483","4.81093","20.13","2","SATNPRO1963","30.284","0.42418","5"],
    [5922,"HCEP03730564","2023-11-29 01:00:00","12.152","3.57472","24.347","1.835","7.49",null,null,null,null,"30.7484","4.81094","20.73","2","SATNPRO1963","29.548","0.41388","5"],
    [5923,"HCEP03730564","2023-11-29 01:15:00","12.1514","3.57458","24.539","1.875","7.5",null,null,null,null,"30.7474","4.81082","21.17","2","SATNPRO1963","28.604","0.40064","5"],
    [5924,"HCEP03730564","2023-11-29 01:30:00","12.1517","3.57442","24.733","1.912","7.5",null,null,null,null,"30.7456","4.81057","21.59","2","SATNPRO1963","29.2","0.40902","5"],
    [5925,"HCEP03730564","2023-11-29 01:45:00","12.1501","3.57419","24.924","1.87","7.5",null,null,null,null,"30.7447","4.81048","21.12","2","SATNPRO1963","29.34","0.41092","5"],
    [5926,"HCEP03730564","2023-11-29 02:00:00","12.1495","3.57385","25.151","1.901","7.5",null,null,null,null,"30.7418","4.8101","21.46","2","SATNPRO1963","30.012","0.4204","5"],
    [5927,"HCEP03730564","2023-11-29 02:15:00","12.1491","3.57365","25.341","1.941","7.5",null,null,null,null,"30.7402","4.80988","21.92","2","SATNPRO1963","29.796","0.41736","5"],
    [5928,"HCEP03730564","2023-11-29 02:30:00","12.149","3.57344","25.549","1.987","7.51",null,null,null,null,"30.7382","4.80961","22.44","2","SATNPRO1963","30.16","0.42244","5"],
    [5929,"HCEP03730564","2023-11-29 02:45:00","12.1486","3.57321","25.791","2.028","7.51",null,null,null,null,"30.7362","4.80935","22.9","2","SATNPRO1963","29.466","0.41272","5"],
    [5930,"HCEP03730564","2023-11-29 03:00:00","12.1484","3.57299","25.979","2.049","7.51",null,null,null,null,"30.7342","4.80908","23.13","2","SATNPRO1963","29.48","0.41294","5"],
    [5931,"HCEP03730564","2023-11-29 03:15:00","12.1483","3.57289","26.24","2.061","7.51",null,null,null,null,"30.7332","4.80895","23.27","2","SATNPRO1963","29.428","0.4122","5"],
    [5932,"HCEP03730564","2023-11-29 03:30:00","12.1483","3.57274","26.468","2.073","7.52",null,null,null,null,"30.7317","4.80875","23.41","2","SATNPRO1963","29.512","0.41338","5"],
    [5933,"HCEP03730564","2023-11-29 03:45:00","12.1482","3.57286","26.695","2.077","7.52",null,null,null,null,"30.7328","4.80892","23.45","2","SATNPRO1963","29.536","0.4137","5"],
    [5934,"HCEP03730564","2023-11-29 04:00:00","12.1489","3.57323","26.9","2.069","7.52",null,null,null,null,"30.7358","4.80934","23.37","2","SATNPRO1963","29.572","0.41422","5"],
    [5935,"HCEP03730564","2023-11-29 04:15:00","12.1495","3.57362","27.091","2.046","7.51",null,null,null,null,"30.7389","4.80979","23.1","2","SATNPRO1963","29.605999999999998","0.41468","5"],
    [5936,"HCEP03730564","2023-11-29 04:30:00","12.1501","3.57416","27.295","1.982","7.51",null,null,null,null,"30.7435","4.81043","22.38","2","SATNPRO1963","29.48","0.41296","5"],
    [5937,"HCEP03730564","2023-11-29 04:45:00","12.1509","3.57455","27.459","1.896","7.51",null,null,null,null,"30.7465","4.81086","21.42","2","SATNPRO1963","29.576","0.41428","5"],
    [5938,"HCEP03730564","2023-11-29 05:00:00","12.1516","3.57496","27.594","1.841","7.5",null,null,null,null,"30.7497","4.8113","20.79","2","SATNPRO1963","29.778000000000002","0.41712","5"],
    [5939,"HCEP03730564","2023-11-29 05:15:00","12.1523","3.57503","27.726","1.819","7.5",null,null,null,null,"30.7498","4.81132","20.54","2","SATNPRO1963","29.762","0.4169","5"],
    [5940,"HCEP03730564","2023-11-29 05:30:00","12.1523","3.57551","27.851","1.772","7.49",null,null,null,null,"30.7543","4.81196","20.01","2","SATNPRO1963","29.504","0.41322","5"],
    [5941,"HCEP03730564","2023-11-29 05:45:00","12.153","3.57584","27.957","1.738","7.49",null,null,null,null,"30.7569","4.81233","19.63","2","SATNPRO1963","29.227999999999998","0.40936","5"],
    [5942,"HCEP03730564","2023-11-29 06:00:00","12.1525","3.57576","28.022","1.736","7.49",null,null,null,null,"30.7564","4.81227","19.6","2","SATNPRO1963","29.438","0.41234","5"],
    [5943,"HCEP03730564","2023-11-29 06:15:00","12.1519","3.57563","28.063","1.704","7.49",null,null,null,null,"30.7557","4.81218","19.25","2","SATNPRO1963","29.638","0.4151","5"],
    [5944,"HCEP03730564","2023-11-29 06:30:00","12.1522","3.57544","28.102","1.705","7.49",null,null,null,null,"30.7536","4.81187","19.25","2","SATNPRO1963","29.794","0.41736","5"],
    [5945,"HCEP03730564","2023-11-29 06:45:00","12.1524","3.5753","28.099","1.726","7.49",null,null,null,null,"30.7521","4.81167","19.5","2","SATNPRO1963","29.998","0.4202","5"],
    [5946,"HCEP03730564","2023-11-29 07:00:00","12.1516","3.57512","28.13","1.714","7.49",null,null,null,null,"30.751","4.81152","19.36","2","SATNPRO1963","29.712","0.41618","5"],
    [5947,"HCEP03730564","2023-11-29 07:15:00","12.1515","3.57494","28.109","1.686","7.49",null,null,null,null,"30.7494","4.8113","19.05","2","SATNPRO1963","29.84","0.41794","5"],
    [5948,"HCEP03730564","2023-11-29 07:30:00","12.1512","3.57454","28.109","1.734","7.49",null,null,null,null,"30.7458","4.8108","19.59","2","SATNPRO1963","29.706","0.4161","5"],
    [5949,"HCEP03730564","2023-11-29 07:45:00","12.1514","3.57387","28.085","1.878","7.49",null,null,null,null,"30.7393","4.80986","21.21","2","SATNPRO1963","29.68","0.41568","5"],
    [5950,"HCEP03730564","2023-11-29 08:00:00","12.1505","3.57351","28.054","1.955","7.5",null,null,null,null,"30.7367","4.80951","22.08","2","SATNPRO1963","29.434","0.4123","5"],
    [5951,"HCEP03730564","2023-11-29 08:15:00","12.1503","3.57352","27.999","1.935","7.51",null,null,null,null,"30.737","4.80955","21.85","2","SATNPRO1963","29.5","0.4132","5"],
    [5952,"HCEP03730564","2023-11-29 08:30:00","12.1499","3.57352","27.907","1.854","7.51",null,null,null,null,"30.7373","4.8096","20.94","2","SATNPRO1963","29.538","0.41372","5"],
    [5953,"HCEP03730564","2023-11-29 08:45:00","12.1496","3.57379","27.836","1.754","7.5",null,null,null,null,"30.7402","4.81","19.8","2","SATNPRO1963","29.996","0.42012","5"],
    [5954,"HCEP03730564","2023-11-29 09:00:00","12.15","3.57398","27.779","1.666","7.49",null,null,null,null,"30.7417","4.81021","18.82","2","SATNPRO1963","29.774","0.41706","5"],
    [5955,"HCEP03730564","2023-11-29 09:15:00","12.1496","3.57393","27.675","1.63","7.49",null,null,null,null,"30.7415","4.81019","18.41","2","SATNPRO1963","29.71","0.41612","5"],
    [5956,"HCEP03730564","2023-11-29 09:30:00","12.1501","3.57431","27.582","1.586","7.48",null,null,null,null,"30.7448","4.81064","17.91","2","SATNPRO1963","29.31","0.41054","5"],
    [5957,"HCEP03730564","2023-11-29 09:45:00","12.1512","3.57449","27.487","1.595","7.48",null,null,null,null,"30.7457","4.81074","18.01","2","SATNPRO1963","29.248","0.40964","5"],
    [5958,"HCEP03730564","2023-11-29 10:00:00","12.1517","3.57457","27.44","1.611","7.48",null,null,null,null,"30.746","4.81077","18.2","2","SATNPRO1963","29.242","0.4096","5"],
    [5959,"HCEP03730564","2023-11-29 10:15:00","12.1516","3.5743","27.331","1.618","7.48",null,null,null,null,"30.7435","4.81041","18.27","2","SATNPRO1963","29.178","0.4087","5"],
    [5960,"HCEP03730564","2023-11-29 10:30:00","12.1512","3.57431","27.253","1.594","7.48",null,null,null,null,"30.744","4.81049","18","2","SATNPRO1963","29.166","0.40854","5"],
    [5961,"HCEP03730564","2023-11-29 10:45:00","12.1507","3.57408","27.128","1.543","7.48",null,null,null,null,"30.7423","4.81025","17.42","2","SATNPRO1963","29.285999999999998","0.41022","5"],
    [5962,"HCEP03730564","2023-11-29 11:00:00","12.1503","3.57391","27.05","1.505","7.48",null,null,null,null,"30.741","4.81007","17","2","SATNPRO1963","29.426","0.41216","5"],
    [5963,"HCEP03730564","2023-11-29 11:15:00","12.1497","3.57372","26.969","1.478","7.47",null,null,null,null,"30.7397","4.80989","16.69","2","SATNPRO1963","29.648","0.4153","5"],
    [5964,"HCEP03730564","2023-11-29 11:30:00","12.1493","3.57366","26.938","1.446","7.47",null,null,null,null,"30.7395","4.80986","16.33","2","SATNPRO1963","29.482","0.41292","5"],
    [5965,"HCEP03730564","2023-11-29 11:45:00","12.1491","3.57339","26.89","1.432","7.47",null,null,null,null,"30.7371","4.80953","16.17","2","SATNPRO1963","29.378","0.41152","5"],
    [5966,"HCEP03730564","2023-11-29 12:00:00","12.1489","3.57353","26.844","1.41","7.46",null,null,null,null,"30.7386","4.80974","15.93","2","SATNPRO1963","29.128","0.40798","5"],
    [5967,"HCEP03730564","2023-11-29 12:15:00","12.1488","3.57372","26.827","1.351","7.46",null,null,null,null,"30.7405","4.81001","15.25","2","SATNPRO1963","29.612","0.41472","5"],
    [5968,"HCEP03730564","2023-11-29 12:30:00","12.1482","3.57362","26.829","1.281","7.46",null,null,null,null,"30.74","4.80995","14.47","2","SATNPRO1963","29.15","0.4083","5"],
    [5969,"HCEP03730564","2023-11-29 12:45:00","12.1479","3.57336","26.831","1.227","7.45",null,null,null,null,"30.7379","4.80965","13.86","2","SATNPRO1963","29.236","0.40948","5"],
    [5970,"HCEP03730564","2023-11-29 13:00:00","12.1471","3.57324","26.856","1.178","7.45",null,null,null,null,"30.7373","4.80958","13.3","2","SATNPRO1963","29.054000000000002","0.40698","5"],
    [5971,"HCEP03730564","2023-11-29 13:15:00","12.1465","3.57299","26.879","1.126","7.44",null,null,null,null,"30.7354","4.80932","12.72","2","SATNPRO1963","28.82","0.4037","5"],
    [5972,"HCEP03730564","2023-11-29 13:30:00","12.1463","3.57302","26.916","1.099","7.44",null,null,null,null,"30.7358","4.80938","12.41","2","SATNPRO1963","28.82","0.40368","5"],
    [5973,"HCEP03730564","2023-11-29 13:45:00","12.1459","3.57292","26.966","1.068","7.44",null,null,null,null,"30.7351","4.8093","12.06","2","SATNPRO1963","28.686","0.4018","5"],
    [5974,"HCEP03730564","2023-11-29 14:00:00","12.1455","3.57277","27.026","1.034","7.44",null,null,null,null,"30.7341","4.80916","11.68","2","SATNPRO1963","28.526","0.39958","5"],
    [5975,"HCEP03730564","2023-11-29 14:15:00","12.1454","3.57271","27.089","1.008","7.43",null,null,null,null,"30.7335","4.80909","11.38","2","SATNPRO1963","28.368","0.39738","5"],
    [5976,"HCEP03730564","2023-11-29 14:30:00","12.1453","3.57264","27.151","0.993","7.43",null,null,null,null,"30.7329","4.809","11.22","2","SATNPRO1963","28.576","0.40028","5"],
    [5977,"HCEP03730564","2023-11-29 14:45:00","12.1453","3.57258","27.208","0.988","7.43",null,null,null,null,"30.7323","4.80893","11.15","2","SATNPRO1963","28.408","0.3979","5"],
    [5978,"HCEP03730564","2023-11-29 15:00:00","12.1451","3.57258","27.263","0.985","7.43",null,null,null,null,"30.7325","4.80895","11.12","2","SATNPRO1963","28.134","0.39408","5"],
    [5979,"HCEP03730564","2023-11-29 15:15:00","12.1449","3.57257","27.313","0.969","7.43",null,null,null,null,"30.7325","4.80896","10.94","2","SATNPRO1963","28.240000000000002","0.39558","5"],
    [5980,"HCEP03730564","2023-11-29 15:30:00","12.1455","3.57262","27.364","0.971","7.43",null,null,null,null,"30.7325","4.80895","10.96","2","SATNPRO1963","28.116","0.39384","5"],
    [5981,"HCEP03730564","2023-11-29 15:45:00","12.1455","3.57267","27.413","0.98","7.43",null,null,null,null,"30.7329","4.80902","11.06","2","SATNPRO1963","28.012","0.39238","5"],
    [5982,"HCEP03730564","2023-11-29 16:00:00","12.1454","3.57271","27.456","0.988","7.43",null,null,null,null,"30.7334","4.80909","11.16","2","SATNPRO1963","27.934","0.39126","5"],
    [5983,"HCEP03730564","2023-11-29 16:15:00","12.1456","3.57277","27.494","0.999","7.43",null,null,null,null,"30.7338","4.80914","11.28","2","SATNPRO1963","27.68","0.38772","5"],
    [5984,"HCEP03730564","2023-11-29 16:30:00","12.1457","3.57283","27.523","1.017","7.43",null,null,null,null,"30.7343","4.80921","11.48","2","SATNPRO1963","28.396","0.39774","5"],
    [5985,"HCEP03730564","2023-11-29 16:45:00","12.1455","3.57288","27.549","1.036","7.43",null,null,null,null,"30.7349","4.80931","11.7","2","SATNPRO1963","28.04","0.39276","5"],
    [5986,"HCEP03730564","2023-11-29 17:00:00","12.146","3.57298","27.568","1.08","7.43",null,null,null,null,"30.7354","4.80937","12.19","2","SATNPRO1963","28.236","0.3955","5"],
    [5987,"HCEP03730564","2023-11-29 17:15:00","12.1459","3.573","27.568","1.106","7.43",null,null,null,null,"30.7357","4.80942","12.49","2","SATNPRO1963","28.164","0.39448","5"],
    [5988,"HCEP03730564","2023-11-29 17:30:00","12.1463","3.57318","27.551","1.14","7.44",null,null,null,null,"30.7371","4.8096","12.88","2","SATNPRO1963","28.258","0.39582","5"],
    [5989,"HCEP03730564","2023-11-29 17:45:00","12.1458","3.57313","27.526","1.165","7.44","0.207","3.44","0","0","30.7371","4.8096","13.15","0","SATNPRO1963","28.238","0.39552","5"],
    [5990,"HCEP03730564","2023-11-29 18:00:00","12.1462","3.57321","27.497","1.165","7.44","0.207","3.44","0","0","30.7375","4.80966","13.15","0","SATNPRO1963","28.348","0.39708","5"],
    [5991,"HCEP03730564","2023-11-29 18:15:00","12.1461","3.57318","27.447","1.174","7.44","0.207","3.44","0","0","30.7373","4.80963","13.25","0","SATNPRO1963","28.514","0.39938","5"],
    [5992,"HCEP03730564","2023-11-29 18:30:00","12.1461","3.57328","27.367","1.18","7.44","0.232","3.804","0","0.11","30.7383","4.80976","13.32","2","SATNPRO1963","28.454","0.39852","5"],
    [5993,"HCEP03730564","2023-11-29 18:45:00","12.1471","3.57348","27.264","1.225","7.44","0.241","3.326","0","0","30.7394","4.80991","13.83","2","SATNPRO1963","28.080000000000002","0.39334","5"],
    [5994,"HCEP03730564","2023-11-29 19:00:00","12.1469","3.57357","27.146","1.24","7.44","0.232","3.536","0","0","30.7404","4.81004","14","2","SATNPRO1963","28.058","0.39302","5"],
    [5995,"HCEP03730564","2023-11-29 19:15:00","12.1475","3.5736","27.014","1.263","7.45","0.232","3.536","0","0","30.7404","4.81002","14.26","0","SATNPRO1963","28.34","0.39696","5"],
    [5996,"HCEP03730564","2023-11-29 19:30:00","12.1484","3.57376","26.835","1.312","7.45","0.232","3.536","0","0","30.7412","4.81012","14.81","0","SATNPRO1963","28.298","0.39632","5"],
    [5997,"HCEP03730564","2023-11-29 19:45:00","12.1483","3.57374","26.663","1.362","7.45","0.232","3.536","0","0","30.7412","4.8101","15.38","0","SATNPRO1963","28.152","0.39432","5"],
    [5998,"HCEP03730564","2023-11-29 20:00:00","12.1486","3.57377","26.469","1.394","7.46","0.232","3.536","0","0","30.7413","4.8101","15.74","0","SATNPRO1963","28.61","0.40072","5"],
    [5999,"HCEP03730564","2023-11-29 20:15:00","12.1499","3.57369","26.276","1.464","7.46","0.232","3.536","0","0","30.7395","4.80982","16.53","0","SATNPRO1963","28.66","0.40142","5"],
    [6000,"HCEP03730564","2023-11-29 20:30:00","12.1486","3.57372","26.069","1.46","7.47","0.232","3.536","0","0","30.7409","4.81003","16.48","0","SATNPRO1963","29.034","0.4067","5"],
    [6001,"HCEP03730564","2023-11-29 20:45:00","12.1491","3.5737","25.851","1.429","7.46","0.232","3.536","0","0","30.7405","4.80994","16.13","0","SATNPRO1963","29.076","0.40724","5"],
    [6002,"HCEP03730564","2023-11-29 21:00:00","12.1489","3.57368","25.598","1.427","7.46","0.232","3.536","0","0","30.7405","4.80994","16.11","0","SATNPRO1963","29.308","0.4105","5"],
    [6003,"HCEP03730564","2023-11-29 21:15:00","12.1495","3.57363","25.365","1.461","7.46","0.232","3.536","0","0","30.7397","4.80981","16.5","0","SATNPRO1963","29.688","0.41584","5"],
    [6004,"HCEP03730564","2023-11-29 21:30:00","12.1485","3.57361","25.146","1.416","7.46","0.232","3.536","0","0","30.7404","4.8099","15.99","0","SATNPRO1963","29.308","0.41048","5"],
    [6005,"HCEP03730564","2023-11-29 21:45:00","12.1476","3.57355","24.938","1.327","7.46","0.232","3.536","0","0","30.7406","4.80994","14.98","0","SATNPRO1963","29.428","0.4122","5"],
    [6006,"HCEP03730564","2023-11-29 22:00:00","12.1477","3.57351","24.711","1.287","7.46","0.232","3.536","0","0","30.7402","4.80987","14.53","0","SATNPRO1963","29.48","0.41292","5"],
    [6007,"HCEP03730564","2023-11-29 22:15:00","12.1465","3.57342","24.501","1.252","7.45","0.232","3.536","0","0","30.7405","4.80991","14.13","0","SATNPRO1963","29.692","0.41588","5"],
    [6008,"HCEP03730564","2023-11-29 22:30:00","12.1465","3.57341","24.33","1.257","7.45","0.232","3.536","0","0","30.7405","4.8099","14.19","0","SATNPRO1963","29.632","0.41502","5"],
    [6009,"HCEP03730564","2023-11-29 22:45:00","12.1475","3.57347","24.171","1.301","7.45","0.232","3.536","0","0","30.7403","4.80984","14.68","0","SATNPRO1963","29.28","0.4101","5"],
    [6010,"HCEP03730564","2023-11-29 23:00:00","12.1477","3.57349","24.044","1.35","7.45","0.232","3.536","0","0","30.7403","4.80984","15.24","0","SATNPRO1963","29.244","0.40964","5"],
    [6011,"HCEP03730564","2023-11-29 23:15:00","12.1485","3.5735","23.922","1.405","7.46","0.232","3.536","0","0","30.7397","4.80974","15.86","0","SATNPRO1963","28.484","0.39896","5"],
    [6012,"HCEP03730564","2023-11-29 23:30:00","12.1494","3.57339","23.872","1.485","7.46","0.232","3.536","0","0","30.738","4.80949","16.76","0","SATNPRO1963","28.866","0.4043","5"],
    [6013,"HCEP03730564","2023-11-29 23:45:00","12.1495","3.57345","23.814","1.53","7.47","0.232","3.536","0","0","30.7386","4.80956","17.28","0","SATNPRO1963","28.848","0.40404","5"],
    [6014,"HCEP03730564","2023-11-30 00:00:00","12.1494","3.57335","23.8","1.563","7.47","0.232","3.536","0","0","30.7377","4.80943","17.65","0","SATNPRO1963","29.195999999999998","0.40894","5"],
    [6015,"HCEP03730564","2023-11-30 00:15:00","12.1489","3.5732","23.78","1.576","7.47","0.232","3.536","0","0","30.7367","4.8093","17.79","0","SATNPRO1963","29.51","0.4133","5"],
    [6016,"HCEP03730564","2023-11-30 00:30:00","12.1484","3.57268","23.785","1.64","7.48","0.232","3.536","0","0","30.7321","4.80866","18.52","0","SATNPRO1963","29.826","0.41776","5"],
    [6017,"HCEP03730564","2023-11-30 00:45:00","12.1463","3.57206","23.83","1.667","7.48","0.232","3.536","0","0","30.7278","4.80809","18.82","0","SATNPRO1963","29.99","0.42008","5"],
    [6018,"HCEP03730564","2023-11-30 01:00:00","12.1455","3.57167","23.941","1.692","7.48","0.232","3.536","0","0","30.7247","4.80767","19.1","0","SATNPRO1963","30.024","0.42056","5"],
    [6019,"HCEP03730564","2023-11-30 01:15:00","12.1453","3.57153","24.073","1.719","7.48","0.232","3.536","0","0","30.7236","4.80752","19.41","0","SATNPRO1963","30","0.4202","5"],
    [6020,"HCEP03730564","2023-11-30 01:30:00","12.1449","3.5714","24.223","1.745","7.49","0.232","3.536","0","0","30.7225","4.80738","19.7","0","SATNPRO1963","29.97","0.41978","5"],
    [6021,"HCEP03730564","2023-11-30 01:45:00","12.1449","3.57157","24.387","1.742","7.49","0.232","3.536","0","0","30.7241","4.80761","19.66","0","SATNPRO1963","29.598","0.41454","5"],
    [6022,"HCEP03730564","2023-11-30 02:00:00","12.1454","3.57172","24.613","1.73","7.49","0.232","3.536","0","0","30.725","4.80775","19.53","0","SATNPRO1963","29.694","0.41592","5"],
    [6023,"HCEP03730564","2023-11-30 02:15:00","12.1445","3.57161","24.852","1.708","7.49","0.232","3.536","0","0","30.7247","4.80773","19.29","0","SATNPRO1963","29.642","0.41518","5"],
    [6024,"HCEP03730564","2023-11-30 02:30:00","12.1445","3.57161","25.053","1.73","7.49","0.232","3.536","0","0","30.7246","4.80773","19.53","0","SATNPRO1963","29.754","0.41674","5"],
    [6025,"HCEP03730564","2023-11-30 02:45:00","12.1438","3.5715","25.249","1.76","7.49","0.232","3.536","0","0","30.724","4.80766","19.87","0","SATNPRO1963","29.544","0.4138","5"],
    [6026,"HCEP03730564","2023-11-30 03:00:00","12.1431","3.57119","25.427","1.736","7.49",null,null,null,null,"30.7216","4.80735","19.6","2","SATNPRO1963","29.573999999999998","0.41422","5"],
    [6027,"HCEP03730564","2023-11-30 03:15:00","12.1421","3.571","25.634","1.762","7.49","0.232","3.536","0","0","30.7205","4.80721","19.9","0","SATNPRO1963","29.336000000000002","0.4109","5"],
    [6028,"HCEP03730564","2023-11-30 03:30:00","12.1426","3.57099","25.832","1.819","7.49","0.232","3.536","0","0","30.72","4.80714","20.54","0","SATNPRO1963","28.942","0.4054","5"],
    [6029,"HCEP03730564","2023-11-30 03:45:00","12.1422","3.57087","26.079","1.848","7.49","0.232","3.536","0","0","30.719","4.80703","20.87","0","SATNPRO1963","29.186","0.4088","5"],
    [6030,"HCEP03730564","2023-11-30 04:00:00","12.1418","3.57072","26.317","1.883","7.5","0.232","3.536","0","0","30.7178","4.80687","21.26","0","SATNPRO1963","28.919999999999998","0.40504","5"],
    [6031,"HCEP03730564","2023-11-30 04:15:00","12.1419","3.57062","26.557","1.912","7.5","0.232","3.536","0","0","30.7167","4.80673","21.59","0","SATNPRO1963","28.9","0.40478","5"],
    [6032,"HCEP03730564","2023-11-30 04:30:00","12.1416","3.57063","26.769","1.928","7.5","0.232","3.536","0","0","30.7169","4.80677","21.77","0","SATNPRO1963","29.186","0.40882","5"],
    [6033,"HCEP03730564","2023-11-30 04:45:00","12.142","3.57075","26.954","1.926","7.5","0.232","3.536","0","0","30.7176","4.80688","21.74","0","SATNPRO1963","28.918","0.40502","5"],
    [6034,"HCEP03730564","2023-11-30 05:00:00","12.1426","3.57081","27.144","1.918","7.5","0.232","3.536","0","0","30.7177","4.8069","21.65","0","SATNPRO1963","29.099999999999998","0.4076","5"],
    [6035,"HCEP03730564","2023-11-30 05:15:00","12.1428","3.57093","27.314","1.913","7.5","0.232","3.536","0","0","30.7186","4.80703","21.6","0","SATNPRO1963","29.066","0.40706","5"],
    [6036,"HCEP03730564","2023-11-30 05:30:00","12.1428","3.57099","27.479","1.877","7.5","0.232","3.536","0","0","30.7191","4.80711","21.19","0","SATNPRO1963","29.008","0.40634","5"],
    [6037,"HCEP03730564","2023-11-30 05:45:00","12.1434","3.57123","27.622","1.793","7.5","0.232","3.536","0","0","30.7209","4.80736","20.24","0","SATNPRO1963","29.308","0.4105","5"],
    [6038,"HCEP03730564","2023-11-30 06:00:00","12.1441","3.57157","27.749","1.766","7.49","0.232","3.536","0","0","30.7234","4.80772","19.94","0","SATNPRO1963","29.196","0.40896","5"],
    [6039,"HCEP03730564","2023-11-30 06:15:00","12.1447","3.57203","27.836","1.751","7.49","0.232","3.536","0","0","30.7274","4.80827","19.77","0","SATNPRO1963","29.144000000000002","0.40822","5"],
    [6040,"HCEP03730564","2023-11-30 06:30:00","12.1455","3.57209","27.904","1.756","7.49","0.232","3.536","0","0","30.7272","4.80824","19.82","0","SATNPRO1963","29.172","0.40864","5"],
    [6041,"HCEP03730564","2023-11-30 06:45:00","12.1452","3.57199","27.964","1.741","7.49","0.232","3.536","0","0","30.7264","4.80814","19.65","0","SATNPRO1963","29.204","0.40904","5"],
    [6042,"HCEP03730564","2023-11-30 07:00:00","12.1445","3.57178","28.022","1.72","7.49",null,null,null,null,"30.725","4.80795","19.41","2","SATNPRO1963","29.264","0.4099","5"],
    [6043,"HCEP03730564","2023-11-30 07:15:00","12.1448","3.57164","28.05","1.721","7.49","0.232","3.536","0","0","30.7234","4.80773","19.43","0","SATNPRO1963","29.136","0.40812","5"],
    [6044,"HCEP03730564","2023-11-30 07:30:00","12.1443","3.5714","28.081","1.733","7.49",null,null,null,null,"30.7215","4.80746","19.57","2","SATNPRO1963","29.316","0.4106","5"],
    [6045,"HCEP03730564","2023-11-30 07:45:00","12.1434","3.57114","28.105","1.721","7.49","0.232","3.536","0","0","30.7198","4.80723","19.43","0","SATNPRO1963","29.374","0.41146","5"],
    [6046,"HCEP03730564","2023-11-30 08:00:00","12.1434","3.57099","28.106","1.711","7.49",null,null,null,null,"30.7184","4.80703","19.32","2","SATNPRO1963","29.094","0.40754","5"],
    [6047,"HCEP03730564","2023-11-30 08:15:00","12.1428","3.5707","28.096","1.709","7.49","0.232","3.536","0","0","30.7162","4.80673","19.29","0","SATNPRO1963","29.402","0.41184","5"],
    [6048,"HCEP03730564","2023-11-30 08:30:00","12.1432","3.57077","28.076","1.72","7.49",null,null,null,null,"30.7165","4.80677","19.41","2","SATNPRO1963","29.124","0.40794","5"],
    [6049,"HCEP03730564","2023-11-30 08:45:00","12.1422","3.56994","28.035","1.757","7.49","0.232","3.536","0","0","30.7094","4.80578","19.83","0","SATNPRO1963","29.156","0.40838","5"],
    [6050,"HCEP03730564","2023-11-30 09:00:00","12.1431","3.57043","27.997","1.825","7.5",null,null,null,null,"30.7133","4.80631","20.6","2","SATNPRO1963","29.11","0.40772","5"],
    [6051,"HCEP03730564","2023-11-30 09:15:00","12.1459","3.57197","27.891","1.679","7.49",null,null,null,null,"30.7258","4.80803","18.96","2","SATNPRO1963","29.028","0.40658","5"],
    [6052,"HCEP03730564","2023-11-30 09:30:00","12.1463","3.57239","27.804","1.529","7.48",null,null,null,null,"30.7295","4.80854","17.26","2","SATNPRO1963","29.284","0.41024","5"],
    [6053,"HCEP03730564","2023-11-30 09:45:00","12.1443","3.57179","27.708","1.351","7.47","0.232","3.536","0","0","30.7254","4.80799","15.26","0","SATNPRO1963","29.5","0.4132","5"],
    [6054,"HCEP03730564","2023-11-30 10:00:00","12.1438","3.57177","27.667","1.188","7.46",null,null,null,null,"30.7256","4.80802","13.41","2","SATNPRO1963","29.694","0.41592","5"],
    [6055,"HCEP03730564","2023-11-30 10:15:00","12.1432","3.57161","27.568","1.109","7.45",null,null,null,null,"30.7246","4.80789","12.52","2","SATNPRO1963","29.508","0.41334","5"],
    [6056,"HCEP03730564","2023-11-30 10:30:00","12.1427","3.57166","27.489","1.07","7.44","0.232","3.536","0","0","30.7256","4.80803","12.08","0","SATNPRO1963","29.37","0.4114","5"],
    [6057,"HCEP03730564","2023-11-30 10:45:00","12.1428","3.57167","27.403","1.056","7.44",null,null,null,null,"30.7256","4.80803","11.92","2","SATNPRO1963","29.234","0.40948","5"],
    [6058,"HCEP03730564","2023-11-30 11:00:00","12.1424","3.57156","27.349","1.068","7.44",null,null,null,null,"30.7249","4.80793","12.06","2","SATNPRO1963","28.694","0.40194","5"],
    [6059,"HCEP03730564","2023-11-30 11:15:00","12.1421","3.57143","27.235","1.079","7.43",null,null,null,null,"30.7239","4.80779","12.19","2","SATNPRO1963","28.424","0.39808","5"],
    [6060,"HCEP03730564","2023-11-30 11:30:00","12.1418","3.57127","27.203","1.082","7.43",null,null,null,null,"30.7227","4.80761","12.22","2","SATNPRO1963","28.524","0.39948","5"],
    [6061,"HCEP03730564","2023-11-30 11:45:00","12.1416","3.57116","27.134","1.092","7.43",null,null,null,null,"30.721800000000002","4.80749","12.33","2","SATNPRO1963","28.253999999999998","0.3958","5"],
    [6062,"HCEP03730564","2023-11-30 12:00:00","12.1409","3.57097","27.095","1.094","7.44",null,null,null,null,"30.7206","4.80733","12.35","2","SATNPRO1963","28.274","0.39606","5"],
    [6063,"HCEP03730564","2023-11-30 12:15:00","12.1406","3.57079","26.984","1.104","7.44",null,null,null,null,"30.7192","4.80712","12.47","2","SATNPRO1963","28.25","0.3957","5"],
    [6064,"HCEP03730564","2023-11-30 12:30:00","12.1407","3.57078","26.952","1.102","7.44",null,null,null,null,"30.719","4.8071","12.44","2","SATNPRO1963","28.296","0.39632","5"],
    [6065,"HCEP03730564","2023-11-30 12:45:00","12.1405","3.57075","26.95","1.088","7.44",null,null,null,null,"30.7189","4.80708","12.29","2","SATNPRO1963","28.31","0.39654","5"],
    [6066,"HCEP03730564","2023-11-30 13:00:00","12.1404","3.57072","26.87","1.071","7.44",null,null,null,null,"30.7188","4.80706","12.09","2","SATNPRO1963","28.154","0.39432","5"],
    [6067,"HCEP03730564","2023-11-30 13:15:00","12.1402","3.57072","26.917","1.063","7.43",null,null,null,null,"30.7189","4.80708","12","2","SATNPRO1963","28.362000000000002","0.39728","5"],
    [6068,"HCEP03730564","2023-11-30 13:30:00","12.1398","3.5706","26.919","1.043","7.43",null,null,null,null,"30.718","4.80697","11.77","2","SATNPRO1963","28.284","0.39614","5"],
    [6069,"HCEP03730564","2023-11-30 13:45:00","12.1398","3.57056","26.865","1.023","7.43",null,null,null,null,"30.7177","4.80692","11.54","2","SATNPRO1963","28.34","0.39692","5"],
    [6070,"HCEP03730564","2023-11-30 14:00:00","12.1392","3.57048","26.884","1.002","7.43",null,null,null,null,"30.7173","4.80688","11.31","2","SATNPRO1963","28.436","0.3983","5"],
    [6071,"HCEP03730564","2023-11-30 14:15:00","12.139","3.57034","26.943","0.991","7.43",null,null,null,null,"30.7162","4.80672","11.18","2","SATNPRO1963","28.112","0.39374","5"],
    [6072,"HCEP03730564","2023-11-30 14:30:00","12.139","3.57038","26.958","0.968","7.43",null,null,null,null,"30.7166","4.80679","10.93","2","SATNPRO1963","28.294","0.39632","5"],
    [6073,"HCEP03730564","2023-11-30 14:45:00","12.1388","3.57045","27.018","0.927","7.42",null,null,null,null,"30.7174","4.8069","10.46","2","SATNPRO1963","28.38","0.39754","5"],
    [6074,"HCEP03730564","2023-11-30 15:00:00","12.139","3.57055","27.111","0.92","7.42",null,null,null,null,"30.7181","4.807","10.38","2","SATNPRO1963","28.212","0.39518","5"],
    [6075,"HCEP03730564","2023-11-30 15:15:00","12.1393","3.57059","27.113","0.928","7.42",null,null,null,null,"30.7183","4.80702","10.47","2","SATNPRO1963","28.238","0.39552","5"],
    [6076,"HCEP03730564","2023-11-30 15:30:00","12.1389","3.57055","27.173","0.927","7.42",null,null,null,null,"30.7182","4.80702","10.47","2","SATNPRO1963","27.95","0.3915","5"],
    [6077,"HCEP03730564","2023-11-30 15:45:00","12.1386","3.57052","27.199","0.908","7.42",null,null,null,null,"30.7181","4.80702","10.25","2","SATNPRO1963","27.998","0.39214","5"],
    [6078,"HCEP03730564","2023-11-30 16:00:00","12.1386","3.57053","27.236","0.906","7.42",null,null,null,null,"30.7182","4.80703","10.22","2","SATNPRO1963","28.172","0.39456","5"],
    [6079,"HCEP03730564","2023-11-30 16:15:00","12.1387","3.57053","27.275","0.911","7.42",null,null,null,null,"30.7181","4.80702","10.28","2","SATNPRO1963","27.986","0.392","5"],
    [6080,"HCEP03730564","2023-11-30 16:30:00","12.1382","3.57044","27.312","0.906","7.42",null,null,null,null,"30.7176","4.80696","10.23","2","SATNPRO1963","27.936","0.39132","5"],
    [6081,"HCEP03730564","2023-11-30 16:45:00","12.1386","3.57041","27.347","0.906","7.42",null,null,null,null,"30.7171","4.80688","10.22","2","SATNPRO1963","27.752","0.3887","5"],
    [6082,"HCEP03730564","2023-11-30 17:00:00","12.1378","3.57036","27.39","0.912","7.42",null,null,null,null,"30.7173","4.80692","10.29","2","SATNPRO1963","28.016","0.39238","5"],
    [6083,"HCEP03730564","2023-11-30 17:15:00","12.1384","3.57046","27.403","0.929","7.42",null,null,null,null,"30.7177","4.80697","10.48","2","SATNPRO1963","27.952","0.39156","5"],
    [6084,"HCEP03730564","2023-11-30 17:30:00","12.1389","3.57054","27.424","0.953","7.42",null,null,null,null,"30.718","4.80701","10.75","2","SATNPRO1963","27.828","0.38978","5"],
    [6085,"HCEP03730564","2023-11-30 17:45:00","12.1385","3.57062","27.399","0.963","7.42",null,null,null,null,"30.7191","4.80717","10.87","2","SATNPRO1963","28.006","0.39228","5"],
    [6086,"HCEP03730564","2023-11-30 18:00:00","12.1386","3.57073","27.395","0.965","7.42",null,null,null,null,"30.7201","4.8073","10.89","2","SATNPRO1963","27.648","0.38726","5"],
    [6087,"HCEP03730564","2023-11-30 18:15:00","12.1391","3.57082","27.369","0.973","7.42",null,null,null,null,"30.7206","4.80736","10.98","2","SATNPRO1963","27.86","0.39022","5"],
    [6088,"HCEP03730564","2023-11-30 18:30:00","12.1391","3.5709","27.352","0.982","7.42",null,null,null,null,"30.7214","4.80747","11.08","2","SATNPRO1963","28.483999999999998","0.399","5"],
    [6089,"HCEP03730564","2023-11-30 18:45:00","12.1392","3.57094","27.317","0.988","7.42",null,null,null,null,"30.7216","4.8075","11.15","2","SATNPRO1963","27.792","0.3893","5"],
    [6090,"HCEP03730564","2023-11-30 19:00:00","12.1393","3.57095","27.252","0.998","7.42",null,null,null,null,"30.7217","4.80751","11.26","2","SATNPRO1963","27.648","0.38728","5"],
    [6091,"HCEP03730564","2023-11-30 19:15:00","12.1398","3.57093","27.193","1","7.43",null,null,null,null,"30.7211","4.80742","11.29","2","SATNPRO1963","27.634","0.38708","5"],
    [6092,"HCEP03730564","2023-11-30 19:30:00","12.1396","3.5709","27.104","1.006","7.43",null,null,null,null,"30.7211","4.80741","11.35","2","SATNPRO1963","27.72","0.38824","5"],
    [6093,"HCEP03730564","2023-11-30 19:45:00","12.1396","3.57084","27.008","1.023","7.43",null,null,null,null,"30.7205","4.80732","11.55","2","SATNPRO1963","27.844","0.39","5"],
    [6094,"HCEP03730564","2023-11-30 20:00:00","12.1396","3.57068","26.87","1.077","7.43",null,null,null,null,"30.719","4.80711","12.16","2","SATNPRO1963","27.888","0.39058","5"],
    [6095,"HCEP03730564","2023-11-30 20:15:00","12.1396","3.57031","26.713","1.156","7.43",null,null,null,null,"30.7155","4.8066","13.04","2","SATNPRO1963","28.052","0.39294","5"],
    [6096,"HCEP03730564","2023-11-30 20:30:00","12.1392","3.57023","26.584","1.229","7.44",null,null,null,null,"30.7152","4.80656","13.88","2","SATNPRO1963","27.852","0.3901","5"],
    [6097,"HCEP03730564","2023-11-30 20:45:00","12.139","3.57007","26.415","1.277","7.44",null,null,null,null,"30.7138","4.80635","14.42","2","SATNPRO1963","28.212","0.39518","5"],
    [6098,"HCEP03730564","2023-11-30 21:00:00","12.139","3.56977","26.174","1.414","7.45",null,null,null,null,"30.7111","4.80596","15.96","2","SATNPRO1963","28.468","0.39874","5"],
    [6099,"HCEP03730564","2023-11-30 21:15:00","12.1387","3.56968","25.993","1.468","7.46",null,null,null,null,"30.7105","4.80587","16.57","2","SATNPRO1963","28.704","0.40206","5"],
    [6100,"HCEP03730564","2023-11-30 21:30:00","12.1385","3.56957","25.775","1.518","7.47",null,null,null,null,"30.7097","4.80575","17.13","2","SATNPRO1963","28.766000000000002","0.40288","5"],
    [6101,"HCEP03730564","2023-11-30 21:45:00","12.139","3.56953","25.605","1.561","7.47",null,null,null,null,"30.709","4.80564","17.61","2","SATNPRO1963","28.694","0.40192","5"],
    [6102,"HCEP03730564","2023-11-30 22:00:00","12.1385","3.56958","25.346","1.543","7.47",null,null,null,null,"30.7099","4.80576","17.42","2","SATNPRO1963","28.948","0.40548","5"],
    [6103,"HCEP03730564","2023-11-30 22:15:00","12.1386","3.56968","25.118","1.494","7.47",null,null,null,null,"30.711","4.8059","16.86","2","SATNPRO1963","28.98","0.40594","5"],
    [6104,"HCEP03730564","2023-11-30 22:30:00","12.1386","3.56979","24.952","1.434","7.47",null,null,null,null,"30.712","4.80603","16.19","2","SATNPRO1963","29.178","0.4087","5"],
    [6105,"HCEP03730564","2023-11-30 22:45:00","12.139","3.56989","24.761","1.403","7.46",null,null,null,null,"30.7127","4.80612","15.83","2","SATNPRO1963","29.252","0.40974","5"],
    [6106,"HCEP03730564","2023-11-30 23:00:00","12.1388","3.56996","24.616","1.372","7.46",null,null,null,null,"30.7137","4.80624","15.48","2","SATNPRO1963","28.836000000000002","0.4039","5"],
    [6107,"HCEP03730564","2023-11-30 23:15:00","12.1388","3.57017","24.461","1.252","7.45",null,null,null,null,"30.7157","4.80651","14.13","2","SATNPRO1963","28.794","0.40334","5"],
    [6108,"HCEP03730564","2023-11-30 23:30:00","12.1382","3.57031","24.308","1.104","7.45",null,null,null,null,"30.7176","4.80679","12.46","2","SATNPRO1963","28.599999999999998","0.40056","5"],
    [6109,"HCEP03730564","2023-11-30 23:45:00","12.1385","3.57033","24.164","1.068","7.44",null,null,null,null,"30.7176","4.80678","12.05","2","SATNPRO1963","28.990000000000002","0.40606","5"],
    [6110,"HCEP03730564","2023-12-01 00:00:00","12.1385","3.57031","24.059","1.092","7.44",null,null,null,null,"30.7175","4.80675","12.33","2","SATNPRO1963","28.876","0.40446","5"],
    [6111,"HCEP03730564","2023-12-01 00:15:00","12.1388","3.5703","24.061","1.116","7.44",null,null,null,null,"30.7171","4.8067","12.6","2","SATNPRO1963","28.624","0.40096","5"],
    [6112,"HCEP03730564","2023-12-01 00:30:00","12.1387","3.57024","23.987","1.147","7.44",null,null,null,null,"30.7166","4.80662","12.95","2","SATNPRO1963","28.054","0.39292","5"],
    [6113,"HCEP03730564","2023-12-01 00:45:00","12.1389","3.57005","24.064","1.219","7.44",null,null,null,null,"30.7147","4.80635","13.76","2","SATNPRO1963","28.264","0.39594","5"],
    [6114,"HCEP03730564","2023-12-01 01:00:00","12.1384","3.56971","24.022","1.323","7.45",null,null,null,null,"30.7119","4.80596","14.94","2","SATNPRO1963","28.538","0.39974","5"],
    [6115,"HCEP03730564","2023-12-01 01:15:00","12.1386","3.56955","24.097","1.426","7.45",null,null,null,null,"30.7101","4.80572","16.09","2","SATNPRO1963","28.34","0.39698","5"],
    [6116,"HCEP03730564","2023-12-01 01:30:00","12.1391","3.56971","24.17","1.413","7.46",null,null,null,null,"30.7112","4.80587","15.95","2","SATNPRO1963","28.664","0.40148","5"],
    [6117,"HCEP03730564","2023-12-01 01:45:00","12.1379","3.56947","24.263","1.416","7.46",null,null,null,null,"30.7098","4.80569","15.98","2","SATNPRO1963","29.006","0.4063","5"],
    [6118,"HCEP03730564","2023-12-01 02:00:00","12.1382","3.56951","24.452","1.432","7.46",null,null,null,null,"30.7099","4.80571","16.16","2","SATNPRO1963","29.082","0.40732","5"],
    [6119,"HCEP03730564","2023-12-01 02:15:00","12.1389","3.56953","24.539","1.452","7.46",null,null,null,null,"30.7095","4.80564","16.39","2","SATNPRO1963","29.137999999999998","0.40814","5"],
    [6120,"HCEP03730564","2023-12-01 02:30:00","12.1386","3.56941","24.759","1.498","7.46",null,null,null,null,"30.7085","4.80552","16.91","2","SATNPRO1963","29.105999999999998","0.4077","5"],
    [6121,"HCEP03730564","2023-12-01 02:45:00","12.1383","3.56927","24.845","1.573","7.47",null,null,null,null,"30.7074","4.80538","17.76","2","SATNPRO1963","29.004","0.40622","5"],
    [6122,"HCEP03730564","2023-12-01 03:00:00","12.1388","3.56923","25.073","1.614","7.47",null,null,null,null,"30.7065","4.80525","18.22","2","SATNPRO1963","28.954","0.40554","5"],
    [6123,"HCEP03730564","2023-12-01 03:15:00","12.1388","3.5691","25.166","1.66","7.48",null,null,null,null,"30.7052","4.80508","18.73","2","SATNPRO1963","29.218","0.40922","5"],
    [6124,"HCEP03730564","2023-12-01 03:30:00","12.1388","3.5692","25.33","1.64","7.48",null,null,null,null,"30.7061","4.80522","18.51","2","SATNPRO1963","29.218","0.40928","5"],
    [6125,"HCEP03730564","2023-12-01 03:45:00","12.1386","3.56929","25.514","1.583","7.48",null,null,null,null,"30.7071","4.80536","17.87","2","SATNPRO1963","29.384","0.41154","5"],
    [6126,"HCEP03730564","2023-12-01 04:00:00","12.1388","3.56943","25.736","1.536","7.47",null,null,null,null,"30.7081","4.80552","17.33","2","SATNPRO1963","29.482","0.41296","5"],
    [6127,"HCEP03730564","2023-12-01 04:15:00","12.1393","3.57","25.945","1.363","7.47",null,null,null,null,"30.7131","4.80623","15.38","2","SATNPRO1963","29.478","0.41288","5"],
    [6128,"HCEP03730564","2023-12-01 04:30:00","12.1396","3.57012","26.196","1.246","7.45",null,null,null,null,"30.714","4.80636","14.07","2","SATNPRO1963","29.398","0.4118","5"],
    [6129,"HCEP03730564","2023-12-01 04:45:00","12.1387","3.57044","26.482","1.076","7.45",null,null,null,null,"30.7176","4.8069","12.14","2","SATNPRO1963","29.422","0.41206","5"],
    [6130,"HCEP03730564","2023-12-01 05:00:00","12.1384","3.57019","26.678","0.996","7.43",null,null,null,null,"30.7154","4.8066","11.24","2","SATNPRO1963","29.444","0.41238","5"],
    [6131,"HCEP03730564","2023-12-01 05:15:00","12.1375","3.57011","26.843","0.942","7.43",null,null,null,null,"30.7152","4.8066","10.63","2","SATNPRO1963","28.978","0.40586","5"],
    [6132,"HCEP03730564","2023-12-01 05:30:00","12.1377","3.56982","27.028","0.926","7.42",null,null,null,null,"30.7123","4.8062","10.46","2","SATNPRO1963","29.150000000000002","0.40832","5"],
    [6133,"HCEP03730564","2023-12-01 05:45:00","12.1373","3.57004","27.173","0.906","7.42",null,null,null,null,"30.7146","4.80654","10.22","2","SATNPRO1963","28.61","0.40074","5"],
    [6134,"HCEP03730564","2023-12-01 06:00:00","12.1371","3.57012","27.306","0.888","7.42",null,null,null,null,"30.7156","4.80668","10.03","2","SATNPRO1963","28.622","0.40088","5"],
    [6135,"HCEP03730564","2023-12-01 06:15:00","12.1372","3.57005","27.462","0.904","7.42",null,null,null,null,"30.7147","4.80656","10.2","2","SATNPRO1963","28.262","0.39586","5"],
    [6136,"HCEP03730564","2023-12-01 06:30:00","12.1374","3.57009","27.565","0.908","7.42",null,null,null,null,"30.7149","4.8066","10.24","2","SATNPRO1963","28.772","0.40294","5"],
    [6137,"HCEP03730564","2023-12-01 06:45:00","12.137","3.56986","27.707","0.921","7.42",null,null,null,null,"30.713","4.80634","10.4","2","SATNPRO1963","28.206","0.39506","5"],
    [6138,"HCEP03730564","2023-12-01 07:00:00","12.1368","3.56989","27.837","0.935","7.42",null,null,null,null,"30.7133","4.8064","10.55","2","SATNPRO1963","28.102","0.39358","5"],
    [6139,"HCEP03730564","2023-12-01 07:15:00","12.1368","3.56968","27.89","0.998","7.42",null,null,null,null,"30.7113","4.80612","11.27","2","SATNPRO1963","28.28","0.3961","5"],
    [6140,"HCEP03730564","2023-12-01 07:30:00","12.1358","3.56907","27.928","1.104","7.43",null,null,null,null,"30.7063","4.80543","12.46","2","SATNPRO1963","28.227999999999998","0.3954","5"],
    [6141,"HCEP03730564","2023-12-01 07:45:00","12.1349","3.56843","27.984","1.241","7.44",null,null,null,null,"30.7009","4.80469","14.01","2","SATNPRO1963","28.188","0.39482","5"],
    [6142,"HCEP03730564","2023-12-01 08:00:00","12.1348","3.5684","28.013","1.295","7.45",null,null,null,null,"30.7007","4.80466","14.62","2","SATNPRO1963","28.064","0.39312","5"],
    [6143,"HCEP03730564","2023-12-01 08:15:00","12.1327","3.56772","28.068","1.247","7.45",null,null,null,null,"30.696","4.80402","14.07","2","SATNPRO1963","28.156","0.3944","5"],
    [6144,"HCEP03730564","2023-12-01 08:30:00","12.1315","3.56756","28.073","1.108","7.44",null,null,null,null,"30.6953","4.80395","12.51","2","SATNPRO1963","28.432","0.39822","5"],
    [6145,"HCEP03730564","2023-12-01 08:45:00","12.1292","3.56701","28.076","0.944","7.43",null,null,null,null,"30.692","4.80351","10.65","2","SATNPRO1963","28.73","0.40244","5"],
    [6146,"HCEP03730564","2023-12-01 09:00:00","12.1256","3.56601","28.053","0.851","7.42",null,null,null,null,"30.6854","4.80263","9.6","2","SATNPRO1963","28.716","0.4022","5"],
    [6147,"HCEP03730564","2023-12-01 09:15:00","12.1209","3.56441","28.068","0.792","7.42",null,null,null,null,"30.674","4.80108","8.94","2","SATNPRO1963","28.562","0.40006","5"],
    [6148,"HCEP03730564","2023-12-01 09:30:00","12.1192","3.56399","28.091","0.788","7.41",null,null,null,null,"30.6713","4.80073","8.89","2","SATNPRO1963","28.018","0.39242","5"],
    [6149,"HCEP03730564","2023-12-01 09:45:00","12.1195","3.56379","28.056","0.848","7.41",null,null,null,null,"30.6692","4.80043","9.56","2","SATNPRO1963","27.262","0.38184","5"],
    [6150,"HCEP03730564","2023-12-01 10:00:00","12.12","3.5636","28.066","0.923","7.42",null,null,null,null,"30.6669","4.8001","10.41","2","SATNPRO1963","26.619999999999997","0.37286","5"],
    [6151,"HCEP03730564","2023-12-01 10:15:00","12.1193","3.56343","27.895","0.95","7.42",null,null,null,null,"30.666","4.79997","10.71","2","SATNPRO1963","26.195999999999998","0.3669","5"],
    [6152,"HCEP03730564","2023-12-01 10:30:00","12.1182","3.5636","27.842","0.873","7.42",null,null,null,null,"30.6685","4.80034","9.85","2","SATNPRO1963","25.86","0.3622","5"],
    [6153,"HCEP03730564","2023-12-01 10:45:00","12.1185","3.56381","27.755","0.826","7.42",null,null,null,null,"30.6703","4.80059","9.32","2","SATNPRO1963","26.304","0.36842","5"],
    [6154,"HCEP03730564","2023-12-01 11:00:00","12.1166","3.56345","27.646","0.787","7.41",null,null,null,null,"30.6684","4.80034","8.88","2","SATNPRO1963","27.122","0.37984","5"],
    [6155,"HCEP03730564","2023-12-01 11:15:00","12.1148","3.56261","27.665","0.785","7.41",null,null,null,null,"30.6619","4.79944","8.85","2","SATNPRO1963","26.936","0.37726","5"],
    [6156,"HCEP03730564","2023-12-01 11:30:00","12.1131","3.56197","27.531","0.808","7.41",null,null,null,null,"30.6573","4.79881","9.11","2","SATNPRO1963","25.9","0.36278","5"],
    [6157,"HCEP03730564","2023-12-01 11:45:00","12.1117","3.5615","27.482","0.825","7.41",null,null,null,null,"30.6539","4.79835","9.3","2","SATNPRO1963","26.122","0.36586","5"],
    [6158,"HCEP03730564","2023-12-01 12:00:00","12.110900000000001","3.56113","27.43","0.848","7.41",null,null,null,null,"30.6511","4.79796","9.56","2","SATNPRO1963","25.146","0.35222","5"],
    [6159,"HCEP03730564","2023-12-01 12:15:00","12.1111","3.56107","27.373","0.879","7.42",null,null,null,null,"30.6504","4.79786","9.91","2","SATNPRO1963","25.636","0.35906","5"],
    [6160,"HCEP03730564","2023-12-01 12:30:00","12.1115","3.56112","27.247","0.912","7.42",null,null,null,null,"30.6505","4.79786","10.29","2","SATNPRO1963","25.338","0.3549","5"],
    [6161,"HCEP03730564","2023-12-01 12:45:00","12.1115","3.56092","27.153","0.957","7.42",null,null,null,null,"30.6487","4.79759","10.8","2","SATNPRO1963","25.646","0.35922","5"],
    [6162,"HCEP03730564","2023-12-01 13:00:00","12.1101","3.56034","27.073","0.997","7.42",null,null,null,null,"30.6442","4.79699","11.25","2","SATNPRO1963","25.76","0.36082","5"],
    [6163,"HCEP03730564","2023-12-01 13:15:00","12.1094","3.5601","27.04","1.002","7.43",null,null,null,null,"30.6426","4.79676","11.3","2","SATNPRO1963","26.008","0.3643","5"],
    [6164,"HCEP03730564","2023-12-01 13:30:00","12.1103","3.56035","26.958","1.014","7.43",null,null,null,null,"30.6442","4.79698","11.43","2","SATNPRO1963","26.026","0.36458","5"],
    [6165,"HCEP03730564","2023-12-01 13:45:00","12.1121","3.56118","26.878","0.981","7.43",null,null,null,null,"30.6508","4.79788","11.06","2","SATNPRO1963","26.586","0.37238","5"],
    [6166,"HCEP03730564","2023-12-01 14:00:00","12.1117","3.56132","26.868","0.913","7.42",null,null,null,null,"30.6524","4.7981","10.29","2","SATNPRO1963","26.566","0.3721","5"],
    [6167,"HCEP03730564","2023-12-01 14:15:00","12.1108","3.56105","26.803","0.88","7.42",null,null,null,null,"30.6506","4.79786","9.93","2","SATNPRO1963","26.698","0.37394","5"],
    [6168,"HCEP03730564","2023-12-01 14:30:00","12.112","3.5614","26.763","0.88","7.42",null,null,null,null,"30.653","4.79818","9.92","2","SATNPRO1963","26.844","0.37604","5"],
    [6169,"HCEP03730564","2023-12-01 14:45:00","12.1066","3.55941","26.765","0.961","7.42",null,null,null,null,"30.6384","4.79619","10.84","2","SATNPRO1963","26.514","0.37136","5"],
    [6170,"HCEP03730564","2023-12-01 15:00:00","12.0958","3.55629","26.822","1.162","7.42",null,null,null,null,"30.6174","4.79339","13.09","2","SATNPRO1963","26.074","0.3652","5"],
    [6171,"HCEP03730564","2023-12-01 15:15:00","12.0923","3.55505","26.752","1.239","7.43",null,null,null,null,"30.6085","4.79217","13.96","2","SATNPRO1963","25.974","0.36378","5"],
    [6172,"HCEP03730564","2023-12-01 15:30:00","12.0673","3.54659","26.84","1.727","7.45",null,null,null,null,"30.548","4.78399","19.44","2","SATNPRO1963","26.358","0.36918","5"],
    [6173,"HCEP03730564","2023-12-01 15:45:00","12.0764","3.54914","26.795","2.126","7.48",null,null,null,null,"30.5649","4.78625","23.94","2","SATNPRO1963","26.898","0.37678","5"],
    [6174,"HCEP03730564","2023-12-01 16:00:00","12.0869","3.55201","26.857","2.23","7.51",null,null,null,null,"30.5837","4.78876","25.12","2","SATNPRO1963","27.646","0.3872","5"],
    [6175,"HCEP03730564","2023-12-01 16:15:00","12.094","3.5536","26.904","2.23","7.52",null,null,null,null,"30.5932","4.79","25.13","2","SATNPRO1963","27.596","0.38652","5"],
    [6176,"HCEP03730564","2023-12-01 16:30:00","12.0994","3.555","26.943","2.213","7.52",null,null,null,null,"30.602","4.79118","24.94","2","SATNPRO1963","29.642","0.41518","5"],
    [6177,"HCEP03730564","2023-12-01 16:45:00","12.1017","3.55569","26.973","2.167","7.52",null,null,null,null,"30.6068","4.79182","24.42","2","SATNPRO1963","30.22","0.42328","5"],
    [6178,"HCEP03730564","2023-12-01 17:00:00","12.1038","3.5564","27.004","2.021","7.51",null,null,null,null,"30.6118","4.79249","22.78","2","SATNPRO1963","30.082","0.42134","5"],
    [6179,"HCEP03730564","2023-12-01 17:15:00","12.1058","3.55714","27.033","1.908","7.5",null,null,null,null,"30.6173","4.79324","21.51","2","SATNPRO1963","30.246","0.42364","5"],
    [6180,"HCEP03730564","2023-12-01 17:30:00","12.1083","3.55822","27.039","1.793","7.5",null,null,null,null,"30.6255","4.79437","20.22","2","SATNPRO1963","30.102","0.42162","5"],
    [6181,"HCEP03730564","2023-12-01 17:45:00","12.1112","3.56007","27.065","1.557","7.48",null,null,null,null,"30.6408","4.79648","17.55","2","SATNPRO1963","30.066","0.42112","5"],
    [6182,"HCEP03730564","2023-12-01 18:00:00","12.1119","3.56026","27.077","1.469","7.47",null,null,null,null,"30.642","4.79665","16.56","2","SATNPRO1963","29.888","0.41864","5"],
    [6183,"HCEP03730564","2023-12-01 18:15:00","12.1154","3.5608","27.09","1.568","7.47",null,null,null,null,"30.6443","4.79693","17.68","2","SATNPRO1963","29.802","0.41738","5"],
    [6184,"HCEP03730564","2023-12-01 18:30:00","12.1185","3.56201","27.079","1.599","7.47",null,null,null,null,"30.6534","4.79816","18.03","2","SATNPRO1963","29.79","0.41728","5"],
    [6185,"HCEP03730564","2023-12-01 18:45:00","12.121","3.56298","27.083","1.627","7.47",null,null,null,null,"30.6606","4.79914","18.35","2","SATNPRO1963","29.080000000000002","0.40732","5"],
    [6186,"HCEP03730564","2023-12-01 19:00:00","12.1222","3.56342","27.065","1.65","7.48",null,null,null,null,"30.6638","4.79958","18.61","2","SATNPRO1963","29.061999999999998","0.40708","5"],
    [6187,"HCEP03730564","2023-12-01 19:15:00","12.1229","3.56362","27.039","1.682","7.48",null,null,null,null,"30.6652","4.79976","18.97","2","SATNPRO1963","29.564","0.4141","5"],
    [6188,"HCEP03730564","2023-12-01 19:30:00","12.1232","3.56372","26.996","1.724","7.48",null,null,null,null,"30.6659","4.79985","19.45","2","SATNPRO1963","29.69","0.41584","5"],
    [6189,"HCEP03730564","2023-12-01 19:45:00","12.1229","3.56362","26.938","1.766","7.48",null,null,null,null,"30.6652","4.79976","19.92","2","SATNPRO1963","29.798000000000002","0.41732","5"],
    [6190,"HCEP03730564","2023-12-01 20:00:00","12.1227","3.56356","26.867","1.789","7.48",null,null,null,null,"30.6649","4.79971","20.18","2","SATNPRO1963","29.906","0.41886","5"],
    [6191,"HCEP03730564","2023-12-01 20:15:00","12.1211","3.56309","26.776","1.704","7.48",null,null,null,null,"30.6616","4.79927","19.22","2","SATNPRO1963","29.754","0.41674","5"],
    [6192,"HCEP03730564","2023-12-01 20:30:00","12.1211","3.56306","26.696","1.712","7.48",null,null,null,null,"30.6614","4.79924","19.31","2","SATNPRO1963","29.762","0.41682","5"],
    [6193,"HCEP03730564","2023-12-01 20:45:00","12.1203","3.56267","26.593","1.743","7.48",null,null,null,null,"30.6585","4.79882","19.66","2","SATNPRO1963","29.9","0.4188","5"],
    [6194,"HCEP03730564","2023-12-01 21:00:00","12.1122","3.5596","26.408","1.894","7.48",null,null,null,null,"30.6358","4.79573","21.36","2","SATNPRO1963","29.934","0.41928","5"],
    [6195,"HCEP03730564","2023-12-01 21:15:00","12.1082","3.55791","26.284","2.1","7.5",null,null,null,null,"30.623","4.79397","23.67","2","SATNPRO1963","29.884","0.4186","5"],
    [6196,"HCEP03730564","2023-12-01 21:30:00","12.118","3.56199","26.12","1.967","7.5",null,null,null,null,"30.6539","4.79819","22.18","2","SATNPRO1963","30.028","0.4206","5"],
    [6197,"HCEP03730564","2023-12-01 21:45:00","12.1185","3.56218","25.985","1.746","7.49",null,null,null,null,"30.6555","4.79839","19.69","2","SATNPRO1963","29.91","0.41894","5"],
    [6198,"HCEP03730564","2023-12-01 22:00:00","12.1185","3.56226","25.831","1.686","7.48",null,null,null,null,"30.6563","4.7985","19.02","2","SATNPRO1963","30.708000000000002","0.43014","5"],
    [6199,"HCEP03730564","2023-12-01 22:15:00","12.1187","3.56223","25.655","1.684","7.48",null,null,null,null,"30.6559","4.79843","18.99","2","SATNPRO1963","30.828","0.43182","5"],
    [6200,"HCEP03730564","2023-12-01 22:30:00","12.119","3.56226","25.494","1.668","7.48",null,null,null,null,"30.656","4.79844","18.81","2","SATNPRO1963","29.8","0.4174","5"],
    [6201,"HCEP03730564","2023-12-01 22:45:00","12.1182","3.56221","25.323","1.628","7.48",null,null,null,null,"30.6562","4.79846","18.36","2","SATNPRO1963","29.596","0.41454","5"],
    [6202,"HCEP03730564","2023-12-01 23:00:00","12.1178","3.56202","25.142","1.577","7.47",null,null,null,null,"30.6548","4.79826","17.78","2","SATNPRO1963","29.584","0.41436","5"],
    [6203,"HCEP03730564","2023-12-01 23:15:00","12.1175","3.56214","24.974","1.532","7.47",null,null,null,null,"30.6563","4.79846","17.28","2","SATNPRO1963","29.792","0.41732","5"],
    [6204,"HCEP03730564","2023-12-01 23:30:00","12.1172","3.56214","24.802","1.494","7.46",null,null,null,null,"30.6567","4.79851","16.85","2","SATNPRO1963","29.834","0.41786","5"],
    [6205,"HCEP03730564","2023-12-01 23:45:00","12.1181","3.56233","24.654","1.482","7.46",null,null,null,null,"30.6578","4.79865","16.71","2","SATNPRO1963","29.738","0.41654","5"],
    [6206,"HCEP03730564","2023-12-02 00:00:00","12.117","3.56208","24.519","1.472","7.46",null,null,null,null,"30.6563","4.79845","16.6","2","SATNPRO1963","29.568","0.41412","5"],
    [6207,"HCEP03730564","2023-12-02 00:15:00","12.1162","3.56167","24.39","1.447","7.46",null,null,null,null,"30.6531","4.798","16.32","2","SATNPRO1963","29.328","0.41078","5"],
    [6208,"HCEP03730564","2023-12-02 00:30:00","12.1132","3.56065","24.24","1.424","7.46",null,null,null,null,"30.6458","4.79701","16.05","2","SATNPRO1963","29.23","0.40942","5"],
    [6209,"HCEP03730564","2023-12-02 00:45:00","12.106","3.55816","24.237","1.314","7.45",null,null,null,null,"30.6279","4.79459","14.81","2","SATNPRO1963","29.018","0.40648","5"],
    [6210,"HCEP03730564","2023-12-02 01:00:00","12.108","3.55886","24.265","1.267","7.45",null,null,null,null,"30.633","4.79528","14.29","2","SATNPRO1963","29.093999999999998","0.4075","5"],
    [6211,"HCEP03730564","2023-12-02 01:15:00","12.1095","3.55938","24.273","1.3","7.45",null,null,null,null,"30.6367","4.79578","14.65","2","SATNPRO1963","29.093999999999998","0.40752","5"],
    [6212,"HCEP03730564","2023-12-02 01:30:00","12.1157","3.56152","24.297","1.406","7.45",null,null,null,null,"30.6521","4.79786","15.86","2","SATNPRO1963","28.832","0.40382","5"],
    [6213,"HCEP03730564","2023-12-02 01:45:00","12.118","3.56245","24.317","1.445","7.46",null,null,null,null,"30.6591","4.79882","16.3","2","SATNPRO1963","28.142","0.39418","5"],
    [6214,"HCEP03730564","2023-12-02 02:00:00","12.1187","3.56263","24.394","1.456","7.46",null,null,null,null,"30.6602","4.79897","16.42","2","SATNPRO1963","28.71","0.4021","5"],
    [6215,"HCEP03730564","2023-12-02 02:15:00","12.119","3.56296","24.445","1.431","7.46",null,null,null,null,"30.663","4.79937","16.14","2","SATNPRO1963","28.642","0.40118","5"],
    [6216,"HCEP03730564","2023-12-02 02:30:00","12.1193","3.56313","24.545","1.406","7.46",null,null,null,null,"30.6644","4.79957","15.86","2","SATNPRO1963","29.024","0.40656","5"],
    [6217,"HCEP03730564","2023-12-02 02:45:00","12.119","3.56296","24.657","1.404","7.46",null,null,null,null,"30.6629","4.79937","15.84","2","SATNPRO1963","28.988","0.40604","5"],
    [6218,"HCEP03730564","2023-12-02 03:00:00","12.1196","3.56311","24.797","1.402","7.46",null,null,null,null,"30.6639","4.7995","15.81","2","SATNPRO1963","29.12","0.40788","5"],
    [6219,"HCEP03730564","2023-12-02 03:15:00","12.1187","3.56283","24.865","1.394","7.46",null,null,null,null,"30.6619","4.79924","15.72","2","SATNPRO1963","28.94","0.40536","5"],
    [6220,"HCEP03730564","2023-12-02 03:30:00","12.1179","3.56259","24.968","1.368","7.45",null,null,null,null,"30.6603","4.79902","15.43","2","SATNPRO1963","28.866","0.4043","5"],
    [6221,"HCEP03730564","2023-12-02 03:45:00","12.1161","3.56227","25.195","1.303","7.45",null,null,null,null,"30.6586","4.79882","14.7","2","SATNPRO1963","29.026","0.40662","5"],
    [6222,"HCEP03730564","2023-12-02 04:00:00","12.1137","3.56175","25.343","1.186","7.44",null,null,null,null,"30.6555","4.79843","13.38","2","SATNPRO1963","29.073999999999998","0.40724","5"],
    [6223,"HCEP03730564","2023-12-02 04:15:00","12.1115","3.56127","25.487","1.082","7.44",null,null,null,null,"30.6526","4.79806","12.2","2","SATNPRO1963","29.036","0.40674","5"],
    [6224,"HCEP03730564","2023-12-02 04:30:00","12.1102","3.56091","25.766","0.952","7.43",null,null,null,null,"30.6502","4.79775","10.73","2","SATNPRO1963","28.848","0.40408","5"],
    [6225,"HCEP03730564","2023-12-02 04:45:00","12.1076","3.56032","25.931","0.855","7.42",null,null,null,null,"30.6467","4.7973","9.64","2","SATNPRO1963","28.394","0.39772","5"],
    [6226,"HCEP03730564","2023-12-02 05:00:00","12.107","3.56022","26.198","0.838","7.42",null,null,null,null,"30.6461","4.79724","9.45","2","SATNPRO1963","27.544","0.3858","5"],
    [6227,"HCEP03730564","2023-12-02 05:15:00","12.1062","3.55988","26.399","0.861","7.41",null,null,null,null,"30.6433","4.79687","9.7","2","SATNPRO1963","27.172","0.38056","5"],
    [6228,"HCEP03730564","2023-12-02 05:30:00","12.106","3.55969","26.662","0.912","7.42",null,null,null,null,"30.6416","4.79665","10.29","2","SATNPRO1963","26.334","0.36884","5"],
    [6229,"HCEP03730564","2023-12-02 05:45:00","12.106","3.55953","26.806","0.976","7.42",null,null,null,null,"30.64","4.79643","11","2","SATNPRO1963","26.23","0.3674","5"],
    [6230,"HCEP03730564","2023-12-02 06:00:00","12.1058","3.55943","27.085","1.005","7.42",null,null,null,null,"30.6391","4.79632","11.33","2","SATNPRO1963","25.968","0.3637","5"],
    [6231,"HCEP03730564","2023-12-02 06:15:00","12.1057","3.55915","27.286","1.067","7.43",null,null,null,null,"30.6365","4.79597","12.03","2","SATNPRO1963","26.212","0.36714","5"],
    [6232,"HCEP03730564","2023-12-02 06:30:00","12.1056","3.55911","27.544","1.106","7.43",null,null,null,null,"30.636","4.79592","12.47","2","SATNPRO1963","26.414","0.36996","5"],
    [6233,"HCEP03730564","2023-12-02 06:45:00","12.1057","3.55913","27.627","1.096","7.43","0.441","3.867","0.05","0.14","30.6361","4.79593","12.36","0","SATNPRO1963","26.764","0.3749","5"],
    [6234,"HCEP03730564","2023-12-02 07:00:00","12.1054","3.55909","27.708","1.103","7.43","0.427","3.969","0.05","0.09","30.6359","4.79591","12.44","0","SATNPRO1963","26.69","0.37384","5"],
    [6235,"HCEP03730564","2023-12-02 07:15:00","12.1056","3.55918","27.852","1.087","7.43","0.439","3.729","0.05","0.1","30.6366","4.79601","12.25","0","SATNPRO1963","27.038","0.37872","5"],
    [6236,"HCEP03730564","2023-12-02 07:30:00","12.1052","3.55888","27.946","1.123","7.43","0.445","3.694","0.04","0.09","30.634","4.79565","12.66","0","SATNPRO1963","27.294","0.3823","5"],
    [6237,"HCEP03730564","2023-12-02 07:45:00","12.1027","3.55773","27.992","1.242","7.44","0.523","3.644","0.06","0.08","30.625","4.79443","14","2","SATNPRO1963","27.306","0.38248","5"],
    [6238,"HCEP03730564","2023-12-02 08:00:00","12.0997","3.55645","28.115","1.395","7.45","0.572","4.008","0.04","0.14","30.6152","4.7931","15.73","2","SATNPRO1963","27.242","0.38156","5"],
    [6239,"HCEP03730564","2023-12-02 08:15:00","12.098","3.55559","28.099","1.531","7.46","0.628","4.322","0.07","0.14","30.6084","4.79216","17.26","2","SATNPRO1963","27.082","0.37932","5"],
    [6240,"HCEP03730564","2023-12-02 08:30:00","12.0969","3.55494","28.197","1.603","7.46","0.588","4.079","0.05","0.07","30.6031","4.79143","18.07","2","SATNPRO1963","27.492","0.38504","5"],
    [6241,"HCEP03730564","2023-12-02 08:45:00","12.096","3.55465","28.248","1.643","7.47","0.63","4.001","0.07","0.11","30.6011","4.79116","18.51","2","SATNPRO1963","27.842","0.38998","5"],
    [6242,"HCEP03730564","2023-12-02 09:00:00","12.0936","3.55383","28.209","1.644","7.47","0.623","3.799","0.08","0.08","30.5952","4.79035","18.53","2","SATNPRO1963","28.134","0.39404","5"],
    [6243,"HCEP03730564","2023-12-02 09:15:00","12.0923","3.5536","28.228","1.635","7.47","0.573","3.732","0.05","0.07","30.594","4.7902","18.42","2","SATNPRO1963","28.657999999999998","0.40144","5"],
    [6244,"HCEP03730564","2023-12-02 09:30:00","12.0921","3.55352","28.207","1.622","7.47","0.563","3.764","0.05","0.12","30.5935","4.79014","18.28","2","SATNPRO1963","28.908","0.40488","5"],
    [6245,"HCEP03730564","2023-12-02 09:45:00","12.0946","3.55431","28.195","1.612","7.47","0.602","4.038","0.05","0.06","30.5989","4.79087","18.17","2","SATNPRO1963","28.942","0.40536","5"],
    [6246,"HCEP03730564","2023-12-02 10:00:00","12.089","3.55267","28.211","1.587","7.47","0.56","3.454","0.05","0.09","30.5878","4.78939","17.88","0","SATNPRO1963","28.768","0.40294","5"],
    [6247,"HCEP03730564","2023-12-02 10:15:00","12.0905","3.55304","28.134","1.599","7.47","0.635","3.39","0.09","0.23","30.5902","4.78969","18.01","2","SATNPRO1963","28.578","0.40028","5"],
    [6248,"HCEP03730564","2023-12-02 10:30:00","12.095","3.55442","28.109","1.604","7.47","0.638","3.389","0.08","0.07","30.5997","4.79097","18.07","2","SATNPRO1963","28.67","0.40154","5"],
    [6249,"HCEP03730564","2023-12-02 10:45:00","12.1006","3.55703","28.042","1.366","7.46","0.557","3.477","0.1","0.12","30.6201","4.79376","15.4","2","SATNPRO1963","28.69","0.40192","5"],
    [6250,"HCEP03730564","2023-12-02 11:00:00","12.1023","3.55761","27.977","1.303","7.45","0.551","3.747","0.06","0.07","30.6242","4.79432","14.69","2","SATNPRO1963","28.387999999999998","0.39764","5"],
    [6251,"HCEP03730564","2023-12-02 11:15:00","12.0903","3.55459","27.906","1.332","7.45","0.551","3.747","0.06","0.07","30.6052","4.79181","15.01","0","SATNPRO1963","28.54","0.39972","5"],
    [6252,"HCEP03730564","2023-12-02 11:30:00","12.0564","3.54561","27.771","1.573","7.46","0.551","3.747","0.06","0.07","30.5471","4.78406","17.71","0","SATNPRO1963","28.826","0.40372","5"],
    [6253,"HCEP03730564","2023-12-02 11:45:00","12.0538","3.54468","27.704","1.664","7.47","0.551","3.747","0.06","0.07","30.5404","4.78315","18.73","0","SATNPRO1963","27.84","0.38996","5"],
    [6254,"HCEP03730564","2023-12-02 12:00:00","12.0667","3.54807","27.612","1.662","7.47","0.551","3.747","0.06","0.07","30.5624","4.78607","18.71","0","SATNPRO1963","27.958","0.39156","5"],
    [6255,"HCEP03730564","2023-12-02 12:15:00","12.0841","3.5536","27.538","1.458","7.47","0.551","3.747","0.06","0.07","30.6011","4.79128","16.43","0","SATNPRO1963","28.098","0.39354","5"],
    [6256,"HCEP03730564","2023-12-02 12:30:00","12.087","3.55436","27.448","1.391","7.46","0.551","3.747","0.06","0.07","30.606","4.79193","15.68","0","SATNPRO1963","28.622","0.4009","5"],
    [6257,"HCEP03730564","2023-12-02 12:45:00","12.0913","3.55536","27.319","1.345","7.45","0.551","3.747","0.06","0.07","30.612","4.79272","15.16","0","SATNPRO1963","28.802","0.40342","5"],
    [6258,"HCEP03730564","2023-12-02 13:00:00","12.0944","3.5561","27.331","1.331","7.45","0.551","3.747","0.06","0.07","30.6165","4.79331","15","0","SATNPRO1963","28.708","0.40206","5"],
    [6259,"HCEP03730564","2023-12-02 13:15:00","12.0942","3.55611","27.091","1.354","7.45","0.551","3.747","0.06","0.07","30.6169","4.79335","15.26","0","SATNPRO1963","28.088","0.39342","5"],
    [6260,"HCEP03730564","2023-12-02 13:30:00","12.094","3.55604","27.073","1.379","7.45","0.551","3.747","0.06","0.07","30.6164","4.79328","15.54","0","SATNPRO1963","27.786","0.3892","5"],
    [6261,"HCEP03730564","2023-12-02 13:45:00","12.0917","3.55544","26.93","1.429","7.46","0.551","3.747","0.06","0.07","30.6126","4.79278","16.1","0","SATNPRO1963","28.024","0.39248","5"],
    [6262,"HCEP03730564","2023-12-02 14:00:00","12.086","3.5539","26.845","1.532","7.46","0.551","3.747","0.06","0.07","30.6026","4.79144","17.26","0","SATNPRO1963","27.752","0.3887","5"],
    [6263,"HCEP03730564","2023-12-02 14:15:00","12.0749","3.55152","26.794","1.653","7.47","0.551","3.747","0.06","0.07","30.5889","4.78966","18.62","0","SATNPRO1963","27.99","0.39204","5"],
    [6264,"HCEP03730564","2023-12-02 14:30:00","11.972","3.52138","26.703","2.316","7.5","0.551","3.747","0.06","0.07","30.3846","4.76223","26","0","SATNPRO1963","28.098","0.39358","5"],
    [6265,"HCEP03730564","2023-12-02 14:45:00","11.9649","3.51685","26.635","2.5","7.52","0.551","3.747","0.06","0.07","30.3469","4.75701","28.05","0","SATNPRO1963","28.358","0.3972","5"],
    [6266,"HCEP03730564","2023-12-02 15:00:00","11.9606","3.51719","26.635","2.523","7.52","0.551","3.747","0.06","0.07","30.3538","4.75804","28.31","0","SATNPRO1963","28.972","0.4058","5"],
    [6267,"HCEP03730564","2023-12-02 15:15:00","12.0686","3.54972","26.63","1.944","7.5","0.551","3.747","0.06","0.07","30.5769","4.78804","21.89","0","SATNPRO1963","29.002","0.40624","5"],
    [6268,"HCEP03730564","2023-12-02 15:30:00","12.0849","3.55369","26.597","1.762","7.49","0.551","3.747","0.06","0.07","30.6016","4.79129","19.85","0","SATNPRO1963","30.56","0.42808","5"],
    [6269,"HCEP03730564","2023-12-02 15:45:00","12.0954","3.55643","26.569","1.637","7.48","0.551","3.747","0.06","0.07","30.6191","4.79362","18.45","0","SATNPRO1963","30.888","0.43266","5"],
    [6270,"HCEP03730564","2023-12-02 16:00:00","12.0982","3.55707","26.614","1.525","7.47","0.551","3.747","0.06","0.07","30.6231","4.79414","17.19","0","SATNPRO1963","30.582","0.42836","5"],
    [6271,"HCEP03730564","2023-12-02 16:15:00","12.1","3.55757","26.61","1.359","7.46","0.551","3.747","0.06","0.07","30.6263","4.79457","15.32","0","SATNPRO1963","29.026","0.40658","5"],
    [6272,"HCEP03730564","2023-12-02 16:30:00","12.1014","3.55794","26.643","1.209","7.45","0.551","3.747","0.06","0.07","30.6286","4.79488","13.63","0","SATNPRO1963","29.28","0.41014","5"],
    [6273,"HCEP03730564","2023-12-02 16:45:00","12.1017","3.55816","26.649","1.062","7.44","0.551","3.747","0.06","0.07","30.6305","4.79513","11.97","0","SATNPRO1963","29.046","0.40684","5"],
    [6274,"HCEP03730564","2023-12-02 17:00:00","12.1024","3.55835","26.671","0.967","7.43","0.551","3.747","0.06","0.07","30.6318","4.79531","10.9","0","SATNPRO1963","28.832","0.40386","5"],
    [6275,"HCEP03730564","2023-12-02 17:15:00","12.1021","3.55871","26.69","0.97","7.42","0.551","3.747","0.06","0.07","30.6355","4.79584","10.93","0","SATNPRO1963","28.328","0.39678","5"],
    [6276,"HCEP03730564","2023-12-02 17:30:00","12.1037","3.55957","26.731","1.072","7.43","0.551","3.747","0.06","0.07","30.6423","4.79678","12.09","0","SATNPRO1963","27.95","0.3915","5"],
    [6277,"HCEP03730564","2023-12-02 17:45:00","12.1082","3.56248","26.758","1.351","7.44","0.551","3.747","0.06","0.07","30.6665","4.80013","15.23","0","SATNPRO1963","27.528000000000002","0.38558","5"],
    [6278,"HCEP03730564","2023-12-02 18:00:00","12.1068","3.56411","26.784","1.761","7.47","0.551","3.747","0.06","0.07","30.6832","4.8025","19.86","0","SATNPRO1963","26.983999999999998","0.37792","5"],
    [6279,"HCEP03730564","2023-12-02 18:15:00","12.0981","3.56492","26.813","2.298","7.49","0.551","3.747","0.06","0.07","30.698","4.80472","25.92","0","SATNPRO1963","27.496000000000002","0.38512","5"],
    [6280,"HCEP03730564","2023-12-02 18:30:00","12.0963","3.5651","26.831","2.627","7.52","0.551","3.747","0.06","0.07","30.7012","4.8052","29.63","0","SATNPRO1963","27.788","0.3892","5"],
    [6281,"HCEP03730564","2023-12-02 18:45:00","12.0921","3.56519","26.85","2.815","7.54","0.551","3.747","0.06","0.07","30.7056","4.80587","31.74","0","SATNPRO1963","28.964","0.4057","5"],
    [6282,"HCEP03730564","2023-12-02 19:00:00","12.0924","3.56511","26.863","2.89","7.55","0.551","3.747","0.06","0.07","30.7046","4.80572","32.59","0","SATNPRO1963","29.944","0.41944","5"],
    [6283,"HCEP03730564","2023-12-02 19:15:00","12.091","3.56502","26.86","2.934","7.56","0.551","3.747","0.06","0.07","30.7048","4.80577","33.08","0","SATNPRO1963","30.72","0.43032","5"],
    [6284,"HCEP03730564","2023-12-02 19:30:00","12.0936","3.56453","26.857","2.874","7.57","0.551","3.747","0.06","0.07","30.698","4.80479","32.41","0","SATNPRO1963","30.927999999999997","0.43322","5"],
    [6285,"HCEP03730564","2023-12-02 19:45:00","12.0965","3.56394","26.896","2.731","7.56","0.551","3.747","0.06","0.07","30.69","4.80361","30.79","0","SATNPRO1963","31.03","0.43464","5"],
    [6286,"HCEP03730564","2023-12-02 20:00:00","12.099","3.56379","26.865","2.554","7.55","0.551","3.747","0.06","0.07","30.6865","4.80308","28.8","0","SATNPRO1963","31.096","0.43552","5"],
    [6287,"HCEP03730564","2023-12-02 20:15:00","12.1047","3.5632","26.856","2.339","7.54","0.551","3.747","0.06","0.07","30.6761","4.80154","26.38","0","SATNPRO1963","31.12","0.4359","5"],
    [6288,"HCEP03730564","2023-12-02 20:30:00","12.1071","3.56265","26.798","2.047","7.52","0.551","3.747","0.06","0.07","30.6689","4.8005","23.09","0","SATNPRO1963","31.122","0.43588","5"],
    [6289,"HCEP03730564","2023-12-02 20:45:00","12.107","3.56175","26.68","1.892","7.5","0.551","3.747","0.06","0.07","30.6605","4.79929","21.33","0","SATNPRO1963","31.054","0.435","5"],
    [6290,"HCEP03730564","2023-12-02 21:00:00","12.1054","3.56132","26.605","1.857","7.49","0.551","3.747","0.06","0.07","30.6576","4.79891","20.93","0","SATNPRO1963","30.884","0.4326","5"],
    [6291,"HCEP03730564","2023-12-02 21:15:00","12.1064","3.56233","26.597","1.885","7.49","0.551","3.747","0.06","0.07","30.6666","4.80016","21.26","0","SATNPRO1963","30.084","0.42136","5"],
    [6292,"HCEP03730564","2023-12-02 21:30:00","12.1053","3.56279","26.45","2.016","7.49","0.551","3.747","0.06","0.07","30.6719","4.80092","22.74","0","SATNPRO1963","30.242","0.4236","5"],
    [6293,"HCEP03730564","2023-12-02 21:45:00","12.1042","3.56338","26.33","2.081","7.5","0.551","3.747","0.06","0.07","30.6785","4.80185","23.46","0","SATNPRO1963","29.752","0.41674","5"],
    [6294,"HCEP03730564","2023-12-02 22:00:00","12.1047","3.56284","26.192","2.035","7.51","0.551","3.747","0.06","0.07","30.673","4.80107","22.94","0","SATNPRO1963","29.698","0.41592","5"],
    [6295,"HCEP03730564","2023-12-02 22:15:00","12.104","3.56118","26.076","1.903","7.5","0.551","3.747","0.06","0.07","30.6577","4.79892","21.46","0","SATNPRO1963","29.907999999999998","0.41892","5"],
    [6296,"HCEP03730564","2023-12-02 22:30:00","12.1027","3.55969","25.936","1.799","7.5","0.551","3.747","0.06","0.07","30.6447","4.79709","20.29","0","SATNPRO1963","30.162","0.4225","5"],
    [6297,"HCEP03730564","2023-12-02 22:45:00","12.1045","3.56074","25.847","1.716","7.48","0.551","3.747","0.06","0.07","30.6532","4.79825","19.35","0","SATNPRO1963","30.246","0.42366","5"],
    [6298,"HCEP03730564","2023-12-02 23:00:00","12.1039","3.56158","25.668","1.696","7.47","0.551","3.747","0.06","0.07","30.6618","4.79947","19.13","0","SATNPRO1963","29.98","0.41994","5"],
    [6299,"HCEP03730564","2023-12-02 23:15:00","12.1052","3.56159","25.521","1.633","7.47","0.551","3.747","0.06","0.07","30.6609","4.79931","18.42","0","SATNPRO1963","29.62","0.41488","5"],
    [6300,"HCEP03730564","2023-12-02 23:30:00","12.1046","3.56087","25.34","1.462","7.47","0.551","3.747","0.06","0.07","30.6546","4.79842","16.49","0","SATNPRO1963","29.832","0.41786","5"],
    [6301,"HCEP03730564","2023-12-02 23:45:00","12.101","3.56004","25.236","1.464","7.46",null,null,null,null,"30.6496","4.79777","16.5","2","SATNPRO1963","29.568","0.41416","5"],
    [6302,"HCEP03730564","2023-12-03 00:00:00","12.0993","3.56001","25.067","1.578","7.46",null,null,null,null,"30.6507","4.79794","17.79","2","SATNPRO1963","29.626","0.41498","5"],
    [6303,"HCEP03730564","2023-12-03 00:15:00","12.0989","3.55998","25.008","1.63","7.47",null,null,null,null,"30.6508","4.79796","18.38","2","SATNPRO1963","29.323999999999998","0.41072","5"],
    [6304,"HCEP03730564","2023-12-03 00:30:00","12.0981","3.55958","24.751","1.614","7.47",null,null,null,null,"30.6478","4.79753","18.19","2","SATNPRO1963","28.828","0.40382","5"],
    [6305,"HCEP03730564","2023-12-03 00:45:00","12.097","3.55849","24.616","1.52","7.47",null,null,null,null,"30.6383","4.79619","17.13","2","SATNPRO1963","29.25","0.40966","5"],
    [6306,"HCEP03730564","2023-12-03 01:00:00","12.0948","3.55728","24.496","1.385","7.46",null,null,null,null,"30.6285","4.79484","15.61","2","SATNPRO1963","29.396","0.41174","5"],
    [6307,"HCEP03730564","2023-12-03 01:15:00","12.0928","3.55596","24.49","1.245","7.45",null,null,null,null,"30.6177","4.79333","14.04","2","SATNPRO1963","29.444","0.41242","5"],
    [6308,"HCEP03730564","2023-12-03 01:30:00","12.0912","3.55513","24.383","1.161","7.44",null,null,null,null,"30.6111","4.79242","13.09","2","SATNPRO1963","29.402","0.41182","5"],
    [6309,"HCEP03730564","2023-12-03 01:45:00","12.0909","3.55514","24.418","1.146","7.44",null,null,null,null,"30.6113","4.79246","12.92","2","SATNPRO1963","28.712","0.40216","5"],
    [6310,"HCEP03730564","2023-12-03 02:00:00","12.0907","3.55499","24.432","1.135","7.43",null,null,null,null,"30.6101","4.79229","12.79","2","SATNPRO1963","28.308","0.39646","5"],
    [6311,"HCEP03730564","2023-12-03 02:15:00","12.0901","3.55469","24.477","1.127","7.43",null,null,null,null,"30.6077","4.79197","12.7","2","SATNPRO1963","27.872","0.39038","5"],
    [6312,"HCEP03730564","2023-12-03 02:30:00","12.0886","3.55425","24.532","1.119","7.43",null,null,null,null,"30.6047","4.79157","12.61","2","SATNPRO1963","27.808","0.3895","5"],
    [6313,"HCEP03730564","2023-12-03 02:45:00","12.0876","3.55403","24.615","1.119","7.43",null,null,null,null,"30.6033","4.79139","12.61","2","SATNPRO1963","27.698","0.38798","5"],
    [6314,"HCEP03730564","2023-12-03 03:00:00","12.0857","3.55343","24.688","1.125","7.43",null,null,null,null,"30.5991","4.79083","12.68","2","SATNPRO1963","27.768","0.38896","5"],
    [6315,"HCEP03730564","2023-12-03 03:15:00","12.0849","3.55312","24.752","1.147","7.43",null,null,null,null,"30.5969","4.79052","12.92","2","SATNPRO1963","27.59","0.38642","5"],
    [6316,"HCEP03730564","2023-12-03 03:30:00","12.0829","3.55248","24.807","1.176","7.43",null,null,null,null,"30.5923","4.78992","13.25","2","SATNPRO1963","27.578","0.38628","5"],
    [6317,"HCEP03730564","2023-12-03 03:45:00","12.0814","3.55204","24.933","1.204","7.43",null,null,null,null,"30.5893","4.78951","13.57","2","SATNPRO1963","27.636","0.3871","5"],
    [6318,"HCEP03730564","2023-12-03 04:00:00","12.0798","3.55167","25.098","1.231","7.43",null,null,null,null,"30.587","4.78923","13.86","2","SATNPRO1963","27.342","0.38296","5"],
    [6319,"HCEP03730564","2023-12-03 04:15:00","12.0788","3.55133","25.236","1.243","7.44",null,null,null,null,"30.5845","4.78889","14","2","SATNPRO1963","27.518","0.38542","5"],
    [6320,"HCEP03730564","2023-12-03 04:30:00","12.0782","3.55114","25.424","1.243","7.44",null,null,null,null,"30.5832","4.78872","14","2","SATNPRO1963","27.637999999999998","0.3871","5"],
    [6321,"HCEP03730564","2023-12-03 04:45:00","12.078","3.55106","25.556","1.252","7.44",null,null,null,null,"30.5824","4.78863","14.1","2","SATNPRO1963","27.686","0.38776","5"],
    [6322,"HCEP03730564","2023-12-03 05:00:00","12.0768","3.55078","25.736","1.275","7.44",null,null,null,null,"30.5807","4.78841","14.36","2","SATNPRO1963","27.564","0.38604","5"],
    [6323,"HCEP03730564","2023-12-03 05:15:00","12.077","3.55083","25.913","1.29","7.44",null,null,null,null,"30.5809","4.78845","14.53","2","SATNPRO1963","27.791999999999998","0.38928","5"],
    [6324,"HCEP03730564","2023-12-03 05:30:00","12.0761","3.55064","26.076","1.288","7.44",null,null,null,null,"30.5798","4.78831","14.51","2","SATNPRO1963","27.72","0.3883","5"],
    [6325,"HCEP03730564","2023-12-03 05:45:00","12.0761","3.55049","26.306","1.296","7.44",null,null,null,null,"30.5784","4.78812","14.59","2","SATNPRO1963","27.802","0.38942","5"],
    [6326,"HCEP03730564","2023-12-03 06:00:00","12.0755","3.55037","26.454","1.293","7.44",null,null,null,null,"30.5777","4.78804","14.56","2","SATNPRO1963","27.79","0.38922","5"],
    [6327,"HCEP03730564","2023-12-03 06:15:00","12.0746","3.55016","26.679","1.296","7.44",null,null,null,null,"30.5762","4.78785","14.6","2","SATNPRO1963","27.812","0.38952","5"],
    [6328,"HCEP03730564","2023-12-03 06:30:00","12.0744","3.55012","26.883","1.286","7.44",null,null,null,null,"30.5759","4.78783","14.48","2","SATNPRO1963","27.904","0.39082","5"],
    [6329,"HCEP03730564","2023-12-03 06:45:00","12.0741","3.54994","27.059","1.271","7.44",null,null,null,null,"30.5744","4.78763","14.32","2","SATNPRO1963","27.732","0.38848","5"],
    [6330,"HCEP03730564","2023-12-03 07:00:00","12.0731","3.54973","27.224","1.272","7.44",null,null,null,null,"30.5731","4.78748","14.33","2","SATNPRO1963","27.978","0.3919","5"],
    [6331,"HCEP03730564","2023-12-03 07:15:00","12.0729","3.54967","27.383","1.269","7.44",null,null,null,null,"30.5726","4.78742","14.3","2","SATNPRO1963","27.62","0.38688","5"],
    [6332,"HCEP03730564","2023-12-03 07:30:00","12.0723","3.54963","27.543","1.272","7.44",null,null,null,null,"30.5726","4.78743","14.33","2","SATNPRO1963","27.592000000000002","0.3865","5"],
    [6333,"HCEP03730564","2023-12-03 07:45:00","12.0717","3.54956","27.684","1.272","7.44",null,null,null,null,"30.5725","4.78743","14.32","2","SATNPRO1963","27.61","0.38672","5"],
    [6334,"HCEP03730564","2023-12-03 08:00:00","12.0714","3.54951","27.81","1.272","7.44",null,null,null,null,"30.5721","4.78739","14.32","2","SATNPRO1963","27.61","0.38672","5"],
    [6335,"HCEP03730564","2023-12-03 08:15:00","12.0707","3.54937","27.927","1.264","7.44",null,null,null,null,"30.5714","4.7873","14.23","2","SATNPRO1963","27.586","0.38638","5"],
    [6336,"HCEP03730564","2023-12-03 08:30:00","12.0614","3.54803","27.925","1.322","7.44",null,null,null,null,"30.5662","4.7867","14.88","2","SATNPRO1963","27.66","0.38746","5"],
    [6337,"HCEP03730564","2023-12-03 08:45:00","12.0247","3.53765","28.053","1.469","7.45",null,null,null,null,"30.4968","4.77741","16.52","2","SATNPRO1963","27.605999999999998","0.38668","5"],
    [6338,"HCEP03730564","2023-12-03 09:00:00","12.0399","3.54059","28.057","1.451","7.45",null,null,null,null,"30.5125","4.77942","16.33","2","SATNPRO1963","27.666","0.38754","5"],
    [6339,"HCEP03730564","2023-12-03 09:15:00","12.0432","3.54135","28.129","1.405","7.45",null,null,null,null,"30.517","4.78002","15.8","2","SATNPRO1963","27.476","0.38488","5"],
    [6340,"HCEP03730564","2023-12-03 09:30:00","12.0464","3.54289","28.133","1.394","7.45",null,null,null,null,"30.5291","4.78169","15.69","2","SATNPRO1963","27.926000000000002","0.39112","5"],
    [6341,"HCEP03730564","2023-12-03 09:45:00","11.981","3.52753","28.212","1.537","7.45",null,null,null,null,"30.4354","4.76937","17.26","2","SATNPRO1963","28.330000000000002","0.39684","5"],
    [6342,"HCEP03730564","2023-12-03 10:00:00","11.9736","3.52852","28.224","1.58","7.46",null,null,null,null,"30.451","4.77168","17.74","2","SATNPRO1963","27.866","0.39032","5"],
    [6343,"HCEP03730564","2023-12-03 10:15:00","12.0692","3.55004","28.138","1.179","7.45",null,null,null,null,"30.5789","4.78839","13.28","2","SATNPRO1963","27.928","0.39116","5"],
    [6344,"HCEP03730564","2023-12-03 10:30:00","12.0448","3.54234","28.115","1.186","7.44",null,null,null,null,"30.5253","4.78116","13.35","2","SATNPRO1963","27.666","0.38748","5"],
    [6345,"HCEP03730564","2023-12-03 10:45:00","12.0433","3.54386","28.15","1.187","7.43",null,null,null,null,"30.541","4.7834","13.36","2","SATNPRO1963","27.875999999999998","0.3905","5"],
    [6346,"HCEP03730564","2023-12-03 11:00:00","12.0455","3.54423","28.2","1.302","7.43",null,null,null,null,"30.5428","4.78363","14.65","2","SATNPRO1963","27.084","0.37936","5"],
    [6347,"HCEP03730564","2023-12-03 11:15:00","12.0497","3.54539","28.124","1.435","7.44",null,null,null,null,"30.5504","4.78464","16.16","2","SATNPRO1963","26.48","0.37092","5"],
    [6348,"HCEP03730564","2023-12-03 11:30:00","12.0513","3.54592","28.038","1.49","7.45",null,null,null,null,"30.5542","4.78515","16.77","2","SATNPRO1963","26.622","0.37286","5"],
    [6349,"HCEP03730564","2023-12-03 11:45:00","12.0591","3.5476","27.982","1.473","7.45",null,null,null,null,"30.5639","4.78642","16.58","2","SATNPRO1963","26.682","0.3737","5"],
    [6350,"HCEP03730564","2023-12-03 12:00:00","12.066","3.54942","27.89","1.381","7.44",null,null,null,null,"30.5757","4.78797","15.55","2","SATNPRO1963","27.759999999999998","0.38884","5"],
    [6351,"HCEP03730564","2023-12-03 12:15:00","12.0696","3.55026","27.75","1.297","7.44",null,null,null,null,"30.5808","4.78864","14.61","2","SATNPRO1963","28.208000000000002","0.39506","5"],
    [6352,"HCEP03730564","2023-12-03 12:30:00","12.0714","3.55075","27.666","1.261","7.44",null,null,null,null,"30.584","4.78906","14.2","2","SATNPRO1963","28.368","0.39736","5"],
    [6353,"HCEP03730564","2023-12-03 12:45:00","12.0725","3.55097","27.606","1.239","7.43",null,null,null,null,"30.5852","4.78921","13.96","2","SATNPRO1963","28.496","0.39916","5"],
    [6354,"HCEP03730564","2023-12-03 13:00:00","12.0731","3.5511","27.556","1.221","7.43",null,null,null,null,"30.5861","4.78933","13.75","2","SATNPRO1963","28.136","0.39408","5"],
    [6355,"HCEP03730564","2023-12-03 13:15:00","12.0736","3.55118","27.457","1.206","7.43",null,null,null,null,"30.5865","4.78937","13.58","2","SATNPRO1963","28.01","0.39232","5"],
    [6356,"HCEP03730564","2023-12-03 13:30:00","12.0737","3.55118","27.35","1.201","7.43",null,null,null,null,"30.5865","4.78935","13.52","2","SATNPRO1963","28.122","0.39386","5"],
    [6357,"HCEP03730564","2023-12-03 13:45:00","12.074","3.5511","27.272","1.208","7.43",null,null,null,null,"30.5854","4.7892","13.61","2","SATNPRO1963","28.093999999999998","0.39354","5"],
    [6358,"HCEP03730564","2023-12-03 14:00:00","12.0739","3.551","27.141","1.207","7.43",null,null,null,null,"30.5847","4.78909","13.6","2","SATNPRO1963","27.852","0.39012","5"],
    [6359,"HCEP03730564","2023-12-03 14:15:00","12.0739","3.55085","27.062","1.208","7.43",null,null,null,null,"30.5832","4.78888","13.6","2","SATNPRO1963","27.862000000000002","0.39028","5"],
    [6360,"HCEP03730564","2023-12-03 14:30:00","12.0735","3.5509","27.017","1.201","7.44",null,null,null,null,"30.5841","4.78901","13.52","2","SATNPRO1963","27.962","0.3917","5"],
    [6361,"HCEP03730564","2023-12-03 14:45:00","12.0723","3.55034","26.893","1.195","7.44",null,null,null,null,"30.5797","4.7884","13.46","2","SATNPRO1963","27.87","0.39038","5"],
    [6362,"HCEP03730564","2023-12-03 15:00:00","12.0734","3.55083","26.832","1.197","7.43",null,null,null,null,"30.5836","4.78892","13.48","2","SATNPRO1963","27.786","0.38918","5"],
    [6363,"HCEP03730564","2023-12-03 15:15:00","12.0733","3.55085","26.774","1.206","7.43",null,null,null,null,"30.5838","4.78896","13.58","2","SATNPRO1963","27.844","0.39002","5"],
    [6364,"HCEP03730564","2023-12-03 15:30:00","12.0729","3.55083","26.725","1.215","7.43",null,null,null,null,"30.5839","4.78897","13.68","2","SATNPRO1963","27.754","0.38876","5"],
    [6365,"HCEP03730564","2023-12-03 15:45:00","12.0736","3.5511","26.638","1.21","7.43",null,null,null,null,"30.586","4.78925","13.63","2","SATNPRO1963","27.654","0.38734","5"],
    [6366,"HCEP03730564","2023-12-03 16:00:00","12.0743","3.55155","26.531","1.204","7.43",null,null,null,null,"30.5898","4.78977","13.56","2","SATNPRO1963","27.85","0.39008","5"],
    [6367,"HCEP03730564","2023-12-03 16:15:00","12.0655","3.55221","26.485","1.515","7.43",null,null,null,null,"30.6033","4.79179","17.07","2","SATNPRO1963","27.776","0.38904","5"],
    [6368,"HCEP03730564","2023-12-03 16:30:00","12.064","3.55279","26.477","1.843","7.45",null,null,null,null,"30.6101","4.79277","20.76","2","SATNPRO1963","27.855999999999998","0.3902","5"],
    [6369,"HCEP03730564","2023-12-03 16:45:00","12.0654","3.55495","26.46","2.139","7.49",null,null,null,null,"30.6297","4.79551","24.1","2","SATNPRO1963","27.79","0.38928","5"],
    [6370,"HCEP03730564","2023-12-03 17:00:00","12.0589","3.55486","26.518","2.444","7.51",null,null,null,null,"30.6341","4.79623","27.53","2","SATNPRO1963","27.576","0.38626","5"],
    [6371,"HCEP03730564","2023-12-03 17:15:00","12.0548","3.55471","26.561","2.66","7.53",null,null,null,null,"30.6359","4.79655","29.96","2","SATNPRO1963","28.573999999999998","0.40026","5"],
    [6372,"HCEP03730564","2023-12-03 17:30:00","12.0587","3.55485","26.562","2.59","7.54",null,null,null,null,"30.6342","4.79625","29.17","2","SATNPRO1963","29.206","0.40908","5"],
    [6373,"HCEP03730564","2023-12-03 17:45:00","12.0612","3.55487","26.578","2.465","7.54",null,null,null,null,"30.6322","4.79594","27.77","2","SATNPRO1963","29.97","0.41978","5"],
    [6374,"HCEP03730564","2023-12-03 18:00:00","12.0645","3.55507","26.585","2.354","7.53",null,null,null,null,"30.6315","4.79578","26.51","2","SATNPRO1963","30.554","0.42796","5"],
    [6375,"HCEP03730564","2023-12-03 18:15:00","12.0692","3.55576","26.594","2.225","7.53",null,null,null,null,"30.6342","4.7961","25.06","2","SATNPRO1963","30.662","0.42944","5"],
    [6376,"HCEP03730564","2023-12-03 18:30:00","12.07","3.55597","26.616","2.163","7.51",null,null,null,null,"30.6356","4.79629","24.37","2","SATNPRO1963","30.704","0.43006","5"],
    [6377,"HCEP03730564","2023-12-03 18:45:00","12.0713","3.55639","26.603","2.135","7.51",null,null,null,null,"30.6385","4.79669","24.05","2","SATNPRO1963","30.152","0.42234","5"],
    [6378,"HCEP03730564","2023-12-03 19:00:00","12.0735","3.55671","26.606","2.086","7.51",null,null,null,null,"30.6398","4.79684","23.5","2","SATNPRO1963","30.284","0.42418","5"],
    [6379,"HCEP03730564","2023-12-03 19:15:00","12.0769","3.55751","26.615","2.021","7.5",null,null,null,null,"30.6447","4.79748","22.77","2","SATNPRO1963","30.09","0.42144","5"],
    [6380,"HCEP03730564","2023-12-03 19:30:00","12.0805","3.55805","26.645","1.966","7.5",null,null,null,null,"30.6469","4.79775","22.15","2","SATNPRO1963","29.784000000000002","0.41718","5"],
    [6381,"HCEP03730564","2023-12-03 19:45:00","12.0812","3.55808","26.657","1.914","7.5","0.551","3.747","0.06","0.07","30.6465","4.79769","21.57","0","SATNPRO1963","29.928","0.4192","5"],
    [6382,"HCEP03730564","2023-12-03 20:00:00","12.0821","3.55811","26.631","1.894","7.49","0.551","3.747","0.06","0.07","30.6461","4.79761","21.34","0","SATNPRO1963","29.558","0.414","5"],
    [6383,"HCEP03730564","2023-12-03 20:15:00","12.0831","3.55805","26.675","1.86","7.49","0.551","3.747","0.06","0.07","30.6448","4.79741","20.96","0","SATNPRO1963","29.508","0.41334","5"],
    [6384,"HCEP03730564","2023-12-03 20:30:00","12.0826","3.55759","26.639","1.837","7.49","0.551","3.747","0.06","0.07","30.6407","4.79685","20.7","0","SATNPRO1963","29.548","0.4139","5"],
    [6385,"HCEP03730564","2023-12-03 20:45:00","12.0805","3.55669","26.664","1.836","7.48","0.551","3.747","0.06","0.07","30.6338","4.7959","20.69","0","SATNPRO1963","29.614","0.41478","5"],
    [6386,"HCEP03730564","2023-12-03 21:00:00","12.0777","3.55577","26.569","1.858","7.48","0.551","3.747","0.06","0.07","30.6273","4.79502","20.94","0","SATNPRO1963","29.586000000000002","0.41438","5"],
    [6387,"HCEP03730564","2023-12-03 21:15:00","12.0747","3.55463","26.527","1.884","7.48","0.551","3.747","0.06","0.07","30.6189","4.79387","21.22","0","SATNPRO1963","29.657999999999998","0.41542","5"],
    [6388,"HCEP03730564","2023-12-03 21:30:00","12.0733","3.55408","26.437","1.9","7.49",null,null,null,null,"30.6149","4.79332","21.41","2","SATNPRO1963","29.844","0.41804","5"],
    [6389,"HCEP03730564","2023-12-03 21:45:00","12.0698","3.55289","26.433","1.911","7.49",null,null,null,null,"30.6063","4.79216","21.53","2","SATNPRO1963","29.669999999999998","0.41558","5"],
    [6390,"HCEP03730564","2023-12-03 22:00:00","12.0689","3.55279","26.357","1.899","7.49",null,null,null,null,"30.6062","4.79214","21.39","2","SATNPRO1963","29.907999999999998","0.4189","5"],
    [6391,"HCEP03730564","2023-12-03 22:15:00","12.0712","3.55356","26.298","1.85","7.48",null,null,null,null,"30.6117","4.79289","20.84","2","SATNPRO1963","30.11","0.42172","5"],
    [6392,"HCEP03730564","2023-12-03 22:30:00","12.0682","3.55263","26.28","1.846","7.48",null,null,null,null,"30.6052","4.79201","20.79","2","SATNPRO1963","30.006","0.42032","5"],
    [6393,"HCEP03730564","2023-12-03 22:45:00","12.0734","3.55417","26.168","1.788","7.48",null,null,null,null,"30.6158","4.79343","20.14","2","SATNPRO1963","30.073999999999998","0.42124","5"],
    [6394,"HCEP03730564","2023-12-03 23:00:00","12.0715","3.55363","26.073","1.749","7.48",null,null,null,null,"30.6122","4.79295","19.71","2","SATNPRO1963","29.87","0.4184","5"],
    [6395,"HCEP03730564","2023-12-03 23:15:00","12.0754","3.55452","25.994","1.703","7.48",null,null,null,null,"30.6175","4.79364","19.19","2","SATNPRO1963","29.914","0.41896","5"],
    [6396,"HCEP03730564","2023-12-03 23:30:00","12.0722","3.55447","25.921","1.751","7.48",null,null,null,null,"30.6197","4.79399","19.72","2","SATNPRO1963","29.642","0.4152","5"],
    [6397,"HCEP03730564","2023-12-03 23:45:00","12.0687","3.55489","25.823","1.895","7.48",null,null,null,null,"30.6266","4.795","21.35","2","SATNPRO1963","29.308","0.41052","5"],
    [6398,"HCEP03730564","2023-12-04 00:00:00","12.0671","3.55491","25.766","2.016","7.49",null,null,null,null,"30.6281","4.79523","22.71","2","SATNPRO1963","29.564","0.4141","5"],
    [6399,"HCEP03730564","2023-12-04 00:15:00","12.0647","3.55516","25.634","2.146","7.5",null,null,null,null,"30.6326","4.79589","24.17","2","SATNPRO1963","29.224","0.40932","5"],
    [6400,"HCEP03730564","2023-12-04 00:30:00","12.0628","3.55553","25.519","2.287","7.51",null,null,null,null,"30.6377","4.79663","25.76","2","SATNPRO1963","29.44","0.41236","5"],
    [6401,"HCEP03730564","2023-12-04 00:45:00","12.0607","3.55566","25.445","2.414","7.52",null,null,null,null,"30.6406","4.79707","27.19","2","SATNPRO1963","29.49","0.41306","5"],
    [6402,"HCEP03730564","2023-12-04 01:00:00","12.0589","3.55593","25.315","2.53","7.53",null,null,null,null,"30.6447","4.79766","28.5","2","SATNPRO1963","29.708000000000002","0.4161","5"],
    [6403,"HCEP03730564","2023-12-04 01:15:00","12.058","3.55612","25.249","2.615","7.54",null,null,null,null,"30.6474","4.79805","29.45","2","SATNPRO1963","29.832","0.41786","5"],
    [6404,"HCEP03730564","2023-12-04 01:30:00","12.058","3.55609","25.045","2.647","7.54",null,null,null,null,"30.6472","4.79801","29.81","2","SATNPRO1963","30.122","0.42196","5"],
    [6405,"HCEP03730564","2023-12-04 01:45:00","12.058","3.55611","24.976","2.646","7.54",null,null,null,null,"30.6474","4.79803","29.8","2","SATNPRO1963","30.428","0.4262","5"],
    [6406,"HCEP03730564","2023-12-04 02:00:00","12.0581","3.55593","24.914","2.638","7.54",null,null,null,null,"30.6456","4.79777","29.72","2","SATNPRO1963","30.82","0.4317","5"],
    [6407,"HCEP03730564","2023-12-04 02:15:00","12.058","3.55602","24.876","2.641","7.55",null,null,null,null,"30.6466","4.79791","29.75","2","SATNPRO1963","30.67","0.4296","5"],
    [6408,"HCEP03730564","2023-12-04 02:30:00","12.0579","3.55598","24.873","2.642","7.55",null,null,null,null,"30.6463","4.79787","29.76","2","SATNPRO1963","30.7","0.43002","5"],
    [6409,"HCEP03730564","2023-12-04 02:45:00","12.0579","3.55614","24.86","2.654","7.55",null,null,null,null,"30.6478","4.79809","29.89","2","SATNPRO1963","30.762","0.43088","5"],
    [6410,"HCEP03730564","2023-12-04 03:00:00","12.0575","3.55619","24.91","2.664","7.56",null,null,null,null,"30.6486","4.79821","30.01","2","SATNPRO1963","30.63","0.42902","5"],
    [6411,"HCEP03730564","2023-12-04 03:15:00","12.0575","3.55626","24.936","2.663","7.55",null,null,null,null,"30.6493","4.7983","29.99","2","SATNPRO1963","30.695999999999998","0.42994","5"],
    [6412,"HCEP03730564","2023-12-04 03:30:00","12.0576","3.55635","25.007","2.667","7.55",null,null,null,null,"30.65","4.7984","30.04","2","SATNPRO1963","30.856","0.43222","5"],
    [6413,"HCEP03730564","2023-12-04 03:45:00","12.057","3.55609","25.055","2.669","7.55",null,null,null,null,"30.648","4.79813","30.06","2","SATNPRO1963","30.634","0.42904","5"],
    [6414,"HCEP03730564","2023-12-04 04:00:00","12.0569","3.55609","25.087","2.655","7.55",null,null,null,null,"30.6481","4.79815","29.9","2","SATNPRO1963","30.844","0.432","5"],
    [6415,"HCEP03730564","2023-12-04 04:15:00","12.0561","3.55569","25.212","2.641","7.55",null,null,null,null,"30.6448","4.79771","29.75","2","SATNPRO1963","30.766000000000002","0.43092","5"],
    [6416,"HCEP03730564","2023-12-04 04:30:00","12.0558","3.55542","25.283","2.622","7.55",null,null,null,null,"30.6425","4.7974","29.53","2","SATNPRO1963","30.726","0.43036","5"],
    [6417,"HCEP03730564","2023-12-04 04:45:00","12.0556","3.55519","25.387","2.605","7.55",null,null,null,null,"30.6404","4.7971","29.34","2","SATNPRO1963","30.668","0.42956","5"],
    [6418,"HCEP03730564","2023-12-04 05:00:00","12.0554","3.55501","25.5","2.582","7.55",null,null,null,null,"30.6388","4.79688","29.08","2","SATNPRO1963","30.814","0.43158","5"],
    [6419,"HCEP03730564","2023-12-04 05:15:00","12.0551","3.55489","25.644","2.567","7.54",null,null,null,null,"30.6378","4.79676","28.91","2","SATNPRO1963","30.75","0.43066","5"],
    [6420,"HCEP03730564","2023-12-04 05:30:00","12.0551","3.55485","25.789","2.555","7.54",null,null,null,null,"30.6374","4.7967","28.77","2","SATNPRO1963","30.805999999999997","0.43148","5"],
    [6421,"HCEP03730564","2023-12-04 05:45:00","12.0546","3.55467","25.929","2.544","7.54",null,null,null,null,"30.636","4.79653","28.65","2","SATNPRO1963","30.477999999999998","0.42692","5"],
    [6422,"HCEP03730564","2023-12-04 06:00:00","12.0546","3.55464","26.076","2.534","7.54",null,null,null,null,"30.6356","4.79648","28.53","2","SATNPRO1963","30.826","0.43176","5"],
    [6423,"HCEP03730564","2023-12-04 06:15:00","12.0545","3.55451","26.232","2.52","7.54",null,null,null,null,"30.6345","4.79633","28.38","2","SATNPRO1963","30.762","0.43084","5"],
    [6424,"HCEP03730564","2023-12-04 06:30:00","12.0545","3.5545","26.452","2.513","7.54",null,null,null,null,"30.6343","4.79631","28.3","2","SATNPRO1963","30.644","0.42922","5"],
    [6425,"HCEP03730564","2023-12-04 06:45:00","12.0542","3.55446","26.588","2.505","7.54",null,null,null,null,"30.6341","4.79631","28.22","2","SATNPRO1963","30.52","0.42748","5"],
    [6426,"HCEP03730564","2023-12-04 07:00:00","12.0542","3.5544","26.781","2.502","7.54",null,null,null,null,"30.6334","4.79621","28.17","2","SATNPRO1963","30.482","0.42694","5"],
    [6427,"HCEP03730564","2023-12-04 07:15:00","12.0541","3.55442","26.902","2.495","7.54",null,null,null,null,"30.6336","4.79625","28.1","2","SATNPRO1963","30.528","0.42758","5"],
    [6428,"HCEP03730564","2023-12-04 07:30:00","12.0545","3.55469","27.069","2.507","7.54",null,null,null,null,"30.6359","4.79658","28.23","2","SATNPRO1963","30.548","0.4279","5"],
    [6429,"HCEP03730564","2023-12-04 07:45:00","12.0546","3.55471","27.212","2.492","7.54",null,null,null,null,"30.6359","4.79658","28.07","2","SATNPRO1963","30.396","0.42578","5"],
    [6430,"HCEP03730564","2023-12-04 08:00:00","12.0566","3.55486","27.408","2.364","7.53",null,null,null,null,"30.6357","4.79653","26.62","2","SATNPRO1963","30.644000000000002","0.42922","5"],
    [6431,"HCEP03730564","2023-12-04 08:15:00","12.0649","3.55776","27.534","2.311","7.52",null,null,null,null,"30.6565","4.79936","26.04","2","SATNPRO1963","30.594","0.42852","5"],
    [6432,"HCEP03730564","2023-12-04 08:30:00","12.0665","3.55836","27.654","2.333","7.53",null,null,null,null,"30.661","4.79998","26.28","2","SATNPRO1963","30.33","0.42482","5"],
    [6433,"HCEP03730564","2023-12-04 08:45:00","12.0669","3.55858","27.717","2.355","7.53",null,null,null,null,"30.6627","4.80021","26.53","2","SATNPRO1963","30.296","0.42436","5"],
    [6434,"HCEP03730564","2023-12-04 09:00:00","12.0671","3.55866","27.836","2.373","7.53",null,null,null,null,"30.6633","4.80031","26.74","2","SATNPRO1963","29.79","0.41722","5"],
    [6435,"HCEP03730564","2023-12-04 09:15:00","12.0672","3.55872","27.911","2.375","7.53",null,null,null,null,"30.6636","4.80036","26.76","2","SATNPRO1963","30.164","0.42246","5"],
    [6436,"HCEP03730564","2023-12-04 09:30:00","12.0678","3.55882","27.944","2.37","7.53",null,null,null,null,"30.6642","4.80042","26.7","2","SATNPRO1963","30.080000000000002","0.4213","5"],
    [6437,"HCEP03730564","2023-12-04 09:45:00","12.0679","3.55891","28.008","2.362","7.53",null,null,null,null,"30.6649","4.80053","26.62","2","SATNPRO1963","30.262","0.42388","5"],
    [6438,"HCEP03730564","2023-12-04 10:00:00","12.0672","3.55873","28.05","2.36","7.52",null,null,null,null,"30.6638","4.80038","26.59","2","SATNPRO1963","30.212","0.42316","5"],
    [6439,"HCEP03730564","2023-12-04 10:15:00","12.0608","3.55669","28.103","2.382","7.53",null,null,null,null,"30.6494","4.79845","26.83","2","SATNPRO1963","30.23","0.42342","5"],
    [6440,"HCEP03730564","2023-12-04 10:30:00","12.0671","3.55887","28.129","2.362","7.53",null,null,null,null,"30.6651","4.80058","26.61","2","SATNPRO1963","30.259999999999998","0.42382","5"],
    [6441,"HCEP03730564","2023-12-04 10:45:00","12.0691","3.55923","28.184","2.343","7.52",null,null,null,null,"30.6669","4.8008","26.4","2","SATNPRO1963","30.158","0.4224","5"],
    [6442,"HCEP03730564","2023-12-04 11:00:00","12.0703","3.55981","28.097","2.359","7.52",null,null,null,null,"30.6715","4.80143","26.58","2","SATNPRO1963","30.106","0.42168","5"],
    [6443,"HCEP03730564","2023-12-04 11:15:00","12.0712","3.55983","28.156","2.39","7.53",null,null,null,null,"30.6709","4.80134","26.93","2","SATNPRO1963","30.142","0.42218","5"],
    [6444,"HCEP03730564","2023-12-04 11:30:00","12.0708","3.5591","28.058","2.357","7.53",null,null,null,null,"30.6643","4.80041","26.55","2","SATNPRO1963","30.03","0.42062","5"],
    [6445,"HCEP03730564","2023-12-04 11:45:00","12.0702","3.55895","28.086","2.358","7.53",null,null,null,null,"30.6634","4.80029","26.56","2","SATNPRO1963","29.945999999999998","0.41944","5"],
    [6446,"HCEP03730564","2023-12-04 12:00:00","12.0693","3.55866","28.012","2.376","7.53",null,null,null,null,"30.6614","4.80002","26.77","2","SATNPRO1963","30.12","0.42188","5"],
    [6447,"HCEP03730564","2023-12-04 12:15:00","12.0692","3.55856","27.891","2.374","7.53",null,null,null,null,"30.6605","4.79989","26.75","2","SATNPRO1963","30.296","0.42432","5"],
    [6448,"HCEP03730564","2023-12-04 12:30:00","12.0695","3.55843","27.841","2.364","7.53",null,null,null,null,"30.6591","4.79968","26.63","2","SATNPRO1963","30.37","0.42538","5"],
    [6449,"HCEP03730564","2023-12-04 12:45:00","12.0702","3.55866","27.87","2.36","7.52",null,null,null,null,"30.6607","4.7999","26.59","2","SATNPRO1963","30.407999999999998","0.4259","5"],
    [6450,"HCEP03730564","2023-12-04 13:00:00","12.0708","3.55888","27.696","2.372","7.52",null,null,null,null,"30.6623","4.80012","26.72","2","SATNPRO1963","30.476","0.42686","5"],
    [6451,"HCEP03730564","2023-12-04 13:15:00","12.0714","3.55914","27.614","2.382","7.52",null,null,null,null,"30.6644","4.80039","26.84","2","SATNPRO1963","30.484","0.42698","5"],
    [6452,"HCEP03730564","2023-12-04 13:30:00","12.0715","3.55921","27.481","2.392","7.52",null,null,null,null,"30.665","4.80046","26.95","2","SATNPRO1963","30.508","0.4273","5"],
    [6453,"HCEP03730564","2023-12-04 13:45:00","12.0707","3.55901","27.344","2.398","7.52",null,null,null,null,"30.6638","4.8003","27.02","2","SATNPRO1963","30.41","0.42596","5"],
    [6454,"HCEP03730564","2023-12-04 14:00:00","12.07","3.55863","27.258","2.385","7.53",null,null,null,null,"30.6608","4.79988","26.88","2","SATNPRO1963","30.624","0.42896","5"],
    [6455,"HCEP03730564","2023-12-04 14:15:00","12.0695","3.55843","27.158","2.386","7.53",null,null,null,null,"30.659300000000002","4.79968","26.89","2","SATNPRO1963","30.63","0.42904","5"],
    [6456,"HCEP03730564","2023-12-04 14:30:00","12.0677","3.55756","27.113","2.376","7.53",null,null,null,null,"30.6524","4.79873","26.77","2","SATNPRO1963","30.63","0.42906","5"],
    [6457,"HCEP03730564","2023-12-04 14:45:00","12.0677","3.55759","27.032","2.368","7.53",null,null,null,null,"30.6528","4.79877","26.68","2","SATNPRO1963","30.828","0.43178","5"],
    [6458,"HCEP03730564","2023-12-04 15:00:00","12.0671","3.55729","26.796","2.361","7.52",null,null,null,null,"30.6505","4.79845","26.6","2","SATNPRO1963","30.746","0.43064","5"],
    [6459,"HCEP03730564","2023-12-04 15:15:00","12.068","3.55764","26.697","2.35","7.53",null,null,null,null,"30.6532","4.7988","26.48","2","SATNPRO1963","30.834","0.4319","5"],
    [6460,"HCEP03730564","2023-12-04 15:30:00","12.0673","3.55733","26.712","2.348","7.52",null,null,null,null,"30.6507","4.79847","26.45","2","SATNPRO1963","30.726","0.4304","5"],
    [6461,"HCEP03730564","2023-12-04 15:45:00","12.0665","3.55716","26.68","2.343","7.52",null,null,null,null,"30.6498","4.79835","26.4","2","SATNPRO1963","30.636","0.42908","5"],
    [6462,"HCEP03730564","2023-12-04 16:00:00","12.0658","3.55668","26.58","2.343","7.52",null,null,null,null,"30.6458","4.79779","26.4","2","SATNPRO1963","30.586","0.42842","5"],
    [6463,"HCEP03730564","2023-12-04 16:15:00","12.0657","3.55656","26.41","2.344","7.52",null,null,null,null,"30.6448","4.79765","26.4","2","SATNPRO1963","30.702","0.43","5"],
    [6464,"HCEP03730564","2023-12-04 16:30:00","12.0635","3.55531","26.46","2.329","7.52",null,null,null,null,"30.6347","4.79624","26.24","2","SATNPRO1963","30.584","0.42838","5"],
    [6465,"HCEP03730564","2023-12-04 16:45:00","12.0573","3.55358","26.404","2.275","7.52",null,null,null,null,"30.6231","4.7947","25.62","2","SATNPRO1963","30.712","0.43018","5"],
    [6466,"HCEP03730564","2023-12-04 17:00:00","12.0619","3.55505","26.462","2.271","7.52",null,null,null,null,"30.6335","4.7961","25.58","2","SATNPRO1963","30.86","0.43226","5"],
    [6467,"HCEP03730564","2023-12-04 17:15:00","12.0586","3.55408","26.409","2.253","7.52",null,null,null,null,"30.6269","4.79522","25.37","2","SATNPRO1963","30.772","0.43096","5"],
    [6468,"HCEP03730564","2023-12-04 17:30:00","12.0546","3.55299","26.382","2.238","7.52",null,null,null,null,"30.6198","4.79426","25.2","2","SATNPRO1963","30.592","0.42848","5"],
    [6469,"HCEP03730564","2023-12-04 17:45:00","12.0518","3.55242","26.412","2.225","7.52",null,null,null,null,"30.6166","4.79386","25.05","2","SATNPRO1963","30.746","0.43064","5"],
    [6470,"HCEP03730564","2023-12-04 18:00:00","12.0523","3.55238","26.451","2.225","7.51",null,null,null,null,"30.6159","4.79375","25.06","2","SATNPRO1963","30.632","0.42906","5"],
    [6471,"HCEP03730564","2023-12-04 18:15:00","12.0552","3.55328","26.386","2.231","7.51",null,null,null,null,"30.6221","4.79458","25.12","2","SATNPRO1963","30.7","0.42996","5"],
    [6472,"HCEP03730564","2023-12-04 18:30:00","12.0588","3.55448","26.33","2.238","7.51",null,null,null,null,"30.6306","4.79573","25.21","2","SATNPRO1963","30.398","0.42578","5"],
    [6473,"HCEP03730564","2023-12-04 18:45:00","12.0637","3.55592","26.41","2.254","7.51",null,null,null,null,"30.6403","4.79704","25.39","2","SATNPRO1963","30.326","0.42474","5"],
    [6474,"HCEP03730564","2023-12-04 19:00:00","12.0665","3.55692","26.458","2.289","7.51",null,null,null,null,"30.6477","4.79804","25.79","2","SATNPRO1963","30.524","0.42756","5"],
    [6475,"HCEP03730564","2023-12-04 19:15:00","12.0673","3.55743","26.51","2.312","7.52",null,null,null,null,"30.6517","4.7986","26.05","2","SATNPRO1963","30.364","0.42532","5"],
    [6476,"HCEP03730564","2023-12-04 19:30:00","12.0679","3.55772","26.572","2.318","7.52",null,null,null,null,"30.6541","4.79892","26.12","2","SATNPRO1963","30.509999999999998","0.42734","5"],
    [6477,"HCEP03730564","2023-12-04 19:45:00","12.0681","3.55786","26.564","2.318","7.52",null,null,null,null,"30.6552","4.79908","26.11","2","SATNPRO1963","30.53","0.42764","5"],
    [6478,"HCEP03730564","2023-12-04 20:00:00","12.0679","3.55779","26.619","2.307","7.52","0.551","3.747","0.06","0.07","30.6548","4.79903","25.99","0","SATNPRO1963","30.714","0.43016","5"],
    [6479,"HCEP03730564","2023-12-04 20:15:00","12.0686","3.55816","26.582","2.298","7.52","0.551","3.747","0.06","0.07","30.6577","4.79942","25.89","0","SATNPRO1963","30.592","0.4285","5"],
    [6480,"HCEP03730564","2023-12-04 20:30:00","12.0696","3.55876","26.758","2.299","7.52","0.551","3.747","0.06","0.07","30.6625","4.80011","25.9","0","SATNPRO1963","30.8","0.43142","5"],
    [6481,"HCEP03730564","2023-12-04 20:45:00","12.0704","3.55915","26.734","2.307","7.52","0.551","3.747","0.06","0.07","30.6657","4.80054","26","0","SATNPRO1963","30.704","0.43002","5"],
    [6482,"HCEP03730564","2023-12-04 21:00:00","12.0703","3.55922","26.664","2.292","7.52","0.551","3.747","0.06","0.07","30.6664","4.80064","25.83","0","SATNPRO1963","30.392","0.4257","5"],
    [6483,"HCEP03730564","2023-12-04 21:15:00","12.0719","3.56058","26.648","2.312","7.52","0.353","4.016","0","0","30.6781","4.80227","26.05","2","SATNPRO1963","30.412","0.426","5"],
    [6484,"HCEP03730564","2023-12-04 21:30:00","12.0724","3.56046","26.822","2.319","7.52","0.413","4.238","0.05","0.15","30.6764","4.80203","26.13","2","SATNPRO1963","30.552","0.4279","5"],
    [6485,"HCEP03730564","2023-12-04 21:45:00","12.0721","3.56029","26.722","2.313","7.52","0.411","3.933","0.04","0.21","30.6751","4.80184","26.07","2","SATNPRO1963","30.404","0.42584","5"],
    [6486,"HCEP03730564","2023-12-04 22:00:00","12.0723","3.56051","26.773","2.318","7.52","0.351","3.758","0.05","0.2","30.6771","4.80212","26.12","2","SATNPRO1963","30.358","0.42522","5"],
    [6487,"HCEP03730564","2023-12-04 22:15:00","12.0721","3.56042","26.762","2.314","7.52","0.424","3.873","0.06","0.12","30.6764","4.80202","26.08","2","SATNPRO1963","30.375999999999998","0.42552","5"],
    [6488,"HCEP03730564","2023-12-04 22:30:00","12.0716","3.56014","26.738","2.294","7.52","0.377","4.008","0.05","0.16","30.6742","4.80172","25.85","2","SATNPRO1963","30.29","0.4243","5"],
    [6489,"HCEP03730564","2023-12-04 22:45:00","12.0715","3.55967","26.703","2.289","7.52","0.401","3.611","0.06","0.13","30.6697","4.80109","25.79","2","SATNPRO1963","30.426000000000002","0.42618","5"],
    [6490,"HCEP03730564","2023-12-04 23:00:00","12.071","3.5598","26.655","2.28","7.52","0.366","3.9","0.05","0.12","30.6714","4.80133","25.69","2","SATNPRO1963","30.44","0.42636","5"],
    [6491,"HCEP03730564","2023-12-04 23:15:00","12.0705","3.55934","26.549","2.274","7.52","0.41","4.035","0.06","0.15","30.6674","4.80077","25.63","2","SATNPRO1963","30.136","0.4221","5"],
    [6492,"HCEP03730564","2023-12-04 23:30:00","12.0702","3.55922","26.529","2.269","7.52","0.369","4.231","0.02","0.23","30.6665","4.80065","25.56","2","SATNPRO1963","30.102","0.42164","5"],
    [6493,"HCEP03730564","2023-12-04 23:45:00","12.0696","3.55863","26.469","2.258","7.52","0.442","4.346","0.04","0.15","30.6615","4.79994","25.44","2","SATNPRO1963","30.448","0.42646","5"],
    [6494,"HCEP03730564","2023-12-05 00:00:00","12.0672","3.55775","26.461","2.242","7.52","0.419","4.531","0.05","0.2","30.6549","4.79905","25.26","2","SATNPRO1963","30.27","0.424","5"],
    [6495,"HCEP03730564","2023-12-05 00:15:00","12.0638","3.55635","26.271","2.222","7.52","0.441","4.159","0.06","0.06","30.6444","4.79761","25.03","2","SATNPRO1963","30.418","0.42604","5"],
    [6496,"HCEP03730564","2023-12-05 00:30:00","12.0636","3.55622","26.243","2.197","7.52","0.442","4.277","0.05","0.36","30.6433","4.79745","24.75","2","SATNPRO1963","30.342","0.425","5"],
    [6497,"HCEP03730564","2023-12-05 00:45:00","12.0556","3.55279","26.136","2.17","7.51","0.484","4.001","0.09","0.29","30.6172","4.79387","24.44","2","SATNPRO1963","30.189999999999998","0.42284","5"],
    [6498,"HCEP03730564","2023-12-05 01:00:00","12.0523","3.55067","25.993","2.128","7.51","0.489","3.958","0.06","0.3","30.5996","4.79143","23.96","2","SATNPRO1963","30.259999999999998","0.42386","5"],
    [6499,"HCEP03730564","2023-12-05 01:15:00","12.0499","3.55083","25.864","2.092","7.5","0.52","4.236","0.09","0.22","30.6032","4.79196","23.56","2","SATNPRO1963","30.268","0.424","5"],
    [6500,"HCEP03730564","2023-12-05 01:30:00","12.0469","3.55042","25.949","2.07","7.5","0.818","18.73","0.06","0.22","30.6016","4.79179","23.3","2","SATNPRO1963","30.176","0.42266","5"],
    [6501,"HCEP03730564","2023-12-05 01:45:00","12.0469","3.55027","25.864","2.07","7.5","0.818","18.73","0.06","0.22","30.6003","4.79159","23.31","0","SATNPRO1963","30.124","0.42194","5"],
    [6502,"HCEP03730564","2023-12-05 02:00:00","12.0464","3.55043","25.733","2.077","7.5","0.818","18.73","0.06","0.22","30.6022","4.79187","23.38","0","SATNPRO1963","30.206","0.42306","5"],
    [6503,"HCEP03730564","2023-12-05 02:15:00","12.0492","3.55098","25.753","2.083","7.5","0.818","18.73","0.06","0.22","30.6052","4.79225","23.46","0","SATNPRO1963","30.19","0.42284","5"],
    [6504,"HCEP03730564","2023-12-05 02:30:00","12.0508","3.55184","25.792","2.071","7.5","0.818","18.73","0.06","0.22","30.6121","4.7932","23.32","0","SATNPRO1963","30.11","0.42176","5"],
    [6505,"HCEP03730564","2023-12-05 02:45:00","12.0534","3.55284","25.82","2.087","7.5","0.818","18.73","0.06","0.22","30.6195","4.79421","23.5","0","SATNPRO1963","29.972","0.41982","5"],
    [6506,"HCEP03730564","2023-12-05 03:00:00","12.0558","3.55353","25.703","2.108","7.5","0.818","18.73","0.06","0.22","30.6242","4.79484","23.74","0","SATNPRO1963","30.088","0.42144","5"],
    [6507,"HCEP03730564","2023-12-05 03:15:00","12.0555","3.5537","25.678","2.101","7.51","0.818","18.73","0.06","0.22","30.6261","4.79511","23.66","0","SATNPRO1963","30.014","0.42038","5"],
    [6508,"HCEP03730564","2023-12-05 03:30:00","12.0535","3.55319","25.658","2.09","7.51","0.818","18.73","0.06","0.22","30.6228","4.79467","23.53","0","SATNPRO1963","29.808","0.41752","5"],
    [6509,"HCEP03730564","2023-12-05 03:45:00","12.0519","3.55258","25.598","2.075","7.51","0.818","18.73","0.06","0.22","30.6183","4.79405","23.36","0","SATNPRO1963","29.939999999999998","0.41938","5"],
    [6510,"HCEP03730564","2023-12-05 04:00:00","12.0509","3.55218","25.631","2.057","7.5","0.818","18.73","0.06","0.22","30.6153","4.79365","23.16","0","SATNPRO1963","29.96","0.41964","5"],
    [6511,"HCEP03730564","2023-12-05 04:15:00","12.0492","3.55157","25.6","2.052","7.5","0.818","18.73","0.06","0.22","30.6109","4.79305","23.11","0","SATNPRO1963","29.886","0.41862","5"],
    [6512,"HCEP03730564","2023-12-05 04:30:00","12.0492","3.55163","25.55","2.062","7.5","0.818","18.73","0.06","0.22","30.6115","4.79312","23.21","0","SATNPRO1963","29.776","0.41704","5"],
    [6513,"HCEP03730564","2023-12-05 04:45:00","12.0488","3.55145","25.601","2.066","7.5","0.818","18.73","0.06","0.22","30.6101","4.79293","23.26","0","SATNPRO1963","29.698","0.41598","5"],
    [6514,"HCEP03730564","2023-12-05 05:00:00","12.049","3.55142","25.615","2.058","7.5","0.818","18.73","0.06","0.22","30.6096","4.79287","23.17","0","SATNPRO1963","29.794","0.41732","5"],
    [6515,"HCEP03730564","2023-12-05 05:15:00","12.0486","3.55117","25.698","2.041","7.5","0.818","18.73","0.06","0.22","30.6076","4.79259","22.98","0","SATNPRO1963","29.978","0.4199","5"],
    [6516,"HCEP03730564","2023-12-05 05:30:00","12.0464","3.55051","25.784","2.013","7.49","0.818","18.73","0.06","0.22","30.6029","4.79197","22.66","0","SATNPRO1963","29.898","0.41878","5"],
    [6517,"HCEP03730564","2023-12-05 05:45:00","12.0447","3.54997","25.883","1.985","7.49","0.818","18.73","0.06","0.22","30.5992","4.79147","22.35","0","SATNPRO1963","29.958000000000002","0.41962","5"],
    [6518,"HCEP03730564","2023-12-05 06:00:00","12.0436","3.54953","25.976","1.956","7.49","0.818","18.73","0.06","0.22","30.5959","4.79102","22.02","0","SATNPRO1963","29.928","0.4192","5"],
    [6519,"HCEP03730564","2023-12-05 06:15:00","12.0429","3.54929","26.118","1.935","7.49","0.818","18.73","0.06","0.22","30.594","4.79078","21.79","0","SATNPRO1963","29.774","0.41706","5"],
    [6520,"HCEP03730564","2023-12-05 06:30:00","12.0406","3.54856","26.24","1.923","7.49","0.818","18.73","0.06","0.22","30.5888","4.79008","21.64","0","SATNPRO1963","29.68","0.41574","5"],
    [6521,"HCEP03730564","2023-12-05 06:45:00","12.0377","3.54771","26.409","1.916","7.49","0.818","18.73","0.06","0.22","30.5831","4.78932","21.56","0","SATNPRO1963","29.71","0.41614","5"],
    [6522,"HCEP03730564","2023-12-05 07:00:00","12.0348","3.54699","26.563","1.904","7.49","0.818","18.73","0.06","0.22","30.5786","4.78873","21.43","0","SATNPRO1963","29.57","0.41422","5"],
    [6523,"HCEP03730564","2023-12-05 07:15:00","12.041","3.54855","26.665","1.885","7.49","0.818","18.73","0.06","0.22","30.5883","4.79002","21.21","0","SATNPRO1963","29.908","0.41894","5"],
    [6524,"HCEP03730564","2023-12-05 07:30:00","12.0412","3.54871","26.823","1.882","7.48","0.818","18.73","0.06","0.22","30.5897","4.79023","21.18","0","SATNPRO1963","29.324","0.41074","5"],
    [6525,"HCEP03730564","2023-12-05 07:45:00","12.0371","3.5476","26.967","1.891","7.48","0.818","18.73","0.06","0.22","30.5823","4.78925","21.28","0","SATNPRO1963","29.336","0.41094","5"],
    [6526,"HCEP03730564","2023-12-05 08:00:00","12.0333","3.5463","27.124","1.881","7.48","0.818","18.73","0.06","0.22","30.5729","4.78799","21.17","0","SATNPRO1963","29.524","0.41352","5"],
    [6527,"HCEP03730564","2023-12-05 08:15:00","12.0293","3.54474","27.244","1.846","7.48","0.818","18.73","0.06","0.22","30.5612","4.7864","20.77","0","SATNPRO1963","29.292","0.4103","5"],
    [6528,"HCEP03730564","2023-12-05 08:30:00","12.0212","3.54233","27.423","1.784","7.48","0.818","18.73","0.06","0.22","30.5447","4.78419","20.06","0","SATNPRO1963","29.562","0.41408","5"],
    [6529,"HCEP03730564","2023-12-05 08:45:00","12.0179","3.5411","27.531","1.698","7.48","0.818","18.73","0.06","0.22","30.5356","4.78296","19.1","0","SATNPRO1963","29.418","0.41202","5"],
    [6530,"HCEP03730564","2023-12-05 09:00:00","11.9965","3.53643","27.667","1.678","7.47","0.818","18.73","0.06","0.22","30.5083","4.77941","18.86","0","SATNPRO1963","29.444","0.4124","5"],
    [6531,"HCEP03730564","2023-12-05 09:15:00","12.0144","3.54026","27.82","1.686","7.47","0.818","18.73","0.06","0.22","30.5303","4.78228","18.96","0","SATNPRO1963","29.448","0.41246","5"],
    [6532,"HCEP03730564","2023-12-05 09:30:00","12.006","3.53826","27.884","1.7","7.47","0.818","18.73","0.06","0.22","30.518","4.78066","19.11","0","SATNPRO1963","28.768","0.40292","5"],
    [6533,"HCEP03730564","2023-12-05 09:45:00","11.9982","3.53622","27.969","1.715","7.47","0.818","18.73","0.06","0.22","30.5048","4.77891","19.27","0","SATNPRO1963","28.407999999999998","0.3979","5"],
    [6534,"HCEP03730564","2023-12-05 10:00:00","11.9897","3.5337","28.017","1.72","7.47","0.818","18.73","0.06","0.22","30.4875","4.77659","19.32","0","SATNPRO1963","28.442","0.3984","5"],
    [6535,"HCEP03730564","2023-12-05 10:15:00","11.9366","3.52097","28.066","1.791","7.47","0.818","18.73","0.06","0.22","30.409","4.76624","20.1","0","SATNPRO1963","28.648","0.4013","5"],
    [6536,"HCEP03730564","2023-12-05 10:30:00","11.828","3.49376","28.107","2.029","7.48","0.818","18.73","0.06","0.22","30.2361","4.74334","22.69","0","SATNPRO1963","28.688","0.40182","5"],
    [6537,"HCEP03730564","2023-12-05 10:45:00","11.7295","3.47093","28.143","2.316","7.49","0.818","18.73","0.06","0.22","30.0967","4.725","25.81","0","SATNPRO1963","28.64","0.40116","5"],
    [6538,"HCEP03730564","2023-12-05 11:00:00","11.4046","3.39982","28.166","2.919","7.52","0.818","18.73","0.06","0.22","29.6724","4.66949","32.25","0","SATNPRO1963","28.81","0.40354","5"],
    [6539,"HCEP03730564","2023-12-05 11:15:00","11.2888","3.37502","28.198","3.586","7.56","0.818","18.73","0.06","0.22","29.5249","4.65022","39.47","0","SATNPRO1963","28.272000000000002","0.396","5"],
    [6540,"HCEP03730564","2023-12-05 11:30:00","11.1934","3.35773","28.212","3.946","7.58","0.818","18.73","0.06","0.22","29.4334","4.63859","43.31","0","SATNPRO1963","28.022","0.3925","5"],
    [6541,"HCEP03730564","2023-12-05 11:45:00","11.1564","3.34963","28.197","4.112","7.6","0.818","18.73","0.06","0.22","29.3842","4.63213","45.08","0","SATNPRO1963","28.184","0.39474","5"],
    [6542,"HCEP03730564","2023-12-05 12:00:00","11.0093","3.32299","28.157","4.592","7.63","0.818","18.73","0.06","0.22","29.2421","4.61408","50.13","0","SATNPRO1963","26.872","0.37638","5"],
    [6543,"HCEP03730564","2023-12-05 12:15:00","10.9503","3.3122","28.115","4.911","7.66","0.818","18.73","0.06","0.22","29.1838","4.60664","53.54","0","SATNPRO1963","26.208","0.3671","5"],
    [6544,"HCEP03730564","2023-12-05 12:30:00","11.0815","3.33725","28.078","4.759","7.67","0.818","18.73","0.06","0.22","29.3236","4.62461","52.05","0","SATNPRO1963","25.868","0.36236","5"],
    [6545,"HCEP03730564","2023-12-05 12:45:00","11.1358","3.34783","28.007","4.391","7.66","0.818","18.73","0.06","0.22","29.3832","4.63229","48.11","0","SATNPRO1963","25.8","0.36138","5"],
    [6546,"HCEP03730564","2023-12-05 13:00:00","11.055","3.33531","27.958","4.452","7.66","0.818","18.73","0.06","0.22","29.3258","4.62531","48.69","0","SATNPRO1963","24.6","0.34456","5"],
    [6547,"HCEP03730564","2023-12-05 13:15:00","11.1834","3.35288","27.869","4.363","7.66","0.818","18.73","0.06","0.22","29.3944","4.63318","47.84","0","SATNPRO1963","24.502","0.34316","5"],
    [6548,"HCEP03730564","2023-12-05 13:30:00","11.1503","3.34348","27.779","4.407","7.66","0.818","18.73","0.06","0.22","29.3294","4.62441","48.29","0","SATNPRO1963","24.48","0.34286","5"],
    [6549,"HCEP03730564","2023-12-05 13:45:00","11.1401","3.35388","27.671","4.36","7.66","0.818","18.73","0.06","0.22","29.4388","4.64012","47.82","0","SATNPRO1963","24.23","0.3394","5"],
    [6550,"HCEP03730564","2023-12-05 14:00:00","10.9017","3.30122","27.579","4.971","7.68","0.818","18.73","0.06","0.22","29.1153","4.59758","54.12","0","SATNPRO1963","23.42","0.32804","5"],
    [6551,"HCEP03730564","2023-12-05 14:15:00","10.8647","3.29311","27.468","5.326","7.71","0.818","18.73","0.06","0.22","29.0655","4.59102","57.9","0","SATNPRO1963","23.426000000000002","0.3281","5"],
    [6552,"HCEP03730564","2023-12-05 14:30:00","10.9529","3.32056","27.372","5.203","7.72","0.818","18.73","0.06","0.22","29.2636","4.61794","56.76","0","SATNPRO1963","23.445999999999998","0.3284","5"],
    [6553,"HCEP03730564","2023-12-05 14:45:00","10.9149","3.31385","27.254","5.155","7.72","0.818","18.73","0.06","0.22","29.2284","4.61348","56.2","0","SATNPRO1963","23.262","0.3258","5"],
    [6554,"HCEP03730564","2023-12-05 15:00:00","10.9385","3.30089","27.141","5.184","7.72","0.818","18.73","0.06","0.22","29.0832","4.59242","56.44","0","SATNPRO1963","22.96","0.32158","5"],
    [6555,"HCEP03730564","2023-12-05 15:15:00","10.7965","3.28331","27.02","5.517","7.74","0.818","18.73","0.06","0.22","29.0239","4.58608","59.89","0","SATNPRO1963","23.086000000000002","0.32338","5"],
    [6556,"HCEP03730564","2023-12-05 15:30:00","11.8957","3.51624","26.857","2.53","7.65","0.818","18.73","0.06","0.22","30.3974","4.76511","28.34","0","SATNPRO1963","23.172","0.32454","5"],
    [6557,"HCEP03730564","2023-12-05 15:45:00","11.2034","3.37946","26.71","3.199","7.58","0.818","18.73","0.06","0.22","29.637","4.66731","35.2","0","SATNPRO1963","22.852","0.3201","5"],
    [6558,"HCEP03730564","2023-12-05 16:00:00","11.2093","3.36584","26.559","4.26","7.64","0.818","18.73","0.06","0.22","29.5001","4.64776","46.79","0","SATNPRO1963","22.936","0.32126","5"],
    [6559,"HCEP03730564","2023-12-05 16:15:00","11.2118","3.36812","26.452","4.147","7.65","0.818","18.73","0.06","0.22","29.5202","4.65058","45.56","0","SATNPRO1963","22.944","0.32134","5"],
    [6560,"HCEP03730564","2023-12-05 16:30:00","11.2605","3.38026","26.33","4.092","7.65","0.818","18.73","0.06","0.22","29.5992","4.66109","45.02","0","SATNPRO1963","27.18","0.38074","5"],
    [6561,"HCEP03730564","2023-12-05 16:45:00","11.519","3.43115","26.255","3.567","7.63","0.818","18.73","0.06","0.22","29.8841","4.69777","39.53","0","SATNPRO1963","25.124","0.3519","5"],
    [6562,"HCEP03730564","2023-12-05 17:00:00","11.6165","3.45302","26.181","3.114","7.6","0.818","18.73","0.06","0.22","30.0163","4.71511","34.61","0","SATNPRO1963","24.812","0.34756","5"],
    [6563,"HCEP03730564","2023-12-05 17:15:00","11.7022","3.47016","26.144","2.754","7.57","0.818","18.73","0.06","0.22","30.112","4.72745","30.69","0","SATNPRO1963","24.786","0.3472","5"],
    [6564,"HCEP03730564","2023-12-05 17:30:00","11.7634","3.48424","26.094","2.476","7.54","0.818","18.73","0.06","0.22","30.198","4.73874","27.64","0","SATNPRO1963","25.086","0.35136","5"],
    [6565,"HCEP03730564","2023-12-05 17:45:00","11.7983","3.49189","26.073","2.299","7.53","0.818","18.73","0.06","0.22","30.2431","4.74463","25.68","0","SATNPRO1963","26.914","0.377","5"],
    [6566,"HCEP03730564","2023-12-05 18:00:00","11.8074","3.49441","26.066","2.221","7.51","0.818","18.73","0.06","0.22","30.2599","4.74688","24.82","0","SATNPRO1963","27.508","0.38528","5"],
    [6567,"HCEP03730564","2023-12-05 18:15:00","11.8139","3.49623","26.039","2.194","7.51","0.818","18.73","0.06","0.22","30.2721","4.74851","24.52","0","SATNPRO1963","27.438","0.38432","5"],
    [6568,"HCEP03730564","2023-12-05 18:30:00","11.7964","3.49335","26.007","2.244","7.5","0.818","18.73","0.06","0.22","30.2588","4.74687","25.08","0","SATNPRO1963","27.66","0.38746","5"],
    [6569,"HCEP03730564","2023-12-05 18:45:00","11.7749","3.48826","25.999","2.342","7.51","0.818","18.73","0.06","0.22","30.2273","4.74272","26.15","0","SATNPRO1963","27.584","0.38636","5"],
    [6570,"HCEP03730564","2023-12-05 19:00:00","11.8009","3.49524","25.992","2.406","7.51","0.818","18.73","0.06","0.22","30.2733","4.74886","26.89","0","SATNPRO1963","27.62","0.38684","5"],
    [6571,"HCEP03730564","2023-12-05 19:15:00","11.8573","3.50849","26.02","2.345","7.51","0.818","18.73","0.06","0.22","30.3546","4.75956","26.26","0","SATNPRO1963","27.562","0.38606","5"],
    [6572,"HCEP03730564","2023-12-05 19:30:00","11.8707","3.51165","26.021","2.292","7.51","0.818","18.73","0.06","0.22","30.374","4.76211","25.67","0","SATNPRO1963","27.73","0.38844","5"],
    [6573,"HCEP03730564","2023-12-05 19:45:00","11.8889","3.5153","26.055","2.222","7.51","0.818","18.73","0.06","0.22","30.3942","4.76471","24.9","0","SATNPRO1963","27.772","0.389","5"],
    [6574,"HCEP03730564","2023-12-05 20:00:00","11.9027","3.51741","26.093","2.121","7.5","0.818","18.73","0.06","0.22","30.4032","4.76579","23.78","0","SATNPRO1963","28.764","0.40292","5"],
    [6575,"HCEP03730564","2023-12-05 20:15:00","11.9051","3.51822","26.125","2.07","7.5","0.818","18.73","0.06","0.22","30.409","4.76658","23.21","0","SATNPRO1963","28.852","0.4041","5"],
    [6576,"HCEP03730564","2023-12-05 20:30:00","11.9069","3.51809","26.169","2.046","7.49","0.818","18.73","0.06","0.22","30.4062","4.76617","22.93","0","SATNPRO1963","28.808","0.40354","5"],
    [6577,"HCEP03730564","2023-12-05 20:45:00","11.9088","3.51842","26.217","2.029","7.49","0.818","18.73","0.06","0.22","30.4078","4.76637","22.75","0","SATNPRO1963","28.87","0.40436","5"],
    [6578,"HCEP03730564","2023-12-05 21:00:00","11.9074","3.5182","26.262","2.025","7.49","0.818","18.73","0.06","0.22","30.4069","4.76625","22.71","0","SATNPRO1963","28.678","0.40168","5"],
    [6579,"HCEP03730564","2023-12-05 21:15:00","11.9098","3.51868","26.308","2.03","7.49","0.818","18.73","0.06","0.22","30.4095","4.76659","22.76","0","SATNPRO1963","28.764","0.40284","5"],
    [6580,"HCEP03730564","2023-12-05 21:30:00","11.9151","3.51979","26.368","2.02","7.49","0.818","18.73","0.06","0.22","30.4158","4.76741","22.65","0","SATNPRO1963","28.442","0.3984","5"],
    [6581,"HCEP03730564","2023-12-05 21:45:00","11.9156","3.51958","26.422","2.004","7.49","0.818","18.73","0.06","0.22","30.4134","4.76707","22.47","0","SATNPRO1963","28.696","0.40194","5"],
    [6582,"HCEP03730564","2023-12-05 22:00:00","11.9124","3.51839","26.458","1.989","7.49","0.818","18.73","0.06","0.22","30.4045","4.76586","22.3","0","SATNPRO1963","28.5","0.39922","5"],
    [6583,"HCEP03730564","2023-12-05 22:15:00","11.9074","3.51674","26.527","1.983","7.49","0.818","18.73","0.06","0.22","30.3928","4.76429","22.23","0","SATNPRO1963","28.573999999999998","0.40024","5"],
    [6584,"HCEP03730564","2023-12-05 22:30:00","11.9134","3.51893","26.583","1.988","7.49","0.818","18.73","0.06","0.22","30.4089","4.76647","22.29","0","SATNPRO1963","28.53","0.39962","5"],
    [6585,"HCEP03730564","2023-12-05 22:45:00","11.9154","3.52","26.613","1.998","7.49","0.818","18.73","0.06","0.22","30.4175","4.76766","22.4","0","SATNPRO1963","28.31","0.39658","5"],
    [6586,"HCEP03730564","2023-12-05 23:00:00","11.9183","3.52061","26.628","1.99","7.49","0.818","18.73","0.06","0.22","30.421","4.76811","22.31","0","SATNPRO1963","28.608","0.4007","5"],
    [6587,"HCEP03730564","2023-12-05 23:15:00","11.9225","3.52166","26.668","1.981","7.49","0.818","18.73","0.06","0.22","30.4276","4.76899","22.22","0","SATNPRO1963","28.4","0.39774","5"],
    [6588,"HCEP03730564","2023-12-05 23:30:00","11.8456","3.49978","26.649","2.138","7.49","0.818","18.73","0.06","0.22","30.2803","4.74925","23.92","0","SATNPRO1963","28.608","0.4007","5"],
    [6589,"HCEP03730564","2023-12-05 23:45:00","11.9183","3.52017","26.634","2.076","7.49","0.818","18.73","0.06","0.22","30.4167","4.76751","23.28","0","SATNPRO1963","28.684","0.4018","5"],
    [6590,"HCEP03730564","2023-12-06 00:00:00","11.9066","3.51791","26.596","2.012","7.49","0.818","18.73","0.06","0.22","30.4047","4.76597","22.56","0","SATNPRO1963","28.786","0.4032","5"],
    [6591,"HCEP03730564","2023-12-06 00:15:00","11.8966","3.51526","26.587","2.01","7.49","0.818","18.73","0.06","0.22","30.3874","4.76367","22.53","0","SATNPRO1963","28.642","0.40118","5"],
    [6592,"HCEP03730564","2023-12-06 00:30:00","11.8939","3.51498","26.613","1.997","7.49","0.818","18.73","0.06","0.22","30.3868","4.76363","22.38","0","SATNPRO1963","27.394","0.38372","5"],
    [6593,"HCEP03730564","2023-12-06 00:45:00","11.898","3.5157","26.575","1.977","7.49","0.818","18.73","0.06","0.22","30.3904","4.76408","22.16","0","SATNPRO1963","28.462","0.39866","5"],
    [6594,"HCEP03730564","2023-12-06 01:00:00","11.8844","3.5133","26.542","1.951","7.49","0.818","18.73","0.06","0.22","30.3785","4.76258","21.85","0","SATNPRO1963","28.404","0.3978","5"],
    [6595,"HCEP03730564","2023-12-06 01:15:00","11.9377","3.52498","26.497","1.872","7.48","0.818","18.73","0.06","0.22","30.4471","4.77153","21","0","SATNPRO1963","28.38","0.3975","5"],
    [6596,"HCEP03730564","2023-12-06 01:30:00","11.929","3.52306","26.459","1.895","7.48","0.818","18.73","0.06","0.22","30.4358","4.77005","21.26","0","SATNPRO1963","28.24","0.39556","5"],
    [6597,"HCEP03730564","2023-12-06 01:45:00","11.9455","3.52645","26.407","1.874","7.48","0.818","18.73","0.06","0.22","30.4549","4.77251","21.03","0","SATNPRO1963","28.162","0.39444","5"],
    [6598,"HCEP03730564","2023-12-06 02:00:00","11.9527","3.52772","26.357","1.854","7.48","0.818","18.73","0.06","0.22","30.4612","4.77329","20.81","0","SATNPRO1963","28.094","0.39352","5"],
    [6599,"HCEP03730564","2023-12-06 02:15:00","11.9571","3.52868","26.304","1.823","7.48","0.818","18.73","0.06","0.22","30.4668","4.77403","20.46","0","SATNPRO1963","28.27","0.39598","5"],
    [6600,"HCEP03730564","2023-12-06 02:30:00","11.9581","3.52889","26.247","1.803","7.48","0.818","18.73","0.06","0.22","30.468","4.77417","20.24","0","SATNPRO1963","28.448","0.39844","5"],
    [6601,"HCEP03730564","2023-12-06 02:45:00","11.9591","3.52912","26.189","1.806","7.48","0.818","18.73","0.06","0.22","30.4694","4.77436","20.27","0","SATNPRO1963","28.388","0.39766","5"],
    [6602,"HCEP03730564","2023-12-06 03:00:00","11.9602","3.52934","26.163","1.81","7.48","0.818","18.73","0.06","0.22","30.4706","4.77451","20.32","0","SATNPRO1963","28.414","0.39804","5"],
    [6603,"HCEP03730564","2023-12-06 03:15:00","11.9614","3.52951","26.106","1.797","7.48","0.818","18.73","0.06","0.22","30.4713","4.77459","20.18","0","SATNPRO1963","28.24","0.3955","5"],
    [6604,"HCEP03730564","2023-12-06 03:30:00","11.9617","3.52956","26.049","1.763","7.48","0.818","18.73","0.06","0.22","30.4716","4.77462","19.8","0","SATNPRO1963","28.264","0.3959","5"],
    [6605,"HCEP03730564","2023-12-06 03:45:00","11.9613","3.52953","25.994","1.726","7.48","0.818","18.73","0.06","0.22","30.4716","4.77463","19.39","0","SATNPRO1963","28.356","0.3972","5"],
    [6606,"HCEP03730564","2023-12-06 04:00:00","11.9606","3.52944","25.944","1.707","7.47","0.818","18.73","0.06","0.22","30.4713","4.77459","19.16","0","SATNPRO1963","28.412","0.39796","5"],
    [6607,"HCEP03730564","2023-12-06 04:15:00","11.962","3.52985","25.921","1.705","7.47","0.818","18.73","0.06","0.22","30.4741","4.77497","19.15","0","SATNPRO1963","28.346","0.39704","5"],
    [6608,"HCEP03730564","2023-12-06 04:30:00","11.9644","3.53039","25.877","1.715","7.47","0.818","18.73","0.06","0.22","30.4774","4.7754","19.26","0","SATNPRO1963","28.34","0.39694","5"],
    [6609,"HCEP03730564","2023-12-06 04:45:00","11.9674","3.53111","25.889","1.739","7.47","0.818","18.73","0.06","0.22","30.4818","4.77598","19.53","0","SATNPRO1963","28.118000000000002","0.39388","5"],
    [6610,"HCEP03730564","2023-12-06 05:00:00","11.9693","3.53158","25.889","1.775","7.47","0.818","18.73","0.06","0.22","30.4848","4.77637","19.94","0","SATNPRO1963","28.236","0.39552","5"],
    [6611,"HCEP03730564","2023-12-06 05:15:00","11.9681","3.53141","25.894","1.787","7.48","0.818","18.73","0.06","0.22","30.4841","4.77629","20.06","0","SATNPRO1963","28.048","0.39288","5"],
    [6612,"HCEP03730564","2023-12-06 05:30:00","11.9677","3.53136","25.927","1.796","7.48","0.818","18.73","0.06","0.22","30.4839","4.77628","20.17","0","SATNPRO1963","28.28","0.39612","5"],
    [6613,"HCEP03730564","2023-12-06 05:45:00","11.9671","3.53129","25.954","1.788","7.48","0.818","18.73","0.06","0.22","30.4838","4.77626","20.08","0","SATNPRO1963","28.418","0.39804","5"],
    [6614,"HCEP03730564","2023-12-06 06:00:00","11.9679","3.53151","25.996","1.775","7.48","0.818","18.73","0.06","0.22","30.4852","4.77646","19.94","0","SATNPRO1963","28.598","0.40056","5"],
    [6615,"HCEP03730564","2023-12-06 06:15:00","11.9677","3.53156","26.056","1.783","7.48","0.818","18.73","0.06","0.22","30.4859","4.77656","20.03","0","SATNPRO1963","28.602","0.4006","5"],
    [6616,"HCEP03730564","2023-12-06 06:30:00","11.9678","3.53172","26.144","1.789","7.48","0.818","18.73","0.06","0.22","30.4872","4.77674","20.09","0","SATNPRO1963","28.535999999999998","0.39966","5"],
    [6617,"HCEP03730564","2023-12-06 06:45:00","11.9649","3.53069","26.218","1.805","7.48","0.818","18.73","0.06","0.22","30.4798","4.77575","20.27","0","SATNPRO1963","28.596","0.40054","5"],
    [6618,"HCEP03730564","2023-12-06 07:00:00","11.9656","3.53129","26.298","1.778","7.48","0.818","18.73","0.06","0.22","30.4849","4.77646","19.96","0","SATNPRO1963","28.428","0.39816","5"],
    [6619,"HCEP03730564","2023-12-06 07:15:00","11.9672","3.53187","26.392","1.75","7.48","0.818","18.73","0.06","0.22","30.4891","4.77704","19.65","0","SATNPRO1963","28.733999999999998","0.40246","5"],
    [6620,"HCEP03730564","2023-12-06 07:30:00","11.9714","3.53321","26.496","1.742","7.47","0.818","18.73","0.06","0.22","30.4984","4.77829","19.57","0","SATNPRO1963","28.61","0.40076","5"],
    [6621,"HCEP03730564","2023-12-06 07:45:00","11.9742","3.5341","26.621","1.731","7.47","0.818","18.73","0.06","0.22","30.5046","4.77914","19.45","0","SATNPRO1963","28.614","0.4008","5"],
    [6622,"HCEP03730564","2023-12-06 08:00:00","11.9779","3.53512","26.739","1.729","7.47","0.818","18.73","0.06","0.22","30.5113","4.78004","19.43","0","SATNPRO1963","28.214","0.39516","5"],
    [6623,"HCEP03730564","2023-12-06 08:15:00","11.9776","3.53517","26.851","1.731","7.47","0.818","18.73","0.06","0.22","30.512","4.78015","19.45","0","SATNPRO1963","28.506","0.39926","5"],
    [6624,"HCEP03730564","2023-12-06 08:30:00","11.9766","3.535","26.967","1.73","7.47","0.818","18.73","0.06","0.22","30.5112","4.78006","19.43","0","SATNPRO1963","28.188","0.39478","5"],
    [6625,"HCEP03730564","2023-12-06 08:45:00","11.9756","3.53488","27.096","1.72","7.47","0.818","18.73","0.06","0.22","30.5107","4.78001","19.32","0","SATNPRO1963","28.516","0.39944","5"],
    [6626,"HCEP03730564","2023-12-06 09:00:00","11.9729","3.53426","27.208","1.709","7.47","0.818","18.73","0.06","0.22","30.5069","4.77952","19.2","0","SATNPRO1963","28.328","0.39678","5"],
    [6627,"HCEP03730564","2023-12-06 09:15:00","11.9702","3.53359","27.329","1.696","7.47","0.818","18.73","0.06","0.22","30.5027","4.77897","19.05","0","SATNPRO1963","28.43","0.39818","5"],
    [6628,"HCEP03730564","2023-12-06 09:30:00","11.9716","3.53393","27.451","1.695","7.47","0.818","18.73","0.06","0.22","30.5048","4.77926","19.04","0","SATNPRO1963","28.386","0.39756","5"],
    [6629,"HCEP03730564","2023-12-06 09:45:00","11.9727","3.53426","27.569","1.72","7.47","0.818","18.73","0.06","0.22","30.507","4.77955","19.32","0","SATNPRO1963","28.252","0.39568","5"],
    [6630,"HCEP03730564","2023-12-06 10:00:00","11.9777","3.53552","27.688","1.791","7.47","0.818","18.73","0.06","0.22","30.5149","4.7806","20.12","0","SATNPRO1963","28.198","0.39498","5"],
    [6631,"HCEP03730564","2023-12-06 10:15:00","11.9858","3.53759","27.78","1.922","7.48","0.818","18.73","0.06","0.22","30.528","4.78235","21.6","0","SATNPRO1963","28.242","0.3956","5"],
    [6632,"HCEP03730564","2023-12-06 10:30:00","11.9876","3.53809","27.866","1.993","7.48","0.818","18.73","0.06","0.22","30.5315","4.78282","22.4","0","SATNPRO1963","28.582","0.40034","5"],
    [6633,"HCEP03730564","2023-12-06 10:45:00","11.9878","3.53857","27.951","2.072","7.49","0.818","18.73","0.06","0.22","30.5358","4.78343","23.29","0","SATNPRO1963","28.36","0.39722","5"],
    [6634,"HCEP03730564","2023-12-06 11:00:00","11.9912","3.53987","28.035","2.153","7.5","0.818","18.73","0.06","0.22","30.5454","4.78474","24.2","0","SATNPRO1963","29.112","0.4078","5"],
    [6635,"HCEP03730564","2023-12-06 11:15:00","11.9918","3.53998","28.093","2.186","7.5","0.818","18.73","0.06","0.22","30.546","4.78481","24.57","0","SATNPRO1963","29.382","0.41156","5"],
    [6636,"HCEP03730564","2023-12-06 11:30:00","11.9924","3.54001","28.123","2.18","7.51","0.818","18.73","0.06","0.22","30.5457","4.78477","24.5","0","SATNPRO1963","29.396","0.41172","5"],
    [6637,"HCEP03730564","2023-12-06 11:45:00","11.9935","3.54015","28.138","2.151","7.51","0.818","18.73","0.06","0.22","30.5462","4.78483","24.18","0","SATNPRO1963","29.816","0.41764","5"],
    [6638,"HCEP03730564","2023-12-06 12:00:00","11.9959","3.54117","28.142","2.15","7.51","0.818","18.73","0.06","0.22","30.554","4.78589","24.18","0","SATNPRO1963","29.938","0.41932","5"],
    [6639,"HCEP03730564","2023-12-06 12:15:00","11.9984","3.54216","28.166","2.198","7.51","0.818","18.73","0.06","0.22","30.5614","4.7869","24.71","0","SATNPRO1963","29.816","0.41766","5"],
    [6640,"HCEP03730564","2023-12-06 12:30:00","12.0011","3.54336","28.158","2.282","7.51","0.818","18.73","0.06","0.22","30.5707","4.78818","25.66","0","SATNPRO1963","30.078","0.42134","5"],
    [6641,"HCEP03730564","2023-12-06 12:45:00","12.0041","3.54579","28.107","2.474","7.52","0.818","18.73","0.06","0.22","30.5916","4.79108","27.82","0","SATNPRO1963","29.919999999999998","0.41912","5"],
    [6642,"HCEP03730564","2023-12-06 13:00:00","12.0102","3.54874","28.027","2.65","7.53","0.818","18.73","0.06","0.22","30.6149","4.79428","29.81","0","SATNPRO1963","29.944","0.41946","5"],
    [6643,"HCEP03730564","2023-12-06 13:15:00","12.0148","3.55072","27.962","2.773","7.55","0.818","18.73","0.06","0.22","30.63","4.79634","31.21","0","SATNPRO1963","30.086","0.4214","5"],
    [6644,"HCEP03730564","2023-12-06 13:30:00","12.0198","3.55247","27.879","2.842","7.56","0.818","18.73","0.06","0.22","30.6427","4.79806","31.99","0","SATNPRO1963","30.19","0.42286","5"],
    [6645,"HCEP03730564","2023-12-06 13:45:00","12.0235","3.55348","27.776","2.879","7.56","0.818","18.73","0.06","0.22","30.6494","4.79894","32.4","0","SATNPRO1963","30.76","0.43082","5"],
    [6646,"HCEP03730564","2023-12-06 14:00:00","12.027","3.55429","27.671","2.884","7.56","0.818","18.73","0.06","0.22","30.6544","4.79959","32.46","0","SATNPRO1963","30.998","0.43418","5"],
    [6647,"HCEP03730564","2023-12-06 14:15:00","12.0282","3.55466","27.57","2.876","7.56","0.818","18.73","0.06","0.22","30.657","4.79994","32.37","0","SATNPRO1963","31.094","0.4355","5"],
    [6648,"HCEP03730564","2023-12-06 14:30:00","12.0277","3.55456","27.454","2.87","7.56","0.818","18.73","0.06","0.22","30.6564","4.79986","32.31","0","SATNPRO1963","31.304","0.43846","5"],
    [6649,"HCEP03730564","2023-12-06 14:45:00","12.0297","3.55508","27.335","2.877","7.57","0.818","18.73","0.06","0.22","30.6599","4.80032","32.39","0","SATNPRO1963","31.088","0.43548","5"],
    [6650,"HCEP03730564","2023-12-06 15:00:00","12.0294","3.55507","27.215","2.876","7.57","0.818","18.73","0.06","0.22","30.66","4.80033","32.38","0","SATNPRO1963","31.46","0.44066","5"],
    [6651,"HCEP03730564","2023-12-06 15:15:00","12.0286","3.55496","27.086","2.883","7.57","0.818","18.73","0.06","0.22","30.6597","4.80029","32.46","0","SATNPRO1963","31.308","0.4385","5"],
    [6652,"HCEP03730564","2023-12-06 15:30:00","12.0297","3.5552","26.939","2.872","7.57","0.818","18.73","0.06","0.22","30.6611","4.80047","32.33","0","SATNPRO1963","31.378","0.43948","5"],
    [6653,"HCEP03730564","2023-12-06 15:45:00","12.0309","3.55554","26.784","2.865","7.57","0.818","18.73","0.06","0.22","30.6635","4.80077","32.26","0","SATNPRO1963","31.432","0.44026","5"],
    [6654,"HCEP03730564","2023-12-06 16:00:00","12.0373","3.55723","26.628","2.872","7.57","0.818","18.73","0.06","0.22","30.6744","4.80223","32.34","0","SATNPRO1963","31.772000000000002","0.445","5"],
    [6655,"HCEP03730564","2023-12-06 16:15:00","12.0412","3.55824","26.491","2.88","7.57","0.818","18.73","0.06","0.22","30.6809","4.80308","32.43","0","SATNPRO1963","31.2","0.437","5"],
    [6656,"HCEP03730564","2023-12-06 16:30:00","12.0447","3.55921","26.34","2.889","7.57","0.818","18.73","0.06","0.22","30.6875","4.80395","32.54","0","SATNPRO1963","31.464","0.44074","5"],
    [6657,"HCEP03730564","2023-12-06 16:45:00","12.0462","3.55946","26.194","2.895","7.57","0.818","18.73","0.06","0.22","30.6886","4.80408","32.61","0","SATNPRO1963","30.918","0.4331","5"],
    [6658,"HCEP03730564","2023-12-06 17:00:00","12.0505","3.56059","26.08","2.884","7.57","0.818","18.73","0.06","0.22","30.696","4.80505","32.49","0","SATNPRO1963","31.18","0.43672","5"],
    [6659,"HCEP03730564","2023-12-06 17:15:00","12.0521","3.56098","25.97","2.88","7.57","0.818","18.73","0.06","0.22","30.6985","4.80538","32.44","0","SATNPRO1963","31.364","0.43932","5"],
    [6660,"HCEP03730564","2023-12-06 17:30:00","12.0531","3.56171","25.874","2.835","7.57","0.818","18.73","0.06","0.22","30.7047","4.80623","31.94","0","SATNPRO1963","31.506","0.44126","5"],
    [6661,"HCEP03730564","2023-12-06 17:45:00","12.0573","3.56282","25.764","2.807","7.57","0.818","18.73","0.06","0.22","30.7119","4.80719","31.63","0","SATNPRO1963","31.404","0.43986","5"],
    [6662,"HCEP03730564","2023-12-06 18:00:00","12.0583","3.56328","25.658","2.797","7.57","0.818","18.73","0.06","0.22","30.7156","4.80768","31.52","0","SATNPRO1963","31.344","0.439","5"],
    [6663,"HCEP03730564","2023-12-06 18:15:00","12.0603","3.56375","25.608","2.793","7.57","0.818","18.73","0.06","0.22","30.7183","4.80804","31.47","0","SATNPRO1963","31.442","0.4404","5"],
    [6664,"HCEP03730564","2023-12-06 18:30:00","12.0612","3.56397","25.586","2.791","7.57","0.818","18.73","0.06","0.22","30.7198","4.80823","31.46","0","SATNPRO1963","31.374000000000002","0.43946","5"],
    [6665,"HCEP03730564","2023-12-06 18:45:00","12.062","3.56419","25.568","2.791","7.57","0.818","18.73","0.06","0.22","30.7213","4.80843","31.45","0","SATNPRO1963","31.448","0.44054","5"],
    [6666,"HCEP03730564","2023-12-06 19:00:00","12.0611","3.56406","25.572","2.763","7.57","0.818","18.73","0.06","0.22","30.7207","4.80835","31.13","0","SATNPRO1963","31.52","0.44146","5"],
    [6667,"HCEP03730564","2023-12-06 19:15:00","12.0591","3.56351","25.629","2.782","7.57","0.818","18.73","0.06","0.22","30.7171","4.80788","31.35","0","SATNPRO1963","31.538","0.44178","5"],
    [6668,"HCEP03730564","2023-12-06 19:30:00","12.061","3.56408","25.755","2.781","7.56","0.818","18.73","0.06","0.22","30.7209","4.8084","31.34","0","SATNPRO1963","31.462","0.44068","5"],
    [6669,"HCEP03730564","2023-12-06 19:45:00","12.061","3.56394","25.799","2.805","7.56","0.818","18.73","0.06","0.22","30.7195","4.80821","31.61","0","SATNPRO1963","31.356","0.43916","5"],
    [6670,"HCEP03730564","2023-12-06 20:00:00","12.0612","3.56392","25.79","2.808","7.56","0.818","18.73","0.06","0.22","30.7192","4.80816","31.64","0","SATNPRO1963","31.206","0.43708","5"],
    [6671,"HCEP03730564","2023-12-06 20:15:00","12.0638","3.56474","25.812","2.805","7.56","0.818","18.73","0.06","0.22","30.7249","4.80892","31.61","0","SATNPRO1963","31.396","0.43974","5"],
    [6672,"HCEP03730564","2023-12-06 20:30:00","12.0645","3.56508","25.848","2.787","7.56","0.818","18.73","0.06","0.22","30.7275","4.80929","31.42","0","SATNPRO1963","31.496","0.44114","5"],
    [6673,"HCEP03730564","2023-12-06 20:45:00","12.0643","3.56477","25.881","2.793","7.56","0.818","18.73","0.06","0.22","30.7247","4.8089","31.48","0","SATNPRO1963","31.636","0.44312","5"],
    [6674,"HCEP03730564","2023-12-06 21:00:00","12.0636","3.56453","25.953","2.803","7.56","0.818","18.73","0.06","0.22","30.723","4.80866","31.59","0","SATNPRO1963","31.654","0.44336","5"],
    [6675,"HCEP03730564","2023-12-06 21:15:00","12.0625","3.56416","26.013","2.81","7.56","0.818","18.73","0.06","0.22","30.7204","4.80832","31.67","0","SATNPRO1963","31.564","0.44212","5"],
    [6676,"HCEP03730564","2023-12-06 21:30:00","12.0622","3.56419","26.054","2.805","7.56","0.818","18.73","0.06","0.22","30.7209","4.80839","31.61","0","SATNPRO1963","31.306","0.4385","5"],
    [6677,"HCEP03730564","2023-12-06 21:45:00","12.0618","3.56396","26.127","2.799","7.56","0.818","18.73","0.06","0.22","30.719","4.80814","31.54","0","SATNPRO1963","31.556","0.44198","5"],
    [6678,"HCEP03730564","2023-12-06 22:00:00","12.0601","3.56365","26.181","2.803","7.56","0.818","18.73","0.06","0.22","30.7173","4.80793","31.59","0","SATNPRO1963","31.444","0.44042","5"],
    [6679,"HCEP03730564","2023-12-06 22:15:00","12.0625","3.56443","26.228","2.784","7.56","0.818","18.73","0.06","0.22","30.7228","4.80867","31.37","0","SATNPRO1963","31.462","0.44068","5"],
    [6680,"HCEP03730564","2023-12-06 22:30:00","12.0637","3.56486","26.3","2.757","7.56","0.818","18.73","0.06","0.22","30.726","4.8091","31.07","0","SATNPRO1963","31.477999999999998","0.4409","5"],
    [6681,"HCEP03730564","2023-12-06 22:45:00","12.0652","3.56514","26.355","2.766","7.56","0.818","18.73","0.06","0.22","30.7274","4.80929","31.17","0","SATNPRO1963","31.29","0.43828","5"],
    [6682,"HCEP03730564","2023-12-06 23:00:00","12.0678","3.56587","26.427","2.774","7.56","0.818","18.73","0.06","0.22","30.7322","4.80993","31.27","0","SATNPRO1963","31.788","0.4453","5"],
    [6683,"HCEP03730564","2023-12-06 23:15:00","12.0687","3.56624","26.485","2.783","7.56","0.818","18.73","0.06","0.22","30.735","4.81032","31.37","0","SATNPRO1963","31.482","0.44096","5"],
    [6684,"HCEP03730564","2023-12-06 23:30:00","12.0681","3.56617","26.53","2.805","7.56","0.818","18.73","0.06","0.22","30.7348","4.8103","31.62","0","SATNPRO1963","31.304000000000002","0.43846","5"],
    [6685,"HCEP03730564","2023-12-06 23:45:00","12.0565","3.56222","26.6","2.841","7.56","0.818","18.73","0.06","0.22","30.7064","4.80647","32.01","0","SATNPRO1963","31.201999999999998","0.43704","5"],
    [6686,"HCEP03730564","2023-12-07 00:00:00","12.0655","3.56528","26.663","2.818","7.56","0.818","18.73","0.06","0.22","30.7283","4.80943","31.76","0","SATNPRO1963","31.66","0.44344","5"],
    [6687,"HCEP03730564","2023-12-07 00:15:00","12.0652","3.5653","26.7","2.778","7.56","0.818","18.73","0.06","0.22","30.7287","4.80949","31.31","0","SATNPRO1963","31.419999999999998","0.44008","5"],
    [6688,"HCEP03730564","2023-12-07 00:30:00","12.0623","3.56439","26.721","2.753","7.56","0.818","18.73","0.06","0.22","30.7224","4.80865","31.03","0","SATNPRO1963","31.558","0.44202","5"],
    [6689,"HCEP03730564","2023-12-07 00:45:00","12.0585","3.56337","26.747","2.734","7.56","0.818","18.73","0.06","0.22","30.7158","4.80776","30.81","0","SATNPRO1963","31.562","0.4421","5"],
    [6690,"HCEP03730564","2023-12-07 01:00:00","12.0533","3.56188","26.753","2.733","7.56","0.818","18.73","0.06","0.22","30.7057","4.80642","30.79","0","SATNPRO1963","31.732","0.44444","5"],
    [6691,"HCEP03730564","2023-12-07 01:15:00","12.0461","3.56","26.748","2.735","7.56","0.818","18.73","0.06","0.22","30.6937","4.80483","30.8","0","SATNPRO1963","31.562","0.44208","5"],
    [6692,"HCEP03730564","2023-12-07 01:30:00","12.0453","3.55992","26.744","2.709","7.56","0.818","18.73","0.06","0.22","30.6936","4.80482","30.51","0","SATNPRO1963","31.216","0.43722","5"],
    [6693,"HCEP03730564","2023-12-07 01:45:00","12.0444","3.55966","26.768","2.675","7.56","0.818","18.73","0.06","0.22","30.6919","4.80459","30.13","0","SATNPRO1963","31.092","0.4355","5"],
    [6694,"HCEP03730564","2023-12-07 02:00:00","12.0447","3.55971","26.717","2.659","7.56","0.818","18.73","0.06","0.22","30.6922","4.80462","29.95","0","SATNPRO1963","31.322","0.4387","5"],
    [6695,"HCEP03730564","2023-12-07 02:15:00","12.0532","3.56242","26.683","2.657","7.56","0.818","18.73","0.06","0.22","30.711","4.80717","29.93","0","SATNPRO1963","31.27","0.43802","5"],
    [6696,"HCEP03730564","2023-12-07 02:30:00","12.0575","3.56326","26.67","2.663","7.56","0.818","18.73","0.06","0.22","30.7156","4.80775","30.01","0","SATNPRO1963","31.102","0.4356","5"],
    [6697,"HCEP03730564","2023-12-07 02:45:00","12.0628","3.56469","26.628","2.664","7.55","0.818","18.73","0.06","0.22","30.7249","4.80899","30.03","0","SATNPRO1963","30.912","0.43294","5"],
    [6698,"HCEP03730564","2023-12-07 03:00:00","12.0614","3.56436","26.619","2.661","7.55","0.818","18.73","0.06","0.22","30.7229","4.80872","29.99","0","SATNPRO1963","30.762","0.43088","5"],
    [6699,"HCEP03730564","2023-12-07 03:15:00","12.0616","3.56435","26.548","2.639","7.55","0.818","18.73","0.06","0.22","30.7227","4.80868","29.74","0","SATNPRO1963","30.913999999999998","0.43306","5"],
    [6700,"HCEP03730564","2023-12-07 03:30:00","12.0626","3.56472","26.5","2.62","7.55","0.818","18.73","0.06","0.22","30.7254","4.80905","29.53","0","SATNPRO1963","31.764","0.44492","5"],
    [6701,"HCEP03730564","2023-12-07 03:45:00","12.0645","3.56531","26.472","2.618","7.55","0.818","18.73","0.06","0.22","30.7296","4.80961","29.5","0","SATNPRO1963","31.016","0.43444","5"],
    [6702,"HCEP03730564","2023-12-07 04:00:00","12.0668","3.56592","26.446","2.622","7.55","0.818","18.73","0.06","0.22","30.7335","4.81013","29.56","0","SATNPRO1963","31.502","0.44124","5"],
    [6703,"HCEP03730564","2023-12-07 04:15:00","12.0684","3.56646","26.412","2.619","7.55","0.818","18.73","0.06","0.22","30.7373","4.81065","29.52","0","SATNPRO1963","30.748","0.43066","5"],
    [6704,"HCEP03730564","2023-12-07 04:30:00","12.0697","3.56675","26.372","2.621","7.55","0.818","18.73","0.06","0.22","30.7391","4.81087","29.55","0","SATNPRO1963","30.774","0.43106","5"],
    [6705,"HCEP03730564","2023-12-07 04:45:00","12.07","3.56687","26.348","2.609","7.55","0.818","18.73","0.06","0.22","30.7399","4.81098","29.41","0","SATNPRO1963","29.998","0.42014","5"],
    [6706,"HCEP03730564","2023-12-07 05:00:00","12.0697","3.56674","26.303","2.594","7.55","0.818","18.73","0.06","0.22","30.739","4.81086","29.25","0","SATNPRO1963","30.802","0.43144","5"],
    [6707,"HCEP03730564","2023-12-07 05:15:00","12.0688","3.56639","26.263","2.585","7.55","0.818","18.73","0.06","0.22","30.7364","4.8105","29.14","0","SATNPRO1963","30.948","0.43344","5"],
    [6708,"HCEP03730564","2023-12-07 05:30:00","12.0668","3.56585","26.231","2.587","7.55","0.818","18.73","0.06","0.22","30.7329","4.81004","29.16","0","SATNPRO1963","30.908","0.43292","5"],
    [6709,"HCEP03730564","2023-12-07 05:45:00","12.0645","3.56519","26.207","2.584","7.55","0.818","18.73","0.06","0.22","30.7285","4.80944","29.13","0","SATNPRO1963","30.84","0.43196","5"],
    [6710,"HCEP03730564","2023-12-07 06:00:00","12.062","3.56447","26.191","2.579","7.55","0.818","18.73","0.06","0.22","30.7236","4.80878","29.07","0","SATNPRO1963","30.945999999999998","0.43348","5"],
    [6711,"HCEP03730564","2023-12-07 06:15:00","12.0599","3.56386","26.177","2.58","7.55","0.818","18.73","0.06","0.22","30.7195","4.80824","29.07","0","SATNPRO1963","30.752","0.4307","5"],
    [6712,"HCEP03730564","2023-12-07 06:30:00","12.0595","3.5636","26.171","2.576","7.55","0.818","18.73","0.06","0.22","30.7174","4.80795","29.03","0","SATNPRO1963","30.892","0.43268","5"],
    [6713,"HCEP03730564","2023-12-07 06:45:00","12.0598","3.56369","26.218","2.569","7.55","0.818","18.73","0.06","0.22","30.7179","4.80802","28.95","0","SATNPRO1963","30.836000000000002","0.43192","5"],
    [6714,"HCEP03730564","2023-12-07 07:00:00","12.0593","3.56349","26.257","2.568","7.55","0.818","18.73","0.06","0.22","30.7164","4.80782","28.94","0","SATNPRO1963","30.842","0.43198","5"],
    [6715,"HCEP03730564","2023-12-07 07:15:00","12.058","3.56291","26.309","2.578","7.55","0.818","18.73","0.06","0.22","30.712","4.80721","29.05","0","SATNPRO1963","30.686","0.4298","5"],
    [6716,"HCEP03730564","2023-12-07 07:30:00","12.0557","3.5623","26.363","2.596","7.55","0.818","18.73","0.06","0.22","30.708","4.80668","29.25","0","SATNPRO1963","30.646","0.42928","5"],
    [6717,"HCEP03730564","2023-12-07 07:45:00","12.0522","3.56146","26.43","2.622","7.55","0.818","18.73","0.06","0.22","30.7028","4.80601","29.55","0","SATNPRO1963","30.464","0.4267","5"],
    [6718,"HCEP03730564","2023-12-07 08:00:00","12.0542","3.56216","26.51","2.618","7.55","0.818","18.73","0.06","0.22","30.7078","4.80669","29.5","0","SATNPRO1963","30.804","0.4315","5"],
    [6719,"HCEP03730564","2023-12-07 08:15:00","12.0567","3.56287","26.59","2.606","7.55","0.818","18.73","0.06","0.22","30.7125","4.80731","29.36","0","SATNPRO1963","30.594","0.4285","5"],
    [6720,"HCEP03730564","2023-12-07 08:30:00","12.0579","3.56301","26.689","2.602","7.54","0.818","18.73","0.06","0.22","30.7128","4.80736","29.31","0","SATNPRO1963","30.66","0.42946","5"],
    [6721,"HCEP03730564","2023-12-07 08:45:00","12.0592","3.56369","26.777","2.604","7.54","0.818","18.73","0.06","0.22","30.7183","4.80811","29.35","0","SATNPRO1963","30.798","0.43138","5"],
    [6722,"HCEP03730564","2023-12-07 09:00:00","12.0609","3.56399","26.872","2.601","7.54","0.818","18.73","0.06","0.22","30.7197","4.80829","29.31","0","SATNPRO1963","30.724","0.43036","5"],
    [6723,"HCEP03730564","2023-12-07 09:15:00","12.0636","3.56499","26.978","2.593","7.55","0.818","18.73","0.06","0.22","30.727","4.80929","29.22","0","SATNPRO1963","30.692","0.42986","5"],
    [6724,"HCEP03730564","2023-12-07 09:30:00","12.0629","3.56464","27.09","2.579","7.54","0.818","18.73","0.06","0.22","30.7241","4.8089","29.07","0","SATNPRO1963","30.794","0.43128","5"],
    [6725,"HCEP03730564","2023-12-07 09:45:00","12.064","3.56509","27.203","2.545","7.54","0.818","18.73","0.06","0.22","30.7276","4.80937","28.69","0","SATNPRO1963","30.86","0.43222","5"],
    [6726,"HCEP03730564","2023-12-07 10:00:00","12.061","3.56425","27.31","2.566","7.54","0.818","18.73","0.06","0.22","30.722","4.80863","28.92","0","SATNPRO1963","30.902","0.43282","5"],
    [6727,"HCEP03730564","2023-12-07 10:15:00","12.0536","3.56208","27.405","2.616","7.54","0.818","18.73","0.06","0.22","30.7071","4.80665","29.48","0","SATNPRO1963","30.872","0.43244","5"],
    [6728,"HCEP03730564","2023-12-07 10:30:00","12.0575","3.56308","27.502","2.63","7.54","0.818","18.73","0.06","0.22","30.7136","4.80751","29.63","0","SATNPRO1963","30.796","0.43134","5"],
    [6729,"HCEP03730564","2023-12-07 10:45:00","12.0546","3.56241","27.59","2.624","7.54","0.818","18.73","0.06","0.22","30.7094","4.80697","29.56","0","SATNPRO1963","30.464","0.4267","5"],
    [6730,"HCEP03730564","2023-12-07 11:00:00","12.0541","3.56247","27.687","2.61","7.54","0.818","18.73","0.06","0.22","30.7104","4.80711","29.41","0","SATNPRO1963","30.772","0.43106","5"],
    [6731,"HCEP03730564","2023-12-07 11:15:00","12.0507","3.56064","27.778","2.597","7.54","0.818","18.73","0.06","0.22","30.6956","4.80508","29.26","0","SATNPRO1963","31.066","0.4351","5"],
    [6732,"HCEP03730564","2023-12-07 11:30:00","12.0413","3.5587","27.805","2.593","7.54","0.818","18.73","0.06","0.22","30.6848","4.8037","29.2","0","SATNPRO1963","30.802","0.43144","5"],
    [6733,"HCEP03730564","2023-12-07 11:45:00","12.0259","3.55413","27.842","2.548","7.54","0.818","18.73","0.06","0.22","30.6536","4.79952","28.68","0","SATNPRO1963","31.08","0.43532","5"],
    [6734,"HCEP03730564","2023-12-07 12:00:00","12.0237","3.55331","27.893","2.51","7.54","0.818","18.73","0.06","0.22","30.6477","4.79871","28.25","0","SATNPRO1963","31.032","0.43464","5"],
    [6735,"HCEP03730564","2023-12-07 12:15:00","12.032","3.556","27.957","2.52","7.53","0.818","18.73","0.06","0.22","30.6665","4.80126","28.37","0","SATNPRO1963","30.814","0.4316","5"],
    [6736,"HCEP03730564","2023-12-07 12:30:00","12.0561","3.56338","27.97","2.518","7.53","0.818","18.73","0.06","0.22","30.7174","4.8081","28.37","0","SATNPRO1963","30.852","0.43212","5"],
    [6737,"HCEP03730564","2023-12-07 12:45:00","12.0526","3.56229","27.96","2.485","7.54","0.818","18.73","0.06","0.22","30.7098","4.80707","28","0","SATNPRO1963","30.56","0.42804","5"],
    [6738,"HCEP03730564","2023-12-07 13:00:00","12.0527","3.56228","27.939","2.474","7.53","0.818","18.73","0.06","0.22","30.7096","4.80704","27.87","0","SATNPRO1963","30.664","0.42948","5"],
    [6739,"HCEP03730564","2023-12-07 13:15:00","12.0519","3.56202","27.907","2.482","7.53","0.818","18.73","0.06","0.22","30.7079","4.8068","27.97","0","SATNPRO1963","30.722","0.4303","5"],
    [6740,"HCEP03730564","2023-12-07 13:30:00","12.0517","3.56194","27.871","2.489","7.53","0.818","18.73","0.06","0.22","30.7073","4.80672","28.04","0","SATNPRO1963","30.59","0.42846","5"],
    [6741,"HCEP03730564","2023-12-07 13:45:00","12.0501","3.56139","27.798","2.516","7.54","0.818","18.73","0.06","0.22","30.7034","4.80619","28.35","0","SATNPRO1963","30.454","0.42654","5"],
    [6742,"HCEP03730564","2023-12-07 14:00:00","12.0514","3.56193","27.732","2.517","7.54","0.818","18.73","0.06","0.22","30.7074","4.80674","28.36","0","SATNPRO1963","30.532","0.42766","5"],
    [6743,"HCEP03730564","2023-12-07 14:15:00","12.0464","3.56013","27.63","2.546","7.54","0.818","18.73","0.06","0.22","30.6944","4.80496","28.68","0","SATNPRO1963","30.628","0.42902","5"],
    [6744,"HCEP03730564","2023-12-07 14:30:00","12.0386","3.55762","27.54","2.632","7.55","0.818","18.73","0.06","0.22","30.6767","4.80258","29.64","0","SATNPRO1963","30.588","0.42846","5"],
    [6745,"HCEP03730564","2023-12-07 14:45:00","12.0356","3.55662","27.427","2.694","7.55","0.818","18.73","0.06","0.22","30.6698","4.80163","30.34","0","SATNPRO1963","30.614","0.42876","5"],
    [6746,"HCEP03730564","2023-12-07 15:00:00","12.0334","3.55571","27.304","2.721","7.55","0.818","18.73","0.06","0.22","30.6628","4.80068","30.64","0","SATNPRO1963","30.698","0.42998","5"],
    [6747,"HCEP03730564","2023-12-07 15:15:00","12.0292","3.55453","27.179","2.779","7.56","0.818","18.73","0.06","0.22","30.655","4.79963","31.29","0","SATNPRO1963","30.97","0.43378","5"],
    [6748,"HCEP03730564","2023-12-07 15:30:00","12.029","3.55438","27.04","2.79","7.56","0.818","18.73","0.06","0.22","30.6539","4.79946","31.41","0","SATNPRO1963","31.392","0.4397","5"],
    [6749,"HCEP03730564","2023-12-07 15:45:00","12.0282","3.55425","26.886","2.777","7.56","0.818","18.73","0.06","0.22","30.6533","4.79938","31.26","0","SATNPRO1963","31.94","0.44736","5"],
    [6750,"HCEP03730564","2023-12-07 16:00:00","12.0272","3.554","26.722","2.777","7.56","0.818","18.73","0.06","0.22","30.6517","4.79917","31.26","0","SATNPRO1963","31.61","0.44274","5"],
    [6751,"HCEP03730564","2023-12-07 16:15:00","12.0284","3.55436","26.586","2.752","7.56","0.818","18.73","0.06","0.22","30.6544","4.79951","30.98","0","SATNPRO1963","31.714","0.44418","5"],
    [6752,"HCEP03730564","2023-12-07 16:30:00","12.0303","3.55492","26.38","2.727","7.56","0.818","18.73","0.06","0.22","30.6582","4.80002","30.69","0","SATNPRO1963","31.954","0.4476","5"],
    [6753,"HCEP03730564","2023-12-07 16:45:00","12.028","3.55432","26.245","2.724","7.56","0.818","18.73","0.06","0.22","30.6545","4.79951","30.66","0","SATNPRO1963","31.592","0.44252","5"],
    [6754,"HCEP03730564","2023-12-07 17:00:00","12.0247","3.55339","26.106","2.736","7.55","0.818","18.73","0.06","0.22","30.6482","4.79867","30.8","0","SATNPRO1963","31.836","0.44592","5"],
    [6755,"HCEP03730564","2023-12-07 17:15:00","12.0239","3.55296","25.936","2.736","7.55","0.818","18.73","0.06","0.22","30.6448","4.7982","30.8","0","SATNPRO1963","31.374","0.4395","5"],
    [6756,"HCEP03730564","2023-12-07 17:30:00","12.0253","3.55375","25.762","2.717","7.55","0.818","18.73","0.06","0.22","30.6513","4.79908","30.58","0","SATNPRO1963","31.694","0.44396","5"],
    [6757,"HCEP03730564","2023-12-07 17:45:00","12.0177","3.55099","25.702","2.717","7.55","0.818","18.73","0.06","0.22","30.6311","4.79634","30.58","0","SATNPRO1963","31.808","0.44552","5"],
    [6758,"HCEP03730564","2023-12-07 18:00:00","12.0189","3.55121","25.541","2.719","7.55","0.818","18.73","0.06","0.22","30.6323","4.79648","30.6","0","SATNPRO1963","31.902","0.44686","5"],
    [6759,"HCEP03730564","2023-12-07 18:15:00","12.0209","3.55221","25.454","2.724","7.54","0.818","18.73","0.06","0.22","30.6403","4.79758","30.66","0","SATNPRO1963","31.674","0.44368","5"],
    [6760,"HCEP03730564","2023-12-07 18:30:00","12.0307","3.55559","25.352","2.637","7.54","0.818","18.73","0.06","0.22","30.6647","4.80088","29.69","0","SATNPRO1963","31.938","0.44732","5"],
    [6761,"HCEP03730564","2023-12-07 18:45:00","12.0391","3.55793","25.309","2.557","7.54","0.818","18.73","0.06","0.22","30.6802","4.80294","28.79","0","SATNPRO1963","31.454","0.44054","5"],
    [6762,"HCEP03730564","2023-12-07 19:00:00","12.0491","3.56117","25.27","2.375","7.54","0.818","18.73","0.06","0.22","30.703","4.80601","26.76","0","SATNPRO1963","31.49","0.44108","5"],
    [6763,"HCEP03730564","2023-12-07 19:15:00","12.0522","3.56216","25.25","2.321","7.53","0.818","18.73","0.06","0.22","30.71","4.80696","26.15","0","SATNPRO1963","31.668","0.44356","5"],
    [6764,"HCEP03730564","2023-12-07 19:30:00","12.0544","3.56267","25.249","2.292","7.53","0.818","18.73","0.06","0.22","30.713","4.80734","25.83","0","SATNPRO1963","31.354","0.43912","5"],
    [6765,"HCEP03730564","2023-12-07 19:45:00","12.055","3.56299","25.25","2.237","7.52","0.818","18.73","0.06","0.22","30.7156","4.80771","25.21","0","SATNPRO1963","31.05","0.43486","5"],
    [6766,"HCEP03730564","2023-12-07 20:00:00","12.0537","3.56267","25.256","2.243","7.52","0.818","18.73","0.06","0.22","30.7136","4.80745","25.27","0","SATNPRO1963","29.714000000000002","0.4162","5"],
    [6767,"HCEP03730564","2023-12-07 20:15:00","12.0513","3.56192","25.287","2.271","7.52","0.467","4.133","0.06","0.04","30.7084","4.80674","25.58","2","SATNPRO1963","29.958","0.41962","5"],
    [6768,"HCEP03730564","2023-12-07 20:30:00","12.0485","3.56029","25.323","2.359","7.52","0.649","3.269","0.32","0.13","30.6951","4.80491","26.58","2","SATNPRO1963","29.81","0.41754","5"],
    [6769,"HCEP03730564","2023-12-07 20:45:00","12.0474","3.56082","25.379","2.43","7.52","0.39","4.248","0.06","0.18","30.701","4.80576","27.38","2","SATNPRO1963","29.816","0.41762","5"],
    [6770,"HCEP03730564","2023-12-07 21:00:00","12.0516","3.56228","25.42","2.272","7.52","0.488","4.331","0.15","0.23","30.7115","4.80719","25.6","2","SATNPRO1963","29.956","0.41956","5"],
    [6771,"HCEP03730564","2023-12-07 21:15:00","12.0511","3.56139","25.575","2.35","7.51","0.494","4.184","0.07","0.09","30.7033","4.80605","26.48","2","SATNPRO1963","30.016000000000002","0.4204","5"],
    [6772,"HCEP03730564","2023-12-07 21:30:00","12.054","3.56179","25.696","2.501","7.53","0.51","3.962","0.07","0.19","30.7047","4.80621","28.18","2","SATNPRO1963","30.618","0.42886","5"],
    [6773,"HCEP03730564","2023-12-07 21:45:00","12.053","3.56225","25.794","2.516","7.53","0.5","3.8","0.07","0.22","30.7099","4.80696","28.34","2","SATNPRO1963","30.150000000000002","0.4223","5"],
    [6774,"HCEP03730564","2023-12-07 22:00:00","12.0573","3.5635","25.873","2.378","7.53","0.505","4.424","0.12","0.16","30.7183","4.80809","26.8","2","SATNPRO1963","29.33","0.41078","5"],
    [6775,"HCEP03730564","2023-12-07 22:15:00","12.0568","3.56304","25.974","2.237","7.52","2.786","276.395","1.35","189.88","30.7143","4.80754","25.2","2","SATNPRO1963","30.452","0.42654","5"],
    [6776,"HCEP03730564","2023-12-07 22:30:00","12.0554","3.56284","26.041","2.279","7.52","0.47","4.819","0.06","0.13","30.7135","4.80744","25.67","2","SATNPRO1963","30.896","0.43272","5"],
    [6777,"HCEP03730564","2023-12-07 22:45:00","12.0531","3.56228","26.154","2.288","7.52","0.509","4.749","0.11","0.19","30.71","4.807","25.78","2","SATNPRO1963","31.076","0.43528","5"],
    [6778,"HCEP03730564","2023-12-07 23:00:00","12.0495","3.56085","26.26","2.343","7.52","0.483","4.715","0.08","0.1","30.6993","4.80553","26.39","2","SATNPRO1963","29.71","0.41618","5"],
    [6779,"HCEP03730564","2023-12-07 23:15:00","12.0519","3.56181","26.388","2.35","7.53","0.448","4.424","0.08","0.12","30.7065","4.80652","26.47","2","SATNPRO1963","29.732","0.41644","5"],
    [6780,"HCEP03730564","2023-12-07 23:30:00","12.0462","3.56019","26.49","2.358","7.52","0.468","3.911","0.12","0.11","30.6955","4.80506","26.56","2","SATNPRO1963","29.7","0.41602","5"],
    [6781,"HCEP03730564","2023-12-07 23:45:00","12.0491","3.56107","26.598","2.317","7.52","0.47","4.586","0.08","0.2","30.7015","4.80587","26.11","2","SATNPRO1963","29.762","0.41688","5"],
    [6782,"HCEP03730564","2023-12-08 00:00:00","12.0488","3.56109","26.71","2.285","7.52","0.404","4.582","0.05","0.42","30.702","4.80595","25.74","2","SATNPRO1963","29.996","0.42018","5"],
    [6783,"HCEP03730564","2023-12-08 00:15:00","12.049","3.56127","26.813","2.288","7.52","0.565","4.183","0.16","0.18","30.7035","4.80616","25.77","2","SATNPRO1963","30.02","0.4205","5"],
    [6784,"HCEP03730564","2023-12-08 00:30:00","12.0459","3.56029","26.867","2.282","7.52","0.409","3.719","0","0","30.6966","4.80524","25.71","2","SATNPRO1963","30.278","0.42408","5"],
    [6785,"HCEP03730564","2023-12-08 00:45:00","12.0522","3.56206","26.916","2.245","7.52","0.501","5.452","0.01","0.15","30.7083","4.80681","25.29","2","SATNPRO1963","29.738","0.41652","5"],
    [6786,"HCEP03730564","2023-12-08 01:00:00","12.0534","3.56244","26.938","2.177","7.51","0.424","5.273","0.09","0.07","30.711","4.80717","24.53","2","SATNPRO1963","29.784","0.41718","5"],
    [6787,"HCEP03730564","2023-12-08 01:15:00","12.0523","3.56225","27.059","2.166","7.51","0.413","5.433","0.06","0.27","30.71","4.80706","24.41","2","SATNPRO1963","29.934","0.41928","5"],
    [6788,"HCEP03730564","2023-12-08 01:30:00","12.0519","3.56202","27.063","2.184","7.51","0.398","4.904","0","0.07","30.7082","4.8068","24.61","2","SATNPRO1963","29.948","0.41946","5"],
    [6789,"HCEP03730564","2023-12-08 01:45:00","12.0496","3.56137","27.073","2.197","7.51","0.349","5.582","0","0","30.7038","4.80622","24.75","2","SATNPRO1963","29.436","0.41232","5"],
    [6790,"HCEP03730564","2023-12-08 02:00:00","12.049","3.56112","27.08","2.175","7.51","0.353","5.064","0","0","30.7019","4.80596","24.5","2","SATNPRO1963","28.904","0.40488","5"],
    [6791,"HCEP03730564","2023-12-08 02:15:00","12.0475","3.56077","27.1","2.164","7.51","0.454","5.197","0.09","0.27","30.6998","4.80568","24.38","0","SATNPRO1963","29.332","0.41082","5"],
    [6792,"HCEP03730564","2023-12-08 02:30:00","12.0458","3.56039","27.127","2.164","7.51","0.454","5.197","0.09","0.27","30.6975","4.80539","24.37","0","SATNPRO1963","29.56","0.41406","5"],
    [6793,"HCEP03730564","2023-12-08 02:45:00","12.0436","3.5599","27.094","2.168","7.51","0.454","5.197","0.09","0.27","30.6947","4.80502","24.42","0","SATNPRO1963","29.248","0.4097","5"],
    [6794,"HCEP03730564","2023-12-08 03:00:00","12.0404","3.55905","27.068","2.175","7.51","0.454","5.197","0.09","0.27","30.6891","4.80427","24.49","0","SATNPRO1963","29.166","0.40852","5"],
    [6795,"HCEP03730564","2023-12-08 03:15:00","12.0427","3.55966","27.053","2.176","7.51","0.454","5.197","0.09","0.27","30.6931","4.80481","24.51","0","SATNPRO1963","29.326","0.41074","5"],
    [6796,"HCEP03730564","2023-12-08 03:30:00","12.0443","3.56012","27.007","2.162","7.51","0.469","4.25","0","0","30.6963","4.80523","24.36","2","SATNPRO1963","29.33","0.41084","5"],
    [6797,"HCEP03730564","2023-12-08 03:45:00","12.0486","3.56118","26.991","2.137","7.51","0.676","3.957","0","0","30.7028","4.80609","24.07","2","SATNPRO1963","29.522","0.41348","5"],
    [6798,"HCEP03730564","2023-12-08 04:00:00","12.0504","3.5617","26.951","2.104","7.51","0.38","4.566","0.07","0.26","30.7064","4.80656","23.7","2","SATNPRO1963","29.512","0.41342","5"],
    [6799,"HCEP03730564","2023-12-08 04:15:00","12.05","3.56162","26.903","2.087","7.51","0.483","4.689","0.08","0.08","30.7059","4.8065","23.51","2","SATNPRO1963","29.316","0.41062","5"],
    [6800,"HCEP03730564","2023-12-08 04:30:00","12.0503","3.56167","26.857","2.091","7.51","0.39","4.822","0.11","0.47","30.7063","4.80654","23.55","2","SATNPRO1963","29.194","0.40888","5"],
    [6801,"HCEP03730564","2023-12-08 04:45:00","12.0507","3.56174","26.815","2.113","7.51","0.38","4.655","0.05","0.21","30.7065","4.80657","23.8","2","SATNPRO1963","29.27","0.40998","5"],
    [6802,"HCEP03730564","2023-12-08 05:00:00","12.0493","3.56134","26.735","2.146","7.51","0.409","4.272","0.06","0.19","30.7039","4.80622","24.17","2","SATNPRO1963","29.166","0.4085","5"],
    [6803,"HCEP03730564","2023-12-08 05:15:00","12.0494","3.56136","26.691","2.172","7.51","0.412","4.196","0.06","0.07","30.704","4.80623","24.47","2","SATNPRO1963","29.088","0.40742","5"],
    [6804,"HCEP03730564","2023-12-08 05:30:00","12.049","3.56139","26.656","2.169","7.51","0.391","4.244","0.06","0.29","30.7047","4.80632","24.44","2","SATNPRO1963","28.71","0.40212","5"],
    [6805,"HCEP03730564","2023-12-08 05:45:00","12.0494","3.56168","26.605","2.137","7.51","0.447","4.62","0.08","0.29","30.7071","4.80666","24.07","2","SATNPRO1963","29.046","0.40684","5"],
    [6806,"HCEP03730564","2023-12-08 06:00:00","12.0495","3.56146","26.553","2.125","7.51","0.395","4.513","0.05","0.13","30.7049","4.80635","23.94","2","SATNPRO1963","29.278","0.41008","5"],
    [6807,"HCEP03730564","2023-12-08 06:15:00","12.0488","3.56115","26.515","2.128","7.51","0.43","4.515","0.06","0.13","30.7026","4.80603","23.98","2","SATNPRO1963","29.492","0.41308","5"],
    [6808,"HCEP03730564","2023-12-08 06:30:00","12.0472","3.56066","26.453","2.179","7.51","0.433","4.093","0.05","0.14","30.6992","4.80556","24.54","2","SATNPRO1963","29.137999999999998","0.40816","5"],
    [6809,"HCEP03730564","2023-12-08 06:45:00","12.0447","3.56004","26.433","2.174","7.51","0.453","4.274","0.11","0.19","30.6954","4.80507","24.49","2","SATNPRO1963","29.018","0.40646","5"],
    [6810,"HCEP03730564","2023-12-08 07:00:00","12.0398","3.55889","26.398","2.204","7.52","0.491","4.332","0.14","0.27","30.6884","4.80414","24.82","2","SATNPRO1963","29.074","0.40724","5"],
    [6811,"HCEP03730564","2023-12-08 07:15:00","12.0388","3.55846","26.367","2.218","7.52","0.652","4.421","0.2","0.32","30.6851","4.80369","24.98","2","SATNPRO1963","29.228","0.40938","5"],
    [6812,"HCEP03730564","2023-12-08 07:30:00","12.0321","3.55696","26.351","2.194","7.52","0.503","5.126","0.18","1.07","30.6763","4.80254","24.7","2","SATNPRO1963","29.428","0.41218","5"],
    [6813,"HCEP03730564","2023-12-08 07:45:00","12.0192","3.55282","26.364","2.152","7.51","0.591","4.745","0.11","0.21","30.6472","4.79862","24.22","2","SATNPRO1963","29.292","0.41028","5"],
    [6814,"HCEP03730564","2023-12-08 08:00:00","11.9856","3.54497","26.393","2.091","7.51","0.732","4.527","0.22","0.63","30.5996","4.79237","23.51","2","SATNPRO1963","29.578","0.41428","5"],
    [6815,"HCEP03730564","2023-12-08 08:15:00","11.9828","3.54521","26.426","2.009","7.5","0.783","4.227","0.23","0.25","30.6041","4.79304","22.59","2","SATNPRO1963","29.788","0.41724","5"],
    [6816,"HCEP03730564","2023-12-08 08:30:00","11.9717","3.5424","26.448","1.975","7.5","0.784","4.038","0.26","0.18","30.5863","4.79069","22.2","2","SATNPRO1963","29.586","0.41446","5"],
    [6817,"HCEP03730564","2023-12-08 08:45:00","11.9712","3.54178","26.52","1.953","7.49","0.713","4.54","0.17","0.59","30.5807","4.78991","21.95","2","SATNPRO1963","29.132","0.40806","5"],
    [6818,"HCEP03730564","2023-12-08 09:00:00","11.9747","3.54241","26.591","1.967","7.49","0.684","4.534","0.19","0.34","30.5839","4.79033","22.11","2","SATNPRO1963","28.988","0.406","5"],
    [6819,"HCEP03730564","2023-12-08 09:15:00","11.9681","3.54049","26.665","1.983","7.49","0.783","4.34","0.17","0.39","30.5708","4.78858","22.28","0","SATNPRO1963","28.534","0.39964","5"],
    [6820,"HCEP03730564","2023-12-08 09:30:00","11.9674","3.54031","26.763","1.982","7.49","0.83","4.43","0.24","0.37","30.5696","4.78842","22.28","0","SATNPRO1963","28.354","0.3971","5"],
    [6821,"HCEP03730564","2023-12-08 09:45:00","11.9665","3.54019","26.882","2.029","7.49","0.842","4.376","0.19","0.43","30.5692","4.78838","22.8","0","SATNPRO1963","28.396","0.39776","5"],
    [6822,"HCEP03730564","2023-12-08 10:00:00","11.9524","3.53756","26.981","2.201","7.5","0.861","3.578","0.35","0.29","30.5554","4.78664","24.72","0","SATNPRO1963","28.701999999999998","0.40198","5"],
    [6823,"HCEP03730564","2023-12-08 10:15:00","11.9498","3.53709","27.089","2.311","7.5","0.958","3.938","0.31","0.38","30.5531","4.78635","25.96","0","SATNPRO1963","28.572","0.40018","5"],
    [6824,"HCEP03730564","2023-12-08 10:30:00","11.9504","3.53774","27.193","2.353","7.51","0.969","3.846","0.3","0.48","30.5588","4.78715","26.42","0","SATNPRO1963","28.433999999999997","0.39828","5"],
    [6825,"HCEP03730564","2023-12-08 10:45:00","11.9513","3.53811","27.289","2.374","7.51","0.996","4.41","0.27","0.81","30.5616","4.78754","26.66","0","SATNPRO1963","28.838","0.4039","5"],
    [6826,"HCEP03730564","2023-12-08 11:00:00","11.9483","3.53746","27.389","2.384","7.52","0.952","4.11","0.27","0.39","30.5576","4.78703","26.77","0","SATNPRO1963","29.48","0.4129","5"],
    [6827,"HCEP03730564","2023-12-08 11:15:00","11.9468","3.53728","27.466","2.42","7.52","0.987","3.92","0.28","0.53","30.5572","4.78699","27.18","0","SATNPRO1963","29.062","0.40704","5"],
    [6828,"HCEP03730564","2023-12-08 11:30:00","11.9466","3.53756","27.532","2.467","7.52","0.945","4.529","0.23","0.52","30.5599","4.78739","27.7","0","SATNPRO1963","29.466","0.41272","5"],
    [6829,"HCEP03730564","2023-12-08 11:45:00","11.9509","3.53838","27.61","2.463","7.52","1.088","4.217","0.35","0.38","30.5643","4.78795","27.67","0","SATNPRO1963","29.24","0.40954","5"],
    [6830,"HCEP03730564","2023-12-08 12:00:00","11.9535","3.53977","27.664","2.509","7.53","1.025","4.267","0.4","0.32","30.5755","4.78949","28.18","0","SATNPRO1963","31.63","0.44306","5"],
    [6831,"HCEP03730564","2023-12-08 12:15:00","11.9609","3.54223","27.737","2.633","7.53","0.855","3.844","0.17","0.27","30.593","4.79186","29.58","0","SATNPRO1963","29.740000000000002","0.41654","5"],
    [6832,"HCEP03730564","2023-12-08 12:30:00","11.9675","3.54395","27.777","2.686","7.54","0.839","4.369","0.31","0.58","30.604","4.79333","30.19","0","SATNPRO1963","29.51","0.4133","5"],
    [6833,"HCEP03730564","2023-12-08 12:45:00","11.9718","3.54501","27.807","2.686","7.55","1.03","3.862","0.34","0.25","30.6107","4.79421","30.19","0","SATNPRO1963","29.64","0.41516","5"],
    [6834,"HCEP03730564","2023-12-08 13:00:00","11.9749","3.54575","27.827","2.676","7.54","0.833","3.778","0.24","0.2","30.6152","4.79481","30.08","0","SATNPRO1963","30.172","0.42262","5"],
    [6835,"HCEP03730564","2023-12-08 13:15:00","11.9758","3.5461","27.828","2.661","7.55","1.117","4.165","0.33","0.27","30.6178","4.79515","29.92","0","SATNPRO1963","30.096","0.42156","5"],
    [6836,"HCEP03730564","2023-12-08 13:30:00","11.9772","3.54654","27.817","2.656","7.55","0.978","3.587","0.26","0.2","30.6209","4.79557","29.86","0","SATNPRO1963","30.104","0.42164","5"],
    [6837,"HCEP03730564","2023-12-08 13:45:00","11.9801","3.54709","27.783","2.645","7.55","1.07","3.799","0.38","0.2","30.6239","4.79596","29.74","0","SATNPRO1963","29.894000000000002","0.4187","5"],
    [6838,"HCEP03730564","2023-12-08 14:00:00","11.9802","3.54713","27.732","2.638","7.55","0.824","3.751","0.27","0.17","30.6242","4.79599","29.66","0","SATNPRO1963","30.182","0.4228","5"],
    [6839,"HCEP03730564","2023-12-08 14:15:00","11.9806","3.54718","27.677","2.633","7.55","0.852","4.216","0.27","0.56","30.6244","4.79601","29.61","0","SATNPRO1963","30.058","0.42102","5"],
    [6840,"HCEP03730564","2023-12-08 14:30:00","11.9799","3.54708","27.601","2.614","7.55","0.913","4.534","0.23","0.29","30.624","4.79596","29.39","0","SATNPRO1963","30.32","0.42466","5"],
    [6841,"HCEP03730564","2023-12-08 14:45:00","11.9801","3.54711","27.504","2.63","7.55","0.96","3.791","0.44","0.41","30.6242","4.79598","29.57","0","SATNPRO1963","29.902","0.41884","5"],
    [6842,"HCEP03730564","2023-12-08 15:00:00","11.9787","3.54679","27.386","2.638","7.55","0.786","3.832","0.21","0.15","30.6222","4.79572","29.66","0","SATNPRO1963","29.976","0.41988","5"],
    [6843,"HCEP03730564","2023-12-08 15:15:00","11.9782","3.54667","27.261","2.645","7.55","0.876","3.418","0.35","0.21","30.6216","4.79563","29.73","0","SATNPRO1963","30.166","0.42252","5"],
    [6844,"HCEP03730564","2023-12-08 15:30:00","11.9765","3.54625","27.121","2.652","7.55","0.853","3.347","0.27","0.18","30.619","4.79528","29.81","0","SATNPRO1963","30.016","0.4204","5"],
    [6845,"HCEP03730564","2023-12-08 15:45:00","11.9754","3.54599","26.966","2.648","7.55","0.939","3.777","0.24","0.2","30.6174","4.79506","29.76","0","SATNPRO1963","30.18","0.42274","5"],
    [6846,"HCEP03730564","2023-12-08 16:00:00","11.9745","3.54561","26.788","2.613","7.55","0.878","3.898","0.29","0.25","30.6146","4.79466","29.37","2","SATNPRO1963","30.536","0.42774","5"],
    [6847,"HCEP03730564","2023-12-08 16:15:00","11.9745","3.54555","26.661","2.612","7.54","0.895","3.744","0.13","0.25","30.6141","4.79459","29.36","2","SATNPRO1963","30.03","0.42062","5"],
    [6848,"HCEP03730564","2023-12-08 16:30:00","11.9818","3.54609","26.497","2.444","7.53","0.895","3.744","0.13","0.25","30.6134","4.79438","27.48","0","SATNPRO1963","30.412","0.42602","5"],
    [6849,"HCEP03730564","2023-12-08 16:45:00","11.985","3.54647","26.295","2.299","7.52","0.895","3.744","0.13","0.25","30.6145","4.79448","25.85","0","SATNPRO1963","30.15","0.42232","5"],
    [6850,"HCEP03730564","2023-12-08 17:00:00","11.9912","3.54747","26.118","2.261","7.51","0.895","3.744","0.13","0.25","30.619","4.79502","25.43","0","SATNPRO1963","29.744","0.41662","5"],
    [6851,"HCEP03730564","2023-12-08 17:15:00","11.9937","3.54814","25.915","2.245","7.51","0.981","4.689","0","0","30.6234","4.7956","25.25","2","SATNPRO1963","29.994","0.42006","5"],
    [6852,"HCEP03730564","2023-12-08 17:30:00","11.9961","3.54849","25.708","2.242","7.5","0.504","4.048","0.02","0.14","30.625","4.79577","25.22","2","SATNPRO1963","29.31","0.41056","5"],
    [6853,"HCEP03730564","2023-12-08 17:45:00","11.9976","3.54817","25.529","2.228","7.5","0.736","5.168","0.06","1.1","30.6207","4.79513","25.05","2","SATNPRO1963","29.162","0.40846","5"],
    [6854,"HCEP03730564","2023-12-08 18:00:00","12.0008","3.54871","25.348","2.169","7.51","0.583","5.329","0.13","0.32","30.6233","4.79545","24.4","2","SATNPRO1963","29.509999999999998","0.41336","5"],
    [6855,"HCEP03730564","2023-12-08 18:15:00","12.0062","3.5495","25.194","2.13","7.5","0.686","4.823","0.13","0.13","30.6265","4.79581","23.96","2","SATNPRO1963","29.174","0.40866","5"],
    [6856,"HCEP03730564","2023-12-08 18:30:00","12.0095","3.54994","25.073","2.103","7.5","0.715","4.951","0.16","0.35","30.628","4.79598","23.66","2","SATNPRO1963","29.56","0.41406","5"],
    [6857,"HCEP03730564","2023-12-08 18:45:00","12.0162","3.55194","24.967","2.068","7.49","0.651","4.915","0.1","0.44","30.6418","4.79782","23.27","2","SATNPRO1963","29.676","0.4157","5"],
    [6858,"HCEP03730564","2023-12-08 19:00:00","12.0196","3.55291","24.926","2.072","7.5","0.663","4.66","0.22","0.19","30.6483","4.79869","23.31","2","SATNPRO1963","29.328","0.41078","5"],
    [6859,"HCEP03730564","2023-12-08 19:15:00","12.0211","3.55342","24.894","2.08","7.5","0.625","5.152","0.1","0.65","30.6519","4.79918","23.41","2","SATNPRO1963","29.514","0.41338","5"],
    [6860,"HCEP03730564","2023-12-08 19:30:00","12.022","3.55359","24.834","2.068","7.5","0.587","4.978","0.18","0.29","30.6528","4.79929","23.28","2","SATNPRO1963","29.402","0.41186","5"],
    [6861,"HCEP03730564","2023-12-08 19:45:00","12.0228","3.55388","24.819","2.055","7.5","0.561","5.261","0.07","0.25","30.655","4.79959","23.13","2","SATNPRO1963","29.248","0.40966","5"],
    [6862,"HCEP03730564","2023-12-08 20:00:00","12.022","3.55363","24.848","2.049","7.49","0.506","4.837","0.08","0.15","30.6533","4.79936","23.06","2","SATNPRO1963","29.396","0.41174","5"],
    [6863,"HCEP03730564","2023-12-08 20:15:00","12.0216","3.55356","24.881","2.048","7.5","0.605","5.007","0.14","0.27","30.653","4.79932","23.05","2","SATNPRO1963","29.26","0.40986","5"],
    [6864,"HCEP03730564","2023-12-08 20:30:00","12.0199","3.55309","24.941","2.053","7.5","0.504","4.219","0.08","0.11","30.6497","4.79889","23.11","2","SATNPRO1963","29.354","0.41118","5"],
    [6865,"HCEP03730564","2023-12-08 20:45:00","12.0197","3.55323","25.018","2.057","7.5","0.503","3.987","0.06","0.12","30.6512","4.79911","23.15","2","SATNPRO1963","29.116","0.40784","5"],
    [6866,"HCEP03730564","2023-12-08 21:00:00","12.0245","3.55462","25.027","2.001","7.5","0.499","4.333","0.1","0.09","30.6606","4.80036","22.53","2","SATNPRO1963","29.036","0.40668","5"],
    [6867,"HCEP03730564","2023-12-08 21:15:00","12.0275","3.55559","25.1","1.915","7.5","0.489","5.366","0.05","0.21","30.6674","4.80129","21.56","2","SATNPRO1963","29.073999999999998","0.40722","5"],
    [6868,"HCEP03730564","2023-12-08 21:30:00","12.0295","3.55621","25.237","1.895","7.49","0.466","5.293","0.06","0.24","30.6716","4.80186","21.34","2","SATNPRO1963","29.4","0.41182","5"],
    [6869,"HCEP03730564","2023-12-08 21:45:00","12.0288","3.55606","25.3","1.908","7.49","0.501","4.653","0.07","0.12","30.6707","4.80174","21.48","2","SATNPRO1963","29.392","0.41164","5"],
    [6870,"HCEP03730564","2023-12-08 22:00:00","12.0269","3.55542","25.424","1.901","7.49","0.46","5.131","0.06","0.16","30.6661","4.80113","21.4","2","SATNPRO1963","28.904","0.40486","5"],
    [6871,"HCEP03730564","2023-12-08 22:15:00","12.0226","3.55374","25.525","1.92","7.49","0.51","4.643","0.08","0.09","30.6536","4.79943","21.62","2","SATNPRO1963","28.294","0.39632","5"],
    [6872,"HCEP03730564","2023-12-08 22:30:00","12.0068","3.5491","25.612","2.031","7.5","0.507","3.684","0.07","0.08","30.622","4.7952","22.85","0","SATNPRO1963","28.37","0.39736","5"],
    [6873,"HCEP03730564","2023-12-08 22:45:00","12.0185","3.55284","25.743","1.995","7.5","0.536","4.084","0.12","0.16","30.6482","4.79874","22.46","0","SATNPRO1963","28.616","0.4008","5"],
    [6874,"HCEP03730564","2023-12-08 23:00:00","12.0163","3.55191","25.894","1.928","7.49","0.525","4.513","0.1","0.18","30.641","4.79776","21.69","0","SATNPRO1963","28.646","0.40126","5"],
    [6875,"HCEP03730564","2023-12-08 23:15:00","12.0133","3.55093","26.013","1.903","7.49","0.546","4.461","0.09","0.13","30.6341","4.79683","21.41","0","SATNPRO1963","28.894","0.40472","5"],
    [6876,"HCEP03730564","2023-12-08 23:30:00","12.0089","3.54975","26.178","1.897","7.49","0.477","4.777","0.05","0.16","30.6263","4.79581","21.34","0","SATNPRO1963","29.541999999999998","0.41376","5"],
    [6877,"HCEP03730564","2023-12-08 23:45:00","12.0106","3.55026","26.234","1.886","7.49","0.509","4.819","0.08","0.11","30.6298","4.79628","21.22","0","SATNPRO1963","28.96","0.40566","5"],
    [6878,"HCEP03730564","2023-12-09 00:00:00","12.0088","3.54969","26.389","1.884","7.49","0.48","4.18","0.07","0.16","30.6257","4.79573","21.19","0","SATNPRO1963","28.758","0.40282","5"],
    [6879,"HCEP03730564","2023-12-09 00:15:00","12.0032","3.54812","26.551","1.886","7.49","0.487","3.813","0.04","0.13","30.6152","4.79434","21.21","0","SATNPRO1963","28.808","0.40346","5"],
    [6880,"HCEP03730564","2023-12-09 00:30:00","12.0097","3.55012","26.699","1.878","7.49","0.492","4.295","0.08","0.23","30.629","4.7962","21.13","0","SATNPRO1963","28.794","0.4033","5"],
    [6881,"HCEP03730564","2023-12-09 00:45:00","12.0135","3.5513","26.829","1.881","7.49","0.489","4.146","0.07","0.16","30.6372","4.79732","21.16","0","SATNPRO1963","28.842","0.40396","5"],
    [6882,"HCEP03730564","2023-12-09 01:00:00","12.018","3.55272","26.958","1.877","7.49","0.47","4.57","0.05","0.16","30.647","4.79863","21.12","0","SATNPRO1963","28.774","0.403","5"],
    [6883,"HCEP03730564","2023-12-09 01:15:00","12.0213","3.5538","27.188","1.87","7.49","0.546","4.966","0.1","0.64","30.6546","4.79967","21.05","0","SATNPRO1963","28.876","0.40446","5"],
    [6884,"HCEP03730564","2023-12-09 01:30:00","12.0226","3.55444","27.231","1.86","7.48","0.516","5.27","0.06","0.31","30.6596","4.80037","20.93","0","SATNPRO1963","28.664","0.4015","5"],
    [6885,"HCEP03730564","2023-12-09 01:45:00","12.0248","3.555","27.3","1.824","7.48","0.54","5.289","0.09","0.29","30.6631","4.80084","20.54","0","SATNPRO1963","28.762","0.4029","5"],
    [6886,"HCEP03730564","2023-12-09 02:00:00","12.026","3.55538","27.315","1.808","7.48","0.515","5.284","0.07","0.24","30.6657","4.80119","20.36","0","SATNPRO1963","28.572","0.4002","5"],
    [6887,"HCEP03730564","2023-12-09 02:15:00","12.0245","3.55473","27.266","1.831","7.48","0.538","4.429","0.13","0.24","30.6608","4.80051","20.61","0","SATNPRO1963","28.322","0.3967","5"],
    [6888,"HCEP03730564","2023-12-09 02:30:00","12.0216","3.55384","27.272","1.868","7.48","0.559","4.252","0.13","0.16","30.6547","4.79969","21.02","0","SATNPRO1963","28.43","0.3982","5"],
    [6889,"HCEP03730564","2023-12-09 02:45:00","12.0194","3.55329","27.276","1.872","7.48","0.535","4.862","0.08","0.16","30.6512","4.79923","21.07","0","SATNPRO1963","28.038","0.39272","5"],
    [6890,"HCEP03730564","2023-12-09 03:00:00","12.0119","3.55107","27.251","1.897","7.49","0.55","4.411","0.1","0.18","30.6361","4.7972","21.35","0","SATNPRO1963","28.288","0.39624","5"],
    [6891,"HCEP03730564","2023-12-09 03:15:00","12.0131","3.55139","27.269","1.887","7.49","0.566","4.809","0.05","0.16","30.6381","4.79748","21.23","0","SATNPRO1963","28.402","0.39786","5"],
    [6892,"HCEP03730564","2023-12-09 03:30:00","12.0097","3.55048","27.247","1.891","7.49","0.562","5.002","0.08","0.17","30.6323","4.79669","21.27","2","SATNPRO1963","28.724","0.40232","5"],
    [6893,"HCEP03730564","2023-12-09 03:45:00","12.0064","3.54958","27.299","1.923","7.49","0.599","4.916","0.09","0.35","30.6263","4.7959","21.63","0","SATNPRO1963","28.6","0.4006","5"],
    [6894,"HCEP03730564","2023-12-09 04:00:00","12.0093","3.55038","27.283","1.914","7.49","0.598","5.296","0.08","0.15","30.6316","4.79661","21.53","0","SATNPRO1963","28.78","0.4031","5"],
    [6895,"HCEP03730564","2023-12-09 04:15:00","12.0133","3.55169","27.281","1.905","7.49","0.611","4.94","0.08","0.13","30.6409","4.79787","21.44","0","SATNPRO1963","28.5","0.39922","5"],
    [6896,"HCEP03730564","2023-12-09 04:30:00","12.014","3.55159","27.24","1.914","7.49","0.59","4.578","0.12","0.12","30.6393","4.79762","21.53","2","SATNPRO1963","28.636","0.40112","5"],
    [6897,"HCEP03730564","2023-12-09 04:45:00","12.0126","3.55121","27.223","1.942","7.49","0.605","5.187","0.07","0.85","30.6369","4.7973","21.86","0","SATNPRO1963","28.852","0.40418","5"],
    [6898,"HCEP03730564","2023-12-09 05:00:00","12.0126","3.55119","27.228","1.953","7.49","0.617","7.61","0.07","1.91","30.6366","4.79727","21.97","0","SATNPRO1963","28.764","0.4029","5"],
    [6899,"HCEP03730564","2023-12-09 05:15:00","12.0122","3.55127","27.171","1.943","7.49","0.613","7.695","0.06","1.66","30.6378","4.79744","21.87","0","SATNPRO1963","28.692","0.40188","5"],
    [6900,"HCEP03730564","2023-12-09 05:30:00","12.012","3.55156","27.153","1.953","7.49","0.558","7.11","0.08","2.24","30.6407","4.79784","21.98","0","SATNPRO1963","28.864","0.4043","5"],
    [6901,"HCEP03730564","2023-12-09 05:45:00","12.0097","3.55138","27.041","1.952","7.49","0.602","7.442","0.08","1.74","30.6409","4.79791","21.97","0","SATNPRO1963","28.942","0.40538","5"],
    [6902,"HCEP03730564","2023-12-09 06:00:00","12.0051","3.55051","27.003","1.97","7.49","0.592","7.809","0.1","1.8","30.6364","4.79732","22.17","0","SATNPRO1963","29.024","0.40654","5"],
    [6903,"HCEP03730564","2023-12-09 06:15:00","11.9962","3.54874","26.871","2.004","7.5","0.627","7.812","0.07","2.44","30.6268","4.79609","22.54","0","SATNPRO1963","28.894","0.40472","5"],
    [6904,"HCEP03730564","2023-12-09 06:30:00","11.993","3.54771","26.819","2.033","7.5","0.653","5.598","0.08","1.65","30.6196","4.79512","22.86","0","SATNPRO1963","28.848","0.40408","5"],
    [6905,"HCEP03730564","2023-12-09 06:45:00","11.993","3.54727","26.753","2.105","7.5","0.658","4.409","0.08","1.27","30.6153","4.79451","23.68","0","SATNPRO1963","28.97","0.4058","5"],
    [6906,"HCEP03730564","2023-12-09 07:00:00","11.9921","3.54734","26.74","2.147","7.5","0.621","4.177","0.05","1.08","30.6168","4.79473","24.14","0","SATNPRO1963","29.062","0.40708","5"],
    [6907,"HCEP03730564","2023-12-09 07:15:00","11.998","3.54855","26.693","2.169","7.51","0.681","2.69","0.14","0.22","30.6235","4.79559","24.4","0","SATNPRO1963","28.934","0.40528","5"],
    [6908,"HCEP03730564","2023-12-09 07:30:00","11.9977","3.54867","26.728","2.159","7.51","0.63","3.591","0.09","0.41","30.625","4.7958","24.28","0","SATNPRO1963","29.012","0.4064","5"],
    [6909,"HCEP03730564","2023-12-09 07:45:00","11.998","3.54891","26.627","2.132","7.5","0.685","3.624","0.11","0.2","30.627","4.79608","23.98","0","SATNPRO1963","29.426","0.41216","5"],
    [6910,"HCEP03730564","2023-12-09 08:00:00","11.9941","3.5483","26.629","2.162","7.5","0.624","2.82","0.09","0.13","30.6244","4.79577","24.31","2","SATNPRO1963","29.46","0.41264","5"],
    [6911,"HCEP03730564","2023-12-09 08:15:00","11.9947","3.54834","26.596","2.205","7.5","0.686","3.097","0.1","0.61","30.6243","4.79574","24.79","2","SATNPRO1963","29.778","0.41706","5"],
    [6912,"HCEP03730564","2023-12-09 08:30:00","11.9947","3.54837","26.61","2.195","7.5","0.636","2.953","0.11","0.19","30.6246","4.79578","24.69","2","SATNPRO1963","29.528000000000002","0.41358","5"],
    [6913,"HCEP03730564","2023-12-09 08:45:00","11.9953","3.54867","26.684","2.151","7.5","0.691","3.812","0.04","0.54","30.627","4.79612","24.2","2","SATNPRO1963","29.396","0.41172","5"],
    [6914,"HCEP03730564","2023-12-09 09:00:00","11.9961","3.54891","26.739","2.117","7.5","0.549","3.671","0.06","0.04","30.6286","4.79633","23.81","2","SATNPRO1963","29.58","0.41436","5"],
    [6915,"HCEP03730564","2023-12-09 09:15:00","11.9963","3.54903","26.793","2.125","7.5","0.564","3.408","0","0","30.6295","4.79647","23.9","2","SATNPRO1963","29.648","0.41526","5"],
    [6916,"HCEP03730564","2023-12-09 09:30:00","11.9966","3.54906","26.887","2.137","7.5","0.525","4.163","0","0","30.6295","4.79647","24.03","2","SATNPRO1963","29.822","0.41768","5"],
    [6917,"HCEP03730564","2023-12-09 09:45:00","11.9969","3.54921","26.901","2.126","7.51","0.525","4.163","0","0","30.6307","4.79664","23.91","0","SATNPRO1963","29.628","0.415","5"],
    [6918,"HCEP03730564","2023-12-09 10:00:00","11.9964","3.5491","27.014","2.088","7.5","0.529","4.561","0","0","30.6299","4.79654","23.48","2","SATNPRO1963","29.576","0.41428","5"],
    [6919,"HCEP03730564","2023-12-09 10:15:00","11.9959","3.54879","27.007","2.171","7.5","0.529","4.561","0","0","30.6274","4.79619","24.42","0","SATNPRO1963","29.61","0.41478","5"],
    [6920,"HCEP03730564","2023-12-09 10:30:00","11.9952","3.54885","27.128","2.082","7.5","0.529","4.561","0","0","30.6286","4.79637","23.41","0","SATNPRO1963","29.626","0.41494","5"],
    [6921,"HCEP03730564","2023-12-09 10:45:00","11.9957","3.54891","27.197","2.094","7.5","0.603","3.445","0","0","30.6288","4.79639","23.56","2","SATNPRO1963","29.276","0.41004","5"],
    [6922,"HCEP03730564","2023-12-09 11:00:00","11.9948","3.54867","27.255","2.142","7.5","0.629","3.422","0.07","0.08","30.6271","4.79617","24.09","2","SATNPRO1963","29.146","0.40826","5"],
    [6923,"HCEP03730564","2023-12-09 11:15:00","11.9941","3.5485","27.363","2.166","7.51","0.629","3.422","0.07","0.08","30.626","4.79604","24.36","0","SATNPRO1963","29.894","0.41868","5"],
    [6924,"HCEP03730564","2023-12-09 11:30:00","11.9941","3.5484","27.46","2.236","7.51","0.629","3.422","0.07","0.08","30.625","4.7959","25.14","0","SATNPRO1963","29.162","0.40844","5"],
    [6925,"HCEP03730564","2023-12-09 11:45:00","11.9934","3.54822","27.579","2.285","7.51","0.629","3.422","0.07","0.08","30.6239","4.79576","25.7","0","SATNPRO1963","29.428","0.41218","5"],
    [6926,"HCEP03730564","2023-12-09 12:00:00","11.9943","3.5484","27.597","2.326","7.51","0.629","3.422","0.07","0.08","30.6248","4.79587","26.16","0","SATNPRO1963","29.442","0.41238","5"],
    [6927,"HCEP03730564","2023-12-09 12:15:00","11.9943","3.54847","27.655","2.279","7.52","0.629","3.422","0.07","0.08","30.6254","4.79597","25.63","0","SATNPRO1963","29.704","0.41606","5"],
    [6928,"HCEP03730564","2023-12-09 12:30:00","11.9968","3.54868","27.732","2.401","7.52","0.638","1.975","0.06","0.03","30.6254","4.79593","27","2","SATNPRO1963","29.858","0.4182","5"],
    [6929,"HCEP03730564","2023-12-09 12:45:00","11.998","3.54908","27.855","2.436","7.53","0.725","2.113","0.05","0.2","30.6282","4.79632","27.41","2","SATNPRO1963","30.061999999999998","0.42106","5"],
    [6930,"HCEP03730564","2023-12-09 13:00:00","11.9997","3.54951","27.864","2.47","7.53","0.725","2.113","0.05","0.2","30.6309","4.79667","27.78","0","SATNPRO1963","30.195999999999998","0.42294","5"],
    [6931,"HCEP03730564","2023-12-09 13:15:00","12.0005","3.54979","27.769","2.386","7.53","0.725","2.113","0.05","0.2","30.633","4.79695","26.84","0","SATNPRO1963","29.964000000000002","0.41968","5"],
    [6932,"HCEP03730564","2023-12-09 13:30:00","11.9975","3.54927","27.845","2.079","7.51","0.725","2.113","0.05","0.2","30.6304","4.79664","23.39","0","SATNPRO1963","30.684","0.42978","5"],
    [6933,"HCEP03730564","2023-12-09 13:45:00","11.999","3.54959","27.853","1.988","7.5","0.637","4.375","0.01","0.11","30.6322","4.79686","22.37","2","SATNPRO1963","30.582","0.42834","5"],
    [6934,"HCEP03730564","2023-12-09 14:00:00","12.0007","3.54984","27.798","2.007","7.5","0.604","3.744","0.07","0.17","30.6333","4.797","22.58","2","SATNPRO1963","30.944","0.43342","5"],
    [6935,"HCEP03730564","2023-12-09 14:15:00","12.005","3.551","27.895","1.975","7.5","0.689","4.236","0","0","30.6408","4.798","22.21","2","SATNPRO1963","30.078","0.42132","5"],
    [6936,"HCEP03730564","2023-12-09 14:30:00","12.0101","3.55228","27.728","1.971","7.49","0.689","4.236","0","0","30.649","4.79908","22.18","0","SATNPRO1963","29.218","0.40924","5"],
    [6937,"HCEP03730564","2023-12-09 14:45:00","12.0133","3.55254","27.709","2.003","7.5","0.689","4.236","0","0","30.6488","4.799","22.54","0","SATNPRO1963","28.84","0.40392","5"],
    [6938,"HCEP03730564","2023-12-09 15:00:00","12.0125","3.55247","27.663","1.924","7.49","0.689","4.236","0","0","30.6488","4.79901","21.65","0","SATNPRO1963","29.114","0.40782","5"],
    [6939,"HCEP03730564","2023-12-09 15:15:00","12.0135","3.55198","27.676","1.905","7.49","0.689","4.236","0","0","30.6433","4.79822","21.44","0","SATNPRO1963","29.21","0.4091","5"],
    [6940,"HCEP03730564","2023-12-09 15:30:00","12.0119","3.55181","27.481","1.857","7.49","0.689","4.236","0","0","30.643","4.79819","20.9","0","SATNPRO1963","29.17","0.40856","5"],
    [6941,"HCEP03730564","2023-12-09 15:45:00","12.0107","3.55132","27.339","1.853","7.49","0.689","4.236","0","0","30.6394","4.79768","20.85","0","SATNPRO1963","29.242","0.40958","5"],
    [6942,"HCEP03730564","2023-12-09 16:00:00","12.0112","3.55114","27.14","1.837","7.49","0.689","4.236","0","0","30.6374","4.79739","20.67","0","SATNPRO1963","29","0.4062","5"],
    [6943,"HCEP03730564","2023-12-09 16:15:00","12.0092","3.5506","27.046","1.823","7.48","0.689","4.236","0","0","30.6338","4.79691","20.51","0","SATNPRO1963","28.812","0.40358","5"],
    [6944,"HCEP03730564","2023-12-09 16:30:00","12.0074","3.54997","26.798","1.814","7.48","0.689","4.236","0","0","30.6294","4.7963","20.4","0","SATNPRO1963","28.616","0.4008","5"],
    [6945,"HCEP03730564","2023-12-09 16:45:00","12.003","3.5491","26.596","1.815","7.48","0.689","4.236","0","0","30.6247","4.79569","20.42","0","SATNPRO1963","28.738","0.40252","5"],
    [6946,"HCEP03730564","2023-12-09 17:00:00","12.0016","3.54843","26.378","1.821","7.48","0.689","4.236","0","0","30.6196","4.79497","20.48","0","SATNPRO1963","28.568","0.40014","5"],
    [6947,"HCEP03730564","2023-12-09 17:15:00","12.0025","3.54844","26.147","1.806","7.48","0.689","4.236","0","0","30.619","4.79486","20.32","0","SATNPRO1963","28.496","0.39914","5"],
    [6948,"HCEP03730564","2023-12-09 17:30:00","12.0005","3.54802","25.942","1.799","7.48","0.689","4.236","0","0","30.6167","4.79456","20.23","0","SATNPRO1963","28.57","0.40016","5"],
    [6949,"HCEP03730564","2023-12-09 17:45:00","11.9973","3.5469","25.834","1.782","7.48","0.482","4.245","0","0","30.6086","4.79346","20.05","2","SATNPRO1963","28.63","0.40106","5"],
    [6950,"HCEP03730564","2023-12-09 18:00:00","11.9961","3.54668","25.679","1.755","7.48","0.482","4.245","0","0","30.6076","4.79332","19.74","0","SATNPRO1963","28.836","0.40392","5"],
    [6951,"HCEP03730564","2023-12-09 18:15:00","11.9949","3.5465","25.575","1.718","7.48","0.482","4.245","0","0","30.6069","4.79323","19.32","0","SATNPRO1963","28.578","0.40028","5"],
    [6952,"HCEP03730564","2023-12-09 18:30:00","11.9944","3.54638","25.465","1.686","7.47","0.482","4.245","0","0","30.6062","4.79314","18.96","0","SATNPRO1963","28.662","0.40144","5"],
    [6953,"HCEP03730564","2023-12-09 18:45:00","11.9947","3.54637","25.28","1.667","7.47","0.482","4.245","0","0","30.6058","4.79307","18.74","0","SATNPRO1963","28.58","0.40032","5"],
    [6954,"HCEP03730564","2023-12-09 19:00:00","11.9941","3.54618","25.07","1.658","7.47","0.444","3.988","0.09","0.19","30.6047","4.7929","18.65","2","SATNPRO1963","28.47","0.39878","5"],
    [6955,"HCEP03730564","2023-12-09 19:15:00","11.9937","3.54621","24.952","1.658","7.47","0.487","3.792","0.1","0.17","30.6053","4.79298","18.65","2","SATNPRO1963","28.188","0.39482","5"],
    [6956,"HCEP03730564","2023-12-09 19:30:00","11.9935","3.54614","24.753","1.665","7.47","0.443","3.714","0.09","0.33","30.6049","4.79292","18.72","2","SATNPRO1963","28.144000000000002","0.3942","5"],
    [6957,"HCEP03730564","2023-12-09 19:45:00","11.9929","3.54588","24.691","1.679","7.46","0.443","3.543","0.03","0.18","30.6029","4.79264","18.88","2","SATNPRO1963","28.073999999999998","0.39324","5"],
    [6958,"HCEP03730564","2023-12-09 20:00:00","11.993","3.54584","24.678","1.697","7.46","0.465","3.982","0.05","0.39","30.6025","4.79259","19.09","2","SATNPRO1963","27.98","0.39192","5"],
    [6959,"HCEP03730564","2023-12-09 20:15:00","11.9924","3.54564","24.621","1.707","7.46","2.548","47.037","0","0","30.6011","4.7924","19.19","2","SATNPRO1963","28.134","0.39408","5"],
    [6960,"HCEP03730564","2023-12-09 20:30:00","11.9969","3.54694","24.697","1.701","7.46","2.548","47.037","0","0","30.6098","4.79357","19.13","0","SATNPRO1963","28.272","0.39598","5"],
    [6961,"HCEP03730564","2023-12-09 20:45:00","11.998","3.54724","24.685","1.682","7.47","2.548","47.037","0","0","30.6118","4.79383","18.92","0","SATNPRO1963","28.306","0.39646","5"],
    [6962,"HCEP03730564","2023-12-09 21:00:00","11.9966","3.54685","24.75","1.679","7.47","2.548","47.037","0","0","30.6092","4.79348","18.88","0","SATNPRO1963","28.47","0.39878","5"],
    [6963,"HCEP03730564","2023-12-09 21:15:00","11.991","3.54542","24.736","1.714","7.47","2.548","47.037","0","0","30.6001","4.79228","19.27","0","SATNPRO1963","28.426","0.3982","5"],
    [6964,"HCEP03730564","2023-12-09 21:30:00","11.9915","3.54601","24.692","1.691","7.47","2.548","47.037","0","0","30.6053","4.793","19.01","0","SATNPRO1963","28.384","0.39758","5"],
    [6965,"HCEP03730564","2023-12-09 21:45:00","11.9706","3.53849","24.835","1.675","7.47","2.548","47.037","0","0","30.5504","4.78556","18.82","0","SATNPRO1963","28.154","0.39436","5"],
    [6966,"HCEP03730564","2023-12-09 22:00:00","11.9761","3.5407","24.864","1.7","7.47","2.548","47.037","0","0","30.5669","4.78782","19.1","0","SATNPRO1963","28.368","0.39736","5"],
    [6967,"HCEP03730564","2023-12-09 22:15:00","11.9622","3.53748","24.961","1.692","7.47","2.548","47.037","0","0","30.5475","4.78527","19.01","0","SATNPRO1963","28.502","0.39922","5"],
    [6968,"HCEP03730564","2023-12-09 22:30:00","11.9545","3.53549","25.074","1.675","7.47","2.548","47.037","0","0","30.5347","4.78357","18.82","0","SATNPRO1963","28.368","0.39734","5"],
    [6969,"HCEP03730564","2023-12-09 22:45:00","11.9518","3.53489","25.244","1.677","7.47","2.548","47.037","0","0","30.531","4.78311","18.83","0","SATNPRO1963","28.354","0.39712","5"],
    [6970,"HCEP03730564","2023-12-09 23:00:00","11.9414","3.53183","25.367","1.689","7.47","2.548","47.037","0","0","30.5102","4.78031","18.96","0","SATNPRO1963","28.134","0.39402","5"],
    [6971,"HCEP03730564","2023-12-09 23:15:00","11.9336","3.53002","25.628","1.676","7.47","2.548","47.037","0","0","30.4991","4.77888","18.81","0","SATNPRO1963","28.268","0.3959","5"],
    [6972,"HCEP03730564","2023-12-09 23:30:00","11.917","3.52672","25.692","1.652","7.47","2.548","47.037","0","0","30.481","4.77656","18.53","0","SATNPRO1963","28.068","0.39312","5"],
    [6973,"HCEP03730564","2023-12-09 23:45:00","11.8999","3.52247","25.764","1.675","7.47","2.548","47.037","0","0","30.4542","4.77301","18.78","0","SATNPRO1963","28.122","0.39392","5"],
    [6974,"HCEP03730564","2023-12-10 00:00:00","11.884","3.51922","25.968","1.659","7.47","0.579","3.73","0.14","0.17","30.4358","4.77065","18.59","2","SATNPRO1963","27.98","0.39194","5"],
    [6975,"HCEP03730564","2023-12-10 00:15:00","11.8875","3.51966","26.177","1.629","7.46","0.541","3.802","0.06","0.15","30.4371","4.7708","18.26","2","SATNPRO1963","27.944","0.39142","5"],
    [6976,"HCEP03730564","2023-12-10 00:30:00","11.8962","3.52143","26.379","1.599","7.46","0.541","3.802","0.06","0.15","30.447","4.77208","17.93","0","SATNPRO1963","27.714","0.3882","5"],
    [6977,"HCEP03730564","2023-12-10 00:45:00","11.9028","3.52283","26.547","1.577","7.46","0.541","3.802","0.06","0.15","30.4549","4.77312","17.68","0","SATNPRO1963","27.248","0.38162","5"],
    [6978,"HCEP03730564","2023-12-10 01:00:00","11.9099","3.52458","26.693","1.568","7.46","0.541","3.802","0.06","0.15","30.4659","4.77457","17.58","0","SATNPRO1963","27.099999999999998","0.37956","5"],
    [6979,"HCEP03730564","2023-12-10 01:15:00","11.9145","3.5255","26.863","1.549","7.46","0.541","3.802","0.06","0.15","30.4709","4.77523","17.38","0","SATNPRO1963","26.768","0.37498","5"],
    [6980,"HCEP03730564","2023-12-10 01:30:00","11.9165","3.52592","27.057","1.537","7.46","0.541","3.802","0.06","0.15","30.4732","4.77553","17.24","0","SATNPRO1963","26.846","0.37604","5"],
    [6981,"HCEP03730564","2023-12-10 01:45:00","11.9209","3.52686","27.14","1.536","7.46","0.541","3.802","0.06","0.15","30.4786","4.77624","17.23","0","SATNPRO1963","26.924","0.37708","5"],
    [6982,"HCEP03730564","2023-12-10 02:00:00","11.921","3.52674","27.314","1.537","7.46","0.541","3.802","0.06","0.15","30.4773","4.77606","17.24","0","SATNPRO1963","26.906","0.37686","5"],
    [6983,"HCEP03730564","2023-12-10 02:15:00","11.9152","3.52525","27.329","1.538","7.46","0.541","3.802","0.06","0.15","30.4676","4.77479","17.26","0","SATNPRO1963","26.942","0.37734","5"],
    [6984,"HCEP03730564","2023-12-10 02:30:00","11.9079","3.52369","27.323","1.543","7.46","0.541","3.802","0.06","0.15","30.4587","4.77362","17.31","0","SATNPRO1963","26.948","0.37744","5"],
    [6985,"HCEP03730564","2023-12-10 02:45:00","11.9167","3.52544","27.322","1.548","7.46","0.541","3.802","0.06","0.15","30.4683","4.77485","17.37","0","SATNPRO1963","26.92","0.3771","5"],
    [6986,"HCEP03730564","2023-12-10 03:00:00","11.9263","3.52781","27.464","1.581","7.46","0.541","3.802","0.06","0.15","30.4832","4.77683","17.74","0","SATNPRO1963","27.01","0.37832","5"],
    [6987,"HCEP03730564","2023-12-10 03:15:00","11.9334","3.52973","27.505","1.609","7.46","0.514","3.776","0.04","0.14","30.4958","4.77851","18.06","2","SATNPRO1963","26.864","0.37626","5"],
    [6988,"HCEP03730564","2023-12-10 03:30:00","11.9329","3.52941","27.547","1.623","7.47","0.514","3.776","0.04","0.14","30.4931","4.77814","18.21","0","SATNPRO1963","26.838","0.37594","5"],
    [6989,"HCEP03730564","2023-12-10 03:45:00","11.9203","3.52669","27.55","1.635","7.46","0.514","3.776","0.04","0.14","30.4773","4.77609","18.34","0","SATNPRO1963","26.96","0.3776","5"],
    [6990,"HCEP03730564","2023-12-10 04:00:00","11.9109","3.52396","27.587","1.649","7.47","0.514","3.776","0.04","0.14","30.4588","4.77361","18.5","0","SATNPRO1963","27.284","0.38216","5"],
    [6991,"HCEP03730564","2023-12-10 04:15:00","11.9148","3.52574","27.568","1.655","7.46","0.514","3.776","0.04","0.14","30.4727","4.77551","18.57","0","SATNPRO1963","27.582","0.38632","5"],
    [6992,"HCEP03730564","2023-12-10 04:30:00","11.9221","3.52804","27.61","1.664","7.46","0.514","3.776","0.04","0.14","30.4887","4.77768","18.67","0","SATNPRO1963","27.352","0.38312","5"],
    [6993,"HCEP03730564","2023-12-10 04:45:00","11.9328","3.53058","27.573","1.682","7.47","0.584","3.801","0.07","0.17","30.5044","4.77974","18.88","2","SATNPRO1963","27.698","0.38798","5"],
    [6994,"HCEP03730564","2023-12-10 05:00:00","11.9333","3.53124","27.541","1.708","7.47","0.584","3.801","0.07","0.17","30.5103","4.78056","19.17","0","SATNPRO1963","27.412","0.38396","5"],
    [6995,"HCEP03730564","2023-12-10 05:15:00","11.921","3.52932","27.501","1.745","7.47","0.584","3.801","0.07","0.17","30.502","4.77957","19.58","0","SATNPRO1963","27.61","0.3867","5"],
    [6996,"HCEP03730564","2023-12-10 05:30:00","11.8984","3.52351","27.422","1.798","7.48","0.584","3.801","0.07","0.17","30.4647","4.77461","20.16","0","SATNPRO1963","27.658","0.38742","5"],
    [6997,"HCEP03730564","2023-12-10 05:45:00","11.9048","3.52527","27.354","1.829","7.47","0.584","3.801","0.07","0.17","30.4765","4.77618","20.52","0","SATNPRO1963","27.990000000000002","0.39204","5"],
    [6998,"HCEP03730564","2023-12-10 06:00:00","11.9197","3.52985","27.32","1.808","7.47","0.584","3.801","0.07","0.17","30.5082","4.78044","20.29","0","SATNPRO1963","27.7","0.38798","5"],
    [6999,"HCEP03730564","2023-12-10 06:15:00","11.9327","3.53268","27.287","1.761","7.47","0.584","3.801","0.07","0.17","30.5247","4.78259","19.77","0","SATNPRO1963","27.938","0.3913","5"],
    [7000,"HCEP03730564","2023-12-10 06:30:00","11.9322","3.5324","27.231","1.762","7.47","0.584","3.801","0.07","0.17","30.5224","4.78228","19.77","0","SATNPRO1963","27.928","0.39118","5"],
    [7001,"HCEP03730564","2023-12-10 06:45:00","11.9344","3.53326","27.19","1.768","7.47","0.584","3.801","0.07","0.17","30.5289","4.78315","19.84","0","SATNPRO1963","27.956","0.39158","5"],
    [7002,"HCEP03730564","2023-12-10 07:00:00","11.9329","3.53318","27.109","1.761","7.47","0.584","3.801","0.07","0.17","30.5294","4.78324","19.77","0","SATNPRO1963","28.034","0.39262","5"],
    [7003,"HCEP03730564","2023-12-10 07:15:00","11.9306","3.53313","27.024","1.8","7.47","0.584","3.801","0.07","0.17","30.5308","4.78347","20.21","0","SATNPRO1963","28.062","0.39304","5"],
    [7004,"HCEP03730564","2023-12-10 07:30:00","11.9184","3.53106","26.962","1.86","7.47","0.584","3.801","0.07","0.17","30.521","4.78225","20.87","0","SATNPRO1963","28.144","0.39424","5"],
    [7005,"HCEP03730564","2023-12-10 07:45:00","11.9006","3.52756","26.918","1.961","7.47","0.584","3.801","0.07","0.17","30.5019","4.77981","21.99","0","SATNPRO1963","28.242","0.39558","5"],
    [7006,"HCEP03730564","2023-12-10 08:00:00","11.895","3.52724","26.847","2.078","7.48","0.749","3.652","0.17","0.28","30.5035","4.78011","23.31","0","SATNPRO1963","28.09","0.39346","5"],
    [7007,"HCEP03730564","2023-12-10 08:15:00","11.8874","3.52639","26.832","2.162","7.49","0.849","4.025","0.21","0.19","30.5015","4.77993","24.24","0","SATNPRO1963","28.174","0.3946","5"],
    [7008,"HCEP03730564","2023-12-10 08:30:00","11.8851","3.52612","26.819","2.23","7.49","0.862","4.144","0.3","0.47","30.5009","4.77988","25","0","SATNPRO1963","28.166","0.39452","5"],
    [7009,"HCEP03730564","2023-12-10 08:45:00","11.8889","3.52738","26.785","2.279","7.49","0.943","4.631","0.39","1.75","30.5099","4.78108","25.56","0","SATNPRO1963","28.528","0.39958","5"],
    [7010,"HCEP03730564","2023-12-10 09:00:00","11.8927","3.52842","26.787","2.285","7.5","0.786","4.458","0.18","0.42","30.5168","4.78201","25.63","0","SATNPRO1963","28.668","0.40154","5"],
    [7011,"HCEP03730564","2023-12-10 09:15:00","11.901","3.53054","26.796","2.286","7.5","0.77","3.919","0.25","0.19","30.5303","4.7838","25.65","0","SATNPRO1963","28.826","0.40376","5"],
    [7012,"HCEP03730564","2023-12-10 09:30:00","11.9099","3.53279","26.832","2.269","7.5","0.846","4.445","0.17","0.56","30.5446","4.78569","25.47","0","SATNPRO1963","28.646","0.40122","5"],
    [7013,"HCEP03730564","2023-12-10 09:45:00","11.9197","3.53498","26.889","2.217","7.5","0.812","4.187","0.22","0.43","30.5575","4.78739","24.89","0","SATNPRO1963","28.896","0.40474","5"],
    [7014,"HCEP03730564","2023-12-10 10:00:00","11.9239","3.53589","26.931","2.161","7.5","0.874","5.192","0.28","0.43","30.5629","4.78808","24.26","2","SATNPRO1963","28.626","0.40096","5"],
    [7015,"HCEP03730564","2023-12-10 10:15:00","11.9349","3.53804","26.974","2.091","7.5","0.813","4.288","0.2","0.22","30.5744","4.78956","23.48","2","SATNPRO1963","28.798000000000002","0.40334","5"],
    [7016,"HCEP03730564","2023-12-10 10:30:00","11.9452","3.53991","27.049","2.01","7.49","0.707","4.318","0.13","0.38","30.5839","4.79075","22.58","2","SATNPRO1963","28.89","0.40468","5"],
    [7017,"HCEP03730564","2023-12-10 10:45:00","11.9541","3.5417","27.105","1.945","7.49","0.699","5.017","0.24","0.38","30.5938","4.79203","21.85","2","SATNPRO1963","28.712","0.40218","5"],
    [7018,"HCEP03730564","2023-12-10 11:00:00","11.9577","3.54287","27.166","1.927","7.49","0.69","4.638","0.14","0.39","30.6019","4.79313","21.65","2","SATNPRO1963","28.462","0.39866","5"],
    [7019,"HCEP03730564","2023-12-10 11:15:00","11.9605","3.54364","27.251","1.934","7.49","0.691","4.72","0.1","0.48","30.6071","4.79382","21.74","2","SATNPRO1963","28.504","0.39924","5"],
    [7020,"HCEP03730564","2023-12-10 11:30:00","11.9639","3.54462","27.346","1.947","7.48","0.612","4.463","0.13","0.23","30.6136","4.7947","21.88","0","SATNPRO1963","28.306","0.39646","5"],
    [7021,"HCEP03730564","2023-12-10 11:45:00","11.9698","3.54477","27.429","1.938","7.48","0.638","3.393","0.16","0.15","30.6101","4.79414","21.78","0","SATNPRO1963","28.302","0.39638","5"],
    [7022,"HCEP03730564","2023-12-10 12:00:00","11.9702","3.54581","27.513","1.962","7.48","0.672","3.75","0.17","0.16","30.6198","4.7955","22.05","2","SATNPRO1963","28.42","0.39808","5"],
    [7023,"HCEP03730564","2023-12-10 12:15:00","11.9725","3.54652","27.581","2.001","7.48","0.647","3.642","0.22","0.17","30.6247","4.79617","22.5","2","SATNPRO1963","28.334","0.39688","5"],
    [7024,"HCEP03730564","2023-12-10 12:30:00","11.971","3.54632","27.639","2.005","7.48","0.523","3.704","0.08","0.24","30.6239","4.79607","22.54","0","SATNPRO1963","28.442","0.3984","5"],
    [7025,"HCEP03730564","2023-12-10 12:45:00","11.9707","3.54629","27.682","1.994","7.48","0.559","3.705","0.13","0.12","30.6239","4.79608","22.42","0","SATNPRO1963","28.766000000000002","0.4029","5"],
    [7026,"HCEP03730564","2023-12-10 13:00:00","11.9713","3.54661","27.738","2.001","7.48","0.535","3.807","0.12","0.14","30.6265","4.79644","22.49","0","SATNPRO1963","28.642","0.40112","5"],
    [7027,"HCEP03730564","2023-12-10 13:15:00","11.9728","3.54674","27.777","2.017","7.48","0.561","3.518","0.13","0.13","30.6265","4.79642","22.68","2","SATNPRO1963","28.852","0.40412","5"],
    [7028,"HCEP03730564","2023-12-10 13:30:00","11.9727","3.54681","27.811","2.023","7.48","0.511","3.408","0.12","0.11","30.6271","4.79651","22.74","2","SATNPRO1963","28.724","0.40234","5"],
    [7029,"HCEP03730564","2023-12-10 13:45:00","11.9724","3.54681","27.833","2.011","7.48","0.577","3.509","0.14","0.16","30.6275","4.79657","22.61","2","SATNPRO1963","28.716","0.40222","5"],
    [7030,"HCEP03730564","2023-12-10 14:00:00","11.972","3.54679","27.842","1.986","7.48","0.558","3.968","0.16","0.35","30.6276","4.79659","22.33","2","SATNPRO1963","28.828","0.40378","5"],
    [7031,"HCEP03730564","2023-12-10 14:15:00","11.9724","3.54686","27.83","1.994","7.48","0.574","3.869","0.18","0.16","30.6279","4.79663","22.41","0","SATNPRO1963","28.728","0.40236","5"],
    [7032,"HCEP03730564","2023-12-10 14:30:00","11.9738","3.54685","27.804","2.017","7.48","0.611","3.779","0.26","0.43","30.6267","4.79644","22.67","0","SATNPRO1963","28.942","0.40534","5"],
    [7033,"HCEP03730564","2023-12-10 14:45:00","11.9732","3.54685","27.766","2.049","7.49","0.759","3.481","0.31","0.21","30.6272","4.79651","23.03","0","SATNPRO1963","28.688","0.4018","5"],
    [7034,"HCEP03730564","2023-12-10 15:00:00","11.9738","3.54679","27.737","2.079","7.49","0.734","3.471","0.41","0.24","30.6261","4.79635","23.38","0","SATNPRO1963","28.774","0.40306","5"],
    [7035,"HCEP03730564","2023-12-10 15:15:00","11.9721","3.54704","27.674","2.064","7.49","0.602","4.182","0.18","0.32","30.63","4.79692","23.21","0","SATNPRO1963","28.768","0.40296","5"],
    [7036,"HCEP03730564","2023-12-10 15:30:00","11.9712","3.54714","27.598","2.041","7.49","0.644","4.549","0.17","0.34","30.6317","4.79718","22.94","0","SATNPRO1963","28.886","0.40462","5"],
    [7037,"HCEP03730564","2023-12-10 15:45:00","11.9709","3.54716","27.498","2.06","7.49","0.695","3.927","0.19","0.17","30.6322","4.79724","23.15","0","SATNPRO1963","28.902","0.40482","5"],
    [7038,"HCEP03730564","2023-12-10 16:00:00","11.971","3.54721","27.385","2.081","7.5","0.58","3.916","0.19","0.24","30.6325","4.79728","23.4","0","SATNPRO1963","29.032","0.40666","5"],
    [7039,"HCEP03730564","2023-12-10 16:15:00","11.9704","3.54717","27.233","2.123","7.49","0.599","4.09","0.11","0.16","30.6327","4.7973","23.87","0","SATNPRO1963","28.594","0.40052","5"],
    [7040,"HCEP03730564","2023-12-10 16:30:00","11.9699","3.54723","27.084","2.147","7.49","0.618","4.287","0.12","0.27","30.6338","4.79746","24.14","0","SATNPRO1963","28.778","0.40308","5"],
    [7041,"HCEP03730564","2023-12-10 16:45:00","11.9695","3.54731","26.895","2.172","7.49","0.644","4.281","0.09","0.23","30.635","4.79762","24.41","0","SATNPRO1963","28.63","0.401","5"],
    [7042,"HCEP03730564","2023-12-10 17:00:00","11.969","3.54729","26.732","2.202","7.49","0.696","4.575","0.14","0.37","30.6352","4.79765","24.75","0","SATNPRO1963","29.02","0.40646","5"],
    [7043,"HCEP03730564","2023-12-10 17:15:00","11.9691","3.54735","26.528","2.221","7.5","0.723","4.305","0.24","0.39","30.6359","4.79773","24.97","0","SATNPRO1963","28.98","0.40594","5"],
    [7044,"HCEP03730564","2023-12-10 17:30:00","11.9689","3.54738","26.343","2.258","7.51","0.725","4.125","0.24","0.34","30.6363","4.79778","25.38","0","SATNPRO1963","29.074","0.4072","5"],
    [7045,"HCEP03730564","2023-12-10 17:45:00","11.9695","3.54743","26.126","2.304","7.51","0.683","3.804","0.22","0.21","30.6365","4.79779","25.9","0","SATNPRO1963","28.992","0.40606","5"],
    [7046,"HCEP03730564","2023-12-10 18:00:00","11.9693","3.54746","25.933","2.321","7.5","0.76","4.092","0.27","0.27","30.6369","4.79784","26.09","0","SATNPRO1963","29.19","0.40886","5"],
    [7047,"HCEP03730564","2023-12-10 18:15:00","11.9698","3.5475","25.721","2.332","7.51","0.811","4.129","0.27","0.33","30.637","4.79784","26.22","0","SATNPRO1963","29.192","0.40888","5"],
    [7048,"HCEP03730564","2023-12-10 18:30:00","11.9699","3.5475","25.515","2.362","7.51","0.662","4.075","0.14","0.91","30.637","4.79782","26.55","0","SATNPRO1963","29.388","0.41162","5"],
    [7049,"HCEP03730564","2023-12-10 18:45:00","11.971","3.54777","25.337","2.395","7.51","0.639","3.428","0.22","0.17","30.6388","4.79805","26.93","0","SATNPRO1963","29.436","0.41234","5"],
    [7050,"HCEP03730564","2023-12-10 19:00:00","11.9709","3.54783","25.134","2.459","7.52","0.664","3.481","0.22","0.29","30.6395","4.79813","27.64","0","SATNPRO1963","29.236","0.40944","5"],
    [7051,"HCEP03730564","2023-12-10 19:15:00","11.971","3.54772","24.96","2.468","7.52","0.688","3.662","0.21","0.68","30.6384","4.79797","27.74","0","SATNPRO1963","29.381999999999998","0.41148","5"],
    [7052,"HCEP03730564","2023-12-10 19:30:00","11.9711","3.54774","24.796","2.451","7.52","0.811","3.291","0.3","0.21","30.6386","4.79799","27.56","0","SATNPRO1963","29.732","0.41642","5"],
    [7053,"HCEP03730564","2023-12-10 19:45:00","11.9712","3.54778","24.645","2.447","7.52","0.701","3.219","0.23","0.21","30.6389","4.79802","27.51","0","SATNPRO1963","30.062","0.42108","5"],
    [7054,"HCEP03730564","2023-12-10 20:00:00","11.9708","3.54771","24.497","2.463","7.52","0.731","3.37","0.28","0.27","30.6388","4.798","27.69","0","SATNPRO1963","30.274","0.42406","5"],
    [7055,"HCEP03730564","2023-12-10 20:15:00","11.9698","3.54746","24.389","2.438","7.52","0.622","3.28","0.17","0.27","30.6372","4.79779","27.41","0","SATNPRO1963","29.986","0.42","5"],
    [7056,"HCEP03730564","2023-12-10 20:30:00","11.9687","3.5472","24.295","2.387","7.52","0.771","3.64","0.3","0.28","30.6356","4.79757","26.83","0","SATNPRO1963","29.768","0.41694","5"],
    [7057,"HCEP03730564","2023-12-10 20:45:00","11.9685","3.54713","24.242","2.381","7.52","0.673","3.183","0.25","0.16","30.6351","4.79751","26.76","0","SATNPRO1963","29.604","0.41464","5"],
    [7058,"HCEP03730564","2023-12-10 21:00:00","11.967","3.54647","24.215","2.471","7.52","0.562","2.871","0.11","0.22","30.63","4.79681","27.77","0","SATNPRO1963","29.862000000000002","0.4183","5"],
    [7059,"HCEP03730564","2023-12-10 21:15:00","11.9662","3.54623","24.204","2.495","7.53","0.571","3.057","0.21","0.23","30.6283","4.79658","28.05","0","SATNPRO1963","29.73","0.41648","5"],
    [7060,"HCEP03730564","2023-12-10 21:30:00","11.9633","3.54521","24.23","2.417","7.53","0.533","2.731","0.18","0.15","30.621","4.79558","27.17","0","SATNPRO1963","29.584","0.4144","5"],
    [7061,"HCEP03730564","2023-12-10 21:45:00","11.9654","3.54613","24.26","2.359","7.52","0.515","3.441","0.13","0.25","30.6281","4.79655","26.51","0","SATNPRO1963","29.714","0.4162","5"],
    [7062,"HCEP03730564","2023-12-10 22:00:00","11.9621","3.54537","24.35","2.293","7.52","0.63","4.399","0.22","0.31","30.6234","4.79595","25.77","0","SATNPRO1963","30.386","0.42562","5"],
    [7063,"HCEP03730564","2023-12-10 22:15:00","11.943","3.54222","24.345","2.233","7.51","0.595","4.41","0.14","0.43","30.6089","4.79417","25.09","0","SATNPRO1963","30.398","0.42578","5"],
    [7064,"HCEP03730564","2023-12-10 22:30:00","11.9467","3.5409","24.42","2.239","7.51","0.546","4.14","0.09","0.36","30.5931","4.7919","25.15","0","SATNPRO1963","29.828","0.41778","5"],
    [7065,"HCEP03730564","2023-12-10 22:45:00","11.9538","3.54266","24.613","2.254","7.51","0.602","4.51","0.13","0.36","30.6041","4.79336","25.33","0","SATNPRO1963","29.602","0.4146","5"],
    [7066,"HCEP03730564","2023-12-10 23:00:00","11.9587","3.54309","24.709","2.277","7.51","0.582","4.808","0.1","0.5","30.6042","4.79331","25.58","0","SATNPRO1963","29.146","0.40826","5"],
    [7067,"HCEP03730564","2023-12-10 23:15:00","11.9537","3.54126","24.878","2.282","7.52","0.551","3.98","0.12","0.27","30.5907","4.79149","25.64","0","SATNPRO1963","29.254","0.40976","5"],
    [7068,"HCEP03730564","2023-12-10 23:30:00","11.9543","3.54077","25.05","2.28","7.52","0.524","4.025","0.13","0.28","30.5855","4.79075","25.61","0","SATNPRO1963","29.294","0.41034","5"],
    [7069,"HCEP03730564","2023-12-10 23:45:00","11.9564","3.54093","25.22","2.263","7.52","0.585","4.083","0.18","0.31","30.5852","4.79069","25.42","0","SATNPRO1963","29.498","0.41318","5"],
    [7070,"HCEP03730564","2023-12-11 00:00:00","11.9559","3.54071","25.437","2.205","7.51","0.532","3.921","0.16","0.37","30.5834","4.79045","24.77","0","SATNPRO1963","29.66","0.41546","5"],
    [7071,"HCEP03730564","2023-12-11 00:15:00","11.9537","3.54038","25.61","2.15","7.51","0.501","4.028","0.09","0.4","30.582","4.7903","24.15","0","SATNPRO1963","29.672","0.4156","5"],
    [7072,"HCEP03730564","2023-12-11 00:30:00","11.948","3.53923","25.756","2.11","7.51","0.532","4.027","0.11","0.28","30.5756","4.78948","23.7","0","SATNPRO1963","29.714","0.4162","5"],
    [7073,"HCEP03730564","2023-12-11 00:45:00","11.9462","3.53838","26.011","2.073","7.5","0.529","4.12","0.1","0.31","30.5688","4.78856","23.28","0","SATNPRO1963","29.716","0.41626","5"],
    [7074,"HCEP03730564","2023-12-11 01:00:00","11.9462","3.53859","26.229","2.038","7.5","0.575","4.552","0.18","0.46","30.5707","4.78884","22.89","0","SATNPRO1963","29.616","0.4148","5"],
    [7075,"HCEP03730564","2023-12-11 01:15:00","11.9511","3.53971","26.464","2.037","7.5","0.597","4.627","0.19","0.65","30.5773","4.78972","22.88","0","SATNPRO1963","29.152","0.40836","5"],
    [7076,"HCEP03730564","2023-12-11 01:30:00","11.9591","3.5416","26.679","2.052","7.5","0.564","4.167","0.14","0.46","30.5888","4.79124","23.05","0","SATNPRO1963","29.152","0.40836","5"],
    [7077,"HCEP03730564","2023-12-11 01:45:00","11.9604","3.54176","26.876","2.034","7.5","0.584","4.268","0.19","0.53","30.5893","4.7913","22.86","0","SATNPRO1963","28.998","0.40618","5"],
    [7078,"HCEP03730564","2023-12-11 02:00:00","11.9615","3.54216","27.069","1.999","7.49","0.571","4.64","0.1","0.36","30.5921","4.79169","22.46","0","SATNPRO1963","28.806","0.4035","5"],
    [7079,"HCEP03730564","2023-12-11 02:15:00","11.9609","3.54196","27.231","1.964","7.49","0.532","4.632","0.09","0.44","30.5906","4.79149","22.07","0","SATNPRO1963","29.088","0.40746","5"],
    [7080,"HCEP03730564","2023-12-11 02:30:00","11.9597","3.54161","27.388","1.944","7.49","0.559","4.536","0.13","0.33","30.5882","4.79119","21.84","0","SATNPRO1963","29.11","0.40772","5"],
    [7081,"HCEP03730564","2023-12-11 02:45:00","11.9583","3.54113","27.583","1.944","7.49","0.537","4.312","0.12","0.29","30.5847","4.79071","21.84","0","SATNPRO1963","28.958000000000002","0.4056","5"],
    [7082,"HCEP03730564","2023-12-11 03:00:00","11.9553","3.54023","27.756","1.952","7.49","0.565","4.33","0.16","0.36","30.5784","4.78987","21.93","0","SATNPRO1963","28.904","0.40484","5"],
    [7083,"HCEP03730564","2023-12-11 03:15:00","11.9516","3.53946","27.852","1.989","7.49","0.61","4.268","0.21","0.4","30.5739","4.78931","22.35","0","SATNPRO1963","28.624","0.40094","5"],
    [7084,"HCEP03730564","2023-12-11 03:30:00","11.9486","3.53912","27.766","2.077","7.49","0.549","4.782","0.08","0.44","30.5733","4.78925","23.33","0","SATNPRO1963","28.608","0.4007","5"],
    [7085,"HCEP03730564","2023-12-11 03:45:00","11.9499","3.53984","27.656","2.159","7.5","0.6","4.759","0.11","0.26","30.5792","4.79006","24.25","0","SATNPRO1963","28.786","0.40322","5"],
    [7086,"HCEP03730564","2023-12-11 04:00:00","11.956","3.54193","27.709","2.243","7.5","0.662","4.275","0.15","0.28","30.5941","4.79209","25.2","0","SATNPRO1963","28.676","0.40168","5"],
    [7087,"HCEP03730564","2023-12-11 04:15:00","11.9533","3.5411","27.763","2.307","7.51","0.622","4.124","0.14","0.33","30.5884","4.79132","25.91","0","SATNPRO1963","28.744","0.40262","5"],
    [7088,"HCEP03730564","2023-12-11 04:30:00","11.9553","3.54204","27.842","2.333","7.51","0.724","4.195","0.22","0.32","30.5958","4.79233","26.21","0","SATNPRO1963","29.136","0.4081","5"],
    [7089,"HCEP03730564","2023-12-11 04:45:00","11.9524","3.54087","27.779","2.361","7.52","0.65","3.841","0.14","0.31","30.5869","4.79112","26.52","0","SATNPRO1963","29.483999999999998","0.41294","5"],
    [7090,"HCEP03730564","2023-12-11 05:00:00","11.9532","3.5411","27.836","2.382","7.52","0.617","3.849","0.2","0.26","30.5884","4.79133","26.76","0","SATNPRO1963","29.61","0.4147","5"],
    [7091,"HCEP03730564","2023-12-11 05:15:00","11.9556","3.54194","27.816","2.402","7.52","0.638","4.416","0.12","0.44","30.5945","4.79216","26.99","0","SATNPRO1963","29.734","0.41646","5"],
    [7092,"HCEP03730564","2023-12-11 05:30:00","11.9539","3.54179","27.796","2.416","7.53","0.574","4.082","0.12","0.28","30.5944","4.79217","27.15","0","SATNPRO1963","29.8","0.4174","5"],
    [7093,"HCEP03730564","2023-12-11 05:45:00","11.9535","3.54162","27.766","2.417","7.53","0.533","3.696","0.11","0.22","30.5932","4.792","27.15","0","SATNPRO1963","29.868","0.41836","5"],
    [7094,"HCEP03730564","2023-12-11 06:00:00","11.9523","3.54137","27.732","2.415","7.53","0.539","3.754","0.12","0.31","30.5918","4.79182","27.13","0","SATNPRO1963","29.990000000000002","0.42006","5"],
    [7095,"HCEP03730564","2023-12-11 06:15:00","11.953","3.54157","27.705","2.393","7.53","0.606","4.239","0.2","0.76","30.5931","4.79199","26.88","0","SATNPRO1963","30.004","0.42028","5"],
    [7096,"HCEP03730564","2023-12-11 06:30:00","11.9439","3.53954","27.639","2.351","7.53","0.569","4.25","0.22","0.31","30.5811","4.79042","26.41","0","SATNPRO1963","30.118","0.42182","5"],
    [7097,"HCEP03730564","2023-12-11 06:45:00","11.9282","3.53372","27.582","2.353","7.52","0.564","3.097","0.22","0.36","30.5383","4.78459","26.42","0","SATNPRO1963","29.854","0.41812","5"],
    [7098,"HCEP03730564","2023-12-11 07:00:00","11.9275","3.53517","27.507","2.382","7.52","0.511","3.423","0.18","0.43","30.5528","4.78664","26.74","0","SATNPRO1963","30.172","0.42256","5"],
    [7099,"HCEP03730564","2023-12-11 07:15:00","11.9298","3.53556","27.449","2.378","7.52","0.518","3.432","0.14","0.18","30.5547","4.78688","26.69","0","SATNPRO1963","29.778","0.41708","5"],
    [7100,"HCEP03730564","2023-12-11 07:30:00","11.9422","3.53848","27.384","2.381","7.52","0.522","3.144","0.14","0.44","30.5725","4.78921","26.74","0","SATNPRO1963","29.62","0.41486","5"],
    [7101,"HCEP03730564","2023-12-11 07:45:00","11.9513","3.54136","27.321","2.405","7.52","0.587","3.183","0.17","0.19","30.5927","4.79193","27.02","0","SATNPRO1963","29.76","0.41684","5"],
    [7102,"HCEP03730564","2023-12-11 08:00:00","11.9571","3.54312","27.23","2.411","7.52","0.587","3.299","0.18","0.22","30.6048","4.79356","27.09","0","SATNPRO1963","29.752","0.41668","5"],
    [7103,"HCEP03730564","2023-12-11 08:15:00","11.9595","3.54383","27.165","2.407","7.52","0.647","3.876","0.15","0.49","30.6098","4.79422","27.05","0","SATNPRO1963","29.6","0.41466","5"],
    [7104,"HCEP03730564","2023-12-11 08:30:00","11.9622","3.54464","27.116","2.409","7.53","0.592","3.876","0.16","0.29","30.6153","4.79495","27.07","0","SATNPRO1963","30.099999999999998","0.42156","5"],
    [7105,"HCEP03730564","2023-12-11 08:45:00","11.9656","3.54559","27.048","2.426","7.53","0.632","3.577","0.14","0.34","30.6216","4.7958","27.27","0","SATNPRO1963","29.97","0.4198","5"],
    [7106,"HCEP03730564","2023-12-11 09:00:00","11.966","3.54566","26.986","2.445","7.53","0.673","3.684","0.13","0.45","30.622","4.79584","27.48","0","SATNPRO1963","29.977999999999998","0.41992","5"],
    [7107,"HCEP03730564","2023-12-11 09:15:00","11.9656","3.54568","26.951","2.45","7.53","0.708","4.558","0.24","0.49","30.6226","4.79592","27.54","0","SATNPRO1963","30.002","0.42022","5"],
    [7108,"HCEP03730564","2023-12-11 09:30:00","11.9658","3.54578","26.929","2.437","7.53","0.611","4.054","0.13","0.38","30.6233","4.79603","27.4","0","SATNPRO1963","30.06","0.42104","5"],
    [7109,"HCEP03730564","2023-12-11 09:45:00","11.9658","3.54573","26.92","2.422","7.53","0.632","4.367","0.22","0.54","30.6229","4.79597","27.23","0","SATNPRO1963","30.186","0.42282","5"],
    [7110,"HCEP03730564","2023-12-11 10:00:00","11.9668","3.54606","26.908","2.439","7.53","0.629","3.877","0.19","0.37","30.6252","4.79627","27.42","0","SATNPRO1963","30.166","0.42252","5"],
    [7111,"HCEP03730564","2023-12-11 10:15:00","11.9681","3.54635","26.918","2.449","7.53","0.702","4.39","0.13","0.43","30.6269","4.7965","27.52","0","SATNPRO1963","29.948","0.41948","5"],
    [7112,"HCEP03730564","2023-12-11 10:30:00","11.9724","3.54723","26.945","2.479","7.53","0.65","4.42","0.15","0.26","30.6319","4.79714","27.87","0","SATNPRO1963","29.934","0.41924","5"],
    [7113,"HCEP03730564","2023-12-11 10:45:00","11.9756","3.54782","26.993","2.547","7.53","0.681","2.859","0.28","0.2","30.6349","4.79752","28.64","0","SATNPRO1963","30.016","0.42046","5"],
    [7114,"HCEP03730564","2023-12-11 11:00:00","11.9752","3.54761","27.032","2.601","7.54","0.674","3.522","0.17","0.27","30.6332","4.79729","29.25","0","SATNPRO1963","30.102","0.42162","5"],
    [7115,"HCEP03730564","2023-12-11 11:15:00","11.9801","3.54854","27.118","2.613","7.54","0.588","2.686","0.14","0.3","30.6381","4.79792","29.38","0","SATNPRO1963","30.084","0.42138","5"],
    [7116,"HCEP03730564","2023-12-11 11:30:00","11.976","3.54793","27.156","2.6","7.54","0.677","3.477","0.16","0.17","30.6355","4.79761","29.23","0","SATNPRO1963","30.564","0.42812","5"],
    [7117,"HCEP03730564","2023-12-11 11:45:00","11.9767","3.54825","27.22","2.563","7.54","0.621","3.125","0.19","0.22","30.6379","4.79795","28.81","0","SATNPRO1963","30.616","0.42884","5"],
    [7118,"HCEP03730564","2023-12-11 12:00:00","11.9775","3.54861","27.274","2.53","7.54","0.614","3.462","0.14","0.33","30.6407","4.79833","28.45","0","SATNPRO1963","30.724","0.43036","5"],
    [7119,"HCEP03730564","2023-12-11 12:15:00","11.9796","3.5493","27.343","2.512","7.54","0.709","3.117","0.37","0.23","30.6456","4.799","28.25","0","SATNPRO1963","30.912","0.43294","5"],
    [7120,"HCEP03730564","2023-12-11 12:30:00","11.9811","3.54971","27.403","2.5","7.54","0.709","3.621","0.25","0.38","30.6483","4.79936","28.11","0","SATNPRO1963","30.492","0.42714","5"],
    [7121,"HCEP03730564","2023-12-11 12:45:00","11.9818","3.54993","27.523","2.49","7.53","0.708","3.615","0.26","0.38","30.6498","4.79957","28","0","SATNPRO1963","30.74","0.43058","5"],
    [7122,"HCEP03730564","2023-12-11 13:00:00","11.9822","3.55013","27.572","2.473","7.53","0.702","3.561","0.23","0.17","30.6513","4.79978","27.81","0","SATNPRO1963","30.294","0.4243","5"],
    [7123,"HCEP03730564","2023-12-11 13:15:00","11.9816","3.55","27.634","2.468","7.53","0.643","4.028","0.14","0.24","30.6506","4.79969","27.75","0","SATNPRO1963","30.496","0.42712","5"],
    [7124,"HCEP03730564","2023-12-11 13:30:00","11.9991","3.55409","27.691","2.526","7.53","0.747","4.128","0.16","0.31","30.6754","4.80295","28.42","0","SATNPRO1963","30.33","0.42478","5"],
    [7125,"HCEP03730564","2023-12-11 13:45:00","11.9962","3.55341","27.721","2.558","7.54","0.749","3.647","0.16","0.3","30.6713","4.80241","28.78","0","SATNPRO1963","30.212","0.42316","5"],
    [7126,"HCEP03730564","2023-12-11 14:00:00","12.0036","3.55509","27.777","2.553","7.54","0.728","4.52","0.16","0.42","30.6812","4.80371","28.73","0","SATNPRO1963","30.516000000000002","0.4274","5"],
    [7127,"HCEP03730564","2023-12-11 14:15:00","12.0069","3.55579","27.803","2.605","7.54","0.789","3.544","0.19","0.23","30.6852","4.80423","29.32","0","SATNPRO1963","30.240000000000002","0.42354","5"],
    [7128,"HCEP03730564","2023-12-11 14:30:00","12.0017","3.55456","27.797","2.588","7.54","0.713","4.62","0.14","0.36","30.6777","4.80324","29.13","0","SATNPRO1963","30.872","0.43244","5"],
    [7129,"HCEP03730564","2023-12-11 14:45:00","12.0059","3.55536","27.779","2.591","7.54","0.779","3.639","0.19","0.18","30.6818","4.80376","29.16","0","SATNPRO1963","30.686","0.42984","5"],
    [7130,"HCEP03730564","2023-12-11 15:00:00","12.0029","3.55462","27.763","2.601","7.54","0.653","3.964","0.14","0.52","30.6773","4.80316","29.27","0","SATNPRO1963","30.93","0.43316","5"],
    [7131,"HCEP03730564","2023-12-11 15:15:00","12.0005","3.55362","27.719","2.584","7.54","0.757","4.195","0.17","0.3","30.6697","4.80213","29.08","0","SATNPRO1963","31.148","0.4363","5"],
    [7132,"HCEP03730564","2023-12-11 15:30:00","11.9944","3.5525","27.66","2.577","7.54","0.756","4.432","0.2","0.43","30.664","4.80141","28.99","0","SATNPRO1963","30.654","0.4294","5"],
    [7133,"HCEP03730564","2023-12-11 15:45:00","11.9931","3.55257","27.573","2.557","7.54","0.69","4.321","0.15","0.21","30.6658","4.80167","28.77","0","SATNPRO1963","31.214","0.43722","5"],
    [7134,"HCEP03730564","2023-12-11 16:00:00","11.9958","3.55234","27.491","2.559","7.54","0.811","4.681","0.34","0.44","30.6614","4.80101","28.79","0","SATNPRO1963","30.832","0.43182","5"],
    [7135,"HCEP03730564","2023-12-11 16:15:00","12.0053","3.55467","27.369","2.623","7.54","0.631","3.896","0.16","0.44","30.676","4.80292","29.52","0","SATNPRO1963","30.938","0.43334","5"],
    [7136,"HCEP03730564","2023-12-11 16:30:00","12.0104","3.55574","27.251","2.671","7.55","0.651","3.485","0.13","0.31","30.6821","4.80371","30.06","0","SATNPRO1963","30.918","0.4331","5"],
    [7137,"HCEP03730564","2023-12-11 16:45:00","12.0126","3.55623","27.119","2.69","7.55","0.627","3.291","0.11","0.21","30.685","4.80408","30.28","0","SATNPRO1963","30.742","0.43062","5"],
    [7138,"HCEP03730564","2023-12-11 17:00:00","12.0134","3.55652","26.956","2.69","7.55","0.665","3.599","0.14","0.36","30.6871","4.80437","30.28","0","SATNPRO1963","30.964","0.4337","5"],
    [7139,"HCEP03730564","2023-12-11 17:15:00","12.0135","3.55659","26.842","2.675","7.55","0.688","4.023","0.2","0.47","30.6877","4.80444","30.11","0","SATNPRO1963","31.33","0.43884","5"],
    [7140,"HCEP03730564","2023-12-11 17:30:00","12.0107","3.55593","26.542","2.662","7.55","0.678","3.864","0.18","0.28","30.6839","4.80393","29.96","0","SATNPRO1963","31.454","0.44056","5"],
    [7141,"HCEP03730564","2023-12-11 17:45:00","12.006","3.55486","26.332","2.648","7.55","0.639","3.737","0.15","0.26","30.6776","4.80309","29.8","0","SATNPRO1963","31.38","0.43952","5"],
    [7142,"HCEP03730564","2023-12-11 18:00:00","12.0031","3.55432","26.073","2.62","7.55","0.64","4.01","0.2","0.65","30.6749","4.80273","29.48","0","SATNPRO1963","31.598","0.44258","5"],
    [7143,"HCEP03730564","2023-12-11 18:15:00","11.9999","3.55358","25.933","2.592","7.54","0.702","3.685","0.17","0.24","30.6705","4.80215","29.16","0","SATNPRO1963","31.298","0.43836","5"],
    [7144,"HCEP03730564","2023-12-11 18:30:00","11.9959","3.55258","25.764","2.571","7.54","0.615","3.653","0.2","0.35","30.6643","4.80132","28.92","0","SATNPRO1963","31.39","0.43966","5"],
    [7145,"HCEP03730564","2023-12-11 18:45:00","11.9981","3.55319","25.562","2.548","7.54","0.659","4.119","0.24","0.37","30.6684","4.80185","28.67","0","SATNPRO1963","31.07","0.43518","5"],
    [7146,"HCEP03730564","2023-12-11 19:00:00","11.9941","3.55215","25.347","2.534","7.54","0.673","4.698","0.2","2.77","30.6618","4.80097","28.5","0","SATNPRO1963","30.964","0.4337","5"],
    [7147,"HCEP03730564","2023-12-11 19:15:00","11.9912","3.5514","25.131","2.514","7.54","0.645","3.864","0.16","0.52","30.6571","4.80034","28.28","0","SATNPRO1963","31.056","0.435","5"],
    [7148,"HCEP03730564","2023-12-11 19:30:00","11.9895","3.55105","24.908","2.497","7.54","0.698","4.71","0.23","0.9","30.6552","4.80008","28.08","0","SATNPRO1963","30.878","0.43252","5"],
    [7149,"HCEP03730564","2023-12-11 19:45:00","11.9863","3.54993","24.674","2.487","7.54","0.569","4.195","0.11","0.33","30.6472","4.79898","27.96","0","SATNPRO1963","30.908","0.43294","5"],
    [7150,"HCEP03730564","2023-12-11 20:00:00","11.9793","3.54844","24.471","2.471","7.53","0.587","4.161","0.14","1.01","30.6387","4.79786","27.79","0","SATNPRO1963","30.692","0.42994","5"],
    [7151,"HCEP03730564","2023-12-11 20:15:00","11.9877","3.55061","24.304","2.461","7.53","0.42","3.31","0.11","0.12","30.6527","4.79972","27.68","0","SATNPRO1963","30.884","0.43264","5"],
    [7152,"HCEP03730564","2023-12-11 20:30:00","11.9866","3.55027","24.149","2.468","7.53","0.602","3.703","0.29","0.14","30.6504","4.7994","27.76","0","SATNPRO1963","30.628","0.42898","5"],
    [7153,"HCEP03730564","2023-12-11 20:45:00","11.9914","3.55158","24.04","2.479","7.53","0.639","3.661","0.25","0.31","30.6591","4.80055","27.88","0","SATNPRO1963","30.7","0.43002","5"],
    [7154,"HCEP03730564","2023-12-11 21:00:00","11.9897","3.5511","23.916","2.481","7.53","0.755","3.561","0.54","0.41","30.6559","4.80012","27.9","0","SATNPRO1963","29.608","0.4147","5"],
    [7155,"HCEP03730564","2023-12-11 21:15:00","11.9874","3.55026","23.879","2.471","7.53","0.572","3.705","0.21","0.56","30.6498","4.79929","27.79","0","SATNPRO1963","31.102","0.43562","5"],
    [7156,"HCEP03730564","2023-12-11 21:30:00","11.9565","3.54254","23.748","2.453","7.53","0.482","3.524","0.11","0.25","30.6011","4.79285","27.56","0","SATNPRO1963","30.362","0.42526","5"],
    [7157,"HCEP03730564","2023-12-11 21:45:00","11.9516","3.54123","23.781","2.437","7.53","0.459","3.682","0.09","0.29","30.5926","4.79172","27.38","0","SATNPRO1963","30.81","0.43156","5"],
    [7158,"HCEP03730564","2023-12-11 22:00:00","11.9576","3.54261","23.844","2.421","7.53","0.535","3.918","0.15","0.35","30.6009","4.79281","27.21","0","SATNPRO1963","30.494","0.42714","5"],
    [7159,"HCEP03730564","2023-12-11 22:15:00","11.9574","3.54278","24.019","2.405","7.53","0.513","3.892","0.16","0.33","30.6026","4.79306","27.02","0","SATNPRO1963","30.11","0.42174","5"],
    [7160,"HCEP03730564","2023-12-11 22:30:00","11.9531","3.54196","24.039","2.396","7.52","0.511","4.007","0.11","0.23","30.5983","4.79251","26.92","0","SATNPRO1963","30.364","0.42526","5"],
    [7161,"HCEP03730564","2023-12-11 22:45:00","11.9518","3.54116","24.138","2.378","7.53","0.523","4.275","0.18","0.56","30.5916","4.79159","26.71","0","SATNPRO1963","29.942","0.41938","5"],
    [7162,"HCEP03730564","2023-12-11 23:00:00","11.9487","3.54017","24.239","2.37","7.52","0.453","3.807","0.15","0.25","30.5846","4.79066","26.62","0","SATNPRO1963","30.176","0.42266","5"],
    [7163,"HCEP03730564","2023-12-11 23:15:00","11.9442","3.53922","24.385","2.349","7.52","0.44","3.768","0.11","0.19","30.5791","4.78996","26.39","0","SATNPRO1963","30.078","0.4213","5"],
    [7164,"HCEP03730564","2023-12-11 23:30:00","11.946","3.53976","24.589","2.328","7.52","0.467","3.975","0.22","0.21","30.5828","4.79046","26.15","0","SATNPRO1963","29.934","0.41926","5"],
    [7165,"HCEP03730564","2023-12-11 23:45:00","11.9424","3.5387","24.766","2.315","7.52","0.431","4.052","0.17","0.24","30.5755","4.78949","26","0","SATNPRO1963","29.818","0.41764","5"],
    [7166,"HCEP03730564","2023-12-12 00:00:00","11.9439","3.53917","24.953","2.292","7.52","0.506","3.669","0.26","0.2","30.5787","4.78992","25.75","0","SATNPRO1963","29.964","0.4197","5"],
    [7167,"HCEP03730564","2023-12-12 00:15:00","11.9411","3.53837","25.147","2.276","7.52","0.497","3.642","0.26","0.28","30.5732","4.7892","25.56","0","SATNPRO1963","29.868000000000002","0.41836","5"],
    [7168,"HCEP03730564","2023-12-12 00:30:00","11.942","3.5385","25.349","2.267","7.51","0.391","3.592","0.11","0.3","30.5737","4.78927","25.46","0","SATNPRO1963","29.876","0.41848","5"],
    [7169,"HCEP03730564","2023-12-12 00:45:00","11.9407","3.53823","25.565","2.259","7.51","0.375","3.279","0.11","0.24","30.572","4.78907","25.37","0","SATNPRO1963","29.686","0.41582","5"],
    [7170,"HCEP03730564","2023-12-12 01:00:00","11.9466","3.53984","25.764","2.258","7.51","0.442","4.319","0.14","0.25","30.5826","4.79049","25.37","0","SATNPRO1963","29.663999999999998","0.4155","5"],
    [7171,"HCEP03730564","2023-12-12 01:15:00","11.9475","3.54011","25.974","2.271","7.51","0.401","4.305","0.09","0.42","30.5843","4.79073","25.51","0","SATNPRO1963","29.634","0.41508","5"],
    [7172,"HCEP03730564","2023-12-12 01:30:00","11.9466","3.53979","26.193","2.274","7.51","0.43","4.237","0.1","0.38","30.5819","4.7904","25.55","0","SATNPRO1963","29.456","0.4126","5"],
    [7173,"HCEP03730564","2023-12-12 01:45:00","11.9413","3.53846","26.403","2.277","7.51","0.395","3.334","0.07","0.18","30.5735","4.7893","25.57","0","SATNPRO1963","29.56","0.41402","5"],
    [7174,"HCEP03730564","2023-12-12 02:00:00","11.9374","3.53735","26.638","2.253","7.51","0.352","3.435","0.07","0.27","30.5659","4.78831","25.3","0","SATNPRO1963","29.552","0.41392","5"],
    [7175,"HCEP03730564","2023-12-12 02:15:00","11.9361","3.53694","26.846","2.232","7.51","0.421","3.724","0.09","0.25","30.563","4.78792","25.06","0","SATNPRO1963","29.636","0.41508","5"],
    [7176,"HCEP03730564","2023-12-12 02:30:00","11.9412","3.53841","27.04","2.223","7.51","0.345","3.944","0.09","0.23","30.5727","4.78924","24.97","0","SATNPRO1963","29.59","0.41446","5"],
    [7177,"HCEP03730564","2023-12-12 02:45:00","11.9444","3.5392","27.206","2.224","7.51","0.376","3.732","0.1","0.15","30.5777","4.7899","24.98","0","SATNPRO1963","29.616","0.4148","5"],
    [7178,"HCEP03730564","2023-12-12 03:00:00","11.9436","3.53907","27.356","2.234","7.51","0.326","3.455","0.1","0.24","30.577","4.78982","25.09","0","SATNPRO1963","29.483999999999998","0.41298","5"],
    [7179,"HCEP03730564","2023-12-12 03:15:00","11.9527","3.54139","27.548","2.23","7.51","0.533","5.376","0.21","0.78","30.5918","4.79179","25.05","0","SATNPRO1963","29.454","0.41254","5"],
    [7180,"HCEP03730564","2023-12-12 03:30:00","11.9587","3.54305","27.489","2.274","7.51","0.432","4.676","0.1","0.29","30.6028","4.79326","25.56","0","SATNPRO1963","29.32","0.41068","5"],
    [7181,"HCEP03730564","2023-12-12 03:45:00","11.962","3.54386","27.609","2.315","7.52","0.468","4.734","0.08","0.28","30.6078","4.79393","26.02","0","SATNPRO1963","29.298","0.41036","5"],
    [7182,"HCEP03730564","2023-12-12 04:00:00","11.965","3.5447","27.695","2.337","7.52","0.479","4.458","0.12","0.39","30.6133","4.79467","26.26","0","SATNPRO1963","29.47","0.4128","5"],
    [7183,"HCEP03730564","2023-12-12 04:15:00","11.9666","3.54511","27.79","2.352","7.52","0.492","4.12","0.14","0.21","30.6159","4.79502","26.44","0","SATNPRO1963","29.3","0.41036","5"],
    [7184,"HCEP03730564","2023-12-12 04:30:00","11.9713","3.54634","27.854","2.354","7.52","0.488","4.479","0.1","0.41","30.6238","4.79607","26.46","0","SATNPRO1963","29.72","0.41626","5"],
    [7185,"HCEP03730564","2023-12-12 04:45:00","11.9748","3.54741","27.908","2.363","7.52","0.489","4.195","0.12","0.21","30.6312","4.79707","26.57","0","SATNPRO1963","29.904","0.41886","5"],
    [7186,"HCEP03730564","2023-12-12 05:00:00","11.9756","3.54782","27.956","2.362","7.52","0.442","4.613","0.14","0.19","30.6344","4.79751","26.55","0","SATNPRO1963","29.908","0.41888","5"],
    [7187,"HCEP03730564","2023-12-12 05:15:00","11.9759","3.54805","27.981","2.361","7.53","0.466","4.66","0.1","0.44","30.6364","4.79778","26.54","0","SATNPRO1963","29.932","0.41922","5"],
    [7188,"HCEP03730564","2023-12-12 05:30:00","11.9799","3.54915","27.981","2.355","7.53","0.417","4.245","0.08","0.3","30.6437","4.79876","26.49","0","SATNPRO1963","30.014","0.42042","5"],
    [7189,"HCEP03730564","2023-12-12 05:45:00","11.9805","3.54915","27.992","2.366","7.53","0.419","4.227","0.06","0.26","30.6432","4.79868","26.6","0","SATNPRO1963","30.036","0.42076","5"],
    [7190,"HCEP03730564","2023-12-12 06:00:00","11.9808","3.54901","27.989","2.381","7.53","0.423","3.976","0.09","0.13","30.6416","4.79845","26.77","0","SATNPRO1963","30.092","0.42148","5"],
    [7191,"HCEP03730564","2023-12-12 06:15:00","11.9455","3.5412","27.993","2.419","7.53","0.404","3.507","0.07","0.23","30.5957","4.79248","27.18","0","SATNPRO1963","29.98","0.41992","5"],
    [7192,"HCEP03730564","2023-12-12 06:30:00","11.9689","3.54753","27.965","2.405","7.53","0.385","3.784","0.07","0.18","30.6372","4.79799","27.04","0","SATNPRO1963","30.174","0.42266","5"],
    [7193,"HCEP03730564","2023-12-12 06:45:00","11.9758","3.54815","27.896","2.398","7.53","0.42","4.008","0.09","0.18","30.6375","4.79794","26.96","0","SATNPRO1963","30.068","0.42112","5"],
    [7194,"HCEP03730564","2023-12-12 07:00:00","11.9766","3.5484","27.849","2.386","7.53","0.369","3.878","0.08","0.18","30.6393","4.79817","26.83","0","SATNPRO1963","30.252","0.42376","5"],
    [7195,"HCEP03730564","2023-12-12 07:15:00","11.9774","3.54863","27.788","2.375","7.53","0.403","3.969","0.07","0.2","30.6407","4.79837","26.71","0","SATNPRO1963","30.346","0.4251","5"],
    [7196,"HCEP03730564","2023-12-12 07:30:00","11.9752","3.54822","27.727","2.352","7.53","0.372","4.636","0.05","0.24","30.6386","4.7981","26.44","0","SATNPRO1963","30.102","0.4216","5"],
    [7197,"HCEP03730564","2023-12-12 07:45:00","11.975","3.54836","27.648","2.329","7.52","0.379","4.384","0.06","0.14","30.6402","4.79832","26.19","0","SATNPRO1963","30.23","0.42344","5"],
    [7198,"HCEP03730564","2023-12-12 08:00:00","11.9749","3.54821","27.593","2.333","7.52","0.368","3.96","0.07","0.2","30.6389","4.79813","26.23","0","SATNPRO1963","30.256","0.42378","5"],
    [7199,"HCEP03730564","2023-12-12 08:15:00","11.9741","3.54782","27.488","2.352","7.52","0.359","3.703","0.07","0.16","30.6359","4.79772","26.45","0","SATNPRO1963","30.078","0.42132","5"],
    [7200,"HCEP03730564","2023-12-12 08:30:00","11.9733","3.54761","27.408","2.366","7.53","0.352","3.666","0.07","0.31","30.6345","4.79753","26.6","0","SATNPRO1963","30.074","0.42124","5"],
    [7201,"HCEP03730564","2023-12-12 08:45:00","11.9777","3.54861","27.319","2.377","7.53","0.392","3.427","0.09","0.23","30.6405","4.79831","26.73","0","SATNPRO1963","29.98","0.41994","5"],
    [7202,"HCEP03730564","2023-12-12 09:00:00","11.9769","3.54788","27.242","2.425","7.53","0.366","2.638","0.11","0.13","30.6343","4.79744","27.26","0","SATNPRO1963","30.068","0.42114","5"],
    [7203,"HCEP03730564","2023-12-12 09:15:00","11.979","3.54854","27.146","2.434","7.53","0.382","2.931","0.12","0.18","30.6388","4.79804","27.37","0","SATNPRO1963","30.096","0.42156","5"],
    [7204,"HCEP03730564","2023-12-12 09:30:00","11.9749","3.54741","27.103","2.412","7.53","0.344","2.892","0.05","0.09","30.6314","4.79705","27.12","0","SATNPRO1963","30.272","0.42398","5"],
    [7205,"HCEP03730564","2023-12-12 09:45:00","11.9786","3.54847","27.057","2.399","7.53","0.365","3.233","0.07","0.15","30.6386","4.79801","26.97","0","SATNPRO1963","30.248","0.42368","5"],
    [7206,"HCEP03730564","2023-12-12 10:00:00","11.9796","3.54873","26.976","2.395","7.53","0.376","3.333","0.07","0.11","30.6403","4.79823","26.93","0","SATNPRO1963","30.584","0.4284","5"],
    [7207,"HCEP03730564","2023-12-12 10:15:00","11.9816","3.5493","26.968","2.391","7.53","0.369","3.277","0.08","0.16","30.6441","4.79874","26.89","0","SATNPRO1963","30.52","0.42748","5"],
    [7208,"HCEP03730564","2023-12-12 10:30:00","11.983","3.54957","26.933","2.386","7.53","0.376","3.356","0.07","0.15","30.6456","4.79892","26.84","0","SATNPRO1963","30.352","0.42512","5"],
    [7209,"HCEP03730564","2023-12-12 10:45:00","11.9835","3.5497","26.951","2.384","7.53","0.464","3.639","0.21","0.24","30.6464","4.79903","26.81","0","SATNPRO1963","30.404","0.42584","5"],
    [7210,"HCEP03730564","2023-12-12 11:00:00","11.9856","3.55018","26.968","2.386","7.53","0.382","3.466","0.11","0.3","30.6492","4.7994","26.83","0","SATNPRO1963","30.464","0.4267","5"],
    [7211,"HCEP03730564","2023-12-12 11:15:00","11.9893","3.55103","27.006","2.423","7.53","0.39","2.885","0.1","0.14","30.6544","4.80008","27.25","0","SATNPRO1963","30.306","0.42448","5"],
    [7212,"HCEP03730564","2023-12-12 11:30:00","11.9899","3.55147","27.033","2.423","7.53","0.445","3.591","0.23","0.29","30.6581","4.8006","27.26","0","SATNPRO1963","30.288","0.42422","5"],
    [7213,"HCEP03730564","2023-12-12 11:45:00","11.9941","3.55235","27.066","2.432","7.53","0.397","3.711","0.09","0.26","30.663","4.80123","27.36","0","SATNPRO1963","30.306","0.4245","5"],
    [7214,"HCEP03730564","2023-12-12 12:00:00","12.0001","3.55385","27.124","2.437","7.53","0.434","3.354","0.14","0.13","30.6725","4.8025","27.42","0","SATNPRO1963","30.522000000000002","0.42748","5"],
    [7215,"HCEP03730564","2023-12-12 12:15:00","12.0014","3.55428","27.221","2.444","7.53","0.423","3.78","0.08","0.17","30.6755","4.8029","27.5","0","SATNPRO1963","30.672","0.42962","5"],
    [7216,"HCEP03730564","2023-12-12 12:30:00","12.005","3.55522","27.329","2.453","7.53","0.38","3.776","0.07","0.15","30.6815","4.8037","27.61","0","SATNPRO1963","30.548000000000002","0.42792","5"],
    [7217,"HCEP03730564","2023-12-12 12:45:00","12.0065","3.55564","27.393","2.477","7.53","0.428","3.779","0.09","0.44","30.6842","4.80407","27.88","0","SATNPRO1963","30.504","0.42726","5"],
    [7218,"HCEP03730564","2023-12-12 13:00:00","12.0094","3.55627","27.452","2.505","7.53","0.426","3.455","0.1","0.26","30.6879","4.80455","28.19","0","SATNPRO1963","30.564","0.42812","5"],
    [7219,"HCEP03730564","2023-12-12 13:15:00","12.0092","3.55625","27.494","2.517","7.53","0.407","3.412","0.05","0.19","30.6878","4.80454","28.33","0","SATNPRO1963","30.852","0.43214","5"],
    [7220,"HCEP03730564","2023-12-12 13:30:00","12.0092","3.55623","27.541","2.513","7.53","0.383","3.045","0.1","0.26","30.6876","4.80452","28.29","0","SATNPRO1963","30.68","0.42974","5"],
    [7221,"HCEP03730564","2023-12-12 13:45:00","12.01","3.55642","27.611","2.517","7.53","0.427","2.923","0.13","0.11","30.6887","4.80468","28.33","0","SATNPRO1963","30.846","0.43202","5"],
    [7222,"HCEP03730564","2023-12-12 14:00:00","12.0117","3.55679","27.651","2.535","7.53","0.388","2.7","0.08","0.22","30.6909","4.80495","28.54","0","SATNPRO1963","31.046","0.43482","5"],
    [7223,"HCEP03730564","2023-12-12 14:15:00","12.0121","3.55696","27.719","2.551","7.54","0.445","2.592","0.14","0.16","30.6921","4.80512","28.71","0","SATNPRO1963","30.938","0.43332","5"],
    [7224,"HCEP03730564","2023-12-12 14:30:00","12.0121","3.55689","27.745","2.552","7.54","0.418","2.481","0.12","0.09","30.6915","4.80505","28.73","0","SATNPRO1963","31.381999999999998","0.43954","5"],
    [7225,"HCEP03730564","2023-12-12 14:45:00","12.0119","3.55689","27.785","2.544","7.54","0.375","2.93","0.09","0.36","30.6916","4.80505","28.63","0","SATNPRO1963","31.03","0.43462","5"],
    [7226,"HCEP03730564","2023-12-12 15:00:00","12.0119","3.55691","27.789","2.547","7.54","0.405","2.665","0.2","0.18","30.6918","4.80509","28.66","0","SATNPRO1963","31.324","0.43878","5"],
    [7227,"HCEP03730564","2023-12-12 15:15:00","12.0125","3.55706","27.795","2.561","7.54","0.45","2.855","0.14","0.11","30.6928","4.80522","28.83","0","SATNPRO1963","31.158","0.4364","5"],
    [7228,"HCEP03730564","2023-12-12 15:30:00","12.0125","3.55712","27.774","2.566","7.54","0.413","2.656","0.13","0.14","30.6933","4.80529","28.88","0","SATNPRO1963","31.242","0.43762","5"],
    [7229,"HCEP03730564","2023-12-12 15:45:00","12.0133","3.55725","27.741","2.574","7.54","0.429","2.702","0.12","0.19","30.6939","4.80537","28.98","0","SATNPRO1963","31.42","0.44008","5"],
    [7230,"HCEP03730564","2023-12-12 16:00:00","12.0119","3.55696","27.697","2.538","7.54","0.36","3.189","0.1","0.31","30.6923","4.80516","28.57","0","SATNPRO1963","31.23","0.43742","5"],
    [7231,"HCEP03730564","2023-12-12 16:15:00","12.0127","3.55711","27.625","2.537","7.54","0.374","2.585","0.11","0.09","30.6932","4.80527","28.55","0","SATNPRO1963","30.91","0.433","5"],
    [7232,"HCEP03730564","2023-12-12 16:30:00","12.013","3.55723","27.543","2.52","7.54","0.435","4.029","0.14","0.27","30.6941","4.80538","28.36","0","SATNPRO1963","31.292","0.4383","5"],
    [7233,"HCEP03730564","2023-12-12 16:45:00","12.0114","3.5569","27.456","2.493","7.54","0.378","3.697","0.09","0.24","30.6922","4.80514","28.06","0","SATNPRO1963","31.242","0.43762","5"],
    [7234,"HCEP03730564","2023-12-12 17:00:00","12.0098","3.55645","27.317","2.446","7.53","0.425","3.908","0.14","0.33","30.6893","4.80473","27.53","0","SATNPRO1963","30.922","0.4331","5"],
    [7235,"HCEP03730564","2023-12-12 17:15:00","12.0092","3.55629","27.165","2.431","7.53","0.484","3.47","0.21","0.16","30.6884","4.80461","27.36","0","SATNPRO1963","31.138","0.43616","5"],
    [7236,"HCEP03730564","2023-12-12 17:30:00","12.0088","3.55621","26.991","2.431","7.53","0.463","3.966","0.26","0.32","30.688","4.80455","27.36","0","SATNPRO1963","30.826","0.43178","5"],
    [7237,"HCEP03730564","2023-12-12 17:45:00","12.0067","3.55568","26.79","2.403","7.53","0.35","4.063","0.07","0.33","30.6846","4.80409","27.04","0","SATNPRO1963","30.72","0.4303","5"],
    [7238,"HCEP03730564","2023-12-12 18:00:00","12.003","3.55475","26.594","2.368","7.53","0.419","4.373","0.1","0.37","30.6788","4.80332","26.64","0","SATNPRO1963","30.718","0.43026","5"],
    [7239,"HCEP03730564","2023-12-12 18:15:00","11.9976","3.5534","26.307","2.367","7.53","0.401","4.349","0.1","0.28","30.6704","4.80219","26.63","0","SATNPRO1963","30.506","0.42728","5"],
    [7240,"HCEP03730564","2023-12-12 18:30:00","11.9982","3.55367","26.057","2.425","7.53","0.407","4.004","0.13","0.24","30.6727","4.8025","27.28","0","SATNPRO1963","30.584","0.42838","5"],
    [7241,"HCEP03730564","2023-12-12 18:45:00","11.9982","3.5535","25.913","2.496","7.53","0.414","3.816","0.1","0.29","30.6711","4.80226","28.08","0","SATNPRO1963","30.318","0.4247","5"],
    [7242,"HCEP03730564","2023-12-12 19:00:00","11.9981","3.55347","25.672","2.501","7.53","0.424","4.19","0.15","0.53","30.671","4.80223","28.14","0","SATNPRO1963","30.336000000000002","0.42494","5"],
    [7243,"HCEP03730564","2023-12-12 19:15:00","11.9976","3.5533","25.44","2.496","7.53","0.374","3.774","0.1","0.25","30.6699","4.80207","28.08","0","SATNPRO1963","30.504","0.42732","5"],
    [7244,"HCEP03730564","2023-12-12 19:30:00","11.9977","3.55332","25.269","2.497","7.53","0.366","4.008","0.08","0.27","30.6701","4.80208","28.1","0","SATNPRO1963","30.808","0.43152","5"],
    [7245,"HCEP03730564","2023-12-12 19:45:00","11.9964","3.55297","25.033","2.495","7.53","0.406","3.814","0.12","0.4","30.6678","4.80177","28.07","0","SATNPRO1963","30.89","0.43268","5"],
    [7246,"HCEP03730564","2023-12-12 20:00:00","11.9957","3.55275","24.818","2.491","7.53","0.372","3.616","0.15","0.23","30.6664","4.80157","28.03","0","SATNPRO1963","31.214","0.4372","5"],
    [7247,"HCEP03730564","2023-12-12 20:15:00","11.9941","3.55236","24.585","2.483","7.53","0.388","3.697","0.12","0.23","30.6641","4.80125","27.93","0","SATNPRO1963","31.036","0.4347","5"],
    [7248,"HCEP03730564","2023-12-12 20:30:00","11.9919","3.5518","24.376","2.477","7.53","0.333","3.564","0.12","0.39","30.6606","4.80078","27.87","0","SATNPRO1963","30.544","0.42784","5"],
    [7249,"HCEP03730564","2023-12-12 20:45:00","11.9918","3.55179","24.174","2.468","7.53","0.386","3.576","0.15","0.35","30.6607","4.80078","27.76","0","SATNPRO1963","30.696","0.42996","5"],
    [7250,"HCEP03730564","2023-12-12 21:00:00","11.992","3.55176","23.994","2.459","7.53","0.359","3.951","0.1","1.48","30.6603","4.80072","27.66","0","SATNPRO1963","30.84","0.43196","5"],
    [7251,"HCEP03730564","2023-12-12 21:15:00","11.9915","3.55163","23.844","2.455","7.53","0.466","3.57","0.15","0.29","30.6595","4.8006","27.62","0","SATNPRO1963","30.714","0.43016","5"],
    [7252,"HCEP03730564","2023-12-12 21:30:00","11.9918","3.55172","23.672","2.446","7.53","0.473","4.603","0.17","0.59","30.6602","4.80068","27.52","0","SATNPRO1963","30.946","0.43344","5"],
    [7253,"HCEP03730564","2023-12-12 21:45:00","11.9912","3.5516","23.664","2.44","7.53","0.395","4.295","0.07","0.39","30.6596","4.8006","27.44","0","SATNPRO1963","30.68","0.42968","5"],
    [7254,"HCEP03730564","2023-12-12 22:00:00","11.9903","3.55136","23.636","2.44","7.53","0.379","4.266","0.07","0.32","30.658","4.8004","27.44","0","SATNPRO1963","30.656","0.42938","5"],
    [7255,"HCEP03730564","2023-12-12 22:15:00","11.9889","3.55102","23.67","2.443","7.53","0.381","4.05","0.06","0.37","30.6559","4.80012","27.47","0","SATNPRO1963","30.806","0.43156","5"],
    [7256,"HCEP03730564","2023-12-12 22:30:00","11.9863","3.55036","23.696","2.445","7.53","0.347","3.636","0.08","0.22","30.6517","4.79956","27.5","0","SATNPRO1963","30.532","0.42766","5"],
    [7257,"HCEP03730564","2023-12-12 22:45:00","11.9868","3.55052","23.746","2.423","7.53","0.392","4.183","0.07","0.15","30.6528","4.79972","27.25","0","SATNPRO1963","30.612","0.42876","5"],
    [7258,"HCEP03730564","2023-12-12 23:00:00","11.9845","3.55004","23.732","2.415","7.53","0.376","4.125","0.11","0.23","30.6501","4.79936","27.16","0","SATNPRO1963","30.748","0.4307","5"],
    [7259,"HCEP03730564","2023-12-12 23:15:00","11.9826","3.54954","23.864","2.427","7.53","0.373","4.17","0.07","0.22","30.6468","4.79893","27.3","0","SATNPRO1963","30.64","0.42914","5"],
    [7260,"HCEP03730564","2023-12-12 23:30:00","11.9812","3.54908","23.969","2.427","7.53","0.342","3.978","0.06","0.29","30.6435","4.7985","27.29","0","SATNPRO1963","30.506","0.42726","5"],
    [7261,"HCEP03730564","2023-12-12 23:45:00","11.9799","3.54891","24.144","2.436","7.53","0.373","4.141","0.09","0.24","30.6429","4.79844","27.39","0","SATNPRO1963","30.264","0.4239","5"],
    [7262,"HCEP03730564","2023-12-13 00:00:00","11.9797","3.5487","24.316","2.442","7.53","0.356","3.963","0.06","0.23","30.641","4.79818","27.45","0","SATNPRO1963","30.628","0.429","5"],
    [7263,"HCEP03730564","2023-12-13 00:15:00","11.9785","3.54841","24.51","2.465","7.53","0.397","4.14","0.09","0.15","30.639","4.79793","27.72","0","SATNPRO1963","30.516000000000002","0.42738","5"],
    [7264,"HCEP03730564","2023-12-13 00:30:00","11.9772","3.5481","24.672","2.484","7.53","0.334","3.88","0.05","0.23","30.6371","4.79769","27.93","0","SATNPRO1963","30.62","0.4289","5"],
    [7265,"HCEP03730564","2023-12-13 00:45:00","11.9764","3.54796","24.852","2.481","7.53","0.372","4.218","0.07","0.22","30.6363","4.7976","27.9","0","SATNPRO1963","30.548","0.42792","5"],
    [7266,"HCEP03730564","2023-12-13 01:00:00","11.9769","3.54805","25.07","2.469","7.53","0.36","4.13","0.08","0.22","30.6367","4.79765","27.76","0","SATNPRO1963","30.518","0.42744","5"],
    [7267,"HCEP03730564","2023-12-13 01:15:00","11.9759","3.5478","25.248","2.441","7.53","0.369","4.193","0.09","0.32","30.635","4.79744","27.45","0","SATNPRO1963","30.796","0.43136","5"],
    [7268,"HCEP03730564","2023-12-13 01:30:00","11.9745","3.54723","25.496","2.446","7.53","0.343","4.066","0.07","0.14","30.6307","4.79687","27.49","0","SATNPRO1963","30.664","0.42952","5"],
    [7269,"HCEP03730564","2023-12-13 01:45:00","11.9715","3.54659","25.668","2.432","7.53","0.357","4.219","0.04","0.19","30.6269","4.79638","27.34","0","SATNPRO1963","30.568","0.42812","5"],
    [7270,"HCEP03730564","2023-12-13 02:00:00","11.9681","3.54578","25.916","2.4","7.53","0.34","3.988","0.07","0.18","30.6218","4.79573","26.98","0","SATNPRO1963","30.592","0.42848","5"],
    [7271,"HCEP03730564","2023-12-13 02:15:00","11.9658","3.54516","26.158","2.356","7.53","0.367","4.169","0.13","0.16","30.6176","4.79518","26.48","0","SATNPRO1963","30.494","0.42712","5"],
    [7272,"HCEP03730564","2023-12-13 02:30:00","11.962","3.54429","26.402","2.305","7.52","0.308","4.137","0.06","0.13","30.6124","4.79451","25.9","0","SATNPRO1963","30.422","0.4261","5"],
    [7273,"HCEP03730564","2023-12-13 02:45:00","11.9578","3.54325","26.598","2.221","7.52","0.314","4.153","0.05","0.16","30.6058","4.79365","24.95","0","SATNPRO1963","30.216","0.42324","5"],
    [7274,"HCEP03730564","2023-12-13 03:00:00","11.9554","3.54267","26.835","2.163","7.51","0.307","4.125","0.08","0.23","30.602","4.79317","24.3","0","SATNPRO1963","30.326","0.42476","5"],
    [7275,"HCEP03730564","2023-12-13 03:15:00","11.9543","3.54242","27.076","2.13","7.51","0.333","4.188","0.07","0.28","30.6005","4.79298","23.93","0","SATNPRO1963","30.058","0.421","5"],
    [7276,"HCEP03730564","2023-12-13 03:30:00","11.9554","3.54269","27.237","2.138","7.5","0.315","3.687","0.15","0.12","30.6021","4.7932","24.02","0","SATNPRO1963","29.656","0.41538","5"],
    [7277,"HCEP03730564","2023-12-13 03:45:00","11.9581","3.54337","27.393","2.159","7.5","0.353","4.239","0.1","0.2","30.6064","4.79377","24.26","0","SATNPRO1963","29.386","0.41158","5"],
    [7278,"HCEP03730564","2023-12-13 04:00:00","11.9605","3.54383","27.405","2.203","7.51","0.306","4.316","0.05","0.22","30.6088","4.79408","24.76","0","SATNPRO1963","29.442","0.4124","5"],
    [7279,"HCEP03730564","2023-12-13 04:15:00","11.9635","3.5446","27.512","2.258","7.51","0.325","4.093","0.06","0.17","30.6137","4.79473","25.38","0","SATNPRO1963","29.242","0.40956","5"],
    [7280,"HCEP03730564","2023-12-13 04:30:00","11.9648","3.54483","27.69","2.291","7.52","0.314","4.533","0.07","0.29","30.6148","4.79487","25.75","0","SATNPRO1963","29.388","0.4116","5"],
    [7281,"HCEP03730564","2023-12-13 04:45:00","11.9643","3.54482","27.834","2.282","7.52","0.332","4.379","0.05","0.17","30.615","4.79492","25.64","0","SATNPRO1963","29.637999999999998","0.41514","5"],
    [7282,"HCEP03730564","2023-12-13 05:00:00","11.9643","3.54489","27.935","2.267","7.52","0.302","4.261","0.04","0.16","30.6157","4.79503","25.48","0","SATNPRO1963","29.7","0.416","5"],
    [7283,"HCEP03730564","2023-12-13 05:15:00","11.9674","3.54565","27.973","2.294","7.52","0.338","4.291","0.07","0.15","30.6204","4.79564","25.79","0","SATNPRO1963","29.812","0.41756","5"],
    [7284,"HCEP03730564","2023-12-13 05:30:00","11.9702","3.54628","28.064","2.333","7.52","0.305","3.963","0.04","0.17","30.6241","4.79613","26.22","0","SATNPRO1963","30.058","0.421","5"],
    [7285,"HCEP03730564","2023-12-13 05:45:00","11.9722","3.54687","28.067","2.361","7.52","0.324","3.963","0.05","0.22","30.6281","4.79668","26.54","0","SATNPRO1963","29.592","0.4145","5"],
    [7286,"HCEP03730564","2023-12-13 06:00:00","11.976","3.54787","28.044","2.365","7.52","0.289","3.702","0.04","0.26","30.6345","4.79753","26.59","0","SATNPRO1963","29.838","0.41798","5"],
    [7287,"HCEP03730564","2023-12-13 06:15:00","11.9791","3.54864","28.05","2.366","7.52","0.954","20.279","1.25","23.6","30.6394","4.79817","26.6","0","SATNPRO1963","30.07","0.42114","5"],
    [7288,"HCEP03730564","2023-12-13 06:30:00","11.9801","3.54891","28.058","2.375","7.52","0.287","3.595","0.05","0.13","30.6412","4.79841","26.71","0","SATNPRO1963","30.096","0.4215","5"],
    [7289,"HCEP03730564","2023-12-13 06:45:00","11.9824","3.54954","28.051","2.369","7.53","0.316","3.933","0.04","0.18","30.6453","4.79895","26.64","0","SATNPRO1963","30.17","0.4226","5"],
    [7290,"HCEP03730564","2023-12-13 07:00:00","11.9815","3.54942","28.031","2.356","7.53","0.291","3.96","0.05","0.16","30.6449","4.79892","26.49","0","SATNPRO1963","30.286","0.42418","5"],
    [7291,"HCEP03730564","2023-12-13 07:15:00","11.9686","3.54652","27.98","2.394","7.53","0.324","3.659","0.07","0.23","30.6277","4.79666","26.91","0","SATNPRO1963","30.312","0.42456","5"],
    [7292,"HCEP03730564","2023-12-13 07:30:00","11.9637","3.54503","27.94","2.412","7.53","0.337","3.725","0.08","0.12","30.6175","4.79529","27.11","0","SATNPRO1963","30.15","0.42228","5"],
    [7293,"HCEP03730564","2023-12-13 07:45:00","11.9605","3.54442","27.919","2.4","7.53","0.322","4.008","0.04","0.24","30.6143","4.79488","26.98","0","SATNPRO1963","30.236","0.4235","5"],
    [7294,"HCEP03730564","2023-12-13 08:00:00","11.9527","3.54232","27.858","2.448","7.53","0.288","3.401","0.06","0.4","30.6006","4.79305","27.5","0","SATNPRO1963","30.192","0.42292","5"],
    [7295,"HCEP03730564","2023-12-13 08:15:00","11.9445","3.54038","27.761","2.487","7.53","0.302","2.661","0.06","0.23","30.5886","4.79148","27.93","0","SATNPRO1963","30.338","0.42498","5"],
    [7296,"HCEP03730564","2023-12-13 08:30:00","11.9441","3.54067","27.702","2.473","7.53","0.278","3.586","0.03","0.24","30.5917","4.79192","27.78","0","SATNPRO1963","30.324","0.42474","5"],
    [7297,"HCEP03730564","2023-12-13 08:45:00","11.943","3.54036","27.633","2.429","7.53","0.293","3.282","0.04","0.21","30.5897","4.79165","27.28","0","SATNPRO1963","30.354","0.42516","5"],
    [7298,"HCEP03730564","2023-12-13 09:00:00","11.9484","3.54155","27.526","2.449","7.53","0.274","3.059","0.06","0.14","30.596800000000002","4.79256","27.51","0","SATNPRO1963","30.738","0.43052","5"],
    [7299,"HCEP03730564","2023-12-13 09:15:00","11.9465","3.5411","27.431","2.483","7.53","0.304","2.529","0.1","0.11","30.5941","4.7922","27.89","0","SATNPRO1963","30.582","0.42836","5"],
    [7300,"HCEP03730564","2023-12-13 09:30:00","11.9489","3.54174","27.455","2.463","7.53","0.279","3.48","0.04","0.11","30.5983","4.79275","27.67","0","SATNPRO1963","30.028","0.4206","5"],
    [7301,"HCEP03730564","2023-12-13 09:45:00","11.9503","3.54188","27.314","2.501","7.53","0.305","2.557","0.06","0.16","30.5985","4.79276","28.1","0","SATNPRO1963","30.32","0.42464","5"],
    [7302,"HCEP03730564","2023-12-13 10:00:00","11.9515","3.54218","27.329","2.544","7.54","0.274","2.251","0.04","0.09","30.6004","4.79302","28.58","0","SATNPRO1963","30.144","0.42224","5"],
    [7303,"HCEP03730564","2023-12-13 10:15:00","11.9499","3.54176","27.23","2.527","7.54","0.287","2.575","0.03","0.16","30.5978","4.79266","28.39","0","SATNPRO1963","30.562","0.42808","5"],
    [7304,"HCEP03730564","2023-12-13 10:30:00","11.9506","3.54198","27.189","2.488","7.54","0.284","3.318","0.06","0.45","30.5992","4.79286","27.96","0","SATNPRO1963","30.36","0.42526","5"],
    [7305,"HCEP03730564","2023-12-13 10:45:00","11.9491","3.54162","27.127","2.475","7.53","0.301","2.998","0.04","0.23","30.5971","4.79258","27.8","0","SATNPRO1963","30.542","0.42782","5"],
    [7306,"HCEP03730564","2023-12-13 11:00:00","11.9511","3.54226","27.119","2.452","7.53","0.277","3.017","0.03","0.07","30.6015","4.79317","27.54","0","SATNPRO1963","30.669999999999998","0.42958","5"],
    [7307,"HCEP03730564","2023-12-13 11:15:00","11.9523","3.54242","27.138","2.48","7.53","0.315","2.57","0.06","0.1","30.6021","4.79324","27.87","0","SATNPRO1963","30.294","0.42426","5"],
    [7308,"HCEP03730564","2023-12-13 11:30:00","11.9526","3.54255","27.132","2.461","7.53","0.286","2.383","0.08","0.1","30.6031","4.79337","27.65","0","SATNPRO1963","30.332","0.42484","5"],
    [7309,"HCEP03730564","2023-12-13 11:45:00","11.956","3.54332","27.144","2.438","7.53","0.307","3.057","0.07","0.08","30.6076","4.79396","27.39","0","SATNPRO1963","30.322","0.4247","5"],
    [7310,"HCEP03730564","2023-12-13 12:00:00","11.9597","3.54417","27.143","2.403","7.53","0.29","3.034","0.08","0.07","30.6129","4.79465","27.01","0","SATNPRO1963","30.404","0.42584","5"],
    [7311,"HCEP03730564","2023-12-13 12:15:00","11.96","3.54427","27.162","2.372","7.53","0.306","3.348","0.04","0.12","30.6135","4.79473","26.65","0","SATNPRO1963","30.73","0.43042","5"],
    [7312,"HCEP03730564","2023-12-13 12:30:00","11.9581","3.5438","27.189","2.38","7.53","0.265","3.24","0.03","0.07","30.6106","4.79435","26.74","0","SATNPRO1963","30.5","0.42722","5"],
    [7313,"HCEP03730564","2023-12-13 12:45:00","11.9581","3.54381","27.243","2.377","7.53","0.317","3.795","0.07","0.17","30.6107","4.79437","26.71","0","SATNPRO1963","30.474","0.42686","5"],
    [7314,"HCEP03730564","2023-12-13 13:00:00","11.9576","3.54367","27.373","2.42","7.53","0.275","2.728","0.07","0.06","30.6096","4.79423","27.19","0","SATNPRO1963","30.23","0.4234","5"],
    [7315,"HCEP03730564","2023-12-13 13:15:00","11.9582","3.54384","27.366","2.463","7.53","0.303","2.512","0.05","0.06","30.6108","4.79439","27.68","0","SATNPRO1963","30.112","0.42178","5"],
    [7316,"HCEP03730564","2023-12-13 13:30:00","11.9707","3.54688","27.438","2.529","7.53","0.283","3.094","0.03","0.17","30.6297","4.79688","28.43","0","SATNPRO1963","30.138","0.42214","5"],
    [7317,"HCEP03730564","2023-12-13 13:45:00","11.9718","3.54711","27.515","2.578","7.54","0.318","2.912","0.04","0.09","30.6309","4.79704","28.98","0","SATNPRO1963","30.238","0.42356","5"],
    [7318,"HCEP03730564","2023-12-13 14:00:00","11.9723","3.54725","27.576","2.56","7.54","0.293","3.241","0.04","0.08","30.6319","4.79718","28.78","0","SATNPRO1963","30.184","0.42282","5"],
    [7319,"HCEP03730564","2023-12-13 14:15:00","11.9719","3.54721","27.633","2.547","7.54","0.334","3.285","0.07","0.1","30.6318","4.79718","28.63","0","SATNPRO1963","30.338","0.4249","5"],
    [7320,"HCEP03730564","2023-12-13 14:30:00","11.9724","3.54739","27.696","2.531","7.54","0.291","3.321","0.03","0.1","30.633","4.79735","28.46","0","SATNPRO1963","30.986","0.43402","5"],
    [7321,"HCEP03730564","2023-12-13 14:45:00","11.9722","3.54693","27.757","2.538","7.54","0.308","3.233","0.05","0.14","30.6288","4.79676","28.53","0","SATNPRO1963","31.060000000000002","0.43506","5"],
    [7322,"HCEP03730564","2023-12-13 15:00:00","11.9774","3.54875","27.817","2.556","7.54","0.289","3.431","0.04","0.24","30.6419","4.79854","28.74","0","SATNPRO1963","30.978","0.4339","5"],
    [7323,"HCEP03730564","2023-12-13 15:15:00","11.9777","3.54858","27.841","2.555","7.54","0.317","3.541","0.03","0.12","30.6401","4.79827","28.73","0","SATNPRO1963","30.764","0.43088","5"],
    [7324,"HCEP03730564","2023-12-13 15:30:00","11.9774","3.54847","27.859","2.556","7.54","0.302","3.993","0.05","0.16","30.6393","4.79816","28.74","0","SATNPRO1963","30.802","0.43146","5"],
    [7325,"HCEP03730564","2023-12-13 15:45:00","11.9761","3.54819","27.866","2.562","7.54","0.332","3.789","0.05","0.33","30.6376","4.79795","28.8","0","SATNPRO1963","30.974","0.43388","5"],
    [7326,"HCEP03730564","2023-12-13 16:00:00","11.9739","3.54764","27.845","2.577","7.54","0.289","3.288","0.06","0.18","30.6342","4.7975","28.97","0","SATNPRO1963","30.962","0.43364","5"],
    [7327,"HCEP03730564","2023-12-13 16:15:00","11.976","3.54815","27.826","2.589","7.54","0.3","3.496","0.02","0.4","30.6373","4.7979","29.11","0","SATNPRO1963","31.112","0.43578","5"],
    [7328,"HCEP03730564","2023-12-13 16:30:00","11.9762","3.54816","27.786","2.599","7.54","0.283","3.026","0.04","0.1","30.6373","4.79789","29.22","0","SATNPRO1963","30.874","0.43248","5"],
    [7329,"HCEP03730564","2023-12-13 16:45:00","11.9772","3.54835","27.756","2.607","7.54","0.322","3.417","0.04","0.12","30.6383","4.79803","29.32","0","SATNPRO1963","30.892","0.43268","5"],
    [7330,"HCEP03730564","2023-12-13 17:00:00","11.9768","3.54832","27.648","2.599","7.54","0.318","3.687","0.05","0.85","30.6383","4.79803","29.22","0","SATNPRO1963","31.163999999999998","0.43652","5"],
    [7331,"HCEP03730564","2023-12-13 17:15:00","11.978","3.54851","27.568","2.596","7.54","0.31","3.761","0.05","0.35","30.6393","4.79814","29.18","0","SATNPRO1963","31.094","0.43552","5"],
    [7332,"HCEP03730564","2023-12-13 17:30:00","11.9789","3.54877","27.453","2.583","7.54","0.333","3.872","0.05","0.21","30.641","4.79837","29.04","0","SATNPRO1963","31.092","0.43548","5"],
    [7333,"HCEP03730564","2023-12-13 17:45:00","11.9772","3.54841","27.362","2.557","7.54","0.335","4.37","0.06","0.82","30.6391","4.79811","28.75","0","SATNPRO1963","31.076","0.43528","5"],
    [7334,"HCEP03730564","2023-12-13 18:00:00","11.9768","3.54824","27.172","2.535","7.54","0.324","4.338","0.05","0.65","30.6378","4.79793","28.5","0","SATNPRO1963","31.238","0.43758","5"],
    [7335,"HCEP03730564","2023-12-13 18:15:00","11.9749","3.54765","26.985","2.506","7.54","0.346","4.743","0.05","0.74","30.6338","4.79738","28.17","0","SATNPRO1963","31.04","0.4348","5"],
    [7336,"HCEP03730564","2023-12-13 18:30:00","11.9708","3.54673","26.767","2.468","7.54","0.29","3.909","0.04","0.13","30.6284","4.79666","27.75","0","SATNPRO1963","30.97","0.43376","5"],
    [7337,"HCEP03730564","2023-12-13 18:45:00","11.9682","3.54618","26.476","2.403","7.53","0.326","4.403","0.06","0.51","30.6253","4.79625","27.01","0","SATNPRO1963","30.864","0.43232","5"],
    [7338,"HCEP03730564","2023-12-13 19:00:00","11.9662","3.5456","26.269","2.344","7.53","0.314","4.724","0.09","0.5","30.6215","4.79573","26.35","0","SATNPRO1963","30.848","0.43206","5"],
    [7339,"HCEP03730564","2023-12-13 19:15:00","11.9656","3.54539","26.03","2.298","7.52","0.319","4.331","0.07","0.29","30.62","4.79552","25.83","0","SATNPRO1963","30.634","0.42908","5"],
    [7340,"HCEP03730564","2023-12-13 19:30:00","11.963","3.54475","25.821","2.262","7.52","0.275","4.025","0.08","0.16","30.6162","4.79499","25.42","0","SATNPRO1963","30.382","0.42552","5"],
    [7341,"HCEP03730564","2023-12-13 19:45:00","11.9615","3.54434","25.586","2.235","7.51","0.317","4.061","0.08","0.26","30.6136","4.79464","25.12","0","SATNPRO1963","30.142","0.4222","5"],
    [7342,"HCEP03730564","2023-12-13 20:00:00","11.9608","3.54423","25.355","2.222","7.51","0.348","3.936","0.17","0.26","30.6132","4.79459","24.97","0","SATNPRO1963","30.092","0.42152","5"],
    [7343,"HCEP03730564","2023-12-13 20:15:00","11.9618","3.54438","25.13","2.214","7.51","0.273","4.406","0.04","0.35","30.614","4.79466","24.88","0","SATNPRO1963","29.948","0.41952","5"],
    [7344,"HCEP03730564","2023-12-13 20:30:00","11.9616","3.5443","24.9","2.206","7.51","0.3","4.278","0.15","0.35","30.6134","4.79457","24.79","0","SATNPRO1963","29.704","0.41606","5"],
    [7345,"HCEP03730564","2023-12-13 20:45:00","11.9618","3.54438","24.699","2.195","7.51","0.326","3.883","0.1","0.19","30.6141","4.79465","24.67","0","SATNPRO1963","29.868","0.41838","5"],
    [7346,"HCEP03730564","2023-12-13 21:00:00","11.9618","3.54439","24.462","2.184","7.51","0.309","3.952","0.09","0.3","30.6142","4.79466","24.55","0","SATNPRO1963","29.418","0.41206","5"],
    [7347,"HCEP03730564","2023-12-13 21:15:00","11.9618","3.5444","24.224","2.165","7.51","0.282","4.258","0.05","0.2","30.6144","4.79468","24.33","0","SATNPRO1963","29.612","0.41474","5"],
    [7348,"HCEP03730564","2023-12-13 21:30:00","11.961","3.54403","24.049","2.152","7.51","0.257","3.99","0.07","0.2","30.6115","4.79427","24.18","0","SATNPRO1963","29.786","0.41718","5"],
    [7349,"HCEP03730564","2023-12-13 21:45:00","11.962","3.54434","23.863","2.146","7.51","0.268","3.885","0.06","0.23","30.6139","4.79458","24.12","0","SATNPRO1963","29.656000000000002","0.4154","5"],
    [7350,"HCEP03730564","2023-12-13 22:00:00","11.9624","3.54444","23.723","2.146","7.51","0.27","3.909","0.05","0.22","30.6145","4.79465","24.12","0","SATNPRO1963","29.564","0.4141","5"],
    [7351,"HCEP03730564","2023-12-13 22:15:00","11.9628","3.54457","23.623","2.147","7.5","0.311","3.989","0.08","0.19","30.6155","4.79478","24.12","0","SATNPRO1963","29.514","0.41344","5"],
    [7352,"HCEP03730564","2023-12-13 22:30:00","11.9638","3.54487","23.586","2.147","7.5","0.262","4.344","0.05","0.24","30.6176","4.79506","24.13","0","SATNPRO1963","29.63","0.41502","5"],
    [7353,"HCEP03730564","2023-12-13 22:45:00","11.9647","3.54512","23.483","2.158","7.5","0.347","4.295","0.11","0.25","30.6192","4.79527","24.26","0","SATNPRO1963","29.434","0.41228","5"],
    [7354,"HCEP03730564","2023-12-13 23:00:00","11.9655","3.54533","23.412","2.174","7.5","0.301","4.255","0.1","0.31","30.6206","4.79546","24.43","0","SATNPRO1963","29.594","0.41452","5"],
    [7355,"HCEP03730564","2023-12-13 23:15:00","11.9666","3.54553","23.417","2.187","7.51","0.25","3.759","0.03","0.13","30.6217","4.79559","24.58","0","SATNPRO1963","29.366","0.41134","5"],
    [7356,"HCEP03730564","2023-12-13 23:30:00","11.9658","3.54534","23.565","2.184","7.51","0.276","3.835","0.08","0.2","30.6205","4.79544","24.55","0","SATNPRO1963","29.34","0.41098","5"],
    [7357,"HCEP03730564","2023-12-13 23:45:00","11.9653","3.54531","23.65","2.187","7.51","0.304","3.685","0.14","0.2","30.6205","4.79546","24.58","0","SATNPRO1963","29.574","0.41422","5"],
    [7358,"HCEP03730564","2023-12-14 00:00:00","11.9652","3.54521","23.813","2.186","7.51","0.273","3.621","0.16","0.18","30.6195","4.79533","24.57","0","SATNPRO1963","29.166","0.40854","5"],
    [7359,"HCEP03730564","2023-12-14 00:15:00","11.9658","3.54536","23.977","2.17","7.51","0.274","3.597","0.08","0.18","30.6205","4.79547","24.39","0","SATNPRO1963","29.706","0.41604","5"],
    [7360,"HCEP03730564","2023-12-14 00:30:00","11.965","3.54521","24.09","2.175","7.51","0.245","3.402","0.05","0.17","30.6196","4.79536","24.45","0","SATNPRO1963","29.554","0.41394","5"],
    [7361,"HCEP03730564","2023-12-14 00:45:00","11.9679","3.546","24.292","2.215","7.51","0.346","3.543","0.21","0.16","30.6247","4.79604","24.9","0","SATNPRO1963","29.552","0.41396","5"],
    [7362,"HCEP03730564","2023-12-14 01:00:00","11.9657","3.54541","24.46","2.253","7.51","0.312","3.672","0.17","0.2","30.6208","4.79553","25.32","0","SATNPRO1963","29.644000000000002","0.41522","5"],
    [7363,"HCEP03730564","2023-12-14 01:15:00","11.9625","3.54472","24.641","2.283","7.51","0.279","2.892","0.1","0.17","30.6167","4.79502","25.66","0","SATNPRO1963","29.721999999999998","0.41632","5"],
    [7364,"HCEP03730564","2023-12-14 01:30:00","11.961","3.54433","24.849","2.29","7.51","0.234","2.905","0.06","0.14","30.6142","4.79469","25.74","0","SATNPRO1963","29.674","0.41562","5"],
    [7365,"HCEP03730564","2023-12-14 01:45:00","11.9633","3.54499","25.062","2.231","7.51","0.3","4.324","0.08","0.27","30.6185","4.79528","25.07","0","SATNPRO1963","29.822","0.41766","5"],
    [7366,"HCEP03730564","2023-12-14 02:00:00","11.9629","3.54477","25.33","2.16","7.51","0.323","4.218","0.14","0.22","30.6166","4.79504","24.27","0","SATNPRO1963","29.976","0.41988","5"],
    [7367,"HCEP03730564","2023-12-14 02:15:00","11.9627","3.54477","25.55","2.138","7.5","0.295","4.379","0.05","0.23","30.6167","4.79505","24.03","0","SATNPRO1963","30.044","0.4208","5"],
    [7368,"HCEP03730564","2023-12-14 02:30:00","11.9628","3.54486","25.78","2.12","7.5","0.324","4.181","0.14","0.19","30.6174","4.79517","23.82","0","SATNPRO1963","30.248","0.42368","5"],
    [7369,"HCEP03730564","2023-12-14 02:45:00","11.9633","3.54485","26.034","2.104","7.5","0.3","4.026","0.13","0.21","30.6168","4.79509","23.65","0","SATNPRO1963","29.663999999999998","0.41554","5"],
    [7370,"HCEP03730564","2023-12-14 03:00:00","11.9618","3.54438","26.258","2.064","7.5","0.272","4.428","0.06","0.19","30.6135","4.79465","23.19","0","SATNPRO1963","29.41","0.41194","5"],
    [7371,"HCEP03730564","2023-12-14 03:15:00","11.9606","3.54413","26.48","2.037","7.5","0.317","3.996","0.13","0.18","30.6119","4.79447","22.89","0","SATNPRO1963","29.458000000000002","0.4126","5"],
    [7372,"HCEP03730564","2023-12-14 03:30:00","11.9597","3.54391","26.718","2.044","7.49","0.267","3.964","0.06","0.18","30.6104","4.79428","22.97","0","SATNPRO1963","29.216","0.4092","5"],
    [7373,"HCEP03730564","2023-12-14 03:45:00","11.9587","3.54365","26.916","2.058","7.49","0.279","3.677","0.09","0.37","30.6087","4.79406","23.12","0","SATNPRO1963","29.286","0.41022","5"],
    [7374,"HCEP03730564","2023-12-14 04:00:00","11.9566","3.54324","27.107","2.088","7.5","0.249","3.27","0.1","0.14","30.6064","4.79378","23.46","0","SATNPRO1963","28.83","0.40378","5"],
    [7375,"HCEP03730564","2023-12-14 04:15:00","11.9585","3.54371","27.361","2.095","7.5","0.279","3.66","0.07","0.16","30.6092","4.79417","23.54","0","SATNPRO1963","29.166","0.40852","5"],
    [7376,"HCEP03730564","2023-12-14 04:30:00","11.9618","3.54452","27.606","2.091","7.5","0.269","3.923","0.08","0.17","30.6143","4.79484","23.49","0","SATNPRO1963","29.254","0.40972","5"],
    [7377,"HCEP03730564","2023-12-14 04:45:00","11.9631","3.54488","27.729","2.1","7.5","0.306","4.234","0.07","0.19","30.6166","4.79515","23.6","0","SATNPRO1963","29.162","0.40846","5"],
    [7378,"HCEP03730564","2023-12-14 05:00:00","11.966","3.54558","27.769","2.124","7.5","0.264","4.688","0.03","0.36","30.6209","4.79572","23.87","0","SATNPRO1963","29.28","0.41014","5"],
    [7379,"HCEP03730564","2023-12-14 05:15:00","11.9677","3.54596","27.763","2.167","7.5","0.299","4.919","0.05","0.34","30.6232","4.79603","24.35","0","SATNPRO1963","29.376","0.41144","5"],
    [7380,"HCEP03730564","2023-12-14 05:30:00","11.9681","3.54618","27.825","2.277","7.51","0.264","4.238","0.05","0.25","30.625","4.79628","25.6","0","SATNPRO1963","29.324","0.4107","5"],
    [7381,"HCEP03730564","2023-12-14 05:45:00","11.9654","3.5458","27.914","2.331","7.52","0.27","3.716","0.05","0.29","30.6235","4.79611","26.2","0","SATNPRO1963","29.468","0.41278","5"],
    [7382,"HCEP03730564","2023-12-14 06:00:00","11.968","3.54619","28.062","2.372","7.52","0.269","4.363","0.06","0.32","30.625","4.7963","26.66","0","SATNPRO1963","29.536","0.4137","5"],
    [7383,"HCEP03730564","2023-12-14 06:15:00","11.9653","3.54585","28.119","2.399","7.52","1.457","53.049","0.66","27.42","30.6239","4.79618","26.97","0","SATNPRO1963","29.412","0.41196","5"],
    [7384,"HCEP03730564","2023-12-14 06:30:00","11.9633","3.54502","28.149","2.43","7.53","0.26","4.132","0.05","0.18","30.6176","4.79532","27.31","0","SATNPRO1963","30.02","0.42046","5"],
    [7385,"HCEP03730564","2023-12-14 06:45:00","11.9602","3.54447","28.19","2.435","7.53","0.273","4.121","0.04","0.23","30.6148","4.79497","27.36","0","SATNPRO1963","30.36","0.42526","5"],
    [7386,"HCEP03730564","2023-12-14 07:00:00","11.9563","3.54349","28.193","2.44","7.53","0.257","4.255","0.05","0.3","30.6086","4.79416","27.42","0","SATNPRO1963","30.262","0.4239","5"],
    [7387,"HCEP03730564","2023-12-14 07:15:00","11.9561","3.54342","28.212","2.443","7.53","0.273","4.093","0.04","0.18","30.6082","4.7941","27.46","0","SATNPRO1963","30.266","0.42394","5"],
    [7388,"HCEP03730564","2023-12-14 07:30:00","11.9531","3.54319","28.188","2.302","7.52","0.263","4.684","0.04","0.21","30.6085","4.79418","25.87","0","SATNPRO1963","30.578","0.42828","5"],
    [7389,"HCEP03730564","2023-12-14 07:45:00","11.9521","3.54297","28.106","2.203","7.51","0.297","4.395","0.09","0.19","30.6072","4.79401","24.75","0","SATNPRO1963","30.566","0.42812","5"],
    [7390,"HCEP03730564","2023-12-14 08:00:00","11.9494","3.5424","28.075","2.228","7.51","0.241","4.282","0.03","0.27","30.6039","4.79359","25.03","0","SATNPRO1963","30.478","0.42688","5"],
    [7391,"HCEP03730564","2023-12-14 08:15:00","11.9405","3.54014","28.042","2.256","7.51","0.272","4.186","0.08","1.22","30.5895","4.79167","25.33","0","SATNPRO1963","30.458000000000002","0.42662","5"],
    [7392,"HCEP03730564","2023-12-14 08:30:00","11.943","3.54107","27.979","2.275","7.51","0.27","4.171","0.04","0.46","30.5965","4.79261","25.55","0","SATNPRO1963","29.548","0.4139","5"],
    [7393,"HCEP03730564","2023-12-14 08:45:00","11.9426","3.54088","27.899","2.225","7.51","0.283","5.154","0.03","1.02","30.5951","4.79242","24.99","0","SATNPRO1963","29.666","0.4155","5"],
    [7394,"HCEP03730564","2023-12-14 09:00:00","11.9435","3.54127","27.816","2.206","7.51","0.24","3.964","0.03","0.44","30.598","4.79282","24.78","0","SATNPRO1963","29.808","0.41752","5"],
    [7395,"HCEP03730564","2023-12-14 09:15:00","11.9492","3.54281","27.726","2.16","7.51","0.275","4.36","0.04","0.42","30.6082","4.79416","24.27","0","SATNPRO1963","29.95","0.41946","5"],
    [7396,"HCEP03730564","2023-12-14 09:30:00","11.9534","3.54365","27.676","2.124","7.5","0.243","4.13","0.04","0.22","30.6128","4.79475","23.87","0","SATNPRO1963","29.858","0.4182","5"],
    [7397,"HCEP03730564","2023-12-14 09:45:00","11.9562","3.54422","27.576","2.119","7.5","0.256","4.099","0.02","0.33","30.616","4.79517","23.81","0","SATNPRO1963","29.524","0.41354","5"],
    [7398,"HCEP03730564","2023-12-14 10:00:00","11.9558","3.54386","27.49","2.141","7.5","0.245","3.3","0.06","0.17","30.6129","4.79473","24.06","0","SATNPRO1963","29.7","0.41596","5"],
    [7399,"HCEP03730564","2023-12-14 10:15:00","11.962","3.54558","27.409","2.136","7.5","0.247","3.845","0.02","0.23","30.6243","4.79625","24.01","0","SATNPRO1963","29.436","0.41224","5"],
    [7400,"HCEP03730564","2023-12-14 10:30:00","11.9615","3.54548","27.329","2.11","7.5","0.255","4.055","0.05","0.18","30.6238","4.79617","23.71","0","SATNPRO1963","29.42","0.4121","5"],
    [7401,"HCEP03730564","2023-12-14 10:45:00","11.9597","3.54495","27.234","2.134","7.5","0.248","3.404","0.03","0.18","30.6203","4.79571","23.99","0","SATNPRO1963","29.512","0.41334","5"],
    [7402,"HCEP03730564","2023-12-14 11:00:00","11.9614","3.54535","27.163","2.135","7.5","0.248","3.548","0.05","0.13","30.6228","4.79602","23.99","0","SATNPRO1963","29.696","0.41596","5"],
    [7403,"HCEP03730564","2023-12-14 11:15:00","11.9614","3.54475","27.07","2.137","7.5","0.251","3.302","0.05","0.28","30.6171","4.79522","24.01","0","SATNPRO1963","29.624000000000002","0.4149","5"],
    [7404,"HCEP03730564","2023-12-14 11:30:00","11.9604","3.54494","26.997","2.177","7.5","0.206","2.91","0.03","0.16","30.6196","4.79558","24.47","0","SATNPRO1963","29.472","0.4128","5"],
    [7405,"HCEP03730564","2023-12-14 11:45:00","11.9626","3.54553","26.968","2.189","7.5","0.339","3.223","0.18","0.28","30.6236","4.79611","24.6","0","SATNPRO1963","29.65","0.4153","5"],
    [7406,"HCEP03730564","2023-12-14 12:00:00","11.9637","3.54576","26.926","2.185","7.5","0.223","3.172","0.06","0.19","30.6248","4.79627","24.56","0","SATNPRO1963","29.554","0.41392","5"],
    [7407,"HCEP03730564","2023-12-14 12:15:00","11.9662","3.54633","26.945","2.164","7.5","0.286","3.376","0.14","0.28","30.6283","4.79672","24.33","0","SATNPRO1963","29.614","0.4148","5"],
    [7408,"HCEP03730564","2023-12-14 12:30:00","11.9676","3.54665","26.989","2.172","7.5","0.286","3.226","0.15","0.16","30.6302","4.79698","24.42","0","SATNPRO1963","29.834","0.41788","5"],
    [7409,"HCEP03730564","2023-12-14 12:45:00","11.9697","3.54716","27.038","2.187","7.5","0.243","2.879","0.05","0.24","30.6333","4.79739","24.59","0","SATNPRO1963","29.951999999999998","0.41954","5"],
    [7410,"HCEP03730564","2023-12-14 13:00:00","11.971","3.54753","27.065","2.186","7.5","0.24","3.249","0.07","0.21","30.6358","4.79772","24.57","0","SATNPRO1963","29.944","0.41942","5"],
    [7411,"HCEP03730564","2023-12-14 13:15:00","11.9718","3.54768","27.115","2.158","7.5","0.286","3.317","0.09","0.19","30.6365","4.79781","24.26","0","SATNPRO1963","29.694","0.41588","5"],
    [7412,"HCEP03730564","2023-12-14 13:30:00","11.9725","3.5478","27.172","2.146","7.5","0.228","3.317","0.03","0.24","30.6371","4.79789","24.13","0","SATNPRO1963","29.928","0.41918","5"],
    [7413,"HCEP03730564","2023-12-14 13:45:00","11.9724","3.5478","27.203","2.143","7.5","0.254","3.565","0.03","0.17","30.6372","4.79791","24.09","0","SATNPRO1963","30.444","0.42642","5"],
    [7414,"HCEP03730564","2023-12-14 14:00:00","11.9725","3.54785","27.273","2.14","7.5","0.24","3.316","0.04","0.15","30.6375","4.79796","24.06","0","SATNPRO1963","29.854","0.41814","5"],
    [7415,"HCEP03730564","2023-12-14 14:15:00","11.9726","3.54784","27.365","2.137","7.5","0.261","3.604","0.04","0.16","30.6373","4.79793","24.03","0","SATNPRO1963","29.954","0.41956","5"],
    [7416,"HCEP03730564","2023-12-14 14:30:00","11.9726","3.54782","27.436","2.128","7.5","0.218","3.463","0.03","0.14","30.6371","4.7979","23.92","0","SATNPRO1963","30.07","0.4212","5"],
    [7417,"HCEP03730564","2023-12-14 14:45:00","11.9725","3.54778","27.491","2.135","7.5","0.287","3.462","0.12","0.32","30.6368","4.79787","24","0","SATNPRO1963","29.68","0.4157","5"],
    [7418,"HCEP03730564","2023-12-14 15:00:00","11.9723","3.5477","27.557","2.126","7.5","0.243","3.734","0.08","0.13","30.6362","4.79779","23.9","0","SATNPRO1963","30.04","0.42084","5"],
    [7419,"HCEP03730564","2023-12-14 15:15:00","11.9718","3.5476","27.579","2.13","7.5","0.254","3.608","0.06","0.32","30.6355","4.7977","23.94","0","SATNPRO1963","29.91","0.41892","5"],
    [7420,"HCEP03730564","2023-12-14 15:30:00","11.9716","3.5475","27.625","2.13","7.5","0.223","3.48","0.03","0.2","30.6348","4.79761","23.95","0","SATNPRO1963","29.886","0.4186","5"],
    [7421,"HCEP03730564","2023-12-14 15:45:00","11.9709","3.54736","27.624","2.138","7.5","0.245","3.607","0.06","0.17","30.634","4.7975","24.03","0","SATNPRO1963","29.738","0.41652","5"],
    [7422,"HCEP03730564","2023-12-14 16:00:00","11.97","3.54727","27.708","2.089","7.5","0.244","4.316","0.04","0.29","30.6339","4.7975","23.48","0","SATNPRO1963","29.848","0.41804","5"],
    [7423,"HCEP03730564","2023-12-14 16:15:00","11.97","3.54724","27.662","2.116","7.5","0.264","4.16","0.05","0.25","30.6335","4.79745","23.79","0","SATNPRO1963","29.608","0.41468","5"],
    [7424,"HCEP03730564","2023-12-14 16:30:00","11.9714","3.54744","27.65","2.317","7.51","0.248","4.07","0.03","0.29","30.6344","4.79755","26.05","0","SATNPRO1963","29.876","0.41848","5"],
    [7425,"HCEP03730564","2023-12-14 16:45:00","11.9716","3.54761","27.667","2.457","7.52","0.301","4.123","0.09","0.6","30.6358","4.79775","27.62","0","SATNPRO1963","29.78","0.41712","5"],
    [7426,"NA","2023-12-14 17:00:00",null,null,null,null,null,null,null,null,null,null,null,null,null,"SATNPRO1963","29.396","0.41176","5"],
    [7427,"HCEP03730564","2023-12-14 17:00:01","11.9713","3.54752","27.655","2.525","7.53","0.259","3.594","0.06","0.28","30.6352","4.79767","28.39","0","NA",null,null,null],
    [7428,"HCEP03730564","2023-12-14 17:15:00","11.9685","3.54684","27.655","2.526","7.53","0.281","3.597","0.06","0.36","30.6311","4.79712","28.39","0","SATNPRO1963","29.84","0.41794","5"],
    [7429,"HCEP03730564","2023-12-14 17:30:00","11.9673","3.54647","27.638","2.516","7.53","0.272","3.526","0.11","0.21","30.6285","4.79677","28.28","0","SATNPRO1963","30.536","0.4277","5"],
    [7430,"HCEP03730564","2023-12-14 17:45:00","11.9656","3.54608","27.566","2.499","7.53","0.27","4.077","0.05","0.37","30.6261","4.79646","28.09","0","SATNPRO1963","31.054000000000002","0.43496","5"],
    [7431,"HCEP03730564","2023-12-14 18:00:00","11.9652","3.5459","27.473","2.49","7.53","0.248","4.094","0.04","0.44","30.6247","4.79626","27.99","0","SATNPRO1963","31.182","0.43678","5"],
    [7432,"HCEP03730564","2023-12-14 18:15:00","11.9645","3.5458","27.374","2.488","7.53","0.287","3.68","0.07","0.3","30.6244","4.79621","27.96","2","SATNPRO1963","31.088","0.43542","5"],
    [7433,"HCEP03730564","2023-12-14 18:30:00","11.9635","3.54553","27.229","2.489","7.53","0.242","3.906","0.04","0.35","30.6227","4.79599","27.97","0","SATNPRO1963","30.93","0.43322","5"],
    [7434,"HCEP03730564","2023-12-14 18:45:00","11.9631","3.54544","27.058","2.468","7.53","3.102","23.038","3.39","25.54","30.6222","4.79591","27.74","2","SATNPRO1963","30.99","0.43406","5"],
    [7435,"HCEP03730564","2023-12-14 19:00:00","11.962","3.54516","26.874","2.451","7.53","0.29","4.69","0.09","1.05","30.6206","4.79569","27.55","2","SATNPRO1963","30.7","0.43","5"],
    [7436,"HCEP03730564","2023-12-14 19:15:00","11.96","3.54455","26.684","2.426","7.53","0.274","4.422","0.05","0.28","30.6163","4.79511","27.26","2","SATNPRO1963","30.886","0.43264","5"],
    [7437,"HCEP03730564","2023-12-14 19:30:00","11.9581","3.54412","26.448","2.409","7.53","0.298","4.347","0.11","0.36","30.6139","4.79478","27.07","0","SATNPRO1963","30.672","0.42958","5"],
    [7438,"HCEP03730564","2023-12-14 19:45:00","11.9576","3.544","26.21","2.405","7.52","0.277","4.395","0.03","0.33","30.6133","4.79469","27.02","2","SATNPRO1963","30.626","0.42896","5"],
    [7439,"HCEP03730564","2023-12-14 20:00:00","11.957","3.54396","25.967","2.406","7.52","0.266","4.356","0.08","0.32","30.6134","4.7947","27.04","2","SATNPRO1963","30.634","0.4291","5"],
    [7440,"HCEP03730564","2023-12-14 20:15:00","11.9572","3.54401","25.724","2.401","7.52","0.272","4.322","0.04","0.26","30.6138","4.79474","26.98","2","SATNPRO1963","30.512","0.42736","5"],
    [7441,"HCEP03730564","2023-12-14 20:30:00","11.9555","3.54362","25.504","2.404","7.52","0.254","4.152","0.05","0.17","30.6117","4.79445","27.01","2","SATNPRO1963","30.528","0.4276","5"],
    [7442,"HCEP03730564","2023-12-14 20:45:00","11.9546","3.54333","25.23","2.404","7.52","0.287","4.361","0.06","0.36","30.6097","4.79417","27.02","2","SATNPRO1963","30.560000000000002","0.42804","5"],
    [7443,"HCEP03730564","2023-12-14 21:00:00","11.9543","3.54327","25.024","2.397","7.52","0.25","4.545","0.03","0.36","30.6094","4.79412","26.94","2","SATNPRO1963","30.606","0.42868","5"],
    [7444,"HCEP03730564","2023-12-14 21:15:00","11.9537","3.54305","24.794","2.386","7.52","0.265","4.213","0.04","0.31","30.608","4.79391","26.8","2","SATNPRO1963","30.594","0.42848","5"],
    [7445,"HCEP03730564","2023-12-14 21:30:00","11.9533","3.54308","24.567","2.381","7.52","0.234","4.361","0.02","0.31","30.6086","4.79399","26.75","2","SATNPRO1963","30.34","0.42496","5"],
    [7446,"HCEP03730564","2023-12-14 21:45:00","11.9529","3.5429","24.34","2.377","7.52","0.289","3.823","0.05","0.34","30.6073","4.7938","26.71","2","SATNPRO1963","30.404","0.42586","5"],
    [7447,"HCEP03730564","2023-12-14 22:00:00","11.9533","3.54303","24.126","2.369","7.52","0.245","4.309","0.06","0.37","30.6083","4.79393","26.62","2","SATNPRO1963","30.624","0.42894","5"],
    [7448,"HCEP03730564","2023-12-14 22:15:00","11.9532","3.54298","23.961","2.362","7.52","0.246","4.102","0.02","0.23","30.608","4.79387","26.54","2","SATNPRO1963","30.474","0.42684","5"],
    [7449,"HCEP03730564","2023-12-14 22:30:00","11.9533","3.54297","23.823","2.357","7.52","0.254","4.266","0.04","0.51","30.6078","4.79384","26.48","2","SATNPRO1963","30.172","0.42262","5"],
    [7450,"HCEP03730564","2023-12-14 22:45:00","11.9527","3.54287","23.709","2.361","7.52","0.248","3.313","0.05","0.17","30.6075","4.79379","26.53","2","SATNPRO1963","30.324","0.42476","5"],
    [7451,"HCEP03730564","2023-12-14 23:00:00","11.9532","3.54295","23.644","2.362","7.52","0.211","3.503","0.02","0.13","30.6078","4.79384","26.54","2","SATNPRO1963","30.458000000000002","0.42662","5"],
    [7452,"HCEP03730564","2023-12-14 23:15:00","11.9529","3.54292","23.608","2.36","7.52","0.25","3.526","0.02","0.13","30.6078","4.79383","26.52","2","SATNPRO1963","30.172","0.42264","5"],
    [7453,"HCEP03730564","2023-12-14 23:30:00","11.9528","3.5429","23.598","2.356","7.52","0.224","3.707","0.03","0.3","30.6077","4.79382","26.47","2","SATNPRO1963","30.252","0.4237","5"],
    [7454,"HCEP03730564","2023-12-14 23:45:00","11.9529","3.54295","23.626","2.357","7.52","0.291","5.393","0.02","0.37","30.6081","4.79387","26.49","2","SATNPRO1963","30.59","0.42842","5"],
    [7455,"HCEP03730564","2023-12-15 00:00:00","11.9528","3.5429","23.633","2.36","7.52","0.258","4.062","0.04","0.56","30.6077","4.79382","26.52","2","SATNPRO1963","30.36","0.4252","5"],
    [7456,"HCEP03730564","2023-12-15 00:15:00","11.9529","3.54284","23.7","2.35","7.52","0.258","3.519","0.03","0.15","30.607","4.79373","26.41","2","SATNPRO1963","30.482","0.42698","5"],
    [7457,"HCEP03730564","2023-12-15 00:30:00","11.9518","3.54258","23.805","2.327","7.51","0.225","3.638","0.02","0.12","30.6054","4.79351","26.14","2","SATNPRO1963","30.669999999999998","0.4296","5"],
    [7458,"HCEP03730564","2023-12-15 00:45:00","11.951","3.54223","23.886","2.284","7.51","0.289","3.652","0.03","0.14","30.6027","4.79315","25.66","2","SATNPRO1963","30.308","0.4245","5"],
    [7459,"HCEP03730564","2023-12-15 01:00:00","11.9499","3.542","24.001","2.252","7.51","0.253","3.757","0.05","0.16","30.6013","4.79297","25.3","2","SATNPRO1963","30.354","0.42512","5"],
    [7460,"HCEP03730564","2023-12-15 01:15:00","11.9497","3.54186","24.142","2.248","7.51","0.279","3.662","0.08","0.28","30.6","4.79281","25.25","2","SATNPRO1963","30.266000000000002","0.42394","5"],
    [7461,"HCEP03730564","2023-12-15 01:30:00","11.9487","3.54167","24.274","2.234","7.51","0.257","3.772","0.03","0.29","30.599","4.79269","25.1","2","SATNPRO1963","30.322","0.42472","5"],
    [7462,"HCEP03730564","2023-12-15 01:45:00","11.9484","3.5416","24.436","2.201","7.51","0.275","4.076","0.06","0.2","30.5985","4.79263","24.72","2","SATNPRO1963","29.888","0.41862","5"],
    [7463,"HCEP03730564","2023-12-15 02:00:00","11.9477","3.54145","24.63","2.204","7.51","0.257","4.167","0.05","0.14","30.5975","4.79252","24.76","2","SATNPRO1963","29.898","0.41878","5"],
    [7464,"HCEP03730564","2023-12-15 02:15:00","11.9453","3.54083","24.881","2.185","7.51","0.279","3.754","0.05","0.25","30.5935","4.79199","24.54","2","SATNPRO1963","30.038","0.42074","5"],
    [7465,"HCEP03730564","2023-12-15 02:30:00","11.9447","3.5407","25.11","2.165","7.51","0.323","4.07","0.14","0.22","30.5926","4.79188","24.32","2","SATNPRO1963","29.728","0.4164","5"],
    [7466,"HCEP03730564","2023-12-15 02:45:00","11.9437","3.54048","25.323","2.136","7.5","0.259","3.951","0.03","0.27","30.5912","4.79172","23.99","2","SATNPRO1963","29.650000000000002","0.41532","5"],
    [7467,"HCEP03730564","2023-12-15 03:00:00","11.9433","3.54042","25.576","2.131","7.5","0.256","3.772","0.15","0.32","30.5909","4.7917","23.94","2","SATNPRO1963","29.564","0.4141","5"],
    [7468,"HCEP03730564","2023-12-15 03:15:00","11.9443","3.54058","25.822","2.146","7.5","0.324","3.46","0.08","0.31","30.5915","4.79178","24.11","2","SATNPRO1963","29.532","0.41366","5"],
    [7469,"HCEP03730564","2023-12-15 03:30:00","11.9435","3.54042","26.053","2.142","7.5","0.221","3.672","0.02","0.48","30.5905","4.79166","24.06","2","SATNPRO1963","29.424","0.41214","5"],
    [7470,"HCEP03730564","2023-12-15 03:45:00","11.9422","3.5402","26.301","2.139","7.5","0.248","3.674","0.03","0.24","30.5894","4.79154","24.03","2","SATNPRO1963","29.226","0.40934","5"],
    [7471,"HCEP03730564","2023-12-15 04:00:00","11.9423","3.54018","26.535","2.119","7.5","0.231","3.706","0.02","0.14","30.589","4.79149","23.8","2","SATNPRO1963","29.632","0.41504","5"],
    [7472,"HCEP03730564","2023-12-15 04:15:00","11.9437","3.5405","26.782","2.107","7.5","0.246","3.394","0.03","0.27","30.5909","4.79175","23.67","2","SATNPRO1963","29.498","0.41312","5"],
    [7473,"HCEP03730564","2023-12-15 04:30:00","11.9451","3.54077","27.02","2.119","7.5","0.231","3.861","0.04","0.16","30.5922","4.79193","23.81","2","SATNPRO1963","29.384","0.41158","5"],
    [7474,"HCEP03730564","2023-12-15 04:45:00","11.9458","3.54104","27.242","2.131","7.5","0.323","4.31","0.13","0.2","30.5942","4.79221","23.93","2","SATNPRO1963","29.348","0.41106","5"],
    [7475,"HCEP03730564","2023-12-15 05:00:00","11.947","3.54133","27.458","2.15","7.5","0.276","4.305","0.13","0.17","30.5959","4.79245","24.15","2","SATNPRO1963","29.398","0.41172","5"],
    [7476,"HCEP03730564","2023-12-15 05:15:00","11.9472","3.54137","27.664","2.158","7.5","0.297","4.193","0.05","0.32","30.5961","4.79248","24.24","2","SATNPRO1963","29.246","0.40966","5"],
    [7477,"HCEP03730564","2023-12-15 05:30:00","11.9472","3.54142","27.872","2.156","7.5","0.245","4.506","0.03","0.33","30.5964","4.79254","24.22","2","SATNPRO1963","29.406","0.4119","5"],
    [7478,"HCEP03730564","2023-12-15 05:45:00","11.9475","3.54147","27.995","2.154","7.5","0.263","3.942","0.05","0.16","30.5966","4.79258","24.2","2","SATNPRO1963","29.44","0.41236","5"],
    [7479,"HCEP03730564","2023-12-15 06:00:00","11.9474","3.54142","27.848","2.156","7.5","0.253","4.251","0.03","0.26","30.5963","4.79252","24.22","2","SATNPRO1963","29.394000000000002","0.4117","5"],
    [7480,"HCEP03730564","2023-12-15 06:15:00","11.9483","3.54168","27.862","2.172","7.5","0.253","4.217","0.03","0.32","30.598","4.79275","24.4","2","SATNPRO1963","29.56","0.41402","5"],
    [7481,"HCEP03730564","2023-12-15 06:30:00","11.9493","3.54211","27.98","2.202","7.5","0.239","4.36","0.03","0.24","30.6013","4.7932","24.74","2","SATNPRO1963","29.46","0.41262","5"],
    [7482,"HCEP03730564","2023-12-15 06:45:00","11.9515","3.54264","28.067","2.245","7.51","0.261","4.54","0.03","0.5","30.6045","4.79364","25.22","2","SATNPRO1963","29.626","0.41492","5"],
    [7483,"HCEP03730564","2023-12-15 07:00:00","11.9542","3.54327","28.139","2.286","7.51","0.288","4.507","0.14","0.28","30.6083","4.79413","25.69","2","SATNPRO1963","29.67","0.41562","5"],
    [7484,"HCEP03730564","2023-12-15 07:15:00","11.9516","3.54283","28.17","2.332","7.51","0.266","4.241","0.05","0.23","30.6062","4.79387","26.21","2","SATNPRO1963","29.638","0.41512","5"],
    [7485,"HCEP03730564","2023-12-15 07:30:00","11.9507","3.54253","28.2","2.353","7.52","0.216","4.238","0.01","0.13","30.6041","4.79359","26.44","2","SATNPRO1963","29.828","0.41782","5"],
    [7486,"HCEP03730564","2023-12-15 07:45:00","11.9499","3.54236","28.212","2.333","7.52","0.256","4.153","0.05","0.15","30.6031","4.79347","26.21","2","SATNPRO1963","30.054","0.42094","5"],
    [7487,"HCEP03730564","2023-12-15 08:00:00","11.949","3.54204","28.219","2.324","7.52","0.257","4.244","0.05","0.18","30.6008","4.79315","26.11","2","SATNPRO1963","30.192","0.42286","5"],
    [7488,"HCEP03730564","2023-12-15 08:15:00","11.9487","3.54203","28.223","2.332","7.52","0.254","4.161","0.02","0.21","30.6009","4.79317","26.2","2","SATNPRO1963","30.496","0.42716","5"],
    [7489,"HCEP03730564","2023-12-15 08:30:00","11.9484","3.5421","28.21","2.283","7.52","0.23","4.386","0.03","0.17","30.6018","4.7933","25.64","2","SATNPRO1963","30.282","0.42416","5"],
    [7490,"HCEP03730564","2023-12-15 08:45:00","11.9444","3.54148","28.177","2.277","7.51","0.24","3.829","0.02","0.28","30.5992","4.79299","25.58","2","SATNPRO1963","30.364","0.4253","5"],
    [7491,"HCEP03730564","2023-12-15 09:00:00","11.9433","3.54127","28.121","2.25","7.51","0.253","3.659","0.04","0.12","30.5981","4.79285","25.28","2","SATNPRO1963","30.258","0.4238","5"],
    [7492,"HCEP03730564","2023-12-15 09:15:00","11.9426","3.54087","28.045","2.229","7.51","0.245","3.856","0.03","0.48","30.5948","4.79239","25.04","2","SATNPRO1963","30.134","0.4221","5"],
    [7493,"HCEP03730564","2023-12-15 09:30:00","11.9459","3.54177","27.972","2.215","7.5","0.319","3.622","0.14","0.16","30.6008","4.79318","24.88","2","SATNPRO1963","29.878","0.41848","5"],
    [7494,"HCEP03730564","2023-12-15 09:45:00","11.9455","3.54171","27.893","2.189","7.5","0.227","3.769","0.01","0.16","30.6006","4.79316","24.59","2","SATNPRO1963","30.108","0.42172","5"],
    [7495,"HCEP03730564","2023-12-15 10:00:00","11.9472","3.54207","27.804","2.185","7.5","0.254","3.955","0.05","0.29","30.6026","4.79342","24.55","2","SATNPRO1963","29.988","0.42004","5"],
    [7496,"HCEP03730564","2023-12-15 10:15:00","11.948","3.54219","27.712","2.184","7.5","0.291","3.775","0.19","0.13","30.6032","4.79348","24.54","2","SATNPRO1963","29.968","0.41972","5"],
    [7497,"HCEP03730564","2023-12-15 10:30:00","11.9483","3.54225","27.62","2.196","7.5","0.219","3.477","0.02","0.11","30.6035","4.79351","24.68","2","SATNPRO1963","29.934","0.4193","5"],
    [7498,"HCEP03730564","2023-12-15 10:45:00","11.9492","3.54238","27.539","2.204","7.5","0.219","4.026","0.01","0.31","30.6041","4.79358","24.76","2","SATNPRO1963","29.734","0.41646","5"],
    [7499,"HCEP03730564","2023-12-15 11:00:00","11.9494","3.54245","27.45","2.196","7.5","0.226","3.509","0.05","0.09","30.6047","4.79365","24.67","2","SATNPRO1963","29.72","0.41626","5"],
    [7500,"HCEP03730564","2023-12-15 11:15:00","11.9497","3.54244","27.366","2.195","7.5","0.231","3.606","0.01","0.07","30.6043","4.79359","24.66","2","SATNPRO1963","29.53","0.41362","5"],
    [7501,"HCEP03730564","2023-12-15 11:30:00","11.9495","3.54248","27.267","2.194","7.5","0.248","3.909","0.08","0.37","30.6049","4.79367","24.65","2","SATNPRO1963","29.956","0.41958","5"],
    [7502,"HCEP03730564","2023-12-15 11:45:00","11.9497","3.54249","27.176","2.187","7.5","0.238","3.621","0.03","0.24","30.6049","4.79366","24.58","2","SATNPRO1963","29.782","0.41714","5"],
    [7503,"HCEP03730564","2023-12-15 12:00:00","11.9497","3.54253","27.104","2.188","7.5","0.212","3.489","0.02","0.16","30.6053","4.79371","24.58","2","SATNPRO1963","29.98","0.41992","5"],
    [7504,"HCEP03730564","2023-12-15 12:15:00","11.9503","3.54267","27.048","2.197","7.5","0.216","3.219","0.01","0.11","30.6061","4.79382","24.69","2","SATNPRO1963","29.678","0.41572","5"],
    [7505,"HCEP03730564","2023-12-15 12:30:00","11.9503","3.54267","27","2.191","7.5","0.214","3.917","0.01","0.29","30.6062","4.79383","24.62","2","SATNPRO1963","29.824","0.41776","5"],
    [7506,"HCEP03730564","2023-12-15 12:45:00","11.9507","3.54282","26.968","2.177","7.5","0.243","3.75","0.02","0.19","30.6073","4.79398","24.45","2","SATNPRO1963","29.966","0.41972","5"],
    [7507,"HCEP03730564","2023-12-15 13:00:00","11.951","3.54292","26.943","2.166","7.5","0.206","3.717","0","0.19","30.608","4.79408","24.34","2","SATNPRO1963","29.834","0.41788","5"],
    [7508,"HCEP03730564","2023-12-15 13:15:00","11.9526","3.54315","26.956","2.171","7.5","0.281","3.384","0.1","0.1","30.609","4.79419","24.39","2","SATNPRO1963","29.942","0.41938","5"],
    [7509,"HCEP03730564","2023-12-15 13:30:00","11.9528","3.54322","26.954","2.167","7.5","0.186","3.238","0.01","0.03","30.6095","4.79425","24.35","2","SATNPRO1963","29.758","0.41682","5"],
    [7510,"HCEP03730564","2023-12-15 13:45:00","11.9528","3.54317","26.997","2.134","7.5","0.213","3.3","0.01","0.09","30.6089","4.79418","23.97","2","SATNPRO1963","29.646","0.41522","5"],
    [7511,"HCEP03730564","2023-12-15 14:00:00","11.9524","3.54311","27.051","2.115","7.5","0.229","3.813","0.01","0.04","30.6087","4.79415","23.77","2","SATNPRO1963","29.688","0.4158","5"],
    [7512,"HCEP03730564","2023-12-15 14:15:00","11.9526","3.54313","27.096","2.099","7.5","0.243","3.924","0","0.13","30.6087","4.79415","23.59","2","SATNPRO1963","30.105999999999998","0.4217","5"],
    [7513,"HCEP03730564","2023-12-15 14:30:00","11.9536","3.5442","27.17","2.247","7.5","0.216","4.951","0.01","1.23","30.6181","4.79547","25.25","2","SATNPRO1963","29.748","0.4167","5"],
    [7514,"HCEP03730564","2023-12-15 14:45:00","11.9556","3.54555","27.236","2.414","7.51","0.24","3.896","0.02","0.12","30.6294","4.79704","27.13","2","SATNPRO1963","29.796","0.41734","5"],
    [7515,"HCEP03730564","2023-12-15 15:00:00","11.9591","3.54603","27.303","2.551","7.52","0.227","3.068","0.05","0.15","30.6312","4.79725","28.67","2","SATNPRO1963","30.556","0.42796","5"],
    [7516,"HCEP03730564","2023-12-15 15:15:00","11.961","3.54677","27.349","2.595","7.53","0.272","2.962","0.05","0.18","30.6366","4.79799","29.17","2","SATNPRO1963","29.396","0.41178","5"],
    [7517,"HCEP03730564","2023-12-15 15:30:00","11.9621","3.54704","27.423","2.56","7.53","0.212","3.296","0.01","0.06","30.6383","4.79822","28.77","2","SATNPRO1963","30.352","0.42516","5"],
    [7518,"HCEP03730564","2023-12-15 15:45:00","11.9627","3.54718","27.481","2.559","7.53","0.21","2.674","0.01","0.09","30.6391","4.79832","28.77","2","SATNPRO1963","30.97","0.43376","5"],
    [7519,"HCEP03730564","2023-12-15 16:00:00","11.9626","3.54707","27.541","2.561","7.53","0.196","2.812","0.02","0.21","30.6381","4.79818","28.79","2","SATNPRO1963","31.39","0.43968","5"],
    [7520,"HCEP03730564","2023-12-15 16:15:00","11.9617","3.5468","27.591","2.546","7.53","0.231","3.078","0.01","0.11","30.6362","4.79794","28.61","2","SATNPRO1963","31.506","0.4413","5"],
    [7521,"HCEP03730564","2023-12-15 16:30:00","11.9625","3.54698","27.632","2.536","7.53","0.229","2.96","0.04","0.13","30.6373","4.79808","28.5","2","SATNPRO1963","31.164","0.4365","5"],
    [7522,"HCEP03730564","2023-12-15 16:45:00","11.9633","3.54716","27.674","2.539","7.53","0.222","3.13","0.02","0.19","30.6383","4.79822","28.54","2","SATNPRO1963","31.528","0.4416","5"],
    [7523,"HCEP03730564","2023-12-15 17:00:00","11.9634","3.54711","27.73","2.542","7.53","0.315","3.363","0.09","0.1","30.6378","4.79814","28.57","2","SATNPRO1963","31.236","0.43752","5"],
    [7524,"HCEP03730564","2023-12-15 17:15:00","11.9634","3.54711","27.733","2.517","7.53","0.284","3.69","0.04","0.2","30.6378","4.79814","28.29","2","SATNPRO1963","30.948","0.43346","5"],
    [7525,"HCEP03730564","2023-12-15 17:30:00","11.965","3.54753","27.762","2.506","7.53","0.273","3.798","0.1","0.25","30.6404","4.79849","28.17","2","SATNPRO1963","31.198","0.43696","5"],
    [7526,"HCEP03730564","2023-12-15 17:45:00","11.9658","3.54772","27.741","2.523","7.53","0.297","3.737","0.04","0.03","30.6416","4.79865","28.36","2","SATNPRO1963","31.382","0.43956","5"],
    [7527,"HCEP03730564","2023-12-15 18:00:00","11.966","3.54779","27.699","2.538","7.53","0.202","3.598","0.01","0.16","30.6422","4.79873","28.53","2","SATNPRO1963","31.252","0.43772","5"],
    [7528,"HCEP03730564","2023-12-15 18:15:00","11.9658","3.54762","27.642","2.549","7.53","0.228","3.235","0","0","30.6406","4.79851","28.65","2","SATNPRO1963","30.962","0.43366","5"],
    [7529,"HCEP03730564","2023-12-15 18:30:00","11.9631","3.54686","27.558","2.535","7.53","0.207","2.892","0","0","30.6357","4.79785","28.5","2","SATNPRO1963","31.162","0.43648","5"],
    [7530,"HCEP03730564","2023-12-15 18:45:00","11.9629","3.54679","27.488","2.53","7.53","0.219","3.607","0","0.16","30.6352","4.79777","28.43","2","SATNPRO1963","31.186","0.43684","5"],
    [7531,"HCEP03730564","2023-12-15 19:00:00","11.9631","3.54709","27.379","2.527","7.53","0.226","3.71","0.04","0.06","30.6379","4.79815","28.41","2","SATNPRO1963","31.25","0.43772","5"],
    [7532,"HCEP03730564","2023-12-15 19:15:00","11.962","3.54655","27.246","2.528","7.53","0.224","3.052","0","0","30.6337","4.79757","28.41","2","SATNPRO1963","31.194","0.43686","5"],
    [7533,"HCEP03730564","2023-12-15 19:30:00","11.9615","3.54622","27.104","2.518","7.53","0.258","3.007","0","0","30.631","4.79718","28.3","2","SATNPRO1963","31.314","0.43858","5"],
    [7534,"HCEP03730564","2023-12-15 19:45:00","11.961","3.54605","26.922","2.501","7.53","0.219","3.326","0","0","30.6299","4.79701","28.1","2","SATNPRO1963","31.21","0.43716","5"],
    [7535,"HCEP03730564","2023-12-15 20:00:00","11.961","3.54601","26.737","2.506","7.53","0.181","3.066","0","0","30.6296","4.79696","28.16","2","SATNPRO1963","31.094","0.43552","5"],
    [7536,"HCEP03730564","2023-12-15 20:15:00","11.9611","3.54612","26.527","2.511","7.53","0.301","3.445","0","0","30.6306","4.79709","28.22","2","SATNPRO1963","31.076","0.43526","5"],
    [7537,"HCEP03730564","2023-12-15 20:30:00","11.9629","3.54671","26.289","2.504","7.53","0.301","3.445","0","0","30.6349","4.79767","28.15","0","SATNPRO1963","31","0.4342","5"],
    [7538,"HCEP03730564","2023-12-15 20:45:00","11.9627","3.54658","26.076","2.496","7.53","0.275","4.103","0","0","30.6339","4.79751","28.05","2","SATNPRO1963","31.094","0.43554","5"],
    [7539,"HCEP03730564","2023-12-15 21:00:00","11.9594","3.54578","25.906","2.466","7.52","0.275","4.103","0","0","30.629","4.79685","27.71","0","SATNPRO1963","31.304000000000002","0.43844","5"],
    [7540,"HCEP03730564","2023-12-15 21:15:00","11.9564","3.54487","25.742","2.413","7.52","0.275","4.103","0","0","30.6227","4.79601","27.11","0","SATNPRO1963","31.236","0.4375","5"],
    [7541,"HCEP03730564","2023-12-15 21:30:00","11.9505","3.54312","25.504","2.352","7.52","0.275","4.103","0","0","30.6109","4.79442","26.43","0","SATNPRO1963","31.174","0.43662","5"],
    [7542,"HCEP03730564","2023-12-15 21:45:00","11.9446","3.54135","25.229","2.273","7.51","0.275","4.103","0","0","30.5989","4.79279","25.53","0","SATNPRO1963","30.976","0.43388","5"],
    [7543,"HCEP03730564","2023-12-15 22:00:00","11.9376","3.5395","24.981","2.191","7.51","0.275","4.103","0","0","30.5871","4.7912","24.61","0","SATNPRO1963","30.887999999999998","0.43266","5"],
    [7544,"HCEP03730564","2023-12-15 22:15:00","11.9359","3.5391","24.681","2.145","7.5","0.275","4.103","0","0","30.5847","4.79087","24.09","0","SATNPRO1963","30.542","0.42776","5"],
    [7545,"HCEP03730564","2023-12-15 22:30:00","11.9344","3.53875","24.401","2.13","7.5","0.275","4.103","0","0","30.5827","4.7906","23.92","0","SATNPRO1963","30.282","0.4241","5"],
    [7546,"HCEP03730564","2023-12-15 22:45:00","11.9331","3.53848","24.185","2.125","7.5","0.25","4.382","0","0","30.5812","4.79039","23.87","2","SATNPRO1963","29.938","0.41936","5"],
    [7547,"HCEP03730564","2023-12-15 23:00:00","11.9322","3.53831","23.988","2.123","7.5","0.25","4.382","0","0","30.5804","4.79028","23.84","0","SATNPRO1963","29.538","0.41372","5"],
    [7548,"HCEP03730564","2023-12-15 23:15:00","11.9325","3.53829","23.837","2.123","7.5","0.25","4.382","0","0","30.58","4.79021","23.84","0","SATNPRO1963","29.548000000000002","0.41386","5"],
    [7549,"HCEP03730564","2023-12-15 23:30:00","11.9318","3.53821","23.724","2.114","7.5","0.25","4.382","0","0","30.5799","4.7902","23.74","0","SATNPRO1963","30.048","0.42086","5"],
    [7550,"HCEP03730564","2023-12-15 23:45:00","11.9325","3.53834","23.639","2.097","7.5","0.25","4.382","0","0","30.5806","4.79028","23.55","0","SATNPRO1963","29.39","0.41164","5"],
    [7551,"HCEP03730564","2023-12-16 00:00:00","11.9324","3.53832","23.588","2.089","7.49","0.258","3.568","0","0","30.5804","4.79026","23.46","2","SATNPRO1963","29.088","0.40746","5"],
    [7552,"HCEP03730564","2023-12-16 00:15:00","11.9324","3.5383","23.641","2.088","7.49","0.244","3.824","0.01","0.39","30.5803","4.79024","23.45","2","SATNPRO1963","28.026","0.39254","5"],
    [7553,"HCEP03730564","2023-12-16 00:30:00","11.9324","3.53831","23.666","2.086","7.49","0.271","4.09","0","0.09","30.5804","4.79026","23.43","2","SATNPRO1963","28.924","0.40512","5"],
    [7554,"HCEP03730564","2023-12-16 00:45:00","11.9327","3.53839","23.663","2.078","7.49","0.228","5.481","0","0","30.5809","4.79033","23.34","2","SATNPRO1963","28.702","0.40202","5"],
    [7555,"HCEP03730564","2023-12-16 01:00:00","11.9333","3.53856","23.751","2.065","7.49","0.443","3.829","0","0","30.582","4.79047","23.19","2","SATNPRO1963","29.166","0.40854","5"],
    [7556,"HCEP03730564","2023-12-16 01:15:00","11.9334","3.53855","23.869","2.044","7.49","0.443","3.829","0","0","30.5818","4.79044","22.95","0","SATNPRO1963","29.036","0.40674","5"],
    [7557,"HCEP03730564","2023-12-16 01:30:00","11.9339","3.53858","23.999","2.007","7.49","0.443","3.829","0","0","30.5816","4.79042","22.53","0","SATNPRO1963","29.5","0.4132","5"],
    [7558,"HCEP03730564","2023-12-16 01:45:00","11.9333","3.53848","24.144","1.986","7.49","0.443","3.829","0","0","30.581","4.79036","22.3","0","SATNPRO1963","29.5","0.4132","5"],
    [7559,"HCEP03730564","2023-12-16 02:00:00","11.9329","3.53834","24.297","1.977","7.49","0.443","3.829","0","0","30.58","4.79023","22.2","0","SATNPRO1963","29.080000000000002","0.40736","5"],
    [7560,"HCEP03730564","2023-12-16 02:15:00","11.9324","3.53821","24.427","1.974","7.49","0.443","3.829","0","0","30.5791","4.79012","22.16","0","SATNPRO1963","29.154","0.40832","5"],
    [7561,"HCEP03730564","2023-12-16 02:30:00","11.9322","3.53813","24.608","1.973","7.49","0.443","3.829","0","0","30.5784","4.79003","22.16","0","SATNPRO1963","28.994","0.40614","5"],
    [7562,"HCEP03730564","2023-12-16 02:45:00","11.9313","3.53789","24.809","1.967","7.49","0.443","3.829","0","0","30.5768","4.78984","22.08","0","SATNPRO1963","28.954","0.40556","5"],
    [7563,"HCEP03730564","2023-12-16 03:00:00","11.9311","3.53786","24.992","1.971","7.48","0.443","3.829","0","0","30.5765","4.7898","22.13","0","SATNPRO1963","28.896","0.40472","5"],
    [7564,"HCEP03730564","2023-12-16 03:15:00","11.9298","3.53759","25.196","1.969","7.49","0.443","3.829","0","0","30.575","4.78962","22.11","0","SATNPRO1963","28.782","0.40314","5"],
    [7565,"HCEP03730564","2023-12-16 03:30:00","11.9274","3.53703","25.435","1.976","7.48","0.443","3.829","0","0","30.5715","4.78918","22.18","0","SATNPRO1963","28.842","0.404","5"],
    [7566,"HCEP03730564","2023-12-16 03:45:00","11.9256","3.53664","25.673","1.976","7.49","0.443","3.829","0","0","30.5691","4.78887","22.19","0","SATNPRO1963","28.812","0.40356","5"],
    [7567,"HCEP03730564","2023-12-16 04:00:00","11.9233","3.53606","25.896","1.973","7.49","0.443","3.829","0","0","30.5654","4.7884","22.14","0","SATNPRO1963","28.914","0.40496","5"],
    [7568,"HCEP03730564","2023-12-16 04:15:00","11.9227","3.53602","26.131","1.959","7.48","0.443","3.829","0","0","30.5654","4.78841","21.99","0","SATNPRO1963","28.848","0.40408","5"],
    [7569,"HCEP03730564","2023-12-16 04:30:00","11.9227","3.53601","26.365","1.96","7.48","0.443","3.829","0","0","30.5651","4.78839","22.01","0","SATNPRO1963","28.978","0.40592","5"],
    [7570,"HCEP03730564","2023-12-16 04:45:00","11.9229","3.53598","26.617","1.965","7.48","0.443","3.829","0","0","30.5646","4.78833","22.06","0","SATNPRO1963","28.61","0.4007","5"],
    [7571,"HCEP03730564","2023-12-16 05:00:00","11.923400000000001","3.53613","26.838","1.962","7.48","0.443","3.829","0","0","30.5656","4.78846","22.03","0","SATNPRO1963","28.81","0.40354","5"],
    [7572,"HCEP03730564","2023-12-16 05:15:00","11.9228","3.53602","27.04","1.962","7.48","0.443","3.829","0","0","30.5649","4.7884","22.02","0","SATNPRO1963","28.966","0.40568","5"],
    [7573,"HCEP03730564","2023-12-16 05:30:00","11.9238","3.53624","27.247","1.954","7.48","0.443","3.829","0","0","30.5662","4.78857","21.93","0","SATNPRO1963","28.628","0.40098","5"],
    [7574,"HCEP03730564","2023-12-16 05:45:00","11.9244","3.53635","27.45","1.943","7.48","0.443","3.829","0","0","30.5666","4.78863","21.81","0","SATNPRO1963","28.678","0.4017","5"],
    [7575,"HCEP03730564","2023-12-16 06:00:00","11.9254","3.53664","27.647","1.941","7.48","0.443","3.829","0","0","30.5685","4.7889","21.79","0","SATNPRO1963","28.826","0.40372","5"],
    [7576,"HCEP03730564","2023-12-16 06:15:00","11.9277","3.5371","27.822","1.93","7.48","0.443","3.829","0","0","30.571","4.78923","21.67","0","SATNPRO1963","28.808","0.40352","5"],
    [7577,"HCEP03730564","2023-12-16 06:30:00","11.9294","3.53749","27.878","1.93","7.48","0.443","3.829","0","0","30.5733","4.78953","21.67","0","SATNPRO1963","28.742","0.40258","5"],
    [7578,"HCEP03730564","2023-12-16 06:45:00","11.9301","3.53768","27.879","1.941","7.48","0.443","3.829","0","0","30.5746","4.7897","21.79","0","SATNPRO1963","28.81","0.40352","5"],
    [7579,"HCEP03730564","2023-12-16 07:00:00","11.9311","3.53798","28.021","1.944","7.48","0.443","3.829","0","0","30.5765","4.78997","21.83","0","SATNPRO1963","28.898","0.40478","5"],
    [7580,"HCEP03730564","2023-12-16 07:15:00","11.9316","3.538","28.139","1.947","7.48","0.443","3.829","0","0","30.5763","4.78994","21.86","0","SATNPRO1963","28.702","0.40204","5"],
    [7581,"HCEP03730564","2023-12-16 07:30:00","11.9317","3.53815","28.215","1.959","7.48","0.443","3.829","0","0","30.5776","4.79012","21.99","0","SATNPRO1963","28.426","0.39816","5"],
    [7582,"HCEP03730564","2023-12-16 07:45:00","11.9322","3.5382","28.266","1.965","7.48","0.443","3.829","0","0","30.5777","4.79013","22.07","0","SATNPRO1963","28.752","0.40276","5"],
    [7583,"HCEP03730564","2023-12-16 08:00:00","11.9319","3.53818","28.295","1.978","7.49","0.443","3.829","0","0","30.5778","4.79015","22.21","0","SATNPRO1963","28.69","0.4019","5"],
    [7584,"HCEP03730564","2023-12-16 08:15:00","11.9343","3.53895","28.33","2.004","7.49","0.443","3.829","0","0","30.5832","4.79088","22.5","0","SATNPRO1963","28.726","0.40234","5"],
    [7585,"HCEP03730564","2023-12-16 08:30:00","11.9375","3.53979","28.31","2.056","7.49","0.443","3.829","0","0","30.5886","4.7916","23.09","0","SATNPRO1963","28.842","0.40396","5"],
    [7586,"HCEP03730564","2023-12-16 08:45:00","11.9398","3.54048","28.29","2.112","7.49","0.443","3.829","0","0","30.5933","4.79223","23.72","0","SATNPRO1963","28.818","0.40366","5"],
    [7587,"HCEP03730564","2023-12-16 09:00:00","11.9409","3.54087","28.263","2.172","7.49","0.443","3.829","0","0","30.5961","4.79261","24.39","0","SATNPRO1963","28.862000000000002","0.40428","5"],
    [7588,"HCEP03730564","2023-12-16 09:15:00","11.9412","3.54109","28.221","2.228","7.5","0.25","5.211","0","0","30.5981","4.79288","25.03","2","SATNPRO1963","29.154","0.40836","5"],
    [7589,"HCEP03730564","2023-12-16 09:30:00","11.9418","3.54129","28.174","2.267","7.5","0.25","5.211","0","0","30.5995","4.79306","25.47","0","SATNPRO1963","29.352","0.4111","5"],
    [7590,"HCEP03730564","2023-12-16 09:45:00","11.9419","3.54135","28.104","2.289","7.51","0.25","5.211","0","0","30.6","4.79313","25.71","0","SATNPRO1963","29.634","0.41508","5"],
    [7591,"HCEP03730564","2023-12-16 10:00:00","11.9428","3.54154","28.02","2.3","7.51","0.215","4.639","0","0","30.6011","4.79328","25.83","2","SATNPRO1963","29.852","0.41814","5"],
    [7592,"HCEP03730564","2023-12-16 10:15:00","11.9428","3.54157","27.94","2.305","7.51","0.231","4.594","0","0.47","30.6014","4.79332","25.89","2","SATNPRO1963","30.018","0.42044","5"],
    [7593,"HCEP03730564","2023-12-16 10:30:00","11.9422","3.54149","27.854","2.307","7.51","0.231","4.594","0","0.47","30.6012","4.79328","25.91","0","SATNPRO1963","30.38","0.4255","5"],
    [7594,"HCEP03730564","2023-12-16 10:45:00","11.942","3.54145","27.765","2.309","7.51","0.231","4.594","0","0.47","30.601","4.79326","25.94","0","SATNPRO1963","30.266000000000002","0.42392","5"],
    [7595,"HCEP03730564","2023-12-16 11:00:00","11.9416","3.54137","27.672","2.299","7.51","0.231","4.594","0","0.47","30.6007","4.79321","25.83","0","SATNPRO1963","30.376","0.42544","5"],
    [7596,"HCEP03730564","2023-12-16 11:15:00","11.9418","3.54143","27.579","2.286","7.51","0.231","4.594","0","0.47","30.6011","4.79326","25.68","0","SATNPRO1963","30.439999999999998","0.42638","5"],
    [7597,"HCEP03730564","2023-12-16 11:30:00","11.942","3.54149","27.483","2.279","7.51","0.231","4.594","0","0.47","30.6014","4.7933","25.6","0","SATNPRO1963","30.376","0.42546","5"],
    [7598,"HCEP03730564","2023-12-16 11:45:00","11.9423","3.54144","27.398","2.265","7.51","0.231","4.594","0","0.47","30.6008","4.7932","25.44","0","SATNPRO1963","30.308","0.42454","5"],
    [7599,"HCEP03730564","2023-12-16 12:00:00","11.943","3.54171","27.301","2.251","7.51","0.231","4.594","0","0.47","30.6029","4.79349","25.29","0","SATNPRO1963","30.402","0.42584","5"],
    [7600,"HCEP03730564","2023-12-16 12:15:00","11.9435","3.54184","27.197","2.245","7.51","0.231","4.594","0","0.47","30.6038","4.7936","25.22","0","SATNPRO1963","30.4","0.42582","5"],
    [7601,"HCEP03730564","2023-12-16 12:30:00","11.9435","3.54189","27.102","2.228","7.5","0.231","4.594","0","0.47","30.6042","4.79365","25.03","0","SATNPRO1963","30.33","0.42482","5"],
    [7602,"HCEP03730564","2023-12-16 12:45:00","11.9439","3.54196","27.016","2.22","7.5","0.231","4.594","0","0.47","30.6047","4.79371","24.93","0","SATNPRO1963","30.206","0.4231","5"],
    [7603,"HCEP03730564","2023-12-16 13:00:00","11.9443","3.54206","26.931","2.199","7.5","0.231","4.594","0","0.47","30.6052","4.79378","24.7","0","SATNPRO1963","30.032","0.42064","5"],
    [7604,"HCEP03730564","2023-12-16 13:15:00","11.9449","3.54216","26.858","2.166","7.5","0.231","4.594","0","0.47","30.6057","4.79383","24.33","0","SATNPRO1963","30.032","0.42062","5"],
    [7605,"HCEP03730564","2023-12-16 13:30:00","11.9453","3.54228","26.815","2.146","7.5","0.231","4.594","0","0.47","30.6066","4.79395","24.11","0","SATNPRO1963","30.092","0.4215","5"],
    [7606,"HCEP03730564","2023-12-16 13:45:00","11.9449","3.54219","26.774","2.15","7.49","0.231","4.594","0","0.47","30.6061","4.79389","24.15","0","SATNPRO1963","30.134","0.42206","5"],
    [7607,"HCEP03730564","2023-12-16 14:00:00","11.9442","3.54204","26.772","2.159","7.49","0.231","4.594","0","0.47","30.6053","4.79378","24.25","0","SATNPRO1963","29.919999999999998","0.41912","5"],
    [7608,"HCEP03730564","2023-12-16 14:15:00","11.9446","3.54214","26.782","2.157","7.5","0.231","4.594","0","0.47","30.6059","4.79386","24.23","0","SATNPRO1963","29.830000000000002","0.41776","5"],
    [7609,"HCEP03730564","2023-12-16 14:30:00","11.9449","3.54222","26.804","2.13","7.49","0.231","4.594","0","0.47","30.6064","4.79392","23.93","0","SATNPRO1963","29.854","0.41812","5"],
    [7610,"HCEP03730564","2023-12-16 14:45:00","11.9448","3.54214","26.834","2.098","7.49","0.231","4.594","0","0.47","30.6057","4.79383","23.57","0","SATNPRO1963","29.934","0.41928","5"],
    [7611,"HCEP03730564","2023-12-16 15:00:00","11.9439","3.54193","26.858","2.142","7.49","0.231","4.594","0","0.47","30.6043","4.79365","24.07","0","SATNPRO1963","29.85","0.41812","5"],
    [7612,"HCEP03730564","2023-12-16 15:15:00","11.9437","3.54193","26.912","2.164","7.5","0.231","4.594","0","0.47","30.6045","4.79367","24.31","0","SATNPRO1963","30.002","0.4202","5"],
    [7613,"HCEP03730564","2023-12-16 15:30:00","11.944","3.54194","26.978","2.158","7.5","0.231","4.594","0","0.47","30.6044","4.79367","24.24","0","SATNPRO1963","29.672","0.41562","5"],
    [7614,"HCEP03730564","2023-12-16 15:45:00","11.944","3.54196","27.057","2.149","7.5","0.231","4.594","0","0.47","30.6045","4.79368","24.14","0","SATNPRO1963","29.448","0.4125","5"],
    [7615,"HCEP03730564","2023-12-16 16:00:00","11.9435","3.54181","27.113","2.165","7.5","0.231","4.594","0","0.47","30.6035","4.79356","24.32","0","SATNPRO1963","30.15","0.42232","5"],
    [7616,"HCEP03730564","2023-12-16 16:15:00","11.9432","3.54179","27.173","2.17","7.5","0.231","4.594","0","0.47","30.6035","4.79356","24.38","0","SATNPRO1963","29.582","0.41436","5"],
    [7617,"HCEP03730564","2023-12-16 16:30:00","11.9424","3.54164","27.244","2.185","7.5","0.231","4.594","0","0.47","30.6026","4.79345","24.54","0","SATNPRO1963","29.822","0.41772","5"],
    [7618,"HCEP03730564","2023-12-16 16:45:00","11.9419","3.54149","27.316","2.23","7.5","0.231","4.594","0","0.47","30.6016","4.79332","25.05","0","SATNPRO1963","30.256","0.42378","5"],
    [7619,"HCEP03730564","2023-12-16 17:00:00","11.9416","3.54148","27.35","2.231","7.5","0.231","4.594","0","0.47","30.6018","4.79335","25.06","0","SATNPRO1963","30.631999999999998","0.42904","5"],
    [7620,"HCEP03730564","2023-12-16 17:15:00","11.9415","3.54144","27.424","2.213","7.5","0.231","4.594","0","0.47","30.6014","4.7933","24.85","0","SATNPRO1963","29.97","0.41976","5"],
    [7621,"HCEP03730564","2023-12-16 17:30:00","11.9402","3.54107","27.452","2.209","7.5","0.231","4.594","0","0.47","30.5989","4.79297","24.81","0","SATNPRO1963","30.69","0.42986","5"],
    [7622,"HCEP03730564","2023-12-16 17:45:00","11.9393","3.54089","27.462","2.248","7.5","0.231","4.594","0","0.47","30.5979","4.79284","25.25","0","SATNPRO1963","30.364","0.42528","5"],
    [7623,"HCEP03730564","2023-12-16 18:00:00","11.9387","3.54077","27.508","2.243","7.5","0.231","4.594","0","0.47","30.5973","4.79277","25.2","0","SATNPRO1963","30.194","0.42294","5"],
    [7624,"HCEP03730564","2023-12-16 18:15:00","11.9381","3.54071","27.532","2.221","7.5","0.231","4.594","0","0.47","30.5972","4.79276","24.95","0","SATNPRO1963","30.052","0.42094","5"],
    [7625,"HCEP03730564","2023-12-16 18:30:00","11.9389","3.54087","27.535","2.207","7.5","0.231","4.594","0","0.47","30.598","4.79286","24.79","0","SATNPRO1963","30.022","0.42052","5"],
    [7626,"HCEP03730564","2023-12-16 18:45:00","11.9385","3.54094","27.505","2.261","7.5","0.231","4.594","0","0.47","30.5991","4.79302","25.39","0","SATNPRO1963","30.548","0.4279","5"],
    [7627,"HCEP03730564","2023-12-16 19:00:00","11.938","3.54091","27.467","2.317","7.51","0.231","4.594","0","0.47","30.5992","4.79304","26.03","0","SATNPRO1963","30.346","0.42502","5"],
    [7628,"HCEP03730564","2023-12-16 19:15:00","11.9383","3.54095","27.403","2.327","7.51","0.231","4.594","0","0.47","30.5994","4.79306","26.14","0","SATNPRO1963","29.71","0.4161","5"],
    [7629,"HCEP03730564","2023-12-16 19:30:00","11.9378","3.54088","27.327","2.329","7.51","0.231","4.594","0","0.47","30.5991","4.79302","26.15","0","SATNPRO1963","30.18","0.42272","5"],
    [7630,"HCEP03730564","2023-12-16 19:45:00","11.9375","3.54079","27.258","2.348","7.51","0.231","4.594","0","0.47","30.5986","4.79295","26.38","0","SATNPRO1963","30.412","0.42596","5"],
    [7631,"HCEP03730564","2023-12-16 20:00:00","11.9363","3.54054","27.149","2.358","7.51","0.231","4.594","0","0.47","30.5972","4.79277","26.48","0","SATNPRO1963","30.428","0.42622","5"],
    [7632,"HCEP03730564","2023-12-16 20:15:00","11.9363","3.54048","27.021","2.385","7.51","0.231","4.594","0","0.47","30.5966","4.79268","26.79","0","SATNPRO1963","30.492","0.4271","5"],
    [7633,"HCEP03730564","2023-12-16 20:30:00","11.9357","3.54036","26.873","2.378","7.51","0.231","4.594","0","0.47","30.5961","4.79261","26.71","0","SATNPRO1963","30.524","0.42756","5"],
    [7634,"HCEP03730564","2023-12-16 20:45:00","11.9357","3.54029","26.731","2.356","7.51","0.231","4.594","0","0.47","30.5954","4.7925","26.46","0","SATNPRO1963","30.48","0.42694","5"],
    [7635,"HCEP03730564","2023-12-16 21:00:00","11.9344","3.53982","26.632","2.326","7.51","0.231","4.594","0","0.47","30.592","4.79203","26.13","0","SATNPRO1963","30.63","0.429","5"],
    [7636,"HCEP03730564","2023-12-16 21:15:00","11.9342","3.53964","26.416","2.289","7.51","0.231","4.594","0","0.47","30.5906","4.79182","25.71","0","SATNPRO1963","30.62","0.4289","5"],
    [7637,"HCEP03730564","2023-12-16 21:30:00","11.934","3.53954","26.227","2.248","7.51","0.231","4.594","0","0.47","30.5898","4.7917","25.24","0","SATNPRO1963","30.682","0.42978","5"],
    [7638,"HCEP03730564","2023-12-16 21:45:00","11.9346","3.53959","26.003","2.189","7.51","0.231","4.594","0","0.47","30.5899","4.79169","24.59","0","SATNPRO1963","30.584","0.4284","5"],
    [7639,"HCEP03730564","2023-12-16 22:00:00","11.9345","3.5394","25.74","2.126","7.5","0.231","4.594","0","0.47","30.5882","4.79145","23.88","0","SATNPRO1963","30.402","0.42582","5"],
    [7640,"HCEP03730564","2023-12-16 22:15:00","11.9342","3.53922","25.496","2.064","7.5","0.231","4.594","0","0.47","30.587","4.79126","23.18","0","SATNPRO1963","30.426000000000002","0.42616","5"],
    [7641,"HCEP03730564","2023-12-16 22:30:00","11.9323","3.53865","25.305","2.02","7.49","0.231","4.594","0","0.47","30.583","4.79072","22.68","0","SATNPRO1963","30.106","0.4217","5"],
    [7642,"HCEP03730564","2023-12-16 22:45:00","11.9313","3.5384","25.05","1.994","7.49","0.231","4.594","0","0.47","30.5816","4.79051","22.39","0","SATNPRO1963","29.822","0.4177","5"],
    [7643,"HCEP03730564","2023-12-16 23:00:00","11.9296","3.53794","24.867","1.972","7.49","0.231","4.594","0","0.47","30.5786","4.79012","22.14","0","SATNPRO1963","29.646","0.41526","5"],
    [7644,"HCEP03730564","2023-12-16 23:15:00","11.9286","3.53772","24.614","1.953","7.48","0.231","4.594","0","0.47","30.5775","4.78995","21.93","0","SATNPRO1963","29.42","0.41206","5"],
    [7645,"HCEP03730564","2023-12-16 23:30:00","11.9282","3.53751","24.431","1.947","7.48","0.231","4.594","0","0.47","30.5759","4.78972","21.85","0","SATNPRO1963","29.136","0.4081","5"],
    [7646,"HCEP03730564","2023-12-16 23:45:00","11.9282","3.53757","24.248","1.936","7.48","0.231","4.594","0","0.47","30.5764","4.78979","21.74","0","SATNPRO1963","28.986","0.40602","5"],
    [7647,"HCEP03730564","2023-12-17 00:00:00","11.9273","3.53745","24.091","1.933","7.48","0.231","4.594","0","0.47","30.5761","4.78975","21.7","0","SATNPRO1963","29.068","0.40712","5"],
    [7648,"HCEP03730564","2023-12-17 00:15:00","11.9263","3.53718","23.964","1.926","7.48","0.231","4.594","0","0.47","30.5744","4.78951","21.63","0","SATNPRO1963","29.142","0.4082","5"],
    [7649,"HCEP03730564","2023-12-17 00:30:00","11.9257","3.537","23.857","1.917","7.48","0.231","4.594","0","0.47","30.5733","4.78935","21.52","0","SATNPRO1963","28.992","0.40612","5"],
    [7650,"HCEP03730564","2023-12-17 00:45:00","11.925","3.53685","23.812","1.907","7.48","0.231","4.594","0","0.47","30.5724","4.78924","21.41","0","SATNPRO1963","28.84","0.40398","5"],
    [7651,"HCEP03730564","2023-12-17 01:00:00","11.925","3.53687","23.792","1.91","7.48","0.231","4.594","0","0.47","30.5726","4.78926","21.44","0","SATNPRO1963","29.026","0.40656","5"],
    [7652,"HCEP03730564","2023-12-17 01:15:00","11.9254","3.53692","23.79","1.914","7.48","0.231","4.594","0","0.47","30.5727","4.78928","21.49","0","SATNPRO1963","28.814","0.40362","5"],
    [7653,"HCEP03730564","2023-12-17 01:30:00","11.9252","3.53688","23.811","1.911","7.48","0.231","4.594","0","0.47","30.5726","4.78926","21.45","0","SATNPRO1963","28.966","0.40572","5"],
    [7654,"HCEP03730564","2023-12-17 01:45:00","11.9253","3.53693","23.943","1.902","7.48","0.231","4.594","0","0.47","30.5729","4.78931","21.36","0","SATNPRO1963","28.402","0.3978","5"],
    [7655,"HCEP03730564","2023-12-17 02:00:00","11.9244","3.53673","24.065","1.906","7.48","0.231","4.594","0","0.47","30.5717","4.78916","21.4","0","SATNPRO1963","29.105999999999998","0.40768","5"],
    [7656,"HCEP03730564","2023-12-17 02:15:00","11.9235","3.53652","24.194","1.913","7.48","0.231","4.594","0","0.47","30.5703","4.78898","21.47","0","SATNPRO1963","29.164","0.4085","5"],
    [7657,"HCEP03730564","2023-12-17 02:30:00","11.9228","3.53636","24.297","1.917","7.48","0.231","4.594","0","0.47","30.5693","4.78886","21.52","0","SATNPRO1963","29.052","0.40692","5"],
    [7658,"HCEP03730564","2023-12-17 02:45:00","11.9221","3.53623","24.434","1.916","7.48","0.231","4.594","0","0.47","30.5686","4.78878","21.51","0","SATNPRO1963","29.012","0.40634","5"],
    [7659,"HCEP03730564","2023-12-17 03:00:00","11.9212","3.53601","24.543","1.914","7.48","0.231","4.594","0","0.47","30.5671","4.78858","21.49","0","SATNPRO1963","28.884","0.40456","5"],
    [7660,"HCEP03730564","2023-12-17 03:15:00","11.921","3.53592","24.654","1.902","7.48","0.231","4.594","0","0.47","30.5664","4.78849","21.36","0","SATNPRO1963","29.018","0.40646","5"],
    [7661,"HCEP03730564","2023-12-17 03:30:00","11.9211","3.53594","24.842","1.893","7.48","0.231","4.594","0","0.47","30.5664","4.78851","21.25","0","SATNPRO1963","29.035999999999998","0.40672","5"],
    [7662,"HCEP03730564","2023-12-17 03:45:00","11.9208","3.53588","25.067","1.865","7.48","0.231","4.594","0","0.47","30.5661","4.78847","20.94","0","SATNPRO1963","29.009999999999998","0.40632","5"],
    [7663,"HCEP03730564","2023-12-17 04:00:00","11.9219","3.53609","25.278","1.842","7.47","0.231","4.594","0","0.47","30.567","4.78861","20.68","0","SATNPRO1963","28.958","0.40562","5"],
    [7664,"HCEP03730564","2023-12-17 04:15:00","11.9216","3.53605","25.472","1.835","7.47","0.231","4.594","0","0.47","30.5668","4.78859","20.6","0","SATNPRO1963","28.782","0.40314","5"],
    [7665,"HCEP03730564","2023-12-17 04:30:00","11.9217","3.53604","25.698","1.825","7.47","0.231","4.594","0","0.47","30.5666","4.78857","20.48","0","SATNPRO1963","28.694","0.40192","5"],
    [7666,"HCEP03730564","2023-12-17 04:45:00","11.9214","3.53595","25.927","1.828","7.47","0.231","4.594","0","0.47","30.5659","4.78849","20.52","0","SATNPRO1963","28.75","0.40272","5"],
    [7667,"HCEP03730564","2023-12-17 05:00:00","11.9214","3.53595","26.131","1.833","7.47","0.231","4.594","0","0.47","30.5658","4.78849","20.58","0","SATNPRO1963","28.654","0.40138","5"],
    [7668,"HCEP03730564","2023-12-17 05:15:00","11.9218","3.536","26.365","1.826","7.47","0.231","4.594","0","0.47","30.5658","4.7885","20.5","0","SATNPRO1963","28.508","0.39928","5"],
    [7669,"HCEP03730564","2023-12-17 05:30:00","11.9215","3.536","26.593","1.822","7.47","0.231","4.594","0","0.47","30.5659","4.78852","20.45","0","SATNPRO1963","28.384","0.39754","5"],
    [7670,"HCEP03730564","2023-12-17 05:45:00","11.9212","3.53596","26.8","1.82","7.47","0.231","4.594","0","0.47","30.5658","4.78853","20.43","0","SATNPRO1963","28.592","0.40044","5"],
    [7671,"HCEP03730564","2023-12-17 06:00:00","11.9211","3.53596","27.007","1.817","7.47","0.231","4.594","0","0.47","30.5658","4.78853","20.4","0","SATNPRO1963","28.314","0.39656","5"],
    [7672,"HCEP03730564","2023-12-17 06:15:00","11.9213","3.53598","27.202","1.818","7.47","0.231","4.594","0","0.47","30.5658","4.78854","20.4","0","SATNPRO1963","28.634","0.40108","5"],
    [7673,"HCEP03730564","2023-12-17 06:30:00","11.9215","3.53605","27.399","1.82","7.47","0.231","4.594","0","0.47","30.5661","4.7886","20.43","0","SATNPRO1963","28.522","0.39948","5"],
    [7674,"HCEP03730564","2023-12-17 06:45:00","11.9214","3.53603","27.553","1.816","7.47","0.231","4.594","0","0.47","30.566","4.78859","20.39","0","SATNPRO1963","28.727999999999998","0.40238","5"],
    [7675,"HCEP03730564","2023-12-17 07:00:00","11.9211","3.53595","27.7","1.809","7.47","0.231","4.594","0","0.47","30.5654","4.78852","20.31","0","SATNPRO1963","28.726","0.40238","5"],
    [7676,"HCEP03730564","2023-12-17 07:15:00","11.9207","3.53594","27.816","1.805","7.47","0.231","4.594","0","0.47","30.5656","4.78856","20.26","0","SATNPRO1963","28.488","0.39904","5"],
    [7677,"HCEP03730564","2023-12-17 07:30:00","11.9213","3.53603","27.991","1.811","7.47","0.231","4.594","0","0.47","30.5659","4.78861","20.33","0","SATNPRO1963","28.454","0.39852","5"],
    [7678,"HCEP03730564","2023-12-17 07:45:00","11.9216","3.5362","28.092","1.818","7.47","0.231","4.594","0","0.47","30.5672","4.7888","20.41","0","SATNPRO1963","28.544","0.3998","5"],
    [7679,"HCEP03730564","2023-12-17 08:00:00","11.9226","3.53643","28.066","1.824","7.47","0.231","4.594","0","0.47","30.5686","4.78898","20.47","0","SATNPRO1963","28.934","0.40526","5"],
    [7680,"HCEP03730564","2023-12-17 08:15:00","11.9229","3.53645","28.103","1.831","7.47","0.231","4.594","0","0.47","30.5686","4.78897","20.56","0","SATNPRO1963","28.504","0.3992","5"],
    [7681,"HCEP03730564","2023-12-17 08:30:00","11.9239","3.53674","28.154","1.836","7.47","0.231","4.594","0","0.47","30.5705","4.78922","20.61","0","SATNPRO1963","28.364","0.39724","5"],
    [7682,"HCEP03730564","2023-12-17 08:45:00","11.925","3.53702","28.232","1.837","7.47","0.231","4.594","0","0.47","30.5723","4.78947","20.62","0","SATNPRO1963","28.576","0.40022","5"],
    [7683,"HCEP03730564","2023-12-17 09:00:00","11.9261","3.53727","28.246","1.84","7.47","0.231","4.594","0","0.47","30.5738","4.78966","20.66","0","SATNPRO1963","28.41","0.39788","5"],
    [7684,"HCEP03730564","2023-12-17 09:15:00","11.9265","3.53735","28.252","1.845","7.47","0.231","4.594","0","0.47","30.5742","4.78972","20.71","0","SATNPRO1963","28.578","0.4003","5"],
    [7685,"HCEP03730564","2023-12-17 09:30:00","11.9256","3.53729","28.222","1.886","7.47","0.231","4.594","0","0.47","30.5744","4.78975","21.18","0","SATNPRO1963","28.538","0.39972","5"],
    [7686,"HCEP03730564","2023-12-17 09:45:00","11.9239","3.53703","28.212","1.939","7.47","0.231","4.594","0","0.47","30.5733","4.78962","21.77","0","SATNPRO1963","28.646","0.40126","5"],
    [7687,"HCEP03730564","2023-12-17 10:00:00","11.922","3.53713","28.155","1.967","7.48","0.231","4.594","0","0.47","30.5758","4.79","22.08","0","SATNPRO1963","28.732","0.40244","5"],
    [7688,"HCEP03730564","2023-12-17 10:15:00","11.9221","3.53718","28.12","2","7.48","0.231","4.594","0","0.47","30.5762","4.79006","22.45","0","SATNPRO1963","28.776","0.40304","5"],
    [7689,"HCEP03730564","2023-12-17 10:30:00","11.9216","3.53699","28.044","2.05","7.48","0.231","4.594","0","0.47","30.5748","4.78987","23.01","0","SATNPRO1963","28.824","0.40372","5"],
    [7690,"HCEP03730564","2023-12-17 10:45:00","11.9214","3.53692","27.953","2.075","7.49","0.231","4.594","0","0.47","30.5743","4.78979","23.29","0","SATNPRO1963","28.932000000000002","0.40528","5"],
    [7691,"HCEP03730564","2023-12-17 11:00:00","11.9221","3.53709","27.875","2.08","7.49","0.231","4.594","0","0.47","30.5754","4.78993","23.35","0","SATNPRO1963","29.04","0.40678","5"],
    [7692,"HCEP03730564","2023-12-17 11:15:00","11.924","3.53754","27.778","2.07","7.49","0.231","4.594","0","0.47","30.5782","4.7903","23.24","0","SATNPRO1963","29.282","0.41014","5"],
    [7693,"HCEP03730564","2023-12-17 11:30:00","11.9255","3.538","27.685","2.051","7.49","0.231","4.594","0","0.47","30.5815","4.79073","23.03","0","SATNPRO1963","29.36","0.41126","5"],
    [7694,"HCEP03730564","2023-12-17 11:45:00","11.9273","3.53839","27.567","2.039","7.49","0.231","4.594","0","0.47","30.5838","4.79103","22.89","0","SATNPRO1963","29.72","0.41628","5"],
    [7695,"HCEP03730564","2023-12-17 12:00:00","11.9306","3.53917","27.481","2.025","7.49","0.231","4.594","0","0.47","30.5886","4.79165","22.74","0","SATNPRO1963","29.578","0.41428","5"],
    [7696,"HCEP03730564","2023-12-17 12:15:00","11.9322","3.53961","27.381","2.002","7.48","0.231","4.594","0","0.47","30.5915","4.79203","22.48","0","SATNPRO1963","29.266000000000002","0.40994","5"],
    [7697,"HCEP03730564","2023-12-17 12:30:00","11.933","3.53984","27.267","1.987","7.48","0.231","4.594","0","0.47","30.5931","4.79224","22.31","0","SATNPRO1963","29.416","0.41202","5"],
    [7698,"HCEP03730564","2023-12-17 12:45:00","11.933","3.53984","27.136","1.977","7.48","0.224","4.359","0","0","30.5931","4.79224","22.2","2","SATNPRO1963","29.484","0.41296","5"],
    [7699,"HCEP03730564","2023-12-17 13:00:00","11.9338","3.54004","27.024","1.964","7.48","0.224","4.359","0","0","30.5945","4.79242","22.05","0","SATNPRO1963","29.451999999999998","0.41256","5"],
    [7700,"HCEP03730564","2023-12-17 13:15:00","11.9353","3.54037","26.907","1.959","7.48","0.224","4.359","0","0","30.5965","4.79266","22.01","0","SATNPRO1963","29.222","0.40932","5"],
    [7701,"HCEP03730564","2023-12-17 13:30:00","11.935","3.54035","26.814","1.969","7.48","0.224","4.359","0","0","30.5965","4.79267","22.11","0","SATNPRO1963","29.33","0.41082","5"],
    [7702,"HCEP03730564","2023-12-17 13:45:00","11.9349","3.54028","26.724","1.983","7.48","0.224","4.359","0","0","30.5961","4.7926","22.27","0","SATNPRO1963","29.268","0.40994","5"],
    [7703,"HCEP03730564","2023-12-17 14:00:00","11.9355","3.54042","26.659","1.985","7.48","0.224","4.359","0","0","30.5969","4.79271","22.29","0","SATNPRO1963","29.304","0.41044","5"],
    [7704,"HCEP03730564","2023-12-17 14:15:00","11.9353","3.54048","26.607","2.002","7.48","0.224","4.359","0","0","30.5976","4.7928","22.48","0","SATNPRO1963","29.43","0.41224","5"],
    [7705,"HCEP03730564","2023-12-17 14:30:00","11.9356","3.54051","26.55","2.016","7.48","0.224","4.359","0","0","30.5978","4.79282","22.64","0","SATNPRO1963","29.637999999999998","0.41516","5"],
    [7706,"HCEP03730564","2023-12-17 14:45:00","11.9369","3.54069","26.533","2.017","7.48","0.224","4.359","0","0","30.5984","4.79289","22.66","0","SATNPRO1963","29.518","0.41348","5"],
    [7707,"HCEP03730564","2023-12-17 15:00:00","11.9351","3.54044","26.528","2.053","7.49","0.224","4.359","0","0","30.5974","4.79278","23.06","0","SATNPRO1963","29.526","0.41356","5"],
    [7708,"HCEP03730564","2023-12-17 15:15:00","11.9367","3.54083","26.55","2.046","7.49","0.224","4.359","0","0","30.5999","4.79311","22.98","0","SATNPRO1963","29.672","0.41562","5"],
    [7709,"HCEP03730564","2023-12-17 15:30:00","11.9371","3.54094","26.585","2.029","7.49","0.224","4.359","0","0","30.6006","4.7932","22.79","0","SATNPRO1963","29.38","0.41154","5"],
    [7710,"HCEP03730564","2023-12-17 15:45:00","11.9368","3.54099","26.605","2.042","7.49","0.224","4.359","0","0","30.6013","4.79331","22.93","0","SATNPRO1963","29.548000000000002","0.41388","5"],
    [7711,"HCEP03730564","2023-12-17 16:00:00","11.9368","3.54098","26.631","2.056","7.48","0.224","4.359","0","0","30.6012","4.7933","23.09","0","SATNPRO1963","29.594","0.41452","5"],
    [7712,"HCEP03730564","2023-12-17 16:15:00","11.9354","3.54076","26.676","2.078","7.48","0.224","4.359","0","0","30.6002","4.79318","23.34","0","SATNPRO1963","29.704","0.41608","5"],
    [7713,"HCEP03730564","2023-12-17 16:30:00","11.9361","3.54092","26.73","2.102","7.49","0.224","4.359","0","0","30.6012","4.79331","23.61","0","SATNPRO1963","29.548000000000002","0.41386","5"],
    [7714,"HCEP03730564","2023-12-17 16:45:00","11.9372","3.54115","26.771","2.087","7.49","0.224","4.359","0","0","30.6025","4.79347","23.44","0","SATNPRO1963","29.6","0.4146","5"],
    [7715,"HCEP03730564","2023-12-17 17:00:00","11.9383","3.54136","26.822","2.062","7.49","0.194","4.501","0","0","30.6036","4.79362","23.16","2","SATNPRO1963","29.506","0.4133","5"],
    [7716,"HCEP03730564","2023-12-17 17:15:00","11.9394","3.54154","26.864","2.045","7.49","0.194","4.501","0","0","30.6044","4.79372","22.97","0","SATNPRO1963","30.028000000000002","0.4206","5"],
    [7717,"HCEP03730564","2023-12-17 17:30:00","11.9388","3.54147","26.92","2.048","7.48","0.194","4.501","0","0","30.6042","4.7937","23","0","SATNPRO1963","30.148","0.42228","5"],
    [7718,"HCEP03730564","2023-12-17 17:45:00","11.9388","3.54144","26.955","2.046","7.48","0.194","4.501","0","0","30.6039","4.79366","22.98","0","SATNPRO1963","29.64","0.41514","5"],
    [7719,"HCEP03730564","2023-12-17 18:00:00","11.9377","3.54117","26.997","2.038","7.48","0.213","3.653","0.04","0.2","30.6022","4.79344","22.89","2","SATNPRO1963","29.636","0.41512","5"],
    [7720,"HCEP03730564","2023-12-17 18:15:00","11.936","3.54087","27.068","2.062","7.48","0.219","3.495","0","0","30.6006","4.79325","23.16","2","SATNPRO1963","29.71","0.41614","5"],
    [7721,"HCEP03730564","2023-12-17 18:30:00","11.9344","3.54049","27.146","2.108","7.49","0.219","3.495","0","0","30.5983","4.79295","23.68","0","SATNPRO1963","29.816","0.41764","5"],
    [7722,"HCEP03730564","2023-12-17 18:45:00","11.9328","3.54026","27.221","2.142","7.49","0.219","3.495","0","0","30.5974","4.79285","24.05","0","SATNPRO1963","29.866","0.41832","5"],
    [7723,"HCEP03730564","2023-12-17 19:00:00","11.9313","3.53991","27.238","2.183","7.49","0.219","3.495","0","0","30.5952","4.79256","24.51","0","SATNPRO1963","29.44","0.41236","5"],
    [7724,"HCEP03730564","2023-12-17 19:15:00","11.9287","3.53988","27.222","2.26","7.49","0.219","3.495","0","0","30.5971","4.79286","25.38","0","SATNPRO1963","29.674","0.41566","5"],
    [7725,"HCEP03730564","2023-12-17 19:30:00","11.9314","3.54012","27.265","2.285","7.5","0.219","3.495","0","0","30.5971","4.79283","25.66","0","SATNPRO1963","29.934","0.41928","5"],
    [7726,"HCEP03730564","2023-12-17 19:45:00","11.9256","3.53977","27.221","2.304","7.5","0.219","3.495","0","0","30.5986","4.79312","25.87","0","SATNPRO1963","30.169999999999998","0.42258","5"],
    [7727,"HCEP03730564","2023-12-17 20:00:00","11.9269","3.53977","27.21","2.425","7.51","0.219","3.495","0","0","30.5975","4.79295","27.23","0","SATNPRO1963","30.272","0.424","5"],
    [7728,"HCEP03730564","2023-12-17 20:15:00","11.9285","3.53999","27.176","2.414","7.51","0.237","4.611","0","0","30.5983","4.79304","27.1","2","SATNPRO1963","30.086000000000002","0.42144","5"],
    [7729,"HCEP03730564","2023-12-17 20:30:00","11.9248","3.54013","27.061","2.52","7.51","0.237","4.611","0","0","30.6028","4.79371","28.3","0","SATNPRO1963","30.418","0.42604","5"],
    [7730,"HCEP03730564","2023-12-17 20:45:00","11.9273","3.54041","26.972","2.588","7.52","0.237","4.611","0","0","30.6034","4.79375","29.06","0","SATNPRO1963","30.434","0.42628","5"],
    [7731,"HCEP03730564","2023-12-17 21:00:00","11.9284","3.54069","26.887","2.587","7.52","0.237","4.611","0","0","30.6052","4.79399","29.05","0","SATNPRO1963","30.578","0.42828","5"],
    [7732,"HCEP03730564","2023-12-17 21:15:00","11.9284","3.54094","26.741","2.602","7.53","0.237","4.611","0","0","30.6077","4.79433","29.22","0","SATNPRO1963","30.31","0.42456","5"],
    [7733,"HCEP03730564","2023-12-17 21:30:00","11.9292","3.54102","26.627","2.606","7.53","0.237","4.611","0","0","30.6078","4.79434","29.27","0","SATNPRO1963","31.3","0.4384","5"],
    [7734,"HCEP03730564","2023-12-17 21:45:00","11.9291","3.54064","26.51","2.567","7.53","0.237","4.611","0","0","30.6043","4.79383","28.83","0","SATNPRO1963","31.232","0.43746","5"],
    [7735,"HCEP03730564","2023-12-17 22:00:00","11.9282","3.54025","26.361","2.534","7.53","0.176","3.472","0","0","30.6014","4.79343","28.46","2","SATNPRO1963","31.218","0.4373","5"],
    [7736,"HCEP03730564","2023-12-17 22:15:00","11.9283","3.53981","26.193","2.475","7.53","0.241","4.062","0","0","30.5971","4.79281","27.79","2","SATNPRO1963","31.406","0.4399","5"],
    [7737,"HCEP03730564","2023-12-17 22:30:00","11.9289","3.5392","26.078","2.311","7.52","0.185","4.007","0","0","30.5909","4.79192","25.95","2","SATNPRO1963","31.284","0.43818","5"],
    [7738,"HCEP03730564","2023-12-17 22:45:00","11.9288","3.53897","25.909","2.175","7.51","0.265","4.366","0.04","0","30.5888","4.79162","24.42","2","SATNPRO1963","31.218","0.43728","5"],
    [7739,"HCEP03730564","2023-12-17 23:00:00","11.9275","3.53834","25.664","2.07","7.5","0.2","4.085","0.01","0.02","30.5839","4.79092","23.25","2","SATNPRO1963","31.12","0.4359","5"],
    [7740,"HCEP03730564","2023-12-17 23:15:00","11.9256","3.53774","25.488","1.995","7.49","0.227","4.257","0.01","0.23","30.5798","4.79037","22.4","2","SATNPRO1963","30.812","0.43154","5"],
    [7741,"HCEP03730564","2023-12-17 23:30:00","11.9236","3.53725","25.256","1.944","7.49","0.209","4.46","0.02","0.21","30.5767","4.78995","21.82","2","SATNPRO1963","30.198","0.42298","5"],
    [7742,"HCEP03730564","2023-12-17 23:45:00","11.9212","3.53661","25.098","1.905","7.48","0.23","4.527","0.01","0.26","30.5727","4.78941","21.38","2","SATNPRO1963","29.916","0.41906","5"],
    [7743,"HCEP03730564","2023-12-18 00:00:00","11.9193","3.53604","24.874","1.879","7.48","0.279","7.53","0.07","5.05","30.5688","4.78887","21.09","2","SATNPRO1963","29.706","0.41604","5"],
    [7744,"HCEP03730564","2023-12-18 00:15:00","11.9158","3.53531","24.684","1.852","7.48","0.238","4.909","0.01","0.16","30.5647","4.78833","20.79","2","SATNPRO1963","29.364","0.41128","5"],
    [7745,"HCEP03730564","2023-12-18 00:30:00","11.9125","3.53447","24.531","1.838","7.48","0.217","4.433","0.02","0.31","30.5595","4.78764","20.63","2","SATNPRO1963","29.272","0.41002","5"],
    [7746,"HCEP03730564","2023-12-18 00:45:00","11.9114","3.53416","24.394","1.829","7.47","0.23","4.216","0.01","0.24","30.5575","4.78737","20.52","2","SATNPRO1963","28.756","0.4028","5"],
    [7747,"HCEP03730564","2023-12-18 01:00:00","11.9111","3.53406","24.287","1.815","7.47","0.213","4.667","0.02","0.29","30.5568","4.78726","20.37","2","SATNPRO1963","28.704","0.40204","5"],
    [7748,"HCEP03730564","2023-12-18 01:15:00","11.9107","3.53389","24.191","1.8","7.47","0.237","3.999","0","0.25","30.5555","4.78708","20.2","2","SATNPRO1963","28.692","0.40188","5"],
    [7749,"HCEP03730564","2023-12-18 01:30:00","11.9095","3.53347","24.128","1.791","7.47","0.215","4.291","0.02","0.19","30.5525","4.78667","20.09","2","SATNPRO1963","28.822","0.4037","5"],
    [7750,"HCEP03730564","2023-12-18 01:45:00","11.9097","3.53363","24.091","1.785","7.47","0.232","4.057","0.02","0.31","30.5539","4.78686","20.04","2","SATNPRO1963","28.118","0.39384","5"],
    [7751,"HCEP03730564","2023-12-18 02:00:00","11.9097","3.53358","24.097","1.779","7.47","0.211","3.815","0.02","0.11","30.5534","4.78679","19.96","2","SATNPRO1963","28.56","0.40006","5"],
    [7752,"HCEP03730564","2023-12-18 02:15:00","11.9096","3.53354","24.11","1.773","7.47","0.207","3.078","0.01","0.05","30.5531","4.78675","19.89","2","SATNPRO1963","28.752","0.40272","5"],
    [7753,"HCEP03730564","2023-12-18 02:30:00","11.91","3.53363","24.138","1.761","7.47","0.19","3.188","0","0.05","30.5537","4.78682","19.76","2","SATNPRO1963","28.38","0.39748","5"],
    [7754,"HCEP03730564","2023-12-18 02:45:00","11.9097","3.53363","24.232","1.763","7.46","0.21","3.063","0","0.08","30.5538","4.78685","19.79","2","SATNPRO1963","28.47","0.39878","5"],
    [7755,"HCEP03730564","2023-12-18 03:00:00","11.9099","3.53368","24.346","1.764","7.46","0.199","3.659","0.01","0.16","30.5541","4.7869","19.8","2","SATNPRO1963","27.98","0.39194","5"],
    [7756,"HCEP03730564","2023-12-18 03:15:00","11.9107","3.53381","24.495","1.753","7.46","0.224","4.157","0.01","0.19","30.5547","4.78698","19.68","2","SATNPRO1963","28.87","0.4044","5"],
    [7757,"HCEP03730564","2023-12-18 03:30:00","11.9114","3.53404","24.641","1.757","7.46","0.191","3.268","0","0.1","30.5562","4.78719","19.72","2","SATNPRO1963","28.298","0.39638","5"],
    [7758,"HCEP03730564","2023-12-18 03:45:00","11.9112","3.53395","24.778","1.76","7.46","0.26","3.494","0.09","0.17","30.5554","4.78709","19.75","2","SATNPRO1963","28.5","0.39922","5"],
    [7759,"HCEP03730564","2023-12-18 04:00:00","11.9107","3.53386","24.952","1.761","7.46","0.204","3.046","0.02","0.03","30.555","4.78705","19.76","2","SATNPRO1963","28.382","0.39754","5"],
    [7760,"HCEP03730564","2023-12-18 04:15:00","11.9105","3.53378","25.094","1.766","7.46","0.207","3.238","0","0.18","30.5543","4.78697","19.81","2","SATNPRO1963","27.956","0.39152","5"],
    [7761,"HCEP03730564","2023-12-18 04:30:00","11.9108","3.5339","25.263","1.762","7.46","0.188","3.154","0.01","0.13","30.5551","4.78708","19.77","2","SATNPRO1963","28.432","0.39824","5"],
    [7762,"HCEP03730564","2023-12-18 04:45:00","11.9105","3.5338","25.449","1.758","7.46","0.248","5.062","0.01","1.01","30.5544","4.78699","19.73","2","SATNPRO1963","28.226","0.39536","5"],
    [7763,"HCEP03730564","2023-12-18 05:00:00","11.9114","3.53401","25.646","1.732","7.46","0.208","3.824","0.01","0.18","30.5555","4.78715","19.43","2","SATNPRO1963","28.598","0.40056","5"],
    [7764,"HCEP03730564","2023-12-18 05:15:00","11.9112","3.53401","25.841","1.736","7.46","0.212","3.507","0.01","0.35","30.5557","4.78719","19.49","2","SATNPRO1963","28.404","0.39786","5"],
    [7765,"HCEP03730564","2023-12-18 05:30:00","11.9109","3.53388","26.043","1.742","7.46","0.187","3.032","0","0.14","30.5545","4.78704","19.55","2","SATNPRO1963","28.387999999999998","0.39762","5"],
    [7766,"HCEP03730564","2023-12-18 05:45:00","11.9103","3.53375","26.253","1.75","7.46","0.222","4.053","0.01","0.16","30.5536","4.78693","19.64","2","SATNPRO1963","28.378","0.39748","5"],
    [7767,"HCEP03730564","2023-12-18 06:00:00","11.9105","3.53381","26.475","1.749","7.46","0.218","6.388","0.01","2.57","30.554","4.78699","19.63","2","SATNPRO1963","28.176","0.39462","5"],
    [7768,"HCEP03730564","2023-12-18 06:15:00","11.9111","3.53392","26.688","1.733","7.46","0.229","4.892","0.01","0.61","30.5545","4.78707","19.45","2","SATNPRO1963","28.201999999999998","0.395","5"],
    [7769,"HCEP03730564","2023-12-18 06:30:00","11.9113","3.53395","26.912","1.725","7.46","0.189","3.031","0","0.12","30.5546","4.78709","19.36","2","SATNPRO1963","28.266","0.39594","5"],
    [7770,"HCEP03730564","2023-12-18 06:45:00","11.912","3.53413","27.119","1.691","7.46","0.218","3.529","0.01","0.19","30.5557","4.78725","18.98","0","SATNPRO1963","28.186","0.39482","5"],
    [7771,"HCEP03730564","2023-12-18 07:00:00","11.9114","3.53407","27.29","1.682","7.46","0.201","3.417","0.02","0.14","30.5554","4.78723","18.87","0","SATNPRO1963","28.364","0.39728","5"],
    [7772,"HCEP03730564","2023-12-18 07:15:00","11.9114","3.53408","27.464","1.678","7.46","0.224","3.692","0.02","0.19","30.5555","4.78725","18.83","0","SATNPRO1963","28.378","0.39744","5"],
    [7773,"HCEP03730564","2023-12-18 07:30:00","11.9116","3.53411","27.641","1.654","7.45","0.204","4.15","0.03","0.3","30.5555","4.78726","18.56","0","SATNPRO1963","28.152","0.39432","5"],
    [7774,"HCEP03730564","2023-12-18 07:45:00","11.9111","3.53398","27.806","1.676","7.45","0.225","3.629","0.02","0.23","30.5546","4.78715","18.81","0","SATNPRO1963","28.366","0.39732","5"],
    [7775,"HCEP03730564","2023-12-18 08:00:00","11.9063","3.53287","27.933","1.707","7.46","0.187","3.233","0.01","0.21","30.5479","4.78627","19.15","2","SATNPRO1963","27.988","0.39208","5"],
    [7776,"HCEP03730564","2023-12-18 08:15:00","11.9107","3.53395","28.04","1.716","7.46","0.235","3.781","0.03","0.18","30.5546","4.78716","19.25","2","SATNPRO1963","28.436","0.3983","5"],
    [7777,"HCEP03730564","2023-12-18 08:30:00","11.9112","3.53414","28.146","1.671","7.45","0.215","4.312","0.02","0.14","30.556","4.78736","18.76","2","SATNPRO1963","28.106","0.39368","5"],
    [7778,"HCEP03730564","2023-12-18 08:45:00","11.9106","3.53411","28.202","1.674","7.45","0.226","4.231","0.01","0.32","30.5562","4.78739","18.78","2","SATNPRO1963","28.169999999999998","0.39458","5"],
    [7779,"HCEP03730564","2023-12-18 09:00:00","11.9107","3.53423","28.199","1.696","7.45","0.221","4.805","0.01","0.24","30.5573","4.78755","19.04","2","SATNPRO1963","28.296","0.39634","5"],
    [7780,"HCEP03730564","2023-12-18 09:15:00","11.911","3.53438","28.204","1.729","7.46","0.249","6.312","0.02","0.69","30.5584","4.7877","19.4","2","SATNPRO1963","27.966","0.3917","5"],
    [7781,"HCEP03730564","2023-12-18 09:30:00","11.9126","3.53473","28.221","1.737","7.46","0.227","4.504","0.02","0.14","30.5605","4.78798","19.49","2","SATNPRO1963","27.88","0.39054","5"],
    [7782,"HCEP03730564","2023-12-18 09:45:00","11.9144","3.53506","28.252","1.735","7.46","0.238","4.46","0.01","0.13","30.5622","4.78819","19.47","2","SATNPRO1963","27.806","0.3895","5"],
    [7783,"HCEP03730564","2023-12-18 10:00:00","11.915","3.53521","28.284","1.727","7.46","0.209","4.263","0.01","0.13","30.563","4.78831","19.38","2","SATNPRO1963","28.466","0.3987","5"],
    [7784,"HCEP03730564","2023-12-18 10:15:00","11.9152","3.53535","28.233","1.731","7.46","0.219","3.913","0.01","0.03","30.5643","4.78848","19.43","2","SATNPRO1963","28.19","0.39484","5"],
    [7785,"HCEP03730564","2023-12-18 10:30:00","11.9156","3.53545","28.212","1.759","7.46","0.242","4.216","0.05","0.05","30.5649","4.78856","19.74","2","SATNPRO1963","28.196","0.39496","5"],
    [7786,"HCEP03730564","2023-12-18 10:45:00","11.9144","3.53521","28.155","1.796","7.46","0.225","4.154","0.01","0.17","30.5636","4.78838","20.16","2","SATNPRO1963","28.318","0.39666","5"],
    [7787,"HCEP03730564","2023-12-18 11:00:00","11.9164","3.53568","28.105","1.808","7.47","0.223","4.139","0.03","0.44","30.5665","4.78877","20.29","2","SATNPRO1963","28.148","0.39428","5"],
    [7788,"HCEP03730564","2023-12-18 11:15:00","11.917","3.53591","28.034","1.812","7.47","0.241","4.577","0.03","0.26","30.5683","4.789","20.34","0","SATNPRO1963","28.184","0.39476","5"],
    [7789,"HCEP03730564","2023-12-18 11:30:00","11.9162","3.53586","27.935","1.833","7.47","0.225","5.211","0.02","0.46","30.5685","4.78904","20.57","0","SATNPRO1963","28.278","0.39612","5"],
    [7790,"HCEP03730564","2023-12-18 11:45:00","11.917","3.53635","27.853","1.896","7.47","0.242","5.029","0.04","0.53","30.5725","4.78959","21.29","0","SATNPRO1963","28.764","0.40286","5"],
    [7791,"HCEP03730564","2023-12-18 12:00:00","11.918","3.53689","27.769","1.984","7.47","0.215","4.527","0.04","0.26","30.5769","4.79019","22.27","0","SATNPRO1963","28.738","0.40252","5"],
    [7792,"HCEP03730564","2023-12-18 12:15:00","11.9183","3.53705","27.66","2.038","7.47","0.223","4.318","0.02","0.31","30.5783","4.79038","22.88","0","SATNPRO1963","28.632","0.40102","5"],
    [7793,"HCEP03730564","2023-12-18 12:30:00","11.9179","3.53702","27.532","2.057","7.47","0.2","4.484","0.01","0.19","30.5784","4.79039","23.09","0","SATNPRO1963","28.8","0.40338","5"],
    [7794,"HCEP03730564","2023-12-18 12:45:00","11.9173","3.53698","27.396","2.071","7.47","0.22","3.803","0.02","0.16","30.5785","4.7904","23.25","0","SATNPRO1963","29.252","0.40976","5"],
    [7795,"HCEP03730564","2023-12-18 13:00:00","11.9181","3.5371","27.285","2.078","7.48","0.201","3.74","0.02","0.16","30.5791","4.79047","23.33","0","SATNPRO1963","29.322","0.4107","5"],
    [7796,"HCEP03730564","2023-12-18 13:15:00","11.9166","3.53682","27.149","2.079","7.48","0.22","3.437","0.03","0.11","30.5776","4.79028","23.34","0","SATNPRO1963","29.544","0.41382","5"],
    [7797,"HCEP03730564","2023-12-18 13:30:00","11.9174","3.53702","27.022","2.073","7.48","0.202","3.614","0.02","0.11","30.579","4.79045","23.27","0","SATNPRO1963","29.552","0.41394","5"],
    [7798,"HCEP03730564","2023-12-18 13:45:00","11.9175","3.53697","26.876","2.066","7.48","0.237","3.636","0.06","0.16","30.5785","4.79037","23.2","0","SATNPRO1963","29.676","0.4157","5"],
    [7799,"HCEP03730564","2023-12-18 14:00:00","11.917","3.53689","26.752","2.06","7.48","0.193","3.392","0.02","0.1","30.5781","4.79032","23.12","0","SATNPRO1963","29.69","0.41586","5"],
    [7800,"HCEP03730564","2023-12-18 14:15:00","11.9167","3.53688","26.62","2.049","7.48","0.218","3.553","0.03","0.27","30.5784","4.79035","23","0","SATNPRO1963","29.878","0.4185","5"],
    [7801,"HCEP03730564","2023-12-18 14:30:00","11.917","3.53685","26.498","2.037","7.47","0.198","3.553","0.03","0.1","30.5779","4.79028","22.86","0","SATNPRO1963","29.580000000000002","0.41432","5"],
    [7802,"HCEP03730564","2023-12-18 14:45:00","11.917","3.5367","26.399","2.028","7.47","0.225","3.709","0.03","0.16","30.5765","4.79007","22.76","0","SATNPRO1963","29.560000000000002","0.41404","5"],
    [7803,"HCEP03730564","2023-12-18 15:00:00","11.9161","3.53675","26.315","2.02","7.48","0.203","4.007","0.02","0.15","30.5777","4.79025","22.68","0","SATNPRO1963","29.59","0.41444","5"],
    [7804,"HCEP03730564","2023-12-18 15:15:00","11.9162","3.53675","26.254","2.007","7.47","0.218","4.035","0.01","0.2","30.5776","4.79023","22.53","0","SATNPRO1963","29.46","0.41264","5"],
    [7805,"HCEP03730564","2023-12-18 15:30:00","11.9159","3.5366","26.178","2.005","7.48","0.199","4.21","0.01","0.23","30.5765","4.79007","22.5","0","SATNPRO1963","29.47","0.41278","5"],
    [7806,"HCEP03730564","2023-12-18 15:45:00","11.9132","3.536","26.155","2.008","7.47","0.214","3.643","0.01","0.18","30.573","4.78961","22.54","0","SATNPRO1963","29.286","0.41016","5"],
    [7807,"HCEP03730564","2023-12-18 16:00:00","11.9111","3.53547","26.167","2.007","7.47","0.948","29.997","1.59","26.18","30.5696","4.78917","22.52","0","SATNPRO1963","29.458000000000002","0.41264","5"],
    [7808,"HCEP03730564","2023-12-18 16:15:00","11.9084","3.53485","26.174","2.021","7.48","0.213","3.677","0.02","0.18","30.5659","4.78868","22.68","0","SATNPRO1963","29.172","0.40866","5"],
    [7809,"HCEP03730564","2023-12-18 16:30:00","11.9079","3.5347","26.221","2.04","7.47","0.198","3.803","0.01","0.15","30.5648","4.78855","22.89","0","SATNPRO1963","29.432000000000002","0.41224","5"],
    [7810,"HCEP03730564","2023-12-18 16:45:00","11.9096","3.53515","26.225","2.035","7.47","0.22","3.923","0.01","0.18","30.5677","4.78893","22.84","0","SATNPRO1963","29.242","0.40958","5"],
    [7811,"HCEP03730564","2023-12-18 17:00:00","11.9096","3.53528","26.283","2.043","7.48","0.198","3.663","0.02","0.17","30.569","4.78911","22.93","0","SATNPRO1963","29.292","0.4103","5"],
    [7812,"HCEP03730564","2023-12-18 17:15:00","11.9109","3.53554","26.283","2.085","7.47","0.219","3.693","0.04","0.14","30.5704","4.78929","23.41","0","SATNPRO1963","29.204","0.40904","5"],
    [7813,"HCEP03730564","2023-12-18 17:30:00","11.9118","3.53573","26.325","2.056","7.48","0.201","3.875","0.03","0.16","30.5714","4.78943","23.07","0","SATNPRO1963","29.722","0.4163","5"],
    [7814,"HCEP03730564","2023-12-18 17:45:00","11.9101","3.53535","26.394","2.082","7.47","0.21","3.547","0.01","0.2","30.5692","4.78914","23.37","0","SATNPRO1963","29.286","0.4102","5"],
    [7815,"HCEP03730564","2023-12-18 18:00:00","11.9074","3.53492","26.483","2.089","7.48","0.184","3.095","0.01","0.15","30.5672","4.7889","23.44","0","SATNPRO1963","29.63","0.41502","5"],
    [7816,"HCEP03730564","2023-12-18 18:15:00","11.9082","3.53504","26.532","2.114","7.48","0.192","2.938","0.01","0.21","30.5676","4.78895","23.73","0","SATNPRO1963","29.49","0.41302","5"],
    [7817,"HCEP03730564","2023-12-18 18:30:00","11.9082","3.53518","26.567","2.135","7.48","0.175","2.545","0.01","0.1","30.5691","4.78916","23.96","0","SATNPRO1963","29.323999999999998","0.41076","5"],
    [7818,"HCEP03730564","2023-12-18 18:45:00","11.9095","3.53551","26.665","2.157","7.48","0.204","2.994","0.01","0.19","30.571","4.78942","24.21","0","SATNPRO1963","29.686","0.41582","5"],
    [7819,"HCEP03730564","2023-12-18 19:00:00","11.9111","3.53583","26.694","2.146","7.48","0.19","3.138","0.01","0.11","30.5728","4.78965","24.08","0","SATNPRO1963","30.118000000000002","0.42186","5"],
    [7820,"HCEP03730564","2023-12-18 19:15:00","11.9123","3.53603","26.754","2.121","7.48","0.214","3.21","0.01","0.12","30.5737","4.78977","23.8","0","SATNPRO1963","29.792","0.4173","5"],
    [7821,"HCEP03730564","2023-12-18 19:30:00","11.9133","3.53616","26.805","2.077","7.48","0.198","3.559","0.01","0.16","30.5742","4.78983","23.32","0","SATNPRO1963","29.854","0.41816","5"],
    [7822,"HCEP03730564","2023-12-18 19:45:00","11.9135","3.53615","26.878","2.053","7.48","0.229","3.954","0.04","0.27","30.5739","4.78978","23.05","0","SATNPRO1963","29.744","0.4166","5"],
    [7823,"HCEP03730564","2023-12-18 20:00:00","11.9141","3.53623","26.916","2.025","7.48","0.205","3.703","0.04","0.16","30.5741","4.78981","22.73","0","SATNPRO1963","29.856","0.4182","5"],
    [7824,"HCEP03730564","2023-12-18 20:15:00","11.9136","3.53611","26.959","2.025","7.48","0.224","3.805","0.04","0.18","30.5734","4.78972","22.72","0","SATNPRO1963","29.568","0.41412","5"],
    [7825,"HCEP03730564","2023-12-18 20:30:00","11.9129","3.53594","26.993","2.027","7.48","0.203","3.898","0.03","0.28","30.5723","4.78957","22.75","0","SATNPRO1963","29.718","0.41626","5"],
    [7826,"HCEP03730564","2023-12-18 20:45:00","11.9131","3.53593","26.988","2.017","7.48","0.225","3.975","0.02","0.34","30.572","4.78952","22.63","0","SATNPRO1963","29.552","0.41392","5"],
    [7827,"HCEP03730564","2023-12-18 21:00:00","11.9128","3.5359","26.968","2.004","7.48","0.202","4.24","0.02","0.25","30.572","4.78953","22.49","0","SATNPRO1963","29.394000000000002","0.41174","5"],
    [7828,"HCEP03730564","2023-12-18 21:15:00","11.9123","3.53577","26.921","1.99","7.48","0.226","4.265","0.04","0.33","30.5712","4.78942","22.34","0","SATNPRO1963","29.316","0.41062","5"],
    [7829,"HCEP03730564","2023-12-18 21:30:00","11.9128","3.53586","26.908","1.976","7.48","0.225","5.328","0.02","0.47","30.5717","4.78949","22.18","0","SATNPRO1963","29.48","0.41286","5"],
    [7830,"HCEP03730564","2023-12-18 21:45:00","11.9131","3.53598","26.824","1.96","7.47","0.241","5.258","0.03","0.45","30.5726","4.7896","22","0","SATNPRO1963","29.364","0.4113","5"],
    [7831,"HCEP03730564","2023-12-18 22:00:00","11.9116","3.53553","26.778","1.953","7.47","0.209","4.508","0.02","0.36","30.5694","4.78917","21.92","0","SATNPRO1963","29.322000000000003","0.41068","5"],
    [7832,"HCEP03730564","2023-12-18 22:15:00","11.9123","3.53559","26.702","1.941","7.47","0.67","14.116","0.46","15.93","30.5695","4.78917","21.78","0","SATNPRO1963","29.318","0.41062","5"],
    [7833,"HCEP03730564","2023-12-18 22:30:00","11.9131","3.53559","26.595","1.918","7.47","0.215","5.024","0.02","0.74","30.5689","4.78907","21.52","0","SATNPRO1963","29.132","0.40804","5"],
    [7834,"HCEP03730564","2023-12-18 22:45:00","11.9103","3.53462","26.456","1.87","7.46","0.229","4.256","0.06","0.36","30.562","4.78812","20.99","0","SATNPRO1963","29.232","0.40948","5"],
    [7835,"HCEP03730564","2023-12-18 23:00:00","11.9109","3.53469","26.337","1.811","7.46","0.209","4.693","0.01","0.25","30.5622","4.78814","20.32","0","SATNPRO1963","29.428","0.4122","5"],
    [7836,"HCEP03730564","2023-12-18 23:15:00","11.9116","3.53459","26.198","1.739","7.46","0.23","4.768","0.01","0.15","30.5608","4.78792","19.51","0","SATNPRO1963","29.412","0.41196","5"],
    [7837,"HCEP03730564","2023-12-18 23:30:00","11.9095","3.5342","26.051","1.724","7.46","0.211","4.555","0.02","0.23","30.5587","4.78766","19.35","0","SATNPRO1963","29.134","0.40806","5"],
    [7838,"HCEP03730564","2023-12-18 23:45:00","11.9059","3.53339","25.924","1.729","7.46","0.239","5.057","0.01","0.28","30.5541","4.78704","19.4","0","SATNPRO1963","29.014","0.40638","5"],
    [7839,"HCEP03730564","2023-12-19 00:00:00","11.9027","3.53261","25.797","1.738","7.46","0.216","4.975","0.01","0.26","30.5492","4.78638","19.5","0","SATNPRO1963","28.502","0.39918","5"],
    [7840,"HCEP03730564","2023-12-19 00:15:00","11.8959","3.53099","25.684","1.746","7.46","0.243","4.996","0.03","0.38","30.5392","4.78507","19.59","0","SATNPRO1963","28.39","0.39766","5"],
    [7841,"HCEP03730564","2023-12-19 00:30:00","11.8887","3.52925","25.538","1.754","7.46","0.218","5.104","0.01","0.38","30.5285","4.78365","19.67","0","SATNPRO1963","28.566","0.40014","5"],
    [7842,"HCEP03730564","2023-12-19 00:45:00","11.8851","3.52831","25.443","1.759","7.46","0.239","4.843","0.02","0.22","30.5224","4.78283","19.73","0","SATNPRO1963","28.202","0.39502","5"],
    [7843,"HCEP03730564","2023-12-19 01:00:00","11.8831","3.52788","25.326","1.768","7.46","0.209","4.426","0.02","0.22","30.52","4.78252","19.83","0","SATNPRO1963","28.412","0.39792","5"],
    [7844,"HCEP03730564","2023-12-19 01:15:00","11.8813","3.52746","25.189","1.781","7.46","0.224","4.278","0.01","0.26","30.5174","4.78217","19.97","0","SATNPRO1963","28.258","0.3958","5"],
    [7845,"HCEP03730564","2023-12-19 01:30:00","11.8805","3.52726","25.007","1.783","7.46","0.215","4.741","0.01","0.33","30.5163","4.78202","19.99","0","SATNPRO1963","28.096","0.39354","5"],
    [7846,"HCEP03730564","2023-12-19 01:45:00","11.884","3.52798","24.882","1.759","7.46","0.24","4.275","0.05","0.3","30.5205","4.78254","19.72","0","SATNPRO1963","28.156","0.39438","5"],
    [7847,"HCEP03730564","2023-12-19 02:00:00","11.888","3.52898","24.77","1.7","7.46","0.21","4.204","0.01","0.22","30.5268","4.78338","19.07","0","SATNPRO1963","28.34","0.39698","5"],
    [7848,"HCEP03730564","2023-12-19 02:15:00","11.8905","3.52951","24.701","1.655","7.46","0.227","4.015","0.02","0.2","30.5299","4.78377","18.56","0","SATNPRO1963","28.298","0.39632","5"],
    [7849,"HCEP03730564","2023-12-19 02:30:00","11.8914","3.52966","24.629","1.641","7.45","0.202","4.114","0.01","0.25","30.5305","4.78385","18.41","0","SATNPRO1963","28.509999999999998","0.3993","5"],
    [7850,"HCEP03730564","2023-12-19 02:45:00","11.892","3.52975","24.596","1.625","7.45","0.214","4.012","0.01","0.34","30.5309","4.78389","18.23","0","SATNPRO1963","28.264","0.3959","5"],
    [7851,"HCEP03730564","2023-12-19 03:00:00","11.892","3.52975","24.582","1.609","7.45","0.218","3.762","0.03","0.22","30.5309","4.78389","18.05","0","SATNPRO1963","27.736","0.38852","5"],
    [7852,"HCEP03730564","2023-12-19 03:15:00","11.8919","3.52972","24.591","1.595","7.45","0.223","3.756","0.01","0.36","30.5308","4.78387","17.89","0","SATNPRO1963","27.828","0.38976","5"],
    [7853,"HCEP03730564","2023-12-19 03:30:00","11.8918","3.52969","24.623","1.593","7.45","0.203","3.674","0.02","0.21","30.5305","4.78383","17.87","0","SATNPRO1963","27.727999999999998","0.38844","5"],
    [7854,"HCEP03730564","2023-12-19 03:45:00","11.8917","3.52969","24.682","1.597","7.45","0.253","3.136","0.04","0.09","30.5306","4.78386","17.91","0","SATNPRO1963","27.452","0.3845","5"],
    [7855,"HCEP03730564","2023-12-19 04:00:00","11.8918","3.5297","24.766","1.595","7.45","0.191","3.28","0.01","0.14","30.5306","4.78386","17.89","0","SATNPRO1963","27.62","0.38692","5"],
    [7856,"HCEP03730564","2023-12-19 04:15:00","11.8923","3.5298","24.872","1.59","7.45","0.201","3.148","0","0.16","30.5311","4.78392","17.83","0","SATNPRO1963","28.228","0.39538","5"],
    [7857,"HCEP03730564","2023-12-19 04:30:00","11.8914","3.52965","25.006","1.595","7.45","0.191","2.885","0.02","0.14","30.5303","4.78384","17.89","0","SATNPRO1963","29.216","0.40922","5"],
    [7858,"HCEP03730564","2023-12-19 04:45:00","11.892","3.52974","25.154","1.596","7.45","0.208","3.207","0.01","0.18","30.5306","4.78387","17.9","0","SATNPRO1963","27.4","0.38382","5"],
    [7859,"HCEP03730564","2023-12-19 05:00:00","11.8919","3.52974","25.325","1.599","7.45","0.198","3.27","0.02","0.19","30.5306","4.78389","17.93","0","SATNPRO1963","27.806","0.38946","5"],
    [7860,"HCEP03730564","2023-12-19 05:15:00","11.8918","3.52976","25.491","1.601","7.45","0.214","3.843","0.01","0.6","30.5308","4.78393","17.95","0","SATNPRO1963","27.744","0.38856","5"],
    [7861,"HCEP03730564","2023-12-19 05:30:00","11.8917","3.52972","25.674","1.603","7.45","0.193","3.576","0.01","0.32","30.5305","4.7839","17.98","0","SATNPRO1963","28.026","0.39256","5"],
    [7862,"HCEP03730564","2023-12-19 05:45:00","11.8914","3.52972","25.847","1.602","7.45","0.194","3.18","0","0.1","30.5306","4.78393","17.97","0","SATNPRO1963","27.84","0.38994","5"],
    [7863,"HCEP03730564","2023-12-19 06:00:00","11.891","3.52959","26.019","1.613","7.45","0.19","3.479","0.01","0.21","30.5297","4.78382","18.09","0","SATNPRO1963","28.186","0.39482","5"],
    [7864,"HCEP03730564","2023-12-19 06:15:00","11.8909","3.52957","26.204","1.616","7.45","0.227","4.039","0.02","0.27","30.5295","4.78379","18.13","0","SATNPRO1963","27.612","0.38676","5"],
    [7865,"HCEP03730564","2023-12-19 06:30:00","11.891","3.52964","26.378","1.607","7.45","0.203","3.68","0.02","0.14","30.5299","4.78387","18.02","0","SATNPRO1963","27.785999999999998","0.38914","5"],
    [7866,"HCEP03730564","2023-12-19 06:45:00","11.892","3.52977","26.61","1.578","7.44","0.238","5.006","0.01","0.3","30.5304","4.78393","17.7","0","SATNPRO1963","27.834","0.38986","5"],
    [7867,"HCEP03730564","2023-12-19 07:00:00","11.8923","3.52986","26.764","1.532","7.44","0.207","4.011","0.01","0.12","30.5309","4.78401","17.18","0","SATNPRO1963","28.122","0.39392","5"],
    [7868,"HCEP03730564","2023-12-19 07:15:00","11.8924","3.52986","27.001","1.492","7.44","0.227","3.875","0.02","0.17","30.5307","4.78399","16.73","0","SATNPRO1963","28.056","0.393","5"],
    [7869,"HCEP03730564","2023-12-19 07:30:00","11.8926","3.52985","27.196","1.472","7.44","0.2","3.607","0.01","0.14","30.5304","4.78396","16.51","0","SATNPRO1963","27.772","0.38902","5"],
    [7870,"HCEP03730564","2023-12-19 07:45:00","11.8923","3.52986","27.386","1.471","7.44","0.237","4.025","0.03","0.52","30.5307","4.78401","16.5","0","SATNPRO1963","27.61","0.38676","5"],
    [7871,"HCEP03730564","2023-12-19 08:00:00","11.8924","3.52986","27.547","1.488","7.44","1.31","57.749","0.12","15.2","30.5306","4.784","16.69","0","SATNPRO1963","27.59","0.38646","5"],
    [7872,"HCEP03730564","2023-12-19 08:15:00","11.8924","3.52988","27.724","1.498","7.44","0.222","3.734","0.01","0.18","30.5307","4.78403","16.8","0","SATNPRO1963","27.15","0.38028","5"],
    [7873,"HCEP03730564","2023-12-19 08:30:00","11.8921","3.52986","27.899","1.508","7.44","0.205","3.78","0.01","0.16","30.5306","4.78403","16.92","0","SATNPRO1963","27.148","0.38024","5"],
    [7874,"HCEP03730564","2023-12-19 08:45:00","11.8921","3.52984","28.032","1.52","7.44","0.232","3.99","0.02","0.23","30.5304","4.784","17.05","0","SATNPRO1963","27.418","0.38404","5"],
    [7875,"HCEP03730564","2023-12-19 09:00:00","11.8917","3.5298","28.141","1.526","7.44","0.229","5.371","0.01","0.65","30.5303","4.784","17.11","0","SATNPRO1963","27.346","0.38298","5"],
    [7876,"HCEP03730564","2023-12-19 09:15:00","11.8916","3.52979","28.212","1.532","7.44","0.243","4.368","0.02","0.33","30.5303","4.78401","17.18","0","SATNPRO1963","27.518","0.38542","5"],
    [7877,"HCEP03730564","2023-12-19 09:30:00","11.8916","3.52983","28.235","1.527","7.44","0.228","4.742","0.02","0.22","30.5306","4.78405","17.13","0","SATNPRO1963","27.39","0.38364","5"],
    [7878,"HCEP03730564","2023-12-19 09:45:00","11.8913","3.52981","28.334","1.529","7.44","0.45","29.943","0.3","31.71","30.5307","4.78407","17.14","0","SATNPRO1963","27.45","0.38452","5"],
    [7879,"HCEP03730564","2023-12-19 10:00:00","11.8919","3.52989","28.355","1.517","7.44","1.05","34.129","0.31","20.8","30.5309","4.7841","17.01","0","SATNPRO1963","27.642","0.38716","5"],
    [7880,"HCEP03730564","2023-12-19 10:15:00","11.8922","3.52994","28.354","1.494","7.44","4.885","188.534","1.75","88.78","30.5312","4.78413","16.75","0","SATNPRO1963","27.458","0.3846","5"],
    [7881,"HCEP03730564","2023-12-19 10:30:00","11.8923","3.52995","28.358","1.489","7.44","0.222","3.797","0.05","0.15","30.5312","4.78413","16.71","0","SATNPRO1963","27.5","0.38518","5"],
    [7882,"HCEP03730564","2023-12-19 10:45:00","11.8923","3.52989","28.352","1.49","7.44","0.231","3.528","0.02","0.12","30.5306","4.78405","16.71","0","SATNPRO1963","27.278","0.38208","5"],
    [7883,"HCEP03730564","2023-12-19 11:00:00","11.8921","3.52992","28.311","1.505","7.44","0.197","3.287","0.01","0.25","30.531","4.78411","16.88","0","SATNPRO1963","27.274","0.38204","5"],
    [7884,"HCEP03730564","2023-12-19 11:15:00","11.8918","3.52976","28.263","1.52","7.44","0.242","3.398","0.05","0.23","30.5298","4.78394","17.05","0","SATNPRO1963","27.316","0.38266","5"],
    [7885,"HCEP03730564","2023-12-19 11:30:00","11.8921","3.52989","28.139","1.53","7.44","0.233","6.381","0.09","11.31","30.5309","4.78408","17.16","0","SATNPRO1963","27.23","0.3814","5"],
    [7886,"HCEP03730564","2023-12-19 11:45:00","11.892","3.52988","28.103","1.522","7.44","0.231","3.586","0.02","0.13","30.5308","4.78407","17.07","0","SATNPRO1963","27.294","0.3823","5"],
    [7887,"HCEP03730564","2023-12-19 12:00:00","11.8915","3.52976","27.973","1.522","7.44","0.266","8.898","0.1","12.03","30.5302","4.78398","17.07","0","SATNPRO1963","27.594","0.3865","5"],
    [7888,"HCEP03730564","2023-12-19 12:15:00","11.8912","3.52971","27.911","1.511","7.44","0.241","4.339","0.01","0.17","30.5299","4.78393","16.94","0","SATNPRO1963","27.488","0.385","5"],
    [7889,"HCEP03730564","2023-12-19 12:30:00","11.8907","3.52967","27.771","1.495","7.44","0.235","4.739","0.02","0.18","30.53","4.78395","16.77","0","SATNPRO1963","27.358","0.38318","5"],
    [7890,"HCEP03730564","2023-12-19 12:45:00","11.8884","3.52928","27.672","1.504","7.44","0.24","4.323","0.02","0.15","30.5282","4.78372","16.87","0","SATNPRO1963","27.528","0.3856","5"],
    [7891,"HCEP03730564","2023-12-19 13:00:00","11.8867","3.52898","27.546","1.533","7.44","0.223","4.831","0.01","0.26","30.5267","4.78354","17.19","0","SATNPRO1963","27.552","0.38592","5"],
    [7892,"HCEP03730564","2023-12-19 13:15:00","11.8848","3.52859","27.447","1.565","7.44","0.233","4.519","0.01","0.19","30.5246","4.78326","17.55","0","SATNPRO1963","27.26","0.3818","5"],
    [7893,"HCEP03730564","2023-12-19 13:30:00","11.8839","3.52845","27.311","1.587","7.44","0.226","5.08","0.01","0.15","30.5241","4.78319","17.8","0","SATNPRO1963","26.962","0.37766","5"],
    [7894,"HCEP03730564","2023-12-19 13:45:00","11.8804","3.5278","27.212","1.603","7.44","0.236","4.759","0.01","0.13","30.5207","4.78276","17.98","0","SATNPRO1963","27.134","0.38002","5"],
    [7895,"HCEP03730564","2023-12-19 14:00:00","11.877","3.52709","27.028","1.669","7.44","0.208","4.074","0.01","0.12","30.5167","4.78223","18.72","0","SATNPRO1963","27.276","0.38204","5"],
    [7896,"HCEP03730564","2023-12-19 14:15:00","11.8692","3.52557","26.86","1.841","7.44","0.209","3.129","0.01","0.15","30.5086","4.78119","20.64","0","SATNPRO1963","27.558","0.386","5"],
    [7897,"HCEP03730564","2023-12-19 14:30:00","11.8766","3.52689","26.706","1.822","7.45","0.203","3.649","0.03","0.14","30.5153","4.78202","20.43","0","SATNPRO1963","27.663999999999998","0.38744","5"],
    [7898,"HCEP03730564","2023-12-19 14:45:00","11.8763","3.52686","26.533","1.762","7.45","0.218","3.711","0.01","0.13","30.5153","4.78202","19.76","0","SATNPRO1963","27.852","0.39014","5"],
    [7899,"HCEP03730564","2023-12-19 15:00:00","11.8752","3.52666","26.402","1.765","7.45","0.202","3.64","0.01","0.1","30.5143","4.78188","19.79","0","SATNPRO1963","28.002000000000002","0.39224","5"],
    [7900,"HCEP03730564","2023-12-19 15:15:00","11.8739","3.52637","26.243","1.781","7.44","0.215","3.603","0.02","0.15","30.5126","4.78165","19.97","0","SATNPRO1963","28.718","0.40226","5"],
    [7901,"HCEP03730564","2023-12-19 15:30:00","11.873","3.52622","26.154","1.8","7.44","0.196","3.457","0.01","0.09","30.5121","4.78159","20.17","0","SATNPRO1963","28.232","0.39544","5"],
    [7902,"HCEP03730564","2023-12-19 15:45:00","11.8729","3.52622","26.002","1.797","7.45","0.223","3.752","0.02","0.1","30.5121","4.78159","20.14","0","SATNPRO1963","28.23","0.39542","5"],
    [7903,"HCEP03730564","2023-12-19 16:00:00","11.8697","3.52561","25.894","1.835","7.45","0.194","3.265","0.02","0.1","30.509","4.78118","20.57","0","SATNPRO1963","28.256","0.39578","5"],
    [7904,"HCEP03730564","2023-12-19 16:15:00","11.8722","3.52584","25.837","1.858","7.46","0.213","3.39","0.01","0.26","30.5091","4.78116","20.82","0","SATNPRO1963","28.382","0.39754","5"],
    [7905,"HCEP03730564","2023-12-19 16:30:00","11.8748","3.52657","25.799","1.801","7.46","0.204","3.711","0.02","0.17","30.5141","4.78182","20.19","0","SATNPRO1963","28.426000000000002","0.3982","5"],
    [7906,"HCEP03730564","2023-12-19 16:45:00","11.8749","3.52643","25.754","1.832","7.46","0.225","3.54","0.03","0.15","30.5126","4.78161","20.54","0","SATNPRO1963","28.253999999999998","0.39576","5"],
    [7907,"HCEP03730564","2023-12-19 17:00:00","11.8731","3.52619","25.739","1.837","7.46","0.193","3.295","0.03","0.12","30.5118","4.78153","20.59","0","SATNPRO1963","28.53","0.39958","5"],
    [7908,"HCEP03730564","2023-12-19 17:15:00","11.8717","3.52601","25.772","1.849","7.46","0.214","3.884","0.01","0.18","30.5113","4.78147","20.72","0","SATNPRO1963","28.41","0.39792","5"],
    [7909,"HCEP03730564","2023-12-19 17:30:00","11.8679","3.52531","25.79","1.898","7.46","0.202","4.127","0.02","0.19","30.5076","4.78101","21.28","0","SATNPRO1963","28.286","0.39618","5"],
    [7910,"HCEP03730564","2023-12-19 17:45:00","11.8642","3.52478","25.832","1.967","7.47","0.213","3.93","0.01","0.15","30.5055","4.78076","22.04","0","SATNPRO1963","28.682","0.40174","5"],
    [7911,"HCEP03730564","2023-12-19 18:00:00","11.8605","3.52405","25.839","2.035","7.47","0.204","4.52","0.01","0.2","30.5015","4.78025","22.8","0","SATNPRO1963","28.508","0.39928","5"],
    [7912,"HCEP03730564","2023-12-19 18:15:00","11.8484","3.52261","25.864","2.171","7.48","0.204","3.548","0.01","0.22","30.4976","4.77988","24.32","0","SATNPRO1963","28.56","0.40002","5"],
    [7913,"HCEP03730564","2023-12-19 18:30:00","11.8505","3.52264","25.938","2.255","7.49","0.2","3.967","0.01","0.15","30.4962","4.77964","25.26","0","SATNPRO1963","28.724","0.40232","5"],
    [7914,"HCEP03730564","2023-12-19 18:45:00","11.8408","3.52144","26.004","2.299","7.49","0.213","3.972","0.01","0.17","30.4926","4.77927","25.75","0","SATNPRO1963","28.95","0.40548","5"],
    [7915,"HCEP03730564","2023-12-19 19:00:00","11.8327","3.52006","26.049","2.424","7.5","0.191","3.958","0.01","0.55","30.4858","4.77844","27.14","0","SATNPRO1963","28.884","0.40458","5"],
    [7916,"HCEP03730564","2023-12-19 19:15:00","11.823","3.51863","26.129","2.581","7.51","0.213","3.963","0.02","0.32","30.4801","4.77777","28.9","0","SATNPRO1963","29.458000000000002","0.41258","5"],
    [7917,"HCEP03730564","2023-12-19 19:30:00","11.821","3.51819","26.18","2.663","7.51","0.195","3.62","0.03","0.23","30.4774","4.77742","29.81","0","SATNPRO1963","29.492","0.41312","5"],
    [7918,"HCEP03730564","2023-12-19 19:45:00","11.8195","3.51812","26.298","2.689","7.52","0.215","3.5","0.03","0.23","30.4779","4.77752","30.1","0","SATNPRO1963","29.68","0.4157","5"],
    [7919,"HCEP03730564","2023-12-19 20:00:00","11.8162","3.51759","26.395","2.73","7.52","0.182","3.155","0.02","0.12","30.4755","4.77723","30.56","0","SATNPRO1963","30.169999999999998","0.42256","5"],
    [7920,"HCEP03730564","2023-12-19 20:15:00","11.8118","3.51661","26.436","2.792","7.53","0.2","3.152","0.01","0.32","30.4696","4.77647","31.25","0","SATNPRO1963","30.69","0.42984","5"],
    [7921,"HCEP03730564","2023-12-19 20:30:00","11.8083","3.51579","26.504","2.796","7.54","0.194","4.079","0.01","0.23","30.4646","4.77581","31.29","0","SATNPRO1963","30.648","0.42928","5"],
    [7922,"HCEP03730564","2023-12-19 20:45:00","11.8069","3.51547","26.609","2.793","7.54","0.216","4.195","0.01","0.17","30.4626","4.77556","31.26","0","SATNPRO1963","30.722","0.43032","5"],
    [7923,"HCEP03730564","2023-12-19 21:00:00","11.8045","3.51506","26.684","2.831","7.54","0.19","3.974","0.01","0.16","30.4606","4.77532","31.68","0","SATNPRO1963","30.93","0.4332","5"],
    [7924,"HCEP03730564","2023-12-19 21:15:00","11.8069","3.51515","26.724","2.795","7.54","0.217","4.247","0.02","0.18","30.4595","4.77512","31.27","0","SATNPRO1963","30.68","0.42972","5"],
    [7925,"HCEP03730564","2023-12-19 21:30:00","11.808","3.51516","26.783","2.751","7.54","0.205","4.202","0.01","0.2","30.4587","4.775","30.78","0","SATNPRO1963","30.72","0.4303","5"],
    [7926,"HCEP03730564","2023-12-19 21:45:00","11.8133","3.51653","26.821","2.731","7.54","0.215","4.409","0.01","0.21","30.4675","4.77617","30.57","0","SATNPRO1963","30.666","0.42952","5"],
    [7927,"HCEP03730564","2023-12-19 22:00:00","11.829","3.51891","26.798","2.598","7.53","0.215","5.649","0.01","0.24","30.4775","4.77736","29.09","0","SATNPRO1963","30.726","0.43034","5"],
    [7928,"HCEP03730564","2023-12-19 22:15:00","11.8448","3.52112","26.814","2.321","7.52","0.248","5.629","0.04","0.34","30.4858","4.77831","25.99","0","SATNPRO1963","30.462","0.42668","5"],
    [7929,"HCEP03730564","2023-12-19 22:30:00","11.8537","3.52242","26.815","2.101","7.5","0.219","5.573","0.01","0.21","30.4911","4.77893","23.54","0","SATNPRO1963","30.546","0.42786","5"],
    [7930,"HCEP03730564","2023-12-19 22:45:00","11.8599","3.52344","26.783","1.931","7.49","0.227","4.867","0.01","0.17","30.4958","4.77951","21.64","0","SATNPRO1963","30.4","0.4258","5"],
    [7931,"HCEP03730564","2023-12-19 23:00:00","11.8539","3.52243","26.752","1.955","7.48","0.193","3.652","0.01","0.23","30.491","4.77891","21.9","0","SATNPRO1963","30.026","0.4206","5"],
    [7932,"HCEP03730564","2023-12-19 23:15:00","11.8561","3.52265","26.72","1.948","7.48","0.213","3.944","0.01","0.2","30.4914","4.77893","21.82","0","SATNPRO1963","29.39","0.41166","5"],
    [7933,"HCEP03730564","2023-12-19 23:30:00","11.8562","3.5225","26.62","1.893","7.48","0.199","3.5","0.02","0.21","30.4898","4.77871","21.21","0","SATNPRO1963","28.972","0.40578","5"],
    [7934,"HCEP03730564","2023-12-19 23:45:00","11.8579","3.52243","26.535","1.818","7.47","0.214","3.663","0.01","0.23","30.4878","4.77839","20.37","0","SATNPRO1963","28.558","0.39996","5"],
    [7935,"HCEP03730564","2023-12-20 00:00:00","11.8614","3.52299","26.46","1.671","7.47","0.208","4.383","0.01","0.33","30.4903","4.77869","18.72","0","SATNPRO1963","29.18","0.40874","5"],
    [7936,"HCEP03730564","2023-12-20 00:15:00","11.8656","3.52393","26.38","1.539","7.46","0.232","4.686","0.01","0.44","30.496","4.77943","17.24","0","SATNPRO1963","28.652","0.40132","5"],
    [7937,"HCEP03730564","2023-12-20 00:30:00","11.864","3.52353","26.295","1.488","7.45","0.215","4.844","0.01","0.25","30.4935","4.7791","16.67","0","SATNPRO1963","28.846","0.40404","5"],
    [7938,"HCEP03730564","2023-12-20 00:45:00","11.8558","3.5215","26.178","1.504","7.45","0.227","4.495","0.01","0.22","30.4807","4.7774","16.85","0","SATNPRO1963","28.264","0.39592","5"],
    [7939,"HCEP03730564","2023-12-20 01:00:00","11.8514","3.52068","26.101","1.553","7.45","0.209","4.734","0.01","0.34","30.4765","4.77686","17.4","0","SATNPRO1963","27.34","0.38292","5"],
    [7940,"HCEP03730564","2023-12-20 01:15:00","11.848","3.51996","26.024","1.548","7.45","0.235","4.884","0.01","0.29","30.4724","4.77633","17.34","0","SATNPRO1963","27.04","0.37872","5"],
    [7941,"HCEP03730564","2023-12-20 01:30:00","11.8491","3.52029","25.947","1.503","7.44","0.215","4.832","0.01","0.24","30.4747","4.77663","16.83","0","SATNPRO1963","26.952","0.3775","5"],
    [7942,"HCEP03730564","2023-12-20 01:45:00","11.8512","3.52069","25.884","1.458","7.44","0.237","4.457","0.02","0.31","30.4768","4.7769","16.34","0","SATNPRO1963","27.092","0.37948","5"],
    [7943,"HCEP03730564","2023-12-20 02:00:00","11.8511","3.52064","25.852","1.437","7.44","0.199","4.113","0.01","0.17","30.4764","4.77684","16.1","0","SATNPRO1963","27.43","0.38422","5"],
    [7944,"HCEP03730564","2023-12-20 02:15:00","11.8502","3.52043","25.773","1.435","7.44","0.225","4.25","0.02","0.36","30.4752","4.77668","16.07","2","SATNPRO1963","27.22","0.38128","5"],
    [7945,"HCEP03730564","2023-12-20 02:30:00","11.8493","3.5203","25.648","1.444","7.44","0.2","3.492","0.01","0.28","30.4748","4.77663","16.18","2","SATNPRO1963","26.844","0.37602","5"],
    [7946,"HCEP03730564","2023-12-20 02:45:00","11.8497","3.52027","25.562","1.452","7.44","0.212","3.462","0.01","0.18","30.4741","4.77652","16.26","2","SATNPRO1963","26.658","0.3734","5"],
    [7947,"HCEP03730564","2023-12-20 03:00:00","11.8494","3.52025","25.463","1.459","7.44","0.194","3.418","0.02","0.32","30.4742","4.77653","16.34","2","SATNPRO1963","26.906","0.3769","5"],
    [7948,"HCEP03730564","2023-12-20 03:15:00","11.8493","3.52015","25.381","1.461","7.44","0.21","3.409","0.01","0.12","30.4735","4.77642","16.36","2","SATNPRO1963","26.858","0.37618","5"],
    [7949,"HCEP03730564","2023-12-20 03:30:00","11.8506","3.52054","25.34","1.432","7.43","0.205","3.598","0.02","0.17","30.4761","4.77677","16.04","2","SATNPRO1963","26.652","0.37328","5"],
    [7950,"HCEP03730564","2023-12-20 03:45:00","11.8503","3.52047","25.279","1.414","7.43","0.217","3.628","0.01","0.25","30.4757","4.77672","15.84","2","SATNPRO1963","26.766000000000002","0.37488","5"],
    [7951,"HCEP03730564","2023-12-20 04:00:00","11.8495","3.52029","25.268","1.42","7.43","0.203","3.728","0.01","0.21","30.4746","4.77658","15.91","2","SATNPRO1963","26.782","0.37512","5"],
    [7952,"HCEP03730564","2023-12-20 04:15:00","11.8489","3.52016","25.288","1.42","7.43","0.241","4.161","0.02","0.46","30.4738","4.77647","15.91","2","SATNPRO1963","26.714","0.37416","5"],
    [7953,"HCEP03730564","2023-12-20 04:30:00","11.8475","3.51982","25.297","1.435","7.43","0.204","3.888","0.01","0.19","30.4717","4.77619","16.07","2","SATNPRO1963","26.586","0.37238","5"],
    [7954,"HCEP03730564","2023-12-20 04:45:00","11.8466","3.51956","25.329","1.463","7.43","0.226","4.055","0.01","0.52","30.47","4.77596","16.39","2","SATNPRO1963","26.442","0.3704","5"],
    [7955,"HCEP03730564","2023-12-20 05:00:00","11.8465","3.51956","25.385","1.498","7.44","0.207","4.231","0.01","0.16","30.47","4.77598","16.78","2","SATNPRO1963","26.694","0.37388","5"],
    [7956,"HCEP03730564","2023-12-20 05:15:00","11.8479","3.51988","25.462","1.525","7.44","0.218","3.826","0.01","0.2","30.4719","4.77623","17.08","2","SATNPRO1963","26.704","0.37404","5"],
    [7957,"HCEP03730564","2023-12-20 05:30:00","11.8472","3.51974","25.55","1.541","7.44","0.192","3.556","0.01","0.12","30.4711","4.77613","17.26","2","SATNPRO1963","26.88","0.37652","5"],
    [7958,"HCEP03730564","2023-12-20 05:45:00","11.8476","3.51987","25.653","1.55","7.44","0.208","4.106","0","0.42","30.4719","4.77624","17.36","2","SATNPRO1963","26.768","0.37498","5"],
    [7959,"HCEP03730564","2023-12-20 06:00:00","11.8451","3.51928","25.756","1.565","7.44","0.201","3.527","0.01","0.02","30.4683","4.77578","17.53","2","SATNPRO1963","27.232","0.3814","5"],
    [7960,"HCEP03730564","2023-12-20 06:15:00","11.8441","3.51903","25.895","1.581","7.44","0.214","4.575","0.01","0.53","30.4667","4.77557","17.71","2","SATNPRO1963","27.227999999999998","0.3814","5"],
    [7961,"HCEP03730564","2023-12-20 06:30:00","11.8423","3.51875","26.041","1.595","7.44","0.201","3.527","0.02","0.06","30.4653","4.77541","17.86","2","SATNPRO1963","27.166","0.3805","5"],
    [7962,"HCEP03730564","2023-12-20 06:45:00","11.8404","3.51834","26.207","1.623","7.44","0.215","3.998","0.01","0.18","30.4629","4.77511","18.17","2","SATNPRO1963","27.274","0.38202","5"],
    [7963,"HCEP03730564","2023-12-20 07:00:00","11.8377","3.51775","26.371","1.653","7.45","0.215","3.998","0.01","0.18","30.4595","4.77466","18.51","0","SATNPRO1963","27.306","0.38248","5"],
    [7964,"HCEP03730564","2023-12-20 07:15:00","11.8357","3.51736","26.537","1.696","7.45","0.215","3.998","0.01","0.18","30.4572","4.77438","18.99","0","SATNPRO1963","27.42","0.38412","5"],
    [7965,"HCEP03730564","2023-12-20 07:30:00","11.8227","3.51491","26.728","1.806","7.45","0.215","3.998","0.01","0.18","30.4443","4.77275","20.22","0","SATNPRO1963","27.352","0.3831","5"],
    [7966,"HCEP03730564","2023-12-20 07:45:00","11.8189","3.5143","26.913","1.923","7.46","0.215","3.998","0.01","0.18","30.4414","4.7724","21.53","0","SATNPRO1963","27.43","0.38422","5"],
    [7967,"HCEP03730564","2023-12-20 08:00:00","11.8109","3.51288","27.091","2.069","7.47","0.215","3.998","0.01","0.18","30.4342","4.77152","23.15","0","SATNPRO1963","27.59","0.38646","5"],
    [7968,"HCEP03730564","2023-12-20 08:15:00","11.8086","3.51255","27.262","2.153","7.47","0.215","3.998","0.01","0.18","30.4328","4.77136","24.09","0","SATNPRO1963","27.81","0.38954","5"],
    [7969,"HCEP03730564","2023-12-20 08:30:00","11.7919","3.51016","27.443","2.432","7.48","0.215","3.998","0.01","0.18","30.4235","4.77029","27.2","0","SATNPRO1963","28.47","0.39878","5"],
    [7970,"HCEP03730564","2023-12-20 08:45:00","11.7837","3.50933","27.62","2.733","7.5","0.207","3.884","0","0","30.4221","4.77022","30.57","2","SATNPRO1963","28.502","0.3992","5"],
    [7971,"HCEP03730564","2023-12-20 09:00:00","11.7842","3.5094","27.775","2.832","7.52","0.207","3.884","0","0","30.4223","4.77025","31.66","0","SATNPRO1963","29.1","0.4076","5"],
    [7972,"HCEP03730564","2023-12-20 09:15:00","11.79","3.51075","27.935","2.778","7.52","0.207","3.884","0","0","30.4305","4.77134","31.07","0","SATNPRO1963","29.312","0.41058","5"],
    [7973,"HCEP03730564","2023-12-20 09:30:00","11.7903","3.5107","28.043","2.724","7.52","0.207","3.884","0","0","30.4297","4.77123","30.47","0","SATNPRO1963","30.416","0.42606","5"],
    [7974,"HCEP03730564","2023-12-20 09:45:00","11.7881","3.50997","28.148","2.736","7.52","0.207","3.884","0","0","30.4245","4.77053","30.6","0","SATNPRO1963","30.812","0.4316","5"],
    [7975,"HCEP03730564","2023-12-20 10:00:00","11.781","3.50808","28.239","2.76","7.52","0.207","3.884","0","0","30.412","4.76887","30.86","0","SATNPRO1963","30.928","0.4332","5"],
    [7976,"HCEP03730564","2023-12-20 10:15:00","11.7741","3.5061","28.309","2.803","7.53","0.185","2.491","0","0","30.3987","4.76708","31.34","2","SATNPRO1963","30.612","0.4288","5"],
    [7977,"HCEP03730564","2023-12-20 10:30:00","11.7735","3.50596","28.352","2.822","7.53","0.204","2.934","0.02","0.13","30.3977","4.76696","31.55","2","SATNPRO1963","30.442","0.42638","5"],
    [7978,"HCEP03730564","2023-12-20 10:45:00","11.7827","3.50837","28.37","2.779","7.53","0.194","3.747","0","0","30.4135","4.76906","31.07","2","SATNPRO1963","30.45","0.42652","5"],
    [7979,"HCEP03730564","2023-12-20 11:00:00","11.7807","3.50789","28.376","2.77","7.53","0.175","2.821","0","0.11","30.4104","4.76866","30.97","2","SATNPRO1963","30.914","0.433","5"],
    [7980,"HCEP03730564","2023-12-20 11:15:00","11.7836","3.5086","28.366","2.765","7.53","0.193","2.971","0.01","0.08","30.415","4.76925","30.91","2","SATNPRO1963","31.05","0.43492","5"],
    [7981,"HCEP03730564","2023-12-20 11:30:00","11.7847","3.5089","28.339","2.764","7.53","0.188","3.049","0.02","0.14","30.4169","4.76952","30.91","2","SATNPRO1963","30.919999999999998","0.43308","5"],
    [7982,"HCEP03730564","2023-12-20 11:45:00","11.7904","3.51035","28.293","2.706","7.53","0.203","3.261","0.01","0.15","30.4262","4.77074","30.27","0","SATNPRO1963","31.092","0.43548","5"],
    [7983,"HCEP03730564","2023-12-20 12:00:00","11.7945","3.51111","28.226","2.608","7.52","0.196","3.514","0.02","0.21","30.4302","4.77125","29.17","2","SATNPRO1963","31.042","0.43478","5"],
    [7984,"HCEP03730564","2023-12-20 12:15:00","11.7996","3.51178","28.146","2.508","7.52","0.215","3.502","0.01","0.46","30.4325","4.77149","28.06","2","SATNPRO1963","30.816","0.43168","5"],
    [7985,"HCEP03730564","2023-12-20 12:30:00","11.8274","3.51633","28.052","2.074","7.5","0.204","4.143","0.01","0.16","30.4536","4.77408","23.22","2","SATNPRO1963","30.826","0.43178","5"],
    [7986,"HCEP03730564","2023-12-20 12:45:00","11.8089","3.5128","27.947","2.065","7.49","0.214","3.432","0.01","0.18","30.4348","4.77168","23.11","0","SATNPRO1963","30.406000000000002","0.42586","5"],
    [7987,"HCEP03730564","2023-12-20 13:00:00","11.8363","3.51758","27.849","1.847","7.48","0.219","4.66","0.02","0.49","30.4584","4.77461","20.68","2","SATNPRO1963","30.336000000000002","0.42492","5"],
    [7988,"HCEP03730564","2023-12-20 13:15:00","11.835","3.51732","27.734","1.653","7.46","0.242","4.326","0.03","0.29","30.457","4.77443","18.51","2","SATNPRO1963","29.57","0.4142","5"],
    [7989,"HCEP03730564","2023-12-20 13:30:00","11.8318","3.51671","27.605","1.626","7.46","0.209","4.533","0.01","0.22","30.4538","4.77401","18.21","0","SATNPRO1963","27.312","0.38254","5"],
    [7990,"HCEP03730564","2023-12-20 13:45:00","10.63","0.06646","0.003","2.449","7.47","0.029","0.314","0","0.03","0.4536","0.09326","22.26","0","SATNPRO1963","28.064","0.39308","5"],
    [7991,"HCEP03730564","2023-12-20 14:00:00","10.8756","1.63264","0.007","3.875","7.44","0.012","0.707","0.01","0.02","13.4768","2.27542","37.94","0","SATNPRO1963","27.274","0.382","5"],
    [7992,"HCEP03730564","2023-12-20 14:15:00","10.64","0.11511","-0.009","8.838","7.47","0.018","0.213","0.01","0.01","0.8042","0.16148","79.56","0","SATNPRO1963","27.404","0.38382","5"],
    [7993,"HCEP03730566","2023-12-20 14:30:00","11.8295","3.50836","26.922","2.142","7.4","0.316","4.438","0.01","0.17","30.3757","4.76297","23.97","0","SATNPRO1509","18.998","0.26612","5"],
    [7994,"HCEP03730566","2023-12-20 14:45:00","11.8235","3.51675","26.746","1.841","7.46","0.327","4.853","0.02","0.17","30.4613","4.77514","20.62","0","SATNPRO1509","19.526","0.27352","5"],
    [7995,"HCEP03730566","2023-12-20 15:00:00","11.8212","3.51644","26.565","1.878","7.49","0.321","4.872","0.01","0.15","30.4603","4.77502","21.02","0","SATNPRO1509","19.794","0.27728","5"],
    [7996,"HCEP03730566","2023-12-20 15:15:00","11.8204","3.51645","26.375","1.887","7.51","0.326","4.859","0.01","0.16","30.461","4.77513","21.13","0","SATNPRO1509","19.576","0.27416","5"],
    [7997,"HCEP03730566","2023-12-20 15:30:00","11.8231","3.51691","26.197","1.81","7.52","0.331","4.815","0.02","0.19","30.4634","4.77542","20.26","0","SATNPRO1509","19.528","0.27354","5"],
    [7998,"HCEP03730566","2023-12-20 15:45:00","11.8194","3.51634","26.004","1.866","7.52","0.328","4.948","0.01","0.21","30.461","4.77512","20.89","0","SATNPRO1509","20.246","0.2836","5"],
    [7999,"HCEP03730566","2023-12-20 16:00:00","11.8154","3.51589","25.835","1.952","7.52","0.337","5.126","0.02","0.15","30.46","4.77502","21.85","0","SATNPRO1509","20.284","0.28412","5"],
    [8000,"HCEP03730566","2023-12-20 16:15:00","11.8071","3.51453","25.695","2.143","7.53","0.335","5.28","0.01","0.15","30.4538","4.77425","23.99","0","SATNPRO1509","20.844","0.29196","5"],
    [8001,"HCEP03730566","2023-12-20 16:30:00","11.8","3.51367","25.566","2.364","7.54","0.33","5.21","0.02","0.2","30.4514","4.77401","26.46","0","SATNPRO1509","21.29","0.29822","5"],
    [8002,"HCEP03730566","2023-12-20 16:45:00","11.7946","3.51326","25.455","2.611","7.55","0.309","4.017","0.02","0.15","30.4519","4.77416","29.22","0","SATNPRO1509","22.734","0.31844","5"],
    [8003,"HCEP03730566","2023-12-20 17:00:00","11.7946","3.5135","25.379","2.665","7.55","0.301","3.937","0.02","0.19","30.4542","4.77448","29.82","0","SATNPRO1509","22.34","0.31292","5"],
    [8004,"HCEP03730566","2023-12-20 17:15:00","11.7963","3.51399","25.328","2.641","7.56","0.301","4.256","0.01","0.23","30.4575","4.77492","29.55","0","SATNPRO1509","22.605999999999998","0.31664","5"],
    [8005,"HCEP03730566","2023-12-20 17:30:00","11.7978","3.51451","25.29","2.606","7.56","0.337","5.112","0.09","0.36","30.4613","4.77543","29.16","0","SATNPRO1509","22.494","0.31502","5"],
    [8006,"HCEP03730566","2023-12-20 17:45:00","11.8002","3.51526","25.252","2.621","7.56","0.311","5.029","0.01","0.23","30.4666","4.77614","29.33","0","SATNPRO1509","22.512","0.3153","5"],
    [8007,"HCEP03730566","2023-12-20 18:00:00","11.8034","3.51611","25.249","2.616","7.55","0.317","5.448","0.02","0.26","30.4722","4.77688","29.28","0","SATNPRO1509","22.672","0.31754","5"],
    [8008,"HCEP03730566","2023-12-20 18:15:00","11.805","3.51666","25.267","2.636","7.55","0.315","4.776","0.02","0.45","30.4761","4.77741","29.5","0","SATNPRO1509","22.922","0.32106","5"],
    [8009,"HCEP03730566","2023-12-20 18:30:00","11.8068","3.51733","25.299","2.663","7.55","0.307","4.671","0.02","0.29","30.481","4.77809","29.81","0","SATNPRO1509","23.114","0.32376","5"],
    [8010,"HCEP03730566","2023-12-20 18:45:00","11.8056","3.51734","25.345","2.702","7.55","0.316","4.925","0.02","0.27","30.4822","4.77827","30.25","0","SATNPRO1509","23.26","0.3258","5"],
    [8011,"HCEP03730566","2023-12-20 19:00:00","11.8033","3.51712","25.379","2.729","7.56","0.303","4.676","0.02","0.3","30.4819","4.77827","30.54","0","SATNPRO1509","23.292","0.32626","5"],
    [8012,"HCEP03730566","2023-12-20 19:15:00","11.8","3.51698","25.425","2.791","7.56","0.304","4.724","0.02","1.1","30.4833","4.7785","31.24","0","SATNPRO1509","23.594","0.33052","5"],
    [8013,"HCEP03730566","2023-12-20 19:30:00","11.7989","3.51664","25.419","2.791","7.56","0.312","4.843","0.03","0.47","30.4809","4.77818","31.24","0","SATNPRO1509","23.246000000000002","0.32562","5"],
    [8014,"HCEP03730566","2023-12-20 19:45:00","11.7936","3.51588","25.506","2.846","7.56","0.286","3.631","0.01","0.22","30.4779","4.77784","31.85","0","SATNPRO1509","23.714","0.3322","5"],
    [8015,"HCEP03730566","2023-12-20 20:00:00","11.7968","3.51618","25.596","2.849","7.56","0.301","4.557","0.03","0.32","30.4782","4.77784","31.88","0","SATNPRO1509","23.632","0.33098","5"],
    [8016,"HCEP03730566","2023-12-20 20:15:00","11.8005","3.51641","25.746","2.736","7.56","0.299","4.55","0.01","0.24","30.4772","4.77767","30.63","0","SATNPRO1509","23.236","0.32546","5"],
    [8017,"HCEP03730566","2023-12-20 20:30:00","11.8004","3.51659","25.894","2.755","7.55","0.3","4.693","0.01","0.29","30.479","4.77792","30.83","0","SATNPRO1509","23.39","0.3276","5"],
    [8018,"HCEP03730566","2023-12-20 20:45:00","11.8013","3.51706","25.969","2.791","7.55","0.3","3.949","0.03","0.32","30.4828","4.77845","31.23","0","SATNPRO1509","23.548000000000002","0.32984","5"],
    [8019,"HCEP03730566","2023-12-20 21:00:00","11.8014","3.51729","26.083","2.796","7.55","0.308","4.968","0.02","0.36","30.4848","4.77875","31.3","0","SATNPRO1509","23.644","0.33118","5"],
    [8020,"HCEP03730566","2023-12-20 21:15:00","11.8027","3.51722","26.173","2.75","7.55","0.308","5.064","0.01","0.49","30.4831","4.77848","30.78","0","SATNPRO1509","23.306","0.32642","5"],
    [8021,"HCEP03730566","2023-12-20 21:30:00","11.804","3.51716","26.22","2.715","7.55","0.3","4.568","0.01","0.29","30.4814","4.77823","30.38","0","SATNPRO1509","23.544","0.32976","5"],
    [8022,"HCEP03730566","2023-12-20 21:45:00","11.8049","3.5172","26.366","2.708","7.55","0.303","4.38","0.03","0.15","30.481","4.77817","30.31","0","SATNPRO1509","23.578","0.33024","5"],
    [8023,"HCEP03730566","2023-12-20 22:00:00","11.8085","3.51704","26.413","2.577","7.54","0.315","5.072","0.01","0.21","30.4764","4.77747","28.84","0","SATNPRO1509","22.73","0.3184","5"],
    [8024,"HCEP03730566","2023-12-20 22:15:00","11.8116","3.5168","26.487","2.383","7.53","0.324","5.845","0.01","0.3","30.4716","4.77675","26.68","0","SATNPRO1509","22.136","0.31006","5"],
    [8025,"HCEP03730566","2023-12-20 22:30:00","11.8071","3.51574","26.59","2.427","7.53","0.32","5.156","0.01","0.3","30.465","4.7759","27.16","0","SATNPRO1509","22.558","0.31598","5"],
    [8026,"HCEP03730566","2023-12-20 22:45:00","11.8081","3.51565","26.672","2.339","7.52","0.326","5.74","0.01","0.18","30.4634","4.77565","26.17","0","SATNPRO1509","22.102","0.30956","5"],
    [8027,"HCEP03730566","2023-12-20 23:00:00","11.8124","3.5161","26.766","2.18","7.52","0.33","5.78","0.01","0.3","30.4641","4.7757","24.4","0","SATNPRO1509","21.338","0.2989","5"],
    [8028,"HCEP03730566","2023-12-20 23:15:00","11.82","3.51712","26.814","1.993","7.51","0.341","5.802","0.04","0.35","30.4677","4.7761","22.31","0","SATNPRO1509","21.258","0.29772","5"],
    [8029,"HCEP03730566","2023-12-20 23:30:00","11.8255","3.51789","26.836","1.888","7.5","0.328","4.913","0.02","0.21","30.4705","4.77642","21.14","0","SATNPRO1509","21.054","0.2949","5"],
    [8030,"HCEP03730566","2023-12-20 23:45:00","11.8297","3.51851","26.853","1.779","7.49","0.36","4.802","0.01","0.2","30.4731","4.77674","19.92","0","SATNPRO1509","20.726","0.29034","5"],
    [8031,"HCEP03730566","2023-12-21 00:00:00","11.8326","3.51893","26.832","1.702","7.48","0.332","4.844","0.02","0.21","30.4748","4.77693","19.06","0","SATNPRO1509","20.364","0.28524","5"],
    [8032,"HCEP03730566","2023-12-21 00:15:00","11.8376","3.51969","26.866","1.536","7.48","0.331","4.661","0.02","0.37","30.478","4.77731","17.21","0","SATNPRO1509","19.748","0.2766","5"],
    [8033,"HCEP03730566","2023-12-21 00:30:00","11.8388","3.5198","26.852","1.488","7.47","0.338","4.496","0.05","0.2","30.478","4.7773","16.66","0","SATNPRO1509","19.664","0.27542","5"],
    [8034,"HCEP03730566","2023-12-21 00:45:00","11.8374","3.51948","26.805","1.5","7.46","0.326","4.428","0.01","0.3","30.4762","4.77705","16.8","0","SATNPRO1509","19.872","0.27836","5"],
    [8035,"HCEP03730566","2023-12-21 01:00:00","11.8326","3.51861","26.762","1.593","7.46","0.324","4.165","0.02","0.26","30.4717","4.77649","17.84","0","SATNPRO1509","20.326","0.2847","5"],
    [8036,"HCEP03730566","2023-12-21 01:15:00","11.8279","3.5177","26.707","1.699","7.46","0.324","4.156","0.01","0.26","30.4668","4.77585","19.03","0","SATNPRO1509","20.692","0.28982","5"],
    [8037,"HCEP03730566","2023-12-21 01:30:00","11.8271","3.51748","26.671","1.694","7.47","0.318","4.194","0.01","0.2","30.4653","4.77566","18.97","0","SATNPRO1509","20.548000000000002","0.28782","5"],
    [8038,"HCEP03730566","2023-12-21 01:45:00","11.8257","3.51713","26.647","1.67","7.47","0.321","4.259","0.01","0.19","30.4632","4.77537","18.7","0","SATNPRO1509","20.286","0.28414","5"],
    [8039,"HCEP03730566","2023-12-21 02:00:00","11.8275","3.51749","26.607","1.626","7.46","0.315","4.317","0.01","0.23","30.4652","4.77564","18.2","0","SATNPRO1509","20.044","0.28074","5"],
    [8040,"HCEP03730566","2023-12-21 02:15:00","11.8277","3.51757","26.552","1.596","7.46","0.324","4.445","0.01","0.32","30.4658","4.77571","17.87","0","SATNPRO1509","20.014","0.28026","5"],
    [8041,"HCEP03730566","2023-12-21 02:30:00","11.8284","3.51756","26.503","1.583","7.46","0.316","4.192","0.01","0.21","30.4651","4.7756","17.72","0","SATNPRO1509","19.95","0.27942","5"],
    [8042,"HCEP03730566","2023-12-21 02:45:00","11.8264","3.51726","26.449","1.613","7.46","0.345","3.754","0.07","0.17","30.4639","4.77546","18.07","0","SATNPRO1509","20.062","0.28102","5"],
    [8043,"HCEP03730566","2023-12-21 03:00:00","11.8247","3.51695","26.368","1.681","7.46","0.323","4.203","0.02","0.25","30.4624","4.77526","18.82","0","SATNPRO1509","20.482","0.28688","5"],
    [8044,"HCEP03730566","2023-12-21 03:15:00","11.825","3.51707","26.313","1.685","7.46","0.321","4.203","0.01","0.15","30.4633","4.77538","18.86","0","SATNPRO1509","20.45","0.28646","5"],
    [8045,"HCEP03730566","2023-12-21 03:30:00","11.833","3.51862","26.241","1.523","7.46","0.321","4.465","0.01","0.19","30.471800000000002","4.77646","17.06","0","SATNPRO1509","19.744","0.27656","5"],
    [8046,"HCEP03730566","2023-12-21 03:45:00","11.8352","3.51898","26.191","1.462","7.45","0.331","4.382","0.01","0.13","30.4734","4.77666","16.37","0","SATNPRO1509","19.706","0.27608","5"],
    [8047,"HCEP03730566","2023-12-21 04:00:00","11.8344","3.51882","26.138","1.469","7.45","0.326","4.395","0.01","0.17","30.4725","4.77655","16.45","0","SATNPRO1509","19.76","0.27678","5"],
    [8048,"HCEP03730566","2023-12-21 04:15:00","11.8351","3.51897","26.069","1.451","7.45","0.328","4.582","0.01","0.32","30.4734","4.77665","16.25","0","SATNPRO1509","19.918","0.27896","5"],
    [8049,"HCEP03730566","2023-12-21 04:30:00","11.833","3.51866","25.989","1.501","7.45","0.318","4.154","0.01","0.24","30.4722","4.7765","16.81","0","SATNPRO1509","19.894000000000002","0.27864","5"],
    [8050,"HCEP03730566","2023-12-21 04:45:00","11.8294","3.51814","25.963","1.591","7.45","0.326","4.248","0.01","0.17","30.4701","4.77626","17.82","0","SATNPRO1509","20.366","0.2853","5"],
    [8051,"HCEP03730566","2023-12-21 05:00:00","11.8231","3.51712","25.9","1.781","7.45","0.318","4.262","0.01","0.17","30.4655","4.7757","19.94","0","SATNPRO1509","20.984","0.29394","5"],
    [8052,"HCEP03730566","2023-12-21 05:15:00","11.8188","3.51646","25.88","1.897","7.46","0.322","4.762","0.01","0.31","30.4627","4.77535","21.24","0","SATNPRO1509","21.622","0.30284","5"],
    [8053,"HCEP03730566","2023-12-21 05:30:00","11.8047","3.51386","25.853","2.102","7.47","0.319","4.917","0.01","0.26","30.4492","4.77366","23.52","0","SATNPRO1509","22.012","0.30834","5"],
    [8054,"HCEP03730566","2023-12-21 05:45:00","11.7999","3.51347","25.871","2.276","7.48","0.318","4.524","0.01","0.19","30.4494","4.77375","25.47","0","SATNPRO1509","22.72","0.3182","5"],
    [8055,"HCEP03730566","2023-12-21 06:00:00","11.7957","3.5133","25.934","2.436","7.49","0.322","5.093","0.01","0.22","30.4512","4.77407","27.25","0","SATNPRO1509","23.284","0.32614","5"],
    [8056,"HCEP03730566","2023-12-21 06:15:00","11.7897","3.51311","26.013","2.648","7.5","0.315","4.685","0.01","0.24","30.4542","4.77458","29.63","0","SATNPRO1509","24","0.33616","5"],
    [8057,"HCEP03730566","2023-12-21 06:30:00","11.7875","3.51331","26.106","2.721","7.51","0.308","4.642","0.01","0.22","30.4579","4.77514","30.44","0","SATNPRO1509","24.184","0.33876","5"],
    [8058,"HCEP03730566","2023-12-21 06:45:00","11.7868","3.51348","26.193","2.747","7.52","0.316","4.67","0.01","0.16","30.4601","4.77546","30.74","0","SATNPRO1509","23.972","0.33576","5"],
    [8059,"HCEP03730566","2023-12-21 07:00:00","11.7826","3.51304","26.281","2.816","7.52","0.309","4.784","0.01","0.21","30.4593","4.77542","31.5","0","SATNPRO1509","24.904","0.34882","5"],
    [8060,"HCEP03730566","2023-12-21 07:15:00","11.7789","3.51248","26.349","2.876","7.53","0.307","4.198","0.01","0.22","30.4569","4.77513","32.17","0","SATNPRO1509","24.568","0.34414","5"],
    [8061,"HCEP03730566","2023-12-21 07:30:00","11.7769","3.51188","26.488","2.89","7.53","0.301","4.486","0.01","0.55","30.4526","4.77457","32.32","0","SATNPRO1509","24.45","0.34248","5"],
    [8062,"HCEP03730566","2023-12-21 07:45:00","11.7761","3.51128","26.603","2.858","7.53","0.308","4.466","0.01","0.2","30.4475","4.77386","31.97","0","SATNPRO1509","24.44","0.34234","5"],
    [8063,"HCEP03730566","2023-12-21 08:00:00","11.7759","3.51091","26.734","2.821","7.53","0.301","4.716","0.01","0.2","30.4441","4.77338","31.54","0","SATNPRO1509","24.37","0.34136","5"],
    [8064,"HCEP03730566","2023-12-21 08:15:00","11.7767","3.51095","26.86","2.778","7.53","0.341","6.543","0.02","0.59","30.4437","4.77333","31.07","0","SATNPRO1509","24.48","0.3429","5"],
    [8065,"HCEP03730566","2023-12-21 08:30:00","11.7829","3.51364","27.005","2.818","7.53","0.303","4.495","0.01","0.22","30.4645","4.77618","31.53","0","SATNPRO1509","24.708000000000002","0.34606","5"],
    [8066,"HCEP03730566","2023-12-21 08:45:00","11.7805","3.51369","27.114","2.89","7.53","0.3","4.004","0.01","0.28","30.4669","4.77656","32.32","0","SATNPRO1509","24.852","0.34808","5"],
    [8067,"HCEP03730566","2023-12-21 09:00:00","11.7752","3.51289","27.279","2.952","7.53","0.309","4.607","0.01","0.29","30.4634","4.77616","33.01","0","SATNPRO1509","24.976","0.34984","5"],
    [8068,"HCEP03730566","2023-12-21 09:15:00","11.7759","3.51325","27.411","2.992","7.54","0.342","5.031","0.05","0.63","30.4663","4.77656","33.46","0","SATNPRO1509","25.137999999999998","0.35212","5"],
    [8069,"HCEP03730566","2023-12-21 09:30:00","11.7742","3.51325","27.547","3.051","7.54","0.303","4.295","0.01","1.12","30.4676","4.77678","34.13","0","SATNPRO1509","25.316","0.35458","5"],
    [8070,"HCEP03730566","2023-12-21 09:45:00","11.7718","3.51264","27.715","3.062","7.54","0.313","4.895","0.02","1.78","30.4637","4.77626","34.24","0","SATNPRO1509","25.52","0.35744","5"],
    [8071,"HCEP03730566","2023-12-21 10:00:00","11.7677","3.51222","27.851","3.089","7.55","0.309","4.713","0.03","1.28","30.463","4.77624","34.55","0","SATNPRO1509","25.632","0.35898","5"],
    [8072,"HCEP03730566","2023-12-21 10:15:00","11.7585","3.51117","27.975","3.131","7.55","0.366","6.966","0.12","4.93","30.4604","4.77601","35.01","0","SATNPRO1509","25.518","0.35746","5"],
    [8073,"HCEP03730566","2023-12-21 10:30:00","11.7485","3.51013","28.098","3.194","7.55","0.301","3.488","0.02","1.29","30.4585","4.77589","35.7","0","SATNPRO1509","25.458","0.3566","5"],
    [8074,"HCEP03730566","2023-12-21 10:45:00","11.7477","3.51019","28.175","3.188","7.55","0.312","3.377","0.03","0.16","30.4597","4.77607","35.64","0","SATNPRO1509","25.528","0.35754","5"],
    [8075,"HCEP03730566","2023-12-21 11:00:00","11.7475","3.51026","28.246","3.175","7.55","0.292","3.361","0.01","0.19","30.4605","4.77619","35.49","0","SATNPRO1509","25.483999999999998","0.35692","5"],
    [8076,"HCEP03730566","2023-12-21 11:15:00","11.7545","3.51116","28.297","3.155","7.55","0.303","3.429","0.02","0.17","30.4634","4.7765","35.28","0","SATNPRO1509","25.592","0.35846","5"],
    [8077,"HCEP03730566","2023-12-21 11:30:00","11.7632","3.51225","28.327","3.119","7.55","0.297","3.809","0.01","0.19","30.4668","4.77686","34.87","0","SATNPRO1509","25.518","0.35742","5"],
    [8078,"HCEP03730566","2023-12-21 11:45:00","11.7729","3.51342","28.306","3.06","7.55","0.306","3.066","0.02","0.13","30.4701","4.77718","34.23","0","SATNPRO1509","25.51","0.35732","5"],
    [8079,"HCEP03730566","2023-12-21 12:00:00","11.776","3.51374","28.284","3.052","7.55","0.292","2.788","0.02","0.14","30.4707","4.77723","34.14","0","SATNPRO1509","25.708","0.36014","5"],
    [8080,"HCEP03730566","2023-12-21 12:15:00","11.7743","3.5132","28.238","3.052","7.55","0.302","3.598","0.01","0.22","30.4669","4.77671","34.14","0","SATNPRO1509","25.628","0.35898","5"],
    [8081,"HCEP03730566","2023-12-21 12:30:00","11.7772","3.51361","28.193","3.022","7.54","0.286","2.756","0.01","0.09","30.4684","4.77689","33.8","0","SATNPRO1509","25.506","0.35724","5"],
    [8082,"HCEP03730566","2023-12-21 12:45:00","11.7747","3.5133","28.147","3.033","7.54","0.304","3.044","0.03","0.16","30.4675","4.77679","33.92","0","SATNPRO1509","25.578","0.35828","5"],
    [8083,"HCEP03730566","2023-12-21 13:00:00","11.7733","3.51294","28.092","3.023","7.54","0.308","4.044","0.01","0.21","30.4652","4.77648","33.8","0","SATNPRO1509","25.416","0.35598","5"],
    [8084,"HCEP03730566","2023-12-21 13:15:00","11.7762","3.51329","28.011","2.958","7.54","0.32","4.443","0.01","0.2","30.4662","4.77658","33.09","0","SATNPRO1509","25.168","0.35252","5"],
    [8085,"HCEP03730566","2023-12-21 13:30:00","11.7769","3.51315","27.86","2.908","7.54","0.324","4.741","0.01","0.5","30.4643","4.77629","32.53","0","SATNPRO1509","25.066","0.35112","5"],
    [8086,"HCEP03730566","2023-12-21 13:45:00","11.7776","3.51315","27.735","2.873","7.53","0.343","5.158","0.02","0.31","30.4639","4.77622","32.13","0","SATNPRO1509","24.934","0.34924","5"],
    [8087,"HCEP03730566","2023-12-21 14:00:00","11.7779","3.51283","27.56","2.836","7.53","0.321","5.372","0.01","0.3","30.4606","4.77573","31.73","0","SATNPRO1509","24.746","0.34664","5"],
    [8088,"HCEP03730566","2023-12-21 14:15:00","11.7789","3.5126","27.431","2.823","7.53","0.33","5.107","0.01","0.29","30.4576","4.77529","31.57","0","SATNPRO1509","24.686","0.34576","5"],
    [8089,"HCEP03730566","2023-12-21 14:30:00","11.7776","3.51203","27.276","2.828","7.53","0.321","4.777","0.01","0.26","30.4532","4.77468","31.63","0","SATNPRO1509","24.84","0.34796","5"],
    [8090,"HCEP03730566","2023-12-21 14:45:00","11.7763","3.51142","27.032","2.822","7.53","0.32","4.385","0.01","0.29","30.4485","4.77402","31.56","0","SATNPRO1509","24.812","0.34754","5"],
    [8091,"HCEP03730566","2023-12-21 15:00:00","11.7785","3.51202","26.857","2.814","7.53","0.325","5.333","0.02","0.38","30.4526","4.77456","31.48","0","SATNPRO1509","24.87","0.34836","5"],
    [8092,"HCEP03730566","2023-12-21 15:15:00","11.7774","3.51167","26.649","2.785","7.52","0.339","5.664","0.01","0.33","30.4502","4.77422","31.15","0","SATNPRO1509","24.776","0.34698","5"],
    [8093,"HCEP03730566","2023-12-21 15:30:00","11.7793","3.51179","26.496","2.723","7.52","0.34","5.958","0.02","0.36","30.4499","4.77414","30.46","0","SATNPRO1509","24.392","0.34164","5"],
    [8094,"HCEP03730566","2023-12-21 15:45:00","11.7821","3.51209","26.337","2.651","7.52","0.338","5.617","0.02","0.35","30.4504","4.77417","29.65","0","SATNPRO1509","24.35","0.3411","5"],
    [8095,"HCEP03730566","2023-12-21 16:00:00","11.7857","3.51279","26.118","2.594","7.51","0.339","6.14","0.01","0.37","30.4544","4.77467","29.02","0","SATNPRO1509","24.12","0.33786","5"],
    [8096,"HCEP03730566","2023-12-21 16:15:00","11.7937","3.5136","25.924","2.455","7.51","0.358","6.36","0.01","0.54","30.4557","4.77473","27.47","0","SATNPRO1509","23.666","0.33144","5"],
    [8097,"HCEP03730566","2023-12-21 16:30:00","11.7994","3.51384","25.696","2.238","7.5","0.342","6.182","0.02","0.57","30.4535","4.77433","25.04","0","SATNPRO1509","23.046","0.32278","5"],
    [8098,"HCEP03730566","2023-12-21 16:45:00","11.8046","3.5142","25.533","2.056","7.49","0.347","5.192","0.01","0.28","30.4527","4.77414","23.01","0","SATNPRO1509","22.31","0.31246","5"],
    [8099,"HCEP03730566","2023-12-21 17:00:00","11.8076","3.51446","25.369","1.947","7.48","0.345","5.55","0.02","0.45","30.4528","4.77409","21.79","0","SATNPRO1509","21.938","0.30732","5"],
    [8100,"HCEP03730566","2023-12-21 17:15:00","11.809","3.51454","25.232","1.874","7.47","0.342","5.379","0.02","0.44","30.4525","4.77403","20.97","0","SATNPRO1509","21.69","0.3038","5"],
    [8101,"HCEP03730566","2023-12-21 17:30:00","11.8093","3.51454","25.089","1.836","7.46","0.32","4.624","0.02","0.3","30.4523","4.77398","20.55","0","SATNPRO1509","21.584","0.3023","5"],
    [8102,"HCEP03730566","2023-12-21 17:45:00","11.8088","3.51452","24.988","1.846","7.46","0.332","4.561","0.02","0.3","30.4525","4.77401","20.66","0","SATNPRO1509","21.98","0.30786","5"],
    [8103,"HCEP03730566","2023-12-21 18:00:00","11.8084","3.51449","24.918","1.883","7.46","0.336","4.562","0.03","0.24","30.4526","4.77403","21.07","0","SATNPRO1509","22.012","0.30828","5"],
    [8104,"HCEP03730566","2023-12-21 18:15:00","11.8073","3.51461","24.853","1.952","7.46","0.326","4.626","0.01","0.29","30.4547","4.77434","21.85","0","SATNPRO1509","22.138","0.31006","5"],
    [8105,"HCEP03730566","2023-12-21 18:30:00","11.8064","3.51485","24.816","2.014","7.46","0.33","4.843","0.02","0.37","30.4578","4.77478","22.54","0","SATNPRO1509","22.372","0.31336","5"],
    [8106,"HCEP03730566","2023-12-21 18:45:00","11.8069","3.51497","24.809","2.058","7.46","0.336","4.996","0.03","0.4","30.4586","4.77488","23.03","0","SATNPRO1509","22.642","0.31718","5"],
    [8107,"HCEP03730566","2023-12-21 19:00:00","11.8046","3.51502","24.82","2.115","7.47","0.337","5.55","0.02","0.27","30.4609","4.77524","23.67","0","SATNPRO1509","22.986","0.32196","5"],
    [8108,"HCEP03730566","2023-12-21 19:15:00","11.8031","3.51498","24.835","2.181","7.47","0.342","5.379","0.02","0.29","30.4617","4.77538","24.41","0","SATNPRO1509","22.91","0.3209","5"],
    [8109,"HCEP03730566","2023-12-21 19:30:00","11.7997","3.51481","24.864","2.282","7.47","0.334","5.487","0.06","0.34","30.4629","4.7756","25.54","0","SATNPRO1509","23.232","0.3254","5"],
    [8110,"HCEP03730566","2023-12-21 19:45:00","11.799","3.51452","24.902","2.342","7.48","0.321","4.465","0.01","0.36","30.4606","4.7753","26.21","0","SATNPRO1509","23.279999999999998","0.32606","5"],
    [8111,"HCEP03730566","2023-12-21 20:00:00","11.7964","3.51432","25.022","2.389","7.48","0.323","4.67","0.01","0.2","30.4608","4.77536","26.73","0","SATNPRO1509","23.686","0.33178","5"],
    [8112,"HCEP03730566","2023-12-21 20:15:00","11.7998","3.5145","25.115","2.311","7.48","0.326","4.345","0.01","0.33","30.4597","4.77516","25.86","0","SATNPRO1509","23.486","0.32898","5"],
    [8113,"HCEP03730566","2023-12-21 20:30:00","11.8037","3.5149","25.221","2.176","7.48","0.331","4.725","0.02","0.36","30.4603","4.7752","24.35","0","SATNPRO1509","22.97","0.32174","5"],
    [8114,"HCEP03730566","2023-12-21 20:45:00","11.8051","3.51504","25.304","2.093","7.48","0.348","4.71","0.01","0.33","30.4604","4.7752","23.42","0","SATNPRO1509","22.864","0.32026","5"],
    [8115,"HCEP03730566","2023-12-21 21:00:00","11.8075","3.51512","25.407","1.985","7.47","0.346","4.823","0.02","0.29","30.4592","4.77501","22.22","0","SATNPRO1509","22.448","0.3144","5"],
    [8116,"HCEP03730566","2023-12-21 21:15:00","11.808","3.51514","25.53","1.933","7.47","0.352","5.435","0.02","0.2","30.459","4.77497","21.64","0","SATNPRO1509","22.166","0.31044","5"],
    [8117,"HCEP03730566","2023-12-21 21:30:00","11.8094","3.51514","25.653","1.884","7.46","0.348","5.852","0.02","0.34","30.4578","4.77478","21.09","0","SATNPRO1509","22.016000000000002","0.30834","5"],
    [8118,"HCEP03730566","2023-12-21 21:45:00","11.8093","3.51498","25.775","1.854","7.46","0.347","5.129","0.02","0.29","30.4563","4.77458","20.75","0","SATNPRO1509","21.986","0.30796","5"],
    [8119,"HCEP03730566","2023-12-21 22:00:00","11.8092","3.51489","25.91","1.836","7.45","0.326","4.849","0.01","0.11","30.4554","4.77446","20.55","0","SATNPRO1509","22.074","0.30916","5"],
    [8120,"HCEP03730566","2023-12-21 22:15:00","11.8102","3.51489","26.047","1.782","7.45","0.34","4.862","0.02","0.24","30.4545","4.77434","19.94","0","SATNPRO1509","21.764","0.30486","5"],
    [8121,"HCEP03730566","2023-12-21 22:30:00","11.8102","3.51459","26.152","1.699","7.45","0.327","4.721","0.01","0.21","30.4516","4.77393","19.01","0","SATNPRO1509","21.236","0.29748","5"],
    [8122,"HCEP03730566","2023-12-21 22:45:00","11.8077","3.51384","26.283","1.685","7.44","0.331","4.863","0.01","0.54","30.4464","4.77324","18.86","0","SATNPRO1509","21.4","0.29976","5"],
    [8123,"HCEP03730566","2023-12-21 23:00:00","11.8067","3.5135","26.477","1.699","7.44","0.354","4.791","0.01","0.26","30.444","4.77292","19.01","0","SATNPRO1509","21.344","0.29898","5"],
    [8124,"HCEP03730566","2023-12-21 23:15:00","11.8077","3.51372","26.57","1.669","7.44","0.35","4.935","0.01","0.33","30.4452","4.77309","18.68","0","SATNPRO1509","21.094","0.29548","5"],
    [8125,"HCEP03730566","2023-12-21 23:30:00","11.8063","3.51333","26.734","1.646","7.44","0.342","5.14","0.01","0.3","30.4425","4.77274","18.42","0","SATNPRO1509","21.156","0.29632","5"],
    [8126,"HCEP03730566","2023-12-21 23:45:00","11.8064","3.51335","26.799","1.618","7.43","0.347","5.132","0.01","0.36","30.4426","4.77274","18.11","0","SATNPRO1509","20.936","0.2932","5"],
    [8127,"HCEP03730566","2023-12-22 00:00:00","11.8061","3.51328","26.932","1.621","7.43","0.333","4.756","0.01","0.12","30.442","4.77268","18.14","0","SATNPRO1509","20.945999999999998","0.29336","5"],
    [8128,"HCEP03730566","2023-12-22 00:15:00","11.8068","3.51343","27.015","1.598","7.43","0.349","4.756","0.02","0.22","30.443","4.7728","17.88","0","SATNPRO1509","20.971999999999998","0.29376","5"],
    [8129,"HCEP03730566","2023-12-22 00:30:00","11.8068","3.51338","27.081","1.593","7.43","0.343","4.797","0.01","0.19","30.4424","4.77273","17.83","0","SATNPRO1509","21.018","0.2944","5"],
    [8130,"HCEP03730566","2023-12-22 00:45:00","11.8062","3.5132","27.142","1.572","7.43","0.347","4.646","0.03","0.18","30.4411","4.77256","17.59","0","SATNPRO1509","20.824","0.29166","5"],
    [8131,"HCEP03730566","2023-12-22 01:00:00","11.8046","3.51289","27.2","1.592","7.43","0.33","4.444","0.01","0.17","30.4395","4.77235","17.82","0","SATNPRO1509","20.89","0.29264","5"],
    [8132,"HCEP03730566","2023-12-22 01:15:00","11.8043","3.5128","27.24","1.582","7.43","0.344","4.576","0.02","0.19","30.4389","4.77228","17.7","0","SATNPRO1509","21.046","0.29474","5"],
    [8133,"HCEP03730566","2023-12-22 01:30:00","11.804","3.5128","27.216","1.629","7.43","0.328","4.356","0.01","0.16","30.439","4.7723","18.23","0","SATNPRO1509","21.304","0.29838","5"],
    [8134,"HCEP03730566","2023-12-22 01:45:00","11.8046","3.51293","27.252","1.623","7.43","0.337","4.534","0.01","0.27","30.4398","4.7724","18.16","0","SATNPRO1509","21.158","0.29632","5"],
    [8135,"HCEP03730566","2023-12-22 02:00:00","11.8046","3.51296","27.247","1.609","7.43","0.339","4.554","0.01","0.18","30.4401","4.77244","18","0","SATNPRO1509","21.154","0.2963","5"],
    [8136,"HCEP03730566","2023-12-22 02:15:00","11.8038","3.51264","27.22","1.623","7.43","0.328","3.874","0.01","0.21","30.4377","4.77212","18.16","0","SATNPRO1509","21.394","0.29964","5"],
    [8137,"HCEP03730566","2023-12-22 02:30:00","11.8044","3.51263","27.135","1.532","7.43","0.322","3.973","0.02","0.19","30.4372","4.77203","17.15","0","SATNPRO1509","20.92","0.29304","5"],
    [8138,"HCEP03730566","2023-12-22 02:45:00","11.8073","3.51326","27.046","1.483","7.42","0.334","4.67","0.02","0.22","30.4408","4.7725","16.59","0","SATNPRO1509","20.488","0.28696","5"],
    [8139,"HCEP03730566","2023-12-22 03:00:00","11.8093","3.51376","27.005","1.413","7.42","0.328","4.721","0.01","0.21","30.4441","4.77292","15.81","0","SATNPRO1509","20.208000000000002","0.28306","5"],
    [8140,"HCEP03730566","2023-12-22 03:15:00","11.8101","3.51412","26.968","1.456","7.42","0.333","4.567","0.01","0.17","30.4468","4.7733","16.3","0","SATNPRO1509","20.355999999999998","0.28512","5"],
    [8141,"HCEP03730566","2023-12-22 03:30:00","11.8098","3.51429","26.943","1.544","7.42","0.33","4.672","0.02","0.13","30.4488","4.77359","17.28","0","SATNPRO1509","20.908","0.29284","5"],
    [8142,"HCEP03730566","2023-12-22 03:45:00","11.8081","3.51425","26.923","1.665","7.42","0.333","4.71","0.01","0.19","30.4499","4.77375","18.64","0","SATNPRO1509","21.509999999999998","0.30128","5"],
    [8143,"HCEP03730566","2023-12-22 04:00:00","11.8046","3.5139","26.84","1.805","7.43","0.319","4.619","0.01","0.15","30.4493","4.77372","20.2","0","SATNPRO1509","22.418","0.31398","5"],
    [8144,"HCEP03730566","2023-12-22 04:15:00","11.7996","3.51307","26.797","1.919","7.44","0.32","4.366","0.01","0.18","30.4455","4.77325","21.47","0","SATNPRO1509","22.528","0.31552","5"],
    [8145,"HCEP03730566","2023-12-22 04:30:00","11.7972","3.5128","26.795","1.99","7.44","0.322","5.013","0.01","0.18","30.4448","4.77319","22.26","0","SATNPRO1509","22.89","0.3206","5"],
    [8146,"HCEP03730566","2023-12-22 04:45:00","11.7941","3.51256","26.74","2.068","7.45","0.331","4.978","0.02","0.21","30.4451","4.77327","23.14","0","SATNPRO1509","23.13","0.32398","5"],
    [8147,"HCEP03730566","2023-12-22 05:00:00","11.7875","3.51177","26.676","2.194","7.46","0.322","5.118","0.02","0.11","30.4429","4.77304","24.55","0","SATNPRO1509","23.733999999999998","0.3324","5"],
    [8148,"HCEP03730566","2023-12-22 05:15:00","11.7661","3.50875","26.661","2.459","7.47","0.32","4.793","0.01","0.12","30.4314","4.77172","27.5","0","SATNPRO1509","24.355999999999998","0.34116","5"],
    [8149,"HCEP03730566","2023-12-22 05:30:00","11.753","3.50724","26.641","2.647","7.48","0.314","5.238","0.01","0.15","30.4275","4.77137","29.59","0","SATNPRO1509","24.588","0.34438","5"],
    [8150,"HCEP03730566","2023-12-22 05:45:00","11.7452","3.50632","26.594","2.738","7.49","0.316","4.779","0.01","0.17","30.4251","4.77113","30.59","0","SATNPRO1509","24.82","0.34762","5"],
    [8151,"HCEP03730566","2023-12-22 06:00:00","11.7379","3.50563","26.602","2.817","7.5","0.308","4.935","0.01","0.13","30.4244","4.77114","31.47","0","SATNPRO1509","25.006","0.35022","5"],
    [8152,"HCEP03730566","2023-12-22 06:15:00","11.726","3.50401","26.529","2.888","7.51","0.316","4.962","0.01","0.19","30.4186","4.77048","32.26","0","SATNPRO1509","25.014","0.3503","5"],
    [8153,"HCEP03730566","2023-12-22 06:30:00","11.7078","3.50173","26.571","3.023","7.52","0.304","4.992","0.01","0.08","30.4114","4.76973","33.75","0","SATNPRO1509","25.178","0.3527","5"],
    [8154,"HCEP03730566","2023-12-22 06:45:00","11.6901","3.4993","26.529","3.126","7.53","0.309","4.883","0.01","0.22","30.4025","4.76873","34.88","0","SATNPRO1509","25.334","0.35486","5"],
    [8155,"HCEP03730566","2023-12-22 07:00:00","11.6726","3.49717","26.615","3.215","7.53","0.303","4.994","0.01","0.08","30.3963","4.76809","35.86","0","SATNPRO1509","25.35","0.35506","5"],
    [8156,"HCEP03730566","2023-12-22 07:15:00","11.662","3.49461","26.685","3.264","7.54","0.303","3.876","0.01","0.08","30.3802","4.76598","36.4","0","SATNPRO1509","25.45","0.35646","5"],
    [8157,"HCEP03730566","2023-12-22 07:30:00","11.6491","3.49311","26.675","3.33","7.54","0.302","4.729","0.01","0.2","30.3763","4.76562","37.13","0","SATNPRO1509","25.434","0.35624","5"],
    [8158,"HCEP03730566","2023-12-22 07:45:00","11.6448","3.49211","26.702","3.349","7.55","0.312","4.875","0.01","0.22","30.3702","4.76481","37.33","0","SATNPRO1509","25.504","0.35722","5"],
    [8159,"HCEP03730566","2023-12-22 08:00:00","11.6496","3.4922","26.792","3.346","7.55","0.297","4.425","0.01","0.22","30.3671","4.76431","37.3","0","SATNPRO1509","25.726","0.36038","5"],
    [8160,"HCEP03730566","2023-12-22 08:15:00","11.6489","3.49212","26.855","3.398","7.55","0.305","4.665","0.01","0.2","30.3669","4.76429","37.88","0","SATNPRO1509","25.862","0.36226","5"],
    [8161,"HCEP03730566","2023-12-22 08:30:00","11.6339","3.49024","26.958","3.492","7.56","0.293","4.556","0.01","0.21","30.3609","4.76367","38.91","0","SATNPRO1509","25.9","0.36274","5"],
    [8162,"HCEP03730566","2023-12-22 08:45:00","11.6207","3.48825","27.062","3.603","7.56","0.298","4.05","0.01","0.22","30.3525","4.76268","40.14","0","SATNPRO1509","26.042","0.36474","5"],
    [8163,"HCEP03730566","2023-12-22 09:00:00","11.606","3.48608","27.159","3.685","7.57","0.458","6.5","0.16","2.66","30.3435","4.76162","41.04","0","SATNPRO1509","26.03","0.3646","5"],
    [8164,"HCEP03730566","2023-12-22 09:15:00","11.5843","3.48299","27.257","3.791","7.58","0.292","3.578","0.01","0.28","30.3314","4.76023","42.2","0","SATNPRO1509","26.184","0.36672","5"],
    [8165,"HCEP03730566","2023-12-22 09:30:00","11.5813","3.48248","27.356","3.82","7.58","0.276","3.194","0.01","0.31","30.3289","4.75992","42.52","0","SATNPRO1509","26.192","0.36688","5"],
    [8166,"HCEP03730566","2023-12-22 09:45:00","11.5708","3.48126","27.451","3.858","7.58","0.304","4.143","0.01","0.28","30.3256","4.75962","42.93","0","SATNPRO1509","26.192","0.36686","5"],
    [8167,"HCEP03730566","2023-12-22 10:00:00","11.5687","3.48093","27.56","3.852","7.59","0.29","4.082","0.01","0.17","30.3241","4.75944","42.85","0","SATNPRO1509","26.196","0.36692","5"],
    [8168,"HCEP03730566","2023-12-22 10:15:00","11.5678","3.48084","27.672","3.848","7.59","0.291","3.581","0.01","0.33","30.3239","4.75943","42.81","0","SATNPRO1509","26.216","0.36718","5"],
    [8169,"HCEP03730566","2023-12-22 10:30:00","11.5676","3.48099","27.777","3.851","7.59","0.28","3.816","0.01","0.12","30.3255","4.75967","42.84","0","SATNPRO1509","26.28","0.36808","5"],
    [8170,"HCEP03730566","2023-12-22 10:45:00","11.5706","3.48171","27.873","3.833","7.59","0.29","3.651","0.01","0.07","30.33","4.76027","42.65","0","SATNPRO1509","26.24","0.36754","5"],
    [8171,"HCEP03730566","2023-12-22 11:00:00","11.5688","3.48185","27.965","3.852","7.59","0.279","3.629","0.01","0.59","30.3327","4.76068","42.86","0","SATNPRO1509","26.372","0.36938","5"],
    [8172,"HCEP03730566","2023-12-22 11:15:00","11.5685","3.48169","28.037","3.868","7.59","0.28","3.017","0.01","0.13","30.3315","4.76051","43.03","0","SATNPRO1509","26.366","0.36932","5"],
    [8173,"HCEP03730566","2023-12-22 11:30:00","11.5692","3.48199","28.081","3.86","7.59","0.273","3.02","0.01","1.45","30.3337","4.76082","42.95","0","SATNPRO1509","26.368","0.36934","5"],
    [8174,"HCEP03730566","2023-12-22 11:45:00","11.5727","3.48267","28.122","3.849","7.59","0.292","2.969","0.01","0.2","30.3374","4.7613","42.83","0","SATNPRO1509","26.338","0.36892","5"],
    [8175,"HCEP03730566","2023-12-22 12:00:00","11.5668","3.482","28.181","3.864","7.59","0.276","2.944","0.01","0.09","30.3357","4.76114","42.99","0","SATNPRO1509","26.326","0.36876","5"],
    [8176,"HCEP03730566","2023-12-22 12:15:00","11.5761","3.48336","28.167","3.8","7.59","0.297","3.754","0.01","0.43","30.3413","4.7618","42.29","0","SATNPRO1509","26.274","0.36802","5"],
    [8177,"HCEP03730566","2023-12-22 12:30:00","11.5771","3.48392","28.201","3.791","7.58","0.294","4.59","0.01","0.1","30.3459","4.76243","42.19","0","SATNPRO1509","26.066","0.3651","5"],
    [8178,"HCEP03730566","2023-12-22 12:45:00","11.5862","3.48587","28.153","3.745","7.58","0.314","5.064","0.01","0.38","30.3573","4.76391","41.69","0","SATNPRO1509","26.098","0.36558","5"],
    [8179,"HCEP03730566","2023-12-22 13:00:00","11.5916","3.48686","28.103","3.729","7.58","0.301","4.47","0.01","0.13","30.3624","4.76456","41.52","0","SATNPRO1509","26.146","0.36626","5"],
    [8180,"HCEP03730566","2023-12-22 13:15:00","11.5971","3.48768","28.078","3.705","7.58","0.309","4.209","0.01","0.14","30.3659","4.76496","41.26","0","SATNPRO1509","26.168000000000003","0.36652","5"],
    [8181,"HCEP03730566","2023-12-22 13:30:00","11.5998","3.48811","28","3.679","7.58","0.305","4.685","0.01","0.13","30.3679","4.76521","40.97","0","SATNPRO1509","26.224","0.36728","5"],
    [8182,"HCEP03730566","2023-12-22 13:45:00","11.6056","3.48868","27.938","3.651","7.57","0.31","5.075","0.01","1.09","30.3686","4.76523","40.66","0","SATNPRO1509","26.022","0.36446","5"],
    [8183,"HCEP03730566","2023-12-22 14:00:00","11.6114","3.4895","27.809","3.609","7.57","0.307","5.149","0.01","0.47","30.3718","4.76559","40.2","0","SATNPRO1509","26.086","0.36542","5"],
    [8184,"HCEP03730566","2023-12-22 14:15:00","11.6271","3.49196","27.734","3.559","7.57","0.312","4.316","0.01","0.08","30.3828","4.7669","39.66","0","SATNPRO1509","26.162","0.36648","5"],
    [8185,"HCEP03730566","2023-12-22 14:30:00","11.6361","3.49359","27.675","3.52","7.57","0.3","4.636","0.01","0.1","30.3912","4.76796","39.24","0","SATNPRO1509","26.224","0.36732","5"],
    [8186,"HCEP03730566","2023-12-22 14:45:00","11.6375","3.49369","27.475","3.515","7.56","0.305","4.373","0.01","0.18","30.3911","4.76792","39.18","0","SATNPRO1509","26.201999999999998","0.36698","5"],
    [8187,"HCEP03730566","2023-12-22 15:00:00","11.6397","3.49369","27.322","3.486","7.56","0.31","5.028","0.01","0.1","30.3893","4.76763","38.86","0","SATNPRO1509","26.018","0.3644","5"],
    [8188,"HCEP03730566","2023-12-22 15:15:00","11.6467","3.49407","27.103","3.427","7.56","0.317","4.799","0.01","0.1","30.3874","4.76724","38.2","0","SATNPRO1509","25.966","0.36374","5"],
    [8189,"HCEP03730566","2023-12-22 15:30:00","11.6533","3.49425","27.091","3.336","7.55","0.31","5.041","0.01","0.12","30.3837","4.76661","37.2","0","SATNPRO1509","25.906","0.36282","5"],
    [8190,"HCEP03730566","2023-12-22 15:45:00","11.673400000000001","3.49642","26.806","3.156","7.55","0.322","5.168","0.01","0.11","30.3884","4.76698","35.2","0","SATNPRO1509","25.508","0.35726","5"],
    [8191,"HCEP03730566","2023-12-22 16:00:00","11.689","3.49816","26.646","3.024","7.54","0.317","5.465","0.01","0.17","30.3924","4.76731","33.75","0","SATNPRO1509","25.39","0.35564","5"],
    [8192,"HCEP03730566","2023-12-22 16:15:00","11.7167","3.50175","26.319","2.834","7.52","0.327","5.236","0.01","0.14","30.4045","4.76861","31.64","0","SATNPRO1509","25.208000000000002","0.3531","5"],
    [8193,"HCEP03730566","2023-12-22 16:30:00","11.7211","3.50258","26.172","2.803","7.52","0.317","5.385","0.01","0.17","30.4089","4.76917","31.3","0","SATNPRO1509","25.272","0.354","5"],
    [8194,"HCEP03730566","2023-12-22 16:45:00","11.725","3.50321","25.932","2.766","7.51","0.333","5.759","0.01","0.12","30.4118","4.76951","30.9","0","SATNPRO1509","25.164","0.35248","5"],
    [8195,"HCEP03730566","2023-12-22 17:00:00","11.7292","3.50377","25.785","2.733","7.51","0.331","6.166","0.01","0.21","30.414","4.76974","30.53","0","SATNPRO1509","25.152","0.35232","5"],
    [8196,"HCEP03730566","2023-12-22 17:15:00","11.7344","3.50444","25.595","2.691","7.51","0.335","5.632","0.01","0.2","30.4162","4.76998","30.06","0","SATNPRO1509","25.104","0.35164","5"],
    [8197,"HCEP03730566","2023-12-22 17:30:00","11.7396","3.50511","25.391","2.646","7.5","0.332","6.285","0.01","0.12","30.4185","4.77021","29.56","0","SATNPRO1509","25.01","0.35036","5"],
    [8198,"HCEP03730566","2023-12-22 17:45:00","11.7469","3.50604","25.139","2.589","7.5","0.337","5.963","0.01","0.25","30.4215","4.77052","28.94","0","SATNPRO1509","25.004","0.3502","5"],
    [8199,"HCEP03730566","2023-12-22 18:00:00","11.7502","3.50645","24.973","2.553","7.5","0.331","6.065","0.02","0.59","30.4229","4.77066","28.54","0","SATNPRO1509","24.942","0.34936","5"],
    [8200,"HCEP03730566","2023-12-22 18:15:00","11.7516","3.5067","24.898","2.523","7.49","0.336","5.745","0.01","0.11","30.4242","4.77081","28.2","0","SATNPRO1509","24.758","0.34678","5"],
    [8201,"HCEP03730566","2023-12-22 18:30:00","11.7532","3.5069","24.757","2.515","7.49","0.328","5.669","0.01","0.14","30.4248","4.77088","28.11","0","SATNPRO1509","24.791999999999998","0.34726","5"],
    [8202,"HCEP03730566","2023-12-22 18:45:00","11.7558","3.50729","24.679","2.485","7.49","0.333","5.415","0.01","0.09","30.4265","4.77107","27.77","0","SATNPRO1509","24.788","0.34722","5"],
    [8203,"HCEP03730566","2023-12-22 19:00:00","11.7552","3.50721","24.653","2.488","7.49","0.324","5.415","0.01","0.12","30.4262","4.77104","27.81","0","SATNPRO1509","24.84","0.34794","5"],
    [8204,"HCEP03730566","2023-12-22 19:15:00","11.7529","3.50697","24.568","2.519","7.49","0.334","5.279","0.01","0.09","30.4258","4.771","28.16","0","SATNPRO1509","24.888","0.3486","5"],
    [8205,"HCEP03730566","2023-12-22 19:30:00","11.7544","3.50701","24.544","2.505","7.49","0.321","5.207","0.01","0.14","30.425","4.77088","28","0","SATNPRO1509","24.946","0.3494","5"],
    [8206,"HCEP03730566","2023-12-22 19:45:00","11.752","3.50684","24.605","2.522","7.49","0.339","5.253","0.01","0.17","30.4252","4.77094","28.19","0","SATNPRO1509","24.932","0.3492","5"],
    [8207,"HCEP03730566","2023-12-22 20:00:00","11.7471","3.50608","24.746","2.559","7.49","0.33","4.911","0.01","0.11","30.4219","4.77055","28.6","0","SATNPRO1509","25.064","0.3511","5"],
    [8208,"HCEP03730566","2023-12-22 20:15:00","11.7567","3.50692","24.579","2.446","7.49","0.335","5.198","0.01","0.27","30.4222","4.77045","27.33","0","SATNPRO1509","24.66","0.34538","5"],
    [8209,"HCEP03730566","2023-12-22 20:30:00","11.7471","3.50513","24.619","2.48","7.48","0.322","5.281","0.01","0.15","30.4128","4.76925","27.71","0","SATNPRO1509","24.96","0.34958","5"],
    [8210,"HCEP03730566","2023-12-22 20:45:00","11.7581","3.50633","24.656","2.334","7.48","0.337","5.87","0.01","0.14","30.4153","4.76946","26.08","0","SATNPRO1509","24.14","0.33812","5"],
    [8211,"HCEP03730566","2023-12-22 21:00:00","11.7894","3.51145","24.701","1.895","7.47","0.333","6.062","0.01","0.12","30.439","4.77237","21.2","0","SATNPRO1509","22.716","0.31816","5"],
    [8212,"HCEP03730566","2023-12-22 21:15:00","11.7906","3.51118","24.847","1.736","7.45","0.358","7.206","0.01","0.3","30.4354","4.77185","19.42","0","SATNPRO1509","22.416","0.31398","5"],
    [8213,"HCEP03730566","2023-12-22 21:30:00","11.7886","3.51014","24.937","1.605","7.44","0.342","6.314","0.01","0.18","30.427","4.7707","17.95","0","SATNPRO1509","21.748","0.3046","5"],
    [8214,"HCEP03730566","2023-12-22 21:45:00","11.7719","3.5066","24.981","1.722","7.43","0.349","6.39","0.01","0.35","30.4065","4.76804","19.25","0","SATNPRO1509","22.378","0.31344","5"],
    [8215,"HCEP03730566","2023-12-22 22:00:00","11.7706","3.50639","25.221","1.801","7.43","0.354","7.712","0.01","0.26","30.4055","4.76793","20.13","0","SATNPRO1509","22.44","0.31432","5"],
    [8216,"HCEP03730566","2023-12-22 22:15:00","11.7677","3.50563","25.308","1.811","7.43","0.356","6.833","0.01","0.41","30.4005","4.76727","20.24","0","SATNPRO1509","22.56","0.31602","5"],
    [8217,"HCEP03730566","2023-12-22 22:30:00","11.7495","3.50126","25.587","1.967","7.44","0.334","6.123","0.02","0.27","30.3732","4.76368","21.98","0","SATNPRO1509","23.24","0.32552","5"],
    [8218,"HCEP03730566","2023-12-22 22:45:00","11.7401","3.49909","25.699","2.04","7.45","0.34","5.593","0.01","0.25","30.36","4.76195","22.79","0","SATNPRO1509","23.378","0.32744","5"],
    [8219,"HCEP03730566","2023-12-22 23:00:00","11.7442","3.49963","25.873","1.955","7.45","0.324","5.216","0.01","0.21","30.3617","4.76215","21.84","0","SATNPRO1509","22.958000000000002","0.32156","5"],
    [8220,"HCEP03730566","2023-12-22 23:15:00","11.7512","3.50104","26.019","1.869","7.44","0.34","5.834","0.01","0.19","30.3695","4.76316","20.88","0","SATNPRO1509","22.768","0.31888","5"],
    [8221,"HCEP03730566","2023-12-22 23:30:00","11.7457","3.49976","26.176","1.889","7.44","0.34","6.332","0.01","0.44","30.3617","4.76214","21.1","0","SATNPRO1509","22.87","0.32034","5"],
    [8222,"HCEP03730566","2023-12-22 23:45:00","11.7323","3.49628","26.337","1.975","7.44","0.347","6.2","0.01","0.26","30.339","4.75913","22.05","0","SATNPRO1509","23.056","0.3229","5"],
    [8223,"HCEP03730566","2023-12-23 00:00:00","11.7249","3.49428","26.516","2.033","7.45","0.343","6.511","0.01","0.24","30.3257","4.75737","22.69","0","SATNPRO1509","23.258","0.32578","5"],
    [8224,"HCEP03730566","2023-12-23 00:15:00","11.7207","3.49328","26.67","2.029","7.45","0.354","6.699","0.01","0.24","30.3195","4.75656","22.64","0","SATNPRO1509","23.146","0.32418","5"],
    [8225,"HCEP03730566","2023-12-23 00:30:00","11.7266","3.49462","26.881","1.92","7.45","0.34","6.593","0.01","0.29","30.3274","4.75761","21.44","0","SATNPRO1509","22.708","0.31806","5"],
    [8226,"HCEP03730566","2023-12-23 00:45:00","11.7295","3.49538","27.024","1.887","7.44","0.35","6.21","0.01","0.22","30.3324","4.75827","21.06","0","SATNPRO1509","22.772","0.31896","5"],
    [8227,"HCEP03730566","2023-12-23 01:00:00","11.7294","3.49544","27.108","1.893","7.44","0.331","5.467","0.01","0.27","30.333","4.75837","21.13","0","SATNPRO1509","22.742","0.31858","5"],
    [8228,"HCEP03730566","2023-12-23 01:15:00","11.7319","3.49587","27.217","1.871","7.44","0.338","5.456","0.01","0.19","30.3351","4.75863","20.89","0","SATNPRO1509","22.732","0.31836","5"],
    [8229,"HCEP03730566","2023-12-23 01:30:00","11.7282","3.49498","27.331","1.901","7.44","0.329","5.549","0.01","0.29","30.3295","4.7579","21.22","0","SATNPRO1509","22.812","0.31954","5"],
    [8230,"HCEP03730566","2023-12-23 01:45:00","11.7266","3.49465","27.422","1.925","7.44","0.339","5.289","0.01","0.37","30.3276","4.75766","21.49","0","SATNPRO1509","23","0.3221","5"],
    [8231,"HCEP03730566","2023-12-23 02:00:00","11.7252","3.49428","27.5","1.935","7.44","0.334","5.09","0.02","0.46","30.3251","4.75733","21.6","0","SATNPRO1509","22.708000000000002","0.31804","5"],
    [8232,"HCEP03730566","2023-12-23 02:15:00","11.7256","3.49431","27.537","1.928","7.44","0.341","5.003","0.01","0.49","30.3251","4.75732","21.53","0","SATNPRO1509","22.9","0.32074","5"],
    [8233,"HCEP03730566","2023-12-23 02:30:00","11.7234","3.49368","27.548","1.93","7.44","0.326","4.712","0.01","0.36","30.3208","4.75675","21.54","0","SATNPRO1509","22.606","0.31666","5"],
    [8234,"HCEP03730566","2023-12-23 02:45:00","11.7208","3.49308","27.542","1.943","7.44","0.332","4.625","0.01","0.47","30.317","4.75626","21.69","0","SATNPRO1509","22.954","0.32152","5"],
    [8235,"HCEP03730566","2023-12-23 03:00:00","11.7238","3.49387","27.573","1.927","7.44","0.322","4.284","0.01","0.3","30.3223","4.75696","21.51","0","SATNPRO1509","22.924","0.32112","5"],
    [8236,"HCEP03730566","2023-12-23 03:15:00","11.7257","3.49439","27.582","1.911","7.44","0.352","4.582","0.04","0.45","30.3257","4.75742","21.34","0","SATNPRO1509","22.746","0.31862","5"],
    [8237,"HCEP03730566","2023-12-23 03:30:00","11.7223","3.49392","27.588","1.975","7.44","0.329","4.717","0.01","0.61","30.3239","4.75721","22.05","0","SATNPRO1509","23.122","0.32386","5"],
    [8238,"HCEP03730566","2023-12-23 03:45:00","11.7148","3.49303","27.602","2.018","7.44","0.345","5.063","0.02","0.42","30.3215","4.75698","22.52","0","SATNPRO1509","23.048","0.32282","5"],
    [8239,"HCEP03730566","2023-12-23 04:00:00","11.7118","3.49185","27.291","2.046","7.45","0.326","5.038","0.01","0.32","30.3127","4.75576","22.83","0","SATNPRO1509","23.034","0.32262","5"],
    [8240,"HCEP03730566","2023-12-23 04:15:00","11.74","3.49839","27.281","1.815","7.44","0.344","5.361","0.01","0.21","30.3526","4.761","20.27","0","SATNPRO1509","22.47","0.31478","5"],
    [8241,"HCEP03730566","2023-12-23 04:30:00","11.7495","3.50043","27.234","1.695","7.43","0.344","5.2","0.01","0.28","30.3646","4.76255","18.94","0","SATNPRO1509","22.150000000000002","0.31024","5"],
    [8242,"HCEP03730566","2023-12-23 04:45:00","11.7542","3.50143","27.162","1.648","7.43","0.336","4.958","0.01","0.2","30.3704","4.76331","18.41","0","SATNPRO1509","22.106","0.3096","5"],
    [8243,"HCEP03730566","2023-12-23 05:00:00","11.7556","3.50162","27.135","1.59","7.42","0.323","4.707","0.01","0.22","30.371","4.76337","17.77","0","SATNPRO1509","21.87","0.30632","5"],
    [8244,"HCEP03730566","2023-12-23 05:15:00","11.7546","3.5012","27.076","1.566","7.42","0.335","4.557","0.01","0.25","30.3679","4.76294","17.49","0","SATNPRO1509","21.716","0.30418","5"],
    [8245,"HCEP03730566","2023-12-23 05:30:00","11.7505","3.50014","27.026","1.555","7.42","0.32","4.454","0.01","0.2","30.361","4.76202","17.37","0","SATNPRO1509","21.678","0.30362","5"],
    [8246,"HCEP03730566","2023-12-23 05:45:00","11.7477","3.49939","27.026","1.562","7.42","0.328","4.297","0.01","0.29","30.3562","4.76138","17.45","0","SATNPRO1509","21.556","0.30194","5"],
    [8247,"HCEP03730566","2023-12-23 06:00:00","11.7486","3.49968","27.004","1.569","7.41","0.322","4.405","0.01","0.17","30.3582","4.76165","17.53","0","SATNPRO1509","21.67","0.30356","5"],
    [8248,"HCEP03730566","2023-12-23 06:15:00","11.75","3.50003","26.971","1.584","7.42","0.322","4.02","0.01","0.32","30.3605","4.76196","17.69","0","SATNPRO1509","21.762","0.3048","5"],
    [8249,"HCEP03730566","2023-12-23 06:30:00","11.751","3.50033","26.902","1.615","7.42","0.317","4.227","0.01","0.12","30.3625","4.76222","18.05","0","SATNPRO1509","22.128","0.30996","5"],
    [8250,"HCEP03730566","2023-12-23 06:45:00","11.7472","3.49995","26.797","1.763","7.42","0.323","3.915","0.01","0.17","30.3621","4.76221","19.69","0","SATNPRO1509","22.796","0.31932","5"],
    [8251,"HCEP03730566","2023-12-23 07:00:00","11.7448","3.49949","26.819","1.804","7.42","0.31","3.876","0.02","0.19","30.3596","4.76189","20.15","0","SATNPRO1509","22.818","0.31962","5"],
    [8252,"HCEP03730566","2023-12-23 07:15:00","11.7404","3.49867","26.758","1.855","7.43","0.318","3.687","0.01","0.19","30.3553","4.76134","20.72","0","SATNPRO1509","22.986","0.32194","5"],
    [8253,"HCEP03730566","2023-12-23 07:30:00","11.7373","3.4982","26.72","1.902","7.43","0.309","3.866","0.01","0.18","30.3532","4.76109","21.25","0","SATNPRO1509","23.242","0.32554","5"],
    [8254,"HCEP03730566","2023-12-23 07:45:00","11.7341","3.49771","26.706","1.952","7.44","0.34","4.001","0.01","0.15","30.3511","4.76084","21.8","0","SATNPRO1509","23.41","0.32788","5"],
    [8255,"HCEP03730566","2023-12-23 08:00:00","11.7268","3.49648","26.7","2.032","7.44","0.321","4.444","0.02","0.46","30.3453","4.76012","22.69","0","SATNPRO1509","23.672","0.33152","5"],
    [8256,"HCEP03730566","2023-12-23 08:15:00","11.7208","3.49558","26.748","2.096","7.44","0.324","4.32","0.01","0.57","30.3415","4.75967","23.4","0","SATNPRO1509","23.688","0.3318","5"],
    [8257,"HCEP03730566","2023-12-23 08:30:00","11.72","3.49529","26.777","2.12","7.45","0.312","4.697","0.01","0.55","30.3394","4.75938","23.66","0","SATNPRO1509","23.918","0.335","5"],
    [8258,"HCEP03730566","2023-12-23 08:45:00","11.7196","3.4953","26.836","2.127","7.45","0.318","4.133","0.01","0.48","30.3397","4.75945","23.74","0","SATNPRO1509","23.922","0.33502","5"],
    [8259,"HCEP03730566","2023-12-23 09:00:00","11.7218","3.49586","26.864","2.12","7.45","0.312","4.449","0.01","0.32","30.3433","4.75992","23.67","0","SATNPRO1509","23.983999999999998","0.33594","5"],
    [8260,"HCEP03730566","2023-12-23 09:15:00","11.7232","3.49643","26.926","2.113","7.45","0.327","4.414","0.01","0.32","30.3477","4.76053","23.59","0","SATNPRO1509","23.862","0.33422","5"],
    [8261,"HCEP03730566","2023-12-23 09:30:00","11.6966","3.49416","26.987","2.401","7.46","0.308","4.02","0.01","0.18","30.3476","4.76089","26.79","0","SATNPRO1509","24.25","0.33964","5"],
    [8262,"HCEP03730566","2023-12-23 09:45:00","11.7014","3.4948","27.054","2.394","7.46","0.334","4.311","0.02","0.18","30.3497","4.76113","26.71","0","SATNPRO1509","24.6","0.34452","5"],
    [8263,"HCEP03730566","2023-12-23 10:00:00","11.6918","3.49363","27.136","2.526","7.47","0.314","3.907","0.01","0.17","30.3463","4.76078","28.18","0","SATNPRO1509","24.76","0.3468","5"],
    [8264,"HCEP03730566","2023-12-23 10:15:00","11.6688","3.4907","27.238","2.657","7.48","0.319","3.607","0.01","0.22","30.3367","4.75977","29.63","0","SATNPRO1509","25.208","0.35308","5"],
    [8265,"HCEP03730566","2023-12-23 10:30:00","11.6559","3.48885","27.295","2.789","7.49","0.298","3.42","0.01","0.15","30.3294","4.75892","31.09","0","SATNPRO1509","25.584","0.35832","5"],
    [8266,"HCEP03730566","2023-12-23 10:45:00","11.6454","3.48744","27.415","2.881","7.5","0.313","3.186","0.01","0.13","30.3243","4.75836","32.11","0","SATNPRO1509","25.682","0.35968","5"],
    [8267,"HCEP03730566","2023-12-23 11:00:00","11.6315","3.4857","27.511","3.006","7.5","0.307","3.727","0.03","0.45","30.3189","4.75779","33.49","0","SATNPRO1509","25.868","0.36228","5"],
    [8268,"HCEP03730566","2023-12-23 11:15:00","11.6313","3.48559","27.608","3.041","7.51","0.307","3.276","0.01","0.19","30.318","4.75768","33.88","0","SATNPRO1509","25.826","0.36178","5"],
    [8269,"HCEP03730566","2023-12-23 11:30:00","11.6341","3.48578","27.723","3.012","7.51","0.29","3.404","0.01","0.58","30.3174","4.75756","33.55","0","SATNPRO1509","25.792","0.36126","5"],
    [8270,"HCEP03730566","2023-12-23 11:45:00","11.6307","3.48529","27.752","3.027","7.51","0.3","3.075","0.01","1.32","30.3154","4.75733","33.72","0","SATNPRO1509","26.124","0.36592","5"],
    [8271,"HCEP03730566","2023-12-23 12:00:00","11.633","3.48576","27.805","3.015","7.52","0.309","3.981","0.02","1.27","30.3181","4.75767","33.59","0","SATNPRO1509","25.922","0.3631","5"],
    [8272,"HCEP03730566","2023-12-23 12:15:00","11.6414","3.48717","27.875","2.954","7.51","0.301","3.153","0.01","0.24","30.3248","4.7585","32.91","0","SATNPRO1509","25.784","0.36118","5"],
    [8273,"HCEP03730566","2023-12-23 12:30:00","11.6511","3.48868","27.943","2.86","7.51","0.298","3.654","0.02","1.02","30.3314","4.75931","31.88","0","SATNPRO1509","25.588","0.3584","5"],
    [8274,"HCEP03730566","2023-12-23 12:45:00","11.6396","3.48781","27.989","2.949","7.51","0.305","3.392","0.01","0.3","30.3324","4.75962","32.86","0","SATNPRO1509","25.798000000000002","0.36134","5"],
    [8275,"HCEP03730566","2023-12-23 13:00:00","11.6403","3.48808","28.049","2.959","7.51","0.299","3.468","0.01","0.19","30.3344","4.75989","32.98","0","SATNPRO1509","25.698","0.35994","5"],
    [8276,"HCEP03730566","2023-12-23 13:15:00","11.642","3.48847","28.034","2.938","7.51","0.386","5.468","0.06","2.52","30.3368","4.76021","32.74","0","SATNPRO1509","25.632","0.359","5"],
    [8277,"HCEP03730566","2023-12-23 13:30:00","11.6383","3.48814","28.02","2.963","7.51","0.331","4.42","0.02","0.32","30.3366","4.76023","33.02","0","SATNPRO1509","25.72","0.36024","5"],
    [8278,"HCEP03730566","2023-12-23 13:45:00","11.6416","3.48859","28.007","2.949","7.51","0.325","3.478","0.04","0.2","30.3383","4.76043","32.86","0","SATNPRO1509","25.726","0.36034","5"],
    [8279,"HCEP03730566","2023-12-23 14:00:00","11.6317","3.48753","27.957","2.974","7.51","0.336","3.699","0.02","0.29","30.3361","4.76026","33.14","0","SATNPRO1509","25.784","0.36116","5"],
    [8280,"HCEP03730566","2023-12-23 14:15:00","11.6026","3.48502","27.893","3.3","7.52","0.354","4.108","0.02","0.21","30.3358","4.76062","36.74","0","SATNPRO1509","26.458000000000002","0.3706","5"],
    [8281,"HCEP03730566","2023-12-23 14:30:00","11.6143","3.48672","27.815","3.264","7.53","0.345","4.07","0.03","0.24","30.3427","4.76142","36.35","0","SATNPRO1509","26.33","0.36878","5"],
    [8282,"HCEP03730566","2023-12-23 14:45:00","11.614","3.48699","27.722","3.252","7.53","0.315","3.625","0.01","0.18","30.3455","4.76183","36.22","0","SATNPRO1509","26.136","0.36614","5"],
    [8283,"HCEP03730566","2023-12-23 15:00:00","11.616","3.48702","27.613","3.234","7.53","0.322","4.327","0.03","0.17","30.3442","4.76161","36.02","0","SATNPRO1509","26.176000000000002","0.36662","5"],
    [8284,"HCEP03730566","2023-12-23 15:15:00","11.6178","3.48744","27.483","3.236","7.53","0.328","3.871","0.02","0.15","30.3469","4.76195","36.04","0","SATNPRO1509","26.184","0.36678","5"],
    [8285,"HCEP03730566","2023-12-23 15:30:00","11.6218","3.48793","27.316","3.209","7.53","0.309","3.927","0.01","0.21","30.3484","4.7621","35.74","0","SATNPRO1509","26.206","0.367","5"],
    [8286,"HCEP03730566","2023-12-23 15:45:00","11.6214","3.48768","27.126","3.203","7.53","0.322","3.939","0.02","0.25","30.3464","4.76181","35.68","0","SATNPRO1509","26.31","0.36856","5"],
    [8287,"HCEP03730566","2023-12-23 16:00:00","11.6164","3.4868","26.939","3.23","7.53","0.303","3.951","0.01","0.18","30.3421","4.76126","35.97","0","SATNPRO1509","26.282","0.36816","5"],
    [8288,"HCEP03730566","2023-12-23 16:15:00","11.6038","3.48526","26.742","3.307","7.53","0.321","4.287","0.01","0.29","30.3376","4.7608","36.82","0","SATNPRO1509","26.306","0.36844","5"],
    [8289,"HCEP03730566","2023-12-23 16:30:00","11.6019","3.4852","26.536","3.34","7.54","0.303","4.179","0.01","0.24","30.3386","4.76095","37.19","0","SATNPRO1509","26.502","0.37122","5"],
    [8290,"HCEP03730566","2023-12-23 16:45:00","11.6097","3.48578","26.309","3.288","7.54","0.312","3.718","0.01","0.14","30.3379","4.76073","36.62","0","SATNPRO1509","26.432","0.37024","5"],
    [8291,"HCEP03730566","2023-12-23 17:00:00","11.6246","3.48713","26.084","3.184","7.53","0.289","2.947","0.01","0.14","30.3388","4.76063","35.47","0","SATNPRO1509","26.358","0.36916","5"],
    [8292,"HCEP03730566","2023-12-23 17:15:00","11.6107","3.48572","25.851","3.263","7.53","0.31","3.855","0.01","0.3","30.3367","4.76052","36.33","0","SATNPRO1509","26.5","0.37116","5"],
    [8293,"HCEP03730566","2023-12-23 17:30:00","11.6177","3.4868","25.591","3.225","7.53","0.31","4.386","0.01","0.24","30.3415","4.76108","35.92","0","SATNPRO1509","26.342","0.36896","5"],
    [8294,"HCEP03730566","2023-12-23 17:45:00","11.6154","3.48624","25.361","3.226","7.53","0.313","4.006","0.01","0.22","30.3381","4.76062","35.93","0","SATNPRO1509","26.41","0.3699","5"],
    [8295,"HCEP03730566","2023-12-23 18:00:00","11.6137","3.48589","25.113","3.223","7.53","0.303","3.985","0.01","0.18","30.3362","4.76036","35.89","0","SATNPRO1509","26.408","0.3699","5"],
    [8296,"HCEP03730566","2023-12-23 18:15:00","11.6094","3.48509","24.945","3.239","7.53","0.316","4.103","0.01","0.23","30.332","4.75983","36.07","0","SATNPRO1509","26.492","0.3711","5"],
    [8297,"HCEP03730566","2023-12-23 18:30:00","11.6098","3.48468","24.746","3.219","7.53","0.303","3.846","0.01","0.25","30.3278","4.75921","35.85","0","SATNPRO1509","26.306","0.36844","5"],
    [8298,"HCEP03730566","2023-12-23 18:45:00","11.6151","3.48488","24.448","3.146","7.53","0.32","4.026","0.01","0.2","30.3255","4.7588","35.03","0","SATNPRO1509","26.226","0.3673","5"],
    [8299,"HCEP03730566","2023-12-23 19:00:00","11.6242","3.48513","24.35","3.028","7.52","0.327","4.456","0.02","0.18","30.3205","4.75795","33.72","0","SATNPRO1509","25.874000000000002","0.36238","5"],
    [8300,"HCEP03730566","2023-12-23 19:15:00","11.6353","3.48552","24.279","2.895","7.52","0.322","4.141","0.01","0.26","30.3153","4.75705","32.25","0","SATNPRO1509","25.663999999999998","0.3595","5"],
    [8301,"HCEP03730566","2023-12-23 19:30:00","11.6451","3.48623","24.189","2.777","7.51","0.308","4.117","0.01","0.16","30.3142","4.75676","30.94","0","SATNPRO1509","25.451999999999998","0.35648","5"],
    [8302,"HCEP03730566","2023-12-23 19:45:00","11.6569","3.4876","24.169","2.631","7.5","0.326","4.13","0.01","0.13","30.3178","4.75709","29.32","0","SATNPRO1509","25.174","0.35262","5"],
    [8303,"HCEP03730566","2023-12-23 20:00:00","11.6667","3.48863","24.135","2.512","7.49","0.336","4.472","0.02","0.18","30.3198","4.75723","28.01","0","SATNPRO1509","24.752","0.34668","5"],
    [8304,"HCEP03730566","2023-12-23 20:15:00","11.6785","3.48967","24.121","2.367","7.48","0.328","4.291","0.02","0.13","30.3201","4.75711","26.4","0","SATNPRO1509","24.594","0.3445","5"],
    [8305,"HCEP03730566","2023-12-23 20:30:00","11.6877","3.49027","24.125","2.222","7.47","0.325","4.695","0.01","0.13","30.3183","4.75672","24.78","0","SATNPRO1509","24.104","0.33762","5"],
    [8306,"HCEP03730566","2023-12-23 20:45:00","11.6946","3.49078","24.158","2.111","7.47","0.332","4.328","0.01","0.13","30.3177","4.75654","23.55","0","SATNPRO1509","23.87","0.33434","5"],
    [8307,"HCEP03730566","2023-12-23 21:00:00","11.7019","3.49143","24.205","2.008","7.46","0.322","4.306","0.01","0.12","30.3179","4.75647","22.4","0","SATNPRO1509","23.576","0.33026","5"],
    [8308,"HCEP03730566","2023-12-23 21:15:00","11.7083","3.49214","24.267","1.924","7.45","0.351","20","0.05","10.66","30.3195","4.7566","21.47","0","SATNPRO1509","23.244","0.32554","5"],
    [8309,"HCEP03730566","2023-12-23 21:30:00","11.7132","3.49258","24.302","1.829","7.44","0.631","13.663","0.12","3.5","30.3197","4.75657","20.41","0","SATNPRO1509","23.048000000000002","0.32282","5"],
    [8310,"HCEP03730566","2023-12-23 21:45:00","11.714","3.49251","24.442","1.783","7.44","0.309","6.743","0.01","1.86","30.3184","4.75637","19.89","0","SATNPRO1509","22.878","0.32042","5"],
    [8311,"HCEP03730566","2023-12-23 22:00:00","11.7119","3.49206","24.554","1.784","7.43","0.33","4.492","0.01","0.21","30.3158","4.75604","19.91","0","SATNPRO1509","22.904","0.32084","5"],
    [8312,"HCEP03730566","2023-12-23 22:15:00","11.7113","3.49178","24.699","1.777","7.43","0.342","4.767","0.01","0.25","30.3135","4.75574","19.83","0","SATNPRO1509","22.866","0.32026","5"],
    [8313,"HCEP03730566","2023-12-23 22:30:00","11.7118","3.49178","24.84","1.772","7.43","0.344","5.73","0.01","0.3","30.313","4.75567","19.77","0","SATNPRO1509","22.766","0.31888","5"],
    [8314,"HCEP03730566","2023-12-23 22:45:00","11.7098","3.49133","25.087","1.786","7.43","0.345","5.047","0.01","0.14","30.3102","4.75531","19.93","0","SATNPRO1509","22.986","0.32196","5"],
    [8315,"HCEP03730566","2023-12-23 23:00:00","11.7063","3.49052","25.257","1.821","7.43","0.335","5.021","0.01","0.22","30.3052","4.75467","20.32","0","SATNPRO1509","23.018","0.3224","5"],
    [8316,"HCEP03730566","2023-12-23 23:15:00","11.7007","3.48939","25.438","1.837","7.43","0.342","4.911","0.01","0.28","30.2988","4.75385","20.49","0","SATNPRO1509","23.01","0.3223","5"],
    [8317,"HCEP03730566","2023-12-23 23:30:00","11.6946","3.48792","25.617","1.877","7.43","0.337","5.126","0.01","0.31","30.2896","4.75264","20.93","0","SATNPRO1509","23.126","0.32394","5"],
    [8318,"HCEP03730566","2023-12-23 23:45:00","11.6894","3.48675","25.801","1.898","7.43","0.37","5.011","0.03","0.3","30.2825","4.75172","21.16","0","SATNPRO1509","23.236","0.32546","5"],
    [8319,"HCEP03730566","2023-12-24 00:00:00","11.6855","3.48579","25.99","1.914","7.43","0.333","5.019","0.01","0.39","30.2763","4.75091","21.35","0","SATNPRO1509","23.19","0.32486","5"],
    [8320,"HCEP03730566","2023-12-24 00:15:00","11.6828","3.48522","26.191","1.933","7.43","0.342","5.076","0.01","0.43","30.2729","4.75049","21.55","0","SATNPRO1509","23.226","0.3253","5"],
    [8321,"HCEP03730566","2023-12-24 00:30:00","11.6799","3.48452","26.381","1.956","7.44","0.341","5.084","0.01","0.35","30.2684","4.7499","21.81","0","SATNPRO1509","23.264000000000003","0.32584","5"],
    [8322,"HCEP03730566","2023-12-24 00:45:00","11.6794","3.4844","26.579","1.962","7.44","0.349","5.024","0.01","0.24","30.2676","4.74981","21.87","0","SATNPRO1509","23.268","0.32592","5"],
    [8323,"HCEP03730566","2023-12-24 01:00:00","11.6798","3.48455","26.803","1.964","7.44","0.335","4.964","0.01","0.24","30.2687","4.74996","21.9","0","SATNPRO1509","23.36","0.3272","5"],
    [8324,"HCEP03730566","2023-12-24 01:15:00","11.681","3.48508","26.991","1.949","7.44","0.349","4.869","0.01","0.29","30.2727","4.75052","21.73","0","SATNPRO1509","23.262","0.32582","5"],
    [8325,"HCEP03730566","2023-12-24 01:30:00","11.6864","3.48604","27.138","1.908","7.43","0.335","4.918","0.01","0.23","30.2775","4.75114","21.28","0","SATNPRO1509","23.16","0.3244","5"],
    [8326,"HCEP03730566","2023-12-24 01:45:00","11.6893","3.48674","27.407","1.889","7.43","0.344","4.803","0.01","0.22","30.2818","4.75171","21.06","0","SATNPRO1509","23.116","0.32378","5"],
    [8327,"HCEP03730566","2023-12-24 02:00:00","11.6927","3.4875","27.514","1.858","7.43","0.336","4.823","0.01","0.33","30.2862","4.7523","20.72","0","SATNPRO1509","23.07","0.32314","5"],
    [8328,"HCEP03730566","2023-12-24 02:15:00","11.6948","3.48804","27.656","1.841","7.43","0.349","5.027","0.01","0.37","30.2897","4.75277","20.53","0","SATNPRO1509","23.072","0.3232","5"],
    [8329,"HCEP03730566","2023-12-24 02:30:00","11.6986","3.48883","27.699","1.819","7.43","0.332","4.756","0.01","0.16","30.2942","4.75336","20.29","0","SATNPRO1509","23.018","0.3224","5"],
    [8330,"HCEP03730566","2023-12-24 02:45:00","11.7007","3.48937","27.803","1.798","7.43","0.341","4.511","0.01","0.19","30.2977","4.75382","20.06","0","SATNPRO1509","22.928","0.32114","5"],
    [8331,"HCEP03730566","2023-12-24 03:00:00","11.7035","3.49004","27.837","1.782","7.43","0.33","4.147","0.01","0.2","30.3019","4.75438","19.88","0","SATNPRO1509","22.791999999999998","0.31922","5"],
    [8332,"HCEP03730566","2023-12-24 03:15:00","11.7044","3.49055","27.802","1.773","7.42","0.334","4.202","0.01","0.19","30.306","4.75494","19.79","0","SATNPRO1509","22.788","0.31916","5"],
    [8333,"HCEP03730566","2023-12-24 03:30:00","11.7039","3.49054","27.752","1.785","7.42","0.328","4.245","0.02","0.23","30.3063","4.755","19.91","0","SATNPRO1509","22.966","0.32164","5"],
    [8334,"HCEP03730566","2023-12-24 03:45:00","11.7029","3.49052","27.782","1.812","7.42","0.335","4.218","0.01","0.22","30.307","4.7551","20.22","0","SATNPRO1509","23.092","0.3234","5"],
    [8335,"HCEP03730566","2023-12-24 04:00:00","11.6996","3.49023","27.824","1.865","7.43","0.324","4.523","0.01","0.18","30.3069","4.75514","20.81","0","SATNPRO1509","23.208","0.32506","5"],
    [8336,"HCEP03730566","2023-12-24 04:15:00","11.6946","3.48974","27.77","1.944","7.43","0.334","4.869","0.01","0.5","30.3063","4.75512","21.68","0","SATNPRO1509","23.342000000000002","0.32694","5"],
    [8337,"HCEP03730566","2023-12-24 04:30:00","11.6875","3.48902","27.777","2.041","7.44","0.328","5.016","0.02","0.32","30.3051","4.75505","22.76","0","SATNPRO1509","23.726","0.33232","5"],
    [8338,"HCEP03730566","2023-12-24 04:45:00","11.6644","3.48726","27.732","2.374","7.45","0.318","3.938","0.01","0.18","30.307","4.75566","26.47","0","SATNPRO1509","24.727999999999998","0.34634","5"],
    [8339,"HCEP03730566","2023-12-24 05:00:00","11.66","3.48699","27.668","2.455","7.46","0.304","3.844","0.01","0.21","30.308","4.75586","27.36","0","SATNPRO1509","25.032","0.3506","5"],
    [8340,"HCEP03730566","2023-12-24 05:15:00","11.6143","3.48423","27.603","2.887","7.48","0.336","6.087","0.01","0.43","30.3187","4.75802","32.15","0","SATNPRO1509","26.136","0.36608","5"],
    [8341,"HCEP03730566","2023-12-24 05:30:00","11.604","3.48434","27.566","3.078","7.49","0.32","5.787","0.01","0.28","30.3282","4.75951","34.27","0","SATNPRO1509","26.172","0.36656","5"],
    [8342,"HCEP03730566","2023-12-24 05:45:00","11.6057","3.48471","27.53","3.086","7.5","0.332","5.255","0.02","0.4","30.3303","4.75979","34.36","0","SATNPRO1509","26.286","0.36822","5"],
    [8343,"HCEP03730566","2023-12-24 06:00:00","11.6092","3.48486","27.469","3.065","7.51","0.327","5.415","0.01","0.22","30.329","4.75954","34.13","0","SATNPRO1509","26.282","0.36812","5"],
    [8344,"HCEP03730566","2023-12-24 06:15:00","11.6122","3.48503","27.491","3.036","7.51","0.343","5.042","0.01","0.28","30.3282","4.75938","33.81","0","SATNPRO1509","26.32","0.36864","5"],
    [8345,"HCEP03730566","2023-12-24 06:30:00","11.610900000000001","3.48503","27.443","3.049","7.51","0.315","5.124","0.01","0.15","30.3293","4.75956","33.95","0","SATNPRO1509","26.362000000000002","0.36926","5"],
    [8346,"HCEP03730566","2023-12-24 06:45:00","11.6104","3.48502","27.387","3.062","7.51","0.35","5.226","0.01","0.32","30.3296","4.7596","34.1","0","SATNPRO1509","26.376","0.36942","5"],
    [8347,"HCEP03730566","2023-12-24 07:00:00","11.6106","3.48488","27.317","3.07","7.51","0.316","4.759","0.01","0.3","30.3282","4.7594","34.18","0","SATNPRO1509","26.41","0.3699","5"],
    [8348,"HCEP03730566","2023-12-24 07:15:00","11.608","3.4847","27.247","3.096","7.52","0.347","4.577","0.03","0.16","30.3285","4.75947","34.48","0","SATNPRO1509","26.578","0.37228","5"],
    [8349,"HCEP03730566","2023-12-24 07:30:00","11.6065","3.48442","27.209","3.113","7.52","0.319","4.641","0.02","0.31","30.3271","4.75929","34.66","0","SATNPRO1509","26.66","0.3734","5"],
    [8350,"HCEP03730566","2023-12-24 07:45:00","11.6038","3.48369","27.197","3.126","7.52","0.334","4.755","0.02","0.26","30.3222","4.75865","34.8","0","SATNPRO1509","26.65","0.3733","5"],
    [8351,"HCEP03730566","2023-12-24 08:00:00","11.6","3.48313","27.123","3.16","7.52","0.325","4.64","0.01","0.23","30.3199","4.75837","35.18","0","SATNPRO1509","26.732","0.37444","5"],
    [8352,"HCEP03730566","2023-12-24 08:15:00","11.5985","3.48256","27.076","3.168","7.52","0.355","4.95","0.03","0.6","30.3157","4.75779","35.27","0","SATNPRO1509","26.768","0.37496","5"],
    [8353,"HCEP03730566","2023-12-24 08:30:00","11.5972","3.48164","27.065","3.164","7.52","0.316","4.545","0.01","0.19","30.3079","4.7567","35.22","0","SATNPRO1509","26.826","0.37574","5"],
    [8354,"HCEP03730566","2023-12-24 08:45:00","11.5965","3.48111","27.067","3.158","7.52","0.321","4.324","0.01","0.24","30.3034","4.75608","35.15","0","SATNPRO1509","26.742","0.3746","5"],
    [8355,"HCEP03730566","2023-12-24 09:00:00","11.5955","3.48055","27.082","3.153","7.52","0.304","4.46","0.01","0.24","30.2987","4.75544","35.1","0","SATNPRO1509","26.740000000000002","0.37454","5"],
    [8356,"HCEP03730566","2023-12-24 09:15:00","11.5936","3.47955","27.007","3.153","7.52","0.311","3.832","0.01","0.18","30.2907","4.75432","35.1","0","SATNPRO1509","26.904","0.37684","5"],
    [8357,"HCEP03730566","2023-12-24 09:30:00","11.5911","3.47844","27.009","3.156","7.52","0.303","3.815","0.01","0.15","30.282","4.75313","35.11","0","SATNPRO1509","26.928","0.37714","5"],
    [8358,"HCEP03730566","2023-12-24 09:45:00","11.592","3.47865","27.146","3.148","7.52","0.311","3.832","0.01","0.15","30.2832","4.75329","35.03","0","SATNPRO1509","26.756","0.37476","5"],
    [8359,"HCEP03730566","2023-12-24 10:00:00","11.5922","3.47834","27.197","3.132","7.52","0.307","4.339","0.01","0.18","30.28","4.75284","34.85","0","SATNPRO1509","26.804","0.37548","5"],
    [8360,"HCEP03730566","2023-12-24 10:15:00","11.59","3.47795","27.214","3.15","7.52","0.326","4.525","0.02","0.16","30.2781","4.75261","35.05","0","SATNPRO1509","26.736","0.37446","5"],
    [8361,"HCEP03730566","2023-12-24 10:30:00","11.5836","3.47753","27.327","3.204","7.52","0.306","4.449","0.01","0.13","30.2791","4.75285","35.65","0","SATNPRO1509","26.922","0.37706","5"],
    [8362,"HCEP03730566","2023-12-24 10:45:00","11.5766","3.47699","27.39","3.282","7.53","0.325","4.485","0.01","0.15","30.2797","4.75303","36.51","0","SATNPRO1509","27.056","0.37896","5"],
    [8363,"HCEP03730566","2023-12-24 11:00:00","11.5739","3.47687","27.402","3.321","7.53","0.308","4.277","0.01","0.2","30.2807","4.75322","36.95","0","SATNPRO1509","27.062","0.37906","5"],
    [8364,"HCEP03730566","2023-12-24 11:15:00","11.5727","3.47699","27.449","3.347","7.53","0.313","3.792","0.01","0.16","30.2828","4.75354","37.23","0","SATNPRO1509","27.186","0.3808","5"],
    [8365,"HCEP03730566","2023-12-24 11:30:00","11.5738","3.47728","27.584","3.343","7.54","0.309","4.154","0.02","0.16","30.2846","4.75378","37.18","0","SATNPRO1509","27.18","0.38074","5"],
    [8366,"HCEP03730566","2023-12-24 11:45:00","11.5742","3.47741","27.665","3.338","7.54","0.318","4.101","0.01","0.23","30.2855","4.75391","37.13","0","SATNPRO1509","27.242","0.3816","5"],
    [8367,"HCEP03730566","2023-12-24 12:00:00","11.5757","3.47775","27.742","3.322","7.54","0.308","4.199","0.01","0.14","30.2875","4.75417","36.95","0","SATNPRO1509","27.182","0.38074","5"],
    [8368,"HCEP03730566","2023-12-24 12:15:00","11.578","3.47829","27.808","3.296","7.53","0.327","4.318","0.01","0.29","30.2909","4.75462","36.67","0","SATNPRO1509","27.048000000000002","0.37882","5"],
    [8369,"HCEP03730566","2023-12-24 12:30:00","11.5805","3.47888","27.782","3.288","7.53","0.309","4.347","0.01","0.15","30.2945","4.75509","36.59","0","SATNPRO1509","27.05","0.3789","5"],
    [8370,"HCEP03730566","2023-12-24 12:45:00","11.5825","3.47942","27.943","3.28","7.53","0.318","4.078","0.01","0.55","30.2981","4.75559","36.49","0","SATNPRO1509","27.032","0.3786","5"],
    [8371,"HCEP03730566","2023-12-24 13:00:00","11.5845","3.47974","27.945","3.262","7.53","0.31","4.396","0.01","0.12","30.2995","4.75575","36.3","0","SATNPRO1509","26.968","0.37772","5"],
    [8372,"HCEP03730566","2023-12-24 13:15:00","11.5866","3.48026","27.923","3.239","7.53","0.314","3.941","0.01","0.25","30.3029","4.7562","36.05","0","SATNPRO1509","26.976","0.37784","5"],
    [8373,"HCEP03730566","2023-12-24 13:30:00","11.5901","3.48067","28.023","3.206","7.53","0.314","4.562","0.01","0.38","30.3039","4.75629","35.68","0","SATNPRO1509","26.914","0.37696","5"],
    [8374,"HCEP03730566","2023-12-24 13:45:00","11.5934","3.48147","27.927","3.194","7.53","0.313","3.591","0.01","0.16","30.309","4.75697","35.56","0","SATNPRO1509","27.018","0.37844","5"],
    [8375,"HCEP03730566","2023-12-24 14:00:00","11.5981","3.48197","27.943","3.146","7.53","0.31","3.947","0.02","0.18","30.31","4.75704","35.02","0","SATNPRO1509","26.810000000000002","0.37554","5"],
    [8376,"HCEP03730566","2023-12-24 14:15:00","11.6002","3.48219","28.069","3.109","7.52","0.328","4.621","0.01","0.29","30.3104","4.75708","34.61","0","SATNPRO1509","26.62","0.37286","5"],
    [8377,"HCEP03730566","2023-12-24 14:30:00","11.6025","3.48253","27.997","3.094","7.52","0.323","4.473","0.02","0.37","30.3117","4.75723","34.44","0","SATNPRO1509","26.73","0.3744","5"],
    [8378,"HCEP03730566","2023-12-24 14:45:00","11.6038","3.48271","27.939","3.072","7.52","0.318","3.972","0.01","0.43","30.3124","4.7573","34.21","0","SATNPRO1509","26.734","0.37446","5"],
    [8379,"HCEP03730566","2023-12-24 15:00:00","11.605","3.48297","27.852","3.05","7.52","0.322","5.26","0.01","0.37","30.3141","4.75751","33.96","0","SATNPRO1509","26.6","0.37258","5"],
    [8380,"HCEP03730566","2023-12-24 15:15:00","11.6065","3.48321","27.782","3.036","7.52","0.334","4.991","0.01","0.26","30.3152","4.75764","33.8","0","SATNPRO1509","26.494","0.37108","5"],
    [8381,"HCEP03730566","2023-12-24 15:30:00","11.6085","3.48365","27.651","3.026","7.51","0.318","5.057","0.01","0.81","30.3178","4.75798","33.69","0","SATNPRO1509","26.526","0.37156","5"],
    [8382,"HCEP03730566","2023-12-24 15:45:00","11.6097","3.48388","27.554","3.013","7.51","0.326","4.825","0.01","0.78","30.3192","4.75815","33.55","0","SATNPRO1509","26.482","0.37086","5"],
    [8383,"HCEP03730566","2023-12-24 16:00:00","11.6106","3.48385","27.373","3.001","7.51","0.314","4.688","0.01","0.38","30.3182","4.75799","33.42","0","SATNPRO1509","26.45","0.37046","5"],
    [8384,"HCEP03730566","2023-12-24 16:15:00","11.6136","3.48456","27.168","2.989","7.51","0.329","4.977","0.01","0.84","30.3226","4.75856","33.28","0","SATNPRO1509","26.404","0.36982","5"],
    [8385,"HCEP03730566","2023-12-24 16:30:00","11.6153","3.4847","26.939","2.964","7.51","0.313","5.062","0.01","0.82","30.3226","4.75853","33.01","0","SATNPRO1509","26.311999999999998","0.36856","5"],
    [8386,"HCEP03730566","2023-12-24 16:45:00","11.6177","3.48462","26.665","2.923","7.51","0.325","4.891","0.01","0.33","30.3201","4.75812","32.55","0","SATNPRO1509","26.247999999999998","0.36764","5"],
    [8387,"HCEP03730566","2023-12-24 17:00:00","11.6181","3.48441","26.498","2.886","7.51","0.318","4.929","0.01","0.23","30.3177","4.75776","32.14","0","SATNPRO1509","26.105999999999998","0.36566","5"],
    [8388,"HCEP03730566","2023-12-24 17:15:00","11.6117","3.48312","26.249","2.913","7.5","0.331","4.684","0.01","0.19","30.3106","4.75683","32.44","0","SATNPRO1509","26.264","0.36788","5"],
    [8389,"HCEP03730566","2023-12-24 17:30:00","11.6089","3.48228","26.047","2.901","7.5","0.35","5.588","0.02","0.25","30.3049","4.75606","32.3","0","SATNPRO1509","26.082","0.3653","5"],
    [8390,"HCEP03730566","2023-12-24 17:45:00","11.6082","3.48168","25.79","2.866","7.5","0.362","5.469","0.02","0.28","30.2998","4.75533","31.91","0","SATNPRO1509","25.964000000000002","0.36368","5"],
    [8391,"HCEP03730566","2023-12-24 18:00:00","11.6039","3.48121","25.671","2.888","7.5","1.596","39.917","0.99","29.92","30.2988","4.75524","32.15","0","SATNPRO1509","25.998","0.36412","5"],
    [8392,"HCEP03730566","2023-12-24 18:15:00","11.5946","3.47991","25.388","2.966","7.5","0.33","4.901","0.01","0.2","30.2939","4.75467","33.01","0","SATNPRO1509","26.206","0.36704","5"],
    [8393,"HCEP03730566","2023-12-24 18:30:00","11.5924","3.47957","25.182","2.986","7.51","0.32","5.032","0.01","0.11","30.2926","4.75451","33.23","0","SATNPRO1509","26.26","0.3678","5"],
    [8394,"HCEP03730566","2023-12-24 18:45:00","11.5984","3.47964","24.947","2.92","7.51","0.329","4.89","0.01","0.16","30.2883","4.75381","32.49","0","SATNPRO1509","26.1","0.36562","5"],
    [8395,"HCEP03730566","2023-12-24 19:00:00","11.6041","3.47936","24.706","2.841","7.5","0.32","4.848","0.01","0.19","30.2811","4.75269","31.62","0","SATNPRO1509","25.89","0.3626","5"],
    [8396,"HCEP03730566","2023-12-24 19:15:00","11.6102","3.47913","24.49","2.755","7.5","0.325","4.648","0.01","0.25","30.274","4.75159","30.66","0","SATNPRO1509","25.784","0.36118","5"],
    [8397,"HCEP03730566","2023-12-24 19:30:00","11.6192","3.48071","24.292","2.666","7.49","0.32","4.964","0.01","0.19","30.282","4.75258","29.68","0","SATNPRO1509","25.56","0.35802","5"],
    [8398,"HCEP03730566","2023-12-24 19:45:00","11.6304","3.48217","24.24","2.549","7.49","0.344","5.277","0.01","0.26","30.287","4.75311","28.39","0","SATNPRO1509","25.23","0.35336","5"],
    [8399,"HCEP03730566","2023-12-24 20:00:00","11.6342","3.48246","24.138","2.501","7.48","0.325","5.108","0.01","0.21","30.2867","4.75302","27.85","0","SATNPRO1509","25.186","0.35276","5"],
    [8400,"HCEP03730566","2023-12-24 20:15:00","11.6418","3.48367","24.062","2.434","7.48","0.334","4.861","0.01","0.13","30.2922","4.75368","27.11","0","SATNPRO1509","25.072","0.35116","5"],
    [8401,"HCEP03730566","2023-12-24 20:30:00","11.6429","3.48376","24.009","2.412","7.47","0.332","5.116","0.01","0.19","30.2922","4.75366","26.87","0","SATNPRO1509","25.036","0.35068","5"],
    [8402,"HCEP03730566","2023-12-24 20:45:00","11.6453","3.48384","23.959","2.38","7.47","0.341","4.938","0.01","0.17","30.2911","4.75346","26.51","0","SATNPRO1509","24.928","0.34914","5"],
    [8403,"HCEP03730566","2023-12-24 21:00:00","11.6478","3.48413","24.015","2.351","7.47","0.333","5.253","0.01","0.15","30.2918","4.75354","26.19","0","SATNPRO1509","24.919999999999998","0.34908","5"],
    [8404,"HCEP03730566","2023-12-24 21:15:00","11.6492","3.4843","24.074","2.325","7.46","0.341","5.125","0.01","0.16","30.2922","4.75358","25.9","0","SATNPRO1509","24.802","0.3474","5"],
    [8405,"HCEP03730566","2023-12-24 21:30:00","11.6493","3.48401","24.072","2.306","7.46","0.332","5.214","0.01","0.18","30.2894","4.75318","25.69","0","SATNPRO1509","24.822","0.34764","5"],
    [8406,"HCEP03730566","2023-12-24 21:45:00","11.6509","3.48386","24.072","2.257","7.46","0.346","5.36","0.01","0.19","30.2866","4.75275","25.15","0","SATNPRO1509","24.612","0.34474","5"],
    [8407,"HCEP03730566","2023-12-24 22:00:00","11.6547","3.48368","24.13","2.182","7.46","0.334","5.225","0.01","0.22","30.2817","4.75202","24.32","0","SATNPRO1509","24.268","0.33994","5"],
    [8408,"HCEP03730566","2023-12-24 22:15:00","11.6583","3.48327","24.241","2.089","7.45","0.345","5.3","0.01","0.2","30.2748","4.75099","23.28","0","SATNPRO1509","23.946","0.3354","5"],
    [8409,"HCEP03730566","2023-12-24 22:30:00","11.6586","3.48242","24.321","2.022","7.44","0.344","6.19","0.01","0.35","30.2663","4.7498","22.54","0","SATNPRO1509","23.698","0.33192","5"],
    [8410,"HCEP03730566","2023-12-24 22:45:00","11.6575","3.48124","24.48","1.981","7.44","0.352","5.738","0.01","0.24","30.2559","4.74834","22.07","0","SATNPRO1509","23.566","0.3301","5"],
    [8411,"HCEP03730566","2023-12-24 23:00:00","11.6523","3.47964","24.615","1.968","7.44","0.355","7.144","0.01","0.46","30.2445","4.74682","21.93","0","SATNPRO1509","23.434","0.32824","5"],
    [8412,"HCEP03730566","2023-12-24 23:15:00","11.6454","3.47766","24.759","1.973","7.44","0.375","8.328","0.01","0.38","30.231","4.74502","21.98","0","SATNPRO1509","23.34","0.32694","5"],
    [8413,"HCEP03730566","2023-12-24 23:30:00","11.636","3.47518","24.995","2.01","7.44","0.386","10.763","0.01","0.7","30.2148","4.74286","22.38","0","SATNPRO1509","23.288","0.32616","5"],
    [8414,"HCEP03730566","2023-12-24 23:45:00","11.6265","3.47272","25.159","2.057","7.44","0.411","12.358","0.01","0.98","30.1987","4.74073","22.9","0","SATNPRO1509","23.286","0.32616","5"],
    [8415,"HCEP03730566","2023-12-25 00:00:00","11.6149","3.4696","25.179","2.102","7.44","0.416","13.414","0.01","0.85","30.178","4.73797","23.39","0","SATNPRO1509","23.388","0.32758","5"],
    [8416,"HCEP03730566","2023-12-25 00:15:00","11.6064","3.46731","25.295","2.136","7.44","0.439","14.006","0.02","0.69","30.1628","4.73594","23.76","0","SATNPRO1509","23.398","0.3277","5"],
    [8417,"HCEP03730566","2023-12-25 00:30:00","11.6002","3.46541","25.678","2.161","7.44","0.397","11.672","0.01","0.41","30.1493","4.73414","24.03","0","SATNPRO1509","23.378","0.32744","5"],
    [8418,"HCEP03730566","2023-12-25 00:45:00","11.595","3.46375","25.977","2.18","7.45","0.396","10.075","0.01","0.4","30.1373","4.73254","24.24","0","SATNPRO1509","23.62","0.3308","5"],
    [8419,"HCEP03730566","2023-12-25 01:00:00","11.5894","3.46219","26.278","2.203","7.45","0.368","9.291","0.01","0.27","30.1267","4.73114","24.49","0","SATNPRO1509","23.558","0.32998","5"],
    [8420,"HCEP03730566","2023-12-25 01:15:00","11.5891","3.46213","26.495","2.209","7.45","0.387","8.648","0.01","0.26","30.1263","4.73109","24.55","0","SATNPRO1509","23.612","0.33072","5"],
    [8421,"HCEP03730566","2023-12-25 01:30:00","11.5881","3.46192","26.731","2.211","7.45","0.367","8.079","0.01","0.24","30.125","4.73094","24.58","0","SATNPRO1509","23.536","0.32964","5"],
    [8422,"HCEP03730566","2023-12-25 01:45:00","11.5901","3.46254","26.979","2.201","7.45","0.375","7.393","0.01","0.27","30.1292","4.73152","24.47","0","SATNPRO1509","23.71","0.33208","5"],
    [8423,"HCEP03730566","2023-12-25 02:00:00","11.5915","3.46283","27.189","2.196","7.45","0.368","7.254","0.01","0.58","30.1308","4.73174","24.41","0","SATNPRO1509","23.654","0.33134","5"],
    [8424,"HCEP03730566","2023-12-25 02:15:00","11.593","3.4632","27.331","2.177","7.45","0.378","7.4","0.01","0.77","30.1331","4.73204","24.2","0","SATNPRO1509","23.546","0.32978","5"],
    [8425,"HCEP03730566","2023-12-25 02:30:00","11.59","3.46236","27.608","2.184","7.45","0.381","6.708","0.02","0.23","30.1274","4.73129","24.28","0","SATNPRO1509","23.558","0.32996","5"],
    [8426,"HCEP03730566","2023-12-25 02:45:00","11.5927","3.46279","27.734","2.168","7.45","0.381","6.387","0.02","0.33","30.1293","4.73154","24.1","0","SATNPRO1509","23.544","0.3298","5"],
    [8427,"HCEP03730566","2023-12-25 03:00:00","11.5945","3.46314","27.867","2.163","7.45","0.374","6.502","0.02","0.4","30.1312","4.73178","24.05","0","SATNPRO1509","23.526","0.32954","5"],
    [8428,"HCEP03730566","2023-12-25 03:15:00","11.5925","3.46293","27.996","2.18","7.45","0.359","5.151","0.01","0.4","30.1306","4.73174","24.23","0","SATNPRO1509","24.07","0.33714","5"],
    [8429,"HCEP03730566","2023-12-25 03:30:00","11.5801","3.46162","27.964","2.296","7.45","0.342","5.153","0.01","0.4","30.1281","4.73156","25.52","0","SATNPRO1509","23.98","0.33586","5"],
    [8430,"HCEP03730566","2023-12-25 03:45:00","11.5971","3.46596","27.77","2.261","7.45","0.343","4.686","0.02","0.22","30.1562","4.73528","25.14","0","SATNPRO1509","24.058","0.33692","5"],
    [8431,"HCEP03730566","2023-12-25 04:00:00","11.6094","3.4691","27.827","2.176","7.45","0.337","5.677","0.01","0.21","30.1766","4.738","24.21","0","SATNPRO1509","23.962","0.33564","5"],
    [8432,"HCEP03730566","2023-12-25 04:15:00","11.6126","3.47082","27.854","2.218","7.45","0.35","5.871","0.01","0.28","30.1905","4.73991","24.68","0","SATNPRO1509","24.046","0.3368","5"],
    [8433,"HCEP03730566","2023-12-25 04:30:00","11.6171","3.47206","27.915","2.202","7.45","0.336","5.81","0.01","0.17","30.1988","4.74103","24.5","0","SATNPRO1509","24.116","0.33778","5"],
    [8434,"HCEP03730566","2023-12-25 04:45:00","11.6197","3.47304","27.838","2.2","7.45","0.349","5.672","0.01","0.15","30.2062","4.74204","24.49","0","SATNPRO1509","24.188","0.33882","5"],
    [8435,"HCEP03730566","2023-12-25 05:00:00","11.62","3.47377","27.921","2.235","7.45","0.335","5.907","0.01","0.38","30.2129","4.74299","24.88","0","SATNPRO1509","24.242","0.33954","5"],
    [8436,"HCEP03730566","2023-12-25 05:15:00","11.6147","3.47298","27.905","2.291","7.45","0.339","5.249","0.01","0.11","30.2097","4.7426","25.5","0","SATNPRO1509","24.422","0.34206","5"],
    [8437,"HCEP03730566","2023-12-25 05:30:00","11.6093","3.47173","27.911","2.325","7.46","0.328","5.261","0.01","0.2","30.202","4.7416","25.87","0","SATNPRO1509","24.51","0.34328","5"],
    [8438,"HCEP03730566","2023-12-25 05:45:00","11.6011","3.46907","27.914","2.343","7.46","0.331","4.769","0.01","0.13","30.1829","4.73902","26.06","0","SATNPRO1509","24.418000000000003","0.34204","5"],
    [8439,"HCEP03730566","2023-12-25 06:00:00","11.5906","3.46651","27.858","2.386","7.46","0.322","4.584","0.01","0.12","30.1669","4.73689","26.53","0","SATNPRO1509","24.51","0.34332","5"],
    [8440,"HCEP03730566","2023-12-25 06:15:00","11.5825","3.46545","27.849","2.463","7.46","0.326","4.253","0.01","0.09","30.1632","4.7365","27.39","0","SATNPRO1509","24.698","0.34592","5"],
    [8441,"HCEP03730566","2023-12-25 06:30:00","11.5753","3.46531","27.752","2.544","7.47","0.319","4.671","0.01","0.25","30.1677","4.73722","28.28","0","SATNPRO1509","24.954","0.34948","5"],
    [8442,"HCEP03730566","2023-12-25 06:45:00","11.543","3.46231","27.725","2.821","7.48","0.322","4.112","0.01","0.14","30.165","4.73731","31.34","0","SATNPRO1509","25.438","0.35628","5"],
    [8443,"HCEP03730566","2023-12-25 07:00:00","11.548400000000001","3.46296","27.696","2.806","7.49","0.317","4.391","0.02","0.23","30.1669","4.73749","31.17","0","SATNPRO1509","25.42","0.35602","5"],
    [8444,"HCEP03730566","2023-12-25 07:15:00","11.541","3.46218","27.723","2.884","7.49","0.32","4.146","0.01","0.13","30.1654","4.73739","32.03","0","SATNPRO1509","25.692","0.3599","5"],
    [8445,"HCEP03730566","2023-12-25 07:30:00","11.5342","3.46064","27.57","2.916","7.5","0.304","3.824","0.01","0.2","30.1561","4.73616","32.38","0","SATNPRO1509","25.706","0.36004","5"],
    [8446,"HCEP03730566","2023-12-25 07:45:00","11.5224","3.45852","27.529","2.994","7.5","0.321","4.033","0.01","0.17","30.1452","4.73479","33.24","0","SATNPRO1509","25.884","0.36258","5"],
    [8447,"HCEP03730566","2023-12-25 08:00:00","11.5168","3.45705","27.506","3.026","7.5","0.304","3.702","0.01","0.18","30.1356","4.73351","33.59","0","SATNPRO1509","25.892","0.36266","5"],
    [8448,"HCEP03730566","2023-12-25 08:15:00","11.5126","3.45564","27.354","3.033","7.51","0.311","3.516","0.01","0.25","30.1254","4.73211","33.66","0","SATNPRO1509","25.884","0.36256","5"],
    [8449,"HCEP03730566","2023-12-25 08:30:00","11.5107","3.45531","27.291","3.047","7.51","0.305","3.79","0.01","0.18","30.1238","4.73192","33.81","0","SATNPRO1509","25.848","0.36202","5"],
    [8450,"HCEP03730566","2023-12-25 08:45:00","11.5109","3.45494","27.277","3.038","7.51","0.314","3.539","0.01","0.14","30.12","4.73138","33.72","0","SATNPRO1509","25.88","0.36246","5"],
    [8451,"HCEP03730566","2023-12-25 09:00:00","11.5125","3.4546","27.196","3.019","7.51","0.306","3.684","0.01","0.17","30.1155","4.73071","33.5","0","SATNPRO1509","25.79","0.36122","5"],
    [8452,"HCEP03730566","2023-12-25 09:15:00","11.5229","3.45641","27.132","2.942","7.51","0.325","4.373","0.01","0.13","30.1246","4.73184","32.65","0","SATNPRO1509","25.642","0.35916","5"],
    [8453,"HCEP03730566","2023-12-25 09:30:00","11.523","3.46162","27.122","3.059","7.51","0.324","5.723","0.01","0.2","30.1748","4.73895","33.97","0","SATNPRO1509","26.1","0.36558","5"],
    [8454,"HCEP03730566","2023-12-25 09:45:00","11.5524","3.46683","27.056","2.918","7.5","0.331","5.101","0.01","0.14","30.2013","4.74227","32.42","0","SATNPRO1509","25.88","0.36252","5"],
    [8455,"HCEP03730566","2023-12-25 10:00:00","11.5625","3.46856","27.07","2.829","7.5","0.32","5.266","0.01","0.12","30.2099","4.74334","31.44","0","SATNPRO1509","25.722","0.36028","5"],
    [8456,"HCEP03730566","2023-12-25 10:15:00","11.5738","3.47006","27.149","2.739","7.49","0.332","5.095","0.01","0.15","30.2151","4.74392","30.46","0","SATNPRO1509","25.604","0.35864","5"],
    [8457,"HCEP03730566","2023-12-25 10:30:00","11.5733","3.47003","27.104","2.732","7.49","0.326","5.706","0.01","0.18","30.2151","4.74393","30.38","0","SATNPRO1509","25.580000000000002","0.3583","5"],
    [8458,"HCEP03730566","2023-12-25 10:45:00","11.5837","3.47184","27.198","2.67","7.49","0.332","4.896","0.01","0.14","30.2242","4.74506","29.7","0","SATNPRO1509","25.492","0.35704","5"],
    [8459,"HCEP03730566","2023-12-25 11:00:00","11.5892","3.47205","27.255","2.619","7.48","0.324","4.854","0.01","0.16","30.2216","4.74463","29.14","0","SATNPRO1509","25.34","0.35492","5"],
    [8460,"HCEP03730566","2023-12-25 11:15:00","11.5937","3.47294","27.237","2.581","7.48","0.333","5.018","0.01","0.39","30.2266","4.74527","28.71","0","SATNPRO1509","25.38","0.3555","5"],
    [8461,"HCEP03730566","2023-12-25 11:30:00","11.5915","3.47269","27.364","2.589","7.48","0.324","5.083","0.01","0.16","30.226","4.74522","28.8","0","SATNPRO1509","25.334","0.35482","5"],
    [8462,"HCEP03730566","2023-12-25 11:45:00","11.5939","3.47294","27.417","2.579","7.48","0.33","4.391","0.01","0.32","30.2264","4.74525","28.69","0","SATNPRO1509","25.286","0.35418","5"],
    [8463,"HCEP03730566","2023-12-25 12:00:00","11.5859","3.47196","27.471","2.622","7.48","0.325","4.875","0.01","0.12","30.2234","4.74494","29.16","0","SATNPRO1509","25.484","0.35694","5"],
    [8464,"HCEP03730566","2023-12-25 12:15:00","11.5843","3.4717","27.614","2.646","7.48","0.334","4.717","0.01","0.13","30.2222","4.7448","29.43","0","SATNPRO1509","25.474","0.35682","5"],
    [8465,"HCEP03730566","2023-12-25 12:30:00","11.5841","3.47168","27.607","2.649","7.48","0.317","4.356","0.01","0.15","30.2221","4.74478","29.46","0","SATNPRO1509","25.488","0.35702","5"],
    [8466,"HCEP03730566","2023-12-25 12:45:00","11.5828","3.47159","27.745","2.656","7.48","0.331","4.6","0.01","0.12","30.2222","4.74483","29.54","0","SATNPRO1509","25.48","0.35684","5"],
    [8467,"HCEP03730566","2023-12-25 13:00:00","11.5764","3.47033","27.626","2.691","7.48","0.322","4.675","0.01","0.14","30.2154","4.74395","29.93","0","SATNPRO1509","25.558","0.358","5"],
    [8468,"HCEP03730566","2023-12-25 13:15:00","11.573","3.46996","27.71","2.71","7.48","0.326","4.097","0.01","0.14","30.2146","4.74389","30.13","0","SATNPRO1509","25.528","0.35758","5"],
    [8469,"HCEP03730566","2023-12-25 13:30:00","11.5798","3.47098","27.803","2.678","7.48","0.311","4.2","0.01","0.09","30.2188","4.74439","29.78","0","SATNPRO1509","25.572","0.3582","5"],
    [8470,"HCEP03730566","2023-12-25 13:45:00","11.5634","3.46881","27.914","2.755","7.49","0.316","3.45","0.01","0.18","30.2111","4.74355","30.63","0","SATNPRO1509","25.544","0.3578","5"],
    [8471,"HCEP03730566","2023-12-25 14:00:00","11.5757","3.47011","27.755","2.675","7.49","0.308","3.773","0.01","0.11","30.2138","4.74374","29.75","0","SATNPRO1509","25.432","0.35624","5"],
    [8472,"HCEP03730566","2023-12-25 14:15:00","11.5799","3.47055","27.905","2.623","7.48","0.325","4.569","0.01","0.14","30.2146","4.7438","29.17","0","SATNPRO1509","25.246000000000002","0.3536","5"],
    [8473,"HCEP03730566","2023-12-25 14:30:00","11.5845","3.47105","27.818","2.575","7.48","0.312","4.17","0.01","0.28","30.2156","4.74388","28.64","0","SATNPRO1509","25.192","0.35286","5"],
    [8474,"HCEP03730566","2023-12-25 14:45:00","11.5826","3.47058","27.81","2.575","7.48","0.327","4.369","0.01","0.15","30.2127","4.74349","28.64","0","SATNPRO1509","25.236","0.35348","5"],
    [8475,"HCEP03730566","2023-12-25 15:00:00","11.5839","3.4704","27.856","2.549","7.48","0.315","4.461","0.01","0.2","30.2098","4.74307","28.35","0","SATNPRO1509","25.214000000000002","0.35314","5"],
    [8476,"HCEP03730566","2023-12-25 15:15:00","11.5798","3.46949","27.858","2.568","7.48","0.326","4.434","0.01","0.15","30.2044","4.74236","28.55","0","SATNPRO1509","25.176","0.35262","5"],
    [8477,"HCEP03730566","2023-12-25 15:30:00","11.546","3.46525","27.891","2.837","7.49","0.321","5.263","0.01","0.16","30.1909","4.74094","31.52","0","SATNPRO1509","25.766","0.36092","5"],
    [8478,"HCEP03730566","2023-12-25 15:45:00","11.5383","3.46408","27.642","2.939","7.5","0.329","4.659","0.01","0.33","30.186","4.74035","32.65","0","SATNPRO1509","25.872","0.36236","5"],
    [8479,"HCEP03730566","2023-12-25 16:00:00","11.5389","3.46333","27.627","2.891","7.5","0.32","4.68","0.01","0.21","30.1783","4.73925","32.12","0","SATNPRO1509","25.766","0.36088","5"],
    [8480,"HCEP03730566","2023-12-25 16:15:00","11.5393","3.463","27.444","2.862","7.5","0.331","4.802","0.01","0.21","30.1748","4.73873","31.79","0","SATNPRO1509","25.614","0.35876","5"],
    [8481,"HCEP03730566","2023-12-25 16:30:00","11.5314","3.46207","27.342","2.919","7.5","0.326","5.327","0.01","0.3","30.1723","4.73848","32.41","0","SATNPRO1509","25.75","0.36068","5"],
    [8482,"HCEP03730566","2023-12-25 16:45:00","11.5242","3.46133","27.235","2.992","7.5","0.336","5.443","0.01","0.19","30.1711","4.73842","33.22","0","SATNPRO1509","25.906","0.36282","5"],
    [8483,"HCEP03730566","2023-12-25 17:00:00","11.5242","3.46161","27.077","2.986","7.5","0.328","5.598","0.01","0.28","30.1739","4.73879","33.16","0","SATNPRO1509","25.89","0.36264","5"],
    [8484,"HCEP03730566","2023-12-25 17:15:00","11.526","3.46147","26.891","2.966","7.5","1.474","41.125","1.62","42.72","30.171","4.73836","32.94","0","SATNPRO1509","25.882","0.36252","5"],
    [8485,"HCEP03730566","2023-12-25 17:30:00","11.5179","3.45982","26.595","3.015","7.51","0.322","5.396","0.01","0.2","30.1618","4.73715","33.48","0","SATNPRO1509","26.052","0.36486","5"],
    [8486,"HCEP03730566","2023-12-25 17:45:00","11.5072","3.45767","26.402","3.084","7.51","0.337","5.752","0.01","0.33","30.1498","4.7356","34.23","0","SATNPRO1509","26.122","0.36586","5"],
    [8487,"HCEP03730566","2023-12-25 18:00:00","11.4977","3.45496","26.22","3.124","7.51","0.319","5.233","0.01","0.16","30.1314","4.73312","34.66","0","SATNPRO1509","26.138","0.36608","5"],
    [8488,"HCEP03730566","2023-12-25 18:15:00","11.4951","3.45397","25.975","3.134","7.51","0.331","5.179","0.01","0.23","30.1241","4.73211","34.77","0","SATNPRO1509","26.126","0.36594","5"],
    [8489,"HCEP03730566","2023-12-25 18:30:00","11.4947","3.4545","25.913","3.141","7.51","0.319","5.021","0.01","0.24","30.1295","4.73288","34.85","0","SATNPRO1509","26.028","0.36458","5"],
    [8490,"HCEP03730566","2023-12-25 18:45:00","11.5009","3.45627","25.76","3.106","7.51","0.339","5.746","0.01","0.17","30.1417","4.7345","34.46","0","SATNPRO1509","26.056","0.365","5"],
    [8491,"HCEP03730566","2023-12-25 19:00:00","11.5029","3.45708","25.588","3.1","7.51","0.335","5.998","0.01","0.32","30.1479","4.73535","34.4","0","SATNPRO1509","26.08","0.3653","5"],
    [8492,"HCEP03730566","2023-12-25 19:15:00","11.5016","3.45603","25.259","3.082","7.51","0.354","6.418","0.02","0.32","30.139","4.73409","34.2","0","SATNPRO1509","25.948","0.36344","5"],
    [8493,"HCEP03730566","2023-12-25 19:30:00","11.4999","3.45576","24.936","3.09","7.51","0.336","6.012","0.01","0.3","30.1379","4.73393","34.29","0","SATNPRO1509","26.016","0.36438","5"],
    [8494,"HCEP03730566","2023-12-25 19:45:00","11.5068","3.45525","24.678","2.991","7.51","0.349","5.817","0.01","0.36","30.1274","4.73234","33.19","0","SATNPRO1509","25.567999999999998","0.3581","5"],
    [8495,"HCEP03730566","2023-12-25 20:00:00","11.5139","3.45469","24.521","2.88","7.5","0.343","6.026","0.01","0.38","30.1163","4.73065","31.96","0","SATNPRO1509","25.47","0.35676","5"],
    [8496,"HCEP03730566","2023-12-25 20:15:00","11.525","3.45459","24.322","2.738","7.49","0.352","5.634","0.02","0.32","30.1064","4.72907","30.39","0","SATNPRO1509","25.064","0.35108","5"],
    [8497,"HCEP03730566","2023-12-25 20:30:00","11.5352","3.45541","24.247","2.634","7.49","0.342","5.477","0.01","0.21","30.106","4.72888","29.24","0","SATNPRO1509","24.894000000000002","0.34868","5"],
    [8498,"HCEP03730566","2023-12-25 20:45:00","11.5409","3.45619","24.229","2.571","7.48","0.349","5.292","0.01","0.09","30.1089","4.7292","28.55","0","SATNPRO1509","24.778000000000002","0.34706","5"],
    [8499,"HCEP03730566","2023-12-25 21:00:00","11.541","3.45619","24.164","2.566","7.48","0.341","5.378","0.01","0.16","30.1089","4.72919","28.49","0","SATNPRO1509","24.768","0.34692","5"],
    [8500,"HCEP03730566","2023-12-25 21:15:00","11.5399","3.45605","24.017","2.565","7.48","0.355","5.877","0.01","0.24","30.1085","4.72914","28.48","0","SATNPRO1509","24.758","0.34678","5"],
    [8501,"HCEP03730566","2023-12-25 21:30:00","11.5397","3.45592","24.116","2.57","7.48","0.34","4.991","0.01","0.14","30.1074","4.72899","28.53","0","SATNPRO1509","24.722","0.34624","5"],
    [8502,"HCEP03730566","2023-12-25 21:45:00","11.541","3.45611","24.059","2.55","7.47","0.354","5.082","0.01","0.21","30.1082","4.72908","28.31","0","SATNPRO1509","24.698","0.34592","5"],
    [8503,"HCEP03730566","2023-12-25 22:00:00","11.5398","3.45579","24.067","2.552","7.47","0.339","4.945","0.01","0.18","30.1061","4.7288","28.33","0","SATNPRO1509","24.654","0.34534","5"],
    [8504,"HCEP03730566","2023-12-25 22:15:00","11.5388","3.45555","24.185","2.555","7.47","0.35","4.725","0.01","0.19","30.1045","4.7286","28.37","0","SATNPRO1509","24.712","0.3461","5"],
    [8505,"HCEP03730566","2023-12-25 22:30:00","11.5374","3.4554","24.187","2.562","7.47","0.345","5.086","0.02","0.2","30.1042","4.72858","28.45","0","SATNPRO1509","24.66","0.3454","5"],
    [8506,"HCEP03730566","2023-12-25 22:45:00","11.537","3.45522","24.338","2.558","7.47","0.351","4.921","0.01","0.12","30.1028","4.72839","28.4","0","SATNPRO1509","24.754","0.34672","5"],
    [8507,"HCEP03730566","2023-12-25 23:00:00","11.5336","3.45483","24.411","2.565","7.47","0.339","5.111","0.01","0.16","30.1017","4.72829","28.48","0","SATNPRO1509","24.768","0.34692","5"],
    [8508,"HCEP03730566","2023-12-25 23:15:00","11.528","3.45437","24.627","2.605","7.47","0.502","10.844","0.32","14.82","30.1017","4.72839","28.92","0","SATNPRO1509","24.704","0.346","5"],
    [8509,"HCEP03730566","2023-12-25 23:30:00","11.5053","3.44894","24.776","2.74","7.48","0.334","4.781","0.01","0.21","30.0676","4.72389","30.39","0","SATNPRO1509","25.038","0.35072","5"],
    [8510,"HCEP03730566","2023-12-25 23:45:00","11.516","3.45171","24.977","2.688","7.48","0.35","5.265","0.01","0.17","30.0856","4.7263","29.83","0","SATNPRO1509","24.858","0.34816","5"],
    [8511,"HCEP03730566","2023-12-26 00:00:00","11.5106","3.44923","25.25","2.721","7.48","0.34","5.354","0.01","0.18","30.0659","4.7236","30.19","0","SATNPRO1509","24.824","0.3477","5"],
    [8512,"HCEP03730566","2023-12-26 00:15:00","11.5082","3.44797","25.352","2.674","7.48","0.348","5.082","0.01","0.18","30.0556","4.72219","29.66","0","SATNPRO1509","24.922","0.3491","5"],
    [8513,"HCEP03730566","2023-12-26 00:30:00","11.5048","3.44672","25.56","2.667","7.48","0.356","6.543","0.01","0.52","30.0463","4.72092","29.58","0","SATNPRO1509","24.878","0.3485","5"],
    [8514,"HCEP03730566","2023-12-26 00:45:00","11.4999","3.4432","25.62","2.64","7.48","0.367","6.444","0.01","0.53","30.0161","4.71672","29.27","0","SATNPRO1509","24.674","0.3456","5"],
    [8515,"HCEP03730566","2023-12-26 01:00:00","11.499","3.43992","25.785","2.54","7.47","0.378","8.226","0.02","1.33","29.9851","4.71235","28.16","0","SATNPRO1509","24.368000000000002","0.3413","5"],
    [8516,"HCEP03730566","2023-12-26 01:15:00","11.4963","3.43826","26.111","2.519","7.47","0.397","8.496","0.01","0.41","29.9711","4.71043","27.92","0","SATNPRO1509","24.348","0.34102","5"],
    [8517,"HCEP03730566","2023-12-26 01:30:00","11.4906","3.43623","26.381","2.522","7.47","0.37","7.366","0.01","0.36","29.956","4.70838","27.95","0","SATNPRO1509","24.278","0.34006","5"],
    [8518,"HCEP03730566","2023-12-26 01:45:00","11.4807","3.43278","26.694","2.541","7.47","0.38","7.161","0.01","0.31","29.9305","4.70493","28.15","0","SATNPRO1509","24.224","0.3393","5"],
    [8519,"HCEP03730566","2023-12-26 02:00:00","11.4807","3.43267","26.936","2.531","7.47","0.38","8.086","0.01","0.32","29.9294","4.70478","28.03","0","SATNPRO1509","24.23","0.33936","5"],
    [8520,"HCEP03730566","2023-12-26 02:15:00","11.4817","3.43309","27.161","2.526","7.47","0.388","7.134","0.01","0.21","29.9325","4.70521","27.98","0","SATNPRO1509","24.244","0.33962","5"],
    [8521,"HCEP03730566","2023-12-26 02:30:00","11.4816","3.43279","27.332","2.522","7.47","0.373","6.815","0.01","0.32","29.9296","4.70482","27.94","0","SATNPRO1509","24.233999999999998","0.33946","5"],
    [8522,"HCEP03730566","2023-12-26 02:45:00","11.4875","3.43494","27.56","2.506","7.47","0.392","7.709","0.01","0.49","29.9455","4.707","27.76","0","SATNPRO1509","24.182","0.33872","5"],
    [8523,"HCEP03730566","2023-12-26 03:00:00","11.4937","3.43752","27.775","2.492","7.47","0.378","7.496","0.01","0.36","29.9653","4.70974","27.61","0","SATNPRO1509","24.186","0.33878","5"],
    [8524,"HCEP03730566","2023-12-26 03:15:00","11.4967","3.44192","27.985","2.581","7.47","0.386","7.561","0.01","0.3","30.0054","4.71538","28.62","0","SATNPRO1509","24.528","0.34356","5"],
    [8525,"HCEP03730566","2023-12-26 03:30:00","11.5096","3.44689","28.126","2.59","7.47","0.372","7.22","0.01","0.47","30.043","4.72053","28.73","0","SATNPRO1509","24.682000000000002","0.34568","5"],
    [8526,"HCEP03730566","2023-12-26 03:45:00","11.512","3.44776","28.141","2.589","7.47","0.386","7.837","0.01","0.5","30.0494","4.72141","28.72","0","SATNPRO1509","24.733999999999998","0.34646","5"],
    [8527,"HCEP03730566","2023-12-26 04:00:00","11.5121","3.44743","28.207","2.583","7.47","0.365","7.018","0.01","0.55","30.0461","4.72094","28.65","0","SATNPRO1509","24.669999999999998","0.34556","5"],
    [8528,"HCEP03730566","2023-12-26 04:15:00","11.5029","3.44443","28.123","2.61","7.47","0.38","7.251","0.02","0.37","30.0246","4.71802","28.95","0","SATNPRO1509","24.744","0.34658","5"],
    [8529,"HCEP03730566","2023-12-26 04:30:00","11.4878","3.43791","28.175","2.625","7.47","0.351","5.918","0.01","0.27","29.9738","4.71105","29.09","0","SATNPRO1509","24.766000000000002","0.3469","5"],
    [8530,"HCEP03730566","2023-12-26 04:45:00","11.4589","3.43456","28.205","2.868","7.48","0.361","5.705","0.03","0.28","29.9647","4.71018","31.76","0","SATNPRO1509","25.273999999999997","0.35402","5"],
    [8531,"HCEP03730566","2023-12-26 05:00:00","11.4515","3.43492","28.242","2.968","7.49","0.345","6.021","0.01","0.28","29.9743","4.71164","32.87","0","SATNPRO1509","25.426","0.35614","5"],
    [8532,"HCEP03730566","2023-12-26 05:15:00","11.4494","3.43789","28.266","3.039","7.5","0.364","6.577","0.01","0.51","30.0046","4.71597","33.66","0","SATNPRO1509","25.568","0.35812","5"],
    [8533,"HCEP03730566","2023-12-26 05:30:00","11.4501","3.43781","28.251","3.045","7.5","0.344","5.375","0.02","0.56","30.0033","4.71577","33.72","0","SATNPRO1509","25.758","0.3608","5"],
    [8534,"HCEP03730566","2023-12-26 05:45:00","11.4477","3.43717","28.276","3.078","7.5","0.354","5.709","0.01","0.32","29.9991","4.71521","34.09","0","SATNPRO1509","25.808","0.36146","5"],
    [8535,"HCEP03730566","2023-12-26 06:00:00","11.4516","3.4395","28.28","3.095","7.5","0.333","5.263","0.01","0.35","30.0185","4.7179","34.28","0","SATNPRO1509","25.864","0.3623","5"],
    [8536,"HCEP03730566","2023-12-26 06:15:00","11.456","3.44042","28.351","3.061","7.5","0.351","5.213","0.01","0.31","30.0237","4.71859","33.91","0","SATNPRO1509","25.86","0.36224","5"],
    [8537,"HCEP03730566","2023-12-26 06:30:00","11.4595","3.44141","28.305","3.055","7.5","0.34","5.47","0.01","0.32","30.0305","4.71949","33.85","0","SATNPRO1509","25.823999999999998","0.36168","5"],
    [8538,"HCEP03730566","2023-12-26 06:45:00","11.4548","3.43985","28.28","3.07","7.5","0.338","4.576","0.01","0.21","30.0193","4.71797","34.01","0","SATNPRO1509","25.9","0.36276","5"],
    [8539,"HCEP03730566","2023-12-26 07:00:00","11.4535","3.4386","28.225","3.061","7.5","0.33","4.626","0.01","0.18","30.0083","4.71642","33.91","0","SATNPRO1509","25.852","0.3621","5"],
    [8540,"HCEP03730566","2023-12-26 07:15:00","11.4489","3.43752","28.153","3.083","7.5","0.335","4.563","0.02","0.12","30.0015","4.71553","34.15","0","SATNPRO1509","25.844","0.36198","5"],
    [8541,"HCEP03730566","2023-12-26 07:30:00","11.4453","3.43626","28.052","3.101","7.51","0.32","4.207","0.01","0.18","29.9922","4.71426","34.34","0","SATNPRO1509","25.888","0.3626","5"],
    [8542,"HCEP03730566","2023-12-26 07:45:00","11.4475","3.43641","27.966","3.071","7.51","0.341","4.869","0.01","0.21","29.992","4.71419","34.01","0","SATNPRO1509","25.918","0.36304","5"],
    [8543,"HCEP03730566","2023-12-26 08:00:00","11.4607","3.44242","27.848","3.044","7.5","0.336","5.667","0.01","0.2","30.0395","4.72073","33.73","0","SATNPRO1509","25.894","0.36266","5"],
    [8544,"HCEP03730566","2023-12-26 08:15:00","11.4703","3.44786","27.82","3.058","7.5","0.664","10.369","0.8","11.57","30.0843","4.72694","33.9","0","SATNPRO1509","26.076","0.36524","5"],
    [8545,"HCEP03730566","2023-12-26 08:30:00","11.4868","3.45198","27.688","3.012","7.5","0.338","4.85","0.03","0.38","30.1108","4.73044","33.41","0","SATNPRO1509","26.006","0.36422","5"],
    [8546,"HCEP03730566","2023-12-26 08:45:00","11.5009","3.45456","27.589","2.942","7.5","0.348","5.374","0.02","0.56","30.1243","4.73215","32.64","0","SATNPRO1509","25.902","0.3628","5"],
    [8547,"HCEP03730566","2023-12-26 09:00:00","11.5035","3.45541","27.486","2.922","7.5","0.452","9.384","0.1","2.23","30.1306","4.73299","32.42","0","SATNPRO1509","25.992","0.36412","5"],
    [8548,"HCEP03730566","2023-12-26 09:15:00","11.5034","3.45532","27.435","2.921","7.5","0.329","5.17","0.01","0.58","30.1298","4.73287","32.41","0","SATNPRO1509","25.82","0.36168","5"],
    [8549,"HCEP03730566","2023-12-26 09:30:00","11.5001","3.45438","27.368","2.929","7.5","0.321","4.781","0.01","0.24","30.1234","4.73202","32.49","0","SATNPRO1509","25.964","0.36368","5"],
    [8550,"HCEP03730566","2023-12-26 09:45:00","11.5003","3.45464","27.261","2.933","7.5","0.34","4.711","0.01","0.75","30.1258","4.73235","32.54","0","SATNPRO1509","25.966","0.36372","5"],
    [8551,"HCEP03730566","2023-12-26 10:00:00","11.501","3.45498","27.217","2.93","7.5","0.324","4.296","0.01","0.24","30.1285","4.73272","32.51","0","SATNPRO1509","25.998","0.36414","5"],
    [8552,"HCEP03730566","2023-12-26 10:15:00","11.5004","3.45498","27.139","2.926","7.5","0.339","4.17","0.01","0.16","30.129","4.7328","32.47","0","SATNPRO1509","25.918","0.36302","5"],
    [8553,"HCEP03730566","2023-12-26 10:30:00","11.5004","3.45506","27.091","2.923","7.5","0.349","4.616","0.02","0.35","30.1298","4.73291","32.44","0","SATNPRO1509","25.964","0.36366","5"],
    [8554,"HCEP03730566","2023-12-26 10:45:00","11.5022","3.45569","27.092","2.905","7.5","0.334","5.085","0.01","0.93","30.1345","4.73354","32.23","0","SATNPRO1509","25.876","0.36244","5"],
    [8555,"HCEP03730566","2023-12-26 11:00:00","11.5037","3.4561","27.087","2.887","7.49","0.368","7.584","0.03","1.53","30.1373","4.73391","32.04","0","SATNPRO1509","25.834","0.36184","5"],
    [8556,"HCEP03730566","2023-12-26 11:15:00","11.5044","3.45632","27.144","2.878","7.49","0.353","8.708","0.01","1.19","30.1387","4.73411","31.94","0","SATNPRO1509","25.86","0.36216","5"],
    [8557,"HCEP03730566","2023-12-26 11:30:00","11.5029","3.45611","27.171","2.88","7.49","0.357","9.472","0.04","3.58","30.138","4.73403","31.96","0","SATNPRO1509","25.778","0.36104","5"],
    [8558,"HCEP03730566","2023-12-26 11:45:00","11.5024","3.45625","27.209","2.884","7.49","0.343","6.233","0.02","1.03","30.1397","4.73428","32.01","0","SATNPRO1509","25.818","0.36162","5"],
    [8559,"HCEP03730566","2023-12-26 12:00:00","11.5029","3.45635","27.269","2.884","7.49","0.351","5.723","0.02","0.71","30.1402","4.73434","32","0","SATNPRO1509","25.77","0.36096","5"],
    [8560,"HCEP03730566","2023-12-26 12:15:00","11.5005","3.45625","27.281","2.898","7.49","0.357","4.49","0.01","0.63","30.1411","4.73451","32.16","0","SATNPRO1509","25.842","0.36194","5"],
    [8561,"HCEP03730566","2023-12-26 12:30:00","11.5026","3.45638","27.316","2.88","7.49","0.36","6.841","0.03","1.04","30.1407","4.73443","31.96","0","SATNPRO1509","25.83","0.36174","5"],
    [8562,"HCEP03730566","2023-12-26 12:45:00","11.5004","3.45609","27.372","2.896","7.49","0.375","9.22","0.02","3.74","30.1397","4.73431","32.14","0","SATNPRO1509","25.648","0.35922","5"],
    [8563,"HCEP03730566","2023-12-26 13:00:00","11.5029","3.45629","27.445","2.866","7.49","0.404","8.066","0.05","2.86","30.1396","4.73427","31.8","0","SATNPRO1509","25.864","0.36228","5"],
    [8564,"HCEP03730566","2023-12-26 13:15:00","11.5024","3.45623","27.431","2.872","7.49","0.374","5.771","0.02","0.68","30.1395","4.73426","31.87","0","SATNPRO1509","25.721999999999998","0.36028","5"],
    [8565,"HCEP03730566","2023-12-26 13:30:00","11.5007","3.45613","27.507","2.885","7.49","0.353","5.013","0.01","0.39","30.1398","4.73434","32.01","0","SATNPRO1509","25.73","0.36036","5"],
    [8566,"HCEP03730566","2023-12-26 13:45:00","11.498","3.45585","27.555","2.897","7.49","0.359","5.355","0.02","0.66","30.1392","4.73429","32.14","0","SATNPRO1509","25.842","0.362","5"],
    [8567,"HCEP03730566","2023-12-26 14:00:00","11.499","3.45586","27.623","2.896","7.49","0.34","5.062","0.02","0.5","30.1385","4.73418","32.14","0","SATNPRO1509","25.818","0.36162","5"],
    [8568,"HCEP03730566","2023-12-26 14:15:00","11.4992","3.45569","27.617","2.89","7.49","0.342","4.658","0.02","0.33","30.1367","4.73392","32.06","0","SATNPRO1509","25.864","0.36226","5"],
    [8569,"HCEP03730566","2023-12-26 14:30:00","11.4987","3.45541","27.682","2.884","7.49","0.332","5.812","0.01","1.51","30.1344","4.7336","32","0","SATNPRO1509","25.758","0.36078","5"],
    [8570,"HCEP03730566","2023-12-26 14:45:00","11.4989","3.45526","27.697","2.874","7.49","0.351","5.318","0.03","1.1","30.1328","4.73338","31.88","0","SATNPRO1509","25.83","0.3618","5"],
    [8571,"HCEP03730566","2023-12-26 15:00:00","11.4979","3.45456","27.704","2.871","7.49","0.329","6.158","0.01","1.34","30.1268","4.73254","31.86","0","SATNPRO1509","25.832","0.36184","5"],
    [8572,"HCEP03730566","2023-12-26 15:15:00","11.4982","3.45439","27.684","2.862","7.49","0.354","7.235","0.03","1.97","30.1249","4.73228","31.76","0","SATNPRO1509","25.764","0.3609","5"],
    [8573,"HCEP03730566","2023-12-26 15:30:00","11.4966","3.45374","27.676","2.865","7.49","0.325","5.911","0.02","1.69","30.1199","4.73159","31.78","0","SATNPRO1509","25.828","0.36176","5"],
    [8574,"HCEP03730566","2023-12-26 15:45:00","11.4915","3.45262","27.731","2.879","7.49","0.343","6.677","0.01","1.87","30.1132","4.73072","31.94","0","SATNPRO1509","25.8","0.36138","5"],
    [8575,"HCEP03730566","2023-12-26 16:00:00","11.4853","3.45144","27.72","2.904","7.49","0.338","7.853","0.02","2.99","30.1069","4.72991","32.21","0","SATNPRO1509","25.774","0.361","5"],
    [8576,"HCEP03730566","2023-12-26 16:15:00","11.4676","3.44871","27.656","2.999","7.5","0.404","8.604","0.1","2.58","30.0949","4.72846","33.25","0","SATNPRO1509","25.834","0.36186","5"],
    [8577,"HCEP03730566","2023-12-26 16:30:00","11.4503","3.4463","27.61","3.121","7.5","0.426","8.549","0.12","1.75","30.0856","4.7274","34.58","0","SATNPRO1509","25.982","0.3639","5"],
    [8578,"HCEP03730566","2023-12-26 16:45:00","11.4405","3.44509","27.526","3.198","7.51","0.345","5.953","0.01","0.89","30.0819","4.72701","35.43","0","SATNPRO1509","26.096","0.36556","5"],
    [8579,"HCEP03730566","2023-12-26 17:00:00","11.4381","3.44459","27.444","3.22","7.51","0.383","12.437","0.06","18.56","30.079","4.72663","35.66","0","SATNPRO1509","26.184","0.3667","5"],
    [8580,"HCEP03730566","2023-12-26 17:15:00","11.4368","3.44425","27.349","3.221","7.51","0.377","5.153","0.02","0.65","30.0769","4.72634","35.68","0","SATNPRO1509","26.148","0.36622","5"],
    [8581,"HCEP03730566","2023-12-26 17:30:00","11.4372","3.4438","27.207","3.21","7.51","0.334","4.986","0.01","0.25","30.0722","4.72566","35.56","0","SATNPRO1509","26.166","0.36648","5"],
    [8582,"HCEP03730566","2023-12-26 17:45:00","11.4374","3.44343","27.075","3.202","7.51","0.351","4.747","0.02","0.36","30.0685","4.72513","35.47","0","SATNPRO1509","26.112","0.36574","5"],
    [8583,"HCEP03730566","2023-12-26 18:00:00","11.4386","3.44297","26.92","3.191","7.51","0.336","5.005","0.01","0.25","30.0631","4.72434","35.34","0","SATNPRO1509","26.216","0.36724","5"],
    [8584,"HCEP03730566","2023-12-26 18:15:00","11.4392","3.44268","26.782","3.181","7.51","0.34","4.779","0.01","0.18","30.0598","4.72386","35.24","0","SATNPRO1509","26.244","0.36762","5"],
    [8585,"HCEP03730566","2023-12-26 18:30:00","11.4393","3.4426","26.547","3.178","7.51","0.35","5.031","0.03","0.63","30.0592","4.72375","35.2","0","SATNPRO1509","26.188","0.3668","5"],
    [8586,"HCEP03730566","2023-12-26 18:45:00","11.4394","3.44283","26.362","3.172","7.51","0.359","5.439","0.02","1.29","30.0614","4.72405","35.13","0","SATNPRO1509","26.132","0.366","5"],
    [8587,"HCEP03730566","2023-12-26 19:00:00","11.4385","3.44301","26.152","3.178","7.51","0.35","4.58","0.02","0.23","30.0639","4.72442","35.2","0","SATNPRO1509","26.176000000000002","0.36668","5"],
    [8588,"HCEP03730566","2023-12-26 19:15:00","11.4381","3.44324","25.94","3.177","7.51","0.341","4.37","0.01","0.26","30.0665","4.72478","35.19","0","SATNPRO1509","26.148","0.36624","5"],
    [8589,"HCEP03730566","2023-12-26 19:30:00","11.4384","3.4435","25.687","3.179","7.51","0.334","4.594","0.01","0.21","30.0689","4.7251","35.21","0","SATNPRO1509","26.25","0.36768","5"],
    [8590,"HCEP03730566","2023-12-26 19:45:00","11.4396","3.44419","25.445","3.164","7.51","0.377","5.036","0.01","0.31","30.0747","4.72588","35.05","0","SATNPRO1509","26.116","0.3658","5"],
    [8591,"HCEP03730566","2023-12-26 20:00:00","11.4359","3.44323","25.171","3.197","7.51","0.324","3.89","0.02","0.22","30.0686","4.72506","35.41","0","SATNPRO1509","26.318","0.3686","5"],
    [8592,"HCEP03730566","2023-12-26 20:15:00","11.4386","3.44415","24.919","3.172","7.51","0.392","4.531","0.02","0.27","30.0753","4.72596","35.14","0","SATNPRO1509","26.060000000000002","0.36506","5"],
    [8593,"HCEP03730566","2023-12-26 20:30:00","11.4402","3.4445","24.693","3.155","7.51","0.348","4.984","0.03","0.31","30.0775","4.72623","34.95","0","SATNPRO1509","26.073999999999998","0.36524","5"],
    [8594,"HCEP03730566","2023-12-26 20:45:00","11.4439","3.44527","24.504","3.118","7.51","0.397","5.471","0.02","0.46","30.082","4.72681","34.54","0","SATNPRO1509","25.976","0.3638","5"],
    [8595,"HCEP03730566","2023-12-26 21:00:00","11.4458","3.44575","24.331","3.101","7.51","0.34","5.421","0.02","0.41","30.0852","4.72723","34.36","0","SATNPRO1509","25.936","0.3633","5"],
    [8596,"HCEP03730566","2023-12-26 21:15:00","11.4453","3.44583","24.232","3.097","7.51","0.362","5.075","0.01","0.28","30.0865","4.72741","34.31","0","SATNPRO1509","26.032","0.36464","5"],
    [8597,"HCEP03730566","2023-12-26 21:30:00","11.4409","3.44486","24.099","3.136","7.51","0.337","4.655","0.03","0.42","30.0806","4.72664","34.75","0","SATNPRO1509","26.198","0.36694","5"],
    [8598,"HCEP03730566","2023-12-26 21:45:00","11.4407","3.44481","23.993","3.152","7.51","0.345","4.64","0.01","0.23","30.0804","4.72659","34.92","0","SATNPRO1509","26.138","0.3661","5"],
    [8599,"HCEP03730566","2023-12-26 22:00:00","11.4436","3.44558","23.964","3.134","7.51","0.33","4.298","0.02","0.23","30.0855","4.72728","34.72","0","SATNPRO1509","26.024","0.3645","5"],
    [8600,"HCEP03730566","2023-12-26 22:15:00","11.4435","3.44576","23.969","3.127","7.51","0.376","4.698","0.02","0.25","30.0873","4.72753","34.64","0","SATNPRO1509","26","0.36416","5"],
    [8601,"HCEP03730566","2023-12-26 22:30:00","11.4497","3.44729","23.975","3.044","7.51","0.362","5.276","0.03","0.27","30.0971","4.72883","33.73","0","SATNPRO1509","25.73","0.36036","5"],
    [8602,"HCEP03730566","2023-12-26 22:45:00","11.4532","3.44888","24.071","2.99","7.5","0.36","5.532","0.01","0.25","30.1096","4.73056","33.14","0","SATNPRO1509","25.622","0.35886","5"],
    [8603,"HCEP03730566","2023-12-26 23:00:00","11.4572","3.45013","24.117","2.966","7.5","0.337","5.057","0.01","0.19","30.1185","4.73176","32.87","0","SATNPRO1509","25.637999999999998","0.35912","5"],
    [8604,"HCEP03730566","2023-12-26 23:15:00","11.4608","3.45086","24.184","2.927","7.5","0.356","5.289","0.01","0.26","30.1226","4.73229","32.45","0","SATNPRO1509","25.516","0.3574","5"],
    [8605,"HCEP03730566","2023-12-26 23:30:00","11.4625","3.45104","24.281","2.9","7.5","0.363","6.126","0.03","0.6","30.1229","4.73232","32.15","0","SATNPRO1509","25.538","0.35768","5"],
    [8606,"HCEP03730566","2023-12-26 23:45:00","11.4614","3.4508","24.44","2.938","7.49","0.34","4.725","0.02","0.16","30.1213","4.73212","32.58","0","SATNPRO1509","25.762","0.36086","5"],
    [8607,"HCEP03730566","2023-12-27 00:00:00","11.4403","3.44475","24.581","3.163","7.5","0.309","3.045","0.01","0.15","30.0799","4.72657","35.04","0","SATNPRO1509","26.596","0.37252","5"],
    [8608,"HCEP03730566","2023-12-27 00:15:00","11.4402","3.44495","24.725","3.197","7.51","0.319","3.043","0.01","0.11","30.0818","4.72684","35.41","0","SATNPRO1509","26.77","0.37496","5"],
    [8609,"HCEP03730566","2023-12-27 00:30:00","11.4501","3.44754","24.895","3.094","7.51","0.331","4.297","0.01","0.22","30.0989","4.72913","34.29","0","SATNPRO1509","26.312","0.36856","5"],
    [8610,"HCEP03730566","2023-12-27 00:45:00","11.4496","3.44717","25.051","3.008","7.5","0.348","5.001","0.01","0.16","30.0957","4.72869","33.33","0","SATNPRO1509","25.97","0.36378","5"],
    [8611,"HCEP03730566","2023-12-27 01:00:00","11.4464","3.44625","25.249","3.037","7.5","0.34","5.168","0.02","0.16","30.0892","4.72784","33.65","0","SATNPRO1509","26.1","0.36558","5"],
    [8612,"HCEP03730566","2023-12-27 01:15:00","11.4452","3.44592","25.445","3.061","7.5","0.344","4.73","0.01","0.29","30.0869","4.72754","33.91","0","SATNPRO1509","26.184","0.36676","5"],
    [8613,"HCEP03730566","2023-12-27 01:30:00","11.4419","3.44483","25.619","3.103","7.5","0.328","4.524","0.01","0.24","30.0789","4.72646","34.37","0","SATNPRO1509","26.404","0.36986","5"],
    [8614,"HCEP03730566","2023-12-27 01:45:00","11.4436","3.4453","25.88","3.074","7.51","0.341","4.678","0.01","0.19","30.082","4.72689","34.06","0","SATNPRO1509","26.174","0.3666","5"],
    [8615,"HCEP03730566","2023-12-27 02:00:00","11.4435","3.44526","26.106","3.079","7.51","0.338","5.014","0.01","0.23","30.0817","4.72686","34.11","0","SATNPRO1509","26.154","0.36634","5"],
    [8616,"HCEP03730566","2023-12-27 02:15:00","11.4447","3.44569","26.353","3.067","7.5","0.352","5.032","0.01","0.34","30.0847","4.72727","33.98","0","SATNPRO1509","26.156","0.36636","5"],
    [8617,"HCEP03730566","2023-12-27 02:30:00","11.4464","3.44608","26.59","3.041","7.5","0.334","4.675","0.01","0.14","30.087","4.72759","33.69","0","SATNPRO1509","26.004","0.36424","5"],
    [8618,"HCEP03730566","2023-12-27 02:45:00","11.4513","3.44736","26.842","2.983","7.5","0.347","4.893","0.01","0.2","30.0953","4.72872","33.06","0","SATNPRO1509","25.836","0.3619","5"],
    [8619,"HCEP03730566","2023-12-27 03:00:00","11.4547","3.44863","27.076","2.931","7.5","0.348","5.833","0.02","0.25","30.1048","4.73003","32.49","0","SATNPRO1509","25.694","0.35988","5"],
    [8620,"HCEP03730566","2023-12-27 03:15:00","11.4556","3.44917","27.259","2.932","7.5","0.393","5.399","0.03","0.29","30.1091","4.73063","32.5","0","SATNPRO1509","25.738","0.3605","5"],
    [8621,"HCEP03730566","2023-12-27 03:30:00","11.4556","3.44938","27.475","2.937","7.49","0.373","5.351","0.02","0.21","30.1111","4.73093","32.56","0","SATNPRO1509","25.8","0.36136","5"],
    [8622,"HCEP03730566","2023-12-27 03:45:00","11.4512","3.44831","27.695","2.961","7.5","0.373","5.265","0.02","0.2","30.1042","4.73003","32.81","0","SATNPRO1509","26.004","0.36422","5"],
    [8623,"HCEP03730566","2023-12-27 04:00:00","11.4528","3.44886","27.881","2.978","7.5","0.339","5.152","0.03","0.26","30.1082","4.73058","33","0","SATNPRO1509","25.916","0.36302","5"],
    [8624,"HCEP03730566","2023-12-27 04:15:00","11.4558","3.44959","27.958","2.971","7.5","0.344","4.749","0.02","0.24","30.1129","4.7312","32.93","0","SATNPRO1509","25.954","0.36354","5"],
    [8625,"HCEP03730566","2023-12-27 04:30:00","11.4599","3.4504","28.088","2.944","7.5","0.338","5.133","0.02","0.23","30.1173","4.73177","32.64","0","SATNPRO1509","26.002","0.36418","5"],
    [8626,"HCEP03730566","2023-12-27 04:45:00","11.4664","3.45148","28.172","2.895","7.49","0.347","5.252","0.01","0.63","30.1224","4.7324","32.1","0","SATNPRO1509","25.922","0.36306","5"],
    [8627,"HCEP03730566","2023-12-27 05:00:00","11.4714","3.45211","28.219","2.856","7.49","0.34","5.183","0.02","0.17","30.1244","4.73263","31.67","0","SATNPRO1509","25.794","0.36128","5"],
    [8628,"HCEP03730566","2023-12-27 05:15:00","11.4731","3.45259","28.324","2.829","7.49","0.348","5.113","0.01","0.33","30.1277","4.73306","31.37","0","SATNPRO1509","25.778","0.36106","5"],
    [8629,"HCEP03730566","2023-12-27 05:30:00","11.4725","3.45194","28.344","2.804","7.49","0.331","5.148","0.01","0.18","30.1218","4.73224","31.09","0","SATNPRO1509","25.682","0.35976","5"],
    [8630,"HCEP03730566","2023-12-27 05:45:00","11.4697","3.45097","28.353","2.833","7.49","0.325","4.515","0.01","0.21","30.1148","4.73129","31.41","0","SATNPRO1509","25.916","0.36298","5"],
    [8631,"HCEP03730566","2023-12-27 06:00:00","11.4668","3.45008","28.46","2.86","7.49","0.32","4.408","0.01","0.16","30.1084","4.73044","31.7","0","SATNPRO1509","25.938","0.36328","5"],
    [8632,"HCEP03730566","2023-12-27 06:15:00","11.4587","3.44843","28.384","2.88","7.49","0.342","4.54","0.01","0.15","30.0991","4.72923","31.92","0","SATNPRO1509","25.906","0.36282","5"],
    [8633,"HCEP03730566","2023-12-27 06:30:00","11.4571","3.4482","28.382","2.879","7.49","0.323","4.699","0.01","0.17","30.0982","4.72912","31.91","0","SATNPRO1509","25.95","0.3635","5"],
    [8634,"HCEP03730566","2023-12-27 06:45:00","11.4612","3.44877","28.402","2.891","7.49","0.444","6.794","0.04","0.8","30.1004","4.72938","32.05","0","SATNPRO1509","26.074","0.3652","5"],
    [8635,"HCEP03730566","2023-12-27 07:00:00","11.4633","3.44908","28.37","2.905","7.49","0.324","4.302","0.01","0.15","30.1017","4.72953","32.2","0","SATNPRO1509","26.128","0.36594","5"],
    [8636,"HCEP03730566","2023-12-27 07:15:00","11.4619","3.4489","28.353","2.901","7.49","0.339","4.65","0.01","0.16","30.101","4.72945","32.16","0","SATNPRO1509","26.098","0.36552","5"],
    [8637,"HCEP03730566","2023-12-27 07:30:00","11.4608","3.44825","28.297","2.915","7.49","0.323","4.48","0.01","0.21","30.0957","4.72872","32.3","0","SATNPRO1509","26.144","0.36616","5"],
    [8638,"HCEP03730566","2023-12-27 07:45:00","11.4615","3.44848","28.257","2.909","7.49","0.351","4.769","0.08","0.9","30.0973","4.72893","32.24","0","SATNPRO1509","26.126","0.36594","5"],
    [8639,"HCEP03730566","2023-12-27 08:00:00","11.4633","3.44919","28.168","2.893","7.49","0.628","19.505","0.1","23.52","30.1028","4.72968","32.06","0","SATNPRO1509","26.058","0.36498","5"],
    [8640,"HCEP03730566","2023-12-27 08:15:00","11.4679","3.4507","28.072","2.86","7.49","0.342","4.894","0.02","0.19","30.1137","4.73115","31.7","0","SATNPRO1509","25.946","0.36342","5"],
    [8641,"HCEP03730566","2023-12-27 08:30:00","11.4707","3.45133","27.964","2.845","7.49","0.327","4.97","0.01","0.22","30.1175","4.73164","31.54","0","SATNPRO1509","25.924","0.36312","5"],
    [8642,"HCEP03730566","2023-12-27 08:45:00","11.4699","3.45129","27.947","2.876","7.49","0.362","6.987","0.01","1.41","30.1179","4.7317","31.89","0","SATNPRO1509","26.116","0.36578","5"],
    [8643,"HCEP03730566","2023-12-27 09:00:00","11.4668","3.45139","27.869","2.933","7.49","0.342","10.324","0.03","1.51","30.1213","4.73223","32.52","0","SATNPRO1509","26.462","0.37064","5"],
    [8644,"HCEP03730566","2023-12-27 09:15:00","11.4624","3.45149","27.778","3.013","7.49","0.524","17.82","0.2","21.47","30.1259","4.73294","33.4","0","SATNPRO1509","26.646","0.37324","5"],
    [8645,"HCEP03730566","2023-12-27 09:30:00","11.4601","3.45207","27.668","3.047","7.5","0.349","4.705","0.05","1.76","30.1335","4.73404","33.79","0","SATNPRO1509","26.684","0.37378","5"],
    [8646,"HCEP03730566","2023-12-27 09:45:00","11.4568","3.45208","27.667","3.071","7.5","0.328","4.281","0.01","0.19","30.1362","4.73448","34.04","0","SATNPRO1509","26.71","0.37412","5"],
    [8647,"HCEP03730566","2023-12-27 10:00:00","11.4537","3.45233","27.583","3.097","7.5","0.339","4.455","0.01","0.54","30.1412","4.73523","34.33","0","SATNPRO1509","26.84","0.37596","5"],
    [8648,"HCEP03730566","2023-12-27 10:15:00","11.45","3.45258","27.52","3.113","7.5","0.33","3.744","0.01","0.12","30.1467","4.73606","34.51","0","SATNPRO1509","26.788","0.3752","5"],
    [8649,"HCEP03730566","2023-12-27 10:30:00","11.4443","3.4523","27.442","3.144","7.51","0.316","3.506","0.01","0.08","30.1486","4.7364","34.85","0","SATNPRO1509","26.788","0.37524","5"],
    [8650,"HCEP03730566","2023-12-27 10:45:00","11.4432","3.45228","27.392","3.145","7.51","0.321","4.036","0.01","0.09","30.1494","4.73652","34.85","0","SATNPRO1509","26.838","0.37592","5"],
    [8651,"HCEP03730566","2023-12-27 11:00:00","11.4417","3.45229","27.326","3.155","7.51","0.311","3.878","0.01","0.11","30.1507","4.73673","34.97","0","SATNPRO1509","26.892","0.37662","5"],
    [8652,"HCEP03730566","2023-12-27 11:15:00","11.4397","3.45235","27.297","3.151","7.51","0.33","4.142","0.01","0.21","30.1529","4.73707","34.92","0","SATNPRO1509","26.804","0.37546","5"],
    [8653,"HCEP03730566","2023-12-27 11:30:00","11.414","3.45117","27.305","3.29","7.51","0.332","4.464","0.01","0.18","30.1624","4.73879","36.45","0","SATNPRO1509","26.984","0.37796","5"],
    [8654,"HCEP03730566","2023-12-27 11:45:00","11.3802","3.44875","27.319","3.516","7.52","0.32","3.951","0.01","0.18","30.1666","4.73988","38.92","0","SATNPRO1509","27.14","0.38014","5"],
    [8655,"HCEP03730566","2023-12-27 12:00:00","11.3632","3.44703","27.318","3.651","7.53","0.297","3.036","0.01","0.12","30.1637","4.73971","40.41","0","SATNPRO1509","27.454","0.38454","5"],
    [8656,"HCEP03730566","2023-12-27 12:15:00","11.3571","3.44646","27.339","3.696","7.54","0.32","3.195","0.01","0.14","30.1631","4.73973","40.89","0","SATNPRO1509","27.55","0.3859","5"],
    [8657,"HCEP03730566","2023-12-27 12:30:00","11.3549","3.44621","27.36","3.713","7.55","0.306","2.578","0.01","0.07","30.1625","4.73968","41.08","0","SATNPRO1509","27.616","0.38682","5"],
    [8658,"HCEP03730566","2023-12-27 12:45:00","11.3615","3.44711","27.368","3.67","7.55","0.329","2.971","0.01","0.12","30.1658","4.74005","40.61","0","SATNPRO1509","27.476","0.38484","5"],
    [8659,"HCEP03730566","2023-12-27 13:00:00","11.3654","3.4478","27.408","3.643","7.55","0.31","3.042","0.01","0.11","30.1693","4.74049","40.31","0","SATNPRO1509","27.384","0.38354","5"],
    [8660,"HCEP03730566","2023-12-27 13:15:00","11.3615","3.44782","27.493","3.647","7.55","0.332","3.081","0.02","0.17","30.1728","4.74104","40.35","0","SATNPRO1509","27.41","0.3839","5"],
    [8661,"HCEP03730566","2023-12-27 13:30:00","11.3642","3.44835","27.583","3.615","7.54","0.338","4.406","0.02","0.15","30.1756","4.7414","40","0","SATNPRO1509","27.146","0.38024","5"],
    [8662,"HCEP03730566","2023-12-27 13:45:00","11.358","3.44778","27.626","3.651","7.54","0.328","3.207","0.01","0.18","30.1751","4.74142","40.4","0","SATNPRO1509","27.436","0.38428","5"],
    [8663,"HCEP03730566","2023-12-27 14:00:00","11.3538","3.44746","27.686","3.678","7.55","0.308","3.086","0.01","0.13","30.1754","4.74154","40.69","0","SATNPRO1509","27.386","0.3836","5"],
    [8664,"HCEP03730566","2023-12-27 14:15:00","11.3528","3.44748","27.727","3.679","7.55","0.321","3.595","0.01","0.13","30.1764","4.74169","40.7","0","SATNPRO1509","27.264","0.38184","5"],
    [8665,"HCEP03730566","2023-12-27 14:30:00","11.3509","3.44748","27.821","3.676","7.55","0.311","3.555","0.01","0.12","30.1779","4.74195","40.67","0","SATNPRO1509","27.214","0.38118","5"],
    [8666,"HCEP03730566","2023-12-27 14:45:00","11.3491","3.4475","27.895","3.677","7.55","0.355","4.037","0.01","0.2","30.1796","4.74221","40.68","0","SATNPRO1509","27.128","0.37998","5"],
    [8667,"HCEP03730566","2023-12-27 15:00:00","11.3511","3.44762","27.902","3.695","7.55","0.349","4.305","0.01","0.21","30.1791","4.74211","40.88","0","SATNPRO1509","27.226","0.38132","5"],
    [8668,"HCEP03730566","2023-12-27 15:15:00","11.3477","3.44762","27.968","3.681","7.55","0.37","4.403","0.01","0.47","30.1819","4.74256","40.73","0","SATNPRO1509","27.362","0.38324","5"],
    [8669,"HCEP03730566","2023-12-27 15:30:00","11.3502","3.44764","27.996","3.687","7.55","0.351","3.716","0.02","0.22","30.18","4.74226","40.8","0","SATNPRO1509","27.498","0.38514","5"],
    [8670,"HCEP03730566","2023-12-27 15:45:00","11.3603","3.44831","27.979","3.632","7.55","0.373","3.52","0.01","0.15","30.1782","4.74186","40.19","0","SATNPRO1509","27.208","0.38112","5"],
    [8671,"HCEP03730566","2023-12-27 16:00:00","11.3666","3.44853","28.021","3.583","7.54","0.363","3.988","0.01","0.48","30.1752","4.74134","39.65","0","SATNPRO1509","27.13","0.37998","5"],
    [8672,"HCEP03730566","2023-12-27 16:15:00","11.3672","3.44888","27.975","3.53","7.54","0.341","4.84","0.01","0.26","30.1782","4.74175","39.07","0","SATNPRO1509","27.024","0.37852","5"],
    [8673,"HCEP03730566","2023-12-27 16:30:00","11.3585","3.4483","28.002","3.603","7.54","0.323","4.625","0.01","0.39","30.1797","4.74209","39.87","0","SATNPRO1509","27.096","0.37954","5"],
    [8674,"HCEP03730566","2023-12-27 16:45:00","11.3631","3.4486","27.946","3.569","7.54","0.33","4.554","0.01","0.18","30.1788","4.7419","39.5","0","SATNPRO1509","26.913999999999998","0.37694","5"],
    [8675,"HCEP03730566","2023-12-27 17:00:00","11.3731","3.44917","27.883","3.503","7.54","0.331","5.432","0.01","0.18","30.1762","4.74137","38.78","0","SATNPRO1509","26.828","0.3758","5"],
    [8676,"HCEP03730566","2023-12-27 17:15:00","11.3821","3.44967","27.683","3.45","7.53","0.336","5.289","0.01","0.24","30.1738","4.7409","38.2","0","SATNPRO1509","26.862","0.37624","5"],
    [8677,"HCEP03730566","2023-12-27 17:30:00","11.3986","3.45102","27.704","3.333","7.53","4.641","50.445","5.44","49.04","30.1734","4.74059","36.91","0","SATNPRO1509","26.642","0.3732","5"],
    [8678,"HCEP03730566","2023-12-27 17:45:00","11.4183","3.4521","27.592","3.222","7.52","0.335","5.416","0.01","0.2","30.1678","4.73951","35.7","0","SATNPRO1509","26.657999999999998","0.37338","5"],
    [8679,"HCEP03730566","2023-12-27 18:00:00","11.4309","3.45278","27.548","3.146","7.51","0.329","5.819","0.01","0.29","30.1642","4.73881","34.86","0","SATNPRO1509","26.573999999999998","0.37222","5"],
    [8680,"HCEP03730566","2023-12-27 18:15:00","11.4346","3.45304","27.328","3.143","7.51","0.334","4.993","0.01","0.2","30.1637","4.73868","34.83","0","SATNPRO1509","26.772000000000002","0.37498","5"],
    [8681,"HCEP03730566","2023-12-27 18:30:00","11.4372","3.453","27.122","3.142","7.51","0.315","4.823","0.01","0.15","30.1614","4.73829","34.82","0","SATNPRO1509","26.785999999999998","0.37518","5"],
    [8682,"HCEP03730566","2023-12-27 18:45:00","11.4409","3.45303","26.963","3.115","7.51","0.327","4.637","0.01","0.29","30.1587","4.73785","34.53","0","SATNPRO1509","26.736","0.3745","5"],
    [8683,"HCEP03730566","2023-12-27 19:00:00","11.444","3.45259","26.689","3.099","7.51","0.319","4.929","0.02","0.24","30.152","4.73684","34.35","0","SATNPRO1509","26.844","0.37596","5"],
    [8684,"HCEP03730566","2023-12-27 19:15:00","11.4474","3.45208","26.481","3.058","7.5","0.333","5.126","0.01","0.24","30.1444","4.7357","33.89","0","SATNPRO1509","26.678","0.37368","5"],
    [8685,"HCEP03730566","2023-12-27 19:30:00","11.4508","3.45148","26.346","2.995","7.5","0.325","5.349","0.01","0.28","30.1359","4.73444","33.2","0","SATNPRO1509","26.558","0.37198","5"],
    [8686,"HCEP03730566","2023-12-27 19:45:00","11.444","3.44916","25.984","3.026","7.5","0.332","5.021","0.01","0.24","30.1191","4.73214","33.53","0","SATNPRO1509","26.548","0.37184","5"],
    [8687,"HCEP03730566","2023-12-27 20:00:00","11.4461","3.44838","25.816","2.99","7.5","0.33","5.773","0.01","0.26","30.1099","4.7308","33.14","0","SATNPRO1509","26.448","0.37046","5"],
    [8688,"HCEP03730566","2023-12-27 20:15:00","11.4488","3.44785","25.506","2.96","7.5","0.351","5.958","0.03","0.62","30.1027","4.72972","32.8","0","SATNPRO1509","26.356","0.36916","5"],
    [8689,"HCEP03730566","2023-12-27 20:30:00","11.4518","3.44746","25.326","2.929","7.5","0.336","6.248","0.01","0.34","30.0965","4.72879","32.45","0","SATNPRO1509","26.426000000000002","0.37016","5"],
    [8690,"HCEP03730566","2023-12-27 20:45:00","11.4508","3.44635","25.124","2.911","7.49","0.363","7.17","0.01","0.48","30.0867","4.7274","32.25","0","SATNPRO1509","26.23","0.36738","5"],
    [8691,"HCEP03730566","2023-12-27 21:00:00","11.4485","3.44514","25.001","2.904","7.49","0.357","7.268","0.01","0.34","30.0768","4.72604","32.17","0","SATNPRO1509","26.268","0.36792","5"],
    [8692,"HCEP03730566","2023-12-27 21:15:00","11.4433","3.44321","24.743","2.913","7.49","0.368","6.552","0.01","0.27","30.0624","4.72406","32.27","0","SATNPRO1509","26.246","0.3676","5"],
    [8693,"HCEP03730566","2023-12-27 21:30:00","11.4394","3.44166","24.523","2.911","7.49","0.361","6.973","0.01","0.27","30.0507","4.72244","32.24","0","SATNPRO1509","26.132","0.366","5"],
    [8694,"HCEP03730566","2023-12-27 21:45:00","11.4362","3.44032","24.41","2.91","7.49","0.371","6.595","0.01","0.32","30.0403","4.72101","32.23","0","SATNPRO1509","26.099999999999998","0.36556","5"],
    [8695,"HCEP03730566","2023-12-27 22:00:00","11.4339","3.43935","24.289","2.913","7.49","0.357","6.789","0.01","0.3","30.0329","4.71998","32.25","0","SATNPRO1509","26.066","0.36514","5"],
    [8696,"HCEP03730566","2023-12-27 22:15:00","11.4319","3.43849","24.238","2.916","7.49","0.365","6.531","0.01","0.28","30.0263","4.71907","32.29","0","SATNPRO1509","26.012","0.36432","5"],
    [8697,"HCEP03730566","2023-12-27 22:30:00","11.4308","3.43789","24.197","2.92","7.49","0.354","6.343","0.01","0.36","30.0214","4.71839","32.33","0","SATNPRO1509","26.112","0.36576","5"],
    [8698,"HCEP03730566","2023-12-27 22:45:00","11.4294","3.43731","24.123","2.933","7.49","0.363","6.251","0.01","0.39","30.0169","4.71777","32.47","0","SATNPRO1509","26.026","0.36454","5"],
    [8699,"HCEP03730566","2023-12-27 23:00:00","11.4285","3.43674","24.07","2.943","7.49","0.351","6.143","0.01","0.18","30.012","4.71709","32.58","0","SATNPRO1509","26.236","0.36754","5"],
    [8700,"HCEP03730566","2023-12-27 23:15:00","11.4287","3.43666","24.106","2.947","7.49","0.367","6.056","0.01","0.2","30.0112","4.71698","32.62","0","SATNPRO1509","26.26","0.36778","5"],
    [8701,"HCEP03730566","2023-12-27 23:30:00","11.4282","3.43647","24.152","2.944","7.49","0.354","5.812","0.01","0.18","30.0097","4.71677","32.59","0","SATNPRO1509","26.2","0.36696","5"],
    [8702,"HCEP03730566","2023-12-27 23:45:00","11.4281","3.43635","24.242","2.934","7.49","0.364","5.567","0.01","0.19","30.0085","4.71661","32.48","0","SATNPRO1509","26.162","0.36642","5"],
    [8703,"HCEP03730566","2023-12-28 00:00:00","11.427","3.43601","24.332","2.933","7.49","0.347","5.365","0.01","0.16","30.0061","4.71629","32.47","0","SATNPRO1509","26.11","0.36572","5"],
    [8704,"HCEP03730566","2023-12-28 00:15:00","11.4268","3.43569","24.402","2.922","7.49","0.364","5.362","0.01","0.2","30.0032","4.71588","32.34","0","SATNPRO1509","26.137999999999998","0.36612","5"],
    [8705,"HCEP03730566","2023-12-28 00:30:00","11.4261","3.43533","24.499","2.917","7.49","0.349","5.184","0.01","0.27","30.0002","4.71548","32.29","0","SATNPRO1509","26.16","0.36642","5"],
    [8706,"HCEP03730566","2023-12-28 00:45:00","11.4257","3.43495","24.669","2.9","7.49","0.359","5.305","0.01","0.15","29.9969","4.71502","32.1","0","SATNPRO1509","26.092","0.36546","5"],
    [8707,"HCEP03730566","2023-12-28 01:00:00","11.4253","3.43465","24.858","2.892","7.49","0.345","6.519","0.01","2.09","29.9941","4.71465","32.01","0","SATNPRO1509","26.028","0.36458","5"],
    [8708,"HCEP03730566","2023-12-28 01:15:00","11.4251","3.43445","25.002","2.888","7.49","0.361","8.232","0.02","2.02","29.9923","4.7144","31.96","0","SATNPRO1509","26.028","0.36456","5"],
    [8709,"HCEP03730566","2023-12-28 01:30:00","11.425","3.43429","25.199","2.886","7.49","0.345","6.821","0.01","2.37","29.9908","4.71419","31.94","0","SATNPRO1509","25.956","0.36354","5"],
    [8710,"HCEP03730566","2023-12-28 01:45:00","11.4249","3.43427","25.366","2.884","7.49","0.352","6.007","0.01","0.19","29.9906","4.71418","31.92","0","SATNPRO1509","26.018","0.36442","5"],
    [8711,"HCEP03730566","2023-12-28 02:00:00","11.4232","3.43353","25.602","2.886","7.49","0.343","6.131","0.01","0.22","29.9848","4.71339","31.94","0","SATNPRO1509","26.006","0.36428","5"],
    [8712,"HCEP03730566","2023-12-28 02:15:00","11.4215","3.43297","25.823","2.872","7.49","0.361","5.513","0.02","0.26","29.9806","4.71283","31.78","0","SATNPRO1509","26.002","0.3642","5"],
    [8713,"HCEP03730566","2023-12-28 02:30:00","11.4215","3.43284","26.088","2.869","7.49","0.346","5.462","0.01","0.18","29.9793","4.71266","31.74","0","SATNPRO1509","25.904","0.36284","5"],
    [8714,"HCEP03730566","2023-12-28 02:45:00","11.4213","3.43236","26.258","2.859","7.49","0.356","5.365","0.02","0.25","29.9746","4.71201","31.64","0","SATNPRO1509","25.992","0.36412","5"],
    [8715,"HCEP03730566","2023-12-28 03:00:00","11.4192","3.43191","26.486","2.859","7.49","0.342","5.363","0.01","0.23","29.9719","4.71167","31.63","0","SATNPRO1509","25.972","0.36378","5"],
    [8716,"HCEP03730566","2023-12-28 03:15:00","11.42","3.43144","26.791","2.84","7.49","0.358","5.522","0.01","0.14","29.9666","4.71092","31.42","0","SATNPRO1509","25.976","0.36384","5"],
    [8717,"HCEP03730566","2023-12-28 03:30:00","11.4194","3.43096","26.956","2.829","7.48","0.346","5.636","0.01","0.13","29.9624","4.71035","31.31","0","SATNPRO1509","25.896","0.36274","5"],
    [8718,"HCEP03730566","2023-12-28 03:45:00","11.418","3.43058","27.201","2.834","7.48","0.36","5.24","0.02","0.13","29.9597","4.71","31.36","0","SATNPRO1509","25.98","0.36388","5"],
    [8719,"HCEP03730566","2023-12-28 04:00:00","11.418","3.4305","27.421","2.831","7.48","0.339","5.353","0.01","0.11","29.9589","4.70989","31.33","0","SATNPRO1509","25.888","0.36262","5"],
    [8720,"HCEP03730566","2023-12-28 04:15:00","11.4143","3.42936","27.628","2.837","7.48","0.35","4.845","0.01","0.1","29.9507","4.70881","31.38","0","SATNPRO1509","25.902","0.36278","5"],
    [8721,"HCEP03730566","2023-12-28 04:30:00","11.4166","3.43023","27.8","2.834","7.48","0.343","4.802","0.01","0.11","29.9572","4.7097","31.35","0","SATNPRO1509","25.92","0.36308","5"],
    [8722,"HCEP03730566","2023-12-28 04:45:00","11.4182","3.43098","27.975","2.83","7.48","0.346","4.563","0.01","0.12","29.9631","4.71053","31.31","0","SATNPRO1509","25.976","0.36386","5"],
    [8723,"HCEP03730566","2023-12-28 05:00:00","11.4186","3.43133","28.066","2.831","7.48","0.342","4.787","0.01","0.15","29.9661","4.71095","31.33","0","SATNPRO1509","25.952","0.36348","5"],
    [8724,"HCEP03730566","2023-12-28 05:15:00","11.4179","3.43098","28.259","2.836","7.48","0.346","4.452","0.01","0.09","29.9633","4.71057","31.38","0","SATNPRO1509","25.902","0.36278","5"],
    [8725,"HCEP03730566","2023-12-28 05:30:00","11.4198","3.43176","28.333","2.812","7.48","0.362","6.871","0.03","5.35","29.9692","4.71139","31.11","0","SATNPRO1509","25.714","0.36022","5"],
    [8726,"HCEP03730566","2023-12-28 05:45:00","11.4176","3.43118","28.461","2.832","7.48","0.348","4.805","0.01","0.14","29.9653","4.71087","31.34","0","SATNPRO1509","26.072","0.36518","5"],
    [8727,"HCEP03730566","2023-12-28 06:00:00","11.416","3.43072","28.534","2.838","7.48","0.326","4.188","0.01","0.16","29.9622","4.71045","31.4","0","SATNPRO1509","26.008","0.36426","5"],
    [8728,"HCEP03730566","2023-12-28 06:15:00","11.4171","3.43097","28.579","2.833","7.48","0.342","4.536","0.01","0.22","29.9637","4.71066","31.34","0","SATNPRO1509","25.904","0.36286","5"],
    [8729,"HCEP03730566","2023-12-28 06:30:00","11.4167","3.43088","28.574","2.806","7.48","0.336","4.971","0.01","0.18","29.9632","4.71059","31.04","0","SATNPRO1509","25.736","0.3605","5"],
    [8730,"HCEP03730566","2023-12-28 06:45:00","11.4179","3.43125","28.55","2.796","7.48","0.408","5.678","0.05","0.44","29.9658","4.71094","30.94","0","SATNPRO1509","25.702","0.35996","5"],
    [8731,"HCEP03730566","2023-12-28 07:00:00","11.4185","3.43132","28.634","2.788","7.48","0.515","8.278","0.27","4.5","29.9659","4.71095","30.85","0","SATNPRO1509","25.74","0.36054","5"],
    [8732,"HCEP03730566","2023-12-28 07:15:00","11.4165","3.43084","28.598","2.794","7.48","0.367","5.43","0.01","0.41","29.9629","4.71056","30.92","0","SATNPRO1509","25.772000000000002","0.36098","5"],
    [8733,"HCEP03730566","2023-12-28 07:30:00","11.4178","3.43144","28.565","2.787","7.48","0.351","5.407","0.03","0.51","29.9678","4.71122","30.84","0","SATNPRO1509","25.796","0.36134","5"],
    [8734,"HCEP03730566","2023-12-28 07:45:00","11.4164","3.4317","28.461","2.812","7.48","0.379","5.238","0.03","0.38","29.9714","4.71175","31.12","0","SATNPRO1509","25.945999999999998","0.36338","5"],
    [8735,"HCEP03730566","2023-12-28 08:00:00","11.4175","3.43273","28.419","2.794","7.48","0.422","6.24","0.03","0.31","29.9805","4.71302","30.92","0","SATNPRO1509","26.02","0.36446","5"],
    [8736,"HCEP03730566","2023-12-28 08:15:00","11.4147","3.43186","28.303","2.82","7.48","0.366","6.586","0.03","1.8","29.9744","4.71219","31.2","0","SATNPRO1509","26.078","0.36528","5"],
    [8737,"HCEP03730566","2023-12-28 08:30:00","11.402","3.4283","28.181","2.843","7.48","0.353","5.999","0.02","0.29","29.9502","4.70894","31.44","0","SATNPRO1509","26.046","0.36484","5"],
    [8738,"HCEP03730566","2023-12-28 08:45:00","11.3922","3.42542","28.112","2.848","7.48","0.404","8.705","0.03","1.09","29.9303","4.70626","31.48","0","SATNPRO1509","25.946","0.3634","5"],
    [8739,"HCEP03730566","2023-12-28 09:00:00","11.3572","3.41419","28.028","3.003","7.49","0.449","7.316","0.06","0.79","29.8498","4.69534","33.16","0","SATNPRO1509","26.216","0.36718","5"],
    [8740,"HCEP03730566","2023-12-28 09:15:00","11.3436","3.41077","27.922","3.09","7.49","0.438","6.767","0.05","1.92","29.8277","4.6924","34.1","0","SATNPRO1509","26.534","0.37168","5"],
    [8741,"HCEP03730566","2023-12-28 09:30:00","11.3353","3.41007","27.844","3.123","7.5","0.406","5.762","0.05","0.86","29.8276","4.6925","34.46","0","SATNPRO1509","26.541999999999998","0.37176","5"],
    [8742,"HCEP03730566","2023-12-28 09:45:00","11.3307","3.41127","27.764","3.19","7.5","0.433","7.334","0.05","2.28","29.843","4.69475","35.21","0","SATNPRO1509","26.684","0.37374","5"],
    [8743,"HCEP03730566","2023-12-28 10:00:00","11.3264","3.41328","27.656","3.274","7.51","0.334","6.379","0.02","1.4","29.866","4.69807","36.13","0","SATNPRO1509","26.798","0.37534","5"],
    [8744,"HCEP03730566","2023-12-28 10:15:00","11.327","3.4157","27.62","3.3","7.51","0.431","7.239","0.04","1.26","29.889","4.70133","36.43","0","SATNPRO1509","26.884","0.37658","5"],
    [8745,"HCEP03730566","2023-12-28 10:30:00","11.3224","3.41617","27.545","3.335","7.51","0.333","5.418","0.02","1.35","29.8973","4.70256","36.81","0","SATNPRO1509","26.942","0.3774","5"],
    [8746,"HCEP03730566","2023-12-28 10:45:00","11.2983","3.415","27.386","3.519","7.52","0.336","4.529","0.01","1.46","29.9055","4.70408","38.82","0","SATNPRO1509","27.362000000000002","0.38326","5"],
    [8747,"HCEP03730566","2023-12-28 11:00:00","11.3192","3.41925","27.332","3.442","7.53","0.323","4.548","0.02","1.18","29.9299","4.70723","37.99","0","SATNPRO1509","27.172","0.3806","5"],
    [8748,"HCEP03730566","2023-12-28 11:15:00","11.3351","3.42177","27.257","3.344","7.52","0.34","4.248","0.01","0.5","29.9415","4.70863","36.93","0","SATNPRO1509","27.112000000000002","0.37976","5"],
    [8749,"HCEP03730566","2023-12-28 11:30:00","11.3454","3.42325","27.186","3.279","7.52","0.332","4.748","0.01","0.41","29.9476","4.70934","36.22","0","SATNPRO1509","27.08","0.37932","5"],
    [8750,"HCEP03730566","2023-12-28 11:45:00","11.3548","3.42426","27.144","3.209","7.52","0.358","5.185","0.02","0.78","29.9497","4.70951","35.45","0","SATNPRO1509","26.882","0.37652","5"],
    [8751,"HCEP03730566","2023-12-28 12:00:00","11.3681","3.42578","27.105","3.111","7.51","0.346","5.073","0.01","0.37","29.9537","4.70987","34.38","0","SATNPRO1509","26.834","0.37592","5"],
    [8752,"HCEP03730566","2023-12-28 12:15:00","11.3872","3.42807","27.084","2.991","7.5","0.364","4.825","0.02","0.52","29.9604","4.71054","33.07","0","SATNPRO1509","26.532","0.37162","5"],
    [8753,"HCEP03730566","2023-12-28 12:30:00","11.3915","3.42864","27.099","2.922","7.5","0.35","4.291","0.02","0.29","29.9625","4.71077","32.31","0","SATNPRO1509","26.418","0.37006","5"],
    [8754,"HCEP03730566","2023-12-28 12:45:00","11.3959","3.42906","27.105","2.882","7.5","0.356","4.488","0.01","0.53","29.963","4.71079","31.87","0","SATNPRO1509","26.322","0.36868","5"],
    [8755,"HCEP03730566","2023-12-28 13:00:00","11.3997","3.42958","27.136","2.841","7.49","0.347","4.703","0.01","0.25","29.965","4.71101","31.42","0","SATNPRO1509","26.312","0.36852","5"],
    [8756,"HCEP03730566","2023-12-28 13:15:00","11.402","3.43001","27.178","2.815","7.49","0.364","5.036","0.02","0.28","29.9672","4.71129","31.13","0","SATNPRO1509","26.238","0.36754","5"],
    [8757,"HCEP03730566","2023-12-28 13:30:00","11.4019","3.43001","27.272","2.805","7.49","0.346","4.895","0.01","0.25","29.9673","4.71131","31.03","0","SATNPRO1509","25.958","0.36356","5"],
    [8758,"HCEP03730566","2023-12-28 13:45:00","11.401","3.4299","27.341","2.807","7.49","0.366","4.827","0.02","0.26","29.9668","4.71126","31.04","0","SATNPRO1509","26.092","0.36546","5"],
    [8759,"HCEP03730566","2023-12-28 14:00:00","11.3992","3.42943","27.42","2.815","7.49","0.35","4.608","0.02","0.3","29.9637","4.71086","31.14","0","SATNPRO1509","26.258","0.36778","5"],
    [8760,"HCEP03730566","2023-12-28 14:15:00","11.399","3.42947","27.412","2.812","7.49","0.365","4.801","0.02","0.3","29.9643","4.71095","31.1","0","SATNPRO1509","26.227999999999998","0.36738","5"],
    [8761,"HCEP03730566","2023-12-28 14:30:00","11.3972","3.42928","27.521","2.805","7.49","0.344","4.62","0.01","0.2","29.9639","4.71091","31.03","0","SATNPRO1509","26.226","0.36736","5"],
    [8762,"HCEP03730566","2023-12-28 14:45:00","11.3936","3.42824","27.562","2.844","7.49","0.356","4.641","0.01","0.31","29.9567","4.70996","31.45","0","SATNPRO1509","26.366","0.36926","5"],
    [8763,"HCEP03730566","2023-12-28 15:00:00","11.3902","3.42807","27.56","2.872","7.49","0.346","4.359","0.02","0.21","29.9577","4.71015","31.76","0","SATNPRO1509","26.402","0.36978","5"],
    [8764,"HCEP03730566","2023-12-28 15:15:00","11.3902","3.42796","27.695","2.876","7.49","0.355","4.107","0.02","0.28","29.9567","4.71","31.81","0","SATNPRO1509","26.46","0.37058","5"],
    [8765,"HCEP03730566","2023-12-28 15:30:00","11.3965","3.42918","27.652","2.822","7.49","0.349","4.499","0.02","0.18","29.9634","4.71087","31.21","0","SATNPRO1509","26.26","0.36784","5"],
    [8766,"HCEP03730566","2023-12-28 15:45:00","11.3972","3.42955","27.792","2.788","7.48","0.364","4.768","0.01","0.27","29.9664","4.71128","30.84","0","SATNPRO1509","26.206","0.36706","5"],
    [8767,"HCEP03730566","2023-12-28 16:00:00","11.4019","3.43029","27.835","2.759","7.48","0.36","5.183","0.03","0.44","29.9697","4.71169","30.51","0","SATNPRO1509","26.112","0.36576","5"],
    [8768,"HCEP03730566","2023-12-28 16:15:00","11.4021","3.43046","27.809","2.777","7.48","0.353","4.523","0.01","0.28","29.9712","4.7119","30.71","0","SATNPRO1509","26.256","0.36776","5"],
    [8769,"HCEP03730566","2023-12-28 16:30:00","11.4047","3.43089","27.83","2.783","7.48","0.35","4.952","0.01","0.49","29.9733","4.71215","30.78","0","SATNPRO1509","26.318","0.36862","5"],
    [8770,"HCEP03730566","2023-12-28 16:45:00","11.4016","3.43093","27.831","2.832","7.48","0.366","4.514","0.01","0.67","29.9762","4.71262","31.32","0","SATNPRO1509","26.708000000000002","0.3741","5"],
    [8771,"HCEP03730566","2023-12-28 17:00:00","11.4065","3.43136","27.856","2.758","7.48","0.385","6.244","0.02","0.31","29.9764","4.71257","30.51","0","SATNPRO1509","26.222","0.3673","5"],
    [8772,"HCEP03730566","2023-12-28 17:15:00","11.3172","3.42391","27.789","3.302","7.49","0.365","5.664","0.01","0.35","29.9766","4.7139","36.46","0","SATNPRO1509","27.302","0.38242","5"],
    [8773,"HCEP03730566","2023-12-28 17:30:00","11.2995","3.42302","27.796","3.502","7.51","0.341","5.341","0.01","0.21","29.9822","4.71496","38.65","0","SATNPRO1509","27.464000000000002","0.38472","5"],
    [8774,"HCEP03730566","2023-12-28 17:45:00","11.2976","3.42391","27.738","3.539","7.53","0.359","5.398","0.01","0.3","29.9925","4.71644","39.06","0","SATNPRO1509","27.576","0.38628","5"],
    [8775,"HCEP03730566","2023-12-28 18:00:00","11.2993","3.42418","27.603","3.56","7.53","0.355","5.937","0.01","0.74","29.9938","4.7166","39.3","0","SATNPRO1509","27.55","0.38586","5"],
    [8776,"HCEP03730566","2023-12-28 18:15:00","11.305","3.4243","27.572","3.515","7.53","0.352","5.189","0.01","0.65","29.9903","4.71602","38.81","0","SATNPRO1509","27.534","0.38566","5"],
    [8777,"HCEP03730566","2023-12-28 18:30:00","11.3246","3.4254","27.381","3.399","7.53","0.34","4.727","0.01","0.19","29.9851","4.71498","37.53","0","SATNPRO1509","27.444","0.38438","5"],
    [8778,"HCEP03730566","2023-12-28 18:45:00","11.3305","3.42587","27.295","3.326","7.53","0.379","4.937","0.02","0.52","29.985","4.71487","36.74","0","SATNPRO1509","27.254","0.38176","5"],
    [8779,"HCEP03730566","2023-12-28 19:00:00","11.3431","3.42621","27.146","3.258","7.52","0.375","5.099","0.05","1.24","29.978","4.71369","36","0","SATNPRO1509","27.262","0.3819","5"],
    [8780,"HCEP03730566","2023-12-28 19:15:00","11.3381","3.42582","26.968","3.275","7.52","0.353","4.327","0.02","0.24","29.9784","4.71381","36.18","0","SATNPRO1509","27.278","0.38206","5"],
    [8781,"HCEP03730566","2023-12-28 19:30:00","11.3227","3.4251","26.824","3.339","7.52","0.332","4.954","0.01","0.21","29.984","4.71483","36.88","0","SATNPRO1509","27.266","0.3819","5"],
    [8782,"HCEP03730566","2023-12-28 19:45:00","11.3087","3.42459","26.756","3.434","7.53","0.346","4.924","0.01","0.29","29.9905","4.71594","37.92","0","SATNPRO1509","27.522","0.3855","5"],
    [8783,"HCEP03730566","2023-12-28 20:00:00","11.3052","3.4245","26.543","3.477","7.53","0.34","5.235","0.01","0.31","29.9925","4.71627","38.38","0","SATNPRO1509","27.426","0.38416","5"],
    [8784,"HCEP03730566","2023-12-28 20:15:00","11.3045","3.42443","26.362","3.478","7.53","0.352","5.086","0.01","0.27","29.9924","4.71626","38.4","0","SATNPRO1509","27.582","0.38636","5"],
    [8785,"HCEP03730566","2023-12-28 20:30:00","11.304","3.42431","26.185","3.468","7.53","0.336","4.841","0.01","0.37","29.9918","4.71617","38.28","0","SATNPRO1509","27.566","0.38612","5"],
    [8786,"HCEP03730566","2023-12-28 20:45:00","11.305","3.4243","26.008","3.453","7.53","0.35","4.907","0.01","0.37","29.991","4.71602","38.12","0","SATNPRO1509","27.628","0.38698","5"],
    [8787,"HCEP03730566","2023-12-28 21:00:00","11.3061","3.42431","25.778","3.443","7.53","0.339","5.018","0.01","0.26","29.9902","4.71588","38.01","0","SATNPRO1509","27.546","0.38582","5"],
    [8788,"HCEP03730566","2023-12-28 21:15:00","11.3086","3.42406","25.554","3.44","7.53","0.348","4.644","0.01","0.26","29.9859","4.71523","37.98","0","SATNPRO1509","27.404","0.38384","5"],
    [8789,"HCEP03730566","2023-12-28 21:30:00","11.3161","3.42302","25.339","3.382","7.53","0.33","4.288","0.02","0.18","29.9697","4.71281","37.34","0","SATNPRO1509","27.27","0.38196","5"],
    [8790,"HCEP03730566","2023-12-28 21:45:00","11.3116","3.42373","25.163","3.382","7.53","0.34","4.433","0.01","0.26","29.9803","4.71437","37.34","0","SATNPRO1509","27.388","0.38362","5"],
    [8791,"HCEP03730566","2023-12-28 22:00:00","11.3121","3.4236","24.92","3.383","7.53","0.33","4.325","0.01","0.23","29.9787","4.71412","37.35","0","SATNPRO1509","27.224","0.38132","5"],
    [8792,"HCEP03730566","2023-12-28 22:15:00","11.3146","3.42336","24.738","3.354","7.53","0.328","4.027","0.02","0.21","29.9746","4.71349","37.03","0","SATNPRO1509","27.324","0.38272","5"],
    [8793,"HCEP03730566","2023-12-28 22:30:00","11.3161","3.4232","24.59","3.358","7.53","0.329","4.332","0.01","0.45","29.971800000000002","4.71306","37.08","0","SATNPRO1509","27.394000000000002","0.38372","5"],
    [8794,"HCEP03730566","2023-12-28 22:45:00","11.3116","3.42368","24.472","3.394","7.53","0.438","9.528","0.17","15.4","29.9802","4.71432","37.47","0","SATNPRO1509","27.444","0.3844","5"],
    [8795,"HCEP03730566","2023-12-28 23:00:00","11.3111","3.42396","24.357","3.39","7.53","0.436","5.769","0.09","1.05","29.9834","4.71476","37.43","0","SATNPRO1509","27.375999999999998","0.38346","5"],
    [8796,"HCEP03730566","2023-12-28 23:15:00","11.3115","3.42441","24.277","3.337","7.53","0.374","5.657","0.04","0.6","29.9874","4.71533","36.85","0","SATNPRO1509","27.198","0.38098","5"],
    [8797,"HCEP03730566","2023-12-28 23:30:00","11.313","3.42448","24.254","3.308","7.53","0.373","6.079","0.03","0.59","29.9869","4.71523","36.52","0","SATNPRO1509","27.11","0.37974","5"],
    [8798,"HCEP03730566","2023-12-28 23:45:00","11.3146","3.42451","24.257","3.345","7.53","0.39","5.644","0.03","0.49","29.9859","4.71506","36.93","0","SATNPRO1509","27.168","0.38052","5"],
    [8799,"HCEP03730566","2023-12-29 00:00:00","11.3176","3.42472","24.327","3.289","7.53","0.39","6.145","0.04","0.36","29.9855","4.71496","36.32","0","SATNPRO1509","27.024","0.37848","5"],
    [8800,"HCEP03730566","2023-12-29 00:15:00","11.3215","3.42495","24.343","3.232","7.52","0.368","6.025","0.03","0.81","29.9845","4.71477","35.69","0","SATNPRO1509","26.966","0.37768","5"],
    [8801,"HCEP03730566","2023-12-29 00:30:00","11.3209","3.42502","24.45","3.256","7.52","0.385","6.159","0.04","1.03","29.9856","4.71494","35.96","0","SATNPRO1509","27.162","0.38046","5"],
    [8802,"HCEP03730566","2023-12-29 00:45:00","11.319","3.42497","24.486","3.271","7.52","0.384","5.785","0.03","0.98","29.9866","4.71512","36.12","0","SATNPRO1509","27.066","0.3791","5"],
    [8803,"HCEP03730566","2023-12-29 01:00:00","11.3165","3.42486","24.613","3.301","7.52","0.369","5.268","0.09","0.38","29.9876","4.7153","36.45","0","SATNPRO1509","27.116","0.3798","5"],
    [8804,"HCEP03730566","2023-12-29 01:15:00","11.317","3.42494","24.727","3.315","7.52","0.352","4.799","0.01","0.17","29.9879","4.71534","36.6","0","SATNPRO1509","27.22","0.38128","5"],
    [8805,"HCEP03730566","2023-12-29 01:30:00","11.323","3.42511","24.885","3.264","7.52","0.334","4.123","0.02","0.2","29.9846","4.71479","36.05","0","SATNPRO1509","27.328","0.38278","5"],
    [8806,"HCEP03730566","2023-12-29 01:45:00","11.3238","3.42536","25.054","3.218","7.52","0.346","4.17","0.02","0.2","29.9863","4.71503","35.54","0","SATNPRO1509","27.234","0.38144","5"],
    [8807,"HCEP03730566","2023-12-29 02:00:00","11.3252","3.42548","25.207","3.177","7.52","0.339","4.383","0.02","0.44","29.9863","4.71502","35.09","0","SATNPRO1509","27.06","0.37902","5"],
    [8808,"HCEP03730566","2023-12-29 02:15:00","11.33","3.4255","25.408","3.166","7.52","0.388","4.888","0.05","1.38","29.9825","4.71442","34.96","0","SATNPRO1509","27.204","0.3811","5"],
    [8809,"HCEP03730566","2023-12-29 02:30:00","11.3316","3.42366","25.588","3.164","7.52","0.327","3.347","0.01","0.18","29.9633","4.71169","34.95","0","SATNPRO1509","27.336","0.38288","5"],
    [8810,"HCEP03730566","2023-12-29 02:45:00","11.3317","3.42505","25.784","3.119","7.52","0.372","4.637","0.06","0.24","29.9767","4.71359","34.45","0","SATNPRO1509","27.002","0.37818","5"],
    [8811,"HCEP03730566","2023-12-29 03:00:00","11.3323","3.42464","25.994","3.08","7.51","0.336","4.919","0.01","0.23","29.9721","4.71294","34.02","0","SATNPRO1509","26.93","0.3772","5"],
    [8812,"HCEP03730566","2023-12-29 03:15:00","11.3322","3.42435","26.188","3.067","7.51","0.374","5.28","0.03","0.28","29.9692","4.71255","33.87","0","SATNPRO1509","26.896","0.37674","5"],
    [8813,"HCEP03730566","2023-12-29 03:30:00","11.3326","3.42343","26.419","3.048","7.51","0.335","4.679","0.01","0.24","29.96","4.71125","33.67","0","SATNPRO1509","26.868","0.37636","5"],
    [8814,"HCEP03730566","2023-12-29 03:45:00","11.3392","3.42246","26.657","3.07","7.51","0.347","4.264","0.02","0.53","29.9451","4.70904","33.9","0","SATNPRO1509","27.19","0.38088","5"],
    [8815,"HCEP03730566","2023-12-29 04:00:00","11.3343","3.42434","26.863","3.091","7.51","0.342","5.011","0.02","0.42","29.9672","4.71227","34.14","0","SATNPRO1509","27.182","0.3807","5"],
    [8816,"HCEP03730566","2023-12-29 04:15:00","11.3308","3.42594","27.101","3.09","7.51","0.363","5.795","0.01","0.42","29.9855","4.71493","34.13","0","SATNPRO1509","26.99","0.37802","5"],
    [8817,"HCEP03730566","2023-12-29 04:30:00","11.3282","3.42572","27.369","3.166","7.51","0.403","5.639","0.04","0.36","29.9854","4.71496","34.97","0","SATNPRO1509","27.028","0.37854","5"],
    [8818,"HCEP03730566","2023-12-29 04:45:00","11.3308","3.42322","27.558","3.185","7.51","0.338","4.027","0.01","0.2","29.9589","4.71118","35.18","0","SATNPRO1509","27.188","0.3808","5"],
    [8819,"HCEP03730566","2023-12-29 05:00:00","11.3403","3.42288","27.764","3.133","7.51","0.337","3.93","0.02","0.18","29.9478","4.70948","34.6","0","SATNPRO1509","27.25","0.3817","5"],
    [8820,"HCEP03730566","2023-12-29 05:15:00","11.3373","3.42225","27.906","3.141","7.51","0.34","3.637","0.02","0.23","29.9441","4.70901","34.69","0","SATNPRO1509","27.246","0.38162","5"],
    [8821,"HCEP03730566","2023-12-29 05:30:00","11.3391","3.42338","28.058","3.146","7.51","0.334","3.958","0.02","0.22","29.9535","4.71032","34.75","0","SATNPRO1509","27.106","0.37964","5"],
    [8822,"HCEP03730566","2023-12-29 05:45:00","11.3317","3.4225","28.207","3.162","7.51","0.344","4.218","0.01","0.31","29.951","4.71008","34.92","0","SATNPRO1509","26.922","0.3771","5"],
    [8823,"HCEP03730566","2023-12-29 06:00:00","11.3259","3.42221","28.319","3.181","7.51","0.332","4.268","0.01","0.49","29.9527","4.71042","35.13","0","SATNPRO1509","27.252","0.38174","5"],
    [8824,"HCEP03730566","2023-12-29 06:15:00","11.3163","3.42042","28.398","3.187","7.51","0.341","4.042","0.01","0.21","29.9432","4.70921","35.18","0","SATNPRO1509","27.204","0.38104","5"],
    [8825,"HCEP03730566","2023-12-29 06:30:00","11.2974","3.41811","28.407","3.279","7.52","0.33","3.904","0.05","0.22","29.9361","4.70849","36.19","0","SATNPRO1509","27.178","0.3807","5"],
    [8826,"HCEP03730566","2023-12-29 06:45:00","11.2961","3.41846","28.42","3.297","7.52","0.328","3.595","0.01","0.23","29.9405","4.70913","36.38","0","SATNPRO1509","27.332","0.38282","5"],
    [8827,"HCEP03730566","2023-12-29 07:00:00","11.3207","3.4208","28.392","3.139","7.52","0.318","4.194","0.01","0.36","29.9433","4.70916","34.65","0","SATNPRO1509","26.994","0.37806","5"],
    [8828,"HCEP03730566","2023-12-29 07:15:00","11.3098","3.41998","28.41","3.15","7.52","0.361","4.628","0.09","2.28","29.9442","4.70946","34.76","0","SATNPRO1509","27.296","0.38234","5"],
    [8829,"HCEP03730566","2023-12-29 07:30:00","11.2949","3.41857","28.426","3.225","7.52","0.333","3.092","0.04","0.29","29.9425","4.70943","35.59","0","SATNPRO1509","27.528000000000002","0.38558","5"],
    [8830,"HCEP03730566","2023-12-29 07:45:00","11.3066","3.4193","28.435","3.187","7.52","8.302","71.624","1.43","19.16","29.9401","4.70892","35.17","0","SATNPRO1509","27.466","0.38476","5"],
    [8831,"HCEP03730566","2023-12-29 08:00:00","11.3182","3.42029","28.407","3.113","7.52","0.319","3.915","0.01","0.3","29.9403","4.70878","34.37","0","SATNPRO1509","27.352","0.38312","5"],
    [8832,"HCEP03730566","2023-12-29 08:15:00","11.3097","3.41942","28.402","3.159","7.52","4.219","62.222","3.44","44.09","29.9388","4.70869","34.87","0","SATNPRO1509","27.454","0.38452","5"],
    [8833,"HCEP03730566","2023-12-29 08:30:00","11.3161","3.42039","28.378","3.114","7.52","0.328","4.234","0.02","0.33","29.9431","4.70919","34.38","0","SATNPRO1509","27.266000000000002","0.38192","5"],
    [8834,"HCEP03730566","2023-12-29 08:45:00","11.3214","3.42729","28.349","3.108","7.51","0.343","5.341","0.01","0.42","30.0058","4.71801","34.32","0","SATNPRO1509","27.202","0.38104","5"],
    [8835,"HCEP03730566","2023-12-29 09:00:00","11.323","3.42772","28.241","3.121","7.51","0.339","4.826","0.01","0.22","30.0086","4.71838","34.47","0","SATNPRO1509","27.388","0.38362","5"],
    [8836,"HCEP03730566","2023-12-29 09:15:00","11.3233","3.42593","28.121","3.119","7.51","0.326","3.02","0.01","0.23","29.9911","4.71589","34.45","0","SATNPRO1509","27.786","0.38918","5"],
    [8837,"HCEP03730566","2023-12-29 09:30:00","11.3075","3.42697","28.089","3.242","7.52","0.336","4.682","0.02","0.28","30.014","4.71936","35.79","0","SATNPRO1509","27.26","0.38182","5"],
    [8838,"HCEP03730566","2023-12-29 09:45:00","11.2758","3.42582","27.966","3.419","7.52","0.332","4.583","0.01","0.24","30.0286","4.72191","37.73","0","SATNPRO1509","27.672","0.38758","5"],
    [8839,"HCEP03730566","2023-12-29 10:00:00","11.2664","3.42544","27.875","3.506","7.53","0.332","4.943","0.02","0.36","30.0327","4.72261","38.68","0","SATNPRO1509","27.728","0.38836","5"],
    [8840,"HCEP03730566","2023-12-29 10:15:00","11.2274","3.42206","27.783","3.711","7.54","0.338","4.248","0.01","0.24","30.0316","4.72303","40.91","0","SATNPRO1509","27.89","0.39066","5"],
    [8841,"HCEP03730566","2023-12-29 10:30:00","11.1996","3.41977","27.686","3.889","7.55","0.322","4.088","0.01","0.2","30.032","4.72349","42.84","0","SATNPRO1509","27.832","0.38984","5"],
    [8842,"HCEP03730566","2023-12-29 10:45:00","11.1894","3.41923","27.602","3.935","7.56","0.334","3.736","0.01","0.17","30.035","4.72407","43.34","0","SATNPRO1509","27.932","0.3912","5"],
    [8843,"HCEP03730566","2023-12-29 11:00:00","11.1788","3.41843","27.552","3.979","7.57","0.329","3.968","0.02","0.08","30.0359","4.72435","43.82","0","SATNPRO1509","27.983999999999998","0.39196","5"],
    [8844,"HCEP03730566","2023-12-29 11:15:00","11.169","3.41778","27.455","4.026","7.57","0.334","3.618","0.01","0.1","30.0376","4.72474","44.33","0","SATNPRO1509","27.984","0.39198","5"],
    [8845,"HCEP03730566","2023-12-29 11:30:00","11.1633","3.4177","27.372","4.045","7.58","0.331","4.336","0.01","0.16","30.0415","4.72538","44.53","0","SATNPRO1509","27.92","0.39106","5"],
    [8846,"HCEP03730566","2023-12-29 11:45:00","11.1552","3.41812","27.299","4.068","7.58","0.332","4.038","0.01","0.22","30.0522","4.72701","44.79","0","SATNPRO1509","27.916","0.39104","5"],
    [8847,"HCEP03730566","2023-12-29 12:00:00","11.136","3.41896","27.213","4.154","7.58","0.32","4.021","0.01","0.24","30.0761","4.73068","45.72","0","SATNPRO1509","27.874","0.39044","5"],
    [8848,"HCEP03730566","2023-12-29 12:15:00","11.128","3.42011","27.176","4.206","7.59","0.333","4.371","0.01","0.29","30.0939","4.73333","46.29","0","SATNPRO1509","27.900000000000002","0.39082","5"],
    [8849,"HCEP03730566","2023-12-29 12:30:00","11.1255","3.42234","27.129","4.22","7.59","0.328","4.407","0.01","0.22","30.1177","4.73674","46.45","0","SATNPRO1509","27.878","0.39044","5"],
    [8850,"HCEP03730566","2023-12-29 12:45:00","11.1223","3.4241","27.092","4.267","7.59","0.332","3.807","0.01","0.15","30.1375","4.73959","46.97","0","SATNPRO1509","27.88","0.3905","5"],
    [8851,"HCEP03730566","2023-12-29 13:00:00","11.1179","3.42454","27.089","4.289","7.6","0.318","3.864","0.01","0.24","30.1455","4.74079","47.2","0","SATNPRO1509","28.034","0.39266","5"],
    [8852,"HCEP03730566","2023-12-29 13:15:00","11.1179","3.42511","27.116","4.293","7.6","0.353","4.626","0.02","0.37","30.151","4.74157","47.25","0","SATNPRO1509","27.922","0.39112","5"],
    [8853,"HCEP03730566","2023-12-29 13:30:00","11.1174","3.42629","27.088","4.287","7.6","0.346","4.595","0.03","0.29","30.1629","4.74327","47.19","0","SATNPRO1509","27.992","0.39208","5"],
    [8854,"HCEP03730566","2023-12-29 13:45:00","11.1133","3.4262","27.125","4.32","7.61","0.347","3.233","0.02","0.16","30.1654","4.74368","47.55","0","SATNPRO1509","28.122","0.39392","5"],
    [8855,"HCEP03730566","2023-12-29 14:00:00","11.1125","3.42599","27.173","4.33","7.61","0.343","3.516","0.02","0.16","30.164","4.7435","47.66","0","SATNPRO1509","28.168","0.39454","5"],
    [8856,"HCEP03730566","2023-12-29 14:15:00","11.1093","3.4252","27.186","4.349","7.61","0.331","2.68","0.05","1.38","30.1589","4.74282","47.86","0","SATNPRO1509","28.184","0.39476","5"],
    [8857,"HCEP03730566","2023-12-29 14:30:00","11.1106","3.4255","27.227","4.339","7.61","0.35","2.83","0.03","0.18","30.1607","4.74306","47.76","0","SATNPRO1509","28.168","0.39454","5"],
    [8858,"HCEP03730566","2023-12-29 14:45:00","11.112","3.42575","27.24","4.324","7.61","0.328","3.087","0.02","0.26","30.162","4.74323","47.59","0","SATNPRO1509","28.018","0.39246","5"],
    [8859,"HCEP03730566","2023-12-29 15:00:00","11.1124","3.42578","27.343","4.315","7.61","0.309","3.305","0.01","0.17","30.1619","4.74322","47.5","0","SATNPRO1509","28.072","0.39326","5"],
    [8860,"HCEP03730566","2023-12-29 15:15:00","11.1142","3.42601","27.39","4.289","7.61","0.334","4.491","0.01","0.22","30.1626","4.74329","47.21","0","SATNPRO1509","27.99","0.39202","5"],
    [8861,"HCEP03730566","2023-12-29 15:30:00","11.1176","3.42777","27.449","4.244","7.61","0.33","4.314","0.02","0.23","30.177","4.74529","46.72","0","SATNPRO1509","27.878","0.3905","5"],
    [8862,"HCEP03730566","2023-12-29 15:45:00","11.1194","3.42826","27.489","4.229","7.6","0.339","4.843","0.01","0.18","30.1803","4.74573","46.56","0","SATNPRO1509","27.8","0.38938","5"],
    [8863,"HCEP03730566","2023-12-29 16:00:00","11.1195","3.4286","27.55","4.23","7.6","0.33","4.583","0.02","0.18","30.1835","4.74618","46.57","0","SATNPRO1509","27.678","0.38766","5"],
    [8864,"HCEP03730566","2023-12-29 16:15:00","11.1186","3.4287","27.65","4.229","7.6","0.34","4.916","0.01","0.23","30.1852","4.74645","46.55","0","SATNPRO1509","27.67","0.38758","5"],
    [8865,"HCEP03730566","2023-12-29 16:30:00","11.1168","3.42882","27.702","4.243","7.6","0.32","4.361","0.01","0.33","30.1879","4.74686","46.71","0","SATNPRO1509","27.752","0.3887","5"],
    [8866,"HCEP03730566","2023-12-29 16:45:00","11.1148","3.42927","27.735","4.259","7.6","0.325","3.88","0.01","0.16","30.1939","4.74773","46.89","0","SATNPRO1509","27.806","0.38946","5"],
    [8867,"HCEP03730566","2023-12-29 17:00:00","11.1174","3.42904","27.77","4.248","7.6","0.347","5.307","0.02","0.32","30.1895","4.74707","46.76","0","SATNPRO1509","27.564","0.38612","5"],
    [8868,"HCEP03730566","2023-12-29 17:15:00","11.1179","3.42922","27.789","4.236","7.6","0.349","4.864","0.02","0.54","30.1908","4.74726","46.63","0","SATNPRO1509","27.798","0.3894","5"],
    [8869,"HCEP03730566","2023-12-29 17:30:00","11.1211","3.4297","27.798","4.256","7.6","0.328","4.741","0.01","0.28","30.1929","4.7475","46.86","0","SATNPRO1509","27.7","0.388","5"],
    [8870,"HCEP03730566","2023-12-29 17:45:00","11.1207","3.43077","27.774","4.265","7.6","0.338","4.667","0.01","0.36","30.2037","4.74904","46.96","0","SATNPRO1509","27.816","0.3896","5"],
    [8871,"HCEP03730566","2023-12-29 18:00:00","11.1194","3.43117","27.659","4.298","7.6","0.315","3.971","0.01","0.32","30.2087","4.74976","47.32","0","SATNPRO1509","28.08","0.39332","5"],
    [8872,"HCEP03730566","2023-12-29 18:15:00","11.1216","3.43144","27.647","4.281","7.61","0.337","4.689","0.01","0.19","30.2095","4.74984","47.14","0","SATNPRO1509","28.114","0.39378","5"],
    [8873,"HCEP03730566","2023-12-29 18:30:00","11.1241","3.43148","27.601","4.243","7.61","0.333","5.549","0.01","0.35","30.2079","4.74957","46.73","0","SATNPRO1509","27.916","0.39102","5"],
    [8874,"HCEP03730566","2023-12-29 18:45:00","11.1231","3.43138","27.515","4.269","7.61","0.319","3.776","0.01","0.24","30.2077","4.74956","47.01","0","SATNPRO1509","28.084","0.39338","5"],
    [8875,"HCEP03730566","2023-12-29 19:00:00","11.1233","3.43105","27.429","4.271","7.61","0.317","4.395","0.01","0.19","30.2044","4.74908","47.04","0","SATNPRO1509","28.176","0.39464","5"],
    [8876,"HCEP03730566","2023-12-29 19:15:00","11.1242","3.43056","27.288","4.25","7.61","0.335","4.622","0.01","0.32","30.1989","4.74829","46.8","0","SATNPRO1509","27.974","0.39184","5"],
    [8877,"HCEP03730566","2023-12-29 19:30:00","11.1248","3.4306","27.187","4.273","7.61","0.534","19.205","0.24","10.58","30.1989","4.74826","47.05","0","SATNPRO1509","28.116","0.3938","5"],
    [8878,"HCEP03730566","2023-12-29 19:45:00","11.123","3.42997","27.033","4.309","7.6","0.339","4.808","0.01","0.23","30.1943","4.74763","47.45","0","SATNPRO1509","27.952","0.39152","5"],
    [8879,"HCEP03730566","2023-12-29 20:00:00","11.1234","3.42993","26.975","4.329","7.6","0.341","5.24","0.02","0.43","30.1936","4.74752","47.67","0","SATNPRO1509","28.026","0.39256","5"],
    [8880,"HCEP03730566","2023-12-29 20:15:00","11.1232","3.42995","26.818","4.333","7.6","0.345","4.785","0.02","0.81","30.194","4.74757","47.71","0","SATNPRO1509","28.116","0.39384","5"],
    [8881,"HCEP03730566","2023-12-29 20:30:00","11.1229","3.42985","26.683","4.314","7.61","0.331","4.937","0.01","0.23","30.1933","4.74747","47.5","0","SATNPRO1509","28.186","0.39478","5"],
    [8882,"HCEP03730566","2023-12-29 20:45:00","11.1225","3.42982","26.483","4.321","7.61","0.336","4.398","0.01","0.3","30.1934","4.74748","47.57","0","SATNPRO1509","28.144","0.3942","5"],
    [8883,"HCEP03730566","2023-12-29 21:00:00","11.1239","3.43007","26.275","4.331","7.61","0.328","5.012","0.01","0.26","30.1947","4.74764","47.69","0","SATNPRO1509","28.084","0.39338","5"],
    [8884,"HCEP03730566","2023-12-29 21:15:00","11.1263","3.43031","26.071","4.294","7.6","0.341","5.008","0.01","0.2","30.1953","4.74767","47.29","0","SATNPRO1509","28.052","0.3929","5"],
    [8885,"HCEP03730566","2023-12-29 21:30:00","11.1263","3.43008","25.835","4.295","7.6","0.327","4.76","0.01","0.29","30.1931","4.74735","47.29","0","SATNPRO1509","28.073999999999998","0.39324","5"],
    [8886,"HCEP03730566","2023-12-29 21:45:00","11.1253","3.42955","25.65","4.296","7.6","0.333","4.536","0.01","0.21","30.1889","4.74675","47.31","0","SATNPRO1509","28.036","0.39268","5"],
    [8887,"HCEP03730566","2023-12-29 22:00:00","11.1257","3.42883","25.339","4.272","7.6","0.328","4.857","0.01","0.23","30.1816","4.74569","47.04","0","SATNPRO1509","28.044","0.39282","5"],
    [8888,"HCEP03730566","2023-12-29 22:15:00","11.1271","3.42821","25.212","4.215","7.6","0.35","5.395","0.01","0.45","30.1745","4.74466","46.41","0","SATNPRO1509","27.983999999999998","0.39198","5"],
    [8889,"HCEP03730566","2023-12-29 22:30:00","11.1277","3.4278","24.949","4.182","7.6","0.349","5.803","0.01","0.33","30.1701","4.74401","46.05","0","SATNPRO1509","27.88","0.39048","5"],
    [8890,"HCEP03730566","2023-12-29 22:45:00","11.129","3.42654","24.765","4.136","7.6","0.385","6.283","0.02","0.5","30.1568","4.74209","45.54","0","SATNPRO1509","27.918","0.391","5"],
    [8891,"HCEP03730566","2023-12-29 23:00:00","11.1358","3.42302","24.602","4.08","7.59","0.336","5.543","0.02","0.63","30.1169","4.73632","44.91","0","SATNPRO1509","27.944","0.39144","5"],
    [8892,"HCEP03730566","2023-12-29 23:15:00","11.1406","3.41993","24.423","4.099","7.59","0.37","5.187","0.02","0.34","30.0829","4.73143","45.12","0","SATNPRO1509","27.96","0.39166","5"],
    [8893,"HCEP03730566","2023-12-29 23:30:00","11.1406","3.41986","24.334","4.046","7.59","0.326","5.434","0.02","2.62","30.0823","4.73133","44.53","0","SATNPRO1509","28.052","0.3929","5"],
    [8894,"HCEP03730566","2023-12-29 23:45:00","11.1426","3.41995","24.349","4.04","7.58","0.374","6.906","0.04","1.96","30.0815","4.73119","44.47","0","SATNPRO1509","27.928","0.3912","5"],
    [8895,"HCEP03730566","2023-12-30 00:00:00","11.1439","3.42001","24.357","4.028","7.58","0.446","5.605","0.02","0.23","30.081","4.73111","44.34","0","SATNPRO1509","27.976","0.39182","5"],
    [8896,"HCEP03730566","2023-12-30 00:15:00","11.1414","3.42004","24.338","4.008","7.58","0.356","5.038","0.02","0.23","30.0834","4.73148","44.11","0","SATNPRO1509","27.778","0.38908","5"],
    [8897,"HCEP03730566","2023-12-30 00:30:00","11.1407","3.42006","24.398","4.024","7.58","0.336","4.922","0.01","0.26","30.0841","4.73159","44.3","0","SATNPRO1509","27.69","0.38786","5"],
    [8898,"HCEP03730566","2023-12-30 00:45:00","11.1402","3.42005","24.472","4.039","7.58","0.349","4.915","0.02","0.23","30.0844","4.73164","44.46","0","SATNPRO1509","27.798","0.38936","5"],
    [8899,"HCEP03730566","2023-12-30 01:00:00","11.1389","3.4203","24.538","4.004","7.58","0.576","8.298","0.02","0.38","30.0879","4.73216","44.07","0","SATNPRO1509","27.822","0.3897","5"],
    [8900,"HCEP03730566","2023-12-30 01:15:00","11.1349","3.4243","24.626","3.992","7.58","0.467","9.492","0.03","0.72","30.1301","4.73821","43.95","0","SATNPRO1509","27.368","0.38332","5"],
    [8901,"HCEP03730566","2023-12-30 01:30:00","11.1325","3.42562","24.76","4.024","7.58","0.392","7.522","0.02","0.68","30.1449","4.74036","44.3","0","SATNPRO1509","27.37","0.38332","5"],
    [8902,"HCEP03730566","2023-12-30 01:45:00","11.1313","3.42682","24.9","4.09","7.58","0.364","6.132","0.01","0.36","30.1576","4.74218","45.04","0","SATNPRO1509","27.562","0.38604","5"],
    [8903,"HCEP03730566","2023-12-30 02:00:00","11.1309","3.42704","25.033","4.113","7.59","0.348","5.86","0.01","0.29","30.16","4.74254","45.28","0","SATNPRO1509","27.64","0.38716","5"],
    [8904,"HCEP03730566","2023-12-30 02:15:00","11.1315","3.42586","25.134","4.107","7.59","0.334","4.211","0.01","0.2","30.148","4.74083","45.21","0","SATNPRO1509","27.896","0.39072","5"],
    [8905,"HCEP03730566","2023-12-30 02:30:00","11.1305","3.42681","25.274","4.136","7.59","0.322","4.509","0.01","0.21","30.158","4.74227","45.54","0","SATNPRO1509","27.738","0.38852","5"],
    [8906,"HCEP03730566","2023-12-30 02:45:00","11.1309","3.42719","25.557","4.151","7.59","0.806","10.52","0.64","5.18","30.1613","4.74274","45.71","0","SATNPRO1509","27.678","0.38768","5"],
    [8907,"HCEP03730566","2023-12-30 03:00:00","11.1298","3.42666","25.7","4.186","7.59","4.623","38.887","3.73","32.6","30.157","4.74216","46.09","0","SATNPRO1509","27.91","0.39092","5"],
    [8908,"HCEP03730566","2023-12-30 03:15:00","11.1306","3.42687","25.916","4.17","7.59","2.732","346.586","0.66","67.57","30.1582","4.74233","45.91","0","SATNPRO1509","27.855999999999998","0.3902","5"],
    [8909,"HCEP03730566","2023-12-30 03:30:00","11.1303","3.42679","26.073","4.171","7.59","5.202","208.129","1.14","104.96","30.1577","4.74228","45.93","0","SATNPRO1509","27.946","0.39144","5"],
    [8910,"HCEP03730566","2023-12-30 03:45:00","11.1306","3.42673","26.202","4.167","7.59","6.551","298.09","1.83","142.99","30.1567","4.74213","45.87","0","SATNPRO1509","27.814","0.3896","5"],
    [8911,"HCEP03730566","2023-12-30 04:00:00","11.131","3.4265","26.439","4.168","7.59","0.354","7.066","0.03","0.77","30.154","4.74176","45.89","0","SATNPRO1509","27.808","0.38952","5"],
    [8912,"HCEP03730566","2023-12-30 04:15:00","11.1321","3.42547","26.647","4.196","7.59","0.366","3.916","0.04","0.63","30.143","4.74019","46.19","0","SATNPRO1509","28.096","0.39356","5"],
    [8913,"HCEP03730566","2023-12-30 04:30:00","11.1408","3.42346","26.864","4.144","7.59","0.337","3.651","0.04","0.43","30.1162","4.73628","45.62","0","SATNPRO1509","28.046","0.39282","5"],
    [8914,"HCEP03730566","2023-12-30 04:45:00","11.1292","3.42193","27.125","4.137","7.59","0.485","5.887","0.04","1.05","30.1107","4.73569","45.54","0","SATNPRO1509","28.066","0.3931","5"],
    [8915,"HCEP03730566","2023-12-30 05:00:00","11.1507","3.42033","27.351","4.068","7.58","0.658","15.196","0.23","12.64","30.0774","4.73065","44.79","0","SATNPRO1509","28.14","0.39414","5"],
    [8916,"HCEP03730566","2023-12-30 05:15:00","11.1623","3.42049","27.474","4.038","7.58","0.39","4.881","0.03","0.84","30.0694","4.72936","44.46","0","SATNPRO1509","28.25","0.3957","5"],
    [8917,"HCEP03730566","2023-12-30 05:30:00","11.139","3.42319","27.724","4.075","7.58","0.314","4.181","0.01","0.18","30.1147","4.73614","44.86","0","SATNPRO1509","27.916","0.391","5"],
    [8918,"HCEP03730566","2023-12-30 05:45:00","11.136","3.42294","27.837","4.106","7.58","0.352","4.719","0.03","0.16","30.1146","4.73618","45.2","0","SATNPRO1509","27.946","0.39144","5"],
    [8919,"HCEP03730566","2023-12-30 06:00:00","11.14","3.4248","27.957","4.033","7.58","0.334","5.611","0.01","0.21","30.1296","4.73825","44.4","0","SATNPRO1509","27.584","0.38638","5"],
    [8920,"HCEP03730566","2023-12-30 06:15:00","11.1363","3.42608","28.13","4.047","7.58","0.351","6.054","0.01","0.21","30.145","4.7405","44.56","0","SATNPRO1509","27.458","0.38458","5"],
    [8921,"HCEP03730566","2023-12-30 06:30:00","11.1361","3.42605","28.268","4.07","7.58","0.389","7.979","0.04","1.55","30.1447","4.74047","44.82","0","SATNPRO1509","27.492","0.38506","5"],
    [8922,"HCEP03730566","2023-12-30 06:45:00","11.1359","3.42591","28.308","4.073","7.58","0.347","5.455","0.01","0.16","30.1436","4.74032","44.85","0","SATNPRO1509","27.618","0.38684","5"],
    [8923,"HCEP03730566","2023-12-30 07:00:00","11.1357","3.42575","28.312","4.118","7.58","0.328","7.373","0.03","2.55","30.1422","4.74012","45.34","0","SATNPRO1509","27.776","0.38906","5"],
    [8924,"HCEP03730566","2023-12-30 07:15:00","11.1364","3.42635","28.357","4.13","7.58","0.336","5.494","0.02","1.22","30.1474","4.74086","45.48","0","SATNPRO1509","27.784","0.3892","5"],
    [8925,"HCEP03730566","2023-12-30 07:30:00","11.1372","3.42648","28.484","4.127","7.58","0.416","6.433","0.03","0.68","30.148","4.74093","45.44","0","SATNPRO1509","27.762","0.38888","5"],
    [8926,"HCEP03730566","2023-12-30 07:45:00","11.1394","3.42558","28.391","4.119","7.58","0.329","4.066","0.01","0.14","30.1375","4.7394","45.35","0","SATNPRO1509","28.008","0.39228","5"],
    [8927,"HCEP03730566","2023-12-30 08:00:00","11.1406","3.42553","28.537","4.1","7.58","0.331","4.624","0.01","0.17","30.1359","4.73917","45.14","0","SATNPRO1509","27.875999999999998","0.39046","5"],
    [8928,"HCEP03730566","2023-12-30 08:15:00","11.1397","3.42233","28.571","4.116","7.58","0.327","3.154","0.02","0.2","30.1054","4.73486","45.31","0","SATNPRO1509","28.16","0.3944","5"],
    [8929,"HCEP03730566","2023-12-30 08:30:00","11.1424","3.42203","28.617","4.112","7.58","0.328","3.141","0.02","0.19","30.1003","4.7341","45.27","0","SATNPRO1509","28.026","0.39252","5"],
    [8930,"HCEP03730566","2023-12-30 08:45:00","11.1472","3.42221","28.54","4.08","7.58","0.335","2.978","0.01","0.18","30.0981","4.73371","44.92","0","SATNPRO1509","27.976","0.39184","5"],
    [8931,"HCEP03730566","2023-12-30 09:00:00","11.1459","3.42178","28.445","4.102","7.58","0.354","3.196","0.03","0.18","30.0951","4.7333","45.16","0","SATNPRO1509","28.150000000000002","0.39424","5"],
    [8932,"HCEP03730566","2023-12-30 09:15:00","11.155","3.42173","28.361","4.066","7.58","0.38","3.341","0.02","0.22","30.0871","4.73202","44.77","0","SATNPRO1509","28.12","0.39386","5"],
    [8933,"HCEP03730566","2023-12-30 09:30:00","11.1613","3.42143","28.351","4.029","7.57","0.376","3.087","0.04","0.22","30.0791","4.73079","44.36","0","SATNPRO1509","28.086","0.3934","5"],
    [8934,"HCEP03730566","2023-12-30 09:45:00","11.1647","3.42126","28.22","4.014","7.57","0.332","2.647","0.02","0.11","30.0747","4.7301","44.2","0","SATNPRO1509","28.099999999999998","0.3936","5"],
    [8935,"HCEP03730566","2023-12-30 10:00:00","11.1595","3.4252","28.103","3.953","7.57","0.419","6.78","0.04","0.61","30.1174","4.73624","43.53","0","SATNPRO1509","27.364","0.38328","5"],
    [8936,"HCEP03730566","2023-12-30 10:15:00","11.1681","3.42302","28.021","3.963","7.57","0.411","5.629","0.04","0.65","30.0891","4.73209","43.65","0","SATNPRO1509","27.808","0.38948","5"],
    [8937,"HCEP03730566","2023-12-30 10:30:00","11.1708","3.42227","28.03","3.955","7.57","0.369","4.733","0.04","0.59","30.0797","4.73071","43.56","0","SATNPRO1509","27.868","0.39032","5"],
    [8938,"HCEP03730566","2023-12-30 10:45:00","11.1681","3.42351","27.821","3.94","7.56","0.4","5.079","0.02","0.24","30.094","4.73277","43.39","0","SATNPRO1509","27.746","0.38862","5"],
    [8939,"HCEP03730566","2023-12-30 11:00:00","11.1739","3.42228","27.755","3.943","7.56","0.35","4.387","0.02","0.5","30.0774","4.73032","43.43","0","SATNPRO1509","27.97","0.39176","5"],
    [8940,"HCEP03730566","2023-12-30 11:15:00","11.1657","3.42415","27.62","3.939","7.56","0.384","5.623","0.03","0.18","30.1023","4.73398","43.38","0","SATNPRO1509","27.714","0.38818","5"],
    [8941,"HCEP03730566","2023-12-30 11:30:00","11.1605","3.42214","27.566","3.988","7.56","0.404","5.615","0.03","0.4","30.087","4.73189","43.91","0","SATNPRO1509","27.902","0.39082","5"],
    [8942,"HCEP03730566","2023-12-30 11:45:00","11.1512","3.42094","27.425","4.079","7.57","0.369","4.598","0.02","0.19","30.0829","4.73143","44.91","0","SATNPRO1509","27.9","0.39078","5"],
    [8943,"HCEP03730566","2023-12-30 12:00:00","11.1506","3.42106","27.34","4.065","7.57","0.383","4.764","0.03","0.3","30.0846","4.73167","44.75","0","SATNPRO1509","27.918","0.39104","5"],
    [8944,"HCEP03730566","2023-12-30 12:15:00","11.1504","3.42233","27.218","4.046","7.57","0.38","5.563","0.02","0.3","30.0973","4.73347","44.55","0","SATNPRO1509","27.762","0.38886","5"],
    [8945,"HCEP03730566","2023-12-30 12:30:00","11.1367","3.42154","27.156","4.104","7.57","0.37","4.366","0.03","0.58","30.1008","4.73417","45.18","0","SATNPRO1509","28.002","0.39222","5"],
    [8946,"HCEP03730566","2023-12-30 12:45:00","11.1347","3.42204","27.064","4.193","7.58","0.363","4.058","0.03","0.19","30.1073","4.73512","46.16","0","SATNPRO1509","28.022","0.39246","5"],
    [8947,"HCEP03730566","2023-12-30 13:00:00","11.1324","3.42301","27.011","4.22","7.58","0.38","4.182","0.02","0.38","30.1186","4.73676","46.46","0","SATNPRO1509","28.206","0.39504","5"],
    [8948,"HCEP03730566","2023-12-30 13:15:00","11.1302","3.42349","26.951","4.254","7.58","0.363","4.138","0.02","0.3","30.1252","4.73771","46.83","0","SATNPRO1509","28.104","0.39364","5"],
    [8949,"HCEP03730566","2023-12-30 13:30:00","11.1305","3.42423","26.983","4.259","7.59","0.336","3.594","0.02","0.16","30.1321","4.7387","46.89","0","SATNPRO1509","28.096","0.39354","5"],
    [8950,"HCEP03730566","2023-12-30 13:45:00","11.1309","3.42508","26.932","4.254","7.59","0.361","3.931","0.04","0.26","30.1401","4.73982","46.84","0","SATNPRO1509","28.116","0.3938","5"],
    [8951,"HCEP03730566","2023-12-30 14:00:00","11.1298","3.42522","26.971","4.256","7.59","0.371","4.628","0.03","0.28","30.1423","4.74016","46.85","0","SATNPRO1509","28.112","0.39376","5"],
    [8952,"HCEP03730566","2023-12-30 14:15:00","11.1298","3.42561","26.963","4.268","7.59","0.36","4.192","0.01","0.27","30.1461","4.74069","46.98","0","SATNPRO1509","28.029999999999998","0.39262","5"],
    [8953,"HCEP03730566","2023-12-30 14:30:00","11.1306","3.42598","26.995","4.248","7.59","0.327","4.413","0.02","0.27","30.1491","4.7411","46.77","0","SATNPRO1509","28.012","0.39236","5"],
    [8954,"HCEP03730566","2023-12-30 14:45:00","11.1296","3.42608","27.043","4.273","7.59","0.354","3.803","0.04","0.17","30.1509","4.74138","47.05","0","SATNPRO1509","28.08","0.39332","5"],
    [8955,"HCEP03730566","2023-12-30 15:00:00","11.132","3.42598","27.054","4.237","7.59","0.373","5.377","0.02","0.46","30.148","4.74093","46.65","0","SATNPRO1509","28.034","0.3927","5"],
    [8956,"HCEP03730566","2023-12-30 15:15:00","11.1331","3.42626","27.1","4.214","7.59","0.369","4.803","0.03","0.43","30.1497","4.74116","46.4","0","SATNPRO1509","28.062","0.39306","5"],
    [8957,"HCEP03730566","2023-12-30 15:30:00","11.1357","3.4263","27.125","4.183","7.58","0.419","7.279","0.05","2.1","30.1479","4.74087","46.06","0","SATNPRO1509","27.936","0.39128","5"],
    [8958,"HCEP03730566","2023-12-30 15:45:00","11.1418","3.42644","27.187","4.099","7.58","0.412","7.014","0.08","1.71","30.1444","4.74028","45.14","0","SATNPRO1509","27.59","0.3865","5"],
    [8959,"HCEP03730566","2023-12-30 16:00:00","11.1412","3.42695","27.216","4.079","7.58","0.332","5.086","0.01","0.36","30.1498","4.74106","44.92","0","SATNPRO1509","27.63","0.387","5"],
    [8960,"HCEP03730566","2023-12-30 16:15:00","11.1406","3.42722","27.303","4.084","7.58","0.356","5.543","0.03","0.52","30.1529","4.74151","44.97","0","SATNPRO1509","27.574","0.38622","5"],
    [8961,"HCEP03730566","2023-12-30 16:30:00","11.1398","3.42765","27.319","4.091","7.57","0.341","5.205","0.02","0.24","30.1577","4.74221","45.06","0","SATNPRO1509","27.541999999999998","0.38576","5"],
    [8962,"HCEP03730566","2023-12-30 16:45:00","11.1385","3.42782","27.362","4.104","7.57","0.333","4.813","0.01","0.21","30.1605","4.74262","45.2","0","SATNPRO1509","27.722","0.38828","5"],
    [8963,"HCEP03730566","2023-12-30 17:00:00","11.1381","3.42765","27.427","4.095","7.57","0.326","4.956","0.01","0.2","30.1591","4.74243","45.1","0","SATNPRO1509","27.636","0.38708","5"],
    [8964,"HCEP03730566","2023-12-30 17:15:00","11.1382","3.42772","27.468","4.08","7.57","1.116","24.313","0.49","13.34","30.1597","4.74252","44.93","0","SATNPRO1509","27.578","0.38626","5"],
    [8965,"HCEP03730566","2023-12-30 17:30:00","11.1381","3.42754","27.504","4.079","7.57","0.338","4.793","0.04","0.22","30.158","4.74228","44.92","0","SATNPRO1509","27.516000000000002","0.3854","5"],
    [8966,"HCEP03730566","2023-12-30 17:45:00","11.1374","3.42718","27.538","4.088","7.57","0.341","4.487","0.01","0.23","30.1551","4.74188","45.01","0","SATNPRO1509","27.608","0.38672","5"],
    [8967,"HCEP03730566","2023-12-30 18:00:00","11.1339","3.42661","27.55","4.202","7.58","0.4","4.076","0.16","1.56","30.1524","4.74156","46.27","0","SATNPRO1509","27.928","0.39114","5"],
    [8968,"HCEP03730566","2023-12-30 18:15:00","11.1371","3.42729","27.551","4.168","7.58","0.535","4.954","0.58","3.01","30.1563","4.74206","45.9","0","SATNPRO1509","27.712","0.38816","5"],
    [8969,"HCEP03730566","2023-12-30 18:30:00","11.1381","3.42764","27.574","4.155","7.58","0.313","4.234","0.01","0.24","30.1589","4.74241","45.75","0","SATNPRO1509","27.738","0.38856","5"],
    [8970,"HCEP03730566","2023-12-30 18:45:00","11.1349","3.42819","27.592","4.187","7.58","0.412","5.824","0.13","0.92","30.1669","4.7436","46.1","0","SATNPRO1509","27.776","0.38902","5"],
    [8971,"HCEP03730566","2023-12-30 19:00:00","11.1333","3.42905","27.601","4.225","7.58","0.373","5.461","0.1","0.32","30.1766","4.745","46.53","0","SATNPRO1509","28.114","0.3938","5"],
    [8972,"HCEP03730566","2023-12-30 19:15:00","11.1339","3.42935","27.564","4.254","7.58","2.529","32.625","2","28.08","30.179","4.74533","46.85","0","SATNPRO1509","27.846","0.39002","5"],
    [8973,"HCEP03730566","2023-12-30 19:30:00","11.134","3.42883","27.506","4.227","7.58","0.569","5.605","0.52","0.56","30.1739","4.74461","46.55","0","SATNPRO1509","27.945999999999998","0.39144","5"],
    [8974,"HCEP03730566","2023-12-30 19:45:00","11.1324","3.42849","27.354","4.27","7.58","0.361","6.556","0.02","0.27","30.172","4.74434","47.02","0","SATNPRO1509","27.876","0.39044","5"],
    [8975,"HCEP03730566","2023-12-30 20:00:00","11.1333","3.42897","27.196","4.322","7.59","0.459","6.219","0.4","1.12","30.176","4.74489","47.6","0","SATNPRO1509","28.228","0.39534","5"],
    [8976,"HCEP03730566","2023-12-30 20:15:00","11.1344","3.4291","26.999","4.349","7.59","0.471","5.538","0.15","0.4","30.1764","4.74493","47.89","0","SATNPRO1509","28.222","0.39528","5"],
    [8977,"HCEP03730566","2023-12-30 20:30:00","11.1351","3.42904","26.837","4.35","7.59","0.962","6.381","0.57","1.36","30.1753","4.74474","47.9","0","SATNPRO1509","28.04","0.39272","5"],
    [8978,"HCEP03730566","2023-12-30 20:45:00","11.1355","3.42917","26.689","4.37","7.59","0.339","5.039","0.02","0.58","30.1764","4.74489","48.13","0","SATNPRO1509","28.094","0.3935","5"],
    [8979,"HCEP03730566","2023-12-30 21:00:00","11.1351","3.42883","26.528","4.356","7.59","0.328","4.914","0.01","0.4","30.1734","4.74446","47.97","0","SATNPRO1509","28.036","0.39272","5"],
    [8980,"HCEP03730566","2023-12-30 21:15:00","11.1356","3.42873","26.368","4.351","7.59","9.358","100.229","0.81","18.64","30.1721","4.74425","47.91","0","SATNPRO1509","28.048000000000002","0.39282","5"],
    [8981,"HCEP03730566","2023-12-30 21:30:00","11.1347","3.42846","26.161","4.346","7.59","0.322","5.13","0.01","0.34","30.1702","4.74399","47.85","0","SATNPRO1509","28.254","0.39574","5"],
    [8982,"HCEP03730566","2023-12-30 21:45:00","11.1335","3.42834","25.971","4.362","7.59","0.345","4.855","0.02","0.63","30.1701","4.74399","48.03","0","SATNPRO1509","28.348","0.39706","5"],
    [8983,"HCEP03730566","2023-12-30 22:00:00","11.134","3.42811","25.793","4.359","7.59","0.316","4.424","0.01","0.22","30.1676","4.7436","48","0","SATNPRO1509","28.296","0.39636","5"],
    [8984,"HCEP03730566","2023-12-30 22:15:00","11.1329","3.42754","25.603","4.349","7.59","0.332","4.613","0.01","0.37","30.163","4.74296","47.89","0","SATNPRO1509","28.29","0.39624","5"],
    [8985,"HCEP03730566","2023-12-30 22:30:00","11.1305","3.42571","25.438","4.334","7.59","0.315","4.814","0.01","0.37","30.1472","4.74075","47.72","0","SATNPRO1509","28.308","0.39648","5"],
    [8986,"HCEP03730566","2023-12-30 22:45:00","11.1295","3.42429","25.22","4.312","7.59","0.326","4.508","0.01","0.25","30.1342","4.73891","47.47","0","SATNPRO1509","28.306","0.39648","5"],
    [8987,"HCEP03730566","2023-12-30 23:00:00","11.1242","3.42388","25.024","4.355","7.59","0.316","4.645","0.01","0.27","30.1346","4.73904","47.94","0","SATNPRO1509","28.298000000000002","0.39638","5"],
    [8988,"HCEP03730566","2023-12-30 23:15:00","11.1242","3.423","24.896","4.359","7.59","0.421","5.772","0.04","0.57","30.1261","4.73783","47.97","0","SATNPRO1509","28.418","0.39802","5"],
    [8989,"HCEP03730566","2023-12-30 23:30:00","11.1275","3.42289","24.781","4.318","7.59","0.329","5.336","0.01","0.4","30.1223","4.73723","47.53","0","SATNPRO1509","28.32","0.39668","5"],
    [8990,"HCEP03730566","2023-12-30 23:45:00","11.1297","3.4224","24.67","4.27","7.59","0.359","5.769","0.01","0.35","30.1158","4.73627","47","0","SATNPRO1509","28.056","0.39298","5"],
    [8991,"HCEP03730566","2023-12-31 00:00:00","11.1329","3.42129","24.611","4.203","7.59","2.91","36.853","3.6","33.34","30.1024","4.73431","46.26","0","SATNPRO1509","27.926","0.39112","5"],
    [8992,"HCEP03730566","2023-12-31 00:15:00","11.1365","3.42011","24.559","4.159","7.58","0.375","6.614","0.02","0.4","30.088","4.73221","45.78","0","SATNPRO1509","27.93","0.39122","5"],
    [8993,"HCEP03730566","2023-12-31 00:30:00","11.1401","3.41944","24.535","4.104","7.58","0.344","5.974","0.02","0.75","30.0784","4.7308","45.17","0","SATNPRO1509","27.942","0.39138","5"],
    [8994,"HCEP03730566","2023-12-31 00:45:00","11.1431","3.41917","24.544","4.037","7.58","0.356","5.251","0.02","0.44","30.0734","4.73005","44.44","0","SATNPRO1509","27.678","0.38768","5"],
    [8995,"HCEP03730566","2023-12-31 01:00:00","11.1468","3.41904","24.571","4.025","7.57","0.325","5.007","0.01","0.43","30.0692","4.72939","44.31","0","SATNPRO1509","27.878","0.3905","5"],
    [8996,"HCEP03730566","2023-12-31 01:15:00","11.1398","3.4196","24.609","4.075","7.57","0.349","5.157","0.02","0.78","30.0803","4.73107","44.85","0","SATNPRO1509","27.826","0.38974","5"],
    [8997,"HCEP03730566","2023-12-31 01:30:00","11.1351","3.42033","24.656","4.13","7.57","0.318","4.62","0.01","0.37","30.0912","4.73269","45.46","0","SATNPRO1509","27.606","0.38666","5"],
    [8998,"HCEP03730566","2023-12-31 01:45:00","11.1319","3.42094","24.731","4.177","7.58","0.342","4.98","0.01","0.5","30.0997","4.73396","45.97","0","SATNPRO1509","27.84","0.38994","5"],
    [8999,"HCEP03730566","2023-12-31 02:00:00","11.1303","3.4214","24.801","4.207","7.58","0.322","4.693","0.02","0.47","30.1054","4.7348","46.3","0","SATNPRO1509","27.752","0.3887","5"],
    [9000,"HCEP03730566","2023-12-31 02:15:00","11.1306","3.42149","24.915","4.217","7.58","0.34","5.257","0.01","0.29","30.1061","4.73488","46.42","0","SATNPRO1509","28.044","0.39278","5"],
    [9001,"HCEP03730566","2023-12-31 02:30:00","11.1309","3.42115","25.057","4.221","7.58","0.326","4.661","0.01","0.43","30.1025","4.73438","46.46","0","SATNPRO1509","27.922","0.39108","5"],
    [9002,"HCEP03730566","2023-12-31 02:45:00","11.1303","3.42173","25.203","4.203","7.58","0.358","4.828","0.02","0.53","30.1086","4.73526","46.26","0","SATNPRO1509","27.974","0.3918","5"],
    [9003,"HCEP03730566","2023-12-31 03:00:00","11.1312","3.42149","25.351","4.207","7.58","0.336","4.738","0.01","0.26","30.1055","4.73482","46.3","0","SATNPRO1509","28.11","0.39378","5"],
    [9004,"HCEP03730566","2023-12-31 03:15:00","11.135","3.42216","25.498","4.137","7.58","0.38","5.363","0.02","0.21","30.1088","4.73524","45.54","0","SATNPRO1509","27.758","0.3888","5"],
    [9005,"HCEP03730566","2023-12-31 03:30:00","11.1341","3.4231","25.656","4.169","7.58","0.323","5.568","0.01","0.28","30.1187","4.73666","45.89","0","SATNPRO1509","27.736","0.3885","5"],
    [9006,"HCEP03730566","2023-12-31 03:45:00","11.1343","3.42311","25.836","4.184","7.58","0.346","5.351","0.01","0.41","30.1186","4.73665","46.06","0","SATNPRO1509","27.912","0.39094","5"],
    [9007,"HCEP03730566","2023-12-31 04:00:00","11.1345","3.42257","25.985","4.136","7.58","0.335","5.287","0.01","0.18","30.1131","4.73588","45.53","0","SATNPRO1509","27.702","0.388","5"],
    [9008,"HCEP03730566","2023-12-31 04:15:00","11.1321","3.42267","26.173","4.204","7.58","0.329","3.938","0.01","0.27","30.116","4.73634","46.28","0","SATNPRO1509","28.124","0.39394","5"],
    [9009,"HCEP03730566","2023-12-31 04:30:00","11.1324","3.42204","26.378","4.212","7.58","0.32","3.668","0.03","0.25","30.1094","4.73542","46.36","0","SATNPRO1509","27.952","0.3915","5"],
    [9010,"HCEP03730566","2023-12-31 04:45:00","11.1333","3.42185","26.613","4.206","7.58","0.7","4.027","0.75","0.78","30.1067","4.73503","46.29","0","SATNPRO1509","28.25","0.39568","5"],
    [9011,"HCEP03730566","2023-12-31 05:00:00","11.1321","3.42183","26.829","4.205","7.58","0.31","3.444","0.02","0.14","30.1074","4.73516","46.28","0","SATNPRO1509","28.208","0.39508","5"],
    [9012,"HCEP03730566","2023-12-31 05:15:00","11.1309","3.42202","27.028","4.22","7.58","0.321","3.153","0.01","0.26","30.1102","4.73559","46.45","0","SATNPRO1509","28.312","0.39654","5"],
    [9013,"HCEP03730566","2023-12-31 05:30:00","11.1326","3.42165","27.243","4.215","7.58","0.305","3.363","0.01","0.34","30.1052","4.73486","46.39","0","SATNPRO1509","28.21","0.39516","5"],
    [9014,"HCEP03730566","2023-12-31 05:45:00","11.1347","3.42129","27.456","4.19","7.58","0.336","3.981","0.02","1.52","30.0998","4.73407","46.12","0","SATNPRO1509","28.106","0.39368","5"],
    [9015,"HCEP03730566","2023-12-31 06:00:00","11.1391","3.42228","27.659","4.109","7.58","0.329","5.087","0.01","0.77","30.1058","4.73487","45.24","0","SATNPRO1509","27.669999999999998","0.38752","5"],
    [9016,"HCEP03730566","2023-12-31 06:15:00","11.1399","3.42265","27.843","4.09","7.57","0.344","4.845","0.01","0.39","30.1086","4.73528","45.03","0","SATNPRO1509","27.614","0.38682","5"],
    [9017,"HCEP03730566","2023-12-31 06:30:00","11.1381","3.42277","28.027","4.111","7.57","0.33","5.15","0.02","0.29","30.1112","4.73568","45.26","0","SATNPRO1509","27.8","0.3894","5"],
    [9018,"HCEP03730566","2023-12-31 06:45:00","11.1362","3.42449","28.159","4.147","7.57","0.354","5.716","0.02","1.04","30.1294","4.7383","45.65","0","SATNPRO1509","27.672","0.3876","5"],
    [9019,"HCEP03730566","2023-12-31 07:00:00","11.1347","3.42452","28.264","4.185","7.58","0.323","4.924","0.02","0.32","30.1309","4.73854","46.07","0","SATNPRO1509","27.938","0.39132","5"],
    [9020,"HCEP03730566","2023-12-31 07:15:00","11.1337","3.42476","28.198","4.208","7.58","0.331","4.92","0.01","0.33","30.1342","4.73901","46.32","0","SATNPRO1509","28.088","0.39344","5"],
    [9021,"HCEP03730566","2023-12-31 07:30:00","11.1328","3.42494","28.253","4.222","7.58","0.324","5.464","0.01","0.61","30.1366","4.73937","46.48","0","SATNPRO1509","28.232","0.39546","5"],
    [9022,"HCEP03730566","2023-12-31 07:45:00","11.1346","3.4245","28.294","4.226","7.58","0.419","6.861","0.11","4.72","30.1309","4.73854","46.52","0","SATNPRO1509","28.233999999999998","0.39544","5"],
    [9023,"HCEP03730566","2023-12-31 08:00:00","11.1389","3.42405","28.304","4.186","7.58","0.307","3.988","0.01","0.21","30.123","4.73735","46.08","0","SATNPRO1509","28.246000000000002","0.39564","5"],
    [9024,"HCEP03730566","2023-12-31 08:15:00","11.144","3.424","28.333","4.113","7.58","0.332","4.393","0.01","0.27","30.1183","4.73661","45.29","0","SATNPRO1509","27.976","0.39186","5"],
    [9025,"HCEP03730566","2023-12-31 08:30:00","11.1481","3.42402","28.341","4.072","7.57","1.674","33.149","1.56","30.28","30.1151","4.7361","44.84","0","SATNPRO1509","28.078","0.39326","5"],
    [9026,"HCEP03730566","2023-12-31 08:45:00","11.1498","3.42393","28.364","4.043","7.57","0.361","5.638","0.03","0.39","30.1128","4.73575","44.52","0","SATNPRO1509","28.09","0.39342","5"],
    [9027,"HCEP03730566","2023-12-31 09:00:00","11.1491","3.42414","28.365","4.054","7.57","0.325","5.171","0.01","0.45","30.1155","4.73613","44.64","0","SATNPRO1509","28.082","0.39334","5"],
    [9028,"HCEP03730566","2023-12-31 09:15:00","11.1487","3.42426","28.338","4.09","7.57","0.337","4.889","0.01","0.23","30.117","4.73635","45.04","0","SATNPRO1509","28.196","0.39492","5"],
    [9029,"HCEP03730566","2023-12-31 09:30:00","11.1498","3.42425","28.335","4.066","7.57","0.318","5.041","0.01","0.28","30.116","4.73619","44.77","0","SATNPRO1509","28.098","0.39358","5"],
    [9030,"HCEP03730566","2023-12-31 09:45:00","11.1514","3.42437","28.354","4.003","7.57","0.347","5.756","0.01","0.21","30.1159","4.73616","44.08","0","SATNPRO1509","27.992","0.39206","5"],
    [9031,"HCEP03730566","2023-12-31 10:00:00","11.1516","3.42445","28.241","4.005","7.56","0.315","5.402","0.01","0.21","30.1165","4.73623","44.11","0","SATNPRO1509","28.044","0.39278","5"],
    [9032,"HCEP03730566","2023-12-31 10:15:00","11.1519","3.4243","28.196","3.99","7.56","0.333","5.712","0.01","0.19","30.1149","4.736","43.94","0","SATNPRO1509","27.848","0.3901","5"],
    [9033,"HCEP03730566","2023-12-31 10:30:00","11.1487","3.42463","28.103","3.953","7.56","0.335","5.536","0.01","0.26","30.1206","4.73686","43.53","0","SATNPRO1509","27.942","0.39138","5"],
    [9034,"HCEP03730566","2023-12-31 10:45:00","11.1488","3.42437","28.037","3.953","7.56","0.338","5.147","0.02","0.35","30.118","4.73648","43.53","0","SATNPRO1509","27.892","0.39066","5"],
    [9035,"HCEP03730566","2023-12-31 11:00:00","11.1486","3.42412","27.944","3.96","7.56","0.322","5.032","0.02","0.13","30.1158","4.73617","43.61","0","SATNPRO1509","27.898","0.39076","5"],
    [9036,"HCEP03730566","2023-12-31 11:15:00","11.1483","3.42405","27.834","3.968","7.56","0.326","4.991","0.01","0.16","30.1155","4.73612","43.69","0","SATNPRO1509","27.9","0.39078","5"],
    [9037,"HCEP03730566","2023-12-31 11:30:00","11.1486","3.42396","27.716","3.973","7.56","0.311","4.797","0.01","0.19","30.1144","4.73595","43.75","0","SATNPRO1509","27.89","0.39066","5"],
    [9038,"HCEP03730566","2023-12-31 11:45:00","11.1491","3.42425","27.647","3.968","7.56","0.349","4.883","0.01","0.24","30.1168","4.73629","43.69","0","SATNPRO1509","27.918","0.39104","5"],
    [9039,"HCEP03730566","2023-12-31 12:00:00","11.1487","3.4244","27.513","3.965","7.56","0.328","5.609","0.01","0.24","30.1187","4.73654","43.66","0","SATNPRO1509","27.882","0.39054","5"],
    [9040,"HCEP03730566","2023-12-31 12:15:00","11.1478","3.42463","27.411","3.963","7.56","0.353","5.281","0.01","0.47","30.1217","4.73698","43.64","0","SATNPRO1509","27.852","0.39012","5"],
    [9041,"HCEP03730566","2023-12-31 12:30:00","11.1466","3.42512","27.324","3.972","7.56","0.333","4.769","0.02","0.3","30.1275","4.73781","43.74","0","SATNPRO1509","27.966","0.39168","5"],
    [9042,"HCEP03730566","2023-12-31 12:45:00","11.1468","3.42534","27.224","3.973","7.56","0.339","5.162","0.01","0.22","30.1295","4.7381","43.75","0","SATNPRO1509","27.918","0.39104","5"],
    [9043,"HCEP03730566","2023-12-31 13:00:00","11.1439","3.42576","27.113","4.066","7.56","0.324","4.528","0.01","0.21","30.1361","4.73907","44.77","0","SATNPRO1509","28.19","0.39486","5"],
    [9044,"HCEP03730566","2023-12-31 13:15:00","11.1439","3.42611","27.032","4.08","7.57","0.365","4.702","0.01","0.23","30.1395","4.73954","44.93","0","SATNPRO1509","28.096","0.39354","5"],
    [9045,"HCEP03730566","2023-12-31 13:30:00","11.1447","3.42624","26.947","4.056","7.57","0.326","5.113","0.01","0.23","30.1401","4.73961","44.67","0","SATNPRO1509","28.058","0.39302","5"],
    [9046,"HCEP03730566","2023-12-31 13:45:00","11.144","3.42646","26.873","4.052","7.57","0.35","5.109","0.02","0.34","30.1429","4.74002","44.62","0","SATNPRO1509","27.836","0.38992","5"],
    [9047,"HCEP03730566","2023-12-31 14:00:00","11.1424","3.42679","26.826","4.068","7.57","0.316","4.169","0.01","0.15","30.1474","4.74068","44.8","0","SATNPRO1509","28.062","0.39308","5"],
    [9048,"HCEP03730566","2023-12-31 14:15:00","11.1424","3.42705","26.799","4.063","7.57","0.343","4.646","0.02","0.21","30.1499","4.74104","44.75","0","SATNPRO1509","27.996","0.3921","5"],
    [9049,"HCEP03730566","2023-12-31 14:30:00","11.1419","3.42731","26.789","4.063","7.57","0.319","4.707","0.01","0.18","30.1528","4.74145","44.75","0","SATNPRO1509","27.856","0.39022","5"],
    [9050,"HCEP03730566","2023-12-31 14:45:00","11.1415","3.42748","26.811","4.071","7.57","0.33","4.483","0.01","0.17","30.1548","4.74174","44.83","0","SATNPRO1509","28.046","0.39282","5"],
    [9051,"HCEP03730566","2023-12-31 15:00:00","11.1409","3.42759","26.815","4.07","7.57","0.316","4.416","0.01","0.19","30.1565","4.74199","44.82","0","SATNPRO1509","27.95","0.3915","5"],
    [9052,"HCEP03730566","2023-12-31 15:15:00","11.1398","3.42773","26.84","4.102","7.57","0.334","4.708","0.01","0.44","30.1587","4.74232","45.17","0","SATNPRO1509","28.02","0.39244","5"],
    [9053,"HCEP03730566","2023-12-31 15:30:00","11.1402","3.42788","26.871","4.097","7.57","0.344","5.759","0.02","0.36","30.1599","4.74248","45.12","0","SATNPRO1509","27.924","0.39116","5"],
    [9054,"HCEP03730566","2023-12-31 15:45:00","11.1377","3.42837","26.904","4.128","7.57","0.34","5.201","0.01","0.21","30.1667","4.74348","45.46","0","SATNPRO1509","28.073999999999998","0.39328","5"],
    [9055,"HCEP03730566","2023-12-31 16:00:00","11.1377","3.42908","26.942","4.169","7.57","0.323","5.096","0.02","0.46","30.1736","4.74447","45.91","0","SATNPRO1509","28.188000000000002","0.39482","5"],
    [9056,"HCEP03730566","2023-12-31 16:15:00","11.1423","3.43014","26.977","4.213","7.58","0.351","4.675","0.03","1.24","30.1801","4.74533","46.4","0","SATNPRO1509","28.354","0.39718","5"],
    [9057,"HCEP03730566","2023-12-31 16:30:00","11.1422","3.43024","27.001","4.23","7.58","0.319","4.437","0.02","0.6","30.1811","4.74547","46.59","0","SATNPRO1509","28.492","0.39906","5"],
    [9058,"HCEP03730566","2023-12-31 16:45:00","11.1411","3.43023","27.042","4.2","7.58","0.342","4.719","0.02","0.58","30.1819","4.7456","46.26","0","SATNPRO1509","28.24","0.39554","5"],
    [9059,"HCEP03730566","2023-12-31 17:00:00","11.1459","3.43215","27.067","4.208","7.58","0.354","5.362","0.03","0.51","30.1968","4.74763","46.36","0","SATNPRO1509","28.444","0.3984","5"],
    [9060,"HCEP03730566","2023-12-31 17:15:00","11.1507","3.43358","27.119","4.214","7.58","0.35","5.199","0.01","0.5","30.2067","4.74898","46.43","0","SATNPRO1509","28.508","0.39932","5"],
    [9061,"HCEP03730566","2023-12-31 17:30:00","11.1561","3.4352","27.151","4.23","7.58","0.314","4.225","0.01","0.28","30.2181","4.75051","46.62","0","SATNPRO1509","28.522000000000002","0.3995","5"],
    [9062,"HCEP03730566","2023-12-31 17:45:00","11.1635","3.43658","27.187","4.224","7.58","0.334","4.851","0.02","0.55","30.2255","4.75145","46.56","0","SATNPRO1509","28.544","0.39982","5"],
    [9063,"HCEP03730566","2023-12-31 18:00:00","11.1717","3.43799","27.208","4.224","7.58","0.366","4.718","0.03","0.32","30.2325","4.75232","46.57","0","SATNPRO1509","28.65","0.40128","5"],
    [9064,"HCEP03730566","2023-12-31 18:15:00","11.1802","3.43945","27.262","4.213","7.58","0.328","4.262","0.01","0.2","30.2397","4.75321","46.46","0","SATNPRO1509","28.55","0.3999","5"],
    [9065,"HCEP03730566","2023-12-31 18:30:00","11.1817","3.43972","27.248","4.197","7.58","0.316","4.583","0.02","0.34","30.2411","4.75339","46.29","0","SATNPRO1509","28.658","0.40138","5"],
    [9066,"HCEP03730566","2023-12-31 18:45:00","11.1856","3.44038","27.272","4.183","7.58","0.342","4.434","0.04","0.43","30.2443","4.75379","46.14","0","SATNPRO1509","28.314","0.39656","5"],
    [9067,"HCEP03730566","2023-12-31 19:00:00","11.1906","3.44123","27.289","4.183","7.58","0.282","3.737","0.01","0.3","30.2485","4.75431","46.14","0","SATNPRO1509","28.354","0.39712","5"],
    [9068,"HCEP03730566","2023-12-31 19:15:00","11.1952","3.44199","27.26","4.176","7.58","0.309","3.13","0.01","0.31","30.2522","4.75476","46.07","0","SATNPRO1509","28.552","0.39992","5"],
    [9069,"HCEP03730566","2023-12-31 19:30:00","11.1968","3.44222","27.253","4.187","7.59","0.333","3.543","0.05","0.21","30.2531","4.75486","46.19","0","SATNPRO1509","28.596","0.40052","5"],
    [9070,"HCEP03730566","2023-12-31 19:45:00","11.1932","3.44164","27.245","4.171","7.59","0.398","4.489","0.13","1.09","30.2505","4.75454","46.02","0","SATNPRO1509","28.356","0.3972","5"],
    [9071,"HCEP03730566","2023-12-31 20:00:00","11.1883","3.44082","27.2","4.187","7.58","0.302","3.366","0.03","0.17","30.2465","4.75406","46.18","0","SATNPRO1509","28.742","0.40254","5"],
    [9072,"HCEP03730566","2023-12-31 20:15:00","11.1822","3.43969","27.14","4.203","7.59","0.313","2.814","0.02","0.12","30.2405","4.7533","46.35","0","SATNPRO1509","28.71","0.40212","5"],
    [9073,"HCEP03730566","2023-12-31 20:30:00","11.1826","3.43973","27.088","4.181","7.58","0.306","3.881","0.02","0.21","30.2406","4.75329","46.11","0","SATNPRO1509","28.49","0.39906","5"],
    [9074,"HCEP03730566","2023-12-31 20:45:00","11.1802","3.43937","27.008","4.171","7.58","0.314","3.555","0.01","0.2","30.2391","4.75311","46","0","SATNPRO1509","28.576","0.4003","5"],
    [9075,"HCEP03730566","2023-12-31 21:00:00","11.1801","3.43928","26.93","4.186","7.58","0.296","3.529","0.01","0.18","30.2383","4.753","46.16","0","SATNPRO1509","28.54","0.39978","5"],
    [9076,"HCEP03730566","2023-12-31 21:15:00","11.1832","3.43952","26.791","4.175","7.58","0.318","3.934","0.01","0.3","30.2381","4.75292","46.04","0","SATNPRO1509","28.536","0.3997","5"],
    [9077,"HCEP03730566","2023-12-31 21:30:00","11.1772","3.43848","26.673","4.172","7.58","0.302","4.15","0.01","0.34","30.233","4.75227","46","0","SATNPRO1509","28.502","0.39922","5"],
    [9078,"HCEP03730566","2023-12-31 21:45:00","11.1701","3.43685","26.54","4.169","7.58","0.325","4.489","0.01","0.33","30.2229","4.75094","45.96","0","SATNPRO1509","28.31","0.3965","5"],
    [9079,"HCEP03730566","2023-12-31 22:00:00","11.1669","3.43593","26.391","4.177","7.58","0.306","5.801","0.01","3.34","30.2167","4.7501","46.05","0","SATNPRO1509","28.474","0.39882","5"],
    [9080,"HCEP03730566","2023-12-31 22:15:00","11.1658","3.43539","26.246","4.191","7.58","0.323","4.179","0.01","0.33","30.2124","4.7495","46.19","0","SATNPRO1509","28.593999999999998","0.40052","5"],
    [9081,"HCEP03730566","2023-12-31 22:30:00","11.1647","3.43469","26.076","4.202","7.58","0.327","4.844","0.02","0.21","30.2065","4.74867","46.31","0","SATNPRO1509","28.332","0.39682","5"],
    [9082,"HCEP03730566","2023-12-31 22:45:00","11.1631","3.43425","25.911","4.193","7.58","0.341","4.866","0.03","0.37","30.2036","4.74828","46.21","0","SATNPRO1509","28.186","0.39482","5"],
    [9083,"HCEP03730566","2023-12-31 23:00:00","11.1614","3.43372","25.736","4.193","7.58","0.331","5.154","0.01","0.31","30.1999","4.74777","46.2","0","SATNPRO1509","28.42","0.39808","5"],
    [9084,"HCEP03730566","2023-12-31 23:15:00","11.1581","3.4329","25.551","4.198","7.58","0.334","4.775","0.01","0.37","30.1947","4.74707","46.26","0","SATNPRO1509","28.36","0.39724","5"],
    [9085,"HCEP03730566","2023-12-31 23:30:00","11.1564","3.43251","25.357","4.191","7.58","0.316","4.919","0.01","0.38","30.1923","4.74675","46.18","0","SATNPRO1509","28.364","0.3973","5"],
    [9086,"HCEP03730566","2023-12-31 23:45:00","11.1551","3.43173","25.209","4.2","7.58","0.334","4.753","0.02","0.35","30.1858","4.74584","46.27","0","SATNPRO1509","28.496","0.39912","5"],
    [9087,"HCEP03730566","2024-01-01 00:00:00","11.1541","3.4317","25.098","4.194","7.58","0.32","5.287","0.01","0.3","30.1864","4.74593","46.2","0","SATNPRO1509","28.44","0.39836","5"],
    [9088,"HCEP03730566","2024-01-01 00:15:00","11.1516","3.43109","24.948","4.184","7.58","0.341","5.366","0.02","0.32","30.1826","4.74542","46.1","0","SATNPRO1509","28.304000000000002","0.39642","5"],
    [9089,"HCEP03730566","2024-01-01 00:30:00","11.1494","3.43009","24.895","4.172","7.58","1.683","71.285","1.02","30.21","30.1747","4.74433","45.96","0","SATNPRO1509","28.376","0.39748","5"],
    [9090,"HCEP03730566","2024-01-01 00:45:00","11.1479","3.42974","24.853","4.163","7.58","1.335","30.974","1.59","27.47","30.1725","4.74404","45.86","0","SATNPRO1509","28.272","0.39596","5"],
    [9091,"HCEP03730566","2024-01-01 01:00:00","11.1448","3.42862","24.795","4.193","7.58","0.318","5.029","0.01","0.24","30.164","4.74289","46.18","0","SATNPRO1509","28.368","0.39736","5"],
    [9092,"HCEP03730566","2024-01-01 01:15:00","11.1452","3.42851","24.789","4.179","7.58","0.331","5.152","0.01","0.18","30.1627","4.74269","46.03","0","SATNPRO1509","28.240000000000002","0.39554","5"],
    [9093,"HCEP03730566","2024-01-01 01:30:00","11.1431","3.4276","24.799","4.201","7.58","0.312","4.41","0.01","0.18","30.1555","4.7417","46.27","0","SATNPRO1509","28.314","0.39658","5"],
    [9094,"HCEP03730566","2024-01-01 01:45:00","11.1439","3.42762","24.84","4.186","7.58","0.329","4.806","0.01","0.36","30.1551","4.74164","46.1","0","SATNPRO1509","28.334","0.39686","5"],
    [9095,"HCEP03730566","2024-01-01 02:00:00","11.1435","3.42719","24.883","4.171","7.58","0.309","4.275","0.01","0.27","30.1512","4.7411","45.93","0","SATNPRO1509","28.308","0.3965","5"],
    [9096,"HCEP03730566","2024-01-01 02:15:00","11.144","3.42719","24.939","4.155","7.58","0.329","4.714","0.01","0.29","30.1507","4.74102","45.76","0","SATNPRO1509","28.326","0.39678","5"],
    [9097,"HCEP03730566","2024-01-01 02:30:00","11.1453","3.42726","25.016","4.108","7.58","0.319","5.285","0.01","0.42","30.1504","4.74095","45.24","0","SATNPRO1509","28.114","0.39378","5"],
    [9098,"HCEP03730566","2024-01-01 02:45:00","11.1454","3.42707","25.108","4.077","7.57","0.334","4.984","0.01","0.36","30.1484","4.74067","44.9","0","SATNPRO1509","28.084","0.39342","5"],
    [9099,"HCEP03730566","2024-01-01 03:00:00","11.1456","3.42696","25.229","4.06","7.57","0.32","5.098","0.02","0.33","30.147","4.74049","44.71","0","SATNPRO1509","28.009999999999998","0.39228","5"],
    [9100,"HCEP03730566","2024-01-01 03:15:00","11.1459","3.42693","25.348","4.049","7.57","0.407","6.297","0.09","3.75","30.1465","4.74042","44.59","0","SATNPRO1509","28.116","0.3938","5"],
    [9101,"HCEP03730566","2024-01-01 03:30:00","11.1456","3.42674","25.475","4.041","7.57","0.322","5.08","0.01","0.51","30.1448","4.74019","44.5","0","SATNPRO1509","27.988","0.39204","5"],
    [9102,"HCEP03730566","2024-01-01 03:45:00","11.1454","3.42648","25.598","4.032","7.57","0.334","4.778","0.02","0.33","30.1424","4.73985","44.41","0","SATNPRO1509","27.944","0.39144","5"],
    [9103,"HCEP03730566","2024-01-01 04:00:00","11.1443","3.42573","25.738","4.031","7.57","0.327","4.998","0.02","0.28","30.1359","4.73896","44.39","0","SATNPRO1509","28.108","0.39376","5"],
    [9104,"HCEP03730566","2024-01-01 04:15:00","11.1435","3.42524","25.898","4.027","7.57","0.378","5.835","0.11","2.15","30.1318","4.73839","44.34","0","SATNPRO1509","28.142","0.39414","5"],
    [9105,"HCEP03730566","2024-01-01 04:30:00","11.1435","3.42483","26.069","4.026","7.57","0.496","5.507","0.81","2.24","30.1277","4.73782","44.33","0","SATNPRO1509","28.134","0.39408","5"],
    [9106,"HCEP03730566","2024-01-01 04:45:00","11.1439","3.42465","26.266","4.007","7.57","0.325","4.613","0.01","0.22","30.1256","4.73753","44.12","0","SATNPRO1509","28.082","0.39334","5"],
    [9107,"HCEP03730566","2024-01-01 05:00:00","11.1444","3.42455","26.421","4.001","7.56","0.321","4.507","0.02","0.28","30.1241","4.73732","44.06","0","SATNPRO1509","28.168","0.39456","5"],
    [9108,"HCEP03730566","2024-01-01 05:15:00","11.145","3.42433","26.59","3.998","7.56","0.337","4.181","0.02","0.26","30.1214","4.73694","44.02","0","SATNPRO1509","28.116","0.3938","5"],
    [9109,"HCEP03730566","2024-01-01 05:30:00","11.1451","3.42437","26.806","3.99","7.56","0.336","4.847","0.01","0.4","30.1216","4.73698","43.93","0","SATNPRO1509","27.968","0.39178","5"],
    [9110,"HCEP03730566","2024-01-01 05:45:00","11.1451","3.42447","26.996","3.98","7.56","0.339","4.243","0.01","0.26","30.1225","4.73711","43.83","0","SATNPRO1509","27.902","0.39078","5"],
    [9111,"HCEP03730566","2024-01-01 06:00:00","11.1456","3.4245","27.204","3.968","7.56","0.32","4.481","0.01","0.33","30.1223","4.73709","43.7","0","SATNPRO1509","27.956","0.39156","5"],
    [9112,"HCEP03730566","2024-01-01 06:15:00","11.1466","3.42456","27.407","3.964","7.56","0.346","4.567","0.01","0.27","30.122","4.73705","43.65","0","SATNPRO1509","27.936","0.39124","5"],
    [9113,"HCEP03730566","2024-01-01 06:30:00","11.147","3.42452","27.578","3.956","7.56","0.333","4.78","0.02","0.32","30.1212","4.73694","43.56","0","SATNPRO1509","27.774","0.389","5"],
    [9114,"HCEP03730566","2024-01-01 06:45:00","11.1485","3.42491","27.738","3.938","7.56","0.34","4.849","0.01","0.19","30.1237","4.73728","43.37","0","SATNPRO1509","27.956","0.39158","5"],
    [9115,"HCEP03730566","2024-01-01 07:00:00","11.1494","3.42559","27.887","3.926","7.56","0.33","5.486","0.01","0.2","30.1295","4.73809","43.24","0","SATNPRO1509","27.908","0.3909","5"],
    [9116,"HCEP03730566","2024-01-01 07:15:00","11.1485","3.42634","28.046","3.975","7.56","0.349","5.09","0.02","0.35","30.1376","4.73926","43.77","0","SATNPRO1509","27.738","0.38848","5"],
    [9117,"HCEP03730566","2024-01-01 07:30:00","11.1464","3.42537","28.147","3.996","7.56","0.327","4.43","0.01","0.2","30.1298","4.73819","44.01","0","SATNPRO1509","27.812","0.38954","5"],
    [9118,"HCEP03730566","2024-01-01 07:45:00","11.1475","3.42615","28.227","4","7.56","0.339","4.943","0.01","0.22","30.1364","4.73912","44.05","0","SATNPRO1509","27.964000000000002","0.39172","5"],
    [9119,"HCEP03730566","2024-01-01 08:00:00","11.148","3.42682","28.242","3.993","7.56","0.332","5.567","0.01","0.28","30.1425","4.73998","43.98","0","SATNPRO1509","27.95","0.3915","5"],
    [9120,"HCEP03730566","2024-01-01 08:15:00","11.1486","3.42726","28.252","4.005","7.56","0.342","5.557","0.01","0.21","30.1463","4.74051","44.1","0","SATNPRO1509","28.048000000000002","0.39286","5"],
    [9121,"HCEP03730566","2024-01-01 08:30:00","11.1491","3.42773","28.247","4.008","7.56","0.328","5.894","0.01","0.28","30.1505","4.7411","44.15","0","SATNPRO1509","28.09","0.39342","5"],
    [9122,"HCEP03730566","2024-01-01 08:45:00","11.1504","3.42833","28.251","4.006","7.56","0.341","5.845","0.01","0.35","30.1554","4.74177","44.13","0","SATNPRO1509","27.882","0.3905","5"],
    [9123,"HCEP03730566","2024-01-01 09:00:00","11.1519","3.429","28.259","4.016","7.56","0.353","6.575","0.04","0.39","30.1607","4.74249","44.23","0","SATNPRO1509","27.866","0.39032","5"],
    [9124,"HCEP03730566","2024-01-01 09:15:00","11.1538","3.42974","28.289","4.03","7.56","0.35","6.091","0.01","0.46","30.1663","4.74327","44.4","0","SATNPRO1509","27.992","0.39208","5"],
    [9125,"HCEP03730566","2024-01-01 09:30:00","11.1552","3.43006","28.303","4.05","7.56","0.332","4.766","0.04","0.7","30.1682","4.74352","44.62","0","SATNPRO1509","28.132","0.39406","5"],
    [9126,"HCEP03730566","2024-01-01 09:45:00","11.1553","3.43011","28.27","4.063","7.57","0.325","4.477","0.01","0.3","30.1686","4.74357","44.76","0","SATNPRO1509","28.332","0.39682","5"],
    [9127,"HCEP03730566","2024-01-01 10:00:00","11.1572","3.43085","28.235","4.078","7.57","0.32","4.619","0.01","0.26","30.1743","4.74435","44.93","0","SATNPRO1509","28.128","0.39398","5"],
    [9128,"HCEP03730566","2024-01-01 10:15:00","11.1515","3.42872","28.157","4.102","7.57","0.325","4.092","0.01","0.25","30.1583","4.74216","45.18","0","SATNPRO1509","28.444","0.39844","5"],
    [9129,"HCEP03730566","2024-01-01 10:30:00","11.1546","3.43008","28.099","4.102","7.57","0.313","3.825","0.01","0.17","30.169","4.74362","45.19","0","SATNPRO1509","28.43","0.39822","5"],
    [9130,"HCEP03730566","2024-01-01 10:45:00","11.149","3.42822","28.021","4.122","7.57","0.324","3.454","0.01","0.24","30.1555","4.74179","45.4","0","SATNPRO1509","28.546","0.3998","5"],
    [9131,"HCEP03730566","2024-01-01 11:00:00","11.1572","3.43135","27.951","4.106","7.57","0.311","4.153","0.01","0.47","30.1793","4.74504","45.24","0","SATNPRO1509","28.538","0.3997","5"],
    [9132,"HCEP03730566","2024-01-01 11:15:00","11.149","3.42871","27.868","4.13","7.57","0.33","3.83","0.01","0.32","30.1603","4.74246","45.49","0","SATNPRO1509","28.419999999999998","0.39808","5"],
    [9133,"HCEP03730566","2024-01-01 11:30:00","11.1582","3.4316","27.771","4.073","7.57","0.324","4.705","0.01","0.49","30.1811","4.74526","44.88","0","SATNPRO1509","28.416","0.39802","5"],
    [9134,"HCEP03730566","2024-01-01 11:45:00","11.1577","3.43171","27.658","4.065","7.57","0.343","4.482","0.02","0.34","30.1826","4.74548","44.79","0","SATNPRO1509","28.404","0.39784","5"],
    [9135,"HCEP03730566","2024-01-01 12:00:00","11.1566","3.4312","27.555","4.076","7.57","0.32","4.529","0.01","0.3","30.1785","4.74492","44.9","0","SATNPRO1509","28.29","0.39626","5"],
    [9136,"HCEP03730566","2024-01-01 12:15:00","11.1548","3.4311","27.453","4.099","7.57","0.339","4.342","0.02","0.25","30.1791","4.74502","45.16","0","SATNPRO1509","28.388","0.39762","5"],
    [9137,"HCEP03730566","2024-01-01 12:30:00","11.1546","3.43097","27.346","4.099","7.57","0.316","4.096","0.01","0.25","30.178","4.74486","45.16","0","SATNPRO1509","28.218","0.3952","5"],
    [9138,"HCEP03730566","2024-01-01 12:45:00","11.1563","3.4313","27.22","4.09","7.57","0.327","4.282","0.01","0.42","30.1799","4.7451","45.07","0","SATNPRO1509","28.348","0.39704","5"],
    [9139,"HCEP03730566","2024-01-01 13:00:00","11.1569","3.43145","27.098","4.074","7.57","0.319","4.374","0.01","0.27","30.1809","4.74523","44.89","0","SATNPRO1509","28.226","0.39536","5"],
    [9140,"HCEP03730566","2024-01-01 13:15:00","11.1563","3.43122","26.968","4.054","7.57","0.336","4.512","0.02","0.29","30.1792","4.74499","44.66","0","SATNPRO1509","28.27","0.39596","5"],
    [9141,"HCEP03730566","2024-01-01 13:30:00","11.156","3.43105","26.869","4.042","7.57","0.323","4.283","0.02","0.32","30.1778","4.74478","44.54","0","SATNPRO1509","28.326","0.39674","5"],
    [9142,"HCEP03730566","2024-01-01 13:45:00","11.1566","3.43135","26.769","4.037","7.57","0.338","4.339","0.01","0.19","30.1803","4.74512","44.48","0","SATNPRO1509","28.098000000000003","0.39354","5"],
    [9143,"HCEP03730566","2024-01-01 14:00:00","11.1569","3.4314","26.708","4.031","7.57","0.321","4.529","0.01","0.14","30.1806","4.74515","44.41","0","SATNPRO1509","28.094","0.39352","5"],
    [9144,"HCEP03730566","2024-01-01 14:15:00","11.1573","3.43152","26.608","4.03","7.57","0.333","4.146","0.01","0.25","30.1814","4.74526","44.4","0","SATNPRO1509","28.37","0.3974","5"],
    [9145,"HCEP03730566","2024-01-01 14:30:00","11.1576","3.43161","26.54","4.037","7.57","0.318","4.316","0.01","0.19","30.1822","4.74536","44.47","0","SATNPRO1509","28.36","0.39722","5"],
    [9146,"HCEP03730566","2024-01-01 14:45:00","11.1591","3.432","26.489","4.034","7.57","0.336","4.573","0.01","0.35","30.1847","4.7457","44.45","0","SATNPRO1509","28.312","0.39658","5"],
    [9147,"HCEP03730566","2024-01-01 15:00:00","11.1602","3.43235","26.469","4.032","7.57","0.322","4.635","0.01","0.17","30.1872","4.74603","44.43","0","SATNPRO1509","28.386","0.39758","5"],
    [9148,"HCEP03730566","2024-01-01 15:15:00","11.1633","3.43287","26.446","4.047","7.57","0.33","4.132","0.01","0.26","30.1897","4.74634","44.6","0","SATNPRO1509","28.498","0.39916","5"],
    [9149,"HCEP03730566","2024-01-01 15:30:00","11.1635","3.43301","26.451","4.026","7.57","0.327","5.321","0.01","0.23","30.191","4.74651","44.37","0","SATNPRO1509","28.24","0.39552","5"],
    [9150,"HCEP03730566","2024-01-01 15:45:00","11.1638","3.43318","26.464","4.013","7.57","0.346","5.424","0.01","0.33","30.1923","4.7467","44.22","0","SATNPRO1509","28.204","0.39502","5"],
    [9151,"HCEP03730566","2024-01-01 16:00:00","11.1637","3.43315","26.498","3.998","7.56","0.323","4.938","0.01","0.22","30.1922","4.74669","44.06","0","SATNPRO1509","28.2","0.395","5"],
    [9152,"HCEP03730566","2024-01-01 16:15:00","11.1637","3.43317","26.54","3.995","7.56","0.334","4.676","0.01","0.4","30.1922","4.7467","44.03","0","SATNPRO1509","28.338","0.39696","5"],
    [9153,"HCEP03730566","2024-01-01 16:30:00","11.1657","3.43356","26.569","3.987","7.56","0.33","5.211","0.02","0.23","30.1945","4.74699","43.94","0","SATNPRO1509","28.216","0.39522","5"],
    [9154,"HCEP03730566","2024-01-01 16:45:00","11.1717","3.43487","26.625","4.01","7.56","0.33","4.401","0.02","0.27","30.2023","4.748","44.2","0","SATNPRO1509","28.292","0.3963","5"],
    [9155,"HCEP03730566","2024-01-01 17:00:00","11.1762","3.43596","26.646","4.015","7.56","0.325","5.031","0.02","0.18","30.2093","4.74893","44.27","0","SATNPRO1509","28.362000000000002","0.3973","5"],
    [9156,"HCEP03730566","2024-01-01 17:15:00","11.179","3.43675","26.655","4.023","7.56","0.322","4.139","0.01","0.3","30.2146","4.74964","44.35","0","SATNPRO1509","28.548","0.39984","5"],
    [9157,"HCEP03730566","2024-01-01 17:30:00","11.1815","3.43748","26.711","4.033","7.57","0.306","3.779","0.01","0.26","30.2197","4.75033","44.47","0","SATNPRO1509","28.48","0.3989","5"],
    [9158,"HCEP03730566","2024-01-01 17:45:00","11.1817","3.43751","26.734","4.039","7.57","0.324","3.921","0.02","0.26","30.2198","4.75034","44.53","0","SATNPRO1509","28.462","0.39866","5"],
    [9159,"HCEP03730566","2024-01-01 18:00:00","11.1815","3.43751","26.779","4.028","7.57","0.318","4.568","0.02","0.47","30.22","4.75037","44.42","0","SATNPRO1509","28.408","0.39786","5"],
    [9160,"HCEP03730566","2024-01-01 18:15:00","11.1827","3.43788","26.813","4.034","7.57","6.349","74.5","3.44","29.2","30.2226","4.75072","44.48","0","SATNPRO1509","28.628","0.40102","5"],
    [9161,"HCEP03730566","2024-01-01 18:30:00","11.1798","3.43709","26.836","4.007","7.57","0.304","6.374","0.02","0.94","30.2172","4.75001","44.18","0","SATNPRO1509","28.308","0.39652","5"],
    [9162,"HCEP03730566","2024-01-01 18:45:00","11.1794","3.4372","26.904","4.017","7.57","0.318","3.718","0.01","0.26","30.2187","4.75023","44.29","0","SATNPRO1509","28.538","0.39972","5"],
    [9163,"HCEP03730566","2024-01-01 19:00:00","11.1749","3.43617","26.932","3.98","7.56","0.298","4.53","0.01","0.55","30.2123","4.74939","43.88","0","SATNPRO1509","28.25","0.39566","5"],
    [9164,"HCEP03730566","2024-01-01 19:15:00","11.1746","3.43615","26.897","3.957","7.56","0.321","3.854","0.01","0.18","30.2123","4.7494","43.62","0","SATNPRO1509","28.27","0.39596","5"],
    [9165,"HCEP03730566","2024-01-01 19:30:00","11.1739","3.43606","26.968","3.95","7.56","0.302","4.006","0.01","0.37","30.2121","4.74938","43.55","0","SATNPRO1509","28.252","0.39572","5"],
    [9166,"HCEP03730566","2024-01-01 19:45:00","11.1768","3.43662","26.967","3.952","7.56","1.058","10.337","0.07","0.61","30.215","4.74975","43.57","0","SATNPRO1509","27.78","0.38914","5"],
    [9167,"HCEP03730566","2024-01-01 20:00:00","11.1808","3.43746","26.979","3.979","7.56","0.399","5.799","0.02","0.32","30.22","4.75039","43.88","0","SATNPRO1509","27.376","0.38344","5"],
    [9168,"HCEP03730566","2024-01-01 20:15:00","11.1837","3.43816","26.975","3.996","7.57","0.311","3.268","0.02","0.17","30.2245","4.75099","44.06","0","SATNPRO1509","28.514","0.39938","5"],
    [9169,"HCEP03730566","2024-01-01 20:30:00","11.1871","3.43904","26.955","4.025","7.57","0.298","3.507","0.02","0.27","30.2302","4.75175","44.39","0","SATNPRO1509","28.314","0.39658","5"],
    [9170,"HCEP03730566","2024-01-01 20:45:00","11.1891","3.43943","26.915","4.028","7.57","0.303","3.259","0.02","0.22","30.2324","4.75203","44.43","0","SATNPRO1509","28.512","0.39938","5"],
    [9171,"HCEP03730566","2024-01-01 21:00:00","11.1906","3.43959","26.878","3.997","7.57","0.297","4.02","0.01","0.33","30.2328","4.75205","44.09","0","SATNPRO1509","28.564","0.40008","5"],
    [9172,"HCEP03730566","2024-01-01 21:15:00","11.1924","3.4401","26.823","4.012","7.57","0.328","4.987","0.01","0.28","30.2362","4.75251","44.26","0","SATNPRO1509","28.402","0.39778","5"],
    [9173,"HCEP03730566","2024-01-01 21:30:00","11.1972","3.44138","26.779","4.129","7.57","0.282","3.459","0.01","0.29","30.2448","4.75366","45.55","0","SATNPRO1509","28.866","0.4043","5"],
    [9174,"HCEP03730566","2024-01-01 21:45:00","11.1951","3.44079","26.699","4.126","7.57","0.325","4.175","0.01","0.34","30.2408","4.75311","45.51","0","SATNPRO1509","28.732","0.40246","5"],
    [9175,"HCEP03730566","2024-01-01 22:00:00","11.1933","3.44038","26.605","4.09","7.57","0.314","4.635","0.01","0.23","30.2383","4.75278","45.11","0","SATNPRO1509","28.692","0.40184","5"],
    [9176,"HCEP03730566","2024-01-01 22:15:00","11.1934","3.44031","26.515","4.064","7.57","0.333","4.942","0.01","0.31","30.2376","4.75268","44.82","0","SATNPRO1509","28.564","0.4001","5"],
    [9177,"HCEP03730566","2024-01-01 22:30:00","11.1933","3.44026","26.389","4.065","7.57","0.311","5.17","0.01","0.21","30.2373","4.75262","44.84","0","SATNPRO1509","28.642","0.4012","5"],
    [9178,"HCEP03730566","2024-01-01 22:45:00","11.1939","3.44044","26.303","4.053","7.57","0.323","4.722","0.01","0.36","30.2385","4.75278","44.71","0","SATNPRO1509","28.714","0.40218","5"],
    [9179,"HCEP03730566","2024-01-01 23:00:00","11.1949","3.44061","26.176","4.074","7.57","0.31","4.553","0.01","0.25","30.2394","4.7529","44.94","0","SATNPRO1509","28.746","0.40264","5"],
    [9180,"HCEP03730566","2024-01-01 23:15:00","11.1962","3.44071","26.052","4.071","7.57","0.362","5.241","0.01","0.38","30.2394","4.75286","44.9","0","SATNPRO1509","28.676000000000002","0.40166","5"],
    [9181,"HCEP03730566","2024-01-01 23:30:00","11.1975","3.44079","25.906","4.073","7.57","0.317","5.219","0.01","0.29","30.2391","4.7528","44.93","0","SATNPRO1509","28.598","0.40056","5"],
    [9182,"HCEP03730566","2024-01-01 23:45:00","11.1983","3.44102","25.784","4.088","7.57","0.32","4.688","0.01","0.27","30.2407","4.75301","45.1","0","SATNPRO1509","28.652","0.40134","5"],
    [9183,"HCEP03730566","2024-01-02 00:00:00","11.1978","3.44079","25.648","4.094","7.57","0.331","4.566","0.03","0.47","30.239","4.75277","45.17","0","SATNPRO1509","28.788","0.40322","5"],
    [9184,"HCEP03730566","2024-01-02 00:15:00","11.1972","3.44068","25.533","4.097","7.57","0.335","4.625","0.02","0.32","30.2384","4.75268","45.2","0","SATNPRO1509","28.766","0.4029","5"],
    [9185,"HCEP03730566","2024-01-02 00:30:00","11.1945","3.43997","25.415","4.091","7.57","0.308","4.118","0.01","0.22","30.2338","4.75206","45.12","0","SATNPRO1509","28.748","0.40266","5"],
    [9186,"HCEP03730566","2024-01-02 00:45:00","11.1925","3.43937","25.318","4.084","7.57","0.325","4.286","0.02","0.28","30.2296","4.7515","45.05","0","SATNPRO1509","28.742","0.40262","5"],
    [9187,"HCEP03730566","2024-01-02 01:00:00","11.1908","3.4388","25.235","4.081","7.57","0.306","4.451","0.01","0.34","30.2256","4.75094","45.01","0","SATNPRO1509","28.662","0.40146","5"],
    [9188,"HCEP03730566","2024-01-02 01:15:00","11.1895","3.43844","25.161","4.074","7.57","0.33","4.493","0.02","0.39","30.2231","4.7506","44.93","0","SATNPRO1509","28.637999999999998","0.40112","5"],
    [9189,"HCEP03730566","2024-01-02 01:30:00","11.1891","3.43827","25.14","4.068","7.57","0.306","4.231","0.01","0.28","30.221800000000002","4.75043","44.86","0","SATNPRO1509","28.68","0.4017","5"],
    [9190,"HCEP03730566","2024-01-02 01:45:00","11.1878","3.43794","25.099","4.064","7.57","0.332","4.612","0.02","0.44","30.2196","4.75013","44.81","0","SATNPRO1509","28.694","0.40192","5"],
    [9191,"HCEP03730566","2024-01-02 02:00:00","11.1888","3.43809","25.098","4.063","7.57","0.31","4.223","0.01","0.2","30.2203","4.75022","44.8","0","SATNPRO1509","28.742","0.4026","5"],
    [9192,"HCEP03730566","2024-01-02 02:15:00","11.1895","3.4382","25.082","4.055","7.57","0.324","4.332","0.01","0.18","30.2208","4.75027","44.72","0","SATNPRO1509","28.584","0.40036","5"],
    [9193,"HCEP03730566","2024-01-02 02:30:00","11.1904","3.43846","25.118","4.05","7.57","0.316","4.51","0.01","0.22","30.2227","4.75052","44.67","0","SATNPRO1509","28.594","0.40052","5"],
    [9194,"HCEP03730566","2024-01-02 02:45:00","11.1924","3.43903","25.171","4.032","7.57","0.336","4.924","0.01","0.15","30.2265","4.75104","44.47","0","SATNPRO1509","28.424","0.39812","5"],
    [9195,"HCEP03730566","2024-01-02 03:00:00","11.1942","3.43944","25.214","4.029","7.57","0.613","8.658","0.18","2.66","30.2289","4.75136","44.44","0","SATNPRO1509","28.562","0.40004","5"],
    [9196,"HCEP03730566","2024-01-02 03:15:00","11.1944","3.43946","25.317","4.043","7.57","0.328","4.765","0.01","0.14","30.229","4.75137","44.59","0","SATNPRO1509","28.648","0.40124","5"],
    [9197,"HCEP03730566","2024-01-02 03:30:00","11.1944","3.43936","25.379","4.037","7.57","0.315","4.861","0.01","0.19","30.228","4.75124","44.53","0","SATNPRO1509","28.596","0.40054","5"],
    [9198,"HCEP03730566","2024-01-02 03:45:00","11.1955","3.43935","25.528","4.032","7.57","0.33","4.561","0.01","0.26","30.2269","4.75108","44.48","0","SATNPRO1509","28.606","0.40074","5"],
    [9199,"HCEP03730566","2024-01-02 04:00:00","11.1963","3.43963","25.604","4.022","7.57","0.323","5.229","0.01","0.23","30.229","4.75136","44.36","0","SATNPRO1509","28.552","0.39994","5"],
    [9200,"HCEP03730566","2024-01-02 04:15:00","11.1979","3.44017","25.815","4.004","7.57","0.336","5.231","0.01","0.11","30.2328","4.75189","44.17","0","SATNPRO1509","28.458","0.3986","5"],
    [9201,"HCEP03730566","2024-01-02 04:30:00","11.1992","3.44038","25.838","3.993","7.57","0.33","5.592","0.01","0.2","30.2338","4.75201","44.05","0","SATNPRO1509","28.434","0.39824","5"],
    [9202,"HCEP03730566","2024-01-02 04:45:00","11.2003","3.44055","25.999","3.993","7.57","0.338","4.985","0.01","0.19","30.2345","4.75211","44.05","0","SATNPRO1509","28.438","0.39836","5"],
    [9203,"HCEP03730566","2024-01-02 05:00:00","11.201","3.4408","26.149","3.985","7.57","0.331","5.454","0.01","0.15","30.2363","4.75235","43.96","0","SATNPRO1509","28.308","0.3965","5"],
    [9204,"HCEP03730566","2024-01-02 05:15:00","11.2019","3.44096","26.335","3.985","7.57","0.34","5.444","0.01","0.19","30.2371","4.75246","43.96","0","SATNPRO1509","28.39","0.3977","5"],
    [9205,"HCEP03730566","2024-01-02 05:30:00","11.201","3.44061","26.468","3.998","7.57","0.32","4.579","0.01","0.16","30.2343","4.75209","44.11","0","SATNPRO1509","28.536","0.3997","5"],
    [9206,"HCEP03730566","2024-01-02 05:45:00","11.2019","3.44075","26.689","3.991","7.57","0.336","4.694","0.02","0.16","30.2348","4.75216","44.03","0","SATNPRO1509","28.502","0.39916","5"],
    [9207,"HCEP03730566","2024-01-02 06:00:00","11.2028","3.44102","26.853","3.979","7.57","0.324","4.849","0.01","0.2","30.2367","4.75242","43.9","0","SATNPRO1509","28.406","0.39786","5"],
    [9208,"HCEP03730566","2024-01-02 06:15:00","11.202","3.44098","27.036","3.982","7.56","0.331","4.611","0.01","0.15","30.2369","4.75247","43.94","0","SATNPRO1509","28.432000000000002","0.39824","5"],
    [9209,"HCEP03730566","2024-01-02 06:30:00","11.2013","3.4409","27.211","4.008","7.57","0.314","4.303","0.01","0.17","30.2367","4.75246","44.22","0","SATNPRO1509","28.522000000000002","0.3995","5"],
    [9210,"HCEP03730566","2024-01-02 06:45:00","11.2038","3.44158","27.387","3.98","7.57","0.338","4.655","0.01","0.17","30.2411","4.75306","43.91","0","SATNPRO1509","28.201999999999998","0.39502","5"],
    [9211,"HCEP03730566","2024-01-02 07:00:00","11.2044","3.44176","27.548","3.971","7.56","0.317","4.483","0.01","0.21","30.2423","4.75323","43.81","0","SATNPRO1509","28.268","0.39592","5"],
    [9212,"HCEP03730566","2024-01-02 07:15:00","11.2038","3.44168","27.716","3.988","7.56","0.332","4.432","0.01","0.26","30.2419","4.7532","44","0","SATNPRO1509","28.438","0.39836","5"],
    [9213,"HCEP03730566","2024-01-02 07:30:00","11.2043","3.44185","27.85","3.994","7.57","0.314","4.365","0.01","0.2","30.2431","4.75336","44.07","0","SATNPRO1509","28.508","0.39934","5"],
    [9214,"HCEP03730566","2024-01-02 07:45:00","11.2036","3.44168","27.979","3.992","7.57","0.32","4.199","0.01","0.18","30.242","4.75323","44.04","0","SATNPRO1509","28.394000000000002","0.3977","5"],
    [9215,"HCEP03730566","2024-01-02 08:00:00","11.2031","3.44145","28.094","3.99","7.57","0.322","4.469","0.02","0.22","30.2402","4.75298","44.02","0","SATNPRO1509","28.368000000000002","0.39738","5"],
    [9216,"HCEP03730566","2024-01-02 08:15:00","11.202","3.44159","28.202","3.981","7.56","0.33","4.681","0.01","0.17","30.2424","4.75332","43.93","0","SATNPRO1509","28.4","0.3978","5"],
    [9217,"HCEP03730566","2024-01-02 08:30:00","11.2021","3.44139","28.25","3.967","7.56","0.329","5.125","0.02","0.27","30.2403","4.75303","43.77","0","SATNPRO1509","28.296","0.39632","5"],
    [9218,"HCEP03730566","2024-01-02 08:45:00","11.1978","3.44004","28.285","3.969","7.56","0.34","4.902","0.01","0.24","30.2306","4.75171","43.78","0","SATNPRO1509","28.456","0.39856","5"],
    [9219,"HCEP03730566","2024-01-02 09:00:00","11.1904","3.43838","28.289","3.991","7.56","0.321","4.413","0.02","0.52","30.2206","4.7504","44.01","0","SATNPRO1509","28.72","0.40224","5"],
    [9220,"HCEP03730566","2024-01-02 09:15:00","11.1911","3.43877","28.311","3.979","7.56","0.334","4.542","0.02","0.37","30.2237","4.75085","43.88","0","SATNPRO1509","28.436","0.39828","5"],
    [9221,"HCEP03730566","2024-01-02 09:30:00","11.192","3.43905","28.314","3.98","7.56","0.314","4.653","0.01","0.29","30.2257","4.75112","43.9","0","SATNPRO1509","28.292","0.39628","5"],
    [9222,"HCEP03730566","2024-01-02 09:45:00","11.1935","3.43932","28.316","3.985","7.56","0.322","4.5","0.01","0.36","30.2271","4.7513","43.96","0","SATNPRO1509","28.41","0.39792","5"],
    [9223,"HCEP03730566","2024-01-02 10:00:00","11.1887","3.43817","28.284","4.004","7.56","0.305","3.898","0.01","0.22","30.2199","4.75034","44.16","0","SATNPRO1509","28.576","0.40024","5"],
    [9224,"HCEP03730566","2024-01-02 10:15:00","11.1931","3.43933","28.239","4.004","7.57","0.326","4.135","0.02","0.2","30.2276","4.75137","44.16","0","SATNPRO1509","28.636","0.4011","5"],
    [9225,"HCEP03730566","2024-01-02 10:30:00","11.1909","3.4388","28.233","3.984","7.56","0.314","4.527","0.01","0.87","30.2242","4.75092","43.94","0","SATNPRO1509","28.674","0.40158","5"],
    [9226,"HCEP03730566","2024-01-02 10:45:00","11.1907","3.43887","28.16","3.963","7.56","0.328","4.236","0.01","0.28","30.2251","4.75104","43.71","0","SATNPRO1509","28.568","0.40012","5"],
    [9227,"HCEP03730566","2024-01-02 11:00:00","11.1914","3.43906","28.122","3.948","7.56","0.312","4.399","0.01","0.2","30.2264","4.75121","43.55","0","SATNPRO1509","28.364","0.39724","5"],
    [9228,"HCEP03730566","2024-01-02 11:15:00","11.1917","3.43901","28.029","3.925","7.56","0.326","4.163","0.01","0.19","30.2257","4.7511","43.3","0","SATNPRO1509","28.354","0.3971","5"],
    [9229,"HCEP03730566","2024-01-02 11:30:00","11.187","3.43796","27.922","3.904","7.56","0.311","4.136","0.01","0.15","30.2194","4.75028","43.05","0","SATNPRO1509","28.25","0.39568","5"],
    [9230,"HCEP03730566","2024-01-02 11:45:00","11.1843","3.4374","27.815","3.857","7.56","0.334","4.827","0.01","0.17","30.2161","4.74985","42.53","0","SATNPRO1509","28.048","0.39288","5"],
    [9231,"HCEP03730566","2024-01-02 12:00:00","11.1818","3.43683","27.734","3.819","7.55","0.324","5.099","0.02","0.14","30.2127","4.74939","42.11","0","SATNPRO1509","27.974","0.3918","5"],
    [9232,"HCEP03730566","2024-01-02 12:15:00","11.1775","3.436","27.647","3.795","7.55","0.334","4.738","0.01","0.21","30.2081","4.7488","41.84","0","SATNPRO1509","27.96","0.39162","5"],
    [9233,"HCEP03730566","2024-01-02 12:30:00","11.1772","3.43581","27.547","3.787","7.55","0.312","4.732","0.01","0.15","30.2067","4.74859","41.75","0","SATNPRO1509","28.076","0.39328","5"],
    [9234,"HCEP03730566","2024-01-02 12:45:00","11.1768","3.43571","27.444","3.778","7.55","0.333","5.003","0.01","0.17","30.206","4.74851","41.65","0","SATNPRO1509","28.048","0.39286","5"],
    [9235,"HCEP03730566","2024-01-02 13:00:00","11.176","3.43557","27.368","3.78","7.55","0.317","4.775","0.01","0.15","30.2053","4.74842","41.68","0","SATNPRO1509","27.984","0.39194","5"],
    [9236,"HCEP03730566","2024-01-02 13:15:00","11.1729","3.435","27.156","3.78","7.55","0.33","4.309","0.01","0.12","30.2024","4.74803","41.66","0","SATNPRO1509","28.062","0.39308","5"],
    [9237,"HCEP03730566","2024-01-02 13:30:00","11.1775","3.43585","27.05","3.776","7.55","0.321","4.627","0.01","0.14","30.2069","4.7486","41.62","0","SATNPRO1509","28.086","0.3934","5"],
    [9238,"HCEP03730566","2024-01-02 13:45:00","11.178","3.43599","26.925","3.77","7.55","0.332","4.566","0.01","0.24","30.2079","4.74873","41.56","0","SATNPRO1509","27.872","0.39038","5"],
    [9239,"HCEP03730566","2024-01-02 14:00:00","11.1781","3.4359","26.82","3.763","7.54","0.315","4.477","0.01","0.16","30.207","4.74859","41.49","0","SATNPRO1509","27.968","0.3917","5"],
    [9240,"HCEP03730566","2024-01-02 14:15:00","11.1779","3.43585","26.698","3.765","7.54","0.328","4.213","0.01","0.13","30.2067","4.74854","41.51","0","SATNPRO1509","28.006","0.39226","5"],
    [9241,"HCEP03730566","2024-01-02 14:30:00","11.1789","3.43605","26.583","3.771","7.54","0.314","4.265","0.01","0.14","30.2079","4.74868","41.58","0","SATNPRO1509","27.971999999999998","0.39182","5"],
    [9242,"HCEP03730566","2024-01-02 14:45:00","11.1811","3.43666","26.444","3.798","7.55","0.318","3.905","0.01","0.11","30.2121","4.74924","41.87","0","SATNPRO1509","28.082","0.39334","5"],
    [9243,"HCEP03730566","2024-01-02 15:00:00","11.1844","3.43761","26.398","3.824","7.55","0.306","4.014","0.01","0.12","30.2187","4.75013","42.17","0","SATNPRO1509","28.128","0.39398","5"],
    [9244,"HCEP03730566","2024-01-02 15:15:00","11.1897","3.43855","26.368","3.834","7.55","0.324","3.947","0.01","0.14","30.2235","4.75073","42.29","0","SATNPRO1509","28.172","0.3946","5"],
    [9245,"HCEP03730566","2024-01-02 15:30:00","11.1917","3.43906","26.32","3.869","7.55","0.31","3.893","0.01","0.16","30.2269","4.75117","42.67","0","SATNPRO1509","28.302","0.39644","5"],
    [9246,"HCEP03730566","2024-01-02 15:45:00","11.1924","3.43922","26.252","3.863","7.55","0.328","4.119","0.01","0.18","30.2279","4.7513","42.61","0","SATNPRO1509","28.18","0.39472","5"],
    [9247,"HCEP03730566","2024-01-02 16:00:00","11.1936","3.43938","26.323","3.833","7.55","0.32","4.577","0.01","0.18","30.2284","4.75136","42.28","0","SATNPRO1509","28.04","0.3927","5"],
    [9248,"HCEP03730566","2024-01-02 16:15:00","11.1939","3.43948","26.336","3.823","7.55","0.333","4.517","0.01","0.17","30.2291","4.75146","42.16","0","SATNPRO1509","27.974","0.39182","5"],
    [9249,"HCEP03730566","2024-01-02 16:30:00","11.1944","3.43955","26.332","3.804","7.55","0.324","4.801","0.01","0.22","30.2295","4.7515","41.96","0","SATNPRO1509","27.83","0.38982","5"],
    [9250,"HCEP03730566","2024-01-02 16:45:00","11.1947","3.43955","26.332","3.794","7.55","0.34","4.826","0.01","0.23","30.2292","4.75145","41.85","0","SATNPRO1509","27.842","0.38992","5"],
    [9251,"HCEP03730566","2024-01-02 17:00:00","11.1947","3.43956","26.355","3.778","7.55","0.361","5.942","0.1","2.1","30.2292","4.75146","41.67","0","SATNPRO1509","27.758","0.38878","5"],
    [9252,"HCEP03730566","2024-01-02 17:15:00","11.1942","3.43941","26.402","3.774","7.55","0.337","4.746","0.01","0.23","30.2282","4.75133","41.63","0","SATNPRO1509","27.855999999999998","0.3902","5"],
    [9253,"HCEP03730566","2024-01-02 17:30:00","11.1922","3.43909","26.413","3.798","7.55","0.316","4.622","0.02","0.28","30.2267","4.75114","41.89","0","SATNPRO1509","28.014","0.39236","5"],
    [9254,"HCEP03730566","2024-01-02 17:45:00","11.1901","3.43864","26.419","3.803","7.55","0.621","9.155","0.22","3.28","30.2241","4.75081","41.94","0","SATNPRO1509","28.074","0.39322","5"],
    [9255,"HCEP03730566","2024-01-02 18:00:00","11.1873","3.43794","26.445","3.769","7.55","0.319","4.879","0.01","0.2","30.2195","4.7502","41.56","0","SATNPRO1509","27.874","0.39042","5"],
    [9256,"HCEP03730566","2024-01-02 18:15:00","11.1837","3.43728","26.423","3.763","7.55","0.32","4.349","0.01","0.15","30.2161","4.74977","41.49","0","SATNPRO1509","27.956","0.39154","5"],
    [9257,"HCEP03730566","2024-01-02 18:30:00","11.1808","3.43675","26.583","3.75","7.54","4.491","80.539","2.64","31.77","30.2131","4.7494","41.35","0","SATNPRO1509","28.060000000000002","0.39304","5"],
    [9258,"HCEP03730566","2024-01-02 18:45:00","11.1782","3.43621","26.583","3.72","7.54","0.325","4.237","0.01","0.3","30.21","4.749","41.01","0","SATNPRO1509","27.977999999999998","0.39186","5"],
    [9259,"HCEP03730566","2024-01-02 19:00:00","11.1746","3.43539","26.637","3.666","7.54","0.313","4.652","0.01","0.16","30.205","4.74835","40.41","0","SATNPRO1509","27.694","0.3879","5"],
    [9260,"HCEP03730566","2024-01-02 19:15:00","11.1722","3.43493","26.666","3.612","7.54","0.328","4.673","0.01","0.14","30.2025","4.74802","39.81","0","SATNPRO1509","27.57","0.38616","5"],
    [9261,"HCEP03730566","2024-01-02 19:30:00","11.1712","3.43466","26.754","3.574","7.53","0.32","5.058","0.01","0.23","30.2006","4.74778","39.4","0","SATNPRO1509","27.422","0.38406","5"],
    [9262,"HCEP03730566","2024-01-02 19:45:00","11.1697","3.43446","26.78","3.576","7.53","0.331","4.829","0.01","0.15","30.1999","4.74771","39.41","0","SATNPRO1509","27.516000000000002","0.38538","5"],
    [9263,"HCEP03730566","2024-01-02 20:00:00","11.1701","3.43455","26.794","3.584","7.53","0.322","4.658","0.01","0.21","30.2004","4.74776","39.5","0","SATNPRO1509","27.52","0.38542","5"],
    [9264,"HCEP03730566","2024-01-02 20:15:00","11.17","3.43455","26.815","3.606","7.53","0.377","4.886","0.02","0.25","30.2005","4.74779","39.75","0","SATNPRO1509","27.593999999999998","0.3865","5"],
    [9265,"HCEP03730566","2024-01-02 20:30:00","11.1697","3.4345","26.839","3.621","7.53","0.312","4.178","0.01","0.09","30.2002","4.74775","39.91","0","SATNPRO1509","27.724","0.38832","5"],
    [9266,"HCEP03730566","2024-01-02 20:45:00","11.1703","3.43448","26.837","3.628","7.53","0.992","35.949","0.24","11.45","30.1996","4.74765","39.98","0","SATNPRO1509","27.714","0.3882","5"],
    [9267,"HCEP03730566","2024-01-02 21:00:00","11.1687","3.43414","26.834","3.605","7.53","0.311","4.907","0.01","0.31","30.1975","4.74739","39.74","0","SATNPRO1509","27.694","0.3879","5"],
    [9268,"HCEP03730566","2024-01-02 21:15:00","11.1656","3.43348","26.772","3.66","7.53","0.333","4.452","0.02","0.17","30.1936","4.74688","40.33","0","SATNPRO1509","27.88","0.39052","5"],
    [9269,"HCEP03730566","2024-01-02 21:30:00","11.1654","3.43335","26.787","3.649","7.53","0.32","4.722","0.01","0.4","30.1925","4.74673","40.21","0","SATNPRO1509","27.812","0.38954","5"],
    [9270,"HCEP03730566","2024-01-02 21:45:00","11.1649","3.43309","26.818","3.705","7.53","0.344","5.155","0.02","0.53","30.1905","4.74644","40.83","0","SATNPRO1509","28.032","0.39264","5"],
    [9271,"HCEP03730566","2024-01-02 22:00:00","11.1617","3.43248","26.782","3.649","7.53","0.32","4.648","0.01","0.21","30.1871","4.74602","40.21","0","SATNPRO1509","27.93","0.3912","5"],
    [9272,"HCEP03730566","2024-01-02 22:15:00","11.1598","3.43201","26.734","3.667","7.53","0.329","4.24","0.01","0.25","30.1841","4.74561","40.4","0","SATNPRO1509","28.078","0.39324","5"],
    [9273,"HCEP03730566","2024-01-02 22:30:00","11.163","3.43255","26.707","3.662","7.53","0.324","5.246","0.02","0.31","30.1868","4.74594","40.35","0","SATNPRO1509","27.962","0.3916","5"],
    [9274,"HCEP03730566","2024-01-02 22:45:00","11.165","3.43258","26.625","3.713","7.53","0.327","4.778","0.01","0.24","30.1854","4.74571","40.92","0","SATNPRO1509","28.224","0.3953","5"],
    [9275,"HCEP03730566","2024-01-02 23:00:00","11.1662","3.43264","26.597","3.72","7.54","0.329","5.053","0.02","0.42","30.1851","4.74565","41","0","SATNPRO1509","28.184","0.39478","5"],
    [9276,"HCEP03730566","2024-01-02 23:15:00","11.1672","3.4327","26.544","3.693","7.54","0.325","4.793","0.01","0.22","30.1848","4.7456","40.7","0","SATNPRO1509","27.99","0.39204","5"],
    [9277,"HCEP03730566","2024-01-02 23:30:00","11.17","3.43344","26.373","3.757","7.54","0.314","4.882","0.02","0.25","30.1899","4.74625","41.41","0","SATNPRO1509","28.362000000000002","0.39726","5"],
    [9278,"HCEP03730566","2024-01-02 23:45:00","11.1735","3.43427","26.266","3.815","7.54","0.326","5.213","0.01","0.15","30.1952","4.74695","42.05","0","SATNPRO1509","28.494","0.3991","5"],
    [9279,"HCEP03730566","2024-01-03 00:00:00","11.1777","3.43545","26.246","3.829","7.55","0.315","5.464","0.01","0.17","30.2032","4.74802","42.21","0","SATNPRO1509","28.448","0.39844","5"],
    [9280,"HCEP03730566","2024-01-03 00:15:00","11.1839","3.43679","26.093","3.821","7.55","0.331","5.355","0.01","0.32","30.2112","4.74906","42.13","0","SATNPRO1509","28.372","0.39744","5"],
    [9281,"HCEP03730566","2024-01-03 00:30:00","11.1902","3.43822","26.038","3.792","7.55","3.445","250.004","2","139.74","30.22","4.75021","41.82","0","SATNPRO1509","28.152","0.39436","5"],
    [9282,"HCEP03730566","2024-01-03 00:45:00","11.1912","3.43848","25.964","3.83","7.55","19.036","736.791","2.99","217.16","30.221800000000002","4.75043","42.24","0","SATNPRO1509","28.412","0.39798","5"],
    [9283,"HCEP03730566","2024-01-03 01:00:00","11.1927","3.43873","25.9","3.873","7.55","0.305","4.991","0.01","0.2","30.2229","4.75057","42.72","0","SATNPRO1509","28.41","0.39794","5"],
    [9284,"HCEP03730566","2024-01-03 01:15:00","11.1942","3.43894","25.779","3.874","7.55","0.32","5.021","0.01","0.24","30.2238","4.75067","42.73","0","SATNPRO1509","28.392","0.39766","5"],
    [9285,"HCEP03730566","2024-01-03 01:30:00","11.1932","3.43845","25.781","3.871","7.55","0.318","5.847","0.01","0.2","30.22","4.75014","42.7","0","SATNPRO1509","28.396","0.39768","5"],
    [9286,"HCEP03730566","2024-01-03 01:45:00","11.1887","3.43728","25.695","3.874","7.55","0.44","7.682","0.04","0.95","30.2123","4.74911","42.73","0","SATNPRO1509","28.376","0.39744","5"],
    [9287,"HCEP03730566","2024-01-03 02:00:00","11.1851","3.43618","25.675","3.878","7.55","0.312","5.395","0.01","0.21","30.2044","4.74805","42.76","0","SATNPRO1509","28.528","0.39956","5"],
    [9288,"HCEP03730566","2024-01-03 02:15:00","11.1829","3.43557","25.633","3.867","7.55","9.817","269.877","3.92","196.41","30.2004","4.74751","42.63","0","SATNPRO1509","28.52","0.39948","5"],
    [9289,"HCEP03730566","2024-01-03 02:30:00","11.179","3.43457","25.667","3.853","7.55","4.487","152.637","2.52","40.79","30.1937","4.74663","42.47","0","SATNPRO1509","28.438","0.3983","5"],
    [9290,"HCEP03730566","2024-01-03 02:45:00","11.1775","3.43403","25.65","3.836","7.55","0.332","5.756","0.01","0.26","30.1897","4.74609","42.28","0","SATNPRO1509","28.424","0.3981","5"],
    [9291,"HCEP03730566","2024-01-03 03:00:00","11.1758","3.4336","25.688","3.829","7.55","0.311","5.332","0.01","0.22","30.1869","4.7457","42.2","0","SATNPRO1509","28.45","0.3985","5"],
    [9292,"HCEP03730566","2024-01-03 03:15:00","11.1758","3.43349","25.66","3.816","7.55","0.324","5.044","0.01","0.18","30.1858","4.74556","42.07","0","SATNPRO1509","28.272","0.396","5"],
    [9293,"HCEP03730566","2024-01-03 03:30:00","11.174","3.43287","25.733","3.822","7.55","0.309","5.189","0.01","0.13","30.1813","4.74495","42.13","0","SATNPRO1509","28.422","0.3981","5"],
    [9294,"HCEP03730566","2024-01-03 03:45:00","11.1746","3.43313","25.832","3.825","7.55","0.319","4.552","0.01","0.12","30.1832","4.74521","42.16","0","SATNPRO1509","28.5","0.39924","5"],
    [9295,"HCEP03730566","2024-01-03 04:00:00","11.1767","3.43367","25.88","3.825","7.55","0.314","5.299","0.01","0.28","30.1868","4.7457","42.16","0","SATNPRO1509","28.404","0.39788","5"],
    [9296,"HCEP03730566","2024-01-03 04:15:00","11.1778","3.43381","26.031","3.81","7.55","0.388","6.619","0.06","1.12","30.1872","4.74574","42","0","SATNPRO1509","28.22","0.39526","5"],
    [9297,"HCEP03730566","2024-01-03 04:30:00","11.1792","3.43406","26.081","3.772","7.55","0.322","5.913","0.01","0.21","30.1885","4.74591","41.58","0","SATNPRO1509","28.198","0.3949","5"],
    [9298,"HCEP03730566","2024-01-03 04:45:00","11.1792","3.43406","26.193","3.755","7.54","0.331","5.331","0.01","0.19","30.1884","4.7459","41.4","0","SATNPRO1509","28.092","0.3935","5"],
    [9299,"HCEP03730566","2024-01-03 05:00:00","11.1801","3.43438","26.307","3.731","7.54","0.321","5.67","0.01","0.19","30.1907","4.74622","41.13","0","SATNPRO1509","28.106","0.39366","5"],
    [9300,"HCEP03730566","2024-01-03 05:15:00","11.1817","3.43466","26.45","3.72","7.54","0.334","5.588","0.01","0.21","30.1921","4.74641","41.01","0","SATNPRO1509","28.024","0.39258","5"],
    [9301,"HCEP03730566","2024-01-03 05:30:00","11.1833","3.43511","26.573","3.714","7.54","0.315","5.391","0.01","0.21","30.1952","4.74683","40.95","0","SATNPRO1509","27.968","0.39172","5"],
    [9302,"HCEP03730566","2024-01-03 05:45:00","11.1843","3.43546","26.678","3.726","7.54","0.328","5.165","0.01","0.17","30.1977","4.74717","41.08","0","SATNPRO1509","28.05","0.3929","5"],
    [9303,"HCEP03730566","2024-01-03 06:00:00","11.1861","3.4361","26.898","3.76","7.54","0.319","4.954","0.03","0.2","30.2024","4.74782","41.46","0","SATNPRO1509","28.282","0.39618","5"],
    [9304,"HCEP03730566","2024-01-03 06:15:00","11.1854","3.43627","27.078","3.793","7.54","0.32","4.492","0.01","0.22","30.2046","4.74815","41.83","0","SATNPRO1509","28.22","0.39526","5"],
    [9305,"HCEP03730566","2024-01-03 06:30:00","11.1866","3.43661","27.14","3.797","7.55","0.309","5.173","0.01","0.35","30.2069","4.74847","41.87","0","SATNPRO1509","28.402","0.39778","5"],
    [9306,"HCEP03730566","2024-01-03 06:45:00","11.1869","3.43685","27.284","3.814","7.55","0.324","4.76","0.01","0.23","30.2088","4.74874","42.06","0","SATNPRO1509","28.312","0.39656","5"],
    [9307,"HCEP03730566","2024-01-03 07:00:00","11.1862","3.43666","27.382","3.815","7.55","0.313","4.909","0.01","0.28","30.2076","4.74858","42.07","0","SATNPRO1509","28.428","0.39824","5"],
    [9308,"HCEP03730566","2024-01-03 07:15:00","11.1838","3.43615","27.51","3.809","7.55","0.349","5.938","0.02","0.38","30.2045","4.74818","41.99","0","SATNPRO1509","28.464","0.39868","5"],
    [9309,"HCEP03730566","2024-01-03 07:30:00","11.1809","3.4354","27.654","3.799","7.55","0.342","6.027","0.02","0.33","30.1996","4.74754","41.89","0","SATNPRO1509","28.492","0.39908","5"],
    [9310,"HCEP03730566","2024-01-03 07:45:00","11.1771","3.4343","27.733","3.788","7.55","0.341","5.476","0.01","0.36","30.1919","4.74651","41.75","0","SATNPRO1509","28.516","0.39942","5"],
    [9311,"HCEP03730566","2024-01-03 08:00:00","11.1751","3.43365","27.808","3.773","7.55","0.319","5.538","0.01","0.36","30.1871","4.74587","41.59","0","SATNPRO1509","28.366","0.39732","5"],
    [9312,"HCEP03730566","2024-01-03 08:15:00","11.1704","3.43268","27.981","3.757","7.54","0.334","5.299","0.01","0.26","30.1815","4.74516","41.41","0","SATNPRO1509","28.31","0.39656","5"],
    [9313,"HCEP03730566","2024-01-03 08:30:00","11.1699","3.43264","28.031","3.734","7.54","0.323","5.405","0.01","0.27","30.1815","4.74517","41.16","0","SATNPRO1509","28.334","0.39688","5"],
    [9314,"HCEP03730566","2024-01-03 08:45:00","11.1698","3.43256","28.135","3.718","7.54","0.339","5.207","0.01","0.26","30.1807","4.74506","40.98","0","SATNPRO1509","28.298000000000002","0.39634","5"],
    [9315,"HCEP03730566","2024-01-03 09:00:00","11.1669","3.43202","28.198","3.69","7.54","0.328","5.859","0.01","0.29","30.1778","4.7447","40.66","0","SATNPRO1509","28.196","0.39494","5"],
    [9316,"HCEP03730566","2024-01-03 09:15:00","11.1544","3.4303","28.255","3.639","7.53","0.747","13.742","1.42","23.25","30.1713","4.74396","40.09","0","SATNPRO1509","28.174","0.3946","5"],
    [9317,"HCEP03730566","2024-01-03 09:30:00","11.1516","3.43024","28.289","3.616","7.53","0.321","5.838","0","0.32","30.1729","4.74424","39.83","0","SATNPRO1509","28.104","0.39366","5"],
    [9318,"HCEP03730566","2024-01-03 09:45:00","11.1505","3.43035","28.363","3.616","7.53","0.331","5.2","0.01","0.24","30.175","4.74455","39.83","0","SATNPRO1509","28.080000000000002","0.39328","5"],
    [9319,"HCEP03730566","2024-01-03 10:00:00","11.1507","3.43055","28.283","3.621","7.53","0.316","4.744","0.02","0.23","30.1768","4.7448","39.89","0","SATNPRO1509","28.21","0.39516","5"],
    [9320,"HCEP03730566","2024-01-03 10:15:00","11.1505","3.43047","28.388","3.614","7.53","0.325","5.272","0.01","0.19","30.1761","4.74471","39.82","0","SATNPRO1509","28.208","0.39512","5"],
    [9321,"HCEP03730566","2024-01-03 10:30:00","11.1482","3.43042","28.353","3.647","7.53","0.319","5.175","0.01","0.21","30.1775","4.74494","40.17","0","SATNPRO1509","28.258","0.3958","5"],
    [9322,"HCEP03730566","2024-01-03 10:45:00","11.1466","3.43036","28.364","3.705","7.53","0.318","4.536","0.01","0.17","30.1782","4.74507","40.82","0","SATNPRO1509","28.368","0.39738","5"],
    [9323,"HCEP03730566","2024-01-03 11:00:00","11.1455","3.43011","28.274","3.73","7.53","0.327","4.604","0.01","0.21","30.1767","4.74486","41.09","0","SATNPRO1509","28.404","0.39788","5"],
    [9324,"HCEP03730566","2024-01-03 11:15:00","11.1448","3.42988","28.203","3.734","7.54","0.336","4.396","0.02","0.23","30.175","4.74464","41.12","0","SATNPRO1509","28.422","0.39814","5"],
    [9325,"HCEP03730566","2024-01-03 11:30:00","11.1446","3.42978","28.213","3.727","7.54","0.32","4.536","0.01","0.19","30.1742","4.74453","41.05","0","SATNPRO1509","28.362","0.39726","5"],
    [9326,"HCEP03730566","2024-01-03 11:45:00","11.1431","3.42938","28.073","3.742","7.54","0.336","4.776","0.01","0.28","30.1716","4.74417","41.22","0","SATNPRO1509","28.182","0.39474","5"],
    [9327,"HCEP03730566","2024-01-03 12:00:00","11.1421","3.42894","27.991","3.768","7.54","0.316","3.951","0.01","0.1","30.1682","4.74369","41.5","0","SATNPRO1509","28.518","0.39942","5"],
    [9328,"HCEP03730566","2024-01-03 12:15:00","11.1414","3.42853","27.864","3.78","7.54","0.344","4.056","0.01","0.15","30.1648","4.74322","41.63","0","SATNPRO1509","28.509999999999998","0.3993","5"],
    [9329,"HCEP03730566","2024-01-03 12:30:00","11.1418","3.42827","27.761","3.784","7.54","0.318","3.668","0.01","0.19","30.1619","4.7428","41.67","0","SATNPRO1509","28.536","0.39968","5"],
    [9330,"HCEP03730566","2024-01-03 12:45:00","11.1407","3.42789","27.669","3.795","7.54","0.318","3.592","0.01","0.08","30.1592","4.74242","41.79","0","SATNPRO1509","28.6","0.4006","5"],
    [9331,"HCEP03730566","2024-01-03 13:00:00","11.1408","3.42787","27.502","3.791","7.54","0.304","3.873","0.01","0.14","30.159","4.74238","41.75","0","SATNPRO1509","28.586","0.40036","5"],
    [9332,"HCEP03730566","2024-01-03 13:15:00","11.1414","3.42814","27.375","3.781","7.54","0.315","3.545","0.01","0.11","30.1612","4.74268","41.64","0","SATNPRO1509","28.558","0.40002","5"],
    [9333,"HCEP03730566","2024-01-03 13:30:00","11.1409","3.42761","27.249","3.783","7.54","0.299","3.377","0.01","0.09","30.1565","4.74201","41.67","0","SATNPRO1509","28.674","0.40164","5"],
    [9334,"HCEP03730566","2024-01-03 13:45:00","11.1433","3.42847","27.064","3.743","7.54","0.319","3.739","0.01","0.11","30.1631","4.7429","41.22","0","SATNPRO1509","28.532","0.39962","5"],
    [9335,"HCEP03730566","2024-01-03 14:00:00","11.1435","3.42862","26.944","3.722","7.54","0.315","4.525","0.01","0.15","30.1643","4.74306","40.99","0","SATNPRO1509","28.398","0.39778","5"],
    [9336,"HCEP03730566","2024-01-03 14:15:00","11.1436","3.42853","26.825","3.716","7.54","0.336","4.504","0.01","0.11","30.1634","4.74293","40.93","0","SATNPRO1509","28.42","0.39806","5"],
    [9337,"HCEP03730566","2024-01-03 14:30:00","11.1438","3.42857","26.652","3.704","7.54","0.306","4.027","0.01","0.11","30.1637","4.74296","40.8","0","SATNPRO1509","28.442","0.39842","5"],
    [9338,"HCEP03730566","2024-01-03 14:45:00","11.1525","3.42989","26.595","3.63","7.53","0.352","5.808","0.01","0.15","30.1695","4.74365","39.99","0","SATNPRO1509","27.855999999999998","0.39014","5"],
    [9339,"HCEP03730566","2024-01-03 15:00:00","11.1628","3.43156","26.445","3.536","7.53","0.353","7.052","0.01","0.17","30.1774","4.7446","38.96","0","SATNPRO1509","27.57","0.38616","5"],
    [9340,"HCEP03730566","2024-01-03 15:15:00","11.1676","3.43238","26.351","3.544","7.53","0.359","6.012","0.01","0.13","30.1815","4.7451","39.06","0","SATNPRO1509","27.752","0.38874","5"],
    [9341,"HCEP03730566","2024-01-03 15:30:00","11.1706","3.43291","26.266","3.535","7.53","0.347","6.429","0.01","0.14","30.1842","4.74544","38.96","0","SATNPRO1509","27.686","0.3878","5"],
    [9342,"HCEP03730566","2024-01-03 15:45:00","11.1717","3.43315","26.181","3.498","7.52","0.362","6.995","0.01","0.2","30.1858","4.74564","38.56","0","SATNPRO1509","27.582","0.38632","5"],
    [9343,"HCEP03730566","2024-01-03 16:00:00","11.1749","3.43397","26.11","3.496","7.52","0.344","6.539","0.01","0.18","30.1911","4.74635","38.53","0","SATNPRO1509","27.624","0.38694","5"],
    [9344,"HCEP03730566","2024-01-03 16:15:00","11.1749","3.43406","26.073","3.517","7.52","0.357","5.717","0.02","0.15","30.192","4.74647","38.77","0","SATNPRO1509","27.834","0.38982","5"],
    [9345,"HCEP03730566","2024-01-03 16:30:00","11.1753","3.43424","26.015","3.537","7.52","0.335","5.442","0.01","0.28","30.1934","4.74666","38.99","0","SATNPRO1509","27.828","0.38978","5"],
    [9346,"HCEP03730566","2024-01-03 16:45:00","11.1756","3.43433","26.01","3.544","7.52","0.342","5.235","0.01","0.2","30.1941","4.74674","39.07","0","SATNPRO1509","27.662","0.38742","5"],
    [9347,"HCEP03730566","2024-01-03 17:00:00","11.1776","3.43475","26.013","3.54","7.52","0.381","6.222","0.15","1.7","30.1966","4.74707","39.03","0","SATNPRO1509","27.69","0.38784","5"],
    [9348,"HCEP03730566","2024-01-03 17:15:00","11.1792","3.43503","26.014","3.509","7.52","0.359","5.869","0.01","0.2","30.1979","4.74724","38.69","0","SATNPRO1509","27.664","0.3875","5"],
    [9349,"HCEP03730566","2024-01-03 17:30:00","11.1795","3.43515","26.03","3.513","7.52","0.342","5.89","0.01","0.15","30.1988","4.74736","38.73","0","SATNPRO1509","27.51","0.38532","5"],
    [9350,"HCEP03730566","2024-01-03 17:45:00","11.179","3.43508","26.023","3.528","7.52","0.35","5.524","0.01","0.17","30.1986","4.74734","38.89","0","SATNPRO1509","27.71","0.38812","5"],
    [9351,"HCEP03730566","2024-01-03 18:00:00","11.1776","3.43476","26.052","3.514","7.52","0.393","6.685","0.05","1","30.1967","4.74708","38.74","0","SATNPRO1509","27.669999999999998","0.3876","5"],
    [9352,"HCEP03730566","2024-01-03 18:15:00","11.1749","3.43417","26.046","3.493","7.52","0.334","5.252","0.01","0.21","30.1931","4.74663","38.5","0","SATNPRO1509","27.75","0.3887","5"],
    [9353,"HCEP03730566","2024-01-03 18:30:00","11.1732","3.43386","26.084","3.461","7.52","0.326","5.501","0.01","0.26","30.1914","4.74641","38.15","0","SATNPRO1509","27.622","0.3869","5"],
    [9354,"HCEP03730566","2024-01-03 18:45:00","11.1595","3.43223","26.119","3.469","7.52","0.343","6.068","0.01","0.18","30.1868","4.74597","38.22","0","SATNPRO1509","27.483999999999998","0.385","5"],
    [9355,"HCEP03730566","2024-01-03 19:00:00","11.1544","3.43232","26.148","3.506","7.52","0.436","7.088","0.15","2","30.1918","4.74676","38.63","0","SATNPRO1509","27.438","0.38432","5"],
    [9356,"HCEP03730566","2024-01-03 19:15:00","11.1546","3.4326","26.206","3.531","7.52","0.331","5.245","0.01","0.22","30.1944","4.74712","38.91","0","SATNPRO1509","27.62","0.38686","5"],
    [9357,"HCEP03730566","2024-01-03 19:30:00","11.1557","3.43299","26.278","3.541","7.52","0.316","5.081","0.01","0.18","30.1972","4.74751","39.01","0","SATNPRO1509","27.586","0.38638","5"],
    [9358,"HCEP03730566","2024-01-03 19:45:00","11.1532","3.43245","26.372","3.568","7.52","0.333","4.959","0.01","0.22","30.194","4.74709","39.32","0","SATNPRO1509","27.594","0.3865","5"],
    [9359,"HCEP03730566","2024-01-03 20:00:00","11.1539","3.43253","26.402","3.569","7.52","0.32","5.315","0.01","0.25","30.1942","4.74711","39.32","0","SATNPRO1509","27.588","0.38642","5"],
    [9360,"HCEP03730566","2024-01-03 20:15:00","11.1537","3.43249","26.419","3.559","7.52","0.334","4.77","0.02","0.2","30.1939","4.74708","39.21","0","SATNPRO1509","27.746","0.38862","5"],
    [9361,"HCEP03730566","2024-01-03 20:30:00","11.1534","3.43233","26.532","3.543","7.52","0.319","5.338","0.01","0.25","30.1926","4.7469","39.03","0","SATNPRO1509","27.746","0.38862","5"],
    [9362,"HCEP03730566","2024-01-03 20:45:00","11.1526","3.432","26.604","3.547","7.52","0.33","5.08","0.01","0.16","30.19","4.74654","39.08","0","SATNPRO1509","27.586","0.3864","5"],
    [9363,"HCEP03730566","2024-01-03 21:00:00","11.1526","3.4317","26.657","3.535","7.52","0.324","5.538","0.01","0.14","30.187","4.74612","38.94","0","SATNPRO1509","27.694","0.3879","5"],
    [9364,"HCEP03730566","2024-01-03 21:15:00","11.1516","3.43125","26.728","3.523","7.52","0.336","5.152","0.01","0.14","30.1834","4.74563","38.81","0","SATNPRO1509","27.638","0.38712","5"],
    [9365,"HCEP03730566","2024-01-03 21:30:00","11.1539","3.4313","26.741","3.505","7.52","0.32","5.714","0.01","0.14","30.1821","4.74542","38.62","0","SATNPRO1509","27.706","0.38806","5"],
    [9366,"HCEP03730566","2024-01-03 21:45:00","11.1554","3.43128","26.782","3.493","7.52","0.787","26.333","0.64","29.24","30.1806","4.74518","38.48","0","SATNPRO1509","27.814","0.38958","5"],
    [9367,"HCEP03730566","2024-01-03 22:00:00","11.158","3.43132","26.808","3.498","7.52","0.319","5.524","0.01","0.11","30.1788","4.7449","38.55","0","SATNPRO1509","27.806","0.38946","5"],
    [9368,"HCEP03730566","2024-01-03 22:15:00","11.1621","3.4319","26.798","3.503","7.52","0.329","5.341","0.01","0.19","30.1811","4.74516","38.6","0","SATNPRO1509","28.008","0.3923","5"],
    [9369,"HCEP03730566","2024-01-03 22:30:00","11.1679","3.43289","26.785","3.514","7.52","0.318","5.572","0.01","0.21","30.186","4.74577","38.72","0","SATNPRO1509","28.002","0.39224","5"],
    [9370,"HCEP03730566","2024-01-03 22:45:00","11.1709","3.43343","26.74","3.549","7.52","0.325","5.085","0.01","0.57","30.1889","4.74613","39.12","0","SATNPRO1509","28.21","0.39512","5"],
    [9371,"HCEP03730566","2024-01-03 23:00:00","11.1672","3.43265","26.742","3.571","7.52","0.306","4.762","0.01","0.19","30.1843","4.74554","39.35","0","SATNPRO1509","28.419999999999998","0.39808","5"],
    [9372,"HCEP03730566","2024-01-03 23:15:00","11.1606","3.43125","26.741","3.586","7.52","0.323","4.694","0.01","0.36","30.176","4.74445","39.51","0","SATNPRO1509","28.46","0.3986","5"],
    [9373,"HCEP03730566","2024-01-03 23:30:00","11.1615","3.43119","26.695","3.591","7.53","0.309","4.939","0.01","0.31","30.1747","4.74425","39.57","0","SATNPRO1509","28.502","0.39922","5"],
    [9374,"HCEP03730566","2024-01-03 23:45:00","11.1654","3.43169","26.611","3.589","7.53","0.332","5.298","0.01","0.25","30.1765","4.74444","39.55","0","SATNPRO1509","28.474","0.39882","5"],
    [9375,"HCEP03730566","2024-01-04 00:00:00","11.1675","3.43165","26.556","3.596","7.53","0.317","5.406","0.01","0.38","30.1744","4.74411","39.63","0","SATNPRO1509","28.424","0.3981","5"],
    [9376,"HCEP03730566","2024-01-04 00:15:00","11.1725","3.4327","26.604","3.608","7.53","0.331","4.822","0.01","0.25","30.1804","4.74489","39.76","0","SATNPRO1509","28.426","0.39814","5"],
    [9377,"HCEP03730566","2024-01-04 00:30:00","11.1746","3.4329","26.467","3.631","7.53","0.316","5.124","0.01","0.19","30.1807","4.74489","40.03","0","SATNPRO1509","28.526","0.3996","5"],
    [9378,"HCEP03730566","2024-01-04 00:45:00","11.1746","3.43236","26.431","3.622","7.53","0.335","5.213","0.01","0.24","30.1755","4.74415","39.92","0","SATNPRO1509","28.386","0.39758","5"],
    [9379,"HCEP03730566","2024-01-04 01:00:00","11.1706","3.43099","26.386","3.603","7.53","0.329","5.989","0.02","0.34","30.1655","4.74279","39.71","0","SATNPRO1509","28.406","0.39786","5"],
    [9380,"HCEP03730566","2024-01-04 01:15:00","11.1681","3.42969","26.394","3.536","7.53","0.348","6.005","0.01","0.41","30.1548","4.74131","38.96","0","SATNPRO1509","28.186","0.39478","5"],
    [9381,"HCEP03730566","2024-01-04 01:30:00","11.1665","3.42851","26.376","3.491","7.52","0.334","5.836","0.01","0.24","30.1446","4.73989","38.47","0","SATNPRO1509","28.22","0.3953","5"],
    [9382,"HCEP03730566","2024-01-04 01:45:00","11.1654","3.42752","26.319","3.475","7.52","0.35","6.154","0.02","1.29","30.1359","4.73868","38.28","0","SATNPRO1509","28.152","0.3943","5"],
    [9383,"HCEP03730566","2024-01-04 02:00:00","11.1653","3.42714","26.347","3.466","7.52","0.334","5.609","0.01","0.29","30.1323","4.73816","38.18","0","SATNPRO1509","28.044","0.39278","5"],
    [9384,"HCEP03730566","2024-01-04 02:15:00","11.1648","3.42693","26.354","3.463","7.52","0.351","5.608","0.01","0.34","30.1306","4.73793","38.15","0","SATNPRO1509","28.034","0.39264","5"],
    [9385,"HCEP03730566","2024-01-04 02:30:00","11.1646","3.42683","26.296","3.455","7.52","0.329","5.388","0.01","0.26","30.1298","4.73782","38.06","0","SATNPRO1509","28.11","0.39376","5"],
    [9386,"HCEP03730566","2024-01-04 02:45:00","11.1644","3.42662","26.227","3.447","7.52","0.342","5.27","0.01","0.44","30.128","4.73756","37.97","0","SATNPRO1509","28.116","0.39378","5"],
    [9387,"HCEP03730566","2024-01-04 03:00:00","11.1644","3.42663","26.295","3.438","7.52","0.337","5.562","0.01","0.48","30.1281","4.73757","37.88","0","SATNPRO1509","28.028","0.39258","5"],
    [9388,"HCEP03730566","2024-01-04 03:15:00","11.1647","3.42668","26.278","3.435","7.52","0.376","5.687","0.01","0.38","30.1283","4.73761","37.84","0","SATNPRO1509","28.03","0.3926","5"],
    [9389,"HCEP03730566","2024-01-04 03:30:00","11.1645","3.42669","26.268","3.435","7.52","0.361","5.59","0.02","0.35","30.1286","4.73764","37.84","0","SATNPRO1509","28.188","0.3948","5"],
    [9390,"HCEP03730566","2024-01-04 03:45:00","11.1649","3.42683","26.214","3.432","7.52","0.369","5.642","0.02","0.61","30.1296","4.73778","37.81","0","SATNPRO1509","28.146","0.39422","5"],
    [9391,"HCEP03730566","2024-01-04 04:00:00","11.1649","3.42687","26.279","3.426","7.52","0.365","5.529","0.01","0.35","30.13","4.73783","37.75","0","SATNPRO1509","28.028","0.39256","5"],
    [9392,"HCEP03730566","2024-01-04 04:15:00","11.1656","3.42698","26.278","3.425","7.51","0.368","5.722","0.01","0.26","30.1305","4.7379","37.73","0","SATNPRO1509","28.02","0.39246","5"],
    [9393,"HCEP03730566","2024-01-04 04:30:00","11.1655","3.42709","26.279","3.427","7.51","0.374","6.019","0.01","0.34","30.1316","4.73806","37.76","0","SATNPRO1509","28.012","0.39238","5"],
    [9394,"HCEP03730566","2024-01-04 04:45:00","11.1662","3.42764","26.371","3.432","7.51","0.375","6.066","0.01","0.3","30.1364","4.73873","37.81","0","SATNPRO1509","28.03","0.39258","5"],
    [9395,"HCEP03730566","2024-01-04 05:00:00","11.1684","3.42909","26.443","3.468","7.52","0.339","6.384","0.01","1.6","30.1487","4.74045","38.21","0","SATNPRO1509","28.132","0.39404","5"],
    [9396,"HCEP03730566","2024-01-04 05:15:00","11.1697","3.42986","26.511","3.496","7.52","0.354","5.608","0.01","0.25","30.1551","4.74134","38.53","0","SATNPRO1509","28.256","0.39576","5"],
    [9397,"HCEP03730566","2024-01-04 05:30:00","11.1714","3.43069","26.54","3.532","7.52","0.326","5.253","0.01","0.34","30.1618","4.74227","38.92","0","SATNPRO1509","28.328","0.39678","5"],
    [9398,"HCEP03730566","2024-01-04 05:45:00","11.1719","3.43112","26.624","3.558","7.52","0.327","4.806","0.01","0.15","30.1655","4.74279","39.21","0","SATNPRO1509","28.448","0.39848","5"],
    [9399,"HCEP03730566","2024-01-04 06:00:00","11.1719","3.43146","26.715","3.568","7.52","0.312","5.082","0.01","0.17","30.1688","4.74326","39.32","0","SATNPRO1509","28.509999999999998","0.3993","5"],
    [9400,"HCEP03730566","2024-01-04 06:15:00","11.1704","3.4312","26.715","3.569","7.52","0.336","5.352","0.02","0.45","30.1676","4.74311","39.33","0","SATNPRO1509","28.464","0.3987","5"],
    [9401,"HCEP03730566","2024-01-04 06:30:00","11.1678","3.43068","26.839","3.565","7.52","0.312","5.145","0.01","0.19","30.1645","4.74272","39.28","0","SATNPRO1509","28.428","0.39818","5"],
    [9402,"HCEP03730566","2024-01-04 06:45:00","11.1608","3.43232","26.965","3.668","7.53","0.342","6.738","0.01","0.3","30.1863","4.74592","40.41","0","SATNPRO1509","28.034","0.39268","5"],
    [9403,"HCEP03730566","2024-01-04 07:00:00","11.1653","3.43395","27.005","3.72","7.53","0.321","6.417","0","0.19","30.1985","4.74758","41","0","SATNPRO1509","27.992","0.39206","5"],
    [9404,"HCEP03730566","2024-01-04 07:15:00","11.1675","3.43482","27.12","3.737","7.54","0.986","22.171","0.67","19.63","30.2051","4.74849","41.19","0","SATNPRO1509","28.06","0.39304","5"],
    [9405,"HCEP03730566","2024-01-04 07:30:00","11.1691","3.43544","27.252","3.761","7.54","0.318","5.966","0.01","0.22","30.2097","4.74914","41.45","0","SATNPRO1509","28.106","0.39368","5"],
    [9406,"HCEP03730566","2024-01-04 07:45:00","11.1722","3.43636","27.498","3.782","7.54","0.327","6.209","0.02","1.32","30.2161","4.75","41.69","0","SATNPRO1509","28.163999999999998","0.39448","5"],
    [9407,"HCEP03730566","2024-01-04 08:00:00","11.1722","3.43634","27.542","3.789","7.54","0.311","6.063","0.01","1.67","30.2159","4.74997","41.77","0","SATNPRO1509","28.12","0.3939","5"],
    [9408,"HCEP03730566","2024-01-04 08:15:00","11.1749","3.43712","27.683","3.803","7.54","0.351","10.438","0.14","12.15","30.2212","4.7507","41.92","0","SATNPRO1509","28.106","0.39368","5"],
    [9409,"HCEP03730566","2024-01-04 08:30:00","11.1581","3.43288","27.819","3.839","7.55","0.295","4.248","0.01","0.16","30.1936","4.74704","42.3","0","SATNPRO1509","28.406","0.3979","5"],
    [9410,"HCEP03730566","2024-01-04 08:45:00","11.1717","3.43638","27.88","3.824","7.55","0.32","4.844","0.01","0.53","30.2165","4.75009","42.15","0","SATNPRO1509","28.262","0.39584","5"],
    [9411,"HCEP03730566","2024-01-04 09:00:00","11.168","3.43498","28.023","3.835","7.55","0.317","4.51","0.04","1.37","30.2059","4.74865","42.27","0","SATNPRO1509","28.3","0.39642","5"],
    [9412,"HCEP03730566","2024-01-04 09:15:00","11.1577","3.4321","28.027","3.861","7.55","0.303","3.265","0.01","0.14","30.1862","4.74602","42.54","0","SATNPRO1509","28.538","0.39974","5"],
    [9413,"HCEP03730566","2024-01-04 09:30:00","11.1476","3.43015","28.131","3.865","7.55","0.29","3.331","0.01","0.15","30.1754","4.74464","42.57","0","SATNPRO1509","28.564","0.4001","5"],
    [9414,"HCEP03730566","2024-01-04 09:45:00","11.1461","3.42995","28.152","3.84","7.55","0.306","3.202","0.01","0.11","30.1747","4.74457","42.3","0","SATNPRO1509","28.534","0.39968","5"],
    [9415,"HCEP03730566","2024-01-04 10:00:00","11.1591","3.43332","28.201","3.838","7.55","0.306","4.616","0.01","0.2","30.1969","4.74752","42.29","0","SATNPRO1509","28.416","0.39798","5"],
    [9416,"HCEP03730566","2024-01-04 10:15:00","11.1641","3.43448","28.245","3.817","7.55","0.32","4.655","0.01","0.22","30.2041","4.74846","42.07","0","SATNPRO1509","28.29","0.39626","5"],
    [9417,"HCEP03730566","2024-01-04 10:30:00","11.1588","3.43362","28.288","3.83","7.55","0.299","3.85","0.01","0.13","30.2","4.74797","42.2","0","SATNPRO1509","28.471999999999998","0.3988","5"],
    [9418,"HCEP03730566","2024-01-04 10:45:00","11.1633","3.43425","28.246","3.813","7.55","0.326","4.78","0.01","0.18","30.2025","4.74826","42.03","0","SATNPRO1509","28.17","0.39458","5"],
    [9419,"HCEP03730566","2024-01-04 11:00:00","11.1655","3.43494","28.25","3.822","7.55","0.31","4.287","0.01","0.14","30.2074","4.74891","42.12","0","SATNPRO1509","28.398","0.39772","5"],
    [9420,"HCEP03730566","2024-01-04 11:15:00","11.163","3.43442","28.229","3.842","7.55","0.32","3.367","0.01","0.11","30.2043","4.74852","42.35","0","SATNPRO1509","28.509999999999998","0.39932","5"],
    [9421,"HCEP03730566","2024-01-04 11:30:00","11.1592","3.43327","28.191","3.863","7.55","0.298","3.346","0.01","0.15","30.1964","4.74744","42.57","0","SATNPRO1509","28.625999999999998","0.40096","5"],
    [9422,"HCEP03730566","2024-01-04 11:45:00","11.1587","3.43302","28.142","3.867","7.55","0.317","3.333","0.01","0.21","30.1944","4.74716","42.61","0","SATNPRO1509","28.59","0.40046","5"],
    [9423,"HCEP03730566","2024-01-04 12:00:00","11.1587","3.43313","28.072","3.867","7.55","0.308","3.501","0.01","0.21","30.1954","4.7473","42.61","0","SATNPRO1509","28.554","0.3999","5"],
    [9424,"HCEP03730566","2024-01-04 12:15:00","11.1588","3.433","27.981","3.849","7.55","0.34","5.033","0.02","0.33","30.1941","4.74712","42.42","0","SATNPRO1509","28.392","0.39766","5"],
    [9425,"HCEP03730566","2024-01-04 12:30:00","11.1599","3.43323","27.867","3.779","7.55","0.327","5.069","0.01","0.22","30.1955","4.7473","41.65","0","SATNPRO1509","28.227999999999998","0.39538","5"],
    [9426,"HCEP03730566","2024-01-04 12:45:00","11.1585","3.43268","27.776","3.77","7.55","0.381","5.626","0.03","0.55","30.1913","4.74672","41.55","0","SATNPRO1509","28.24","0.39556","5"],
    [9427,"HCEP03730566","2024-01-04 13:00:00","11.1586","3.43255","27.643","3.743","7.54","0.432","6.941","0.16","1.32","30.19","4.74651","41.24","0","SATNPRO1509","27.926","0.39116","5"],
    [9428,"HCEP03730566","2024-01-04 13:15:00","11.1547","3.43153","27.518","3.728","7.54","0.338","5.102","0.01","0.33","30.1834","4.74563","41.08","0","SATNPRO1509","28.01","0.39238","5"],
    [9429,"HCEP03730566","2024-01-04 13:30:00","11.1518","3.43075","27.413","3.732","7.54","0.319","4.552","0.01","0.18","30.1781","4.74492","41.11","0","SATNPRO1509","27.970000000000002","0.39178","5"],
    [9430,"HCEP03730566","2024-01-04 13:45:00","11.1552","3.43153","27.275","3.706","7.54","0.347","4.871","0.02","0.38","30.183","4.74556","40.83","0","SATNPRO1509","27.701999999999998","0.38802","5"],
    [9431,"HCEP03730566","2024-01-04 14:00:00","11.1546","3.43127","27.127","3.686","7.54","0.325","4.783","0.02","0.22","30.1811","4.74528","40.61","0","SATNPRO1509","27.958000000000002","0.39158","5"],
    [9432,"HCEP03730566","2024-01-04 14:15:00","11.155","3.43107","26.979","3.663","7.54","0.341","4.873","0.02","0.48","30.1787","4.74494","40.35","0","SATNPRO1509","27.798","0.38934","5"],
    [9433,"HCEP03730566","2024-01-04 14:30:00","11.1567","3.43115","26.841","3.639","7.54","0.319","4.97","0.01","0.24","30.1783","4.74484","40.09","0","SATNPRO1509","27.834","0.38988","5"],
    [9434,"HCEP03730566","2024-01-04 14:45:00","11.1563","3.431","26.768","3.637","7.53","0.338","5.057","0.01","0.22","30.1771","4.74468","40.07","0","SATNPRO1509","27.934","0.39126","5"],
    [9435,"HCEP03730566","2024-01-04 15:00:00","11.1575","3.43121","26.589","3.629","7.53","0.358","5.508","0.03","0.55","30.1783","4.74481","39.98","0","SATNPRO1509","27.924","0.39114","5"],
    [9436,"HCEP03730566","2024-01-04 15:15:00","11.1588","3.43174","26.437","3.618","7.53","0.359","4.966","0.04","0.33","30.1824","4.74537","39.87","0","SATNPRO1509","27.849999999999998","0.3901","5"],
    [9437,"HCEP03730566","2024-01-04 15:30:00","11.1602","3.43242","26.265","3.628","7.53","0.328","4.954","0.01","0.18","30.188","4.74613","39.98","0","SATNPRO1509","28.02","0.39248","5"],
    [9438,"HCEP03730566","2024-01-04 15:45:00","11.1616","3.43298","26.143","3.635","7.53","0.344","5.6","0.01","0.35","30.1924","4.74673","40.06","0","SATNPRO1509","27.96","0.39162","5"],
    [9439,"HCEP03730566","2024-01-04 16:00:00","11.1605","3.4325","26.009","3.655","7.53","0.314","4.23","0.01","0.14","30.1887","4.74621","40.28","0","SATNPRO1509","28.104","0.39368","5"],
    [9440,"HCEP03730566","2024-01-04 16:15:00","11.166","3.43411","25.93","3.609","7.53","0.355","6.321","0.01","0.24","30.1999","4.74771","39.77","0","SATNPRO1509","27.436","0.38428","5"],
    [9441,"HCEP03730566","2024-01-04 16:30:00","11.1694","3.43515","25.837","3.6","7.53","0.336","6.191","0.01","0.34","30.2072","4.74869","39.69","0","SATNPRO1509","27.486","0.385","5"],
    [9442,"HCEP03730566","2024-01-04 16:45:00","11.1718","3.43583","25.764","3.61","7.53","0.349","5.84","0.01","0.32","30.2119","4.74932","39.79","0","SATNPRO1509","27.63","0.38702","5"],
    [9443,"HCEP03730566","2024-01-04 17:00:00","11.1731","3.43611","25.712","3.602","7.53","0.332","6.144","0.01","0.18","30.2137","4.74955","39.71","0","SATNPRO1509","27.642","0.38718","5"],
    [9444,"HCEP03730566","2024-01-04 17:15:00","11.1733","3.43627","25.684","3.625","7.53","0.339","5.985","0.01","0.18","30.215","4.74973","39.97","0","SATNPRO1509","27.732","0.38842","5"],
    [9445,"HCEP03730566","2024-01-04 17:30:00","11.1753","3.43665","25.61","3.625","7.53","0.341","6.263","0.02","0.32","30.2171","4.74999","39.96","0","SATNPRO1509","27.716","0.3882","5"],
    [9446,"HCEP03730566","2024-01-04 17:45:00","11.1732","3.43624","25.581","3.649","7.53","0.331","5.313","0.01","0.31","30.2149","4.74971","40.23","0","SATNPRO1509","27.992","0.39212","5"],
    [9447,"HCEP03730566","2024-01-04 18:00:00","11.1709","3.43546","25.589","3.645","7.53","0.324","5.236","0.01","0.48","30.2092","4.74893","40.18","0","SATNPRO1509","28.18","0.39472","5"],
    [9448,"HCEP03730566","2024-01-04 18:15:00","11.1678","3.43431","25.604","3.634","7.53","0.332","4.365","0.02","0.29","30.2005","4.74775","40.05","0","SATNPRO1509","28.152","0.39432","5"],
    [9449,"HCEP03730566","2024-01-04 18:30:00","11.169","3.43514","25.579","3.641","7.53","0.338","5.539","0.02","0.8","30.2076","4.74874","40.13","0","SATNPRO1509","27.971999999999998","0.39176","5"],
    [9450,"HCEP03730566","2024-01-04 18:45:00","11.1698","3.43555","25.706","3.64","7.53","0.362","5.661","0.03","1.03","30.2109","4.7492","40.12","0","SATNPRO1509","27.932000000000002","0.39126","5"],
    [9451,"HCEP03730566","2024-01-04 19:00:00","11.1656","3.43437","25.764","3.645","7.53","0.32","4.696","0.02","1.02","30.2027","4.74811","40.18","0","SATNPRO1509","28.224","0.39536","5"],
    [9452,"HCEP03730566","2024-01-04 19:15:00","11.1693","3.43532","25.763","3.636","7.53","0.423","6.811","0.03","0.64","30.209","4.74895","40.07","0","SATNPRO1509","27.754","0.38872","5"],
    [9453,"HCEP03730566","2024-01-04 19:30:00","11.1669","3.43483","25.786","3.634","7.53","0.562","6.848","0.17","1.36","30.2062","4.74859","40.05","0","SATNPRO1509","27.778","0.38908","5"],
    [9454,"HCEP03730566","2024-01-04 19:45:00","11.1647","3.43413","25.849","3.647","7.53","0.315","3.902","0.01","0.21","30.2012","4.74791","40.19","0","SATNPRO1509","28.096","0.39356","5"],
    [9455,"HCEP03730566","2024-01-04 20:00:00","11.163","3.43378","25.914","3.667","7.53","0.305","4.021","0.01","0.26","30.199","4.74764","40.41","0","SATNPRO1509","28.022","0.3925","5"],
    [9456,"HCEP03730566","2024-01-04 20:15:00","11.1604","3.43296","25.966","3.671","7.53","0.328","4.192","0.02","0.24","30.1932","4.74685","40.46","0","SATNPRO1509","28.324","0.39672","5"],
    [9457,"HCEP03730566","2024-01-04 20:30:00","11.1619","3.43321","26.007","3.655","7.53","0.309","4.011","0.02","0.19","30.1944","4.747","40.28","0","SATNPRO1509","28.276","0.39608","5"],
    [9458,"HCEP03730566","2024-01-04 20:45:00","11.1635","3.43328","26.094","3.627","7.53","0.326","5.188","0.01","0.23","30.1938","4.74689","39.97","0","SATNPRO1509","28.258","0.39576","5"],
    [9459,"HCEP03730566","2024-01-04 21:00:00","11.1638","3.43291","26.187","3.605","7.53","0.306","4.714","0.01","0.27","30.1899","4.74634","39.73","0","SATNPRO1509","28.204","0.39506","5"],
    [9460,"HCEP03730566","2024-01-04 21:15:00","11.164","3.43257","26.242","3.592","7.53","0.333","4.784","0.01","0.32","30.1864","4.74584","39.58","0","SATNPRO1509","28.164","0.39446","5"],
    [9461,"HCEP03730566","2024-01-04 21:30:00","11.1648","3.43243","26.316","3.579","7.53","0.311","4.823","0.01","0.26","30.1842","4.74553","39.44","0","SATNPRO1509","28.23","0.39536","5"],
    [9462,"HCEP03730566","2024-01-04 21:45:00","11.1664","3.43229","26.394","3.554","7.53","0.324","4.498","0.01","0.3","30.1816","4.74514","39.17","0","SATNPRO1509","28.154","0.39432","5"],
    [9463,"HCEP03730566","2024-01-04 22:00:00","11.1665","3.43196","26.455","3.537","7.53","0.331","5.559","0.02","0.78","30.1782","4.74466","38.98","0","SATNPRO1509","28.206","0.39506","5"],
    [9464,"HCEP03730566","2024-01-04 22:15:00","11.1642","3.43141","26.557","3.542","7.52","0.324","4.391","0.01","0.35","30.1748","4.74421","39.03","0","SATNPRO1509","28.462","0.39868","5"],
    [9465,"HCEP03730566","2024-01-04 22:30:00","11.1621","3.43083","26.637","3.553","7.52","0.346","5.078","0.01","0.22","30.1708","4.74368","39.14","0","SATNPRO1509","28.29","0.39626","5"],
    [9466,"HCEP03730566","2024-01-04 22:45:00","11.1605","3.43037","26.716","3.562","7.52","0.336","4.189","0.04","0.29","30.1676","4.74326","39.25","0","SATNPRO1509","28.398","0.39776","5"],
    [9467,"HCEP03730566","2024-01-04 23:00:00","11.1598","3.43023","26.782","3.565","7.53","0.312","4.342","0.01","0.24","30.1667","4.74315","39.27","0","SATNPRO1509","28.27","0.39596","5"],
    [9468,"HCEP03730566","2024-01-04 23:15:00","11.1616","3.43078","26.842","3.543","7.52","0.336","4.917","0.01","0.27","30.1706","4.74368","39.04","0","SATNPRO1509","28.162","0.39444","5"],
    [9469,"HCEP03730566","2024-01-04 23:30:00","11.162","3.4309","26.906","3.533","7.52","0.316","4.635","0.01","0.23","30.1714","4.74378","38.93","0","SATNPRO1509","28.208000000000002","0.39506","5"],
    [9470,"HCEP03730566","2024-01-04 23:45:00","11.1623","3.43033","26.933","3.527","7.52","0.333","4.285","0.01","0.27","30.1656","4.74296","38.86","0","SATNPRO1509","28.28","0.39612","5"],
    [9471,"HCEP03730566","2024-01-05 00:00:00","11.1638","3.4306","26.949","3.516","7.52","0.312","4.322","0.01","0.19","30.167","4.74314","38.74","0","SATNPRO1509","28.246000000000002","0.39564","5"],
    [9472,"HCEP03730566","2024-01-05 00:15:00","11.1651","3.43078","26.943","3.494","7.52","0.329","4.245","0.01","0.18","30.1677","4.74321","38.5","0","SATNPRO1509","28.228","0.39538","5"],
    [9473,"HCEP03730566","2024-01-05 00:30:00","11.1662","3.43108","26.944","3.475","7.52","0.317","4.681","0.02","0.17","30.1697","4.74349","38.29","0","SATNPRO1509","28.17","0.39454","5"],
    [9474,"HCEP03730566","2024-01-05 00:45:00","11.1679","3.43113","26.947","3.458","7.52","0.333","5.248","0.01","0.2","30.1689","4.74334","38.11","0","SATNPRO1509","28.012","0.39234","5"],
    [9475,"HCEP03730566","2024-01-05 01:00:00","11.1674","3.43107","26.966","3.443","7.52","0.321","5.275","0.02","0.25","30.1686","4.74332","37.95","0","SATNPRO1509","28.114","0.39378","5"],
    [9476,"HCEP03730566","2024-01-05 01:15:00","11.1688","3.43164","26.936","3.426","7.52","0.343","5.207","0.01","0.33","30.173","4.74392","37.76","0","SATNPRO1509","27.982","0.39188","5"],
    [9477,"HCEP03730566","2024-01-05 01:30:00","11.1697","3.43185","26.925","3.386","7.51","0.332","5.528","0.01","0.19","30.1744","4.74409","37.32","0","SATNPRO1509","27.908","0.39088","5"],
    [9478,"HCEP03730566","2024-01-05 01:45:00","11.1692","3.43169","26.913","3.372","7.51","0.348","5.342","0.01","0.28","30.1732","4.74394","37.16","0","SATNPRO1509","27.884","0.39056","5"],
    [9479,"HCEP03730566","2024-01-05 02:00:00","11.1688","3.4313","26.953","3.39","7.51","0.322","4.933","0.01","0.18","30.1697","4.74345","37.36","0","SATNPRO1509","28.208","0.39508","5"],
    [9480,"HCEP03730566","2024-01-05 02:15:00","11.1695","3.4315","26.901","3.372","7.51","0.335","4.928","0.01","0.21","30.1712","4.74364","37.16","0","SATNPRO1509","27.716","0.3882","5"],
    [9481,"HCEP03730566","2024-01-05 02:30:00","11.1705","3.43193","26.855","3.347","7.51","0.328","5.094","0.01","0.25","30.1745","4.74409","36.88","0","SATNPRO1509","27.714","0.38818","5"],
    [9482,"HCEP03730566","2024-01-05 02:45:00","11.1718","3.43219","26.841","3.34","7.51","0.357","5.547","0.01","0.28","30.176","4.74429","36.81","0","SATNPRO1509","27.694","0.38792","5"],
    [9483,"HCEP03730566","2024-01-05 03:00:00","11.1721","3.43227","26.814","3.35","7.51","0.321","5.207","0.01","0.19","30.1765","4.74436","36.92","0","SATNPRO1509","27.75","0.3887","5"],
    [9484,"HCEP03730566","2024-01-05 03:15:00","11.1732","3.43335","26.774","3.346","7.51","0.385","6.235","0.02","0.29","30.1862","4.74571","36.88","0","SATNPRO1509","27.6","0.38662","5"],
    [9485,"HCEP03730566","2024-01-05 03:30:00","11.1729","3.43338","26.715","3.367","7.51","0.32","5.493","0.01","0.28","30.1867","4.74579","37.11","0","SATNPRO1509","27.668","0.38752","5"],
    [9486,"HCEP03730566","2024-01-05 03:45:00","11.173400000000001","3.43378","26.661","3.372","7.51","0.359","5.669","0.03","0.3","30.1903","4.74628","37.17","0","SATNPRO1509","27.636","0.3871","5"],
    [9487,"HCEP03730566","2024-01-05 04:00:00","11.1722","3.43348","26.627","3.406","7.51","0.314","4.795","0.01","0.24","30.1883","4.74601","37.54","0","SATNPRO1509","28.128","0.39398","5"],
    [9488,"HCEP03730566","2024-01-05 04:15:00","11.1699","3.43292","26.617","3.437","7.51","0.325","4.538","0.01","0.15","30.1848","4.74555","37.88","0","SATNPRO1509","28.2","0.395","5"],
    [9489,"HCEP03730566","2024-01-05 04:30:00","11.171","3.43315","26.583","3.426","7.51","0.316","5.396","0.01","0.27","30.1861","4.74572","37.76","0","SATNPRO1509","27.926000000000002","0.39112","5"],
    [9490,"HCEP03730566","2024-01-05 04:45:00","11.1722","3.43411","26.53","3.398","7.51","0.334","5.285","0.01","0.42","30.1946","4.7469","37.45","0","SATNPRO1509","27.738","0.38854","5"],
    [9491,"HCEP03730566","2024-01-05 05:00:00","11.1725","3.43432","26.587","3.378","7.51","0.31","5.021","0.01","0.25","30.1963","4.74714","37.23","0","SATNPRO1509","27.78","0.38912","5"],
    [9492,"HCEP03730566","2024-01-05 05:15:00","11.1703","3.43398","26.527","3.403","7.51","0.322","4.406","0.02","0.22","30.1948","4.74696","37.51","0","SATNPRO1509","27.94","0.39134","5"],
    [9493,"HCEP03730566","2024-01-05 05:30:00","11.1688","3.43382","26.596","3.427","7.51","0.308","4.825","0.01","0.23","30.1945","4.74694","37.77","0","SATNPRO1509","28.067999999999998","0.39314","5"],
    [9494,"HCEP03730566","2024-01-05 05:45:00","11.168","3.43371","26.683","3.443","7.51","0.322","4.818","0.01","0.22","30.194","4.74689","37.95","0","SATNPRO1509","28.052","0.3929","5"],
    [9495,"HCEP03730566","2024-01-05 06:00:00","11.1693","3.434","26.687","3.435","7.51","0.307","4.689","0.01","0.16","30.1957","4.74712","37.86","0","SATNPRO1509","28.146","0.3942","5"],
    [9496,"HCEP03730566","2024-01-05 06:15:00","11.1715","3.43488","26.762","3.418","7.51","0.323","4.692","0.01","0.18","30.2025","4.74805","37.68","0","SATNPRO1509","28.086","0.39342","5"],
    [9497,"HCEP03730566","2024-01-05 06:30:00","11.1738","3.43579","26.826","3.407","7.51","0.31","4.757","0.01","0.18","30.2095","4.749","37.56","0","SATNPRO1509","28.102","0.39362","5"],
    [9498,"HCEP03730566","2024-01-05 06:45:00","11.1756","3.43661","26.899","3.432","7.51","0.325","4.753","0.01","0.22","30.2159","4.7499","37.83","0","SATNPRO1509","28.06","0.39302","5"],
    [9499,"HCEP03730566","2024-01-05 07:00:00","11.1795","3.43785","26.996","3.47","7.51","0.305","4.484","0.01","0.14","30.2248","4.7511","38.26","0","SATNPRO1509","28.114","0.39378","5"],
    [9500,"HCEP03730566","2024-01-05 07:15:00","11.1783","3.43781","27.058","3.519","7.52","0.317","4.197","0.01","0.17","30.2254","4.75121","38.8","0","SATNPRO1509","28.073999999999998","0.39324","5"],
    [9501,"HCEP03730566","2024-01-05 07:30:00","11.1794","3.43818","27.099","3.569","7.52","0.3","4.033","0.01","0.19","30.2281","4.75157","39.36","0","SATNPRO1509","28.214000000000002","0.3952","5"],
    [9502,"HCEP03730566","2024-01-05 07:45:00","11.1775","3.43768","27.169","3.6","7.52","0.363","4.802","0.05","0.25","30.2248","4.75114","39.69","0","SATNPRO1509","28.204","0.39504","5"],
    [9503,"HCEP03730566","2024-01-05 08:00:00","11.1758","3.43732","27.302","3.639","7.53","0.342","4.964","0.02","0.19","30.2225","4.75085","40.13","0","SATNPRO1509","28.256","0.39578","5"],
    [9504,"HCEP03730566","2024-01-05 08:15:00","11.1757","3.43741","27.379","3.687","7.53","0.374","5.174","0.06","0.19","30.2235","4.751","40.65","0","SATNPRO1509","28.323999999999998","0.3967","5"],
    [9505,"HCEP03730566","2024-01-05 08:30:00","11.176","3.43773","27.418","3.731","7.53","0.357","5.162","0.05","0.35","30.2264","4.75141","41.14","0","SATNPRO1509","28.494","0.3991","5"],
    [9506,"HCEP03730566","2024-01-05 08:45:00","11.1725","3.43716","27.5","3.765","7.54","0.317","4.373","0.01","0.19","30.2236","4.75107","41.51","0","SATNPRO1509","28.468","0.39874","5"],
    [9507,"HCEP03730566","2024-01-05 09:00:00","11.1694","3.4366","27.579","3.798","7.54","0.335","4.824","0.02","0.18","30.2207","4.75071","41.86","0","SATNPRO1509","28.586","0.4004","5"],
    [9508,"HCEP03730566","2024-01-05 09:15:00","11.1664","3.43587","27.619","3.829","7.54","0.326","4.177","0.01","0.18","30.216","4.75009","42.21","0","SATNPRO1509","28.624","0.4009","5"],
    [9509,"HCEP03730566","2024-01-05 09:30:00","11.1639","3.43528","27.716","3.831","7.54","0.309","4.773","0.01","0.19","30.2122","4.74959","42.22","0","SATNPRO1509","28.644","0.40118","5"],
    [9510,"HCEP03730566","2024-01-05 09:45:00","11.1619","3.43476","27.818","3.83","7.55","0.32","4.854","0.01","0.16","30.2088","4.74914","42.22","0","SATNPRO1509","28.582","0.40036","5"],
    [9511,"HCEP03730566","2024-01-05 10:00:00","11.1617","3.43467","27.821","3.832","7.55","0.309","4.741","0.01","0.16","30.208","4.74903","42.23","0","SATNPRO1509","28.556","0.39998","5"],
    [9512,"HCEP03730566","2024-01-05 10:15:00","11.1622","3.43488","27.96","3.843","7.55","0.316","4.54","0.01","0.1","30.2097","4.74927","42.36","0","SATNPRO1509","28.524","0.39956","5"],
    [9513,"HCEP03730566","2024-01-05 10:30:00","11.164","3.43522","27.947","3.876","7.55","0.298","4.413","0.01","0.1","30.2114","4.74949","42.72","0","SATNPRO1509","28.584","0.40038","5"],
    [9514,"HCEP03730566","2024-01-05 10:45:00","11.1662","3.43577","27.935","3.925","7.55","0.314","4.423","0.01","0.15","30.2151","4.74997","43.26","0","SATNPRO1509","28.71","0.40212","5"],
    [9515,"HCEP03730566","2024-01-05 11:00:00","11.1676","3.43612","28.075","3.97","7.56","0.295","4.121","0.02","0.47","30.2173","4.75028","43.76","0","SATNPRO1509","28.849999999999998","0.40408","5"],
    [9516,"HCEP03730566","2024-01-05 11:15:00","11.1678","3.43635","28.096","3.975","7.56","0.299","4.642","0.01","0.17","30.2193","4.75056","43.82","0","SATNPRO1509","28.924","0.40508","5"],
    [9517,"HCEP03730566","2024-01-05 11:30:00","11.1683","3.43666","28.096","3.981","7.56","0.285","4.686","0.01","0.14","30.222","4.75093","43.88","0","SATNPRO1509","28.822","0.4037","5"],
    [9518,"HCEP03730566","2024-01-05 11:45:00","11.1692","3.43711","28.044","3.974","7.56","0.31","5.223","0.01","0.19","30.2257","4.75144","43.8","0","SATNPRO1509","28.846","0.40402","5"],
    [9519,"HCEP03730566","2024-01-05 12:00:00","11.1696","3.43751","27.958","3.984","7.56","0.293","3.839","0","0.11","30.2293","4.75193","43.92","0","SATNPRO1509","28.834","0.40388","5"],
    [9520,"HCEP03730566","2024-01-05 12:15:00","11.1708","3.4379","27.881","3.98","7.56","0.313","4.22","0.01","0.89","30.2321","4.75231","43.87","0","SATNPRO1509","28.804","0.40344","5"],
    [9521,"HCEP03730566","2024-01-05 12:30:00","11.1716","3.43832","27.827","3.971","7.56","0.324","4.404","0.02","0.3","30.2356","4.75279","43.78","0","SATNPRO1509","28.832","0.40386","5"],
    [9522,"HCEP03730566","2024-01-05 12:45:00","11.1735","3.43858","27.822","3.941","7.56","0.327","4.409","0.02","0.22","30.2365","4.7529","43.45","0","SATNPRO1509","28.712","0.40216","5"],
    [9523,"HCEP03730566","2024-01-05 13:00:00","11.1748","3.43901","27.749","3.922","7.56","0.3","4.741","0.01","0.29","30.2397","4.75332","43.24","0","SATNPRO1509","28.782","0.40316","5"],
    [9524,"HCEP03730566","2024-01-05 13:15:00","11.1752","3.43901","27.563","3.897","7.56","0.324","5.071","0.01","0.54","30.2394","4.75326","42.97","0","SATNPRO1509","28.66","0.4014","5"],
    [9525,"HCEP03730566","2024-01-05 13:30:00","11.1756","3.43919","27.407","3.909","7.56","0.286","4.883","0.01","0.16","30.2409","4.75346","43.1","0","SATNPRO1509","28.618","0.40088","5"],
    [9526,"HCEP03730566","2024-01-05 13:45:00","11.1762","3.43936","27.332","3.926","7.56","0.299","4.568","0.01","0.15","30.2422","4.75363","43.29","0","SATNPRO1509","28.778","0.40308","5"],
    [9527,"HCEP03730566","2024-01-05 14:00:00","11.1767","3.43949","27.298","3.916","7.56","0.267","5.018","0.01","0.21","30.243","4.75373","43.18","0","SATNPRO1509","28.81","0.4035","5"],
    [9528,"HCEP03730566","2024-01-05 14:15:00","11.1772","3.4394","27.117","3.91","7.56","0.279","4.703","0.01","0.28","30.2418","4.75355","43.12","0","SATNPRO1509","28.646","0.40124","5"],
    [9529,"HCEP03730566","2024-01-05 14:30:00","11.1774","3.43922","26.974","3.883","7.55","0.304","4.902","0.01","0.24","30.24","4.75328","42.82","0","SATNPRO1509","28.712","0.40214","5"],
    [9530,"HCEP03730566","2024-01-05 14:45:00","11.1771","3.4389","26.839","3.857","7.55","0.32","4.785","0.01","0.19","30.2371","4.75287","42.53","0","SATNPRO1509","28.664","0.40146","5"],
    [9531,"HCEP03730566","2024-01-05 15:00:00","11.1768","3.43868","26.717","3.835","7.55","0.309","4.884","0.01","0.21","30.2352","4.7526","42.29","0","SATNPRO1509","28.728","0.40236","5"],
    [9532,"HCEP03730566","2024-01-05 15:15:00","11.177","3.43852","26.532","3.8","7.55","0.324","4.911","0.01","0.21","30.2336","4.75236","41.9","0","SATNPRO1509","28.54","0.3997","5"],
    [9533,"HCEP03730566","2024-01-05 15:30:00","11.1776","3.43848","26.273","3.77","7.55","0.308","5.258","0.01","0.24","30.2328","4.75222","41.57","0","SATNPRO1509","28.576","0.40026","5"],
    [9534,"HCEP03730566","2024-01-05 15:45:00","11.1777","3.43834","26.089","3.728","7.54","0.322","5.187","0.01","0.33","30.2315","4.75202","41.1","0","SATNPRO1509","28.61","0.40074","5"],
    [9535,"HCEP03730566","2024-01-05 16:00:00","11.1773","3.43802","25.868","3.693","7.54","0.324","5.584","0.01","0.2","30.2287","4.75163","40.72","0","SATNPRO1509","28.478","0.39886","5"],
    [9536,"HCEP03730566","2024-01-05 16:15:00","11.1783","3.43815","25.703","3.63","7.54","0.325","5.373","0.01","0.22","30.2293","4.75168","40.02","0","SATNPRO1509","28.356","0.39716","5"],
    [9537,"HCEP03730566","2024-01-05 16:30:00","11.1812","3.43899","25.59","3.617","7.53","0.314","5.897","0.01","0.14","30.2351","4.75245","39.89","0","SATNPRO1509","28.428","0.39818","5"],
    [9538,"HCEP03730566","2024-01-05 16:45:00","11.1838","3.43984","25.534","3.636","7.53","0.324","5.2","0.01","0.32","30.2413","4.75328","40.1","0","SATNPRO1509","28.466","0.3987","5"],
    [9539,"HCEP03730566","2024-01-05 17:00:00","11.1835","3.43983","25.43","3.665","7.53","0.305","4.67","0.01","0.14","30.2414","4.75331","40.42","0","SATNPRO1509","28.688","0.4018","5"],
    [9540,"HCEP03730566","2024-01-05 17:15:00","11.1834","3.4396","25.383","3.645","7.53","0.386","4.683","0.16","0.43","30.2393","4.75301","40.19","0","SATNPRO1509","28.596","0.40052","5"],
    [9541,"HCEP03730566","2024-01-05 17:30:00","11.184","3.43945","25.29","3.624","7.53","0.312","5.075","0.01","0.23","30.2375","4.75273","39.96","0","SATNPRO1509","28.616","0.40082","5"],
    [9542,"HCEP03730566","2024-01-05 17:45:00","11.184","3.43901","25.305","3.577","7.53","0.326","5.17","0.01","0.18","30.2331","4.75211","39.45","0","SATNPRO1509","28.538","0.39974","5"],
    [9543,"HCEP03730566","2024-01-05 18:00:00","11.1816","3.43776","25.259","3.528","7.53","0.316","5.276","0.01","0.2","30.2229","4.75071","38.9","0","SATNPRO1509","28.502","0.39922","5"],
    [9544,"HCEP03730566","2024-01-05 18:15:00","11.1805","3.43717","25.25","3.497","7.52","0.33","5.586","0","0.28","30.2181","4.75003","38.56","0","SATNPRO1509","28.52","0.39948","5"],
    [9545,"HCEP03730566","2024-01-05 18:30:00","11.1781","3.43634","25.224","3.472","7.52","0.313","5.456","0.01","0.21","30.2119","4.74919","38.27","0","SATNPRO1509","28.624","0.40086","5"],
    [9546,"HCEP03730566","2024-01-05 18:45:00","11.1761","3.43524","25.308","3.452","7.52","0.334","5.357","0.03","0.2","30.2028","4.74794","38.05","0","SATNPRO1509","28.552","0.39994","5"],
    [9547,"HCEP03730566","2024-01-05 19:00:00","11.1742","3.43441","25.238","3.427","7.52","0.314","5.446","0.01","0.22","30.1963","4.74704","37.78","0","SATNPRO1509","28.612","0.40074","5"],
    [9548,"HCEP03730566","2024-01-05 19:15:00","11.1718","3.43343","25.28","3.415","7.51","0.33","5.374","0.01","0.2","30.1886","4.74599","37.64","0","SATNPRO1509","28.57","0.40014","5"],
    [9549,"HCEP03730566","2024-01-05 19:30:00","11.1699","3.43237","25.294","3.394","7.51","0.318","5.531","0.01","0.17","30.1799","4.74479","37.41","0","SATNPRO1509","28.55","0.39988","5"],
    [9550,"HCEP03730566","2024-01-05 19:45:00","11.1679","3.43158","25.33","3.381","7.51","0.331","5.389","0","0.18","30.1738","4.74395","37.26","0","SATNPRO1509","28.584","0.40038","5"],
    [9551,"HCEP03730566","2024-01-05 20:00:00","11.166","3.43036","25.473","3.365","7.51","0.278","7.733","0.01","2.16","30.1634","4.74251","37.08","0","SATNPRO1509","28.516000000000002","0.39942","5"],
    [9552,"HCEP03730566","2024-01-05 20:15:00","11.1625","3.42899","25.431","3.366","7.51","0.317","12.506","0.02","2.94","30.153","4.74109","37.08","0","SATNPRO1509","28.624","0.40094","5"],
    [9553,"HCEP03730566","2024-01-05 20:30:00","11.1596","3.42764","25.548","3.38","7.51","0.343","7.95","0.04","2.49","30.1421","4.7396","37.24","0","SATNPRO1509","28.636","0.4011","5"],
    [9554,"HCEP03730566","2024-01-05 20:45:00","11.1561","3.4257","25.632","3.395","7.51","0.348","12.697","0.03","3.11","30.126","4.73737","37.39","0","SATNPRO1509","28.646","0.40126","5"],
    [9555,"HCEP03730566","2024-01-05 21:00:00","11.1557","3.42413","25.633","3.364","7.51","0.346","10.082","0.03","3.22","30.1111","4.73526","37.04","0","SATNPRO1509","28.701999999999998","0.40198","5"],
    [9556,"HCEP03730566","2024-01-05 21:15:00","11.1581","3.42351","25.736","3.281","7.5","0.384","9.788","0.04","3.46","30.103","4.73408","36.13","0","SATNPRO1509","28.486","0.39898","5"],
    [9557,"HCEP03730566","2024-01-05 21:30:00","11.1596","3.42337","25.853","3.238","7.5","0.34","7.823","0.02","1.37","30.1003","4.73369","35.66","0","SATNPRO1509","28.474","0.39884","5"],
    [9558,"HCEP03730566","2024-01-05 21:45:00","11.1595","3.42297","25.92","3.215","7.5","0.363","9.18","0.02","2.62","30.0965","4.73316","35.41","0","SATNPRO1509","28.368000000000002","0.39732","5"],
    [9559,"HCEP03730566","2024-01-05 22:00:00","11.1616","3.42307","26.082","3.137","7.49","0.359","7.611","0.03","1.28","30.0957","4.73302","34.55","0","SATNPRO1509","28.146","0.39422","5"],
    [9560,"HCEP03730566","2024-01-05 22:15:00","11.1606","3.42209","26.086","3.106","7.49","0.365","7.786","0.03","2.43","30.087","4.73179","34.2","0","SATNPRO1509","28.142","0.39422","5"],
    [9561,"HCEP03730566","2024-01-05 22:30:00","11.1618","3.42184","26.229","3.066","7.49","0.337","7.527","0.01","0.43","30.0835","4.73129","33.77","0","SATNPRO1509","27.988","0.39198","5"],
    [9562,"HCEP03730566","2024-01-05 22:45:00","11.162","3.42164","26.353","3.033","7.49","0.366","7.637","0.03","0.5","30.0813","4.73098","33.39","0","SATNPRO1509","27.934","0.39124","5"],
    [9563,"HCEP03730566","2024-01-05 23:00:00","11.1608","3.4211","26.467","3.024","7.48","0.342","8.097","0.01","0.27","30.0771","4.7304","33.3","0","SATNPRO1509","27.904","0.39086","5"],
    [9564,"HCEP03730566","2024-01-05 23:15:00","11.159","3.42066","26.55","3.027","7.48","0.363","8.8","0.01","0.64","30.0742","4.73002","33.33","0","SATNPRO1509","27.764","0.3889","5"],
    [9565,"HCEP03730566","2024-01-05 23:30:00","11.1572","3.41999","26.704","3.03","7.48","0.337","8.743","0.01","0.54","30.0691","4.72934","33.36","0","SATNPRO1509","27.896","0.3907","5"],
    [9566,"HCEP03730566","2024-01-05 23:45:00","11.1554","3.41952","26.75","3.037","7.48","0.364","10.242","0.01","0.49","30.0659","4.72893","33.44","0","SATNPRO1509","27.872","0.39038","5"],
    [9567,"HCEP03730566","2024-01-06 00:00:00","11.1525","3.41843","26.899","3.052","7.48","0.338","10.239","0.01","0.64","30.0576","4.7278","33.6","0","SATNPRO1509","27.88","0.39056","5"],
    [9568,"HCEP03730566","2024-01-06 00:15:00","11.1507","3.41803","26.964","3.068","7.48","0.339","9.021","0.01","0.7","30.0551","4.72747","33.77","0","SATNPRO1509","27.974","0.39182","5"],
    [9569,"HCEP03730566","2024-01-06 00:30:00","11.1487","3.41728","27.185","3.078","7.48","0.34","10.339","0.01","0.44","30.0493","4.72669","33.88","0","SATNPRO1509","27.936","0.39128","5"],
    [9570,"HCEP03730566","2024-01-06 00:45:00","11.1459","3.41614","27.302","3.091","7.48","0.359","9.191","0.01","0.41","30.0405","4.72549","34.01","0","SATNPRO1509","28.12","0.39386","5"],
    [9571,"HCEP03730566","2024-01-06 01:00:00","11.1431","3.41512","27.443","3.095","7.48","0.371","10.16","0.02","0.62","30.0328","4.72444","34.06","0","SATNPRO1509","28.032","0.39264","5"],
    [9572,"HCEP03730566","2024-01-06 01:15:00","11.1406","3.41359","27.363","3.1","7.48","0.368","8.395","0.01","0.34","30.0199","4.72265","34.11","0","SATNPRO1509","28.048000000000002","0.39286","5"],
    [9573,"HCEP03730566","2024-01-06 01:30:00","11.1386","3.41326","27.339","3.1","7.48","0.348","18.146","0.02","19.82","30.0184","4.72247","34.11","0","SATNPRO1509","28.028","0.39254","5"],
    [9574,"HCEP03730566","2024-01-06 01:45:00","11.1367","3.41227","27.389","3.101","7.48","0.373","7.267","0.01","0.28","30.0102","4.72134","34.12","0","SATNPRO1509","28.06","0.39304","5"],
    [9575,"HCEP03730566","2024-01-06 02:00:00","11.1305","3.41012","27.371","3.102","7.48","0.36","6.892","0.01","0.22","29.9944","4.71918","34.12","0","SATNPRO1509","28.038","0.39268","5"],
    [9576,"HCEP03730566","2024-01-06 02:15:00","11.111","3.40039","27.303","3.105","7.48","0.378","7.34","0.01","0.26","29.9153","4.70825","34.12","0","SATNPRO1509","27.922","0.39108","5"],
    [9577,"HCEP03730566","2024-01-06 02:30:00","11.0851","3.39611","27.125","3.327","7.49","0.329","7.669","0.03","0.65","29.8947","4.70569","36.53","0","SATNPRO1509","28.018","0.39244","5"],
    [9578,"HCEP03730566","2024-01-06 02:45:00","11.0363","3.38295","27.189","3.6","7.5","0.338","6.432","0.01","0.42","29.8057","4.69381","39.46","0","SATNPRO1509","28.236","0.39548","5"],
    [9579,"HCEP03730566","2024-01-06 03:00:00","11.0282","3.3821","27.122","3.71","7.52","0.327","6.106","0.01","0.22","29.8041","4.69369","40.67","0","SATNPRO1509","28.254","0.39574","5"],
    [9580,"HCEP03730566","2024-01-06 03:15:00","11.0531","3.39306","27.113","3.757","7.52","0.339","7.042","0.01","0.51","29.8909","4.70564","41.22","0","SATNPRO1509","28.364","0.3973","5"],
    [9581,"HCEP03730566","2024-01-06 03:30:00","11.0652","3.39804","27.113","3.783","7.53","0.316","6.581","0.01","0.4","29.9297","4.71097","41.53","0","SATNPRO1509","28.586","0.40042","5"],
    [9582,"HCEP03730566","2024-01-06 03:45:00","11.0699","3.39951","27.09","3.789","7.53","0.31","7.397","0.01","5.15","29.9403","4.7124","41.6","0","SATNPRO1509","28.636","0.40106","5"],
    [9583,"HCEP03730566","2024-01-06 04:00:00","11.0754","3.40026","27.129","3.78","7.53","0.292","7.75","0.01","4.84","29.943","4.7127","41.51","0","SATNPRO1509","28.674","0.40164","5"],
    [9584,"HCEP03730566","2024-01-06 04:15:00","11.0732","3.39893","27.096","3.784","7.53","0.324","4.727","0.01","0.36","29.9319","4.71117","41.55","0","SATNPRO1509","28.79","0.40328","5"],
    [9585,"HCEP03730566","2024-01-06 04:30:00","11.0784","3.3994","27.028","3.778","7.53","0.307","6.451","0.02","1.77","29.9323","4.71113","41.49","0","SATNPRO1509","28.756","0.40278","5"],
    [9586,"HCEP03730566","2024-01-06 04:45:00","11.0927","3.40397","26.965","3.762","7.53","0.305","8.186","0.01","8.71","29.9652","4.71558","41.33","0","SATNPRO1509","28.812","0.40356","5"],
    [9587,"HCEP03730566","2024-01-06 05:00:00","11.1027","3.40676","26.955","3.761","7.53","0.271","5.756","0.01","0.64","29.9843","4.71815","41.34","0","SATNPRO1509","28.926000000000002","0.40518","5"],
    [9588,"HCEP03730566","2024-01-06 05:15:00","11.1107","3.40922","26.904","3.756","7.53","0.284","6.919","0.01","4.37","30.0018","4.72051","41.29","0","SATNPRO1509","29","0.4062","5"],
    [9589,"HCEP03730566","2024-01-06 05:30:00","11.1167","3.41101","26.889","3.75","7.53","1.89","60.551","0.32","8.8","30.0144","4.72221","41.23","0","SATNPRO1509","29.169999999999998","0.40856","5"],
    [9590,"HCEP03730566","2024-01-06 05:45:00","11.122","3.41368","26.869","3.735","7.53","0.321","3.955","0.01","0.22","30.0362","4.72521","41.09","0","SATNPRO1509","29.214","0.40922","5"],
    [9591,"HCEP03730566","2024-01-06 06:00:00","11.1287","3.4166","26.882","3.693","7.53","0.307","4.159","0.01","0.22","30.0592","4.72837","40.63","0","SATNPRO1509","28.962","0.40568","5"],
    [9592,"HCEP03730566","2024-01-06 06:15:00","11.1342","3.41912","26.906","3.668","7.53","0.324","3.962","0.01","0.14","30.0793","4.73115","40.37","0","SATNPRO1509","28.974","0.40584","5"],
    [9593,"HCEP03730566","2024-01-06 06:30:00","11.1371","3.42066","26.946","3.655","7.53","0.306","4.197","0.01","0.21","30.0918","4.73288","40.23","0","SATNPRO1509","28.924","0.40512","5"],
    [9594,"HCEP03730566","2024-01-06 06:45:00","11.1393","3.42128","26.957","3.635","7.53","0.319","3.937","0.01","0.16","30.0961","4.73345","40.01","0","SATNPRO1509","28.862","0.4043","5"],
    [9595,"HCEP03730566","2024-01-06 07:00:00","11.1393","3.42168","26.976","3.627","7.53","0.308","3.944","0.01","0.17","30.1","4.73402","39.93","0","SATNPRO1509","29.028000000000002","0.40658","5"],
    [9596,"HCEP03730566","2024-01-06 07:15:00","11.1381","3.42125","27.036","3.639","7.53","0.33","3.903","0.01","0.19","30.0967","4.73357","40.05","0","SATNPRO1509","28.906","0.40488","5"],
    [9597,"HCEP03730566","2024-01-06 07:30:00","11.1357","3.41982","27.093","3.623","7.53","0.313","4.341","0.04","0.15","30.0848","4.73192","39.88","0","SATNPRO1509","28.862","0.40426","5"],
    [9598,"HCEP03730566","2024-01-06 07:45:00","11.1358","3.42018","27.223","3.641","7.53","0.325","3.991","0.01","0.15","30.0881","4.73239","40.07","0","SATNPRO1509","28.938","0.4053","5"],
    [9599,"HCEP03730566","2024-01-06 08:00:00","11.1372","3.42058","27.252","3.636","7.53","0.67","32.415","0.28","14.97","30.0909","4.73276","40.02","0","SATNPRO1509","28.912","0.40496","5"],
    [9600,"HCEP03730566","2024-01-06 08:15:00","11.1436","3.42067","27.293","3.539","7.52","0.573","26.979","0.21","10.47","30.0866","4.73206","38.96","0","SATNPRO1509","28.928","0.40522","5"],
    [9601,"HCEP03730566","2024-01-06 08:30:00","11.1404","3.42035","27.386","3.549","7.52","1.142","48.686","0.4","19.38","30.086","4.73203","39.06","0","SATNPRO1509","28.86","0.4042","5"],
    [9602,"HCEP03730566","2024-01-06 08:45:00","11.1383","3.41975","27.399","3.508","7.52","1.053","53.239","0.16","13.28","30.0819","4.73149","38.61","0","SATNPRO1509","28.866","0.40432","5"],
    [9603,"HCEP03730566","2024-01-06 09:00:00","11.147","3.41771","27.431","3.323","7.51","0.859","29.695","0.07","4.23","30.0549","4.72752","36.57","0","SATNPRO1509","28.663999999999998","0.40148","5"],
    [9604,"HCEP03730566","2024-01-06 09:15:00","11.1488","3.41591","27.522","3.205","7.5","1.351","57.381","0.19","10.76","30.0358","4.72479","35.28","0","SATNPRO1509","28.658","0.4014","5"],
    [9605,"HCEP03730566","2024-01-06 09:30:00","11.1451","3.41642","27.539","3.289","7.5","0.779","21.933","0.12","7.17","30.0438","4.72598","36.2","0","SATNPRO1509","28.708","0.40208","5"],
    [9606,"HCEP03730566","2024-01-06 09:45:00","11.1438","3.41617","27.595","3.281","7.5","0.403","7.916","0.02","2.18","30.0424","4.72581","36.1","0","SATNPRO1509","28.598","0.40056","5"],
    [9607,"HCEP03730566","2024-01-06 10:00:00","11.1449","3.41712","27.652","3.298","7.5","0.403","11.024","0.02","1.3","30.0507","4.72696","36.29","0","SATNPRO1509","28.698","0.40196","5"],
    [9608,"HCEP03730566","2024-01-06 10:15:00","11.1395","3.41889","27.648","3.464","7.51","0.481","20.812","0.03","2.19","30.0725","4.73014","38.12","0","SATNPRO1509","28.774","0.40304","5"],
    [9609,"HCEP03730566","2024-01-06 10:30:00","11.1402","3.42032","27.68","3.533","7.51","0.481","17.964","0.04","2.39","30.0858","4.73202","38.88","0","SATNPRO1509","28.734","0.40248","5"],
    [9610,"HCEP03730566","2024-01-06 10:45:00","11.1394","3.41972","27.704","3.574","7.52","0.517","19.704","0.04","0.91","30.0805","4.73129","39.34","0","SATNPRO1509","28.866","0.4043","5"],
    [9611,"HCEP03730566","2024-01-06 11:00:00","11.1383","3.41932","27.754","3.587","7.52","0.31","4.281","0.01","0.13","30.0775","4.73088","39.48","0","SATNPRO1509","28.888","0.4046","5"],
    [9612,"HCEP03730566","2024-01-06 11:15:00","11.1346","3.41964","27.832","3.668","7.53","0.324","3.835","0.01","0.16","30.0837","4.73181","40.37","0","SATNPRO1509","28.904","0.40488","5"],
    [9613,"HCEP03730566","2024-01-06 11:30:00","11.1359","3.41942","27.857","3.648","7.53","0.31","3.952","0.01","0.15","30.0805","4.73134","40.15","0","SATNPRO1509","28.994","0.40612","5"],
    [9614,"HCEP03730566","2024-01-06 11:45:00","11.1367","3.41919","27.855","3.641","7.53","0.322","3.654","0.01","0.34","30.0775","4.7309","40.07","0","SATNPRO1509","29.04","0.40678","5"],
    [9615,"HCEP03730566","2024-01-06 12:00:00","11.1406","3.41903","27.845","3.604","7.53","0.304","3.419","0.01","0.26","30.0727","4.73017","39.67","0","SATNPRO1509","29.092000000000002","0.40752","5"],
    [9616,"HCEP03730566","2024-01-06 12:15:00","11.1362","3.41891","27.844","3.589","7.52","0.324","3.347","0.01","0.14","30.0753","4.7306","39.5","0","SATNPRO1509","29.066","0.40716","5"],
    [9617,"HCEP03730566","2024-01-06 12:30:00","11.1323","3.41802","27.832","3.562","7.52","0.31","3.45","0.01","0.18","30.0697","4.72987","39.2","0","SATNPRO1509","28.992","0.40604","5"],
    [9618,"HCEP03730566","2024-01-06 12:45:00","11.1438","3.41483","27.851","3.412","7.51","0.319","2.362","0.01","0.12","30.0293","4.72396","37.54","0","SATNPRO1509","28.916","0.40502","5"],
    [9619,"HCEP03730566","2024-01-06 13:00:00","11.1465","3.41499","27.735","3.25","7.51","0.303","2.587","0.01","0.04","30.0287","4.72382","35.76","0","SATNPRO1509","28.784","0.40316","5"],
    [9620,"HCEP03730566","2024-01-06 13:15:00","11.1395","3.41347","27.669","3.274","7.5","0.315","2.403","0.01","0.05","30.0195","4.72263","36.02","0","SATNPRO1509","28.842","0.40396","5"],
    [9621,"HCEP03730566","2024-01-06 13:30:00","11.149","3.41594","27.61","3.366","7.5","0.301","2.345","0.01","0.24","30.036","4.72482","37.05","0","SATNPRO1509","28.992","0.40606","5"],
    [9622,"HCEP03730566","2024-01-06 13:45:00","11.1517","3.41779","27.52","3.371","7.5","0.318","3.439","0.01","0.14","30.0518","4.72701","37.11","0","SATNPRO1509","29.044","0.40684","5"],
    [9623,"HCEP03730566","2024-01-06 14:00:00","11.1419","3.42289","27.423","3.594","7.51","0.314","4.539","0.01","0.13","30.1096","4.73535","39.57","0","SATNPRO1509","28.858","0.40418","5"],
    [9624,"HCEP03730566","2024-01-06 14:15:00","11.1412","3.4233","27.327","3.646","7.52","0.333","4.519","0.01","0.3","30.1141","4.73601","40.14","0","SATNPRO1509","28.914","0.405","5"],
    [9625,"HCEP03730566","2024-01-06 14:30:00","11.1422","3.42308","27.189","3.619","7.52","0.313","4.095","0.01","0.11","30.1113","4.73558","39.84","0","SATNPRO1509","28.968","0.40574","5"],
    [9626,"HCEP03730566","2024-01-06 14:45:00","11.1461","3.42265","27.014","3.519","7.52","0.321","3.478","0.01","0.08","30.104","4.73447","38.74","0","SATNPRO1509","29.054","0.40694","5"],
    [9627,"HCEP03730566","2024-01-06 15:00:00","11.1508","3.42226","26.87","3.459","7.52","0.302","2.901","0.01","0.08","30.0963","4.73331","38.09","0","SATNPRO1509","29.138","0.40814","5"],
    [9628,"HCEP03730566","2024-01-06 15:15:00","11.1475","3.4226","26.721","3.581","7.52","0.31","2.456","0.01","0.08","30.1024","4.73421","39.43","0","SATNPRO1509","29.178","0.4087","5"],
    [9629,"HCEP03730566","2024-01-06 15:30:00","11.1443","3.42324","26.562","3.629","7.52","0.307","3.168","0.01","0.07","30.1113","4.73552","39.95","0","SATNPRO1509","29.084","0.4074","5"],
    [9630,"HCEP03730566","2024-01-06 15:45:00","11.1439","3.42318","26.39","3.597","7.52","0.331","3.999","0.01","0.14","30.1112","4.73549","39.61","0","SATNPRO1509","28.812","0.40358","5"],
    [9631,"HCEP03730566","2024-01-06 16:00:00","11.1443","3.42333","26.222","3.611","7.52","0.321","4.081","0.02","0.21","30.1123","4.73564","39.75","0","SATNPRO1509","28.868","0.40436","5"],
    [9632,"HCEP03730566","2024-01-06 16:15:00","11.1451","3.42352","26.039","3.634","7.53","0.332","3.575","0.01","0.16","30.1136","4.7358","40.01","0","SATNPRO1509","28.95","0.4055","5"],
    [9633,"HCEP03730566","2024-01-06 16:30:00","11.1453","3.42363","25.855","3.609","7.53","0.332","4.435","0.01","0.2","30.1146","4.73593","39.74","0","SATNPRO1509","28.826","0.40376","5"],
    [9634,"HCEP03730566","2024-01-06 16:45:00","11.1469","3.4241","25.652","3.591","7.53","0.342","4.395","0.02","0.24","30.1179","4.73637","39.54","0","SATNPRO1509","28.898","0.4048","5"],
    [9635,"HCEP03730566","2024-01-06 17:00:00","11.1476","3.42443","25.495","3.588","7.53","0.32","4.111","0.01","0.32","30.1206","4.73672","39.51","0","SATNPRO1509","28.854","0.40414","5"],
    [9636,"HCEP03730566","2024-01-06 17:15:00","11.1479","3.42452","25.352","3.57","7.53","0.328","4.252","0.01","0.28","30.1213","4.73681","39.31","0","SATNPRO1509","28.866","0.40432","5"],
    [9637,"HCEP03730566","2024-01-06 17:30:00","11.1497","3.42503","25.188","3.56","7.52","0.328","4.472","0.01","0.33","30.125","4.7373","39.2","0","SATNPRO1509","28.948","0.40546","5"],
    [9638,"HCEP03730566","2024-01-06 17:45:00","11.1512","3.42548","25.066","3.546","7.52","0.328","4.052","0.01","0.41","30.1282","4.73772","39.05","0","SATNPRO1509","28.958","0.40562","5"],
    [9639,"HCEP03730566","2024-01-06 18:00:00","11.1521","3.42554","24.987","3.534","7.52","0.32","4.152","0.01","0.24","30.1281","4.73769","38.92","0","SATNPRO1509","28.922","0.40508","5"],
    [9640,"HCEP03730566","2024-01-06 18:15:00","11.1519","3.4254","24.915","3.523","7.52","0.328","4.329","0.01","0.29","30.1268","4.73751","38.79","0","SATNPRO1509","28.952","0.40552","5"],
    [9641,"HCEP03730566","2024-01-06 18:30:00","11.1526","3.4253","24.851","3.483","7.52","0.324","4.602","0.02","0.3","30.1253","4.73728","38.36","0","SATNPRO1509","28.832","0.4039","5"],
    [9642,"HCEP03730566","2024-01-06 18:45:00","11.1531","3.4249","24.826","3.457","7.52","0.335","4.163","0.01","0.21","30.121","4.73666","38.07","0","SATNPRO1509","28.754","0.40274","5"],
    [9643,"HCEP03730566","2024-01-06 19:00:00","11.1515","3.42362","24.834","3.452","7.52","0.318","4.078","0.02","0.19","30.1098","4.7351","38.01","0","SATNPRO1509","28.766","0.4029","5"],
    [9644,"HCEP03730566","2024-01-06 19:15:00","11.1524","3.42402","24.825","3.423","7.52","0.595","9.393","0.35","7.43","30.113","4.73553","37.7","0","SATNPRO1509","28.728","0.40238","5"],
    [9645,"HCEP03730566","2024-01-06 19:30:00","11.1532","3.42448","24.86","3.425","7.51","0.326","5.145","0.02","0.26","30.1168","4.73607","37.71","0","SATNPRO1509","28.794","0.40328","5"],
    [9646,"HCEP03730566","2024-01-06 19:45:00","11.1542","3.42491","24.919","3.414","7.51","0.345","5.087","0.01","0.53","30.1202","4.73654","37.6","0","SATNPRO1509","28.664","0.4015","5"],
    [9647,"HCEP03730566","2024-01-06 20:00:00","11.1559","3.42522","24.846","3.401","7.51","0.33","5.047","0.01","0.21","30.1219","4.73674","37.45","0","SATNPRO1509","28.71","0.40212","5"],
    [9648,"HCEP03730566","2024-01-06 20:15:00","11.1526","3.42352","24.841","3.406","7.51","0.336","4.355","0.01","0.18","30.108","4.73482","37.5","0","SATNPRO1509","28.808","0.40352","5"],
    [9649,"HCEP03730566","2024-01-06 20:30:00","11.1524","3.42338","24.985","3.411","7.51","0.317","5.25","0.01","0.58","30.1067","4.73465","37.56","0","SATNPRO1509","28.82","0.40366","5"],
    [9650,"HCEP03730566","2024-01-06 20:45:00","11.1533","3.42339","25.089","3.417","7.51","0.344","5.648","0.01","0.82","30.106","4.73454","37.63","0","SATNPRO1509","28.882","0.40458","5"],
    [9651,"HCEP03730566","2024-01-06 21:00:00","11.1566","3.4243","25.134","3.402","7.51","0.339","5.933","0.02","0.3","30.1122","4.73538","37.47","0","SATNPRO1509","28.838","0.40388","5"],
    [9652,"HCEP03730566","2024-01-06 21:15:00","11.1577","3.42437","25.187","3.4","7.51","0.361","6.711","0.01","0.59","30.112","4.73533","37.44","0","SATNPRO1509","28.902","0.40482","5"],
    [9653,"HCEP03730566","2024-01-06 21:30:00","11.1544","3.42339","25.229","3.4","7.51","0.351","7.052","0.02","0.39","30.105","4.73439","37.45","0","SATNPRO1509","28.844","0.40402","5"],
    [9654,"HCEP03730566","2024-01-06 21:45:00","11.1517","3.42214","25.29","3.395","7.51","0.369","8.051","0.01","0.36","30.095","4.73302","37.38","0","SATNPRO1509","28.746","0.40264","5"],
    [9655,"HCEP03730566","2024-01-06 22:00:00","11.1496","3.42086","25.439","3.357","7.51","0.369","8.286","0.02","0.36","30.0842","4.73153","36.96","0","SATNPRO1509","28.78","0.40308","5"],
    [9656,"HCEP03730566","2024-01-06 22:15:00","11.1459","3.41887","25.611","3.338","7.51","0.359","6.712","0.01","0.29","30.0678","4.72926","36.75","0","SATNPRO1509","28.694","0.40192","5"],
    [9657,"HCEP03730566","2024-01-06 22:30:00","11.1413","3.41625","25.831","3.328","7.5","0.354","6.64","0.02","0.43","30.0459","4.72624","36.62","0","SATNPRO1509","28.762","0.40284","5"],
    [9658,"HCEP03730566","2024-01-06 22:45:00","11.1369","3.41425","26.008","3.32","7.5","0.358","5.969","0.01","0.29","30.0299","4.72404","36.52","0","SATNPRO1509","28.56","0.40004","5"],
    [9659,"HCEP03730566","2024-01-06 23:00:00","11.1349","3.4135","26.18","3.298","7.5","0.346","6.041","0.01","0.24","30.0242","4.72327","36.28","0","SATNPRO1509","28.592","0.40046","5"],
    [9660,"HCEP03730566","2024-01-06 23:15:00","11.1377","3.41429","26.316","3.287","7.5","0.355","5.814","0.01","0.23","30.0295","4.724","36.17","0","SATNPRO1509","28.722","0.4023","5"],
    [9661,"HCEP03730566","2024-01-06 23:30:00","11.1409","3.41549","26.451","3.25","7.5","0.346","6.062","0.01","0.21","30.0386","4.72524","35.76","0","SATNPRO1509","28.614","0.40078","5"],
    [9662,"HCEP03730566","2024-01-06 23:45:00","11.1402","3.41491","26.616","3.203","7.5","0.362","5.884","0.01","0.3","30.0334","4.72453","35.25","0","SATNPRO1509","28.55","0.39988","5"],
    [9663,"HCEP03730566","2024-01-07 00:00:00","11.1392","3.41428","26.785","3.172","7.49","0.354","6.107","0.02","0.35","30.028","4.72379","34.9","0","SATNPRO1509","28.464","0.3987","5"],
    [9664,"HCEP03730566","2024-01-07 00:15:00","11.1387","3.41415","26.933","3.151","7.49","0.359","5.786","0.01","0.34","30.0271","4.72368","34.67","0","SATNPRO1509","28.387999999999998","0.39764","5"],
    [9665,"HCEP03730566","2024-01-07 00:30:00","11.1384","3.41411","27.071","3.168","7.49","0.345","5.538","0.01","0.42","30.0269","4.72366","34.86","0","SATNPRO1509","28.466","0.39866","5"],
    [9666,"HCEP03730566","2024-01-07 00:45:00","11.1384","3.4141","27.17","3.187","7.49","0.354","5.084","0.01","0.22","30.0267","4.72364","35.07","0","SATNPRO1509","28.562","0.4001","5"],
    [9667,"HCEP03730566","2024-01-07 01:00:00","11.1386","3.41417","27.295","3.193","7.49","0.336","5.005","0.01","0.27","30.0273","4.72373","35.14","0","SATNPRO1509","28.49","0.399","5"],
    [9668,"HCEP03730566","2024-01-07 01:15:00","11.1385","3.41397","27.375","3.186","7.49","0.345","4.506","0.01","0.22","30.0253","4.72346","35.05","0","SATNPRO1509","28.49","0.39908","5"],
    [9669,"HCEP03730566","2024-01-07 01:30:00","11.1189","3.40919","27.465","3.281","7.49","0.35","5.32","0.02","0.42","29.9946","4.7194","36.08","0","SATNPRO1509","28.318","0.39662","5"],
    [9670,"HCEP03730566","2024-01-07 01:45:00","11.1212","3.41048","27.54","3.336","7.5","0.359","5.366","0.02","0.61","30.0054","4.72089","36.69","0","SATNPRO1509","28.432","0.39824","5"],
    [9671,"HCEP03730566","2024-01-07 02:00:00","11.086","3.40191","27.653","3.501","7.5","0.369","6.683","0.02","0.35","29.9503","4.71361","38.46","0","SATNPRO1509","28.578","0.40028","5"],
    [9672,"HCEP03730566","2024-01-07 02:15:00","11.0958","3.40466","27.764","3.524","7.51","0.381","5.973","0.01","0.25","29.9691","4.71614","38.72","0","SATNPRO1509","28.612","0.40074","5"],
    [9673,"HCEP03730566","2024-01-07 02:30:00","11.108","3.4075","27.767","3.47","7.51","0.426","7.4","0.05","0.94","29.9869","4.71848","38.15","0","SATNPRO1509","28.6","0.40058","5"],
    [9674,"HCEP03730566","2024-01-07 02:45:00","11.1268","3.41244","27.723","3.379","7.51","0.358","5.043","0.01","0.33","30.0198","4.72287","37.17","0","SATNPRO1509","28.506","0.39928","5"],
    [9675,"HCEP03730566","2024-01-07 03:00:00","11.1328","3.41458","27.733","3.349","7.5","0.336","5.432","0.01","0.32","30.0358","4.72504","36.84","0","SATNPRO1509","28.759999999999998","0.40284","5"],
    [9676,"HCEP03730566","2024-01-07 03:15:00","11.1374","3.41609","27.683","3.323","7.5","0.375","5.808","0.02","0.52","30.0468","4.72653","36.57","0","SATNPRO1509","28.47","0.39878","5"],
    [9677,"HCEP03730566","2024-01-07 03:30:00","11.1407","3.41701","27.677","3.303","7.5","0.421","6.268","0.07","1.06","30.0531","4.72737","36.35","0","SATNPRO1509","28.446","0.39844","5"],
    [9678,"HCEP03730566","2024-01-07 03:45:00","11.1417","3.41781","27.617","3.292","7.5","0.414","6.398","0.05","1.13","30.06","4.72834","36.23","0","SATNPRO1509","28.522000000000002","0.3995","5"],
    [9679,"HCEP03730566","2024-01-07 04:00:00","11.1423","3.41819","27.587","3.297","7.5","0.338","5.338","0.01","0.42","30.0633","4.7288","36.29","0","SATNPRO1509","28.506","0.39932","5"],
    [9680,"HCEP03730566","2024-01-07 04:15:00","11.1427","3.41855","27.57","3.302","7.5","0.354","5.287","0.02","0.37","30.0665","4.72924","36.34","0","SATNPRO1509","28.436","0.39826","5"],
    [9681,"HCEP03730566","2024-01-07 04:30:00","11.1431","3.41881","27.547","3.306","7.5","0.34","5.352","0.01","0.27","30.0687","4.72955","36.39","0","SATNPRO1509","28.64","0.40116","5"],
    [9682,"HCEP03730566","2024-01-07 04:45:00","11.1435","3.41913","27.546","3.317","7.5","0.342","5.327","0.01","0.22","30.0715","4.72994","36.51","0","SATNPRO1509","28.676000000000002","0.40164","5"],
    [9683,"HCEP03730566","2024-01-07 05:00:00","11.1438","3.41908","27.457","3.318","7.5","0.331","5.27","0.01","0.27","30.0709","4.72984","36.52","0","SATNPRO1509","28.762","0.40286","5"],
    [9684,"HCEP03730566","2024-01-07 05:15:00","11.1433","3.41917","27.396","3.344","7.5","0.344","4.777","0.02","0.26","30.0722","4.73002","36.8","0","SATNPRO1509","28.882","0.40454","5"],
    [9685,"HCEP03730566","2024-01-07 05:30:00","11.1442","3.41939","27.338","3.349","7.5","0.624","15.548","0.18","11.25","30.0736","4.73021","36.86","0","SATNPRO1509","29.002","0.4062","5"],
    [9686,"HCEP03730566","2024-01-07 05:45:00","11.1447","3.41962","27.255","3.348","7.5","0.354","4.904","0.01","0.31","30.0754","4.73046","36.85","0","SATNPRO1509","28.97","0.40576","5"],
    [9687,"HCEP03730566","2024-01-07 06:00:00","11.1446","3.41962","27.177","3.349","7.5","0.323","4.615","0.02","0.22","30.0755","4.73047","36.86","0","SATNPRO1509","28.954","0.40552","5"],
    [9688,"HCEP03730566","2024-01-07 06:15:00","11.1435","3.41931","27.138","3.36","7.5","0.334","4.207","0.01","0.25","30.0734","4.73019","36.99","0","SATNPRO1509","28.952","0.4055","5"],
    [9689,"HCEP03730566","2024-01-07 06:30:00","11.1429","3.41957","27.049","3.399","7.5","0.327","4.465","0.02","0.29","30.0764","4.73062","37.41","0","SATNPRO1509","28.968","0.40578","5"],
    [9690,"HCEP03730566","2024-01-07 06:45:00","11.1437","3.42048","26.966","3.463","7.51","0.34","4.789","0.01","0.23","30.0848","4.73179","38.12","0","SATNPRO1509","28.964","0.40572","5"],
    [9691,"HCEP03730566","2024-01-07 07:00:00","11.1343","3.42182","26.973","3.686","7.51","0.308","3.751","0.01","0.22","30.1055","4.73487","40.58","0","SATNPRO1509","29.256","0.40978","5"],
    [9692,"HCEP03730566","2024-01-07 07:15:00","11.134","3.42288","27.018","3.797","7.53","0.334","3.723","0.03","0.25","30.116","4.73637","41.8","0","SATNPRO1509","29.322","0.41072","5"],
    [9693,"HCEP03730566","2024-01-07 07:30:00","11.1328","3.42372","27.012","3.852","7.53","0.308","3.366","0.02","0.16","30.1252","4.73769","42.4","0","SATNPRO1509","29.468","0.4128","5"],
    [9694,"HCEP03730566","2024-01-07 07:45:00","11.1336","3.42417","27.028","3.853","7.54","0.333","3.913","0.03","0.23","30.129","4.73821","42.42","0","SATNPRO1509","29.506","0.41326","5"],
    [9695,"HCEP03730566","2024-01-07 08:00:00","11.1322","3.42503","27.064","3.889","7.54","0.322","3.84","0.03","0.28","30.1385","4.73959","42.81","0","SATNPRO1509","29.528","0.41358","5"],
    [9696,"HCEP03730566","2024-01-07 08:15:00","11.1321","3.42545","27.08","3.904","7.55","0.333","3.914","0.05","0.21","30.1426","4.74017","42.98","0","SATNPRO1509","29.524","0.41354","5"],
    [9697,"HCEP03730566","2024-01-07 08:30:00","11.1314","3.42575","27.127","3.898","7.55","0.331","4.32","0.03","0.37","30.1461","4.74068","42.91","0","SATNPRO1509","29.55","0.41386","5"],
    [9698,"HCEP03730566","2024-01-07 08:45:00","11.1316","3.42591","27.156","3.904","7.55","0.322","3.727","0.01","0.24","30.1476","4.74089","42.98","0","SATNPRO1509","29.509999999999998","0.41336","5"],
    [9699,"HCEP03730566","2024-01-07 09:00:00","11.1316","3.42589","27.194","3.896","7.55","0.308","3.797","0.01","0.18","30.1473","4.74085","42.9","0","SATNPRO1509","29.506","0.41332","5"],
    [9700,"HCEP03730566","2024-01-07 09:15:00","11.1318","3.42568","27.246","3.889","7.55","0.33","3.979","0.01","0.24","30.1451","4.74053","42.82","0","SATNPRO1509","29.592","0.41448","5"],
    [9701,"HCEP03730566","2024-01-07 09:30:00","11.1321","3.42555","27.306","3.883","7.55","0.316","4.187","0.01","0.28","30.1435","4.7403","42.75","0","SATNPRO1509","29.564","0.41408","5"],
    [9702,"HCEP03730566","2024-01-07 09:45:00","11.1326","3.42556","27.38","3.866","7.55","0.333","4.033","0.01","0.25","30.1432","4.74026","42.56","0","SATNPRO1509","29.428","0.41218","5"],
    [9703,"HCEP03730566","2024-01-07 10:00:00","11.1337","3.42649","27.432","3.836","7.55","0.317","3.913","0.01","0.21","30.1513","4.7414","42.24","0","SATNPRO1509","29.451999999999998","0.41254","5"],
    [9704,"HCEP03730566","2024-01-07 10:15:00","11.1191","3.43062","27.489","4.006","7.55","0.326","4.123","0.01","0.16","30.2036","4.74904","44.1","0","SATNPRO1509","29.445999999999998","0.41242","5"],
    [9705,"HCEP03730566","2024-01-07 10:30:00","11.1179","3.43162","27.502","4.086","7.56","0.318","4.719","0.01","0.24","30.2144","4.75058","45","0","SATNPRO1509","29.36","0.4112","5"],
    [9706,"HCEP03730566","2024-01-07 10:45:00","11.1185","3.43159","27.563","4.1","7.56","0.314","3.08","0.01","0.34","30.2135","4.75046","45.14","0","SATNPRO1509","29.51","0.41334","5"],
    [9707,"HCEP03730566","2024-01-07 11:00:00","11.1186","3.43119","27.574","4.107","7.57","0.3","2.705","0.01","0.14","30.2096","4.7499","45.22","0","SATNPRO1509","29.476","0.41288","5"],
    [9708,"HCEP03730566","2024-01-07 11:15:00","11.1181","3.43285","27.645","4.102","7.57","0.333","4.276","0.01","0.48","30.2262","4.75226","45.17","0","SATNPRO1509","29.544","0.4138","5"],
    [9709,"HCEP03730566","2024-01-07 11:30:00","11.1192","3.43342","27.715","4.103","7.57","0.311","3.739","0.01","0.26","30.2308","4.75291","45.19","0","SATNPRO1509","29.64","0.41516","5"],
    [9710,"HCEP03730566","2024-01-07 11:45:00","11.1182","3.4336","27.73","4.099","7.57","0.337","4.9","0.01","0.35","30.2334","4.75328","45.14","0","SATNPRO1509","29.408","0.41192","5"],
    [9711,"HCEP03730566","2024-01-07 12:00:00","11.1179","3.43367","27.773","4.106","7.57","0.313","3.91","0.01","0.29","30.2342","4.75341","45.22","0","SATNPRO1509","29.54","0.41376","5"],
    [9712,"HCEP03730566","2024-01-07 12:15:00","11.1176","3.43379","27.802","4.097","7.57","0.329","4.002","0.01","0.25","30.2357","4.75363","45.12","0","SATNPRO1509","29.509999999999998","0.41336","5"],
    [9713,"HCEP03730566","2024-01-07 12:30:00","11.1178","3.4338","27.802","4.107","7.57","0.312","3.769","0.02","0.29","30.2356","4.75362","45.23","0","SATNPRO1509","29.625999999999998","0.415","5"],
    [9714,"HCEP03730566","2024-01-07 12:45:00","11.1184","3.43417","27.786","4.116","7.57","0.314","3.343","0.01","0.19","30.2388","4.75405","45.33","0","SATNPRO1509","29.63","0.41504","5"],
    [9715,"HCEP03730566","2024-01-07 13:00:00","11.1177","3.4341","27.788","4.12","7.57","0.306","3.498","0.02","0.18","30.2387","4.75404","45.37","0","SATNPRO1509","29.637999999999998","0.41512","5"],
    [9716,"HCEP03730566","2024-01-07 13:15:00","11.1179","3.43411","27.746","4.11","7.57","0.329","4.031","0.01","0.21","30.2386","4.75402","45.27","0","SATNPRO1509","29.448","0.41248","5"],
    [9717,"HCEP03730566","2024-01-07 13:30:00","11.1171","3.43377","27.723","4.099","7.57","0.322","4.446","0.01","0.27","30.2359","4.75367","45.14","0","SATNPRO1509","29.33","0.41084","5"],
    [9718,"HCEP03730566","2024-01-07 13:45:00","11.1172","3.43358","27.687","4.065","7.57","0.342","4.773","0.01","0.34","30.2341","4.7534","44.77","0","SATNPRO1509","29.054","0.40694","5"],
    [9719,"HCEP03730566","2024-01-07 14:00:00","11.1174","3.43363","27.62","4.043","7.57","0.325","4.915","0.01","0.21","30.2344","4.75343","44.52","0","SATNPRO1509","28.944","0.40542","5"],
    [9720,"HCEP03730566","2024-01-07 14:15:00","11.1176","3.4337","27.529","4.041","7.57","0.33","4.646","0.01","0.27","30.2349","4.7535","44.5","0","SATNPRO1509","29.192","0.40892","5"],
    [9721,"HCEP03730566","2024-01-07 14:30:00","11.1179","3.43379","27.424","4.038","7.57","0.312","4.399","0.02","0.16","30.2356","4.75359","44.47","0","SATNPRO1509","29.152","0.40834","5"],
    [9722,"HCEP03730566","2024-01-07 14:45:00","11.1175","3.43377","27.286","4.053","7.57","0.325","3.8","0.02","0.32","30.2358","4.75361","44.63","0","SATNPRO1509","29.336","0.41088","5"],
    [9723,"HCEP03730566","2024-01-07 15:00:00","11.1177","3.43407","27.131","4.069","7.57","0.304","3.963","0.01","0.22","30.2386","4.75399","44.81","0","SATNPRO1509","29.152","0.40832","5"],
    [9724,"HCEP03730566","2024-01-07 15:15:00","11.1182","3.4345","26.976","4.085","7.57","0.315","3.791","0.01","0.21","30.2425","4.75454","44.99","0","SATNPRO1509","29.382","0.41158","5"],
    [9725,"HCEP03730566","2024-01-07 15:30:00","11.1183","3.43439","26.811","4.075","7.57","0.303","3.686","0.02","0.23","30.2414","4.75437","44.88","0","SATNPRO1509","29.262","0.40984","5"],
    [9726,"HCEP03730566","2024-01-07 15:45:00","11.1192","3.43485","26.63","4.079","7.57","0.321","3.398","0.02","0.19","30.2451","4.75487","44.93","0","SATNPRO1509","29.394000000000002","0.4117","5"],
    [9727,"HCEP03730566","2024-01-07 16:00:00","11.1208","3.4353","26.448","4.098","7.57","0.292","3.081","0.01","0.18","30.2483","4.75528","45.14","0","SATNPRO1509","29.637999999999998","0.41512","5"],
    [9728,"HCEP03730566","2024-01-07 16:15:00","11.1212","3.4352","26.262","4.092","7.57","0.314","3.32","0.01","0.24","30.2471","4.7551","45.07","0","SATNPRO1509","29.538","0.41374","5"],
    [9729,"HCEP03730566","2024-01-07 16:30:00","11.1212","3.43496","26.105","4.06","7.57","0.313","4.357","0.01","0.26","30.2448","4.75476","44.71","0","SATNPRO1509","29.382","0.41154","5"],
    [9730,"HCEP03730566","2024-01-07 16:45:00","11.1229","3.43564","25.95","4.069","7.57","0.32","3.86","0.01","0.28","30.2502","4.75549","44.82","0","SATNPRO1509","29.36","0.41124","5"],
    [9731,"HCEP03730566","2024-01-07 17:00:00","11.1239","3.43568","25.783","4.065","7.57","0.31","4.375","0.01","0.33","30.2498","4.75542","44.77","0","SATNPRO1509","29.48","0.41294","5"],
    [9732,"HCEP03730566","2024-01-07 17:15:00","11.1248","3.43605","25.58","4.056","7.57","0.321","4.762","0.02","0.39","30.2527","4.75581","44.68","0","SATNPRO1509","29.306","0.4105","5"],
    [9733,"HCEP03730566","2024-01-07 17:30:00","11.126","3.43614","25.385","4.054","7.57","0.334","5.113","0.02","0.79","30.2527","4.75577","44.66","0","SATNPRO1509","29.5","0.41324","5"],
    [9734,"HCEP03730566","2024-01-07 17:45:00","11.127","3.43663","25.201","4.048","7.57","0.446","9.552","0.18","6.89","30.2568","4.75633","44.59","0","SATNPRO1509","29.4","0.4118","5"],
    [9735,"HCEP03730566","2024-01-07 18:00:00","11.1291","3.43737","24.844","4.037","7.57","0.314","4.736","0.01","0.22","30.2624","4.75706","44.48","0","SATNPRO1509","29.576","0.41426","5"],
    [9736,"HCEP03730566","2024-01-07 18:15:00","11.131","3.43776","24.729","4.026","7.57","0.329","4.205","0.01","0.28","30.2647","4.75735","44.35","0","SATNPRO1509","29.642","0.4152","5"],
    [9737,"HCEP03730566","2024-01-07 18:30:00","11.1321","3.43798","24.603","4.018","7.57","0.315","4.642","0.02","0.32","30.2659","4.75751","44.27","0","SATNPRO1509","29.424","0.41214","5"],
    [9738,"HCEP03730566","2024-01-07 18:45:00","11.133","3.43828","24.518","3.987","7.56","0.319","4.839","0.01","0.38","30.2682","4.75781","43.93","0","SATNPRO1509","29.462","0.41268","5"],
    [9739,"HCEP03730566","2024-01-07 19:00:00","11.1351","3.43854","24.443","3.98","7.56","0.32","4.913","0.01","0.51","30.269","4.7579","43.85","0","SATNPRO1509","29.43","0.41222","5"],
    [9740,"HCEP03730566","2024-01-07 19:15:00","11.1355","3.43858","24.395","3.984","7.56","0.333","3.962","0.01","0.31","30.2691","4.7579","43.9","0","SATNPRO1509","29.436","0.41232","5"],
    [9741,"HCEP03730566","2024-01-07 19:30:00","11.1353","3.43827","24.374","3.983","7.56","0.312","4.187","0.02","0.83","30.2662","4.75749","43.89","0","SATNPRO1509","29.498","0.4132","5"],
    [9742,"HCEP03730566","2024-01-07 19:45:00","11.1355","3.43783","24.39","3.969","7.56","0.328","3.965","0.01","0.48","30.2618","4.75687","43.74","0","SATNPRO1509","29.418","0.41204","5"],
    [9743,"HCEP03730566","2024-01-07 20:00:00","11.1362","3.43795","24.417","3.945","7.56","0.327","4.577","0.03","0.52","30.2624","4.75693","43.47","0","SATNPRO1509","29.308","0.41052","5"],
    [9744,"HCEP03730566","2024-01-07 20:15:00","11.1356","3.4375","24.45","3.924","7.56","0.336","4.192","0.01","0.25","30.2584","4.75639","43.23","0","SATNPRO1509","29.348","0.41106","5"],
    [9745,"HCEP03730566","2024-01-07 20:30:00","11.1353","3.4371","24.481","3.914","7.56","0.316","4.387","0.01","0.33","30.2547","4.75587","43.13","0","SATNPRO1509","29.392","0.41168","5"],
    [9746,"HCEP03730566","2024-01-07 20:45:00","11.1337","3.4355","24.515","3.905","7.56","0.33","4.063","0.01","0.25","30.2404","4.75386","43.02","0","SATNPRO1509","29.258","0.40978","5"],
    [9747,"HCEP03730566","2024-01-07 21:00:00","11.133","3.43476","24.603","3.893","7.56","0.361","12.656","0.09","12.98","30.2338","4.75294","42.88","0","SATNPRO1509","29.25","0.4097","5"],
    [9748,"HCEP03730566","2024-01-07 21:15:00","11.1314","3.43253","24.67","3.884","7.56","0.639","12.223","0.62","6.98","30.2133","4.75007","42.78","0","SATNPRO1509","29.314","0.41064","5"],
    [9749,"HCEP03730566","2024-01-07 21:30:00","11.1326","3.43405","24.779","3.873","7.55","0.331","4.691","0.02","0.28","30.2271","4.75201","42.66","0","SATNPRO1509","29.19","0.40884","5"],
    [9750,"HCEP03730566","2024-01-07 21:45:00","11.1316","3.43286","24.892","3.861","7.55","0.336","4.448","0.01","0.2","30.2163","4.7505","42.52","0","SATNPRO1509","29.202","0.40904","5"],
    [9751,"HCEP03730566","2024-01-07 22:00:00","11.131","3.43195","25.023","3.847","7.55","0.329","4.927","0.01","0.22","30.2078","4.7493","42.37","0","SATNPRO1509","29.22","0.40928","5"],
    [9752,"HCEP03730566","2024-01-07 22:15:00","11.1286","3.42881","25.179","3.848","7.55","0.35","5.044","0.02","0.49","30.179","4.74528","42.37","0","SATNPRO1509","29.376","0.41144","5"],
    [9753,"HCEP03730566","2024-01-07 22:30:00","11.1288","3.42819","25.321","3.846","7.55","0.329","5.048","0.01","0.2","30.1728","4.7444","42.35","0","SATNPRO1509","29.35","0.41112","5"],
    [9754,"HCEP03730566","2024-01-07 22:45:00","11.1288","3.42766","25.46","3.843","7.55","0.335","4.886","0.01","0.29","30.1676","4.74367","42.32","0","SATNPRO1509","29.39","0.41166","5"],
    [9755,"HCEP03730566","2024-01-07 23:00:00","11.1288","3.42719","25.586","3.841","7.55","0.327","5.127","0.02","0.3","30.1629","4.74301","42.29","0","SATNPRO1509","29.474","0.41286","5"],
    [9756,"HCEP03730566","2024-01-07 23:15:00","11.129","3.4269","25.757","3.833","7.55","0.343","4.662","0.02","0.39","30.1599","4.74259","42.2","0","SATNPRO1509","29.514","0.41342","5"],
    [9757,"HCEP03730566","2024-01-07 23:30:00","11.1289","3.42655","25.923","3.831","7.55","0.325","4.701","0.02","0.21","30.1565","4.74212","42.18","0","SATNPRO1509","29.388","0.41164","5"],
    [9758,"HCEP03730566","2024-01-07 23:45:00","11.129","3.42646","26.098","3.821","7.55","0.345","4.972","0.01","0.31","30.1554","4.74198","42.07","0","SATNPRO1509","29.488","0.41302","5"],
    [9759,"HCEP03730566","2024-01-08 00:00:00","11.129","3.42614","26.269","3.804","7.55","0.33","5.103","0.01","0.26","30.1522","4.74153","41.88","0","SATNPRO1509","29.406","0.41196","5"],
    [9760,"HCEP03730566","2024-01-08 00:15:00","11.1288","3.42571","26.46","3.78","7.54","0.346","5.143","0.02","0.22","30.1481","4.74096","41.62","0","SATNPRO1509","29.314","0.4106","5"],
    [9761,"HCEP03730566","2024-01-08 00:30:00","11.1288","3.42531","26.6","3.765","7.54","0.334","5.087","0.01","0.22","30.1443","4.74043","41.45","0","SATNPRO1509","29.362","0.41124","5"],
    [9762,"HCEP03730566","2024-01-08 00:45:00","11.1284","3.42497","26.747","3.753","7.54","5.7","78.003","1.71","34.47","30.1411","4.73998","41.31","0","SATNPRO1509","29.34","0.41098","5"],
    [9763,"HCEP03730566","2024-01-08 01:00:00","11.1278","3.42421","26.958","3.735","7.54","0.37","6.009","0.04","0.9","30.1341","4.73902","41.11","0","SATNPRO1509","29.298000000000002","0.41038","5"],
    [9764,"HCEP03730566","2024-01-08 01:15:00","11.1277","3.4234","27.076","3.713","7.54","0.355","5.054","0.02","0.21","30.1263","4.73792","40.87","0","SATNPRO1509","29.266000000000002","0.40998","5"],
    [9765,"HCEP03730566","2024-01-08 01:30:00","11.1275","3.42299","27.296","3.697","7.54","0.365","5.177","0.03","0.21","30.1223","4.73738","40.7","0","SATNPRO1509","29.226","0.40938","5"],
    [9766,"HCEP03730566","2024-01-08 01:45:00","11.1273","3.42282","27.425","3.684","7.53","0.368","4.891","0.03","0.18","30.1208","4.73717","40.54","0","SATNPRO1509","29.23","0.40944","5"],
    [9767,"HCEP03730566","2024-01-08 02:00:00","11.1274","3.42297","27.489","3.674","7.53","0.365","5.434","0.01","0.16","30.1222","4.73736","40.44","0","SATNPRO1509","29.226","0.40934","5"],
    [9768,"HCEP03730566","2024-01-08 02:15:00","11.1273","3.42295","27.627","3.667","7.53","0.354","4.837","0.01","0.25","30.122","4.73735","40.36","0","SATNPRO1509","28.988","0.40602","5"],
    [9769,"HCEP03730566","2024-01-08 02:30:00","11.1271","3.42253","27.688","3.658","7.53","0.338","4.728","0.02","0.26","30.118","4.73679","40.26","0","SATNPRO1509","29.12","0.40788","5"],
    [9770,"HCEP03730566","2024-01-08 02:45:00","11.1272","3.4224","27.803","3.65","7.53","0.357","4.512","0.02","0.21","30.1166","4.73659","40.18","0","SATNPRO1509","29.188","0.40882","5"],
    [9771,"HCEP03730566","2024-01-08 03:00:00","11.1271","3.42226","27.839","3.644","7.53","0.328","4.678","0.01","0.42","30.1153","4.73642","40.11","0","SATNPRO1509","29.092","0.40748","5"],
    [9772,"HCEP03730566","2024-01-08 03:15:00","11.1271","3.42228","27.897","3.644","7.53","0.345","4.542","0.01","0.49","30.1155","4.73644","40.11","0","SATNPRO1509","29.078","0.40728","5"],
    [9773,"HCEP03730566","2024-01-08 03:30:00","11.1273","3.42228","27.96","3.651","7.53","0.331","4.52","0.01","0.26","30.1153","4.73641","40.18","0","SATNPRO1509","29.252","0.40972","5"],
    [9774,"HCEP03730566","2024-01-08 03:45:00","11.1268","3.42206","27.981","3.652","7.53","0.357","5.063","0.01","0.6","30.1136","4.73618","40.19","0","SATNPRO1509","29.208","0.4091","5"],
    [9775,"HCEP03730566","2024-01-08 04:00:00","11.1274","3.4225","27.989","3.638","7.53","0.337","5.455","0.02","0.19","30.1174","4.73671","40.05","0","SATNPRO1509","28.912","0.40496","5"],
    [9776,"HCEP03730566","2024-01-08 04:15:00","11.1266","3.42223","28.053","3.654","7.53","0.354","4.673","0.01","0.24","30.1153","4.73643","40.21","0","SATNPRO1509","29.168","0.40854","5"],
    [9777,"HCEP03730566","2024-01-08 04:30:00","11.1242","3.42138","28.026","3.65","7.53","0.331","4.592","0.01","0.23","30.1091","4.73558","40.17","0","SATNPRO1509","29.278","0.41008","5"],
    [9778,"HCEP03730566","2024-01-08 04:45:00","11.1241","3.42151","28.019","3.661","7.53","0.344","4.252","0.01","0.26","30.1103","4.73576","40.29","0","SATNPRO1509","29.294","0.41028","5"],
    [9779,"HCEP03730566","2024-01-08 05:00:00","11.1241","3.42178","27.949","3.674","7.53","0.327","4.297","0.01","0.21","30.113","4.73614","40.44","0","SATNPRO1509","29.334","0.41084","5"],
    [9780,"HCEP03730566","2024-01-08 05:15:00","11.1249","3.42198","27.91","3.678","7.53","0.342","4.006","0.01","0.22","30.1144","4.73632","40.48","0","SATNPRO1509","29.196","0.40894","5"],
    [9781,"HCEP03730566","2024-01-08 05:30:00","11.1254","3.42234","27.825","3.68","7.53","0.329","4.238","0.02","0.23","30.1175","4.73674","40.51","0","SATNPRO1509","29.128","0.408","5"],
    [9782,"HCEP03730566","2024-01-08 05:45:00","11.125","3.42224","27.796","3.679","7.53","0.362","4.233","0.02","0.32","30.1169","4.73667","40.49","0","SATNPRO1509","29.228","0.40938","5"],
    [9783,"HCEP03730566","2024-01-08 06:00:00","11.1248","3.42241","27.672","3.695","7.53","0.328","4.006","0.01","0.17","30.1187","4.73692","40.67","0","SATNPRO1509","29.354","0.41112","5"],
    [9784,"HCEP03730566","2024-01-08 06:15:00","11.1248","3.42246","27.56","3.694","7.53","0.651","10.571","0.14","2.04","30.1193","4.73701","40.65","0","SATNPRO1509","29.404","0.41184","5"],
    [9785,"HCEP03730566","2024-01-08 06:30:00","11.125","3.42277","27.533","3.699","7.53","0.321","7.139","0.02","13.73","30.1222","4.73741","40.71","0","SATNPRO1509","29.438","0.41232","5"],
    [9786,"HCEP03730566","2024-01-08 06:45:00","11.1255","3.42319","27.393","3.702","7.53","0.338","3.873","0.01","0.16","30.1259","4.73791","40.74","0","SATNPRO1509","29.454","0.41256","5"],
    [9787,"HCEP03730566","2024-01-08 07:00:00","11.1261","3.42447","27.373","3.7","7.53","0.356","4.721","0.02","0.22","30.1379","4.73961","40.73","0","SATNPRO1509","29.262","0.40986","5"],
    [9788,"HCEP03730566","2024-01-08 07:15:00","11.1258","3.42427","27.277","3.714","7.53","0.367","4.257","0.02","0.15","30.1363","4.73937","40.89","0","SATNPRO1509","29.38","0.41154","5"],
    [9789,"HCEP03730566","2024-01-08 07:30:00","11.1258","3.42437","27.246","3.724","7.53","0.351","4.648","0.02","0.65","30.1372","4.7395","41","0","SATNPRO1509","29.482","0.41296","5"],
    [9790,"HCEP03730566","2024-01-08 07:45:00","11.1257","3.42435","27.205","3.725","7.53","1.528","23.795","0.68","8.21","30.1372","4.7395","41.01","0","SATNPRO1509","29.386","0.4116","5"],
    [9791,"HCEP03730566","2024-01-08 08:00:00","11.1258","3.42439","27.185","3.732","7.54","7.06","89.641","3.89","20.89","30.1374","4.73953","41.08","0","SATNPRO1509","29.498","0.41316","5"],
    [9792,"HCEP03730566","2024-01-08 08:15:00","11.1257","3.4246","27.242","3.734","7.54","1.661","32.784","0.67","17.35","30.1396","4.73984","41.1","0","SATNPRO1509","29.476","0.41288","5"],
    [9793,"HCEP03730566","2024-01-08 08:30:00","11.1256","3.42482","27.245","3.737","7.54","0.777","28.827","0.48","23.8","30.1418","4.74016","41.14","0","SATNPRO1509","29.41","0.41194","5"],
    [9794,"HCEP03730566","2024-01-08 08:45:00","11.1257","3.42512","27.131","3.735","7.54","0.337","5.448","0.01","0.31","30.1447","4.74056","41.11","0","SATNPRO1509","29.478","0.41286","5"],
    [9795,"HCEP03730566","2024-01-08 09:00:00","11.126","3.42525","27.273","3.73","7.54","0.334","4.776","0.01","0.22","30.1457","4.7407","41.06","0","SATNPRO1509","29.438000000000002","0.41234","5"],
    [9796,"HCEP03730566","2024-01-08 09:15:00","11.1263","3.42543","27.204","3.724","7.54","0.355","4.776","0.01","0.22","30.1472","4.74091","41","0","SATNPRO1509","29.439999999999998","0.41238","5"],
    [9797,"HCEP03730566","2024-01-08 09:30:00","11.1264","3.42557","27.287","3.719","7.54","0.324","4.938","0.01","0.13","30.1484","4.74109","40.95","0","SATNPRO1509","29.384","0.41156","5"],
    [9798,"HCEP03730566","2024-01-08 09:45:00","11.1265","3.42568","27.349","3.71","7.54","0.874","11.835","1.69","20.33","30.1494","4.74123","40.84","0","SATNPRO1509","29.404","0.41184","5"],
    [9799,"NA","2024-03-01 08:45:00",null,null,null,null,null,null,null,null,null,null,null,null,null,"SATNPRO1509","30.048","0.42084","5"],
    [9800,"HCEP03730566","2024-01-08 10:00:00","11.1266","3.42559","27.32","3.712","7.53","0.359","5.198","0.02","0.23","30.1484","4.74108","40.86","0","SATNPRO1509","29.354","0.41118","5"],
    [9801,"HCEP03730566","2024-01-08 10:15:00","11.1267","3.42595","27.442","3.707","7.53","0.396","7.747","0.05","4.58","30.1518","4.74158","40.81","0","SATNPRO1509","29.316","0.4106","5"],
    [9802,"HCEP03730566","2024-01-08 10:30:00","11.1266","3.42613","27.452","3.71","7.53","1.276","27.438","0.43","3.75","30.1536","4.74183","40.84","0","SATNPRO1509","29.346","0.41104","5"],
    [9803,"HCEP03730566","2024-01-08 10:45:00","11.1266","3.42642","27.451","3.71","7.53","0.963","14.956","0.15","3.3","30.1565","4.74225","40.84","0","SATNPRO1509","29.406","0.41188","5"],
    [9804,"HCEP03730566","2024-01-08 11:00:00","11.1267","3.42671","27.551","3.708","7.54","0.39","10.058","0.09","4.6","30.1592","4.74263","40.82","0","SATNPRO1509","29.366","0.41126","5"],
    [9805,"HCEP03730566","2024-01-08 11:15:00","11.1264","3.42691","27.58","3.708","7.53","0.362","4.864","0.03","0.28","30.1613","4.74294","40.82","0","SATNPRO1509","29.24","0.40958","5"],
    [9806,"HCEP03730566","2024-01-08 11:30:00","11.1266","3.42682","27.654","3.709","7.54","0.372","5.248","0.04","0.31","30.1603","4.74279","40.84","0","SATNPRO1509","29.338","0.41096","5"],
    [9807,"HCEP03730566","2024-01-08 11:45:00","11.1268","3.42693","27.663","3.718","7.53","0.42","5.307","0.05","0.32","30.1612","4.74291","40.93","0","SATNPRO1509","29.334","0.41086","5"],
    [9808,"HCEP03730566","2024-01-08 12:00:00","11.1268","3.42716","27.718","3.712","7.53","0.357","4.941","0.03","0.18","30.1634","4.74323","40.86","0","SATNPRO1509","29.262","0.40988","5"],
    [9809,"HCEP03730566","2024-01-08 12:15:00","11.126","3.42683","27.755","3.724","7.54","0.403","4.791","0.03","0.16","30.1609","4.74288","41","0","SATNPRO1509","29.387999999999998","0.41162","5"],
    [9810,"HCEP03730566","2024-01-08 12:30:00","11.1249","3.42692","27.681","3.742","7.54","0.388","4.821","0.04","0.18","30.1627","4.74315","41.2","0","SATNPRO1509","29.344","0.41098","5"],
    [9811,"HCEP03730566","2024-01-08 12:45:00","11.1263","3.42698","27.804","3.736","7.54","0.401","4.574","0.03","0.21","30.1621","4.74306","41.13","0","SATNPRO1509","29.314","0.4106","5"],
    [9812,"HCEP03730566","2024-01-08 13:00:00","11.1252","3.42689","27.776","3.736","7.54","0.375","4.828","0.04","0.21","30.1621","4.74308","41.13","0","SATNPRO1509","29.433999999999997","0.41226","5"],
    [9813,"HCEP03730566","2024-01-08 13:15:00","11.1245","3.42674","27.848","3.756","7.54","0.382","4.459","0.03","0.35","30.1612","4.74296","41.35","0","SATNPRO1509","29.358","0.41122","5"],
    [9814,"HCEP03730566","2024-01-08 13:30:00","11.1243","3.42678","27.782","3.767","7.54","0.354","3.958","0.03","0.2","30.1617","4.74303","41.47","0","SATNPRO1509","29.416","0.41202","5"],
    [9815,"HCEP03730566","2024-01-08 13:45:00","11.1163","3.4257","27.717","3.853","7.54","0.397","3.871","0.02","0.25","30.1577","4.74259","42.41","0","SATNPRO1509","29.67","0.41556","5"],
    [9816,"HCEP03730566","2024-01-08 14:00:00","11.1254","3.42678","27.784","3.767","7.54","0.363","4.585","0.04","0.2","30.1609","4.7429","41.47","0","SATNPRO1509","29.408","0.41192","5"],
    [9817,"HCEP03730566","2024-01-08 14:15:00","11.1262","3.42694","27.76","3.716","7.54","0.47","25.386","0.2","36.77","30.1618","4.74301","40.91","0","SATNPRO1509","29.388","0.41162","5"],
    [9818,"HCEP03730566","2024-01-08 14:30:00","11.1263","3.42691","27.679","3.701","7.54","0.347","5.149","0.03","1.3","30.1614","4.74296","40.74","0","SATNPRO1509","29.328","0.41076","5"],
    [9819,"HCEP03730566","2024-01-08 14:45:00","11.126","3.42673","27.538","3.711","7.54","0.371","6.819","0.02","1.46","30.1599","4.74274","40.85","0","SATNPRO1509","29.448","0.41248","5"],
    [9820,"HCEP03730566","2024-01-08 15:00:00","11.1237","3.42631","27.449","3.743","7.54","0.339","3.62","0.03","0.12","30.1578","4.74248","41.21","0","SATNPRO1509","29.576","0.41422","5"],
    [9821,"HCEP03730566","2024-01-08 15:15:00","11.1229","3.42586","27.397","3.773","7.54","0.391","6.155","0.19","4.22","30.1541","4.74196","41.53","0","SATNPRO1509","29.32","0.4107","5"],
    [9822,"HCEP03730566","2024-01-08 15:30:00","11.1148","3.42523","27.293","3.892","7.54","0.429","14.354","0.38","17.97","30.1546","4.74214","42.83","0","SATNPRO1509","29.632","0.41502","5"],
    [9823,"HCEP03730566","2024-01-08 15:45:00","11.1133","3.4249","27.16","3.905","7.55","0.322","3.001","0.01","0.61","30.1527","4.74189","42.98","0","SATNPRO1509","29.69","0.4159","5"],
    [9824,"HCEP03730566","2024-01-08 16:00:00","11.1148","3.4251","26.869","3.898","7.55","0.308","5.387","0.01","3.84","30.1535","4.74196","42.9","0","SATNPRO1509","29.596","0.41454","5"],
    [9825,"HCEP03730566","2024-01-08 16:15:00","11.1128","3.42496","26.735","3.907","7.55","0.318","4.797","0.01","1.96","30.1538","4.74203","43","0","SATNPRO1509","29.746","0.41664","5"],
    [9826,"HCEP03730566","2024-01-08 16:30:00","11.1129","3.42463","26.572","3.91","7.55","0.303","4.55","0.01","3.45","30.1506","4.74156","43.04","0","SATNPRO1509","29.630000000000003","0.415","5"],
    [9827,"HCEP03730566","2024-01-08 16:45:00","11.1142","3.42427","26.304","3.9","7.55","0.332","3.802","0.03","0.55","30.1461","4.74088","42.92","0","SATNPRO1509","29.648","0.4153","5"],
    [9828,"HCEP03730566","2024-01-08 17:00:00","11.114","3.42398","26.06","3.892","7.55","0.316","5.158","0.02","2.6","30.1435","4.74052","42.83","0","SATNPRO1509","29.676","0.4157","5"],
    [9829,"HCEP03730566","2024-01-08 17:15:00","11.1146","3.42389","25.925","3.87","7.55","0.329","5.182","0.01","1.63","30.1422","4.74031","42.6","0","SATNPRO1509","29.686","0.4158","5"],
    [9830,"HCEP03730566","2024-01-08 17:30:00","11.1158","3.42397","25.617","3.851","7.55","0.335","6.373","0.04","2.3","30.1421","4.74026","42.38","0","SATNPRO1509","29.634","0.41508","5"],
    [9831,"HCEP03730566","2024-01-08 17:45:00","11.1146","3.42392","25.361","3.859","7.55","0.344","13.556","0.05","4.28","30.1427","4.74036","42.47","0","SATNPRO1509","29.634","0.4151","5"],
    [9832,"HCEP03730566","2024-01-08 18:00:00","11.1153","3.4238","25.165","3.854","7.55","0.382","20.185","0.08","9.79","30.1411","4.74011","42.42","0","SATNPRO1509","29.626","0.41496","5"],
    [9833,"HCEP03730566","2024-01-08 18:15:00","11.1176","3.42326","25.016","3.805","7.54","0.699","44.158","0.24","21.12","30.134","4.73905","41.88","0","SATNPRO1509","29.456","0.41262","5"],
    [9834,"HCEP03730566","2024-01-08 18:30:00","11.1209","3.42342","24.837","3.744","7.54","0.495","22.005","0.07","5.1","30.1328","4.73883","41.21","0","SATNPRO1509","29.424","0.41216","5"],
    [9835,"HCEP03730566","2024-01-08 18:45:00","11.1234","3.4232","24.695","3.66","7.54","0.514","19.453","0.1","5.25","30.1288","4.7382","40.29","0","SATNPRO1509","29.46","0.41264","5"],
    [9836,"HCEP03730566","2024-01-08 19:00:00","11.1244","3.42275","24.529","3.617","7.53","0.472","24.327","0.09","8.47","30.1236","4.73745","39.81","0","SATNPRO1509","29.42","0.4121","5"],
    [9837,"HCEP03730566","2024-01-08 19:15:00","11.1239","3.42201","24.367","3.589","7.53","0.861","22.392","0.59","13.94","30.1169","4.73649","39.5","0","SATNPRO1509","29.36","0.41124","5"],
    [9838,"HCEP03730566","2024-01-08 19:30:00","11.1221","3.42033","24.299","3.565","7.52","9.111","432.986","6.03","293.37","30.102","4.73441","39.23","0","SATNPRO1509","29.35","0.4111","5"],
    [9839,"HCEP03730566","2024-01-08 19:45:00","11.1199","3.41872","24.168","3.535","7.52","1.276","49.851","0.58","24.32","30.0881","4.73246","38.89","0","SATNPRO1509","29.402","0.4118","5"],
    [9840,"HCEP03730566","2024-01-08 20:00:00","11.119","3.41818","24.174","3.528","7.52","10.306","195.483","0.96","36.88","30.0836","4.73183","38.82","0","SATNPRO1509","29.381999999999998","0.41152","5"],
    [9841,"HCEP03730566","2024-01-08 20:15:00","11.117","3.41687","24.149","3.522","7.52","8.934","138.695","2.96","45.09","30.0724","4.73027","38.75","0","SATNPRO1509","29.302","0.41044","5"],
    [9842,"HCEP03730566","2024-01-08 20:30:00","11.116","3.41645","24.179","3.488","7.52","0.501","9.111","0.1","2.24","30.0692","4.72983","38.37","0","SATNPRO1509","29.266","0.40994","5"],
    [9843,"HCEP03730566","2024-01-08 20:45:00","11.1156","3.41614","24.156","3.468","7.51","0.507","8.019","0.05","0.68","30.0665","4.72946","38.15","0","SATNPRO1509","29.291999999999998","0.41026","5"],
    [9844,"HCEP03730566","2024-01-08 21:00:00","11.1145","3.41587","24.247","3.456","7.51","0.434","6.232","0.06","0.79","30.0647","4.72922","38.02","0","SATNPRO1509","29.204","0.40904","5"],
    [9845,"HCEP03730566","2024-01-08 21:15:00","11.1142","3.41563","24.314","3.441","7.51","0.447","6.457","0.06","0.86","30.0626","4.72894","37.85","0","SATNPRO1509","29.256","0.40978","5"],
    [9846,"HCEP03730566","2024-01-08 21:30:00","11.1139","3.41544","24.396","3.428","7.51","0.411","5.504","0.06","0.6","30.0609","4.72871","37.7","0","SATNPRO1509","29.216","0.40922","5"],
    [9847,"HCEP03730566","2024-01-08 21:45:00","11.1135","3.41521","24.564","3.42","7.51","0.476","5.862","0.06","0.71","30.059","4.72844","37.61","0","SATNPRO1509","29.214000000000002","0.40916","5"],
    [9848,"HCEP03730566","2024-01-08 22:00:00","11.1141","3.41524","24.612","3.408","7.51","0.506","7.756","0.09","1.57","30.0588","4.72841","37.48","0","SATNPRO1509","29.21","0.40914","5"],
    [9849,"HCEP03730566","2024-01-08 22:15:00","11.1141","3.41514","24.701","3.409","7.51","0.358","4.435","0.01","0.2","30.0577","4.72827","37.5","0","SATNPRO1509","29.172","0.40862","5"],
    [9850,"HCEP03730566","2024-01-08 22:30:00","11.1148","3.41515","24.896","3.396","7.51","0.35","4.786","0.01","0.18","30.0572","4.72819","37.35","0","SATNPRO1509","29.240000000000002","0.40952","5"],
    [9851,"HCEP03730566","2024-01-08 22:45:00","11.115","3.41524","25.084","3.385","7.51","0.408","5.162","0.02","0.23","30.0578","4.72829","37.23","0","SATNPRO1509","29.144000000000002","0.40824","5"],
    [9852,"HCEP03730566","2024-01-08 23:00:00","11.1145","3.41508","25.261","3.377","7.51","0.357","4.946","0.02","0.15","30.0566","4.72813","37.15","0","SATNPRO1509","29.088","0.40748","5"],
    [9853,"HCEP03730566","2024-01-08 23:15:00","11.1136","3.41482","25.384","3.388","7.51","0.37","4.519","0.01","0.15","30.0547","4.72789","37.26","0","SATNPRO1509","29.324","0.41072","5"],
    [9854,"HCEP03730566","2024-01-08 23:30:00","11.1125","3.41482","25.571","3.387","7.51","0.343","4.579","0.01","0.25","30.0555","4.72802","37.25","0","SATNPRO1509","29.13","0.40802","5"],
    [9855,"HCEP03730566","2024-01-08 23:45:00","11.1117","3.41465","25.785","3.401","7.51","0.362","4.178","0.02","0.14","30.0545","4.7279","37.41","0","SATNPRO1509","29.23","0.4094","5"],
    [9856,"HCEP03730566","2024-01-09 00:00:00","11.1121","3.41483","25.965","3.403","7.51","0.359","4.616","0.02","0.2","30.0559","4.72811","37.42","0","SATNPRO1509","29.092","0.40746","5"],
    [9857,"HCEP03730566","2024-01-09 00:15:00","11.1123","3.41501","26.159","3.401","7.51","0.387","4.69","0.03","0.18","30.0573","4.72832","37.41","0","SATNPRO1509","29.136","0.4081","5"],
    [9858,"HCEP03730566","2024-01-09 00:30:00","11.1126","3.41527","26.431","3.405","7.51","0.443","5.155","0.07","0.56","30.0595","4.72863","37.46","0","SATNPRO1509","29.073999999999998","0.40726","5"],
    [9859,"HCEP03730566","2024-01-09 00:45:00","11.1133","3.41554","26.657","3.409","7.51","0.437","4.726","0.05","0.42","30.0614","4.72892","37.5","0","SATNPRO1509","29.014","0.40642","5"],
    [9860,"HCEP03730566","2024-01-09 01:00:00","11.1135","3.41563","26.822","3.413","7.51","0.415","4.508","0.04","0.28","30.0622","4.72903","37.54","0","SATNPRO1509","29.218","0.40924","5"],
    [9861,"HCEP03730566","2024-01-09 01:15:00","11.114","3.41581","27.026","3.404","7.51","0.348","4.06","0.01","0.23","30.0635","4.72921","37.45","0","SATNPRO1509","29.204","0.40906","5"],
    [9862,"HCEP03730566","2024-01-09 01:30:00","11.1138","3.41583","27.134","3.403","7.51","0.374","4.347","0.05","0.58","30.0637","4.72926","37.43","0","SATNPRO1509","29.169999999999998","0.40858","5"],
    [9863,"HCEP03730566","2024-01-09 01:45:00","11.1123","3.41553","27.253","3.404","7.51","0.57","6.877","0.1","0.99","30.062","4.72904","37.44","0","SATNPRO1509","29.146","0.40826","5"],
    [9864,"HCEP03730566","2024-01-09 02:00:00","11.1043","3.41362","27.446","3.475","7.51","0.444","4.803","0.04","0.5","30.0498","4.72745","38.21","0","SATNPRO1509","29.438","0.41232","5"],
    [9865,"HCEP03730566","2024-01-09 02:15:00","11.1096","3.41481","27.6","3.468","7.51","0.336","4.037","0.02","0.51","30.057","4.72839","38.14","0","SATNPRO1509","29.162","0.40846","5"],
    [9866,"HCEP03730566","2024-01-09 02:30:00","11.1094","3.41472","27.749","3.458","7.51","0.383","3.79","0.04","0.35","30.0562","4.72829","38.03","0","SATNPRO1509","29.204","0.40904","5"],
    [9867,"HCEP03730566","2024-01-09 02:45:00","11.1119","3.41521","27.837","3.421","7.51","0.371","3.95","0.01","0.09","30.059","4.72865","37.63","0","SATNPRO1509","29.258","0.40986","5"],
    [9868,"HCEP03730566","2024-01-09 03:00:00","11.1137","3.41526","27.926","3.359","7.51","0.367","4.314","0.03","0.15","30.058","4.72849","36.94","0","SATNPRO1509","29.008","0.40628","5"],
    [9869,"HCEP03730566","2024-01-09 03:15:00","11.1134","3.41498","27.995","3.345","7.5","0.361","4.188","0.02","0.27","30.0555","4.72814","36.8","0","SATNPRO1509","28.881999999999998","0.40454","5"],
    [9870,"HCEP03730566","2024-01-09 03:30:00","11.1135","3.41492","28.02","3.336","7.5","0.329","4.085","0.01","0.18","30.0547","4.72804","36.69","0","SATNPRO1509","28.968","0.40572","5"],
    [9871,"HCEP03730566","2024-01-09 03:45:00","11.1126","3.41467","28.067","3.345","7.5","0.357","3.81","0.02","0.19","30.0531","4.72782","36.79","0","SATNPRO1509","28.936","0.4053","5"],
    [9872,"HCEP03730566","2024-01-09 04:00:00","11.1126","3.41487","28.14","3.354","7.5","0.339","4.178","0.01","0.25","30.055","4.72809","36.88","0","SATNPRO1509","28.952","0.40556","5"],
    [9873,"HCEP03730566","2024-01-09 04:15:00","11.1133","3.41525","28.144","3.353","7.5","0.352","3.951","0.01","0.19","30.058","4.72851","36.88","0","SATNPRO1509","29.088","0.40744","5"],
    [9874,"HCEP03730566","2024-01-09 04:30:00","11.1118","3.41506","28.155","3.362","7.5","0.335","4.343","0.01","0.22","30.0574","4.72845","36.97","0","SATNPRO1509","28.974","0.40586","5"],
    [9875,"NA","2024-03-01 09:00:00",null,null,null,null,null,null,null,null,null,null,null,null,null,"SATNPRO1509","30.052","0.42092","5"],
    [9876,"HCEP03730566","2024-01-09 04:45:00","11.1073","3.41415","28.142","3.373","7.5","0.36","4.338","0.01","0.19","30.0523","4.72779","37.1","0","SATNPRO1509","28.798000000000002","0.4034","5"],
    [9877,"HCEP03730566","2024-01-09 05:00:00","11.1025","3.41249","28.157","3.406","7.5","0.337","4.168","0.01","0.16","30.0399","4.72611","37.45","0","SATNPRO1509","28.972","0.40576","5"],
    [9878,"HCEP03730566","2024-01-09 05:15:00","11.0622","3.39995","28.17","3.581","7.51","0.348","3.499","0.01","0.12","29.9504","4.71401","39.32","0","SATNPRO1509","29.542","0.41378","5"],
    [9879,"HCEP03730566","2024-01-09 05:30:00","11.0466","3.39486","28.199","3.675","7.52","0.348","3.84","0.02","0.24","29.9134","4.70899","40.33","0","SATNPRO1509","29.6","0.4146","5"],
    [9880,"HCEP03730566","2024-01-09 05:45:00","11.102","3.4126","28.171","3.36","7.51","0.376","4.951","0.01","0.18","30.0414","4.72633","36.95","0","SATNPRO1509","28.558","0.4","5"],
    [9881,"HCEP03730566","2024-01-09 06:00:00","11.0931","3.40832","28.086","3.45","7.51","0.365","4.452","0.02","0.21","30.007","4.72157","37.92","0","SATNPRO1509","29.036","0.40672","5"],
    [9882,"HCEP03730566","2024-01-09 06:15:00","11.0936","3.40962","28.049","3.436","7.51","0.362","4.368","0.01","0.12","30.0193","4.72331","37.77","0","SATNPRO1509","29.002","0.4062","5"],
    [9883,"HCEP03730566","2024-01-09 06:30:00","11.0919","3.40909","28.01","3.426","7.51","0.346","5","0.02","0.53","30.0154","4.72278","37.66","0","SATNPRO1509","29.162","0.4085","5"],
    [9884,"HCEP03730566","2024-01-09 06:45:00","11.0824","3.40645","27.937","3.446","7.51","0.361","6.189","0.01","0.78","29.9975","4.72038","37.87","0","SATNPRO1509","28.912","0.40496","5"],
    [9885,"HCEP03730566","2024-01-09 07:00:00","11.0501","3.39686","27.819","3.597","7.51","0.35","5.715","0.01","0.49","29.9302","4.71131","39.48","0","SATNPRO1509","28.932000000000002","0.40524","5"],
    [9886,"HCEP03730566","2024-01-09 07:15:00","11.0569","3.3986","27.766","3.545","7.51","0.363","5.069","0.01","0.93","29.9417","4.71284","38.92","0","SATNPRO1509","28.912","0.40498","5"],
    [9887,"HCEP03730566","2024-01-09 07:30:00","11.0706","3.40283","27.705","3.46","7.51","0.355","6.145","0.01","0.42","29.9719","4.71691","38","0","SATNPRO1509","28.688","0.40182","5"],
    [9888,"HCEP03730566","2024-01-09 07:45:00","11.078","3.40501","27.608","3.377","7.51","0.385","7.406","0.01","1.14","29.9871","4.71896","37.1","0","SATNPRO1509","28.422","0.39812","5"],
    [9889,"HCEP03730566","2024-01-09 08:00:00","11.0768","3.40488","27.55","3.366","7.5","0.358","7.236","0.01","0.71","29.9868","4.71893","36.98","0","SATNPRO1509","28.346","0.39706","5"],
    [9890,"HCEP03730566","2024-01-09 08:15:00","11.0732","3.40403","27.482","3.37","7.5","0.392","7.849","0.03","3.06","29.9815","4.71823","37.02","0","SATNPRO1509","28.413999999999998","0.398","5"],
    [9891,"HCEP03730566","2024-01-09 08:30:00","11.0365","3.39154","27.411","3.436","7.5","0.394","9.408","0.02","1.73","29.8894","4.7057","37.69","0","SATNPRO1509","28.1","0.39358","5"],
    [9892,"HCEP03730566","2024-01-09 08:45:00","11.0284","3.39133","27.399","3.509","7.51","0.386","7.859","0.01","0.58","29.8939","4.70646","38.48","0","SATNPRO1509","28.488","0.399","5"],
    [9893,"HCEP03730566","2024-01-09 09:00:00","11.0725","3.40414","27.326","3.384","7.5","0.383","8.042","0.01","0.31","29.9832","4.71846","37.17","0","SATNPRO1509","28.452","0.39852","5"],
    [9894,"HCEP03730566","2024-01-09 09:15:00","11.0695","3.40214","27.314","3.389","7.5","0.405","9.161","0.01","0.73","29.9662","4.71609","37.22","0","SATNPRO1509","28.494","0.3991","5"],
    [9895,"HCEP03730566","2024-01-09 09:30:00","11.0577","3.3994","27.307","3.443","7.5","0.397","9.998","0.01","0.35","29.949","4.71384","37.8","0","SATNPRO1509","28.742","0.40258","5"],
    [9896,"HCEP03730566","2024-01-09 09:45:00","11.067","3.40282","27.254","3.536","7.51","0.403","8.863","0.01","0.58","29.9748","4.71735","38.84","0","SATNPRO1509","29.068","0.4071","5"],
    [9897,"HCEP03730566","2024-01-09 10:00:00","11.0865","3.40876","27.327","3.496","7.51","0.647","33.59","0.35","20.17","30.0169","4.72304","38.42","0","SATNPRO1509","29.196","0.40892","5"],
    [9898,"HCEP03730566","2024-01-09 10:15:00","11.0895","3.40982","27.328","3.506","7.51","4.539","480.079","2.32","319.82","30.0248","4.72412","38.54","0","SATNPRO1509","29.272","0.41","5"],
    [9899,"HCEP03730566","2024-01-09 10:30:00","11.0929","3.41103","27.386","3.522","7.51","0.381","7.433","0.05","1.37","30.0339","4.72536","38.72","0","SATNPRO1509","29.268","0.40996","5"],
    [9900,"HCEP03730566","2024-01-09 10:45:00","11.1029","3.41458","27.417","3.528","7.51","0.366","5.837","0.01","0.43","30.0603","4.72895","38.79","0","SATNPRO1509","29.472","0.41282","5"],
    [9901,"HCEP03730566","2024-01-09 11:00:00","11.1031","3.4147","27.459","3.523","7.51","0.361","6.748","0.02","0.53","30.0613","4.72909","38.74","0","SATNPRO1509","29.35","0.41108","5"],
    [9902,"HCEP03730566","2024-01-09 11:15:00","11.1055","3.41536","27.5","3.515","7.51","0.367","6.023","0.01","0.57","30.0658","4.7297","38.66","0","SATNPRO1509","29.44","0.41238","5"],
    [9903,"HCEP03730566","2024-01-09 11:30:00","11.1063","3.41556","27.592","3.506","7.51","0.349","5.919","0.01","0.19","30.0671","4.72987","38.56","0","SATNPRO1509","29.412","0.41196","5"],
    [9904,"HCEP03730566","2024-01-09 11:45:00","11.107","3.41599","27.633","3.515","7.51","10.24","376.454","3.69","179.53","30.0707","4.73037","38.66","0","SATNPRO1509","29.55","0.4139","5"],
    [9905,"HCEP03730566","2024-01-09 12:00:00","11.1053","3.41631","27.68","3.556","7.52","0.872","72.025","0.67","23.54","30.0751","4.73102","39.11","0","SATNPRO1509","29.49","0.41306","5"],
    [9906,"HCEP03730566","2024-01-09 12:15:00","11.1021","3.41623","27.741","3.605","7.52","3.09","72.912","3.11","35.96","30.0769","4.73135","39.65","0","SATNPRO1509","29.548000000000002","0.41388","5"],
    [9907,"HCEP03730566","2024-01-09 12:30:00","11.0988","3.41606","27.776","3.649","7.52","0.328","5.202","0.01","0.39","30.078","4.73154","40.13","0","SATNPRO1509","29.602","0.41462","5"],
    [9908,"HCEP03730566","2024-01-09 12:45:00","11.0859","3.41486","27.787","3.746","7.53","0.345","4.705","0.01","0.25","30.0768","4.73157","41.18","0","SATNPRO1509","29.638","0.41514","5"],
    [9909,"HCEP03730566","2024-01-09 13:00:00","11.085","3.41478","27.845","3.77","7.53","0.33","5.094","0.01","0.25","30.0768","4.73159","41.45","0","SATNPRO1509","29.584","0.4144","5"],
    [9910,"HCEP03730566","2024-01-09 13:15:00","11.0821","3.41437","28.035","3.783","7.53","0.344","4.668","0.01","0.18","30.075","4.73139","41.59","0","SATNPRO1509","29.716","0.4162","5"],
    [9911,"HCEP03730566","2024-01-09 13:30:00","11.0726","3.41286","27.952","3.846","7.54","0.331","5.183","0.01","0.27","30.068","4.73054","42.27","0","SATNPRO1509","29.6","0.41458","5"],
    [9912,"HCEP03730566","2024-01-09 13:45:00","11.0626","3.41123","28.027","3.905","7.54","0.35","5.249","0.01","0.09","30.0602","4.72959","42.9","0","SATNPRO1509","29.702","0.41602","5"],
    [9913,"HCEP03730566","2024-01-09 14:00:00","11.063","3.41017","28.017","3.86","7.54","0.326","4.68","0.01","0.17","30.0496","4.72807","42.41","0","SATNPRO1509","29.646","0.41526","5"],
    [9914,"HCEP03730566","2024-01-09 14:15:00","11.0591","3.4085","28.016","3.875","7.54","0.344","4.316","0.01","0.11","30.0365","4.72627","42.56","0","SATNPRO1509","29.712","0.41614","5"],
    [9915,"HCEP03730566","2024-01-09 14:30:00","11.063","3.40809","28.053","3.836","7.54","0.325","4.332","0.01","0.09","30.0292","4.72518","42.14","0","SATNPRO1509","29.632","0.41504","5"],
    [9916,"HCEP03730566","2024-01-09 14:45:00","11.0671","3.40756","27.899","3.761","7.54","0.348","4.519","0.01","0.11","30.0208","4.72391","41.32","0","SATNPRO1509","29.656","0.41538","5"],
    [9917,"HCEP03730566","2024-01-09 15:00:00","11.0612","3.4059","27.871","3.773","7.53","0.329","4.419","0.01","0.1","30.0094","4.72239","41.44","0","SATNPRO1509","29.64","0.41516","5"],
    [9918,"HCEP03730566","2024-01-09 15:15:00","11.0594","3.40544","27.861","3.78","7.53","0.351","4.748","0.01","0.13","30.0064","4.72199","41.51","0","SATNPRO1509","29.644","0.4152","5"],
    [9919,"HCEP03730566","2024-01-09 15:30:00","11.0555","3.40448","27.741","3.794","7.53","0.331","4.643","0.01","0.09","30.0003","4.72118","41.67","0","SATNPRO1509","29.62","0.4149","5"],
    [9920,"HCEP03730566","2024-01-09 15:45:00","11.0565","3.40482","27.643","3.78","7.53","0.352","4.637","0.01","0.2","30.0028","4.72151","41.52","0","SATNPRO1509","29.606","0.4147","5"],
    [9921,"HCEP03730566","2024-01-09 16:00:00","11.0438","3.4029","27.55","3.863","7.54","0.33","4.713","0.01","0.07","29.9944","4.72051","42.41","0","SATNPRO1509","29.616","0.41482","5"],
    [9922,"HCEP03730566","2024-01-09 16:15:00","11.0085","3.39746","27.379","4.106","7.55","0.348","4.272","0.01","0.1","29.9701","4.71758","45.04","0","SATNPRO1509","29.684","0.41578","5"],
    [9923,"HCEP03730566","2024-01-09 16:30:00","10.9947","3.39825","27.166","4.296","7.56","0.316","3.461","0.01","0.13","29.9891","4.72048","47.11","0","SATNPRO1509","29.558","0.41398","5"],
    [9924,"HCEP03730566","2024-01-09 16:45:00","10.9919","3.39923","27.081","4.345","7.57","0.334","3.585","0.01","0.1","30.0011","4.72222","47.65","0","SATNPRO1509","29.68","0.41572","5"],
    [9925,"HCEP03730566","2024-01-09 17:00:00","10.9854","3.40152","26.824","4.456","7.58","0.308","3.508","0.01","0.11","30.0288","4.72624","48.87","0","SATNPRO1509","29.637999999999998","0.41516","5"],
    [9926,"HCEP03730566","2024-01-09 17:15:00","10.9839","3.40391","26.685","4.51","7.59","0.33","4.002","0.01","0.1","30.0535","4.72977","49.46","0","SATNPRO1509","29.669999999999998","0.4156","5"],
    [9927,"HCEP03730566","2024-01-09 17:30:00","10.9874","3.40679","26.473","4.486","7.59","0.308","3.718","0.01","0.1","30.079","4.73331","49.21","0","SATNPRO1509","29.672","0.41562","5"],
    [9928,"HCEP03730566","2024-01-09 17:45:00","10.9869","3.40774","26.179","4.482","7.59","0.334","4.468","0.01","0.11","30.0888","4.73469","49.17","0","SATNPRO1509","29.666","0.41554","5"],
    [9929,"HCEP03730566","2024-01-09 18:00:00","10.9884","3.40926","26.118","4.485","7.59","0.306","3.889","0.01","0.1","30.1025","4.73661","49.22","0","SATNPRO1509","29.66","0.41544","5"],
    [9930,"HCEP03730566","2024-01-09 18:15:00","10.988","3.40994","25.786","4.489","7.59","0.323","3.732","0.01","0.1","30.1095","4.7376","49.26","0","SATNPRO1509","29.642","0.4152","5"],
    [9931,"HCEP03730566","2024-01-09 18:30:00","10.9884","3.41069","25.53","4.49","7.59","0.304","4.355","0.01","0.14","30.1167","4.7386","49.28","0","SATNPRO1509","29.688","0.41582","5"],
    [9932,"HCEP03730566","2024-01-09 18:45:00","10.9904","3.4119","25.259","4.484","7.59","0.322","4.108","0.01","0.09","30.127","4.74002","49.21","0","SATNPRO1509","29.662","0.4155","5"],
    [9933,"HCEP03730566","2024-01-09 19:00:00","10.9912","3.41283","25.157","4.475","7.59","0.304","4.092","0.01","0.08","30.1355","4.7412","49.12","0","SATNPRO1509","29.608","0.4147","5"],
    [9934,"HCEP03730566","2024-01-09 19:15:00","10.9895","3.41227","24.974","4.477","7.59","0.323","3.93","0.01","0.08","30.1315","4.74065","49.13","0","SATNPRO1509","29.594","0.41452","5"],
    [9935,"HCEP03730566","2024-01-09 19:30:00","10.9881","3.41187","24.728","4.484","7.59","0.304","3.825","0.01","0.14","30.1288","4.74028","49.21","0","SATNPRO1509","29.738","0.41654","5"],
    [9936,"HCEP03730566","2024-01-09 19:45:00","10.9884","3.41209","24.534","4.477","7.59","0.319","3.489","0.01","0.12","30.1308","4.74054","49.13","0","SATNPRO1509","29.678","0.41568","5"],
    [9937,"HCEP03730566","2024-01-09 20:00:00","10.9894","3.41222","24.356","4.478","7.59","0.294","3.169","0.01","0.1","30.1314","4.7406","49.15","0","SATNPRO1509","29.654","0.41534","5"],
    [9938,"HCEP03730566","2024-01-09 20:15:00","10.989","3.41261","24.254","4.469","7.59","0.316","3.319","0.01","0.12","30.1355","4.74119","49.05","0","SATNPRO1509","29.678","0.41568","5"],
    [9939,"HCEP03730566","2024-01-09 20:30:00","10.9897","3.4131","24.162","4.458","7.59","0.304","3.171","0.01","0.21","30.1398","4.74178","48.93","0","SATNPRO1509","29.63","0.41504","5"],
    [9940,"HCEP03730566","2024-01-09 20:45:00","10.9907","3.41311","24.067","4.46","7.59","0.313","3.2","0.01","0.08","30.1391","4.74166","48.95","0","SATNPRO1509","29.686","0.41582","5"],
    [9941,"HCEP03730566","2024-01-09 21:00:00","10.9931","3.40975","23.998","4.463","7.59","0.324","8.108","0.15","21.63","30.1042","4.73666","48.98","0","SATNPRO1509","29.716","0.41626","5"],
    [9942,"HCEP03730566","2024-01-09 21:15:00","10.9907","3.41286","23.99","4.441","7.59","0.326","4.126","0.01","0.14","30.1366","4.7413","48.74","0","SATNPRO1509","29.596","0.41454","5"],
    [9943,"HCEP03730566","2024-01-09 21:30:00","10.985900000000001","3.4112","24.019","4.48","7.59","0.297","2.937","0.01","0.16","30.1244","4.73963","49.16","0","SATNPRO1509","29.712","0.4162","5"],
    [9944,"HCEP03730566","2024-01-09 21:45:00","10.988","3.41192","23.998","4.459","7.59","0.325","3.371","0.01","0.21","30.1297","4.74036","48.93","0","SATNPRO1509","29.652","0.4153","5"],
    [9945,"HCEP03730566","2024-01-09 22:00:00","10.9905","3.41234","24.041","4.442","7.59","0.3","3.075","0.01","0.1","30.1317","4.7406","48.75","0","SATNPRO1509","29.604","0.41466","5"],
    [9946,"HCEP03730566","2024-01-09 22:15:00","10.9916","3.41228","24.103","4.42","7.59","0.333","4.366","0.01","0.17","30.1302","4.74038","48.51","0","SATNPRO1509","29.494","0.41312","5"],
    [9947,"HCEP03730566","2024-01-09 22:30:00","10.995","3.413","24.185","4.399","7.59","0.31","4.307","0.01","0.2","30.1345","4.74094","48.29","0","SATNPRO1509","29.416","0.412","5"],
    [9948,"HCEP03730566","2024-01-09 22:45:00","11.0005","3.41422","24.343","4.38","7.59","0.337","4.9","0.01","0.15","30.1418","4.7419","48.08","0","SATNPRO1509","29.637999999999998","0.4151","5"],
    [9949,"HCEP03730566","2024-01-09 23:00:00","11.0034","3.41469","24.5","4.375","7.59","0.31","4.395","0.01","0.16","30.144","4.74218","48.03","0","SATNPRO1509","29.63","0.415","5"],
    [9950,"HCEP03730566","2024-01-09 23:15:00","11.0047","3.41513","24.678","4.351","7.59","0.345","6.085","0.01","0.26","30.1472","4.74263","47.77","0","SATNPRO1509","29.508","0.41336","5"],
    [9951,"HCEP03730566","2024-01-09 23:30:00","11.0089","3.41584","24.88","4.34","7.59","0.319","5.444","0.01","0.24","30.1506","4.74305","47.66","0","SATNPRO1509","29.554000000000002","0.41394","5"],
    [9952,"HCEP03730566","2024-01-09 23:45:00","11.0107","3.41556","25.038","4.337","7.58","0.334","5.181","0.01","0.4","30.1463","4.74242","47.63","0","SATNPRO1509","29.636","0.41512","5"],
    [9953,"HCEP03730566","2024-01-10 00:00:00","11.0131","3.41546","25.203","4.33","7.58","0.34","7.885","0.01","0.83","30.1432","4.74196","47.55","0","SATNPRO1509","29.567999999999998","0.41418","5"],
    [9954,"HCEP03730566","2024-01-10 00:15:00","11.0131","3.41483","25.417","4.324","7.58","0.37","7.93","0.02","0.81","30.1371","4.74111","47.48","0","SATNPRO1509","29.506","0.41328","5"],
    [9955,"HCEP03730566","2024-01-10 00:30:00","11.0104","3.4128","25.486","4.318","7.58","0.334","6.78","0.01","0.68","30.1193","4.73862","47.41","0","SATNPRO1509","29.518","0.41346","5"],
    [9956,"HCEP03730566","2024-01-10 00:45:00","11.0092","3.41108","25.68","4.302","7.58","0.358","6.968","0.01","0.32","30.1034","4.7364","47.22","0","SATNPRO1509","29.548","0.41388","5"],
    [9957,"HCEP03730566","2024-01-10 01:00:00","11.0102","3.40981","25.937","4.269","7.58","0.339","6.524","0.01","0.4","30.09","4.7345","46.86","0","SATNPRO1509","29.434","0.41226","5"],
    [9958,"HCEP03730566","2024-01-10 01:15:00","11.0092","3.40708","26.161","4.22","7.58","0.367","6.792","0.01","0.29","30.0641","4.73085","46.32","0","SATNPRO1509","29.434","0.41222","5"],
    [9959,"HCEP03730566","2024-01-10 01:30:00","11.0146","3.40664","26.363","4.169","7.57","0.351","7.583","0.01","0.42","30.0553","4.72953","45.75","0","SATNPRO1509","29.562","0.41406","5"],
    [9960,"HCEP03730566","2024-01-10 01:45:00","11.0183","3.403","26.568","4.091","7.57","0.378","7.667","0.01","0.43","30.0166","4.72399","44.89","0","SATNPRO1509","29.574","0.41426","5"],
    [9961,"HCEP03730566","2024-01-10 02:00:00","11.0172","3.40114","26.746","4.048","7.56","0.367","8.615","0.01","0.84","29.9992","4.72155","44.42","0","SATNPRO1509","29.652","0.41536","5"],
    [9962,"HCEP03730566","2024-01-10 02:15:00","11.0147","3.39819","26.964","4.019","7.56","0.391","8.548","0.01","0.96","29.9723","4.71777","44.08","0","SATNPRO1509","29.644","0.41522","5"],
    [9963,"HCEP03730566","2024-01-10 02:30:00","11.014","3.39947","27.168","4.054","7.56","0.376","9.199","0.02","0.71","29.9853","4.71965","44.47","0","SATNPRO1509","29.67","0.41556","5"],
    [9964,"HCEP03730566","2024-01-10 02:45:00","11.0124","3.40156","27.343","4.121","7.56","0.4","9.712","0.01","0.49","30.007","4.72276","45.22","0","SATNPRO1509","29.604","0.41466","5"],
    [9965,"HCEP03730566","2024-01-10 03:00:00","11.0107","3.40262","27.504","4.16","7.56","0.39","10.88","0.02","1.13","30.0188","4.72447","45.64","0","SATNPRO1509","29.594","0.41448","5"],
    [9966,"HCEP03730566","2024-01-10 03:15:00","11.0201","3.40396","27.607","4.118","7.56","0.427","13.289","0.02","2.07","30.0241","4.72509","45.19","0","SATNPRO1509","29.483999999999998","0.41296","5"],
    [9967,"HCEP03730566","2024-01-10 03:30:00","11.0286","3.4047","27.79","4.033","7.56","0.402","12.239","0.01","0.91","30.0243","4.72499","44.27","0","SATNPRO1509","29.364","0.41126","5"],
    [9968,"HCEP03730566","2024-01-10 03:45:00","11.0281","3.4044","27.952","4.002","7.56","0.486","12.344","0.06","0.46","30.0217","4.72465","43.93","0","SATNPRO1509","29.438000000000002","0.41232","5"],
    [9969,"HCEP03730566","2024-01-10 04:00:00","11.0311","3.40417","28.027","3.972","7.55","0.392","10.856","0.02","0.51","30.0171","4.72394","43.59","0","SATNPRO1509","29.414","0.41198","5"],
    [9970,"HCEP03730566","2024-01-10 04:15:00","11.0332","3.40401","28.093","3.936","7.55","0.423","11.88","0.01","0.91","30.0137","4.72343","43.21","0","SATNPRO1509","29.466","0.41272","5"],
    [9971,"HCEP03730566","2024-01-10 04:30:00","11.0328","3.4034","28.142","3.923","7.55","0.459","11.775","0.05","0.73","30.008","4.72264","43.06","0","SATNPRO1509","29.414","0.41198","5"],
    [9972,"HCEP03730566","2024-01-10 04:45:00","11.0283","3.40205","28.17","3.924","7.55","0.411","10.16","0.01","0.45","29.9985","4.72136","43.07","0","SATNPRO1509","29.496","0.41314","5"],
    [9973,"HCEP03730566","2024-01-10 05:00:00","11.0266","3.40153","28.201","3.938","7.55","0.39","10.217","0.01","0.47","29.9948","4.72087","43.22","0","SATNPRO1509","29.414","0.41202","5"],
    [9974,"HCEP03730566","2024-01-10 05:15:00","11.0241","3.40082","28.266","3.94","7.55","0.407","9.638","0.01","0.66","29.9899","4.72021","43.24","0","SATNPRO1509","29.476","0.41286","5"],
    [9975,"HCEP03730566","2024-01-10 05:30:00","11.0229","3.40005","28.315","3.934","7.55","0.45","13.748","0.16","11.59","29.9833","4.71929","43.16","0","SATNPRO1509","29.498","0.41318","5"],
    [9976,"HCEP03730566","2024-01-10 05:45:00","10.9787","3.39095","28.325","4.051","7.55","0.417","7.739","0.02","0.47","29.9303","4.71244","44.39","0","SATNPRO1509","29.426000000000002","0.41214","5"],
    [9977,"HCEP03730566","2024-01-10 06:00:00","10.9288","3.38927","28.401","4.354","7.56","0.388","7.273","0.02","0.47","29.9545","4.71664","47.67","0","SATNPRO1509","29.4","0.4118","5"],
    [9978,"HCEP03730566","2024-01-10 06:15:00","10.9437","3.39317","28.386","4.428","7.57","0.436","7.068","0.04","0.45","29.9806","4.72012","48.51","0","SATNPRO1509","29.236","0.40948","5"],
    [9979,"HCEP03730566","2024-01-10 06:30:00","10.9554","3.39509","28.375","4.365","7.58","0.37","6.551","0.04","1.68","29.9898","4.72126","47.83","0","SATNPRO1509","29.412","0.412","5"],
    [9980,"HCEP03730566","2024-01-10 06:45:00","10.9647","3.39784","28.371","4.348","7.58","2.657","37.098","2.89","29.4","30.0092","4.72386","47.66","0","SATNPRO1509","29.258","0.40978","5"],
    [9981,"HCEP03730566","2024-01-10 07:00:00","10.9716","3.39961","28.301","4.327","7.58","0.484","7.337","0.09","0.88","30.0208","4.7254","47.43","0","SATNPRO1509","29.31","0.41052","5"],
    [9982,"HCEP03730566","2024-01-10 07:15:00","10.9773","3.40135","28.261","4.311","7.57","0.395","7.339","0.02","0.48","30.0333","4.72708","47.27","0","SATNPRO1509","29.294","0.41034","5"],
    [9983,"HCEP03730566","2024-01-10 07:30:00","10.9801","3.40229","28.043","4.296","7.57","0.452","7.454","0.1","0.46","30.0403","4.72803","47.11","0","SATNPRO1509","29.24","0.40954","5"],
    [9984,"HCEP03730566","2024-01-10 07:45:00","10.9985","3.40668","27.991","4.259","7.57","0.388","7.409","0.04","1.09","30.0682","4.73169","46.73","0","SATNPRO1509","29.432","0.41224","5"],
    [9985,"HCEP03730566","2024-01-10 08:00:00","11.0001","3.40775","27.901","4.259","7.57","0.412","7.01","0.04","0.61","30.0774","4.73297","46.74","0","SATNPRO1509","29.524","0.41352","5"],
    [9986,"HCEP03730566","2024-01-10 08:15:00","10.9967","3.4081","27.697","4.275","7.57","0.548","8.298","0.24","2.41","30.0837","4.73391","46.91","0","SATNPRO1509","29.532","0.41362","5"],
    [9987,"HCEP03730566","2024-01-10 08:30:00","10.9913","3.40838","27.641","4.31","7.57","0.377","8.404","0.05","2.7","30.0909","4.735","47.3","0","SATNPRO1509","29.548","0.41386","5"],
    [9988,"HCEP03730566","2024-01-10 08:45:00","10.9867","3.40822","27.479","4.347","7.58","0.452","7.215","0.1","2.07","30.0931","4.73538","47.69","0","SATNPRO1509","29.634","0.41508","5"],
    [9989,"HCEP03730566","2024-01-10 09:00:00","10.9845","3.40842","27.408","4.361","7.58","0.479","6.352","0.09","0.7","30.097","4.73596","47.84","0","SATNPRO1509","29.596","0.41456","5"],
    [9990,"HCEP03730566","2024-01-10 09:15:00","10.9708","3.40808","27.336","4.444","7.58","0.492","5.629","0.11","0.71","30.1049","4.73729","48.75","0","SATNPRO1509","29.7","0.41598","5"],
    [9991,"HCEP03730566","2024-01-10 09:30:00","10.9653","3.40764","27.251","4.496","7.59","0.352","5.529","0.02","0.79","30.1051","4.7374","49.3","0","SATNPRO1509","29.736","0.41652","5"],
    [9992,"HCEP03730566","2024-01-10 09:45:00","10.9619","3.40731","27.199","4.519","7.59","0.357","4.49","0.01","0.22","30.1046","4.73738","49.56","0","SATNPRO1509","29.582","0.41436","5"],
    [9993,"HCEP03730566","2024-01-10 10:00:00","10.961","3.40775","27.147","4.529","7.59","2.037","33.934","3.37","42.23","30.1097","4.73811","49.67","0","SATNPRO1509","29.632","0.41504","5"],
    [9994,"HCEP03730566","2024-01-10 10:15:00","10.9609","3.40794","27.13","4.545","7.59","1.123","23.831","0.57","20.06","30.1116","4.73839","49.84","0","SATNPRO1509","29.608","0.41472","5"],
    [9995,"HCEP03730566","2024-01-10 10:30:00","10.9605","3.4079","27.109","4.55","7.59","3.704","79.914","1.89","26.72","30.1116","4.73839","49.9","0","SATNPRO1509","29.782","0.41712","5"],
    [9996,"HCEP03730566","2024-01-10 10:45:00","10.9599","3.40779","27.152","4.553","7.6","0.93","20.155","0.55","15.59","30.1111","4.73832","49.93","0","SATNPRO1509","29.694","0.41592","5"],
    [9997,"HCEP03730566","2024-01-10 11:00:00","10.9595","3.40779","27.18","4.548","7.6","1.555","33.753","1.39","29.96","30.1114","4.73838","49.87","0","SATNPRO1509","29.686","0.41582","5"],
    [9998,"HCEP03730566","2024-01-10 11:15:00","10.9593","3.40796","27.117","4.544","7.6","0.831","23.672","0.34","8.1","30.1131","4.73863","49.83","0","SATNPRO1509","29.724","0.41632","5"],
    [9999,"HCEP03730566","2024-01-10 11:30:00","10.9593","3.40816","27.193","4.54","7.6","2.195","41.72","2.27","43.57","30.1151","4.73891","49.79","0","SATNPRO1509","29.616","0.41484","5"],
    [10000,"HCEP03730566","2024-01-10 11:45:00","10.9593","3.4083","27.263","4.538","7.6","0.368","4.542","0.02","0.44","30.1165","4.73911","49.76","0","SATNPRO1509","29.68","0.4157","5"],
    [10001,"HCEP03730566","2024-01-10 12:00:00","10.9614","3.40853","27.287","4.526","7.6","0.393","4.331","0.09","0.45","30.117","4.73915","49.63","0","SATNPRO1509","29.71","0.41614","5"],
    [10002,"HCEP03730566","2024-01-10 12:15:00","10.9647","3.40903","27.361","4.51","7.6","0.407","4.522","0.1","0.88","30.1192","4.73942","49.47","0","SATNPRO1509","29.57","0.41418","5"],
    [10003,"HCEP03730566","2024-01-10 12:30:00","10.9678","3.40986","27.419","4.498","7.6","0.709","16.87","0.75","25.59","30.1247","4.74016","49.34","0","SATNPRO1509","29.669999999999998","0.41558","5"],
    [10004,"HCEP03730566","2024-01-10 12:45:00","10.9712","3.4105","27.49","4.489","7.59","0.374","4.594","0.06","2.14","30.1282","4.7406","49.25","0","SATNPRO1509","29.704","0.41606","5"],
    [10005,"HCEP03730566","2024-01-10 13:00:00","10.9756","3.41102","27.533","4.482","7.59","1.927","36.567","2.65","38.78","30.1297","4.74075","49.17","0","SATNPRO1509","29.84","0.41796","5"],
    [10006,"HCEP03730566","2024-01-10 13:15:00","10.977","3.41115","27.623","4.462","7.59","0.478","8.011","0.27","9.21","30.1297","4.74073","48.95","0","SATNPRO1509","29.84","0.41798","5"],
    [10007,"HCEP03730566","2024-01-10 13:30:00","10.9778","3.41119","27.707","4.451","7.59","1.754","71.077","1.44","41.23","30.1294","4.74069","48.83","0","SATNPRO1509","29.746","0.41668","5"],
    [10008,"HCEP03730566","2024-01-10 13:45:00","10.9776","3.41118","27.775","4.443","7.59","0.388","3.856","0.12","0.75","30.1295","4.7407","48.75","0","SATNPRO1509","29.77","0.41702","5"],
    [10009,"HCEP03730566","2024-01-10 14:00:00","10.9772","3.411","27.822","4.445","7.59","0.345","6.211","0.09","8.42","30.128","4.74051","48.77","0","SATNPRO1509","29.716","0.41624","5"],
    [10010,"HCEP03730566","2024-01-10 14:15:00","10.9756","3.4107","27.886","4.445","7.59","0.719","15.155","1.18","30.29","30.1264","4.74031","48.76","0","SATNPRO1509","29.786","0.4172","5"],
    [10011,"HCEP03730566","2024-01-10 14:30:00","10.9734","3.4102","27.914","4.449","7.59","0.536","9.299","0.32","4.45","30.1232","4.73989","48.81","0","SATNPRO1509","29.74","0.41658","5"],
    [10012,"HCEP03730566","2024-01-10 14:45:00","10.9717","3.40971","27.925","4.454","7.59","0.348","3.653","0.01","0.17","30.1198","4.73943","48.86","0","SATNPRO1509","29.796","0.41732","5"],
    [10013,"HCEP03730566","2024-01-10 15:00:00","10.9696","3.40917","27.92","4.46","7.59","0.324","3.708","0.01","0.17","30.1163","4.73896","48.92","0","SATNPRO1509","29.782","0.41716","5"],
    [10014,"HCEP03730566","2024-01-10 15:15:00","10.9697","3.40894","27.904","4.455","7.59","0.334","3.696","0.02","0.47","30.114","4.73863","48.86","0","SATNPRO1509","29.8","0.41742","5"],
    [10015,"HCEP03730566","2024-01-10 15:30:00","10.9695","3.40861","27.889","4.453","7.59","0.335","4.083","0.03","0.74","30.1109","4.7382","48.84","0","SATNPRO1509","29.784000000000002","0.4172","5"],
    [10016,"HCEP03730566","2024-01-10 15:45:00","10.9692","3.4083","27.847","4.451","7.59","0.337","3.226","0.02","0.23","30.1082","4.73781","48.82","0","SATNPRO1509","29.736","0.41654","5"],
    [10017,"HCEP03730566","2024-01-10 16:00:00","10.9691","3.40796","27.787","4.451","7.59","0.651","7.566","0.41","4.18","30.1049","4.73735","48.82","0","SATNPRO1509","29.768","0.41694","5"],
    [10018,"HCEP03730566","2024-01-10 16:15:00","10.9688","3.40774","27.709","4.45","7.59","0.331","3.069","0.01","0.46","30.103","4.73708","48.81","0","SATNPRO1509","29.726","0.41636","5"],
    [10019,"HCEP03730566","2024-01-10 16:30:00","10.9689","3.40755","27.6","4.443","7.59","0.315","2.958","0.02","0.2","30.1011","4.7368","48.73","0","SATNPRO1509","29.698","0.416","5"],
    [10020,"HCEP03730566","2024-01-10 16:45:00","10.969","3.40744","27.47","4.443","7.59","0.332","2.68","0.01","0.18","30.1001","4.73665","48.73","0","SATNPRO1509","29.65","0.41532","5"],
    [10021,"HCEP03730566","2024-01-10 17:00:00","10.9696","3.40739","27.31","4.444","7.59","0.396","6.055","0.22","4.89","30.0991","4.73648","48.74","0","SATNPRO1509","29.875999999999998","0.41844","5"],
    [10022,"HCEP03730566","2024-01-10 17:15:00","10.9687","3.40732","27.151","4.447","7.59","0.462","4.96","0.26","4.77","30.0992","4.7365","48.78","0","SATNPRO1509","29.798000000000002","0.41736","5"],
    [10023,"HCEP03730566","2024-01-10 17:30:00","10.9716","3.40749","26.929","4.447","7.59","0.305","2.542","0.02","0.35","30.0985","4.73636","48.78","0","SATNPRO1509","29.826","0.41772","5"],
    [10024,"HCEP03730566","2024-01-10 17:45:00","10.973","3.40756","26.714","4.438","7.59","0.326","2.712","0.02","0.26","30.0982","4.73627","48.68","0","SATNPRO1509","29.712","0.41614","5"],
    [10025,"HCEP03730566","2024-01-10 18:00:00","10.9727","3.4075","26.476","4.432","7.59","0.317","2.988","0.03","0.34","30.0979","4.73623","48.62","0","SATNPRO1509","29.762","0.41684","5"],
    [10026,"HCEP03730566","2024-01-10 18:15:00","10.9664","3.407","26.218","4.428","7.59","0.329","3.525","0.02","0.28","30.0983","4.73637","48.56","0","SATNPRO1509","29.672","0.41562","5"],
    [10027,"HCEP03730566","2024-01-10 18:30:00","10.9679","3.40683","25.957","4.416","7.59","0.324","3.68","0.01","0.23","30.0955","4.73592","48.43","0","SATNPRO1509","29.604","0.41466","5"],
    [10028,"HCEP03730566","2024-01-10 18:45:00","10.9719","3.40708","25.683","4.41","7.59","0.335","3.752","0.01","0.27","30.0948","4.73576","48.36","0","SATNPRO1509","29.740000000000002","0.41658","5"],
    [10029,"HCEP03730566","2024-01-10 19:00:00","10.9784","3.40817","25.413","4.386","7.59","0.319","3.873","0.01","0.19","30.1003","4.73641","48.11","0","SATNPRO1509","29.75","0.41668","5"],
    [10030,"HCEP03730566","2024-01-10 19:15:00","10.9804","3.40932","25.166","4.38","7.58","0.34","3.997","0.01","0.25","30.11","4.73775","48.05","0","SATNPRO1509","29.726","0.41638","5"],
    [10031,"HCEP03730566","2024-01-10 19:30:00","10.9871","3.4106","24.873","4.365","7.58","0.706","9.402","0.36","1.68","30.1171","4.73863","47.9","0","SATNPRO1509","29.744","0.4166","5"],
    [10032,"HCEP03730566","2024-01-10 19:45:00","10.9953","3.41242","24.614","4.336","7.58","0.359","4.442","0.02","0.42","30.1283","4.74009","47.59","0","SATNPRO1509","29.722","0.41628","5"],
    [10033,"HCEP03730566","2024-01-10 20:00:00","10.9986","3.41308","24.397","4.325","7.58","0.329","4.086","0.04","0.16","30.1322","4.74058","47.47","0","SATNPRO1509","29.69","0.41586","5"],
    [10034,"HCEP03730566","2024-01-10 20:15:00","11.0005","3.41313","24.185","4.316","7.58","0.334","4.243","0.02","0.33","30.1312","4.7404","47.38","0","SATNPRO1509","29.754","0.41676","5"],
    [10035,"HCEP03730566","2024-01-10 20:30:00","10.9999","3.41268","24.001","4.304","7.58","0.319","4.189","0.01","0.27","30.1274","4.73985","47.24","0","SATNPRO1509","29.71","0.41612","5"],
    [10036,"HCEP03730566","2024-01-10 20:45:00","10.9945","3.41091","23.848","4.308","7.58","0.334","3.881","0.01","0.32","30.1146","4.7381","47.27","0","SATNPRO1509","29.874","0.4184","5"],
    [10037,"HCEP03730566","2024-01-10 21:00:00","10.99","3.41021","23.769","4.32","7.58","0.423","6.913","0.04","1.34","30.1114","4.73772","47.41","0","SATNPRO1509","29.642","0.41516","5"],
    [10038,"HCEP03730566","2024-01-10 21:15:00","10.9932","3.41101","23.675","4.303","7.58","0.351","4.342","0.01","0.35","30.1166","4.73841","47.22","0","SATNPRO1509","29.762","0.41682","5"],
    [10039,"HCEP03730566","2024-01-10 21:30:00","10.9884","3.41009","23.573","4.3","7.58","0.346","4.646","0.02","0.23","30.1116","4.73777","47.18","0","SATNPRO1509","29.704","0.41608","5"],
    [10040,"HCEP03730566","2024-01-10 21:45:00","10.9811","3.40892","23.543","4.324","7.58","0.346","5.747","0.04","3.89","30.1062","4.7371","47.44","0","SATNPRO1509","29.648","0.41528","5"],
    [10041,"HCEP03730566","2024-01-10 22:00:00","10.9761","3.40775","23.56","4.337","7.58","0.365","4.97","0.02","0.22","30.0988","4.73613","47.58","0","SATNPRO1509","29.644","0.41522","5"],
    [10042,"HCEP03730566","2024-01-10 22:15:00","10.9714","3.40695","23.573","4.351","7.58","0.408","5.468","0.05","0.51","30.0948","4.73564","47.72","0","SATNPRO1509","29.604","0.41468","5"],
    [10043,"HCEP03730566","2024-01-10 22:30:00","10.9684","3.40636","23.584","4.367","7.58","0.35","5.28","0.02","0.63","30.0914","4.73521","47.89","0","SATNPRO1509","29.616","0.41484","5"],
    [10044,"HCEP03730566","2024-01-10 22:45:00","10.9656","3.40622","23.705","4.377","7.58","0.37","4.79","0.02","0.22","30.0923","4.73538","48","0","SATNPRO1509","29.656","0.4154","5"],
    [10045,"HCEP03730566","2024-01-10 23:00:00","10.9655","3.40602","23.788","4.377","7.58","0.332","4.649","0.01","0.21","30.0904","4.73511","48","0","SATNPRO1509","29.637999999999998","0.41512","5"],
    [10046,"HCEP03730566","2024-01-10 23:15:00","10.9656","3.40572","23.989","4.365","7.58","0.358","5.002","0.01","0.29","30.0873","4.73469","47.87","0","SATNPRO1509","29.582","0.41432","5"],
    [10047,"HCEP03730566","2024-01-10 23:30:00","10.9654","3.40523","24.166","4.355","7.58","0.345","5.485","0.02","0.74","30.0826","4.73403","47.76","0","SATNPRO1509","29.544","0.41378","5"],
    [10048,"HCEP03730566","2024-01-10 23:45:00","10.9662","3.40517","24.323","4.348","7.58","0.369","5.79","0.03","0.23","30.0813","4.73384","47.68","0","SATNPRO1509","29.56","0.41402","5"],
    [10049,"HCEP03730566","2024-01-11 00:00:00","10.9674","3.40518","24.528","4.34","7.58","0.444","7.297","0.04","0.38","30.0803","4.7337","47.59","0","SATNPRO1509","29.482","0.41294","5"],
    [10050,"HCEP03730566","2024-01-11 00:15:00","10.968","3.40462","24.725","4.32","7.58","0.372","5.649","0.02","0.27","30.0742","4.73284","47.37","0","SATNPRO1509","29.568","0.41418","5"],
    [10051,"HCEP03730566","2024-01-11 00:30:00","10.9687","3.40381","24.885","4.291","7.58","0.358","6.031","0.02","0.36","30.0657","4.73163","47.05","0","SATNPRO1509","29.442","0.41238","5"],
    [10052,"HCEP03730566","2024-01-11 00:45:00","10.9702","3.403","25.069","4.265","7.57","0.577","10.397","0.1","1.37","30.0565","4.73031","46.76","0","SATNPRO1509","29.558","0.414","5"],
    [10053,"HCEP03730566","2024-01-11 01:00:00","10.973","3.40264","25.269","4.23","7.57","0.448","9.34","0.1","1.91","30.0506","4.72944","46.38","0","SATNPRO1509","29.422","0.41208","5"],
    [10054,"HCEP03730566","2024-01-11 01:15:00","10.9744","3.40196","25.452","4.204","7.57","0.442","8.203","0.05","0.82","30.0427","4.7283","46.1","0","SATNPRO1509","29.472","0.41282","5"],
    [10055,"HCEP03730566","2024-01-11 01:30:00","10.976","3.40161","25.758","4.178","7.57","0.375","7.829","0.03","1.04","30.0378","4.72761","45.82","0","SATNPRO1509","29.497999999999998","0.41316","5"],
    [10056,"HCEP03730566","2024-01-11 01:45:00","10.9779","3.40121","25.992","4.148","7.56","0.545","7.545","0.04","0.22","30.0323","4.7268","45.49","0","SATNPRO1509","29.448","0.41246","5"],
    [10057,"HCEP03730566","2024-01-11 02:00:00","10.9778","3.40036","26.291","4.123","7.56","0.416","7.308","0.04","0.36","30.024","4.72564","45.21","0","SATNPRO1509","29.372","0.41144","5"],
    [10058,"HCEP03730566","2024-01-11 02:15:00","10.9781","3.39955","26.539","4.098","7.56","0.436","6.751","0.04","0.34","30.0157","4.72448","44.93","0","SATNPRO1509","29.352","0.41114","5"],
    [10059,"HCEP03730566","2024-01-11 02:30:00","10.977","3.39868","26.822","4.074","7.56","0.438","6.82","0.06","0.26","30.008","4.72341","44.67","0","SATNPRO1509","29.412","0.4119","5"],
    [10060,"HCEP03730566","2024-01-11 02:45:00","10.9759","3.39791","27.054","4.059","7.56","0.416","6.887","0.04","1.08","30.0012","4.72248","44.5","0","SATNPRO1509","29.362","0.41126","5"],
    [10061,"HCEP03730566","2024-01-11 03:00:00","10.9732","3.39702","27.231","4.055","7.56","10.912","358.33","1.34","141.71","29.9946","4.72159","44.45","0","SATNPRO1509","29.372","0.4114","5"],
    [10062,"HCEP03730566","2024-01-11 03:15:00","10.9721","3.39667","27.479","4.053","7.55","3.249","86.945","1.57","18.62","29.992","4.72125","44.43","0","SATNPRO1509","29.376","0.41148","5"],
    [10063,"HCEP03730566","2024-01-11 03:30:00","10.9721","3.39804","27.747","4.063","7.55","0.571","9.002","0.08","1.2","30.0053","4.72316","44.54","0","SATNPRO1509","29.396","0.41176","5"],
    [10064,"HCEP03730566","2024-01-11 03:45:00","10.9413","3.3921","27.937","4.146","7.56","0.547","9.451","0.12","1.07","29.9722","4.71893","45.4","0","SATNPRO1509","29.288","0.41022","5"],
    [10065,"NA","2024-03-01 09:15:00",null,null,null,null,null,null,null,null,null,null,null,null,null,"SATNPRO1509","29.900000000000002","0.41882","5"],
    [10066,"HCEP03730566","2024-01-11 04:00:00","10.9649","3.39776","28.227","4.133","7.56","0.626","10.124","0.12","1.37","30.0083","4.72372","45.3","0","SATNPRO1509","29.362000000000002","0.41124","5"],
    [10067,"HCEP03730566","2024-01-11 04:15:00","10.9656","3.39827","28.26","4.131","7.56","0.465","8.83","0.1","2.1","30.0126","4.72433","45.28","0","SATNPRO1509","29.386","0.41162","5"],
    [10068,"HCEP03730566","2024-01-11 04:30:00","10.9656","3.3984","28.21","4.143","7.56","0.378","7.499","0.02","0.33","30.0139","4.72451","45.41","0","SATNPRO1509","29.354","0.41118","5"],
    [10069,"HCEP03730566","2024-01-11 04:45:00","10.9624","3.39869","28.074","4.179","7.56","0.382","7.25","0.03","0.59","30.0195","4.72534","45.81","0","SATNPRO1509","29.424","0.41214","5"],
    [10070,"HCEP03730566","2024-01-11 05:00:00","10.9597","3.39891","28.077","4.212","7.56","0.348","6.468","0.01","0.28","30.0238","4.72599","46.17","0","SATNPRO1509","29.412","0.41198","5"],
    [10071,"HCEP03730566","2024-01-11 05:15:00","10.9508","3.39849","28.121","4.27","7.57","0.362","6.723","0.01","0.24","30.027","4.72658","46.79","0","SATNPRO1509","29.324","0.41074","5"],
    [10072,"HCEP03730566","2024-01-11 05:30:00","10.9484","3.39819","28.132","4.279","7.57","0.343","6.708","0.01","0.17","30.026","4.72648","46.89","0","SATNPRO1509","29.432","0.41224","5"],
    [10073,"HCEP03730566","2024-01-11 05:45:00","10.9512","3.3989","28.214","4.289","7.57","0.355","6.088","0.01","0.26","30.0307","4.7271","47","0","SATNPRO1509","29.508","0.4133","5"],
    [10074,"HCEP03730566","2024-01-11 06:00:00","10.9532","3.39901","28.3","4.283","7.57","0.336","6.022","0.01","0.12","30.03","4.72699","46.94","0","SATNPRO1509","29.59","0.41446","5"],
    [10075,"HCEP03730566","2024-01-11 06:15:00","10.9534","3.39896","28.256","4.286","7.57","0.349","5.508","0.01","0.37","30.0294","4.7269","46.97","0","SATNPRO1509","29.566","0.41412","5"],
    [10076,"HCEP03730566","2024-01-11 06:30:00","10.9542","3.39883","28.223","4.282","7.57","0.328","5.236","0.01","0.15","30.0275","4.72662","46.93","0","SATNPRO1509","29.592","0.4145","5"],
    [10077,"HCEP03730566","2024-01-11 06:45:00","10.9595","3.3995","28.209","4.251","7.57","0.348","5.156","0.01","0.15","30.0297","4.72684","46.59","0","SATNPRO1509","29.654","0.41538","5"],
    [10078,"HCEP03730566","2024-01-11 07:00:00","10.9567","3.39874","28.198","4.276","7.57","0.324","4.602","0.01","0.15","30.0246","4.72615","46.86","0","SATNPRO1509","29.7","0.41602","5"],
    [10079,"HCEP03730566","2024-01-11 07:15:00","10.9491","3.39631","28.148","4.295","7.57","0.343","4.325","0.01","0.14","30.007","4.72378","47.06","0","SATNPRO1509","29.736","0.4165","5"],
    [10080,"HCEP03730566","2024-01-11 07:30:00","10.9481","3.39542","28.084","4.286","7.57","0.326","4.484","0.01","0.13","29.9991","4.72267","46.96","0","SATNPRO1509","29.718","0.4163","5"],
    [10081,"HCEP03730566","2024-01-11 07:45:00","10.9522","3.39606","28.005","4.26","7.57","1.483","463.333","1.27","226.36","30.0021","4.72302","46.68","0","SATNPRO1509","29.672","0.41562","5"],
    [10082,"HCEP03730566","2024-01-11 08:00:00","10.9599","3.39823","27.963","4.247","7.57","0.386","7.304","0.04","5.34","30.0171","4.72503","46.54","0","SATNPRO1509","29.76","0.41688","5"],
    [10083,"HCEP03730566","2024-01-11 08:15:00","10.962","3.39947","27.847","4.243","7.57","0.328","4.57","0.02","0.21","30.0275","4.72647","46.51","0","SATNPRO1509","29.714","0.41616","5"],
    [10084,"HCEP03730566","2024-01-11 08:30:00","10.9643","3.40017","27.749","4.236","7.57","0.312","4.262","0.01","0.22","30.0325","4.72714","46.43","0","SATNPRO1509","29.72","0.4163","5"],
    [10085,"HCEP03730566","2024-01-11 08:45:00","10.9657","3.4006","27.725","4.23","7.57","0.324","4.044","0.01","0.13","30.0356","4.72756","46.38","0","SATNPRO1509","29.78","0.4171","5"],
    [10086,"HCEP03730566","2024-01-11 09:00:00","10.966","3.40073","27.589","4.222","7.57","0.318","5.408","0.02","1.24","30.0366","4.72769","46.28","0","SATNPRO1509","29.722","0.41632","5"],
    [10087,"HCEP03730566","2024-01-11 09:15:00","10.9668","3.40073","27.498","4.214","7.57","0.332","4.721","0.01","0.58","30.0361","4.7276","46.2","0","SATNPRO1509","29.67","0.41558","5"],
    [10088,"HCEP03730566","2024-01-11 09:30:00","10.9665","3.4006","27.435","4.211","7.56","0.49","11.388","0.21","5.56","30.0351","4.72746","46.17","0","SATNPRO1509","29.77","0.41694","5"],
    [10089,"HCEP03730566","2024-01-11 09:45:00","10.9664","3.40076","27.351","4.209","7.56","0.354","5.049","0.06","1.12","30.0368","4.72769","46.15","0","SATNPRO1509","29.744","0.41664","5"],
    [10090,"HCEP03730566","2024-01-11 10:00:00","10.9662","3.40072","27.269","4.203","7.56","0.347","4.65","0.03","0.44","30.0365","4.72765","46.08","0","SATNPRO1509","29.636","0.41508","5"],
    [10091,"HCEP03730566","2024-01-11 10:15:00","10.9687","3.40091","27.238","4.208","7.56","0.346","4.154","0.02","0.18","30.0364","4.7276","46.13","0","SATNPRO1509","29.746","0.41666","5"],
    [10092,"HCEP03730566","2024-01-11 10:30:00","10.9687","3.40092","27.185","4.203","7.56","0.333","4.537","0.02","0.27","30.0365","4.72761","46.07","0","SATNPRO1509","29.8","0.41742","5"],
    [10093,"HCEP03730566","2024-01-11 10:45:00","10.9715","3.40124","27.146","4.203","7.56","0.346","4.489","0.01","0.22","30.0373","4.72768","46.08","0","SATNPRO1509","29.742","0.4166","5"],
    [10094,"HCEP03730566","2024-01-11 11:00:00","10.9794","3.40196","27.106","4.231","7.57","0.33","3.839","0.02","0.29","30.038","4.72765","46.4","0","SATNPRO1509","29.838","0.41792","5"],
    [10095,"HCEP03730566","2024-01-11 11:15:00","10.9754","3.40116","27.146","4.237","7.57","0.333","3.839","0.01","0.18","30.0334","4.72706","46.45","0","SATNPRO1509","29.808","0.4175","5"],
    [10096,"HCEP03730566","2024-01-11 11:30:00","10.9733","3.40095","27.181","4.253","7.57","0.309","3.541","0.01","0.07","30.0331","4.72705","46.63","0","SATNPRO1509","29.904","0.41886","5"],
    [10097,"HCEP03730566","2024-01-11 11:45:00","10.9727","3.40045","27.118","4.269","7.57","0.326","3.436","0.01","0.12","30.0287","4.72643","46.81","0","SATNPRO1509","29.934","0.41926","5"],
    [10098,"HCEP03730566","2024-01-11 12:00:00","10.9703","3.4001","27.17","4.267","7.57","0.314","3.698","0.01","0.12","30.0272","4.72626","46.78","0","SATNPRO1509","29.822","0.41774","5"],
    [10099,"HCEP03730566","2024-01-11 12:15:00","10.9711","3.40107","27.247","4.201","7.57","0.355","4.512","0.02","0.17","30.036","4.7275","46.06","0","SATNPRO1509","29.71","0.41612","5"],
    [10100,"HCEP03730566","2024-01-11 12:30:00","10.9756","3.40263","27.311","4.201","7.56","0.318","3.678","0.01","0.21","30.0476","4.72908","46.07","0","SATNPRO1509","29.806","0.41746","5"],
    [10101,"HCEP03730566","2024-01-11 12:45:00","10.994","3.40827","27.384","4.143","7.56","0.353","4.492","0.02","0.53","30.0877","4.7345","45.46","0","SATNPRO1509","29.790000000000003","0.41726","5"],
    [10102,"HCEP03730566","2024-01-11 13:00:00","10.991","3.40739","27.45","4.136","7.56","0.319","4.06","0.01","0.14","30.0815","4.73367","45.38","0","SATNPRO1509","29.86","0.41824","5"],
    [10103,"HCEP03730566","2024-01-11 13:15:00","10.9844","3.40769","27.538","4.204","7.56","0.355","4.011","0.02","0.23","30.0898","4.73496","46.13","0","SATNPRO1509","29.892","0.4187","5"],
    [10104,"HCEP03730566","2024-01-11 13:30:00","10.9766","3.40798","27.618","4.304","7.57","0.321","3.501","0.01","0.14","30.099","4.73639","47.21","0","SATNPRO1509","29.886","0.41858","5"],
    [10105,"HCEP03730566","2024-01-11 13:45:00","10.9757","3.40832","27.67","4.303","7.57","0.346","3.812","0.02","0.14","30.103","4.73697","47.2","0","SATNPRO1509","29.922","0.4191","5"],
    [10106,"HCEP03730566","2024-01-11 14:00:00","10.9698","3.40849","27.801","4.355","7.57","0.318","3.481","0.01","0.18","30.1095","4.73799","47.77","0","SATNPRO1509","29.906","0.41888","5"],
    [10107,"HCEP03730566","2024-01-11 14:15:00","10.9713","3.40845","27.92","4.341","7.58","0.353","3.989","0.03","0.24","30.1078","4.73773","47.61","0","SATNPRO1509","29.894","0.41874","5"],
    [10108,"HCEP03730566","2024-01-11 14:30:00","10.97","3.40847","28.014","4.341","7.58","0.321","3.605","0.02","0.64","30.1091","4.73793","47.62","0","SATNPRO1509","30.036","0.42068","5"],
    [10109,"HCEP03730566","2024-01-11 14:45:00","10.9704","3.40834","28.038","4.337","7.58","0.345","3.685","0.02","0.23","30.1075","4.73771","47.57","0","SATNPRO1509","29.84","0.41802","5"],
    [10110,"HCEP03730566","2024-01-11 15:00:00","10.9706","3.40842","28.13","4.331","7.58","0.36","3.999","0.03","0.3","30.108","4.73779","47.51","0","SATNPRO1509","29.82","0.41772","5"],
    [10111,"HCEP03730566","2024-01-11 15:15:00","10.9698","3.40835","28.153","4.332","7.58","0.368","3.886","0.03","0.41","30.108","4.73779","47.52","0","SATNPRO1509","29.832","0.41782","5"],
    [10112,"HCEP03730566","2024-01-11 15:30:00","10.9696","3.40824","28.11","4.331","7.58","0.354","3.84","0.02","0.38","30.107","4.73766","47.5","0","SATNPRO1509","29.838","0.41794","5"],
    [10113,"HCEP03730566","2024-01-11 15:45:00","10.9687","3.40814","28.096","4.33","7.58","0.359","3.43","0.02","0.28","30.1069","4.73765","47.49","0","SATNPRO1509","29.908","0.41894","5"],
    [10114,"HCEP03730566","2024-01-11 16:00:00","10.9696","3.40847","28.137","4.318","7.58","0.439","4.868","0.05","0.54","30.1093","4.73798","47.36","0","SATNPRO1509","29.87","0.4184","5"],
    [10115,"HCEP03730566","2024-01-11 16:15:00","10.9696","3.40827","28.154","4.323","7.58","0.614","9.516","0.22","6.82","30.1074","4.73771","47.42","0","SATNPRO1509","29.936","0.4193","5"],
    [10116,"HCEP03730566","2024-01-11 16:30:00","10.9702","3.40809","28.082","4.332","7.58","0.373","3.748","0.04","0.66","30.1051","4.73738","47.51","0","SATNPRO1509","29.822","0.4177","5"],
    [10117,"HCEP03730566","2024-01-11 16:45:00","10.9735","3.40812","28.015","4.3","7.58","0.541","7.068","0.1","1.83","30.1028","4.73699","47.16","0","SATNPRO1509","29.846","0.41804","5"],
    [10118,"HCEP03730566","2024-01-11 17:00:00","10.9713","3.40853","27.98","4.284","7.58","0.436","5.816","0.11","1.1","30.1086","4.73784","46.99","0","SATNPRO1509","29.732","0.4164","5"],
    [10119,"HCEP03730566","2024-01-11 17:15:00","10.9711","3.40856","27.922","4.288","7.57","0.764","8.936","0.42","5.14","30.1091","4.73791","47.03","0","SATNPRO1509","29.764","0.41692","5"],
    [10120,"HCEP03730566","2024-01-11 17:30:00","10.9706","3.40876","27.743","4.302","7.57","0.442","5.832","0.07","0.77","30.1115","4.73826","47.18","0","SATNPRO1509","29.65","0.4153","5"],
    [10121,"HCEP03730566","2024-01-11 17:45:00","10.9696","3.40921","27.626","4.323","7.57","0.515","6.426","0.2","2.57","30.1168","4.73902","47.42","0","SATNPRO1509","29.732","0.41642","5"],
    [10122,"HCEP03730566","2024-01-11 18:00:00","10.9691","3.40983","27.427","4.344","7.58","0.644","8.129","0.34","3.85","30.1234","4.73995","47.65","0","SATNPRO1509","29.644000000000002","0.41522","5"],
    [10123,"HCEP03730566","2024-01-11 18:15:00","10.9702","3.41045","27.22","4.355","7.58","0.383","5.635","0.04","1.88","30.1286","4.74066","47.77","0","SATNPRO1509","29.858","0.4182","5"],
    [10124,"HCEP03730566","2024-01-11 18:30:00","10.9709","3.41068","26.973","4.355","7.58","0.735","26.978","0.33","3.56","30.1304","4.74089","47.78","0","SATNPRO1509","29.704","0.41608","5"],
    [10125,"HCEP03730566","2024-01-11 18:45:00","10.9707","3.4109","26.825","4.366","7.58","0.352","4.15","0.02","0.23","30.1328","4.74123","47.9","0","SATNPRO1509","29.834","0.41786","5"],
    [10126,"HCEP03730566","2024-01-11 19:00:00","10.9706","3.41084","26.569","4.358","7.58","0.33","4.194","0.02","0.27","30.1324","4.74116","47.81","0","SATNPRO1509","29.786","0.41722","5"],
    [10127,"HCEP03730566","2024-01-11 19:15:00","10.971","3.41022","26.296","4.351","7.58","0.339","4.01","0.02","0.4","30.126","4.74023","47.73","0","SATNPRO1509","29.818","0.41764","5"],
    [10128,"HCEP03730566","2024-01-11 19:30:00","10.9762","3.40954","26.006","4.3","7.58","0.33","4.101","0.03","0.36","30.1152","4.7386","47.18","0","SATNPRO1509","29.526","0.41356","5"],
    [10129,"HCEP03730566","2024-01-11 19:45:00","10.9845","3.40903","25.726","4.249","7.57","0.347","4.323","0.01","0.46","30.1036","4.7368","46.62","0","SATNPRO1509","29.764","0.41692","5"],
    [10130,"HCEP03730566","2024-01-11 20:00:00","10.9878","3.40889","25.476","4.204","7.57","0.327","4.426","0.02","0.47","30.0996","4.73617","46.13","0","SATNPRO1509","29.71","0.41614","5"],
    [10131,"HCEP03730566","2024-01-11 20:15:00","10.9914","3.40846","25.215","4.173","7.57","0.346","4.37","0.02","0.41","30.0925","4.7351","45.79","0","SATNPRO1509","29.578","0.41428","5"],
    [10132,"HCEP03730566","2024-01-11 20:30:00","10.9929","3.40792","24.967","4.164","7.56","0.328","4.286","0.01","0.43","30.0862","4.73417","45.69","0","SATNPRO1509","29.6","0.41462","5"],
    [10133,"HCEP03730566","2024-01-11 20:45:00","10.9914","3.40724","24.633","4.18","7.56","0.341","3.975","0.01","0.26","30.0808","4.73341","45.86","0","SATNPRO1509","29.764","0.41692","5"],
    [10134,"HCEP03730566","2024-01-11 21:00:00","10.9912","3.40707","24.394","4.178","7.56","0.329","3.86","0.01","0.33","30.0795","4.73321","45.84","0","SATNPRO1509","29.89","0.4187","5"],
    [10135,"HCEP03730566","2024-01-11 21:15:00","10.9904","3.40666","24.137","4.174","7.56","0.344","4.241","0.02","0.36","30.0761","4.73273","45.79","0","SATNPRO1509","29.924","0.4192","5"],
    [10136,"HCEP03730566","2024-01-11 21:30:00","10.9898","3.40643","23.89","4.17","7.56","0.327","4.556","0.01","0.38","30.0745","4.73249","45.74","0","SATNPRO1509","29.86","0.41824","5"],
    [10137,"HCEP03730566","2024-01-11 21:45:00","10.9892","3.4063","23.764","4.168","7.56","0.351","4.619","0.03","0.46","30.0738","4.7324","45.73","0","SATNPRO1509","29.8","0.41736","5"],
    [10138,"HCEP03730566","2024-01-11 22:00:00","10.9884","3.40609","23.544","4.17","7.56","0.333","4.595","0.02","0.52","30.0724","4.7322","45.75","0","SATNPRO1509","29.86","0.41826","5"],
    [10139,"HCEP03730566","2024-01-11 22:15:00","10.9879","3.40577","23.598","4.166","7.56","2.228","27.002","2.74","29.46","30.0697","4.73182","45.71","0","SATNPRO1509","29.892","0.41872","5"],
    [10140,"HCEP03730566","2024-01-11 22:30:00","10.9874","3.40558","23.554","4.174","7.56","0.321","4.188","0.02","0.12","30.0683","4.73163","45.79","0","SATNPRO1509","29.82","0.41766","5"],
    [10141,"HCEP03730566","2024-01-11 22:45:00","10.9873","3.40561","23.535","4.178","7.56","6.829","330.266","1.23","130.94","30.0687","4.73169","45.83","0","SATNPRO1509","29.962","0.4197","5"],
    [10142,"HCEP03730566","2024-01-11 23:00:00","10.9867","3.40549","23.592","4.176","7.56","9.675","650.559","2.02","268.39","30.068","4.7316","45.81","0","SATNPRO1509","29.996","0.42014","5"],
    [10143,"HCEP03730566","2024-01-11 23:15:00","10.9868","3.40561","23.618","4.175","7.56","6.528","373.151","1.8","124.45","30.069","4.73175","45.8","0","SATNPRO1509","30.04","0.42076","5"],
    [10144,"HCEP03730566","2024-01-11 23:30:00","10.9872","3.4059","23.654","4.17","7.56","2.689","327.388","2.76","234.39","30.0715","4.73209","45.75","0","SATNPRO1509","30.032","0.42066","5"],
    [10145,"HCEP03730566","2024-01-11 23:45:00","10.9876","3.40592","23.717","4.163","7.56","10.154","1721.492","1.12","248.97","30.0713","4.73206","45.67","0","SATNPRO1509","29.984","0.41998","5"],
    [10146,"HCEP03730566","2024-01-12 00:00:00","10.9867","3.40572","23.836","4.157","7.56","0.373","10.309","0.03","13.01","30.0701","4.73191","45.6","0","SATNPRO1509","29.908","0.41888","5"],
    [10147,"HCEP03730566","2024-01-12 00:15:00","10.9873","3.40586","24.043","4.141","7.56","0.424","10.309","0.06","0.98","30.0709","4.73203","45.42","0","SATNPRO1509","29.8","0.4174","5"],
    [10148,"HCEP03730566","2024-01-12 00:30:00","10.9838","3.40436","24.186","4.149","7.56","0.396","15.354","0.11","12.34","30.059","4.7304","45.51","0","SATNPRO1509","29.922","0.4191","5"],
    [10149,"HCEP03730566","2024-01-12 00:45:00","10.9814","3.4035","24.432","4.163","7.56","0.571","31.989","0.11","10.13","30.0525","4.72952","45.66","0","SATNPRO1509","29.934","0.41924","5"],
    [10150,"HCEP03730566","2024-01-12 01:00:00","10.9788","3.40229","24.624","4.146","7.56","0.846","34.549","0.06","4.79","30.0427","4.7282","45.47","0","SATNPRO1509","29.854","0.41814","5"],
    [10151,"HCEP03730566","2024-01-12 01:15:00","10.9764","3.40134","24.786","4.112","7.56","0.473","22.084","0.08","7.85","30.0353","4.72718","45.09","0","SATNPRO1509","29.736","0.41652","5"],
    [10152,"HCEP03730566","2024-01-12 01:30:00","10.9735","3.40036","25.019","4.095","7.56","0.543","31.323","0.1","7.27","30.0279","4.72619","44.9","0","SATNPRO1509","29.764","0.41688","5"],
    [10153,"HCEP03730566","2024-01-12 01:45:00","10.9717","3.39959","25.249","4.089","7.56","0.512","32.719","0.06","4.65","30.0218","4.72536","44.82","0","SATNPRO1509","29.836","0.41794","5"],
    [10154,"HCEP03730566","2024-01-12 02:00:00","10.9688","3.39859","25.484","4.084","7.55","0.528","33.147","0.09","6.04","30.0143","4.72435","44.76","0","SATNPRO1509","29.716","0.41622","5"],
    [10155,"HCEP03730566","2024-01-12 02:15:00","10.9675","3.39822","25.74","4.079","7.55","0.578","35.231","0.1","5.53","30.0117","4.72402","44.71","0","SATNPRO1509","29.764","0.4169","5"],
    [10156,"HCEP03730566","2024-01-12 02:30:00","10.9677","3.39835","25.978","4.076","7.55","0.454","25.459","0.05","3.87","30.0127","4.72417","44.68","0","SATNPRO1509","29.724","0.41636","5"],
    [10157,"HCEP03730566","2024-01-12 02:45:00","10.9677","3.3983","26.259","4.071","7.55","0.614","35.158","0.12","5.87","30.012","4.72409","44.63","0","SATNPRO1509","29.674","0.41566","5"],
    [10158,"HCEP03730566","2024-01-12 03:00:00","10.9675","3.39814","26.476","4.07","7.55","0.345","15.596","0.04","2.56","30.0106","4.72391","44.62","0","SATNPRO1509","29.724","0.41636","5"],
    [10159,"HCEP03730566","2024-01-12 03:15:00","10.9671","3.39797","26.718","4.064","7.55","0.339","10.065","0.01","1.03","30.0092","4.72373","44.55","0","SATNPRO1509","29.738","0.41654","5"],
    [10160,"HCEP03730566","2024-01-12 03:30:00","10.9671","3.39801","26.929","4.062","7.55","0.35","10.143","0.02","1.28","30.0095","4.72378","44.53","0","SATNPRO1509","29.692","0.41588","5"],
    [10161,"HCEP03730566","2024-01-12 03:45:00","10.967","3.39799","27.171","4.061","7.55","0.352","4.622","0.01","0.14","30.0092","4.72375","44.52","0","SATNPRO1509","29.718","0.41624","5"],
    [10162,"HCEP03730566","2024-01-12 04:00:00","10.967","3.39791","27.463","4.063","7.55","0.336","4.491","0.01","0.2","30.0083","4.72365","44.53","0","SATNPRO1509","29.718","0.41626","5"],
    [10163,"HCEP03730566","2024-01-12 04:15:00","10.9664","3.39754","27.612","4.055","7.55","0.356","4.734","0.01","0.21","30.0051","4.72322","44.45","0","SATNPRO1509","29.73","0.41644","5"],
    [10164,"HCEP03730566","2024-01-12 04:30:00","10.9649","3.39706","27.738","4.041","7.55","0.344","4.774","0.01","0.27","30.0016","4.72275","44.29","0","SATNPRO1509","29.666","0.41552","5"],
    [10165,"HCEP03730566","2024-01-12 04:45:00","10.9637","3.39662","27.897","4.023","7.55","0.362","5.29","0.01","0.4","29.9982","4.72229","44.09","0","SATNPRO1509","29.612000000000002","0.41472","5"],
    [10166,"HCEP03730566","2024-01-12 05:00:00","10.9642","3.39662","28.012","4.011","7.55","0.346","5.2","0.01","0.42","29.9978","4.72223","43.96","0","SATNPRO1509","29.580000000000002","0.4143","5"],
    [10167,"HCEP03730566","2024-01-12 05:15:00","10.9647","3.39685","28.158","4.017","7.55","0.359","5.33","0.01","0.27","29.9996","4.72248","44.03","0","SATNPRO1509","29.598","0.41456","5"],
    [10168,"HCEP03730566","2024-01-12 05:30:00","10.9649","3.39704","28.182","4.033","7.55","0.34","4.6","0.01","0.42","30.0012","4.72272","44.2","0","SATNPRO1509","29.718","0.41624","5"],
    [10169,"HCEP03730566","2024-01-12 05:45:00","10.9668","3.39774","28.111","4.047","7.55","0.356","4.563","0.01","0.28","30.0066","4.72344","44.36","0","SATNPRO1509","29.742","0.41658","5"],
    [10170,"HCEP03730566","2024-01-12 06:00:00","10.9687","3.39861","28.184","4.054","7.55","0.336","4.487","0.01","0.31","30.0135","4.7244","44.44","0","SATNPRO1509","29.752000000000002","0.4167","5"],
    [10171,"HCEP03730566","2024-01-12 06:15:00","10.9685","3.39875","28.202","4.069","7.55","0.353","4.331","0.01","0.27","30.015","4.72462","44.6","0","SATNPRO1509","29.826","0.4178","5"],
    [10172,"HCEP03730566","2024-01-12 06:30:00","10.9658","3.39863","28.272","4.114","7.55","0.324","3.623","0.01","0.22","30.016","4.7248","45.09","0","SATNPRO1509","29.99","0.42008","5"],
    [10173,"HCEP03730566","2024-01-12 06:45:00","10.9672","3.39934","28.245","4.134","7.55","0.327","3.921","0.01","0.25","30.0218","4.72561","45.32","0","SATNPRO1509","29.958","0.41966","5"],
    [10174,"HCEP03730566","2024-01-12 07:00:00","10.9695","3.4002","28.206","4.136","7.56","0.32","4.099","0.01","0.26","30.0283","4.72649","45.34","0","SATNPRO1509","29.942","0.41942","5"],
    [10175,"HCEP03730566","2024-01-12 07:15:00","10.9722","3.40112","28.172","4.135","7.56","0.346","4.117","0.03","0.25","30.0352","4.72742","45.34","0","SATNPRO1509","30.012","0.42038","5"],
    [10176,"HCEP03730566","2024-01-12 07:30:00","10.974","3.40158","28.076","4.127","7.56","0.321","4.04","0.01","0.18","30.0384","4.72784","45.26","0","SATNPRO1509","30.038","0.42072","5"],
    [10177,"HCEP03730566","2024-01-12 07:45:00","10.9747","3.40185","28.062","4.128","7.56","0.333","3.881","0.01","0.17","30.0403","4.7281","45.26","0","SATNPRO1509","29.974","0.41984","5"],
    [10178,"HCEP03730566","2024-01-12 08:00:00","10.9753","3.40206","28.041","4.125","7.56","0.319","4.025","0.01","0.18","30.042","4.72834","45.23","0","SATNPRO1509","30.014","0.4204","5"],
    [10179,"HCEP03730566","2024-01-12 08:15:00","10.9762","3.40227","27.944","4.128","7.56","0.331","3.966","0.01","0.21","30.0433","4.7285","45.27","0","SATNPRO1509","29.97","0.41976","5"],
    [10180,"HCEP03730566","2024-01-12 08:30:00","10.9762","3.40243","27.856","4.125","7.56","0.326","4.331","0.02","0.44","30.0449","4.72873","45.24","0","SATNPRO1509","29.982","0.41994","5"],
    [10181,"HCEP03730566","2024-01-12 08:45:00","10.9764","3.40252","27.78","4.126","7.56","0.335","4.135","0.01","0.31","30.0456","4.72881","45.24","0","SATNPRO1509","29.95","0.41948","5"],
    [10182,"HCEP03730566","2024-01-12 09:00:00","10.9756","3.40236","27.651","4.108","7.56","0.322","4.222","0.01","0.17","30.0447","4.7287","45.05","0","SATNPRO1509","29.844","0.418","5"],
    [10183,"HCEP03730566","2024-01-12 09:15:00","10.9697","3.4017","27.569","4.09","7.56","0.362","4.849","0.01","0.29","30.0432","4.72857","44.84","0","SATNPRO1509","29.746","0.41664","5"],
    [10184,"HCEP03730566","2024-01-12 09:30:00","10.9702","3.40174","27.493","4.102","7.56","0.348","4.301","0.02","0.27","30.0432","4.72855","44.98","0","SATNPRO1509","29.846","0.41804","5"],
    [10185,"HCEP03730566","2024-01-12 09:45:00","10.9695","3.4013","27.45","4.104","7.56","0.363","4.549","0.01","0.2","30.0395","4.72803","45","0","SATNPRO1509","29.866","0.4183","5"],
    [10186,"HCEP03730566","2024-01-12 10:00:00","10.9684","3.40079","27.299","4.104","7.56","0.339","4.131","0.02","0.32","30.0354","4.72746","44.99","0","SATNPRO1509","29.913999999999998","0.41902","5"],
    [10187,"HCEP03730566","2024-01-12 10:15:00","10.9653","3.39958","27.23","4.11","7.56","0.356","4.071","0.03","0.29","30.0261","4.72619","45.05","0","SATNPRO1509","29.98","0.41996","5"],
    [10188,"HCEP03730566","2024-01-12 10:30:00","10.9629","3.39863","27.156","4.117","7.56","0.511","6.596","0.03","0.35","30.0188","4.72519","45.13","0","SATNPRO1509","29.924","0.41914","5"],
    [10189,"HCEP03730566","2024-01-12 10:45:00","10.9643","3.39956","27.118","4.096","7.56","0.541","8.046","0.08","0.75","30.0268","4.7263","44.9","0","SATNPRO1509","29.868","0.41832","5"],
    [10190,"HCEP03730566","2024-01-12 11:00:00","10.9621","3.39912","27.028","4.098","7.56","0.374","6.39","0.03","1.2","30.0243","4.72597","44.92","0","SATNPRO1509","29.922","0.41908","5"],
    [10191,"HCEP03730566","2024-01-12 11:15:00","10.962","3.39919","26.98","4.124","7.56","0.355","4.662","0.02","0.35","30.0251","4.72608","45.21","0","SATNPRO1509","29.834","0.41788","5"],
    [10192,"HCEP03730566","2024-01-12 11:30:00","10.9643","3.39987","26.983","4.097","7.56","0.365","4.733","0.05","0.24","30.0299","4.72673","44.91","0","SATNPRO1509","29.838","0.41792","5"],
    [10193,"HCEP03730566","2024-01-12 11:45:00","10.9645","3.40002","26.958","4.087","7.55","0.37","4.582","0.04","0.22","30.0312","4.72691","44.8","0","SATNPRO1509","29.746","0.41664","5"],
    [10194,"HCEP03730566","2024-01-12 12:00:00","10.9618","3.39962","26.952","4.096","7.55","0.342","4.514","0.03","0.4","30.0295","4.7267","44.9","0","SATNPRO1509","29.726","0.4164","5"],
    [10195,"HCEP03730566","2024-01-12 12:15:00","10.9657","3.40057","26.976","4.084","7.55","0.358","4.804","0.03","0.18","30.0356","4.72751","44.77","0","SATNPRO1509","29.702","0.41602","5"],
    [10196,"HCEP03730566","2024-01-12 12:30:00","10.9663","3.40043","27.011","4.076","7.55","0.341","4.901","0.03","0.35","30.0338","4.72725","44.68","0","SATNPRO1509","29.766","0.41694","5"],
    [10197,"HCEP03730566","2024-01-12 12:45:00","10.9666","3.40046","27.047","4.069","7.55","0.354","4.76","0.02","0.19","30.0337","4.72724","44.61","0","SATNPRO1509","29.854","0.41816","5"],
    [10198,"HCEP03730566","2024-01-12 13:00:00","10.9652","3.40008","27.134","4.096","7.55","0.333","4.614","0.01","0.2","30.0312","4.7269","44.9","0","SATNPRO1509","29.814","0.41764","5"],
    [10199,"HCEP03730566","2024-01-12 13:15:00","10.9682","3.40076","27.21","4.102","7.55","0.346","3.594","0.03","0.29","30.0353","4.72745","44.97","0","SATNPRO1509","29.952","0.41954","5"],
    [10200,"HCEP03730566","2024-01-12 13:30:00","10.9708","3.4016","27.257","4.106","7.56","0.339","3.995","0.03","0.32","30.0415","4.72829","45.02","0","SATNPRO1509","30.016","0.42044","5"],
    [10201,"HCEP03730566","2024-01-12 13:45:00","10.9731","3.40221","27.354","4.088","7.55","0.368","4.16","0.02","0.27","30.0454","4.72882","44.82","0","SATNPRO1509","29.946","0.41946","5"],
    [10202,"HCEP03730566","2024-01-12 14:00:00","10.9746","3.40248","27.447","4.083","7.55","0.334","3.969","0.01","0.14","30.0469","4.729","44.77","0","SATNPRO1509","29.992","0.42008","5"],
    [10203,"HCEP03730566","2024-01-12 14:15:00","10.9751","3.40265","27.518","4.079","7.55","0.342","3.629","0.01","0.14","30.0481","4.72918","44.72","0","SATNPRO1509","29.942","0.41936","5"],
    [10204,"HCEP03730566","2024-01-12 14:30:00","10.9752","3.40267","27.615","4.072","7.55","0.337","3.741","0.02","0.21","30.0482","4.7292","44.66","0","SATNPRO1509","29.946","0.41942","5"],
    [10205,"HCEP03730566","2024-01-12 14:45:00","10.9733","3.40255","27.704","4.078","7.55","0.356","3.64","0.03","0.18","30.0485","4.72927","44.72","0","SATNPRO1509","29.906","0.41886","5"],
    [10206,"HCEP03730566","2024-01-12 15:00:00","10.9767","3.40294","27.759","4.061","7.55","0.329","3.902","0.01","0.18","30.0496","4.72937","44.53","0","SATNPRO1509","29.89","0.41864","5"],
    [10207,"HCEP03730566","2024-01-12 15:15:00","10.9769","3.40307","27.815","4.054","7.55","0.344","3.983","0.01","0.1","30.0506","4.72952","44.46","0","SATNPRO1509","29.86","0.41822","5"],
    [10208,"HCEP03730566","2024-01-12 15:30:00","10.9766","3.40307","27.919","4.053","7.55","0.33","4.03","0.01","0.18","30.0508","4.72956","44.45","0","SATNPRO1509","29.782","0.41716","5"],
    [10209,"HCEP03730566","2024-01-12 15:45:00","10.9761","3.40305","27.923","4.05","7.55","0.354","3.841","0.02","0.2","30.051","4.7296","44.41","0","SATNPRO1509","29.782","0.41714","5"],
    [10210,"HCEP03730566","2024-01-12 16:00:00","10.9764","3.40311","27.994","4.036","7.55","0.363","4.353","0.03","0.39","30.0513","4.72964","44.26","0","SATNPRO1509","29.856","0.41818","5"],
    [10211,"HCEP03730566","2024-01-12 16:15:00","10.9694","3.40268","28.015","4.08","7.55","0.351","3.214","0.02","0.15","30.0529","4.72997","44.73","0","SATNPRO1509","29.946","0.41942","5"],
    [10212,"HCEP03730566","2024-01-12 16:30:00","10.9714","3.40303","28.03","4.085","7.55","0.355","3.962","0.02","0.31","30.0546","4.73018","44.79","0","SATNPRO1509","29.86","0.41824","5"],
    [10213,"HCEP03730566","2024-01-12 16:45:00","10.9739","3.40309","28.025","4.056","7.55","0.395","5.439","0.08","2.52","30.0532","4.72994","44.48","0","SATNPRO1509","29.7","0.41598","5"],
    [10214,"HCEP03730566","2024-01-12 17:00:00","10.9724","3.40313","28.006","4.04","7.55","0.369","5.763","0.05","1.91","30.0548","4.73019","44.3","0","SATNPRO1509","29.752","0.41672","5"],
    [10215,"HCEP03730566","2024-01-12 17:15:00","10.972","3.40318","27.974","4.058","7.55","0.35","4.264","0.02","0.24","30.0557","4.73032","44.5","0","SATNPRO1509","29.772","0.417","5"],
    [10216,"HCEP03730566","2024-01-12 17:30:00","10.9739","3.4033","27.914","4.031","7.55","0.395","6.717","0.12","3.66","30.0553","4.73024","44.2","0","SATNPRO1509","29.546","0.4138","5"],
    [10217,"HCEP03730566","2024-01-12 17:45:00","10.9756","3.40341","27.833","4.001","7.55","0.347","4.969","0.01","0.31","30.055","4.73017","43.88","0","SATNPRO1509","29.534","0.41368","5"],
    [10218,"HCEP03730566","2024-01-12 18:00:00","10.9636","3.40235","27.729","4.07","7.55","0.321","3.782","0.01","0.32","30.0545","4.73027","44.63","0","SATNPRO1509","29.652","0.4153","5"],
    [10219,"HCEP03730566","2024-01-12 18:15:00","10.9503","3.40126","27.609","4.221","7.56","0.34","3.434","0.01","0.2","30.0548","4.73051","46.27","0","SATNPRO1509","29.855999999999998","0.41822","5"],
    [10220,"HCEP03730566","2024-01-12 18:30:00","10.9389","3.40023","27.467","4.344","7.56","0.316","16.582","0.03","28.03","30.054","4.73057","47.6","0","SATNPRO1509","29.864","0.41828","5"],
    [10221,"HCEP03730566","2024-01-12 18:45:00","10.9318","3.39953","27.295","4.45","7.57","0.315","2.038","0.01","0.07","30.053","4.73052","48.76","0","SATNPRO1509","30","0.42022","5"],
    [10222,"HCEP03730566","2024-01-12 19:00:00","10.9343","3.39984","27.114","4.47","7.58","0.302","2.049","0.01","0.09","30.0542","4.73064","48.98","0","SATNPRO1509","29.944","0.41944","5"],
    [10223,"HCEP03730566","2024-01-12 19:15:00","10.9362","3.40015","26.867","4.417","7.58","0.315","2.357","0.01","0.09","30.0557","4.73082","48.4","0","SATNPRO1509","29.96","0.41966","5"],
    [10224,"HCEP03730566","2024-01-12 19:30:00","10.9486","3.40102","26.618","4.3","7.58","0.313","3.147","0.01","0.13","30.0541","4.73039","47.12","0","SATNPRO1509","29.778000000000002","0.41708","5"],
    [10225,"HCEP03730566","2024-01-12 19:45:00","10.9777","3.40362","26.391","4.034","7.57","0.352","4.842","0.02","0.27","30.0559","4.73018","44.24","0","SATNPRO1509","29.43","0.41222","5"],
    [10226,"HCEP03730566","2024-01-12 20:00:00","10.9771","3.40354","26.171","3.988","7.55","0.332","4.369","0.01","0.13","30.0558","4.73016","43.74","0","SATNPRO1509","29.568","0.41416","5"],
    [10227,"HCEP03730566","2024-01-12 20:15:00","10.9771","3.40353","25.89","3.976","7.55","0.347","4.615","0.01","0.15","30.0556","4.73012","43.61","0","SATNPRO1509","29.462","0.41268","5"],
    [10228,"HCEP03730566","2024-01-12 20:30:00","10.9478","3.40138","25.695","4.201","7.55","0.327","4.411","0.01","0.24","30.0587","4.731","46.04","0","SATNPRO1509","29.606","0.41468","5"],
    [10229,"HCEP03730566","2024-01-12 20:45:00","10.9606","3.40199","25.412","4.156","7.56","0.346","4.75","0.01","0.18","30.0544","4.73017","45.56","0","SATNPRO1509","29.468","0.41274","5"],
    [10230,"HCEP03730566","2024-01-12 21:00:00","10.9574","3.40198","25.119","4.129","7.56","0.368","6.472","0.03","0.66","30.057","4.73057","45.26","0","SATNPRO1509","29.278","0.41012","5"],
    [10231,"HCEP03730566","2024-01-12 21:15:00","10.9533","3.40173","24.886","4.153","7.56","0.352","5.302","0.01","0.34","30.058","4.73076","45.53","0","SATNPRO1509","29.512","0.41336","5"],
    [10232,"HCEP03730566","2024-01-12 21:30:00","10.9462","3.40148","24.586","4.283","7.56","0.326","4.723","0.01","0.43","30.0615","4.73136","46.94","0","SATNPRO1509","29.556","0.41398","5"],
    [10233,"HCEP03730566","2024-01-12 21:45:00","10.9457","3.40146","24.291","4.297","7.57","0.338","4.659","0.01","0.21","30.0618","4.73138","47.09","0","SATNPRO1509","29.744","0.41662","5"],
    [10234,"HCEP03730566","2024-01-12 22:00:00","10.9446","3.40132","24.149","4.298","7.57","0.322","4.281","0.01","0.14","30.0614","4.73134","47.1","0","SATNPRO1509","29.712","0.41618","5"],
    [10235,"HCEP03730566","2024-01-12 22:15:00","10.9442","3.40111","23.875","4.282","7.57","0.336","4.297","0.01","0.16","30.0598","4.7311","46.93","0","SATNPRO1509","29.716","0.41624","5"],
    [10236,"HCEP03730566","2024-01-12 22:30:00","10.9445","3.40089","23.718","4.263","7.57","0.32","3.938","0.01","0.14","30.0574","4.73075","46.72","0","SATNPRO1509","29.76","0.41684","5"],
    [10237,"HCEP03730566","2024-01-12 22:45:00","10.9442","3.40085","23.709","4.247","7.57","0.338","4.211","0.01","0.16","30.0573","4.73074","46.54","0","SATNPRO1509","29.642","0.41518","5"],
    [10238,"HCEP03730566","2024-01-12 23:00:00","10.9437","3.40079","23.624","4.231","7.57","0.327","4.463","0.01","0.15","30.0571","4.73071","46.37","0","SATNPRO1509","29.72","0.4163","5"],
    [10239,"HCEP03730566","2024-01-12 23:15:00","10.9429","3.40069","23.587","4.236","7.57","0.339","4.305","0.01","0.16","30.0568","4.73068","46.42","0","SATNPRO1509","29.666","0.41556","5"],
    [10240,"HCEP03730566","2024-01-12 23:30:00","10.9412","3.4007","23.548","4.259","7.57","0.325","4.11","0.01","0.14","30.0583","4.73093","46.68","0","SATNPRO1509","29.798000000000002","0.41736","5"],
    [10241,"HCEP03730566","2024-01-12 23:45:00","10.9426","3.40042","23.59","4.271","7.57","0.332","3.645","0.01","0.38","30.0544","4.73034","46.8","0","SATNPRO1509","29.894000000000002","0.4187","5"],
    [10242,"HCEP03730566","2024-01-13 00:00:00","10.9431","3.40043","23.655","4.262","7.57","0.315","3.93","0.01","0.11","30.054","4.73029","46.71","0","SATNPRO1509","29.864","0.4183","5"],
    [10243,"HCEP03730566","2024-01-13 00:15:00","10.9432","3.39966","23.714","4.255","7.57","0.325","3.355","0.01","0.09","30.0464","4.72921","46.62","0","SATNPRO1509","29.913999999999998","0.419","5"],
    [10244,"HCEP03730566","2024-01-13 00:30:00","10.9432","3.40001","23.833","4.241","7.57","0.317","3.959","0.01","0.11","30.0498","4.7297","46.48","0","SATNPRO1509","29.786","0.4172","5"],
    [10245,"HCEP03730566","2024-01-13 00:45:00","10.9434","3.4001","24.03","4.232","7.57","0.337","4.279","0.01","0.15","30.0504","4.7298","46.38","0","SATNPRO1509","29.727999999999998","0.41636","5"],
    [10246,"HCEP03730566","2024-01-13 01:00:00","10.9431","3.40019","24.191","4.237","7.57","0.324","4.358","0.01","0.14","30.0515","4.72996","46.43","0","SATNPRO1509","29.758","0.41684","5"],
    [10247,"HCEP03730566","2024-01-13 01:15:00","10.9428","3.4002","24.421","4.244","7.57","0.331","3.865","0.01","0.13","30.0517","4.73001","46.5","0","SATNPRO1509","29.817999999999998","0.41762","5"],
    [10248,"HCEP03730566","2024-01-13 01:30:00","10.9425","3.40014","24.609","4.251","7.57","0.315","3.619","0.01","0.1","30.0513","4.72997","46.58","0","SATNPRO1509","29.862000000000002","0.41826","5"],
    [10249,"HCEP03730566","2024-01-13 01:45:00","10.9428","3.40021","24.834","4.24","7.57","0.332","3.741","0.01","0.14","30.0517","4.73003","46.46","0","SATNPRO1509","29.738","0.41658","5"],
    [10250,"HCEP03730566","2024-01-13 02:00:00","10.9427","3.40017","25.046","4.235","7.57","0.323","3.783","0.02","0.09","30.0513","4.72998","46.41","0","SATNPRO1509","29.75","0.4167","5"],
    [10251,"HCEP03730566","2024-01-13 02:15:00","10.9428","3.40016","25.256","4.227","7.57","0.331","3.846","0.01","0.1","30.051","4.72996","46.32","0","SATNPRO1509","29.804","0.41742","5"],
    [10252,"HCEP03730566","2024-01-13 02:30:00","10.9431","3.40021","25.465","4.215","7.57","0.318","4.088","0.01","0.12","30.0512","4.72999","46.19","0","SATNPRO1509","29.786","0.4172","5"],
    [10253,"HCEP03730566","2024-01-13 02:45:00","10.9431","3.4002","25.704","4.212","7.57","0.331","4.273","0.01","0.11","30.0509","4.72997","46.16","0","SATNPRO1509","29.632","0.4151","5"],
    [10254,"HCEP03730566","2024-01-13 03:00:00","10.9432","3.40013","25.935","4.218","7.56","0.313","3.998","0.01","0.1","30.0501","4.72987","46.22","0","SATNPRO1509","29.842","0.41796","5"],
    [10255,"HCEP03730566","2024-01-13 03:15:00","10.9429","3.39995","26.124","4.224","7.57","0.325","3.67","0.01","0.08","30.0485","4.72965","46.29","0","SATNPRO1509","29.708","0.41608","5"],
    [10256,"HCEP03730566","2024-01-13 03:30:00","10.9433","3.39999","26.37","4.222","7.57","0.31","3.815","0.01","0.1","30.0485","4.72966","46.26","0","SATNPRO1509","29.838","0.41794","5"],
    [10257,"HCEP03730566","2024-01-13 03:45:00","10.9432","3.39998","26.612","4.219","7.57","0.326","3.943","0.01","0.06","30.0483","4.72965","46.24","0","SATNPRO1509","29.784","0.41716","5"],
    [10258,"HCEP03730566","2024-01-13 04:00:00","10.9434","3.39983","26.834","4.219","7.57","0.311","3.903","0.01","0.08","30.0467","4.72943","46.23","0","SATNPRO1509","29.852","0.41812","5"],
    [10259,"HCEP03730566","2024-01-13 04:15:00","10.9433","3.39983","27.096","4.212","7.56","0.33","3.937","0.01","0.12","30.0467","4.72945","46.15","0","SATNPRO1509","29.826","0.41778","5"],
    [10260,"HCEP03730566","2024-01-13 04:30:00","10.9432","3.39936","27.287","4.23","7.56","4.914","614.744","4.17","221.62","30.042","4.72879","46.35","0","SATNPRO1509","29.848","0.41804","5"],
    [10261,"HCEP03730566","2024-01-13 04:45:00","10.9441","3.39949","27.486","4.223","7.56","0.33","4.091","0.01","0.33","30.0425","4.72886","46.28","0","SATNPRO1509","29.778","0.4171","5"],
    [10262,"HCEP03730566","2024-01-13 05:00:00","10.9451","3.39951","27.643","4.214","7.56","2.159","34.866","1.73","26.18","30.0418","4.72874","46.17","0","SATNPRO1509","29.618","0.41486","5"],
    [10263,"HCEP03730566","2024-01-13 05:15:00","10.9457","3.39941","27.8","4.207","7.56","0.325","4.228","0.01","0.62","30.0403","4.72854","46.11","0","SATNPRO1509","29.73","0.41642","5"],
    [10264,"HCEP03730566","2024-01-13 05:30:00","10.9474","3.39937","27.889","4.204","7.56","0.319","4.937","0.02","0.74","30.0385","4.72826","46.06","0","SATNPRO1509","29.582","0.41436","5"],
    [10265,"HCEP03730566","2024-01-13 05:45:00","10.9506","3.39942","28.031","4.184","7.56","0.338","4.749","0.02","0.69","30.0363","4.72791","45.85","0","SATNPRO1509","29.528","0.41358","5"],
    [10266,"HCEP03730566","2024-01-13 06:00:00","10.952","3.39946","28.146","4.159","7.56","0.33","4.669","0.02","0.36","30.0355","4.72778","45.58","0","SATNPRO1509","29.568","0.41418","5"],
    [10267,"HCEP03730566","2024-01-13 06:15:00","10.9555","3.39964","28.174","4.126","7.56","0.335","5.006","0.01","0.75","30.034300000000002","4.72756","45.23","0","SATNPRO1509","29.54","0.41378","5"],
    [10268,"HCEP03730566","2024-01-13 06:30:00","10.9595","3.39981","28.234","4.067","7.56","0.677","11.35","0.36","5.73","30.0328","4.72728","44.58","0","SATNPRO1509","29.52","0.41344","5"],
    [10269,"HCEP03730566","2024-01-13 06:45:00","10.9605","3.39964","28.226","4.047","7.55","0.41","8.907","0.03","1.68","30.0303","4.72691","44.35","0","SATNPRO1509","29.64","0.41516","5"],
    [10270,"HCEP03730566","2024-01-13 07:00:00","10.9604","3.39958","28.244","4.044","7.55","0.544","8.304","0.06","0.62","30.0297","4.72683","44.33","0","SATNPRO1509","29.688","0.41586","5"],
    [10271,"HCEP03730566","2024-01-13 07:15:00","10.9603","3.39951","28.274","4.054","7.55","0.617","8.75","0.12","2.58","30.0292","4.72676","44.44","0","SATNPRO1509","29.646","0.4153","5"],
    [10272,"HCEP03730566","2024-01-13 07:30:00","10.9609","3.39951","28.266","4.037","7.55","0.41","4.604","0.04","0.28","30.0287","4.72668","44.24","0","SATNPRO1509","29.674","0.41566","5"],
    [10273,"HCEP03730566","2024-01-13 07:45:00","10.9619","3.39959","28.213","4.018","7.55","0.344","5.629","0.03","1.2","30.0287","4.72666","44.04","0","SATNPRO1509","29.674","0.41564","5"],
    [10274,"HCEP03730566","2024-01-13 08:00:00","10.9627","3.39956","28.142","3.997","7.55","0.471","5.627","0.06","0.9","30.0276","4.7265","43.82","0","SATNPRO1509","29.656","0.41542","5"],
    [10275,"HCEP03730566","2024-01-13 08:15:00","10.9631","3.39947","28.118","3.982","7.55","0.468","6.316","0.06","1.12","30.0265","4.72633","43.65","0","SATNPRO1509","29.672","0.41562","5"],
    [10276,"HCEP03730566","2024-01-13 08:30:00","10.9632","3.39947","28.048","3.967","7.55","0.381","4.85","0.03","0.26","30.0265","4.72632","43.48","0","SATNPRO1509","29.602","0.41466","5"],
    [10277,"HCEP03730566","2024-01-13 08:45:00","10.9634","3.39946","27.94","3.954","7.54","0.354","4.415","0.03","0.23","30.0262","4.72627","43.34","0","SATNPRO1509","29.668","0.41552","5"],
    [10278,"HCEP03730566","2024-01-13 09:00:00","10.9634","3.39945","27.869","3.948","7.54","0.336","4.201","0.02","0.21","30.0262","4.72626","43.28","0","SATNPRO1509","29.568","0.41416","5"],
    [10279,"HCEP03730566","2024-01-13 09:15:00","10.9635","3.39952","27.786","3.935","7.54","0.362","4.436","0.02","0.2","30.0269","4.72635","43.13","0","SATNPRO1509","29.506","0.41328","5"],
    [10280,"HCEP03730566","2024-01-13 09:30:00","10.9635","3.39954","27.666","3.925","7.54","0.33","4.321","0.01","0.23","30.0271","4.72638","43.02","0","SATNPRO1509","29.468","0.41274","5"],
    [10281,"HCEP03730566","2024-01-13 09:45:00","10.9633","3.39939","27.583","3.921","7.54","0.353","4.282","0.02","0.16","30.0258","4.7262","42.98","0","SATNPRO1509","29.496","0.41316","5"],
    [10282,"HCEP03730566","2024-01-13 10:00:00","10.9636","3.39946","27.526","3.921","7.54","0.342","4.425","0.01","0.17","30.0262","4.72625","42.98","0","SATNPRO1509","29.418","0.41206","5"],
    [10283,"HCEP03730566","2024-01-13 10:15:00","10.9618","3.39936","27.414","3.942","7.54","0.377","4.26","0.02","0.19","30.0267","4.72634","43.2","0","SATNPRO1509","29.53","0.41364","5"],
    [10284,"HCEP03730566","2024-01-13 10:30:00","10.9603","3.39929","27.335","3.984","7.54","0.342","3.681","0.01","0.14","30.0274","4.72645","43.66","0","SATNPRO1509","29.638","0.4151","5"],
    [10285,"HCEP03730566","2024-01-13 10:45:00","10.9613","3.39952","27.13","3.971","7.54","0.349","3.777","0.01","0.14","30.0289","4.72664","43.52","0","SATNPRO1509","29.486","0.41302","5"],
    [10286,"HCEP03730566","2024-01-13 11:00:00","10.9617","3.39936","27.001","3.945","7.54","0.342","4.702","0.01","0.21","30.0271","4.72637","43.24","0","SATNPRO1509","29.48","0.41292","5"],
    [10287,"HCEP03730566","2024-01-13 11:15:00","10.961","3.39902","26.898","3.939","7.54","0.725","9.079","0.19","1.82","30.0243","4.72598","43.18","0","SATNPRO1509","29.468","0.41274","5"],
    [10288,"HCEP03730566","2024-01-13 11:30:00","10.9613","3.39885","26.815","3.929","7.54","0.33","4.387","0.01","0.29","30.0224","4.72569","43.07","0","SATNPRO1509","29.562","0.41408","5"],
    [10289,"HCEP03730566","2024-01-13 11:45:00","10.961","3.39868","26.733","3.931","7.54","0.362","4.187","0.02","0.33","30.021","4.7255","43.09","0","SATNPRO1509","29.698","0.416","5"],
    [10290,"HCEP03730566","2024-01-13 12:00:00","10.961","3.39843","26.68","3.936","7.54","0.331","4.012","0.01","0.3","30.0186","4.72516","43.14","0","SATNPRO1509","29.73","0.41644","5"],
    [10291,"HCEP03730566","2024-01-13 12:15:00","10.9593","3.39812","26.64","3.947","7.54","0.354","3.369","0.05","0.19","30.0171","4.72496","43.25","0","SATNPRO1509","29.696","0.41596","5"],
    [10292,"HCEP03730566","2024-01-13 12:30:00","10.9605","3.39834","26.619","3.931","7.54","0.362","4.93","0.11","4.34","30.0182","4.7251","43.08","0","SATNPRO1509","29.642","0.4152","5"],
    [10293,"HCEP03730566","2024-01-13 12:45:00","10.9602","3.39822","26.628","3.934","7.54","0.358","3.763","0.02","0.2","30.0173","4.72498","43.11","0","SATNPRO1509","29.650000000000002","0.41534","5"],
    [10294,"HCEP03730566","2024-01-13 13:00:00","10.9608","3.39832","26.678","3.924","7.54","0.324","3.483","0.01","0.49","30.0178","4.72504","43.01","0","SATNPRO1509","29.748","0.41664","5"],
    [10295,"HCEP03730566","2024-01-13 13:15:00","10.9615","3.39838","26.706","3.882","7.54","0.341","3.565","0.01","0.18","30.0177","4.72503","42.55","0","SATNPRO1509","29.694","0.4159","5"],
    [10296,"HCEP03730566","2024-01-13 13:30:00","10.9604","3.39827","26.759","3.914","7.54","0.346","4.075","0.03","0.19","30.0175","4.72501","42.89","0","SATNPRO1509","29.752","0.41672","5"],
    [10297,"HCEP03730566","2024-01-13 13:45:00","10.9609","3.3984","26.826","3.905","7.54","0.356","3.632","0.04","0.3","30.0184","4.72514","42.8","0","SATNPRO1509","29.614","0.41476","5"],
    [10298,"HCEP03730566","2024-01-13 14:00:00","10.9615","3.39849","26.904","3.907","7.54","0.337","3.739","0.02","0.19","30.0187","4.72518","42.82","0","SATNPRO1509","29.556","0.41398","5"],
    [10299,"HCEP03730566","2024-01-13 14:15:00","10.96","3.39866","26.974","3.917","7.54","0.344","3.75","0.01","0.24","30.0216","4.72562","42.93","0","SATNPRO1509","29.546","0.41382","5"],
    [10300,"HCEP03730566","2024-01-13 14:30:00","10.9609","3.39906","27.094","3.902","7.54","0.484","5.742","0.13","0.41","30.0247","4.72605","42.77","0","SATNPRO1509","29.206","0.40908","5"],
    [10301,"HCEP03730566","2024-01-13 14:45:00","10.9583","3.39895","27.199","3.911","7.54","0.45","6.448","0.09","1.91","30.0257","4.72624","42.86","0","SATNPRO1509","29.332","0.41082","5"],
    [10302,"HCEP03730566","2024-01-13 15:00:00","10.939","3.39516","27.248","4.009","7.54","0.325","3.074","0.01","0.18","30.0043","4.7235","43.91","0","SATNPRO1509","29.524","0.41354","5"],
    [10303,"HCEP03730566","2024-01-13 15:15:00","10.9494","3.39741","27.328","3.965","7.54","0.371","4.342","0.02","0.21","30.0178","4.72526","43.45","0","SATNPRO1509","29.093999999999998","0.4075","5"],
    [10304,"HCEP03730566","2024-01-13 15:30:00","10.9515","3.39775","27.405","3.917","7.54","0.348","4.65","0.02","0.2","30.0194","4.72546","42.92","0","SATNPRO1509","29.002","0.40624","5"],
    [10305,"HCEP03730566","2024-01-13 15:45:00","10.9497","3.39707","27.493","3.919","7.54","0.366","4.458","0.04","0.32","30.0142","4.72475","42.95","0","SATNPRO1509","28.990000000000002","0.40604","5"],
    [10306,"HCEP03730566","2024-01-13 16:00:00","10.9471","3.39635","27.575","3.922","7.54","0.354","4.608","0.01","0.22","30.0093","4.72409","42.97","0","SATNPRO1509","29.038","0.40672","5"],
    [10307,"HCEP03730566","2024-01-13 16:15:00","10.9282","3.39055","27.66","3.957","7.54","0.38","4.584","0.02","0.37","29.9679","4.71851","43.32","0","SATNPRO1509","29.226","0.40936","5"],
    [10308,"HCEP03730566","2024-01-13 16:30:00","10.9325","3.39251","27.748","3.952","7.54","0.376","5.174","0.06","0.25","29.9836","4.72068","43.28","0","SATNPRO1509","29.076","0.4073","5"],
    [10309,"HCEP03730566","2024-01-13 16:45:00","10.9231","3.38966","27.823","3.983","7.54","0.37","4.556","0.05","0.19","29.9632","4.71794","43.61","0","SATNPRO1509","29.284","0.41018","5"],
    [10310,"HCEP03730566","2024-01-13 17:00:00","10.9189","3.38833","27.881","3.999","7.54","0.352","4.967","0.02","0.25","29.9536","4.71664","43.77","0","SATNPRO1509","29.332","0.41086","5"],
    [10311,"HCEP03730566","2024-01-13 17:15:00","10.9225","3.38981","27.901","4.001","7.54","0.348","3.854","0.01","0.18","29.9651","4.71822","43.8","0","SATNPRO1509","29.546","0.41382","5"],
    [10312,"HCEP03730566","2024-01-13 17:30:00","10.927","3.39115","27.933","3.989","7.54","0.336","4.229","0.01","0.2","29.9746","4.7195","43.67","0","SATNPRO1509","29.628","0.41498","5"],
    [10313,"HCEP03730566","2024-01-13 17:45:00","10.9334","3.39309","27.908","3.976","7.54","0.339","3.741","0.01","0.15","29.9884","4.72136","43.55","0","SATNPRO1509","29.61","0.41474","5"],
    [10314,"HCEP03730566","2024-01-13 18:00:00","10.9367","3.39405","27.902","3.974","7.54","0.347","4.156","0.02","0.29","29.9951","4.72227","43.53","0","SATNPRO1509","29.692","0.4159","5"],
    [10315,"HCEP03730566","2024-01-13 18:15:00","10.9372","3.39414","27.888","3.972","7.54","0.423","5.779","0.09","2.33","29.9955","4.72231","43.5","0","SATNPRO1509","29.666","0.41552","5"],
    [10316,"HCEP03730566","2024-01-13 18:30:00","10.937","3.39415","27.793","3.983","7.54","0.377","3.972","0.03","0.3","29.9959","4.72237","43.62","0","SATNPRO1509","29.632","0.41506","5"],
    [10317,"HCEP03730566","2024-01-13 18:45:00","10.9368","3.39412","27.743","3.98","7.54","0.419","4.382","0.03","0.3","29.9958","4.72235","43.6","0","SATNPRO1509","29.666","0.4155","5"],
    [10318,"HCEP03730566","2024-01-13 19:00:00","10.9389","3.39448","27.645","3.959","7.54","0.38","4.529","0.02","0.31","29.9976","4.72257","43.36","0","SATNPRO1509","29.648","0.41528","5"],
    [10319,"HCEP03730566","2024-01-13 19:15:00","10.939","3.39456","27.474","3.96","7.54","0.378","3.996","0.03","0.24","29.9984","4.72267","43.38","0","SATNPRO1509","29.71","0.41614","5"],
    [10320,"HCEP03730566","2024-01-13 19:30:00","10.9409","3.39513","27.354","3.953","7.54","0.368","4.127","0.02","0.35","30.0024","4.72321","43.3","0","SATNPRO1509","29.694","0.41592","5"],
    [10321,"HCEP03730566","2024-01-13 19:45:00","10.9434","3.39573","27.174","3.937","7.54","0.371","4.027","0.03","0.2","30.0064","4.72372","43.13","0","SATNPRO1509","29.508","0.41332","5"],
    [10322,"HCEP03730566","2024-01-13 20:00:00","10.9447","3.39618","26.97","3.931","7.54","0.388","5.538","0.03","0.9","30.0098","4.72417","43.07","0","SATNPRO1509","29.626","0.41496","5"],
    [10323,"HCEP03730566","2024-01-13 20:15:00","10.9434","3.39611","26.743","3.949","7.54","0.384","4.408","0.02","0.22","30.0103","4.72425","43.27","0","SATNPRO1509","29.662","0.41546","5"],
    [10324,"HCEP03730566","2024-01-13 20:30:00","10.9441","3.39624","26.539","3.95","7.54","0.371","4.293","0.02","0.25","30.0111","4.72435","43.28","0","SATNPRO1509","29.594","0.4145","5"],
    [10325,"HCEP03730566","2024-01-13 20:45:00","10.944","3.39628","26.299","3.953","7.54","0.342","3.908","0.01","0.2","30.0116","4.7244","43.31","0","SATNPRO1509","29.642","0.41518","5"],
    [10326,"HCEP03730566","2024-01-13 21:00:00","10.9439","3.39629","26.069","3.95","7.54","0.331","4.274","0.02","0.3","30.0118","4.72442","43.28","0","SATNPRO1509","29.594","0.4145","5"],
    [10327,"HCEP03730566","2024-01-13 21:15:00","10.9439","3.39631","25.837","3.954","7.54","0.363","4.243","0.02","0.27","30.0122","4.72447","43.32","0","SATNPRO1509","29.612000000000002","0.41474","5"],
    [10328,"HCEP03730566","2024-01-13 21:30:00","10.9433","3.3962","25.574","3.955","7.54","0.357","4.17","0.03","0.22","30.0117","4.72439","43.33","0","SATNPRO1509","29.662","0.41544","5"],
    [10329,"HCEP03730566","2024-01-13 21:45:00","10.9433","3.39613","25.355","3.946","7.54","0.377","4.331","0.02","0.28","30.0111","4.72429","43.23","0","SATNPRO1509","29.54","0.41376","5"],
    [10330,"HCEP03730566","2024-01-13 22:00:00","10.9432","3.39608","25.116","3.942","7.54","0.335","4.084","0.01","0.13","30.0108","4.72423","43.18","0","SATNPRO1509","29.6","0.41458","5"],
    [10331,"HCEP03730566","2024-01-13 22:15:00","10.9426","3.39597","24.843","3.933","7.54","0.355","4.339","0.02","0.29","30.0103","4.72415","43.09","0","SATNPRO1509","29.58","0.4143","5"],
    [10332,"HCEP03730566","2024-01-13 22:30:00","10.9425","3.39594","24.572","3.938","7.54","0.368","4.144","0.02","0.22","30.0102","4.72412","43.14","0","SATNPRO1509","29.488","0.41304","5"],
    [10333,"HCEP03730566","2024-01-13 22:45:00","10.942","3.39585","24.355","3.932","7.54","0.355","4.109","0.01","0.21","30.0097","4.72406","43.08","0","SATNPRO1509","29.439999999999998","0.41234","5"],
    [10334,"HCEP03730566","2024-01-13 23:00:00","10.9418","3.39576","24.157","3.943","7.54","0.367","4.212","0.03","0.3","30.0092","4.72397","43.2","0","SATNPRO1509","29.638","0.4151","5"],
    [10335,"HCEP03730566","2024-01-13 23:15:00","10.941","3.39563","23.967","3.952","7.54","0.344","3.555","0.01","0.24","30.0087","4.7239","43.29","0","SATNPRO1509","29.616","0.41484","5"],
    [10336,"HCEP03730566","2024-01-13 23:30:00","10.9407","3.39548","23.868","3.954","7.54","0.341","4.348","0.02","0.55","30.0075","4.72373","43.31","0","SATNPRO1509","29.544","0.41386","5"],
    [10337,"HCEP03730566","2024-01-13 23:45:00","10.9402","3.39539","23.826","3.945","7.54","0.359","3.696","0.02","0.27","30.0069","4.72366","43.22","0","SATNPRO1509","29.52","0.4135","5"],
    [10338,"HCEP03730566","2024-01-14 00:00:00","10.9395","3.39509","23.813","3.939","7.54","0.327","3.608","0.01","0.17","30.0046","4.72334","43.15","0","SATNPRO1509","29.47","0.41276","5"],
    [10339,"HCEP03730566","2024-01-14 00:15:00","10.9386","3.39484","23.792","3.939","7.54","0.374","3.613","0.03","0.24","30.0029","4.72311","43.15","0","SATNPRO1509","29.522000000000002","0.4135","5"],
    [10340,"HCEP03730566","2024-01-14 00:30:00","10.9382","3.39474","23.806","3.953","7.54","0.326","2.984","0.02","0.11","30.0022","4.72302","43.3","0","SATNPRO1509","29.686","0.41582","5"],
    [10341,"HCEP03730566","2024-01-14 00:45:00","10.9377","3.39457","23.84","3.969","7.54","0.37","2.931","0.05","0.18","30.001","4.72286","43.47","0","SATNPRO1509","29.722","0.4163","5"],
    [10342,"HCEP03730566","2024-01-14 01:00:00","10.9382","3.39473","23.913","3.96","7.54","0.341","3.627","0.02","0.19","30.0021","4.72301","43.38","0","SATNPRO1509","29.568","0.41414","5"],
    [10343,"HCEP03730566","2024-01-14 01:15:00","10.937","3.39438","24.029","3.967","7.54","0.354","3.02","0.03","0.12","29.9996","4.72268","43.45","0","SATNPRO1509","29.732","0.41642","5"],
    [10344,"HCEP03730566","2024-01-14 01:30:00","10.94","3.3953","24.156","3.944","7.54","0.348","3.538","0.01","0.12","30.0061","4.72356","43.2","0","SATNPRO1509","29.618","0.41484","5"],
    [10345,"HCEP03730566","2024-01-14 01:45:00","10.9356","3.39394","24.348","3.957","7.54","0.366","3.343","0.01","0.2","29.9963","4.72225","43.34","0","SATNPRO1509","29.726","0.41634","5"],
    [10346,"HCEP03730566","2024-01-14 02:00:00","10.9356","3.3939","24.516","3.951","7.54","0.376","3.985","0.02","0.44","29.9959","4.7222","43.28","0","SATNPRO1509","29.7","0.41602","5"],
    [10347,"HCEP03730566","2024-01-14 02:15:00","10.9345","3.39348","24.719","3.948","7.54","0.373","3.377","0.02","0.13","29.9925","4.72175","43.24","0","SATNPRO1509","29.7","0.416","5"],
    [10348,"HCEP03730566","2024-01-14 02:30:00","10.943","3.39533","24.963","3.858","7.54","1.772","16.786","0.9","8.02","30.0037","4.72321","42.26","0","SATNPRO1509","29.128","0.40798","5"],
    [10349,"HCEP03730566","2024-01-14 02:45:00","10.9484","3.39611","25.173","3.762","7.53","0.352","5.519","0.01","0.48","30.0068","4.72359","41.21","0","SATNPRO1509","28.881999999999998","0.40454","5"],
    [10350,"HCEP03730566","2024-01-14 03:00:00","10.9507","3.39651","25.362","3.751","7.53","1.146","13.307","0.39","5.94","30.0088","4.72384","41.1","0","SATNPRO1509","28.89","0.4047","5"],
    [10351,"HCEP03730566","2024-01-14 03:15:00","10.9509","3.39659","25.598","3.777","7.53","0.367","4.952","0.01","0.24","30.0093","4.72393","41.39","0","SATNPRO1509","29.382","0.41154","5"],
    [10352,"HCEP03730566","2024-01-14 03:30:00","10.954","3.39723","25.805","3.786","7.53","0.353","5.235","0.01","0.14","30.0129","4.72441","41.49","0","SATNPRO1509","29.212","0.40918","5"],
    [10353,"HCEP03730566","2024-01-14 03:45:00","10.9557","3.39729","26.058","3.795","7.53","0.377","5.108","0.02","0.17","30.012","4.72427","41.59","0","SATNPRO1509","29.396","0.41172","5"],
    [10354,"HCEP03730566","2024-01-14 04:00:00","10.9548","3.39675","26.279","3.804","7.53","0.354","4.745","0.01","0.14","30.0075","4.72365","41.68","0","SATNPRO1509","29.438","0.41236","5"],
    [10355,"HCEP03730566","2024-01-14 04:15:00","10.9576","3.3971","26.529","3.772","7.53","0.378","5.22","0.01","0.15","30.0085","4.72377","41.34","0","SATNPRO1509","29.384","0.41156","5"],
    [10356,"HCEP03730566","2024-01-14 04:30:00","10.9581","3.39715","26.795","3.755","7.53","0.358","4.863","0.02","0.15","30.0084","4.72376","41.15","0","SATNPRO1509","29.38","0.41154","5"],
    [10357,"HCEP03730566","2024-01-14 04:45:00","10.9573","3.39695","27.018","3.752","7.53","0.368","4.897","0.01","0.2","30.0071","4.72359","41.12","0","SATNPRO1509","29.388","0.41164","5"],
    [10358,"HCEP03730566","2024-01-14 05:00:00","10.9562","3.39673","27.216","3.759","7.53","0.359","4.795","0.01","0.13","30.0057","4.72343","41.2","0","SATNPRO1509","29.384","0.41162","5"],
    [10359,"HCEP03730566","2024-01-14 05:15:00","10.9541","3.39621","27.419","3.773","7.53","0.376","4.719","0.02","0.25","30.0022","4.72298","41.34","0","SATNPRO1509","29.368","0.41134","5"],
    [10360,"HCEP03730566","2024-01-14 05:30:00","10.9501","3.39532","27.615","3.811","7.53","0.357","4.377","0.02","0.2","29.9966","4.72226","41.75","0","SATNPRO1509","29.472","0.41278","5"],
    [10361,"HCEP03730566","2024-01-14 05:45:00","10.948","3.39486","27.766","3.847","7.53","0.388","4.236","0.02","0.22","29.9939","4.72191","42.14","0","SATNPRO1509","29.91","0.41898","5"],
    [10362,"HCEP03730566","2024-01-14 06:00:00","10.9367","3.39217","27.933","3.93","7.53","0.359","3.462","0.01","0.16","29.9767","4.71965","43.04","0","SATNPRO1509","29.742","0.4166","5"],
    [10363,"HCEP03730566","2024-01-14 06:15:00","10.9441","3.39393","28.081","3.899","7.53","0.349","3.831","0.02","0.54","29.9877","4.72111","42.71","0","SATNPRO1509","29.664","0.4155","5"],
    [10364,"HCEP03730566","2024-01-14 06:30:00","10.9481","3.39506","28.204","3.863","7.53","0.385","4.174","0.03","0.31","29.9955","4.72216","42.32","0","SATNPRO1509","29.669999999999998","0.4156","5"],
    [10365,"HCEP03730566","2024-01-14 06:45:00","10.9502","3.39555","28.278","3.833","7.53","0.379","4.251","0.01","0.16","29.9986","4.72257","41.99","0","SATNPRO1509","29.524","0.4135","5"],
    [10366,"HCEP03730566","2024-01-14 07:00:00","10.9557","3.39673","28.312","3.771","7.53","0.643","9.425","0.09","2.56","30.0057","4.7235","41.32","0","SATNPRO1509","29.416","0.41204","5"],
    [10367,"HCEP03730566","2024-01-14 07:15:00","10.9557","3.39675","28.355","3.771","7.53","0.456","6.745","0.03","0.61","30.0059","4.72353","41.32","0","SATNPRO1509","29.37","0.41134","5"],
    [10368,"HCEP03730566","2024-01-14 07:30:00","10.9553","3.39655","28.391","3.773","7.53","0.344","4.572","0.03","0.5","30.0042","4.72329","41.34","0","SATNPRO1509","29.25","0.40968","5"],
    [10369,"HCEP03730566","2024-01-14 07:45:00","10.9561","3.39673","28.379","3.752","7.53","0.358","4.73","0.02","0.31","30.0053","4.72344","41.12","0","SATNPRO1509","29.456","0.41258","5"],
    [10370,"HCEP03730566","2024-01-14 08:00:00","10.9554","3.3965","28.363","3.745","7.53","0.338","4.178","0.01","0.17","30.0036","4.72321","41.04","0","SATNPRO1509","29.454","0.41254","5"],
    [10371,"HCEP03730566","2024-01-14 08:15:00","10.9561","3.39666","28.38","3.738","7.52","0.344","4.367","0.02","0.16","30.0046","4.72334","40.96","0","SATNPRO1509","29.274","0.41","5"],
    [10372,"HCEP03730566","2024-01-14 08:30:00","10.9563","3.39658","28.373","3.725","7.52","0.346","4.254","0.01","0.23","30.0037","4.72321","40.82","0","SATNPRO1509","29.412","0.41196","5"],
    [10373,"HCEP03730566","2024-01-14 08:45:00","10.9568","3.39659","28.273","3.714","7.52","0.34","4.034","0.01","0.19","30.0034","4.72316","40.69","0","SATNPRO1509","29.296","0.41034","5"],
    [10374,"HCEP03730566","2024-01-14 09:00:00","10.9569","3.39662","28.209","3.695","7.52","0.322","4.082","0.01","0.22","30.0037","4.72319","40.49","0","SATNPRO1509","29.24","0.40956","5"],
    [10375,"HCEP03730566","2024-01-14 09:15:00","10.9561","3.3965","28.109","3.689","7.52","0.335","3.917","0.01","0.16","30.0031","4.72312","40.42","0","SATNPRO1509","29.214","0.40918","5"],
    [10376,"HCEP03730566","2024-01-14 09:30:00","10.9569","3.39662","28.021","3.689","7.52","0.337","4.128","0.02","0.22","30.0037","4.72318","40.42","0","SATNPRO1509","29.216","0.40922","5"],
    [10377,"HCEP03730566","2024-01-14 09:45:00","10.9572","3.39666","27.965","3.688","7.52","0.344","4.086","0.01","0.13","30.0039","4.7232","40.41","0","SATNPRO1509","29.27","0.40992","5"],
    [10378,"HCEP03730566","2024-01-14 10:00:00","10.957","3.39669","27.827","3.693","7.52","0.342","4.362","0.02","0.26","30.0044","4.72327","40.46","0","SATNPRO1509","29.254","0.40976","5"],
    [10379,"HCEP03730566","2024-01-14 10:15:00","10.9557","3.39651","27.732","3.718","7.52","0.348","3.662","0.02","0.21","30.0037","4.72318","40.74","0","SATNPRO1509","29.342","0.411","5"],
    [10380,"HCEP03730566","2024-01-14 10:30:00","10.9567","3.39669","27.62","3.699","7.52","0.339","4.135","0.02","0.22","30.0047","4.72331","40.53","0","SATNPRO1509","29.148","0.40826","5"],
    [10381,"HCEP03730566","2024-01-14 10:45:00","10.9558","3.39653","27.492","3.689","7.52","0.355","4.369","0.03","0.18","30.0039","4.7232","40.42","0","SATNPRO1509","29.296","0.41038","5"],
    [10382,"HCEP03730566","2024-01-14 11:00:00","10.9572","3.39677","27.337","3.681","7.52","0.335","4.29","0.01","0.17","30.0052","4.72335","40.34","0","SATNPRO1509","29.124","0.40794","5"],
    [10383,"HCEP03730566","2024-01-14 11:15:00","10.9567","3.39665","27.224","3.693","7.52","0.336","3.523","0.01","0.17","30.0045","4.72325","40.47","0","SATNPRO1509","29.291999999999998","0.41028","5"],
    [10384,"HCEP03730566","2024-01-14 11:30:00","10.9554","3.39638","27.102","3.723","7.52","0.325","3.396","0.01","0.22","30.0029","4.72304","40.8","0","SATNPRO1509","29.394000000000002","0.41176","5"],
    [10385,"HCEP03730566","2024-01-14 11:45:00","10.9536","3.3959","26.971","3.743","7.52","0.336","3.131","0.01","0.17","29.9998","4.72262","41.01","0","SATNPRO1509","29.512","0.41338","5"],
    [10386,"HCEP03730566","2024-01-14 12:00:00","10.9548","3.39607","26.85","3.729","7.52","0.339","3.937","0.01","0.18","30.0005","4.7227","40.87","0","SATNPRO1509","29.36","0.41126","5"],
    [10387,"HCEP03730566","2024-01-14 12:15:00","10.9547","3.39574","26.705","3.698","7.52","0.339","3.778","0.01","0.24","29.9974","4.72225","40.52","0","SATNPRO1509","29.482","0.41294","5"],
    [10388,"HCEP03730566","2024-01-14 12:30:00","10.9514","3.39502","26.6","3.749","7.52","0.324","3.233","0.01","0.23","29.9931","4.72168","41.08","0","SATNPRO1509","29.52","0.41352","5"],
    [10389,"HCEP03730566","2024-01-14 12:45:00","10.9506","3.39477","26.502","3.774","7.52","0.328","2.958","0.01","0.21","29.9914","4.72144","41.34","0","SATNPRO1509","29.650000000000002","0.41526","5"],
    [10390,"HCEP03730566","2024-01-14 13:00:00","10.9523","3.39504","26.425","3.751","7.52","0.342","4.093","0.02","0.19","29.9926","4.72158","41.1","0","SATNPRO1509","29.538","0.41372","5"],
    [10391,"HCEP03730566","2024-01-14 13:15:00","10.9489","3.39425","26.378","3.778","7.52","0.352","2.952","0.03","0.13","29.9876","4.72093","41.39","0","SATNPRO1509","29.684","0.41578","5"],
    [10392,"HCEP03730566","2024-01-14 13:30:00","10.9476","3.394","26.374","3.806","7.53","0.325","2.942","0.02","0.13","29.9863","4.72076","41.7","0","SATNPRO1509","29.29","0.41024","5"],
    [10393,"HCEP03730566","2024-01-14 13:45:00","10.9482","3.39421","26.408","3.802","7.53","0.348","3.353","0.02","0.3","29.9879","4.72098","41.65","0","SATNPRO1509","29.668","0.41558","5"],
    [10394,"HCEP03730566","2024-01-14 14:00:00","10.9515","3.39486","26.444","3.744","7.53","0.337","3.962","0.02","0.32","29.9915","4.72143","41.03","0","SATNPRO1509","29.434","0.41228","5"],
    [10395,"HCEP03730566","2024-01-14 14:15:00","10.9526","3.39527","26.52","3.734","7.52","0.356","4.134","0.03","0.23","29.9947","4.72188","40.91","0","SATNPRO1509","29.282","0.41012","5"],
    [10396,"HCEP03730566","2024-01-14 14:30:00","10.9527","3.3954","26.614","3.727","7.52","0.332","3.997","0.02","0.22","29.9958","4.72205","40.84","0","SATNPRO1509","29.196","0.40894","5"],
    [10397,"HCEP03730566","2024-01-14 14:45:00","10.9539","3.39574","26.702","3.704","7.52","0.371","4.32","0.04","0.26","29.998","4.72235","40.59","0","SATNPRO1509","29.124","0.40794","5"],
    [10398,"HCEP03730566","2024-01-14 15:00:00","10.9531","3.39567","26.796","3.691","7.52","0.34","4.799","0.01","0.23","29.998","4.72236","40.44","0","SATNPRO1509","29.072","0.4072","5"],
    [10399,"HCEP03730566","2024-01-14 15:15:00","10.9527","3.39558","26.846","3.683","7.52","0.344","4.659","0.01","0.25","29.9975","4.7223","40.35","0","SATNPRO1509","29.086","0.4074","5"],
    [10400,"HCEP03730566","2024-01-14 15:30:00","10.952","3.39546","26.904","3.664","7.52","0.338","4.765","0.01","0.16","29.9968","4.72222","40.15","0","SATNPRO1509","28.972","0.40582","5"],
    [10401,"HCEP03730566","2024-01-14 15:45:00","10.9509","3.39525","27.001","3.653","7.52","0.354","4.867","0.01","0.27","29.9956","4.72206","40.02","0","SATNPRO1509","29.004","0.40626","5"],
    [10402,"HCEP03730566","2024-01-14 16:00:00","10.9476","3.39458","27.053","3.669","7.52","0.343","5.115","0.01","0.23","29.9918","4.72158","40.2","0","SATNPRO1509","29.202","0.409","5"],
    [10403,"HCEP03730566","2024-01-14 16:15:00","10.9479","3.39493","27.109","3.671","7.52","0.355","5.196","0.01","0.37","29.9948","4.722","40.22","0","SATNPRO1509","29.174","0.40864","5"],
    [10404,"HCEP03730566","2024-01-14 16:30:00","10.948","3.39537","27.196","3.675","7.52","0.345","5.149","0.02","0.24","29.9991","4.72262","40.26","0","SATNPRO1509","29.18","0.4087","5"],
    [10405,"HCEP03730566","2024-01-14 16:45:00","10.9492","3.39573","27.289","3.684","7.52","0.372","5.56","0.04","0.64","30.0015","4.72295","40.37","0","SATNPRO1509","29.21","0.4091","5"],
    [10406,"HCEP03730566","2024-01-14 17:00:00","10.9506","3.39617","27.354","3.693","7.52","0.328","4.551","0.01","0.25","30.0047","4.72338","40.46","0","SATNPRO1509","29.282","0.41016","5"],
    [10407,"HCEP03730566","2024-01-14 17:15:00","10.9517","3.39649","27.435","3.691","7.52","0.346","5.229","0.02","0.46","30.007","4.72369","40.44","0","SATNPRO1509","29.366","0.4113","5"],
    [10408,"HCEP03730566","2024-01-14 17:30:00","10.9522","3.39679","27.542","3.694","7.52","0.334","4.938","0.02","0.28","30.0094","4.72403","40.47","0","SATNPRO1509","29.322","0.41068","5"],
    [10409,"HCEP03730566","2024-01-14 17:45:00","10.9537","3.3972","27.593","3.705","7.52","0.367","5.522","0.07","1.05","30.0121","4.7244","40.6","0","SATNPRO1509","29.322","0.4107","5"],
    [10410,"HCEP03730566","2024-01-14 18:00:00","10.9539","3.39766","27.651","3.744","7.52","0.352","5.085","0.08","1.98","30.0165","4.72502","41.03","0","SATNPRO1509","29.454","0.4126","5"],
    [10411,"HCEP03730566","2024-01-14 18:15:00","10.954","3.39765","27.683","3.749","7.52","1.452","13.651","0.38","6.75","30.0163","4.72499","41.09","0","SATNPRO1509","29.39","0.41164","5"],
    [10412,"HCEP03730566","2024-01-14 18:30:00","10.9535","3.39797","27.7","3.769","7.52","0.316","4.247","0.01","0.24","30.0199","4.72551","41.31","0","SATNPRO1509","29.526","0.41358","5"],
    [10413,"HCEP03730566","2024-01-14 18:45:00","10.9524","3.39797","27.712","3.785","7.52","0.336","4.604","0.02","0.31","30.0207","4.72565","41.48","0","SATNPRO1509","29.556","0.414","5"],
    [10414,"HCEP03730566","2024-01-14 19:00:00","10.9515","3.39797","27.677","3.788","7.52","0.315","4.34","0.01","0.18","30.0215","4.72577","41.51","0","SATNPRO1509","29.54","0.41374","5"],
    [10415,"HCEP03730566","2024-01-14 19:15:00","10.9514","3.39805","27.646","3.778","7.52","3.242","36.736","1.24","12.77","30.0224","4.7259","41.4","0","SATNPRO1509","29.486","0.41302","5"],
    [10416,"HCEP03730566","2024-01-14 19:30:00","10.9517","3.3982","27.583","3.755","7.52","0.837","31.886","0.15","4.78","30.0236","4.72606","41.14","0","SATNPRO1509","29.542","0.41374","5"],
    [10417,"HCEP03730566","2024-01-14 19:45:00","10.9508","3.39806","27.488","3.775","7.52","0.322","3.869","0.01","0.15","30.023","4.72598","41.37","0","SATNPRO1509","29.704","0.41608","5"],
    [10418,"HCEP03730566","2024-01-14 20:00:00","10.9467","3.39709","27.379","3.828","7.52","0.359","4.051","0.05","0.21","30.0169","4.72518","41.94","0","SATNPRO1509","30.034","0.4207","5"],
    [10419,"HCEP03730566","2024-01-14 20:15:00","10.9409","3.39516","27.264","3.878","7.53","0.33","3.395","0.01","0.67","30.0028","4.72326","42.48","0","SATNPRO1509","29.868","0.41832","5"],
    [10420,"HCEP03730566","2024-01-14 20:30:00","10.947","3.39686","27.123","3.843","7.53","0.382","4.384","0.01","0.26","30.0146","4.72482","42.11","0","SATNPRO1509","29.748","0.41666","5"],
    [10421,"HCEP03730566","2024-01-14 20:45:00","10.9397","3.39511","26.96","3.895","7.53","0.374","3.317","0.02","0.18","30.0034","4.72335","42.67","0","SATNPRO1509","30.22","0.42328","5"],
    [10422,"HCEP03730566","2024-01-14 21:00:00","10.9446","3.3967","26.762","3.871","7.53","0.35","3.694","0.01","0.13","30.0151","4.72491","42.41","0","SATNPRO1509","29.948","0.4195","5"],
    [10423,"HCEP03730566","2024-01-14 21:15:00","10.9412","3.396","26.596","3.888","7.53","0.335","3.36","0.01","0.27","30.011","4.72438","42.59","0","SATNPRO1509","30.144000000000002","0.4222","5"],
    [10424,"HCEP03730566","2024-01-14 21:30:00","10.9479","3.39756","26.382","3.848","7.53","0.311","3.57","0.01","0.19","30.0209","4.72566","42.16","0","SATNPRO1509","29.77","0.41698","5"],
    [10425,"HCEP03730566","2024-01-14 21:45:00","10.9435","3.39703","26.156","3.866","7.53","0.326","3.541","0.01","0.13","30.0195","4.72552","42.36","0","SATNPRO1509","29.874","0.41844","5"],
    [10426,"HCEP03730566","2024-01-14 22:00:00","10.9484","3.39784","25.957","3.805","7.53","0.321","4.178","0.01","0.14","30.0234","4.726","41.7","0","SATNPRO1509","29.62","0.41488","5"],
    [10427,"HCEP03730566","2024-01-14 22:15:00","10.9488","3.39795","25.734","3.777","7.53","0.336","4.497","0.02","0.13","30.0243","4.72611","41.39","0","SATNPRO1509","29.524","0.41354","5"],
    [10428,"HCEP03730566","2024-01-14 22:30:00","10.9485","3.39802","25.466","3.776","7.53","0.318","3.901","0.01","0.14","30.0254","4.72624","41.38","0","SATNPRO1509","29.512","0.41338","5"],
    [10429,"HCEP03730566","2024-01-14 22:45:00","10.9481","3.39806","25.212","3.792","7.53","0.334","4.025","0.01","0.22","30.0261","4.72633","41.55","0","SATNPRO1509","29.55","0.4139","5"],
    [10430,"HCEP03730566","2024-01-14 23:00:00","10.9477","3.39814","24.982","3.801","7.53","0.43","5.749","0.2","3.64","30.0273","4.7265","41.65","0","SATNPRO1509","29.394","0.41172","5"],
    [10431,"HCEP03730566","2024-01-14 23:15:00","10.9494","3.39819","24.774","3.749","7.52","0.34","5.071","0.01","0.23","30.0265","4.72635","41.08","0","SATNPRO1509","29.308","0.4105","5"],
    [10432,"HCEP03730566","2024-01-14 23:30:00","10.9494","3.39816","24.585","3.746","7.52","0.367","5.19","0.05","0.31","30.0263","4.72631","41.05","0","SATNPRO1509","29.274","0.41002","5"],
    [10433,"HCEP03730566","2024-01-14 23:45:00","10.949","3.39815","24.454","3.758","7.52","0.421","6.121","0.02","0.46","30.0265","4.72634","41.18","0","SATNPRO1509","29.306","0.4105","5"],
    [10434,"HCEP03730566","2024-01-15 00:00:00","10.949","3.39809","24.327","3.755","7.52","0.421","5.46","0.05","0.74","30.026","4.72626","41.15","0","SATNPRO1509","29.310000000000002","0.41052","5"],
    [10435,"HCEP03730566","2024-01-15 00:15:00","10.9492","3.39804","24.274","3.749","7.52","0.436","5.794","0.05","0.63","30.0253","4.72616","41.08","0","SATNPRO1509","29.5","0.41318","5"],
    [10436,"HCEP03730566","2024-01-15 00:30:00","10.9491","3.39802","24.2","3.751","7.52","0.346","4.811","0.01","0.22","30.0253","4.72615","41.1","0","SATNPRO1509","29.478","0.41288","5"],
    [10437,"HCEP03730566","2024-01-15 00:45:00","10.9491","3.39835","24.183","3.755","7.52","0.359","5.321","0.02","0.19","30.0286","4.72661","41.15","0","SATNPRO1509","29.408","0.4119","5"],
    [10438,"HCEP03730566","2024-01-15 01:00:00","10.9435","3.39868","24.162","3.884","7.53","0.415","5.335","0.02","0.36","30.0364","4.72782","42.56","0","SATNPRO1509","29.682","0.41578","5"],
    [10439,"HCEP03730566","2024-01-15 01:15:00","10.9416","3.39876","24.188","3.96","7.53","0.369","4.713","0.01","0.26","30.0388","4.72818","43.39","0","SATNPRO1509","29.798000000000002","0.41738","5"],
    [10440,"HCEP03730566","2024-01-15 01:30:00","10.9418","3.39893","24.277","3.958","7.54","0.411","5.733","0.03","0.6","30.0402","4.72838","43.37","0","SATNPRO1509","29.708","0.41612","5"],
    [10441,"HCEP03730566","2024-01-15 01:45:00","10.9399","3.39911","24.344","3.99","7.54","0.34","4.516","0.09","2.33","30.0435","4.72888","43.72","0","SATNPRO1509","29.76","0.41686","5"],
    [10442,"HCEP03730566","2024-01-15 02:00:00","10.9396","3.39899","24.467","4.016","7.54","0.317","3.277","0.01","0.09","30.0425","4.72876","44","0","SATNPRO1509","29.848","0.4181","5"],
    [10443,"HCEP03730566","2024-01-15 02:15:00","10.9405","3.39885","24.585","4.005","7.54","0.36","3.883","0.02","0.54","30.0403","4.72844","43.88","0","SATNPRO1509","29.834","0.41788","5"],
    [10444,"HCEP03730566","2024-01-15 02:30:00","10.9391","3.3993","24.722","4.021","7.54","0.346","4.415","0.04","0.98","30.0459","4.72926","44.06","0","SATNPRO1509","29.944","0.4194","5"],
    [10445,"HCEP03730566","2024-01-15 02:45:00","10.9386","3.39945","24.899","4.028","7.54","0.328","3.816","0.01","0.18","30.0477","4.72953","44.13","0","SATNPRO1509","29.846","0.41804","5"],
    [10446,"HCEP03730566","2024-01-15 03:00:00","10.9391","3.39944","25.076","4.032","7.54","0.349","4.809","0.01","0.34","30.0471","4.72945","44.18","0","SATNPRO1509","29.714","0.4162","5"],
    [10447,"HCEP03730566","2024-01-15 03:15:00","10.9396","3.39957","25.264","4.024","7.55","0.648","11.3","0.3","8.05","30.0478","4.72955","44.1","0","SATNPRO1509","29.832","0.41788","5"],
    [10448,"HCEP03730566","2024-01-15 03:30:00","10.9426","3.39925","25.459","3.978","7.54","0.336","4.093","0.02","0.3","30.0422","4.72872","43.59","0","SATNPRO1509","29.65","0.41534","5"],
    [10449,"HCEP03730566","2024-01-15 03:45:00","10.9424","3.39949","25.658","3.941","7.54","0.383","5.141","0.03","0.5","30.0446","4.72907","43.18","0","SATNPRO1509","29.556","0.41398","5"],
    [10450,"HCEP03730566","2024-01-15 04:00:00","10.9424","3.39964","25.847","3.931","7.54","0.389","5.933","0.02","0.41","30.046","4.72928","43.08","0","SATNPRO1509","29.408","0.41188","5"],
    [10451,"HCEP03730566","2024-01-15 04:15:00","10.9425","3.39972","26.074","3.924","7.54","0.435","6.893","0.04","1.03","30.0466","4.72939","43","0","SATNPRO1509","29.404","0.41186","5"],
    [10452,"HCEP03730566","2024-01-15 04:30:00","10.9432","3.39968","26.317","3.918","7.54","0.369","4.844","0.02","0.2","30.0455","4.72923","42.94","0","SATNPRO1509","29.448","0.41244","5"],
    [10453,"HCEP03730566","2024-01-15 04:45:00","10.9422","3.39975","26.57","3.927","7.54","0.434","5.455","0.03","0.34","30.047","4.72948","43.04","0","SATNPRO1509","29.356","0.41118","5"],
    [10454,"HCEP03730566","2024-01-15 05:00:00","10.9422","3.39981","26.776","3.931","7.54","1.964","46.428","1.39","18.57","30.0475","4.72955","43.07","0","SATNPRO1509","29.416","0.41198","5"],
    [10455,"HCEP03730566","2024-01-15 05:15:00","10.9417","3.39997","27.011","3.934","7.54","0.322","15.805","0.06","19.56","30.0493","4.72983","43.11","0","SATNPRO1509","29.42","0.41206","5"],
    [10456,"HCEP03730566","2024-01-15 05:30:00","10.9409","3.39994","27.209","3.947","7.54","0.32","5.181","0.01","0.61","30.0496","4.7299","43.25","0","SATNPRO1509","29.584","0.41436","5"],
    [10457,"HCEP03730566","2024-01-15 05:45:00","10.9391","3.39964","27.441","3.987","7.54","1.39","59.523","1.39","29.52","30.0481","4.72973","43.69","0","SATNPRO1509","29.82","0.41768","5"],
    [10458,"HCEP03730566","2024-01-15 06:00:00","10.9388","3.39964","27.621","4.007","7.54","1.929","71.791","1.46","26.56","30.0483","4.72976","43.91","0","SATNPRO1509","29.798000000000002","0.41738","5"],
    [10459,"HCEP03730566","2024-01-15 06:15:00","10.9382","3.39958","27.793","4.005","7.54","0.372","4.509","0.04","0.27","30.0481","4.72976","43.89","0","SATNPRO1509","29.698","0.41596","5"],
    [10460,"HCEP03730566","2024-01-15 06:30:00","10.9375","3.39944","27.958","4.017","7.54","0.355","4.377","0.04","0.25","30.0472","4.72965","44.01","0","SATNPRO1509","29.79","0.41728","5"],
    [10461,"HCEP03730566","2024-01-15 06:45:00","10.9375","3.39941","28.104","4.017","7.54","0.357","4.615","0.01","0.42","30.0468","4.72961","44.02","0","SATNPRO1509","29.666","0.41554","5"],
    [10462,"HCEP03730566","2024-01-15 07:00:00","10.9382","3.3993","28.204","3.998","7.54","0.34","4.491","0.03","0.33","30.0452","4.72937","43.8","0","SATNPRO1509","29.759999999999998","0.41684","5"],
    [10463,"HCEP03730566","2024-01-15 07:15:00","10.9389","3.399","28.309","3.994","7.54","0.353","4.135","0.02","0.19","30.0417","4.72887","43.76","0","SATNPRO1509","29.802","0.41744","5"],
    [10464,"HCEP03730566","2024-01-15 07:30:00","10.9392","3.39907","28.36","3.981","7.54","0.733","18.219","0.25","12.97","30.0421","4.72892","43.62","0","SATNPRO1509","29.688","0.41586","5"],
    [10465,"HCEP03730566","2024-01-15 07:45:00","10.9392","3.39929","28.42","3.972","7.54","0.37","4.991","0.02","0.22","30.0443","4.72923","43.52","0","SATNPRO1509","29.628","0.415","5"],
    [10466,"HCEP03730566","2024-01-15 08:00:00","10.9391","3.39898","28.414","3.976","7.54","0.329","4.707","0.02","0.47","30.0413","4.72881","43.56","0","SATNPRO1509","29.756","0.41676","5"],
    [10467,"HCEP03730566","2024-01-15 08:15:00","10.9396","3.39936","28.406","3.974","7.54","0.34","4.403","0.02","0.24","30.0445","4.72926","43.55","0","SATNPRO1509","29.668","0.41558","5"],
    [10468,"HCEP03730566","2024-01-15 08:30:00","10.9393","3.39931","28.427","3.97","7.54","0.331","4.897","0.02","0.59","30.0443","4.72923","43.5","0","SATNPRO1509","29.7","0.41604","5"],
    [10469,"HCEP03730566","2024-01-15 08:45:00","10.9401","3.39956","28.41","3.958","7.54","0.572","14.724","0.09","5.91","30.0461","4.72948","43.37","0","SATNPRO1509","29.686","0.41578","5"],
    [10470,"HCEP03730566","2024-01-15 09:00:00","10.9401","3.39942","28.338","3.968","7.54","0.546","9.234","0.07","0.94","30.0448","4.72929","43.48","0","SATNPRO1509","29.71","0.4161","5"],
    [10471,"HCEP03730566","2024-01-15 09:15:00","10.9401","3.39925","28.249","3.984","7.54","0.616","12.127","0.06","3.17","30.0431","4.72905","43.65","0","SATNPRO1509","29.738","0.41654","5"],
    [10472,"HCEP03730566","2024-01-15 09:30:00","10.9392","3.3989","28.263","4.008","7.54","0.815","16.812","0.14","4.68","30.0404","4.72868","43.91","0","SATNPRO1509","29.918","0.41906","5"],
    [10473,"HCEP03730566","2024-01-15 09:45:00","10.9388","3.39855","28.106","4.02","7.54","0.342","3.55","0.01","0.11","30.0374","4.72825","44.04","0","SATNPRO1509","29.842","0.41798","5"],
    [10474,"HCEP03730566","2024-01-15 10:00:00","10.9397","3.39851","28.05","4.011","7.54","0.321","3.106","0.01","0.16","30.0363","4.72807","43.95","0","SATNPRO1509","30.088","0.4214","5"],
    [10475,"HCEP03730566","2024-01-15 10:15:00","10.9412","3.39762","27.956","3.969","7.54","0.335","2.975","0.03","0.2","30.0264","4.72663","43.49","0","SATNPRO1509","30.078","0.4213","5"],
    [10476,"HCEP03730566","2024-01-15 10:30:00","10.9412","3.39798","27.835","3.977","7.54","0.304","2.815","0.01","0.17","30.0299","4.72714","43.57","0","SATNPRO1509","29.94","0.41934","5"],
    [10477,"HCEP03730566","2024-01-15 10:45:00","10.9411","3.39849","27.702","3.985","7.54","0.319","2.836","0.01","0.14","30.0351","4.72786","43.66","0","SATNPRO1509","30.1","0.4216","5"],
    [10478,"HCEP03730566","2024-01-15 11:00:00","10.9424","3.39747","27.563","3.965","7.54","0.305","2.527","0.02","0.2","30.0241","4.72628","43.45","0","SATNPRO1509","30.198","0.42298","5"],
    [10479,"HCEP03730566","2024-01-15 11:15:00","10.9426","3.39694","27.419","3.946","7.54","0.316","2.426","0.01","0.14","30.0188","4.72551","43.23","0","SATNPRO1509","30.168","0.42258","5"],
    [10480,"HCEP03730566","2024-01-15 11:30:00","10.9446","3.39689","27.283","3.901","7.54","0.309","2.567","0.02","0.13","30.0166","4.72516","42.74","0","SATNPRO1509","29.982","0.41996","5"],
    [10481,"HCEP03730566","2024-01-15 11:45:00","10.9467","3.39695","27.154","3.836","7.53","0.317","2.703","0.01","0.13","30.0156","4.72498","42.03","0","SATNPRO1509","29.69","0.41586","5"],
    [10482,"HCEP03730566","2024-01-15 12:00:00","10.9449","3.39751","26.988","3.831","7.53","0.326","3.276","0.01","0.17","30.0226","4.726","41.98","0","SATNPRO1509","29.796","0.41736","5"],
    [10483,"HCEP03730566","2024-01-15 12:15:00","10.9431","3.39804","26.824","3.882","7.53","0.343","4.34","0.02","1.94","30.0294","4.72697","42.53","0","SATNPRO1509","29.86","0.41824","5"],
    [10484,"HCEP03730566","2024-01-15 12:30:00","10.944","3.39702","26.639","3.892","7.53","0.301","2.689","0.01","0.14","30.0187","4.72543","42.64","0","SATNPRO1509","29.932","0.41926","5"],
    [10485,"HCEP03730566","2024-01-15 12:45:00","10.9454","3.39674","26.502","3.866","7.53","0.319","2.481","0.02","0.1","30.0149","4.72486","42.36","0","SATNPRO1509","30.076","0.4213","5"],
    [10486,"HCEP03730566","2024-01-15 13:00:00","10.9461","3.39671","26.382","3.811","7.53","0.302","2.455","0.01","0.09","30.0141","4.72472","41.75","0","SATNPRO1509","30.054","0.42098","5"],
    [10487,"HCEP03730566","2024-01-15 13:15:00","10.9467","3.39674","26.266","3.803","7.53","0.319","2.559","0.01","0.19","30.0139","4.72469","41.67","0","SATNPRO1509","29.956","0.41958","5"],
    [10488,"HCEP03730566","2024-01-15 13:30:00","10.9429","3.39853","26.165","3.835","7.53","0.328","4.344","0.01","0.23","30.0347","4.72769","42.02","0","SATNPRO1509","29.426","0.4122","5"],
    [10489,"HCEP03730566","2024-01-15 13:45:00","10.942","3.39926","26.06","3.844","7.53","0.342","4.607","0.01","0.24","30.0426","4.72882","42.12","0","SATNPRO1509","29.152","0.4083","5"],
    [10490,"HCEP03730566","2024-01-15 14:00:00","10.9419","3.3996","26.013","3.803","7.53","0.335","5.161","0.01","0.19","30.046","4.72931","41.68","0","SATNPRO1509","28.984","0.40592","5"],
    [10491,"HCEP03730566","2024-01-15 14:15:00","10.9389","3.39973","26.002","3.827","7.53","0.348","4.65","0.01","0.18","30.0497","4.72988","41.93","0","SATNPRO1509","29.073999999999998","0.40728","5"],
    [10492,"HCEP03730566","2024-01-15 14:30:00","10.9388","3.39959","26.035","3.859","7.53","0.331","4.525","0.02","0.18","30.0484","4.7297","42.28","0","SATNPRO1509","29.24","0.40954","5"],
    [10493,"HCEP03730566","2024-01-15 14:45:00","10.9399","3.39898","26.064","3.876","7.53","0.336","3.426","0.02","0.14","30.0415","4.72871","42.47","0","SATNPRO1509","29.748","0.41668","5"],
    [10494,"HCEP03730566","2024-01-15 15:00:00","10.9404","3.39881","26.104","3.894","7.53","0.314","3.349","0.01","0.14","30.0394","4.7284","42.67","0","SATNPRO1509","29.732","0.41644","5"],
    [10495,"HCEP03730566","2024-01-15 15:15:00","10.9375","3.40008","26.16","3.831","7.53","0.35","5.143","0.02","0.2","30.0543","4.73056","41.98","0","SATNPRO1509","28.742","0.4026","5"],
    [10496,"HCEP03730566","2024-01-15 15:30:00","10.9366","3.40018","26.234","3.81","7.53","0.337","5.155","0.01","0.23","30.0559","4.7308","41.74","0","SATNPRO1509","28.806","0.40344","5"],
    [10497,"HCEP03730566","2024-01-15 15:45:00","10.9358","3.40012","26.3","3.834","7.53","0.341","4.915","0.01","0.39","30.056","4.73083","42.01","0","SATNPRO1509","28.996","0.40612","5"],
    [10498,"HCEP03730566","2024-01-15 16:00:00","10.9362","3.40005","26.374","3.839","7.53","0.339","5.105","0.01","0.34","30.0549","4.73067","42.07","0","SATNPRO1509","28.806","0.40348","5"],
    [10499,"HCEP03730566","2024-01-15 16:15:00","10.9379","3.39901","26.447","3.87","7.53","0.342","4.726","0.01","1.34","30.0433","4.729","42.41","0","SATNPRO1509","29.47","0.41276","5"],
    [10500,"HCEP03730566","2024-01-15 16:30:00","10.9383","3.39952","26.532","3.858","7.53","0.324","4.674","0.01","0.3","30.0479","4.72966","42.27","0","SATNPRO1509","29.066","0.4071","5"],
    [10501,"HCEP03730566","2024-01-15 16:45:00","10.9398","3.3993","26.638","3.823","7.53","0.357","4.795","0.05","0.25","30.0445","4.72916","41.89","0","SATNPRO1509","29.132","0.40806","5"],
    [10502,"HCEP03730566","2024-01-15 17:00:00","10.9389","3.39949","26.704","3.827","7.53","0.329","4.903","0.01","0.22","30.0471","4.72954","41.93","0","SATNPRO1509","29.31","0.41056","5"],
    [10503,"HCEP03730566","2024-01-15 17:15:00","10.9388","3.39949","26.764","3.831","7.53","0.377","4.979","0.13","0.74","30.0472","4.72956","41.98","0","SATNPRO1509","29.268","0.40994","5"],
    [10504,"HCEP03730566","2024-01-15 17:30:00","10.938","3.3993","26.844","3.829","7.53","1.532","18.213","3.37","31.9","30.0459","4.72939","41.96","0","SATNPRO1509","29.178","0.40866","5"],
    [10505,"HCEP03730566","2024-01-15 17:45:00","10.9355","3.399","26.885","3.857","7.53","0.372","5.126","0.02","0.21","30.045","4.72932","42.26","0","SATNPRO1509","29.464","0.41268","5"],
    [10506,"HCEP03730566","2024-01-15 18:00:00","10.9318","3.39852","26.996","3.895","7.53","0.326","4.727","0.01","0.18","30.0433","4.72913","42.67","0","SATNPRO1509","29.466","0.41272","5"],
    [10507,"HCEP03730566","2024-01-15 18:15:00","10.9289","3.39845","27.099","3.953","7.53","0.339","4.521","0.01","0.23","30.045","4.72942","43.3","0","SATNPRO1509","29.488","0.41304","5"],
    [10508,"HCEP03730566","2024-01-15 18:30:00","10.9256","3.39803","27.145","3.965","7.54","0.33","4.419","0.01","0.29","30.0435","4.72927","43.44","0","SATNPRO1509","29.69","0.4159","5"],
    [10509,"HCEP03730566","2024-01-15 18:45:00","10.9286","3.39816","27.247","3.961","7.54","0.356","4.552","0.02","0.41","30.0423","4.72905","43.39","0","SATNPRO1509","29.584","0.41436","5"],
    [10510,"HCEP03730566","2024-01-15 19:00:00","10.9284","3.39791","27.342","3.944","7.54","0.347","4.641","0.02","0.75","30.0399","4.72872","43.21","0","SATNPRO1509","29.506","0.4133","5"],
    [10511,"HCEP03730566","2024-01-15 19:15:00","10.9322","3.39776","27.348","3.882","7.54","0.528","5.871","0.12","0.8","30.0353","4.72801","42.53","0","SATNPRO1509","29.432","0.41226","5"],
    [10512,"HCEP03730566","2024-01-15 19:30:00","10.9339","3.39776","27.387","3.836","7.53","0.563","7.489","0.06","1.67","30.0339","4.72779","42.03","0","SATNPRO1509","29.4","0.4118","5"],
    [10513,"HCEP03730566","2024-01-15 19:45:00","10.932","3.39753","27.418","3.849","7.53","0.609","11.991","0.07","3.01","30.0333","4.72773","42.16","0","SATNPRO1509","29.418","0.41204","5"],
    [10514,"HCEP03730566","2024-01-15 20:00:00","10.9312","3.39765","27.404","3.868","7.53","0.453","5.723","0.13","1.35","30.0351","4.72799","42.38","0","SATNPRO1509","29.56","0.41406","5"],
    [10515,"HCEP03730566","2024-01-15 20:15:00","10.9312","3.39782","27.38","3.877","7.53","0.633","9.122","0.24","7.47","30.0368","4.72824","42.47","0","SATNPRO1509","29.424","0.41212","5"],
    [10516,"HCEP03730566","2024-01-15 20:30:00","10.9297","3.39837","27.318","3.896","7.53","0.329","4.503","0.02","0.32","30.0434","4.7292","42.68","0","SATNPRO1509","29.524","0.4135","5"],
    [10517,"HCEP03730566","2024-01-15 20:45:00","10.9205","3.39821","27.255","3.993","7.53","0.331","4.482","0.01","0.24","30.0494","4.73018","43.74","0","SATNPRO1509","29.484","0.41296","5"],
    [10518,"HCEP03730566","2024-01-15 21:00:00","10.9108","3.39773","27.143","4.089","7.54","0.318","4.099","0.01","0.9","30.0526","4.73078","44.78","0","SATNPRO1509","29.724","0.41636","5"],
    [10519,"HCEP03730566","2024-01-15 21:15:00","10.9135","3.39796","27.04","4.1","7.54","0.335","4.521","0.02","1.02","30.0527","4.73076","44.9","0","SATNPRO1509","29.732","0.41648","5"],
    [10520,"HCEP03730566","2024-01-15 21:30:00","10.9159","3.39807","26.916","4.069","7.55","0.326","5.761","0.01","1.26","30.0519","4.7306","44.56","0","SATNPRO1509","29.576","0.41426","5"],
    [10521,"HCEP03730566","2024-01-15 21:45:00","10.9179","3.39819","26.785","4.058","7.55","0.359","5.216","0.03","1.64","30.0514","4.73049","44.45","0","SATNPRO1509","29.712","0.41616","5"],
    [10522,"HCEP03730566","2024-01-15 22:00:00","10.9227","3.39836","26.626","4.015","7.54","0.334","4.903","0.03","1.27","30.0493","4.7301","43.98","0","SATNPRO1509","29.55","0.4139","5"],
    [10523,"HCEP03730566","2024-01-15 22:15:00","10.9263","3.39848","26.467","3.969","7.54","0.342","4.248","0.02","0.33","30.0475","4.72979","43.47","0","SATNPRO1509","29.292","0.4103","5"],
    [10524,"HCEP03730566","2024-01-15 22:30:00","10.9147","3.39782","26.275","4.031","7.54","0.327","4.605","0.01","0.47","30.0506","4.7304","44.14","0","SATNPRO1509","29.636","0.41512","5"],
    [10525,"HCEP03730566","2024-01-15 22:45:00","10.9106","3.3984","26.123","4.119","7.54","0.328","3.455","0.02","0.38","30.0598","4.73175","45.11","0","SATNPRO1509","29.846","0.41808","5"],
    [10526,"HCEP03730566","2024-01-15 23:00:00","10.9043","3.39786","25.922","4.174","7.55","0.313","3.213","0.02","0.22","30.0598","4.73184","45.71","0","SATNPRO1509","29.808","0.4175","5"],
    [10527,"HCEP03730566","2024-01-15 23:15:00","10.9015","3.3973","25.743","4.206","7.55","0.352","5.304","0.05","4.28","30.0566","4.73142","46.05","0","SATNPRO1509","30.078","0.42128","5"],
    [10528,"HCEP03730566","2024-01-15 23:30:00","10.9098","3.39737","25.551","4.148","7.55","0.299","3.004","0.01","0.24","30.0506","4.73042","45.43","0","SATNPRO1509","29.718","0.41626","5"],
    [10529,"HCEP03730566","2024-01-15 23:45:00","10.9067","3.39697","25.374","4.141","7.55","0.314","2.957","0.01","0.2","30.0492","4.73027","45.34","0","SATNPRO1509","29.916","0.41902","5"],
    [10530,"HCEP03730566","2024-01-16 00:00:00","10.9204","3.39766","25.205","4.042","7.55","0.309","3.323","0.01","0.23","30.0449","4.72943","44.27","0","SATNPRO1509","29.866","0.41836","5"],
    [10531,"HCEP03730566","2024-01-16 00:15:00","10.9021","3.39663","25.044","4.141","7.55","0.336","2.824","0.03","0.19","30.0498","4.73041","45.33","0","SATNPRO1509","29.964","0.41974","5"],
    [10532,"HCEP03730566","2024-01-16 00:30:00","10.8997","3.39792","24.893","4.178","7.55","0.318","3.846","0.01","0.32","30.0645","4.73252","45.74","0","SATNPRO1509","29.752","0.41674","5"],
    [10533,"HCEP03730566","2024-01-16 00:45:00","10.9012","3.39827","24.756","4.178","7.55","0.345","4.152","0.03","0.2","30.0667","4.73281","45.75","0","SATNPRO1509","29.598","0.41456","5"],
    [10534,"HCEP03730566","2024-01-16 01:00:00","10.8922","3.39759","24.659","4.226","7.56","0.317","3.646","0.01","0.18","30.0675","4.73305","46.26","0","SATNPRO1509","29.74","0.41652","5"],
    [10535,"HCEP03730566","2024-01-16 01:15:00","10.8867","3.39704","24.651","4.284","7.56","4.589","48.476","2.89","24.08","30.0666","4.73301","46.89","0","SATNPRO1509","29.924","0.41914","5"],
    [10536,"HCEP03730566","2024-01-16 01:30:00","10.8944","3.39772","24.62","4.262","7.56","0.315","3.751","0.01","0.13","30.067","4.73294","46.66","0","SATNPRO1509","29.856","0.41822","5"],
    [10537,"HCEP03730566","2024-01-16 01:45:00","10.8938","3.39776","24.612","4.247","7.56","4.756","88.473","1.45","29.21","30.0679","4.73307","46.49","0","SATNPRO1509","29.748","0.41666","5"],
    [10538,"HCEP03730566","2024-01-16 02:00:00","10.8967","3.39777","24.657","4.237","7.56","0.879","27.766","0.74","31.71","30.0656","4.73271","46.39","0","SATNPRO1509","29.876","0.41846","5"],
    [10539,"HCEP03730566","2024-01-16 02:15:00","10.8947","3.39751","24.695","4.242","7.56","7.796","280.807","2.43","152.1","30.0646","4.73261","46.45","0","SATNPRO1509","30.042","0.42076","5"],
    [10540,"HCEP03730566","2024-01-16 02:30:00","10.893","3.39745","24.743","4.251","7.56","0.584","23.627","0.28","15.93","30.0655","4.73275","46.53","0","SATNPRO1509","29.874","0.41848","5"],
    [10541,"HCEP03730566","2024-01-16 02:45:00","10.887","3.3972","24.866","4.288","7.56","0.461","6.779","0.1","1.73","30.0679","4.73319","46.94","0","SATNPRO1509","29.988","0.42004","5"],
    [10542,"HCEP03730566","2024-01-16 03:00:00","10.8851","3.39751","24.989","4.285","7.56","0.495","5.554","0.05","0.4","30.0724","4.73387","46.9","0","SATNPRO1509","29.684","0.41574","5"],
    [10543,"HCEP03730566","2024-01-16 03:15:00","10.8859","3.39766","25.116","4.278","7.56","0.336","4.467","0.01","0.35","30.0731","4.73397","46.82","0","SATNPRO1509","29.606","0.4147","5"],
    [10544,"HCEP03730566","2024-01-16 03:30:00","10.8841","3.39763","25.277","4.281","7.56","0.315","3.929","0.01","0.29","30.0742","4.73417","46.87","0","SATNPRO1509","29.722","0.41634","5"],
    [10545,"HCEP03730566","2024-01-16 03:45:00","10.8849","3.3978","25.408","4.281","7.56","0.332","3.808","0.01","0.15","30.0753","4.73431","46.86","0","SATNPRO1509","29.686","0.41578","5"],
    [10546,"HCEP03730566","2024-01-16 04:00:00","10.8844","3.39786","25.57","4.284","7.56","0.318","4.164","0.01","0.17","30.0762","4.73446","46.89","0","SATNPRO1509","29.638","0.41512","5"],
    [10547,"HCEP03730566","2024-01-16 04:15:00","10.8836","3.39785","25.773","4.291","7.56","0.368","15.838","0.12","24.8","30.0767","4.73454","46.97","0","SATNPRO1509","29.54","0.41376","5"],
    [10548,"HCEP03730566","2024-01-16 04:30:00","10.8821","3.39789","25.981","4.298","7.56","0.327","4.388","0.02","0.25","30.0782","4.7348","47.04","0","SATNPRO1509","29.624","0.41494","5"],
    [10549,"HCEP03730566","2024-01-16 04:45:00","10.8806","3.39794","26.171","4.303","7.56","0.333","3.886","0.01","0.17","30.0798","4.73506","47.1","0","SATNPRO1509","29.496","0.41314","5"],
    [10550,"HCEP03730566","2024-01-16 05:00:00","10.8785","3.39788","26.36","4.314","7.57","0.323","4.145","0.01","0.18","30.0809","4.73526","47.22","0","SATNPRO1509","29.402","0.41188","5"],
    [10551,"HCEP03730566","2024-01-16 05:15:00","10.8768","3.39781","26.572","4.327","7.57","0.332","4.037","0.01","0.3","30.0816","4.73539","47.35","0","SATNPRO1509","29.416","0.412","5"],
    [10552,"HCEP03730566","2024-01-16 05:30:00","10.8749","3.39774","26.775","4.341","7.57","0.321","3.879","0.02","0.23","30.0823","4.73554","47.51","0","SATNPRO1509","29.506","0.4133","5"],
    [10553,"HCEP03730566","2024-01-16 05:45:00","10.8749","3.39773","27.005","4.331","7.57","0.327","3.754","0.01","0.2","30.0821","4.73552","47.4","0","SATNPRO1509","29.48","0.41292","5"],
    [10554,"HCEP03730566","2024-01-16 06:00:00","10.8734","3.39778","27.231","4.35","7.57","0.354","4.275","0.03","0.25","30.0837","4.73578","47.6","0","SATNPRO1509","29.608","0.41468","5"],
    [10555,"HCEP03730566","2024-01-16 06:15:00","10.8733","3.39783","27.434","4.357","7.57","0.36","6.754","0.06","1.68","30.0843","4.73589","47.69","0","SATNPRO1509","29.492","0.41308","5"],
    [10556,"HCEP03730566","2024-01-16 06:30:00","10.8737","3.39788","27.634","4.353","7.57","1.316","35.796","2.59","36.92","30.0843","4.73589","47.65","0","SATNPRO1509","29.696","0.41596","5"],
    [10557,"HCEP03730566","2024-01-16 06:45:00","10.8753","3.39794","27.796","4.34","7.57","0.322","3.516","0.01","0.09","30.0835","4.73576","47.5","0","SATNPRO1509","29.502","0.41322","5"],
    [10558,"HCEP03730566","2024-01-16 07:00:00","10.8775","3.39796","27.947","4.322","7.57","0.305","3.903","0.01","0.13","30.0818","4.73549","47.3","0","SATNPRO1509","29.568","0.41416","5"],
    [10559,"HCEP03730566","2024-01-16 07:15:00","10.8815","3.39807","28.111","4.302","7.57","0.326","3.893","0.01","0.48","30.0797","4.73513","47.09","0","SATNPRO1509","29.75","0.41672","5"],
    [10560,"HCEP03730566","2024-01-16 07:30:00","10.8842","3.39803","28.226","4.272","7.57","1.56","49.835","2.02","32.49","30.077","4.73472","46.76","0","SATNPRO1509","29.5","0.4132","5"],
    [10561,"HCEP03730566","2024-01-16 07:45:00","10.8854","3.39814","28.332","4.237","7.56","0.6","23.213","0.51","22.28","30.077","4.73471","46.38","0","SATNPRO1509","29.366","0.4113","5"],
    [10562,"HCEP03730566","2024-01-16 08:00:00","10.8859","3.39801","28.417","4.225","7.56","0.323","4.806","0.04","1.57","30.0754","4.73447","46.25","0","SATNPRO1509","29.413999999999998","0.412","5"],
    [10563,"HCEP03730566","2024-01-16 08:15:00","10.8857","3.39811","28.467","4.226","7.56","0.435","25.019","0.29","26.96","30.0763","4.73462","46.26","0","SATNPRO1509","29.46","0.41262","5"],
    [10564,"HCEP03730566","2024-01-16 08:30:00","10.8861","3.39821","28.487","4.218","7.56","0.319","4.224","0.01","0.24","30.077","4.73471","46.18","0","SATNPRO1509","29.444","0.41244","5"],
    [10565,"HCEP03730566","2024-01-16 08:45:00","10.8871","3.39794","28.467","4.219","7.56","0.328","3.832","0.01","0.18","30.0737","4.73422","46.18","0","SATNPRO1509","29.53","0.4136","5"],
    [10566,"HCEP03730566","2024-01-16 09:00:00","10.8856","3.39804","28.489","4.228","7.56","0.336","3.885","0.02","0.16","30.0758","4.73454","46.29","0","SATNPRO1509","29.486","0.41302","5"],
    [10567,"HCEP03730566","2024-01-16 09:15:00","10.8865","3.39785","28.513","4.228","7.56","0.344","3.49","0.03","0.16","30.0732","4.73417","46.28","0","SATNPRO1509","29.778","0.4171","5"],
    [10568,"HCEP03730566","2024-01-16 09:30:00","10.8845","3.39805","28.428","4.219","7.56","0.316","3.706","0.01","0.13","30.0768","4.73471","46.18","0","SATNPRO1509","29.482","0.41294","5"],
    [10569,"HCEP03730566","2024-01-16 09:45:00","10.8853","3.39799","28.318","4.223","7.56","0.339","3.943","0.01","0.16","30.0756","4.73451","46.22","0","SATNPRO1509","29.49","0.41308","5"],
    [10570,"HCEP03730566","2024-01-16 10:00:00","10.8914","3.39761","28.29","4.19","7.56","1.499","17.842","2.42","27.52","30.0669","4.73318","45.87","0","SATNPRO1509","29.622","0.41492","5"],
    [10571,"HCEP03730566","2024-01-16 10:15:00","10.8922","3.39735","28.168","4.171","7.56","0.326","3.077","0.01","0.14","30.0638","4.73272","45.67","0","SATNPRO1509","29.637999999999998","0.41514","5"],
    [10572,"HCEP03730566","2024-01-16 10:30:00","10.89","3.39779","28.081","4.178","7.56","0.337","3.465","0.02","0.14","30.0699","4.73362","45.73","0","SATNPRO1509","29.509999999999998","0.41336","5"],
    [10573,"HCEP03730566","2024-01-16 10:45:00","10.8927","3.39792","27.983","4.172","7.56","0.326","3.401","0.01","0.18","30.069","4.73344","45.68","0","SATNPRO1509","29.726","0.41634","5"],
    [10574,"HCEP03730566","2024-01-16 11:00:00","10.8975","3.39763","27.87","4.151","7.55","0.308","3.034","0.01","0.21","30.0623","4.73241","45.45","0","SATNPRO1509","29.954","0.41956","5"],
    [10575,"HCEP03730566","2024-01-16 11:15:00","10.8976","3.39797","27.714","4.133","7.55","0.339","3.792","0.02","0.16","30.0656","4.73286","45.25","0","SATNPRO1509","29.548000000000002","0.41388","5"],
    [10576,"HCEP03730566","2024-01-16 11:30:00","10.903","3.39783","27.59","4.093","7.55","0.326","3.876","0.01","0.18","30.0598","4.73196","44.82","0","SATNPRO1509","29.512","0.4134","5"],
    [10577,"HCEP03730566","2024-01-16 11:45:00","10.9009","3.39795","27.44","4.065","7.55","0.335","3.947","0.01","0.14","30.0628","4.7324","44.51","0","SATNPRO1509","29.69","0.41588","5"],
    [10578,"HCEP03730566","2024-01-16 12:00:00","10.9115","3.39736","27.284","3.993","7.55","0.311","3.392","0.01","0.2","30.0484","4.73019","43.73","0","SATNPRO1509","29.846","0.41802","5"],
    [10579,"HCEP03730566","2024-01-16 12:15:00","10.9144","3.39656","27.111","3.934","7.54","0.328","3.672","0.01","0.16","30.0383","4.72869","43.08","0","SATNPRO1509","29.69","0.41588","5"],
    [10580,"HCEP03730566","2024-01-16 12:30:00","10.9196","3.396","26.935","3.895","7.54","0.329","4.262","0.02","0.44","30.0286","4.72723","42.65","0","SATNPRO1509","29.538","0.41372","5"],
    [10581,"HCEP03730566","2024-01-16 12:45:00","10.9065","3.39781","26.747","3.92","7.54","0.691","6.548","0.56","1.57","30.0571","4.73147","42.93","0","SATNPRO1509","28.762","0.40288","5"],
    [10582,"HCEP03730566","2024-01-16 13:00:00","10.904","3.39842","26.556","3.919","7.54","0.756","7.849","0.43","4.86","30.0652","4.73265","42.91","0","SATNPRO1509","28.8","0.40338","5"],
    [10583,"HCEP03730566","2024-01-16 13:15:00","10.9127","3.39741","26.384","3.905","7.54","0.413","6.864","0.07","3.59","30.0482","4.73009","42.76","0","SATNPRO1509","29.128","0.40798","5"],
    [10584,"HCEP03730566","2024-01-16 13:30:00","10.8971","3.39849","26.204","3.978","7.54","0.353","5.395","0.03","0.44","30.0716","4.73365","43.55","0","SATNPRO1509","28.864","0.40432","5"],
    [10585,"HCEP03730566","2024-01-16 13:45:00","10.8942","3.39882","26.018","4.007","7.54","1.003","10.834","0.49","5.33","30.0774","4.7345","43.88","0","SATNPRO1509","28.928","0.40516","5"],
    [10586,"HCEP03730566","2024-01-16 14:00:00","10.8935","3.39896","25.939","4.034","7.54","0.365","5.451","0.04","0.72","30.0793","4.73478","44.17","0","SATNPRO1509","29.056","0.407","5"],
    [10587,"HCEP03730566","2024-01-16 14:15:00","10.8915","3.39895","25.854","4.074","7.54","0.352","4.605","0.01","0.17","30.081","4.73504","44.61","0","SATNPRO1509","29.298","0.41034","5"],
    [10588,"HCEP03730566","2024-01-16 14:30:00","10.8901","3.39893","25.766","4.088","7.55","0.341","4.761","0.01","0.22","30.082","4.73519","44.76","0","SATNPRO1509","29.266000000000002","0.4099","5"],
    [10589,"HCEP03730566","2024-01-16 14:45:00","10.8883","3.39895","25.73","4.131","7.55","0.35","4.752","0.01","0.15","30.0835","4.73545","45.22","0","SATNPRO1509","29.482","0.41294","5"],
    [10590,"HCEP03730566","2024-01-16 15:00:00","10.8876","3.39868","25.749","4.201","7.55","0.347","4.747","0.01","0.24","30.0815","4.73517","45.99","0","SATNPRO1509","29.108","0.4077","5"],
    [10591,"HCEP03730566","2024-01-16 15:15:00","10.8849","3.39887","25.769","4.141","7.55","0.363","5.291","0.01","0.33","30.0856","4.73579","45.33","0","SATNPRO1509","29.186","0.40878","5"],
    [10592,"HCEP03730566","2024-01-16 15:30:00","10.8814","3.39822","25.781","4.191","7.55","0.352","4.676","0.01","0.26","30.0821","4.73536","45.87","0","SATNPRO1509","29.306","0.41044","5"],
    [10593,"HCEP03730566","2024-01-16 15:45:00","10.8791","3.39833","25.805","4.224","7.55","0.369","5.352","0.02","0.39","30.085","4.73581","46.24","0","SATNPRO1509","29.324","0.4107","5"],
    [10594,"HCEP03730566","2024-01-16 16:00:00","10.8777","3.39827","25.8","4.22","7.56","0.336","4.893","0.01","0.37","30.0855","4.7359","46.19","0","SATNPRO1509","29.468","0.41274","5"],
    [10595,"HCEP03730566","2024-01-16 16:15:00","10.8775","3.39829","25.852","4.208","7.56","0.362","5.015","0.02","0.22","30.0859","4.73596","46.06","0","SATNPRO1509","29.122","0.40788","5"],
    [10596,"HCEP03730566","2024-01-16 16:30:00","10.8777","3.39837","25.911","4.192","7.56","0.34","4.615","0.03","0.29","30.0865","4.73604","45.88","0","SATNPRO1509","29.154","0.40832","5"],
    [10597,"HCEP03730566","2024-01-16 16:45:00","10.8772","3.39838","25.973","4.177","7.55","0.363","4.839","0.03","0.26","30.087","4.73613","45.72","0","SATNPRO1509","28.86","0.40422","5"],
    [10598,"HCEP03730566","2024-01-16 17:00:00","10.8772","3.39828","26.04","4.161","7.55","0.357","8.734","0.02","4.21","30.086","4.73599","45.55","0","SATNPRO1509","28.778","0.4031","5"],
    [10599,"HCEP03730566","2024-01-16 17:15:00","10.8773","3.39815","26.141","4.161","7.55","0.355","5.104","0.02","0.37","30.0846","4.7358","45.54","0","SATNPRO1509","28.932","0.40526","5"],
    [10600,"HCEP03730566","2024-01-16 17:30:00","10.8766","3.39802","26.228","4.138","7.55","0.329","4.885","0.01","0.25","30.0839","4.73571","45.29","0","SATNPRO1509","28.708000000000002","0.40212","5"],
    [10601,"HCEP03730566","2024-01-16 17:45:00","10.8797","3.39819","26.324","4.093","7.55","0.377","5.741","0.03","0.52","30.083","4.73554","44.8","0","SATNPRO1509","28.66","0.40146","5"],
    [10602,"HCEP03730566","2024-01-16 18:00:00","10.8802","3.39816","26.444","4.11","7.55","0.343","5.101","0.02","0.27","30.0822","4.73542","44.99","0","SATNPRO1509","28.872","0.4044","5"],
    [10603,"HCEP03730566","2024-01-16 18:15:00","10.8767","3.39748","26.528","4.156","7.55","0.331","4.015","0.01","0.22","30.0783","4.73493","45.48","0","SATNPRO1509","29.078","0.40728","5"],
    [10604,"HCEP03730566","2024-01-16 18:30:00","10.8805","3.39775","26.623","4.176","7.55","0.328","4.089","0.01","0.19","30.0779","4.73481","45.71","0","SATNPRO1509","28.982","0.40596","5"],
    [10605,"HCEP03730566","2024-01-16 18:45:00","10.8797","3.3972","26.7","4.124","7.55","0.349","4.557","0.02","0.65","30.0731","4.73415","45.14","0","SATNPRO1509","29.028000000000002","0.40658","5"],
    [10606,"HCEP03730566","2024-01-16 19:00:00","10.8825","3.39737","26.817","4.095","7.55","0.372","5.023","0.03","0.29","30.0724","4.73401","44.82","0","SATNPRO1509","28.836","0.40392","5"],
    [10607,"HCEP03730566","2024-01-16 19:15:00","10.8835","3.39707","26.924","4.067","7.55","0.489","7.418","0.09","1.73","30.0686","4.73347","44.52","0","SATNPRO1509","28.914","0.40498","5"],
    [10608,"HCEP03730566","2024-01-16 19:30:00","10.8813","3.39565","27.013","4.094","7.55","0.483","10.059","0.06","1.85","30.0564","4.73178","44.8","0","SATNPRO1509","29.2","0.40904","5"],
    [10609,"HCEP03730566","2024-01-16 19:45:00","10.8884","3.39538","27.082","4.072","7.55","4.843","61.528","2.69","17.77","30.048","4.73047","44.57","0","SATNPRO1509","29.5","0.4132","5"],
    [10610,"HCEP03730566","2024-01-16 20:00:00","10.8994","3.39585","27.156","3.979","7.54","0.316","4.042","0.01","0.19","30.0435","4.72966","43.56","0","SATNPRO1509","29.446","0.41246","5"],
    [10611,"HCEP03730566","2024-01-16 20:15:00","10.9062","3.39629","27.214","3.894","7.54","0.347","6.211","0.05","3.16","30.0423","4.72939","42.64","0","SATNPRO1509","29.314","0.4106","5"],
    [10612,"HCEP03730566","2024-01-16 20:30:00","10.9044","3.39641","27.282","3.868","7.53","0.317","4.126","0.01","0.17","30.0448","4.72979","42.35","0","SATNPRO1509","29.392","0.41168","5"],
    [10613,"HCEP03730566","2024-01-16 20:45:00","10.8928","3.39514","27.254","3.936","7.53","0.34","9.399","0.02","1.48","30.042","4.72956","43.08","0","SATNPRO1509","29.306","0.41048","5"],
    [10614,"HCEP03730566","2024-01-16 21:00:00","10.9028","3.39625","27.211","3.886","7.53","0.798","17.255","0.14","8.15","30.0446","4.72977","42.54","0","SATNPRO1509","29.148","0.4083","5"],
    [10615,"HCEP03730566","2024-01-16 21:15:00","10.9078","3.39676","27.18","3.822","7.53","0.323","4.313","0.01","0.2","30.0456","4.72984","41.85","0","SATNPRO1509","29.116","0.40782","5"],
    [10616,"HCEP03730566","2024-01-16 21:30:00","10.9111","3.39704","27.127","3.778","7.53","0.346","5.549","0.09","2.25","30.0457","4.7298","41.37","0","SATNPRO1509","28.746","0.40264","5"],
    [10617,"HCEP03730566","2024-01-16 21:45:00","10.9146","3.39704","27.078","3.744","7.52","1.306","11.755","0.16","1.76","30.0428","4.72934","41","0","SATNPRO1509","29.247999999999998","0.4097","5"],
    [10618,"HCEP03730566","2024-01-16 22:00:00","10.9163","3.397","27.008","3.722","7.52","0.586","7.536","0.19","0.97","30.041","4.72905","40.76","0","SATNPRO1509","29.19","0.40886","5"],
    [10619,"HCEP03730566","2024-01-16 22:15:00","10.9168","3.3969","26.921","3.723","7.52","0.657","11.701","0.12","0.77","30.0397","4.72885","40.78","0","SATNPRO1509","29.25","0.4097","5"],
    [10620,"HCEP03730566","2024-01-16 22:30:00","10.9167","3.39692","26.828","3.711","7.52","1.165","15.911","0.45","2.39","30.04","4.72888","40.64","0","SATNPRO1509","29.184","0.4088","5"],
    [10621,"HCEP03730566","2024-01-16 22:45:00","10.9124","3.39701","26.711","3.732","7.52","0.943","14.128","0.08","0.65","30.0445","4.72958","40.86","0","SATNPRO1509","29.166","0.40854","5"],
    [10622,"HCEP03730566","2024-01-16 23:00:00","10.8993","3.39613","26.644","3.852","7.52","1.714","20.766","0.34","5.9","30.0466","4.73008","42.17","0","SATNPRO1509","29.294","0.41034","5"],
    [10623,"HCEP03730566","2024-01-16 23:15:00","10.8934","3.39582","26.528","3.922","7.52","2.611","29.462","1.01","7.77","30.0483","4.73041","42.93","0","SATNPRO1509","29.478","0.4129","5"],
    [10624,"HCEP03730566","2024-01-16 23:30:00","10.889","3.39531","26.417","3.979","7.53","3.386","64.039","1","9.42","30.0471","4.7303","43.55","0","SATNPRO1509","29.554","0.41394","5"],
    [10625,"HCEP03730566","2024-01-16 23:45:00","10.8853","3.39439","26.305","4.031","7.53","1.604","45.518","1.04","30.21","30.0411","4.72951","44.11","0","SATNPRO1509","29.733999999999998","0.41648","5"],
    [10626,"HCEP03730566","2024-01-17 00:00:00","10.8806","3.39442","26.16","4.045","7.54","0.325","4.349","0.01","0.22","30.0453","4.73016","44.27","0","SATNPRO1509","29.434","0.41228","5"],
    [10627,"HCEP03730566","2024-01-17 00:15:00","10.8842","3.39516","26.021","4.017","7.54","0.35","4.799","0.01","0.2","30.0497","4.73072","43.96","0","SATNPRO1509","29.262","0.40986","5"],
    [10628,"HCEP03730566","2024-01-17 00:30:00","10.8808","3.3954","25.927","4.034","7.54","0.363","5.118","0.02","0.38","30.0548","4.73149","44.14","0","SATNPRO1509","29.296","0.41034","5"],
    [10629,"HCEP03730566","2024-01-17 00:45:00","10.8822","3.396","25.794","4.022","7.54","0.338","4.801","0.01","0.56","30.0596","4.73215","44.02","0","SATNPRO1509","29.024","0.40654","5"],
    [10630,"HCEP03730566","2024-01-17 01:00:00","10.8827","3.39623","25.689","4.018","7.54","0.322","5.68","0.03","0.41","30.0615","4.73241","43.97","0","SATNPRO1509","29.122","0.40786","5"],
    [10631,"HCEP03730566","2024-01-17 01:15:00","10.8797","3.39582","25.567","4.044","7.54","0.562","20.132","0.18","17.63","30.0601","4.73224","44.26","0","SATNPRO1509","29.196","0.40894","5"],
    [10632,"HCEP03730566","2024-01-17 01:30:00","10.8827","3.39606","25.446","4.056","7.54","0.325","4.834","0.01","0.46","30.06","4.73217","44.39","0","SATNPRO1509","29.214","0.4092","5"],
    [10633,"HCEP03730566","2024-01-17 01:45:00","10.8792","3.39603","25.342","4.07","7.54","0.334","4.839","0.01","0.34","30.0626","4.73259","44.54","0","SATNPRO1509","29.216","0.40922","5"],
    [10634,"HCEP03730566","2024-01-17 02:00:00","10.8768","3.39601","25.25","4.107","7.54","0.323","4.753","0.01","0.44","30.0644","4.73288","44.95","0","SATNPRO1509","29.349999999999998","0.41104","5"],
    [10635,"HCEP03730566","2024-01-17 02:15:00","10.8744","3.39544","25.215","4.161","7.55","0.33","4.359","0.01","0.37","30.0607","4.73239","45.54","0","SATNPRO1509","29.637999999999998","0.41514","5"],
    [10636,"HCEP03730566","2024-01-17 02:30:00","10.8749","3.39578","25.25","4.173","7.55","0.321","4.545","0.01","0.26","30.0637","4.73281","45.66","0","SATNPRO1509","29.45","0.41252","5"],
    [10637,"HCEP03730566","2024-01-17 02:45:00","10.8763","3.39622","25.206","4.158","7.55","0.346","5.092","0.01","1.32","30.0669","4.73323","45.51","0","SATNPRO1509","29.348000000000003","0.41108","5"],
    [10638,"HCEP03730566","2024-01-17 03:00:00","10.8767","3.39657","25.284","4.155","7.55","0.332","5.148","0.01","0.27","30.0699","4.73366","45.47","0","SATNPRO1509","29.322","0.41072","5"],
    [10639,"HCEP03730566","2024-01-17 03:15:00","10.8762","3.39683","25.341","4.172","7.55","0.344","4.698","0.02","0.2","30.0729","4.7341","45.66","0","SATNPRO1509","29.536","0.41374","5"],
    [10640,"HCEP03730566","2024-01-17 03:30:00","10.8759","3.39703","25.379","4.168","7.55","0.355","5.045","0.02","0.3","30.0751","4.73442","45.62","0","SATNPRO1509","29.462","0.4127","5"],
    [10641,"HCEP03730566","2024-01-17 03:45:00","10.8761","3.39712","25.523","4.166","7.55","0.375","5.199","0.03","0.44","30.0757","4.73451","45.59","0","SATNPRO1509","29.314","0.4106","5"],
    [10642,"HCEP03730566","2024-01-17 04:00:00","10.8762","3.3971","25.625","4.166","7.55","0.429","7.388","0.04","1.68","30.0754","4.73448","45.59","0","SATNPRO1509","29.442","0.4124","5"],
    [10643,"HCEP03730566","2024-01-17 04:15:00","10.8763","3.3972","25.752","4.153","7.55","0.347","5.209","0.02","0.26","30.0763","4.7346","45.45","0","SATNPRO1509","29.334","0.41088","5"],
    [10644,"HCEP03730566","2024-01-17 04:30:00","10.8772","3.39732","25.87","4.145","7.55","0.338","5.103","0.01","0.36","30.0767","4.73466","45.36","0","SATNPRO1509","29.372","0.4114","5"],
    [10645,"HCEP03730566","2024-01-17 04:45:00","10.8777","3.39744","26.004","4.151","7.55","0.341","4.532","0.01","0.32","30.0773","4.73475","45.44","0","SATNPRO1509","29.566","0.41412","5"],
    [10646,"HCEP03730566","2024-01-17 05:00:00","10.8782","3.39752","26.15","4.138","7.55","0.328","4.707","0.01","0.26","30.0777","4.7348","45.29","0","SATNPRO1509","29.37","0.41138","5"],
    [10647,"HCEP03730566","2024-01-17 05:15:00","10.8804","3.39763","26.307","4.157","7.55","0.446","5.058","0.05","0.49","30.0769","4.73466","45.5","0","SATNPRO1509","29.604","0.41466","5"],
    [10648,"HCEP03730566","2024-01-17 05:30:00","10.8799","3.39757","26.498","4.156","7.55","0.348","4.565","0.04","0.28","30.0766","4.73464","45.49","0","SATNPRO1509","29.512","0.41336","5"],
    [10649,"HCEP03730566","2024-01-17 05:45:00","10.881","3.3975","26.665","4.178","7.55","0.635","6.778","0.13","1.25","30.075","4.7344","45.73","0","SATNPRO1509","29.376","0.41146","5"],
    [10650,"HCEP03730566","2024-01-17 06:00:00","10.8799","3.3973","26.849","4.209","7.55","0.538","5.247","0.07","1.04","30.0739","4.73427","46.07","0","SATNPRO1509","29.648","0.41524","5"],
    [10651,"HCEP03730566","2024-01-17 06:15:00","10.8797","3.39716","27.05","4.224","7.56","0.439","4.129","0.09","0.97","30.0726","4.7341","46.23","0","SATNPRO1509","29.852","0.41814","5"],
    [10652,"HCEP03730566","2024-01-17 06:30:00","10.8766","3.39714","27.193","4.162","7.55","0.49","6.865","0.03","0.84","30.0748","4.73447","45.55","0","SATNPRO1509","29.344","0.411","5"],
    [10653,"HCEP03730566","2024-01-17 06:45:00","10.8768","3.39709","27.431","4.091","7.55","0.534","7.547","0.06","0.78","30.0741","4.73438","44.78","0","SATNPRO1509","29.002","0.40624","5"],
    [10654,"HCEP03730566","2024-01-17 07:00:00","10.8766","3.3969","27.619","4.075","7.55","0.523","8.237","0.02","0.61","30.0723","4.73414","44.6","0","SATNPRO1509","28.988","0.40602","5"],
    [10655,"HCEP03730566","2024-01-17 07:15:00","10.8747","3.39666","27.807","4.089","7.55","0.42","5.793","0.03","0.29","30.0714","4.73406","44.75","0","SATNPRO1509","29.084","0.4074","5"],
    [10656,"HCEP03730566","2024-01-17 07:30:00","10.8727","3.3964","27.939","4.102","7.55","0.666","10.034","0.08","1.64","30.0705","4.73396","44.89","0","SATNPRO1509","29.25","0.4097","5"],
    [10657,"HCEP03730566","2024-01-17 07:45:00","10.8699","3.39605","28.107","4.138","7.55","1.096","18.708","0.12","4.24","30.0693","4.73385","45.28","0","SATNPRO1509","29.25","0.40972","5"],
    [10658,"HCEP03730566","2024-01-17 08:00:00","10.8693","3.39589","28.202","4.141","7.55","0.373","5.3","0.04","0.33","30.0681","4.73369","45.32","0","SATNPRO1509","29.194","0.40888","5"],
    [10659,"HCEP03730566","2024-01-17 08:15:00","10.8675","3.3956","28.369","4.134","7.55","0.348","5.302","0.01","0.31","30.0667","4.73353","45.23","0","SATNPRO1509","29.116","0.40786","5"],
    [10660,"HCEP03730566","2024-01-17 08:30:00","10.8667","3.39542","28.475","4.115","7.55","0.328","4.747","0.01","0.22","30.0656","4.73338","45.03","0","SATNPRO1509","29.132","0.40802","5"],
    [10661,"HCEP03730566","2024-01-17 08:45:00","10.8681","3.39541","28.499","4.096","7.55","0.336","4.902","0.01","0.26","30.0644","4.7332","44.82","0","SATNPRO1509","29.016000000000002","0.40644","5"],
    [10662,"HCEP03730566","2024-01-17 09:00:00","10.868","3.39526","28.524","4.087","7.55","0.333","5.259","0.02","1.07","30.0629","4.73299","44.72","0","SATNPRO1509","28.992","0.40606","5"],
    [10663,"HCEP03730566","2024-01-17 09:15:00","10.8698","3.39528","28.528","4.07","7.54","0.339","4.956","0.01","0.27","30.0616","4.73278","44.53","0","SATNPRO1509","29.052","0.40694","5"],
    [10664,"HCEP03730566","2024-01-17 09:30:00","10.8752","3.39548","28.527","4.026","7.54","0.352","4.691","0.03","0.43","30.0592","4.73236","44.06","0","SATNPRO1509","29.132","0.40808","5"],
    [10665,"HCEP03730566","2024-01-17 09:45:00","10.879","3.39591","28.512","3.974","7.54","0.419","7.126","0.11","8.81","30.0603","4.73245","43.5","0","SATNPRO1509","29.076","0.40728","5"],
    [10666,"HCEP03730566","2024-01-17 10:00:00","10.8854","3.3962","28.49","3.935","7.54","0.315","4.409","0.01","0.33","30.0579","4.732","43.07","0","SATNPRO1509","28.983999999999998","0.40598","5"],
    [10667,"HCEP03730566","2024-01-17 10:15:00","10.8885","3.39639","28.387","3.876","7.53","0.351","4.667","0.03","0.18","30.0573","4.73186","42.42","0","SATNPRO1509","29.09","0.40748","5"],
    [10668,"HCEP03730566","2024-01-17 10:30:00","10.8916","3.39682","28.312","3.822","7.53","0.309","4.98","0.02","0.57","30.0591","4.73207","41.84","0","SATNPRO1509","28.954","0.40558","5"],
    [10669,"HCEP03730566","2024-01-17 10:45:00","10.8832","3.39644","28.229","3.865","7.53","0.366","4.805","0.13","0.46","30.0622","4.73264","42.3","0","SATNPRO1509","28.94","0.40532","5"],
    [10670,"HCEP03730566","2024-01-17 11:00:00","10.8707","3.39562","28.131","3.987","7.53","0.315","3.913","0.01","0.17","30.0644","4.73314","43.63","0","SATNPRO1509","29.266","0.4099","5"],
    [10671,"HCEP03730566","2024-01-17 11:15:00","10.8369","3.39275","28.045","4.231","7.54","0.325","3.585","0.02","0.32","30.064","4.7336","46.26","0","SATNPRO1509","29.43","0.4122","5"],
    [10672,"HCEP03730566","2024-01-17 11:30:00","10.8249","3.39177","27.933","4.369","7.55","0.312","3.423","0.01","0.23","30.0643","4.73382","47.76","0","SATNPRO1509","29.546","0.41384","5"],
    [10673,"HCEP03730566","2024-01-17 11:45:00","10.8196","3.39136","27.823","4.42","7.56","0.324","3.326","0.01","0.17","30.0647","4.73396","48.32","0","SATNPRO1509","29.573999999999998","0.41426","5"],
    [10674,"HCEP03730566","2024-01-17 12:00:00","10.8329","3.3926","27.678","4.356","7.56","0.311","3.67","0.01","0.14","30.0659","4.73392","47.63","0","SATNPRO1509","29.518","0.41344","5"],
    [10675,"HCEP03730566","2024-01-17 12:15:00","10.825","3.39194","27.564","4.382","7.56","0.32","3.318","0.01","0.1","30.0659","4.73403","47.9","0","SATNPRO1509","29.526","0.41352","5"],
    [10676,"HCEP03730566","2024-01-17 12:30:00","10.8251","3.39184","27.381","4.385","7.56","0.373","4.168","0.1","1.51","30.065","4.73389","47.94","0","SATNPRO1509","29.608","0.4147","5"],
    [10677,"HCEP03730566","2024-01-17 12:45:00","10.8392","3.39305","27.228","4.305","7.56","0.331","3.719","0.01","0.21","30.0653","4.73371","47.07","0","SATNPRO1509","29.456","0.41258","5"],
    [10678,"HCEP03730566","2024-01-17 13:00:00","10.8264","3.39171","27.065","4.366","7.56","0.334","3.854","0.03","1.47","30.0627","4.73353","47.73","0","SATNPRO1509","29.573999999999998","0.41422","5"],
    [10679,"HCEP03730566","2024-01-17 13:15:00","10.8289","3.39173","26.931","4.372","7.56","0.324","3.287","0.01","0.15","30.061","4.73324","47.8","0","SATNPRO1509","29.608","0.41474","5"],
    [10680,"HCEP03730566","2024-01-17 13:30:00","10.8355","3.39228","26.723","4.333","7.56","0.322","3.497","0.03","0.42","30.061","4.73312","47.37","0","SATNPRO1509","29.582","0.41436","5"],
    [10681,"HCEP03730566","2024-01-17 13:45:00","10.8243","3.3909","26.54","4.337","7.56","0.396","2.969","0.19","0.34","30.0567","4.73268","47.41","0","SATNPRO1509","29.808","0.41752","5"],
    [10682,"HCEP03730566","2024-01-17 14:00:00","10.8379","3.39203","26.346","4.325","7.56","0.314","3.047","0.02","0.11","30.0568","4.73247","47.29","0","SATNPRO1509","29.79","0.41724","5"],
    [10683,"HCEP03730566","2024-01-17 14:15:00","10.8341","3.39166","26.155","4.341","7.56","0.318","2.933","0.01","0.12","30.0563","4.73244","47.46","0","SATNPRO1509","29.826","0.41778","5"],
    [10684,"HCEP03730566","2024-01-17 14:30:00","10.8524","3.39336","25.949","4.228","7.56","0.306","2.962","0.01","0.11","30.0581","4.7324","46.25","0","SATNPRO1509","29.708","0.41612","5"],
    [10685,"HCEP03730566","2024-01-17 14:45:00","10.8654","3.39435","25.791","4.095","7.55","0.338","3.175","0.04","0.19","30.0572","4.73206","44.8","0","SATNPRO1509","29.508","0.4133","5"],
    [10686,"HCEP03730566","2024-01-17 15:00:00","10.8639","3.39406","25.652","4.086","7.55","0.312","3.265","0.02","0.28","30.0556","4.73185","44.7","0","SATNPRO1509","29.564","0.4141","5"],
    [10687,"HCEP03730566","2024-01-17 15:15:00","10.8626","3.39409","25.548","4.066","7.55","0.311","2.878","0.01","0.09","30.057","4.73206","44.48","0","SATNPRO1509","29.478","0.41286","5"],
    [10688,"HCEP03730566","2024-01-17 15:30:00","10.8661","3.39443","25.483","4.067","7.55","0.299","2.971","0.01","0.17","30.0576","4.73209","44.49","0","SATNPRO1509","29.462","0.41266","5"],
    [10689,"HCEP03730566","2024-01-17 15:45:00","10.8612","3.39402","25.44","4.068","7.54","0.391","4.396","0.11","2.93","30.0576","4.73216","44.5","0","SATNPRO1509","29.31","0.4105","5"],
    [10690,"HCEP03730566","2024-01-17 16:00:00","10.8392","3.39233","25.412","4.19","7.55","0.395","6.961","0.06","2.98","30.0591","4.73272","45.81","0","SATNPRO1509","29.34","0.41096","5"],
    [10691,"HCEP03730566","2024-01-17 16:15:00","10.8237","3.39166","25.392","4.288","7.55","0.356","5.342","0.02","0.48","30.0652","4.73382","46.87","0","SATNPRO1509","29.308","0.41054","5"],
    [10692,"HCEP03730566","2024-01-17 16:30:00","10.8252","3.39196","25.396","4.31","7.56","0.344","5.856","0.03","1.78","30.0669","4.73404","47.11","0","SATNPRO1509","29.19","0.40886","5"],
    [10693,"HCEP03730566","2024-01-17 16:45:00","10.8314","3.39244","25.422","4.29","7.56","0.308","3.679","0.01","0.15","30.0665","4.73389","46.9","0","SATNPRO1509","29.198","0.40896","5"],
    [10694,"HCEP03730566","2024-01-17 17:00:00","10.8318","3.39266","25.443","4.265","7.56","0.372","3.96","0.06","0.67","30.0683","4.73414","46.62","0","SATNPRO1509","29.200000000000003","0.40896","5"],
    [10695,"HCEP03730566","2024-01-17 17:15:00","10.8295","3.3926","25.467","4.273","7.56","0.51","7.16","0.2","5.08","30.0696","4.73437","46.72","0","SATNPRO1509","29.248","0.40968","5"],
    [10696,"HCEP03730566","2024-01-17 17:30:00","10.8244","3.39243","25.522","4.288","7.56","0.48","12.568","0.12","7.76","30.0721","4.73481","46.87","0","SATNPRO1509","28.922","0.4051","5"],
    [10697,"HCEP03730566","2024-01-17 17:45:00","10.8191","3.39224","25.583","4.319","7.56","0.331","4.299","0.01","0.29","30.0745","4.73524","47.2","0","SATNPRO1509","29.028000000000002","0.40656","5"],
    [10698,"HCEP03730566","2024-01-17 18:00:00","10.8233","3.39264","25.656","4.292","7.56","0.307","4.285","0.01","0.32","30.075","4.73523","46.92","0","SATNPRO1509","28.894000000000002","0.40472","5"],
    [10699,"HCEP03730566","2024-01-17 18:15:00","10.8287","3.39291","25.746","4.244","7.56","0.663","13.038","0.26","7.3","30.0732","4.73491","46.4","0","SATNPRO1509","29.094","0.40752","5"],
    [10700,"HCEP03730566","2024-01-17 18:30:00","10.8286","3.39289","25.833","4.241","7.56","14.233","299.058","1.81","153.61","30.073","4.73488","46.36","0","SATNPRO1509","29.112000000000002","0.40774","5"],
    [10701,"HCEP03730566","2024-01-17 18:45:00","10.8278","3.39291","25.928","4.231","7.56","0.331","4.191","0.01","0.15","30.0739","4.73502","46.25","0","SATNPRO1509","29.018","0.40646","5"],
    [10702,"HCEP03730566","2024-01-17 19:00:00","10.8328","3.39317","26.058","4.226","7.56","0.333","4.822","0.02","0.45","30.0722","4.73472","46.2","0","SATNPRO1509","28.862000000000002","0.4043","5"],
    [10703,"HCEP03730566","2024-01-17 19:15:00","10.8364","3.39353","26.049","4.168","7.55","0.373","5.34","0.08","0.85","30.0729","4.73476","45.58","0","SATNPRO1509","29.022","0.40648","5"],
    [10704,"HCEP03730566","2024-01-17 19:30:00","10.8542","3.3947","26.213","4.027","7.55","0.544","6.205","0.29","1.86","30.0697","4.73404","44.04","0","SATNPRO1509","28.648","0.40126","5"],
    [10705,"HCEP03730566","2024-01-17 19:45:00","10.8596","3.39504","26.303","3.957","7.54","0.465","7.446","0.14","2.32","30.0686","4.7338","43.29","0","SATNPRO1509","28.624","0.4009","5"],
    [10706,"HCEP03730566","2024-01-17 20:00:00","10.8354","3.39344","26.404","4.075","7.54","0.355","5.578","0.02","0.32","30.0726","4.73475","44.55","0","SATNPRO1509","28.724","0.40234","5"],
    [10707,"HCEP03730566","2024-01-17 20:15:00","10.8192","3.3923","26.522","4.224","7.55","0.338","4.934","0.01","0.28","30.0747","4.73531","46.17","0","SATNPRO1509","29.052","0.40692","5"],
    [10708,"HCEP03730566","2024-01-17 20:30:00","10.815","3.39206","26.644","4.307","7.55","0.322","5.071","0.01","0.26","30.0757","4.73553","47.07","0","SATNPRO1509","28.784","0.40314","5"],
    [10709,"HCEP03730566","2024-01-17 20:45:00","10.8204","3.3929","26.754","4.294","7.56","0.335","4.952","0.02","0.67","30.0795","4.73599","46.94","0","SATNPRO1509","28.862","0.40426","5"],
    [10710,"HCEP03730566","2024-01-17 21:00:00","10.8249","3.39337","26.851","4.263","7.56","0.373","17","0.03","2.49","30.0804","4.73605","46.6","0","SATNPRO1509","28.834","0.40384","5"],
    [10711,"HCEP03730566","2024-01-17 21:15:00","10.8248","3.39324","26.928","4.25","7.56","0.342","4.883","0.01","0.26","30.0791","4.73588","46.47","0","SATNPRO1509","28.881999999999998","0.40456","5"],
    [10712,"HCEP03730566","2024-01-17 21:30:00","10.8228","3.39261","26.959","4.24","7.56","0.323","4.637","0.01","0.17","30.0745","4.73526","46.35","0","SATNPRO1509","28.854","0.40412","5"],
    [10713,"HCEP03730566","2024-01-17 21:45:00","10.8235","3.39213","26.976","4.227","7.56","0.342","5.156","0.02","0.34","30.0694","4.73452","46.2","0","SATNPRO1509","28.752","0.40276","5"],
    [10714,"HCEP03730566","2024-01-17 22:00:00","10.828","3.39233","27.02","4.206","7.55","0.327","5.023","0.01","0.16","30.0676","4.7342","45.98","0","SATNPRO1509","28.798","0.40336","5"],
    [10715,"HCEP03730566","2024-01-17 22:15:00","10.8283","3.39231","27.016","4.187","7.55","0.339","4.997","0.01","0.3","30.0672","4.73413","45.77","0","SATNPRO1509","28.862","0.40424","5"],
    [10716,"HCEP03730566","2024-01-17 22:30:00","10.831","3.39264","27.032","4.15","7.55","0.331","5.386","0.01","0.32","30.0682","4.73424","45.37","0","SATNPRO1509","28.766","0.4029","5"],
    [10717,"HCEP03730566","2024-01-17 22:45:00","10.8376","3.39321","27","4.098","7.55","0.337","4.883","0.01","0.15","30.0683","4.73414","44.81","0","SATNPRO1509","28.612000000000002","0.40082","5"],
    [10718,"HCEP03730566","2024-01-17 23:00:00","10.8434","3.3937","26.97","4.049","7.55","5.868","326.494","3.15","129.56","30.0684","4.73407","44.28","0","SATNPRO1509","28.66","0.40146","5"],
    [10719,"HCEP03730566","2024-01-17 23:15:00","10.8455","3.39386","26.941","4.022","7.54","0.366","5.046","0.03","0.43","30.0683","4.73402","43.99","0","SATNPRO1509","28.560000000000002","0.40004","5"],
    [10720,"HCEP03730566","2024-01-17 23:30:00","10.8439","3.39358","26.88","4.041","7.54","0.399","5.998","0.19","3.75","30.0669","4.73383","44.19","0","SATNPRO1509","28.77","0.403","5"],
    [10721,"HCEP03730566","2024-01-17 23:45:00","10.8377","3.39295","26.808","4.097","7.54","0.375","4.609","0.03","0.21","30.0657","4.73377","44.8","0","SATNPRO1509","28.782","0.40314","5"],
    [10722,"HCEP03730566","2024-01-18 00:00:00","10.839","3.39333","26.756","4.089","7.54","0.443","6.472","0.08","1.08","30.0684","4.73412","44.72","0","SATNPRO1509","28.64","0.4011","5"],
    [10723,"HCEP03730566","2024-01-18 00:15:00","10.8401","3.39344","26.702","4.078","7.54","0.567","6.961","0.05","0.63","30.0686","4.73414","44.59","0","SATNPRO1509","28.764","0.40288","5"],
    [10724,"HCEP03730566","2024-01-18 00:30:00","10.8367","3.39299","26.652","4.114","7.54","1.575","38.552","0.76","10.95","30.067","4.73396","44.98","0","SATNPRO1509","28.93","0.4052","5"],
    [10725,"HCEP03730566","2024-01-18 00:45:00","10.8396","3.39308","26.604","4.128","7.55","0.45","5.505","0.05","0.62","30.0656","4.73371","45.14","0","SATNPRO1509","29.018","0.40646","5"],
    [10726,"HCEP03730566","2024-01-18 01:00:00","10.8405","3.39304","26.495","4.146","7.55","8.036","111.406","1.28","19.82","30.0645","4.73353","45.34","0","SATNPRO1509","29.156","0.40838","5"],
    [10727,"HCEP03730566","2024-01-18 01:15:00","10.8457","3.39318","26.43","4.118","7.55","1.078","23.95","1.42","32.52","30.0616","4.73303","45.03","0","SATNPRO1509","29.344","0.41104","5"],
    [10728,"HCEP03730566","2024-01-18 01:30:00","10.8524","3.39445","26.335","4.046","7.54","0.336","4.58","0.01","0.25","30.0687","4.73393","44.25","0","SATNPRO1509","28.766000000000002","0.40296","5"],
    [10729,"HCEP03730566","2024-01-18 01:45:00","10.8496","3.39436","26.256","3.994","7.54","0.334","5.43","0.01","0.2","30.0701","4.73417","43.69","0","SATNPRO1509","28.404","0.39784","5"],
    [10730,"HCEP03730566","2024-01-18 02:00:00","10.84","3.39363","26.199","4.054","7.54","0.324","5.132","0.01","0.18","30.0708","4.73442","44.33","0","SATNPRO1509","28.814","0.40358","5"],
    [10731,"HCEP03730566","2024-01-18 02:15:00","10.8376","3.39354","26.116","4.101","7.54","8.26","506.768","5.43","266.97","30.072","4.73461","44.84","0","SATNPRO1509","28.676000000000002","0.40164","5"],
    [10732,"HCEP03730566","2024-01-18 02:30:00","10.8402","3.3939","26.083","4.087","7.54","0.346","5.955","0.02","0.49","30.0733","4.73476","44.7","0","SATNPRO1509","28.784","0.40322","5"],
    [10733,"HCEP03730566","2024-01-18 02:45:00","10.8529","3.39518","25.997","4.014","7.54","0.353","6.071","0.04","2.25","30.0755","4.73486","43.91","0","SATNPRO1509","28.538","0.39972","5"],
    [10734,"HCEP03730566","2024-01-18 03:00:00","10.8618","3.396","25.944","3.937","7.54","0.327","5.795","0.01","0.62","30.0763","4.73484","43.07","0","SATNPRO1509","28.574","0.40024","5"],
    [10735,"HCEP03730566","2024-01-18 03:15:00","10.8712","3.39684","25.946","3.863","7.53","0.332","4.966","0.01","0.3","30.0769","4.73478","42.28","0","SATNPRO1509","28.404","0.39784","5"],
    [10736,"HCEP03730566","2024-01-18 03:30:00","10.8748","3.39711","25.937","3.823","7.53","3.266","48.168","2.8","36.19","30.0765","4.73467","41.84","0","SATNPRO1509","28.45","0.39848","5"],
    [10737,"HCEP03730566","2024-01-18 03:45:00","10.8707","3.39673","25.945","3.843","7.53","0.33","4.768","0.01","0.17","30.0762","4.73469","42.06","0","SATNPRO1509","28.502","0.39922","5"],
    [10738,"HCEP03730566","2024-01-18 04:00:00","10.8701","3.39674","26.033","3.854","7.53","0.321","4.716","0.01","0.21","30.0768","4.73479","42.18","0","SATNPRO1509","28.404","0.39784","5"],
    [10739,"HCEP03730566","2024-01-18 04:15:00","10.8611","3.39597","26.041","3.886","7.53","0.34","5.579","0.01","0.29","30.0766","4.7349","42.52","0","SATNPRO1509","28.378","0.3975","5"],
    [10740,"HCEP03730566","2024-01-18 04:30:00","10.8532","3.39532","26.116","3.93","7.53","0.328","5.767","0.01","0.32","30.0766","4.73503","42.99","0","SATNPRO1509","28.43","0.3982","5"],
    [10741,"HCEP03730566","2024-01-18 04:45:00","10.8469","3.39485","26.167","3.969","7.53","0.336","5.255","0","0.23","30.0771","4.73521","43.41","0","SATNPRO1509","28.486","0.399","5"],
    [10742,"HCEP03730566","2024-01-18 05:00:00","10.8424","3.39442","26.307","4","7.53","0.33","6.06","0.01","0.3","30.0766","4.73521","43.74","0","SATNPRO1509","28.326","0.39676","5"],
    [10743,"HCEP03730566","2024-01-18 05:15:00","10.8405","3.3944","26.4","3.994","7.53","0.357","6.518","0.01","0.26","30.0779","4.73542","43.68","0","SATNPRO1509","28.152","0.39432","5"],
    [10744,"HCEP03730566","2024-01-18 05:30:00","10.8409","3.39456","26.493","3.974","7.53","0.344","6.745","0.01","0.48","30.0791","4.7356","43.46","0","SATNPRO1509","28.048000000000002","0.39286","5"],
    [10745,"HCEP03730566","2024-01-18 05:45:00","10.8427","3.39501","26.657","3.956","7.53","0.354","6.886","0.01","0.31","30.082","4.73599","43.27","0","SATNPRO1509","28.114","0.39382","5"],
    [10746,"HCEP03730566","2024-01-18 06:00:00","10.8452","3.39557","26.793","3.957","7.53","0.346","6.3","0.01","0.3","30.0853","4.73643","43.28","0","SATNPRO1509","28.146","0.39424","5"],
    [10747,"HCEP03730566","2024-01-18 06:15:00","10.8463","3.39586","26.936","3.973","7.53","0.341","6.136","0.01","0.34","30.0872","4.73669","43.46","0","SATNPRO1509","28.346","0.39702","5"],
    [10748,"HCEP03730566","2024-01-18 06:30:00","10.8453","3.3959","27.056","4.005","7.54","0.329","5.706","0.01","0.3","30.0884","4.73689","43.81","0","SATNPRO1509","28.491999999999997","0.3991","5"],
    [10749,"HCEP03730566","2024-01-18 06:45:00","10.8448","3.39597","27.236","4.062","7.54","0.335","5.418","0.01","0.2","30.0895","4.73705","44.43","0","SATNPRO1509","28.682","0.40176","5"],
    [10750,"HCEP03730566","2024-01-18 07:00:00","10.8424","3.39568","27.425","4.098","7.54","0.321","5.469","0.01","0.28","30.0885","4.73696","44.82","0","SATNPRO1509","28.708","0.4021","5"],
    [10751,"HCEP03730566","2024-01-18 07:15:00","10.8373","3.39501","27.572","4.127","7.54","0.337","5.792","0.01","0.28","30.086","4.73669","45.13","0","SATNPRO1509","28.726","0.40236","5"],
    [10752,"HCEP03730566","2024-01-18 07:30:00","10.8315","3.39389","27.757","4.173","7.55","0.344","5.8","0.05","1.09","30.0797","4.7359","45.63","0","SATNPRO1509","28.91","0.40492","5"],
    [10753,"HCEP03730566","2024-01-18 07:45:00","10.832","3.39411","27.828","4.191","7.55","0.351","5.494","0.02","0.36","30.0815","4.73614","45.82","0","SATNPRO1509","28.817999999999998","0.40364","5"],
    [10754,"HCEP03730566","2024-01-18 08:00:00","10.8396","3.39452","27.961","4.098","7.55","0.326","5.277","0.01","0.28","30.0792","4.73572","44.82","0","SATNPRO1509","28.622","0.40088","5"],
    [10755,"HCEP03730566","2024-01-18 08:15:00","10.8389","3.39413","28.085","4.077","7.54","0.358","5.605","0.02","0.45","30.0759","4.73527","44.59","0","SATNPRO1509","28.666","0.40148","5"],
    [10756,"HCEP03730566","2024-01-18 08:30:00","10.8394","3.39386","28.199","4.082","7.54","0.388","7.66","0.07","2.15","30.0728","4.73482","44.64","0","SATNPRO1509","28.64","0.40112","5"],
    [10757,"HCEP03730566","2024-01-18 08:45:00","10.8414","3.39375","28.315","4.084","7.54","0.342","5.338","0.05","1.17","30.07","4.73439","44.66","0","SATNPRO1509","29.214","0.40918","5"],
    [10758,"HCEP03730566","2024-01-18 09:00:00","10.8371","3.39344","28.438","4.131","7.54","0.313","4.922","0.01","1.1","30.0705","4.73454","45.17","0","SATNPRO1509","29.114","0.40776","5"],
    [10759,"HCEP03730566","2024-01-18 09:15:00","10.8306","3.39273","28.51","4.251","7.55","0.336","4.286","0.01","0.32","30.0687","4.7344","46.47","0","SATNPRO1509","29.587999999999997","0.41446","5"],
    [10760,"HCEP03730566","2024-01-18 09:30:00","10.8285","3.39255","28.538","4.336","7.55","0.325","4.358","0.02","0.34","30.0687","4.73444","47.4","0","SATNPRO1509","29.73","0.41644","5"],
    [10761,"HCEP03730566","2024-01-18 09:45:00","10.8265","3.39232","28.511","4.37","7.56","0.336","3.875","0.03","0.25","30.068","4.73437","47.77","0","SATNPRO1509","29.9","0.41878","5"],
    [10762,"HCEP03730566","2024-01-18 10:00:00","10.8266","3.39227","28.473","4.402","7.56","0.326","3.623","0.06","0.65","30.0675","4.73429","48.13","0","SATNPRO1509","30.032","0.42066","5"],
    [10763,"HCEP03730566","2024-01-18 10:15:00","10.8255","3.39224","28.428","4.419","7.56","0.36","5.878","0.09","5.77","30.0681","4.73439","48.31","0","SATNPRO1509","30.082","0.42134","5"],
    [10764,"HCEP03730566","2024-01-18 10:30:00","10.8282","3.39217","28.455","4.357","7.56","0.306","3.675","0.01","0.24","30.0653","4.73394","47.63","0","SATNPRO1509","29.75","0.41668","5"],
    [10765,"HCEP03730566","2024-01-18 10:45:00","10.8277","3.39212","28.325","4.349","7.56","0.311","3.393","0.01","0.35","30.0653","4.73394","47.54","0","SATNPRO1509","29.676000000000002","0.41566","5"],
    [10766,"HCEP03730566","2024-01-18 11:00:00","10.829","3.39222","28.322","4.347","7.56","0.364","3.555","0.03","0.34","30.0651","4.7339","47.52","0","SATNPRO1509","29.52","0.41348","5"],
    [10767,"HCEP03730566","2024-01-18 11:15:00","10.8328","3.39247","28.222","4.291","7.56","0.311","3.092","0.01","0.17","30.0645","4.73375","46.92","0","SATNPRO1509","29.526","0.41358","5"],
    [10768,"HCEP03730566","2024-01-18 11:30:00","10.8338","3.39257","28.163","4.275","7.56","0.365","3.531","0.05","0.18","30.0647","4.73375","46.74","0","SATNPRO1509","29.594","0.41452","5"],
    [10769,"HCEP03730566","2024-01-18 11:45:00","10.8389","3.39299","28.042","4.203","7.56","0.394","4.121","0.04","0.28","30.0648","4.73368","45.95","0","SATNPRO1509","29.438","0.41234","5"],
    [10770,"HCEP03730566","2024-01-18 12:00:00","10.8415","3.39335","27.905","4.137","7.55","0.451","4.81","0.08","0.61","30.0662","4.73384","45.24","0","SATNPRO1509","29.274","0.41004","5"],
    [10771,"HCEP03730566","2024-01-18 12:15:00","10.8374","3.39321","27.802","4.138","7.55","0.423","4.852","0.05","0.28","30.0682","4.73417","45.25","0","SATNPRO1509","29.244","0.40966","5"],
    [10772,"HCEP03730566","2024-01-18 12:30:00","10.8278","3.39278","27.677","4.263","7.55","0.446","4.794","0.08","1.27","30.0718","4.73483","46.6","0","SATNPRO1509","29.634","0.41506","5"],
    [10773,"HCEP03730566","2024-01-18 12:45:00","10.8268","3.39289","27.53","4.331","7.56","0.441","6.09","0.07","3.69","30.0738","4.73513","47.35","0","SATNPRO1509","29.638","0.41512","5"],
    [10774,"HCEP03730566","2024-01-18 13:00:00","10.8322","3.39292","27.331","4.255","7.56","0.457","5.505","0.04","0.84","30.0697","4.73445","46.52","0","SATNPRO1509","29.512","0.41336","5"],
    [10775,"HCEP03730566","2024-01-18 13:15:00","10.8367","3.39319","27.173","4.172","7.55","0.557","7.734","0.73","14.25","30.0689","4.73425","45.62","0","SATNPRO1509","29.398","0.41176","5"],
    [10776,"HCEP03730566","2024-01-18 13:30:00","10.8325","3.39294","27.01","4.201","7.55","0.307","3.237","0.01","0.1","30.0698","4.73444","45.93","0","SATNPRO1509","29.53","0.4136","5"],
    [10777,"HCEP03730566","2024-01-18 13:45:00","10.8443","3.39345","26.828","4.145","7.55","0.323","2.842","0.01","0.09","30.0653","4.7336","45.33","0","SATNPRO1509","29.418","0.41206","5"],
    [10778,"HCEP03730566","2024-01-18 14:00:00","10.8424","3.39319","26.552","4.145","7.55","0.414","3.236","0.02","0.15","30.0644","4.73349","45.32","0","SATNPRO1509","29.444","0.41238","5"],
    [10779,"HCEP03730566","2024-01-18 14:15:00","10.8381","3.39289","26.404","4.16","7.55","0.386","3.774","0.02","0.15","30.065","4.73364","45.48","0","SATNPRO1509","29.464","0.41266","5"],
    [10780,"HCEP03730566","2024-01-18 14:30:00","10.8336","3.39253","26.188","4.212","7.55","0.36","4.064","0.02","0.17","30.0652","4.73371","46.05","0","SATNPRO1509","29.494","0.4131","5"],
    [10781,"HCEP03730566","2024-01-18 14:45:00","10.8329","3.39237","25.941","4.222","7.55","0.379","3.709","0.01","0.46","30.0644","4.7336","46.16","0","SATNPRO1509","29.704","0.41602","5"],
    [10782,"HCEP03730566","2024-01-18 15:00:00","10.8324","3.3922","25.781","4.274","7.55","0.31","3.3","0.01","0.15","30.0631","4.73342","46.72","0","SATNPRO1509","29.76","0.41682","5"],
    [10783,"HCEP03730566","2024-01-18 15:15:00","10.8312","3.39205","25.572","4.277","7.55","0.327","3.371","0.01","0.12","30.0628","4.73337","46.76","0","SATNPRO1509","29.91","0.41892","5"],
    [10784,"HCEP03730566","2024-01-18 15:30:00","10.8219","3.3911","25.433","4.45","7.56","0.309","2.567","0.01","0.18","30.0611","4.73328","48.64","0","SATNPRO1509","30.548","0.4279","5"],
    [10785,"HCEP03730566","2024-01-18 15:45:00","10.8222","3.39099","25.293","4.461","7.57","0.306","2.54","0.01","0.17","30.0598","4.73309","48.76","0","SATNPRO1509","30.19","0.42286","5"],
    [10786,"HCEP03730566","2024-01-18 16:00:00","10.828","3.39179","25.158","4.364","7.57","0.297","2.763","0.01","0.1","30.063","4.73344","47.7","0","SATNPRO1509","29.9","0.41882","5"],
    [10787,"HCEP03730566","2024-01-18 16:15:00","10.829","3.39228","25.114","4.28","7.56","0.322","3.905","0.01","0.12","30.067","4.73399","46.79","0","SATNPRO1509","29.434","0.41226","5"],
    [10788,"HCEP03730566","2024-01-18 16:30:00","10.8287","3.39256","25.083","4.292","7.56","0.316","3.914","0.01","0.13","30.0699","4.73441","46.92","0","SATNPRO1509","29.658","0.41538","5"],
    [10789,"HCEP03730566","2024-01-18 16:45:00","10.8282","3.39336","25.027","4.3","7.56","0.318","3.617","0.01","0.13","30.0783","4.7356","47.02","0","SATNPRO1509","29.698","0.41598","5"],
    [10790,"HCEP03730566","2024-01-18 17:00:00","10.8297","3.39391","25.043","4.311","7.56","0.315","4.247","0.01","0.19","30.0825","4.73617","47.13","0","SATNPRO1509","29.82","0.4177","5"],
    [10791,"HCEP03730566","2024-01-18 17:15:00","10.8321","3.39439","24.962","4.273","7.56","0.343","4.909","0.02","0.42","30.0852","4.73652","46.72","0","SATNPRO1509","29.46","0.41264","5"],
    [10792,"HCEP03730566","2024-01-18 17:30:00","10.8336","3.39452","25.006","4.217","7.56","0.433","6.392","0.09","0.98","30.0853","4.73651","46.11","0","SATNPRO1509","29.376","0.4114","5"],
    [10793,"HCEP03730566","2024-01-18 17:45:00","10.8328","3.39468","25.019","4.204","7.55","0.377","5.229","0.06","0.63","30.0875","4.73684","45.97","0","SATNPRO1509","29.518","0.41348","5"],
    [10794,"HCEP03730566","2024-01-18 18:00:00","10.8336","3.39483","25.051","4.214","7.55","0.355","5.806","0.04","5.25","30.0883","4.73693","46.08","0","SATNPRO1509","29.342","0.411","5"],
    [10795,"HCEP03730566","2024-01-18 18:15:00","10.8329","3.39496","25.103","4.168","7.55","0.391","9.603","0.21","10.97","30.0901","4.7372","45.58","0","SATNPRO1509","29.242","0.40956","5"],
    [10796,"HCEP03730566","2024-01-18 18:30:00","10.8198","3.39371","25.175","4.3","7.55","0.351","4.25","0.03","0.4","30.0886","4.73719","47","0","SATNPRO1509","29.878","0.41848","5"],
    [10797,"HCEP03730566","2024-01-18 18:45:00","10.8302","3.39456","25.244","4.29","7.56","0.442","6.898","0.06","0.91","30.0883","4.73701","46.9","0","SATNPRO1509","29.535999999999998","0.41372","5"],
    [10798,"HCEP03730566","2024-01-18 19:00:00","10.8238","3.39404","25.353","4.272","7.56","1.414","62.559","1.03","44.59","30.0885","4.73713","46.7","0","SATNPRO1509","29.648","0.41526","5"],
    [10799,"HCEP03730566","2024-01-18 19:15:00","10.8152","3.39315","25.427","4.334","7.56","0.328","4.034","0.02","0.29","30.0867","4.73702","47.37","0","SATNPRO1509","29.51","0.41336","5"],
    [10800,"HCEP03730566","2024-01-18 19:30:00","10.8214","3.39383","25.533","4.376","7.56","0.318","4.095","0.01","0.65","30.0883","4.73715","47.84","0","SATNPRO1509","29.882","0.41856","5"],
    [10801,"HCEP03730566","2024-01-18 19:45:00","10.8232","3.39412","25.645","4.296","7.56","0.429","5.446","0.13","2.33","30.0897","4.73733","46.97","0","SATNPRO1509","29.578","0.4143","5"],
    [10802,"HCEP03730566","2024-01-18 20:00:00","10.8228","3.39422","25.77","4.294","7.56","0.313","3.301","0.02","0.16","30.0909","4.73752","46.95","0","SATNPRO1509","29.856","0.41816","5"],
    [10803,"HCEP03730566","2024-01-18 20:15:00","10.8216","3.39422","25.872","4.305","7.56","5.125","78.827","4.16","28.5","30.0918","4.73767","47.07","0","SATNPRO1509","29.764","0.41692","5"],
    [10804,"HCEP03730566","2024-01-18 20:30:00","10.8156","3.39358","26.002","4.355","7.56","4.979","450.011","3.6","223.31","30.0905","4.73758","47.6","0","SATNPRO1509","29.942","0.4194","5"],
    [10805,"HCEP03730566","2024-01-18 20:45:00","10.8083","3.39305","26.168","4.497","7.57","0.619","23.924","0.33","21.22","30.0912","4.73781","49.15","0","SATNPRO1509","29.996","0.42012","5"],
    [10806,"HCEP03730566","2024-01-18 21:00:00","10.8207","3.39441","26.277","4.383","7.57","1.298","29.526","2.02","32.05","30.0943","4.73806","47.91","0","SATNPRO1509","29.814","0.4176","5"],
    [10807,"HCEP03730566","2024-01-18 21:15:00","10.8246","3.39483","26.37","4.294","7.56","0.383","27.506","0.25","22.17","30.0952","4.73813","46.95","0","SATNPRO1509","29.798000000000002","0.41736","5"],
    [10808,"HCEP03730566","2024-01-18 21:30:00","10.8246","3.3948","26.55","4.262","7.56","0.281","8.867","0.05","7.01","30.0948","4.73809","46.6","0","SATNPRO1509","29.822","0.41772","5"],
    [10809,"HCEP03730566","2024-01-18 21:45:00","10.8264","3.39485","26.682","4.234","7.56","0.338","4.922","0.06","2.56","30.0938","4.73792","46.3","0","SATNPRO1509","29.572","0.41418","5"],
    [10810,"HCEP03730566","2024-01-18 22:00:00","10.8226","3.39439","26.813","4.278","7.56","0.333","4.142","0.02","0.21","30.0923","4.73778","46.77","0","SATNPRO1509","29.734","0.41648","5"],
    [10811,"HCEP03730566","2024-01-18 22:15:00","10.8219","3.39419","26.846","4.289","7.56","0.319","3.907","0.02","0.17","30.0909","4.73758","46.89","0","SATNPRO1509","29.61","0.41468","5"],
    [10812,"HCEP03730566","2024-01-18 22:30:00","10.8254","3.39426","26.914","4.278","7.56","0.309","4.008","0.01","0.13","30.0886","4.73722","46.78","0","SATNPRO1509","29.637999999999998","0.41516","5"],
    [10813,"HCEP03730566","2024-01-18 22:45:00","10.8248","3.39396","27.016","4.27","7.56","0.322","3.853","0.01","0.23","30.0862","4.73688","46.68","0","SATNPRO1509","29.748","0.41668","5"],
    [10814,"HCEP03730566","2024-01-18 23:00:00","10.8255","3.39388","27.124","4.267","7.56","0.304","3.869","0.01","0.17","30.0848","4.73669","46.66","0","SATNPRO1509","29.592","0.41452","5"],
    [10815,"HCEP03730566","2024-01-18 23:15:00","10.8246","3.39355","27.148","4.292","7.56","0.333","4.352","0.03","0.54","30.0823","4.73634","46.92","0","SATNPRO1509","29.774","0.41702","5"],
    [10816,"HCEP03730566","2024-01-18 23:30:00","10.8255","3.39337","27.204","4.307","7.56","0.351","4.399","0.05","0.78","30.0797","4.73597","47.09","0","SATNPRO1509","29.862000000000002","0.4183","5"],
    [10817,"HCEP03730566","2024-01-18 23:45:00","10.8262","3.3929","27.248","4.324","7.56","0.325","3.173","0.02","0.14","30.0745","4.73522","47.27","0","SATNPRO1509","29.996","0.42016","5"],
    [10818,"HCEP03730566","2024-01-19 00:00:00","10.8268","3.39321","27.182","4.313","7.56","0.302","3.387","0.01","0.1","30.0771","4.73557","47.15","0","SATNPRO1509","29.862000000000002","0.41826","5"],
    [10819,"HCEP03730566","2024-01-19 00:15:00","10.8267","3.39347","27.227","4.286","7.56","0.367","4.43","0.02","0.22","30.0797","4.73594","46.86","0","SATNPRO1509","29.634","0.41508","5"],
    [10820,"HCEP03730566","2024-01-19 00:30:00","10.8257","3.39386","27.21","4.254","7.56","0.306","4.038","0.01","0.17","30.0845","4.73664","46.51","0","SATNPRO1509","29.612000000000002","0.41482","5"],
    [10821,"HCEP03730566","2024-01-19 00:45:00","10.8222","3.39378","27.194","4.28","7.56","0.367","4.241","0.03","0.2","30.0864","4.73697","46.79","0","SATNPRO1509","29.753999999999998","0.41674","5"],
    [10822,"HCEP03730566","2024-01-19 01:00:00","10.8195","3.39373","27.233","4.3","7.56","0.335","4.176","0.04","0.34","30.0882","4.73727","47","0","SATNPRO1509","29.774","0.417","5"],
    [10823,"HCEP03730566","2024-01-19 01:15:00","10.8187","3.39373","27.134","4.312","7.56","0.368","4.474","0.04","0.27","30.0889","4.73737","47.13","0","SATNPRO1509","29.854","0.41808","5"],
    [10824,"HCEP03730566","2024-01-19 01:30:00","10.821","3.39386","27.101","4.291","7.56","0.323","4.255","0.02","0.19","30.0883","4.73726","46.91","0","SATNPRO1509","29.782","0.41712","5"],
    [10825,"HCEP03730566","2024-01-19 01:45:00","10.8241","3.3939","27.075","4.283","7.56","0.316","3.627","0.02","0.15","30.0862","4.7369","46.82","0","SATNPRO1509","29.828","0.41776","5"],
    [10826,"HCEP03730566","2024-01-19 02:00:00","10.8257","3.39388","27.041","4.286","7.56","0.308","4.007","0.02","0.44","30.0847","4.73667","46.86","0","SATNPRO1509","29.786","0.4172","5"],
    [10827,"HCEP03730566","2024-01-19 02:15:00","10.8255","3.39406","26.996","4.243","7.56","1.657","45.413","0.34","18.44","30.0866","4.73693","46.39","0","SATNPRO1509","29.56","0.41404","5"],
    [10828,"HCEP03730566","2024-01-19 02:30:00","10.8252","3.39406","26.975","4.23","7.55","0.624","25.945","0.24","14.02","30.0869","4.73697","46.25","0","SATNPRO1509","29.541999999999998","0.41378","5"],
    [10829,"HCEP03730566","2024-01-19 02:45:00","10.8255","3.39409","26.976","4.22","7.55","0.317","3.991","0.01","0.15","30.087","4.73698","46.14","0","SATNPRO1509","29.496","0.41312","5"],
    [10830,"HCEP03730566","2024-01-19 03:00:00","10.826","3.39399","26.928","4.26","7.55","0.315","4.268","0.01","1.67","30.0856","4.73677","46.58","0","SATNPRO1509","29.69","0.41584","5"],
    [10831,"HCEP03730566","2024-01-19 03:15:00","10.8263","3.39395","26.931","4.268","7.56","0.329","3.583","0.02","0.25","30.0849","4.73667","46.66","0","SATNPRO1509","29.798","0.41738","5"],
    [10832,"HCEP03730566","2024-01-19 03:30:00","10.826","3.39414","26.904","4.219","7.55","0.35","5.176","0.02","2.3","30.087","4.73697","46.13","0","SATNPRO1509","29.536","0.41368","5"],
    [10833,"HCEP03730566","2024-01-19 03:45:00","10.826","3.39398","26.899","4.242","7.55","0.331","3.926","0.02","0.48","30.0855","4.73676","46.37","0","SATNPRO1509","29.66","0.41544","5"],
    [10834,"HCEP03730566","2024-01-19 04:00:00","10.8252","3.39411","26.844","4.231","7.55","0.351","6.36","0.03","2.72","30.0874","4.73704","46.25","0","SATNPRO1509","29.62","0.41486","5"],
    [10835,"HCEP03730566","2024-01-19 04:15:00","10.8232","3.3942","26.778","4.195","7.55","0.416","5.97","0.04","0.73","30.09","4.73744","45.86","0","SATNPRO1509","29.45","0.4125","5"],
    [10836,"HCEP03730566","2024-01-19 04:30:00","10.8223","3.39427","26.79","4.213","7.55","1.699","40.928","1.55","28.3","30.0914","4.73765","46.05","0","SATNPRO1509","29.580000000000002","0.41432","5"],
    [10837,"HCEP03730566","2024-01-19 04:45:00","10.8228","3.39486","26.775","4.212","7.55","0.336","4.804","0.01","0.23","30.096800000000002","4.73841","46.05","0","SATNPRO1509","29.274","0.41004","5"],
    [10838,"HCEP03730566","2024-01-19 05:00:00","10.8212","3.39435","26.787","4.248","7.55","0.303","3.922","0.01","1.7","30.093","4.7379","46.44","0","SATNPRO1509","29.764","0.41688","5"],
    [10839,"HCEP03730566","2024-01-19 05:15:00","10.8209","3.39411","26.797","4.298","7.56","0.314","3.729","0.01","0.16","30.0909","4.7376","46.99","0","SATNPRO1509","29.992","0.42008","5"],
    [10840,"HCEP03730566","2024-01-19 05:30:00","10.824","3.39532","26.841","4.215","7.56","0.316","4.898","0.01","0.24","30.1003","4.73889","46.09","0","SATNPRO1509","29.294","0.41026","5"],
    [10841,"HCEP03730566","2024-01-19 05:45:00","10.8249","3.39538","26.903","4.162","7.55","0.328","5.31","0.01","0.53","30.1002","4.73886","45.51","0","SATNPRO1509","29.092","0.40748","5"],
    [10842,"HCEP03730566","2024-01-19 06:00:00","10.8245","3.39538","26.934","4.16","7.55","0.32","4.915","0.01","0.18","30.1005","4.73891","45.48","0","SATNPRO1509","29.228","0.4094","5"],
    [10843,"HCEP03730566","2024-01-19 06:15:00","10.8226","3.39489","26.963","4.204","7.55","0.326","5.008","0.01","0.45","30.0972","4.73848","45.96","0","SATNPRO1509","29.646","0.41528","5"],
    [10844,"HCEP03730566","2024-01-19 06:30:00","10.8231","3.39521","27.056","4.211","7.55","0.322","5.306","0.01","0.65","30.0999","4.73886","46.04","0","SATNPRO1509","29.418","0.41208","5"],
    [10845,"HCEP03730566","2024-01-19 06:45:00","10.8243","3.39531","27.116","4.172","7.55","0.733","21.619","0.43","17.44","30.0999","4.73884","45.61","0","SATNPRO1509","29.222","0.4093","5"],
    [10846,"HCEP03730566","2024-01-19 07:00:00","10.8255","3.39546","27.201","4.154","7.55","0.342","5.399","0.03","0.39","30.1003","4.73888","45.42","0","SATNPRO1509","29.262","0.40984","5"],
    [10847,"HCEP03730566","2024-01-19 07:15:00","10.8257","3.39544","27.284","4.15","7.55","0.347","5.264","0.01","0.3","30.1","4.73884","45.38","0","SATNPRO1509","29.406","0.41186","5"],
    [10848,"HCEP03730566","2024-01-19 07:30:00","10.828","3.39587","27.358","4.131","7.55","0.333","5.183","0.02","0.26","30.1022","4.73913","45.17","0","SATNPRO1509","29.278","0.41008","5"],
    [10849,"HCEP03730566","2024-01-19 07:45:00","10.8301","3.39618","27.45","4.101","7.55","0.34","4.95","0.01","0.28","30.1035","4.73928","44.85","0","SATNPRO1509","29.096","0.40756","5"],
    [10850,"HCEP03730566","2024-01-19 08:00:00","10.8315","3.39635","27.547","4.091","7.54","0.422","6.632","0.07","0.7","30.104","4.73934","44.74","0","SATNPRO1509","29.074","0.40722","5"],
    [10851,"HCEP03730566","2024-01-19 08:15:00","10.832","3.3963","27.658","4.078","7.54","0.344","5.201","0.02","0.43","30.103","4.73919","44.59","0","SATNPRO1509","29.126","0.40796","5"],
    [10852,"HCEP03730566","2024-01-19 08:30:00","10.8317","3.39603","27.734","4.075","7.54","0.311","5.148","0.01","0.29","30.1006","4.73886","44.56","0","SATNPRO1509","29.038","0.40674","5"],
    [10853,"HCEP03730566","2024-01-19 08:45:00","10.8293","3.39515","27.816","4.103","7.54","0.312","4.389","0.01","0.18","30.0939","4.73795","44.87","0","SATNPRO1509","29.418","0.41206","5"],
    [10854,"HCEP03730566","2024-01-19 09:00:00","10.8291","3.3946","27.879","4.161","7.54","0.368","4.784","0.04","0.38","30.0886","4.73721","45.49","0","SATNPRO1509","29.482","0.41296","5"],
    [10855,"HCEP03730566","2024-01-19 09:15:00","10.8299","3.39438","27.953","4.121","7.54","0.321","4.134","0.01","0.34","30.0857","4.73679","45.06","0","SATNPRO1509","29.362000000000002","0.41126","5"],
    [10856,"HCEP03730566","2024-01-19 09:30:00","10.8295","3.394","27.962","4.123","7.54","0.312","4.336","0.01","0.2","30.0823","4.73632","45.08","0","SATNPRO1509","29.402","0.41184","5"],
    [10857,"HCEP03730566","2024-01-19 09:45:00","10.8311","3.39394","28.06","4.115","7.54","0.328","4.652","0.01","0.42","30.0804","4.73602","44.99","0","SATNPRO1509","29.396","0.41172","5"],
    [10858,"HCEP03730566","2024-01-19 10:00:00","10.8315","3.39392","28.162","4.104","7.54","0.312","4.505","0.01","0.26","30.0799","4.73595","44.87","0","SATNPRO1509","29.384","0.41156","5"],
    [10859,"HCEP03730566","2024-01-19 10:15:00","10.8311","3.39354","28.222","4.128","7.54","0.312","3.855","0.01","0.2","30.0764","4.73547","45.13","0","SATNPRO1509","29.492","0.41304","5"],
    [10860,"HCEP03730566","2024-01-19 10:30:00","10.8284","3.39311","28.25","4.166","7.55","0.3","3.879","0.01","0.2","30.0744","4.73522","45.55","0","SATNPRO1509","29.594","0.4145","5"],
    [10861,"HCEP03730566","2024-01-19 10:45:00","10.8276","3.39274","28.263","4.183","7.55","0.319","4","0.01","0.2","30.0714","4.73481","45.73","0","SATNPRO1509","29.508","0.41332","5"],
    [10862,"HCEP03730566","2024-01-19 11:00:00","10.8278","3.3924","28.167","4.199","7.55","0.31","3.855","0.02","0.17","30.0679","4.7343","45.91","0","SATNPRO1509","29.506","0.41324","5"],
    [10863,"HCEP03730566","2024-01-19 11:15:00","10.8302","3.39228","28.222","4.205","7.55","0.318","3.933","0.01","0.24","30.0648","4.73384","45.97","0","SATNPRO1509","29.678","0.4157","5"],
    [10864,"HCEP03730566","2024-01-19 11:30:00","10.8306","3.39212","28.174","4.19","7.55","0.294","3.01","0.01","0.12","30.0629","4.73355","45.8","0","SATNPRO1509","29.632","0.41504","5"],
    [10865,"HCEP03730566","2024-01-19 11:45:00","10.8371","3.39277","28.161","4.153","7.55","0.304","2.647","0.01","0.14","30.064","4.7336","45.41","0","SATNPRO1509","29.766000000000002","0.4169","5"],
    [10866,"HCEP03730566","2024-01-19 12:00:00","10.8346","3.39238","28.099","4.164","7.55","0.297","3.115","0.01","0.16","30.0622","4.73339","45.53","0","SATNPRO1509","29.816","0.41764","5"],
    [10867,"HCEP03730566","2024-01-19 12:15:00","10.836","3.39256","28.006","4.149","7.55","0.313","3.126","0.01","0.12","30.0628","4.73345","45.36","0","SATNPRO1509","29.656","0.4154","5"],
    [10868,"HCEP03730566","2024-01-19 12:30:00","10.8364","3.39257","27.949","4.122","7.55","0.297","3.445","0.01","0.18","30.0627","4.73341","45.07","0","SATNPRO1509","29.696","0.41594","5"],
    [10869,"HCEP03730566","2024-01-19 12:45:00","10.8362","3.39254","27.861","4.122","7.54","0.31","3.152","0.01","0.15","30.0625","4.73339","45.07","0","SATNPRO1509","29.766","0.41692","5"],
    [10870,"HCEP03730566","2024-01-19 13:00:00","10.8364","3.39279","27.754","4.115","7.54","0.293","2.82","0.01","0.11","30.0649","4.73373","44.99","0","SATNPRO1509","29.726","0.41636","5"],
    [10871,"HCEP03730566","2024-01-19 13:15:00","10.829","3.39221","27.599","4.15","7.54","0.306","2.835","0.01","0.15","30.0653","4.73388","45.37","0","SATNPRO1509","29.748","0.41666","5"],
    [10872,"HCEP03730566","2024-01-19 13:30:00","10.8251","3.39207","27.467","4.175","7.55","0.294","3.395","0.01","0.14","30.0672","4.73421","45.64","0","SATNPRO1509","29.664","0.41552","5"],
    [10873,"HCEP03730566","2024-01-19 13:45:00","10.8262","3.39213","27.293","4.176","7.55","0.309","3.542","0.01","0.21","30.067","4.73416","45.65","0","SATNPRO1509","29.65","0.41528","5"],
    [10874,"HCEP03730566","2024-01-19 14:00:00","10.8329","3.39264","27.105","4.136","7.55","0.308","3.98","0.01","0.29","30.0665","4.73396","45.23","0","SATNPRO1509","29.498","0.41314","5"],
    [10875,"HCEP03730566","2024-01-19 14:15:00","10.8313","3.39247","26.866","4.124","7.54","0.319","3.965","0.02","0.19","30.0663","4.73395","45.09","0","SATNPRO1509","29.622","0.4149","5"],
    [10876,"HCEP03730566","2024-01-19 14:30:00","10.8266","3.3921","26.641","4.162","7.54","0.305","3.791","0.01","0.16","30.0665","4.73404","45.49","0","SATNPRO1509","29.662","0.41546","5"],
    [10877,"HCEP03730566","2024-01-19 14:45:00","10.8232","3.39187","26.396","4.191","7.55","0.345","3.683","0.09","0.21","30.0672","4.73417","45.81","0","SATNPRO1509","29.668","0.41556","5"],
    [10878,"HCEP03730566","2024-01-19 15:00:00","10.8301","3.39249","26.187","4.15","7.55","0.309","4.058","0.01","0.15","30.0678","4.73414","45.37","0","SATNPRO1509","29.694","0.41594","5"],
    [10879,"HCEP03730566","2024-01-19 15:15:00","10.8298","3.39251","25.995","4.119","7.54","0.326","4.496","0.01","0.28","30.0682","4.73419","45.04","0","SATNPRO1509","29.625999999999998","0.41496","5"],
    [10880,"HCEP03730566","2024-01-19 15:30:00","10.821","3.39174","25.794","4.179","7.55","0.312","4.383","0.01","0.3","30.068","4.73429","45.68","0","SATNPRO1509","29.59","0.41448","5"],
    [10881,"HCEP03730566","2024-01-19 15:45:00","10.8134","3.39109","25.592","4.25","7.55","0.34","4.177","0.04","0.3","30.0679","4.73438","46.44","0","SATNPRO1509","29.686","0.4158","5"],
    [10882,"HCEP03730566","2024-01-19 16:00:00","10.8109","3.39101","25.412","4.283","7.55","0.316","4.428","0.02","0.22","30.0693","4.73461","46.81","0","SATNPRO1509","29.74","0.41654","5"],
    [10883,"HCEP03730566","2024-01-19 16:15:00","10.8086","3.39098","25.25","4.297","7.55","0.329","4.433","0.01","0.42","30.0709","4.73487","46.96","0","SATNPRO1509","29.58","0.4143","5"],
    [10884,"HCEP03730566","2024-01-19 16:30:00","10.8093","3.39133","25.121","4.304","7.56","0.309","4.07","0.01","0.25","30.0738","4.73526","47.03","0","SATNPRO1509","29.55","0.4139","5"],
    [10885,"HCEP03730566","2024-01-19 16:45:00","10.8097","3.39169","25.01","4.304","7.56","0.329","4.136","0.02","0.44","30.077","4.73571","47.04","0","SATNPRO1509","29.636","0.41508","5"],
    [10886,"HCEP03730566","2024-01-19 17:00:00","10.8096","3.39198","24.926","4.306","7.56","0.417","11.04","0.3","18.52","30.0801","4.73614","47.06","0","SATNPRO1509","29.774","0.41704","5"],
    [10887,"HCEP03730566","2024-01-19 17:15:00","10.811","3.39246","24.831","4.302","7.56","0.328","4.336","0.01","0.33","30.0837","4.73662","47.02","0","SATNPRO1509","29.68","0.4157","5"],
    [10888,"HCEP03730566","2024-01-19 17:30:00","10.8126","3.39279","24.793","4.296","7.56","0.592","6.52","0.47","4.35","30.0857","4.73688","46.95","0","SATNPRO1509","29.614","0.4148","5"],
    [10889,"HCEP03730566","2024-01-19 17:45:00","10.8136","3.39306","24.774","4.293","7.56","0.554","9.855","0.19","9.26","30.0874","4.73711","46.92","0","SATNPRO1509","29.68","0.41572","5"],
    [10890,"HCEP03730566","2024-01-19 18:00:00","10.8152","3.39338","24.741","4.284","7.56","0.383","6.78","0.11","5.36","30.0893","4.73734","46.83","0","SATNPRO1509","29.7","0.41604","5"],
    [10891,"HCEP03730566","2024-01-19 18:15:00","10.8167","3.39369","24.766","4.267","7.56","0.322","4.075","0.01","0.42","30.0911","4.73759","46.65","0","SATNPRO1509","29.626","0.41498","5"],
    [10892,"HCEP03730566","2024-01-19 18:30:00","10.8182","3.39393","24.776","4.251","7.56","0.324","3.918","0.04","0.48","30.0922","4.73771","46.47","0","SATNPRO1509","29.704","0.41604","5"],
    [10893,"HCEP03730566","2024-01-19 18:45:00","10.8186","3.39407","24.797","4.256","7.56","2.615","47.751","3.33","23.51","30.0933","4.73787","46.52","0","SATNPRO1509","29.674","0.4156","5"],
    [10894,"HCEP03730566","2024-01-19 19:00:00","10.8188","3.39412","24.826","4.259","7.56","0.418","3.951","0.27","1.26","30.0936","4.7379","46.56","0","SATNPRO1509","29.776","0.41708","5"],
    [10895,"HCEP03730566","2024-01-19 19:15:00","10.8184","3.39409","24.895","4.27","7.56","0.379","10.856","0.08","17.17","30.0935","4.73791","46.67","0","SATNPRO1509","29.91","0.41892","5"],
    [10896,"HCEP03730566","2024-01-19 19:30:00","10.8174","3.39393","24.97","4.272","7.56","0.328","5.797","0.08","8.06","30.0927","4.73781","46.7","0","SATNPRO1509","29.798","0.41732","5"],
    [10897,"HCEP03730566","2024-01-19 19:45:00","10.8176","3.39392","25.049","4.271","7.56","0.331","3.467","0.02","0.19","30.0925","4.73778","46.69","0","SATNPRO1509","29.826","0.41778","5"],
    [10898,"HCEP03730566","2024-01-19 20:00:00","10.8185","3.3941","25.152","4.263","7.56","0.311","3.452","0.01","0.15","30.0935","4.73791","46.6","0","SATNPRO1509","29.808","0.41752","5"],
    [10899,"HCEP03730566","2024-01-19 20:15:00","10.8203","3.39424","25.251","4.23","7.56","1.078","31.917","0.53","8.89","30.0933","4.73787","46.25","0","SATNPRO1509","29.728","0.41638","5"],
    [10900,"HCEP03730566","2024-01-19 20:30:00","10.8203","3.39409","25.382","4.209","7.55","2.564","74.096","1.52","42.66","30.0918","4.73765","46.02","0","SATNPRO1509","29.596","0.41454","5"],
    [10901,"HCEP03730566","2024-01-19 20:45:00","10.8214","3.39383","25.458","4.178","7.55","0.349","6.049","0.06","3.17","30.0883","4.73715","45.67","0","SATNPRO1509","29.694","0.41592","5"],
    [10902,"HCEP03730566","2024-01-19 21:00:00","10.8262","3.39366","25.61","4.15","7.55","0.395","5.47","0.3","4.71","30.0827","4.73629","45.37","0","SATNPRO1509","29.51","0.41334","5"],
    [10903,"HCEP03730566","2024-01-19 21:15:00","10.837","3.3948","25.775","4.015","7.54","0.32","4.597","0.01","0.14","30.085","4.73645","43.9","0","SATNPRO1509","29.26","0.40984","5"],
    [10904,"HCEP03730566","2024-01-19 21:30:00","10.8396","3.39431","25.914","3.974","7.54","0.307","4.718","0.01","0.2","30.078","4.73542","43.46","0","SATNPRO1509","29.352","0.41112","5"],
    [10905,"HCEP03730566","2024-01-19 21:45:00","10.8438","3.39377","26.052","3.944","7.54","2.421","107.448","1.08","26.34","30.0691","4.73411","43.13","0","SATNPRO1509","29.374","0.41142","5"],
    [10906,"HCEP03730566","2024-01-19 22:00:00","10.8456","3.3935","26.194","3.91","7.53","9.212","199.275","1.6","97.02","30.065","4.7335","42.76","0","SATNPRO1509","29.39","0.41166","5"],
    [10907,"HCEP03730566","2024-01-19 22:15:00","10.8467","3.39336","26.372","3.903","7.53","3.564","173.674","0.77","72.66","30.0627","4.73317","42.68","0","SATNPRO1509","29.378","0.41148","5"],
    [10908,"HCEP03730566","2024-01-19 22:30:00","10.8487","3.3934","26.504","3.889","7.53","0.306","4.256","0.01","0.19","30.0613","4.73295","42.54","0","SATNPRO1509","29.364","0.4113","5"],
    [10909,"HCEP03730566","2024-01-19 22:45:00","10.8513","3.39353","26.644","3.861","7.53","0.318","4.25","0.01","0.15","30.0603","4.73278","42.23","0","SATNPRO1509","29.292","0.41032","5"],
    [10910,"HCEP03730566","2024-01-19 23:00:00","10.8536","3.39362","26.781","3.825","7.52","0.315","4.838","0.01","0.17","30.0593","4.73261","41.84","0","SATNPRO1509","29.364","0.41128","5"],
    [10911,"HCEP03730566","2024-01-19 23:15:00","10.856","3.39369","26.931","3.803","7.52","0.319","4.549","0.01","0.16","30.058","4.73239","41.6","0","SATNPRO1509","29.304","0.4105","5"],
    [10912,"HCEP03730566","2024-01-19 23:30:00","10.8576","3.39373","27.018","3.786","7.52","0.316","4.91","0.01","0.14","30.0571","4.73223","41.41","0","SATNPRO1509","29.316","0.41064","5"],
    [10913,"HCEP03730566","2024-01-19 23:45:00","10.8599","3.39388","27.11","3.773","7.52","0.358","5.648","0.15","4.15","30.0566","4.73215","41.27","0","SATNPRO1509","29.438","0.41234","5"],
    [10914,"HCEP03730566","2024-01-20 00:00:00","10.8625","3.39402","27.244","3.749","7.52","1.149","22.401","0.36","8.39","30.0557","4.73198","41.01","0","SATNPRO1509","29.336","0.41088","5"],
    [10915,"HCEP03730566","2024-01-20 00:15:00","10.8645","3.39411","27.336","3.73","7.52","1.714","18.078","0.55","4.05","30.0549","4.73184","40.8","0","SATNPRO1509","29.356","0.41118","5"],
    [10916,"HCEP03730566","2024-01-20 00:30:00","10.8662","3.39416","27.412","3.707","7.51","0.385","4.883","0.03","0.34","30.054","4.73169","40.55","0","SATNPRO1509","29.37","0.41136","5"],
    [10917,"HCEP03730566","2024-01-20 00:45:00","10.869","3.3942","27.455","3.685","7.51","0.335","4.579","0.01","0.37","30.0521","4.73138","40.32","0","SATNPRO1509","29.246","0.40962","5"],
    [10918,"HCEP03730566","2024-01-20 01:00:00","10.8721","3.3943","27.467","3.661","7.51","0.354","4.435","0.02","0.28","30.0506","4.73111","40.05","0","SATNPRO1509","29.262","0.40986","5"],
    [10919,"HCEP03730566","2024-01-20 01:15:00","10.8726","3.3943","27.499","3.653","7.51","0.529","7.589","0.46","5.67","30.0501","4.73104","39.97","0","SATNPRO1509","29.298","0.41038","5"],
    [10920,"HCEP03730566","2024-01-20 01:30:00","10.8737","3.39431","27.517","3.644","7.51","0.337","4.19","0.03","0.23","30.0494","4.73092","39.88","0","SATNPRO1509","29.536","0.41374","5"],
    [10921,"HCEP03730566","2024-01-20 01:45:00","10.8735","3.39434","27.525","3.646","7.51","0.465","4.377","0.13","0.6","30.0498","4.73098","39.9","0","SATNPRO1509","29.468","0.41278","5"],
    [10922,"HCEP03730566","2024-01-20 02:00:00","10.8702","3.39409","27.515","3.663","7.51","0.467","5.094","0.11","0.53","30.0501","4.73108","40.07","0","SATNPRO1509","29.52","0.41346","5"],
    [10923,"HCEP03730566","2024-01-20 02:15:00","10.8677","3.39398","27.508","3.688","7.51","0.321","4.082","0.01","0.26","30.051","4.73125","40.35","0","SATNPRO1509","29.62","0.41488","5"],
    [10924,"HCEP03730566","2024-01-20 02:30:00","10.8649","3.39379","27.513","3.715","7.51","0.349","4.401","0.07","0.23","30.0515","4.73136","40.64","0","SATNPRO1509","29.576","0.41424","5"],
    [10925,"HCEP03730566","2024-01-20 02:45:00","10.8646","3.39375","27.502","3.725","7.51","0.358","4.234","0.03","0.39","30.0513","4.73133","40.75","0","SATNPRO1509","29.605999999999998","0.41468","5"],
    [10926,"HCEP03730566","2024-01-20 03:00:00","10.8638","3.39359","27.472","3.712","7.51","0.387","5.492","0.09","1.88","30.0504","4.73121","40.61","0","SATNPRO1509","29.384","0.41158","5"],
    [10927,"HCEP03730566","2024-01-20 03:15:00","10.8591","3.39343","27.412","3.726","7.51","0.347","5.529","0.02","0.35","30.0527","4.73162","40.76","0","SATNPRO1509","29.286","0.41014","5"],
    [10928,"HCEP03730566","2024-01-20 03:30:00","10.8587","3.39336","27.335","3.747","7.51","0.319","4.778","0.02","0.26","30.0523","4.73157","40.98","0","SATNPRO1509","29.45","0.41246","5"],
    [10929,"HCEP03730566","2024-01-20 03:45:00","10.8602","3.39335","27.35","3.758","7.51","0.334","4.309","0.05","0.18","30.051","4.73135","41.1","0","SATNPRO1509","29.634","0.41508","5"],
    [10930,"HCEP03730566","2024-01-20 04:00:00","10.8561","3.39345","27.319","3.757","7.51","0.311","4.577","0.01","0.33","30.0554","4.73204","41.1","0","SATNPRO1509","29.266","0.40994","5"],
    [10931,"HCEP03730566","2024-01-20 04:15:00","10.8563","3.39351","27.281","3.759","7.51","0.328","4.578","0.02","0.2","30.0558","4.7321","41.12","0","SATNPRO1509","29.286","0.41018","5"],
    [10932,"HCEP03730566","2024-01-20 04:30:00","10.8553","3.39363","27.253","3.756","7.51","0.452","7.245","0.1","1.86","30.0578","4.73239","41.08","0","SATNPRO1509","29.348","0.41106","5"],
    [10933,"HCEP03730566","2024-01-20 04:45:00","10.8564","3.39369","27.203","3.755","7.51","0.461","5.988","0.26","3.78","30.0576","4.73234","41.07","0","SATNPRO1509","29.368000000000002","0.41134","5"],
    [10934,"HCEP03730566","2024-01-20 05:00:00","10.8551","3.39378","27.149","3.76","7.51","0.31","4.376","0.01","0.17","30.0595","4.73262","41.13","0","SATNPRO1509","29.366","0.41134","5"],
    [10935,"HCEP03730566","2024-01-20 05:15:00","10.8542","3.39385","27.129","3.768","7.51","0.32","4.453","0.01","0.33","30.061","4.73285","41.21","0","SATNPRO1509","29.332","0.41086","5"],
    [10936,"HCEP03730566","2024-01-20 05:30:00","10.8522","3.39389","27.097","3.784","7.52","0.305","4.249","0.01","0.28","30.063","4.73317","41.39","0","SATNPRO1509","29.384","0.4116","5"],
    [10937,"HCEP03730566","2024-01-20 05:45:00","10.8467","3.39356","27.075","3.842","7.52","0.317","4.254","0.01","0.24","30.0643","4.73344","42.02","0","SATNPRO1509","29.426000000000002","0.41216","5"],
    [10938,"HCEP03730566","2024-01-20 06:00:00","10.8424","3.39338","27.054","3.9","7.52","0.307","4.09","0.01","0.29","30.066","4.73375","42.65","0","SATNPRO1509","29.592","0.41448","5"],
    [10939,"HCEP03730566","2024-01-20 06:15:00","10.841","3.39322","27.045","3.942","7.52","0.312","3.76","0.01","0.25","30.0656","4.73371","43.1","0","SATNPRO1509","29.69","0.41586","5"],
    [10940,"HCEP03730566","2024-01-20 06:30:00","10.8377","3.39293","27.04","3.992","7.53","0.31","3.816","0.01","0.22","30.0655","4.73374","43.65","0","SATNPRO1509","29.848","0.41806","5"],
    [10941,"HCEP03730566","2024-01-20 06:45:00","10.834","3.39253","27.05","4.042","7.53","0.417","4.676","0.03","0.36","30.0646","4.73368","44.19","0","SATNPRO1509","29.974","0.41986","5"],
    [10942,"HCEP03730566","2024-01-20 07:00:00","10.8273","3.39202","27.063","4.118","7.54","0.294","3.866","0.01","0.16","30.0651","4.73386","45.02","0","SATNPRO1509","29.994","0.4201","5"],
    [10943,"HCEP03730566","2024-01-20 07:15:00","10.8224","3.39135","27.117","4.186","7.54","0.379","4.208","0.02","0.18","30.0625","4.73356","45.75","0","SATNPRO1509","29.95","0.4195","5"],
    [10944,"HCEP03730566","2024-01-20 07:30:00","10.8206","3.39084","27.162","4.196","7.55","0.323","4.507","0.04","0.67","30.059","4.73309","45.86","0","SATNPRO1509","30.04","0.42076","5"],
    [10945,"HCEP03730566","2024-01-20 07:45:00","10.8226","3.39064","27.183","4.156","7.55","0.843","21.121","0.33","16.05","30.0553","4.73254","45.42","0","SATNPRO1509","29.874","0.41842","5"],
    [10946,"HCEP03730566","2024-01-20 08:00:00","10.8232","3.39046","27.24","4.121","7.54","0.31","4.265","0.01","0.26","30.053","4.7322","45.04","0","SATNPRO1509","29.832","0.41784","5"],
    [10947,"HCEP03730566","2024-01-20 08:15:00","10.8235","3.39023","27.277","4.128","7.54","0.322","3.995","0.01","0.26","30.0505","4.73184","45.12","0","SATNPRO1509","29.944","0.41942","5"],
    [10948,"HCEP03730566","2024-01-20 08:30:00","10.8244","3.39","27.333","4.129","7.54","0.394","5.252","0.04","0.81","30.0475","4.73141","45.13","0","SATNPRO1509","29.992","0.42008","5"],
    [10949,"HCEP03730566","2024-01-20 08:45:00","10.8248","3.3897","27.399","4.121","7.54","0.323","3.802","0.01","0.21","30.0442","4.73094","45.04","0","SATNPRO1509","30.07","0.42116","5"],
    [10950,"HCEP03730566","2024-01-20 09:00:00","10.8259","3.38945","27.455","4.107","7.54","0.297","3.803","0.01","0.17","30.0409","4.73045","44.89","0","SATNPRO1509","29.97","0.41978","5"],
    [10951,"HCEP03730566","2024-01-20 09:15:00","10.826","3.3892","27.514","4.095","7.54","0.32","4.354","0.01","0.34","30.0383","4.73009","44.76","0","SATNPRO1509","30.062","0.4211","5"],
    [10952,"HCEP03730566","2024-01-20 09:30:00","10.8275","3.38906","27.563","4.081","7.54","0.323","4.307","0.01","0.23","30.0356","4.72969","44.6","0","SATNPRO1509","30.048000000000002","0.42086","5"],
    [10953,"HCEP03730566","2024-01-20 09:45:00","10.8297","3.38911","27.631","4.042","7.54","0.359","5.297","0.04","1.09","30.034300000000002","4.72947","44.18","0","SATNPRO1509","29.926000000000002","0.41916","5"],
    [10954,"HCEP03730566","2024-01-20 10:00:00","10.8294","3.38898","27.705","4.041","7.54","0.35","5.673","0.04","1.39","30.0332","4.72933","44.17","0","SATNPRO1509","29.91","0.41894","5"],
    [10955,"HCEP03730566","2024-01-20 10:15:00","10.8326","3.38923","27.704","3.987","7.53","0.363","5.158","0.01","0.22","30.0331","4.72926","43.58","0","SATNPRO1509","29.962","0.4197","5"],
    [10956,"HCEP03730566","2024-01-20 10:30:00","10.8372","3.38978","27.761","3.915","7.53","0.362","5.476","0.02","0.59","30.0347","4.72943","42.8","0","SATNPRO1509","29.716","0.41622","5"],
    [10957,"HCEP03730566","2024-01-20 10:45:00","10.8413","3.39036","27.817","3.809","7.52","0.375","6.002","0.02","0.57","30.037","4.72969","41.64","0","SATNPRO1509","29.542","0.41376","5"],
    [10958,"HCEP03730566","2024-01-20 11:00:00","10.8377","3.39016","27.857","3.886","7.52","0.34","4.991","0.01","0.23","30.038","4.72988","42.48","0","SATNPRO1509","29.55","0.4139","5"],
    [10959,"HCEP03730566","2024-01-20 11:15:00","10.8487","3.39157","27.877","3.679","7.51","0.408","6.545","0.05","1.29","30.0428","4.7304","40.24","0","SATNPRO1509","29.596","0.41456","5"],
    [10960,"HCEP03730566","2024-01-20 11:30:00","10.8497","3.39181","27.899","3.654","7.51","0.373","7.236","0.04","1.64","30.0443","4.7306","39.95","0","SATNPRO1509","29.218","0.40922","5"],
    [10961,"HCEP03730566","2024-01-20 11:45:00","10.8482","3.39183","27.876","3.661","7.51","0.368","8.279","0.03","1.88","30.0458","4.73082","40.03","0","SATNPRO1509","29.232","0.40944","5"],
    [10962,"HCEP03730566","2024-01-20 12:00:00","10.8488","3.39201","27.942","3.647","7.5","0.341","5.381","0.03","0.49","30.047","4.73099","39.88","0","SATNPRO1509","29.278","0.4101","5"],
    [10963,"HCEP03730566","2024-01-20 12:15:00","10.8456","3.39181","27.905","3.688","7.5","0.381","5.693","0.03","0.35","30.0477","4.73114","40.33","0","SATNPRO1509","29.312","0.41058","5"],
    [10964,"HCEP03730566","2024-01-20 12:30:00","10.8343","3.39129","27.82","3.861","7.51","0.387","5.799","0.03","0.76","30.0519","4.7319","42.21","0","SATNPRO1509","29.556","0.41398","5"],
    [10965,"HCEP03730566","2024-01-20 12:45:00","10.8332","3.39233","27.794","3.918","7.52","0.369","5.071","0.02","0.56","30.063","4.73351","42.83","0","SATNPRO1509","29.502","0.41324","5"],
    [10966,"HCEP03730566","2024-01-20 13:00:00","10.8326","3.39284","27.709","3.924","7.52","0.417","8.189","0.12","4.33","30.0685","4.73428","42.91","0","SATNPRO1509","29.492","0.4131","5"],
    [10967,"HCEP03730566","2024-01-20 13:15:00","10.833","3.39295","27.679","3.915","7.52","0.356","5.713","0.03","0.91","30.0693","4.73439","42.8","0","SATNPRO1509","29.41","0.41198","5"],
    [10968,"HCEP03730566","2024-01-20 13:30:00","10.8295","3.39261","27.535","3.964","7.52","0.317","4.471","0.01","0.18","30.0689","4.73439","43.34","0","SATNPRO1509","29.576","0.41432","5"],
    [10969,"HCEP03730566","2024-01-20 13:45:00","10.8263","3.39271","27.483","4.051","7.53","0.339","3.219","0.05","0.32","30.0725","4.73494","44.29","0","SATNPRO1509","29.876","0.41844","5"],
    [10970,"HCEP03730566","2024-01-20 14:00:00","10.8257","3.39299","27.379","4.136","7.53","0.331","3.661","0.02","0.36","30.0758","4.73542","45.21","0","SATNPRO1509","29.919999999999998","0.41912","5"],
    [10971,"HCEP03730566","2024-01-20 14:15:00","10.8263","3.39319","27.22","4.142","7.54","0.419","3.954","0.05","0.65","30.0773","4.7356","45.29","0","SATNPRO1509","30.006","0.42028","5"],
    [10972,"HCEP03730566","2024-01-20 14:30:00","10.8266","3.39323","27.078","4.146","7.54","0.362","9.387","0.28","19.49","30.0775","4.73562","45.33","0","SATNPRO1509","29.978","0.41986","5"],
    [10973,"HCEP03730566","2024-01-20 14:45:00","10.8269","3.3933","26.925","4.126","7.54","0.333","3.805","0.02","0.21","30.078","4.73568","45.11","0","SATNPRO1509","29.733999999999998","0.41646","5"],
    [10974,"HCEP03730566","2024-01-20 15:00:00","10.8258","3.39337","26.747","4.149","7.54","0.328","3.395","0.03","0.21","30.0797","4.73593","45.36","0","SATNPRO1509","29.772000000000002","0.417","5"],
    [10975,"HCEP03730566","2024-01-20 15:15:00","10.8258","3.39331","26.567","4.155","7.54","0.32","3.387","0.02","0.16","30.0792","4.73585","45.43","0","SATNPRO1509","29.894000000000002","0.41872","5"],
    [10976,"HCEP03730566","2024-01-20 15:30:00","10.8245","3.39309","26.376","4.166","7.54","0.308","3.136","0.02","0.24","30.0782","4.73571","45.55","0","SATNPRO1509","29.862","0.41828","5"],
    [10977,"HCEP03730566","2024-01-20 15:45:00","10.8231","3.3928","26.158","4.173","7.54","0.342","3.32","0.04","0.49","30.0765","4.73549","45.62","0","SATNPRO1509","29.992","0.42006","5"],
    [10978,"HCEP03730566","2024-01-20 16:00:00","10.823","3.39273","25.962","4.169","7.54","0.309","3.238","0.02","0.32","30.076","4.73541","45.57","0","SATNPRO1509","29.768","0.41696","5"],
    [10979,"HCEP03730566","2024-01-20 16:15:00","10.8216","3.39246","25.753","4.169","7.55","0.316","3.567","0.01","0.21","30.0746","4.73522","45.58","0","SATNPRO1509","29.804","0.41744","5"],
    [10980,"HCEP03730566","2024-01-20 16:30:00","10.818","3.39197","25.542","4.213","7.55","0.308","3.758","0.01","0.19","30.0728","4.735","46.05","0","SATNPRO1509","29.951999999999998","0.41954","5"],
    [10981,"HCEP03730566","2024-01-20 16:45:00","10.817","3.39172","25.349","4.225","7.55","0.325","4.429","0.02","0.79","30.0713","4.73479","46.18","0","SATNPRO1509","30.142","0.42218","5"],
    [10982,"HCEP03730566","2024-01-20 17:00:00","10.8151","3.39106","25.175","4.202","7.55","0.311","3.905","0.01","0.28","30.0664","4.73412","45.93","0","SATNPRO1509","29.916","0.419","5"],
    [10983,"HCEP03730566","2024-01-20 17:15:00","10.8139","3.39075","25.028","4.186","7.55","0.323","4.4","0.01","0.33","30.0644","4.73385","45.74","0","SATNPRO1509","29.826","0.41774","5"],
    [10984,"HCEP03730566","2024-01-20 17:30:00","10.8128","3.39044","24.881","4.187","7.55","0.315","4.775","0.01","0.25","30.0623","4.73356","45.76","0","SATNPRO1509","29.47","0.41276","5"],
    [10985,"HCEP03730566","2024-01-20 17:45:00","10.8109","3.39009","24.742","4.216","7.55","0.32","4.303","0.01","0.23","30.0605","4.73333","46.07","0","SATNPRO1509","29.682","0.41578","5"],
    [10986,"HCEP03730566","2024-01-20 18:00:00","10.811","3.39002","24.612","4.225","7.55","0.616","9.444","0.13","3.65","30.0597","4.73321","46.17","0","SATNPRO1509","29.924","0.41914","5"],
    [10987,"HCEP03730566","2024-01-20 18:15:00","10.8101","3.38962","24.533","4.236","7.55","0.313","3.794","0.03","0.33","30.0566","4.73277","46.28","0","SATNPRO1509","29.918","0.41902","5"],
    [10988,"HCEP03730566","2024-01-20 18:30:00","10.8105","3.38978","24.465","4.241","7.55","0.46","4.288","0.05","0.37","30.0579","4.73295","46.34","0","SATNPRO1509","29.864","0.41834","5"],
    [10989,"HCEP03730566","2024-01-20 18:45:00","10.8112","3.38978","24.41","4.233","7.55","0.312","4.267","0.02","2.98","30.0573","4.73285","46.26","0","SATNPRO1509","30.002","0.42022","5"],
    [10990,"HCEP03730566","2024-01-20 19:00:00","10.8127","3.38985","24.421","4.22","7.55","0.306","3.96","0.01","0.19","30.0568","4.73275","46.11","0","SATNPRO1509","30.21","0.4231","5"],
    [10991,"HCEP03730566","2024-01-20 19:15:00","10.8138","3.38995","24.458","4.2","7.55","0.316","3.833","0.01","0.22","30.0569","4.73275","45.9","0","SATNPRO1509","29.862000000000002","0.41828","5"],
    [10992,"HCEP03730566","2024-01-20 19:30:00","10.8152","3.38999","24.471","4.183","7.55","0.308","3.691","0.01","0.3","30.0561","4.73261","45.71","0","SATNPRO1509","29.948","0.41946","5"],
    [10993,"HCEP03730566","2024-01-20 19:45:00","10.8167","3.39007","24.512","4.168","7.55","0.317","3.625","0.01","0.22","30.0557","4.73253","45.55","0","SATNPRO1509","29.938","0.41934","5"],
    [10994,"HCEP03730566","2024-01-20 20:00:00","10.82","3.39024","24.544","4.147","7.55","0.311","4.015","0.01","0.23","30.0546","4.73234","45.33","0","SATNPRO1509","29.998","0.42018","5"],
    [10995,"HCEP03730566","2024-01-20 20:15:00","10.823","3.39054","24.664","4.115","7.54","0.519","11.934","0.19","8.07","30.055","4.73235","44.98","0","SATNPRO1509","29.972","0.41984","5"],
    [10996,"HCEP03730566","2024-01-20 20:30:00","10.8257","3.39083","24.737","4.095","7.54","0.466","5.439","0.07","0.58","30.0557","4.73241","44.76","0","SATNPRO1509","29.95","0.41954","5"],
    [10997,"HCEP03730566","2024-01-20 20:45:00","10.8283","3.39108","24.838","4.074","7.54","0.34","4.392","0.01","0.97","30.0559","4.73241","44.54","0","SATNPRO1509","30.016","0.42042","5"],
    [10998,"HCEP03730566","2024-01-20 21:00:00","10.8304","3.39127","24.942","4.046","7.54","0.31","4.155","0.01","0.15","30.056","4.73239","44.24","0","SATNPRO1509","30.01","0.42034","5"],
    [10999,"HCEP03730566","2024-01-20 21:15:00","10.8309","3.39143","25.074","4.028","7.54","2.478","54.54","0.88","3.27","30.0572","4.73255","44.03","0","SATNPRO1509","29.864","0.41834","5"],
    [11000,"HCEP03730566","2024-01-20 21:30:00","10.8323","3.39164","25.217","4.021","7.54","5.077","63.54","2.87","35.64","30.0579","4.73265","43.96","0","SATNPRO1509","30.016","0.42042","5"],
    [11001,"HCEP03730566","2024-01-20 21:45:00","10.8397","3.39259","25.37","3.962","7.53","0.513","9.346","0.1","2.4","30.0612","4.733","43.33","0","SATNPRO1509","29.772000000000002","0.417","5"],
    [11002,"HCEP03730566","2024-01-20 22:00:00","10.8445","3.3932","25.533","3.905","7.53","0.448","7.274","0.09","2.14","30.0632","4.73322","42.7","0","SATNPRO1509","29.744","0.41664","5"],
    [11003,"HCEP03730566","2024-01-20 22:15:00","10.8467","3.3934","25.686","3.888","7.53","0.337","5.377","0.02","0.61","30.0632","4.73321","42.52","0","SATNPRO1509","29.826","0.41776","5"],
    [11004,"HCEP03730566","2024-01-20 22:30:00","10.8463","3.39327","25.842","3.9","7.53","3.05","86.864","1.07","22.91","30.0622","4.73308","42.65","0","SATNPRO1509","29.85","0.41812","5"],
    [11005,"HCEP03730566","2024-01-20 22:45:00","10.8448","3.39304","26.002","3.936","7.53","0.318","4.466","0.01","0.26","30.0611","4.73296","43.04","0","SATNPRO1509","29.904","0.4189","5"],
    [11006,"HCEP03730566","2024-01-20 23:00:00","10.8451","3.39298","26.192","3.93","7.53","0.325","4.501","0.01","0.26","30.0603","4.73284","42.97","0","SATNPRO1509","29.904","0.4188","5"],
    [11007,"HCEP03730566","2024-01-20 23:15:00","10.8454","3.39285","26.357","3.917","7.53","0.887","58.497","0.59","44.92","30.0587","4.73262","42.84","0","SATNPRO1509","29.97","0.41978","5"],
    [11008,"HCEP03730566","2024-01-20 23:30:00","10.8451","3.3928","26.537","3.909","7.53","0.33","4.401","0.01","0.48","30.0584","4.73259","42.75","0","SATNPRO1509","29.87","0.41838","5"],
    [11009,"HCEP03730566","2024-01-20 23:45:00","10.8453","3.39261","26.705","3.9","7.53","0.338","4.139","0.02","0.2","30.0563","4.7323","42.65","0","SATNPRO1509","29.98","0.4199","5"],
    [11010,"HCEP03730566","2024-01-21 00:00:00","10.8454","3.39261","26.874","3.877","7.52","0.342","4.595","0.03","0.55","30.0561","4.73228","42.4","0","SATNPRO1509","29.900000000000002","0.41878","5"],
    [11011,"HCEP03730566","2024-01-21 00:15:00","10.8464","3.39264","26.988","3.837","7.52","0.428","7.028","0.06","1.56","30.0555","4.73218","41.96","0","SATNPRO1509","29.834","0.41784","5"],
    [11012,"HCEP03730566","2024-01-21 00:30:00","10.8477","3.3927","27.151","3.8","7.52","0.419","35.466","0.15","22.26","30.0549","4.7321","41.55","0","SATNPRO1509","29.66","0.41542","5"],
    [11013,"HCEP03730566","2024-01-21 00:45:00","10.8505","3.39272","27.293","3.756","7.52","0.408","4.857","0.04","0.31","30.0528","4.73176","41.08","0","SATNPRO1509","29.666","0.41552","5"],
    [11014,"HCEP03730566","2024-01-21 01:00:00","10.8513","3.39271","27.39","3.725","7.51","0.306","4.356","0.01","0.15","30.052","4.73164","40.74","0","SATNPRO1509","29.572","0.4142","5"],
    [11015,"HCEP03730566","2024-01-21 01:15:00","10.8527","3.39271","27.525","3.697","7.51","0.298","16.192","0.05","24.72","30.0508","4.73146","40.44","0","SATNPRO1509","29.464000000000002","0.41264","5"],
    [11016,"HCEP03730566","2024-01-21 01:30:00","10.8545","3.3927","27.533","3.679","7.51","0.355","42.538","0.11","21.23","30.0493","4.73121","40.24","0","SATNPRO1509","29.614","0.41478","5"],
    [11017,"HCEP03730566","2024-01-21 01:45:00","10.8548","3.39274","27.675","3.661","7.51","0.434","9.251","0.09","3.51","30.0494","4.73122","40.04","0","SATNPRO1509","29.384","0.41156","5"],
    [11018,"HCEP03730566","2024-01-21 02:00:00","10.8567","3.39277","27.71","3.646","7.51","2.197","51.104","3.5","34.3","30.048","4.73101","39.88","0","SATNPRO1509","29.532","0.41366","5"],
    [11019,"HCEP03730566","2024-01-21 02:15:00","10.8585","3.39282","27.719","3.633","7.51","2.96","47.828","2.5","39.67","30.0471","4.73085","39.74","0","SATNPRO1509","29.496","0.4131","5"],
    [11020,"HCEP03730566","2024-01-21 02:30:00","10.8589","3.39287","27.745","3.622","7.5","0.334","4.445","0.01","0.24","30.0473","4.73087","39.61","0","SATNPRO1509","29.593999999999998","0.41454","5"],
    [11021,"HCEP03730566","2024-01-21 02:45:00","10.8602","3.39287","27.761","3.615","7.5","0.317","4.255","0.01","0.18","30.0461","4.73068","39.54","0","SATNPRO1509","29.64","0.41518","5"],
    [11022,"HCEP03730566","2024-01-21 03:00:00","10.861","3.39285","27.781","3.601","7.5","0.309","4.943","0.02","1.67","30.0453","4.73056","39.39","0","SATNPRO1509","29.614","0.4148","5"],
    [11023,"HCEP03730566","2024-01-21 03:15:00","10.8618","3.39283","27.818","3.589","7.5","0.331","7.561","0.02","3.94","30.0445","4.73043","39.25","0","SATNPRO1509","29.668","0.41556","5"],
    [11024,"HCEP03730566","2024-01-21 03:30:00","10.8629","3.39281","27.822","3.574","7.5","0.595","26.452","0.33","17.95","30.0433","4.73025","39.1","0","SATNPRO1509","29.554","0.41396","5"],
    [11025,"HCEP03730566","2024-01-21 03:45:00","10.8635","3.39282","27.838","3.561","7.5","0.314","4.134","0.01","0.08","30.043","4.7302","38.95","0","SATNPRO1509","29.608","0.41472","5"],
    [11026,"HCEP03730566","2024-01-21 04:00:00","10.8635","3.39284","27.774","3.557","7.5","0.301","3.995","0.01","0.1","30.0432","4.73021","38.91","0","SATNPRO1509","29.576","0.41428","5"],
    [11027,"HCEP03730566","2024-01-21 04:15:00","10.863","3.39286","27.814","3.561","7.5","0.314","3.916","0.01","0.13","30.0437","4.7303","38.95","0","SATNPRO1509","29.602","0.41466","5"],
    [11028,"HCEP03730566","2024-01-21 04:30:00","10.8625","3.39297","27.795","3.559","7.5","0.304","4.078","0.01","0.15","30.0453","4.73053","38.93","0","SATNPRO1509","29.474","0.41288","5"],
    [11029,"HCEP03730566","2024-01-21 04:45:00","10.8635","3.39284","27.772","3.562","7.5","0.313","3.811","0.01","0.17","30.0432","4.73022","38.96","0","SATNPRO1509","29.54","0.41374","5"],
    [11030,"HCEP03730566","2024-01-21 05:00:00","10.863","3.39288","27.702","3.566","7.5","0.299","3.933","0.01","0.15","30.044","4.73033","39","0","SATNPRO1509","29.498","0.41318","5"],
    [11031,"HCEP03730566","2024-01-21 05:15:00","10.8628","3.39291","27.71","3.573","7.5","0.313","3.872","0.01","0.12","30.0444","4.73039","39.09","0","SATNPRO1509","29.55","0.41388","5"],
    [11032,"HCEP03730566","2024-01-21 05:30:00","10.8622","3.39272","27.6","3.593","7.5","0.82","13.925","0.84","15.99","30.0431","4.73021","39.3","0","SATNPRO1509","29.658","0.41538","5"],
    [11033,"HCEP03730566","2024-01-21 05:45:00","10.8599","3.39271","27.544","3.618","7.5","0.306","3.482","0.01","0.16","30.0449","4.73051","39.57","0","SATNPRO1509","29.612000000000002","0.41476","5"],
    [11034,"HCEP03730566","2024-01-21 06:00:00","10.8599","3.39314","27.46","3.565","7.5","0.311","4.819","0.01","0.12","30.0492","4.7311","38.99","0","SATNPRO1509","29.342000000000002","0.41094","5"],
    [11035,"HCEP03730566","2024-01-21 06:15:00","10.8598","3.39319","27.5","3.545","7.5","0.321","4.857","0.01","0.18","30.0497","4.73118","38.78","0","SATNPRO1509","29.276","0.41006","5"],
    [11036,"HCEP03730566","2024-01-21 06:30:00","10.8602","3.39319","27.479","3.534","7.5","0.31","4.872","0.01","0.15","30.0494","4.73113","38.66","0","SATNPRO1509","29.254","0.40976","5"],
    [11037,"HCEP03730566","2024-01-21 06:45:00","10.8621","3.3931","27.436","3.529","7.5","0.319","4.659","0.01","0.15","30.0471","4.73077","38.61","0","SATNPRO1509","29.332","0.41086","5"],
    [11038,"HCEP03730566","2024-01-21 07:00:00","10.8623","3.39288","27.319","3.562","7.5","0.3","3.878","0.01","0.15","30.0447","4.73042","38.97","0","SATNPRO1509","29.712","0.41616","5"],
    [11039,"HCEP03730566","2024-01-21 07:15:00","10.860900000000001","3.39275","27.309","3.583","7.5","0.303","3.038","0","0.12","30.0446","4.73043","39.19","0","SATNPRO1509","29.728","0.41638","5"],
    [11040,"HCEP03730566","2024-01-21 07:30:00","10.8607","3.39291","27.365","3.589","7.5","0.312","3.698","0.01","0.11","30.0462","4.73067","39.25","0","SATNPRO1509","29.604","0.4146","5"],
    [11041,"HCEP03730566","2024-01-21 07:45:00","10.8599","3.39284","27.262","3.591","7.5","0.428","7.383","0.34","10.25","30.0463","4.73069","39.28","0","SATNPRO1509","29.698","0.416","5"],
    [11042,"HCEP03730566","2024-01-21 08:00:00","10.8589","3.39267","27.239","3.622","7.5","0.371","4.349","0.04","0.96","30.0456","4.7306","39.62","0","SATNPRO1509","29.908","0.41892","5"],
    [11043,"HCEP03730566","2024-01-21 08:15:00","10.8578","3.39276","27.289","3.634","7.5","0.352","3.647","0.03","0.4","30.0472","4.73085","39.75","0","SATNPRO1509","29.84","0.41796","5"],
    [11044,"HCEP03730566","2024-01-21 08:30:00","10.8561","3.3929","27.337","3.644","7.5","0.348","5.009","0.04","1.19","30.05","4.73127","39.86","0","SATNPRO1509","29.598","0.41456","5"],
    [11045,"HCEP03730566","2024-01-21 08:45:00","10.8542","3.393","27.362","3.647","7.5","0.321","4.331","0.01","0.23","30.0525","4.73166","39.89","0","SATNPRO1509","29.504","0.41324","5"],
    [11046,"HCEP03730566","2024-01-21 09:00:00","10.8533","3.39299","27.273","3.655","7.5","0.312","4.466","0.01","0.17","30.0532","4.73177","39.98","0","SATNPRO1509","29.592","0.4145","5"],
    [11047,"HCEP03730566","2024-01-21 09:15:00","10.8517","3.39296","27.426","3.684","7.51","0.32","4.36","0.01","0.22","30.0541","4.73192","40.29","0","SATNPRO1509","29.61","0.41476","5"],
    [11048,"HCEP03730566","2024-01-21 09:30:00","10.8505","3.39289","27.385","3.712","7.51","0.304","4.104","0.01","0.18","30.0545","4.732","40.6","0","SATNPRO1509","29.644","0.4152","5"],
    [11049,"HCEP03730566","2024-01-21 09:45:00","10.8491","3.39292","27.444","3.741","7.51","0.323","4.421","0.01","0.25","30.0559","4.73223","40.91","0","SATNPRO1509","29.606","0.41468","5"],
    [11050,"HCEP03730566","2024-01-21 10:00:00","10.8481","3.39276","27.397","3.771","7.51","0.357","5.014","0.08","0.48","30.0551","4.73213","41.24","0","SATNPRO1509","29.824","0.41774","5"],
    [11051,"HCEP03730566","2024-01-21 10:15:00","10.8469","3.39264","27.526","3.812","7.51","0.32","3.675","0.01","0.11","30.0549","4.73213","41.69","0","SATNPRO1509","29.832","0.41784","5"],
    [11052,"HCEP03730566","2024-01-21 10:30:00","10.8455","3.39263","27.605","3.856","7.52","0.31","3.733","0.01","0.1","30.0559","4.73229","42.17","0","SATNPRO1509","30.044","0.4208","5"],
    [11053,"HCEP03730566","2024-01-21 10:45:00","10.8448","3.39252","27.582","3.871","7.52","0.32","3.678","0.01","0.12","30.0554","4.73224","42.34","0","SATNPRO1509","30.032","0.42066","5"],
    [11054,"HCEP03730566","2024-01-21 11:00:00","10.8441","3.3927","27.546","3.893","7.52","0.305","3.856","0.01","0.15","30.0578","4.73258","42.57","0","SATNPRO1509","30.064","0.42108","5"],
    [11055,"HCEP03730566","2024-01-21 11:15:00","10.8437","3.39281","27.6","3.906","7.52","0.315","3.775","0.01","0.14","30.0591","4.73278","42.72","0","SATNPRO1509","30.072","0.42118","5"],
    [11056,"HCEP03730566","2024-01-21 11:30:00","10.8423","3.39261","27.689","3.927","7.52","0.302","3.67","0.01","0.16","30.0582","4.73268","42.94","0","SATNPRO1509","30.022000000000002","0.4205","5"],
    [11057,"HCEP03730566","2024-01-21 11:45:00","10.8432","3.39276","27.762","3.919","7.53","0.32","4.064","0.01","0.2","30.059","4.73278","42.85","0","SATNPRO1509","29.912","0.41898","5"],
    [11058,"HCEP03730566","2024-01-21 12:00:00","10.8434","3.39267","27.819","3.892","7.52","0.31","3.972","0.01","0.26","30.058","4.73264","42.56","0","SATNPRO1509","29.97","0.4198","5"],
    [11059,"HCEP03730566","2024-01-21 12:15:00","10.843","3.39259","27.834","3.877","7.52","0.316","4.113","0.01","0.3","30.0574","4.73256","42.39","0","SATNPRO1509","29.796","0.41736","5"],
    [11060,"HCEP03730566","2024-01-21 12:30:00","10.842","3.3924","27.792","3.847","7.52","0.309","4.394","0.01","0.2","30.0564","4.73243","42.07","0","SATNPRO1509","29.702","0.41602","5"],
    [11061,"HCEP03730566","2024-01-21 12:45:00","10.841","3.39226","27.819","3.829","7.52","0.321","4.323","0.01","0.2","30.056","4.73238","41.87","0","SATNPRO1509","29.694","0.41588","5"],
    [11062,"HCEP03730566","2024-01-21 13:00:00","10.838","3.39192","27.851","3.827","7.52","0.311","4.227","0.01","0.18","30.055","4.73229","41.84","0","SATNPRO1509","29.568","0.41414","5"],
    [11063,"HCEP03730566","2024-01-21 13:15:00","10.8361","3.39155","27.818","3.826","7.52","0.321","4.15","0.01","0.18","30.053","4.73204","41.83","0","SATNPRO1509","29.576","0.41426","5"],
    [11064,"HCEP03730566","2024-01-21 13:30:00","10.8334","3.39111","27.619","3.781","7.52","0.326","4.348","0.02","0.26","30.0509","4.73178","41.33","0","SATNPRO1509","29.308","0.41048","5"],
    [11065,"HCEP03730566","2024-01-21 13:45:00","10.8315","3.39092","27.633","3.779","7.51","0.325","3.979","0.01","0.14","30.0506","4.73176","41.31","0","SATNPRO1509","29.436","0.41228","5"],
    [11066,"HCEP03730566","2024-01-21 14:00:00","10.8325","3.39096","27.567","3.778","7.51","0.314","3.69","0.01","0.14","30.0502","4.73168","41.3","0","SATNPRO1509","29.514","0.41338","5"],
    [11067,"HCEP03730566","2024-01-21 14:15:00","10.835","3.39116","27.596","3.731","7.51","0.318","3.898","0.01","0.16","30.0502","4.73164","40.78","0","SATNPRO1509","29.346","0.41104","5"],
    [11068,"HCEP03730566","2024-01-21 14:30:00","10.8368","3.39107","27.49","3.7","7.51","0.308","4.065","0.01","0.15","30.0478","4.73128","40.45","0","SATNPRO1509","29.408","0.4119","5"],
    [11069,"HCEP03730566","2024-01-21 14:45:00","10.8391","3.39119","27.344","3.641","7.51","0.318","3.829","0.01","0.15","30.0472","4.73114","39.81","0","SATNPRO1509","29.324","0.41072","5"],
    [11070,"HCEP03730566","2024-01-21 15:00:00","10.839","3.39115","27.121","3.628","7.5","0.305","4.059","0.01","0.3","30.0469","4.73109","39.66","0","SATNPRO1509","29.355999999999998","0.4112","5"],
    [11071,"HCEP03730566","2024-01-21 15:15:00","10.8378","3.39106","27.045","3.642","7.5","0.317","4.084","0.01","0.16","30.047","4.73112","39.82","0","SATNPRO1509","29.248","0.40968","5"],
    [11072,"HCEP03730566","2024-01-21 15:30:00","10.8378","3.39103","26.933","3.65","7.5","0.306","3.953","0.01","0.11","30.0468","4.73108","39.9","0","SATNPRO1509","29.364","0.41132","5"],
    [11073,"HCEP03730566","2024-01-21 15:45:00","10.838","3.39092","26.664","3.662","7.5","0.323","4.114","0.01","0.35","30.0456","4.7309","40.04","0","SATNPRO1509","29.37","0.4114","5"],
    [11074,"HCEP03730566","2024-01-21 16:00:00","10.8373","3.39084","26.526","3.69","7.5","0.312","4.62","0.01","0.56","30.0455","4.73088","40.35","0","SATNPRO1509","29.452","0.41254","5"],
    [11075,"HCEP03730566","2024-01-21 16:15:00","10.8358","3.39085","26.351","3.747","7.51","0.333","4.694","0.02","0.78","30.0468","4.73108","40.97","0","SATNPRO1509","29.53","0.4136","5"],
    [11076,"HCEP03730566","2024-01-21 16:30:00","10.8324","3.39067","26.122","3.865","7.51","0.318","4.426","0.01","0.18","30.048","4.73129","42.25","0","SATNPRO1509","29.958","0.41958","5"],
    [11077,"HCEP03730566","2024-01-21 16:45:00","10.8303","3.39062","25.961","3.984","7.52","0.317","3.589","0.01","0.18","30.0493","4.7315","43.56","0","SATNPRO1509","30.028","0.42058","5"],
    [11078,"HCEP03730566","2024-01-21 17:00:00","10.834","3.39105","25.746","3.984","7.53","0.308","3.793","0.01","0.3","30.0506","4.73161","43.55","0","SATNPRO1509","30.108","0.42172","5"],
    [11079,"HCEP03730566","2024-01-21 17:15:00","10.8352","3.39113","25.395","3.976","7.53","0.314","3.488","0.01","0.26","30.0504","4.73155","43.46","0","SATNPRO1509","30.122","0.4219","5"],
    [11080,"HCEP03730566","2024-01-21 17:30:00","10.8404","3.39153","25.3","3.899","7.53","0.307","3.472","0.02","0.2","30.0502","4.73144","42.63","0","SATNPRO1509","30.034000000000002","0.42068","5"],
    [11081,"HCEP03730566","2024-01-21 17:45:00","10.8428","3.39176","25.079","3.837","7.52","0.314","3.808","0.01","0.23","30.0506","4.73144","41.96","0","SATNPRO1509","29.998","0.42022","5"],
    [11082,"HCEP03730566","2024-01-21 18:00:00","10.8454","3.39186","24.86","3.792","7.52","0.303","4.138","0.01","0.21","30.0495","4.73123","41.47","0","SATNPRO1509","30.076","0.42126","5"],
    [11083,"HCEP03730566","2024-01-21 18:15:00","10.8475","3.39191","24.748","3.756","7.52","0.315","4.073","0.01","0.27","30.0483","4.73103","41.08","0","SATNPRO1509","29.934","0.41926","5"],
    [11084,"HCEP03730566","2024-01-21 18:30:00","10.8489","3.39195","24.53","3.73","7.51","0.303","4.03","0.01","0.19","30.0477","4.7309","40.8","0","SATNPRO1509","29.942","0.41936","5"],
    [11085,"HCEP03730566","2024-01-21 18:45:00","10.8511","3.39192","24.495","3.696","7.51","0.313","3.775","0.01","0.22","30.0456","4.73056","40.42","0","SATNPRO1509","29.898","0.41876","5"],
    [11086,"HCEP03730566","2024-01-21 19:00:00","10.853","3.39178","24.341","3.665","7.51","0.303","3.979","0.01","0.28","30.0427","4.73012","40.09","0","SATNPRO1509","29.958000000000002","0.41962","5"],
    [11087,"HCEP03730566","2024-01-21 19:15:00","10.8534","3.39137","24.3","3.633","7.51","0.31","4.056","0.01","0.17","30.0385","4.72951","39.73","0","SATNPRO1509","29.85","0.41808","5"],
    [11088,"HCEP03730566","2024-01-21 19:30:00","10.854","3.39131","24.254","3.614","7.5","0.305","4.119","0.01","0.19","30.0373","4.72933","39.52","0","SATNPRO1509","29.972","0.41978","5"],
    [11089,"HCEP03730566","2024-01-21 19:45:00","10.8551","3.39103","24.316","3.588","7.5","0.32","4.464","0.01","0.16","30.0336","4.72879","39.24","0","SATNPRO1509","29.942","0.41936","5"],
    [11090,"HCEP03730566","2024-01-21 20:00:00","10.8574","3.391","24.293","3.562","7.5","0.312","4.591","0.01","0.24","30.0315","4.72845","38.96","0","SATNPRO1509","30","0.42024","5"],
    [11091,"HCEP03730566","2024-01-21 20:15:00","10.8597","3.39095","24.343","3.526","7.5","0.941","69.133","0.45","32.37","30.0291","4.72808","38.56","0","SATNPRO1509","29.962","0.41968","5"],
    [11092,"HCEP03730566","2024-01-21 20:30:00","10.8613","3.39083","24.363","3.503","7.5","1.352","34.31","0.6","19.1","30.0266","4.7277","38.31","0","SATNPRO1509","30.05","0.42092","5"],
    [11093,"HCEP03730566","2024-01-21 20:45:00","10.8637","3.39103","24.489","3.472","7.49","1.232","11.82","0.28","4.27","30.0266","4.72767","37.98","0","SATNPRO1509","29.868","0.41838","5"],
    [11094,"HCEP03730566","2024-01-21 21:00:00","10.8646","3.39128","24.572","3.448","7.49","1.221","16.776","1.68","17.59","30.0282","4.7279","37.71","0","SATNPRO1509","29.866","0.41832","5"],
    [11095,"HCEP03730566","2024-01-21 21:15:00","10.8649","3.39137","24.666","3.439","7.49","1.135","15.948","1.9","19.89","30.0288","4.72798","37.62","0","SATNPRO1509","29.794","0.41734","5"],
    [11096,"HCEP03730566","2024-01-21 21:30:00","10.8653","3.39139","24.739","3.421","7.49","0.306","4.945","0.01","0.2","30.0286","4.72795","37.42","0","SATNPRO1509","29.778","0.41712","5"],
    [11097,"HCEP03730566","2024-01-21 21:45:00","10.8662","3.3914","24.848","3.409","7.49","0.318","4.964","0.01","0.21","30.028","4.72785","37.29","0","SATNPRO1509","29.752","0.4167","5"],
    [11098,"HCEP03730566","2024-01-21 22:00:00","10.8661","3.3913","24.967","3.401","7.49","0.302","4.798","0.01","0.11","30.027","4.72772","37.2","0","SATNPRO1509","29.8","0.41738","5"],
    [11099,"HCEP03730566","2024-01-21 22:15:00","10.8652","3.39118","25.134","3.402","7.49","0.685","17.511","0.3","9.22","30.0266","4.72768","37.21","0","SATNPRO1509","29.682","0.4157","5"],
    [11100,"HCEP03730566","2024-01-21 22:30:00","10.864","3.39106","25.33","3.403","7.48","0.318","5.179","0.01","0.21","30.0263","4.72767","37.22","0","SATNPRO1509","29.754","0.41676","5"],
    [11101,"HCEP03730566","2024-01-21 22:45:00","10.8633","3.39091","25.437","3.402","7.48","0.324","5.011","0.01","0.19","30.0253","4.72755","37.21","0","SATNPRO1509","29.668","0.41554","5"],
    [11102,"HCEP03730566","2024-01-21 23:00:00","10.8633","3.39072","25.564","3.392","7.48","0.327","6.307","0.02","3.05","30.0234","4.72728","37.1","0","SATNPRO1509","29.582","0.41432","5"],
    [11103,"HCEP03730566","2024-01-21 23:15:00","10.8642","3.39048","25.697","3.362","7.48","0.322","4.977","0.01","0.16","30.0203","4.72683","36.77","0","SATNPRO1509","29.588","0.41442","5"],
    [11104,"HCEP03730566","2024-01-21 23:30:00","10.8661","3.39024","25.91","3.321","7.48","0.314","5.244","0.01","0.16","30.0163","4.72625","36.32","0","SATNPRO1509","29.486","0.41304","5"],
    [11105,"HCEP03730566","2024-01-21 23:45:00","10.8678","3.39001","26.157","3.276","7.48","0.324","5.099","0.01","0.12","30.0125","4.7257","35.84","0","SATNPRO1509","29.39","0.41166","5"],
    [11106,"HCEP03730566","2024-01-22 00:00:00","10.8678","3.38956","26.31","3.249","7.48","0.318","5.152","0.01","0.19","30.008","4.72507","35.54","0","SATNPRO1509","29.352","0.41116","5"],
    [11107,"HCEP03730566","2024-01-22 00:15:00","10.8677","3.38909","26.505","3.237","7.47","0.328","5.362","0.01","0.19","30.0034","4.72443","35.41","0","SATNPRO1509","29.296","0.41036","5"],
    [11108,"HCEP03730566","2024-01-22 00:30:00","10.868","3.38859","26.684","3.215","7.47","0.32","5.288","0.01","0.15","29.9982","4.7237","35.16","0","SATNPRO1509","29.38","0.41154","5"],
    [11109,"HCEP03730566","2024-01-22 00:45:00","10.8707","3.38839","26.927","3.168","7.47","0.328","5.151","0.01","0.18","29.9939","4.72305","34.65","0","SATNPRO1509","29.328","0.41078","5"],
    [11110,"HCEP03730566","2024-01-22 01:00:00","10.8744","3.38829","27.133","3.108","7.47","0.317","4.922","0.01","0.14","29.9898","4.72243","34","0","SATNPRO1509","29.166","0.40852","5"],
    [11111,"HCEP03730566","2024-01-22 01:15:00","10.8761","3.38801","27.257","3.051","7.46","0.33","5.073","0.01","0.1","29.9857","4.72182","33.37","0","SATNPRO1509","29.144","0.40818","5"],
    [11112,"HCEP03730566","2024-01-22 01:30:00","10.877","3.38764","27.48","3.005","7.46","0.322","5.217","0.01","0.19","29.9811","4.72118","32.87","0","SATNPRO1509","29.084","0.40734","5"],
    [11113,"HCEP03730566","2024-01-22 01:45:00","10.8768","3.38715","27.619","2.974","7.45","3.535","208.938","0.89","110.17","29.9765","4.72052","32.53","0","SATNPRO1509","28.946","0.40544","5"],
    [11114,"HCEP03730566","2024-01-22 02:00:00","10.8772","3.38682","27.756","2.948","7.45","0.35","5.195","0.02","0.48","29.9729","4.72002","32.25","0","SATNPRO1509","28.91","0.4049","5"],
    [11115,"HCEP03730566","2024-01-22 02:15:00","10.8775","3.38655","27.864","2.922","7.45","0.339","5.263","0.01","1.12","29.9699","4.7196","31.96","0","SATNPRO1509","28.884","0.4046","5"],
    [11116,"HCEP03730566","2024-01-22 02:30:00","10.8771","3.38642","27.933","2.905","7.45","0.51","7.668","0.11","0.88","29.969","4.71947","31.77","0","SATNPRO1509","28.876","0.40444","5"],
    [11117,"HCEP03730566","2024-01-22 02:45:00","10.8775","3.38689","28.067","2.926","7.45","0.338","4.549","0.01","0.19","29.9732","4.72007","32","0","SATNPRO1509","28.982","0.40598","5"],
    [11118,"HCEP03730566","2024-01-22 03:00:00","10.8762","3.38728","28.022","2.96","7.45","0.329","4.729","0.01","0.19","29.9781","4.72078","32.37","0","SATNPRO1509","29.042","0.4068","5"],
    [11119,"HCEP03730566","2024-01-22 03:15:00","10.8747","3.38765","27.956","3.002","7.45","0.349","5.295","0.02","0.35","29.983","4.72151","32.84","0","SATNPRO1509","29.05","0.4069","5"],
    [11120,"HCEP03730566","2024-01-22 03:30:00","10.8728","3.38776","27.951","3.05","7.45","0.345","5.362","0.02","0.42","29.9857","4.72191","33.36","0","SATNPRO1509","29.216","0.4092","5"],
    [11121,"HCEP03730566","2024-01-22 03:45:00","10.8707","3.38769","27.955","3.087","7.45","0.336","5.111","0.01","0.22","29.9867","4.72208","33.76","0","SATNPRO1509","29.32","0.41072","5"],
    [11122,"HCEP03730566","2024-01-22 04:00:00","10.8691","3.38779","27.973","3.134","7.46","0.322","5.242","0.01","0.18","29.9889","4.72243","34.27","0","SATNPRO1509","29.46","0.41262","5"],
    [11123,"HCEP03730566","2024-01-22 04:15:00","10.8682","3.38796","27.982","3.163","7.46","0.332","4.912","0","0.27","29.9914","4.72279","34.59","0","SATNPRO1509","29.372","0.41136","5"],
    [11124,"NA","2024-01-22 04:30:00",null,null,null,null,null,null,null,null,null,null,null,null,null,"SATNPRO1509","29.612000000000002","0.41476","5"],
    [11125,"HCEP03730566","2024-01-22 04:30:01","10.8679","3.38809","28.019","3.183","7.46","0.327","4.951","0.01","0.16","29.9929","4.72302","34.81","0","NA",null,null,null],
    [11126,"HCEP03730566","2024-01-22 04:45:00","10.8665","3.38827","27.99","3.205","7.46","0.336","4.78","0.01","0.15","29.9958","4.72345","35.05","0","SATNPRO1509","29.458","0.41266","5"],
    [11127,"HCEP03730566","2024-01-22 05:00:00","10.8652","3.38822","27.956","3.229","7.47","0.325","4.651","0.01","0.2","29.9964","4.72355","35.31","0","SATNPRO1509","29.536","0.41366","5"],
    [11128,"HCEP03730566","2024-01-22 05:15:00","10.8642","3.38822","27.949","3.247","7.47","0.324","4.718","0.01","0.56","29.9972","4.72368","35.5","0","SATNPRO1509","29.624","0.41494","5"],
    [11129,"HCEP03730566","2024-01-22 05:30:00","10.8629","3.38803","27.924","3.268","7.47","0.312","4.305","0.01","0.17","29.9964","4.72358","35.74","0","SATNPRO1509","29.715999999999998","0.41622","5"],
    [11130,"HCEP03730566","2024-01-22 05:45:00","10.860900000000001","3.38783","27.863","3.289","7.47","0.324","4.205","0.01","0.18","29.996","4.72356","35.96","0","SATNPRO1509","29.772000000000002","0.41702","5"],
    [11131,"HCEP03730566","2024-01-22 06:00:00","10.8594","3.38808","27.796","3.309","7.47","0.311","4.283","0.01","0.1","29.9998","4.72412","36.19","0","SATNPRO1509","29.786","0.41722","5"],
    [11132,"HCEP03730566","2024-01-22 06:15:00","10.8598","3.38838","27.771","3.326","7.47","0.321","4.352","0","0.11","30.0024","4.72448","36.37","0","SATNPRO1509","29.768","0.41698","5"],
    [11133,"HCEP03730566","2024-01-22 06:30:00","10.8594","3.38853","27.71","3.337","7.48","0.311","4.589","0.01","0.2","30.0043","4.72475","36.49","0","SATNPRO1509","29.868","0.4183","5"],
    [11134,"HCEP03730566","2024-01-22 06:45:00","10.8586","3.38855","27.641","3.355","7.48","0.326","4.5","0.01","0.4","30.005","4.72487","36.68","0","SATNPRO1509","29.854","0.41816","5"],
    [11135,"HCEP03730566","2024-01-22 07:00:00","10.8582","3.38855","27.563","3.368","7.48","0.307","4.215","0.01","0.08","30.0054","4.72492","36.83","0","SATNPRO1509","29.986","0.42","5"],
    [11136,"HCEP03730566","2024-01-22 07:15:00","10.8574","3.38858","27.524","3.38","7.48","0.324","4.307","0.01","0.12","30.0065","4.72508","36.96","0","SATNPRO1509","30.068","0.42114","5"],
    [11137,"HCEP03730566","2024-01-22 07:30:00","10.8568","3.38864","27.459","3.387","7.48","0.309","4.592","0.01","0.26","30.0075","4.72523","37.04","0","SATNPRO1509","29.892","0.41866","5"],
    [11138,"HCEP03730566","2024-01-22 07:45:00","10.8552","3.3884","27.411","3.395","7.48","0.363","4.764","0.01","0.13","30.0065","4.72511","37.12","0","SATNPRO1509","29.904","0.41886","5"],
    [11139,"HCEP03730566","2024-01-22 08:00:00","10.8537","3.38812","27.342","3.415","7.48","1.912","27.544","3.18","29.83","30.005","4.72492","37.34","0","SATNPRO1509","29.944","0.4194","5"],
    [11140,"HCEP03730566","2024-01-22 08:15:00","10.8389","3.38761","27.36","3.513","7.49","7.763","60.808","3.23","28.99","30.0122","4.72617","38.4","0","SATNPRO1509","29.84","0.41798","5"],
    [11141,"HCEP03730566","2024-01-22 08:30:00","10.838","3.38791","27.27","3.556","7.49","1.893","20.854","4.39","33.77","30.0158","4.7267","38.87","0","SATNPRO1509","29.983999999999998","0.42","5"],
    [11142,"HCEP03730566","2024-01-22 08:45:00","10.8373","3.38814","27.257","3.554","7.49","6.889","676.102","6.47","312.14","30.0188","4.72712","38.84","0","SATNPRO1509","29.81","0.41756","5"],
    [11143,"HCEP03730566","2024-01-22 09:00:00","10.8377","3.38863","27.253","3.546","7.49","0.862","36.147","0.87","36.24","30.0232","4.72775","38.76","0","SATNPRO1509","29.862","0.41826","5"],
    [11144,"HCEP03730566","2024-01-22 09:15:00","10.8382","3.38876","27.227","3.552","7.49","9.701","744.116","4.72","308.8","30.0241","4.72786","38.83","0","SATNPRO1509","29.956","0.41958","5"],
    [11145,"HCEP03730566","2024-01-22 09:30:00","10.8394","3.38888","27.241","3.559","7.49","3.796","61.23","3.44","36.46","30.0242","4.72786","38.91","0","SATNPRO1509","30.032","0.42066","5"],
    [11146,"HCEP03730566","2024-01-22 09:45:00","10.8402","3.38887","27.208","3.565","7.49","1.123","52.359","1.68","31.81","30.0235","4.72775","38.97","0","SATNPRO1509","30.028000000000002","0.42058","5"],
    [11147,"HCEP03730566","2024-01-22 10:00:00","10.8423","3.38883","27.319","3.565","7.49","1.31","28.049","2.41","31.08","30.0213","4.72741","38.98","0","SATNPRO1509","29.996000000000002","0.42016","5"],
    [11148,"HCEP03730566","2024-01-22 10:15:00","10.842","3.38893","27.355","3.567","7.49","8.757","1317.458","1.71","466.31","30.0225","4.72758","38.99","0","SATNPRO1509","29.986","0.42002","5"],
    [11149,"HCEP03730566","2024-01-22 10:30:00","10.8423","3.38937","27.337","3.638","7.5","3.677","49.973","5.24","34.91","30.0266","4.72817","39.77","0","SATNPRO1509","30.04","0.42076","5"],
    [11150,"HCEP03730566","2024-01-22 10:45:00","10.8358","3.39138","27.424","3.944","7.51","0.327","4.979","0.04","2.63","30.0517","4.73183","43.12","0","SATNPRO1509","30.67","0.4296","5"],
    [11151,"HCEP03730566","2024-01-22 11:00:00","10.8367","3.3923","27.444","4.026","7.52","0.311","4.103","0.02","0.47","30.06","4.733","44.02","0","SATNPRO1509","30.776","0.43108","5"],
    [11152,"HCEP03730566","2024-01-22 11:15:00","10.8383","3.39284","27.468","4.032","7.53","0.67","7.698","0.18","2.31","30.064","4.73355","44.09","0","SATNPRO1509","30.85","0.43212","5"],
    [11153,"HCEP03730566","2024-01-22 11:30:00","10.8387","3.393","27.489","4.03","7.53","0.478","6.421","0.04","0.61","30.0651","4.7337","44.07","0","SATNPRO1509","30.804","0.43144","5"],
    [11154,"HCEP03730566","2024-01-22 11:45:00","10.8387","3.39302","27.514","4.025","7.53","0.375","5.109","0.04","0.76","30.0654","4.73374","44.01","0","SATNPRO1509","30.848","0.43204","5"],
    [11155,"HCEP03730566","2024-01-22 12:00:00","10.8404","3.39342","27.563","4.027","7.53","0.324","7.056","0.02","1.34","30.0678","4.73407","44.04","0","SATNPRO1509","30.858","0.43222","5"],
    [11156,"HCEP03730566","2024-01-22 12:15:00","10.8416","3.39371","27.564","4.023","7.53","0.36","7.381","0.06","2.19","30.0697","4.73432","44","0","SATNPRO1509","30.784","0.43118","5"],
    [11157,"HCEP03730566","2024-01-22 12:30:00","10.8415","3.39382","27.676","4.019","7.53","0.391","8.649","0.1","3.04","30.0709","4.73448","43.95","0","SATNPRO1509","30.856","0.43216","5"],
    [11158,"HCEP03730566","2024-01-22 12:45:00","10.8423","3.39397","27.679","4.014","7.53","0.438","9.539","0.12","3.71","30.0717","4.73459","43.89","0","SATNPRO1509","30.804","0.43144","5"],
    [11159,"HCEP03730566","2024-01-22 13:00:00","10.8405","3.39364","27.67","4.012","7.53","0.572","8.261","0.11","1.95","30.0699","4.73436","43.87","0","SATNPRO1509","30.844","0.43204","5"],
    [11160,"HCEP03730566","2024-01-22 13:15:00","10.8402","3.39366","27.755","4.017","7.53","0.403","5.209","0.09","2.36","30.0703","4.73443","43.93","0","SATNPRO1509","30.774","0.43108","5"],
    [11161,"HCEP03730566","2024-01-22 13:30:00","10.8382","3.39328","27.784","4.025","7.53","0.38","4.081","0.05","0.46","30.0683","4.73418","44.01","0","SATNPRO1509","30.894","0.43274","5"],
    [11162,"HCEP03730566","2024-01-22 13:45:00","10.8365","3.39286","27.805","4.034","7.53","0.347","3.306","0.01","0.26","30.0655","4.73381","44.1","0","SATNPRO1509","30.796","0.43136","5"],
    [11163,"HCEP03730566","2024-01-22 14:00:00","10.8361","3.39266","27.769","4.031","7.53","0.34","3.494","0.01","0.31","30.0639","4.73358","44.08","0","SATNPRO1509","30.838","0.43192","5"],
    [11164,"HCEP03730566","2024-01-22 14:15:00","10.8358","3.39265","27.791","4.028","7.53","0.349","3.638","0.01","0.4","30.064","4.7336","44.04","0","SATNPRO1509","30.854","0.43214","5"],
    [11165,"HCEP03730566","2024-01-22 14:30:00","10.8357","3.39265","27.768","4.024","7.53","0.366","3.776","0.03","0.31","30.0641","4.73362","44","0","SATNPRO1509","30.8","0.43142","5"],
    [11166,"HCEP03730566","2024-01-22 14:45:00","10.8358","3.39265","27.71","4.025","7.53","0.407","3.758","0.07","1.07","30.064","4.7336","44.01","0","SATNPRO1509","30.792","0.4313","5"],
    [11167,"NA","2024-03-01 09:30:00",null,null,null,null,null,null,null,null,null,null,null,null,null,"SATNPRO1509","29.554","0.41396","5"],
    [11168,"HCEP03730566","2024-01-22 15:00:00","10.8371","3.39299","27.647","4.028","7.53","0.449","3.272","0.02","0.12","30.0664","4.73391","44.04","0","SATNPRO1509","30.728","0.43044","5"],
    [11169,"HCEP03730566","2024-01-22 15:15:00","10.8382","3.39319","27.553","4.024","7.53","0.383","3.97","0.03","0.63","30.0675","4.73405","44","0","SATNPRO1509","30.912","0.43296","5"],
    [11170,"HCEP03730566","2024-01-22 15:30:00","10.8387","3.3934","27.457","4.023","7.53","0.33","3.329","0.01","0.33","30.0691","4.73427","43.99","0","SATNPRO1509","30.858","0.43218","5"],
    [11171,"HCEP03730566","2024-01-22 15:45:00","10.8409","3.39379","27.33","4.009","7.53","0.322","3.458","0.02","0.22","30.0712","4.73452","43.84","0","SATNPRO1509","30.84","0.43196","5"],
    [11172,"HCEP03730566","2024-01-22 16:00:00","10.8444","3.39475","27.201","4.005","7.53","0.325","3.585","0.01","0.25","30.0778","4.7354","43.8","0","SATNPRO1509","30.802","0.43146","5"],
    [11173,"HCEP03730566","2024-01-22 16:15:00","10.8438","3.39462","27.013","4.011","7.53","0.327","3.142","0.01","0.21","30.0771","4.7353","43.86","0","SATNPRO1509","30.944","0.43344","5"],
    [11174,"HCEP03730566","2024-01-22 16:30:00","10.8434","3.39442","26.826","4.002","7.53","0.417","7.284","0.11","4.69","30.0756","4.73508","43.77","0","SATNPRO1509","30.754","0.43072","5"],
    [11175,"HCEP03730566","2024-01-22 16:45:00","10.8438","3.39443","26.683","3.984","7.53","0.33","3.849","0.02","0.33","30.0754","4.73504","43.57","0","SATNPRO1509","30.836","0.43192","5"],
    [11176,"HCEP03730566","2024-01-22 17:00:00","10.8438","3.3945","26.4","3.995","7.53","0.325","3.645","0.03","0.21","30.0762","4.73513","43.69","0","SATNPRO1509","30.838","0.43194","5"],
    [11177,"HCEP03730566","2024-01-22 17:15:00","10.8438","3.39444","26.196","3.992","7.53","0.705","16.664","0.89","27.08","30.0756","4.73504","43.65","0","SATNPRO1509","30.791999999999998","0.4313","5"],
    [11178,"HCEP03730566","2024-01-22 17:30:00","10.8438","3.39425","26.028","3.971","7.53","0.34","5.25","0.07","1.3","30.0738","4.73477","43.43","0","SATNPRO1509","30.794","0.43136","5"],
    [11179,"HCEP03730566","2024-01-22 17:45:00","10.8431","3.3939","25.78","3.964","7.53","0.35","4.248","0.02","0.19","30.0711","4.73439","43.35","0","SATNPRO1509","30.836","0.43192","5"],
    [11180,"HCEP03730566","2024-01-22 18:00:00","10.844","3.39396","25.582","3.954","7.53","1.459","45.045","1.47","37.79","30.071","4.73435","43.24","0","SATNPRO1509","30.716","0.4302","5"],
    [11181,"HCEP03730566","2024-01-22 18:15:00","10.8434","3.39383","25.364","3.964","7.53","0.368","4.629","0.04","0.47","30.0704","4.73425","43.36","0","SATNPRO1509","30.858","0.43226","5"],
    [11182,"HCEP03730566","2024-01-22 18:30:00","10.8412","3.39322","25.2","3.998","7.53","0.515","6.103","0.04","0.51","30.0661","4.73368","43.72","0","SATNPRO1509","30.862000000000002","0.43226","5"],
    [11183,"HCEP03730566","2024-01-22 18:45:00","10.8377","3.39244","24.995","4.034","7.53","0.328","4.114","0.01","0.19","30.0615","4.73306","44.1","0","SATNPRO1509","30.902","0.43284","5"],
    [11184,"HCEP03730566","2024-01-22 19:00:00","10.8358","3.3918","24.796","4.038","7.53","0.329","4.024","0.01","0.44","30.0568","4.73242","44.15","0","SATNPRO1509","30.878","0.4325","5"],
    [11185,"HCEP03730566","2024-01-22 19:15:00","10.8357","3.39168","24.648","4.004","7.53","0.339","4.416","0.02","0.5","30.0558","4.73227","43.78","0","SATNPRO1509","30.826","0.43176","5"],
    [11186,"HCEP03730566","2024-01-22 19:30:00","10.8324","3.38996","24.555","3.973","7.53","0.317","4.144","0.01","0.17","30.0417","4.73031","43.43","0","SATNPRO1509","30.738","0.43052","5"],
    [11187,"HCEP03730566","2024-01-22 19:45:00","10.8306","3.38893","24.439","3.94","7.53","0.328","4.404","0.01","0.26","30.033","4.72909","43.07","0","SATNPRO1509","30.672","0.4296","5"],
    [11188,"HCEP03730566","2024-01-22 20:00:00","10.8315","3.38738","24.367","3.833","7.52","0.356","5.278","0.04","0.91","30.0172","4.72683","41.89","0","SATNPRO1509","30.536","0.4277","5"],
    [11189,"HCEP03730566","2024-01-22 20:15:00","10.8328","3.38566","24.294","3.706","7.52","0.336","4.179","0.01","0.26","29.9992","4.72425","40.5","0","SATNPRO1509","30.572","0.4282","5"],
    [11190,"HCEP03730566","2024-01-22 20:30:00","10.8321","3.38505","24.28","3.651","7.51","0.327","4.249","0.01","0.24","29.9937","4.72349","39.9","0","SATNPRO1509","30.452","0.42656","5"],
    [11191,"HCEP03730566","2024-01-22 20:45:00","10.8331","3.38497","24.302","3.628","7.51","0.47","5.998","0.12","1.91","29.9922","4.72325","39.65","0","SATNPRO1509","30.52","0.42744","5"],
    [11192,"HCEP03730566","2024-01-22 21:00:00","10.8324","3.38492","24.333","3.627","7.5","0.369","4.777","0.07","0.63","29.9923","4.72327","39.63","0","SATNPRO1509","30.554","0.42794","5"],
    [11193,"HCEP03730566","2024-01-22 21:15:00","10.8289","3.38436","24.364","3.66","7.5","0.388","4.576","0.06","2.37","29.9896","4.72295","39.99","0","SATNPRO1509","30.594","0.42854","5"],
    [11194,"HCEP03730566","2024-01-22 21:30:00","10.8257","3.38392","24.433","3.711","7.5","0.321","4.032","0.01","0.14","29.9879","4.72277","40.54","0","SATNPRO1509","30.564","0.42816","5"],
    [11195,"HCEP03730566","2024-01-22 21:45:00","10.8204","3.38338","24.515","3.76","7.51","0.351","4.624","0.02","0.48","29.9868","4.72269","41.08","0","SATNPRO1509","30.59","0.42846","5"],
    [11196,"HCEP03730566","2024-01-22 22:00:00","10.8168","3.38306","24.61","3.818","7.51","0.959","27.037","0.6","24.44","29.9866","4.72272","41.71","0","SATNPRO1509","30.61","0.42878","5"],
    [11197,"HCEP03730566","2024-01-22 22:15:00","10.8133","3.38264","24.708","3.878","7.51","5.707","302.882","1.33","30.71","29.9852","4.72259","42.36","0","SATNPRO1509","30.674","0.42968","5"],
    [11198,"HCEP03730566","2024-01-22 22:30:00","10.8108","3.38218","24.83","3.917","7.52","1.609","58.126","0.56","34","29.9828","4.72229","42.78","0","SATNPRO1509","30.634","0.42908","5"],
    [11199,"HCEP03730566","2024-01-22 22:45:00","10.8092","3.38192","25.018","3.93","7.52","0.363","6.549","0.01","0.31","29.9814","4.72213","42.92","0","SATNPRO1509","30.648","0.4293","5"],
    [11200,"HCEP03730566","2024-01-22 23:00:00","10.8083","3.38165","25.173","3.936","7.52","0.749","32.915","0.68","20.14","29.9795","4.72188","42.98","0","SATNPRO1509","30.738","0.4305","5"],
    [11201,"HCEP03730566","2024-01-22 23:15:00","10.8073","3.38143","25.323","3.937","7.52","0.336","4.144","0.01","0.21","29.9781","4.7217","42.99","0","SATNPRO1509","30.708000000000002","0.43012","5"],
    [11202,"HCEP03730566","2024-01-22 23:30:00","10.807","3.38138","25.471","3.928","7.52","0.32","4.019","0.01","0.11","29.9778","4.72168","42.9","0","SATNPRO1509","30.631999999999998","0.42906","5"],
    [11203,"HCEP03730566","2024-01-22 23:45:00","10.807","3.38131","25.633","3.925","7.52","0.333","3.975","0.01","0.12","29.977","4.72157","42.86","0","SATNPRO1509","30.580000000000002","0.42832","5"],
    [11204,"HCEP03730566","2024-01-23 00:00:00","10.8069","3.38125","25.824","3.92","7.52","0.318","4.269","0.01","0.12","29.9764","4.7215","42.81","0","SATNPRO1509","30.612","0.42878","5"],
    [11205,"HCEP03730566","2024-01-23 00:15:00","10.8062","3.3811","26.007","3.915","7.52","0.351","4.438","0.02","0.15","29.9755","4.72139","42.76","0","SATNPRO1509","30.58","0.42834","5"],
    [11206,"HCEP03730566","2024-01-23 00:30:00","10.805","3.38082","26.17","3.916","7.52","0.308","4.252","0.01","0.39","29.9737","4.72116","42.76","0","SATNPRO1509","30.538","0.42774","5"],
    [11207,"HCEP03730566","2024-01-23 00:45:00","10.8039","3.38042","26.372","3.913","7.52","0.444","7.392","0.06","1.25","29.9705","4.72074","42.72","0","SATNPRO1509","30.564","0.42812","5"],
    [11208,"HCEP03730566","2024-01-23 01:00:00","10.8027","3.3801","26.601","3.909","7.52","0.789","29.724","0.84","37.39","29.9683","4.72045","42.69","0","SATNPRO1509","30.55","0.4279","5"],
    [11209,"HCEP03730566","2024-01-23 01:15:00","10.8033","3.38","26.82","3.896","7.52","0.42","4.937","0.04","0.42","29.9667","4.72023","42.54","0","SATNPRO1509","30.538","0.42774","5"],
    [11210,"HCEP03730566","2024-01-23 01:30:00","10.807","3.38033","27.001","3.835","7.52","0.452","5.31","0.05","0.56","29.9668","4.7202","41.88","0","SATNPRO1509","30.49","0.42712","5"],
    [11211,"HCEP03730566","2024-01-23 01:45:00","10.8123","3.38064","27.283","3.744","7.51","1.058","26.942","0.67","16.48","29.9655","4.71995","40.89","0","SATNPRO1509","30.36","0.42526","5"],
    [11212,"HCEP03730566","2024-01-23 02:00:00","10.8144","3.38083","27.501","3.687","7.51","0.52","8.439","0.06","1.29","29.9655","4.71993","40.26","0","SATNPRO1509","30.364","0.42526","5"],
    [11213,"HCEP03730566","2024-01-23 02:15:00","10.8147","3.38077","27.651","3.653","7.51","0.526","8.155","0.08","1.06","29.9647","4.71982","39.89","0","SATNPRO1509","30.314","0.4246","5"],
    [11214,"HCEP03730566","2024-01-23 02:30:00","10.8134","3.38066","27.81","3.667","7.5","0.33","5.528","0.01","0.5","29.9646","4.71983","40.04","0","SATNPRO1509","30.284","0.42418","5"],
    [11215,"HCEP03730566","2024-01-23 02:45:00","10.8102","3.38045","27.956","3.714","7.5","0.568","20.308","0.22","13.06","29.965","4.71995","40.55","0","SATNPRO1509","30.338","0.42494","5"],
    [11216,"HCEP03730566","2024-01-23 03:00:00","10.8077","3.38019","28.097","3.768","7.51","0.938","16.76","0.24","12.92","29.9645","4.71992","41.15","0","SATNPRO1509","30.434","0.42628","5"],
    [11217,"HCEP03730566","2024-01-23 03:15:00","10.8104","3.38041","28.172","3.736","7.51","0.515","21.29","0.26","22.42","29.9644","4.71988","40.8","0","SATNPRO1509","30.39","0.42564","5"],
    [11218,"HCEP03730566","2024-01-23 03:30:00","10.8132","3.38068","28.234","3.697","7.51","0.293","14.051","0.02","1.42","29.9647","4.71988","40.38","0","SATNPRO1509","30.39","0.4257","5"],
    [11219,"HCEP03730566","2024-01-23 03:45:00","10.811","3.38052","28.157","3.704","7.5","0.338","4.115","0.01","0.19","29.965","4.71995","40.45","0","SATNPRO1509","30.416","0.42604","5"],
    [11220,"HCEP03730566","2024-01-23 04:00:00","10.808","3.38033","28.18","3.753","7.51","0.887","35.338","0.16","10.28","29.9655","4.72007","40.99","0","SATNPRO1509","30.490000000000002","0.42706","5"],
    [11221,"HCEP03730566","2024-01-23 04:15:00","10.8053","3.38015","28.144","3.808","7.51","1.211","17.113","0.43","4.44","29.9661","4.72019","41.59","0","SATNPRO1509","30.502","0.42722","5"],
    [11222,"HCEP03730566","2024-01-23 04:30:00","10.8041","3.38008","28.204","3.839","7.51","0.341","5.685","0.01","0.4","29.9663","4.72024","41.92","0","SATNPRO1509","30.372","0.42544","5"],
    [11223,"HCEP03730566","2024-01-23 04:45:00","10.803","3.3801","28.183","3.869","7.51","0.335","4.078","0.01","0.29","29.9674","4.72041","42.25","0","SATNPRO1509","30.580000000000002","0.4283","5"],
    [11224,"HCEP03730566","2024-01-23 05:00:00","10.8033","3.38031","28.159","3.887","7.52","0.32","4.077","0.01","0.25","29.9692","4.72067","42.45","0","SATNPRO1509","30.544","0.42782","5"],
    [11225,"HCEP03730566","2024-01-23 05:15:00","10.8052","3.38087","28.186","3.874","7.52","0.387","5.608","0.02","0.53","29.9732","4.7212","42.3","0","SATNPRO1509","30.578","0.42824","5"],
    [11226,"HCEP03730566","2024-01-23 05:30:00","10.8068","3.38116","28.18","3.87","7.52","0.865","31.875","0.14","8.25","29.9747","4.72139","42.26","0","SATNPRO1509","30.668","0.42954","5"],
    [11227,"HCEP03730566","2024-01-23 05:45:00","10.8074","3.38125","28.178","3.866","7.52","0.89","35.426","0.22","9.41","29.9751","4.72144","42.22","0","SATNPRO1509","30.580000000000002","0.42832","5"],
    [11228,"HCEP03730566","2024-01-23 06:00:00","10.808","3.38136","28.12","3.855","7.52","0.651","22.256","0.03","2.31","29.9757","4.72152","42.1","0","SATNPRO1509","30.646","0.4292","5"],
    [11229,"HCEP03730566","2024-01-23 06:15:00","10.8218","3.38499","28.095","3.719","7.51","0.686","28.724","0.1","4.36","30.0001","4.72476","40.63","0","SATNPRO1509","30.404","0.42588","5"],
    [11230,"HCEP03730566","2024-01-23 06:30:00","10.8238","3.38548","28.03","3.714","7.51","0.65","24.833","0.09","6.21","30.0033","4.72518","40.58","0","SATNPRO1509","30.428","0.42618","5"],
    [11231,"HCEP03730566","2024-01-23 06:45:00","10.8238","3.38566","27.973","3.725","7.51","0.737","32.438","0.08","4.85","30.0052","4.72544","40.7","0","SATNPRO1509","30.492","0.42712","5"],
    [11232,"HCEP03730566","2024-01-23 07:00:00","10.8255","3.38626","27.938","3.729","7.51","1.01","63.824","0.36","22.71","30.0096","4.72605","40.75","0","SATNPRO1509","30.546","0.42788","5"],
    [11233,"HCEP03730566","2024-01-23 07:15:00","10.8266","3.38666","27.859","3.744","7.51","0.63","11.584","0.22","6.77","30.0127","4.72646","40.92","0","SATNPRO1509","30.605999999999998","0.42872","5"],
    [11234,"HCEP03730566","2024-01-23 07:30:00","10.8273","3.38695","27.789","3.756","7.51","0.392","6.452","0.03","0.3","30.0149","4.72677","41.05","0","SATNPRO1509","30.576","0.42828","5"],
    [11235,"HCEP03730566","2024-01-23 07:45:00","10.828","3.38727","27.706","3.763","7.51","0.408","6.002","0.04","0.3","30.0176","4.72713","41.13","0","SATNPRO1509","30.548","0.42788","5"],
    [11236,"HCEP03730566","2024-01-23 08:00:00","10.8289","3.38753","27.635","3.772","7.51","0.402","6.201","0.07","1.37","30.0194","4.72737","41.23","0","SATNPRO1509","30.528","0.42758","5"],
    [11237,"HCEP03730566","2024-01-23 08:15:00","10.8293","3.38766","27.577","3.776","7.51","0.389","5.433","0.03","0.19","30.0205","4.72751","41.27","0","SATNPRO1509","30.567999999999998","0.42814","5"],
    [11238,"HCEP03730566","2024-01-23 08:30:00","10.8303","3.38806","27.504","3.777","7.51","0.595","8.906","0.29","4.32","30.0235","4.72793","41.28","0","SATNPRO1509","30.584","0.4284","5"],
    [11239,"HCEP03730566","2024-01-23 08:45:00","10.8312","3.3885","27.419","3.787","7.51","0.413","5.93","0.07","0.5","30.0271","4.72841","41.39","0","SATNPRO1509","30.509999999999998","0.42732","5"],
    [11240,"HCEP03730566","2024-01-23 09:00:00","10.8318","3.38878","27.377","3.796","7.51","0.427","6.24","0.08","0.78","30.0295","4.72874","41.49","0","SATNPRO1509","30.566","0.42814","5"],
    [11241,"HCEP03730566","2024-01-23 09:15:00","10.8325","3.38891","27.294","3.791","7.51","0.358","6.421","0.03","1.39","30.0301","4.72882","41.44","0","SATNPRO1509","30.580000000000002","0.42828","5"],
    [11242,"HCEP03730566","2024-01-23 09:30:00","10.8325","3.38899","27.27","3.795","7.51","0.398","14.211","0.14","19.27","30.0309","4.72893","41.48","0","SATNPRO1509","30.57","0.42822","5"],
    [11243,"HCEP03730566","2024-01-23 09:45:00","10.8329","3.3893","27.229","3.81","7.51","0.408","5.695","0.04","0.49","30.0337","4.72931","41.64","0","SATNPRO1509","30.616","0.42888","5"],
    [11244,"HCEP03730566","2024-01-23 10:00:00","10.8329","3.38929","27.229","3.815","7.51","5.338","49.783","6.1","44.44","30.0336","4.7293","41.7","0","SATNPRO1509","30.694000000000003","0.42996","5"],
    [11245,"HCEP03730566","2024-01-23 10:15:00","10.8329","3.38936","27.255","3.818","7.51","1.236","17.005","0.34","7.47","30.0342","4.72938","41.74","0","SATNPRO1509","30.56","0.42804","5"],
    [11246,"HCEP03730566","2024-01-23 10:30:00","10.8341","3.38973","27.232","3.816","7.51","1.085","17.212","0.41","6.01","30.0369","4.72975","41.71","0","SATNPRO1509","30.62","0.42888","5"],
    [11247,"HCEP03730566","2024-01-23 10:45:00","10.835","3.39003","27.262","3.816","7.51","3.842","55.394","3.62","38.57","30.0391","4.73005","41.71","0","SATNPRO1509","30.53","0.42764","5"],
    [11248,"HCEP03730566","2024-01-23 11:00:00","10.8357","3.39016","27.296","3.815","7.51","0.716","22.885","0.99","27.96","30.0399","4.73015","41.7","0","SATNPRO1509","30.636","0.4291","5"],
    [11249,"HCEP03730566","2024-01-23 11:15:00","10.8362","3.39034","27.343","3.808","7.51","0.33","4.964","0.01","0.24","30.0411","4.73033","41.63","0","SATNPRO1509","30.624","0.42896","5"],
    [11250,"HCEP03730566","2024-01-23 11:30:00","10.8373","3.39063","27.381","3.809","7.51","0.322","5.326","0.03","2.51","30.043","4.73058","41.64","0","SATNPRO1509","30.656","0.42942","5"],
    [11251,"HCEP03730566","2024-01-23 11:45:00","10.8381","3.39088","27.411","3.804","7.51","0.341","4.571","0.01","0.2","30.0449","4.73084","41.59","0","SATNPRO1509","30.652","0.42928","5"],
    [11252,"HCEP03730566","2024-01-23 12:00:00","10.8394","3.39135","27.45","3.814","7.51","0.335","4.333","0.02","0.2","30.0484","4.73131","41.7","0","SATNPRO1509","30.73","0.43044","5"],
    [11253,"HCEP03730566","2024-01-23 12:15:00","10.8398","3.39145","27.509","3.82","7.51","0.347","4.92","0.01","0.29","30.0491","4.73141","41.77","0","SATNPRO1509","30.708000000000002","0.4301","5"],
    [11254,"HCEP03730566","2024-01-23 12:30:00","10.84","3.39171","27.527","3.829","7.52","0.332","5.071","0.02","0.19","30.0514","4.73173","41.87","0","SATNPRO1509","30.742","0.4306","5"],
    [11255,"HCEP03730566","2024-01-23 12:45:00","10.8403","3.3918","27.548","3.841","7.52","0.492","6.123","0.47","5.52","30.0521","4.73183","41.99","0","SATNPRO1509","30.834","0.43186","5"],
    [11256,"HCEP03730566","2024-01-23 13:00:00","10.8408","3.39199","27.614","3.849","7.52","0.326","4.333","0.02","0.24","30.0535","4.73202","42.08","0","SATNPRO1509","30.804000000000002","0.43148","5"],
    [11257,"HCEP03730566","2024-01-23 13:15:00","10.8411","3.39208","27.65","3.847","7.52","0.338","4.685","0.03","0.22","30.0542","4.73212","42.06","0","SATNPRO1509","30.82","0.43166","5"],
    [11258,"HCEP03730566","2024-01-23 13:30:00","10.8413","3.39225","27.693","3.865","7.52","0.326","4.115","0.02","0.32","30.0556","4.73232","42.26","0","SATNPRO1509","30.854","0.43218","5"],
    [11259,"HCEP03730566","2024-01-23 13:45:00","10.8415","3.3924","27.727","3.868","7.52","0.333","4.275","0.01","0.45","30.0569","4.7325","42.3","0","SATNPRO1509","30.82","0.43168","5"],
    [11260,"HCEP03730566","2024-01-23 14:00:00","10.8413","3.3924","27.746","3.873","7.52","0.326","4.116","0.01","0.21","30.057","4.73252","42.35","0","SATNPRO1509","30.8","0.43142","5"],
    [11261,"HCEP03730566","2024-01-23 14:15:00","10.8414","3.39234","27.759","3.864","7.52","0.341","4.037","0.02","0.22","30.0564","4.73243","42.25","0","SATNPRO1509","30.81","0.43158","5"],
    [11262,"HCEP03730566","2024-01-23 14:30:00","10.8409","3.39229","27.765","3.865","7.52","0.835","6.222","0.57","2.94","30.0563","4.73243","42.26","0","SATNPRO1509","30.876","0.43244","5"],
    [11263,"HCEP03730566","2024-01-23 14:45:00","10.8415","3.39246","27.74","3.857","7.52","2.049","25.255","0.31","3.75","30.0575","4.73258","42.18","0","SATNPRO1509","30.818","0.43168","5"],
    [11264,"HCEP03730566","2024-01-23 15:00:00","10.8422","3.39265","27.755","3.845","7.52","0.851","14.254","0.34","5.86","30.0587","4.73276","42.05","0","SATNPRO1509","30.836","0.43188","5"],
    [11265,"HCEP03730566","2024-01-23 15:15:00","10.8408","3.39226","27.711","3.839","7.52","1.428","20.083","0.48","11.03","30.0561","4.7324","41.98","0","SATNPRO1509","30.924","0.43314","5"],
    [11266,"HCEP03730566","2024-01-23 15:30:00","10.8398","3.39195","27.688","3.827","7.52","0.863","15.169","0.36","7.35","30.054","4.73211","41.84","0","SATNPRO1509","30.748","0.43072","5"],
    [11267,"HCEP03730566","2024-01-23 15:45:00","10.8391","3.3918","27.641","3.821","7.52","5.599","42.26","1.67","10.85","30.053","4.73199","41.78","0","SATNPRO1509","30.695999999999998","0.42998","5"],
    [11268,"HCEP03730566","2024-01-23 16:00:00","10.839","3.39173","27.567","3.826","7.52","6.802","65.09","4.3","40.98","30.0524","4.7319","41.83","0","SATNPRO1509","30.742","0.4306","5"],
    [11269,"HCEP03730566","2024-01-23 16:15:00","10.8389","3.39171","27.452","3.825","7.52","1.502","23.333","1.18","17.3","30.0524","4.73189","41.83","0","SATNPRO1509","30.702","0.43006","5"],
    [11270,"HCEP03730566","2024-01-23 16:30:00","10.839","3.39164","27.337","3.819","7.52","2.329","51.903","1.95","38.34","30.0516","4.73176","41.76","0","SATNPRO1509","30.508","0.42732","5"],
    [11271,"HCEP03730566","2024-01-23 16:45:00","10.839","3.39171","27.219","3.815","7.51","0.58","7.179","0.43","4.93","30.0524","4.73187","41.71","0","SATNPRO1509","30.63","0.42904","5"],
    [11272,"HCEP03730566","2024-01-23 17:00:00","10.8402","3.39203","27.075","3.806","7.51","5.556","75.68","3.21","36.45","30.0546","4.73215","41.62","0","SATNPRO1509","30.538","0.42774","5"],
    [11273,"HCEP03730566","2024-01-23 17:15:00","10.8395","3.39148","26.913","3.791","7.51","0.44","7.111","0.18","4.2","30.0498","4.73148","41.45","0","SATNPRO1509","30.451999999999998","0.42654","5"],
    [11274,"HCEP03730566","2024-01-23 17:30:00","10.8379","3.39133","26.707","3.786","7.51","2.536","87.975","1.2","14.66","30.0498","4.73149","41.39","0","SATNPRO1509","30.54","0.42778","5"],
    [11275,"HCEP03730566","2024-01-23 17:45:00","10.8381","3.39126","26.502","3.783","7.51","8.96","265.855","4.29","190.84","30.049","4.73137","41.36","0","SATNPRO1509","30.35","0.4251","5"],
    [11276,"HCEP03730566","2024-01-23 18:00:00","10.8384","3.39126","26.271","3.776","7.51","8.793","421.817","2.12","233.87","30.0488","4.73132","41.28","0","SATNPRO1509","30.638","0.42912","5"],
    [11277,"HCEP03730566","2024-01-23 18:15:00","10.8373","3.39105","26.012","3.785","7.51","0.339","4.713","0.02","0.28","30.0477","4.73117","41.38","0","SATNPRO1509","30.576","0.42826","5"],
    [11278,"HCEP03730566","2024-01-23 18:30:00","10.8369","3.39075","25.749","3.792","7.51","0.32","4.306","0.01","0.25","30.0453","4.73081","41.45","0","SATNPRO1509","30.704","0.43006","5"],
    [11279,"HCEP03730566","2024-01-23 18:45:00","10.8365","3.3906","25.455","3.8","7.51","0.38","6.115","0.09","4.08","30.0443","4.73066","41.54","0","SATNPRO1509","30.72","0.4303","5"],
    [11280,"HCEP03730566","2024-01-23 19:00:00","10.8358","3.39045","25.242","3.812","7.51","0.321","4.464","0.01","0.21","30.0434","4.73054","41.67","0","SATNPRO1509","30.792","0.43132","5"],
    [11281,"NA","2024-03-01 09:45:00",null,null,null,null,null,null,null,null,null,null,null,null,null,"SATNPRO1509","30.58","0.42834","5"],
    [11282,"HCEP03730566","2024-01-23 19:15:00","10.8373","3.39099","24.962","3.873","7.52","0.325","4.268","0.01","0.17","30.0475","4.73108","42.35","0","SATNPRO1509","30.858","0.43222","5"],
    [11283,"HCEP03730566","2024-01-23 19:30:00","10.8389","3.39158","24.807","3.947","7.52","0.299","5.496","0.01","1.03","30.0521","4.7317","43.15","0","SATNPRO1509","31.002","0.43424","5"],
    [11284,"HCEP03730566","2024-01-23 19:45:00","10.8408","3.39221","24.658","4.011","7.52","0.292","7.602","0.01","0.9","30.0568","4.73232","43.86","0","SATNPRO1509","30.994","0.43416","5"],
    [11285,"HCEP03730566","2024-01-23 20:00:00","10.8396","3.39189","24.483","4.041","7.53","0.315","4.185","0.01","0.24","30.0548","4.73205","44.19","0","SATNPRO1509","31.128","0.43604","5"],
    [11286,"HCEP03730566","2024-01-23 20:15:00","10.8384","3.39155","24.359","4.044","7.53","0.34","4.662","0.01","0.26","30.0524","4.73173","44.22","0","SATNPRO1509","31.086","0.43542","5"],
    [11287,"HCEP03730566","2024-01-23 20:30:00","10.8324","3.38993","24.201","4.037","7.53","0.369","5.54","0.04","0.8","30.0415","4.73027","44.13","0","SATNPRO1509","31.012","0.43442","5"],
    [11288,"HCEP03730566","2024-01-23 20:45:00","10.829","3.38904","24.116","4.044","7.53","0.32","4.097","0.01","0.24","30.0355","4.72945","44.21","0","SATNPRO1509","31.13","0.43604","5"],
    [11289,"HCEP03730566","2024-01-23 21:00:00","10.8272","3.38844","24.113","4.043","7.53","0.315","4.903","0.01","0.48","30.0311","4.72886","44.19","0","SATNPRO1509","31.12","0.43588","5"],
    [11290,"HCEP03730566","2024-01-23 21:15:00","10.8235","3.38764","24.13","4.065","7.53","0.397","6.183","0.08","0.83","30.0263","4.72823","44.42","0","SATNPRO1509","31.166","0.43652","5"],
    [11291,"HCEP03730566","2024-01-23 21:30:00","10.8213","3.38719","24.066","4.093","7.54","0.462","12.842","0.06","4.55","30.0237","4.7279","44.73","0","SATNPRO1509","31.206","0.43708","5"],
    [11292,"HCEP03730566","2024-01-23 21:45:00","10.8217","3.38745","24.075","4.113","7.54","0.573","11.132","0.19","6.21","30.0259","4.72821","44.95","0","SATNPRO1509","31.228","0.43742","5"],
    [11293,"HCEP03730566","2024-01-23 22:00:00","10.8231","3.38793","24.156","4.119","7.54","0.337","4.462","0.02","0.22","30.0295","4.72869","45.01","0","SATNPRO1509","31.124","0.4359","5"],
    [11294,"HCEP03730566","2024-01-23 22:15:00","10.8229","3.38773","24.253","4.105","7.54","5.003","358.62","3.78","306.96","30.0276","4.72843","44.86","0","SATNPRO1509","31.072","0.43518","5"],
    [11295,"HCEP03730566","2024-01-23 22:30:00","10.8203","3.38684","24.313","4.072","7.54","0.324","5.042","0.01","0.21","30.021","4.72754","44.5","0","SATNPRO1509","31.1","0.43558","5"],
    [11296,"HCEP03730566","2024-01-23 22:45:00","10.8175","3.38583","24.419","4.028","7.53","2.414","26.361","0.3","10.09","30.0133","4.7265","44.01","0","SATNPRO1509","30.956","0.43358","5"],
    [11297,"HCEP03730566","2024-01-23 23:00:00","10.8147","3.38492","24.54","4.009","7.53","1.721","20.178","0.14","1.99","30.0066","4.72559","43.79","0","SATNPRO1509","30.988","0.43406","5"],
    [11298,"HCEP03730566","2024-01-23 23:15:00","10.812","3.38395","24.707","3.984","7.53","2.918","144.907","1.01","44.7","29.9993","4.72461","43.52","0","SATNPRO1509","30.936","0.43332","5"],
    [11299,"HCEP03730566","2024-01-23 23:30:00","10.8094","3.38324","24.887","3.984","7.53","0.318","4.628","0.01","0.15","29.9943","4.72395","43.52","0","SATNPRO1509","30.954","0.43356","5"],
    [11300,"HCEP03730566","2024-01-23 23:45:00","10.8078","3.38245","25.055","3.94","7.53","0.333","4.84","0.01","0.17","29.9878","4.72306","43.03","0","SATNPRO1509","30.976","0.43386","5"],
    [11301,"HCEP03730566","2024-01-24 00:00:00","10.8066","3.38164","25.223","3.868","7.52","0.638","30.46","0.25","29.21","29.9807","4.72208","42.24","0","SATNPRO1509","30.79","0.43132","5"],
    [11302,"HCEP03730566","2024-01-24 00:15:00","10.8068","3.38131","25.395","3.807","7.52","0.339","5.029","0.01","0.12","29.9773","4.7216","41.57","0","SATNPRO1509","30.776","0.43106","5"],
    [11303,"HCEP03730566","2024-01-24 00:30:00","10.8072","3.381","25.586","3.753","7.51","0.337","4.893","0.01","0.25","29.9739","4.72112","40.99","0","SATNPRO1509","30.622","0.42888","5"],
    [11304,"HCEP03730566","2024-01-24 00:45:00","10.8065","3.3806","25.809","3.703","7.51","0.337","5.222","0.01","0.36","29.9704","4.72065","40.44","0","SATNPRO1509","30.56","0.42806","5"],
    [11305,"HCEP03730566","2024-01-24 01:00:00","10.8068","3.38018","25.978","3.66","7.5","0.328","5.156","0.01","1.09","29.966","4.72003","39.97","0","SATNPRO1509","30.594","0.4285","5"],
    [11306,"HCEP03730566","2024-01-24 01:15:00","10.8065","3.37985","26.186","3.625","7.5","0.372","5.573","0.03","0.38","29.9628","4.7196","39.59","0","SATNPRO1509","30.528000000000002","0.4276","5"],
    [11307,"HCEP03730566","2024-01-24 01:30:00","10.8068","3.37952","26.436","3.583","7.5","0.345","5.77","0.02","0.31","29.9593","4.71911","39.12","0","SATNPRO1509","30.502","0.42722","5"],
    [11308,"HCEP03730566","2024-01-24 01:45:00","10.8076","3.37944","26.617","3.546","7.49","0.373","6.104","0.03","0.53","29.9578","4.71889","38.72","0","SATNPRO1509","30.53","0.42768","5"],
    [11309,"HCEP03730566","2024-01-24 02:00:00","10.8085","3.37925","26.843","3.515","7.49","0.328","5.491","0.01","0.55","29.955","4.7185","38.38","0","SATNPRO1509","30.44","0.42638","5"],
    [11310,"HCEP03730566","2024-01-24 02:15:00","10.8088","3.37892","27.098","3.479","7.49","0.342","5.146","0.01","0.3","29.9514","4.718","37.99","0","SATNPRO1509","30.346","0.42504","5"],
    [11311,"HCEP03730566","2024-01-24 02:30:00","10.8078","3.3784","27.277","3.457","7.49","0.308","7.067","0.03","2.34","29.9471","4.71741","37.74","0","SATNPRO1509","30.304","0.42446","5"],
    [11312,"HCEP03730566","2024-01-24 02:45:00","10.8063","3.37789","27.433","3.441","7.48","0.338","15.693","0.01","6.64","29.9432","4.71688","37.57","0","SATNPRO1509","30.312","0.42454","5"],
    [11313,"HCEP03730566","2024-01-24 03:00:00","10.8059","3.37774","27.591","3.43","7.48","0.384","14.851","0.06","5.47","29.9421","4.71674","37.45","0","SATNPRO1509","30.308","0.4245","5"],
    [11314,"HCEP03730566","2024-01-24 03:15:00","10.8066","3.37773","27.826","3.412","7.48","0.329","4.999","0.01","0.14","29.9412","4.71662","37.25","0","SATNPRO1509","30.192","0.4229","5"],
    [11315,"HCEP03730566","2024-01-24 03:30:00","10.8061","3.37745","27.924","3.399","7.48","0.311","5.244","0.01","1.07","29.9389","4.7163","37.11","0","SATNPRO1509","30.21","0.42316","5"],
    [11316,"HCEP03730566","2024-01-24 03:45:00","10.8062","3.37742","28.148","3.385","7.48","0.311","4.676","0.01","0.19","29.9384","4.71624","36.96","0","SATNPRO1509","30.248","0.42366","5"],
    [11317,"HCEP03730566","2024-01-24 04:00:00","10.8056","3.37736","28.218","3.393","7.48","0.356","5.325","0.08","0.8","29.9383","4.71624","37.04","0","SATNPRO1509","30.212","0.42314","5"],
    [11318,"HCEP03730566","2024-01-24 04:15:00","10.8055","3.3774","28.281","3.396","7.48","0.345","4.764","0.01","0.18","29.9388","4.71632","37.08","0","SATNPRO1509","30.204","0.42308","5"],
    [11319,"HCEP03730566","2024-01-24 04:30:00","10.8048","3.37747","28.262","3.41","7.48","1.013","25.64","1.06","32.12","29.94","4.7165","37.22","0","SATNPRO1509","30.284","0.4242","5"],
    [11320,"HCEP03730566","2024-01-24 04:45:00","10.8047","3.37776","28.383","3.428","7.48","0.477","7.226","0.65","5.74","29.9429","4.71692","37.43","0","SATNPRO1509","30.256","0.42378","5"],
    [11321,"HCEP03730566","2024-01-24 05:00:00","10.8037","3.37796","28.426","3.445","7.48","9.054","154.983","0.86","66.65","29.9457","4.71733","37.61","0","SATNPRO1509","30.226","0.42336","5"],
    [11322,"HCEP03730566","2024-01-24 05:15:00","10.8021","3.37815","28.495","3.47","7.48","11","142.541","0.96","31","29.9489","4.71781","37.88","0","SATNPRO1509","30.328","0.42478","5"],
    [11323,"HCEP03730566","2024-01-24 05:30:00","10.8024","3.3783","28.549","3.492","7.48","4.507","77.521","3.93","40.8","29.9501","4.71799","38.13","0","SATNPRO1509","30.422","0.42612","5"],
    [11324,"HCEP03730566","2024-01-24 05:45:00","10.802","3.3784","28.415","3.505","7.48","0.434","7.088","0.02","0.68","29.9515","4.71818","38.27","0","SATNPRO1509","30.37","0.42534","5"],
    [11325,"HCEP03730566","2024-01-24 06:00:00","10.801","3.3785","28.359","3.529","7.48","0.449","7.496","0.05","1.36","29.9532","4.71844","38.53","0","SATNPRO1509","30.43","0.42622","5"],
    [11326,"HCEP03730566","2024-01-24 06:15:00","10.7985","3.37855","28.442","3.58","7.49","0.456","7.652","0.03","1.13","29.9557","4.71884","39.08","0","SATNPRO1509","30.483999999999998","0.42694","5"],
    [11327,"HCEP03730566","2024-01-24 06:30:00","10.7973","3.37968","28.348","3.701","7.49","0.576","16.123","0.06","2.42","29.9678","4.72058","40.41","0","SATNPRO1509","30.514","0.42742","5"],
    [11328,"HCEP03730566","2024-01-24 06:45:00","10.798","3.38008","28.306","3.767","7.5","0.635","14.51","0.05","2.42","29.9713","4.72105","41.13","0","SATNPRO1509","30.62","0.42888","5"],
    [11329,"HCEP03730566","2024-01-24 07:00:00","10.7985","3.38033","28.234","3.79","7.5","0.833","20.487","0.11","2.88","29.9733","4.72133","41.39","0","SATNPRO1509","30.724","0.43032","5"],
    [11330,"HCEP03730566","2024-01-24 07:15:00","10.799","3.38038","28.132","3.797","7.51","0.652","15.314","0.1","2.09","29.9735","4.72134","41.46","0","SATNPRO1509","30.78","0.4311","5"],
    [11331,"HCEP03730566","2024-01-24 07:30:00","10.7993","3.38025","27.951","3.793","7.51","0.628","17.944","0.06","1.9","29.972","4.72111","41.41","0","SATNPRO1509","30.654","0.42936","5"],
    [11332,"HCEP03730566","2024-01-24 07:45:00","10.7994","3.37998","27.796","3.775","7.51","0.74","24.28","0.05","2.49","29.9693","4.72072","41.22","0","SATNPRO1509","30.768","0.43094","5"],
    [11333,"HCEP03730566","2024-01-24 08:00:00","10.7998","3.37982","27.796","3.758","7.51","0.362","5.066","0.03","0.55","29.9674","4.72045","41.03","0","SATNPRO1509","30.806","0.43152","5"],
    [11334,"HCEP03730566","2024-01-24 08:15:00","10.7997","3.37953","27.672","3.75","7.51","0.371","5.139","0.02","0.39","29.9647","4.72006","40.95","0","SATNPRO1509","30.778","0.43106","5"],
    [11335,"HCEP03730566","2024-01-24 08:30:00","10.7989","3.3793","27.599","3.754","7.51","0.443","6.769","0.06","1.23","29.9631","4.71984","40.98","0","SATNPRO1509","30.818","0.43168","5"],
    [11336,"HCEP03730566","2024-01-24 08:45:00","10.7988","3.37964","27.518","3.762","7.51","0.43","6.534","0.05","1.14","29.9666","4.72034","41.08","0","SATNPRO1509","30.806","0.43146","5"],
    [11337,"HCEP03730566","2024-01-24 09:00:00","10.7971","3.37923","27.432","3.783","7.51","0.354","5.443","0.02","0.48","29.964","4.71998","41.3","0","SATNPRO1509","30.822","0.43174","5"],
    [11338,"HCEP03730566","2024-01-24 09:15:00","10.7942","3.37888","27.347","3.833","7.51","0.376","7.204","0.04","1.31","29.963","4.71988","41.84","0","SATNPRO1509","30.876","0.43246","5"],
    [11339,"HCEP03730566","2024-01-24 09:30:00","10.7886","3.37806","27.291","3.945","7.52","0.469","12.669","0.04","1.02","29.9595","4.71946","43.06","0","SATNPRO1509","30.913999999999998","0.433","5"],
    [11340,"HCEP03730566","2024-01-24 09:45:00","10.788","3.37789","27.231","3.93","7.52","0.516","15.775","0.02","0.53","29.9583","4.71931","42.9","0","SATNPRO1509","30.966","0.43372","5"],
    [11341,"HCEP03730566","2024-01-24 10:00:00","10.7794","3.37729","27.178","4.119","7.53","0.524","26.597","0.03","2.64","29.9595","4.7196","44.95","0","SATNPRO1509","31.144000000000002","0.43624","5"],
    [11342,"HCEP03730566","2024-01-24 10:15:00","10.7876","3.3799","27.12","4.235","7.54","0.382","16.165","0.03","2.15","29.9784","4.72216","46.23","0","SATNPRO1509","31.346","0.43902","5"],
    [11343,"HCEP03730566","2024-01-24 10:30:00","10.7914","3.38077","27.099","4.198","7.54","0.343","13.905","0.03","2.82","29.9839","4.72289","45.83","0","SATNPRO1509","31.42","0.44012","5"],
    [11344,"HCEP03730566","2024-01-24 10:45:00","10.7977","3.38216","27.07","4.169","7.54","0.568","29.896","0.08","5.15","29.9924","4.72399","45.52","0","SATNPRO1509","31.432000000000002","0.44024","5"],
    [11345,"HCEP03730566","2024-01-24 11:00:00","10.8016","3.38289","27.099","4.142","7.54","0.675","29.258","0.06","3.37","29.9964","4.72449","45.23","0","SATNPRO1509","31.366","0.43934","5"],
    [11346,"HCEP03730566","2024-01-24 11:15:00","10.8035","3.38326","27.112","4.113","7.54","0.424","17.45","0.03","1.38","29.9985","4.72476","44.92","0","SATNPRO1509","31.284","0.43816","5"],
    [11347,"HCEP03730566","2024-01-24 11:30:00","10.8049","3.38341","27.165","4.101","7.54","0.553","28.225","0.07","4.55","29.9988","4.72479","44.79","0","SATNPRO1509","31.354","0.43922","5"],
    [11348,"HCEP03730566","2024-01-24 11:45:00","10.8044","3.3831","27.212","4.095","7.54","0.327","7.899","0.03","1.92","29.9962","4.72443","44.73","0","SATNPRO1509","31.264","0.43788","5"],
    [11349,"HCEP03730566","2024-01-24 12:00:00","10.8015","3.38241","27.257","4.095","7.54","1.986","82.143","1.25","21.88","29.9917","4.72384","44.72","0","SATNPRO1509","31.28","0.43812","5"],
    [11350,"HCEP03730566","2024-01-24 12:15:00","10.7985","3.38176","27.297","4.097","7.54","0.442","11.065","0.03","2.03","29.9877","4.72333","44.73","0","SATNPRO1509","31.322","0.43872","5"],
    [11351,"HCEP03730566","2024-01-24 12:30:00","10.7967","3.38131","27.401","4.093","7.54","0.421","13.634","0.06","1.58","29.9847","4.72293","44.7","0","SATNPRO1509","31.264","0.43794","5"],
    [11352,"HCEP03730566","2024-01-24 12:45:00","10.7982","3.38143","27.437","4.06","7.53","0.518","17.144","0.17","8.21","29.9847","4.72291","44.33","0","SATNPRO1509","31.136","0.43612","5"],
    [11353,"HCEP03730566","2024-01-24 13:00:00","10.8007","3.38168","27.51","3.929","7.53","0.606","22.244","0.16","6.77","29.9851","4.72292","42.91","0","SATNPRO1509","30.9","0.43278","5"],
    [11354,"HCEP03730566","2024-01-24 13:15:00","10.8029","3.38225","27.537","3.875","7.52","0.434","19.503","0.03","2","29.9889","4.72343","42.31","0","SATNPRO1509","30.951999999999998","0.43354","5"],
    [11355,"HCEP03730566","2024-01-24 13:30:00","10.8035","3.38237","27.616","3.871","7.52","1.656","73.865","1.68","22.33","29.9895","4.72352","42.27","0","SATNPRO1509","30.954","0.43356","5"],
    [11356,"HCEP03730566","2024-01-24 13:45:00","10.8044","3.38257","27.685","3.841","7.52","0.853","22.952","0.13","4.04","29.9908","4.72368","41.95","0","SATNPRO1509","30.952","0.43352","5"],
    [11357,"HCEP03730566","2024-01-24 14:00:00","10.8049","3.3827","27.667","3.832","7.52","0.651","23.791","0.05","3.5","29.9916","4.72379","41.85","0","SATNPRO1509","30.94","0.43338","5"],
    [11358,"HCEP03730566","2024-01-24 14:15:00","10.8052","3.38285","27.686","3.831","7.52","0.476","10.796","0.17","5.34","29.9929","4.72397","41.84","0","SATNPRO1509","30.906","0.43286","5"],
    [11359,"HCEP03730566","2024-01-24 14:30:00","10.8058","3.38295","27.82","3.835","7.52","0.346","8.483","0.06","1.79","29.9932","4.72402","41.88","0","SATNPRO1509","30.951999999999998","0.43354","5"],
    [11360,"HCEP03730566","2024-01-24 14:45:00","10.8064","3.38305","27.887","3.85","7.52","0.3","5.493","0.01","0.33","29.9937","4.72408","42.05","0","SATNPRO1509","30.876","0.43244","5"],
    [11361,"HCEP03730566","2024-01-24 15:00:00","10.8066","3.38311","27.943","3.845","7.52","0.319","4.285","0.01","0.29","29.9941","4.72414","42","0","SATNPRO1509","30.892","0.4327","5"],
    [11362,"HCEP03730566","2024-01-24 15:15:00","10.807","3.38324","27.919","3.817","7.51","0.352","5.909","0.03","5.37","29.9951","4.72427","41.69","0","SATNPRO1509","30.768","0.43096","5"],
    [11363,"HCEP03730566","2024-01-24 15:30:00","10.8072","3.38328","27.942","3.786","7.51","0.338","5.989","0.03","6.54","29.9954","4.72431","41.35","0","SATNPRO1509","30.79","0.43124","5"],
    [11364,"HCEP03730566","2024-01-24 15:45:00","10.807","3.3833","27.931","3.766","7.51","2.066","47.215","2.27","24.07","29.9956","4.72435","41.13","0","SATNPRO1509","30.82","0.43168","5"],
    [11365,"HCEP03730566","2024-01-24 16:00:00","10.8068","3.38325","27.899","3.774","7.51","0.335","4.574","0.02","1.37","29.9954","4.72432","41.22","0","SATNPRO1509","30.818","0.43168","5"],
    [11366,"HCEP03730566","2024-01-24 16:15:00","10.8067","3.38317","27.899","3.762","7.51","0.725","20.226","0.29","13.85","29.9946","4.72421","41.09","0","SATNPRO1509","30.862","0.43226","5"],
    [11367,"HCEP03730566","2024-01-24 16:30:00","10.8062","3.38313","27.823","3.764","7.51","2.552","58.036","1","20.67","29.9946","4.72422","41.11","0","SATNPRO1509","30.858","0.4322","5"],
    [11368,"HCEP03730566","2024-01-24 16:45:00","10.8061","3.38305","27.717","3.772","7.51","1.12","17.033","0.39","6.15","29.994","4.72412","41.2","0","SATNPRO1509","30.918","0.43308","5"],
    [11369,"HCEP03730566","2024-01-24 17:00:00","10.8056","3.38292","27.672","3.776","7.51","3.456","80.609","0.92","27.27","29.9932","4.72401","41.25","0","SATNPRO1509","30.838","0.43194","5"],
    [11370,"HCEP03730566","2024-01-24 17:15:00","10.8056","3.38281","27.582","3.775","7.51","2.67","85.633","1.49","26.45","29.9921","4.72385","41.23","0","SATNPRO1509","30.81","0.43154","5"],
    [11371,"HCEP03730566","2024-01-24 17:30:00","10.8045","3.38263","27.412","3.783","7.51","4.082","64.618","1.58","27.05","29.9913","4.72374","41.32","0","SATNPRO1509","30.87","0.4324","5"],
    [11372,"HCEP03730566","2024-01-24 17:45:00","10.8039","3.38243","27.19","3.798","7.51","3.618","131.127","1.43","37.78","29.9899","4.72354","41.48","0","SATNPRO1509","30.806","0.43146","5"],
    [11373,"HCEP03730566","2024-01-24 18:00:00","10.8198","3.3877","26.835","4.047","7.52","2.347","75.292","1.16","38.32","30.0289","4.72881","44.22","0","SATNPRO1509","31.334","0.4389","5"],
    [11374,"HCEP03730566","2024-01-24 18:15:00","10.8249","3.38904","26.599","4.173","7.53","0.332","4.284","0.01","0.31","30.038","4.73001","45.61","0","SATNPRO1509","31.368000000000002","0.43934","5"],
    [11375,"HCEP03730566","2024-01-24 18:30:00","10.8275","3.38949","26.287","4.186","7.54","3.931","37.625","0.4","2.84","30.0403","4.73029","45.75","0","SATNPRO1509","31.394","0.43972","5"],
    [11376,"HCEP03730566","2024-01-24 18:45:00","10.8275","3.38969","26.079","4.189","7.54","0.494","12.461","0.26","14.4","30.0424","4.73056","45.79","0","SATNPRO1509","31.398","0.43982","5"],
    [11377,"HCEP03730566","2024-01-24 19:00:00","10.8256","3.38918","25.837","4.185","7.54","0.369","5.019","0.06","1.1","30.0391","4.73012","45.74","0","SATNPRO1509","31.384","0.4396","5"],
    [11378,"HCEP03730566","2024-01-24 19:15:00","10.8253","3.38908","25.589","4.175","7.54","0.364","4.352","0.01","0.28","30.0385","4.73002","45.63","0","SATNPRO1509","31.37","0.43942","5"],
    [11379,"HCEP03730566","2024-01-24 19:30:00","10.8272","3.38953","25.367","4.152","7.54","0.385","6.218","0.07","5.39","30.0413","4.73038","45.38","0","SATNPRO1509","31.384","0.4396","5"],
    [11380,"HCEP03730566","2024-01-24 19:45:00","10.8221","3.38828","25.183","4.136","7.54","0.367","4.911","0.01","0.31","30.0333","4.72931","45.2","0","SATNPRO1509","31.382","0.43952","5"],
    [11381,"HCEP03730566","2024-01-24 20:00:00","10.8124","3.38551","24.952","4.119","7.54","0.403","15.606","0.24","28.58","30.0142","4.72674","45","0","SATNPRO1509","31.302","0.43842","5"],
    [11382,"HCEP03730566","2024-01-24 20:15:00","10.798","3.38195","24.729","4.119","7.54","0.362","5.066","0.05","0.31","29.991","4.72366","44.98","0","SATNPRO1509","31.242","0.43758","5"],
    [11383,"HCEP03730566","2024-01-24 20:30:00","10.7935","3.38077","24.528","4.099","7.54","0.384","5.972","0.03","0.41","29.9831","4.72259","44.75","0","SATNPRO1509","31.306","0.43854","5"],
    [11384,"HCEP03730566","2024-01-24 20:45:00","10.7832","3.37808","24.398","4.107","7.54","0.497","6.582","0.07","0.48","29.9652","4.7202","44.82","0","SATNPRO1509","31.316","0.43864","5"],
    [11385,"HCEP03730566","2024-01-24 21:00:00","10.7649","3.37359","24.26","4.146","7.54","0.415","5.426","0.06","0.43","29.9361","4.71634","45.22","0","SATNPRO1509","31.366","0.43932","5"],
    [11386,"HCEP03730566","2024-01-24 21:15:00","10.7639","3.37354","24.129","4.162","7.54","0.503","8.242","0.19","3.75","29.9365","4.7164","45.4","0","SATNPRO1509","31.298000000000002","0.43838","5"],
    [11387,"HCEP03730566","2024-01-24 21:30:00","10.7719","3.37511","24.1","4.098","7.54","0.557","5.847","0.07","0.33","29.9454","4.71754","44.71","0","SATNPRO1509","31.248","0.43766","5"],
    [11388,"HCEP03730566","2024-01-24 21:45:00","10.7733","3.3748","24.137","4.017","7.53","0.368","5.964","0.02","0.41","29.9412","4.71693","43.82","0","SATNPRO1509","31.12","0.43588","5"],
    [11389,"HCEP03730566","2024-01-24 22:00:00","10.7759","3.37476","24.135","3.91","7.53","0.356","6.239","0.01","0.35","29.9387","4.71654","42.66","0","SATNPRO1509","30.992","0.43408","5"],
    [11390,"HCEP03730566","2024-01-24 22:15:00","10.7779","3.37476","24.168","3.819","7.52","0.352","6.104","0.01","0.22","29.937","4.71626","41.67","0","SATNPRO1509","30.898","0.43278","5"],
    [11391,"HCEP03730566","2024-01-24 22:30:00","10.7793","3.37454","24.186","3.727","7.51","0.644","21.847","0.29","16.99","29.9337","4.71578","40.66","0","SATNPRO1509","30.87","0.4324","5"],
    [11392,"HCEP03730566","2024-01-24 22:45:00","10.7796","3.3742","24.206","3.643","7.5","0.354","5.899","0.01","0.44","29.9301","4.71525","39.75","0","SATNPRO1509","30.824","0.43174","5"],
    [11393,"HCEP03730566","2024-01-24 23:00:00","10.7796","3.37403","24.293","3.592","7.5","0.461","6.715","0.07","0.53","29.9284","4.71501","39.19","0","SATNPRO1509","30.822","0.43166","5"],
    [11394,"HCEP03730566","2024-01-24 23:15:00","10.7797","3.37385","24.405","3.558","7.49","0.715","8.502","0.07","0.86","29.9265","4.71475","38.83","0","SATNPRO1509","30.688","0.42982","5"],
    [11395,"NA","2024-03-01 10:00:00",null,null,null,null,null,null,null,null,null,null,null,null,null,"SATNPRO1509","30.536","0.42772","5"],
    [11396,"HCEP03730566","2024-01-24 23:30:00","10.7792","3.3736","24.504","3.529","7.49","0.335","8.657","0.01","2.68","29.9245","4.71448","38.51","0","SATNPRO1509","30.692","0.42992","5"],
    [11397,"HCEP03730566","2024-01-24 23:45:00","10.7789","3.37348","24.667","3.517","7.49","0.353","7.129","0.01","0.81","29.9234","4.71434","38.37","0","SATNPRO1509","30.69","0.4299","5"],
    [11398,"HCEP03730566","2024-01-25 00:00:00","10.7782","3.37324","24.797","3.511","7.49","0.387","6.725","0.02","0.61","29.9216","4.7141","38.3","0","SATNPRO1509","30.666","0.42954","5"],
    [11399,"HCEP03730566","2024-01-25 00:15:00","10.7775","3.37296","24.956","3.493","7.49","0.4","5.552","0.03","0.34","29.9194","4.71381","38.11","0","SATNPRO1509","30.612","0.4288","5"],
    [11400,"HCEP03730566","2024-01-25 00:30:00","10.7763","3.37249","25.127","3.467","7.49","0.361","5.28","0.02","0.16","29.9156","4.71329","37.82","0","SATNPRO1509","30.598","0.42858","5"],
    [11401,"HCEP03730566","2024-01-25 00:45:00","10.7758","3.37223","25.366","3.439","7.48","0.926","15.464","0.38","7.55","29.9134","4.713","37.52","0","SATNPRO1509","30.509999999999998","0.42736","5"],
    [11402,"HCEP03730566","2024-01-25 01:00:00","10.7754","3.37195","25.517","3.413","7.48","0.366","6.179","0.03","0.87","29.9109","4.71266","37.23","0","SATNPRO1509","30.482","0.42696","5"],
    [11403,"HCEP03730566","2024-01-25 01:15:00","10.7752","3.37193","25.756","3.403","7.48","0.575","6.967","0.47","4.26","29.9108","4.71267","37.12","0","SATNPRO1509","30.512","0.42736","5"],
    [11404,"HCEP03730566","2024-01-25 01:30:00","10.7766","3.37234","25.951","3.403","7.48","0.78","37.905","0.53","30.89","29.9136","4.71305","37.13","0","SATNPRO1509","30.476","0.42688","5"],
    [11405,"HCEP03730566","2024-01-25 01:45:00","10.7772","3.37254","26.21","3.414","7.48","0.444","6.722","0.09","2.96","29.9149","4.71325","37.25","0","SATNPRO1509","30.544","0.42786","5"],
    [11406,"HCEP03730566","2024-01-25 02:00:00","10.7773","3.37267","26.395","3.424","7.48","0.609","14.609","0.08","6.02","29.916","4.71341","37.35","0","SATNPRO1509","30.568","0.4282","5"],
    [11407,"HCEP03730566","2024-01-25 02:15:00","10.7768","3.37273","26.625","3.435","7.48","0.413","5.777","0.09","0.86","29.917","4.71357","37.48","0","SATNPRO1509","30.476","0.42688","5"],
    [11408,"HCEP03730566","2024-01-25 02:30:00","10.7768","3.3727","26.818","3.431","7.48","0.344","4.773","0.01","0.12","29.9166","4.71353","37.43","0","SATNPRO1509","30.524","0.42752","5"],
    [11409,"HCEP03730566","2024-01-25 02:45:00","10.7762","3.37255","27.139","3.421","7.48","0.363","4.744","0.01","0.25","29.9155","4.7134","37.32","0","SATNPRO1509","30.506","0.42726","5"],
    [11410,"HCEP03730566","2024-01-25 03:00:00","10.7743","3.37231","27.331","3.433","7.48","0.349","4.525","0.01","0.22","29.9146","4.71331","37.45","0","SATNPRO1509","30.446","0.42642","5"],
    [11411,"HCEP03730566","2024-01-25 03:15:00","10.7737","3.37217","27.376","3.424","7.48","0.356","4.757","0.01","0.15","29.9137","4.7132","37.35","0","SATNPRO1509","30.482","0.427","5"],
    [11412,"HCEP03730566","2024-01-25 03:30:00","10.7702","3.37178","27.647","3.461","7.48","0.458","5.509","0.05","0.48","29.9126","4.71311","37.75","0","SATNPRO1509","30.36","0.42522","5"],
    [11413,"HCEP03730566","2024-01-25 03:45:00","10.7649","3.37019","27.784","3.491","7.48","0.581","6.557","0.08","1.12","29.9012","4.71158","38.07","0","SATNPRO1509","30.494","0.42708","5"],
    [11414,"HCEP03730566","2024-01-25 04:00:00","10.7664","3.37082","27.871","3.493","7.49","0.997","9.066","0.28","2.96","29.9062","4.71227","38.09","0","SATNPRO1509","30.46","0.42668","5"],
    [11415,"HCEP03730566","2024-01-25 04:15:00","10.6899","3.35653","28.074","3.812","7.5","0.923","6.439","0.3","2.18","29.8279","4.70235","41.49","0","SATNPRO1509","30.856","0.4322","5"],
    [11416,"HCEP03730566","2024-01-25 04:30:00","10.7577","3.3704","28.196","3.73","7.5","0.475","6.893","0.14","1.05","29.909","4.71283","40.67","0","SATNPRO1509","30.342000000000002","0.42502","5"],
    [11417,"HCEP03730566","2024-01-25 04:45:00","10.7748","3.3724","28.323","3.401","7.49","0.493","6.909","0.06","0.91","29.9146","4.71337","37.11","0","SATNPRO1509","30.346","0.42502","5"],
    [11418,"HCEP03730566","2024-01-25 05:00:00","10.7753","3.37241","28.322","3.379","7.48","0.517","7.081","0.04","0.81","29.9143","4.71331","36.86","0","SATNPRO1509","30.36","0.42524","5"],
    [11419,"HCEP03730566","2024-01-25 05:15:00","10.7756","3.37259","28.355","3.389","7.48","0.411","8.331","0.03","1.16","29.9159","4.71353","36.97","0","SATNPRO1509","30.41","0.42594","5"],
    [11420,"HCEP03730566","2024-01-25 05:30:00","10.7756","3.37259","28.274","3.398","7.48","0.536","7.975","0.05","0.75","29.916","4.71354","37.07","0","SATNPRO1509","30.388","0.42562","5"],
    [11421,"HCEP03730566","2024-01-25 05:45:00","10.7716","3.37201","28.346","3.422","7.48","0.787","10.589","0.26","2.65","29.9135","4.71325","37.33","0","SATNPRO1509","30.458","0.4266","5"],
    [11422,"HCEP03730566","2024-01-25 06:00:00","10.7676","3.37162","28.315","3.467","7.48","0.538","8.527","0.16","2.12","29.9129","4.71323","37.82","0","SATNPRO1509","30.424","0.42612","5"],
    [11423,"HCEP03730566","2024-01-25 06:15:00","10.7579","3.37022","28.294","3.563","7.48","0.756","13.992","0.36","3.78","29.9071","4.71255","38.86","0","SATNPRO1509","30.63","0.42902","5"],
    [11424,"HCEP03730566","2024-01-25 06:30:00","10.7404","3.36717","28.253","3.674","7.49","0.483","10.691","0.13","3.19","29.8914","4.7106","40.05","0","SATNPRO1509","30.718","0.43026","5"],
    [11425,"HCEP03730566","2024-01-25 06:45:00","10.7263","3.3651","28.226","3.802","7.5","0.598","11.546","0.16","2.74","29.8825","4.70955","41.43","0","SATNPRO1509","30.86","0.43228","5"],
    [11426,"HCEP03730566","2024-01-25 07:00:00","10.7297","3.36604","28.082","3.845","7.51","0.441","9.755","0.07","4.29","29.8891","4.71042","41.9","0","SATNPRO1509","30.814","0.4316","5"],
    [11427,"HCEP03730566","2024-01-25 07:15:00","10.7448","3.369","28.116","3.808","7.51","0.516","12.872","0.15","11.42","29.9058","4.71257","41.51","0","SATNPRO1509","30.84","0.43198","5"],
    [11428,"HCEP03730566","2024-01-25 07:30:00","10.7603","3.37146","28.047","3.748","7.51","0.457","9.876","0.05","1.45","29.9174","4.71397","40.88","0","SATNPRO1509","30.762","0.43086","5"],
    [11429,"HCEP03730566","2024-01-25 07:45:00","10.7638","3.37182","28.005","3.689","7.5","0.569","17.795","0.15","12.35","29.9181","4.71401","40.23","0","SATNPRO1509","30.85","0.4321","5"],
    [11430,"HCEP03730566","2024-01-25 08:00:00","10.7633","3.37172","27.928","3.673","7.5","0.342","4.66","0.01","0.62","29.9176","4.71395","40.06","0","SATNPRO1509","30.784000000000002","0.4312","5"],
    [11431,"HCEP03730566","2024-01-25 08:15:00","10.7621","3.37148","27.865","3.678","7.5","2.451","29.815","0.53","9.01","29.9162","4.71377","40.12","0","SATNPRO1509","30.758","0.4308","5"],
    [11432,"HCEP03730566","2024-01-25 08:30:00","10.7596","3.37103","27.842","3.689","7.5","0.435","8.123","0.07","1.97","29.9138","4.71346","40.23","0","SATNPRO1509","30.842","0.43204","5"],
    [11433,"HCEP03730566","2024-01-25 08:45:00","10.7572","3.37081","27.72","3.697","7.5","1.004","11.093","0.26","4.07","29.9137","4.71347","40.32","0","SATNPRO1509","30.83","0.4318","5"],
    [11434,"HCEP03730566","2024-01-25 09:00:00","10.7566","3.37058","27.627","3.698","7.5","0.541","24.853","0.28","24.64","29.912","4.71324","40.33","0","SATNPRO1509","30.832","0.43186","5"],
    [11435,"HCEP03730566","2024-01-25 09:15:00","10.755","3.37025","27.612","3.688","7.5","0.388","6.131","0.02","1.14","29.91","4.71298","40.21","0","SATNPRO1509","30.894000000000002","0.4327","5"],
    [11436,"HCEP03730566","2024-01-25 09:30:00","10.752","3.36998","27.429","3.684","7.5","0.35","5.801","0.02","0.65","29.9099","4.713","40.17","0","SATNPRO1509","30.77","0.43098","5"],
    [11437,"HCEP03730566","2024-01-25 09:45:00","10.7481","3.36956","27.355","3.654","7.5","0.545","7.603","0.23","2.09","29.9089","4.71292","39.84","0","SATNPRO1509","30.732","0.43044","5"],
    [11438,"HCEP03730566","2024-01-25 10:00:00","10.7471","3.36894","27.212","3.62","7.5","0.436","9.897","0.14","9.94","29.9037","4.71218","39.46","0","SATNPRO1509","30.65","0.42928","5"],
    [11439,"HCEP03730566","2024-01-25 10:15:00","10.7437","3.36756","27.2","3.592","7.49","0.359","4.162","0.01","0.19","29.8929","4.7107","39.15","0","SATNPRO1509","30.78","0.4311","5"],
    [11440,"HCEP03730566","2024-01-25 10:30:00","10.7427","3.3671","27.105","3.601","7.49","0.346","4.037","0.01","0.13","29.8892","4.71019","39.25","0","SATNPRO1509","30.830000000000002","0.43176","5"],
    [11441,"HCEP03730566","2024-01-25 10:45:00","10.7425","3.36709","27.091","3.611","7.49","0.373","4.299","0.02","0.24","29.8894","4.71021","39.36","0","SATNPRO1509","30.758","0.43082","5"],
    [11442,"HCEP03730566","2024-01-25 11:00:00","10.7408","3.36677","27.036","3.642","7.49","0.359","4.599","0.01","0.28","29.8876","4.70999","39.69","0","SATNPRO1509","30.814","0.43162","5"],
    [11443,"HCEP03730566","2024-01-25 11:15:00","10.7384","3.36658","27.067","3.691","7.5","0.381","4.93","0.02","1.02","29.8877","4.71004","40.23","0","SATNPRO1509","30.89","0.43268","5"],
    [11444,"HCEP03730566","2024-01-25 11:30:00","10.7352","3.36625","27.06","3.777","7.5","0.348","3.735","0.01","0.18","29.8871","4.70999","41.16","0","SATNPRO1509","31.028","0.43462","5"],
    [11445,"HCEP03730566","2024-01-25 11:45:00","10.7338","3.3662","27.005","3.862","7.51","0.365","3.892","0.01","0.23","29.8877","4.71011","42.09","0","SATNPRO1509","30.944","0.43342","5"],
    [11446,"HCEP03730566","2024-01-25 12:00:00","10.7322","3.36595","27.056","3.891","7.51","0.348","3.519","0.01","0.14","29.8865","4.70997","42.4","0","SATNPRO1509","31.148","0.43624","5"],
    [11447,"HCEP03730566","2024-01-25 12:15:00","10.7324","3.36601","27.106","3.896","7.51","0.378","4.029","0.02","0.72","29.887","4.71003","42.46","0","SATNPRO1509","31.012","0.43436","5"],
    [11448,"HCEP03730566","2024-01-25 12:30:00","10.7328","3.36622","27.121","3.877","7.51","0.356","4.431","0.02","0.18","29.8887","4.71027","42.24","0","SATNPRO1509","31.016","0.43444","5"],
    [11449,"HCEP03730566","2024-01-25 12:45:00","10.7401","3.36779","27.178","3.793","7.51","0.375","4.464","0.02","0.38","29.8982","4.7115","41.34","0","SATNPRO1509","30.866","0.43234","5"],
    [11450,"HCEP03730566","2024-01-25 13:00:00","10.7591","3.37269","27.28","3.715","7.51","0.357","5.231","0.01","0.35","29.9309","4.71586","40.52","0","SATNPRO1509","30.823999999999998","0.43174","5"],
    [11451,"HCEP03730566","2024-01-25 13:15:00","10.7614","3.37332","27.372","3.7","7.5","0.436","7.17","0.06","1.53","29.9351","4.71643","40.36","0","SATNPRO1509","30.977999999999998","0.43386","5"],
    [11452,"HCEP03730566","2024-01-25 13:30:00","10.7675","3.37468","27.395","3.758","7.5","0.435","6.821","0.04","0.67","29.9435","4.71752","41","0","SATNPRO1509","31.026","0.43456","5"],
    [11453,"HCEP03730566","2024-01-25 13:45:00","10.7707","3.3755","27.462","3.786","7.51","0.418","6.593","0.03","1.48","29.9489","4.71825","41.31","0","SATNPRO1509","31.074","0.43526","5"],
    [11454,"HCEP03730566","2024-01-25 14:00:00","10.773","3.37584","27.604","3.807","7.51","0.381","4.427","0.01","0.49","29.9503","4.71842","41.54","0","SATNPRO1509","30.988","0.43402","5"],
    [11455,"HCEP03730566","2024-01-25 14:15:00","10.7735","3.37578","27.579","3.817","7.51","0.386","4.431","0.02","0.96","29.9492","4.71826","41.65","0","SATNPRO1509","31.068","0.43516","5"],
    [11456,"HCEP03730566","2024-01-25 14:30:00","10.7743","3.37589","27.693","3.818","7.51","0.37","4.413","0.02","0.4","29.9497","4.71832","41.66","0","SATNPRO1509","31.164","0.4365","5"],
    [11457,"HCEP03730566","2024-01-25 14:45:00","10.7742","3.37584","27.71","3.818","7.51","0.385","3.781","0.02","0.37","29.9493","4.71827","41.66","0","SATNPRO1509","31.184","0.4368","5"],
    [11458,"HCEP03730566","2024-01-25 15:00:00","10.7748","3.37584","27.801","3.813","7.51","0.355","4.689","0.01","0.79","29.9487","4.71818","41.61","0","SATNPRO1509","31.146","0.43626","5"],
    [11459,"HCEP03730566","2024-01-25 15:15:00","10.7741","3.37581","27.83","3.804","7.51","0.36","3.99","0.02","0.7","29.9489","4.71822","41.5","0","SATNPRO1509","31.088","0.43542","5"],
    [11460,"HCEP03730566","2024-01-25 15:30:00","10.7746","3.37586","27.856","3.8","7.51","0.387","5.207","0.03","0.49","29.9491","4.71824","41.46","0","SATNPRO1509","31.148","0.43626","5"],
    [11461,"HCEP03730566","2024-01-25 15:45:00","10.7758","3.37608","27.877","3.806","7.51","0.415","7.408","0.23","8.71","29.9503","4.71839","41.53","0","SATNPRO1509","31.15","0.43628","5"],
    [11462,"HCEP03730566","2024-01-25 16:00:00","10.7767","3.37617","27.869","3.807","7.51","0.472","6.496","0.4","3.21","29.9504","4.71839","41.55","0","SATNPRO1509","31.186","0.43682","5"],
    [11463,"HCEP03730566","2024-01-25 16:15:00","10.7767","3.37637","27.902","3.816","7.51","0.393","7.363","0.1","8.1","29.9524","4.71868","41.64","0","SATNPRO1509","31.176","0.43666","5"],
    [11464,"HCEP03730566","2024-01-25 16:30:00","10.7769","3.37647","27.871","3.821","7.51","0.34","3.276","0.02","0.1","29.9531","4.71877","41.7","0","SATNPRO1509","31.194","0.43692","5"],
    [11465,"HCEP03730566","2024-01-25 16:45:00","10.777","3.37619","27.826","3.817","7.51","0.346","3.172","0.01","0.16","29.9504","4.71838","41.65","0","SATNPRO1509","31.124000000000002","0.43594","5"],
    [11466,"HCEP03730566","2024-01-25 17:00:00","10.7768","3.37617","27.773","3.817","7.51","0.338","3.504","0.03","0.21","29.9503","4.71838","41.65","0","SATNPRO1509","31.201999999999998","0.43704","5"],
    [11467,"HCEP03730566","2024-01-25 17:15:00","10.7756","3.37603","27.657","3.803","7.51","0.745","8.34","0.65","6.19","29.95","4.71835","41.49","0","SATNPRO1509","31.178","0.43668","5"],
    [11468,"HCEP03730566","2024-01-25 17:30:00","10.7754","3.37593","27.542","3.791","7.51","0.359","5.618","0.04","2.01","29.9492","4.71823","41.36","0","SATNPRO1509","31.188","0.43684","5"],
    [11469,"HCEP03730566","2024-01-25 17:45:00","10.7757","3.37578","27.449","3.778","7.51","0.348","3.688","0.01","0.28","29.9475","4.71797","41.23","0","SATNPRO1509","31.226","0.43736","5"],
    [11470,"HCEP03730566","2024-01-25 18:00:00","10.7751","3.37553","27.328","3.77","7.51","0.34","3.535","0.02","0.19","29.9456","4.71771","41.14","0","SATNPRO1509","31.258","0.43782","5"],
    [11471,"NA","2024-03-01 10:15:00",null,null,null,null,null,null,null,null,null,null,null,null,null,"SATNPRO1509","30.514","0.4274","5"],
    [11472,"HCEP03730566","2024-01-25 18:15:00","10.7726","3.37521","27.169","3.761","7.51","0.343","3.439","0.01","0.14","29.9445","4.71758","41.04","0","SATNPRO1509","31.105999999999998","0.4357","5"],
    [11473,"HCEP03730566","2024-01-25 18:30:00","10.7719","3.37491","27.026","3.719","7.51","0.347","4.073","0.03","0.15","29.9423","4.71727","40.58","0","SATNPRO1509","31.04","0.4348","5"],
    [11474,"HCEP03730566","2024-01-25 18:45:00","10.7693","3.37422","26.81","3.701","7.5","0.356","4.175","0.02","0.17","29.9376","4.71663","40.37","0","SATNPRO1509","30.842","0.432","5"],
    [11475,"HCEP03730566","2024-01-25 19:00:00","10.7649","3.37302","26.677","3.672","7.5","0.446","9.298","0.04","1.32","29.9295","4.71554","40.05","0","SATNPRO1509","30.688","0.42978","5"],
    [11476,"HCEP03730566","2024-01-25 19:15:00","10.7636","3.37225","26.542","3.69","7.5","0.423","6.648","0.03","0.52","29.9231","4.71464","40.25","0","SATNPRO1509","30.86","0.43226","5"],
    [11477,"HCEP03730566","2024-01-25 19:30:00","10.7655","3.37272","26.382","3.758","7.5","0.356","5.205","0.01","0.24","29.9262","4.71505","40.99","0","SATNPRO1509","30.934","0.43334","5"],
    [11478,"HCEP03730566","2024-01-25 19:45:00","10.7657","3.37288","26.246","3.799","7.51","0.366","5.281","0.01","0.49","29.9278","4.71526","41.44","0","SATNPRO1509","31.02","0.43448","5"],
    [11479,"HCEP03730566","2024-01-25 20:00:00","10.7635","3.37266","26.083","3.845","7.51","0.487","9.341","0.15","5.58","29.9274","4.71522","41.94","0","SATNPRO1509","31.072","0.43522","5"],
    [11480,"HCEP03730566","2024-01-25 20:15:00","10.7613","3.37235","25.881","3.862","7.51","0.354","4.405","0.01","0.25","29.9262","4.71509","42.13","0","SATNPRO1509","31.07","0.4352","5"],
    [11481,"HCEP03730566","2024-01-25 20:30:00","10.7611","3.37227","25.67","3.861","7.51","0.372","4.737","0.02","0.53","29.9256","4.71499","42.11","0","SATNPRO1509","31.116","0.43584","5"],
    [11482,"HCEP03730566","2024-01-25 20:45:00","10.7546","3.37086","25.417","3.862","7.51","0.359","4.273","0.01","0.19","29.9172","4.71388","42.11","0","SATNPRO1509","31.224","0.43734","5"],
    [11483,"HCEP03730566","2024-01-25 21:00:00","10.7516","3.37025","25.146","3.869","7.51","0.467","5.593","0.08","0.68","29.9137","4.71342","42.18","0","SATNPRO1509","31.21","0.43714","5"],
    [11484,"HCEP03730566","2024-01-25 21:15:00","10.7487","3.36981","24.891","3.866","7.51","0.403","4.865","0.02","0.24","29.9119","4.71319","42.15","0","SATNPRO1509","31.222","0.43732","5"],
    [11485,"HCEP03730566","2024-01-25 21:30:00","10.7475","3.36923","24.709","3.848","7.51","0.531","12.962","0.42","12.34","29.9073","4.71254","41.95","0","SATNPRO1509","31.054","0.43496","5"],
    [11486,"HCEP03730566","2024-01-25 21:45:00","10.7473","3.36898","24.563","3.827","7.51","0.397","5.146","0.02","0.41","29.905","4.71221","41.72","0","SATNPRO1509","31.108","0.43568","5"],
    [11487,"HCEP03730566","2024-01-25 22:00:00","10.7464","3.36873","24.443","3.804","7.51","0.545","10.967","0.3","13.37","29.9034","4.71199","41.47","0","SATNPRO1509","31.131999999999998","0.43608","5"],
    [11488,"HCEP03730566","2024-01-25 22:15:00","10.7462","3.36889","24.387","3.805","7.51","0.373","4.864","0.01","0.25","29.9051","4.71223","41.48","0","SATNPRO1509","30.982","0.43396","5"],
    [11489,"HCEP03730566","2024-01-25 22:30:00","10.7453","3.36867","24.321","3.804","7.51","0.359","4.985","0.01","0.28","29.9037","4.71204","41.46","0","SATNPRO1509","31.096","0.43556","5"],
    [11490,"HCEP03730566","2024-01-25 22:45:00","10.7438","3.36815","24.338","3.787","7.51","0.373","5.754","0.03","3.43","29.8998","4.71151","41.28","0","SATNPRO1509","30.92","0.43308","5"],
    [11491,"HCEP03730566","2024-01-25 23:00:00","10.7441","3.36818","24.369","3.767","7.51","0.355","4.995","0.02","0.55","29.8998","4.71152","41.06","0","SATNPRO1509","30.872","0.43238","5"],
    [11492,"HCEP03730566","2024-01-25 23:15:00","10.7431","3.36783","24.454","3.744","7.51","0.389","5.429","0.02","0.36","29.8972","4.71116","40.82","0","SATNPRO1509","30.887999999999998","0.43262","5"],
    [11493,"HCEP03730566","2024-01-25 23:30:00","10.7419","3.36744","24.513","3.715","7.5","0.369","5.247","0.03","0.33","29.8943","4.71078","40.5","0","SATNPRO1509","30.906","0.4329","5"],
    [11494,"HCEP03730566","2024-01-25 23:45:00","10.7406","3.3671","24.597","3.694","7.5","0.387","4.761","0.04","0.51","29.8919","4.71046","40.26","0","SATNPRO1509","30.856","0.4322","5"],
    [11495,"HCEP03730566","2024-01-26 00:00:00","10.7409","3.36705","24.72","3.674","7.5","0.363","4.787","0.02","0.21","29.8912","4.71036","40.04","0","SATNPRO1509","30.712","0.43018","5"],
    [11496,"HCEP03730566","2024-01-26 00:15:00","10.7411","3.367","24.817","3.654","7.5","0.381","4.845","0.01","0.23","29.8905","4.71026","39.83","0","SATNPRO1509","30.678","0.42966","5"],
    [11497,"HCEP03730566","2024-01-26 00:30:00","10.7416","3.36693","25.012","3.622","7.5","2.618","66.943","2.09","39.48","29.8893","4.7101","39.48","0","SATNPRO1509","30.648","0.42926","5"],
    [11498,"HCEP03730566","2024-01-26 00:45:00","10.7421","3.36676","25.179","3.575","7.49","0.508","11.29","0.22","11.94","29.8872","4.7098","38.97","0","SATNPRO1509","30.674","0.42968","5"],
    [11499,"HCEP03730566","2024-01-26 01:00:00","10.7432","3.36684","25.312","3.515","7.49","3.219","67.073","2.02","35.4","29.887","4.70977","38.32","0","SATNPRO1509","30.592","0.42848","5"],
    [11500,"HCEP03730566","2024-01-26 01:15:00","10.7449","3.36689","25.492","3.454","7.49","0.587","8.773","0.1","1.3","29.886","4.7096","37.65","0","SATNPRO1509","30.44","0.42642","5"],
    [11501,"HCEP03730566","2024-01-26 01:30:00","10.7458","3.36691","25.662","3.409","7.48","0.355","5.173","0.01","0.17","29.8854","4.70951","37.16","0","SATNPRO1509","30.456","0.42656","5"],
    [11502,"HCEP03730566","2024-01-26 01:45:00","10.7454","3.36671","25.773","3.39","7.48","0.391","5.394","0.03","0.58","29.8838","4.70929","36.95","0","SATNPRO1509","30.456","0.42658","5"],
    [11503,"HCEP03730566","2024-01-26 02:00:00","10.7447","3.36648","25.959","3.372","7.48","0.362","5.012","0.01","0.2","29.882","4.70906","36.76","0","SATNPRO1509","30.426000000000002","0.42616","5"],
    [11504,"HCEP03730566","2024-01-26 02:15:00","10.743","3.36612","26.219","3.379","7.48","0.379","5.125","0.02","0.36","29.8798","4.70879","36.83","0","SATNPRO1509","30.452","0.42652","5"],
    [11505,"HCEP03730566","2024-01-26 02:30:00","10.7402","3.3657","26.428","3.372","7.48","0.361","4.857","0.02","0.29","29.8778","4.70857","36.75","0","SATNPRO1509","30.412","0.42594","5"],
    [11506,"HCEP03730566","2024-01-26 02:45:00","10.7362","3.3647","26.674","3.377","7.48","0.385","5.177","0.02","0.33","29.8712","4.7077","36.8","0","SATNPRO1509","30.47","0.4268","5"],
    [11507,"HCEP03730566","2024-01-26 03:00:00","10.7191","3.36151","26.861","3.419","7.48","0.349","4.414","0.01","0.16","29.8536","4.70548","37.24","0","SATNPRO1509","30.58","0.42834","5"],
    [11508,"HCEP03730566","2024-01-26 03:15:00","10.7135","3.36024","27.058","3.433","7.48","0.371","4.606","0.01","0.15","29.8456","4.70444","37.39","0","SATNPRO1509","30.466","0.42678","5"],
    [11509,"HCEP03730566","2024-01-26 03:30:00","10.7019","3.35827","27.265","3.418","7.48","0.47","5.697","0.03","0.34","29.8356","4.70321","37.21","0","SATNPRO1509","30.426","0.42614","5"],
    [11510,"HCEP03730566","2024-01-26 03:45:00","10.6991","3.35767","27.518","3.411","7.48","0.376","4.696","0.01","0.12","29.8319","4.70274","37.13","0","SATNPRO1509","30.352","0.42518","5"],
    [11511,"HCEP03730566","2024-01-26 04:00:00","10.7124","3.35989","27.698","3.386","7.48","0.371","7.191","0.02","11.44","29.8428","4.70409","36.87","0","SATNPRO1509","30.362000000000002","0.42526","5"],
    [11512,"HCEP03730566","2024-01-26 04:15:00","10.7171","3.36033","27.841","3.343","7.47","0.574","13.762","0.05","3.6","29.8432","4.70409","36.41","0","SATNPRO1509","30.282","0.42412","5"],
    [11513,"HCEP03730566","2024-01-26 04:30:00","10.7123","3.35894","27.98","3.293","7.47","0.721","13.487","0.07","3.32","29.8334","4.70277","35.86","0","SATNPRO1509","30.310000000000002","0.42458","5"],
    [11514,"HCEP03730566","2024-01-26 04:45:00","10.7131","3.35935","28.121","3.266","7.47","0.633","12.457","0.17","5.15","29.8368","4.70325","35.56","0","SATNPRO1509","30.254","0.42378","5"],
    [11515,"HCEP03730566","2024-01-26 05:00:00","10.7157","3.36016","28.307","3.298","7.47","0.356","4.892","0.02","0.17","29.8425","4.70404","35.91","0","SATNPRO1509","30.338","0.42494","5"],
    [11516,"HCEP03730566","2024-01-26 05:15:00","10.7061","3.35861","28.41","3.344","7.47","0.418","5.368","0.03","0.24","29.8351","4.70313","36.4","0","SATNPRO1509","30.204","0.42304","5"],
    [11517,"HCEP03730566","2024-01-26 05:30:00","10.7184","3.3616","28.45","3.357","7.47","0.401","5.758","0.06","0.67","29.8544","4.7057","36.56","0","SATNPRO1509","30.308","0.4245","5"],
    [11518,"HCEP03730566","2024-01-26 05:45:00","10.6794","3.35247","28.417","3.467","7.47","1.623","21.701","1.17","13.69","29.7963","4.69804","37.71","0","SATNPRO1509","30.288","0.42422","5"],
    [11519,"HCEP03730566","2024-01-26 06:00:00","10.4578","3.30567","28.383","3.899","7.49","0.462","7.485","0.02","0.31","29.5146","4.66142","42.14","0","SATNPRO1509","30.548000000000002","0.42788","5"],
    [11520,"HCEP03730566","2024-01-26 06:15:00","10.489","3.31579","28.424","3.956","7.5","0.493","6.572","0.03","0.39","29.5893","4.67157","42.8","0","SATNPRO1509","30.622","0.4289","5"],
    [11521,"HCEP03730566","2024-01-26 06:30:00","10.5093","3.32009","28.418","3.913","7.5","0.429","6.455","0.01","0.26","29.6153","4.67496","42.36","0","SATNPRO1509","30.79","0.43132","5"],
    [11522,"HCEP03730566","2024-01-26 06:45:00","10.5338","3.3259","28.399","3.868","7.5","0.453","6.19","0.02","0.82","29.6529","4.67992","41.9","0","SATNPRO1509","30.758","0.43086","5"],
    [11523,"HCEP03730566","2024-01-26 07:00:00","10.5711","3.33333","28.322","3.784","7.5","0.667","30.269","0.21","25.59","29.6958","4.68545","41.03","0","SATNPRO1509","30.696","0.42998","5"],
    [11524,"HCEP03730566","2024-01-26 07:15:00","10.5968","3.33804","28.225","3.695","7.5","2.352","45.424","0.97","14.07","29.7214","4.68867","40.1","0","SATNPRO1509","30.708000000000002","0.43008","5"],
    [11525,"HCEP03730566","2024-01-26 07:30:00","10.6029","3.33967","28.224","3.681","7.5","0.544","26.17","0.21","15.95","29.7326","4.69016","39.96","0","SATNPRO1509","30.662","0.42948","5"],
    [11526,"HCEP03730566","2024-01-26 07:45:00","10.6065","3.34002","28.095","3.701","7.5","0.39","12.874","0.02","1.83","29.7331","4.69018","40.18","0","SATNPRO1509","30.946","0.43346","5"],
    [11527,"HCEP03730566","2024-01-26 08:00:00","10.6117","3.34077","28.131","3.734","7.5","0.401","4.483","0.03","0.18","29.7364","4.69056","40.54","0","SATNPRO1509","30.868","0.43236","5"],
    [11528,"HCEP03730566","2024-01-26 08:15:00","10.6128","3.3409","28.048","3.754","7.5","0.779","14.408","1.11","30.69","29.7367","4.69059","40.76","0","SATNPRO1509","30.89","0.4327","5"],
    [11529,"HCEP03730566","2024-01-26 08:30:00","10.6161","3.34164","27.956","3.771","7.5","0.374","3.723","0.01","0.23","29.7414","4.69119","40.95","0","SATNPRO1509","30.887999999999998","0.43264","5"],
    [11530,"HCEP03730566","2024-01-26 08:45:00","10.6239","3.34336","27.878","3.785","7.5","1.669","32.392","2.03","35.96","29.752","4.69258","41.12","0","SATNPRO1509","31.022","0.43452","5"],
    [11531,"HCEP03730566","2024-01-26 09:00:00","10.6262","3.34367","27.815","3.772","7.5","0.627","11.477","0.63","12.31","29.7532","4.69271","40.97","0","SATNPRO1509","31.032","0.43468","5"],
    [11532,"HCEP03730566","2024-01-26 09:15:00","10.6357","3.34567","27.691","3.776","7.5","0.524","11.841","0.18","13.17","29.7652","4.69426","41.03","0","SATNPRO1509","31.044","0.43482","5"],
    [11533,"HCEP03730566","2024-01-26 09:30:00","10.6403","3.34669","27.654","3.767","7.5","0.369","3.537","0.01","0.11","29.7716","4.6951","40.94","0","SATNPRO1509","31.038","0.43474","5"],
    [11534,"HCEP03730566","2024-01-26 09:45:00","10.6411","3.34689","27.51","3.741","7.5","0.392","4.287","0.01","0.28","29.7729","4.69526","40.66","0","SATNPRO1509","31.006","0.43428","5"],
    [11535,"HCEP03730566","2024-01-26 10:00:00","10.6262","3.34345","27.461","3.797","7.5","1.181","35.431","0.87","19.53","29.7512","4.69241","41.24","0","SATNPRO1509","31.026","0.4346","5"],
    [11536,"HCEP03730566","2024-01-26 10:15:00","10.6588","3.35095","27.328","3.733","7.5","0.41","4.406","0.06","0.34","29.7987","4.69864","40.59","0","SATNPRO1509","31.002","0.43422","5"],
    [11537,"HCEP03730566","2024-01-26 10:30:00","10.6652","3.35215","27.167","3.731","7.5","0.698","12.502","0.48","11.84","29.8053","4.69947","40.57","0","SATNPRO1509","30.996","0.43416","5"],
    [11538,"HCEP03730566","2024-01-26 10:45:00","10.6727","3.35382","27.109","3.714","7.5","0.412","6.262","0.03","2.36","29.8157","4.70083","40.4","0","SATNPRO1509","31.028","0.4346","5"],
    [11539,"HCEP03730566","2024-01-26 11:00:00","10.6803","3.35528","27.039","3.71","7.5","0.395","5.088","0.05","0.36","29.8239","4.70187","40.37","0","SATNPRO1509","31.1","0.43558","5"],
    [11540,"HCEP03730566","2024-01-26 11:15:00","10.6907","3.3574","27","3.71","7.5","0.398","4.615","0.03","0.2","29.8363","4.70346","40.38","0","SATNPRO1509","31.06","0.43502","5"],
    [11541,"HCEP03730566","2024-01-26 11:30:00","10.6983","3.35895","26.902","3.702","7.5","2.43","162.666","1.55","78.02","29.8454","4.70464","40.3","0","SATNPRO1509","31.092000000000002","0.43546","5"],
    [11542,"HCEP03730566","2024-01-26 11:45:00","10.7074","3.36088","26.902","3.697","7.5","0.392","5.419","0.01","0.24","29.8569","4.70614","40.25","0","SATNPRO1509","31.028","0.43462","5"],
    [11543,"HCEP03730566","2024-01-26 12:00:00","10.73","3.36628","26.88","3.764","7.5","0.374","4.942","0.01","0.23","29.8916","4.71072","41.01","0","SATNPRO1509","31.318","0.4387","5"],
    [11544,"HCEP03730566","2024-01-26 12:15:00","10.7419","3.36953","26.863","3.835","7.5","0.366","4.45","0.02","0.32","29.914","4.7137","41.8","0","SATNPRO1509","31.496","0.44116","5"],
    [11545,"HCEP03730566","2024-01-26 12:30:00","10.7554","3.37292","26.906","3.895","7.51","0.351","4.266","0.02","0.23","29.9362","4.71665","42.48","0","SATNPRO1509","31.61","0.44274","5"],
    [11546,"HCEP03730566","2024-01-26 12:45:00","10.7635","3.37481","26.984","3.901","7.51","0.364","4.313","0.02","0.19","29.9482","4.71824","42.55","0","SATNPRO1509","31.54","0.4418","5"],
    [11547,"HCEP03730566","2024-01-26 13:00:00","10.772","3.37687","27.016","3.91","7.52","0.346","3.988","0.01","0.15","29.9615","4.71999","42.67","0","SATNPRO1509","31.704","0.44406","5"],
    [11548,"HCEP03730566","2024-01-26 13:15:00","10.7712","3.37658","27.088","3.907","7.52","0.355","4.027","0.01","0.27","29.9592","4.71968","42.63","0","SATNPRO1509","31.698","0.44398","5"],
    [11549,"HCEP03730566","2024-01-26 13:30:00","10.7773","3.37812","27.159","3.914","7.52","0.35","3.758","0.01","0.16","29.9694","4.72104","42.71","0","SATNPRO1509","31.734","0.44452","5"],
    [11550,"HCEP03730566","2024-01-26 13:45:00","10.7787","3.37837","27.284","3.925","7.52","0.361","3.388","0.01","0.16","29.9707","4.72121","42.84","0","SATNPRO1509","31.706","0.4441","5"],
    [11551,"HCEP03730566","2024-01-26 14:00:00","10.7791","3.37846","27.333","3.92","7.52","0.336","3.617","0.01","0.17","29.9712","4.72128","42.79","0","SATNPRO1509","31.666","0.44352","5"],
    [11552,"HCEP03730566","2024-01-26 14:15:00","10.7768","3.37799","27.41","3.914","7.52","0.352","3.731","0.01","0.12","29.9684","4.72092","42.71","0","SATNPRO1509","31.66","0.44348","5"],
    [11553,"HCEP03730566","2024-01-26 14:30:00","10.7763","3.37775","27.504","3.904","7.52","0.343","4.113","0.02","0.1","29.9664","4.72066","42.6","0","SATNPRO1509","31.69","0.44388","5"],
    [11554,"HCEP03730566","2024-01-26 14:45:00","10.7731","3.37712","27.509","3.902","7.52","0.356","4.081","0.01","0.12","29.9629","4.7202","42.58","0","SATNPRO1509","31.568","0.44216","5"],
    [11555,"HCEP03730566","2024-01-26 15:00:00","10.7697","3.37622","27.635","3.898","7.52","0.424","5.499","0.08","3.64","29.9567","4.71939","42.53","0","SATNPRO1509","31.59","0.44248","5"],
    [11556,"HCEP03730566","2024-01-26 15:15:00","10.7659","3.37538","27.664","3.889","7.52","0.399","6.834","0.11","13.09","29.9515","4.71871","42.43","0","SATNPRO1509","31.631999999999998","0.44306","5"],
    [11557,"HCEP03730566","2024-01-26 15:30:00","10.7696","3.37632","27.766","3.886","7.52","0.358","5.055","0.03","1.81","29.9577","4.71954","42.4","0","SATNPRO1509","31.562","0.44208","5"],
    [11558,"HCEP03730566","2024-01-26 15:45:00","10.7708","3.37657","27.77","3.887","7.52","0.36","4.264","0.02","0.39","29.9592","4.71973","42.42","0","SATNPRO1509","31.546","0.44184","5"],
    [11559,"HCEP03730566","2024-01-26 16:00:00","10.7741","3.37742","27.831","3.888","7.51","0.36","4.53","0.02","0.25","29.9648","4.72047","42.43","0","SATNPRO1509","31.64","0.44318","5"],
    [11560,"HCEP03730566","2024-01-26 16:15:00","10.7763","3.37778","27.839","3.909","7.52","0.363","3.482","0.02","0.31","29.9666","4.7207","42.66","0","SATNPRO1509","31.744","0.44464","5"],
    [11561,"HCEP03730566","2024-01-26 16:30:00","10.7746","3.37753","27.861","3.9","7.52","0.337","3.875","0.01","0.3","29.9655","4.72057","42.56","0","SATNPRO1509","31.586000000000002","0.44242","5"],
    [11562,"HCEP03730566","2024-01-26 16:45:00","10.775","3.37753","27.85","3.871","7.52","0.737","16.31","1.45","27.83","29.9652","4.72052","42.24","0","SATNPRO1509","31.474","0.44084","5"],
    [11563,"HCEP03730566","2024-01-26 17:00:00","10.7758","3.37771","27.768","3.878","7.52","0.456","6.632","0.2","3.76","29.9663","4.72066","42.32","0","SATNPRO1509","31.654","0.44336","5"],
    [11564,"HCEP03730566","2024-01-26 17:15:00","10.7753","3.37769","27.829","3.882","7.52","1.313","16.832","2.04","18.21","29.9665","4.7207","42.37","0","SATNPRO1509","31.578","0.44228","5"],
    [11565,"HCEP03730566","2024-01-26 17:30:00","10.7749","3.37755","27.772","3.881","7.52","0.495","10.863","0.06","2.91","29.9655","4.72056","42.36","0","SATNPRO1509","31.542","0.44178","5"],
    [11566,"HCEP03730566","2024-01-26 17:45:00","10.7751","3.37766","27.684","3.887","7.52","0.361","4.806","0.03","0.6","29.9665","4.72069","42.42","0","SATNPRO1509","31.55","0.44192","5"],
    [11567,"HCEP03730566","2024-01-26 18:00:00","10.7767","3.37809","27.589","3.892","7.52","0.671","10.156","0.12","6.19","29.9694","4.72107","42.48","0","SATNPRO1509","31.706","0.4441","5"],
    [11568,"HCEP03730566","2024-01-26 18:15:00","10.7755","3.37779","27.523","3.887","7.52","0.589","10.061","0.09","3","29.9675","4.72083","42.42","0","SATNPRO1509","31.506","0.44132","5"],
    [11569,"HCEP03730566","2024-01-26 18:30:00","10.7664","3.37552","27.446","3.863","7.52","0.603","20.448","0.12","3.94","29.9526","4.71884","42.15","0","SATNPRO1509","31.558","0.442","5"],
    [11570,"HCEP03730566","2024-01-26 18:45:00","10.7637","3.37492","27.37","3.856","7.52","0.569","13.267","0.09","1.87","29.9489","4.71836","42.06","0","SATNPRO1509","31.56","0.44202","5"],
    [11571,"HCEP03730566","2024-01-26 19:00:00","10.7596","3.37372","27.209","3.834","7.51","0.541","12.098","0.07","1.92","29.9406","4.71723","41.82","0","SATNPRO1509","31.458000000000002","0.44064","5"],
    [11572,"HCEP03730566","2024-01-26 19:15:00","10.7456","3.37009","27.064","3.812","7.51","0.67","9.424","0.09","0.82","29.9164","4.714","41.56","0","SATNPRO1509","31.472","0.44086","5"],
    [11573,"HCEP03730566","2024-01-26 19:30:00","10.7404","3.36902","26.967","3.78","7.51","0.479","6.797","0.05","0.72","29.9101","4.71319","41.2","0","SATNPRO1509","31.316","0.4386","5"],
    [11574,"HCEP03730566","2024-01-26 19:45:00","10.7237","3.36493","26.901","3.757","7.51","0.92","43.814","0.4","36","29.8835","4.70966","40.93","0","SATNPRO1509","31.152","0.43636","5"],
    [11575,"HCEP03730566","2024-01-26 20:00:00","10.7031","3.36026","26.633","3.732","7.5","0.5","6.986","0.07","0.52","29.8545","4.70584","40.63","0","SATNPRO1509","31.226","0.43738","5"],
    [11576,"HCEP03730566","2024-01-26 20:15:00","10.6824","3.35564","26.377","3.737","7.5","0.464","11.824","0.07","2.75","29.8259","4.70209","40.66","0","SATNPRO1509","31.248","0.43766","5"],
    [11577,"HCEP03730566","2024-01-26 20:30:00","10.68","3.3551","26.19","3.745","7.5","0.59","29.385","0.12","3.81","29.8227","4.70165","40.75","0","SATNPRO1509","31.234","0.43746","5"],
    [11578,"HCEP03730566","2024-01-26 20:45:00","10.6797","3.35526","25.932","3.755","7.5","0.391","17.557","0.03","6.6","29.8246","4.70192","40.85","0","SATNPRO1509","31.31","0.43852","5"],
    [11579,"HCEP03730566","2024-01-26 21:00:00","10.6779","3.35489","25.716","3.75","7.5","0.369","6.734","0.02","3.24","29.8225","4.70164","40.79","0","SATNPRO1509","31.262","0.43788","5"],
    [11580,"HCEP03730566","2024-01-26 21:15:00","10.6737","3.35394","25.536","3.745","7.5","0.422","11.273","0.07","7.77","29.8167","4.70087","40.74","0","SATNPRO1509","31.14","0.43616","5"],
    [11581,"HCEP03730566","2024-01-26 21:30:00","10.67","3.35307","25.372","3.745","7.5","1.037","64.471","0.37","33.84","29.8111","4.70012","40.74","0","SATNPRO1509","31.242","0.43758","5"],
    [11582,"HCEP03730566","2024-01-26 21:45:00","10.6667","3.35244","25.145","3.748","7.5","0.748","15.586","0.25","4.97","29.8077","4.69967","40.77","0","SATNPRO1509","31.206","0.43708","5"],
    [11583,"HCEP03730566","2024-01-26 22:00:00","10.6649","3.35209","24.925","3.746","7.5","0.395","8.072","0.04","7.33","29.8059","4.69943","40.74","0","SATNPRO1509","31.154","0.43638","5"],
    [11584,"HCEP03730566","2024-01-26 22:15:00","10.664","3.35185","24.773","3.749","7.5","0.427","6.405","0.03","1.02","29.8042","4.6992","40.77","0","SATNPRO1509","31.198","0.43696","5"],
    [11585,"HCEP03730566","2024-01-26 22:30:00","10.663","3.35163","24.673","3.745","7.5","0.434","6.277","0.04","0.68","29.803","4.69904","40.73","0","SATNPRO1509","31.002","0.43422","5"],
    [11586,"HCEP03730566","2024-01-26 22:45:00","10.663","3.35165","24.608","3.739","7.5","0.4","5.011","0.02","0.23","29.8031","4.69905","40.67","0","SATNPRO1509","31.172","0.43662","5"],
    [11587,"HCEP03730566","2024-01-26 23:00:00","10.6636","3.35173","24.568","3.738","7.5","0.416","5.369","0.03","0.34","29.8035","4.69909","40.65","0","SATNPRO1509","31.222","0.43734","5"],
    [11588,"HCEP03730566","2024-01-26 23:15:00","10.6641","3.35187","24.504","3.733","7.5","0.388","4.767","0.01","0.18","29.8045","4.69922","40.6","0","SATNPRO1509","31.13","0.43602","5"],
    [11589,"HCEP03730566","2024-01-26 23:30:00","10.665","3.35205","24.531","3.733","7.5","0.38","5.068","0.02","0.18","29.8055","4.69935","40.6","0","SATNPRO1509","31.169999999999998","0.43662","5"],
    [11590,"HCEP03730566","2024-01-26 23:45:00","10.6657","3.35207","24.539","3.724","7.5","0.383","4.892","0.02","0.16","29.8051","4.69928","40.5","0","SATNPRO1509","30.982","0.43394","5"],
    [11591,"HCEP03730566","2024-01-27 00:00:00","10.6651","3.35204","24.577","3.72","7.5","0.377","5.271","0.01","0.15","29.8053","4.69932","40.46","0","SATNPRO1509","30.976","0.43388","5"],
    [11592,"HCEP03730566","2024-01-27 00:15:00","10.6664","3.35222","24.756","3.718","7.5","0.396","4.925","0.03","0.46","29.8059","4.69941","40.44","0","SATNPRO1509","31.131999999999998","0.43608","5"],
    [11593,"HCEP03730566","2024-01-27 00:30:00","10.6673","3.35242","24.818","3.715","7.5","0.369","4.804","0.01","0.15","29.8072","4.69958","40.41","0","SATNPRO1509","30.974","0.4339","5"],
    [11594,"HCEP03730566","2024-01-27 00:45:00","10.6676","3.35256","24.947","3.711","7.5","0.35","5.614","0.02","0.79","29.8083","4.69973","40.36","0","SATNPRO1509","31.125999999999998","0.43596","5"],
    [11595,"HCEP03730566","2024-01-27 01:00:00","10.6679","3.35255","25.002","3.712","7.5","0.324","5.226","0.02","0.68","29.8079","4.69967","40.37","0","SATNPRO1509","31.146","0.43626","5"],
    [11596,"HCEP03730566","2024-01-27 01:15:00","10.6657","3.35222","25.163","3.723","7.5","0.371","3.946","0.02","0.07","29.8063","4.69949","40.49","0","SATNPRO1509","31.196","0.43694","5"],
    [11597,"HCEP03730566","2024-01-27 01:30:00","10.6674","3.35251","25.33","3.722","7.5","0.37","4.278","0.03","0.18","29.8077","4.69968","40.48","0","SATNPRO1509","31.206","0.4371","5"],
    [11598,"HCEP03730566","2024-01-27 01:45:00","10.6674","3.35254","25.506","3.715","7.5","0.715","15.767","0.38","16.53","29.808","4.69973","40.4","0","SATNPRO1509","31.248","0.43768","5"],
    [11599,"HCEP03730566","2024-01-27 02:00:00","10.6664","3.3524","25.703","3.718","7.5","0.401","4.736","0.03","0.73","29.8073","4.69966","40.43","0","SATNPRO1509","31.228","0.43744","5"],
    [11600,"HCEP03730566","2024-01-27 02:15:00","10.6665","3.35242","25.88","3.711","7.5","0.4","5.769","0.11","6.02","29.8074","4.69967","40.36","0","SATNPRO1509","31.222","0.43732","5"],
    [11601,"HCEP03730566","2024-01-27 02:30:00","10.665","3.35189","26.014","3.683","7.5","1.505","45.192","0.95","28.51","29.8033","4.69912","40.05","0","SATNPRO1509","31.07","0.43526","5"],
    [11602,"HCEP03730566","2024-01-27 02:45:00","10.6647","3.35211","26.187","3.687","7.5","0.846","28.103","0.38","19.55","29.8056","4.69947","40.09","0","SATNPRO1509","30.964","0.43372","5"],
    [11603,"HCEP03730566","2024-01-27 03:00:00","10.6585","3.35102","26.426","3.695","7.5","1.229","27.102","1.12","28.31","29.7999","4.69877","40.18","0","SATNPRO1509","31.076","0.4353","5"],
    [11604,"HCEP03730566","2024-01-27 03:15:00","10.6435","3.34819","26.638","3.71","7.5","1.529","161.896","0.25","26.72","29.7842","4.69678","40.32","0","SATNPRO1509","31.098","0.43556","5"],
    [11605,"HCEP03730566","2024-01-27 03:30:00","10.6183","3.34337","26.842","3.74","7.5","0.506","66.43","0.11","27.94","29.7571","4.69333","40.62","0","SATNPRO1509","31.156","0.43638","5"],
    [11606,"HCEP03730566","2024-01-27 03:45:00","10.6147","3.34282","27.087","3.739","7.5","5.287","289.837","2","85.09","29.7545","4.69304","40.6","0","SATNPRO1509","31.112","0.43576","5"],
    [11607,"HCEP03730566","2024-01-27 04:00:00","10.5965","3.33943","27.213","3.733","7.5","3.749","248.928","1.9","109.13","29.7359","4.69068","40.52","0","SATNPRO1509","31.104","0.43568","5"],
    [11608,"HCEP03730566","2024-01-27 04:15:00","10.5955","3.33904","27.393","3.684","7.5","2.216","37.17","1.92","22.45","29.7327","4.69025","39.98","0","SATNPRO1509","31.114","0.43578","5"],
    [11609,"HCEP03730566","2024-01-27 04:30:00","10.6117","3.34178","27.565","3.646","7.49","0.393","6.506","0.04","1.38","29.7465","4.69198","39.6","0","SATNPRO1509","30.718","0.43028","5"],
    [11610,"HCEP03730566","2024-01-27 04:45:00","10.6192","3.3435","27.762","3.657","7.49","1.267","30.093","0.55","8.51","29.7573","4.6934","39.72","0","SATNPRO1509","30.858","0.4322","5"],
    [11611,"HCEP03730566","2024-01-27 05:00:00","10.6374","3.34687","27.95","3.668","7.49","0.876","10.774","0.52","5.92","29.7756","4.69573","39.86","0","SATNPRO1509","30.948","0.4335","5"],
    [11612,"HCEP03730566","2024-01-27 05:15:00","10.6461","3.34868","28.02","3.673","7.49","0.876","61.711","0.4","24.68","29.7864","4.69713","39.92","0","SATNPRO1509","31.11","0.43574","5"],
    [11613,"HCEP03730566","2024-01-27 05:30:00","10.6577","3.35075","28.161","3.674","7.49","1.384","45.989","1.28","32.18","29.7972","4.6985","39.95","0","SATNPRO1509","31.126","0.43596","5"],
    [11614,"HCEP03730566","2024-01-27 05:45:00","10.6586","3.35082","28.333","3.666","7.49","0.434","4.424","0.09","0.21","29.7971","4.69848","39.86","0","SATNPRO1509","31.122","0.4359","5"],
    [11615,"HCEP03730566","2024-01-27 06:00:00","10.6573","3.35065","28.325","3.658","7.49","2.676","82.689","1.3","27.69","29.7964","4.6984","39.77","0","SATNPRO1509","31.088","0.43546","5"],
    [11616,"HCEP03730566","2024-01-27 06:15:00","10.6528","3.34982","28.373","3.653","7.49","0.657","7.965","0.67","8.14","29.7919","4.69783","39.72","0","SATNPRO1509","31.054","0.43496","5"],
    [11617,"HCEP03730566","2024-01-27 06:30:00","10.6513","3.34937","28.375","3.644","7.49","1.654","39.061","1.29","32.16","29.7887","4.6974","39.61","0","SATNPRO1509","31.038","0.43472","5"],
    [11618,"HCEP03730566","2024-01-27 06:45:00","10.6521","3.34955","28.342","3.624","7.49","1.431","75.778","0.5","20.78","29.7899","4.69755","39.4","0","SATNPRO1509","30.866","0.43236","5"],
    [11619,"HCEP03730566","2024-01-27 07:00:00","10.6514","3.34949","28.459","3.624","7.49","8.119","60.398","3.93","31.08","29.7898","4.69756","39.4","0","SATNPRO1509","30.862000000000002","0.43228","5"],
    [11620,"HCEP03730566","2024-01-27 07:15:00","10.6497","3.34913","28.391","3.621","7.49","4.523","61.896","2.7","25.17","29.7877","4.69728","39.36","0","SATNPRO1509","30.854","0.43218","5"],
    [11621,"HCEP03730566","2024-01-27 07:30:00","10.6438","3.34805","28.356","3.627","7.49","0.937","20.792","0.32","9.53","29.7818","4.69654","39.43","0","SATNPRO1509","30.872","0.43242","5"],
    [11622,"HCEP03730566","2024-01-27 07:45:00","10.6426","3.3478","28.38","3.628","7.49","4.899","72.892","2.12","34.14","29.7804","4.69635","39.43","0","SATNPRO1509","30.86","0.43222","5"],
    [11623,"NA","2024-03-01 10:30:00",null,null,null,null,null,null,null,null,null,null,null,null,null,"SATNPRO1509","30.474","0.42684","5"],
    [11624,"HCEP03730566","2024-01-27 08:00:00","10.6343","3.34659","28.308","3.616","7.49","1.15","24.027","2.04","37.17","29.7752","4.69574","39.3","0","SATNPRO1509","30.822","0.4317","5"],
    [11625,"HCEP03730566","2024-01-27 08:15:00","10.6312","3.34674","28.218","3.596","7.49","0.381","12.141","0.05","15.84","29.7793","4.69637","39.08","0","SATNPRO1509","30.634","0.42908","5"],
    [11626,"HCEP03730566","2024-01-27 08:30:00","10.6556","3.35039","28.168","3.607","7.49","0.356","12.995","0.05","17.08","29.7954","4.69826","39.22","0","SATNPRO1509","30.914","0.43298","5"],
    [11627,"HCEP03730566","2024-01-27 08:45:00","10.6473","3.34987","28.11","3.597","7.49","0.43","40.784","0.27","33.13","29.7971","4.69863","39.1","0","SATNPRO1509","30.784000000000002","0.43116","5"],
    [11628,"HCEP03730566","2024-01-27 09:00:00","10.6521","3.3503","28.042","3.596","7.49","0.345","7.798","0.02","4.83","29.7974","4.6986","39.1","0","SATNPRO1509","30.764","0.43092","5"],
    [11629,"HCEP03730566","2024-01-27 09:15:00","10.6582","3.35137","27.929","3.598","7.49","0.405","29.641","0.17","28.29","29.803","4.6993","39.13","0","SATNPRO1509","30.864","0.43232","5"],
    [11630,"HCEP03730566","2024-01-27 09:30:00","10.6624","3.35224","27.958","3.599","7.49","0.355","7.305","0.02","6.84","29.8082","4.69997","39.14","0","SATNPRO1509","30.872","0.43238","5"],
    [11631,"HCEP03730566","2024-01-27 09:45:00","10.6667","3.35307","27.784","3.605","7.49","0.952","18.828","0.66","18.76","29.8129","4.70056","39.21","0","SATNPRO1509","30.978","0.43386","5"],
    [11632,"HCEP03730566","2024-01-27 10:00:00","10.672","3.35428","27.747","3.604","7.49","0.617","29.264","0.23","25.98","29.8205","4.70156","39.2","0","SATNPRO1509","30.92","0.43306","5"],
    [11633,"HCEP03730566","2024-01-27 10:15:00","10.6787","3.35584","27.7","3.603","7.49","0.42","6.575","0.06","3.36","29.8304","4.70286","39.2","0","SATNPRO1509","30.976","0.43388","5"],
    [11634,"HCEP03730566","2024-01-27 10:30:00","10.6831","3.357","27.519","3.586","7.49","0.384","5.318","0.01","0.4","29.8384","4.70392","39.03","0","SATNPRO1509","31.064","0.4351","5"],
    [11635,"HCEP03730566","2024-01-27 10:45:00","10.6841","3.35747","27.254","3.6","7.49","0.406","6.073","0.02","1.44","29.8422","4.70443","39.18","0","SATNPRO1509","31.052","0.43498","5"],
    [11636,"HCEP03730566","2024-01-27 11:00:00","10.6879","3.35807","27.113","3.606","7.49","0.39","6.171","0.04","2.6","29.8451","4.70477","39.25","0","SATNPRO1509","31.14","0.43616","5"],
    [11637,"HCEP03730566","2024-01-27 11:15:00","10.6908","3.35858","27.129","3.621","7.49","4.212","84.486","3.82","29.72","29.8478","4.70511","39.42","0","SATNPRO1509","31.108","0.43574","5"],
    [11638,"HCEP03730566","2024-01-27 11:30:00","10.692","3.35871","26.944","3.633","7.49","0.394","7.854","0.05","10.42","29.8481","4.70512","39.54","0","SATNPRO1509","31.176","0.4367","5"],
    [11639,"HCEP03730566","2024-01-27 11:45:00","10.701","3.36065","26.842","3.618","7.49","0.755","15.715","0.63","21.23","29.86","4.70667","39.39","0","SATNPRO1509","31.24","0.43756","5"],
    [11640,"HCEP03730566","2024-01-27 12:00:00","10.7208","3.36506","26.841","3.623","7.49","1.844","32.582","3.35","34.83","29.8872","4.71023","39.47","0","SATNPRO1509","31.206","0.43704","5"],
    [11641,"HCEP03730566","2024-01-27 12:15:00","10.7393","3.36936","26.759","3.667","7.49","0.747","69.855","0.58","21.08","29.9144","4.7138","39.97","0","SATNPRO1509","31.238","0.43752","5"],
    [11642,"HCEP03730566","2024-01-27 12:30:00","10.7512","3.37215","26.744","3.687","7.5","2.354","36.108","2.56","43.02","29.9321","4.71613","40.2","0","SATNPRO1509","31.419999999999998","0.44006","5"],
    [11643,"HCEP03730566","2024-01-27 12:45:00","10.7586","3.3737","26.748","3.698","7.5","1.919","172.486","1.16","109.31","29.9414","4.71733","40.34","0","SATNPRO1509","31.436","0.4403","5"],
    [11644,"HCEP03730566","2024-01-27 13:00:00","10.7689","3.37663","26.767","3.779","7.5","0.368","5.462","0.01","0.33","29.9617","4.72007","41.24","0","SATNPRO1509","31.73","0.44444","5"],
    [11645,"HCEP03730566","2024-01-27 13:15:00","10.7816","3.38013","26.876","3.862","7.51","0.333","4.962","0.02","1.03","29.9857","4.72327","42.16","0","SATNPRO1509","31.772","0.445","5"],
    [11646,"HCEP03730566","2024-01-27 13:30:00","10.7872","3.38155","26.861","3.886","7.51","0.357","4.394","0.01","0.17","29.9951","4.72452","42.42","0","SATNPRO1509","31.744","0.44462","5"],
    [11647,"HCEP03730566","2024-01-27 13:45:00","10.7935","3.38308","26.939","3.889","7.52","0.391","4.851","0.02","0.22","30.005","4.72583","42.46","0","SATNPRO1509","31.822","0.44572","5"],
    [11648,"HCEP03730566","2024-01-27 14:00:00","10.7983","3.38423","27.076","3.896","7.52","0.364","4.431","0.02","0.26","30.0123","4.72681","42.55","0","SATNPRO1509","31.738","0.44458","5"],
    [11649,"HCEP03730566","2024-01-27 14:15:00","10.7964","3.38384","27.136","3.897","7.52","0.367","4.263","0.01","0.2","30.01","4.72651","42.56","0","SATNPRO1509","31.816","0.4456","5"],
    [11650,"HCEP03730566","2024-01-27 14:30:00","10.7967","3.38398","27.174","3.919","7.52","0.359","3.871","0.01","0.22","30.0111","4.72666","42.79","0","SATNPRO1509","31.824","0.44572","5"],
    [11651,"HCEP03730566","2024-01-27 14:45:00","10.7991","3.3845","27.289","3.921","7.52","0.411","4.557","0.02","0.18","30.0142","4.72708","42.82","0","SATNPRO1509","31.798","0.44542","5"],
    [11652,"HCEP03730566","2024-01-27 15:00:00","10.7907","3.38253","27.352","3.905","7.52","0.423","4.69","0.03","0.5","30.0017","4.72543","42.63","0","SATNPRO1509","31.792","0.44532","5"],
    [11653,"HCEP03730566","2024-01-27 15:15:00","10.7839","3.38084","27.437","3.897","7.52","0.389","4.448","0.02","0.22","29.9906","4.72397","42.54","0","SATNPRO1509","31.689999999999998","0.44386","5"],
    [11654,"HCEP03730566","2024-01-27 15:30:00","10.7802","3.37984","27.507","3.882","7.52","0.414","5.265","0.02","0.31","29.9837","4.72306","42.37","0","SATNPRO1509","31.78","0.44512","5"],
    [11655,"HCEP03730566","2024-01-27 15:45:00","10.7842","3.38102","27.598","3.886","7.52","0.401","4.501","0.02","0.32","29.992","4.72418","42.42","0","SATNPRO1509","31.753999999999998","0.44476","5"],
    [11656,"HCEP03730566","2024-01-27 16:00:00","10.7842","3.38108","27.637","3.89","7.52","0.384","4.311","0.02","0.24","29.9926","4.72426","42.46","0","SATNPRO1509","31.741999999999997","0.44458","5"],
    [11657,"HCEP03730566","2024-01-27 16:15:00","10.7855","3.38115","27.774","3.888","7.52","0.389","4.204","0.03","0.47","29.9923","4.7242","42.44","0","SATNPRO1509","31.768","0.4449","5"],
    [11658,"HCEP03730566","2024-01-27 16:30:00","10.7935","3.38328","27.799","3.882","7.52","0.722","12.036","0.66","13.32","30.0065","4.7261","42.4","0","SATNPRO1509","31.704","0.44406","5"],
    [11659,"HCEP03730566","2024-01-27 16:45:00","10.7971","3.38413","27.72","3.865","7.52","0.354","4.982","0.02","0.21","30.012","4.72682","42.21","0","SATNPRO1509","31.674","0.44362","5"],
    [11660,"HCEP03730566","2024-01-27 17:00:00","10.7958","3.38394","27.844","3.885","7.52","0.377","4.146","0.05","0.47","30.0112","4.72673","42.42","0","SATNPRO1509","31.722","0.44436","5"],
    [11661,"HCEP03730566","2024-01-27 17:15:00","10.8019","3.38533","27.88","3.886","7.52","0.44","7.627","0.17","4.82","30.0198","4.72786","42.44","0","SATNPRO1509","31.78","0.44512","5"],
    [11662,"HCEP03730566","2024-01-27 17:30:00","10.8064","3.38634","27.862","3.883","7.52","0.339","4.021","0.02","0.16","30.0261","4.72868","42.42","0","SATNPRO1509","31.872","0.44644","5"],
    [11663,"HCEP03730566","2024-01-27 17:45:00","10.8062","3.38645","27.766","3.877","7.52","0.357","4.169","0.02","0.15","30.0274","4.72886","42.35","0","SATNPRO1509","31.63","0.443","5"],
    [11664,"HCEP03730566","2024-01-27 18:00:00","10.8094","3.38711","27.697","3.828","7.52","0.652","17.106","0.16","5.41","30.0313","4.72937","41.82","0","SATNPRO1509","31.586","0.4424","5"],
    [11665,"HCEP03730566","2024-01-27 18:15:00","10.8141","3.38826","27.706","3.845","7.52","0.362","4.692","0.01","0.2","30.0386","4.73033","42.02","0","SATNPRO1509","31.664","0.4435","5"],
    [11666,"HCEP03730566","2024-01-27 18:30:00","10.814","3.3884","27.55","3.862","7.52","0.336","4.641","0.01","0.26","30.0402","4.73055","42.2","0","SATNPRO1509","31.718","0.44432","5"],
    [11667,"HCEP03730566","2024-01-27 18:45:00","10.811","3.38773","27.474","3.873","7.52","0.351","4.667","0.01","0.24","30.0361","4.73","42.31","0","SATNPRO1509","31.71","0.44416","5"],
    [11668,"HCEP03730566","2024-01-27 19:00:00","10.8069","3.38662","27.366","3.862","7.52","0.343","4.481","0.01","0.26","30.0286","4.72901","42.19","0","SATNPRO1509","31.714","0.44418","5"],
    [11669,"HCEP03730566","2024-01-27 19:15:00","10.8009","3.38502","27.23","3.843","7.52","0.359","4.708","0.01","0.23","30.0178","4.72756","41.97","0","SATNPRO1509","31.744","0.44464","5"],
    [11670,"HCEP03730566","2024-01-27 19:30:00","10.7931","3.38313","27.12","3.834","7.52","0.342","4.623","0.02","0.3","30.0057","4.72596","41.86","0","SATNPRO1509","31.694","0.44392","5"],
    [11671,"HCEP03730566","2024-01-27 19:45:00","10.7829","3.3805","27","3.822","7.51","0.351","4.777","0.01","0.26","29.9883","4.72363","41.73","0","SATNPRO1509","31.686","0.44384","5"],
    [11672,"HCEP03730566","2024-01-27 20:00:00","10.7599","3.37479","26.844","3.795","7.51","0.352","5.18","0.02","0.35","29.951","4.71868","41.4","0","SATNPRO1509","31.554","0.44196","5"],
    [11673,"HCEP03730566","2024-01-27 20:15:00","10.7386","3.36996","26.643","3.789","7.51","0.37","4.854","0.01","0.17","29.9209","4.71473","41.31","0","SATNPRO1509","31.684","0.44378","5"],
    [11674,"HCEP03730566","2024-01-27 20:30:00","10.7259","3.36707","26.565","3.792","7.51","0.367","5.214","0.01","0.48","29.903","4.71237","41.32","0","SATNPRO1509","31.67","0.44358","5"],
    [11675,"HCEP03730566","2024-01-27 20:45:00","10.722","3.36621","26.382","3.781","7.51","0.375","4.929","0.01","0.19","29.8977","4.71168","41.2","0","SATNPRO1509","31.626","0.44298","5"],
    [11676,"HCEP03730566","2024-01-27 21:00:00","10.7184","3.36525","26.122","3.77","7.51","0.411","6.9","0.02","0.87","29.8913","4.71081","41.08","0","SATNPRO1509","31.646","0.44324","5"],
    [11677,"HCEP03730566","2024-01-27 21:15:00","10.7104","3.36341","25.978","3.76","7.5","0.405","5.791","0.12","1.86","29.8797","4.70928","40.95","0","SATNPRO1509","31.556","0.442","5"],
    [11678,"HCEP03730566","2024-01-27 21:30:00","10.6968","3.35982","25.766","3.738","7.5","0.427","7.423","0.03","1.34","29.8556","4.70606","40.69","0","SATNPRO1509","31.502","0.44126","5"],
    [11679,"HCEP03730566","2024-01-27 21:45:00","10.6719","3.35492","25.543","3.698","7.5","0.449","7.839","0.03","0.87","29.8278","4.70247","40.24","0","SATNPRO1509","31.31","0.43852","5"],
    [11680,"HCEP03730566","2024-01-27 22:00:00","10.6582","3.35111","25.339","3.642","7.5","0.412","7.144","0.02","0.99","29.8015","4.69894","39.6","0","SATNPRO1509","31.238","0.43754","5"],
    [11681,"HCEP03730566","2024-01-27 22:15:00","10.6457","3.34866","25.151","3.6","7.49","0.624","10.444","0.07","1.2","29.7876","4.69715","39.13","0","SATNPRO1509","31.201999999999998","0.43704","5"],
    [11682,"HCEP03730566","2024-01-27 22:30:00","10.6396","3.34732","25.035","3.561","7.49","0.404","5.813","0.02","0.47","29.7794","4.69606","38.7","0","SATNPRO1509","31.096","0.43558","5"],
    [11683,"HCEP03730566","2024-01-27 22:45:00","10.6376","3.34688","24.895","3.543","7.49","0.402","5.514","0.01","0.39","29.7768","4.69572","38.5","0","SATNPRO1509","30.936","0.43332","5"],
    [11684,"HCEP03730566","2024-01-27 23:00:00","10.6367","3.34665","24.813","3.537","7.49","0.43","6.251","0.02","0.67","29.7752","4.6955","38.44","0","SATNPRO1509","30.926000000000002","0.43316","5"],
    [11685,"HCEP03730566","2024-01-27 23:15:00","10.6361","3.34652","24.794","3.529","7.48","0.379","5.415","0.02","0.32","29.7745","4.69541","38.35","0","SATNPRO1509","31.062","0.43504","5"],
    [11686,"HCEP03730566","2024-01-27 23:30:00","10.6368","3.3467","24.749","3.528","7.48","0.411","5.963","0.02","0.33","29.7757","4.69557","38.34","0","SATNPRO1509","30.928","0.4332","5"],
    [11687,"HCEP03730566","2024-01-27 23:45:00","10.6422","3.34784","24.704","3.547","7.48","0.515","8.108","0.03","0.94","29.7825","4.69646","38.55","0","SATNPRO1509","31.096","0.43558","5"],
    [11688,"HCEP03730566","2024-01-28 00:00:00","10.6519","3.34987","24.618","3.566","7.48","0.429","6.536","0.04","1.93","29.7947","4.69803","38.77","0","SATNPRO1509","31.014","0.43438","5"],
    [11689,"HCEP03730566","2024-01-28 00:15:00","10.6638","3.35267","24.811","3.595","7.49","0.399","5.622","0.02","0.31","29.8126","4.70039","39.1","0","SATNPRO1509","31.144000000000002","0.4362","5"],
    [11690,"HCEP03730566","2024-01-28 00:30:00","10.6588","3.3516","24.826","3.615","7.49","0.386","4.498","0.02","0.3","29.8061","4.69955","39.31","0","SATNPRO1509","31.330000000000002","0.43882","5"],
    [11691,"HCEP03730566","2024-01-28 00:45:00","10.6592","3.35174","25.016","3.624","7.49","0.397","4.672","0.01","0.32","29.807","4.69968","39.41","0","SATNPRO1509","31.25","0.43772","5"],
    [11692,"HCEP03730566","2024-01-28 01:00:00","10.6749","3.35521","25.059","3.61","7.49","0.378","5.854","0.02","0.2","29.8283","4.70247","39.28","0","SATNPRO1509","31.14","0.43616","5"],
    [11693,"HCEP03730566","2024-01-28 01:15:00","10.6743","3.35511","25.139","3.608","7.49","0.406","5.638","0.03","0.65","29.8279","4.70243","39.25","0","SATNPRO1509","31.169999999999998","0.43662","5"],
    [11694,"HCEP03730566","2024-01-28 01:30:00","10.6732","3.3548","25.24","3.601","7.49","0.371","5.129","0.01","0.31","29.8257","4.70214","39.18","0","SATNPRO1509","31.22","0.43728","5"],
    [11695,"HCEP03730566","2024-01-28 01:45:00","10.6736","3.35501","25.375","3.617","7.49","0.38","4.889","0.03","0.55","29.8274","4.70238","39.35","0","SATNPRO1509","31.226","0.43738","5"],
    [11696,"HCEP03730566","2024-01-28 02:00:00","10.6766","3.3557","25.578","3.597","7.49","0.497","16.329","0.3","19.51","29.8316","4.70295","39.14","0","SATNPRO1509","31.082","0.43536","5"],
    [11697,"HCEP03730566","2024-01-28 02:15:00","10.6702","3.35496","25.722","3.613","7.49","0.578","8.187","0.08","3.05","29.8294","4.70275","39.3","0","SATNPRO1509","31.126","0.43596","5"],
    [11698,"HCEP03730566","2024-01-28 02:30:00","10.6133","3.34376","25.885","3.665","7.49","0.401","5.155","0.01","0.12","29.7654","4.69453","39.8","0","SATNPRO1509","31.06","0.43504","5"],
    [11699,"HCEP03730566","2024-01-28 02:45:00","10.5562","3.3342","26.07","3.723","7.49","0.536","7.8","0.05","1.63","29.7175","4.68863","40.38","0","SATNPRO1509","30.98","0.4339","5"],
    [11700,"HCEP03730566","2024-01-28 03:00:00","10.4271","3.30463","26.222","3.852","7.5","3.131","164.476","0.9","74.65","29.53","4.66399","41.6","0","SATNPRO1509","31.2","0.437","5"],
    [11701,"HCEP03730566","2024-01-28 03:15:00","10.4205","3.30237","26.387","3.902","7.5","0.407","3.192","0.02","0.11","29.5129","4.66167","42.13","0","SATNPRO1509","31.208000000000002","0.43716","5"],
    [11702,"HCEP03730566","2024-01-28 03:30:00","10.5462","3.32936","26.536","3.798","7.5","0.375","4.78","0.02","0.29","29.6777","4.68315","41.16","0","SATNPRO1509","31.252","0.43778","5"],
    [11703,"HCEP03730566","2024-01-28 03:45:00","10.6171","3.3437","26.736","3.657","7.49","0.376","4.896","0.02","0.15","29.7614","4.69396","39.72","0","SATNPRO1509","31.16","0.43646","5"],
    [11704,"HCEP03730566","2024-01-28 04:00:00","10.6176","3.344","26.961","3.626","7.49","0.374","4.6","0.01","0.16","29.7638","4.69431","39.39","0","SATNPRO1509","31.184","0.43676","5"],
    [11705,"HCEP03730566","2024-01-28 04:15:00","10.6288","3.34557","27.148","3.549","7.49","0.38","4.542","0.01","0.13","29.7701","4.69503","38.56","0","SATNPRO1509","31.086","0.43542","5"],
    [11706,"HCEP03730566","2024-01-28 04:30:00","10.6255","3.34459","27.37","3.495","7.48","0.373","4.502","0.01","0.16","29.7631","4.6941","37.97","0","SATNPRO1509","30.954","0.43358","5"],
    [11707,"HCEP03730566","2024-01-28 04:45:00","10.6309","3.34552","27.575","3.486","7.48","0.386","4.765","0.02","0.15","29.7677","4.69469","37.87","0","SATNPRO1509","31.012","0.43438","5"],
    [11708,"HCEP03730566","2024-01-28 05:00:00","10.6291","3.3453","27.768","3.477","7.48","0.773","12.132","0.15","6.94","29.7669","4.69462","37.77","0","SATNPRO1509","30.86","0.43226","5"],
    [11709,"HCEP03730566","2024-01-28 05:15:00","10.626","3.34455","27.961","3.47","7.48","0.454","6.048","0.07","1.12","29.762","4.69397","37.7","0","SATNPRO1509","30.896","0.43278","5"],
    [11710,"HCEP03730566","2024-01-28 05:30:00","10.6217","3.34361","28.143","3.467","7.48","0.395","4.874","0.03","0.25","29.7562","4.69322","37.66","0","SATNPRO1509","30.93","0.43326","5"],
    [11711,"HCEP03730566","2024-01-28 05:45:00","10.6162","3.34286","28.223","3.462","7.48","0.354","5.237","0.02","0.35","29.7532","4.69289","37.6","0","SATNPRO1509","30.982","0.43396","5"],
    [11712,"HCEP03730566","2024-01-28 06:00:00","10.6205","3.34351","28.336","3.457","7.48","0.349","5.878","0.01","0.43","29.7561","4.69324","37.55","0","SATNPRO1509","30.892","0.43268","5"],
    [11713,"HCEP03730566","2024-01-28 06:15:00","10.6208","3.34356","28.491","3.466","7.48","0.384","4.624","0.01","0.27","29.7563","4.69327","37.65","0","SATNPRO1509","30.990000000000002","0.43408","5"],
    [11714,"HCEP03730566","2024-01-28 06:30:00","10.6236","3.34401","28.531","3.474","7.48","0.384","4.905","0.02","0.31","29.7585","4.69354","37.74","0","SATNPRO1509","30.868","0.43238","5"],
    [11715,"HCEP03730566","2024-01-28 06:45:00","10.6325","3.34618","28.417","3.471","7.48","1.199","38.56","0.4","28.52","29.7726","4.6954","37.72","0","SATNPRO1509","30.918","0.43308","5"],
    [11716,"HCEP03730566","2024-01-28 07:00:00","10.6265","3.34529","28.442","3.478","7.48","1.236","39.446","0.75","33.25","29.7687","4.69495","37.78","0","SATNPRO1509","30.798","0.4314","5"],
    [11717,"HCEP03730566","2024-01-28 07:15:00","10.6406","3.34782","28.415","3.483","7.48","1.749","44.345","1.7","18.74","29.7822","4.69664","37.85","0","SATNPRO1509","30.888","0.43262","5"],
    [11718,"HCEP03730566","2024-01-28 07:30:00","10.6321","3.34709","28.384","3.531","7.48","0.412","10.594","0.06","8.36","29.7819","4.69673","38.37","0","SATNPRO1509","31.042","0.43478","5"],
    [11719,"HCEP03730566","2024-01-28 07:45:00","10.6312","3.34707","28.369","3.594","7.48","0.528","13.191","0.36","18.8","29.7824","4.69682","39.06","0","SATNPRO1509","31.012","0.4344","5"],
    [11720,"HCEP03730566","2024-01-28 08:00:00","10.6303","3.34727","28.315","3.62","7.49","0.491","18.638","0.33","30.84","29.7851","4.69722","39.33","0","SATNPRO1509","31.084","0.4354","5"],
    [11721,"HCEP03730566","2024-01-28 08:15:00","10.65","3.3518","28.266","3.626","7.49","0.409","10.448","0.27","18.38","29.8138","4.70099","39.42","0","SATNPRO1509","31.124","0.43594","5"],
    [11722,"HCEP03730566","2024-01-28 08:30:00","10.6616","3.35454","28.213","3.617","7.49","0.372","7.439","0.02","3.71","29.8313","4.70329","39.35","0","SATNPRO1509","31.186","0.4368","5"],
    [11723,"HCEP03730566","2024-01-28 08:45:00","10.6671","3.35566","28.167","3.62","7.49","0.491","9.282","0.61","17.97","29.8379","4.70414","39.38","0","SATNPRO1509","31.34","0.43896","5"],
    [11724,"HCEP03730566","2024-01-28 09:00:00","10.6696","3.35583","28.079","3.622","7.49","0.377","5.415","0.02","0.23","29.8376","4.70405","39.41","0","SATNPRO1509","31.291999999999998","0.4383","5"],
    [11725,"HCEP03730566","2024-01-28 09:15:00","10.668","3.35534","28.029","3.625","7.49","0.388","5.318","0.02","0.48","29.834","4.70356","39.43","0","SATNPRO1509","31.256","0.4378","5"],
    [11726,"HCEP03730566","2024-01-28 09:30:00","10.6725","3.35649","27.927","3.62","7.49","0.372","5.351","0.01","0.25","29.8418","4.70458","39.39","0","SATNPRO1509","31.224","0.43732","5"],
    [11727,"HCEP03730566","2024-01-28 09:45:00","10.6694","3.35598","27.84","3.611","7.49","0.416","6.07","0.07","2.2","29.8393","4.70428","39.28","0","SATNPRO1509","31.344","0.439","5"],
    [11728,"HCEP03730566","2024-01-28 10:00:00","10.6682","3.35559","27.729","3.63","7.49","0.372","4.798","0.02","0.29","29.8365","4.70389","39.49","0","SATNPRO1509","31.446","0.44046","5"],
    [11729,"HCEP03730566","2024-01-28 10:15:00","10.6721","3.3564","27.645","3.649","7.49","2.129","48.231","4.61","35.86","29.8413","4.70452","39.7","0","SATNPRO1509","31.408","0.43992","5"],
    [11730,"HCEP03730566","2024-01-28 10:30:00","10.6733","3.35658","27.563","3.661","7.49","2.18","44.188","0.59","29.68","29.8421","4.7046","39.83","0","SATNPRO1509","31.546","0.44182","5"],
    [11731,"HCEP03730566","2024-01-28 10:45:00","10.673","3.35661","27.418","3.64","7.49","0.794","41.572","0.48","22.98","29.8428","4.7047","39.61","0","SATNPRO1509","31.448","0.44046","5"],
    [11732,"HCEP03730566","2024-01-28 11:00:00","10.6841","3.35915","27.302","3.626","7.49","0.349","4.458","0.01","0.16","29.8587","4.70678","39.46","0","SATNPRO1509","31.554","0.44198","5"],
    [11733,"HCEP03730566","2024-01-28 11:15:00","10.7054","3.36369","27.173","3.636","7.49","0.424","6.483","0.15","5.45","29.8861","4.71034","39.6","0","SATNPRO1509","31.491999999999997","0.4411","5"],
    [11734,"HCEP03730566","2024-01-28 11:30:00","10.722","3.36799","27.067","3.713","7.5","0.377","4.679","0.01","0.23","29.915","4.71417","40.46","0","SATNPRO1509","31.708","0.44412","5"],
    [11735,"HCEP03730566","2024-01-28 11:45:00","10.7314","3.37091","26.937","3.866","7.51","0.39","3.999","0.02","0.24","29.9361","4.71701","42.15","0","SATNPRO1509","31.77","0.44498","5"],
    [11736,"HCEP03730566","2024-01-28 12:00:00","10.7312","3.37083","26.828","3.874","7.51","0.36","3.994","0.02","0.46","29.9355","4.71693","42.23","0","SATNPRO1509","31.758","0.44484","5"],
    [11737,"HCEP03730566","2024-01-28 12:15:00","10.7315","3.37122","26.751","3.895","7.51","0.729","65.879","0.2","31.8","29.939","4.71742","42.46","0","SATNPRO1509","31.808","0.44554","5"],
    [11738,"HCEP03730566","2024-01-28 12:30:00","10.7289","3.371","26.674","3.925","7.52","0.617","17.846","0.44","29.93","29.9391","4.71746","42.79","0","SATNPRO1509","31.742","0.44458","5"],
    [11739,"HCEP03730566","2024-01-28 12:45:00","10.7228","3.37068","26.617","3.99","7.52","0.976","10.229","0.17","6.97","29.941","4.71783","43.49","0","SATNPRO1509","31.666","0.44356","5"],
    [11740,"HCEP03730566","2024-01-28 13:00:00","10.7212","3.37093","26.6","4.037","7.52","1.165","24.011","0.18","18.24","29.9448","4.71839","43.99","0","SATNPRO1509","31.586","0.44242","5"],
    [11741,"HCEP03730566","2024-01-28 13:15:00","10.7218","3.37129","26.614","4.056","7.53","0.5","54.466","0.12","23.06","29.9478","4.71881","44.2","0","SATNPRO1509","31.572","0.44222","5"],
    [11742,"HCEP03730566","2024-01-28 13:30:00","10.7386","3.37606","26.638","4.096","7.53","0.797","29.428","0.34","23.82","29.981","4.72326","44.66","0","SATNPRO1509","31.56","0.44204","5"],
    [11743,"HCEP03730566","2024-01-28 13:45:00","10.7571","3.37974","26.702","4.073","7.53","0.379","4.522","0.02","0.45","30.002","4.72597","44.44","0","SATNPRO1509","31.644","0.44324","5"],
    [11744,"HCEP03730566","2024-01-28 14:00:00","10.7599","3.38025","26.75","4.059","7.53","0.368","6.084","0.02","1.15","30.0047","4.72631","44.29","0","SATNPRO1509","31.564","0.44212","5"],
    [11745,"HCEP03730566","2024-01-28 14:15:00","10.7642","3.38146","26.796","4.067","7.53","0.364","7.567","0.02","4.01","30.0131","4.72743","44.39","0","SATNPRO1509","31.64","0.4431","5"],
    [11746,"HCEP03730566","2024-01-28 14:30:00","10.7744","3.38354","26.867","4.046","7.53","0.376","4.848","0.02","0.21","30.0252","4.729","44.17","0","SATNPRO1509","31.622","0.44294","5"],
    [11747,"HCEP03730566","2024-01-28 14:45:00","10.7728","3.3833","26.949","4.046","7.53","0.369","5.289","0.02","0.59","30.0241","4.72887","44.16","0","SATNPRO1509","31.594","0.44254","5"],
    [11748,"HCEP03730566","2024-01-28 15:00:00","10.7717","3.38312","26.999","4.052","7.53","0.339","4.199","0.01","0.2","30.0231","4.72876","44.23","0","SATNPRO1509","31.61","0.44272","5"],
    [11749,"HCEP03730566","2024-01-28 15:15:00","10.7728","3.38338","27.112","4.053","7.53","0.351","4.465","0.01","0.33","30.0248","4.72899","44.24","0","SATNPRO1509","31.626","0.44298","5"],
    [11750,"HCEP03730566","2024-01-28 15:30:00","10.7714","3.38319","27.211","4.057","7.53","0.357","4.765","0.02","0.78","30.024","4.7289","44.28","0","SATNPRO1509","31.578","0.44238","5"],
    [11751,"HCEP03730566","2024-01-28 15:45:00","10.7677","3.38235","27.349","4.058","7.53","0.351","4.1","0.01","0.43","30.0188","4.72822","44.29","0","SATNPRO1509","31.648","0.44324","5"],
    [11752,"HCEP03730566","2024-01-28 16:00:00","10.7667","3.38212","27.367","4.06","7.53","0.337","4.098","0.01","0.2","30.0174","4.72804","44.32","0","SATNPRO1509","31.626","0.44298","5"],
    [11753,"HCEP03730566","2024-01-28 16:15:00","10.7717","3.38326","27.472","4.061","7.53","0.348","3.728","0.02","0.11","30.0243","4.72896","44.33","0","SATNPRO1509","31.526","0.44158","5"],
    [11754,"HCEP03730566","2024-01-28 16:30:00","10.7786","3.38486","27.544","4.057","7.53","0.518","5.15","0.06","0.34","30.0344","4.73029","44.3","0","SATNPRO1509","31.524","0.44156","5"],
    [11755,"HCEP03730566","2024-01-28 16:45:00","10.78","3.38527","27.602","4.075","7.53","0.335","4.078","0.01","0.28","30.0373","4.73067","44.5","0","SATNPRO1509","31.706","0.44408","5"],
    [11756,"HCEP03730566","2024-01-28 17:00:00","10.7849","3.3867","27.611","4.079","7.53","0.331","4.29","0.01","0.4","30.0474","4.73203","44.54","0","SATNPRO1509","31.61","0.44274","5"],
    [11757,"HCEP03730566","2024-01-28 17:15:00","10.7858","3.38666","27.639","4.053","7.53","0.352","4.599","0.02","0.24","30.0462","4.73186","44.26","0","SATNPRO1509","31.514","0.44142","5"],
    [11758,"HCEP03730566","2024-01-28 17:30:00","10.7871","3.38689","27.692","4.035","7.53","0.409","6.994","0.05","1.28","30.0474","4.732","44.06","0","SATNPRO1509","31.528","0.4416","5"],
    [11759,"HCEP03730566","2024-01-28 17:45:00","10.7888","3.38727","27.68","4.032","7.53","0.435","7.151","0.04","1.45","30.0497","4.7323","44.04","0","SATNPRO1509","31.56","0.44204","5"],
    [11760,"HCEP03730566","2024-01-28 18:00:00","10.7901","3.38747","27.719","4.026","7.53","0.418","6.763","0.04","0.94","30.0506","4.73242","43.98","0","SATNPRO1509","31.558","0.442","5"],
    [11761,"HCEP03730566","2024-01-28 18:15:00","10.7927","3.38804","27.704","4.033","7.53","0.358","5.049","0.02","0.35","30.054","4.73286","44.06","0","SATNPRO1509","31.498","0.44118","5"],
    [11762,"HCEP03730566","2024-01-28 18:30:00","10.7945","3.38844","27.684","4.037","7.53","0.338","4.76","0.01","0.41","30.0566","4.73319","44.1","0","SATNPRO1509","31.524","0.44152","5"],
    [11763,"HCEP03730566","2024-01-28 18:45:00","10.7969","3.38893","27.637","4.052","7.53","0.354","5.275","0.01","0.71","30.0594","4.73355","44.26","0","SATNPRO1509","31.642","0.4432","5"],
    [11764,"HCEP03730566","2024-01-28 19:00:00","10.7976","3.38893","27.589","4.036","7.53","0.34","5.128","0.01","0.51","30.0588","4.73345","44.09","0","SATNPRO1509","31.686","0.44386","5"],
    [11765,"HCEP03730566","2024-01-28 19:15:00","10.7968","3.38833","27.533","4.017","7.53","0.348","4.819","0.01","0.26","30.0536","4.73273","43.88","0","SATNPRO1509","31.676000000000002","0.44368","5"],
    [11766,"HCEP03730566","2024-01-28 19:30:00","10.791","3.38681","27.421","4.01","7.53","0.349","4.976","0.02","0.24","30.0435","4.73137","43.8","0","SATNPRO1509","31.72","0.44432","5"],
    [11767,"HCEP03730566","2024-01-28 19:45:00","10.7892","3.3863","27.342","3.989","7.53","0.354","5.224","0.01","0.3","30.04","4.7309","43.57","0","SATNPRO1509","31.718","0.44426","5"],
    [11768,"HCEP03730566","2024-01-28 20:00:00","10.7807","3.38402","27.265","3.963","7.53","0.331","6.334","0.01","0.49","30.0245","4.72883","43.27","0","SATNPRO1509","31.676000000000002","0.44364","5"],
    [11769,"HCEP03730566","2024-01-28 20:15:00","10.7766","3.38269","27.088","3.943","7.52","0.34","5.639","0.01","0.25","30.0149","4.72752","43.04","0","SATNPRO1509","31.696","0.44398","5"],
    [11770,"HCEP03730566","2024-01-28 20:30:00","10.7598","3.37832","26.95","3.923","7.52","0.344","5.517","0.02","0.22","29.9857","4.72363","42.81","0","SATNPRO1509","31.658","0.44342","5"],
    [11771,"HCEP03730566","2024-01-28 20:45:00","10.749","3.37588","26.828","3.908","7.52","0.363","5.34","0.01","0.23","29.9706","4.72164","42.63","0","SATNPRO1509","31.732","0.44446","5"],
    [11772,"HCEP03730566","2024-01-28 21:00:00","10.7307","3.37133","26.658","3.898","7.52","0.49","9.229","0.72","13.19","29.9409","4.7177","42.49","0","SATNPRO1509","31.695999999999998","0.44398","5"],
    [11773,"HCEP03730566","2024-01-28 21:15:00","10.7178","3.36893","26.542","3.878","7.52","0.372","5.462","0.01","0.24","29.9279","4.71604","42.26","0","SATNPRO1509","31.71","0.44412","5"],
    [11774,"HCEP03730566","2024-01-28 21:30:00","10.7169","3.3683","26.438","3.859","7.51","0.355","6.699","0.02","1.68","29.9225","4.71528","42.05","0","SATNPRO1509","31.65","0.44332","5"],
    [11775,"HCEP03730566","2024-01-28 21:45:00","10.7134","3.36707","26.309","3.827","7.51","0.381","7.574","0.02","0.62","29.9133","4.71402","41.69","0","SATNPRO1509","31.47","0.4408","5"],
    [11776,"HCEP03730566","2024-01-28 22:00:00","10.6954","3.36258","26.123","3.766","7.51","0.377","6.734","0.01","0.35","29.8838","4.7101","41","0","SATNPRO1509","31.488","0.441","5"],
    [11777,"HCEP03730566","2024-01-28 22:15:00","10.6694","3.35639","25.821","3.718","7.5","0.392","6.611","0.01","0.34","29.8441","4.70485","40.45","0","SATNPRO1509","31.644000000000002","0.4432","5"],
    [11778,"HCEP03730566","2024-01-28 22:30:00","10.6627","3.3549","25.553","3.719","7.5","0.45","6.532","0.03","0.37","29.8351","4.70366","40.45","0","SATNPRO1509","31.714","0.44422","5"],
    [11779,"HCEP03730566","2024-01-28 22:45:00","10.6594","3.35392","25.438","3.733","7.5","0.409","5.664","0.02","0.31","29.8282","4.70272","40.6","0","SATNPRO1509","31.742","0.4446","5"],
    [11780,"HCEP03730566","2024-01-28 23:00:00","10.6554","3.35334","25.247","3.749","7.5","0.387","5.735","0.01","0.54","29.8258","4.70243","40.77","0","SATNPRO1509","31.564","0.4421","5"],
    [11781,"HCEP03730566","2024-01-28 23:15:00","10.6504","3.35229","25.163","3.751","7.5","0.404","5.231","0.01","0.25","29.8195","4.70161","40.79","0","SATNPRO1509","31.784","0.44518","5"],
    [11782,"HCEP03730566","2024-01-28 23:30:00","10.6535","3.35293","25.143","3.76","7.5","0.52","7.836","0.1","1.55","29.8233","4.7021","40.88","0","SATNPRO1509","31.776","0.44508","5"],
    [11783,"HCEP03730566","2024-01-28 23:45:00","10.6591","3.35422","25.059","3.761","7.5","0.465","6.64","0.03","0.42","29.8315","4.70317","40.9","0","SATNPRO1509","31.806","0.44552","5"],
    [11784,"HCEP03730566","2024-01-29 00:00:00","10.6605","3.35454","25.071","3.756","7.5","0.434","5.586","0.05","0.71","29.8336","4.70345","40.85","0","SATNPRO1509","31.78","0.44512","5"],
    [11785,"HCEP03730566","2024-01-29 00:15:00","10.6606","3.35462","25.054","3.751","7.5","0.384","4.516","0.01","0.22","29.8342","4.70354","40.8","0","SATNPRO1509","31.744","0.44466","5"],
    [11786,"HCEP03730566","2024-01-29 00:30:00","10.6603","3.35453","25.064","3.748","7.5","0.417","9.611","0.15","13.27","29.8336","4.70346","40.77","0","SATNPRO1509","31.788","0.44522","5"],
    [11787,"HCEP03730566","2024-01-29 00:45:00","10.6592","3.35435","25.12","3.745","7.5","0.379","4.332","0.01","0.19","29.8327","4.70335","40.74","0","SATNPRO1509","31.778000000000002","0.4451","5"],
    [11788,"HCEP03730566","2024-01-29 01:00:00","10.6582","3.35419","25.236","3.745","7.5","0.372","4.232","0.02","0.37","29.8319","4.70325","40.73","0","SATNPRO1509","31.686","0.44384","5"],
    [11789,"HCEP03730566","2024-01-29 01:15:00","10.6589","3.35425","25.246","3.742","7.5","0.391","4.278","0.02","0.28","29.8319","4.70324","40.69","0","SATNPRO1509","31.714","0.44422","5"],
    [11790,"HCEP03730566","2024-01-29 01:30:00","10.6593","3.35426","25.35","3.738","7.5","0.374","4.352","0.01","0.31","29.8316","4.7032","40.65","0","SATNPRO1509","31.736","0.4445","5"],
    [11791,"HCEP03730566","2024-01-29 01:45:00","10.659","3.35408","25.443","3.725","7.5","0.392","4.935","0.02","0.39","29.83","4.70299","40.51","0","SATNPRO1509","31.706","0.44408","5"],
    [11792,"HCEP03730566","2024-01-29 02:00:00","10.6543","3.35309","25.56","3.723","7.5","0.377","5.024","0.02","0.44","29.8241","4.70222","40.48","0","SATNPRO1509","31.71","0.44414","5"],
    [11793,"HCEP03730566","2024-01-29 02:15:00","10.6283","3.34828","25.738","3.733","7.5","0.375","4.468","0.01","0.22","29.7978","4.69891","40.56","0","SATNPRO1509","31.55","0.44194","5"],
    [11794,"HCEP03730566","2024-01-29 02:30:00","10.6241","3.34757","25.797","3.728","7.5","0.374","4.823","0.01","0.23","29.7942","4.69846","40.51","0","SATNPRO1509","31.544","0.44184","5"],
    [11795,"HCEP03730566","2024-01-29 02:45:00","10.6321","3.34913","25.919","3.716","7.5","0.531","12.216","0.18","5.67","29.803","4.69959","40.39","0","SATNPRO1509","31.656","0.44344","5"],
    [11796,"HCEP03730566","2024-01-29 03:00:00","10.637","3.35003","26.079","3.713","7.5","0.357","4.546","0.01","0.1","29.8078","4.7002","40.35","0","SATNPRO1509","31.64","0.44318","5"],
    [11797,"HCEP03730566","2024-01-29 03:15:00","10.6451","3.35133","26.253","3.718","7.5","0.373","4.159","0.01","0.12","29.814","4.70098","40.42","0","SATNPRO1509","31.762","0.44486","5"],
    [11798,"HCEP03730566","2024-01-29 03:30:00","10.6533","3.35282","26.456","3.726","7.5","0.362","4.303","0.02","0.14","29.8219","4.70198","40.52","0","SATNPRO1509","31.817999999999998","0.44566","5"],
    [11799,"HCEP03730566","2024-01-29 03:45:00","10.6524","3.35288","26.563","3.725","7.5","0.369","4.257","0.02","0.48","29.8232","4.70218","40.51","0","SATNPRO1509","31.794","0.44538","5"],
    [11800,"HCEP03730566","2024-01-29 04:00:00","10.6487","3.35208","26.795","3.73","7.5","0.402","5.84","0.09","2.52","29.8182","4.70154","40.56","0","SATNPRO1509","31.722","0.44428","5"],
    [11801,"HCEP03730566","2024-01-29 04:15:00","10.6531","3.35298","26.989","3.709","7.5","0.388","6.728","0.04","3.54","29.8234","4.70223","40.33","0","SATNPRO1509","31.688","0.44384","5"],
    [11802,"HCEP03730566","2024-01-29 04:30:00","10.6558","3.3534","27.168","3.699","7.5","0.421","5.2","0.03","0.47","29.8253","4.70246","40.22","0","SATNPRO1509","31.605999999999998","0.4427","5"],
    [11803,"HCEP03730566","2024-01-29 04:45:00","10.6447","3.3518","27.425","3.68","7.5","0.685","19.483","0.23","19.33","29.8185","4.70168","40.01","0","SATNPRO1509","31.486","0.44104","5"],
    [11804,"HCEP03730566","2024-01-29 05:00:00","10.642","3.35146","27.583","3.682","7.49","0.408","10.061","0.06","4.72","29.8172","4.70156","40.03","0","SATNPRO1509","31.404","0.43982","5"],
    [11805,"HCEP03730566","2024-01-29 05:15:00","10.6447","3.35203","27.858","3.676","7.49","0.952","49.212","0.67","19.78","29.8205","4.702","39.97","0","SATNPRO1509","31.428","0.44022","5"],
    [11806,"HCEP03730566","2024-01-29 05:30:00","10.6426","3.35178","27.997","3.678","7.49","0.394","9.474","0.05","3.07","29.8197","4.70192","39.98","0","SATNPRO1509","31.452","0.44054","5"],
    [11807,"HCEP03730566","2024-01-29 05:45:00","10.6332","3.35055","28.063","3.707","7.49","0.398","7.237","0.06","1.59","29.8153","4.70145","40.29","0","SATNPRO1509","31.41","0.43988","5"],
    [11808,"HCEP03730566","2024-01-29 06:00:00","10.6285","3.34951","28.249","3.738","7.5","0.383","4.579","0.03","0.32","29.8088","4.7006","40.62","0","SATNPRO1509","31.392","0.43972","5"],
    [11809,"HCEP03730566","2024-01-29 06:15:00","10.6257","3.34925","28.38","3.75","7.5","0.486","5.741","0.1","0.97","29.8084","4.70061","40.75","0","SATNPRO1509","31.406","0.43992","5"],
    [11810,"HCEP03730566","2024-01-29 06:30:00","10.6234","3.34933","28.455","3.787","7.5","1.308","31.225","0.48","16.29","29.8111","4.70104","41.15","0","SATNPRO1509","31.422","0.4401","5"],
    [11811,"HCEP03730566","2024-01-29 06:45:00","10.639","3.35273","28.515","3.811","7.5","0.382","5.065","0.03","0.42","29.8318","4.70374","41.43","0","SATNPRO1509","31.428","0.44026","5"],
    [11812,"HCEP03730566","2024-01-29 07:00:00","10.6473","3.35453","28.541","3.826","7.5","0.452","24.115","0.07","12.41","29.8428","4.70517","41.61","0","SATNPRO1509","31.434","0.44034","5"],
    [11813,"HCEP03730566","2024-01-29 07:15:00","10.6572","3.35673","28.529","3.846","7.51","0.656","12.726","0.11","6.18","29.8564","4.70695","41.84","0","SATNPRO1509","31.556","0.44204","5"],
    [11814,"HCEP03730566","2024-01-29 07:30:00","10.668","3.3586","28.53","3.81","7.51","1.003","16.194","0.68","8.72","29.8659","4.70813","41.45","0","SATNPRO1509","31.233999999999998","0.43748","5"],
    [11815,"HCEP03730566","2024-01-29 07:45:00","10.6755","3.35995","28.555","3.773","7.5","0.495","7.057","0.32","4.87","29.8731","4.70904","41.06","0","SATNPRO1509","31.388","0.43966","5"],
    [11816,"HCEP03730566","2024-01-29 08:00:00","10.6818","3.36088","28.48","3.743","7.5","0.348","4.78","0.01","0.21","29.8772","4.70952","40.74","0","SATNPRO1509","31.536","0.44174","5"],
    [11817,"HCEP03730566","2024-01-29 08:15:00","10.6843","3.3613","28.464","3.729","7.5","0.374","5.01","0.01","0.11","29.8793","4.70977","40.6","0","SATNPRO1509","31.436","0.4403","5"],
    [11818,"HCEP03730566","2024-01-29 08:30:00","10.6852","3.36128","28.419","3.74","7.5","0.366","4.359","0.02","0.18","29.8784","4.70963","40.71","0","SATNPRO1509","31.608","0.44274","5"],
    [11819,"HCEP03730566","2024-01-29 08:45:00","10.6817","3.36073","28.331","3.742","7.5","0.36","4.496","0.01","0.13","29.8759","4.70932","40.73","0","SATNPRO1509","31.636","0.4431","5"],
    [11820,"HCEP03730566","2024-01-29 09:00:00","10.6801","3.36048","28.265","3.746","7.5","0.353","4.742","0.02","0.15","29.8747","4.70918","40.78","0","SATNPRO1509","31.636","0.44312","5"],
    [11821,"HCEP03730566","2024-01-29 09:15:00","10.6809","3.3608","28.163","3.74","7.5","0.384","4.818","0.03","0.43","29.8773","4.70952","40.71","0","SATNPRO1509","31.368","0.43938","5"],
    [11822,"HCEP03730566","2024-01-29 09:30:00","10.6868","3.36185","28.055","3.74","7.5","0.371","4.628","0.02","0.26","29.8829","4.71022","40.71","0","SATNPRO1509","31.384","0.4396","5"],
    [11823,"HCEP03730566","2024-01-29 09:45:00","10.6904","3.3626","27.982","3.737","7.5","0.476","14.317","0.41","25.09","29.8873","4.71079","40.68","0","SATNPRO1509","31.596","0.44258","5"],
    [11824,"HCEP03730566","2024-01-29 10:00:00","10.6962","3.36376","27.937","3.741","7.5","0.353","4.487","0.01","1.16","29.8941","4.71165","40.73","0","SATNPRO1509","31.656","0.4434","5"],
    [11825,"HCEP03730566","2024-01-29 10:15:00","10.7005","3.36457","27.794","3.739","7.5","0.522","9.225","0.73","19.1","29.8986","4.71223","40.71","0","SATNPRO1509","31.576","0.44226","5"],
    [11826,"HCEP03730566","2024-01-29 10:30:00","10.7038","3.36515","27.656","3.74","7.5","0.366","4.644","0.06","0.73","29.9016","4.71259","40.73","0","SATNPRO1509","31.744","0.44462","5"],
    [11827,"HCEP03730566","2024-01-29 10:45:00","10.7051","3.36548","27.545","3.744","7.5","0.362","4.487","0.01","0.22","29.9039","4.71288","40.78","0","SATNPRO1509","31.727999999999998","0.44438","5"],
    [11828,"HCEP03730566","2024-01-29 11:00:00","10.7042","3.36546","27.423","3.73","7.5","0.359","4.663","0.02","0.23","29.9045","4.71298","40.63","0","SATNPRO1509","31.584","0.4424","5"],
    [11829,"HCEP03730566","2024-01-29 11:15:00","10.7073","3.36616","27.256","3.748","7.5","0.493","13.486","0.33","8.55","29.9088","4.71353","40.82","0","SATNPRO1509","31.62","0.44288","5"],
    [11830,"HCEP03730566","2024-01-29 11:30:00","10.7054","3.36635","27.139","3.737","7.5","0.363","9.785","0.06","9.94","29.9124","4.71407","40.7","0","SATNPRO1509","31.448","0.44048","5"],
    [11831,"HCEP03730566","2024-01-29 11:45:00","10.7084","3.36707","26.999","3.745","7.5","0.377","4.835","0.02","0.17","29.917","4.71467","40.8","0","SATNPRO1509","31.54","0.4418","5"],
    [11832,"HCEP03730566","2024-01-29 12:00:00","10.7101","3.3674","26.818","3.746","7.5","0.348","4.832","0.01","0.26","29.919","4.71492","40.81","0","SATNPRO1509","31.57","0.44218","5"],
    [11833,"HCEP03730566","2024-01-29 12:15:00","10.713","3.3683","26.702","3.782","7.5","0.355","4.539","0.01","0.19","29.9255","4.71578","41.21","0","SATNPRO1509","31.57","0.4422","5"],
    [11834,"HCEP03730566","2024-01-29 12:30:00","10.72","3.37149","26.6","3.977","7.51","0.371","4.015","0.08","3.01","29.9512","4.71933","43.35","0","SATNPRO1509","31.782","0.44516","5"],
    [11835,"HCEP03730566","2024-01-29 12:45:00","10.7193","3.37103","26.554","3.992","7.52","0.372","3.178","0.03","0.11","29.9473","4.71878","43.51","0","SATNPRO1509","31.714","0.4442","5"],
    [11836,"HCEP03730566","2024-01-29 13:00:00","10.7229","3.37165","26.443","3.965","7.52","0.34","3.815","0.01","0.09","29.9505","4.71918","43.22","0","SATNPRO1509","31.714","0.44422","5"],
    [11837,"HCEP03730566","2024-01-29 13:15:00","10.7234","3.37168","26.406","3.937","7.52","0.439","4.922","0.02","0.21","29.9505","4.71916","42.91","0","SATNPRO1509","31.638","0.4431","5"],
    [11838,"HCEP03730566","2024-01-29 13:30:00","10.7268","3.37287","26.343","3.964","7.52","0.367","4.31","0.02","0.12","29.9594","4.72037","43.21","0","SATNPRO1509","31.796","0.44534","5"],
    [11839,"HCEP03730566","2024-01-29 13:45:00","10.7276","3.37321","26.313","4.001","7.52","0.489","4.638","0.03","0.33","29.9621","4.72074","43.61","0","SATNPRO1509","31.804","0.44542","5"],
    [11840,"HCEP03730566","2024-01-29 14:00:00","10.7284","3.37341","26.413","4.013","7.52","0.399","4.447","0.02","0.43","29.9633","4.7209","43.74","0","SATNPRO1509","31.762","0.44486","5"],
    [11841,"HCEP03730566","2024-01-29 14:15:00","10.728","3.37305","26.419","3.981","7.52","0.385","4.433","0.03","0.28","29.9602","4.72047","43.4","0","SATNPRO1509","31.568","0.44218","5"],
    [11842,"HCEP03730566","2024-01-29 14:30:00","10.73","3.37342","26.537","3.899","7.52","0.382","5.071","0.06","0.6","29.9621","4.72072","42.5","0","SATNPRO1509","31.312","0.43858","5"],
    [11843,"HCEP03730566","2024-01-29 14:45:00","10.7408","3.37616","26.652","3.835","7.52","0.713","27.841","0.66","36.76","29.9801","4.72311","41.82","0","SATNPRO1509","31.248","0.43766","5"],
    [11844,"HCEP03730566","2024-01-29 15:00:00","10.7478","3.37798","26.685","3.866","7.52","0.47","11.311","0.39","14.4","29.9923","4.72474","42.17","0","SATNPRO1509","31.332","0.43884","5"],
    [11845,"HCEP03730566","2024-01-29 15:15:00","10.7519","3.37933","26.742","3.918","7.52","0.52","13.549","0.22","12.64","30.0022","4.72608","42.75","0","SATNPRO1509","31.342","0.43902","5"],
    [11846,"HCEP03730566","2024-01-29 15:30:00","10.7506","3.37946","26.807","3.981","7.52","0.36","4.432","0.02","0.2","30.0046","4.72645","43.43","0","SATNPRO1509","31.451999999999998","0.44054","5"],
    [11847,"HCEP03730566","2024-01-29 15:45:00","10.7506","3.37932","26.864","3.979","7.52","7.854","82.107","4.07","27.54","30.0032","4.72625","43.41","0","SATNPRO1509","31.48","0.44092","5"],
    [11848,"HCEP03730566","2024-01-29 16:00:00","10.7512","3.37922","26.946","3.958","7.52","0.342","4.505","0.01","0.13","30.0016","4.72602","43.18","0","SATNPRO1509","31.426000000000002","0.44018","5"],
    [11849,"HCEP03730566","2024-01-29 16:15:00","10.7505","3.3793","27.002","3.944","7.52","0.361","4.863","0.02","0.16","30.003","4.72624","43.03","0","SATNPRO1509","31.398","0.43978","5"],
    [11850,"HCEP03730566","2024-01-29 16:30:00","10.7509","3.37909","27.011","3.939","7.52","0.377","5.054","0.02","0.22","30.0006","4.72588","42.97","0","SATNPRO1509","31.442","0.44038","5"],
    [11851,"HCEP03730566","2024-01-29 16:45:00","10.7525","3.38005","27.105","4.019","7.52","0.376","4.203","0.02","0.2","30.0087","4.72701","43.85","0","SATNPRO1509","31.604","0.44268","5"],
    [11852,"HCEP03730566","2024-01-29 17:00:00","10.7534","3.38032","27.195","4.05","7.53","0.379","4.057","0.03","0.24","30.0106","4.72727","44.19","0","SATNPRO1509","31.612000000000002","0.44276","5"],
    [11853,"HCEP03730566","2024-01-29 17:15:00","10.7556","3.38079","27.267","4.02","7.53","0.401","5.034","0.02","0.35","30.0134","4.72765","43.86","0","SATNPRO1509","31.566","0.44214","5"],
    [11854,"HCEP03730566","2024-01-29 17:30:00","10.7564","3.38063","27.32","4.008","7.53","0.433","4.839","0.06","0.25","30.011","4.7273","43.73","0","SATNPRO1509","31.61","0.44274","5"],
    [11855,"HCEP03730566","2024-01-29 17:45:00","10.7509","3.37896","27.352","3.973","7.53","0.355","4.632","0.03","0.25","29.9991","4.7257","43.35","0","SATNPRO1509","31.556","0.44202","5"],
    [11856,"HCEP03730566","2024-01-29 18:00:00","10.7484","3.37834","27.391","3.942","7.52","0.394","5.755","0.06","1.22","29.9951","4.72516","43","0","SATNPRO1509","31.502","0.44124","5"],
    [11857,"HCEP03730566","2024-01-29 18:15:00","10.7362","3.37519","27.47","3.965","7.52","0.437","5.172","0.13","1.14","29.974","4.72236","43.23","0","SATNPRO1509","31.642","0.44322","5"],
    [11858,"HCEP03730566","2024-01-29 18:30:00","10.736","3.37539","27.502","3.99","7.52","0.353","4.315","0.03","0.36","29.9761","4.72267","43.51","0","SATNPRO1509","31.664","0.44352","5"],
    [11859,"HCEP03730566","2024-01-29 18:45:00","10.7364","3.37557","27.572","3.995","7.52","2.103","225.347","1.27","83.37","29.9776","4.72287","43.56","0","SATNPRO1509","31.678","0.4437","5"],
    [11860,"HCEP03730566","2024-01-29 19:00:00","10.7381","3.37601","27.527","4.009","7.52","6.222","531.727","5.32","280.1","29.9805","4.72326","43.72","0","SATNPRO1509","31.634","0.44312","5"],
    [11861,"HCEP03730566","2024-01-29 19:15:00","10.7401","3.37622","27.576","3.973","7.52","0.384","5.156","0.03","0.38","29.981","4.72331","43.33","0","SATNPRO1509","31.61","0.44272","5"],
    [11862,"HCEP03730566","2024-01-29 19:30:00","10.7393","3.37609","27.515","3.97","7.52","0.345","4.596","0.04","0.26","29.9804","4.72322","43.3","0","SATNPRO1509","31.592","0.44248","5"],
    [11863,"HCEP03730566","2024-01-29 19:45:00","10.738","3.37581","27.467","3.97","7.52","7.625","125.888","2.3","46.15","29.9786","4.72299","43.29","0","SATNPRO1509","31.608","0.44272","5"],
    [11864,"HCEP03730566","2024-01-29 20:00:00","10.7392","3.37601","27.369","3.957","7.52","0.459","6.656","0.03","0.45","29.9797","4.72312","43.15","0","SATNPRO1509","31.608","0.44274","5"],
    [11865,"HCEP03730566","2024-01-29 20:15:00","10.7413","3.37645","27.33","3.936","7.52","0.532","8.153","0.04","0.78","29.9823","4.72345","42.93","0","SATNPRO1509","31.584","0.44238","5"],
    [11866,"HCEP03730566","2024-01-29 20:30:00","10.7436","3.37696","27.267","3.919","7.52","0.403","5.684","0.03","0.27","29.9855","4.72387","42.74","0","SATNPRO1509","31.556","0.44198","5"],
    [11867,"HCEP03730566","2024-01-29 20:45:00","10.7436","3.37688","27.185","3.918","7.52","0.436","5.788","0.03","0.45","29.9847","4.72375","42.73","0","SATNPRO1509","31.568","0.44216","5"],
    [11868,"HCEP03730566","2024-01-29 21:00:00","10.739","3.37624","27.018","3.941","7.52","4.377","75.346","3.61","38.31","29.9822","4.72346","42.98","0","SATNPRO1509","31.558","0.44202","5"],
    [11869,"HCEP03730566","2024-01-29 21:15:00","10.7368","3.37583","26.903","3.95","7.52","1.585","32.204","0.13","8.85","29.9801","4.72318","43.07","0","SATNPRO1509","31.632","0.44308","5"],
    [11870,"HCEP03730566","2024-01-29 21:30:00","10.733","3.37473","26.789","3.935","7.52","1.355","45.076","0.22","11.11","29.9724","4.72215","42.91","0","SATNPRO1509","31.574","0.44222","5"],
    [11871,"HCEP03730566","2024-01-29 21:45:00","10.728","3.37329","26.608","3.915","7.52","3.871","78.387","2.92","38.26","29.9625","4.7208","42.68","0","SATNPRO1509","31.644000000000002","0.44326","5"],
    [11872,"HCEP03730566","2024-01-29 22:00:00","10.7244","3.37248","26.577","3.9","7.52","0.346","4.887","0.02","0.27","29.9574","4.72014","42.51","0","SATNPRO1509","31.63","0.44308","5"],
    [11873,"HCEP03730566","2024-01-29 22:15:00","10.7237","3.37208","26.344","3.886","7.52","0.365","4.806","0.01","0.23","29.9542","4.71968","42.35","0","SATNPRO1509","31.654","0.44332","5"],
    [11874,"HCEP03730566","2024-01-29 22:30:00","10.7225","3.37186","26.322","3.872","7.51","0.451","15.293","0.12","6.99","29.953","4.71952","42.2","0","SATNPRO1509","31.656","0.44336","5"],
    [11875,"HCEP03730566","2024-01-29 22:45:00","10.7251","3.37218","26.214","3.871","7.51","4.869","48.504","6.54","46.23","29.954","4.71962","42.19","0","SATNPRO1509","31.644","0.44324","5"],
    [11876,"HCEP03730566","2024-01-29 23:00:00","10.7249","3.37239","25.947","3.879","7.51","0.62","24.818","0.17","14.58","29.9564","4.71994","42.29","0","SATNPRO1509","31.668","0.44358","5"],
    [11877,"HCEP03730566","2024-01-29 23:15:00","10.7248","3.37237","25.895","3.883","7.51","0.587","20.777","0.13","8.87","29.9563","4.71993","42.33","0","SATNPRO1509","31.608","0.4427","5"],
    [11878,"HCEP03730566","2024-01-29 23:30:00","10.7237","3.3722","25.76","3.875","7.51","1.306","67.772","0.39","15.93","29.9556","4.71984","42.24","0","SATNPRO1509","31.592000000000002","0.44248","5"],
    [11879,"HCEP03730566","2024-01-29 23:45:00","10.7239","3.37217","25.566","3.877","7.51","0.404","23.105","0.07","34.61","29.9552","4.71977","42.26","0","SATNPRO1509","31.695999999999998","0.44398","5"],
    [11880,"HCEP03730566","2024-01-30 00:00:00","10.7224","3.37185","25.468","3.87","7.51","0.38","4.715","0.03","0.25","29.9533","4.71952","42.19","0","SATNPRO1509","31.616","0.44278","5"],
    [11881,"HCEP03730566","2024-01-30 00:15:00","10.7246","3.37234","25.416","3.86","7.51","0.353","4.792","0.01","0.25","29.9563","4.71991","42.07","0","SATNPRO1509","31.528","0.44158","5"],
    [11882,"HCEP03730566","2024-01-30 00:30:00","10.7198","3.37114","25.325","3.842","7.51","0.362","5.311","0.03","0.85","29.9485","4.71888","41.87","0","SATNPRO1509","31.648","0.44326","5"],
    [11883,"HCEP03730566","2024-01-30 00:45:00","10.7177","3.37017","25.321","3.809","7.51","0.377","5.339","0.02","0.27","29.9406","4.71779","41.51","0","SATNPRO1509","31.466","0.4407","5"],
    [11884,"HCEP03730566","2024-01-30 01:00:00","10.7167","3.3701","25.359","3.798","7.51","0.371","5.66","0.02","0.38","29.9408","4.71782","41.39","0","SATNPRO1509","31.201999999999998","0.43706","5"],
    [11885,"HCEP03730566","2024-01-30 01:15:00","10.7161","3.36996","25.467","3.804","7.51","0.386","5.408","0.02","0.27","29.9398","4.7177","41.46","0","SATNPRO1509","31.446","0.44044","5"],
    [11886,"HCEP03730566","2024-01-30 01:30:00","10.7196","3.37099","25.547","3.809","7.51","0.366","5.379","0.03","0.36","29.947","4.71867","41.52","0","SATNPRO1509","31.488","0.44104","5"],
    [11887,"HCEP03730566","2024-01-30 01:45:00","10.7227","3.37175","25.565","3.827","7.51","0.37","5.443","0.02","0.29","29.952","4.71933","41.72","0","SATNPRO1509","31.416","0.44006","5"],
    [11888,"HCEP03730566","2024-01-30 02:00:00","10.7246","3.37208","25.674","3.822","7.51","0.357","5.326","0.02","0.33","29.9537","4.71955","41.66","0","SATNPRO1509","31.454","0.44056","5"],
    [11889,"NA","2024-03-01 10:45:00",null,null,null,null,null,null,null,null,null,null,null,null,null,"SATNPRO1509","30.378","0.4255","5"],
    [11890,"HCEP03730566","2024-01-30 02:15:00","10.7271","3.37298","25.834","3.837","7.51","0.509","5.796","0.09","1.02","29.9605","4.72049","41.83","0","SATNPRO1509","31.456","0.44058","5"],
    [11891,"HCEP03730566","2024-01-30 02:30:00","10.7316","3.37406","25.9","3.84","7.51","0.34","4.646","0.02","0.26","29.9674","4.7214","41.86","0","SATNPRO1509","31.598","0.4426","5"],
    [11892,"HCEP03730566","2024-01-30 02:45:00","10.7291","3.37356","26.045","3.846","7.51","0.352","4.898","0.02","0.22","29.9644","4.72102","41.93","0","SATNPRO1509","31.504","0.44124","5"],
    [11893,"HCEP03730566","2024-01-30 03:00:00","10.7236","3.37224","26.139","3.849","7.51","0.342","4.644","0.02","0.24","29.9558","4.7199","41.95","0","SATNPRO1509","31.522","0.44154","5"],
    [11894,"HCEP03730566","2024-01-30 03:15:00","10.7127","3.36986","26.21","3.847","7.51","0.366","4.96","0.03","0.27","29.9413","4.71801","41.91","0","SATNPRO1509","31.458","0.44062","5"],
    [11895,"HCEP03730566","2024-01-30 03:30:00","10.7071","3.36865","26.29","3.838","7.51","0.346","5.422","0.02","0.3","29.934","4.71707","41.82","0","SATNPRO1509","31.34","0.43896","5"],
    [11896,"HCEP03730566","2024-01-30 03:45:00","10.7124","3.36996","26.397","3.83","7.51","0.348","5.168","0.01","0.2","29.9425","4.7182","41.74","0","SATNPRO1509","31.29","0.43828","5"],
    [11897,"HCEP03730566","2024-01-30 04:00:00","10.7154","3.37091","26.546","3.834","7.51","0.328","4.725","0.01","0.15","29.9493","4.71912","41.78","0","SATNPRO1509","31.402","0.43986","5"],
    [11898,"HCEP03730566","2024-01-30 04:15:00","10.7161","3.37069","26.716","3.836","7.51","0.341","4.539","0.01","0.13","29.9465","4.71873","41.8","0","SATNPRO1509","31.48","0.44092","5"],
    [11899,"HCEP03730566","2024-01-30 04:30:00","10.7198","3.37148","26.861","3.831","7.51","0.342","5.126","0.01","0.23","29.9512","4.71934","41.76","0","SATNPRO1509","31.458","0.44062","5"],
    [11900,"HCEP03730566","2024-01-30 04:45:00","10.721","3.37199","27.032","3.831","7.51","0.349","5.053","0.01","0.18","29.9552","4.7199","41.75","0","SATNPRO1509","31.508","0.44132","5"],
    [11901,"HCEP03730566","2024-01-30 05:00:00","10.7209","3.37199","27.2","3.837","7.51","0.341","4.688","0.01","0.17","29.9551","4.7199","41.82","0","SATNPRO1509","31.478","0.4409","5"],
    [11902,"HCEP03730566","2024-01-30 05:15:00","10.7197","3.37166","27.374","3.834","7.51","0.35","4.578","0.01","0.18","29.9529","4.71961","41.79","0","SATNPRO1509","31.48","0.44092","5"],
    [11903,"HCEP03730566","2024-01-30 05:30:00","10.7167","3.37084","27.55","3.82","7.51","0.34","4.876","0.01","0.18","29.9472","4.71887","41.63","0","SATNPRO1509","31.358","0.4392","5"],
    [11904,"HCEP03730566","2024-01-30 05:45:00","10.7137","3.37019","27.708","3.814","7.51","0.351","4.881","0.01","0.35","29.9431","4.71834","41.56","0","SATNPRO1509","31.43","0.44022","5"],
    [11905,"HCEP03730566","2024-01-30 06:00:00","10.7117","3.36969","27.853","3.814","7.51","0.341","4.718","0.01","0.19","29.9398","4.71791","41.55","0","SATNPRO1509","31.504","0.4413","5"],
    [11906,"HCEP03730566","2024-01-30 06:15:00","10.7109","3.36952","27.98","3.811","7.51","0.348","4.684","0.01","0.26","29.9387","4.71777","41.52","0","SATNPRO1509","31.514","0.4414","5"],
    [11907,"HCEP03730566","2024-01-30 06:30:00","10.7083","3.36887","28.123","3.806","7.51","0.44","5.422","0.05","0.26","29.9344","4.71721","41.46","0","SATNPRO1509","31.51","0.44138","5"],
    [11908,"HCEP03730566","2024-01-30 06:45:00","10.7082","3.3687","28.217","3.796","7.51","0.436","5.435","0.06","0.7","29.9328","4.71698","41.36","0","SATNPRO1509","31.526","0.44158","5"],
    [11909,"HCEP03730566","2024-01-30 07:00:00","10.7022","3.36714","28.269","3.787","7.51","1.642","42.44","0.63","4.4","29.9223","4.71558","41.25","0","SATNPRO1509","31.582","0.44232","5"],
    [11910,"HCEP03730566","2024-01-30 07:15:00","10.6948","3.3652","28.313","3.769","7.51","0.36","3.781","0.02","0.2","29.9092","4.71384","41.05","0","SATNPRO1509","31.644000000000002","0.44322","5"],
    [11911,"HCEP03730566","2024-01-30 07:30:00","10.6885","3.36415","28.356","3.752","7.5","0.358","4.267","0.02","0.28","29.904","4.71321","40.85","0","SATNPRO1509","31.6","0.44264","5"],
    [11912,"HCEP03730566","2024-01-30 07:45:00","10.6834","3.36281","28.388","3.736","7.5","0.352","3.686","0.02","0.34","29.895","4.71201","40.67","0","SATNPRO1509","31.608","0.44272","5"],
    [11913,"HCEP03730566","2024-01-30 08:00:00","10.6848","3.36305","28.379","3.733","7.5","0.409","4.729","0.03","0.25","29.8962","4.71216","40.64","0","SATNPRO1509","31.560000000000002","0.44206","5"],
    [11914,"HCEP03730566","2024-01-30 08:15:00","10.6928","3.36488","28.374","3.697","7.5","5.165","72.605","4.31","38.27","29.9077","4.71367","40.26","0","SATNPRO1509","31.464","0.44072","5"],
    [11915,"HCEP03730566","2024-01-30 08:30:00","10.6978","3.366","28.347","3.729","7.5","0.342","4.288","0.02","0.34","29.9146","4.71458","40.62","0","SATNPRO1509","31.648","0.44326","5"],
    [11916,"HCEP03730566","2024-01-30 08:45:00","10.6981","3.36607","28.306","3.741","7.5","0.405","4.518","0.06","0.61","29.9151","4.71463","40.75","0","SATNPRO1509","31.54","0.44178","5"],
    [11917,"HCEP03730566","2024-01-30 09:00:00","10.7097","3.36895","28.247","3.75","7.5","0.339","4.594","0.03","0.27","29.9341","4.71715","40.86","0","SATNPRO1509","31.298000000000002","0.43836","5"],
    [11918,"HCEP03730566","2024-01-30 09:15:00","10.7126","3.36967","28.173","3.76","7.5","0.358","4.854","0.02","0.26","29.9387","4.71776","40.97","0","SATNPRO1509","31.392","0.4397","5"],
    [11919,"HCEP03730566","2024-01-30 09:30:00","10.7172","3.37084","28.111","3.756","7.5","0.393","5.46","0.07","0.58","29.9466","4.7188","40.93","0","SATNPRO1509","31.302","0.43844","5"],
    [11920,"HCEP03730566","2024-01-30 09:45:00","10.7212","3.37192","27.987","3.77","7.5","0.355","4.968","0.03","0.65","29.9539","4.71977","41.09","0","SATNPRO1509","31.06","0.435","5"],
    [11921,"HCEP03730566","2024-01-30 10:00:00","10.7253","3.37302","27.899","3.769","7.5","2.46","47.106","3.32","37.55","29.9614","4.72076","41.08","0","SATNPRO1509","31.108","0.43572","5"],
    [11922,"HCEP03730566","2024-01-30 10:15:00","10.7284","3.37381","27.82","3.77","7.51","0.347","4.757","0.02","0.43","29.9667","4.72146","41.1","0","SATNPRO1509","31.068","0.43516","5"],
    [11923,"HCEP03730566","2024-01-30 10:30:00","10.7299","3.37429","27.72","3.792","7.51","0.346","4.388","0.03","0.22","29.9703","4.72195","41.34","0","SATNPRO1509","31.068","0.43518","5"],
    [11924,"HCEP03730566","2024-01-30 10:45:00","10.7308","3.37457","27.624","3.802","7.51","0.367","4.755","0.05","0.49","29.9723","4.72221","41.45","0","SATNPRO1509","31.192","0.43692","5"],
    [11925,"HCEP03730566","2024-01-30 11:00:00","10.7319","3.3748","27.488","3.775","7.51","0.338","4.697","0.02","0.23","29.9737","4.72239","41.16","0","SATNPRO1509","31.28","0.43816","5"],
    [11926,"HCEP03730566","2024-01-30 11:15:00","10.7325","3.37512","27.289","3.802","7.51","0.372","8.196","0.03","7.85","29.9765","4.72276","41.46","0","SATNPRO1509","31.482","0.44096","5"],
    [11927,"HCEP03730566","2024-01-30 11:30:00","10.7335","3.37541","27.123","3.805","7.51","0.37","5.136","0.05","0.29","29.9786","4.72304","41.49","0","SATNPRO1509","31.298000000000002","0.43838","5"],
    [11928,"HCEP03730566","2024-01-30 11:45:00","10.735900000000001","3.37595","26.99","3.807","7.51","0.343","4.784","0.01","0.39","29.982","4.72347","41.51","0","SATNPRO1509","31.35","0.43912","5"],
    [11929,"HCEP03730566","2024-01-30 12:00:00","10.7374","3.37625","26.81","3.827","7.51","0.344","4.709","0.02","0.22","29.9838","4.7237","41.73","0","SATNPRO1509","31.398","0.43978","5"],
    [11930,"HCEP03730566","2024-01-30 12:15:00","10.7386","3.37663","26.69","3.84","7.51","0.348","4.932","0.01","0.23","29.9866","4.72408","41.88","0","SATNPRO1509","31.448","0.4405","5"],
    [11931,"HCEP03730566","2024-01-30 12:30:00","10.7376","3.37643","26.558","3.853","7.51","0.338","4.547","0.01","0.2","29.9855","4.72391","42.01","0","SATNPRO1509","31.477999999999998","0.4409","5"],
    [11932,"HCEP03730566","2024-01-30 12:45:00","10.7353","3.37588","26.446","3.862","7.51","0.345","4.491","0.01","0.18","29.982","4.72346","42.11","0","SATNPRO1509","31.548","0.44188","5"],
    [11933,"HCEP03730566","2024-01-30 13:00:00","10.7351","3.37599","26.346","3.862","7.51","0.339","4.906","0.01","0.34","29.9833","4.72363","42.11","0","SATNPRO1509","31.486","0.44106","5"],
    [11934,"HCEP03730566","2024-01-30 13:15:00","10.7415","3.37772","26.227","3.899","7.51","0.348","4.97","0.01","0.31","29.9951","4.72521","42.52","0","SATNPRO1509","31.524","0.44154","5"],
    [11935,"HCEP03730566","2024-01-30 13:30:00","10.7426","3.37849","26.114","3.926","7.51","0.338","4.729","0.02","0.27","30.0019","4.72615","42.82","0","SATNPRO1509","31.387999999999998","0.43966","5"],
    [11936,"HCEP03730566","2024-01-30 13:45:00","10.743","3.38025","26.048","4.032","7.52","0.348","4.074","0.01","0.28","30.0189","4.72855","43.99","0","SATNPRO1509","31.422","0.44012","5"],
    [11937,"HCEP03730566","2024-01-30 14:00:00","10.7435","3.38109","26.06","4.117","7.53","0.334","4.347","0.01","0.22","30.0267","4.72966","44.92","0","SATNPRO1509","31.368","0.43938","5"],
    [11938,"HCEP03730566","2024-01-30 14:15:00","10.743","3.38115","26.069","4.147","7.53","0.347","4.384","0.01","0.23","30.0277","4.72981","45.24","0","SATNPRO1509","31.386","0.4396","5"],
    [11939,"HCEP03730566","2024-01-30 14:30:00","10.7427","3.38152","26.086","4.172","7.54","0.337","4.256","0.01","0.48","30.0316","4.73036","45.51","0","SATNPRO1509","31.352","0.43914","5"],
    [11940,"HCEP03730566","2024-01-30 14:45:00","10.7422","3.38142","26.16","4.177","7.54","0.348","4.618","0.02","0.34","30.031","4.73029","45.57","0","SATNPRO1509","31.358","0.43924","5"],
    [11941,"HCEP03730566","2024-01-30 15:00:00","10.7415","3.38148","26.193","4.172","7.54","0.337","4.952","0.02","0.38","30.0322","4.73048","45.51","0","SATNPRO1509","31.372","0.43944","5"],
    [11942,"HCEP03730566","2024-01-30 15:15:00","10.7413","3.38185","26.395","4.195","7.54","0.333","4.037","0.01","0.34","30.0358","4.731","45.77","0","SATNPRO1509","31.438","0.44034","5"],
    [11943,"HCEP03730566","2024-01-30 15:30:00","10.739","3.38106","26.419","4.18","7.54","0.328","4.336","0.01","0.22","30.03","4.73022","45.6","0","SATNPRO1509","31.22","0.4373","5"],
    [11944,"HCEP03730566","2024-01-30 15:45:00","10.7379","3.38076","26.455","4.17","7.54","0.346","3.506","0.02","0.21","30.0279","4.72993","45.48","0","SATNPRO1509","31.308","0.43854","5"],
    [11945,"HCEP03730566","2024-01-30 16:00:00","10.7378","3.38056","26.529","4.162","7.54","0.333","3.489","0.02","0.15","30.026","4.72967","45.4","0","SATNPRO1509","31.44","0.44042","5"],
    [11946,"HCEP03730566","2024-01-30 16:15:00","10.7368","3.38027","26.576","4.162","7.54","0.334","3.481","0.01","0.21","30.0239","4.72939","45.4","0","SATNPRO1509","31.444","0.44046","5"],
    [11947,"HCEP03730566","2024-01-30 16:30:00","10.7383","3.38079","26.65","4.177","7.54","0.343","3.585","0.04","0.24","30.0279","4.72994","45.56","0","SATNPRO1509","31.406","0.43986","5"],
    [11948,"HCEP03730566","2024-01-30 16:45:00","10.7405","3.38132","26.712","4.21","7.54","0.346","3.095","0.03","0.25","30.0312","4.73038","45.93","0","SATNPRO1509","31.616","0.44284","5"],
    [11949,"HCEP03730566","2024-01-30 17:00:00","10.7413","3.3816","26.785","4.229","7.54","0.324","3.216","0.03","0.18","30.0332","4.73066","46.14","0","SATNPRO1509","31.524","0.44156","5"],
    [11950,"HCEP03730566","2024-01-30 17:15:00","10.7422","3.38185","26.89","4.23","7.54","1.053","14.091","2.11","22.77","30.0349","4.73089","46.15","0","SATNPRO1509","31.456","0.44058","5"],
    [11951,"HCEP03730566","2024-01-30 17:30:00","10.7424","3.38184","26.959","4.225","7.54","0.337","3.497","0.02","0.15","30.0346","4.73085","46.09","0","SATNPRO1509","31.592","0.44252","5"],
    [11952,"HCEP03730566","2024-01-30 17:45:00","10.7432","3.38191","27.034","4.213","7.54","0.348","3.354","0.03","0.2","30.0347","4.73085","45.96","0","SATNPRO1509","31.482","0.44098","5"],
    [11953,"HCEP03730566","2024-01-30 18:00:00","10.7448","3.38212","27.109","4.226","7.54","0.362","3.479","0.04","0.5","30.0354","4.73092","46.11","0","SATNPRO1509","31.534","0.44172","5"],
    [11954,"HCEP03730566","2024-01-30 18:15:00","10.7448","3.38207","27.167","4.233","7.54","0.373","3.526","0.05","0.48","30.0348","4.73085","46.19","0","SATNPRO1509","31.612000000000002","0.44278","5"],
    [11955,"HCEP03730566","2024-01-30 18:30:00","10.7462","3.38232","27.23","4.24","7.54","0.336","2.768","0.02","0.25","30.0362","4.73103","46.26","0","SATNPRO1509","31.608","0.44276","5"],
    [11956,"HCEP03730566","2024-01-30 18:45:00","10.7454","3.38217","27.302","4.222","7.54","0.355","3.601","0.02","0.51","30.0352","4.73091","46.07","0","SATNPRO1509","31.408","0.43996","5"],
    [11957,"HCEP03730566","2024-01-30 19:00:00","10.7456","3.38222","27.343","4.216","7.54","0.34","3.567","0.04","0.43","30.0356","4.73096","46","0","SATNPRO1509","31.57","0.44222","5"],
    [11958,"HCEP03730566","2024-01-30 19:15:00","10.7462","3.38231","27.347","4.216","7.54","0.35","3.47","0.03","0.25","30.036","4.73101","46","0","SATNPRO1509","31.466","0.44076","5"],
    [11959,"HCEP03730566","2024-01-30 19:30:00","10.7462","3.38233","27.38","4.202","7.54","0.322","3.885","0.02","0.32","30.0362","4.73104","45.84","0","SATNPRO1509","31.466","0.4407","5"],
    [11960,"HCEP03730566","2024-01-30 19:45:00","10.7471","3.38246","27.404","4.205","7.54","0.346","3.499","0.02","0.25","30.0367","4.7311","45.88","0","SATNPRO1509","31.534","0.4417","5"],
    [11961,"HCEP03730566","2024-01-30 20:00:00","10.7484","3.38266","27.399","4.214","7.54","0.328","3.435","0.01","0.24","30.0377","4.73122","45.98","0","SATNPRO1509","31.516000000000002","0.44142","5"],
    [11962,"HCEP03730566","2024-01-30 20:15:00","10.7485","3.38271","27.379","4.21","7.54","0.34","3.45","0.02","0.25","30.0381","4.73127","45.93","0","SATNPRO1509","31.466","0.44074","5"],
    [11963,"HCEP03730566","2024-01-30 20:30:00","10.7486","3.38274","27.331","4.204","7.54","0.326","3.85","0.02","0.26","30.0382","4.73128","45.87","0","SATNPRO1509","31.566","0.44216","5"],
    [11964,"HCEP03730566","2024-01-30 20:45:00","10.7481","3.38265","27.262","4.202","7.54","0.35","3.561","0.04","0.28","30.0378","4.73123","45.85","0","SATNPRO1509","31.534","0.44166","5"],
    [11965,"HCEP03730566","2024-01-30 21:00:00","10.7486","3.38275","27.198","4.193","7.54","0.346","4.399","0.02","0.64","30.0384","4.7313","45.75","0","SATNPRO1509","31.464","0.4407","5"],
    [11966,"HCEP03730566","2024-01-30 21:15:00","10.7484","3.38273","27.113","4.179","7.54","0.342","4.217","0.01","0.38","30.0384","4.73131","45.6","0","SATNPRO1509","31.368","0.43936","5"],
    [11967,"HCEP03730566","2024-01-30 21:30:00","10.7485","3.38263","27.007","4.17","7.54","0.31","3.699","0.02","0.22","30.0374","4.73115","45.51","0","SATNPRO1509","31.599999999999998","0.44258","5"],
    [11968,"HCEP03730566","2024-01-30 21:45:00","10.7494","3.38287","26.922","4.167","7.54","0.335","3.844","0.01","0.21","30.0391","4.73137","45.47","0","SATNPRO1509","31.355999999999998","0.43922","5"],
    [11969,"HCEP03730566","2024-01-30 22:00:00","10.7498","3.38304","26.904","4.165","7.54","0.322","4.754","0.01","0.52","30.0404","4.73155","45.45","0","SATNPRO1509","31.426","0.4402","5"],
    [11970,"HCEP03730566","2024-01-30 22:15:00","10.7505","3.38314","26.777","4.172","7.54","0.32","3.935","0.02","0.17","30.0409","4.73161","45.53","0","SATNPRO1509","31.432","0.44024","5"],
    [11971,"HCEP03730566","2024-01-30 22:30:00","10.7512","3.38331","26.689","4.172","7.54","0.321","4.55","0.02","0.91","30.0421","4.73175","45.53","0","SATNPRO1509","31.3","0.43842","5"],
    [11972,"HCEP03730566","2024-01-30 22:45:00","10.7528","3.38365","26.576","4.172","7.54","0.345","4.133","0.03","0.3","30.0441","4.73201","45.53","0","SATNPRO1509","31.472","0.44078","5"],
    [11973,"HCEP03730566","2024-01-30 23:00:00","10.7532","3.38373","26.467","4.179","7.54","5.443","72.694","3.87","30.63","30.0446","4.73207","45.61","0","SATNPRO1509","31.324","0.43874","5"],
    [11974,"HCEP03730566","2024-01-30 23:15:00","10.7537","3.38379","26.361","4.176","7.54","0.336","4.354","0.04","0.25","30.0448","4.73208","45.57","0","SATNPRO1509","31.05","0.43486","5"],
    [11975,"HCEP03730566","2024-01-30 23:30:00","10.7547","3.38406","26.245","4.178","7.54","0.308","4.306","0.02","0.17","30.0467","4.73233","45.6","0","SATNPRO1509","31.432","0.44024","5"],
    [11976,"HCEP03730566","2024-01-30 23:45:00","10.7556","3.38426","26.111","4.187","7.54","0.321","3.881","0.02","0.46","30.048","4.7325","45.69","0","SATNPRO1509","31.236","0.43748","5"],
    [11977,"HCEP03730566","2024-01-31 00:00:00","10.7562","3.38437","26.013","4.189","7.54","0.324","4.536","0.01","0.46","30.0486","4.73257","45.72","0","SATNPRO1509","31.358","0.4392","5"],
    [11978,"HCEP03730566","2024-01-31 00:15:00","10.7563","3.38448","25.966","4.182","7.54","0.419","7.112","0.16","5.14","30.0497","4.73271","45.64","0","SATNPRO1509","31.498","0.4412","5"],
    [11979,"HCEP03730566","2024-01-31 00:30:00","10.7567","3.38456","25.877","4.189","7.54","0.318","3.992","0.01","0.15","30.0501","4.73276","45.72","0","SATNPRO1509","31.438","0.44036","5"],
    [11980,"HCEP03730566","2024-01-31 00:45:00","10.7569","3.38458","25.786","4.191","7.54","0.324","3.704","0.02","0.14","30.0502","4.73276","45.75","0","SATNPRO1509","31.509999999999998","0.44138","5"],
    [11981,"HCEP03730566","2024-01-31 01:00:00","10.7574","3.38471","25.729","4.194","7.54","0.316","3.519","0.01","0.16","30.0511","4.73289","45.78","0","SATNPRO1509","31.422","0.44012","5"],
    [11982,"HCEP03730566","2024-01-31 01:15:00","10.7573","3.38474","25.696","4.195","7.54","0.338","3.774","0.02","0.31","30.0515","4.73294","45.79","0","SATNPRO1509","31.396","0.43978","5"],
    [11983,"HCEP03730566","2024-01-31 01:30:00","10.7574","3.38478","25.653","4.193","7.54","0.328","3.803","0.01","0.17","30.0518","4.73298","45.77","0","SATNPRO1509","31.516","0.44144","5"],
    [11984,"HCEP03730566","2024-01-31 01:45:00","10.756","3.38451","25.658","4.196","7.54","0.339","3.893","0.01","0.19","30.0503","4.73279","45.79","0","SATNPRO1509","31.448","0.44048","5"],
    [11985,"HCEP03730566","2024-01-31 02:00:00","10.7554","3.38436","25.653","4.204","7.54","0.332","3.82","0.01","0.17","30.0493","4.73266","45.88","0","SATNPRO1509","31.558","0.44206","5"],
    [11986,"HCEP03730566","2024-01-31 02:15:00","10.7546","3.3842","25.7","4.194","7.54","0.33","3.654","0.01","0.17","30.0483","4.73253","45.77","0","SATNPRO1509","31.548","0.44188","5"],
    [11987,"HCEP03730566","2024-01-31 02:30:00","10.7524","3.38365","25.722","4.162","7.54","0.352","4.331","0.01","0.12","30.0447","4.73206","45.42","0","SATNPRO1509","31.38","0.4395","5"],
    [11988,"HCEP03730566","2024-01-31 02:45:00","10.7509","3.38326","25.803","4.139","7.54","0.322","4.197","0.01","0.17","30.0421","4.73171","45.17","0","SATNPRO1509","31.338","0.43896","5"],
    [11989,"HCEP03730566","2024-01-31 03:00:00","10.7498","3.38301","25.821","4.139","7.54","0.317","4.436","0.01","1.07","30.0405","4.7315","45.16","0","SATNPRO1509","31.368","0.43936","5"],
    [11990,"HCEP03730566","2024-01-31 03:15:00","10.7488","3.38277","25.931","4.132","7.54","0.323","4.019","0.01","0.14","30.039","4.73131","45.09","0","SATNPRO1509","31.28","0.4381","5"],
    [11991,"HCEP03730566","2024-01-31 03:30:00","10.7469","3.38219","26.045","4.119","7.54","0.316","4.289","0.01","0.18","30.0347","4.73074","44.94","0","SATNPRO1509","31.358","0.4392","5"],
    [11992,"HCEP03730566","2024-01-31 03:45:00","10.7434","3.38139","26.252","4.108","7.54","0.331","4.169","0.01","0.18","30.0297","4.73009","44.81","0","SATNPRO1509","31.3","0.43842","5"],
    [11993,"HCEP03730566","2024-01-31 04:00:00","10.7424","3.38102","26.401","4.094","7.53","0.315","4.167","0.01","0.11","30.0268","4.7297","44.66","0","SATNPRO1509","31.356","0.4392","5"],
    [11994,"HCEP03730566","2024-01-31 04:15:00","10.7424","3.381","26.509","4.088","7.53","0.324","4.07","0.01","0.12","30.0266","4.72968","44.6","0","SATNPRO1509","31.338","0.43896","5"],
    [11995,"HCEP03730566","2024-01-31 04:30:00","10.743","3.38118","26.586","4.079","7.53","0.309","4.155","0.01","0.09","30.0278","4.72985","44.5","0","SATNPRO1509","31.282","0.43814","5"],
    [11996,"HCEP03730566","2024-01-31 04:45:00","10.7407","3.38061","26.684","4.073","7.53","2.867","490.635","1.36","142.2","30.024","4.72935","44.43","0","SATNPRO1509","31.338","0.43892","5"],
    [11997,"HCEP03730566","2024-01-31 05:00:00","10.7389","3.38017","26.863","4.06","7.53","3.56","86.413","1.5","30.86","30.0211","4.72897","44.29","0","SATNPRO1509","31.302","0.4384","5"],
    [11998,"HCEP03730566","2024-01-31 05:15:00","10.7462","3.38204","27","4.088","7.53","10.554","276.496","2.42","180.22","30.0334","4.73062","44.6","0","SATNPRO1509","31.328","0.4388","5"],
    [11999,"HCEP03730566","2024-01-31 05:30:00","10.7481","3.38255","27.139","4.102","7.53","0.307","4.279","0.01","0.08","30.0368","4.73108","44.76","0","SATNPRO1509","31.288","0.4382","5"],
    [12000,"HCEP03730566","2024-01-31 05:45:00","10.7489","3.38272","27.346","4.1","7.53","0.316","4.315","0.01","0.07","30.0378","4.73122","44.73","0","SATNPRO1509","31.254","0.43776","5"],
    [12001,"HCEP03730566","2024-01-31 06:00:00","10.749","3.38282","27.537","4.099","7.53","0.311","4.397","0.02","0.36","30.0386","4.73134","44.73","0","SATNPRO1509","31.254","0.43778","5"],
    [12002,"HCEP03730566","2024-01-31 06:15:00","10.749","3.38287","27.662","4.105","7.53","0.347","4.316","0.07","0.27","30.0391","4.73142","44.79","0","SATNPRO1509","31.27","0.43804","5"],
    [12003,"HCEP03730566","2024-01-31 06:30:00","10.7493","3.38293","27.82","4.109","7.53","0.309","4.216","0.01","0.37","30.0394","4.73147","44.83","0","SATNPRO1509","31.208000000000002","0.43714","5"],
    [12004,"HCEP03730566","2024-01-31 06:45:00","10.7495","3.38299","27.927","4.106","7.53","0.319","4.258","0.01","0.8","30.0398","4.73153","44.81","0","SATNPRO1509","31.316","0.43866","5"],
    [12005,"HCEP03730566","2024-01-31 07:00:00","10.7498","3.38308","28.014","4.106","7.53","0.304","3.791","0.01","0.08","30.0403","4.7316","44.8","0","SATNPRO1509","31.266","0.43794","5"],
    [12006,"HCEP03730566","2024-01-31 07:15:00","10.7503","3.38318","28.099","4.106","7.53","0.426","6.569","0.31","8","30.0409","4.73167","44.8","0","SATNPRO1509","31.244","0.43762","5"],
    [12007,"HCEP03730566","2024-01-31 07:30:00","10.7509","3.38326","28.3","4.095","7.53","0.395","7.191","0.04","4.02","30.0411","4.73172","44.69","0","SATNPRO1509","31.198","0.43696","5"],
    [12008,"HCEP03730566","2024-01-31 07:45:00","10.7516","3.38339","28.277","4.093","7.53","0.365","4.52","0.04","0.17","30.0418","4.7318","44.66","0","SATNPRO1509","31.212","0.43716","5"],
    [12009,"HCEP03730566","2024-01-31 08:00:00","10.7521","3.38352","28.304","4.102","7.53","0.399","8.01","0.04","3.43","30.0427","4.73191","44.77","0","SATNPRO1509","31.284","0.4382","5"],
    [12010,"HCEP03730566","2024-01-31 08:15:00","10.7534","3.38384","28.32","4.12","7.54","0.377","4.338","0.05","0.46","30.0448","4.7322","44.96","0","SATNPRO1509","31.312","0.4386","5"],
    [12011,"HCEP03730566","2024-01-31 08:30:00","10.7538","3.38395","28.317","4.114","7.54","0.38","9.759","0.04","3.49","30.0455","4.7323","44.9","0","SATNPRO1509","31.258","0.43784","5"],
    [12012,"HCEP03730566","2024-01-31 08:45:00","10.754","3.38404","28.377","4.114","7.54","0.423","4.961","0.05","0.74","30.0462","4.7324","44.9","0","SATNPRO1509","31.312","0.4386","5"],
    [12013,"HCEP03730566","2024-01-31 09:00:00","10.7537","3.38396","28.29","4.168","7.54","0.308","10.344","0.02","7.63","30.0458","4.73233","45.49","0","SATNPRO1509","31.573999999999998","0.44226","5"],
    [12014,"HCEP03730566","2024-01-31 09:15:00","10.7537","3.38392","28.258","4.158","7.54","0.304","25.297","0.05","29.51","30.0454","4.73227","45.37","0","SATNPRO1509","31.384","0.43958","5"],
    [12015,"HCEP03730566","2024-01-31 09:30:00","10.7526","3.38373","28.206","4.159","7.54","0.304","13.846","0.01","5.54","30.0444","4.73215","45.39","0","SATNPRO1509","31.54","0.44178","5"],
    [12016,"HCEP03730566","2024-01-31 09:45:00","10.7525","3.38368","28.176","4.155","7.54","0.344","4.835","0.01","0.29","30.044","4.73209","45.35","0","SATNPRO1509","31.428","0.44026","5"],
    [12017,"HCEP03730566","2024-01-31 10:00:00","10.7524","3.38365","28.079","4.15","7.54","0.334","4.06","0.01","0.18","30.0438","4.73206","45.29","0","SATNPRO1509","31.509999999999998","0.44134","5"],
    [12018,"HCEP03730566","2024-01-31 10:15:00","10.7515","3.38341","27.983","4.143","7.54","0.334","3.697","0.01","0.13","30.0422","4.73185","45.21","0","SATNPRO1509","31.48","0.44094","5"],
    [12019,"HCEP03730566","2024-01-31 10:30:00","10.7513","3.38328","27.871","4.13","7.54","0.333","3.919","0.01","0.12","30.0412","4.73169","45.07","0","SATNPRO1509","31.478","0.4409","5"],
    [12020,"HCEP03730566","2024-01-31 10:45:00","10.7509","3.38313","27.9","4.11","7.54","0.342","3.929","0.01","0.15","30.04","4.73154","44.84","0","SATNPRO1509","31.478","0.44088","5"],
    [12021,"HCEP03730566","2024-01-31 11:00:00","10.7525","3.38354","27.769","4.096","7.53","0.34","4.517","0.01","0.28","30.0427","4.73189","44.7","0","SATNPRO1509","31.304000000000002","0.4384","5"],
    [12022,"HCEP03730566","2024-01-31 11:15:00","10.7535","3.38384","27.656","4.094","7.53","0.405","5.743","0.08","1.22","30.0449","4.73217","44.68","0","SATNPRO1509","31.314","0.4386","5"],
    [12023,"HCEP03730566","2024-01-31 11:30:00","10.7537","3.38394","27.563","4.093","7.53","0.36","5.476","0.05","0.72","30.0458","4.73229","44.67","0","SATNPRO1509","31.194","0.43692","5"],
    [12024,"HCEP03730566","2024-01-31 11:45:00","10.7537","3.38406","27.417","4.094","7.53","0.4","5.589","0.06","0.93","30.047","4.73246","44.68","0","SATNPRO1509","31.266000000000002","0.43792","5"],
    [12025,"HCEP03730566","2024-01-31 12:00:00","10.7544","3.38421","27.282","4.102","7.53","0.343","4.72","0.02","0.26","30.048","4.73257","44.77","0","SATNPRO1509","31.332","0.43884","5"],
    [12026,"HCEP03730566","2024-01-31 12:15:00","10.7545","3.3843","27.087","4.124","7.53","0.357","4.22","0.02","0.24","30.0488","4.73268","45.01","0","SATNPRO1509","31.39","0.43966","5"],
    [12027,"HCEP03730566","2024-01-31 12:30:00","10.7546","3.38442","26.976","4.14","7.54","0.353","4.781","0.03","0.45","30.05","4.73285","45.18","0","SATNPRO1509","31.488","0.44104","5"],
    [12028,"HCEP03730566","2024-01-31 12:45:00","10.7542","3.38433","26.811","4.153","7.54","0.525","7.535","0.12","2.62","30.0495","4.73277","45.32","0","SATNPRO1509","31.556","0.44198","5"],
    [12029,"HCEP03730566","2024-01-31 13:00:00","10.7534","3.38412","26.657","4.159","7.54","0.383","4.69","0.05","0.84","30.0482","4.73259","45.39","0","SATNPRO1509","31.506","0.4413","5"],
    [12030,"HCEP03730566","2024-01-31 13:15:00","10.7538","3.38427","26.525","4.149","7.54","0.384","3.984","0.02","0.17","30.0494","4.73275","45.28","0","SATNPRO1509","31.448","0.44046","5"],
    [12031,"HCEP03730566","2024-01-31 13:30:00","10.7541","3.3843","26.387","4.13","7.54","0.418","4.867","0.03","0.3","30.0495","4.73275","45.07","0","SATNPRO1509","31.404","0.43988","5"],
    [12032,"HCEP03730566","2024-01-31 13:45:00","10.7542","3.3842","26.267","4.095","7.54","0.363","4.892","0.04","0.66","30.0485","4.73259","44.69","0","SATNPRO1509","31.318","0.43868","5"],
    [12033,"HCEP03730566","2024-01-31 14:00:00","10.7538","3.3841","26.213","4.069","7.53","0.361","5.328","0.04","0.42","30.0478","4.7325","44.4","0","SATNPRO1509","31.336","0.4389","5"],
    [12034,"HCEP03730566","2024-01-31 14:15:00","10.7538","3.38395","26.159","4.05","7.53","0.408","5.678","0.03","0.38","30.0463","4.73229","44.2","0","SATNPRO1509","31.146","0.43626","5"],
    [12035,"HCEP03730566","2024-01-31 14:30:00","10.753","3.38368","26.089","4.024","7.53","0.382","5.713","0.03","0.42","30.0443","4.73201","43.92","0","SATNPRO1509","31.164","0.4365","5"],
    [12036,"HCEP03730566","2024-01-31 14:45:00","10.7507","3.38304","26.094","4.013","7.53","0.36","4.906","0.04","0.36","30.04","4.73144","43.8","0","SATNPRO1509","31.080000000000002","0.43532","5"],
    [12037,"HCEP03730566","2024-01-31 15:00:00","10.7502","3.3829","26.073","3.986","7.53","0.377","5.657","0.03","0.46","30.0391","4.73131","43.5","0","SATNPRO1509","30.968","0.43374","5"],
    [12038,"HCEP03730566","2024-01-31 15:15:00","10.7498","3.38271","26.098","3.965","7.52","0.427","6.316","0.03","0.41","30.0375","4.73109","43.26","0","SATNPRO1509","31.066","0.4351","5"],
    [12039,"HCEP03730566","2024-01-31 15:30:00","10.7482","3.38225","26.106","3.955","7.52","0.366","4.966","0.02","0.24","30.034300000000002","4.73066","43.15","0","SATNPRO1509","30.926000000000002","0.43318","5"],
    [12040,"HCEP03730566","2024-01-31 15:45:00","10.7461","3.38183","26.11","3.946","7.52","0.399","5.549","0.05","0.65","30.0319","4.73035","43.05","0","SATNPRO1509","30.966","0.4337","5"],
    [12041,"HCEP03730566","2024-01-31 16:00:00","10.7446","3.38139","26.177","3.93","7.52","0.318","3.994","0.01","0.16","30.0287","4.72993","42.88","0","SATNPRO1509","30.918","0.43304","5"],
    [12042,"HCEP03730566","2024-01-31 16:15:00","10.7428","3.38097","26.202","3.926","7.52","0.33","4.099","0.01","0.26","30.0261","4.72959","42.83","0","SATNPRO1509","30.906","0.43286","5"],
    [12043,"HCEP03730566","2024-01-31 16:30:00","10.7421","3.38074","26.268","3.91","7.52","0.327","4.302","0.01","0.42","30.0244","4.72936","42.65","0","SATNPRO1509","30.948","0.43344","5"],
    [12044,"HCEP03730566","2024-01-31 16:45:00","10.7423","3.38076","26.33","3.906","7.52","0.376","6.505","0.09","4.54","30.0244","4.72936","42.61","0","SATNPRO1509","30.95","0.43346","5"],
    [12045,"HCEP03730566","2024-01-31 17:00:00","10.7416","3.38067","26.371","3.912","7.52","0.307","3.795","0.01","0.12","30.024","4.72932","42.67","0","SATNPRO1509","30.954","0.43356","5"],
    [12046,"HCEP03730566","2024-01-31 17:15:00","10.743","3.38104","26.375","3.935","7.52","0.325","4.079","0.03","1.07","30.0266","4.72966","42.92","0","SATNPRO1509","31.128","0.436","5"],
    [12047,"HCEP03730566","2024-01-31 17:30:00","10.7452","3.38168","26.475","3.95","7.52","0.348","8.194","0.08","7.36","30.0309","4.73025","43.1","0","SATNPRO1509","30.978","0.43388","5"],
    [12048,"HCEP03730566","2024-01-31 17:45:00","10.7483","3.38236","26.574","3.958","7.52","0.328","4.614","0.01","0.38","30.0351","4.73081","43.19","0","SATNPRO1509","30.946","0.43348","5"],
    [12049,"HCEP03730566","2024-01-31 18:00:00","10.75","3.38287","26.658","3.969","7.52","0.634","19.589","0.14","6.97","30.0387","4.73129","43.31","0","SATNPRO1509","31.154","0.4364","5"],
    [12050,"HCEP03730566","2024-01-31 18:15:00","10.749","3.38277","26.722","4.004","7.52","0.478","8.356","0.17","3.81","30.0384","4.73127","43.69","0","SATNPRO1509","31.42","0.44004","5"],
    [12051,"HCEP03730566","2024-01-31 18:30:00","10.7509","3.38341","26.793","4.054","7.53","0.487","11.315","0.12","4.68","30.0432","4.73193","44.23","0","SATNPRO1509","31.33","0.43884","5"],
    [12052,"HCEP03730566","2024-01-31 18:45:00","10.7527","3.38389","26.874","4.09","7.53","0.845","11.176","0.13","6.8","30.0464","4.73236","44.63","0","SATNPRO1509","31.496000000000002","0.44116","5"],
    [12053,"HCEP03730566","2024-01-31 19:00:00","10.7512","3.38354","26.956","4.059","7.53","0.661","7.401","0.34","2.72","30.0442","4.73207","44.29","0","SATNPRO1509","31.61","0.44274","5"],
    [12054,"HCEP03730566","2024-01-31 19:15:00","10.7492","3.38302","27.025","4.124","7.53","0.492","5.367","0.2","2.34","30.0407","4.73161","45.01","0","SATNPRO1509","31.682","0.44378","5"],
    [12055,"HCEP03730566","2024-01-31 19:30:00","10.7469","3.38237","27.087","4.146","7.53","0.401","4.407","0.08","0.49","30.0361","4.73099","45.24","0","SATNPRO1509","31.726","0.44438","5"],
    [12056,"HCEP03730566","2024-01-31 19:45:00","10.7392","3.38006","27.133","4.125","7.53","0.361","3.79","0.02","0.29","30.0197","4.72879","45","0","SATNPRO1509","31.8","0.44546","5"],
    [12057,"HCEP03730566","2024-01-31 20:00:00","10.7402","3.38049","27.174","4.108","7.53","0.482","5.044","0.09","0.98","30.0231","4.72926","44.81","0","SATNPRO1509","31.788","0.44526","5"],
    [12058,"HCEP03730566","2024-01-31 20:15:00","10.738","3.37979","27.221","4.087","7.53","0.348","3.174","0.03","0.32","30.018","4.72857","44.58","0","SATNPRO1509","31.826","0.44578","5"],
    [12059,"HCEP03730566","2024-01-31 20:30:00","10.7386","3.37993","27.23","4.067","7.53","0.405","10.624","0.11","18","30.0189","4.72869","44.37","0","SATNPRO1509","31.772","0.44502","5"],
    [12060,"HCEP03730566","2024-01-31 20:45:00","10.7394","3.3801","27.239","4.058","7.53","0.371","3.453","0.03","0.29","30.0199","4.72882","44.27","0","SATNPRO1509","31.84","0.44596","5"],
    [12061,"HCEP03730566","2024-01-31 21:00:00","10.7358","3.37895","27.233","4.039","7.53","0.369","3.947","0.04","0.91","30.0115","4.72768","44.05","0","SATNPRO1509","31.684","0.44378","5"],
    [12062,"HCEP03730566","2024-01-31 21:15:00","10.7393","3.3801","27.233","4.036","7.53","0.798","13.946","0.47","20.14","30.0199","4.72883","44.02","0","SATNPRO1509","31.818","0.44564","5"],
    [12063,"HCEP03730566","2024-01-31 21:30:00","10.7417","3.3806","27.189","4.036","7.53","0.8","9.449","0.19","2.25","30.023","4.72922","44.03","0","SATNPRO1509","31.728","0.44442","5"],
    [12064,"HCEP03730566","2024-01-31 21:45:00","10.7433","3.38076","27.172","4.03","7.53","1.444","47.508","0.63","39.01","30.0232","4.72923","43.96","0","SATNPRO1509","31.712","0.44418","5"],
    [12065,"HCEP03730566","2024-01-31 22:00:00","10.7446","3.38137","27.121","4.008","7.53","0.443","9.681","0.13","3.14","30.0281","4.7299","43.73","0","SATNPRO1509","31.492","0.44112","5"],
    [12066,"HCEP03730566","2024-01-31 22:15:00","10.746","3.38152","27.071","3.995","7.52","0.519","8.357","0.25","2.92","30.0285","4.72993","43.58","0","SATNPRO1509","31.432000000000002","0.44028","5"],
    [12067,"HCEP03730566","2024-01-31 22:30:00","10.7459","3.3815","27.047","3.98","7.52","4.075","38.212","0.52","3.86","30.0284","4.72991","43.42","0","SATNPRO1509","31.472","0.44084","5"],
    [12068,"HCEP03730566","2024-01-31 22:45:00","10.7454","3.38135","26.961","3.975","7.52","0.337","4.385","0.02","0.47","30.0273","4.72976","43.36","0","SATNPRO1509","31.471999999999998","0.44082","5"],
    [12069,"HCEP03730566","2024-01-31 23:00:00","10.7448","3.38116","26.89","3.962","7.52","0.323","4.59","0.02","0.36","30.026","4.72959","43.23","0","SATNPRO1509","31.436","0.44028","5"],
    [12070,"HCEP03730566","2024-01-31 23:15:00","10.7449","3.38125","26.835","3.944","7.52","0.333","4.64","0.01","0.41","30.0269","4.7297","43.03","0","SATNPRO1509","31.292","0.43832","5"],
    [12071,"HCEP03730566","2024-01-31 23:30:00","10.7448","3.38127","26.775","3.927","7.52","0.319","4.595","0.01","0.38","30.0271","4.72972","42.84","0","SATNPRO1509","31.122","0.43592","5"],
    [12072,"HCEP03730566","2024-01-31 23:45:00","10.7448","3.38127","26.722","3.926","7.52","0.328","4.384","0.02","0.36","30.0271","4.72973","42.83","0","SATNPRO1509","31.266","0.43792","5"],
    [12073,"HCEP03730566","2024-02-01 00:00:00","10.7447","3.38128","26.654","3.926","7.52","0.318","4.562","0.01","0.21","30.0274","4.72977","42.83","0","SATNPRO1509","31.286","0.43822","5"],
    [12074,"HCEP03730566","2024-02-01 00:15:00","10.7448","3.3814","26.567","3.93","7.52","0.322","4.283","0.01","0.18","30.0285","4.72992","42.88","0","SATNPRO1509","31.242","0.4376","5"],
    [12075,"HCEP03730566","2024-02-01 00:30:00","10.7448","3.38158","26.499","3.941","7.52","0.314","4.561","0.01","0.15","30.0302","4.73016","42.99","0","SATNPRO1509","31.228","0.4374","5"],
    [12076,"HCEP03730566","2024-02-01 00:45:00","10.7446","3.38166","26.414","3.961","7.52","5.448","231.586","0.69","70.03","30.0312","4.7303","43.22","0","SATNPRO1509","31.278","0.43812","5"],
    [12077,"HCEP03730566","2024-02-01 01:00:00","10.7448","3.38177","26.355","3.967","7.52","0.356","5.399","0.06","1.18","30.0323","4.73045","43.28","0","SATNPRO1509","31.306","0.4385","5"],
    [12078,"HCEP03730566","2024-02-01 01:15:00","10.7443","3.38174","26.303","3.999","7.52","0.349","4.168","0.04","0.2","30.0324","4.73046","43.63","0","SATNPRO1509","31.416","0.44008","5"],
    [12079,"HCEP03730566","2024-02-01 01:30:00","10.7446","3.38185","26.25","4.018","7.52","0.55","11.248","0.31","6.18","30.0332","4.73057","43.84","0","SATNPRO1509","31.41","0.43998","5"],
    [12080,"HCEP03730566","2024-02-01 01:45:00","10.7451","3.38204","26.195","4.036","7.53","0.325","4.023","0.01","0.14","30.0347","4.73078","44.03","0","SATNPRO1509","31.444","0.44044","5"],
    [12081,"HCEP03730566","2024-02-01 02:00:00","10.7453","3.38203","26.152","4.054","7.53","0.316","4.153","0.01","0.28","30.0345","4.73073","44.23","0","SATNPRO1509","31.49","0.4411","5"],
    [12082,"HCEP03730566","2024-02-01 02:15:00","10.7458","3.38204","26.176","4.046","7.53","0.314","4.082","0.01","0.18","30.0341","4.73068","44.14","0","SATNPRO1509","31.352","0.43914","5"],
    [12083,"HCEP03730566","2024-02-01 02:30:00","10.7459","3.38205","26.165","4.026","7.53","0.342","4.586","0.03","0.15","30.0342","4.73068","43.93","0","SATNPRO1509","31.384","0.43956","5"],
    [12084,"HCEP03730566","2024-02-01 02:45:00","10.7459","3.38194","26.132","4.02","7.53","0.353","4.626","0.09","0.9","30.0331","4.73053","43.86","0","SATNPRO1509","31.342","0.439","5"],
    [12085,"HCEP03730566","2024-02-01 03:00:00","10.7458","3.38177","26.13","4.005","7.53","10.557","404.299","2.63","241.02","30.0316","4.73032","43.7","0","SATNPRO1509","31.352","0.43918","5"],
    [12086,"HCEP03730566","2024-02-01 03:15:00","10.7446","3.38138","26.216","3.988","7.52","11.074","314.633","1.77","63.93","30.0286","4.72991","43.51","0","SATNPRO1509","31.272","0.43804","5"],
    [12087,"HCEP03730566","2024-02-01 03:30:00","10.7429","3.38105","26.244","3.988","7.52","8.134","482.961","1.35","134.92","30.0268","4.72969","43.51","0","SATNPRO1509","31.37","0.43942","5"],
    [12088,"HCEP03730566","2024-02-01 03:45:00","10.7437","3.38121","26.3","3.982","7.52","3.21","396.715","1.26","69.97","30.0277","4.7298","43.44","0","SATNPRO1509","31.352","0.43914","5"],
    [12089,"HCEP03730566","2024-02-01 04:00:00","10.7437","3.38132","26.424","3.98","7.52","7.592","406.059","0.69","66.22","30.0287","4.72995","43.42","0","SATNPRO1509","31.29","0.43826","5"],
    [12090,"HCEP03730566","2024-02-01 04:15:00","10.743","3.38107","26.514","3.963","7.52","8.568","379.609","2.67","86.31","30.0267","4.72969","43.23","0","SATNPRO1509","31.224","0.43736","5"],
    [12091,"HCEP03730566","2024-02-01 04:30:00","10.7423","3.38076","26.623","3.942","7.52","0.302","4.349","0.01","0.12","30.0242","4.72936","43","0","SATNPRO1509","31.27","0.43802","5"],
    [12092,"HCEP03730566","2024-02-01 04:45:00","10.7397","3.38043","26.712","3.927","7.52","10.892","230.509","0.82","46.45","30.0231","4.72924","42.84","0","SATNPRO1509","31.242","0.43762","5"],
    [12093,"HCEP03730566","2024-02-01 05:00:00","10.7401","3.38049","26.845","3.909","7.52","7.06","80.111","3.29","33.63","30.0233","4.72926","42.64","0","SATNPRO1509","31.128","0.436","5"],
    [12094,"HCEP03730566","2024-02-01 05:15:00","10.7408","3.38054","26.978","3.896","7.52","3.479","264.423","0.35","89.37","30.0232","4.72925","42.5","0","SATNPRO1509","31.136","0.4361","5"],
    [12095,"HCEP03730566","2024-02-01 05:30:00","10.7377","3.38007","27.156","3.866","7.51","0.312","4.58","0.01","0.18","30.021","4.72901","42.17","0","SATNPRO1509","30.966","0.43372","5"],
    [12096,"HCEP03730566","2024-02-01 05:45:00","10.7356","3.38007","27.25","3.853","7.51","3.708","544.359","1.29","75.97","30.0227","4.72928","42.02","0","SATNPRO1509","30.996000000000002","0.43414","5"],
    [12097,"HCEP03730566","2024-02-01 06:00:00","10.7327","3.37959","27.429","3.813","7.51","7.454","621.273","2.71","213.93","30.0203","4.72899","41.59","0","SATNPRO1509","30.695999999999998","0.42994","5"],
    [12098,"HCEP03730566","2024-02-01 06:15:00","10.7305","3.37904","27.57","3.776","7.51","0.34","5.204","0.03","1.69","30.0166","4.72852","41.18","0","SATNPRO1509","30.636","0.42912","5"],
    [12099,"HCEP03730566","2024-02-01 06:30:00","10.7305","3.37913","27.726","3.772","7.51","0.316","4.702","0.01","0.58","30.0174","4.72863","41.13","0","SATNPRO1509","30.654","0.42938","5"],
    [12100,"HCEP03730566","2024-02-01 06:45:00","10.7301","3.37903","27.85","3.771","7.51","0.326","4.629","0.01","0.1","30.0167","4.72854","41.12","0","SATNPRO1509","30.576","0.42832","5"],
    [12101,"HCEP03730566","2024-02-01 07:00:00","10.7283","3.3786","27.969","3.758","7.5","0.327","4.402","0.02","0.15","30.0139","4.72818","40.98","0","SATNPRO1509","30.616","0.42884","5"],
    [12102,"HCEP03730566","2024-02-01 07:15:00","10.7237","3.37765","28.015","3.733","7.5","0.321","4.101","0.01","0.12","30.0083","4.72747","40.7","0","SATNPRO1509","30.548000000000002","0.42786","5"],
    [12103,"HCEP03730566","2024-02-01 07:30:00","10.7182","3.37649","28.069","3.706","7.5","0.297","4.442","0.01","0.42","30.0013","4.72656","40.4","0","SATNPRO1509","30.548","0.42784","5"],
    [12104,"HCEP03730566","2024-02-01 07:45:00","10.7095","3.37485","28.158","3.691","7.5","0.32","4.374","0.02","0.45","29.9923","4.72542","40.23","0","SATNPRO1509","30.508","0.42732","5"],
    [12105,"HCEP03730566","2024-02-01 08:00:00","10.7039","3.37363","28.199","3.705","7.5","0.316","4.344","0.01","0.11","29.9848","4.72445","40.38","0","SATNPRO1509","30.582","0.42832","5"],
    [12106,"HCEP03730566","2024-02-01 08:15:00","10.6981","3.37236","28.249","3.734","7.5","0.561","10.094","0.28","6.8","29.9771","4.72344","40.69","0","SATNPRO1509","30.69","0.42982","5"],
    [12107,"HCEP03730566","2024-02-01 08:30:00","10.6979","3.3723","28.261","3.726","7.5","0.637","6.476","0.21","2.35","29.9766","4.72338","40.6","0","SATNPRO1509","30.658","0.42944","5"],
    [12108,"HCEP03730566","2024-02-01 08:45:00","10.701","3.37254","28.27","3.762","7.5","1.534","86.251","0.52","36.42","29.9765","4.72332","40.99","0","SATNPRO1509","30.81","0.43152","5"],
    [12109,"HCEP03730566","2024-02-01 09:00:00","10.7136","3.37508","28.267","3.681","7.5","0.621","9.65","0.11","1.9","29.9912","4.7252","40.13","0","SATNPRO1509","30.52","0.42754","5"],
    [12110,"HCEP03730566","2024-02-01 09:15:00","10.7229","3.37707","28.272","3.683","7.5","0.545","6.924","0.11","1.55","30.0031","4.72675","40.16","0","SATNPRO1509","30.478","0.42692","5"],
    [12111,"HCEP03730566","2024-02-01 09:30:00","10.7256","3.3776","28.235","3.708","7.5","0.397","5.729","0.08","0.86","30.0062","4.72715","40.43","0","SATNPRO1509","30.668","0.42954","5"],
    [12112,"HCEP03730566","2024-02-01 09:45:00","10.7282","3.3778","28.181","3.724","7.5","0.462","5.795","0.03","0.29","30.006","4.72708","40.61","0","SATNPRO1509","30.75","0.4307","5"],
    [12113,"HCEP03730566","2024-02-01 10:00:00","10.7211","3.37604","28.149","3.739","7.5","0.44","5.512","0.09","1.31","29.9945","4.72556","40.77","0","SATNPRO1509","31.060000000000002","0.43506","5"],
    [12114,"HCEP03730566","2024-02-01 10:15:00","10.7283","3.37752","28.071","3.765","7.5","0.586","6.681","0.05","0.73","30.0032","4.72667","41.05","0","SATNPRO1509","31.002","0.43426","5"],
    [12115,"HCEP03730566","2024-02-01 10:30:00","10.7303","3.37786","27.985","3.785","7.5","0.394","7.391","0.03","2.3","30.005","4.72688","41.28","0","SATNPRO1509","31.082","0.43538","5"],
    [12116,"HCEP03730566","2024-02-01 10:45:00","10.734","3.37863","27.88","3.823","7.51","0.397","5.195","0.03","0.41","30.0096","4.72748","41.69","0","SATNPRO1509","31.304000000000002","0.43848","5"],
    [12117,"NA","2024-03-01 11:00:00",null,null,null,null,null,null,null,null,null,null,null,null,null,"SATNPRO1509","30.144","0.42224","5"],
    [12118,"HCEP03730566","2024-02-01 11:00:00","10.738","3.37959","27.821","3.83","7.51","0.416","5.748","0.02","0.21","30.0158","4.72829","41.77","0","SATNPRO1509","31.06","0.43506","5"],
    [12119,"HCEP03730566","2024-02-01 11:15:00","10.7383","3.37979","27.727","3.876","7.51","1.485","49.355","2.24","37.57","30.0175","4.72853","42.28","0","SATNPRO1509","31.246","0.43764","5"],
    [12120,"HCEP03730566","2024-02-01 11:30:00","10.7392","3.38005","27.619","3.895","7.51","0.375","12.297","0.1","5.04","30.0194","4.72877","42.49","0","SATNPRO1509","31.221999999999998","0.4373","5"],
    [12121,"HCEP03730566","2024-02-01 11:45:00","10.7396","3.38017","27.476","3.892","7.51","0.354","6.437","0.07","1.94","30.0202","4.72888","42.45","0","SATNPRO1509","31.144","0.4362","5"],
    [12122,"HCEP03730566","2024-02-01 12:00:00","10.7402","3.38042","27.292","3.899","7.51","0.775","21.738","0.03","3.14","30.0224","4.72916","42.53","0","SATNPRO1509","31.259999999999998","0.43784","5"],
    [12123,"HCEP03730566","2024-02-01 12:15:00","10.7416","3.38077","27.272","3.892","7.51","0.686","20.195","0.08","3.1","30.0246","4.72946","42.45","0","SATNPRO1509","31.098","0.4356","5"],
    [12124,"HCEP03730566","2024-02-01 12:30:00","10.7435","3.38126","27.134","3.833","7.51","0.921","34.582","0.08","6.28","30.028","4.7299","41.82","0","SATNPRO1509","30.894","0.43272","5"],
    [12125,"HCEP03730566","2024-02-01 12:45:00","10.7449","3.38186","26.967","3.8","7.51","0.628","19.707","0.04","2.5","30.0327","4.73054","41.45","0","SATNPRO1509","30.744","0.43066","5"],
    [12126,"HCEP03730566","2024-02-01 13:00:00","10.746","3.38239","26.828","3.798","7.51","0.501","11.038","0.02","0.98","30.0372","4.73115","41.44","0","SATNPRO1509","30.733999999999998","0.43048","5"],
    [12127,"HCEP03730566","2024-02-01 13:15:00","10.7465","3.38286","26.608","3.815","7.51","0.489","9.627","0.05","1.88","30.0414","4.73173","41.62","0","SATNPRO1509","30.68","0.42974","5"],
    [12128,"HCEP03730566","2024-02-01 13:30:00","10.7465","3.38302","26.447","3.83","7.51","0.476","8.706","0.02","0.45","30.043","4.73195","41.79","0","SATNPRO1509","30.712","0.43016","5"],
    [12129,"HCEP03730566","2024-02-01 13:45:00","10.7462","3.38316","26.384","3.851","7.51","0.497","7.798","0.03","0.72","30.0447","4.73219","42.02","0","SATNPRO1509","30.96","0.43366","5"],
    [12130,"HCEP03730566","2024-02-01 14:00:00","10.7455","3.38318","26.271","3.884","7.51","0.669","19.267","0.05","2.23","30.0455","4.73231","42.38","0","SATNPRO1509","30.952","0.43352","5"],
    [12131,"HCEP03730566","2024-02-01 14:15:00","10.7448","3.38316","26.106","3.891","7.51","0.658","14.169","0.08","5.52","30.046","4.73238","42.45","0","SATNPRO1509","30.954","0.4336","5"],
    [12132,"HCEP03730566","2024-02-01 14:30:00","10.7445","3.38308","26.014","3.888","7.51","0.298","4.097","0.01","0.21","30.0455","4.73231","42.42","0","SATNPRO1509","30.96","0.43364","5"],
    [12133,"HCEP03730566","2024-02-01 14:45:00","10.744","3.38302","25.926","3.887","7.51","5.976","54.807","4.9","41.28","30.0453","4.73228","42.41","0","SATNPRO1509","30.96","0.43362","5"],
    [12134,"HCEP03730566","2024-02-01 15:00:00","10.7448","3.38296","25.942","3.865","7.51","2.823","131.574","0.9","45.58","30.0441","4.7321","42.18","0","SATNPRO1509","30.874","0.43248","5"],
    [12135,"HCEP03730566","2024-02-01 15:15:00","10.7445","3.38295","25.896","3.85","7.51","6.584","69.103","4.55","33.35","30.0442","4.73212","42","0","SATNPRO1509","30.848","0.43206","5"],
    [12136,"HCEP03730566","2024-02-01 15:30:00","10.7448","3.38298","25.898","3.833","7.51","6.205","70.208","5.07","30.72","30.0443","4.73213","41.83","0","SATNPRO1509","30.746000000000002","0.43064","5"],
    [12137,"HCEP03730566","2024-02-01 15:45:00","10.7443","3.38287","25.816","3.825","7.51","12.462","703.398","3.92","343.97","30.0437","4.73204","41.74","0","SATNPRO1509","30.678","0.4297","5"],
    [12138,"HCEP03730566","2024-02-01 16:00:00","10.7431","3.38248","25.874","3.816","7.51","6.244","309.552","4.48","206.71","30.0407","4.73164","41.63","0","SATNPRO1509","30.75","0.43074","5"],
    [12139,"HCEP03730566","2024-02-01 16:15:00","10.7415","3.38207","25.912","3.796","7.51","0.339","4.297","0.02","0.23","30.0381","4.7313","41.41","0","SATNPRO1509","30.785999999999998","0.43124","5"],
    [12140,"HCEP03730566","2024-02-01 16:30:00","10.7411","3.38174","25.902","3.775","7.51","0.343","4.395","0.02","0.2","30.0352","4.7309","41.19","0","SATNPRO1509","30.694","0.42992","5"],
    [12141,"HCEP03730566","2024-02-01 16:45:00","10.7393","3.38117","25.955","3.765","7.51","2.39","49.331","3.58","44.51","30.031","4.73032","41.07","0","SATNPRO1509","30.75","0.43072","5"],
    [12142,"HCEP03730566","2024-02-01 17:00:00","10.7398","3.38125","26.013","3.771","7.51","0.314","4.259","0.01","0.15","30.0314","4.73037","41.14","0","SATNPRO1509","30.736","0.4305","5"],
    [12143,"HCEP03730566","2024-02-01 17:15:00","10.738","3.38079","25.992","3.786","7.51","0.317","4.423","0.01","0.22","30.0283","4.72997","41.3","0","SATNPRO1509","30.836","0.4319","5"],
    [12144,"HCEP03730566","2024-02-01 17:30:00","10.7398","3.38113","26.106","3.792","7.51","0.33","4.581","0.01","0.23","30.0302","4.73021","41.37","0","SATNPRO1509","30.996","0.43408","5"],
    [12145,"HCEP03730566","2024-02-01 17:45:00","10.7397","3.38127","26.134","3.816","7.51","0.366","4.882","0.09","1.4","30.0315","4.73041","41.63","0","SATNPRO1509","30.972","0.43382","5"],
    [12146,"HCEP03730566","2024-02-01 18:00:00","10.7396","3.38122","26.193","3.834","7.51","0.326","4.108","0.01","0.15","30.0311","4.73035","41.83","0","SATNPRO1509","31.034","0.43468","5"],
    [12147,"HCEP03730566","2024-02-01 18:15:00","10.741","3.38125","26.276","3.839","7.51","0.336","4.502","0.03","0.63","30.0303","4.73022","41.88","0","SATNPRO1509","31.056","0.435","5"],
    [12148,"HCEP03730566","2024-02-01 18:30:00","10.7429","3.38147","26.374","3.823","7.51","0.331","4.964","0.01","0.21","30.0308","4.73027","41.71","0","SATNPRO1509","31.066","0.43516","5"],
    [12149,"HCEP03730566","2024-02-01 18:45:00","10.7427","3.38126","26.462","3.837","7.51","0.331","4.612","0.01","0.11","30.0289","4.73","41.86","0","SATNPRO1509","31.116","0.43584","5"],
    [12150,"HCEP03730566","2024-02-01 19:00:00","10.7424","3.38104","26.565","3.847","7.51","0.322","4.938","0.02","0.21","30.0269","4.72973","41.96","0","SATNPRO1509","31.166","0.43656","5"],
    [12151,"HCEP03730566","2024-02-01 19:15:00","10.7419","3.38086","26.57","3.859","7.51","0.323","4.684","0.01","0.15","30.0256","4.72956","42.1","0","SATNPRO1509","31.182","0.4368","5"],
    [12152,"HCEP03730566","2024-02-01 19:30:00","10.7398","3.38035","26.743","3.875","7.51","0.311","4.871","0.01","0.17","30.0222","4.72911","42.27","0","SATNPRO1509","31.348","0.4391","5"],
    [12153,"HCEP03730566","2024-02-01 19:45:00","10.7401","3.38051","26.819","3.888","7.51","0.324","4.885","0.01","0.23","30.0235","4.7293","42.42","0","SATNPRO1509","31.226","0.43736","5"],
    [12154,"HCEP03730566","2024-02-01 20:00:00","10.7418","3.38115","26.881","3.923","7.51","0.316","5.186","0.01","0.23","30.0284","4.72997","42.8","0","SATNPRO1509","31.349999999999998","0.43908","5"],
    [12155,"NA","2024-03-01 11:15:00",null,null,null,null,null,null,null,null,null,null,null,null,null,"SATNPRO1509","29.718","0.41624","5"],
    [12156,"HCEP03730566","2024-02-01 20:15:00","10.7405","3.38084","27.028","3.941","7.52","0.322","4.559","0.01","0.1","30.0263","4.7297","42.99","0","SATNPRO1509","31.354","0.43914","5"],
    [12157,"HCEP03730566","2024-02-01 20:30:00","10.7405","3.38088","27.037","3.953","7.52","0.314","4.878","0.01","0.23","30.0267","4.72976","43.12","0","SATNPRO1509","31.434","0.4403","5"],
    [12158,"HCEP03730566","2024-02-01 20:45:00","10.7401","3.38073","27.118","3.949","7.52","0.323","4.694","0.01","0.12","30.0255","4.7296","43.08","0","SATNPRO1509","31.47","0.4408","5"],
    [12159,"HCEP03730566","2024-02-01 21:00:00","10.7392","3.3805","27.194","3.94","7.52","0.32","4.877","0.01","0.54","30.0239","4.72939","42.98","0","SATNPRO1509","31.514","0.4414","5"],
    [12160,"HCEP03730566","2024-02-01 21:15:00","10.7391","3.38037","27.232","3.909","7.52","1.845","163.217","0.94","73.55","30.0227","4.72922","42.64","0","SATNPRO1509","31.512","0.44138","5"],
    [12161,"HCEP03730566","2024-02-01 21:30:00","10.7388","3.3802","27.263","3.894","7.51","0.34","7.7","0.09","6.65","30.0214","4.72904","42.48","0","SATNPRO1509","31.438","0.44036","5"],
    [12162,"HCEP03730566","2024-02-01 21:45:00","10.7383","3.3802","27.319","3.899","7.51","3.974","59.842","1.97","34.99","30.0217","4.7291","42.53","0","SATNPRO1509","31.42","0.44006","5"],
    [12163,"HCEP03730566","2024-02-01 22:00:00","10.7392","3.3805","27.319","3.905","7.51","0.364","5.745","0.03","0.25","30.0239","4.7294","42.59","0","SATNPRO1509","31.396","0.43974","5"],
    [12164,"HCEP03730566","2024-02-01 22:15:00","10.7392","3.38046","27.324","3.902","7.51","0.407","5.34","0.03","0.24","30.0236","4.72935","42.57","0","SATNPRO1509","31.418","0.44006","5"],
    [12165,"HCEP03730566","2024-02-01 22:30:00","10.7379","3.38022","27.326","3.892","7.51","0.513","5.527","0.05","0.3","30.0222","4.72917","42.45","0","SATNPRO1509","31.362","0.43926","5"],
    [12166,"HCEP03730566","2024-02-01 22:45:00","10.7372","3.38002","27.218","3.905","7.51","0.579","7.17","0.1","1.11","30.0209","4.72899","42.59","0","SATNPRO1509","31.354","0.43916","5"],
    [12167,"HCEP03730566","2024-02-01 23:00:00","10.7384","3.38039","27.313","3.877","7.51","1.186","61.512","0.71","30.34","30.0235","4.72935","42.29","0","SATNPRO1509","31.216","0.43722","5"],
    [12168,"HCEP03730566","2024-02-01 23:15:00","10.7393","3.38137","27.142","3.861","7.51","0.333","5.479","0.01","0.37","30.0324","4.73059","42.12","0","SATNPRO1509","31.206","0.4371","5"],
    [12169,"HCEP03730566","2024-02-01 23:30:00","10.7376","3.38129","27.087","3.872","7.51","0.305","4.219","0.01","0.17","30.0331","4.73072","42.24","0","SATNPRO1509","31.206","0.43708","5"],
    [12170,"HCEP03730566","2024-02-01 23:45:00","10.7368","3.38129","27.126","3.882","7.51","0.318","4.511","0.01","0.17","30.0337","4.73082","42.35","0","SATNPRO1509","31.136","0.43612","5"],
    [12171,"HCEP03730566","2024-02-02 00:00:00","10.7366","3.38199","27.081","3.9","7.51","0.301","3.897","0.01","0.17","30.0408","4.73182","42.55","0","SATNPRO1509","31.174","0.43666","5"],
    [12172,"HCEP03730566","2024-02-02 00:15:00","10.7372","3.38222","26.991","3.9","7.51","0.32","4.127","0.01","0.24","30.0426","4.73206","42.55","0","SATNPRO1509","31.064","0.4351","5"],
    [12173,"HCEP03730566","2024-02-02 00:30:00","10.7375","3.38242","26.977","3.886","7.51","0.311","4.24","0.01","0.23","30.0443","4.7323","42.39","0","SATNPRO1509","30.924","0.43318","5"],
    [12174,"HCEP03730566","2024-02-02 00:45:00","10.7375","3.38253","26.851","3.862","7.51","0.319","4.544","0.01","0.11","30.0455","4.73247","42.14","0","SATNPRO1509","30.802","0.43146","5"],
    [12175,"HCEP03730566","2024-02-02 01:00:00","10.7365","3.3823","26.848","3.833","7.51","0.309","4.331","0.01","0.16","30.044","4.73227","41.82","0","SATNPRO1509","30.72","0.4303","5"],
    [12176,"HCEP03730566","2024-02-02 01:15:00","10.7335","3.38156","26.741","3.817","7.51","0.32","4.344","0.01","0.11","30.0393","4.73164","41.64","0","SATNPRO1509","30.826","0.43174","5"],
    [12177,"HCEP03730566","2024-02-02 01:30:00","10.7315","3.38103","26.695","3.795","7.51","0.306","4.185","0.01","0.13","30.0357","4.73116","41.39","0","SATNPRO1509","30.704","0.43006","5"],
    [12178,"HCEP03730566","2024-02-02 01:45:00","10.7261","3.3799","26.714","3.794","7.51","0.318","4.25","0.01","0.11","30.029","4.7303","41.37","0","SATNPRO1509","30.71","0.43012","5"],
    [12179,"HCEP03730566","2024-02-02 02:00:00","10.7237","3.3795","26.689","3.796","7.51","0.309","4.271","0.01","0.13","30.027","4.73005","41.39","0","SATNPRO1509","30.86","0.43226","5"],
    [12180,"HCEP03730566","2024-02-02 02:15:00","10.722","3.37927","26.593","3.783","7.51","0.326","4.655","0.01","0.24","30.0263","4.72997","41.25","0","SATNPRO1509","30.742","0.43062","5"],
    [12181,"HCEP03730566","2024-02-02 02:30:00","10.7191","3.37874","26.6","3.799","7.51","0.317","4.855","0.01","0.17","30.0234","4.7296","41.43","0","SATNPRO1509","30.672","0.4296","5"],
    [12182,"HCEP03730566","2024-02-02 02:45:00","10.7186","3.37871","26.55","3.829","7.51","0.33","4.801","0.01","0.35","30.0236","4.72963","41.75","0","SATNPRO1509","30.636","0.4291","5"],
    [12183,"HCEP03730566","2024-02-02 03:00:00","10.7191","3.37899","26.555","3.862","7.51","0.316","4.506","0.01","0.14","30.0258","4.72994","42.11","0","SATNPRO1509","30.794","0.43134","5"],
    [12184,"HCEP03730566","2024-02-02 03:15:00","10.7254","3.38059","26.594","3.949","7.51","0.95","41.094","0.66","37.93","30.0365","4.73136","43.07","0","SATNPRO1509","31.088","0.43546","5"],
    [12185,"HCEP03730566","2024-02-02 03:30:00","10.727","3.3811","26.585","4.013","7.52","0.378","5.614","0.02","0.4","30.0402","4.73186","43.77","0","SATNPRO1509","30.99","0.4341","5"],
    [12186,"HCEP03730566","2024-02-02 03:45:00","10.7311","3.38199","26.612","4.055","7.52","0.397","4.478","0.02","0.24","30.0455","4.73256","44.23","0","SATNPRO1509","30.984","0.434","5"],
    [12187,"HCEP03730566","2024-02-02 04:00:00","10.7319","3.38206","26.672","4.074","7.53","0.336","4.454","0.02","0.19","30.0456","4.73255","44.44","0","SATNPRO1509","31.078","0.43532","5"],
    [12188,"HCEP03730566","2024-02-02 04:15:00","10.7309","3.3818","26.732","4.069","7.53","0.338","4.474","0.02","0.14","30.0438","4.73232","44.39","0","SATNPRO1509","31.009999999999998","0.43434","5"],
    [12189,"HCEP03730566","2024-02-02 04:30:00","10.7314","3.38163","26.778","4.066","7.53","0.322","4.616","0.01","0.15","30.0416","4.73201","44.35","0","SATNPRO1509","31.073999999999998","0.4352","5"],
    [12190,"HCEP03730566","2024-02-02 04:45:00","10.736","3.38214","26.844","4.096","7.53","0.383","4.01","0.02","0.16","30.0429","4.73213","44.68","0","SATNPRO1509","31.132","0.43608","5"],
    [12191,"HCEP03730566","2024-02-02 05:00:00","10.7346","3.38192","26.988","4.097","7.53","0.337","3.862","0.02","0.25","30.0418","4.73199","44.69","0","SATNPRO1509","31.24","0.43758","5"],
    [12192,"HCEP03730566","2024-02-02 05:15:00","10.7364","3.38186","27.028","4.1","7.53","0.398","3.804","0.02","0.2","30.0397","4.73167","44.72","0","SATNPRO1509","31.258","0.43786","5"],
    [12193,"HCEP03730566","2024-02-02 05:30:00","10.7357","3.38156","27.202","4.098","7.53","0.335","3.949","0.02","0.26","30.0372","4.73134","44.7","0","SATNPRO1509","31.284000000000002","0.4382","5"],
    [12194,"HCEP03730566","2024-02-02 05:45:00","10.7356","3.38148","27.312","4.093","7.53","0.347","3.972","0.01","0.2","30.0366","4.73126","44.64","0","SATNPRO1509","31.198","0.43696","5"],
    [12195,"HCEP03730566","2024-02-02 06:00:00","10.7356","3.38145","27.424","4.097","7.53","0.318","3.857","0.01","0.14","30.0362","4.7312","44.69","0","SATNPRO1509","31.195999999999998","0.43696","5"],
    [12196,"HCEP03730566","2024-02-02 06:15:00","10.7356","3.38137","27.466","4.102","7.53","0.34","3.836","0.02","0.25","30.0354","4.73109","44.74","0","SATNPRO1509","31.192","0.43694","5"],
    [12197,"HCEP03730566","2024-02-02 06:30:00","10.7357","3.38125","27.574","4.107","7.53","16.109","321.57","2.63","182.88","30.034","4.73091","44.8","0","SATNPRO1509","31.256","0.43778","5"],
    [12198,"HCEP03730566","2024-02-02 06:45:00","10.7364","3.38117","27.656","4.113","7.53","0.409","4.286","0.04","0.37","30.0327","4.73072","44.87","0","SATNPRO1509","31.344","0.43902","5"],
    [12199,"HCEP03730566","2024-02-02 07:00:00","10.7362","3.38108","27.782","4.118","7.53","0.334","3.53","0.02","0.29","30.0319","4.7306","44.92","0","SATNPRO1509","31.314","0.4386","5"],
    [12200,"HCEP03730566","2024-02-02 07:15:00","10.7435","3.38194","27.848","4.151","7.53","0.316","2.278","0.01","0.12","30.0344","4.73085","45.29","0","SATNPRO1509","31.61","0.44278","5"],
    [12201,"HCEP03730566","2024-02-02 07:30:00","10.7386","3.38138","27.954","4.151","7.53","0.344","4.045","0.05","1.14","30.0329","4.73072","45.28","0","SATNPRO1509","31.526","0.4416","5"],
    [12202,"HCEP03730566","2024-02-02 07:45:00","10.7377","3.38109","27.992","4.164","7.54","3.803","77.34","2.15","30.89","30.0307","4.73042","45.43","0","SATNPRO1509","31.522","0.44154","5"],
    [12203,"HCEP03730566","2024-02-02 08:00:00","10.7424","3.38169","28.065","4.168","7.54","0.351","4.149","0.1","2.3","30.0328","4.73065","45.47","0","SATNPRO1509","31.474","0.44086","5"],
    [12204,"HCEP03730566","2024-02-02 08:15:00","10.7347","3.38084","28.039","4.133","7.53","0.37","3.884","0.02","0.26","30.0306","4.73047","45.09","0","SATNPRO1509","31.137999999999998","0.43616","5"],
    [12205,"HCEP03730566","2024-02-02 08:30:00","10.7318","3.38098","28.152","4.046","7.53","0.424","4.987","0.03","0.28","30.0344","4.73105","44.14","0","SATNPRO1509","31.012","0.43438","5"],
    [12206,"HCEP03730566","2024-02-02 08:45:00","10.7372","3.38193","28.203","4.062","7.53","0.333","4.285","0.02","0.26","30.0393","4.73167","44.31","0","SATNPRO1509","31.238","0.43756","5"],
    [12207,"HCEP03730566","2024-02-02 09:00:00","10.7363","3.38191","28.201","4.091","7.53","0.321","3.851","0.02","0.2","30.0399","4.73176","44.62","0","SATNPRO1509","31.226","0.43736","5"],
    [12208,"HCEP03730566","2024-02-02 09:15:00","10.7321","3.38152","28.226","4.012","7.53","0.326","4.771","0.01","0.11","30.0394","4.73176","43.76","0","SATNPRO1509","30.96","0.43368","5"],
    [12209,"HCEP03730566","2024-02-02 09:30:00","10.7283","3.3811","28.186","3.928","7.52","0.331","5.437","0.05","1.49","30.0385","4.73169","42.84","0","SATNPRO1509","30.802","0.4315","5"],
    [12210,"HCEP03730566","2024-02-02 09:45:00","10.7275","3.38115","28.198","3.867","7.52","0.333","4.962","0.01","0.25","30.0396","4.73187","42.18","0","SATNPRO1509","30.744","0.43064","5"],
    [12211,"HCEP03730566","2024-02-02 10:00:00","10.728","3.38132","28.209","3.872","7.51","0.318","4.9","0.01","0.18","30.0409","4.73204","42.23","0","SATNPRO1509","30.724","0.43034","5"],
    [12212,"HCEP03730566","2024-02-02 10:15:00","10.7297","3.38173","28.107","3.892","7.51","0.332","6.087","0.01","1.72","30.0435","4.73238","42.45","0","SATNPRO1509","30.768","0.43094","5"],
    [12213,"HCEP03730566","2024-02-02 10:30:00","10.734","3.38244","28.062","3.908","7.51","0.316","4.525","0.01","0.16","30.047","4.73281","42.63","0","SATNPRO1509","30.92","0.4331","5"],
    [12214,"HCEP03730566","2024-02-02 10:45:00","10.7374","3.38303","27.988","3.904","7.51","0.327","5.021","0.01","1.5","30.05","4.73318","42.59","0","SATNPRO1509","31.006","0.4343","5"],
    [12215,"HCEP03730566","2024-02-02 11:00:00","10.737","3.38274","27.991","3.904","7.51","0.312","4.361","0.01","0.21","30.0475","4.73283","42.59","0","SATNPRO1509","31.036","0.4347","5"],
    [12216,"HCEP03730566","2024-02-02 11:15:00","10.7364","3.38249","27.831","3.892","7.51","0.466","7.277","0.07","2.34","30.0456","4.73256","42.45","0","SATNPRO1509","31.066","0.43512","5"],
    [12217,"HCEP03730566","2024-02-02 11:30:00","10.7346","3.38198","27.752","3.868","7.51","0.337","4.33","0.02","0.21","30.0421","4.73209","42.2","0","SATNPRO1509","31.056","0.43498","5"],
    [12218,"HCEP03730566","2024-02-02 11:45:00","10.7353","3.38197","27.652","3.855","7.51","0.331","4.115","0.01","0.21","30.0415","4.73198","42.05","0","SATNPRO1509","31.080000000000002","0.43532","5"],
    [12219,"HCEP03730566","2024-02-02 12:00:00","10.735","3.38197","27.53","3.856","7.51","0.317","4.406","0.01","0.27","30.0417","4.732","42.06","0","SATNPRO1509","31.088","0.43542","5"],
    [12220,"HCEP03730566","2024-02-02 12:15:00","10.735","3.38181","27.386","3.848","7.51","0.488","5.631","0.16","1.1","30.0403","4.7318","41.98","0","SATNPRO1509","31.14","0.4362","5"],
    [12221,"HCEP03730566","2024-02-02 12:30:00","10.7348","3.38147","27.246","3.838","7.51","0.315","4.385","0.02","0.39","30.0371","4.73134","41.86","0","SATNPRO1509","30.812","0.4316","5"],
    [12222,"HCEP03730566","2024-02-02 12:45:00","10.7342","3.38138","27.202","3.825","7.51","0.326","6.74","0.01","2.42","30.0367","4.73129","41.73","0","SATNPRO1509","31.088","0.43544","5"],
    [12223,"HCEP03730566","2024-02-02 13:00:00","10.7346","3.38148","27.05","3.822","7.51","0.39","6.205","0.23","5.98","30.0375","4.73138","41.69","0","SATNPRO1509","31.048","0.43488","5"],
    [12224,"HCEP03730566","2024-02-02 13:15:00","10.7343","3.38149","26.931","3.815","7.51","0.324","4.161","0.01","0.22","30.0378","4.73143","41.62","0","SATNPRO1509","31.014","0.4344","5"],
    [12225,"HCEP03730566","2024-02-02 13:30:00","10.7356","3.38184","26.669","3.811","7.51","0.312","4.458","0.01","0.19","30.0404","4.73176","41.57","0","SATNPRO1509","31.046","0.43488","5"],
    [12226,"HCEP03730566","2024-02-02 13:45:00","10.7373","3.38241","26.571","3.817","7.51","0.324","4.474","0.01","0.15","30.0446","4.73233","41.65","0","SATNPRO1509","30.96","0.43362","5"],
    [12227,"HCEP03730566","2024-02-02 14:00:00","10.7364","3.38223","26.377","3.835","7.51","0.307","4.036","0.01","0.18","30.0437","4.73219","41.83","0","SATNPRO1509","31.056","0.43498","5"],
    [12228,"HCEP03730566","2024-02-02 14:15:00","10.7375","3.3825","26.262","3.838","7.51","0.324","4.236","0.01","0.27","30.0454","4.73242","41.87","0","SATNPRO1509","31.064","0.43512","5"],
    [12229,"HCEP03730566","2024-02-02 14:30:00","10.7374","3.38251","26.149","3.84","7.51","0.312","6.575","0.05","8.66","30.0457","4.73245","41.89","0","SATNPRO1509","31.092","0.43552","5"],
    [12230,"HCEP03730566","2024-02-02 14:45:00","10.7381","3.38265","26.024","3.837","7.51","0.322","4.327","0.01","0.23","30.0465","4.73256","41.86","0","SATNPRO1509","30.902","0.43286","5"],
    [12231,"HCEP03730566","2024-02-02 15:00:00","10.7389","3.38289","25.944","3.824","7.51","0.314","4.367","0.01","0.3","30.0482","4.73278","41.72","0","SATNPRO1509","30.878","0.43252","5"],
    [12232,"HCEP03730566","2024-02-02 15:15:00","10.739","3.38299","25.852","3.803","7.51","0.358","4.984","0.02","0.39","30.0492","4.73291","41.49","0","SATNPRO1509","30.82","0.43172","5"],
    [12233,"HCEP03730566","2024-02-02 15:30:00","10.7394","3.38308","25.782","3.799","7.51","0.332","4.871","0.02","0.37","30.0498","4.73298","41.45","0","SATNPRO1509","30.802","0.43142","5"],
    [12234,"HCEP03730566","2024-02-02 15:45:00","10.7396","3.38313","25.697","3.805","7.51","0.347","4.521","0.01","0.27","30.0502","4.73304","41.52","0","SATNPRO1509","30.738","0.43054","5"],
    [12235,"HCEP03730566","2024-02-02 16:00:00","10.7396","3.38318","25.694","3.808","7.51","0.33","4.474","0.01","0.27","30.0506","4.73309","41.54","0","SATNPRO1509","30.904","0.43292","5"],
    [12236,"HCEP03730566","2024-02-02 16:15:00","10.7394","3.3832","25.629","3.815","7.51","0.36","5.09","0.07","2.55","30.051","4.73315","41.62","0","SATNPRO1509","30.76","0.43088","5"],
    [12237,"HCEP03730566","2024-02-02 16:30:00","10.7391","3.38315","25.582","3.815","7.51","0.317","4.332","0.01","0.36","30.0508","4.73313","41.62","0","SATNPRO1509","30.652","0.42932","5"],
    [12238,"HCEP03730566","2024-02-02 16:45:00","10.7386","3.38297","25.655","3.805","7.51","0.358","4.917","0.04","0.46","30.0494","4.73293","41.51","0","SATNPRO1509","30.701999999999998","0.43004","5"],
    [12239,"HCEP03730566","2024-02-02 17:00:00","10.738","3.3827","25.587","3.793","7.51","0.461","7.704","0.15","3.37","30.0473","4.73264","41.37","0","SATNPRO1509","30.794","0.43132","5"],
    [12240,"HCEP03730566","2024-02-02 17:15:00","10.7367","3.38243","25.597","3.792","7.51","0.319","4.48","0.01","0.2","30.0457","4.73244","41.36","0","SATNPRO1509","30.886","0.43264","5"],
    [12241,"HCEP03730566","2024-02-02 17:30:00","10.7364","3.38223","25.62","3.776","7.5","3.242","88.939","1.72","21.44","30.0439","4.73219","41.2","0","SATNPRO1509","30.784","0.4312","5"],
    [12242,"HCEP03730566","2024-02-02 17:45:00","10.7354","3.38198","25.633","3.777","7.5","7.808","250.101","4.82","178.93","30.0423","4.73198","41.2","0","SATNPRO1509","30.828","0.4318","5"],
    [12243,"HCEP03730566","2024-02-02 18:00:00","10.7355","3.38175","25.719","3.783","7.5","6.907","86.478","4.55","32.71","30.0399","4.73164","41.26","0","SATNPRO1509","30.954","0.43354","5"],
    [12244,"HCEP03730566","2024-02-02 18:15:00","10.7336","3.38117","25.776","3.772","7.5","9.27","328.905","2.84","114.38","30.0358","4.73108","41.15","0","SATNPRO1509","31.038","0.43476","5"],
    [12245,"HCEP03730566","2024-02-02 18:30:00","10.7315","3.38038","25.853","3.754","7.5","3.778","75.83","3.52","42.69","30.0297","4.73026","40.94","0","SATNPRO1509","31.042","0.43476","5"],
    [12246,"HCEP03730566","2024-02-02 18:45:00","10.7303","3.38003","25.92","3.734","7.5","0.582","28.027","0.36","18.38","30.0272","4.72992","40.73","0","SATNPRO1509","30.976","0.43384","5"],
    [12247,"HCEP03730566","2024-02-02 19:00:00","10.726","3.37884","25.932","3.723","7.5","0.391","5.974","0.15","1.6","30.019","4.72883","40.6","0","SATNPRO1509","31.198","0.43698","5"],
    [12248,"HCEP03730566","2024-02-02 19:15:00","10.7182","3.37676","26.003","3.713","7.5","0.38","5.725","0.07","0.6","30.0049","4.72695","40.48","0","SATNPRO1509","31.162","0.43646","5"],
    [12249,"HCEP03730566","2024-02-02 19:30:00","10.7173","3.37647","26.09","3.701","7.5","0.324","5.086","0.01","0.34","30.0028","4.72667","40.35","0","SATNPRO1509","31.126","0.43596","5"],
    [12250,"HCEP03730566","2024-02-02 19:45:00","10.7169","3.37617","26.174","3.673","7.5","0.339","5.053","0.01","0.24","30","4.72629","40.05","0","SATNPRO1509","31.2","0.43702","5"],
    [12251,"HCEP03730566","2024-02-02 20:00:00","10.7159","3.37581","26.342","3.671","7.5","0.329","5.381","0.02","0.25","29.9973","4.72592","40.02","0","SATNPRO1509","31.286","0.43822","5"],
    [12252,"HCEP03730566","2024-02-02 20:15:00","10.712","3.3745","26.425","3.643","7.49","0.375","5.887","0.02","0.36","29.9875","4.7246","39.7","0","SATNPRO1509","31.3","0.43838","5"],
    [12253,"HCEP03730566","2024-02-02 20:30:00","10.7096","3.37357","26.581","3.669","7.49","0.338","5.634","0.01","0.31","29.9803","4.72362","39.98","0","SATNPRO1509","31.45","0.44054","5"],
    [12254,"HCEP03730566","2024-02-02 20:45:00","10.7081","3.37285","26.723","3.659","7.49","0.348","5.649","0.01","0.34","29.9743","4.7228","39.87","0","SATNPRO1509","31.502","0.44126","5"],
    [12255,"HCEP03730566","2024-02-02 21:00:00","10.7092","3.37276","26.836","3.645","7.49","0.343","5.867","0.01","0.6","29.9725","4.72254","39.72","0","SATNPRO1509","31.634","0.44308","5"],
    [12256,"HCEP03730566","2024-02-02 21:15:00","10.7084","3.37236","26.938","3.616","7.49","0.348","5.537","0.01","0.55","29.9692","4.72208","39.4","0","SATNPRO1509","31.316","0.4386","5"],
    [12257,"HCEP03730566","2024-02-02 21:30:00","10.7092","3.37252","27.049","3.589","7.49","0.333","6.133","0.01","0.64","29.9701","4.7222","39.11","0","SATNPRO1509","31.374","0.43948","5"],
    [12258,"HCEP03730566","2024-02-02 21:45:00","10.7082","3.37212","27.128","3.571","7.49","0.37","6.543","0.07","0.46","29.9669","4.72178","38.91","0","SATNPRO1509","31.582","0.44234","5"],
    [12259,"HCEP03730566","2024-02-02 22:00:00","10.7063","3.37164","27.229","3.556","7.49","0.332","5.583","0.01","0.57","29.9637","4.72136","38.75","0","SATNPRO1509","31.464","0.44072","5"],
    [12260,"HCEP03730566","2024-02-02 22:15:00","10.7073","3.37172","27.343","3.558","7.48","0.343","5.09","0.01","0.35","29.9636","4.72133","38.77","0","SATNPRO1509","31.13","0.43604","5"],
    [12261,"HCEP03730566","2024-02-02 22:30:00","10.7088","3.37234","27.448","3.556","7.48","0.337","5.579","0.02","0.56","29.9684","4.722","38.75","0","SATNPRO1509","31.482","0.44094","5"],
    [12262,"HCEP03730566","2024-02-02 22:45:00","10.7085","3.37227","27.533","3.587","7.48","0.343","5.016","0.01","0.36","29.968","4.72195","39.09","0","SATNPRO1509","31.534","0.44166","5"],
    [12263,"HCEP03730566","2024-02-02 23:00:00","10.7075","3.37223","27.199","3.602","7.48","0.336","5.054","0.02","0.48","29.9685","4.72202","39.25","0","SATNPRO1509","31.668","0.44358","5"],
    [12264,"HCEP03730566","2024-02-02 23:15:00","10.7073","3.37222","27.194","3.616","7.49","0.344","5.107","0.01","0.35","29.9685","4.72202","39.4","0","SATNPRO1509","31.586","0.4424","5"],
    [12265,"HCEP03730566","2024-02-02 23:30:00","10.7081","3.37246","27.194","3.625","7.49","0.331","4.942","0.01","0.36","29.9703","4.72226","39.51","0","SATNPRO1509","31.692","0.44392","5"],
    [12266,"HCEP03730566","2024-02-02 23:45:00","10.714","3.37387","27.199","3.604","7.49","0.336","4.77","0.01","0.28","29.9794","4.72346","39.28","0","SATNPRO1509","31.6","0.44262","5"],
    [12267,"HCEP03730566","2024-02-03 00:00:00","10.7176","3.37491","27.18","3.6","7.49","0.33","5.222","0.03","1.37","29.9867","4.72444","39.25","0","SATNPRO1509","31.486","0.44102","5"],
    [12268,"HCEP03730566","2024-02-03 00:15:00","10.7179","3.37524","27.232","3.623","7.49","0.342","4.505","0.03","0.79","29.9896","4.72486","39.5","0","SATNPRO1509","31.402","0.43984","5"],
    [12269,"HCEP03730566","2024-02-03 00:30:00","10.7198","3.37617","27.26","3.651","7.49","0.324","4.98","0.02","0.98","29.9972","4.72591","39.81","0","SATNPRO1509","31.294","0.43832","5"],
    [12270,"HCEP03730566","2024-02-03 00:45:00","10.7213","3.37706","27.234","3.685","7.49","0.464","25.379","0.51","18.32","30.0048","4.72696","40.17","0","SATNPRO1509","31.368000000000002","0.43936","5"],
    [12271,"HCEP03730566","2024-02-03 01:00:00","10.7224","3.37771","27.217","3.711","7.49","0.512","6.295","0.16","1.21","30.0103","4.72772","40.46","0","SATNPRO1509","31.39","0.43966","5"],
    [12272,"HCEP03730566","2024-02-03 01:15:00","10.7249","3.37847","27.239","3.73","7.5","0.527","6.113","0.08","0.78","30.0157","4.72846","40.67","0","SATNPRO1509","31.264","0.43788","5"],
    [12273,"HCEP03730566","2024-02-03 01:30:00","10.7263","3.37899","27.244","3.736","7.5","0.325","5.246","0.02","2.06","30.0197","4.729","40.75","0","SATNPRO1509","31.282","0.43816","5"],
    [12274,"HCEP03730566","2024-02-03 01:45:00","10.7273","3.37955","27.222","3.757","7.5","0.857","8.053","0.31","2.71","30.0244","4.72965","40.97","0","SATNPRO1509","31.116","0.43586","5"],
    [12275,"HCEP03730566","2024-02-03 02:00:00","10.7281","3.37992","27.192","3.766","7.5","0.318","4.731","0.01","0.35","30.0274","4.73007","41.07","0","SATNPRO1509","31.102","0.43564","5"],
    [12276,"HCEP03730566","2024-02-03 02:15:00","10.7275","3.38002","27.159","3.778","7.5","0.351","4.477","0.03","0.4","30.0289","4.73029","41.2","0","SATNPRO1509","31.146","0.43626","5"],
    [12277,"HCEP03730566","2024-02-03 02:30:00","10.7271","3.38001","27.131","3.79","7.5","0.318","4.696","0.01","0.35","30.029","4.73031","41.34","0","SATNPRO1509","31.068","0.43514","5"],
    [12278,"HCEP03730566","2024-02-03 02:45:00","10.7265","3.37984","27.097","3.798","7.5","0.338","4.354","0.02","0.34","30.028","4.73017","41.42","0","SATNPRO1509","31.116","0.43582","5"],
    [12279,"HCEP03730566","2024-02-03 03:00:00","10.7248","3.37956","27.068","3.801","7.5","0.317","4.361","0.01","0.28","30.0266","4.72999","41.45","0","SATNPRO1509","31.028","0.4346","5"],
    [12280,"HCEP03730566","2024-02-03 03:15:00","10.7217","3.37866","27.037","3.817","7.5","0.317","4.69","0.01","2.45","30.0202","4.72913","41.62","0","SATNPRO1509","31.157999999999998","0.4364","5"],
    [12281,"HCEP03730566","2024-02-03 03:30:00","10.721","3.37819","27.028","3.833","7.5","0.316","4.389","0.02","0.32","30.0162","4.72857","41.79","0","SATNPRO1509","31.054","0.43498","5"],
    [12282,"HCEP03730566","2024-02-03 03:45:00","10.7221","3.37831","27.028","3.836","7.51","0.589","6.226","0.44","2.2","30.0165","4.7286","41.83","0","SATNPRO1509","31.11","0.43572","5"],
    [12283,"HCEP03730566","2024-02-03 04:00:00","10.7253","3.37902","27.014","3.866","7.51","0.355","3.801","0.02","0.24","30.0208","4.72916","42.16","0","SATNPRO1509","31.298000000000002","0.4384","5"],
    [12284,"HCEP03730566","2024-02-03 04:15:00","10.7271","3.37937","27.007","3.899","7.51","0.325","3.817","0.02","0.36","30.0228","4.72942","42.52","0","SATNPRO1509","31.378","0.43952","5"],
    [12285,"HCEP03730566","2024-02-03 04:30:00","10.7281","3.37953","27.02","3.915","7.51","0.337","4.347","0.02","0.27","30.0236","4.72951","42.69","0","SATNPRO1509","31.29","0.43824","5"],
    [12286,"HCEP03730566","2024-02-03 04:45:00","10.7299","3.37979","27.038","3.936","7.51","0.327","3.655","0.02","0.16","30.0247","4.72964","42.93","0","SATNPRO1509","31.27","0.43798","5"],
    [12287,"HCEP03730566","2024-02-03 05:00:00","10.7308","3.37978","27.06","3.952","7.51","0.31","3.943","0.01","0.26","30.0238","4.72949","43.11","0","SATNPRO1509","31.276","0.43814","5"],
    [12288,"HCEP03730566","2024-02-03 05:15:00","10.7321","3.37991","27.092","3.96","7.52","0.336","4.392","0.01","0.3","30.024","4.72951","43.18","0","SATNPRO1509","31.272","0.43804","5"],
    [12289,"HCEP03730566","2024-02-03 05:30:00","10.7342","3.38017","27.182","3.975","7.52","0.336","4.354","0.01","0.26","30.0248","4.7296","43.36","0","SATNPRO1509","31.332","0.43886","5"],
    [12290,"HCEP03730566","2024-02-03 05:45:00","10.7352","3.38023","27.248","3.992","7.52","0.337","3.755","0.01","0.16","30.0246","4.72955","43.54","0","SATNPRO1509","31.374","0.43946","5"],
    [12291,"HCEP03730566","2024-02-03 06:00:00","10.7352","3.38015","27.321","3.995","7.52","0.329","3.764","0.02","0.27","30.0238","4.72944","43.57","0","SATNPRO1509","31.318","0.43866","5"],
    [12292,"HCEP03730566","2024-02-03 06:15:00","10.7349","3.37995","27.389","3.966","7.52","0.372","4.145","0.02","0.23","30.022","4.7292","43.26","0","SATNPRO1509","31.282","0.43818","5"],
    [12293,"HCEP03730566","2024-02-03 06:30:00","10.7347","3.37986","27.468","3.989","7.52","0.347","4.137","0.01","0.34","30.0213","4.7291","43.51","0","SATNPRO1509","31.298000000000002","0.43838","5"],
    [12294,"HCEP03730566","2024-02-03 06:45:00","10.7352","3.37989","27.531","3.982","7.52","0.344","3.794","0.02","0.25","30.0211","4.72907","43.43","0","SATNPRO1509","31.258","0.43782","5"],
    [12295,"HCEP03730566","2024-02-03 07:00:00","10.7357","3.38","27.547","3.995","7.52","0.315","3.734","0.02","0.23","30.0218","4.72917","43.57","0","SATNPRO1509","31.162","0.43646","5"],
    [12296,"HCEP03730566","2024-02-03 07:15:00","10.7357","3.38001","27.619","4.001","7.52","0.328","3.785","0.01","0.24","30.0218","4.72917","43.64","0","SATNPRO1509","31.204","0.43706","5"],
    [12297,"HCEP03730566","2024-02-03 07:30:00","10.7365","3.38017","27.675","4.014","7.52","1.123","23.011","1.14","26.33","30.0227","4.72929","43.79","0","SATNPRO1509","31.387999999999998","0.43964","5"],
    [12298,"HCEP03730566","2024-02-03 07:45:00","10.7372","3.38038","27.755","4.023","7.52","0.318","3.441","0.01","0.19","30.0242","4.7295","43.89","0","SATNPRO1509","31.354","0.43916","5"],
    [12299,"HCEP03730566","2024-02-03 08:00:00","10.7375","3.38058","27.843","4.028","7.52","0.311","3.613","0.01","0.23","30.0259","4.72973","43.94","0","SATNPRO1509","31.304","0.43846","5"],
    [12300,"HCEP03730566","2024-02-03 08:15:00","10.7388","3.38089","27.937","4.036","7.52","0.459","12.723","0.09","3.72","30.0278","4.72999","44.03","0","SATNPRO1509","31.544","0.4418","5"],
    [12301,"HCEP03730566","2024-02-03 08:30:00","10.7394","3.38105","27.99","4.036","7.52","0.308","3.299","0.02","0.24","30.0289","4.73014","44.03","0","SATNPRO1509","31.404","0.43986","5"],
    [12302,"HCEP03730566","2024-02-03 08:45:00","10.7391","3.38102","28.013","4.021","7.52","0.318","3.549","0.02","0.22","30.0289","4.73015","43.87","0","SATNPRO1509","31.272","0.43802","5"],
    [12303,"HCEP03730566","2024-02-03 09:00:00","10.7402","3.38125","28.045","4.009","7.52","0.307","3.254","0.02","0.17","30.0303","4.73033","43.73","0","SATNPRO1509","31.55","0.4419","5"],
    [12304,"HCEP03730566","2024-02-03 09:15:00","10.7408","3.38153","28.083","4.028","7.52","0.32","3.352","0.01","0.24","30.0324","4.73062","43.94","0","SATNPRO1509","31.374","0.43946","5"],
    [12305,"HCEP03730566","2024-02-03 09:30:00","10.7412","3.3817","28.097","4.036","7.52","0.309","3.193","0.01","0.19","30.0338","4.73081","44.03","0","SATNPRO1509","31.43","0.44026","5"],
    [12306,"HCEP03730566","2024-02-03 09:45:00","10.7419","3.38196","28.109","4.025","7.52","0.313","3.219","0.01","0.31","30.0358","4.73109","43.91","0","SATNPRO1509","31.408","0.43992","5"],
    [12307,"HCEP03730566","2024-02-03 10:00:00","10.7415","3.382","28.119","4.022","7.52","0.305","3.51","0.01","0.26","30.0365","4.7312","43.88","0","SATNPRO1509","31.406","0.43986","5"],
    [12308,"HCEP03730566","2024-02-03 10:15:00","10.7416","3.38205","28.109","4.013","7.52","0.32","3.725","0.01","0.24","30.0369","4.73125","43.78","0","SATNPRO1509","31.286","0.4382","5"],
    [12309,"HCEP03730566","2024-02-03 10:30:00","10.7415","3.38217","28.092","3.996","7.52","0.308","3.922","0.01","0.23","30.0382","4.73144","43.6","0","SATNPRO1509","31.314","0.4386","5"],
    [12310,"HCEP03730566","2024-02-03 10:45:00","10.7416","3.38226","28.051","3.994","7.52","0.323","3.848","0.01","0.24","30.039","4.73155","43.57","0","SATNPRO1509","31.362000000000002","0.4393","5"],
    [12311,"HCEP03730566","2024-02-03 11:00:00","10.7405","3.38209","28.009","3.983","7.52","0.314","3.787","0.02","0.2","30.0383","4.73146","43.45","0","SATNPRO1509","31.324","0.43874","5"],
    [12312,"HCEP03730566","2024-02-03 11:15:00","10.7392","3.38175","27.949","3.955","7.52","0.325","4.243","0.01","0.3","30.036","4.73115","43.15","0","SATNPRO1509","31.172","0.43666","5"],
    [12313,"HCEP03730566","2024-02-03 11:30:00","10.7374","3.38132","27.882","3.926","7.52","0.314","4.718","0.01","0.26","30.0332","4.73079","42.82","0","SATNPRO1509","31.188","0.43686","5"],
    [12314,"HCEP03730566","2024-02-03 11:45:00","10.7349","3.38068","27.788","3.897","7.52","0.338","4.73","0.02","0.44","30.029","4.73022","42.5","0","SATNPRO1509","31.142","0.4362","5"],
    [12315,"HCEP03730566","2024-02-03 12:00:00","10.7332","3.38039","27.685","3.891","7.51","0.316","4.397","0.02","0.25","30.0276","4.73004","42.44","0","SATNPRO1509","31.314","0.43866","5"],
    [12316,"HCEP03730566","2024-02-03 12:15:00","10.7326","3.38043","27.577","3.897","7.51","0.323","3.859","0.01","0.35","30.0286","4.73018","42.5","0","SATNPRO1509","31.374","0.43944","5"],
    [12317,"HCEP03730566","2024-02-03 12:30:00","10.7327","3.38044","27.508","3.903","7.51","0.312","3.64","0.01","0.31","30.0286","4.73018","42.57","0","SATNPRO1509","31.33","0.43886","5"],
    [12318,"HCEP03730566","2024-02-03 12:45:00","10.7319","3.38037","27.367","3.898","7.51","0.328","3.575","0.02","0.34","30.0285","4.73017","42.52","0","SATNPRO1509","31.39","0.43968","5"],
    [12319,"HCEP03730566","2024-02-03 13:00:00","10.7321","3.38032","27.22","3.888","7.51","0.311","3.703","0.01","0.35","30.028","4.73009","42.4","0","SATNPRO1509","31.47","0.44078","5"],
    [12320,"HCEP03730566","2024-02-03 13:15:00","10.7316","3.38025","27.066","3.874","7.51","0.327","3.742","0.02","0.24","30.0278","4.73005","42.25","0","SATNPRO1509","31.354","0.43916","5"],
    [12321,"HCEP03730566","2024-02-03 13:30:00","10.7315","3.38027","26.915","3.855","7.51","0.315","3.933","0.01","0.37","30.0281","4.73009","42.04","0","SATNPRO1509","31.352","0.43914","5"],
    [12322,"HCEP03730566","2024-02-03 13:45:00","10.7315","3.38028","26.749","3.833","7.51","0.329","4.048","0.03","0.26","30.0284","4.73012","41.81","0","SATNPRO1509","31.24","0.43756","5"],
    [12323,"HCEP03730566","2024-02-03 14:00:00","10.7318","3.38044","26.599","3.805","7.51","0.322","4.527","0.01","0.31","30.0297","4.73029","41.5","0","SATNPRO1509","31.172","0.43662","5"],
    [12324,"HCEP03730566","2024-02-03 14:15:00","10.7332","3.38071","26.42","3.798","7.51","0.345","5.027","0.03","0.51","30.0313","4.7305","41.42","0","SATNPRO1509","30.956","0.4336","5"],
    [12325,"HCEP03730566","2024-02-03 14:30:00","10.7356","3.38125","26.26","3.867","7.51","0.32","4.387","0.02","0.6","30.0347","4.73093","42.18","0","SATNPRO1509","31.2","0.43702","5"],
    [12326,"HCEP03730566","2024-02-03 14:45:00","10.7374","3.38167","26.103","3.935","7.51","0.33","4.971","0.01","0.48","30.0374","4.73128","42.93","0","SATNPRO1509","31.418","0.44004","5"],
    [12327,"HCEP03730566","2024-02-03 15:00:00","10.7392","3.38212","25.981","3.983","7.52","0.312","3.993","0.01","0.28","30.0404","4.73167","43.45","0","SATNPRO1509","31.44","0.44034","5"],
    [12328,"HCEP03730566","2024-02-03 15:15:00","10.7401","3.3824","25.873","4.003","7.52","0.334","4.199","0.02","0.33","30.0425","4.73195","43.67","0","SATNPRO1509","31.284","0.43818","5"],
    [12329,"HCEP03730566","2024-02-03 15:30:00","10.7401","3.38253","25.758","4.005","7.52","0.309","4.159","0.01","0.32","30.0438","4.73212","43.7","0","SATNPRO1509","31.282","0.43816","5"],
    [12330,"HCEP03730566","2024-02-03 15:45:00","10.7411","3.38266","25.638","3.999","7.52","0.324","4.161","0.02","0.34","30.0443","4.73216","43.63","0","SATNPRO1509","31.226","0.43738","5"],
    [12331,"HCEP03730566","2024-02-03 16:00:00","10.7415","3.38278","25.573","3.993","7.52","0.307","4.178","0.01","0.32","30.0452","4.73229","43.56","0","SATNPRO1509","31.168","0.43658","5"],
    [12332,"HCEP03730566","2024-02-03 16:15:00","10.7421","3.38295","25.502","3.99","7.52","0.338","4.017","0.03","0.33","30.0464","4.73245","43.53","0","SATNPRO1509","31.194","0.43698","5"],
    [12333,"HCEP03730566","2024-02-03 16:30:00","10.7421","3.38298","25.45","3.983","7.52","0.319","4.165","0.02","0.45","30.0467","4.73249","43.45","0","SATNPRO1509","31.13","0.43604","5"],
    [12334,"HCEP03730566","2024-02-03 16:45:00","10.7417","3.38289","25.401","3.974","7.52","0.338","4.285","0.03","0.26","30.0462","4.73242","43.36","0","SATNPRO1509","31.138","0.43616","5"],
    [12335,"HCEP03730566","2024-02-03 17:00:00","10.7422","3.38294","25.353","3.973","7.52","0.309","3.979","0.02","0.17","30.0462","4.73241","43.35","0","SATNPRO1509","31.36","0.4392","5"],
    [12336,"HCEP03730566","2024-02-03 17:15:00","10.7421","3.383","25.337","3.966","7.52","0.317","3.694","0.01","0.14","30.0469","4.73251","43.27","0","SATNPRO1509","31.186","0.4368","5"],
    [12337,"HCEP03730566","2024-02-03 17:30:00","10.7417","3.38292","25.341","3.969","7.52","0.295","3.644","0.02","0.16","30.0465","4.73246","43.3","0","SATNPRO1509","31.158","0.4364","5"],
    [12338,"HCEP03730566","2024-02-03 17:45:00","10.7416","3.38289","25.369","3.976","7.52","0.313","3.672","0.02","0.25","30.0462","4.73242","43.37","0","SATNPRO1509","31.248","0.43766","5"],
    [12339,"HCEP03730566","2024-02-03 18:00:00","10.7404","3.38263","25.4","3.976","7.52","0.312","3.661","0.01","0.29","30.0447","4.73223","43.38","0","SATNPRO1509","31.122","0.43592","5"],
    [12340,"HCEP03730566","2024-02-03 18:15:00","10.7393","3.3824","25.434","3.97","7.52","0.326","3.646","0.02","0.6","30.0433","4.73204","43.31","0","SATNPRO1509","31.169999999999998","0.4366","5"],
    [12341,"HCEP03730566","2024-02-03 18:30:00","10.739","3.38231","25.458","3.962","7.52","0.346","3.824","0.02","0.26","30.0427","4.73196","43.22","0","SATNPRO1509","31.252000000000002","0.43776","5"],
    [12342,"HCEP03730566","2024-02-03 18:45:00","10.735900000000001","3.38147","25.514","3.953","7.52","0.321","3.533","0.01","0.21","30.0369","4.73119","43.13","0","SATNPRO1509","31.298000000000002","0.43838","5"],
    [12343,"HCEP03730566","2024-02-03 19:00:00","10.7391","3.38228","25.583","3.922","7.52","0.311","4.054","0.01","0.22","30.0422","4.7319","42.79","0","SATNPRO1509","31.156","0.43638","5"],
    [12344,"HCEP03730566","2024-02-03 19:15:00","10.7373","3.38179","25.666","3.902","7.52","0.325","4.355","0.01","0.26","30.0388","4.73145","42.57","0","SATNPRO1509","30.91","0.43296","5"],
    [12345,"HCEP03730566","2024-02-03 19:30:00","10.738","3.38189","25.75","3.886","7.51","0.329","5.025","0.02","0.4","30.0391","4.73149","42.4","0","SATNPRO1509","31.066","0.43514","5"],
    [12346,"HCEP03730566","2024-02-03 19:45:00","10.7356","3.38125","25.829","3.88","7.51","0.326","4.26","0.01","0.28","30.0349","4.73093","42.32","0","SATNPRO1509","31.201999999999998","0.43706","5"],
    [12347,"HCEP03730566","2024-02-03 20:00:00","10.7352","3.38112","25.923","3.871","7.51","0.355","4.708","0.08","0.75","30.0339","4.7308","42.22","0","SATNPRO1509","31.22","0.43726","5"],
    [12348,"HCEP03730566","2024-02-03 20:15:00","10.733","3.38057","26.026","3.862","7.51","0.321","4.101","0.02","0.32","30.0302","4.73031","42.12","0","SATNPRO1509","31.266000000000002","0.43792","5"],
    [12349,"HCEP03730566","2024-02-03 20:30:00","10.73","3.37969","26.132","3.873","7.51","0.318","4.01","0.01","0.31","30.024","4.72948","42.24","0","SATNPRO1509","31.314","0.43858","5"],
    [12350,"HCEP03730566","2024-02-03 20:45:00","10.7325","3.38033","26.249","3.859","7.51","0.326","3.818","0.02","0.21","30.0282","4.73005","42.09","0","SATNPRO1509","31.118","0.4359","5"],
    [12351,"HCEP03730566","2024-02-03 21:00:00","10.7301","3.37976","26.363","3.844","7.51","0.308","3.974","0.01","0.29","30.0244","4.72956","41.92","0","SATNPRO1509","31.298","0.43838","5"],
    [12352,"HCEP03730566","2024-02-03 21:15:00","10.7331","3.38059","26.483","3.83","7.51","0.328","4.605","0.01","0.3","30.0302","4.73034","41.78","0","SATNPRO1509","31.016","0.4344","5"],
    [12353,"HCEP03730566","2024-02-03 21:30:00","10.7311","3.37998","26.602","3.796","7.51","0.32","4.64","0.01","0.42","30.0257","4.72974","41.4","0","SATNPRO1509","31.169999999999998","0.43658","5"],
    [12354,"HCEP03730566","2024-02-03 21:45:00","10.7302","3.3797","26.729","3.792","7.51","0.336","5.176","0.01","0.45","30.0237","4.72947","41.36","0","SATNPRO1509","31.15","0.43628","5"],
    [12355,"HCEP03730566","2024-02-03 22:00:00","10.7284","3.37913","26.839","3.687","7.5","1.558","20.489","0.12","4.42","30.0195","4.72891","40.21","0","SATNPRO1509","31.272","0.43802","5"],
    [12356,"HCEP03730566","2024-02-03 22:15:00","10.7301","3.37953","26.958","3.622","7.5","0.524","9.199","0.07","1.33","30.022","4.72925","39.5","0","SATNPRO1509","30.908","0.4329","5"],
    [12357,"HCEP03730566","2024-02-03 22:30:00","10.7307","3.37934","27.069","3.684","7.5","2.514","64.41","1.7","26.37","30.0196","4.72891","40.18","0","SATNPRO1509","30.876","0.43248","5"],
    [12358,"HCEP03730566","2024-02-03 22:45:00","10.73","3.37932","27.163","3.671","7.5","0.329","4.895","0.01","0.29","30.0199","4.72896","40.03","0","SATNPRO1509","31.09","0.4355","5"],
    [12359,"HCEP03730566","2024-02-03 23:00:00","10.7302","3.37951","27.249","3.789","7.5","0.315","4.844","0.01","0.26","30.0216","4.72921","41.32","0","SATNPRO1509","31.03","0.43462","5"],
    [12360,"HCEP03730566","2024-02-03 23:15:00","10.7338","3.38023","27.272","3.833","7.51","0.334","4.996","0.01","0.27","30.0257","4.72974","41.81","0","SATNPRO1509","30.69","0.42988","5"],
    [12361,"HCEP03730566","2024-02-03 23:30:00","10.7368","3.38114","27.346","3.854","7.51","0.315","4.807","0.03","0.64","30.0322","4.73061","42.04","0","SATNPRO1509","31.058","0.43506","5"],
    [12362,"HCEP03730566","2024-02-03 23:45:00","10.7372","3.38131","27.374","3.9","7.51","0.334","4.292","0.02","0.55","30.0335","4.7308","42.54","0","SATNPRO1509","31.25","0.43772","5"],
    [12363,"HCEP03730566","2024-02-04 00:00:00","10.7346","3.38095","27.382","3.918","7.51","0.301","4.245","0.01","0.34","30.0322","4.73065","42.73","0","SATNPRO1509","31.476","0.4409","5"],
    [12364,"HCEP03730566","2024-02-04 00:15:00","10.7377","3.38157","27.282","3.945","7.51","1.117","13.22","0.38","4.78","30.0357","4.7311","43.03","0","SATNPRO1509","31.514","0.4414","5"],
    [12365,"HCEP03730566","2024-02-04 00:30:00","10.7395","3.38207","27.337","3.909","7.51","0.3","3.732","0.01","0.24","30.0392","4.73157","42.65","0","SATNPRO1509","31.584","0.4424","5"],
    [12366,"HCEP03730566","2024-02-04 00:45:00","10.7369","3.38133","27.357","3.931","7.51","0.314","3.436","0.01","0.21","30.034","4.73087","42.88","0","SATNPRO1509","31.648","0.44332","5"],
    [12367,"HCEP03730566","2024-02-04 01:00:00","10.7363","3.38117","27.365","3.795","7.51","0.303","3.397","0.01","0.16","30.0329","4.73073","41.39","0","SATNPRO1509","31.544","0.44186","5"],
    [12368,"HCEP03730566","2024-02-04 01:15:00","10.7362","3.381","27.439","3.839","7.52","0.461","5.297","0.11","1.72","30.0313","4.7305","41.87","0","SATNPRO1509","31.69","0.44386","5"],
    [12369,"HCEP03730566","2024-02-04 01:30:00","10.7355","3.38073","27.48","3.94","7.52","0.367","8.243","0.09","7.09","30.0292","4.73022","42.97","0","SATNPRO1509","31.774","0.44504","5"],
    [12370,"HCEP03730566","2024-02-04 01:45:00","10.7361","3.38093","27.513","3.959","7.52","0.321","3.65","0.01","0.44","30.0306","4.73042","43.19","0","SATNPRO1509","31.592","0.4425","5"],
    [12371,"HCEP03730566","2024-02-04 02:00:00","10.7377","3.38135","27.509","3.942","7.52","0.906","25.372","0.19","2.1","30.0334","4.73079","43","0","SATNPRO1509","31.5","0.44122","5"],
    [12372,"HCEP03730566","2024-02-04 02:15:00","10.7394","3.38182","27.499","3.938","7.51","0.317","3.51","0.01","0.24","30.0367","4.73122","42.96","0","SATNPRO1509","31.472","0.4408","5"],
    [12373,"HCEP03730566","2024-02-04 02:30:00","10.741","3.38215","27.508","3.927","7.51","0.32","4.095","0.02","0.23","30.0386","4.73147","42.84","0","SATNPRO1509","31.404","0.43984","5"],
    [12374,"HCEP03730566","2024-02-04 02:45:00","10.7416","3.38231","27.502","3.909","7.51","0.332","4.133","0.02","0.2","30.0398","4.73162","42.64","0","SATNPRO1509","31.228","0.43744","5"],
    [12375,"HCEP03730566","2024-02-04 03:00:00","10.7429","3.38271","27.485","3.888","7.51","0.31","4.234","0.01","0.26","30.0426","4.73201","42.42","0","SATNPRO1509","31.134","0.43608","5"],
    [12376,"HCEP03730566","2024-02-04 03:15:00","10.7436","3.38288","27.476","3.863","7.51","0.32","4.402","0.01","0.18","30.0437","4.73215","42.15","0","SATNPRO1509","31.132","0.43606","5"],
    [12377,"HCEP03730566","2024-02-04 03:30:00","10.7424","3.38254","27.458","3.849","7.51","0.319","4.707","0.01","0.27","30.0413","4.73183","42","0","SATNPRO1509","30.964","0.43374","5"],
    [12378,"HCEP03730566","2024-02-04 03:45:00","10.7427","3.38263","27.437","3.844","7.51","0.318","4.166","0.01","0.21","30.042","4.73192","41.93","0","SATNPRO1509","31.112000000000002","0.43578","5"],
    [12379,"HCEP03730566","2024-02-04 04:00:00","10.7425","3.38262","27.41","3.836","7.51","0.309","4.303","0.01","0.29","30.0421","4.73193","41.85","0","SATNPRO1509","31.048000000000002","0.43488","5"],
    [12380,"HCEP03730566","2024-02-04 04:15:00","10.7419","3.38243","27.388","3.831","7.51","0.317","4.17","0.01","0.17","30.0408","4.73175","41.79","0","SATNPRO1509","31.046","0.43488","5"],
    [12381,"HCEP03730566","2024-02-04 04:30:00","10.742","3.38228","27.367","3.839","7.51","0.305","4.097","0.01","0.21","30.0392","4.73153","41.89","0","SATNPRO1509","31.2","0.43702","5"],
    [12382,"HCEP03730566","2024-02-04 04:45:00","10.7422","3.3823","27.348","3.858","7.51","0.32","3.856","0.01","0.17","30.0392","4.73153","42.09","0","SATNPRO1509","31.244","0.43764","5"],
    [12383,"HCEP03730566","2024-02-04 05:00:00","10.743","3.38237","27.336","3.865","7.51","0.298","3.823","0.01","0.33","30.0392","4.73151","42.16","0","SATNPRO1509","31.198","0.43698","5"],
    [12384,"HCEP03730566","2024-02-04 05:15:00","10.744","3.38259","27.337","3.88","7.51","0.321","3.889","0.01","0.3","30.0406","4.73169","42.34","0","SATNPRO1509","31.192","0.43688","5"],
    [12385,"HCEP03730566","2024-02-04 05:30:00","10.7468","3.38314","27.334","3.925","7.51","0.302","3.749","0.01","0.22","30.0437","4.73209","42.83","0","SATNPRO1509","31.306","0.4385","5"],
    [12386,"HCEP03730566","2024-02-04 05:45:00","10.7512","3.38414","27.337","3.986","7.51","0.309","3.15","0.01","0.19","30.05","4.73291","43.5","0","SATNPRO1509","31.426000000000002","0.4402","5"],
    [12387,"HCEP03730566","2024-02-04 06:00:00","10.7521","3.38437","27.379","4.02","7.52","0.388","5.883","0.29","7.15","30.0514","4.7331","43.87","0","SATNPRO1509","31.29","0.43826","5"],
    [12388,"HCEP03730566","2024-02-04 06:15:00","10.7541","3.38484","27.418","4.022","7.52","0.318","3.89","0.02","0.23","30.0544","4.7335","43.9","0","SATNPRO1509","31.372","0.4394","5"],
    [12389,"HCEP03730566","2024-02-04 06:30:00","10.7552","3.38508","27.455","4.047","7.52","0.304","3.794","0.01","0.21","30.0558","4.73368","44.17","0","SATNPRO1509","31.4","0.43982","5"],
    [12390,"HCEP03730566","2024-02-04 06:45:00","10.7571","3.3854","27.499","4.07","7.52","0.308","3.553","0.02","0.28","30.0574","4.73388","44.42","0","SATNPRO1509","31.482","0.44098","5"],
    [12391,"HCEP03730566","2024-02-04 07:00:00","10.7579","3.38555","27.542","4.089","7.53","0.318","4.056","0.02","0.73","30.0582","4.73399","44.63","0","SATNPRO1509","31.608","0.44272","5"],
    [12392,"HCEP03730566","2024-02-04 07:15:00","10.7587","3.38572","27.609","4.116","7.53","0.404","7.446","0.1","3.04","30.0592","4.73412","44.93","0","SATNPRO1509","31.634","0.44308","5"],
    [12393,"HCEP03730566","2024-02-04 07:30:00","10.7594","3.38579","27.649","4.131","7.53","0.403","10.539","0.22","13.93","30.0593","4.73413","45.09","0","SATNPRO1509","31.759999999999998","0.44482","5"],
    [12394,"HCEP03730566","2024-02-04 07:45:00","10.7594","3.38582","27.66","4.132","7.53","0.894","26.508","1.05","38.07","30.0596","4.73417","45.1","0","SATNPRO1509","31.656","0.4434","5"],
    [12395,"HCEP03730566","2024-02-04 08:00:00","10.7603","3.38605","27.69","4.157","7.53","0.305","2.861","0.02","0.16","30.0611","4.73438","45.38","0","SATNPRO1509","31.812","0.44556","5"],
    [12396,"HCEP03730566","2024-02-04 08:15:00","10.7601","3.38625","27.747","4.183","7.53","0.299","2.48","0.01","0.16","30.0632","4.73468","45.66","0","SATNPRO1509","31.86","0.44628","5"],
    [12397,"HCEP03730566","2024-02-04 08:30:00","10.7607","3.38643","27.811","4.211","7.54","1.268","26.489","0.87","17.84","30.0644","4.73484","45.96","0","SATNPRO1509","31.79","0.44528","5"],
    [12398,"HCEP03730566","2024-02-04 08:45:00","10.7622","3.38663","27.834","4.203","7.54","0.542","12.186","0.11","2.23","30.0652","4.73493","45.88","0","SATNPRO1509","31.602","0.44264","5"],
    [12399,"HCEP03730566","2024-02-04 09:00:00","10.7626","3.38687","27.881","4.2","7.54","0.289","2.7","0.01","0.36","30.0672","4.73521","45.85","0","SATNPRO1509","31.748","0.44472","5"],
    [12400,"HCEP03730566","2024-02-04 09:15:00","10.7627","3.38701","27.913","4.186","7.54","0.306","3.243","0.01","0.28","30.0684","4.73539","45.7","0","SATNPRO1509","31.742","0.44462","5"],
    [12401,"HCEP03730566","2024-02-04 09:30:00","10.7629","3.38723","27.91","4.19","7.54","0.297","3.147","0.01","0.25","30.0705","4.73567","45.74","0","SATNPRO1509","31.68","0.44376","5"],
    [12402,"HCEP03730566","2024-02-04 09:45:00","10.7632","3.38745","27.926","4.186","7.53","0.315","3.686","0.01","0.4","30.0724","4.73594","45.7","0","SATNPRO1509","31.71","0.4442","5"],
    [12403,"HCEP03730566","2024-02-04 10:00:00","10.7634","3.38765","27.956","4.17","7.53","0.31","3.829","0.05","0.29","30.0742","4.73619","45.52","0","SATNPRO1509","31.532","0.44164","5"],
    [12404,"HCEP03730566","2024-02-04 10:15:00","10.7638","3.38782","27.944","4.168","7.53","0.355","3.943","0.08","1.49","30.0755","4.73638","45.51","0","SATNPRO1509","31.572","0.44226","5"],
    [12405,"HCEP03730566","2024-02-04 10:30:00","10.764","3.38791","27.92","4.162","7.53","0.431","3.581","0.15","0.66","30.0762","4.73647","45.44","0","SATNPRO1509","31.682","0.4438","5"],
    [12406,"HCEP03730566","2024-02-04 10:45:00","10.7639","3.38801","27.967","4.163","7.53","0.362","3.579","0.05","0.36","30.0774","4.73664","45.46","0","SATNPRO1509","31.648","0.44332","5"],
    [12407,"HCEP03730566","2024-02-04 11:00:00","10.7637","3.38802","27.963","4.169","7.53","0.303","3.117","0.02","0.5","30.0776","4.73667","45.51","0","SATNPRO1509","31.668","0.44356","5"],
    [12408,"HCEP03730566","2024-02-04 11:15:00","10.7636","3.388","27.932","4.164","7.53","0.311","3.195","0.02","0.16","30.0775","4.73666","45.46","0","SATNPRO1509","31.616","0.44286","5"],
    [12409,"HCEP03730566","2024-02-04 11:30:00","10.7636","3.38794","27.906","4.165","7.53","0.292","3.143","0.01","0.21","30.0769","4.73658","45.47","0","SATNPRO1509","31.478","0.4409","5"],
    [12410,"HCEP03730566","2024-02-04 11:45:00","10.7637","3.38801","27.855","4.163","7.53","0.306","2.971","0.02","0.16","30.0775","4.73666","45.45","0","SATNPRO1509","31.584","0.44242","5"],
    [12411,"HCEP03730566","2024-02-04 12:00:00","10.7634","3.38794","27.792","4.163","7.53","0.297","2.92","0.02","0.21","30.0772","4.73661","45.45","0","SATNPRO1509","31.672","0.44364","5"],
    [12412,"HCEP03730566","2024-02-04 12:15:00","10.7634","3.38798","27.715","4.163","7.53","0.312","2.991","0.01","0.17","30.0775","4.73665","45.45","0","SATNPRO1509","31.69","0.44386","5"],
    [12413,"HCEP03730566","2024-02-04 12:30:00","10.7632","3.38789","27.62","4.158","7.53","0.296","3.406","0.01","0.21","30.0769","4.73656","45.39","0","SATNPRO1509","31.634","0.4431","5"],
    [12414,"HCEP03730566","2024-02-04 12:45:00","10.7632","3.38793","27.506","4.158","7.53","0.312","3.491","0.01","0.12","30.0773","4.73662","45.39","0","SATNPRO1509","31.678","0.44368","5"],
    [12415,"HCEP03730566","2024-02-04 13:00:00","10.7632","3.38796","27.386","4.157","7.53","0.301","3.309","0.02","0.25","30.0777","4.73667","45.38","0","SATNPRO1509","31.594","0.44254","5"],
    [12416,"HCEP03730566","2024-02-04 13:15:00","10.7635","3.38795","27.266","4.142","7.53","0.322","3.635","0.02","0.31","30.0774","4.73661","45.22","0","SATNPRO1509","31.518","0.44148","5"],
    [12417,"HCEP03730566","2024-02-04 13:30:00","10.7634","3.38796","27.11","4.129","7.53","0.302","3.668","0.01","0.24","30.0776","4.73663","45.08","0","SATNPRO1509","31.504","0.44128","5"],
    [12418,"HCEP03730566","2024-02-04 13:45:00","10.7639","3.38798","26.972","4.124","7.53","0.313","3.946","0.01","0.38","30.0774","4.73659","45.02","0","SATNPRO1509","31.42","0.4401","5"],
    [12419,"HCEP03730566","2024-02-04 14:00:00","10.7644","3.38804","26.809","4.12","7.53","0.311","4.15","0.02","0.28","30.0776","4.73661","44.98","0","SATNPRO1509","31.492","0.44112","5"],
    [12420,"HCEP03730566","2024-02-04 14:15:00","10.7648","3.38806","26.64","4.125","7.53","0.318","3.778","0.02","0.19","30.0775","4.73658","45.03","0","SATNPRO1509","31.566","0.44212","5"],
    [12421,"HCEP03730566","2024-02-04 14:30:00","10.7652","3.38813","26.482","4.123","7.53","0.307","3.842","0.01","0.2","30.0781","4.73663","45.02","0","SATNPRO1509","31.52","0.44152","5"],
    [12422,"HCEP03730566","2024-02-04 14:45:00","10.7661","3.38839","26.332","4.119","7.53","0.327","4.296","0.04","0.26","30.0799","4.73687","44.97","0","SATNPRO1509","31.55","0.44192","5"],
    [12423,"HCEP03730566","2024-02-04 15:00:00","10.767","3.38861","26.176","4.098","7.53","0.327","4.904","0.04","0.52","30.0814","4.73706","44.74","0","SATNPRO1509","31.252","0.43772","5"],
    [12424,"HCEP03730566","2024-02-04 15:15:00","10.7672","3.38873","26.021","4.113","7.53","0.319","3.995","0.01","0.21","30.0824","4.7372","44.91","0","SATNPRO1509","31.532","0.44166","5"],
    [12425,"HCEP03730566","2024-02-04 15:30:00","10.7651","3.38819","25.86","4.16","7.53","0.319","3.354","0.02","0.4","30.079","4.73673","45.42","0","SATNPRO1509","31.754","0.44478","5"],
    [12426,"HCEP03730566","2024-02-04 15:45:00","10.7651","3.38824","25.729","4.186","7.53","0.316","2.712","0.01","0.16","30.0794","4.73679","45.71","0","SATNPRO1509","31.85","0.44614","5"],
    [12427,"HCEP03730566","2024-02-04 16:00:00","10.7669","3.38868","25.59","4.169","7.53","0.344","3.732","0.02","0.27","30.0824","4.73718","45.52","0","SATNPRO1509","31.538","0.44168","5"],
    [12428,"HCEP03730566","2024-02-04 16:15:00","10.7652","3.38806","25.512","4.126","7.53","0.327","3.648","0.05","1.12","30.0777","4.73653","45.05","0","SATNPRO1509","31.566","0.44212","5"],
    [12429,"HCEP03730566","2024-02-04 16:30:00","10.7645","3.38783","25.396","4.092","7.53","0.303","3.722","0.01","0.27","30.0761","4.7363","44.68","0","SATNPRO1509","31.544","0.44182","5"],
    [12430,"HCEP03730566","2024-02-04 16:45:00","10.7675","3.38875","25.289","4.09","7.53","0.325","4.205","0.02","1.33","30.0827","4.73719","44.65","0","SATNPRO1509","31.472","0.44082","5"],
    [12431,"HCEP03730566","2024-02-04 17:00:00","10.7665","3.38837","25.183","4.075","7.53","0.306","4.153","0.01","0.23","30.0798","4.73679","44.49","0","SATNPRO1509","31.514","0.44144","5"],
    [12432,"HCEP03730566","2024-02-04 17:15:00","10.7654","3.38811","25.111","4.045","7.53","0.319","4.184","0.01","0.29","30.0782","4.73658","44.16","0","SATNPRO1509","31.366","0.43938","5"],
    [12433,"HCEP03730566","2024-02-04 17:30:00","10.7651","3.38801","25.047","4.017","7.52","0.329","4.742","0.02","0.35","30.0775","4.73648","43.86","0","SATNPRO1509","31.288","0.43824","5"],
    [12434,"HCEP03730566","2024-02-04 17:45:00","10.7632","3.38745","25.021","3.993","7.52","0.343","4.831","0.02","0.28","30.0736","4.73595","43.59","0","SATNPRO1509","31.196","0.43696","5"],
    [12435,"HCEP03730566","2024-02-04 18:00:00","10.7628","3.38724","24.983","3.968","7.52","0.317","4.428","0.01","0.18","30.0718","4.7357","43.32","0","SATNPRO1509","31.094","0.43556","5"],
    [12436,"HCEP03730566","2024-02-04 18:15:00","10.7586","3.3862","24.994","3.957","7.52","0.333","4.485","0.02","0.26","30.065","4.7348","43.2","0","SATNPRO1509","31.233999999999998","0.43748","5"],
    [12437,"HCEP03730566","2024-02-04 18:30:00","10.7566","3.3856","25.017","3.952","7.52","0.303","4.213","0.01","0.22","30.0608","4.73423","43.14","0","SATNPRO1509","31.29","0.43826","5"],
    [12438,"HCEP03730566","2024-02-04 18:45:00","10.7552","3.38524","25.04","3.936","7.52","0.337","4.643","0.04","1.51","30.0583","4.73391","42.96","0","SATNPRO1509","31.164","0.43648","5"],
    [12439,"HCEP03730566","2024-02-04 19:00:00","10.7545","3.38505","25.078","3.917","7.51","0.316","4.674","0.03","1.13","30.0571","4.73374","42.75","0","SATNPRO1509","31.14","0.43616","5"],
    [12440,"HCEP03730566","2024-02-04 19:15:00","10.7534","3.38477","25.138","3.903","7.51","0.331","4.327","0.02","0.29","30.0552","4.7335","42.59","0","SATNPRO1509","31.137999999999998","0.43614","5"],
    [12441,"HCEP03730566","2024-02-04 19:30:00","10.752","3.38428","25.198","3.895","7.51","0.304","3.947","0.01","0.19","30.0515","4.733","42.51","0","SATNPRO1509","31.17","0.43658","5"],
    [12442,"HCEP03730566","2024-02-04 19:45:00","10.7505","3.384","25.257","3.891","7.51","0.34","4.125","0.02","0.17","30.0499","4.73279","42.46","0","SATNPRO1509","31.114","0.43582","5"],
    [12443,"HCEP03730566","2024-02-04 20:00:00","10.7495","3.38378","25.348","3.884","7.51","0.309","4.005","0.01","0.19","30.0486","4.73263","42.39","0","SATNPRO1509","31.11","0.4357","5"],
    [12444,"HCEP03730566","2024-02-04 20:15:00","10.7507","3.38405","25.455","3.878","7.51","0.324","4.237","0.01","0.22","30.0501","4.73284","42.32","0","SATNPRO1509","31.204","0.43706","5"],
    [12445,"HCEP03730566","2024-02-04 20:30:00","10.7505","3.384","25.578","3.88","7.51","0.31","4.027","0.01","0.19","30.0498","4.7328","42.34","0","SATNPRO1509","31.137999999999998","0.43614","5"],
    [12446,"HCEP03730566","2024-02-04 20:45:00","10.7505","3.38404","25.703","3.887","7.51","0.319","3.869","0.01","0.19","30.0502","4.73286","42.41","0","SATNPRO1509","31.246","0.43762","5"],
    [12447,"HCEP03730566","2024-02-04 21:00:00","10.7502","3.38402","25.84","3.885","7.51","0.319","4.039","0.01","0.21","30.0502","4.73287","42.4","0","SATNPRO1509","31.256","0.43782","5"],
    [12448,"HCEP03730566","2024-02-04 21:15:00","10.7486","3.38352","25.968","3.884","7.51","0.321","3.878","0.01","0.23","30.0465","4.73238","42.38","0","SATNPRO1509","31.278","0.43814","5"],
    [12449,"HCEP03730566","2024-02-04 21:30:00","10.7455","3.38277","26.11","3.879","7.51","0.305","3.697","0.01","0.2","30.0416","4.73174","42.32","0","SATNPRO1509","31.362","0.43924","5"],
    [12450,"HCEP03730566","2024-02-04 21:45:00","10.7466","3.38292","26.248","3.87","7.51","0.445","9.218","0.19","7.28","30.0422","4.73181","42.22","0","SATNPRO1509","31.169999999999998","0.4366","5"],
    [12451,"HCEP03730566","2024-02-04 22:00:00","10.75","3.3839","26.412","3.656","7.51","0.305","4.116","0.01","0.33","30.0489","4.73272","39.9","0","SATNPRO1509","31.18","0.43676","5"],
    [12452,"HCEP03730566","2024-02-04 22:15:00","10.7515","3.38427","26.551","3.794","7.51","0.32","4.184","0.01","0.18","30.0513","4.73305","41.41","0","SATNPRO1509","31.17","0.4366","5"],
    [12453,"HCEP03730566","2024-02-04 22:30:00","10.7514","3.38423","26.664","3.688","7.51","0.311","4.447","0.02","0.18","30.0509","4.733","40.25","0","SATNPRO1509","31.128","0.43602","5"],
    [12454,"HCEP03730566","2024-02-04 22:45:00","10.7501","3.38395","26.775","3.872","7.51","0.316","4.155","0.01","0.26","30.0492","4.73278","42.26","0","SATNPRO1509","31.39","0.4397","5"],
    [12455,"HCEP03730566","2024-02-04 23:00:00","10.753","3.38445","26.895","3.902","7.51","0.289","6.755","0.05","2.26","30.0516","4.7331","42.58","0","SATNPRO1509","31.131999999999998","0.43606","5"],
    [12456,"HCEP03730566","2024-02-04 23:15:00","10.755","3.38579","27.017","3.911","7.51","0.451","11.855","0.09","4.07","30.0632","4.73471","42.69","0","SATNPRO1509","30.79","0.43126","5"],
    [12457,"HCEP03730566","2024-02-04 23:30:00","10.7618","3.387","27.114","3.915","7.51","0.407","4.926","0.02","0.23","30.0695","4.7355","42.74","0","SATNPRO1509","31.006","0.43428","5"],
    [12458,"HCEP03730566","2024-02-04 23:45:00","10.7609","3.38682","27.196","3.943","7.51","0.366","4.544","0.04","0.46","30.0684","4.73537","43.04","0","SATNPRO1509","31.131999999999998","0.43606","5"],
    [12459,"HCEP03730566","2024-02-05 00:00:00","10.7626","3.38721","27.306","3.956","7.51","0.455","5.568","0.17","1.54","30.0708","4.73569","43.18","0","SATNPRO1509","31.318","0.43866","5"],
    [12460,"HCEP03730566","2024-02-05 00:15:00","10.7634","3.38747","27.409","3.95","7.51","0.462","5.869","0.15","1.07","30.0727","4.73595","43.12","0","SATNPRO1509","31.285999999999998","0.43822","5"],
    [12461,"HCEP03730566","2024-02-05 00:30:00","10.7634","3.38742","27.477","3.956","7.51","0.671","5.913","0.16","1.17","30.0722","4.73588","43.18","0","SATNPRO1509","31.262","0.43788","5"],
    [12462,"HCEP03730566","2024-02-05 00:45:00","10.7648","3.38786","27.546","3.961","7.51","0.318","4.181","0.01","0.21","30.0752","4.7363","43.25","0","SATNPRO1509","31.342","0.43902","5"],
    [12463,"HCEP03730566","2024-02-05 01:00:00","10.7671","3.38852","27.603","3.984","7.52","0.912","10.676","0.08","2.75","30.0798","4.73692","43.5","0","SATNPRO1509","31.342","0.43898","5"],
    [12464,"HCEP03730566","2024-02-05 01:15:00","10.7678","3.38876","27.648","4.013","7.52","0.682","10.387","0.13","1.87","30.0817","4.73717","43.82","0","SATNPRO1509","31.31","0.43852","5"],
    [12465,"HCEP03730566","2024-02-05 01:30:00","10.7683","3.38893","27.684","4.015","7.52","0.328","4.464","0.02","0.88","30.0829","4.73734","43.84","0","SATNPRO1509","31.338","0.43894","5"],
    [12466,"HCEP03730566","2024-02-05 01:45:00","10.769","3.38908","27.732","4.012","7.52","0.34","6.079","0.02","1.8","30.0837","4.73745","43.81","0","SATNPRO1509","31.348","0.43906","5"],
    [12467,"HCEP03730566","2024-02-05 02:00:00","10.7686","3.38893","27.758","4.009","7.52","0.48","7.766","0.28","5.51","30.0826","4.73729","43.78","0","SATNPRO1509","31.352","0.43914","5"],
    [12468,"HCEP03730566","2024-02-05 02:15:00","10.7665","3.38839","27.779","3.996","7.52","0.323","4.378","0.01","0.35","30.079","4.73682","43.63","0","SATNPRO1509","31.408","0.43996","5"],
    [12469,"HCEP03730566","2024-02-05 02:30:00","10.7646","3.38787","27.792","3.98","7.52","0.304","4.496","0.01","0.34","30.0755","4.73635","43.45","0","SATNPRO1509","31.43","0.44024","5"],
    [12470,"HCEP03730566","2024-02-05 02:45:00","10.7606","3.38675","27.802","3.962","7.52","0.328","4.581","0.01","0.68","30.0677","4.73531","43.26","0","SATNPRO1509","31.304","0.43844","5"],
    [12471,"HCEP03730566","2024-02-05 03:00:00","10.7607","3.38687","27.808","3.95","7.52","0.701","11.121","0.12","1.95","30.0688","4.73546","43.12","0","SATNPRO1509","31.314","0.43864","5"],
    [12472,"HCEP03730566","2024-02-05 03:15:00","10.7575","3.38579","27.791","3.938","7.51","0.338","4.459","0.02","0.83","30.0608","4.73438","42.98","0","SATNPRO1509","31.355999999999998","0.43914","5"],
    [12473,"HCEP03730566","2024-02-05 03:30:00","10.7556","3.3854","27.791","3.926","7.51","0.32","5.89","0.02","1.72","30.0586","4.73409","42.85","0","SATNPRO1509","31.508","0.44134","5"],
    [12474,"HCEP03730566","2024-02-05 03:45:00","10.7569","3.38573","27.774","3.923","7.51","0.404","6.521","0.05","1.41","30.0607","4.73437","42.81","0","SATNPRO1509","31.378","0.43946","5"],
    [12475,"HCEP03730566","2024-02-05 04:00:00","10.7567","3.38565","27.749","3.918","7.51","0.453","10.305","0.17","1.69","30.0601","4.73428","42.77","0","SATNPRO1509","31.452","0.44054","5"],
    [12476,"HCEP03730566","2024-02-05 04:15:00","10.7552","3.38526","27.735","3.908","7.51","0.451","11.655","0.11","3.39","30.0574","4.73393","42.65","0","SATNPRO1509","31.298","0.43842","5"],
    [12477,"HCEP03730566","2024-02-05 04:30:00","10.7532","3.38471","27.687","3.898","7.51","0.361","6.697","0.06","1.29","30.0537","4.73343","42.54","0","SATNPRO1509","31.37","0.43942","5"],
    [12478,"HCEP03730566","2024-02-05 04:45:00","10.7537","3.38485","27.661","3.889","7.51","0.745","22.39","0.15","3.27","30.0547","4.73357","42.45","0","SATNPRO1509","31.274","0.43802","5"],
    [12479,"HCEP03730566","2024-02-05 05:00:00","10.7539","3.38493","27.615","3.877","7.51","0.834","21.357","0.28","6.25","30.0554","4.73365","42.31","0","SATNPRO1509","31.358","0.43922","5"],
    [12480,"HCEP03730566","2024-02-05 05:15:00","10.7521","3.38452","27.584","3.874","7.51","0.411","10.094","0.06","2.39","30.0528","4.73332","42.28","0","SATNPRO1509","31.372","0.43944","5"],
    [12481,"HCEP03730566","2024-02-05 05:30:00","10.7527","3.38457","27.565","3.867","7.51","0.745","11.821","0.05","1.13","30.0528","4.73331","42.2","0","SATNPRO1509","31.344","0.43902","5"],
    [12482,"HCEP03730566","2024-02-05 05:45:00","10.7519","3.3844","27.524","3.86","7.51","0.549","11.029","0.07","1.64","30.0519","4.73318","42.13","0","SATNPRO1509","31.37","0.43934","5"],
    [12483,"HCEP03730566","2024-02-05 06:00:00","10.7516","3.38428","27.491","3.852","7.51","0.743","12.821","0.05","1.01","30.0509","4.73304","42.03","0","SATNPRO1509","31.252","0.43772","5"],
    [12484,"HCEP03730566","2024-02-05 06:15:00","10.751","3.38417","27.476","3.844","7.51","0.316","3.675","0.01","0.23","30.0503","4.73297","41.95","0","SATNPRO1509","31.324","0.43878","5"],
    [12485,"HCEP03730566","2024-02-05 06:30:00","10.7509","3.38407","27.492","3.842","7.51","0.323","4.121","0.02","0.35","30.0494","4.73285","41.92","0","SATNPRO1509","31.332","0.43886","5"],
    [12486,"HCEP03730566","2024-02-05 06:45:00","10.7501","3.38401","27.498","3.835","7.51","0.309","3.707","0.01","0.16","30.0494","4.73286","41.84","0","SATNPRO1509","31.242","0.43758","5"],
    [12487,"HCEP03730566","2024-02-05 07:00:00","10.75","3.38395","27.498","3.83","7.51","0.316","3.945","0.01","0.16","30.0489","4.73279","41.8","0","SATNPRO1509","31.254","0.4378","5"],
    [12488,"HCEP03730566","2024-02-05 07:15:00","10.7503","3.38401","27.505","3.826","7.51","0.322","4.247","0.01","0.19","30.0493","4.73284","41.76","0","SATNPRO1509","31.254","0.43776","5"],
    [12489,"HCEP03730566","2024-02-05 07:30:00","10.7499","3.38394","27.505","3.824","7.51","0.756","18.423","0.3","7.31","30.0489","4.73279","41.73","0","SATNPRO1509","31.242","0.43758","5"],
    [12490,"HCEP03730566","2024-02-05 07:45:00","10.7496","3.38382","27.53","3.824","7.51","0.315","3.6","0.01","0.18","30.048","4.73267","41.73","0","SATNPRO1509","31.242","0.43758","5"],
    [12491,"HCEP03730566","2024-02-05 08:00:00","10.7495","3.38376","27.542","3.817","7.5","0.498","6.007","0.26","2.78","30.0475","4.73261","41.65","0","SATNPRO1509","31.240000000000002","0.43754","5"],
    [12492,"HCEP03730566","2024-02-05 08:15:00","10.7496","3.38378","27.556","3.806","7.5","0.312","3.491","0.01","0.18","30.0476","4.73262","41.53","0","SATNPRO1509","31.238","0.43756","5"],
    [12493,"HCEP03730566","2024-02-05 08:30:00","10.7499","3.38378","27.588","3.801","7.5","0.301","3.52","0.01","0.16","30.0473","4.73257","41.48","0","SATNPRO1509","31.2","0.437","5"],
    [12494,"HCEP03730566","2024-02-05 08:45:00","10.7498","3.38377","27.605","3.799","7.5","0.317","3.654","0.02","0.17","30.0473","4.73256","41.46","0","SATNPRO1509","31.308","0.43848","5"],
    [12495,"HCEP03730566","2024-02-05 09:00:00","10.7497","3.38371","27.64","3.795","7.5","0.304","3.784","0.02","0.19","30.0468","4.73251","41.42","0","SATNPRO1509","31.194","0.43692","5"],
    [12496,"HCEP03730566","2024-02-05 09:15:00","10.7496","3.3837","27.665","3.789","7.5","0.309","3.591","0.01","0.16","30.0468","4.7325","41.34","0","SATNPRO1509","31.082","0.4354","5"],
    [12497,"HCEP03730566","2024-02-05 09:30:00","10.7494","3.38363","27.687","3.778","7.5","0.307","3.932","0.01","0.21","30.0462","4.73243","41.23","0","SATNPRO1509","31.092","0.43548","5"],
    [12498,"HCEP03730566","2024-02-05 09:45:00","10.7488","3.38342","27.693","3.771","7.5","0.325","3.766","0.01","0.34","30.0446","4.73221","41.14","0","SATNPRO1509","31.11","0.43576","5"],
    [12499,"HCEP03730566","2024-02-05 10:00:00","10.7481","3.38325","27.713","3.766","7.5","0.299","3.779","0.01","0.23","30.0435","4.73206","41.09","0","SATNPRO1509","31.195999999999998","0.43696","5"],
    [12500,"HCEP03730566","2024-02-05 10:15:00","10.7476","3.38311","27.745","3.762","7.5","0.317","3.514","0.02","0.2","30.0426","4.73194","41.05","0","SATNPRO1509","31.098","0.43564","5"],
    [12501,"HCEP03730566","2024-02-05 10:30:00","10.748","3.3831","27.768","3.747","7.5","0.305","3.787","0.01","0.17","30.0421","4.73187","40.89","0","SATNPRO1509","31.036","0.43472","5"],
    [12502,"HCEP03730566","2024-02-05 10:45:00","10.7481","3.3831","27.769","3.731","7.5","0.305","3.424","0.01","0.15","30.042","4.73186","40.71","0","SATNPRO1509","30.918","0.43308","5"],
    [12503,"HCEP03730566","2024-02-05 11:00:00","10.7484","3.38312","27.789","3.724","7.5","0.291","3.424","0.01","0.15","30.0421","4.73186","40.63","0","SATNPRO1509","31.072","0.43522","5"],
    [12504,"HCEP03730566","2024-02-05 11:15:00","10.7483","3.38311","27.795","3.745","7.5","0.311","3.793","0.01","0.27","30.042","4.73185","40.87","0","SATNPRO1509","31.105999999999998","0.43566","5"],
    [12505,"HCEP03730566","2024-02-05 11:30:00","10.7488","3.38315","27.802","3.768","7.5","0.298","3.214","0.01","0.14","30.0419","4.73183","41.12","0","SATNPRO1509","31.116","0.4358","5"],
    [12506,"HCEP03730566","2024-02-05 11:45:00","10.7487","3.38304","27.8","3.802","7.5","0.316","3.112","0.01","0.17","30.0409","4.73169","41.48","0","SATNPRO1509","31.332","0.43884","5"],
    [12507,"HCEP03730566","2024-02-05 12:00:00","10.7484","3.38304","27.755","3.774","7.5","0.296","3.366","0.01","0.15","30.0413","4.73174","41.18","0","SATNPRO1509","31.164","0.43648","5"],
    [12508,"HCEP03730566","2024-02-05 12:15:00","10.7484","3.38305","27.735","3.758","7.5","0.321","3.223","0.03","0.16","30.0414","4.73176","41.01","0","SATNPRO1509","31.1","0.43562","5"],
    [12509,"HCEP03730566","2024-02-05 12:30:00","10.7484","3.38309","27.694","3.76","7.5","0.29","3.139","0.01","0.16","30.0417","4.7318","41.03","0","SATNPRO1509","31.16","0.4365","5"],
    [12510,"HCEP03730566","2024-02-05 12:45:00","10.7483","3.38306","27.645","3.767","7.5","0.294","2.883","0.01","0.11","30.0415","4.73178","41.11","0","SATNPRO1509","31.134","0.43606","5"],
    [12511,"HCEP03730566","2024-02-05 13:00:00","10.7488","3.38309","27.567","3.765","7.5","0.295","2.987","0.01","0.13","30.0414","4.73174","41.08","0","SATNPRO1509","31.381999999999998","0.43958","5"],
    [12512,"HCEP03730566","2024-02-05 13:15:00","10.7484","3.38307","27.497","3.764","7.5","0.311","3.068","0.03","0.34","30.0416","4.73178","41.07","0","SATNPRO1509","31.226","0.43738","5"],
    [12513,"HCEP03730566","2024-02-05 13:30:00","10.7479","3.38303","27.419","3.764","7.5","0.295","2.974","0.01","0.18","30.0417","4.73179","41.07","0","SATNPRO1509","31.206","0.4371","5"],
    [12514,"HCEP03730566","2024-02-05 13:45:00","10.7486","3.38318","27.316","3.791","7.5","0.318","2.697","0.02","0.04","30.0426","4.73191","41.36","0","SATNPRO1509","31.34","0.43894","5"],
    [12515,"HCEP03730566","2024-02-05 14:00:00","10.7487","3.38335","27.214","3.573","7.5","0.311","3.893","0.01","0.14","30.0443","4.73213","38.98","0","SATNPRO1509","30.977999999999998","0.43392","5"],
    [12516,"HCEP03730566","2024-02-05 14:15:00","10.7497","3.38348","27.092","3.591","7.5","0.328","4.94","0.01","0.21","30.0448","4.73219","39.19","0","SATNPRO1509","30.504","0.42724","5"],
    [12517,"HCEP03730566","2024-02-05 14:30:00","10.7493","3.38337","26.949","3.666","7.49","0.316","4.854","0.01","0.3","30.044","4.73208","40","0","SATNPRO1509","30.488","0.42708","5"],
    [12518,"HCEP03730566","2024-02-05 14:45:00","10.7499","3.38354","26.819","3.649","7.49","0.332","4.991","0.01","0.22","30.0452","4.73223","39.82","0","SATNPRO1509","30.482","0.42696","5"],
    [12519,"HCEP03730566","2024-02-05 15:00:00","10.7488","3.38333","26.67","3.667","7.49","0.315","4.582","0.01","0.23","30.0441","4.73208","40.01","0","SATNPRO1509","30.92","0.4331","5"],
    [12520,"HCEP03730566","2024-02-05 15:15:00","10.7484","3.38335","26.528","3.72","7.49","0.332","4.925","0.01","0.46","30.0448","4.73217","40.59","0","SATNPRO1509","30.794","0.43132","5"],
    [12521,"HCEP03730566","2024-02-05 15:30:00","10.7473","3.38342","26.362","3.883","7.5","0.313","4.222","0.01","0.26","30.0464","4.73242","42.37","0","SATNPRO1509","31.31","0.43856","5"],
    [12522,"HCEP03730566","2024-02-05 15:45:00","10.7471","3.38376","26.215","4.003","7.51","0.326","4.283","0.01","0.23","30.05","4.73292","43.68","0","SATNPRO1509","31.538","0.44172","5"],
    [12523,"HCEP03730566","2024-02-05 16:00:00","10.748","3.38422","26.059","4.056","7.52","0.312","4.077","0.01","0.27","30.0538","4.73344","44.26","0","SATNPRO1509","31.682","0.44374","5"],
    [12524,"HCEP03730566","2024-02-05 16:15:00","10.7494","3.38467","25.895","4.09","7.52","0.318","3.704","0.01","0.23","30.0572","4.73388","44.64","0","SATNPRO1509","31.712","0.44416","5"],
    [12525,"HCEP03730566","2024-02-05 16:30:00","10.7495","3.38487","25.721","4.096","7.52","0.306","3.567","0.01","0.35","30.0591","4.73415","44.7","0","SATNPRO1509","31.532","0.44164","5"],
    [12526,"HCEP03730566","2024-02-05 16:45:00","10.7503","3.38499","25.527","4.083","7.52","0.369","4.5","0.03","0.83","30.0597","4.73421","44.56","0","SATNPRO1509","31.27","0.438","5"],
    [12527,"HCEP03730566","2024-02-05 17:00:00","10.7499","3.38505","25.357","4.076","7.52","0.31","3.576","0.02","0.3","30.0607","4.73434","44.48","0","SATNPRO1509","31.634","0.44308","5"],
    [12528,"HCEP03730566","2024-02-05 17:15:00","10.7509","3.38516","25.196","4.07","7.52","0.317","3.422","0.01","0.26","30.0611","4.73438","44.42","0","SATNPRO1509","31.733999999999998","0.44446","5"],
    [12529,"HCEP03730566","2024-02-05 17:30:00","10.7525","3.38553","25.046","4.053","7.52","0.34","4.332","0.03","0.92","30.0634","4.73467","44.23","0","SATNPRO1509","31.574","0.44228","5"],
    [12530,"HCEP03730566","2024-02-05 17:45:00","10.7545","3.38588","24.89","4.03","7.52","0.324","4.01","0.01","0.33","30.0653","4.7349","43.98","0","SATNPRO1509","31.57","0.44222","5"],
    [12531,"HCEP03730566","2024-02-05 18:00:00","10.7554","3.38616","24.819","4.022","7.52","0.311","4.253","0.01","0.24","30.0674","4.73518","43.9","0","SATNPRO1509","31.554000000000002","0.44196","5"],
    [12532,"HCEP03730566","2024-02-05 18:15:00","10.7558","3.38632","24.76","4.032","7.52","0.321","4.029","0.01","0.23","30.0686","4.73534","44.01","0","SATNPRO1509","31.596","0.44254","5"],
    [12533,"HCEP03730566","2024-02-05 18:30:00","10.7564","3.38654","24.68","4.04","7.52","0.319","4.244","0.02","0.3","30.0703","4.73557","44.1","0","SATNPRO1509","31.536","0.44176","5"],
    [12534,"HCEP03730566","2024-02-05 18:45:00","10.7569","3.38671","24.622","4.039","7.52","0.33","4.349","0.01","0.35","30.0716","4.73574","44.09","0","SATNPRO1509","31.586","0.4424","5"],
    [12535,"HCEP03730566","2024-02-05 19:00:00","10.7571","3.38682","24.619","4.042","7.52","0.312","4.141","0.01","0.25","30.0725","4.73587","44.13","0","SATNPRO1509","31.66","0.44344","5"],
    [12536,"HCEP03730566","2024-02-05 19:15:00","10.7557","3.38652","24.662","4.062","7.52","0.31","4.039","0.01","0.38","30.0707","4.73563","44.34","0","SATNPRO1509","31.762","0.44488","5"],
    [12537,"HCEP03730566","2024-02-05 19:30:00","10.7556","3.38636","24.682","4.082","7.52","0.309","3.732","0.01","0.22","30.0692","4.73543","44.55","0","SATNPRO1509","31.692","0.4439","5"],
    [12538,"HCEP03730566","2024-02-05 19:45:00","10.7554","3.38627","24.72","4.074","7.52","0.326","3.961","0.01","0.27","30.0685","4.73533","44.47","0","SATNPRO1509","31.78","0.44512","5"],
    [12539,"HCEP03730566","2024-02-05 20:00:00","10.7574","3.3865","24.756","4.038","7.52","0.309","3.941","0.01","0.2","30.0691","4.73538","44.08","0","SATNPRO1509","31.634","0.44306","5"],
    [12540,"HCEP03730566","2024-02-05 20:15:00","10.7566","3.38627","24.841","3.995","7.52","0.325","4.284","0.01","0.27","30.0674","4.73516","43.61","0","SATNPRO1509","31.556","0.44198","5"],
    [12541,"HCEP03730566","2024-02-05 20:30:00","10.7532","3.38533","24.924","3.984","7.52","0.315","4.35","0.02","0.27","30.0609","4.7343","43.48","0","SATNPRO1509","31.54","0.44176","5"],
    [12542,"HCEP03730566","2024-02-05 20:45:00","10.7486","3.38418","25.005","3.993","7.52","0.328","4.124","0.01","0.28","30.0534","4.73331","43.58","0","SATNPRO1509","31.594","0.4425","5"],
    [12543,"HCEP03730566","2024-02-05 21:00:00","10.7473","3.38375","25.129","3.994","7.52","0.321","4.275","0.02","0.39","30.0502","4.73288","43.58","0","SATNPRO1509","31.650000000000002","0.4433","5"],
    [12544,"HCEP03730566","2024-02-05 21:15:00","10.7481","3.38377","25.242","3.975","7.52","0.326","3.897","0.01","0.26","30.0497","4.7328","43.38","0","SATNPRO1509","31.67","0.44356","5"],
    [12545,"HCEP03730566","2024-02-05 21:30:00","10.7486","3.38367","25.375","3.962","7.52","0.316","4.03","0.01","0.25","30.0482","4.73259","43.23","0","SATNPRO1509","31.67","0.44358","5"],
    [12546,"HCEP03730566","2024-02-05 21:45:00","10.7494","3.38376","25.511","3.957","7.52","0.317","3.787","0.01","0.19","30.0484","4.73262","43.19","0","SATNPRO1509","31.604","0.44266","5"],
    [12547,"HCEP03730566","2024-02-05 22:00:00","10.7489","3.38347","25.649","3.949","7.51","0.314","4.138","0.01","0.21","30.0459","4.73227","43.09","0","SATNPRO1509","31.733999999999998","0.4445","5"],
    [12548,"HCEP03730566","2024-02-05 22:15:00","10.7469","3.38293","25.791","3.917","7.51","0.319","3.927","0.01","0.28","30.0421","4.73177","42.74","0","SATNPRO1509","31.434","0.44028","5"],
    [12549,"HCEP03730566","2024-02-05 22:30:00","10.7456","3.38254","25.938","3.872","7.51","0.309","4.388","0.01","0.56","30.0393","4.73141","42.25","0","SATNPRO1509","31.419999999999998","0.4401","5"],
    [12550,"HCEP03730566","2024-02-05 22:45:00","10.7446","3.38235","26.108","3.834","7.51","0.324","4.478","0.01","0.47","30.0382","4.73128","41.84","0","SATNPRO1509","31.668","0.44358","5"],
    [12551,"HCEP03730566","2024-02-05 23:00:00","10.744","3.38224","26.28","3.797","7.5","0.317","4.126","0.02","0.37","30.0376","4.73121","41.43","0","SATNPRO1509","31.432","0.44026","5"],
    [12552,"HCEP03730566","2024-02-05 23:15:00","10.7433","3.38205","26.459","3.764","7.5","0.324","4.199","0.01","0.27","30.0362","4.73103","41.06","0","SATNPRO1509","31.368","0.43938","5"],
    [12553,"HCEP03730566","2024-02-05 23:30:00","10.7399","3.38122","26.635","3.752","7.5","0.322","4.619","0.02","0.76","30.0307","4.73031","40.93","0","SATNPRO1509","31.516","0.44144","5"],
    [12554,"HCEP03730566","2024-02-05 23:45:00","10.7377","3.38065","26.824","3.744","7.5","0.327","3.964","0.01","0.36","30.0268","4.72981","40.84","0","SATNPRO1509","31.578","0.4423","5"],
    [12555,"HCEP03730566","2024-02-06 00:00:00","10.7402","3.38135","26.984","3.722","7.5","0.329","4.882","0.01","0.32","30.0317","4.73046","40.61","0","SATNPRO1509","31.478","0.44092","5"],
    [12556,"HCEP03730566","2024-02-06 00:15:00","10.7441","3.38228","27.121","3.748","7.49","0.344","4.873","0.01","0.46","30.0375","4.73123","40.9","0","SATNPRO1509","31.240000000000002","0.43756","5"],
    [12557,"HCEP03730566","2024-02-06 00:30:00","10.7478","3.38335","27.253","3.813","7.5","0.32","5.249","0.03","0.8","30.0449","4.73225","41.6","0","SATNPRO1509","31.28","0.43814","5"],
    [12558,"HCEP03730566","2024-02-06 00:45:00","10.7499","3.38394","27.267","3.841","7.5","0.336","4.562","0.02","0.58","30.049","4.73279","41.92","0","SATNPRO1509","31.388","0.43964","5"],
    [12559,"HCEP03730566","2024-02-06 01:00:00","10.7524","3.38485","27.359","3.891","7.5","0.321","4.592","0.01","0.24","30.0559","4.73375","42.46","0","SATNPRO1509","31.381999999999998","0.43952","5"],
    [12560,"HCEP03730566","2024-02-06 01:15:00","10.7538","3.38558","27.482","3.929","7.51","4.787","188.947","1.3","27.79","30.0619","4.73457","42.89","0","SATNPRO1509","31.5","0.44124","5"],
    [12561,"HCEP03730566","2024-02-06 01:30:00","10.7542","3.38574","27.589","3.962","7.51","0.609","6.16","0.2","1.33","30.0631","4.73475","43.24","0","SATNPRO1509","31.586","0.44244","5"],
    [12562,"HCEP03730566","2024-02-06 01:45:00","10.7541","3.38592","27.68","3.991","7.51","0.282","17.194","0.01","1.23","30.065","4.73502","43.56","0","SATNPRO1509","31.602","0.44266","5"],
    [12563,"HCEP03730566","2024-02-06 02:00:00","10.7534","3.38597","27.755","4.016","7.52","0.371","20.589","0.04","3.76","30.066","4.73518","43.83","0","SATNPRO1509","31.605999999999998","0.44268","5"],
    [12564,"HCEP03730566","2024-02-06 02:15:00","10.7532","3.38607","27.803","4.024","7.52","0.346","4.557","0.03","0.25","30.067","4.73533","43.92","0","SATNPRO1509","31.644000000000002","0.4432","5"],
    [12565,"HCEP03730566","2024-02-06 02:30:00","10.7467","3.3845","27.842","4.044","7.52","1.582","19.127","1.02","6.84","30.0569","4.734","44.13","0","SATNPRO1509","31.774","0.4451","5"],
    [12566,"HCEP03730566","2024-02-06 02:45:00","10.7458","3.38421","27.883","4.047","7.52","0.317","3.683","0.01","0.21","30.0548","4.73372","44.16","0","SATNPRO1509","31.696","0.44398","5"],
    [12567,"HCEP03730566","2024-02-06 03:00:00","10.7459","3.38432","27.911","4.043","7.52","0.319","3.789","0.06","0.31","30.0557","4.73385","44.11","0","SATNPRO1509","31.778","0.44506","5"],
    [12568,"HCEP03730566","2024-02-06 03:15:00","10.7465","3.38443","27.931","4.042","7.52","0.329","3.929","0.02","0.27","30.0563","4.73393","44.11","0","SATNPRO1509","31.722","0.4443","5"],
    [12569,"HCEP03730566","2024-02-06 03:30:00","10.7461","3.38424","27.949","4.043","7.52","0.308","3.951","0.01","0.24","30.0549","4.73373","44.11","0","SATNPRO1509","31.72","0.44428","5"],
    [12570,"HCEP03730566","2024-02-06 03:45:00","10.744","3.38368","27.961","4.04","7.52","0.451","5.79","0.11","1.16","30.051","4.73321","44.08","0","SATNPRO1509","31.874","0.44644","5"],
    [12571,"HCEP03730566","2024-02-06 04:00:00","10.7438","3.3836","27.959","4.04","7.52","0.306","3.244","0.01","0.24","30.0504","4.73313","44.08","0","SATNPRO1509","31.754","0.44476","5"],
    [12572,"HCEP03730566","2024-02-06 04:15:00","10.7437","3.3836","27.942","4.035","7.52","0.423","5.331","0.02","0.41","30.0504","4.73313","44.02","0","SATNPRO1509","31.702","0.44408","5"],
    [12573,"HCEP03730566","2024-02-06 04:30:00","10.7441","3.38362","27.91","4.029","7.52","0.314","3.931","0.01","0.45","30.0504","4.73311","43.96","0","SATNPRO1509","31.772","0.44506","5"],
    [12574,"HCEP03730566","2024-02-06 04:45:00","10.744","3.38365","27.884","4.03","7.52","0.322","3.86","0.01","0.31","30.0508","4.73317","43.97","0","SATNPRO1509","31.884","0.4466","5"],
    [12575,"HCEP03730566","2024-02-06 05:00:00","10.7442","3.38367","27.853","4.033","7.52","0.311","3.703","0.02","0.28","30.0508","4.73317","44","0","SATNPRO1509","31.926000000000002","0.44718","5"],
    [12576,"HCEP03730566","2024-02-06 05:15:00","10.7422","3.38302","27.803","4.034","7.52","0.319","3.403","0.01","0.25","30.0461","4.73254","44.01","0","SATNPRO1509","31.884","0.4466","5"],
    [12577,"HCEP03730566","2024-02-06 05:30:00","10.7421","3.38298","27.759","4.023","7.52","0.308","3.508","0.02","0.25","30.0458","4.73248","43.89","0","SATNPRO1509","31.858","0.4462","5"],
    [12578,"HCEP03730566","2024-02-06 05:45:00","10.7419","3.38289","27.721","3.999","7.52","0.324","3.583","0.02","0.19","30.0451","4.7324","43.63","0","SATNPRO1509","31.68","0.44376","5"],
    [12579,"HCEP03730566","2024-02-06 06:00:00","10.7383","3.38187","27.683","3.985","7.52","0.302","3.526","0.01","0.22","30.0381","4.73145","43.47","0","SATNPRO1509","31.868","0.44634","5"],
    [12580,"HCEP03730566","2024-02-06 06:15:00","10.7318","3.38065","27.644","4.022","7.52","0.316","2.961","0.01","0.27","30.0313","4.73059","43.87","0","SATNPRO1509","32.004","0.44826","5"],
    [12581,"HCEP03730566","2024-02-06 06:30:00","10.7321","3.38056","27.604","4.004","7.52","0.309","3.504","0.01","0.47","30.0302","4.73042","43.67","0","SATNPRO1509","31.802","0.44546","5"],
    [12582,"HCEP03730566","2024-02-06 06:45:00","10.7328","3.38069","27.558","3.985","7.52","0.321","3.244","0.01","0.15","30.031","4.73052","43.46","0","SATNPRO1509","31.828","0.44582","5"],
    [12583,"HCEP03730566","2024-02-06 07:00:00","10.7362","3.38133","27.519","3.961","7.52","0.319","3.909","0.01","0.33","30.0345","4.73096","43.21","0","SATNPRO1509","31.754","0.44476","5"],
    [12584,"HCEP03730566","2024-02-06 07:15:00","10.736","3.38139","27.486","3.949","7.51","0.316","3.592","0.01","0.37","30.0353","4.73107","43.08","0","SATNPRO1509","31.768","0.445","5"],
    [12585,"HCEP03730566","2024-02-06 07:30:00","10.7356","3.38131","27.467","3.966","7.51","0.471","28.513","0.22","22.53","30.0348","4.73101","43.26","0","SATNPRO1509","31.736","0.44452","5"],
    [12586,"HCEP03730566","2024-02-06 07:45:00","10.7379","3.38174","27.454","3.958","7.51","0.445","16.456","0.07","11.44","30.0371","4.7313","43.18","0","SATNPRO1509","31.714","0.4442","5"],
    [12587,"HCEP03730566","2024-02-06 08:00:00","10.7169","3.37901","27.441","4.125","7.52","0.308","2.251","0.01","0.15","30.0275","4.73026","44.98","0","SATNPRO1509","31.906","0.44692","5"],
    [12588,"HCEP03730566","2024-02-06 08:15:00","10.7331","3.38118","27.422","4.047","7.52","0.341","3.846","0.02","0.39","30.0356","4.73117","44.14","0","SATNPRO1509","31.914","0.44698","5"],
    [12589,"HCEP03730566","2024-02-06 08:30:00","10.7348","3.38126","27.431","4.014","7.52","0.433","6.83","0.06","2.87","30.035","4.73105","43.78","0","SATNPRO1509","31.852","0.44616","5"],
    [12590,"HCEP03730566","2024-02-06 08:45:00","10.7352","3.38139","27.446","3.989","7.52","0.428","5.262","0.04","0.65","30.036","4.73118","43.52","0","SATNPRO1509","31.846","0.44602","5"],
    [12591,"HCEP03730566","2024-02-06 09:00:00","10.7202","3.3794","27.469","4.105","7.52","0.472","13.879","0.05","2.46","30.0286","4.73038","44.77","0","SATNPRO1509","31.868000000000002","0.44634","5"],
    [12592,"HCEP03730566","2024-02-06 09:15:00","10.7271","3.38035","27.511","4.103","7.52","0.307","2.361","0.01","0.14","30.0324","4.7308","44.75","0","SATNPRO1509","31.872","0.44642","5"],
    [12593,"HCEP03730566","2024-02-06 09:30:00","10.7339","3.38128","27.527","4.026","7.52","0.309","3.237","0.01","0.25","30.0359","4.7312","43.91","0","SATNPRO1509","31.971999999999998","0.4478","5"],
    [12594,"HCEP03730566","2024-02-06 09:45:00","10.6951","3.37681","27.552","4.277","7.53","0.293","1.538","0.01","0.11","30.0237","4.73008","46.61","0","SATNPRO1509","32.124","0.44996","5"],
    [12595,"HCEP03730566","2024-02-06 10:00:00","10.7122","3.37881","27.577","4.268","7.54","0.318","2.139","0.07","0.12","30.0293","4.7306","46.53","0","SATNPRO1509","32","0.44822","5"],
    [12596,"HCEP03730566","2024-02-06 10:15:00","10.7301","3.38091","27.603","4.113","7.53","0.322","2.794","0.01","0.1","30.0353","4.73117","44.86","0","SATNPRO1509","31.78","0.4451","5"],
    [12597,"HCEP03730566","2024-02-06 10:30:00","10.7116","3.37911","27.626","4.184","7.53","0.3","2.611","0.02","0.24","30.0328","4.73111","45.61","0","SATNPRO1509","31.886","0.44662","5"],
    [12598,"HCEP03730566","2024-02-06 10:45:00","10.7","3.3778","27.661","4.315","7.54","0.311","1.956","0.02","0.21","30.0293","4.7308","47.03","0","SATNPRO1509","31.996","0.44816","5"],
    [12599,"HCEP03730566","2024-02-06 11:00:00","10.703","3.3782","27.69","4.34","7.54","0.285","1.876","0.01","0.14","30.0309","4.73098","47.31","0","SATNPRO1509","31.94","0.44738","5"],
    [12600,"HCEP03730566","2024-02-06 11:15:00","10.7184","3.37997","27.717","4.223","7.54","0.301","2.664","0.01","0.15","30.0356","4.73142","46.05","0","SATNPRO1509","31.784","0.44518","5"],
    [12601,"HCEP03730566","2024-02-06 11:30:00","10.713","3.37938","27.734","4.214","7.54","0.293","2.227","0.01","0.12","30.0342","4.7313","45.94","0","SATNPRO1509","31.942","0.44744","5"],
    [12602,"HCEP03730566","2024-02-06 11:45:00","10.7141","3.37955","27.751","4.212","7.54","0.304","2.467","0.01","0.11","30.0351","4.7314","45.93","0","SATNPRO1509","31.704","0.44406","5"],
    [12603,"HCEP03730566","2024-02-06 12:00:00","10.7127","3.37947","27.764","4.23","7.54","0.318","2.617","0.03","0.14","30.0353","4.73146","46.11","0","SATNPRO1509","31.894","0.44668","5"],
    [12604,"HCEP03730566","2024-02-06 12:15:00","10.722","3.38055","27.779","4.175","7.53","0.33","2.896","0.03","0.17","30.0383","4.73175","45.53","0","SATNPRO1509","31.848","0.44604","5"],
    [12605,"HCEP03730566","2024-02-06 12:30:00","10.7177","3.38007","27.799","4.161","7.53","0.299","3.112","0.01","0.31","30.0372","4.73166","45.37","0","SATNPRO1509","31.855999999999998","0.44616","5"],
    [12606,"HCEP03730566","2024-02-06 12:45:00","10.6759","3.37665","27.782","4.419","7.54","0.316","3.2","0.01","0.43","30.0378","4.7324","48.14","0","SATNPRO1509","31.72","0.4443","5"],
    [12607,"HCEP03730566","2024-02-06 13:00:00","10.6678","3.37621","27.771","4.578","7.55","0.298","2.991","0.01","0.27","30.0401","4.73286","49.87","0","SATNPRO1509","31.884","0.4466","5"],
    [12608,"HCEP03730566","2024-02-06 13:15:00","10.6654","3.37607","27.737","4.62","7.56","0.311","2.886","0.01","0.28","30.0407","4.73297","50.32","0","SATNPRO1509","31.906","0.4469","5"],
    [12609,"HCEP03730566","2024-02-06 13:30:00","10.6645","3.37623","27.694","4.645","7.56","0.305","3.47","0.01","0.33","30.0431","4.73332","50.59","0","SATNPRO1509","31.756","0.4448","5"],
    [12610,"HCEP03730566","2024-02-06 13:45:00","10.6639","3.37652","27.67","4.651","7.56","0.312","2.331","0.02","0.2","30.0463","4.7338","50.66","0","SATNPRO1509","31.894000000000002","0.44668","5"],
    [12611,"HCEP03730566","2024-02-06 14:00:00","10.6654","3.37659","27.593","4.642","7.57","0.301","2.553","0.01","0.23","30.0459","4.7337","50.56","0","SATNPRO1509","31.93","0.44722","5"],
    [12612,"HCEP03730566","2024-02-06 14:15:00","10.6663","3.37667","27.523","4.642","7.57","0.309","2.312","0.01","0.18","30.046","4.7337","50.56","0","SATNPRO1509","31.934","0.44728","5"],
    [12613,"HCEP03730566","2024-02-06 14:30:00","10.6671","3.37672","27.436","4.649","7.57","0.295","2.382","0.01","0.13","30.0458","4.73366","50.64","0","SATNPRO1509","31.98","0.44798","5"],
    [12614,"HCEP03730566","2024-02-06 14:45:00","10.6717","3.37633","27.316","4.588","7.57","0.303","2.016","0.01","0.07","30.0383","4.73251","49.98","0","SATNPRO1509","32.124","0.4499","5"],
    [12615,"HCEP03730566","2024-02-06 15:00:00","10.6652","3.37618","27.23","4.627","7.57","0.295","2.209","0.01","0.27","30.0421","4.73315","50.4","0","SATNPRO1509","31.994","0.44814","5"],
    [12616,"HCEP03730566","2024-02-06 15:15:00","10.6674","3.37666","27.055","4.602","7.57","0.324","2.941","0.01","0.59","30.0451","4.73354","50.13","0","SATNPRO1509","31.936","0.44732","5"],
    [12617,"HCEP03730566","2024-02-06 15:30:00","10.6704","3.37715","26.908","4.55","7.56","0.31","2.857","0.01","0.15","30.0476","4.73383","49.57","0","SATNPRO1509","31.914","0.44698","5"],
    [12618,"HCEP03730566","2024-02-06 15:45:00","10.6772","3.37812","26.751","4.54","7.56","0.316","2.802","0.01","0.35","30.0516","4.73429","49.47","0","SATNPRO1509","31.972","0.44784","5"],
    [12619,"HCEP03730566","2024-02-06 16:00:00","10.6788","3.37822","26.572","4.505","7.56","0.303","3.024","0.01","0.23","30.0514","4.73422","49.08","0","SATNPRO1509","31.892","0.4467","5"],
    [12620,"HCEP03730566","2024-02-06 16:15:00","10.6835","3.37883","26.398","4.479","7.56","0.317","2.927","0.01","0.17","30.0535","4.73444","48.81","0","SATNPRO1509","31.866","0.4463","5"],
    [12621,"HCEP03730566","2024-02-06 16:30:00","10.6847","3.37894","26.231","4.465","7.56","0.299","3.152","0.01","0.25","30.0537","4.73443","48.65","0","SATNPRO1509","31.948","0.4475","5"],
    [12622,"HCEP03730566","2024-02-06 16:45:00","10.6819","3.37851","26.037","4.485","7.56","0.318","2.991","0.01","0.18","30.0519","4.7342","48.87","0","SATNPRO1509","31.89","0.44666","5"],
    [12623,"HCEP03730566","2024-02-06 17:00:00","10.6793","3.37811","25.84","4.512","7.56","0.314","3.316","0.01","0.37","30.0501","4.73399","49.16","0","SATNPRO1509","31.686","0.44384","5"],
    [12624,"HCEP03730566","2024-02-06 17:15:00","10.6776","3.37774","25.663","4.527","7.56","0.322","3.15","0.01","0.2","30.048","4.7337","49.33","0","SATNPRO1509","31.818","0.4457","5"],
    [12625,"HCEP03730566","2024-02-06 17:30:00","10.6763","3.3774","25.46","4.54","7.56","0.306","3.173","0.01","0.32","30.0457","4.73339","49.46","0","SATNPRO1509","31.772","0.44504","5"],
    [12626,"HCEP03730566","2024-02-06 17:45:00","10.6768","3.37738","25.252","4.535","7.56","0.324","3.644","0.01","0.39","30.0452","4.7333","49.41","0","SATNPRO1509","31.606","0.44266","5"],
    [12627,"HCEP03730566","2024-02-06 18:00:00","10.6782","3.3775","25.067","4.512","7.56","0.321","3.9","0.02","0.25","30.0453","4.73328","49.16","0","SATNPRO1509","31.62","0.44288","5"],
    [12628,"HCEP03730566","2024-02-06 18:15:00","10.6881","3.37801","24.891","4.462","7.56","0.374","4.552","0.03","0.57","30.0422","4.73267","48.62","0","SATNPRO1509","31.582","0.44232","5"],
    [12629,"HCEP03730566","2024-02-06 18:30:00","10.6963","3.3784","24.73","4.359","7.55","0.311","3.395","0.01","0.22","30.0395","4.73215","47.5","0","SATNPRO1509","31.68","0.4437","5"],
    [12630,"HCEP03730566","2024-02-06 18:45:00","10.6933","3.37833","24.564","4.299","7.55","0.325","4.018","0.01","0.19","30.0413","4.73244","46.85","0","SATNPRO1509","31.564","0.44214","5"],
    [12631,"HCEP03730566","2024-02-06 19:00:00","10.6993","3.37875","24.519","4.301","7.55","0.334","4.438","0.01","0.27","30.0405","4.73223","46.88","0","SATNPRO1509","31.618","0.44286","5"],
    [12632,"HCEP03730566","2024-02-06 19:15:00","10.7068","3.37924","24.434","4.244","7.54","0.333","4.867","0.01","1.25","30.0393","4.73193","46.26","0","SATNPRO1509","31.544","0.44182","5"],
    [12633,"HCEP03730566","2024-02-06 19:30:00","10.7136","3.37978","24.395","4.182","7.54","0.317","4.6","0.01","1.17","30.039","4.73179","45.6","0","SATNPRO1509","31.722","0.44436","5"],
    [12634,"HCEP03730566","2024-02-06 19:45:00","10.7153","3.37991","24.398","4.148","7.53","0.346","4.604","0.01","0.46","30.0389","4.73174","45.23","0","SATNPRO1509","31.542","0.4418","5"],
    [12635,"HCEP03730566","2024-02-06 20:00:00","10.7191","3.3802","24.389","4.114","7.53","0.338","4.915","0.02","1.37","30.0386","4.73164","44.86","0","SATNPRO1509","31.65","0.4433","5"],
    [12636,"HCEP03730566","2024-02-06 20:15:00","10.7223","3.38044","24.37","4.103","7.53","0.348","3.684","0.01","0.29","30.0384","4.73156","44.74","0","SATNPRO1509","31.78","0.44516","5"],
    [12637,"HCEP03730566","2024-02-06 20:30:00","10.7238","3.38058","24.394","4.095","7.53","0.437","6.089","0.04","0.95","30.0386","4.73156","44.66","0","SATNPRO1509","31.768","0.44498","5"],
    [12638,"HCEP03730566","2024-02-06 20:45:00","10.7267","3.38087","24.453","4.06","7.53","0.394","4.437","0.03","0.19","30.039","4.73157","44.28","0","SATNPRO1509","31.676","0.44368","5"],
    [12639,"HCEP03730566","2024-02-06 21:00:00","10.7287","3.38113","24.5","4.039","7.52","0.539","6.434","0.08","1.9","30.0399","4.73167","44.05","0","SATNPRO1509","31.678","0.4437","5"],
    [12640,"HCEP03730566","2024-02-06 21:15:00","10.7292","3.38125","24.579","4.043","7.52","0.443","5.265","0.07","1.64","30.0405","4.73176","44.09","0","SATNPRO1509","31.716","0.44422","5"],
    [12641,"HCEP03730566","2024-02-06 21:30:00","10.7277","3.38093","24.674","4.071","7.52","0.416","5.318","0.04","1.11","30.0387","4.73153","44.4","0","SATNPRO1509","31.922","0.44716","5"],
    [12642,"HCEP03730566","2024-02-06 21:45:00","10.7347","3.38179","24.778","3.999","7.52","0.563","7.29","0.07","1.11","30.0413","4.7318","43.62","0","SATNPRO1509","31.662","0.4435","5"],
    [12643,"HCEP03730566","2024-02-06 22:00:00","10.7368","3.38191","24.934","3.927","7.52","0.433","5.858","0.04","0.78","30.0407","4.73169","42.84","0","SATNPRO1509","31.498","0.44116","5"],
    [12644,"HCEP03730566","2024-02-06 22:15:00","10.7372","3.38195","25.097","3.861","7.51","0.434","5.407","0.02","0.3","30.0407","4.73169","42.12","0","SATNPRO1509","31.548000000000002","0.44188","5"],
    [12645,"HCEP03730566","2024-02-06 22:30:00","10.7342","3.38129","25.251","3.82","7.51","0.404","6.048","0.03","0.7","30.0367","4.73117","41.67","0","SATNPRO1509","31.678","0.44368","5"],
    [12646,"HCEP03730566","2024-02-06 22:45:00","10.7295","3.38046","25.386","3.93","7.51","0.418","5.265","0.15","2.44","30.0323","4.73064","42.86","0","SATNPRO1509","31.976","0.44788","5"],
    [12647,"HCEP03730566","2024-02-06 23:00:00","10.7314","3.38082","25.561","3.923","7.51","0.327","4.42","0.02","0.27","30.0342","4.73088","42.79","0","SATNPRO1509","31.808","0.4455","5"],
    [12648,"HCEP03730566","2024-02-06 23:15:00","10.7307","3.38071","25.743","3.925","7.51","0.425","5.116","0.04","0.61","30.0336","4.73082","42.81","0","SATNPRO1509","31.77","0.44498","5"],
    [12649,"HCEP03730566","2024-02-06 23:30:00","10.7288","3.38009","25.934","3.938","7.51","0.427","5.926","0.04","0.8","30.029","4.73021","42.94","0","SATNPRO1509","31.88","0.44652","5"],
    [12650,"HCEP03730566","2024-02-06 23:45:00","10.731","3.38013","26.129","3.874","7.51","0.371","5.04","0.03","0.87","30.0275","4.72997","42.25","0","SATNPRO1509","31.858","0.4462","5"],
    [12651,"HCEP03730566","2024-02-07 00:00:00","10.7314","3.3798","26.31","3.787","7.51","0.342","4.585","0.01","0.23","30.0239","4.72946","41.3","0","SATNPRO1509","31.808","0.44556","5"],
    [12652,"HCEP03730566","2024-02-07 00:15:00","10.7289","3.37881","26.521","3.75","7.5","0.383","4.926","0.01","0.18","30.0161","4.7284","40.89","0","SATNPRO1509","31.87","0.44638","5"],
    [12653,"HCEP03730566","2024-02-07 00:30:00","10.7253","3.37779","26.702","3.71","7.5","6.882","76.049","4.67","34.63","30.009","4.72746","40.46","0","SATNPRO1509","31.95","0.44754","5"],
    [12654,"HCEP03730566","2024-02-07 00:45:00","10.7252","3.3778","26.866","3.696","7.49","0.365","4.41","0.02","0.33","30.009","4.72748","40.3","0","SATNPRO1509","31.932","0.44724","5"],
    [12655,"HCEP03730566","2024-02-07 01:00:00","10.7259","3.37793","27.094","3.676","7.49","0.357","4.266","0.01","0.22","30.0096","4.72756","40.09","0","SATNPRO1509","31.898","0.4468","5"],
    [12656,"HCEP03730566","2024-02-07 01:15:00","10.7276","3.37834","27.249","3.657","7.49","0.374","4.725","0.01","0.18","30.0122","4.72792","39.88","0","SATNPRO1509","31.862000000000002","0.44626","5"],
    [12657,"HCEP03730566","2024-02-07 01:30:00","10.7274","3.3782","27.406","3.642","7.49","0.353","4.641","0.01","0.23","30.011","4.72775","39.72","0","SATNPRO1509","31.896","0.44674","5"],
    [12658,"HCEP03730566","2024-02-07 01:45:00","10.7276","3.3783","27.523","3.633","7.49","0.412","4.945","0.03","0.36","30.0117","4.72786","39.61","0","SATNPRO1509","31.772","0.44502","5"],
    [12659,"HCEP03730566","2024-02-07 02:00:00","10.729","3.37859","27.674","3.622","7.49","0.405","5.577","0.03","0.56","30.0133","4.72807","39.5","0","SATNPRO1509","31.758","0.44484","5"],
    [12660,"HCEP03730566","2024-02-07 02:15:00","10.7297","3.37871","27.756","3.609","7.49","0.469","7.154","0.03","0.7","30.014","4.72816","39.36","0","SATNPRO1509","31.68","0.44376","5"],
    [12661,"HCEP03730566","2024-02-07 02:30:00","10.7296","3.37872","27.933","3.598","7.48","0.411","5.953","0.03","0.58","30.014","4.72818","39.24","0","SATNPRO1509","31.672","0.44362","5"],
    [12662,"HCEP03730566","2024-02-07 02:45:00","10.7296","3.37863","27.98","3.536","7.48","0.378","4.878","0.02","0.78","30.0131","4.72805","38.56","0","SATNPRO1509","31.65","0.44334","5"],
    [12663,"HCEP03730566","2024-02-07 03:00:00","10.7287","3.3785","27.993","3.55","7.48","0.362","4.356","0.02","0.21","30.0125","4.72798","38.72","0","SATNPRO1509","31.726","0.44436","5"],
    [12664,"HCEP03730566","2024-02-07 03:15:00","10.7274","3.37814","28.06","3.57","7.48","0.418","5.849","0.02","1.34","30.0101","4.72766","38.93","0","SATNPRO1509","31.772","0.445","5"],
    [12665,"HCEP03730566","2024-02-07 03:30:00","10.7278","3.37817","28.078","3.567","7.48","0.377","4.992","0.02","0.69","30.01","4.72765","38.89","0","SATNPRO1509","31.716","0.44424","5"],
    [12666,"HCEP03730566","2024-02-07 03:45:00","10.7277","3.37819","28.078","3.562","7.48","0.678","12.973","0.11","3.38","30.0104","4.7277","38.84","0","SATNPRO1509","31.822","0.44574","5"],
    [12667,"HCEP03730566","2024-02-07 04:00:00","10.7272","3.37808","28.112","3.545","7.48","0.359","4.741","0.01","0.37","30.0096","4.7276","38.65","0","SATNPRO1509","31.77","0.44498","5"],
    [12668,"HCEP03730566","2024-02-07 04:15:00","10.7288","3.3786","28.133","3.574","7.48","0.896","34.215","0.38","22.02","30.0134","4.72812","38.98","0","SATNPRO1509","31.74","0.44458","5"],
    [12669,"HCEP03730566","2024-02-07 04:30:00","10.7263","3.37829","28.124","3.437","7.48","0.347","5.061","0.03","0.45","30.0125","4.72802","37.48","0","SATNPRO1509","31.82","0.44566","5"],
    [12670,"HCEP03730566","2024-02-07 04:45:00","10.7211","3.37863","28.109","3.663","7.49","0.342","7.209","0.01","3.71","30.0201","4.72919","39.94","0","SATNPRO1509","31.878","0.4465","5"],
    [12671,"HCEP03730566","2024-02-07 05:00:00","10.7195","3.37876","28.073","3.8","7.5","0.34","4.421","0.01","0.48","30.0227","4.72958","41.44","0","SATNPRO1509","31.9","0.44684","5"],
    [12672,"HCEP03730566","2024-02-07 05:15:00","10.7194","3.37867","28.048","3.831","7.51","0.345","3.895","0.03","0.25","30.0218","4.72945","41.77","0","SATNPRO1509","31.906","0.44692","5"],
    [12673,"HCEP03730566","2024-02-07 05:30:00","10.72","3.37888","28.028","3.965","7.51","0.346","5.644","0.04","2.34","30.0235","4.72968","43.23","0","SATNPRO1509","31.938","0.44738","5"],
    [12674,"HCEP03730566","2024-02-07 05:45:00","10.7207","3.37899","28.001","3.962","7.51","0.338","4.072","0.01","0.11","30.0239","4.72973","43.21","0","SATNPRO1509","31.894","0.44674","5"],
    [12675,"HCEP03730566","2024-02-07 06:00:00","10.7218","3.37917","27.951","3.95","7.51","0.328","4.246","0.01","0.22","30.0248","4.72984","43.07","0","SATNPRO1509","31.784","0.44518","5"],
    [12676,"HCEP03730566","2024-02-07 06:15:00","10.7239","3.3794","27.878","3.919","7.51","0.352","4.534","0.01","0.24","30.0254","4.72989","42.74","0","SATNPRO1509","31.838","0.44594","5"],
    [12677,"HCEP03730566","2024-02-07 06:30:00","10.7256","3.3796","27.815","3.9","7.51","0.364","5.003","0.03","0.37","30.026","4.72994","42.52","0","SATNPRO1509","31.782","0.44518","5"],
    [12678,"HCEP03730566","2024-02-07 06:45:00","10.7259","3.37976","27.785","3.91","7.51","0.392","5.418","0.03","0.51","30.0274","4.73013","42.64","0","SATNPRO1509","31.806","0.44546","5"],
    [12679,"HCEP03730566","2024-02-07 07:00:00","10.7251","3.37997","27.71","3.946","7.51","0.383","5.301","0.02","0.26","30.0301","4.73052","43.03","0","SATNPRO1509","31.83","0.44586","5"],
    [12680,"HCEP03730566","2024-02-07 07:15:00","10.7245","3.38001","27.66","3.969","7.51","0.338","4.041","0.01","0.28","30.031","4.73066","43.28","0","SATNPRO1509","31.758","0.44482","5"],
    [12681,"HCEP03730566","2024-02-07 07:30:00","10.7241","3.37992","27.606","3.977","7.51","0.34","4.263","0.06","1.05","30.0305","4.73059","43.37","0","SATNPRO1509","31.814","0.44562","5"],
    [12682,"HCEP03730566","2024-02-07 07:45:00","10.7235","3.37968","27.555","3.988","7.51","0.585","10.755","0.22","5.37","30.0287","4.73034","43.49","0","SATNPRO1509","31.996","0.44816","5"],
    [12683,"HCEP03730566","2024-02-07 08:00:00","10.7231","3.37963","27.502","3.993","7.51","0.315","3.613","0.01","0.23","30.0285","4.73032","43.54","0","SATNPRO1509","31.822","0.44572","5"],
    [12684,"HCEP03730566","2024-02-07 08:15:00","10.7229","3.37953","27.455","3.988","7.51","0.324","3.505","0.01","0.13","30.0277","4.7302","43.49","0","SATNPRO1509","31.966","0.44774","5"],
    [12685,"HCEP03730566","2024-02-07 08:30:00","10.7229","3.37939","27.431","3.974","7.51","0.32","3.701","0.01","0.21","30.0263","4.73","43.33","0","SATNPRO1509","31.82","0.44572","5"],
    [12686,"HCEP03730566","2024-02-07 08:45:00","10.7219","3.37907","27.375","3.958","7.51","0.341","3.638","0.01","0.21","30.024","4.72969","43.16","0","SATNPRO1509","31.936","0.44736","5"],
    [12687,"HCEP03730566","2024-02-07 09:00:00","10.7224","3.3792","27.356","3.944","7.51","0.318","4.11","0.01","0.22","30.0249","4.7298","43.01","0","SATNPRO1509","31.794","0.44534","5"],
    [12688,"HCEP03730566","2024-02-07 09:15:00","10.7218","3.37894","27.357","3.93","7.51","0.338","3.857","0.01","0.17","30.0229","4.72953","42.85","0","SATNPRO1509","31.89","0.44668","5"],
    [12689,"HCEP03730566","2024-02-07 09:30:00","10.7185","3.37808","27.325","3.927","7.51","0.331","3.554","0.01","0.23","30.0171","4.72875","42.81","0","SATNPRO1509","31.94","0.44742","5"],
    [12690,"HCEP03730566","2024-02-07 09:45:00","10.7177","3.37793","27.343","3.927","7.51","0.345","3.723","0.01","0.16","30.0162","4.72865","42.82","0","SATNPRO1509","31.864","0.44628","5"],
    [12691,"HCEP03730566","2024-02-07 10:00:00","10.7162","3.37765","27.386","3.927","7.51","0.333","3.806","0.01","0.34","30.0147","4.72845","42.81","0","SATNPRO1509","31.886","0.44662","5"],
    [12692,"HCEP03730566","2024-02-07 10:15:00","10.7139","3.3772","27.42","3.937","7.51","0.354","3.718","0.01","0.28","30.0122","4.72813","42.92","0","SATNPRO1509","31.968","0.44778","5"],
    [12693,"HCEP03730566","2024-02-07 10:30:00","10.7132","3.37712","27.456","3.948","7.51","0.334","3.561","0.01","0.22","30.0119","4.72812","43.04","0","SATNPRO1509","31.906000000000002","0.44692","5"],
    [12694,"HCEP03730566","2024-02-07 10:45:00","10.7141","3.37736","27.484","3.945","7.51","0.347","3.631","0.01","0.25","30.0135","4.72833","43","0","SATNPRO1509","31.906","0.4469","5"],
    [12695,"HCEP03730566","2024-02-07 11:00:00","10.7133","3.37726","27.551","3.958","7.51","0.339","3.619","0.01","0.31","30.0132","4.72829","43.15","0","SATNPRO1509","31.868","0.44636","5"],
    [12696,"HCEP03730566","2024-02-07 11:15:00","10.7118","3.37707","27.601","3.967","7.51","0.351","3.201","0.02","0.16","30.0125","4.72822","43.25","0","SATNPRO1509","31.862","0.44626","5"],
    [12697,"HCEP03730566","2024-02-07 11:30:00","10.7112","3.37701","27.658","3.975","7.51","0.338","3.378","0.01","0.19","30.0124","4.72823","43.33","0","SATNPRO1509","31.966","0.44772","5"],
    [12698,"HCEP03730566","2024-02-07 11:45:00","10.7092","3.37684","27.687","3.993","7.51","0.345","3.32","0.01","0.18","30.0124","4.72826","43.52","0","SATNPRO1509","32.04","0.44878","5"],
    [12699,"HCEP03730566","2024-02-07 12:00:00","10.7074","3.3767","27.714","4.021","7.51","0.329","3.106","0.02","0.21","30.0124","4.72829","43.83","0","SATNPRO1509","31.994","0.44814","5"],
    [12700,"HCEP03730566","2024-02-07 12:15:00","10.707","3.3768","27.778","4.025","7.52","0.341","2.969","0.01","0.2","30.0137","4.72848","43.87","0","SATNPRO1509","31.894000000000002","0.4467","5"],
    [12701,"HCEP03730566","2024-02-07 12:30:00","10.705","3.3767","27.806","4.048","7.52","0.318","2.765","0.01","0.17","30.0143","4.7286","44.12","0","SATNPRO1509","32.076","0.44928","5"],
    [12702,"HCEP03730566","2024-02-07 12:45:00","10.7023","3.37655","27.842","4.073","7.52","0.342","2.817","0.02","0.18","30.0151","4.72876","44.39","0","SATNPRO1509","31.994","0.44814","5"],
    [12703,"HCEP03730566","2024-02-07 13:00:00","10.7047","3.3769","27.846","4.08","7.52","0.326","2.798","0.02","0.24","30.0166","4.72893","44.48","0","SATNPRO1509","31.89","0.44668","5"],
    [12704,"HCEP03730566","2024-02-07 13:15:00","10.7011","3.37665","27.884","4.058","7.52","0.331","2.8","0.02","0.13","30.0171","4.72906","44.22","0","SATNPRO1509","31.956","0.4476","5"],
    [12705,"HCEP03730566","2024-02-07 13:30:00","10.6987","3.37645","27.909","4.117","7.52","0.311","2.604","0.01","0.09","30.0171","4.7291","44.87","0","SATNPRO1509","31.98","0.44792","5"],
    [12706,"HCEP03730566","2024-02-07 13:45:00","10.7014","3.37679","27.909","4.101","7.52","0.34","2.936","0.01","0.14","30.0181","4.72921","44.7","0","SATNPRO1509","31.898","0.44678","5"],
    [12707,"HCEP03730566","2024-02-07 14:00:00","10.7002","3.37678","27.912","4.107","7.52","0.317","2.998","0.01","0.15","30.0191","4.72936","44.76","0","SATNPRO1509","31.844","0.44604","5"],
    [12708,"HCEP03730566","2024-02-07 14:15:00","10.6975","3.37655","27.888","4.123","7.52","0.329","2.78","0.01","0.19","30.0191","4.7294","44.94","0","SATNPRO1509","31.872","0.44642","5"],
    [12709,"HCEP03730566","2024-02-07 14:30:00","10.6978","3.3767","27.857","4.119","7.52","0.309","2.866","0.01","0.14","30.0203","4.72956","44.89","0","SATNPRO1509","31.786","0.4452","5"],
    [12710,"HCEP03730566","2024-02-07 14:45:00","10.6989","3.37688","27.815","4.109","7.52","0.337","3.134","0.01","0.14","30.0212","4.72967","44.78","0","SATNPRO1509","31.788","0.44524","5"],
    [12711,"HCEP03730566","2024-02-07 15:00:00","10.692","3.3764","27.738","4.15","7.52","0.318","2.985","0.01","0.21","30.0221","4.72991","45.22","0","SATNPRO1509","31.779999999999998","0.4451","5"],
    [12712,"HCEP03730566","2024-02-07 15:15:00","10.6924","3.37654","27.712","4.042","7.53","0.334","3.383","0.01","0.19","30.0232","4.73006","44.05","0","SATNPRO1509","31.82","0.44568","5"],
    [12713,"HCEP03730566","2024-02-07 15:30:00","10.6964","3.37694","27.601","4.13","7.53","0.33","3.906","0.01","0.19","30.0238","4.73008","45.01","0","SATNPRO1509","31.78","0.44512","5"],
    [12714,"HCEP03730566","2024-02-07 15:45:00","10.6999","3.37727","27.497","4.109","7.52","0.348","3.67","0.01","0.18","30.0243","4.73009","44.78","0","SATNPRO1509","31.752","0.44474","5"],
    [12715,"HCEP03730566","2024-02-07 16:00:00","10.7022","3.3775","27.346","4.093","7.52","0.334","4.017","0.01","0.25","30.0247","4.73009","44.61","0","SATNPRO1509","31.604","0.44268","5"],
    [12716,"HCEP03730566","2024-02-07 16:15:00","10.7019","3.37747","27.211","4.074","7.52","0.355","3.96","0.02","0.23","30.0247","4.73009","44.41","0","SATNPRO1509","31.686","0.44386","5"],
    [12717,"HCEP03730566","2024-02-07 16:30:00","10.7028","3.37745","27.048","4.076","7.52","0.338","4.106","0.02","0.32","30.0239","4.72995","44.43","0","SATNPRO1509","31.638","0.44316","5"],
    [12718,"HCEP03730566","2024-02-07 16:45:00","10.7034","3.37751","26.84","4.069","7.52","0.359","4.613","0.03","0.34","30.024","4.72996","44.35","0","SATNPRO1509","31.58","0.4423","5"],
    [12719,"HCEP03730566","2024-02-07 17:00:00","10.7021","3.37737","26.657","4.073","7.52","0.338","4.32","0.01","0.22","30.0239","4.72994","44.39","0","SATNPRO1509","31.744","0.44464","5"],
    [12720,"HCEP03730566","2024-02-07 17:15:00","10.7016","3.37738","26.446","4.08","7.52","0.346","4","0.01","0.26","30.0244","4.73001","44.46","0","SATNPRO1509","32.148","0.45024","5"],
    [12721,"HCEP03730566","2024-02-07 17:30:00","10.7035","3.37751","26.243","4.067","7.52","0.334","4.283","0.01","0.36","30.0242","4.72994","44.32","0","SATNPRO1509","31.614","0.44282","5"],
    [12722,"HCEP03730566","2024-02-07 17:45:00","10.7092","3.37806","26.026","4.031","7.52","0.633","13.07","0.2","2.96","30.0251","4.72996","43.94","0","SATNPRO1509","31.592","0.4425","5"],
    [12723,"HCEP03730566","2024-02-07 18:00:00","10.7122","3.37829","25.788","3.999","7.52","0.339","4.276","0.02","0.27","30.0249","4.72988","43.59","0","SATNPRO1509","31.46","0.44066","5"],
    [12724,"HCEP03730566","2024-02-07 18:15:00","10.714","3.37838","25.566","3.978","7.51","0.357","4.046","0.01","0.33","30.0244","4.72977","43.37","0","SATNPRO1509","31.972","0.4478","5"],
    [12725,"HCEP03730566","2024-02-07 18:30:00","10.7149","3.37839","25.333","3.968","7.51","0.328","3.889","0.01","0.26","30.0239","4.72966","43.26","0","SATNPRO1509","31.564","0.4421","5"],
    [12726,"HCEP03730566","2024-02-07 18:45:00","10.7159","3.37833","25.125","3.959","7.51","0.348","3.652","0.02","0.23","30.0226","4.72945","43.16","0","SATNPRO1509","31.81","0.44558","5"],
    [12727,"HCEP03730566","2024-02-07 19:00:00","10.7164","3.37838","24.92","3.95","7.51","0.379","3.973","0.03","0.27","30.0227","4.72945","43.06","0","SATNPRO1509","32.014","0.44836","5"],
    [12728,"HCEP03730566","2024-02-07 19:15:00","10.7166","3.37834","24.717","3.937","7.51","0.347","3.791","0.01","0.21","30.0222","4.72937","42.92","0","SATNPRO1509","31.6","0.44258","5"],
    [12729,"HCEP03730566","2024-02-07 19:30:00","10.717","3.37824","24.537","3.929","7.51","0.354","3.854","0.04","0.23","30.021","4.72917","42.83","0","SATNPRO1509","31.692","0.44388","5"],
    [12730,"HCEP03730566","2024-02-07 19:45:00","10.7167","3.37822","24.361","3.922","7.51","0.337","3.914","0.01","0.25","30.0211","4.72919","42.76","0","SATNPRO1509","31.78","0.44512","5"],
    [12731,"HCEP03730566","2024-02-07 20:00:00","10.7172","3.37825","24.246","3.911","7.51","0.332","4.018","0.02","0.3","30.0211","4.72916","42.64","0","SATNPRO1509","31.612000000000002","0.44276","5"],
    [12732,"HCEP03730566","2024-02-07 20:15:00","10.717","3.37823","24.214","3.905","7.51","0.34","3.718","0.01","0.33","30.021","4.72916","42.57","0","SATNPRO1509","31.86","0.44626","5"],
    [12733,"HCEP03730566","2024-02-07 20:30:00","10.7165","3.37817","24.209","3.906","7.51","0.338","3.948","0.02","0.33","30.0208","4.72914","42.59","0","SATNPRO1509","31.788","0.44528","5"],
    [12734,"HCEP03730566","2024-02-07 20:45:00","10.7143","3.37797","24.188","3.911","7.51","0.353","4.212","0.02","0.53","30.0207","4.72916","42.64","0","SATNPRO1509","31.838","0.44594","5"],
    [12735,"HCEP03730566","2024-02-07 21:00:00","10.7112","3.3777","24.136","3.935","7.51","0.333","3.874","0.01","0.22","30.0206","4.72919","42.9","0","SATNPRO1509","31.808","0.44554","5"],
    [12736,"HCEP03730566","2024-02-07 21:15:00","10.7111","3.37772","24.138","3.931","7.51","0.35","4.067","0.01","0.37","30.0208","4.72923","42.85","0","SATNPRO1509","31.78","0.44516","5"],
    [12737,"HCEP03730566","2024-02-07 21:30:00","10.705","3.37713","24.191","3.954","7.51","0.337","4.11","0.01","0.34","30.02","4.7292","43.1","0","SATNPRO1509","31.722","0.44432","5"],
    [12738,"HCEP03730566","2024-02-07 21:45:00","10.6967","3.37622","24.256","4.017","7.51","0.349","4.001","0.01","0.21","30.0179","4.72904","43.78","0","SATNPRO1509","31.852","0.44616","5"],
    [12739,"HCEP03730566","2024-02-07 22:00:00","10.6904","3.37554","24.352","4.077","7.51","0.338","4.174","0.01","0.31","30.0162","4.72891","44.43","0","SATNPRO1509","31.81","0.44554","5"],
    [12740,"HCEP03730566","2024-02-07 22:15:00","10.6906","3.37532","24.491","4.1","7.52","3.975","48.483","3.75","34.19","30.014","4.72859","44.67","0","SATNPRO1509","31.92","0.44706","5"],
    [12741,"HCEP03730566","2024-02-07 22:30:00","10.6988","3.37595","24.639","4.033","7.52","0.338","4.241","0.01","0.31","30.0133","4.72838","43.95","0","SATNPRO1509","31.94","0.44738","5"],
    [12742,"HCEP03730566","2024-02-07 22:45:00","10.7093","3.37668","24.789","3.92","7.51","0.354","3.845","0.01","0.21","30.0119","4.72802","42.72","0","SATNPRO1509","31.958","0.44758","5"],
    [12743,"HCEP03730566","2024-02-07 23:00:00","10.713","3.37695","24.939","3.847","7.51","0.351","4.098","0.01","0.47","30.0114","4.7279","41.94","0","SATNPRO1509","31.904","0.44686","5"],
    [12744,"HCEP03730566","2024-02-07 23:15:00","10.7133","3.37697","25.117","3.834","7.5","0.366","4.551","0.01","0.27","30.0113","4.72788","41.79","0","SATNPRO1509","31.97","0.44782","5"],
    [12745,"HCEP03730566","2024-02-07 23:30:00","10.7141","3.37684","25.303","3.828","7.5","0.351","3.916","0.02","0.25","30.0092","4.7276","41.73","0","SATNPRO1509","31.9","0.44686","5"],
    [12746,"HCEP03730566","2024-02-07 23:45:00","10.7139","3.37663","25.482","3.801","7.5","0.365","3.845","0.01","0.28","30.0073","4.72733","41.44","0","SATNPRO1509","32.004","0.44828","5"],
    [12747,"HCEP03730566","2024-02-08 00:00:00","10.7143","3.3765","25.679","3.776","7.5","0.35","4.235","0.01","0.42","30.0057","4.72711","41.17","0","SATNPRO1509","32.05","0.44892","5"],
    [12748,"HCEP03730566","2024-02-08 00:15:00","10.7152","3.37655","25.881","3.755","7.5","0.375","4.224","0.01","0.52","30.0053","4.72706","40.94","0","SATNPRO1509","32.028","0.44862","5"],
    [12749,"HCEP03730566","2024-02-08 00:30:00","10.716","3.3766","26.091","3.712","7.49","0.372","4.175","0.01","0.36","30.005","4.72701","40.46","0","SATNPRO1509","31.974","0.44786","5"],
    [12750,"HCEP03730566","2024-02-08 00:45:00","10.716","3.37644","26.299","3.686","7.49","0.387","4.477","0.01","0.57","30.0033","4.72678","40.19","0","SATNPRO1509","32.028","0.44862","5"],
    [12751,"HCEP03730566","2024-02-08 01:00:00","10.7152","3.37623","26.521","3.676","7.49","0.361","4.175","0.01","0.5","30.0019","4.7266","40.07","0","SATNPRO1509","32.068","0.4492","5"],
    [12752,"HCEP03730566","2024-02-08 01:15:00","10.7155","3.37628","26.739","3.66","7.49","0.38","4.222","0.01","0.33","30.002","4.72663","39.9","0","SATNPRO1509","31.994","0.4481","5"],
    [12753,"HCEP03730566","2024-02-08 01:30:00","10.7161","3.37624","26.96","3.637","7.49","0.375","3.954","0.02","0.26","30.0011","4.72651","39.65","0","SATNPRO1509","32.007999999999996","0.44834","5"],
    [12754,"HCEP03730566","2024-02-08 01:45:00","10.7162","3.37618","27.168","3.595","7.48","0.4","4.156","0.02","0.36","30.0003","4.72639","39.19","0","SATNPRO1509","32.022","0.4485","5"],
    [12755,"HCEP03730566","2024-02-08 02:00:00","10.7164","3.37614","27.391","3.569","7.48","0.372","4.141","0.01","0.25","29.9997","4.72632","38.91","0","SATNPRO1509","32.019999999999996","0.44848","5"],
    [12756,"HCEP03730566","2024-02-08 02:15:00","10.7165","3.37621","27.541","3.554","7.48","0.386","3.984","0.01","0.34","30.0002","4.7264","38.74","0","SATNPRO1509","31.886","0.44664","5"],
    [12757,"HCEP03730566","2024-02-08 02:30:00","10.7162","3.37617","27.695","3.517","7.48","0.361","4.533","0.01","1.1","30","4.72638","38.33","0","SATNPRO1509","31.664","0.44354","5"],
    [12758,"HCEP03730566","2024-02-08 02:45:00","10.7156","3.37616","27.814","3.459","7.48","0.416","5.303","0.06","1.26","30.0004","4.72645","37.71","0","SATNPRO1509","31.882","0.44656","5"],
    [12759,"HCEP03730566","2024-02-08 03:00:00","10.7149","3.37617","27.959","3.537","7.48","0.371","4.612","0.02","0.42","30.001","4.72656","38.55","0","SATNPRO1509","31.782","0.44518","5"],
    [12760,"HCEP03730566","2024-02-08 03:15:00","10.7133","3.37616","28.069","3.576","7.48","0.381","4.371","0.01","0.23","30.0021","4.72675","38.98","0","SATNPRO1509","31.838","0.44598","5"],
    [12761,"HCEP03730566","2024-02-08 03:30:00","10.7086","3.37587","28.168","3.641","7.48","0.36","4.535","0.01","0.32","30.0031","4.72697","39.68","0","SATNPRO1509","31.784","0.44522","5"],
    [12762,"HCEP03730566","2024-02-08 03:45:00","10.7037","3.37545","28.259","3.708","7.48","0.509","7.851","0.31","8.95","30.0029","4.72703","40.41","0","SATNPRO1509","31.684","0.4438","5"],
    [12763,"HCEP03730566","2024-02-08 04:00:00","10.696","3.37505","28.31","3.81","7.49","0.36","4.542","0.01","0.42","30.0053","4.72749","41.52","0","SATNPRO1509","31.852","0.44616","5"],
    [12764,"HCEP03730566","2024-02-08 04:15:00","10.6917","3.37506","28.263","3.928","7.5","0.355","4.103","0.01","0.24","30.0089","4.72807","42.8","0","SATNPRO1509","31.908","0.4469","5"],
    [12765,"HCEP03730566","2024-02-08 04:30:00","10.6902","3.37536","28.299","4.014","7.5","0.333","3.686","0.01","0.19","30.0131","4.72869","43.74","0","SATNPRO1509","31.906","0.44686","5"],
    [12766,"HCEP03730566","2024-02-08 04:45:00","10.6908","3.37539","28.328","4.041","7.51","0.347","3.72","0.01","0.35","30.013","4.72866","44.03","0","SATNPRO1509","31.93","0.44724","5"],
    [12767,"HCEP03730566","2024-02-08 05:00:00","10.6914","3.37526","28.33","4.03","7.51","0.616","9.87","0.09","2.56","30.0111","4.72839","43.91","0","SATNPRO1509","32.094","0.44952","5"],
    [12768,"HCEP03730566","2024-02-08 05:15:00","10.6915","3.37522","28.325","4.015","7.51","0.338","4.502","0.04","0.64","30.0107","4.72832","43.75","0","SATNPRO1509","31.954","0.44762","5"],
    [12769,"HCEP03730566","2024-02-08 05:30:00","10.692","3.37485","28.308","3.985","7.51","0.323","11.664","0.02","2.12","30.0067","4.72775","43.42","0","SATNPRO1509","31.978","0.4479","5"],
    [12770,"HCEP03730566","2024-02-08 05:45:00","10.6924","3.37504","28.286","3.972","7.51","0.342","6.945","0.02","0.78","30.0081","4.72795","43.28","0","SATNPRO1509","31.954","0.44756","5"],
    [12771,"HCEP03730566","2024-02-08 06:00:00","10.6917","3.37513","28.254","3.985","7.51","0.333","3.796","0.01","0.25","30.0096","4.72816","43.42","0","SATNPRO1509","31.924","0.44716","5"],
    [12772,"HCEP03730566","2024-02-08 06:15:00","10.6909","3.37518","28.199","4.009","7.51","0.355","4.024","0.02","0.23","30.0107","4.72834","43.68","0","SATNPRO1509","32.006","0.4483","5"],
    [12773,"HCEP03730566","2024-02-08 06:30:00","10.6909","3.37504","28.124","4.02","7.51","0.333","3.634","0.01","0.21","30.0094","4.72815","43.8","0","SATNPRO1509","31.98","0.44794","5"],
    [12774,"HCEP03730566","2024-02-08 06:45:00","10.692","3.375","28.061","4.007","7.51","0.352","3.73","0.02","0.13","30.0081","4.72794","43.66","0","SATNPRO1509","32.04","0.44878","5"],
    [12775,"HCEP03730566","2024-02-08 07:00:00","10.6929","3.37476","27.986","3.994","7.51","0.342","3.787","0.01","0.23","30.0051","4.7275","43.52","0","SATNPRO1509","32.038000000000004","0.44874","5"],
    [12776,"HCEP03730566","2024-02-08 07:15:00","10.6933","3.37456","27.908","3.985","7.51","0.352","3.496","0.01","0.72","30.0029","4.72717","43.42","0","SATNPRO1509","31.948","0.4475","5"],
    [12777,"HCEP03730566","2024-02-08 07:30:00","10.6935","3.37453","27.834","3.984","7.51","0.34","3.592","0.01","0.22","30.0024","4.72709","43.41","0","SATNPRO1509","32.152","0.45036","5"],
    [12778,"HCEP03730566","2024-02-08 07:45:00","10.694","3.37466","27.749","3.977","7.51","0.403","3.999","0.11","1.2","30.0033","4.72721","43.33","0","SATNPRO1509","32.04","0.44872","5"],
    [12779,"HCEP03730566","2024-02-08 08:00:00","10.6944","3.37465","27.677","3.974","7.51","0.341","3.421","0.01","0.31","30.003","4.72715","43.31","0","SATNPRO1509","32.104","0.44968","5"],
    [12780,"HCEP03730566","2024-02-08 08:15:00","10.694","3.37446","27.614","3.967","7.51","0.35","3.254","0.01","0.14","30.0014","4.72693","43.23","0","SATNPRO1509","32.086","0.44944","5"],
    [12781,"HCEP03730566","2024-02-08 08:30:00","10.6943","3.37441","27.535","3.968","7.51","0.335","3.429","0.01","0.22","30.0006","4.72681","43.24","0","SATNPRO1509","32.134","0.4501","5"],
    [12782,"HCEP03730566","2024-02-08 08:45:00","10.6948","3.37445","27.475","3.965","7.51","0.352","3.463","0.01","0.18","30.0007","4.7268","43.2","0","SATNPRO1509","32.08","0.44934","5"],
    [12783,"HCEP03730566","2024-02-08 09:00:00","10.695","3.37447","27.398","3.958","7.51","0.347","3.704","0.01","0.17","30.0008","4.72681","43.12","0","SATNPRO1509","32.065999999999995","0.44916","5"],
    [12784,"HCEP03730566","2024-02-08 09:15:00","10.6951","3.37448","27.371","3.954","7.51","0.36","3.405","0.01","0.16","30.0008","4.72681","43.08","0","SATNPRO1509","32.182","0.45078","5"],
    [12785,"HCEP03730566","2024-02-08 09:30:00","10.6956","3.37446","27.339","3.947","7.51","0.347","3.517","0.01","0.16","30.0002","4.72671","43","0","SATNPRO1509","32.012","0.44834","5"],
    [12786,"HCEP03730566","2024-02-08 09:45:00","10.6958","3.37452","27.317","3.931","7.51","0.366","3.653","0.01","0.23","30.0006","4.72677","42.83","0","SATNPRO1509","31.976","0.44788","5"],
    [12787,"HCEP03730566","2024-02-08 10:00:00","10.6964","3.3746","27.285","3.918","7.51","0.349","3.697","0.01","0.18","30.0009","4.7268","42.69","0","SATNPRO1509","31.918","0.44708","5"],
    [12788,"HCEP03730566","2024-02-08 10:15:00","10.6971","3.37469","27.273","3.913","7.51","0.369","3.818","0.01","0.22","30.0012","4.72684","42.64","0","SATNPRO1509","31.98","0.44792","5"],
    [12789,"HCEP03730566","2024-02-08 10:30:00","10.6974","3.37479","27.313","3.905","7.51","0.357","4.119","0.02","0.18","30.002","4.72694","42.55","0","SATNPRO1509","31.823999999999998","0.44574","5"],
    [12790,"HCEP03730566","2024-02-08 10:45:00","10.697","3.37458","27.342","3.898","7.51","0.365","3.909","0.01","0.17","30.0003","4.72671","42.47","0","SATNPRO1509","31.762","0.44488","5"],
    [12791,"HCEP03730566","2024-02-08 11:00:00","10.6964","3.37447","27.36","3.895","7.51","0.355","4.222","0.01","0.2","29.9996","4.72663","42.45","0","SATNPRO1509","31.872","0.4464","5"],
    [12792,"HCEP03730566","2024-02-08 11:15:00","10.6967","3.37458","27.411","3.901","7.51","0.358","3.767","0.01","0.14","30.0005","4.72674","42.51","0","SATNPRO1509","31.962","0.4477","5"],
    [12793,"HCEP03730566","2024-02-08 11:30:00","10.6962","3.3746","27.456","3.906","7.51","0.346","3.672","0.01","0.14","30.001","4.72683","42.56","0","SATNPRO1509","31.894","0.4467","5"],
    [12794,"HCEP03730566","2024-02-08 11:45:00","10.6964","3.37464","27.516","3.909","7.51","0.363","3.932","0.01","0.15","30.0012","4.72685","42.59","0","SATNPRO1509","31.744","0.44462","5"],
    [12795,"HCEP03730566","2024-02-08 12:00:00","10.6941","3.37465","27.549","3.937","7.51","0.341","3.476","0.01","0.34","30.0032","4.72719","42.9","0","SATNPRO1509","31.882","0.4466","5"],
    [12796,"HCEP03730566","2024-02-08 12:15:00","10.6917","3.37465","27.608","3.897","7.51","0.357","3.503","0.02","0.32","30.0052","4.7275","42.47","0","SATNPRO1509","31.86","0.44626","5"],
    [12797,"HCEP03730566","2024-02-08 12:30:00","10.6928","3.37481","27.687","3.81","7.51","0.334","3.455","0.01","0.18","30.0058","4.72758","41.52","0","SATNPRO1509","31.63","0.44304","5"],
    [12798,"HCEP03730566","2024-02-08 12:45:00","10.6788","3.37354","27.789","4.025","7.51","0.36","3.489","0.01","0.24","30.0047","4.72765","43.84","0","SATNPRO1509","31.956","0.4476","5"],
    [12799,"HCEP03730566","2024-02-08 13:00:00","10.673","3.37303","27.854","4.113","7.52","0.336","2.97","0.01","0.12","30.0045","4.72771","44.8","0","SATNPRO1509","31.872","0.44644","5"],
    [12800,"HCEP03730566","2024-02-08 13:15:00","10.6702","3.37281","27.924","4.168","7.52","0.345","2.882","0.01","0.15","30.0046","4.72778","45.39","0","SATNPRO1509","31.948","0.4475","5"],
    [12801,"HCEP03730566","2024-02-08 13:30:00","10.6689","3.37273","27.96","4.186","7.52","0.345","2.919","0.03","0.24","30.0048","4.72783","45.59","0","SATNPRO1509","32.046","0.44884","5"],
    [12802,"HCEP03730566","2024-02-08 13:45:00","10.6692","3.37281","28.015","4.185","7.52","0.367","3.141","0.02","0.57","30.0053","4.72791","45.58","0","SATNPRO1509","32.106","0.44968","5"],
    [12803,"HCEP03730566","2024-02-08 14:00:00","10.6684","3.3728","28.031","4.188","7.53","0.355","3.132","0.02","0.15","30.0058","4.72799","45.61","0","SATNPRO1509","32.05","0.4489","5"],
    [12804,"HCEP03730566","2024-02-08 14:15:00","10.6672","3.37277","27.988","4.194","7.53","0.356","2.794","0.01","0.11","30.0066","4.72811","45.67","0","SATNPRO1509","32.004","0.44824","5"],
    [12805,"HCEP03730566","2024-02-08 14:30:00","10.6681","3.37286","28.057","4.197","7.53","0.339","2.829","0.01","0.1","30.0067","4.72812","45.7","0","SATNPRO1509","32.006","0.44832","5"],
    [12806,"HCEP03730566","2024-02-08 14:45:00","10.6694","3.37301","28.088","4.183","7.53","0.354","2.858","0.02","0.16","30.0071","4.72815","45.56","0","SATNPRO1509","32.024","0.44854","5"],
    [12807,"HCEP03730566","2024-02-08 15:00:00","10.6711","3.37318","28.03","4.17","7.53","0.361","3.517","0.02","0.27","30.0075","4.72818","45.41","0","SATNPRO1509","31.94","0.44734","5"],
    [12808,"HCEP03730566","2024-02-08 15:15:00","10.673400000000001","3.37338","27.982","4.153","7.53","0.381","6.41","0.03","1.27","30.0075","4.72815","45.23","0","SATNPRO1509","32.028","0.4486","5"],
    [12809,"HCEP03730566","2024-02-08 15:30:00","10.6753","3.37361","27.963","4.137","7.52","0.357","4.627","0.02","1.4","30.0082","4.72822","45.06","0","SATNPRO1509","32.006","0.4483","5"],
    [12810,"HCEP03730566","2024-02-08 15:45:00","10.6746","3.37363","27.903","4.147","7.52","0.376","4.108","0.02","1.58","30.009","4.72833","45.17","0","SATNPRO1509","32.092","0.4495","5"],
    [12811,"HCEP03730566","2024-02-08 16:00:00","10.6798","3.37406","27.822","4.098","7.52","0.367","4.601","0.02","0.46","30.0091","4.72825","44.64","0","SATNPRO1509","31.852","0.4461","5"],
    [12812,"HCEP03730566","2024-02-08 16:15:00","10.6765","3.37378","27.725","4.106","7.52","0.383","3.972","0.02","0.32","30.009","4.7283","44.73","0","SATNPRO1509","31.972","0.44782","5"],
    [12813,"HCEP03730566","2024-02-08 16:30:00","10.674","3.37347","27.632","4.131","7.52","0.352","3.552","0.01","0.15","30.0081","4.7282","45","0","SATNPRO1509","32.026","0.44858","5"],
    [12814,"HCEP03730566","2024-02-08 16:45:00","10.6809","3.374","27.463","4.097","7.52","0.407","4.432","0.03","0.43","30.0077","4.72802","44.63","0","SATNPRO1509","31.92","0.4471","5"],
    [12815,"HCEP03730566","2024-02-08 17:00:00","10.6859","3.37424","27.315","4.013","7.52","0.417","7.735","0.06","3.8","30.006","4.72769","43.72","0","SATNPRO1509","31.756","0.44482","5"],
    [12816,"HCEP03730566","2024-02-08 17:15:00","10.6914","3.37443","27.12","3.937","7.51","0.392","7.692","0.03","1.99","30.0035","4.72724","42.9","0","SATNPRO1509","31.716","0.44424","5"],
    [12817,"HCEP03730566","2024-02-08 17:30:00","10.692","3.37437","26.933","3.909","7.51","0.394","6.12","0.04","2.46","30.0024","4.72706","42.59","0","SATNPRO1509","31.748","0.44468","5"],
    [12818,"HCEP03730566","2024-02-08 17:45:00","10.6926","3.37441","26.706","3.897","7.51","0.398","5.474","0.03","1.21","30.0024","4.72704","42.46","0","SATNPRO1509","31.81","0.44554","5"],
    [12819,"HCEP03730566","2024-02-08 18:00:00","10.6926","3.37438","26.47","3.896","7.51","0.387","4.811","0.06","0.81","30.0022","4.72701","42.45","0","SATNPRO1509","31.762","0.44486","5"],
    [12820,"HCEP03730566","2024-02-08 18:15:00","10.692","3.37431","26.25","3.9","7.5","0.357","3.685","0.01","0.23","30.0022","4.72699","42.49","0","SATNPRO1509","31.89","0.44668","5"],
    [12821,"HCEP03730566","2024-02-08 18:30:00","10.691","3.37427","25.974","3.914","7.51","0.352","3.807","0.01","0.16","30.0026","4.72706","42.64","0","SATNPRO1509","31.974","0.4478","5"],
    [12822,"HCEP03730566","2024-02-08 18:45:00","10.6908","3.37424","25.687","3.922","7.51","0.36","3.746","0.01","0.25","30.0026","4.72705","42.73","0","SATNPRO1509","31.882","0.44658","5"],
    [12823,"HCEP03730566","2024-02-08 19:00:00","10.6885","3.37394","25.446","3.94","7.51","0.344","3.552","0.01","0.17","30.0016","4.72693","42.92","0","SATNPRO1509","32.05","0.4489","5"],
    [12824,"HCEP03730566","2024-02-08 19:15:00","10.6866","3.37372","25.218","3.969","7.51","0.353","4.004","0.01","0.19","30.0011","4.72686","43.24","0","SATNPRO1509","32.076","0.44928","5"],
    [12825,"HCEP03730566","2024-02-08 19:30:00","10.6863","3.37372","24.996","3.851","7.51","0.348","4.631","0.01","0.44","30.0014","4.72691","41.96","0","SATNPRO1509","32.004","0.44828","5"],
    [12826,"HCEP03730566","2024-02-08 19:45:00","10.6852","3.37359","24.796","3.958","7.51","0.359","3.865","0.01","0.2","30.0012","4.72687","43.11","0","SATNPRO1509","31.956","0.44758","5"],
    [12827,"HCEP03730566","2024-02-08 20:00:00","10.6868","3.37377","24.585","3.96","7.51","0.349","4.437","0.01","0.35","30.0017","4.72692","43.15","0","SATNPRO1509","31.926","0.44714","5"],
    [12828,"HCEP03730566","2024-02-08 20:15:00","10.687","3.37377","24.373","3.935","7.51","0.374","4.565","0.02","0.28","30.0017","4.7269","42.87","0","SATNPRO1509","31.904","0.44688","5"],
    [12829,"HCEP03730566","2024-02-08 20:30:00","10.6862","3.37349","24.203","3.817","7.51","0.339","4.161","0.01","0.35","29.9996","4.72661","41.59","0","SATNPRO1509","31.858","0.4462","5"],
    [12830,"HCEP03730566","2024-02-08 20:45:00","10.6853","3.37332","24.078","3.924","7.51","0.366","4.302","0.01","0.34","29.9987","4.72649","42.75","0","SATNPRO1509","31.95","0.4475","5"],
    [12831,"HCEP03730566","2024-02-08 21:00:00","10.6869","3.37342","24.001","3.931","7.51","0.348","4.048","0.01","0.26","29.9984","4.72641","42.82","0","SATNPRO1509","31.906000000000002","0.44686","5"],
    [12832,"HCEP03730566","2024-02-08 21:15:00","10.6902","3.37376","23.884","3.9","7.51","0.359","3.808","0.01","0.32","29.9991","4.72645","42.49","0","SATNPRO1509","31.938000000000002","0.44736","5"],
    [12833,"HCEP03730566","2024-02-08 21:30:00","10.6927","3.37401","23.845","3.851","7.5","0.346","3.556","0.01","0.26","29.9996","4.72648","41.95","0","SATNPRO1509","32.046","0.44884","5"],
    [12834,"HCEP03730566","2024-02-08 21:45:00","10.6947","3.37414","23.857","3.81","7.5","0.373","3.823","0.01","0.19","29.9992","4.72639","41.51","0","SATNPRO1509","31.878","0.44646","5"],
    [12835,"HCEP03730566","2024-02-08 22:00:00","10.6967","3.37432","23.936","3.774","7.5","0.366","4.074","0.02","0.39","29.9993","4.72639","41.12","0","SATNPRO1509","31.928","0.44722","5"],
    [12836,"HCEP03730566","2024-02-08 22:15:00","10.6985","3.37442","23.953","3.732","7.49","0.38","4.279","0.01","0.3","29.9988","4.72628","40.67","0","SATNPRO1509","32.002","0.4483","5"],
    [12837,"HCEP03730566","2024-02-08 22:30:00","10.7","3.37441","24.04","3.699","7.49","1.22","14.946","0.4","3.52","29.9974","4.72607","40.31","0","SATNPRO1509","31.89","0.44672","5"],
    [12838,"HCEP03730566","2024-02-08 22:45:00","10.7007","3.37424","24.156","3.666","7.49","0.386","4.609","0.01","0.35","29.9951","4.72573","39.95","0","SATNPRO1509","31.934","0.44726","5"],
    [12839,"HCEP03730566","2024-02-08 23:00:00","10.7029","3.37438","24.305","3.63","7.49","0.376","4.371","0.02","0.29","29.9946","4.72563","39.56","0","SATNPRO1509","31.928","0.4472","5"],
    [12840,"HCEP03730566","2024-02-08 23:15:00","10.7046","3.37458","24.483","3.58","7.48","0.395","4.715","0.01","0.28","29.9952","4.7257","39.01","0","SATNPRO1509","31.808","0.44548","5"],
    [12841,"HCEP03730566","2024-02-08 23:30:00","10.706","3.37462","24.676","3.536","7.48","0.49","5.965","0.07","0.95","29.9943","4.72556","38.53","0","SATNPRO1509","31.896","0.44678","5"],
    [12842,"HCEP03730566","2024-02-08 23:45:00","10.7072","3.37462","24.86","3.499","7.48","5.703","85.809","2.49","19.87","29.9932","4.72541","38.14","0","SATNPRO1509","31.951999999999998","0.44756","5"],
    [12843,"HCEP03730566","2024-02-09 00:00:00","10.7081","3.37471","25.066","3.347","7.47","0.374","4.255","0.01","0.14","29.9933","4.72542","36.47","0","SATNPRO1509","31.946","0.44748","5"],
    [12844,"HCEP03730566","2024-02-09 00:15:00","10.7094","3.37488","25.25","3.438","7.47","0.391","4.268","0.01","0.19","29.9938","4.72548","37.47","0","SATNPRO1509","31.896","0.44678","5"],
    [12845,"HCEP03730566","2024-02-09 00:30:00","10.7101","3.37494","25.431","3.436","7.47","0.385","4.116","0.01","0.24","29.9938","4.72547","37.45","0","SATNPRO1509","31.928","0.44722","5"],
    [12846,"HCEP03730566","2024-02-09 00:45:00","10.7107","3.37501","25.653","3.428","7.47","0.401","4.357","0.01","0.41","29.9938","4.72548","37.36","0","SATNPRO1509","31.676","0.44368","5"],
    [12847,"HCEP03730566","2024-02-09 01:00:00","10.7109","3.375","25.885","3.416","7.47","0.387","4.42","0.01","0.38","29.9935","4.72544","37.23","0","SATNPRO1509","31.922","0.44712","5"],
    [12848,"HCEP03730566","2024-02-09 01:15:00","10.7112","3.375","26.104","3.408","7.47","0.414","4.212","0.02","0.74","29.9932","4.7254","37.14","0","SATNPRO1509","31.93","0.44724","5"],
    [12849,"HCEP03730566","2024-02-09 01:30:00","10.7113","3.37501","26.342","3.407","7.47","0.401","4.313","0.03","0.4","29.9931","4.72541","37.14","0","SATNPRO1509","32.024","0.44858","5"],
    [12850,"HCEP03730566","2024-02-09 01:45:00","10.7113","3.37501","26.574","3.408","7.47","0.401","3.941","0.01","0.42","29.9931","4.72542","37.15","0","SATNPRO1509","31.836","0.44594","5"],
    [12851,"HCEP03730566","2024-02-09 02:00:00","10.7114","3.37503","26.798","3.411","7.46","0.392","3.879","0.01","0.2","29.9931","4.72542","37.18","0","SATNPRO1509","31.994","0.4481","5"],
    [12852,"HCEP03730566","2024-02-09 02:15:00","10.7118","3.37508","27.035","3.409","7.46","0.405","4.023","0.01","0.64","29.9931","4.72544","37.15","0","SATNPRO1509","31.938","0.44734","5"],
    [12853,"HCEP03730566","2024-02-09 02:30:00","10.7118","3.37509","27.249","3.408","7.46","0.386","4.127","0.01","0.31","29.9932","4.72546","37.15","0","SATNPRO1509","31.956","0.4476","5"],
    [12854,"HCEP03730566","2024-02-09 02:45:00","10.7118","3.37505","27.454","3.412","7.46","0.401","3.606","0.01","0.23","29.9927","4.72541","37.19","0","SATNPRO1509","31.945999999999998","0.44744","5"],
    [12855,"HCEP03730566","2024-02-09 03:00:00","10.7119","3.37504","27.649","3.406","7.46","0.398","4","0.02","0.45","29.9925","4.72538","37.12","0","SATNPRO1509","32.062","0.4491","5"],
    [12856,"HCEP03730566","2024-02-09 03:15:00","10.7117","3.37495","27.824","3.402","7.46","0.404","3.76","0.01","0.4","29.9917","4.72528","37.08","0","SATNPRO1509","31.924","0.44714","5"],
    [12857,"HCEP03730566","2024-02-09 03:30:00","10.7111","3.37485","27.928","3.261","7.46","0.382","3.523","0.01","0.35","29.991","4.7252","35.54","0","SATNPRO1509","32.14","0.4502","5"],
    [12858,"HCEP03730566","2024-02-09 03:45:00","10.711","3.37484","28.051","3.285","7.46","0.401","3.633","0.01","0.47","29.991","4.72521","35.8","0","SATNPRO1509","32.124","0.44996","5"],
    [12859,"HCEP03730566","2024-02-09 04:00:00","10.7106","3.37474","28.12","3.278","7.46","0.394","3.542","0.02","0.3","29.9903","4.72512","35.72","0","SATNPRO1509","31.872","0.44638","5"],
    [12860,"HCEP03730566","2024-02-09 04:15:00","10.7106","3.37477","28.186","3.378","7.46","0.397","3.457","0.01","0.36","29.9906","4.72517","36.82","0","SATNPRO1509","32.019999999999996","0.44848","5"],
    [12861,"HCEP03730566","2024-02-09 04:30:00","10.7088","3.37433","28.24","3.366","7.46","0.392","3.776","0.01","0.2","29.9877","4.72479","36.69","0","SATNPRO1509","31.964","0.44772","5"],
    [12862,"HCEP03730566","2024-02-09 04:45:00","10.707","3.374","28.283","3.348","7.46","0.409","4.212","0.02","0.28","29.9859","4.72456","36.48","0","SATNPRO1509","32.022","0.44852","5"],
    [12863,"HCEP03730566","2024-02-09 05:00:00","10.7055","3.37386","28.307","3.349","7.46","0.404","4.419","0.01","0.32","29.9857","4.72456","36.49","0","SATNPRO1509","31.934","0.44732","5"],
    [12864,"HCEP03730566","2024-02-09 05:15:00","10.7045","3.37374","28.305","3.372","7.46","0.401","4.081","0.01","0.67","29.9853","4.72452","36.74","0","SATNPRO1509","32.025999999999996","0.44862","5"],
    [12865,"HCEP03730566","2024-02-09 05:30:00","10.7031","3.37354","28.328","3.398","7.46","0.458","8.134","0.3","9.97","29.9846","4.72444","37.03","0","SATNPRO1509","31.922","0.44714","5"],
    [12866,"HCEP03730566","2024-02-09 05:45:00","10.7017","3.37349","28.323","3.416","7.46","0.403","4.196","0.01","0.29","29.9852","4.72454","37.23","0","SATNPRO1509","31.93","0.44724","5"],
    [12867,"HCEP03730566","2024-02-09 06:00:00","10.7008","3.37351","28.297","3.439","7.46","0.385","4.409","0.01","0.21","29.9861","4.72469","37.47","0","SATNPRO1509","31.916","0.44704","5"],
    [12868,"HCEP03730566","2024-02-09 06:15:00","10.6992","3.37341","28.26","3.475","7.47","0.389","3.923","0.01","0.19","29.9865","4.72476","37.87","0","SATNPRO1509","31.912000000000003","0.447","5"],
    [12869,"HCEP03730566","2024-02-09 06:30:00","10.6984","3.37342","28.215","3.519","7.47","0.375","3.892","0.01","0.2","29.9873","4.72489","38.34","0","SATNPRO1509","31.878","0.44646","5"],
    [12870,"HCEP03730566","2024-02-09 06:45:00","10.6987","3.37349","28.165","3.519","7.47","0.39","3.862","0.01","0.24","29.9878","4.72495","38.35","0","SATNPRO1509","31.964","0.4477","5"],
    [12871,"HCEP03730566","2024-02-09 07:00:00","10.6989","3.37359","28.101","3.525","7.47","2.901","39.924","2.48","27.79","29.9886","4.72506","38.4","0","SATNPRO1509","32.034","0.4487","5"],
    [12872,"HCEP03730566","2024-02-09 07:15:00","10.7","3.37375","28.027","3.541","7.47","0.398","5.247","0.04","0.86","29.9893","4.72514","38.59","0","SATNPRO1509","31.956","0.44758","5"],
    [12873,"HCEP03730566","2024-02-09 07:30:00","10.7004","3.37387","27.969","3.538","7.47","8.573","674.049","4.36","377.08","29.9902","4.72526","38.55","0","SATNPRO1509","31.998","0.44814","5"],
    [12874,"HCEP03730566","2024-02-09 07:45:00","10.7008","3.37397","27.862","3.538","7.47","0.374","3.633","0.01","0.1","29.9909","4.72534","38.55","0","SATNPRO1509","32.052","0.44898","5"],
    [12875,"HCEP03730566","2024-02-09 08:00:00","10.7013","3.37405","27.776","3.534","7.47","0.363","3.933","0.01","0.11","29.9913","4.72539","38.51","0","SATNPRO1509","31.974","0.44784","5"],
    [12876,"HCEP03730566","2024-02-09 08:15:00","10.7013","3.37406","27.678","3.536","7.47","0.376","3.985","0.01","0.14","29.9915","4.72541","38.53","0","SATNPRO1509","31.958000000000002","0.44762","5"],
    [12877,"HCEP03730566","2024-02-09 08:30:00","10.7011","3.37409","27.59","3.537","7.47","0.366","4.035","0.01","0.12","29.9919","4.72546","38.54","0","SATNPRO1509","31.998","0.44812","5"],
    [12878,"HCEP03730566","2024-02-09 08:45:00","10.7011","3.3741","27.501","3.535","7.47","0.383","4.007","0.01","0.16","29.9921","4.72549","38.52","0","SATNPRO1509","31.746","0.44462","5"],
    [12879,"HCEP03730566","2024-02-09 09:00:00","10.701","3.37407","27.379","3.539","7.48","0.373","4.219","0.01","0.17","29.9919","4.72546","38.57","0","SATNPRO1509","31.904","0.44688","5"],
    [12880,"HCEP03730566","2024-02-09 09:15:00","10.7002","3.37398","27.297","3.54","7.47","1.375","38.185","0.26","3.13","29.9917","4.72544","38.57","0","SATNPRO1509","31.85","0.4461","5"],
    [12881,"HCEP03730566","2024-02-09 09:30:00","10.699","3.37384","27.209","3.562","7.48","0.38","4.158","0.01","0.17","29.9913","4.7254","38.81","0","SATNPRO1509","31.898","0.44684","5"],
    [12882,"HCEP03730566","2024-02-09 09:45:00","10.6975","3.37366","27.118","3.582","7.48","0.393","4.122","0.01","0.15","29.9908","4.72534","39.02","0","SATNPRO1509","31.872","0.44642","5"],
    [12883,"HCEP03730566","2024-02-09 10:00:00","10.6958","3.37347","27.083","3.608","7.48","0.381","4.592","0.01","1.94","29.9905","4.72531","39.31","0","SATNPRO1509","31.836","0.44594","5"],
    [12884,"HCEP03730566","2024-02-09 10:15:00","10.6936","3.37321","27.003","3.632","7.48","0.388","4.017","0.01","0.16","29.9897","4.72523","39.57","0","SATNPRO1509","31.786","0.4452","5"],
    [12885,"HCEP03730566","2024-02-09 10:30:00","10.6934","3.37312","26.984","3.638","7.48","0.375","4.393","0.01","0.14","29.9889","4.72513","39.63","0","SATNPRO1509","31.708","0.44418","5"],
    [12886,"HCEP03730566","2024-02-09 10:45:00","10.6917","3.37277","26.986","3.634","7.48","0.398","4.249","0.01","0.14","29.987","4.72488","39.59","0","SATNPRO1509","31.688","0.44386","5"],
    [12887,"HCEP03730566","2024-02-09 11:00:00","10.6914","3.37274","26.966","3.625","7.48","0.378","4.565","0.01","0.18","29.9868","4.72486","39.49","0","SATNPRO1509","31.558","0.44206","5"],
    [12888,"HCEP03730566","2024-02-09 11:15:00","10.6877","3.37188","27.004","3.644","7.48","0.392","4.218","0.02","0.17","29.9814","4.72415","39.69","0","SATNPRO1509","31.654","0.44338","5"],
    [12889,"HCEP03730566","2024-02-09 11:30:00","10.6903","3.37245","27.033","3.634","7.48","0.389","4.949","0.02","0.21","29.9849","4.7246","39.58","0","SATNPRO1509","31.55","0.4419","5"],
    [12890,"HCEP03730566","2024-02-09 11:45:00","10.6862","3.37159","27.064","3.631","7.48","0.395","4.609","0.01","0.78","29.9797","4.72393","39.55","0","SATNPRO1509","31.634","0.4431","5"],
    [12891,"HCEP03730566","2024-02-09 12:00:00","10.6834","3.37119","27.141","3.674","7.48","0.385","4.176","0.02","0.22","29.978","4.72375","40.02","0","SATNPRO1509","31.66","0.44344","5"],
    [12892,"HCEP03730566","2024-02-09 12:15:00","10.676","3.37029","27.217","3.751","7.49","0.391","3.618","0.03","0.2","29.9752","4.72346","40.85","0","SATNPRO1509","31.884","0.4466","5"],
    [12893,"HCEP03730566","2024-02-09 12:30:00","10.6721","3.36984","27.316","3.831","7.49","0.369","3.537","0.02","0.18","29.9739","4.72335","41.72","0","SATNPRO1509","31.928","0.44722","5"],
    [12894,"HCEP03730566","2024-02-09 12:45:00","10.6731","3.36995","27.414","3.834","7.49","0.379","3.555","0.02","0.11","29.9741","4.72338","41.75","0","SATNPRO1509","31.836","0.44592","5"],
    [12895,"HCEP03730566","2024-02-09 13:00:00","10.6681","3.36934","27.506","3.875","7.49","0.367","3.283","0.02","0.3","29.9722","4.72318","42.19","0","SATNPRO1509","31.924","0.44718","5"],
    [12896,"HCEP03730566","2024-02-09 13:15:00","10.6655","3.36903","27.593","3.927","7.5","0.379","3.035","0.03","0.16","29.9713","4.7231","42.75","0","SATNPRO1509","32.006","0.44832","5"],
    [12897,"HCEP03730566","2024-02-09 13:30:00","10.6638","3.36891","27.691","3.956","7.5","0.374","3.374","0.04","0.17","29.9714","4.72315","43.07","0","SATNPRO1509","32.118","0.44988","5"],
    [12898,"HCEP03730566","2024-02-09 13:45:00","10.6679","3.3694","27.774","3.876","7.5","0.376","4.105","0.01","0.5","29.9728","4.72329","42.2","0","SATNPRO1509","31.874000000000002","0.44646","5"],
    [12899,"HCEP03730566","2024-02-09 14:00:00","10.6754","3.37042","27.859","3.819","7.5","0.36","4.188","0.01","2.28","29.9768","4.72374","41.58","0","SATNPRO1509","31.798000000000002","0.44542","5"],
    [12900,"HCEP03730566","2024-02-09 14:15:00","10.6863","3.37217","27.929","3.722","7.49","0.395","3.637","0.04","0.14","29.985","4.72474","40.54","0","SATNPRO1509","31.726","0.44436","5"],
    [12901,"HCEP03730566","2024-02-09 14:30:00","10.6875","3.37236","27.995","3.671","7.49","0.361","3.836","0.01","0.18","29.986","4.72486","39.99","0","SATNPRO1509","31.663999999999998","0.4435","5"],
    [12902,"HCEP03730566","2024-02-09 14:45:00","10.6877","3.37234","28.05","3.659","7.49","0.384","4.131","0.01","0.15","29.9855","4.72479","39.86","0","SATNPRO1509","31.834","0.44592","5"],
    [12903,"HCEP03730566","2024-02-09 15:00:00","10.6877","3.37246","28.127","3.662","7.49","0.369","4.035","0.02","1.06","29.9867","4.72496","39.9","0","SATNPRO1509","31.69","0.44388","5"],
    [12904,"HCEP03730566","2024-02-09 15:15:00","10.688","3.3725","28.196","3.663","7.48","0.38","3.941","0.01","0.25","29.9867","4.72497","39.9","0","SATNPRO1509","31.758","0.44484","5"],
    [12905,"HCEP03730566","2024-02-09 15:30:00","10.6862","3.37217","28.17","3.68","7.48","0.373","5.192","0.02","5.28","29.985","4.72475","40.09","0","SATNPRO1509","31.688","0.44386","5"],
    [12906,"HCEP03730566","2024-02-09 15:45:00","10.6824","3.3715","28.146","3.704","7.48","0.377","3.516","0.01","0.27","29.9815","4.72431","40.35","0","SATNPRO1509","31.774","0.44502","5"],
    [12907,"HCEP03730566","2024-02-09 16:00:00","10.6672","3.36952","28.117","3.842","7.49","0.369","4.083","0.01","3.36","29.9745","4.72356","41.83","0","SATNPRO1509","32.006","0.44828","5"],
    [12908,"HCEP03730566","2024-02-09 16:15:00","10.6672","3.36964","28.087","3.907","7.5","0.393","4.063","0.02","1.65","29.9757","4.72372","42.54","0","SATNPRO1509","32.076","0.44932","5"],
    [12909,"HCEP03730566","2024-02-09 16:30:00","10.6685","3.36982","28.046","3.905","7.5","0.375","4.721","0.01","3.18","29.9764","4.7238","42.52","0","SATNPRO1509","31.972","0.44784","5"],
    [12910,"HCEP03730566","2024-02-09 16:45:00","10.6691","3.3699","27.953","3.901","7.5","0.381","3.738","0.01","0.3","29.9768","4.72384","42.47","0","SATNPRO1509","31.906","0.44692","5"],
    [12911,"HCEP03730566","2024-02-09 17:00:00","10.6691","3.36996","27.878","3.896","7.5","0.373","3.94","0.01","0.31","29.9773","4.72391","42.42","0","SATNPRO1509","31.882","0.44654","5"],
    [12912,"HCEP03730566","2024-02-09 17:15:00","10.6686","3.36995","27.748","3.905","7.5","0.377","3.637","0.01","0.37","29.9776","4.72396","42.51","0","SATNPRO1509","31.982","0.44798","5"],
    [12913,"HCEP03730566","2024-02-09 17:30:00","10.6656","3.36963","27.602","3.941","7.5","0.359","3.388","0.01","0.26","29.9771","4.72393","42.91","0","SATNPRO1509","32.044","0.4488","5"],
    [12914,"HCEP03730566","2024-02-09 17:45:00","10.6631","3.3694","27.466","3.979","7.5","0.398","4.835","0.04","2.09","29.9769","4.72393","43.32","0","SATNPRO1509","32.118","0.44988","5"],
    [12915,"HCEP03730566","2024-02-09 18:00:00","10.6649","3.36959","27.303","3.825","7.51","0.36","3.889","0.01","0.2","29.9774","4.72395","41.65","0","SATNPRO1509","32.05","0.44888","5"],
    [12916,"HCEP03730566","2024-02-09 18:15:00","10.6647","3.3695","27.129","3.846","7.51","0.404","4.518","0.02","0.41","29.9768","4.72387","41.88","0","SATNPRO1509","32.036","0.44878","5"],
    [12917,"HCEP03730566","2024-02-09 18:30:00","10.6701","3.36993","26.949","3.869","7.5","0.378","6.94","0.02","3.87","29.9766","4.72375","42.13","0","SATNPRO1509","31.908","0.44694","5"],
    [12918,"HCEP03730566","2024-02-09 18:45:00","10.6681","3.36968","26.736","3.871","7.5","0.503","6.202","0.05","0.78","29.9759","4.72366","42.15","0","SATNPRO1509","32.018","0.44844","5"],
    [12919,"HCEP03730566","2024-02-09 19:00:00","10.665","3.36916","26.506","3.914","7.5","0.387","6.305","0.02","1.85","29.9733","4.72333","42.62","0","SATNPRO1509","31.916","0.44702","5"],
    [12920,"HCEP03730566","2024-02-09 19:15:00","10.6707","3.3696","26.229","3.855","7.5","0.401","5.124","0.02","1.48","29.9731","4.7232","41.97","0","SATNPRO1509","32.008","0.44836","5"],
    [12921,"HCEP03730566","2024-02-09 19:30:00","10.675","3.36998","25.94","3.769","7.5","0.386","5.445","0.02","1.54","29.9734","4.72316","41.05","0","SATNPRO1509","32.092","0.4495","5"],
    [12922,"HCEP03730566","2024-02-09 19:45:00","10.6786","3.37032","25.69","3.716","7.49","0.399","3.982","0.01","0.27","29.9739","4.72316","40.47","0","SATNPRO1509","32.084","0.44938","5"],
    [12923,"HCEP03730566","2024-02-09 20:00:00","10.6844","3.37088","25.456","3.62","7.49","0.379","3.741","0.01","0.26","29.9748","4.72317","39.42","0","SATNPRO1509","32.23","0.45146","5"],
    [12924,"HCEP03730566","2024-02-09 20:15:00","10.6902","3.37165","25.276","3.535","7.48","0.401","3.836","0.01","0.24","29.9778","4.7235","38.51","0","SATNPRO1509","31.886","0.44664","5"],
    [12925,"HCEP03730566","2024-02-09 20:30:00","10.693","3.37215","25.039","3.503","7.47","1.555","76.169","0.66","31.89","29.9805","4.72383","38.16","0","SATNPRO1509","32.09","0.44946","5"],
    [12926,"HCEP03730566","2024-02-09 20:45:00","10.6938","3.3721","24.838","3.468","7.47","0.434","4.97","0.01","0.47","29.9794","4.72365","37.78","0","SATNPRO1509","31.89","0.44666","5"],
    [12927,"HCEP03730566","2024-02-09 21:00:00","10.6928","3.37157","24.591","3.429","7.47","0.393","4.408","0.01","0.29","29.9751","4.72304","37.35","0","SATNPRO1509","32","0.4482","5"],
    [12928,"HCEP03730566","2024-02-09 21:15:00","10.6924","3.37127","24.358","3.403","7.46","0.405","4.014","0.01","0.37","29.9726","4.72268","37.07","0","SATNPRO1509","32.158","0.45042","5"],
    [12929,"HCEP03730566","2024-02-09 21:30:00","10.6935","3.37136","24.163","3.375","7.46","0.393","3.668","0.01","0.23","29.9726","4.72265","36.76","0","SATNPRO1509","32.126","0.44996","5"],
    [12930,"HCEP03730566","2024-02-09 21:45:00","10.695","3.37161","24.015","3.356","7.46","0.489","5.337","0.06","0.52","29.9738","4.72279","36.56","0","SATNPRO1509","32.048","0.44888","5"],
    [12931,"HCEP03730566","2024-02-09 22:00:00","10.6957","3.37161","23.917","3.341","7.46","0.396","4.247","0.01","0.29","29.9734","4.72271","36.4","0","SATNPRO1509","32.328","0.45276","5"],
    [12932,"HCEP03730566","2024-02-09 22:15:00","10.6958","3.37162","23.842","3.331","7.46","0.408","3.659","0.02","0.27","29.9735","4.72271","36.29","0","SATNPRO1509","32.217999999999996","0.45126","5"],
    [12933,"HCEP03730566","2024-02-09 22:30:00","10.6968","3.37176","23.831","3.324","7.46","0.419","4.349","0.01","0.29","29.974","4.72278","36.21","0","SATNPRO1509","32.042","0.44878","5"],
    [12934,"HCEP03730566","2024-02-09 22:45:00","10.6967","3.37177","23.847","3.32","7.46","0.434","3.893","0.02","0.24","29.9741","4.7228","36.17","0","SATNPRO1509","32.278","0.4521","5"],
    [12935,"HCEP03730566","2024-02-09 23:00:00","10.6967","3.37177","23.993","3.325","7.46","0.406","4.017","0.01","0.25","29.9741","4.72281","36.22","0","SATNPRO1509","32.268","0.45198","5"],
    [12936,"HCEP03730566","2024-02-09 23:15:00","10.6974","3.37202","24.098","3.33","7.46","0.427","4.572","0.02","0.57","29.9759","4.72306","36.28","0","SATNPRO1509","32.206","0.4511","5"],
    [12937,"HCEP03730566","2024-02-09 23:30:00","10.6995","3.37244","24.076","3.326","7.46","0.409","4.363","0.01","0.28","29.9783","4.72337","36.24","0","SATNPRO1509","32.208","0.45108","5"],
    [12938,"HCEP03730566","2024-02-09 23:45:00","10.7024","3.37289","24.233","3.215","7.46","0.419","3.975","0.02","0.24","29.9804","4.72362","35.03","0","SATNPRO1509","32.128","0.45","5"],
    [12939,"HCEP03730566","2024-02-10 00:00:00","10.7041","3.37316","24.409","3.185","7.45","0.405","4.501","0.01","0.81","29.9816","4.72378","34.71","0","SATNPRO1509","32.234","0.4515","5"],
    [12940,"HCEP03730566","2024-02-10 00:15:00","10.7042","3.37318","24.61","3.172","7.45","0.41","4.182","0.01","0.14","29.9816","4.72379","34.56","0","SATNPRO1509","32.168","0.45058","5"],
    [12941,"HCEP03730566","2024-02-10 00:30:00","10.7045","3.37312","24.807","3.235","7.45","0.401","3.905","0.01","0.18","29.9807","4.72367","35.25","0","SATNPRO1509","32.144","0.4502","5"],
    [12942,"HCEP03730566","2024-02-10 00:45:00","10.705","3.37315","25.019","3.093","7.45","0.423","4.147","0.01","0.21","29.9805","4.72364","33.71","0","SATNPRO1509","32.102","0.44966","5"],
    [12943,"HCEP03730566","2024-02-10 01:00:00","10.7051","3.37313","25.23","3.041","7.45","0.411","3.948","0.02","0.19","29.9801","4.72359","33.14","0","SATNPRO1509","32.174","0.45062","5"],
    [12944,"HCEP03730566","2024-02-10 01:15:00","10.7052","3.37316","25.449","3.028","7.45","0.427","4.174","0.01","0.19","29.9803","4.72363","32.99","0","SATNPRO1509","32.214","0.45122","5"],
    [12945,"HCEP03730566","2024-02-10 01:30:00","10.7048","3.37313","25.664","3.107","7.45","0.412","4.289","0.01","0.26","29.9801","4.72363","33.86","0","SATNPRO1509","32.156","0.4504","5"],
    [12946,"HCEP03730566","2024-02-10 01:45:00","10.7047","3.37309","25.845","3.188","7.45","0.425","4.42","0.01","0.22","29.9799","4.7236","34.74","0","SATNPRO1509","32.16","0.45048","5"],
    [12947,"HCEP03730566","2024-02-10 02:00:00","10.7046","3.37306","26.108","3.025","7.45","0.416","4.466","0.01","0.17","29.9796","4.72357","32.97","0","SATNPRO1509","32.228","0.4514","5"],
    [12948,"HCEP03730566","2024-02-10 02:15:00","10.7047","3.37306","26.322","3.085","7.45","0.427","4.628","0.01","0.18","29.9794","4.72356","33.62","0","SATNPRO1509","32.120000000000005","0.4499","5"],
    [12949,"HCEP03730566","2024-02-10 02:30:00","10.705","3.37306","26.531","3.174","7.45","0.441","5.021","0.02","0.58","29.979","4.72352","34.58","0","SATNPRO1509","32.248","0.45166","5"],
    [12950,"HCEP03730566","2024-02-10 02:45:00","10.7054","3.3731","26.82","3.146","7.45","3.895","80.516","0.65","19.19","29.979","4.72352","34.29","0","SATNPRO1509","32.071999999999996","0.4492","5"],
    [12951,"HCEP03730566","2024-02-10 03:00:00","10.7054","3.37304","27.039","3.167","7.45","3.352","154.662","1.03","37.65","29.9783","4.72344","34.51","0","SATNPRO1509","32.102","0.44966","5"],
    [12952,"HCEP03730566","2024-02-10 03:15:00","10.7054","3.37301","27.264","3.127","7.45","0.621","44.405","0.21","34.81","29.9779","4.72338","34.07","0","SATNPRO1509","32.168","0.45056","5"],
    [12953,"HCEP03730566","2024-02-10 03:30:00","10.705","3.37288","27.437","3.024","7.44","0.394","5.376","0.02","0.2","29.9768","4.72325","32.95","0","SATNPRO1509","32.168","0.45058","5"],
    [12954,"HCEP03730566","2024-02-10 03:45:00","10.7047","3.37272","27.644","3.001","7.44","0.42","3.785","0.01","0.12","29.9755","4.72309","32.7","0","SATNPRO1509","32.04","0.44878","5"],
    [12955,"HCEP03730566","2024-02-10 04:00:00","10.7043","3.37259","27.864","2.97","7.44","0.691","11.418","0.05","1.96","29.9744","4.72295","32.36","0","SATNPRO1509","32.176","0.45068","5"],
    [12956,"HCEP03730566","2024-02-10 04:15:00","10.7041","3.37247","27.98","3.084","7.44","0.616","12.194","0.22","9.8","29.9734","4.7228","33.6","0","SATNPRO1509","32.104","0.44962","5"],
    [12957,"HCEP03730566","2024-02-10 04:30:00","10.7035","3.37232","28.142","3.086","7.44","0.781","12.594","0.09","2.5","29.9723","4.72267","33.62","0","SATNPRO1509","32.098","0.44958","5"],
    [12958,"HCEP03730566","2024-02-10 04:45:00","10.7033","3.37233","28.258","3.091","7.44","0.492","4.91","0.12","0.84","29.9725","4.72271","33.68","0","SATNPRO1509","32.196","0.45094","5"],
    [12959,"HCEP03730566","2024-02-10 05:00:00","10.7037","3.37243","28.337","3.096","7.44","0.413","3.835","0.01","0.23","29.9732","4.7228","33.74","0","SATNPRO1509","32.153999999999996","0.45038","5"],
    [12960,"HCEP03730566","2024-02-10 05:15:00","10.7042","3.37249","28.336","3.104","7.44","0.413","3.647","0.01","0.15","29.9734","4.72283","33.82","0","SATNPRO1509","32.244","0.45164","5"],
    [12961,"HCEP03730566","2024-02-10 05:30:00","10.7043","3.37265","28.309","3.114","7.44","0.398","4.035","0.01","0.13","29.9748","4.72302","33.93","0","SATNPRO1509","32.13","0.45008","5"],
    [12962,"HCEP03730566","2024-02-10 05:45:00","10.7043","3.37266","28.368","2.948","7.44","0.413","3.983","0.01","0.12","29.9748","4.72303","32.12","0","SATNPRO1509","32.164","0.45054","5"],
    [12963,"HCEP03730566","2024-02-10 06:00:00","10.7042","3.37269","28.384","3.103","7.44","0.393","3.98","0.01","0.1","29.9753","4.7231","33.81","0","SATNPRO1509","32.136","0.45016","5"],
    [12964,"HCEP03730566","2024-02-10 06:15:00","10.7045","3.37279","28.352","3.123","7.44","0.409","3.856","0.01","0.12","29.976","4.7232","34.03","0","SATNPRO1509","32.228","0.45144","5"],
    [12965,"HCEP03730566","2024-02-10 06:30:00","10.705","3.37294","28.311","2.963","7.44","0.398","4.137","0.01","0.14","29.9771","4.72334","32.28","0","SATNPRO1509","32.148","0.45028","5"],
    [12966,"HCEP03730566","2024-02-10 06:45:00","10.7055","3.37303","28.3","3.027","7.44","0.401","3.912","0.01","0.11","29.9776","4.72341","32.98","0","SATNPRO1509","32.162","0.45048","5"],
    [12967,"HCEP03730566","2024-02-10 07:00:00","10.7052","3.37309","28.201","3.114","7.44","0.388","4.245","0.01","0.07","29.9785","4.72352","33.94","0","SATNPRO1509","32.218","0.45128","5"],
    [12968,"HCEP03730566","2024-02-10 07:15:00","10.7052","3.37313","28.135","3.05","7.44","0.402","4.035","0.01","0.17","29.9788","4.72358","33.24","0","SATNPRO1509","32.168","0.45056","5"],
    [12969,"HCEP03730566","2024-02-10 07:30:00","10.7047","3.37312","28.046","3.126","7.44","0.392","4.409","0.01","0.17","29.9792","4.72363","34.06","0","SATNPRO1509","32.122","0.4499","5"],
    [12970,"HCEP03730566","2024-02-10 07:45:00","10.704","3.37305","27.95","3.13","7.44","0.405","4.044","0.01","0.12","29.9792","4.72363","34.1","0","SATNPRO1509","32.174","0.45062","5"],
    [12971,"HCEP03730566","2024-02-10 08:00:00","10.703","3.37294","27.863","3.105","7.44","0.391","3.803","0.01","0.1","29.979","4.72361","33.83","0","SATNPRO1509","32.222","0.45136","5"],
    [12972,"HCEP03730566","2024-02-10 08:15:00","10.7017","3.37275","27.768","3.114","7.45","0.404","4.014","0.01","0.09","29.9782","4.72352","33.93","0","SATNPRO1509","32.11","0.44976","5"],
    [12973,"HCEP03730566","2024-02-10 08:30:00","10.7008","3.37257","27.666","3.201","7.45","0.393","4.182","0.01","0.11","29.9772","4.72338","34.88","0","SATNPRO1509","32.14","0.45014","5"],
    [12974,"HCEP03730566","2024-02-10 08:45:00","10.6998","3.37242","27.538","3.044","7.45","0.407","4.066","0.01","0.11","29.9765","4.7233","33.17","0","SATNPRO1509","32.106","0.44966","5"],
    [12975,"HCEP03730566","2024-02-10 09:00:00","10.6992","3.37225","27.44","3.029","7.45","0.396","4.02","0.01","0.1","29.9754","4.72315","33.01","0","SATNPRO1509","32.194","0.45094","5"],
    [12976,"HCEP03730566","2024-02-10 09:15:00","10.6976","3.37195","27.33","3.2","7.45","0.407","3.886","0.01","0.16","29.9739","4.72294","34.86","0","SATNPRO1509","32.124","0.44996","5"],
    [12977,"HCEP03730566","2024-02-10 09:30:00","10.6952","3.3715","27.244","3.232","7.45","0.394","3.885","0.01","0.08","29.9714","4.72262","35.21","0","SATNPRO1509","32.126","0.44998","5"],
    [12978,"HCEP03730566","2024-02-10 09:45:00","10.6938","3.37116","27.134","3.247","7.45","0.406","3.841","0.01","0.12","29.9693","4.72234","35.37","0","SATNPRO1509","32.074","0.44926","5"],
    [12979,"HCEP03730566","2024-02-10 10:00:00","10.696","3.37161","26.986","3.24","7.45","0.398","4.067","0.01","0.12","29.972","4.72268","35.3","0","SATNPRO1509","32.08","0.44934","5"],
    [12980,"HCEP03730566","2024-02-10 10:15:00","10.6972","3.37188","26.838","3.211","7.45","0.412","4.137","0.02","0.1","29.9736","4.72289","34.99","0","SATNPRO1509","32.158","0.45048","5"],
    [12981,"HCEP03730566","2024-02-10 10:30:00","10.6975","3.37189","26.733","3.214","7.45","0.403","4.142","0.01","0.13","29.9736","4.72287","35.02","0","SATNPRO1509","32.124","0.44996","5"],
    [12982,"HCEP03730566","2024-02-10 10:45:00","10.6959","3.37154","26.675","3.216","7.45","0.417","3.964","0.01","0.13","29.9715","4.72259","35.04","0","SATNPRO1509","32.064","0.44908","5"],
    [12983,"HCEP03730566","2024-02-10 11:00:00","10.6954","3.37141","26.639","3.207","7.45","0.408","4.309","0.01","0.16","29.9706","4.72247","34.93","0","SATNPRO1509","31.946","0.44742","5"],
    [12984,"HCEP03730566","2024-02-10 11:15:00","10.6928","3.37092","26.587","3.208","7.45","0.422","4.433","0.01","0.18","29.9679","4.72213","34.94","0","SATNPRO1509","31.96","0.44766","5"],
    [12985,"HCEP03730566","2024-02-10 11:30:00","10.6856","3.3695","26.593","3.242","7.45","0.417","5.112","0.02","0.23","29.9599","4.7211","35.31","0","SATNPRO1509","31.828","0.44582","5"],
    [12986,"HCEP03730566","2024-02-10 11:45:00","10.6805","3.36851","26.632","3.29","7.45","0.429","5.303","0.02","0.24","29.9542","4.72038","35.82","0","SATNPRO1509","31.822","0.44572","5"],
    [12987,"HCEP03730566","2024-02-10 12:00:00","10.6775","3.368","26.646","3.313","7.45","0.408","4.543","0.01","0.23","29.9516","4.72006","36.08","0","SATNPRO1509","31.791999999999998","0.4453","5"],
    [12988,"HCEP03730566","2024-02-10 12:15:00","10.6764","3.36782","26.717","3.336","7.45","0.421","4.265","0.01","0.22","29.9507","4.71995","36.33","0","SATNPRO1509","31.778","0.44508","5"],
    [12989,"HCEP03730566","2024-02-10 12:30:00","10.6753","3.36764","26.795","3.353","7.46","0.419","4.434","0.03","0.19","29.9499","4.71986","36.5","0","SATNPRO1509","31.868","0.44634","5"],
    [12990,"HCEP03730566","2024-02-10 12:45:00","10.673400000000001","3.36733","26.884","3.375","7.46","0.42","4.07","0.02","0.37","29.9483","4.71966","36.75","0","SATNPRO1509","31.986","0.44804","5"],
    [12991,"HCEP03730566","2024-02-10 13:00:00","10.6713","3.36699","26.964","3.409","7.46","0.41","4.319","0.02","0.3","29.9467","4.71947","37.12","0","SATNPRO1509","31.918","0.44712","5"],
    [12992,"HCEP03730566","2024-02-10 13:15:00","10.6665","3.36629","27.096","3.465","7.46","0.423","4.61","0.02","0.3","29.9436","4.71912","37.72","0","SATNPRO1509","31.872","0.44644","5"],
    [12993,"HCEP03730566","2024-02-10 13:30:00","10.6654","3.36623","27.173","3.499","7.47","0.419","5.341","0.02","0.24","29.9439","4.71919","38.09","0","SATNPRO1509","31.594","0.44252","5"],
    [12994,"HCEP03730566","2024-02-10 13:45:00","10.6679","3.36691","27.294","3.52","7.47","0.423","4.961","0.02","0.26","29.9485","4.7198","38.32","0","SATNPRO1509","31.4","0.4398","5"],
    [12995,"HCEP03730566","2024-02-10 14:00:00","10.669","3.36728","27.404","3.36","7.47","0.401","4.455","0.01","0.26","29.9512","4.72018","36.58","0","SATNPRO1509","31.472","0.44084","5"],
    [12996,"HCEP03730566","2024-02-10 14:15:00","10.6701","3.36749","27.512","3.274","7.47","0.415","4.695","0.01","0.27","29.9523","4.72032","35.65","0","SATNPRO1509","31.476","0.44088","5"],
    [12997,"HCEP03730566","2024-02-10 14:30:00","10.6706","3.36763","27.63","3.277","7.47","0.4","4.58","0.01","0.28","29.9533","4.72046","35.68","0","SATNPRO1509","31.57","0.4422","5"],
    [12998,"HCEP03730566","2024-02-10 14:45:00","10.6698","3.36754","27.747","3.49","7.47","0.415","4.156","0.02","0.18","29.953","4.72043","37.99","0","SATNPRO1509","31.432","0.44024","5"],
    [12999,"HCEP03730566","2024-02-10 15:00:00","10.6696","3.36757","27.838","3.531","7.47","0.413","4.635","0.05","1.23","29.9534","4.7205","38.44","0","SATNPRO1509","31.62","0.4429","5"],
    [13000,"HCEP03730566","2024-02-10 15:15:00","10.6707","3.3677","27.951","3.528","7.47","0.433","4.468","0.06","0.84","29.9537","4.72054","38.4","0","SATNPRO1509","31.616","0.44282","5"],
    [13001,"HCEP03730566","2024-02-10 15:30:00","10.6719","3.36797","27.967","3.503","7.47","0.396","3.995","0.01","0.2","29.9554","4.72075","38.14","0","SATNPRO1509","31.416","0.44006","5"],
    [13002,"HCEP03730566","2024-02-10 15:45:00","10.6719","3.36794","28.057","3.501","7.47","0.407","3.675","0.02","0.15","29.955","4.72071","38.11","0","SATNPRO1509","31.446","0.4405","5"],
    [13003,"HCEP03730566","2024-02-10 16:00:00","10.6728","3.36807","28.125","3.502","7.47","0.397","3.766","0.02","0.22","29.9557","4.72079","38.13","0","SATNPRO1509","31.514","0.44142","5"],
    [13004,"HCEP03730566","2024-02-10 16:15:00","10.6718","3.36795","28.173","3.502","7.47","0.413","3.915","0.03","0.22","29.9552","4.72074","38.13","0","SATNPRO1509","31.698","0.44396","5"],
    [13005,"HCEP03730566","2024-02-10 16:30:00","10.6715","3.36774","28.153","3.505","7.47","0.394","3.917","0.01","0.26","29.9534","4.7205","38.16","0","SATNPRO1509","31.544","0.4418","5"],
    [13006,"HCEP03730566","2024-02-10 16:45:00","10.6706","3.36752","28.153","3.506","7.47","0.41","4.017","0.01","0.41","29.952","4.72031","38.17","0","SATNPRO1509","31.536","0.44174","5"],
    [13007,"HCEP03730566","2024-02-10 17:00:00","10.6682","3.36706","28.118","3.501","7.47","0.408","4.165","0.02","0.22","29.9494","4.71997","38.11","0","SATNPRO1509","31.502","0.44126","5"],
    [13008,"HCEP03730566","2024-02-10 17:15:00","10.6681","3.36691","28.071","3.428","7.47","0.414","4.402","0.01","0.28","29.948","4.71977","37.32","0","SATNPRO1509","31.6","0.44264","5"],
    [13009,"HCEP03730566","2024-02-10 17:30:00","10.6669","3.36653","28.003","3.425","7.47","0.406","4.407","0.01","0.24","29.9452","4.7194","37.28","0","SATNPRO1509","31.674","0.44362","5"],
    [13010,"HCEP03730566","2024-02-10 17:45:00","10.6663","3.3661","27.888","3.392","7.47","0.412","4.592","0.02","0.41","29.9416","4.71888","36.93","0","SATNPRO1509","31.726","0.44438","5"],
    [13011,"HCEP03730566","2024-02-10 18:00:00","10.665","3.3657","27.753","3.45","7.46","0.397","4.229","0.02","0.2","29.9388","4.71849","37.55","0","SATNPRO1509","31.884","0.4466","5"],
    [13012,"HCEP03730566","2024-02-10 18:15:00","10.6618","3.36499","27.589","3.466","7.46","0.398","4.091","0.01","0.24","29.9344","4.71792","37.72","0","SATNPRO1509","31.974","0.44786","5"],
    [13013,"HCEP03730566","2024-02-10 18:30:00","10.659","3.36446","27.403","3.406","7.46","0.386","3.73","0.01","0.23","29.9316","4.71754","37.07","0","SATNPRO1509","32.24","0.45158","5"],
    [13014,"HCEP03730566","2024-02-10 18:45:00","10.6581","3.36439","27.213","3.5","7.47","0.406","3.692","0.02","0.19","29.9317","4.71757","38.09","0","SATNPRO1509","32.352","0.45318","5"],
    [13015,"HCEP03730566","2024-02-10 19:00:00","10.6558","3.36415","26.989","3.491","7.47","0.373","3.463","0.01","0.18","29.9313","4.71753","37.99","0","SATNPRO1509","32.372","0.45342","5"],
    [13016,"HCEP03730566","2024-02-10 19:15:00","10.6583","3.36453","26.762","3.41","7.47","0.394","3.589","0.02","0.33","29.9331","4.71774","37.11","0","SATNPRO1509","32.488","0.45502","5"],
    [13017,"HCEP03730566","2024-02-10 19:30:00","10.6641","3.36534","26.514","3.454","7.47","1.638","9.333","1.56","9.04","29.9365","4.71811","37.6","0","SATNPRO1509","32.366","0.45332","5"],
    [13018,"HCEP03730566","2024-02-10 19:45:00","10.6727","3.36664","26.293","3.355","7.46","0.408","4.086","0.02","0.36","29.9423","4.71879","36.52","0","SATNPRO1509","32.206","0.45112","5"],
    [13019,"HCEP03730566","2024-02-10 20:00:00","10.6686","3.36575","26.059","3.141","7.46","0.457","4.201","0.03","0.38","29.9369","4.71807","34.19","0","SATNPRO1509","32.49","0.45508","5"],
    [13020,"HCEP03730566","2024-02-10 20:15:00","10.6761","3.36704","25.795","3.244","7.45","8.505","88.536","2.19","21.86","29.9436","4.71889","35.32","0","SATNPRO1509","32.382","0.45356","5"],
    [13021,"HCEP03730566","2024-02-10 20:30:00","10.6832","3.36838","25.55","3.186","7.45","1.251","17.975","0.15","4.68","29.9511","4.71983","34.69","0","SATNPRO1509","32.24","0.45158","5"],
    [13022,"HCEP03730566","2024-02-10 20:45:00","10.6849","3.36857","25.323","3.147","7.45","0.428","3.881","0.03","0.27","29.9517","4.71988","34.28","0","SATNPRO1509","32.416","0.45404","5"],
    [13023,"HCEP03730566","2024-02-10 21:00:00","10.6859","3.36864","25.155","3.034","7.44","0.403","4.374","0.01","0.34","29.9516","4.71984","33.04","0","SATNPRO1509","32.318","0.45268","5"],
    [13024,"HCEP03730566","2024-02-10 21:15:00","10.6866","3.36864","25","3.088","7.44","0.422","4.413","0.01","0.21","29.9512","4.71976","33.62","0","SATNPRO1509","32.416000000000004","0.45406","5"],
    [13025,"HCEP03730566","2024-02-10 21:30:00","10.6863","3.36861","24.831","3.049","7.44","0.591","9.946","0.08","3.08","29.9512","4.71975","33.21","0","SATNPRO1509","32.492","0.4551","5"],
    [13026,"HCEP03730566","2024-02-10 21:45:00","10.6851","3.3683","24.61","3.071","7.44","2.692","50.714","1.19","19.4","29.9492","4.71948","33.45","0","SATNPRO1509","32.382","0.4536","5"],
    [13027,"HCEP03730566","2024-02-10 22:00:00","10.6841","3.36806","24.401","2.935","7.44","0.42","4.519","0.02","0.4","29.9477","4.71927","31.96","0","SATNPRO1509","32.378","0.45354","5"],
    [13028,"HCEP03730566","2024-02-10 22:15:00","10.6841","3.36795","24.189","3.056","7.44","0.428","4.775","0.01","0.35","29.9467","4.71911","33.28","0","SATNPRO1509","32.406","0.45392","5"],
    [13029,"HCEP03730566","2024-02-10 22:30:00","10.6836","3.36779","24.091","3.047","7.44","0.409","3.949","0.01","0.22","29.9456","4.71896","33.19","0","SATNPRO1509","32.35","0.4531","5"],
    [13030,"HCEP03730566","2024-02-10 22:45:00","10.6837","3.36775","24.003","3.036","7.43","0.428","4.179","0.02","0.22","29.9451","4.71888","33.06","0","SATNPRO1509","32.448","0.45448","5"],
    [13031,"HCEP03730566","2024-02-10 23:00:00","10.6829","3.36768","23.96","3.037","7.43","0.415","4.258","0.02","0.2","29.9452","4.7189","33.07","0","SATNPRO1509","32.338","0.45298","5"],
    [13032,"HCEP03730566","2024-02-10 23:15:00","10.6824","3.3676","23.976","3.041","7.43","0.42","3.994","0.01","0.18","29.9447","4.71885","33.12","0","SATNPRO1509","32.252","0.45178","5"],
    [13033,"HCEP03730566","2024-02-10 23:30:00","10.6824","3.36766","24.015","3.05","7.43","0.407","4.28","0.01","0.21","29.9453","4.71893","33.21","0","SATNPRO1509","32.282","0.4522","5"],
    [13034,"HCEP03730566","2024-02-10 23:45:00","10.6816","3.36753","24.023","3.069","7.43","0.417","4.199","0.01","0.11","29.9446","4.71885","33.42","0","SATNPRO1509","32.242","0.4516","5"],
    [13035,"HCEP03730566","2024-02-11 00:00:00","10.6812","3.36744","24.104","3.075","7.44","0.416","5.024","0.01","0.49","29.9441","4.71879","33.48","0","SATNPRO1509","32.288","0.45224","5"],
    [13036,"HCEP03730566","2024-02-11 00:15:00","10.6818","3.36751","24.26","3.071","7.44","0.418","4.777","0.01","0.31","29.9442","4.71881","33.44","0","SATNPRO1509","32.294","0.45232","5"],
    [13037,"HCEP03730566","2024-02-11 00:30:00","10.6821","3.36754","24.379","3.051","7.43","0.402","4.02","0.01","0.13","29.9442","4.71881","33.23","0","SATNPRO1509","32.403999999999996","0.45388","5"],
    [13038,"HCEP03730566","2024-02-11 00:45:00","10.683","3.36759","24.568","3.024","7.43","0.411","4.134","0.01","0.31","29.944","4.71877","32.93","0","SATNPRO1509","32.394","0.45374","5"],
    [13039,"HCEP03730566","2024-02-11 01:00:00","10.6831","3.36762","24.725","3.002","7.43","0.413","4.353","0.01","0.19","29.944","4.71878","32.69","0","SATNPRO1509","32.314","0.45258","5"],
    [13040,"HCEP03730566","2024-02-11 01:15:00","10.6832","3.36759","24.929","2.998","7.43","0.408","3.768","0.01","0.09","29.9437","4.71874","32.64","0","SATNPRO1509","32.449999999999996","0.4545","5"],
    [13041,"HCEP03730566","2024-02-11 01:30:00","10.6833","3.3676","25.11","3.005","7.43","0.411","4.228","0.01","2.41","29.9435","4.71873","32.72","0","SATNPRO1509","32.334","0.45288","5"],
    [13042,"HCEP03730566","2024-02-11 01:45:00","10.6843","3.36776","25.36","2.985","7.43","0.428","4.147","0.01","0.14","29.9442","4.71883","32.5","0","SATNPRO1509","32.288000000000004","0.45222","5"],
    [13043,"HCEP03730566","2024-02-11 02:00:00","10.6848","3.36786","25.552","2.974","7.43","0.482","5.778","0.05","1.58","29.9447","4.7189","32.39","0","SATNPRO1509","32.414","0.454","5"],
    [13044,"HCEP03730566","2024-02-11 02:15:00","10.6868","3.36823","25.745","2.951","7.43","0.496","5.257","0.03","1.46","29.9466","4.71915","32.13","0","SATNPRO1509","32.22","0.45128","5"],
    [13045,"HCEP03730566","2024-02-11 02:30:00","10.6861","3.36807","25.971","2.937","7.43","0.586","5.565","0.04","0.78","29.9455","4.71902","31.99","0","SATNPRO1509","32.238","0.45152","5"],
    [13046,"HCEP03730566","2024-02-11 02:45:00","10.6851","3.3679","26.252","2.932","7.43","0.824","6.478","0.05","0.27","29.9445","4.71891","31.92","0","SATNPRO1509","32.192","0.45088","5"],
    [13047,"HCEP03730566","2024-02-11 03:00:00","10.6845","3.36776","26.503","2.938","7.42","0.711","5.479","0.05","0.24","29.9436","4.7188","31.99","0","SATNPRO1509","32.128","0.45002","5"],
    [13048,"HCEP03730566","2024-02-11 03:15:00","10.6839","3.36769","26.754","2.948","7.42","0.449","4.119","0.04","0.35","29.9434","4.71879","32.1","0","SATNPRO1509","32.156","0.45038","5"],
    [13049,"HCEP03730566","2024-02-11 03:30:00","10.684","3.36766","27.012","2.951","7.42","0.487","8.084","0.04","3.73","29.9429","4.71873","32.13","0","SATNPRO1509","32.22","0.4513","5"],
    [13050,"HCEP03730566","2024-02-11 03:45:00","10.6841","3.36764","27.238","2.932","7.42","0.434","3.916","0.01","0.19","29.9424","4.71868","31.93","0","SATNPRO1509","32.222","0.45134","5"],
    [13051,"HCEP03730566","2024-02-11 04:00:00","10.6843","3.36761","27.455","2.901","7.42","0.476","5.291","0.04","0.66","29.9419","4.71862","31.59","0","SATNPRO1509","32.12","0.4499","5"],
    [13052,"HCEP03730566","2024-02-11 04:15:00","10.685","3.36769","27.677","2.883","7.42","0.446","4.832","0.02","0.51","29.942","4.71863","31.39","0","SATNPRO1509","32.120000000000005","0.44992","5"],
    [13053,"HCEP03730566","2024-02-11 04:30:00","10.6852","3.36774","27.873","2.823","7.42","0.432","4.322","0.01","0.32","29.9423","4.71869","30.75","0","SATNPRO1509","32.232","0.4515","5"],
    [13054,"HCEP03730566","2024-02-11 04:45:00","10.6854","3.36783","28.007","2.856","7.42","0.452","4.548","0.02","0.5","29.9429","4.71878","31.1","0","SATNPRO1509","32.144","0.45026","5"],
    [13055,"HCEP03730566","2024-02-11 05:00:00","10.6858","3.36786","28.174","2.864","7.42","0.464","4.763","0.02","0.33","29.9429","4.71878","31.19","0","SATNPRO1509","32.176","0.45072","5"],
    [13056,"HCEP03730566","2024-02-11 05:15:00","10.6856","3.36792","28.337","2.876","7.42","0.439","4.281","0.01","0.18","29.9435","4.71888","31.32","0","SATNPRO1509","32.144000000000005","0.45024","5"],
    [13057,"HCEP03730566","2024-02-11 05:30:00","10.6855","3.36798","28.388","2.896","7.42","0.446","4.451","0.03","0.42","29.9442","4.71897","31.53","0","SATNPRO1509","32.232","0.45146","5"],
    [13058,"HCEP03730566","2024-02-11 05:45:00","10.6852","3.36797","28.312","2.916","7.42","0.444","4.321","0.02","0.27","29.9444","4.719","31.76","0","SATNPRO1509","32.22","0.45128","5"],
    [13059,"HCEP03730566","2024-02-11 06:00:00","10.6841","3.36782","28.306","2.92","7.42","0.436","4.634","0.02","0.16","29.9438","4.71894","31.8","0","SATNPRO1509","32.192","0.4509","5"],
    [13060,"HCEP03730566","2024-02-11 06:15:00","10.6816","3.36733","28.318","2.838","7.42","0.494","5.209","0.05","0.35","29.941","4.71858","30.9","0","SATNPRO1509","32.186","0.45082","5"],
    [13061,"HCEP03730566","2024-02-11 06:30:00","10.6784","3.36685","28.258","2.992","7.43","0.545","6.585","0.05","0.79","29.939","4.71834","32.58","0","SATNPRO1509","32.136","0.4501","5"],
    [13062,"HCEP03730566","2024-02-11 06:45:00","10.6761","3.36651","28.288","2.954","7.43","0.461","6.394","0.06","4","29.9374","4.71816","32.16","0","SATNPRO1509","32.114","0.44982","5"],
    [13063,"HCEP03730566","2024-02-11 07:00:00","10.6716","3.36554","28.201","2.983","7.43","0.409","7.2","0.04","8.27","29.9316","4.7174","32.48","0","SATNPRO1509","32.108","0.44974","5"],
    [13064,"HCEP03730566","2024-02-11 07:15:00","10.6611","3.3633","28.197","3.126","7.44","3.11","322.389","2.32","117.1","29.9181","4.71564","34.02","0","SATNPRO1509","32.300000000000004","0.45242","5"],
    [13065,"HCEP03730566","2024-02-11 07:30:00","10.6481","3.36052","28.115","3.166","7.44","0.427","5.279","0.02","0.38","29.9014","4.71346","34.44","0","SATNPRO1509","32.18","0.45076","5"],
    [13066,"HCEP03730566","2024-02-11 07:45:00","10.6435","3.35988","28.03","3.306","7.45","0.417","5.175","0.01","0.14","29.8989","4.71318","35.96","0","SATNPRO1509","31.966","0.44774","5"],
    [13067,"HCEP03730566","2024-02-11 08:00:00","10.6372","3.35925","28.038","3.415","7.46","0.401","4.908","0.01","0.11","29.8978","4.71313","37.14","0","SATNPRO1509","31.986","0.448","5"],
    [13068,"HCEP03730566","2024-02-11 08:15:00","10.6279","3.35777","27.869","3.51","7.46","0.412","3.833","0.01","0.64","29.8909","4.71228","38.17","0","SATNPRO1509","31.99","0.44804","5"],
    [13069,"HCEP03730566","2024-02-11 08:30:00","10.6183","3.35621","27.759","3.593","7.47","0.402","4.373","0.02","0.24","29.8833","4.71134","39.06","0","SATNPRO1509","32.126","0.45","5"],
    [13070,"HCEP03730566","2024-02-11 08:45:00","10.6049","3.35321","27.632","3.645","7.47","0.416","4.112","0.02","0.13","29.8648","4.70891","39.61","0","SATNPRO1509","32.166","0.45054","5"],
    [13071,"HCEP03730566","2024-02-11 09:00:00","10.5983","3.35159","27.57","3.601","7.48","0.462","6.756","0.09","3.25","29.8542","4.70752","39.12","0","SATNPRO1509","32.084","0.44938","5"],
    [13072,"HCEP03730566","2024-02-11 09:15:00","10.5928","3.35019","27.433","3.676","7.48","0.428","4.526","0.01","0.57","29.845","4.70628","39.92","0","SATNPRO1509","32.138","0.45016","5"],
    [13073,"HCEP03730566","2024-02-11 09:30:00","10.5971","3.35131","27.287","3.705","7.48","0.416","5.203","0.01","0.69","29.8525","4.70727","40.25","0","SATNPRO1509","32.114","0.44984","5"],
    [13074,"HCEP03730566","2024-02-11 09:45:00","10.5966","3.35126","27.178","3.546","7.48","0.42","4.389","0.02","0.44","29.8525","4.70727","38.52","0","SATNPRO1509","32.118","0.4499","5"],
    [13075,"HCEP03730566","2024-02-11 10:00:00","10.6128","3.35512","27.069","3.546","7.48","0.416","4.963","0.02","0.51","29.8773","4.71054","38.54","0","SATNPRO1509","32.032000000000004","0.44866","5"],
    [13076,"HCEP03730566","2024-02-11 10:15:00","10.6217","3.357","26.903","3.373","7.48","0.419","4.71","0.01","0.2","29.8887","4.71201","36.66","0","SATNPRO1509","31.888","0.44664","5"],
    [13077,"HCEP03730566","2024-02-11 10:30:00","10.6234","3.35749","26.755","3.473","7.47","0.451","5.384","0.02","0.37","29.8922","4.71248","37.75","0","SATNPRO1509","31.978","0.4479","5"],
    [13078,"HCEP03730566","2024-02-11 10:45:00","10.6057","3.35212","26.61","3.574","7.48","0.451","3.782","0.02","0.59","29.8538","4.70728","38.83","0","SATNPRO1509","32.5","0.4552","5"],
    [13079,"HCEP03730566","2024-02-11 11:00:00","10.6039","3.35256","26.499","3.483","7.48","0.429","3.487","0.02","0.24","29.8596","4.70814","37.84","0","SATNPRO1509","32.302","0.45244","5"],
    [13080,"HCEP03730566","2024-02-11 11:15:00","10.6196","3.35665","26.371","3.393","7.48","0.434","3.973","0.02","0.43","29.8872","4.7118","36.88","0","SATNPRO1509","32.132","0.45008","5"],
    [13081,"HCEP03730566","2024-02-11 11:30:00","10.6278","3.35852","26.212","3.352","7.48","0.417","4.095","0.02","0.21","29.899","4.71334","36.45","0","SATNPRO1509","32.036","0.44872","5"],
    [13082,"HCEP03730566","2024-02-11 11:45:00","10.6313","3.35904","26.185","3.472","7.47","0.439","4.579","0.02","0.22","29.9012","4.7136","37.75","0","SATNPRO1509","32.002","0.44824","5"],
    [13083,"HCEP03730566","2024-02-11 12:00:00","10.6317","3.35925","26.168","3.534","7.47","0.419","4.059","0.02","0.15","29.903","4.71384","38.43","0","SATNPRO1509","31.93","0.44724","5"],
    [13084,"HCEP03730566","2024-02-11 12:15:00","10.629","3.35865","26.194","3.556","7.47","0.43","3.655","0.02","0.16","29.8994","4.71337","38.66","0","SATNPRO1509","32.074","0.44924","5"],
    [13085,"HCEP03730566","2024-02-11 12:30:00","10.6304","3.35898","26.136","3.553","7.47","0.427","3.988","0.02","0.15","29.9015","4.71364","38.63","0","SATNPRO1509","31.986","0.44802","5"],
    [13086,"HCEP03730566","2024-02-11 12:45:00","10.6313","3.35923","26.275","3.538","7.47","0.461","4.359","0.02","0.24","29.9031","4.71387","38.47","0","SATNPRO1509","31.918","0.44706","5"],
    [13087,"HCEP03730566","2024-02-11 13:00:00","10.6264","3.35817","26.331","3.544","7.47","0.422","4.343","0.02","0.28","29.8967","4.71304","38.53","0","SATNPRO1509","31.858","0.4462","5"],
    [13088,"HCEP03730566","2024-02-11 13:15:00","10.6213","3.3571","26.383","3.553","7.47","0.423","4.134","0.02","0.2","29.8902","4.71221","38.63","0","SATNPRO1509","31.834","0.4459","5"],
    [13089,"HCEP03730566","2024-02-11 13:30:00","10.6134","3.35549","26.547","3.593","7.47","0.419","3.603","0.05","0.17","29.8807","4.71099","39.05","0","SATNPRO1509","32.13","0.45002","5"],
    [13090,"HCEP03730566","2024-02-11 13:45:00","10.6081","3.35429","26.592","3.624","7.47","0.421","3.396","0.01","0.16","29.8733","4.71002","39.38","0","SATNPRO1509","32.126","0.44998","5"],
    [13091,"HCEP03730566","2024-02-11 14:00:00","10.6077","3.35415","26.786","3.629","7.48","0.419","3.718","0.02","0.16","29.8721","4.70987","39.43","0","SATNPRO1509","32.054","0.44896","5"],
    [13092,"HCEP03730566","2024-02-11 14:15:00","10.6078","3.35408","26.919","3.627","7.48","0.428","3.702","0.02","0.16","29.8712","4.70974","39.41","0","SATNPRO1509","32.046","0.44888","5"],
    [13093,"HCEP03730566","2024-02-11 14:30:00","10.6068","3.3539","26.991","3.636","7.48","0.408","3.467","0.01","0.2","29.8703","4.70964","39.51","0","SATNPRO1509","32.106","0.44968","5"],
    [13094,"HCEP03730566","2024-02-11 14:45:00","10.607","3.35392","27.14","3.64","7.48","0.416","3.011","0.01","0.1","29.8703","4.70963","39.55","0","SATNPRO1509","32.166","0.45054","5"],
    [13095,"HCEP03730566","2024-02-11 15:00:00","10.6114","3.35476","27.219","3.611","7.48","0.429","3.94","0.01","0.13","29.8749","4.71023","39.25","0","SATNPRO1509","32.178","0.4507","5"],
    [13096,"HCEP03730566","2024-02-11 15:15:00","10.6096","3.35442","27.33","3.615","7.48","0.425","2.926","0.01","0.29","29.873","4.70999","39.29","0","SATNPRO1509","32.284","0.45222","5"],
    [13097,"HCEP03730566","2024-02-11 15:30:00","10.6182","3.35604","27.409","3.594","7.48","0.407","3.65","0.02","0.1","29.8819","4.71113","39.06","0","SATNPRO1509","31.984","0.44796","5"],
    [13098,"HCEP03730566","2024-02-11 15:45:00","10.6201","3.3565","27.507","3.561","7.47","0.44","4.192","0.02","0.24","29.8849","4.71152","38.71","0","SATNPRO1509","32.022","0.4485","5"],
    [13099,"HCEP03730566","2024-02-11 16:00:00","10.6213","3.35657","27.635","3.541","7.47","0.438","4.274","0.02","0.21","29.8845","4.71146","38.49","0","SATNPRO1509","32.108","0.44972","5"],
    [13100,"HCEP03730566","2024-02-11 16:15:00","10.6212","3.35634","27.713","3.524","7.47","0.447","4.577","0.01","0.17","29.8823","4.71115","38.3","0","SATNPRO1509","31.978","0.4479","5"],
    [13101,"HCEP03730566","2024-02-11 16:30:00","10.6259","3.35725","27.813","3.499","7.47","0.455","4.708","0.01","0.15","29.8874","4.71181","38.04","0","SATNPRO1509","32.068","0.44916","5"],
    [13102,"HCEP03730566","2024-02-11 16:45:00","10.6277","3.35759","27.92","3.488","7.47","0.444","4.256","0.02","0.17","29.8893","4.71205","37.92","0","SATNPRO1509","32.14","0.45016","5"],
    [13103,"HCEP03730566","2024-02-11 17:00:00","10.6324","3.35811","28.033","3.407","7.46","0.46","5.064","0.03","0.48","29.8905","4.71216","37.04","0","SATNPRO1509","32.11","0.44974","5"],
    [13104,"HCEP03730566","2024-02-11 17:15:00","10.6343","3.35824","28.085","3.284","7.46","0.444","4.752","0.01","0.17","29.8902","4.7121","35.71","0","SATNPRO1509","32.102000000000004","0.44966","5"],
    [13105,"HCEP03730566","2024-02-11 17:30:00","10.6433","3.35988","27.99","3.04","7.46","0.447","5.53","0.01","0.17","29.8991","4.71321","33.07","0","SATNPRO1509","32.076","0.44928","5"],
    [13106,"HCEP03730566","2024-02-11 17:45:00","10.6513","3.36133","27.949","3.13","7.45","0.498","5.804","0.02","0.27","29.9068","4.71417","34.06","0","SATNPRO1509","32.064","0.44908","5"],
    [13107,"HCEP03730566","2024-02-11 18:00:00","10.649","3.36085","27.952","3.042","7.45","0.487","5.886","0.01","0.21","29.9039","4.7138","33.1","0","SATNPRO1509","31.994","0.44814","5"],
    [13108,"HCEP03730566","2024-02-11 18:15:00","10.6449","3.35995","27.938","2.974","7.44","0.456","5.306","0.02","0.3","29.8985","4.71309","32.35","0","SATNPRO1509","31.91","0.44694","5"],
    [13109,"HCEP03730566","2024-02-11 18:30:00","10.645","3.35988","27.788","3.16","7.44","0.424","5.128","0.01","0.24","29.8977","4.71297","34.38","0","SATNPRO1509","32.056","0.44898","5"],
    [13110,"HCEP03730566","2024-02-11 18:45:00","10.6492","3.36077","27.695","3.158","7.44","0.438","5.013","0.01","0.23","29.9031","4.71367","34.35","0","SATNPRO1509","32.178","0.4507","5"],
    [13111,"HCEP03730566","2024-02-11 19:00:00","10.6474","3.36026","27.576","3.152","7.43","0.426","4.832","0.02","0.27","29.8996","4.71319","34.29","0","SATNPRO1509","32.204","0.4511","5"],
    [13112,"HCEP03730566","2024-02-11 19:15:00","10.6575","3.36213","27.398","3.048","7.43","0.453","5.407","0.02","0.28","29.9099","4.71448","33.16","0","SATNPRO1509","32.154","0.45038","5"],
    [13113,"HCEP03730566","2024-02-11 19:30:00","10.6604","3.36264","27.157","2.98","7.43","0.45","5.891","0.02","0.26","29.9126","4.71482","32.43","0","SATNPRO1509","32.042","0.44884","5"],
    [13114,"HCEP03730566","2024-02-11 19:45:00","10.6573","3.36177","27.021","2.959","7.43","0.448","5.493","0.01","0.26","29.9066","4.714","32.2","0","SATNPRO1509","32.088","0.44946","5"],
    [13115,"HCEP03730566","2024-02-11 20:00:00","10.6571","3.36123","26.827","2.882","7.42","0.448","5.58","0.01","0.2","29.9016","4.71328","31.36","0","SATNPRO1509","31.986","0.448","5"],
    [13116,"HCEP03730566","2024-02-11 20:15:00","10.6544","3.3605","26.629","2.847","7.42","0.47","5.463","0.01","0.17","29.8966","4.71259","30.97","0","SATNPRO1509","31.874000000000002","0.44642","5"],
    [13117,"HCEP03730566","2024-02-11 20:30:00","10.6534","3.36017","26.515","2.819","7.42","0.475","5.258","0.02","0.22","29.8942","4.71226","30.67","0","SATNPRO1509","31.788","0.44526","5"],
    [13118,"HCEP03730566","2024-02-11 20:45:00","10.6529","3.3599","26.405","2.687","7.41","0.496","5.178","0.02","0.26","29.8921","4.71196","29.23","0","SATNPRO1509","31.786","0.44518","5"],
    [13119,"HCEP03730566","2024-02-11 21:00:00","10.6511","3.3594","26.231","2.664","7.41","0.523","6.629","0.04","1.02","29.8886","4.71149","28.98","0","SATNPRO1509","31.702","0.44402","5"],
    [13120,"HCEP03730566","2024-02-11 21:15:00","10.6499","3.35904","26.004","2.692","7.41","0.508","4.988","0.02","0.36","29.8861","4.71114","29.28","0","SATNPRO1509","31.602","0.44262","5"],
    [13121,"HCEP03730566","2024-02-11 21:30:00","10.6497","3.35881","25.811","2.685","7.41","0.493","4.388","0.02","0.3","29.8841","4.71085","29.21","0","SATNPRO1509","31.58","0.44238","5"],
    [13122,"HCEP03730566","2024-02-11 21:45:00","10.6483","3.35846","25.599","2.679","7.41","0.505","5.048","0.01","0.37","29.8819","4.71054","29.14","0","SATNPRO1509","31.594","0.44252","5"],
    [13123,"HCEP03730566","2024-02-11 22:00:00","10.6465","3.35791","25.328","2.666","7.4","0.529","5.546","0.04","0.69","29.8781","4.71002","28.99","0","SATNPRO1509","31.46","0.44068","5"],
    [13124,"HCEP03730566","2024-02-11 22:15:00","10.6452","3.35778","25.125","2.659","7.4","0.506","4.771","0.01","0.57","29.878","4.71001","28.91","0","SATNPRO1509","31.578","0.4423","5"],
    [13125,"HCEP03730566","2024-02-11 22:30:00","10.6452","3.35779","24.919","2.487","7.4","0.492","5.398","0.02","3.58","29.8781","4.71002","27.05","0","SATNPRO1509","31.642","0.44318","5"],
    [13126,"HCEP03730566","2024-02-11 22:45:00","10.6464","3.35816","24.743","2.676","7.4","0.516","4.98","0.03","0.46","29.8809","4.71038","29.11","0","SATNPRO1509","31.642","0.44322","5"],
    [13127,"HCEP03730566","2024-02-11 23:00:00","10.6466","3.35822","24.528","2.696","7.41","0.482","4.387","0.02","0.32","29.8814","4.71044","29.32","0","SATNPRO1509","31.488","0.44104","5"],
    [13128,"HCEP03730566","2024-02-11 23:15:00","10.6464","3.3582","24.409","2.701","7.41","0.497","4.23","0.02","0.25","29.8814","4.71044","29.38","0","SATNPRO1509","31.650000000000002","0.4433","5"],
    [13129,"HCEP03730566","2024-02-11 23:30:00","10.6463","3.35819","24.333","2.705","7.41","0.504","5.043","0.04","0.79","29.8814","4.71044","29.43","0","SATNPRO1509","31.63","0.44304","5"],
    [13130,"HCEP03730566","2024-02-11 23:45:00","10.6459","3.35815","24.253","2.721","7.41","0.513","3.966","0.05","0.34","29.8814","4.71044","29.59","0","SATNPRO1509","31.684","0.4438","5"],
    [13131,"HCEP03730566","2024-02-12 00:00:00","10.6459","3.35815","24.24","2.738","7.41","0.484","3.774","0.02","0.24","29.8814","4.71044","29.78","0","SATNPRO1509","31.642","0.4432","5"],
    [13132,"HCEP03730566","2024-02-12 00:15:00","10.6457","3.35819","24.35","2.734","7.41","0.5","4.235","0.01","0.21","29.8818","4.71051","29.73","0","SATNPRO1509","31.64","0.44318","5"],
    [13133,"HCEP03730566","2024-02-12 00:30:00","10.6453","3.35811","24.403","2.742","7.41","0.473","3.92","0.01","0.19","29.8814","4.71046","29.82","0","SATNPRO1509","31.722","0.44432","5"],
    [13134,"HCEP03730566","2024-02-12 00:45:00","10.6446","3.35808","24.495","2.772","7.41","0.488","3.796","0.02","0.13","29.8816","4.7105","30.14","0","SATNPRO1509","31.614","0.44278","5"],
    [13135,"HCEP03730566","2024-02-12 01:00:00","10.6443","3.35812","24.598","2.792","7.41","0.483","3.843","0.04","0.15","29.8822","4.71059","30.37","0","SATNPRO1509","31.756","0.44478","5"],
    [13136,"HCEP03730566","2024-02-12 01:15:00","10.6442","3.35814","24.757","2.81","7.41","0.482","4.181","0.04","0.27","29.8824","4.71064","30.56","0","SATNPRO1509","31.676","0.44364","5"],
    [13137,"HCEP03730566","2024-02-12 01:30:00","10.6432","3.35802","24.906","2.835","7.41","0.471","4.44","0.02","0.23","29.882","4.7106","30.84","0","SATNPRO1509","31.68","0.44376","5"],
    [13138,"HCEP03730566","2024-02-12 01:45:00","10.6439","3.35798","25.121","2.809","7.41","0.49","4.515","0.02","0.3","29.881","4.71046","30.55","0","SATNPRO1509","31.73","0.44442","5"],
    [13139,"HCEP03730566","2024-02-12 02:00:00","10.6446","3.35788","25.288","2.751","7.41","0.482","4.187","0.01","0.42","29.8794","4.71023","29.92","0","SATNPRO1509","31.6","0.4426","5"],
    [13140,"HCEP03730566","2024-02-12 02:15:00","10.6437","3.35776","25.498","2.726","7.41","0.5","3.959","0.02","0.39","29.8788","4.71018","29.64","0","SATNPRO1509","31.624","0.44292","5"],
    [13141,"HCEP03730566","2024-02-12 02:30:00","10.6435","3.35769","25.714","2.715","7.41","0.484","4.06","0.02","0.22","29.8782","4.7101","29.53","0","SATNPRO1509","31.477999999999998","0.44088","5"],
    [13142,"HCEP03730566","2024-02-12 02:45:00","10.6438","3.35778","25.95","2.711","7.41","0.49","4.07","0.01","0.26","29.8788","4.71019","29.48","0","SATNPRO1509","31.548","0.44188","5"],
    [13143,"HCEP03730566","2024-02-12 03:00:00","10.644","3.3578","26.181","2.709","7.41","0.487","4.29","0.02","0.26","29.8787","4.7102","29.47","0","SATNPRO1509","31.42","0.44012","5"],
    [13144,"HCEP03730566","2024-02-12 03:15:00","10.6436","3.35775","26.371","2.705","7.41","0.502","4.313","0.02","0.23","29.8785","4.71018","29.42","0","SATNPRO1509","31.458","0.4406","5"],
    [13145,"HCEP03730566","2024-02-12 03:30:00","10.6428","3.35749","26.552","2.709","7.41","0.487","4.596","0.02","0.23","29.8765","4.70992","29.46","0","SATNPRO1509","31.419999999999998","0.44008","5"],
    [13146,"HCEP03730566","2024-02-12 03:45:00","10.6241","3.35375","26.772","2.833","7.41","0.493","4.346","0.02","0.3","29.8548","4.70714","30.8","0","SATNPRO1509","31.546","0.44184","5"],
    [13147,"HCEP03730566","2024-02-12 04:00:00","10.6411","3.35731","27.007","2.784","7.41","0.479","4.107","0.02","0.21","29.876","4.7099","30.27","0","SATNPRO1509","31.448","0.4405","5"],
    [13148,"HCEP03730566","2024-02-12 04:15:00","10.643","3.35757","27.209","2.703","7.41","0.506","4.106","0.03","0.24","29.8768","4.71","29.39","0","SATNPRO1509","31.476","0.44086","5"],
    [13149,"HCEP03730566","2024-02-12 04:30:00","10.6423","3.35734","27.371","2.685","7.41","0.488","3.932","0.02","0.18","29.8751","4.70977","29.2","0","SATNPRO1509","31.444","0.44046","5"],
    [13150,"HCEP03730566","2024-02-12 04:45:00","10.6395","3.35691","27.557","2.716","7.41","0.483","3.552","0.01","0.15","29.873","4.70953","29.54","0","SATNPRO1509","31.606","0.4427","5"],
    [13151,"HCEP03730566","2024-02-12 05:00:00","10.6418","3.35717","27.781","2.697","7.41","0.476","4.046","0.02","0.19","29.8736","4.70959","29.33","0","SATNPRO1509","31.444","0.44038","5"],
    [13152,"HCEP03730566","2024-02-12 05:15:00","10.6429","3.35747","27.92","2.607","7.4","0.489","4.386","0.01","0.17","29.8757","4.70988","28.35","0","SATNPRO1509","31.426000000000002","0.44016","5"],
    [13153,"HCEP03730566","2024-02-12 05:30:00","10.6422","3.35744","28.05","2.552","7.4","0.473","4.63","0.02","0.21","29.8759","4.70993","27.76","0","SATNPRO1509","31.574","0.44226","5"],
    [13154,"HCEP03730566","2024-02-12 05:45:00","10.6078","3.35038","28.146","2.872","7.41","0.49","4.579","0.01","0.19","29.8342","4.70455","31.2","0","SATNPRO1509","31.634","0.44308","5"],
    [13155,"HCEP03730566","2024-02-12 06:00:00","10.5906","3.34675","28.273","3.071","7.42","0.478","4.903","0.02","0.17","29.8125","4.70173","33.34","0","SATNPRO1509","31.605999999999998","0.44268","5"],
    [13156,"HCEP03730566","2024-02-12 06:15:00","10.513","3.32915","28.361","3.405","7.44","0.52","4.649","0.02","0.21","29.7019","4.68723","36.89","0","SATNPRO1509","31.742","0.44462","5"],
    [13157,"HCEP03730566","2024-02-12 06:30:00","10.4979","3.32546","28.418","3.653","7.46","0.519","4.743","0.02","0.21","29.6776","4.68402","39.55","0","SATNPRO1509","31.608","0.44274","5"],
    [13158,"HCEP03730566","2024-02-12 06:45:00","10.4731","3.31928","28.412","3.766","7.47","0.534","5.112","0.02","0.15","29.6367","4.67858","40.75","0","SATNPRO1509","31.644","0.4432","5"],
    [13159,"HCEP03730566","2024-02-12 07:00:00","10.453","3.31417","28.38","3.876","7.48","0.525","5.066","0.02","0.24","29.6025","4.67403","41.9","0","SATNPRO1509","31.666","0.44352","5"],
    [13160,"HCEP03730566","2024-02-12 07:15:00","10.4243","3.30706","28.338","3.975","7.49","0.553","4.049","0.02","0.18","29.5554","4.66778","42.94","0","SATNPRO1509","31.974","0.44784","5"],
    [13161,"HCEP03730566","2024-02-12 07:30:00","10.4185","3.30506","28.303","4.032","7.49","0.549","4.95","0.02","0.18","29.5404","4.66573","43.54","0","SATNPRO1509","31.864","0.44632","5"],
    [13162,"HCEP03730566","2024-02-12 07:45:00","10.417","3.30511","28.237","4.054","7.5","0.56","5.001","0.02","0.19","29.5422","4.666","43.78","0","SATNPRO1509","31.922","0.44714","5"],
    [13163,"HCEP03730566","2024-02-12 08:00:00","10.4046","3.30333","28.163","3.862","7.5","0.551","4.909","0.02","0.26","29.5346","4.66512","41.69","0","SATNPRO1509","32.162","0.45052","5"],
    [13164,"HCEP03730566","2024-02-12 08:15:00","10.4048","3.30335","28.055","3.967","7.5","0.59","4.762","0.02","0.4","29.5346","4.66511","42.83","0","SATNPRO1509","32.28","0.45216","5"],
    [13165,"HCEP03730566","2024-02-12 08:30:00","10.4113","3.30495","27.97","3.878","7.5","0.563","3.967","0.02","0.1","29.5453","4.66652","41.87","0","SATNPRO1509","32.376","0.4535","5"],
    [13166,"HCEP03730566","2024-02-12 08:45:00","10.4198","3.30681","27.852","3.787","7.5","0.579","4.23","0.02","0.26","29.5568","4.66803","40.9","0","SATNPRO1509","32.382","0.45358","5"],
    [13167,"HCEP03730566","2024-02-12 09:00:00","10.4388","3.31152","27.733","3.768","7.5","0.553","4.283","0.02","0.21","29.5881","4.67217","40.72","0","SATNPRO1509","32.308","0.45254","5"],
    [13168,"HCEP03730566","2024-02-12 09:15:00","10.4162","3.30756","27.603","3.717","7.5","0.556","3.804","0.02","0.16","29.5673","4.66956","40.15","0","SATNPRO1509","32.382","0.45358","5"],
    [13169,"HCEP03730566","2024-02-12 09:30:00","10.4281","3.31034","27.488","3.763","7.5","0.528","2.996","0.02","0.19","29.5852","4.67191","40.65","0","SATNPRO1509","32.364","0.45334","5"],
    [13170,"HCEP03730566","2024-02-12 09:45:00","10.4292","3.31098","27.334","3.974","7.5","0.536","3.028","0.01","0.18","29.5907","4.67267","42.94","0","SATNPRO1509","32.486","0.45498","5"],
    [13171,"HCEP03730566","2024-02-12 10:00:00","10.4286","3.31165","27.174","3.721","7.5","0.535","2.937","0.02","0.16","29.5979","4.6737","40.21","0","SATNPRO1509","32.488","0.45506","5"],
    [13172,"HCEP03730566","2024-02-12 10:15:00","10.4175","3.30923","27.021","4.011","7.5","0.568","3.54","0.1","2.16","29.583","4.67174","43.32","0","SATNPRO1509","32.382","0.45356","5"],
    [13173,"HCEP03730566","2024-02-12 10:30:00","10.4082","3.30743","26.896","4.077","7.5","0.566","3.687","0.04","1.42","29.5727","4.67042","44.03","0","SATNPRO1509","32.392","0.45372","5"],
    [13174,"HCEP03730566","2024-02-12 10:45:00","10.4021","3.30642","26.702","4.114","7.5","0.672","4.303","0.07","1.18","29.5678","4.66981","44.42","0","SATNPRO1509","32.492000000000004","0.45508","5"],
    [13175,"HCEP03730566","2024-02-12 11:00:00","10.3971","3.30535","26.557","4.153","7.51","0.542","2.946","0.04","0.11","29.5613","4.66896","44.84","0","SATNPRO1509","32.452","0.45456","5"],
    [13176,"HCEP03730566","2024-02-12 11:15:00","10.3897","3.30392","26.36","4.185","7.51","0.559","3.102","0.03","0.1","29.5532","4.66791","45.16","0","SATNPRO1509","32.424","0.45416","5"],
    [13177,"HCEP03730566","2024-02-12 11:30:00","10.3881","3.30449","26.211","4.236","7.51","0.525","2.568","0.02","0.09","29.5603","4.66894","45.72","0","SATNPRO1509","32.388","0.45368","5"],
    [13178,"HCEP03730566","2024-02-12 11:45:00","10.3944","3.30721","26.048","4.213","7.51","0.53","2.076","0.02","0.1","29.5821","4.67194","45.49","0","SATNPRO1509","32.54","0.45574","5"],
    [13179,"HCEP03730566","2024-02-12 12:00:00","10.3936","3.3075","25.893","4.194","7.51","0.517","2.237","0.02","0.11","29.5856","4.67244","45.28","0","SATNPRO1509","32.542","0.45578","5"],
    [13180,"HCEP03730566","2024-02-12 12:15:00","10.3962","3.30857","25.82","4.196","7.51","0.541","2.283","0.03","0.1","29.5943","4.67363","45.31","0","SATNPRO1509","32.418","0.45404","5"],
    [13181,"HCEP03730566","2024-02-12 12:30:00","10.3984","3.30958","25.737","4.229","7.51","0.532","3.032","0.03","0.16","29.6025","4.67476","45.66","0","SATNPRO1509","32.312","0.45254","5"],
    [13182,"HCEP03730566","2024-02-12 12:45:00","10.4128","3.31278","25.722","4.177","7.51","0.537","3.697","0.02","0.23","29.6224","4.67737","45.13","0","SATNPRO1509","32.29","0.45228","5"],
    [13183,"HCEP03730566","2024-02-12 13:00:00","10.4167","3.31438","25.71","4.145","7.51","0.517","2.96","0.02","0.32","29.6352","4.67912","44.79","0","SATNPRO1509","32.354","0.4532","5"],
    [13184,"HCEP03730566","2024-02-12 13:15:00","10.4197","3.31528","25.747","4.113","7.51","0.527","2.592","0.03","0.18","29.6416","4.67999","44.45","0","SATNPRO1509","32.42","0.45404","5"],
    [13185,"HCEP03730566","2024-02-12 13:30:00","10.4221","3.31597","25.796","4.104","7.51","0.594","3.992","0.11","2.49","29.6464","4.68065","44.36","0","SATNPRO1509","32.422","0.45412","5"],
    [13186,"HCEP03730566","2024-02-12 13:45:00","10.4201","3.31602","25.855","4.101","7.5","0.517","2.276","0.02","0.22","29.6485","4.68098","44.32","0","SATNPRO1509","32.47","0.45476","5"],
    [13187,"HCEP03730566","2024-02-12 14:00:00","10.4231","3.31668","25.972","4.096","7.5","0.493","2.615","0.02","0.13","29.6526","4.68152","44.27","0","SATNPRO1509","32.338","0.45294","5"],
    [13188,"HCEP03730566","2024-02-12 14:15:00","10.4224","3.31647","26.134","4.089","7.5","0.512","2.604","0.02","0.24","29.651","4.68131","44.19","0","SATNPRO1509","32.444","0.45438","5"],
    [13189,"HCEP03730566","2024-02-12 14:30:00","10.4201","3.316","26.215","4.088","7.5","0.504","2.419","0.02","0.12","29.6482","4.68096","44.18","0","SATNPRO1509","32.26","0.45182","5"],
    [13190,"HCEP03730566","2024-02-12 14:45:00","10.4179","3.31559","26.332","4.102","7.5","0.526","2.63","0.03","0.84","29.6458","4.68066","44.33","0","SATNPRO1509","32.458","0.45462","5"],
    [13191,"HCEP03730566","2024-02-12 15:00:00","10.4153","3.31485","26.44","4.108","7.5","0.518","2.415","0.03","0.3","29.6406","4.67997","44.39","0","SATNPRO1509","32.461999999999996","0.45472","5"],
    [13192,"HCEP03730566","2024-02-12 15:15:00","10.4224","3.31613","26.569","4.089","7.5","0.571","4.348","0.04","0.48","29.6475","4.68083","44.19","0","SATNPRO1509","32.35","0.45312","5"],
    [13193,"HCEP03730566","2024-02-12 15:30:00","10.4429","3.31959","26.68","4.009","7.5","0.537","4.01","0.03","0.21","29.665","4.683","43.35","0","SATNPRO1509","32.364","0.45332","5"],
    [13194,"HCEP03730566","2024-02-12 15:45:00","10.4561","3.32221","26.802","3.92","7.5","0.528","3.762","0.03","0.23","29.6802","4.68496","42.41","0","SATNPRO1509","32.274","0.45204","5"],
    [13195,"HCEP03730566","2024-02-12 16:00:00","10.4561","3.3228","26.924","3.894","7.49","0.505","3.33","0.02","0.13","29.6859","4.68579","42.13","0","SATNPRO1509","32.318","0.45268","5"],
    [13196,"HCEP03730566","2024-02-12 16:15:00","10.4532","3.32281","27.044","3.877","7.49","0.517","3","0.02","0.16","29.6884","4.6862","41.94","0","SATNPRO1509","32.34","0.45298","5"],
    [13197,"HCEP03730566","2024-02-12 16:30:00","10.4546","3.32401","27.171","3.927","7.49","0.493","3.127","0.02","0.2","29.6991","4.68771","42.48","0","SATNPRO1509","32.328","0.45282","5"],
    [13198,"HCEP03730566","2024-02-12 16:45:00","10.4659","3.32616","27.32","3.916","7.49","2.481","20.475","0.95","5.6","29.711","4.68923","42.38","0","SATNPRO1509","32.472","0.45484","5"],
    [13199,"HCEP03730566","2024-02-12 17:00:00","10.4757","3.32773","27.404","3.84","7.49","2.435","36.416","3.13","40.83","29.7185","4.69015","41.57","0","SATNPRO1509","32.370000000000005","0.45338","5"],
    [13200,"HCEP03730566","2024-02-12 17:15:00","10.4798","3.32825","27.5","3.801","7.49","0.508","4.114","0.03","2.55","29.7204","4.69035","41.14","0","SATNPRO1509","32.278","0.4521","5"],
    [13201,"HCEP03730566","2024-02-12 17:30:00","10.4864","3.32912","27.636","3.75","7.48","0.522","4.666","0.06","0.67","29.7236","4.69071","40.6","0","SATNPRO1509","32.126","0.44998","5"],
    [13202,"HCEP03730566","2024-02-12 17:45:00","10.4951","3.33058","27.714","3.687","7.48","0.517","4.332","0.03","0.33","29.7308","4.6916","39.93","0","SATNPRO1509","32.306","0.4525","5"],
    [13203,"HCEP03730566","2024-02-12 18:00:00","10.513","3.33348","27.776","3.591","7.48","0.498","3.978","0.03","0.39","29.7449","4.69332","38.91","0","SATNPRO1509","32.123999999999995","0.44994","5"],
    [13204,"HCEP03730566","2024-02-12 18:15:00","10.5223","3.33493","27.827","3.496","7.47","0.527","4.108","0.02","0.29","29.7516","4.69413","37.89","0","SATNPRO1509","32.044","0.44882","5"],
    [13205,"HCEP03730566","2024-02-12 18:30:00","10.5225","3.33474","27.814","3.459","7.47","0.5","3.752","0.03","0.18","29.7496","4.69385","37.49","0","SATNPRO1509","32.06","0.4491","5"],
    [13206,"HCEP03730566","2024-02-12 18:45:00","10.5253","3.33488","27.796","3.437","7.46","0.514","4.138","0.02","0.45","29.7487","4.69367","37.25","0","SATNPRO1509","32.106","0.44966","5"],
    [13207,"HCEP03730566","2024-02-12 19:00:00","10.5249","3.33452","27.768","3.419","7.46","0.504","4.367","0.02","0.5","29.7455","4.69322","37.05","0","SATNPRO1509","32.06","0.44908","5"],
    [13208,"HCEP03730566","2024-02-12 19:15:00","10.5165","3.33255","27.716","3.445","7.46","0.541","5.041","0.03","1.16","29.7328","4.69155","37.33","0","SATNPRO1509","32.146","0.45028","5"],
    [13209,"HCEP03730566","2024-02-12 19:30:00","10.5063","3.33011","27.644","3.501","7.46","0.513","4.046","0.02","0.45","29.7171","4.68946","37.92","0","SATNPRO1509","32.16","0.45044","5"],
    [13210,"HCEP03730566","2024-02-12 19:45:00","10.5","3.32858","27.529","3.543","7.46","0.528","3.789","0.02","0.47","29.7072","4.68815","38.37","0","SATNPRO1509","32.21","0.45118","5"],
    [13211,"HCEP03730566","2024-02-12 20:00:00","10.5025","3.32872","27.364","3.546","7.47","0.515","4.053","0.02","0.31","29.7066","4.68802","38.4","0","SATNPRO1509","32.16","0.45044","5"],
    [13212,"HCEP03730566","2024-02-12 20:15:00","10.5141","3.33111","27.24","3.486","7.46","0.545","4.236","0.02","0.33","29.7208","4.68984","37.76","0","SATNPRO1509","32.025999999999996","0.44858","5"],
    [13213,"HCEP03730566","2024-02-12 20:30:00","10.5286","3.33358","27.079","3.378","7.46","0.506","4.646","0.04","0.29","29.7335","4.69141","36.61","0","SATNPRO1509","31.866","0.44634","5"],
    [13214,"HCEP03730566","2024-02-12 20:45:00","10.5341","3.3342","27","3.292","7.45","0.525","5.221","0.03","0.44","29.7351","4.69155","35.69","0","SATNPRO1509","31.8","0.4454","5"],
    [13215,"HCEP03730566","2024-02-12 21:00:00","10.5283","3.33314","26.827","3.208","7.45","0.509","4.468","0.02","0.26","29.7294","4.69083","34.77","0","SATNPRO1509","31.902","0.44686","5"],
    [13216,"HCEP03730566","2024-02-12 21:15:00","10.523","3.33241","26.626","3.217","7.45","0.548","3.829","0.05","0.15","29.7266","4.6905","34.86","0","SATNPRO1509","31.898","0.4468","5"],
    [13217,"HCEP03730566","2024-02-12 21:30:00","10.5242","3.33253","26.492","3.318","7.45","0.49","3.794","0.02","0.3","29.7268","4.6905","35.96","0","SATNPRO1509","31.778","0.4451","5"],
    [13218,"HCEP03730566","2024-02-12 21:45:00","10.531","3.33368","26.309","3.294","7.45","0.542","3.904","0.04","0.24","29.7327","4.69122","35.71","0","SATNPRO1509","31.666","0.4435","5"],
    [13219,"HCEP03730566","2024-02-12 22:00:00","10.5376","3.33464","26.13","3.24","7.44","0.525","4.348","0.03","0.27","29.737","4.69171","35.12","0","SATNPRO1509","31.784","0.44516","5"],
    [13220,"HCEP03730566","2024-02-12 22:15:00","10.542","3.33521","25.966","3.18","7.44","0.533","4.137","0.03","0.26","29.7391","4.69193","34.48","0","SATNPRO1509","31.605999999999998","0.4427","5"],
    [13221,"HCEP03730566","2024-02-12 22:30:00","10.5436","3.33555","25.776","3.138","7.44","0.529","4.594","0.04","0.37","29.7412","4.6922","34.03","0","SATNPRO1509","31.488","0.44106","5"],
    [13222,"HCEP03730566","2024-02-12 22:45:00","10.5457","3.33595","25.623","3.112","7.43","0.518","4.343","0.02","0.36","29.7435","4.69248","33.74","0","SATNPRO1509","31.434","0.44032","5"],
    [13223,"HCEP03730566","2024-02-12 23:00:00","10.5474","3.33627","25.447","3.095","7.43","0.51","4.47","0.02","0.39","29.7453","4.6927","33.56","0","SATNPRO1509","31.61","0.44272","5"],
    [13224,"HCEP03730566","2024-02-12 23:15:00","10.5485","3.33651","25.273","3.074","7.43","0.525","4.089","0.02","0.25","29.7469","4.6929","33.34","0","SATNPRO1509","31.512","0.4414","5"],
    [13225,"HCEP03730566","2024-02-12 23:30:00","10.5492","3.33661","25.098","3.062","7.43","0.524","4.476","0.02","0.33","29.7474","4.69295","33.21","0","SATNPRO1509","31.419999999999998","0.44008","5"],
    [13226,"HCEP03730566","2024-02-12 23:45:00","10.5488","3.33663","24.943","3.058","7.43","0.542","4.292","0.05","0.36","29.748","4.69303","33.16","0","SATNPRO1509","31.444","0.44046","5"],
    [13227,"HCEP03730566","2024-02-13 00:00:00","10.55","3.3369","24.822","3.049","7.43","0.553","4.111","0.08","0.18","29.7497","4.69325","33.07","0","SATNPRO1509","31.572","0.44218","5"],
    [13228,"HCEP03730566","2024-02-13 00:15:00","10.5507","3.33707","24.762","3.042","7.43","0.535","4.417","0.02","0.37","29.7508","4.69339","32.99","0","SATNPRO1509","31.61","0.4427","5"],
    [13229,"HCEP03730566","2024-02-13 00:30:00","10.5494","3.3369","24.739","3.048","7.43","0.525","4.322","0.04","0.35","29.7502","4.69332","33.05","0","SATNPRO1509","31.63","0.44306","5"],
    [13230,"HCEP03730566","2024-02-13 00:45:00","10.5483","3.33679","24.75","3.068","7.43","0.535","4.212","0.04","0.49","29.75","4.69332","33.27","0","SATNPRO1509","31.75","0.44472","5"],
    [13231,"HCEP03730566","2024-02-13 01:00:00","10.5414","3.33579","24.784","3.12","7.43","0.521","4.051","0.04","0.6","29.7458","4.69283","33.83","0","SATNPRO1509","31.814","0.44562","5"],
    [13232,"HCEP03730566","2024-02-13 01:15:00","10.5337","3.33455","24.808","3.197","7.43","0.523","3.949","0.02","0.3","29.7397","4.69209","34.65","0","SATNPRO1509","31.98","0.44792","5"],
    [13233,"HCEP03730566","2024-02-13 01:30:00","10.5215","3.33225","24.871","3.293","7.44","0.515","3.701","0.04","0.22","29.7269","4.69047","35.68","0","SATNPRO1509","32.1","0.44962","5"],
    [13234,"HCEP03730566","2024-02-13 01:45:00","10.5117","3.33023","24.971","3.361","7.44","0.53","4.479","0.02","0.43","29.715","4.68892","36.41","0","SATNPRO1509","31.902","0.4468","5"],
    [13235,"HCEP03730566","2024-02-13 02:00:00","10.5014","3.32785","25.074","3.41","7.45","0.523","4.765","0.02","0.3","29.6997","4.68692","36.93","0","SATNPRO1509","31.892","0.4467","5"],
    [13236,"HCEP03730566","2024-02-13 02:15:00","10.4646","3.32023","25.211","3.543","7.45","0.551","4.753","0.04","0.26","29.6543","4.68105","38.33","0","SATNPRO1509","31.754","0.44478","5"],
    [13237,"HCEP03730566","2024-02-13 02:30:00","10.4284","3.31296","25.391","3.752","7.46","0.549","5.095","0.03","0.34","29.6117","4.67557","40.55","0","SATNPRO1509","31.744","0.44464","5"],
    [13238,"HCEP03730566","2024-02-13 02:45:00","10.4066","3.30849","25.552","3.894","7.47","0.579","5.076","0.02","0.39","29.5851","4.67214","42.05","0","SATNPRO1509","31.788","0.44522","5"],
    [13239,"HCEP03730566","2024-02-13 03:00:00","10.3657","3.3009","25.783","4.099","7.49","0.567","4.817","0.03","0.44","29.543","4.66681","44.22","0","SATNPRO1509","31.828","0.44582","5"],
    [13240,"HCEP03730566","2024-02-13 03:15:00","10.3608","3.30025","26.015","3.971","7.5","0.567","4.492","0.03","0.34","29.5404","4.66653","42.83","0","SATNPRO1509","31.842000000000002","0.446","5"],
    [13241,"HCEP03730566","2024-02-13 03:30:00","10.3487","3.29884","26.207","4.268","7.51","0.552","4.338","0.02","0.32","29.5362","4.66614","46.02","0","SATNPRO1509","31.884","0.44656","5"],
    [13242,"HCEP03730566","2024-02-13 03:45:00","10.3479","3.29951","26.467","4.285","7.51","0.548","4.679","0.04","0.29","29.5435","4.6672","46.21","0","SATNPRO1509","31.938","0.44734","5"],
    [13243,"HCEP03730566","2024-02-13 04:00:00","10.3555","3.3005","26.644","4.272","7.51","0.551","4.283","0.03","0.3","29.5471","4.6676","46.07","0","SATNPRO1509","31.786","0.44524","5"],
    [13244,"HCEP03730566","2024-02-13 04:15:00","10.3683","3.30276","26.862","4.21","7.51","0.569","4.669","0.04","0.45","29.5589","4.66909","45.42","0","SATNPRO1509","31.89","0.44668","5"],
    [13245,"HCEP03730566","2024-02-13 04:30:00","10.3786","3.30426","27.064","4.145","7.51","0.544","4.864","0.02","0.3","29.5653","4.66985","44.73","0","SATNPRO1509","31.724","0.44434","5"],
    [13246,"HCEP03730566","2024-02-13 04:45:00","10.3877","3.30578","27.288","4.083","7.5","0.554","4.651","0.03","0.45","29.5729","4.6708","44.07","0","SATNPRO1509","31.732","0.44448","5"],
    [13247,"HCEP03730566","2024-02-13 05:00:00","10.3674","3.30199","27.471","4.109","7.5","0.54","4.09","0.02","0.25","29.5517","4.66812","44.33","0","SATNPRO1509","31.7","0.44402","5"],
    [13248,"HCEP03730566","2024-02-13 05:15:00","10.3972","3.30754","27.674","4.099","7.5","0.543","3.99","0.03","0.23","29.5824","4.67203","44.25","0","SATNPRO1509","31.736","0.44452","5"],
    [13249,"HCEP03730566","2024-02-13 05:30:00","10.4123","3.30988","27.851","3.985","7.5","0.554","4.324","0.03","0.51","29.5933","4.67334","43.04","0","SATNPRO1509","31.832","0.44588","5"],
    [13250,"HCEP03730566","2024-02-13 05:45:00","10.4242","3.31224","28.031","3.871","7.49","0.551","4.175","0.04","0.29","29.6069","4.6751","41.83","0","SATNPRO1509","31.754","0.44482","5"],
    [13251,"HCEP03730566","2024-02-13 06:00:00","10.5107","3.33028","28.226","3.504","7.48","0.524","5.04","0.03","0.37","29.715","4.68913","37.95","0","SATNPRO1509","31.468","0.4408","5"],
    [13252,"HCEP03730566","2024-02-13 06:15:00","10.5179","3.33155","28.351","3.281","7.46","0.548","4.971","0.05","0.25","29.7216","4.68996","35.55","0","SATNPRO1509","31.518","0.44146","5"],
    [13253,"HCEP03730566","2024-02-13 06:30:00","10.5262","3.33298","28.43","3.209","7.45","0.517","5.644","0.02","0.51","29.729","4.69088","34.77","0","SATNPRO1509","31.538","0.44172","5"],
    [13254,"HCEP03730566","2024-02-13 06:45:00","10.5297","3.33355","28.506","3.161","7.44","0.537","4.826","0.04","0.52","29.7317","4.69122","34.26","0","SATNPRO1509","31.57","0.44218","5"],
    [13255,"HCEP03730566","2024-02-13 07:00:00","10.5213","3.33174","28.549","3.184","7.44","0.527","4.554","0.04","0.36","29.7206","4.68977","34.5","0","SATNPRO1509","31.528000000000002","0.4416","5"],
    [13256,"HCEP03730566","2024-02-13 07:15:00","10.4959","3.32548","28.528","3.302","7.44","0.577","4.328","0.08","0.42","29.6795","4.68432","35.75","0","SATNPRO1509","31.706","0.44408","5"],
    [13257,"HCEP03730566","2024-02-13 07:30:00","10.4912","3.32524","28.494","3.387","7.45","0.517","4.532","0.02","0.33","29.681","4.68461","36.67","0","SATNPRO1509","31.477999999999998","0.44092","5"],
    [13258,"HCEP03730566","2024-02-13 07:45:00","10.4661","3.31982","28.434","3.463","7.45","0.538","4.208","0.03","0.33","29.6478","4.68028","37.46","0","SATNPRO1509","31.44","0.44036","5"],
    [13259,"HCEP03730566","2024-02-13 08:00:00","10.496","3.32608","28.336","3.4","7.45","0.575","5.451","0.11","1.82","29.6853","4.68515","36.81","0","SATNPRO1509","31.53","0.44164","5"],
    [13260,"HCEP03730566","2024-02-13 08:15:00","10.4751","3.3212","28.26","3.426","7.45","0.564","4.951","0.06","0.91","29.6541","4.68103","37.07","0","SATNPRO1509","31.64","0.44314","5"],
    [13261,"HCEP03730566","2024-02-13 08:30:00","10.4883","3.32419","28.175","3.433","7.45","0.531","4.327","0.04","0.24","29.673","4.6835","37.16","0","SATNPRO1509","31.756","0.44482","5"],
    [13262,"HCEP03730566","2024-02-13 08:45:00","10.4955","3.32532","28.095","3.39","7.45","0.538","4.824","0.02","0.26","29.6784","4.68415","36.7","0","SATNPRO1509","31.694","0.44392","5"],
    [13263,"HCEP03730566","2024-02-13 09:00:00","10.5104","3.32722","27.999","3.272","7.45","0.547","4.943","0.02","0.45","29.685","4.68486","35.44","0","SATNPRO1509","31.518","0.44146","5"],
    [13264,"HCEP03730566","2024-02-13 09:15:00","10.5206","3.32864","27.875","3.122","7.44","0.569","5.138","0.03","0.51","29.6908","4.68551","33.83","0","SATNPRO1509","31.494","0.44112","5"],
    [13265,"HCEP03730566","2024-02-13 09:30:00","10.5255","3.32909","27.741","3.015","7.43","0.563","4.773","0.03","0.45","29.6914","4.6855","32.67","0","SATNPRO1509","31.368","0.43934","5"],
    [13266,"HCEP03730566","2024-02-13 09:45:00","10.5255","3.32903","27.601","2.974","7.43","0.572","4.283","0.04","0.17","29.6908","4.68542","32.22","0","SATNPRO1509","31.126","0.43598","5"],
    [13267,"HCEP03730566","2024-02-13 10:00:00","10.5239","3.32872","27.518","2.977","7.42","0.572","4.372","0.05","0.26","29.689","4.68518","32.25","0","SATNPRO1509","31.483999999999998","0.441","5"],
    [13268,"HCEP03730566","2024-02-13 10:15:00","10.525","3.32897","27.388","2.977","7.42","0.561","4.572","0.03","0.34","29.6907","4.68539","32.25","0","SATNPRO1509","31.37","0.4394","5"],
    [13269,"HCEP03730566","2024-02-13 10:30:00","10.526","3.32919","27.211","2.971","7.42","0.688","6.563","0.19","1.74","29.6921","4.68556","32.19","0","SATNPRO1509","31.394000000000002","0.43974","5"],
    [13270,"HCEP03730566","2024-02-13 10:45:00","10.5266","3.32928","27.074","2.962","7.42","0.585","4.326","0.04","0.3","29.6926","4.68562","32.1","0","SATNPRO1509","31.284","0.43818","5"],
    [13271,"HCEP03730566","2024-02-13 11:00:00","10.5268","3.32937","26.869","2.96","7.42","0.567","4.301","0.05","0.21","29.6934","4.68572","32.07","0","SATNPRO1509","31.338","0.43896","5"],
    [13272,"HCEP03730566","2024-02-13 11:15:00","10.5275","3.32954","26.663","2.949","7.42","0.567","4.566","0.03","0.25","29.6946","4.68587","31.96","0","SATNPRO1509","31.274","0.43802","5"],
    [13273,"HCEP03730566","2024-02-13 11:30:00","10.5267","3.3294","26.476","2.956","7.42","0.558","4.327","0.03","0.33","29.6939","4.68577","32.03","0","SATNPRO1509","31.336","0.43892","5"],
    [13274,"HCEP03730566","2024-02-13 11:45:00","10.5263","3.32923","26.283","2.965","7.42","0.574","4.266","0.04","0.23","29.6926","4.68558","32.12","0","SATNPRO1509","31.462","0.44068","5"],
    [13275,"HCEP03730566","2024-02-13 12:00:00","10.5263","3.32932","26.087","2.966","7.42","0.559","4.212","0.02","0.17","29.6936","4.68571","32.13","0","SATNPRO1509","31.422","0.44014","5"],
    [13276,"HCEP03730566","2024-02-13 12:15:00","10.5272","3.32964","25.904","2.961","7.42","0.56","3.892","0.03","0.15","29.6961","4.68605","32.08","0","SATNPRO1509","31.442","0.44034","5"],
    [13277,"HCEP03730566","2024-02-13 12:30:00","10.5275","3.32977","25.731","2.964","7.42","0.558","3.988","0.02","0.31","29.6973","4.68619","32.11","0","SATNPRO1509","31.454","0.44054","5"],
    [13278,"HCEP03730566","2024-02-13 12:45:00","10.5272","3.32981","25.588","2.969","7.42","0.561","3.798","0.02","0.2","29.6979","4.68628","32.17","0","SATNPRO1509","31.44","0.44038","5"],
    [13279,"HCEP03730566","2024-02-13 13:00:00","10.527","3.32994","25.49","2.967","7.42","0.563","4.195","0.03","0.4","29.6995","4.6865","32.15","0","SATNPRO1509","31.45","0.4405","5"],
    [13280,"HCEP03730566","2024-02-13 13:15:00","10.5241","3.32951","25.439","2.989","7.42","0.553","3.911","0.03","0.34","29.6975","4.68627","32.38","0","SATNPRO1509","31.482","0.44096","5"],
    [13281,"HCEP03730566","2024-02-13 13:30:00","10.5092","3.327","25.406","3.073","7.42","0.535","4.136","0.02","0.26","29.6849","4.68471","33.28","0","SATNPRO1509","31.526","0.4416","5"],
    [13282,"HCEP03730566","2024-02-13 13:45:00","10.492","3.324","25.402","3.182","7.42","0.572","4.211","0.03","0.22","29.6692","4.68275","34.45","0","SATNPRO1509","31.596","0.44252","5"],
    [13283,"HCEP03730566","2024-02-13 14:00:00","10.4699","3.32086","25.417","3.351","7.43","0.549","4.307","0.05","0.25","29.6561","4.68124","36.26","0","SATNPRO1509","31.502","0.44124","5"],
    [13284,"HCEP03730566","2024-02-13 14:15:00","10.4378","3.3156","25.426","3.485","7.44","0.558","4.414","0.02","0.32","29.6302","4.67806","37.67","0","SATNPRO1509","31.456","0.44062","5"],
    [13285,"HCEP03730566","2024-02-13 14:30:00","10.4384","3.3154","25.463","3.461","7.45","0.551","4.533","0.04","0.25","29.6277","4.6777","37.42","0","SATNPRO1509","31.439999999999998","0.44038","5"],
    [13286,"HCEP03730566","2024-02-13 14:45:00","10.3785","3.30597","25.554","3.754","7.46","0.567","4.579","0.02","0.27","29.583","4.67228","40.52","0","SATNPRO1509","31.482","0.44094","5"],
    [13287,"HCEP03730566","2024-02-13 15:00:00","10.3099","3.29528","25.628","4.144","7.48","0.558","4.052","0.02","0.2","29.5327","4.66623","44.65","0","SATNPRO1509","31.618","0.44286","5"],
    [13288,"HCEP03730566","2024-02-13 15:15:00","10.262","3.28817","25.759","4.482","7.5","0.582","3.936","0.04","0.35","29.5009","4.66248","48.23","0","SATNPRO1509","31.694","0.44396","5"],
    [13289,"HCEP03730566","2024-02-13 15:30:00","10.2647","3.28804","25.878","4.546","7.51","0.557","3.844","0.03","0.15","29.4974","4.66195","48.92","0","SATNPRO1509","31.59","0.44244","5"],
    [13290,"HCEP03730566","2024-02-13 15:45:00","10.2462","3.28439","25.999","4.61","7.52","0.583","4.117","0.03","0.16","29.4761","4.65922","49.57","0","SATNPRO1509","31.704","0.4441","5"],
    [13291,"HCEP03730566","2024-02-13 16:00:00","10.2265","3.28091","26.134","4.716","7.53","0.574","4.178","0.03","0.26","29.4574","4.65688","50.69","0","SATNPRO1509","31.672","0.44356","5"],
    [13292,"HCEP03730566","2024-02-13 16:15:00","10.2109","3.27789","26.321","4.805","7.54","0.591","3.967","0.02","0.29","29.44","4.65465","51.63","0","SATNPRO1509","31.812","0.44562","5"],
    [13293,"HCEP03730566","2024-02-13 16:30:00","10.1984","3.27567","26.47","4.881","7.54","0.594","3.992","0.04","0.22","29.428","4.65315","52.42","0","SATNPRO1509","31.78","0.44518","5"],
    [13294,"HCEP03730566","2024-02-13 16:45:00","10.2","3.27554","26.604","4.92","7.55","0.616","4.203","0.08","0.63","29.4253","4.65275","52.83","0","SATNPRO1509","31.971999999999998","0.4478","5"],
    [13295,"HCEP03730566","2024-02-13 17:00:00","10.1977","3.27526","26.74","4.825","7.55","0.563","3.668","0.01","0.28","29.4243","4.65265","51.82","0","SATNPRO1509","31.916","0.44702","5"],
    [13296,"HCEP03730566","2024-02-13 17:15:00","10.1919","3.27469","26.873","4.928","7.56","0.582","3.554","0.02","0.42","29.4233","4.65262","52.92","0","SATNPRO1509","31.836000000000002","0.44592","5"],
    [13297,"HCEP03730566","2024-02-13 17:30:00","10.2194","3.28006","27","4.865","7.56","0.579","4.882","0.02","0.52","29.4544","4.65662","52.28","0","SATNPRO1509","31.748","0.44468","5"],
    [13298,"HCEP03730566","2024-02-13 17:45:00","10.231","3.28204","27.129","4.764","7.55","0.581","4.364","0.02","2.01","29.4645","4.65788","51.22","0","SATNPRO1509","31.778000000000002","0.4451","5"],
    [13299,"HCEP03730566","2024-02-13 18:00:00","10.2382","3.28372","27.243","4.661","7.55","0.583","3.84","0.03","0.39","29.4754","4.65931","50.12","0","SATNPRO1509","31.720000000000002","0.4443","5"],
    [13300,"HCEP03730566","2024-02-13 18:15:00","10.2594","3.28699","27.379","4.637","7.55","0.542","3.5","0.02","0.14","29.4906","4.66115","49.88","0","SATNPRO1509","31.69","0.44386","5"],
    [13301,"HCEP03730566","2024-02-13 18:30:00","10.2739","3.29096","27.466","4.551","7.54","0.522","3.562","0.02","0.34","29.5183","4.66486","48.99","0","SATNPRO1509","31.804","0.44548","5"],
    [13302,"HCEP03730566","2024-02-13 18:45:00","10.4045","3.31053","27.543","4.018","7.52","0.577","5.53","0.03","0.32","29.6063","4.6753","43.39","0","SATNPRO1509","31.169999999999998","0.43658","5"],
    [13303,"HCEP03730566","2024-02-13 19:00:00","10.2946","3.29403","27.597","4.202","7.51","0.558","4.936","0.04","0.24","29.5319","4.66648","45.27","0","SATNPRO1509","31.796","0.44534","5"],
    [13304,"HCEP03730566","2024-02-13 19:15:00","10.3855","3.29438","27.67","4.121","7.51","0.555","5.019","0.03","0.29","29.4616","4.65499","44.4","0","SATNPRO1509","31.028","0.43458","5"],
    [13305,"HCEP03730566","2024-02-13 19:30:00","10.4629","3.3189","27.769","3.434","7.49","0.53","5.348","0.02","0.37","29.6415","4.6794","37.14","0","SATNPRO1509","31.052","0.43494","5"],
    [13306,"HCEP03730566","2024-02-13 19:45:00","10.4208","3.31297","27.78","3.471","7.47","0.536","5.206","0.02","0.42","29.617","4.67658","37.5","0","SATNPRO1509","31.29","0.43828","5"],
    [13307,"HCEP03730566","2024-02-13 20:00:00","10.3772","3.30668","27.773","3.756","7.47","0.525","4.121","0.02","0.2","29.5902","4.67347","40.55","0","SATNPRO1509","31.436","0.44036","5"],
    [13308,"HCEP03730566","2024-02-13 20:15:00","10.4024","3.31055","27.71","3.775","7.48","0.548","4.321","0.03","0.27","29.608","4.6756","40.77","0","SATNPRO1509","31.256","0.43774","5"],
    [13309,"HCEP03730566","2024-02-13 20:30:00","10.3969","3.3086","27.635","3.755","7.48","0.537","4.345","0.02","0.32","29.5932","4.67357","40.55","0","SATNPRO1509","31.304","0.4385","5"],
    [13310,"HCEP03730566","2024-02-13 20:45:00","10.3951","3.30849","27.557","3.806","7.48","0.557","4.336","0.02","0.28","29.5937","4.67367","41.09","0","SATNPRO1509","31.404","0.43986","5"],
    [13311,"HCEP03730566","2024-02-13 21:00:00","10.3926","3.30614","27.465","3.784","7.48","0.543","4.207","0.02","0.28","29.5724","4.67065","40.85","0","SATNPRO1509","31.37","0.4394","5"],
    [13312,"HCEP03730566","2024-02-13 21:15:00","10.3921","3.30685","27.378","3.789","7.48","0.554","4.609","0.02","0.24","29.5799","4.67173","40.91","0","SATNPRO1509","31.278","0.4381","5"],
    [13313,"HCEP03730566","2024-02-13 21:30:00","10.4154","3.31061","27.239","3.677","7.48","0.547","4.784","0.03","0.46","29.5982","4.67396","39.72","0","SATNPRO1509","31.226","0.43736","5"],
    [13314,"HCEP03730566","2024-02-13 21:45:00","10.4336","3.31331","27.101","3.555","7.47","0.583","5.024","0.08","0.47","29.6103","4.67538","38.42","0","SATNPRO1509","31.034","0.43464","5"],
    [13315,"HCEP03730566","2024-02-13 22:00:00","10.4708","3.31814","26.99","3.339","7.46","0.547","4.654","0.04","0.46","29.6279","4.67729","36.11","0","SATNPRO1509","31.362","0.43928","5"],
    [13316,"HCEP03730566","2024-02-13 22:15:00","10.4784","3.31899","26.828","3.232","7.45","0.561","4.669","0.03","0.3","29.6301","4.67748","34.97","0","SATNPRO1509","31.276","0.4381","5"],
    [13317,"HCEP03730566","2024-02-13 22:30:00","10.4752","3.31784","26.678","3.238","7.44","0.544","5.121","0.01","0.3","29.6215","4.67629","35.03","0","SATNPRO1509","31.392","0.4397","5"],
    [13318,"HCEP03730566","2024-02-13 22:45:00","10.4687","3.31581","26.523","3.272","7.44","0.575","5.302","0.02","0.4","29.6067","4.67427","35.38","0","SATNPRO1509","31.158","0.43642","5"],
    [13319,"HCEP03730566","2024-02-13 23:00:00","10.4633","3.31427","26.355","3.297","7.44","0.579","6.04","0.04","0.49","29.5959","4.67281","35.66","0","SATNPRO1509","31.669999999999998","0.44364","5"],
    [13320,"HCEP03730566","2024-02-13 23:15:00","10.4589","3.31279","26.205","3.331","7.45","0.568","6.886","0.02","3.85","29.5849","4.67131","36.01","0","SATNPRO1509","31.669999999999998","0.44356","5"],
    [13321,"HCEP03730566","2024-02-13 23:30:00","10.4595","3.31284","26.039","3.328","7.45","0.575","4.931","0.04","0.47","29.5849","4.67129","35.98","0","SATNPRO1509","31.598","0.44258","5"],
    [13322,"HCEP03730566","2024-02-13 23:45:00","10.4611","3.31326","25.873","3.2","7.44","0.58","4.395","0.02","0.23","29.588","4.67169","34.6","0","SATNPRO1509","31.626","0.44298","5"],
    [13323,"HCEP03730566","2024-02-14 00:00:00","10.4615","3.31337","25.713","3.289","7.44","0.561","3.914","0.04","0.44","29.5887","4.67178","35.56","0","SATNPRO1509","31.654","0.44336","5"],
    [13324,"HCEP03730566","2024-02-14 00:15:00","10.4607","3.3132","25.596","3.292","7.44","0.585","4.119","0.05","0.39","29.5878","4.67165","35.6","0","SATNPRO1509","31.492","0.44106","5"],
    [13325,"HCEP03730566","2024-02-14 00:30:00","10.4619","3.31345","25.492","3.29","7.44","0.581","3.86","0.04","0.28","29.5892","4.67183","35.57","0","SATNPRO1509","31.716","0.4442","5"],
    [13326,"HCEP03730566","2024-02-14 00:45:00","10.4628","3.31296","25.379","3.204","7.44","0.599","4.057","0.04","0.29","29.5838","4.67103","34.65","0","SATNPRO1509","31.474","0.44084","5"],
    [13327,"HCEP03730566","2024-02-14 01:00:00","10.4639","3.31298","25.281","2.98","7.44","0.581","4.118","0.04","0.39","29.5832","4.67093","32.22","0","SATNPRO1509","31.69","0.44388","5"],
    [13328,"HCEP03730566","2024-02-14 01:15:00","10.4641","3.31279","25.28","3.188","7.44","0.607","4.543","0.03","0.52","29.5811","4.67063","34.47","0","SATNPRO1509","31.616","0.44282","5"],
    [13329,"HCEP03730566","2024-02-14 01:30:00","10.464","3.31292","25.278","3.22","7.44","0.578","4.101","0.02","0.23","29.5824","4.67082","34.82","0","SATNPRO1509","31.68","0.44376","5"],
    [13330,"HCEP03730566","2024-02-14 01:45:00","10.4637","3.31285","25.313","3.223","7.44","0.58","4.058","0.02","0.29","29.5819","4.67076","34.85","0","SATNPRO1509","31.612000000000002","0.44278","5"],
    [13331,"HCEP03730566","2024-02-14 02:00:00","10.4634","3.31282","25.345","3.229","7.44","0.568","4.079","0.02","0.58","29.5819","4.67075","34.91","0","SATNPRO1509","31.622","0.44288","5"],
    [13332,"HCEP03730566","2024-02-14 02:15:00","10.4633","3.31293","25.434","3.232","7.44","0.604","4.17","0.03","0.35","29.583","4.67092","34.94","0","SATNPRO1509","31.482","0.44098","5"],
    [13333,"HCEP03730566","2024-02-14 02:30:00","10.4635","3.31294","25.513","3.239","7.44","0.577","3.581","0.05","0.2","29.583","4.67092","35.02","0","SATNPRO1509","31.592","0.4425","5"],
    [13334,"HCEP03730566","2024-02-14 02:45:00","10.4632","3.31287","25.645","3.238","7.43","0.579","3.677","0.02","0.25","29.5825","4.67086","35.01","0","SATNPRO1509","31.626","0.44298","5"],
    [13335,"HCEP03730566","2024-02-14 03:00:00","10.4633","3.31319","25.773","3.208","7.43","0.575","4.155","0.02","0.26","29.5855","4.67129","34.69","0","SATNPRO1509","31.616","0.44282","5"],
    [13336,"HCEP03730566","2024-02-14 03:15:00","10.4625","3.31311","25.936","2.944","7.44","0.661","5.406","0.08","1.38","29.5853","4.67128","31.83","0","SATNPRO1509","31.714000000000002","0.4442","5"],
    [13337,"HCEP03730566","2024-02-14 03:30:00","10.4624","3.31338","26.135","2.962","7.44","0.562","4.084","0.02","0.17","29.588","4.67168","32.02","0","SATNPRO1509","31.17","0.4366","5"],
    [13338,"HCEP03730566","2024-02-14 03:45:00","10.462","3.31355","26.308","3.033","7.44","0.589","4.453","0.04","0.19","29.5899","4.67197","32.8","0","SATNPRO1509","31.266000000000002","0.43796","5"],
    [13339,"HCEP03730566","2024-02-14 04:00:00","10.4622","3.31354","26.49","3.236","7.44","0.591","4.59","0.08","1.18","29.5896","4.67194","34.99","0","SATNPRO1509","31.482","0.44094","5"],
    [13340,"HCEP03730566","2024-02-14 04:15:00","10.4602","3.31354","26.667","3.265","7.44","0.572","3.876","0.03","0.28","29.5911","4.67219","35.31","0","SATNPRO1509","31.328","0.4388","5"],
    [13341,"HCEP03730566","2024-02-14 04:30:00","10.4335","3.30803","26.886","3.346","7.44","0.573","4.029","0.08","0.21","29.5582","4.66794","36.15","0","SATNPRO1509","31.37","0.43936","5"],
    [13342,"HCEP03730566","2024-02-14 04:45:00","10.2964","3.28737","27.086","4.139","7.48","0.594","3.527","0.05","0.18","29.4645","4.6568","44.56","0","SATNPRO1509","31.596","0.4426","5"],
    [13343,"HCEP03730566","2024-02-14 05:00:00","10.33","3.29249","27.244","4.066","7.49","0.556","4.141","0.02","0.34","29.488","4.65962","43.81","0","SATNPRO1509","31.398","0.43978","5"],
    [13344,"HCEP03730566","2024-02-14 05:15:00","10.2944","3.28694","27.43","4.133","7.5","0.576","3.722","0.04","0.25","29.4617","4.65646","44.49","0","SATNPRO1509","31.414","0.44002","5"],
    [13345,"HCEP03730566","2024-02-14 05:30:00","10.3149","3.28901","27.574","3.837","7.5","0.564","4.099","0.03","0.26","29.4656","4.65669","41.33","0","SATNPRO1509","31.296","0.43836","5"],
    [13346,"HCEP03730566","2024-02-14 05:45:00","10.2652","3.28053","27.727","4.196","7.5","0.598","4.132","0.02","0.23","29.4217","4.65124","45.13","0","SATNPRO1509","31.572","0.44222","5"],
    [13347,"HCEP03730566","2024-02-14 06:00:00","10.2347","3.27522","27.912","4.418","7.51","0.668","4.217","0.08","0.59","29.3935","4.64771","47.48","0","SATNPRO1509","31.58","0.44236","5"],
    [13348,"HCEP03730566","2024-02-14 06:15:00","10.2766","3.28251","28.067","4.37","7.51","0.589","4.017","0.03","0.26","29.4319","4.65253","47.01","0","SATNPRO1509","31.472","0.44082","5"],
    [13349,"HCEP03730566","2024-02-14 06:30:00","10.2609","3.27958","28.203","4.331","7.51","0.568","3.581","0.02","0.15","29.4155","4.65045","46.58","0","SATNPRO1509","31.573999999999998","0.44224","5"],
    [13350,"HCEP03730566","2024-02-14 06:45:00","10.2444","3.27737","28.31","4.413","7.52","0.589","3.618","0.03","0.44","29.4068","4.64948","47.43","0","SATNPRO1509","31.466","0.44074","5"],
    [13351,"HCEP03730566","2024-02-14 07:00:00","10.2019","3.26901","28.395","4.642","7.53","0.63","3.225","0.14","0.22","29.3581","4.64323","49.84","0","SATNPRO1509","31.962","0.4477","5"],
    [13352,"HCEP03730566","2024-02-14 07:15:00","10.2081","3.27082","28.465","4.734","7.53","0.592","3.067","0.02","0.15","29.371","4.64497","50.83","0","SATNPRO1509","32.052","0.44888","5"],
    [13353,"HCEP03730566","2024-02-14 07:30:00","10.2382","3.27604","28.489","4.612","7.53","0.569","3","0.03","0.18","29.3986","4.64842","49.57","0","SATNPRO1509","31.78","0.44514","5"],
    [13354,"HCEP03730566","2024-02-14 07:45:00","10.2259","3.27348","28.497","4.569","7.53","0.596","3.299","0.02","0.18","29.3831","4.64641","49.09","0","SATNPRO1509","31.724","0.4444","5"],
    [13355,"HCEP03730566","2024-02-14 08:00:00","10.2171","3.27164","28.523","4.617","7.53","0.608","3.42","0.05","0.58","29.3719","4.64496","49.58","0","SATNPRO1509","31.756","0.44478","5"],
    [13356,"HCEP03730566","2024-02-14 08:15:00","10.2249","3.27227","28.479","4.603","7.53","0.656","3.932","0.18","1.62","29.3718","4.64482","49.44","0","SATNPRO1509","31.68","0.44374","5"],
    [13357,"HCEP03730566","2024-02-14 08:30:00","10.2168","3.27132","28.456","4.599","7.53","0.582","2.957","0.02","0.16","29.369","4.64454","49.39","0","SATNPRO1509","31.776","0.44506","5"],
    [13358,"HCEP03730566","2024-02-14 08:45:00","10.2215","3.27169","28.419","4.614","7.54","0.602","3.308","0.03","0.16","29.3689","4.64445","49.56","0","SATNPRO1509","31.73","0.44442","5"],
    [13359,"HCEP03730566","2024-02-14 09:00:00","10.224","3.27183","28.333","4.577","7.54","0.577","3.324","0.02","0.14","29.3683","4.64431","49.16","0","SATNPRO1509","31.696","0.44396","5"],
    [13360,"HCEP03730566","2024-02-14 09:15:00","10.2232","3.27212","28.23","4.599","7.54","0.602","3.123","0.03","0.27","29.3718","4.64483","49.4","0","SATNPRO1509","31.804","0.44542","5"],
    [13361,"HCEP03730566","2024-02-14 09:30:00","10.23","3.27376","28.127","4.592","7.54","0.587","3.123","0.03","0.19","29.3827","4.64627","49.33","0","SATNPRO1509","31.776","0.44508","5"],
    [13362,"HCEP03730566","2024-02-14 09:45:00","10.2372","3.27519","27.916","4.557","7.53","0.592","3.064","0.03","0.17","29.3912","4.64735","48.98","0","SATNPRO1509","31.672","0.44362","5"],
    [13363,"HCEP03730566","2024-02-14 10:00:00","10.3059","3.2836","27.808","4.25","7.52","0.587","3.648","0.02","0.23","29.4191","4.65021","45.74","0","SATNPRO1509","31.61","0.44276","5"],
    [13364,"HCEP03730566","2024-02-14 10:15:00","10.3098","3.28722","27.63","4.018","7.5","0.599","3.448","0.02","0.18","29.4519","4.65482","43.26","0","SATNPRO1509","31.684","0.44378","5"],
    [13365,"HCEP03730566","2024-02-14 10:30:00","10.4072","3.3018","27.495","3.547","7.48","0.577","4.337","0.02","0.23","29.5176","4.66261","38.29","0","SATNPRO1509","31.108","0.43572","5"],
    [13366,"HCEP03730566","2024-02-14 10:45:00","10.4344","3.30472","27.301","3.317","7.46","0.598","4.187","0.02","0.22","29.5245","4.66315","35.83","0","SATNPRO1509","31.54","0.44176","5"],
    [13367,"HCEP03730566","2024-02-14 11:00:00","10.4419","3.30944","27.125","3.24","7.45","0.582","4.791","0.02","0.25","29.5652","4.66883","35.02","0","SATNPRO1509","31.2","0.43698","5"],
    [13368,"HCEP03730566","2024-02-14 11:15:00","10.3969","3.30025","26.925","3.398","7.45","0.591","3.742","0.02","0.34","29.5109","4.66179","36.67","0","SATNPRO1509","31.434","0.44028","5"],
    [13369,"HCEP03730566","2024-02-14 11:30:00","10.3805","3.29857","26.658","3.587","7.46","0.566","3.977","0.02","0.18","29.5075","4.66156","38.7","0","SATNPRO1509","31.318","0.43866","5"],
    [13370,"HCEP03730566","2024-02-14 11:45:00","10.4171","3.30543","26.435","3.468","7.46","0.569","4.439","0.02","0.14","29.5459","4.66642","37.45","0","SATNPRO1509","31.154","0.43638","5"],
    [13371,"HCEP03730566","2024-02-14 12:00:00","10.4236","3.30556","26.264","3.367","7.45","0.825","13.547","0.87","27.7","29.542","4.66576","36.37","0","SATNPRO1509","31.268","0.43798","5"],
    [13372,"HCEP03730566","2024-02-14 12:15:00","10.4283","3.30591","26.027","3.329","7.45","0.584","4.664","0.02","0.22","29.5418","4.66565","35.96","0","SATNPRO1509","31.33","0.43886","5"],
    [13373,"HCEP03730566","2024-02-14 12:30:00","10.433","3.306","25.842","3.284","7.45","0.582","4.637","0.03","0.19","29.5389","4.66514","35.48","0","SATNPRO1509","31.404","0.43992","5"],
    [13374,"HCEP03730566","2024-02-14 12:45:00","10.4376","3.30628","25.683","3.246","7.44","0.694","8.089","0.1","4.41","29.538","4.66492","35.07","0","SATNPRO1509","31.33","0.43882","5"],
    [13375,"HCEP03730566","2024-02-14 13:00:00","10.4388","3.30626","25.497","3.225","7.44","0.587","4.542","0.03","0.23","29.537","4.66476","34.84","0","SATNPRO1509","31.44","0.44032","5"],
    [13376,"HCEP03730566","2024-02-14 13:15:00","10.4407","3.30653","25.376","3.21","7.44","0.621","4.584","0.04","0.25","29.538","4.66487","34.69","0","SATNPRO1509","31.376","0.4395","5"],
    [13377,"HCEP03730566","2024-02-14 13:30:00","10.4412","3.30655","25.282","3.199","7.44","0.585","4.458","0.04","0.19","29.5379","4.66484","34.57","0","SATNPRO1509","31.458","0.44058","5"],
    [13378,"HCEP03730566","2024-02-14 13:45:00","10.4399","3.30652","25.156","3.199","7.44","1.441","22.307","0.61","15.98","29.5387","4.66497","34.56","0","SATNPRO1509","31.372","0.43946","5"],
    [13379,"HCEP03730566","2024-02-14 14:00:00","10.4414","3.30705","25.116","3.191","7.44","0.586","4.68","0.02","0.29","29.5428","4.66552","34.48","0","SATNPRO1509","31.311999999999998","0.43858","5"],
    [13380,"HCEP03730566","2024-02-14 14:15:00","10.444","3.30774","25.106","3.173","7.43","0.596","5.031","0.02","0.26","29.5475","4.66615","34.28","0","SATNPRO1509","31.14","0.4362","5"],
    [13381,"HCEP03730566","2024-02-14 14:30:00","10.4476","3.30825","25.207","3.149","7.43","0.587","4.941","0.02","0.19","29.5496","4.66639","34.03","0","SATNPRO1509","31.17","0.4366","5"],
    [13382,"HCEP03730566","2024-02-14 14:45:00","10.4482","3.30828","25.226","3.144","7.43","0.603","5.048","0.02","0.2","29.5494","4.66636","33.98","0","SATNPRO1509","31.294","0.43834","5"],
    [13383,"HCEP03730566","2024-02-14 15:00:00","10.448","3.30818","25.191","3.146","7.43","0.589","4.443","0.03","0.11","29.5486","4.66625","34","0","SATNPRO1509","31.355999999999998","0.4392","5"],
    [13384,"HCEP03730566","2024-02-14 15:15:00","10.4466","3.30801","25.268","3.16","7.43","0.567","4.768","0.03","0.95","29.548","4.66618","34.15","0","SATNPRO1509","31.274","0.43806","5"],
    [13385,"HCEP03730566","2024-02-14 15:30:00","10.4395","3.30735","25.348","3.2","7.43","0.564","3.985","0.02","0.13","29.5471","4.66618","34.57","0","SATNPRO1509","31.342","0.439","5"],
    [13386,"HCEP03730566","2024-02-14 15:45:00","10.4271","3.30586","25.41","3.279","7.44","0.565","4.31","0.02","0.2","29.5424","4.66572","35.42","0","SATNPRO1509","31.096","0.43556","5"],
    [13387,"HCEP03730566","2024-02-14 16:00:00","10.41","3.30361","25.485","3.345","7.44","0.573","4.788","0.03","1","29.534","4.6648","36.12","0","SATNPRO1509","31.246000000000002","0.43766","5"],
    [13388,"HCEP03730566","2024-02-14 16:15:00","10.3943","3.29967","25.583","3.442","7.45","0.549","4.805","0.02","2.18","29.5077","4.6613","37.14","0","SATNPRO1509","31.272000000000002","0.43802","5"],
    [13389,"HCEP03730566","2024-02-14 16:30:00","10.3481","3.29065","25.732","3.631","7.46","0.571","23.73","0.21","23.86","29.4557","4.65464","39.14","0","SATNPRO1509","31.296","0.43836","5"],
    [13390,"HCEP03730566","2024-02-14 16:45:00","10.4115","3.30334","25.835","3.421","7.45","0.501","5.874","0.02","0.74","29.53","4.66422","36.94","0","SATNPRO1509","31.12","0.43586","5"],
    [13391,"HCEP03730566","2024-02-14 17:00:00","10.408","3.30213","25.964","3.358","7.45","0.486","8.23","0.02","4.36","29.5208","4.66297","36.26","0","SATNPRO1509","31.262","0.43792","5"],
    [13392,"HCEP03730566","2024-02-14 17:15:00","10.4222","3.30496","26.067","3.343","7.45","0.51","6.496","0.03","2.72","29.5372","4.66509","36.1","0","SATNPRO1509","31.232","0.43746","5"],
    [13393,"HCEP03730566","2024-02-14 17:30:00","10.4366","3.30711","26.168","3.208","7.44","0.811","56.346","0.37","42.26","29.5468","4.66623","34.65","0","SATNPRO1509","31.126","0.436","5"],
    [13394,"HCEP03730566","2024-02-14 17:45:00","10.4372","3.30723","26.322","3.188","7.44","0.587","5.248","0.08","1.6","29.5475","4.66633","34.44","0","SATNPRO1509","31.096","0.43556","5"],
    [13395,"HCEP03730566","2024-02-14 18:00:00","10.4381","3.30729","26.453","3.164","7.43","0.553","4.821","0.02","0.1","29.5473","4.66629","34.19","0","SATNPRO1509","31.004","0.43428","5"],
    [13396,"HCEP03730566","2024-02-14 18:15:00","10.4307","3.30632","26.615","3.197","7.43","0.598","11.863","0.05","4.15","29.5436","4.66589","34.54","0","SATNPRO1509","31.042","0.4348","5"],
    [13397,"HCEP03730566","2024-02-14 18:30:00","10.4262","3.3058","26.746","3.229","7.44","0.583","7.337","0.03","1.67","29.5421","4.66575","34.88","0","SATNPRO1509","30.936","0.43336","5"],
    [13398,"HCEP03730566","2024-02-14 18:45:00","10.4233","3.30545","26.89","3.238","7.44","0.607","5.718","0.04","0.58","29.5409","4.66564","34.97","0","SATNPRO1509","30.922","0.43312","5"],
    [13399,"HCEP03730566","2024-02-14 19:00:00","10.4173","3.30443","27","3.276","7.44","0.588","4.798","0.02","0.16","29.5356","4.66499","35.38","0","SATNPRO1509","30.92","0.43306","5"],
    [13400,"HCEP03730566","2024-02-14 19:15:00","10.4209","3.30524","27.136","3.252","7.44","0.602","4.901","0.02","0.25","29.5407","4.66566","35.12","0","SATNPRO1509","30.908","0.43298","5"],
    [13401,"HCEP03730566","2024-02-14 19:30:00","10.4055","3.30217","27.245","3.301","7.44","0.591","3.99","0.02","0.1","29.5227","4.66336","35.64","0","SATNPRO1509","31.106","0.43564","5"],
    [13402,"HCEP03730566","2024-02-14 19:45:00","10.4098","3.30228","27.337","3.364","7.44","0.599","3.673","0.03","0.16","29.5203","4.66295","36.31","0","SATNPRO1509","31.226","0.4374","5"],
    [13403,"HCEP03730566","2024-02-14 20:00:00","10.4062","3.30159","27.403","3.378","7.45","0.753","6.013","0.15","2.88","29.5164","4.66245","36.47","0","SATNPRO1509","31.394000000000002","0.43976","5"],
    [13404,"HCEP03730566","2024-02-14 20:15:00","10.3652","3.2944","27.428","3.485","7.45","0.606","2.772","0.07","0.34","29.4783","4.65768","37.57","0","SATNPRO1509","31.57","0.44216","5"],
    [13405,"HCEP03730566","2024-02-14 20:30:00","10.3005","3.28207","27.458","3.72","7.46","0.61","3.029","0.06","1.42","29.4085","4.64877","40.04","0","SATNPRO1509","32.164","0.45054","5"],
    [13406,"HCEP03730566","2024-02-14 20:45:00","10.2808","3.27721","27.471","4.071","7.48","0.601","2.629","0.02","0.1","29.3761","4.64446","43.79","0","SATNPRO1509","31.785999999999998","0.44524","5"],
    [13407,"HCEP03730566","2024-02-14 21:00:00","10.2459","3.27567","27.452","4.225","7.49","0.592","3.539","0.03","0.25","29.389","4.64687","45.42","0","SATNPRO1509","31.126","0.43598","5"],
    [13408,"HCEP03730566","2024-02-14 21:15:00","10.201","3.26719","27.439","4.513","7.51","0.587","2.563","0.03","0.3","29.3411","4.64076","48.45","0","SATNPRO1509","31.864","0.4463","5"],
    [13409,"NA","2024-03-01 11:30:00",null,null,null,null,null,null,null,null,null,null,null,null,null,"SATNPRO1509","29.442","0.41238","5"],
    [13410,"HCEP03730566","2024-02-14 21:30:00","10.177","3.26293","27.371","4.74","7.53","0.717","4.509","0.03","0.38","29.3181","4.63787","50.85","0","SATNPRO1509","31.814","0.44564","5"],
    [13411,"HCEP03730566","2024-02-14 21:45:00","10.1616","3.26004","27.255","4.833","7.54","0.658","3.752","0.04","0.59","29.3019","4.63579","51.82","0","SATNPRO1509","31.796","0.44536","5"],
    [13412,"HCEP03730566","2024-02-14 22:00:00","10.1607","3.26007","27.29","4.848","7.55","0.657","4.133","0.05","0.67","29.3029","4.63596","51.98","0","SATNPRO1509","31.716","0.44422","5"],
    [13413,"HCEP03730566","2024-02-14 22:15:00","10.1637","3.26082","27.119","4.863","7.55","0.672","3.57","0.05","0.58","29.308","4.63663","52.15","0","SATNPRO1509","31.824","0.44572","5"],
    [13414,"HCEP03730566","2024-02-14 22:30:00","10.1668","3.26215","27.133","4.843","7.55","0.904","8.843","0.68","12.35","29.3188","4.63811","51.94","0","SATNPRO1509","31.774","0.44506","5"],
    [13415,"HCEP03730566","2024-02-14 22:45:00","10.1683","3.26334","27.071","4.722","7.55","1.677","16.099","2.94","28.55","29.3294","4.6396","50.64","0","SATNPRO1509","31.728","0.44442","5"],
    [13416,"HCEP03730566","2024-02-14 23:00:00","10.2007","3.26968","26.954","4.589","7.54","0.602","4.051","0.04","0.13","29.3663","4.64433","49.27","0","SATNPRO1509","31.378","0.4395","5"],
    [13417,"HCEP03730566","2024-02-14 23:15:00","10.1685","3.26582","26.854","4.735","7.54","0.595","3.218","0.02","0.47","29.354","4.64311","50.79","0","SATNPRO1509","31.656","0.44338","5"],
    [13418,"HCEP03730566","2024-02-14 23:30:00","10.2214","3.27363","26.727","4.571","7.54","0.593","4.047","0.02","0.17","29.389","4.64722","49.1","0","SATNPRO1509","31.169999999999998","0.43658","5"],
    [13419,"HCEP03730566","2024-02-14 23:45:00","10.228","3.275","26.567","4.376","7.53","0.575","4.412","0.02","0.23","29.3972","4.64829","47.01","0","SATNPRO1509","30.97","0.43382","5"],
    [13420,"HCEP03730566","2024-02-15 00:00:00","10.2375","3.27637","26.512","4.309","7.52","0.609","6.524","0.07","1.34","29.4032","4.64898","46.31","0","SATNPRO1509","30.788","0.43124","5"],
    [13421,"HCEP03730566","2024-02-15 00:15:00","10.1832","3.26985","26.404","4.542","7.53","0.574","4.525","0.03","0.52","29.3824","4.64689","48.75","0","SATNPRO1509","31.48","0.44094","5"],
    [13422,"HCEP03730566","2024-02-15 00:30:00","10.1768","3.26999","26.391","4.736","7.53","0.606","4.308","0.03","0.22","29.3891","4.64795","50.83","0","SATNPRO1509","31.77","0.44498","5"],
    [13423,"HCEP03730566","2024-02-15 00:45:00","10.1809","3.27097","26.288","4.779","7.54","0.571","4.227","0.02","0.29","29.3954","4.64878","51.29","0","SATNPRO1509","31.674","0.44364","5"],
    [13424,"HCEP03730566","2024-02-15 01:00:00","10.1781","3.27036","26.205","4.777","7.54","0.561","4.793","0.01","0.21","29.3916","4.64828","51.27","0","SATNPRO1509","31.63","0.44304","5"],
    [13425,"HCEP03730566","2024-02-15 01:15:00","10.1728","3.26937","26.131","4.786","7.55","0.605","5.532","0.04","0.58","29.3861","4.64758","51.36","0","SATNPRO1509","31.65","0.4433","5"],
    [13426,"HCEP03730566","2024-02-15 01:30:00","10.1624","3.26833","26.022","4.82","7.55","0.557","4.692","0.04","0.25","29.3843","4.64748","51.71","0","SATNPRO1509","31.567999999999998","0.44212","5"],
    [13427,"HCEP03730566","2024-02-15 01:45:00","10.1589","3.26824","26.015","4.836","7.55","0.603","6.42","0.03","0.86","29.3862","4.64781","51.88","0","SATNPRO1509","31.466","0.44078","5"],
    [13428,"HCEP03730566","2024-02-15 02:00:00","10.1533","3.26792","25.98","4.855","7.56","0.576","5.347","0.03","0.3","29.3876","4.6481","52.08","0","SATNPRO1509","31.598","0.44258","5"],
    [13429,"HCEP03730566","2024-02-15 02:15:00","10.1459","3.26751","25.955","4.89","7.56","0.732","9.96","0.09","1.85","29.3895","4.64849","52.44","0","SATNPRO1509","31.612000000000002","0.44278","5"],
    [13430,"HCEP03730566","2024-02-15 02:30:00","10.1431","3.26724","25.953","4.902","7.56","0.688","15.565","0.07","2.1","29.3891","4.64849","52.56","0","SATNPRO1509","31.558","0.44202","5"],
    [13431,"HCEP03730566","2024-02-15 02:45:00","10.1377","3.26693","26.006","4.914","7.56","0.584","5.298","0.02","0.5","29.3903","4.64875","52.69","0","SATNPRO1509","31.502","0.4412","5"],
    [13432,"HCEP03730566","2024-02-15 03:00:00","10.1285","3.26651","26.028","4.947","7.56","0.665","6.782","0.03","0.56","29.3937","4.64938","53.03","0","SATNPRO1509","31.468","0.44074","5"],
    [13433,"HCEP03730566","2024-02-15 03:15:00","10.1022","3.26496","26.15","4.716","7.56","0.685","8.363","0.04","1.24","29.3995","4.65065","50.53","0","SATNPRO1509","31.584","0.44236","5"],
    [13434,"HCEP03730566","2024-02-15 03:30:00","10.101","3.26475","26.231","5.001","7.56","0.911","6.218","0.94","3.61","29.3983","4.65051","53.59","0","SATNPRO1509","31.418","0.44006","5"],
    [13435,"HCEP03730566","2024-02-15 03:45:00","10.0803","3.26273","26.339","4.842","7.57","0.54","4.599","0.02","0.25","29.395","4.65038","51.86","0","SATNPRO1509","31.42","0.44014","5"],
    [13436,"HCEP03730566","2024-02-15 04:00:00","10.0653","3.26087","26.509","5.13","7.57","0.529","4.333","0.02","0.19","29.3884","4.6497","54.92","0","SATNPRO1509","31.492","0.44108","5"],
    [13437,"HCEP03730566","2024-02-15 04:15:00","10.048400000000001","3.25962","26.681","5.244","7.58","0.535","4.553","0.02","0.16","29.3896","4.65016","56.12","0","SATNPRO1509","31.48","0.44094","5"],
    [13438,"HCEP03730566","2024-02-15 04:30:00","10.0375","3.25895","26.78","5.295","7.59","0.519","4.329","0.02","0.18","29.3917","4.65065","56.65","0","SATNPRO1509","31.54","0.44176","5"],
    [13439,"HCEP03730566","2024-02-15 04:45:00","10.0349","3.25876","26.909","5.306","7.59","0.537","4.934","0.01","0.17","29.3919","4.65074","56.77","0","SATNPRO1509","31.55","0.4419","5"],
    [13440,"HCEP03730566","2024-02-15 05:00:00","10.0107","3.25605","27.016","5.353","7.59","0.528","4.372","0.02","0.16","29.3844","4.65008","57.24","0","SATNPRO1509","31.418","0.44008","5"],
    [13441,"HCEP03730566","2024-02-15 05:15:00","9.9951","3.25457","27.204","5.422","7.6","1.284","28.667","1.23","36.74","29.3823","4.65005","57.95","0","SATNPRO1509","31.53","0.4416","5"],
    [13442,"HCEP03730566","2024-02-15 05:30:00","9.9831","3.25342","27.373","5.47","7.6","0.753","10.155","0.23","7.9","29.3804","4.64999","58.45","0","SATNPRO1509","31.488","0.44104","5"],
    [13443,"HCEP03730566","2024-02-15 05:45:00","9.9747","3.25274","27.493","5.508","7.61","0.551","4.448","0.01","0.18","29.3805","4.65014","58.84","0","SATNPRO1509","31.5","0.44122","5"],
    [13444,"HCEP03730566","2024-02-15 06:00:00","9.9709","3.25301","27.619","5.547","7.61","0.545","4.275","0.03","0.25","29.3862","4.65103","59.26","0","SATNPRO1509","31.637999999999998","0.44314","5"],
    [13445,"HCEP03730566","2024-02-15 06:15:00","9.9231","3.24913","27.648","5.671","7.6","0.591","3.93","0.02","0.18","29.3862","4.65183","60.53","0","SATNPRO1509","31.804","0.44548","5"],
    [13446,"HCEP03730566","2024-02-15 06:30:00","9.9337","3.25072","27.812","5.715","7.6","0.53","3.878","0.02","0.21","29.3934","4.6527","61.01","0","SATNPRO1509","31.888","0.44664","5"],
    [13447,"HCEP03730566","2024-02-15 06:45:00","9.9133","3.24915","28.006","5.759","7.61","0.558","3.771","0.02","0.17","29.3942","4.65317","61.45","0","SATNPRO1509","31.884","0.4466","5"],
    [13448,"HCEP03730566","2024-02-15 07:00:00","9.9163","3.24958","28.058","5.574","7.62","0.592","9.444","0.16","9.86","29.396","4.65338","59.48","0","SATNPRO1509","31.86","0.44626","5"],
    [13449,"HCEP03730566","2024-02-15 07:15:00","9.9052","3.24854","28.173","5.799","7.63","0.724","11.279","0.88","21.28","29.3947","4.65338","61.87","0","SATNPRO1509","31.888","0.44664","5"],
    [13450,"HCEP03730566","2024-02-15 07:30:00","9.8957","3.24724","28.234","5.845","7.63","0.938","9.916","0.89","13.17","29.3893","4.65277","62.34","0","SATNPRO1509","31.938","0.44732","5"],
    [13451,"HCEP03730566","2024-02-15 07:45:00","9.9012","3.24742","28.295","5.832","7.63","0.508","3.786","0.01","0.12","29.3866","4.6523","62.21","0","SATNPRO1509","31.874","0.44646","5"],
    [13452,"HCEP03730566","2024-02-15 08:00:00","9.8971","3.24734","28.318","5.84","7.63","0.487","3.555","0.01","0.08","29.3891","4.65273","62.29","0","SATNPRO1509","31.96","0.44768","5"],
    [13453,"HCEP03730566","2024-02-15 08:15:00","9.9039","3.24852","28.386","5.829","7.63","0.506","3.676","0.01","0.07","29.3954","4.65351","62.19","0","SATNPRO1509","31.894000000000002","0.44674","5"],
    [13454,"HCEP03730566","2024-02-15 08:30:00","9.8959","3.24962","28.374","5.838","7.63","0.493","3.966","0.01","0.11","29.413","4.65617","62.28","0","SATNPRO1509","32.066","0.44912","5"],
    [13455,"HCEP03730566","2024-02-15 08:45:00","9.8844","3.25008","28.366","5.959","7.64","0.5","3.7","0.01","0.13","29.4269","4.65836","63.55","0","SATNPRO1509","32.112","0.44978","5"],
    [13456,"HCEP03730566","2024-02-15 09:00:00","9.8876","3.25068","28.326","5.953","7.64","0.476","2.899","0.01","0.07","29.4303","4.65879","63.5","0","SATNPRO1509","32.196","0.45094","5"],
    [13457,"HCEP03730566","2024-02-15 09:15:00","9.8934","3.25141","28.32","5.944","7.65","0.512","3.224","0.02","0.24","29.4329","4.65906","63.42","0","SATNPRO1509","32.141999999999996","0.45018","5"],
    [13458,"HCEP03730566","2024-02-15 09:30:00","9.9068","3.25298","28.232","5.897","7.64","0.474","3.445","0.01","0.14","29.4378","4.65953","62.93","0","SATNPRO1509","32.147999999999996","0.45026","5"],
    [13459,"HCEP03730566","2024-02-15 09:45:00","9.9012","3.25196","28.131","5.895","7.64","0.497","3.136","0.01","0.13","29.4322","4.65881","62.9","0","SATNPRO1509","32.19","0.45084","5"],
    [13460,"HCEP03730566","2024-02-15 10:00:00","9.8886","3.24911","28.007","5.963","7.65","0.476","2.418","0.01","0.04","29.4139","4.6564","63.6","0","SATNPRO1509","32.046","0.44886","5"],
    [13461,"HCEP03730566","2024-02-15 10:15:00","9.9235","3.25069","27.932","5.813","7.64","0.507","2.761","0.02","0.14","29.4014","4.65401","62.04","0","SATNPRO1509","31.918","0.44708","5"],
    [13462,"HCEP03730566","2024-02-15 10:30:00","9.9774","3.257","27.793","5.619","7.63","0.498","3.701","0.02","0.1","29.4208","4.65587","60.05","0","SATNPRO1509","31.919999999999998","0.44714","5"],
    [13463,"HCEP03730566","2024-02-15 10:45:00","9.9722","3.25711","27.601","5.604","7.62","0.499","4.275","0.01","0.14","29.4261","4.65672","59.88","0","SATNPRO1509","31.812","0.44558","5"],
    [13464,"HCEP03730566","2024-02-15 11:00:00","9.9638","3.25689","27.484","5.638","7.62","1.801","34.344","0.38","21.58","29.4308","4.65752","60.24","0","SATNPRO1509","31.814","0.44564","5"],
    [13465,"HCEP03730566","2024-02-15 11:15:00","9.9742","3.2579","27.28","5.63","7.62","15.963","404.277","0.83","118.9","29.4325","4.65758","60.17","0","SATNPRO1509","31.954","0.44758","5"],
    [13466,"HCEP03730566","2024-02-15 11:30:00","9.985","3.25884","27.043","5.602","7.62","11.721","682.312","4.02","368.84","29.4333","4.65749","59.88","0","SATNPRO1509","32.007999999999996","0.44834","5"],
    [13467,"HCEP03730566","2024-02-15 11:45:00","9.9991","3.25987","26.849","5.563","7.62","5.918","114.49","1.77","31.74","29.4321","4.65707","59.48","0","SATNPRO1509","32.028","0.44866","5"],
    [13468,"HCEP03730566","2024-02-15 12:00:00","10.0126","3.26071","26.786","5.513","7.61","2.628","35.906","1.74","29.99","29.4295","4.65648","58.96","0","SATNPRO1509","31.948","0.44748","5"],
    [13469,"HCEP03730566","2024-02-15 12:15:00","10.037","3.26234","26.563","5.421","7.61","1.249","17.903","0.54","6.36","29.4261","4.65556","58.01","0","SATNPRO1509","31.918","0.44702","5"],
    [13470,"HCEP03730566","2024-02-15 12:30:00","10.0646","3.26502","26.358","5.31","7.6","1.317","21.04","0.49","8.5","29.4305","4.65572","56.86","0","SATNPRO1509","31.842","0.44598","5"],
    [13471,"HCEP03730566","2024-02-15 12:45:00","10.1116","3.26972","26.096","5.092","7.59","8.552","226.841","1.79","116.7","29.4393","4.65618","54.59","0","SATNPRO1509","31.59","0.44244","5"],
    [13472,"HCEP03730566","2024-02-15 13:00:00","10.2016","3.27892","25.883","4.683","7.57","6.922","424.326","3.64","333.39","29.4579","4.65734","50.31","0","SATNPRO1509","31.38","0.43954","5"],
    [13473,"HCEP03730566","2024-02-15 13:15:00","10.2527","3.28432","25.688","4.313","7.54","10.328","696.509","2.92","316.03","29.4703","4.65826","46.39","0","SATNPRO1509","31.242","0.43764","5"],
    [13474,"HCEP03730566","2024-02-15 13:30:00","10.2901","3.28845","25.53","4.04","7.52","0.57","4.722","0.02","0.2","29.4809","4.65916","43.49","0","SATNPRO1509","31.092","0.4355","5"],
    [13475,"HCEP03730566","2024-02-15 13:45:00","10.339","3.29366","25.35","3.715","7.5","0.595","5.041","0.02","0.2","29.4931","4.6601","40.04","0","SATNPRO1509","31.006","0.4343","5"],
    [13476,"HCEP03730566","2024-02-15 14:00:00","10.3647","3.29632","25.219","3.498","7.48","0.572","4.319","0.03","0.23","29.4986","4.66047","37.72","0","SATNPRO1509","30.928","0.4332","5"],
    [13477,"HCEP03730566","2024-02-15 14:15:00","10.3475","3.29401","25.123","3.492","7.47","0.586","4.476","0.02","0.27","29.4897","4.65946","37.64","0","SATNPRO1509","31.218","0.43724","5"],
    [13478,"HCEP03730566","2024-02-15 14:30:00","10.3462","3.29411","25.002","3.538","7.47","0.571","4.362","0.02","0.16","29.4918","4.65978","38.14","0","SATNPRO1509","31.018","0.4345","5"],
    [13479,"HCEP03730566","2024-02-15 14:45:00","10.3239","3.29158","24.926","3.613","7.47","0.575","4.224","0.03","0.21","29.4849","4.65914","38.92","0","SATNPRO1509","30.968","0.43378","5"],
    [13480,"HCEP03730566","2024-02-15 15:00:00","10.3252","3.29191","24.935","3.649","7.47","0.593","6.43","0.07","1.71","29.4871","4.65944","39.31","0","SATNPRO1509","30.988","0.43404","5"],
    [13481,"HCEP03730566","2024-02-15 15:15:00","10.3404","3.29371","24.917","3.458","7.46","0.564","4.175","0.03","0.2","29.4926","4.65997","37.27","0","SATNPRO1509","30.928","0.43322","5"],
    [13482,"HCEP03730566","2024-02-15 15:30:00","10.3547","3.2955","24.933","3.207","7.46","0.508","10.873","0.03","5.56","29.4988","4.66063","34.57","0","SATNPRO1509","30.846","0.43204","5"],
    [13483,"HCEP03730566","2024-02-15 15:45:00","10.3195","3.29181","24.947","3.328","7.46","0.573","4.629","0.02","0.25","29.4907","4.66005","35.85","0","SATNPRO1509","30.942","0.4334","5"],
    [13484,"HCEP03730566","2024-02-15 16:00:00","10.2934","3.28907","24.952","3.69","7.46","0.529","5.092","0.03","1.89","29.4846","4.6596","39.72","0","SATNPRO1509","31.082","0.43536","5"],
    [13485,"NA","2024-03-01 11:45:00",null,null,null,null,null,null,null,null,null,null,null,null,null,"SATNPRO1509","29.406","0.4119","5"],
    [13486,"HCEP03730566","2024-02-15 16:15:00","10.2333","3.28294","24.962","3.871","7.47","0.555","4.395","0.02","0.29","29.4726","4.65887","41.62","0","SATNPRO1509","31.112","0.43574","5"],
    [13487,"HCEP03730566","2024-02-15 16:30:00","10.1869","3.2781","25.048","4.045","7.5","0.595","5.282","0.07","1.08","29.462","4.65812","43.45","0","SATNPRO1509","31.294","0.43832","5"],
    [13488,"HCEP03730566","2024-02-15 16:45:00","10.1713","3.27633","25.125","4.489","7.51","0.547","4.312","0.02","0.19","29.457","4.65768","48.2","0","SATNPRO1509","31.458","0.44066","5"],
    [13489,"HCEP03730566","2024-02-15 17:00:00","10.1732","3.2767","25.251","4.594","7.53","0.535","4.373","0.02","0.21","29.4592","4.65795","49.32","0","SATNPRO1509","31.41","0.43994","5"],
    [13490,"HCEP03730566","2024-02-15 17:15:00","10.1827","3.27768","25.409","4.569","7.53","0.538","4.491","0.02","0.21","29.4611","4.65808","49.07","0","SATNPRO1509","31.352","0.4391","5"],
    [13491,"HCEP03730566","2024-02-15 17:30:00","10.2177","3.28144","25.527","4.391","7.53","0.571","5.441","0.05","1.31","29.4701","4.6588","47.19","0","SATNPRO1509","31.034","0.43466","5"],
    [13492,"HCEP03730566","2024-02-15 17:45:00","10.2766","3.2877","25.662","4.071","7.51","0.566","4.664","0.03","0.51","29.4844","4.65989","43.81","0","SATNPRO1509","30.934","0.43328","5"],
    [13493,"HCEP03730566","2024-02-15 18:00:00","10.3179","3.29202","25.777","3.756","7.5","0.541","4.305","0.02","0.26","29.4937","4.66055","40.46","0","SATNPRO1509","30.848","0.43208","5"],
    [13494,"HCEP03730566","2024-02-15 18:15:00","10.3413","3.29444","25.9","3.541","7.48","0.559","4.324","0.02","0.2","29.4987","4.6609","38.16","0","SATNPRO1509","30.759999999999998","0.43088","5"],
    [13495,"HCEP03730566","2024-02-15 18:30:00","10.3474","3.29507","26.03","3.443","7.47","0.55","4.026","0.02","0.23","29.4999","4.66097","37.12","0","SATNPRO1509","30.792","0.4313","5"],
    [13496,"HCEP03730566","2024-02-15 18:45:00","10.3533","3.29566","26.167","3.397","7.46","0.585","4.234","0.03","0.28","29.501","4.66103","36.62","0","SATNPRO1509","30.85","0.4321","5"],
    [13497,"HCEP03730566","2024-02-15 19:00:00","10.3587","3.29623","26.306","3.367","7.45","0.572","3.985","0.02","0.19","29.5023","4.66114","36.3","0","SATNPRO1509","30.8","0.43138","5"],
    [13498,"HCEP03730566","2024-02-15 19:15:00","10.3542","3.29577","26.458","3.353","7.45","0.568","4.341","0.03","0.2","29.5012","4.66106","36.15","0","SATNPRO1509","30.764","0.43094","5"],
    [13499,"HCEP03730566","2024-02-15 19:30:00","10.3462","3.29502","26.61","3.376","7.44","0.576","4.605","0.04","0.24","29.5003","4.66107","36.39","0","SATNPRO1509","30.806","0.43148","5"],
    [13500,"HCEP03730566","2024-02-15 19:45:00","10.3321","3.29371","26.761","3.448","7.45","0.587","4.668","0.04","0.32","29.4987","4.66108","37.15","0","SATNPRO1509","30.554","0.42796","5"],
    [13501,"HCEP03730566","2024-02-15 20:00:00","10.3185","3.29236","26.895","3.563","7.45","0.557","4.336","0.02","0.29","29.4962","4.66096","38.39","0","SATNPRO1509","30.896","0.43276","5"],
    [13502,"HCEP03730566","2024-02-15 20:15:00","10.287","3.28896","27.031","3.721","7.46","0.567","4.582","0.02","0.25","29.488","4.66031","40.05","0","SATNPRO1509","31.068","0.43512","5"],
    [13503,"HCEP03730566","2024-02-15 20:30:00","10.2512","3.2851","27.14","3.648","7.47","0.547","4.66","0.02","0.29","29.4786","4.65956","39.23","0","SATNPRO1509","31.09","0.43548","5"],
    [13504,"HCEP03730566","2024-02-15 20:45:00","10.2209","3.28209","27.199","3.866","7.48","0.569","4.659","0.03","0.34","29.4732","4.65929","41.55","0","SATNPRO1509","31.222","0.43736","5"],
    [13505,"HCEP03730566","2024-02-15 21:00:00","10.1906","3.27916","27.255","4.291","7.5","0.571","10.687","0.12","16.97","29.4688","4.65915","46.09","0","SATNPRO1509","31.238","0.43756","5"],
    [13506,"HCEP03730566","2024-02-15 21:15:00","10.1447","3.27523","27.311","4.582","7.52","0.558","4.08","0.02","0.22","29.4668","4.65963","49.17","0","SATNPRO1509","31.322","0.43872","5"],
    [13507,"HCEP03730566","2024-02-15 21:30:00","10.1044","3.26979","27.356","4.773","7.54","0.536","3.989","0.02","0.31","29.4454","4.65725","51.17","0","SATNPRO1509","31.314","0.43862","5"],
    [13508,"HCEP03730566","2024-02-15 21:45:00","10.1436","3.27429","27.39","4.788","7.54","0.724","5.222","0.16","0.91","29.4584","4.65845","51.37","0","SATNPRO1509","31.398","0.43978","5"],
    [13509,"HCEP03730566","2024-02-15 22:00:00","10.1435","3.27428","27.406","4.702","7.54","0.537","4.207","0.03","0.35","29.4583","4.65844","50.45","0","SATNPRO1509","31.276","0.4381","5"],
    [13510,"HCEP03730566","2024-02-15 22:15:00","10.153","3.27522","27.412","4.672","7.54","0.538","3.993","0.02","0.26","29.46","4.65853","50.14","0","SATNPRO1509","31.35","0.43908","5"],
    [13511,"HCEP03730566","2024-02-15 22:30:00","10.1597","3.27585","27.415","4.616","7.53","0.549","4.174","0.06","0.22","29.4607","4.65852","49.55","0","SATNPRO1509","31.296","0.43838","5"],
    [13512,"HCEP03730566","2024-02-15 22:45:00","10.1661","3.2764","27.448","4.585","7.53","0.54","4.056","0.03","0.31","29.461","4.65846","49.21","0","SATNPRO1509","31.198","0.43696","5"],
    [13513,"HCEP03730566","2024-02-15 23:00:00","10.1576","3.27545","27.409","4.61","7.53","0.51","3.622","0.02","0.18","29.4585","4.65824","49.47","0","SATNPRO1509","31.352","0.43916","5"],
    [13514,"HCEP03730566","2024-02-15 23:15:00","10.141","3.27361","27.394","4.684","7.54","0.628","7.325","0.2","7.67","29.4536","4.65781","50.25","0","SATNPRO1509","31.43","0.44024","5"],
    [13515,"HCEP03730566","2024-02-15 23:30:00","10.1094","3.27039","27.364","4.805","7.54","0.535","3.844","0.04","0.42","29.4472","4.65742","51.51","0","SATNPRO1509","31.558","0.44202","5"],
    [13516,"HCEP03730566","2024-02-15 23:45:00","10.097","3.269","27.312","4.975","7.56","0.647","4.663","0.25","1.87","29.4435","4.65709","53.32","0","SATNPRO1509","31.644","0.4432","5"],
    [13517,"HCEP03730566","2024-02-16 00:00:00","10.0826","3.26691","27.309","5.041","7.57","0.531","3.764","0.02","0.24","29.4344","4.65603","54.01","0","SATNPRO1509","31.73","0.4444","5"],
    [13518,"HCEP03730566","2024-02-16 00:15:00","10.0887","3.26781","27.258","5.031","7.57","0.533","3.743","0.02","0.17","29.4384","4.6565","53.9","0","SATNPRO1509","31.548000000000002","0.4419","5"],
    [13519,"HCEP03730566","2024-02-16 00:30:00","10.0771","3.26382","27.177","5.049","7.57","0.502","2.901","0.02","0.12","29.4081","4.65235","54.07","0","SATNPRO1509","31.727999999999998","0.44444","5"],
    [13520,"HCEP03730566","2024-02-16 00:45:00","10.0729","3.26248","27.139","5.091","7.57","0.554","3.797","0.02","0.36","29.3981","4.651","54.51","0","SATNPRO1509","31.71","0.44416","5"],
    [13521,"HCEP03730566","2024-02-16 01:00:00","10.0779","3.26101","27.108","5.094","7.58","1.805","54.918","1.12","39.15","29.3794","4.64825","54.54","0","SATNPRO1509","31.811999999999998","0.4456","5"],
    [13522,"HCEP03730566","2024-02-16 01:15:00","10.0813","3.26025","27.055","5.107","7.58","0.523","2.862","0.02","0.16","29.369","4.6467","54.68","0","SATNPRO1509","31.856","0.4462","5"],
    [13523,"HCEP03730566","2024-02-16 01:30:00","10.0737","3.26449","26.991","5.065","7.57","0.546","4.34","0.02","0.14","29.4175","4.65375","54.24","0","SATNPRO1509","31.46","0.44062","5"],
    [13524,"HCEP03730566","2024-02-16 01:45:00","10.0725","3.26319","26.937","5.011","7.57","0.533","4.287","0.03","0.13","29.4056","4.65206","53.66","0","SATNPRO1509","31.33","0.43882","5"],
    [13525,"HCEP03730566","2024-02-16 02:00:00","10.0682","3.26321","26.859","4.997","7.57","0.526","4.539","0.02","0.16","29.4094","4.65267","53.51","0","SATNPRO1509","31.128","0.436","5"],
    [13526,"HCEP03730566","2024-02-16 02:15:00","10.0553","3.26174","26.828","4.99","7.57","0.555","4.747","0.01","0.18","29.4051","4.65227","53.42","0","SATNPRO1509","31.058","0.43502","5"],
    [13527,"HCEP03730566","2024-02-16 02:30:00","10.037","3.25925","26.815","5.052","7.57","0.527","4.296","0.02","0.15","29.3951","4.65115","54.05","0","SATNPRO1509","31.236","0.43752","5"],
    [13528,"HCEP03730566","2024-02-16 02:45:00","10.0124","3.25706","26.746","5.134","7.58","0.539","4.255","0.01","0.11","29.3933","4.65129","54.91","0","SATNPRO1509","31.256","0.43774","5"],
    [13529,"HCEP03730566","2024-02-16 03:00:00","10.0173","3.2573","26.74","5.167","7.58","0.522","4.392","0.02","0.14","29.3917","4.65099","55.26","0","SATNPRO1509","31.224","0.43734","5"],
    [13530,"HCEP03730566","2024-02-16 03:15:00","10.0122","3.25655","26.69","5.17","7.58","0.518","5.051","0.03","1.09","29.3884","4.65059","55.28","0","SATNPRO1509","31.268","0.438","5"],
    [13531,"HCEP03730566","2024-02-16 03:30:00","9.9979","3.25494","26.663","5.208","7.57","0.61","8.392","0.11","4.02","29.3839","4.65019","55.67","0","SATNPRO1509","31.364","0.43932","5"],
    [13532,"HCEP03730566","2024-02-16 03:45:00","9.9941","3.25468","26.679","5.214","7.57","0.537","4.21","0.02","0.17","29.3844","4.65033","55.73","0","SATNPRO1509","31.244","0.43762","5"],
    [13533,"HCEP03730566","2024-02-16 04:00:00","9.9857","3.25399","26.734","5.27","7.58","0.55","4.625","0.01","0.2","29.3843","4.65045","56.32","0","SATNPRO1509","31.21","0.43712","5"],
    [13534,"HCEP03730566","2024-02-16 04:15:00","9.9874","3.25437","26.762","5.269","7.58","0.592","6.6","0.08","2.37","29.3867","4.65078","56.31","0","SATNPRO1509","31.276","0.43806","5"],
    [13535,"HCEP03730566","2024-02-16 04:30:00","9.9884","3.25464","26.848","5.257","7.58","0.547","4.642","0.03","0.23","29.3885","4.65103","56.19","0","SATNPRO1509","31.246","0.43764","5"],
    [13536,"HCEP03730566","2024-02-16 04:45:00","9.9654","3.25218","26.907","5.318","7.59","0.546","4.6","0.02","0.2","29.3826","4.65057","56.81","0","SATNPRO1509","31.284","0.4382","5"],
    [13537,"HCEP03730566","2024-02-16 05:00:00","9.9496","3.2506","26.987","5.397","7.6","0.541","4.566","0.02","0.29","29.3797","4.65042","57.63","0","SATNPRO1509","31.29","0.43824","5"],
    [13538,"HCEP03730566","2024-02-16 05:15:00","9.9273","3.24837","26.998","5.497","7.6","0.557","4.308","0.02","0.24","29.3754","4.65019","58.67","0","SATNPRO1509","31.494","0.44108","5"],
    [13539,"HCEP03730566","2024-02-16 05:30:00","9.9162","3.24737","27.093","5.577","7.61","0.853","29.328","0.46","34.16","29.3745","4.65024","59.5","0","SATNPRO1509","31.694","0.44396","5"],
    [13540,"HCEP03730566","2024-02-16 05:45:00","9.9075","3.24663","27.204","5.63","7.61","0.592","4.821","0.03","0.45","29.374","4.65033","60.06","0","SATNPRO1509","31.632","0.44306","5"],
    [13541,"HCEP03730566","2024-02-16 06:00:00","9.8957","3.24562","27.334","5.673","7.62","0.556","5.144","0.04","1.23","29.3734","4.65046","60.51","0","SATNPRO1509","31.656","0.44344","5"],
    [13542,"HCEP03730566","2024-02-16 06:15:00","9.8891","3.2451","27.37","5.709","7.62","0.553","4.113","0.02","0.24","29.3736","4.65059","60.88","0","SATNPRO1509","31.722","0.44434","5"],
    [13543,"HCEP03730566","2024-02-16 06:30:00","9.8779","3.24417","27.449","5.738","7.62","0.529","3.937","0.02","0.37","29.3734","4.65076","61.17","0","SATNPRO1509","31.73","0.4444","5"],
    [13544,"HCEP03730566","2024-02-16 06:45:00","9.8748","3.24379","27.569","5.76","7.63","0.539","3.849","0.02","0.12","29.372","4.65062","61.4","0","SATNPRO1509","31.75","0.4447","5"],
    [13545,"HCEP03730566","2024-02-16 07:00:00","9.8694","3.24332","27.701","5.773","7.63","0.525","4.044","0.01","0.17","29.3716","4.65066","61.53","0","SATNPRO1509","31.752","0.4447","5"],
    [13546,"HCEP03730566","2024-02-16 07:15:00","9.8668","3.24299","27.816","5.779","7.63","2.429","66.543","1.95","37.15","29.3704","4.65054","61.59","0","SATNPRO1509","31.726","0.44436","5"],
    [13547,"HCEP03730566","2024-02-16 07:30:00","9.8654","3.24297","27.899","5.779","7.63","0.553","4.994","0.02","0.95","29.3713","4.6507","61.59","0","SATNPRO1509","31.758","0.44484","5"],
    [13548,"HCEP03730566","2024-02-16 07:45:00","9.862","3.24283","27.973","5.785","7.63","0.54","3.796","0.01","0.28","29.3727","4.65096","61.65","0","SATNPRO1509","31.728","0.44442","5"],
    [13549,"HCEP03730566","2024-02-16 08:00:00","9.8607","3.24289","28.032","5.799","7.63","0.543","5.346","0.05","4.67","29.3743","4.65121","61.8","0","SATNPRO1509","31.752","0.44474","5"],
    [13550,"HCEP03730566","2024-02-16 08:15:00","9.8597","3.24286","28.123","5.801","7.63","0.542","4.193","0.01","0.18","29.3748","4.65131","61.82","0","SATNPRO1509","31.742","0.44458","5"],
    [13551,"HCEP03730566","2024-02-16 08:30:00","9.8523","3.24228","28.207","5.842","7.64","0.533","4.004","0.03","1.3","29.3749","4.65145","62.25","0","SATNPRO1509","31.882","0.44654","5"],
    [13552,"HCEP03730566","2024-02-16 08:45:00","9.8523","3.24224","28.208","5.849","7.64","0.569","5.292","0.03","1.08","29.3745","4.6514","62.32","0","SATNPRO1509","31.84","0.44602","5"],
    [13553,"HCEP03730566","2024-02-16 09:00:00","9.8564","3.24252","28.246","5.825","7.64","0.602","4.681","0.05","0.73","29.374","4.65126","62.07","0","SATNPRO1509","31.804","0.44546","5"],
    [13554,"HCEP03730566","2024-02-16 09:15:00","9.8529","3.24213","28.232","5.83","7.64","0.535","3.725","0.02","0.2","29.3729","4.65116","62.12","0","SATNPRO1509","31.794","0.44532","5"],
    [13555,"HCEP03730566","2024-02-16 09:30:00","9.8545","3.24217","28.28","5.825","7.64","0.519","3.553","0.01","0.12","29.372","4.65101","62.06","0","SATNPRO1509","31.906","0.44688","5"],
    [13556,"HCEP03730566","2024-02-16 09:45:00","9.8523","3.24198","28.169","5.84","7.64","0.542","3.435","0.01","0.26","29.3719","4.65103","62.22","0","SATNPRO1509","31.858","0.44624","5"],
    [13557,"HCEP03730566","2024-02-16 10:00:00","9.8485","3.24166","28.207","5.859","7.64","0.525","3.478","0.02","0.15","29.3718","4.65108","62.42","0","SATNPRO1509","31.85","0.44612","5"],
    [13558,"HCEP03730566","2024-02-16 10:15:00","9.8579","3.24226","28.086","5.823","7.64","0.675","12.798","0.26","15.28","29.3702","4.65068","62.05","0","SATNPRO1509","31.766000000000002","0.44498","5"],
    [13559,"HCEP03730566","2024-02-16 10:30:00","9.8647","3.24276","28.016","5.773","7.63","0.539","4.025","0.02","0.17","29.3698","4.6505","61.53","0","SATNPRO1509","31.716","0.44424","5"],
    [13560,"HCEP03730566","2024-02-16 10:45:00","9.8647","3.24286","27.944","5.762","7.63","0.546","4.31","0.01","0.13","29.3707","4.65063","61.4","0","SATNPRO1509","31.616","0.44282","5"],
    [13561,"HCEP03730566","2024-02-16 11:00:00","9.8649","3.24283","27.821","5.76","7.63","0.53","4.203","0.01","0.15","29.3704","4.65057","61.39","0","SATNPRO1509","31.669999999999998","0.44358","5"],
    [13562,"HCEP03730566","2024-02-16 11:15:00","9.8654","3.24294","27.694","5.761","7.63","0.54","4.348","0.02","0.14","29.371","4.65065","61.4","0","SATNPRO1509","31.721999999999998","0.44432","5"],
    [13563,"HCEP03730566","2024-02-16 11:30:00","9.8633","3.24285","27.53","5.769","7.63","0.527","4.466","0.02","0.17","29.3719","4.6508","61.48","0","SATNPRO1509","31.656","0.44338","5"],
    [13564,"HCEP03730566","2024-02-16 11:45:00","9.8631","3.2428","27.423","5.778","7.63","0.555","4.395","0.01","0.2","29.3717","4.65076","61.58","0","SATNPRO1509","31.698","0.44396","5"],
    [13565,"HCEP03730566","2024-02-16 12:00:00","9.8629","3.24269","27.233","5.784","7.63","0.552","4.194","0.02","0.26","29.3708","4.65063","61.64","0","SATNPRO1509","31.786","0.4452","5"],
    [13566,"HCEP03730566","2024-02-16 12:15:00","9.865","3.24275","27.069","5.786","7.63","0.552","4.256","0.02","0.29","29.3697","4.65043","61.66","0","SATNPRO1509","31.708000000000002","0.44412","5"],
    [13567,"HCEP03730566","2024-02-16 12:30:00","9.8663","3.24284","26.857","5.778","7.63","0.529","4.17","0.02","1.02","29.3697","4.6504","61.58","0","SATNPRO1509","31.740000000000002","0.44458","5"],
    [13568,"HCEP03730566","2024-02-16 12:45:00","9.868","3.24297","26.626","5.77","7.63","0.549","4.02","0.01","0.16","29.3697","4.65036","61.5","0","SATNPRO1509","31.788","0.44524","5"],
    [13569,"HCEP03730566","2024-02-16 13:00:00","9.8677","3.24282","26.463","5.764","7.63","0.613","8.221","0.11","7.45","29.3685","4.65017","61.43","0","SATNPRO1509","31.732","0.44444","5"],
    [13570,"HCEP03730566","2024-02-16 13:15:00","9.873","3.24329","26.261","5.754","7.63","0.717","7.943","0.21","4.31","29.3689","4.65013","61.33","0","SATNPRO1509","31.686","0.4438","5"],
    [13571,"HCEP03730566","2024-02-16 13:30:00","9.8768","3.2436","26.06","5.736","7.63","0.633","8.628","0.13","7.4","29.3691","4.65009","61.14","0","SATNPRO1509","31.696","0.44396","5"],
    [13572,"HCEP03730566","2024-02-16 13:45:00","9.8783","3.2436","25.868","5.733","7.63","2.217","27.687","1.73","15.47","29.3679","4.64988","61.11","0","SATNPRO1509","31.838","0.44594","5"],
    [13573,"HCEP03730566","2024-02-16 14:00:00","9.8783","3.24341","25.69","5.739","7.63","0.552","4.125","0.03","0.34","29.3661","4.64961","61.18","0","SATNPRO1509","31.376","0.4395","5"],
    [13574,"HCEP03730566","2024-02-16 14:15:00","9.8821","3.24402","25.5","5.725","7.63","0.556","4.446","0.02","0.21","29.3692","4.64998","61.03","0","SATNPRO1509","31.727999999999998","0.44444","5"],
    [13575,"HCEP03730566","2024-02-16 14:30:00","9.8871","3.24482","25.33","5.7","7.62","0.551","4.726","0.02","0.28","29.3733","4.65047","60.77","0","SATNPRO1509","31.695999999999998","0.4439","5"],
    [13576,"HCEP03730566","2024-02-16 14:45:00","9.8928","3.24563","25.18","5.68","7.62","0.551","4.267","0.02","0.26","29.3768","4.65086","60.57","0","SATNPRO1509","31.672","0.4436","5"],
    [13577,"HCEP03730566","2024-02-16 15:00:00","9.8973","3.24622","25.061","5.668","7.62","0.548","4.374","0.02","0.3","29.3791","4.65111","60.45","0","SATNPRO1509","31.55","0.44192","5"],
    [13578,"HCEP03730566","2024-02-16 15:15:00","9.8997","3.24667","24.952","5.661","7.62","0.56","4.343","0.02","0.43","29.3816","4.65143","60.38","0","SATNPRO1509","31.646","0.44326","5"],
    [13579,"HCEP03730566","2024-02-16 15:30:00","9.9041","3.24727","24.878","5.65","7.62","0.544","4.514","0.02","0.5","29.3842","4.65171","60.27","0","SATNPRO1509","31.532","0.44168","5"],
    [13580,"HCEP03730566","2024-02-16 15:45:00","9.9178","3.24877","24.835","5.619","7.62","0.573","4.433","0.03","0.77","29.388","4.65202","59.96","0","SATNPRO1509","31.642","0.4432","5"],
    [13581,"HCEP03730566","2024-02-16 16:00:00","9.9192","3.24884","24.805","5.545","7.61","0.552","4.56","0.02","0.37","29.3876","4.65194","59.18","0","SATNPRO1509","31.696","0.44392","5"],
    [13582,"HCEP03730566","2024-02-16 16:15:00","9.9259","3.2498","24.799","5.446","7.61","0.562","5.068","0.03","0.91","29.3918","4.65242","58.12","0","SATNPRO1509","31.582","0.44234","5"],
    [13583,"HCEP03730566","2024-02-16 16:30:00","9.9432","3.25175","24.824","5.498","7.61","0.541","4.572","0.02","0.36","29.3972","4.65291","58.7","0","SATNPRO1509","31.358","0.43922","5"],
    [13584,"HCEP03730566","2024-02-16 16:45:00","9.9346","3.25134","24.825","5.491","7.61","0.853","6.296","0.16","1.45","29.4001","4.65346","58.63","0","SATNPRO1509","31.564","0.44214","5"],
    [13585,"HCEP03730566","2024-02-16 17:00:00","9.9319","3.25055","24.91","5.508","7.6","0.595","5.262","0.07","0.43","29.3944","4.6527","58.8","0","SATNPRO1509","31.424","0.44012","5"],
    [13586,"HCEP03730566","2024-02-16 17:15:00","9.9248","3.24992","25.013","5.541","7.6","0.58","6.318","0.06","6.33","29.3937","4.65273","59.14","0","SATNPRO1509","31.468","0.44076","5"],
    [13587,"HCEP03730566","2024-02-16 17:30:00","9.9263","3.24999","25.07","5.556","7.6","0.536","4.39","0.02","0.2","29.3933","4.65264","59.3","0","SATNPRO1509","31.568","0.44218","5"],
    [13588,"HCEP03730566","2024-02-16 17:45:00","9.9289","3.25041","25.17","5.545","7.61","0.553","4.554","0.02","0.31","29.3952","4.65289","59.19","0","SATNPRO1509","31.506","0.4413","5"],
    [13589,"HCEP03730566","2024-02-16 18:00:00","9.945","3.25229","25.287","5.502","7.61","0.534","4.432","0.01","0.25","29.401","4.65345","58.75","0","SATNPRO1509","31.506","0.44128","5"],
    [13590,"HCEP03730566","2024-02-16 18:15:00","9.9478","3.25242","25.389","5.461","7.61","4.646","14.239","5.21","9.81","29.4","4.65326","58.31","0","SATNPRO1509","31.49","0.44108","5"],
    [13591,"HCEP03730566","2024-02-16 18:30:00","9.9595","3.25364","25.42","5.428","7.6","3.606","28.458","5.24","17.96","29.4026","4.65344","57.98","0","SATNPRO1509","31.564","0.44214","5"],
    [13592,"HCEP03730566","2024-02-16 18:45:00","9.9613","3.25384","25.523","5.401","7.6","0.547","4.541","0.02","0.14","29.4031","4.65349","57.69","0","SATNPRO1509","31.504","0.44128","5"],
    [13593,"HCEP03730566","2024-02-16 19:00:00","9.9671","3.25443","25.651","5.38","7.6","0.529","4.374","0.01","0.14","29.4042","4.65355","57.48","0","SATNPRO1509","31.53","0.44164","5"],
    [13594,"HCEP03730566","2024-02-16 19:15:00","9.9649","3.25407","25.788","5.362","7.6","2.087","14.945","2.35","11.55","29.4023","4.65333","57.28","0","SATNPRO1509","31.37","0.4394","5"],
    [13595,"HCEP03730566","2024-02-16 19:30:00","9.9639","3.25386","25.917","5.354","7.6","0.553","6.027","0.04","1.72","29.401","4.65316","57.19","0","SATNPRO1509","31.242","0.43756","5"],
    [13596,"HCEP03730566","2024-02-16 19:45:00","9.962","3.25373","26.091","5.35","7.6","9.073","803.262","2.82","281.96","29.4013","4.65325","57.15","0","SATNPRO1509","31.322","0.4387","5"],
    [13597,"HCEP03730566","2024-02-16 20:00:00","9.9681","3.2544","26.204","5.331","7.6","0.567","7.885","0.04","2.7","29.4029","4.65338","56.96","0","SATNPRO1509","31.224","0.43734","5"],
    [13598,"HCEP03730566","2024-02-16 20:15:00","9.9757","3.25534","26.379","5.306","7.59","0.964","62.18","0.69","42.68","29.4061","4.65372","56.7","0","SATNPRO1509","31.316","0.43864","5"],
    [13599,"HCEP03730566","2024-02-16 20:30:00","9.9754","3.25544","26.53","5.301","7.59","0.537","8.824","0.03","14.96","29.4073","4.6539","56.64","0","SATNPRO1509","31.38","0.43952","5"],
    [13600,"HCEP03730566","2024-02-16 20:45:00","9.9774","3.25566","26.706","5.286","7.59","4.081","83.111","2.07","29.46","29.4077","4.65395","56.49","0","SATNPRO1509","31.318","0.43868","5"],
    [13601,"HCEP03730566","2024-02-16 21:00:00","9.9803","3.2558","26.857","5.273","7.59","0.551","5.174","0.02","1.19","29.4067","4.65375","56.35","0","SATNPRO1509","31.244","0.43764","5"],
    [13602,"HCEP03730566","2024-02-16 21:15:00","9.9805","3.25591","26.961","5.275","7.59","0.539","4.765","0.02","0.29","29.4076","4.65389","56.37","0","SATNPRO1509","31.380000000000003","0.43954","5"],
    [13603,"HCEP03730566","2024-02-16 21:30:00","9.981","3.25601","27.108","5.254","7.59","0.535","4.859","0.02","0.18","29.4082","4.65398","56.15","0","SATNPRO1509","31.244","0.43766","5"],
    [13604,"HCEP03730566","2024-02-16 21:45:00","9.9853","3.25648","27.206","5.256","7.59","0.545","4.647","0.01","0.13","29.409300000000002","4.65407","56.17","0","SATNPRO1509","31.2","0.437","5"],
    [13605,"HCEP03730566","2024-02-16 22:00:00","9.9922","3.25716","27.287","5.219","7.59","0.541","4.627","0.02","0.13","29.4105","4.65412","55.79","0","SATNPRO1509","31.224","0.43734","5"],
    [13606,"HCEP03730566","2024-02-16 22:15:00","9.9973","3.25768","27.341","5.223","7.59","0.533","4.344","0.01","0.16","29.4114","4.65418","55.84","0","SATNPRO1509","31.218","0.43728","5"],
    [13607,"HCEP03730566","2024-02-16 22:30:00","10.0004","3.25804","27.446","5.195","7.59","0.538","4.546","0.02","0.16","29.4125","4.65429","55.54","0","SATNPRO1509","31.286","0.4382","5"],
    [13608,"HCEP03730566","2024-02-16 22:45:00","10.0029","3.25845","27.525","5.198","7.58","0.542","4.414","0.02","0.24","29.4146","4.65454","55.58","0","SATNPRO1509","31.378","0.43952","5"],
    [13609,"HCEP03730566","2024-02-16 23:00:00","10.0133","3.25964","27.486","5.148","7.58","0.551","5.249","0.02","0.6","29.418","4.65485","55.06","0","SATNPRO1509","31.233999999999998","0.4375","5"],
    [13610,"HCEP03730566","2024-02-16 23:15:00","10.022","3.26057","27.559","5.109","7.58","0.524","4.389","0.01","0.17","29.4202","4.65503","54.65","0","SATNPRO1509","31.418","0.4401","5"],
    [13611,"HCEP03730566","2024-02-16 23:30:00","10.0267","3.26109","27.575","5.088","7.58","0.532","4.576","0.03","0.59","29.4215","4.65514","54.44","0","SATNPRO1509","31.412","0.43998","5"],
    [13612,"HCEP03730566","2024-02-16 23:45:00","10.0242","3.2607","27.568","5.108","7.58","12.456","484.717","5.65","383.97","29.4197","4.65492","54.64","0","SATNPRO1509","31.452","0.44058","5"],
    [13613,"HCEP03730566","2024-02-17 00:00:00","10.021","3.26027","27.628","5.128","7.58","0.611","13.164","0.06","11.11","29.418","4.65473","54.85","0","SATNPRO1509","31.406","0.43992","5"],
    [13614,"HCEP03730566","2024-02-17 00:15:00","10.0226","3.26046","27.61","5.121","7.58","0.532","4.172","0.02","0.21","29.4185","4.65478","54.78","0","SATNPRO1509","31.416","0.44004","5"],
    [13615,"HCEP03730566","2024-02-17 00:30:00","10.0235","3.26069","27.613","5.108","7.58","0.521","4.141","0.02","0.14","29.4202","4.65501","54.64","0","SATNPRO1509","31.426","0.44018","5"],
    [13616,"HCEP03730566","2024-02-17 00:45:00","10.0089","3.25852","27.623","5.161","7.58","0.526","3.399","0.02","0.13","29.4104","4.65385","55.19","0","SATNPRO1509","31.53","0.44158","5"],
    [13617,"HCEP03730566","2024-02-17 01:00:00","9.9929","3.25626","27.584","5.131","7.57","0.634","5.34","0.14","3.5","29.4009","4.65275","54.85","0","SATNPRO1509","31.55","0.4419","5"],
    [13618,"HCEP03730566","2024-02-17 01:15:00","9.9457","3.24991","27.552","5.365","7.59","0.541","3.146","0.02","0.12","29.3757","4.64995","57.28","0","SATNPRO1509","31.644","0.4432","5"],
    [13619,"HCEP03730566","2024-02-17 01:30:00","10.0007","3.25781","27.488","5.279","7.59","1.357","25.975","0.39","8.06","29.41","4.65392","56.44","0","SATNPRO1509","31.406","0.43988","5"],
    [13620,"HCEP03730566","2024-02-17 01:45:00","9.9998","3.25798","27.431","5.156","7.58","0.581","5.174","0.02","0.22","29.4125","4.65429","55.13","0","SATNPRO1509","31.198","0.437","5"],
    [13621,"HCEP03730566","2024-02-17 02:00:00","9.9982","3.25784","27.446","5.133","7.58","0.61","4.737","0.04","0.16","29.4124","4.6543","54.88","0","SATNPRO1509","31.04","0.43474","5"],
    [13622,"HCEP03730566","2024-02-17 02:15:00","9.9945","3.25735","27.393","5.118","7.58","0.56","5.316","0.02","1.11","29.4104","4.65408","54.71","0","SATNPRO1509","31.041999999999998","0.4348","5"],
    [13623,"HCEP03730566","2024-02-17 02:30:00","9.9768","3.25531","27.36","5.176","7.58","0.539","4.65","0.01","0.18","29.4044","4.65352","55.31","0","SATNPRO1509","31.124","0.43594","5"],
    [13624,"HCEP03730566","2024-02-17 02:45:00","9.9601","3.25351","27.337","5.223","7.58","0.561","4.973","0.01","0.27","29.4001","4.65319","55.79","0","SATNPRO1509","31.156","0.4364","5"],
    [13625,"HCEP03730566","2024-02-17 03:00:00","9.9362","3.25094","27.319","5.314","7.59","0.544","4.554","0.02","0.22","29.3938","4.65268","56.73","0","SATNPRO1509","31.182000000000002","0.43672","5"],
    [13626,"HCEP03730566","2024-02-17 03:15:00","9.9276","3.24997","27.298","5.377","7.59","0.558","4.906","0.02","0.53","29.3911","4.65245","57.39","0","SATNPRO1509","31.154","0.43638","5"],
    [13627,"HCEP03730566","2024-02-17 03:30:00","9.9086","3.24778","27.217","5.459","7.6","0.54","4.456","0.03","0.21","29.3846","4.65184","58.24","0","SATNPRO1509","31.32","0.4387","5"],
    [13628,"HCEP03730566","2024-02-17 03:45:00","9.9033","3.24719","27.275","5.509","7.6","0.545","4.349","0.02","0.21","29.3829","4.65168","58.77","0","SATNPRO1509","31.34","0.43896","5"],
    [13629,"HCEP03730566","2024-02-17 04:00:00","9.9012","3.24699","27.259","5.515","7.61","0.532","4.286","0.01","0.19","29.3827","4.65169","58.82","0","SATNPRO1509","31.378","0.4395","5"],
    [13630,"HCEP03730566","2024-02-17 04:15:00","9.8982","3.24673","27.247","5.517","7.61","0.569","4.534","0.12","0.65","29.3825","4.65171","58.84","0","SATNPRO1509","31.252","0.4377","5"],
    [13631,"HCEP03730566","2024-02-17 04:30:00","9.8932","3.24619","27.194","5.528","7.61","0.554","4.633","0.02","0.45","29.3813","4.65161","58.96","0","SATNPRO1509","31.32","0.4387","5"],
    [13632,"HCEP03730566","2024-02-17 04:45:00","9.8878","3.2455","27.142","5.548","7.6","2.643","48.706","0.8","14.24","29.3788","4.65134","59.16","0","SATNPRO1509","31.494","0.44116","5"],
    [13633,"HCEP03730566","2024-02-17 05:00:00","9.8823","3.24492","27.135","5.574","7.61","4.836","82.517","1.74","19.74","29.3775","4.65125","59.43","0","SATNPRO1509","31.462","0.44068","5"],
    [13634,"HCEP03730566","2024-02-17 05:15:00","9.8783","3.24459","27.137","5.604","7.61","0.544","4.12","0.03","0.35","29.3773","4.6513","59.74","0","SATNPRO1509","31.634","0.44308","5"],
    [13635,"HCEP03730566","2024-02-17 05:30:00","9.8785","3.24464","27.109","5.611","7.61","0.514","3.942","0.01","0.21","29.3777","4.65135","59.82","0","SATNPRO1509","31.466","0.44074","5"],
    [13636,"HCEP03730566","2024-02-17 05:45:00","9.8792","3.2447","27.159","5.592","7.61","0.534","4.343","0.01","0.31","29.3777","4.65134","59.61","0","SATNPRO1509","31.45","0.44048","5"],
    [13637,"HCEP03730566","2024-02-17 06:00:00","9.8717","3.24384","27.157","5.602","7.61","0.514","4.158","0.02","0.21","29.3751","4.6511","59.72","0","SATNPRO1509","31.566","0.44212","5"],
    [13638,"HCEP03730566","2024-02-17 06:15:00","9.8657","3.24284","27.225","5.609","7.62","0.547","4.359","0.02","0.24","29.37","4.65047","59.78","0","SATNPRO1509","31.434","0.44032","5"],
    [13639,"HCEP03730566","2024-02-17 06:30:00","9.8577","3.24211","27.262","5.626","7.62","0.686","11.225","0.42","11.17","29.3692","4.65049","59.95","0","SATNPRO1509","31.419999999999998","0.44008","5"],
    [13640,"HCEP03730566","2024-02-17 06:45:00","9.8523","3.24168","27.33","5.657","7.62","0.526","7.247","0.1","6.23","29.3693","4.6506","60.27","0","SATNPRO1509","31.504","0.4413","5"],
    [13641,"HCEP03730566","2024-02-17 07:00:00","9.85","3.24148","27.339","5.669","7.62","0.746","14.462","0.35","9.88","29.3691","4.65062","60.4","0","SATNPRO1509","31.516000000000002","0.4414","5"],
    [13642,"HCEP03730566","2024-02-17 07:15:00","9.849","3.24139","27.429","5.651","7.62","0.572","5.203","0.04","0.53","29.369","4.65062","60.2","0","SATNPRO1509","31.456","0.44056","5"],
    [13643,"HCEP03730566","2024-02-17 07:30:00","9.8447","3.24083","27.461","5.665","7.62","0.51","4.733","0.03","0.61","29.3669","4.6504","60.35","0","SATNPRO1509","31.514","0.44138","5"],
    [13644,"HCEP03730566","2024-02-17 07:45:00","9.8403","3.24052","27.517","5.64","7.62","0.521","4.967","0.02","0.22","29.3673","4.65053","60.07","0","SATNPRO1509","31.296","0.43834","5"],
    [13645,"HCEP03730566","2024-02-17 08:00:00","9.8392","3.24039","27.574","5.618","7.62","13.604","698.829","3.02","435.79","29.3669","4.6505","59.84","0","SATNPRO1509","31.336000000000002","0.43886","5"],
    [13646,"HCEP03730566","2024-02-17 08:15:00","9.8376","3.24047","27.642","5.591","7.61","1.121","35.278","0.92","33.51","29.369","4.65083","59.55","0","SATNPRO1509","31.112","0.4358","5"],
    [13647,"HCEP03730566","2024-02-17 08:30:00","9.8354","3.2407","27.718","5.585","7.61","0.69","25.282","0.24","30.03","29.373","4.65144","59.48","0","SATNPRO1509","31.146","0.43628","5"],
    [13648,"HCEP03730566","2024-02-17 08:45:00","9.8316","3.24058","27.767","5.602","7.61","1.175","30.266","0.64","16.41","29.3749","4.65178","59.66","0","SATNPRO1509","31.114","0.43578","5"],
    [13649,"HCEP03730566","2024-02-17 09:00:00","9.8268","3.24029","27.79","5.609","7.61","0.709","18.047","0.17","15.38","29.3759","4.652","59.73","0","SATNPRO1509","31.14","0.43614","5"],
    [13650,"HCEP03730566","2024-02-17 09:15:00","9.8256","3.24023","27.832","5.618","7.62","0.57","5.446","0.02","0.65","29.3763","4.65208","59.83","0","SATNPRO1509","31.174","0.4367","5"],
    [13651,"HCEP03730566","2024-02-17 09:30:00","9.8214","3.23975","27.86","5.64","7.62","2.473","32.599","0.92","8.69","29.3748","4.65195","60.05","0","SATNPRO1509","31.376","0.43952","5"],
    [13652,"HCEP03730566","2024-02-17 09:45:00","9.8188","3.2395","27.829","5.643","7.62","1.048","19.978","0.53","16.81","29.3744","4.65194","60.08","0","SATNPRO1509","31.178","0.43668","5"],
    [13653,"HCEP03730566","2024-02-17 10:00:00","9.8177","3.23926","27.845","5.636","7.62","0.742","6.601","0.2","0.66","29.3729","4.65174","60","0","SATNPRO1509","31.236","0.4375","5"],
    [13654,"HCEP03730566","2024-02-17 10:15:00","9.821","3.2397","27.868","5.619","7.62","3.964","45.742","4.79","46.05","29.3747","4.65194","59.82","0","SATNPRO1509","31.142","0.43618","5"],
    [13655,"HCEP03730566","2024-02-17 10:30:00","9.8194","3.23962","27.93","5.62","7.62","1.035","22.633","0.23","17.46","29.3751","4.65203","59.83","0","SATNPRO1509","31.25","0.4377","5"],
    [13656,"HCEP03730566","2024-02-17 10:45:00","9.8212","3.23987","27.78","5.634","7.62","1.174","14.875","0.19","3.56","29.3762","4.65215","59.99","0","SATNPRO1509","31.224","0.43736","5"],
    [13657,"HCEP03730566","2024-02-17 11:00:00","9.8193","3.23968","27.822","5.655","7.62","0.771","9.343","0.31","4.61","29.3759","4.65214","60.21","0","SATNPRO1509","31.32","0.43868","5"],
    [13658,"HCEP03730566","2024-02-17 11:15:00","9.8282","3.24062","27.769","5.654","7.62","0.598","5.701","0.09","1.62","29.378","4.65229","60.21","0","SATNPRO1509","31.296","0.43836","5"],
    [13659,"HCEP03730566","2024-02-17 11:30:00","9.8324","3.24108","27.638","5.631","7.62","0.873","25.147","0.19","15.72","29.3793","4.65239","59.97","0","SATNPRO1509","31.296","0.43832","5"],
    [13660,"HCEP03730566","2024-02-17 11:45:00","9.8433","3.24248","27.568","5.597","7.62","0.838","10.678","0.5","9.8","29.3845","4.65295","59.63","0","SATNPRO1509","31.188","0.43688","5"],
    [13661,"HCEP03730566","2024-02-17 12:00:00","9.8505","3.24325","27.482","5.562","7.61","0.541","5.183","0.02","0.2","29.3864","4.65309","59.26","0","SATNPRO1509","31.13","0.43602","5"],
    [13662,"HCEP03730566","2024-02-17 12:15:00","9.8571","3.24411","27.4","5.526","7.61","0.556","5.682","0.03","0.25","29.3897","4.65344","58.89","0","SATNPRO1509","31.086","0.43542","5"],
    [13663,"HCEP03730566","2024-02-17 12:30:00","9.8585","3.2443","27.245","5.531","7.61","0.527","4.805","0.02","0.17","29.3906","4.65353","58.94","0","SATNPRO1509","31.182","0.43674","5"],
    [13664,"HCEP03730566","2024-02-17 12:45:00","9.8604","3.24423","27.13","5.519","7.61","0.552","5.803","0.02","0.46","29.3883","4.65318","58.82","0","SATNPRO1509","31.122","0.43592","5"],
    [13665,"HCEP03730566","2024-02-17 13:00:00","9.8598","3.24393","26.992","5.501","7.59","0.538","5.48","0.02","0.32","29.3858","4.65282","58.62","0","SATNPRO1509","31.234","0.43746","5"],
    [13666,"HCEP03730566","2024-02-17 13:15:00","9.8591","3.24365","26.834","5.327","7.6","0.532","5.192","0.02","0.24","29.3837","4.65251","56.77","0","SATNPRO1509","31.294","0.43836","5"],
    [13667,"HCEP03730566","2024-02-17 13:30:00","9.8607","3.24343","26.646","5.302","7.6","0.534","5.367","0.01","0.32","29.3802","4.65198","56.51","0","SATNPRO1509","31.304","0.43846","5"],
    [13668,"HCEP03730566","2024-02-17 13:45:00","9.8603","3.24318","26.433","5.551","7.6","0.617","6.106","0.05","0.92","29.3781","4.65168","59.16","0","SATNPRO1509","31.542","0.44184","5"],
    [13669,"HCEP03730566","2024-02-17 14:00:00","9.8539","3.2426","26.273","5.546","7.6","0.521","4.079","0.02","0.19","29.3775","4.65169","59.09","0","SATNPRO1509","31.758","0.44484","5"],
    [13670,"HCEP03730566","2024-02-17 14:15:00","9.8562","3.24288","26.075","5.415","7.61","0.545","3.92","0.02","0.15","29.3785","4.65179","57.71","0","SATNPRO1509","31.734","0.44448","5"],
    [13671,"HCEP03730566","2024-02-17 14:30:00","9.8625","3.24352","25.87","5.661","7.62","0.527","4.179","0.01","0.23","29.38","4.65188","60.34","0","SATNPRO1509","31.708","0.44414","5"],
    [13672,"HCEP03730566","2024-02-17 14:45:00","9.8646","3.24369","25.706","5.654","7.62","0.81","5.51","0.25","0.73","29.38","4.65184","60.26","0","SATNPRO1509","31.664","0.4435","5"],
    [13673,"HCEP03730566","2024-02-17 15:00:00","9.8606","3.24321","25.568","5.669","7.62","0.648","8.009","0.14","3.33","29.3785","4.65168","60.41","0","SATNPRO1509","31.736","0.44454","5"],
    [13674,"HCEP03730566","2024-02-17 15:15:00","9.8623","3.24338","25.403","5.677","7.62","0.556","4.737","0.01","0.16","29.3789","4.6517","60.5","0","SATNPRO1509","31.91","0.44698","5"],
    [13675,"HCEP03730566","2024-02-17 15:30:00","9.8713","3.24421","25.317","5.665","7.62","4.244","84.717","4.26","26.88","29.38","4.6517","60.39","0","SATNPRO1509","31.808","0.44552","5"],
    [13676,"HCEP03730566","2024-02-17 15:45:00","9.8803","3.2453","25.188","5.64","7.62","3.671","55.113","4.82","38.15","29.3836","4.65205","60.14","0","SATNPRO1509","31.772000000000002","0.44502","5"],
    [13677,"HCEP03730566","2024-02-17 16:00:00","9.8924","3.24658","25.11","5.576","7.62","0.613","7.769","0.13","6.55","29.3866","4.65227","59.46","0","SATNPRO1509","31.642","0.4432","5"],
    [13678,"HCEP03730566","2024-02-17 16:15:00","9.9006","3.24755","25.002","5.54","7.61","5.74","80.785","5.15","28.85","29.3896","4.65256","59.09","0","SATNPRO1509","31.556","0.44202","5"],
    [13679,"HCEP03730566","2024-02-17 16:30:00","9.9078","3.24839","24.953","5.52","7.61","4.31","67.186","4.05","45.36","29.3923","4.65282","58.9","0","SATNPRO1509","31.636","0.44314","5"],
    [13680,"HCEP03730566","2024-02-17 16:45:00","9.911","3.2487","24.902","5.511","7.61","2.304","62.912","1.56","35.29","29.3928","4.65283","58.81","0","SATNPRO1509","31.632","0.44306","5"],
    [13681,"HCEP03730566","2024-02-17 17:00:00","9.918","3.24953","24.88","5.496","7.61","3.729","63.369","3.57","46.27","29.3954","4.65308","58.65","0","SATNPRO1509","31.632","0.44304","5"],
    [13682,"HCEP03730566","2024-02-17 17:15:00","9.9266","3.25038","24.866","5.464","7.61","1.296","47.587","0.51","35.76","29.397","4.65316","58.32","0","SATNPRO1509","31.624","0.44294","5"],
    [13683,"HCEP03730566","2024-02-17 17:30:00","9.9363","3.25134","24.879","5.417","7.6","7.02","76.343","5.4","38.14","29.3987","4.65325","57.83","0","SATNPRO1509","31.528","0.44162","5"],
    [13684,"HCEP03730566","2024-02-17 17:45:00","9.9488","3.25262","24.872","5.361","7.6","0.527","4.183","0.02","0.19","29.4013","4.6534","57.25","0","SATNPRO1509","31.444","0.44042","5"],
    [13685,"HCEP03730566","2024-02-17 18:00:00","9.9647","3.25421","24.884","5.286","7.59","0.532","4.55","0.02","0.29","29.4043","4.65356","56.47","0","SATNPRO1509","31.486","0.44106","5"],
    [13686,"HCEP03730566","2024-02-17 18:15:00","9.9821","3.25577","24.935","5.189","7.59","0.625","12.705","0.68","20.84","29.4057","4.65347","55.46","0","SATNPRO1509","31.466","0.4407","5"],
    [13687,"HCEP03730566","2024-02-17 18:30:00","10.0091","3.25832","24.974","5.051","7.58","0.516","4.905","0.02","0.45","29.4092","4.65353","54.01","0","SATNPRO1509","31.304","0.43844","5"],
    [13688,"HCEP03730566","2024-02-17 18:45:00","10.0273","3.25995","25.044","4.92","7.57","0.538","4.978","0.01","0.23","29.4107","4.65344","52.63","0","SATNPRO1509","31.228","0.43742","5"],
    [13689,"HCEP03730566","2024-02-17 19:00:00","10.0479","3.26197","25.13","4.785","7.56","0.522","5.514","0.02","0.47","29.4142","4.6536","51.22","0","SATNPRO1509","31.194","0.43692","5"],
    [13690,"HCEP03730566","2024-02-17 19:15:00","10.0673","3.26387","25.227","4.666","7.55","0.899","12.308","0.18","2.99","29.4172","4.65372","49.97","0","SATNPRO1509","31.144","0.4362","5"],
    [13691,"HCEP03730566","2024-02-17 19:30:00","10.0776","3.2647","25.318","4.584","7.54","0.513","13.963","0.05","23.18","29.4171","4.65353","49.09","0","SATNPRO1509","31.216","0.43726","5"],
    [13692,"HCEP03730566","2024-02-17 19:45:00","10.0732","3.26376","25.47","4.592","7.54","0.553","7.718","0.11","4.44","29.4112","4.65277","49.18","0","SATNPRO1509","31.244","0.43766","5"],
    [13693,"HCEP03730566","2024-02-17 20:00:00","10.0675","3.26281","25.581","4.649","7.54","0.5","6.516","0.03","2.21","29.4063","4.65218","49.78","0","SATNPRO1509","31.266000000000002","0.4379","5"],
    [13694,"HCEP03730566","2024-02-17 20:15:00","10.0699","3.26265","25.723","4.67","7.54","0.524","6.757","0.03","0.39","29.4028","4.65164","50","0","SATNPRO1509","31.41","0.43994","5"],
    [13695,"HCEP03730566","2024-02-17 20:30:00","10.101","3.26535","25.844","4.596","7.54","0.788","9.855","0.08","5.63","29.4044","4.65136","49.24","0","SATNPRO1509","31.468","0.44076","5"],
    [13696,"HCEP03730566","2024-02-17 20:45:00","10.1159","3.26678","25.97","4.513","7.53","0.619","9.234","0.06","2.43","29.4066","4.65143","48.37","0","SATNPRO1509","31.482","0.44096","5"],
    [13697,"HCEP03730566","2024-02-17 21:00:00","10.1241","3.26755","26.115","4.465","7.53","2.111","28.838","0.8","7.27","29.4075","4.65143","47.86","0","SATNPRO1509","31.54","0.44178","5"],
    [13698,"HCEP03730566","2024-02-17 21:15:00","10.1328","3.26844","26.274","4.425","7.52","0.752","15.665","0.05","2.96","29.4092","4.65154","47.45","0","SATNPRO1509","31.524","0.44152","5"],
    [13699,"HCEP03730566","2024-02-17 21:30:00","10.1386","3.26898","26.42","4.39","7.52","0.887","21.398","0.09","5.08","29.4099","4.65155","47.08","0","SATNPRO1509","31.496","0.44112","5"],
    [13700,"HCEP03730566","2024-02-17 21:45:00","10.1443","3.26952","26.581","4.357","7.52","0.622","25.719","0.16","23.61","29.4106","4.65157","46.73","0","SATNPRO1509","31.434","0.4403","5"],
    [13701,"HCEP03730566","2024-02-17 22:00:00","10.1561","3.27064","26.743","4.306","7.52","0.475","10.833","0.04","8.4","29.412","4.65159","46.2","0","SATNPRO1509","31.414","0.44006","5"],
    [13702,"HCEP03730566","2024-02-17 22:15:00","10.1585","3.27087","26.887","4.273","7.51","0.714","58.584","0.08","16.76","29.4123","4.6516","45.84","0","SATNPRO1509","31.404","0.43984","5"],
    [13703,"HCEP03730566","2024-02-17 22:30:00","10.1717","3.27214","27.014","4.208","7.51","1.757","56.804","0.97","23.89","29.4142","4.65166","45.16","0","SATNPRO1509","31.372","0.43942","5"],
    [13704,"HCEP03730566","2024-02-17 22:45:00","10.1906","3.27389","27.128","4.106","7.5","0.626","11.76","0.18","12.79","29.4164","4.65166","44.08","0","SATNPRO1509","31.276","0.43804","5"],
    [13705,"HCEP03730566","2024-02-17 23:00:00","10.1949","3.27416","27.27","4.059","7.5","0.657","5.832","0.06","0.62","29.4155","4.65147","43.58","0","SATNPRO1509","31.262","0.4379","5"],
    [13706,"HCEP03730566","2024-02-17 23:15:00","10.1968","3.27428","27.398","4.032","7.5","0.513","4.25","0.02","0.28","29.4151","4.65139","43.3","0","SATNPRO1509","31.254","0.43776","5"],
    [13707,"HCEP03730566","2024-02-17 23:30:00","10.1946","3.2738","27.511","4.035","7.49","0.506","4.214","0.02","0.26","29.4121","4.65101","43.32","0","SATNPRO1509","31.236","0.4375","5"],
    [13708,"HCEP03730566","2024-02-17 23:45:00","10.1837","3.27277","27.597","4.069","7.49","0.527","4.553","0.03","0.42","29.4106","4.65098","43.68","0","SATNPRO1509","31.224","0.43736","5"],
    [13709,"HCEP03730566","2024-02-18 00:00:00","10.1738","3.27191","27.68","4.122","7.5","0.522","5.764","0.03","1.55","29.41","4.65107","44.24","0","SATNPRO1509","31.194","0.43694","5"],
    [13710,"HCEP03730566","2024-02-18 00:15:00","10.1707","3.27167","27.753","4.145","7.5","3.331","38.624","4.07","42.14","29.4101","4.65113","44.48","0","SATNPRO1509","31.136","0.43612","5"],
    [13711,"HCEP03730566","2024-02-18 00:30:00","10.1681","3.27144","27.808","4.066","7.5","0.869","15.437","0.17","6.46","29.4099","4.65114","43.63","0","SATNPRO1509","31.214","0.4372","5"],
    [13712,"HCEP03730566","2024-02-18 00:45:00","10.1607","3.27089","27.837","3.778","7.5","3.021","69.714","2.95","34.97","29.4104","4.65134","40.53","0","SATNPRO1509","31.25","0.43768","5"],
    [13713,"NA","2024-03-01 12:00:00",null,null,null,null,null,null,null,null,null,null,null,null,null,"SATNPRO1509","29.372","0.4114","5"],
    [13714,"HCEP03730566","2024-02-18 01:00:00","10.153","3.2702","27.856","4.011","7.5","0.508","4.183","0.02","0.17","29.4097","4.65137","43.03","0","SATNPRO1509","31.204","0.43702","5"],
    [13715,"HCEP03730566","2024-02-18 01:15:00","10.1475","3.26984","27.854","4.074","7.5","0.538","4.532","0.03","0.34","29.4107","4.6516","43.7","0","SATNPRO1509","31.302","0.43846","5"],
    [13716,"HCEP03730566","2024-02-18 01:30:00","10.1471","3.27","27.808","4.262","7.51","0.513","9.309","0.02","4.86","29.4125","4.65187","45.72","0","SATNPRO1509","31.396","0.43978","5"],
    [13717,"HCEP03730566","2024-02-18 01:45:00","10.1522","3.27067","27.795","4.251","7.51","0.52","4.369","0.02","0.16","29.4151","4.65216","45.6","0","SATNPRO1509","31.294","0.43832","5"],
    [13718,"HCEP03730566","2024-02-18 02:00:00","10.1583","3.2715","27.809","4.208","7.51","0.526","4.686","0.02","0.16","29.4185","4.65254","45.15","0","SATNPRO1509","31.35","0.43908","5"],
    [13719,"HCEP03730566","2024-02-18 02:15:00","10.1424","3.27011","27.78","4.219","7.51","0.535","4.769","0.01","0.17","29.4174","4.65265","45.26","0","SATNPRO1509","31.214","0.43722","5"],
    [13720,"HCEP03730566","2024-02-18 02:30:00","10.1314","3.26928","27.779","4.263","7.51","0.486","4.61","0.01","0.17","29.4182","4.65294","45.72","0","SATNPRO1509","31.196","0.43698","5"],
    [13721,"HCEP03730566","2024-02-18 02:45:00","10.1421","3.27054","27.7","4.193","7.51","0.499","4.665","0.02","0.46","29.422","4.6533","44.97","0","SATNPRO1509","31.154","0.43636","5"],
    [13722,"HCEP03730566","2024-02-18 03:00:00","10.1441","3.27087","27.693","4.162","7.5","0.483","4.549","0.01","0.11","29.4237","4.65351","44.64","0","SATNPRO1509","31.052","0.4349","5"],
    [13723,"HCEP03730566","2024-02-18 03:15:00","10.1495","3.27148","27.667","4.126","7.5","0.52","4.982","0.02","0.19","29.4255","4.65367","44.26","0","SATNPRO1509","31.01","0.43434","5"],
    [13724,"HCEP03730566","2024-02-18 03:30:00","10.1418","3.2709","27.605","4.143","7.5","7.214","333.527","0.32","15.78","29.4259","4.65386","44.44","0","SATNPRO1509","31.05","0.43492","5"],
    [13725,"HCEP03730566","2024-02-18 03:45:00","10.1219","3.269","27.587","4.222","7.5","5.389","83.774","5.47","25.48","29.4232","4.6538","45.27","0","SATNPRO1509","31.15","0.4363","5"],
    [13726,"HCEP03730566","2024-02-18 04:00:00","10.09","3.26588","27.577","4.395","7.51","16.789","685.758","3.69","307.71","29.418","4.65358","47.09","0","SATNPRO1509","31.122","0.43592","5"],
    [13727,"HCEP03730566","2024-02-18 04:15:00","10.0448","3.26142","27.488","4.652","7.52","0.606","5.462","0.09","0.45","29.4102","4.65322","49.79","0","SATNPRO1509","31.164","0.43652","5"],
    [13728,"HCEP03730566","2024-02-18 04:30:00","10.0156","3.2586","27.452","4.826","7.54","0.524","6.004","0.03","0.67","29.4058","4.65307","51.61","0","SATNPRO1509","31.222","0.43734","5"],
    [13729,"HCEP03730566","2024-02-18 04:45:00","10.0082","3.25793","27.437","4.888","7.55","0.509","4.818","0.01","0.18","29.4051","4.65309","52.27","0","SATNPRO1509","31.25","0.43768","5"],
    [13730,"HCEP03730566","2024-02-18 05:00:00","9.9971","3.25692","27.362","4.943","7.55","0.753","11.823","0.25","8.51","29.4041","4.65313","52.85","0","SATNPRO1509","31.262","0.43786","5"],
    [13731,"HCEP03730566","2024-02-18 05:15:00","9.9782","3.25512","27.352","5.045","7.56","0.498","4.387","0.01","0.13","29.4015","4.65308","53.91","0","SATNPRO1509","31.324","0.43874","5"],
    [13732,"HCEP03730566","2024-02-18 05:30:00","9.961","3.25333","27.316","5.153","7.57","0.62","5.864","0.1","1.05","29.3975","4.65279","55.04","0","SATNPRO1509","31.444","0.44044","5"],
    [13733,"HCEP03730566","2024-02-18 05:45:00","9.941","3.25134","27.29","5.238","7.58","0.583","5.48","0.05","0.53","29.3939","4.65262","55.93","0","SATNPRO1509","31.44","0.4404","5"],
    [13734,"HCEP03730566","2024-02-18 06:00:00","9.9218","3.24929","27.254","5.345","7.58","0.567","5.239","0.03","0.4","29.389","4.65224","57.04","0","SATNPRO1509","31.488","0.44108","5"],
    [13735,"HCEP03730566","2024-02-18 06:15:00","9.9115","3.24809","27.256","5.386","7.59","0.581","5.53","0.03","0.46","29.3853","4.65189","57.47","0","SATNPRO1509","31.471999999999998","0.44084","5"],
    [13736,"HCEP03730566","2024-02-18 06:30:00","9.9068","3.24754","27.247","5.401","7.59","0.534","5.109","0.07","1.18","29.3837","4.65173","57.62","0","SATNPRO1509","31.55","0.44192","5"],
    [13737,"HCEP03730566","2024-02-18 06:45:00","9.9038","3.24722","27.226","5.405","7.6","0.666","20.119","0.61","26.07","29.3829","4.65166","57.66","0","SATNPRO1509","31.534","0.44168","5"],
    [13738,"HCEP03730566","2024-02-18 07:00:00","9.9011","3.24684","27.258","5.417","7.6","7.69","74.251","5.33","35.41","29.3813","4.65149","57.78","0","SATNPRO1509","31.558","0.44202","5"],
    [13739,"HCEP03730566","2024-02-18 07:15:00","9.8978","3.2465","27.3","5.428","7.6","0.544","5.612","0.04","1.32","29.3806","4.65144","57.89","0","SATNPRO1509","31.576","0.44228","5"],
    [13740,"HCEP03730566","2024-02-18 07:30:00","9.8934","3.24601","27.318","5.454","7.6","1.049","73.197","0.4","32.01","29.3793","4.65133","58.16","0","SATNPRO1509","31.574","0.44222","5"],
    [13741,"HCEP03730566","2024-02-18 07:45:00","9.8909","3.24575","27.333","5.457","7.6","0.505","4.209","0.02","0.13","29.3786","4.65128","58.19","0","SATNPRO1509","31.508","0.44134","5"],
    [13742,"HCEP03730566","2024-02-18 08:00:00","9.8888","3.24557","27.351","5.461","7.6","0.715","8.922","0.21","7.16","29.3785","4.65131","58.24","0","SATNPRO1509","31.6","0.4426","5"],
    [13743,"HCEP03730566","2024-02-18 08:15:00","9.8883","3.24552","27.389","5.46","7.6","0.577","6.427","0.05","2.15","29.3785","4.6513","58.22","0","SATNPRO1509","31.508","0.4413","5"],
    [13744,"HCEP03730566","2024-02-18 08:30:00","9.8876","3.24552","27.385","5.459","7.6","0.512","4.484","0.01","0.26","29.3791","4.6514","58.21","0","SATNPRO1509","31.548","0.4419","5"],
    [13745,"HCEP03730566","2024-02-18 08:45:00","9.8857","3.24536","27.444","5.461","7.6","0.624","9.505","0.09","3.38","29.3789","4.65142","58.23","0","SATNPRO1509","31.55","0.44194","5"],
    [13746,"HCEP03730566","2024-02-18 09:00:00","9.8809","3.24487","27.471","5.466","7.6","0.544","6.783","0.11","6.69","29.378","4.65136","58.28","0","SATNPRO1509","31.508","0.4413","5"],
    [13747,"HCEP03730566","2024-02-18 09:15:00","9.8784","3.24462","27.519","5.47","7.6","0.525","4.679","0.01","0.21","29.3774","4.65133","58.31","0","SATNPRO1509","31.548","0.44192","5"],
    [13748,"HCEP03730566","2024-02-18 09:30:00","9.876","3.2444","27.491","5.476","7.6","0.53","4.737","0.05","0.56","29.3772","4.65135","58.38","0","SATNPRO1509","31.528","0.44162","5"],
    [13749,"HCEP03730566","2024-02-18 09:45:00","9.8716","3.24399","27.534","5.483","7.6","0.981","12.02","0.26","3.46","29.3766","4.65133","58.45","0","SATNPRO1509","31.46","0.44064","5"],
    [13750,"HCEP03730566","2024-02-18 10:00:00","9.8706","3.24389","27.632","5.488","7.6","0.549","7.247","0.05","7.16","29.3764","4.65133","58.5","0","SATNPRO1509","31.5","0.44124","5"],
    [13751,"HCEP03730566","2024-02-18 10:15:00","9.871","3.24403","27.643","5.486","7.6","0.552","5.109","0.06","1.74","29.3775","4.65147","58.48","0","SATNPRO1509","31.426000000000002","0.44018","5"],
    [13752,"HCEP03730566","2024-02-18 10:30:00","9.8742","3.24454","27.648","5.471","7.6","0.918","12.818","0.4","7.6","29.38","4.65178","58.32","0","SATNPRO1509","31.54","0.44176","5"],
    [13753,"HCEP03730566","2024-02-18 10:45:00","9.8733","3.24522","27.636","5.498","7.6","0.52","4.05","0.02","0.19","29.3875","4.65286","58.61","0","SATNPRO1509","31.536","0.44172","5"],
    [13754,"HCEP03730566","2024-02-18 11:00:00","9.8813","3.24626","27.62","5.484","7.6","0.524","4.84","0.02","0.34","29.3915","4.6533","58.48","0","SATNPRO1509","31.406000000000002","0.43986","5"],
    [13755,"HCEP03730566","2024-02-18 11:15:00","9.8812","3.24675","27.635","5.49","7.6","0.554","7.388","0.11","10.16","29.3965","4.65402","58.54","0","SATNPRO1509","31.62","0.44288","5"],
    [13756,"HCEP03730566","2024-02-18 11:30:00","9.88","3.24681","27.63","5.518","7.6","0.51","3.63","0.02","0.23","29.398","4.65425","58.84","0","SATNPRO1509","31.682","0.44376","5"],
    [13757,"HCEP03730566","2024-02-18 11:45:00","9.8805","3.24699","27.607","5.52","7.6","0.517","3.572","0.02","0.19","29.3995","4.65445","58.86","0","SATNPRO1509","31.686","0.4438","5"],
    [13758,"HCEP03730566","2024-02-18 12:00:00","9.8773","3.24681","27.581","5.531","7.6","0.943","13.269","0.51","8.46","29.4002","4.65462","58.97","0","SATNPRO1509","31.732","0.44452","5"],
    [13759,"HCEP03730566","2024-02-18 12:15:00","9.8821","3.24726","27.556","5.519","7.6","1.943","13.195","0.35","2.2","29.4009","4.65462","58.85","0","SATNPRO1509","31.624","0.44294","5"],
    [13760,"HCEP03730566","2024-02-18 12:30:00","9.8778","3.24692","27.472","5.518","7.6","0.734","15.822","0.21","4.71","29.4009","4.6547","58.84","0","SATNPRO1509","31.668","0.44358","5"],
    [13761,"HCEP03730566","2024-02-18 12:45:00","9.8773","3.2469","27.427","5.516","7.6","3.784","33.018","2.93","27.15","29.4012","4.65475","58.82","0","SATNPRO1509","31.662","0.44348","5"],
    [13762,"HCEP03730566","2024-02-18 13:00:00","9.8764","3.24679","27.303","5.51","7.6","1.438","22.324","0.12","2.03","29.4009","4.65471","58.75","0","SATNPRO1509","31.782","0.44516","5"],
    [13763,"HCEP03730566","2024-02-18 13:15:00","9.8762","3.24682","27.257","5.523","7.6","1.08","20.78","0.22","4.16","29.4013","4.65477","58.88","0","SATNPRO1509","31.698","0.44396","5"],
    [13764,"HCEP03730566","2024-02-18 13:30:00","9.8651","3.24619","27.115","5.561","7.61","0.496","3.027","0.02","0.17","29.4041","4.65535","59.28","0","SATNPRO1509","31.65","0.44334","5"],
    [13765,"HCEP03730566","2024-02-18 13:45:00","9.8311","3.24224","27.007","5.614","7.61","0.501","2.689","0.02","0.13","29.3923","4.65423","59.8","0","SATNPRO1509","31.936","0.44732","5"],
    [13766,"HCEP03730566","2024-02-18 14:00:00","9.8746","3.24681","26.874","5.613","7.61","0.493","3.539","0.01","0.29","29.4028","4.65499","59.84","0","SATNPRO1509","31.772000000000002","0.44502","5"],
    [13767,"HCEP03730566","2024-02-18 14:15:00","9.8904","3.24822","26.746","5.49","7.61","0.507","4.002","0.01","0.25","29.4041","4.6549","58.55","0","SATNPRO1509","31.598","0.44258","5"],
    [13768,"HCEP03730566","2024-02-18 14:30:00","9.9044","3.24914","26.592","5.412","7.6","2.922","74.607","4.75","23.2","29.402","4.65435","57.74","0","SATNPRO1509","31.526","0.44156","5"],
    [13769,"HCEP03730566","2024-02-18 14:45:00","9.8922","3.24685","26.393","5.385","7.6","1.266","30.577","1.99","32.95","29.389","4.65269","57.43","0","SATNPRO1509","31.376","0.43946","5"],
    [13770,"HCEP03730566","2024-02-18 15:00:00","9.8961","3.24733","26.24","5.369","7.6","0.535","4.859","0.01","0.26","29.3906","4.65285","57.26","0","SATNPRO1509","31.23","0.43742","5"],
    [13771,"HCEP03730566","2024-02-18 15:15:00","9.8959","3.24644","26.065","5.339","7.59","0.548","5.458","0.01","0.36","29.382","4.65161","56.94","0","SATNPRO1509","31.16","0.43646","5"],
    [13772,"HCEP03730566","2024-02-18 15:30:00","9.913","3.24818","25.904","5.296","7.59","0.543","5.389","0.03","0.24","29.3856","4.65183","56.5","0","SATNPRO1509","31.278","0.4381","5"],
    [13773,"HCEP03730566","2024-02-18 15:45:00","9.9028","3.2483","25.752","5.348","7.59","0.526","4.904","0.01","0.32","29.3951","4.65335","57.05","0","SATNPRO1509","31.74","0.44458","5"],
    [13774,"HCEP03730566","2024-02-18 16:00:00","9.8584","3.2445","25.632","5.551","7.6","0.498","4.311","0.02","0.19","29.3932","4.65383","59.16","0","SATNPRO1509","32.018","0.44848","5"],
    [13775,"HCEP03730566","2024-02-18 16:15:00","9.8296","3.2423","25.508","5.744","7.61","0.505","3.654","0.02","0.18","29.3947","4.65452","61.18","0","SATNPRO1509","32.058","0.44904","5"],
    [13776,"HCEP03730566","2024-02-18 16:30:00","9.8193","3.24157","25.384","5.846","7.62","0.484","3.324","0.02","0.16","29.3958","4.65485","62.25","0","SATNPRO1509","32.208","0.45112","5"],
    [13777,"HCEP03730566","2024-02-18 16:45:00","9.8158","3.24145","25.255","5.881","7.63","0.509","3.71","0.02","0.22","29.3975","4.65515","62.61","0","SATNPRO1509","32.234","0.45142","5"],
    [13778,"HCEP03730566","2024-02-18 17:00:00","9.8153","3.24157","25.149","5.892","7.63","0.495","3.55","0.01","0.18","29.3991","4.65538","62.74","0","SATNPRO1509","32.164","0.45052","5"],
    [13779,"HCEP03730566","2024-02-18 17:15:00","9.8165","3.24177","25.052","5.893","7.63","0.513","3.829","0.02","0.21","29.4002","4.65551","62.75","0","SATNPRO1509","32.236","0.45154","5"],
    [13780,"HCEP03730566","2024-02-18 17:30:00","9.8177","3.24197","24.969","5.893","7.63","0.652","6.739","0.18","5.03","29.4012","4.65562","62.75","0","SATNPRO1509","32.187999999999995","0.45086","5"],
    [13781,"HCEP03730566","2024-02-18 17:45:00","9.8193","3.24214","24.911","5.883","7.63","0.491","3.241","0.02","0.17","29.4018","4.65567","62.65","0","SATNPRO1509","32.26","0.45186","5"],
    [13782,"HCEP03730566","2024-02-18 18:00:00","9.8206","3.2423","24.864","5.872","7.63","0.757","11.098","0.18","4.59","29.4022","4.65571","62.53","0","SATNPRO1509","32.208","0.45114","5"],
    [13783,"HCEP03730566","2024-02-18 18:15:00","9.8217","3.24241","24.849","5.868","7.63","0.663","20.918","0.21","13.13","29.4025","4.65574","62.49","0","SATNPRO1509","32.198","0.45096","5"],
    [13784,"HCEP03730566","2024-02-18 18:30:00","9.8231","3.24255","24.835","5.862","7.63","0.515","3.591","0.1","1.65","29.4028","4.65575","62.43","0","SATNPRO1509","32.198","0.451","5"],
    [13785,"HCEP03730566","2024-02-18 18:45:00","9.8243","3.24266","24.846","5.851","7.63","0.791","15.842","0.11","3.19","29.4029","4.65574","62.32","0","SATNPRO1509","32.19","0.4509","5"],
    [13786,"HCEP03730566","2024-02-18 19:00:00","9.8243","3.24272","24.889","5.853","7.63","0.492","3.198","0.03","0.24","29.4035","4.65583","62.33","0","SATNPRO1509","32.23","0.45146","5"],
    [13787,"HCEP03730566","2024-02-18 19:15:00","9.8261","3.24292","24.927","5.846","7.63","0.503","3.022","0.05","0.12","29.404","4.65587","62.26","0","SATNPRO1509","32.266","0.45194","5"],
    [13788,"HCEP03730566","2024-02-18 19:30:00","9.8292","3.24333","24.982","5.825","7.63","0.495","3.545","0.02","0.22","29.4055","4.65604","62.05","0","SATNPRO1509","32.166000000000004","0.4505","5"],
    [13789,"NA","2024-03-01 12:15:00",null,null,null,null,null,null,null,null,null,null,null,null,null,"SATNPRO1509","29.528","0.4136","5"],
    [13790,"HCEP03730566","2024-02-18 19:45:00","9.832","3.2437","25.024","5.801","7.63","0.501","3.556","0.03","0.21","29.407","4.65621","61.79","0","SATNPRO1509","32.08","0.44934","5"],
    [13791,"HCEP03730566","2024-02-18 20:00:00","9.8322","3.24387","25.082","5.792","7.62","0.504","4.356","0.04","1.29","29.4084","4.65641","61.7","0","SATNPRO1509","32.184","0.4508","5"],
    [13792,"HCEP03730566","2024-02-18 20:15:00","9.8281","3.24349","25.138","5.816","7.62","0.51","3.976","0.02","0.27","29.4081","4.65644","61.95","0","SATNPRO1509","32.134","0.45008","5"],
    [13793,"HCEP03730566","2024-02-18 20:30:00","9.8309","3.24384","25.245","5.818","7.62","0.492","3.868","0.01","0.36","29.4092","4.65656","61.97","0","SATNPRO1509","32.19","0.4509","5"],
    [13794,"HCEP03730566","2024-02-18 20:45:00","9.8313","3.24376","25.356","5.812","7.62","0.498","3.975","0.01","0.32","29.4081","4.65639","61.91","0","SATNPRO1509","32.108000000000004","0.44972","5"],
    [13795,"HCEP03730566","2024-02-18 21:00:00","9.8315","3.24381","25.492","5.805","7.62","0.727","9.422","0.31","5.61","29.4083","4.65643","61.84","0","SATNPRO1509","32.098","0.44958","5"],
    [13796,"HCEP03730566","2024-02-18 21:15:00","9.8325","3.2439","25.618","5.794","7.62","0.537","4.64","0.06","0.53","29.4083","4.65642","61.72","0","SATNPRO1509","32.082","0.44934","5"],
    [13797,"HCEP03730566","2024-02-18 21:30:00","9.8337","3.24405","25.769","5.778","7.62","0.56","4.423","0.06","0.44","29.4088","4.65648","61.55","0","SATNPRO1509","32.028","0.4486","5"],
    [13798,"HCEP03730566","2024-02-18 21:45:00","9.8355","3.24421","25.93","5.767","7.62","0.528","4.036","0.05","0.35","29.4089","4.65647","61.44","0","SATNPRO1509","32.064","0.44912","5"],
    [13799,"HCEP03730566","2024-02-18 22:00:00","9.8394","3.24434","26.091","5.763","7.62","0.66","9.727","0.21","5.93","29.407","4.65615","61.4","0","SATNPRO1509","32.082","0.44938","5"],
    [13800,"HCEP03730566","2024-02-18 22:15:00","9.8377","3.24437","26.257","5.748","7.62","1.573","14.194","0.51","5.08","29.4086","4.65641","61.24","0","SATNPRO1509","32.083999999999996","0.44936","5"],
    [13801,"HCEP03730566","2024-02-18 22:30:00","9.8387","3.24453","26.412","5.747","7.62","8.836","2134.944","2.41","614.2","29.4092","4.65649","61.23","0","SATNPRO1509","31.994","0.44812","5"],
    [13802,"HCEP03730566","2024-02-18 22:45:00","9.843","3.24469","26.571","5.736","7.62","9.661","1741.844","1.38","346.86","29.4073","4.65615","61.12","0","SATNPRO1509","32.028","0.44864","5"],
    [13803,"HCEP03730566","2024-02-18 23:00:00","9.8475","3.24505","26.739","5.734","7.62","1.244","37.683","0.88","37.12","29.4072","4.65607","61.1","0","SATNPRO1509","32.117999999999995","0.44986","5"],
    [13804,"HCEP03730566","2024-02-18 23:15:00","9.8413","3.24504","26.908","5.742","7.62","10.167","780.428","0.57","214.25","29.4121","4.65688","61.17","0","SATNPRO1509","32.064","0.44912","5"],
    [13805,"HCEP03730566","2024-02-18 23:30:00","9.8442","3.24532","27.056","5.747","7.62","5.336","271.383","1.79","137.42","29.4125","4.65691","61.24","0","SATNPRO1509","32.112","0.44976","5"],
    [13806,"HCEP03730566","2024-02-18 23:45:00","9.8463","3.24564","27.191","5.723","7.62","0.499","3.891","0.02","0.34","29.4139","4.65707","60.99","0","SATNPRO1509","32.1","0.44964","5"],
    [13807,"HCEP03730566","2024-02-19 00:00:00","9.848","3.24585","27.325","5.697","7.62","0.49","3.692","0.03","0.19","29.4146","4.65716","60.71","0","SATNPRO1509","32.01","0.44832","5"],
    [13808,"HCEP03730566","2024-02-19 00:15:00","9.8521","3.24632","27.443","5.67","7.62","0.704","8.179","0.49","9.89","29.4159","4.65728","60.42","0","SATNPRO1509","31.912","0.44696","5"],
    [13809,"HCEP03730566","2024-02-19 00:30:00","9.8515","3.24619","27.569","5.669","7.61","5.056","39.32","3.75","27.49","29.415","4.65717","60.41","0","SATNPRO1509","32.074","0.44928","5"],
    [13810,"HCEP03730566","2024-02-19 00:45:00","9.8517","3.24617","27.699","5.69","7.61","0.487","3.973","0.02","0.38","29.4146","4.65712","60.64","0","SATNPRO1509","32.106","0.4497","5"],
    [13811,"HCEP03730566","2024-02-19 01:00:00","9.8499","3.24588","27.782","5.721","7.62","0.656","8.281","0.3","8.77","29.4132","4.65695","60.96","0","SATNPRO1509","31.992","0.44814","5"],
    [13812,"HCEP03730566","2024-02-19 01:15:00","9.8454","3.24552","27.854","5.754","7.62","0.513","3.216","0.02","0.23","29.4131","4.65702","61.32","0","SATNPRO1509","32.296","0.45236","5"],
    [13813,"HCEP03730566","2024-02-19 01:30:00","9.8525","3.24619","27.9","5.701","7.62","0.511","3.099","0.03","0.13","29.4141","4.65704","60.76","0","SATNPRO1509","31.966","0.44774","5"],
    [13814,"HCEP03730566","2024-02-19 01:45:00","9.8562","3.24654","27.912","5.652","7.62","0.487","3.247","0.01","0.19","29.4145","4.65704","60.23","0","SATNPRO1509","32.012","0.4484","5"],
    [13815,"HCEP03730566","2024-02-19 02:00:00","9.8555","3.24642","27.904","5.652","7.61","0.571","7.032","0.06","2.45","29.4139","4.65696","60.23","0","SATNPRO1509","32.136","0.45012","5"],
    [13816,"HCEP03730566","2024-02-19 02:15:00","9.8522","3.24433","27.929","5.687","7.61","0.489","3.03","0.02","0.41","29.3957","4.65441","60.6","0","SATNPRO1509","32.246","0.45164","5"],
    [13817,"HCEP03730566","2024-02-19 02:30:00","9.8531","3.24538","27.938","5.688","7.62","0.481","3.6","0.01","0.16","29.4055","4.6558","60.62","0","SATNPRO1509","32","0.44824","5"],
    [13818,"HCEP03730566","2024-02-19 02:45:00","9.8573","3.24611","27.943","5.65","7.62","0.512","3.731","0.02","0.27","29.4094","4.65629","60.22","0","SATNPRO1509","31.908","0.44692","5"],
    [13819,"HCEP03730566","2024-02-19 03:00:00","9.8555","3.24632","27.948","5.613","7.61","0.472","4.413","0.01","0.23","29.4129","4.65682","59.82","0","SATNPRO1509","31.768","0.44498","5"],
    [13820,"HCEP03730566","2024-02-19 03:15:00","9.853","3.24599","27.947","5.619","7.61","0.875","20.219","0.49","22.43","29.4116","4.65668","59.89","0","SATNPRO1509","31.844","0.44604","5"],
    [13821,"HCEP03730566","2024-02-19 03:30:00","9.8507","3.24572","27.962","5.632","7.61","0.47","4.399","0.01","0.52","29.4109","4.65661","60.02","0","SATNPRO1509","31.836","0.44594","5"],
    [13822,"HCEP03730566","2024-02-19 03:45:00","9.8485","3.24547","27.939","5.651","7.62","0.532","5.19","0.16","3.42","29.4102","4.65655","60.21","0","SATNPRO1509","31.928","0.44718","5"],
    [13823,"HCEP03730566","2024-02-19 04:00:00","9.8471","3.24524","27.895","5.661","7.62","2.828","59.951","2.47","32.73","29.409","4.6564","60.32","0","SATNPRO1509","31.832","0.44584","5"],
    [13824,"HCEP03730566","2024-02-19 04:15:00","9.846","3.24474","27.875","5.669","7.62","0.492","3.904","0.02","0.19","29.4049","4.65583","60.4","0","SATNPRO1509","31.948","0.44746","5"],
    [13825,"HCEP03730566","2024-02-19 04:30:00","9.845","3.2443","27.802","5.682","7.62","0.475","3.671","0.01","0.16","29.4013","4.65533","60.55","0","SATNPRO1509","32.018","0.44846","5"],
    [13826,"HCEP03730566","2024-02-19 04:45:00","9.8455","3.24399","27.74","5.694","7.62","0.483","3.515","0.01","0.37","29.3979","4.65483","60.67","0","SATNPRO1509","32.106","0.44972","5"],
    [13827,"HCEP03730566","2024-02-19 05:00:00","9.8449","3.24367","27.696","5.705","7.62","0.493","4.689","0.06","1.11","29.395","4.65443","60.78","0","SATNPRO1509","32.098","0.44956","5"],
    [13828,"HCEP03730566","2024-02-19 05:15:00","9.8458","3.24226","27.636","5.715","7.62","0.762","6.908","0.07","0.8","29.3802","4.6523","60.88","0","SATNPRO1509","32.216","0.45122","5"],
    [13829,"HCEP03730566","2024-02-19 05:30:00","9.8475","3.2423","27.638","5.713","7.62","0.57","3.96","0.04","0.54","29.3792","4.65213","60.87","0","SATNPRO1509","32.288000000000004","0.45228","5"],
    [13830,"HCEP03730566","2024-02-19 05:45:00","9.8463","3.24289","27.569","5.705","7.62","0.467","2.935","0.01","0.96","29.3861","4.65313","60.78","0","SATNPRO1509","32.146","0.45026","5"],
    [13831,"HCEP03730566","2024-02-19 06:00:00","9.8459","3.24293","27.502","5.703","7.62","2.424","71.53","1.05","21.47","29.3869","4.65324","60.75","0","SATNPRO1509","32.176","0.45064","5"],
    [13832,"HCEP03730566","2024-02-19 06:15:00","9.8463","3.2431","27.446","5.692","7.62","4.723","78.089","1.65","32.73","29.3883","4.65343","60.65","0","SATNPRO1509","32.176","0.45062","5"],
    [13833,"HCEP03730566","2024-02-19 06:30:00","9.8486","3.24337","27.409","5.675","7.62","0.474","3.429","0.02","0.24","29.3891","4.6535","60.47","0","SATNPRO1509","32.176","0.45066","5"],
    [13834,"HCEP03730566","2024-02-19 06:45:00","9.8495","3.24406","27.377","5.666","7.62","2.751","60.897","2.63","20.41","29.3953","4.65437","60.37","0","SATNPRO1509","32.04","0.44876","5"],
    [13835,"HCEP03730566","2024-02-19 07:00:00","9.8496","3.2445","27.322","5.65","7.62","1.046","30.829","1.09","42.6","29.3997","4.655","60.21","0","SATNPRO1509","31.986","0.44802","5"],
    [13836,"HCEP03730566","2024-02-19 07:15:00","9.848","3.24426","27.307","5.657","7.62","0.453","5.384","0.03","2.97","29.3987","4.65488","60.27","0","SATNPRO1509","32.072","0.4492","5"],
    [13837,"HCEP03730566","2024-02-19 07:30:00","9.8464","3.24467","27.263","5.655","7.62","0.472","3.92","0.02","0.2","29.4041","4.65567","60.25","0","SATNPRO1509","31.924","0.44712","5"],
    [13838,"HCEP03730566","2024-02-19 07:45:00","9.8576","3.24736","27.271","5.609","7.61","0.758","11.372","0.2","6.03","29.4219","4.65803","59.78","0","SATNPRO1509","31.91","0.44692","5"],
    [13839,"HCEP03730566","2024-02-19 08:00:00","9.8603","3.24801","27.267","5.589","7.61","1.067","27.749","0.27","10.55","29.4262","4.6586","59.58","0","SATNPRO1509","31.828","0.44578","5"],
    [13840,"HCEP03730566","2024-02-19 08:15:00","9.8653","3.2492","27.246","5.592","7.61","0.713","7.877","0.09","1.49","29.4341","4.65964","59.62","0","SATNPRO1509","31.782","0.44516","5"],
    [13841,"HCEP03730566","2024-02-19 08:30:00","9.8611","3.24838","27.232","5.576","7.61","0.726","8.437","0.1","1.25","29.4293","4.65904","59.45","0","SATNPRO1509","31.682","0.44376","5"],
    [13842,"HCEP03730566","2024-02-19 08:45:00","9.8543","3.24737","27.226","5.518","7.61","0.604","7.449","0.14","2","29.4248","4.6585","58.82","0","SATNPRO1509","31.406","0.43992","5"],
    [13843,"HCEP03730566","2024-02-19 09:00:00","9.8527","3.24755","27.24","5.466","7.6","0.518","6.323","0.03","0.58","29.4278","4.65897","58.26","0","SATNPRO1509","31.286","0.4382","5"],
    [13844,"HCEP03730566","2024-02-19 09:15:00","9.8533","3.24788","27.274","5.457","7.6","0.509","5.567","0.01","0.42","29.4307","4.65936","58.17","0","SATNPRO1509","31.22","0.43728","5"],
    [13845,"HCEP03730566","2024-02-19 09:30:00","9.8539","3.24819","27.307","5.46","7.6","0.504","5.487","0.01","0.29","29.4333","4.65972","58.19","0","SATNPRO1509","31.476","0.44088","5"],
    [13846,"HCEP03730566","2024-02-19 09:45:00","9.8474","3.24802","27.338","5.453","7.6","1.542","16.206","0.42","4.07","29.4369","4.66036","58.11","0","SATNPRO1509","31.37","0.4394","5"],
    [13847,"HCEP03730566","2024-02-19 10:00:00","9.8476","3.24885","27.345","5.43","7.6","0.5","5.351","0.01","0.28","29.445","4.66151","57.88","0","SATNPRO1509","31.314","0.43862","5"],
    [13848,"HCEP03730566","2024-02-19 10:15:00","9.8505","3.24965","27.384","5.43","7.6","0.79","9.371","0.1","1.62","29.4506","4.66227","57.88","0","SATNPRO1509","31.312","0.43856","5"],
    [13849,"HCEP03730566","2024-02-19 10:30:00","9.8516","3.24989","27.403","5.426","7.6","0.516","5.398","0.1","0.77","29.4522","4.66247","57.84","0","SATNPRO1509","31.323999999999998","0.43874","5"],
    [13850,"HCEP03730566","2024-02-19 10:45:00","9.8544","3.25047","27.459","5.402","7.6","0.516","5.67","0.01","0.31","29.4557","4.66293","57.59","0","SATNPRO1509","31.278","0.43814","5"],
    [13851,"HCEP03730566","2024-02-19 11:00:00","9.857","3.251","27.478","5.396","7.59","0.489","5.615","0.02","0.24","29.4589","4.66335","57.53","0","SATNPRO1509","31.201999999999998","0.43704","5"],
    [13852,"HCEP03730566","2024-02-19 11:15:00","9.861","3.25179","27.505","5.386","7.59","0.535","5.854","0.03","0.51","29.4635","4.66394","57.43","0","SATNPRO1509","31.392","0.4397","5"],
    [13853,"HCEP03730566","2024-02-19 11:30:00","9.8654","3.25259","27.516","5.379","7.59","0.594","7.204","0.12","1.51","29.468","4.6645","57.37","0","SATNPRO1509","31.53","0.44164","5"],
    [13854,"HCEP03730566","2024-02-19 11:45:00","9.8696","3.25326","27.524","5.372","7.59","0.785","11.437","0.19","5.36","29.4712","4.66489","57.3","0","SATNPRO1509","31.384","0.43958","5"],
    [13855,"HCEP03730566","2024-02-19 12:00:00","9.8711","3.25364","27.558","5.371","7.59","0.918","12.733","0.22","4.19","29.4739","4.66525","57.29","0","SATNPRO1509","31.36","0.43928","5"],
    [13856,"HCEP03730566","2024-02-19 12:15:00","9.8728","3.2539","27.573","5.366","7.59","1.162","20.233","0.31","7.77","29.475","4.66538","57.23","0","SATNPRO1509","31.445999999999998","0.44046","5"],
    [13857,"HCEP03730566","2024-02-19 12:30:00","9.8749","3.25415","27.567","5.362","7.59","0.753","10.235","0.26","3.76","29.4758","4.66546","57.19","0","SATNPRO1509","31.192","0.4369","5"],
    [13858,"HCEP03730566","2024-02-19 12:45:00","9.8751","3.2542","27.566","5.363","7.59","0.554","5.887","0.05","0.64","29.4761","4.6655","57.21","0","SATNPRO1509","31.05","0.4349","5"],
    [13859,"HCEP03730566","2024-02-19 13:00:00","9.8748","3.25385","27.545","5.361","7.59","0.577","6.752","0.12","0.71","29.4728","4.66504","57.18","0","SATNPRO1509","31.148","0.43626","5"],
    [13860,"HCEP03730566","2024-02-19 13:15:00","9.8768","3.25404","27.519","5.35","7.59","0.517","5.84","0.02","0.28","29.4731","4.66504","57.06","0","SATNPRO1509","30.988","0.43408","5"],
    [13861,"HCEP03730566","2024-02-19 13:30:00","9.9409","3.26106","27.48","5.376","7.59","0.497","4.836","0.06","0.25","29.4912","4.66653","57.43","0","SATNPRO1509","31.701999999999998","0.444","5"],
    [13862,"HCEP03730566","2024-02-19 13:45:00","9.981","3.26644","27.438","5.409","7.59","0.449","3.75","0.01","0.25","29.5123","4.66888","57.85","0","SATNPRO1509","32.388","0.45364","5"],
    [13863,"HCEP03730566","2024-02-19 14:00:00","9.9839","3.267","27.372","5.431","7.59","0.457","3.565","0.03","0.2","29.5157","4.6693","58.09","0","SATNPRO1509","32.434","0.4543","5"],
    [13864,"HCEP03730566","2024-02-19 14:15:00","9.9929","3.26841","27.292","5.421","7.6","0.44","3.303","0.02","0.09","29.5224","4.67011","57.99","0","SATNPRO1509","32.354","0.45316","5"],
    [13865,"HCEP03730566","2024-02-19 14:30:00","10.0032","3.2699","27.198","5.374","7.6","0.452","3.753","0.03","0.51","29.529","4.67086","57.5","0","SATNPRO1509","32.49","0.45508","5"],
    [13866,"HCEP03730566","2024-02-19 14:45:00","10.0105","3.27094","27.08","5.402","7.6","0.474","3.425","0.09","0.28","29.5334","4.67137","57.81","0","SATNPRO1509","32.326","0.45278","5"],
    [13867,"HCEP03730566","2024-02-19 15:00:00","10.011","3.27088","26.944","5.398","7.6","0.436","3.379","0.02","0.18","29.5325","4.67122","57.78","0","SATNPRO1509","32.44","0.45438","5"],
    [13868,"HCEP03730566","2024-02-19 15:15:00","10.0225","3.27225","26.816","5.397","7.6","0.452","3.34","0.02","0.21","29.5369","4.67165","57.77","0","SATNPRO1509","32.406","0.45392","5"],
    [13869,"HCEP03730566","2024-02-19 15:30:00","10.0215","3.27238","26.665","5.401","7.6","0.438","3.136","0.01","0.22","29.5389","4.67195","57.82","0","SATNPRO1509","32.68","0.45776","5"],
    [13870,"HCEP03730566","2024-02-19 15:45:00","10.0278","3.2732","26.517","5.392","7.6","0.447","3.292","0.02","0.33","29.5422","4.6723","57.73","0","SATNPRO1509","32.722","0.45832","5"],
    [13871,"HCEP03730566","2024-02-19 16:00:00","10.0276","3.27326","26.34","5.413","7.6","0.428","2.671","0.02","0.28","29.5429","4.6724","57.96","0","SATNPRO1509","32.62","0.4569","5"],
    [13872,"HCEP03730566","2024-02-19 16:15:00","10.0187","3.27174","26.176","5.432","7.6","0.447","2.405","0.03","0.3","29.535","4.67141","58.15","0","SATNPRO1509","32.586","0.45644","5"],
    [13873,"HCEP03730566","2024-02-19 16:30:00","10.0034","3.26942","26.004","5.444","7.6","0.449","2.625","0.03","0.5","29.5245","4.67015","58.26","0","SATNPRO1509","32.588","0.45642","5"],
    [13874,"HCEP03730566","2024-02-19 16:45:00","9.9949","3.26832","25.792","5.463","7.6","0.437","2.622","0.01","0.15","29.5204","4.66971","58.44","0","SATNPRO1509","32.552","0.45592","5"],
    [13875,"HCEP03730566","2024-02-19 17:00:00","9.9991","3.26898","25.627","5.43","7.6","0.449","3.659","0.02","0.26","29.5237","4.6701","58.09","0","SATNPRO1509","32.480000000000004","0.4549","5"],
    [13876,"HCEP03730566","2024-02-19 17:15:00","10.0021","3.26949","25.417","5.387","7.6","0.463","4.461","0.02","1.03","29.5265","4.67042","57.64","0","SATNPRO1509","32.356","0.4532","5"],
    [13877,"HCEP03730566","2024-02-19 17:30:00","9.9995","3.26921","25.264","5.374","7.6","0.533","6.147","0.05","1.11","29.5258","4.67037","57.51","0","SATNPRO1509","32.396","0.45374","5"],
    [13878,"HCEP03730566","2024-02-19 17:45:00","9.9991","3.26914","25.197","5.387","7.6","0.418","4.673","0.02","1.49","29.5255","4.67032","57.63","0","SATNPRO1509","32.39","0.45368","5"],
    [13879,"HCEP03730566","2024-02-19 18:00:00","10.0002","3.26938","25.031","5.385","7.6","0.479","6.32","0.13","6.04","29.527","4.67051","57.62","0","SATNPRO1509","32.392","0.4537","5"],
    [13880,"HCEP03730566","2024-02-19 18:15:00","9.9999","3.26934","24.945","5.378","7.6","0.506","5.359","0.11","1.17","29.5269","4.67049","57.55","0","SATNPRO1509","32.364","0.45328","5"],
    [13881,"HCEP03730566","2024-02-19 18:30:00","9.9985","3.26915","24.861","5.381","7.6","7.613","51.232","9.41","35.32","29.5262","4.67041","57.58","0","SATNPRO1509","32.396","0.4538","5"],
    [13882,"HCEP03730566","2024-02-19 18:45:00","9.9973","3.26892","24.756","5.378","7.6","3.314","216.195","1.61","74.15","29.5249","4.67025","57.54","0","SATNPRO1509","32.378","0.45352","5"],
    [13883,"HCEP03730566","2024-02-19 19:00:00","9.9943","3.26841","24.707","5.389","7.6","0.454","4.779","0.06","3.26","29.5223","4.66992","57.65","0","SATNPRO1509","32.472","0.45484","5"],
    [13884,"HCEP03730566","2024-02-19 19:15:00","9.9917","3.26796","24.663","5.405","7.6","6.852","316.122","4.19","162.42","29.5199","4.66962","57.82","0","SATNPRO1509","32.364","0.4533","5"],
    [13885,"HCEP03730566","2024-02-19 19:30:00","9.9893","3.26769","24.675","5.414","7.6","5.421","243.097","2.31","102.41","29.5192","4.66955","57.91","0","SATNPRO1509","32.403999999999996","0.45388","5"],
    [13886,"HCEP03730566","2024-02-19 19:45:00","9.9821","3.26639","24.675","5.439","7.6","2.981","54.564","2.76","35.39","29.512","4.66865","58.17","0","SATNPRO1509","32.589999999999996","0.45648","5"],
    [13887,"HCEP03730566","2024-02-19 20:00:00","9.988","3.26753","24.657","5.446","7.6","0.443","4.145","0.02","0.32","29.5186","4.6695","58.25","0","SATNPRO1509","32.416000000000004","0.45406","5"],
    [13888,"HCEP03730566","2024-02-19 20:15:00","9.9919","3.26838","24.686","5.405","7.6","0.365","8.373","0.01","1.78","29.5239","4.67019","57.82","0","SATNPRO1509","32.418","0.45402","5"],
    [13889,"HCEP03730566","2024-02-19 20:30:00","9.991","3.26819","24.752","5.385","7.6","6.014","153.122","2.02","78.51","29.5227","4.67004","57.61","0","SATNPRO1509","32.344","0.453","5"],
    [13890,"HCEP03730566","2024-02-19 20:45:00","9.9841","3.26712","24.809","5.39","7.6","10.005","251.454","1.8","119.01","29.5177","4.66944","57.65","0","SATNPRO1509","32.27","0.45196","5"],
    [13891,"HCEP03730566","2024-02-19 21:00:00","9.9753","3.26602","24.913","5.403","7.6","2.411","51.403","1.3","15.52","29.5138","4.66904","57.78","0","SATNPRO1509","32.29","0.45226","5"],
    [13892,"HCEP03730566","2024-02-19 21:15:00","9.9698","3.26539","25.031","5.398","7.6","0.809","15.271","0.24","8.34","29.5119","4.66887","57.71","0","SATNPRO1509","32.254","0.45182","5"],
    [13893,"HCEP03730566","2024-02-19 21:30:00","9.9626","3.26449","25.142","5.407","7.6","0.879","63.541","0.34","40.41","29.5087","4.66854","57.8","0","SATNPRO1509","32.306","0.4525","5"],
    [13894,"HCEP03730566","2024-02-19 21:45:00","9.9458","3.26201","25.261","5.456","7.6","0.865","20.624","0.89","22.44","29.4976","4.66724","58.3","0","SATNPRO1509","32.4","0.4538","5"],
    [13895,"HCEP03730566","2024-02-19 22:00:00","9.9609","3.26436","25.409","5.434","7.6","6.306","139.709","2.72","59.68","29.5087","4.66858","58.09","0","SATNPRO1509","32.178","0.45072","5"],
    [13896,"HCEP03730566","2024-02-19 22:15:00","9.9698","3.26563","25.554","5.375","7.6","2.381","76.08","2.83","39.04","29.5141","4.66921","57.47","0","SATNPRO1509","32.13","0.45002","5"],
    [13897,"HCEP03730566","2024-02-19 22:30:00","9.9659","3.26502","25.693","5.352","7.59","1.356","42.823","0.48","17.57","29.5111","4.66886","57.22","0","SATNPRO1509","32","0.44818","5"],
    [13898,"HCEP03730566","2024-02-19 22:45:00","9.9561","3.26296","25.836","5.337","7.59","3.358","68.426","1.9","38.24","29.4985","4.66722","57.04","0","SATNPRO1509","31.92","0.44706","5"],
    [13899,"HCEP03730566","2024-02-19 23:00:00","9.9692","3.26519","26.004","5.296","7.59","8.295","637.432","2.61","257.97","29.51","4.66866","56.62","0","SATNPRO1509","31.913999999999998","0.44704","5"],
    [13900,"HCEP03730566","2024-02-19 23:15:00","9.9599","3.26296","26.185","5.274","7.59","6.26","145.482","0.86","44.98","29.4952","4.66671","56.37","0","SATNPRO1509","31.7","0.44404","5"],
    [13901,"HCEP03730566","2024-02-19 23:30:00","9.9612","3.26322","26.372","5.269","7.59","0.705","12.657","0.38","24.79","29.4967","4.66692","56.32","0","SATNPRO1509","31.822","0.4457","5"],
    [13902,"HCEP03730566","2024-02-19 23:45:00","9.9673","3.26428","26.551","5.26","7.59","1.647","12.381","0.33","1.24","29.5023","4.66763","56.23","0","SATNPRO1509","31.798","0.44538","5"],
    [13903,"NA","2024-03-01 12:30:00",null,null,null,null,null,null,null,null,null,null,null,null,null,"SATNPRO1509","29.822","0.41768","5"],
    [13904,"HCEP03730566","2024-02-20 00:00:00","9.9842","3.26597","26.747","5.213","7.58","0.941","19.345","0.3","8.61","29.5053","4.66778","55.75","0","SATNPRO1509","31.752","0.44472","5"],
    [13905,"HCEP03730566","2024-02-20 00:15:00","9.9675","3.26329","26.934","5.181","7.58","0.601","7.245","0.05","1.04","29.492","4.66617","55.38","0","SATNPRO1509","31.624","0.44296","5"],
    [13906,"HCEP03730566","2024-02-20 00:30:00","9.9459","3.25828","27.098","5.2","7.58","0.457","4.776","0.02","0.44","29.4595","4.6619","55.56","0","SATNPRO1509","31.604","0.4427","5"],
    [13907,"HCEP03730566","2024-02-20 00:45:00","9.959","3.2621","27.26","5.188","7.58","0.502","5.495","0.03","0.58","29.487","4.66562","55.45","0","SATNPRO1509","31.605999999999998","0.44266","5"],
    [13908,"HCEP03730566","2024-02-20 01:00:00","9.9444","3.25671","27.405","5.225","7.58","0.626","7.458","0.55","9.52","29.4448","4.65984","55.81","0","SATNPRO1509","31.612","0.44278","5"],
    [13909,"HCEP03730566","2024-02-20 01:15:00","9.9256","3.25597","27.535","5.266","7.58","1.254","15.7","0.86","13.04","29.4527","4.6613","56.23","0","SATNPRO1509","31.58","0.44234","5"],
    [13910,"HCEP03730566","2024-02-20 01:30:00","9.9219","3.25432","27.633","5.284","7.59","0.478","4.014","0.04","0.19","29.4392","4.65943","56.41","0","SATNPRO1509","31.532","0.44164","5"],
    [13911,"HCEP03730566","2024-02-20 01:45:00","9.9615","3.26324","27.742","5.226","7.58","2.46","21.497","2.28","18.38","29.4961","4.6669","55.86","0","SATNPRO1509","31.618","0.44284","5"],
    [13912,"HCEP03730566","2024-02-20 02:00:00","9.962","3.26344","27.803","5.255","7.58","0.449","4.501","0.01","0.27","29.4977","4.66713","56.17","0","SATNPRO1509","31.902","0.44682","5"],
    [13913,"HCEP03730566","2024-02-20 02:15:00","9.995","3.2691","27.902","5.233","7.58","0.452","5.606","0.01","0.39","29.5273","4.6708","55.98","0","SATNPRO1509","31.887999999999998","0.44666","5"],
    [13914,"HCEP03730566","2024-02-20 02:30:00","9.9831","3.26711","27.934","5.255","7.58","0.794","14.363","0.51","13.95","29.5171","4.66955","56.2","0","SATNPRO1509","32.028000000000006","0.44862","5"],
    [13915,"HCEP03730566","2024-02-20 02:45:00","9.9767","3.26612","27.969","5.291","7.59","0.473","4.998","0.02","0.86","29.5125","4.669","56.58","0","SATNPRO1509","31.998","0.44814","5"],
    [13916,"HCEP03730566","2024-02-20 03:00:00","9.994","3.26864","27.996","5.269","7.59","0.457","4.445","0.07","0.38","29.5236","4.6703","56.37","0","SATNPRO1509","32.074","0.44926","5"],
    [13917,"HCEP03730566","2024-02-20 03:15:00","9.9989","3.26942","28.006","5.252","7.58","9.669","262.474","1.66","135.85","29.5273","4.67075","56.19","0","SATNPRO1509","32.096000000000004","0.44958","5"],
    [13918,"HCEP03730566","2024-02-20 03:30:00","9.9965","3.26899","28.026","5.255","7.58","0.73","17.324","0.23","12.46","29.5249","4.67045","56.22","0","SATNPRO1509","32.024","0.4486","5"],
    [13919,"HCEP03730566","2024-02-20 03:45:00","9.999","3.26927","28.041","5.264","7.58","0.45","4.479","0.02","0.42","29.5257","4.67052","56.32","0","SATNPRO1509","32.14","0.45016","5"],
    [13920,"HCEP03730566","2024-02-20 04:00:00","9.9897","3.26767","28.047","5.28","7.59","0.446","4.127","0.02","0.45","29.5173","4.66947","56.48","0","SATNPRO1509","32.222","0.45134","5"],
    [13921,"HCEP03730566","2024-02-20 04:15:00","9.9928","3.26815","28.038","5.299","7.59","0.577","5.254","0.05","0.48","29.5195","4.66974","56.68","0","SATNPRO1509","32.278","0.45212","5"],
    [13922,"HCEP03730566","2024-02-20 04:30:00","9.9837","3.26653","28.017","5.318","7.59","0.446","3.929","0.01","0.31","29.5108","4.66864","56.88","0","SATNPRO1509","32.298","0.45238","5"],
    [13923,"HCEP03730566","2024-02-20 04:45:00","9.9739","3.2647","27.984","5.345","7.59","0.485","3.92","0.05","0.34","29.5005","4.66734","57.15","0","SATNPRO1509","32.258","0.45186","5"],
    [13924,"HCEP03730566","2024-02-20 05:00:00","9.9724","3.2643","27.954","5.353","7.59","1.031","13.358","0.33","13.24","29.4977","4.66696","57.23","0","SATNPRO1509","32.226","0.45142","5"],
    [13925,"HCEP03730566","2024-02-20 05:15:00","9.9703","3.26379","27.916","5.374","7.59","0.497","3.798","0.04","0.36","29.4944","4.66652","57.46","0","SATNPRO1509","32.392","0.4537","5"],
    [13926,"HCEP03730566","2024-02-20 05:30:00","9.9782","3.26517","27.858","5.364","7.59","0.448","4.42","0.01","0.32","29.5017","4.66743","57.36","0","SATNPRO1509","32.364","0.4533","5"],
    [13927,"HCEP03730566","2024-02-20 05:45:00","9.9834","3.26603","27.808","5.347","7.59","0.475","5.088","0.02","0.73","29.5061","4.66797","57.19","0","SATNPRO1509","32.26","0.45188","5"],
    [13928,"HCEP03730566","2024-02-20 06:00:00","9.9861","3.26639","27.747","5.338","7.59","0.451","7.596","0.04","3.16","29.5075","4.66812","57.08","0","SATNPRO1509","32.274","0.452","5"],
    [13929,"HCEP03730566","2024-02-20 06:15:00","9.988","3.26661","27.675","5.336","7.59","0.559","6.864","0.17","3.91","29.5082","4.66818","57.07","0","SATNPRO1509","32.296","0.45238","5"],
    [13930,"HCEP03730566","2024-02-20 06:30:00","9.9995","3.26832","27.611","5.333","7.59","0.55","5.639","0.12","1.8","29.5159","4.66909","57.06","0","SATNPRO1509","32.356","0.45316","5"],
    [13931,"HCEP03730566","2024-02-20 06:45:00","9.9953","3.26735","27.568","5.361","7.59","0.481","3.851","0.04","0.52","29.5098","4.66828","57.34","0","SATNPRO1509","32.496","0.45516","5"],
    [13932,"HCEP03730566","2024-02-20 07:00:00","9.9805","3.26511","27.504","5.38","7.59","0.468","3.998","0.04","0.89","29.4993","4.66703","57.53","0","SATNPRO1509","32.372","0.45342","5"],
    [13933,"HCEP03730566","2024-02-20 07:15:00","9.9812","3.26536","27.443","5.37","7.59","0.468","3.536","0.03","0.16","29.5014","4.66731","57.43","0","SATNPRO1509","32.388","0.45366","5"],
    [13934,"HCEP03730566","2024-02-20 07:30:00","9.9826","3.26568","27.389","5.359","7.59","0.472","3.608","0.03","0.15","29.5034","4.66757","57.31","0","SATNPRO1509","32.302","0.45246","5"],
    [13935,"HCEP03730566","2024-02-20 07:45:00","9.9803","3.26519","27.32","5.354","7.59","0.447","3.521","0.05","0.14","29.5005","4.66719","57.25","0","SATNPRO1509","32.36","0.45324","5"],
    [13936,"HCEP03730566","2024-02-20 08:00:00","9.9778","3.26486","27.252","5.342","7.59","0.595","4.317","0.11","0.39","29.4993","4.66705","57.12","0","SATNPRO1509","32.184","0.45078","5"],
    [13937,"HCEP03730566","2024-02-20 08:15:00","9.9776","3.26476","27.23","5.341","7.59","0.601","3.924","0.03","0.41","29.4984","4.66693","57.11","0","SATNPRO1509","32.324","0.45274","5"],
    [13938,"HCEP03730566","2024-02-20 08:30:00","9.9768","3.26462","27.173","5.349","7.59","0.444","3.238","0.02","0.15","29.4976","4.66683","57.2","0","SATNPRO1509","32.384","0.45358","5"],
    [13939,"HCEP03730566","2024-02-20 08:45:00","9.9759","3.26445","27.173","5.356","7.59","0.449","2.917","0.01","0.11","29.4967","4.66671","57.27","0","SATNPRO1509","32.46","0.45466","5"],
    [13940,"HCEP03730566","2024-02-20 09:00:00","9.9756","3.26441","27.158","5.36","7.59","0.438","3.078","0.01","0.13","29.4966","4.6667","57.31","0","SATNPRO1509","32.452","0.45454","5"],
    [13941,"HCEP03730566","2024-02-20 09:15:00","9.978","3.2648","27.143","5.35","7.59","0.454","3.263","0.01","0.42","29.4985","4.66693","57.21","0","SATNPRO1509","32.39","0.45366","5"],
    [13942,"HCEP03730566","2024-02-20 09:30:00","9.9814","3.26528","27.15","5.346","7.59","0.524","4.989","0.05","1.1","29.5005","4.66717","57.17","0","SATNPRO1509","32.370000000000005","0.4534","5"],
    [13943,"HCEP03730566","2024-02-20 09:45:00","9.9858","3.26606","27.167","5.352","7.59","0.541","4.257","0.04","0.62","29.5047","4.66769","57.24","0","SATNPRO1509","32.43","0.45422","5"],
    [13944,"HCEP03730566","2024-02-20 10:00:00","9.9933","3.26698","27.211","5.339","7.59","0.456","4.891","0.02","1.31","29.5078","4.66801","57.11","0","SATNPRO1509","32.385999999999996","0.45366","5"],
    [13945,"HCEP03730566","2024-02-20 10:15:00","9.9951","3.26735","27.229","5.291","7.59","0.512","7.011","0.05","1.15","29.51","4.66829","56.6","0","SATNPRO1509","32.31","0.4526","5"],
    [13946,"HCEP03730566","2024-02-20 10:30:00","9.9704","3.26461","27.266","5.398","7.59","1.791","16.925","2.3","19.55","29.5028","4.66768","57.72","0","SATNPRO1509","32.382","0.45358","5"],
    [13947,"HCEP03730566","2024-02-20 10:45:00","9.985","3.26596","27.295","5.404","7.59","0.471","3.642","0.03","0.65","29.5043","4.66765","57.8","0","SATNPRO1509","32.486","0.45504","5"],
    [13948,"HCEP03730566","2024-02-20 11:00:00","9.9895","3.26675","27.317","5.351","7.59","0.425","4.477","0.01","0.85","29.5086","4.66819","57.24","0","SATNPRO1509","32.374","0.45346","5"],
    [13949,"HCEP03730566","2024-02-20 11:15:00","9.9816","3.2661","27.353","5.375","7.59","0.523","5.43","0.04","1.34","29.5085","4.66831","57.49","0","SATNPRO1509","32.410000000000004","0.45394","5"],
    [13950,"HCEP03730566","2024-02-20 11:30:00","9.9884","3.26684","27.386","5.352","7.59","0.492","4.761","0.03","0.75","29.5103","4.66846","57.24","0","SATNPRO1509","32.262","0.45186","5"],
    [13951,"HCEP03730566","2024-02-20 11:45:00","9.9839","3.26642","27.419","5.35","7.59","0.466","3.752","0.02","0.22","29.5097","4.66845","57.21","0","SATNPRO1509","32.102000000000004","0.44968","5"],
    [13952,"HCEP03730566","2024-02-20 12:00:00","9.9812","3.26618","27.448","5.365","7.59","0.492","3.715","0.02","0.32","29.5095","4.66848","57.38","0","SATNPRO1509","32.346000000000004","0.45302","5"],
    [13953,"HCEP03730566","2024-02-20 12:15:00","9.9844","3.2665","27.458","5.348","7.59","0.519","5.363","0.04","0.4","29.5101","4.6685","57.19","0","SATNPRO1509","32.129999999999995","0.45006","5"],
    [13954,"HCEP03730566","2024-02-20 12:30:00","9.9691","3.26506","27.502","5.375","7.59","0.768","8.417","0.05","0.62","29.5081","4.66848","57.46","0","SATNPRO1509","32.282","0.45216","5"],
    [13955,"HCEP03730566","2024-02-20 12:45:00","9.941","3.26222","27.509","5.473","7.6","0.808","8.318","0.04","0.47","29.5027","4.66819","58.47","0","SATNPRO1509","32.34","0.45298","5"],
    [13956,"HCEP03730566","2024-02-20 13:00:00","9.9762","3.26578","27.557","5.403","7.6","0.553","6.984","0.04","0.59","29.5096","4.66858","57.77","0","SATNPRO1509","32.238","0.45154","5"],
    [13957,"HCEP03730566","2024-02-20 13:15:00","9.969","3.26518","27.56","5.365","7.59","0.536","4.275","0.03","0.38","29.5095","4.66868","57.36","0","SATNPRO1509","32.11","0.44972","5"],
    [13958,"HCEP03730566","2024-02-20 13:30:00","9.936","3.26196","27.554","5.467","7.6","0.544","4.094","0.02","0.38","29.5042","4.66848","58.41","0","SATNPRO1509","32.43","0.45428","5"],
    [13959,"HCEP03730566","2024-02-20 13:45:00","9.9257","3.26078","27.54","5.591","7.6","0.503","3.297","0.04","0.25","29.5008","4.66817","59.72","0","SATNPRO1509","32.49","0.4551","5"],
    [13960,"HCEP03730566","2024-02-20 14:00:00","9.9346","3.26196","27.549","5.605","7.61","0.481","3.388","0.06","0.68","29.5054","4.66868","59.88","0","SATNPRO1509","32.464","0.45472","5"],
    [13961,"HCEP03730566","2024-02-20 14:15:00","9.9471","3.26322","27.519","5.572","7.61","0.434","2.535","0.02","0.38","29.5078","4.66881","59.55","0","SATNPRO1509","32.55","0.45592","5"],
    [13962,"HCEP03730566","2024-02-20 14:30:00","9.9383","3.26207","27.467","5.575","7.61","0.58","11.755","0.33","18.11","29.5034","4.66832","59.56","0","SATNPRO1509","32.612","0.45682","5"],
    [13963,"HCEP03730566","2024-02-20 14:45:00","9.9146","3.25945","27.414","5.65","7.61","0.438","2.637","0.02","0.19","29.4966","4.66775","60.33","0","SATNPRO1509","32.682","0.45776","5"],
    [13964,"HCEP03730566","2024-02-20 15:00:00","9.9066","3.25874","27.359","5.73","7.62","0.545","2.318","0.04","0.13","29.496","4.6678","61.17","0","SATNPRO1509","32.705999999999996","0.45814","5"],
    [13965,"HCEP03730566","2024-02-20 15:15:00","9.9221","3.26026","27.317","5.703","7.62","0.438","1.866","0.01","0.11","29.4986","4.66791","60.91","0","SATNPRO1509","32.638","0.45712","5"],
    [13966,"HCEP03730566","2024-02-20 15:30:00","9.9282","3.26094","27.226","5.654","7.62","0.431","2.866","0.01","2.62","29.5004","4.66806","60.4","0","SATNPRO1509","32.652","0.45734","5"],
    [13967,"HCEP03730566","2024-02-20 15:45:00","9.9289","3.26126","27.128","5.642","7.62","0.633","26.692","0.24","34.38","29.5032","4.66843","60.27","0","SATNPRO1509","32.674","0.45764","5"],
    [13968,"HCEP03730566","2024-02-20 16:00:00","9.9286","3.26131","27.047","5.688","7.62","0.491","6.165","0.07","5.73","29.504","4.66854","60.75","0","SATNPRO1509","32.736","0.4585","5"],
    [13969,"HCEP03730566","2024-02-20 16:15:00","9.9286","3.26142","26.897","5.639","7.62","0.549","5.561","0.1","1.9","29.5051","4.66869","60.24","0","SATNPRO1509","32.602","0.45664","5"],
    [13970,"HCEP03730566","2024-02-20 16:30:00","9.933","3.2616","26.754","5.626","7.62","0.5","4.973","0.08","2.46","29.5033","4.66837","60.1","0","SATNPRO1509","32.564","0.45616","5"],
    [13971,"HCEP03730566","2024-02-20 16:45:00","9.9409","3.26278","26.618","5.583","7.62","0.897","21.838","0.2","20.42","29.5088","4.669","59.65","0","SATNPRO1509","32.494","0.45514","5"],
    [13972,"HCEP03730566","2024-02-20 17:00:00","9.9363","3.26234","26.466","5.611","7.62","10.293","185.025","3.42","87.77","29.5082","4.66899","59.95","0","SATNPRO1509","32.664","0.45754","5"],
    [13973,"HCEP03730566","2024-02-20 17:15:00","9.9391","3.26254","26.307","5.628","7.62","0.699","13.08","0.28","4.27","29.508","4.66891","60.13","0","SATNPRO1509","32.634","0.45712","5"],
    [13974,"HCEP03730566","2024-02-20 17:30:00","9.9428","3.26329","26.12","5.613","7.62","0.443","3.087","0.01","0.27","29.5126","4.66948","59.98","0","SATNPRO1509","32.65","0.45734","5"],
    [13975,"HCEP03730566","2024-02-20 17:45:00","9.9453","3.26365","25.942","5.585","7.61","0.489","3.539","0.05","0.35","29.5141","4.66965","59.68","0","SATNPRO1509","32.504","0.4553","5"],
    [13976,"HCEP03730566","2024-02-20 18:00:00","9.9477","3.264","25.76","5.576","7.61","0.431","3.562","0.02","0.61","29.5157","4.66983","59.59","0","SATNPRO1509","32.524","0.45554","5"],
    [13977,"HCEP03730566","2024-02-20 18:15:00","9.9528","3.26468","25.595","5.555","7.61","0.466","3.998","0.03","0.8","29.5185","4.67013","59.37","0","SATNPRO1509","32.482","0.45496","5"],
    [13978,"HCEP03730566","2024-02-20 18:30:00","9.951","3.26437","25.409","5.545","7.61","5.833","460.311","3.41","193.01","29.5169","4.66993","59.26","0","SATNPRO1509","32.546","0.45584","5"],
    [13979,"NA","2024-03-01 12:45:00",null,null,null,null,null,null,null,null,null,null,null,null,null,"SATNPRO1509","29.86","0.41828","5"],
    [13980,"HCEP03730566","2024-02-20 18:45:00","9.9505","3.26428","25.245","5.542","7.61","0.463","4.016","0.02","0.26","29.5165","4.66986","59.23","0","SATNPRO1509","32.646","0.45722","5"],
    [13981,"HCEP03730566","2024-02-20 19:00:00","9.9544","3.26476","25.091","5.542","7.61","0.437","3.446","0.02","0.3","29.5182","4.67003","59.24","0","SATNPRO1509","32.594","0.45652","5"],
    [13982,"HCEP03730566","2024-02-20 19:15:00","9.9558","3.26492","24.941","5.531","7.61","0.467","4.126","0.04","0.43","29.5188","4.67008","59.12","0","SATNPRO1509","32.379999999999995","0.45354","5"],
    [13983,"HCEP03730566","2024-02-20 19:30:00","9.9582","3.26525","24.788","5.5","7.61","0.773","16.928","0.18","8.64","29.52","4.67021","58.79","0","SATNPRO1509","32.38","0.45354","5"],
    [13984,"HCEP03730566","2024-02-20 19:45:00","9.9618","3.26575","24.678","5.499","7.61","0.978","27.157","0.68","25.5","29.5222","4.67046","58.78","0","SATNPRO1509","32.224","0.45134","5"],
    [13985,"HCEP03730566","2024-02-20 20:00:00","9.9641","3.26606","24.608","5.485","7.61","0.497","14.285","0.09","13.6","29.5234","4.67058","58.64","0","SATNPRO1509","32.382","0.45358","5"],
    [13986,"HCEP03730566","2024-02-20 20:15:00","9.9652","3.26621","24.606","5.478","7.61","0.436","3.535","0.01","0.24","29.5241","4.67066","58.57","0","SATNPRO1509","32.366","0.45334","5"],
    [13987,"HCEP03730566","2024-02-20 20:30:00","9.9645","3.26604","24.6","5.478","7.6","0.808","28.151","0.23","19.02","29.523","4.67051","58.57","0","SATNPRO1509","32.428000000000004","0.45418","5"],
    [13988,"HCEP03730566","2024-02-20 20:45:00","9.9636","3.26589","24.607","5.478","7.6","0.478","4.371","0.06","0.98","29.5222","4.67042","58.56","0","SATNPRO1509","32.424","0.45418","5"],
    [13989,"HCEP03730566","2024-02-20 21:00:00","9.9644","3.26589","24.654","5.474","7.6","0.472","3.916","0.03","0.44","29.5215","4.67031","58.53","0","SATNPRO1509","32.592","0.4565","5"],
    [13990,"HCEP03730566","2024-02-20 21:15:00","9.9649","3.26597","24.713","5.47","7.6","0.451","3.428","0.04","0.68","29.5219","4.67036","58.48","0","SATNPRO1509","32.548","0.45592","5"],
    [13991,"HCEP03730566","2024-02-20 21:30:00","9.9661","3.26607","24.756","5.456","7.6","0.425","3.25","0.02","0.2","29.5219","4.67034","58.34","0","SATNPRO1509","32.556","0.456","5"],
    [13992,"HCEP03730566","2024-02-20 21:45:00","9.9661","3.2661","24.836","5.453","7.6","0.445","3.713","0.02","0.24","29.5222","4.67039","58.3","0","SATNPRO1509","32.374","0.45344","5"],
    [13993,"HCEP03730566","2024-02-20 22:00:00","9.9675","3.26639","24.949","5.451","7.6","0.426","3.534","0.02","0.37","29.5239","4.67061","58.28","0","SATNPRO1509","32.476","0.4549","5"],
    [13994,"HCEP03730566","2024-02-20 22:15:00","9.9704","3.26683","25.047","5.445","7.6","0.618","12.764","0.1","2.88","29.5258","4.67084","58.22","0","SATNPRO1509","32.476","0.45488","5"],
    [13995,"HCEP03730566","2024-02-20 22:30:00","9.9712","3.26691","25.166","5.442","7.6","0.613","12.831","0.12","7.09","29.526","4.67086","58.19","0","SATNPRO1509","32.524","0.45554","5"],
    [13996,"HCEP03730566","2024-02-20 22:45:00","9.9713","3.26691","25.299","5.438","7.6","0.729","7.668","0.31","5.03","29.5258","4.67084","58.15","0","SATNPRO1509","32.46","0.45462","5"],
    [13997,"HCEP03730566","2024-02-20 23:00:00","9.9713","3.26691","25.448","5.437","7.6","0.443","3.632","0.03","0.26","29.5257","4.67083","58.14","0","SATNPRO1509","32.444","0.4544","5"],
    [13998,"HCEP03730566","2024-02-20 23:15:00","9.9709","3.26681","25.604","5.444","7.6","0.417","3.148","0.01","0.15","29.525","4.67075","58.21","0","SATNPRO1509","32.462","0.4547","5"],
    [13999,"HCEP03730566","2024-02-20 23:30:00","9.973","3.26707","25.772","5.447","7.6","0.572","4.717","0.14","1.49","29.5258","4.67084","58.24","0","SATNPRO1509","32.504","0.45524","5"],
    [14000,"HCEP03730566","2024-02-20 23:45:00","9.9769","3.26759","25.959","5.432","7.6","0.447","3.716","0.06","0.29","29.5277","4.67106","58.09","0","SATNPRO1509","32.49","0.45508","5"],
    [14001,"HCEP03730566","2024-02-21 00:00:00","9.9783","3.26773","26.14","5.399","7.6","0.573","8.858","0.06","4.08","29.528","4.67109","57.74","0","SATNPRO1509","32.422","0.45412","5"],
    [14002,"HCEP03730566","2024-02-21 00:15:00","9.9816","3.26818","26.331","5.372","7.6","0.456","4.132","0.06","1.33","29.5297","4.67129","57.46","0","SATNPRO1509","32.366","0.45334","5"],
    [14003,"HCEP03730566","2024-02-21 00:30:00","9.9845","3.26856","26.511","5.355","7.6","0.492","5.26","0.06","1.24","29.5311","4.67144","57.27","0","SATNPRO1509","32.368","0.45336","5"],
    [14004,"HCEP03730566","2024-02-21 00:45:00","9.9893","3.26916","26.702","5.338","7.6","1.247","14.363","1.36","13.43","29.533","4.67165","57.11","0","SATNPRO1509","32.372","0.45338","5"],
    [14005,"HCEP03730566","2024-02-21 01:00:00","9.9946","3.26978","26.893","5.305","7.59","0.45","4.516","0.03","0.78","29.5348","4.67183","56.76","0","SATNPRO1509","32.190000000000005","0.45082","5"],
    [14006,"HCEP03730566","2024-02-21 01:15:00","9.9969","3.26999","27.081","5.282","7.59","0.54","4.797","0.02","0.37","29.535","4.67183","56.51","0","SATNPRO1509","32.24","0.45158","5"],
    [14007,"HCEP03730566","2024-02-21 01:30:00","10.0004","3.27045","27.26","5.263","7.59","4.787","435.662","1.6","296.88","29.5367","4.67202","56.31","0","SATNPRO1509","32.136","0.4501","5"],
    [14008,"HCEP03730566","2024-02-21 01:45:00","10.0031","3.27073","27.419","5.237","7.59","2.027","28.769","1.47","22.44","29.5372","4.67205","56.04","0","SATNPRO1509","32.144","0.4502","5"],
    [14009,"HCEP03730566","2024-02-21 02:00:00","10.0044","3.27079","27.575","5.211","7.59","1.418","34.629","0.56","21.41","29.5367","4.67197","55.77","0","SATNPRO1509","32.122","0.4499","5"],
    [14010,"HCEP03730566","2024-02-21 02:15:00","9.9864","3.2677","27.715","5.267","7.59","0.499","4.812","0.12","2.15","29.5204","4.66996","56.33","0","SATNPRO1509","32.31","0.45258","5"],
    [14011,"HCEP03730566","2024-02-21 02:30:00","9.9984","3.26987","27.83","5.26","7.59","0.447","3.734","0.03","0.43","29.5323","4.67146","56.29","0","SATNPRO1509","32.192","0.45092","5"],
    [14012,"HCEP03730566","2024-02-21 02:45:00","9.9999","3.26996","27.938","5.238","7.59","0.466","5.758","0.08","3.54","29.5319","4.67138","56.05","0","SATNPRO1509","32.282","0.45216","5"],
    [14013,"HCEP03730566","2024-02-21 03:00:00","9.9994","3.26981","28.008","5.228","7.59","0.42","3.856","0.02","0.36","29.5308","4.67124","55.94","0","SATNPRO1509","32.098","0.44962","5"],
    [14014,"HCEP03730566","2024-02-21 03:15:00","9.9987","3.26958","28.071","5.227","7.59","0.557","50.559","0.15","9.36","29.5291","4.671","55.93","0","SATNPRO1509","32.082","0.44938","5"],
    [14015,"HCEP03730566","2024-02-21 03:30:00","10.001","3.26965","28.111","5.198","7.58","0.433","4.046","0.04","0.24","29.5278","4.67079","55.62","0","SATNPRO1509","32.108","0.4497","5"],
    [14016,"HCEP03730566","2024-02-21 03:45:00","9.9986","3.26905","28.134","5.176","7.58","1.424","15.434","0.14","6.32","29.5238","4.67026","55.37","0","SATNPRO1509","32.108","0.44978","5"],
    [14017,"HCEP03730566","2024-02-21 04:00:00","9.9901","3.26762","28.159","5.192","7.58","0.502","10.414","0.13","9.54","29.5165","4.66936","55.54","0","SATNPRO1509","32.158","0.45044","5"],
    [14018,"HCEP03730566","2024-02-21 04:15:00","9.9941","3.26832","28.179","5.191","7.58","0.439","3.62","0.02","0.21","29.5201","4.66981","55.53","0","SATNPRO1509","31.854","0.44618","5"],
    [14019,"HCEP03730566","2024-02-21 04:30:00","10.0001","3.2692","28.193","5.156","7.58","0.511","5.458","0.12","2.16","29.5241","4.67028","55.17","0","SATNPRO1509","31.982000000000003","0.44794","5"],
    [14020,"HCEP03730566","2024-02-21 04:45:00","9.9765","3.26536","28.196","5.207","7.58","0.523","4.207","0.03","0.24","29.5049","4.66793","55.68","0","SATNPRO1509","32.136","0.45012","5"],
    [14021,"HCEP03730566","2024-02-21 05:00:00","9.9967","3.26873","28.226","5.179","7.58","0.48","4.07","0.03","0.31","29.5222","4.67006","55.4","0","SATNPRO1509","32.224000000000004","0.45132","5"],
    [14022,"HCEP03730566","2024-02-21 05:15:00","9.9935","3.26821","28.212","5.153","7.58","0.442","3.356","0.01","0.27","29.5195","4.66974","55.13","0","SATNPRO1509","32.104","0.44966","5"],
    [14023,"HCEP03730566","2024-02-21 05:30:00","9.9904","3.26768","28.173","5.168","7.58","0.529","5.437","0.08","1.35","29.5167","4.66939","55.29","0","SATNPRO1509","31.984","0.448","5"],
    [14024,"HCEP03730566","2024-02-21 05:45:00","9.9868","3.2672","28.108","5.186","7.58","0.55","6.787","0.14","2.57","29.515","4.66919","55.47","0","SATNPRO1509","32.138","0.45012","5"],
    [14025,"HCEP03730566","2024-02-21 06:00:00","9.9933","3.26809","28.101","5.174","7.58","0.732","9.798","0.32","5.73","29.5185","4.66959","55.35","0","SATNPRO1509","31.914","0.44702","5"],
    [14026,"HCEP03730566","2024-02-21 06:15:00","10.0005","3.26914","28.016","5.086","7.58","0.624","15.295","0.1","12.23","29.5232","4.67014","54.41","0","SATNPRO1509","31.656","0.4434","5"],
    [14027,"HCEP03730566","2024-02-21 06:30:00","10.0009","3.26922","27.952","5.035","7.58","0.529","10.481","0.22","11.91","29.5237","4.6702","53.87","0","SATNPRO1509","31.594","0.44254","5"],
    [14028,"HCEP03730566","2024-02-21 06:45:00","10.0008","3.26911","27.862","5.012","7.57","1.032","30.08","0.24","7.32","29.5227","4.67004","53.63","0","SATNPRO1509","31.59","0.44246","5"],
    [14029,"HCEP03730566","2024-02-21 07:00:00","10.0012","3.26924","27.745","5.007","7.57","1.037","22.949","0.2","7.27","29.5237","4.67018","53.57","0","SATNPRO1509","31.628","0.44304","5"],
    [14030,"HCEP03730566","2024-02-21 07:15:00","10.0008","3.26916","27.668","5.004","7.57","2.101","36.385","1.12","21.88","29.5233","4.67012","53.54","0","SATNPRO1509","31.556","0.442","5"],
    [14031,"HCEP03730566","2024-02-21 07:30:00","10.001","3.26924","27.578","5.005","7.57","8.516","166.13","4.61","91.84","29.524","4.67022","53.55","0","SATNPRO1509","31.68","0.4438","5"],
    [14032,"HCEP03730566","2024-02-21 07:45:00","9.9961","3.2687","27.462","5.01","7.57","0.522","5.386","0.07","1.16","29.5226","4.67008","53.61","0","SATNPRO1509","31.712","0.44416","5"],
    [14033,"HCEP03730566","2024-02-21 08:00:00","10.0034","3.26966","27.48","5.012","7.57","0.636","8.597","0.05","0.94","29.5262","4.67048","53.63","0","SATNPRO1509","31.684","0.44376","5"],
    [14034,"HCEP03730566","2024-02-21 08:15:00","9.9988","3.26882","27.341","5.022","7.57","0.818","18.38","0.53","15.58","29.5217","4.66991","53.73","0","SATNPRO1509","31.75","0.44474","5"],
    [14035,"HCEP03730566","2024-02-21 08:30:00","9.9983","3.26875","27.193","5.048","7.57","0.413","3.859","0.01","0.19","29.5214","4.66987","54.01","0","SATNPRO1509","31.72","0.44434","5"],
    [14036,"HCEP03730566","2024-02-21 08:45:00","10.0035","3.27001","27.173","5.049","7.57","0.46","7.518","0.11","8.93","29.5298","4.67097","54.03","0","SATNPRO1509","31.83","0.44586","5"],
    [14037,"HCEP03730566","2024-02-21 09:00:00","10.0022","3.26978","27.197","5.059","7.57","0.423","4.164","0.01","0.38","29.5285","4.67082","54.13","0","SATNPRO1509","31.816","0.44562","5"],
    [14038,"HCEP03730566","2024-02-21 09:15:00","9.9996","3.26926","27.158","5.068","7.57","1.437","19.471","0.36","5.29","29.5255","4.67043","54.22","0","SATNPRO1509","31.926000000000002","0.44716","5"],
    [14039,"HCEP03730566","2024-02-21 09:30:00","9.9937","3.26815","27.113","5.087","7.57","1.935","29.77","0.99","11.1","29.5193","4.66963","54.42","0","SATNPRO1509","32.07","0.44924","5"],
    [14040,"HCEP03730566","2024-02-21 09:45:00","9.9884","3.26719","27.067","5.122","7.58","1.404","8.822","0.44","4.7","29.514","4.66897","54.79","0","SATNPRO1509","32.148","0.4503","5"],
    [14041,"HCEP03730566","2024-02-21 10:00:00","9.9905","3.26782","27.098","5.164","7.58","1.151","32.582","0.73","19.14","29.5185","4.66958","55.24","0","SATNPRO1509","32.008","0.44834","5"],
    [14042,"HCEP03730566","2024-02-21 10:15:00","9.9952","3.26846","27.069","5.119","7.58","0.595","5.994","0.06","0.73","29.521","4.66986","54.77","0","SATNPRO1509","31.924","0.44712","5"],
    [14043,"HCEP03730566","2024-02-21 10:30:00","9.9874","3.26732","27.098","5.159","7.58","0.813","15.317","0.24","11.3","29.516","4.66927","55.18","0","SATNPRO1509","32.322","0.45272","5"],
    [14044,"HCEP03730566","2024-02-21 10:45:00","9.9702","3.26468","27.126","5.262","7.58","0.686","10.41","0.17","4.9","29.5036","4.6678","56.26","0","SATNPRO1509","32.498","0.45522","5"],
    [14045,"HCEP03730566","2024-02-21 11:00:00","9.977","3.26587","27.14","5.301","7.59","0.924","13.952","0.3","5.71","29.51","4.6686","56.68","0","SATNPRO1509","32.256","0.45182","5"],
    [14046,"HCEP03730566","2024-02-21 11:15:00","9.9914","3.26834","27.174","5.187","7.59","2.652","21.015","0.33","4.17","29.5229","4.6702","55.49","0","SATNPRO1509","32.08","0.44936","5"],
    [14047,"HCEP03730566","2024-02-21 11:30:00","9.9985","3.26942","27.259","5.135","7.58","0.916","8.437","0.2","4.87","29.5279","4.6708","54.94","0","SATNPRO1509","31.844","0.44604","5"],
    [14048,"HCEP03730566","2024-02-21 11:45:00","10.0012","3.27001","27.237","5.088","7.58","0.957","18.314","0.22","8.75","29.5316","4.67128","54.44","0","SATNPRO1509","31.828","0.44582","5"],
    [14049,"HCEP03730566","2024-02-21 12:00:00","9.9999","3.26996","27.247","5.08","7.58","1.432","31.452","0.52","15.9","29.5321","4.67138","54.36","0","SATNPRO1509","31.814","0.4456","5"],
    [14050,"HCEP03730566","2024-02-21 12:15:00","9.9962","3.26959","27.23","5.091","7.58","2.486","25.146","0.89","6.41","29.5314","4.67134","54.47","0","SATNPRO1509","31.858","0.4462","5"],
    [14051,"HCEP03730566","2024-02-21 12:30:00","9.9905","3.26879","27.295","5.136","7.58","0.812","11.364","0.3","5.04","29.5282","4.67097","54.94","0","SATNPRO1509","31.964","0.44774","5"],
    [14052,"HCEP03730566","2024-02-21 12:45:00","9.986","3.26815","27.341","5.179","7.58","0.96","24.501","1.01","34.36","29.5254","4.67065","55.4","0","SATNPRO1509","31.98","0.44792","5"],
    [14053,"HCEP03730566","2024-02-21 13:00:00","9.9822","3.26758","27.431","5.197","7.58","2.472","83.487","1.3","24.31","29.5227","4.67034","55.58","0","SATNPRO1509","32.01","0.44836","5"],
    [14054,"HCEP03730566","2024-02-21 13:15:00","9.9795","3.26721","27.486","5.204","7.58","0.472","16.985","0.07","12.18","29.5212","4.67018","55.66","0","SATNPRO1509","32.13","0.45004","5"],
    [14055,"NA","2024-03-01 13:00:00",null,null,null,null,null,null,null,null,null,null,null,null,null,"SATNPRO1509","29.742","0.41656","5"],
    [14056,"HCEP03730566","2024-02-21 13:30:00","9.9747","3.26652","27.518","5.228","7.59","1.113","29.928","1.29","38.68","29.5182","4.66983","55.91","0","SATNPRO1509","32.072","0.4492","5"],
    [14057,"HCEP03730566","2024-02-21 13:45:00","9.9651","3.26487","27.552","5.262","7.59","0.991","18.057","0.24","4.24","29.5096","4.66876","56.25","0","SATNPRO1509","32.205999999999996","0.45108","5"],
    [14058,"HCEP03730566","2024-02-21 14:00:00","9.9536","3.26273","27.554","5.305","7.59","0.629","57.702","0.08","17.63","29.4976","4.66724","56.69","0","SATNPRO1509","32.316","0.45262","5"],
    [14059,"HCEP03730566","2024-02-21 14:15:00","9.9437","3.26117","27.572","5.346","7.59","1.572","25.806","0.23","4.65","29.49","4.66632","57.12","0","SATNPRO1509","32.252","0.4517","5"],
    [14060,"HCEP03730566","2024-02-21 14:30:00","9.9453","3.26156","27.562","5.346","7.59","4.104","75.142","1.24","10.93","29.4926","4.66667","57.12","0","SATNPRO1509","32.26","0.45188","5"],
    [14061,"HCEP03730566","2024-02-21 14:45:00","9.9383","3.26044","27.63","5.363","7.6","4.699","152.346","1.38","51.58","29.487","4.66599","57.29","0","SATNPRO1509","32.26","0.45186","5"],
    [14062,"HCEP03730566","2024-02-21 15:00:00","9.9364","3.26002","27.556","5.379","7.6","1.729","37.223","0.57","16.3","29.4844","4.66565","57.46","0","SATNPRO1509","32.226","0.45138","5"],
    [14063,"HCEP03730566","2024-02-21 15:15:00","9.9283","3.25827","27.537","5.391","7.6","3.611","58.306","0.73","13.15","29.4735","4.66423","57.57","0","SATNPRO1509","32.272","0.45204","5"],
    [14064,"HCEP03730566","2024-02-21 15:30:00","9.9159","3.2563","27.524","5.349","7.6","1.706","49.661","0.95","7.45","29.4639","4.66306","57.11","0","SATNPRO1509","31.998","0.4482","5"],
    [14065,"HCEP03730566","2024-02-21 15:45:00","9.9102","3.2555","27.552","5.271","7.59","1.771","36.545","0.87","6.1","29.4605","4.66268","56.27","0","SATNPRO1509","31.77","0.44504","5"],
    [14066,"HCEP03730566","2024-02-21 16:00:00","9.9036","3.25445","27.512","5.314","7.59","0.624","8.424","0.06","4.57","29.4554","4.66206","56.71","0","SATNPRO1509","31.82","0.44568","5"],
    [14067,"HCEP03730566","2024-02-21 16:15:00","9.9102","3.25552","27.428","5.282","7.59","0.621","16.137","0.15","7.82","29.4607","4.66269","56.38","0","SATNPRO1509","31.818","0.4457","5"],
    [14068,"HCEP03730566","2024-02-21 16:30:00","9.9149","3.25616","27.362","5.239","7.59","0.565","8.124","0.15","4.41","29.4633","4.66299","55.93","0","SATNPRO1509","31.788","0.44522","5"],
    [14069,"HCEP03730566","2024-02-21 16:45:00","9.9135","3.25592","27.164","5.235","7.59","0.768","26.461","0.57","31.94","29.4622","4.66284","55.89","0","SATNPRO1509","31.766000000000002","0.44494","5"],
    [14070,"HCEP03730566","2024-02-21 17:00:00","9.9077","3.25517","27.026","5.213","7.59","0.46","5.164","0.02","1.18","29.4595","4.66254","55.64","0","SATNPRO1509","31.683999999999997","0.44382","5"],
    [14071,"HCEP03730566","2024-02-21 17:15:00","9.9044","3.25475","26.901","5.194","7.58","1.517","52.791","0.57","23.26","29.458","4.66237","55.43","0","SATNPRO1509","31.696","0.44396","5"],
    [14072,"HCEP03730566","2024-02-21 17:30:00","9.9061","3.25498","26.676","5.157","7.58","0.456","5.005","0.02","0.36","29.459","4.66248","55.04","0","SATNPRO1509","31.586","0.44242","5"],
    [14073,"HCEP03730566","2024-02-21 17:45:00","9.9001","3.25393","26.538","5.125","7.58","0.54","6.082","0.05","1.36","29.4533","4.66176","54.69","0","SATNPRO1509","31.504","0.44126","5"],
    [14074,"HCEP03730566","2024-02-21 18:00:00","9.8943","3.25297","26.335","5.12","7.58","0.558","5.742","0.05","0.38","29.4487","4.66118","54.62","0","SATNPRO1509","31.404","0.43988","5"],
    [14075,"HCEP03730566","2024-02-21 18:15:00","9.8899","3.25234","26.161","5.133","7.58","0.5","5.069","0.02","0.32","29.4459","4.66086","54.76","0","SATNPRO1509","31.58","0.44238","5"],
    [14076,"HCEP03730566","2024-02-21 18:30:00","9.8899","3.25239","25.891","5.13","7.58","0.478","4.621","0.01","0.17","29.4466","4.66093","54.73","0","SATNPRO1509","31.51","0.44138","5"],
    [14077,"HCEP03730566","2024-02-21 18:45:00","9.895","3.25298","25.694","5.113","7.58","0.486","4.946","0.02","0.19","29.4484","4.66109","54.55","0","SATNPRO1509","31.41","0.43992","5"],
    [14078,"HCEP03730566","2024-02-21 19:00:00","9.8973","3.25329","25.474","5.102","7.57","0.484","5.397","0.03","0.29","29.4498","4.66124","54.44","0","SATNPRO1509","31.316","0.43864","5"],
    [14079,"HCEP03730566","2024-02-21 19:15:00","9.9016","3.25399","25.29","5.097","7.57","0.478","4.998","0.02","0.33","29.4533","4.66166","54.39","0","SATNPRO1509","31.317999999999998","0.4387","5"],
    [14080,"HCEP03730566","2024-02-21 19:30:00","9.8941","3.25285","25.112","5.107","7.57","0.467","4.756","0.02","0.17","29.4481","4.66103","54.49","0","SATNPRO1509","31.5","0.4412","5"],
    [14081,"HCEP03730566","2024-02-21 19:45:00","9.9089","3.25497","25.037","5.113","7.57","0.462","4.906","0.02","0.34","29.4573","4.6621","54.57","0","SATNPRO1509","31.492","0.4411","5"],
    [14082,"HCEP03730566","2024-02-21 20:00:00","9.9121","3.25508","24.9","5.152","7.58","6.077","68.214","4.37","46.45","29.4557","4.66181","54.99","0","SATNPRO1509","31.678","0.4437","5"],
    [14083,"HCEP03730566","2024-02-21 20:15:00","9.9297","3.25784","24.732","5.192","7.58","0.478","6.661","0.03","0.72","29.4692","4.66342","55.45","0","SATNPRO1509","31.862","0.44632","5"],
    [14084,"HCEP03730566","2024-02-21 20:30:00","9.9415","3.25985","24.658","5.212","7.58","0.462","5.652","0.03","0.35","29.4797","4.66472","55.68","0","SATNPRO1509","32.025999999999996","0.44858","5"],
    [14085,"HCEP03730566","2024-02-21 20:45:00","9.9472","3.26097","24.618","5.207","7.58","0.901","56.001","0.16","6.83","29.4863","4.66557","55.63","0","SATNPRO1509","31.906","0.44688","5"],
    [14086,"HCEP03730566","2024-02-21 21:00:00","9.949","3.26136","24.625","5.207","7.58","1.19","61.856","0.63","39.51","29.4887","4.66588","55.64","0","SATNPRO1509","31.962","0.44768","5"],
    [14087,"HCEP03730566","2024-02-21 21:15:00","9.9549","3.2624","24.621","5.203","7.58","0.684","22.372","0.1","11.52","29.4943","4.66658","55.6","0","SATNPRO1509","31.962","0.44768","5"],
    [14088,"HCEP03730566","2024-02-21 21:30:00","9.9563","3.26257","24.621","5.196","7.59","0.47","7.629","0.05","1.54","29.4949","4.66664","55.53","0","SATNPRO1509","31.934","0.4473","5"],
    [14089,"HCEP03730566","2024-02-21 21:45:00","9.9534","3.26207","24.682","5.212","7.59","0.448","5.292","0.04","0.79","29.4922","4.66631","55.7","0","SATNPRO1509","32.044000000000004","0.44888","5"],
    [14090,"HCEP03730566","2024-02-21 22:00:00","9.9548","3.26228","24.733","5.212","7.59","5.129","69.716","4.06","27.97","29.4931","4.66642","55.7","0","SATNPRO1509","32.088","0.44944","5"],
    [14091,"HCEP03730566","2024-02-21 22:15:00","9.9573","3.26274","24.811","5.22","7.59","0.789","8.108","0.12","1.19","29.4957","4.66675","55.78","0","SATNPRO1509","32.052","0.44894","5"],
    [14092,"HCEP03730566","2024-02-21 22:30:00","9.9549","3.26233","24.913","5.247","7.59","0.451","6.013","0.04","0.94","29.4935","4.66649","56.07","0","SATNPRO1509","32.21","0.45116","5"],
    [14093,"NA","2024-03-01 13:15:00",null,null,null,null,null,null,null,null,null,null,null,null,null,"SATNPRO1509","29.738","0.41654","5"],
    [14094,"HCEP03730566","2024-02-21 22:45:00","9.953","3.26181","25.004","5.216","7.59","0.547","5.958","0.08","0.83","29.4898","4.66599","55.73","0","SATNPRO1509","31.958","0.4476","5"],
    [14095,"HCEP03730566","2024-02-21 23:00:00","9.9647","3.26383","25.141","5.18","7.58","0.436","8.367","0.03","1.75","29.5004","4.66732","55.37","0","SATNPRO1509","31.892","0.4467","5"],
    [14096,"HCEP03730566","2024-02-21 23:15:00","9.9681","3.26426","25.254","5.137","7.58","0.446","6.312","0.01","0.75","29.5019","4.66748","54.92","0","SATNPRO1509","31.896","0.4468","5"],
    [14097,"HCEP03730566","2024-02-21 23:30:00","9.9728","3.26461","25.37","5.093","7.58","3.333","129.418","1.43","57.31","29.5016","4.66736","54.45","0","SATNPRO1509","31.66","0.44346","5"],
    [14098,"HCEP03730566","2024-02-21 23:45:00","9.9652","3.263","25.58","5.093","7.58","2.503","314.301","0.54","118.16","29.4915","4.66606","54.43","0","SATNPRO1509","31.872","0.44644","5"],
    [14099,"HCEP03730566","2024-02-22 00:00:00","9.9651","3.26271","25.73","5.072","7.58","0.435","6.602","0.02","1.08","29.4886","4.66566","54.21","0","SATNPRO1509","31.738","0.44454","5"],
    [14100,"HCEP03730566","2024-02-22 00:15:00","9.9644","3.26232","25.868","5.043","7.57","1.939","36.341","1.24","24.19","29.4853","4.66521","53.91","0","SATNPRO1509","31.626","0.44296","5"],
    [14101,"HCEP03730566","2024-02-22 00:30:00","9.9615","3.26117","26.057","5.01","7.57","0.496","7.889","0.03","1.2","29.476","4.66394","53.54","0","SATNPRO1509","31.566","0.44212","5"],
    [14102,"HCEP03730566","2024-02-22 00:45:00","9.9627","3.26112","26.235","4.987","7.57","0.528","6.649","0.04","0.62","29.4745","4.66371","53.3","0","SATNPRO1509","31.52","0.44148","5"],
    [14103,"HCEP03730566","2024-02-22 01:00:00","9.9626","3.26095","26.419","4.975","7.57","0.525","7.215","0.03","1.36","29.4728","4.66348","53.17","0","SATNPRO1509","31.608","0.44274","5"],
    [14104,"HCEP03730566","2024-02-22 01:15:00","9.961","3.26057","26.7","4.967","7.57","0.585","8.651","0.05","1.39","29.4701","4.66314","53.08","0","SATNPRO1509","31.636","0.44312","5"],
    [14105,"HCEP03730566","2024-02-22 01:30:00","9.9618","3.26052","26.851","4.965","7.57","0.447","5.076","0.03","0.56","29.4691","4.66299","53.06","0","SATNPRO1509","31.560000000000002","0.44206","5"],
    [14106,"HCEP03730566","2024-02-22 01:45:00","9.965","3.26087","27.089","4.946","7.57","0.45","4.952","0.02","0.59","29.4698","4.66305","52.86","0","SATNPRO1509","31.594","0.44256","5"],
    [14107,"HCEP03730566","2024-02-22 02:00:00","9.9676","3.26099","27.232","4.925","7.56","0.445","4.713","0.02","0.33","29.4688","4.66288","52.64","0","SATNPRO1509","31.568","0.44216","5"],
    [14108,"HCEP03730566","2024-02-22 02:15:00","9.97","3.26119","27.456","4.897","7.56","0.447","4.797","0.02","0.35","29.4688","4.66284","52.35","0","SATNPRO1509","31.486","0.441","5"],
    [14109,"HCEP03730566","2024-02-22 02:30:00","9.9716","3.26136","27.638","4.884","7.56","0.456","4.925","0.04","0.37","29.469","4.66286","52.21","0","SATNPRO1509","31.516000000000002","0.44144","5"],
    [14110,"HCEP03730566","2024-02-22 02:45:00","9.9714","3.26119","27.762","4.884","7.56","0.528","7.061","0.13","2.96","29.4675","4.66265","52.2","0","SATNPRO1509","31.472","0.4408","5"],
    [14111,"HCEP03730566","2024-02-22 03:00:00","9.9722","3.26114","27.934","4.868","7.56","0.88","41.113","0.35","7.4","29.4662","4.66247","52.03","0","SATNPRO1509","31.498","0.44118","5"],
    [14112,"HCEP03730566","2024-02-22 03:15:00","9.9718","3.26103","27.99","4.863","7.56","0.726","14.989","0.14","8.52","29.4654","4.66236","51.98","0","SATNPRO1509","31.524","0.44156","5"],
    [14113,"HCEP03730566","2024-02-22 03:30:00","9.9735","3.26114","28.112","4.853","7.56","1.054","14.279","0.23","4.03","29.4652","4.6623","51.87","0","SATNPRO1509","31.53","0.44164","5"],
    [14114,"HCEP03730566","2024-02-22 03:45:00","9.9751","3.26123","28.22","4.84","7.56","0.768","8.36","0.13","1.91","29.4648","4.66222","51.73","0","SATNPRO1509","31.464","0.44074","5"],
    [14115,"HCEP03730566","2024-02-22 04:00:00","9.9779","3.26143","28.239","4.808","7.55","0.552","5.535","0.07","0.56","29.4645","4.66213","51.4","0","SATNPRO1509","31.448","0.44046","5"],
    [14116,"HCEP03730566","2024-02-22 04:15:00","9.9793","3.26128","28.249","4.788","7.55","0.647","16.779","0.19","10.64","29.4617","4.66172","51.18","0","SATNPRO1509","31.494","0.4411","5"],
    [14117,"HCEP03730566","2024-02-22 04:30:00","9.9785","3.26096","28.317","4.78","7.55","0.45","4.086","0.02","0.15","29.4592","4.66138","51.09","0","SATNPRO1509","31.566","0.44212","5"],
    [14118,"HCEP03730566","2024-02-22 04:45:00","9.9793","3.26119","28.394","4.769","7.55","0.466","4.484","0.02","0.26","29.4608","4.6616","50.99","0","SATNPRO1509","31.478","0.4409","5"],
    [14119,"HCEP03730566","2024-02-22 05:00:00","9.9808","3.26134","28.421","4.764","7.55","0.421","4.471","0.01","0.16","29.4611","4.66162","50.93","0","SATNPRO1509","31.45","0.44054","5"],
    [14120,"HCEP03730566","2024-02-22 05:15:00","9.9821","3.2612","28.377","4.758","7.55","0.484","5.319","0.03","0.92","29.4586","4.66124","50.86","0","SATNPRO1509","31.496","0.44116","5"],
    [14121,"HCEP03730566","2024-02-22 05:30:00","9.9824","3.26127","28.358","4.761","7.55","0.446","4.17","0.02","0.23","29.4591","4.6613","50.89","0","SATNPRO1509","31.476","0.44088","5"],
    [14122,"HCEP03730566","2024-02-22 05:45:00","9.9763","3.26043","28.289","4.781","7.55","0.529","5.409","0.05","1.87","29.4557","4.66092","51.11","0","SATNPRO1509","31.514","0.4414","5"],
    [14123,"HCEP03730566","2024-02-22 06:00:00","9.9752","3.26052","28.179","4.794","7.55","2.05","22.29","0.78","3.23","29.4576","4.66119","51.25","0","SATNPRO1509","31.398","0.43978","5"],
    [14124,"HCEP03730566","2024-02-22 06:15:00","9.9788","3.26115","28.101","4.776","7.55","9.62","161.478","3.55","59.42","29.461","4.66162","51.06","0","SATNPRO1509","31.444","0.44044","5"],
    [14125,"HCEP03730566","2024-02-22 06:30:00","9.9811","3.2616","28.039","4.751","7.55","4.36","47.099","2.43","24.95","29.4636","4.66195","50.79","0","SATNPRO1509","31.328","0.4388","5"],
    [14126,"HCEP03730566","2024-02-22 06:45:00","9.9803","3.26174","28.001","4.744","7.55","6.414","88.546","2.98","21.53","29.4657","4.66225","50.72","0","SATNPRO1509","31.474","0.44086","5"],
    [14127,"HCEP03730566","2024-02-22 07:00:00","9.9813","3.26211","27.895","4.753","7.55","0.436","5.643","0.04","1.34","29.4686","4.66265","50.82","0","SATNPRO1509","31.404","0.43986","5"],
    [14128,"HCEP03730566","2024-02-22 07:15:00","9.9776","3.26171","27.864","4.768","7.55","0.608","6.307","0.07","0.66","29.4676","4.66257","50.97","0","SATNPRO1509","31.372","0.43942","5"],
    [14129,"HCEP03730566","2024-02-22 07:30:00","9.9781","3.26183","27.702","4.779","7.55","0.529","5.631","0.04","0.5","29.4685","4.66268","51.09","0","SATNPRO1509","31.416","0.44004","5"],
    [14130,"HCEP03730566","2024-02-22 07:45:00","9.9769","3.26173","27.671","4.785","7.55","0.542","5.21","0.09","0.8","29.4684","4.66269","51.16","0","SATNPRO1509","31.39","0.4397","5"],
    [14131,"NA","2024-03-01 13:30:00",null,null,null,null,null,null,null,null,null,null,null,null,null,"SATNPRO1509","29.81","0.41754","5"],
    [14132,"HCEP03730566","2024-02-22 08:00:00","9.9766","3.26167","27.514","4.784","7.55","4.735","55.056","4.56","39.71","29.4682","4.66265","51.14","0","SATNPRO1509","31.398","0.43974","5"],
    [14133,"HCEP03730566","2024-02-22 08:15:00","9.9766","3.26174","27.487","4.777","7.55","0.477","4.698","0.04","0.38","29.4689","4.66275","51.06","0","SATNPRO1509","31.332","0.43886","5"],
    [14134,"HCEP03730566","2024-02-22 08:30:00","9.9757","3.26166","27.394","4.776","7.55","0.532","5.42","0.05","0.63","29.4688","4.66275","51.05","0","SATNPRO1509","31.358","0.43922","5"],
    [14135,"HCEP03730566","2024-02-22 08:45:00","9.9745","3.2616","27.275","4.777","7.55","0.468","4.89","0.05","0.4","29.4692","4.66282","51.07","0","SATNPRO1509","31.328","0.43882","5"],
    [14136,"HCEP03730566","2024-02-22 09:00:00","9.9746","3.2616","27.159","4.776","7.55","0.454","5.176","0.03","0.22","29.4693","4.66281","51.05","0","SATNPRO1509","31.346","0.43904","5"],
    [14137,"HCEP03730566","2024-02-22 09:15:00","9.9749","3.26164","27.07","4.773","7.55","0.473","4.812","0.03","0.3","29.4695","4.66283","51.02","0","SATNPRO1509","31.442","0.4404","5"],
    [14138,"HCEP03730566","2024-02-22 09:30:00","9.976","3.26181","27.008","4.757","7.55","0.518","5.319","0.03","0.27","29.4703","4.66293","50.85","0","SATNPRO1509","31.226","0.43738","5"],
    [14139,"HCEP03730566","2024-02-22 09:45:00","9.9762","3.26194","26.954","4.733","7.55","0.51","5.725","0.06","0.66","29.4715","4.6631","50.6","0","SATNPRO1509","31.214","0.4372","5"],
    [14140,"HCEP03730566","2024-02-22 10:00:00","9.9756","3.262","26.895","4.722","7.55","0.471","5.364","0.02","0.2","29.4725","4.66325","50.48","0","SATNPRO1509","31.16","0.43642","5"],
    [14141,"HCEP03730566","2024-02-22 10:15:00","9.9756","3.26213","26.85","4.72","7.55","0.501","6.016","0.02","0.28","29.4739","4.66345","50.46","0","SATNPRO1509","31.15","0.43632","5"],
    [14142,"HCEP03730566","2024-02-22 10:30:00","9.9737","3.26223","26.835","4.757","7.55","0.476","4.958","0.03","0.27","29.4764","4.66383","50.86","0","SATNPRO1509","31.346","0.43904","5"],
    [14143,"HCEP03730566","2024-02-22 10:45:00","9.9713","3.26212","26.843","4.804","7.55","0.469","4.751","0.03","0.31","29.4772","4.66398","51.35","0","SATNPRO1509","31.274","0.43802","5"],
    [14144,"HCEP03730566","2024-02-22 11:00:00","9.9691","3.26189","26.847","4.825","7.55","3.089","64.261","1.75","34.67","29.4767","4.66395","51.58","0","SATNPRO1509","31.422","0.44014","5"],
    [14145,"HCEP03730566","2024-02-22 11:15:00","9.9677","3.26186","26.889","4.838","7.55","0.444","4.63","0.02","0.18","29.4775","4.6641","51.71","0","SATNPRO1509","31.338","0.43898","5"],
    [14146,"HCEP03730566","2024-02-22 11:30:00","9.9681","3.26213","26.921","4.845","7.56","6.072","88.001","6.54","27.39","29.48","4.66445","51.79","0","SATNPRO1509","31.388","0.43966","5"],
    [14147,"HCEP03730566","2024-02-22 11:45:00","9.9663","3.262","26.997","4.862","7.56","0.537","5.773","0.04","0.49","29.48","4.66449","51.97","0","SATNPRO1509","31.564","0.44212","5"],
    [14148,"HCEP03730566","2024-02-22 12:00:00","9.9637","3.26177","27.029","4.898","7.56","0.516","5.754","0.05","0.62","29.4799","4.66452","52.35","0","SATNPRO1509","31.638","0.44314","5"],
    [14149,"HCEP03730566","2024-02-22 12:15:00","9.9621","3.26171","27.115","4.907","7.56","0.413","15.863","0.05","20.95","29.4805","4.66463","52.44","0","SATNPRO1509","31.578","0.4423","5"],
    [14150,"HCEP03730566","2024-02-22 12:30:00","9.9596","3.26125","27.153","4.912","7.56","0.433","4.814","0.02","0.22","29.4779","4.66431","52.5","0","SATNPRO1509","31.516000000000002","0.44146","5"],
    [14151,"HCEP03730566","2024-02-22 12:45:00","9.9536","3.26006","27.177","4.932","7.56","0.461","4.985","0.02","0.47","29.471","4.66342","52.7","0","SATNPRO1509","31.56","0.44208","5"],
    [14152,"HCEP03730566","2024-02-22 13:00:00","9.9468","3.25905","27.251","4.954","7.56","0.438","4.615","0.01","0.21","29.4663","4.66287","52.93","0","SATNPRO1509","31.642","0.44322","5"],
    [14153,"HCEP03730566","2024-02-22 13:15:00","9.9428","3.2584","27.304","4.974","7.56","0.802","31.744","0.58","25.51","29.4631","4.66247","53.13","0","SATNPRO1509","31.69","0.44386","5"],
    [14154,"HCEP03730566","2024-02-22 13:30:00","9.9371","3.25759","27.398","4.99","7.57","0.981","12.958","0.67","13.5","29.4596","4.66208","53.3","0","SATNPRO1509","31.658","0.4434","5"],
    [14155,"HCEP03730566","2024-02-22 13:45:00","9.9305","3.25645","27.518","5.005","7.57","9.545","758.896","1.59","272.7","29.4534","4.66132","53.44","0","SATNPRO1509","31.632","0.44308","5"],
    [14156,"HCEP03730566","2024-02-22 14:00:00","9.9227","3.25526","27.615","5.007","7.57","1.568","78.295","1.68","28.66","29.4479","4.66066","53.46","0","SATNPRO1509","31.508","0.44136","5"],
    [14157,"HCEP03730566","2024-02-22 14:15:00","9.9165","3.25428","27.668","5.013","7.57","1.293","20.067","2.2","29.17","29.4431","4.66009","53.51","0","SATNPRO1509","31.556","0.44204","5"],
    [14158,"HCEP03730566","2024-02-22 14:30:00","9.9152","3.25394","27.68","4.993","7.57","0.44","7.333","0.09","7.58","29.4408","4.65979","53.3","0","SATNPRO1509","31.536","0.4417","5"],
    [14159,"HCEP03730566","2024-02-22 14:45:00","9.912","3.25352","27.692","5.001","7.57","0.447","4.123","0.01","0.32","29.4392","4.65961","53.37","0","SATNPRO1509","31.566","0.44212","5"],
    [14160,"HCEP03730566","2024-02-22 15:00:00","9.91","3.25321","27.704","5.004","7.57","0.451","4.172","0.03","0.3","29.4376","4.65942","53.4","0","SATNPRO1509","31.490000000000002","0.44106","5"],
    [14161,"HCEP03730566","2024-02-22 15:15:00","9.9092","3.25308","27.713","5.006","7.57","0.484","4.48","0.05","0.39","29.437","4.65934","53.43","0","SATNPRO1509","31.538","0.44174","5"],
    [14162,"HCEP03730566","2024-02-22 15:30:00","9.908","3.25283","27.717","4.999","7.57","0.445","4.188","0.02","0.19","29.4355","4.65915","53.35","0","SATNPRO1509","31.502","0.44124","5"],
    [14163,"HCEP03730566","2024-02-22 15:45:00","9.9037","3.25234","27.718","4.995","7.56","0.46","4.652","0.02","0.19","29.4341","4.65901","53.3","0","SATNPRO1509","31.483999999999998","0.44098","5"],
    [14164,"HCEP03730566","2024-02-22 16:00:00","9.8982","3.25152","27.727","5.001","7.56","0.443","4.165","0.02","0.14","29.4303","4.65858","53.35","0","SATNPRO1509","31.488","0.44106","5"],
    [14165,"HCEP03730566","2024-02-22 16:15:00","9.8908","3.25032","27.681","5.012","7.56","0.486","4.201","0.05","1.02","29.4243","4.65784","53.46","0","SATNPRO1509","31.636","0.44312","5"],
    [14166,"HCEP03730566","2024-02-22 16:30:00","9.8912","3.25033","27.646","5.017","7.56","0.51","4.37","0.09","0.55","29.4241","4.6578","53.52","0","SATNPRO1509","31.546","0.44186","5"],
    [14167,"HCEP03730566","2024-02-22 16:45:00","9.8965","3.25105","27.57","5.007","7.56","0.483","4.476","0.03","0.35","29.4271","4.65813","53.42","0","SATNPRO1509","31.498","0.44118","5"],
    [14168,"HCEP03730566","2024-02-22 17:00:00","9.8948","3.25055","27.507","4.984","7.56","0.462","4.882","0.02","0.29","29.4235","4.65764","53.17","0","SATNPRO1509","31.323999999999998","0.43876","5"],
    [14169,"NA","2024-03-01 13:45:00",null,null,null,null,null,null,null,null,null,null,null,null,null,"SATNPRO1509","30.158","0.42238","5"],
    [14170,"HCEP03730566","2024-02-22 17:15:00","9.9038","3.25178","27.412","4.968","7.56","1.412","35.785","1.47","36.55","29.4285","4.6582","53.01","0","SATNPRO1509","31.278","0.43814","5"],
    [14171,"HCEP03730566","2024-02-22 17:30:00","9.9028","3.25184","27.247","4.951","7.56","0.475","5.937","0.07","3.59","29.43","4.65843","52.82","0","SATNPRO1509","31.304","0.43844","5"],
    [14172,"HCEP03730566","2024-02-22 17:45:00","9.905","3.25206","27.076","4.938","7.56","0.478","4.662","0.02","0.18","29.4305","4.65844","52.69","0","SATNPRO1509","31.302","0.43844","5"],
    [14173,"HCEP03730566","2024-02-22 18:00:00","9.9074","3.25191","26.916","4.937","7.56","0.568","7.812","0.22","6.13","29.427","4.6579","52.69","0","SATNPRO1509","31.316","0.4386","5"],
    [14174,"HCEP03730566","2024-02-22 18:15:00","9.9069","3.25163","26.771","4.967","7.56","0.461","4.718","0.01","0.31","29.4247","4.65757","53","0","SATNPRO1509","31.398","0.43976","5"],
    [14175,"HCEP03730566","2024-02-22 18:30:00","9.9124","3.25237","26.604","5.03","7.57","0.45","4.677","0.03","0.29","29.4278","4.6579","53.68","0","SATNPRO1509","31.624","0.44292","5"],
    [14176,"HCEP03730566","2024-02-22 18:45:00","9.9165","3.25296","26.332","4.989","7.57","0.716","7.928","0.29","3.09","29.4305","4.6582","53.25","0","SATNPRO1509","31.41","0.44","5"],
    [14177,"HCEP03730566","2024-02-22 19:00:00","9.9254","3.25366","26.059","4.94","7.56","0.438","5.426","0.01","0.25","29.4303","4.65801","52.74","0","SATNPRO1509","31.564","0.4421","5"],
    [14178,"HCEP03730566","2024-02-22 19:15:00","9.9333","3.25503","25.813","4.931","7.56","2.243","745.398","0.77","147.77","29.4377","4.65892","52.66","0","SATNPRO1509","31.738","0.44454","5"],
    [14179,"HCEP03730566","2024-02-22 19:30:00","9.942","3.25628","25.601","4.93","7.56","0.438","4.529","0.02","0.21","29.4432","4.65955","52.65","0","SATNPRO1509","31.582","0.44236","5"],
    [14180,"HCEP03730566","2024-02-22 19:45:00","9.9502","3.25673","25.405","4.874","7.56","0.948","20.814","0.15","6.18","29.4411","4.6591","52.06","0","SATNPRO1509","31.498","0.44116","5"],
    [14181,"HCEP03730566","2024-02-22 20:00:00","9.9576","3.25687","25.231","4.809","7.56","0.949","14.464","0.85","22.09","29.4366","4.65833","51.38","0","SATNPRO1509","31.47","0.4408","5"],
    [14182,"HCEP03730566","2024-02-22 20:15:00","9.9618","3.25692","25.082","4.758","7.55","0.448","5.096","0.01","0.36","29.4337","4.65783","50.83","0","SATNPRO1509","31.47","0.44078","5"],
    [14183,"HCEP03730566","2024-02-22 20:30:00","9.9699","3.25661","24.919","4.697","7.55","0.443","5.042","0.02","0.42","29.4241","4.6563","50.19","0","SATNPRO1509","31.298","0.43834","5"],
    [14184,"HCEP03730566","2024-02-22 20:45:00","9.9763","3.25635","24.783","4.641","7.55","0.448","4.823","0.01","0.76","29.4163","4.65509","49.6","0","SATNPRO1509","31.516000000000002","0.4414","5"],
    [14185,"HCEP03730566","2024-02-22 21:00:00","9.9788","3.25605","24.702","4.608","7.54","1.299","21.43","0.52","10.84","29.4113","4.65432","49.24","0","SATNPRO1509","31.604","0.4427","5"],
    [14186,"HCEP03730566","2024-02-22 21:15:00","9.978","3.25593","24.63","4.599","7.54","0.519","5.342","0.07","0.8","29.4108","4.65426","49.15","0","SATNPRO1509","31.376","0.4395","5"],
    [14187,"HCEP03730566","2024-02-22 21:30:00","9.9774","3.25577","24.582","4.595","7.54","0.439","3.97","0.02","0.21","29.4097","4.65411","49.1","0","SATNPRO1509","31.53","0.44164","5"],
    [14188,"HCEP03730566","2024-02-22 21:45:00","9.9767","3.25574","24.55","4.595","7.54","0.449","4.912","0.02","0.34","29.4099","4.65414","49.1","0","SATNPRO1509","31.474","0.44084","5"],
    [14189,"HCEP03730566","2024-02-22 22:00:00","9.9766","3.2557","24.529","4.596","7.54","0.437","4.418","0.02","0.24","29.4096","4.65411","49.11","0","SATNPRO1509","31.762","0.44488","5"],
    [14190,"HCEP03730566","2024-02-22 22:15:00","9.9754","3.25542","24.554","4.602","7.54","0.632","7.272","0.13","2.21","29.4079","4.65388","49.18","0","SATNPRO1509","31.406","0.4399","5"],
    [14191,"HCEP03730566","2024-02-22 22:30:00","9.9769","3.25581","24.598","4.6","7.54","0.437","4.261","0.05","0.29","29.4105","4.65423","49.15","0","SATNPRO1509","31.322","0.43872","5"],
    [14192,"HCEP03730566","2024-02-22 22:45:00","9.9768","3.25571","24.662","4.596","7.54","0.468","4.741","0.02","0.47","29.4095","4.6541","49.11","0","SATNPRO1509","32.506","0.4553","5"],
    [14193,"HCEP03730566","2024-02-22 23:00:00","9.975","3.25548","24.78","4.605","7.53","2.323","37.123","0.89","22.9","29.4087","4.65402","49.21","0","SATNPRO1509","31.186","0.4368","5"],
    [14194,"HCEP03730566","2024-02-22 23:15:00","9.9779","3.256","24.909","4.585","7.53","0.846","11.694","0.89","12.82","29.4115","4.65437","49","0","SATNPRO1509","30.97","0.43382","5"],
    [14195,"HCEP03730566","2024-02-22 23:30:00","9.9775","3.256","25.059","4.566","7.53","0.434","5.051","0.02","0.26","29.4118","4.65443","48.8","0","SATNPRO1509","31.45","0.44052","5"],
    [14196,"HCEP03730566","2024-02-22 23:45:00","9.9785","3.25616","25.23","4.564","7.53","0.452","4.651","0.02","0.65","29.4124","4.65452","48.77","0","SATNPRO1509","31.092","0.43552","5"],
    [14197,"HCEP03730566","2024-02-23 00:00:00","9.978","3.2561","25.385","4.557","7.53","0.521","4.863","0.07","0.17","29.4121","4.65449","48.7","0","SATNPRO1509","31.126","0.43598","5"],
    [14198,"HCEP03730566","2024-02-23 00:15:00","9.9788","3.25618","25.551","4.547","7.53","0.598","5.27","0.04","0.34","29.4122","4.6545","48.6","0","SATNPRO1509","31.338","0.43894","5"],
    [14199,"HCEP03730566","2024-02-23 00:30:00","9.9774","3.25596","25.729","4.545","7.53","0.43","4.679","0.02","0.34","29.4111","4.65437","48.57","0","SATNPRO1509","31.33","0.43882","5"],
    [14200,"HCEP03730566","2024-02-23 00:45:00","9.977","3.25583","25.855","4.546","7.53","0.454","4.718","0.03","0.36","29.4101","4.65424","48.58","0","SATNPRO1509","31.466","0.44076","5"],
    [14201,"HCEP03730566","2024-02-23 01:00:00","9.976","3.25565","26.023","4.546","7.53","0.436","4.223","0.02","0.33","29.409","4.65412","48.58","0","SATNPRO1509","31.396","0.43974","5"],
    [14202,"HCEP03730566","2024-02-23 01:15:00","9.9774","3.2558","26.222","4.534","7.53","2.612","27.038","0.32","3.99","29.4094","4.65415","48.45","0","SATNPRO1509","31.326","0.43874","5"],
    [14203,"HCEP03730566","2024-02-23 01:30:00","9.9779","3.25587","26.428","4.51","7.53","0.433","4.57","0.03","0.43","29.4095","4.65418","48.2","0","SATNPRO1509","31.182","0.43678","5"],
    [14204,"HCEP03730566","2024-02-23 01:45:00","9.9778","3.25581","26.622","4.493","7.53","0.454","4.233","0.01","0.23","29.409","4.65411","48.01","0","SATNPRO1509","31.118","0.43586","5"],
    [14205,"HCEP03730566","2024-02-23 02:00:00","9.9774","3.25577","26.819","4.492","7.53","0.448","4.933","0.02","0.36","29.4089","4.65412","48","0","SATNPRO1509","31.206","0.43714","5"],
    [14206,"HCEP03730566","2024-02-23 02:15:00","9.9773","3.25585","27.021","4.502","7.53","0.45","4.699","0.02","0.26","29.4096","4.65423","48.11","0","SATNPRO1509","31.330000000000002","0.4388","5"],
    [14207,"HCEP03730566","2024-02-23 02:30:00","9.9776","3.25599","27.232","4.506","7.53","0.445","5.083","0.02","0.35","29.4106","4.65439","48.15","0","SATNPRO1509","31.23","0.43748","5"],
    [14208,"HCEP03730566","2024-02-23 02:45:00","9.9787","3.25627","27.42","4.496","7.53","0.462","5.064","0.04","0.35","29.4125","4.65465","48.05","0","SATNPRO1509","30.732","0.43046","5"],
    [14209,"HCEP03730566","2024-02-23 03:00:00","9.9796","3.25646","27.615","4.494","7.53","0.442","5.149","0.02","0.41","29.4136","4.65479","48.03","0","SATNPRO1509","31.114","0.43582","5"],
    [14210,"HCEP03730566","2024-02-23 03:15:00","9.9809","3.25671","27.791","4.497","7.53","0.469","5.017","0.07","0.37","29.4149","4.65498","48.06","0","SATNPRO1509","31.294","0.4383","5"],
    [14211,"HCEP03730566","2024-02-23 03:30:00","9.9821","3.25696","27.823","4.492","7.53","0.451","5.078","0.02","0.37","29.4164","4.65517","48.01","0","SATNPRO1509","31.222","0.4373","5"],
    [14212,"HCEP03730566","2024-02-23 03:45:00","9.983","3.25719","27.982","4.479","7.53","0.434","5.06","0.02","0.35","29.418","4.65539","47.87","0","SATNPRO1509","31.330000000000002","0.43884","5"],
    [14213,"HCEP03730566","2024-02-23 04:00:00","9.9843","3.25757","28.056","4.471","7.53","0.43","4.817","0.02","0.36","29.4207","4.65576","47.79","0","SATNPRO1509","31.326","0.43874","5"],
    [14214,"HCEP03730566","2024-02-23 04:15:00","9.9853","3.25794","28.134","4.466","7.53","0.46","5.127","0.03","0.37","29.4235","4.65615","47.73","0","SATNPRO1509","31.178","0.4367","5"],
    [14215,"HCEP03730566","2024-02-23 04:30:00","9.9839","3.258","28.189","4.462","7.53","0.451","4.877","0.02","0.27","29.4253","4.65644","47.69","0","SATNPRO1509","31.262","0.43788","5"],
    [14216,"HCEP03730566","2024-02-23 04:45:00","9.9824","3.2582","28.214","4.476","7.53","0.449","5.075","0.02","0.32","29.4285","4.65692","47.85","0","SATNPRO1509","31.216","0.43722","5"],
    [14217,"HCEP03730566","2024-02-23 05:00:00","9.9785","3.25842","28.226","4.501","7.53","0.437","5.225","0.02","0.31","29.4339","4.65775","48.11","0","SATNPRO1509","31.062","0.43508","5"],
    [14218,"HCEP03730566","2024-02-23 05:15:00","9.9738","3.25831","28.218","4.541","7.53","0.433","4.76","0.01","0.25","29.4366","4.65823","48.54","0","SATNPRO1509","31.298","0.43838","5"],
    [14219,"HCEP03730566","2024-02-23 05:30:00","9.9646","3.25759","28.199","4.576","7.53","0.444","4.899","0.04","0.59","29.4368","4.65841","48.89","0","SATNPRO1509","31.448","0.44048","5"],
    [14220,"HCEP03730566","2024-02-23 05:45:00","9.9581","3.25692","28.19","4.664","7.54","0.443","4.688","0.02","0.3","29.4355","4.65832","49.83","0","SATNPRO1509","31.402","0.43982","5"],
    [14221,"HCEP03730566","2024-02-23 06:00:00","9.9539","3.25649","28.173","4.716","7.54","0.465","5.309","0.04","1.23","29.4346","4.65827","50.38","0","SATNPRO1509","31.452","0.44056","5"],
    [14222,"HCEP03730566","2024-02-23 06:15:00","9.9442","3.25509","28.135","4.762","7.54","0.435","4.503","0.01","0.24","29.4285","4.65755","50.86","0","SATNPRO1509","31.538","0.44176","5"],
    [14223,"HCEP03730566","2024-02-23 06:30:00","9.942","3.25406","28.079","4.773","7.55","0.44","4.678","0.02","0.27","29.42","4.65638","50.97","0","SATNPRO1509","31.646","0.44324","5"],
    [14224,"HCEP03730566","2024-02-23 06:45:00","9.9415","3.25291","28.02","4.765","7.55","0.47","4.72","0.03","0.54","29.4089","4.65479","50.88","0","SATNPRO1509","31.64","0.44316","5"],
    [14225,"HCEP03730566","2024-02-23 07:00:00","9.9399","3.25266","27.948","4.772","7.55","0.44","4.334","0.02","0.18","29.4077","4.65464","50.96","0","SATNPRO1509","31.71","0.44414","5"],
    [14226,"HCEP03730566","2024-02-23 07:15:00","9.9384","3.25179","27.872","4.776","7.55","0.452","4.107","0.02","0.5","29.4003","4.65361","51","0","SATNPRO1509","31.758","0.44482","5"],
    [14227,"HCEP03730566","2024-02-23 07:30:00","9.9365","3.25165","27.778","4.777","7.55","0.442","4.708","0.02","0.29","29.4005","4.65366","51","0","SATNPRO1509","31.776","0.44508","5"],
    [14228,"HCEP03730566","2024-02-23 07:45:00","9.9322","3.25099","27.677","4.791","7.55","4.558","48.05","5.08","43.93","29.3974","4.65329","51.14","0","SATNPRO1509","31.802","0.44546","5"],
    [14229,"HCEP03730566","2024-02-23 08:00:00","9.9287","3.25051","27.579","4.819","7.55","0.447","4.963","0.02","0.87","29.3955","4.65307","51.44","0","SATNPRO1509","31.85","0.4461","5"],
    [14230,"HCEP03730566","2024-02-23 08:15:00","9.9265","3.25022","27.477","4.845","7.55","0.453","4.623","0.02","0.22","29.3944","4.65295","51.72","0","SATNPRO1509","31.79","0.44526","5"],
    [14231,"HCEP03730566","2024-02-23 08:30:00","9.917","3.2495","27.372","4.9","7.55","0.444","3.891","0.02","0.32","29.3949","4.65317","52.29","0","SATNPRO1509","32.066","0.44918","5"],
    [14232,"HCEP03730566","2024-02-23 08:45:00","9.9125","3.24924","27.253","4.977","7.56","0.46","4.499","0.02","0.17","29.3961","4.65341","53.11","0","SATNPRO1509","31.938","0.44738","5"],
    [14233,"HCEP03730566","2024-02-23 09:00:00","9.9015","3.24886","27.142","5.075","7.56","0.441","3.778","0.02","0.32","29.4013","4.65433","54.14","0","SATNPRO1509","32.022","0.44858","5"],
    [14234,"HCEP03730566","2024-02-23 09:15:00","9.901","3.24885","27.028","5.111","7.57","0.487","5.016","0.06","1.25","29.4017","4.65439","54.53","0","SATNPRO1509","31.938000000000002","0.44736","5"],
    [14235,"HCEP03730566","2024-02-23 09:30:00","9.8974","3.2488","26.907","5.035","7.57","0.585","7.653","0.12","2.34","29.4041","4.65478","53.71","0","SATNPRO1509","31.664","0.44348","5"],
    [14236,"HCEP03730566","2024-02-23 09:45:00","9.8923","3.24892","26.811","4.961","7.57","0.476","5.678","0.03","0.36","29.4095","4.65564","52.92","0","SATNPRO1509","31.608","0.44274","5"],
    [14237,"HCEP03730566","2024-02-23 10:00:00","9.8903","3.24937","26.714","4.931","7.56","0.452","5.116","0.02","0.4","29.4157","4.65655","52.59","0","SATNPRO1509","31.54","0.44176","5"],
    [14238,"HCEP03730566","2024-02-23 10:15:00","9.8917","3.25011","26.644","4.914","7.56","0.47","5.775","0.02","0.39","29.422","4.65744","52.42","0","SATNPRO1509","31.556","0.442","5"],
    [14239,"HCEP03730566","2024-02-23 10:30:00","9.8953","3.25145","26.589","4.913","7.56","0.446","4.635","0.02","0.31","29.4325","4.65887","52.41","0","SATNPRO1509","31.462","0.4407","5"],
    [14240,"HCEP03730566","2024-02-23 10:45:00","9.896","3.25163","26.556","4.894","7.56","0.46","5.214","0.02","0.41","29.4337","4.65903","52.21","0","SATNPRO1509","31.49","0.44108","5"],
    [14241,"HCEP03730566","2024-02-23 11:00:00","9.8991","3.2524","26.549","4.888","7.56","0.443","5.017","0.02","0.29","29.4389","4.65972","52.16","0","SATNPRO1509","31.506","0.44128","5"],
    [14242,"HCEP03730566","2024-02-23 11:15:00","9.9026","3.25302","26.561","4.872","7.56","0.483","6.201","0.05","1.82","29.4423","4.66014","51.99","0","SATNPRO1509","31.451999999999998","0.44052","5"],
    [14243,"HCEP03730566","2024-02-23 11:30:00","9.9047","3.25349","26.585","4.865","7.56","0.435","5.26","0.02","1.08","29.4452","4.66052","51.92","0","SATNPRO1509","31.492","0.44108","5"],
    [14244,"HCEP03730566","2024-02-23 11:45:00","9.9067","3.25391","26.612","4.861","7.56","0.45","4.806","0.01","0.23","29.4478","4.66087","51.88","0","SATNPRO1509","31.496","0.44118","5"],
    [14245,"HCEP03730566","2024-02-23 12:00:00","9.9086","3.25423","26.666","4.854","7.56","0.44","5.014","0.02","0.25","29.4495","4.66108","51.81","0","SATNPRO1509","31.386","0.4396","5"],
    [14246,"HCEP03730566","2024-02-23 12:15:00","9.9113","3.25459","26.753","4.85","7.55","0.472","5.324","0.04","0.37","29.4509","4.66123","51.77","0","SATNPRO1509","31.472","0.44082","5"],
    [14247,"HCEP03730566","2024-02-23 12:30:00","9.9128","3.25483","26.833","4.843","7.55","0.466","5.383","0.03","0.4","29.452","4.66137","51.7","0","SATNPRO1509","31.366","0.4393","5"],
    [14248,"HCEP03730566","2024-02-23 12:45:00","9.9157","3.25514","26.913","4.842","7.55","0.459","5.569","0.03","0.58","29.4527","4.66143","51.69","0","SATNPRO1509","31.45","0.44054","5"],
    [14249,"HCEP03730566","2024-02-23 13:00:00","9.9172","3.25543","26.995","4.833","7.55","0.644","7.654","0.19","1.84","29.4544","4.66165","51.6","0","SATNPRO1509","31.346","0.43902","5"],
    [14250,"HCEP03730566","2024-02-23 13:15:00","9.921","3.25584","27.077","4.825","7.55","0.687","10.605","0.14","3.39","29.4554","4.66173","51.52","0","SATNPRO1509","31.362000000000002","0.4393","5"],
    [14251,"HCEP03730566","2024-02-23 13:30:00","9.924","3.25622","27.127","4.832","7.55","0.438","5.257","0.01","0.57","29.4567","4.66187","51.59","0","SATNPRO1509","31.444","0.4404","5"],
    [14252,"HCEP03730566","2024-02-23 13:45:00","9.9248","3.25645","27.188","4.835","7.55","0.463","5.778","0.02","0.36","29.4582","4.66208","51.62","0","SATNPRO1509","31.482","0.44098","5"],
    [14253,"HCEP03730566","2024-02-23 14:00:00","9.9286","3.25683","27.266","4.83","7.55","0.426","13.301","0.06","9.24","29.459","4.66213","51.58","0","SATNPRO1509","31.436","0.44034","5"],
    [14254,"HCEP03730566","2024-02-23 14:15:00","9.914","3.25631","27.353","4.97","7.56","0.446","5.494","0.02","0.48","29.4656","4.66333","53.06","0","SATNPRO1509","31.692","0.44386","5"],
    [14255,"HCEP03730566","2024-02-23 14:30:00","9.8846","3.25473","27.416","5.209","7.57","0.42","4.676","0.02","0.29","29.4738","4.66501","55.58","0","SATNPRO1509","32.178","0.45068","5"],
    [14256,"HCEP03730566","2024-02-23 14:45:00","9.859","3.25289","27.47","5.399","7.58","0.419","4.26","0.02","0.16","29.4761","4.66578","57.57","0","SATNPRO1509","32.456","0.45458","5"],
    [14257,"HCEP03730566","2024-02-23 15:00:00","9.8187","3.24978","27.514","5.611","7.6","0.424","3.298","0.07","0.14","29.4779","4.66672","59.79","0","SATNPRO1509","32.668","0.45756","5"],
    [14258,"HCEP03730566","2024-02-23 15:15:00","9.8175","3.24989","27.585","5.71","7.61","0.403","3.526","0.02","0.18","29.48","4.66705","60.83","0","SATNPRO1509","32.5","0.45524","5"],
    [14259,"HCEP03730566","2024-02-23 15:30:00","9.8158","3.24985","27.628","5.733","7.62","0.402","3.488","0.02","0.15","29.4809","4.66721","61.07","0","SATNPRO1509","32.546","0.45586","5"],
    [14260,"HCEP03730566","2024-02-23 15:45:00","9.8083","3.24922","27.668","5.751","7.62","0.405","3.41","0.01","0.21","29.4807","4.66731","61.26","0","SATNPRO1509","32.494","0.45512","5"],
    [14261,"HCEP03730566","2024-02-23 16:00:00","9.8032","3.24887","27.694","5.77","7.63","0.396","3.468","0.02","0.16","29.4814","4.66749","61.45","0","SATNPRO1509","32.544","0.45584","5"],
    [14262,"HCEP03730566","2024-02-23 16:15:00","9.8055","3.24889","27.713","5.77","7.63","0.409","3.457","0.02","0.2","29.4797","4.66721","61.45","0","SATNPRO1509","32.43","0.45426","5"],
    [14263,"HCEP03730566","2024-02-23 16:30:00","9.815","3.24935","27.743","5.73","7.63","0.376","3.606","0.01","0.31","29.4764","4.66659","61.04","0","SATNPRO1509","32.292","0.4523","5"],
    [14264,"HCEP03730566","2024-02-23 16:45:00","9.8109","3.24919","27.707","5.701","7.63","0.404","3.972","0.02","0.2","29.4782","4.66691","60.72","0","SATNPRO1509","32.334","0.4529","5"],
    [14265,"HCEP03730566","2024-02-23 17:00:00","9.8122","3.24923","27.659","5.71","7.63","0.391","3.451","0.01","0.23","29.4776","4.6668","60.83","0","SATNPRO1509","32.378","0.45352","5"],
    [14266,"HCEP03730566","2024-02-23 17:15:00","9.8037","3.2489","27.598","5.747","7.63","0.401","3.468","0.02","0.18","29.4812","4.66746","61.21","0","SATNPRO1509","32.324","0.45274","5"],
    [14267,"HCEP03730566","2024-02-23 17:30:00","9.8017","3.24886","27.488","5.746","7.63","0.39","3.669","0.02","0.22","29.4825","4.66767","61.19","0","SATNPRO1509","32.35","0.45314","5"],
    [14268,"HCEP03730566","2024-02-23 17:45:00","9.8003","3.24891","27.369","5.716","7.63","0.488","5.79","0.14","2.22","29.4842","4.66793","60.87","0","SATNPRO1509","32.512","0.45538","5"],
    [14269,"HCEP03730566","2024-02-23 18:00:00","9.7979","3.24881","27.23","5.737","7.63","0.395","4.245","0.02","0.15","29.4852","4.66811","61.09","0","SATNPRO1509","32.124","0.44994","5"],
    [14270,"HCEP03730566","2024-02-23 18:15:00","9.7957","3.2487","27.085","5.755","7.63","0.768","7.012","0.25","2.25","29.486","4.66825","61.28","0","SATNPRO1509","32.492","0.45514","5"],
    [14271,"HCEP03730566","2024-02-23 18:30:00","9.7957","3.24881","26.94","5.765","7.63","0.398","3.769","0.01","0.17","29.4872","4.66841","61.4","0","SATNPRO1509","32.318","0.45268","5"],
    [14272,"HCEP03730566","2024-02-23 18:45:00","9.7971","3.24906","26.789","5.779","7.63","0.679","7.663","0.28","7.13","29.4886","4.66858","61.54","0","SATNPRO1509","32.378","0.4535","5"],
    [14273,"HCEP03730566","2024-02-23 19:00:00","9.8019","3.24945","26.632","5.767","7.63","0.392","3.991","0.01","0.3","29.4886","4.6685","61.42","0","SATNPRO1509","32.374","0.45348","5"],
    [14274,"HCEP03730566","2024-02-23 19:15:00","9.8084","3.25025","26.509","5.77","7.63","0.419","3.878","0.01","0.25","29.4914","4.66877","61.46","0","SATNPRO1509","32.414","0.454","5"],
    [14275,"HCEP03730566","2024-02-23 19:30:00","9.8132","3.25079","26.36","5.76","7.63","0.408","4.47","0.02","0.27","29.4929","4.6689","61.36","0","SATNPRO1509","32.222","0.45132","5"],
    [14276,"HCEP03730566","2024-02-23 19:45:00","9.818","3.25118","26.23","5.745","7.63","0.419","3.989","0.01","0.24","29.4931","4.66883","61.21","0","SATNPRO1509","32.484","0.455","5"],
    [14277,"HCEP03730566","2024-02-23 20:00:00","9.8288","3.25172","25.98","5.71","7.63","0.397","4.138","0.02","0.46","29.4898","4.66816","60.85","0","SATNPRO1509","32.414","0.454","5"],
    [14278,"HCEP03730566","2024-02-23 20:15:00","9.8497","3.25221","25.794","5.607","7.63","0.431","3.819","0.02","0.23","29.4776","4.66604","59.77","0","SATNPRO1509","32.194","0.45092","5"],
    [14279,"HCEP03730566","2024-02-23 20:30:00","9.854","3.25224","25.6","5.526","7.62","0.428","4.278","0.01","0.33","29.4745","4.66551","58.92","0","SATNPRO1509","32.246","0.45162","5"],
    [14280,"HCEP03730566","2024-02-23 20:45:00","9.8633","3.25283","25.374","5.421","7.61","0.477","4.63","0.03","0.33","29.4729","4.66512","57.81","0","SATNPRO1509","32.012","0.4484","5"],
    [14281,"HCEP03730566","2024-02-23 21:00:00","9.8762","3.25329","25.217","5.291","7.6","0.482","5.36","0.05","0.73","29.4671","4.66406","56.44","0","SATNPRO1509","31.933999999999997","0.44734","5"],
    [14282,"HCEP03730566","2024-02-23 21:15:00","9.889","3.25354","25.114","5.179","7.6","0.468","5.401","0.03","0.38","29.4591","4.6627","55.25","0","SATNPRO1509","31.698","0.44398","5"],
    [14283,"HCEP03730566","2024-02-23 21:30:00","9.8899","3.25183","24.991","5.105","7.59","0.52","5.392","0.05","0.58","29.4413","4.66013","54.46","0","SATNPRO1509","32","0.44818","5"],
    [14284,"HCEP03730566","2024-02-23 21:45:00","9.8696","3.24958","24.838","5.288","7.59","0.474","4.602","0.05","0.49","29.4354","4.65962","56.38","0","SATNPRO1509","32.3","0.45242","5"],
    [14285,"HCEP03730566","2024-02-23 22:00:00","9.8704","3.24954","24.715","5.342","7.59","0.48","4.706","0.05","0.47","29.4343","4.65945","56.96","0","SATNPRO1509","32.202","0.45106","5"],
    [14286,"HCEP03730566","2024-02-23 22:15:00","9.8733","3.24968","24.636","5.322","7.6","0.447","4.068","0.02","0.47","29.4335","4.65927","56.75","0","SATNPRO1509","32.222","0.45134","5"],
    [14287,"HCEP03730566","2024-02-23 22:30:00","9.8742","3.24965","24.563","5.329","7.6","0.438","3.858","0.02","0.34","29.4324","4.6591","56.83","0","SATNPRO1509","32.318","0.45266","5"],
    [14288,"HCEP03730566","2024-02-23 22:45:00","9.8718","3.24929","24.618","5.353","7.6","0.436","3.825","0.01","0.3","29.4308","4.65891","57.08","0","SATNPRO1509","32.326","0.45278","5"],
    [14289,"HCEP03730566","2024-02-23 23:00:00","9.87","3.2489","24.617","5.372","7.6","0.422","3.624","0.01","0.21","29.4284","4.6586","57.28","0","SATNPRO1509","32.304","0.4525","5"],
    [14290,"HCEP03730566","2024-02-23 23:15:00","9.8687","3.24876","24.702","5.386","7.6","0.435","3.664","0.01","0.21","29.4279","4.65855","57.43","0","SATNPRO1509","32.348","0.45312","5"],
    [14291,"HCEP03730566","2024-02-23 23:30:00","9.8685","3.24876","24.804","5.386","7.6","0.426","4.025","0.01","0.29","29.4281","4.65859","57.42","0","SATNPRO1509","32.384","0.4536","5"],
    [14292,"HCEP03730566","2024-02-23 23:45:00","9.8679","3.24874","24.925","5.382","7.6","0.43","3.842","0.02","0.26","29.4283","4.65864","57.39","0","SATNPRO1509","32.336","0.45292","5"],
    [14293,"HCEP03730566","2024-02-24 00:00:00","9.8656","3.24856","25.075","5.403","7.6","0.421","3.473","0.02","0.19","29.4283","4.65869","57.61","0","SATNPRO1509","32.324","0.45274","5"],
    [14294,"HCEP03730566","2024-02-24 00:15:00","9.8649","3.2486","25.206","5.418","7.6","0.429","3.729","0.02","0.23","29.4292","4.65883","57.77","0","SATNPRO1509","32.412","0.45402","5"],
    [14295,"HCEP03730566","2024-02-24 00:30:00","9.8634","3.24852","25.379","5.425","7.6","0.418","3.756","0.01","0.2","29.4296","4.65892","57.83","0","SATNPRO1509","32.39","0.45366","5"],
    [14296,"HCEP03730566","2024-02-24 00:45:00","9.8616","3.24846","25.486","5.442","7.61","0.459","3.818","0.03","0.12","29.4305","4.65909","58.02","0","SATNPRO1509","32.528","0.45562","5"],
    [14297,"HCEP03730566","2024-02-24 01:00:00","9.8604","3.24841","25.642","5.459","7.61","0.425","3.971","0.01","0.26","29.4308","4.65916","58.19","0","SATNPRO1509","32.46","0.45466","5"],
    [14298,"HCEP03730566","2024-02-24 01:15:00","9.8603","3.24859","25.819","5.459","7.61","0.443","4.11","0.02","0.28","29.4326","4.65943","58.2","0","SATNPRO1509","32.558","0.45602","5"],
    [14299,"HCEP03730566","2024-02-24 01:30:00","9.859","3.24855","25.974","5.459","7.61","0.421","4.057","0.02","0.17","29.4332","4.65955","58.2","0","SATNPRO1509","32.49","0.4551","5"],
    [14300,"HCEP03730566","2024-02-24 01:45:00","9.8582","3.24839","26.158","5.461","7.61","0.456","4.363","0.03","0.3","29.4322","4.65943","58.21","0","SATNPRO1509","32.4","0.4538","5"],
    [14301,"HCEP03730566","2024-02-24 02:00:00","9.8578","3.24825","26.356","5.461","7.61","0.414","3.98","0.01","0.24","29.431","4.65928","58.21","0","SATNPRO1509","32.436","0.45432","5"],
    [14302,"HCEP03730566","2024-02-24 02:15:00","9.8578","3.24807","26.559","5.464","7.61","0.436","4.304","0.03","0.27","29.4292","4.65904","58.24","0","SATNPRO1509","32.518","0.45546","5"],
    [14303,"HCEP03730566","2024-02-24 02:30:00","9.8583","3.24802","26.77","5.459","7.61","0.473","5.167","0.03","0.3","29.4282","4.65889","58.19","0","SATNPRO1509","32.416000000000004","0.45404","5"],
    [14304,"HCEP03730566","2024-02-24 02:45:00","9.8594","3.24797","26.977","5.444","7.61","0.445","4.506","0.03","0.42","29.4268","4.65868","58.03","0","SATNPRO1509","32.364","0.45334","5"],
    [14305,"HCEP03730566","2024-02-24 03:00:00","9.8616","3.24804","27.179","5.434","7.61","0.429","3.989","0.02","0.14","29.4255","4.65848","57.93","0","SATNPRO1509","32.464","0.45474","5"],
    [14306,"HCEP03730566","2024-02-24 03:15:00","9.8621","3.24805","27.388","5.426","7.61","0.549","4.595","0.04","0.25","29.4252","4.65844","57.84","0","SATNPRO1509","32.47","0.45482","5"],
    [14307,"HCEP03730566","2024-02-24 03:30:00","9.8654","3.24819","27.541","5.415","7.6","0.464","4.757","0.05","1.21","29.4238","4.65819","57.73","0","SATNPRO1509","32.488","0.45506","5"],
    [14308,"HCEP03730566","2024-02-24 03:45:00","9.8718","3.24869","27.734","5.366","7.6","0.509","3.998","0.03","0.18","29.4235","4.65804","57.21","0","SATNPRO1509","32.388","0.45364","5"],
    [14309,"HCEP03730566","2024-02-24 04:00:00","9.8721","3.24876","27.885","5.33","7.6","0.422","4.158","0.03","0.24","29.4239","4.6581","56.84","0","SATNPRO1509","32.29","0.45228","5"],
    [14310,"HCEP03730566","2024-02-24 04:15:00","9.8707","3.24865","28.018","5.33","7.6","0.44","4.223","0.01","0.22","29.4239","4.65814","56.83","0","SATNPRO1509","32.334","0.45288","5"],
    [14311,"HCEP03730566","2024-02-24 04:30:00","9.8696","3.24856","28.08","5.346","7.6","0.419","3.812","0.01","0.2","29.4238","4.65815","57","0","SATNPRO1509","32.382","0.45354","5"],
    [14312,"HCEP03730566","2024-02-24 04:45:00","9.8681","3.24847","28.092","5.358","7.6","0.45","3.899","0.02","0.22","29.4241","4.65822","57.13","0","SATNPRO1509","32.376","0.45348","5"],
    [14313,"HCEP03730566","2024-02-24 05:00:00","9.8679","3.24839","28.119","5.37","7.6","0.409","3.588","0.02","0.14","29.4236","4.65814","57.26","0","SATNPRO1509","32.484","0.45496","5"],
    [14314,"HCEP03730566","2024-02-24 05:15:00","9.8656","3.24828","28.192","5.378","7.6","0.43","3.927","0.01","0.15","29.4243","4.65829","57.34","0","SATNPRO1509","32.334","0.45288","5"],
    [14315,"HCEP03730566","2024-02-24 05:30:00","9.8644","3.24825","28.13","5.387","7.6","5.975","592.453","4.05","313.54","29.425","4.6584","57.43","0","SATNPRO1509","32.334","0.45288","5"],
    [14316,"HCEP03730566","2024-02-24 05:45:00","9.8647","3.24832","28.164","5.378","7.6","7.657","684.88","2.82","136.75","29.4254","4.65846","57.33","0","SATNPRO1509","32.318","0.4527","5"],
    [14317,"HCEP03730566","2024-02-24 06:00:00","9.8655","3.24841","28.16","5.373","7.6","6.149","76.074","2.16","30.1","29.4256","4.65848","57.28","0","SATNPRO1509","32.315999999999995","0.45264","5"],
    [14318,"HCEP03730566","2024-02-24 06:15:00","9.8662","3.24848","28.121","5.362","7.6","14.136","436.895","6.4","195.42","29.4258","4.65849","57.17","0","SATNPRO1509","32.286","0.45222","5"],
    [14319,"HCEP03730566","2024-02-24 06:30:00","9.8662","3.24846","28.175","5.36","7.6","0.409","4.19","0.04","0.28","29.4256","4.65847","57.15","0","SATNPRO1509","32.24","0.4516","5"],
    [14320,"HCEP03730566","2024-02-24 06:45:00","9.8665","3.24844","28.086","5.367","7.6","14.105","155.735","2.57","45.4","29.4252","4.6584","57.22","0","SATNPRO1509","32.284","0.45224","5"],
    [14321,"HCEP03730566","2024-02-24 07:00:00","9.8659","3.24841","27.986","5.369","7.6","11.52","140.366","7.99","45.16","29.4254","4.65843","57.24","0","SATNPRO1509","32.404","0.45388","5"],
    [14322,"HCEP03730566","2024-02-24 07:15:00","9.8657","3.24843","27.89","5.365","7.6","18.383","206.972","8.16","107.89","29.4258","4.65849","57.2","0","SATNPRO1509","32.376","0.45346","5"],
    [14323,"HCEP03730566","2024-02-24 07:30:00","9.8659","3.24852","27.844","5.338","7.6","0.435","10.346","0.19","14.27","29.4266","4.65859","56.91","0","SATNPRO1509","32.286","0.45224","5"],
    [14324,"HCEP03730566","2024-02-24 07:45:00","9.8665","3.24865","27.723","5.321","7.6","1.411","16.884","1.87","23.49","29.4274","4.6587","56.73","0","SATNPRO1509","32.194","0.45094","5"],
    [14325,"HCEP03730566","2024-02-24 08:00:00","9.8652","3.24846","27.631","5.345","7.6","0.47","5.309","0.1","2.12","29.4266","4.6586","56.98","0","SATNPRO1509","32.367999999999995","0.45338","5"],
    [14326,"HCEP03730566","2024-02-24 08:15:00","9.8653","3.24838","27.52","5.365","7.6","0.414","3.819","0.02","0.1","29.4259","4.65848","57.2","0","SATNPRO1509","32.344","0.45308","5"],
    [14327,"HCEP03730566","2024-02-24 08:30:00","9.8649","3.24825","27.421","5.376","7.6","0.434","20.099","0.04","12.27","29.4248","4.65833","57.32","0","SATNPRO1509","32.434","0.45426","5"],
    [14328,"HCEP03730566","2024-02-24 08:45:00","9.8647","3.24823","27.318","5.382","7.6","1.024","15.191","0.26","7.41","29.4248","4.65833","57.37","0","SATNPRO1509","32.506","0.4553","5"],
    [14329,"HCEP03730566","2024-02-24 09:00:00","9.8641","3.24829","27.206","5.376","7.6","0.417","3.355","0.02","0.12","29.4259","4.6585","57.31","0","SATNPRO1509","32.391999999999996","0.45372","5"],
    [14330,"HCEP03730566","2024-02-24 09:15:00","9.8641","3.2483","27.102","5.37","7.6","0.964","41.771","0.41","31.54","29.4261","4.65851","57.25","0","SATNPRO1509","32.464","0.4547","5"],
    [14331,"HCEP03730566","2024-02-24 09:30:00","9.8644","3.24834","26.961","5.364","7.6","1.08","22.097","0.44","12.63","29.4263","4.65853","57.18","0","SATNPRO1509","32.376","0.45348","5"],
    [14332,"HCEP03730566","2024-02-24 09:45:00","9.8641","3.24833","26.841","5.365","7.6","0.614","6.275","0.2","2.24","29.4265","4.65856","57.19","0","SATNPRO1509","32.386","0.45362","5"],
    [14333,"HCEP03730566","2024-02-24 10:00:00","9.8644","3.24849","26.708","5.359","7.6","0.93","15.003","0.47","8.76","29.4279","4.65874","57.13","0","SATNPRO1509","32.288000000000004","0.4522","5"],
    [14334,"HCEP03730566","2024-02-24 10:15:00","9.865","3.24866","26.598","5.341","7.6","0.708","7.509","0.09","1.33","29.4292","4.65891","56.94","0","SATNPRO1509","32.294","0.45234","5"],
    [14335,"HCEP03730566","2024-02-24 10:30:00","9.8651","3.24867","26.508","5.35","7.6","0.534","5.088","0.09","0.98","29.4292","4.65891","57.04","0","SATNPRO1509","32.444","0.45446","5"],
    [14336,"HCEP03730566","2024-02-24 10:45:00","9.8639","3.24842","26.438","5.366","7.6","0.425","3.341","0.02","0.14","29.4278","4.65872","57.21","0","SATNPRO1509","32.394","0.45376","5"],
    [14337,"HCEP03730566","2024-02-24 11:00:00","9.8663","3.24879","26.39","5.336","7.6","0.41","3.915","0.01","0.13","29.4296","4.65893","56.89","0","SATNPRO1509","32.208","0.4511","5"],
    [14338,"HCEP03730566","2024-02-24 11:15:00","9.8689","3.24918","26.358","5.291","7.6","0.435","4.591","0.01","0.15","29.4313","4.65914","56.42","0","SATNPRO1509","32.164","0.4505","5"],
    [14339,"HCEP03730566","2024-02-24 11:30:00","9.8704","3.24947","26.395","5.243","7.59","0.431","5.189","0.01","0.24","29.4331","4.65936","55.91","0","SATNPRO1509","31.97","0.44782","5"],
    [14340,"HCEP03730566","2024-02-24 11:45:00","9.871","3.24978","26.395","5.22","7.59","0.444","4.748","0.02","0.2","29.4357","4.65973","55.66","0","SATNPRO1509","32.025999999999996","0.44856","5"],
    [14341,"HCEP03730566","2024-02-24 12:00:00","9.8707","3.24992","26.436","5.217","7.59","0.432","4.865","0.01","0.33","29.4373","4.65997","55.63","0","SATNPRO1509","31.976","0.44788","5"],
    [14342,"HCEP03730566","2024-02-24 12:15:00","9.8701","3.24998","26.508","5.217","7.59","0.437","4.852","0.02","0.29","29.4383","4.66012","55.63","0","SATNPRO1509","31.954","0.44758","5"],
    [14343,"HCEP03730566","2024-02-24 12:30:00","9.8706","3.25011","26.587","5.207","7.59","0.424","5.09","0.01","0.17","29.4392","4.66024","55.53","0","SATNPRO1509","32.064","0.44914","5"],
    [14344,"HCEP03730566","2024-02-24 12:45:00","9.87","3.25018","26.656","5.203","7.59","0.427","3.815","0.02","0.18","29.4404","4.66043","55.48","0","SATNPRO1509","32.034","0.4487","5"],
    [14345,"HCEP03730566","2024-02-24 13:00:00","9.8724","3.25115","26.726","5.126","7.59","0.433","5.596","0.01","0.22","29.4481","4.6615","54.66","0","SATNPRO1509","31.512","0.44142","5"],
    [14346,"HCEP03730566","2024-02-24 13:15:00","9.8717","3.25136","26.788","5.104","7.58","0.437","5.216","0.02","0.19","29.4507","4.66188","54.43","0","SATNPRO1509","31.584","0.44238","5"],
    [14347,"HCEP03730566","2024-02-24 13:30:00","9.872","3.25139","26.867","5.125","7.58","0.43","5.519","0.01","0.2","29.4508","4.6619","54.65","0","SATNPRO1509","31.614","0.44284","5"],
    [14348,"HCEP03730566","2024-02-24 13:45:00","9.872","3.25128","26.945","5.132","7.58","0.441","5.03","0.02","0.26","29.4497","4.66174","54.73","0","SATNPRO1509","31.66","0.44346","5"],
    [14349,"HCEP03730566","2024-02-24 14:00:00","9.8774","3.25215","27.047","5.112","7.58","0.461","5.554","0.1","1.01","29.4539","4.66225","54.52","0","SATNPRO1509","31.646","0.44324","5"],
    [14350,"HCEP03730566","2024-02-24 14:15:00","9.8776","3.25227","27.123","5.096","7.58","0.803","8.601","0.25","2.97","29.4549","4.6624","54.36","0","SATNPRO1509","31.804","0.44546","5"],
    [14351,"HCEP03730566","2024-02-24 14:30:00","9.8765","3.25241","27.187","5.102","7.58","0.505","5.859","0.03","0.23","29.4572","4.66275","54.42","0","SATNPRO1509","31.884","0.4466","5"],
    [14352,"HCEP03730566","2024-02-24 14:45:00","9.8767","3.25253","27.292","5.107","7.58","0.851","6.377","0.25","1.13","29.4581","4.66289","54.47","0","SATNPRO1509","31.758","0.4448","5"],
    [14353,"HCEP03730566","2024-02-24 15:00:00","9.8787","3.25271","27.362","5.099","7.58","0.416","4.44","0.02","0.61","29.4583","4.66289","54.39","0","SATNPRO1509","31.828","0.44584","5"],
    [14354,"HCEP03730566","2024-02-24 15:15:00","9.8824","3.25287","27.475","5.06","7.58","0.662","6.518","0.16","1.26","29.4568","4.66261","53.97","0","SATNPRO1509","31.826","0.44578","5"],
    [14355,"HCEP03730566","2024-02-24 15:30:00","9.8883","3.25314","27.532","5.002","7.58","0.563","6.676","0.26","3.54","29.4547","4.66222","53.36","0","SATNPRO1509","31.774","0.44502","5"],
    [14356,"HCEP03730566","2024-02-24 15:45:00","9.8929","3.25298","27.604","4.951","7.57","0.413","4.582","0.01","0.2","29.4494","4.66138","52.82","0","SATNPRO1509","31.728","0.44444","5"],
    [14357,"HCEP03730566","2024-02-24 16:00:00","9.8949","3.25282","27.682","4.929","7.57","0.424","4.631","0.02","0.2","29.4461","4.66088","52.58","0","SATNPRO1509","31.898","0.44678","5"],
    [14358,"HCEP03730566","2024-02-24 16:15:00","9.8951","3.25251","27.675","4.926","7.57","0.419","3.998","0.01","0.15","29.4428","4.66041","52.56","0","SATNPRO1509","31.868","0.44634","5"],
    [14359,"HCEP03730566","2024-02-24 16:30:00","9.8969","3.25259","27.747","4.908","7.57","0.519","6.938","0.09","4","29.4421","4.66028","52.37","0","SATNPRO1509","31.698","0.44398","5"],
    [14360,"HCEP03730566","2024-02-24 16:45:00","9.9004","3.25248","27.782","4.865","7.56","0.442","4.495","0.02","0.27","29.4382","4.65966","51.91","0","SATNPRO1509","31.702","0.44406","5"],
    [14361,"HCEP03730566","2024-02-24 17:00:00","9.9025","3.25223","27.773","4.823","7.56","0.442","4.274","0.06","0.24","29.434","4.65902","51.47","0","SATNPRO1509","31.75","0.44474","5"],
    [14362,"HCEP03730566","2024-02-24 17:15:00","9.9031","3.25212","27.738","4.801","7.56","0.448","4.247","0.03","0.21","29.4324","4.65878","51.23","0","SATNPRO1509","31.738","0.44458","5"],
    [14363,"HCEP03730566","2024-02-24 17:30:00","9.9014","3.25241","27.687","4.811","7.56","0.432","4.35","0.02","0.3","29.4366","4.65942","51.34","0","SATNPRO1509","31.846","0.44606","5"],
    [14364,"HCEP03730566","2024-02-24 17:45:00","9.8991","3.25246","27.625","4.85","7.56","0.622","14.741","0.49","21.62","29.4391","4.6598","51.75","0","SATNPRO1509","31.69","0.44388","5"],
    [14365,"HCEP03730566","2024-02-24 18:00:00","9.896","3.25257","27.547","4.873","7.56","0.839","13.546","0.6","12.52","29.4428","4.66038","51.99","0","SATNPRO1509","31.648","0.4433","5"],
    [14366,"HCEP03730566","2024-02-24 18:15:00","9.894","3.25267","27.456","4.898","7.56","0.482","7.459","0.02","0.71","29.4453","4.66077","52.25","0","SATNPRO1509","31.573999999999998","0.44224","5"],
    [14367,"HCEP03730566","2024-02-24 18:30:00","9.8947","3.25273","27.399","4.927","7.56","0.958","22.554","0.34","10.62","29.4454","4.66077","52.56","0","SATNPRO1509","31.6","0.44262","5"],
    [14368,"HCEP03730566","2024-02-24 18:45:00","9.8954","3.2525","27.279","4.902","7.56","0.445","4.692","0.02","0.62","29.4426","4.66035","52.3","0","SATNPRO1509","31.702","0.44406","5"],
    [14369,"HCEP03730566","2024-02-24 19:00:00","9.8968","3.25209","27.181","4.89","7.56","0.427","4.627","0.02","0.3","29.4374","4.65958","52.17","0","SATNPRO1509","31.692","0.4439","5"],
    [14370,"HCEP03730566","2024-02-24 19:15:00","9.8921","3.25062","27.01","4.927","7.56","0.528","4.677","0.09","0.88","29.4266","4.6581","52.56","0","SATNPRO1509","32","0.44818","5"],
    [14371,"HCEP03730566","2024-02-24 19:30:00","9.8882","3.25047","26.875","5.016","7.57","0.422","3.732","0.02","0.25","29.4283","4.65841","53.5","0","SATNPRO1509","32.116","0.44984","5"],
    [14372,"HCEP03730566","2024-02-24 19:45:00","9.8739","3.24862","26.738","5.109","7.57","0.431","3.257","0.03","0.23","29.4214","4.65766","54.48","0","SATNPRO1509","32.160000000000004","0.45042","5"],
    [14373,"HCEP03730566","2024-02-24 20:00:00","9.8728","3.24862","26.583","5.236","7.58","0.427","3.902","0.03","0.36","29.4225","4.65782","55.83","0","SATNPRO1509","32.408","0.4539","5"],
    [14374,"HCEP03730566","2024-02-24 20:15:00","9.8702","3.24891","26.414","5.288","7.59","0.431","3.528","0.02","0.21","29.4275","4.65858","56.39","0","SATNPRO1509","32.446","0.45446","5"],
    [14375,"HCEP03730566","2024-02-24 20:30:00","9.8725","3.24958","26.205","5.269","7.59","0.447","5.255","0.07","3.34","29.4325","4.65923","56.19","0","SATNPRO1509","32.292","0.4523","5"],
    [14376,"HCEP03730566","2024-02-24 20:45:00","9.8755","3.24992","26.022","5.201","7.59","0.449","4.572","0.03","0.38","29.4336","4.65933","55.46","0","SATNPRO1509","32.274","0.45204","5"],
    [14377,"HCEP03730566","2024-02-24 21:00:00","9.8744","3.25004","25.712","5.205","7.59","0.539","7.433","0.06","2.04","29.4357","4.65963","55.5","0","SATNPRO1509","32.19","0.45088","5"],
    [14378,"HCEP03730566","2024-02-24 21:15:00","9.8744","3.24959","25.48","5.191","7.59","0.428","3.977","0.01","0.24","29.4313","4.65899","55.36","0","SATNPRO1509","32.288","0.45224","5"],
    [14379,"HCEP03730566","2024-02-24 21:30:00","9.8756","3.24928","25.291","5.177","7.59","1.098","7.95","0.54","2.99","29.4273","4.65838","55.2","0","SATNPRO1509","32.212","0.45114","5"],
    [14380,"HCEP03730566","2024-02-24 21:45:00","9.8737","3.24909","25.083","5.189","7.59","0.438","4.617","0.03","0.68","29.427","4.65837","55.33","0","SATNPRO1509","32.116","0.44982","5"],
    [14381,"HCEP03730566","2024-02-24 22:00:00","9.872","3.24851","24.911","5.207","7.59","0.434","4.397","0.04","0.35","29.4227","4.65777","55.52","0","SATNPRO1509","32.336","0.45292","5"],
    [14382,"HCEP03730566","2024-02-24 22:15:00","9.8758","3.24844","24.77","5.221","7.59","0.434","4.106","0.04","0.41","29.4189","4.65715","55.68","0","SATNPRO1509","32.392","0.45366","5"],
    [14383,"HCEP03730566","2024-02-24 22:30:00","9.8797","3.24824","24.691","5.2","7.59","0.422","3.688","0.02","0.22","29.4137","4.65634","55.45","0","SATNPRO1509","32.21","0.45116","5"],
    [14384,"HCEP03730566","2024-02-24 22:45:00","9.8835","3.24821","24.7","5.174","7.59","0.431","3.894","0.02","0.29","29.4104","4.65579","55.18","0","SATNPRO1509","32.45","0.45452","5"],
    [14385,"HCEP03730566","2024-02-24 23:00:00","9.8865","3.24842","24.686","5.143","7.58","0.441","4.17","0.01","0.34","29.4101","4.6557","54.85","0","SATNPRO1509","32.342","0.453","5"],
    [14386,"HCEP03730566","2024-02-24 23:15:00","9.8876","3.24847","24.7","5.123","7.58","0.475","5.153","0.03","1.44","29.4097","4.65562","54.63","0","SATNPRO1509","32.396","0.45378","5"],
    [14387,"HCEP03730566","2024-02-24 23:30:00","9.8906","3.24874","24.766","5.106","7.58","0.434","4.447","0.02","0.34","29.4099","4.65562","54.46","0","SATNPRO1509","32.23","0.45142","5"],
    [14388,"HCEP03730566","2024-02-24 23:45:00","9.8916","3.24888","24.811","5.095","7.58","0.466","4.612","0.03","0.26","29.4104","4.65567","54.35","0","SATNPRO1509","32.258","0.45186","5"],
    [14389,"HCEP03730566","2024-02-25 00:00:00","9.8924","3.24876","24.892","5.087","7.58","0.44","4.49","0.02","0.34","29.4085","4.65539","54.26","0","SATNPRO1509","32.348","0.4531","5"],
    [14390,"HCEP03730566","2024-02-25 00:15:00","9.893","3.24877","25.011","5.076","7.58","0.438","4.093","0.02","0.28","29.4082","4.65534","54.14","0","SATNPRO1509","32.418","0.45404","5"],
    [14391,"HCEP03730566","2024-02-25 00:30:00","9.8934","3.24876","25.105","5.067","7.58","0.426","4.383","0.02","0.3","29.4077","4.65527","54.04","0","SATNPRO1509","32.346","0.45306","5"],
    [14392,"HCEP03730566","2024-02-25 00:45:00","9.8935","3.24866","25.23","5.061","7.58","0.438","4.296","0.01","0.25","29.4066","4.65511","53.98","0","SATNPRO1509","32.38","0.45356","5"],
    [14393,"HCEP03730566","2024-02-25 01:00:00","9.8945","3.24861","25.376","5.048","7.58","0.427","4.522","0.02","0.33","29.4051","4.6549","53.85","0","SATNPRO1509","32.216","0.4512","5"],
    [14394,"HCEP03730566","2024-02-25 01:15:00","9.8959","3.24868","25.518","5.036","7.57","0.431","4.043","0.02","0.31","29.4047","4.65482","53.72","0","SATNPRO1509","32.282","0.45218","5"],
    [14395,"HCEP03730566","2024-02-25 01:30:00","9.8968","3.24877","25.673","5.025","7.57","0.43","4.423","0.02","0.45","29.4048","4.65482","53.6","0","SATNPRO1509","32.258","0.4518","5"],
    [14396,"HCEP03730566","2024-02-25 01:45:00","9.9002","3.24909","25.833","5.01","7.57","0.988","12.112","0.34","6.21","29.4051","4.65482","53.44","0","SATNPRO1509","32.332","0.4529","5"],
    [14397,"HCEP03730566","2024-02-25 02:00:00","9.9053","3.24951","26.007","4.973","7.57","3.432","64.366","2.02","24.51","29.4052","4.65476","53.06","0","SATNPRO1509","32.248","0.45168","5"],
    [14398,"HCEP03730566","2024-02-25 02:15:00","9.9139","3.25021","26.174","4.916","7.57","1.286","16.974","0.47","11.02","29.405","4.6546","52.46","0","SATNPRO1509","32.153999999999996","0.45036","5"],
    [14399,"HCEP03730566","2024-02-25 02:30:00","9.923","3.25091","26.348","4.838","7.56","0.452","5.452","0.06","2.26","29.4047","4.65441","51.64","0","SATNPRO1509","32.086","0.4494","5"],
    [14400,"HCEP03730566","2024-02-25 02:45:00","9.928","3.25126","26.54","4.766","7.56","0.439","4.519","0.02","0.51","29.404","4.65423","50.87","0","SATNPRO1509","32.002","0.44822","5"],
    [14401,"HCEP03730566","2024-02-25 03:00:00","9.9359","3.25174","26.745","4.69","7.55","2.654","61.723","1.54","35.27","29.4023","4.65387","50.07","0","SATNPRO1509","31.814","0.44558","5"],
    [14402,"HCEP03730566","2024-02-25 03:15:00","9.9395","3.25198","26.945","4.611","7.55","0.449","4.562","0.02","0.41","29.4016","4.65372","49.23","0","SATNPRO1509","31.802","0.44548","5"],
    [14403,"HCEP03730566","2024-02-25 03:30:00","9.9404","3.2521","27.139","4.602","7.54","0.441","5.882","0.03","3.14","29.402","4.65378","49.14","0","SATNPRO1509","31.866","0.4463","5"],
    [14404,"HCEP03730566","2024-02-25 03:45:00","9.9407","3.25211","27.326","4.595","7.54","0.458","4.385","0.03","0.22","29.4018","4.65376","49.06","0","SATNPRO1509","31.814","0.4456","5"],
    [14405,"HCEP03730566","2024-02-25 04:00:00","9.9399","3.2521","27.476","4.591","7.54","0.703","10.011","0.15","4.23","29.4023","4.65385","49.02","0","SATNPRO1509","31.71","0.44416","5"],
    [14406,"HCEP03730566","2024-02-25 04:15:00","9.9382","3.25196","27.649","4.608","7.54","0.716","7.743","0.08","1.19","29.4022","4.65388","49.2","0","SATNPRO1509","31.7","0.444","5"],
    [14407,"HCEP03730566","2024-02-25 04:30:00","9.9335","3.25172","27.793","4.635","7.54","0.546","5.987","0.16","2.22","29.4036","4.65415","49.48","0","SATNPRO1509","31.698","0.444","5"],
    [14408,"HCEP03730566","2024-02-25 04:45:00","9.9318","3.25156","27.934","4.658","7.54","0.483","4.319","0.09","0.62","29.4033","4.65416","49.73","0","SATNPRO1509","31.906","0.44688","5"],
    [14409,"HCEP03730566","2024-02-25 05:00:00","9.9371","3.25197","28.046","4.643","7.54","0.486","5.904","0.04","0.99","29.4031","4.65404","49.57","0","SATNPRO1509","31.986","0.448","5"],
    [14410,"HCEP03730566","2024-02-25 05:15:00","9.9388","3.252","28.133","4.611","7.54","0.428","4.484","0.02","0.34","29.4019","4.65384","49.23","0","SATNPRO1509","31.8","0.4454","5"],
    [14411,"HCEP03730566","2024-02-25 05:30:00","9.9399","3.25201","28.161","4.607","7.54","0.438","4.108","0.02","0.19","29.4011","4.65372","49.19","0","SATNPRO1509","31.836000000000002","0.4459","5"],
    [14412,"HCEP03730566","2024-02-25 05:45:00","9.9414","3.25212","28.209","4.583","7.54","0.457","4.35","0.04","0.45","29.401","4.65368","48.93","0","SATNPRO1509","31.766","0.4449","5"],
    [14413,"HCEP03730566","2024-02-25 06:00:00","9.9415","3.25212","28.211","4.569","7.54","0.431","4.199","0.03","0.3","29.401","4.65367","48.78","0","SATNPRO1509","31.848","0.44612","5"],
    [14414,"HCEP03730566","2024-02-25 06:15:00","9.9417","3.25213","28.171","4.561","7.54","0.466","4.306","0.03","0.22","29.4008","4.65365","48.7","0","SATNPRO1509","31.764","0.44496","5"],
    [14415,"HCEP03730566","2024-02-25 06:30:00","9.9405","3.25207","28.145","4.564","7.54","0.459","4.705","0.02","0.4","29.4012","4.65372","48.73","0","SATNPRO1509","31.868","0.44636","5"],
    [14416,"HCEP03730566","2024-02-25 06:45:00","9.9395","3.252","28.089","4.572","7.54","0.463","4.95","0.03","0.42","29.4014","4.65375","48.82","0","SATNPRO1509","31.956","0.4476","5"],
    [14417,"HCEP03730566","2024-02-25 07:00:00","9.9356","3.25173","28.009","4.608","7.54","0.523","5.133","0.02","0.38","29.4019","4.65388","49.19","0","SATNPRO1509","31.914","0.44702","5"],
    [14418,"HCEP03730566","2024-02-25 07:15:00","9.9335","3.25161","27.945","4.634","7.54","0.46","4.796","0.02","0.23","29.4024","4.65399","49.47","0","SATNPRO1509","31.962","0.44768","5"],
    [14419,"HCEP03730566","2024-02-25 07:30:00","9.9307","3.25142","27.875","4.66","7.54","0.419","4.616","0.01","0.36","29.4029","4.65411","49.74","0","SATNPRO1509","31.913999999999998","0.44702","5"],
    [14420,"HCEP03730566","2024-02-25 07:45:00","9.9278","3.25124","27.799","4.693","7.54","0.43","4.585","0.02","0.34","29.4034","4.65423","50.09","0","SATNPRO1509","32.034","0.44868","5"],
    [14421,"HCEP03730566","2024-02-25 08:00:00","9.9245","3.25099","27.709","4.711","7.54","0.422","4.847","0.02","0.31","29.4037","4.65432","50.28","0","SATNPRO1509","32.058","0.44902","5"],
    [14422,"HCEP03730566","2024-02-25 08:15:00","9.9204","3.25066","27.622","4.744","7.55","0.431","4.615","0.02","0.4","29.4037","4.65438","50.63","0","SATNPRO1509","32.094","0.4495","5"],
    [14423,"HCEP03730566","2024-02-25 08:30:00","9.9092","3.24961","27.524","4.822","7.55","0.426","4.794","0.02","0.54","29.4024","4.65438","51.45","0","SATNPRO1509","32.2","0.451","5"],
    [14424,"HCEP03730566","2024-02-25 08:45:00","9.8983","3.24865","27.404","4.922","7.56","0.44","4.162","0.02","0.32","29.4016","4.65445","52.51","0","SATNPRO1509","32.212","0.45118","5"],
    [14425,"HCEP03730566","2024-02-25 09:00:00","9.8921","3.24823","27.263","4.976","7.56","0.432","4.966","0.03","0.68","29.4026","4.65469","53.07","0","SATNPRO1509","32.205999999999996","0.45112","5"],
    [14426,"HCEP03730566","2024-02-25 09:15:00","9.8898","3.24815","27.132","5.006","7.57","0.427","4.092","0.01","0.31","29.4037","4.65488","53.39","0","SATNPRO1509","32.328","0.45282","5"],
    [14427,"HCEP03730566","2024-02-25 09:30:00","9.8871","3.24791","26.999","5.01","7.57","0.422","4.496","0.02","0.57","29.4034","4.65488","53.43","0","SATNPRO1509","32.276","0.45206","5"],
    [14428,"HCEP03730566","2024-02-25 09:45:00","9.8866","3.24797","26.871","5.011","7.57","0.431","4.379","0.02","0.29","29.4046","4.65504","53.44","0","SATNPRO1509","32.19","0.45088","5"],
    [14429,"HCEP03730566","2024-02-25 10:00:00","9.8867","3.24797","26.759","5.007","7.57","0.44","4.481","0.02","0.26","29.4046","4.65503","53.4","0","SATNPRO1509","32.26","0.45184","5"],
    [14430,"HCEP03730566","2024-02-25 10:15:00","9.8869","3.248","26.673","4.997","7.57","0.519","6.94","0.17","5.96","29.4047","4.65504","53.29","0","SATNPRO1509","32.208","0.45116","5"],
    [14431,"HCEP03730566","2024-02-25 10:30:00","9.8867","3.24801","26.528","4.986","7.57","0.449","4.892","0.02","0.43","29.405","4.65508","53.17","0","SATNPRO1509","32.21","0.45118","5"],
    [14432,"HCEP03730566","2024-02-25 10:45:00","9.886","3.248","26.397","4.981","7.57","0.448","4.675","0.02","0.33","29.4056","4.65516","53.13","0","SATNPRO1509","32.114","0.4498","5"],
    [14433,"HCEP03730566","2024-02-25 11:00:00","9.8854","3.248","26.282","4.986","7.57","0.491","6.561","0.05","1.59","29.4061","4.65524","53.18","0","SATNPRO1509","32.11","0.44974","5"],
    [14434,"HCEP03730566","2024-02-25 11:15:00","9.8883","3.24837","26.253","4.951","7.57","0.526","7.156","0.11","3.36","29.4074","4.65538","52.81","0","SATNPRO1509","32.058","0.44902","5"],
    [14435,"NA","2024-03-01 14:00:00",null,null,null,null,null,null,null,null,null,null,null,null,null,"SATNPRO1509","30.294","0.42432","5"],
    [14436,"HCEP03730566","2024-02-25 11:30:00","9.8911","3.24877","26.205","4.907","7.57","0.429","5.075","0.02","0.32","29.409300000000002","4.6556","52.34","0","SATNPRO1509","32.026","0.44854","5"],
    [14437,"HCEP03730566","2024-02-25 11:45:00","9.8935","3.24923","26.131","4.856","7.56","0.441","4.962","0.01","0.2","29.4119","4.65592","51.8","0","SATNPRO1509","31.912","0.44698","5"],
    [14438,"HCEP03730566","2024-02-25 12:00:00","9.8937","3.24934","26.163","4.836","7.56","0.459","5.607","0.02","0.3","29.4129","4.65606","51.59","0","SATNPRO1509","31.974","0.44784","5"],
    [14439,"HCEP03730566","2024-02-25 12:15:00","9.8933","3.24944","26.156","4.846","7.56","0.432","5.183","0.02","0.17","29.4141","4.65625","51.69","0","SATNPRO1509","31.886","0.44662","5"],
    [14440,"HCEP03730566","2024-02-25 12:30:00","9.8944","3.24967","26.17","4.856","7.56","0.411","4.533","0.01","0.14","29.4156","4.65644","51.8","0","SATNPRO1509","31.864","0.44632","5"],
    [14441,"HCEP03730566","2024-02-25 12:45:00","9.8957","3.2498","26.296","4.855","7.56","0.43","4.548","0.02","0.14","29.4157","4.65644","51.79","0","SATNPRO1509","32.018","0.44848","5"],
    [14442,"HCEP03730566","2024-02-25 13:00:00","9.8953","3.25003","26.313","4.846","7.56","0.422","4.769","0.02","0.24","29.4183","4.65683","51.7","0","SATNPRO1509","31.962","0.4477","5"],
    [14443,"HCEP03730566","2024-02-25 13:15:00","9.8958","3.25016","26.424","4.84","7.56","0.436","5.091","0.02","0.3","29.4192","4.65694","51.63","0","SATNPRO1509","32.038","0.44874","5"],
    [14444,"HCEP03730566","2024-02-25 13:30:00","9.8961","3.25018","26.489","4.84","7.56","0.419","4.858","0.01","0.2","29.4191","4.65693","51.63","0","SATNPRO1509","31.900000000000002","0.44682","5"],
    [14445,"HCEP03730566","2024-02-25 13:45:00","9.8969","3.25011","26.564","4.842","7.56","0.914","14.09","1.57","22.72","29.4177","4.65672","51.66","0","SATNPRO1509","32","0.44822","5"],
    [14446,"HCEP03730566","2024-02-25 14:00:00","9.8972","3.24991","26.658","4.851","7.56","0.448","5.234","0.02","0.4","29.4155","4.65641","51.75","0","SATNPRO1509","32.022","0.44858","5"],
    [14447,"HCEP03730566","2024-02-25 14:15:00","9.8969","3.25","26.763","4.85","7.56","0.439","5.152","0.01","0.19","29.4166","4.65657","51.74","0","SATNPRO1509","32.002","0.44824","5"],
    [14448,"HCEP03730566","2024-02-25 14:30:00","9.8986","3.25002","26.826","4.843","7.56","0.401","5.148","0.01","0.17","29.4154","4.65638","51.66","0","SATNPRO1509","31.974","0.44782","5"],
    [14449,"HCEP03730566","2024-02-25 14:45:00","9.9002","3.25012","26.968","4.83","7.56","0.406","5.547","0.01","0.77","29.415","4.6563","51.53","0","SATNPRO1509","31.96","0.44764","5"],
    [14450,"HCEP03730566","2024-02-25 15:00:00","9.9012","3.25004","27.048","4.828","7.56","0.394","5.062","0.01","0.19","29.4134","4.65606","51.51","0","SATNPRO1509","31.904","0.44686","5"],
    [14451,"HCEP03730566","2024-02-25 15:15:00","9.8987","3.24984","27.147","4.842","7.56","0.402","4.663","0.01","0.18","29.4134","4.65611","51.65","0","SATNPRO1509","31.984","0.44796","5"],
    [14452,"HCEP03730566","2024-02-25 15:30:00","9.8957","3.24975","27.298","4.869","7.56","0.39","4.811","0.01","0.1","29.4148","4.65637","51.94","0","SATNPRO1509","32.032","0.44868","5"],
    [14453,"HCEP03730566","2024-02-25 15:45:00","9.8927","3.24966","27.39","4.891","7.56","0.408","4.895","0.01","0.14","29.4163","4.65665","52.17","0","SATNPRO1509","31.887999999999998","0.44666","5"],
    [14454,"HCEP03730566","2024-02-25 16:00:00","9.8898","3.24971","27.443","4.91","7.56","0.39","5.308","0.01","0.23","29.4192","4.65711","52.37","0","SATNPRO1509","32.032000000000004","0.44864","5"],
    [14455,"HCEP03730566","2024-02-25 16:15:00","9.8889","3.24991","27.606","4.918","7.56","0.401","4.779","0.01","0.15","29.4219","4.65751","52.46","0","SATNPRO1509","31.922","0.44712","5"],
    [14456,"HCEP03730566","2024-02-25 16:30:00","9.8888","3.25004","27.605","4.923","7.57","4.284","62.167","6.26","46.29","29.4232","4.6577","52.51","0","SATNPRO1509","31.939999999999998","0.44736","5"],
    [14457,"HCEP03730566","2024-02-25 16:45:00","9.8895","3.25019","27.829","4.907","7.57","2.149","752.001","0.31","123.75","29.424","4.65783","52.34","0","SATNPRO1509","31.982","0.44798","5"],
    [14458,"HCEP03730566","2024-02-25 17:00:00","9.8895","3.25048","27.739","4.904","7.56","4.333","34.644","2.31","19.7","29.427","4.65825","52.31","0","SATNPRO1509","31.956","0.44762","5"],
    [14459,"HCEP03730566","2024-02-25 17:15:00","9.8882","3.25064","27.859","4.916","7.57","1.349","31.596","0.52","15.49","29.4296","4.65865","52.43","0","SATNPRO1509","32.052","0.44894","5"],
    [14460,"HCEP03730566","2024-02-25 17:30:00","9.8846","3.25128","27.8","4.909","7.57","0.409","5.606","0.02","0.33","29.4389","4.66004","52.37","0","SATNPRO1509","31.907999999999998","0.44692","5"],
    [14461,"HCEP03730566","2024-02-25 17:45:00","9.8788","3.25142","27.758","4.946","7.57","0.423","5.471","0.02","0.26","29.4452","4.66103","52.76","0","SATNPRO1509","31.874","0.44644","5"],
    [14462,"HCEP03730566","2024-02-25 18:00:00","9.8676","3.25089","27.787","5.028","7.57","0.43","5.431","0.04","0.55","29.449","4.66176","53.61","0","SATNPRO1509","32.072","0.4492","5"],
    [14463,"HCEP03730566","2024-02-25 18:15:00","9.8629","3.25068","27.659","5.101","7.58","0.5","7.186","0.05","0.75","29.4508","4.6621","54.39","0","SATNPRO1509","32.108","0.44972","5"],
    [14464,"HCEP03730566","2024-02-25 18:30:00","9.8586","3.25044","27.78","5.153","7.58","0.456","6.203","0.03","0.81","29.4518","4.66233","54.93","0","SATNPRO1509","32.136","0.45014","5"],
    [14465,"HCEP03730566","2024-02-25 18:45:00","9.8347","3.24859","27.56","5.34","7.59","0.525","6.16","0.06","1.15","29.4529","4.66287","56.91","0","SATNPRO1509","32.416","0.45404","5"],
    [14466,"HCEP03730566","2024-02-25 19:00:00","9.8379","3.24872","27.467","5.323","7.6","0.454","5.338","0.05","1.07","29.4516","4.66262","56.72","0","SATNPRO1509","32.46","0.45462","5"],
    [14467,"HCEP03730566","2024-02-25 19:15:00","9.8369","3.24842","27.317","5.361","7.6","0.424","6.458","0.04","1.64","29.4495","4.66233","57.13","0","SATNPRO1509","32.410000000000004","0.45396","5"],
    [14468,"HCEP03730566","2024-02-25 19:30:00","9.8356","3.24788","27.235","5.366","7.6","0.444","5.794","0.05","1.73","29.4451","4.66173","57.17","0","SATNPRO1509","32.448","0.45444","5"],
    [14469,"HCEP03730566","2024-02-25 19:45:00","9.8402","3.24838","27.044","5.329","7.6","0.525","8.929","0.07","3.28","29.4464","4.66182","56.79","0","SATNPRO1509","32.406","0.45388","5"],
    [14470,"HCEP03730566","2024-02-25 20:00:00","9.8433","3.24859","26.941","5.288","7.6","0.479","7.09","0.05","1.64","29.446","4.66171","56.36","0","SATNPRO1509","32.378","0.45352","5"],
    [14471,"HCEP03730566","2024-02-25 20:15:00","9.8431","3.24857","26.79","5.308","7.6","0.463","8.01","0.04","3.17","29.446","4.6617","56.57","0","SATNPRO1509","32.446","0.45446","5"],
    [14472,"HCEP03730566","2024-02-25 20:30:00","9.833","3.24779","26.58","5.391","7.6","0.562","10.864","0.1","4.66","29.4466","4.66194","57.44","0","SATNPRO1509","32.532","0.4557","5"],
    [14473,"HCEP03730566","2024-02-25 20:45:00","9.8321","3.24776","26.437","5.391","7.6","0.39","5.199","0.04","1.66","29.4471","4.66203","57.44","0","SATNPRO1509","32.622","0.45694","5"],
    [14474,"HCEP03730566","2024-02-25 21:00:00","9.8304","3.24771","26.329","5.413","7.61","0.436","9.042","0.04","2.99","29.4481","4.66219","57.67","0","SATNPRO1509","32.558","0.45602","5"],
    [14475,"HCEP03730566","2024-02-25 21:15:00","9.8265","3.24766","26.013","5.437","7.61","0.377","4.609","0.02","1.16","29.4508","4.66262","57.92","0","SATNPRO1509","32.592","0.45652","5"],
    [14476,"HCEP03730566","2024-02-25 21:30:00","9.8261","3.24771","26.02","5.442","7.61","0.388","5.351","0.02","0.95","29.4516","4.66275","57.98","0","SATNPRO1509","32.596000000000004","0.45658","5"],
    [14477,"HCEP03730566","2024-02-25 21:45:00","9.8265","3.24789","25.717","5.435","7.61","0.37","4.148","0.01","0.3","29.4533","4.66297","57.91","0","SATNPRO1509","32.602","0.45662","5"],
    [14478,"HCEP03730566","2024-02-25 22:00:00","9.8267","3.24791","25.63","5.435","7.61","0.39","4.923","0.04","0.67","29.4533","4.66296","57.9","0","SATNPRO1509","32.564","0.45608","5"],
    [14479,"HCEP03730566","2024-02-25 22:15:00","9.8264","3.24796","25.45","5.429","7.61","0.526","7.788","0.06","1.67","29.4541","4.66307","57.83","0","SATNPRO1509","32.526","0.45558","5"],
    [14480,"HCEP03730566","2024-02-25 22:30:00","9.7957","3.24583","25.197","5.502","7.61","0.433","5.318","0.05","1.25","29.458","4.66414","58.59","0","SATNPRO1509","32.55","0.4559","5"],
    [14481,"HCEP03730566","2024-02-25 22:45:00","9.7572","3.2432","25.046","5.651","7.62","0.583","10.556","0.08","2.01","29.463","4.66551","60.12","0","SATNPRO1509","32.578","0.45632","5"],
    [14482,"HCEP03730566","2024-02-25 23:00:00","9.7558","3.24309","24.974","5.685","7.63","0.471","8.696","0.04","1.54","29.4631","4.66554","60.48","0","SATNPRO1509","32.656","0.4574","5"],
    [14483,"HCEP03730566","2024-02-25 23:15:00","9.7568","3.24313","24.925","5.676","7.63","0.545","7.12","0.08","2.1","29.4627","4.66547","60.38","0","SATNPRO1509","32.582","0.45636","5"],
    [14484,"HCEP03730566","2024-02-25 23:30:00","9.7455","3.24216","24.925","5.705","7.63","0.986","15.342","0.17","3.5","29.4621","4.66557","60.68","0","SATNPRO1509","32.57","0.4562","5"],
    [14485,"HCEP03730566","2024-02-25 23:45:00","9.7313","3.24088","24.891","5.783","7.64","0.421","4.109","0.04","0.53","29.4609","4.66564","61.48","0","SATNPRO1509","32.528","0.45558","5"],
    [14486,"HCEP03730566","2024-02-26 00:00:00","9.7297","3.24062","24.92","5.797","7.64","0.438","4.592","0.02","1.02","29.4596","4.66549","61.63","0","SATNPRO1509","32.594","0.4565","5"],
    [14487,"HCEP03730566","2024-02-26 00:15:00","9.7178","3.23975","24.924","5.845","7.64","0.367","13.269","0.06","8.61","29.4606","4.66584","62.13","0","SATNPRO1509","32.542","0.4558","5"],
    [14488,"HCEP03730566","2024-02-26 00:30:00","9.7134","3.23933","24.994","5.877","7.64","0.356","4.178","0.01","1.2","29.4599","4.66582","62.46","0","SATNPRO1509","32.578","0.4563","5"],
    [14489,"HCEP03730566","2024-02-26 00:45:00","9.7123","3.23926","25.111","5.883","7.65","0.386","4.114","0.02","0.29","29.4601","4.66587","62.52","0","SATNPRO1509","32.604","0.45668","5"],
    [14490,"HCEP03730566","2024-02-26 01:00:00","9.7114","3.23935","25.182","5.89","7.65","0.378","4.176","0.01","0.29","29.4617","4.66612","62.6","0","SATNPRO1509","32.558","0.45602","5"],
    [14491,"HCEP03730566","2024-02-26 01:15:00","9.7164","3.24068","25.277","5.889","7.65","0.387","4.27","0.01","0.2","29.4709","4.66736","62.59","0","SATNPRO1509","32.504","0.4553","5"],
    [14492,"HCEP03730566","2024-02-26 01:30:00","9.7326","3.24377","25.373","5.89","7.65","0.371","3.562","0.02","0.17","29.4887","4.66963","62.63","0","SATNPRO1509","32.588","0.45646","5"],
    [14493,"HCEP03730566","2024-02-26 01:45:00","9.7326","3.2439","25.608","5.893","7.65","0.39","3.983","0.01","0.16","29.4899","4.66981","62.66","0","SATNPRO1509","32.586","0.45644","5"],
    [14494,"HCEP03730566","2024-02-26 02:00:00","9.7188","3.24195","25.672","5.912","7.65","0.365","3.501","0.01","0.19","29.4817","4.66888","62.85","0","SATNPRO1509","32.628","0.45698","5"],
    [14495,"HCEP03730566","2024-02-26 02:15:00","9.7131","3.24138","25.772","5.957","7.65","0.374","3.262","0.01","0.23","29.4805","4.66882","63.32","0","SATNPRO1509","32.588","0.45644","5"],
    [14496,"HCEP03730566","2024-02-26 02:30:00","9.7081","3.24065","26.001","5.979","7.66","0.368","3.144","0.01","0.2","29.4771","4.66844","63.55","0","SATNPRO1509","32.594","0.45654","5"],
    [14497,"HCEP03730566","2024-02-26 02:45:00","9.7042","3.23988","26.244","5.983","7.66","0.407","4.656","0.05","4.92","29.4725","4.66786","63.58","0","SATNPRO1509","32.57","0.4562","5"],
    [14498,"HCEP03730566","2024-02-26 03:00:00","9.7028","3.23938","26.543","5.989","7.66","0.389","3.421","0.02","0.61","29.4685","4.66732","63.63","0","SATNPRO1509","32.558","0.45604","5"],
    [14499,"HCEP03730566","2024-02-26 03:15:00","9.7026","3.23911","26.704","5.989","7.66","0.395","3.355","0.01","0.15","29.4658","4.66696","63.64","0","SATNPRO1509","32.574","0.45628","5"],
    [14500,"HCEP03730566","2024-02-26 03:30:00","9.705","3.2389","26.851","5.988","7.66","0.415","4.75","0.06","2.28","29.4617","4.66633","63.63","0","SATNPRO1509","32.58","0.45632","5"],
    [14501,"HCEP03730566","2024-02-26 03:45:00","9.7061","3.2386","27.013","5.98","7.66","0.39","3.021","0.02","0.08","29.4577","4.66575","63.54","0","SATNPRO1509","32.65","0.45734","5"],
    [14502,"HCEP03730566","2024-02-26 04:00:00","9.7052","3.2389","27.215","5.985","7.66","0.38","3.206","0.02","0.3","29.4614","4.6663","63.59","0","SATNPRO1509","32.54","0.45576","5"],
    [14503,"HCEP03730566","2024-02-26 04:15:00","9.706","3.23936","27.389","5.983","7.66","0.415","5.922","0.06","6.36","29.4653","4.66686","63.58","0","SATNPRO1509","32.556000000000004","0.45604","5"],
    [14504,"HCEP03730566","2024-02-26 04:30:00","9.7143","3.24163","27.584","5.971","7.66","0.389","4.157","0.01","0.46","29.4813","4.66902","63.47","0","SATNPRO1509","32.49","0.45506","5"],
    [14505,"HCEP03730566","2024-02-26 04:45:00","9.7387","3.24524","27.683","5.927","7.66","0.393","4.534","0.01","0.27","29.4976","4.67094","63.04","0","SATNPRO1509","32.526","0.4556","5"],
    [14506,"HCEP03730566","2024-02-26 05:00:00","9.7597","3.24825","27.818","5.886","7.65","0.359","3.513","0.01","0.12","29.5107","4.67244","62.63","0","SATNPRO1509","32.662","0.45748","5"],
    [14507,"HCEP03730566","2024-02-26 05:15:00","9.7673","3.24927","27.966","5.867","7.65","0.373","3.49","0.02","0.19","29.5146","4.67288","62.45","0","SATNPRO1509","32.632","0.45706","5"],
    [14508,"HCEP03730566","2024-02-26 05:30:00","9.7604","3.24833","28.074","5.868","7.65","0.358","3.348","0.01","0.16","29.5108","4.67246","62.45","0","SATNPRO1509","32.65","0.4573","5"],
    [14509,"HCEP03730566","2024-02-26 05:45:00","9.7548","3.24762","28.089","5.874","7.65","0.378","3.772","0.01","0.22","29.5082","4.67219","62.51","0","SATNPRO1509","32.61","0.45676","5"],
    [14510,"HCEP03730566","2024-02-26 06:00:00","9.7674","3.24923","28.094","5.862","7.65","0.36","3.537","0.01","0.13","29.514","4.67281","62.4","0","SATNPRO1509","32.596000000000004","0.45654","5"],
    [14511,"HCEP03730566","2024-02-26 06:15:00","9.7681","3.24932","28.105","5.853","7.65","0.366","3.422","0.01","0.12","29.5144","4.67284","62.3","0","SATNPRO1509","32.572","0.45622","5"],
    [14512,"HCEP03730566","2024-02-26 06:30:00","9.7771","3.25046","28.109","5.827","7.65","0.37","4.197","0.02","0.4","29.5185","4.67328","62.04","0","SATNPRO1509","32.698","0.45804","5"],
    [14513,"HCEP03730566","2024-02-26 06:45:00","9.7831","3.25126","28.047","5.812","7.65","0.374","4.013","0.01","0.22","29.5216","4.67362","61.89","0","SATNPRO1509","32.598","0.4566","5"],
    [14514,"HCEP03730566","2024-02-26 07:00:00","9.7819","3.25112","28.038","5.813","7.65","0.357","3.565","0.01","0.22","29.5212","4.67358","61.9","0","SATNPRO1509","32.69","0.4579","5"],
    [14515,"HCEP03730566","2024-02-26 07:15:00","9.7814","3.25098","28.076","5.816","7.65","0.369","3.45","0.01","0.27","29.5202","4.67344","61.93","0","SATNPRO1509","32.646","0.45724","5"],
    [14516,"HCEP03730566","2024-02-26 07:30:00","9.7831","3.25125","28.032","5.809","7.65","0.368","3.494","0.01","0.14","29.5215","4.6736","61.86","0","SATNPRO1509","32.614","0.45682","5"],
    [14517,"HCEP03730566","2024-02-26 07:45:00","9.7848","3.25151","27.922","5.803","7.65","0.374","3.469","0.01","0.27","29.5228","4.67375","61.79","0","SATNPRO1509","32.742","0.4586","5"],
    [14518,"HCEP03730566","2024-02-26 08:00:00","9.7843","3.25145","27.833","5.802","7.65","0.414","5.46","0.04","2.2","29.5227","4.67373","61.79","0","SATNPRO1509","32.658","0.45746","5"],
    [14519,"HCEP03730566","2024-02-26 08:15:00","9.7858","3.25163","27.763","5.801","7.65","0.402","3.297","0.04","0.22","29.5232","4.67378","61.78","0","SATNPRO1509","32.653999999999996","0.45738","5"],
    [14520,"HCEP03730566","2024-02-26 08:30:00","9.7877","3.25191","27.587","5.791","7.65","0.368","3.557","0.01","0.21","29.5247","4.67395","61.68","0","SATNPRO1509","32.688","0.45784","5"],
    [14521,"HCEP03730566","2024-02-26 08:45:00","9.7882","3.25198","27.499","5.793","7.65","0.396","3.392","0.04","0.21","29.525","4.67397","61.7","0","SATNPRO1509","32.622","0.4569","5"],
    [14522,"HCEP03730566","2024-02-26 09:00:00","9.7898","3.25215","27.411","5.791","7.65","0.372","3.195","0.01","0.22","29.5254","4.674","61.67","0","SATNPRO1509","32.672000000000004","0.45762","5"],
    [14523,"HCEP03730566","2024-02-26 09:15:00","9.7895","3.2519","27.262","5.794","7.65","0.376","3.019","0.01","0.31","29.5232","4.67368","61.71","0","SATNPRO1509","32.782","0.45916","5"],
    [14524,"HCEP03730566","2024-02-26 09:30:00","9.7756","3.24864","27.166","5.815","7.65","0.375","2.456","0.02","0.23","29.5018","4.67086","61.91","0","SATNPRO1509","32.81","0.4596","5"],
    [14525,"HCEP03730566","2024-02-26 09:45:00","9.7823","3.24977","27.04","5.811","7.65","0.394","2.843","0.03","0.31","29.5077","4.67159","61.87","0","SATNPRO1509","32.77","0.45904","5"],
    [14526,"HCEP03730566","2024-02-26 10:00:00","9.7633","3.24613","26.848","5.812","7.65","0.407","3.47","0.03","0.61","29.4867","4.6689","61.85","0","SATNPRO1509","32.628","0.45702","5"],
    [14527,"HCEP03730566","2024-02-26 10:15:00","9.7902","3.25194","26.726","5.773","7.64","0.412","3.845","0.02","0.28","29.5232","4.67364","61.49","0","SATNPRO1509","32.524","0.45558","5"],
    [14528,"HCEP03730566","2024-02-26 10:30:00","9.7893","3.2516","26.597","5.746","7.64","0.561","8.215","0.11","1.84","29.5205","4.67327","61.19","0","SATNPRO1509","32.6","0.45662","5"],
    [14529,"HCEP03730566","2024-02-26 10:45:00","9.7849","3.25076","26.401","5.752","7.64","0.411","3.577","0.02","0.26","29.5158","4.67267","61.25","0","SATNPRO1509","32.672","0.45764","5"],
    [14530,"HCEP03730566","2024-02-26 11:00:00","9.7779","3.24887","26.154","5.76","7.64","0.38","4.06","0.02","0.12","29.5026","4.67088","61.32","0","SATNPRO1509","32.62","0.45692","5"],
    [14531,"HCEP03730566","2024-02-26 11:15:00","9.7707","3.24725","26.044","5.766","7.64","0.444","5.418","0.03","0.45","29.4923","4.66953","61.38","0","SATNPRO1509","32.554","0.45598","5"],
    [14532,"HCEP03730566","2024-02-26 11:30:00","9.7603","3.24489","25.998","5.773","7.64","0.587","5.771","0.07","0.78","29.4771","4.66752","61.42","0","SATNPRO1509","32.732","0.45848","5"],
    [14533,"HCEP03730566","2024-02-26 11:45:00","9.7554","3.24341","25.96","5.771","7.64","0.63","6.131","0.08","0.92","29.4662","4.66605","61.39","0","SATNPRO1509","32.59","0.45644","5"],
    [14534,"HCEP03730566","2024-02-26 12:00:00","9.7561","3.2406","25.843","5.733","7.64","0.463","31.444","0.04","9.01","29.4374","4.66191","60.98","0","SATNPRO1509","32.668","0.45762","5"],
    [14535,"HCEP03730566","2024-02-26 12:15:00","9.7521","3.23636","25.853","5.694","7.64","0.951","16.191","0.21","8.59","29.3981","4.65635","60.54","0","SATNPRO1509","32.622","0.45692","5"],
    [14536,"HCEP03730566","2024-02-26 12:30:00","9.7529","3.23692","25.86","5.681","7.63","0.487","3.541","0.04","0.17","29.403","4.65705","60.4","0","SATNPRO1509","32.644","0.45722","5"],
    [14537,"HCEP03730566","2024-02-26 12:45:00","9.7615","3.24445","25.958","5.696","7.63","0.454","4.979","0.02","0.26","29.4717","4.66672","60.6","0","SATNPRO1509","32.426","0.4542","5"],
    [14538,"HCEP03730566","2024-02-26 13:00:00","9.767","3.24562","25.992","5.703","7.63","0.434","4.083","0.02","0.23","29.4789","4.66767","60.69","0","SATNPRO1509","32.548","0.4559","5"],
    [14539,"HCEP03730566","2024-02-26 13:15:00","9.7708","3.24629","26.051","5.694","7.64","0.452","4.169","0.03","0.25","29.4825","4.66813","60.6","0","SATNPRO1509","32.554","0.456","5"],
    [14540,"HCEP03730566","2024-02-26 13:30:00","9.7726","3.24634","26.101","5.684","7.64","0.421","3.687","0.02","0.22","29.4816","4.66796","60.5","0","SATNPRO1509","32.556","0.45602","5"],
    [14541,"HCEP03730566","2024-02-26 13:45:00","9.7733","3.24667","26.192","5.684","7.63","0.449","3.915","0.03","0.34","29.4843","4.66834","60.49","0","SATNPRO1509","32.342","0.45302","5"],
    [14542,"HCEP03730566","2024-02-26 14:00:00","9.7763","3.24763","26.297","5.681","7.63","0.415","4.087","0.02","0.54","29.4915","4.66932","60.48","0","SATNPRO1509","32.49","0.45506","5"],
    [14543,"HCEP03730566","2024-02-26 14:15:00","9.7804","3.24858","26.366","5.677","7.63","0.436","3.972","0.03","0.22","29.4976","4.67014","60.44","0","SATNPRO1509","32.604","0.45668","5"],
    [14544,"HCEP03730566","2024-02-26 14:30:00","9.7829","3.24883","26.434","5.669","7.63","0.418","3.64","0.02","0.21","29.4981","4.67016","60.36","0","SATNPRO1509","32.576","0.45626","5"],
    [14545,"HCEP03730566","2024-02-26 14:45:00","9.784","3.24865","26.531","5.667","7.63","0.416","3.611","0.02","0.16","29.4953","4.66975","60.34","0","SATNPRO1509","32.548","0.45586","5"],
    [14546,"HCEP03730566","2024-02-26 15:00:00","9.7859","3.24939","26.687","5.663","7.63","0.403","3.972","0.01","0.2","29.5011","4.67055","60.3","0","SATNPRO1509","32.53","0.45564","5"],
    [14547,"HCEP03730566","2024-02-26 15:15:00","9.786","3.24948","26.78","5.661","7.63","0.406","3.934","0.02","0.26","29.5019","4.67067","60.28","0","SATNPRO1509","32.576","0.45626","5"],
    [14548,"HCEP03730566","2024-02-26 15:30:00","9.7854","3.24958","26.755","5.666","7.63","0.392","4.064","0.02","0.29","29.5033","4.67089","60.33","0","SATNPRO1509","32.472","0.45486","5"],
    [14549,"HCEP03730566","2024-02-26 15:45:00","9.7854","3.24988","26.949","5.65","7.63","0.406","4.593","0.01","0.34","29.5063","4.67132","60.16","0","SATNPRO1509","32.448","0.4545","5"],
    [14550,"HCEP03730566","2024-02-26 16:00:00","9.7859","3.24982","27.074","5.656","7.63","0.399","3.928","0.02","0.19","29.5053","4.67117","60.22","0","SATNPRO1509","32.558","0.456","5"],
    [14551,"HCEP03730566","2024-02-26 16:15:00","9.7868","3.25007","27.079","5.66","7.63","0.397","4.368","0.01","0.18","29.5071","4.67142","60.27","0","SATNPRO1509","32.49","0.45504","5"],
    [14552,"HCEP03730566","2024-02-26 16:30:00","9.7914","3.25075","27.184","5.654","7.63","0.385","4.898","0.01","0.21","29.5101","4.67177","60.22","0","SATNPRO1509","32.386","0.45362","5"],
    [14553,"HCEP03730566","2024-02-26 16:45:00","9.7867","3.24876","27.386","5.653","7.63","0.412","4.173","0.02","0.24","29.4938","4.66954","60.19","0","SATNPRO1509","32.502","0.45526","5"],
    [14554,"HCEP03730566","2024-02-26 17:00:00","9.7848","3.24854","27.39","5.641","7.63","0.399","4.408","0.01","0.37","29.4932","4.66948","60.06","0","SATNPRO1509","32.474","0.45488","5"],
    [14555,"HCEP03730566","2024-02-26 17:15:00","9.783","3.24774","27.539","5.633","7.63","0.405","3.271","0.01","0.23","29.4866","4.66858","59.97","0","SATNPRO1509","32.6","0.45658","5"],
    [14556,"HCEP03730566","2024-02-26 17:30:00","9.783","3.24779","27.664","5.633","7.63","0.407","3.308","0.03","0.18","29.487","4.66864","59.97","0","SATNPRO1509","32.616","0.45682","5"],
    [14557,"HCEP03730566","2024-02-26 17:45:00","9.7879","3.24914","27.709","5.608","7.63","0.429","3.619","0.02","0.26","29.4965","4.66993","59.72","0","SATNPRO1509","32.576","0.45628","5"],
    [14558,"HCEP03730566","2024-02-26 18:00:00","9.7857","3.24864","27.687","5.591","7.63","0.418","4.075","0.02","0.35","29.4933","4.6695","59.52","0","SATNPRO1509","32.472","0.45482","5"],
    [14559,"HCEP03730566","2024-02-26 18:15:00","9.7848","3.24845","27.712","5.589","7.63","0.428","3.97","0.03","0.24","29.4921","4.66934","59.5","0","SATNPRO1509","32.43","0.45426","5"],
    [14560,"HCEP03730566","2024-02-26 18:30:00","9.7856","3.24818","27.639","5.559","7.63","0.415","4.46","0.01","0.16","29.4888","4.66885","59.19","0","SATNPRO1509","32.3","0.45242","5"],
    [14561,"HCEP03730566","2024-02-26 18:45:00","9.7863","3.24814","27.641","5.527","7.62","0.453","4.731","0.04","0.46","29.4878","4.6687","58.85","0","SATNPRO1509","32.176","0.45068","5"],
    [14562,"HCEP03730566","2024-02-26 19:00:00","9.7824","3.24741","27.537","5.536","7.62","0.425","4.243","0.03","0.36","29.4838","4.66819","58.93","0","SATNPRO1509","32.31","0.4526","5"],
    [14563,"HCEP03730566","2024-02-26 19:15:00","9.7826","3.24758","27.497","5.55","7.62","0.475","4.353","0.16","0.3","29.4853","4.6684","59.09","0","SATNPRO1509","32.278","0.45212","5"],
    [14564,"HCEP03730566","2024-02-26 19:30:00","9.7824","3.24767","27.413","5.559","7.62","0.42","4.128","0.02","0.21","29.4864","4.66855","59.18","0","SATNPRO1509","32.15","0.4503","5"],
    [14565,"HCEP03730566","2024-02-26 19:45:00","9.7825","3.24772","27.304","5.56","7.62","0.421","3.704","0.02","0.25","29.4869","4.66861","59.2","0","SATNPRO1509","32.35","0.4531","5"],
    [14566,"HCEP03730566","2024-02-26 20:00:00","9.782","3.24753","27.179","5.56","7.62","0.417","3.685","0.04","0.24","29.4855","4.66842","59.19","0","SATNPRO1509","32.302","0.45246","5"],
    [14567,"HCEP03730566","2024-02-26 20:15:00","9.7814","3.24725","27.035","5.559","7.62","0.423","3.569","0.02","0.14","29.4832","4.66809","59.17","0","SATNPRO1509","32.312","0.45262","5"],
    [14568,"HCEP03730566","2024-02-26 20:30:00","9.7802","3.24716","26.901","5.571","7.62","0.393","3.825","0.02","0.22","29.4833","4.66812","59.3","0","SATNPRO1509","32.33","0.45282","5"],
    [14569,"HCEP03730566","2024-02-26 20:45:00","9.7817","3.24753","26.795","5.562","7.63","0.438","3.585","0.05","0.24","29.4858","4.66845","59.21","0","SATNPRO1509","32.368","0.45338","5"],
    [14570,"HCEP03730566","2024-02-26 21:00:00","9.781","3.24731","26.671","5.562","7.62","0.4","3.655","0.02","0.19","29.4843","4.66823","59.21","0","SATNPRO1509","32.396","0.45376","5"],
    [14571,"HCEP03730566","2024-02-26 21:15:00","9.7808","3.24727","26.503","5.562","7.62","0.43","3.236","0.03","0.19","29.4841","4.6682","59.21","0","SATNPRO1509","32.326","0.45278","5"],
    [14572,"HCEP03730566","2024-02-26 21:30:00","9.7803","3.24686","26.322","5.551","7.62","0.406","3.326","0.02","0.2","29.4804","4.66768","59.09","0","SATNPRO1509","32.352","0.45314","5"],
    [14573,"HCEP03730566","2024-02-26 21:45:00","9.7798","3.24683","26.207","5.553","7.62","0.428","3.595","0.02","0.31","29.4805","4.66768","59.12","0","SATNPRO1509","32.32","0.4527","5"],
    [14574,"HCEP03730566","2024-02-26 22:00:00","9.7807","3.24707","26.059","5.549","7.62","0.407","3.917","0.02","0.79","29.4823","4.66792","59.07","0","SATNPRO1509","32.37","0.45342","5"],
    [14575,"HCEP03730566","2024-02-26 22:15:00","9.7773","3.24619","25.94","5.539","7.62","0.431","3.513","0.02","0.28","29.4763","4.66711","58.96","0","SATNPRO1509","32.336","0.4529","5"],
    [14576,"HCEP03730566","2024-02-26 22:30:00","9.779","3.24653","25.743","5.532","7.62","0.411","3.546","0.02","0.25","29.4783","4.66736","58.88","0","SATNPRO1509","32.31","0.45256","5"],
    [14577,"HCEP03730566","2024-02-26 22:45:00","9.7779","3.24609","25.579","5.52","7.62","0.423","3.608","0.02","0.31","29.4749","4.66688","58.75","0","SATNPRO1509","32.294","0.45234","5"],
    [14578,"HCEP03730566","2024-02-26 23:00:00","9.7776","3.24572","25.441","5.493","7.62","0.402","3.87","0.01","0.29","29.4715","4.6664","58.47","0","SATNPRO1509","32.282000000000004","0.4522","5"],
    [14579,"HCEP03730566","2024-02-26 23:15:00","9.7751","3.24486","25.297","5.479","7.62","0.422","3.855","0.02","0.25","29.465","4.6655","58.31","0","SATNPRO1509","32.256","0.45182","5"],
    [14580,"HCEP03730566","2024-02-26 23:30:00","9.7755","3.24472","25.199","5.458","7.62","0.417","4.257","0.02","0.35","29.4633","4.66524","58.09","0","SATNPRO1509","32.274","0.45204","5"],
    [14581,"HCEP03730566","2024-02-26 23:45:00","9.7757","3.24441","25.153","5.441","7.62","0.476","6.129","0.04","0.59","29.46","4.66476","57.91","0","SATNPRO1509","32.248","0.45172","5"],
    [14582,"HCEP03730566","2024-02-27 00:00:00","9.7784","3.24437","25.139","5.44","7.61","0.416","4.393","0.01","0.2","29.4574","4.66435","57.9","0","SATNPRO1509","32.216","0.45124","5"],
    [14583,"HCEP03730566","2024-02-27 00:15:00","9.7803","3.24453","25.164","5.429","7.61","0.433","4.274","0.02","0.23","29.4574","4.66432","57.78","0","SATNPRO1509","32.26","0.45188","5"],
    [14584,"HCEP03730566","2024-02-27 00:30:00","9.782","3.24467","25.203","5.419","7.61","0.434","4.568","0.04","0.47","29.4575","4.6643","57.68","0","SATNPRO1509","32.27","0.45198","5"],
    [14585,"HCEP03730566","2024-02-27 00:45:00","9.7881","3.24508","25.26","5.421","7.61","0.449","4.8","0.03","0.43","29.4566","4.66407","57.71","0","SATNPRO1509","32.302","0.45246","5"],
    [14586,"HCEP03730566","2024-02-27 01:00:00","9.7911","3.24527","25.338","5.424","7.61","0.422","4.204","0.03","0.33","29.456","4.66393","57.74","0","SATNPRO1509","32.212","0.4512","5"],
    [14587,"HCEP03730566","2024-02-27 01:15:00","9.7906","3.24511","25.414","5.423","7.61","0.436","4.103","0.02","0.27","29.4548","4.66378","57.73","0","SATNPRO1509","32.404","0.45382","5"],
    [14588,"HCEP03730566","2024-02-27 01:30:00","9.7911","3.24511","25.529","5.424","7.61","0.431","4.033","0.03","0.34","29.4543","4.66371","57.75","0","SATNPRO1509","32.394","0.45372","5"],
    [14589,"HCEP03730566","2024-02-27 01:45:00","9.791","3.2451","25.649","5.425","7.61","0.44","4.121","0.02","0.22","29.4543","4.66371","57.75","0","SATNPRO1509","32.428","0.45422","5"],
    [14590,"HCEP03730566","2024-02-27 02:00:00","9.7911","3.2451","25.748","5.423","7.61","0.424","3.723","0.02","0.18","29.4541","4.66369","57.73","0","SATNPRO1509","32.268","0.45198","5"],
    [14591,"HCEP03730566","2024-02-27 02:15:00","9.7912","3.24511","25.894","5.421","7.61","0.442","3.864","0.02","0.24","29.454","4.66369","57.71","0","SATNPRO1509","32.362","0.45324","5"],
    [14592,"HCEP03730566","2024-02-27 02:30:00","9.7912","3.24513","26.026","5.419","7.61","0.433","3.842","0.02","0.3","29.4543","4.66373","57.68","0","SATNPRO1509","32.442","0.45438","5"],
    [14593,"HCEP03730566","2024-02-27 02:45:00","9.7912","3.24513","26.195","5.421","7.61","0.439","3.775","0.02","0.2","29.4542","4.66372","57.71","0","SATNPRO1509","32.29","0.45228","5"],
    [14594,"HCEP03730566","2024-02-27 03:00:00","9.7915","3.24515","26.308","5.421","7.61","0.419","3.8","0.03","0.26","29.454","4.66371","57.71","0","SATNPRO1509","32.39","0.45366","5"],
    [14595,"HCEP03730566","2024-02-27 03:15:00","9.7913","3.24515","26.45","5.418","7.61","0.436","3.632","0.02","0.22","29.4542","4.66374","57.68","0","SATNPRO1509","32.43","0.45422","5"],
    [14596,"HCEP03730566","2024-02-27 03:30:00","9.792","3.24521","26.639","5.413","7.61","0.437","3.687","0.04","0.16","29.4541","4.66373","57.62","0","SATNPRO1509","32.376","0.45348","5"],
    [14597,"HCEP03730566","2024-02-27 03:45:00","9.7922","3.24531","26.788","5.401","7.61","0.448","3.988","0.02","0.29","29.4549","4.66385","57.5","0","SATNPRO1509","32.410000000000004","0.45394","5"],
    [14598,"HCEP03730566","2024-02-27 04:00:00","9.793","3.24533","26.92","5.39","7.61","0.422","4.047","0.02","0.13","29.4544","4.66376","57.39","0","SATNPRO1509","32.333999999999996","0.4529","5"],
    [14599,"HCEP03730566","2024-02-27 04:15:00","9.7927","3.24536","27.093","5.383","7.61","0.429","3.904","0.01","0.13","29.4549","4.66385","57.31","0","SATNPRO1509","32.438","0.45434","5"],
    [14600,"HCEP03730566","2024-02-27 04:30:00","9.7928","3.24539","27.247","5.384","7.61","0.424","4.074","0.02","0.2","29.455","4.66387","57.32","0","SATNPRO1509","32.334","0.45286","5"],
    [14601,"HCEP03730566","2024-02-27 04:45:00","9.7924","3.24541","27.409","5.372","7.61","0.433","4.093","0.01","0.21","29.4555","4.66397","57.19","0","SATNPRO1509","32.318","0.45268","5"],
    [14602,"HCEP03730566","2024-02-27 05:00:00","9.7928","3.24543","27.534","5.353","7.61","0.424","4.283","0.01","0.23","29.4552","4.66393","56.98","0","SATNPRO1509","32.275999999999996","0.4521","5"],
    [14603,"HCEP03730566","2024-02-27 05:15:00","9.794","3.24543","27.71","5.348","7.61","1.621","34.197","0.35","9.88","29.4542","4.66377","56.94","0","SATNPRO1509","32.31","0.45258","5"],
    [14604,"HCEP03730566","2024-02-27 05:30:00","9.7953","3.24534","27.805","5.351","7.61","0.426","3.949","0.02","0.24","29.4523","4.66347","56.97","0","SATNPRO1509","32.372","0.45342","5"],
    [14605,"HCEP03730566","2024-02-27 05:45:00","9.7971","3.24488","27.896","5.351","7.61","0.453","3.89","0.03","0.27","29.4461","4.66257","56.97","0","SATNPRO1509","32.412","0.45402","5"],
    [14606,"HCEP03730566","2024-02-27 06:00:00","9.7971","3.24461","27.96","5.35","7.61","0.462","4.458","0.09","2.34","29.4434","4.66219","56.96","0","SATNPRO1509","32.316","0.45264","5"],
    [14607,"HCEP03730566","2024-02-27 06:15:00","9.7971","3.24435","28.044","5.352","7.61","0.44","8.708","0.03","5.86","29.4408","4.66182","56.97","0","SATNPRO1509","32.438","0.45434","5"],
    [14608,"HCEP03730566","2024-02-27 06:30:00","9.7975","3.24438","28.059","5.343","7.61","0.452","3.592","0.04","0.35","29.4407","4.6618","56.89","0","SATNPRO1509","32.269999999999996","0.452","5"],
    [14609,"HCEP03730566","2024-02-27 06:45:00","9.7977","3.24434","28.103","5.341","7.61","0.475","4.034","0.04","0.69","29.4402","4.66172","56.87","0","SATNPRO1509","32.362","0.45328","5"],
    [14610,"HCEP03730566","2024-02-27 07:00:00","9.798","3.24431","28.088","5.337","7.6","0.459","4.306","0.03","0.35","29.4395","4.66162","56.82","0","SATNPRO1509","32.372","0.45342","5"],
    [14611,"HCEP03730566","2024-02-27 07:15:00","9.7982","3.24448","28.042","5.335","7.6","0.469","3.955","0.04","0.25","29.4412","4.66186","56.8","0","SATNPRO1509","32.308","0.45256","5"],
    [14612,"HCEP03730566","2024-02-27 07:30:00","9.7982","3.24447","28.01","5.337","7.6","0.451","4.142","0.03","0.38","29.4411","4.66183","56.82","0","SATNPRO1509","32.344","0.45302","5"],
    [14613,"HCEP03730566","2024-02-27 07:45:00","9.7988","3.24424","27.929","5.343","7.6","0.468","3.672","0.05","0.27","29.4383","4.66143","56.88","0","SATNPRO1509","32.396","0.45372","5"],
    [14614,"HCEP03730566","2024-02-27 08:00:00","9.7993","3.24403","27.847","5.342","7.6","0.449","3.504","0.02","0.24","29.4358","4.66106","56.87","0","SATNPRO1509","32.472","0.45482","5"],
    [14615,"HCEP03730566","2024-02-27 08:15:00","9.7997","3.24429","27.743","5.321","7.6","0.475","4.873","0.04","2.4","29.4382","4.66138","56.65","0","SATNPRO1509","32.506","0.45528","5"],
    [14616,"HCEP03730566","2024-02-27 08:30:00","9.8005","3.24435","27.647","5.303","7.6","0.448","4.419","0.02","0.27","29.4381","4.66135","56.46","0","SATNPRO1509","32.31","0.45256","5"],
    [14617,"HCEP03730566","2024-02-27 08:45:00","9.8","3.24435","27.496","5.3","7.6","0.462","4.17","0.02","0.32","29.4386","4.66142","56.43","0","SATNPRO1509","32.216","0.45118","5"],
    [14618,"HCEP03730566","2024-02-27 09:00:00","9.7998","3.24437","27.42","5.301","7.6","0.446","3.924","0.02","0.34","29.4391","4.66149","56.44","0","SATNPRO1509","32.366","0.45332","5"],
    [14619,"HCEP03730566","2024-02-27 09:15:00","9.7989","3.2446","27.288","5.299","7.6","0.464","4.16","0.02","0.21","29.4421","4.66192","56.41","0","SATNPRO1509","32.294","0.45234","5"],
    [14620,"HCEP03730566","2024-02-27 09:30:00","9.798","3.24491","27.143","5.298","7.6","0.44","4.958","0.03","0.4","29.446","4.66249","56.4","0","SATNPRO1509","32.234","0.45146","5"],
    [14621,"HCEP03730566","2024-02-27 09:45:00","9.7964","3.2445","26.926","5.306","7.6","0.462","3.679","0.04","0.15","29.4433","4.66213","56.49","0","SATNPRO1509","32.468","0.45478","5"],
    [14622,"HCEP03730566","2024-02-27 10:00:00","9.7957","3.24472","26.804","5.311","7.6","0.514","5.633","0.06","1.62","29.4462","4.66254","56.54","0","SATNPRO1509","32.422000000000004","0.45412","5"],
    [14623,"HCEP03730566","2024-02-27 10:15:00","9.7946","3.24495","26.676","5.305","7.6","0.439","4.182","0.02","0.18","29.4493","4.663","56.48","0","SATNPRO1509","32.286","0.4522","5"],
    [14624,"HCEP03730566","2024-02-27 10:30:00","9.7931","3.24503","26.497","5.298","7.6","0.42","4.404","0.02","0.63","29.4515","4.66333","56.4","0","SATNPRO1509","32.338","0.45298","5"],
    [14625,"HCEP03730566","2024-02-27 10:45:00","9.7894","3.24497","26.321","5.303","7.6","0.435","4.543","0.01","0.43","29.454","4.66373","56.45","0","SATNPRO1509","32.263999999999996","0.45194","5"],
    [14626,"HCEP03730566","2024-02-27 11:00:00","9.7838","3.2443","26.159","5.32","7.6","0.446","4.479","0.02","0.92","29.4519","4.66352","56.62","0","SATNPRO1509","32.164","0.45052","5"],
    [14627,"HCEP03730566","2024-02-27 11:15:00","9.7745","3.24213","26.014","5.355","7.6","0.47","3.772","0.03","0.4","29.4376","4.66164","56.98","0","SATNPRO1509","32.46","0.45468","5"],
    [14628,"HCEP03730566","2024-02-27 11:30:00","9.7749","3.23642","25.859","5.368","7.61","0.517","3.183","0.06","0.8","29.3801","4.65339","57.09","0","SATNPRO1509","32.542","0.4558","5"],
    [14629,"HCEP03730566","2024-02-27 11:45:00","9.7929","3.23631","25.741","5.281","7.6","0.548","2.893","0.05","0.09","29.3643","4.65082","56.19","0","SATNPRO1509","32.45","0.4545","5"],
    [14630,"HCEP03730566","2024-02-27 12:00:00","9.7996","3.23701","25.708","5.181","7.6","0.565","4.212","0.05","1.47","29.3659","4.65093","55.14","0","SATNPRO1509","32.38","0.45352","5"],
    [14631,"HCEP03730566","2024-02-27 12:15:00","9.8042","3.23777","25.688","5.152","7.59","0.581","5.318","0.03","1.74","29.3698","4.6514","54.83","0","SATNPRO1509","32.33","0.45286","5"],
    [14632,"HCEP03730566","2024-02-27 12:30:00","9.7967","3.23826","25.651","5.202","7.59","0.597","8.856","0.07","4.19","29.3809","4.65311","55.36","0","SATNPRO1509","32.386","0.45362","5"],
    [14633,"HCEP03730566","2024-02-27 12:45:00","9.7972","3.23825","25.659","5.185","7.59","0.517","3.489","0.03","0.59","29.3804","4.65304","55.17","0","SATNPRO1509","32.368","0.45338","5"],
    [14634,"HCEP03730566","2024-02-27 13:00:00","9.8187","3.23889","25.673","5.109","7.59","0.529","2.905","0.03","0.07","29.3692","4.65107","54.39","0","SATNPRO1509","32.346000000000004","0.4531","5"],
    [14635,"HCEP03730566","2024-02-27 13:15:00","9.7935","3.24026","25.738","5.129","7.58","0.545","5.568","0.05","1.25","29.4036","4.65642","54.59","0","SATNPRO1509","32.162","0.45052","5"],
    [14636,"HCEP03730566","2024-02-27 13:30:00","9.7872","3.23983","25.737","5.224","7.59","0.497","3.757","0.03","0.17","29.4043","4.65664","55.59","0","SATNPRO1509","32.318","0.45272","5"],
    [14637,"HCEP03730566","2024-02-27 13:45:00","9.7954","3.23817","25.894","5.227","7.59","2.505","58.503","2.92","42.38","29.3809","4.65315","55.63","0","SATNPRO1509","32.362","0.45334","5"],
    [14638,"HCEP03730566","2024-02-27 14:00:00","9.8013","3.23843","25.892","5.187","7.59","0.574","15.724","0.13","14.66","29.3788","4.65275","55.2","0","SATNPRO1509","32.38","0.45354","5"],
    [14639,"HCEP03730566","2024-02-27 14:15:00","9.7833","3.24127","26.003","5.261","7.59","0.558","17.42","0.06","4.45","29.4219","4.65923","55.99","0","SATNPRO1509","32.11","0.44972","5"],
    [14640,"HCEP03730566","2024-02-27 14:30:00","9.7885","3.24295","26.049","5.219","7.59","0.789","51.197","0.17","6.19","29.4346","4.66096","55.55","0","SATNPRO1509","32.03","0.4486","5"],
    [14641,"HCEP03730566","2024-02-27 14:45:00","9.7955","3.24354","26.233","5.164","7.59","0.678","14.134","0.09","1.97","29.4347","4.66086","54.98","0","SATNPRO1509","31.958","0.44766","5"],
    [14642,"HCEP03730566","2024-02-27 15:00:00","9.8021","3.24362","26.35","5.134","7.59","0.645","14.529","0.2","10","29.43","4.66009","54.66","0","SATNPRO1509","31.872","0.4464","5"],
    [14643,"HCEP03730566","2024-02-27 15:15:00","9.809","3.24368","26.418","5.109","7.59","0.579","19.307","0.11","6.21","29.425","4.65925","54.4","0","SATNPRO1509","31.902","0.44684","5"],
    [14644,"HCEP03730566","2024-02-27 15:30:00","9.8102","3.24357","26.527","5.096","7.59","0.578","9.521","0.08","1.67","29.4228","4.65893","54.26","0","SATNPRO1509","32.064","0.44912","5"],
    [14645,"HCEP03730566","2024-02-27 15:45:00","9.8065","3.24345","26.641","5.108","7.59","0.468","17.75","0.05","9.88","29.4246","4.65926","54.39","0","SATNPRO1509","32.05","0.4489","5"],
    [14646,"HCEP03730566","2024-02-27 16:00:00","9.8034","3.24334","26.682","5.13","7.59","0.475","5.528","0.02","0.18","29.4259","4.6595","54.62","0","SATNPRO1509","32.084","0.44938","5"],
    [14647,"HCEP03730566","2024-02-27 16:15:00","9.7927","3.24288","26.792","5.178","7.59","0.496","5.127","0.03","0.17","29.4301","4.66029","55.12","0","SATNPRO1509","32.156","0.45038","5"],
    [14648,"HCEP03730566","2024-02-27 16:30:00","9.7766","3.24198","26.871","5.308","7.59","0.49","5.294","0.03","0.19","29.4342","4.66116","56.48","0","SATNPRO1509","32.224","0.45134","5"],
    [14649,"HCEP03730566","2024-02-27 16:45:00","9.7718","3.24106","27.022","5.396","7.6","0.495","4.994","0.03","0.15","29.4288","4.66048","57.41","0","SATNPRO1509","32.286","0.45222","5"],
    [14650,"HCEP03730566","2024-02-27 17:00:00","9.764","3.23915","27.148","5.517","7.61","0.468","4.062","0.02","0.15","29.4158","4.65876","58.69","0","SATNPRO1509","32.384","0.4536","5"],
    [14651,"HCEP03730566","2024-02-27 17:15:00","9.7642","3.23929","27.234","5.526","7.62","0.472","4.543","0.02","0.11","29.417","4.65894","58.78","0","SATNPRO1509","32.358000000000004","0.45326","5"],
    [14652,"HCEP03730566","2024-02-27 17:30:00","9.7641","3.23899","27.398","5.517","7.62","0.461","4.82","0.02","0.21","29.4141","4.65853","58.69","0","SATNPRO1509","32.158","0.4504","5"],
    [14653,"HCEP03730566","2024-02-27 17:45:00","9.7635","3.23858","27.47","5.516","7.62","0.467","4.736","0.02","0.13","29.4105","4.65803","58.67","0","SATNPRO1509","32.232","0.45148","5"],
    [14654,"HCEP03730566","2024-02-27 18:00:00","9.7626","3.2379","27.451","5.522","7.62","0.456","5","0.02","0.13","29.4044","4.65716","58.73","0","SATNPRO1509","32.13","0.45004","5"],
    [14655,"HCEP03730566","2024-02-27 18:15:00","9.7631","3.2382","27.485","5.521","7.62","0.463","4.76","0.02","0.09","29.407","4.65753","58.73","0","SATNPRO1509","32.147999999999996","0.45026","5"],
    [14656,"HCEP03730566","2024-02-27 18:30:00","9.7638","3.23835","27.583","5.51","7.62","0.456","4.861","0.03","0.09","29.4078","4.65765","58.61","0","SATNPRO1509","32.21","0.45116","5"],
    [14657,"HCEP03730566","2024-02-27 18:45:00","9.7639","3.23852","27.429","5.505","7.62","0.462","4.686","0.02","0.12","29.4094","4.65786","58.56","0","SATNPRO1509","32.238","0.45154","5"],
    [14658,"HCEP03730566","2024-02-27 19:00:00","9.7642","3.23855","27.527","5.502","7.62","0.449","4.671","0.02","0.1","29.4095","4.65787","58.52","0","SATNPRO1509","32.344","0.45302","5"],
    [14659,"HCEP03730566","2024-02-27 19:15:00","9.7636","3.2385","27.447","5.506","7.62","0.46","4.257","0.01","0.07","29.4096","4.6579","58.57","0","SATNPRO1509","32.344","0.45302","5"],
    [14660,"HCEP03730566","2024-02-27 19:30:00","9.7642","3.23854","27.38","5.503","7.62","0.453","4.472","0.02","0.16","29.4095","4.65787","58.54","0","SATNPRO1509","32.354","0.4532","5"],
    [14661,"HCEP03730566","2024-02-27 19:45:00","9.7645","3.23836","27.346","5.496","7.62","0.483","4.612","0.03","0.12","29.4074","4.65756","58.46","0","SATNPRO1509","32.22","0.45124","5"],
    [14662,"HCEP03730566","2024-02-27 20:00:00","9.7648","3.238","27.257","5.49","7.62","0.471","4.702","0.02","0.14","29.4037","4.65701","58.39","0","SATNPRO1509","32.068","0.44918","5"],
    [14663,"HCEP03730566","2024-02-27 20:15:00","9.7641","3.23762","27.129","5.485","7.62","0.468","4.359","0.02","0.07","29.4004","4.65656","58.33","0","SATNPRO1509","32.232","0.45144","5"],
    [14664,"HCEP03730566","2024-02-27 20:30:00","9.7624","3.23651","27.1","5.484","7.62","0.472","4.273","0.02","0.09","29.3906","4.65518","58.32","0","SATNPRO1509","32.186","0.45082","5"],
    [14665,"HCEP03730566","2024-02-27 20:45:00","9.7625","3.23661","27.005","5.48","7.62","0.484","3.955","0.02","0.07","29.3916","4.65532","58.28","0","SATNPRO1509","32.284","0.45218","5"],
    [14666,"HCEP03730566","2024-02-27 21:00:00","9.761","3.23684","26.861","5.508","7.62","0.455","3.497","0.02","0.1","29.3952","4.65585","58.57","0","SATNPRO1509","32.372","0.45342","5"],
    [14667,"HCEP03730566","2024-02-27 21:15:00","9.7652","3.23809","26.77","5.494","7.62","0.481","4.202","0.03","0.11","29.4044","4.65709","58.44","0","SATNPRO1509","32.153999999999996","0.4504","5"],
    [14668,"HCEP03730566","2024-02-27 21:30:00","9.7668","3.23844","26.812","5.451","7.62","0.477","4.835","0.03","0.14","29.4067","4.65738","57.98","0","SATNPRO1509","32.102","0.44966","5"],
    [14669,"HCEP03730566","2024-02-27 21:45:00","9.7681","3.23876","26.588","5.428","7.62","0.487","4.845","0.03","0.11","29.4089","4.65766","57.74","0","SATNPRO1509","32.044","0.44882","5"],
    [14670,"HCEP03730566","2024-02-27 22:00:00","9.7684","3.23891","26.47","5.419","7.62","0.471","4.407","0.03","0.12","29.4101","4.65783","57.64","0","SATNPRO1509","32.166000000000004","0.45058","5"],
    [14671,"HCEP03730566","2024-02-27 22:15:00","9.7688","3.23922","26.32","5.419","7.62","0.48","4.43","0.03","0.14","29.4131","4.65824","57.64","0","SATNPRO1509","32.136","0.45012","5"],
    [14672,"HCEP03730566","2024-02-27 22:30:00","9.7697","3.23937","26.234","5.408","7.61","0.468","4.738","0.02","0.13","29.4138","4.65833","57.53","0","SATNPRO1509","32.083999999999996","0.44942","5"],
    [14673,"HCEP03730566","2024-02-27 22:45:00","9.7714","3.23819","26.128","5.417","7.61","0.468","3.39","0.03","0.17","29.4007","4.65641","57.63","0","SATNPRO1509","32.358000000000004","0.45326","5"],
    [14674,"HCEP03730566","2024-02-27 23:00:00","9.7726","3.24005","25.998","5.406","7.61","0.472","4.178","0.03","0.15","29.4183","4.6589","57.52","0","SATNPRO1509","32.136","0.45008","5"],
    [14675,"HCEP03730566","2024-02-27 23:15:00","9.7671","3.23894","25.884","5.437","7.61","0.476","3.493","0.04","0.24","29.4118","4.65806","57.84","0","SATNPRO1509","32.324","0.45274","5"],
    [14676,"HCEP03730566","2024-02-27 23:30:00","9.7721","3.23998","25.778","5.427","7.62","0.464","4.126","0.02","0.17","29.4182","4.65888","57.73","0","SATNPRO1509","32.284","0.45218","5"],
    [14677,"HCEP03730566","2024-02-27 23:45:00","9.7673","3.23899","25.69","5.435","7.61","0.484","3.247","0.03","0.12","29.4121","4.65809","57.81","0","SATNPRO1509","32.300000000000004","0.45242","5"],
    [14678,"HCEP03730566","2024-02-28 00:00:00","9.7694","3.23849","25.709","5.457","7.62","0.491","3.477","0.05","0.21","29.4054","4.65709","58.04","0","SATNPRO1509","32.324","0.45276","5"],
    [14679,"HCEP03730566","2024-02-28 00:15:00","9.7676","3.23899","25.587","5.465","7.62","0.484","3.174","0.02","0.11","29.4119","4.65805","58.13","0","SATNPRO1509","32.326","0.45276","5"],
    [14680,"HCEP03730566","2024-02-28 00:30:00","9.7676","3.23893","25.541","5.472","7.62","0.467","2.961","0.03","0.15","29.4114","4.65798","58.21","0","SATNPRO1509","32.358000000000004","0.45324","5"],
    [14681,"HCEP03730566","2024-02-28 00:45:00","9.7737","3.24012","25.546","5.416","7.62","0.49","3.772","0.04","0.23","29.4183","4.65885","57.62","0","SATNPRO1509","32.2","0.45102","5"],
    [14682,"HCEP03730566","2024-02-28 01:00:00","9.7802","3.24126","25.609","5.315","7.61","0.474","4.376","0.03","0.2","29.4245","4.65964","56.56","0","SATNPRO1509","31.954","0.44758","5"],
    [14683,"HCEP03730566","2024-02-28 01:15:00","9.7849","3.24187","25.542","5.23","7.61","0.491","4.712","0.04","0.24","29.4268","4.65988","55.66","0","SATNPRO1509","32.018","0.44848","5"],
    [14684,"HCEP03730566","2024-02-28 01:30:00","9.7899","3.24223","25.755","5.181","7.6","0.47","4.262","0.02","0.2","29.4263","4.65973","55.14","0","SATNPRO1509","31.986","0.44804","5"],
    [14685,"HCEP03730566","2024-02-28 01:45:00","9.7932","3.2424","25.76","5.146","7.6","0.513","4.466","0.07","0.27","29.4253","4.65954","54.77","0","SATNPRO1509","31.988000000000003","0.44808","5"],
    [14686,"HCEP03730566","2024-02-28 02:00:00","9.7944","3.24255","25.823","5.129","7.59","0.488","4.531","0.04","0.33","29.4258","4.65959","54.6","0","SATNPRO1509","31.968","0.44776","5"],
    [14687,"HCEP03730566","2024-02-28 02:15:00","9.7933","3.2426","25.97","5.121","7.59","0.5","4.827","0.04","0.28","29.427","4.65979","54.51","0","SATNPRO1509","31.816","0.44568","5"],
    [14688,"HCEP03730566","2024-02-28 02:30:00","9.7959","3.24258","26.065","5.13","7.59","0.484","4.472","0.03","0.16","29.4248","4.65943","54.6","0","SATNPRO1509","31.986","0.44802","5"],
    [14689,"HCEP03730566","2024-02-28 02:45:00","9.7917","3.24254","26.222","5.147","7.59","0.485","4.275","0.04","0.18","29.4277","4.65994","54.78","0","SATNPRO1509","31.997999999999998","0.44818","5"],
    [14690,"HCEP03730566","2024-02-28 03:00:00","9.8018","3.24288","26.323","5.138","7.59","0.476","3.718","0.07","0.17","29.4228","4.65906","54.7","0","SATNPRO1509","32.25","0.4517","5"],
    [14691,"HCEP03730566","2024-02-28 03:15:00","9.8043","3.2427","26.523","5.118","7.59","0.488","3.373","0.04","0.17","29.4189","4.65848","54.49","0","SATNPRO1509","32.292","0.45228","5"],
    [14692,"HCEP03730566","2024-02-28 03:30:00","9.8096","3.24244","26.593","5.07","7.59","0.468","2.71","0.03","0.11","29.412","4.6574","53.99","0","SATNPRO1509","32.358","0.45322","5"],
    [14693,"HCEP03730566","2024-02-28 03:45:00","9.7885","3.24205","26.717","5.149","7.59","0.483","3.633","0.03","0.24","29.4252","4.65965","54.8","0","SATNPRO1509","32.188","0.45088","5"],
    [14694,"HCEP03730566","2024-02-28 04:00:00","9.7731","3.23996","26.86","5.314","7.6","0.461","3.308","0.03","0.24","29.4167","4.65871","56.54","0","SATNPRO1509","32.394","0.45374","5"],
    [14695,"HCEP03730566","2024-02-28 04:15:00","9.7711","3.24024","26.965","5.383","7.6","0.481","4.321","0.02","0.17","29.4211","4.65939","57.27","0","SATNPRO1509","32.014","0.44844","5"],
    [14696,"HCEP03730566","2024-02-28 04:30:00","9.7694","3.23979","27.166","5.329","7.61","0.464","4.882","0.02","0.11","29.4178","4.65896","56.69","0","SATNPRO1509","31.887999999999998","0.44666","5"],
    [14697,"HCEP03730566","2024-02-28 04:45:00","9.7649","3.23926","27.276","5.396","7.61","0.478","4.213","0.04","0.19","29.4162","4.65881","57.39","0","SATNPRO1509","32.078","0.44928","5"],
    [14698,"HCEP03730566","2024-02-28 05:00:00","9.7666","3.2398","27.489","5.407","7.61","0.455","4.728","0.02","0.23","29.4202","4.65936","57.52","0","SATNPRO1509","31.928","0.44718","5"],
    [14699,"HCEP03730566","2024-02-28 05:15:00","9.7676","3.24021","27.485","5.352","7.61","0.466","4.936","0.02","0.23","29.4235","4.65981","56.94","0","SATNPRO1509","31.938","0.4473","5"],
    [14700,"HCEP03730566","2024-02-28 05:30:00","9.7642","3.23981","27.72","5.401","7.61","0.451","4.242","0.03","0.24","29.4221","4.65969","57.45","0","SATNPRO1509","32.11","0.44976","5"],
    [14701,"NA","2024-03-01 14:15:00",null,null,null,null,null,null,null,null,null,null,null,null,null,"SATNPRO1509","30.47","0.42676","5"],
    [14702,"HCEP03730566","2024-02-28 05:45:00","9.7588","3.239","27.864","5.492","7.62","0.448","3.629","0.03","0.25","29.4183","4.65925","58.41","0","SATNPRO1509","32.1","0.44958","5"],
    [14703,"HCEP03730566","2024-02-28 06:00:00","9.7565","3.23848","27.967","5.545","7.62","0.439","3.458","0.04","0.22","29.4149","4.65881","58.97","0","SATNPRO1509","32.298","0.4524","5"],
    [14704,"HCEP03730566","2024-02-28 06:15:00","9.7528","3.23778","28.036","5.599","7.62","0.446","2.95","0.04","0.21","29.4109","4.6583","59.54","0","SATNPRO1509","32.44","0.45438","5"],
    [14705,"HCEP03730566","2024-02-28 06:30:00","9.7575","3.23767","28.088","5.587","7.63","0.438","3.191","0.03","0.22","29.406","4.65752","59.41","0","SATNPRO1509","32.282000000000004","0.45216","5"],
    [14706,"HCEP03730566","2024-02-28 06:45:00","9.763","3.23791","28.155","5.51","7.63","0.491","3.897","0.05","0.21","29.4038","4.65711","58.6","0","SATNPRO1509","32.21","0.45116","5"],
    [14707,"HCEP03730566","2024-02-28 07:00:00","9.7595","3.23655","28.096","5.518","7.62","0.459","3.469","0.03","0.21","29.3931","4.65564","58.68","0","SATNPRO1509","32.152","0.45032","5"],
    [14708,"HCEP03730566","2024-02-28 07:15:00","9.7611","3.23619","28.085","5.512","7.62","0.476","4.137","0.02","0.21","29.3881","4.6549","58.62","0","SATNPRO1509","32.14","0.45018","5"],
    [14709,"HCEP03730566","2024-02-28 07:30:00","9.7598","3.23554","28.145","5.531","7.62","0.475","3.354","0.03","0.18","29.3826","4.65414","58.82","0","SATNPRO1509","32.3","0.45244","5"],
    [14710,"HCEP03730566","2024-02-28 07:45:00","9.7554","3.23416","27.939","5.555","7.62","0.491","2.634","0.03","0.14","29.3724","4.65273","59.06","0","SATNPRO1509","32.112","0.44974","5"],
    [14711,"HCEP03730566","2024-02-28 08:00:00","9.757","3.23436","28.074","5.559","7.63","0.48","2.971","0.03","0.14","29.3731","4.65282","59.11","0","SATNPRO1509","32.214","0.4512","5"],
    [14712,"HCEP03730566","2024-02-28 08:15:00","9.7592","3.23492","27.915","5.513","7.62","0.48","3.294","0.06","0.1","29.377","4.65333","58.61","0","SATNPRO1509","32.136","0.45014","5"],
    [14713,"HCEP03730566","2024-02-28 08:30:00","9.7584","3.23463","27.727","5.493","7.62","0.475","3.687","0.02","0.17","29.3747","4.65301","58.4","0","SATNPRO1509","32.028","0.4486","5"],
    [14714,"HCEP03730566","2024-02-28 08:45:00","9.7627","3.23525","27.696","5.438","7.62","0.503","4.323","0.04","0.11","29.3775","4.65333","57.83","0","SATNPRO1509","31.812","0.4456","5"],
    [14715,"HCEP03730566","2024-02-28 09:00:00","9.7422","3.22811","27.564","5.467","7.62","0.568","3.675","0.03","0.09","29.3226","4.64582","58.09","0","SATNPRO1509","31.832","0.44586","5"],
    [14716,"HCEP03730566","2024-02-28 09:15:00","9.7462","3.22999","27.583","5.452","7.62","0.591","4.644","0.03","0.36","29.3381","4.64797","57.94","0","SATNPRO1509","31.89","0.4467","5"],
    [14717,"HCEP03730566","2024-02-28 09:30:00","9.7508","3.22939","27.35","5.421","7.62","0.57","4.596","0.03","0.14","29.3284","4.64649","57.61","0","SATNPRO1509","31.78","0.44516","5"],
    [14718,"HCEP03730566","2024-02-28 09:45:00","9.7559","3.23007","27.213","5.378","7.61","0.597","4.749","0.04","0.16","29.3312","4.64679","57.17","0","SATNPRO1509","31.746","0.44462","5"],
    [14719,"HCEP03730566","2024-02-28 10:00:00","9.758","3.23051","27.201","5.351","7.61","0.592","5.188","0.03","0.19","29.3339","4.64714","56.88","0","SATNPRO1509","31.744","0.44464","5"],
    [14720,"HCEP03730566","2024-02-28 10:15:00","9.7661","3.23225","26.995","5.333","7.61","0.594","5.305","0.03","0.19","29.3449","4.64856","56.7","0","SATNPRO1509","31.84","0.44598","5"],
    [14721,"HCEP03730566","2024-02-28 10:30:00","9.7709","3.23362","26.881","5.311","7.61","0.58","5.636","0.04","0.18","29.3547","4.64989","56.48","0","SATNPRO1509","31.894","0.44674","5"],
    [14722,"HCEP03730566","2024-02-28 10:45:00","9.7781","3.23506","26.709","5.284","7.61","0.586","5.386","0.05","0.32","29.3635","4.651","56.2","0","SATNPRO1509","32.042","0.44882","5"],
    [14723,"HCEP03730566","2024-02-28 11:00:00","9.7882","3.23579","26.576","5.198","7.6","0.588","5.354","0.03","0.34","29.3626","4.6507","55.3","0","SATNPRO1509","32.072","0.44922","5"],
    [14724,"HCEP03730566","2024-02-28 11:15:00","9.7924","3.23552","26.5","5.137","7.59","0.623","5.296","0.05","0.26","29.3565","4.64975","54.65","0","SATNPRO1509","32.026","0.44856","5"],
    [14725,"HCEP03730566","2024-02-28 11:30:00","9.7959","3.23546","26.24","5.098","7.59","0.61","5.088","0.04","0.15","29.3532","4.6492","54.24","0","SATNPRO1509","31.997999999999998","0.44816","5"],
    [14726,"HCEP03730566","2024-02-28 11:45:00","9.7969","3.23452","26.057","5.072","7.59","0.64","4.97","0.05","0.27","29.3429","4.6477","53.97","0","SATNPRO1509","32.036","0.44874","5"],
    [14727,"HCEP03730566","2024-02-28 12:00:00","9.7972","3.23531","25.954","5.06","7.59","0.621","5.244","0.05","0.14","29.3508","4.64881","53.84","0","SATNPRO1509","32.032","0.44868","5"],
    [14728,"HCEP03730566","2024-02-28 12:15:00","9.7959","3.235","25.767","5.06","7.58","0.626","5.35","0.04","0.16","29.3487","4.64853","53.84","0","SATNPRO1509","31.92","0.4471","5"],
    [14729,"HCEP03730566","2024-02-28 12:30:00","9.7876","3.23212","25.64","5.062","7.58","0.655","5.43","0.09","0.24","29.3266","4.64551","53.84","0","SATNPRO1509","31.964000000000002","0.44768","5"],
    [14730,"HCEP03730566","2024-02-28 12:45:00","9.7922","3.23478","25.512","5.057","7.58","0.635","5.262","0.04","0.2","29.3496","4.64871","53.8","0","SATNPRO1509","31.852","0.44618","5"],
    [14731,"HCEP03730566","2024-02-28 13:00:00","9.7903","3.23449","25.534","5.063","7.58","0.652","5.616","0.08","0.24","29.3482","4.64855","53.86","0","SATNPRO1509","31.874","0.44648","5"],
    [14732,"HCEP03730566","2024-02-28 13:15:00","9.7911","3.23501","25.537","5.064","7.58","0.656","5.514","0.04","0.13","29.3528","4.64919","53.88","0","SATNPRO1509","31.878","0.44648","5"],
    [14733,"HCEP03730566","2024-02-28 13:30:00","9.792","3.23513","25.541","5.06","7.58","0.681","5.966","0.07","0.26","29.3534","4.64925","53.83","0","SATNPRO1509","31.936","0.4473","5"],
    [14734,"HCEP03730566","2024-02-28 13:45:00","9.7927","3.23486","25.597","5.049","7.58","0.78","5.411","0.19","0.24","29.35","4.64875","53.72","0","SATNPRO1509","31.822","0.44572","5"],
    [14735,"HCEP03730566","2024-02-28 14:00:00","9.7932","3.23494","25.642","5.042","7.58","0.76","5.502","0.1","0.16","29.3504","4.64881","53.64","0","SATNPRO1509","31.91","0.44698","5"],
    [14736,"HCEP03730566","2024-02-28 14:15:00","9.7955","3.23534","25.652","5.022","7.58","0.776","5.317","0.08","0.31","29.3525","4.64907","53.43","0","SATNPRO1509","31.86","0.44626","5"],
    [14737,"HCEP03730566","2024-02-28 14:30:00","9.7979","3.23569","25.757","4.993","7.58","0.78","5.641","0.11","0.38","29.3541","4.64926","53.13","0","SATNPRO1509","31.852","0.44614","5"],
    [14738,"HCEP03730566","2024-02-28 14:45:00","9.8002","3.23599","25.891","4.97","7.58","0.8","5.658","0.09","0.26","29.3551","4.64937","52.89","0","SATNPRO1509","31.881999999999998","0.44652","5"],
    [14739,"HCEP03730566","2024-02-28 15:00:00","9.8015","3.23589","25.893","4.957","7.58","0.94","5.412","0.17","0.21","29.3531","4.64908","52.75","0","SATNPRO1509","31.718","0.44428","5"],
    [14740,"HCEP03730566","2024-02-28 15:15:00","9.8011","3.23569","26.026","4.941","7.58","1.023","5.55","0.1","0.18","29.3514","4.64884","52.58","0","SATNPRO1509","31.846","0.44604","5"],
    [14741,"HCEP03730566","2024-02-28 15:30:00","9.8026","3.2357","26.157","4.924","7.57","1.196","5.45","0.2","0.3","29.3502","4.64865","52.4","0","SATNPRO1509","31.742","0.44462","5"],
    [14742,"HCEP03730566","2024-02-28 15:45:00","9.8045","3.23574","26.218","4.906","7.57","1.204","5.414","0.14","0.24","29.349","4.64845","52.21","0","SATNPRO1509","31.752","0.44474","5"],
    [14743,"HCEP03730566","2024-02-28 16:00:00","9.7101","3.20571","26.29","4.955","7.58","1.762","4.406","0.43","0.3","29.1239","4.61783","52.56","0","SATNPRO1509","30.788","0.43126","5"],
    [14744,"HCEP03730566","2024-02-28 16:15:00","9.7906","3.22716","26.433","5.03","7.58","1.309","5.193","0.21","0.23","29.2741","4.63799","53.48","0","SATNPRO1509","31.442","0.44042","5"],
    [14745,"HCEP03730566","2024-02-28 16:30:00","9.73","3.20541","26.539","5.163","7.59","1.708","4.5","0.26","0.48","29.1047","4.61476","54.78","0","SATNPRO1509","30.89","0.43266","5"],
    [14746,"HCEP03730566","2024-02-28 16:45:00","9.586","3.15785","26.639","5.563","7.61","3.06","3.869","0.59","0.25","28.7422","4.56522","58.7","0","SATNPRO1509","29.14","0.40818","5"],
    [14747,"HCEP03730566","2024-02-28 17:00:00","9.5311","3.12882","26.789","5.832","7.64","3.391","3.806","0.32","0.24","28.4936","4.53044","61.35","0","SATNPRO1509","28.276","0.39606","5"],
    [14748,"HCEP03730566","2024-02-28 17:15:00","9.5475","3.18173","26.913","5.655","7.64","2.379","4.696","0.31","0.3","29.0136","4.60486","59.79","0","SATNPRO1509","30.184","0.4228","5"],
    [14749,"HCEP03730566","2024-02-28 17:30:00","9.5709","3.16073","26.986","5.71","7.64","3.231","4.355","0.35","0.25","28.7831","4.57138","60.27","0","SATNPRO1509","30.026","0.42062","5"],
    [14750,"HCEP03730566","2024-02-28 17:45:00","9.5565","3.14438","27.132","5.905","7.65","4.551","3.43","0.37","0.16","28.6299","4.54962","62.2","0","SATNPRO1509","28.764","0.4029","5"],
    [14751,"HCEP03730566","2024-02-28 18:00:00","9.4024","3.08798","27.197","6.334","7.67","4.994","3.065","0.31","0.28","28.1836","4.48804","66.31","0","SATNPRO1509","27.282","0.38212","5"],
    [14752,"HCEP03730566","2024-02-28 18:15:00","9.3267","3.06195","27.372","6.85","7.72","5.602","3.22","0.42","0.28","27.9802","4.46","71.5","0","SATNPRO1509","26.284","0.36818","5"],
    [14753,"HCEP03730566","2024-02-28 18:30:00","9.3857","3.07896","27.428","6.856","7.74","5.638","3.874","0.46","0.3","28.1056","4.47709","71.73","0","SATNPRO1509","26.522000000000002","0.37146","5"],
    [14754,"HCEP03730566","2024-02-28 18:45:00","9.3237","3.06554","27.525","6.785","7.74","6.604","3.674","0.57","0.28","28.0187","4.46563","70.86","0","SATNPRO1509","26.792","0.37526","5"],
    [14755,"HCEP03730566","2024-02-28 19:00:00","9.3555","3.07113","27.534","6.781","7.74","5.469","4.459","0.5","0.29","28.0503","4.46964","70.86","0","SATNPRO1509","26.656","0.3733","5"],
    [14756,"HCEP03730566","2024-02-28 19:15:00","9.3282","3.06087","27.61","6.768","7.74","5.81","4.591","0.51","0.33","27.968","4.45824","70.67","0","SATNPRO1509","26.294","0.36828","5"],
    [14757,"HCEP03730566","2024-02-28 19:30:00","9.6981","3.19564","27.651","6.045","7.71","2.161","6.309","0.15","0.37","29.0318","4.60492","64.02","0","SATNPRO1509","29.786","0.41718","5"],
    [14758,"HCEP03730566","2024-02-28 19:45:00","9.6697","3.20104","27.623","5.278","7.66","2.418","5.92","0.21","0.24","29.1091","4.61648","55.95","0","SATNPRO1509","29.326","0.41074","5"],
    [14759,"HCEP03730566","2024-02-28 20:00:00","9.7111","3.18469","27.688","5.429","7.64","2.417","5.955","0.19","0.25","28.9113","4.58742","57.48","0","SATNPRO1509","28.738","0.40254","5"],
    [14760,"HCEP03730566","2024-02-28 20:15:00","9.7184","3.20017","27.61","5.028","7.62","2.324","6.372","0.27","0.25","29.0611","4.60877","53.3","0","SATNPRO1509","30.073999999999998","0.42118","5"],
    [14761,"HCEP03730566","2024-02-28 20:30:00","9.73","3.20321","27.545","4.88","7.59","2.096","6.369","0.14","0.31","29.0822","4.61159","51.75","0","SATNPRO1509","30.244","0.42364","5"],
    [14762,"HCEP03730566","2024-02-28 20:45:00","9.7099","3.19313","27.536","5","7.59","2.24","6.053","0.17","0.33","28.9971","4.59974","52.97","0","SATNPRO1509","30.174","0.42264","5"],
    [14763,"HCEP03730566","2024-02-28 21:00:00","9.6275","3.1682","27.458","5.292","7.6","2.76","5.596","0.28","0.33","28.8127","4.57468","55.91","0","SATNPRO1509","29.408","0.41188","5"],
    [14764,"HCEP03730566","2024-02-28 21:15:00","9.3047","3.0464","27.424","6.588","7.68","6.072","5.382","1.38","0.53","27.8404","4.4402","68.72","0","SATNPRO1509","25.254","0.35374","5"],
    [14765,"HCEP03730566","2024-02-28 21:30:00","9.2414","3.02676","27.337","7.383","7.76","10.519","3.614","1.11","0.32","27.6912","4.41973","76.79","0","SATNPRO1509","25.03","0.3506","5"],
    [14766,"HCEP03730566","2024-02-28 21:45:00","9.1984","3.01698","27.25","7.614","7.8","9.384","2.152","0.45","0.19","27.6258","4.411","79.07","0","SATNPRO1509","24.834","0.34782","5"],
    [14767,"HCEP03730566","2024-02-28 22:00:00","9.2083","3.01767","27.144","7.646","7.82","12.03","2.635","0.98","0.23","27.6251","4.41074","79.41","0","SATNPRO1509","24.994","0.35008","5"],
    [14768,"HCEP03730566","2024-02-28 22:15:00","9.3102","3.04902","27.081","7.294","7.81","11.481","3.588","0.75","0.23","27.8626","4.44331","76.04","0","SATNPRO1509","25.966","0.3637","5"],
    [14769,"HCEP03730566","2024-02-28 22:30:00","9.21","3.01692","27.003","7.62","7.83","9.632","4.296","0.68","0.35","27.6163","4.40942","79.15","0","SATNPRO1509","25.63","0.359","5"],
    [14770,"HCEP03730566","2024-02-28 22:45:00","9.187","3.01064","26.93","7.671","7.84","8.217","3.455","0.44","0.18","27.5706","4.40319","79.61","0","SATNPRO1509","24.336000000000002","0.34084","5"],
    [14771,"HCEP03730566","2024-02-28 23:00:00","9.2078","3.01783","26.81","7.655","7.85","7.461","3.733","0.59","0.23","27.6272","4.41103","79.51","0","SATNPRO1509","24.278000000000002","0.34008","5"],
    [14772,"HCEP03730566","2024-02-28 23:15:00","9.1587","3.00328","26.466","7.866","7.87","8.24","1.745","0.87","0.41","27.5181","4.39607","81.55","0","SATNPRO1509","23.66","0.33136","5"],
    [14773,"HCEP03730566","2024-02-28 23:30:00","9.1923","3.0132","26.365","7.796","7.87","7.737","3.006","0.71","0.17","27.5925","4.40625","80.92","0","SATNPRO1509","23.956","0.33554","5"],
    [14774,"HCEP03730566","2024-02-28 23:45:00","9.2131","3.01419","26.227","7.632","7.86","8.511","2.947","0.9","0.23","27.5865","4.40502","79.25","0","SATNPRO1509","24.498","0.34308","5"],
    [14775,"HCEP03730566","2024-02-29 00:00:00","9.3272","3.06153","26.15","7.145","7.83","11.414","4.254","0.8","0.29","27.976","4.45933","74.59","0","SATNPRO1509","25.43","0.35616","5"],
    [14776,"HCEP03730566","2024-02-29 00:15:00","9.3664","3.08288","26.036","6.715","7.79","12.089","4.216","0.62","0.22","28.1609","4.48531","70.25","0","SATNPRO1509","26.694","0.37392","5"],
    [14777,"HCEP03730566","2024-02-29 00:30:00","9.3878","3.0723","25.856","6.375","7.75","7.924","3.656","0.39","0.15","28.0374","4.46713","66.66","0","SATNPRO1509","25.855999999999998","0.36218","5"],
    [14778,"HCEP03730566","2024-02-29 00:45:00","9.2497","3.03986","25.796","6.687","7.75","7.012","3.486","0.44","0.43","27.8177","4.43779","69.61","0","SATNPRO1509","25.408","0.35586","5"],
    [14779,"HCEP03730566","2024-02-29 01:00:00","9.3059","3.0517","25.828","6.763","7.74","6.93","3.72","0.45","0.21","27.8936","4.44778","70.51","0","SATNPRO1509","25.752","0.3607","5"],
    [14780,"HCEP03730566","2024-02-29 01:15:00","9.2796","3.04223","25.835","6.94","7.75","8.566","4.082","0.62","0.36","27.8185","4.43738","72.3","0","SATNPRO1509","25.396","0.35572","5"],
    [14781,"HCEP03730566","2024-02-29 01:30:00","9.3148","3.04918","25.88","6.993","7.76","8.176","4.786","0.54","0.43","27.8612","4.44295","72.91","0","SATNPRO1509","25.192","0.35284","5"],
    [14782,"HCEP03730566","2024-02-29 01:45:00","9.3013","3.04215","25.9","6.951","7.77","7.9","4.882","0.5","0.29","27.8008","4.43446","72.42","0","SATNPRO1509","24.956","0.34956","5"],
    [14783,"HCEP03730566","2024-02-29 02:00:00","9.2733","3.03243","25.988","7.078","7.78","7.657","4.318","0.5","0.18","27.7243","4.4239","73.67","0","SATNPRO1509","24.682","0.3457","5"],
    [14784,"HCEP03730566","2024-02-29 02:15:00","9.2522","3.02433","26.087","7.239","7.79","7.163","4.226","0.53","0.17","27.6588","4.41479","75.27","0","SATNPRO1509","24.338","0.34092","5"],
    [14785,"HCEP03730566","2024-02-29 02:30:00","9.2635","3.02781","26.166","7.259","7.8","7.228","4.865","0.49","0.2","27.6852","4.41842","75.52","0","SATNPRO1509","24.276","0.34004","5"],
    [14786,"HCEP03730566","2024-02-29 02:45:00","9.2498","3.02258","26.243","7.294","7.81","7.071","4.802","0.61","0.21","27.643","4.41256","75.83","0","SATNPRO1509","24.073999999999998","0.33718","5"],
    [14787,"HCEP03730566","2024-02-29 03:00:00","9.3389","3.05524","26.347","6.91","7.79","7.527","7.748","0.52","0.65","27.9033","4.44865","72.11","0","SATNPRO1509","25.002","0.35016","5"],
    [14788,"HCEP03730566","2024-02-29 03:15:00","9.3341","3.05476","26.445","6.798","7.78","6.666","7.292","0.61","0.39","27.9023","4.44858","70.93","0","SATNPRO1509","25.61","0.35872","5"],
    [14789,"HCEP03730566","2024-02-29 03:30:00","9.5041","3.11981","26.614","5.929","7.73","4.808","7.295","0.36","0.31","28.4243","4.52093","62.3","0","SATNPRO1509","27.042","0.37874","5"],
    [14790,"HCEP03730566","2024-02-29 03:45:00","9.6277","3.17743","26.68","5.504","7.68","3.637","9.826","0.24","0.44","28.9057","4.58799","58.17","0","SATNPRO1509","29.436","0.41228","5"],
    [14791,"HCEP03730566","2024-02-29 04:00:00","9.6489","3.1858","26.802","5.401","7.66","3.211","7.618","0.22","0.42","28.9728","4.59725","57.14","0","SATNPRO1509","30.028","0.42062","5"],
    [14792,"HCEP03730566","2024-02-29 04:15:00","9.6304","3.17745","26.965","5.475","7.65","3.562","5.661","0.28","0.23","28.9037","4.58766","57.87","0","SATNPRO1509","29.576","0.41426","5"],
    [14793,"HCEP03730566","2024-02-29 04:30:00","9.4801","3.11728","27.072","5.864","7.66","5.109","3.969","0.45","0.34","28.4177","4.52041","61.6","0","SATNPRO1509","27.702","0.38798","5"],
    [14794,"HCEP03730566","2024-02-29 04:45:00","9.5075","3.12731","27.247","6.048","7.67","5.13","4.084","0.39","0.31","28.497","4.53135","63.58","0","SATNPRO1509","28.398","0.39774","5"],
    [14795,"HCEP03730566","2024-02-29 05:00:00","9.5476","3.13975","27.436","5.846","7.67","4.708","4.655","0.33","0.3","28.5902","4.54409","61.56","0","SATNPRO1509","28.346","0.39702","5"],
    [14796,"HCEP03730566","2024-02-29 05:15:00","9.5524","3.14639","27.532","5.819","7.66","5.293","4.343","0.61","0.49","28.6533","4.55308","61.31","0","SATNPRO1509","28.541999999999998","0.3998","5"],
    [14797,"HCEP03730566","2024-02-29 05:30:00","9.5398","3.14288","27.652","5.86","7.66","5.556","4.141","0.69","0.39","28.6279","4.54965","61.72","0","SATNPRO1509","28.524","0.3995","5"],
    [14798,"HCEP03730566","2024-02-29 05:45:00","9.4451","3.1036","27.722","6.137","7.68","6.31","3.705","0.48","0.29","28.3072","4.50514","64.36","0","SATNPRO1509","27.386","0.3836","5"],
    [14799,"HCEP03730566","2024-02-29 06:00:00","9.4099","3.09033","27.833","6.318","7.69","6.432","3.514","0.55","0.22","28.2011","4.49047","66.16","0","SATNPRO1509","26.804","0.37544","5"],
    [14800,"HCEP03730566","2024-02-29 06:15:00","9.3508","3.06636","27.922","6.493","7.71","6.765","3.112","0.59","0.17","28.0057","4.4633","67.82","0","SATNPRO1509","26.144","0.3662","5"],
    [14801,"HCEP03730566","2024-02-29 06:30:00","9.3426","3.0655","27.986","6.738","7.73","7.012","3.441","0.6","0.23","28.0033","4.46311","70.37","0","SATNPRO1509","25.554","0.35792","5"],
    [14802,"HCEP03730566","2024-02-29 06:45:00","9.3133","3.05352","28.05","6.851","7.75","6.247","3.676","0.32","1.03","27.9053","4.44947","71.45","0","SATNPRO1509","25.722","0.36028","5"],
    [14803,"HCEP03730566","2024-02-29 07:00:00","9.3417","3.06283","28.147","6.79","7.75","6.934","3.366","0.55","0.13","27.977","4.45934","70.89","0","SATNPRO1509","25.868000000000002","0.36232","5"],
    [14804,"HCEP03730566","2024-02-29 07:15:00","9.2734","3.04068","28.15","6.987","7.77","6.989","3.252","0.56","0.09","27.8067","4.43592","72.76","0","SATNPRO1509","24.67","0.3455","5"],
    [14805,"HCEP03730566","2024-02-29 07:30:00","9.2672","3.03358","28.105","7.147","7.78","7.098","3.004","0.59","0.21","27.7399","4.42637","74.38","0","SATNPRO1509","24.708","0.3461","5"],
    [14806,"HCEP03730566","2024-02-29 07:45:00","9.2686","3.03397","28.097","7.118","7.79","6.948","2.821","0.49","0.15","27.7427","4.42675","74.08","0","SATNPRO1509","24.986","0.35","5"],
    [14807,"HCEP03730566","2024-02-29 08:00:00","9.254","3.02845","28.084","7.135","7.79","6.661","2.841","0.56","0.22","27.6983","4.42058","74.21","0","SATNPRO1509","24.914","0.349","5"],
    [14808,"HCEP03730566","2024-02-29 08:15:00","9.2611","3.03109","28.028","7.132","7.79","7.031","2.769","0.61","0.19","27.7195","4.42353","74.2","0","SATNPRO1509","24.896","0.34874","5"],
    [14809,"HCEP03730566","2024-02-29 08:30:00","9.242","3.02539","27.946","7.156","7.79","6.636","2.736","0.5","0.2","27.6767","4.41766","74.41","1","SATNPRO1509","24.866","0.3483","5"],
    [14810,"HCEP03730566","2024-02-29 08:45:00","9.2351","3.02367","27.9","7.206","7.79","6.854","2.805","0.59","0.19","27.6647","4.41603","74.91","1","SATNPRO1509","24.796","0.34732","5"],
    [14811,"HCEP03730566","2024-02-29 09:00:00","9.239","3.0222","27.871","7.219","7.79","6.716","2.771","0.55","0.17","27.6469","4.4134","75.03","1","SATNPRO1509","24.782","0.3471","5"],
    [14812,"HCEP03730566","2024-02-29 09:15:00","9.4992","3.12368","27.824","6.085","7.74","5.473","9.219","0.4","0.8","28.4667","4.52718","63.94","1","SATNPRO1509","27.322","0.3827","5"],
    [14813,"HCEP03730566","2024-02-29 09:30:00","9.5769","3.15906","27.773","5.748","7.69","3.74","6.686","0.28","0.38","28.7612","4.56817","60.63","0","SATNPRO1509","29.206","0.40906","5"],
    [14814,"HCEP03730566","2024-02-29 09:45:00","9.6032","3.17255","27.48","5.79","7.67","3.612","5.962","0.28","0.29","28.876","4.58419","61.15","0","SATNPRO1509","29.998","0.42018","5"],
    [14815,"HCEP03730566","2024-02-29 10:00:00","9.6174","3.17929","27.446","5.731","7.66","3.43","6.27","0.29","0.33","28.9324","4.59204","60.58","0","SATNPRO1509","30.048","0.42088","5"],
    [14816,"HCEP03730566","2024-02-29 10:15:00","9.623","3.18204","27.308","5.716","7.66","3.195","5.677","0.26","0.42","28.9557","4.59528","60.43","0","SATNPRO1509","30.28","0.42412","5"],
    [14817,"HCEP03730566","2024-02-29 10:30:00","9.6053","3.18088","27.032","5.863","7.66","3.155","5.272","0.35","0.29","28.9584","4.59595","61.96","0","SATNPRO1509","30.584","0.4284","5"],
    [14818,"HCEP03730566","2024-02-29 10:45:00","9.6155","3.185","26.874","5.905","7.66","2.871","5.24","0.25","0.31","28.9916","4.60053","62.43","0","SATNPRO1509","30.592","0.42848","5"],
    [14819,"HCEP03730566","2024-02-29 11:00:00","9.6262","3.18934","26.724","5.848","7.66","2.697","4.902","0.25","0.41","29.0268","4.60538","61.86","0","SATNPRO1509","30.808","0.43148","5"],
    [14820,"HCEP03730566","2024-02-29 11:15:00","9.6331","3.19238","26.509","5.833","7.66","2.518","4.402","0.25","0.25","29.0519","4.60886","61.72","0","SATNPRO1509","30.908","0.4329","5"],
    [14821,"HCEP03730566","2024-02-29 11:30:00","9.6302","3.19149","26.316","5.835","7.66","2.612","4.672","0.32","0.33","29.0454","4.60796","61.73","0","SATNPRO1509","30.908","0.43292","5"],
    [14822,"HCEP03730566","2024-02-29 11:45:00","9.6278","3.18826","26.097","5.841","7.66","2.708","4.065","0.28","0.27","29.0149","4.60361","61.78","0","SATNPRO1509","30.84","0.43198","5"],
    [14823,"HCEP03730566","2024-02-29 12:00:00","9.6234","3.18682","25.93","5.832","7.66","2.88","4.541","0.24","0.24","29.0041","4.60212","61.67","0","SATNPRO1509","30.722","0.43034","5"],
    [14824,"HCEP03730566","2024-02-29 12:15:00","9.6102","3.18014","25.764","5.852","7.66","3.43","4.057","0.36","0.38","28.9475","4.59423","61.85","0","SATNPRO1509","30.58","0.42832","5"],
    [14825,"HCEP03730566","2024-02-29 12:30:00","9.5949","3.17518","25.644","5.896","7.66","3.564","3.869","0.44","0.18","28.9098","4.58908","62.28","0","SATNPRO1509","30.37","0.42538","5"],
    [14826,"HCEP03730566","2024-02-29 12:45:00","9.5868","3.17232","25.558","5.935","7.67","3.836","4.116","0.38","0.26","28.8876","4.58603","62.67","0","SATNPRO1509","30.156","0.42238","5"],
    [14827,"HCEP03730566","2024-02-29 13:00:00","9.5729","3.16396","25.488","5.96","7.67","4.262","4.163","0.37","0.21","28.8146","4.57578","62.89","0","SATNPRO1509","30.094","0.42148","5"],
    [14828,"HCEP03730566","2024-02-29 13:15:00","9.5666","3.16114","25.427","5.991","7.67","4.173","4.194","0.4","0.32","28.7913","4.57255","63.19","1","SATNPRO1509","29.912","0.41898","5"],
    [14829,"HCEP03730566","2024-02-29 13:30:00","9.552","3.15263","25.326","6.025","7.67","4.709","4.516","0.51","0.37","28.7173","4.56215","63.5","0","SATNPRO1509","29.668","0.41552","5"],
    [14830,"HCEP03730566","2024-02-29 13:45:00","9.5357","3.1474","25.31","6.073","7.68","4.787","3.872","0.31","0.19","28.6776","4.55674","63.97","0","SATNPRO1509","29.080000000000002","0.40734","5"],
    [14831,"HCEP03730566","2024-02-29 14:00:00","9.5059","3.13426","25.354","6.18","7.69","5.239","3.589","0.37","0.2","28.569","4.54163","65.01","0","SATNPRO1509","28.74","0.40256","5"],
    [14832,"HCEP03730566","2024-02-29 14:15:00","9.4696","3.11913","25.379","6.322","7.7","5.607","3.276","0.56","0.15","28.4453","4.52447","66.4","0","SATNPRO1509","28.428","0.39816","5"],
    [14833,"HCEP03730566","2024-02-29 14:30:00","9.5827","3.16967","25.391","5.993","7.69","3.765","6.633","0.31","0.28","28.8643","4.58275","63.26","0","SATNPRO1509","29.776","0.41708","5"],
    [14834,"HCEP03730566","2024-02-29 14:45:00","9.6091","3.17895","25.417","5.862","7.67","3.345","4.328","0.22","0.19","28.9364","4.59264","61.94","0","SATNPRO1509","30.494","0.4271","5"],
    [14835,"HCEP03730566","2024-02-29 15:00:00","9.6125","3.18058","25.51","5.888","7.67","3.162","4.446","0.18","0.21","28.9502","4.59456","62.23","0","SATNPRO1509","30.612","0.42878","5"],
    [14836,"HCEP03730566","2024-02-29 15:15:00","9.6138","3.18136","25.569","5.909","7.67","3.04","4.492","0.29","0.2","28.9569","4.59551","62.46","0","SATNPRO1509","30.721999999999998","0.4303","5"],
    [14837,"HCEP03730566","2024-02-29 15:30:00","9.6185","3.18421","25.682","5.907","7.66","2.799","4.567","0.3","0.17","28.9818","4.599","62.45","0","SATNPRO1509","30.816","0.43162","5"],
    [14838,"HCEP03730566","2024-02-29 15:45:00","9.62","3.18547","25.728","5.901","7.66","2.61","4.249","0.28","0.14","28.9933","4.60062","62.39","0","SATNPRO1509","30.912","0.43298","5"],
    [14839,"HCEP03730566","2024-02-29 16:00:00","9.6209","3.18543","25.854","5.882","7.66","2.787","5.005","0.23","0.26","28.992","4.60044","62.19","0","SATNPRO1509","30.752","0.4307","5"],
    [14840,"HCEP03730566","2024-02-29 16:15:00","9.6245","3.18782","25.947","5.845","7.66","2.482","5.11","0.17","0.19","29.0131","4.60341","61.82","0","SATNPRO1509","30.746000000000002","0.43068","5"],
    [14841,"HCEP03730566","2024-02-29 16:30:00","9.6251","3.18814","26.04","5.818","7.66","2.467","4.852","0.2","0.19","29.0159","4.6038","61.53","0","SATNPRO1509","30.772","0.43102","5"],
    [14842,"HCEP03730566","2024-02-29 16:45:00","9.6072","3.1822","26.115","5.818","7.66","2.938","3.692","0.24","0.11","28.9704","4.59759","61.49","0","SATNPRO1509","30.48","0.4269","5"],
    [14843,"HCEP03730566","2024-02-29 17:00:00","9.6075","3.18291","26.189","5.825","7.66","2.868","3.731","0.28","0.12","28.9774","4.59859","61.57","0","SATNPRO1509","30.476","0.42692","5"],
    [14844,"HCEP03730566","2024-02-29 17:15:00","9.6136","3.18543","26.347","5.808","7.66","2.597","4.148","0.19","0.16","28.9978","4.60142","61.41","0","SATNPRO1509","30.482","0.42698","5"],
    [14845,"HCEP03730566","2024-02-29 17:30:00","9.6227","3.18896","26.457","5.775","7.66","2.543","4.276","0.2","0.19","29.0259","4.6053","61.08","0","SATNPRO1509","30.573999999999998","0.42822","5"],
    [14846,"HCEP03730566","2024-02-29 17:45:00","9.6274","3.19155","26.645","5.756","7.65","2.461","4.576","0.24","0.22","29.0481","4.60841","60.9","0","SATNPRO1509","30.724","0.43032","5"],
    [14847,"HCEP03730566","2024-02-29 18:00:00","9.6314","3.19372","26.757","5.752","7.65","2.322","4.799","0.18","0.24","29.0667","4.61101","60.86","0","SATNPRO1509","30.886","0.43262","5"],
    [14848,"HCEP03730566","2024-02-29 18:15:00","9.6282","3.1931","26.873","5.77","7.65","2.311","4.453","0.25","0.21","29.063","4.61055","61.05","0","SATNPRO1509","30.91","0.43294","5"],
    [14849,"HCEP03730566","2024-02-29 18:30:00","9.6194","3.19182","27.005","5.848","7.66","2.346","3.974","0.3","0.25","29.0571","4.60987","61.87","0","SATNPRO1509","30.932","0.43326","5"],
    [14850,"HCEP03730566","2024-02-29 18:45:00","9.6082","3.18893","27.109","5.934","7.66","2.366","3.745","0.22","0.41","29.037","4.60719","62.74","0","SATNPRO1509","30.958","0.4336","5"],
    [14851,"HCEP03730566","2024-02-29 19:00:00","9.614","3.19016","27.196","5.937","7.67","2.397","4.471","0.24","0.2","29.0448","4.6082","62.79","0","SATNPRO1509","30.858","0.43226","5"],
    [14852,"HCEP03730566","2024-02-29 19:15:00","9.613","3.1896","27.333","5.923","7.67","2.319","3.932","0.2","0.24","29.0398","4.60752","62.64","0","SATNPRO1509","30.928","0.43316","5"],
    [14853,"HCEP03730566","2024-02-29 19:30:00","9.6135","3.1894","27.376","5.918","7.67","2.299","4.246","0.2","0.16","29.0373","4.60715","62.58","0","SATNPRO1509","30.855999999999998","0.4322","5"],
    [14854,"HCEP03730566","2024-02-29 19:45:00","9.6142","3.18945","27.45","5.894","7.67","2.282","4.133","0.17","0.15","29.0373","4.60715","62.34","0","SATNPRO1509","30.764000000000003","0.43092","5"],
    [14855,"HCEP03730566","2024-02-29 20:00:00","9.6157","3.18981","27.529","5.871","7.66","2.245","4.519","0.18","0.3","29.0397","4.60746","62.09","0","SATNPRO1509","30.785999999999998","0.43118","5"],
    [14856,"HCEP03730566","2024-02-29 20:15:00","9.6155","3.18979","27.414","5.854","7.66","2.176","4.192","0.15","0.12","29.0397","4.60745","61.91","0","SATNPRO1509","30.692","0.4299","5"],
    [14857,"HCEP03730566","2024-02-29 20:30:00","9.6159","3.18974","27.56","5.849","7.66","2.163","5.195","0.18","4.6","29.0388","4.60733","61.86","0","SATNPRO1509","30.77","0.43096","5"],
    [14858,"HCEP03730566","2024-02-29 20:45:00","9.6164","3.18996","27.529","5.845","7.66","2.313","15.151","0.19","15.11","29.0406","4.60758","61.82","0","SATNPRO1509","30.75","0.43068","5"],
    [14859,"HCEP03730566","2024-02-29 21:00:00","9.6172","3.19004","27.357","5.836","7.66","2.131","13.309","0.12","11.9","29.0408","4.60759","61.72","0","SATNPRO1509","30.702","0.43006","5"],
    [14860,"HCEP03730566","2024-02-29 21:15:00","9.6201","3.19054","27.447","5.814","7.66","2.13","3.879","0.18","0.44","29.0436","4.60794","61.5","0","SATNPRO1509","30.824","0.43174","5"],
    [14861,"HCEP03730566","2024-02-29 21:30:00","9.6181","3.18994","27.359","5.831","7.66","2.196","4.342","0.13","0.22","29.0391","4.60732","61.67","0","SATNPRO1509","30.756","0.43082","5"],
    [14862,"HCEP03730566","2024-02-29 21:45:00","9.6122","3.18867","27.261","5.864","7.66","2.306","3.966","0.19","0.18","29.0312","4.60629","62.01","0","SATNPRO1509","30.81","0.43152","5"],
    [14863,"HCEP03730566","2024-02-29 22:00:00","9.6228","3.18982","27.215","5.759","7.66","2.391","4.622","0.16","0.11","29.0341","4.60652","60.92","0","SATNPRO1509","30.528","0.4276","5"],
    [14864,"HCEP03730566","2024-02-29 22:15:00","9.6255","3.18972","27.193","5.683","7.65","2.479","5.154","0.18","0.21","29.031","4.60602","60.11","0","SATNPRO1509","30.376","0.42548","5"],
    [14865,"HCEP03730566","2024-02-29 22:30:00","9.6273","3.18976","27.218","5.638","7.65","2.539","5.567","0.23","0.26","29.03","4.60585","59.64","0","SATNPRO1509","30.338","0.42494","5"],
    [14866,"HCEP03730566","2024-02-29 22:45:00","9.627","3.18908","27.128","5.64","7.65","2.501","5.625","0.18","0.26","29.0234","4.60491","59.66","0","SATNPRO1509","30.334","0.42486","5"],
    [14867,"HCEP03730566","2024-02-29 23:00:00","9.6204","3.18656","27.005","5.698","7.65","2.5","5.093","0.21","0.16","29.0033","4.60214","60.26","0","SATNPRO1509","30.43","0.42624","5"],
    [14868,"HCEP03730566","2024-02-29 23:15:00","9.6122","3.18296","26.95","5.767","7.65","2.566","4.525","0.16","0.22","28.9738","4.59803","60.97","1","SATNPRO1509","30.514","0.4274","5"],
    [14869,"HCEP03730566","2024-02-29 23:30:00","9.6111","3.18162","26.945","5.779","7.66","2.783","4.798","0.24","0.17","28.9612","4.59625","61.09","1","SATNPRO1509","30.44","0.42634","5"],
    [14870,"HCEP03730566","2024-02-29 23:45:00","9.6069","3.17921","26.902","5.778","7.66","2.998","5.076","0.24","0.21","28.9403","4.59332","61.06","1","SATNPRO1509","30.354","0.42516","5"],
    [14871,"NA","2024-03-01 00:00:00",null,null,null,null,null,null,null,null,null,null,null,null,null,"SATNPRO1509","30.3","0.42438","5"],
    [14872,"NA","2024-03-01 00:15:00",null,null,null,null,null,null,null,null,null,null,null,null,null,"SATNPRO1509","30.274","0.42404","5"],
    [14873,"NA","2024-03-01 00:30:00",null,null,null,null,null,null,null,null,null,null,null,null,null,"SATNPRO1509","30.268","0.42394","5"],
    [14874,"NA","2024-03-01 00:45:00",null,null,null,null,null,null,null,null,null,null,null,null,null,"SATNPRO1509","30.246","0.42364","5"],
    [14875,"NA","2024-03-01 01:00:00",null,null,null,null,null,null,null,null,null,null,null,null,null,"SATNPRO1509","30.614","0.42882","5"],
    [14876,"NA","2024-03-01 01:15:00",null,null,null,null,null,null,null,null,null,null,null,null,null,"SATNPRO1509","30.946","0.43344","5"],
    [14877,"NA","2024-03-01 01:30:00",null,null,null,null,null,null,null,null,null,null,null,null,null,"SATNPRO1509","30.978","0.4339","5"],
    [14878,"NA","2024-03-01 01:45:00",null,null,null,null,null,null,null,null,null,null,null,null,null,"SATNPRO1509","31.22","0.4373","5"],
    [14879,"NA","2024-03-01 02:00:00",null,null,null,null,null,null,null,null,null,null,null,null,null,"SATNPRO1509","31.376","0.4395","5"],
    [14880,"NA","2024-03-01 02:15:00",null,null,null,null,null,null,null,null,null,null,null,null,null,"SATNPRO1509","31.22","0.43728","5"],
    [14881,"NA","2024-03-01 02:30:00",null,null,null,null,null,null,null,null,null,null,null,null,null,"SATNPRO1509","31.254","0.43774","5"],
    [14882,"NA","2024-03-01 02:45:00",null,null,null,null,null,null,null,null,null,null,null,null,null,"SATNPRO1509","31.238","0.43754","5"],
    [14883,"NA","2024-03-01 03:00:00",null,null,null,null,null,null,null,null,null,null,null,null,null,"SATNPRO1509","31.26","0.43786","5"],
    [14884,"NA","2024-03-01 03:15:00",null,null,null,null,null,null,null,null,null,null,null,null,null,"SATNPRO1509","31.274","0.43804","5"],
    [14885,"NA","2024-03-01 03:30:00",null,null,null,null,null,null,null,null,null,null,null,null,null,"SATNPRO1509","31.302","0.43848","5"],
    [14886,"NA","2024-03-01 03:45:00",null,null,null,null,null,null,null,null,null,null,null,null,null,"SATNPRO1509","31.264","0.43792","5"],
    [14887,"NA","2024-03-01 04:00:00",null,null,null,null,null,null,null,null,null,null,null,null,null,"SATNPRO1509","31.222","0.43734","5"],
    [14888,"NA","2024-03-01 04:15:00",null,null,null,null,null,null,null,null,null,null,null,null,null,"SATNPRO1509","31.238","0.43756","5"],
    [14889,"NA","2024-03-01 04:30:00",null,null,null,null,null,null,null,null,null,null,null,null,null,"SATNPRO1509","31.258","0.4378","5"],
    [14890,"NA","2024-03-01 04:45:00",null,null,null,null,null,null,null,null,null,null,null,null,null,"SATNPRO1509","31.078","0.43536","5"],
    [14891,"NA","2024-03-01 05:00:00",null,null,null,null,null,null,null,null,null,null,null,null,null,"SATNPRO1509","31.228","0.43744","5"],
    [14892,"NA","2024-03-01 05:15:00",null,null,null,null,null,null,null,null,null,null,null,null,null,"SATNPRO1509","31.248","0.43768","5"],
    [14893,"NA","2024-03-01 05:30:00",null,null,null,null,null,null,null,null,null,null,null,null,null,"SATNPRO1509","31.226000000000003","0.43738","5"],
    [14894,"NA","2024-03-01 05:45:00",null,null,null,null,null,null,null,null,null,null,null,null,null,"SATNPRO1509","31.222","0.43732","5"],
    [14895,"NA","2024-03-01 06:00:00",null,null,null,null,null,null,null,null,null,null,null,null,null,"SATNPRO1509","31.264","0.43792","5"],
    [14896,"NA","2024-03-01 06:15:00",null,null,null,null,null,null,null,null,null,null,null,null,null,"SATNPRO1509","31.088","0.43546","5"],
    [14897,"NA","2024-03-01 06:30:00",null,null,null,null,null,null,null,null,null,null,null,null,null,"SATNPRO1509","30.434","0.42626","5"],
    [14898,"NA","2024-03-01 06:45:00",null,null,null,null,null,null,null,null,null,null,null,null,null,"SATNPRO1509","30.018","0.42048","5"],
    [14899,"NA","2024-03-01 07:00:00",null,null,null,null,null,null,null,null,null,null,null,null,null,"SATNPRO1509","29.65","0.41528","5"],
    [14900,"NA","2024-03-01 07:15:00",null,null,null,null,null,null,null,null,null,null,null,null,null,"SATNPRO1509","29.666","0.41552","5"],
    [14901,"NA","2024-03-01 07:30:00",null,null,null,null,null,null,null,null,null,null,null,null,null,"SATNPRO1509","29.919999999999998","0.41908","5"],
    [14902,"NA","2024-03-01 07:45:00",null,null,null,null,null,null,null,null,null,null,null,null,null,"SATNPRO1509","29.918","0.41906","5"],
    [14903,"NA","2024-03-01 08:00:00",null,null,null,null,null,null,null,null,null,null,null,null,null,"SATNPRO1509","30.032","0.42066","5"],
    [14904,"NA","2024-03-01 08:15:00",null,null,null,null,null,null,null,null,null,null,null,null,null,"SATNPRO1509","30.006","0.4203","5"],
    [14905,"NA","2024-03-01 08:30:00",null,null,null,null,null,null,null,null,null,null,null,null,null,"SATNPRO1509","30.134","0.4221","5"],
    [14906,"NA","2024-03-01 14:30:00",null,null,null,null,null,null,null,null,null,null,null,null,null,"SATNPRO1509","30.214","0.4232","5"],
    [14907,"NA","2024-03-01 14:45:00",null,null,null,null,null,null,null,null,null,null,null,null,null,"SATNPRO1509","30.296","0.42436","5"],
    [14908,"NA","2024-03-01 15:00:00",null,null,null,null,null,null,null,null,null,null,null,null,null,"SATNPRO1509","30.266000000000002","0.42394","5"],
    [14909,"NA","2024-03-01 15:15:00",null,null,null,null,null,null,null,null,null,null,null,null,null,"SATNPRO1509","30.174","0.42264","5"],
    [14910,"NA","2024-03-01 15:30:00",null,null,null,null,null,null,null,null,null,null,null,null,null,"SATNPRO1509","30.062","0.42106","5"],
    [14911,"NA","2024-03-01 15:45:00",null,null,null,null,null,null,null,null,null,null,null,null,null,"SATNPRO1509","29.52","0.41346","5"],
    [14912,"NA","2024-03-01 16:00:00",null,null,null,null,null,null,null,null,null,null,null,null,null,"SATNPRO1509","29.364","0.41132","5"],
    [14913,"NA","2024-03-01 16:15:00",null,null,null,null,null,null,null,null,null,null,null,null,null,"SATNPRO1509","28.916","0.40502","5"],
    [14914,"NA","2024-03-01 16:30:00",null,null,null,null,null,null,null,null,null,null,null,null,null,"SATNPRO1509","28.844","0.40402","5"],
    [14915,"NA","2024-03-01 16:45:00",null,null,null,null,null,null,null,null,null,null,null,null,null,"SATNPRO1509","28.382","0.39756","5"],
    [14916,"NA","2024-03-01 17:00:00",null,null,null,null,null,null,null,null,null,null,null,null,null,"SATNPRO1509","27.71","0.38812","5"],
    [14917,"NA","2024-03-01 17:15:00",null,null,null,null,null,null,null,null,null,null,null,null,null,"SATNPRO1509","27.39","0.38362","5"],
    [14918,"NA","2024-03-01 17:30:00",null,null,null,null,null,null,null,null,null,null,null,null,null,"SATNPRO1509","27.704","0.38808","5"],
    [14919,"NA","2024-03-01 17:45:00",null,null,null,null,null,null,null,null,null,null,null,null,null,"SATNPRO1509","27.387999999999998","0.38356","5"],
    [14920,"NA","2024-03-01 18:00:00",null,null,null,null,null,null,null,null,null,null,null,null,null,"SATNPRO1509","27.27","0.38196","5"],
    [14921,"NA","2024-03-01 18:15:00",null,null,null,null,null,null,null,null,null,null,null,null,null,"SATNPRO1509","26.89","0.37668","5"],
    [14922,"NA","2024-03-01 18:30:00",null,null,null,null,null,null,null,null,null,null,null,null,null,"SATNPRO1509","28.544","0.39976","5"],
    [14923,"NA","2024-03-01 18:45:00",null,null,null,null,null,null,null,null,null,null,null,null,null,"SATNPRO1509","28.612","0.40078","5"],
    [14924,"NA","2024-03-01 19:00:00",null,null,null,null,null,null,null,null,null,null,null,null,null,"SATNPRO1509","28.682","0.40172","5"],
    [14925,"NA","2024-03-01 19:15:00",null,null,null,null,null,null,null,null,null,null,null,null,null,"SATNPRO1509","28.836","0.40388","5"],
    [14926,"NA","2024-03-01 19:30:00",null,null,null,null,null,null,null,null,null,null,null,null,null,"SATNPRO1509","28.976","0.40586","5"],
    [14927,"NA","2024-03-01 19:45:00",null,null,null,null,null,null,null,null,null,null,null,null,null,"SATNPRO1509","29.035999999999998","0.40674","5"],
    [14928,"NA","2024-03-01 20:00:00",null,null,null,null,null,null,null,null,null,null,null,null,null,"SATNPRO1509","29.009999999999998","0.40636","5"],
    [14929,"NA","2024-03-01 20:15:00",null,null,null,null,null,null,null,null,null,null,null,null,null,"SATNPRO1509","28.918","0.40506","5"],
    [14930,"NA","2024-03-01 20:30:00",null,null,null,null,null,null,null,null,null,null,null,null,null,"SATNPRO1509","28.94","0.40536","5"],
    [14931,"NA","2024-03-01 20:45:00",null,null,null,null,null,null,null,null,null,null,null,null,null,"SATNPRO1509","28.014","0.3924","5"],
    [14932,"NA","2024-03-01 21:00:00",null,null,null,null,null,null,null,null,null,null,null,null,null,"SATNPRO1509","28.228","0.3954","5"],
    [14933,"NA","2024-03-01 21:15:00",null,null,null,null,null,null,null,null,null,null,null,null,null,"SATNPRO1509","28.004","0.39222","5"],
    [14934,"NA","2024-03-01 21:30:00",null,null,null,null,null,null,null,null,null,null,null,null,null,"SATNPRO1509","28.478","0.3989","5"],
    [14935,"NA","2024-03-01 21:45:00",null,null,null,null,null,null,null,null,null,null,null,null,null,"SATNPRO1509","28.29","0.39626","5"],
    [14936,"NA","2024-03-01 22:00:00",null,null,null,null,null,null,null,null,null,null,null,null,null,"SATNPRO1509","26.92","0.3771","5"],
    [14937,"NA","2024-03-01 22:15:00",null,null,null,null,null,null,null,null,null,null,null,null,null,"SATNPRO1509","24.274","0.33998","5"],
    [14938,"NA","2024-03-01 22:30:00",null,null,null,null,null,null,null,null,null,null,null,null,null,"SATNPRO1509","25.664","0.35942","5"],
    [14939,"NA","2024-03-01 22:45:00",null,null,null,null,null,null,null,null,null,null,null,null,null,"SATNPRO1509","24.826","0.34772","5"],
    [14940,"NA","2024-03-01 23:00:00",null,null,null,null,null,null,null,null,null,null,null,null,null,"SATNPRO1509","23.13","0.32394","5"],
    [14941,"NA","2024-03-01 23:15:00",null,null,null,null,null,null,null,null,null,null,null,null,null,"SATNPRO1509","22.634","0.31702","5"],
    [14942,"NA","2024-03-01 23:30:00",null,null,null,null,null,null,null,null,null,null,null,null,null,"SATNPRO1509","22.266","0.31188","5"],
    [14943,"NA","2024-03-01 23:45:00",null,null,null,null,null,null,null,null,null,null,null,null,null,"SATNPRO1509","22.358","0.31316","5"],
    [14944,"NA","2024-03-02 00:00:00",null,null,null,null,null,null,null,null,null,null,null,null,null,"SATNPRO1509","22.338","0.31288","5"],
    [14945,"NA","2024-03-02 00:15:00",null,null,null,null,null,null,null,null,null,null,null,null,null,"SATNPRO1509","22.85","0.32006","5"],
    [14946,"NA","2024-03-02 00:30:00",null,null,null,null,null,null,null,null,null,null,null,null,null,"SATNPRO1509","23.428","0.32816","5"],
    [14947,"NA","2024-03-02 00:45:00",null,null,null,null,null,null,null,null,null,null,null,null,null,"SATNPRO1509","28.088","0.39342","5"],
    [14948,"NA","2024-03-02 01:00:00",null,null,null,null,null,null,null,null,null,null,null,null,null,"SATNPRO1509","27.806","0.38948","5"],
    [14949,"NA","2024-03-02 01:15:00",null,null,null,null,null,null,null,null,null,null,null,null,null,"SATNPRO1509","27.726","0.38834","5"],
    [14950,"NA","2024-03-02 01:30:00",null,null,null,null,null,null,null,null,null,null,null,null,null,"SATNPRO1509","27","0.3782","5"],
    [14951,"NA","2024-03-02 01:45:00",null,null,null,null,null,null,null,null,null,null,null,null,null,"SATNPRO1509","26.62","0.37288","5"],
    [14952,"NA","2024-03-02 02:00:00",null,null,null,null,null,null,null,null,null,null,null,null,null,"SATNPRO1509","26.556","0.37192","5"],
    [14953,"NA","2024-03-02 02:15:00",null,null,null,null,null,null,null,null,null,null,null,null,null,"SATNPRO1509","27.058","0.379","5"],
    [14954,"NA","2024-03-02 02:30:00",null,null,null,null,null,null,null,null,null,null,null,null,null,"SATNPRO1509","27.66","0.38744","5"],
    [14955,"NA","2024-03-02 02:45:00",null,null,null,null,null,null,null,null,null,null,null,null,null,"SATNPRO1509","27.94","0.39138","5"],
    [14956,"NA","2024-03-02 03:00:00",null,null,null,null,null,null,null,null,null,null,null,null,null,"SATNPRO1509","27.964000000000002","0.3917","5"],
    [14957,"NA","2024-03-02 03:15:00",null,null,null,null,null,null,null,null,null,null,null,null,null,"SATNPRO1509","28.102","0.39364","5"],
    [14958,"NA","2024-03-02 03:30:00",null,null,null,null,null,null,null,null,null,null,null,null,null,"SATNPRO1509","28.33","0.39678","5"],
    [14959,"NA","2024-03-02 03:45:00",null,null,null,null,null,null,null,null,null,null,null,null,null,"SATNPRO1509","28.494","0.39908","5"],
    [14960,"NA","2024-03-02 04:00:00",null,null,null,null,null,null,null,null,null,null,null,null,null,"SATNPRO1509","28.62","0.40084","5"],
    [14961,"NA","2024-03-02 04:15:00",null,null,null,null,null,null,null,null,null,null,null,null,null,"SATNPRO1509","28.688","0.40182","5"],
    [14962,"NA","2024-03-02 04:30:00",null,null,null,null,null,null,null,null,null,null,null,null,null,"SATNPRO1509","28.822","0.4037","5"],
    [14963,"NA","2024-03-02 04:45:00",null,null,null,null,null,null,null,null,null,null,null,null,null,"SATNPRO1509","28.988","0.40604","5"],
    [14964,"NA","2024-03-02 05:00:00",null,null,null,null,null,null,null,null,null,null,null,null,null,"SATNPRO1509","29.142","0.4082","5"],
    [14965,"NA","2024-03-02 05:15:00",null,null,null,null,null,null,null,null,null,null,null,null,null,"SATNPRO1509","29.358","0.4112","5"],
    [14966,"NA","2024-03-02 05:30:00",null,null,null,null,null,null,null,null,null,null,null,null,null,"SATNPRO1509","29.348","0.41106","5"],
    [14967,"NA","2024-03-02 05:45:00",null,null,null,null,null,null,null,null,null,null,null,null,null,"SATNPRO1509","29.318","0.41062","5"],
    [14968,"NA","2024-03-02 06:00:00",null,null,null,null,null,null,null,null,null,null,null,null,null,"SATNPRO1509","29.428","0.41216","5"],
    [14969,"NA","2024-03-02 06:15:00",null,null,null,null,null,null,null,null,null,null,null,null,null,"SATNPRO1509","29.598","0.41458","5"],
    [14970,"NA","2024-03-02 06:30:00",null,null,null,null,null,null,null,null,null,null,null,null,null,"SATNPRO1509","30.088","0.42144","5"],
    [14971,"NA","2024-03-02 06:45:00",null,null,null,null,null,null,null,null,null,null,null,null,null,"SATNPRO1509","30.704","0.43012","5"],
    [14972,"NA","2024-03-02 07:00:00",null,null,null,null,null,null,null,null,null,null,null,null,null,"SATNPRO1509","30.904","0.43288","5"],
    [14973,"NA","2024-03-02 07:15:00",null,null,null,null,null,null,null,null,null,null,null,null,null,"SATNPRO1509","31.094","0.43546","5"],
    [14974,"NA","2024-03-02 07:30:00",null,null,null,null,null,null,null,null,null,null,null,null,null,"SATNPRO1509","31.388","0.43964","5"],
    [14975,"NA","2024-03-02 07:45:00",null,null,null,null,null,null,null,null,null,null,null,null,null,"SATNPRO1509","31.29","0.43828","5"],
    [14976,"NA","2024-03-02 08:00:00",null,null,null,null,null,null,null,null,null,null,null,null,null,"SATNPRO1509","31.434","0.4403","5"],
    [14977,"NA","2024-03-02 08:15:00",null,null,null,null,null,null,null,null,null,null,null,null,null,"SATNPRO1509","31.354","0.43916","5"],
    [14978,"NA","2024-03-02 08:30:00",null,null,null,null,null,null,null,null,null,null,null,null,null,"SATNPRO1509","31.43","0.44024","5"],
    [14979,"NA","2024-03-02 08:45:00",null,null,null,null,null,null,null,null,null,null,null,null,null,"SATNPRO1509","31.434","0.44024","5"],
    [14980,"NA","2024-03-02 09:00:00",null,null,null,null,null,null,null,null,null,null,null,null,null,"SATNPRO1509","31.376","0.4395","5"],
    [14981,"NA","2024-03-02 09:15:00",null,null,null,null,null,null,null,null,null,null,null,null,null,"SATNPRO1509","31.442","0.4404","5"],
    [14982,"NA","2024-03-02 09:30:00",null,null,null,null,null,null,null,null,null,null,null,null,null,"SATNPRO1509","31.55","0.44192","5"],
    [14983,"NA","2024-03-02 09:45:00",null,null,null,null,null,null,null,null,null,null,null,null,null,"SATNPRO1509","31.454","0.44054","5"],
    [14984,"NA","2024-03-02 10:00:00",null,null,null,null,null,null,null,null,null,null,null,null,null,"SATNPRO1509","31.464","0.44072","5"],
    [14985,"NA","2024-03-02 10:15:00",null,null,null,null,null,null,null,null,null,null,null,null,null,"SATNPRO1509","31.7","0.44402","5"],
    [14986,"NA","2024-03-02 10:30:00",null,null,null,null,null,null,null,null,null,null,null,null,null,"SATNPRO1509","31.72","0.4443","5"],
    [14987,"NA","2024-03-02 10:45:00",null,null,null,null,null,null,null,null,null,null,null,null,null,"SATNPRO1509","31.754","0.44476","5"],
    [14988,"NA","2024-03-02 11:00:00",null,null,null,null,null,null,null,null,null,null,null,null,null,"SATNPRO1509","31.736","0.4445","5"],
    [14989,"NA","2024-03-02 11:15:00",null,null,null,null,null,null,null,null,null,null,null,null,null,"SATNPRO1509","31.788","0.44526","5"],
    [14990,"NA","2024-03-02 11:30:00",null,null,null,null,null,null,null,null,null,null,null,null,null,"SATNPRO1509","31.886","0.44664","5"],
    [14991,"NA","2024-03-02 11:45:00",null,null,null,null,null,null,null,null,null,null,null,null,null,"SATNPRO1509","31.866","0.44636","5"],
    [14992,"NA","2024-03-02 12:00:00",null,null,null,null,null,null,null,null,null,null,null,null,null,"SATNPRO1509","31.894","0.44672","5"],
    [14993,"NA","2024-03-02 12:15:00",null,null,null,null,null,null,null,null,null,null,null,null,null,"SATNPRO1509","31.901999999999997","0.44684","5"],
    [14994,"NA","2024-03-02 12:30:00",null,null,null,null,null,null,null,null,null,null,null,null,null,"SATNPRO1509","31.784","0.4452","5"],
    [14995,"NA","2024-03-02 12:45:00",null,null,null,null,null,null,null,null,null,null,null,null,null,"SATNPRO1509","31.734","0.4445","5"],
    [14996,"NA","2024-03-02 13:00:00",null,null,null,null,null,null,null,null,null,null,null,null,null,"SATNPRO1509","32.013999999999996","0.44844","5"],
    [14997,"NA","2024-03-02 13:15:00",null,null,null,null,null,null,null,null,null,null,null,null,null,"SATNPRO1509","31.852","0.44618","5"],
    [14998,"NA","2024-03-02 13:30:00",null,null,null,null,null,null,null,null,null,null,null,null,null,"SATNPRO1509","31.976","0.44786","5"],
    [14999,"NA","2024-03-02 13:45:00",null,null,null,null,null,null,null,null,null,null,null,null,null,"SATNPRO1509","32.108000000000004","0.44974","5"],
    [15000,"NA","2024-03-02 14:00:00",null,null,null,null,null,null,null,null,null,null,null,null,null,"SATNPRO1509","32.032","0.4487","5"],
    [15001,"NA","2024-03-02 14:15:00",null,null,null,null,null,null,null,null,null,null,null,null,null,"SATNPRO1509","31.968","0.44772","5"],
    [15002,"NA","2024-03-02 14:30:00",null,null,null,null,null,null,null,null,null,null,null,null,null,"SATNPRO1509","31.876","0.44648","5"],
    [15003,"NA","2024-03-02 14:45:00",null,null,null,null,null,null,null,null,null,null,null,null,null,"SATNPRO1509","31.823999999999998","0.44574","5"],
    [15004,"NA","2024-03-02 15:00:00",null,null,null,null,null,null,null,null,null,null,null,null,null,"SATNPRO1509","32.018","0.44844","5"],
    [15005,"NA","2024-03-02 15:15:00",null,null,null,null,null,null,null,null,null,null,null,null,null,"SATNPRO1509","32.036","0.4487","5"],
    [15006,"NA","2024-03-02 15:30:00",null,null,null,null,null,null,null,null,null,null,null,null,null,"SATNPRO1509","31.782","0.44516","5"],
    [15007,"NA","2024-03-02 15:45:00",null,null,null,null,null,null,null,null,null,null,null,null,null,"SATNPRO1509","31.694","0.44392","5"],
    [15008,"NA","2024-03-02 16:00:00",null,null,null,null,null,null,null,null,null,null,null,null,null,"SATNPRO1509","31.848","0.44614","5"],
    [15009,"NA","2024-03-02 16:15:00",null,null,null,null,null,null,null,null,null,null,null,null,null,"SATNPRO1509","31.716","0.44424","5"],
    [15010,"NA","2024-03-02 16:30:00",null,null,null,null,null,null,null,null,null,null,null,null,null,"SATNPRO1509","31.904","0.44686","5"],
    [15011,"NA","2024-03-02 16:45:00",null,null,null,null,null,null,null,null,null,null,null,null,null,"SATNPRO1509","31.864","0.44632","5"],
    [15012,"NA","2024-03-02 17:00:00",null,null,null,null,null,null,null,null,null,null,null,null,null,"SATNPRO1509","31.806","0.44552","5"],
    [15013,"NA","2024-03-02 17:15:00",null,null,null,null,null,null,null,null,null,null,null,null,null,"SATNPRO1509","31.794","0.44534","5"],
    [15014,"NA","2024-03-02 17:30:00",null,null,null,null,null,null,null,null,null,null,null,null,null,"SATNPRO1509","31.648","0.44328","5"],
    [15015,"NA","2024-03-02 17:45:00",null,null,null,null,null,null,null,null,null,null,null,null,null,"SATNPRO1509","31.694","0.44388","5"],
    [15016,"NA","2024-03-02 18:00:00",null,null,null,null,null,null,null,null,null,null,null,null,null,"SATNPRO1509","31.666","0.44356","5"],
    [15017,"NA","2024-03-02 18:15:00",null,null,null,null,null,null,null,null,null,null,null,null,null,"SATNPRO1509","31.68","0.44374","5"],
    [15018,"NA","2024-03-02 18:30:00",null,null,null,null,null,null,null,null,null,null,null,null,null,"SATNPRO1509","31.596","0.44258","5"],
    [15019,"NA","2024-03-02 18:45:00",null,null,null,null,null,null,null,null,null,null,null,null,null,"SATNPRO1509","31.652","0.44334","5"],
    [15020,"NA","2024-03-02 19:00:00",null,null,null,null,null,null,null,null,null,null,null,null,null,"SATNPRO1509","31.558","0.44204","5"],
    [15021,"NA","2024-03-02 19:15:00",null,null,null,null,null,null,null,null,null,null,null,null,null,"SATNPRO1509","31.618000000000002","0.44288","5"],
    [15022,"NA","2024-03-02 19:30:00",null,null,null,null,null,null,null,null,null,null,null,null,null,"SATNPRO1509","31.584","0.4424","5"],
    [15023,"NA","2024-03-02 19:45:00",null,null,null,null,null,null,null,null,null,null,null,null,null,"SATNPRO1509","31.422","0.4401","5"],
    [15024,"NA","2024-03-02 20:00:00",null,null,null,null,null,null,null,null,null,null,null,null,null,"SATNPRO1509","31.526","0.44156","5"],
    [15025,"NA","2024-03-02 20:15:00",null,null,null,null,null,null,null,null,null,null,null,null,null,"SATNPRO1509","31.52","0.4415","5"],
    [15026,"NA","2024-03-02 20:30:00",null,null,null,null,null,null,null,null,null,null,null,null,null,"SATNPRO1509","31.524","0.44152","5"],
    [15027,"NA","2024-03-02 20:45:00",null,null,null,null,null,null,null,null,null,null,null,null,null,"SATNPRO1509","31.446","0.44042","5"],
    [15028,"NA","2024-03-02 21:00:00",null,null,null,null,null,null,null,null,null,null,null,null,null,"SATNPRO1509","31.387999999999998","0.43966","5"],
    [15029,"NA","2024-03-02 21:15:00",null,null,null,null,null,null,null,null,null,null,null,null,null,"SATNPRO1509","31.322","0.4387","5"],
    [15030,"NA","2024-03-02 21:30:00",null,null,null,null,null,null,null,null,null,null,null,null,null,"SATNPRO1509","31.364","0.43932","5"],
    [15031,"NA","2024-03-02 21:45:00",null,null,null,null,null,null,null,null,null,null,null,null,null,"SATNPRO1509","31.304","0.43848","5"],
    [15032,"NA","2024-03-02 22:00:00",null,null,null,null,null,null,null,null,null,null,null,null,null,"SATNPRO1509","31.254","0.43778","5"],
    [15033,"NA","2024-03-02 22:15:00",null,null,null,null,null,null,null,null,null,null,null,null,null,"SATNPRO1509","31.178","0.43672","5"],
    [15034,"NA","2024-03-02 22:30:00",null,null,null,null,null,null,null,null,null,null,null,null,null,"SATNPRO1509","31.132","0.4361","5"],
    [15035,"NA","2024-03-02 22:45:00",null,null,null,null,null,null,null,null,null,null,null,null,null,"SATNPRO1509","31.094","0.43552","5"],
    [15036,"NA","2024-03-02 23:00:00",null,null,null,null,null,null,null,null,null,null,null,null,null,"SATNPRO1509","31.002","0.43426","5"],
    [15037,"NA","2024-03-02 23:15:00",null,null,null,null,null,null,null,null,null,null,null,null,null,"SATNPRO1509","31.086000000000002","0.43538","5"],
    [15038,"NA","2024-03-02 23:30:00",null,null,null,null,null,null,null,null,null,null,null,null,null,"SATNPRO1509","31.073999999999998","0.43524","5"],
    [15039,"NA","2024-03-02 23:45:00",null,null,null,null,null,null,null,null,null,null,null,null,null,"SATNPRO1509","31.116","0.43584","5"],
    [15040,"NA","2024-03-03 00:00:00",null,null,null,null,null,null,null,null,null,null,null,null,null,"SATNPRO1509","31.066","0.43512","5"],
    [15041,"NA","2024-03-03 00:15:00",null,null,null,null,null,null,null,null,null,null,null,null,null,"SATNPRO1509","30.964","0.43372","5"],
    [15042,"NA","2024-03-03 00:30:00",null,null,null,null,null,null,null,null,null,null,null,null,null,"SATNPRO1509","30.982","0.43396","5"],
    [15043,"NA","2024-03-03 00:45:00",null,null,null,null,null,null,null,null,null,null,null,null,null,"SATNPRO1509","31.036","0.43468","5"],
    [15044,"NA","2024-03-03 01:00:00",null,null,null,null,null,null,null,null,null,null,null,null,null,"SATNPRO1509","31.024","0.43456","5"],
    [15045,"NA","2024-03-03 01:15:00",null,null,null,null,null,null,null,null,null,null,null,null,null,"SATNPRO1509","31.04","0.43476","5"],
    [15046,"NA","2024-03-03 01:30:00",null,null,null,null,null,null,null,null,null,null,null,null,null,"SATNPRO1509","31.046","0.43484","5"],
    [15047,"NA","2024-03-03 01:45:00",null,null,null,null,null,null,null,null,null,null,null,null,null,"SATNPRO1509","30.932","0.43328","5"],
    [15048,"NA","2024-03-03 02:00:00",null,null,null,null,null,null,null,null,null,null,null,null,null,"SATNPRO1509","30.96","0.43368","5"],
    [15049,"NA","2024-03-03 02:15:00",null,null,null,null,null,null,null,null,null,null,null,null,null,"SATNPRO1509","31.018","0.4345","5"],
    [15050,"NA","2024-03-03 02:30:00",null,null,null,null,null,null,null,null,null,null,null,null,null,"SATNPRO1509","30.718","0.43028","5"],
    [15051,"NA","2024-03-03 02:45:00",null,null,null,null,null,null,null,null,null,null,null,null,null,"SATNPRO1509","30.36","0.42524","5"],
    [15052,"NA","2024-03-03 03:00:00",null,null,null,null,null,null,null,null,null,null,null,null,null,"SATNPRO1509","30.228","0.4234","5"],
    [15053,"NA","2024-03-03 03:15:00",null,null,null,null,null,null,null,null,null,null,null,null,null,"SATNPRO1509","30.088","0.4214","5"],
    [15054,"NA","2024-03-03 03:30:00",null,null,null,null,null,null,null,null,null,null,null,null,null,"SATNPRO1509","30.05","0.4209","5"],
    [15055,"NA","2024-03-03 03:45:00",null,null,null,null,null,null,null,null,null,null,null,null,null,"SATNPRO1509","29.137999999999998","0.40814","5"],
    [15056,"NA","2024-03-03 04:00:00",null,null,null,null,null,null,null,null,null,null,null,null,null,"SATNPRO1509","28.330000000000002","0.39682","5"],
    [15057,"NA","2024-03-03 04:15:00",null,null,null,null,null,null,null,null,null,null,null,null,null,"SATNPRO1509","28.099999999999998","0.39356","5"],
    [15058,"NA","2024-03-03 04:30:00",null,null,null,null,null,null,null,null,null,null,null,null,null,"SATNPRO1509","27.892","0.39066","5"],
    [15059,"NA","2024-03-03 04:45:00",null,null,null,null,null,null,null,null,null,null,null,null,null,"SATNPRO1509","28","0.39218","5"],
    [15060,"NA","2024-03-03 05:00:00",null,null,null,null,null,null,null,null,null,null,null,null,null,"SATNPRO1509","27.926","0.39116","5"],
    [15061,"NA","2024-03-03 05:15:00",null,null,null,null,null,null,null,null,null,null,null,null,null,"SATNPRO1509","28.156","0.39436","5"],
    [15062,"NA","2024-03-03 05:30:00",null,null,null,null,null,null,null,null,null,null,null,null,null,"SATNPRO1509","28.184","0.39478","5"],
    [15063,"NA","2024-03-03 05:45:00",null,null,null,null,null,null,null,null,null,null,null,null,null,"SATNPRO1509","28.192","0.39488","5"],
    [15064,"NA","2024-03-03 06:00:00",null,null,null,null,null,null,null,null,null,null,null,null,null,"SATNPRO1509","28.176","0.39468","5"],
    [15065,"NA","2024-03-03 06:15:00",null,null,null,null,null,null,null,null,null,null,null,null,null,"SATNPRO1509","28.23","0.3954","5"],
    [15066,"NA","2024-03-03 06:30:00",null,null,null,null,null,null,null,null,null,null,null,null,null,"SATNPRO1509","28.5","0.3992","5"],
    [15067,"NA","2024-03-03 06:45:00",null,null,null,null,null,null,null,null,null,null,null,null,null,"SATNPRO1509","28.528","0.39956","5"],
    [15068,"NA","2024-03-03 07:00:00",null,null,null,null,null,null,null,null,null,null,null,null,null,"SATNPRO1509","28.544","0.39976","5"],
    [15069,"NA","2024-03-03 07:15:00",null,null,null,null,null,null,null,null,null,null,null,null,null,"SATNPRO1509","28.451999999999998","0.39856","5"],
    [15070,"NA","2024-03-03 07:30:00",null,null,null,null,null,null,null,null,null,null,null,null,null,"SATNPRO1509","28.587999999999997","0.40044","5"],
    [15071,"NA","2024-03-03 07:45:00",null,null,null,null,null,null,null,null,null,null,null,null,null,"SATNPRO1509","29.098","0.40756","5"],
    [15072,"NA","2024-03-03 08:00:00",null,null,null,null,null,null,null,null,null,null,null,null,null,"SATNPRO1509","29.282","0.41012","5"],
    [15073,"NA","2024-03-03 08:15:00",null,null,null,null,null,null,null,null,null,null,null,null,null,"SATNPRO1509","29.508","0.41332","5"],
    [15074,"NA","2024-03-03 08:30:00",null,null,null,null,null,null,null,null,null,null,null,null,null,"SATNPRO1509","29.646","0.41524","5"],
    [15075,"NA","2024-03-03 08:45:00",null,null,null,null,null,null,null,null,null,null,null,null,null,"SATNPRO1509","29.91","0.41894","5"],
    [15076,"NA","2024-03-03 09:00:00",null,null,null,null,null,null,null,null,null,null,null,null,null,"SATNPRO1509","30.041999999999998","0.42078","5"],
    [15077,"NA","2024-03-03 09:15:00",null,null,null,null,null,null,null,null,null,null,null,null,null,"SATNPRO1509","29.998","0.42016","5"],
    [15078,"NA","2024-03-03 09:30:00",null,null,null,null,null,null,null,null,null,null,null,null,null,"SATNPRO1509","30.259999999999998","0.4239","5"],
    [15079,"NA","2024-03-03 09:45:00",null,null,null,null,null,null,null,null,null,null,null,null,null,"SATNPRO1509","30.41","0.42596","5"],
    [15080,"NA","2024-03-03 10:00:00",null,null,null,null,null,null,null,null,null,null,null,null,null,"SATNPRO1509","30.406","0.42592","5"],
    [15081,"NA","2024-03-03 10:15:00",null,null,null,null,null,null,null,null,null,null,null,null,null,"SATNPRO1509","30.638","0.42916","5"],
    [15082,"NA","2024-03-03 10:30:00",null,null,null,null,null,null,null,null,null,null,null,null,null,"SATNPRO1509","30.544","0.42782","5"],
    [15083,"NA","2024-03-03 10:45:00",null,null,null,null,null,null,null,null,null,null,null,null,null,"SATNPRO1509","30.764","0.43092","5"],
    [15084,"NA","2024-03-03 11:00:00",null,null,null,null,null,null,null,null,null,null,null,null,null,"SATNPRO1509","30.53","0.4276","5"],
    [15085,"NA","2024-03-03 11:15:00",null,null,null,null,null,null,null,null,null,null,null,null,null,"SATNPRO1509","30.564","0.42808","5"],
    [15086,"NA","2024-03-03 11:30:00",null,null,null,null,null,null,null,null,null,null,null,null,null,"SATNPRO1509","30.494","0.42712","5"],
    [15087,"NA","2024-03-03 11:45:00",null,null,null,null,null,null,null,null,null,null,null,null,null,"SATNPRO1509","30.628","0.42902","5"],
    [15088,"NA","2024-03-03 12:00:00",null,null,null,null,null,null,null,null,null,null,null,null,null,"SATNPRO1509","30.622","0.4289","5"],
    [15089,"NA","2024-03-03 12:15:00",null,null,null,null,null,null,null,null,null,null,null,null,null,"SATNPRO1509","30.772000000000002","0.43098","5"],
    [15090,"NA","2024-03-03 12:30:00",null,null,null,null,null,null,null,null,null,null,null,null,null,"SATNPRO1509","30.708","0.4301","5"],
    [15091,"NA","2024-03-03 12:45:00",null,null,null,null,null,null,null,null,null,null,null,null,null,"SATNPRO1509","30.669999999999998","0.4296","5"],
    [15092,"NA","2024-03-03 13:00:00",null,null,null,null,null,null,null,null,null,null,null,null,null,"SATNPRO1509","30.509999999999998","0.4273","5"],
    [15093,"NA","2024-03-03 13:15:00",null,null,null,null,null,null,null,null,null,null,null,null,null,"SATNPRO1509","30.328","0.42478","5"],
    [15094,"NA","2024-03-03 13:30:00",null,null,null,null,null,null,null,null,null,null,null,null,null,"SATNPRO1509","30.574","0.42826","5"],
    [15095,"NA","2024-03-03 13:45:00",null,null,null,null,null,null,null,null,null,null,null,null,null,"SATNPRO1509","30.588","0.42844","5"],
    [15096,"NA","2024-03-03 14:00:00",null,null,null,null,null,null,null,null,null,null,null,null,null,"SATNPRO1509","30.596","0.42852","5"],
    [15097,"NA","2024-03-03 14:15:00",null,null,null,null,null,null,null,null,null,null,null,null,null,"SATNPRO1509","30.522","0.42752","5"],
    [15098,"NA","2024-03-03 14:30:00",null,null,null,null,null,null,null,null,null,null,null,null,null,"SATNPRO1509","30.446","0.42642","5"],
    [15099,"NA","2024-03-03 14:45:00",null,null,null,null,null,null,null,null,null,null,null,null,null,"SATNPRO1509","30.43","0.42622","5"],
    [15100,"NA","2024-03-03 15:00:00",null,null,null,null,null,null,null,null,null,null,null,null,null,"SATNPRO1509","30.46","0.42666","5"],
    [15101,"NA","2024-03-03 15:15:00",null,null,null,null,null,null,null,null,null,null,null,null,null,"SATNPRO1509","30.396","0.42576","5"],
    [15102,"NA","2024-03-03 15:30:00",null,null,null,null,null,null,null,null,null,null,null,null,null,"SATNPRO1509","30.39","0.42564","5"],
    [15103,"NA","2024-03-03 15:45:00",null,null,null,null,null,null,null,null,null,null,null,null,null,"SATNPRO1509","29.954","0.41956","5"],
    [15104,"NA","2024-03-03 16:00:00",null,null,null,null,null,null,null,null,null,null,null,null,null,"SATNPRO1509","29.966","0.41972","5"],
    [15105,"NA","2024-03-03 16:15:00",null,null,null,null,null,null,null,null,null,null,null,null,null,"SATNPRO1509","30.364","0.42532","5"],
    [15106,"NA","2024-03-03 16:30:00",null,null,null,null,null,null,null,null,null,null,null,null,null,"SATNPRO1509","30.094","0.42152","5"],
    [15107,"NA","2024-03-03 16:45:00",null,null,null,null,null,null,null,null,null,null,null,null,null,"SATNPRO1509","30.112","0.4218","5"],
    [15108,"NA","2024-03-03 17:00:00",null,null,null,null,null,null,null,null,null,null,null,null,null,"SATNPRO1509","29.932000000000002","0.41928","5"],
    [15109,"NA","2024-03-03 17:15:00",null,null,null,null,null,null,null,null,null,null,null,null,null,"SATNPRO1509","29.328","0.41078","5"],
    [15110,"NA","2024-03-03 17:30:00",null,null,null,null,null,null,null,null,null,null,null,null,null,"SATNPRO1509","28.598","0.40056","5"],
    [15111,"NA","2024-03-03 17:45:00",null,null,null,null,null,null,null,null,null,null,null,null,null,"SATNPRO1509","28.464","0.39866","5"],
    [15112,"NA","2024-03-03 18:00:00",null,null,null,null,null,null,null,null,null,null,null,null,null,"SATNPRO1509","28.89","0.40464","5"],
    [15113,"NA","2024-03-03 18:15:00",null,null,null,null,null,null,null,null,null,null,null,null,null,"SATNPRO1509","29.428","0.41216","5"],
    [15114,"NA","2024-03-03 18:30:00",null,null,null,null,null,null,null,null,null,null,null,null,null,"SATNPRO1509","29.806","0.41748","5"],
    [15115,"NA","2024-03-03 18:45:00",null,null,null,null,null,null,null,null,null,null,null,null,null,"SATNPRO1509","29.916","0.41902","5"],
    [15116,"NA","2024-03-03 19:00:00",null,null,null,null,null,null,null,null,null,null,null,null,null,"SATNPRO1509","29.988","0.42004","5"],
    [15117,"NA","2024-03-03 19:15:00",null,null,null,null,null,null,null,null,null,null,null,null,null,"SATNPRO1509","29.936","0.4193","5"],
    [15118,"NA","2024-03-03 19:30:00",null,null,null,null,null,null,null,null,null,null,null,null,null,"SATNPRO1509","30.032","0.42064","5"],
    [15119,"NA","2024-03-03 19:45:00",null,null,null,null,null,null,null,null,null,null,null,null,null,"SATNPRO1509","29.782","0.41716","5"],
    [15120,"NA","2024-03-03 20:00:00",null,null,null,null,null,null,null,null,null,null,null,null,null,"SATNPRO1509","29.900000000000002","0.41878","5"],
    [15121,"NA","2024-03-03 20:15:00",null,null,null,null,null,null,null,null,null,null,null,null,null,"SATNPRO1509","30.06","0.42106","5"],
    [15122,"NA","2024-03-03 20:30:00",null,null,null,null,null,null,null,null,null,null,null,null,null,"SATNPRO1509","30.608","0.42872","5"],
    [15123,"NA","2024-03-03 20:45:00",null,null,null,null,null,null,null,null,null,null,null,null,null,"SATNPRO1509","30.514","0.42738","5"],
    [15124,"NA","2024-03-03 21:00:00",null,null,null,null,null,null,null,null,null,null,null,null,null,"SATNPRO1509","30.248","0.42368","5"],
    [15125,"NA","2024-03-03 21:15:00",null,null,null,null,null,null,null,null,null,null,null,null,null,"SATNPRO1509","30.14","0.42214","5"],
    [15126,"NA","2024-03-03 21:30:00",null,null,null,null,null,null,null,null,null,null,null,null,null,"SATNPRO1509","30.098","0.42156","5"],
    [15127,"NA","2024-03-03 21:45:00",null,null,null,null,null,null,null,null,null,null,null,null,null,"SATNPRO1509","29.888","0.41864","5"],
    [15128,"NA","2024-03-03 22:00:00",null,null,null,null,null,null,null,null,null,null,null,null,null,"SATNPRO1509","29.766000000000002","0.4169","5"],
    [15129,"NA","2024-03-03 22:15:00",null,null,null,null,null,null,null,null,null,null,null,null,null,"SATNPRO1509","29.574","0.41424","5"],
    [15130,"NA","2024-03-03 22:30:00",null,null,null,null,null,null,null,null,null,null,null,null,null,"SATNPRO1509","29.35","0.41106","5"],
    [15131,"NA","2024-03-03 22:45:00",null,null,null,null,null,null,null,null,null,null,null,null,null,"SATNPRO1509","29.374","0.41146","5"],
    [15132,"NA","2024-03-03 23:00:00",null,null,null,null,null,null,null,null,null,null,null,null,null,"SATNPRO1509","29.392","0.41168","5"],
    [15133,"NA","2024-03-03 23:15:00",null,null,null,null,null,null,null,null,null,null,null,null,null,"SATNPRO1509","29.344","0.411","5"],
    [15134,"NA","2024-03-03 23:30:00",null,null,null,null,null,null,null,null,null,null,null,null,null,"SATNPRO1509","29.314","0.41062","5"],
    [15135,"NA","2024-03-03 23:45:00",null,null,null,null,null,null,null,null,null,null,null,null,null,"SATNPRO1509","29.278","0.4101","5"],
    [15136,"NA","2024-03-04 00:00:00",null,null,null,null,null,null,null,null,null,null,null,null,null,"SATNPRO1509","29.27","0.41002","5"],
    [15137,"NA","2024-03-04 00:15:00",null,null,null,null,null,null,null,null,null,null,null,null,null,"SATNPRO1509","29.006","0.40624","5"],
    [15138,"NA","2024-03-04 00:30:00",null,null,null,null,null,null,null,null,null,null,null,null,null,"SATNPRO1509","29.172","0.4086","5"],
    [15139,"NA","2024-03-04 00:45:00",null,null,null,null,null,null,null,null,null,null,null,null,null,"SATNPRO1509","29.286","0.4102","5"],
    [15140,"NA","2024-03-04 01:00:00",null,null,null,null,null,null,null,null,null,null,null,null,null,"SATNPRO1509","29.06","0.40702","5"],
    [15141,"NA","2024-03-04 01:15:00",null,null,null,null,null,null,null,null,null,null,null,null,null,"SATNPRO1509","28.738","0.40256","5"],
    [15142,"NA","2024-03-04 01:30:00",null,null,null,null,null,null,null,null,null,null,null,null,null,"SATNPRO1509","28.35","0.3971","5"],
    [15143,"NA","2024-03-04 01:45:00",null,null,null,null,null,null,null,null,null,null,null,null,null,"SATNPRO1509","28.582","0.40038","5"],
    [15144,"NA","2024-03-04 02:00:00",null,null,null,null,null,null,null,null,null,null,null,null,null,"SATNPRO1509","28.25","0.39568","5"],
    [15145,"NA","2024-03-04 02:15:00",null,null,null,null,null,null,null,null,null,null,null,null,null,"SATNPRO1509","28.644","0.4012","5"],
    [15146,"NA","2024-03-04 02:30:00",null,null,null,null,null,null,null,null,null,null,null,null,null,"SATNPRO1509","28.87","0.40436","5"],
    [15147,"NA","2024-03-04 02:45:00",null,null,null,null,null,null,null,null,null,null,null,null,null,"SATNPRO1509","29.084","0.40738","5"],
    [15148,"NA","2024-03-04 03:00:00",null,null,null,null,null,null,null,null,null,null,null,null,null,"SATNPRO1509","29.018","0.40648","5"],
    [15149,"NA","2024-03-04 03:15:00",null,null,null,null,null,null,null,null,null,null,null,null,null,"SATNPRO1509","29.084","0.4074","5"],
    [15150,"NA","2024-03-04 03:30:00",null,null,null,null,null,null,null,null,null,null,null,null,null,"SATNPRO1509","28.704","0.40206","5"],
    [15151,"NA","2024-03-04 03:45:00",null,null,null,null,null,null,null,null,null,null,null,null,null,"SATNPRO1509","28.786","0.4032","5"],
    [15152,"NA","2024-03-04 04:00:00",null,null,null,null,null,null,null,null,null,null,null,null,null,"SATNPRO1509","28.19","0.39486","5"],
    [15153,"NA","2024-03-04 04:15:00",null,null,null,null,null,null,null,null,null,null,null,null,null,"SATNPRO1509","28.428","0.39818","5"],
    [15154,"NA","2024-03-04 04:30:00",null,null,null,null,null,null,null,null,null,null,null,null,null,"SATNPRO1509","28.814","0.4036","5"],
    [15155,"NA","2024-03-04 04:45:00",null,null,null,null,null,null,null,null,null,null,null,null,null,"SATNPRO1509","28.73","0.40242","5"],
    [15156,"NA","2024-03-04 05:00:00",null,null,null,null,null,null,null,null,null,null,null,null,null,"SATNPRO1509","29.356","0.41116","5"],
    [15157,"NA","2024-03-04 05:15:00",null,null,null,null,null,null,null,null,null,null,null,null,null,"SATNPRO1509","29.05","0.40688","5"],
    [15158,"NA","2024-03-04 05:30:00",null,null,null,null,null,null,null,null,null,null,null,null,null,"SATNPRO1509","29.554","0.41396","5"],
    [15159,"NA","2024-03-04 05:45:00",null,null,null,null,null,null,null,null,null,null,null,null,null,"SATNPRO1509","29.588","0.41446","5"],
    [15160,"NA","2024-03-04 06:00:00",null,null,null,null,null,null,null,null,null,null,null,null,null,"SATNPRO1509","29.982","0.41998","5"],
    [15161,"NA","2024-03-04 06:15:00",null,null,null,null,null,null,null,null,null,null,null,null,null,"SATNPRO1509","30.282","0.42414","5"],
    [15162,"NA","2024-03-04 06:30:00",null,null,null,null,null,null,null,null,null,null,null,null,null,"SATNPRO1509","30.562","0.42808","5"],
    [15163,"NA","2024-03-04 06:45:00",null,null,null,null,null,null,null,null,null,null,null,null,null,"SATNPRO1509","30.484","0.42698","5"],
    [15164,"NA","2024-03-04 07:00:00",null,null,null,null,null,null,null,null,null,null,null,null,null,"SATNPRO1509","30.62","0.4289","5"],
    [15165,"NA","2024-03-04 07:15:00",null,null,null,null,null,null,null,null,null,null,null,null,null,"SATNPRO1509","31.03","0.43464","5"],
    [15166,"NA","2024-03-04 07:30:00",null,null,null,null,null,null,null,null,null,null,null,null,null,"SATNPRO1509","31.152","0.43636","5"],
    [15167,"NA","2024-03-04 07:45:00",null,null,null,null,null,null,null,null,null,null,null,null,null,"SATNPRO1509","31.382","0.43956","5"],
    [15168,"NA","2024-03-04 08:00:00",null,null,null,null,null,null,null,null,null,null,null,null,null,"SATNPRO1509","31.866","0.44634","5"],
    [15169,"NA","2024-03-04 08:15:00",null,null,null,null,null,null,null,null,null,null,null,null,null,"SATNPRO1509","31.972","0.4478","5"],
    [15170,"NA","2024-03-04 08:30:00",null,null,null,null,null,null,null,null,null,null,null,null,null,"SATNPRO1509","32.016","0.4484","5"],
    [15171,"NA","2024-03-04 08:45:00",null,null,null,null,null,null,null,null,null,null,null,null,null,"SATNPRO1509","32.104","0.44968","5"],
    [15172,"NA","2024-03-04 09:00:00",null,null,null,null,null,null,null,null,null,null,null,null,null,"SATNPRO1509","32.166000000000004","0.45054","5"],
    [15173,"NA","2024-03-04 09:15:00",null,null,null,null,null,null,null,null,null,null,null,null,null,"SATNPRO1509","32.214","0.45122","5"],
    [15174,"NA","2024-03-04 09:30:00",null,null,null,null,null,null,null,null,null,null,null,null,null,"SATNPRO1509","31.934","0.44728","5"],
    [15175,"NA","2024-03-04 09:45:00",null,null,null,null,null,null,null,null,null,null,null,null,null,"SATNPRO1509","31.998","0.44822","5"],
    [15176,"NA","2024-03-04 10:00:00",null,null,null,null,null,null,null,null,null,null,null,null,null,"SATNPRO1509","32.068","0.44918","5"],
    [15177,"NA","2024-03-04 10:15:00",null,null,null,null,null,null,null,null,null,null,null,null,null,"SATNPRO1509","32.252","0.45178","5"],
    [15178,"NA","2024-03-04 10:30:00",null,null,null,null,null,null,null,null,null,null,null,null,null,"SATNPRO1509","32.246","0.45168","5"],
    [15179,"NA","2024-03-04 10:45:00",null,null,null,null,null,null,null,null,null,null,null,null,null,"SATNPRO1509","32.218","0.45126","5"],
    [15180,"NA","2024-03-04 11:00:00",null,null,null,null,null,null,null,null,null,null,null,null,null,"SATNPRO1509","32.112","0.44978","5"],
    [15181,"NA","2024-03-04 11:15:00",null,null,null,null,null,null,null,null,null,null,null,null,null,"SATNPRO1509","32.15","0.4503","5"],
    [15182,"NA","2024-03-04 11:30:00",null,null,null,null,null,null,null,null,null,null,null,null,null,"SATNPRO1509","32.123999999999995","0.44992","5"],
    [15183,"NA","2024-03-04 11:45:00",null,null,null,null,null,null,null,null,null,null,null,null,null,"SATNPRO1509","32.188","0.45084","5"],
    [15184,"NA","2024-03-04 12:00:00",null,null,null,null,null,null,null,null,null,null,null,null,null,"SATNPRO1509","32.246","0.45164","5"],
    [15185,"NA","2024-03-04 12:15:00",null,null,null,null,null,null,null,null,null,null,null,null,null,"SATNPRO1509","32.158","0.4504","5"],
    [15186,"NA","2024-03-04 12:30:00",null,null,null,null,null,null,null,null,null,null,null,null,null,"SATNPRO1509","32.228","0.45142","5"],
    [15187,"NA","2024-03-04 12:45:00",null,null,null,null,null,null,null,null,null,null,null,null,null,"SATNPRO1509","32.19","0.45088","5"],
    [15188,"NA","2024-03-04 13:00:00",null,null,null,null,null,null,null,null,null,null,null,null,null,"SATNPRO1509","32.29","0.45228","5"],
    [15189,"NA","2024-03-04 13:15:00",null,null,null,null,null,null,null,null,null,null,null,null,null,"SATNPRO1509","32.35","0.4531","5"],
    [15190,"NA","2024-03-04 13:30:00",null,null,null,null,null,null,null,null,null,null,null,null,null,"SATNPRO1509","32.352","0.45314","5"],
    [15191,"NA","2024-03-04 13:45:00",null,null,null,null,null,null,null,null,null,null,null,null,null,"SATNPRO1509","32.38","0.45352","5"],
    [15192,"NA","2024-03-04 14:00:00",null,null,null,null,null,null,null,null,null,null,null,null,null,"SATNPRO1509","32.478","0.45494","5"],
    [15193,"NA","2024-03-04 14:15:00",null,null,null,null,null,null,null,null,null,null,null,null,null,"SATNPRO1509","32.28","0.45214","5"],
    [15194,"NA","2024-03-04 14:30:00",null,null,null,null,null,null,null,null,null,null,null,null,null,"SATNPRO1509","32.238","0.45156","5"],
    [15195,"NA","2024-03-04 14:45:00",null,null,null,null,null,null,null,null,null,null,null,null,null,"SATNPRO1509","32.398","0.45378","5"],
    [15196,"NA","2024-03-04 15:00:00",null,null,null,null,null,null,null,null,null,null,null,null,null,"SATNPRO1509","32.362","0.45328","5"],
    [15197,"NA","2024-03-04 15:15:00",null,null,null,null,null,null,null,null,null,null,null,null,null,"SATNPRO1509","32.488","0.45502","5"],
    [15198,"NA","2024-03-04 15:30:00",null,null,null,null,null,null,null,null,null,null,null,null,null,"SATNPRO1509","32.364000000000004","0.4533","5"],
    [15199,"NA","2024-03-04 15:45:00",null,null,null,null,null,null,null,null,null,null,null,null,null,"SATNPRO1509","32.32","0.4527","5"],
    [15200,"NA","2024-03-04 16:00:00",null,null,null,null,null,null,null,null,null,null,null,null,null,"SATNPRO1509","32.362","0.4533","5"],
    [15201,"NA","2024-03-04 16:15:00",null,null,null,null,null,null,null,null,null,null,null,null,null,"SATNPRO1509","32.228","0.4514","5"],
    [15202,"NA","2024-03-04 16:30:00",null,null,null,null,null,null,null,null,null,null,null,null,null,"SATNPRO1509","32.18","0.45072","5"],
    [15203,"NA","2024-03-04 16:45:00",null,null,null,null,null,null,null,null,null,null,null,null,null,"SATNPRO1509","32.211999999999996","0.45118","5"],
    [15204,"NA","2024-03-04 17:00:00",null,null,null,null,null,null,null,null,null,null,null,null,null,"SATNPRO1509","32.268","0.45196","5"],
    [15205,"NA","2024-03-04 17:15:00",null,null,null,null,null,null,null,null,null,null,null,null,null,"SATNPRO1509","32.266","0.45192","5"],
    [15206,"NA","2024-03-04 17:30:00",null,null,null,null,null,null,null,null,null,null,null,null,null,"SATNPRO1509","32.216","0.45124","5"],
    [15207,"NA","2024-03-04 17:45:00",null,null,null,null,null,null,null,null,null,null,null,null,null,"SATNPRO1509","32.266","0.45194","5"],
    [15208,"NA","2024-03-04 18:00:00",null,null,null,null,null,null,null,null,null,null,null,null,null,"SATNPRO1509","32.194","0.45088","5"],
    [15209,"NA","2024-03-04 18:15:00",null,null,null,null,null,null,null,null,null,null,null,null,null,"SATNPRO1509","32.206","0.45114","5"],
    [15210,"NA","2024-03-04 18:30:00",null,null,null,null,null,null,null,null,null,null,null,null,null,"SATNPRO1509","32.156","0.45038","5"],
    [15211,"NA","2024-03-04 18:45:00",null,null,null,null,null,null,null,null,null,null,null,null,null,"SATNPRO1509","32.234","0.45154","5"],
    [15212,"NA","2024-03-04 19:00:00",null,null,null,null,null,null,null,null,null,null,null,null,null,"SATNPRO1509","32.24","0.45154","5"],
    [15213,"NA","2024-03-04 19:15:00",null,null,null,null,null,null,null,null,null,null,null,null,null,"SATNPRO1509","32.242","0.45158","5"],
    [15214,"NA","2024-03-04 19:30:00",null,null,null,null,null,null,null,null,null,null,null,null,null,"SATNPRO1509","32.17","0.45058","5"],
    [15215,"NA","2024-03-04 19:45:00",null,null,null,null,null,null,null,null,null,null,null,null,null,"SATNPRO1509","32.036","0.44872","5"],
    [15216,"NA","2024-03-04 20:00:00",null,null,null,null,null,null,null,null,null,null,null,null,null,"SATNPRO1509","31.990000000000002","0.44808","5"],
    [15217,"NA","2024-03-04 20:15:00",null,null,null,null,null,null,null,null,null,null,null,null,null,"SATNPRO1509","32.022","0.44854","5"],
    [15218,"NA","2024-03-04 20:30:00",null,null,null,null,null,null,null,null,null,null,null,null,null,"SATNPRO1509","32.102","0.44966","5"],
    [15219,"NA","2024-03-04 20:45:00",null,null,null,null,null,null,null,null,null,null,null,null,null,"SATNPRO1509","32.062","0.4491","5"],
    [15220,"NA","2024-03-04 21:00:00",null,null,null,null,null,null,null,null,null,null,null,null,null,"SATNPRO1509","32.094","0.44952","5"],
    [15221,"NA","2024-03-04 21:15:00",null,null,null,null,null,null,null,null,null,null,null,null,null,"SATNPRO1509","32.016","0.44844","5"],
    [15222,"NA","2024-03-04 21:30:00",null,null,null,null,null,null,null,null,null,null,null,null,null,"SATNPRO1509","31.976","0.4479","5"],
    [15223,"NA","2024-03-04 21:45:00",null,null,null,null,null,null,null,null,null,null,null,null,null,"SATNPRO1509","31.944","0.44742","5"],
    [15224,"NA","2024-03-04 22:00:00",null,null,null,null,null,null,null,null,null,null,null,null,null,"SATNPRO1509","31.970000000000002","0.44778","5"],
    [15225,"NA","2024-03-04 22:15:00",null,null,null,null,null,null,null,null,null,null,null,null,null,"SATNPRO1509","31.962","0.44768","5"],
    [15226,"NA","2024-03-04 22:30:00",null,null,null,null,null,null,null,null,null,null,null,null,null,"SATNPRO1509","31.742","0.4446","5"],
    [15227,"NA","2024-03-04 22:45:00",null,null,null,null,null,null,null,null,null,null,null,null,null,"SATNPRO1509","31.808","0.44554","5"],
    [15228,"NA","2024-03-04 23:00:00",null,null,null,null,null,null,null,null,null,null,null,null,null,"SATNPRO1509","31.768","0.44496","5"],
    [15229,"NA","2024-03-04 23:15:00",null,null,null,null,null,null,null,null,null,null,null,null,null,"SATNPRO1509","31.692","0.44388","5"],
    [15230,"NA","2024-03-04 23:30:00",null,null,null,null,null,null,null,null,null,null,null,null,null,"SATNPRO1509","31.764","0.44486","5"],
    [15231,"NA","2024-03-04 23:45:00",null,null,null,null,null,null,null,null,null,null,null,null,null,"SATNPRO1509","31.720000000000002","0.4443","5"],
    [15232,"NA","2024-03-05 00:00:00",null,null,null,null,null,null,null,null,null,null,null,null,null,"SATNPRO1509","31.692","0.44392","5"],
    [15233,"NA","2024-03-05 00:15:00",null,null,null,null,null,null,null,null,null,null,null,null,null,"SATNPRO1509","31.618","0.44288","5"],
    [15234,"NA","2024-03-05 00:30:00",null,null,null,null,null,null,null,null,null,null,null,null,null,"SATNPRO1509","31.718","0.44426","5"],
    [15235,"NA","2024-03-05 00:45:00",null,null,null,null,null,null,null,null,null,null,null,null,null,"SATNPRO1509","31.256","0.43776","5"],
    [15236,"NA","2024-03-05 01:00:00",null,null,null,null,null,null,null,null,null,null,null,null,null,"SATNPRO1509","31.492","0.4411","5"],
    [15237,"NA","2024-03-05 01:15:00",null,null,null,null,null,null,null,null,null,null,null,null,null,"SATNPRO1509","31.662","0.44346","5"],
    [15238,"NA","2024-03-05 01:30:00",null,null,null,null,null,null,null,null,null,null,null,null,null,"SATNPRO1509","31.622","0.44294","5"],
    [15239,"NA","2024-03-05 01:45:00",null,null,null,null,null,null,null,null,null,null,null,null,null,"SATNPRO1509","31.602","0.44266","5"],
    [15240,"NA","2024-03-05 02:00:00",null,null,null,null,null,null,null,null,null,null,null,null,null,"SATNPRO1509","31.376","0.43948","5"],
    [15241,"NA","2024-03-05 02:15:00",null,null,null,null,null,null,null,null,null,null,null,null,null,"SATNPRO1509","31.376","0.43946","5"],
    [15242,"NA","2024-03-05 02:30:00",null,null,null,null,null,null,null,null,null,null,null,null,null,"SATNPRO1509","31.72","0.4443","5"],
    [15243,"NA","2024-03-05 02:45:00",null,null,null,null,null,null,null,null,null,null,null,null,null,"SATNPRO1509","31.69","0.44386","5"],
    [15244,"NA","2024-03-05 03:00:00",null,null,null,null,null,null,null,null,null,null,null,null,null,"SATNPRO1509","31.592","0.4425","5"],
    [15245,"NA","2024-03-05 03:15:00",null,null,null,null,null,null,null,null,null,null,null,null,null,"SATNPRO1509","31.604","0.4427","5"],
    [15246,"NA","2024-03-05 03:30:00",null,null,null,null,null,null,null,null,null,null,null,null,null,"SATNPRO1509","31.596","0.44254","5"],
    [15247,"NA","2024-03-05 03:45:00",null,null,null,null,null,null,null,null,null,null,null,null,null,"SATNPRO1509","31.732","0.4445","5"],
    [15248,"NA","2024-03-05 04:00:00",null,null,null,null,null,null,null,null,null,null,null,null,null,"SATNPRO1509","31.774","0.44508","5"],
    [15249,"NA","2024-03-05 04:15:00",null,null,null,null,null,null,null,null,null,null,null,null,null,"SATNPRO1509","31.84","0.44602","5"],
    [15250,"NA","2024-03-05 04:30:00",null,null,null,null,null,null,null,null,null,null,null,null,null,"SATNPRO1509","31.81","0.44554","5"],
    [15251,"NA","2024-03-05 04:45:00",null,null,null,null,null,null,null,null,null,null,null,null,null,"SATNPRO1509","31.738","0.44456","5"],
    [15252,"NA","2024-03-05 05:00:00",null,null,null,null,null,null,null,null,null,null,null,null,null,"SATNPRO1509","31.892","0.44672","5"],
    [15253,"NA","2024-03-05 05:15:00",null,null,null,null,null,null,null,null,null,null,null,null,null,"SATNPRO1509","31.834","0.44592","5"],
    [15254,"NA","2024-03-05 05:30:00",null,null,null,null,null,null,null,null,null,null,null,null,null,"SATNPRO1509","31.942","0.4474","5"],
    [15255,"NA","2024-03-05 05:45:00",null,null,null,null,null,null,null,null,null,null,null,null,null,"SATNPRO1509","31.866","0.44636","5"],
    [15256,"NA","2024-03-05 06:00:00",null,null,null,null,null,null,null,null,null,null,null,null,null,"SATNPRO1509","31.864","0.44628","5"],
    [15257,"NA","2024-03-05 06:15:00",null,null,null,null,null,null,null,null,null,null,null,null,null,"SATNPRO1509","31.896","0.44678","5"],
    [15258,"NA","2024-03-05 06:30:00",null,null,null,null,null,null,null,null,null,null,null,null,null,"SATNPRO1509","31.93","0.4472","5"],
    [15259,"NA","2024-03-05 06:45:00",null,null,null,null,null,null,null,null,null,null,null,null,null,"SATNPRO1509","32.19","0.4509","5"],
    [15260,"NA","2024-03-05 07:00:00",null,null,null,null,null,null,null,null,null,null,null,null,null,"SATNPRO1509","32.1","0.44958","5"],
    [15261,"NA","2024-03-05 07:15:00",null,null,null,null,null,null,null,null,null,null,null,null,null,"SATNPRO1509","32.35","0.45312","5"],
    [15262,"NA","2024-03-05 07:30:00",null,null,null,null,null,null,null,null,null,null,null,null,null,"SATNPRO1509","32.396","0.45378","5"],
    [15263,"NA","2024-03-05 07:45:00",null,null,null,null,null,null,null,null,null,null,null,null,null,"SATNPRO1509","32.454","0.45458","5"],
    [15264,"NA","2024-03-05 08:00:00",null,null,null,null,null,null,null,null,null,null,null,null,null,"SATNPRO1509","32.414","0.45404","5"],
    [15265,"NA","2024-03-05 08:15:00",null,null,null,null,null,null,null,null,null,null,null,null,null,"SATNPRO1509","32.524","0.45556","5"],
    [15266,"NA","2024-03-05 08:30:00",null,null,null,null,null,null,null,null,null,null,null,null,null,"SATNPRO1509","32.448","0.45444","5"],
    [15267,"NA","2024-03-05 08:45:00",null,null,null,null,null,null,null,null,null,null,null,null,null,"SATNPRO1509","32.408","0.45392","5"],
    [15268,"NA","2024-03-05 09:00:00",null,null,null,null,null,null,null,null,null,null,null,null,null,"SATNPRO1509","32.388","0.45362","5"],
    [15269,"NA","2024-03-05 09:15:00",null,null,null,null,null,null,null,null,null,null,null,null,null,"SATNPRO1509","32.43","0.45422","5"],
    [15270,"NA","2024-03-05 09:30:00",null,null,null,null,null,null,null,null,null,null,null,null,null,"SATNPRO1509","32.391999999999996","0.45366","5"],
    [15271,"NA","2024-03-05 09:45:00",null,null,null,null,null,null,null,null,null,null,null,null,null,"SATNPRO1509","32.47","0.4548","5"],
    [15272,"NA","2024-03-05 10:00:00",null,null,null,null,null,null,null,null,null,null,null,null,null,"SATNPRO1509","32.47","0.45482","5"],
    [15273,"NA","2024-03-05 10:15:00",null,null,null,null,null,null,null,null,null,null,null,null,null,"SATNPRO1509","32.724","0.45834","5"],
    [15274,"NA","2024-03-05 10:30:00",null,null,null,null,null,null,null,null,null,null,null,null,null,"SATNPRO1509","32.776","0.45906","5"],
    [15275,"NA","2024-03-05 10:45:00",null,null,null,null,null,null,null,null,null,null,null,null,null,"SATNPRO1509","32.494","0.45512","5"],
    [15276,"NA","2024-03-05 11:00:00",null,null,null,null,null,null,null,null,null,null,null,null,null,"SATNPRO1509","32.778","0.45914","5"],
    [15277,"NA","2024-03-05 11:15:00",null,null,null,null,null,null,null,null,null,null,null,null,null,"SATNPRO1509","32.72","0.4583","5"],
    [15278,"NA","2024-03-05 11:30:00",null,null,null,null,null,null,null,null,null,null,null,null,null,"SATNPRO1509","32.856","0.4602","5"],
    [15279,"NA","2024-03-05 11:45:00",null,null,null,null,null,null,null,null,null,null,null,null,null,"SATNPRO1509","32.848","0.46008","5"],
    [15280,"NA","2024-03-05 12:00:00",null,null,null,null,null,null,null,null,null,null,null,null,null,"SATNPRO1509","32.854","0.46016","5"],
    [15281,"NA","2024-03-05 12:15:00",null,null,null,null,null,null,null,null,null,null,null,null,null,"SATNPRO1509","33.062","0.4631","5"],
    [15282,"NA","2024-03-05 12:30:00",null,null,null,null,null,null,null,null,null,null,null,null,null,"SATNPRO1509","32.814","0.4596","5"],
    [15283,"NA","2024-03-05 12:45:00",null,null,null,null,null,null,null,null,null,null,null,null,null,"SATNPRO1509","32.992","0.46212","5"],
    [15284,"NA","2024-03-05 13:00:00",null,null,null,null,null,null,null,null,null,null,null,null,null,"SATNPRO1509","33.074","0.46328","5"],
    [15285,"NA","2024-03-05 13:15:00",null,null,null,null,null,null,null,null,null,null,null,null,null,"SATNPRO1509","32.967999999999996","0.46176","5"],
    [15286,"NA","2024-03-05 13:30:00",null,null,null,null,null,null,null,null,null,null,null,null,null,"SATNPRO1509","32.962","0.46172","5"],
    [15287,"NA","2024-03-05 13:45:00",null,null,null,null,null,null,null,null,null,null,null,null,null,"SATNPRO1509","32.986000000000004","0.46202","5"],
    [15288,"NA","2024-03-05 14:00:00",null,null,null,null,null,null,null,null,null,null,null,null,null,"SATNPRO1509","33.142","0.46422","5"],
    [15289,"NA","2024-03-05 14:15:00",null,null,null,null,null,null,null,null,null,null,null,null,null,"SATNPRO1509","32.936","0.4613","5"],
    [15290,"NA","2024-03-05 14:30:00",null,null,null,null,null,null,null,null,null,null,null,null,null,"SATNPRO1509","32.980000000000004","0.46194","5"],
    [15291,"NA","2024-03-05 14:45:00",null,null,null,null,null,null,null,null,null,null,null,null,null,"SATNPRO1509","33","0.4622","5"],
    [15292,"NA","2024-03-05 15:00:00",null,null,null,null,null,null,null,null,null,null,null,null,null,"SATNPRO1509","32.928","0.46118","5"],
    [15293,"NA","2024-03-05 15:15:00",null,null,null,null,null,null,null,null,null,null,null,null,null,"SATNPRO1509","32.922","0.46114","5"],
    [15294,"NA","2024-03-05 15:30:00",null,null,null,null,null,null,null,null,null,null,null,null,null,"SATNPRO1509","32.882","0.46058","5"],
    [15295,"NA","2024-03-05 15:45:00",null,null,null,null,null,null,null,null,null,null,null,null,null,"SATNPRO1509","32.956","0.46158","5"],
    [15296,"NA","2024-03-05 16:00:00",null,null,null,null,null,null,null,null,null,null,null,null,null,"SATNPRO1509","32.878","0.4605","5"],
    [15297,"NA","2024-03-05 16:15:00",null,null,null,null,null,null,null,null,null,null,null,null,null,"SATNPRO1509","32.796","0.45934","5"],
    [15298,"NA","2024-03-05 16:30:00",null,null,null,null,null,null,null,null,null,null,null,null,null,"SATNPRO1509","32.834","0.45992","5"],
    [15299,"NA","2024-03-05 16:45:00",null,null,null,null,null,null,null,null,null,null,null,null,null,"SATNPRO1509","32.736","0.45856","5"],
    [15300,"NA","2024-03-05 17:00:00",null,null,null,null,null,null,null,null,null,null,null,null,null,"SATNPRO1509","32.65","0.45728","5"],
    [15301,"NA","2024-03-05 17:15:00",null,null,null,null,null,null,null,null,null,null,null,null,null,"SATNPRO1509","32.614000000000004","0.45684","5"],
    [15302,"NA","2024-03-05 17:30:00",null,null,null,null,null,null,null,null,null,null,null,null,null,"SATNPRO1509","32.6","0.45664","5"],
    [15303,"NA","2024-03-05 17:45:00",null,null,null,null,null,null,null,null,null,null,null,null,null,"SATNPRO1509","32.71","0.4582","5"],
    [15304,"NA","2024-03-05 18:00:00",null,null,null,null,null,null,null,null,null,null,null,null,null,"SATNPRO1509","32.71","0.45816","5"],
    [15305,"NA","2024-03-05 18:15:00",null,null,null,null,null,null,null,null,null,null,null,null,null,"SATNPRO1509","32.684","0.4578","5"],
    [15306,"NA","2024-03-05 18:30:00",null,null,null,null,null,null,null,null,null,null,null,null,null,"SATNPRO1509","32.61","0.45676","5"],
    [15307,"NA","2024-03-05 18:45:00",null,null,null,null,null,null,null,null,null,null,null,null,null,"SATNPRO1509","32.572","0.4562","5"],
    [15308,"NA","2024-03-05 19:00:00",null,null,null,null,null,null,null,null,null,null,null,null,null,"SATNPRO1509","32.576","0.45628","5"],
    [15309,"NA","2024-03-05 19:15:00",null,null,null,null,null,null,null,null,null,null,null,null,null,"SATNPRO1509","32.526","0.45558","5"],
    [15310,"NA","2024-03-05 19:30:00",null,null,null,null,null,null,null,null,null,null,null,null,null,"SATNPRO1509","32.4","0.4538","5"],
    [15311,"NA","2024-03-05 19:45:00",null,null,null,null,null,null,null,null,null,null,null,null,null,"SATNPRO1509","32.65","0.4573","5"],
    [15312,"NA","2024-03-05 20:00:00",null,null,null,null,null,null,null,null,null,null,null,null,null,"SATNPRO1509","32.592","0.4565","5"],
    [15313,"NA","2024-03-05 20:15:00",null,null,null,null,null,null,null,null,null,null,null,null,null,"SATNPRO1509","32.522","0.45554","5"],
    [15314,"NA","2024-03-05 20:30:00",null,null,null,null,null,null,null,null,null,null,null,null,null,"SATNPRO1509","32.528","0.45562","5"],
    [15315,"NA","2024-03-05 20:45:00",null,null,null,null,null,null,null,null,null,null,null,null,null,"SATNPRO1509","32.476","0.45492","5"],
    [15316,"NA","2024-03-05 21:00:00",null,null,null,null,null,null,null,null,null,null,null,null,null,"SATNPRO1509","32.494","0.45512","5"],
    [15317,"NA","2024-03-05 21:15:00",null,null,null,null,null,null,null,null,null,null,null,null,null,"SATNPRO1509","32.516","0.4554","5"],
    [15318,"NA","2024-03-05 21:30:00",null,null,null,null,null,null,null,null,null,null,null,null,null,"SATNPRO1509","32.478","0.45492","5"],
    [15319,"NA","2024-03-05 21:45:00",null,null,null,null,null,null,null,null,null,null,null,null,null,"SATNPRO1509","32.542","0.4558","5"],
    [15320,"NA","2024-03-05 22:00:00",null,null,null,null,null,null,null,null,null,null,null,null,null,"SATNPRO1509","32.468","0.45478","5"],
    [15321,"NA","2024-03-05 22:15:00",null,null,null,null,null,null,null,null,null,null,null,null,null,"SATNPRO1509","32.424","0.4541","5"],
    [15322,"NA","2024-03-05 22:30:00",null,null,null,null,null,null,null,null,null,null,null,null,null,"SATNPRO1509","32.454","0.45458","5"],
    [15323,"NA","2024-03-05 22:45:00",null,null,null,null,null,null,null,null,null,null,null,null,null,"SATNPRO1509","32.466","0.45472","5"],
    [15324,"NA","2024-03-05 23:00:00",null,null,null,null,null,null,null,null,null,null,null,null,null,"SATNPRO1509","32.512","0.45538","5"],
    [15325,"NA","2024-03-05 23:15:00",null,null,null,null,null,null,null,null,null,null,null,null,null,"SATNPRO1509","32.502","0.45524","5"],
    [15326,"NA","2024-03-05 23:30:00",null,null,null,null,null,null,null,null,null,null,null,null,null,"SATNPRO1509","32.522","0.45552","5"],
    [15327,"NA","2024-03-05 23:45:00",null,null,null,null,null,null,null,null,null,null,null,null,null,"SATNPRO1509","32.39","0.45366","5"],
    [15328,"NA","2024-03-06 00:00:00",null,null,null,null,null,null,null,null,null,null,null,null,null,"SATNPRO1509","32.36","0.45326","5"],
    [15329,"NA","2024-03-06 00:15:00",null,null,null,null,null,null,null,null,null,null,null,null,null,"SATNPRO1509","32.434","0.4543","5"],
    [15330,"NA","2024-03-06 00:30:00",null,null,null,null,null,null,null,null,null,null,null,null,null,"SATNPRO1509","32.302","0.45244","5"],
    [15331,"NA","2024-03-06 00:45:00",null,null,null,null,null,null,null,null,null,null,null,null,null,"SATNPRO1509","32.358","0.45324","5"],
    [15332,"NA","2024-03-06 01:00:00",null,null,null,null,null,null,null,null,null,null,null,null,null,"SATNPRO1509","32.298","0.45238","5"],
    [15333,"NA","2024-03-06 01:15:00",null,null,null,null,null,null,null,null,null,null,null,null,null,"SATNPRO1509","32.372","0.45346","5"],
    [15334,"NA","2024-03-06 01:30:00",null,null,null,null,null,null,null,null,null,null,null,null,null,"SATNPRO1509","32.306","0.45252","5"],
    [15335,"NA","2024-03-06 01:45:00",null,null,null,null,null,null,null,null,null,null,null,null,null,"SATNPRO1509","32.428","0.45424","5"],
    [15336,"NA","2024-03-06 02:00:00",null,null,null,null,null,null,null,null,null,null,null,null,null,"SATNPRO1509","32.444","0.45442","5"],
    [15337,"NA","2024-03-06 02:15:00",null,null,null,null,null,null,null,null,null,null,null,null,null,"SATNPRO1509","32.45","0.45452","5"],
    [15338,"NA","2024-03-06 02:30:00",null,null,null,null,null,null,null,null,null,null,null,null,null,"SATNPRO1509","32.45","0.45458","5"],
    [15339,"NA","2024-03-06 02:45:00",null,null,null,null,null,null,null,null,null,null,null,null,null,"SATNPRO1509","32.386","0.45362","5"],
    [15340,"NA","2024-03-06 03:00:00",null,null,null,null,null,null,null,null,null,null,null,null,null,"SATNPRO1509","32.47","0.4548","5"],
    [15341,"NA","2024-03-06 03:15:00",null,null,null,null,null,null,null,null,null,null,null,null,null,"SATNPRO1509","32.251999999999995","0.45176","5"],
    [15342,"NA","2024-03-06 03:30:00",null,null,null,null,null,null,null,null,null,null,null,null,null,"SATNPRO1509","32.228","0.45136","5"],
    [15343,"NA","2024-03-06 03:45:00",null,null,null,null,null,null,null,null,null,null,null,null,null,"SATNPRO1509","32.242","0.45162","5"],
    [15344,"NA","2024-03-06 04:00:00",null,null,null,null,null,null,null,null,null,null,null,null,null,"SATNPRO1509","32.17","0.45056","5"],
    [15345,"NA","2024-03-06 04:15:00",null,null,null,null,null,null,null,null,null,null,null,null,null,"SATNPRO1509","32.154","0.45036","5"],
    [15346,"NA","2024-03-06 04:30:00",null,null,null,null,null,null,null,null,null,null,null,null,null,"SATNPRO1509","32.252","0.45172","5"],
    [15347,"NA","2024-03-06 04:45:00",null,null,null,null,null,null,null,null,null,null,null,null,null,"SATNPRO1509","32.154","0.45036","5"],
    [15348,"NA","2024-03-06 05:00:00",null,null,null,null,null,null,null,null,null,null,null,null,null,"SATNPRO1509","32.178","0.45074","5"],
    [15349,"NA","2024-03-06 05:15:00",null,null,null,null,null,null,null,null,null,null,null,null,null,"SATNPRO1509","32.274","0.45204","5"],
    [15350,"NA","2024-03-06 05:30:00",null,null,null,null,null,null,null,null,null,null,null,null,null,"SATNPRO1509","32.376000000000005","0.45346","5"],
    [15351,"NA","2024-03-06 05:45:00",null,null,null,null,null,null,null,null,null,null,null,null,null,"SATNPRO1509","32.272","0.452","5"],
    [15352,"NA","2024-03-06 06:00:00",null,null,null,null,null,null,null,null,null,null,null,null,null,"SATNPRO1509","32.332","0.45288","5"],
    [15353,"NA","2024-03-06 06:15:00",null,null,null,null,null,null,null,null,null,null,null,null,null,"SATNPRO1509","32.358000000000004","0.45318","5"],
    [15354,"NA","2024-03-06 06:30:00",null,null,null,null,null,null,null,null,null,null,null,null,null,"SATNPRO1509","32.348","0.4531","5"],
    [15355,"NA","2024-03-06 06:45:00",null,null,null,null,null,null,null,null,null,null,null,null,null,"SATNPRO1509","32.49","0.45508","5"],
    [15356,"NA","2024-03-06 07:00:00",null,null,null,null,null,null,null,null,null,null,null,null,null,"SATNPRO1509","32.528","0.45564","5"],
    [15357,"NA","2024-03-06 07:15:00",null,null,null,null,null,null,null,null,null,null,null,null,null,"SATNPRO1509","32.544","0.45584","5"],
    [15358,"NA","2024-03-06 07:30:00",null,null,null,null,null,null,null,null,null,null,null,null,null,"SATNPRO1509","32.54","0.45582","5"],
    [15359,"NA","2024-03-06 07:45:00",null,null,null,null,null,null,null,null,null,null,null,null,null,"SATNPRO1509","32.572","0.45622","5"],
    [15360,"NA","2024-03-06 08:00:00",null,null,null,null,null,null,null,null,null,null,null,null,null,"SATNPRO1509","32.612","0.45678","5"],
    [15361,"NA","2024-03-06 08:15:00",null,null,null,null,null,null,null,null,null,null,null,null,null,"SATNPRO1509","32.846000000000004","0.46004","5"],
    [15362,"NA","2024-03-06 08:30:00",null,null,null,null,null,null,null,null,null,null,null,null,null,"SATNPRO1509","32.816","0.45968","5"],
    [15363,"NA","2024-03-06 08:45:00",null,null,null,null,null,null,null,null,null,null,null,null,null,"SATNPRO1509","32.826","0.45978","5"],
    [15364,"NA","2024-03-06 09:00:00",null,null,null,null,null,null,null,null,null,null,null,null,null,"SATNPRO1509","32.874","0.46042","5"],
    [15365,"NA","2024-03-06 09:15:00",null,null,null,null,null,null,null,null,null,null,null,null,null,"SATNPRO1509","32.798","0.45936","5"],
    [15366,"NA","2024-03-06 09:30:00",null,null,null,null,null,null,null,null,null,null,null,null,null,"SATNPRO1509","32.832","0.45988","5"],
    [15367,"NA","2024-03-06 09:45:00",null,null,null,null,null,null,null,null,null,null,null,null,null,"SATNPRO1509","32.926","0.4612","5"],
    [15368,"NA","2024-03-06 10:00:00",null,null,null,null,null,null,null,null,null,null,null,null,null,"SATNPRO1509","32.796","0.45938","5"],
    [15369,"NA","2024-03-06 10:15:00",null,null,null,null,null,null,null,null,null,null,null,null,null,"SATNPRO1509","32.784","0.45916","5"],
    [15370,"NA","2024-03-06 10:30:00",null,null,null,null,null,null,null,null,null,null,null,null,null,"SATNPRO1509","32.694","0.45796","5"],
    [15371,"NA","2024-03-06 10:45:00",null,null,null,null,null,null,null,null,null,null,null,null,null,"SATNPRO1509","32.806","0.4595","5"],
    [15372,"NA","2024-03-06 11:00:00",null,null,null,null,null,null,null,null,null,null,null,null,null,"SATNPRO1509","32.79","0.45928","5"],
    [15373,"NA","2024-03-06 11:15:00",null,null,null,null,null,null,null,null,null,null,null,null,null,"SATNPRO1509","32.83","0.45986","5"],
    [15374,"NA","2024-03-06 11:30:00",null,null,null,null,null,null,null,null,null,null,null,null,null,"SATNPRO1509","32.802","0.45946","5"],
    [15375,"NA","2024-03-06 11:45:00",null,null,null,null,null,null,null,null,null,null,null,null,null,"SATNPRO1509","32.638","0.45714","5"],
    [15376,"NA","2024-03-06 12:00:00",null,null,null,null,null,null,null,null,null,null,null,null,null,"SATNPRO1509","32.844","0.46004","5"],
    [15377,"NA","2024-03-06 12:15:00",null,null,null,null,null,null,null,null,null,null,null,null,null,"SATNPRO1509","32.778","0.4591","5"],
    [15378,"NA","2024-03-06 12:30:00",null,null,null,null,null,null,null,null,null,null,null,null,null,"SATNPRO1509","32.946","0.46148","5"],
    [15379,"NA","2024-03-06 12:45:00",null,null,null,null,null,null,null,null,null,null,null,null,null,"SATNPRO1509","32.984","0.46196","5"],
    [15380,"NA","2024-03-06 13:00:00",null,null,null,null,null,null,null,null,null,null,null,null,null,"SATNPRO1509","32.864","0.4603","5"],
    [15381,"NA","2024-03-06 13:15:00",null,null,null,null,null,null,null,null,null,null,null,null,null,"SATNPRO1509","32.868","0.46036","5"],
    [15382,"NA","2024-03-06 13:30:00",null,null,null,null,null,null,null,null,null,null,null,null,null,"SATNPRO1509","32.888","0.46068","5"],
    [15383,"NA","2024-03-06 13:45:00",null,null,null,null,null,null,null,null,null,null,null,null,null,"SATNPRO1509","32.938","0.46134","5"],
    [15384,"NA","2024-03-06 14:00:00",null,null,null,null,null,null,null,null,null,null,null,null,null,"SATNPRO1509","32.702","0.45806","5"],
    [15385,"NA","2024-03-06 14:15:00",null,null,null,null,null,null,null,null,null,null,null,null,null,"SATNPRO1509","32.774","0.45908","5"],
    [15386,"NA","2024-03-06 14:30:00",null,null,null,null,null,null,null,null,null,null,null,null,null,"SATNPRO1509","32.88","0.46056","5"],
    [15387,"NA","2024-03-06 14:45:00",null,null,null,null,null,null,null,null,null,null,null,null,null,"SATNPRO1509","32.896","0.46078","5"],
    [15388,"NA","2024-03-06 15:00:00",null,null,null,null,null,null,null,null,null,null,null,null,null,"SATNPRO1509","32.884","0.46058","5"],
    [15389,"NA","2024-03-06 15:15:00",null,null,null,null,null,null,null,null,null,null,null,null,null,"SATNPRO1509","32.832","0.45986","5"],
    [15390,"NA","2024-03-06 15:30:00",null,null,null,null,null,null,null,null,null,null,null,null,null,"SATNPRO1509","32.92","0.46112","5"],
    [15391,"NA","2024-03-06 15:45:00",null,null,null,null,null,null,null,null,null,null,null,null,null,"SATNPRO1509","32.838","0.45998","5"],
    [15392,"NA","2024-03-06 16:00:00",null,null,null,null,null,null,null,null,null,null,null,null,null,"SATNPRO1509","32.866","0.46034","5"],
    [15393,"NA","2024-03-06 16:15:00",null,null,null,null,null,null,null,null,null,null,null,null,null,"SATNPRO1509","32.754000000000005","0.45878","5"],
    [15394,"NA","2024-03-06 16:30:00",null,null,null,null,null,null,null,null,null,null,null,null,null,"SATNPRO1509","32.854","0.46018","5"],
    [15395,"NA","2024-03-06 16:45:00",null,null,null,null,null,null,null,null,null,null,null,null,null,"SATNPRO1509","32.694","0.45794","5"],
    [15396,"NA","2024-03-06 17:00:00",null,null,null,null,null,null,null,null,null,null,null,null,null,"SATNPRO1509","32.74","0.45862","5"],
    [15397,"NA","2024-03-06 17:15:00",null,null,null,null,null,null,null,null,null,null,null,null,null,"SATNPRO1509","32.766","0.45894","5"],
    [15398,"NA","2024-03-06 17:30:00",null,null,null,null,null,null,null,null,null,null,null,null,null,"SATNPRO1509","32.624","0.45692","5"],
    [15399,"NA","2024-03-06 17:45:00",null,null,null,null,null,null,null,null,null,null,null,null,null,"SATNPRO1509","32.774","0.4591","5"],
    [15400,"NA","2024-03-06 18:00:00",null,null,null,null,null,null,null,null,null,null,null,null,null,"SATNPRO1509","32.68","0.45774","5"],
    [15401,"NA","2024-03-06 18:15:00",null,null,null,null,null,null,null,null,null,null,null,null,null,"SATNPRO1509","32.982","0.46196","5"],
    [15402,"NA","2024-03-06 18:30:00",null,null,null,null,null,null,null,null,null,null,null,null,null,"SATNPRO1509","32.632","0.4571","5"],
    [15403,"NA","2024-03-06 18:45:00",null,null,null,null,null,null,null,null,null,null,null,null,null,"SATNPRO1509","32.56","0.4561","5"],
    [15404,"NA","2024-03-06 19:00:00",null,null,null,null,null,null,null,null,null,null,null,null,null,"SATNPRO1509","32.56","0.456","5"],
    [15405,"NA","2024-03-06 19:15:00",null,null,null,null,null,null,null,null,null,null,null,null,null,"SATNPRO1509","32.548","0.4559","5"],
    [15406,"NA","2024-03-06 19:30:00",null,null,null,null,null,null,null,null,null,null,null,null,null,"SATNPRO1509","32.706","0.45812","5"],
    [15407,"NA","2024-03-06 19:45:00",null,null,null,null,null,null,null,null,null,null,null,null,null,"SATNPRO1509","32.672","0.45764","5"],
    [15408,"NA","2024-03-06 20:00:00",null,null,null,null,null,null,null,null,null,null,null,null,null,"SATNPRO1509","32.774","0.4591","5"],
    [15409,"NA","2024-03-06 20:15:00",null,null,null,null,null,null,null,null,null,null,null,null,null,"SATNPRO1509","32.64","0.45716","5"],
    [15410,"NA","2024-03-06 20:30:00",null,null,null,null,null,null,null,null,null,null,null,null,null,"SATNPRO1509","32.722","0.45832","5"],
    [15411,"NA","2024-03-06 20:45:00",null,null,null,null,null,null,null,null,null,null,null,null,null,"SATNPRO1509","32.664","0.45752","5"],
    [15412,"NA","2024-03-06 21:00:00",null,null,null,null,null,null,null,null,null,null,null,null,null,"SATNPRO1509","32.628","0.45702","5"],
    [15413,"NA","2024-03-06 21:15:00",null,null,null,null,null,null,null,null,null,null,null,null,null,"SATNPRO1509","32.705999999999996","0.45812","5"],
    [15414,"NA","2024-03-06 21:30:00",null,null,null,null,null,null,null,null,null,null,null,null,null,"SATNPRO1509","32.616","0.45682","5"],
    [15415,"NA","2024-03-06 21:45:00",null,null,null,null,null,null,null,null,null,null,null,null,null,"SATNPRO1509","32.54","0.45578","5"],
    [15416,"NA","2024-03-06 22:00:00",null,null,null,null,null,null,null,null,null,null,null,null,null,"SATNPRO1509","32.504","0.45526","5"],
    [15417,"NA","2024-03-06 22:15:00",null,null,null,null,null,null,null,null,null,null,null,null,null,"SATNPRO1509","32.388","0.45364","5"],
    [15418,"NA","2024-03-06 22:30:00",null,null,null,null,null,null,null,null,null,null,null,null,null,"SATNPRO1509","32.238","0.45156","5"],
    [15419,"NA","2024-03-06 22:45:00",null,null,null,null,null,null,null,null,null,null,null,null,null,"SATNPRO1509","32.408","0.45394","5"],
    [15420,"NA","2024-03-06 23:00:00",null,null,null,null,null,null,null,null,null,null,null,null,null,"SATNPRO1509","32.304","0.45244","5"],
    [15421,"NA","2024-03-06 23:15:00",null,null,null,null,null,null,null,null,null,null,null,null,null,"SATNPRO1509","32.376","0.45348","5"],
    [15422,"NA","2024-03-06 23:30:00",null,null,null,null,null,null,null,null,null,null,null,null,null,"SATNPRO1509","32.114000000000004","0.4498","5"],
    [15423,"NA","2024-03-06 23:45:00",null,null,null,null,null,null,null,null,null,null,null,null,null,"SATNPRO1509","32.08","0.44934","5"],
    [15424,"NA","2024-03-07 00:00:00",null,null,null,null,null,null,null,null,null,null,null,null,null,"SATNPRO1509","32.054","0.44894","5"],
    [15425,"NA","2024-03-07 00:15:00",null,null,null,null,null,null,null,null,null,null,null,null,null,"SATNPRO1509","32.25","0.45172","5"],
    [15426,"NA","2024-03-07 00:30:00",null,null,null,null,null,null,null,null,null,null,null,null,null,"SATNPRO1509","32.274","0.45204","5"],
    [15427,"NA","2024-03-07 00:45:00",null,null,null,null,null,null,null,null,null,null,null,null,null,"SATNPRO1509","32.358000000000004","0.45326","5"],
    [15428,"NA","2024-03-07 01:00:00",null,null,null,null,null,null,null,null,null,null,null,null,null,"SATNPRO1509","32.192","0.4509","5"],
    [15429,"NA","2024-03-07 01:15:00",null,null,null,null,null,null,null,null,null,null,null,null,null,"SATNPRO1509","31.99","0.44812","5"],
    [15430,"NA","2024-03-07 01:30:00",null,null,null,null,null,null,null,null,null,null,null,null,null,"SATNPRO1509","32.138","0.45016","5"],
    [15431,"NA","2024-03-07 01:45:00",null,null,null,null,null,null,null,null,null,null,null,null,null,"SATNPRO1509","31.98","0.44792","5"],
    [15432,"NA","2024-03-07 02:00:00",null,null,null,null,null,null,null,null,null,null,null,null,null,"SATNPRO1509","32.204","0.45108","5"],
    [15433,"NA","2024-03-07 02:15:00",null,null,null,null,null,null,null,null,null,null,null,null,null,"SATNPRO1509","32.07","0.4492","5"],
    [15434,"NA","2024-03-07 02:30:00",null,null,null,null,null,null,null,null,null,null,null,null,null,"SATNPRO1509","32.052","0.44896","5"],
    [15435,"NA","2024-03-07 02:45:00",null,null,null,null,null,null,null,null,null,null,null,null,null,"SATNPRO1509","31.982","0.44796","5"],
    [15436,"NA","2024-03-07 03:00:00",null,null,null,null,null,null,null,null,null,null,null,null,null,"SATNPRO1509","31.872","0.44644","5"],
    [15437,"NA","2024-03-07 03:15:00",null,null,null,null,null,null,null,null,null,null,null,null,null,"SATNPRO1509","32.117999999999995","0.44986","5"],
    [15438,"NA","2024-03-07 03:30:00",null,null,null,null,null,null,null,null,null,null,null,null,null,"SATNPRO1509","31.764","0.4449","5"],
    [15439,"NA","2024-03-07 03:45:00",null,null,null,null,null,null,null,null,null,null,null,null,null,"SATNPRO1509","32.174","0.45066","5"],
    [15440,"NA","2024-03-07 04:00:00",null,null,null,null,null,null,null,null,null,null,null,null,null,"SATNPRO1509","32.102","0.44964","5"],
    [15441,"NA","2024-03-07 04:15:00",null,null,null,null,null,null,null,null,null,null,null,null,null,"SATNPRO1509","32.08","0.4493","5"],
    [15442,"NA","2024-03-07 04:30:00",null,null,null,null,null,null,null,null,null,null,null,null,null,"SATNPRO1509","31.99","0.4481","5"],
    [15443,"NA","2024-03-07 04:45:00",null,null,null,null,null,null,null,null,null,null,null,null,null,"SATNPRO1509","32.228","0.4514","5"],
    [15444,"NA","2024-03-07 05:00:00",null,null,null,null,null,null,null,null,null,null,null,null,null,"SATNPRO1509","32.044","0.44884","5"],
    [15445,"NA","2024-03-07 05:15:00",null,null,null,null,null,null,null,null,null,null,null,null,null,"SATNPRO1509","31.971999999999998","0.44778","5"],
    [15446,"NA","2024-03-07 05:30:00",null,null,null,null,null,null,null,null,null,null,null,null,null,"SATNPRO1509","32.042","0.44878","5"],
    [15447,"NA","2024-03-07 05:45:00",null,null,null,null,null,null,null,null,null,null,null,null,null,"SATNPRO1509","32.072","0.4492","5"],
    [15448,"NA","2024-03-07 06:00:00",null,null,null,null,null,null,null,null,null,null,null,null,null,"SATNPRO1509","32.066","0.4491","5"],
    [15449,"NA","2024-03-07 06:15:00",null,null,null,null,null,null,null,null,null,null,null,null,null,"SATNPRO1509","32.028","0.44856","5"],
    [15450,"NA","2024-03-07 06:30:00",null,null,null,null,null,null,null,null,null,null,null,null,null,"SATNPRO1509","32.066","0.44916","5"],
    [15451,"NA","2024-03-07 06:45:00",null,null,null,null,null,null,null,null,null,null,null,null,null,"SATNPRO1509","32.078","0.44934","5"],
    [15452,"NA","2024-03-07 07:00:00",null,null,null,null,null,null,null,null,null,null,null,null,null,"SATNPRO1509","32.06","0.44908","5"],
    [15453,"NA","2024-03-07 07:15:00",null,null,null,null,null,null,null,null,null,null,null,null,null,"SATNPRO1509","31.966","0.44774","5"],
    [15454,"NA","2024-03-07 07:30:00",null,null,null,null,null,null,null,null,null,null,null,null,null,"SATNPRO1509","32.146","0.45022","5"],
    [15455,"NA","2024-03-07 07:45:00",null,null,null,null,null,null,null,null,null,null,null,null,null,"SATNPRO1509","31.934","0.44726","5"],
    [15456,"NA","2024-03-07 08:00:00",null,null,null,null,null,null,null,null,null,null,null,null,null,"SATNPRO1509","31.764","0.4449","5"],
    [15457,"NA","2024-03-07 08:15:00",null,null,null,null,null,null,null,null,null,null,null,null,null,"SATNPRO1509","31.842","0.44598","5"],
    [15458,"NA","2024-03-07 08:30:00",null,null,null,null,null,null,null,null,null,null,null,null,null,"SATNPRO1509","32.138","0.45016","5"],
    [15459,"NA","2024-03-07 08:45:00",null,null,null,null,null,null,null,null,null,null,null,null,null,"SATNPRO1509","31.95","0.4475","5"],
    [15460,"NA","2024-03-07 09:00:00",null,null,null,null,null,null,null,null,null,null,null,null,null,"SATNPRO1509","32.004","0.4483","5"],
    [15461,"NA","2024-03-07 09:15:00",null,null,null,null,null,null,null,null,null,null,null,null,null,"SATNPRO1509","31.952","0.44754","5"],
    [15462,"NA","2024-03-07 09:30:00",null,null,null,null,null,null,null,null,null,null,null,null,null,"SATNPRO1509","31.942","0.44736","5"],
    [15463,"NA","2024-03-07 09:45:00",null,null,null,null,null,null,null,null,null,null,null,null,null,"SATNPRO1509","31.784","0.44518","5"],
    [15464,"NA","2024-03-07 10:00:00",null,null,null,null,null,null,null,null,null,null,null,null,null,"SATNPRO1509","31.918","0.44706","5"],
    [15465,"NA","2024-03-07 10:15:00",null,null,null,null,null,null,null,null,null,null,null,null,null,"SATNPRO1509","31.936","0.44732","5"],
    [15466,"NA","2024-03-07 10:30:00",null,null,null,null,null,null,null,null,null,null,null,null,null,"SATNPRO1509","32.062","0.44908","5"],
    [15467,"NA","2024-03-07 10:45:00",null,null,null,null,null,null,null,null,null,null,null,null,null,"SATNPRO1509","32.074","0.44928","5"],
    [15468,"NA","2024-03-07 11:00:00",null,null,null,null,null,null,null,null,null,null,null,null,null,"SATNPRO1509","32.018","0.44848","5"],
    [15469,"NA","2024-03-07 11:15:00",null,null,null,null,null,null,null,null,null,null,null,null,null,"SATNPRO1509","32.034","0.44864","5"],
    [15470,"NA","2024-03-07 11:30:00",null,null,null,null,null,null,null,null,null,null,null,null,null,"SATNPRO1509","31.946","0.44746","5"],
    [15471,"NA","2024-03-07 11:45:00",null,null,null,null,null,null,null,null,null,null,null,null,null,"SATNPRO1509","32.016","0.44848","5"],
    [15472,"NA","2024-03-07 12:00:00",null,null,null,null,null,null,null,null,null,null,null,null,null,"SATNPRO1509","32.12","0.44992","5"],
    [15473,"NA","2024-03-07 12:15:00",null,null,null,null,null,null,null,null,null,null,null,null,null,"SATNPRO1509","32.232","0.45146","5"],
    [15474,"NA","2024-03-07 12:30:00",null,null,null,null,null,null,null,null,null,null,null,null,null,"SATNPRO1509","32.168","0.4506","5"],
    [15475,"NA","2024-03-07 12:45:00",null,null,null,null,null,null,null,null,null,null,null,null,null,"SATNPRO1509","32.248","0.45164","5"],
    [15476,"NA","2024-03-07 13:00:00",null,null,null,null,null,null,null,null,null,null,null,null,null,"SATNPRO1509","32.216","0.45122","5"],
    [15477,"NA","2024-03-07 13:15:00",null,null,null,null,null,null,null,null,null,null,null,null,null,"SATNPRO1509","32.284","0.45216","5"],
    [15478,"NA","2024-03-07 13:30:00",null,null,null,null,null,null,null,null,null,null,null,null,null,"SATNPRO1509","32.422","0.45414","5"],
    [15479,"NA","2024-03-07 13:45:00",null,null,null,null,null,null,null,null,null,null,null,null,null,"SATNPRO1509","32.466","0.45474","5"],
    [15480,"NA","2024-03-07 14:00:00",null,null,null,null,null,null,null,null,null,null,null,null,null,"SATNPRO1509","32.544","0.45582","5"],
    [15481,"NA","2024-03-07 14:15:00",null,null,null,null,null,null,null,null,null,null,null,null,null,"SATNPRO1509","32.58","0.45636","5"],
    [15482,"NA","2024-03-07 14:30:00",null,null,null,null,null,null,null,null,null,null,null,null,null,"SATNPRO1509","32.696","0.45796","5"],
    [15483,"NA","2024-03-07 14:45:00",null,null,null,null,null,null,null,null,null,null,null,null,null,"SATNPRO1509","32.586","0.45638","5"],
    [15484,"NA","2024-03-07 15:00:00",null,null,null,null,null,null,null,null,null,null,null,null,null,"SATNPRO1509","32.708","0.4581","5"],
    [15485,"NA","2024-03-07 15:15:00",null,null,null,null,null,null,null,null,null,null,null,null,null,"SATNPRO1509","32.618","0.45684","5"],
    [15486,"NA","2024-03-07 15:30:00",null,null,null,null,null,null,null,null,null,null,null,null,null,"SATNPRO1509","32.686","0.4578","5"],
    [15487,"NA","2024-03-07 15:45:00",null,null,null,null,null,null,null,null,null,null,null,null,null,"SATNPRO1509","32.778","0.45912","5"],
    [15488,"NA","2024-03-07 16:00:00",null,null,null,null,null,null,null,null,null,null,null,null,null,"SATNPRO1509","32.66","0.45746","5"],
    [15489,"NA","2024-03-07 16:15:00",null,null,null,null,null,null,null,null,null,null,null,null,null,"SATNPRO1509","32.592","0.45652","5"],
    [15490,"NA","2024-03-07 16:30:00",null,null,null,null,null,null,null,null,null,null,null,null,null,"SATNPRO1509","32.706","0.45812","5"],
    [15491,"NA","2024-03-07 16:45:00",null,null,null,null,null,null,null,null,null,null,null,null,null,"SATNPRO1509","32.652","0.45736","5"],
    [15492,"NA","2024-03-07 17:00:00",null,null,null,null,null,null,null,null,null,null,null,null,null,"SATNPRO1509","32.652","0.45732","5"],
    [15493,"NA","2024-03-07 17:15:00",null,null,null,null,null,null,null,null,null,null,null,null,null,"SATNPRO1509","32.684","0.4578","5"],
    [15494,"NA","2024-03-07 17:30:00",null,null,null,null,null,null,null,null,null,null,null,null,null,"SATNPRO1509","32.63","0.45704","5"],
    [15495,"NA","2024-03-07 17:45:00",null,null,null,null,null,null,null,null,null,null,null,null,null,"SATNPRO1509","32.594","0.45656","5"],
    [15496,"NA","2024-03-07 18:00:00",null,null,null,null,null,null,null,null,null,null,null,null,null,"SATNPRO1509","32.61","0.45674","5"],
    [15497,"NA","2024-03-07 18:15:00",null,null,null,null,null,null,null,null,null,null,null,null,null,"SATNPRO1509","32.626","0.457","5"],
    [15498,"NA","2024-03-07 18:30:00",null,null,null,null,null,null,null,null,null,null,null,null,null,"SATNPRO1509","32.556","0.45602","5"],
    [15499,"NA","2024-03-07 18:45:00",null,null,null,null,null,null,null,null,null,null,null,null,null,"SATNPRO1509","32.63","0.45704","5"],
    [15500,"NA","2024-03-07 19:00:00",null,null,null,null,null,null,null,null,null,null,null,null,null,"SATNPRO1509","32.656","0.4574","5"],
    [15501,"NA","2024-03-07 19:15:00",null,null,null,null,null,null,null,null,null,null,null,null,null,"SATNPRO1509","32.53","0.45566","5"],
    [15502,"NA","2024-03-07 19:30:00",null,null,null,null,null,null,null,null,null,null,null,null,null,"SATNPRO1509","32.896","0.46078","5"],
    [15503,"NA","2024-03-07 19:45:00",null,null,null,null,null,null,null,null,null,null,null,null,null,"SATNPRO1509","32.548","0.45588","5"],
    [15504,"NA","2024-03-07 20:00:00",null,null,null,null,null,null,null,null,null,null,null,null,null,"SATNPRO1509","32.55","0.4559","5"],
    [15505,"NA","2024-03-07 20:15:00",null,null,null,null,null,null,null,null,null,null,null,null,null,"SATNPRO1509","32.408","0.45392","5"],
    [15506,"NA","2024-03-07 20:30:00",null,null,null,null,null,null,null,null,null,null,null,null,null,"SATNPRO1509","32.388","0.45362","5"],
    [15507,"NA","2024-03-07 20:45:00",null,null,null,null,null,null,null,null,null,null,null,null,null,"SATNPRO1509","32.346000000000004","0.45308","5"],
    [15508,"NA","2024-03-07 21:00:00",null,null,null,null,null,null,null,null,null,null,null,null,null,"SATNPRO1509","32.476","0.45484","5"],
    [15509,"NA","2024-03-07 21:15:00",null,null,null,null,null,null,null,null,null,null,null,null,null,"SATNPRO1509","32.368","0.45336","5"],
    [15510,"NA","2024-03-07 21:30:00",null,null,null,null,null,null,null,null,null,null,null,null,null,"SATNPRO1509","32.518","0.45546","5"],
    [15511,"NA","2024-03-07 21:45:00",null,null,null,null,null,null,null,null,null,null,null,null,null,"SATNPRO1509","32.432","0.4543","5"],
    [15512,"NA","2024-03-07 22:00:00",null,null,null,null,null,null,null,null,null,null,null,null,null,"SATNPRO1509","32.396","0.45374","5"],
    [15513,"NA","2024-03-07 22:15:00",null,null,null,null,null,null,null,null,null,null,null,null,null,"SATNPRO1509","32.124","0.44996","5"],
    [15514,"NA","2024-03-07 22:30:00",null,null,null,null,null,null,null,null,null,null,null,null,null,"SATNPRO1509","32.126","0.44996","5"],
    [15515,"NA","2024-03-07 22:45:00",null,null,null,null,null,null,null,null,null,null,null,null,null,"SATNPRO1509","32.088","0.44946","5"],
    [15516,"NA","2024-03-07 23:00:00",null,null,null,null,null,null,null,null,null,null,null,null,null,"SATNPRO1509","32.098","0.44956","5"],
    [15517,"NA","2024-03-07 23:15:00",null,null,null,null,null,null,null,null,null,null,null,null,null,"SATNPRO1509","32.152","0.45036","5"],
    [15518,"NA","2024-03-07 23:30:00",null,null,null,null,null,null,null,null,null,null,null,null,null,"SATNPRO1509","32.120000000000005","0.44992","5"],
    [15519,"NA","2024-03-07 23:45:00",null,null,null,null,null,null,null,null,null,null,null,null,null,"SATNPRO1509","31.984","0.44796","5"],
    [15520,"NA","2024-03-08 00:00:00",null,null,null,null,null,null,null,null,null,null,null,null,null,"SATNPRO1509","32.001999999999995","0.44826","5"],
    [15521,"NA","2024-03-08 00:15:00",null,null,null,null,null,null,null,null,null,null,null,null,null,"SATNPRO1509","31.894","0.44672","5"],
    [15522,"NA","2024-03-08 00:30:00",null,null,null,null,null,null,null,null,null,null,null,null,null,"SATNPRO1509","31.934","0.44734","5"],
    [15523,"NA","2024-03-08 00:45:00",null,null,null,null,null,null,null,null,null,null,null,null,null,"SATNPRO1509","32.002","0.44824","5"],
    [15524,"NA","2024-03-08 01:00:00",null,null,null,null,null,null,null,null,null,null,null,null,null,"SATNPRO1509","31.846","0.44606","5"],
    [15525,"NA","2024-03-08 01:15:00",null,null,null,null,null,null,null,null,null,null,null,null,null,"SATNPRO1509","31.938","0.44736","5"],
    [15526,"NA","2024-03-08 01:30:00",null,null,null,null,null,null,null,null,null,null,null,null,null,"SATNPRO1509","32.002","0.44824","5"],
    [15527,"NA","2024-03-08 01:45:00",null,null,null,null,null,null,null,null,null,null,null,null,null,"SATNPRO1509","31.98","0.44794","5"],
    [15528,"NA","2024-03-08 02:00:00",null,null,null,null,null,null,null,null,null,null,null,null,null,"SATNPRO1509","31.939999999999998","0.44736","5"],
    [15529,"NA","2024-03-08 02:15:00",null,null,null,null,null,null,null,null,null,null,null,null,null,"SATNPRO1509","31.978","0.44788","5"],
    [15530,"NA","2024-03-08 02:30:00",null,null,null,null,null,null,null,null,null,null,null,null,null,"SATNPRO1509","32.03","0.44866","5"],
    [15531,"NA","2024-03-08 02:45:00",null,null,null,null,null,null,null,null,null,null,null,null,null,"SATNPRO1509","31.942","0.4474","5"],
    [15532,"NA","2024-03-08 03:00:00",null,null,null,null,null,null,null,null,null,null,null,null,null,"SATNPRO1509","31.904","0.4469","5"],
    [15533,"NA","2024-03-08 03:15:00",null,null,null,null,null,null,null,null,null,null,null,null,null,"SATNPRO1509","31.916","0.44702","5"],
    [15534,"NA","2024-03-08 03:30:00",null,null,null,null,null,null,null,null,null,null,null,null,null,"SATNPRO1509","31.976000000000003","0.44788","5"],
    [15535,"NA","2024-03-08 03:45:00",null,null,null,null,null,null,null,null,null,null,null,null,null,"SATNPRO1509","31.846","0.44606","5"],
    [15536,"NA","2024-03-08 04:00:00",null,null,null,null,null,null,null,null,null,null,null,null,null,"SATNPRO1509","31.856","0.44616","5"],
    [15537,"NA","2024-03-08 04:15:00",null,null,null,null,null,null,null,null,null,null,null,null,null,"SATNPRO1509","31.854","0.44614","5"],
    [15538,"NA","2024-03-08 04:30:00",null,null,null,null,null,null,null,null,null,null,null,null,null,"SATNPRO1509","31.982","0.44796","5"],
    [15539,"NA","2024-03-08 04:45:00",null,null,null,null,null,null,null,null,null,null,null,null,null,"SATNPRO1509","31.842000000000002","0.446","5"],
    [15540,"NA","2024-03-08 05:00:00",null,null,null,null,null,null,null,null,null,null,null,null,null,"SATNPRO1509","31.91","0.44698","5"],
    [15541,"NA","2024-03-08 05:15:00",null,null,null,null,null,null,null,null,null,null,null,null,null,"SATNPRO1509","31.886","0.4466","5"],
    [15542,"NA","2024-03-08 05:30:00",null,null,null,null,null,null,null,null,null,null,null,null,null,"SATNPRO1509","32.204","0.45106","5"],
    [15543,"NA","2024-03-08 05:45:00",null,null,null,null,null,null,null,null,null,null,null,null,null,"SATNPRO1509","32.052","0.44892","5"],
    [15544,"NA","2024-03-08 06:00:00",null,null,null,null,null,null,null,null,null,null,null,null,null,"SATNPRO1509","31.986","0.44802","5"],
    [15545,"NA","2024-03-08 06:15:00",null,null,null,null,null,null,null,null,null,null,null,null,null,"SATNPRO1509","31.96","0.44766","5"],
    [15546,"NA","2024-03-08 06:30:00",null,null,null,null,null,null,null,null,null,null,null,null,null,"SATNPRO1509","31.73","0.44446","5"],
    [15547,"NA","2024-03-08 06:45:00",null,null,null,null,null,null,null,null,null,null,null,null,null,"SATNPRO1509","31.684","0.44378","5"],
    [15548,"NA","2024-03-08 07:00:00",null,null,null,null,null,null,null,null,null,null,null,null,null,"SATNPRO1509","31.712","0.44418","5"],
    [15549,"NA","2024-03-08 07:15:00",null,null,null,null,null,null,null,null,null,null,null,null,null,"SATNPRO1509","31.796","0.44534","5"],
    [15550,"NA","2024-03-08 07:30:00",null,null,null,null,null,null,null,null,null,null,null,null,null,"SATNPRO1509","31.766000000000002","0.44494","5"],
    [15551,"NA","2024-03-08 07:45:00",null,null,null,null,null,null,null,null,null,null,null,null,null,"SATNPRO1509","31.924","0.44714","5"],
    [15552,"NA","2024-03-08 08:00:00",null,null,null,null,null,null,null,null,null,null,null,null,null,"SATNPRO1509","31.984","0.448","5"],
    [15553,"NA","2024-03-08 08:15:00",null,null,null,null,null,null,null,null,null,null,null,null,null,"SATNPRO1509","31.992","0.4481","5"],
    [15554,"NA","2024-03-08 08:30:00",null,null,null,null,null,null,null,null,null,null,null,null,null,"SATNPRO1509","32.182","0.45076","5"],
    [15555,"NA","2024-03-08 08:45:00",null,null,null,null,null,null,null,null,null,null,null,null,null,"SATNPRO1509","32.026","0.4486","5"],
    [15556,"NA","2024-03-08 09:00:00",null,null,null,null,null,null,null,null,null,null,null,null,null,"SATNPRO1509","32.136","0.45014","5"],
    [15557,"NA","2024-03-08 09:15:00",null,null,null,null,null,null,null,null,null,null,null,null,null,"SATNPRO1509","32.24","0.4516","5"],
    [15558,"NA","2024-03-08 09:30:00",null,null,null,null,null,null,null,null,null,null,null,null,null,"SATNPRO1509","32.036","0.44872","5"],
    [15559,"NA","2024-03-08 09:45:00",null,null,null,null,null,null,null,null,null,null,null,null,null,"SATNPRO1509","31.66","0.44342","5"],
    [15560,"NA","2024-03-08 10:00:00",null,null,null,null,null,null,null,null,null,null,null,null,null,"SATNPRO1509","31.63","0.44304","5"],
    [15561,"NA","2024-03-08 10:15:00",null,null,null,null,null,null,null,null,null,null,null,null,null,"SATNPRO1509","31.666","0.44354","5"],
    [15562,"NA","2024-03-08 10:30:00",null,null,null,null,null,null,null,null,null,null,null,null,null,"SATNPRO1509","31.536","0.44174","5"],
    [15563,"NA","2024-03-08 10:45:00",null,null,null,null,null,null,null,null,null,null,null,null,null,"SATNPRO1509","31.456","0.44064","5"],
    [15564,"NA","2024-03-08 11:00:00",null,null,null,null,null,null,null,null,null,null,null,null,null,"SATNPRO1509","31.382","0.43956","5"],
    [15565,"NA","2024-03-08 11:15:00",null,null,null,null,null,null,null,null,null,null,null,null,null,"SATNPRO1509","31.432","0.44028","5"],
    [15566,"NA","2024-03-08 11:30:00",null,null,null,null,null,null,null,null,null,null,null,null,null,"SATNPRO1509","31.554","0.44196","5"],
    [15567,"NA","2024-03-08 11:45:00",null,null,null,null,null,null,null,null,null,null,null,null,null,"SATNPRO1509","31.636","0.44312","5"],
    [15568,"NA","2024-03-08 12:00:00",null,null,null,null,null,null,null,null,null,null,null,null,null,"SATNPRO1509","31.732","0.44442","5"],
    [15569,"NA","2024-03-08 12:15:00",null,null,null,null,null,null,null,null,null,null,null,null,null,"SATNPRO1509","31.578","0.44234","5"],
    [15570,"NA","2024-03-08 12:30:00",null,null,null,null,null,null,null,null,null,null,null,null,null,"SATNPRO1509","31.535999999999998","0.44176","5"],
    [15571,"NA","2024-03-08 12:45:00",null,null,null,null,null,null,null,null,null,null,null,null,null,"SATNPRO1509","31.468","0.44082","5"],
    [15572,"NA","2024-03-08 13:00:00",null,null,null,null,null,null,null,null,null,null,null,null,null,"SATNPRO1509","31.454","0.44056","5"],
    [15573,"NA","2024-03-08 13:15:00",null,null,null,null,null,null,null,null,null,null,null,null,null,"SATNPRO1509","31.494","0.44116","5"],
    [15574,"NA","2024-03-08 13:30:00",null,null,null,null,null,null,null,null,null,null,null,null,null,"SATNPRO1509","31.580000000000002","0.44238","5"],
    [15575,"NA","2024-03-08 13:45:00",null,null,null,null,null,null,null,null,null,null,null,null,null,"SATNPRO1509","31.618","0.44288","5"],
    [15576,"NA","2024-03-08 14:00:00",null,null,null,null,null,null,null,null,null,null,null,null,null,"SATNPRO1509","31.758","0.44484","5"],
    [15577,"NA","2024-03-08 14:15:00",null,null,null,null,null,null,null,null,null,null,null,null,null,"SATNPRO1509","31.862","0.4463","5"],
    [15578,"NA","2024-03-08 14:30:00",null,null,null,null,null,null,null,null,null,null,null,null,null,"SATNPRO1509","31.896","0.44678","5"],
    [15579,"NA","2024-03-08 14:45:00",null,null,null,null,null,null,null,null,null,null,null,null,null,"SATNPRO1509","32.002","0.44826","5"],
    [15580,"NA","2024-03-08 15:00:00",null,null,null,null,null,null,null,null,null,null,null,null,null,"SATNPRO1509","31.922","0.44714","5"],
    [15581,"NA","2024-03-08 15:15:00",null,null,null,null,null,null,null,null,null,null,null,null,null,"SATNPRO1509","31.914","0.44706","5"],
    [15582,"NA","2024-03-08 15:30:00",null,null,null,null,null,null,null,null,null,null,null,null,null,"SATNPRO1509","31.919999999999998","0.4471","5"],
    [15583,"NA","2024-03-08 15:45:00",null,null,null,null,null,null,null,null,null,null,null,null,null,"SATNPRO1509","31.828","0.44584","5"],
    [15584,"NA","2024-03-08 16:00:00",null,null,null,null,null,null,null,null,null,null,null,null,null,"SATNPRO1509","31.882","0.44656","5"],
    [15585,"NA","2024-03-08 16:15:00",null,null,null,null,null,null,null,null,null,null,null,null,null,"SATNPRO1509","31.728","0.44442","5"],
    [15586,"NA","2024-03-08 16:30:00",null,null,null,null,null,null,null,null,null,null,null,null,null,"SATNPRO1509","31.948","0.44748","5"],
    [15587,"NA","2024-03-08 16:45:00",null,null,null,null,null,null,null,null,null,null,null,null,null,"SATNPRO1509","31.82","0.44566","5"],
    [15588,"NA","2024-03-08 17:00:00",null,null,null,null,null,null,null,null,null,null,null,null,null,"SATNPRO1509","31.87","0.44638","5"],
    [15589,"NA","2024-03-08 17:15:00",null,null,null,null,null,null,null,null,null,null,null,null,null,"SATNPRO1509","31.88","0.44654","5"],
    [15590,"NA","2024-03-08 17:30:00",null,null,null,null,null,null,null,null,null,null,null,null,null,"SATNPRO1509","31.888","0.4467","5"],
    [15591,"NA","2024-03-08 17:45:00",null,null,null,null,null,null,null,null,null,null,null,null,null,"SATNPRO1509","31.728","0.4444","5"],
    [15592,"NA","2024-03-08 18:00:00",null,null,null,null,null,null,null,null,null,null,null,null,null,"SATNPRO1509","31.854000000000003","0.44612","5"],
    [15593,"NA","2024-03-08 18:15:00",null,null,null,null,null,null,null,null,null,null,null,null,null,"SATNPRO1509","31.646","0.44324","5"],
    [15594,"NA","2024-03-08 18:30:00",null,null,null,null,null,null,null,null,null,null,null,null,null,"SATNPRO1509","31.334","0.43894","5"],
    [15595,"NA","2024-03-08 18:45:00",null,null,null,null,null,null,null,null,null,null,null,null,null,"SATNPRO1509","31.524","0.44152","5"],
    [15596,"NA","2024-03-08 19:00:00",null,null,null,null,null,null,null,null,null,null,null,null,null,"SATNPRO1509","31.678","0.44372","5"],
    [15597,"NA","2024-03-08 19:15:00",null,null,null,null,null,null,null,null,null,null,null,null,null,"SATNPRO1509","31.926","0.44718","5"],
    [15598,"NA","2024-03-08 19:30:00",null,null,null,null,null,null,null,null,null,null,null,null,null,"SATNPRO1509","32.07","0.44924","5"],
    [15599,"NA","2024-03-08 19:45:00",null,null,null,null,null,null,null,null,null,null,null,null,null,"SATNPRO1509","31.966","0.44774","5"],
    [15600,"NA","2024-03-08 20:00:00",null,null,null,null,null,null,null,null,null,null,null,null,null,"SATNPRO1509","31.732","0.44446","5"],
    [15601,"NA","2024-03-08 20:15:00",null,null,null,null,null,null,null,null,null,null,null,null,null,"SATNPRO1509","31.664","0.44352","5"],
    [15602,"NA","2024-03-08 20:30:00",null,null,null,null,null,null,null,null,null,null,null,null,null,"SATNPRO1509","31.816","0.44564","5"],
    [15603,"NA","2024-03-08 20:45:00",null,null,null,null,null,null,null,null,null,null,null,null,null,"SATNPRO1509","31.824","0.44578","5"],
    [15604,"NA","2024-03-08 21:00:00",null,null,null,null,null,null,null,null,null,null,null,null,null,"SATNPRO1509","31.82","0.4457","5"],
    [15605,"NA","2024-03-08 21:15:00",null,null,null,null,null,null,null,null,null,null,null,null,null,"SATNPRO1509","31.95","0.4475","5"],
    [15606,"NA","2024-03-08 21:30:00",null,null,null,null,null,null,null,null,null,null,null,null,null,"SATNPRO1509","31.786","0.4452","5"],
    [15607,"NA","2024-03-08 21:45:00",null,null,null,null,null,null,null,null,null,null,null,null,null,"SATNPRO1509","31.846","0.44604","5"],
    [15608,"NA","2024-03-08 22:00:00",null,null,null,null,null,null,null,null,null,null,null,null,null,"SATNPRO1509","31.722","0.4443","5"],
    [15609,"NA","2024-03-08 22:15:00",null,null,null,null,null,null,null,null,null,null,null,null,null,"SATNPRO1509","31.756","0.44478","5"],
    [15610,"NA","2024-03-08 22:30:00",null,null,null,null,null,null,null,null,null,null,null,null,null,"SATNPRO1509","31.698","0.44398","5"],
    [15611,"NA","2024-03-08 22:45:00",null,null,null,null,null,null,null,null,null,null,null,null,null,"SATNPRO1509","31.604000000000003","0.44264","5"],
    [15612,"NA","2024-03-08 23:00:00",null,null,null,null,null,null,null,null,null,null,null,null,null,"SATNPRO1509","31.654","0.44336","5"],
    [15613,"NA","2024-03-08 23:15:00",null,null,null,null,null,null,null,null,null,null,null,null,null,"SATNPRO1509","31.618","0.44286","5"],
    [15614,"NA","2024-03-08 23:30:00",null,null,null,null,null,null,null,null,null,null,null,null,null,"SATNPRO1509","31.654","0.44336","5"],
    [15615,"NA","2024-03-08 23:45:00",null,null,null,null,null,null,null,null,null,null,null,null,null,"SATNPRO1509","31.596","0.44256","5"],
    [15616,"NA","2024-03-09 00:00:00",null,null,null,null,null,null,null,null,null,null,null,null,null,"SATNPRO1509","31.599999999999998","0.44264","5"],
    [15617,"NA","2024-03-09 00:15:00",null,null,null,null,null,null,null,null,null,null,null,null,null,"SATNPRO1509","31.666","0.44354","5"],
    [15618,"NA","2024-03-09 00:30:00",null,null,null,null,null,null,null,null,null,null,null,null,null,"SATNPRO1509","31.562","0.4421","5"],
    [15619,"NA","2024-03-09 00:45:00",null,null,null,null,null,null,null,null,null,null,null,null,null,"SATNPRO1509","31.44","0.44038","5"],
    [15620,"NA","2024-03-09 01:00:00",null,null,null,null,null,null,null,null,null,null,null,null,null,"SATNPRO1509","31.496","0.44114","5"],
    [15621,"NA","2024-03-09 01:15:00",null,null,null,null,null,null,null,null,null,null,null,null,null,"SATNPRO1509","31.492","0.44108","5"],
    [15622,"NA","2024-03-09 01:30:00",null,null,null,null,null,null,null,null,null,null,null,null,null,"SATNPRO1509","31.384","0.43958","5"],
    [15623,"NA","2024-03-09 01:45:00",null,null,null,null,null,null,null,null,null,null,null,null,null,"SATNPRO1509","31.564","0.44212","5"],
    [15624,"NA","2024-03-09 02:00:00",null,null,null,null,null,null,null,null,null,null,null,null,null,"SATNPRO1509","31.56","0.44206","5"],
    [15625,"NA","2024-03-09 02:15:00",null,null,null,null,null,null,null,null,null,null,null,null,null,"SATNPRO1509","31.464","0.44072","5"],
    [15626,"NA","2024-03-09 02:30:00",null,null,null,null,null,null,null,null,null,null,null,null,null,"SATNPRO1509","31.382","0.43956","5"],
    [15627,"NA","2024-03-09 02:45:00",null,null,null,null,null,null,null,null,null,null,null,null,null,"SATNPRO1509","31.372","0.4394","5"],
    [15628,"NA","2024-03-09 03:00:00",null,null,null,null,null,null,null,null,null,null,null,null,null,"SATNPRO1509","31.474","0.4408","5"],
    [15629,"NA","2024-03-09 03:15:00",null,null,null,null,null,null,null,null,null,null,null,null,null,"SATNPRO1509","31.364","0.43928","5"],
    [15630,"NA","2024-03-09 03:30:00",null,null,null,null,null,null,null,null,null,null,null,null,null,"SATNPRO1509","31.394","0.43974","5"],
    [15631,"NA","2024-03-09 03:45:00",null,null,null,null,null,null,null,null,null,null,null,null,null,"SATNPRO1509","31.288","0.43826","5"],
    [15632,"NA","2024-03-09 04:00:00",null,null,null,null,null,null,null,null,null,null,null,null,null,"SATNPRO1509","31.218","0.43726","5"],
    [15633,"NA","2024-03-09 04:15:00",null,null,null,null,null,null,null,null,null,null,null,null,null,"SATNPRO1509","31.268","0.43798","5"],
    [15634,"NA","2024-03-09 04:30:00",null,null,null,null,null,null,null,null,null,null,null,null,null,"SATNPRO1509","31.318","0.43864","5"],
    [15635,"NA","2024-03-09 04:45:00",null,null,null,null,null,null,null,null,null,null,null,null,null,"SATNPRO1509","31.386","0.43962","5"],
    [15636,"NA","2024-03-09 05:00:00",null,null,null,null,null,null,null,null,null,null,null,null,null,"SATNPRO1509","31.382","0.43956","5"],
    [15637,"NA","2024-03-09 05:15:00",null,null,null,null,null,null,null,null,null,null,null,null,null,"SATNPRO1509","31.466","0.44076","5"],
    [15638,"NA","2024-03-09 05:30:00",null,null,null,null,null,null,null,null,null,null,null,null,null,"SATNPRO1509","31.44","0.44038","5"],
    [15639,"NA","2024-03-09 05:45:00",null,null,null,null,null,null,null,null,null,null,null,null,null,"SATNPRO1509","31.488","0.44106","5"],
    [15640,"NA","2024-03-09 06:00:00",null,null,null,null,null,null,null,null,null,null,null,null,null,"SATNPRO1509","31.458","0.44062","5"],
    [15641,"NA","2024-03-09 06:15:00",null,null,null,null,null,null,null,null,null,null,null,null,null,"SATNPRO1509","31.434","0.4403","5"],
    [15642,"NA","2024-03-09 06:30:00",null,null,null,null,null,null,null,null,null,null,null,null,null,"SATNPRO1509","31.45","0.44052","5"],
    [15643,"NA","2024-03-09 06:45:00",null,null,null,null,null,null,null,null,null,null,null,null,null,"SATNPRO1509","31.544","0.44182","5"],
    [15644,"NA","2024-03-09 07:00:00",null,null,null,null,null,null,null,null,null,null,null,null,null,"SATNPRO1509","31.454","0.44058","5"],
    [15645,"NA","2024-03-09 07:15:00",null,null,null,null,null,null,null,null,null,null,null,null,null,"SATNPRO1509","31.44","0.44038","5"],
    [15646,"NA","2024-03-09 07:30:00",null,null,null,null,null,null,null,null,null,null,null,null,null,"SATNPRO1509","31.464","0.44072","5"],
    [15647,"NA","2024-03-09 07:45:00",null,null,null,null,null,null,null,null,null,null,null,null,null,"SATNPRO1509","31.470000000000002","0.4408","5"],
    [15648,"NA","2024-03-09 08:00:00",null,null,null,null,null,null,null,null,null,null,null,null,null,"SATNPRO1509","31.560000000000002","0.44206","5"],
    [15649,"NA","2024-03-09 08:15:00",null,null,null,null,null,null,null,null,null,null,null,null,null,"SATNPRO1509","31.532","0.44166","5"],
    [15650,"NA","2024-03-09 08:30:00",null,null,null,null,null,null,null,null,null,null,null,null,null,"SATNPRO1509","31.532","0.44166","5"],
    [15651,"NA","2024-03-09 08:45:00",null,null,null,null,null,null,null,null,null,null,null,null,null,"SATNPRO1509","31.646","0.4432","5"],
    [15652,"NA","2024-03-09 09:00:00",null,null,null,null,null,null,null,null,null,null,null,null,null,"SATNPRO1509","31.67","0.44358","5"],
    [15653,"NA","2024-03-09 09:15:00",null,null,null,null,null,null,null,null,null,null,null,null,null,"SATNPRO1509","31.528","0.44162","5"],
    [15654,"NA","2024-03-09 09:30:00",null,null,null,null,null,null,null,null,null,null,null,null,null,"SATNPRO1509","31.498","0.4412","5"],
    [15655,"NA","2024-03-09 09:45:00",null,null,null,null,null,null,null,null,null,null,null,null,null,"SATNPRO1509","31.580000000000002","0.44234","5"],
    [15656,"NA","2024-03-09 10:00:00",null,null,null,null,null,null,null,null,null,null,null,null,null,"SATNPRO1509","31.596","0.44256","5"],
    [15657,"NA","2024-03-09 10:15:00",null,null,null,null,null,null,null,null,null,null,null,null,null,"SATNPRO1509","31.584","0.44238","5"],
    [15658,"NA","2024-03-09 10:30:00",null,null,null,null,null,null,null,null,null,null,null,null,null,"SATNPRO1509","31.638","0.44316","5"],
    [15659,"NA","2024-03-09 10:45:00",null,null,null,null,null,null,null,null,null,null,null,null,null,"SATNPRO1509","31.588","0.44246","5"],
    [15660,"NA","2024-03-09 11:00:00",null,null,null,null,null,null,null,null,null,null,null,null,null,"SATNPRO1509","31.658","0.44346","5"],
    [15661,"NA","2024-03-09 11:15:00",null,null,null,null,null,null,null,null,null,null,null,null,null,"SATNPRO1509","31.7","0.444","5"],
    [15662,"NA","2024-03-09 11:30:00",null,null,null,null,null,null,null,null,null,null,null,null,null,"SATNPRO1509","31.632","0.44306","5"],
    [15663,"NA","2024-03-09 11:45:00",null,null,null,null,null,null,null,null,null,null,null,null,null,"SATNPRO1509","31.668","0.44358","5"],
    [15664,"NA","2024-03-09 12:00:00",null,null,null,null,null,null,null,null,null,null,null,null,null,"SATNPRO1509","31.574","0.44224","5"],
    [15665,"NA","2024-03-09 12:15:00",null,null,null,null,null,null,null,null,null,null,null,null,null,"SATNPRO1509","31.66","0.44352","5"],
    [15666,"NA","2024-03-09 12:30:00",null,null,null,null,null,null,null,null,null,null,null,null,null,"SATNPRO1509","31.722","0.4443","5"],
    [15667,"NA","2024-03-09 12:45:00",null,null,null,null,null,null,null,null,null,null,null,null,null,"SATNPRO1509","31.618","0.44288","5"],
    [15668,"NA","2024-03-09 13:00:00",null,null,null,null,null,null,null,null,null,null,null,null,null,"SATNPRO1509","31.67","0.44358","5"],
    [15669,"NA","2024-03-09 13:15:00",null,null,null,null,null,null,null,null,null,null,null,null,null,"SATNPRO1509","31.68","0.44378","5"],
    [15670,"NA","2024-03-09 13:30:00",null,null,null,null,null,null,null,null,null,null,null,null,null,"SATNPRO1509","31.73","0.4444","5"],
    [15671,"NA","2024-03-09 13:45:00",null,null,null,null,null,null,null,null,null,null,null,null,null,"SATNPRO1509","31.732","0.44446","5"],
    [15672,"NA","2024-03-09 14:00:00",null,null,null,null,null,null,null,null,null,null,null,null,null,"SATNPRO1509","31.7","0.444","5"],
    [15673,"NA","2024-03-09 14:15:00",null,null,null,null,null,null,null,null,null,null,null,null,null,"SATNPRO1509","31.718","0.44428","5"],
    [15674,"NA","2024-03-09 14:30:00",null,null,null,null,null,null,null,null,null,null,null,null,null,"SATNPRO1509","31.728","0.4444","5"],
    [15675,"NA","2024-03-09 14:45:00",null,null,null,null,null,null,null,null,null,null,null,null,null,"SATNPRO1509","31.834","0.4459","5"],
    [15676,"NA","2024-03-09 15:00:00",null,null,null,null,null,null,null,null,null,null,null,null,null,"SATNPRO1509","31.726","0.4444","5"],
    [15677,"NA","2024-03-09 15:15:00",null,null,null,null,null,null,null,null,null,null,null,null,null,"SATNPRO1509","31.806","0.44556","5"],
    [15678,"NA","2024-03-09 15:30:00",null,null,null,null,null,null,null,null,null,null,null,null,null,"SATNPRO1509","31.73","0.44448","5"],
    [15679,"NA","2024-03-09 15:45:00",null,null,null,null,null,null,null,null,null,null,null,null,null,"SATNPRO1509","31.686","0.44378","5"],
    [15680,"NA","2024-03-09 16:00:00",null,null,null,null,null,null,null,null,null,null,null,null,null,"SATNPRO1509","31.63","0.44304","5"],
    [15681,"NA","2024-03-09 16:15:00",null,null,null,null,null,null,null,null,null,null,null,null,null,"SATNPRO1509","31.724","0.44436","5"],
    [15682,"NA","2024-03-09 16:30:00",null,null,null,null,null,null,null,null,null,null,null,null,null,"SATNPRO1509","31.77","0.445","5"],
    [15683,"NA","2024-03-09 16:45:00",null,null,null,null,null,null,null,null,null,null,null,null,null,"SATNPRO1509","31.832","0.4459","5"],
    [15684,"NA","2024-03-09 17:00:00",null,null,null,null,null,null,null,null,null,null,null,null,null,"SATNPRO1509","31.740000000000002","0.4446","5"],
    [15685,"NA","2024-03-09 17:15:00",null,null,null,null,null,null,null,null,null,null,null,null,null,"SATNPRO1509","31.762","0.4449","5"],
    [15686,"NA","2024-03-09 17:30:00",null,null,null,null,null,null,null,null,null,null,null,null,null,"SATNPRO1509","31.88","0.44654","5"],
    [15687,"NA","2024-03-09 17:45:00",null,null,null,null,null,null,null,null,null,null,null,null,null,"SATNPRO1509","31.932","0.44726","5"],
    [15688,"NA","2024-03-09 18:00:00",null,null,null,null,null,null,null,null,null,null,null,null,null,"SATNPRO1509","31.876","0.44652","5"],
    [15689,"NA","2024-03-09 18:15:00",null,null,null,null,null,null,null,null,null,null,null,null,null,"SATNPRO1509","31.892","0.44672","5"],
    [15690,"NA","2024-03-09 18:30:00",null,null,null,null,null,null,null,null,null,null,null,null,null,"SATNPRO1509","32.025999999999996","0.4486","5"],
    [15691,"NA","2024-03-09 18:45:00",null,null,null,null,null,null,null,null,null,null,null,null,null,"SATNPRO1509","32.394","0.45376","5"],
    [15692,"NA","2024-03-09 19:00:00",null,null,null,null,null,null,null,null,null,null,null,null,null,"SATNPRO1509","32.396","0.45378","5"],
    [15693,"NA","2024-03-09 19:15:00",null,null,null,null,null,null,null,null,null,null,null,null,null,"SATNPRO1509","32.256","0.4518","5"],
    [15694,"NA","2024-03-09 19:30:00",null,null,null,null,null,null,null,null,null,null,null,null,null,"SATNPRO1509","32.13","0.45002","5"],
    [15695,"NA","2024-03-09 19:45:00",null,null,null,null,null,null,null,null,null,null,null,null,null,"SATNPRO1509","31.983999999999998","0.448","5"],
    [15696,"NA","2024-03-09 20:00:00",null,null,null,null,null,null,null,null,null,null,null,null,null,"SATNPRO1509","31.676","0.44368","5"],
    [15697,"NA","2024-03-09 20:15:00",null,null,null,null,null,null,null,null,null,null,null,null,null,"SATNPRO1509","31.422","0.44014","5"],
    [15698,"NA","2024-03-09 20:30:00",null,null,null,null,null,null,null,null,null,null,null,null,null,"SATNPRO1509","31.358","0.4392","5"],
    [15699,"NA","2024-03-09 20:45:00",null,null,null,null,null,null,null,null,null,null,null,null,null,"SATNPRO1509","31.346","0.43908","5"],
    [15700,"NA","2024-03-09 21:00:00",null,null,null,null,null,null,null,null,null,null,null,null,null,"SATNPRO1509","31.242","0.4376","5"],
    [15701,"NA","2024-03-09 21:15:00",null,null,null,null,null,null,null,null,null,null,null,null,null,"SATNPRO1509","31.032","0.43462","5"],
    [15702,"NA","2024-03-09 21:30:00",null,null,null,null,null,null,null,null,null,null,null,null,null,"SATNPRO1509","30.928","0.4332","5"],
    [15703,"NA","2024-03-09 21:45:00",null,null,null,null,null,null,null,null,null,null,null,null,null,"SATNPRO1509","30.838","0.432","5"],
    [15704,"NA","2024-03-09 22:00:00",null,null,null,null,null,null,null,null,null,null,null,null,null,"SATNPRO1509","30.814","0.4316","5"],
    [15705,"NA","2024-03-09 22:15:00",null,null,null,null,null,null,null,null,null,null,null,null,null,"SATNPRO1509","30.756","0.4308","5"],
    [15706,"NA","2024-03-09 22:30:00",null,null,null,null,null,null,null,null,null,null,null,null,null,"SATNPRO1509","30.706","0.4301","5"],
    [15707,"NA","2024-03-09 22:45:00",null,null,null,null,null,null,null,null,null,null,null,null,null,"SATNPRO1509","30.554","0.42796","5"],
    [15708,"NA","2024-03-09 23:00:00",null,null,null,null,null,null,null,null,null,null,null,null,null,"SATNPRO1509","30.448","0.42648","5"],
    [15709,"NA","2024-03-09 23:15:00",null,null,null,null,null,null,null,null,null,null,null,null,null,"SATNPRO1509","30.494","0.42712","5"],
    [15710,"NA","2024-03-09 23:30:00",null,null,null,null,null,null,null,null,null,null,null,null,null,"SATNPRO1509","30.314","0.4246","5"],
    [15711,"NA","2024-03-09 23:45:00",null,null,null,null,null,null,null,null,null,null,null,null,null,"SATNPRO1509","30.355999999999998","0.42514","5"],
    [15712,"NA","2024-03-10 00:00:00",null,null,null,null,null,null,null,null,null,null,null,null,null,"SATNPRO1509","30.236","0.42352","5"],
    [15713,"NA","2024-03-10 00:15:00",null,null,null,null,null,null,null,null,null,null,null,null,null,"SATNPRO1509","30.202","0.42306","5"],
    [15714,"NA","2024-03-10 00:30:00",null,null,null,null,null,null,null,null,null,null,null,null,null,"SATNPRO1509","29.982000000000003","0.41996","5"],
    [15715,"NA","2024-03-10 00:45:00",null,null,null,null,null,null,null,null,null,null,null,null,null,"SATNPRO1509","30.05","0.42088","5"],
    [15716,"NA","2024-03-10 01:00:00",null,null,null,null,null,null,null,null,null,null,null,null,null,"SATNPRO1509","30","0.42018","5"],
    [15717,"NA","2024-03-10 01:15:00",null,null,null,null,null,null,null,null,null,null,null,null,null,"SATNPRO1509","29.88","0.41854","5"],
    [15718,"NA","2024-03-10 01:30:00",null,null,null,null,null,null,null,null,null,null,null,null,null,"SATNPRO1509","29.832","0.41782","5"],
    [15719,"NA","2024-03-10 01:45:00",null,null,null,null,null,null,null,null,null,null,null,null,null,"SATNPRO1509","29.802","0.41744","5"],
    [15720,"NA","2024-03-10 02:00:00",null,null,null,null,null,null,null,null,null,null,null,null,null,"SATNPRO1509","29.488","0.41302","5"],
    [15721,"NA","2024-03-10 02:15:00",null,null,null,null,null,null,null,null,null,null,null,null,null,"SATNPRO1509","29.464","0.4127","5"],
    [15722,"NA","2024-03-10 02:30:00",null,null,null,null,null,null,null,null,null,null,null,null,null,"SATNPRO1509","29.502","0.41326","5"],
    [15723,"NA","2024-03-10 02:45:00",null,null,null,null,null,null,null,null,null,null,null,null,null,"SATNPRO1509","29.506","0.41326","5"],
    [15724,"NA","2024-03-10 03:00:00",null,null,null,null,null,null,null,null,null,null,null,null,null,"SATNPRO1509","29.132","0.40808","5"],
    [15725,"NA","2024-03-10 03:15:00",null,null,null,null,null,null,null,null,null,null,null,null,null,"SATNPRO1509","28.964","0.40568","5"],
    [15726,"NA","2024-03-10 03:30:00",null,null,null,null,null,null,null,null,null,null,null,null,null,"SATNPRO1509","28.958","0.4056","5"],
    [15727,"NA","2024-03-10 03:45:00",null,null,null,null,null,null,null,null,null,null,null,null,null,"SATNPRO1509","28.808","0.40352","5"],
    [15728,"NA","2024-03-10 04:00:00",null,null,null,null,null,null,null,null,null,null,null,null,null,"SATNPRO1509","28.688","0.4018","5"],
    [15729,"NA","2024-03-10 04:15:00",null,null,null,null,null,null,null,null,null,null,null,null,null,"SATNPRO1509","28.662","0.40144","5"],
    [15730,"NA","2024-03-10 04:30:00",null,null,null,null,null,null,null,null,null,null,null,null,null,"SATNPRO1509","28.884","0.40456","5"],
    [15731,"NA","2024-03-10 04:45:00",null,null,null,null,null,null,null,null,null,null,null,null,null,"SATNPRO1509","28.564","0.40006","5"],
    [15732,"NA","2024-03-10 05:00:00",null,null,null,null,null,null,null,null,null,null,null,null,null,"SATNPRO1509","28.868","0.40436","5"],
    [15733,"NA","2024-03-10 05:15:00",null,null,null,null,null,null,null,null,null,null,null,null,null,"SATNPRO1509","28.536","0.39968","5"],
    [15734,"NA","2024-03-10 05:30:00",null,null,null,null,null,null,null,null,null,null,null,null,null,"SATNPRO1509","28.452","0.39852","5"],
    [15735,"NA","2024-03-10 05:45:00",null,null,null,null,null,null,null,null,null,null,null,null,null,"SATNPRO1509","29.26","0.40986","5"],
    [15736,"NA","2024-03-10 06:00:00",null,null,null,null,null,null,null,null,null,null,null,null,null,"SATNPRO1509","29.624","0.41496","5"],
    [15737,"NA","2024-03-10 06:15:00",null,null,null,null,null,null,null,null,null,null,null,null,null,"SATNPRO1509","29.816","0.4176","5"],
    [15738,"NA","2024-03-10 06:30:00",null,null,null,null,null,null,null,null,null,null,null,null,null,"SATNPRO1509","29.672","0.41558","5"],
    [15739,"NA","2024-03-10 06:45:00",null,null,null,null,null,null,null,null,null,null,null,null,null,"SATNPRO1509","29.646","0.4152","5"],
    [15740,"NA","2024-03-10 07:00:00",null,null,null,null,null,null,null,null,null,null,null,null,null,"SATNPRO1509","29.54","0.41374","5"],
    [15741,"NA","2024-03-10 07:15:00",null,null,null,null,null,null,null,null,null,null,null,null,null,"SATNPRO1509","29.662","0.41548","5"],
    [15742,"NA","2024-03-10 07:30:00",null,null,null,null,null,null,null,null,null,null,null,null,null,"SATNPRO1509","29.676","0.41566","5"],
    [15743,"NA","2024-03-10 07:45:00",null,null,null,null,null,null,null,null,null,null,null,null,null,"SATNPRO1509","29.650000000000002","0.41528","5"],
    [15744,"NA","2024-03-10 08:00:00",null,null,null,null,null,null,null,null,null,null,null,null,null,"SATNPRO1509","29.692","0.41592","5"],
    [15745,"NA","2024-03-10 08:15:00",null,null,null,null,null,null,null,null,null,null,null,null,null,"SATNPRO1509","29.678","0.4157","5"],
    [15746,"NA","2024-03-10 08:30:00",null,null,null,null,null,null,null,null,null,null,null,null,null,"SATNPRO1509","29.662","0.41546","5"],
    [15747,"NA","2024-03-10 08:45:00",null,null,null,null,null,null,null,null,null,null,null,null,null,"SATNPRO1509","29.672","0.41562","5"],
    [15748,"NA","2024-03-10 09:00:00",null,null,null,null,null,null,null,null,null,null,null,null,null,"SATNPRO1509","29.768","0.41696","5"],
    [15749,"NA","2024-03-10 09:15:00",null,null,null,null,null,null,null,null,null,null,null,null,null,"SATNPRO1509","29.84","0.41796","5"],
    [15750,"NA","2024-03-10 09:30:00",null,null,null,null,null,null,null,null,null,null,null,null,null,"SATNPRO1509","29.87","0.41836","5"],
    [15751,"NA","2024-03-10 09:45:00",null,null,null,null,null,null,null,null,null,null,null,null,null,"SATNPRO1509","29.982","0.41998","5"],
    [15752,"NA","2024-03-10 10:00:00",null,null,null,null,null,null,null,null,null,null,null,null,null,"SATNPRO1509","30.262","0.42386","5"],
    [15753,"NA","2024-03-10 10:15:00",null,null,null,null,null,null,null,null,null,null,null,null,null,"SATNPRO1509","30.956","0.43356","5"],
    [15754,"NA","2024-03-10 10:30:00",null,null,null,null,null,null,null,null,null,null,null,null,null,"SATNPRO1509","31.02","0.43448","5"],
    [15755,"NA","2024-03-10 10:45:00",null,null,null,null,null,null,null,null,null,null,null,null,null,"SATNPRO1509","31.132","0.43604","5"],
    [15756,"NA","2024-03-10 11:00:00",null,null,null,null,null,null,null,null,null,null,null,null,null,"SATNPRO1509","31.278","0.43812","5"],
    [15757,"NA","2024-03-10 11:15:00",null,null,null,null,null,null,null,null,null,null,null,null,null,"SATNPRO1509","31.268","0.43798","5"],
    [15758,"NA","2024-03-10 11:30:00",null,null,null,null,null,null,null,null,null,null,null,null,null,"SATNPRO1509","31.376","0.43948","5"],
    [15759,"NA","2024-03-10 11:45:00",null,null,null,null,null,null,null,null,null,null,null,null,null,"SATNPRO1509","31.562","0.4421","5"],
    [15760,"NA","2024-03-10 12:00:00",null,null,null,null,null,null,null,null,null,null,null,null,null,"SATNPRO1509","31.698","0.444","5"],
    [15761,"NA","2024-03-10 12:15:00",null,null,null,null,null,null,null,null,null,null,null,null,null,"SATNPRO1509","32.176","0.4507","5"],
    [15762,"NA","2024-03-10 12:30:00",null,null,null,null,null,null,null,null,null,null,null,null,null,"SATNPRO1509","32.308","0.45254","5"],
    [15763,"NA","2024-03-10 12:45:00",null,null,null,null,null,null,null,null,null,null,null,null,null,"SATNPRO1509","32.374","0.45348","5"],
    [15764,"NA","2024-03-10 13:00:00",null,null,null,null,null,null,null,null,null,null,null,null,null,"SATNPRO1509","32.548","0.45594","5"],
    [15765,"NA","2024-03-10 13:15:00",null,null,null,null,null,null,null,null,null,null,null,null,null,"SATNPRO1509","32.598","0.45656","5"],
    [15766,"NA","2024-03-10 13:30:00",null,null,null,null,null,null,null,null,null,null,null,null,null,"SATNPRO1509","32.712","0.4582","5"],
    [15767,"NA","2024-03-10 13:45:00",null,null,null,null,null,null,null,null,null,null,null,null,null,"SATNPRO1509","32.51","0.45538","5"],
    [15768,"NA","2024-03-10 14:00:00",null,null,null,null,null,null,null,null,null,null,null,null,null,"SATNPRO1509","32.52","0.45554","5"],
    [15769,"NA","2024-03-10 14:15:00",null,null,null,null,null,null,null,null,null,null,null,null,null,"SATNPRO1509","32.52","0.4555","5"],
    [15770,"NA","2024-03-10 14:30:00",null,null,null,null,null,null,null,null,null,null,null,null,null,"SATNPRO1509","32.628","0.45704","5"],
    [15771,"NA","2024-03-10 14:45:00",null,null,null,null,null,null,null,null,null,null,null,null,null,"SATNPRO1509","32.688","0.45788","5"],
    [15772,"NA","2024-03-10 15:00:00",null,null,null,null,null,null,null,null,null,null,null,null,null,"SATNPRO1509","32.566","0.45614","5"],
    [15773,"NA","2024-03-10 15:15:00",null,null,null,null,null,null,null,null,null,null,null,null,null,"SATNPRO1509","32.614","0.4568","5"],
    [15774,"NA","2024-03-10 15:30:00",null,null,null,null,null,null,null,null,null,null,null,null,null,"SATNPRO1509","32.518","0.45546","5"],
    [15775,"NA","2024-03-10 15:45:00",null,null,null,null,null,null,null,null,null,null,null,null,null,"SATNPRO1509","32.544","0.45586","5"],
    [15776,"NA","2024-03-10 16:00:00",null,null,null,null,null,null,null,null,null,null,null,null,null,"SATNPRO1509","32.512","0.4554","5"],
    [15777,"NA","2024-03-10 16:15:00",null,null,null,null,null,null,null,null,null,null,null,null,null,"SATNPRO1509","32.466","0.45474","5"],
    [15778,"NA","2024-03-10 16:30:00",null,null,null,null,null,null,null,null,null,null,null,null,null,"SATNPRO1509","32.324","0.45276","5"],
    [15779,"NA","2024-03-10 16:45:00",null,null,null,null,null,null,null,null,null,null,null,null,null,"SATNPRO1509","32.232","0.45148","5"],
    [15780,"NA","2024-03-10 17:00:00",null,null,null,null,null,null,null,null,null,null,null,null,null,"SATNPRO1509","32.202","0.45102","5"],
    [15781,"NA","2024-03-10 17:15:00",null,null,null,null,null,null,null,null,null,null,null,null,null,"SATNPRO1509","32","0.4482","5"],
    [15782,"NA","2024-03-10 17:30:00",null,null,null,null,null,null,null,null,null,null,null,null,null,"SATNPRO1509","31.878","0.4465","5"],
    [15783,"NA","2024-03-10 17:45:00",null,null,null,null,null,null,null,null,null,null,null,null,null,"SATNPRO1509","31.638","0.44316","5"],
    [15784,"NA","2024-03-10 18:00:00",null,null,null,null,null,null,null,null,null,null,null,null,null,"SATNPRO1509","31.55","0.44196","5"],
    [15785,"NA","2024-03-10 18:15:00",null,null,null,null,null,null,null,null,null,null,null,null,null,"SATNPRO1509","31.548000000000002","0.4419","5"],
    [15786,"NA","2024-03-10 18:30:00",null,null,null,null,null,null,null,null,null,null,null,null,null,"SATNPRO1509","31.498","0.44116","5"],
    [15787,"NA","2024-03-10 18:45:00",null,null,null,null,null,null,null,null,null,null,null,null,null,"SATNPRO1509","31.388","0.43966","5"],
    [15788,"NA","2024-03-10 19:00:00",null,null,null,null,null,null,null,null,null,null,null,null,null,"SATNPRO1509","31.07","0.4352","5"],
    [15789,"NA","2024-03-10 19:15:00",null,null,null,null,null,null,null,null,null,null,null,null,null,"SATNPRO1509","30.678","0.4297","5"],
    [15790,"NA","2024-03-10 19:30:00",null,null,null,null,null,null,null,null,null,null,null,null,null,"SATNPRO1509","30.272000000000002","0.42402","5"],
    [15791,"NA","2024-03-10 19:45:00",null,null,null,null,null,null,null,null,null,null,null,null,null,"SATNPRO1509","29.945999999999998","0.41944","5"],
    [15792,"NA","2024-03-10 20:00:00",null,null,null,null,null,null,null,null,null,null,null,null,null,"SATNPRO1509","29.77","0.41698","5"],
    [15793,"NA","2024-03-10 20:15:00",null,null,null,null,null,null,null,null,null,null,null,null,null,"SATNPRO1509","29.654","0.41538","5"],
    [15794,"NA","2024-03-10 20:30:00",null,null,null,null,null,null,null,null,null,null,null,null,null,"SATNPRO1509","29.578","0.4143","5"],
    [15795,"NA","2024-03-10 20:45:00",null,null,null,null,null,null,null,null,null,null,null,null,null,"SATNPRO1509","29.626","0.41496","5"],
    [15796,"NA","2024-03-10 21:00:00",null,null,null,null,null,null,null,null,null,null,null,null,null,"SATNPRO1509","29.676000000000002","0.41568","5"],
    [15797,"NA","2024-03-10 21:15:00",null,null,null,null,null,null,null,null,null,null,null,null,null,"SATNPRO1509","29.714","0.41618","5"],
    [15798,"NA","2024-03-10 21:30:00",null,null,null,null,null,null,null,null,null,null,null,null,null,"SATNPRO1509","29.727999999999998","0.41638","5"],
    [15799,"NA","2024-03-10 21:45:00",null,null,null,null,null,null,null,null,null,null,null,null,null,"SATNPRO1509","29.754","0.41672","5"],
    [15800,"NA","2024-03-10 22:00:00",null,null,null,null,null,null,null,null,null,null,null,null,null,"SATNPRO1509","29.646","0.4153","5"],
    [15801,"NA","2024-03-10 22:15:00",null,null,null,null,null,null,null,null,null,null,null,null,null,"SATNPRO1509","29.650000000000002","0.41534","5"],
    [15802,"NA","2024-03-10 22:30:00",null,null,null,null,null,null,null,null,null,null,null,null,null,"SATNPRO1509","29.52","0.41352","5"],
    [15803,"NA","2024-03-10 22:45:00",null,null,null,null,null,null,null,null,null,null,null,null,null,"SATNPRO1509","29.598","0.4146","5"],
    [15804,"NA","2024-03-10 23:00:00",null,null,null,null,null,null,null,null,null,null,null,null,null,"SATNPRO1509","29.652","0.41534","5"],
    [15805,"NA","2024-03-10 23:15:00",null,null,null,null,null,null,null,null,null,null,null,null,null,"SATNPRO1509","29.764","0.4169","5"],
    [15806,"NA","2024-03-10 23:30:00",null,null,null,null,null,null,null,null,null,null,null,null,null,"SATNPRO1509","29.636","0.4151","5"],
    [15807,"NA","2024-03-10 23:45:00",null,null,null,null,null,null,null,null,null,null,null,null,null,"SATNPRO1509","29.44","0.41238","5"],
    [15808,"NA","2024-03-11 00:00:00",null,null,null,null,null,null,null,null,null,null,null,null,null,"SATNPRO1509","29.526","0.41358","5"],
    [15809,"NA","2024-03-11 00:15:00",null,null,null,null,null,null,null,null,null,null,null,null,null,"SATNPRO1509","29.904","0.41886","5"],
    [15810,"NA","2024-03-11 00:30:00",null,null,null,null,null,null,null,null,null,null,null,null,null,"SATNPRO1509","29.842","0.41796","5"],
    [15811,"NA","2024-03-11 00:45:00",null,null,null,null,null,null,null,null,null,null,null,null,null,"SATNPRO1509","29.874","0.41846","5"],
    [15812,"NA","2024-03-11 01:00:00",null,null,null,null,null,null,null,null,null,null,null,null,null,"SATNPRO1509","29.74","0.41658","5"],
    [15813,"NA","2024-03-11 01:15:00",null,null,null,null,null,null,null,null,null,null,null,null,null,"SATNPRO1509","29.552","0.41396","5"],
    [15814,"NA","2024-03-11 01:30:00",null,null,null,null,null,null,null,null,null,null,null,null,null,"SATNPRO1509","29.258","0.40986","5"],
    [15815,"NA","2024-03-11 01:45:00",null,null,null,null,null,null,null,null,null,null,null,null,null,"SATNPRO1509","29.096","0.40756","5"],
    [15816,"NA","2024-03-11 02:00:00",null,null,null,null,null,null,null,null,null,null,null,null,null,"SATNPRO1509","29.192","0.40888","5"],
    [15817,"NA","2024-03-11 02:15:00",null,null,null,null,null,null,null,null,null,null,null,null,null,"SATNPRO1509","29.704","0.41606","5"],
    [15818,"NA","2024-03-11 02:30:00",null,null,null,null,null,null,null,null,null,null,null,null,null,"SATNPRO1509","29.982","0.41992","5"],
    [15819,"NA","2024-03-11 02:45:00",null,null,null,null,null,null,null,null,null,null,null,null,null,"SATNPRO1509","30.13","0.42204","5"],
    [15820,"NA","2024-03-11 03:00:00",null,null,null,null,null,null,null,null,null,null,null,null,null,"SATNPRO1509","30.192","0.42286","5"],
    [15821,"NA","2024-03-11 03:15:00",null,null,null,null,null,null,null,null,null,null,null,null,null,"SATNPRO1509","30.142","0.4222","5"],
    [15822,"NA","2024-03-11 03:30:00",null,null,null,null,null,null,null,null,null,null,null,null,null,"SATNPRO1509","30.04","0.42076","5"],
    [15823,"NA","2024-03-11 03:45:00",null,null,null,null,null,null,null,null,null,null,null,null,null,"SATNPRO1509","30.458","0.4266","5"],
    [15824,"NA","2024-03-11 04:00:00",null,null,null,null,null,null,null,null,null,null,null,null,null,"SATNPRO1509","29.878","0.41848","5"],
    [15825,"NA","2024-03-11 04:15:00",null,null,null,null,null,null,null,null,null,null,null,null,null,"SATNPRO1509","29.994","0.4201","5"],
    [15826,"NA","2024-03-11 04:30:00",null,null,null,null,null,null,null,null,null,null,null,null,null,"SATNPRO1509","30.156000000000002","0.4224","5"],
    [15827,"NA","2024-03-11 04:45:00",null,null,null,null,null,null,null,null,null,null,null,null,null,"SATNPRO1509","29.502","0.41322","5"],
    [15828,"NA","2024-03-11 05:00:00",null,null,null,null,null,null,null,null,null,null,null,null,null,"SATNPRO1509","29.014","0.40642","5"],
    [15829,"NA","2024-03-11 05:15:00",null,null,null,null,null,null,null,null,null,null,null,null,null,"SATNPRO1509","28.924","0.40516","5"],
    [15830,"NA","2024-03-11 05:30:00",null,null,null,null,null,null,null,null,null,null,null,null,null,"SATNPRO1509","28.588","0.40044","5"],
    [15831,"NA","2024-03-11 05:45:00",null,null,null,null,null,null,null,null,null,null,null,null,null,"SATNPRO1509","28.838","0.40394","5"],
    [15832,"NA","2024-03-11 06:00:00",null,null,null,null,null,null,null,null,null,null,null,null,null,"SATNPRO1509","29.038","0.40672","5"],
    [15833,"NA","2024-03-11 06:15:00",null,null,null,null,null,null,null,null,null,null,null,null,null,"SATNPRO1509","28.832","0.40382","5"],
    [15834,"NA","2024-03-11 06:30:00",null,null,null,null,null,null,null,null,null,null,null,null,null,"SATNPRO1509","28.12","0.39386","5"],
    [15835,"NA","2024-03-11 06:45:00",null,null,null,null,null,null,null,null,null,null,null,null,null,"SATNPRO1509","28.64","0.40116","5"],
    [15836,"NA","2024-03-11 07:00:00",null,null,null,null,null,null,null,null,null,null,null,null,null,"SATNPRO1509","29.23","0.40942","5"],
    [15837,"NA","2024-03-11 07:15:00",null,null,null,null,null,null,null,null,null,null,null,null,null,"SATNPRO1509","29.694","0.41592","5"],
    [15838,"NA","2024-03-11 07:30:00",null,null,null,null,null,null,null,null,null,null,null,null,null,"SATNPRO1509","30.13","0.422","5"],
    [15839,"NA","2024-03-11 07:45:00",null,null,null,null,null,null,null,null,null,null,null,null,null,"SATNPRO1509","30.596","0.42854","5"],
    [15840,"NA","2024-03-11 08:00:00",null,null,null,null,null,null,null,null,null,null,null,null,null,"SATNPRO1509","30.836","0.43192","5"],
    [15841,"NA","2024-03-11 08:15:00",null,null,null,null,null,null,null,null,null,null,null,null,null,"SATNPRO1509","31.148","0.4363","5"],
    [15842,"NA","2024-03-11 08:30:00",null,null,null,null,null,null,null,null,null,null,null,null,null,"SATNPRO1509","31.216","0.43726","5"],
    [15843,"NA","2024-03-11 08:45:00",null,null,null,null,null,null,null,null,null,null,null,null,null,"SATNPRO1509","31.312","0.43862","5"],
    [15844,"NA","2024-03-11 09:00:00",null,null,null,null,null,null,null,null,null,null,null,null,null,"SATNPRO1509","31.342000000000002","0.43896","5"],
    [15845,"NA","2024-03-11 09:15:00",null,null,null,null,null,null,null,null,null,null,null,null,null,"SATNPRO1509","31.354","0.43918","5"],
    [15846,"NA","2024-03-11 09:30:00",null,null,null,null,null,null,null,null,null,null,null,null,null,"SATNPRO1509","31.362000000000002","0.43926","5"],
    [15847,"NA","2024-03-11 09:45:00",null,null,null,null,null,null,null,null,null,null,null,null,null,"SATNPRO1509","31.37","0.4394","5"],
    [15848,"NA","2024-03-11 10:00:00",null,null,null,null,null,null,null,null,null,null,null,null,null,"SATNPRO1509","31.438","0.44034","5"],
    [15849,"NA","2024-03-11 10:15:00",null,null,null,null,null,null,null,null,null,null,null,null,null,"SATNPRO1509","31.48","0.4409","5"],
    [15850,"NA","2024-03-11 10:30:00",null,null,null,null,null,null,null,null,null,null,null,null,null,"SATNPRO1509","31.36","0.43922","5"],
    [15851,"NA","2024-03-11 10:45:00",null,null,null,null,null,null,null,null,null,null,null,null,null,"SATNPRO1509","31.406","0.4399","5"],
    [15852,"NA","2024-03-11 11:00:00",null,null,null,null,null,null,null,null,null,null,null,null,null,"SATNPRO1509","31.38","0.43956","5"],
    [15853,"NA","2024-03-11 11:15:00",null,null,null,null,null,null,null,null,null,null,null,null,null,"SATNPRO1509","31.402","0.43986","5"],
    [15854,"NA","2024-03-11 11:30:00",null,null,null,null,null,null,null,null,null,null,null,null,null,"SATNPRO1509","31.406","0.43992","5"],
    [15855,"NA","2024-03-11 11:45:00",null,null,null,null,null,null,null,null,null,null,null,null,null,"SATNPRO1509","31.47","0.4408","5"],
    [15856,"NA","2024-03-11 12:00:00",null,null,null,null,null,null,null,null,null,null,null,null,null,"SATNPRO1509","31.426","0.4402","5"],
    [15857,"NA","2024-03-11 12:15:00",null,null,null,null,null,null,null,null,null,null,null,null,null,"SATNPRO1509","31.552","0.4419","5"],
    [15858,"NA","2024-03-11 12:30:00",null,null,null,null,null,null,null,null,null,null,null,null,null,"SATNPRO1509","31.584","0.44242","5"],
    [15859,"NA","2024-03-11 12:45:00",null,null,null,null,null,null,null,null,null,null,null,null,null,"SATNPRO1509","31.824","0.44572","5"],
    [15860,"NA","2024-03-11 13:00:00",null,null,null,null,null,null,null,null,null,null,null,null,null,"SATNPRO1509","31.718","0.44426","5"],
    [15861,"NA","2024-03-11 13:15:00",null,null,null,null,null,null,null,null,null,null,null,null,null,"SATNPRO1509","31.816","0.4456","5"],
    [15862,"NA","2024-03-11 13:30:00",null,null,null,null,null,null,null,null,null,null,null,null,null,"SATNPRO1509","31.59","0.4425","5"],
    [15863,"NA","2024-03-11 13:45:00",null,null,null,null,null,null,null,null,null,null,null,null,null,"SATNPRO1509","31.684","0.4438","5"],
    [15864,"NA","2024-03-11 14:00:00",null,null,null,null,null,null,null,null,null,null,null,null,null,"SATNPRO1509","31.65","0.44332","5"],
    [15865,"NA","2024-03-11 14:15:00",null,null,null,null,null,null,null,null,null,null,null,null,null,"SATNPRO1509","31.67","0.44358","5"],
    [15866,"NA","2024-03-11 14:30:00",null,null,null,null,null,null,null,null,null,null,null,null,null,"SATNPRO1509","31.832","0.44586","5"],
    [15867,"NA","2024-03-11 14:45:00",null,null,null,null,null,null,null,null,null,null,null,null,null,"SATNPRO1509","31.96","0.44764","5"],
    [15868,"NA","2024-03-11 15:00:00",null,null,null,null,null,null,null,null,null,null,null,null,null,"SATNPRO1509","32.03","0.44864","5"],
    [15869,"NA","2024-03-11 15:15:00",null,null,null,null,null,null,null,null,null,null,null,null,null,"SATNPRO1509","31.932","0.44726","5"],
    [15870,"NA","2024-03-11 15:30:00",null,null,null,null,null,null,null,null,null,null,null,null,null,"SATNPRO1509","31.944","0.44742","5"],
    [15871,"NA","2024-03-11 15:45:00",null,null,null,null,null,null,null,null,null,null,null,null,null,"SATNPRO1509","31.810000000000002","0.44552","5"],
    [15872,"NA","2024-03-11 16:00:00",null,null,null,null,null,null,null,null,null,null,null,null,null,"SATNPRO1509","31.552","0.44196","5"],
    [15873,"NA","2024-03-11 16:15:00",null,null,null,null,null,null,null,null,null,null,null,null,null,"SATNPRO1509","31.566","0.44212","5"],
    [15874,"NA","2024-03-11 16:30:00",null,null,null,null,null,null,null,null,null,null,null,null,null,"SATNPRO1509","31.532","0.44164","5"],
    [15875,"NA","2024-03-11 16:45:00",null,null,null,null,null,null,null,null,null,null,null,null,null,"SATNPRO1509","31.558","0.44202","5"],
    [15876,"NA","2024-03-11 17:00:00",null,null,null,null,null,null,null,null,null,null,null,null,null,"SATNPRO1509","31.598","0.44258","5"],
    [15877,"NA","2024-03-11 17:15:00",null,null,null,null,null,null,null,null,null,null,null,null,null,"SATNPRO1509","31.568","0.44212","5"],
    [15878,"NA","2024-03-11 17:30:00",null,null,null,null,null,null,null,null,null,null,null,null,null,"SATNPRO1509","31.544","0.44182","5"],
    [15879,"NA","2024-03-11 17:45:00",null,null,null,null,null,null,null,null,null,null,null,null,null,"SATNPRO1509","31.566","0.44212","5"],
    [15880,"NA","2024-03-11 18:00:00",null,null,null,null,null,null,null,null,null,null,null,null,null,"SATNPRO1509","31.532","0.44164","5"],
    [15881,"NA","2024-03-11 18:15:00",null,null,null,null,null,null,null,null,null,null,null,null,null,"SATNPRO1509","31.544","0.44182","5"],
    [15882,"NA","2024-03-11 18:30:00",null,null,null,null,null,null,null,null,null,null,null,null,null,"SATNPRO1509","31.456","0.4406","5"],
    [15883,"NA","2024-03-11 18:45:00",null,null,null,null,null,null,null,null,null,null,null,null,null,"SATNPRO1509","31.364","0.4393","5"],
    [15884,"NA","2024-03-11 19:00:00",null,null,null,null,null,null,null,null,null,null,null,null,null,"SATNPRO1509","31.27","0.43798","5"],
    [15885,"NA","2024-03-11 19:15:00",null,null,null,null,null,null,null,null,null,null,null,null,null,"SATNPRO1509","31.196","0.43694","5"],
    [15886,"NA","2024-03-11 19:30:00",null,null,null,null,null,null,null,null,null,null,null,null,null,"SATNPRO1509","31.105999999999998","0.4357","5"],
    [15887,"NA","2024-03-11 19:45:00",null,null,null,null,null,null,null,null,null,null,null,null,null,"SATNPRO1509","31.07","0.4352","5"],
    [15888,"NA","2024-03-11 20:00:00",null,null,null,null,null,null,null,null,null,null,null,null,null,"SATNPRO1509","31.008","0.43432","5"],
    [15889,"NA","2024-03-11 20:15:00",null,null,null,null,null,null,null,null,null,null,null,null,null,"SATNPRO1509","31.052","0.43494","5"],
    [15890,"NA","2024-03-11 20:30:00",null,null,null,null,null,null,null,null,null,null,null,null,null,"SATNPRO1509","31.032","0.43466","5"],
    [15891,"NA","2024-03-11 20:45:00",null,null,null,null,null,null,null,null,null,null,null,null,null,"SATNPRO1509","30.994","0.43414","5"],
    [15892,"NA","2024-03-11 21:00:00",null,null,null,null,null,null,null,null,null,null,null,null,null,"SATNPRO1509","30.887999999999998","0.43262","5"],
    [15893,"NA","2024-03-11 21:15:00",null,null,null,null,null,null,null,null,null,null,null,null,null,"SATNPRO1509","30.824","0.43174","5"],
    [15894,"NA","2024-03-11 21:30:00",null,null,null,null,null,null,null,null,null,null,null,null,null,"SATNPRO1509","30.692","0.42992","5"],
    [15895,"NA","2024-03-11 21:45:00",null,null,null,null,null,null,null,null,null,null,null,null,null,"SATNPRO1509","30.614","0.42878","5"],
    [15896,"NA","2024-03-11 22:00:00",null,null,null,null,null,null,null,null,null,null,null,null,null,"SATNPRO1509","30.656000000000002","0.4294","5"],
    [15897,"NA","2024-03-11 22:15:00",null,null,null,null,null,null,null,null,null,null,null,null,null,"SATNPRO1509","30.678","0.42972","5"],
    [15898,"NA","2024-03-11 22:30:00",null,null,null,null,null,null,null,null,null,null,null,null,null,"SATNPRO1509","30.668","0.42954","5"],
    [15899,"NA","2024-03-11 22:45:00",null,null,null,null,null,null,null,null,null,null,null,null,null,"SATNPRO1509","30.48","0.42696","5"],
    [15900,"NA","2024-03-11 23:00:00",null,null,null,null,null,null,null,null,null,null,null,null,null,"SATNPRO1509","29.878","0.4185","5"],
    [15901,"NA","2024-03-11 23:15:00",null,null,null,null,null,null,null,null,null,null,null,null,null,"SATNPRO1509","30.434","0.4263","5"],
    [15902,"NA","2024-03-11 23:30:00",null,null,null,null,null,null,null,null,null,null,null,null,null,"SATNPRO1509","30.126","0.42194","5"],
    [15903,"NA","2024-03-11 23:45:00",null,null,null,null,null,null,null,null,null,null,null,null,null,"SATNPRO1509","30.352","0.42518","5"],
    [15904,"NA","2024-03-12 00:00:00",null,null,null,null,null,null,null,null,null,null,null,null,null,"SATNPRO1509","30.637999999999998","0.4291","5"],
    [15905,"NA","2024-03-12 00:15:00",null,null,null,null,null,null,null,null,null,null,null,null,null,"SATNPRO1509","30.65","0.4293","5"],
    [15906,"NA","2024-03-12 00:30:00",null,null,null,null,null,null,null,null,null,null,null,null,null,"SATNPRO1509","30.994","0.43408","5"],
    [15907,"NA","2024-03-12 00:45:00",null,null,null,null,null,null,null,null,null,null,null,null,null,"SATNPRO1509","31.176000000000002","0.43662","5"],
    [15908,"NA","2024-03-12 01:00:00",null,null,null,null,null,null,null,null,null,null,null,null,null,"SATNPRO1509","31.374","0.4395","5"],
    [15909,"NA","2024-03-12 01:15:00",null,null,null,null,null,null,null,null,null,null,null,null,null,"SATNPRO1509","31.508","0.44132","5"],
    [15910,"NA","2024-03-12 01:30:00",null,null,null,null,null,null,null,null,null,null,null,null,null,"SATNPRO1509","31.568","0.44216","5"],
    [15911,"NA","2024-03-12 01:45:00",null,null,null,null,null,null,null,null,null,null,null,null,null,"SATNPRO1509","31.544","0.44182","5"],
    [15912,"NA","2024-03-12 02:00:00",null,null,null,null,null,null,null,null,null,null,null,null,null,"SATNPRO1509","31.596","0.44256","5"],
    [15913,"NA","2024-03-12 02:15:00",null,null,null,null,null,null,null,null,null,null,null,null,null,"SATNPRO1509","31.676000000000002","0.44368","5"],
    [15914,"NA","2024-03-12 02:30:00",null,null,null,null,null,null,null,null,null,null,null,null,null,"SATNPRO1509","31.456","0.44056","5"],
    [15915,"NA","2024-03-12 02:45:00",null,null,null,null,null,null,null,null,null,null,null,null,null,"SATNPRO1509","31.534","0.44172","5"],
    [15916,"NA","2024-03-12 03:00:00",null,null,null,null,null,null,null,null,null,null,null,null,null,"SATNPRO1509","31.5","0.44122","5"],
    [15917,"NA","2024-03-12 03:15:00",null,null,null,null,null,null,null,null,null,null,null,null,null,"SATNPRO1509","31.368","0.43936","5"],
    [15918,"NA","2024-03-12 03:30:00",null,null,null,null,null,null,null,null,null,null,null,null,null,"SATNPRO1509","31.458","0.44064","5"],
    [15919,"NA","2024-03-12 03:45:00",null,null,null,null,null,null,null,null,null,null,null,null,null,"SATNPRO1509","31.548","0.44188","5"],
    [15920,"NA","2024-03-12 04:00:00",null,null,null,null,null,null,null,null,null,null,null,null,null,"SATNPRO1509","31.364","0.43934","5"],
    [15921,"NA","2024-03-12 04:15:00",null,null,null,null,null,null,null,null,null,null,null,null,null,"SATNPRO1509","31.472","0.44078","5"],
    [15922,"NA","2024-03-12 04:30:00",null,null,null,null,null,null,null,null,null,null,null,null,null,"SATNPRO1509","31.46","0.44068","5"],
    [15923,"NA","2024-03-12 04:45:00",null,null,null,null,null,null,null,null,null,null,null,null,null,"SATNPRO1509","31.75","0.44472","5"],
    [15924,"NA","2024-03-12 05:00:00",null,null,null,null,null,null,null,null,null,null,null,null,null,"SATNPRO1509","31.72","0.4443","5"],
    [15925,"NA","2024-03-12 05:15:00",null,null,null,null,null,null,null,null,null,null,null,null,null,"SATNPRO1509","31.814","0.4456","5"],
    [15926,"NA","2024-03-12 05:30:00",null,null,null,null,null,null,null,null,null,null,null,null,null,"SATNPRO1509","31.68","0.44372","5"],
    [15927,"NA","2024-03-12 05:45:00",null,null,null,null,null,null,null,null,null,null,null,null,null,"SATNPRO1509","31.584","0.44242","5"],
    [15928,"NA","2024-03-12 06:00:00",null,null,null,null,null,null,null,null,null,null,null,null,null,"SATNPRO1509","31.554","0.44196","5"],
    [15929,"NA","2024-03-12 06:15:00",null,null,null,null,null,null,null,null,null,null,null,null,null,"SATNPRO1509","31.596","0.44256","5"],
    [15930,"NA","2024-03-12 06:30:00",null,null,null,null,null,null,null,null,null,null,null,null,null,"SATNPRO1509","31.47","0.44078","5"],
    [15931,"NA","2024-03-12 06:45:00",null,null,null,null,null,null,null,null,null,null,null,null,null,"SATNPRO1509","31.294","0.4383","5"],
    [15932,"NA","2024-03-12 07:00:00",null,null,null,null,null,null,null,null,null,null,null,null,null,"SATNPRO1509","31.27","0.438","5"],
    [15933,"NA","2024-03-12 07:15:00",null,null,null,null,null,null,null,null,null,null,null,null,null,"SATNPRO1509","31.192","0.43686","5"],
    [15934,"NA","2024-03-12 07:30:00",null,null,null,null,null,null,null,null,null,null,null,null,null,"SATNPRO1509","31.222","0.43734","5"],
    [15935,"NA","2024-03-12 07:45:00",null,null,null,null,null,null,null,null,null,null,null,null,null,"SATNPRO1509","31.132","0.43608","5"],
    [15936,"NA","2024-03-12 08:00:00",null,null,null,null,null,null,null,null,null,null,null,null,null,"SATNPRO1509","31.112","0.43578","5"],
    [15937,"NA","2024-03-12 08:15:00",null,null,null,null,null,null,null,null,null,null,null,null,null,"SATNPRO1509","30.992","0.43412","5"],
    [15938,"NA","2024-03-12 08:30:00",null,null,null,null,null,null,null,null,null,null,null,null,null,"SATNPRO1509","30.946","0.43344","5"],
    [15939,"NA","2024-03-12 08:45:00",null,null,null,null,null,null,null,null,null,null,null,null,null,"SATNPRO1509","30.945999999999998","0.43346","5"],
    [15940,"NA","2024-03-12 09:00:00",null,null,null,null,null,null,null,null,null,null,null,null,null,"SATNPRO1509","30.990000000000002","0.4341","5"],
    [15941,"NA","2024-03-12 09:15:00",null,null,null,null,null,null,null,null,null,null,null,null,null,"SATNPRO1509","31.004","0.43426","5"],
    [15942,"NA","2024-03-12 09:30:00",null,null,null,null,null,null,null,null,null,null,null,null,null,"SATNPRO1509","31.084","0.43536","5"],
    [15943,"NA","2024-03-12 09:45:00",null,null,null,null,null,null,null,null,null,null,null,null,null,"SATNPRO1509","30.924","0.4331","5"],
    [15944,"NA","2024-03-12 10:00:00",null,null,null,null,null,null,null,null,null,null,null,null,null,"SATNPRO1509","30.846","0.43204","5"],
    [15945,"NA","2024-03-12 10:15:00",null,null,null,null,null,null,null,null,null,null,null,null,null,"SATNPRO1509","30.824","0.43172","5"],
    [15946,"NA","2024-03-12 10:30:00",null,null,null,null,null,null,null,null,null,null,null,null,null,"SATNPRO1509","30.766","0.43092","5"],
    [15947,"NA","2024-03-12 10:45:00",null,null,null,null,null,null,null,null,null,null,null,null,null,"SATNPRO1509","30.69","0.4299","5"],
    [15948,"NA","2024-03-12 11:00:00",null,null,null,null,null,null,null,null,null,null,null,null,null,"SATNPRO1509","30.73","0.43044","5"],
    [15949,"NA","2024-03-12 11:15:00",null,null,null,null,null,null,null,null,null,null,null,null,null,"SATNPRO1509","30.744","0.4306","5"],
    [15950,"NA","2024-03-12 11:30:00",null,null,null,null,null,null,null,null,null,null,null,null,null,"SATNPRO1509","30.631999999999998","0.42904","5"],
    [15951,"NA","2024-03-12 11:45:00",null,null,null,null,null,null,null,null,null,null,null,null,null,"SATNPRO1509","30.776","0.43108","5"],
    [15952,"NA","2024-03-12 12:00:00",null,null,null,null,null,null,null,null,null,null,null,null,null,"SATNPRO1509","30.828","0.43184","5"],
    [15953,"NA","2024-03-12 12:15:00",null,null,null,null,null,null,null,null,null,null,null,null,null,"SATNPRO1509","30.798","0.4314","5"],
    [15954,"NA","2024-03-12 12:30:00",null,null,null,null,null,null,null,null,null,null,null,null,null,"SATNPRO1509","30.594","0.42856","5"],
    [15955,"NA","2024-03-12 12:45:00",null,null,null,null,null,null,null,null,null,null,null,null,null,"SATNPRO1509","30.488","0.42704","5"],
    [15956,"NA","2024-03-12 13:00:00",null,null,null,null,null,null,null,null,null,null,null,null,null,"SATNPRO1509","30.36","0.42522","5"],
    [15957,"NA","2024-03-12 13:15:00",null,null,null,null,null,null,null,null,null,null,null,null,null,"SATNPRO1509","30.422","0.42606","5"],
    [15958,"NA","2024-03-12 13:30:00",null,null,null,null,null,null,null,null,null,null,null,null,null,"SATNPRO1509","30.432","0.42626","5"],
    [15959,"NA","2024-03-12 13:45:00",null,null,null,null,null,null,null,null,null,null,null,null,null,"SATNPRO1509","30.378","0.42548","5"],
    [15960,"NA","2024-03-12 14:00:00",null,null,null,null,null,null,null,null,null,null,null,null,null,"SATNPRO1509","30.323999999999998","0.42472","5"],
    [15961,"NA","2024-03-12 14:15:00",null,null,null,null,null,null,null,null,null,null,null,null,null,"SATNPRO1509","30.298000000000002","0.42438","5"],
    [15962,"NA","2024-03-12 14:30:00",null,null,null,null,null,null,null,null,null,null,null,null,null,"SATNPRO1509","30.318","0.42466","5"],
    [15963,"NA","2024-03-12 14:45:00",null,null,null,null,null,null,null,null,null,null,null,null,null,"SATNPRO1509","30.072","0.42124","5"],
    [15964,"NA","2024-03-12 15:00:00",null,null,null,null,null,null,null,null,null,null,null,null,null,"SATNPRO1509","30.314","0.42458","5"],
    [15965,"NA","2024-03-12 15:15:00",null,null,null,null,null,null,null,null,null,null,null,null,null,"SATNPRO1509","30.098","0.42158","5"],
    [15966,"NA","2024-03-12 15:30:00",null,null,null,null,null,null,null,null,null,null,null,null,null,"SATNPRO1509","30.516000000000002","0.42742","5"],
    [15967,"NA","2024-03-12 15:45:00",null,null,null,null,null,null,null,null,null,null,null,null,null,"SATNPRO1509","30.628","0.42898","5"],
    [15968,"NA","2024-03-12 16:00:00",null,null,null,null,null,null,null,null,null,null,null,null,null,"SATNPRO1509","30.758","0.43084","5"],
    [15969,"NA","2024-03-12 16:15:00",null,null,null,null,null,null,null,null,null,null,null,null,null,"SATNPRO1509","30.832","0.43182","5"],
    [15970,"NA","2024-03-12 16:30:00",null,null,null,null,null,null,null,null,null,null,null,null,null,"SATNPRO1509","30.588","0.42844","5"],
    [15971,"NA","2024-03-12 16:45:00",null,null,null,null,null,null,null,null,null,null,null,null,null,"SATNPRO1509","30.54","0.42774","5"],
    [15972,"NA","2024-03-12 17:00:00",null,null,null,null,null,null,null,null,null,null,null,null,null,"SATNPRO1509","30.451999999999998","0.42652","5"],
    [15973,"NA","2024-03-12 17:15:00",null,null,null,null,null,null,null,null,null,null,null,null,null,"SATNPRO1509","30.09","0.42144","5"],
    [15974,"NA","2024-03-12 17:30:00",null,null,null,null,null,null,null,null,null,null,null,null,null,"SATNPRO1509","29.102","0.40762","5"],
    [15975,"NA","2024-03-12 17:45:00",null,null,null,null,null,null,null,null,null,null,null,null,null,"SATNPRO1509","28.932","0.40522","5"],
    [15976,"NA","2024-03-12 18:00:00",null,null,null,null,null,null,null,null,null,null,null,null,null,"SATNPRO1509","29.03","0.40666","5"],
    [15977,"NA","2024-03-12 18:15:00",null,null,null,null,null,null,null,null,null,null,null,null,null,"SATNPRO1509","29.812","0.41758","5"],
    [15978,"NA","2024-03-12 18:30:00",null,null,null,null,null,null,null,null,null,null,null,null,null,"SATNPRO1509","29.95","0.41948","5"],
    [15979,"NA","2024-03-12 18:45:00",null,null,null,null,null,null,null,null,null,null,null,null,null,"SATNPRO1509","30.024","0.42058","5"],
    [15980,"NA","2024-03-12 19:00:00",null,null,null,null,null,null,null,null,null,null,null,null,null,"SATNPRO1509","30.156","0.4224","5"],
    [15981,"NA","2024-03-12 19:15:00",null,null,null,null,null,null,null,null,null,null,null,null,null,"SATNPRO1509","30.066","0.42112","5"],
    [15982,"NA","2024-03-12 19:30:00",null,null,null,null,null,null,null,null,null,null,null,null,null,"SATNPRO1509","29.868","0.41836","5"],
    [15983,"NA","2024-03-12 19:45:00",null,null,null,null,null,null,null,null,null,null,null,null,null,"SATNPRO1509","29.756","0.41674","5"],
    [15984,"NA","2024-03-12 20:00:00",null,null,null,null,null,null,null,null,null,null,null,null,null,"SATNPRO1509","29.648","0.41526","5"],
    [15985,"NA","2024-03-12 20:15:00",null,null,null,null,null,null,null,null,null,null,null,null,null,"SATNPRO1509","29.982","0.41994","5"],
    [15986,"NA","2024-03-12 20:30:00",null,null,null,null,null,null,null,null,null,null,null,null,null,"SATNPRO1509","30.128","0.42196","5"],
    [15987,"NA","2024-03-12 20:45:00",null,null,null,null,null,null,null,null,null,null,null,null,null,"SATNPRO1509","30.16","0.42242","5"],
    [15988,"NA","2024-03-12 21:00:00",null,null,null,null,null,null,null,null,null,null,null,null,null,"SATNPRO1509","30.328","0.42482","5"],
    [15989,"NA","2024-03-12 21:15:00",null,null,null,null,null,null,null,null,null,null,null,null,null,"SATNPRO1509","30.48","0.42692","5"],
    [15990,"NA","2024-03-12 21:30:00",null,null,null,null,null,null,null,null,null,null,null,null,null,"SATNPRO1509","30.548","0.42786","5"],
    [15991,"NA","2024-03-12 21:45:00",null,null,null,null,null,null,null,null,null,null,null,null,null,"SATNPRO1509","30.57","0.42818","5"],
    [15992,"NA","2024-03-12 22:00:00",null,null,null,null,null,null,null,null,null,null,null,null,null,"SATNPRO1509","30.616","0.42886","5"],
    [15993,"NA","2024-03-12 22:15:00",null,null,null,null,null,null,null,null,null,null,null,null,null,"SATNPRO1509","30.81","0.43154","5"],
    [15994,"NA","2024-03-12 22:30:00",null,null,null,null,null,null,null,null,null,null,null,null,null,"SATNPRO1509","31.323999999999998","0.4388","5"],
    [15995,"NA","2024-03-12 22:45:00",null,null,null,null,null,null,null,null,null,null,null,null,null,"SATNPRO1509","31.422","0.44012","5"],
    [15996,"NA","2024-03-12 23:00:00",null,null,null,null,null,null,null,null,null,null,null,null,null,"SATNPRO1509","31.538","0.44174","5"],
    [15997,"NA","2024-03-12 23:15:00",null,null,null,null,null,null,null,null,null,null,null,null,null,"SATNPRO1509","31.498","0.4412","5"],
    [15998,"NA","2024-03-12 23:30:00",null,null,null,null,null,null,null,null,null,null,null,null,null,"SATNPRO1509","31.566","0.44214","5"],
    [15999,"NA","2024-03-12 23:45:00",null,null,null,null,null,null,null,null,null,null,null,null,null,"SATNPRO1509","31.594","0.44252","5"],
    [16000,"NA","2024-03-13 00:00:00",null,null,null,null,null,null,null,null,null,null,null,null,null,"SATNPRO1509","31.456","0.44058","5"],
    [16001,"NA","2024-03-13 00:15:00",null,null,null,null,null,null,null,null,null,null,null,null,null,"SATNPRO1509","31.468","0.4408","5"],
    [16002,"NA","2024-03-13 00:30:00",null,null,null,null,null,null,null,null,null,null,null,null,null,"SATNPRO1509","31.282","0.43812","5"],
    [16003,"NA","2024-03-13 00:45:00",null,null,null,null,null,null,null,null,null,null,null,null,null,"SATNPRO1509","31.554000000000002","0.44194","5"],
    [16004,"NA","2024-03-13 01:00:00",null,null,null,null,null,null,null,null,null,null,null,null,null,"SATNPRO1509","31.548","0.4419","5"],
    [16005,"NA","2024-03-13 01:15:00",null,null,null,null,null,null,null,null,null,null,null,null,null,"SATNPRO1509","31.496","0.44118","5"],
    [16006,"NA","2024-03-13 01:30:00",null,null,null,null,null,null,null,null,null,null,null,null,null,"SATNPRO1509","31.696","0.4439","5"],
    [16007,"NA","2024-03-13 01:45:00",null,null,null,null,null,null,null,null,null,null,null,null,null,"SATNPRO1509","31.96","0.44764","5"],
    [16008,"NA","2024-03-13 02:00:00",null,null,null,null,null,null,null,null,null,null,null,null,null,"SATNPRO1509","31.984","0.448","5"],
    [16009,"NA","2024-03-13 02:15:00",null,null,null,null,null,null,null,null,null,null,null,null,null,"SATNPRO1509","32.356","0.45324","5"],
    [16010,"NA","2024-03-13 02:30:00",null,null,null,null,null,null,null,null,null,null,null,null,null,"SATNPRO1509","32.372","0.45338","5"],
    [16011,"NA","2024-03-13 02:45:00",null,null,null,null,null,null,null,null,null,null,null,null,null,"SATNPRO1509","32.364","0.4533","5"],
    [16012,"NA","2024-03-13 03:00:00",null,null,null,null,null,null,null,null,null,null,null,null,null,"SATNPRO1509","32.398","0.45382","5"],
    [16013,"NA","2024-03-13 03:15:00",null,null,null,null,null,null,null,null,null,null,null,null,null,"SATNPRO1509","32.372","0.45338","5"],
    [16014,"NA","2024-03-13 03:30:00",null,null,null,null,null,null,null,null,null,null,null,null,null,"SATNPRO1509","32.382","0.45356","5"],
    [16015,"NA","2024-03-13 03:45:00",null,null,null,null,null,null,null,null,null,null,null,null,null,"SATNPRO1509","32.462","0.45472","5"],
    [16016,"NA","2024-03-13 04:00:00",null,null,null,null,null,null,null,null,null,null,null,null,null,"SATNPRO1509","32.730000000000004","0.45844","5"],
    [16017,"NA","2024-03-13 04:15:00",null,null,null,null,null,null,null,null,null,null,null,null,null,"SATNPRO1509","32.864","0.4603","5"],
    [16018,"NA","2024-03-13 04:30:00",null,null,null,null,null,null,null,null,null,null,null,null,null,"SATNPRO1509","33.02","0.4625","5"],
    [16019,"NA","2024-03-13 04:45:00",null,null,null,null,null,null,null,null,null,null,null,null,null,"SATNPRO1509","32.776","0.45914","5"],
    [16020,"NA","2024-03-13 05:00:00",null,null,null,null,null,null,null,null,null,null,null,null,null,"SATNPRO1509","32.964","0.46172","5"],
    [16021,"NA","2024-03-13 05:15:00",null,null,null,null,null,null,null,null,null,null,null,null,null,"SATNPRO1509","32.992","0.46212","5"],
    [16022,"NA","2024-03-13 05:30:00",null,null,null,null,null,null,null,null,null,null,null,null,null,"SATNPRO1509","32.824","0.45976","5"],
    [16023,"NA","2024-03-13 05:45:00",null,null,null,null,null,null,null,null,null,null,null,null,null,"SATNPRO1509","33.086","0.46344","5"],
    [16024,"NA","2024-03-13 06:00:00",null,null,null,null,null,null,null,null,null,null,null,null,null,"SATNPRO1509","32.95","0.46148","5"],
    [16025,"NA","2024-03-13 06:15:00",null,null,null,null,null,null,null,null,null,null,null,null,null,"SATNPRO1509","33.03","0.46266","5"],
    [16026,"NA","2024-03-13 06:30:00",null,null,null,null,null,null,null,null,null,null,null,null,null,"SATNPRO1509","32.862","0.46028","5"],
    [16027,"NA","2024-03-13 06:45:00",null,null,null,null,null,null,null,null,null,null,null,null,null,"SATNPRO1509","32.888","0.46062","5"],
    [16028,"NA","2024-03-13 07:00:00",null,null,null,null,null,null,null,null,null,null,null,null,null,"SATNPRO1509","32.766","0.45894","5"],
    [16029,"NA","2024-03-13 07:15:00",null,null,null,null,null,null,null,null,null,null,null,null,null,"SATNPRO1509","32.744","0.45864","5"],
    [16030,"NA","2024-03-13 07:30:00",null,null,null,null,null,null,null,null,null,null,null,null,null,"SATNPRO1509","32.786","0.45924","5"],
    [16031,"NA","2024-03-13 07:45:00",null,null,null,null,null,null,null,null,null,null,null,null,null,"SATNPRO1509","32.686","0.45786","5"],
    [16032,"NA","2024-03-13 08:00:00",null,null,null,null,null,null,null,null,null,null,null,null,null,"SATNPRO1509","32.636","0.45708","5"],
    [16033,"NA","2024-03-13 08:15:00",null,null,null,null,null,null,null,null,null,null,null,null,null,"SATNPRO1509","32.461999999999996","0.4547","5"],
    [16034,"NA","2024-03-13 08:30:00",null,null,null,null,null,null,null,null,null,null,null,null,null,"SATNPRO1509","32.52","0.4555","5"],
    [16035,"NA","2024-03-13 08:45:00",null,null,null,null,null,null,null,null,null,null,null,null,null,"SATNPRO1509","32.467999999999996","0.45478","5"],
    [16036,"NA","2024-03-13 09:00:00",null,null,null,null,null,null,null,null,null,null,null,null,null,"SATNPRO1509","32.28","0.45216","5"],
    [16037,"NA","2024-03-13 09:15:00",null,null,null,null,null,null,null,null,null,null,null,null,null,"SATNPRO1509","32.232","0.45148","5"],
    [16038,"NA","2024-03-13 09:30:00",null,null,null,null,null,null,null,null,null,null,null,null,null,"SATNPRO1509","32.168","0.4506","5"],
    [16039,"NA","2024-03-13 09:45:00",null,null,null,null,null,null,null,null,null,null,null,null,null,"SATNPRO1509","32.082","0.44934","5"],
    [16040,"NA","2024-03-13 10:00:00",null,null,null,null,null,null,null,null,null,null,null,null,null,"SATNPRO1509","32.108","0.44976","5"],
    [16041,"NA","2024-03-13 10:15:00",null,null,null,null,null,null,null,null,null,null,null,null,null,"SATNPRO1509","31.992","0.44812","5"],
    [16042,"NA","2024-03-13 10:45:00",null,null,null,null,null,null,null,null,null,null,null,null,null,"SATNPRO1963","29.13","0.408","5"],
    [16043,"HCEP03730560","2024-03-13 11:00:00","9.5097","3.1789","25.722","5.947","7.69","0.386","4.084","0.02","0.38","29.0161","4.60581","62.74","0","SATNPRO1963","29.556","0.41402","5"],
    [16044,"HCEP03730560","2024-03-13 11:15:00","9.5127","3.18029","25.444","5.957","7.7","0.356","4.062","0.02","0.3","29.0278","4.60742","62.86","0","SATNPRO1963","29.631999999999998","0.41504","5"],
    [16045,"HCEP03730560","2024-03-13 11:30:00","9.5254","3.18469","25.23","5.94","7.7","0.39","4.135","0.02","0.23","29.062","4.61209","62.7","0","SATNPRO1963","29.772","0.417","5"],
    [16046,"HCEP03730560","2024-03-13 11:45:00","9.5282","3.18561","25.016","5.906","7.7","0.363","4.287","0.02","0.3","29.0691","4.61306","62.36","0","SATNPRO1963","29.862","0.41824","5"],
    [16047,"HCEP03730560","2024-03-13 12:00:00","9.5268","3.18485","24.785","5.887","7.7","0.404","4.319","0.03","0.27","29.0627","4.61214","62.15","0","SATNPRO1963","29.604","0.41468","5"],
    [16048,"HCEP03730560","2024-03-13 12:15:00","9.5242","3.18359","24.63","5.869","7.7","0.374","4.278","0.03","0.23","29.0521","4.61066","61.95","0","SATNPRO1963","29.638","0.4151","5"],
    [16049,"HCEP03730560","2024-03-13 12:30:00","9.5225","3.18302","24.576","5.86","7.69","0.396","4.263","0.04","0.38","29.0477","4.61006","61.85","0","SATNPRO1963","29.716","0.41626","5"],
    [16050,"HCEP03730560","2024-03-13 12:45:00","9.5193","3.18176","24.457","5.849","7.69","0.374","4.099","0.04","0.25","29.0377","4.60867","61.73","0","SATNPRO1963","29.584","0.41436","5"],
    [16051,"HCEP03730560","2024-03-13 13:00:00","9.518","3.18113","24.446","5.828","7.68","0.407","4.086","0.03","0.2","29.0323","4.60793","61.5","0","SATNPRO1963","29.346","0.41104","5"],
    [16052,"HCEP03730560","2024-03-13 13:15:00","9.5186","3.18129","24.471","5.813","7.68","0.376","4.244","0.02","0.21","29.0335","4.60809","61.34","0","SATNPRO1963","29.444","0.4124","5"],
    [16053,"HCEP03730560","2024-03-13 13:30:00","9.514","3.17952","24.489","5.797","7.68","0.421","4.026","0.05","0.31","29.0193","4.60613","61.16","0","SATNPRO1963","29.188","0.4088","5"],
    [16054,"HCEP03730560","2024-03-13 13:45:00","9.5169","3.18044","24.547","5.799","7.67","0.374","4.199","0.02","0.27","29.0263","4.60708","61.19","0","SATNPRO1963","29.476","0.4129","5"],
    [16055,"HCEP03730560","2024-03-13 14:00:00","9.5187","3.18148","24.622","5.813","7.67","0.384","4.297","0.02","0.3","29.0353","4.60835","61.35","0","SATNPRO1963","29.626","0.41496","5"],
    [16056,"HCEP03730560","2024-03-13 14:15:00","9.5211","3.18205","24.723","5.824","7.67","0.381","4.714","0.03","0.33","29.039","4.60884","61.46","0","SATNPRO1963","29.552","0.41394","5"],
    [16057,"HCEP03730560","2024-03-13 14:30:00","9.5233","3.18334","24.858","5.844","7.67","0.399","3.874","0.03","0.19","29.0502","4.61042","61.69","0","SATNPRO1963","29.566","0.41412","5"],
    [16058,"HCEP03730560","2024-03-13 14:45:00","9.5194","3.18225","25.018","5.869","7.67","0.357","4.068","0.02","0.29","29.0424","4.60938","61.93","0","SATNPRO1963","29.608","0.41472","5"],
    [16059,"HCEP03730560","2024-03-13 15:00:00","9.5203","3.18197","25.19","5.835","7.66","0.408","4.545","0.02","0.22","29.0387","4.60884","61.58","0","SATNPRO1963","29.522","0.4135","5"],
    [16060,"HCEP03730560","2024-03-13 15:15:00","9.5175","3.18078","25.367","5.855","7.66","0.37","4.217","0.03","0.23","29.0289","4.60749","61.79","0","SATNPRO1963","29.574","0.4142","5"],
    [16061,"HCEP03730560","2024-03-13 15:30:00","9.5123","3.17887","25.558","5.843","7.66","0.404","4.142","0.02","0.23","29.0137","4.60542","61.64","0","SATNPRO1963","29.244","0.40958","5"],
    [16062,"HCEP03730560","2024-03-13 15:45:00","9.4679","3.16571","25.747","5.875","7.66","0.374","3.692","0.02","0.16","28.9166","4.59226","61.88","0","SATNPRO1963","29.028","0.4066","5"],
    [16063,"HCEP03730560","2024-03-13 16:00:00","9.4767","3.16897","25.858","5.849","7.66","0.423","4.03","0.03","0.18","28.9423","4.59581","61.63","0","SATNPRO1963","28.944","0.4054","5"],
    [16064,"HCEP03730560","2024-03-13 16:15:00","9.4811","3.16983","26.004","5.825","7.66","0.393","4.29","0.02","0.36","28.9474","4.59647","61.38","0","SATNPRO1963","29.098","0.4076","5"],
    [16065,"HCEP03730560","2024-03-13 16:30:00","9.4789","3.16934","26.169","5.822","7.66","0.426","4.381","0.03","0.33","28.9442","4.59606","61.35","0","SATNPRO1963","29.344","0.41104","5"],
    [16066,"HCEP03730560","2024-03-13 16:45:00","9.4233","3.14868","26.335","5.885","7.66","0.401","4.227","0.02","0.62","28.7802","4.57348","61.87","0","SATNPRO1963","28.887999999999998","0.4046","5"],
    [16067,"HCEP03730560","2024-03-13 17:00:00","9.3887","3.13829","26.505","5.994","7.67","0.386","3.071","0.02","0.14","28.7027","4.56297","62.94","0","SATNPRO1963","28.378","0.39748","5"],
    [16068,"HCEP03730560","2024-03-13 17:15:00","9.5044","3.17767","26.687","5.848","7.66","0.398","4.703","0.02","0.35","29.0075","4.60473","61.68","0","SATNPRO1963","29.334","0.41082","5"],
    [16069,"HCEP03730560","2024-03-13 17:30:00","9.5189","3.18151","26.861","5.764","7.65","0.428","5.063","0.04","0.23","29.0345","4.60836","60.82","0","SATNPRO1963","29.416","0.41198","5"],
    [16070,"HCEP03730560","2024-03-13 17:45:00","9.5217","3.18247","27.012","5.749","7.65","0.388","5.094","0.02","0.34","29.0419","4.60938","60.68","0","SATNPRO1963","29.48","0.41294","5"],
    [16071,"HCEP03730560","2024-03-13 18:00:00","9.5197","3.18168","27.157","5.744","7.65","0.414","4.799","0.02","0.19","29.0355","4.6085","60.62","0","SATNPRO1963","29.326","0.41074","5"],
    [16072,"HCEP03730560","2024-03-13 18:15:00","9.5132","3.17953","27.25","5.77","7.65","0.371","4.37","0.02","0.17","29.019","4.60625","60.87","0","SATNPRO1963","29.218","0.40924","5"],
    [16073,"HCEP03730560","2024-03-13 18:30:00","9.4878","3.17097","27.394","5.86","7.65","0.385","3.611","0.02","0.15","28.9531","4.59725","61.77","0","SATNPRO1963","29.258","0.40982","5"],
    [16074,"HCEP03730560","2024-03-13 18:45:00","9.4896","3.17163","27.507","5.865","7.65","0.361","3.758","0.03","0.17","28.9581","4.59794","61.82","0","SATNPRO1963","29.168","0.40852","5"],
    [16075,"HCEP03730560","2024-03-13 19:00:00","9.4858","3.17021","27.556","5.893","7.65","0.376","3.377","0.02","0.18","28.9468","4.59639","62.11","0","SATNPRO1963","29.348","0.41108","5"],
    [16076,"HCEP03730560","2024-03-13 19:15:00","9.4952","3.17326","27.593","5.851","7.65","0.348","3.509","0.04","0.18","28.9701","4.59957","61.68","0","SATNPRO1963","29.474","0.41284","5"],
    [16077,"HCEP03730560","2024-03-13 19:30:00","9.518","3.1809","27.618","5.751","7.65","0.406","4.53","0.03","0.48","29.0288","4.6076","60.69","0","SATNPRO1963","29.5","0.41324","5"],
    [16078,"HCEP03730560","2024-03-13 19:45:00","9.5203","3.18153","27.616","5.717","7.64","0.367","5.08","0.01","0.2","29.0332","4.60819","60.33","0","SATNPRO1963","29.112","0.4078","5"],
    [16079,"HCEP03730560","2024-03-13 20:00:00","9.4855","3.17078","27.574","5.837","7.64","0.362","3.008","0.02","0.19","28.9528","4.59726","61.52","0","SATNPRO1963","29.462","0.41264","5"],
    [16080,"HCEP03730560","2024-03-13 20:15:00","9.519","3.18147","27.556","5.749","7.64","0.371","4.974","0.02","0.3","29.0337","4.60828","60.67","0","SATNPRO1963","29.366","0.41132","5"],
    [16081,"HCEP03730560","2024-03-13 20:30:00","9.4565","3.16005","27.499","5.855","7.64","0.374","3.095","0.02","0.21","28.8678","4.58556","61.63","0","SATNPRO1963","28.794","0.4033","5"],
    [16082,"HCEP03730560","2024-03-13 20:45:00","9.422","3.15084","27.44","5.918","7.65","0.468","5.591","0.06","0.39","28.8025","4.57678","62.22","0","SATNPRO1963","28.748","0.4027","5"],
    [16083,"HCEP03730560","2024-03-13 21:00:00","9.4596","3.16305","27.355","5.79","7.64","0.517","7.33","0.03","0.5","28.8957","4.5895","60.96","0","SATNPRO1963","28.896","0.40474","5"],
    [16084,"HCEP03730560","2024-03-13 21:15:00","9.4593","3.16349","27.255","5.792","7.64","0.504","7.544","0.03","0.8","28.9005","4.59019","60.98","0","SATNPRO1963","29.22","0.40928","5"],
    [16085,"HCEP03730560","2024-03-13 21:30:00","9.4844","3.17041","27.16","5.724","7.64","0.481","7.178","0.03","1.46","28.9501","4.59687","60.32","0","SATNPRO1963","29.03","0.40662","5"],
    [16086,"HCEP03730560","2024-03-13 21:45:00","9.4951","3.174","27.081","5.695","7.63","0.432","6.39","0.02","0.5","28.9778","4.60065","60.05","0","SATNPRO1963","29.086","0.4074","5"],
    [16087,"HCEP03730560","2024-03-13 22:00:00","9.4936","3.17386","27.006","5.685","7.63","0.475","6.13","0.03","0.6","28.9776","4.60064","59.94","0","SATNPRO1963","29.056","0.40696","5"],
    [16088,"HCEP03730560","2024-03-13 22:15:00","9.4969","3.17478","26.914","5.674","7.63","0.464","5.629","0.05","0.23","28.9843","4.60154","59.83","0","SATNPRO1963","29.188","0.40882","5"],
    [16089,"HCEP03730560","2024-03-13 22:30:00","9.4974","3.17496","26.804","5.663","7.63","0.433","4.484","0.02","0.2","28.9857","4.60173","59.71","0","SATNPRO1963","29.078","0.4073","5"],
    [16090,"HCEP03730560","2024-03-13 22:45:00","9.4978","3.17503","26.694","5.661","7.63","0.445","4.945","0.04","0.22","28.9862","4.60178","59.7","0","SATNPRO1963","29.714","0.41618","5"],
    [16091,"HCEP03730560","2024-03-13 23:00:00","9.4963","3.17479","26.593","5.67","7.63","0.463","5.095","0.05","0.35","28.985","4.60164","59.79","0","SATNPRO1963","29.166","0.40854","5"],
    [16092,"HCEP03730560","2024-03-13 23:15:00","9.4945","3.17452","26.479","5.668","7.63","0.435","6.075","0.02","0.58","28.9838","4.60149","59.76","0","SATNPRO1963","29.324","0.41074","5"],
    [16093,"HCEP03730560","2024-03-13 23:30:00","9.4933","3.17411","26.366","5.676","7.63","0.44","5","0.03","0.28","28.9807","4.60106","59.84","0","SATNPRO1963","29.42","0.41206","5"],
    [16094,"HCEP03730560","2024-03-13 23:45:00","9.4941","3.17479","26.239","5.665","7.63","0.413","5.711","0.05","0.63","28.9869","4.60193","59.73","0","SATNPRO1963","29.266","0.40992","5"],
    [16095,"HCEP03730560","2024-03-14 00:00:00","9.4975","3.17588","26.115","5.648","7.63","0.443","5.096","0.03","0.31","28.9952","4.60306","59.56","0","SATNPRO1963","29.17","0.40858","5"],
    [16096,"HCEP03730560","2024-03-14 00:15:00","9.4997","3.17654","25.99","5.645","7.63","0.442","4.961","0.06","0.22","29.0001","4.60371","59.53","0","SATNPRO1963","29.376","0.41146","5"],
    [16097,"HCEP03730560","2024-03-14 00:30:00","9.5042","3.17809","25.887","5.668","7.63","0.446","4.781","0.04","0.29","29.0122","4.60536","59.78","0","SATNPRO1963","29.338","0.41094","5"],
    [16098,"HCEP03730560","2024-03-14 00:45:00","9.5103","3.17984","25.86","5.66","7.63","0.402","4.816","0.02","0.33","29.025","4.6071","59.72","0","SATNPRO1963","29.458","0.4126","5"],
    [16099,"HCEP03730560","2024-03-14 01:00:00","9.5107","3.1796","25.841","5.683","7.63","0.417","4.128","0.03","0.21","29.0222","4.60668","59.95","0","SATNPRO1963","29.55","0.41392","5"],
    [16100,"HCEP03730560","2024-03-14 01:15:00","9.5136","3.18132","25.838","5.723","7.63","0.378","4.244","0.02","0.24","29.0373","4.6088","60.39","0","SATNPRO1963","29.8","0.41738","5"],
    [16101,"HCEP03730560","2024-03-14 01:30:00","9.5232","3.1839","25.878","5.683","7.63","0.409","4.703","0.01","0.23","29.0555","4.61125","59.99","0","SATNPRO1963","29.368","0.41132","5"],
    [16102,"HCEP03730560","2024-03-14 01:45:00","9.5216","3.18405","25.941","5.689","7.63","0.373","4.535","0.02","0.21","29.0583","4.61167","60.05","0","SATNPRO1963","29.638","0.41512","5"],
    [16103,"HCEP03730560","2024-03-14 02:00:00","9.5188","3.18297","26.015","5.707","7.63","0.394","4.396","0.01","0.18","29.0497","4.61049","60.24","0","SATNPRO1963","29.416","0.41202","5"],
    [16104,"HCEP03730560","2024-03-14 02:15:00","9.5289","3.18556","26.099","5.681","7.63","0.372","4.594","0.02","0.22","29.0676","4.61289","59.97","0","SATNPRO1963","29.57","0.4142","5"],
    [16105,"HCEP03730560","2024-03-14 02:30:00","9.5277","3.1849","26.249","5.702","7.63","0.381","4.115","0.02","0.42","29.0619","4.6121","60.2","0","SATNPRO1963","29.634","0.4151","5"],
    [16106,"HCEP03730560","2024-03-14 02:45:00","9.5374","3.18843","26.369","5.688","7.63","0.356","4.575","0.01","0.24","29.0896","4.61592","60.07","0","SATNPRO1963","29.568","0.41414","5"],
    [16107,"HCEP03730560","2024-03-14 03:00:00","9.5396","3.18912","26.497","5.663","7.63","0.383","4.446","0.01","0.19","29.0947","4.61661","59.81","0","SATNPRO1963","29.8","0.4174","5"],
    [16108,"HCEP03730560","2024-03-14 03:15:00","9.5428","3.1899","26.627","5.661","7.63","0.348","4.378","0.02","0.17","29.1","4.61733","59.8","0","SATNPRO1963","29.638","0.41512","5"],
    [16109,"HCEP03730560","2024-03-14 03:30:00","9.5457","3.19089","26.788","5.68","7.63","0.363","4.1","0.01","0.23","29.1076","4.61837","60","0","SATNPRO1963","29.84","0.41796","5"],
    [16110,"HCEP03730560","2024-03-14 03:45:00","9.5533","3.19315","26.932","5.704","7.63","0.324","3.987","0.01","0.31","29.1241","4.62062","60.27","0","SATNPRO1963","29.98","0.4199","5"],
    [16111,"HCEP03730560","2024-03-14 04:00:00","9.5608","3.19599","27.095","5.744","7.63","0.343","3.568","0.01","0.14","29.1466","4.62372","60.72","0","SATNPRO1963","30.166","0.42252","5"],
    [16112,"HCEP03730560","2024-03-14 04:15:00","9.5626","3.19655","27.191","5.757","7.63","0.321","3.909","0.01","0.25","29.1508","4.62429","60.85","0","SATNPRO1963","29.986","0.42","5"],
    [16113,"HCEP03730560","2024-03-14 04:30:00","9.565","3.19731","27.362","5.777","7.63","0.343","3.383","0.01","0.18","29.1564","4.62506","61.07","0","SATNPRO1963","30.114","0.42186","5"],
    [16114,"HCEP03730560","2024-03-14 04:45:00","9.5671","3.19809","27.481","5.774","7.63","0.316","3.4","0.01","0.21","29.1625","4.62592","61.05","0","SATNPRO1963","30.148","0.4223","5"],
    [16115,"HCEP03730560","2024-03-14 05:00:00","9.5644","3.19722","27.572","5.773","7.63","0.361","3.558","0.01","0.17","29.1559","4.62502","61.03","0","SATNPRO1963","30.094","0.42152","5"],
    [16116,"HCEP03730560","2024-03-14 05:15:00","9.5596","3.19534","27.671","5.776","7.63","0.33","3.719","0.01","0.19","29.1407","4.62293","61.05","0","SATNPRO1963","30.156","0.42242","5"],
    [16117,"HCEP03730560","2024-03-14 05:30:00","9.5564","3.19467","27.756","5.784","7.64","0.366","3.618","0.01","0.23","29.1365","4.62239","61.13","0","SATNPRO1963","30.062","0.42108","5"],
    [16118,"HCEP03730560","2024-03-14 05:45:00","9.5578","3.19535","27.868","5.794","7.64","0.337","3.911","0.01","0.28","29.1422","4.62319","61.24","0","SATNPRO1963","30.172","0.4226","5"],
    [16119,"HCEP03730560","2024-03-14 06:00:00","9.5612","3.19674","27.98","5.788","7.64","0.384","4.061","0.02","0.33","29.1534","4.62474","61.19","0","SATNPRO1963","30.144","0.42222","5"],
    [16120,"HCEP03730560","2024-03-14 06:15:00","9.5691","3.19935","28.064","5.778","7.64","0.345","4.259","0.02","0.28","29.1733","4.62747","61.1","0","SATNPRO1963","30.208","0.42312","5"],
    [16121,"HCEP03730560","2024-03-14 06:30:00","9.5841","3.20493","28.116","5.802","7.64","0.352","3.505","0.01","0.21","29.2175","4.63353","61.39","0","SATNPRO1963","30.516","0.42742","5"],
    [16122,"HCEP03730560","2024-03-14 06:45:00","9.5893","3.20688","28.146","5.832","7.64","0.309","3.099","0.02","0.17","29.2328","4.63564","61.72","0","SATNPRO1963","30.464000000000002","0.42668","5"],
    [16123,"HCEP03730560","2024-03-14 07:00:00","9.5882","3.20642","28.15","5.846","7.64","0.346","2.959","0.02","0.18","29.2292","4.63514","61.86","0","SATNPRO1963","30.464","0.42668","5"],
    [16124,"HCEP03730560","2024-03-14 07:15:00","9.5857","3.20582","28.141","5.857","7.64","0.297","2.516","0.01","0.4","29.2251","4.6346","61.97","0","SATNPRO1963","30.642","0.42922","5"],
    [16125,"HCEP03730560","2024-03-14 07:30:00","9.5837","3.20508","28.117","5.873","7.64","0.323","2.016","0.02","0.14","29.2193","4.6338","62.14","0","SATNPRO1963","30.648","0.4293","5"],
    [16126,"HCEP03730560","2024-03-14 07:45:00","9.5857","3.20578","28.068","5.863","7.64","0.311","2.662","0.02","0.24","29.2247","4.63454","62.04","0","SATNPRO1963","30.706","0.43008","5"],
    [16127,"HCEP03730560","2024-03-14 08:00:00","9.5857","3.20586","27.994","5.86","7.64","0.347","2.798","0.04","0.17","29.2255","4.63465","62.01","0","SATNPRO1963","30.594","0.42852","5"],
    [16128,"HCEP03730560","2024-03-14 08:15:00","9.587","3.20612","27.902","5.847","7.64","0.299","2.703","0.01","0.14","29.2272","4.63486","61.87","0","SATNPRO1963","30.636","0.42912","5"],
    [16129,"HCEP03730560","2024-03-14 08:30:00","9.588","3.20645","27.832","5.835","7.64","0.345","2.768","0.02","0.21","29.2297","4.6352","61.75","0","SATNPRO1963","30.544","0.42778","5"],
    [16130,"HCEP03730560","2024-03-14 08:45:00","9.5885","3.20661","27.708","5.823","7.64","0.31","2.978","0.02","0.17","29.231","4.63537","61.62","0","SATNPRO1963","30.816","0.43162","5"],
    [16131,"HCEP03730560","2024-03-14 09:00:00","9.5887","3.20655","27.573","5.828","7.64","0.374","2.614","0.08","0.11","29.2303","4.63526","61.68","0","SATNPRO1963","30.764","0.43088","5"],
    [16132,"HCEP03730560","2024-03-14 09:15:00","9.5891","3.2067","27.404","5.826","7.64","0.311","2.594","0.02","0.11","29.2316","4.63543","61.65","0","SATNPRO1963","30.658","0.4294","5"],
    [16133,"HCEP03730560","2024-03-14 09:30:00","9.5901","3.2072","27.219","5.814","7.64","0.349","2.843","0.02","0.13","29.2359","4.63601","61.53","0","SATNPRO1963","30.802","0.43148","5"],
    [16134,"HCEP03730560","2024-03-14 09:45:00","9.5916","3.20758","27.024","5.813","7.64","0.316","3.005","0.01","0.14","29.2386","4.63636","61.52","0","SATNPRO1963","30.764","0.43092","5"],
    [16135,"HCEP03730560","2024-03-14 10:00:00","9.5944","3.20836","26.83","5.784","7.64","0.361","3.323","0.02","0.19","29.2442","4.6371","61.22","0","SATNPRO1963","30.516000000000002","0.42744","5"],
    [16136,"HCEP03730560","2024-03-14 10:15:00","9.5961","3.20881","26.635","5.779","7.63","0.317","3.289","0.02","0.18","29.2474","4.63753","61.17","0","SATNPRO1963","30.798000000000002","0.43134","5"],
    [16137,"HCEP03730560","2024-03-14 10:30:00","9.5972","3.20912","26.411","5.771","7.63","0.348","3.216","0.01","0.22","29.2498","4.63783","61.09","0","SATNPRO1963","30.796","0.43136","5"],
    [16138,"HCEP03730560","2024-03-14 10:45:00","9.5979","3.20939","26.194","5.768","7.63","0.314","3.544","0.02","0.27","29.252","4.63813","61.06","0","SATNPRO1963","30.67","0.4296","5"],
    [16139,"HCEP03730560","2024-03-14 11:00:00","9.5988","3.20976","25.958","5.789","7.63","0.345","2.992","0.02","0.22","29.255","4.63854","61.29","0","SATNPRO1963","30.732","0.4304","5"],
    [16140,"HCEP03730560","2024-03-14 11:15:00","9.5988","3.2096","25.713","5.778","7.63","0.314","3.568","0.01","0.32","29.2535","4.63831","61.17","0","SATNPRO1963","30.638","0.42916","5"],
    [16141,"HCEP03730560","2024-03-14 11:30:00","9.5991","3.2097","25.462","5.767","7.63","0.353","3.373","0.02","0.18","29.2544","4.63841","61.05","0","SATNPRO1963","30.714","0.4302","5"],
    [16142,"HCEP03730560","2024-03-14 11:45:00","9.5989","3.2096","25.224","5.751","7.63","0.319","3.769","0.01","0.17","29.2536","4.63829","60.89","0","SATNPRO1963","30.75","0.4307","5"],
    [16143,"HCEP03730560","2024-03-14 12:00:00","9.5994","3.2098","24.993","5.751","7.63","0.348","3.524","0.02","0.17","29.2554","4.63852","60.88","0","SATNPRO1963","30.628","0.42898","5"],
    [16144,"HCEP03730560","2024-03-14 12:15:00","9.6002","3.21003","24.743","5.748","7.63","0.312","3.318","0.02","0.14","29.2571","4.63874","60.85","0","SATNPRO1963","30.738","0.4305","5"],
    [16145,"HCEP03730560","2024-03-14 12:30:00","9.6011","3.21031","24.548","5.753","7.63","0.349","3.338","0.01","0.21","29.2594","4.63904","60.91","0","SATNPRO1963","30.656","0.4294","5"],
    [16146,"HCEP03730560","2024-03-14 12:45:00","9.6008","3.21012","24.419","5.733","7.63","0.315","3.7","0.02","0.25","29.2577","4.6388","60.69","0","SATNPRO1963","30.662","0.4295","5"],
    [16147,"HCEP03730560","2024-03-14 13:00:00","9.6009","3.21012","24.313","5.717","7.63","0.359","3.695","0.02","0.27","29.2577","4.63878","60.53","0","SATNPRO1963","30.578","0.42832","5"],
    [16148,"HCEP03730560","2024-03-14 13:15:00","9.599","3.2092","24.247","5.692","7.63","0.331","3.697","0.02","0.42","29.25","4.63771","60.26","0","SATNPRO1963","30.618000000000002","0.42884","5"],
    [16149,"HCEP03730560","2024-03-14 13:30:00","9.5972","3.20835","24.204","5.674","7.62","0.355","3.594","0.01","0.34","29.2429","4.63672","60.06","0","SATNPRO1963","30.548","0.42788","5"],
    [16150,"HCEP03730560","2024-03-14 13:45:00","9.5976","3.20853","24.195","5.666","7.62","0.316","3.498","0.02","0.21","29.2443","4.63692","59.98","0","SATNPRO1963","30.766000000000002","0.43092","5"],
    [16151,"HCEP03730560","2024-03-14 14:00:00","9.5958","3.20771","24.219","5.656","7.62","0.364","3.273","0.02","0.19","29.2376","4.63599","59.87","0","SATNPRO1963","30.524","0.42752","5"],
    [16152,"HCEP03730560","2024-03-14 14:15:00","9.5991","3.20934","24.233","5.674","7.62","0.34","3.837","0.04","0.4","29.2513","4.63789","60.07","0","SATNPRO1963","30.328","0.42482","5"],
    [16153,"HCEP03730560","2024-03-14 14:30:00","9.6","3.20958","24.277","5.682","7.62","0.358","3.446","0.03","0.2","29.2529","4.63811","60.15","0","SATNPRO1963","30.432","0.42622","5"],
    [16154,"HCEP03730560","2024-03-14 14:45:00","9.5996","3.20952","24.365","5.684","7.63","0.317","3.357","0.03","0.28","29.2527","4.63809","60.18","0","SATNPRO1963","30.726","0.43038","5"],
    [16155,"HCEP03730560","2024-03-14 15:00:00","9.5995","3.20955","24.458","5.685","7.63","0.352","3.27","0.02","0.15","29.253","4.63815","60.19","0","SATNPRO1963","30.718","0.43026","5"],
    [16156,"HCEP03730560","2024-03-14 15:15:00","9.5944","3.20735","24.632","5.669","7.63","0.304","3.221","0.02","0.21","29.2349","4.63565","60","0","SATNPRO1963","30.552","0.42792","5"],
    [16157,"HCEP03730560","2024-03-14 15:30:00","9.597","3.20851","24.754","5.679","7.62","0.348","3.408","0.01","0.19","29.2445","4.63698","60.12","0","SATNPRO1963","30.592","0.42848","5"],
    [16158,"HCEP03730560","2024-03-14 15:45:00","9.5978","3.2088","24.9","5.685","7.63","0.314","3.22","0.05","0.23","29.2467","4.6373","60.18","0","SATNPRO1963","30.794","0.43134","5"],
    [16159,"HCEP03730560","2024-03-14 16:00:00","9.598","3.20892","25.068","5.682","7.63","0.35","3.11","0.03","0.16","29.2476","4.63744","60.15","0","SATNPRO1963","30.694","0.42992","5"],
    [16160,"HCEP03730560","2024-03-14 16:15:00","9.5978","3.20863","25.23","5.673","7.62","0.313","3.25","0.01","0.36","29.2448","4.63705","60.05","0","SATNPRO1963","30.788","0.4312","5"],
    [16161,"HCEP03730560","2024-03-14 16:30:00","9.6003","3.20972","25.403","5.67","7.62","0.356","3.316","0.02","0.2","29.2537","4.63828","60.03","0","SATNPRO1963","30.814","0.43162","5"],
    [16162,"HCEP03730560","2024-03-14 16:45:00","9.6019","3.21008","25.547","5.674","7.62","0.307","3.36","0.04","0.15","29.2559","4.63859","60.07","0","SATNPRO1963","30.584","0.42836","5"],
    [16163,"HCEP03730560","2024-03-14 17:00:00","9.6068","3.21153","25.739","5.607","7.62","0.369","4.165","0.02","0.15","29.2664","4.64002","59.37","0","SATNPRO1963","30.538","0.42776","5"],
    [16164,"HCEP03730560","2024-03-14 17:15:00","9.6053","3.21109","25.908","5.61","7.62","0.331","4.241","0.01","0.15","29.2632","4.63959","59.41","0","SATNPRO1963","30.63","0.42904","5"],
    [16165,"HCEP03730560","2024-03-14 17:30:00","9.6056","3.21073","26.085","5.573","7.62","0.349","3.668","0.01","0.19","29.2593","4.63903","59.01","0","SATNPRO1963","30.502","0.42722","5"],
    [16166,"HCEP03730560","2024-03-14 17:45:00","9.6","3.20868","26.265","5.581","7.62","0.304","3.187","0.02","0.19","29.2431","4.63682","59.08","0","SATNPRO1963","30.44","0.42634","5"],
    [16167,"HCEP03730560","2024-03-14 18:00:00","9.5976","3.20779","26.46","5.577","7.62","0.336","2.824","0.01","0.13","29.236","4.63586","59.03","0","SATNPRO1963","30.498","0.42716","5"],
    [16168,"HCEP03730560","2024-03-14 18:15:00","9.5893","3.20515","26.648","5.644","7.62","0.292","2.647","0.01","0.11","29.216","4.63314","59.72","0","SATNPRO1963","30.386","0.42558","5"],
    [16169,"HCEP03730560","2024-03-14 18:30:00","9.5892","3.20503","26.832","5.656","7.62","0.332","2.578","0.01","0.13","29.2148","4.63299","59.85","0","SATNPRO1963","30.402","0.42582","5"],
    [16170,"HCEP03730560","2024-03-14 18:45:00","9.5903","3.2055","26.968","5.65","7.62","0.297","2.523","0.02","0.13","29.2186","4.63352","59.79","0","SATNPRO1963","30.412","0.42594","5"],
    [16171,"HCEP03730560","2024-03-14 19:00:00","9.5882","3.20486","27.109","5.638","7.62","0.332","2.403","0.02","0.12","29.2138","4.63288","59.65","0","SATNPRO1963","30.316","0.42464","5"],
    [16172,"HCEP03730560","2024-03-14 19:15:00","9.5904","3.20566","27.221","5.625","7.62","0.307","2.782","0.03","0.31","29.22","4.63374","59.52","0","SATNPRO1963","30.6","0.42862","5"],
    [16173,"HCEP03730560","2024-03-14 19:30:00","9.5846","3.20387","27.319","5.661","7.62","0.339","2.509","0.02","0.18","29.2067","4.63193","59.89","0","SATNPRO1963","30.59","0.42848","5"],
    [16174,"HCEP03730560","2024-03-14 19:45:00","9.5914","3.20598","27.403","5.622","7.62","0.289","2.69","0.01","0.2","29.2224","4.63407","59.49","0","SATNPRO1963","30.578","0.4283","5"],
    [16175,"HCEP03730560","2024-03-14 20:00:00","9.5881","3.20494","27.463","5.618","7.62","0.336","2.628","0.03","0.19","29.2145","4.633","59.44","0","SATNPRO1963","30.27","0.42398","5"],
    [16176,"HCEP03730560","2024-03-14 20:15:00","9.5844","3.20388","27.508","5.649","7.62","0.287","2.576","0.03","0.16","29.2069","4.63197","59.77","0","SATNPRO1963","30.368","0.42536","5"],
    [16177,"HCEP03730560","2024-03-14 20:30:00","9.56","3.1958","27.529","5.742","7.63","0.324","2.038","0.02","0.08","29.1451","4.62354","60.7","0","SATNPRO1963","30.366","0.42534","5"],
    [16178,"HCEP03730560","2024-03-14 20:45:00","9.5281","3.18523","27.536","5.786","7.63","0.288","2.292","0.01","0.12","29.0644","4.61253","61.09","0","SATNPRO1963","29.848","0.4181","5"],
    [16179,"HCEP03730560","2024-03-14 21:00:00","9.5497","3.19293","27.52","5.782","7.63","0.356","2.182","0.03","0.1","29.1246","4.62078","61.09","0","SATNPRO1963","30.068","0.42114","5"],
    [16180,"HCEP03730560","2024-03-14 21:15:00","9.5926","3.2068","27.509","5.539","7.62","0.31","3.648","0.02","0.2","29.2296","4.63509","58.62","0","SATNPRO1963","30.12","0.42188","5"],
    [16181,"HCEP03730560","2024-03-14 21:30:00","9.5763","3.20129","27.497","5.589","7.62","0.348","3.026","0.01","0.14","29.1873","4.62931","59.12","0","SATNPRO1963","30.226","0.42336","5"],
    [16182,"HCEP03730560","2024-03-14 21:45:00","9.5675","3.19837","27.463","5.66","7.62","0.317","3.208","0.02","0.13","29.165","4.62627","59.84","0","SATNPRO1963","30.304","0.42448","5"],
    [16183,"HCEP03730560","2024-03-14 22:00:00","9.5571","3.19504","27.415","5.573","7.62","0.386","3.443","0.04","0.19","29.14","4.62285","58.9","0","SATNPRO1963","29.958","0.41962","5"],
    [16184,"HCEP03730560","2024-03-14 22:15:00","9.5585","3.1959","27.386","5.53","7.61","0.334","3.478","0.02","0.21","29.1474","4.6239","58.45","0","SATNPRO1963","30.138","0.42214","5"],
    [16185,"HCEP03730560","2024-03-14 22:30:00","9.5574","3.19558","27.295","5.541","7.61","0.37","4.464","0.02","0.36","29.1451","4.62358","58.56","0","SATNPRO1963","29.808","0.41752","5"],
    [16186,"HCEP03730560","2024-03-14 22:45:00","9.5392","3.18903","27.23","5.596","7.62","0.32","3.134","0.02","0.18","29.0939","4.61654","59.1","0","SATNPRO1963","29.9","0.41876","5"],
    [16187,"HCEP03730560","2024-03-14 23:00:00","9.5442","3.19121","27.155","5.58","7.62","0.375","3.448","0.01","0.26","29.1118","4.61902","58.94","0","SATNPRO1963","29.646","0.41522","5"],
    [16188,"HCEP03730560","2024-03-14 23:15:00","9.5592","3.19627","27.078","5.554","7.61","0.331","3.378","0.03","0.17","29.1507","4.62433","58.71","0","SATNPRO1963","30.026","0.42056","5"],
    [16189,"HCEP03730560","2024-03-14 23:30:00","9.566","3.19803","26.996","5.535","7.61","0.347","3.225","0.01","0.16","29.163","4.62598","58.52","0","SATNPRO1963","29.974","0.4198","5"],
    [16190,"HCEP03730560","2024-03-14 23:45:00","9.5526","3.19425","26.918","5.564","7.61","0.334","3.163","0.02","0.23","29.1358","4.62231","58.8","0","SATNPRO1963","30.05","0.4209","5"],
    [16191,"HCEP03730560","2024-03-15 00:00:00","9.5583","3.1956","26.838","5.527","7.61","0.369","3.153","0.01","0.08","29.1448","4.6235","58.42","0","SATNPRO1963","29.768","0.41698","5"],
    [16192,"HCEP03730560","2024-03-15 00:15:00","9.5639","3.19656","26.76","5.428","7.61","0.342","4.396","0.02","0.21","29.1499","4.62413","57.38","0","SATNPRO1963","29.802","0.4174","5"],
    [16193,"HCEP03730560","2024-03-15 00:30:00","9.5496","3.19252","26.67","5.448","7.61","0.389","4.01","0.03","0.22","29.1208","4.6202","57.56","0","SATNPRO1963","29.682","0.41576","5"],
    [16194,"HCEP03730560","2024-03-15 00:45:00","9.5595","3.19608","26.587","5.433","7.6","0.349","4.182","0.02","0.43","29.1488","4.62404","57.43","0","SATNPRO1963","29.628","0.415","5"],
    [16195,"HCEP03730560","2024-03-15 01:00:00","9.5733","3.20027","26.509","5.403","7.6","0.396","5.057","0.01","0.26","29.1799","4.62824","57.14","0","SATNPRO1963","29.77","0.41694","5"],
    [16196,"HCEP03730560","2024-03-15 01:15:00","9.5908","3.2057","26.419","5.335","7.6","0.356","5.653","0.03","0.29","29.2205","4.63375","56.46","0","SATNPRO1963","29.704","0.41602","5"],
    [16197,"HCEP03730560","2024-03-15 01:30:00","9.5924","3.20648","26.361","5.337","7.6","0.392","5.106","0.04","0.34","29.227","4.63466","56.48","0","SATNPRO1963","29.96","0.41966","5"],
    [16198,"HCEP03730560","2024-03-15 01:45:00","9.583","3.20389","26.308","5.415","7.6","0.34","4.743","0.02","0.28","29.2086","4.63218","57.29","0","SATNPRO1963","29.924","0.41914","5"],
    [16199,"HCEP03730560","2024-03-15 02:00:00","9.5791","3.20228","26.289","5.48","7.6","0.379","3.807","0.02","0.18","29.1955","4.63036","57.97","0","SATNPRO1963","29.97","0.4198","5"],
    [16200,"HCEP03730560","2024-03-15 02:15:00","9.5772","3.20176","26.298","5.505","7.61","0.318","3.64","0.02","0.26","29.1918","4.62987","58.23","0","SATNPRO1963","30.114","0.42178","5"],
    [16201,"HCEP03730560","2024-03-15 02:30:00","9.5609","3.19625","26.34","5.643","7.61","0.342","2.505","0.01","0.12","29.1494","4.62408","59.65","0","SATNPRO1963","30.502","0.42718","5"],
    [16202,"HCEP03730560","2024-03-15 02:45:00","9.5758","3.20134","26.372","5.514","7.61","0.332","3.868","0.03","0.22","29.1887","4.62945","58.32","0","SATNPRO1963","30.132","0.42204","5"],
    [16203,"HCEP03730560","2024-03-15 03:00:00","9.5788","3.20219","26.409","5.456","7.61","0.384","4.397","0.02","0.18","29.1948","4.63028","57.71","0","SATNPRO1963","30.002","0.42028","5"],
    [16204,"HCEP03730560","2024-03-15 03:15:00","9.5788","3.20183","26.463","5.372","7.6","0.358","5.217","0.02","0.32","29.1911","4.62975","56.82","0","SATNPRO1963","29.79","0.41728","5"],
    [16205,"HCEP03730560","2024-03-15 03:30:00","9.5719","3.19951","26.515","5.405","7.6","0.394","4.75","0.02","0.26","29.1733","4.62732","57.16","0","SATNPRO1963","29.816","0.41762","5"],
    [16206,"HCEP03730560","2024-03-15 03:45:00","9.565","3.19735","26.601","5.449","7.6","0.351","5.121","0.02","0.31","29.1571","4.62512","57.6","0","SATNPRO1963","29.816","0.41762","5"],
    [16207,"HCEP03730560","2024-03-15 04:00:00","9.5586","3.19522","26.673","5.523","7.61","0.382","4.387","0.02","0.21","29.1408","4.6229","58.38","0","SATNPRO1963","29.98","0.41994","5"],
    [16208,"HCEP03730560","2024-03-15 04:15:00","9.5552","3.1942","26.768","5.567","7.61","0.345","4.638","0.02","0.27","29.1332","4.62188","58.83","0","SATNPRO1963","29.823999999999998","0.41776","5"],
    [16209,"HCEP03730560","2024-03-15 04:30:00","9.5536","3.19382","26.849","5.653","7.61","0.368","3.871","0.02","0.29","29.1306","4.62154","59.73","0","SATNPRO1963","30.294","0.4243","5"],
    [16210,"HCEP03730560","2024-03-15 04:45:00","9.5508","3.19293","26.927","5.685","7.62","0.325","4.022","0.02","0.16","29.1239","4.62063","60.07","0","SATNPRO1963","30.152","0.42236","5"],
    [16211,"HCEP03730560","2024-03-15 05:00:00","9.5508","3.19313","27.028","5.708","7.62","0.359","3.538","0.02","0.17","29.1259","4.62092","60.32","0","SATNPRO1963","30.012","0.42036","5"],
    [16212,"HCEP03730560","2024-03-15 05:15:00","9.5517","3.19349","27.136","5.72","7.62","0.318","3.858","0.01","0.27","29.1287","4.62132","60.44","0","SATNPRO1963","30.07","0.42118","5"],
    [16213,"HCEP03730560","2024-03-15 05:30:00","9.5609","3.19645","27.246","5.667","7.62","0.367","3.678","0.02","0.16","29.1511","4.62437","59.91","0","SATNPRO1963","29.93","0.41922","5"],
    [16214,"HCEP03730560","2024-03-15 05:45:00","9.5601","3.19595","27.352","5.635","7.62","0.334","4.49","0.02","0.49","29.1467","4.62376","59.57","0","SATNPRO1963","30.188000000000002","0.42282","5"],
    [16215,"HCEP03730560","2024-03-15 06:00:00","9.5633","3.19699","27.436","5.643","7.62","0.378","4.002","0.02","0.17","29.1545","4.62483","59.66","0","SATNPRO1963","30.166","0.4225","5"],
    [16216,"HCEP03730560","2024-03-15 06:15:00","9.5758","3.20107","27.518","5.626","7.62","0.308","3.557","0.01","0.18","29.1855","4.62906","59.5","0","SATNPRO1963","30.166","0.42256","5"],
    [16217,"HCEP03730560","2024-03-15 06:30:00","9.5822","3.20302","27.605","5.609","7.62","0.366","3.839","0.02","0.21","29.1999","4.63102","59.33","0","SATNPRO1963","30.274","0.42402","5"],
    [16218,"HCEP03730560","2024-03-15 06:45:00","9.5893","3.20527","27.696","5.584","7.61","0.336","4.488","0.01","0.24","29.2168","4.63332","59.08","0","SATNPRO1963","30.264","0.42392","5"],
    [16219,"HCEP03730560","2024-03-15 07:00:00","9.5923","3.20652","27.771","5.576","7.61","0.401","4.854","0.05","0.34","29.227","4.63473","59.01","0","SATNPRO1963","30.494","0.4271","5"],
    [16220,"HCEP03730560","2024-03-15 07:15:00","9.5966","3.20799","27.815","5.594","7.61","0.335","4.077","0.02","0.24","29.2382","4.63627","59.21","0","SATNPRO1963","30.402","0.42584","5"],
    [16221,"HCEP03730560","2024-03-15 07:30:00","9.5978","3.20851","27.851","5.61","7.62","0.371","3.569","0.03","0.18","29.2425","4.63687","59.38","0","SATNPRO1963","30.536","0.4277","5"],
    [16222,"HCEP03730560","2024-03-15 07:45:00","9.5991","3.20888","27.863","5.619","7.62","0.324","3.9","0.02","0.27","29.2452","4.63724","59.48","0","SATNPRO1963","30.602","0.42866","5"],
    [16223,"HCEP03730560","2024-03-15 08:00:00","9.6","3.20916","27.868","5.629","7.62","0.363","4.008","0.01","0.25","29.2473","4.63751","59.59","0","SATNPRO1963","30.644000000000002","0.42924","5"],
    [16224,"HCEP03730560","2024-03-15 08:15:00","9.6015","3.20982","27.851","5.647","7.62","0.311","3.639","0.01","0.18","29.2527","4.63826","59.78","0","SATNPRO1963","30.657999999999998","0.4294","5"],
    [16225,"HCEP03730560","2024-03-15 08:30:00","9.6024","3.21002","27.811","5.652","7.62","0.364","3.742","0.02","0.26","29.254","4.63844","59.83","0","SATNPRO1963","30.67","0.42962","5"],
    [16226,"HCEP03730560","2024-03-15 08:45:00","9.604","3.21055","27.75","5.643","7.62","0.323","3.81","0.02","0.21","29.2581","4.63899","59.74","0","SATNPRO1963","30.804","0.43146","5"],
    [16227,"HCEP03730560","2024-03-15 09:00:00","9.6061","3.21111","27.674","5.646","7.62","0.365","3.61","0.01","0.21","29.2621","4.63952","59.78","0","SATNPRO1963","30.9","0.43282","5"],
    [16228,"HCEP03730560","2024-03-15 09:15:00","9.6068","3.21132","27.578","5.633","7.62","0.326","3.989","0.02","0.22","29.2637","4.63973","59.64","0","SATNPRO1963","30.8","0.43142","5"],
    [16229,"HCEP03730560","2024-03-15 09:30:00","9.6096","3.21221","27.458","5.621","7.62","0.376","3.647","0.06","0.21","29.2704","4.64063","59.53","0","SATNPRO1963","30.852","0.43212","5"],
    [16230,"HCEP03730560","2024-03-15 09:45:00","9.6115","3.21275","27.32","5.615","7.62","0.314","3.602","0.03","0.16","29.2743","4.64115","59.46","0","SATNPRO1963","30.598","0.4286","5"],
    [16231,"HCEP03730560","2024-03-15 10:00:00","9.6121","3.21288","27.166","5.617","7.62","0.356","3.45","0.02","0.13","29.2752","4.64126","59.49","0","SATNPRO1963","30.812","0.43158","5"],
    [16232,"HCEP03730560","2024-03-15 10:15:00","9.6112","3.21275","27.005","5.619","7.62","0.299","3.39","0.03","0.14","29.2747","4.6412","59.51","0","SATNPRO1963","30.844","0.43198","5"],
    [16233,"HCEP03730560","2024-03-15 10:30:00","9.6135","3.21339","26.832","5.623","7.62","0.337","3.005","0.02","0.12","29.2793","4.64181","59.56","0","SATNPRO1963","30.642","0.42914","5"],
    [16234,"HCEP03730560","2024-03-15 10:45:00","9.6183","3.21501","26.64","5.608","7.61","0.303","3.386","0.03","0.15","29.2918","4.64351","59.41","0","SATNPRO1963","31.032","0.43464","5"],
    [16235,"HCEP03730560","2024-03-15 11:00:00","9.6197","3.21544","26.452","5.614","7.61","0.334","3.024","0.02","0.19","29.2952","4.64395","59.47","0","SATNPRO1963","30.945999999999998","0.43346","5"],
    [16236,"HCEP03730560","2024-03-15 11:15:00","9.6184","3.2151","26.242","5.638","7.61","0.287","2.691","0.02","0.14","29.2929","4.64363","59.73","0","SATNPRO1963","31.11","0.43576","5"],
    [16237,"HCEP03730560","2024-03-15 11:30:00","9.6178","3.21477","26.028","5.633","7.61","0.331","2.959","0.01","0.26","29.2901","4.64323","59.67","0","SATNPRO1963","31.088","0.43542","5"],
    [16238,"HCEP03730560","2024-03-15 11:45:00","9.6123","3.21297","25.82","5.62","7.61","0.291","2.989","0.03","0.18","29.2765","4.64137","59.52","0","SATNPRO1963","30.968","0.43374","5"],
    [16239,"HCEP03730560","2024-03-15 12:00:00","9.6095","3.21209","25.615","5.612","7.61","0.347","3.44","0.02","0.22","29.27","4.64047","59.43","0","SATNPRO1963","30.986","0.43404","5"],
    [16240,"HCEP03730560","2024-03-15 12:15:00","9.6088","3.21191","25.4","5.621","7.61","0.289","2.978","0.02","0.2","29.2689","4.64031","59.53","0","SATNPRO1963","30.902","0.43282","5"],
    [16241,"HCEP03730560","2024-03-15 12:30:00","9.608","3.2117","25.192","5.63","7.61","0.332","2.831","0.02","0.14","29.2674","4.64011","59.62","0","SATNPRO1963","30.93","0.43326","5"],
    [16242,"HCEP03730560","2024-03-15 12:45:00","9.6056","3.21102","24.976","5.626","7.61","0.291","3.121","0.02","0.18","29.2626","4.63945","59.57","0","SATNPRO1963","30.732","0.43046","5"],
    [16243,"HCEP03730560","2024-03-15 13:00:00","9.6024","3.20988","24.791","5.63","7.61","0.327","2.74","0.02","0.09","29.2538","4.63823","59.61","0","SATNPRO1963","30.7","0.42998","5"],
    [16244,"HCEP03730560","2024-03-15 13:15:00","9.6041","3.2103","24.615","5.641","7.61","0.28","2.632","0.01","0.12","29.2567","4.63861","59.73","0","SATNPRO1963","30.712","0.43016","5"],
    [16245,"HCEP03730560","2024-03-15 13:30:00","9.6036","3.21006","24.474","5.63","7.61","0.33","2.6","0.01","0.11","29.2548","4.63834","59.61","0","SATNPRO1963","30.694","0.42994","5"],
    [16246,"HCEP03730560","2024-03-15 13:45:00","9.6018","3.20951","24.377","5.623","7.61","0.282","2.66","0.02","0.1","29.2508","4.63778","59.53","0","SATNPRO1963","30.686","0.42982","5"],
    [16247,"HCEP03730560","2024-03-15 14:00:00","9.6077","3.21147","24.294","5.571","7.61","0.346","3.445","0.01","0.12","29.2657","4.63981","59","0","SATNPRO1963","30.69","0.42986","5"],
    [16248,"HCEP03730560","2024-03-15 14:15:00","9.6119","3.21262","24.237","5.507","7.6","0.33","4.343","0.02","0.21","29.274","4.64092","58.33","0","SATNPRO1963","30.656000000000002","0.4294","5"],
    [16249,"HCEP03730560","2024-03-15 14:30:00","9.6157","3.21389","24.233","5.509","7.6","0.377","4.718","0.02","0.25","29.2837","4.64224","58.35","0","SATNPRO1963","30.756","0.43078","5"],
    [16250,"HCEP03730560","2024-03-15 14:45:00","9.6142","3.21354","24.24","5.573","7.6","0.306","3.597","0.02","0.23","29.2813","4.64193","59.03","0","SATNPRO1963","30.808","0.4315","5"],
    [16251,"HCEP03730560","2024-03-15 15:00:00","9.6064","3.21107","24.244","5.583","7.61","0.329","2.688","0.02","0.13","29.2628","4.63942","59.12","0","SATNPRO1963","30.88","0.43252","5"],
    [16252,"HCEP03730560","2024-03-15 15:15:00","9.5988","3.20847","24.272","5.599","7.61","0.278","2.717","0.01","0.09","29.2427","4.63667","59.27","0","SATNPRO1963","30.876","0.43246","5"],
    [16253,"HCEP03730560","2024-03-15 15:30:00","9.6024","3.20954","24.322","5.601","7.61","0.321","2.646","0.02","0.11","29.2506","4.63774","59.3","0","SATNPRO1963","30.656","0.42942","5"],
    [16254,"HCEP03730560","2024-03-15 15:45:00","9.6029","3.20986","24.399","5.596","7.61","0.279","2.682","0.01","0.09","29.2534","4.63814","59.24","0","SATNPRO1963","30.762","0.43084","5"],
    [16255,"HCEP03730560","2024-03-15 16:00:00","9.6036","3.21027","24.46","5.596","7.61","0.318","2.544","0.01","0.1","29.2569","4.63864","59.24","0","SATNPRO1963","30.86","0.43226","5"],
    [16256,"HCEP03730560","2024-03-15 16:15:00","9.6008","3.20926","24.582","5.596","7.61","0.28","2.69","0.01","0.08","29.249","4.63755","59.24","0","SATNPRO1963","30.724","0.43034","5"],
    [16257,"HCEP03730560","2024-03-15 16:30:00","9.6053","3.21028","24.731","5.57","7.61","0.334","2.898","0.01","0.11","29.2556","4.63843","58.98","0","SATNPRO1963","30.514","0.42742","5"],
    [16258,"HCEP03730560","2024-03-15 16:45:00","9.6161","3.21398","24.898","5.493","7.6","0.318","3.804","0.02","0.13","29.284","4.64232","58.19","0","SATNPRO1963","30.494","0.42714","5"],
    [16259,"HCEP03730560","2024-03-15 17:00:00","9.6178","3.2144","25.059","5.471","7.6","0.374","4.067","0.02","0.22","29.2868","4.6427","57.96","0","SATNPRO1963","30.508","0.4273","5"],
    [16260,"HCEP03730560","2024-03-15 17:15:00","9.6087","3.21154","25.202","5.495","7.6","0.313","3.547","0.02","0.24","29.2652","4.63978","58.19","0","SATNPRO1963","30.544","0.42786","5"],
    [16261,"HCEP03730560","2024-03-15 17:30:00","9.6186","3.21472","25.358","5.454","7.6","0.38","4.219","0.03","0.17","29.2893","4.64306","57.78","0","SATNPRO1963","30.468","0.42674","5"],
    [16262,"HCEP03730560","2024-03-15 17:45:00","9.6192","3.21487","25.506","5.447","7.6","0.318","4.04","0.02","0.35","29.2902","4.64319","57.71","0","SATNPRO1963","30.538","0.42774","5"],
    [16263,"HCEP03730560","2024-03-15 18:00:00","9.6198","3.21496","25.654","5.425","7.6","0.374","4.519","0.02","0.27","29.2906","4.64325","57.47","0","SATNPRO1963","30.468","0.42676","5"],
    [16264,"HCEP03730560","2024-03-15 18:15:00","9.6076","3.21119","25.835","5.486","7.6","0.305","3.699","0.01","0.18","29.2624","4.63942","58.1","0","SATNPRO1963","30.372","0.4254","5"],
    [16265,"HCEP03730560","2024-03-15 18:30:00","9.6049","3.21052","26.027","5.501","7.6","0.357","3.659","0.02","0.18","29.2577","4.63882","58.25","0","SATNPRO1963","30.72","0.43028","5"],
    [16266,"HCEP03730560","2024-03-15 18:45:00","9.6041","3.21007","26.211","5.488","7.6","0.305","3.634","0.02","0.15","29.2538","4.63828","58.1","0","SATNPRO1963","30.576","0.4283","5"],
    [16267,"HCEP03730560","2024-03-15 19:00:00","9.6039","3.20989","26.395","5.476","7.6","0.35","3.707","0.02","0.12","29.2521","4.63805","57.98","0","SATNPRO1963","30.394","0.42574","5"],
    [16268,"HCEP03730560","2024-03-15 19:15:00","9.6084","3.21122","26.559","5.418","7.6","0.313","4.223","0.01","0.2","29.2618","4.63936","57.38","0","SATNPRO1963","30.374","0.42542","5"],
    [16269,"HCEP03730560","2024-03-15 19:30:00","9.605","3.21023","26.712","5.415","7.6","0.354","3.838","0.02","0.15","29.2545","4.63839","57.33","0","SATNPRO1963","30.368","0.4254","5"],
    [16270,"HCEP03730560","2024-03-15 19:45:00","9.6021","3.20935","26.845","5.418","7.6","0.313","4.001","0.02","0.25","29.2478","4.6375","57.35","0","SATNPRO1963","30.35","0.4251","5"],
    [16271,"HCEP03730560","2024-03-15 20:00:00","9.5969","3.20749","26.968","5.444","7.6","0.352","3.963","0.02","0.27","29.2333","4.63551","57.62","0","SATNPRO1963","30.288","0.42426","5"],
    [16272,"HCEP03730560","2024-03-15 20:15:00","9.5906","3.20576","27.092","5.521","7.6","0.304","3.496","0.02","0.19","29.221","4.63386","58.42","0","SATNPRO1963","30.366","0.42532","5"],
    [16273,"HCEP03730560","2024-03-15 20:30:00","9.5944","3.20705","27.182","5.488","7.6","0.352","3.695","0.02","0.14","29.2308","4.63521","58.08","0","SATNPRO1963","30.194","0.42292","5"],
    [16274,"HCEP03730560","2024-03-15 20:45:00","9.5966","3.20727","27.286","5.419","7.6","0.315","4.193","0.02","0.29","29.2312","4.63524","57.35","0","SATNPRO1963","30.25","0.4237","5"],
    [16275,"HCEP03730560","2024-03-15 21:00:00","9.593","3.2063","27.364","5.44","7.6","0.362","3.963","0.02","0.28","29.2244","4.63433","57.57","0","SATNPRO1963","30.256","0.42376","5"],
    [16276,"HCEP03730560","2024-03-15 21:15:00","9.5898","3.20534","27.423","5.485","7.6","0.304","3.976","0.01","0.16","29.2173","4.63336","58.05","0","SATNPRO1963","30.406","0.42586","5"],
    [16277,"HCEP03730560","2024-03-15 21:30:00","9.5774","3.20146","27.461","5.562","7.6","0.336","2.991","0.01","0.15","29.1882","4.62942","58.82","0","SATNPRO1963","30.398","0.42574","5"],
    [16278,"HCEP03730560","2024-03-15 21:45:00","9.5839","3.20357","27.482","5.523","7.61","0.295","3.632","0.01","0.18","29.2041","4.63159","58.43","0","SATNPRO1963","30.176","0.42266","5"],
    [16279,"HCEP03730560","2024-03-15 22:00:00","9.5863","3.20418","27.497","5.485","7.6","0.358","3.885","0.03","0.25","29.2084","4.63216","58.04","0","SATNPRO1963","30.25","0.4237","5"],
    [16280,"HCEP03730560","2024-03-15 22:15:00","9.5838","3.20348","27.494","5.479","7.6","0.313","4.531","0.02","0.24","29.2033","4.63147","57.97","0","SATNPRO1963","30.072","0.42118","5"],
    [16281,"HCEP03730560","2024-03-15 22:30:00","9.5918","3.20559","27.516","5.39","7.6","0.348","3.945","0.01","0.22","29.2181","4.63346","57.04","0","SATNPRO1963","29.948","0.41948","5"],
    [16282,"HCEP03730560","2024-03-15 22:45:00","9.5915","3.20544","27.506","5.37","7.59","0.329","4.557","0.02","0.22","29.2168","4.63327","56.83","0","SATNPRO1963","29.812","0.41758","5"],
    [16283,"HCEP03730560","2024-03-15 23:00:00","9.5934","3.20604","27.497","5.347","7.59","0.366","4.662","0.03","0.18","29.2213","4.63389","56.59","0","SATNPRO1963","30.072","0.42124","5"],
    [16284,"HCEP03730560","2024-03-15 23:15:00","9.593","3.20589","27.457","5.358","7.59","0.326","4.502","0.03","0.16","29.2201","4.63372","56.7","0","SATNPRO1963","30.044","0.4208","5"],
    [16285,"HCEP03730560","2024-03-15 23:30:00","9.5944","3.2063","27.419","5.348","7.59","0.367","4.642","0.01","0.35","29.2231","4.63412","56.6","0","SATNPRO1963","30.142","0.4222","5"],
    [16286,"HCEP03730560","2024-03-15 23:45:00","9.5996","3.20803","27.366","5.322","7.59","0.32","4.639","0.03","0.26","29.2364","4.63594","56.34","0","SATNPRO1963","30.114","0.42178","5"],
    [16287,"HCEP03730560","2024-03-16 00:00:00","9.6048","3.20967","27.333","5.301","7.59","0.366","4.659","0.02","0.3","29.2487","4.6376","56.13","0","SATNPRO1963","30.166","0.42254","5"],
    [16288,"HCEP03730560","2024-03-16 00:15:00","9.608","3.21071","27.294","5.289","7.59","0.327","4.899","0.02","0.19","29.2567","4.63869","56.01","0","SATNPRO1963","29.986","0.42","5"],
    [16289,"HCEP03730560","2024-03-16 00:30:00","9.6072","3.21055","27.24","5.299","7.59","0.355","4.355","0.02","0.27","29.2557","4.63856","56.1","0","SATNPRO1963","30.184","0.42278","5"],
    [16290,"HCEP03730560","2024-03-16 00:45:00","9.5994","3.20809","27.179","5.346","7.59","0.302","3.891","0.03","0.24","29.2373","4.63605","56.59","0","SATNPRO1963","30.382","0.42554","5"],
    [16291,"HCEP03730560","2024-03-16 01:00:00","9.6101","3.21141","27.112","5.283","7.59","0.374","4.811","0.03","0.37","29.2621","4.63942","55.95","0","SATNPRO1963","30.434","0.4263","5"],
    [16292,"HCEP03730560","2024-03-16 01:15:00","9.6126","3.2122","27.042","5.286","7.59","0.317","4.358","0.07","0.17","29.2681","4.64022","55.98","0","SATNPRO1963","30.176000000000002","0.42266","5"],
    [16293,"HCEP03730560","2024-03-16 01:30:00","9.6092","3.21137","26.976","5.346","7.59","0.342","3.956","0.02","0.3","29.2624","4.63948","56.62","0","SATNPRO1963","30.434","0.42628","5"],
    [16294,"HCEP03730560","2024-03-16 01:45:00","9.605","3.21011","26.893","5.379","7.59","0.296","3.73","0.02","0.15","29.2532","4.63821","56.95","0","SATNPRO1963","30.362","0.4253","5"],
    [16295,"HCEP03730560","2024-03-16 02:00:00","9.6044","3.20998","26.836","5.391","7.59","0.336","3.421","0.02","0.11","29.2523","4.6381","57.08","0","SATNPRO1963","30.2","0.42298","5"],
    [16296,"HCEP03730560","2024-03-16 02:15:00","9.6021","3.20919","26.783","5.4","7.59","0.29","3.513","0.02","0.18","29.2463","4.63727","57.17","0","SATNPRO1963","30.32","0.42472","5"],
    [16297,"HCEP03730560","2024-03-16 02:30:00","9.6001","3.2085","26.729","5.412","7.59","0.324","3.196","0.02","0.14","29.241","4.63655","57.29","0","SATNPRO1963","30.598","0.4286","5"],
    [16298,"HCEP03730560","2024-03-16 02:45:00","9.6005","3.20864","26.696","5.415","7.59","0.282","3.302","0.01","0.13","29.2421","4.6367","57.33","0","SATNPRO1963","30.3","0.42442","5"],
    [16299,"HCEP03730560","2024-03-16 03:00:00","9.6005","3.20867","26.679","5.422","7.59","0.334","3.256","0.02","0.16","29.2424","4.63674","57.39","0","SATNPRO1963","30.398","0.42574","5"],
    [16300,"HCEP03730560","2024-03-16 03:15:00","9.6064","3.2105","26.663","5.391","7.59","0.302","3.629","0.06","0.19","29.2562","4.63861","57.08","0","SATNPRO1963","30.508","0.42728","5"],
    [16301,"HCEP03730560","2024-03-16 03:30:00","9.6042","3.20991","26.682","5.398","7.59","0.329","3.364","0.01","0.14","29.252","4.63804","57.15","0","SATNPRO1963","30.386","0.42564","5"],
    [16302,"HCEP03730560","2024-03-16 03:45:00","9.6113","3.21197","26.694","5.357","7.59","0.287","3.721","0.01","0.23","29.2669","4.64005","56.73","0","SATNPRO1963","30.286","0.42422","5"],
    [16303,"HCEP03730560","2024-03-16 04:00:00","9.6131","3.21244","26.725","5.336","7.59","0.332","3.96","0.01","0.22","29.2701","4.64049","56.51","0","SATNPRO1963","30.336","0.42494","5"],
    [16304,"HCEP03730560","2024-03-16 04:15:00","9.5993","3.20837","26.754","5.421","7.59","0.291","3.136","0.02","0.18","29.2403","4.63646","57.39","0","SATNPRO1963","30.496","0.42714","5"],
    [16305,"HCEP03730560","2024-03-16 04:30:00","9.5968","3.20755","26.781","5.447","7.59","0.324","3.024","0.01","0.12","29.2341","4.63562","57.65","0","SATNPRO1963","30.189999999999998","0.4229","5"],
    [16306,"HCEP03730560","2024-03-16 04:45:00","9.5935","3.20628","26.823","5.461","7.6","0.28","3.01","0.02","0.29","29.2239","4.63422","57.8","0","SATNPRO1963","30.286","0.4242","5"],
    [16307,"HCEP03730560","2024-03-16 05:00:00","9.6093","3.21118","26.86","5.322","7.59","0.368","4.703","0.02","0.59","29.2604","4.63918","56.35","0","SATNPRO1963","30.248","0.42368","5"],
    [16308,"HCEP03730560","2024-03-16 05:15:00","9.613","3.21228","26.912","5.235","7.58","0.319","4.607","0.02","0.24","29.2685","4.64028","55.44","0","SATNPRO1963","29.952","0.4195","5"],
    [16309,"HCEP03730560","2024-03-16 05:30:00","9.6129","3.2121","26.953","5.204","7.58","0.377","5.078","0.03","0.31","29.2668","4.64004","55.12","0","SATNPRO1963","29.93","0.41922","5"],
    [16310,"HCEP03730560","2024-03-16 05:45:00","9.6097","3.21103","27.015","5.196","7.58","0.322","5.074","0.02","0.21","29.2586","4.63891","55.02","0","SATNPRO1963","30.114","0.4218","5"],
    [16311,"HCEP03730560","2024-03-16 06:00:00","9.5995","3.20774","27.071","5.253","7.58","0.37","4.577","0.02","0.29","29.2337","4.63552","55.6","0","SATNPRO1963","30.012","0.42034","5"],
    [16312,"HCEP03730560","2024-03-16 06:15:00","9.6024","3.209","27.13","5.245","7.58","0.324","4.994","0.01","0.26","29.2441","4.63697","55.52","0","SATNPRO1963","30.024","0.42056","5"],
    [16313,"HCEP03730560","2024-03-16 06:30:00","9.6004","3.20822","27.183","5.235","7.58","0.384","5.505","0.02","0.28","29.2378","4.63611","55.42","0","SATNPRO1963","29.892","0.41866","5"],
    [16314,"HCEP03730560","2024-03-16 06:45:00","9.6036","3.2091","27.241","5.208","7.58","0.355","6.447","0.01","0.27","29.2441","4.63695","55.14","0","SATNPRO1963","30.02","0.42046","5"],
    [16315,"HCEP03730560","2024-03-16 07:00:00","9.6073","3.21031","27.306","5.214","7.58","0.371","4.87","0.02","0.28","29.2532","4.63819","55.21","0","SATNPRO1963","30.028","0.4206","5"],
    [16316,"HCEP03730560","2024-03-16 07:15:00","9.607","3.21026","27.352","5.257","7.58","0.34","5.018","0.02","0.37","29.2528","4.63816","55.66","0","SATNPRO1963","30.156","0.42238","5"],
    [16317,"HCEP03730560","2024-03-16 07:30:00","9.6072","3.21022","27.4","5.281","7.58","0.385","5.395","0.02","0.42","29.2523","4.63807","55.92","0","SATNPRO1963","30.372","0.4254","5"],
    [16318,"HCEP03730560","2024-03-16 07:45:00","9.609","3.21089","27.436","5.294","7.58","0.331","4.962","0.02","0.34","29.2575","4.6388","56.05","0","SATNPRO1963","30.17","0.42256","5"],
    [16319,"HCEP03730560","2024-03-16 08:00:00","9.6116","3.21173","27.454","5.308","7.58","0.363","4.671","0.02","0.26","29.264","4.63968","56.21","0","SATNPRO1963","30.318","0.42468","5"],
    [16320,"HCEP03730560","2024-03-16 08:15:00","9.6157","3.21316","27.469","5.305","7.58","0.321","4.672","0.02","0.25","29.275","4.64119","56.19","0","SATNPRO1963","30.214","0.42322","5"],
    [16321,"HCEP03730560","2024-03-16 08:30:00","9.6213","3.21486","27.476","5.284","7.58","0.367","4.464","0.02","0.21","29.2875","4.64289","55.97","0","SATNPRO1963","30.302","0.42444","5"],
    [16322,"HCEP03730560","2024-03-16 08:45:00","9.628","3.21698","27.472","5.248","7.58","0.331","5.129","0.02","0.25","29.3035","4.64505","55.61","0","SATNPRO1963","30.502","0.42722","5"],
    [16323,"HCEP03730560","2024-03-16 09:00:00","9.6309","3.21784","27.455","5.242","7.58","0.377","4.59","0.03","0.24","29.3099","4.64592","55.56","0","SATNPRO1963","30.41","0.42596","5"],
    [16324,"HCEP03730560","2024-03-16 09:15:00","9.6312","3.21792","27.434","5.243","7.58","0.339","4.877","0.03","0.23","29.3105","4.646","55.56","0","SATNPRO1963","30.492","0.42708","5"],
    [16325,"HCEP03730560","2024-03-16 09:30:00","9.631","3.21795","27.402","5.252","7.58","0.376","5.2","0.01","0.27","29.3109","4.64605","55.66","0","SATNPRO1963","30.312","0.42458","5"],
    [16326,"HCEP03730560","2024-03-16 09:45:00","9.6331","3.21868","27.329","5.262","7.58","0.317","4.34","0.02","0.28","29.3165","4.64682","55.77","0","SATNPRO1963","30.388","0.42558","5"],
    [16327,"HCEP03730560","2024-03-16 10:00:00","9.6331","3.21865","27.256","5.285","7.58","0.367","4.298","0.02","0.41","29.3162","4.64678","56.01","0","SATNPRO1963","30.52","0.4275","5"],
    [16328,"HCEP03730560","2024-03-16 10:15:00","9.6325","3.2185","27.167","5.297","7.58","0.32","4.745","0.02","0.38","29.3153","4.64665","56.14","0","SATNPRO1963","30.512","0.42736","5"],
    [16329,"HCEP03730560","2024-03-16 10:30:00","9.6325","3.21848","27.053","5.291","7.58","0.363","4.267","0.02","0.26","29.3151","4.64662","56.07","0","SATNPRO1963","30.622","0.42892","5"],
    [16330,"HCEP03730560","2024-03-16 10:45:00","9.6298","3.21787","26.931","5.329","7.59","0.284","3.437","0.02","0.46","29.3112","4.64609","56.47","0","SATNPRO1963","31.034","0.43464","5"],
    [16331,"HCEP03730560","2024-03-16 11:00:00","9.6276","3.21744","26.797","5.424","7.59","0.313","2.39","0.03","0.08","29.3087","4.64576","57.48","0","SATNPRO1963","30.974","0.43384","5"],
    [16332,"HCEP03730560","2024-03-16 11:15:00","9.627","3.21716","26.649","5.463","7.59","0.262","2.515","0.01","0.13","29.3064","4.64545","57.89","0","SATNPRO1963","30.962","0.43366","5"],
    [16333,"HCEP03730560","2024-03-16 11:30:00","9.6212","3.21583","26.505","5.537","7.6","0.298","2.11","0.01","0.12","29.2978","4.64431","58.66","0","SATNPRO1963","31.026","0.4346","5"],
    [16334,"HCEP03730560","2024-03-16 11:45:00","9.63","3.218","26.33","5.357","7.59","0.304","4.072","0.02","0.12","29.3126","4.64626","56.78","0","SATNPRO1963","30.708000000000002","0.43016","5"],
    [16335,"HCEP03730560","2024-03-16 12:00:00","9.6253","3.21678","26.141","5.439","7.59","0.333","3.426","0.01","0.1","29.3042","4.64512","57.64","0","SATNPRO1963","30.89","0.43268","5"],
    [16336,"HCEP03730560","2024-03-16 12:15:00","9.6321","3.21855","25.972","5.334","7.59","0.297","3.837","0.01","0.15","29.3166","4.64677","56.53","0","SATNPRO1963","30.52","0.42752","5"],
    [16337,"HCEP03730560","2024-03-16 12:30:00","9.6333","3.21882","25.805","5.297","7.58","0.352","3.631","0.03","0.14","29.3184","4.647","56.14","0","SATNPRO1963","30.57","0.4282","5"],
    [16338,"HCEP03730560","2024-03-16 12:45:00","9.6328","3.21877","25.594","5.328","7.58","0.287","3.368","0.02","0.14","29.3184","4.647","56.47","0","SATNPRO1963","30.637999999999998","0.42914","5"],
    [16339,"HCEP03730560","2024-03-16 13:00:00","9.6331","3.21899","25.42","5.357","7.58","0.321","3.017","0.02","0.1","29.3204","4.64728","56.78","0","SATNPRO1963","30.818","0.43166","5"],
    [16340,"HCEP03730560","2024-03-16 13:15:00","9.6288","3.2185","25.241","5.423","7.59","0.273","2.796","0.01","0.12","29.3191","4.64715","57.47","0","SATNPRO1963","30.822","0.4317","5"],
    [16341,"HCEP03730560","2024-03-16 13:30:00","9.6306","3.21933","25.058","5.453","7.59","0.311","2.553","0.02","0.08","29.326","4.64809","57.8","0","SATNPRO1963","30.934","0.4333","5"],
    [16342,"HCEP03730560","2024-03-16 13:45:00","9.629","3.22027","24.879","5.556","7.59","0.27","2.414","0.02","0.17","29.337","4.64968","58.89","0","SATNPRO1963","31.366","0.43936","5"],
    [16343,"HCEP03730560","2024-03-16 14:00:00","9.629","3.21932","24.714","5.505","7.6","0.311","2.319","0.02","0.1","29.3274","4.6483","58.35","0","SATNPRO1963","31.148","0.43628","5"],
    [16344,"HCEP03730560","2024-03-16 14:15:00","9.6191","3.21791","24.589","5.599","7.6","0.268","2.698","0.02","0.11","29.3213","4.6476","59.33","0","SATNPRO1963","31.228","0.43736","5"],
    [16345,"HCEP03730560","2024-03-16 14:30:00","9.6254","3.21868","24.484","5.559","7.6","0.319","2.546","0.02","0.1","29.3239","4.64785","58.91","0","SATNPRO1963","31.198","0.43702","5"],
    [16346,"HCEP03730560","2024-03-16 14:45:00","9.6292","3.22058","24.4","5.57","7.6","0.247","2.041","0.01","0.07","29.34","4.65008","59.04","0","SATNPRO1963","31.233999999999998","0.43748","5"],
    [16347,"HCEP03730560","2024-03-16 15:00:00","9.6275","3.22015","24.357","5.587","7.6","0.3","2.634","0.01","0.22","29.3371","4.6497","59.22","0","SATNPRO1963","31.368","0.43936","5"],
    [16348,"HCEP03730560","2024-03-16 15:15:00","9.626","3.21955","24.349","5.578","7.6","0.244","2.317","0.02","0.06","29.3322","4.64903","59.12","0","SATNPRO1963","31.364","0.4393","5"],
    [16349,"HCEP03730560","2024-03-16 15:30:00","9.6282","3.21971","24.355","5.539","7.6","0.3","2.464","0.01","0.06","29.3321","4.64897","58.71","0","SATNPRO1963","31.078","0.43528","5"],
    [16350,"HCEP03730560","2024-03-16 15:45:00","9.6305","3.21971","24.373","5.49","7.6","0.259","2.318","0.02","0.07","29.3303","4.64867","58.19","0","SATNPRO1963","31.086","0.43544","5"],
    [16351,"HCEP03730560","2024-03-16 16:00:00","9.6281","3.21927","24.388","5.488","7.6","0.314","2.751","0.02","0.1","29.3278","4.64836","58.16","0","SATNPRO1963","31.157999999999998","0.43642","5"],
    [16352,"HCEP03730560","2024-03-16 16:15:00","9.6295","3.21914","24.444","5.428","7.59","0.288","3.569","0.02","0.16","29.3253","4.64797","57.53","0","SATNPRO1963","30.692","0.4299","5"],
    [16353,"HCEP03730560","2024-03-16 16:30:00","9.6281","3.21882","24.466","5.445","7.59","0.318","3.214","0.02","0.2","29.3232","4.64771","57.7","0","SATNPRO1963","31.164","0.43648","5"],
    [16354,"HCEP03730560","2024-03-16 16:45:00","9.6318","3.21913","24.527","5.364","7.59","0.292","3.71","0.02","0.13","29.3233","4.64766","56.85","0","SATNPRO1963","30.738","0.43054","5"],
    [16355,"HCEP03730560","2024-03-16 17:00:00","9.6309","3.21915","24.659","5.355","7.59","0.349","4.357","0.01","0.11","29.3242","4.64781","56.75","0","SATNPRO1963","30.778","0.43108","5"],
    [16356,"HCEP03730560","2024-03-16 17:15:00","9.6325","3.21977","24.726","5.338","7.58","0.307","4.184","0.01","0.14","29.3291","4.64848","56.58","0","SATNPRO1963","30.951999999999998","0.43356","5"],
    [16357,"HCEP03730560","2024-03-16 17:30:00","9.6332","3.21932","24.882","5.318","7.58","0.335","3.693","0.01","0.07","29.3238","4.64772","56.37","0","SATNPRO1963","30.674","0.42968","5"],
    [16358,"HCEP03730560","2024-03-16 17:45:00","9.6308","3.21817","24.966","5.31","7.58","0.283","3.438","0.01","0.09","29.3142","4.64639","56.28","0","SATNPRO1963","30.552","0.42794","5"],
    [16359,"HCEP03730560","2024-03-16 18:00:00","9.6315","3.22105","25.118","5.471","7.59","0.321","3.278","0.01","0.14","29.3426","4.65046","57.99","0","SATNPRO1963","30.912","0.43298","5"],
    [16360,"HCEP03730560","2024-03-16 18:15:00","9.6478","3.22505","25.256","5.366","7.59","0.301","4.535","0.01","0.16","29.3696","4.65405","56.91","0","SATNPRO1963","30.854","0.43216","5"],
    [16361,"HCEP03730560","2024-03-16 18:30:00","9.6475","3.22492","25.389","5.315","7.59","0.353","4.166","0.02","0.21","29.3685","4.6539","56.37","0","SATNPRO1963","30.992","0.4341","5"],
    [16362,"HCEP03730560","2024-03-16 18:45:00","9.6469","3.22461","25.532","5.336","7.59","0.299","3.894","0.04","0.15","29.3658","4.65354","56.59","0","SATNPRO1963","30.984","0.434","5"],
    [16363,"HCEP03730560","2024-03-16 19:00:00","9.6488","3.22496","25.695","5.319","7.59","0.345","3.964","0.02","0.18","29.3677","4.65378","56.41","0","SATNPRO1963","31.026","0.43456","5"],
    [16364,"HCEP03730560","2024-03-16 19:15:00","9.6485","3.22475","25.87","5.344","7.59","0.3","4.102","0.02","0.13","29.3657","4.65351","56.67","0","SATNPRO1963","30.944","0.43344","5"],
    [16365,"HCEP03730560","2024-03-16 19:30:00","9.6488","3.22483","26.04","5.346","7.59","0.337","3.786","0.01","0.18","29.3662","4.65359","56.7","0","SATNPRO1963","31.002","0.43422","5"],
    [16366,"HCEP03730560","2024-03-16 19:45:00","9.651","3.22525","26.216","5.312","7.59","0.295","4.207","0.02","0.24","29.3686","4.65391","56.34","0","SATNPRO1963","30.986","0.434","5"],
    [16367,"HCEP03730560","2024-03-16 20:00:00","9.6494","3.22503","26.386","5.326","7.59","0.338","4.107","0.01","0.23","29.3676","4.65381","56.49","0","SATNPRO1963","30.976","0.43388","5"],
    [16368,"HCEP03730560","2024-03-16 20:15:00","9.6482","3.22489","26.552","5.332","7.59","0.303","4.66","0.02","0.35","29.3671","4.65375","56.55","0","SATNPRO1963","31.002000000000002","0.43426","5"],
    [16369,"HCEP03730560","2024-03-16 20:30:00","9.6466","3.2247","26.696","5.369","7.59","0.341","4.251","0.02","0.22","29.3664","4.65369","56.94","0","SATNPRO1963","31.14","0.4362","5"],
    [16370,"HCEP03730560","2024-03-16 20:45:00","9.643","3.22377","26.837","5.425","7.59","0.277","3.467","0.01","0.23","29.36","4.65285","57.53","0","SATNPRO1963","31.11","0.43576","5"],
    [16371,"HCEP03730560","2024-03-16 21:00:00","9.6022","3.20864","26.962","5.414","7.59","0.332","3.361","0.01","0.21","29.2406","4.63647","57.32","0","SATNPRO1963","30.509999999999998","0.4273","5"],
    [16372,"HCEP03730560","2024-03-16 21:15:00","9.5928","3.20563","27.064","5.395","7.59","0.289","3.124","0.02","0.12","29.2178","4.63337","57.1","0","SATNPRO1963","30.462","0.42666","5"],
    [16373,"HCEP03730560","2024-03-16 21:30:00","9.6161","3.2132","27.157","5.381","7.59","0.323","3.55","0.01","0.14","29.2753","4.6412","57","0","SATNPRO1963","30.52","0.42748","5"],
    [16374,"HCEP03730560","2024-03-16 21:45:00","9.6285","3.21872","27.244","5.381","7.59","0.286","3.945","0.02","0.2","29.3207","4.6475","57.03","0","SATNPRO1963","30.762","0.43086","5"],
    [16375,"HCEP03730560","2024-03-16 22:00:00","9.6353","3.22123","27.326","5.396","7.59","0.337","3.967","0.02","0.22","29.3404","4.65021","57.2","0","SATNPRO1963","30.886","0.4326","5"],
    [16376,"HCEP03730560","2024-03-16 22:15:00","9.639","3.2227","27.38","5.413","7.59","0.281","3.726","0.02","0.18","29.3522","4.65184","57.39","0","SATNPRO1963","31.226","0.43734","5"],
    [16377,"HCEP03730560","2024-03-16 22:30:00","9.6384","3.2224","27.418","5.416","7.59","0.322","3.379","0.01","0.13","29.3497","4.65149","57.43","0","SATNPRO1963","31.326","0.43874","5"],
    [16378,"HCEP03730560","2024-03-16 22:45:00","9.6426","3.22366","27.455","5.406","7.59","0.287","4.071","0.01","0.24","29.359","4.65275","57.32","0","SATNPRO1963","31.266000000000002","0.43792","5"],
    [16379,"HCEP03730560","2024-03-16 23:00:00","9.6435","3.22377","27.495","5.385","7.59","0.348","4.81","0.01","0.53","29.3593","4.65278","57.1","0","SATNPRO1963","31.168","0.43654","5"],
    [16380,"HCEP03730560","2024-03-16 23:15:00","9.643","3.22356","27.527","5.379","7.59","0.301","4.507","0.02","0.24","29.3576","4.65255","57.04","0","SATNPRO1963","31.09","0.43548","5"],
    [16381,"HCEP03730560","2024-03-16 23:30:00","9.6439","3.22381","27.551","5.366","7.59","0.337","4.323","0.02","0.15","29.3594","4.65279","56.9","0","SATNPRO1963","31.212","0.43722","5"],
    [16382,"HCEP03730560","2024-03-16 23:45:00","9.6463","3.22451","27.575","5.34","7.59","0.311","4.477","0.03","0.2","29.3645","4.65348","56.63","0","SATNPRO1963","31.094","0.43552","5"],
    [16383,"HCEP03730560","2024-03-17 00:00:00","9.6448","3.22386","27.591","5.338","7.59","0.335","4.083","0.03","0.16","29.3591","4.65274","56.6","0","SATNPRO1963","31.174","0.43668","5"],
    [16384,"HCEP03730560","2024-03-17 00:15:00","9.64","3.22234","27.586","5.348","7.59","0.295","3.902","0.02","0.4","29.3476","4.65118","56.71","0","SATNPRO1963","30.826","0.43178","5"],
    [16385,"HCEP03730560","2024-03-17 00:30:00","9.6378","3.22162","27.571","5.354","7.59","0.337","3.583","0.04","0.27","29.3423","4.65045","56.76","0","SATNPRO1963","31.07","0.43518","5"],
    [16386,"HCEP03730560","2024-03-17 00:45:00","9.6377","3.22104","27.551","5.339","7.59","0.279","3.694","0.02","0.21","29.3365","4.64962","56.6","0","SATNPRO1963","30.966","0.43374","5"],
    [16387,"HCEP03730560","2024-03-17 01:00:00","9.6359","3.22078","27.51","5.325","7.59","0.338","3.824","0.03","0.28","29.3354","4.64949","56.44","0","SATNPRO1963","30.96","0.43366","5"],
    [16388,"HCEP03730560","2024-03-17 01:15:00","9.6376","3.2216","27.477","5.328","7.59","0.272","3.632","0.02","0.13","29.3422","4.65044","56.48","0","SATNPRO1963","31.018","0.43446","5"],
    [16389,"HCEP03730560","2024-03-17 01:30:00","9.6388","3.22186","27.438","5.324","7.58","0.326","3.628","0.02","0.22","29.3439","4.65066","56.45","0","SATNPRO1963","30.99","0.4341","5"],
    [16390,"HCEP03730560","2024-03-17 01:45:00","9.6408","3.22249","27.399","5.324","7.58","0.318","4.052","0.04","0.18","29.3486","4.65129","56.45","0","SATNPRO1963","30.992","0.43408","5"],
    [16391,"HCEP03730560","2024-03-17 02:00:00","9.6465","3.22439","27.351","5.307","7.58","0.329","4.185","0.01","0.2","29.3631","4.65326","56.28","0","SATNPRO1963","30.868000000000002","0.43236","5"],
    [16392,"HCEP03730560","2024-03-17 02:15:00","9.6465","3.22435","27.299","5.315","7.58","0.279","3.777","0.01","0.38","29.3628","4.65321","56.36","0","SATNPRO1963","30.878","0.43248","5"],
    [16393,"HCEP03730560","2024-03-17 02:30:00","9.644","3.22356","27.238","5.329","7.58","0.33","3.562","0.02","0.23","29.3568","4.6524","56.51","0","SATNPRO1963","31.132","0.43606","5"],
    [16394,"HCEP03730560","2024-03-17 02:45:00","9.6405","3.22249","27.169","5.338","7.59","0.288","3.545","0.02","0.19","29.3489","4.65133","56.6","0","SATNPRO1963","31.189999999999998","0.43684","5"],
    [16395,"HCEP03730560","2024-03-17 03:00:00","9.6377","3.22143","27.125","5.337","7.58","0.325","3.507","0.02","0.23","29.3406","4.65018","56.58","0","SATNPRO1963","30.913999999999998","0.43302","5"],
    [16396,"HCEP03730560","2024-03-17 03:15:00","9.6512","3.22541","27.071","5.146","7.58","0.335","6.4","0.03","0.34","29.3697","4.65412","54.58","0","SATNPRO1963","30.636","0.42912","5"],
    [16397,"HCEP03730560","2024-03-17 03:30:00","9.6489","3.22474","27.022","5.192","7.57","0.336","4.326","0.02","0.15","29.3649","4.65346","55.07","0","SATNPRO1963","30.646","0.42926","5"],
    [16398,"HCEP03730560","2024-03-17 03:45:00","9.639","3.22165","27.029","5.272","7.58","0.278","4.169","0.03","0.07","29.3417","4.65031","55.89","0","SATNPRO1963","30.866","0.43236","5"],
    [16399,"HCEP03730560","2024-03-17 04:00:00","9.6403","3.22196","26.981","5.262","7.58","0.347","4.498","0.02","0.1","29.3438","4.65059","55.79","0","SATNPRO1963","31.002","0.43424","5"],
    [16400,"HCEP03730560","2024-03-17 04:15:00","9.645","3.22344","26.957","5.208","7.58","0.311","5.255","0.02","0.09","29.3549","4.6521","55.23","0","SATNPRO1963","30.669999999999998","0.42958","5"],
    [16401,"HCEP03730560","2024-03-17 04:30:00","9.6387","3.22177","26.929","5.294","7.58","0.322","3.477","0.02","0.12","29.3433","4.65053","56.13","0","SATNPRO1963","31.15","0.4363","5"],
    [16402,"HCEP03730560","2024-03-17 04:45:00","9.641","3.22248","26.909","5.316","7.58","0.297","3.473","0.03","0.28","29.3485","4.65124","56.37","0","SATNPRO1963","32.258","0.45184","5"],
    [16403,"HCEP03730560","2024-03-17 05:00:00","9.64","3.22239","26.908","5.332","7.58","0.32","3.407","0.01","0.19","29.3484","4.65125","56.53","0","SATNPRO1963","30.956","0.43356","5"],
    [16404,"HCEP03730560","2024-03-17 05:15:00","9.6408","3.2227","26.943","5.332","7.58","0.286","3.668","0.02","0.24","29.351","4.6516","56.53","0","SATNPRO1963","30.810000000000002","0.43154","5"],
    [16405,"HCEP03730560","2024-03-17 05:30:00","9.6416","3.22293","26.948","5.325","7.58","0.327","3.628","0.02","0.19","29.3526","4.65183","56.46","0","SATNPRO1963","30.94","0.43338","5"],
    [16406,"HCEP03730560","2024-03-17 05:45:00","9.6421","3.22302","26.972","5.306","7.58","0.278","3.748","0.01","0.21","29.3531","4.65189","56.26","0","SATNPRO1963","31.12","0.43588","5"],
    [16407,"HCEP03730560","2024-03-17 06:00:00","9.6424","3.22298","26.987","5.282","7.58","0.332","4.232","0.02","0.22","29.3524","4.65178","56.01","0","SATNPRO1963","30.322","0.42468","5"],
    [16408,"HCEP03730560","2024-03-17 06:15:00","9.6406","3.22259","26.991","5.279","7.58","0.29","4.17","0.02","0.2","29.35","4.65146","55.97","0","SATNPRO1963","30.86","0.43222","5"],
    [16409,"HCEP03730560","2024-03-17 06:30:00","9.6419","3.22275","27.012","5.23","7.58","0.352","4.651","0.02","0.33","29.3505","4.65152","55.46","0","SATNPRO1963","30.788","0.4312","5"],
    [16410,"HCEP03730560","2024-03-17 06:45:00","9.6423","3.22275","27.028","5.207","7.58","0.327","5.584","0.02","0.32","29.3502","4.65147","55.21","0","SATNPRO1963","30.756","0.43078","5"],
    [16411,"HCEP03730560","2024-03-17 07:00:00","9.6437","3.22323","27.049","5.213","7.57","0.378","5.744","0.02","0.54","29.3538","4.65197","55.28","0","SATNPRO1963","30.732","0.43044","5"],
    [16412,"HCEP03730560","2024-03-17 07:15:00","9.6467","3.22417","27.065","5.193","7.57","0.311","5.142","0.02","0.21","29.3609","4.65293","55.07","0","SATNPRO1963","30.762","0.43084","5"],
    [16413,"HCEP03730560","2024-03-17 07:30:00","9.6446","3.22351","27.086","5.254","7.58","0.329","3.611","0.01","0.23","29.3559","4.65225","55.72","0","SATNPRO1963","30.894000000000002","0.43272","5"],
    [16414,"HCEP03730560","2024-03-17 07:45:00","9.6501","3.22545","27.1","5.211","7.57","0.305","4.801","0.02","0.2","29.371","4.65431","55.27","0","SATNPRO1963","30.96","0.43364","5"],
    [16415,"HCEP03730560","2024-03-17 08:00:00","9.6504","3.22531","27.119","5.198","7.57","0.342","4.512","0.01","0.25","29.3693","4.65407","55.13","0","SATNPRO1963","30.764","0.43092","5"],
    [16416,"HCEP03730560","2024-03-17 08:15:00","9.6492","3.2249","27.148","5.188","7.57","0.303","4.656","0.02","0.21","29.3662","4.65364","55.03","0","SATNPRO1963","30.934","0.4333","5"],
    [16417,"HCEP03730560","2024-03-17 08:30:00","9.6495","3.22504","27.168","5.176","7.57","0.363","4.973","0.02","0.25","29.3673","4.6538","54.9","0","SATNPRO1963","30.778000000000002","0.43108","5"],
    [16418,"HCEP03730560","2024-03-17 08:45:00","9.6482","3.2247","27.185","5.18","7.57","0.301","4.836","0.02","0.22","29.3649","4.65349","54.94","0","SATNPRO1963","30.848","0.4321","5"],
    [16419,"HCEP03730560","2024-03-17 09:00:00","9.6463","3.22395","27.169","5.19","7.57","0.356","4.566","0.02","0.24","29.3589","4.65265","55.04","0","SATNPRO1963","30.916","0.43302","5"],
    [16420,"HCEP03730560","2024-03-17 09:15:00","9.6437","3.22312","27.173","5.213","7.57","0.299","4.448","0.02","0.26","29.3526","4.6518","55.28","0","SATNPRO1963","30.81","0.43158","5"],
    [16421,"HCEP03730560","2024-03-17 09:30:00","9.6432","3.22271","27.167","5.213","7.57","0.361","4.317","0.02","0.2","29.349","4.65129","55.27","0","SATNPRO1963","30.64","0.42918","5"],
    [16422,"HCEP03730560","2024-03-17 09:45:00","9.642","3.22233","27.151","5.203","7.57","0.299","4.416","0.02","0.28","29.3461","4.65089","55.17","0","SATNPRO1963","30.966","0.43372","5"],
    [16423,"HCEP03730560","2024-03-17 10:00:00","9.6458","3.22333","27.124","5.145","7.57","0.375","5.171","0.02","0.35","29.3532","4.65184","54.56","0","SATNPRO1963","30.498","0.42718","5"],
    [16424,"HCEP03730560","2024-03-17 10:15:00","9.6487","3.22423","27.088","5.099","7.57","0.324","4.925","0.03","0.29","29.3598","4.65274","54.07","0","SATNPRO1963","30.576","0.42832","5"],
    [16425,"HCEP03730560","2024-03-17 10:30:00","9.6474","3.22384","27.053","5.118","7.56","0.347","4.052","0.02","0.21","29.357","4.65235","54.28","0","SATNPRO1963","30.811999999999998","0.43154","5"],
    [16426,"HCEP03730560","2024-03-17 10:45:00","9.6469","3.22363","27.002","5.094","7.56","0.313","4.341","0.02","0.14","29.3553","4.65212","54.02","0","SATNPRO1963","30.578","0.4283","5"],
    [16427,"HCEP03730560","2024-03-17 11:00:00","9.6466","3.22342","26.933","5.072","7.56","0.359","4.461","0.02","0.26","29.3535","4.65186","53.78","0","SATNPRO1963","30.580000000000002","0.42834","5"],
    [16428,"HCEP03730560","2024-03-17 11:15:00","9.6468","3.22323","26.844","5.069","7.56","0.305","4.52","0.01","0.18","29.3514","4.65155","53.75","0","SATNPRO1963","30.402","0.42586","5"],
    [16429,"HCEP03730560","2024-03-17 11:30:00","9.6449","3.22259","26.769","5.08","7.56","0.354","4.346","0.03","0.2","29.3465","4.65088","53.86","0","SATNPRO1963","30.466","0.42676","5"],
    [16430,"HCEP03730560","2024-03-17 11:45:00","9.6439","3.22211","26.674","5.068","7.56","0.323","4.619","0.03","0.19","29.3426","4.65034","53.74","0","SATNPRO1963","30.504","0.42724","5"],
    [16431,"HCEP03730560","2024-03-17 12:00:00","9.6437","3.22186","26.557","5.04","7.56","0.379","5.067","0.03","0.23","29.3402","4.64999","53.43","0","SATNPRO1963","30.466","0.42674","5"],
    [16432,"HCEP03730560","2024-03-17 12:15:00","9.6453","3.22234","26.422","5.013","7.56","0.342","5.761","0.02","0.33","29.3439","4.65048","53.15","0","SATNPRO1963","30.546","0.42784","5"],
    [16433,"HCEP03730560","2024-03-17 12:30:00","9.6497","3.22409","26.279","5.043","7.56","0.366","4.885","0.02","0.41","29.358","4.65242","53.48","0","SATNPRO1963","30.634","0.42906","5"],
    [16434,"HCEP03730560","2024-03-17 12:45:00","9.6513","3.22471","26.146","5.091","7.56","0.301","4.332","0.02","0.34","29.3629","4.65309","53.99","0","SATNPRO1963","30.832","0.4319","5"],
    [16435,"HCEP03730560","2024-03-17 13:00:00","9.6405","3.2213","26.015","5.213","7.56","0.316","3.524","0.01","0.08","29.3374","4.64962","55.26","0","SATNPRO1963","30.752","0.43074","5"],
    [16436,"HCEP03730560","2024-03-17 13:15:00","9.6523","3.22521","25.866","5.126","7.56","0.292","4.187","0.01","0.21","29.3673","4.65367","54.37","0","SATNPRO1963","30.72","0.43028","5"],
    [16437,"HCEP03730560","2024-03-17 13:30:00","9.6534","3.22566","25.731","5.12","7.56","0.338","3.932","0.02","0.18","29.3709","4.65417","54.31","0","SATNPRO1963","30.836","0.43192","5"],
    [16438,"HCEP03730560","2024-03-17 13:45:00","9.652","3.22559","25.585","5.201","7.56","0.291","3.949","0.02","0.15","29.3715","4.65426","55.16","0","SATNPRO1963","30.872","0.43242","5"],
    [16439,"HCEP03730560","2024-03-17 14:00:00","9.6538","3.226","25.412","5.132","7.56","0.337","4.04","0.02","0.14","29.3742","4.65461","54.44","0","SATNPRO1963","30.616","0.42882","5"],
    [16440,"HCEP03730560","2024-03-17 14:15:00","9.6543","3.22614","25.289","5.11","7.56","0.293","4.348","0.01","0.21","29.3752","4.65475","54.2","0","SATNPRO1963","30.822","0.43174","5"],
    [16441,"HCEP03730560","2024-03-17 14:30:00","9.6538","3.2262","25.14","5.119","7.56","0.343","4.043","0.02","0.15","29.3762","4.65489","54.3","0","SATNPRO1963","30.708000000000002","0.43014","5"],
    [16442,"HCEP03730560","2024-03-17 14:45:00","9.6544","3.22629","24.997","5.116","7.56","0.297","4.142","0.02","0.15","29.3768","4.65495","54.27","0","SATNPRO1963","30.806","0.43148","5"],
    [16443,"HCEP03730560","2024-03-17 15:00:00","9.6543","3.2264","24.885","5.118","7.56","0.339","4.274","0.01","0.12","29.378","4.65512","54.3","0","SATNPRO1963","30.784","0.4312","5"],
    [16444,"HCEP03730560","2024-03-17 15:15:00","9.6545","3.22645","24.789","5.111","7.56","0.294","4.273","0.01","0.16","29.3784","4.65516","54.22","0","SATNPRO1963","30.538","0.42776","5"],
    [16445,"HCEP03730560","2024-03-17 15:30:00","9.6526","3.22625","24.703","5.16","7.56","0.335","3.828","0.01","0.15","29.3779","4.65513","54.73","0","SATNPRO1963","30.756","0.4308","5"],
    [16446,"HCEP03730560","2024-03-17 15:45:00","9.6532","3.2264","24.645","5.176","7.56","0.288","3.826","0.02","0.21","29.379","4.65527","54.9","0","SATNPRO1963","30.916","0.43304","5"],
    [16447,"HCEP03730560","2024-03-17 16:00:00","9.6521","3.22647","24.587","5.192","7.56","0.326","3.693","0.01","0.17","29.3807","4.65552","55.07","0","SATNPRO1963","31","0.43424","5"],
    [16448,"HCEP03730560","2024-03-17 16:15:00","9.6505","3.22649","24.565","5.239","7.57","0.285","3.528","0.03","0.19","29.3822","4.65577","55.57","0","SATNPRO1963","31.116","0.43584","5"],
    [16449,"HCEP03730560","2024-03-17 16:30:00","9.6504","3.22654","24.529","5.254","7.57","0.322","3.398","0.02","0.19","29.3828","4.65585","55.73","0","SATNPRO1963","31.27","0.438","5"],
    [16450,"HCEP03730560","2024-03-17 16:45:00","9.6504","3.22657","24.534","5.27","7.57","0.284","3.564","0.02","0.24","29.383","4.65589","55.9","0","SATNPRO1963","31.292","0.4383","5"],
    [16451,"HCEP03730560","2024-03-17 17:00:00","9.6501","3.22671","24.564","5.296","7.57","0.326","3.225","0.02","0.14","29.3848","4.65614","56.17","0","SATNPRO1963","31.224","0.43738","5"],
    [16452,"HCEP03730560","2024-03-17 17:15:00","9.6504","3.22668","24.583","5.287","7.57","0.276","3.283","0.01","0.14","29.3841","4.65605","56.08","0","SATNPRO1963","31.308","0.4385","5"],
    [16453,"HCEP03730560","2024-03-17 17:30:00","9.6503","3.22668","24.582","5.292","7.57","0.318","3.247","0.01","0.12","29.3843","4.65607","56.13","0","SATNPRO1963","31.294","0.43832","5"],
    [16454,"HCEP03730560","2024-03-17 17:45:00","9.6494","3.22656","24.648","5.295","7.57","0.279","3.45","0.02","0.14","29.3837","4.65601","56.16","0","SATNPRO1963","31.108","0.43572","5"],
    [16455,"HCEP03730560","2024-03-17 18:00:00","9.6497","3.22651","24.709","5.281","7.57","0.321","3.526","0.01","0.18","29.383","4.6559","56.02","0","SATNPRO1963","31.227999999999998","0.4374","5"],
    [16456,"HCEP03730560","2024-03-17 18:15:00","9.6497","3.22663","24.817","5.282","7.57","0.278","3.565","0.02","0.44","29.3841","4.65607","56.02","0","SATNPRO1963","31.342","0.43896","5"],
    [16457,"HCEP03730560","2024-03-17 18:30:00","9.6495","3.2265","24.916","5.287","7.57","0.325","3.361","0.02","0.27","29.383","4.65591","56.08","0","SATNPRO1963","31.152","0.43636","5"],
    [16458,"HCEP03730560","2024-03-17 18:45:00","9.6493","3.22663","25.028","5.297","7.58","0.27","3.334","0.01","0.14","29.3844","4.65613","56.18","0","SATNPRO1963","31.194","0.43694","5"],
    [16459,"HCEP03730560","2024-03-17 19:00:00","9.6491","3.22653","25.176","5.304","7.58","0.306","3.006","0.01","0.12","29.3835","4.65602","56.26","0","SATNPRO1963","31.226","0.43736","5"],
    [16460,"HCEP03730560","2024-03-17 19:15:00","9.6501","3.22643","25.274","5.267","7.58","0.264","3.209","0.01","0.14","29.3817","4.65574","55.87","0","SATNPRO1963","31.182","0.43676","5"],
    [16461,"HCEP03730560","2024-03-17 19:30:00","9.6479","3.2263","25.412","5.304","7.58","0.308","3.018","0.01","0.13","29.3821","4.65585","56.25","0","SATNPRO1963","31.2","0.43702","5"],
    [16462,"HCEP03730560","2024-03-17 19:45:00","9.6491","3.22652","25.54","5.305","7.58","0.267","3.058","0.03","0.25","29.3832","4.65599","56.27","0","SATNPRO1963","31.436","0.44032","5"],
    [16463,"HCEP03730560","2024-03-17 20:00:00","9.6501","3.22709","25.694","5.323","7.58","0.306","2.988","0.01","0.1","29.3881","4.65668","56.46","0","SATNPRO1963","31.214","0.4372","5"],
    [16464,"HCEP03730560","2024-03-17 20:15:00","9.6504","3.2273","25.854","5.335","7.58","0.266","3.083","0.01","0.13","29.3899","4.65694","56.59","0","SATNPRO1963","31.232","0.43742","5"],
    [16465,"HCEP03730560","2024-03-17 20:30:00","9.6532","3.22804","26.017","5.309","7.58","0.323","3.544","0.01","0.22","29.3949","4.65762","56.33","0","SATNPRO1963","31.236","0.4375","5"],
    [16466,"HCEP03730560","2024-03-17 20:45:00","9.6537","3.22809","26.161","5.289","7.58","0.276","3.57","0.01","0.24","29.395","4.65764","56.11","0","SATNPRO1963","31.174","0.43666","5"],
    [16467,"HCEP03730560","2024-03-17 21:00:00","9.654","3.22826","26.355","5.297","7.58","0.317","3.636","0.01","0.14","29.3964","4.65784","56.2","0","SATNPRO1963","31.314","0.43862","5"],
    [16468,"HCEP03730560","2024-03-17 21:15:00","9.6547","3.22801","26.471","5.267","7.58","0.273","3.652","0.01","0.13","29.3933","4.65739","55.88","0","SATNPRO1963","31.105999999999998","0.43568","5"],
    [16469,"HCEP03730560","2024-03-17 21:30:00","9.6549","3.22841","26.645","5.266","7.58","0.325","3.895","0.02","0.21","29.3971","4.65794","55.87","0","SATNPRO1963","30.934","0.43326","5"],
    [16470,"HCEP03730560","2024-03-17 21:45:00","9.6565","3.22865","26.826","5.23","7.57","0.288","4.415","0.01","0.21","29.3981","4.65808","55.48","0","SATNPRO1963","31.18","0.4367","5"],
    [16471,"HCEP03730560","2024-03-17 22:00:00","9.6543","3.2282","26.92","5.27","7.57","0.312","3.386","0.01","0.2","29.3953","4.65772","55.91","0","SATNPRO1963","31.32","0.43872","5"],
    [16472,"HCEP03730560","2024-03-17 22:15:00","9.6552","3.22826","27.049","5.254","7.57","0.273","3.337","0.01","0.15","29.3952","4.65769","55.75","0","SATNPRO1963","31.105999999999998","0.43568","5"],
    [16473,"HCEP03730560","2024-03-17 22:30:00","9.6574","3.22899","27.159","5.218","7.57","0.336","4.337","0.02","0.23","29.4008","4.65845","55.36","0","SATNPRO1963","31.214","0.4372","5"],
    [16474,"HCEP03730560","2024-03-17 22:45:00","9.6565","3.22894","27.267","5.235","7.57","0.285","3.942","0.02","0.16","29.4009","4.65849","55.55","0","SATNPRO1963","31.236","0.43754","5"],
    [16475,"HCEP03730560","2024-03-17 23:00:00","9.6593","3.2293","27.35","5.188","7.57","0.351","4.914","0.02","0.18","29.4022","4.65864","55.05","0","SATNPRO1963","31.07","0.4352","5"],
    [16476,"HCEP03730560","2024-03-17 23:15:00","9.6579","3.2291","27.432","5.194","7.57","0.283","4.333","0.01","0.5","29.4013","4.65854","55.11","0","SATNPRO1963","31.124","0.43594","5"],
    [16477,"HCEP03730560","2024-03-17 23:30:00","9.659","3.22916","27.483","5.175","7.57","0.34","4.804","0.02","0.45","29.4009","4.65846","54.91","0","SATNPRO1963","30.894000000000002","0.43272","5"],
    [16478,"HCEP03730560","2024-03-17 23:45:00","9.6592","3.22834","27.529","5.124","7.57","0.291","4.501","0.01","0.29","29.3925","4.65727","54.36","0","SATNPRO1963","31.074","0.43524","5"],
    [16479,"HCEP03730560","2024-03-18 00:00:00","9.6591","3.22828","27.575","5.099","7.56","0.337","4.708","0.01","0.38","29.392","4.65719","54.1","0","SATNPRO1963","30.922","0.43316","5"],
    [16480,"HCEP03730560","2024-03-18 00:15:00","9.6577","3.22757","27.608","5.07","7.56","0.296","4.993","0.01","0.27","29.3859","4.65635","53.79","0","SATNPRO1963","30.848","0.43208","5"],
    [16481,"HCEP03730560","2024-03-18 00:30:00","9.654","3.22576","27.641","5.032","7.56","0.344","4.693","0.02","0.25","29.3708","4.65425","53.37","0","SATNPRO1963","30.728","0.4304","5"],
    [16482,"HCEP03730560","2024-03-18 00:45:00","9.6473","3.22352","27.665","5.028","7.56","0.288","4.217","0.01","0.12","29.3535","4.6519","53.33","0","SATNPRO1963","30.54","0.42776","5"],
    [16483,"HCEP03730560","2024-03-18 01:00:00","9.6485","3.22395","27.691","5.028","7.56","0.334","4.079","0.01","0.16","29.3569","4.65236","53.32","0","SATNPRO1963","30.573999999999998","0.42826","5"],
    [16484,"HCEP03730560","2024-03-18 01:15:00","9.6521","3.22526","27.696","5.02","7.56","0.295","4.627","0.01","0.21","29.3672","4.65377","53.25","0","SATNPRO1963","30.64","0.42914","5"],
    [16485,"HCEP03730560","2024-03-18 01:30:00","9.6505","3.22451","27.706","5.021","7.56","0.342","4.391","0.01","0.25","29.3609","4.6529","53.25","0","SATNPRO1963","30.576","0.42826","5"],
    [16486,"HCEP03730560","2024-03-18 01:45:00","9.6528","3.22515","27.709","4.991","7.55","0.31","5.229","0.02","0.37","29.3655","4.65352","52.93","0","SATNPRO1963","30.552","0.42794","5"],
    [16487,"HCEP03730560","2024-03-18 02:00:00","9.6542","3.22556","27.676","4.984","7.55","0.355","4.912","0.02","0.24","29.3686","4.65393","52.87","0","SATNPRO1963","30.612","0.42876","5"],
    [16488,"HCEP03730560","2024-03-18 02:15:00","9.6533","3.22543","27.654","4.996","7.55","0.306","4.933","0.02","0.23","29.368","4.65386","52.99","0","SATNPRO1963","30.576","0.42828","5"],
    [16489,"HCEP03730560","2024-03-18 02:30:00","9.654","3.22571","27.601","5.003","7.55","0.348","4.932","0.02","0.42","29.3702","4.65416","53.06","0","SATNPRO1963","30.73","0.43042","5"],
    [16490,"HCEP03730560","2024-03-18 02:45:00","9.6541","3.22582","27.595","5.01","7.55","0.298","4.668","0.01","0.18","29.3712","4.65431","53.14","0","SATNPRO1963","30.752","0.43076","5"],
    [16491,"HCEP03730560","2024-03-18 03:00:00","9.6544","3.22598","27.512","5.017","7.55","0.347","4.594","0.01","0.16","29.3726","4.6545","53.22","0","SATNPRO1963","30.482","0.42692","5"],
    [16492,"HCEP03730560","2024-03-18 03:15:00","9.6553","3.22626","27.446","5.013","7.55","0.297","4.623","0.01","0.23","29.3748","4.65478","53.18","0","SATNPRO1963","30.676","0.42962","5"],
    [16493,"HCEP03730560","2024-03-18 03:30:00","9.6537","3.22578","27.383","5.007","7.55","0.347","4.378","0.02","0.24","29.3712","4.6543","53.11","0","SATNPRO1963","30.69","0.42984","5"],
    [16494,"HCEP03730560","2024-03-18 03:45:00","9.6535","3.22567","27.333","5.006","7.55","0.308","4.605","0.04","0.23","29.3703","4.65417","53.1","0","SATNPRO1963","30.77","0.43102","5"],
    [16495,"HCEP03730560","2024-03-18 04:00:00","9.6522","3.22531","27.267","5.017","7.55","0.341","4.539","0.02","0.3","29.3679","4.65384","53.22","0","SATNPRO1963","30.714","0.4302","5"],
    [16496,"HCEP03730560","2024-03-18 04:15:00","9.6502","3.22484","27.207","5.032","7.55","0.283","4.216","0.01","0.17","29.3648","4.65343","53.37","0","SATNPRO1963","30.736","0.4305","5"],
    [16497,"HCEP03730560","2024-03-18 04:30:00","9.645","3.2233","27.166","5.098","7.56","0.335","3.458","0.04","0.28","29.3534","4.65189","54.06","0","SATNPRO1963","30.78","0.43112","5"],
    [16498,"HCEP03730560","2024-03-18 04:45:00","9.6457","3.22366","27.108","5.107","7.56","0.283","3.744","0.02","0.23","29.3566","4.65233","54.16","0","SATNPRO1963","30.552","0.42792","5"],
    [16499,"HCEP03730560","2024-03-18 05:00:00","9.6506","3.22499","27.058","5.035","7.56","0.339","3.944","0.02","0.23","29.366","4.65359","53.4","0","SATNPRO1963","30.598","0.42864","5"],
    [16500,"HCEP03730560","2024-03-18 05:15:00","9.6511","3.22505","27.005","5.02","7.55","0.297","4.295","0.02","0.26","29.3662","4.65361","53.24","0","SATNPRO1963","30.468","0.42678","5"],
    [16501,"HCEP03730560","2024-03-18 05:30:00","9.6512","3.22515","26.953","4.995","7.55","0.338","4.236","0.02","0.25","29.3672","4.65374","52.98","0","SATNPRO1963","30.618000000000002","0.4289","5"],
    [16502,"HCEP03730560","2024-03-18 05:45:00","9.6497","3.22458","26.931","5","7.55","0.313","4.408","0.03","0.2","29.3627","4.65312","53.03","0","SATNPRO1963","30.556","0.428","5"],
    [16503,"HCEP03730560","2024-03-18 06:00:00","9.6437","3.22258","26.891","5.044","7.55","0.342","4.033","0.04","0.2","29.3473","4.65103","53.49","0","SATNPRO1963","30.758","0.43084","5"],
    [16504,"HCEP03730560","2024-03-18 06:15:00","9.6404","3.22146","26.871","5.082","7.56","0.287","4.053","0.02","0.3","29.3388","4.64986","53.88","0","SATNPRO1963","30.766000000000002","0.43096","5"],
    [16505,"HCEP03730560","2024-03-18 06:30:00","9.6365","3.22051","26.855","5.13","7.56","0.352","4.354","0.04","0.21","29.3323","4.649","54.38","0","SATNPRO1963","30.78","0.43112","5"],
    [16506,"HCEP03730560","2024-03-18 06:45:00","9.6358","3.22018","26.846","5.146","7.56","0.293","4.173","0.01","0.31","29.3297","4.64864","54.55","0","SATNPRO1963","30.914","0.43304","5"],
    [16507,"HCEP03730560","2024-03-18 07:00:00","9.6417","3.2217","26.851","5.036","7.56","0.36","5.117","0.02","0.23","29.3402","4.65003","53.4","0","SATNPRO1963","30.584","0.42838","5"],
    [16508,"HCEP03730560","2024-03-18 07:15:00","9.6442","3.22221","26.857","4.98","7.55","0.311","5.102","0.01","0.34","29.3433","4.65043","52.8","0","SATNPRO1963","30.514","0.4274","5"],
    [16509,"HCEP03730560","2024-03-18 07:30:00","9.6424","3.22185","26.853","5.006","7.55","0.374","4.73","0.04","0.26","29.3411","4.65015","53.08","0","SATNPRO1963","30.518","0.42744","5"],
    [16510,"HCEP03730560","2024-03-18 07:45:00","9.645","3.22271","26.863","4.979","7.55","0.31","4.793","0.02","0.27","29.3476","4.65104","52.79","0","SATNPRO1963","30.502000000000002","0.42724","5"],
    [16511,"HCEP03730560","2024-03-18 08:00:00","9.6433","3.22246","26.857","4.983","7.55","0.358","4.734","0.02","0.23","29.3465","4.65091","52.84","0","SATNPRO1963","30.564","0.4281","5"],
    [16512,"HCEP03730560","2024-03-18 08:15:00","9.6491","3.22423","26.862","4.948","7.55","0.305","4.719","0.02","0.23","29.3596","4.65269","52.47","0","SATNPRO1963","30.464","0.42664","5"],
    [16513,"HCEP03730560","2024-03-18 08:30:00","9.645","3.22286","26.857","4.959","7.55","0.349","4.243","0.02","0.28","29.3491","4.65126","52.58","0","SATNPRO1963","30.918","0.43304","5"],
    [16514,"HCEP03730560","2024-03-18 08:45:00","9.6549","3.22603","26.84","4.901","7.55","0.328","4.924","0.02","0.52","29.373","4.6545","51.99","0","SATNPRO1963","30.44","0.42642","5"],
    [16515,"HCEP03730560","2024-03-18 09:00:00","9.6512","3.22482","26.835","4.951","7.55","0.352","4.42","0.02","0.22","29.3638","4.65326","52.51","0","SATNPRO1963","30.424","0.42614","5"],
    [16516,"HCEP03730560","2024-03-18 09:15:00","9.6584","3.22706","26.854","4.87","7.54","0.329","5.824","0.02","0.34","29.3805","4.65552","51.66","0","SATNPRO1963","30.412","0.42596","5"],
    [16517,"HCEP03730560","2024-03-18 09:30:00","9.6558","3.2263","26.852","4.907","7.54","0.36","4.81","0.03","0.24","29.375","4.65477","52.06","0","SATNPRO1963","30.468","0.42676","5"],
    [16518,"HCEP03730560","2024-03-18 09:45:00","9.6605","3.22792","26.885","4.871","7.54","0.328","5.531","0.03","0.4","29.3874","4.65647","51.68","0","SATNPRO1963","30.356","0.42514","5"],
    [16519,"HCEP03730560","2024-03-18 10:00:00","9.6615","3.22823","26.887","4.854","7.54","0.384","5.517","0.04","0.26","29.3898","4.65679","51.51","0","SATNPRO1963","30.52","0.42752","5"],
    [16520,"HCEP03730560","2024-03-18 10:15:00","9.6619","3.22842","26.895","4.852","7.54","0.348","6.085","0.03","0.37","29.3913","4.65701","51.49","0","SATNPRO1963","30.424","0.42612","5"],
    [16521,"HCEP03730560","2024-03-18 10:30:00","9.6616","3.22841","26.894","4.871","7.54","0.383","6.105","0.02","0.31","29.3915","4.65704","51.69","0","SATNPRO1963","30.442","0.4264","5"],
    [16522,"HCEP03730560","2024-03-18 10:45:00","9.6613","3.22841","26.885","4.887","7.54","0.336","6.441","0.01","0.4","29.3918","4.65708","51.85","0","SATNPRO1963","30.588","0.42842","5"],
    [16523,"HCEP03730560","2024-03-18 11:00:00","9.6602","3.22818","26.859","4.908","7.54","0.374","5.486","0.02","0.2","29.3904","4.6569","52.07","0","SATNPRO1963","30.57","0.42816","5"],
    [16524,"HCEP03730560","2024-03-18 11:15:00","9.6588","3.22777","26.83","4.94","7.54","0.306","4.808","0.01","0.25","29.3874","4.6565","52.41","0","SATNPRO1963","30.582","0.42834","5"],
    [16525,"HCEP03730560","2024-03-18 11:30:00","9.6592","3.22808","26.794","4.96","7.55","0.368","5.271","0.02","0.26","29.3902","4.65689","52.63","0","SATNPRO1963","30.556","0.428","5"],
    [16526,"HCEP03730560","2024-03-18 11:45:00","9.6591","3.22832","26.783","4.982","7.55","0.316","5.092","0.03","0.24","29.3926","4.65724","52.86","0","SATNPRO1963","30.58","0.42834","5"],
    [16527,"HCEP03730560","2024-03-18 12:00:00","9.6586","3.22852","26.735","5.027","7.55","0.349","4.934","0.02","0.31","29.3952","4.65761","53.34","0","SATNPRO1963","30.748","0.43068","5"],
    [16528,"HCEP03730560","2024-03-18 12:15:00","9.656","3.22821","26.714","5.092","7.55","0.301","4.764","0.01","0.17","29.3941","4.6575","54.02","0","SATNPRO1963","30.938","0.4333","5"],
    [16529,"HCEP03730560","2024-03-18 12:30:00","9.6546","3.22827","26.639","5.165","7.56","0.36","4.933","0.03","0.2","29.396","4.65779","54.8","0","SATNPRO1963","30.97","0.43378","5"],
    [16530,"HCEP03730560","2024-03-18 12:45:00","9.6523","3.22816","26.561","5.228","7.56","0.287","4.256","0.01","0.32","29.3967","4.65792","55.46","0","SATNPRO1963","31.19","0.43686","5"],
    [16531,"HCEP03730560","2024-03-18 13:00:00","9.6519","3.22817","26.486","5.267","7.57","0.334","4.381","0.01","0.27","29.3971","4.65799","55.87","0","SATNPRO1963","31.446","0.44042","5"],
    [16532,"HCEP03730560","2024-03-18 13:15:00","9.6505","3.22818","26.403","5.305","7.57","0.274","3.865","0.01","0.14","29.3985","4.65821","56.28","0","SATNPRO1963","31.366","0.43932","5"],
    [16533,"HCEP03730560","2024-03-18 13:30:00","9.6506","3.22823","26.313","5.311","7.57","0.334","4.008","0.01","0.21","29.3989","4.65826","56.34","0","SATNPRO1963","31.264","0.4379","5"],
    [16534,"HCEP03730560","2024-03-18 13:45:00","9.6496","3.22808","26.186","5.331","7.57","0.277","3.758","0.01","0.17","29.3982","4.65817","56.55","0","SATNPRO1963","31.248","0.43768","5"],
    [16535,"HCEP03730560","2024-03-18 14:00:00","9.6486","3.22787","26.07","5.339","7.57","0.334","3.732","0.02","0.16","29.397","4.65801","56.63","0","SATNPRO1963","31.414","0.44002","5"],
    [16536,"HCEP03730560","2024-03-18 14:15:00","9.649","3.2278","25.946","5.303","7.57","0.291","4.308","0.01","0.26","29.3961","4.65786","56.26","0","SATNPRO1963","31.468","0.4408","5"],
    [16537,"HCEP03730560","2024-03-18 14:30:00","9.6489","3.22789","25.841","5.313","7.57","0.332","4.118","0.01","0.12","29.397","4.65799","56.36","0","SATNPRO1963","31.291999999999998","0.4383","5"],
    [16538,"HCEP03730560","2024-03-18 14:45:00","9.6489","3.22778","25.707","5.302","7.57","0.322","4.477","0.09","0.3","29.396","4.65783","56.25","0","SATNPRO1963","31.256","0.4378","5"],
    [16539,"HCEP03730560","2024-03-18 15:00:00","9.6483","3.22764","25.575","5.303","7.57","0.342","3.739","0.03","0.19","29.3951","4.65771","56.25","0","SATNPRO1963","31.432","0.44026","5"],
    [16540,"HCEP03730560","2024-03-18 15:15:00","9.6487","3.22769","25.444","5.296","7.57","0.276","3.733","0.01","0.19","29.3954","4.65774","56.18","0","SATNPRO1963","31.454","0.4406","5"],
    [16541,"HCEP03730560","2024-03-18 15:30:00","9.6497","3.22785","25.328","5.289","7.57","0.324","3.647","0.01","0.16","29.3962","4.65783","56.11","0","SATNPRO1963","31.436","0.44032","5"],
    [16542,"HCEP03730560","2024-03-18 15:45:00","9.6498","3.22831","25.206","5.312","7.57","0.278","3.649","0.01","0.17","29.4008","4.65848","56.35","0","SATNPRO1963","31.528","0.44166","5"],
    [16543,"HCEP03730560","2024-03-18 16:00:00","9.6506","3.22845","25.099","5.298","7.57","0.334","4.091","0.01","0.16","29.4016","4.65858","56.2","0","SATNPRO1963","31.236","0.43752","5"],
    [16544,"HCEP03730560","2024-03-18 16:15:00","9.6509","3.22852","25.001","5.286","7.57","0.279","3.683","0.02","0.09","29.4022","4.65865","56.08","0","SATNPRO1963","31.37","0.43936","5"],
    [16545,"HCEP03730560","2024-03-18 16:30:00","9.6521","3.22873","24.911","5.277","7.57","0.338","3.725","0.03","0.16","29.4033","4.65878","55.99","0","SATNPRO1963","31.304","0.43848","5"],
    [16546,"HCEP03730560","2024-03-18 16:45:00","9.6518","3.22877","24.81","5.273","7.57","0.291","3.891","0.02","0.25","29.4041","4.65889","55.94","0","SATNPRO1963","31.184","0.43678","5"],
    [16547,"HCEP03730560","2024-03-18 17:00:00","9.6523","3.22889","24.744","5.262","7.57","0.343","4.142","0.02","0.21","29.4048","4.65898","55.83","0","SATNPRO1963","31.18","0.43672","5"],
    [16548,"HCEP03730560","2024-03-18 17:15:00","9.6526","3.22892","24.692","5.254","7.57","0.294","4.19","0.02","0.24","29.4049","4.65899","55.74","0","SATNPRO1963","31.352","0.4392","5"],
    [16549,"HCEP03730560","2024-03-18 17:30:00","9.6528","3.22891","24.64","5.241","7.57","0.336","3.874","0.02","0.27","29.4047","4.65895","55.61","0","SATNPRO1963","31.166","0.4365","5"],
    [16550,"HCEP03730560","2024-03-18 17:45:00","9.6533","3.22898","24.608","5.222","7.56","0.295","4.287","0.02","0.27","29.4049","4.65897","55.41","0","SATNPRO1963","31.262","0.43786","5"],
    [16551,"HCEP03730560","2024-03-18 18:00:00","9.6533","3.22896","24.604","5.208","7.56","0.381","4.409","0.11","0.25","29.4047","4.65895","55.26","0","SATNPRO1963","31.058","0.43504","5"],
    [16552,"HCEP03730560","2024-03-18 18:15:00","9.6539","3.22901","24.627","5.188","7.56","0.307","4.685","0.01","0.2","29.4047","4.65894","55.04","0","SATNPRO1963","31.448","0.4405","5"],
    [16553,"HCEP03730560","2024-03-18 18:30:00","9.6547","3.22918","24.664","5.163","7.56","0.355","4.722","0.02","0.23","29.4058","4.65908","54.78","0","SATNPRO1963","31.082","0.43536","5"],
    [16554,"HCEP03730560","2024-03-18 18:45:00","9.6561","3.22945","24.705","5.13","7.56","0.314","4.76","0.02","0.34","29.4073","4.65927","54.43","0","SATNPRO1963","31.182","0.43678","5"],
    [16555,"HCEP03730560","2024-03-18 19:00:00","9.6581","3.22946","24.751","5.062","7.55","0.37","5.262","0.04","0.31","29.4059","4.65903","53.71","0","SATNPRO1963","30.962","0.43364","5"],
    [16556,"HCEP03730560","2024-03-18 19:15:00","9.6607","3.22975","24.819","4.972","7.55","0.331","5.046","0.03","0.39","29.4066","4.6591","52.76","0","SATNPRO1963","30.664","0.42952","5"],
    [16557,"HCEP03730560","2024-03-18 19:30:00","9.6618","3.22996","24.903","4.929","7.55","0.372","5.194","0.08","0.3","29.4078","4.65925","52.3","0","SATNPRO1963","31.19","0.43686","5"],
    [16558,"HCEP03730560","2024-03-18 19:45:00","9.6625","3.23029","25.001","4.925","7.54","0.318","4.862","0.03","0.18","29.4105","4.65963","52.26","0","SATNPRO1963","30.622","0.4289","5"],
    [16559,"HCEP03730560","2024-03-18 20:00:00","9.6628","3.2304","25.104","4.935","7.54","0.373","4.796","0.02","0.45","29.4113","4.65975","52.37","0","SATNPRO1963","30.692","0.4299","5"],
    [16560,"HCEP03730560","2024-03-18 20:15:00","9.6605","3.23028","25.208","5.006","7.55","0.312","5.144","0.02","0.36","29.4119","4.65988","53.12","0","SATNPRO1963","30.654","0.42936","5"],
    [16561,"HCEP03730560","2024-03-18 20:30:00","9.6604","3.23049","25.35","5.044","7.55","0.352","4.857","0.02","0.25","29.4141","4.66021","53.52","0","SATNPRO1963","31.198","0.43696","5"],
    [16562,"HCEP03730560","2024-03-18 20:45:00","9.6608","3.23096","25.488","5.097","7.55","0.299","5.171","0.02","0.34","29.4184","4.66083","54.09","0","SATNPRO1963","31.062","0.4351","5"],
    [16563,"HCEP03730560","2024-03-18 21:00:00","9.6626","3.23208","25.613","5.14","7.56","0.347","5.162","0.02","0.33","29.4282","4.6622","54.55","0","SATNPRO1963","31.07","0.4352","5"],
    [16564,"HCEP03730560","2024-03-18 21:15:00","9.6658","3.23363","25.758","5.215","7.56","0.308","5.681","0.02","0.48","29.4411","4.66401","55.36","0","SATNPRO1963","31.56","0.44202","5"],
    [16565,"HCEP03730560","2024-03-18 21:30:00","9.6733","3.23607","25.923","5.282","7.57","0.331","4.681","0.02","0.64","29.4595","4.66652","56.09","0","SATNPRO1963","31.884","0.4466","5"],
    [16566,"HCEP03730560","2024-03-18 21:45:00","9.6745","3.23661","26.062","5.318","7.57","0.286","4.86","0.02","0.47","29.4639","4.66713","56.47","0","SATNPRO1963","31.977999999999998","0.44792","5"],
    [16567,"HCEP03730560","2024-03-18 22:00:00","9.6682","3.23449","26.226","5.299","7.57","0.331","3.979","0.02","0.2","29.4476","4.66491","56.25","0","SATNPRO1963","31.666","0.4435","5"],
    [16568,"HCEP03730560","2024-03-18 22:15:00","9.6712","3.23548","26.405","5.295","7.57","0.276","4.394","0.01","0.24","29.455","4.66594","56.21","0","SATNPRO1963","31.722","0.44432","5"],
    [16569,"HCEP03730560","2024-03-18 22:30:00","9.674","3.23639","26.555","5.308","7.57","0.327","4.557","0.02","0.41","29.4619","4.66688","56.36","0","SATNPRO1963","31.826","0.44576","5"],
    [16570,"HCEP03730560","2024-03-18 22:45:00","9.6739","3.23644","26.718","5.342","7.58","0.263","3.107","0.02","0.1","29.4625","4.66698","56.72","0","SATNPRO1963","31.694","0.44396","5"],
    [16571,"HCEP03730560","2024-03-18 23:00:00","9.6711","3.23566","26.868","5.372","7.58","0.292","2.78","0.02","0.12","29.4568","4.66621","57.03","0","SATNPRO1963","31.906000000000002","0.44692","5"],
    [16572,"HCEP03730560","2024-03-18 23:15:00","9.6749","3.23676","27.02","5.353","7.58","0.257","3.553","0.01","0.4","29.4647","4.66729","56.84","0","SATNPRO1963","31.864","0.4463","5"],
    [16573,"HCEP03730560","2024-03-18 23:30:00","9.6753","3.23705","27.136","5.372","7.58","0.301","3.048","0.01","0.12","29.4673","4.66766","57.05","0","SATNPRO1963","32.012","0.44838","5"],
    [16574,"HCEP03730560","2024-03-18 23:45:00","9.677","3.23746","27.25","5.379","7.58","0.246","2.851","0.01","0.17","29.4699","4.66801","57.13","0","SATNPRO1963","32.12","0.4499","5"],
    [16575,"HCEP03730560","2024-03-19 00:00:00","9.6789","3.23799","27.347","5.366","7.58","0.303","3.049","0.01","0.14","29.4736","4.66852","56.99","0","SATNPRO1963","32.108000000000004","0.4497","5"],
    [16576,"HCEP03730560","2024-03-19 00:15:00","9.6804","3.23842","27.448","5.365","7.58","0.267","3.421","0.02","0.2","29.4767","4.66895","56.98","0","SATNPRO1963","31.894","0.44674","5"],
    [16577,"HCEP03730560","2024-03-19 00:30:00","9.6814","3.23869","27.529","5.357","7.58","0.323","4.092","0.01","0.38","29.4786","4.6692","56.9","0","SATNPRO1963","31.898","0.44682","5"],
    [16578,"HCEP03730560","2024-03-19 00:45:00","9.6816","3.23879","27.604","5.345","7.58","0.269","3.904","0.01","0.17","29.4794","4.66932","56.77","0","SATNPRO1963","31.916","0.44704","5"],
    [16579,"HCEP03730560","2024-03-19 01:00:00","9.6818","3.23876","27.658","5.327","7.58","0.327","4.302","0.01","0.23","29.479","4.66926","56.58","0","SATNPRO1963","31.898","0.44678","5"],
    [16580,"HCEP03730560","2024-03-19 01:15:00","9.6812","3.23859","27.691","5.326","7.58","0.277","4.082","0.01","0.24","29.4778","4.66909","56.57","0","SATNPRO1963","31.962","0.44768","5"],
    [16581,"HCEP03730560","2024-03-19 01:30:00","9.678","3.23769","27.716","5.312","7.58","0.33","4.251","0.02","0.19","29.4712","4.66821","56.41","0","SATNPRO1963","32","0.44822","5"],
    [16582,"HCEP03730560","2024-03-19 01:45:00","9.6753","3.23678","27.759","5.304","7.58","0.277","4.392","0.02","0.21","29.4643","4.66727","56.32","0","SATNPRO1963","31.82","0.4457","5"],
    [16583,"HCEP03730560","2024-03-19 02:00:00","9.6724","3.23596","27.779","5.329","7.58","0.313","3.686","0.02","0.29","29.4584","4.66647","56.58","0","SATNPRO1963","31.806","0.44546","5"],
    [16584,"HCEP03730560","2024-03-19 02:15:00","9.6712","3.23556","27.786","5.336","7.58","0.268","3.68","0.01","0.19","29.4553","4.66606","56.66","0","SATNPRO1963","31.878","0.4465","5"],
    [16585,"HCEP03730560","2024-03-19 02:30:00","9.6722","3.23583","27.78","5.321","7.58","0.305","3.757","0.02","0.2","29.4573","4.66632","56.49","0","SATNPRO1963","31.76","0.44486","5"],
    [16586,"HCEP03730560","2024-03-19 02:45:00","9.6679","3.23476","27.757","5.354","7.58","0.27","3.576","0.02","0.17","29.4499","4.66534","56.84","0","SATNPRO1963","32.33","0.45282","5"],
    [16587,"HCEP03730560","2024-03-19 03:00:00","9.6697","3.23509","27.732","5.336","7.58","0.293","3.188","0.01","0.07","29.4519","4.66559","56.65","0","SATNPRO1963","32.132","0.45006","5"],
    [16588,"HCEP03730560","2024-03-19 03:15:00","9.6719","3.23577","27.694","5.32","7.58","0.278","3.796","0.04","0.17","29.4569","4.66627","56.49","0","SATNPRO1963","31.806","0.44554","5"],
    [16589,"HCEP03730560","2024-03-19 03:30:00","9.673","3.23604","27.646","5.309","7.58","0.318","3.905","0.03","0.24","29.4587","4.66651","56.37","0","SATNPRO1963","32.192","0.45094","5"],
    [16590,"HCEP03730560","2024-03-19 03:45:00","9.6719","3.23586","27.595","5.314","7.58","0.269","3.548","0.03","0.17","29.4578","4.66639","56.42","0","SATNPRO1963","31.844","0.44602","5"],
    [16591,"HCEP03730560","2024-03-19 04:00:00","9.6672","3.23445","27.542","5.334","7.58","0.307","3.346","0.01","0.14","29.4475","4.665","56.62","0","SATNPRO1963","31.636","0.4431","5"],
    [16592,"HCEP03730560","2024-03-19 04:15:00","9.6649","3.23389","27.471","5.361","7.58","0.255","3.179","0.02","0.24","29.4438","4.66451","56.91","0","SATNPRO1963","31.928","0.44722","5"],
    [16593,"HCEP03730560","2024-03-19 04:30:00","9.6678","3.23463","27.398","5.346","7.58","0.309","3.35","0.02","0.21","29.4489","4.66519","56.75","0","SATNPRO1963","31.882","0.44658","5"],
    [16594,"HCEP03730560","2024-03-19 04:45:00","9.669","3.23489","27.325","5.325","7.58","0.271","3.757","0.02","0.27","29.4506","4.66539","56.53","0","SATNPRO1963","31.656","0.4434","5"],
    [16595,"HCEP03730560","2024-03-19 05:00:00","9.6696","3.23499","27.242","5.312","7.58","0.326","3.816","0.02","0.22","29.4512","4.66547","56.39","0","SATNPRO1963","31.928","0.44718","5"],
    [16596,"HCEP03730560","2024-03-19 05:15:00","9.6704","3.23524","27.166","5.294","7.57","0.283","4.037","0.02","0.48","29.4531","4.66572","56.2","0","SATNPRO1963","31.804000000000002","0.44544","5"],
    [16597,"HCEP03730560","2024-03-19 05:30:00","9.6696","3.2349","27.087","5.287","7.57","0.32","3.753","0.01","0.24","29.4504","4.66534","56.13","0","SATNPRO1963","31.684","0.44378","5"],
    [16598,"HCEP03730560","2024-03-19 05:45:00","9.6693","3.23473","27.037","5.283","7.57","0.259","3.673","0.02","0.34","29.4488","4.66512","56.09","0","SATNPRO1963","31.848000000000003","0.44606","5"],
    [16599,"HCEP03730560","2024-03-19 06:00:00","9.6722","3.23564","26.961","5.292","7.57","0.323","3.67","0.04","0.35","29.4557","4.66605","56.19","0","SATNPRO1963","31.918","0.44704","5"],
    [16600,"HCEP03730560","2024-03-19 06:15:00","9.6746","3.23644","26.868","5.282","7.57","0.272","3.761","0.02","0.28","29.4618","4.66687","56.09","0","SATNPRO1963","31.76","0.44484","5"],
    [16601,"HCEP03730560","2024-03-19 06:30:00","9.677","3.23704","26.818","5.251","7.57","0.32","4.022","0.01","0.26","29.4659","4.66742","55.77","0","SATNPRO1963","31.79","0.44528","5"],
    [16602,"HCEP03730560","2024-03-19 06:45:00","9.6778","3.23725","26.757","5.241","7.57","0.273","3.911","0.02","0.32","29.4674","4.66762","55.66","0","SATNPRO1963","31.752","0.44476","5"],
    [16603,"HCEP03730560","2024-03-19 07:00:00","9.6771","3.23709","26.712","5.232","7.57","0.334","3.862","0.03","0.2","29.4663","4.66747","55.56","0","SATNPRO1963","31.768","0.44494","5"],
    [16604,"HCEP03730560","2024-03-19 07:15:00","9.6767","3.23704","26.663","5.243","7.57","0.285","4.188","0.02","0.36","29.4662","4.66745","55.68","0","SATNPRO1963","31.878","0.4465","5"],
    [16605,"HCEP03730560","2024-03-19 07:30:00","9.6764","3.23692","26.606","5.245","7.57","0.33","3.996","0.01","0.36","29.4653","4.66733","55.7","0","SATNPRO1963","31.77","0.44496","5"],
    [16606,"HCEP03730560","2024-03-19 07:45:00","9.6748","3.23656","26.562","5.266","7.57","0.27","3.527","0.02","0.21","29.4629","4.66701","55.91","0","SATNPRO1963","31.758","0.44484","5"],
    [16607,"HCEP03730560","2024-03-19 08:00:00","9.673","3.23602","26.565","5.281","7.57","0.308","2.837","0.02","0.17","29.459","4.66649","56.07","0","SATNPRO1963","31.977999999999998","0.4479","5"],
    [16608,"HCEP03730560","2024-03-19 08:15:00","9.6716","3.23563","26.555","5.297","7.57","0.243","2.652","0.01","0.12","29.4562","4.66611","56.23","0","SATNPRO1963","31.78","0.44516","5"],
    [16609,"HCEP03730560","2024-03-19 08:30:00","9.6713","3.23539","26.563","5.307","7.57","0.294","2.303","0.02","0.1","29.4541","4.66581","56.34","0","SATNPRO1963","31.778","0.44514","5"],
    [16610,"HCEP03730560","2024-03-19 08:45:00","9.6694","3.23501","26.56","5.327","7.57","0.232","2.379","0.01","0.03","29.4517","4.66551","56.56","0","SATNPRO1963","31.918","0.44708","5"],
    [16611,"HCEP03730560","2024-03-19 09:00:00","9.6699","3.23518","26.572","5.321","7.57","0.291","2.536","0.01","0.14","29.4531","4.66569","56.49","0","SATNPRO1963","31.716","0.44424","5"],
    [16612,"HCEP03730560","2024-03-19 09:15:00","9.6695","3.23511","26.591","5.333","7.57","0.253","2.769","0.02","0.16","29.4527","4.66564","56.61","0","SATNPRO1963","32.064","0.4491","5"],
    [16613,"HCEP03730560","2024-03-19 09:30:00","9.67","3.23524","26.603","5.343","7.58","0.294","2.679","0.01","0.12","29.4536","4.66577","56.72","0","SATNPRO1963","31.888","0.44664","5"],
    [16614,"HCEP03730560","2024-03-19 09:45:00","9.6689","3.23501","26.623","5.35","7.58","0.248","2.777","0.02","0.21","29.4521","4.66557","56.8","0","SATNPRO1963","31.968","0.44776","5"],
    [16615,"HCEP03730560","2024-03-19 10:00:00","9.6687","3.23498","26.657","5.352","7.58","0.292","2.607","0.01","0.2","29.4521","4.66557","56.82","0","SATNPRO1963","32.006","0.44828","5"],
    [16616,"HCEP03730560","2024-03-19 10:15:00","9.6714","3.23568","26.684","5.326","7.58","0.288","3.022","0.09","0.16","29.4568","4.66621","56.55","0","SATNPRO1963","31.77","0.445","5"],
    [16617,"HCEP03730560","2024-03-19 10:30:00","9.673","3.23599","26.707","5.312","7.57","0.308","2.93","0.02","0.19","29.4587","4.66644","56.4","0","SATNPRO1963","32.002","0.44824","5"],
    [16618,"HCEP03730560","2024-03-19 10:45:00","9.6768","3.23698","26.724","5.269","7.57","0.282","3.529","0.03","0.2","29.4655","4.66736","55.95","0","SATNPRO1963","32.025999999999996","0.44856","5"],
    [16619,"HCEP03730560","2024-03-19 11:00:00","9.676","3.23685","26.752","5.269","7.57","0.324","3.75","0.01","0.19","29.4648","4.66727","55.95","0","SATNPRO1963","31.864","0.44632","5"],
    [16620,"HCEP03730560","2024-03-19 11:15:00","9.6745","3.23635","26.771","5.291","7.57","0.266","3.463","0.01","0.16","29.461","4.66676","56.18","0","SATNPRO1963","31.624","0.44294","5"],
    [16621,"HCEP03730560","2024-03-19 11:30:00","9.6642","3.23367","26.792","5.374","7.58","0.292","2.35","0.01","0.14","29.4425","4.66428","57.05","0","SATNPRO1963","32.044","0.44884","5"],
    [16622,"HCEP03730560","2024-03-19 11:45:00","9.6583","3.23213","26.817","5.474","7.58","0.238","2.214","0.01","0.1","29.4317","4.66285","58.09","0","SATNPRO1963","32.174","0.4506","5"],
    [16623,"HCEP03730560","2024-03-19 12:00:00","9.6778","3.23734","26.823","5.314","7.58","0.334","4.214","0.02","0.21","29.4683","4.66774","56.44","0","SATNPRO1963","31.843999999999998","0.44604","5"],
    [16624,"HCEP03730560","2024-03-19 12:15:00","9.6825","3.23842","26.826","5.155","7.57","0.305","5.44","0.02","0.3","29.4753","4.66866","54.75","0","SATNPRO1963","31.53","0.44166","5"],
    [16625,"HCEP03730560","2024-03-19 12:30:00","9.6839","3.23877","26.817","5.12","7.56","0.364","5.747","0.01","0.33","29.4777","4.66899","54.39","0","SATNPRO1963","31.24","0.43756","5"],
    [16626,"HCEP03730560","2024-03-19 12:45:00","9.6823","3.23844","26.807","5.132","7.56","0.29","4.836","0.01","0.33","29.4756","4.66871","54.51","0","SATNPRO1963","31.644","0.44322","5"],
    [16627,"HCEP03730560","2024-03-19 13:00:00","9.6821","3.23843","26.785","5.159","7.56","0.323","4.06","0.02","0.3","29.4758","4.66874","54.8","0","SATNPRO1963","31.604","0.44266","5"],
    [16628,"HCEP03730560","2024-03-19 13:15:00","9.6806","3.23814","26.709","5.215","7.56","0.272","3.703","0.02","0.29","29.4741","4.66852","55.38","0","SATNPRO1963","31.772","0.44502","5"],
    [16629,"HCEP03730560","2024-03-19 13:30:00","9.6793","3.23769","26.667","5.261","7.57","0.305","3.075","0.01","0.22","29.4706","4.66804","55.87","0","SATNPRO1963","31.886","0.44662","5"],
    [16630,"HCEP03730560","2024-03-19 13:45:00","9.6792","3.23758","26.627","5.232","7.57","0.286","4.249","0.02","0.21","29.4696","4.66789","55.56","0","SATNPRO1963","31.684","0.44376","5"],
    [16631,"HCEP03730560","2024-03-19 14:00:00","9.6757","3.23669","26.58","5.247","7.57","0.327","4.302","0.02","0.22","29.4635","4.66709","55.71","0","SATNPRO1963","31.852","0.44616","5"],
    [16632,"HCEP03730560","2024-03-19 14:15:00","9.677","3.23709","26.509","5.199","7.57","0.306","4.711","0.02","0.24","29.4665","4.66749","55.21","0","SATNPRO1963","31.954","0.44758","5"],
    [16633,"HCEP03730560","2024-03-19 14:30:00","9.6725","3.23585","26.438","5.291","7.57","0.298","2.73","0.01","0.31","29.4577","4.6663","56.18","0","SATNPRO1963","31.93","0.44722","5"],
    [16634,"HCEP03730560","2024-03-19 14:45:00","9.6727","3.23593","26.342","5.302","7.57","0.254","3.01","0.01","0.23","29.4585","4.6664","56.3","0","SATNPRO1963","31.912","0.447","5"],
    [16635,"HCEP03730560","2024-03-19 15:00:00","9.6714","3.23561","26.249","5.327","7.57","0.288","2.167","0.01","0.08","29.4563","4.66611","56.56","0","SATNPRO1963","31.91","0.44692","5"],
    [16636,"HCEP03730560","2024-03-19 15:15:00","9.6711","3.23552","26.128","5.33","7.57","0.24","2.259","0.02","0.1","29.4557","4.66602","56.59","0","SATNPRO1963","32.046","0.44884","5"],
    [16637,"HCEP03730560","2024-03-19 15:30:00","9.67","3.23521","26.025","5.352","7.57","0.29","2.007","0.01","0.09","29.4535","4.66571","56.82","0","SATNPRO1963","32.038","0.44876","5"],
    [16638,"HCEP03730560","2024-03-19 15:45:00","9.6692","3.23496","25.898","5.36","7.57","0.245","2.349","0.02","0.15","29.4517","4.66547","56.91","0","SATNPRO1963","31.948","0.44752","5"],
    [16639,"HCEP03730560","2024-03-19 16:00:00","9.668","3.23464","25.776","5.353","7.57","0.279","2.234","0.01","0.07","29.4495","4.66516","56.82","0","SATNPRO1963","31.842","0.446","5"],
    [16640,"HCEP03730560","2024-03-19 16:15:00","9.6688","3.23468","25.662","5.263","7.57","0.268","3.147","0.02","0.14","29.4493","4.66512","55.87","0","SATNPRO1963","31.656","0.44338","5"],
    [16641,"HCEP03730560","2024-03-19 16:30:00","9.6718","3.2351","25.552","5.134","7.56","0.332","3.872","0.02","0.3","29.4511","4.66532","54.5","0","SATNPRO1963","31.54","0.44176","5"],
    [16642,"HCEP03730560","2024-03-19 16:45:00","9.6707","3.23484","25.421","5.119","7.56","0.284","4.04","0.02","0.39","29.4495","4.6651","54.34","0","SATNPRO1963","31.726","0.44438","5"],
    [16643,"HCEP03730560","2024-03-19 17:00:00","9.6686","3.23428","25.311","5.191","7.56","0.319","3.103","0.02","0.23","29.4456","4.66457","55.11","0","SATNPRO1963","31.724","0.44436","5"],
    [16644,"HCEP03730560","2024-03-19 17:15:00","9.6643","3.23346","25.183","5.294","7.56","0.245","2.353","0.01","0.14","29.4408","4.66396","56.19","0","SATNPRO1963","31.908","0.4469","5"],
    [16645,"HCEP03730560","2024-03-19 17:30:00","9.6626","3.23299","25.062","5.337","7.57","0.285","2.063","0.01","0.1","29.4375","4.6635","56.64","0","SATNPRO1963","32.004000000000005","0.44828","5"],
    [16646,"HCEP03730560","2024-03-19 17:45:00","9.6643","3.23306","24.972","5.268","7.57","0.263","2.945","0.01","0.18","29.4369","4.66338","55.92","0","SATNPRO1963","31.74","0.44454","5"],
    [16647,"HCEP03730560","2024-03-19 18:00:00","9.6636","3.23286","24.913","5.239","7.56","0.303","2.795","0.01","0.11","29.4355","4.66319","55.6","0","SATNPRO1963","31.631999999999998","0.44306","5"],
    [16648,"HCEP03730560","2024-03-19 18:15:00","9.6654","3.23325","24.851","5.209","7.56","0.274","3.631","0.01","0.12","29.438","4.66351","55.29","0","SATNPRO1963","31.434","0.44028","5"],
    [16649,"HCEP03730560","2024-03-19 18:30:00","9.6678","3.23372","24.802","5.109","7.56","0.329","3.787","0.01","0.16","29.4408","4.66387","54.23","0","SATNPRO1963","31.276","0.43806","5"],
    [16650,"HCEP03730560","2024-03-19 18:45:00","9.6681","3.23357","24.752","5.039","7.55","0.293","4.08","0.02","0.16","29.4391","4.66361","53.49","0","SATNPRO1963","30.892","0.43266","5"],
    [16651,"HCEP03730560","2024-03-19 19:00:00","9.6686","3.23349","24.708","5.002","7.55","0.335","3.972","0.01","0.1","29.4378","4.66342","53.1","0","SATNPRO1963","31.132","0.43604","5"],
    [16652,"HCEP03730560","2024-03-19 19:15:00","9.6651","3.23287","24.702","5.082","7.55","0.264","3.267","0.01","0.15","29.4344","4.66299","53.94","0","SATNPRO1963","31.317999999999998","0.43868","5"],
    [16653,"HCEP03730560","2024-03-19 19:30:00","9.6693","3.23305","24.713","4.899","7.54","0.346","4.311","0.01","0.13","29.4329","4.66271","52","0","SATNPRO1963","30.637999999999998","0.42916","5"],
    [16654,"HCEP03730560","2024-03-19 19:45:00","9.6691","3.23293","24.719","4.818","7.53","0.314","4.949","0.01","0.17","29.4318","4.66255","51.15","0","SATNPRO1963","30.418","0.4261","5"],
    [16655,"HCEP03730560","2024-03-19 20:00:00","9.6702","3.23313","24.802","4.796","7.53","0.366","5.175","0.01","0.15","29.4329","4.6627","50.91","0","SATNPRO1963","30.548000000000002","0.42786","5"],
    [16656,"HCEP03730560","2024-03-19 20:15:00","9.6715","3.2335","24.825","4.778","7.53","0.323","5.587","0.01","0.19","29.4355","4.66305","50.72","0","SATNPRO1963","30.624","0.42894","5"],
    [16657,"HCEP03730560","2024-03-19 20:30:00","9.6712","3.23357","24.911","4.773","7.53","0.37","5.54","0.01","0.12","29.4365","4.6632","50.67","0","SATNPRO1963","30.398","0.42576","5"],
    [16658,"HCEP03730560","2024-03-19 20:45:00","9.6728","3.2339","25.049","4.755","7.53","0.325","5.601","0.01","0.14","29.4384","4.66345","50.48","0","SATNPRO1963","30.332","0.42486","5"],
    [16659,"HCEP03730560","2024-03-19 21:00:00","9.673400000000001","3.23416","25.111","4.749","7.52","0.368","5.687","0.01","0.15","29.4405","4.66375","50.42","0","SATNPRO1963","30.378","0.42548","5"],
    [16660,"HCEP03730560","2024-03-19 21:15:00","9.6739","3.23432","25.28","4.754","7.52","0.317","5.384","0.01","0.19","29.4416","4.66391","50.47","0","SATNPRO1963","30.448","0.42646","5"],
    [16661,"HCEP03730560","2024-03-19 21:30:00","9.6744","3.23459","25.394","4.774","7.53","0.362","5.671","0.01","0.2","29.444","4.66424","50.69","0","SATNPRO1963","30.384","0.4256","5"],
    [16662,"HCEP03730560","2024-03-19 21:45:00","9.6745","3.23492","25.533","4.802","7.53","0.311","5.593","0.01","0.25","29.4472","4.6647","50.98","0","SATNPRO1963","30.573999999999998","0.42826","5"],
    [16663,"HCEP03730560","2024-03-19 22:00:00","9.6752","3.2353","25.64","4.838","7.53","0.358","5.515","0.01","0.15","29.4503","4.66514","51.37","0","SATNPRO1963","30.536","0.42772","5"],
    [16664,"HCEP03730560","2024-03-19 22:15:00","9.6757","3.23566","25.821","4.871","7.53","0.288","4.712","0.01","0.09","29.4535","4.6656","51.72","0","SATNPRO1963","30.650000000000002","0.4293","5"],
    [16665,"HCEP03730560","2024-03-19 22:30:00","9.6756","3.23595","25.984","4.91","7.54","0.331","4.167","0.01","0.1","29.4564","4.66603","52.13","0","SATNPRO1963","30.875999999999998","0.43248","5"],
    [16666,"HCEP03730560","2024-03-19 22:45:00","9.6757","3.23589","26.148","4.892","7.54","0.294","4.789","0.01","0.17","29.4557","4.66594","51.94","0","SATNPRO1963","30.666","0.42954","5"],
    [16667,"HCEP03730560","2024-03-19 23:00:00","9.6762","3.2361","26.281","4.883","7.54","0.351","5.062","0.01","0.12","29.4573","4.66616","51.85","0","SATNPRO1963","30.858","0.43222","5"],
    [16668,"HCEP03730560","2024-03-19 23:15:00","9.6744","3.23615","26.429","4.96","7.54","0.283","4.247","0.01","0.28","29.4592","4.66648","52.66","0","SATNPRO1963","31.072","0.43524","5"],
    [16669,"HCEP03730560","2024-03-19 23:30:00","9.6746","3.23625","26.601","4.984","7.54","0.334","4.219","0.01","0.17","29.46","4.6666","52.92","0","SATNPRO1963","30.97","0.4338","5"],
    [16670,"HCEP03730560","2024-03-19 23:45:00","9.674","3.23636","26.795","5.027","7.55","0.279","4.22","0.01","0.16","29.4615","4.66684","53.38","0","SATNPRO1963","31.178","0.43674","5"],
    [16671,"HCEP03730560","2024-03-20 00:00:00","9.6742","3.23656","26.94","5.033","7.55","0.332","3.985","0.02","0.18","29.4633","4.6671","53.44","0","SATNPRO1963","31.064","0.43512","5"],
    [16672,"HCEP03730560","2024-03-20 00:15:00","9.6748","3.2367","27.086","5.027","7.55","0.286","4.375","0.01","0.27","29.4641","4.66722","53.38","0","SATNPRO1963","31.11","0.43576","5"],
    [16673,"HCEP03730560","2024-03-20 00:30:00","9.6747","3.2368","27.266","5.031","7.55","0.327","3.803","0.02","0.19","29.4652","4.66738","53.42","0","SATNPRO1963","31.38","0.43956","5"],
    [16674,"HCEP03730560","2024-03-20 00:45:00","9.6747","3.23682","27.416","5.037","7.55","0.285","4.166","0.02","0.15","29.4654","4.66742","53.48","0","SATNPRO1963","31.15","0.4363","5"],
    [16675,"HCEP03730560","2024-03-20 01:00:00","9.6741","3.23681","27.527","5.056","7.55","0.327","3.876","0.02","0.17","29.4656","4.66747","53.69","0","SATNPRO1963","31.084","0.4354","5"],
    [16676,"HCEP03730560","2024-03-20 01:15:00","9.6744","3.23688","27.599","5.062","7.55","0.271","3.848","0.01","0.16","29.4661","4.66753","53.75","0","SATNPRO1963","31.278","0.4381","5"],
    [16677,"HCEP03730560","2024-03-20 01:30:00","9.674","3.23693","27.681","5.078","7.55","0.335","3.793","0.02","0.33","29.4669","4.66766","53.92","0","SATNPRO1963","31.346","0.43908","5"],
    [16678,"HCEP03730560","2024-03-20 01:45:00","9.6752","3.23704","27.745","5.05","7.55","0.287","4.301","0.01","0.32","29.467","4.66766","53.62","0","SATNPRO1963","31.394","0.43974","5"],
    [16679,"HCEP03730560","2024-03-20 02:00:00","9.6731","3.23706","27.787","5.115","7.55","0.316","3.503","0.01","0.13","29.4688","4.66796","54.31","0","SATNPRO1963","31.644000000000002","0.44322","5"],
    [16680,"HCEP03730560","2024-03-20 02:15:00","9.6736","3.23712","27.824","5.117","7.56","0.277","3.649","0.01","0.16","29.4691","4.66799","54.33","0","SATNPRO1963","31.48","0.44092","5"],
    [16681,"HCEP03730560","2024-03-20 02:30:00","9.6737","3.2371","27.854","5.112","7.56","0.319","3.582","0.01","0.14","29.4688","4.66795","54.28","0","SATNPRO1963","31.242","0.43762","5"],
    [16682,"HCEP03730560","2024-03-20 02:45:00","9.6729","3.237","27.881","5.129","7.56","0.259","3.408","0.01","0.11","29.4685","4.66791","54.47","0","SATNPRO1963","31.488","0.44102","5"],
    [16683,"HCEP03730560","2024-03-20 03:00:00","9.6721","3.2369","27.876","5.144","7.56","0.309","3.361","0.01","0.12","29.468","4.66786","54.62","0","SATNPRO1963","31.362","0.43926","5"],
    [16684,"HCEP03730560","2024-03-20 03:15:00","9.6707","3.2367","27.877","5.175","7.56","0.256","3.275","0.01","0.12","29.4673","4.66778","54.95","0","SATNPRO1963","31.448","0.4405","5"],
    [16685,"HCEP03730560","2024-03-20 03:30:00","9.6703","3.23646","27.845","5.177","7.56","0.314","3.228","0.02","0.15","29.4652","4.66749","54.97","0","SATNPRO1963","31.754","0.44478","5"],
    [16686,"HCEP03730560","2024-03-20 03:45:00","9.6681","3.2362","27.818","5.23","7.56","0.262","2.895","0.01","0.17","29.4644","4.66741","55.53","0","SATNPRO1963","31.764","0.4449","5"],
    [16687,"HCEP03730560","2024-03-20 04:00:00","9.665","3.23584","27.76","5.285","7.57","0.303","2.774","0.01","0.09","29.4632","4.6673","56.1","0","SATNPRO1963","31.838","0.44598","5"],
    [16688,"HCEP03730560","2024-03-20 04:15:00","9.6638","3.2356","27.717","5.294","7.57","0.247","2.749","0.01","0.11","29.4619","4.66713","56.2","0","SATNPRO1963","31.91","0.44696","5"],
    [16689,"HCEP03730560","2024-03-20 04:30:00","9.663","3.23541","27.629","5.314","7.57","0.303","2.608","0.02","0.17","29.4606","4.66695","56.41","0","SATNPRO1963","31.914","0.44698","5"],
    [16690,"HCEP03730560","2024-03-20 04:45:00","9.6656","3.23537","27.542","5.206","7.57","0.258","3.018","0.02","0.17","29.4582","4.66655","55.27","0","SATNPRO1963","31.637999999999998","0.44314","5"],
    [16691,"HCEP03730560","2024-03-20 05:00:00","9.6612","3.23477","27.469","5.286","7.57","0.296","2.444","0.01","0.09","29.4556","4.66626","56.11","0","SATNPRO1963","31.922","0.44714","5"],
    [16692,"HCEP03730560","2024-03-20 05:15:00","9.6636","3.23475","27.452","5.237","7.57","0.259","2.761","0.03","0.11","29.4536","4.66592","55.6","0","SATNPRO1963","31.55","0.4419","5"],
    [16693,"HCEP03730560","2024-03-20 05:30:00","9.6537","3.23361","27.338","5.456","7.57","0.293","2.074","0.02","0.11","29.4502","4.66561","57.9","0","SATNPRO1963","32.275999999999996","0.45208","5"],
    [16694,"HCEP03730560","2024-03-20 05:45:00","9.6615","3.23393","27.273","5.266","7.57","0.256","2.833","0.01","0.11","29.447","4.66502","55.9","0","SATNPRO1963","31.496","0.4412","5"],
    [16695,"HCEP03730560","2024-03-20 06:00:00","9.6661","3.23554","27.176","5.206","7.57","0.312","3.073","0.02","0.18","29.4596","4.66673","55.26","0","SATNPRO1963","31.542","0.4418","5"],
    [16696,"HCEP03730560","2024-03-20 06:15:00","9.6662","3.23578","27.07","5.223","7.56","0.264","3.329","0.02","0.15","29.4619","4.66705","55.45","0","SATNPRO1963","31.438","0.44036","5"],
    [16697,"HCEP03730560","2024-03-20 06:30:00","9.6605","3.23514","26.979","5.337","7.57","0.299","2.618","0.02","0.11","29.4602","4.6669","56.65","0","SATNPRO1963","31.936","0.44734","5"],
    [16698,"HCEP03730560","2024-03-20 06:45:00","9.6642","3.23524","26.889","5.295","7.57","0.266","3.107","0.02","0.15","29.4582","4.66654","56.21","0","SATNPRO1963","32.078","0.44928","5"],
    [16699,"HCEP03730560","2024-03-20 07:00:00","9.6715","3.23623","26.804","5.129","7.56","0.344","4.087","0.03","0.37","29.4623","4.66699","54.46","0","SATNPRO1963","31.266000000000002","0.4379","5"],
    [16700,"HCEP03730560","2024-03-20 07:15:00","9.6725","3.23627","26.732","5.07","7.55","0.287","4.131","0.01","0.24","29.4618","4.66691","53.84","0","SATNPRO1963","31.342","0.43898","5"],
    [16701,"HCEP03730560","2024-03-20 07:30:00","9.6746","3.23679","26.635","5.03","7.55","0.346","4.749","0.02","0.26","29.4654","4.66737","53.41","0","SATNPRO1963","31.29","0.43828","5"],
    [16702,"HCEP03730560","2024-03-20 07:45:00","9.6757","3.23686","26.55","5.012","7.55","0.282","4.632","0.01","0.44","29.4652","4.66733","53.22","0","SATNPRO1963","31.192","0.43688","5"],
    [16703,"HCEP03730560","2024-03-20 08:00:00","9.6771","3.23706","26.478","5.015","7.55","0.343","4.425","0.02","0.28","29.4661","4.66743","53.26","0","SATNPRO1963","31.654","0.44338","5"],
    [16704,"HCEP03730560","2024-03-20 08:15:00","9.6788","3.23732","26.411","5.013","7.55","0.283","4.646","0.01","0.44","29.4674","4.66758","53.24","0","SATNPRO1963","31.566","0.44214","5"],
    [16705,"HCEP03730560","2024-03-20 08:30:00","9.6804","3.23749","26.379","4.98","7.54","0.341","4.532","0.03","0.26","29.4678","4.6676","52.89","0","SATNPRO1963","31.572","0.44222","5"],
    [16706,"HCEP03730560","2024-03-20 08:45:00","9.681","3.23759","26.377","4.953","7.54","0.287","4.621","0.01","0.3","29.4683","4.66766","52.6","0","SATNPRO1963","31.298000000000002","0.4384","5"],
    [16707,"HCEP03730560","2024-03-20 09:00:00","9.682","3.23766","26.374","4.932","7.54","0.332","4.673","0.01","0.43","29.4683","4.66764","52.38","0","SATNPRO1963","31.076","0.43526","5"],
    [16708,"HCEP03730560","2024-03-20 09:15:00","9.6827","3.23785","26.39","4.919","7.54","0.294","4.861","0.01","0.36","29.4696","4.66782","52.24","0","SATNPRO1963","31.206","0.4371","5"],
    [16709,"HCEP03730560","2024-03-20 09:30:00","9.684","3.23809","26.381","4.903","7.54","0.344","4.741","0.01","0.33","29.471","4.668","52.08","0","SATNPRO1963","31.248","0.43768","5"],
    [16710,"HCEP03730560","2024-03-20 09:45:00","9.6849","3.23839","26.4","4.915","7.54","0.297","5.085","0.02","0.44","29.4732","4.6683","52.2","0","SATNPRO1963","31.558","0.44206","5"],
    [16711,"HCEP03730560","2024-03-20 10:00:00","9.6846","3.23844","26.426","4.938","7.54","0.334","4.271","0.01","0.28","29.474","4.66842","52.45","0","SATNPRO1963","31.216","0.43724","5"],
    [16712,"HCEP03730560","2024-03-20 10:15:00","9.6849","3.2385","26.446","4.957","7.54","0.278","4.055","0.01","0.19","29.4743","4.66845","52.65","0","SATNPRO1963","31.4","0.43982","5"],
    [16713,"HCEP03730560","2024-03-20 10:30:00","9.6835","3.23819","26.49","4.995","7.54","0.329","3.559","0.04","0.12","29.4723","4.6682","53.05","0","SATNPRO1963","31.494","0.44116","5"],
    [16714,"HCEP03730560","2024-03-20 10:45:00","9.6838","3.23831","26.521","4.996","7.55","0.279","4.074","0.01","0.19","29.4732","4.66832","53.07","0","SATNPRO1963","31.466","0.44078","5"],
    [16715,"HCEP03730560","2024-03-20 11:00:00","9.684","3.23819","26.578","5.001","7.55","0.326","3.953","0.01","0.16","29.4719","4.66814","53.12","0","SATNPRO1963","31.206","0.43708","5"],
    [16716,"HCEP03730560","2024-03-20 11:15:00","9.6829","3.23787","26.635","5.01","7.55","0.268","3.589","0.01","0.19","29.4695","4.66782","53.21","0","SATNPRO1963","31.7","0.444","5"],
    [16717,"HCEP03730560","2024-03-20 11:30:00","9.6818","3.23765","26.687","5.043","7.55","0.316","3.388","0.01","0.15","29.4682","4.66765","53.56","0","SATNPRO1963","31.608","0.4427","5"],
    [16718,"HCEP03730560","2024-03-20 11:45:00","9.6829","3.23821","26.718","5.03","7.55","0.274","3.457","0.04","0.17","29.4729","4.66831","53.42","0","SATNPRO1963","31.514","0.44142","5"],
    [16719,"HCEP03730560","2024-03-20 12:00:00","9.683","3.23813","26.778","5.008","7.55","0.318","3.531","0.01","0.12","29.472","4.66818","53.19","0","SATNPRO1963","31.442","0.44034","5"],
    [16720,"HCEP03730560","2024-03-20 12:15:00","9.6825","3.2379","26.778","5.015","7.55","0.266","3.397","0.01","0.12","29.4701","4.66792","53.26","0","SATNPRO1963","31.582","0.44236","5"],
    [16721,"HCEP03730560","2024-03-20 12:30:00","9.6743","3.23589","26.835","5.039","7.55","0.309","2.968","0.01","0.1","29.4565","4.66611","53.5","0","SATNPRO1963","31.502","0.4412","5"],
    [16722,"HCEP03730560","2024-03-20 12:45:00","9.6821","3.2379","26.9","5.014","7.55","0.27","3.512","0.01","0.16","29.4704","4.66798","53.25","0","SATNPRO1963","31.546","0.44186","5"],
    [16723,"HCEP03730560","2024-03-20 13:00:00","9.6755","3.23595","26.919","5.036","7.55","0.315","3.344","0.01","0.14","29.4561","4.66604","53.47","0","SATNPRO1963","31.532","0.44164","5"],
    [16724,"HCEP03730560","2024-03-20 13:15:00","9.6741","3.23546","26.949","5.033","7.55","0.256","2.966","0.01","0.1","29.4523","4.66553","53.44","0","SATNPRO1963","31.572","0.44222","5"],
    [16725,"HCEP03730560","2024-03-20 13:30:00","9.6814","3.23763","26.92","4.996","7.55","0.318","3.48","0.01","0.12","29.4682","4.66767","53.06","0","SATNPRO1963","31.528","0.4416","5"],
    [16726,"HCEP03730560","2024-03-20 13:45:00","9.6826","3.23778","26.924","4.964","7.54","0.27","3.519","0.01","0.14","29.4687","4.66773","52.72","0","SATNPRO1963","31.426","0.44014","5"],
    [16727,"HCEP03730560","2024-03-20 14:00:00","9.6785","3.23645","26.92","4.939","7.54","0.328","3.709","0.02","0.14","29.4587","4.66636","52.45","0","SATNPRO1963","31.274","0.43806","5"],
    [16728,"HCEP03730560","2024-03-20 14:15:00","9.6793","3.23657","26.935","4.914","7.54","0.293","3.875","0.03","0.19","29.4593","4.66643","52.18","0","SATNPRO1963","31.092","0.4355","5"],
    [16729,"HCEP03730560","2024-03-20 14:30:00","9.6794","3.23664","26.881","4.904","7.54","0.334","3.831","0.01","0.13","29.4599","4.66652","52.07","0","SATNPRO1963","31.218","0.43724","5"],
    [16730,"HCEP03730560","2024-03-20 14:45:00","9.6802","3.23686","26.849","4.891","7.54","0.288","3.985","0.01","0.19","29.4615","4.66673","51.94","0","SATNPRO1963","31.192","0.43688","5"],
    [16731,"HCEP03730560","2024-03-20 15:00:00","9.6804","3.23681","26.812","4.886","7.54","0.344","4.008","0.02","0.2","29.4608","4.66662","51.89","0","SATNPRO1963","31.132","0.43602","5"],
    [16732,"HCEP03730560","2024-03-20 15:15:00","9.6797","3.23672","26.729","4.871","7.54","0.291","4.176","0.01","0.23","29.4605","4.66659","51.73","0","SATNPRO1963","31.08","0.43528","5"],
    [16733,"HCEP03730560","2024-03-20 15:30:00","9.6779","3.23608","26.63","4.83","7.53","0.344","4.113","0.01","0.17","29.4556","4.66592","51.29","0","SATNPRO1963","30.964","0.43366","5"],
    [16734,"HCEP03730560","2024-03-20 15:45:00","9.676","3.23542","26.524","4.787","7.53","0.299","4.073","0.01","0.13","29.4505","4.66522","50.82","0","SATNPRO1963","30.824","0.43174","5"],
    [16735,"HCEP03730560","2024-03-20 16:00:00","9.6791","3.23632","26.411","4.81","7.53","0.354","4.406","0.02","0.2","29.457","4.66609","51.07","0","SATNPRO1963","30.966","0.43372","5"],
    [16736,"HCEP03730560","2024-03-20 16:15:00","9.6754","3.23526","26.32","4.759","7.53","0.316","4.228","0.04","0.29","29.4494","4.66506","50.53","0","SATNPRO1963","30.742","0.43062","5"],
    [16737,"HCEP03730560","2024-03-20 16:30:00","9.6783","3.23607","26.174","4.767","7.53","0.354","4.255","0.02","0.18","29.4553","4.66584","50.62","0","SATNPRO1963","30.948","0.4335","5"],
    [16738,"HCEP03730560","2024-03-20 16:45:00","9.6782","3.23589","26.066","4.75","7.53","0.302","4.172","0.02","0.15","29.4536","4.66559","50.44","0","SATNPRO1963","30.752","0.43074","5"],
    [16739,"HCEP03730560","2024-03-20 17:00:00","9.6819","3.23732","25.92","4.819","7.53","0.344","4.195","0.01","0.14","29.465","4.66715","51.18","0","SATNPRO1963","31.148","0.43628","5"],
    [16740,"HCEP03730560","2024-03-20 17:15:00","9.6842","3.23793","25.767","4.855","7.53","0.297","4.74","0.02","0.22","29.4694","4.66772","51.57","0","SATNPRO1963","31.201999999999998","0.43706","5"],
    [16741,"HCEP03730560","2024-03-20 17:30:00","9.6841","3.238","25.624","4.876","7.53","0.334","4.007","0.02","0.12","29.4702","4.66784","51.79","0","SATNPRO1963","31.201999999999998","0.43706","5"],
    [16742,"HCEP03730560","2024-03-20 17:45:00","9.6889","3.23904","25.478","4.773","7.53","0.301","5.285","0.02","0.27","29.4768","4.6687","50.7","0","SATNPRO1963","30.956","0.4336","5"],
    [16743,"HCEP03730560","2024-03-20 18:00:00","9.6874","3.23901","25.344","4.837","7.53","0.335","4.201","0.02","0.27","29.4779","4.66886","51.39","0","SATNPRO1963","31.398","0.43974","5"],
    [16744,"HCEP03730560","2024-03-20 18:15:00","9.6864","3.23878","25.216","4.868","7.53","0.284","3.947","0.06","0.19","29.4764","4.66866","51.7","0","SATNPRO1963","31.118000000000002","0.43588","5"],
    [16745,"HCEP03730560","2024-03-20 18:30:00","9.6839","3.2381","25.083","4.905","7.53","0.312","3.295","0.01","0.12","29.4716","4.66801","52.1","0","SATNPRO1963","31.496","0.44116","5"],
    [16746,"HCEP03730560","2024-03-20 18:45:00","9.6838","3.23806","24.969","4.912","7.53","0.272","3.306","0.02","0.24","29.4713","4.66796","52.17","0","SATNPRO1963","31.232","0.43744","5"],
    [16747,"HCEP03730560","2024-03-20 19:00:00","9.6831","3.23782","24.874","4.919","7.54","0.301","3.216","0.01","0.09","29.4696","4.66772","52.24","0","SATNPRO1963","31.412","0.43998","5"],
    [16748,"HCEP03730560","2024-03-20 19:15:00","9.6828","3.23789","24.791","4.925","7.54","0.263","3.294","0.02","0.12","29.4706","4.66787","52.31","0","SATNPRO1963","31.32","0.43868","5"],
    [16749,"HCEP03730560","2024-03-20 19:30:00","9.684","3.23815","24.747","4.924","7.54","0.308","3.124","0.01","0.17","29.4722","4.66807","52.3","0","SATNPRO1963","31.44","0.44036","5"],
    [16750,"HCEP03730560","2024-03-20 19:45:00","9.6834","3.23788","24.701","4.926","7.54","0.265","3.337","0.02","0.11","29.47","4.66778","52.32","0","SATNPRO1963","31.326","0.43876","5"],
    [16751,"HCEP03730560","2024-03-20 20:00:00","9.6792","3.23647","24.669","4.913","7.54","0.317","3.486","0.01","0.15","29.4592","4.66629","52.17","0","SATNPRO1963","31.134","0.4361","5"],
    [16752,"HCEP03730560","2024-03-20 20:15:00","9.674","3.23504","24.662","4.909","7.53","0.261","3.183","0.01","0.08","29.4491","4.66494","52.12","0","SATNPRO1963","31.204","0.4371","5"],
    [16753,"HCEP03730560","2024-03-20 20:30:00","9.6762","3.23576","24.687","4.857","7.53","0.311","3.215","0.01","0.09","29.4545","4.66567","51.57","0","SATNPRO1963","30.956","0.43358","5"],
    [16754,"HCEP03730560","2024-03-20 20:45:00","9.6749","3.23529","24.716","4.884","7.53","0.263","3.183","0.02","0.07","29.4509","4.66518","51.86","0","SATNPRO1963","30.994","0.43416","5"],
    [16755,"HCEP03730560","2024-03-20 21:00:00","9.6715","3.23429","24.771","4.95","7.54","0.297","2.676","0.01","0.11","29.4435","4.6642","52.55","0","SATNPRO1963","31.266000000000002","0.43794","5"],
    [16756,"HCEP03730560","2024-03-20 21:15:00","9.6709","3.23418","24.861","4.989","7.54","0.248","2.645","0.01","0.08","29.4429","4.66412","52.96","0","SATNPRO1963","31.424","0.4402","5"],
    [16757,"HCEP03730560","2024-03-20 21:30:00","9.6708","3.23412","24.952","4.965","7.54","0.292","2.553","0.01","0.07","29.4424","4.66405","52.71","0","SATNPRO1963","31.328","0.43884","5"],
    [16758,"HCEP03730560","2024-03-20 21:45:00","9.6706","3.23422","25.06","4.978","7.54","0.243","2.554","0.01","0.06","29.4434","4.66421","52.85","0","SATNPRO1963","31.324","0.43874","5"],
    [16759,"HCEP03730560","2024-03-20 22:00:00","9.6708","3.23439","25.17","4.997","7.54","0.289","2.472","0.01","0.06","29.4449","4.66442","53.05","0","SATNPRO1963","31.528","0.44158","5"],
    [16760,"HCEP03730560","2024-03-20 22:15:00","9.6729","3.23513","25.316","5.02","7.54","0.247","2.748","0.01","0.08","29.4506","4.66521","53.3","0","SATNPRO1963","31.657999999999998","0.44344","5"],
    [16761,"HCEP03730560","2024-03-20 22:30:00","9.6779","3.23652","25.44","5.019","7.54","0.304","2.935","0.01","0.07","29.4605","4.66655","53.3","0","SATNPRO1963","31.502","0.44126","5"],
    [16762,"HCEP03730560","2024-03-20 22:45:00","9.6745","3.2358","25.602","5.078","7.55","0.24","2.441","0.01","0.06","29.456","4.66598","53.92","0","SATNPRO1963","31.68","0.44376","5"],
    [16763,"HCEP03730560","2024-03-20 23:00:00","9.6758","3.23625","25.715","5.107","7.55","0.286","2.299","0.01","0.05","29.4594","4.66644","54.23","0","SATNPRO1963","31.716","0.44428","5"],
    [16764,"HCEP03730560","2024-03-20 23:15:00","9.6725","3.23535","25.876","5.198","7.56","0.228","2.018","0.01","0.07","29.4529","4.66558","55.19","0","SATNPRO1963","32.024","0.44856","5"],
    [16765,"HCEP03730560","2024-03-20 23:30:00","9.6712","3.23511","26.027","5.232","7.56","0.273","1.847","0","0.08","29.4515","4.66541","55.55","0","SATNPRO1963","31.881999999999998","0.44654","5"],
    [16766,"HCEP03730560","2024-03-20 23:45:00","9.6715","3.23501","26.211","5.221","7.56","0.229","1.973","0.01","0.07","29.4502","4.66523","55.43","0","SATNPRO1963","31.976","0.4479","5"],
    [16767,"HCEP03730560","2024-03-21 00:00:00","9.669","3.23436","26.373","5.237","7.56","0.276","1.856","0.01","0.05","29.4457","4.66464","55.59","0","SATNPRO1963","32.082","0.44936","5"],
    [16768,"HCEP03730560","2024-03-21 00:15:00","9.6664","3.23322","26.554","5.137","7.56","0.234","2.142","0.01","0.09","29.4362","4.66333","54.53","0","SATNPRO1963","31.81","0.44552","5"],
    [16769,"HCEP03730560","2024-03-21 00:30:00","9.673400000000001","3.23436","26.718","4.895","7.55","0.307","2.631","0.01","0.06","29.4419","4.66403","51.97","0","SATNPRO1963","30.912","0.43296","5"],
    [16770,"HCEP03730560","2024-03-21 00:45:00","9.6693","3.23359","26.901","5.022","7.55","0.243","2.467","0.01","0.07","29.4374","4.66347","53.31","0","SATNPRO1963","31.698","0.44394","5"],
    [16771,"HCEP03730560","2024-03-21 01:00:00","9.6697","3.23392","27.071","5.057","7.55","0.303","3.021","0.01","0.08","29.4403","4.6639","53.68","0","SATNPRO1963","31.56","0.44206","5"],
    [16772,"HCEP03730560","2024-03-21 01:15:00","9.6656","3.23263","27.201","5.106","7.55","0.237","2.277","0.01","0.09","29.4306","4.66259","54.2","0","SATNPRO1963","31.738","0.44452","5"],
    [16773,"HCEP03730560","2024-03-21 01:30:00","9.6683","3.23303","27.348","5.024","7.55","0.291","2.381","0.01","0.08","29.4324","4.6628","53.33","0","SATNPRO1963","31.326","0.43874","5"],
    [16774,"HCEP03730560","2024-03-21 01:45:00","9.6682","3.23288","27.469","4.971","7.55","0.248","2.564","0.01","0.09","29.4309","4.6626","52.77","0","SATNPRO1963","31.394","0.43972","5"],
    [16775,"HCEP03730560","2024-03-21 02:00:00","9.6721","3.23417","27.603","4.946","7.54","0.305","2.598","0.02","0.1","29.4406","4.66393","52.51","0","SATNPRO1963","31.439999999999998","0.44038","5"],
    [16776,"HCEP03730560","2024-03-21 02:15:00","9.6773","3.23542","27.687","4.833","7.54","0.269","3.507","0.01","0.21","29.449","4.66505","51.32","0","SATNPRO1963","30.896","0.43274","5"],
    [16777,"HCEP03730560","2024-03-21 02:30:00","9.6809","3.23608","27.764","4.728","7.53","0.329","3.757","0.01","0.16","29.4527","4.66551","50.21","0","SATNPRO1963","30.748","0.43068","5"],
    [16778,"HCEP03730560","2024-03-21 02:45:00","9.6768","3.23487","27.785","4.773","7.53","0.266","3.16","0.02","0.18","29.4439","4.66432","50.68","0","SATNPRO1963","31.102","0.43568","5"],
    [16779,"HCEP03730560","2024-03-21 03:00:00","9.6825","3.23631","27.828","4.642","7.52","0.337","3.917","0.03","0.18","29.4536","4.66562","49.3","0","SATNPRO1963","30.51","0.42736","5"],
    [16780,"HCEP03730560","2024-03-21 03:15:00","9.6797","3.23558","27.847","4.653","7.52","0.268","3.393","0.01","0.15","29.4486","4.66495","49.41","0","SATNPRO1963","31.014","0.4344","5"],
    [16781,"HCEP03730560","2024-03-21 03:30:00","9.6776","3.23503","27.864","4.708","7.52","0.33","3.709","0.02","0.16","29.4447","4.66443","49.99","0","SATNPRO1963","30.958000000000002","0.4336","5"],
    [16782,"HCEP03730560","2024-03-21 03:45:00","9.6793","3.2356","27.882","4.709","7.52","0.284","3.856","0.02","0.16","29.4491","4.66503","50","0","SATNPRO1963","30.764","0.43088","5"],
    [16783,"HCEP03730560","2024-03-21 04:00:00","9.6806","3.23614","27.871","4.7","7.52","0.343","3.906","0.06","0.18","29.4535","4.66564","49.91","0","SATNPRO1963","30.810000000000002","0.43154","5"],
    [16784,"HCEP03730560","2024-03-21 04:15:00","9.6797","3.23613","27.849","4.783","7.53","0.27","3.528","0.01","0.15","29.4541","4.66573","50.79","0","SATNPRO1963","30.948","0.43348","5"],
    [16785,"HCEP03730560","2024-03-21 04:30:00","9.6792","3.23602","27.805","4.811","7.53","0.334","4.176","0.03","0.16","29.4534","4.66565","51.09","0","SATNPRO1963","31.026","0.43458","5"],
    [16786,"HCEP03730560","2024-03-21 04:45:00","9.6774","3.23576","27.762","4.873","7.53","0.277","4.19","0.02","0.19","29.4523","4.66552","51.74","0","SATNPRO1963","31.446","0.44044","5"],
    [16787,"HCEP03730560","2024-03-21 05:00:00","9.6834","3.23713","27.722","4.788","7.53","0.353","6.011","0.01","0.33","29.4612","4.66668","50.85","0","SATNPRO1963","30.972","0.4338","5"],
    [16788,"HCEP03730560","2024-03-21 05:15:00","9.684","3.23747","27.658","4.763","7.53","0.307","5.387","0.07","0.29","29.4642","4.6671","50.58","0","SATNPRO1963","31.114","0.43584","5"],
    [16789,"HCEP03730560","2024-03-21 05:30:00","9.6829","3.23717","27.587","4.788","7.53","0.347","5.47","0.01","0.16","29.4621","4.66681","50.85","0","SATNPRO1963","31.114","0.43582","5"],
    [16790,"HCEP03730560","2024-03-21 05:45:00","9.6794","3.23639","27.506","4.862","7.53","0.297","4.866","0.02","0.24","29.4572","4.66617","51.63","0","SATNPRO1963","31.248","0.43766","5"],
    [16791,"HCEP03730560","2024-03-21 06:00:00","9.6755","3.23542","27.402","4.852","7.53","0.34","4.949","0.01","0.26","29.4505","4.66527","51.52","0","SATNPRO1963","31.142","0.4362","5"],
    [16792,"HCEP03730560","2024-03-21 06:15:00","9.66","3.23113","27.295","5.046","7.54","0.288","3.775","0.05","0.21","29.4201","4.66119","53.55","0","SATNPRO1963","31.506","0.44128","5"],
    [16793,"HCEP03730560","2024-03-21 06:30:00","9.6727","3.23448","27.186","4.918","7.54","0.349","5.031","0.02","0.25","29.4435","4.6643","52.21","0","SATNPRO1963","31.396","0.43974","5"],
    [16794,"HCEP03730560","2024-03-21 06:45:00","9.6742","3.23483","27.049","4.842","7.53","0.303","5.587","0.02","0.27","29.4458","4.6646","51.41","0","SATNPRO1963","31.088","0.43546","5"],
    [16795,"HCEP03730560","2024-03-21 07:00:00","9.6746","3.23484","26.942","4.798","7.53","0.359","5.975","0.02","0.27","29.4457","4.66457","50.94","0","SATNPRO1963","31.094","0.43552","5"],
    [16796,"HCEP03730560","2024-03-21 07:15:00","9.6759","3.23518","26.838","4.79","7.53","0.317","6.395","0.02","0.28","29.448","4.66488","50.86","0","SATNPRO1963","31.096","0.43556","5"],
    [16797,"HCEP03730560","2024-03-21 07:30:00","9.6778","3.23583","26.705","4.794","7.53","0.354","5.58","0.01","0.26","29.4531","4.66556","50.91","0","SATNPRO1963","30.982","0.43402","5"],
    [16798,"HCEP03730560","2024-03-21 07:45:00","9.6824","3.23702","26.585","4.73","7.52","0.32","5.907","0.03","0.38","29.4614","4.66666","50.23","0","SATNPRO1963","30.954","0.43358","5"],
    [16799,"HCEP03730560","2024-03-21 08:00:00","9.6846","3.2376","26.466","4.684","7.52","0.358","5.425","0.02","0.3","29.4654","4.6672","49.75","0","SATNPRO1963","30.802","0.43146","5"],
    [16800,"HCEP03730560","2024-03-21 08:15:00","9.6773","3.23607","26.385","4.797","7.52","0.295","4.683","0.05","0.25","29.4561","4.66599","50.94","0","SATNPRO1963","31.154","0.43636","5"],
    [16801,"HCEP03730560","2024-03-21 08:30:00","9.6721","3.23488","26.299","4.947","7.53","0.32","3.855","0.01","0.28","29.4484","4.66497","52.52","0","SATNPRO1963","31.36","0.43922","5"],
    [16802,"HCEP03730560","2024-03-21 08:45:00","9.6703","3.23436","26.234","4.975","7.54","0.281","3.701","0.02","0.19","29.4447","4.66446","52.82","0","SATNPRO1963","31.614","0.4428","5"],
    [16803,"HCEP03730560","2024-03-21 09:00:00","9.6778","3.23603","26.171","4.847","7.53","0.328","4.041","0.01","0.19","29.4553","4.66585","51.47","0","SATNPRO1963","30.972","0.4338","5"],
    [16804,"HCEP03730560","2024-03-21 09:15:00","9.6727","3.2347","26.136","4.876","7.53","0.263","3.463","0.01","0.2","29.4461","4.66462","51.77","0","SATNPRO1963","31.226","0.43736","5"],
    [16805,"HCEP03730560","2024-03-21 09:30:00","9.6765","3.23556","26.127","4.824","7.53","0.342","4.694","0.02","0.23","29.4516","4.66534","51.22","0","SATNPRO1963","31.146","0.43628","5"],
    [16806,"HCEP03730560","2024-03-21 09:45:00","9.6705","3.2335","26.145","4.725","7.52","0.276","3.385","0.01","0.11","29.4358","4.66319","50.16","0","SATNPRO1963","30.476","0.42688","5"],
    [16807,"HCEP03730560","2024-03-21 10:00:00","9.6748","3.23493","26.19","4.697","7.52","0.344","4.179","0.02","0.18","29.4467","4.66467","49.87","0","SATNPRO1963","30.73","0.4304","5"],
    [16808,"HCEP03730560","2024-03-21 10:15:00","9.6727","3.23402","26.207","4.643","7.52","0.315","4.666","0.02","0.17","29.4393","4.66365","49.29","0","SATNPRO1963","30.448","0.4265","5"],
    [16809,"HCEP03730560","2024-03-21 10:30:00","9.6781","3.23536","26.261","4.575","7.51","0.385","5.552","0.02","0.29","29.4483","4.66485","48.58","0","SATNPRO1963","30.366","0.42536","5"],
    [16810,"HCEP03730560","2024-03-21 10:45:00","9.6754","3.23455","26.319","4.488","7.51","0.347","5.924","0.02","0.36","29.4423","4.66404","47.65","0","SATNPRO1963","30.316","0.42462","5"],
    [16811,"HCEP03730560","2024-03-21 11:00:00","9.6748","3.23431","26.347","4.439","7.5","0.398","5.873","0.02","0.28","29.4404","4.66377","47.13","0","SATNPRO1963","30.032","0.42066","5"],
    [16812,"HCEP03730560","2024-03-21 11:15:00","9.6722","3.23378","26.385","4.449","7.5","0.335","5.48","0.02","0.27","29.4371","4.66335","47.23","0","SATNPRO1963","30.163999999999998","0.4225","5"],
    [16813,"HCEP03730560","2024-03-21 11:30:00","9.6682","3.23271","26.44","4.461","7.5","0.382","5.508","0.02","0.21","29.4296","4.66235","47.35","0","SATNPRO1963","30.136","0.42212","5"],
    [16814,"HCEP03730560","2024-03-21 11:45:00","9.6653","3.23211","26.469","4.513","7.5","0.331","5.489","0.03","0.2","29.426","4.66189","47.9","0","SATNPRO1963","30.162","0.42248","5"],
    [16815,"HCEP03730560","2024-03-21 12:00:00","9.666","3.23242","26.517","4.555","7.5","0.363","4.935","0.01","0.27","29.4284","4.66223","48.34","0","SATNPRO1963","30.366","0.42536","5"],
    [16816,"HCEP03730560","2024-03-21 12:15:00","9.667","3.23281","26.631","4.576","7.51","0.32","5.302","0.01","0.24","29.4315","4.66266","48.57","0","SATNPRO1963","30.274","0.42402","5"],
    [16817,"HCEP03730560","2024-03-21 12:30:00","9.6686","3.23325","26.694","4.582","7.51","0.366","5.164","0.01","0.35","29.4346","4.66308","48.63","0","SATNPRO1963","30.274","0.42402","5"],
    [16818,"HCEP03730560","2024-03-21 12:45:00","9.6693","3.23338","26.776","4.6","7.51","0.309","5.033","0.01","0.26","29.4354","4.66318","48.83","0","SATNPRO1963","30.326","0.42478","5"],
    [16819,"HCEP03730560","2024-03-21 13:00:00","9.6704","3.23367","26.831","4.603","7.51","0.36","4.575","0.02","0.31","29.4374","4.66345","48.87","0","SATNPRO1963","30.366","0.42536","5"],
    [16820,"HCEP03730560","2024-03-21 13:15:00","9.6729","3.2343","26.882","4.606","7.51","0.308","5.159","0.01","0.25","29.4416","4.66401","48.9","0","SATNPRO1963","30.428","0.42618","5"],
    [16821,"HCEP03730560","2024-03-21 13:30:00","9.6737","3.2346","26.929","4.605","7.51","0.37","5.099","0.03","0.17","29.444","4.66435","48.9","0","SATNPRO1963","30.514","0.4274","5"],
    [16822,"HCEP03730560","2024-03-21 13:45:00","9.6742","3.23475","26.982","4.603","7.51","0.317","5.255","0.02","0.24","29.445","4.66449","48.87","0","SATNPRO1963","30.65","0.42932","5"],
    [16823,"HCEP03730560","2024-03-21 14:00:00","9.6737","3.2346","27.02","4.61","7.51","0.371","5.223","0.02","0.37","29.444","4.66435","48.94","0","SATNPRO1963","30.362","0.42534","5"],
    [16824,"HCEP03730560","2024-03-21 14:15:00","9.6706","3.23384","27.055","4.631","7.51","0.309","4.858","0.04","0.3","29.4388","4.66366","49.16","0","SATNPRO1963","30.580000000000002","0.42832","5"],
    [16825,"HCEP03730560","2024-03-21 14:30:00","9.6666","3.23269","27.082","4.66","7.51","0.37","4.971","0.02","0.37","29.4305","4.66254","49.47","0","SATNPRO1963","30.637999999999998","0.42912","5"],
    [16826,"HCEP03730560","2024-03-21 14:45:00","9.6611","3.23165","27.102","4.727","7.52","0.322","4.461","0.02","0.27","29.4245","4.66178","50.17","0","SATNPRO1963","30.546","0.42782","5"],
    [16827,"HCEP03730560","2024-03-21 15:00:00","9.6607","3.23152","27.08","4.752","7.52","0.374","4.364","0.03","0.17","29.4235","4.66165","50.43","0","SATNPRO1963","30.926000000000002","0.43314","5"],
    [16828,"HCEP03730560","2024-03-21 15:15:00","9.6628","3.23194","27.063","4.732","7.52","0.334","4.996","0.03","0.25","29.426","4.66197","50.22","0","SATNPRO1963","30.426000000000002","0.42612","5"],
    [16829,"HCEP03730560","2024-03-21 15:30:00","9.6705","3.23383","27.027","4.645","7.52","0.359","4.91","0.03","0.19","29.4388","4.66366","49.31","0","SATNPRO1963","30.618","0.4288","5"],
    [16830,"HCEP03730560","2024-03-21 15:45:00","9.6728","3.23443","26.946","4.615","7.51","0.316","4.613","0.03","0.18","29.443","4.66422","49","0","SATNPRO1963","30.43","0.42622","5"],
    [16831,"HCEP03730560","2024-03-21 16:00:00","9.6739","3.23484","26.869","4.606","7.51","0.368","4.443","0.02","0.19","29.4463","4.66467","48.9","0","SATNPRO1963","30.49","0.42706","5"],
    [16832,"HCEP03730560","2024-03-21 16:15:00","9.678","3.23574","26.776","4.564","7.51","0.318","5.202","0.02","0.3","29.452","4.66541","48.47","0","SATNPRO1963","30.49","0.4271","5"],
    [16833,"HCEP03730560","2024-03-21 16:30:00","9.6792","3.23617","26.675","4.572","7.51","0.36","4.946","0.02","0.2","29.4553","4.66586","48.55","0","SATNPRO1963","30.68","0.42976","5"],
    [16834,"HCEP03730560","2024-03-21 16:45:00","9.6794","3.23637","26.551","4.593","7.51","0.282","4.006","0.01","0.19","29.4573","4.66613","48.77","0","SATNPRO1963","30.472","0.42682","5"],
    [16835,"HCEP03730560","2024-03-21 17:00:00","9.6773","3.23632","26.427","4.681","7.51","0.329","3.696","0.01","0.17","29.4585","4.66633","49.71","0","SATNPRO1963","30.784","0.43116","5"],
    [16836,"HCEP03730560","2024-03-21 17:15:00","9.6783","3.23671","26.29","4.714","7.52","0.281","3.711","0.02","0.15","29.4617","4.66677","50.06","0","SATNPRO1963","30.92","0.43306","5"],
    [16837,"HCEP03730560","2024-03-21 17:30:00","9.679","3.23678","26.146","4.71","7.52","0.364","4.231","0.09","0.32","29.4619","4.66677","50.01","0","SATNPRO1963","30.756","0.43076","5"],
    [16838,"HCEP03730560","2024-03-21 17:45:00","9.6783","3.23675","26.003","4.721","7.52","0.29","4.322","0.02","0.16","29.4622","4.66681","50.13","0","SATNPRO1963","30.998","0.43414","5"],
    [16839,"HCEP03730560","2024-03-21 18:00:00","9.6796","3.23666","25.839","4.684","7.52","0.345","4.68","0.01","0.23","29.4604","4.66652","49.74","0","SATNPRO1963","30.694","0.42998","5"],
    [16840,"HCEP03730560","2024-03-21 18:15:00","9.6785","3.23645","25.694","4.673","7.52","0.302","4.819","0.02","0.17","29.4591","4.66636","49.62","0","SATNPRO1963","30.822","0.43168","5"],
    [16841,"HCEP03730560","2024-03-21 18:30:00","9.679","3.23638","25.525","4.656","7.51","0.354","5.057","0.02","0.28","29.4582","4.6662","49.44","0","SATNPRO1963","30.63","0.42904","5"],
    [16842,"HCEP03730560","2024-03-21 18:45:00","9.6785","3.23602","25.378","4.608","7.51","0.314","5.323","0.02","0.3","29.455","4.66575","48.93","0","SATNPRO1963","30.648","0.42928","5"],
    [16843,"HCEP03730560","2024-03-21 19:00:00","9.6772","3.2357","25.236","4.607","7.51","0.345","4.31","0.02","0.16","29.4529","4.66546","48.92","0","SATNPRO1963","30.59","0.42846","5"],
    [16844,"HCEP03730560","2024-03-21 19:15:00","9.6774","3.2357","25.098","4.586","7.51","0.303","5.028","0.01","0.22","29.4527","4.66542","48.7","0","SATNPRO1963","30.65","0.42934","5"],
    [16845,"HCEP03730560","2024-03-21 19:30:00","9.6758","3.2354","24.98","4.606","7.51","0.367","5.107","0.02","0.24","29.4512","4.66522","48.91","0","SATNPRO1963","30.44","0.42632","5"],
    [16846,"HCEP03730560","2024-03-21 19:45:00","9.676","3.23521","24.877","4.582","7.51","0.306","5.174","0.01","0.28","29.4491","4.66492","48.65","0","SATNPRO1963","30.552","0.42794","5"],
    [16847,"HCEP03730560","2024-03-21 20:00:00","9.6749","3.23465","24.787","4.557","7.51","0.36","4.703","0.02","0.24","29.4443","4.66424","48.38","0","SATNPRO1963","30.567999999999998","0.42816","5"],
    [16848,"HCEP03730560","2024-03-21 20:15:00","9.6744","3.23455","24.73","4.552","7.5","0.305","4.622","0.02","0.19","29.4437","4.66417","48.33","0","SATNPRO1963","30.602","0.42864","5"],
    [16849,"HCEP03730560","2024-03-21 20:30:00","9.6739","3.23445","24.685","4.552","7.5","0.354","4.248","0.04","0.19","29.4432","4.6641","48.33","0","SATNPRO1963","30.448","0.4265","5"],
    [16850,"HCEP03730560","2024-03-21 20:45:00","9.6736","3.23428","24.661","4.553","7.5","0.302","4.436","0.02","0.24","29.4418","4.66391","48.33","0","SATNPRO1963","30.622","0.42894","5"],
    [16851,"HCEP03730560","2024-03-21 21:00:00","9.6699","3.23324","24.668","4.58","7.51","0.339","4.01","0.02","0.21","29.4343","4.66289","48.62","0","SATNPRO1963","30.512","0.42736","5"],
    [16852,"HCEP03730560","2024-03-21 21:15:00","9.6742","3.23457","24.69","4.56","7.5","0.297","4.022","0.03","0.16","29.4442","4.66423","48.42","0","SATNPRO1963","30.478","0.42688","5"],
    [16853,"HCEP03730560","2024-03-21 21:30:00","9.6763","3.23533","24.746","4.59","7.51","0.329","3.984","0.02","0.17","29.4501","4.66505","48.74","0","SATNPRO1963","30.366","0.42534","5"],
    [16854,"HCEP03730560","2024-03-21 21:45:00","9.6754","3.23503","24.816","4.613","7.51","0.287","4.063","0.02","0.17","29.4478","4.66474","48.98","0","SATNPRO1963","30.768","0.43096","5"],
    [16855,"HCEP03730560","2024-03-21 22:00:00","9.6767","3.23544","24.893","4.629","7.51","0.339","4.316","0.01","0.25","29.4508","4.66515","49.16","0","SATNPRO1963","30.668","0.42954","5"],
    [16856,"HCEP03730560","2024-03-21 22:15:00","9.6746","3.23482","24.976","4.669","7.51","0.284","3.922","0.01","0.13","29.4463","4.66454","49.57","0","SATNPRO1963","30.874000000000002","0.43246","5"],
    [16857,"HCEP03730560","2024-03-21 22:30:00","9.6765","3.23524","25.075","4.654","7.51","0.335","4.197","0.01","0.1","29.4489","4.66489","49.41","0","SATNPRO1963","30.858","0.43224","5"],
    [16858,"HCEP03730560","2024-03-21 22:45:00","9.6762","3.2352","25.219","4.647","7.51","0.291","4.456","0.01","0.13","29.4487","4.66488","49.34","0","SATNPRO1963","30.764","0.43092","5"],
    [16859,"HCEP03730560","2024-03-21 23:00:00","9.6755","3.23484","25.366","4.649","7.51","0.348","4.525","0.02","0.14","29.4456","4.66445","49.36","0","SATNPRO1963","30.72","0.4303","5"],
    [16860,"HCEP03730560","2024-03-21 23:15:00","9.6763","3.23494","25.478","4.634","7.51","0.297","5.135","0.01","0.17","29.4459","4.66449","49.21","0","SATNPRO1963","30.674","0.42966","5"],
    [16861,"HCEP03730560","2024-03-21 23:30:00","9.6748","3.23457","25.628","4.65","7.51","0.347","4.9","0.01","0.1","29.4433","4.66416","49.37","0","SATNPRO1963","30.843999999999998","0.432","5"],
    [16862,"HCEP03730560","2024-03-21 23:45:00","9.6737","3.23432","25.793","4.681","7.52","0.297","5.104","0.01","0.12","29.4416","4.66393","49.7","0","SATNPRO1963","30.908","0.43292","5"],
    [16863,"HCEP03730560","2024-03-22 00:00:00","9.6708","3.23352","25.924","4.72","7.52","0.339","4.608","0.01","0.13","29.4359","4.66318","50.11","0","SATNPRO1963","30.972","0.43384","5"],
    [16864,"HCEP03730560","2024-03-22 00:15:00","9.6693","3.23304","26.111","4.747","7.52","0.292","4.628","0.01","0.11","29.4322","4.66268","50.39","0","SATNPRO1963","31.012","0.43438","5"],
    [16865,"HCEP03730560","2024-03-22 00:30:00","9.6651","3.23198","26.299","4.786","7.52","0.332","3.984","0.01","0.13","29.4248","4.66171","50.8","0","SATNPRO1963","31.072","0.43522","5"],
    [16866,"HCEP03730560","2024-03-22 00:45:00","9.6647","3.23169","26.475","4.802","7.53","0.282","4.017","0.01","0.19","29.4223","4.66137","50.97","0","SATNPRO1963","31.15","0.43632","5"],
    [16867,"HCEP03730560","2024-03-22 01:00:00","9.665","3.23178","26.666","4.803","7.53","0.334","4.103","0.01","0.16","29.4228","4.66145","50.97","0","SATNPRO1963","31.064","0.4351","5"],
    [16868,"HCEP03730560","2024-03-22 01:15:00","9.6662","3.23212","26.832","4.795","7.53","0.286","4.326","0.01","0.13","29.4251","4.66177","50.89","0","SATNPRO1963","30.968","0.43378","5"],
    [16869,"HCEP03730560","2024-03-22 01:30:00","9.6646","3.23158","27.001","4.802","7.53","0.33","4.006","0.01","0.14","29.421","4.66121","50.97","0","SATNPRO1963","31.172","0.43658","5"],
    [16870,"HCEP03730560","2024-03-22 01:45:00","9.6652","3.23175","27.171","4.791","7.53","0.298","5.017","0.01","0.26","29.4221","4.66137","50.85","0","SATNPRO1963","31.022","0.4345","5"],
    [16871,"HCEP03730560","2024-03-22 02:00:00","9.6676","3.23241","27.339","4.768","7.53","0.353","5.152","0.01","0.23","29.4267","4.662","50.61","0","SATNPRO1963","31.288","0.43822","5"],
    [16872,"HCEP03730560","2024-03-22 02:15:00","9.6679","3.23241","27.485","4.767","7.52","0.307","5.421","0.03","0.32","29.4264","4.66196","50.6","0","SATNPRO1963","30.904","0.43286","5"],
    [16873,"HCEP03730560","2024-03-22 02:30:00","9.6685","3.23252","27.653","4.754","7.52","0.356","5.483","0.01","0.29","29.427","4.66205","50.46","0","SATNPRO1963","31.064","0.4351","5"],
    [16874,"HCEP03730560","2024-03-22 02:45:00","9.669","3.23281","27.748","4.745","7.52","0.319","6.049","0.01","0.32","29.4295","4.6624","50.37","0","SATNPRO1963","31.026","0.43454","5"],
    [16875,"HCEP03730560","2024-03-22 03:00:00","9.6692","3.23296","27.836","4.734","7.52","0.364","5.452","0.03","0.24","29.4307","4.66258","50.25","0","SATNPRO1963","30.894","0.43274","5"],
    [16876,"HCEP03730560","2024-03-22 03:15:00","9.6702","3.23325","27.867","4.725","7.52","0.322","5.613","0.03","0.34","29.4329","4.66287","50.15","0","SATNPRO1963","31.236","0.4375","5"],
    [16877,"HCEP03730560","2024-03-22 03:30:00","9.6708","3.23352","27.89","4.721","7.52","0.365","5.307","0.02","0.31","29.4351","4.66318","50.12","0","SATNPRO1963","30.982","0.43394","5"],
    [16878,"HCEP03730560","2024-03-22 03:45:00","9.6721","3.23393","27.888","4.709","7.52","0.315","5.843","0.02","0.48","29.4381","4.66359","49.99","0","SATNPRO1963","31.102","0.43568","5"],
    [16879,"HCEP03730560","2024-03-22 04:00:00","9.6733","3.23433","27.912","4.703","7.52","0.36","5.789","0.02","0.54","29.4412","4.66401","49.93","0","SATNPRO1963","31.09","0.43548","5"],
    [16880,"HCEP03730560","2024-03-22 04:15:00","9.6743","3.23485","27.905","4.703","7.52","0.302","5.286","0.01","0.23","29.4456","4.66462","49.93","0","SATNPRO1963","30.95","0.43348","5"],
    [16881,"HCEP03730560","2024-03-22 04:30:00","9.6749","3.23517","27.863","4.716","7.52","0.36","5.227","0.02","0.31","29.4483","4.66499","50.07","0","SATNPRO1963","30.92","0.4331","5"],
    [16882,"HCEP03730560","2024-03-22 04:45:00","9.6754","3.23548","27.82","4.717","7.52","0.312","5.046","0.02","0.38","29.4511","4.66538","50.08","0","SATNPRO1963","30.918","0.43304","5"],
    [16883,"HCEP03730560","2024-03-22 05:00:00","9.676","3.23573","27.789","4.712","7.52","0.348","4.963","0.01","0.26","29.4532","4.66567","50.03","0","SATNPRO1963","31.058","0.43502","5"],
    [16884,"HCEP03730560","2024-03-22 05:15:00","9.6714","3.23378","27.719","4.73","7.52","0.31","3.997","0.06","0.17","29.4373","4.66347","50.21","0","SATNPRO1963","30.986","0.43406","5"],
    [16885,"HCEP03730560","2024-03-22 05:30:00","9.67","3.23438","27.642","4.707","7.52","0.354","4.094","0.04","0.31","29.4445","4.66452","49.97","0","SATNPRO1963","30.994","0.43416","5"],
    [16886,"HCEP03730560","2024-03-22 05:45:00","9.6647","3.23173","27.566","4.676","7.52","0.302","4.385","0.01","0.22","29.4221","4.66141","49.62","0","SATNPRO1963","30.722","0.43032","5"],
    [16887,"HCEP03730560","2024-03-22 06:00:00","9.6641","3.23144","27.474","4.644","7.51","0.359","4.707","0.01","0.27","29.4198","4.66109","49.29","0","SATNPRO1963","30.804000000000002","0.43146","5"],
    [16888,"HCEP03730560","2024-03-22 06:15:00","9.6621","3.23098","27.37","4.627","7.51","0.313","5.166","0.02","0.29","29.4168","4.66068","49.1","0","SATNPRO1963","30.742","0.43058","5"],
    [16889,"HCEP03730560","2024-03-22 06:30:00","9.6624","3.23113","27.274","4.621","7.51","0.387","4.973","0.04","0.39","29.4182","4.66086","49.04","0","SATNPRO1963","30.535999999999998","0.42772","5"],
    [16890,"HCEP03730560","2024-03-22 06:45:00","9.6641","3.23166","27.158","4.618","7.51","0.316","4.816","0.02","0.24","29.4221","4.6614","49.01","0","SATNPRO1963","30.8","0.4314","5"],
    [16891,"HCEP03730560","2024-03-22 07:00:00","9.6656","3.23217","27.037","4.615","7.51","0.396","6.313","0.02","0.4","29.4261","4.66192","48.99","0","SATNPRO1963","30.768","0.43094","5"],
    [16892,"HCEP03730560","2024-03-22 07:15:00","9.667","3.23274","26.93","4.626","7.51","0.33","5.9","0.02","0.41","29.4307","4.66256","49.11","0","SATNPRO1963","30.66","0.42944","5"],
    [16893,"HCEP03730560","2024-03-22 07:30:00","9.6658","3.23222","26.835","4.625","7.51","0.374","5.118","0.02","0.29","29.4265","4.66198","49.09","0","SATNPRO1963","30.832","0.43184","5"],
    [16894,"HCEP03730560","2024-03-22 07:45:00","9.6658","3.23231","26.686","4.623","7.51","0.334","5.317","0.02","0.34","29.4274","4.6621","49.07","0","SATNPRO1963","30.6","0.4286","5"],
    [16895,"HCEP03730560","2024-03-22 08:00:00","9.666","3.23235","26.562","4.624","7.51","0.371","4.879","0.02","0.25","29.4278","4.66214","49.08","0","SATNPRO1963","30.594","0.4285","5"],
    [16896,"HCEP03730560","2024-03-22 08:15:00","9.6666","3.23254","26.422","4.622","7.51","0.34","4.913","0.02","0.24","29.4292","4.66233","49.06","0","SATNPRO1963","31.278","0.4381","5"],
    [16897,"HCEP03730560","2024-03-22 08:30:00","9.6675","3.23268","26.308","4.607","7.51","0.364","4.918","0.02","0.21","29.43","4.66241","48.9","0","SATNPRO1963","30.766000000000002","0.43096","5"],
    [16898,"HCEP03730560","2024-03-22 08:45:00","9.6673","3.23257","26.209","4.577","7.51","0.338","5.238","0.05","0.19","29.4291","4.66228","48.59","0","SATNPRO1963","30.51","0.42736","5"],
    [16899,"HCEP03730560","2024-03-22 09:00:00","9.6693","3.23359","26.104","4.635","7.51","0.367","5","0.02","0.31","29.4377","4.66347","49.2","0","SATNPRO1963","30.598","0.4286","5"],
    [16900,"HCEP03730560","2024-03-22 09:15:00","9.6706","3.23407","26.032","4.672","7.51","0.31","4.839","0.03","0.3","29.4415","4.66399","49.6","0","SATNPRO1963","30.77","0.431","5"],
    [16901,"HCEP03730560","2024-03-22 09:30:00","9.668","3.23321","25.984","4.674","7.51","0.365","4.526","0.02","0.33","29.435","4.66311","49.62","0","SATNPRO1963","30.658","0.42942","5"],
    [16902,"HCEP03730560","2024-03-22 09:45:00","9.6658","3.23299","25.969","4.712","7.52","0.291","4.04","0.02","0.26","29.4346","4.66308","50.02","0","SATNPRO1963","31.14","0.43614","5"],
    [16903,"HCEP03730560","2024-03-22 10:00:00","9.6665","3.23339","25.966","4.75","7.52","0.349","4.155","0.02","0.29","29.4381","4.66357","50.43","0","SATNPRO1963","30.994","0.43416","5"],
    [16904,"HCEP03730560","2024-03-22 10:15:00","9.6674","3.23417","25.994","4.795","7.52","0.288","4.116","0.01","0.36","29.4452","4.66457","50.9","0","SATNPRO1963","30.932","0.4333","5"],
    [16905,"HCEP03730560","2024-03-22 10:30:00","9.6678","3.23476","26.023","4.855","7.53","0.345","4.31","0.01","0.23","29.4508","4.66537","51.54","0","SATNPRO1963","31.216","0.43724","5"],
    [16906,"HCEP03730560","2024-03-22 10:45:00","9.6679","3.23532","26.044","4.893","7.53","0.3","4.041","0.02","0.2","29.4563","4.66616","51.95","0","SATNPRO1963","31.382","0.43954","5"],
    [16907,"HCEP03730560","2024-03-22 11:00:00","9.6685","3.23571","26.094","4.911","7.53","0.351","4.267","0.02","0.17","29.4598","4.66665","52.14","0","SATNPRO1963","31.178","0.43672","5"],
    [16908,"HCEP03730560","2024-03-22 11:15:00","9.6691","3.23589","26.152","4.918","7.53","0.311","4.385","0.05","0.37","29.4611","4.66683","52.22","0","SATNPRO1963","31.254","0.43778","5"],
    [16909,"HCEP03730560","2024-03-22 11:30:00","9.6675","3.23604","26.214","4.968","7.54","0.353","4.183","0.02","0.18","29.4638","4.66725","52.74","0","SATNPRO1963","31.317999999999998","0.43868","5"],
    [16910,"HCEP03730560","2024-03-22 11:45:00","9.6675","3.23622","26.298","4.994","7.54","0.317","4.615","0.02","0.17","29.4656","4.66751","53.02","0","SATNPRO1963","31.364","0.4393","5"],
    [16911,"HCEP03730560","2024-03-22 12:00:00","9.6666","3.23623","26.388","5.037","7.54","0.362","4.9","0.02","0.33","29.4664","4.66765","53.48","0","SATNPRO1963","31.658","0.44346","5"],
    [16912,"HCEP03730560","2024-03-22 12:15:00","9.6659","3.2364","26.435","5.1","7.55","0.291","4.167","0.01","0.49","29.4687","4.66799","54.15","0","SATNPRO1963","31.814","0.44558","5"],
    [16913,"HCEP03730560","2024-03-22 12:30:00","9.6654","3.23657","26.508","5.141","7.55","0.343","4.046","0.01","0.22","29.4707","4.66829","54.58","0","SATNPRO1963","31.78","0.4451","5"],
    [16914,"HCEP03730560","2024-03-22 12:45:00","9.6632","3.23635","26.575","5.192","7.55","0.283","3.9","0.01","0.24","29.4704","4.66828","55.12","0","SATNPRO1963","31.84","0.44598","5"],
    [16915,"HCEP03730560","2024-03-22 13:00:00","9.6647","3.23641","26.696","5.161","7.55","0.345","4.169","0.02","0.42","29.4697","4.66817","54.8","0","SATNPRO1963","31.726","0.44442","5"],
    [16916,"HCEP03730560","2024-03-22 13:15:00","9.6648","3.23629","26.771","5.132","7.55","0.303","3.979","0.02","0.25","29.4683","4.66798","54.48","0","SATNPRO1963","31.726","0.4444","5"],
    [16917,"HCEP03730560","2024-03-22 13:30:00","9.6653","3.23589","26.819","5.052","7.55","0.386","5.041","0.05","0.3","29.4639","4.66733","53.63","0","SATNPRO1963","31.472","0.44084","5"],
    [16918,"HCEP03730560","2024-03-22 13:45:00","9.6678","3.23558","26.915","4.912","7.54","0.319","5.082","0.01","0.15","29.4586","4.66654","52.15","0","SATNPRO1963","31.198","0.43696","5"],
    [16919,"HCEP03730560","2024-03-22 14:00:00","9.6689","3.23518","26.993","4.789","7.53","0.378","5.325","0.03","0.38","29.4537","4.66582","50.84","0","SATNPRO1963","31.1","0.4356","5"],
    [16920,"HCEP03730560","2024-03-22 14:15:00","9.6686","3.23486","27.047","4.753","7.53","0.344","4.783","0.05","0.29","29.4507","4.66541","50.46","0","SATNPRO1963","30.854","0.43216","5"],
    [16921,"HCEP03730560","2024-03-22 14:30:00","9.6685","3.23489","27.134","4.748","7.52","0.345","4.299","0.01","0.2","29.4511","4.66547","50.4","0","SATNPRO1963","30.932","0.43322","5"],
    [16922,"HCEP03730560","2024-03-22 14:45:00","9.6686","3.23487","27.201","4.746","7.52","0.329","4.49","0.06","0.36","29.4507","4.66542","50.39","0","SATNPRO1963","30.948","0.4335","5"],
    [16923,"HCEP03730560","2024-03-22 15:00:00","9.6685","3.23509","27.262","4.765","7.52","0.358","4.38","0.03","0.16","29.453","4.66574","50.59","0","SATNPRO1963","30.912","0.43298","5"],
    [16924,"HCEP03730560","2024-03-22 15:15:00","9.6687","3.23517","27.274","4.776","7.52","0.313","4.387","0.02","0.19","29.4536","4.66583","50.71","0","SATNPRO1963","31.195999999999998","0.43696","5"],
    [16925,"HCEP03730560","2024-03-22 15:30:00","9.6684","3.23501","27.251","4.772","7.52","0.362","4.459","0.02","0.32","29.4523","4.66565","50.66","0","SATNPRO1963","31.112","0.43576","5"],
    [16926,"HCEP03730560","2024-03-22 15:45:00","9.6681","3.23514","27.216","4.783","7.52","0.306","4.197","0.02","0.15","29.4539","4.66588","50.78","0","SATNPRO1963","31.24","0.43758","5"],
    [16927,"HCEP03730560","2024-03-22 16:00:00","9.6685","3.2352","27.183","4.792","7.52","0.371","4.198","0.02","0.16","29.4542","4.66591","50.88","0","SATNPRO1963","31.080000000000002","0.43532","5"],
    [16928,"HCEP03730560","2024-03-22 16:15:00","9.6683","3.23522","27.127","4.802","7.53","0.317","4.136","0.03","0.14","29.4546","4.66596","50.98","0","SATNPRO1963","31.192","0.4369","5"],
    [16929,"HCEP03730560","2024-03-22 16:30:00","9.6679","3.23555","27.095","4.848","7.53","0.362","3.935","0.03","0.12","29.4582","4.66648","51.47","0","SATNPRO1963","31.086","0.43542","5"],
    [16930,"HCEP03730560","2024-03-22 16:45:00","9.6656","3.23571","27.018","4.968","7.53","0.296","3.475","0.01","0.19","29.4618","4.66704","52.75","0","SATNPRO1963","31.558","0.442","5"],
    [16931,"HCEP03730560","2024-03-22 17:00:00","9.663","3.23574","26.911","5.085","7.54","0.341","3.793","0.02","0.15","29.4642","4.66743","53.98","0","SATNPRO1963","31.412","0.44002","5"],
    [16932,"HCEP03730560","2024-03-22 17:15:00","9.663","3.23593","26.81","5.125","7.55","0.311","4.178","0.02","0.21","29.4661","4.66769","54.41","0","SATNPRO1963","31.578","0.44228","5"],
    [16933,"HCEP03730560","2024-03-22 17:30:00","9.6626","3.23599","26.709","5.148","7.55","0.37","4.197","0.02","0.21","29.4671","4.66784","54.65","0","SATNPRO1963","31.796","0.44536","5"],
    [16934,"HCEP03730560","2024-03-22 17:45:00","9.6633","3.23613","26.57","5.143","7.55","0.304","4.253","0.02","0.21","29.468","4.66794","54.59","0","SATNPRO1963","31.654","0.44334","5"],
    [16935,"HCEP03730560","2024-03-22 18:00:00","9.6639","3.23623","26.45","5.115","7.55","0.36","4.586","0.01","0.2","29.4686","4.668","54.3","0","SATNPRO1963","31.454","0.44056","5"],
    [16936,"HCEP03730560","2024-03-22 18:15:00","9.6644","3.23621","26.289","5.109","7.55","0.31","4.438","0.04","0.25","29.4681","4.66792","54.24","0","SATNPRO1963","31.506","0.4413","5"],
    [16937,"HCEP03730560","2024-03-22 18:30:00","9.6653","3.23623","26.147","5.075","7.55","0.356","4.322","0.02","0.17","29.4676","4.66782","53.88","0","SATNPRO1963","31.528","0.44158","5"],
    [16938,"HCEP03730560","2024-03-22 18:45:00","9.6663","3.23618","25.996","5.027","7.54","0.312","4.781","0.02","0.21","29.4663","4.66761","53.37","0","SATNPRO1963","31.518","0.44142","5"],
    [16939,"HCEP03730560","2024-03-22 19:00:00","9.6665","3.23604","25.863","5","7.54","0.369","4.801","0.01","0.19","29.4648","4.66738","53.08","0","SATNPRO1963","31.330000000000002","0.43882","5"],
    [16940,"HCEP03730560","2024-03-22 19:15:00","9.6661","3.23529","25.705","4.92","7.54","0.316","4.439","0.02","0.22","29.4577","4.66636","52.24","0","SATNPRO1963","31.244","0.43764","5"],
    [16941,"HCEP03730560","2024-03-22 19:30:00","9.6671","3.23443","25.533","4.857","7.53","0.37","4.444","0.02","0.16","29.4483","4.66499","51.56","0","SATNPRO1963","30.978","0.43388","5"],
    [16942,"HCEP03730560","2024-03-22 19:45:00","9.6666","3.23422","25.376","4.772","7.52","0.311","4.412","0.01","0.17","29.4465","4.66474","50.66","0","SATNPRO1963","31.09","0.43546","5"],
    [16943,"HCEP03730560","2024-03-22 20:00:00","9.6669","3.23471","25.225","4.824","7.52","0.37","4.868","0.02","0.24","29.4514","4.66543","51.21","0","SATNPRO1963","31.166","0.43652","5"],
    [16944,"HCEP03730560","2024-03-22 20:15:00","9.667","3.23467","25.081","4.806","7.52","0.322","4.973","0.01","0.31","29.4509","4.66535","51.02","0","SATNPRO1963","31.358","0.43924","5"],
    [16945,"HCEP03730560","2024-03-22 20:30:00","9.6674","3.23484","24.961","4.822","7.52","0.373","4.702","0.02","0.25","29.4523","4.66553","51.19","0","SATNPRO1963","31.182","0.43676","5"],
    [16946,"HCEP03730560","2024-03-22 20:45:00","9.6676","3.23503","24.854","4.839","7.52","0.322","4.92","0.02","0.22","29.4541","4.66578","51.38","0","SATNPRO1963","31.196","0.4369","5"],
    [16947,"HCEP03730560","2024-03-22 21:00:00","9.667","3.23513","24.783","4.866","7.53","0.363","4.916","0.02","0.46","29.4557","4.66601","51.66","0","SATNPRO1963","31.384","0.43958","5"],
    [16948,"HCEP03730560","2024-03-22 21:15:00","9.6657","3.23503","24.737","4.916","7.53","0.303","4.554","0.02","0.34","29.4558","4.66605","52.19","0","SATNPRO1963","31.306","0.4385","5"],
    [16949,"HCEP03730560","2024-03-22 21:30:00","9.6648","3.23517","24.722","4.974","7.53","0.362","4.777","0.03","0.27","29.4578","4.66635","52.8","0","SATNPRO1963","31.622","0.4429","5"],
    [16950,"HCEP03730560","2024-03-22 21:45:00","9.6654","3.23537","24.734","4.989","7.54","0.345","5.217","0.03","0.21","29.4594","4.66657","52.96","0","SATNPRO1963","31.648","0.44332","5"],
    [16951,"HCEP03730560","2024-03-22 22:00:00","9.6662","3.23562","24.773","4.994","7.54","0.37","4.753","0.04","0.26","29.4612","4.66682","53.01","0","SATNPRO1963","31.56","0.44208","5"],
    [16952,"HCEP03730560","2024-03-22 22:15:00","9.6669","3.23566","24.832","4.983","7.54","0.335","5.136","0.04","0.3","29.4611","4.66679","52.9","0","SATNPRO1963","31.468","0.44074","5"],
    [16953,"HCEP03730560","2024-03-22 22:30:00","9.6678","3.23571","24.895","4.951","7.54","0.375","5.04","0.03","0.24","29.4608","4.66674","52.56","0","SATNPRO1963","31.468","0.4408","5"],
    [16954,"HCEP03730560","2024-03-22 22:45:00","9.6692","3.23565","24.987","4.905","7.53","0.335","4.452","0.03","0.18","29.4591","4.66647","52.07","0","SATNPRO1963","31.334","0.43888","5"],
    [16955,"HCEP03730560","2024-03-22 23:00:00","9.6688","3.23574","25.113","4.885","7.53","0.381","4.87","0.02","0.26","29.4602","4.66664","51.86","0","SATNPRO1963","31.344","0.43906","5"],
    [16956,"HCEP03730560","2024-03-22 23:15:00","9.6686","3.23584","25.231","4.903","7.53","0.348","5.343","0.01","0.22","29.4613","4.66682","52.05","0","SATNPRO1963","31.302","0.43846","5"],
    [16957,"HCEP03730560","2024-03-22 23:30:00","9.6693","3.2357","25.395","4.877","7.53","0.361","4.681","0.02","0.21","29.4593","4.66652","51.78","0","SATNPRO1963","31.442","0.44036","5"],
    [16958,"HCEP03730560","2024-03-22 23:45:00","9.669","3.23585","25.512","4.886","7.53","0.33","5.026","0.02","0.15","29.461","4.66678","51.87","0","SATNPRO1963","31.426000000000002","0.44016","5"],
    [16959,"HCEP03730560","2024-03-23 00:00:00","9.6695","3.23595","25.669","4.886","7.53","0.379","5.133","0.01","0.16","29.4615","4.66685","51.88","0","SATNPRO1963","31.456","0.4406","5"],
    [16960,"HCEP03730560","2024-03-23 00:15:00","9.6701","3.23586","25.824","4.855","7.53","0.325","4.901","0.02","0.08","29.46","4.66664","51.54","0","SATNPRO1963","31.236","0.43752","5"],
    [16961,"HCEP03730560","2024-03-23 00:30:00","9.6699","3.2358","25.991","4.825","7.53","0.402","4.917","0.02","0.07","29.4595","4.66658","51.23","0","SATNPRO1963","30.96","0.43364","5"],
    [16962,"HCEP03730560","2024-03-23 00:45:00","9.6702","3.2356","26.165","4.795","7.53","0.338","5.028","0.02","0.17","29.4572","4.66625","50.91","0","SATNPRO1963","31.238","0.43756","5"],
    [16963,"HCEP03730560","2024-03-23 01:00:00","9.6702","3.23525","26.331","4.769","7.53","0.417","5.376","0.02","0.33","29.4536","4.66575","50.63","0","SATNPRO1963","31.26","0.43784","5"],
    [16964,"HCEP03730560","2024-03-23 01:15:00","9.6703","3.23593","26.496","4.806","7.53","0.354","5.664","0.02","0.31","29.4603","4.66671","51.03","0","SATNPRO1963","31.012","0.43436","5"],
    [16965,"HCEP03730560","2024-03-23 01:30:00","9.67","3.23605","26.66","4.831","7.53","0.433","6.11","0.03","0.38","29.4617","4.66693","51.29","0","SATNPRO1963","31.238","0.43754","5"],
    [16966,"HCEP03730560","2024-03-23 01:45:00","9.6701","3.23595","26.879","4.829","7.53","0.363","5.439","0.02","0.18","29.4606","4.66678","51.27","0","SATNPRO1963","31.098","0.43558","5"],
    [16967,"HCEP03730560","2024-03-23 02:00:00","9.6697","3.23506","27.021","4.791","7.53","0.405","4.42","0.02","0.17","29.4519","4.66555","50.86","0","SATNPRO1963","31.3","0.43842","5"],
    [16968,"HCEP03730560","2024-03-23 02:15:00","9.6704","3.23597","27.2","4.795","7.53","0.39","5.645","0.02","0.23","29.4603","4.66676","50.91","0","SATNPRO1963","31.354","0.43916","5"],
    [16969,"HCEP03730560","2024-03-23 02:30:00","9.6703","3.23611","27.368","4.798","7.53","0.479","6.605","0.01","0.2","29.4619","4.66699","50.94","0","SATNPRO1963","31.01","0.43438","5"],
    [16970,"HCEP03730560","2024-03-23 02:45:00","9.6699","3.23609","27.502","4.804","7.53","0.402","5.882","0.02","0.24","29.4619","4.667","51","0","SATNPRO1963","31.038","0.43474","5"],
    [16971,"HCEP03730560","2024-03-23 03:00:00","9.6696","3.23596","27.617","4.834","7.53","0.491","5.333","0.02","0.25","29.4608","4.66686","51.32","0","SATNPRO1963","31.304","0.43842","5"],
    [16972,"HCEP03730560","2024-03-23 03:15:00","9.6685","3.23572","27.718","4.887","7.53","0.425","4.249","0.02","0.37","29.4591","4.66665","51.89","0","SATNPRO1963","31.330000000000002","0.4388","5"],
    [16973,"HCEP03730560","2024-03-23 03:30:00","9.6672","3.23566","27.798","4.941","7.53","0.439","4.067","0.02","0.18","29.4596","4.66674","52.46","0","SATNPRO1963","31.524","0.4416","5"],
    [16974,"HCEP03730560","2024-03-23 03:45:00","9.6664","3.23549","27.879","4.945","7.54","0.39","4.429","0.02","0.24","29.4585","4.6666","52.5","0","SATNPRO1963","31.392","0.4397","5"],
    [16975,"HCEP03730560","2024-03-23 04:00:00","9.6656","3.2341","27.915","4.823","7.53","0.435","3.644","0.03","0.1","29.4452","4.66472","51.2","0","SATNPRO1963","31.066","0.43518","5"],
    [16976,"HCEP03730560","2024-03-23 04:15:00","9.6654","3.23421","27.891","4.787","7.53","0.373","3.761","0.03","0.13","29.4464","4.66489","50.81","0","SATNPRO1963","30.98","0.43394","5"],
    [16977,"HCEP03730560","2024-03-23 04:30:00","9.6649","3.23416","27.874","4.798","7.53","0.421","3.787","0.04","0.19","29.4464","4.66489","50.93","0","SATNPRO1963","31.27","0.43804","5"],
    [16978,"HCEP03730560","2024-03-23 04:45:00","9.6641","3.23338","27.861","4.769","7.53","0.424","3.823","0.03","0.17","29.4391","4.66387","50.62","0","SATNPRO1963","31.366","0.43936","5"],
    [16979,"HCEP03730560","2024-03-23 05:00:00","9.6661","3.23473","27.815","4.811","7.53","0.495","4.604","0.03","0.22","29.4512","4.66556","51.07","0","SATNPRO1963","31.544","0.44182","5"],
    [16980,"HCEP03730560","2024-03-23 05:15:00","9.6663","3.23491","27.767","4.824","7.53","0.46","4.965","0.05","0.44","29.4528","4.66578","51.21","0","SATNPRO1963","31.21","0.43714","5"],
    [16981,"HCEP03730560","2024-03-23 05:30:00","9.6657","3.23445","27.71","4.799","7.53","0.469","4.683","0.04","0.14","29.4487","4.66521","50.94","0","SATNPRO1963","31.28","0.4381","5"],
    [16982,"HCEP03730560","2024-03-23 05:45:00","9.6656","3.23417","27.603","4.754","7.52","0.431","5.176","0.03","0.26","29.446","4.66481","50.47","0","SATNPRO1963","31.084","0.43536","5"],
    [16983,"HCEP03730560","2024-03-23 06:00:00","9.6667","3.23494","27.536","4.79","7.53","0.491","4.539","0.04","0.18","29.4529","4.66578","50.85","0","SATNPRO1963","31.09","0.43552","5"],
    [16984,"HCEP03730560","2024-03-23 06:15:00","9.6653","3.23394","27.446","4.761","7.52","0.412","4.354","0.03","0.1","29.444","4.66453","50.54","0","SATNPRO1963","30.768","0.43098","5"],
    [16985,"HCEP03730560","2024-03-23 06:30:00","9.6663","3.23462","27.378","4.764","7.52","0.463","4.331","0.03","0.2","29.4501","4.66538","50.57","0","SATNPRO1963","30.956","0.43362","5"],
    [16986,"HCEP03730560","2024-03-23 06:45:00","9.665","3.23364","27.3","4.735","7.52","0.451","4.193","0.04","0.26","29.4413","4.66413","50.26","0","SATNPRO1963","31.258","0.43782","5"],
    [16987,"HCEP03730560","2024-03-23 07:00:00","9.6661","3.2343","27.187","4.728","7.52","0.482","4.486","0.03","0.19","29.447","4.66493","50.19","0","SATNPRO1963","30.951999999999998","0.43354","5"],
    [16988,"HCEP03730560","2024-03-23 07:15:00","9.6665","3.23441","27.086","4.721","7.52","0.481","5.03","0.04","0.24","29.4479","4.66504","50.11","0","SATNPRO1963","30.830000000000002","0.43182","5"],
    [16989,"HCEP03730560","2024-03-23 07:30:00","9.6647","3.23368","26.9","4.705","7.52","0.587","5.6","0.05","0.64","29.442","4.66422","49.94","0","SATNPRO1963","30.996000000000002","0.43412","5"],
    [16990,"HCEP03730560","2024-03-23 07:45:00","9.6658","3.23406","26.771","4.716","7.52","0.553","4.234","0.11","0.13","29.445","4.66463","50.06","0","SATNPRO1963","31.01","0.43438","5"],
    [16991,"HCEP03730560","2024-03-23 08:00:00","9.6667","3.23458","26.66","4.72","7.52","0.594","4.531","0.03","0.14","29.4496","4.66526","50.11","0","SATNPRO1963","31.046","0.43484","5"],
    [16992,"HCEP03730560","2024-03-23 08:15:00","9.6664","3.23456","26.512","4.729","7.52","0.537","4.479","0.02","0.14","29.4497","4.66526","50.2","0","SATNPRO1963","31.05","0.4349","5"],
    [16993,"HCEP03730560","2024-03-23 08:30:00","9.6676","3.23487","26.366","4.715","7.52","0.598","4.46","0.04","0.17","29.4519","4.66555","50.05","0","SATNPRO1963","30.848","0.43208","5"],
    [16994,"HCEP03730560","2024-03-23 08:45:00","9.6667","3.23464","26.239","4.733","7.52","0.495","4.244","0.02","0.24","29.4504","4.66534","50.25","0","SATNPRO1963","30.942","0.43338","5"],
    [16995,"HCEP03730560","2024-03-23 09:00:00","9.6664","3.23461","26.102","4.751","7.52","0.541","3.996","0.04","0.21","29.4504","4.66534","50.44","0","SATNPRO1963","30.934","0.43328","5"],
    [16996,"HCEP03730560","2024-03-23 09:15:00","9.6663","3.23461","25.981","4.757","7.52","0.446","3.919","0.03","0.19","29.4505","4.66535","50.49","0","SATNPRO1963","31.21","0.43712","5"],
    [16997,"HCEP03730560","2024-03-23 09:30:00","9.6661","3.23458","25.878","4.762","7.52","0.502","3.722","0.03","0.17","29.4504","4.66533","50.55","0","SATNPRO1963","31.041999999999998","0.43482","5"],
    [16998,"HCEP03730560","2024-03-23 09:45:00","9.6665","3.23468","25.807","4.769","7.52","0.44","3.663","0.03","0.27","29.4511","4.66542","50.63","0","SATNPRO1963","31.14","0.4362","5"],
    [16999,"HCEP03730560","2024-03-23 10:00:00","9.6658","3.23452","25.751","4.77","7.52","0.459","3.629","0.03","0.13","29.4501","4.66529","50.63","0","SATNPRO1963","31.07","0.43522","5"],
    [17000,"HCEP03730560","2024-03-23 10:15:00","9.6663","3.23465","25.737","4.773","7.52","0.416","3.747","0.03","0.24","29.4511","4.66542","50.67","0","SATNPRO1963","31.204","0.43708","5"],
    [17001,"HCEP03730560","2024-03-23 10:30:00","9.6662","3.23458","25.735","4.764","7.52","0.453","3.77","0.03","0.21","29.4503","4.66532","50.58","0","SATNPRO1963","31.072","0.43522","5"],
    [17002,"HCEP03730560","2024-03-23 10:45:00","9.6662","3.23446","25.753","4.747","7.52","0.428","3.884","0.11","0.26","29.4491","4.66514","50.39","0","SATNPRO1963","31.114","0.43584","5"],
    [17003,"HCEP03730560","2024-03-23 11:00:00","9.6657","3.23448","25.807","4.744","7.52","0.464","4.07","0.03","0.24","29.4497","4.66524","50.36","0","SATNPRO1963","31.206","0.4371","5"],
    [17004,"HCEP03730560","2024-03-23 11:15:00","9.6658","3.23456","25.876","4.733","7.52","0.454","4.327","0.02","0.19","29.4505","4.66535","50.24","0","SATNPRO1963","31.2","0.43702","5"],
    [17005,"HCEP03730560","2024-03-23 11:30:00","9.6646","3.23449","25.948","4.76","7.52","0.52","4.552","0.02","0.24","29.4507","4.6654","50.53","0","SATNPRO1963","31.246","0.43766","5"],
    [17006,"HCEP03730560","2024-03-23 11:45:00","9.6654","3.23465","26.041","4.78","7.52","0.507","5.136","0.03","0.28","29.4516","4.66553","50.74","0","SATNPRO1963","31.142","0.43616","5"],
    [17007,"HCEP03730560","2024-03-23 12:00:00","9.6653","3.23475","26.12","4.774","7.52","0.554","4.855","0.04","0.25","29.4527","4.66569","50.68","0","SATNPRO1963","31.326","0.4388","5"],
    [17008,"HCEP03730560","2024-03-23 12:15:00","9.6648","3.23476","26.205","4.809","7.52","0.463","4.871","0.03","0.25","29.4531","4.66577","51.05","0","SATNPRO1963","31.37","0.4394","5"],
    [17009,"HCEP03730560","2024-03-23 12:30:00","9.6645","3.23483","26.309","4.836","7.53","0.527","4.456","0.03","0.26","29.4541","4.66591","51.33","0","SATNPRO1963","31.09","0.43544","5"],
    [17010,"HCEP03730560","2024-03-23 12:45:00","9.6641","3.23486","26.408","4.839","7.53","0.487","4.399","0.05","0.18","29.4546","4.666","51.37","0","SATNPRO1963","31.156","0.4364","5"],
    [17011,"HCEP03730560","2024-03-23 13:00:00","9.6639","3.2348","26.498","4.837","7.53","0.512","4.547","0.03","0.21","29.4542","4.66595","51.35","0","SATNPRO1963","31.242","0.43758","5"],
    [17012,"HCEP03730560","2024-03-23 13:15:00","9.6629","3.2347","26.597","4.863","7.53","0.403","4.283","0.03","0.22","29.4539","4.66593","51.62","0","SATNPRO1963","31.444","0.4404","5"],
    [17013,"HCEP03730560","2024-03-23 13:30:00","9.662","3.23453","26.699","4.894","7.53","0.506","4.559","0.04","0.5","29.453","4.66583","51.95","0","SATNPRO1963","31.36","0.43926","5"],
    [17014,"HCEP03730560","2024-03-23 13:45:00","9.6614","3.23435","26.799","4.887","7.53","0.439","4.641","0.03","0.27","29.4516","4.66563","51.88","0","SATNPRO1963","31.318","0.43866","5"],
    [17015,"HCEP03730560","2024-03-23 14:00:00","9.6598","3.23393","26.906","4.906","7.53","0.494","4.569","0.03","0.21","29.4486","4.66524","52.07","0","SATNPRO1963","31.462","0.44066","5"],
    [17016,"HCEP03730560","2024-03-23 14:15:00","9.6576","3.23349","27.001","4.92","7.53","0.439","3.992","0.03","0.17","29.446","4.66491","52.22","0","SATNPRO1963","31.45","0.44054","5"],
    [17017,"HCEP03730560","2024-03-23 14:30:00","9.6611","3.23356","27.096","4.809","7.53","0.529","4.923","0.03","0.24","29.4437","4.66454","51.05","0","SATNPRO1963","31.142","0.4362","5"],
    [17018,"HCEP03730560","2024-03-23 14:45:00","9.6605","3.23294","27.197","4.747","7.52","0.483","4.237","0.03","0.23","29.438","4.66373","50.38","0","SATNPRO1963","30.954","0.43358","5"],
    [17019,"HCEP03730560","2024-03-23 15:00:00","9.6598","3.23249","27.307","4.71","7.52","0.605","4.745","0.05","0.25","29.4339","4.66317","49.99","0","SATNPRO1963","31.006","0.43428","5"],
    [17020,"HCEP03730560","2024-03-23 15:15:00","9.6606","3.23228","27.4","4.641","7.52","0.521","5.271","0.04","0.31","29.4312","4.66276","49.26","0","SATNPRO1963","30.974","0.43386","5"],
    [17021,"HCEP03730560","2024-03-23 15:30:00","9.6603","3.23205","27.442","4.627","7.51","0.552","5.385","0.03","0.38","29.429","4.66247","49.11","0","SATNPRO1963","30.976","0.43386","5"],
    [17022,"HCEP03730560","2024-03-23 15:45:00","9.6593","3.23192","27.449","4.637","7.51","0.494","4.49","0.02","0.22","29.4285","4.66242","49.21","0","SATNPRO1963","30.9","0.43278","5"],
    [17023,"HCEP03730560","2024-03-23 16:00:00","9.6595","3.23204","27.457","4.649","7.51","0.464","4.385","0.03","0.22","29.4297","4.66257","49.33","0","SATNPRO1963","30.82","0.4317","5"],
    [17024,"HCEP03730560","2024-03-23 16:15:00","9.6599","3.23215","27.451","4.642","7.51","0.424","4.157","0.02","0.23","29.4304","4.66267","49.26","0","SATNPRO1963","30.596","0.42854","5"],
    [17025,"HCEP03730560","2024-03-23 16:30:00","9.66","3.23213","27.424","4.636","7.51","0.452","3.573","0.03","0.09","29.4301","4.66263","49.2","0","SATNPRO1963","30.656","0.4294","5"],
    [17026,"HCEP03730560","2024-03-23 16:45:00","9.6601","3.23203","27.382","4.619","7.51","0.434","4.197","0.02","0.18","29.429","4.66246","49.02","0","SATNPRO1963","30.788","0.43126","5"],
    [17027,"HCEP03730560","2024-03-23 17:00:00","9.6602","3.2319","27.339","4.606","7.51","0.567","4.936","0.03","0.23","29.4277","4.66227","48.88","0","SATNPRO1963","30.698","0.43","5"],
    [17028,"HCEP03730560","2024-03-23 17:15:00","9.6592","3.23162","27.267","4.591","7.51","0.49","4.973","0.03","0.36","29.4256","4.66199","48.72","0","SATNPRO1963","30.796","0.43136","5"],
    [17029,"HCEP03730560","2024-03-23 17:30:00","9.6578","3.23138","27.191","4.614","7.51","0.479","4.028","0.02","0.17","29.4244","4.66184","48.96","0","SATNPRO1963","30.874","0.43242","5"],
    [17030,"HCEP03730560","2024-03-23 17:45:00","9.6575","3.23107","27.103","4.608","7.51","0.441","4.395","0.02","0.21","29.4216","4.66143","48.9","0","SATNPRO1963","30.974","0.43382","5"],
    [17031,"HCEP03730560","2024-03-23 18:00:00","9.6568","3.23089","27.003","4.621","7.51","0.453","3.917","0.02","0.22","29.4205","4.66128","49.04","0","SATNPRO1963","30.942","0.43342","5"],
    [17032,"HCEP03730560","2024-03-23 18:15:00","9.657","3.23078","26.847","4.609","7.51","0.434","4.363","0.05","0.21","29.4191","4.66107","48.91","0","SATNPRO1963","30.84","0.43194","5"],
    [17033,"HCEP03730560","2024-03-23 18:30:00","9.6559","3.23057","26.711","4.612","7.51","0.428","3.9","0.02","0.35","29.418","4.66092","48.94","0","SATNPRO1963","30.424","0.42614","5"],
    [17034,"HCEP03730560","2024-03-23 18:45:00","9.655","3.23029","26.564","4.629","7.51","0.376","3.73","0.02","0.14","29.416","4.66064","49.12","0","SATNPRO1963","30.894000000000002","0.43272","5"],
    [17035,"HCEP03730560","2024-03-23 19:00:00","9.6578","3.23086","26.451","4.589","7.5","0.493","5.04","0.03","0.54","29.4195","4.66109","48.7","0","SATNPRO1963","30.67","0.4296","5"],
    [17036,"HCEP03730560","2024-03-23 19:15:00","9.6572","3.2309","26.279","4.583","7.5","0.456","5.674","0.02","0.46","29.4204","4.66122","48.63","0","SATNPRO1963","30.652","0.42934","5"],
    [17037,"HCEP03730560","2024-03-23 19:30:00","9.6475","3.22987","26.113","4.695","7.51","0.515","5.001","0.03","0.24","29.4181","4.66104","49.82","0","SATNPRO1963","31.05","0.4349","5"],
    [17038,"HCEP03730560","2024-03-23 19:45:00","9.6483","3.23005","25.945","4.873","7.52","0.433","4.26","0.02","0.22","29.4193","4.6612","51.7","0","SATNPRO1963","31.306","0.43848","5"],
    [17039,"HCEP03730560","2024-03-23 20:00:00","9.6478","3.23025","25.77","4.943","7.53","0.504","4.06","0.14","0.37","29.4218","4.66155","52.44","0","SATNPRO1963","31.386","0.43962","5"],
    [17040,"HCEP03730560","2024-03-23 20:15:00","9.6503","3.23055","25.607","4.894","7.53","0.44","4.38","0.02","0.18","29.4229","4.66166","51.93","0","SATNPRO1963","31.162","0.43646","5"],
    [17041,"HCEP03730560","2024-03-23 20:30:00","9.6541","3.23113","25.437","4.791","7.52","0.503","5.144","0.03","0.37","29.4256","4.66197","50.84","0","SATNPRO1963","31.124","0.43596","5"],
    [17042,"HCEP03730560","2024-03-23 20:45:00","9.6561","3.23142","25.286","4.725","7.52","0.45","5.229","0.03","0.35","29.4271","4.66214","50.14","0","SATNPRO1963","30.958","0.4336","5"],
    [17043,"HCEP03730560","2024-03-23 21:00:00","9.6605","3.23193","25.161","4.631","7.51","0.475","4.842","0.02","0.4","29.4286","4.66226","49.15","0","SATNPRO1963","31.146","0.43624","5"],
    [17044,"HCEP03730560","2024-03-23 21:15:00","9.6612","3.23219","25.039","4.613","7.51","0.433","5.304","0.02","0.31","29.4307","4.66254","48.96","0","SATNPRO1963","30.826","0.43172","5"],
    [17045,"HCEP03730560","2024-03-23 21:30:00","9.6609","3.23219","24.945","4.633","7.51","0.484","5.101","0.02","0.29","29.4309","4.66258","49.17","0","SATNPRO1963","31.016","0.43442","5"],
    [17046,"HCEP03730560","2024-03-23 21:45:00","9.6584","3.23197","24.904","4.718","7.51","0.391","4.375","0.02","0.21","29.4308","4.6626","50.07","0","SATNPRO1963","31.112","0.43578","5"],
    [17047,"HCEP03730560","2024-03-23 22:00:00","9.656","3.23179","24.887","4.817","7.52","0.435","4.002","0.02","0.22","29.4309","4.66267","51.12","0","SATNPRO1963","31.4","0.43982","5"],
    [17048,"HCEP03730560","2024-03-23 22:15:00","9.6567","3.23213","24.885","4.855","7.52","0.398","4.32","0.02","0.28","29.4338","4.66307","51.53","0","SATNPRO1963","31.486","0.44102","5"],
    [17049,"HCEP03730560","2024-03-23 22:30:00","9.6588","3.2326","24.912","4.827","7.52","0.454","4.762","0.01","0.37","29.4368","4.66346","51.23","0","SATNPRO1963","31.432","0.44026","5"],
    [17050,"HCEP03730560","2024-03-23 22:45:00","9.6605","3.23291","24.969","4.796","7.52","0.395","4.489","0.04","0.32","29.4385","4.66368","50.9","0","SATNPRO1963","31.482","0.441","5"],
    [17051,"HCEP03730560","2024-03-23 23:00:00","9.6589","3.23255","25.037","4.806","7.52","0.432","4.488","0.02","0.31","29.4362","4.66338","51.01","0","SATNPRO1963","31.362","0.43926","5"],
    [17052,"HCEP03730560","2024-03-23 23:15:00","9.6627","3.23348","25.131","4.757","7.52","0.351","4.684","0.02","0.27","29.4424","4.6642","50.49","0","SATNPRO1963","31.342","0.43902","5"],
    [17053,"HCEP03730560","2024-03-23 23:30:00","9.6627","3.23349","25.228","4.738","7.52","0.449","4.7","0.02","0.34","29.4424","4.66421","50.28","0","SATNPRO1963","30.896","0.43274","5"],
    [17054,"HCEP03730560","2024-03-23 23:45:00","9.663","3.23356","25.347","4.733","7.52","0.371","4.399","0.02","0.23","29.4429","4.66429","50.24","0","SATNPRO1963","31.332","0.43884","5"],
    [17055,"HCEP03730560","2024-03-24 00:00:00","9.6638","3.23367","25.468","4.708","7.52","0.429","4.646","0.01","0.23","29.4433","4.66434","49.97","0","SATNPRO1963","31.13","0.436","5"],
    [17056,"HCEP03730560","2024-03-24 00:15:00","9.6644","3.23394","25.608","4.703","7.52","0.367","4.783","0.03","0.16","29.4455","4.66465","49.92","0","SATNPRO1963","31.208000000000002","0.43712","5"],
    [17057,"HCEP03730560","2024-03-24 00:30:00","9.6644","3.23395","25.76","4.703","7.52","0.42","4.426","0.02","0.28","29.4455","4.66466","49.93","0","SATNPRO1963","31.096","0.4356","5"],
    [17058,"HCEP03730560","2024-03-24 00:45:00","9.6644","3.23393","25.913","4.698","7.52","0.356","4.667","0.03","0.34","29.4453","4.66464","49.86","0","SATNPRO1963","31.18","0.43674","5"],
    [17059,"HCEP03730560","2024-03-24 01:00:00","9.6642","3.23393","26.055","4.712","7.52","0.396","4.015","0.02","0.15","29.4453","4.66465","50.02","0","SATNPRO1963","30.982","0.43398","5"],
    [17060,"HCEP03730560","2024-03-24 01:15:00","9.6641","3.23388","26.217","4.712","7.52","0.368","4.363","0.03","0.27","29.4448","4.66459","50.02","0","SATNPRO1963","31.146","0.43622","5"],
    [17061,"HCEP03730560","2024-03-24 01:30:00","9.6634","3.23371","26.398","4.714","7.52","0.375","3.86","0.02","0.26","29.4437","4.66445","50.03","0","SATNPRO1963","31.268","0.43796","5"],
    [17062,"HCEP03730560","2024-03-24 01:45:00","9.6641","3.23382","26.579","4.71","7.52","0.319","4.074","0.01","0.13","29.4441","4.66451","49.99","0","SATNPRO1963","30.983999999999998","0.434","5"],
    [17063,"HCEP03730560","2024-03-24 02:00:00","9.6642","3.23387","26.765","4.699","7.52","0.381","4.154","0.01","0.24","29.4444","4.66456","49.88","0","SATNPRO1963","30.918","0.43308","5"],
    [17064,"HCEP03730560","2024-03-24 02:15:00","9.6639","3.23368","26.876","4.702","7.52","0.309","3.716","0.01","0.05","29.4427","4.66433","49.91","0","SATNPRO1963","30.790000000000003","0.43122","5"],
    [17065,"HCEP03730560","2024-03-24 02:30:00","9.6641","3.2338","27.061","4.7","7.52","0.407","4.507","0.03","0.39","29.4437","4.66448","49.89","0","SATNPRO1963","31.12","0.4359","5"],
    [17066,"HCEP03730560","2024-03-24 02:45:00","9.6637","3.23374","27.236","4.695","7.52","0.362","4.391","0.04","0.24","29.4433","4.66444","49.83","0","SATNPRO1963","31.076","0.43526","5"],
    [17067,"HCEP03730560","2024-03-24 03:00:00","9.6643","3.23381","27.376","4.675","7.52","0.404","4.253","0.02","0.14","29.4435","4.66447","49.63","0","SATNPRO1963","30.916","0.433","5"],
    [17068,"HCEP03730560","2024-03-24 03:15:00","9.664","3.23374","27.507","4.652","7.52","0.337","4.442","0.02","0.15","29.443","4.66441","49.38","0","SATNPRO1963","30.964","0.43374","5"],
    [17069,"HCEP03730560","2024-03-24 03:30:00","9.6644","3.23377","27.634","4.632","7.51","0.422","4.273","0.02","0.19","29.4429","4.66439","49.17","0","SATNPRO1963","31.06","0.4351","5"],
    [17070,"HCEP03730560","2024-03-24 03:45:00","9.6644","3.23384","27.749","4.638","7.51","0.386","4.767","0.03","0.34","29.4436","4.66449","49.23","0","SATNPRO1963","31.064","0.4351","5"],
    [17071,"HCEP03730560","2024-03-24 04:00:00","9.6648","3.23388","27.835","4.625","7.51","0.454","4.764","0.03","0.34","29.4436","4.6645","49.09","0","SATNPRO1963","30.914","0.433","5"],
    [17072,"HCEP03730560","2024-03-24 04:15:00","9.6648","3.23398","27.876","4.642","7.51","0.394","4.771","0.03","0.25","29.4446","4.66464","49.27","0","SATNPRO1963","31.11","0.43574","5"],
    [17073,"HCEP03730560","2024-03-24 04:30:00","9.6651","3.23402","27.895","4.639","7.51","0.443","4.583","0.03","0.2","29.4448","4.66467","49.24","0","SATNPRO1963","31.382","0.43958","5"],
    [17074,"HCEP03730560","2024-03-24 04:45:00","9.6653","3.23405","27.882","4.63","7.51","0.399","4.551","0.03","0.12","29.4449","4.66468","49.15","0","SATNPRO1963","31.12","0.4359","5"],
    [17075,"HCEP03730560","2024-03-24 05:00:00","9.6658","3.23414","27.854","4.628","7.51","0.409","4.44","0.02","0.1","29.4454","4.66474","49.13","0","SATNPRO1963","30.759999999999998","0.43084","5"],
    [17076,"HCEP03730560","2024-03-24 05:15:00","9.6655","3.23415","27.836","4.641","7.51","0.369","4.905","0.02","0.36","29.4458","4.66479","49.26","0","SATNPRO1963","31.208","0.43714","5"],
    [17077,"HCEP03730560","2024-03-24 05:30:00","9.666","3.2342","27.806","4.642","7.51","0.47","4.733","0.04","0.2","29.4459","4.6648","49.28","0","SATNPRO1963","30.81","0.43156","5"],
    [17078,"HCEP03730560","2024-03-24 05:45:00","9.6654","3.23417","27.747","4.652","7.51","0.366","4.595","0.03","0.16","29.4461","4.66484","49.38","0","SATNPRO1963","31.052","0.43496","5"],
    [17079,"HCEP03730560","2024-03-24 06:00:00","9.6651","3.23417","27.679","4.682","7.51","0.422","4.413","0.02","0.16","29.4464","4.66489","49.7","0","SATNPRO1963","31.39","0.43968","5"],
    [17080,"HCEP03730560","2024-03-24 06:15:00","9.6636","3.23375","27.591","4.698","7.51","0.329","4.205","0.03","0.23","29.4434","4.66448","49.87","0","SATNPRO1963","31.419999999999998","0.44008","5"],
    [17081,"HCEP03730560","2024-03-24 06:30:00","9.6633","3.23353","27.473","4.716","7.52","0.376","4.152","0.02","0.23","29.4414","4.66419","50.06","0","SATNPRO1963","31.158","0.43642","5"],
    [17082,"HCEP03730560","2024-03-24 06:45:00","9.6621","3.23339","27.349","4.754","7.52","0.335","4.006","0.02","0.18","29.441","4.66414","50.46","0","SATNPRO1963","31.388","0.43962","5"],
    [17083,"HCEP03730560","2024-03-24 07:00:00","9.6599","3.23292","27.226","4.754","7.52","0.389","3.481","0.02","0.18","29.4382","4.66377","50.45","0","SATNPRO1963","31.586","0.44238","5"],
    [17084,"HCEP03730560","2024-03-24 07:15:00","9.6579","3.23235","27.104","4.786","7.52","0.343","3.434","0.02","0.19","29.4341","4.66322","50.79","0","SATNPRO1963","31.6","0.44262","5"],
    [17085,"HCEP03730560","2024-03-24 07:30:00","9.6564","3.23183","26.98","4.82","7.52","0.441","3.402","0.02","0.25","29.4302","4.66267","51.15","0","SATNPRO1963","31.586000000000002","0.44242","5"],
    [17086,"HCEP03730560","2024-03-24 07:45:00","9.6626","3.23356","26.848","4.767","7.52","0.38","3.537","0.02","0.19","29.4426","4.66434","50.59","0","SATNPRO1963","31.48","0.44096","5"],
    [17087,"HCEP03730560","2024-03-24 08:00:00","9.6579","3.23265","26.704","4.845","7.52","0.487","2.862","0.04","0.14","29.4374","4.66366","51.42","0","SATNPRO1963","31.792","0.44534","5"],
    [17088,"HCEP03730560","2024-03-24 08:15:00","9.6621","3.23359","26.554","4.762","7.52","0.452","4.025","0.02","0.21","29.4435","4.66445","50.55","0","SATNPRO1963","31.428","0.44018","5"],
    [17089,"HCEP03730560","2024-03-24 08:30:00","9.6585","3.23233","26.399","4.739","7.52","0.512","4.786","0.03","0.39","29.4337","4.66311","50.29","0","SATNPRO1963","31.316","0.43864","5"],
    [17090,"HCEP03730560","2024-03-24 08:45:00","9.6589","3.23168","26.245","4.732","7.52","0.454","4.247","0.04","0.28","29.4269","4.66212","50.22","0","SATNPRO1963","31.332","0.43886","5"],
    [17091,"HCEP03730560","2024-03-24 09:00:00","9.658","3.23167","26.083","4.75","7.52","0.54","3.855","0.04","0.3","29.4276","4.66222","50.41","0","SATNPRO1963","31.264","0.4379","5"],
    [17092,"HCEP03730560","2024-03-24 09:15:00","9.6564","3.23032","25.924","4.701","7.51","0.411","2.897","0.03","0.14","29.4154","4.66049","49.88","0","SATNPRO1963","31.266","0.43792","5"],
    [17093,"HCEP03730560","2024-03-24 09:30:00","9.6562","3.23012","25.776","4.657","7.51","0.449","2.719","0.02","0.13","29.4136","4.66024","49.41","0","SATNPRO1963","31.57","0.44222","5"],
    [17094,"HCEP03730560","2024-03-24 09:45:00","9.6561","3.23002","25.65","4.65","7.51","0.417","2.705","0.03","0.15","29.4127","4.6601","49.34","0","SATNPRO1963","31.242","0.4376","5"],
    [17095,"HCEP03730560","2024-03-24 10:00:00","9.6566","3.23042","25.561","4.657","7.51","0.439","2.749","0.02","0.25","29.4164","4.66061","49.41","0","SATNPRO1963","31.538","0.44174","5"],
    [17096,"HCEP03730560","2024-03-24 10:15:00","9.6569","3.23041","25.493","4.63","7.51","0.408","2.993","0.03","0.16","29.416","4.66055","49.13","0","SATNPRO1963","31.119999999999997","0.43588","5"],
    [17097,"HCEP03730560","2024-03-24 10:30:00","9.6597","3.23161","25.454","4.644","7.51","0.53","3.526","0.03","0.17","29.4259","4.66192","49.29","0","SATNPRO1963","31.256","0.43776","5"],
    [17098,"HCEP03730560","2024-03-24 10:45:00","9.663","3.23281","25.435","4.599","7.51","0.474","4.759","0.02","0.27","29.4352","4.66319","48.81","0","SATNPRO1963","31.048","0.43488","5"],
    [17099,"HCEP03730560","2024-03-24 11:00:00","9.6627","3.23256","25.437","4.549","7.5","0.45","4.53","0.02","0.18","29.433","4.66288","48.28","0","SATNPRO1963","30.810000000000002","0.43152","5"],
    [17100,"HCEP03730560","2024-03-24 11:15:00","9.6642","3.23306","25.486","4.54","7.5","0.477","5.187","0.03","0.26","29.4369","4.66341","48.19","0","SATNPRO1963","30.794","0.43134","5"],
    [17101,"HCEP03730560","2024-03-24 11:30:00","9.6645","3.23319","25.544","4.534","7.5","0.521","5.069","0.02","0.23","29.4378","4.66354","48.13","0","SATNPRO1963","30.786","0.43124","5"],
    [17102,"HCEP03730560","2024-03-24 11:45:00","9.6649","3.23342","25.604","4.521","7.5","0.485","5.9","0.02","0.25","29.4398","4.66383","47.99","0","SATNPRO1963","30.76","0.43086","5"],
    [17103,"HCEP03730560","2024-03-24 12:00:00","9.665","3.23338","25.681","4.507","7.5","0.538","6.069","0.03","0.25","29.4393","4.66375","47.84","0","SATNPRO1963","30.742","0.43066","5"],
    [17104,"HCEP03730560","2024-03-24 12:15:00","9.6648","3.23328","25.761","4.502","7.5","0.462","5.829","0.02","0.32","29.4384","4.66364","47.78","0","SATNPRO1963","30.752","0.43074","5"],
    [17105,"HCEP03730560","2024-03-24 12:30:00","9.6642","3.23299","25.868","4.495","7.5","0.502","5.438","0.02","0.22","29.4359","4.6633","47.71","0","SATNPRO1963","30.724","0.43036","5"],
    [17106,"HCEP03730560","2024-03-24 12:45:00","9.6641","3.2331","25.983","4.501","7.5","0.476","5.877","0.02","0.33","29.4372","4.66348","47.77","0","SATNPRO1963","30.802","0.43144","5"],
    [17107,"HCEP03730560","2024-03-24 13:00:00","9.6639","3.23306","26.106","4.502","7.5","0.511","5.428","0.02","0.27","29.4368","4.66344","47.78","0","SATNPRO1963","30.778","0.43112","5"],
    [17108,"HCEP03730560","2024-03-24 13:15:00","9.6633","3.23287","26.221","4.497","7.5","0.464","5.807","0.03","0.38","29.4353","4.66324","47.73","0","SATNPRO1963","30.766","0.43092","5"],
    [17109,"HCEP03730560","2024-03-24 13:30:00","9.6637","3.23307","26.333","4.514","7.5","0.532","5.918","0.06","0.52","29.437","4.66349","47.91","0","SATNPRO1963","30.762","0.43088","5"],
    [17110,"HCEP03730560","2024-03-24 13:45:00","9.6628","3.23302","26.428","4.543","7.5","0.451","5.7","0.02","0.55","29.4372","4.66353","48.21","0","SATNPRO1963","30.912","0.433","5"],
    [17111,"HCEP03730560","2024-03-24 14:00:00","9.6614","3.23288","26.524","4.587","7.5","0.468","5.024","0.02","0.33","29.4369","4.66353","48.68","0","SATNPRO1963","31.142","0.43624","5"],
    [17112,"HCEP03730560","2024-03-24 14:15:00","9.6608","3.23265","26.65","4.618","7.51","0.458","5.638","0.02","0.3","29.435","4.66326","49.01","0","SATNPRO1963","31.218","0.4373","5"],
    [17113,"HCEP03730560","2024-03-24 14:30:00","9.6581","3.23208","26.747","4.631","7.51","0.492","4.869","0.03","0.22","29.4314","4.66281","49.15","0","SATNPRO1963","31.186","0.43682","5"],
    [17114,"HCEP03730560","2024-03-24 14:45:00","9.655","3.23162","26.876","4.703","7.51","0.405","4.883","0.02","0.26","29.4293","4.66256","49.91","0","SATNPRO1963","31.298","0.43838","5"],
    [17115,"HCEP03730560","2024-03-24 15:00:00","9.6522","3.23091","27.012","4.737","7.51","0.446","4.708","0.03","0.19","29.4243","4.6619","50.27","0","SATNPRO1963","31.258","0.4378","5"],
    [17116,"HCEP03730560","2024-03-24 15:15:00","9.6523","3.23041","27.126","4.689","7.51","0.404","5.166","0.02","0.38","29.4192","4.66118","49.75","0","SATNPRO1963","31.232","0.43744","5"],
    [17117,"HCEP03730560","2024-03-24 15:30:00","9.6536","3.23048","27.252","4.625","7.51","0.439","4.615","0.03","0.36","29.4187","4.6611","49.07","0","SATNPRO1963","30.846","0.43204","5"],
    [17118,"HCEP03730560","2024-03-24 15:45:00","9.6538","3.23056","27.385","4.592","7.51","0.407","5.081","0.04","0.36","29.4193","4.66118","48.72","0","SATNPRO1963","30.828","0.43176","5"],
    [17119,"HCEP03730560","2024-03-24 16:00:00","9.6531","3.23061","27.441","4.626","7.51","0.428","4.449","0.02","0.23","29.4204","4.66136","49.09","0","SATNPRO1963","31.168","0.43658","5"],
    [17120,"HCEP03730560","2024-03-24 16:15:00","9.6531","3.23074","27.48","4.651","7.51","0.365","4.416","0.02","0.25","29.4217","4.66154","49.35","0","SATNPRO1963","30.958000000000002","0.43362","5"],
    [17121,"HCEP03730560","2024-03-24 16:30:00","9.6533","3.23087","27.502","4.663","7.51","0.423","4.386","0.02","0.27","29.4228","4.66171","49.47","0","SATNPRO1963","30.86","0.43226","5"],
    [17122,"HCEP03730560","2024-03-24 16:45:00","9.6537","3.23087","27.498","4.642","7.51","0.365","4.199","0.03","0.27","29.4226","4.66166","49.26","0","SATNPRO1963","30.528000000000002","0.4276","5"],
    [17123,"HCEP03730560","2024-03-24 17:00:00","9.654","3.23086","27.473","4.628","7.51","0.405","4.263","0.03","0.16","29.4222","4.6616","49.11","0","SATNPRO1963","30.962","0.43364","5"],
    [17124,"HCEP03730560","2024-03-24 17:15:00","9.6545","3.23083","27.433","4.616","7.51","0.351","4.668","0.02","0.25","29.4215","4.66149","48.98","0","SATNPRO1963","31.036","0.43468","5"],
    [17125,"HCEP03730560","2024-03-24 17:30:00","9.6544","3.23091","27.391","4.615","7.51","0.417","4.436","0.03","0.24","29.4224","4.66161","48.97","0","SATNPRO1963","30.884","0.4326","5"],
    [17126,"HCEP03730560","2024-03-24 17:45:00","9.6541","3.23107","27.335","4.637","7.51","0.387","4.874","0.04","0.31","29.4242","4.66188","49.2","0","SATNPRO1963","31.099999999999998","0.43564","5"],
    [17127,"HCEP03730560","2024-03-24 18:00:00","9.6529","3.23121","27.241","4.709","7.51","0.43","4.8","0.03","0.3","29.4267","4.66224","49.97","0","SATNPRO1963","31.018","0.43444","5"],
    [17128,"HCEP03730560","2024-03-24 18:15:00","9.6537","3.23138","27.149","4.717","7.51","0.38","4.876","0.03","0.4","29.4278","4.66239","50.06","0","SATNPRO1963","31.31","0.43856","5"],
    [17129,"HCEP03730560","2024-03-24 18:30:00","9.6507","3.23149","27.013","4.883","7.52","0.398","3.672","0.02","0.19","29.4314","4.66295","51.81","0","SATNPRO1963","31.602","0.44268","5"],
    [17130,"HCEP03730560","2024-03-24 18:45:00","9.6494","3.23168","26.877","4.993","7.53","0.341","2.955","0.04","0.13","29.4344","4.6634","52.98","0","SATNPRO1963","31.712","0.44418","5"],
    [17131,"HCEP03730560","2024-03-24 19:00:00","9.6516","3.23186","26.796","4.935","7.53","0.398","3.64","0.02","0.25","29.4345","4.66337","52.36","0","SATNPRO1963","31.662","0.44346","5"],
    [17132,"HCEP03730560","2024-03-24 19:15:00","9.6515","3.23198","26.699","4.918","7.53","0.342","3.82","0.02","0.26","29.4359","4.66356","52.18","0","SATNPRO1963","31.810000000000002","0.44556","5"],
    [17133,"HCEP03730560","2024-03-24 19:30:00","9.6522","3.2321","26.58","4.931","7.53","0.397","3.257","0.03","0.23","29.4365","4.66363","52.33","0","SATNPRO1963","31.688","0.44386","5"],
    [17134,"HCEP03730560","2024-03-24 19:45:00","9.6535","3.23195","26.446","4.863","7.53","0.354","4.098","0.03","0.16","29.4341","4.66325","51.61","0","SATNPRO1963","31.419999999999998","0.44006","5"],
    [17135,"HCEP03730560","2024-03-24 20:00:00","9.6538","3.23186","26.286","4.82","7.52","0.419","4.444","0.02","0.24","29.4329","4.66307","51.15","0","SATNPRO1963","31.4","0.4398","5"],
    [17136,"HCEP03730560","2024-03-24 20:15:00","9.6531","3.23163","26.14","4.784","7.52","0.374","4.584","0.02","0.2","29.4312","4.66283","50.77","0","SATNPRO1963","31.326","0.43872","5"],
    [17137,"HCEP03730560","2024-03-24 20:30:00","9.654","3.23163","25.996","4.777","7.52","0.42","4.978","0.02","0.24","29.4305","4.6627","50.69","0","SATNPRO1963","31.46","0.44066","5"],
    [17138,"HCEP03730560","2024-03-24 20:45:00","9.6538","3.23151","25.851","4.753","7.52","0.376","5.241","0.02","0.28","29.4296","4.66257","50.43","0","SATNPRO1963","31.358","0.43922","5"],
    [17139,"HCEP03730560","2024-03-24 21:00:00","9.654","3.23151","25.712","4.738","7.51","0.428","5.075","0.02","0.3","29.4294","4.66253","50.28","0","SATNPRO1963","31.214","0.43724","5"],
    [17140,"HCEP03730560","2024-03-24 21:15:00","9.6539","3.23141","25.589","4.727","7.51","0.379","5.096","0.02","0.25","29.4285","4.6624","50.16","0","SATNPRO1963","31.198","0.43698","5"],
    [17141,"HCEP03730560","2024-03-24 21:30:00","9.6542","3.23141","25.468","4.719","7.51","0.423","4.655","0.02","0.32","29.4284","4.66237","50.08","0","SATNPRO1963","31.201999999999998","0.43704","5"],
    [17142,"HCEP03730560","2024-03-24 21:45:00","9.6549","3.23157","25.346","4.707","7.51","0.37","4.709","0.03","0.23","29.4295","4.66251","49.95","0","SATNPRO1963","31.192","0.43692","5"],
    [17143,"HCEP03730560","2024-03-24 22:00:00","9.6547","3.23166","25.245","4.713","7.51","0.42","4.396","0.02","0.21","29.4305","4.66265","50.01","0","SATNPRO1963","31.408","0.43992","5"],
    [17144,"HCEP03730560","2024-03-24 22:15:00","9.6554","3.23171","25.158","4.704","7.51","0.368","4.536","0.02","0.16","29.4305","4.66264","49.91","0","SATNPRO1963","31.198","0.43702","5"],
    [17145,"HCEP03730560","2024-03-24 22:30:00","9.6558","3.23185","25.105","4.698","7.51","0.415","4.285","0.02","0.2","29.4317","4.66279","49.85","0","SATNPRO1963","31.166","0.43654","5"],
    [17146,"HCEP03730560","2024-03-24 22:45:00","9.6562","3.23198","25.084","4.7","7.51","0.339","4.297","0.02","0.21","29.4326","4.66292","49.88","0","SATNPRO1963","31.346","0.43906","5"],
    [17147,"HCEP03730560","2024-03-24 23:00:00","9.6553","3.23182","25.127","4.729","7.51","0.407","3.609","0.02","0.18","29.4317","4.66281","50.18","0","SATNPRO1963","31.298000000000002","0.43842","5"],
    [17148,"HCEP03730560","2024-03-24 23:15:00","9.6541","3.2316","25.167","4.765","7.51","0.348","3.417","0.02","0.13","29.4305","4.66265","50.57","0","SATNPRO1963","31.355999999999998","0.43914","5"],
    [17149,"HCEP03730560","2024-03-24 23:30:00","9.6564","3.23225","25.192","4.746","7.51","0.42","4.413","0.02","0.21","29.4351","4.66327","50.37","0","SATNPRO1963","31.292","0.4383","5"],
    [17150,"HCEP03730560","2024-03-24 23:45:00","9.6566","3.23234","25.291","4.748","7.51","0.364","4.844","0.02","0.28","29.4358","4.66337","50.38","0","SATNPRO1963","31.474","0.44086","5"],
    [17151,"HCEP03730560","2024-03-25 00:00:00","9.6566","3.23254","25.379","4.752","7.51","0.419","5.16","0.02","0.24","29.4379","4.66368","50.43","0","SATNPRO1963","31.276","0.43806","5"],
    [17152,"HCEP03730560","2024-03-25 00:15:00","9.655","3.23241","25.489","4.794","7.52","0.37","5.27","0.02","0.33","29.4378","4.6637","50.87","0","SATNPRO1963","31.274","0.43802","5"],
    [17153,"HCEP03730560","2024-03-25 00:30:00","9.6526","3.23206","25.614","4.851","7.52","0.425","4.996","0.02","0.34","29.4361","4.66351","51.48","0","SATNPRO1963","31.434","0.44028","5"],
    [17154,"HCEP03730560","2024-03-25 00:45:00","9.6518","3.23194","25.73","4.89","7.52","0.366","5.069","0.01","0.32","29.4356","4.66345","51.89","0","SATNPRO1963","31.396","0.43976","5"],
    [17155,"HCEP03730560","2024-03-25 01:00:00","9.6518","3.232","25.892","4.873","7.53","0.402","5.241","0.02","0.24","29.4361","4.66354","51.71","0","SATNPRO1963","31.7","0.444","5"],
    [17156,"HCEP03730560","2024-03-25 01:15:00","9.6522","3.23191","26.021","4.848","7.52","0.35","4.885","0.02","0.24","29.4348","4.66336","51.44","0","SATNPRO1963","31.266","0.43794","5"],
    [17157,"HCEP03730560","2024-03-25 01:30:00","9.6532","3.23199","26.145","4.793","7.52","0.411","5.116","0.02","0.26","29.4347","4.66333","50.86","0","SATNPRO1963","31.384","0.43956","5"],
    [17158,"HCEP03730560","2024-03-25 01:45:00","9.6553","3.23207","26.285","4.699","7.52","0.375","5.32","0.02","0.31","29.4337","4.66316","49.86","0","SATNPRO1963","31.114","0.43578","5"],
    [17159,"HCEP03730560","2024-03-25 02:00:00","9.6584","3.2325","26.467","4.569","7.51","0.425","4.979","0.03","0.28","29.4355","4.66337","48.49","0","SATNPRO1963","30.733999999999998","0.43048","5"],
    [17160,"HCEP03730560","2024-03-25 02:15:00","9.6589","3.23272","26.663","4.521","7.5","0.378","5.529","0.02","0.4","29.4373","4.66362","47.98","0","SATNPRO1963","30.83","0.43182","5"],
    [17161,"HCEP03730560","2024-03-25 02:30:00","9.6582","3.23281","26.822","4.531","7.5","0.419","4.833","0.02","0.2","29.4386","4.66384","48.08","0","SATNPRO1963","30.958","0.43362","5"],
    [17162,"HCEP03730560","2024-03-25 02:45:00","9.6568","3.23279","26.986","4.573","7.5","0.384","4.674","0.06","0.28","29.4396","4.66401","48.53","0","SATNPRO1963","30.87","0.4324","5"],
    [17163,"HCEP03730560","2024-03-25 03:00:00","9.6563","3.23265","27.163","4.59","7.5","0.417","4.945","0.02","0.26","29.4384","4.66387","48.71","0","SATNPRO1963","30.916","0.43302","5"],
    [17164,"HCEP03730560","2024-03-25 03:15:00","9.6555","3.23259","27.33","4.607","7.5","0.37","4.859","0.03","0.28","29.4385","4.6639","48.89","0","SATNPRO1963","31.102","0.43562","5"],
    [17165,"HCEP03730560","2024-03-25 03:30:00","9.6542","3.23228","27.5","4.637","7.51","0.432","4.356","0.03","0.19","29.4363","4.66361","49.2","0","SATNPRO1963","31.092","0.43548","5"],
    [17166,"HCEP03730560","2024-03-25 03:45:00","9.6529","3.23201","27.613","4.669","7.51","0.369","4.474","0.03","0.29","29.4346","4.66341","49.54","0","SATNPRO1963","31.08","0.43532","5"],
    [17167,"HCEP03730560","2024-03-25 04:00:00","9.6518","3.23181","27.723","4.706","7.51","0.432","4.487","0.03","0.2","29.4335","4.66327","49.93","0","SATNPRO1963","31.266000000000002","0.4379","5"],
    [17168,"HCEP03730560","2024-03-25 04:15:00","9.6508","3.23171","27.795","4.728","7.51","0.371","4.411","0.02","0.14","29.4332","4.66325","50.16","0","SATNPRO1963","31.256","0.43776","5"],
    [17169,"HCEP03730560","2024-03-25 04:30:00","9.6509","3.23171","27.839","4.735","7.51","0.422","3.866","0.02","0.26","29.4331","4.66324","50.24","0","SATNPRO1963","31.176000000000002","0.43668","5"],
    [17170,"HCEP03730560","2024-03-25 04:45:00","9.6538","3.23212","27.878","4.666","7.51","0.364","3.751","0.04","0.12","29.4349","4.66344","49.52","0","SATNPRO1963","31.236","0.43748","5"],
    [17171,"HCEP03730560","2024-03-25 05:00:00","9.6543","3.23229","27.891","4.639","7.51","0.41","4.115","0.04","0.13","29.4362","4.66362","49.23","0","SATNPRO1963","31.17","0.43658","5"],
    [17172,"HCEP03730560","2024-03-25 05:15:00","9.6546","3.23229","27.886","4.634","7.51","0.367","4.67","0.02","0.2","29.436","4.66358","49.17","0","SATNPRO1963","31.09","0.43548","5"],
    [17173,"HCEP03730560","2024-03-25 05:30:00","9.6541","3.23229","27.879","4.637","7.51","0.41","4.517","0.02","0.28","29.4364","4.66366","49.2","0","SATNPRO1963","30.971999999999998","0.43384","5"],
    [17174,"HCEP03730560","2024-03-25 05:45:00","9.6554","3.23241","27.806","4.61","7.51","0.36","4.679","0.02","0.28","29.4366","4.66365","48.92","0","SATNPRO1963","30.842","0.43198","5"],
    [17175,"HCEP03730560","2024-03-25 06:00:00","9.6562","3.23239","27.757","4.591","7.5","0.41","3.672","0.03","0.2","29.4357","4.66351","48.73","0","SATNPRO1963","30.971999999999998","0.43384","5"],
    [17176,"HCEP03730560","2024-03-25 06:15:00","9.6549","3.2323","27.667","4.607","7.5","0.359","3.991","0.03","0.18","29.4359","4.66356","48.89","0","SATNPRO1963","31.05","0.4349","5"],
    [17177,"HCEP03730560","2024-03-25 06:30:00","9.6551","3.23229","27.55","4.611","7.5","0.406","3.628","0.02","0.2","29.4357","4.66351","48.94","0","SATNPRO1963","30.996","0.43416","5"],
    [17178,"HCEP03730560","2024-03-25 06:45:00","9.6546","3.23215","27.437","4.648","7.51","0.344","3.463","0.01","0.16","29.4348","4.66339","49.33","0","SATNPRO1963","31.23","0.43744","5"],
    [17179,"HCEP03730560","2024-03-25 07:00:00","9.6538","3.23208","27.327","4.676","7.51","0.41","3.632","0.02","0.17","29.4347","4.66339","49.62","0","SATNPRO1963","30.968","0.43378","5"],
    [17180,"HCEP03730560","2024-03-25 07:15:00","9.6546","3.23213","27.198","4.635","7.51","0.365","3.755","0.03","0.2","29.4346","4.66335","49.18","0","SATNPRO1963","30.942","0.43344","5"],
    [17181,"HCEP03730560","2024-03-25 07:30:00","9.6542","3.23201","27.071","4.626","7.5","0.42","3.689","0.04","0.17","29.4338","4.66323","49.09","0","SATNPRO1963","31.096","0.43554","5"],
    [17182,"HCEP03730560","2024-03-25 07:45:00","9.6534","3.23182","26.94","4.647","7.5","0.379","4.487","0.02","0.46","29.4326","4.66307","49.31","0","SATNPRO1963","31.072000000000003","0.43522","5"],
    [17183,"HCEP03730560","2024-03-25 08:00:00","9.6529","3.2316","26.822","4.624","7.5","0.449","4.258","0.03","0.22","29.4308","4.66282","49.06","0","SATNPRO1963","31.178","0.43672","5"],
    [17184,"HCEP03730560","2024-03-25 08:15:00","9.6527","3.2316","26.675","4.619","7.5","0.393","4.235","0.03","0.15","29.431","4.66284","49.02","0","SATNPRO1963","30.996000000000002","0.4342","5"],
    [17185,"HCEP03730560","2024-03-25 08:30:00","9.6532","3.23145","26.521","4.589","7.5","0.441","4.214","0.02","0.18","29.4292","4.66256","48.7","0","SATNPRO1963","31.168","0.43652","5"],
    [17186,"HCEP03730560","2024-03-25 08:45:00","9.6554","3.23188","26.35","4.559","7.5","0.395","5.03","0.05","0.23","29.4317","4.66288","48.38","0","SATNPRO1963","30.814","0.4316","5"],
    [17187,"HCEP03730560","2024-03-25 09:00:00","9.6545","3.23173","26.16","4.551","7.5","0.431","4.74","0.02","0.29","29.4311","4.66278","48.3","0","SATNPRO1963","30.958","0.43362","5"],
    [17188,"HCEP03730560","2024-03-25 09:15:00","9.6516","3.2313","26.007","4.63","7.5","0.391","4.508","0.03","0.42","29.4291","4.66255","49.13","0","SATNPRO1963","31.052","0.43492","5"],
    [17189,"HCEP03730560","2024-03-25 09:30:00","9.6515","3.23135","25.856","4.684","7.5","0.431","4.025","0.03","0.15","29.4298","4.66263","49.7","0","SATNPRO1963","31.232","0.43746","5"],
    [17190,"HCEP03730560","2024-03-25 09:45:00","9.6518","3.23149","25.645","4.714","7.51","0.376","4.33","0.04","0.2","29.4311","4.66281","50.02","0","SATNPRO1963","30.974","0.43382","5"],
    [17191,"HCEP03730560","2024-03-25 10:00:00","9.6516","3.23147","25.44","4.704","7.51","0.424","4.286","0.03","0.2","29.431","4.66279","49.91","0","SATNPRO1963","31.32","0.43872","5"],
    [17192,"HCEP03730560","2024-03-25 10:15:00","9.6525","3.23159","25.318","4.685","7.51","0.372","4.842","0.03","0.37","29.4316","4.66285","49.71","0","SATNPRO1963","31.24","0.43758","5"],
    [17193,"HCEP03730560","2024-03-25 10:30:00","9.6523","3.23151","25.22","4.674","7.51","0.434","4.466","0.05","0.25","29.431","4.66276","49.6","0","SATNPRO1963","31.102","0.43568","5"],
    [17194,"HCEP03730560","2024-03-25 10:45:00","9.6516","3.23131","25.17","4.696","7.51","0.388","4.586","0.03","0.27","29.4296","4.66257","49.83","0","SATNPRO1963","31.312","0.43858","5"],
    [17195,"HCEP03730560","2024-03-25 11:00:00","9.6516","3.23133","25.154","4.715","7.51","0.432","4.31","0.02","0.28","29.4299","4.66261","50.03","0","SATNPRO1963","31.282","0.43816","5"],
    [17196,"HCEP03730560","2024-03-25 11:15:00","9.6515","3.23131","25.157","4.718","7.51","0.368","4.495","0.02","0.24","29.4297","4.66258","50.06","0","SATNPRO1963","31.228","0.4374","5"],
    [17197,"HCEP03730560","2024-03-25 11:30:00","9.6522","3.23141","25.201","4.719","7.51","0.424","4.72","0.02","0.29","29.4301","4.66262","50.08","0","SATNPRO1963","31.284","0.4382","5"],
    [17198,"HCEP03730560","2024-03-25 11:45:00","9.6518","3.23142","25.272","4.739","7.51","0.367","4.594","0.02","0.2","29.4306","4.66271","50.28","0","SATNPRO1963","31.22","0.43726","5"],
    [17199,"HCEP03730560","2024-03-25 12:00:00","9.652","3.23151","25.325","4.759","7.51","0.412","4.539","0.02","0.19","29.4312","4.6628","50.5","0","SATNPRO1963","31.512","0.4414","5"],
    [17200,"HCEP03730560","2024-03-25 12:15:00","9.6523","3.23161","25.387","4.768","7.51","0.356","4.469","0.02","0.34","29.432","4.66291","50.6","0","SATNPRO1963","31.192","0.43688","5"],
    [17201,"HCEP03730560","2024-03-25 12:30:00","9.6523","3.23167","25.464","4.78","7.52","0.409","4.32","0.02","0.15","29.4325","4.66299","50.72","0","SATNPRO1963","31.386","0.4396","5"],
    [17202,"HCEP03730560","2024-03-25 12:45:00","9.6526","3.23171","25.596","4.784","7.52","0.354","4.309","0.02","0.14","29.4327","4.66301","50.77","0","SATNPRO1963","31.486","0.441","5"],
    [17203,"HCEP03730560","2024-03-25 13:00:00","9.6525","3.23173","25.758","4.792","7.52","0.403","4.235","0.02","0.17","29.4328","4.66305","50.84","0","SATNPRO1963","31.678","0.4437","5"],
    [17204,"HCEP03730560","2024-03-25 13:15:00","9.6522","3.23176","25.839","4.774","7.52","0.365","4.722","0.02","0.29","29.4334","4.66314","50.66","0","SATNPRO1963","31.382","0.43958","5"],
    [17205,"HCEP03730560","2024-03-25 13:30:00","9.6526","3.23181","25.918","4.776","7.52","0.408","4.842","0.02","0.29","29.4334","4.66314","50.68","0","SATNPRO1963","31.274","0.438","5"],
    [17206,"HCEP03730560","2024-03-25 13:45:00","9.6528","3.23184","26.108","4.789","7.52","0.349","4.5","0.01","0.21","29.4335","4.66316","50.81","0","SATNPRO1963","31.306","0.43852","5"],
    [17207,"HCEP03730560","2024-03-25 14:00:00","9.6532","3.2319","26.202","4.754","7.52","0.418","4.928","0.05","0.22","29.4339","4.66321","50.44","0","SATNPRO1963","31.314","0.4386","5"],
    [17208,"HCEP03730560","2024-03-25 14:15:00","9.6538","3.23196","26.307","4.743","7.52","0.366","5.051","0.02","0.31","29.4339","4.66322","50.33","0","SATNPRO1963","31.336","0.43892","5"],
    [17209,"HCEP03730560","2024-03-25 14:30:00","9.6534","3.23198","26.461","4.748","7.52","0.414","4.934","0.02","0.19","29.4344","4.6633","50.38","0","SATNPRO1963","31.398","0.43976","5"],
    [17210,"HCEP03730560","2024-03-25 14:45:00","9.6534","3.232","26.586","4.749","7.52","0.353","4.885","0.01","0.15","29.4345","4.66332","50.39","0","SATNPRO1963","31.234","0.4375","5"],
    [17211,"HCEP03730560","2024-03-25 15:00:00","9.6538","3.23204","26.726","4.736","7.51","0.405","4.881","0.01","0.15","29.4345","4.66333","50.26","0","SATNPRO1963","31.164","0.4365","5"],
    [17212,"HCEP03730560","2024-03-25 15:15:00","9.6534","3.23204","26.844","4.757","7.52","0.361","4.633","0.04","0.18","29.4348","4.66338","50.48","0","SATNPRO1963","31.126","0.43594","5"],
    [17213,"HCEP03730560","2024-03-25 15:30:00","9.6532","3.23205","27.005","4.766","7.52","0.397","4.578","0.02","0.16","29.435","4.66342","50.58","0","SATNPRO1963","31.396","0.43974","5"],
    [17214,"HCEP03730560","2024-03-25 15:45:00","9.6532","3.23204","27.127","4.777","7.52","0.349","4.575","0.02","0.13","29.4349","4.66341","50.69","0","SATNPRO1963","31.318","0.43866","5"],
    [17215,"HCEP03730560","2024-03-25 16:00:00","9.6532","3.23197","27.242","4.762","7.52","0.403","4.582","0.02","0.16","29.4341","4.66331","50.53","0","SATNPRO1963","31.61","0.44278","5"],
    [17216,"HCEP03730560","2024-03-25 16:15:00","9.6535","3.23194","27.346","4.735","7.52","0.362","4.891","0.02","0.3","29.4335","4.66322","50.24","0","SATNPRO1963","31.436","0.44034","5"],
    [17217,"HCEP03730560","2024-03-25 16:30:00","9.6535","3.23193","27.419","4.723","7.52","0.411","4.991","0.01","0.23","29.4334","4.6632","50.12","0","SATNPRO1963","31.222","0.4373","5"],
    [17218,"HCEP03730560","2024-03-25 16:45:00","9.6538","3.23197","27.486","4.72","7.51","0.376","5.155","0.03","0.3","29.4336","4.66323","50.09","0","SATNPRO1963","31.422","0.4401","5"],
    [17219,"HCEP03730560","2024-03-25 17:00:00","9.6549","3.2321","27.511","4.709","7.51","0.409","4.646","0.02","0.22","29.4339","4.66327","49.97","0","SATNPRO1963","31.37","0.4394","5"],
    [17220,"HCEP03730560","2024-03-25 17:15:00","9.6556","3.23228","27.536","4.698","7.51","0.372","4.357","0.03","0.25","29.4351","4.66342","49.85","0","SATNPRO1963","31.342","0.43896","5"],
    [17221,"HCEP03730560","2024-03-25 17:30:00","9.6557","3.23229","27.543","4.695","7.51","0.409","4.337","0.03","0.33","29.4352","4.66344","49.82","0","SATNPRO1963","31.124","0.43598","5"],
    [17222,"HCEP03730560","2024-03-25 17:45:00","9.6549","3.2321","27.526","4.699","7.51","0.369","4.707","0.04","0.29","29.4339","4.66327","49.87","0","SATNPRO1963","31.394","0.43974","5"],
    [17223,"HCEP03730560","2024-03-25 18:00:00","9.6546","3.23199","27.483","4.697","7.51","0.428","4.913","0.03","0.22","29.4331","4.66315","49.85","0","SATNPRO1963","31.34","0.43898","5"],
    [17224,"HCEP03730560","2024-03-25 18:15:00","9.6543","3.23193","27.426","4.693","7.51","0.372","4.879","0.04","0.21","29.4327","4.66309","49.8","0","SATNPRO1963","31.291999999999998","0.43832","5"],
    [17225,"HCEP03730560","2024-03-25 18:30:00","9.6544","3.23196","27.362","4.686","7.51","0.425","5.003","0.03","0.41","29.4329","4.66312","49.73","0","SATNPRO1963","31.252","0.43774","5"],
    [17226,"HCEP03730560","2024-03-25 18:45:00","9.6546","3.23205","27.289","4.686","7.51","0.361","4.606","0.02","0.22","29.4338","4.66324","49.72","0","SATNPRO1963","31.394","0.43972","5"],
    [17227,"HCEP03730560","2024-03-25 19:00:00","9.6549","3.23211","27.207","4.688","7.51","0.411","5.031","0.02","0.2","29.4342","4.66329","49.75","0","SATNPRO1963","31.268","0.43794","5"],
    [17228,"HCEP03730560","2024-03-25 19:15:00","9.6556","3.23226","27.093","4.675","7.51","0.367","5.055","0.02","0.29","29.4351","4.6634","49.62","0","SATNPRO1963","31.084","0.43538","5"],
    [17229,"HCEP03730560","2024-03-25 19:30:00","9.6564","3.23243","26.979","4.666","7.51","0.401","4.396","0.02","0.16","29.4362","4.66353","49.52","0","SATNPRO1963","31.214","0.43722","5"],
    [17230,"HCEP03730560","2024-03-25 19:45:00","9.6581","3.23262","26.856","4.622","7.51","0.355","4.952","0.02","0.29","29.4368","4.66358","49.05","0","SATNPRO1963","31.104","0.4357","5"],
    [17231,"HCEP03730560","2024-03-25 20:00:00","9.6596","3.23279","26.734","4.576","7.5","0.427","4.815","0.07","0.26","29.4373","4.66362","48.56","0","SATNPRO1963","31.152","0.43632","5"],
    [17232,"HCEP03730560","2024-03-25 20:15:00","9.6604","3.23285","26.609","4.546","7.5","0.358","4.676","0.03","0.29","29.4374","4.66361","48.25","0","SATNPRO1963","30.98","0.43392","5"],
    [17233,"HCEP03730560","2024-03-25 20:30:00","9.6607","3.23292","26.484","4.535","7.5","0.408","4.175","0.02","0.24","29.4379","4.66367","48.13","0","SATNPRO1963","31.146","0.4363","5"],
    [17234,"HCEP03730560","2024-03-25 20:45:00","9.6601","3.23275","26.329","4.548","7.5","0.352","4.381","0.03","0.2","29.4368","4.66351","48.27","0","SATNPRO1963","31.154","0.43636","5"],
    [17235,"HCEP03730560","2024-03-25 21:00:00","9.6606","3.23282","26.207","4.53","7.5","0.424","4.748","0.04","0.19","29.437","4.66354","48.07","0","SATNPRO1963","30.87","0.4324","5"],
    [17236,"HCEP03730560","2024-03-25 21:15:00","9.6615","3.2329","26.057","4.494","7.5","0.359","4.89","0.01","0.27","29.4372","4.66353","47.69","0","SATNPRO1963","31.128","0.436","5"],
    [17237,"HCEP03730560","2024-03-25 21:30:00","9.6614","3.23281","25.911","4.487","7.49","0.419","4.764","0.03","0.26","29.4364","4.66341","47.62","0","SATNPRO1963","30.98","0.4339","5"],
    [17238,"HCEP03730560","2024-03-25 21:45:00","9.6609","3.23276","25.774","4.505","7.49","0.373","4.535","0.07","0.21","29.4364","4.66341","47.81","0","SATNPRO1963","31.266000000000002","0.43798","5"],
    [17239,"HCEP03730560","2024-03-25 22:00:00","9.6609","3.23276","25.641","4.504","7.49","0.427","4.873","0.03","0.22","29.4364","4.66341","47.8","0","SATNPRO1963","30.919999999999998","0.43304","5"],
    [17240,"HCEP03730560","2024-03-25 22:15:00","9.66","3.23257","25.552","4.528","7.49","0.37","4.291","0.03","0.47","29.4353","4.66326","48.05","0","SATNPRO1963","31.288","0.43824","5"],
    [17241,"HCEP03730560","2024-03-25 22:30:00","9.6589","3.23235","25.462","4.556","7.5","0.401","3.82","0.03","0.28","29.4341","4.6631","48.35","0","SATNPRO1963","31.24","0.43756","5"],
    [17242,"HCEP03730560","2024-03-25 22:45:00","9.6587","3.23238","25.393","4.54","7.5","0.381","4.623","0.04","0.44","29.4345","4.66317","48.18","0","SATNPRO1963","30.976","0.4339","5"],
    [17243,"HCEP03730560","2024-03-25 23:00:00","9.658","3.23221","25.35","4.543","7.5","0.408","4.696","0.02","0.14","29.4334","4.66301","48.22","0","SATNPRO1963","31.022000000000002","0.43454","5"],
    [17244,"HCEP03730560","2024-03-25 23:15:00","9.6578","3.23222","25.336","4.537","7.5","0.374","5.334","0.03","0.24","29.4336","4.66305","48.15","0","SATNPRO1963","31.108","0.43572","5"],
    [17245,"HCEP03730560","2024-03-25 23:30:00","9.6569","3.23207","25.345","4.545","7.5","0.427","5.366","0.03","0.41","29.4328","4.66295","48.24","0","SATNPRO1963","31.036","0.43468","5"],
    [17246,"HCEP03730560","2024-03-25 23:45:00","9.6569","3.23213","25.378","4.541","7.5","0.422","5.746","0.12","0.27","29.4334","4.66304","48.19","0","SATNPRO1963","30.922","0.43308","5"],
    [17247,"HCEP03730560","2024-03-26 00:00:00","9.656","3.23186","25.439","4.542","7.5","0.422","5.425","0.02","0.34","29.4314","4.66277","48.2","0","SATNPRO1963","31.19","0.4369","5"],
    [17248,"HCEP03730560","2024-03-26 00:15:00","9.6549","3.23151","25.513","4.532","7.5","0.393","5.498","0.03","0.37","29.4288","4.66242","48.09","0","SATNPRO1963","31.132","0.43604","5"],
    [17249,"HCEP03730560","2024-03-26 00:30:00","9.6535","3.23115","25.607","4.543","7.5","0.439","5.359","0.03","0.69","29.4263","4.66209","48.21","0","SATNPRO1963","31.06","0.43504","5"],
    [17250,"HCEP03730560","2024-03-26 00:45:00","9.6555","3.23171","25.714","4.511","7.5","0.387","6.086","0.02","0.21","29.4302","4.66262","47.87","0","SATNPRO1963","30.804000000000002","0.43146","5"],
    [17251,"HCEP03730560","2024-03-26 01:00:00","9.6558","3.23176","25.832","4.492","7.49","0.451","6.431","0.02","0.71","29.4305","4.66267","47.66","0","SATNPRO1963","30.812","0.4316","5"],
    [17252,"HCEP03730560","2024-03-26 01:15:00","9.6542","3.23141","25.969","4.515","7.49","0.394","5.51","0.04","0.25","29.4282","4.66237","47.91","0","SATNPRO1963","30.98","0.43396","5"],
    [17253,"HCEP03730560","2024-03-26 01:30:00","9.6531","3.23122","26.108","4.54","7.5","0.48","5.546","0.16","0.32","29.4271","4.66224","48.17","0","SATNPRO1963","31.084","0.43536","5"],
    [17254,"HCEP03730560","2024-03-26 01:45:00","9.6526","3.23111","26.25","4.559","7.5","0.387","4.69","0.04","0.23","29.4263","4.66215","48.37","0","SATNPRO1963","30.988","0.43406","5"],
    [17255,"HCEP03730560","2024-03-26 02:00:00","9.6518","3.23102","26.391","4.574","7.5","0.435","4.535","0.03","0.18","29.426","4.66212","48.53","0","SATNPRO1963","31.236","0.43754","5"],
    [17256,"HCEP03730560","2024-03-26 02:15:00","9.653","3.23116","26.53","4.55","7.5","0.384","5.388","0.02","0.31","29.4264","4.66217","48.28","0","SATNPRO1963","31.136","0.43612","5"],
    [17257,"HCEP03730560","2024-03-26 02:30:00","9.6534","3.23119","26.678","4.523","7.5","0.453","5.536","0.03","0.28","29.4264","4.66216","48","0","SATNPRO1963","31.068","0.43514","5"],
    [17258,"HCEP03730560","2024-03-26 02:45:00","9.6535","3.23123","26.838","4.493","7.5","0.429","6.202","0.07","0.73","29.4266","4.6622","47.67","0","SATNPRO1963","30.814","0.4316","5"],
    [17259,"HCEP03730560","2024-03-26 03:00:00","9.654","3.23119","26.988","4.471","7.49","0.456","5.766","0.02","0.38","29.4257","4.66207","47.44","0","SATNPRO1963","30.76","0.43084","5"],
    [17260,"HCEP03730560","2024-03-26 03:15:00","9.652","3.23085","27.113","4.473","7.49","0.392","5.458","0.02","0.27","29.4238","4.66184","47.46","0","SATNPRO1963","31.012","0.43434","5"],
    [17261,"HCEP03730560","2024-03-26 03:30:00","9.6485","3.23008","27.217","4.54","7.49","0.444","5.005","0.03","0.27","29.4189","4.66121","48.16","0","SATNPRO1963","31.178","0.43676","5"],
    [17262,"HCEP03730560","2024-03-26 03:45:00","9.6453","3.22932","27.403","4.614","7.5","0.404","4.762","0.02","0.24","29.4138","4.66055","48.95","0","SATNPRO1963","31.274","0.43802","5"],
    [17263,"HCEP03730560","2024-03-26 04:00:00","9.6436","3.22895","27.547","4.687","7.5","0.449","4.53","0.02","0.25","29.4113","4.66023","49.71","0","SATNPRO1963","31.398","0.43978","5"],
    [17264,"HCEP03730560","2024-03-26 04:15:00","9.6426","3.22822","27.632","4.671","7.51","0.412","5.216","0.02","0.29","29.4048","4.65932","49.55","0","SATNPRO1963","31.355999999999998","0.43922","5"],
    [17265,"HCEP03730560","2024-03-26 04:30:00","9.641","3.2278","27.696","4.662","7.51","0.443","4.509","0.02","0.18","29.4019","4.65893","49.45","0","SATNPRO1963","31.314","0.43862","5"],
    [17266,"HCEP03730560","2024-03-26 04:45:00","9.6392","3.22725","27.774","4.683","7.51","0.411","4.9","0.02","0.29","29.3978","4.65838","49.67","0","SATNPRO1963","31.482","0.44096","5"],
    [17267,"HCEP03730560","2024-03-26 05:00:00","9.6374","3.2268","27.781","4.73","7.51","0.475","4.614","0.03","0.18","29.3947","4.65796","50.16","0","SATNPRO1963","31.722","0.44428","5"],
    [17268,"HCEP03730560","2024-03-26 05:15:00","9.6394","3.22721","27.811","4.692","7.51","0.403","4.898","0.02","0.15","29.3972","4.65829","49.76","0","SATNPRO1963","31.522","0.44152","5"],
    [17269,"HCEP03730560","2024-03-26 05:30:00","9.641","3.2278","27.802","4.661","7.51","0.456","5.045","0.03","0.25","29.4019","4.65893","49.43","0","SATNPRO1963","31.272","0.438","5"],
    [17270,"HCEP03730560","2024-03-26 05:45:00","9.6411","3.2278","27.781","4.656","7.51","0.399","5.133","0.02","0.14","29.4018","4.65893","49.39","0","SATNPRO1963","31.462","0.44068","5"],
    [17271,"HCEP03730560","2024-03-26 06:00:00","9.6413","3.22794","27.745","4.67","7.51","0.455","5.132","0.02","0.17","29.403","4.65909","49.53","0","SATNPRO1963","31.276","0.43806","5"],
    [17272,"HCEP03730560","2024-03-26 06:15:00","9.6413","3.22807","27.695","4.694","7.51","0.4","4.646","0.02","0.11","29.4044","4.65928","49.79","0","SATNPRO1963","31.625999999999998","0.44302","5"],
    [17273,"HCEP03730560","2024-03-26 06:30:00","9.641","3.22818","27.615","4.734","7.51","0.458","4.844","0.02","0.13","29.4058","4.65949","50.22","0","SATNPRO1963","31.546","0.44184","5"],
    [17274,"HCEP03730560","2024-03-26 06:45:00","9.6409","3.22827","27.533","4.74","7.51","0.423","4.679","0.04","0.17","29.4067","4.65961","50.28","0","SATNPRO1963","31.636","0.4431","5"],
    [17275,"HCEP03730560","2024-03-26 07:00:00","9.6414","3.22839","27.42","4.741","7.51","0.457","4.861","0.02","0.23","29.4076","4.65973","50.29","0","SATNPRO1963","31.631999999999998","0.44308","5"],
    [17276,"HCEP03730560","2024-03-26 07:15:00","9.6417","3.22864","27.297","4.755","7.51","0.393","4.969","0.02","0.16","29.4099","4.66004","50.43","0","SATNPRO1963","31.322","0.4387","5"],
    [17277,"HCEP03730560","2024-03-26 07:30:00","9.6412","3.22875","27.174","4.777","7.51","0.445","4.139","0.02","0.11","29.4115","4.66028","50.67","0","SATNPRO1963","31.562","0.44204","5"],
    [17278,"HCEP03730560","2024-03-26 07:45:00","9.6424","3.22876","27.042","4.759","7.51","0.397","4.645","0.02","0.26","29.4107","4.66013","50.48","0","SATNPRO1963","31.472","0.44082","5"],
    [17279,"HCEP03730560","2024-03-26 08:00:00","9.6425","3.22884","26.885","4.722","7.51","0.448","4.412","0.03","0.14","29.4115","4.66023","50.08","0","SATNPRO1963","31.56","0.44206","5"],
    [17280,"HCEP03730560","2024-03-26 08:15:00","9.6429","3.22879","26.747","4.695","7.51","0.396","4.812","0.02","0.15","29.4107","4.6601","49.8","0","SATNPRO1963","31.522000000000002","0.44148","5"],
    [17281,"HCEP03730560","2024-03-26 08:30:00","9.6437","3.22895","26.585","4.686","7.51","0.443","4.971","0.01","0.16","29.4117","4.66022","49.71","0","SATNPRO1963","31.414","0.44002","5"],
    [17282,"HCEP03730560","2024-03-26 08:45:00","9.643","3.22879","26.424","4.686","7.51","0.397","4.849","0.02","0.3","29.4108","4.6601","49.71","0","SATNPRO1963","31.276","0.4381","5"],
    [17283,"HCEP03730560","2024-03-26 09:00:00","9.6449","3.22899","26.279","4.639","7.5","0.474","5.378","0.03","0.31","29.4113","4.66012","49.21","0","SATNPRO1963","31.426","0.44018","5"],
    [17284,"HCEP03730560","2024-03-26 09:15:00","9.644","3.22896","26.102","4.618","7.5","0.404","4.697","0.02","0.21","29.4118","4.6602","48.99","0","SATNPRO1963","31.254","0.43774","5"],
    [17285,"HCEP03730560","2024-03-26 09:30:00","9.6471","3.22943","25.938","4.554","7.5","0.462","5.434","0.02","0.25","29.414","4.66046","48.31","0","SATNPRO1963","31.154","0.43636","5"],
    [17286,"HCEP03730560","2024-03-26 09:45:00","9.6464","3.22964","25.771","4.569","7.5","0.404","4.51","0.03","0.24","29.4168","4.66086","48.47","0","SATNPRO1963","31.16","0.43648","5"],
    [17287,"HCEP03730560","2024-03-26 10:00:00","9.6476","3.22964","25.603","4.55","7.5","0.454","4.988","0.02","0.21","29.4159","4.6607","48.27","0","SATNPRO1963","31.018","0.43444","5"],
    [17288,"HCEP03730560","2024-03-26 10:15:00","9.6489","3.22962","25.424","4.475","7.49","0.415","5.491","0.02","0.34","29.4147","4.6605","47.48","0","SATNPRO1963","31.104","0.43566","5"],
    [17289,"HCEP03730560","2024-03-26 10:30:00","9.6487","3.22952","25.289","4.459","7.49","0.479","5.787","0.04","0.27","29.4139","4.66037","47.31","0","SATNPRO1963","31.046","0.43488","5"],
    [17290,"HCEP03730560","2024-03-26 10:45:00","9.6485","3.22938","25.121","4.45","7.49","0.436","5.472","0.04","0.27","29.4127","4.6602","47.21","0","SATNPRO1963","31.012","0.43438","5"],
    [17291,"HCEP03730560","2024-03-26 11:00:00","9.6473","3.22915","25.002","4.47","7.49","0.466","4.909","0.02","0.3","29.4115","4.66004","47.42","0","SATNPRO1963","31.204","0.43708","5"],
    [17292,"HCEP03730560","2024-03-26 11:15:00","9.6476","3.22919","24.942","4.467","7.49","0.435","5.538","0.04","0.25","29.4116","4.66005","47.39","0","SATNPRO1963","30.916","0.43302","5"],
    [17293,"HCEP03730560","2024-03-26 11:30:00","9.647","3.22902","24.924","4.478","7.49","0.466","4.75","0.03","0.18","29.4104","4.65988","47.5","0","SATNPRO1963","31.169999999999998","0.43658","5"],
    [17294,"HCEP03730560","2024-03-26 11:45:00","9.648","3.22932","24.925","4.464","7.49","0.416","5.539","0.05","0.32","29.4126","4.66019","47.36","0","SATNPRO1963","30.928","0.43318","5"],
    [17295,"HCEP03730560","2024-03-26 12:00:00","9.6482","3.22943","24.962","4.46","7.49","0.456","4.788","0.02","0.29","29.4135","4.66032","47.32","0","SATNPRO1963","30.928","0.43318","5"],
    [17296,"HCEP03730560","2024-03-26 12:15:00","9.6482","3.22951","25.023","4.474","7.49","0.404","4.655","0.02","0.27","29.4143","4.66043","47.46","0","SATNPRO1963","31.074","0.43524","5"],
    [17297,"HCEP03730560","2024-03-26 12:30:00","9.6486","3.22957","25.083","4.483","7.49","0.454","4.491","0.04","0.24","29.4145","4.66046","47.56","0","SATNPRO1963","31.208","0.43714","5"],
    [17298,"HCEP03730560","2024-03-26 12:45:00","9.6486","3.2298","25.16","4.498","7.49","0.399","4.353","0.04","0.15","29.4168","4.66079","47.71","0","SATNPRO1963","31.078","0.43532","5"],
    [17299,"HCEP03730560","2024-03-26 13:00:00","9.6472","3.22941","25.249","4.516","7.49","0.447","4.035","0.03","0.18","29.4141","4.66043","47.91","0","SATNPRO1963","31.288","0.43822","5"],
    [17300,"HCEP03730560","2024-03-26 13:15:00","9.6493","3.23033","25.385","4.523","7.49","0.392","4.107","0.02","0.15","29.4216","4.66147","47.99","0","SATNPRO1963","31.236","0.4375","5"],
    [17301,"HCEP03730560","2024-03-26 13:30:00","9.6495","3.23031","25.518","4.538","7.49","0.429","3.932","0.02","0.14","29.4211","4.66141","48.15","0","SATNPRO1963","31.354","0.43918","5"],
    [17302,"HCEP03730560","2024-03-26 13:45:00","9.6408","3.22759","25.653","4.669","7.5","0.384","3.391","0.02","0.09","29.4008","4.65866","49.52","0","SATNPRO1963","31.652","0.44334","5"],
    [17303,"HCEP03730560","2024-03-26 14:00:00","9.6479","3.22983","25.785","4.587","7.5","0.432","3.634","0.02","0.1","29.4175","4.66093","48.67","0","SATNPRO1963","31.304","0.43846","5"],
    [17304,"HCEP03730560","2024-03-26 14:15:00","9.6475","3.22946","25.856","4.548","7.5","0.399","3.541","0.06","0.15","29.4141","4.66046","48.25","0","SATNPRO1963","31.12","0.4359","5"],
    [17305,"HCEP03730560","2024-03-26 14:30:00","9.6495","3.23033","25.989","4.539","7.5","0.456","4.271","0.06","0.14","29.4211","4.66144","48.15","0","SATNPRO1963","31.34","0.43898","5"],
    [17306,"HCEP03730560","2024-03-26 14:45:00","9.6488","3.22998","26.148","4.537","7.5","0.41","4.11","0.02","0.18","29.4182","4.66104","48.14","0","SATNPRO1963","31.182","0.43674","5"],
    [17307,"HCEP03730560","2024-03-26 15:00:00","9.649","3.23001","26.283","4.508","7.49","0.458","4.265","0.02","0.16","29.4182","4.66105","47.83","0","SATNPRO1963","31.236","0.43752","5"],
    [17308,"HCEP03730560","2024-03-26 15:15:00","9.65","3.23019","26.454","4.479","7.49","0.403","4.195","0.02","0.12","29.4191","4.66117","47.52","0","SATNPRO1963","31.196","0.43696","5"],
    [17309,"HCEP03730560","2024-03-26 15:30:00","9.6526","3.23068","26.6","4.425","7.49","0.476","5.085","0.03","0.29","29.4219","4.66153","46.95","0","SATNPRO1963","30.954","0.43356","5"],
    [17310,"HCEP03730560","2024-03-26 15:45:00","9.6539","3.23094","26.737","4.383","7.49","0.411","5.28","0.02","0.23","29.4233","4.66172","46.5","0","SATNPRO1963","30.674","0.4296","5"],
    [17311,"HCEP03730560","2024-03-26 16:00:00","9.6546","3.23109","26.879","4.373","7.49","0.475","5.385","0.03","0.23","29.4242","4.66185","46.4","0","SATNPRO1963","30.696","0.42996","5"],
    [17312,"HCEP03730560","2024-03-26 16:15:00","9.6561","3.23151","27.043","4.38","7.49","0.418","5.6","0.03","0.38","29.4273","4.66227","46.48","0","SATNPRO1963","31.006","0.4343","5"],
    [17313,"HCEP03730560","2024-03-26 16:30:00","9.6581","3.23188","27.147","4.357","7.48","0.451","5.296","0.02","0.24","29.4293","4.66253","46.24","0","SATNPRO1963","30.81","0.43156","5"],
    [17314,"HCEP03730560","2024-03-26 16:45:00","9.6596","3.232","27.252","4.335","7.48","0.397","5.361","0.02","0.42","29.4292","4.66249","46","0","SATNPRO1963","30.774","0.43108","5"],
    [17315,"HCEP03730560","2024-03-26 17:00:00","9.6598","3.2319","27.332","4.326","7.48","0.461","5.037","0.03","0.2","29.428","4.66232","45.91","0","SATNPRO1963","30.842","0.432","5"],
    [17316,"HCEP03730560","2024-03-26 17:15:00","9.6597","3.23142","27.403","4.313","7.48","0.393","4.667","0.02","0.25","29.4232","4.66164","45.77","0","SATNPRO1963","30.848","0.43208","5"],
    [17317,"HCEP03730560","2024-03-26 17:30:00","9.6598","3.23137","27.479","4.3","7.48","0.45","4.493","0.04","0.26","29.4226","4.66156","45.63","0","SATNPRO1963","30.951999999999998","0.43352","5"],
    [17318,"HCEP03730560","2024-03-26 17:45:00","9.6606","3.2315","27.476","4.279","7.48","0.399","4.824","0.03","0.22","29.4233","4.66164","45.41","0","SATNPRO1963","30.694","0.4299","5"],
    [17319,"HCEP03730560","2024-03-26 18:00:00","9.6623","3.23167","27.478","4.234","7.48","0.445","4.564","0.04","0.24","29.4235","4.66165","44.93","0","SATNPRO1963","30.842000000000002","0.43198","5"],
    [17320,"HCEP03730560","2024-03-26 18:15:00","9.6619","3.23143","27.482","4.217","7.47","0.4","4.71","0.04","0.33","29.4215","4.66136","44.75","0","SATNPRO1963","30.942","0.43342","5"],
    [17321,"HCEP03730560","2024-03-26 18:30:00","9.6615","3.23113","27.451","4.204","7.47","0.44","4.415","0.02","0.21","29.4188","4.66098","44.61","0","SATNPRO1963","30.752","0.43074","5"],
    [17322,"HCEP03730560","2024-03-26 18:45:00","9.6666","3.23207","27.423","4.094","7.47","0.4","5.022","0.02","0.23","29.4242","4.66166","43.45","0","SATNPRO1963","30.39","0.42566","5"],
    [17323,"HCEP03730560","2024-03-26 19:00:00","9.6681","3.23219","27.404","4.008","7.46","0.482","4.865","0.14","0.26","29.4241","4.66162","42.54","0","SATNPRO1963","30.164","0.42248","5"],
    [17324,"HCEP03730560","2024-03-26 19:15:00","9.6678","3.23211","27.317","3.981","7.46","0.402","4.888","0.04","0.34","29.4236","4.66155","42.26","0","SATNPRO1963","30.074","0.42126","5"],
    [17325,"HCEP03730560","2024-03-26 19:30:00","9.6673","3.23191","27.241","3.988","7.46","0.439","4.877","0.02","0.47","29.422","4.66132","42.33","0","SATNPRO1963","30.328","0.42478","5"],
    [17326,"HCEP03730560","2024-03-26 19:45:00","9.6649","3.23149","27.148","4.022","7.46","0.421","4.76","0.08","0.34","29.4198","4.66104","42.69","0","SATNPRO1963","30.636","0.4291","5"],
    [17327,"HCEP03730560","2024-03-26 20:00:00","9.6644","3.23126","27.059","4.036","7.46","0.45","4.445","0.05","0.2","29.4178","4.66077","42.83","0","SATNPRO1963","30.518","0.42746","5"],
    [17328,"HCEP03730560","2024-03-26 20:15:00","9.6644","3.23105","26.944","4.036","7.46","0.397","4.826","0.02","0.24","29.4158","4.66047","42.83","0","SATNPRO1963","30.451999999999998","0.42652","5"],
    [17329,"HCEP03730560","2024-03-26 20:30:00","9.6646","3.23086","26.812","4.014","7.46","0.463","5.172","0.05","0.33","29.4138","4.66018","42.6","0","SATNPRO1963","30.534","0.42768","5"],
    [17330,"HCEP03730560","2024-03-26 20:45:00","9.6651","3.23073","26.709","3.998","7.46","0.386","4.92","0.02","0.21","29.4122","4.65993","42.43","0","SATNPRO1963","30.566","0.42816","5"],
    [17331,"HCEP03730560","2024-03-26 21:00:00","9.6656","3.23069","26.595","3.972","7.45","0.441","4.773","0.02","0.18","29.4113","4.65979","42.15","0","SATNPRO1963","30.464","0.42674","5"],
    [17332,"HCEP03730560","2024-03-26 21:15:00","9.6657","3.23065","26.474","3.945","7.45","0.39","4.861","0.02","0.27","29.4109","4.65973","41.87","0","SATNPRO1963","30.578","0.42832","5"],
    [17333,"HCEP03730560","2024-03-26 21:30:00","9.6658","3.23064","26.359","3.931","7.45","0.442","4.803","0.02","0.3","29.4108","4.65969","41.72","0","SATNPRO1963","30.382","0.42552","5"],
    [17334,"HCEP03730560","2024-03-26 21:45:00","9.6651","3.23054","26.195","3.927","7.45","0.414","5.172","0.06","0.32","29.4104","4.65964","41.68","0","SATNPRO1963","30.436","0.4263","5"],
    [17335,"HCEP03730560","2024-03-26 22:00:00","9.6647","3.23041","26.056","3.932","7.45","0.442","5.119","0.01","0.27","29.4095","4.65951","41.73","0","SATNPRO1963","30.426","0.42616","5"],
    [17336,"HCEP03730560","2024-03-26 22:15:00","9.6642","3.23023","25.973","3.922","7.45","0.389","4.677","0.03","0.2","29.4081","4.65932","41.62","0","SATNPRO1963","30.18","0.42274","5"],
    [17337,"HCEP03730560","2024-03-26 22:30:00","9.6636","3.23021","25.845","3.932","7.45","0.449","4.694","0.05","0.18","29.4084","4.65936","41.73","0","SATNPRO1963","30.422","0.4261","5"],
    [17338,"HCEP03730560","2024-03-26 22:45:00","9.6644","3.23046","25.731","3.935","7.45","0.392","4.916","0.03","0.18","29.4103","4.65962","41.76","0","SATNPRO1963","30.472","0.42682","5"],
    [17339,"HCEP03730560","2024-03-26 23:00:00","9.6641","3.23051","25.653","3.951","7.45","0.447","4.786","0.02","0.2","29.4111","4.65974","41.92","0","SATNPRO1963","30.456","0.4266","5"],
    [17340,"HCEP03730560","2024-03-26 23:15:00","9.6642","3.23064","25.588","3.969","7.45","0.386","4.635","0.02","0.22","29.4123","4.6599","42.12","0","SATNPRO1963","30.616","0.42882","5"],
    [17341,"HCEP03730560","2024-03-26 23:30:00","9.6648","3.2307","25.6","3.961","7.45","0.46","5.062","0.05","0.27","29.4124","4.65991","42.04","0","SATNPRO1963","30.42","0.4261","5"],
    [17342,"HCEP03730560","2024-03-26 23:45:00","9.6652","3.23064","25.667","3.946","7.45","0.408","5.149","0.03","0.27","29.4115","4.65977","41.88","0","SATNPRO1963","30.308","0.4245","5"],
    [17343,"HCEP03730560","2024-03-27 00:00:00","9.6654","3.23056","25.549","3.93","7.45","0.446","4.8","0.02","0.21","29.4106","4.65963","41.71","0","SATNPRO1963","30.474","0.42682","5"],
    [17344,"HCEP03730560","2024-03-27 00:15:00","9.6657","3.23047","25.591","3.914","7.45","0.412","5.011","0.06","0.39","29.4094","4.65946","41.54","0","SATNPRO1963","30.451999999999998","0.42656","5"],
    [17345,"HCEP03730560","2024-03-27 00:30:00","9.6657","3.23048","25.626","3.913","7.45","0.461","4.94","0.03","0.16","29.4095","4.65948","41.52","0","SATNPRO1963","30.658","0.42942","5"],
    [17346,"HCEP03730560","2024-03-27 00:45:00","9.6658","3.23049","25.765","3.911","7.45","0.4","4.864","0.02","0.18","29.4095","4.65948","41.5","0","SATNPRO1963","30.45","0.4265","5"],
    [17347,"HCEP03730560","2024-03-27 01:00:00","9.666","3.23044","25.789","3.901","7.45","0.459","4.88","0.03","0.19","29.4087","4.65937","41.4","0","SATNPRO1963","30.478","0.4269","5"],
    [17348,"HCEP03730560","2024-03-27 01:15:00","9.666","3.2303","25.872","3.883","7.45","0.43","4.663","0.13","0.16","29.4074","4.65918","41.21","0","SATNPRO1963","30.534","0.42768","5"],
    [17349,"HCEP03730560","2024-03-27 01:30:00","9.6653","3.22999","26.032","3.869","7.45","0.48","4.262","0.09","0.23","29.4048","4.65883","41.06","0","SATNPRO1963","30.21","0.42314","5"],
    [17350,"HCEP03730560","2024-03-27 01:45:00","9.6655","3.22989","26.159","3.861","7.45","0.438","4.293","0.1","0.25","29.4036","4.65866","40.98","0","SATNPRO1963","30.490000000000002","0.42708","5"],
    [17351,"HCEP03730560","2024-03-27 02:00:00","9.6657","3.23004","26.293","3.858","7.45","0.462","4.103","0.03","0.16","29.4048","4.65883","40.95","0","SATNPRO1963","30.43","0.42624","5"],
    [17352,"HCEP03730560","2024-03-27 02:15:00","9.6656","3.23002","26.365","3.865","7.45","0.416","3.995","0.1","0.17","29.4047","4.65883","41.01","0","SATNPRO1963","30.288","0.4242","5"],
    [17353,"HCEP03730560","2024-03-27 02:30:00","9.6658","3.23014","26.494","3.871","7.45","0.466","3.908","0.03","0.13","29.4056","4.65896","41.08","0","SATNPRO1963","30.400000000000002","0.4258","5"],
    [17354,"HCEP03730560","2024-03-27 02:45:00","9.6657","3.23017","26.625","3.879","7.45","0.409","3.926","0.03","0.12","29.406","4.65902","41.17","0","SATNPRO1963","30.509999999999998","0.42734","5"],
    [17355,"HCEP03730560","2024-03-27 03:00:00","9.6665","3.23049","26.739","3.876","7.45","0.473","5.228","0.04","0.32","29.4085","4.65938","41.14","0","SATNPRO1963","30.512","0.42732","5"],
    [17356,"HCEP03730560","2024-03-27 03:15:00","9.6662","3.23061","26.935","3.891","7.45","0.417","4.442","0.03","0.22","29.4099","4.65959","41.29","0","SATNPRO1963","30.364","0.4253","5"],
    [17357,"HCEP03730560","2024-03-27 03:30:00","9.6658","3.23067","27.032","3.904","7.45","0.48","4.467","0.04","0.21","29.4107","4.65973","41.43","0","SATNPRO1963","30.472","0.42684","5"],
    [17358,"HCEP03730560","2024-03-27 03:45:00","9.6656","3.2307","27.183","3.912","7.45","0.45","4.493","0.1","0.2","29.4112","4.65981","41.52","0","SATNPRO1963","30.71","0.43016","5"],
    [17359,"HCEP03730560","2024-03-27 04:00:00","9.665","3.2307","27.294","3.931","7.45","0.492","4.149","0.06","0.15","29.4116","4.65988","41.72","0","SATNPRO1963","30.396","0.42574","5"],
    [17360,"HCEP03730560","2024-03-27 04:15:00","9.6642","3.23083","27.422","3.966","7.45","0.425","4.302","0.02","0.12","29.4135","4.66018","42.09","0","SATNPRO1963","30.472","0.4268","5"],
    [17361,"HCEP03730560","2024-03-27 04:30:00","9.6636","3.23088","27.52","4.003","7.45","0.497","4.429","0.03","0.18","29.4145","4.66033","42.48","0","SATNPRO1963","30.496","0.42718","5"],
    [17362,"HCEP03730560","2024-03-27 04:45:00","9.6621","3.23075","27.606","4.043","7.46","0.435","4.216","0.02","0.19","29.4144","4.66035","42.9","0","SATNPRO1963","30.684","0.42974","5"],
    [17363,"HCEP03730560","2024-03-27 05:00:00","9.6617","3.23072","27.692","4.067","7.46","0.503","4.187","0.07","0.15","29.4144","4.66037","43.16","0","SATNPRO1963","30.558","0.42802","5"],
    [17364,"HCEP03730560","2024-03-27 05:15:00","9.6609","3.23066","27.682","4.071","7.46","0.438","4.915","0.04","0.15","29.4144","4.66038","43.2","0","SATNPRO1963","30.582","0.42836","5"],
    [17365,"HCEP03730560","2024-03-27 05:30:00","9.6595","3.23038","27.747","4.077","7.46","0.476","4.704","0.01","0.2","29.4127","4.66017","43.26","0","SATNPRO1963","30.59","0.4285","5"],
    [17366,"HCEP03730560","2024-03-27 05:45:00","9.6578","3.23004","27.694","4.105","7.46","0.441","4.575","0.04","0.17","29.4107","4.6599","43.56","0","SATNPRO1963","30.656000000000002","0.42936","5"],
    [17367,"HCEP03730560","2024-03-27 06:00:00","9.6548","3.22938","27.661","4.148","7.46","0.488","4.538","0.02","0.15","29.4066","4.65936","44.01","0","SATNPRO1963","30.708","0.43016","5"],
    [17368,"HCEP03730560","2024-03-27 06:15:00","9.6538","3.22916","27.674","4.183","7.47","0.438","4.689","0.03","0.12","29.4051","4.65917","44.38","0","SATNPRO1963","30.866","0.4323","5"],
    [17369,"HCEP03730560","2024-03-27 06:30:00","9.6516","3.22858","27.702","4.21","7.47","0.493","4.485","0.08","0.13","29.401","4.65862","44.66","0","SATNPRO1963","30.91","0.43294","5"],
    [17370,"HCEP03730560","2024-03-27 06:45:00","9.6506","3.22845","27.579","4.245","7.47","0.429","4.377","0.03","0.18","29.4006","4.65858","45.04","0","SATNPRO1963","30.888","0.43262","5"],
    [17371,"HCEP03730560","2024-03-27 07:00:00","9.6513","3.22866","27.448","4.249","7.47","0.479","3.856","0.03","0.09","29.4023","4.65879","45.08","0","SATNPRO1963","30.88","0.43254","5"],
    [17372,"HCEP03730560","2024-03-27 07:15:00","9.6529","3.22895","27.348","4.222","7.47","0.803","5.603","0.8","2.4","29.4039","4.659","44.79","0","SATNPRO1963","30.932000000000002","0.43322","5"],
    [17373,"HCEP03730560","2024-03-27 07:30:00","9.6529","3.2289","27.221","4.21","7.47","0.48","4.11","0.03","0.23","29.4034","4.65892","44.66","0","SATNPRO1963","30.788","0.43124","5"],
    [17374,"HCEP03730560","2024-03-27 07:45:00","9.6525","3.22876","27.096","4.209","7.47","0.434","4.62","0.02","0.2","29.4024","4.65877","44.66","0","SATNPRO1963","30.822","0.4317","5"],
    [17375,"HCEP03730560","2024-03-27 08:00:00","9.652","3.22854","26.925","4.21","7.47","0.501","4.717","0.05","0.27","29.4007","4.65852","44.67","0","SATNPRO1963","30.768","0.43094","5"],
    [17376,"HCEP03730560","2024-03-27 08:15:00","9.6515","3.22833","26.848","4.218","7.47","0.442","4.808","0.02","0.18","29.399","4.65829","44.75","0","SATNPRO1963","30.802","0.4314","5"],
    [17377,"HCEP03730560","2024-03-27 08:30:00","9.6505","3.22798","26.632","4.242","7.47","0.491","4.087","0.03","0.18","29.3963","4.65791","45","0","SATNPRO1963","31.142","0.43618","5"],
    [17378,"HCEP03730560","2024-03-27 08:45:00","9.6519","3.22765","26.467","4.192","7.47","0.463","4.127","0.11","0.16","29.392","4.65725","44.47","0","SATNPRO1963","30.848","0.43208","5"],
    [17379,"HCEP03730560","2024-03-27 09:00:00","9.6544","3.22761","26.314","4.097","7.46","0.488","4.123","0.02","0.14","29.3895","4.65685","43.46","0","SATNPRO1963","30.802","0.4314","5"],
    [17380,"HCEP03730560","2024-03-27 09:15:00","9.6556","3.22761","26.178","4.03","7.46","0.436","4.031","0.03","0.15","29.3887","4.6567","42.76","0","SATNPRO1963","30.57","0.42818","5"],
    [17381,"HCEP03730560","2024-03-27 09:30:00","9.6556","3.22729","25.926","3.999","7.46","0.479","4.011","0.04","0.1","29.3855","4.65623","42.43","0","SATNPRO1963","30.5","0.42722","5"],
    [17382,"HCEP03730560","2024-03-27 09:45:00","9.6551","3.22717","25.735","3.995","7.45","0.432","4.306","0.02","0.15","29.3848","4.65613","42.38","0","SATNPRO1963","30.778","0.43112","5"],
    [17383,"HCEP03730560","2024-03-27 10:00:00","9.6561","3.22741","25.568","3.978","7.45","0.472","4.707","0.01","0.16","29.3865","4.65634","42.2","0","SATNPRO1963","30.592000000000002","0.42846","5"],
    [17384,"HCEP03730560","2024-03-27 10:15:00","9.6572","3.22795","25.32","3.975","7.45","0.424","4.619","0.02","0.15","29.3911","4.65697","42.17","0","SATNPRO1963","30.372","0.42544","5"],
    [17385,"HCEP03730560","2024-03-27 10:30:00","9.6574","3.22776","25.167","3.951","7.45","0.49","4.434","0.04","0.16","29.389","4.65666","41.91","0","SATNPRO1963","30.684","0.42976","5"],
    [17386,"HCEP03730560","2024-03-27 10:45:00","9.6563","3.22717","25.057","3.932","7.45","0.43","4.668","0.02","0.26","29.384","4.65596","41.72","0","SATNPRO1963","30.458","0.42662","5"],
    [17387,"HCEP03730560","2024-03-27 11:00:00","9.6559","3.22679","25.012","3.917","7.45","0.472","4.449","0.02","0.15","29.3806","4.65547","41.55","0","SATNPRO1963","30.381999999999998","0.42556","5"],
    [17388,"HCEP03730560","2024-03-27 11:15:00","9.6553","3.22621","24.992","3.903","7.44","0.427","4.47","0.03","0.2","29.3752","4.65471","41.41","0","SATNPRO1963","30.562","0.42808","5"],
    [17389,"HCEP03730560","2024-03-27 11:30:00","9.6546","3.22598","24.877","3.892","7.44","0.486","4.744","0.01","0.19","29.3735","4.65447","41.28","0","SATNPRO1963","30.382","0.42556","5"],
    [17390,"HCEP03730560","2024-03-27 11:45:00","9.6546","3.22587","24.874","3.886","7.44","0.439","4.713","0.03","0.23","29.3725","4.65432","41.22","0","SATNPRO1963","30.606","0.42864","5"],
    [17391,"HCEP03730560","2024-03-27 12:00:00","9.6549","3.22585","24.841","3.878","7.44","0.495","4.826","0.02","0.26","29.372","4.65425","41.14","0","SATNPRO1963","30.419999999999998","0.42608","5"],
    [17392,"HCEP03730560","2024-03-27 12:15:00","9.6556","3.22613","24.889","3.869","7.44","0.439","4.957","0.02","0.2","29.3743","4.65456","41.04","0","SATNPRO1963","30.488","0.427","5"],
    [17393,"HCEP03730560","2024-03-27 12:30:00","9.6578","3.22702","24.906","3.842","7.44","0.489","4.9","0.02","0.17","29.3814","4.65554","40.76","0","SATNPRO1963","30.496","0.42714","5"],
    [17394,"HCEP03730560","2024-03-27 12:45:00","9.658","3.22699","25.087","3.842","7.44","0.425","4.377","0.02","0.11","29.3809","4.65548","40.76","0","SATNPRO1963","30.29","0.4243","5"],
    [17395,"HCEP03730560","2024-03-27 13:00:00","9.6583","3.22693","25.025","3.838","7.44","0.49","4.284","0.02","0.14","29.3801","4.65535","40.72","0","SATNPRO1963","30.598","0.42858","5"],
    [17396,"HCEP03730560","2024-03-27 13:15:00","9.6559","3.22628","25.176","3.858","7.44","0.435","3.993","0.05","0.14","29.3754","4.65474","40.92","0","SATNPRO1963","30.51","0.4273","5"],
    [17397,"HCEP03730560","2024-03-27 13:30:00","9.654","3.22578","25.33","3.885","7.44","0.484","3.905","0.03","0.13","29.3719","4.65427","41.21","0","SATNPRO1963","30.536","0.42774","5"],
    [17398,"HCEP03730560","2024-03-27 13:45:00","9.6532","3.22551","25.4","3.905","7.45","0.434","4.404","0.01","0.27","29.3697","4.65398","41.43","0","SATNPRO1963","30.548","0.42786","5"],
    [17399,"HCEP03730560","2024-03-27 14:00:00","9.6552","3.22628","25.445","3.879","7.45","0.48","4.166","0.02","0.14","29.3759","4.65484","41.15","0","SATNPRO1963","30.602","0.4286","5"],
    [17400,"HCEP03730560","2024-03-27 14:15:00","9.6541","3.2258","25.624","3.902","7.45","0.432","4.164","0.03","0.13","29.3719","4.65429","41.39","0","SATNPRO1963","30.552","0.42796","5"],
    [17401,"HCEP03730560","2024-03-27 14:30:00","9.654","3.22581","25.781","3.904","7.45","0.488","4.447","0.02","0.13","29.3719","4.65431","41.41","0","SATNPRO1963","30.482","0.42696","5"],
    [17402,"HCEP03730560","2024-03-27 14:45:00","9.6537","3.22574","25.917","3.904","7.45","0.422","3.877","0.01","0.12","29.3714","4.65425","41.42","0","SATNPRO1963","30.556","0.42802","5"],
    [17403,"HCEP03730560","2024-03-27 15:00:00","9.6554","3.22605","26.054","3.867","7.45","0.481","4.04","0.02","0.1","29.3731","4.65447","41.02","0","SATNPRO1963","30.368","0.42536","5"],
    [17404,"HCEP03730560","2024-03-27 15:15:00","9.6568","3.22625","26.138","3.79","7.44","0.441","5.273","0.02","0.21","29.374","4.65457","40.2","0","SATNPRO1963","30.336","0.4249","5"],
    [17405,"HCEP03730560","2024-03-27 15:30:00","9.6584","3.22654","26.284","3.781","7.44","0.491","4.686","0.02","0.35","29.3755","4.65477","40.11","0","SATNPRO1963","30.334","0.42484","5"],
    [17406,"HCEP03730560","2024-03-27 15:45:00","9.6577","3.22635","26.477","3.751","7.44","0.447","5.073","0.02","0.21","29.3741","4.65459","39.8","0","SATNPRO1963","30.285999999999998","0.42418","5"],
    [17407,"HCEP03730560","2024-03-27 16:00:00","9.6584","3.22651","26.644","3.751","7.44","0.506","4.824","0.02","0.15","29.375","4.65473","39.8","0","SATNPRO1963","30.21","0.42312","5"],
    [17408,"HCEP03730560","2024-03-27 16:15:00","9.658","3.22647","26.784","3.757","7.44","0.436","4.314","0.03","0.17","29.3749","4.65472","39.85","0","SATNPRO1963","30.258","0.42382","5"],
    [17409,"HCEP03730560","2024-03-27 16:30:00","9.6587","3.22661","26.953","3.744","7.44","0.494","4.501","0.02","0.15","29.3758","4.65484","39.72","0","SATNPRO1963","30.292","0.42428","5"],
    [17410,"HCEP03730560","2024-03-27 16:45:00","9.6595","3.22677","27.105","3.725","7.44","0.443","4.719","0.02","0.18","29.3766","4.65496","39.51","0","SATNPRO1963","30.364","0.42532","5"],
    [17411,"HCEP03730560","2024-03-27 17:00:00","9.6599","3.22686","27.237","3.708","7.44","0.511","4.457","0.03","0.16","29.3771","4.65503","39.34","0","SATNPRO1963","30.272","0.42402","5"],
    [17412,"HCEP03730560","2024-03-27 17:15:00","9.6596","3.22675","27.359","3.699","7.43","0.451","4.448","0.03","0.19","29.3762","4.65491","39.24","0","SATNPRO1963","30.29","0.42424","5"],
    [17413,"HCEP03730560","2024-03-27 17:30:00","9.6599","3.22667","27.47","3.686","7.43","0.528","4.776","0.06","0.19","29.3752","4.65477","39.11","0","SATNPRO1963","30.26","0.42382","5"],
    [17414,"HCEP03730560","2024-03-27 17:45:00","9.6601","3.22669","27.555","3.678","7.43","0.459","4.545","0.04","0.16","29.3752","4.65477","39.02","0","SATNPRO1963","30.034000000000002","0.42072","5"],
    [17415,"HCEP03730560","2024-03-27 18:00:00","9.6596","3.22662","27.608","3.674","7.43","0.499","4.419","0.02","0.21","29.3748","4.65472","38.98","0","SATNPRO1963","30.080000000000002","0.4213","5"],
    [17416,"HCEP03730560","2024-03-27 18:15:00","9.6596","3.22659","27.652","3.68","7.43","0.459","4.262","0.08","0.24","29.3745","4.65469","39.04","0","SATNPRO1963","30.21","0.4231","5"],
    [17417,"HCEP03730560","2024-03-27 18:30:00","9.6595","3.22659","27.638","3.683","7.43","0.494","4.34","0.02","0.22","29.3746","4.6547","39.07","0","SATNPRO1963","30","0.4202","5"],
    [17418,"HCEP03730560","2024-03-27 18:45:00","9.6593","3.22655","27.681","3.687","7.43","0.46","4.38","0.06","0.33","29.3743","4.65467","39.12","0","SATNPRO1963","30.206","0.42306","5"],
    [17419,"HCEP03730560","2024-03-27 19:00:00","9.6595","3.22663","27.715","3.69","7.43","0.495","4.189","0.03","0.14","29.375","4.65476","39.15","0","SATNPRO1963","30.194","0.42294","5"],
    [17420,"HCEP03730560","2024-03-27 19:15:00","9.6595","3.22669","27.617","3.69","7.43","0.446","4.455","0.02","0.16","29.3756","4.65485","39.15","0","SATNPRO1963","30.222","0.4233","5"],
    [17421,"HCEP03730560","2024-03-27 19:30:00","9.6596","3.22675","27.564","3.699","7.43","0.518","5.029","0.03","0.18","29.3761","4.65491","39.24","0","SATNPRO1963","30.208","0.42312","5"],
    [17422,"HCEP03730560","2024-03-27 19:45:00","9.659","3.22665","27.458","3.721","7.43","0.444","4.587","0.02","0.15","29.3757","4.65486","39.48","0","SATNPRO1963","30.316","0.4246","5"],
    [17423,"HCEP03730560","2024-03-27 20:00:00","9.6575","3.22648","27.339","3.744","7.44","0.502","4.241","0.03","0.22","29.3752","4.6548","39.71","0","SATNPRO1963","30.268","0.42396","5"],
    [17424,"HCEP03730560","2024-03-27 20:15:00","9.6571","3.22641","27.335","3.754","7.44","0.458","5.134","0.02","0.17","29.3748","4.65476","39.83","0","SATNPRO1963","30.278","0.42408","5"],
    [17425,"HCEP03730560","2024-03-27 20:30:00","9.6544","3.22576","27.26","3.814","7.44","0.521","4.33","0.06","0.14","29.3705","4.65417","40.45","0","SATNPRO1963","30.44","0.42636","5"],
    [17426,"HCEP03730560","2024-03-27 20:45:00","9.6449","3.22302","27.175","3.952","7.44","0.449","3.599","0.02","0.1","29.3507","4.65151","41.91","0","SATNPRO1963","30.82","0.43168","5"],
    [17427,"HCEP03730560","2024-03-27 21:00:00","9.6341","3.22033","27.06","4.138","7.45","0.5","3.763","0.02","0.09","29.3325","4.64908","43.87","0","SATNPRO1963","30.78","0.43108","5"],
    [17428,"HCEP03730560","2024-03-27 21:15:00","9.6424","3.2232","26.991","4.088","7.46","0.445","3.756","0.04","0.09","29.3546","4.6521","43.35","0","SATNPRO1963","30.582","0.42836","5"],
    [17429,"HCEP03730560","2024-03-27 21:30:00","9.653","3.22543","26.934","3.862","7.45","0.51","4.751","0.02","0.08","29.3685","4.65389","40.96","0","SATNPRO1963","30.276","0.42406","5"],
    [17430,"HCEP03730560","2024-03-27 21:45:00","9.6523","3.22526","26.778","3.848","7.44","0.456","4.887","0.02","0.14","29.3674","4.65374","40.81","0","SATNPRO1963","30.366","0.42534","5"],
    [17431,"HCEP03730560","2024-03-27 22:00:00","9.6473","3.22417","26.657","3.939","7.45","0.511","4.577","0.02","0.15","29.3605","4.65284","41.78","0","SATNPRO1963","30.664","0.42946","5"],
    [17432,"HCEP03730560","2024-03-27 22:15:00","9.6472","3.22409","26.508","3.942","7.45","0.466","5.113","0.02","0.11","29.36","4.65275","41.81","0","SATNPRO1963","30.560000000000002","0.42802","5"],
    [17433,"HCEP03730560","2024-03-27 22:30:00","9.6442","3.22333","26.427","3.993","7.45","0.526","4.995","0.03","0.13","29.3547","4.65205","42.34","0","SATNPRO1963","30.688","0.4299","5"],
    [17434,"HCEP03730560","2024-03-27 22:45:00","9.6475","3.22417","26.292","3.944","7.45","0.466","5.165","0.02","0.13","29.3605","4.65282","41.82","0","SATNPRO1963","30.598","0.4286","5"],
    [17435,"HCEP03730560","2024-03-27 23:00:00","9.6471","3.22408","26.185","3.935","7.45","0.517","5.022","0.02","0.09","29.36","4.65275","41.73","0","SATNPRO1963","30.554000000000002","0.42794","5"],
    [17436,"HCEP03730560","2024-03-27 23:15:00","9.6478","3.22428","26.065","3.919","7.45","0.481","5.221","0.04","0.14","29.3615","4.65294","41.56","0","SATNPRO1963","30.442","0.42642","5"],
    [17437,"HCEP03730560","2024-03-27 23:30:00","9.6497","3.22467","25.98","3.88","7.44","0.535","5.543","0.02","0.19","29.3639","4.65324","41.15","0","SATNPRO1963","30.406","0.42588","5"],
    [17438,"HCEP03730560","2024-03-27 23:45:00","9.6452","3.22357","25.88","3.936","7.44","0.475","5.519","0.01","0.15","29.3565","4.65226","41.74","0","SATNPRO1963","30.65","0.42926","5"],
    [17439,"HCEP03730560","2024-03-28 00:00:00","9.6392","3.22222","25.821","4.076","7.45","0.532","5.169","0.03","0.16","29.3479","4.65112","43.21","0","SATNPRO1963","30.75","0.4307","5"],
    [17440,"HCEP03730560","2024-03-28 00:15:00","9.6368","3.22195","25.836","4.178","7.46","0.482","5.34","0.02","0.12","29.3471","4.65105","44.29","0","SATNPRO1963","30.918","0.43304","5"],
    [17441,"HCEP03730560","2024-03-28 00:30:00","9.6355","3.22175","25.811","4.24","7.46","0.55","5.18","0.05","0.15","29.3461","4.65093","44.95","0","SATNPRO1963","30.942","0.4334","5"],
    [17442,"HCEP03730560","2024-03-28 00:45:00","9.6333","3.22139","25.871","4.303","7.47","0.501","5.173","0.06","0.23","29.3443","4.65071","45.62","0","SATNPRO1963","31.108","0.4357","5"],
    [17443,"HCEP03730560","2024-03-28 01:00:00","9.6316","3.22105","25.912","4.355","7.47","0.535","4.944","0.02","0.15","29.3422","4.65045","46.16","0","SATNPRO1963","31.312","0.43858","5"],
    [17444,"HCEP03730560","2024-03-28 01:15:00","9.6276","3.22023","25.956","4.475","7.48","0.479","4.937","0.04","0.17","29.3372","4.64981","47.43","0","SATNPRO1963","31.524","0.44154","5"],
    [17445,"HCEP03730560","2024-03-28 01:30:00","9.6232","3.21937","26.044","4.628","7.49","0.541","4.44","0.03","0.21","29.3321","4.64916","49.05","0","SATNPRO1963","31.788","0.44522","5"],
    [17446,"HCEP03730560","2024-03-28 01:45:00","9.6198","3.21849","26.165","4.719","7.5","0.497","4.624","0.03","0.14","29.3259","4.64834","50","0","SATNPRO1963","31.858","0.44626","5"],
    [17447,"HCEP03730560","2024-03-28 02:00:00","9.6174","3.21784","26.266","4.779","7.51","0.554","4.319","0.03","0.12","29.3213","4.64772","50.64","0","SATNPRO1963","31.994","0.44812","5"],
    [17448,"HCEP03730560","2024-03-28 02:15:00","9.6174","3.21779","26.497","4.789","7.51","0.502","4.782","0.05","0.77","29.3207","4.64765","50.74","0","SATNPRO1963","32.022","0.44854","5"],
    [17449,"HCEP03730560","2024-03-28 02:30:00","9.6173","3.21767","26.496","4.789","7.51","0.542","3.955","0.03","0.13","29.3196","4.6475","50.75","0","SATNPRO1963","32.074","0.44924","5"],
    [17450,"HCEP03730560","2024-03-28 02:45:00","9.618","3.21786","26.629","4.783","7.51","0.494","4.641","0.04","0.13","29.3209","4.64767","50.68","0","SATNPRO1963","31.906000000000002","0.4469","5"],
    [17451,"HCEP03730560","2024-03-28 03:00:00","9.6182","3.218","26.684","4.777","7.51","0.549","4.43","0.04","0.19","29.322","4.64784","50.62","0","SATNPRO1963","31.951999999999998","0.44752","5"],
    [17452,"HCEP03730560","2024-03-28 03:15:00","9.6175","3.21769","26.806","4.785","7.51","0.494","3.904","0.05","0.16","29.3195","4.64749","50.7","0","SATNPRO1963","32.01","0.4483","5"],
    [17453,"HCEP03730560","2024-03-28 03:30:00","9.6174","3.21765","26.938","4.791","7.51","0.532","3.523","0.03","0.14","29.3191","4.64745","50.76","0","SATNPRO1963","31.928","0.44722","5"],
    [17454,"HCEP03730560","2024-03-28 03:45:00","9.6179","3.21772","27.019","4.782","7.51","0.463","3.465","0.03","0.27","29.3193","4.64747","50.67","0","SATNPRO1963","32.158","0.45044","5"],
    [17455,"HCEP03730560","2024-03-28 04:00:00","9.6185","3.21788","27.195","4.772","7.51","0.53","3.803","0.02","0.21","29.3204","4.64763","50.56","0","SATNPRO1963","32.234","0.4515","5"],
    [17456,"HCEP03730560","2024-03-28 04:15:00","9.6195","3.21733","27.219","4.702","7.51","0.499","3.442","0.07","0.3","29.314","4.6467","49.82","0","SATNPRO1963","32.07","0.4492","5"],
    [17457,"HCEP03730560","2024-03-28 04:30:00","9.62","3.21794","27.272","4.67","7.51","0.559","4.703","0.04","0.22","29.3198","4.64752","49.48","0","SATNPRO1963","31.884","0.4466","5"],
    [17458,"HCEP03730560","2024-03-28 04:45:00","9.6196","3.21759","27.411","4.65","7.5","0.504","4.764","0.1","0.21","29.3165","4.64706","49.27","0","SATNPRO1963","31.788","0.44528","5"],
    [17459,"HCEP03730560","2024-03-28 05:00:00","9.6174","3.21649","27.451","4.633","7.5","0.541","3.959","0.02","0.25","29.3072","4.64577","49.08","0","SATNPRO1963","31.866","0.44634","5"],
    [17460,"HCEP03730560","2024-03-28 05:15:00","9.617","3.21539","27.506","4.579","7.5","0.506","4.468","0.04","0.18","29.2963","4.64423","48.51","0","SATNPRO1963","31.854","0.44616","5"],
    [17461,"HCEP03730560","2024-03-28 05:30:00","9.6193","3.21596","27.612","4.483","7.49","0.577","4.328","0.08","0.19","29.3002","4.64474","47.49","0","SATNPRO1963","31.834","0.4459","5"],
    [17462,"HCEP03730560","2024-03-28 05:45:00","9.6215","3.21606","27.632","4.422","7.49","0.488","4.292","0.04","0.12","29.2994","4.6446","46.85","0","SATNPRO1963","31.458","0.44066","5"],
    [17463,"HCEP03730560","2024-03-28 06:00:00","9.623","3.21653","27.696","4.381","7.48","0.568","4.528","0.03","0.17","29.3029","4.64507","46.42","0","SATNPRO1963","31.496","0.44116","5"],
    [17464,"HCEP03730560","2024-03-28 06:15:00","9.6244","3.21728","27.625","4.36","7.48","0.512","4.917","0.03","0.17","29.3094","4.64597","46.2","0","SATNPRO1963","31.264","0.4379","5"],
    [17465,"HCEP03730560","2024-03-28 06:30:00","9.6327","3.21974","27.648","4.233","7.48","0.593","5.831","0.12","0.23","29.3274","4.64841","44.86","0","SATNPRO1963","31.094","0.43552","5"],
    [17466,"HCEP03730560","2024-03-28 06:45:00","9.6358","3.22004","27.651","4.073","7.47","0.505","5.921","0.02","0.27","29.3279","4.64843","43.18","0","SATNPRO1963","30.888","0.43264","5"],
    [17467,"HCEP03730560","2024-03-28 07:00:00","9.6353","3.21889","27.535","3.998","7.46","0.588","6.539","0.03","0.25","29.3168","4.64683","42.38","0","SATNPRO1963","30.718","0.43028","5"],
    [17468,"HCEP03730560","2024-03-28 07:15:00","9.6319","3.21643","27.423","3.925","7.45","0.533","6.869","0.04","0.3","29.2948","4.64374","41.59","0","SATNPRO1963","30.424","0.42614","5"],
    [17469,"HCEP03730560","2024-03-28 07:30:00","9.629","3.21469","27.44","3.918","7.45","0.613","7.275","0.02","0.41","29.2796","4.64161","41.51","0","SATNPRO1963","30.578","0.4283","5"],
    [17470,"HCEP03730560","2024-03-28 07:45:00","9.6233","3.2125","27.318","3.98","7.45","0.58","8.042","0.02","0.31","29.2623","4.63922","42.16","0","SATNPRO1963","30.526","0.42756","5"],
    [17471,"HCEP03730560","2024-03-28 08:00:00","9.6215","3.21068","27.194","3.92","7.45","0.64","7.287","0.03","0.33","29.2454","4.63683","41.51","0","SATNPRO1963","30.32","0.42466","5"],
    [17472,"HCEP03730560","2024-03-28 08:15:00","9.625","3.21135","27.075","3.81","7.44","0.59","8.003","0.03","0.35","29.2494","4.63734","40.36","0","SATNPRO1963","30.228","0.42338","5"],
    [17473,"HCEP03730560","2024-03-28 08:30:00","9.6265","3.21214","26.819","3.807","7.44","0.65","7.399","0.03","0.27","29.2562","4.63827","40.32","0","SATNPRO1963","30.106","0.4217","5"],
    [17474,"HCEP03730560","2024-03-28 08:45:00","9.6274","3.2124","26.791","3.801","7.44","0.606","7.393","0.07","0.32","29.2581","4.63852","40.26","0","SATNPRO1963","29.938","0.41928","5"],
    [17475,"HCEP03730560","2024-03-28 09:00:00","9.6273","3.21225","26.607","3.788","7.44","0.662","7.099","0.03","0.33","29.2568","4.63833","40.13","0","SATNPRO1963","30.188","0.42282","5"],
    [17476,"HCEP03730560","2024-03-28 09:15:00","9.6273","3.21213","26.405","3.779","7.44","0.603","7.025","0.07","0.28","29.2555","4.63814","40.03","0","SATNPRO1963","30.182","0.42276","5"],
    [17477,"HCEP03730560","2024-03-28 09:30:00","9.627","3.21192","26.271","3.777","7.44","0.645","6.558","0.02","0.35","29.2538","4.63788","40.01","0","SATNPRO1963","29.968","0.41974","5"],
    [17478,"HCEP03730560","2024-03-28 09:45:00","9.6268","3.21171","26.004","3.775","7.43","0.599","6.522","0.03","0.79","29.2519","4.63761","39.99","0","SATNPRO1963","30.176","0.42266","5"],
    [17479,"HCEP03730560","2024-03-28 10:00:00","9.6262","3.21137","25.812","3.768","7.43","0.659","6.111","0.05","0.33","29.249","4.63719","39.92","0","SATNPRO1963","29.922","0.4191","5"],
    [17480,"HCEP03730560","2024-03-28 10:15:00","9.6254","3.2109","25.721","3.77","7.43","0.591","5.881","0.03","0.33","29.2451","4.63663","39.93","0","SATNPRO1963","29.966","0.41974","5"],
    [17481,"HCEP03730560","2024-03-28 10:30:00","9.6258","3.21108","25.414","3.762","7.43","0.638","5.8","0.04","0.33","29.2466","4.63683","39.85","0","SATNPRO1963","30.156","0.42238","5"],
    [17482,"HCEP03730560","2024-03-28 10:45:00","9.6235","3.2104","25.352","3.836","7.43","0.579","5.983","0.03","0.42","29.2417","4.63617","40.63","0","SATNPRO1963","30.166","0.42252","5"],
    [17483,"HCEP03730560","2024-03-28 11:00:00","9.622","3.21051","25.173","3.862","7.44","0.636","5.358","0.04","0.28","29.2441","4.63651","40.9","0","SATNPRO1963","30.128","0.42204","5"],
    [17484,"HCEP03730560","2024-03-28 11:15:00","9.6239","3.21116","25.085","3.857","7.44","0.604","5.535","0.14","0.24","29.2492","4.63721","40.85","0","SATNPRO1963","30.312","0.42454","5"],
    [17485,"HCEP03730560","2024-03-28 11:30:00","9.6241","3.21135","24.905","3.802","7.44","0.72","6.028","0.17","0.32","29.2509","4.63744","40.27","0","SATNPRO1963","30.064","0.42114","5"],
    [17486,"HCEP03730560","2024-03-28 11:45:00","9.6248","3.21184","24.905","3.827","7.43","0.851","7.294","0.45","1.63","29.2553","4.63806","40.54","0","SATNPRO1963","30.22","0.4233","5"],
    [17487,"HCEP03730560","2024-03-28 12:00:00","9.6245","3.21288","24.821","3.959","7.44","0.633","6.019","0.04","0.35","29.2661","4.6396","41.94","0","SATNPRO1963","30.428","0.42618","5"],
    [17488,"HCEP03730560","2024-03-28 12:15:00","9.6263","3.21439","24.911","3.973","7.44","0.582","6.217","0.05","0.31","29.2798","4.64154","42.09","0","SATNPRO1963","30.64","0.42914","5"],
    [17489,"HCEP03730560","2024-03-28 12:30:00","9.6242","3.21419","24.942","4.056","7.45","0.629","5.629","0.05","0.27","29.2795","4.64154","42.97","0","SATNPRO1963","30.75","0.4307","5"],
    [17490,"HCEP03730560","2024-03-28 12:45:00","9.6192","3.21299","24.966","4.175","7.45","0.558","5.095","0.04","0.27","29.2715","4.64048","44.23","0","SATNPRO1963","31.014","0.4344","5"],
    [17491,"HCEP03730560","2024-03-28 13:00:00","9.6214","3.21394","25.021","4.178","7.46","0.606","5.285","0.05","0.28","29.2792","4.64155","44.26","0","SATNPRO1963","30.954","0.43356","5"],
    [17492,"HCEP03730560","2024-03-28 13:15:00","9.6205","3.21377","25.01","4.201","7.46","0.544","5.276","0.03","0.28","29.2782","4.64142","44.5","0","SATNPRO1963","30.966","0.4337","5"],
    [17493,"HCEP03730560","2024-03-28 13:30:00","9.6168","3.21267","25.061","4.256","7.46","0.605","5.094","0.03","0.17","29.2701","4.64033","45.08","0","SATNPRO1963","31.064","0.43508","5"],
    [17494,"HCEP03730560","2024-03-28 13:45:00","9.6055","3.2089","25.104","4.469","7.47","0.579","5.008","0.05","0.19","29.2413","4.63641","47.32","0","SATNPRO1963","31.304000000000002","0.43844","5"],
    [17495,"HCEP03730560","2024-03-28 14:00:00","9.5896","3.20438","25.1","4.793","7.49","0.655","4.045","0.05","0.19","29.2087","4.632","50.72","0","SATNPRO1963","31.758","0.44484","5"],
    [17496,"HCEP03730560","2024-03-28 14:15:00","9.5818","3.20124","25.251","4.909","7.51","0.612","4.084","0.05","0.12","29.1833","4.62851","51.93","0","SATNPRO1963","31.804","0.44548","5"],
    [17497,"HCEP03730560","2024-03-28 14:30:00","9.5784","3.19977","25.399","4.984","7.52","0.667","4.03","0.05","0.18","29.1712","4.62684","52.71","0","SATNPRO1963","31.688","0.44384","5"],
    [17498,"HCEP03730560","2024-03-28 14:45:00","9.5654","3.19521","25.502","5.129","7.53","0.621","2.375","0.04","0.17","29.1356","4.62198","54.21","0","SATNPRO1963","31.856","0.44622","5"],
    [17499,"HCEP03730560","2024-03-28 15:00:00","9.5605","3.19021","25.674","5.244","7.54","0.723","2.247","0.07","0.09","29.089","4.61539","55.41","0","SATNPRO1963","31.732","0.4445","5"],
    [17500,"HCEP03730560","2024-03-28 15:15:00","9.5687","3.1928","25.817","5.159","7.54","0.646","3.093","0.05","0.24","29.1086","4.61806","54.53","0","SATNPRO1963","31.376","0.43948","5"],
    [17501,"HCEP03730560","2024-03-28 15:30:00","9.5666","3.18849","25.937","5.126","7.54","0.719","3.064","0.06","0.11","29.0667","4.6121","54.16","0","SATNPRO1963","31.412","0.43998","5"],
    [17502,"HCEP03730560","2024-03-28 15:45:00","9.5598","3.17855","26.005","5.257","7.54","0.705","2.567","0.06","0.17","28.972","4.59863","55.5","0","SATNPRO1963","31.272","0.43804","5"],
    [17503,"HCEP03730560","2024-03-28 16:00:00","9.5532","3.16373","26.138","5.388","7.55","0.804","1.958","0.07","0.09","28.8278","4.57806","56.82","0","SATNPRO1963","31.05","0.4349","5"],
    [17504,"HCEP03730560","2024-03-28 16:15:00","9.5555","3.16635","26.293","5.384","7.55","0.779","1.938","0.11","0.07","28.8523","4.58155","56.8","0","SATNPRO1963","30.758","0.4308","5"],
    [17505,"HCEP03730560","2024-03-28 16:30:00","9.5713","3.18646","26.526","5.07","7.54","0.819","5.61","0.07","0.17","29.0422","4.60854","53.57","0","SATNPRO1963","31.012","0.4344","5"],
    [17506,"HCEP03730560","2024-03-28 16:45:00","9.5703","3.18376","26.663","5.06","7.53","0.699","5.119","0.05","0.19","29.0158","4.60476","53.45","0","SATNPRO1963","30.884","0.43258","5"],
    [17507,"HCEP03730560","2024-03-28 17:00:00","9.5828","3.1989","26.83","4.88","7.53","0.711","5.296","0.03","0.22","29.1582","4.62498","51.62","0","SATNPRO1963","31.482","0.44096","5"],
    [17508,"HCEP03730560","2024-03-28 17:15:00","9.5974","3.20524","27.032","4.644","7.51","0.629","5.216","0.05","0.15","29.2102","4.6322","49.15","0","SATNPRO1963","31.124","0.4359","5"],
    [17509,"HCEP03730560","2024-03-28 17:30:00","9.6016","3.20684","27.212","4.531","7.5","0.696","5.071","0.04","0.13","29.2228","4.63394","47.97","0","SATNPRO1963","31.2","0.437","5"],
    [17510,"HCEP03730560","2024-03-28 17:45:00","9.6057","3.20854","27.353","4.456","7.49","0.672","5.891","0.12","0.26","29.2366","4.63586","47.17","0","SATNPRO1963","31.1","0.43562","5"],
    [17511,"HCEP03730560","2024-03-28 18:00:00","9.6106","3.21032","27.426","4.365","7.49","0.712","5.777","0.05","0.31","29.2506","4.63777","46.22","0","SATNPRO1963","31.208","0.4371","5"],
    [17512,"HCEP03730560","2024-03-28 18:15:00","9.6117","3.2105","27.648","4.332","7.48","0.675","6.223","0.04","0.21","29.2514","4.63789","45.88","0","SATNPRO1963","31.169999999999998","0.43654","5"],
    [17513,"HCEP03730560","2024-03-28 18:30:00","9.6121","3.21064","27.699","4.325","7.48","0.731","5.724","0.07","0.26","29.2524","4.63803","45.8","0","SATNPRO1963","31.116","0.43586","5"],
    [17514,"HCEP03730560","2024-03-28 18:45:00","9.6092","3.20989","27.76","4.378","7.48","0.696","5.667","0.16","0.35","29.2473","4.63735","46.35","0","SATNPRO1963","31.1","0.4356","5"],
    [17515,"HCEP03730560","2024-03-28 19:00:00","9.6084","3.20972","27.694","4.397","7.48","0.687","5.262","0.05","0.23","29.2461","4.63719","46.56","0","SATNPRO1963","31.176000000000002","0.4367","5"],
    [17516,"HCEP03730560","2024-03-28 19:15:00","9.6079","3.20965","27.682","4.412","7.48","0.629","5.369","0.05","0.21","29.2459","4.63716","46.72","0","SATNPRO1963","31.41","0.43996","5"],
    [17517,"HCEP03730560","2024-03-28 19:30:00","9.6101","3.21034","27.645","4.406","7.48","0.661","4.532","0.05","0.2","29.2511","4.63787","46.65","0","SATNPRO1963","31.198","0.43698","5"],
    [17518,"HCEP03730560","2024-03-28 19:45:00","9.6103","3.21067","27.607","4.404","7.48","0.578","4.158","0.05","0.18","29.2542","4.6383","46.64","0","SATNPRO1963","31.240000000000002","0.43754","5"],
    [17519,"HCEP03730560","2024-03-28 20:00:00","9.6098","3.21055","27.684","4.425","7.48","0.647","4.338","0.05","0.22","29.2534","4.63821","46.85","0","SATNPRO1963","31.486","0.441","5"],
    [17520,"HCEP03730560","2024-03-28 20:15:00","9.6053","3.20966","27.582","4.54","7.49","0.613","4.855","0.08","0.26","29.2481","4.63752","48.06","0","SATNPRO1963","31.462","0.4407","5"],
    [17521,"HCEP03730560","2024-03-28 20:30:00","9.5952","3.20488","27.55","4.686","7.5","0.593","2.595","0.04","0.48","29.2081","4.63197","49.59","0","SATNPRO1963","31.75","0.44468","5"],
    [17522,"HCEP03730560","2024-03-28 20:45:00","9.6028","3.21026","27.437","4.789","7.5","0.559","3.855","0.05","0.33","29.2562","4.63872","50.7","0","SATNPRO1963","31.878","0.4465","5"],
    [17523,"HCEP03730560","2024-03-28 21:00:00","9.5981","3.20843","27.352","4.854","7.51","0.623","3.795","0.08","0.18","29.2417","4.63671","51.38","0","SATNPRO1963","31.866","0.44632","5"],
    [17524,"HCEP03730560","2024-03-28 21:15:00","9.5943","3.20695","27.268","4.915","7.52","0.599","4.684","0.05","0.19","29.2299","4.63508","52.02","0","SATNPRO1963","31.712","0.4442","5"],
    [17525,"HCEP03730560","2024-03-28 21:30:00","9.5922","3.20597","27.322","4.954","7.52","0.663","4.806","0.03","0.16","29.2217","4.63395","52.42","0","SATNPRO1963","31.66","0.44348","5"],
    [17526,"HCEP03730560","2024-03-28 21:45:00","9.5927","3.20469","27.202","4.936","7.52","0.603","4.395","0.06","0.12","29.2084","4.63203","52.23","0","SATNPRO1963","31.676000000000002","0.44368","5"],
    [17527,"HCEP03730560","2024-03-28 22:00:00","9.6012","3.20278","27.092","4.644","7.51","0.617","3.08","0.06","0.13","29.1823","4.62814","49.14","0","SATNPRO1963","31.222","0.43732","5"],
    [17528,"HCEP03730560","2024-03-28 22:15:00","9.6014","3.20354","27.108","4.569","7.5","0.538","3.815","0.03","0.18","29.1898","4.62921","48.36","0","SATNPRO1963","31.316","0.43864","5"],
    [17529,"HCEP03730560","2024-03-28 22:30:00","9.6014","3.20524","26.974","4.638","7.5","0.614","4.045","0.03","0.17","29.207","4.63167","49.09","0","SATNPRO1963","31.52","0.4415","5"],
    [17530,"HCEP03730560","2024-03-28 22:45:00","9.6014","3.20567","26.898","4.668","7.5","0.539","3.884","0.03","0.13","29.2114","4.6323","49.41","0","SATNPRO1963","31.454","0.44056","5"],
    [17531,"HCEP03730560","2024-03-28 23:00:00","9.6042","3.20591","26.834","4.592","7.5","0.574","3.334","0.03","0.18","29.2115","4.63226","48.61","0","SATNPRO1963","31.168","0.43656","5"],
    [17532,"HCEP03730560","2024-03-28 23:15:00","9.6036","3.20603","26.662","4.597","7.5","0.524","3.238","0.04","0.15","29.2133","4.63252","48.65","0","SATNPRO1963","31.418","0.44004","5"],
    [17533,"HCEP03730560","2024-03-28 23:30:00","9.6037","3.20736","26.655","4.693","7.5","0.601","3.829","0.05","0.19","29.2266","4.63442","49.68","0","SATNPRO1963","31.272000000000002","0.43804","5"],
    [17534,"HCEP03730560","2024-03-28 23:45:00","9.6058","3.20683","26.484","4.601","7.5","0.524","3.81","0.03","0.15","29.2196","4.63337","48.7","0","SATNPRO1963","31.28","0.43814","5"],
    [17535,"HCEP03730560","2024-03-29 00:00:00","9.6056","3.20654","26.423","4.512","7.49","0.616","3.756","0.09","0.26","29.2169","4.63298","47.77","0","SATNPRO1963","31.112000000000002","0.43576","5"],
    [17536,"HCEP03730560","2024-03-29 00:15:00","9.6003","3.20652","26.306","4.667","7.5","0.546","3.878","0.04","0.12","29.221","4.63365","49.39","0","SATNPRO1963","31.492","0.4411","5"],
    [17537,"HCEP03730560","2024-03-29 00:30:00","9.5986","3.20806","26.31","4.901","7.51","0.594","3.85","0.03","0.13","29.238","4.63611","51.88","0","SATNPRO1963","31.936","0.4473","5"],
    [17538,"HCEP03730560","2024-03-29 00:45:00","9.6014","3.21046","26.306","4.987","7.52","0.506","3.524","0.03","0.1","29.2599","4.63921","52.8","0","SATNPRO1963","31.822","0.44574","5"],
    [17539,"HCEP03730560","2024-03-29 01:00:00","9.603","3.21214","26.268","5.038","7.52","0.589","3.957","0.05","0.18","29.2756","4.64143","53.34","0","SATNPRO1963","32.072","0.4492","5"],
    [17540,"HCEP03730560","2024-03-29 01:15:00","9.6031","3.21324","26.216","5.092","7.53","0.505","3.88","0.06","0.13","29.2866","4.643","53.93","0","SATNPRO1963","32.174","0.4506","5"],
    [17541,"HCEP03730560","2024-03-29 01:30:00","9.6037","3.21398","26.262","5.108","7.53","0.564","3.902","0.03","0.19","29.2935","4.64398","54.1","0","SATNPRO1963","32","0.44824","5"],
    [17542,"HCEP03730560","2024-03-29 01:45:00","9.6049","3.21474","26.393","5.105","7.54","0.519","3.926","0.1","0.12","29.3001","4.64491","54.06","0","SATNPRO1963","32.094","0.44956","5"],
    [17543,"HCEP03730560","2024-03-29 02:00:00","9.6043","3.2148","26.378","5.114","7.54","0.548","3.646","0.03","0.14","29.3013","4.64509","54.16","0","SATNPRO1963","31.924","0.44714","5"],
    [17544,"HCEP03730560","2024-03-29 02:15:00","9.6031","3.2143","26.451","5.132","7.54","0.517","3.853","0.13","0.19","29.2972","4.64453","54.35","0","SATNPRO1963","32.116","0.44984","5"],
    [17545,"HCEP03730560","2024-03-29 02:30:00","9.6022","3.2142","26.581","5.156","7.54","0.562","3.802","0.05","0.17","29.2968","4.64449","54.6","0","SATNPRO1963","32.008","0.44836","5"],
    [17546,"HCEP03730560","2024-03-29 02:45:00","9.6021","3.21405","26.615","5.151","7.54","0.498","3.956","0.02","0.16","29.2954","4.6443","54.55","0","SATNPRO1963","32.211999999999996","0.4512","5"],
    [17547,"HCEP03730560","2024-03-29 03:00:00","9.6017","3.21388","26.69","5.156","7.54","0.545","3.238","0.03","0.13","29.294","4.64411","54.61","0","SATNPRO1963","32.082","0.44936","5"],
    [17548,"HCEP03730560","2024-03-29 03:15:00","9.6014","3.21379","26.867","5.158","7.54","0.476","3.406","0.03","0.12","29.2933","4.64403","54.63","0","SATNPRO1963","32.194","0.45094","5"],
    [17549,"HCEP03730560","2024-03-29 03:30:00","9.6005","3.21339","26.957","5.176","7.54","0.599","3.257","0.17","0.18","29.2899","4.64356","54.81","0","SATNPRO1963","32.364","0.45332","5"],
    [17550,"HCEP03730560","2024-03-29 03:45:00","9.5999","3.21298","26.974","5.183","7.54","0.482","3.285","0.02","0.12","29.2862","4.64304","54.88","0","SATNPRO1963","32.286","0.45224","5"],
    [17551,"HCEP03730560","2024-03-29 04:00:00","9.5998","3.21261","27.032","5.183","7.54","0.566","3.271","0.09","0.15","29.2826","4.64252","54.88","0","SATNPRO1963","32.274","0.45206","5"],
    [17552,"HCEP03730560","2024-03-29 04:15:00","9.5994","3.21194","27.204","5.161","7.54","0.491","3.844","0.02","0.28","29.2761","4.64161","54.65","0","SATNPRO1963","32.076","0.44928","5"],
    [17553,"HCEP03730560","2024-03-29 04:30:00","9.5997","3.21175","27.184","5.135","7.54","0.567","3.522","0.02","0.13","29.2739","4.64129","54.37","0","SATNPRO1963","32.162","0.4505","5"],
    [17554,"HCEP03730560","2024-03-29 04:45:00","9.5992","3.21067","27.258","5.073","7.54","0.508","3.889","0.02","0.24","29.2634","4.6398","53.71","0","SATNPRO1963","32.236000000000004","0.45154","5"],
    [17555,"HCEP03730560","2024-03-29 05:00:00","9.5995","3.2098","27.334","4.998","7.53","0.59","4.392","0.02","0.17","29.2543","4.6385","52.92","0","SATNPRO1963","32.044","0.44886","5"],
    [17556,"HCEP03730560","2024-03-29 05:15:00","9.6028","3.20969","27.429","4.896","7.53","0.542","5.09","0.03","0.26","29.2505","4.6379","51.83","0","SATNPRO1963","31.598","0.4426","5"],
    [17557,"HCEP03730560","2024-03-29 05:30:00","9.6075","3.21041","27.476","4.734","7.51","0.62","5.497","0.04","0.22","29.2539","4.63831","50.13","0","SATNPRO1963","31.62","0.44288","5"],
    [17558,"HCEP03730560","2024-03-29 05:45:00","9.6115","3.21074","27.578","4.578","7.5","0.568","5.956","0.03","0.39","29.254","4.63825","48.48","0","SATNPRO1963","31.272","0.43802","5"],
    [17559,"HCEP03730560","2024-03-29 06:00:00","9.6135","3.21058","27.55","4.467","7.49","0.652","6.239","0.06","0.42","29.2507","4.63775","47.3","0","SATNPRO1963","31.358","0.43924","5"],
    [17560,"HCEP03730560","2024-03-29 06:15:00","9.6164","3.21131","27.615","4.35","7.48","0.587","7.092","0.03","0.75","29.2558","4.63843","46.07","0","SATNPRO1963","31.138","0.43612","5"],
    [17561,"HCEP03730560","2024-03-29 06:30:00","9.6153","3.21025","27.713","4.272","7.48","0.669","8.23","0.04","0.75","29.2459","4.63704","45.24","0","SATNPRO1963","31.236","0.43754","5"],
    [17562,"HCEP03730560","2024-03-29 06:45:00","9.6145","3.20853","27.667","4.238","7.47","0.624","8.483","0.04","0.87","29.2292","4.63466","44.88","0","SATNPRO1963","30.998","0.43418","5"],
    [17563,"HCEP03730560","2024-03-29 07:00:00","9.6117","3.20736","27.613","4.266","7.47","0.687","8.365","0.03","0.71","29.2197","4.63334","45.17","0","SATNPRO1963","30.932","0.43324","5"],
    [17564,"HCEP03730560","2024-03-29 07:15:00","9.6136","3.20818","27.556","4.232","7.47","0.655","8.388","0.13","0.65","29.2265","4.63427","44.81","0","SATNPRO1963","31.066","0.43512","5"],
    [17565,"HCEP03730560","2024-03-29 07:30:00","9.6153","3.20884","27.607","4.194","7.47","0.701","8.826","0.03","0.45","29.2317","4.635","44.41","0","SATNPRO1963","30.89","0.43266","5"],
    [17566,"HCEP03730560","2024-03-29 07:45:00","9.6146","3.20821","27.601","4.197","7.47","0.651","10.384","0.04","0.76","29.2259","4.63417","44.43","0","SATNPRO1963","31.046","0.43488","5"],
    [17567,"HCEP03730560","2024-03-29 08:00:00","9.613","3.20729","27.647","4.235","7.47","0.709","10.482","0.03","0.52","29.218","4.63308","44.84","0","SATNPRO1963","31.102","0.43568","5"],
    [17568,"HCEP03730560","2024-03-29 08:15:00","9.6074","3.20563","27.591","4.333","7.47","0.685","11.808","0.02","0.7","29.2058","4.63142","45.87","0","SATNPRO1963","31.078","0.43526","5"],
    [17569,"HCEP03730560","2024-03-29 08:30:00","9.6059","3.20475","27.515","4.355","7.47","0.804","13.298","0.04","0.85","29.1982","4.63035","46.1","0","SATNPRO1963","30.990000000000002","0.43404","5"],
    [17570,"HCEP03730560","2024-03-29 08:45:00","9.6023","3.20206","27.43","4.4","7.48","0.717","12.688","0.04","0.63","29.174","4.62694","46.56","0","SATNPRO1963","31.14","0.43616","5"],
    [17571,"HCEP03730560","2024-03-29 09:00:00","9.5993","3.20026","27.168","4.434","7.48","0.776","10.956","0.04","0.53","29.1584","4.62475","46.91","0","SATNPRO1963","31.201999999999998","0.43702","5"],
    [17572,"HCEP03730560","2024-03-29 09:15:00","9.5971","3.19933","26.958","4.458","7.48","0.706","8.852","0.03","0.52","29.151","4.62371","47.16","0","SATNPRO1963","31.12","0.43592","5"],
    [17573,"HCEP03730560","2024-03-29 09:30:00","9.596","3.19822","26.644","4.475","7.48","0.786","8.574","0.03","0.36","29.1407","4.62224","47.33","0","SATNPRO1963","31.152","0.43634","5"],
    [17574,"HCEP03730560","2024-03-29 09:45:00","9.595","3.19702","26.535","4.461","7.48","0.722","8.209","0.05","0.33","29.1295","4.62064","47.19","0","SATNPRO1963","30.791999999999998","0.4313","5"],
    [17575,"HCEP03730560","2024-03-29 10:00:00","9.5937","3.19569","26.3","4.445","7.48","0.793","7.718","0.08","0.54","29.1173","4.6189","47.01","0","SATNPRO1963","30.888","0.43262","5"],
    [17576,"HCEP03730560","2024-03-29 10:15:00","9.5919","3.19338","26.095","4.458","7.48","0.717","6.924","0.05","0.35","29.0955","4.61579","47.14","0","SATNPRO1963","30.812","0.43158","5"],
    [17577,"HCEP03730560","2024-03-29 10:30:00","9.5911","3.18926","25.875","4.487","7.48","0.804","6.907","0.07","0.3","29.0547","4.60995","47.44","0","SATNPRO1963","30.544","0.42784","5"],
    [17578,"HCEP03730560","2024-03-29 10:45:00","9.5885","3.19067","25.706","4.492","7.48","0.765","6.849","0.07","0.31","29.0711","4.61233","47.48","0","SATNPRO1963","30.73","0.4304","5"],
    [17579,"HCEP03730560","2024-03-29 11:00:00","9.5878","3.18968","25.499","4.488","7.48","0.804","6.853","0.06","0.37","29.0617","4.61099","47.44","0","SATNPRO1963","30.534","0.42768","5"],
    [17580,"HCEP03730560","2024-03-29 11:15:00","9.5866","3.18865","25.339","4.473","7.48","0.755","6.53","0.13","0.38","29.0524","4.60966","47.28","0","SATNPRO1963","30.382","0.42554","5"],
    [17581,"HCEP03730560","2024-03-29 11:30:00","9.5863","3.18808","25.137","4.462","7.48","0.781","5.893","0.06","0.32","29.0469","4.60887","47.16","0","SATNPRO1963","30.46","0.42662","5"],
    [17582,"HCEP03730560","2024-03-29 11:45:00","9.5859","3.18754","24.982","4.449","7.48","0.713","5.772","0.06","0.44","29.0419","4.60814","47.02","0","SATNPRO1963","30.69","0.42988","5"],
    [17583,"HCEP03730560","2024-03-29 12:00:00","9.5868","3.18677","24.812","4.445","7.48","0.764","5.368","0.08","0.35","29.0336","4.60693","46.98","0","SATNPRO1963","30.566","0.42812","5"],
    [17584,"HCEP03730560","2024-03-29 12:15:00","9.5866","3.18772","24.672","4.433","7.48","0.692","5.375","0.07","0.34","29.0433","4.60832","46.85","0","SATNPRO1963","30.45","0.42652","5"],
    [17585,"HCEP03730560","2024-03-29 12:30:00","9.589","3.18634","24.573","4.501","7.48","0.808","5.363","0.16","0.45","29.0275","4.60601","47.57","0","SATNPRO1963","30.541999999999998","0.4278","5"],
    [17586,"HCEP03730560","2024-03-29 12:45:00","9.5888","3.18722","24.468","4.662","7.49","0.728","5.195","0.07","0.37","29.0365","4.6073","49.27","0","SATNPRO1963","30.84","0.43196","5"],
    [17587,"HCEP03730560","2024-03-29 13:00:00","9.5863","3.19185","24.437","4.77","7.5","0.793","4.942","0.04","0.29","29.0852","4.61432","50.43","0","SATNPRO1963","31.23","0.4374","5"],
    [17588,"HCEP03730560","2024-03-29 13:15:00","9.5825","3.19098","24.435","4.876","7.5","0.752","4.935","0.07","0.45","29.0795","4.61357","51.54","0","SATNPRO1963","31.244","0.43764","5"],
    [17589,"HCEP03730560","2024-03-29 13:30:00","9.5821","3.19037","24.519","4.908","7.51","0.847","5.224","0.07","0.28","29.0737","4.61275","51.87","0","SATNPRO1963","31.311999999999998","0.4386","5"],
    [17590,"HCEP03730560","2024-03-29 13:45:00","9.5834","3.19077","24.566","4.88","7.51","0.82","5.425","0.09","0.28","29.0767","4.61316","51.59","0","SATNPRO1963","31.286","0.43824","5"],
    [17591,"HCEP03730560","2024-03-29 14:00:00","9.5826","3.19041","24.679","4.901","7.51","0.82","4.932","0.08","0.31","29.0737","4.61274","51.8","0","SATNPRO1963","31.23","0.43742","5"],
    [17592,"HCEP03730560","2024-03-29 14:15:00","9.5825","3.19006","24.782","4.917","7.52","0.76","4.646","0.12","0.38","29.0701","4.61225","51.98","0","SATNPRO1963","31.404","0.43988","5"],
    [17593,"HCEP03730560","2024-03-29 14:30:00","9.5829","3.193","24.892","4.921","7.52","0.76","4.465","0.08","0.37","29.0994","4.61644","52.03","0","SATNPRO1963","31.432","0.44032","5"],
    [17594,"HCEP03730560","2024-03-29 14:45:00","9.5841","3.19517","25.005","4.917","7.52","0.702","5.092","0.09","0.43","29.1202","4.61941","51.99","0","SATNPRO1963","31.7","0.44402","5"],
    [17595,"HCEP03730560","2024-03-29 15:00:00","9.5712","3.17524","25.099","5.043","7.52","0.7","3.024","0.05","0.16","28.9298","4.59232","53.24","0","SATNPRO1963","30.986","0.434","5"],
    [17596,"HCEP03730560","2024-03-29 15:15:00","9.5737","3.17693","25.245","5.109","7.53","0.654","3.92","0.05","0.19","28.9446","4.59442","53.94","0","SATNPRO1963","31.102","0.43562","5"],
    [17597,"HCEP03730560","2024-03-29 15:30:00","9.5697","3.16491","25.385","5.141","7.53","0.696","2.637","0.07","0.16","28.8268","4.57758","54.24","0","SATNPRO1963","30.494","0.4271","5"],
    [17598,"HCEP03730560","2024-03-29 15:45:00","9.5849","3.18793","25.543","4.86","7.52","0.816","5.708","0.09","0.35","29.0465","4.60885","51.36","0","SATNPRO1963","31.024","0.43452","5"],
    [17599,"HCEP03730560","2024-03-29 16:00:00","9.585","3.19179","25.672","4.817","7.52","0.77","4.914","0.05","0.24","29.0852","4.61441","50.92","0","SATNPRO1963","31.118","0.43584","5"],
    [17600,"HCEP03730560","2024-03-29 16:15:00","9.5816","3.1789","25.82","4.834","7.52","0.681","4.028","0.1","0.16","28.9579","4.59622","51.05","0","SATNPRO1963","30.596","0.42856","5"],
    [17601,"HCEP03730560","2024-03-29 16:30:00","9.5859","3.19178","25.973","4.795","7.51","0.785","4.681","0.08","0.28","29.0843","4.61428","50.69","0","SATNPRO1963","31.152","0.43634","5"],
    [17602,"HCEP03730560","2024-03-29 16:45:00","9.5878","3.19364","26.166","4.769","7.51","0.695","5.041","0.06","0.49","29.1014","4.61672","50.42","0","SATNPRO1963","31.138","0.43616","5"],
    [17603,"HCEP03730560","2024-03-29 17:00:00","9.5881","3.19449","26.327","4.775","7.51","0.798","4.588","0.11","0.21","29.1096","4.6179","50.5","0","SATNPRO1963","31.384","0.43964","5"],
    [17604,"HCEP03730560","2024-03-29 17:15:00","9.5888","3.19494","26.507","4.763","7.51","0.706","4.716","0.16","0.33","29.1135","4.61846","50.36","0","SATNPRO1963","31.196","0.43696","5"],
    [17605,"HCEP03730560","2024-03-29 17:30:00","9.5898","3.19645","26.68","4.752","7.51","0.731","4.958","0.05","0.26","29.1279","4.62051","50.26","0","SATNPRO1963","31.328","0.4388","5"],
    [17606,"HCEP03730560","2024-03-29 17:45:00","9.5902","3.19755","26.862","4.743","7.51","0.665","5.197","0.06","0.23","29.1386","4.62205","50.16","0","SATNPRO1963","31.436","0.44032","5"],
    [17607,"HCEP03730560","2024-03-29 18:00:00","9.5905","3.19823","27.04","4.748","7.51","0.701","5.192","0.09","0.32","29.1451","4.62299","50.22","0","SATNPRO1963","31.366","0.43934","5"],
    [17608,"HCEP03730560","2024-03-29 18:15:00","9.5905","3.19694","27.245","4.77","7.51","0.66","4.401","0.08","0.36","29.132","4.62113","50.45","0","SATNPRO1963","31.622","0.44292","5"],
    [17609,"HCEP03730560","2024-03-29 18:30:00","9.5882","3.19725","27.388","4.832","7.51","0.767","5.095","0.1","0.83","29.1369","4.62188","51.1","0","SATNPRO1963","31.482","0.441","5"],
    [17610,"HCEP03730560","2024-03-29 18:45:00","9.5893","3.1986","27.403","4.856","7.51","0.652","4.576","0.09","0.21","29.1497","4.62368","51.36","0","SATNPRO1963","31.706","0.4441","5"],
    [17611,"HCEP03730560","2024-03-29 19:00:00","9.59","3.19951","27.393","4.857","7.51","0.715","4.662","0.04","0.33","29.1582","4.6249","51.38","0","SATNPRO1963","31.686","0.44382","5"],
    [17612,"HCEP03730560","2024-03-29 19:15:00","9.5913","3.20102","27.416","4.885","7.52","0.631","4.577","0.05","0.46","29.1724","4.62691","51.68","0","SATNPRO1963","31.556","0.442","5"],
    [17613,"HCEP03730560","2024-03-29 19:30:00","9.5957","3.20356","27.433","4.861","7.52","0.665","4.138","0.03","0.39","29.1945","4.63","51.44","0","SATNPRO1963","31.784","0.4452","5"],
    [17614,"HCEP03730560","2024-03-29 19:45:00","9.5996","3.20554","27.492","4.793","7.51","0.594","3.693","0.06","0.45","29.2113","4.63235","50.73","0","SATNPRO1963","31.922","0.44714","5"],
    [17615,"HCEP03730560","2024-03-29 20:00:00","9.5991","3.20576","27.508","4.816","7.51","0.617","3.547","0.04","0.19","29.2139","4.63273","50.98","0","SATNPRO1963","31.692","0.4439","5"],
    [17616,"HCEP03730560","2024-03-29 20:15:00","9.598","3.20613","27.548","4.9","7.52","0.571","3.59","0.12","0.2","29.2185","4.6334","51.86","0","SATNPRO1963","31.8","0.44542","5"],
    [17617,"HCEP03730560","2024-03-29 20:30:00","9.5966","3.20616","27.539","4.971","7.52","0.653","3.93","0.07","0.23","29.2199","4.63363","52.61","0","SATNPRO1963","31.976","0.44786","5"],
    [17618,"HCEP03730560","2024-03-29 20:45:00","9.5953","3.20634","27.526","5.036","7.53","0.588","3.863","0.08","0.2","29.2228","4.63407","53.3","0","SATNPRO1963","31.964","0.44774","5"],
    [17619,"HCEP03730560","2024-03-29 21:00:00","9.5943","3.20649","27.511","5.085","7.53","0.65","3.691","0.06","0.24","29.2252","4.63443","53.82","0","SATNPRO1963","31.924","0.44712","5"],
    [17620,"HCEP03730560","2024-03-29 21:15:00","9.5934","3.20636","27.509","5.109","7.53","0.565","3.6","0.04","0.22","29.2246","4.63435","54.07","0","SATNPRO1963","31.956","0.44764","5"],
    [17621,"HCEP03730560","2024-03-29 21:30:00","9.594","3.20565","27.476","5.052","7.53","0.647","3.524","0.09","0.19","29.217","4.63325","53.47","0","SATNPRO1963","31.922","0.44714","5"],
    [17622,"HCEP03730560","2024-03-29 21:45:00","9.5973","3.20413","27.429","4.915","7.53","0.578","3.254","0.09","0.19","29.1989","4.63061","52.01","0","SATNPRO1963","31.572","0.44224","5"],
    [17623,"HCEP03730560","2024-03-29 22:00:00","9.5986","3.20385","27.362","4.822","7.52","0.624","3.317","0.06","0.24","29.1951","4.63004","51.03","0","SATNPRO1963","31.516","0.44144","5"],
    [17624,"HCEP03730560","2024-03-29 22:15:00","9.5996","3.20362","27.325","4.729","7.51","0.565","3.316","0.12","0.23","29.192","4.62956","50.04","0","SATNPRO1963","31.536","0.44172","5"],
    [17625,"HCEP03730560","2024-03-29 22:30:00","9.601","3.20384","27.264","4.655","7.51","0.602","3.263","0.06","0.46","29.1931","4.62969","49.27","0","SATNPRO1963","31.246","0.43768","5"],
    [17626,"HCEP03730560","2024-03-29 22:45:00","9.6016","3.20426","27.21","4.628","7.5","0.604","3.569","0.15","0.34","29.1969","4.63022","48.98","0","SATNPRO1963","31.342000000000002","0.43898","5"],
    [17627,"HCEP03730560","2024-03-29 23:00:00","9.6013","3.20407","27.123","4.63","7.5","0.591","3.06","0.03","0.34","29.1952","4.62998","48.99","0","SATNPRO1963","31.259999999999998","0.43786","5"],
    [17628,"HCEP03730560","2024-03-29 23:15:00","9.6016","3.20407","27.047","4.632","7.5","0.546","3.336","0.12","0.56","29.195","4.62995","49.02","0","SATNPRO1963","31.382","0.43954","5"],
    [17629,"HCEP03730560","2024-03-29 23:30:00","9.6018","3.2039","26.971","4.621","7.5","0.579","3.166","0.04","0.21","29.1931","4.62967","48.9","0","SATNPRO1963","31.228","0.43742","5"],
    [17630,"HCEP03730560","2024-03-29 23:45:00","9.6016","3.20373","26.908","4.609","7.5","0.556","3.624","0.07","0.29","29.1917","4.62946","48.78","0","SATNPRO1963","31.126","0.43596","5"],
    [17631,"HCEP03730560","2024-03-30 00:00:00","9.5988","3.20503","26.832","4.707","7.5","0.624","3.332","0.1","0.23","29.207","4.6317","49.82","0","SATNPRO1963","31.392","0.4397","5"],
    [17632,"HCEP03730560","2024-03-30 00:15:00","9.5996","3.20546","26.764","4.722","7.5","0.575","3.614","0.1","0.33","29.2107","4.63222","49.97","0","SATNPRO1963","31.396","0.43972","5"],
    [17633,"HCEP03730560","2024-03-30 00:30:00","9.6006","3.20545","26.706","4.699","7.5","0.617","3.842","0.06","0.27","29.2099","4.63208","49.73","0","SATNPRO1963","31.512","0.44138","5"],
    [17634,"HCEP03730560","2024-03-30 00:45:00","9.5925","3.20676","26.643","5.047","7.52","0.583","4.165","0.06","0.25","29.2296","4.63504","53.41","0","SATNPRO1963","32.048","0.44886","5"],
    [17635,"HCEP03730560","2024-03-30 01:00:00","9.5902","3.20894","26.581","5.221","7.53","0.622","3.497","0.06","0.52","29.2536","4.63852","55.27","0","SATNPRO1963","31.982","0.448","5"],
    [17636,"HCEP03730560","2024-03-30 01:15:00","9.5918","3.21011","26.556","5.212","7.54","0.579","4.087","0.14","0.91","29.2641","4.63999","55.17","0","SATNPRO1963","32.024","0.44858","5"],
    [17637,"HCEP03730560","2024-03-30 01:30:00","9.5945","3.21242","26.539","5.111","7.54","0.625","3.51","0.17","0.17","29.2852","4.64297","54.12","0","SATNPRO1963","31.8","0.4454","5"],
    [17638,"HCEP03730560","2024-03-30 01:45:00","9.594","3.21375","26.542","5.071","7.53","0.513","3.73","0.09","0.19","29.299","4.64496","53.69","0","SATNPRO1963","31.982","0.44796","5"],
    [17639,"HCEP03730560","2024-03-30 02:00:00","9.5907","3.21454","26.541","5.121","7.54","0.547","3.18","0.05","0.23","29.3097","4.64654","54.22","0","SATNPRO1963","31.748","0.44468","5"],
    [17640,"HCEP03730560","2024-03-30 02:15:00","9.5879","3.21465","26.568","5.173","7.54","0.557","3.3","0.4","0.23","29.3131","4.64708","54.77","0","SATNPRO1963","31.87","0.44638","5"],
    [17641,"HCEP03730560","2024-03-30 02:30:00","9.5857","3.21464","26.617","5.22","7.54","0.543","3.295","0.13","0.26","29.3148","4.64736","55.27","0","SATNPRO1963","32.04","0.44878","5"],
    [17642,"HCEP03730560","2024-03-30 02:45:00","9.584","3.21464","26.666","5.247","7.55","0.502","4.105","0.05","0.51","29.3161","4.64758","55.55","0","SATNPRO1963","31.926","0.44716","5"],
    [17643,"HCEP03730560","2024-03-30 03:00:00","9.5816","3.21464","26.724","5.291","7.55","0.522","3.135","0.04","0.28","29.318","4.6479","56.02","0","SATNPRO1963","31.966","0.44772","5"],
    [17644,"HCEP03730560","2024-03-30 03:15:00","9.5784","3.21462","26.767","5.333","7.55","0.477","3.209","0.1","0.17","29.3205","4.64832","56.46","0","SATNPRO1963","32.01","0.44836","5"],
    [17645,"HCEP03730560","2024-03-30 03:30:00","9.5777","3.21462","26.84","5.352","7.56","0.532","3.424","0.06","0.29","29.3209","4.6484","56.65","0","SATNPRO1963","31.962","0.4477","5"],
    [17646,"HCEP03730560","2024-03-30 03:45:00","9.5771","3.21462","26.906","5.366","7.56","0.439","3.228","0.05","0.4","29.3214","4.64848","56.81","0","SATNPRO1963","32.058","0.44906","5"],
    [17647,"HCEP03730560","2024-03-30 04:00:00","9.578","3.21466","26.965","5.352","7.56","0.519","3.483","0.05","0.29","29.3211","4.64842","56.66","0","SATNPRO1963","31.92","0.44708","5"],
    [17648,"HCEP03730560","2024-03-30 04:15:00","9.5778","3.21449","27.034","5.35","7.56","0.448","3.303","0.05","0.14","29.3195","4.64821","56.63","0","SATNPRO1963","32.108000000000004","0.4497","5"],
    [17649,"HCEP03730560","2024-03-30 04:30:00","9.58","3.21447","27.11","5.321","7.56","0.515","3.416","0.04","0.26","29.3174","4.64787","56.33","0","SATNPRO1963","31.93","0.44724","5"],
    [17650,"HCEP03730560","2024-03-30 04:45:00","9.5815","3.21447","27.185","5.295","7.56","0.458","3.341","0.05","0.22","29.3162","4.64768","56.06","0","SATNPRO1963","31.86","0.44624","5"],
    [17651,"HCEP03730560","2024-03-30 05:00:00","9.5821","3.21439","27.263","5.271","7.55","0.546","3.708","0.09","0.31","29.3149","4.64749","55.8","0","SATNPRO1963","32.036","0.44872","5"],
    [17652,"HCEP03730560","2024-03-30 05:15:00","9.5813","3.21417","27.344","5.282","7.55","0.443","3.598","0.06","0.27","29.3132","4.64726","55.92","0","SATNPRO1963","32.428","0.45418","5"],
    [17653,"HCEP03730560","2024-03-30 05:30:00","9.5813","3.21398","27.409","5.284","7.55","0.491","3.329","0.04","0.28","29.3114","4.647","55.94","0","SATNPRO1963","32.202","0.45106","5"],
    [17654,"HCEP03730560","2024-03-30 05:45:00","9.5807","3.21381","27.47","5.273","7.55","0.45","3.401","0.03","0.37","29.31","4.64682","55.82","0","SATNPRO1963","32.334","0.45292","5"],
    [17655,"HCEP03730560","2024-03-30 06:00:00","9.5809","3.21376","27.526","5.263","7.55","0.524","3.651","0.03","0.54","29.3093","4.64672","55.71","0","SATNPRO1963","31.9","0.4468","5"],
    [17656,"HCEP03730560","2024-03-30 06:15:00","9.5808","3.21424","27.588","5.27","7.55","0.584","4.363","0.1","0.63","29.3143","4.64744","55.79","0","SATNPRO1963","32.074","0.44926","5"],
    [17657,"HCEP03730560","2024-03-30 06:30:00","9.5777","3.21427","27.578","5.317","7.56","0.551","4.118","0.09","1.55","29.3171","4.64789","56.29","0","SATNPRO1963","32.06","0.44908","5"],
    [17658,"HCEP03730560","2024-03-30 06:45:00","9.5784","3.21449","27.59","5.325","7.56","0.471","3.515","0.04","0.23","29.3188","4.64813","56.37","0","SATNPRO1963","32.06","0.44906","5"],
    [17659,"HCEP03730560","2024-03-30 07:00:00","9.5771","3.21492","27.597","5.346","7.56","0.536","3.771","0.04","0.4","29.3241","4.64891","56.59","0","SATNPRO1963","31.95","0.4475","5"],
    [17660,"HCEP03730560","2024-03-30 07:15:00","9.575","3.21508","27.576","5.367","7.56","0.482","4.281","0.04","0.31","29.3275","4.64943","56.82","0","SATNPRO1963","31.946","0.44748","5"],
    [17661,"HCEP03730560","2024-03-30 07:30:00","9.5691","3.21509","27.605","5.463","7.56","0.526","4.103","0.04","0.39","29.3324","4.65023","57.82","0","SATNPRO1963","32.096","0.44958","5"],
    [17662,"HCEP03730560","2024-03-30 07:45:00","9.5662","3.21505","27.597","5.538","7.57","0.457","3.811","0.03","0.22","29.3343","4.65056","58.62","0","SATNPRO1963","32.136","0.45012","5"],
    [17663,"HCEP03730560","2024-03-30 08:00:00","9.5688","3.21498","27.519","5.487","7.57","0.552","4.138","0.05","0.26","29.3315","4.65011","58.08","0","SATNPRO1963","32.052","0.44892","5"],
    [17664,"HCEP03730560","2024-03-30 08:15:00","9.5737","3.21495","27.46","5.416","7.57","0.47","3.926","0.03","0.25","29.3273","4.64941","57.33","0","SATNPRO1963","32.044","0.44882","5"],
    [17665,"HCEP03730560","2024-03-30 08:30:00","9.5768","3.21489","27.379","5.334","7.56","0.552","4.019","0.07","0.53","29.3241","4.6489","56.47","0","SATNPRO1963","32.132","0.45006","5"],
    [17666,"HCEP03730560","2024-03-30 08:45:00","9.5781","3.21479","27.293","5.312","7.56","0.508","4.004","0.21","0.31","29.3222","4.6486","56.23","0","SATNPRO1963","31.740000000000002","0.4446","5"],
    [17667,"HCEP03730560","2024-03-30 09:00:00","9.5784","3.2147","27.205","5.297","7.55","0.559","3.909","0.1","0.24","29.321","4.64842","56.08","0","SATNPRO1963","31.721999999999998","0.44428","5"],
    [17668,"HCEP03730560","2024-03-30 09:15:00","9.5788","3.21458","27.065","5.291","7.55","0.476","3.766","0.05","0.24","29.3196","4.6482","56.01","0","SATNPRO1963","32.054","0.449","5"],
    [17669,"HCEP03730560","2024-03-30 09:30:00","9.579","3.21458","26.91","5.273","7.55","0.539","4.063","0.05","0.3","29.3194","4.64816","55.83","0","SATNPRO1963","31.886","0.44662","5"],
    [17670,"HCEP03730560","2024-03-30 09:45:00","9.58","3.21452","26.764","5.264","7.55","0.46","3.952","0.03","0.39","29.3181","4.64795","55.72","0","SATNPRO1963","32.002","0.44824","5"],
    [17671,"HCEP03730560","2024-03-30 10:00:00","9.5807","3.21452","26.635","5.255","7.55","0.526","3.953","0.03","0.22","29.3176","4.64786","55.63","0","SATNPRO1963","32.026","0.44856","5"],
    [17672,"HCEP03730560","2024-03-30 10:15:00","9.5813","3.21451","26.469","5.246","7.55","0.475","4.14","0.08","0.36","29.317","4.64775","55.54","0","SATNPRO1963","31.866","0.44634","5"],
    [17673,"HCEP03730560","2024-03-30 10:30:00","9.5812","3.21448","26.305","5.247","7.55","0.507","3.66","0.04","0.22","29.3169","4.64773","55.55","0","SATNPRO1963","31.702","0.44406","5"],
    [17674,"HCEP03730560","2024-03-30 10:45:00","9.5817","3.21443","26.13","5.237","7.55","0.468","4.123","0.04","0.74","29.3161","4.64759","55.44","0","SATNPRO1963","31.91","0.447","5"],
    [17675,"HCEP03730560","2024-03-30 11:00:00","9.5818","3.21424","25.981","5.228","7.55","0.531","4.283","0.02","0.31","29.3141","4.64729","55.35","0","SATNPRO1963","31.892","0.44672","5"],
    [17676,"HCEP03730560","2024-03-30 11:15:00","9.5802","3.21393","25.777","5.24","7.55","0.493","4.506","0.09","0.4","29.3124","4.64707","55.47","0","SATNPRO1963","31.68","0.4437","5"],
    [17677,"HCEP03730560","2024-03-30 11:30:00","9.584","3.21335","25.624","5.208","7.54","0.543","4.474","0.03","0.36","29.3035","4.64572","55.13","0","SATNPRO1963","31.748","0.44466","5"],
    [17678,"HCEP03730560","2024-03-30 11:45:00","9.5878","3.21264","25.408","5.11","7.54","0.495","4.486","0.02","0.25","29.2933","4.64417","54.1","0","SATNPRO1963","31.82","0.44562","5"],
    [17679,"HCEP03730560","2024-03-30 12:00:00","9.5905","3.21211","25.186","5.029","7.53","0.562","4.394","0.02","0.27","29.2859","4.64306","53.24","0","SATNPRO1963","31.738","0.44456","5"],
    [17680,"HCEP03730560","2024-03-30 12:15:00","9.5927","3.21152","24.945","4.963","7.53","0.544","4.687","0.03","0.47","29.2782","4.6419","52.54","0","SATNPRO1963","31.704","0.44408","5"],
    [17681,"HCEP03730560","2024-03-30 12:30:00","9.594","3.21099","24.695","4.915","7.52","0.562","4.368","0.03","0.24","29.2719","4.64097","52.04","0","SATNPRO1963","31.962","0.44768","5"],
    [17682,"HCEP03730560","2024-03-30 12:45:00","9.5956","3.20996","24.594","4.862","7.52","0.507","4.173","0.04","0.21","29.2603","4.63927","51.47","0","SATNPRO1963","31.704","0.44406","5"],
    [17683,"HCEP03730560","2024-03-30 13:00:00","9.5963","3.2092","24.519","4.809","7.51","0.57","4.598","0.04","0.51","29.252","4.63806","50.91","0","SATNPRO1963","31.524","0.44156","5"],
    [17684,"HCEP03730560","2024-03-30 13:15:00","9.5964","3.20865","24.464","4.778","7.51","0.512","4.36","0.04","0.19","29.2464","4.63726","50.57","0","SATNPRO1963","31.544","0.4418","5"],
    [17685,"HCEP03730560","2024-03-30 13:30:00","9.5964","3.20801","24.427","4.743","7.51","0.58","4.349","0.04","0.46","29.24","4.63634","50.2","0","SATNPRO1963","31.736","0.44452","5"],
    [17686,"HCEP03730560","2024-03-30 13:45:00","9.5966","3.20799","24.43","4.732","7.5","0.528","4.168","0.06","0.45","29.2397","4.63628","50.09","0","SATNPRO1963","32.144","0.45022","5"],
    [17687,"HCEP03730560","2024-03-30 14:00:00","9.5966","3.20787","24.447","4.724","7.5","0.581","4.062","0.04","0.34","29.2385","4.63611","50","0","SATNPRO1963","31.672","0.44364","5"],
    [17688,"HCEP03730560","2024-03-30 14:15:00","9.5966","3.20793","24.466","4.727","7.5","0.516","3.993","0.06","0.54","29.239","4.63619","50.04","0","SATNPRO1963","31.496","0.44116","5"],
    [17689,"HCEP03730560","2024-03-30 14:30:00","9.5965","3.20791","24.576","4.724","7.5","0.591","4.392","0.09","0.41","29.2389","4.63619","50","0","SATNPRO1963","31.416","0.44004","5"],
    [17690,"HCEP03730560","2024-03-30 14:45:00","9.5965","3.20793","24.634","4.724","7.5","0.493","3.889","0.07","0.22","29.239","4.6362","50.01","0","SATNPRO1963","31.866","0.44634","5"],
    [17691,"HCEP03730560","2024-03-30 15:00:00","9.5965","3.20777","24.705","4.719","7.5","0.561","4.397","0.03","0.27","29.2374","4.63598","49.95","0","SATNPRO1963","31.534","0.44168","5"],
    [17692,"HCEP03730560","2024-03-30 15:15:00","9.5967","3.20719","24.812","4.704","7.5","0.505","4.083","0.06","0.36","29.2314","4.63512","49.79","0","SATNPRO1963","31.534","0.44168","5"],
    [17693,"HCEP03730560","2024-03-30 15:30:00","9.597","3.2068","24.864","4.698","7.5","0.548","3.803","0.03","0.21","29.2271","4.6345","49.72","0","SATNPRO1963","31.712","0.44418","5"],
    [17694,"HCEP03730560","2024-03-30 15:45:00","9.5972","3.20686","25.02","4.663","7.5","0.516","4.219","0.05","0.22","29.2275","4.63456","49.35","0","SATNPRO1963","31.354","0.43912","5"],
    [17695,"HCEP03730560","2024-03-30 16:00:00","9.5973","3.20667","25.153","4.657","7.5","0.565","4.114","0.06","0.45","29.2254","4.63427","49.29","0","SATNPRO1963","31.62","0.44288","5"],
    [17696,"HCEP03730560","2024-03-30 16:15:00","9.5975","3.20656","25.274","4.658","7.5","0.499","3.939","0.04","0.17","29.2242","4.63409","49.3","0","SATNPRO1963","31.514","0.44136","5"],
    [17697,"HCEP03730560","2024-03-30 16:30:00","9.5973","3.2066","25.403","4.649","7.5","0.562","3.933","0.06","0.24","29.2247","4.63418","49.2","0","SATNPRO1963","31.46","0.44064","5"],
    [17698,"HCEP03730560","2024-03-30 16:45:00","9.5975","3.20661","25.547","4.646","7.5","0.495","3.917","0.03","0.34","29.2245","4.63416","49.17","0","SATNPRO1963","31.5","0.44124","5"],
    [17699,"HCEP03730560","2024-03-30 17:00:00","9.5972","3.20662","25.688","4.648","7.5","0.551","3.895","0.04","0.28","29.2249","4.63423","49.19","0","SATNPRO1963","31.442","0.44036","5"],
    [17700,"HCEP03730560","2024-03-30 17:15:00","9.5974","3.20678","25.84","4.646","7.5","0.487","3.849","0.02","0.14","29.2262","4.63442","49.17","0","SATNPRO1963","31.198","0.43694","5"],
    [17701,"HCEP03730560","2024-03-30 17:30:00","9.5978","3.20717","26.01","4.62","7.5","0.627","5.805","0.04","0.51","29.2297","4.63492","48.9","0","SATNPRO1963","31.318","0.43866","5"],
    [17702,"HCEP03730560","2024-03-30 17:45:00","9.5976","3.20711","26.165","4.631","7.5","0.491","3.917","0.03","0.21","29.2293","4.63488","49.01","0","SATNPRO1963","31.42","0.4401","5"],
    [17703,"HCEP03730560","2024-03-30 18:00:00","9.5974","3.20704","26.362","4.644","7.5","0.552","4.043","0.03","0.3","29.2286","4.6348","49.15","0","SATNPRO1963","31.44","0.44034","5"],
    [17704,"HCEP03730560","2024-03-30 18:15:00","9.5981","3.20687","26.546","4.631","7.5","0.483","3.961","0.03","0.38","29.2263","4.63446","49.01","0","SATNPRO1963","31.032","0.43462","5"],
    [17705,"HCEP03730560","2024-03-30 18:30:00","9.5987","3.20663","26.725","4.577","7.5","0.541","4.083","0.03","0.33","29.2233","4.63404","48.45","0","SATNPRO1963","31.816","0.44566","5"],
    [17706,"HCEP03730560","2024-03-30 18:45:00","9.5986","3.20652","26.887","4.568","7.5","0.497","4.134","0.03","0.3","29.2223","4.6339","48.35","0","SATNPRO1963","31.428","0.4402","5"],
    [17707,"HCEP03730560","2024-03-30 19:00:00","9.5991","3.20663","27.023","4.558","7.49","0.57","4.065","0.09","0.26","29.2228","4.63397","48.24","0","SATNPRO1963","31.364","0.43932","5"],
    [17708,"HCEP03730560","2024-03-30 19:15:00","9.5988","3.20651","27.152","4.564","7.49","0.479","3.837","0.06","0.18","29.221800000000002","4.63383","48.31","0","SATNPRO1963","31.352","0.43912","5"],
    [17709,"HCEP03730560","2024-03-30 19:30:00","9.599","3.20677","27.264","4.563","7.49","0.546","4.105","0.04","0.17","29.2242","4.6342","48.3","0","SATNPRO1963","31.328","0.43876","5"],
    [17710,"HCEP03730560","2024-03-30 19:45:00","9.5987","3.2072","27.353","4.56","7.49","0.499","3.827","0.13","0.23","29.2287","4.63485","48.26","0","SATNPRO1963","31.264","0.4379","5"],
    [17711,"HCEP03730560","2024-03-30 20:00:00","9.5984","3.2075","27.442","4.586","7.49","0.532","3.906","0.05","0.26","29.232","4.63533","48.55","0","SATNPRO1963","31.296","0.4384","5"],
    [17712,"HCEP03730560","2024-03-30 20:15:00","9.5977","3.20701","27.481","4.628","7.5","0.498","4.152","0.08","0.26","29.2276","4.63471","48.99","0","SATNPRO1963","31.332","0.4389","5"],
    [17713,"HCEP03730560","2024-03-30 20:30:00","9.5974","3.2106","27.529","4.641","7.5","0.57","4.945","0.03","0.32","29.2641","4.63995","49.13","0","SATNPRO1963","31.566","0.44214","5"],
    [17714,"HCEP03730560","2024-03-30 20:45:00","9.5968","3.21073","27.528","4.668","7.5","0.506","4.731","0.04","0.4","29.2659","4.64022","49.42","0","SATNPRO1963","31.616","0.44284","5"],
    [17715,"HCEP03730560","2024-03-30 21:00:00","9.596","3.2111","27.533","4.719","7.5","0.566","4.565","0.05","0.45","29.2702","4.64085","49.96","0","SATNPRO1963","31.538","0.44176","5"],
    [17716,"HCEP03730560","2024-03-30 21:15:00","9.5952","3.21101","27.543","4.779","7.51","0.492","3.973","0.05","0.33","29.27","4.64083","50.6","0","SATNPRO1963","31.652","0.44336","5"],
    [17717,"HCEP03730560","2024-03-30 21:30:00","9.5963","3.20852","27.538","4.754","7.51","0.525","3.122","0.05","0.2","29.244","4.63709","50.32","0","SATNPRO1963","31.816","0.4456","5"],
    [17718,"HCEP03730560","2024-03-30 21:45:00","9.5953","3.21049","27.549","4.78","7.51","0.473","3.54","0.04","0.23","29.2647","4.64007","50.6","0","SATNPRO1963","31.652","0.44334","5"],
    [17719,"HCEP03730560","2024-03-30 22:00:00","9.5952","3.21051","27.536","4.798","7.51","0.522","3.564","0.04","0.28","29.265","4.64012","50.8","0","SATNPRO1963","31.812","0.4456","5"],
    [17720,"HCEP03730560","2024-03-30 22:15:00","9.594","3.21102","27.517","4.819","7.51","0.499","4.153","0.03","0.31","29.2711","4.64101","51.02","0","SATNPRO1963","31.59","0.44246","5"],
    [17721,"HCEP03730560","2024-03-30 22:30:00","9.5928","3.21165","27.502","4.849","7.51","0.535","4.089","0.03","0.26","29.2784","4.64208","51.34","0","SATNPRO1963","31.508","0.4413","5"],
    [17722,"HCEP03730560","2024-03-30 22:45:00","9.5921","3.21202","27.453","4.872","7.52","0.493","4.139","0.04","0.73","29.2828","4.64271","51.58","0","SATNPRO1963","31.654","0.4434","5"],
    [17723,"HCEP03730560","2024-03-30 23:00:00","9.5918","3.2123","27.412","4.879","7.52","0.542","4.277","0.04","0.34","29.2858","4.64316","51.65","0","SATNPRO1963","31.534","0.44168","5"],
    [17724,"HCEP03730560","2024-03-30 23:15:00","9.591","3.21249","27.382","4.893","7.52","0.479","3.922","0.04","0.25","29.2884","4.64354","51.8","0","SATNPRO1963","31.772000000000002","0.44502","5"],
    [17725,"HCEP03730560","2024-03-30 23:30:00","9.5908","3.21264","27.37","4.895","7.52","0.554","4.322","0.06","0.31","29.2901","4.64377","51.83","0","SATNPRO1963","31.668","0.44354","5"],
    [17726,"HCEP03730560","2024-03-30 23:45:00","9.5907","3.21273","27.311","4.897","7.52","0.494","4.431","0.05","0.49","29.2911","4.64393","51.84","0","SATNPRO1963","31.732","0.44446","5"],
    [17727,"HCEP03730560","2024-03-31 00:00:00","9.5903","3.21278","27.245","4.898","7.52","0.532","4.049","0.03","0.36","29.2919","4.64405","51.86","0","SATNPRO1963","31.76","0.44482","5"],
    [17728,"HCEP03730560","2024-03-31 00:15:00","9.5902","3.21276","27.197","4.895","7.52","0.498","3.823","0.08","0.3","29.2919","4.64404","51.82","0","SATNPRO1963","31.534","0.4417","5"],
    [17729,"HCEP03730560","2024-03-31 00:30:00","9.591","3.21276","27.128","4.874","7.52","0.535","4.091","0.04","0.26","29.2913","4.64393","51.6","0","SATNPRO1963","31.624","0.44294","5"],
    [17730,"HCEP03730560","2024-03-31 00:45:00","9.5911","3.21271","27.079","4.863","7.52","0.515","4.526","0.08","0.34","29.2907","4.64384","51.48","0","SATNPRO1963","31.502","0.44124","5"],
    [17731,"HCEP03730560","2024-03-31 01:00:00","9.5914","3.21261","27.028","4.861","7.52","0.572","4.174","0.19","0.25","29.2895","4.64366","51.46","0","SATNPRO1963","31.69","0.44386","5"],
    [17732,"HCEP03730560","2024-03-31 01:15:00","9.5909","3.21258","26.967","4.863","7.52","0.48","3.847","0.03","0.25","29.2896","4.64368","51.48","0","SATNPRO1963","31.526","0.4416","5"],
    [17733,"HCEP03730560","2024-03-31 01:30:00","9.5905","3.21258","26.918","4.863","7.52","0.545","4.367","0.05","0.37","29.2899","4.64374","51.48","0","SATNPRO1963","31.538","0.44178","5"],
    [17734,"HCEP03730560","2024-03-31 01:45:00","9.5899","3.21263","26.87","4.88","7.52","0.492","3.949","0.04","0.23","29.2909","4.64389","51.66","0","SATNPRO1963","31.823999999999998","0.44576","5"],
    [17735,"HCEP03730560","2024-03-31 02:00:00","9.5897","3.21266","26.85","4.885","7.52","0.523","4.055","0.04","0.19","29.2913","4.64394","51.72","0","SATNPRO1963","31.722","0.44432","5"],
    [17736,"HCEP03730560","2024-03-31 02:15:00","9.589","3.21273","26.837","4.901","7.52","0.476","4.103","0.05","0.58","29.2927","4.64415","51.89","0","SATNPRO1963","31.66","0.44344","5"],
    [17737,"HCEP03730560","2024-03-31 02:30:00","9.5877","3.21277","26.823","4.927","7.52","0.532","3.828","0.05","0.2","29.2941","4.64438","52.16","0","SATNPRO1963","31.624","0.44294","5"],
    [17738,"HCEP03730560","2024-03-31 02:45:00","9.5867","3.21278","26.822","4.947","7.52","0.483","4.053","0.06","0.31","29.295","4.64452","52.38","0","SATNPRO1963","31.61","0.44274","5"],
    [17739,"HCEP03730560","2024-03-31 03:00:00","9.5861","3.21279","26.843","4.958","7.52","0.522","3.886","0.08","0.41","29.2957","4.64463","52.49","0","SATNPRO1963","31.66","0.44344","5"],
    [17740,"HCEP03730560","2024-03-31 03:15:00","9.5858","3.2128","26.867","4.978","7.52","1.219","4.096","2.07","1.37","29.296","4.64468","52.69","0","SATNPRO1963","31.684","0.44378","5"],
    [17741,"HCEP03730560","2024-03-31 03:30:00","9.5856","3.21275","26.889","4.971","7.52","0.662","4.16","0.28","0.56","29.2957","4.64464","52.63","0","SATNPRO1963","31.564","0.44212","5"],
    [17742,"HCEP03730560","2024-03-31 03:45:00","9.5862","3.21271","26.914","4.962","7.52","0.599","4.432","0.17","0.71","29.2947","4.6445","52.53","0","SATNPRO1963","31.732","0.44448","5"],
    [17743,"HCEP03730560","2024-03-31 04:00:00","9.5851","3.21276","26.95","4.975","7.52","0.503","3.907","0.04","0.23","29.2961","4.64472","52.66","0","SATNPRO1963","31.746000000000002","0.44464","5"],
    [17744,"HCEP03730560","2024-03-31 04:15:00","9.5851","3.21278","26.985","4.973","7.53","0.441","3.726","0.03","0.24","29.2963","4.64474","52.65","0","SATNPRO1963","31.71","0.44412","5"],
    [17745,"HCEP03730560","2024-03-31 04:30:00","9.5852","3.21279","27.028","4.97","7.53","0.486","3.806","0.03","0.21","29.2964","4.64476","52.61","0","SATNPRO1963","31.612","0.44278","5"],
    [17746,"HCEP03730560","2024-03-31 04:45:00","9.5846","3.21288","27.065","4.991","7.53","0.446","3.717","0.04","0.23","29.2976","4.64495","52.83","0","SATNPRO1963","31.580000000000002","0.4423","5"],
    [17747,"HCEP03730560","2024-03-31 05:00:00","9.5844","3.21297","27.108","4.99","7.53","0.499","3.874","0.03","0.23","29.2987","4.64511","52.82","0","SATNPRO1963","31.636","0.44312","5"],
    [17748,"HCEP03730560","2024-03-31 05:15:00","9.5843","3.2132","27.155","4.991","7.53","0.473","4.598","0.05","0.35","29.3011","4.64545","52.83","0","SATNPRO1963","31.744","0.44462","5"],
    [17749,"HCEP03730560","2024-03-31 05:30:00","9.5831","3.2136","27.197","5.038","7.53","0.56","3.833","0.23","0.27","29.3061","4.6462","53.33","0","SATNPRO1963","31.926","0.44718","5"],
    [17750,"HCEP03730560","2024-03-31 05:45:00","9.5822","3.21382","27.247","5.068","7.53","0.441","3.763","0.03","0.25","29.309","4.64664","53.65","0","SATNPRO1963","31.788","0.44524","5"],
    [17751,"HCEP03730560","2024-03-31 06:00:00","9.5824","3.21386","27.293","5.066","7.53","0.492","3.975","0.03","0.28","29.3093","4.64667","53.63","0","SATNPRO1963","31.608","0.4427","5"],
    [17752,"HCEP03730560","2024-03-31 06:15:00","9.5819","3.21395","27.331","5.075","7.54","0.467","4.289","0.09","0.34","29.3106","4.64687","53.73","0","SATNPRO1963","31.79","0.44524","5"],
    [17753,"HCEP03730560","2024-03-31 06:30:00","9.5822","3.21397","27.366","5.062","7.54","0.515","4.846","0.04","1.07","29.3105","4.64685","53.58","0","SATNPRO1963","31.792","0.4453","5"],
    [17754,"HCEP03730560","2024-03-31 06:45:00","9.5819","3.2139","27.38","5.06","7.54","0.458","4.28","0.05","0.35","29.3101","4.6468","53.57","0","SATNPRO1963","31.896","0.44678","5"],
    [17755,"HCEP03730560","2024-03-31 07:00:00","9.5822","3.21386","27.398","5.056","7.53","1.838","5.426","1.78","1.97","29.3094","4.6467","53.52","0","SATNPRO1963","31.688","0.44382","5"],
    [17756,"HCEP03730560","2024-03-31 07:15:00","9.5816","3.21385","27.41","5.066","7.53","0.463","3.983","0.04","0.6","29.3098","4.64676","53.62","0","SATNPRO1963","31.814","0.44562","5"],
    [17757,"HCEP03730560","2024-03-31 07:30:00","9.5793","3.21381","27.405","5.116","7.54","0.463","3.114","0.03","0.12","29.3113","4.64702","54.15","0","SATNPRO1963","31.794","0.44534","5"],
    [17758,"HCEP03730560","2024-03-31 07:45:00","9.5784","3.21382","27.404","5.134","7.54","0.425","3.311","0.02","0.27","29.3121","4.64715","54.35","0","SATNPRO1963","31.872","0.4464","5"],
    [17759,"HCEP03730560","2024-03-31 08:00:00","9.5773","3.21368","27.384","5.16","7.54","0.451","2.898","0.05","0.18","29.3116","4.64709","54.62","0","SATNPRO1963","31.8","0.44538","5"],
    [17760,"HCEP03730560","2024-03-31 08:15:00","9.5766","3.21358","27.349","5.169","7.54","0.392","2.916","0.04","0.2","29.3112","4.64705","54.72","0","SATNPRO1963","32.072","0.44922","5"],
    [17761,"HCEP03730560","2024-03-31 08:30:00","9.5777","3.2137","27.303","5.148","7.54","0.441","3.1","0.03","0.13","29.3115","4.64707","54.49","0","SATNPRO1963","31.788","0.44524","5"],
    [17762,"HCEP03730560","2024-03-31 08:45:00","9.578","3.2137","27.262","5.132","7.54","0.436","3.531","0.04","0.28","29.3113","4.64703","54.33","0","SATNPRO1963","31.89","0.44664","5"],
    [17763,"HCEP03730560","2024-03-31 09:00:00","9.5779","3.21368","27.2","5.128","7.54","0.436","2.892","0.03","0.13","29.3112","4.64701","54.29","0","SATNPRO1963","32.342","0.45306","5"],
    [17764,"HCEP03730560","2024-03-31 09:15:00","9.5778","3.21373","27.111","5.137","7.54","0.412","3.395","0.04","0.4","29.3118","4.6471","54.37","0","SATNPRO1963","31.828","0.44584","5"],
    [17765,"HCEP03730560","2024-03-31 09:30:00","9.5778","3.21376","27.006","5.124","7.54","0.479","3.408","0.05","0.22","29.3122","4.64715","54.24","0","SATNPRO1963","31.817999999999998","0.44568","5"],
    [17766,"HCEP03730560","2024-03-31 09:45:00","9.5778","3.21371","26.883","5.126","7.54","0.415","3.333","0.05","0.21","29.3117","4.64707","54.26","0","SATNPRO1963","31.702","0.44406","5"],
    [17767,"HCEP03730560","2024-03-31 10:00:00","9.5799","3.21373","26.769","5.085","7.53","0.479","3.722","0.02","0.24","29.3102","4.64682","53.83","0","SATNPRO1963","31.728","0.44442","5"],
    [17768,"HCEP03730560","2024-03-31 10:15:00","9.5818","3.21367","26.639","5.019","7.53","0.463","4.191","0.04","0.2","29.3081","4.64648","53.13","0","SATNPRO1963","31.612000000000002","0.44284","5"],
    [17769,"HCEP03730560","2024-03-31 10:30:00","9.5805","3.21338","26.481","5.04","7.53","0.473","3.49","0.03","0.19","29.3063","4.64623","53.35","0","SATNPRO1963","31.73","0.44446","5"],
    [17770,"HCEP03730560","2024-03-31 10:45:00","9.584","3.21379","26.342","4.955","7.53","0.461","4.521","0.02","0.22","29.3076","4.64634","52.45","0","SATNPRO1963","31.44","0.44042","5"],
    [17771,"HCEP03730560","2024-03-31 11:00:00","9.584","3.21384","26.17","4.944","7.52","0.5","4.32","0.02","0.23","29.3082","4.64642","52.34","0","SATNPRO1963","31.492","0.4411","5"],
    [17772,"HCEP03730560","2024-03-31 11:15:00","9.5837","3.21388","25.968","4.965","7.52","0.44","4.481","0.02","0.22","29.309","4.64653","52.56","0","SATNPRO1963","31.52","0.4415","5"],
    [17773,"HCEP03730560","2024-03-31 11:30:00","9.5843","3.21405","25.816","4.953","7.52","0.509","4.5","0.04","0.3","29.3102","4.64668","52.44","0","SATNPRO1963","31.506","0.44132","5"],
    [17774,"HCEP03730560","2024-03-31 11:45:00","9.5834","3.21399","25.626","4.968","7.52","0.432","3.857","0.03","0.17","29.3104","4.64672","52.6","0","SATNPRO1963","31.584","0.44238","5"],
    [17775,"HCEP03730560","2024-03-31 12:00:00","9.5837","3.21377","25.47","4.986","7.52","0.47","3.823","0.03","0.3","29.308","4.64637","52.78","0","SATNPRO1963","31.512","0.44136","5"],
    [17776,"HCEP03730560","2024-03-31 12:15:00","9.5841","3.21377","25.301","4.973","7.52","0.418","3.982","0.02","0.24","29.3078","4.64631","52.65","0","SATNPRO1963","31.466","0.44076","5"],
    [17777,"HCEP03730560","2024-03-31 12:30:00","9.584","3.21384","25.147","4.964","7.52","0.484","3.913","0.05","0.2","29.3087","4.64644","52.56","0","SATNPRO1963","31.636","0.4431","5"],
    [17778,"HCEP03730560","2024-03-31 12:45:00","9.5841","3.21399","24.98","4.952","7.52","0.442","4.28","0.03","0.51","29.3101","4.64663","52.43","0","SATNPRO1963","31.536","0.44174","5"],
    [17779,"HCEP03730560","2024-03-31 13:00:00","9.5843","3.21396","24.839","4.951","7.52","0.49","4.116","0.03","0.25","29.3098","4.64657","52.42","0","SATNPRO1963","31.466","0.44072","5"],
    [17780,"HCEP03730560","2024-03-31 13:15:00","9.584","3.21386","24.727","4.967","7.52","0.424","3.957","0.02","0.27","29.3089","4.64645","52.59","0","SATNPRO1963","31.434","0.44026","5"],
    [17781,"HCEP03730560","2024-03-31 13:30:00","9.584","3.21387","24.619","4.989","7.52","0.475","4.058","0.03","0.24","29.3092","4.64647","52.82","0","SATNPRO1963","31.71","0.44414","5"],
    [17782,"HCEP03730560","2024-03-31 13:45:00","9.5839","3.21378","24.501","5.001","7.52","0.408","3.917","0.02","0.32","29.3084","4.64635","52.94","0","SATNPRO1963","31.554","0.44194","5"],
    [17783,"HCEP03730560","2024-03-31 14:00:00","9.5842","3.21373","24.428","4.994","7.52","0.47","3.685","0.03","0.28","29.3077","4.64624","52.87","0","SATNPRO1963","31.872","0.44646","5"],
    [17784,"HCEP03730560","2024-03-31 14:15:00","9.584","3.21361","24.407","4.991","7.52","0.428","3.818","0.04","0.19","29.3066","4.64609","52.83","0","SATNPRO1963","31.77","0.44496","5"],
    [17785,"HCEP03730560","2024-03-31 14:30:00","9.5843","3.21361","24.426","4.994","7.52","0.464","3.871","0.05","1.33","29.3063","4.64605","52.87","0","SATNPRO1963","31.78","0.44518","5"],
    [17786,"HCEP03730560","2024-03-31 14:45:00","9.5845","3.21362","24.47","4.986","7.52","0.413","3.672","0.03","0.22","29.3063","4.64604","52.78","0","SATNPRO1963","31.636","0.44312","5"],
    [17787,"HCEP03730560","2024-03-31 15:00:00","9.5847","3.21357","24.495","4.983","7.52","0.444","3.441","0.02","0.18","29.3056","4.64594","52.76","0","SATNPRO1963","31.855999999999998","0.44618","5"],
    [17788,"HCEP03730560","2024-03-31 15:15:00","9.5848","3.21357","24.526","4.974","7.52","0.405","3.629","0.02","0.29","29.3055","4.64593","52.66","0","SATNPRO1963","31.616","0.44282","5"],
    [17789,"HCEP03730560","2024-03-31 15:30:00","9.5849","3.21361","24.574","4.958","7.52","0.476","3.708","0.05","0.25","29.3059","4.64598","52.49","0","SATNPRO1963","31.684","0.44378","5"],
    [17790,"HCEP03730560","2024-03-31 15:45:00","9.585","3.21367","24.63","4.959","7.52","0.422","3.964","0.04","0.21","29.3062","4.64604","52.5","0","SATNPRO1963","31.534","0.4417","5"],
    [17791,"HCEP03730560","2024-03-31 16:00:00","9.5847","3.21382","24.709","4.962","7.52","0.487","4.557","0.02","0.38","29.3081","4.64631","52.53","0","SATNPRO1963","31.476","0.44084","5"],
    [17792,"HCEP03730560","2024-03-31 16:15:00","9.5841","3.21402","24.798","5.001","7.52","0.411","3.995","0.02","0.22","29.3105","4.64668","52.95","0","SATNPRO1963","31.46","0.44064","5"],
    [17793,"HCEP03730560","2024-03-31 16:30:00","9.5845","3.21449","24.926","5.024","7.53","0.471","4.043","0.03","0.17","29.3149","4.6473","53.19","0","SATNPRO1963","31.566","0.44216","5"],
    [17794,"HCEP03730560","2024-03-31 16:45:00","9.5833","3.21466","25.048","5.069","7.53","0.417","3.818","0.03","0.35","29.3175","4.6477","53.67","0","SATNPRO1963","31.908","0.44692","5"],
    [17795,"HCEP03730560","2024-03-31 17:00:00","9.5838","3.21431","25.149","5.057","7.53","0.463","3.566","0.03","0.24","29.3135","4.64713","53.54","0","SATNPRO1963","31.8","0.4454","5"],
    [17796,"HCEP03730560","2024-03-31 17:15:00","9.5847","3.21396","25.282","5.019","7.53","0.407","3.493","0.03","0.17","29.3093","4.64651","53.14","0","SATNPRO1963","31.762","0.44492","5"],
    [17797,"HCEP03730560","2024-03-31 17:30:00","9.5859","3.21387","25.415","4.978","7.53","0.449","3.642","0.03","0.16","29.3073","4.64622","52.7","0","SATNPRO1963","31.78","0.44516","5"],
    [17798,"HCEP03730560","2024-03-31 17:45:00","9.5862","3.21406","25.563","4.958","7.52","0.414","3.714","0.03","0.17","29.3089","4.64644","52.5","0","SATNPRO1963","31.862000000000002","0.4463","5"],
    [17799,"HCEP03730560","2024-03-31 18:00:00","9.5866","3.21415","25.705","4.935","7.52","0.467","3.915","0.04","0.3","29.3095","4.64653","52.25","0","SATNPRO1963","31.456","0.4406","5"],
    [17800,"HCEP03730560","2024-03-31 18:15:00","9.5872","3.214","25.876","4.898","7.52","0.417","3.93","0.02","0.3","29.3073","4.64622","51.85","0","SATNPRO1963","31.486","0.44102","5"],
    [17801,"HCEP03730560","2024-03-31 18:30:00","9.5884","3.21357","26.024","4.852","7.52","0.436","3.706","0.03","0.28","29.3019","4.64543","51.37","0","SATNPRO1963","31.490000000000002","0.44106","5"],
    [17802,"HCEP03730560","2024-03-31 18:45:00","9.589","3.2136","26.197","4.82","7.52","0.41","3.529","0.03","0.28","29.3016","4.6454","51.03","0","SATNPRO1963","31.412","0.43998","5"],
    [17803,"HCEP03730560","2024-03-31 19:00:00","9.5895","3.21324","26.372","4.792","7.51","0.441","3.393","0.03","0.21","29.2976","4.64483","50.73","0","SATNPRO1963","31.406000000000002","0.43992","5"],
    [17804,"HCEP03730560","2024-03-31 19:15:00","9.5902","3.21288","26.544","4.762","7.51","0.397","3.229","0.04","0.1","29.2933","4.64421","50.41","0","SATNPRO1963","31.522","0.44152","5"],
    [17805,"HCEP03730560","2024-03-31 19:30:00","9.5906","3.21297","26.703","4.745","7.51","0.457","3.389","0.04","0.15","29.2939","4.64429","50.23","0","SATNPRO1963","31.266000000000002","0.43796","5"],
    [17806,"HCEP03730560","2024-03-31 19:45:00","9.5906","3.21294","26.853","4.725","7.51","0.396","3.459","0.03","0.23","29.2935","4.64424","50.03","0","SATNPRO1963","31.448","0.44048","5"],
    [17807,"HCEP03730560","2024-03-31 20:00:00","9.5914","3.21261","26.976","4.705","7.51","0.505","3.48","0.05","0.11","29.2894","4.64365","49.81","0","SATNPRO1963","31.186","0.43682","5"],
    [17808,"HCEP03730560","2024-03-31 20:15:00","9.5916","3.21253","27.077","4.676","7.5","0.412","3.98","0.03","0.18","29.2885","4.64352","49.51","0","SATNPRO1963","31.324","0.43876","5"],
    [17809,"HCEP03730560","2024-03-31 20:30:00","9.5922","3.2122","27.176","4.666","7.5","0.459","3.448","0.04","0.2","29.2846","4.64296","49.4","0","SATNPRO1963","31.324","0.43876","5"],
    [17810,"HCEP03730560","2024-03-31 20:45:00","9.5929","3.21197","27.27","4.65","7.5","0.413","3.613","0.05","0.13","29.2816","4.64252","49.23","0","SATNPRO1963","31.418","0.44008","5"],
    [17811,"HCEP03730560","2024-03-31 21:00:00","9.5941","3.21168","27.357","4.63","7.5","0.467","3.477","0.05","0.08","29.2777","4.64194","49.01","0","SATNPRO1963","31.254","0.4378","5"],
    [17812,"HCEP03730560","2024-03-31 21:15:00","9.5946","3.21147","27.419","4.61","7.5","0.396","3.48","0.03","0.18","29.2752","4.64158","48.8","0","SATNPRO1963","31.336","0.43892","5"],
    [17813,"HCEP03730560","2024-03-31 21:30:00","9.5952","3.21121","27.458","4.588","7.5","0.447","3.513","0.03","0.1","29.2721","4.64113","48.57","0","SATNPRO1963","31.3","0.43842","5"],
    [17814,"HCEP03730560","2024-03-31 21:45:00","9.5955","3.21137","27.481","4.572","7.49","0.416","3.403","0.04","0.08","29.2734","4.64131","48.4","0","SATNPRO1963","31.381999999999998","0.43954","5"],
    [17815,"HCEP03730560","2024-03-31 22:00:00","9.5959","3.21095","27.507","4.575","7.49","0.446","3.703","0.03","0.2","29.2688","4.64065","48.43","0","SATNPRO1963","31.214000000000002","0.43718","5"],
    [17816,"HCEP03730560","2024-03-31 22:15:00","9.5955","3.21127","27.541","4.559","7.49","0.426","3.813","0.04","0.19","29.2724","4.64117","48.26","0","SATNPRO1963","31.224","0.4374","5"],
    [17817,"HCEP03730560","2024-03-31 22:30:00","9.595","3.21143","27.59","4.562","7.49","0.472","4.052","0.04","0.34","29.2743","4.64146","48.3","0","SATNPRO1963","31.07","0.4352","5"],
    [17818,"HCEP03730560","2024-03-31 22:45:00","9.595","3.21137","27.591","4.571","7.49","0.399","3.668","0.03","0.37","29.2738","4.64139","48.39","0","SATNPRO1963","31.244","0.43762","5"],
    [17819,"HCEP03730560","2024-03-31 23:00:00","9.5945","3.21154","27.582","4.581","7.49","0.477","3.64","0.05","0.25","29.2759","4.6417","48.5","0","SATNPRO1963","31.376","0.43948","5"],
    [17820,"HCEP03730560","2024-03-31 23:15:00","9.5946","3.21128","27.583","4.603","7.49","0.394","3.178","0.04","0.16","29.2731","4.6413","48.73","0","SATNPRO1963","31.088","0.43544","5"],
    [17821,"HCEP03730560","2024-03-31 23:30:00","9.5937","3.21131","27.557","4.633","7.5","0.449","3.307","0.03","0.2","29.2742","4.64147","49.05","0","SATNPRO1963","31.704","0.44406","5"],
    [17822,"HCEP03730560","2024-03-31 23:45:00","9.5934","3.21166","27.552","4.631","7.5","0.397","3.158","0.04","0.1","29.278","4.64201","49.03","0","SATNPRO1963","31.418","0.44006","5"],
    [17823,"HCEP03730560","2024-04-01 00:00:00","9.5923","3.21196","27.494","4.647","7.5","0.446","3.284","0.03","0.16","29.282","4.6426","49.2","0","SATNPRO1963","31.424","0.44014","5"],
    [17824,"HCEP03730560","2024-04-01 00:15:00","9.5917","3.21233","27.449","4.679","7.5","0.465","4.073","0.14","0.67","29.2862","4.64321","49.53","0","SATNPRO1963","31.374","0.43946","5"],
    [17825,"HCEP03730560","2024-04-01 00:30:00","9.5912","3.21233","27.409","4.711","7.5","0.439","3.121","0.04","0.19","29.2866","4.64327","49.87","0","SATNPRO1963","31.426","0.4402","5"],
    [17826,"HCEP03730560","2024-04-01 00:45:00","9.5902","3.2131","27.376","4.739","7.5","0.426","3.527","0.07","0.2","29.2952","4.64452","50.17","0","SATNPRO1963","31.446","0.44048","5"],
    [17827,"HCEP03730560","2024-04-01 01:00:00","9.5896","3.21408","27.321","4.758","7.5","0.468","4.526","0.03","0.3","29.3056","4.64602","50.38","0","SATNPRO1963","31.398","0.4398","5"],
    [17828,"HCEP03730560","2024-04-01 01:15:00","9.5893","3.21418","27.26","4.759","7.51","0.44","5.047","0.03","0.35","29.3069","4.64621","50.38","0","SATNPRO1963","31.366","0.43934","5"],
    [17829,"HCEP03730560","2024-04-01 01:30:00","9.5895","3.21431","27.222","4.753","7.51","0.488","5.137","0.04","0.35","29.3081","4.64637","50.33","0","SATNPRO1963","31.48","0.44092","5"],
    [17830,"HCEP03730560","2024-04-01 01:45:00","9.5885","3.21437","27.183","4.791","7.51","0.422","4.984","0.05","1.27","29.3095","4.64659","50.72","0","SATNPRO1963","31.464","0.4407","5"],
    [17831,"HCEP03730560","2024-04-01 02:00:00","9.588","3.2145","27.14","4.823","7.51","0.469","4.348","0.05","0.3","29.3113","4.64685","51.07","0","SATNPRO1963","31.546","0.44188","5"],
    [17832,"HCEP03730560","2024-04-01 02:15:00","9.5872","3.21456","27.089","4.841","7.51","0.415","4.308","0.03","0.38","29.3125","4.64704","51.26","0","SATNPRO1963","31.548000000000002","0.44184","5"],
    [17833,"HCEP03730560","2024-04-01 02:30:00","9.5873","3.21473","27.033","4.842","7.51","0.46","4.619","0.02","0.24","29.3141","4.64726","51.26","0","SATNPRO1963","31.465999999999998","0.44074","5"],
    [17834,"HCEP03730560","2024-04-01 02:45:00","9.5868","3.21471","27.005","4.872","7.51","0.41","4.754","0.04","0.49","29.3144","4.64731","51.59","0","SATNPRO1963","31.688","0.44388","5"],
    [17835,"HCEP03730560","2024-04-01 03:00:00","9.5863","3.2146","26.988","4.889","7.52","0.441","3.99","0.03","0.23","29.3136","4.64721","51.77","0","SATNPRO1963","31.498","0.4412","5"],
    [17836,"HCEP03730560","2024-04-01 03:15:00","9.5865","3.21456","26.963","4.895","7.52","0.41","3.619","0.08","0.26","29.3132","4.64714","51.83","0","SATNPRO1963","31.616","0.44284","5"],
    [17837,"HCEP03730560","2024-04-01 03:30:00","9.5862","3.21433","26.934","4.894","7.52","0.431","3.456","0.05","0.12","29.3111","4.64684","51.82","0","SATNPRO1963","31.483999999999998","0.441","5"],
    [17838,"HCEP03730560","2024-04-01 03:45:00","9.5869","3.21433","26.926","4.866","7.52","0.377","3.598","0.03","0.16","29.3105","4.64674","51.52","0","SATNPRO1963","31.59","0.44244","5"],
    [17839,"HCEP03730560","2024-04-01 04:00:00","9.5875","3.21409","26.908","4.84","7.51","0.425","3.654","0.04","0.35","29.3077","4.64633","51.24","0","SATNPRO1963","31.541999999999998","0.4418","5"],
    [17840,"HCEP03730560","2024-04-01 04:15:00","9.5881","3.21346","26.919","4.823","7.51","0.371","3.486","0.03","0.18","29.3008","4.64534","51.06","0","SATNPRO1963","31.616","0.44286","5"],
    [17841,"HCEP03730560","2024-04-01 04:30:00","9.5888","3.21337","26.937","4.783","7.51","0.438","3.974","0.06","0.37","29.2993","4.6451","50.64","0","SATNPRO1963","31.508","0.44136","5"],
    [17842,"HCEP03730560","2024-04-01 04:45:00","9.5893","3.21303","26.947","4.732","7.51","0.382","4.157","0.02","0.22","29.2954","4.64455","50.1","0","SATNPRO1963","31.534","0.44174","5"],
    [17843,"HCEP03730560","2024-04-01 05:00:00","9.5896","3.21268","26.964","4.712","7.5","0.448","4.058","0.03","0.54","29.2916","4.64399","49.89","0","SATNPRO1963","31.684","0.44384","5"],
    [17844,"HCEP03730560","2024-04-01 05:15:00","9.5893","3.2119","26.995","4.698","7.5","0.379","3.556","0.03","0.2","29.284","4.64291","49.73","0","SATNPRO1963","31.578","0.44232","5"],
    [17845,"HCEP03730560","2024-04-01 05:30:00","9.589","3.21119","26.997","4.688","7.5","0.434","3.599","0.04","0.38","29.2771","4.64193","49.63","0","SATNPRO1963","31.419999999999998","0.44008","5"],
    [17846,"HCEP03730560","2024-04-01 05:45:00","9.589","3.21098","27.016","4.668","7.5","0.401","3.949","0.03","0.46","29.275","4.64163","49.42","0","SATNPRO1963","31.38","0.43956","5"],
    [17847,"HCEP03730560","2024-04-01 06:00:00","9.5884","3.21062","27.045","4.691","7.5","0.449","3.941","0.03","0.27","29.2718","4.64118","49.66","0","SATNPRO1963","31.392","0.43976","5"],
    [17848,"HCEP03730560","2024-04-01 06:15:00","9.5884","3.21087","27.074","4.676","7.5","0.407","3.84","0.04","0.27","29.2743","4.64154","49.5","0","SATNPRO1963","31.296","0.43834","5"],
    [17849,"HCEP03730560","2024-04-01 06:30:00","9.5887","3.21119","27.093","4.654","7.5","0.47","4.44","0.04","0.32","29.2773","4.64197","49.27","0","SATNPRO1963","31.382","0.43956","5"],
    [17850,"HCEP03730560","2024-04-01 06:45:00","9.5885","3.21135","27.116","4.644","7.5","0.427","4.463","0.03","0.22","29.2791","4.64223","49.16","0","SATNPRO1963","31.12","0.43592","5"],
    [17851,"HCEP03730560","2024-04-01 07:00:00","9.5874","3.21144","27.147","4.654","7.5","0.472","4.31","0.03","0.35","29.2808","4.6425","49.26","0","SATNPRO1963","31.368000000000002","0.43936","5"],
    [17852,"HCEP03730560","2024-04-01 07:15:00","9.5857","3.21164","27.176","4.721","7.5","0.406","3.922","0.03","0.43","29.2842","4.64301","49.97","0","SATNPRO1963","31.496000000000002","0.44118","5"],
    [17853,"HCEP03730560","2024-04-01 07:30:00","9.5856","3.21187","27.183","4.721","7.5","0.459","3.765","0.04","0.24","29.2866","4.64336","49.98","0","SATNPRO1963","31.342000000000002","0.43898","5"],
    [17854,"HCEP03730560","2024-04-01 07:45:00","9.5858","3.21208","27.192","4.716","7.5","0.419","4.244","0.02","0.33","29.2886","4.64364","49.92","0","SATNPRO1963","31.374","0.43946","5"],
    [17855,"HCEP03730560","2024-04-01 08:00:00","9.5855","3.21228","27.191","4.712","7.5","0.475","4.371","0.06","0.33","29.2909","4.64398","49.88","0","SATNPRO1963","31.28","0.43812","5"],
    [17856,"HCEP03730560","2024-04-01 08:15:00","9.5852","3.21248","27.195","4.735","7.5","0.408","3.855","0.02","0.26","29.2931","4.6443","50.13","0","SATNPRO1963","31.444","0.44042","5"],
    [17857,"HCEP03730560","2024-04-01 08:30:00","9.5841","3.21253","27.218","4.767","7.5","0.464","3.736","0.04","0.2","29.2945","4.64452","50.46","0","SATNPRO1963","31.216","0.43718","5"],
    [17858,"HCEP03730560","2024-04-01 08:45:00","9.5844","3.21253","27.198","4.772","7.51","0.401","3.948","0.02","0.24","29.2942","4.64448","50.52","0","SATNPRO1963","31.336","0.43892","5"],
    [17859,"HCEP03730560","2024-04-01 09:00:00","9.5841","3.21264","27.133","4.768","7.51","0.437","3.933","0.02","0.17","29.2956","4.64468","50.47","0","SATNPRO1963","31.39","0.4397","5"],
    [17860,"HCEP03730560","2024-04-01 09:15:00","9.5834","3.21272","27.111","4.803","7.51","0.368","3.349","0.02","0.2","29.2971","4.64489","50.85","0","SATNPRO1963","31.496","0.44116","5"],
    [17861,"HCEP03730560","2024-04-01 09:30:00","9.5834","3.21267","27.076","4.81","7.51","0.428","3.377","0.02","0.18","29.2966","4.64483","50.92","0","SATNPRO1963","31.494","0.44116","5"],
    [17862,"HCEP03730560","2024-04-01 09:45:00","9.5835","3.21262","27.017","4.794","7.51","0.368","3.336","0.02","0.17","29.2959","4.64472","50.74","0","SATNPRO1963","31.444","0.44046","5"],
    [17863,"HCEP03730560","2024-04-01 10:00:00","9.584","3.21264","26.924","4.784","7.51","0.431","3.486","0.02","0.1","29.2958","4.64469","50.64","0","SATNPRO1963","31.29","0.43828","5"],
    [17864,"HCEP03730560","2024-04-01 10:15:00","9.5845","3.21255","26.892","4.759","7.51","0.399","3.725","0.04","0.12","29.2945","4.64449","50.38","0","SATNPRO1963","31.3","0.4384","5"],
    [17865,"HCEP03730560","2024-04-01 10:30:00","9.5838","3.21247","26.791","4.768","7.51","0.426","3.448","0.03","0.15","29.2942","4.64446","50.48","0","SATNPRO1963","31.312","0.4386","5"],
    [17866,"HCEP03730560","2024-04-01 10:45:00","9.5839","3.21232","26.702","4.768","7.51","0.365","3.234","0.03","0.14","29.2928","4.64425","50.48","0","SATNPRO1963","31.452","0.44056","5"],
    [17867,"HCEP03730560","2024-04-01 11:00:00","9.584","3.21223","26.571","4.758","7.5","0.425","3.435","0.03","0.25","29.2918","4.6441","50.36","0","SATNPRO1963","31.406","0.4399","5"],
    [17868,"HCEP03730560","2024-04-01 11:15:00","9.584","3.2122","26.44","4.749","7.5","0.363","3.217","0.03","0.14","29.2916","4.64407","50.28","0","SATNPRO1963","31.24","0.43758","5"],
    [17869,"HCEP03730560","2024-04-01 11:30:00","9.5841","3.21211","26.285","4.744","7.5","0.407","3.243","0.02","0.09","29.2906","4.6439","50.21","0","SATNPRO1963","31.424","0.44012","5"],
    [17870,"HCEP03730560","2024-04-01 11:45:00","9.584","3.21194","26.15","4.753","7.5","0.366","3.171","0.03","0.12","29.2891","4.64369","50.31","0","SATNPRO1963","31.332","0.43886","5"],
    [17871,"HCEP03730560","2024-04-01 12:00:00","9.584","3.21187","26.001","4.75","7.5","0.406","3.183","0.02","0.15","29.2885","4.64359","50.28","0","SATNPRO1963","31.374","0.43946","5"],
    [17872,"HCEP03730560","2024-04-01 12:15:00","9.5835","3.2118","25.827","4.754","7.5","0.357","3.007","0.02","0.19","29.2881","4.64354","50.32","0","SATNPRO1963","31.494","0.44116","5"],
    [17873,"HCEP03730560","2024-04-01 12:30:00","9.5838","3.21176","25.635","4.752","7.5","0.417","2.995","0.04","0.08","29.2876","4.64345","50.31","0","SATNPRO1963","31.644000000000002","0.44324","5"],
    [17874,"HCEP03730560","2024-04-01 12:45:00","9.5835","3.21172","25.495","4.747","7.5","0.369","2.98","0.04","0.13","29.2875","4.64343","50.25","0","SATNPRO1963","31.624","0.44294","5"],
    [17875,"HCEP03730560","2024-04-01 13:00:00","9.5835","3.21166","25.373","4.762","7.5","0.399","3.108","0.02","0.13","29.2869","4.64333","50.4","0","SATNPRO1963","31.364","0.4393","5"],
    [17876,"HCEP03730560","2024-04-01 13:15:00","9.5865","3.21227","25.212","4.609","7.5","0.415","4.397","0.03","0.22","29.2907","4.64382","48.79","0","SATNPRO1963","30.962","0.4337","5"],
    [17877,"HCEP03730560","2024-04-01 13:30:00","9.5851","3.21192","25.071","4.662","7.49","0.431","3.877","0.02","0.18","29.2884","4.6435","49.35","0","SATNPRO1963","31.296","0.43834","5"],
    [17878,"HCEP03730560","2024-04-01 13:45:00","9.585","3.21203","24.938","4.661","7.49","0.391","3.899","0.03","0.2","29.2896","4.64367","49.34","0","SATNPRO1963","31.32","0.43868","5"],
    [17879,"HCEP03730560","2024-04-01 14:00:00","9.585","3.2122","24.803","4.695","7.49","0.42","3.549","0.02","0.18","29.2914","4.64392","49.7","0","SATNPRO1963","31.291999999999998","0.4383","5"],
    [17880,"HCEP03730560","2024-04-01 14:15:00","9.5846","3.21211","24.696","4.715","7.49","0.363","3.404","0.03","0.17","29.2909","4.64386","49.91","0","SATNPRO1963","31.288","0.43826","5"],
    [17881,"HCEP03730560","2024-04-01 14:30:00","9.584","3.21264","24.603","4.726","7.5","0.426","3.665","0.02","0.18","29.2967","4.64469","50.02","0","SATNPRO1963","31.364","0.4393","5"],
    [17882,"HCEP03730560","2024-04-01 14:45:00","9.5843","3.2126","24.52","4.741","7.5","0.391","3.582","0.09","0.27","29.2962","4.6446","50.19","0","SATNPRO1963","31.468","0.44078","5"],
    [17883,"HCEP03730560","2024-04-01 15:00:00","9.5851","3.21321","24.468","4.683","7.5","0.431","4.108","0.03","0.21","29.3016","4.64537","49.58","0","SATNPRO1963","31.182","0.43674","5"],
    [17884,"HCEP03730560","2024-04-01 15:15:00","9.5842","3.21296","24.421","4.693","7.5","0.364","3.57","0.02","0.23","29.2999","4.64513","49.69","0","SATNPRO1963","31.054000000000002","0.43498","5"],
    [17885,"HCEP03730560","2024-04-01 15:30:00","9.5857","3.21333","24.436","4.673","7.49","0.427","4.152","0.02","0.21","29.3023","4.64545","49.48","0","SATNPRO1963","31.192","0.43692","5"],
    [17886,"HCEP03730560","2024-04-01 15:45:00","9.5854","3.21333","24.474","4.673","7.49","0.374","4.088","0.02","0.16","29.3026","4.6455","49.47","0","SATNPRO1963","31.082","0.43536","5"],
    [17887,"HCEP03730560","2024-04-01 16:00:00","9.5862","3.21345","24.501","4.671","7.49","0.426","4.114","0.02","0.19","29.3032","4.64557","49.45","0","SATNPRO1963","31.372","0.4394","5"],
    [17888,"HCEP03730560","2024-04-01 16:15:00","9.5861","3.21339","24.546","4.658","7.49","0.386","4.515","0.03","0.41","29.3026","4.64549","49.31","0","SATNPRO1963","31.27","0.43796","5"],
    [17889,"HCEP03730560","2024-04-01 16:30:00","9.586","3.21329","24.589","4.675","7.49","0.417","4.026","0.03","0.19","29.3016","4.64535","49.49","0","SATNPRO1963","31.324","0.43872","5"],
    [17890,"HCEP03730560","2024-04-01 16:45:00","9.5866","3.21322","24.651","4.677","7.49","0.368","4.187","0.01","0.27","29.3004","4.64518","49.51","0","SATNPRO1963","31.201999999999998","0.43704","5"],
    [17891,"HCEP03730560","2024-04-01 17:00:00","9.5866","3.21313","24.716","4.658","7.49","0.425","4.39","0.02","0.16","29.2995","4.64505","49.32","0","SATNPRO1963","31.29","0.4383","5"],
    [17892,"HCEP03730560","2024-04-01 17:15:00","9.5861","3.21291","24.794","4.673","7.49","0.381","4.258","0.03","0.38","29.2977","4.6448","49.47","0","SATNPRO1963","31.488","0.44108","5"],
    [17893,"HCEP03730560","2024-04-01 17:30:00","9.5863","3.21289","24.862","4.672","7.49","0.435","4.656","0.06","1.6","29.2973","4.64475","49.46","0","SATNPRO1963","31.318","0.43866","5"],
    [17894,"HCEP03730560","2024-04-01 17:45:00","9.5869","3.21315","25.007","4.678","7.5","0.369","4.43","0.02","0.2","29.2994","4.64504","49.53","0","SATNPRO1963","31.314","0.4386","5"],
    [17895,"HCEP03730560","2024-04-01 18:00:00","9.5863","3.21269","25.105","4.686","7.5","0.417","4.064","0.03","0.24","29.2952","4.64446","49.61","0","SATNPRO1963","31.366","0.43934","5"],
    [17896,"HCEP03730560","2024-04-01 18:15:00","9.5871","3.21236","25.223","4.671","7.5","0.367","3.816","0.03","0.23","29.2912","4.64387","49.45","0","SATNPRO1963","31.158","0.43638","5"],
    [17897,"HCEP03730560","2024-04-01 18:30:00","9.5869","3.21245","25.353","4.662","7.49","0.41","3.965","0.02","0.13","29.2921","4.64402","49.36","0","SATNPRO1963","31.476","0.44088","5"],
    [17898,"HCEP03730560","2024-04-01 18:45:00","9.588","3.21204","25.504","4.647","7.49","0.374","4.162","0.02","0.34","29.287","4.64328","49.2","0","SATNPRO1963","31.312","0.4386","5"],
    [17899,"HCEP03730560","2024-04-01 19:00:00","9.5897","3.2123","25.67","4.576","7.49","0.442","4.744","0.03","0.33","29.2882","4.64344","48.45","0","SATNPRO1963","31.39","0.43964","5"],
    [17900,"HCEP03730560","2024-04-01 19:15:00","9.5901","3.21216","25.809","4.553","7.49","0.386","4.679","0.02","0.26","29.2864","4.64317","48.2","0","SATNPRO1963","31.24","0.4376","5"],
    [17901,"HCEP03730560","2024-04-01 19:30:00","9.5905","3.2122","25.961","4.555","7.49","0.425","4.554","0.01","0.24","29.2864","4.64318","48.23","0","SATNPRO1963","31.258","0.43784","5"],
    [17902,"HCEP03730560","2024-04-01 19:45:00","9.5906","3.21226","26.135","4.563","7.49","0.38","4.497","0.02","0.21","29.2869","4.64325","48.31","0","SATNPRO1963","31.344","0.43902","5"],
    [17903,"HCEP03730560","2024-04-01 20:00:00","9.5909","3.21217","26.282","4.571","7.49","0.414","4.304","0.01","0.23","29.2857","4.64308","48.39","0","SATNPRO1963","31.272","0.43802","5"],
    [17904,"HCEP03730560","2024-04-01 20:15:00","9.5907","3.21223","26.433","4.602","7.49","0.363","4.179","0.01","0.21","29.2865","4.64321","48.72","0","SATNPRO1963","31.344","0.43906","5"],
    [17905,"HCEP03730560","2024-04-01 20:30:00","9.5905","3.21221","26.579","4.61","7.49","0.423","4.49","0.03","0.53","29.2863","4.6432","48.81","0","SATNPRO1963","31.404","0.43984","5"],
    [17906,"HCEP03730560","2024-04-01 20:45:00","9.5912","3.21235","26.71","4.591","7.49","0.373","4.433","0.03","0.34","29.2871","4.64331","48.6","0","SATNPRO1963","31.35","0.43912","5"],
    [17907,"HCEP03730560","2024-04-01 21:00:00","9.5914","3.21207","26.839","4.578","7.49","0.434","4.43","0.02","0.24","29.284","4.64287","48.47","0","SATNPRO1963","31.394000000000002","0.43978","5"],
    [17908,"HCEP03730560","2024-04-01 21:15:00","9.592","3.21099","26.972","4.561","7.49","0.391","4.619","0.03","0.29","29.2726","4.64123","48.29","0","SATNPRO1963","31.462","0.44066","5"],
    [17909,"HCEP03730560","2024-04-01 21:30:00","9.5929","3.21162","27.077","4.54","7.49","0.449","4.554","0.06","0.23","29.2782","4.64203","48.06","0","SATNPRO1963","31.444","0.44042","5"],
    [17910,"HCEP03730560","2024-04-01 21:45:00","9.5933","3.21163","27.167","4.516","7.49","0.4","4.568","0.04","0.28","29.278","4.64199","47.81","0","SATNPRO1963","31.48","0.44096","5"],
    [17911,"HCEP03730560","2024-04-01 22:00:00","9.5937","3.21139","27.226","4.51","7.49","0.462","6.805","0.09","7.36","29.2752","4.64159","47.74","0","SATNPRO1963","31.358","0.43924","5"],
    [17912,"HCEP03730560","2024-04-01 22:15:00","9.5939","3.21127","27.311","4.5","7.49","0.401","5.377","0.07","2.41","29.2738","4.64138","47.64","0","SATNPRO1963","31.424","0.44014","5"],
    [17913,"HCEP03730560","2024-04-01 22:30:00","9.5953","3.21086","27.367","4.459","7.48","0.483","5.068","0.13","1.9","29.2684","4.64059","47.2","0","SATNPRO1963","31.338","0.43892","5"],
    [17914,"HCEP03730560","2024-04-01 22:45:00","9.5963","3.21049","27.398","4.423","7.48","0.407","4.346","0.06","0.29","29.2639","4.63993","46.83","0","SATNPRO1963","31.316","0.43864","5"],
    [17915,"HCEP03730560","2024-04-01 23:00:00","9.5969","3.21006","27.472","4.399","7.48","0.5","4.733","0.15","0.7","29.259","4.63922","46.57","0","SATNPRO1963","31.204","0.43706","5"],
    [17916,"HCEP03730560","2024-04-01 23:15:00","9.5975","3.20971","27.521","4.373","7.48","0.405","4.723","0.04","0.39","29.255","4.63864","46.3","0","SATNPRO1963","31.248","0.43768","5"],
    [17917,"HCEP03730560","2024-04-01 23:30:00","9.5983","3.20892","27.557","4.348","7.47","0.472","5.377","0.05","2.23","29.2463","4.63739","46.03","0","SATNPRO1963","31.182000000000002","0.43678","5"],
    [17918,"HCEP03730560","2024-04-01 23:45:00","9.5993","3.20848","27.575","4.327","7.47","0.439","6.202","0.06","4.87","29.2411","4.63663","45.81","0","SATNPRO1963","31.176000000000002","0.43666","5"],
    [17919,"HCEP03730560","2024-04-02 00:00:00","9.5999","3.20818","27.598","4.311","7.47","0.469","4.283","0.03","0.38","29.2375","4.6361","45.63","0","SATNPRO1963","31.124","0.43592","5"],
    [17920,"HCEP03730560","2024-04-02 00:15:00","9.6005","3.20793","27.614","4.275","7.47","0.436","4.66","0.03","0.31","29.2345","4.63566","45.25","0","SATNPRO1963","31.064","0.43512","5"],
    [17921,"HCEP03730560","2024-04-02 00:30:00","9.6014","3.20776","27.627","4.25","7.47","0.484","4.761","0.04","0.42","29.2321","4.6353","44.99","0","SATNPRO1963","31.366","0.43934","5"],
    [17922,"HCEP03730560","2024-04-02 00:45:00","9.6019","3.20762","27.627","4.23","7.47","0.407","3.828","0.03","0.15","29.2304","4.63504","44.77","0","SATNPRO1963","31.166","0.43652","5"],
    [17923,"HCEP03730560","2024-04-02 01:00:00","9.6014","3.20768","27.621","4.241","7.47","0.452","4.168","0.03","0.27","29.2313","4.63518","44.9","0","SATNPRO1963","30.778","0.43112","5"],
    [17924,"HCEP03730560","2024-04-02 01:15:00","9.6003","3.20808","27.587","4.268","7.47","0.393","4.171","0.02","0.37","29.2362","4.63591","45.18","0","SATNPRO1963","31.158","0.43644","5"],
    [17925,"HCEP03730560","2024-04-02 01:30:00","9.5996","3.20843","27.566","4.273","7.47","0.477","4.197","0.05","0.13","29.2404","4.63651","45.23","0","SATNPRO1963","30.588","0.42842","5"],
    [17926,"HCEP03730560","2024-04-02 01:45:00","9.5994","3.2089","27.525","4.279","7.47","0.486","5.563","0.11","1.07","29.2453","4.63722","45.3","0","SATNPRO1963","31.056","0.435","5"],
    [17927,"HCEP03730560","2024-04-02 02:00:00","9.5987","3.2093","27.479","4.303","7.47","0.448","4.419","0.04","0.22","29.25","4.6379","45.55","0","SATNPRO1963","31.134","0.43606","5"],
    [17928,"HCEP03730560","2024-04-02 02:15:00","9.5983","3.20951","27.394","4.305","7.47","0.424","4.733","0.04","0.36","29.2523","4.63824","45.57","0","SATNPRO1963","31.306","0.43846","5"],
    [17929,"HCEP03730560","2024-04-02 02:30:00","9.5986","3.20945","27.31","4.31","7.47","0.447","4.441","0.03","0.44","29.2516","4.63812","45.63","0","SATNPRO1963","31.14","0.43618","5"],
    [17930,"HCEP03730560","2024-04-02 02:45:00","9.599","3.20945","27.255","4.294","7.47","0.435","5.017","0.05","0.4","29.2513","4.63807","45.46","0","SATNPRO1963","31","0.43422","5"],
    [17931,"HCEP03730560","2024-04-02 03:00:00","9.5986","3.20929","27.194","4.302","7.47","0.455","4.442","0.06","0.35","29.25","4.63788","45.54","0","SATNPRO1963","31.09","0.43548","5"],
    [17932,"HCEP03730560","2024-04-02 03:15:00","9.5982","3.2093","27.154","4.315","7.47","0.443","4.579","0.25","0.27","29.2504","4.63796","45.68","0","SATNPRO1963","31.216","0.4372","5"],
    [17933,"HCEP03730560","2024-04-02 03:30:00","9.5983","3.20933","27.128","4.316","7.47","0.45","4.499","0.02","0.31","29.2508","4.638","45.69","0","SATNPRO1963","31.164","0.43652","5"],
    [17934,"HCEP03730560","2024-04-02 03:45:00","9.5976","3.20951","27.088","4.344","7.47","0.388","3.956","0.03","0.27","29.2531","4.63835","45.98","0","SATNPRO1963","31.178","0.43672","5"],
    [17935,"HCEP03730560","2024-04-02 04:00:00","9.5975","3.20964","27.042","4.356","7.47","0.443","4.154","0.03","0.28","29.2544","4.63853","46.12","0","SATNPRO1963","31.124","0.43592","5"],
    [17936,"HCEP03730560","2024-04-02 04:15:00","9.5972","3.20975","27.008","4.355","7.47","0.404","3.907","0.04","0.38","29.2558","4.63874","46.1","0","SATNPRO1963","31.364","0.43928","5"],
    [17937,"HCEP03730560","2024-04-02 04:30:00","9.5969","3.20995","26.953","4.362","7.47","0.439","3.903","0.03","0.24","29.2581","4.63907","46.18","0","SATNPRO1963","31.272000000000002","0.43804","5"],
    [17938,"HCEP03730560","2024-04-02 04:45:00","9.5968","3.21021","26.943","4.376","7.47","0.403","4.044","0.04","0.33","29.2608","4.63945","46.33","0","SATNPRO1963","31.27","0.43796","5"],
    [17939,"HCEP03730560","2024-04-02 05:00:00","9.5962","3.21039","26.932","4.398","7.47","0.416","3.849","0.02","0.43","29.2632","4.63981","46.56","0","SATNPRO1963","31.152","0.43634","5"],
    [17940,"HCEP03730560","2024-04-02 05:15:00","9.5956","3.21059","26.931","4.422","7.47","0.398","3.912","0.04","0.28","29.2657","4.64017","46.81","0","SATNPRO1963","31.376","0.43952","5"],
    [17941,"HCEP03730560","2024-04-02 05:30:00","9.5951","3.21086","26.921","4.444","7.48","0.425","4.016","0.02","0.21","29.2688","4.64062","47.04","0","SATNPRO1963","31.228","0.43742","5"],
    [17942,"HCEP03730560","2024-04-02 05:45:00","9.5942","3.211","26.924","4.466","7.48","0.368","3.885","0.03","0.38","29.271","4.64096","47.28","0","SATNPRO1963","31.32","0.43868","5"],
    [17943,"HCEP03730560","2024-04-02 06:00:00","9.5942","3.21119","26.908","4.472","7.48","0.428","4.37","0.02","0.61","29.2729","4.64123","47.35","0","SATNPRO1963","31.268","0.438","5"],
    [17944,"HCEP03730560","2024-04-02 06:15:00","9.5937","3.21129","26.904","4.478","7.48","0.393","4.338","0.03","0.35","29.2743","4.64144","47.41","0","SATNPRO1963","31.516000000000002","0.4414","5"],
    [17945,"HCEP03730560","2024-04-02 06:30:00","9.5935","3.21132","26.928","4.48","7.48","0.443","4.29","0.05","0.34","29.2748","4.64152","47.43","0","SATNPRO1963","31.252000000000002","0.43776","5"],
    [17946,"HCEP03730560","2024-04-02 06:45:00","9.5925","3.21138","26.926","4.493","7.48","0.385","4.095","0.03","0.23","29.2762","4.64173","47.57","0","SATNPRO1963","31.316","0.43866","5"],
    [17947,"HCEP03730560","2024-04-02 07:00:00","9.5917","3.21146","26.94","4.513","7.48","0.432","3.9","0.03","0.2","29.2776","4.64195","47.77","0","SATNPRO1963","31.302","0.43848","5"],
    [17948,"HCEP03730560","2024-04-02 07:15:00","9.5911","3.21157","26.953","4.52","7.48","0.385","3.869","0.03","0.37","29.2793","4.6422","47.85","0","SATNPRO1963","31.294","0.4383","5"],
    [17949,"HCEP03730560","2024-04-02 07:30:00","9.5911","3.2117","26.973","4.534","7.48","0.454","3.985","0.03","0.28","29.2805","4.64238","48","0","SATNPRO1963","31.34","0.43896","5"],
    [17950,"HCEP03730560","2024-04-02 07:45:00","9.5905","3.21193","26.98","4.55","7.48","0.389","3.876","0.03","0.34","29.2833","4.64278","48.17","0","SATNPRO1963","31.314","0.4386","5"],
    [17951,"HCEP03730560","2024-04-02 08:00:00","9.5897","3.21214","26.986","4.585","7.49","0.412","3.536","0.03","0.29","29.2861","4.6432","48.53","0","SATNPRO1963","31.336000000000002","0.43894","5"],
    [17952,"HCEP03730560","2024-04-02 08:15:00","9.5888","3.21235","26.995","4.607","7.49","0.362","3.388","0.03","0.18","29.2889","4.64362","48.78","0","SATNPRO1963","31.45","0.4405","5"],
    [17953,"HCEP03730560","2024-04-02 08:30:00","9.5892","3.21242","26.997","4.615","7.49","0.422","3.483","0.05","0.2","29.2893","4.64367","48.85","0","SATNPRO1963","31.35","0.43914","5"],
    [17954,"HCEP03730560","2024-04-02 08:45:00","9.5888","3.21244","26.988","4.601","7.49","0.389","3.541","0.05","0.24","29.2898","4.64376","48.71","0","SATNPRO1963","31.222","0.4373","5"],
    [17955,"HCEP03730560","2024-04-02 09:00:00","9.589","3.2125","26.995","4.596","7.49","0.416","3.667","0.02","0.24","29.2903","4.64382","48.66","0","SATNPRO1963","31.444","0.44044","5"],
    [17956,"HCEP03730560","2024-04-02 09:15:00","9.589","3.2125","26.994","4.574","7.49","0.379","3.65","0.03","0.22","29.2902","4.64381","48.43","0","SATNPRO1963","31.248","0.4377","5"],
    [17957,"HCEP03730560","2024-04-02 09:30:00","9.589","3.21263","26.98","4.565","7.49","0.425","3.919","0.02","0.19","29.2916","4.64401","48.33","0","SATNPRO1963","31.124","0.43594","5"],
    [17958,"HCEP03730560","2024-04-02 09:45:00","9.5889","3.21282","26.959","4.572","7.49","0.39","4.057","0.02","0.2","29.2936","4.6443","48.4","0","SATNPRO1963","31.306","0.4385","5"],
    [17959,"HCEP03730560","2024-04-02 10:00:00","9.5891","3.21314","26.943","4.589","7.49","0.438","4.146","0.03","0.22","29.2967","4.64473","48.58","0","SATNPRO1963","31.06","0.43506","5"],
    [17960,"HCEP03730560","2024-04-02 10:15:00","9.589","3.2133","26.929","4.601","7.49","0.391","4.07","0.06","0.36","29.2984","4.64498","48.71","0","SATNPRO1963","31.28","0.43814","5"],
    [17961,"HCEP03730560","2024-04-02 10:30:00","9.5868","3.21321","26.892","4.635","7.49","0.409","3.992","0.02","0.3","29.2993","4.64514","49.07","0","SATNPRO1963","31.212","0.43714","5"],
    [17962,"HCEP03730560","2024-04-02 10:45:00","9.5848","3.21305","26.842","4.695","7.5","0.367","3.732","0.02","0.22","29.2994","4.64518","49.7","0","SATNPRO1963","31.236","0.43748","5"],
    [17963,"HCEP03730560","2024-04-02 11:00:00","9.5853","3.2131","26.787","4.691","7.5","0.402","3.675","0.03","0.18","29.2995","4.64519","49.67","0","SATNPRO1963","31.446","0.44042","5"],
    [17964,"HCEP03730560","2024-04-02 11:15:00","9.5848","3.2131","26.724","4.695","7.5","0.357","3.854","0.03","0.24","29.2999","4.64525","49.71","0","SATNPRO1963","31.344","0.43904","5"],
    [17965,"HCEP03730560","2024-04-02 11:30:00","9.5819","3.21279","26.648","4.734","7.5","0.419","3.469","0.04","0.12","29.2992","4.6452","50.11","0","SATNPRO1963","31.176","0.43666","5"],
    [17966,"HCEP03730560","2024-04-02 11:45:00","9.5782","3.21247","26.554","4.793","7.5","0.367","3.542","0.04","0.29","29.2989","4.64522","50.74","0","SATNPRO1963","31.39","0.43968","5"],
    [17967,"HCEP03730560","2024-04-02 12:00:00","9.5789","3.21257","26.437","4.806","7.51","0.404","3.312","0.06","0.19","29.2994","4.64527","50.87","0","SATNPRO1963","31.25","0.4377","5"],
    [17968,"HCEP03730560","2024-04-02 12:15:00","9.5807","3.2127","26.325","4.783","7.51","0.355","3.538","0.02","0.3","29.2994","4.64523","50.63","0","SATNPRO1963","31.366","0.43936","5"],
    [17969,"HCEP03730560","2024-04-02 12:30:00","9.5819","3.21283","26.207","4.745","7.5","0.386","3.325","0.02","0.25","29.2997","4.64524","50.23","0","SATNPRO1963","31.318","0.43872","5"],
    [17970,"HCEP03730560","2024-04-02 12:45:00","9.5857","3.21324","26.085","4.676","7.5","0.349","3.475","0.02","0.18","29.3008","4.64532","49.5","0","SATNPRO1963","31.326","0.43876","5"],
    [17971,"HCEP03730560","2024-04-02 13:00:00","9.5862","3.21336","25.957","4.654","7.5","0.397","3.615","0.02","0.2","29.3017","4.64545","49.27","0","SATNPRO1963","31.472","0.44082","5"],
    [17972,"HCEP03730560","2024-04-02 13:15:00","9.5856","3.21339","25.805","4.651","7.5","0.373","3.638","0.05","0.21","29.3025","4.64555","49.24","0","SATNPRO1963","31.212","0.43714","5"],
    [17973,"HCEP03730560","2024-04-02 13:30:00","9.586","3.21351","25.668","4.645","7.49","0.408","3.315","0.06","0.16","29.3034","4.64568","49.17","0","SATNPRO1963","31.602","0.44266","5"],
    [17974,"HCEP03730560","2024-04-02 13:45:00","9.5853","3.21354","25.542","4.659","7.49","0.361","3.464","0.05","0.46","29.3044","4.64582","49.32","0","SATNPRO1963","31.338","0.43898","5"],
    [17975,"HCEP03730560","2024-04-02 14:00:00","9.5854","3.21354","25.372","4.657","7.49","0.417","4.363","0.02","0.27","29.3043","4.6458","49.31","0","SATNPRO1963","31.194","0.4369","5"],
    [17976,"HCEP03730560","2024-04-02 14:15:00","9.5748","3.21286","25.328","4.792","7.5","0.362","3.859","0.02","0.26","29.3061","4.64624","50.72","0","SATNPRO1963","31.184","0.43678","5"],
    [17977,"HCEP03730560","2024-04-02 14:30:00","9.5624","3.21213","25.18","4.996","7.51","0.394","3.428","0.01","0.18","29.309","4.64686","52.87","0","SATNPRO1963","31.34","0.43896","5"],
    [17978,"HCEP03730560","2024-04-02 14:45:00","9.5607","3.21184","25.05","5.059","7.52","0.357","3.192","0.03","0.14","29.3075","4.64667","53.53","0","SATNPRO1963","31.474","0.44086","5"],
    [17979,"HCEP03730560","2024-04-02 15:00:00","9.5582","3.21195","24.941","5.112","7.52","0.414","3.729","0.02","0.18","29.3107","4.64716","54.09","0","SATNPRO1963","31.374","0.43944","5"],
    [17980,"HCEP03730560","2024-04-02 15:15:00","9.5578","3.21195","24.824","5.128","7.53","0.355","3.525","0.01","0.25","29.3111","4.64722","54.26","0","SATNPRO1963","31.5","0.44122","5"],
    [17981,"HCEP03730560","2024-04-02 15:30:00","9.5521","3.21163","24.761","5.21","7.53","0.382","3.108","0.02","0.18","29.3125","4.64752","55.12","0","SATNPRO1963","31.56","0.44206","5"],
    [17982,"HCEP03730560","2024-04-02 15:45:00","9.5528","3.21168","24.704","5.22","7.54","0.35","3.277","0.02","0.13","29.3124","4.64749","55.22","0","SATNPRO1963","31.312","0.43858","5"],
    [17983,"HCEP03730560","2024-04-02 16:00:00","9.5543","3.21181","24.647","5.183","7.54","0.404","3.731","0.03","0.19","29.3125","4.64748","54.83","0","SATNPRO1963","31.454","0.44054","5"],
    [17984,"HCEP03730560","2024-04-02 16:15:00","9.5556","3.2119","24.62","5.143","7.54","0.366","3.686","0.02","0.18","29.3124","4.64743","54.42","0","SATNPRO1963","31.39","0.43972","5"],
    [17985,"HCEP03730560","2024-04-02 16:30:00","9.5562","3.21191","24.548","5.139","7.53","0.396","3.457","0.02","0.12","29.312","4.64737","54.37","0","SATNPRO1963","31.386","0.43964","5"],
    [17986,"HCEP03730560","2024-04-02 16:45:00","9.5574","3.21194","24.581","5.129","7.53","0.343","3.243","0.02","0.13","29.3114","4.64726","54.27","0","SATNPRO1963","31.408","0.43994","5"],
    [17987,"HCEP03730560","2024-04-02 17:00:00","9.5558","3.21169","24.573","5.149","7.53","0.375","2.961","0.02","0.17","29.3101","4.6471","54.48","0","SATNPRO1963","31.642","0.44322","5"],
    [17988,"HCEP03730560","2024-04-02 17:15:00","9.5525","3.21135","24.621","5.219","7.54","0.313","2.53","0.01","0.07","29.3094","4.64706","55.22","0","SATNPRO1963","31.514","0.44138","5"],
    [17989,"HCEP03730560","2024-04-02 17:30:00","9.5497","3.211","24.618","5.285","7.54","0.358","2.322","0.01","0.13","29.3082","4.64693","55.9","0","SATNPRO1963","31.55","0.44196","5"],
    [17990,"HCEP03730560","2024-04-02 17:45:00","9.5494","3.21113","24.671","5.288","7.54","0.317","2.553","0.02","0.12","29.3098","4.64717","55.94","0","SATNPRO1963","31.494","0.44114","5"],
    [17991,"HCEP03730560","2024-04-02 18:00:00","9.5506","3.21129","24.783","5.257","7.54","0.373","2.81","0.02","0.15","29.3103","4.64723","55.62","0","SATNPRO1963","31.51","0.44134","5"],
    [17992,"HCEP03730560","2024-04-02 18:15:00","9.5504","3.21131","24.863","5.242","7.54","0.328","2.686","0.01","0.08","29.3106","4.64728","55.46","0","SATNPRO1963","31.426000000000002","0.44016","5"],
    [17993,"HCEP03730560","2024-04-02 18:30:00","9.5505","3.21136","24.933","5.24","7.54","0.397","2.952","0.11","0.13","29.311","4.64734","55.44","0","SATNPRO1963","31.478","0.44086","5"],
    [17994,"HCEP03730560","2024-04-02 18:45:00","9.5547","3.21275","24.967","5.156","7.54","0.322","2.804","0.01","0.11","29.3216","4.64879","54.55","0","SATNPRO1963","31.566","0.44214","5"],
    [17995,"HCEP03730560","2024-04-02 19:00:00","9.5542","3.21302","25.085","5.132","7.54","0.379","3.197","0.02","0.09","29.3247","4.64924","54.3","0","SATNPRO1963","31.386","0.43962","5"],
    [17996,"HCEP03730560","2024-04-02 19:15:00","9.5533","3.21319","25.271","5.109","7.53","0.362","4.458","0.02","0.17","29.3271","4.64961","54.06","0","SATNPRO1963","31.1","0.43558","5"],
    [17997,"HCEP03730560","2024-04-02 19:30:00","9.5418","3.21247","25.394","5.247","7.54","0.368","2.907","0.01","0.19","29.3291","4.65011","55.5","0","SATNPRO1963","31.248","0.43772","5"],
    [17998,"HCEP03730560","2024-04-02 19:45:00","9.5423","3.21255","25.582","5.29","7.55","0.337","3.371","0.04","0.13","29.3295","4.65017","55.96","0","SATNPRO1963","31.424","0.44012","5"],
    [17999,"HCEP03730560","2024-04-02 20:00:00","9.5391","3.21221","25.689","5.315","7.55","0.369","3.003","0.01","0.08","29.3286","4.6501","56.22","0","SATNPRO1963","31.264","0.43792","5"],
    [18000,"HCEP03730560","2024-04-02 20:15:00","9.5419","3.21242","25.895","5.322","7.55","0.324","2.937","0.01","0.11","29.3284","4.65005","56.3","0","SATNPRO1963","31.262","0.43786","5"],
    [18001,"HCEP03730560","2024-04-02 20:30:00","9.5472","3.21248","25.987","5.224","7.55","0.393","3.612","0.02","0.23","29.3246","4.64941","55.27","0","SATNPRO1963","31.2","0.43698","5"],
    [18002,"HCEP03730560","2024-04-02 20:45:00","9.5432","3.21216","26.229","5.268","7.55","0.336","3.51","0.01","0.29","29.3245","4.64948","55.73","0","SATNPRO1963","31.492","0.44108","5"],
    [18003,"HCEP03730560","2024-04-02 21:00:00","9.548","3.21233","26.349","5.24","7.55","0.397","3.339","0.08","0.12","29.3222","4.64908","55.44","0","SATNPRO1963","31.316","0.43862","5"],
    [18004,"HCEP03730560","2024-04-02 21:15:00","9.5496","3.21253","26.529","5.201","7.54","0.339","3.7","0.01","0.09","29.3229","4.64916","55.02","0","SATNPRO1963","31.316","0.43864","5"],
    [18005,"HCEP03730560","2024-04-02 21:30:00","9.5521","3.21253","26.671","5.161","7.54","0.388","3.605","0.02","0.11","29.3208","4.64882","54.6","0","SATNPRO1963","31.3","0.43842","5"],
    [18006,"HCEP03730560","2024-04-02 21:45:00","9.5494","3.21245","26.822","5.177","7.54","0.333","3.529","0.02","0.09","29.3222","4.64907","54.77","0","SATNPRO1963","31.178","0.43668","5"],
    [18007,"HCEP03730560","2024-04-02 22:00:00","9.5442","3.21229","27","5.22","7.54","0.388","3.73","0.02","0.12","29.3247","4.64953","55.22","0","SATNPRO1963","31.51","0.4413","5"],
    [18008,"HCEP03730560","2024-04-02 22:15:00","9.5417","3.21228","27.112","5.249","7.54","0.34","3.767","0.01","0.14","29.3266","4.64986","55.52","0","SATNPRO1963","31.512","0.44136","5"],
    [18009,"HCEP03730560","2024-04-02 22:30:00","9.5386","3.21223","27.275","5.276","7.55","0.395","3.633","0.02","0.12","29.3286","4.6502","55.81","0","SATNPRO1963","31.31","0.43856","5"],
    [18010,"HCEP03730560","2024-04-02 22:45:00","9.5354","3.21203","27.319","5.324","7.55","0.338","3.211","0.02","0.11","29.3292","4.65035","56.31","0","SATNPRO1963","31.248","0.43768","5"],
    [18011,"HCEP03730560","2024-04-02 23:00:00","9.5331","3.21197","27.489","5.358","7.55","0.389","3.156","0.04","0.27","29.3304","4.65058","56.66","0","SATNPRO1963","31.296","0.43836","5"],
    [18012,"HCEP03730560","2024-04-02 23:15:00","9.5334","3.21204","27.558","5.347","7.55","0.356","3.746","0.04","0.11","29.3307","4.65062","56.55","0","SATNPRO1963","31.284","0.43816","5"],
    [18013,"HCEP03730560","2024-04-02 23:30:00","9.5369","3.21223","27.63","5.3","7.55","0.415","4.164","0.06","0.14","29.3298","4.65043","56.06","0","SATNPRO1963","31.212","0.43722","5"],
    [18014,"HCEP03730560","2024-04-02 23:45:00","9.5382","3.21223","27.703","5.28","7.55","0.345","3.72","0.02","0.16","29.3287","4.65026","55.85","0","SATNPRO1963","31.144000000000002","0.43624","5"],
    [18015,"HCEP03730560","2024-04-03 00:00:00","9.5381","3.21215","27.765","5.283","7.55","0.385","3.571","0.02","0.09","29.328","4.65015","55.88","0","SATNPRO1963","31.204","0.43708","5"],
    [18016,"HCEP03730560","2024-04-03 00:15:00","9.5386","3.21209","27.808","5.295","7.55","0.335","3.382","0.02","0.13","29.327","4.65","56.01","0","SATNPRO1963","31.458","0.44064","5"],
    [18017,"HCEP03730560","2024-04-03 00:30:00","9.5395","3.21216","27.854","5.278","7.55","0.38","3.423","0.02","0.15","29.3269","4.64998","55.83","0","SATNPRO1963","31.252","0.43776","5"],
    [18018,"HCEP03730560","2024-04-03 00:45:00","9.5403","3.21213","27.889","5.28","7.55","0.33","3.173","0.02","0.17","29.3259","4.64982","55.85","0","SATNPRO1963","31.408","0.43992","5"],
    [18019,"HCEP03730560","2024-04-03 01:00:00","9.5401","3.21215","27.88","5.276","7.55","0.375","3.231","0.01","0.25","29.3263","4.64989","55.81","0","SATNPRO1963","31.33","0.43884","5"],
    [18020,"HCEP03730560","2024-04-03 01:15:00","9.5403","3.21218","27.856","5.264","7.55","0.329","3.169","0.02","0.09","29.3265","4.64991","55.68","0","SATNPRO1963","31.286","0.43818","5"],
    [18021,"HCEP03730560","2024-04-03 01:30:00","9.541","3.21222","27.906","5.25","7.55","0.376","3.245","0.02","0.12","29.3262","4.64986","55.54","0","SATNPRO1963","31.368","0.43938","5"],
    [18022,"HCEP03730560","2024-04-03 01:45:00","9.5419","3.2122","27.828","5.247","7.55","0.332","2.997","0.04","0.11","29.3254","4.64972","55.51","0","SATNPRO1963","31.412","0.43998","5"],
    [18023,"HCEP03730560","2024-04-03 02:00:00","9.5428","3.21212","27.833","5.243","7.55","0.372","2.893","0.03","0.16","29.3237","4.64947","55.46","0","SATNPRO1963","31.29","0.43828","5"],
    [18024,"HCEP03730560","2024-04-03 02:15:00","9.5447","3.21197","27.775","5.219","7.55","0.337","3.031","0.02","0.09","29.3208","4.64901","55.21","0","SATNPRO1963","31.212","0.43716","5"],
    [18025,"HCEP03730560","2024-04-03 02:30:00","9.5458","3.21201","27.723","5.205","7.54","0.386","3.374","0.01","0.1","29.3203","4.64892","55.07","0","SATNPRO1963","31.268","0.43796","5"],
    [18026,"HCEP03730560","2024-04-03 02:45:00","9.5499","3.21125","27.724","5.21","7.54","0.338","2.656","0.02","0.1","29.3093","4.64726","55.12","0","SATNPRO1963","31.532","0.44166","5"],
    [18027,"HCEP03730560","2024-04-03 03:00:00","9.5543","3.21088","27.653","5.202","7.54","0.365","2.409","0.01","0.12","29.302","4.64614","55.03","0","SATNPRO1963","31.6","0.44264","5"],
    [18028,"HCEP03730560","2024-04-03 03:15:00","9.5532","3.21083","27.588","5.197","7.54","0.326","2.406","0.01","0.1","29.3024","4.64621","54.98","0","SATNPRO1963","31.468","0.44074","5"],
    [18029,"HCEP03730560","2024-04-03 03:30:00","9.5521","3.21123","27.485","5.18","7.54","0.381","2.612","0.03","0.08","29.3074","4.64694","54.8","0","SATNPRO1963","31.53","0.44166","5"],
    [18030,"HCEP03730560","2024-04-03 03:45:00","9.5549","3.21091","27.397","5.154","7.54","0.335","2.78","0.02","0.11","29.3019","4.6461","54.52","0","SATNPRO1963","31.308","0.43856","5"],
    [18031,"HCEP03730560","2024-04-03 04:00:00","9.5513","3.21216","27.372","5.108","7.54","0.406","3.739","0.02","0.14","29.3175","4.6484","54.04","0","SATNPRO1963","31.162","0.43648","5"],
    [18032,"HCEP03730560","2024-04-03 04:15:00","9.5513","3.21257","27.263","4.991","7.53","0.383","4.921","0.02","0.21","29.3217","4.64899","52.81","0","SATNPRO1963","30.826","0.43172","5"],
    [18033,"HCEP03730560","2024-04-03 04:30:00","9.5491","3.21258","27.233","4.98","7.53","0.419","4.556","0.02","0.19","29.3235","4.64929","52.69","0","SATNPRO1963","30.836000000000002","0.43192","5"],
    [18034,"HCEP03730560","2024-04-03 04:45:00","9.5447","3.21248","27.146","5.048","7.53","0.361","4.199","0.03","0.23","29.3262","4.64976","53.41","0","SATNPRO1963","31.056","0.435","5"],
    [18035,"HCEP03730560","2024-04-03 05:00:00","9.5441","3.2124","27.031","5.097","7.53","0.402","3.945","0.02","0.17","29.3258","4.6497","53.92","0","SATNPRO1963","31.15","0.43634","5"],
    [18036,"HCEP03730560","2024-04-03 05:15:00","9.5403","3.21232","26.971","5.144","7.53","0.353","3.869","0.02","0.57","29.3282","4.65011","54.41","0","SATNPRO1963","31.138","0.43614","5"],
    [18037,"HCEP03730560","2024-04-03 05:30:00","9.5395","3.21227","26.939","5.177","7.54","0.413","3.608","0.03","0.33","29.3283","4.65013","54.76","0","SATNPRO1963","31.035999999999998","0.4347","5"],
    [18038,"HCEP03730560","2024-04-03 05:45:00","9.5381","3.21222","26.834","5.199","7.54","0.35","3.529","0.02","0.27","29.329","4.65026","54.99","0","SATNPRO1963","31.116","0.43586","5"],
    [18039,"HCEP03730560","2024-04-03 06:00:00","9.5371","3.21216","26.855","5.218","7.54","0.39","3.29","0.03","0.23","29.3293","4.65031","55.19","0","SATNPRO1963","31.106","0.4357","5"],
    [18040,"HCEP03730560","2024-04-03 06:15:00","9.538","3.21219","26.813","5.223","7.54","0.326","2.998","0.02","0.09","29.3289","4.65023","55.25","0","SATNPRO1963","31.118","0.43586","5"],
    [18041,"HCEP03730560","2024-04-03 06:30:00","9.5366","3.21215","26.722","5.226","7.54","0.378","3.091","0.01","0.19","29.3296","4.65035","55.27","0","SATNPRO1963","31.28","0.43812","5"],
    [18042,"HCEP03730560","2024-04-03 06:45:00","9.5351","3.2121","26.736","5.233","7.54","0.339","3.119","0.04","0.24","29.3304","4.65049","55.35","0","SATNPRO1963","31.152","0.43634","5"],
    [18043,"HCEP03730560","2024-04-03 07:00:00","9.5346","3.2121","26.725","5.244","7.55","0.383","3.027","0.02","0.11","29.3308","4.65056","55.46","0","SATNPRO1963","31.21","0.43714","5"],
    [18044,"HCEP03730560","2024-04-03 07:15:00","9.5335","3.21206","26.726","5.249","7.55","0.322","3.115","0.02","0.09","29.3312","4.65064","55.52","0","SATNPRO1963","31.18","0.43676","5"],
    [18045,"HCEP03730560","2024-04-03 07:30:00","9.5334","3.21209","26.722","5.224","7.55","0.391","3.51","0.02","0.25","29.3316","4.6507","55.25","0","SATNPRO1963","30.75","0.43076","5"],
    [18046,"HCEP03730560","2024-04-03 07:45:00","9.5323","3.21202","26.721","5.25","7.55","0.341","3.368","0.03","0.16","29.3318","4.65075","55.52","0","SATNPRO1963","31.204","0.43706","5"],
    [18047,"HCEP03730560","2024-04-03 08:00:00","9.5318","3.212","26.736","5.261","7.55","0.38","3.058","0.04","0.23","29.332","4.65079","55.64","0","SATNPRO1963","30.94","0.43334","5"],
    [18048,"HCEP03730560","2024-04-03 08:15:00","9.5317","3.21202","26.738","5.255","7.55","0.312","3.139","0.02","0.11","29.3323","4.65084","55.58","0","SATNPRO1963","30.794","0.4313","5"],
    [18049,"HCEP03730560","2024-04-03 08:30:00","9.5328","3.21209","26.755","5.224","7.54","0.38","3.353","0.02","0.15","29.3321","4.65079","55.25","0","SATNPRO1963","30.77","0.43098","5"],
    [18050,"HCEP03730560","2024-04-03 08:45:00","9.5328","3.21213","26.759","5.199","7.54","0.338","3.743","0.02","0.2","29.3324","4.65083","54.99","0","SATNPRO1963","30.878","0.4325","5"],
    [18051,"HCEP03730560","2024-04-03 09:00:00","9.5331","3.21212","26.791","5.168","7.54","0.378","3.753","0.02","0.23","29.3321","4.65078","54.66","0","SATNPRO1963","30.990000000000002","0.43408","5"],
    [18052,"HCEP03730560","2024-04-03 09:15:00","9.5287","3.21186","26.808","5.214","7.54","0.356","4.245","0.04","0.33","29.3331","4.651","55.14","0","SATNPRO1963","30.848","0.43206","5"],
    [18053,"HCEP03730560","2024-04-03 09:30:00","9.5262","3.21181","26.829","5.231","7.54","0.404","4.211","0.03","0.17","29.3347","4.65127","55.31","0","SATNPRO1963","30.764","0.43094","5"],
    [18054,"HCEP03730560","2024-04-03 09:45:00","9.5226","3.21163","26.838","5.279","7.54","0.344","4.246","0.02","0.19","29.3358","4.65149","55.82","0","SATNPRO1963","30.84","0.432","5"],
    [18055,"HCEP03730560","2024-04-03 10:00:00","9.5197","3.21153","26.851","5.31","7.55","0.39","4.346","0.01","0.23","29.3371","4.65174","56.15","0","SATNPRO1963","30.94","0.4334","5"],
    [18056,"HCEP03730560","2024-04-03 10:15:00","9.5184","3.21154","26.867","5.335","7.55","0.342","3.95","0.02","0.25","29.3382","4.65192","56.41","0","SATNPRO1963","30.858","0.4322","5"],
    [18057,"HCEP03730560","2024-04-03 10:30:00","9.5176","3.21153","26.906","5.351","7.55","0.402","4.018","0.04","0.24","29.3388","4.65202","56.58","0","SATNPRO1963","30.94","0.4334","5"],
    [18058,"HCEP03730560","2024-04-03 10:45:00","9.5163","3.21153","26.88","5.364","7.55","0.334","3.857","0.02","0.27","29.3399","4.65219","56.71","0","SATNPRO1963","30.852","0.43208","5"],
    [18059,"HCEP03730560","2024-04-03 11:00:00","9.5158","3.21153","26.895","5.373","7.55","0.381","3.917","0.02","0.26","29.3403","4.65227","56.81","0","SATNPRO1963","30.928","0.4332","5"],
    [18060,"HCEP03730560","2024-04-03 11:15:00","9.5141","3.21144","26.898","5.396","7.56","0.319","3.429","0.03","0.29","29.3408","4.65237","57.05","0","SATNPRO1963","30.99","0.4341","5"],
    [18061,"HCEP03730560","2024-04-03 11:30:00","9.515","3.21147","26.871","5.398","7.56","0.372","3.236","0.02","0.2","29.3404","4.65229","57.07","0","SATNPRO1963","31.142","0.4362","5"],
    [18062,"HCEP03730560","2024-04-03 11:45:00","9.5182","3.21165","26.849","5.358","7.55","0.332","3.725","0.02","0.26","29.3395","4.65211","56.66","0","SATNPRO1963","31.25","0.43774","5"],
    [18063,"HCEP03730560","2024-04-03 12:00:00","9.5192","3.21163","26.83","5.357","7.55","0.377","3.592","0.04","0.13","29.3385","4.65195","56.64","0","SATNPRO1963","31.046","0.43484","5"],
    [18064,"HCEP03730560","2024-04-03 12:15:00","9.521","3.21158","26.757","5.345","7.55","0.323","3.357","0.02","0.13","29.3366","4.65163","56.51","0","SATNPRO1963","31.102","0.43564","5"],
    [18065,"HCEP03730560","2024-04-03 12:30:00","9.5241","3.2116","26.71","5.332","7.55","0.381","3.445","0.03","0.14","29.3342","4.65124","56.38","0","SATNPRO1963","31.088","0.43544","5"],
    [18066,"HCEP03730560","2024-04-03 12:45:00","9.5278","3.21177","26.644","5.289","7.55","0.35","3.645","0.03","0.15","29.333","4.65099","55.93","0","SATNPRO1963","30.934","0.4333","5"],
    [18067,"HCEP03730560","2024-04-03 13:00:00","9.5308","3.21194","26.571","5.227","7.54","0.387","3.691","0.03","0.16","29.3323","4.65084","55.28","0","SATNPRO1963","31.02","0.43448","5"],
    [18068,"HCEP03730560","2024-04-03 13:15:00","9.5355","3.21207","26.489","5.183","7.54","0.331","3.422","0.02","0.17","29.3298","4.65038","54.82","0","SATNPRO1963","30.994","0.43414","5"],
    [18069,"HCEP03730560","2024-04-03 13:30:00","9.5401","3.2117","26.381","5.202","7.54","0.364","2.774","0.02","0.11","29.3223","4.64923","55.02","0","SATNPRO1963","31.448","0.44048","5"],
    [18070,"HCEP03730560","2024-04-03 13:45:00","9.5403","3.21093","26.258","5.293","7.54","0.297","1.696","0.02","0.11","29.3145","4.64809","55.98","0","SATNPRO1963","31.822","0.44574","5"],
    [18071,"HCEP03730560","2024-04-03 14:00:00","9.5412","3.21133","26.126","5.273","7.55","0.363","2.25","0.03","0.13","29.3178","4.64854","55.78","0","SATNPRO1963","31.656","0.44342","5"],
    [18072,"HCEP03730560","2024-04-03 14:15:00","9.5425","3.21179","25.974","5.188","7.54","0.31","2.467","0.02","0.14","29.3215","4.64904","54.88","0","SATNPRO1963","31.248","0.4377","5"],
    [18073,"HCEP03730560","2024-04-03 14:30:00","9.5406","3.21099","25.857","5.248","7.54","0.375","2.284","0.04","0.11","29.315","4.64814","55.5","0","SATNPRO1963","31.344","0.439","5"],
    [18074,"HCEP03730560","2024-04-03 14:45:00","9.5416","3.21195","25.714","5.137","7.54","0.323","3.148","0.02","0.23","29.3239","4.64939","54.34","0","SATNPRO1963","31.312","0.4386","5"],
    [18075,"HCEP03730560","2024-04-03 15:00:00","9.5414","3.2115","25.574","5.179","7.54","0.352","2.553","0.03","0.12","29.3195","4.64876","54.78","0","SATNPRO1963","31.208000000000002","0.43712","5"],
    [18076,"HCEP03730560","2024-04-03 15:15:00","9.5434","3.21178","25.406","5.186","7.54","0.306","2.557","0.02","0.1","29.3209","4.64891","54.86","0","SATNPRO1963","31.112","0.43578","5"],
    [18077,"HCEP03730560","2024-04-03 15:30:00","9.5429","3.21115","25.247","5.204","7.54","0.348","1.935","0.03","0.11","29.3149","4.64805","55.04","0","SATNPRO1963","31.552","0.44194","5"],
    [18078,"HCEP03730560","2024-04-03 15:45:00","9.5442","3.21119","25.112","5.207","7.54","0.291","1.938","0.02","0.06","29.3144","4.64794","55.08","0","SATNPRO1963","31.616","0.44286","5"],
    [18079,"HCEP03730560","2024-04-03 16:00:00","9.545","3.21172","25","5.132","7.53","0.375","2.954","0.04","0.13","29.3191","4.64861","54.29","0","SATNPRO1963","31.21","0.43712","5"],
    [18080,"HCEP03730560","2024-04-03 16:15:00","9.5485","3.21216","24.908","5.029","7.53","0.323","3.34","0.02","0.28","29.3208","4.64878","53.2","0","SATNPRO1963","31.132","0.4361","5"],
    [18081,"HCEP03730560","2024-04-03 16:30:00","9.5488","3.21207","24.814","5.05","7.52","0.372","2.808","0.02","0.14","29.3196","4.64859","53.42","0","SATNPRO1963","31.124","0.43594","5"],
    [18082,"HCEP03730560","2024-04-03 16:45:00","9.5495","3.2122","24.716","5.071","7.52","0.322","2.924","0.02","0.17","29.3205","4.6487","53.65","0","SATNPRO1963","31.186","0.43682","5"],
    [18083,"HCEP03730560","2024-04-03 17:00:00","9.5509","3.21217","24.634","5.081","7.53","0.371","2.617","0.06","0.23","29.319","4.64847","53.76","0","SATNPRO1963","31.428","0.44022","5"],
    [18084,"HCEP03730560","2024-04-03 17:15:00","9.5564","3.21286","24.531","4.963","7.52","0.318","3.027","0.01","0.26","29.3215","4.64872","52.52","0","SATNPRO1963","31.194","0.43694","5"],
    [18085,"HCEP03730560","2024-04-03 17:30:00","9.5559","3.2132","24.495","4.809","7.51","0.399","4.122","0.03","0.18","29.3253","4.64928","50.89","0","SATNPRO1963","30.47","0.42678","5"],
    [18086,"HCEP03730560","2024-04-03 17:45:00","9.557","3.21323","24.429","4.764","7.5","0.356","4.106","0.02","0.17","29.3247","4.64917","50.41","0","SATNPRO1963","30.612","0.42874","5"],
    [18087,"HCEP03730560","2024-04-03 18:00:00","9.553","3.21307","24.48","4.779","7.5","0.398","4.36","0.02","0.15","29.3264","4.64948","50.57","0","SATNPRO1963","30.402","0.42582","5"],
    [18088,"HCEP03730560","2024-04-03 18:15:00","9.5438","3.21263","24.494","4.875","7.51","0.358","4.398","0.02","0.21","29.3295","4.65008","51.57","0","SATNPRO1963","30.438","0.42636","5"],
    [18089,"HCEP03730560","2024-04-03 18:30:00","9.5279","3.21185","24.516","5.117","7.52","0.4","4.129","0.04","0.32","29.3346","4.6511","54.11","0","SATNPRO1963","30.858","0.43224","5"],
    [18090,"HCEP03730560","2024-04-03 18:45:00","9.5207","3.21152","24.577","5.22","7.53","0.345","4.063","0.04","1.34","29.3371","4.65159","55.2","0","SATNPRO1963","30.962","0.43366","5"],
    [18091,"HCEP03730560","2024-04-03 19:00:00","9.5203","3.21146","24.632","5.225","7.53","0.386","4.068","0.02","0.14","29.3368","4.65155","55.25","0","SATNPRO1963","31.02","0.43448","5"],
    [18092,"HCEP03730560","2024-04-03 19:15:00","9.5203","3.21148","24.702","5.264","7.54","0.329","3.347","0.03","0.13","29.337","4.65158","55.66","0","SATNPRO1963","30.966","0.43374","5"],
    [18093,"HCEP03730560","2024-04-03 19:30:00","9.5226","3.21186","24.821","5.156","7.53","0.404","4.566","0.03","0.19","29.3389","4.65182","54.52","0","SATNPRO1963","30.436","0.42632","5"],
    [18094,"HCEP03730560","2024-04-03 19:45:00","9.5197","3.21171","24.921","5.174","7.53","0.343","4.285","0.02","0.2","29.3397","4.652","54.71","0","SATNPRO1963","30.486","0.42706","5"],
    [18095,"HCEP03730560","2024-04-03 20:00:00","9.5199","3.21177","25.028","5.171","7.53","0.383","4.256","0.02","0.22","29.3401","4.65206","54.68","0","SATNPRO1963","30.748","0.43066","5"],
    [18096,"HCEP03730560","2024-04-03 20:15:00","9.5189","3.21178","25.148","5.157","7.53","0.348","4.527","0.02","0.25","29.3409","4.65219","54.52","0","SATNPRO1963","30.642","0.42918","5"],
    [18097,"HCEP03730560","2024-04-03 20:30:00","9.5182","3.21179","25.285","5.14","7.53","0.415","5.059","0.04","0.37","29.3417","4.65232","54.34","0","SATNPRO1963","30.442","0.42642","5"],
    [18098,"HCEP03730560","2024-04-03 20:45:00","9.5133","3.21157","25.407","5.197","7.54","0.347","4.389","0.02","0.24","29.3433","4.65266","54.95","0","SATNPRO1963","30.704","0.43004","5"],
    [18099,"HCEP03730560","2024-04-03 21:00:00","9.5136","3.21165","25.583","5.208","7.54","0.391","4.954","0.02","0.26","29.3438","4.65272","55.06","0","SATNPRO1963","30.49","0.42704","5"],
    [18100,"HCEP03730560","2024-04-03 21:15:00","9.5103","3.21144","25.734","5.241","7.54","0.338","4.339","0.02","0.14","29.3443","4.65287","55.4","0","SATNPRO1963","30.636","0.42912","5"],
    [18101,"HCEP03730560","2024-04-03 21:30:00","9.509","3.21138","25.888","5.262","7.54","0.383","4.41","0.02","0.19","29.3448","4.65297","55.62","0","SATNPRO1963","30.522","0.4275","5"],
    [18102,"HCEP03730560","2024-04-03 21:45:00","9.5086","3.21132","26.062","5.276","7.54","0.331","4.105","0.02","0.22","29.3443","4.65292","55.78","0","SATNPRO1963","30.778","0.43108","5"],
    [18103,"HCEP03730560","2024-04-03 22:00:00","9.5093","3.21131","26.242","5.271","7.54","0.382","4.208","0.02","0.16","29.3437","4.65283","55.73","0","SATNPRO1963","30.72","0.43028","5"],
    [18104,"HCEP03730560","2024-04-03 22:15:00","9.5091","3.21128","26.423","5.268","7.54","0.337","4.086","0.01","0.13","29.3434","4.65281","55.69","0","SATNPRO1963","30.75","0.43072","5"],
    [18105,"HCEP03730560","2024-04-03 22:30:00","9.5093","3.21125","26.603","5.284","7.55","0.374","3.993","0.02","0.14","29.3429","4.65274","55.86","0","SATNPRO1963","30.616","0.42884","5"],
    [18106,"HCEP03730560","2024-04-03 22:45:00","9.5095","3.21118","26.749","5.305","7.55","0.329","3.698","0.02","0.16","29.3419","4.6526","56.09","0","SATNPRO1963","30.766000000000002","0.43096","5"],
    [18107,"HCEP03730560","2024-04-03 23:00:00","9.5127","3.21075","26.912","5.38","7.55","0.348","2.629","0.02","0.2","29.3349","4.65155","56.88","0","SATNPRO1963","31.014","0.43442","5"],
    [18108,"HCEP03730560","2024-04-03 23:15:00","9.5119","3.21086","27.074","5.402","7.55","0.314","3.149","0.01","0.1","29.3366","4.65182","57.11","0","SATNPRO1963","31.073999999999998","0.43524","5"],
    [18109,"HCEP03730560","2024-04-03 23:30:00","9.5108","3.21138","27.171","5.262","7.55","0.389","4.342","0.02","0.21","29.3428","4.65272","55.63","0","SATNPRO1963","30.66","0.42948","5"],
    [18110,"HCEP03730560","2024-04-03 23:45:00","9.5099","3.21139","27.307","5.228","7.55","0.346","4.125","0.02","0.1","29.3435","4.65286","55.26","0","SATNPRO1963","30.504","0.4273","5"],
    [18111,"HCEP03730560","2024-04-04 00:00:00","9.5088","3.21139","27.462","5.228","7.54","0.408","4.626","0.07","0.26","29.3443","4.65299","55.27","0","SATNPRO1963","30.444","0.42644","5"],
    [18112,"HCEP03730560","2024-04-04 00:15:00","9.5083","3.21153","27.545","5.162","7.54","0.371","5.372","0.02","0.24","29.3462","4.65327","54.57","0","SATNPRO1963","30.578","0.42828","5"],
    [18113,"HCEP03730560","2024-04-04 00:30:00","9.5102","3.21137","27.65","5.217","7.54","0.376","3.854","0.01","0.22","29.3429","4.65278","55.15","0","SATNPRO1963","30.84","0.43198","5"],
    [18114,"HCEP03730560","2024-04-04 00:45:00","9.5115","3.21132","27.685","5.241","7.54","0.331","3.574","0.02","0.1","29.3414","4.65254","55.41","0","SATNPRO1963","30.686","0.4298","5"],
    [18115,"HCEP03730560","2024-04-04 01:00:00","9.5118","3.21133","27.753","5.249","7.55","0.366","3.324","0.01","0.14","29.3411","4.6525","55.49","0","SATNPRO1963","30.61","0.42874","5"],
    [18116,"HCEP03730560","2024-04-04 01:15:00","9.512","3.21134","27.741","5.24","7.55","0.326","3.523","0.03","0.16","29.3411","4.6525","55.4","0","SATNPRO1963","30.642","0.4292","5"],
    [18117,"HCEP03730560","2024-04-04 01:30:00","9.5157","3.21137","27.801","5.247","7.55","0.357","3.189","0.03","0.1","29.3383","4.65203","55.47","0","SATNPRO1963","30.650000000000002","0.42928","5"],
    [18118,"HCEP03730560","2024-04-04 01:45:00","9.5259","3.21147","27.849","5.248","7.55","0.313","2.838","0.02","0.13","29.3311","4.65082","55.49","0","SATNPRO1963","31.15","0.4363","5"],
    [18119,"HCEP03730560","2024-04-04 02:00:00","9.5226","3.21149","27.851","5.249","7.55","0.36","3.004","0.02","0.14","29.3339","4.65129","55.51","0","SATNPRO1963","30.89","0.4327","5"],
    [18120,"HCEP03730560","2024-04-04 02:15:00","9.5279","3.21161","27.869","5.214","7.54","0.315","3.003","0.02","0.19","29.3308","4.65075","55.13","0","SATNPRO1963","30.87","0.43236","5"],
    [18121,"HCEP03730560","2024-04-04 02:30:00","9.5379","3.21196","27.88","5.134","7.54","0.365","2.969","0.03","0.15","29.3261","4.6499","54.31","0","SATNPRO1963","30.926","0.43316","5"],
    [18122,"HCEP03730560","2024-04-04 02:45:00","9.5397","3.21218","27.852","5.048","7.53","0.327","2.993","0.02","0.15","29.3269","4.64997","53.39","0","SATNPRO1963","30.878","0.43252","5"],
    [18123,"HCEP03730560","2024-04-04 03:00:00","9.538","3.21191","27.82","5.102","7.53","0.354","2.99","0.02","0.13","29.3256","4.64983","53.97","0","SATNPRO1963","30.814","0.4316","5"],
    [18124,"HCEP03730560","2024-04-04 03:15:00","9.5328","3.21189","27.775","5.103","7.53","0.324","3.049","0.03","0.37","29.3297","4.6505","53.97","0","SATNPRO1963","30.966","0.43372","5"],
    [18125,"HCEP03730560","2024-04-04 03:30:00","9.5426","3.2122","27.724","5.031","7.53","0.352","3.1","0.02","0.33","29.3248","4.64962","53.21","0","SATNPRO1963","30.968","0.43376","5"],
    [18126,"HCEP03730560","2024-04-04 03:45:00","9.5439","3.21233","27.638","4.975","7.53","0.32","3.117","0.02","0.21","29.3251","4.64964","52.62","0","SATNPRO1963","30.766","0.43096","5"],
    [18127,"HCEP03730560","2024-04-04 04:00:00","9.5391","3.21225","27.558","4.99","7.52","0.376","3.416","0.02","0.2","29.3282","4.65016","52.78","0","SATNPRO1963","30.580000000000002","0.42834","5"],
    [18128,"HCEP03730560","2024-04-04 04:15:00","9.5141","3.21153","27.449","5.149","7.53","0.329","3.628","0.03","0.16","29.3414","4.65249","54.43","0","SATNPRO1963","30.464000000000002","0.42674","5"],
    [18129,"HCEP03730560","2024-04-04 04:30:00","9.5417","3.21228","27.374","5.032","7.53","0.362","3.189","0.01","0.13","29.3265","4.64985","53.22","0","SATNPRO1963","30.52","0.4275","5"],
    [18130,"HCEP03730560","2024-04-04 04:45:00","9.5488","3.21244","27.301","4.926","7.52","0.322","2.881","0.03","0.24","29.3223","4.64913","52.12","0","SATNPRO1963","30.654","0.42936","5"],
    [18131,"HCEP03730560","2024-04-04 05:00:00","9.5187","3.21185","27.207","5.037","7.52","0.384","4.581","0.02","0.15","29.341","4.65234","53.26","0","SATNPRO1963","30.306","0.42448","5"],
    [18132,"HCEP03730560","2024-04-04 05:15:00","9.5136","3.21182","27.116","5.046","7.52","0.366","5.136","0.09","0.25","29.345","4.65298","53.35","0","SATNPRO1963","30.114","0.4218","5"],
    [18133,"HCEP03730560","2024-04-04 05:30:00","9.5115","3.21179","27.057","5.053","7.52","0.394","5.007","0.04","0.22","29.3463","4.65321","53.42","0","SATNPRO1963","30.14","0.42218","5"],
    [18134,"HCEP03730560","2024-04-04 05:45:00","9.5089","3.21172","26.947","5.083","7.53","0.348","4.909","0.02","0.22","29.3478","4.65347","53.74","0","SATNPRO1963","30.146","0.42224","5"],
    [18135,"HCEP03730560","2024-04-04 06:00:00","9.5076","3.21168","26.858","5.101","7.53","0.394","5.012","0.02","0.32","29.3485","4.65358","53.92","0","SATNPRO1963","30.326","0.42478","5"],
    [18136,"HCEP03730560","2024-04-04 06:15:00","9.5057","3.21165","26.77","5.134","7.53","0.345","4.638","0.04","0.23","29.3498","4.6538","54.27","0","SATNPRO1963","30.232","0.42344","5"],
    [18137,"HCEP03730560","2024-04-04 06:30:00","9.5087","3.21149","26.689","5.199","7.53","0.374","3.88","0.03","0.21","29.3457","4.65315","54.96","0","SATNPRO1963","30.902","0.43286","5"],
    [18138,"HCEP03730560","2024-04-04 06:45:00","9.5112","3.21131","26.623","5.256","7.54","0.315","3.615","0.01","0.11","29.3419","4.65256","55.57","0","SATNPRO1963","30.806","0.43146","5"],
    [18139,"HCEP03730560","2024-04-04 07:00:00","9.5103","3.21163","26.574","5.21","7.54","0.384","4.094","0.05","0.3","29.346","4.65316","55.08","0","SATNPRO1963","30.55","0.42794","5"],
    [18140,"HCEP03730560","2024-04-04 07:15:00","9.5127","3.21174","26.505","5.151","7.53","0.331","4.021","0.02","0.22","29.3451","4.65298","54.46","0","SATNPRO1963","30.644","0.42924","5"],
    [18141,"HCEP03730560","2024-04-04 07:30:00","9.515","3.21158","26.457","5.155","7.53","0.368","3.446","0.03","0.2","29.3416","4.65244","54.5","0","SATNPRO1963","30.788","0.43126","5"],
    [18142,"HCEP03730560","2024-04-04 07:45:00","9.5141","3.21188","26.475","5.096","7.53","0.329","4.274","0.01","0.17","29.3454","4.653","53.88","0","SATNPRO1963","30.47","0.42678","5"],
    [18143,"HCEP03730560","2024-04-04 08:00:00","9.5149","3.21194","26.472","5.076","7.53","0.38","4.684","0.02","0.22","29.3453","4.65298","53.66","0","SATNPRO1963","30.074","0.42126","5"],
    [18144,"HCEP03730560","2024-04-04 08:15:00","9.5154","3.21189","26.458","5.094","7.53","0.368","4.254","0.17","0.17","29.3444","4.65283","53.86","0","SATNPRO1963","30.516","0.42744","5"],
    [18145,"HCEP03730560","2024-04-04 08:30:00","9.5161","3.21188","26.464","5.084","7.53","0.371","4.318","0.01","0.15","29.3437","4.65272","53.76","0","SATNPRO1963","30.37","0.42536","5"],
    [18146,"HCEP03730560","2024-04-04 08:45:00","9.5165","3.21194","26.445","5.095","7.53","0.333","4.417","0.01","0.15","29.344","4.65275","53.87","0","SATNPRO1963","30.162","0.42248","5"],
    [18147,"HCEP03730560","2024-04-04 09:00:00","9.5165","3.21197","26.501","5.088","7.53","0.378","4.622","0.01","0.27","29.3443","4.65281","53.8","0","SATNPRO1963","30.456","0.42662","5"],
    [18148,"HCEP03730560","2024-04-04 09:15:00","9.5152","3.21186","26.515","5.127","7.53","0.332","4.446","0.01","0.27","29.3442","4.65282","54.2","0","SATNPRO1963","30.5","0.42718","5"],
    [18149,"HCEP03730560","2024-04-04 09:30:00","9.5119","3.2117","26.605","5.206","7.53","0.368","4.133","0.01","0.12","29.3453","4.65303","55.03","0","SATNPRO1963","30.532","0.42768","5"],
    [18150,"HCEP03730560","2024-04-04 09:45:00","9.5098","3.21165","26.626","5.264","7.54","0.312","3.789","0.02","0.17","29.3466","4.65325","55.65","0","SATNPRO1963","31.044","0.4348","5"],
    [18151,"HCEP03730560","2024-04-04 10:00:00","9.5077","3.21162","26.671","5.309","7.54","0.359","3.998","0.01","0.14","29.3479","4.65349","56.12","0","SATNPRO1963","30.802","0.43146","5"],
    [18152,"HCEP03730560","2024-04-04 10:15:00","9.5044","3.21165","26.688","5.371","7.55","0.31","3.589","0.03","0.11","29.3508","4.65396","56.77","0","SATNPRO1963","30.946","0.43342","5"],
    [18153,"HCEP03730560","2024-04-04 10:30:00","9.5018","3.21185","26.747","5.502","7.56","0.339","3.004","0.01","0.1","29.355","4.65462","58.16","0","SATNPRO1963","31.098","0.43562","5"],
    [18154,"HCEP03730560","2024-04-04 10:45:00","9.5018","3.21185","26.792","5.497","7.56","0.296","3.162","0.01","0.11","29.3551","4.65463","58.1","0","SATNPRO1963","31.036","0.4347","5"],
    [18155,"HCEP03730560","2024-04-04 11:00:00","9.5033","3.21187","26.814","5.463","7.56","0.358","3.887","0.02","0.11","29.3539","4.65443","57.75","0","SATNPRO1963","31.046","0.43484","5"],
    [18156,"HCEP03730560","2024-04-04 11:15:00","9.5039","3.21196","26.901","5.479","7.56","0.304","3.677","0.01","0.09","29.3543","4.65448","57.92","0","SATNPRO1963","31.102","0.43564","5"],
    [18157,"HCEP03730560","2024-04-04 11:30:00","9.5023","3.21194","26.941","5.535","7.56","0.346","3.35","0.02","0.1","29.3554","4.65467","58.51","0","SATNPRO1963","30.996000000000002","0.43414","5"],
    [18158,"HCEP03730560","2024-04-04 11:45:00","9.5029","3.21193","26.946","5.544","7.57","0.304","3.493","0.01","0.1","29.3548","4.65458","58.61","0","SATNPRO1963","31.106","0.43568","5"],
    [18159,"HCEP03730560","2024-04-04 12:00:00","9.5039","3.21199","26.971","5.565","7.57","0.351","3.793","0.01","0.1","29.3545","4.65452","58.83","0","SATNPRO1963","31.328","0.43882","5"],
    [18160,"HCEP03730560","2024-04-04 12:15:00","9.5042","3.21185","27.043","5.554","7.57","0.295","3.241","0.01","0.11","29.3529","4.65429","58.71","0","SATNPRO1963","31.356","0.4392","5"],
    [18161,"HCEP03730560","2024-04-04 12:30:00","9.5062","3.2118","27.014","5.499","7.57","0.372","4.087","0.04","1.34","29.3508","4.65394","58.13","0","SATNPRO1963","31.046","0.43488","5"],
    [18162,"HCEP03730560","2024-04-04 12:45:00","9.5082","3.21175","27.027","5.434","7.56","0.318","4.02","0.01","0.12","29.3487","4.65361","57.44","0","SATNPRO1963","31.124000000000002","0.43594","5"],
    [18163,"HCEP03730560","2024-04-04 13:00:00","9.5112","3.21184","27.006","5.353","7.56","0.366","4.193","0.01","0.1","29.3471","4.65333","56.59","0","SATNPRO1963","30.938","0.43332","5"],
    [18164,"HCEP03730560","2024-04-04 13:15:00","9.5131","3.21192","26.97","5.295","7.55","0.323","4.019","0.01","0.15","29.3464","4.65318","55.98","0","SATNPRO1963","30.872","0.43242","5"],
    [18165,"HCEP03730560","2024-04-04 13:30:00","9.5136","3.21193","26.93","5.285","7.55","0.363","3.919","0.01","0.11","29.3461","4.65314","55.88","0","SATNPRO1963","30.918","0.43308","5"],
    [18166,"HCEP03730560","2024-04-04 13:45:00","9.5122","3.21184","26.86","5.318","7.55","0.324","4.124","0.01","0.12","29.3463","4.65318","56.22","0","SATNPRO1963","30.876","0.4325","5"],
    [18167,"HCEP03730560","2024-04-04 14:00:00","9.515","3.21202","26.781","5.25","7.54","0.374","4.208","0.02","0.16","29.346","4.65308","55.5","0","SATNPRO1963","30.654","0.42934","5"],
    [18168,"HCEP03730560","2024-04-04 14:15:00","9.5187","3.21212","26.714","5.181","7.54","0.318","3.653","0.01","0.15","29.3439","4.65273","54.78","0","SATNPRO1963","30.648","0.42928","5"],
    [18169,"HCEP03730560","2024-04-04 14:30:00","9.5249","3.2126","26.62","5.052","7.53","0.381","4.007","0.04","0.12","29.3437","4.65258","53.43","0","SATNPRO1963","30.476","0.42688","5"],
    [18170,"HCEP03730560","2024-04-04 14:45:00","9.5284","3.2127","26.528","4.98","7.52","0.326","4.044","0.01","0.08","29.342","4.65226","52.67","0","SATNPRO1963","30.292","0.4243","5"],
    [18171,"HCEP03730560","2024-04-04 15:00:00","9.5303","3.21278","26.421","4.936","7.52","0.384","4.423","0.02","0.13","29.3413","4.65212","52.2","0","SATNPRO1963","30.268","0.42396","5"],
    [18172,"HCEP03730560","2024-04-04 15:15:00","9.5309","3.21276","26.3","4.916","7.52","0.343","4.471","0.01","0.16","29.3405","4.652","51.99","0","SATNPRO1963","30.45","0.4265","5"],
    [18173,"HCEP03730560","2024-04-04 15:30:00","9.5312","3.21274","26.151","4.914","7.51","0.393","4.601","0.02","0.26","29.3402","4.65194","51.97","0","SATNPRO1963","30.402","0.42582","5"],
    [18174,"HCEP03730560","2024-04-04 15:45:00","9.5295","3.21273","26.025","4.926","7.51","0.336","4.316","0.02","0.18","29.3416","4.65216","52.1","0","SATNPRO1963","30.152","0.42234","5"],
    [18175,"HCEP03730560","2024-04-04 16:00:00","9.5277","3.21256","25.879","4.953","7.51","0.383","4.257","0.03","0.18","29.3414","4.65215","52.38","0","SATNPRO1963","30.25","0.42366","5"],
    [18176,"HCEP03730560","2024-04-04 16:15:00","9.5271","3.21244","25.727","4.97","7.52","0.34","3.943","0.02","0.19","29.3407","4.65205","52.56","0","SATNPRO1963","30.434","0.4263","5"],
    [18177,"HCEP03730560","2024-04-04 16:30:00","9.5216","3.21207","25.547","5.068","7.52","0.384","4.452","0.02","0.4","29.3415","4.65226","53.59","0","SATNPRO1963","30.688","0.42982","5"],
    [18178,"HCEP03730560","2024-04-04 16:45:00","9.5174","3.21187","25.395","5.163","7.53","0.337","4.505","0.02","0.38","29.343","4.65254","54.59","0","SATNPRO1963","30.562","0.42808","5"],
    [18179,"HCEP03730560","2024-04-04 17:00:00","9.5153","3.21175","25.206","5.229","7.53","0.371","3.735","0.03","0.16","29.3436","4.65265","55.29","0","SATNPRO1963","30.938","0.43332","5"],
    [18180,"HCEP03730560","2024-04-04 17:15:00","9.5097","3.21211","25.059","5.322","7.54","0.342","4.558","0.03","0.33","29.3519","4.65392","56.27","0","SATNPRO1963","31.478","0.44092","5"],
    [18181,"HCEP03730560","2024-04-04 17:30:00","9.5067","3.21243","24.97","5.402","7.55","0.36","3.955","0.02","0.23","29.3576","4.65479","57.11","0","SATNPRO1963","31.182000000000002","0.43676","5"],
    [18182,"HCEP03730560","2024-04-04 17:45:00","9.5055","3.21313","24.821","5.475","7.55","0.31","3.795","0.02","0.28","29.3657","4.65596","57.88","0","SATNPRO1963","31.28","0.43818","5"],
    [18183,"HCEP03730560","2024-04-04 18:00:00","9.5058","3.21387","24.684","5.536","7.56","0.345","3.506","0.02","0.19","29.373","4.657","58.53","0","SATNPRO1963","31.744","0.44466","5"],
    [18184,"HCEP03730560","2024-04-04 18:15:00","9.506","3.21421","24.56","5.55","7.56","0.302","3.452","0.02","0.25","29.3764","4.65747","58.68","0","SATNPRO1963","31.514","0.4414","5"],
    [18185,"HCEP03730560","2024-04-04 18:30:00","9.5058","3.21437","24.455","5.564","7.56","0.354","3.367","0.03","0.24","29.3782","4.65773","58.82","0","SATNPRO1963","31.534","0.44172","5"],
    [18186,"HCEP03730560","2024-04-04 18:45:00","9.5052","3.21439","24.448","5.571","7.57","0.299","2.968","0.02","0.19","29.3788","4.65783","58.91","0","SATNPRO1963","31.52","0.44152","5"],
    [18187,"HCEP03730560","2024-04-04 19:00:00","9.5057","3.21439","24.407","5.561","7.57","0.347","3.316","0.02","0.17","29.3785","4.65777","58.8","0","SATNPRO1963","31.52","0.44154","5"],
    [18188,"HCEP03730560","2024-04-04 19:15:00","9.5058","3.21442","24.375","5.556","7.57","0.294","3.609","0.01","0.26","29.3786","4.65779","58.74","0","SATNPRO1963","31.39","0.43964","5"],
    [18189,"HCEP03730560","2024-04-04 19:30:00","9.5061","3.21438","24.406","5.544","7.57","0.347","3.613","0.02","0.52","29.378","4.6577","58.62","0","SATNPRO1963","31.39","0.43966","5"],
    [18190,"HCEP03730560","2024-04-04 19:45:00","9.5063","3.21429","24.444","5.534","7.57","0.319","3.147","0.05","0.22","29.377","4.65755","58.51","0","SATNPRO1963","31.412","0.44","5"],
    [18191,"HCEP03730560","2024-04-04 20:00:00","9.5059","3.21439","24.478","5.546","7.56","0.345","2.754","0.04","0.06","29.3783","4.65774","58.64","0","SATNPRO1963","31.47","0.44082","5"],
    [18192,"HCEP03730560","2024-04-04 20:15:00","9.5063","3.2142","24.539","5.546","7.56","0.286","3.176","0.03","0.12","29.3759","4.6574","58.64","0","SATNPRO1963","31.286","0.43822","5"],
    [18193,"HCEP03730560","2024-04-04 20:30:00","9.5061","3.21417","24.631","5.54","7.56","0.343","3.187","0.01","0.2","29.3758","4.65739","58.57","0","SATNPRO1963","31.442","0.4404","5"],
    [18194,"HCEP03730560","2024-04-04 20:45:00","9.506","3.21383","24.776","5.529","7.56","0.296","3.38","0.02","0.17","29.3724","4.65692","58.46","0","SATNPRO1963","31.382","0.43954","5"],
    [18195,"HCEP03730560","2024-04-04 21:00:00","9.5061","3.21352","24.91","5.525","7.56","0.345","3.46","0.03","0.28","29.3691","4.65644","58.41","0","SATNPRO1963","31.236","0.43748","5"],
    [18196,"HCEP03730560","2024-04-04 21:15:00","9.5068","3.21324","25.069","5.511","7.56","0.299","3.297","0.02","0.12","29.3657","4.65595","58.26","0","SATNPRO1963","31.29","0.43824","5"],
    [18197,"HCEP03730560","2024-04-04 21:30:00","9.5107","3.2128","25.225","5.396","7.56","0.37","4.382","0.02","0.3","29.3579","4.65479","57.05","0","SATNPRO1963","30.948","0.43346","5"],
    [18198,"HCEP03730560","2024-04-04 21:45:00","9.5117","3.21243","25.402","5.265","7.55","0.347","5.079","0.03","0.72","29.3534","4.65412","55.66","0","SATNPRO1963","30.548","0.4279","5"],
    [18199,"HCEP03730560","2024-04-04 22:00:00","9.5179","3.21245","25.443","5.171","7.54","0.394","5.478","0.01","0.37","29.3484","4.6533","54.68","0","SATNPRO1963","30.814","0.4316","5"],
    [18200,"HCEP03730560","2024-04-04 22:15:00","9.52","3.21209","25.595","5.183","7.54","0.33","4.225","0.03","0.44","29.343","4.65251","54.81","0","SATNPRO1963","30.872","0.43244","5"],
    [18201,"HCEP03730560","2024-04-04 22:30:00","9.5243","3.21241","25.771","5.107","7.53","0.371","4.097","0.02","0.2","29.3427","4.65239","54.01","0","SATNPRO1963","30.546","0.42784","5"],
    [18202,"HCEP03730560","2024-04-04 22:45:00","9.5131","3.21307","26.031","5.254","7.54","0.33","5.168","0.03","0.37","29.3584","4.65485","55.55","0","SATNPRO1963","30.785999999999998","0.43118","5"],
    [18203,"HCEP03730560","2024-04-04 23:00:00","9.5102","3.21364","26.242","5.35","7.55","0.376","4.749","0.02","0.3","29.3665","4.65607","56.57","0","SATNPRO1963","31.238","0.43758","5"],
    [18204,"HCEP03730560","2024-04-04 23:15:00","9.509","3.2138","26.449","5.408","7.55","0.357","4.601","0.05","0.36","29.3689","4.65646","57.18","0","SATNPRO1963","31.238","0.43754","5"],
    [18205,"HCEP03730560","2024-04-04 23:30:00","9.5081","3.21414","26.645","5.443","7.56","0.356","4.204","0.02","0.2","29.3731","4.65709","57.55","0","SATNPRO1963","31.27","0.43798","5"],
    [18206,"HCEP03730560","2024-04-04 23:45:00","9.5095","3.21363","26.864","5.442","7.56","0.324","3.708","0.09","0.2","29.3666","4.65614","57.54","0","SATNPRO1963","31.124","0.43596","5"],
    [18207,"HCEP03730560","2024-04-05 00:00:00","9.5083","3.21392","27.03","5.455","7.56","0.342","3.5","0.01","0.09","29.3706","4.65674","57.68","0","SATNPRO1963","31.29","0.43824","5"],
    [18208,"HCEP03730560","2024-04-05 00:15:00","9.508","3.21471","27.177","5.47","7.56","0.314","4.364","0.01","0.22","29.3786","4.65791","57.83","0","SATNPRO1963","31.290000000000003","0.4382","5"],
    [18209,"HCEP03730560","2024-04-05 00:30:00","9.5079","3.21494","27.331","5.484","7.56","0.351","4.004","0.02","0.17","29.3811","4.65827","57.98","0","SATNPRO1963","31.23","0.43746","5"],
    [18210,"HCEP03730560","2024-04-05 00:45:00","9.5084","3.21506","27.452","5.48","7.56","0.311","3.889","0.01","0.22","29.3818","4.65838","57.95","0","SATNPRO1963","31.314","0.43864","5"],
    [18211,"HCEP03730560","2024-04-05 01:00:00","9.5068","3.21468","27.582","5.498","7.57","0.348","4.349","0.02","0.28","29.3792","4.65804","58.13","0","SATNPRO1963","31.472","0.44086","5"],
    [18212,"HCEP03730560","2024-04-05 01:15:00","9.5057","3.21431","27.673","5.56","7.57","0.296","3.473","0.02","0.24","29.3763","4.65765","58.79","0","SATNPRO1963","31.538","0.44174","5"],
    [18213,"HCEP03730560","2024-04-05 01:30:00","9.5063","3.21439","27.741","5.547","7.57","0.345","3.725","0.02","0.17","29.3766","4.65769","58.65","0","SATNPRO1963","31.195999999999998","0.43698","5"],
    [18214,"HCEP03730560","2024-04-05 01:45:00","9.5066","3.21405","27.807","5.525","7.57","0.3","3.728","0.01","0.19","29.373","4.65717","58.42","0","SATNPRO1963","31.276","0.43808","5"],
    [18215,"HCEP03730560","2024-04-05 02:00:00","9.5079","3.21394","27.853","5.487","7.57","0.344","3.642","0.01","0.12","29.3707","4.65681","58.01","0","SATNPRO1963","31.259999999999998","0.43786","5"],
    [18216,"HCEP03730560","2024-04-05 02:15:00","9.5108","3.21259","27.843","5.48","7.56","0.293","3.316","0.01","0.26","29.3546","4.65446","57.94","0","SATNPRO1963","31.424","0.44012","5"],
    [18217,"HCEP03730560","2024-04-05 02:30:00","9.5112","3.21231","27.882","5.466","7.56","0.348","3.4","0.02","0.14","29.3515","4.65401","57.79","0","SATNPRO1963","31.142","0.43622","5"],
    [18218,"HCEP03730560","2024-04-05 02:45:00","9.5166","3.21163","27.876","5.431","7.56","0.299","3.353","0.01","0.35","29.3402","4.65229","57.42","0","SATNPRO1963","31.338","0.43898","5"],
    [18219,"HCEP03730560","2024-04-05 03:00:00","9.5187","3.21146","27.863","5.4","7.56","0.333","2.598","0.01","0.1","29.3368","4.65177","57.09","0","SATNPRO1963","31.253999999999998","0.43778","5"],
    [18220,"HCEP03730560","2024-04-05 03:15:00","9.5243","3.21148","27.853","5.321","7.55","0.308","3.378","0.01","0.27","29.3324","4.65104","56.27","0","SATNPRO1963","31.212","0.43716","5"],
    [18221,"HCEP03730560","2024-04-05 03:30:00","9.5264","3.21132","27.82","5.295","7.55","0.348","4.333","0.02","3.7","29.3291","4.65052","55.99","0","SATNPRO1963","31.258","0.43782","5"],
    [18222,"HCEP03730560","2024-04-05 03:45:00","9.5157","3.2134","27.764","5.27","7.55","0.328","4.859","0.02","0.25","29.3589","4.65499","55.73","0","SATNPRO1963","30.704","0.43004","5"],
    [18223,"HCEP03730560","2024-04-05 04:00:00","9.5138","3.21348","27.724","5.305","7.55","0.365","4.712","0.02","0.24","29.3613","4.65536","56.09","0","SATNPRO1963","31.098","0.4356","5"],
    [18224,"HCEP03730560","2024-04-05 04:15:00","9.5087","3.2144","27.624","5.396","7.55","0.319","4.708","0.01","0.28","29.3748","4.65737","57.05","0","SATNPRO1963","31.204","0.43706","5"],
    [18225,"HCEP03730560","2024-04-05 04:30:00","9.5099","3.2155","27.532","5.393","7.55","0.372","5.214","0.02","0.27","29.385","4.65881","57.02","0","SATNPRO1963","30.94","0.4334","5"],
    [18226,"HCEP03730560","2024-04-05 04:45:00","9.5095","3.21582","27.427","5.403","7.56","0.31","4.317","0.02","0.29","29.3886","4.65933","57.14","0","SATNPRO1963","30.934","0.4333","5"],
    [18227,"HCEP03730560","2024-04-05 05:00:00","9.5068","3.21542","27.325","5.469","7.56","0.352","3.296","0.05","0.16","29.3868","4.65911","57.83","0","SATNPRO1963","31.354","0.43918","5"],
    [18228,"HCEP03730560","2024-04-05 05:15:00","9.5074","3.21536","27.22","5.467","7.56","0.294","3.466","0.01","0.18","29.3857","4.65894","57.81","0","SATNPRO1963","31.406","0.4399","5"],
    [18229,"HCEP03730560","2024-04-05 05:30:00","9.5077","3.21543","27.13","5.442","7.56","0.349","3.733","0.02","0.17","29.3862","4.659","57.55","0","SATNPRO1963","31.098","0.43558","5"],
    [18230,"HCEP03730560","2024-04-05 05:45:00","9.5076","3.21528","27.017","5.433","7.56","0.3","4.181","0.01","0.25","29.3849","4.65881","57.45","0","SATNPRO1963","31.158","0.43646","5"],
    [18231,"HCEP03730560","2024-04-05 06:00:00","9.5065","3.21498","26.902","5.443","7.56","0.355","3.929","0.02","0.19","29.3827","4.65851","57.56","0","SATNPRO1963","31.396","0.43978","5"],
    [18232,"HCEP03730560","2024-04-05 06:15:00","9.5058","3.21474","26.788","5.469","7.56","0.301","3.793","0.01","0.21","29.3809","4.65825","57.82","0","SATNPRO1963","31.282","0.43814","5"],
    [18233,"HCEP03730560","2024-04-05 06:30:00","9.5047","3.21446","26.665","5.476","7.56","0.34","3.571","0.01","0.23","29.3791","4.65802","57.89","0","SATNPRO1963","31.126","0.43592","5"],
    [18234,"HCEP03730560","2024-04-05 06:45:00","9.5045","3.21434","26.57","5.457","7.56","0.299","3.431","0.02","0.31","29.378","4.65785","57.69","0","SATNPRO1963","31.314","0.43858","5"],
    [18235,"HCEP03730560","2024-04-05 07:00:00","9.5048","3.21424","26.416","5.445","7.56","0.348","3.5","0.02","0.38","29.3768","4.65766","57.56","0","SATNPRO1963","31.266","0.4379","5"],
    [18236,"HCEP03730560","2024-04-05 07:15:00","9.5049","3.21414","26.374","5.447","7.56","0.302","3.437","0.01","0.14","29.3758","4.65751","57.59","0","SATNPRO1963","31.29","0.43828","5"],
    [18237,"HCEP03730560","2024-04-05 07:30:00","9.5048","3.21265","26.261","5.491","7.56","0.331","2.791","0.02","0.27","29.3608","4.65536","58.05","0","SATNPRO1963","31.372","0.43942","5"],
    [18238,"HCEP03730560","2024-04-05 07:45:00","9.505","3.21343","26.189","5.495","7.56","0.303","3.109","0.03","0.15","29.3686","4.65647","58.09","0","SATNPRO1963","31.188","0.43684","5"],
    [18239,"HCEP03730560","2024-04-05 08:00:00","9.505","3.21321","26.13","5.496","7.56","0.328","2.885","0.01","0.18","29.3664","4.65615","58.11","0","SATNPRO1963","31.52","0.44152","5"],
    [18240,"HCEP03730560","2024-04-05 08:15:00","9.5055","3.21256","26.102","5.504","7.56","0.288","2.367","0.03","0.11","29.3595","4.65515","58.19","0","SATNPRO1963","31.394000000000002","0.4397","5"],
    [18241,"HCEP03730560","2024-04-05 08:30:00","9.5054","3.21314","26.081","5.479","7.56","0.328","2.722","0.02","0.14","29.3655","4.65601","57.93","0","SATNPRO1963","31.186","0.4368","5"],
    [18242,"HCEP03730560","2024-04-05 08:45:00","9.5047","3.21404","26.067","5.489","7.56","0.285","2.868","0.02","0.15","29.3751","4.65739","58.03","0","SATNPRO1963","31.182","0.43678","5"],
    [18243,"HCEP03730560","2024-04-05 09:00:00","9.5048","3.21411","26.083","5.498","7.56","0.33","2.877","0.03","0.13","29.3756","4.65747","58.13","0","SATNPRO1963","31.452","0.44052","5"],
    [18244,"HCEP03730560","2024-04-05 09:15:00","9.5043","3.2133","26.129","5.556","7.57","0.27","2.316","0.01","0.1","29.3679","4.65637","58.74","0","SATNPRO1963","31.483999999999998","0.44098","5"],
    [18245,"HCEP03730560","2024-04-05 09:30:00","9.5044","3.21364","26.163","5.567","7.57","0.313","2.634","0.01","0.19","29.3712","4.65686","58.85","0","SATNPRO1963","31.586","0.4424","5"],
    [18246,"HCEP03730560","2024-04-05 09:45:00","9.505","3.21405","26.224","5.538","7.57","0.275","2.701","0.01","0.12","29.3749","4.65737","58.55","0","SATNPRO1963","31.5","0.44122","5"],
    [18247,"HCEP03730560","2024-04-05 10:00:00","9.5047","3.21373","26.281","5.559","7.57","0.326","2.525","0.02","0.1","29.3719","4.65695","58.77","0","SATNPRO1963","31.676","0.44368","5"],
    [18248,"HCEP03730560","2024-04-05 10:15:00","9.5047","3.21308","26.373","5.576","7.57","0.256","2.252","0.01","0.13","29.3653","4.65601","58.95","0","SATNPRO1963","32.332","0.45286","5"],
    [18249,"HCEP03730560","2024-04-05 10:30:00","9.5058","3.21328","26.43","5.544","7.57","0.317","2.545","0.01","0.13","29.3663","4.65614","58.61","0","SATNPRO1963","31.336","0.43892","5"],
    [18250,"HCEP03730560","2024-04-05 10:45:00","9.5065","3.21225","26.505","5.5","7.57","0.271","2.291","0.02","0.19","29.3553","4.65455","58.14","0","SATNPRO1963","31.546","0.44184","5"],
    [18251,"HCEP03730560","2024-04-05 11:00:00","9.5063","3.21213","26.565","5.493","7.56","0.332","2.325","0.04","0.11","29.3542","4.65441","58.07","0","SATNPRO1963","31.346","0.43908","5"],
    [18252,"HCEP03730560","2024-04-05 11:15:00","9.5067","3.21244","26.635","5.47","7.56","0.297","2.547","0.04","0.11","29.357","4.65481","57.83","0","SATNPRO1963","31.23","0.43742","5"],
    [18253,"HCEP03730560","2024-04-05 11:30:00","9.5077","3.212","26.726","5.412","7.56","0.327","2.613","0.02","0.18","29.3517","4.65402","57.21","0","SATNPRO1963","31.152","0.43634","5"],
    [18254,"HCEP03730560","2024-04-05 11:45:00","9.5066","3.21264","26.82","5.444","7.56","0.285","2.991","0.01","0.54","29.359","4.65511","57.56","0","SATNPRO1963","31.318","0.43866","5"],
    [18255,"HCEP03730560","2024-04-05 12:00:00","9.5074","3.21226","26.913","5.408","7.56","0.335","2.568","0.02","0.09","29.3545","4.65445","57.17","0","SATNPRO1963","31.162","0.43646","5"],
    [18256,"HCEP03730560","2024-04-05 12:15:00","9.5087","3.21169","26.995","5.409","7.56","0.277","2.501","0.02","0.15","29.3477","4.65346","57.19","0","SATNPRO1963","31.080000000000002","0.4353","5"],
    [18257,"HCEP03730560","2024-04-05 12:30:00","9.5068","3.21263","27.069","5.419","7.56","1.402","13.298","0.77","11.12","29.3587","4.65507","57.29","0","SATNPRO1963","31.174","0.43664","5"],
    [18258,"HCEP03730560","2024-04-05 12:45:00","9.508","3.2125","27.138","5.412","7.56","0.574","8.87","0.37","3.25","29.3563","4.65472","57.22","0","SATNPRO1963","31.148","0.4363","5"],
    [18259,"HCEP03730560","2024-04-05 13:00:00","9.5071","3.21335","27.203","5.408","7.56","0.832","9.103","0.34","2.78","29.3657","4.65607","57.18","0","SATNPRO1963","31.056","0.43498","5"],
    [18260,"HCEP03730560","2024-04-05 13:15:00","9.5077","3.21331","27.247","5.404","7.56","0.654","9.83","0.18","5.23","29.3648","4.65594","57.13","0","SATNPRO1963","31.23","0.43744","5"],
    [18261,"HCEP03730560","2024-04-05 13:30:00","9.5085","3.21416","27.287","5.353","7.55","0.707","6.548","0.24","2.59","29.3727","4.65706","56.6","0","SATNPRO1963","30.477999999999998","0.42692","5"],
    [18262,"HCEP03730560","2024-04-05 13:45:00","9.5085","3.21377","27.305","5.36","7.55","0.501","9.876","0.17","4.87","29.3688","4.6565","56.67","0","SATNPRO1963","31.116","0.43586","5"],
    [18263,"HCEP03730560","2024-04-05 14:00:00","9.509","3.21313","27.292","5.372","7.55","0.58","7.128","0.14","3.98","29.3618","4.65549","56.8","0","SATNPRO1963","31.122","0.4359","5"],
    [18264,"HCEP03730560","2024-04-05 14:15:00","9.509","3.21358","27.285","5.373","7.55","0.426","3.614","0.13","1.86","29.3664","4.65615","56.81","0","SATNPRO1963","31.068","0.43516","5"],
    [18265,"HCEP03730560","2024-04-05 14:30:00","9.5099","3.21386","27.244","5.348","7.55","0.49","4.763","0.1","1.69","29.3686","4.65644","56.55","0","SATNPRO1963","30.994","0.43412","5"],
    [18266,"HCEP03730560","2024-04-05 14:45:00","9.5127","3.21291","27.136","5.311","7.55","0.453","5.661","0.13","4.55","29.3567","4.65468","56.15","0","SATNPRO1963","30.952","0.4335","5"],
    [18267,"HCEP03730560","2024-04-05 15:00:00","9.5151","3.21207","27.061","5.287","7.55","0.328","2.417","0.03","0.11","29.3463","4.65314","55.9","0","SATNPRO1963","31.118","0.43588","5"],
    [18268,"HCEP03730560","2024-04-05 15:15:00","9.5156","3.21263","26.951","5.249","7.54","0.296","3.077","0.02","0.17","29.3515","4.65388","55.5","0","SATNPRO1963","31.04","0.4348","5"],
    [18269,"HCEP03730560","2024-04-05 15:30:00","9.5176","3.21164","26.854","5.277","7.54","0.322","2.278","0.01","0.22","29.3399","4.65218","55.8","0","SATNPRO1963","31.186","0.43682","5"],
    [18270,"HCEP03730560","2024-04-05 15:45:00","9.5171","3.21114","26.737","5.364","7.55","0.272","1.915","0.02","0.09","29.3354","4.65153","56.71","0","SATNPRO1963","31.404","0.4399","5"],
    [18271,"HCEP03730560","2024-04-05 16:00:00","9.5157","3.2106","26.609","5.476","7.55","0.316","1.83","0.02","0.07","29.331","4.65092","57.89","0","SATNPRO1963","31.658","0.44344","5"],
    [18272,"HCEP03730560","2024-04-05 16:15:00","9.5165","3.21042","26.459","5.529","7.56","0.264","1.787","0.01","0.07","29.3287","4.65057","58.46","0","SATNPRO1963","31.668","0.44358","5"],
    [18273,"HCEP03730560","2024-04-05 16:30:00","9.5162","3.21044","26.323","5.52","7.56","0.315","1.935","0.02","0.11","29.3291","4.65062","58.36","0","SATNPRO1963","31.604","0.44264","5"],
    [18274,"HCEP03730560","2024-04-05 16:45:00","9.5207","3.21126","26.199","5.345","7.55","0.271","2.082","0.01","0.09","29.3338","4.65121","56.52","0","SATNPRO1963","31.206","0.43706","5"],
    [18275,"HCEP03730560","2024-04-05 17:00:00","9.5208","3.21149","26.004","5.268","7.54","0.323","2.275","0.01","0.07","29.3361","4.65152","55.7","0","SATNPRO1963","30.988","0.43406","5"],
    [18276,"HCEP03730560","2024-04-05 17:15:00","9.5196","3.21145","25.836","5.262","7.54","0.276","2.181","0.01","0.07","29.3368","4.65163","55.63","0","SATNPRO1963","30.96","0.43364","5"],
    [18277,"HCEP03730560","2024-04-05 17:30:00","9.5191","3.2117","25.699","5.243","7.54","0.335","2.685","0.02","0.13","29.3398","4.65207","55.44","0","SATNPRO1963","30.848","0.43206","5"],
    [18278,"HCEP03730560","2024-04-05 17:45:00","9.5202","3.21238","25.483","5.157","7.53","0.296","2.846","0.01","0.11","29.3458","4.6529","54.53","0","SATNPRO1963","30.676000000000002","0.42966","5"],
    [18279,"HCEP03730560","2024-04-05 18:00:00","9.5202","3.21172","25.309","5.189","7.53","0.322","2.291","0.01","0.09","29.3393","4.65195","54.87","0","SATNPRO1963","30.974","0.43382","5"],
    [18280,"HCEP03730560","2024-04-05 18:15:00","9.5202","3.21148","25.151","5.223","7.53","0.273","2.045","0.01","0.07","29.3369","4.6516","55.22","0","SATNPRO1963","31.284","0.43818","5"],
    [18281,"HCEP03730560","2024-04-05 18:30:00","9.5194","3.21104","24.979","5.345","7.54","0.309","1.886","0.01","0.08","29.3332","4.65107","56.52","0","SATNPRO1963","31.244","0.43768","5"],
    [18282,"HCEP03730560","2024-04-05 18:45:00","9.5141","3.21037","24.837","5.568","7.55","0.265","1.435","0.02","0.07","29.3308","4.65082","58.87","0","SATNPRO1963","32.032","0.44866","5"],
    [18283,"HCEP03730560","2024-04-05 19:00:00","9.5127","3.20989","24.709","5.639","7.56","0.306","1.407","0.02","0.07","29.3271","4.6503","59.61","0","SATNPRO1963","32.014","0.44838","5"],
    [18284,"HCEP03730560","2024-04-05 19:15:00","9.5098","3.20885","24.591","5.68","7.57","0.26","1.263","0.01","0.09","29.319","4.64919","60.03","0","SATNPRO1963","32.014","0.44842","5"],
    [18285,"HCEP03730560","2024-04-05 19:30:00","9.5093","3.20895","24.472","5.704","7.57","0.296","1.192","0.01","0.06","29.3205","4.6494","60.29","0","SATNPRO1963","31.996","0.44818","5"],
    [18286,"HCEP03730560","2024-04-05 19:45:00","9.5146","3.20898","24.38","5.66","7.57","0.254","1.195","0.01","0.06","29.3165","4.64873","59.83","0","SATNPRO1963","31.912","0.447","5"],
    [18287,"HCEP03730560","2024-04-05 20:00:00","9.5128","3.20886","24.371","5.656","7.57","0.294","1.243","0.01","0.07","29.3168","4.6488","59.79","0","SATNPRO1963","32.002","0.4482","5"],
    [18288,"HCEP03730560","2024-04-05 20:15:00","9.5115","3.21018","24.358","5.642","7.57","0.271","2.139","0.01","0.4","29.3311","4.65088","59.64","0","SATNPRO1963","31.708000000000002","0.44414","5"],
    [18289,"HCEP03730560","2024-04-05 20:30:00","9.5146","3.21392","24.403","5.201","7.55","0.374","4.802","0.02","0.19","29.3664","4.65589","55","0","SATNPRO1963","30.42","0.42608","5"],
    [18290,"HCEP03730560","2024-04-05 20:45:00","9.5138","3.21423","24.476","5.102","7.53","0.324","4.964","0.01","0.16","29.3702","4.65645","53.95","0","SATNPRO1963","30.424","0.42614","5"],
    [18291,"HCEP03730560","2024-04-05 21:00:00","9.5124","3.21352","24.529","5.18","7.53","0.335","3.495","0.01","0.29","29.3641","4.6556","54.77","0","SATNPRO1963","30.586","0.4284","5"],
    [18292,"HCEP03730560","2024-04-05 21:15:00","9.5139","3.21233","24.611","5.264","7.54","0.29","2.893","0.02","0.18","29.3508","4.65367","55.66","0","SATNPRO1963","30.97","0.4338","5"],
    [18293,"HCEP03730560","2024-04-05 21:30:00","9.5136","3.21313","24.737","5.224","7.54","0.351","4.053","0.01","0.21","29.3591","4.65488","55.23","0","SATNPRO1963","30.712","0.43018","5"],
    [18294,"HCEP03730560","2024-04-05 21:45:00","9.5144","3.21148","24.898","5.366","7.54","0.286","2.669","0.03","0.66","29.3417","4.65238","56.73","0","SATNPRO1963","31.362","0.4393","5"],
    [18295,"HCEP03730560","2024-04-05 22:00:00","9.5131","3.21327","25.046","5.254","7.54","0.345","3.36","0.01","0.51","29.3608","4.65515","55.55","0","SATNPRO1963","30.642","0.4292","5"],
    [18296,"HCEP03730560","2024-04-05 22:15:00","9.5126","3.21349","25.237","5.219","7.54","0.313","3.58","0.05","0.09","29.3634","4.65554","55.19","0","SATNPRO1963","30.778000000000002","0.43114","5"],
    [18297,"HCEP03730560","2024-04-05 22:30:00","9.5122","3.21389","25.394","5.202","7.54","0.346","3.855","0.01","0.1","29.3677","4.65616","55.01","0","SATNPRO1963","30.61","0.42876","5"],
    [18298,"HCEP03730560","2024-04-05 22:45:00","9.5125","3.21355","25.6","5.201","7.54","0.293","3.138","0.01","0.12","29.3639","4.65563","54.99","0","SATNPRO1963","30.636","0.42912","5"],
    [18299,"HCEP03730560","2024-04-05 23:00:00","9.5141","3.21398","25.743","5.166","7.53","0.352","3.614","0.01","0.33","29.3669","4.65604","54.63","0","SATNPRO1963","30.56","0.42804","5"],
    [18300,"HCEP03730560","2024-04-05 23:15:00","9.515","3.21346","25.978","5.143","7.53","0.306","3.214","0.02","0.26","29.3608","4.65517","54.38","0","SATNPRO1963","30.604","0.42866","5"],
    [18301,"HCEP03730560","2024-04-05 23:30:00","9.5166","3.21326","26.191","5.131","7.53","0.344","3.393","0.01","0.09","29.3574","4.65466","54.26","0","SATNPRO1963","30.536","0.4277","5"],
    [18302,"HCEP03730560","2024-04-05 23:45:00","9.5143","3.21155","26.389","5.293","7.54","0.284","2.938","0.02","0.74","29.3418","4.65248","55.96","0","SATNPRO1963","31.134","0.43608","5"],
    [18303,"HCEP03730560","2024-04-06 00:00:00","9.5137","3.2114","26.599","5.379","7.55","0.329","2.637","0.02","0.07","29.3407","4.65235","56.87","0","SATNPRO1963","31.154","0.43638","5"],
    [18304,"HCEP03730560","2024-04-06 00:15:00","9.5138","3.21071","26.814","5.426","7.55","0.273","2.318","0.01","0.06","29.3336","4.65133","57.36","0","SATNPRO1963","31.396","0.43974","5"],
    [18305,"HCEP03730560","2024-04-06 00:30:00","9.5143","3.2108","27.032","5.411","7.55","0.321","2.586","0.01","0.08","29.3341","4.65141","57.21","0","SATNPRO1963","31.381999999999998","0.43958","5"],
    [18306,"HCEP03730560","2024-04-06 00:45:00","9.5138","3.21124","27.214","5.385","7.55","0.277","2.411","0.01","0.07","29.3388","4.65211","56.94","0","SATNPRO1963","31.238","0.43756","5"],
    [18307,"HCEP03730560","2024-04-06 01:00:00","9.5193","3.21093","27.38","5.327","7.55","0.316","2.409","0.01","0.15","29.3312","4.65092","56.32","0","SATNPRO1963","31.28","0.43816","5"],
    [18308,"HCEP03730560","2024-04-06 01:15:00","9.5135","3.21128","27.537","5.373","7.55","0.269","2.132","0.01","0.06","29.3394","4.65222","56.81","0","SATNPRO1963","31.132","0.43604","5"],
    [18309,"HCEP03730560","2024-04-06 01:30:00","9.5128","3.21149","27.693","5.404","7.55","0.328","2.719","0.01","0.15","29.342","4.65261","57.13","0","SATNPRO1963","31.276","0.4381","5"],
    [18310,"HCEP03730560","2024-04-06 01:45:00","9.5128","3.21229","27.806","5.346","7.55","0.28","2.631","0.01","0.13","29.3501","4.65378","56.52","0","SATNPRO1963","31.134","0.43608","5"],
    [18311,"HCEP03730560","2024-04-06 02:00:00","9.5123","3.21331","27.893","5.203","7.54","0.339","3.904","0.01","0.22","29.3607","4.6553","55.02","0","SATNPRO1963","30.562","0.4281","5"],
    [18312,"HCEP03730560","2024-04-06 02:15:00","9.5096","3.21285","27.923","5.324","7.55","0.282","3.188","0.01","0.11","29.3583","4.65502","56.29","0","SATNPRO1963","30.95","0.4335","5"],
    [18313,"HCEP03730560","2024-04-06 02:30:00","9.5112","3.21328","27.932","5.241","7.54","0.338","3.612","0.01","0.15","29.3613","4.65541","55.41","0","SATNPRO1963","30.494","0.42714","5"],
    [18314,"HCEP03730560","2024-04-06 02:45:00","9.5131","3.21354","27.952","5.129","7.54","0.309","4.328","0.01","0.16","29.3624","4.65554","54.23","0","SATNPRO1963","30.276","0.4241","5"],
    [18315,"HCEP03730560","2024-04-06 03:00:00","9.5133","3.21363","27.933","5.088","7.53","0.351","4.66","0.01","0.19","29.3631","4.65563","53.8","0","SATNPRO1963","30.428","0.42618","5"],
    [18316,"HCEP03730560","2024-04-06 03:15:00","9.5134","3.21374","27.919","5.079","7.53","0.308","4.719","0.01","0.15","29.3641","4.65578","53.7","0","SATNPRO1963","30.498","0.42722","5"],
    [18317,"HCEP03730560","2024-04-06 03:30:00","9.5137","3.21388","27.885","5.054","7.53","0.354","4.947","0.01","0.16","29.3654","4.65595","53.44","0","SATNPRO1963","30.259999999999998","0.4238","5"],
    [18318,"HCEP03730560","2024-04-06 03:45:00","9.5128","3.21347","27.871","5.087","7.53","0.303","4.551","0.01","0.2","29.3619","4.65547","53.79","0","SATNPRO1963","30.382","0.42554","5"],
    [18319,"HCEP03730560","2024-04-06 04:00:00","9.512","3.21309","27.803","5.144","7.53","0.34","3.945","0.01","0.26","29.3587","4.65502","54.39","0","SATNPRO1963","30.634","0.42906","5"],
    [18320,"HCEP03730560","2024-04-06 04:15:00","9.512","3.21286","27.724","5.183","7.53","0.299","4.008","0.01","0.14","29.3565","4.6547","54.8","0","SATNPRO1963","30.668","0.42954","5"],
    [18321,"HCEP03730560","2024-04-06 04:30:00","9.5108","3.21264","27.632","5.228","7.54","0.335","3.947","0.01","0.13","29.3553","4.65455","55.28","0","SATNPRO1963","30.73","0.43042","5"],
    [18322,"HCEP03730560","2024-04-06 04:45:00","9.5103","3.21265","27.546","5.239","7.54","0.295","3.997","0.01","0.13","29.3557","4.65461","55.39","0","SATNPRO1963","30.826","0.43178","5"],
    [18323,"HCEP03730560","2024-04-06 05:00:00","9.5119","3.21276","27.414","5.184","7.54","0.337","4.176","0.01","0.12","29.3557","4.65457","54.81","0","SATNPRO1963","30.402","0.42586","5"],
    [18324,"HCEP03730560","2024-04-06 05:15:00","9.5136","3.21289","27.342","5.092","7.53","0.308","4.507","0.01","0.14","29.3556","4.65452","53.84","0","SATNPRO1963","30.366","0.42536","5"],
    [18325,"HCEP03730560","2024-04-06 05:30:00","9.517","3.21279","27.209","4.993","7.52","0.359","4.947","0.01","0.26","29.3519","4.65393","52.79","0","SATNPRO1963","30.192","0.42286","5"],
    [18326,"HCEP03730560","2024-04-06 05:45:00","9.5232","3.21231","27.089","4.914","7.52","0.322","4.893","0.02","0.22","29.342","4.65238","51.96","0","SATNPRO1963","30.238","0.42352","5"],
    [18327,"HCEP03730560","2024-04-06 06:00:00","9.5306","3.21178","26.931","4.834","7.51","0.365","4.783","0.01","0.15","29.3307","4.65063","51.12","0","SATNPRO1963","30.14","0.42218","5"],
    [18328,"HCEP03730560","2024-04-06 06:15:00","9.5343","3.21153","26.79","4.81","7.51","0.321","4.541","0.01","0.12","29.3252","4.64977","50.87","0","SATNPRO1963","30.222","0.42332","5"],
    [18329,"HCEP03730560","2024-04-06 06:30:00","9.5379","3.21135","26.624","4.801","7.5","0.366","4.473","0.01","0.2","29.3205","4.64902","50.78","0","SATNPRO1963","30.398","0.4258","5"],
    [18330,"HCEP03730560","2024-04-06 06:45:00","9.5427","3.21112","26.459","4.791","7.5","0.327","4.447","0.01","0.26","29.3143","4.64804","50.68","0","SATNPRO1963","30.582","0.42834","5"],
    [18331,"HCEP03730560","2024-04-06 07:00:00","9.5502","3.21075","26.321","4.786","7.5","0.379","4.166","0.01","0.12","29.3046","4.64651","50.63","0","SATNPRO1963","30.51","0.42734","5"],
    [18332,"HCEP03730560","2024-04-06 07:15:00","9.5552","3.21069","26.169","4.739","7.5","0.343","3.977","0.01","0.15","29.2999","4.64573","50.13","0","SATNPRO1963","30.598","0.42856","5"],
    [18333,"HCEP03730560","2024-04-06 07:30:00","9.5589","3.2108","26.019","4.672","7.49","0.388","3.827","0.01","0.19","29.2981","4.6454","49.43","0","SATNPRO1963","30.488","0.4271","5"],
    [18334,"HCEP03730560","2024-04-06 07:45:00","9.5611","3.21087","25.873","4.608","7.49","0.353","4.154","0.02","0.52","29.2971","4.64522","48.76","0","SATNPRO1963","30.36","0.42524","5"],
    [18335,"HCEP03730560","2024-04-06 08:00:00","9.5641","3.21088","25.769","4.554","7.48","0.406","4.019","0.03","0.21","29.2948","4.64483","48.19","0","SATNPRO1963","30.368","0.42536","5"],
    [18336,"HCEP03730560","2024-04-06 08:15:00","9.5654","3.21085","25.665","4.526","7.48","0.358","4.04","0.02","0.45","29.2934","4.6446","47.89","0","SATNPRO1963","30.236","0.42352","5"],
    [18337,"HCEP03730560","2024-04-06 08:30:00","9.5667","3.21078","25.607","4.516","7.48","0.398","3.802","0.02","0.28","29.2917","4.64433","47.78","0","SATNPRO1963","30.312","0.42454","5"],
    [18338,"HCEP03730560","2024-04-06 08:45:00","9.5674","3.21075","25.579","4.511","7.48","0.353","3.592","0.02","0.23","29.2909","4.6442","47.73","0","SATNPRO1963","30.34","0.42498","5"],
    [18339,"HCEP03730560","2024-04-06 09:00:00","9.5682","3.21069","25.582","4.5","7.48","0.398","3.566","0.02","0.18","29.2895","4.64399","47.62","0","SATNPRO1963","30.558","0.42806","5"],
    [18340,"HCEP03730560","2024-04-06 09:15:00","9.57","3.21058","25.589","4.499","7.48","0.363","3.62","0.03","0.35","29.287","4.6436","47.61","0","SATNPRO1963","30.45","0.4265","5"],
    [18341,"HCEP03730560","2024-04-06 09:30:00","9.5709","3.21051","25.619","4.505","7.48","0.401","3.385","0.02","0.15","29.2855","4.64337","47.67","0","SATNPRO1963","30.928","0.43318","5"],
    [18342,"HCEP03730560","2024-04-06 09:45:00","9.5705","3.21046","25.658","4.515","7.48","0.352","3.432","0.02","0.27","29.2854","4.64336","47.78","0","SATNPRO1963","30.736","0.43048","5"],
    [18343,"HCEP03730560","2024-04-06 10:00:00","9.5705","3.21043","25.73","4.529","7.48","0.404","3.577","0.03","0.45","29.285","4.64331","47.93","0","SATNPRO1963","30.512","0.42736","5"],
    [18344,"HCEP03730560","2024-04-06 10:15:00","9.5686","3.21058","25.81","4.546","7.48","0.355","4.093","0.01","0.22","29.288","4.64377","48.11","0","SATNPRO1963","30.666","0.42952","5"],
    [18345,"HCEP03730560","2024-04-06 10:30:00","9.5681","3.21055","25.903","4.547","7.48","0.395","3.686","0.02","0.21","29.2881","4.64381","48.12","0","SATNPRO1963","30.664","0.42948","5"],
    [18346,"HCEP03730560","2024-04-06 10:45:00","9.5668","3.21068","25.974","4.537","7.48","0.355","3.877","0.02","0.31","29.2904","4.64417","48","0","SATNPRO1963","30.470000000000002","0.42678","5"],
    [18347,"HCEP03730560","2024-04-06 11:00:00","9.5656","3.21068","26.043","4.542","7.48","0.393","4.233","0.01","0.52","29.2914","4.64433","48.06","0","SATNPRO1963","30.47","0.42674","5"],
    [18348,"HCEP03730560","2024-04-06 11:15:00","9.563","3.21075","26.151","4.553","7.48","0.349","4.43","0.01","0.2","29.2942","4.64478","48.17","0","SATNPRO1963","30.648","0.42924","5"],
    [18349,"HCEP03730560","2024-04-06 11:30:00","9.5612","3.21071","26.237","4.559","7.48","0.443","4.983","0.1","0.24","29.2952","4.64497","48.24","0","SATNPRO1963","30.452","0.4265","5"],
    [18350,"HCEP03730560","2024-04-06 11:45:00","9.5556","3.21086","26.393","4.607","7.48","0.374","5.289","0.03","0.96","29.3012","4.64594","48.74","0","SATNPRO1963","30.572","0.42824","5"],
    [18351,"HCEP03730560","2024-04-06 12:00:00","9.553","3.21087","26.496","4.646","7.49","0.424","6.236","0.04","2.38","29.3034","4.64631","49.16","0","SATNPRO1963","30.656","0.42942","5"],
    [18352,"HCEP03730560","2024-04-06 12:15:00","9.5463","3.21133","26.566","4.638","7.49","0.362","5.626","0.01","0.33","29.3135","4.64787","49.06","0","SATNPRO1963","30.246","0.42364","5"],
    [18353,"HCEP03730560","2024-04-06 12:30:00","9.5416","3.21152","26.632","4.685","7.49","0.388","4.883","0.02","0.45","29.3192","4.64877","49.56","0","SATNPRO1963","30.382","0.42552","5"],
    [18354,"HCEP03730560","2024-04-06 12:45:00","9.5355","3.21189","26.763","4.738","7.49","0.343","4.944","0.02","0.3","29.3279","4.65013","50.11","0","SATNPRO1963","30.17","0.4226","5"],
    [18355,"HCEP03730560","2024-04-06 13:00:00","9.5325","3.21204","26.873","4.79","7.5","0.383","4.488","0.03","0.36","29.3318","4.65075","50.66","0","SATNPRO1963","30.402","0.42582","5"],
    [18356,"HCEP03730560","2024-04-06 13:15:00","9.5309","3.21213","26.987","4.807","7.5","0.347","4.728","0.06","0.67","29.334","4.65109","50.84","0","SATNPRO1963","30.14","0.42214","5"],
    [18357,"HCEP03730560","2024-04-06 13:30:00","9.5287","3.21225","27.112","4.812","7.5","0.368","4.565","0.02","0.34","29.337","4.65157","50.89","0","SATNPRO1963","30.246","0.4236","5"],
    [18358,"HCEP03730560","2024-04-06 13:45:00","9.5269","3.21229","27.212","4.853","7.5","0.317","4.263","0.02","0.26","29.3387","4.65186","51.32","0","SATNPRO1963","30.224","0.42332","5"],
    [18359,"HCEP03730560","2024-04-06 14:00:00","9.5271","3.2122","27.316","4.888","7.51","0.354","4.078","0.02","0.19","29.3376","4.65171","51.69","0","SATNPRO1963","30.336","0.42488","5"],
    [18360,"HCEP03730560","2024-04-06 14:15:00","9.5283","3.21207","27.355","4.92","7.51","0.308","3.922","0.01","0.24","29.3354","4.65137","52.03","0","SATNPRO1963","30.36","0.4252","5"],
    [18361,"HCEP03730560","2024-04-06 14:30:00","9.5295","3.21202","27.412","4.931","7.51","0.36","4.381","0.02","0.29","29.3338","4.65112","52.15","0","SATNPRO1963","30.572","0.4282","5"],
    [18362,"HCEP03730560","2024-04-06 14:45:00","9.5296","3.21196","27.45","4.964","7.51","0.307","4.082","0.01","0.18","29.3331","4.65102","52.5","0","SATNPRO1963","30.732","0.43046","5"],
    [18363,"HCEP03730560","2024-04-06 15:00:00","9.5285","3.21193","27.46","5.011","7.52","0.354","4.057","0.01","0.18","29.3337","4.65112","52.99","0","SATNPRO1963","30.676","0.42966","5"],
    [18364,"HCEP03730560","2024-04-06 15:15:00","9.5317","3.21178","27.376","4.998","7.52","0.291","3.306","0.01","0.14","29.3297","4.65049","52.86","0","SATNPRO1963","30.554000000000002","0.42796","5"],
    [18365,"HCEP03730560","2024-04-06 15:30:00","9.5321","3.21177","27.398","4.993","7.52","0.341","3.227","0.02","0.14","29.3292","4.65041","52.81","0","SATNPRO1963","30.898","0.43276","5"],
    [18366,"HCEP03730560","2024-04-06 15:45:00","9.5333","3.2117","27.335","4.988","7.52","0.296","3.42","0.01","0.15","29.3275","4.65015","52.76","0","SATNPRO1963","30.65","0.4293","5"],
    [18367,"HCEP03730560","2024-04-06 16:00:00","9.5321","3.21178","27.227","4.988","7.52","0.336","3.175","0.02","0.09","29.3294","4.65044","52.75","0","SATNPRO1963","30.826","0.43178","5"],
    [18368,"HCEP03730560","2024-04-06 16:15:00","9.5349","3.21152","27.156","4.99","7.52","0.277","2.454","0.02","0.09","29.3244","4.64966","52.77","0","SATNPRO1963","30.796","0.43138","5"],
    [18369,"HCEP03730560","2024-04-06 16:30:00","9.5382","3.21128","27.045","4.962","7.52","0.324","2.496","0.02","0.06","29.3194","4.64888","52.49","0","SATNPRO1963","30.658","0.42942","5"],
    [18370,"HCEP03730560","2024-04-06 16:45:00","9.5444","3.21116","26.94","4.836","7.51","0.285","2.528","0.02","0.07","29.3132","4.64788","51.16","0","SATNPRO1963","30.53","0.42764","5"],
    [18371,"HCEP03730560","2024-04-06 17:00:00","9.5412","3.21137","26.777","4.813","7.5","0.325","2.633","0.01","0.08","29.318","4.64861","50.91","0","SATNPRO1963","30.338","0.42492","5"],
    [18372,"HCEP03730560","2024-04-06 17:15:00","9.542","3.21129","26.683","4.81","7.5","0.283","2.648","0.01","0.07","29.3165","4.64839","50.87","0","SATNPRO1963","30.482","0.42696","5"],
    [18373,"HCEP03730560","2024-04-06 17:30:00","9.5463","3.21088","26.555","4.816","7.5","0.336","2.775","0.02","0.19","29.309","4.64722","50.95","0","SATNPRO1963","30.762","0.43082","5"],
    [18374,"HCEP03730560","2024-04-06 17:45:00","9.5385","3.2115","26.387","4.829","7.5","0.301","3.536","0.01","0.12","29.3217","4.64917","51.07","0","SATNPRO1963","30.414","0.42596","5"],
    [18375,"HCEP03730560","2024-04-06 18:00:00","9.5363","3.21167","26.192","4.837","7.5","0.368","4.966","0.01","0.33","29.3252","4.6497","51.16","0","SATNPRO1963","30.476","0.42684","5"],
    [18376,"HCEP03730560","2024-04-06 18:15:00","9.5364","3.21162","26.05","4.868","7.5","0.34","4.986","0.03","0.33","29.3247","4.64962","51.48","0","SATNPRO1963","30.562","0.42808","5"],
    [18377,"HCEP03730560","2024-04-06 18:30:00","9.5382","3.21147","25.821","4.865","7.5","0.379","5.341","0.02","0.3","29.3218","4.64916","51.45","0","SATNPRO1963","30.676000000000002","0.42968","5"],
    [18378,"HCEP03730560","2024-04-06 18:45:00","9.5422","3.21122","25.619","4.831","7.5","0.322","4.309","0.02","0.19","29.3161","4.64826","51.1","0","SATNPRO1963","30.464000000000002","0.4267","5"],
    [18379,"HCEP03730560","2024-04-06 19:00:00","9.5456","3.211","25.426","4.798","7.5","0.378","4.212","0.05","0.36","29.3111","4.64748","50.76","0","SATNPRO1963","30.624","0.42894","5"],
    [18380,"HCEP03730560","2024-04-06 19:15:00","9.5513","3.21064","25.235","4.76","7.5","0.326","3.98","0.02","0.2","29.303","4.64619","50.36","0","SATNPRO1963","30.544","0.42784","5"],
    [18381,"HCEP03730560","2024-04-06 19:30:00","9.5593","3.21034","24.954","4.702","7.49","0.366","3.659","0.02","0.26","29.2936","4.64469","49.75","0","SATNPRO1963","30.856","0.43214","5"],
    [18382,"HCEP03730560","2024-04-06 19:45:00","9.5578","3.21037","24.79","4.665","7.49","0.335","3.63","0.03","0.22","29.2951","4.64493","49.36","0","SATNPRO1963","30.67","0.4296","5"],
    [18383,"HCEP03730560","2024-04-06 20:00:00","9.5584","3.21024","24.649","4.653","7.49","0.388","4.073","0.03","0.26","29.2933","4.64466","49.23","0","SATNPRO1963","30.738","0.43054","5"],
    [18384,"HCEP03730560","2024-04-06 20:15:00","9.5581","3.21011","24.568","4.655","7.49","0.34","4.292","0.02","0.55","29.2923","4.6445","49.24","0","SATNPRO1963","30.648","0.4293","5"],
    [18385,"HCEP03730560","2024-04-06 20:30:00","9.5548","3.2102","24.482","4.681","7.49","0.385","4.167","0.02","0.45","29.296","4.64508","49.52","0","SATNPRO1963","30.498","0.42716","5"],
    [18386,"HCEP03730560","2024-04-06 20:45:00","9.5542","3.21014","24.457","4.692","7.49","0.344","4.357","0.03","0.29","29.2958","4.64508","49.64","0","SATNPRO1963","30.8","0.43142","5"],
    [18387,"HCEP03730560","2024-04-06 21:00:00","9.5543","3.20998","24.498","4.7","7.49","0.377","4.584","0.02","0.55","29.2941","4.64483","49.72","0","SATNPRO1963","30.414","0.42596","5"],
    [18388,"HCEP03730560","2024-04-06 21:15:00","9.5553","3.20989","24.533","4.68","7.49","0.339","4.278","0.03","0.31","29.2924","4.64457","49.51","0","SATNPRO1963","30.516000000000002","0.42742","5"],
    [18389,"HCEP03730560","2024-04-06 21:30:00","9.5571","3.20972","24.596","4.66","7.49","0.381","4.594","0.02","0.18","29.2892","4.64408","49.29","0","SATNPRO1963","30.592","0.42848","5"],
    [18390,"HCEP03730560","2024-04-06 21:45:00","9.5586","3.20967","24.687","4.638","7.48","0.346","4.311","0.03","0.28","29.2874","4.6438","49.06","0","SATNPRO1963","30.94","0.43336","5"],
    [18391,"HCEP03730560","2024-04-06 22:00:00","9.5589","3.20968","24.791","4.626","7.48","0.388","4.315","0.02","0.27","29.2872","4.64378","48.94","0","SATNPRO1963","30.602","0.42864","5"],
    [18392,"HCEP03730560","2024-04-06 22:15:00","9.5601","3.20985","24.931","4.594","7.48","0.328","4.095","0.02","0.36","29.2879","4.64387","48.6","0","SATNPRO1963","30.722","0.43032","5"],
    [18393,"HCEP03730560","2024-04-06 22:30:00","9.5597","3.21","25.073","4.593","7.48","0.376","3.985","0.03","0.32","29.2897","4.64414","48.59","0","SATNPRO1963","30.526","0.42758","5"],
    [18394,"HCEP03730560","2024-04-06 22:45:00","9.5597","3.20997","25.251","4.597","7.48","0.337","3.906","0.03","0.16","29.2893","4.64409","48.63","0","SATNPRO1963","30.53","0.42758","5"],
    [18395,"HCEP03730560","2024-04-06 23:00:00","9.5597","3.20998","25.383","4.585","7.48","0.375","3.742","0.04","0.12","29.2893","4.6441","48.5","0","SATNPRO1963","29.224","0.40932","5"],
    [18396,"HCEP03730560","2024-04-06 23:15:00","9.5581","3.20989","25.577","4.596","7.48","0.331","4.089","0.02","0.2","29.2897","4.6442","48.63","0","SATNPRO1963","30.52","0.42744","5"],
    [18397,"HCEP03730560","2024-04-06 23:30:00","9.5571","3.21017","25.755","4.584","7.48","0.375","4.051","0.02","0.23","29.2933","4.64474","48.49","0","SATNPRO1963","30.238","0.42354","5"],
    [18398,"HCEP03730560","2024-04-06 23:45:00","9.5566","3.21028","25.956","4.588","7.48","0.337","4.192","0.02","0.2","29.2948","4.64497","48.54","0","SATNPRO1963","30.362","0.42524","5"],
    [18399,"HCEP03730560","2024-04-07 00:00:00","9.5554","3.21049","26.143","4.594","7.48","0.366","3.746","0.01","0.2","29.2977","4.64542","48.6","0","SATNPRO1963","30.456","0.42662","5"],
    [18400,"HCEP03730560","2024-04-07 00:15:00","9.5535","3.21094","26.343","4.539","7.48","0.348","5.238","0.02","0.29","29.3038","4.64634","48.02","0","SATNPRO1963","30.226","0.42338","5"],
    [18401,"HCEP03730560","2024-04-07 00:30:00","9.5498","3.21121","26.539","4.567","7.48","0.399","5.27","0.02","0.29","29.3094","4.64722","48.31","0","SATNPRO1963","30.064","0.42116","5"],
    [18402,"HCEP03730560","2024-04-07 00:45:00","9.5473","3.2114","26.742","4.597","7.48","0.343","4.667","0.03","0.34","29.3133","4.64783","48.62","0","SATNPRO1963","30.268","0.42394","5"],
    [18403,"HCEP03730560","2024-04-07 01:00:00","9.5478","3.21141","26.944","4.593","7.48","0.388","4.347","0.02","0.27","29.3129","4.64778","48.59","0","SATNPRO1963","30.174","0.42264","5"],
    [18404,"HCEP03730560","2024-04-07 01:15:00","9.548","3.21143","27.147","4.588","7.48","0.334","4.105","0.02","0.13","29.3128","4.64777","48.53","0","SATNPRO1963","30.166","0.42256","5"],
    [18405,"HCEP03730560","2024-04-07 01:30:00","9.5485","3.21141","27.351","4.582","7.48","0.383","4.335","0.03","0.54","29.3122","4.6477","48.47","0","SATNPRO1963","30.21","0.42314","5"],
    [18406,"HCEP03730560","2024-04-07 01:45:00","9.548400000000001","3.21143","27.501","4.58","7.49","0.335","4.45","0.01","0.2","29.3124","4.64772","48.45","0","SATNPRO1963","30.194","0.42288","5"],
    [18407,"HCEP03730560","2024-04-07 02:00:00","9.5487","3.21144","27.649","4.574","7.48","0.369","4.085","0.01","0.18","29.3122","4.6477","48.39","0","SATNPRO1963","30.058","0.421","5"],
    [18408,"HCEP03730560","2024-04-07 02:15:00","9.549","3.21151","27.784","4.551","7.48","0.332","4.43","0.02","0.16","29.3126","4.64776","48.15","0","SATNPRO1963","30.072","0.42124","5"],
    [18409,"HCEP03730560","2024-04-07 02:30:00","9.5494","3.21149","27.904","4.548","7.48","0.386","4.424","0.02","0.23","29.312","4.64768","48.12","0","SATNPRO1963","30.198","0.42292","5"],
    [18410,"HCEP03730560","2024-04-07 02:45:00","9.5495","3.2115","27.991","4.539","7.48","0.344","4.405","0.02","0.15","29.312","4.64767","48.02","0","SATNPRO1963","30.038","0.42074","5"],
    [18411,"HCEP03730560","2024-04-07 03:00:00","9.55","3.21147","28.067","4.533","7.48","0.384","4.359","0.02","0.18","29.3112","4.64757","47.96","0","SATNPRO1963","29.952","0.41956","5"],
    [18412,"HCEP03730560","2024-04-07 03:15:00","9.5512","3.21136","28.116","4.546","7.48","0.331","4.181","0.02","0.19","29.3091","4.64724","48.09","0","SATNPRO1963","30.096","0.42154","5"],
    [18413,"HCEP03730560","2024-04-07 03:30:00","9.5511","3.21143","28.112","4.527","7.48","0.378","4.384","0.02","0.16","29.3099","4.64735","47.89","0","SATNPRO1963","30.186","0.42286","5"],
    [18414,"HCEP03730560","2024-04-07 03:45:00","9.5507","3.21149","28.1","4.514","7.48","13.806","655.573","1.88","222.69","29.3109","4.6475","47.75","0","SATNPRO1963","29.992","0.42008","5"],
    [18415,"HCEP03730560","2024-04-07 04:00:00","9.5507","3.21143","28.057","4.531","7.48","0.375","4.242","0.02","0.16","29.3102","4.64741","47.94","0","SATNPRO1963","30.208","0.4231","5"],
    [18416,"HCEP03730560","2024-04-07 04:15:00","9.5505","3.2114","28.002","4.547","7.48","0.325","3.916","0.02","0.12","29.3101","4.64739","48.1","0","SATNPRO1963","30.014","0.4204","5"],
    [18417,"HCEP03730560","2024-04-07 04:30:00","9.5508","3.21135","27.923","4.548","7.48","0.382","4.002","0.03","0.14","29.3095","4.64729","48.11","0","SATNPRO1963","30.11","0.42176","5"],
    [18418,"HCEP03730560","2024-04-07 04:45:00","9.551","3.21137","27.844","4.539","7.48","0.324","4.118","0.02","0.19","29.3096","4.6473","48.02","0","SATNPRO1963","30.326","0.42478","5"],
    [18419,"HCEP03730560","2024-04-07 05:00:00","9.5513","3.21136","27.751","4.53","7.48","0.379","4.006","0.03","0.16","29.3093","4.64724","47.93","0","SATNPRO1963","30.144","0.42224","5"],
    [18420,"HCEP03730560","2024-04-07 05:15:00","9.552","3.21127","27.633","4.537","7.48","0.322","4.054","0.01","0.11","29.3078","4.64702","48","0","SATNPRO1963","30.144","0.42218","5"],
    [18421,"HCEP03730560","2024-04-07 05:30:00","9.553","3.21118","27.529","4.535","7.48","0.37","4.186","0.01","0.27","29.3061","4.64675","47.97","0","SATNPRO1963","30.066","0.42112","5"],
    [18422,"HCEP03730560","2024-04-07 05:45:00","9.5545","3.21109","27.361","4.512","7.48","0.33","4.327","0.01","0.16","29.3041","4.64642","47.74","0","SATNPRO1963","30.078","0.42126","5"],
    [18423,"HCEP03730560","2024-04-07 06:00:00","9.556","3.21125","27.228","4.452","7.48","0.389","4.723","0.01","0.16","29.3045","4.64644","47.1","0","SATNPRO1963","29.972","0.41982","5"],
    [18424,"HCEP03730560","2024-04-07 06:15:00","9.5571","3.21107","27.124","4.429","7.47","0.342","4.722","0.02","0.18","29.3018","4.64604","46.85","0","SATNPRO1963","30.142","0.42218","5"],
    [18425,"HCEP03730560","2024-04-07 06:30:00","9.5583","3.21111","26.938","4.411","7.47","0.395","5.074","0.01","0.27","29.3013","4.64593","46.67","0","SATNPRO1963","29.82","0.41768","5"],
    [18426,"HCEP03730560","2024-04-07 06:45:00","9.5594","3.21111","26.778","4.378","7.47","0.35","5.155","0.01","0.23","29.3005","4.64579","46.32","0","SATNPRO1963","29.663999999999998","0.41548","5"],
    [18427,"HCEP03730560","2024-04-07 07:00:00","9.5599","3.211","26.596","4.366","7.47","0.394","4.823","0.01","0.2","29.2991","4.64557","46.2","0","SATNPRO1963","29.8","0.4174","5"],
    [18428,"HCEP03730560","2024-04-07 07:15:00","9.5609","3.21072","26.417","4.385","7.47","0.35","4.748","0.01","0.15","29.2954","4.64501","46.4","0","SATNPRO1963","29.738","0.41652","5"],
    [18429,"HCEP03730560","2024-04-07 07:30:00","9.5609","3.21096","26.186","4.367","7.47","0.4","4.816","0.02","0.17","29.298","4.64536","46.21","0","SATNPRO1963","29.948","0.41948","5"],
    [18430,"HCEP03730560","2024-04-07 07:45:00","9.5617","3.21087","25.993","4.371","7.47","0.359","4.36","0.04","0.25","29.2966","4.64514","46.25","0","SATNPRO1963","29.988","0.42006","5"],
    [18431,"HCEP03730560","2024-04-07 08:00:00","9.5616","3.21099","25.782","4.372","7.46","0.395","4.62","0.02","0.25","29.2979","4.64532","46.26","0","SATNPRO1963","30.02","0.4205","5"],
    [18432,"HCEP03730560","2024-04-07 08:15:00","9.5622","3.21091","25.61","4.384","7.46","0.341","4.083","0.03","0.68","29.2966","4.64511","46.39","0","SATNPRO1963","30.184","0.4228","5"],
    [18433,"HCEP03730560","2024-04-07 08:30:00","9.5634","3.21088","25.445","4.376","7.46","0.377","3.716","0.02","0.2","29.2954","4.64491","46.3","0","SATNPRO1963","30.1","0.4216","5"],
    [18434,"HCEP03730560","2024-04-07 08:45:00","9.5664","3.2105","25.313","4.411","7.47","0.316","3.174","0.02","0.14","29.2892","4.64397","46.67","0","SATNPRO1963","30.12","0.42188","5"],
    [18435,"HCEP03730560","2024-04-07 09:00:00","9.5639","3.21075","25.201","4.424","7.47","0.357","3.345","0.01","0.14","29.2938","4.64466","46.81","0","SATNPRO1963","30.028","0.42058","5"],
    [18436,"HCEP03730560","2024-04-07 09:15:00","9.5624","3.21089","25.147","4.405","7.47","0.325","4.044","0.02","0.11","29.2965","4.64507","46.61","0","SATNPRO1963","30.012","0.42036","5"],
    [18437,"HCEP03730560","2024-04-07 09:30:00","9.5695","3.20993","25.129","4.448","7.47","0.348","2.974","0.01","0.13","29.281","4.64272","47.06","0","SATNPRO1963","30.544","0.4278","5"],
    [18438,"HCEP03730560","2024-04-07 09:45:00","9.5622","3.21078","25.123","4.431","7.47","0.313","3.381","0.01","0.11","29.2955","4.64493","46.89","0","SATNPRO1963","29.898","0.4188","5"],
    [18439,"HCEP03730560","2024-04-07 10:00:00","9.5603","3.21112","25.125","4.353","7.46","0.388","5.001","0.02","0.23","29.3005","4.64568","46.06","0","SATNPRO1963","29.662","0.41548","5"],
    [18440,"HCEP03730560","2024-04-07 10:15:00","9.5592","3.21096","25.15","4.348","7.46","0.34","4.654","0.02","0.24","29.2998","4.6456","46","0","SATNPRO1963","29.858","0.41826","5"],
    [18441,"HCEP03730560","2024-04-07 10:30:00","9.5599","3.21011","25.194","4.441","7.47","0.386","3.657","0.13","0.27","29.2906","4.64427","46.98","0","SATNPRO1963","30.08","0.42132","5"],
    [18442,"HCEP03730560","2024-04-07 10:45:00","9.5603","3.2091","25.26","4.561","7.47","0.313","3.511","0.02","0.31","29.28","4.64275","48.25","0","SATNPRO1963","30.598","0.42858","5"],
    [18443,"HCEP03730560","2024-04-07 11:00:00","9.5565","3.21081","25.39","4.447","7.47","0.385","5.071","0.01","0.17","29.3004","4.64575","47.05","0","SATNPRO1963","29.606","0.41468","5"],
    [18444,"HCEP03730560","2024-04-07 11:15:00","9.5561","3.2109","25.517","4.368","7.47","0.351","5.656","0.01","0.26","29.3016","4.64593","46.21","0","SATNPRO1963","29.754","0.41676","5"],
    [18445,"HCEP03730560","2024-04-07 11:30:00","9.5577","3.21036","25.609","4.405","7.47","0.39","5.594","0.01","0.21","29.2947","4.64492","46.6","0","SATNPRO1963","29.904","0.41888","5"],
    [18446,"HCEP03730560","2024-04-07 11:45:00","9.5588","3.20995","25.7","4.414","7.47","0.357","5.566","0.02","0.22","29.2896","4.64418","46.7","0","SATNPRO1963","29.948","0.41944","5"],
    [18447,"HCEP03730560","2024-04-07 12:00:00","9.5595","3.20983","25.826","4.421","7.47","0.387","5.261","0.02","0.18","29.2879","4.64393","46.77","0","SATNPRO1963","29.722","0.41628","5"],
    [18448,"HCEP03730560","2024-04-07 12:15:00","9.5608","3.20951","26.029","4.433","7.47","0.341","5.032","0.01","0.32","29.2834","4.64327","46.9","0","SATNPRO1963","30.2","0.423","5"],
    [18449,"HCEP03730560","2024-04-07 12:30:00","9.5615","3.20897","26.137","4.497","7.47","0.385","4.933","0.01","0.17","29.2774","4.6424","47.58","0","SATNPRO1963","30.148","0.42228","5"],
    [18450,"HCEP03730560","2024-04-07 12:45:00","9.5623","3.2087","26.237","4.524","7.47","0.332","4.612","0.02","0.22","29.274","4.6419","47.86","0","SATNPRO1963","30.116","0.4218","5"],
    [18451,"HCEP03730560","2024-04-07 13:00:00","9.5633","3.20847","26.473","4.526","7.48","0.398","4.665","0.02","0.21","29.2708","4.64144","47.88","0","SATNPRO1963","30.176000000000002","0.4227","5"],
    [18452,"HCEP03730560","2024-04-07 13:15:00","9.5651","3.20764","26.641","4.577","7.48","0.34","4.269","0.03","0.23","29.2608","4.63999","48.42","0","SATNPRO1963","30.259999999999998","0.42384","5"],
    [18453,"HCEP03730560","2024-04-07 13:30:00","9.5656","3.20744","26.745","4.627","7.48","0.388","4.477","0.02","0.31","29.2583","4.63964","48.95","0","SATNPRO1963","30.272","0.424","5"],
    [18454,"HCEP03730560","2024-04-07 13:45:00","9.5659","3.20738","26.897","4.633","7.48","0.346","4.77","0.02","0.25","29.2574","4.63951","49.01","0","SATNPRO1963","30.432","0.42628","5"],
    [18455,"HCEP03730560","2024-04-07 14:00:00","9.5659","3.20736","27.081","4.652","7.49","0.381","4.596","0.02","0.37","29.2571","4.63948","49.21","0","SATNPRO1963","30.648","0.42926","5"],
    [18456,"HCEP03730560","2024-04-07 14:15:00","9.5665","3.20728","27.218","4.68","7.49","0.329","3.706","0.02","0.24","29.2559","4.63929","49.5","0","SATNPRO1963","30.584","0.4284","5"],
    [18457,"HCEP03730560","2024-04-07 14:30:00","9.5662","3.20732","27.366","4.681","7.49","0.371","4.07","0.02","0.25","29.2565","4.63939","49.52","0","SATNPRO1963","30.53","0.42768","5"],
    [18458,"HCEP03730560","2024-04-07 14:45:00","9.5663","3.20749","27.49","4.622","7.49","0.349","4.505","0.03","0.17","29.258","4.63962","48.89","0","SATNPRO1963","30.606","0.42864","5"],
    [18459,"HCEP03730560","2024-04-07 15:00:00","9.5662","3.20762","27.57","4.581","7.48","0.386","4.318","0.02","0.15","29.2594","4.63983","48.46","0","SATNPRO1963","30.344","0.42502","5"],
    [18460,"HCEP03730560","2024-04-07 15:15:00","9.568","3.20679","27.662","4.638","7.49","0.338","4.033","0.02","0.16","29.2495","4.63838","49.07","0","SATNPRO1963","30.622","0.42894","5"],
    [18461,"HCEP03730560","2024-04-07 15:30:00","9.5716","3.20576","27.688","4.742","7.49","0.357","2.888","0.02","0.09","29.2361","4.6364","50.17","0","SATNPRO1963","30.906","0.43292","5"],
    [18462,"HCEP03730560","2024-04-07 15:45:00","9.5843","3.20434","27.716","4.745","7.49","0.319","1.783","0.07","0.09","29.2116","4.63266","50.2","0","SATNPRO1963","30.928","0.43322","5"],
    [18463,"HCEP03730560","2024-04-07 16:00:00","9.5956","3.20262","27.732","4.688","7.49","0.341","1.597","0.04","0.04","29.185","4.62865","49.6","0","SATNPRO1963","30.96","0.43362","5"],
    [18464,"HCEP03730560","2024-04-07 16:15:00","9.5697","3.20639","27.68","4.673","7.49","0.345","3.807","0.02","0.14","29.2441","4.63757","49.43","0","SATNPRO1963","30.8","0.43136","5"],
    [18465,"HCEP03730560","2024-04-07 16:30:00","9.5702","3.20588","27.63","4.715","7.49","0.365","3.343","0.02","0.14","29.2386","4.63677","49.88","0","SATNPRO1963","30.716","0.4303","5"],
    [18466,"HCEP03730560","2024-04-07 16:45:00","9.5631","3.20952","27.572","4.487","7.48","0.386","5.23","0.04","0.59","29.281","4.64298","47.47","0","SATNPRO1963","29.736","0.4165","5"],
    [18467,"HCEP03730560","2024-04-07 17:00:00","9.5645","3.20851","27.445","4.464","7.48","0.39","4.703","0.02","0.26","29.2698","4.64133","47.23","0","SATNPRO1963","30.054","0.42094","5"],
    [18468,"HCEP03730560","2024-04-07 17:15:00","9.566","3.20827","27.311","4.495","7.48","0.35","5.077","0.02","0.71","29.2662","4.64079","47.56","0","SATNPRO1963","29.982","0.41994","5"],
    [18469,"HCEP03730560","2024-04-07 17:30:00","9.5677","3.20746","27.235","4.531","7.48","0.401","4.888","0.02","0.23","29.2567","4.63939","47.93","0","SATNPRO1963","30.17","0.42258","5"],
    [18470,"HCEP03730560","2024-04-07 17:45:00","9.5691","3.20705","27.122","4.571","7.48","0.353","4.703","0.02","0.19","29.2514","4.63861","48.36","0","SATNPRO1963","30.330000000000002","0.42478","5"],
    [18471,"HCEP03730560","2024-04-07 18:00:00","9.5688","3.2073","26.98","4.542","7.48","0.411","5.244","0.02","0.23","29.2542","4.639","48.05","0","SATNPRO1963","30.234","0.42346","5"],
    [18472,"HCEP03730560","2024-04-07 18:15:00","9.5699","3.20774","26.829","4.483","7.48","0.359","4.751","0.02","0.17","29.2579","4.63951","47.43","0","SATNPRO1963","29.982","0.41996","5"],
    [18473,"HCEP03730560","2024-04-07 18:30:00","9.5706","3.20809","26.664","4.444","7.47","0.414","4.801","0.03","0.22","29.2609","4.63991","47.02","0","SATNPRO1963","30.066","0.42112","5"],
    [18474,"HCEP03730560","2024-04-07 18:45:00","9.5709","3.2085","26.526","4.4","7.47","0.353","4.871","0.02","0.19","29.2648","4.64045","46.55","0","SATNPRO1963","29.982","0.41998","5"],
    [18475,"HCEP03730560","2024-04-07 19:00:00","9.5709","3.20816","26.385","4.397","7.47","0.401","5.03","0.02","0.4","29.2615","4.63998","46.52","0","SATNPRO1963","30.178","0.42268","5"],
    [18476,"HCEP03730560","2024-04-07 19:15:00","9.5712","3.20787","26.209","4.444","7.47","0.352","4.887","0.02","0.23","29.2584","4.63952","47.02","0","SATNPRO1963","30.046","0.42088","5"],
    [18477,"HCEP03730560","2024-04-07 19:30:00","9.5704","3.20799","26.012","4.452","7.47","0.415","5.194","0.04","0.62","29.2603","4.63979","47.1","0","SATNPRO1963","30.22","0.42328","5"],
    [18478,"HCEP03730560","2024-04-07 19:45:00","9.57","3.20856","25.839","4.416","7.47","0.353","5.089","0.03","0.36","29.2664","4.64067","46.72","0","SATNPRO1963","29.874","0.41844","5"],
    [18479,"HCEP03730560","2024-04-07 20:00:00","9.5702","3.20914","25.651","4.381","7.47","0.384","4.558","0.02","0.24","29.2723","4.64149","46.36","0","SATNPRO1963","29.882","0.41856","5"],
    [18480,"HCEP03730560","2024-04-07 20:15:00","9.5718","3.20968","25.455","4.32","7.46","0.333","5.175","0.02","1.55","29.2765","4.64206","45.71","0","SATNPRO1963","30.064","0.4211","5"],
    [18481,"HCEP03730560","2024-04-07 20:30:00","9.5725","3.20972","25.277","4.286","7.46","0.394","5.109","0.03","0.72","29.2764","4.64202","45.35","0","SATNPRO1963","29.79","0.41724","5"],
    [18482,"HCEP03730560","2024-04-07 20:45:00","9.5754","3.20945","25.104","4.257","7.46","0.332","4.748","0.02","0.56","29.2714","4.64124","45.05","0","SATNPRO1963","30.93","0.43322","5"],
    [18483,"HCEP03730560","2024-04-07 21:00:00","9.5768","3.2094","24.949","4.237","7.45","0.385","4.622","0.03","0.29","29.2699","4.64099","44.83","0","SATNPRO1963","30.068","0.42118","5"],
    [18484,"HCEP03730560","2024-04-07 21:15:00","9.5785","3.20943","24.84","4.212","7.45","0.343","4.322","0.03","0.32","29.2687","4.64079","44.58","0","SATNPRO1963","29.784","0.41718","5"],
    [18485,"HCEP03730560","2024-04-07 21:30:00","9.5807","3.20936","24.787","4.175","7.45","0.384","4.597","0.03","0.3","29.2662","4.64039","44.19","0","SATNPRO1963","29.874000000000002","0.41842","5"],
    [18486,"HCEP03730560","2024-04-07 21:45:00","9.5824","3.20942","24.779","4.134","7.44","0.351","4.799","0.07","0.31","29.2655","4.64025","43.76","0","SATNPRO1963","29.922","0.41914","5"],
    [18487,"HCEP03730560","2024-04-07 22:00:00","9.5818","3.20986","24.814","4.104","7.44","0.387","5.213","0.02","0.21","29.2704","4.64098","43.43","0","SATNPRO1963","29.768","0.41694","5"],
    [18488,"HCEP03730560","2024-04-07 22:15:00","9.5842","3.20967","24.886","4.075","7.44","0.331","4.284","0.02","0.23","29.2665","4.64037","43.13","0","SATNPRO1963","29.906","0.41888","5"],
    [18489,"HCEP03730560","2024-04-07 22:30:00","9.5839","3.20966","24.981","4.064","7.44","0.388","4.486","0.05","0.19","29.2666","4.6404","43.01","0","SATNPRO1963","29.654","0.41534","5"],
    [18490,"HCEP03730560","2024-04-07 22:45:00","9.5796","3.21021","25.122","4.076","7.44","0.334","4.885","0.01","0.34","29.2756","4.64177","43.13","0","SATNPRO1963","29.772000000000002","0.417","5"],
    [18491,"HCEP03730560","2024-04-07 23:00:00","9.579","3.21023","25.249","4.092","7.44","0.397","4.946","0.06","0.36","29.2762","4.64188","43.31","0","SATNPRO1963","29.648","0.41524","5"],
    [18492,"HCEP03730560","2024-04-07 23:15:00","9.5797","3.21012","25.37","4.105","7.44","0.329","4.563","0.02","0.36","29.2745","4.64163","43.44","0","SATNPRO1963","29.764","0.41692","5"],
    [18493,"HCEP03730560","2024-04-07 23:30:00","9.5731","3.21025","25.505","4.165","7.44","0.393","5.329","0.02","0.28","29.2811","4.64269","44.07","0","SATNPRO1963","29.88","0.41854","5"],
    [18494,"HCEP03730560","2024-04-07 23:45:00","9.5711","3.21033","25.714","4.199","7.45","0.349","5.232","0.02","0.4","29.2835","4.64308","44.44","0","SATNPRO1963","29.852","0.41816","5"],
    [18495,"HCEP03730560","2024-04-08 00:00:00","9.5691","3.21024","25.904","4.24","7.45","0.407","5.419","0.02","0.35","29.2841","4.64321","44.86","0","SATNPRO1963","30.080000000000002","0.4213","5"],
    [18496,"HCEP03730560","2024-04-08 00:15:00","9.5669","3.21009","26.095","4.263","7.45","0.366","9.672","0.02","6.41","29.284300000000002","4.6433","45.11","0","SATNPRO1963","29.622","0.41488","5"],
    [18497,"HCEP03730560","2024-04-08 00:30:00","9.5634","3.20985","26.271","4.311","7.46","0.401","5.346","0.02","0.35","29.2846","4.64341","45.61","0","SATNPRO1963","29.608","0.41468","5"],
    [18498,"HCEP03730560","2024-04-08 00:45:00","9.563","3.20977","26.396","4.348","7.46","0.362","5.053","0.02","0.32","29.2842","4.64336","46.01","0","SATNPRO1963","29.772","0.417","5"],
    [18499,"HCEP03730560","2024-04-08 01:00:00","9.5627","3.20948","26.572","4.405","7.46","0.394","4.647","0.02","0.33","29.2814","4.64298","46.61","0","SATNPRO1963","29.912","0.41896","5"],
    [18500,"HCEP03730560","2024-04-08 01:15:00","9.5628","3.20948","26.751","4.44","7.47","0.355","4.992","0.02","0.25","29.2812","4.64297","46.98","0","SATNPRO1963","29.968","0.41978","5"],
    [18501,"HCEP03730560","2024-04-08 01:30:00","9.5636","3.20846","26.946","4.593","7.47","0.353","3.572","0.01","0.14","29.2702","4.64139","48.59","0","SATNPRO1963","30.578","0.42834","5"],
    [18502,"HCEP03730560","2024-04-08 01:45:00","9.5656","3.20683","27.167","4.786","7.49","0.285","5.746","0.01","8.88","29.2521","4.63876","50.63","0","SATNPRO1963","31.044","0.43482","5"],
    [18503,"HCEP03730560","2024-04-08 02:00:00","9.5614","3.20974","27.373","4.549","7.48","0.382","7.012","0.01","2.42","29.2848","4.64354","48.12","0","SATNPRO1963","30.112","0.42178","5"],
    [18504,"HCEP03730560","2024-04-08 02:15:00","9.5608","3.20999","27.515","4.456","7.48","0.336","4.374","0.02","0.15","29.2877","4.64397","47.15","0","SATNPRO1963","29.85","0.41808","5"],
    [18505,"HCEP03730560","2024-04-08 02:30:00","9.5603","3.21017","27.701","4.436","7.47","0.379","4.474","0.02","0.14","29.2898","4.64429","46.93","0","SATNPRO1963","29.78","0.41712","5"],
    [18506,"HCEP03730560","2024-04-08 02:45:00","9.5605","3.21006","27.801","4.434","7.47","0.327","4.053","0.02","0.14","29.2885","4.64411","46.91","0","SATNPRO1963","29.830000000000002","0.41782","5"],
    [18507,"HCEP03730560","2024-04-08 03:00:00","9.5611","3.2099","27.949","4.443","7.47","0.373","4.395","0.02","0.41","29.2864","4.64381","47.01","0","SATNPRO1963","29.900000000000002","0.41884","5"],
    [18508,"HCEP03730560","2024-04-08 03:15:00","9.5603","3.21017","28.066","4.449","7.47","0.327","3.881","0.02","0.16","29.2897","4.64429","47.07","0","SATNPRO1963","29.884","0.41856","5"],
    [18509,"HCEP03730560","2024-04-08 03:30:00","9.5605","3.2103","28.118","4.441","7.47","0.385","4.493","0.02","0.29","29.2909","4.64447","46.98","0","SATNPRO1963","29.855999999999998","0.4182","5"],
    [18510,"HCEP03730560","2024-04-08 03:45:00","9.56","3.21027","28.137","4.456","7.47","0.32","4.159","0.02","0.23","29.2909","4.64449","47.14","0","SATNPRO1963","30.02","0.4205","5"],
    [18511,"HCEP03730560","2024-04-08 04:00:00","9.5598","3.20995","28.142","4.518","7.47","0.367","3.639","0.03","0.56","29.2879","4.64405","47.8","0","SATNPRO1963","30.232","0.42348","5"],
    [18512,"HCEP03730560","2024-04-08 04:15:00","9.5606","3.20966","28.104","4.557","7.48","0.311","3.398","0.02","0.2","29.2842","4.64351","48.22","0","SATNPRO1963","30.274","0.42406","5"],
    [18513,"HCEP03730560","2024-04-08 04:30:00","9.5627","3.20886","28.082","4.639","7.48","0.325","2.033","0.02","0.09","29.2746","4.64209","49.08","0","SATNPRO1963","30.742","0.4306","5"],
    [18514,"HCEP03730560","2024-04-08 04:45:00","9.5618","3.20919","28.037","4.591","7.48","0.306","3.232","0.01","0.14","29.2786","4.64267","48.57","0","SATNPRO1963","30.202","0.42302","5"],
    [18515,"HCEP03730560","2024-04-08 05:00:00","9.5625","3.20898","27.966","4.572","7.48","0.362","3.467","0.02","0.27","29.276","4.64229","48.37","0","SATNPRO1963","30.294","0.42434","5"],
    [18516,"HCEP03730560","2024-04-08 05:15:00","9.5633","3.20816","27.875","4.623","7.48","0.306","3.069","0.02","0.08","29.2671","4.641","48.9","0","SATNPRO1963","30.408","0.4259","5"],
    [18517,"HCEP03730560","2024-04-08 05:30:00","9.5647","3.20698","27.7","4.689","7.49","0.347","3.112","0.02","0.33","29.2541","4.63909","49.6","0","SATNPRO1963","30.586000000000002","0.4284","5"],
    [18518,"HCEP03730560","2024-04-08 05:45:00","9.5668","3.20616","27.583","4.791","7.49","0.322","2.403","0.09","0.21","29.2441","4.63762","50.69","0","SATNPRO1963","30.75","0.4307","5"],
    [18519,"HCEP03730560","2024-04-08 06:00:00","9.5728","3.20451","27.455","4.851","7.5","0.339","1.861","0.03","0.09","29.2227","4.63444","51.32","0","SATNPRO1963","31.124","0.4359","5"],
    [18520,"HCEP03730560","2024-04-08 06:15:00","9.578","3.20336","27.31","4.881","7.5","0.298","1.725","0.02","0.09","29.2069","4.63208","51.63","0","SATNPRO1963","31.07","0.43518","5"],
    [18521,"HCEP03730560","2024-04-08 06:30:00","9.5746","3.20349","27.1","4.902","7.5","0.332","1.655","0.01","0.07","29.211","4.63272","51.85","0","SATNPRO1963","31.282","0.43816","5"],
    [18522,"HCEP03730560","2024-04-08 06:45:00","9.5699","3.20504","26.95","4.854","7.5","0.312","2.485","0.02","0.16","29.2306","4.63559","51.35","0","SATNPRO1963","31.024","0.43456","5"],
    [18523,"HCEP03730560","2024-04-08 07:00:00","9.5693","3.20535","26.765","4.772","7.5","0.364","2.705","0.02","0.12","29.2342","4.63612","50.48","0","SATNPRO1963","30.564","0.42808","5"],
    [18524,"HCEP03730560","2024-04-08 07:15:00","9.5666","3.20799","26.613","4.585","7.49","0.335","4.295","0.02","0.14","29.2632","4.64031","48.51","0","SATNPRO1963","30.124","0.42194","5"],
    [18525,"HCEP03730560","2024-04-08 07:30:00","9.566","3.20715","26.347","4.586","7.48","0.363","3.327","0.01","0.18","29.2553","4.63917","48.52","0","SATNPRO1963","30.5","0.4272","5"],
    [18526,"HCEP03730560","2024-04-08 07:45:00","9.5661","3.20791","26.193","4.585","7.48","0.319","3.921","0.01","0.15","29.2629","4.64025","48.51","0","SATNPRO1963","30.266000000000002","0.42394","5"],
    [18527,"HCEP03730560","2024-04-08 08:00:00","9.5673","3.20711","25.881","4.63","7.48","0.366","3.704","0.01","0.17","29.254","4.63893","48.98","0","SATNPRO1963","30.328","0.42478","5"],
    [18528,"HCEP03730560","2024-04-08 08:15:00","9.5694","3.2063","25.664","4.644","7.48","0.321","3.609","0.01","0.12","29.2443","4.63749","49.13","0","SATNPRO1963","30.532","0.42764","5"],
    [18529,"HCEP03730560","2024-04-08 08:30:00","9.5722","3.2057","25.452","4.641","7.48","0.369","3.863","0.01","0.14","29.236","4.63624","49.1","0","SATNPRO1963","30.486","0.42702","5"],
    [18530,"HCEP03730560","2024-04-08 08:45:00","9.5722","3.20597","25.285","4.61","7.48","0.329","4.034","0.01","0.11","29.2387","4.63663","48.77","0","SATNPRO1963","30.342","0.42496","5"],
    [18531,"HCEP03730560","2024-04-08 09:00:00","9.5734","3.20602","24.988","4.58","7.48","0.371","4.024","0.02","0.12","29.2384","4.63654","48.45","0","SATNPRO1963","30.194","0.4229","5"],
    [18532,"HCEP03730560","2024-04-08 09:15:00","9.5743","3.206","24.856","4.562","7.48","0.324","3.739","0.01","0.14","29.2375","4.63638","48.26","0","SATNPRO1963","30.408","0.4259","5"],
    [18533,"HCEP03730560","2024-04-08 09:30:00","9.5747","3.20621","24.718","4.539","7.47","0.36","3.639","0.01","0.11","29.2394","4.63664","48.03","0","SATNPRO1963","30.186","0.42276","5"],
    [18534,"HCEP03730560","2024-04-08 09:45:00","9.5752","3.20658","24.699","4.513","7.47","0.311","3.358","0.01","0.09","29.2428","4.63712","47.75","0","SATNPRO1963","30.276","0.42406","5"],
    [18535,"HCEP03730560","2024-04-08 10:00:00","9.5747","3.20733","24.568","4.45","7.47","0.379","4.387","0.02","0.13","29.2507","4.63826","47.08","0","SATNPRO1963","30.018","0.42046","5"],
    [18536,"HCEP03730560","2024-04-08 10:15:00","9.5724","3.20825","24.594","4.373","7.46","0.331","4.59","0.02","0.18","29.2618","4.63989","46.27","0","SATNPRO1963","29.752","0.41676","5"],
    [18537,"HCEP03730560","2024-04-08 10:30:00","9.5728","3.20883","24.614","4.299","7.46","0.37","4.71","0.01","0.14","29.2675","4.6407","45.49","0","SATNPRO1963","29.728","0.41634","5"],
    [18538,"HCEP03730560","2024-04-08 10:45:00","9.5727","3.2093","24.679","4.229","7.45","0.333","4.788","0.02","0.13","29.2722","4.64137","44.75","0","SATNPRO1963","29.532","0.41362","5"],
    [18539,"HCEP03730560","2024-04-08 11:00:00","9.5735","3.20988","24.689","4.15","7.45","0.375","4.808","0.03","0.14","29.2774","4.6421","43.92","0","SATNPRO1963","29.396","0.41174","5"],
    [18540,"HCEP03730560","2024-04-08 11:15:00","9.5744","3.21001","24.766","4.11","7.44","0.322","4.274","0.02","0.14","29.278","4.64218","43.49","0","SATNPRO1963","29.44","0.41236","5"],
    [18541,"HCEP03730560","2024-04-08 11:30:00","9.5738","3.21005","24.836","4.102","7.44","0.376","4.838","0.02","0.25","29.2788","4.64231","43.41","0","SATNPRO1963","29.56","0.41402","5"],
    [18542,"HCEP03730560","2024-04-08 11:45:00","9.5725","3.20994","25.012","4.132","7.44","0.329","4.667","0.01","0.16","29.2787","4.64233","43.73","0","SATNPRO1963","29.52","0.41354","5"],
    [18543,"HCEP03730560","2024-04-08 12:00:00","9.5712","3.20965","25.066","4.186","7.45","0.384","5.02","0.04","0.17","29.2768","4.64208","44.3","0","SATNPRO1963","29.696","0.41596","5"],
    [18544,"HCEP03730560","2024-04-08 12:15:00","9.5698","3.20962","25.296","4.223","7.45","0.327","4.746","0.02","0.13","29.2776","4.64224","44.68","0","SATNPRO1963","29.792","0.41726","5"],
    [18545,"HCEP03730560","2024-04-08 12:30:00","9.5684","3.20963","25.48","4.26","7.45","0.373","4.964","0.01","0.15","29.2788","4.64244","45.07","0","SATNPRO1963","29.752","0.4167","5"],
    [18546,"HCEP03730560","2024-04-08 12:45:00","9.5662","3.20964","25.607","4.306","7.46","0.32","4.528","0.01","0.19","29.2806","4.64275","45.57","0","SATNPRO1963","29.668","0.41558","5"],
    [18547,"HCEP03730560","2024-04-08 13:00:00","9.5652","3.2093","25.731","4.382","7.46","0.366","4.296","0.03","0.21","29.2779","4.64238","46.36","0","SATNPRO1963","29.906","0.4189","5"],
    [18548,"HCEP03730560","2024-04-08 13:15:00","9.566","3.20878","25.965","4.428","7.46","0.314","4.085","0.01","0.11","29.2719","4.64152","46.85","0","SATNPRO1963","29.976","0.4198","5"],
    [18549,"HCEP03730560","2024-04-08 13:30:00","9.5665","3.20867","26.162","4.42","7.47","0.377","5.296","0.01","0.1","29.2704","4.64131","46.76","0","SATNPRO1963","29.535999999999998","0.4137","5"],
    [18550,"HCEP03730560","2024-04-08 13:45:00","9.5673","3.20841","26.309","4.426","7.47","0.328","4.819","0.01","0.15","29.2669","4.64081","46.83","0","SATNPRO1963","29.986","0.42002","5"],
    [18551,"HCEP03730560","2024-04-08 14:00:00","9.5692","3.20759","26.579","4.458","7.47","0.374","4.668","0.01","0.13","29.257","4.63937","47.16","0","SATNPRO1963","29.932","0.41926","5"],
    [18552,"HCEP03730560","2024-04-08 14:15:00","9.5723","3.20602","26.611","4.495","7.47","0.329","4.692","0.01","0.22","29.2386","4.63669","47.56","0","SATNPRO1963","30.284","0.4242","5"],
    [18553,"HCEP03730560","2024-04-08 14:30:00","9.5698","3.20739","26.84","4.491","7.47","0.369","4.591","0.01","0.09","29.2544","4.639","47.51","0","SATNPRO1963","30","0.42022","5"],
    [18554,"HCEP03730560","2024-04-08 14:45:00","9.5719","3.20669","27.034","4.49","7.47","0.336","4.911","0.01","0.1","29.2456","4.63771","47.51","0","SATNPRO1963","29.846","0.41802","5"],
    [18555,"HCEP03730560","2024-04-08 15:00:00","9.5811","3.20195","27.184","4.641","7.48","0.383","4.341","0.02","0.18","29.1902","4.62963","49.1","0","SATNPRO1963","30.32","0.4247","5"],
    [18556,"HCEP03730560","2024-04-08 15:15:00","9.5972","3.19701","27.31","4.792","7.49","0.322","1.941","0.01","0.11","29.1273","4.62034","50.69","0","SATNPRO1963","29.806","0.41748","5"],
    [18557,"HCEP03730560","2024-04-08 15:30:00","9.6012","3.1951","27.516","4.882","7.5","0.364","1.731","0.02","0.04","29.1047","4.61703","51.63","0","SATNPRO1963","30.26","0.42384","5"],
    [18558,"HCEP03730560","2024-04-08 15:45:00","9.5993","3.19507","27.659","4.903","7.51","0.345","3.285","0.01","0.17","29.1059","4.61724","51.85","0","SATNPRO1963","30.354","0.42516","5"],
    [18559,"HCEP03730560","2024-04-08 16:00:00","9.5833","3.20252","27.652","4.692","7.5","0.382","4.033","0.02","0.11","29.194","4.63016","49.64","0","SATNPRO1963","30.918000000000003","0.4331","5"],
    [18560,"HCEP03730560","2024-04-08 16:15:00","9.5806","3.20521","27.678","4.484","7.48","0.333","4.508","0.02","0.18","29.2233","4.63441","47.44","0","SATNPRO1963","29.944","0.41942","5"],
    [18561,"HCEP03730560","2024-04-08 16:30:00","9.5783","3.20638","27.78","4.376","7.47","0.373","4.36","0.01","0.17","29.2369","4.6364","46.3","0","SATNPRO1963","29.876","0.41842","5"],
    [18562,"HCEP03730560","2024-04-08 16:45:00","9.5833","3.207","27.724","4.266","7.46","0.325","4.42","0.01","0.17","29.2391","4.63663","45.15","0","SATNPRO1963","29.54","0.4138","5"],
    [18563,"HCEP03730560","2024-04-08 17:00:00","9.5856","3.20739","27.672","4.145","7.46","0.38","4.536","0.02","0.26","29.2412","4.63688","43.87","0","SATNPRO1963","29.490000000000002","0.41306","5"],
    [18564,"HCEP03730560","2024-04-08 17:15:00","9.5854","3.2072","27.571","4.146","7.45","0.328","4.236","0.02","0.12","29.2395","4.63663","43.87","0","SATNPRO1963","29.592","0.41448","5"],
    [18565,"HCEP03730560","2024-04-08 17:30:00","9.5876","3.20655","27.381","4.181","7.45","0.379","3.965","0.02","0.2","29.2312","4.6354","44.25","0","SATNPRO1963","29.622","0.4149","5"],
    [18566,"HCEP03730560","2024-04-08 17:45:00","9.5891","3.20683","27.378","4.152","7.45","0.332","4.445","0.01","0.19","29.2329","4.63561","43.94","0","SATNPRO1963","29.462","0.41262","5"],
    [18567,"HCEP03730560","2024-04-08 18:00:00","9.5899","3.20709","27.283","4.088","7.45","0.371","3.908","0.02","0.21","29.2349","4.63589","43.26","0","SATNPRO1963","29.456","0.41258","5"],
    [18568,"HCEP03730560","2024-04-08 18:15:00","9.5884","3.20761","27.421","4.056","7.44","0.335","4.572","0.01","0.25","29.2412","4.63682","42.93","0","SATNPRO1963","29.408","0.41188","5"],
    [18569,"HCEP03730560","2024-04-08 18:30:00","9.5911","3.20683","27.308","4.068","7.44","0.382","5.08","0.02","0.2","29.2313","4.63534","43.05","0","SATNPRO1963","29.592000000000002","0.41444","5"],
    [18570,"HCEP03730560","2024-04-08 18:45:00","9.5959","3.20558","27.265","4.072","7.44","0.344","4.966","0.02","0.23","29.2148","4.63289","43.09","0","SATNPRO1963","29.484","0.413","5"],
    [18571,"HCEP03730560","2024-04-08 19:00:00","9.5974","3.20509","27.122","4.077","7.44","0.399","5.528","0.01","0.3","29.2087","4.63198","43.14","0","SATNPRO1963","29.56","0.414","5"],
    [18572,"HCEP03730560","2024-04-08 19:15:00","9.599","3.20455","27.028","4.104","7.44","0.365","5.917","0.01","0.28","29.202","4.63099","43.43","0","SATNPRO1963","29.580000000000002","0.41434","5"],
    [18573,"HCEP03730560","2024-04-08 19:30:00","9.5968","3.20428","26.883","4.15","7.44","0.432","6.759","0.02","0.56","29.2011","4.63089","43.92","0","SATNPRO1963","29.46","0.41264","5"],
    [18574,"HCEP03730560","2024-04-08 19:45:00","9.595","3.20455","26.667","4.167","7.45","0.389","6.807","0.02","0.37","29.2053","4.63152","44.1","0","SATNPRO1963","29.592","0.4145","5"],
    [18575,"HCEP03730560","2024-04-08 20:00:00","9.593","3.20474","26.465","4.17","7.45","0.431","6.342","0.02","0.46","29.209","4.63207","44.13","0","SATNPRO1963","29.718","0.41622","5"],
    [18576,"HCEP03730560","2024-04-08 20:15:00","9.5921","3.20483","26.408","4.173","7.45","0.396","6.392","0.03","0.42","29.2106","4.63231","44.16","0","SATNPRO1963","29.654","0.41534","5"],
    [18577,"HCEP03730560","2024-04-08 20:30:00","9.5918","3.20483","26.246","4.182","7.45","0.428","6.121","0.02","0.41","29.2109","4.63235","44.25","0","SATNPRO1963","29.63","0.415","5"],
    [18578,"HCEP03730560","2024-04-08 20:45:00","9.5918","3.20469","26.037","4.189","7.45","0.386","5.847","0.03","0.39","29.2096","4.63216","44.32","0","SATNPRO1963","29.573999999999998","0.41428","5"],
    [18579,"HCEP03730560","2024-04-08 21:00:00","9.592","3.20458","25.869","4.19","7.45","0.431","5.763","0.04","0.31","29.2084","4.63197","44.34","0","SATNPRO1963","29.516000000000002","0.41344","5"],
    [18580,"HCEP03730560","2024-04-08 21:15:00","9.5922","3.20454","25.671","4.191","7.45","0.383","5.286","0.02","0.29","29.2079","4.63188","44.35","0","SATNPRO1963","29.654","0.41534","5"],
    [18581,"HCEP03730560","2024-04-08 21:30:00","9.5922","3.20455","25.524","4.19","7.45","0.421","5.042","0.03","0.21","29.208","4.63189","44.34","0","SATNPRO1963","29.669999999999998","0.41562","5"],
    [18582,"HCEP03730560","2024-04-08 21:45:00","9.5921","3.20452","25.346","4.191","7.45","0.375","4.771","0.04","0.16","29.2079","4.63186","44.34","0","SATNPRO1963","29.728","0.41638","5"],
    [18583,"HCEP03730560","2024-04-08 22:00:00","9.5924","3.20452","25.228","4.19","7.45","0.426","4.697","0.05","0.18","29.2077","4.63182","44.34","0","SATNPRO1963","29.849999999999998","0.41806","5"],
    [18584,"HCEP03730560","2024-04-08 22:15:00","9.5921","3.2046","25.159","4.185","7.45","0.373","5.132","0.02","0.27","29.2088","4.63198","44.29","0","SATNPRO1963","29.61","0.41472","5"],
    [18585,"HCEP03730560","2024-04-08 22:30:00","9.5924","3.20456","25.232","4.174","7.45","0.42","4.976","0.02","0.22","29.2082","4.6319","44.17","0","SATNPRO1963","29.506","0.41332","5"],
    [18586,"HCEP03730560","2024-04-08 22:45:00","9.593","3.20441","25.294","4.166","7.45","0.389","4.963","0.03","0.19","29.2061","4.63159","44.08","0","SATNPRO1963","29.49","0.41306","5"],
    [18587,"HCEP03730560","2024-04-08 23:00:00","9.5947","3.20386","25.372","4.178","7.45","0.419","4.966","0.02","0.2","29.1991","4.63056","44.22","0","SATNPRO1963","29.57","0.4142","5"],
    [18588,"HCEP03730560","2024-04-08 23:15:00","9.5968","3.20264","25.476","4.198","7.45","0.376","4.606","0.02","0.26","29.1851","4.62853","44.42","0","SATNPRO1963","29.488","0.41302","5"],
    [18589,"HCEP03730560","2024-04-08 23:30:00","9.5966","3.2032","25.555","4.208","7.45","0.422","5.051","0.04","0.35","29.1909","4.62936","44.53","0","SATNPRO1963","29.774","0.417","5"],
    [18590,"HCEP03730560","2024-04-08 23:45:00","9.597","3.20335","25.631","4.184","7.45","0.379","4.736","0.02","0.24","29.192","4.62951","44.27","0","SATNPRO1963","29.918","0.419","5"],
    [18591,"HCEP03730560","2024-04-09 00:00:00","9.5972","3.20322","25.736","4.183","7.45","0.422","4.727","0.03","0.22","29.1905","4.6293","44.26","0","SATNPRO1963","29.712","0.41618","5"],
    [18592,"HCEP03730560","2024-04-09 00:15:00","9.5969","3.20301","25.943","4.192","7.45","0.376","4.547","0.03","0.2","29.1886","4.62905","44.36","0","SATNPRO1963","29.490000000000002","0.41308","5"],
    [18593,"HCEP03730560","2024-04-09 00:30:00","9.5962","3.20317","26.097","4.196","7.45","0.432","4.715","0.02","0.18","29.1908","4.62938","44.4","0","SATNPRO1963","29.572","0.4142","5"],
    [18594,"HCEP03730560","2024-04-09 00:45:00","9.5974","3.20199","26.29","4.216","7.45","0.381","4.27","0.02","0.2","29.1778","4.6275","44.61","0","SATNPRO1963","29.398","0.41176","5"],
    [18595,"HCEP03730560","2024-04-09 01:00:00","9.6001","3.19979","26.47","4.276","7.45","0.428","4.013","0.02","0.2","29.1533","4.62396","45.24","0","SATNPRO1963","29.536","0.41368","5"],
    [18596,"HCEP03730560","2024-04-09 01:15:00","9.6051","3.19566","26.624","4.401","7.46","0.398","3.373","0.02","0.14","29.1075","4.61732","46.55","0","SATNPRO1963","29.498","0.41318","5"],
    [18597,"HCEP03730560","2024-04-09 01:30:00","9.6145","3.18823","26.79","4.559","7.47","0.47","3.019","0.04","0.18","29.025","4.60534","48.2","0","SATNPRO1963","29.352","0.41112","5"],
    [18598,"HCEP03730560","2024-04-09 01:45:00","9.6307","3.17722","26.982","4.855","7.49","0.447","2.533","0.03","0.12","28.9011","4.58728","51.31","0","SATNPRO1963","29.264","0.4099","5"],
    [18599,"HCEP03730560","2024-04-09 02:00:00","9.6253","3.18043","27.138","4.862","7.5","0.486","2.465","0.02","0.09","28.9377","4.59264","51.4","0","SATNPRO1963","29.082","0.4073","5"],
    [18600,"HCEP03730560","2024-04-09 02:15:00","9.6275","3.17955","27.316","4.885","7.5","0.45","2.292","0.02","0.08","28.927","4.59109","51.63","0","SATNPRO1963","29.052","0.4069","5"],
    [18601,"HCEP03730560","2024-04-09 02:30:00","9.6324","3.17583","27.486","4.967","7.51","0.514","2.118","0.04","0.11","28.8855","4.58506","52.5","0","SATNPRO1963","29.18","0.40872","5"],
    [18602,"HCEP03730560","2024-04-09 02:45:00","9.6346","3.17421","27.655","5.034","7.52","0.464","2.086","0.04","0.13","28.8674","4.58242","53.2","0","SATNPRO1963","29.1","0.4076","5"],
    [18603,"HCEP03730560","2024-04-09 03:00:00","9.634","3.17408","27.805","5.056","7.52","0.517","2.015","0.03","0.09","28.8666","4.58233","53.44","0","SATNPRO1963","29.07","0.40718","5"],
    [18604,"HCEP03730560","2024-04-09 03:15:00","9.6309","3.17587","27.949","5.01","7.52","0.46","2.122","0.03","0.09","28.887","4.58532","52.95","0","SATNPRO1963","29.164","0.4085","5"],
    [18605,"HCEP03730560","2024-04-09 03:30:00","9.6282","3.1785","28.063","4.954","7.52","0.49","2.586","0.02","0.27","28.9155","4.58946","52.37","0","SATNPRO1963","29.164","0.40848","5"],
    [18606,"HCEP03730560","2024-04-09 03:45:00","9.6233","3.18232","28.15","4.854","7.51","0.453","2.489","0.04","0.1","28.9579","4.59563","51.32","0","SATNPRO1963","29.192","0.40886","5"],
    [18607,"HCEP03730560","2024-04-09 04:00:00","9.6236","3.18243","28.216","4.844","7.51","0.485","2.351","0.03","0.12","28.9587","4.59575","51.21","0","SATNPRO1963","29.4","0.41178","5"],
    [18608,"HCEP03730560","2024-04-09 04:15:00","9.6226","3.1827","28.251","4.847","7.51","0.442","2.408","0.03","0.17","28.9623","4.59628","51.24","0","SATNPRO1963","29.23","0.40942","5"],
    [18609,"HCEP03730560","2024-04-09 04:30:00","9.605","3.19956","28.268","4.435","7.49","0.492","5.899","0.03","0.63","29.1463","4.62298","46.93","0","SATNPRO1963","29.05","0.40688","5"],
    [18610,"HCEP03730560","2024-04-09 04:45:00","9.612","3.19248","28.265","4.353","7.47","0.431","4.678","0.02","0.19","29.0693","4.61182","46.04","0","SATNPRO1963","29.798000000000002","0.41736","5"],
    [18611,"HCEP03730560","2024-04-09 05:00:00","9.6149","3.19013","28.249","4.454","7.47","0.494","4.551","0.03","0.2","29.0433","4.60804","47.11","0","SATNPRO1963","29.114","0.40778","5"],
    [18612,"HCEP03730560","2024-04-09 05:15:00","9.6248","3.18256","28.2","4.676","7.48","0.486","4.601","0.02","0.35","28.9591","4.59579","49.44","0","SATNPRO1963","29.022","0.4065","5"],
    [18613,"HCEP03730560","2024-04-09 05:30:00","9.6267","3.18158","28.137","4.756","7.49","0.56","5.532","0.03","0.38","28.9477","4.59411","50.29","0","SATNPRO1963","29.158","0.40842","5"],
    [18614,"HCEP03730560","2024-04-09 05:45:00","9.6302","3.17915","28.041","4.952","7.5","0.505","4.697","0.03","0.4","28.9205","4.59014","52.35","0","SATNPRO1963","29.656","0.41536","5"],
    [18615,"HCEP03730560","2024-04-09 06:00:00","9.6305","3.17891","27.917","5.054","7.51","0.529","3.942","0.03","0.37","28.9179","4.58975","53.42","0","SATNPRO1963","29.748","0.41666","5"],
    [18616,"HCEP03730560","2024-04-09 06:15:00","9.6287","3.1801","27.765","5.055","7.52","0.502","4.129","0.07","1.12","28.9314","4.59172","53.44","0","SATNPRO1963","29.733999999999998","0.41648","5"],
    [18617,"HCEP03730560","2024-04-09 06:30:00","9.6279","3.18039","27.611","5.062","7.52","0.533","3.799","0.06","1.72","28.935","4.59224","53.52","0","SATNPRO1963","29.538","0.41374","5"],
    [18618,"HCEP03730560","2024-04-09 06:45:00","9.6274","3.18041","27.448","5.073","7.52","0.456","3.81","0.02","1.18","28.9357","4.59233","53.63","0","SATNPRO1963","29.786","0.41722","5"],
    [18619,"HCEP03730560","2024-04-09 07:00:00","9.6203","3.18475","27.284","4.983","7.52","0.487","4.067","0.03","0.31","28.9851","4.59954","52.68","0","SATNPRO1963","29.612000000000002","0.41476","5"],
    [18620,"HCEP03730560","2024-04-09 07:15:00","9.6137","3.18939","26.979","4.788","7.5","0.418","3.807","0.03","0.07","29.0373","4.60712","50.63","0","SATNPRO1963","29.51","0.41332","5"],
    [18621,"HCEP03730560","2024-04-09 07:30:00","9.610900000000001","3.19087","26.782","4.711","7.5","0.449","3.55","0.02","0.2","29.0545","4.60963","49.82","0","SATNPRO1963","29.63","0.41504","5"],
    [18622,"HCEP03730560","2024-04-09 07:45:00","9.6096","3.19186","26.563","4.682","7.49","0.4","3.701","0.01","0.14","29.0657","4.61124","49.52","0","SATNPRO1963","29.55","0.41392","5"],
    [18623,"HCEP03730560","2024-04-09 08:00:00","9.6074","3.19395","26.37","4.501","7.48","0.466","4.495","0.04","0.33","29.0886","4.61455","47.61","0","SATNPRO1963","29.226","0.40934","5"],
    [18624,"HCEP03730560","2024-04-09 08:15:00","9.6064","3.19618","26.122","4.366","7.47","0.437","4.887","0.03","0.16","29.1119","4.6179","46.19","0","SATNPRO1963","29.23","0.40944","5"],
    [18625,"HCEP03730560","2024-04-09 08:30:00","9.6073","3.19515","25.89","4.372","7.47","0.469","4.951","0.02","0.14","29.1009","4.61629","46.24","0","SATNPRO1963","29.256","0.4098","5"],
    [18626,"HCEP03730560","2024-04-09 08:45:00","9.6148","3.19122","25.646","4.549","7.47","0.397","3.313","0.02","0.15","29.0554","4.60962","48.11","0","SATNPRO1963","29.436","0.41228","5"],
    [18627,"HCEP03730560","2024-04-09 09:00:00","9.609","3.19205","25.368","4.622","7.48","0.446","4.17","0.02","0.07","29.0685","4.61158","48.88","0","SATNPRO1963","29.538","0.41374","5"],
    [18628,"HCEP03730560","2024-04-09 09:15:00","9.6129","3.19223","25.112","4.583","7.48","0.391","3.481","0.01","0.16","29.0673","4.61133","48.48","0","SATNPRO1963","29.45","0.4125","5"],
    [18629,"HCEP03730560","2024-04-09 09:30:00","9.6137","3.19248","24.894","4.564","7.48","0.436","3.664","0.03","0.18","29.0692","4.61157","48.28","0","SATNPRO1963","29.614","0.41478","5"],
    [18630,"HCEP03730560","2024-04-09 09:45:00","9.6167","3.19263","24.724","4.533","7.47","0.384","3.313","0.02","0.29","29.0684","4.61141","47.95","0","SATNPRO1963","29.456","0.41258","5"],
    [18631,"HCEP03730560","2024-04-09 10:00:00","9.6236","3.19415","24.516","4.355","7.46","0.424","3.273","0.03","0.37","29.0782","4.61268","46.07","0","SATNPRO1963","29.164","0.40852","5"],
    [18632,"HCEP03730560","2024-04-09 10:15:00","9.6229","3.19449","24.404","4.29","7.46","0.373","3.318","0.02","0.16","29.0823","4.61327","45.39","0","SATNPRO1963","29.32","0.41068","5"],
    [18633,"HCEP03730560","2024-04-09 10:30:00","9.6214","3.19451","24.293","4.295","7.45","0.414","3.265","0.02","0.14","29.0837","4.61349","45.44","0","SATNPRO1963","29.258","0.4098","5"],
    [18634,"HCEP03730560","2024-04-09 10:45:00","9.6094","3.19665","24.247","4.352","7.46","0.353","2.919","0.02","0.15","29.115","4.61818","46.04","0","SATNPRO1963","29.634","0.41506","5"],
    [18635,"HCEP03730560","2024-04-09 11:00:00","9.6042","3.19789","24.246","4.376","7.46","0.402","3.471","0.01","0.26","29.1317","4.62067","46.29","0","SATNPRO1963","29.602","0.4146","5"],
    [18636,"HCEP03730560","2024-04-09 11:15:00","9.6025","3.19932","24.247","4.33","7.46","0.339","3.113","0.01","0.15","29.1474","4.62295","45.82","0","SATNPRO1963","29.42","0.41208","5"],
    [18637,"HCEP03730560","2024-04-09 11:30:00","9.5987","3.19856","24.287","4.4","7.46","0.411","3.443","0.04","0.19","29.1429","4.62238","46.54","0","SATNPRO1963","29.85","0.41808","5"],
    [18638,"HCEP03730560","2024-04-09 11:45:00","9.5865","3.19777","24.307","4.638","7.47","0.348","2.878","0.02","0.2","29.1448","4.62286","49.06","0","SATNPRO1963","30.226","0.42338","5"],
    [18639,"HCEP03730560","2024-04-09 12:00:00","9.5746","3.19765","24.395","4.83","7.48","0.441","3.218","0.14","0.34","29.1533","4.62428","51.07","0","SATNPRO1963","30.59","0.42848","5"],
    [18640,"HCEP03730560","2024-04-09 12:15:00","9.5639","3.19736","24.512","4.985","7.5","0.349","3.134","0.02","0.22","29.159","4.62529","52.7","0","SATNPRO1963","30.748","0.43074","5"],
    [18641,"HCEP03730560","2024-04-09 12:30:00","9.561","3.19803","24.627","5.031","7.51","0.409","3.392","0.04","0.29","29.1681","4.62665","53.19","0","SATNPRO1963","30.982","0.434","5"],
    [18642,"HCEP03730560","2024-04-09 12:45:00","9.5586","3.19709","24.768","5.082","7.51","0.361","3.139","0.02","0.19","29.1605","4.62561","53.72","0","SATNPRO1963","30.976","0.43392","5"],
    [18643,"HCEP03730560","2024-04-09 13:00:00","9.5596","3.19649","24.98","5.11","7.52","0.408","3.273","0.03","0.13","29.1534","4.62459","54.01","0","SATNPRO1963","30.858","0.43224","5"],
    [18644,"HCEP03730560","2024-04-09 13:15:00","9.5663","3.19614","25.163","5.057","7.52","0.357","3.157","0.01","0.14","29.1444","4.6232","53.46","0","SATNPRO1963","30.718","0.43024","5"],
    [18645,"HCEP03730560","2024-04-09 13:30:00","9.5664","3.19568","25.361","5.056","7.52","0.402","3.099","0.02","0.13","29.1396","4.62252","53.44","0","SATNPRO1963","30.8","0.4314","5"],
    [18646,"HCEP03730560","2024-04-09 13:45:00","9.5698","3.19557","25.54","5.028","7.52","0.357","2.896","0.02","0.11","29.1357","4.62191","53.15","0","SATNPRO1963","30.566","0.4281","5"],
    [18647,"HCEP03730560","2024-04-09 14:00:00","9.5781","3.19501","25.696","4.954","7.51","0.416","2.9","0.03","0.21","29.1233","4.61999","52.38","0","SATNPRO1963","30.652","0.42934","5"],
    [18648,"HCEP03730560","2024-04-09 14:15:00","9.5809","3.19403","25.869","4.94","7.51","0.361","2.568","0.03","0.1","29.1111","4.6182","52.23","0","SATNPRO1963","30.466","0.42672","5"],
    [18649,"HCEP03730560","2024-04-09 14:30:00","9.5826","3.19415","26.089","4.922","7.51","0.399","2.281","0.02","0.08","29.1108","4.61815","52.04","0","SATNPRO1963","30.49","0.42706","5"],
    [18650,"HCEP03730560","2024-04-09 14:45:00","9.5724","3.18979","26.273","5.162","7.52","0.332","1.499","0.02","0.2","29.075","4.6132","54.56","0","SATNPRO1963","31.034","0.43464","5"],
    [18651,"HCEP03730560","2024-04-09 15:00:00","9.5766","3.19525","26.46","5.003","7.52","0.41","3.651","0.01","0.14","29.1266","4.62054","52.9","0","SATNPRO1963","30.488","0.427","5"],
    [18652,"HCEP03730560","2024-04-09 15:15:00","9.5709","3.19601","26.641","4.96","7.51","0.383","3.759","0.05","0.2","29.1387","4.62239","52.43","0","SATNPRO1963","30.544","0.42782","5"],
    [18653,"HCEP03730560","2024-04-09 15:30:00","9.5644","3.19698","26.957","5.004","7.52","0.406","3.499","0.02","0.24","29.1537","4.62466","52.9","0","SATNPRO1963","30.79","0.43124","5"],
    [18654,"HCEP03730560","2024-04-09 15:45:00","9.5633","3.19808","27.146","4.993","7.52","0.362","3.326","0.02","0.18","29.1656","4.62641","52.79","0","SATNPRO1963","30.662","0.42946","5"],
    [18655,"HCEP03730560","2024-04-09 16:00:00","9.5639","3.19856","27.316","4.968","7.51","0.403","3.181","0.04","0.16","29.1699","4.62703","52.53","0","SATNPRO1963","30.796","0.43134","5"],
    [18656,"HCEP03730560","2024-04-09 16:15:00","9.566","3.19922","27.505","4.917","7.51","0.339","3.201","0.02","0.19","29.1748","4.62769","51.98","0","SATNPRO1963","30.744","0.43062","5"],
    [18657,"HCEP03730560","2024-04-09 16:30:00","9.5697","3.19963","27.619","4.838","7.51","0.392","3.215","0.04","0.13","29.1759","4.62779","51.16","0","SATNPRO1963","30.562","0.42806","5"],
    [18658,"HCEP03730560","2024-04-09 16:45:00","9.5705","3.19922","27.738","4.824","7.5","0.348","3.464","0.02","0.16","29.1711","4.6271","51.01","0","SATNPRO1963","30.51","0.42732","5"],
    [18659,"HCEP03730560","2024-04-09 17:00:00","9.5713","3.19877","27.812","4.827","7.5","0.397","3.691","0.01","0.15","29.1659","4.62634","51.04","0","SATNPRO1963","30.572","0.42822","5"],
    [18660,"HCEP03730560","2024-04-09 17:15:00","9.5722","3.19845","27.818","4.832","7.5","0.352","3.416","0.02","0.11","29.1619","4.62576","51.09","0","SATNPRO1963","30.404","0.42588","5"],
    [18661,"HCEP03730560","2024-04-09 17:30:00","9.5745","3.19826","27.892","4.821","7.5","0.389","3.315","0.02","0.09","29.1581","4.62517","50.98","0","SATNPRO1963","30.39","0.42564","5"],
    [18662,"HCEP03730560","2024-04-09 17:45:00","9.5743","3.19805","27.877","4.815","7.5","0.353","3.494","0.02","0.12","29.1561","4.6249","50.91","0","SATNPRO1963","30.451999999999998","0.42656","5"],
    [18663,"HCEP03730560","2024-04-09 18:00:00","9.5727","3.19739","27.828","4.867","7.5","0.402","3.564","0.02","0.15","29.1509","4.62417","51.46","0","SATNPRO1963","30.650000000000002","0.4293","5"],
    [18664,"HCEP03730560","2024-04-09 18:15:00","9.574","3.19696","27.777","4.889","7.51","0.364","3.429","0.02","0.15","29.1454","4.62336","51.69","0","SATNPRO1963","30.516","0.42742","5"],
    [18665,"HCEP03730560","2024-04-09 18:30:00","9.5753","3.19674","27.766","4.876","7.51","0.427","3.609","0.04","0.22","29.1421","4.62286","51.55","0","SATNPRO1963","30.526","0.4276","5"],
    [18666,"HCEP03730560","2024-04-09 18:45:00","9.5754","3.19723","27.736","4.847","7.5","0.381","3.691","0.02","0.2","29.147","4.62356","51.25","0","SATNPRO1963","30.580000000000002","0.42832","5"],
    [18667,"HCEP03730560","2024-04-09 19:00:00","9.5817","3.19783","27.642","4.755","7.5","0.42","3.631","0.02","0.21","29.148","4.62358","50.28","0","SATNPRO1963","30.276","0.42406","5"],
    [18668,"HCEP03730560","2024-04-09 19:15:00","9.589","3.19828","27.573","4.635","7.49","0.377","3.302","0.06","0.29","29.1467","4.62327","49.02","0","SATNPRO1963","30.11","0.42174","5"],
    [18669,"HCEP03730560","2024-04-09 19:30:00","9.5993","3.19768","27.499","4.489","7.48","0.407","3.513","0.01","0.19","29.1323","4.62102","47.49","0","SATNPRO1963","29.728","0.4164","5"],
    [18670,"HCEP03730560","2024-04-09 19:45:00","9.6011","3.19897","27.428","4.339","7.47","0.383","4.114","0.02","0.29","29.1438","4.62264","45.91","0","SATNPRO1963","29.472","0.4128","5"],
    [18671,"HCEP03730560","2024-04-09 20:00:00","9.6027","3.20014","27.329","4.234","7.46","0.416","4.069","0.02","0.26","29.1544","4.62412","44.8","0","SATNPRO1963","29.268","0.40996","5"],
    [18672,"HCEP03730560","2024-04-09 20:15:00","9.6042","3.20122","27.212","4.117","7.45","0.375","4.259","0.02","0.26","29.1641","4.62548","43.57","0","SATNPRO1963","29.009999999999998","0.40636","5"],
    [18673,"HCEP03730560","2024-04-09 20:30:00","9.6058","3.20151","27.148","4.051","7.45","0.413","4.312","0.02","0.25","29.1657","4.62569","42.87","0","SATNPRO1963","28.99","0.40606","5"],
    [18674,"HCEP03730560","2024-04-09 20:45:00","9.608","3.20152","27.034","4.009","7.44","0.39","4.53","0.06","0.2","29.1641","4.62541","42.42","0","SATNPRO1963","28.952","0.40552","5"],
    [18675,"HCEP03730560","2024-04-09 21:00:00","9.6089","3.20139","26.905","3.988","7.44","0.426","4.809","0.02","0.28","29.1621","4.6251","42.2","0","SATNPRO1963","28.976","0.40586","5"],
    [18676,"HCEP03730560","2024-04-09 21:15:00","9.6102","3.20113","26.676","3.978","7.44","0.386","5.072","0.01","0.36","29.1585","4.62455","42.1","0","SATNPRO1963","28.912","0.40498","5"],
    [18677,"HCEP03730560","2024-04-09 21:30:00","9.6111","3.20085","26.56","3.979","7.43","0.431","4.964","0.02","0.33","29.155","4.62402","42.11","0","SATNPRO1963","28.822","0.40368","5"],
    [18678,"HCEP03730560","2024-04-09 21:45:00","9.6129","3.20006","26.33","3.987","7.43","0.377","4.718","0.01","0.17","29.1457","4.62264","42.19","0","SATNPRO1963","28.864","0.40428","5"],
    [18679,"HCEP03730560","2024-04-09 22:00:00","9.6126","3.20019","26.204","4.002","7.43","0.418","4.651","0.02","0.23","29.1473","4.62287","42.35","0","SATNPRO1963","28.95","0.4055","5"],
    [18680,"HCEP03730560","2024-04-09 22:15:00","9.6126","3.19993","26.08","4.022","7.43","0.384","4.263","0.03","0.28","29.1448","4.6225","42.56","0","SATNPRO1963","28.994","0.4061","5"],
    [18681,"HCEP03730560","2024-04-09 22:30:00","9.6115","3.20005","25.974","4.035","7.43","0.421","4.193","0.02","0.24","29.1469","4.62282","42.7","0","SATNPRO1963","29.073999999999998","0.40722","5"],
    [18682,"HCEP03730560","2024-04-09 22:45:00","9.6115","3.19917","25.84","4.111","7.44","0.372","3.526","0.02","0.15","29.1381","4.62155","43.5","0","SATNPRO1963","29.334","0.41086","5"],
    [18683,"HCEP03730560","2024-04-09 23:00:00","9.6112","3.19969","25.765","4.077","7.44","0.415","4.233","0.02","0.12","29.1435","4.62233","43.14","0","SATNPRO1963","29.182000000000002","0.40876","5"],
    [18684,"HCEP03730560","2024-04-09 23:15:00","9.6106","3.2001","25.79","4.046","7.44","0.37","4.02","0.02","0.14","29.1481","4.623","42.81","0","SATNPRO1963","29.02","0.4065","5"],
    [18685,"HCEP03730560","2024-04-09 23:30:00","9.6112","3.2","25.764","4.044","7.44","0.416","4.084","0.02","0.25","29.1468","4.62279","42.79","0","SATNPRO1963","29.102","0.40758","5"],
    [18686,"HCEP03730560","2024-04-09 23:45:00","9.612","3.20021","25.779","3.997","7.43","0.382","4.462","0.01","0.18","29.1481","4.62297","42.29","0","SATNPRO1963","28.976","0.40586","5"],
    [18687,"HCEP03730560","2024-04-10 00:00:00","9.6124","3.20015","25.832","3.98","7.43","0.432","4.553","0.02","0.15","29.1473","4.62284","42.12","0","SATNPRO1963","29.078","0.4073","5"],
    [18688,"HCEP03730560","2024-04-10 00:15:00","9.6119","3.20024","25.906","3.982","7.43","0.392","4.551","0.02","0.19","29.1484","4.62303","42.14","0","SATNPRO1963","29.04","0.40676","5"],
    [18689,"HCEP03730560","2024-04-10 00:30:00","9.610900000000001","3.20029","25.97","4","7.43","0.424","4.454","0.02","0.29","29.1498","4.62324","42.33","0","SATNPRO1963","29.032","0.40666","5"],
    [18690,"HCEP03730560","2024-04-10 00:45:00","9.6095","3.20015","26.077","4.029","7.43","0.383","4.414","0.02","0.19","29.1495","4.62323","42.64","0","SATNPRO1963","28.898","0.40476","5"],
    [18691,"HCEP03730560","2024-04-10 01:00:00","9.6075","3.19951","26.181","4.1","7.44","0.437","4.15","0.03","0.19","29.1446","4.62256","43.38","0","SATNPRO1963","29.408","0.41194","5"],
    [18692,"HCEP03730560","2024-04-10 01:15:00","9.6046","3.19862","26.324","4.195","7.44","0.383","4.458","0.02","0.26","29.138","4.62168","44.38","0","SATNPRO1963","29.696","0.41594","5"],
    [18693,"HCEP03730560","2024-04-10 01:30:00","9.5928","3.19653","26.47","4.44","7.46","0.452","4.691","0.03","0.35","29.1263","4.62022","46.96","0","SATNPRO1963","29.872","0.41842","5"],
    [18694,"HCEP03730560","2024-04-10 01:45:00","9.5751","3.19491","26.586","4.765","7.48","0.42","4.583","0.03","0.31","29.1244","4.62025","50.38","0","SATNPRO1963","30.368000000000002","0.42532","5"],
    [18695,"HCEP03730560","2024-04-10 02:00:00","9.5645","3.19617","26.729","4.913","7.49","0.463","4.223","0.04","0.4","29.1455","4.62348","51.93","0","SATNPRO1963","30.58","0.42832","5"],
    [18696,"HCEP03730560","2024-04-10 02:15:00","9.5559","3.19696","26.902","4.999","7.5","0.412","4.685","0.03","0.37","29.1605","4.62578","52.84","0","SATNPRO1963","30.71","0.43014","5"],
    [18697,"HCEP03730560","2024-04-10 02:30:00","9.5495","3.19783","27.031","5.061","7.51","0.429","4.132","0.02","0.28","29.1744","4.6279","53.49","0","SATNPRO1963","31.028","0.4346","5"],
    [18698,"HCEP03730560","2024-04-10 02:45:00","9.5499","3.19785","27.201","5.064","7.52","0.4","4.322","0.03","0.33","29.1741","4.62787","53.53","0","SATNPRO1963","30.79","0.43128","5"],
    [18699,"HCEP03730560","2024-04-10 03:00:00","9.5504","3.19755","27.393","5.072","7.52","0.443","4.251","0.03","0.31","29.1707","4.62737","53.61","0","SATNPRO1963","30.786","0.43118","5"],
    [18700,"HCEP03730560","2024-04-10 03:15:00","9.5494","3.1979","27.53","5.075","7.52","0.387","4.447","0.03","0.28","29.175","4.62802","53.64","0","SATNPRO1963","30.802","0.43146","5"],
    [18701,"HCEP03730560","2024-04-10 03:30:00","9.5471","3.19856","27.685","5.086","7.52","0.423","4.085","0.02","0.19","29.1835","4.62928","53.76","0","SATNPRO1963","30.87","0.43236","5"],
    [18702,"HCEP03730560","2024-04-10 03:45:00","9.5441","3.19935","27.828","5.113","7.52","0.362","3.733","0.02","0.25","29.1937","4.63081","54.04","0","SATNPRO1963","30.918","0.43306","5"],
    [18703,"HCEP03730560","2024-04-10 04:00:00","9.5426","3.19991","27.944","5.132","7.52","0.409","3.836","0.03","0.3","29.2006","4.63184","54.25","0","SATNPRO1963","31.042","0.4348","5"],
    [18704,"HCEP03730560","2024-04-10 04:15:00","9.5419","3.19992","28.023","5.143","7.53","0.34","3.337","0.02","0.24","29.2012","4.63193","54.35","0","SATNPRO1963","31.318","0.43866","5"],
    [18705,"HCEP03730560","2024-04-10 04:30:00","9.5417","3.20002","28.108","5.144","7.53","0.403","3.522","0.04","0.31","29.2023","4.6321","54.37","0","SATNPRO1963","30.738","0.43054","5"],
    [18706,"HCEP03730560","2024-04-10 04:45:00","9.5413","3.20013","28.157","5.149","7.53","0.358","3.493","0.03","0.15","29.2038","4.63232","54.42","0","SATNPRO1963","31.05","0.43488","5"],
    [18707,"HCEP03730560","2024-04-10 05:00:00","9.541","3.20012","28.189","5.15","7.53","0.419","3.629","0.08","0.31","29.2039","4.63235","54.44","0","SATNPRO1963","31.232","0.43744","5"],
    [18708,"HCEP03730560","2024-04-10 05:15:00","9.5414","3.19995","28.176","5.155","7.53","0.323","3.301","0.02","0.14","29.2018","4.63204","54.49","0","SATNPRO1963","30.946","0.43342","5"],
    [18709,"HCEP03730560","2024-04-10 05:30:00","9.5421","3.19965","28.147","5.156","7.53","0.392","3.042","0.04","0.26","29.1983","4.63152","54.5","0","SATNPRO1963","31.096","0.43554","5"],
    [18710,"HCEP03730560","2024-04-10 05:45:00","9.5423","3.19933","28.112","5.143","7.53","0.351","3.111","0.02","0.15","29.1949","4.63103","54.36","0","SATNPRO1963","31.056","0.43502","5"],
    [18711,"HCEP03730560","2024-04-10 06:00:00","9.5443","3.1991","28.078","5.143","7.53","0.412","3.355","0.03","0.18","29.191","4.63044","54.35","0","SATNPRO1963","31.31","0.43854","5"],
    [18712,"HCEP03730560","2024-04-10 06:15:00","9.5458","3.19869","28.026","5.108","7.53","0.366","3.533","0.02","0.13","29.1856","4.62963","53.99","0","SATNPRO1963","30.77","0.43096","5"],
    [18713,"HCEP03730560","2024-04-10 06:30:00","9.547","3.19818","27.891","5.116","7.53","0.408","3.364","0.02","0.18","29.1796","4.62875","54.08","0","SATNPRO1963","30.64","0.42916","5"],
    [18714,"HCEP03730560","2024-04-10 06:45:00","9.5482","3.19722","27.768","5.125","7.53","0.362","3.017","0.03","0.14","29.169","4.62719","54.17","0","SATNPRO1963","30.84","0.43196","5"],
    [18715,"HCEP03730560","2024-04-10 07:00:00","9.5491","3.19664","27.605","5.106","7.53","0.413","3.21","0.04","0.24","29.1624","4.62623","53.97","0","SATNPRO1963","30.888","0.43266","5"],
    [18716,"HCEP03730560","2024-04-10 07:15:00","9.5513","3.19448","27.431","5.159","7.53","0.362","2.369","0.03","0.11","29.1389","4.6228","54.51","0","SATNPRO1963","30.982","0.43394","5"],
    [18717,"HCEP03730560","2024-04-10 07:30:00","9.5565","3.19389","27.23","5.122","7.53","0.429","3.048","0.02","0.17","29.1289","4.62126","54.13","0","SATNPRO1963","30.740000000000002","0.43054","5"],
    [18718,"HCEP03730560","2024-04-10 07:45:00","9.5612","3.1933","27.006","5.051","7.52","0.385","3.139","0.03","0.28","29.1191","4.61976","53.38","0","SATNPRO1963","30.668","0.42958","5"],
    [18719,"HCEP03730560","2024-04-10 08:00:00","9.5608","3.19315","26.78","5.045","7.52","0.427","3.016","0.02","0.16","29.118","4.6196","53.32","0","SATNPRO1963","30.436","0.4263","5"],
    [18720,"HCEP03730560","2024-04-10 08:15:00","9.5592","3.1932","26.584","5.067","7.52","0.386","2.994","0.05","0.33","29.12","4.6199","53.55","0","SATNPRO1963","30.63","0.42902","5"],
    [18721,"HCEP03730560","2024-04-10 08:30:00","9.5586","3.19311","26.365","5.081","7.52","0.423","2.827","0.04","0.18","29.1197","4.61986","53.7","0","SATNPRO1963","30.64","0.42914","5"],
    [18722,"HCEP03730560","2024-04-10 08:45:00","9.5641","3.19321","26.139","5.02","7.52","0.378","3.171","0.02","0.13","29.1162","4.61925","53.05","0","SATNPRO1963","30.394000000000002","0.42572","5"],
    [18723,"HCEP03730560","2024-04-10 09:00:00","9.5524","3.19792","25.909","4.998","7.51","0.426","3.959","0.03","0.42","29.1734","4.62764","52.83","0","SATNPRO1963","30.528","0.4276","5"],
    [18724,"HCEP03730560","2024-04-10 09:15:00","9.556","3.19655","25.694","4.969","7.51","0.382","3.934","0.02","0.37","29.1567","4.62517","52.52","0","SATNPRO1963","30.387999999999998","0.4256","5"],
    [18725,"HCEP03730560","2024-04-10 09:30:00","9.562","3.19618","25.475","4.907","7.51","0.426","4.336","0.02","0.14","29.1482","4.62384","51.87","0","SATNPRO1963","30.468","0.42678","5"],
    [18726,"HCEP03730560","2024-04-10 09:45:00","9.5772","3.19581","25.209","4.743","7.5","0.394","4.522","0.02","0.23","29.1322","4.62126","50.15","0","SATNPRO1963","30.016","0.42042","5"],
    [18727,"HCEP03730560","2024-04-10 10:00:00","9.5897","3.19646","24.929","4.522","7.48","0.434","4.718","0.02","0.32","29.1288","4.62053","47.82","0","SATNPRO1963","29.518","0.41342","5"],
    [18728,"HCEP03730560","2024-04-10 10:15:00","9.5953","3.19688","24.697","4.403","7.47","0.379","4.424","0.01","0.25","29.1286","4.6204","46.57","0","SATNPRO1963","29.348","0.41106","5"],
    [18729,"HCEP03730560","2024-04-10 10:30:00","9.5999","3.19725","24.424","4.313","7.46","0.421","4.346","0.01","0.25","29.1287","4.62032","45.63","0","SATNPRO1963","29.38","0.41154","5"],
    [18730,"HCEP03730560","2024-04-10 10:45:00","9.6063","3.19757","24.148","4.2","7.45","0.409","4.312","0.09","0.27","29.1268","4.61993","44.43","0","SATNPRO1963","29.169999999999998","0.40858","5"],
    [18731,"HCEP03730560","2024-04-10 11:00:00","9.6136","3.19764","23.982","4.082","7.44","0.435","4.987","0.02","0.42","29.1217","4.61906","43.19","0","SATNPRO1963","28.732","0.40246","5"],
    [18732,"HCEP03730560","2024-04-10 11:15:00","9.6182","3.1972","23.904","4.012","7.44","0.39","4.592","0.02","0.33","29.1135","4.6178","42.45","0","SATNPRO1963","28.782","0.40312","5"],
    [18733,"HCEP03730560","2024-04-10 11:30:00","9.6203","3.19675","23.852","3.991","7.43","0.449","4.698","0.03","0.28","29.1074","4.61687","42.23","0","SATNPRO1963","28.728","0.40234","5"],
    [18734,"HCEP03730560","2024-04-10 11:45:00","9.6211","3.19669","23.863","3.983","7.43","0.403","4.822","0.03","0.39","29.106","4.61667","42.15","0","SATNPRO1963","28.73","0.4024","5"],
    [18735,"HCEP03730560","2024-04-10 12:00:00","9.6216","3.19654","23.891","3.982","7.43","0.434","4.082","0.02","0.17","29.1042","4.6164","42.14","0","SATNPRO1963","29.026","0.40652","5"],
    [18736,"HCEP03730560","2024-04-10 12:15:00","9.6219","3.19659","23.962","3.974","7.43","0.404","4.514","0.02","0.38","29.1044","4.61644","42.05","0","SATNPRO1963","28.94","0.40534","5"],
    [18737,"HCEP03730560","2024-04-10 12:30:00","9.6217","3.19657","24.058","3.968","7.43","0.446","4.806","0.03","0.3","29.1044","4.61643","41.99","0","SATNPRO1963","28.768","0.40292","5"],
    [18738,"HCEP03730560","2024-04-10 12:45:00","9.6219","3.19657","24.126","3.973","7.43","0.399","4.786","0.03","0.66","29.1042","4.61641","42.04","0","SATNPRO1963","28.84","0.40396","5"],
    [18739,"HCEP03730560","2024-04-10 13:00:00","9.6217","3.19655","24.3","3.974","7.43","0.443","4.493","0.03","0.23","29.104","4.61639","42.05","0","SATNPRO1963","28.686","0.40178","5"],
    [18740,"HCEP03730560","2024-04-10 13:15:00","9.6207","3.19657","24.45","3.982","7.43","0.414","4.54","0.04","0.22","29.105","4.61657","42.13","0","SATNPRO1963","28.802","0.40342","5"],
    [18741,"HCEP03730560","2024-04-10 13:30:00","9.6185","3.1965","24.652","4.019","7.43","0.427","4.23","0.02","0.29","29.106","4.61675","42.53","0","SATNPRO1963","28.782","0.40316","5"],
    [18742,"HCEP03730560","2024-04-10 13:45:00","9.6189","3.19652","24.864","4.022","7.43","0.377","4.117","0.02","0.19","29.1058","4.61673","42.56","0","SATNPRO1963","28.844","0.404","5"],
    [18743,"HCEP03730560","2024-04-10 14:00:00","9.6196","3.19651","25.059","4.013","7.43","0.434","4.105","0.02","0.18","29.105","4.61662","42.46","0","SATNPRO1963","28.774","0.40302","5"],
    [18744,"HCEP03730560","2024-04-10 14:15:00","9.6215","3.19649","25.274","3.995","7.43","0.377","4.015","0.02","0.14","29.1031","4.61633","42.27","0","SATNPRO1963","28.712","0.40216","5"],
    [18745,"HCEP03730560","2024-04-10 14:30:00","9.622","3.19646","25.4","3.96","7.43","0.46","5.23","0.03","0.25","29.1024","4.61622","41.9","0","SATNPRO1963","28.394","0.3977","5"],
    [18746,"HCEP03730560","2024-04-10 14:45:00","9.6233","3.19619","25.589","3.963","7.43","0.383","4.44","0.02","0.14","29.0986","4.61566","41.94","0","SATNPRO1963","28.4","0.39784","5"],
    [18747,"HCEP03730560","2024-04-10 15:00:00","9.6223","3.19539","25.757","4.01","7.43","0.427","4.356","0.02","0.23","29.0912","4.61463","42.43","0","SATNPRO1963","28.616","0.4008","5"],
    [18748,"HCEP03730560","2024-04-10 15:15:00","9.6266","3.19293","25.965","4.07","7.44","0.39","3.787","0.02","0.13","29.063","4.61052","43.06","0","SATNPRO1963","28.508","0.39928","5"],
    [18749,"HCEP03730560","2024-04-10 15:30:00","9.6381","3.19038","26.191","4.075","7.44","0.441","3.729","0.02","0.16","29.0279","4.6053","43.11","0","SATNPRO1963","28.29","0.39624","5"],
    [18750,"HCEP03730560","2024-04-10 15:45:00","9.639","3.19085","26.421","4.051","7.44","0.409","3.984","0.03","0.15","29.0318","4.60586","42.86","0","SATNPRO1963","28.338","0.39688","5"],
    [18751,"HCEP03730560","2024-04-10 16:00:00","9.6398","3.19085","26.643","4.037","7.44","0.439","4.086","0.02","0.14","29.0311","4.60576","42.71","0","SATNPRO1963","28.402","0.3978","5"],
    [18752,"HCEP03730560","2024-04-10 16:15:00","9.6393","3.19104","26.868","4.023","7.44","0.408","4.203","0.02","0.14","29.0333","4.60609","42.57","0","SATNPRO1963","28.47","0.3988","5"],
    [18753,"HCEP03730560","2024-04-10 16:30:00","9.6346","3.19211","27.064","4.023","7.44","0.452","4.211","0.03","0.18","29.0478","4.60827","42.56","0","SATNPRO1963","28.354","0.39714","5"],
    [18754,"HCEP03730560","2024-04-10 16:45:00","9.6276","3.19316","27.235","4.034","7.44","0.419","5.212","0.02","0.22","29.0639","4.61072","42.69","0","SATNPRO1963","28.494","0.3991","5"],
    [18755,"HCEP03730560","2024-04-10 17:00:00","9.6208","3.19427","27.42","4.038","7.44","0.46","5.292","0.03","0.28","29.0805","4.61322","42.72","0","SATNPRO1963","28.762","0.4029","5"],
    [18756,"HCEP03730560","2024-04-10 17:15:00","9.617","3.19512","27.55","4.03","7.44","0.433","5.593","0.03","0.39","29.0921","4.61495","42.63","0","SATNPRO1963","29.106","0.40768","5"],
    [18757,"HCEP03730560","2024-04-10 17:30:00","9.6104","3.19549","27.735","4.105","7.44","0.475","6.273","0.02","0.24","29.1011","4.61637","43.43","0","SATNPRO1963","29.05","0.40692","5"],
    [18758,"HCEP03730560","2024-04-10 17:45:00","9.6055","3.19536","27.765","4.158","7.45","0.446","6.148","0.03","0.44","29.1038","4.61684","43.98","0","SATNPRO1963","29.248","0.40964","5"],
    [18759,"HCEP03730560","2024-04-10 18:00:00","9.6058","3.19541","27.896","4.168","7.45","0.475","5.739","0.02","0.33","29.104","4.61688","44.09","0","SATNPRO1963","29.208","0.40908","5"],
    [18760,"HCEP03730560","2024-04-10 18:15:00","9.6037","3.19443","27.898","4.235","7.45","0.41","4.957","0.02","0.17","29.0958","4.61574","44.8","0","SATNPRO1963","29.189999999999998","0.40884","5"],
    [18761,"HCEP03730560","2024-04-10 18:30:00","9.6016","3.19393","27.801","4.253","7.45","0.472","5.081","0.03","0.4","29.0924","4.61529","44.99","0","SATNPRO1963","29.278000000000002","0.41006","5"],
    [18762,"HCEP03730560","2024-04-10 18:45:00","9.5838","3.18419","27.738","4.679","7.47","0.438","4.574","0.03","0.25","29.0087","4.60358","49.44","0","SATNPRO1963","29.252","0.40972","5"],
    [18763,"HCEP03730560","2024-04-10 19:00:00","9.5947","3.19164","27.679","4.48","7.47","0.483","5.124","0.03","0.26","29.075","4.6129","47.37","0","SATNPRO1963","29.254","0.40974","5"],
    [18764,"HCEP03730560","2024-04-10 19:15:00","9.5926","3.19141","27.665","4.437","7.47","0.436","5.115","0.04","0.29","29.0744","4.61285","46.91","0","SATNPRO1963","29.354","0.41112","5"],
    [18765,"HCEP03730560","2024-04-10 19:30:00","9.5912","3.19164","27.641","4.478","7.47","0.471","4.918","0.04","0.25","29.0779","4.61337","47.34","0","SATNPRO1963","29.332","0.41086","5"],
    [18766,"HCEP03730560","2024-04-10 19:45:00","9.5881","3.19124","27.613","4.539","7.47","0.449","5.228","0.03","0.48","29.0764","4.61321","47.99","0","SATNPRO1963","29.452","0.41252","5"],
    [18767,"HCEP03730560","2024-04-10 20:00:00","9.5869","3.19164","27.578","4.534","7.48","0.466","4.773","0.04","0.28","29.0814","4.61394","47.94","0","SATNPRO1963","29.752","0.41674","5"],
    [18768,"HCEP03730560","2024-04-10 20:15:00","9.5803","3.1897","27.499","4.701","7.48","0.485","4.455","0.14","0.47","29.0672","4.61202","49.68","0","SATNPRO1963","29.644","0.41518","5"],
    [18769,"HCEP03730560","2024-04-10 20:30:00","9.573","3.18613","27.422","4.86","7.49","0.45","3.784","0.04","0.24","29.0371","4.60783","51.35","0","SATNPRO1963","29.778","0.41708","5"],
    [18770,"HCEP03730560","2024-04-10 20:45:00","9.5699","3.18411","27.337","5.003","7.51","0.415","3.195","0.05","0.17","29.0193","4.60532","52.85","0","SATNPRO1963","30.142","0.42216","5"],
    [18771,"HCEP03730560","2024-04-10 21:00:00","9.5691","3.18357","27.234","5.041","7.51","0.445","3.149","0.06","0.11","29.0145","4.60464","53.25","0","SATNPRO1963","30.074","0.42124","5"],
    [18772,"HCEP03730560","2024-04-10 21:15:00","9.5709","3.18611","27.138","4.974","7.51","0.421","3.556","0.12","0.22","29.0388","4.60809","52.55","0","SATNPRO1963","29.786","0.41722","5"],
    [18773,"HCEP03730560","2024-04-10 21:30:00","9.5713","3.18586","27.062","4.965","7.51","0.435","3.769","0.06","0.19","29.036","4.60767","52.46","0","SATNPRO1963","30.248","0.42368","5"],
    [18774,"HCEP03730560","2024-04-10 21:45:00","9.5812","3.18474","26.982","4.912","7.51","0.41","3.479","0.05","0.25","29.0166","4.60472","51.9","0","SATNPRO1963","30.073999999999998","0.42124","5"],
    [18775,"HCEP03730560","2024-04-10 22:00:00","9.5743","3.18487","26.858","4.951","7.51","0.444","3.548","0.05","0.11","29.0237","4.60584","52.3","0","SATNPRO1963","29.818","0.41766","5"],
    [18776,"HCEP03730560","2024-04-10 22:15:00","9.5693","3.18514","26.77","4.98","7.51","0.394","3.996","0.03","0.23","29.0304","4.60689","52.61","0","SATNPRO1963","30.024","0.4205","5"],
    [18777,"HCEP03730560","2024-04-10 22:30:00","9.5683","3.18551","26.652","5.007","7.51","0.445","4.133","0.03","0.22","29.0349","4.60755","52.9","0","SATNPRO1963","29.856","0.4182","5"],
    [18778,"HCEP03730560","2024-04-10 22:45:00","9.5666","3.18478","26.527","5.016","7.51","0.389","3.584","0.03","0.15","29.0291","4.60674","52.99","0","SATNPRO1963","30.124","0.42192","5"],
    [18779,"HCEP03730560","2024-04-10 23:00:00","9.5657","3.18545","26.416","5.017","7.51","0.423","3.699","0.02","0.23","29.0366","4.60782","53","0","SATNPRO1963","30.084","0.4214","5"],
    [18780,"HCEP03730560","2024-04-10 23:15:00","9.5662","3.18575","26.307","4.999","7.51","0.444","3.613","0.09","0.2","29.0393","4.6082","52.82","0","SATNPRO1963","29.932000000000002","0.41926","5"],
    [18781,"HCEP03730560","2024-04-10 23:30:00","9.5652","3.18481","26.205","5.022","7.51","0.437","3.556","0.04","0.16","29.0306","4.60695","53.04","0","SATNPRO1963","30.041999999999998","0.42082","5"],
    [18782,"HCEP03730560","2024-04-10 23:45:00","9.5638","3.1842","26.135","5.052","7.52","0.39","3.874","0.03","0.3","29.0257","4.60627","53.37","0","SATNPRO1963","29.872","0.41842","5"],
    [18783,"HCEP03730560","2024-04-11 00:00:00","9.5621","3.18397","26.082","5.066","7.52","0.432","4.031","0.02","0.26","29.0247","4.60616","53.51","0","SATNPRO1963","30.024","0.42054","5"],
    [18784,"HCEP03730560","2024-04-11 00:15:00","9.562","3.18382","26.065","5.065","7.52","0.396","3.976","0.05","0.18","29.0233","4.60596","53.5","0","SATNPRO1963","29.836","0.41792","5"],
    [18785,"HCEP03730560","2024-04-11 00:30:00","9.5607","3.18342","26.084","5.081","7.52","0.459","4.092","0.06","0.27","29.0203","4.60555","53.67","0","SATNPRO1963","29.906","0.41888","5"],
    [18786,"HCEP03730560","2024-04-11 00:45:00","9.5586","3.18328","26.139","5.113","7.52","0.428","4.194","0.07","0.19","29.0206","4.60564","54","0","SATNPRO1963","29.92","0.41908","5"],
    [18787,"HCEP03730560","2024-04-11 01:00:00","9.5577","3.18353","26.216","5.13","7.52","0.455","4.295","0.06","0.29","29.0238","4.60611","54.18","0","SATNPRO1963","30.108","0.4217","5"],
    [18788,"HCEP03730560","2024-04-11 01:15:00","9.5568","3.18445","26.308","5.149","7.53","0.373","4.146","0.02","0.23","29.0337","4.60756","54.38","0","SATNPRO1963","30.208","0.42312","5"],
    [18789,"HCEP03730560","2024-04-11 01:30:00","9.5564","3.18631","26.391","5.117","7.52","0.429","4.426","0.03","0.28","29.0528","4.6103","54.05","0","SATNPRO1963","30.094","0.42154","5"],
    [18790,"HCEP03730560","2024-04-11 01:45:00","9.5549","3.18828","26.47","5.099","7.52","0.376","3.6","0.02","0.15","29.0738","4.61335","53.87","0","SATNPRO1963","30.308","0.42454","5"],
    [18791,"HCEP03730560","2024-04-11 02:00:00","9.5556","3.18975","26.575","5.057","7.52","0.41","3.906","0.03","0.19","29.088","4.61538","53.43","0","SATNPRO1963","30.316","0.42462","5"],
    [18792,"HCEP03730560","2024-04-11 02:15:00","9.5558","3.19095","26.691","5.011","7.52","0.382","4.241","0.03","0.25","29.1","4.6171","52.95","0","SATNPRO1963","30.394","0.42576","5"],
    [18793,"HCEP03730560","2024-04-11 02:30:00","9.5542","3.19209","26.815","4.994","7.52","0.428","4.355","0.07","0.33","29.1126","4.61895","52.77","0","SATNPRO1963","30.204","0.42304","5"],
    [18794,"HCEP03730560","2024-04-11 02:45:00","9.5528","3.19305","26.924","5","7.52","0.358","3.923","0.02","0.25","29.1235","4.62054","52.84","0","SATNPRO1963","30.484","0.42698","5"],
    [18795,"HCEP03730560","2024-04-11 03:00:00","9.5514","3.19327","27.063","5.016","7.52","0.428","3.908","0.08","0.2","29.1268","4.62104","53.01","0","SATNPRO1963","30.448","0.4265","5"],
    [18796,"HCEP03730560","2024-04-11 03:15:00","9.5491","3.19351","27.206","5.046","7.52","0.379","4.092","0.05","0.23","29.1311","4.62171","53.32","0","SATNPRO1963","30.62","0.42888","5"],
    [18797,"HCEP03730560","2024-04-11 03:30:00","9.5437","3.19346","27.324","5.124","7.52","0.463","4.936","0.1","2.24","29.1349","4.62235","54.14","0","SATNPRO1963","30.77","0.43098","5"],
    [18798,"HCEP03730560","2024-04-11 03:45:00","9.5371","3.19276","27.44","5.217","7.53","0.408","3.636","0.19","0.49","29.1331","4.62223","55.11","0","SATNPRO1963","30.678","0.4297","5"],
    [18799,"HCEP03730560","2024-04-11 04:00:00","9.535","3.19185","27.583","5.268","7.53","0.401","3.54","0.03","0.26","29.1255","4.62117","55.64","0","SATNPRO1963","30.964000000000002","0.4337","5"],
    [18800,"HCEP03730560","2024-04-11 04:15:00","9.5348","3.19139","27.693","5.285","7.54","0.356","3.949","0.03","0.25","29.121","4.62054","55.82","0","SATNPRO1963","31","0.43416","5"],
    [18801,"HCEP03730560","2024-04-11 04:30:00","9.5332","3.1905","27.793","5.312","7.54","0.414","3.788","0.04","0.33","29.1133","4.61947","56.11","0","SATNPRO1963","30.942","0.43336","5"],
    [18802,"HCEP03730560","2024-04-11 04:45:00","9.5275","3.18947","27.895","5.373","7.54","0.355","3.64","0.02","0.26","29.1074","4.61873","56.73","0","SATNPRO1963","31.034","0.4347","5"],
    [18803,"HCEP03730560","2024-04-11 05:00:00","9.5279","3.18902","27.96","5.381","7.55","0.459","4.355","0.08","0.94","29.1026","4.61803","56.82","0","SATNPRO1963","30.91","0.43294","5"],
    [18804,"HCEP03730560","2024-04-11 05:15:00","9.5276","3.18868","28.025","5.392","7.55","0.371","3.717","0.05","0.37","29.0994","4.61758","56.93","0","SATNPRO1963","30.798000000000002","0.4314","5"],
    [18805,"HCEP03730560","2024-04-11 05:30:00","9.5243","3.18762","28.066","5.422","7.55","0.408","3.843","0.04","0.18","29.0912","4.61648","57.24","0","SATNPRO1963","31.08","0.43534","5"],
    [18806,"HCEP03730560","2024-04-11 05:45:00","9.521","3.18686","28.092","5.477","7.55","0.391","4.204","0.05","0.41","29.0863","4.61583","57.82","0","SATNPRO1963","31.128","0.43602","5"],
    [18807,"HCEP03730560","2024-04-11 06:00:00","9.514","3.18599","28.087","5.542","7.56","0.45","4.215","0.07","0.32","29.0832","4.6155","58.5","0","SATNPRO1963","31.064","0.43512","5"],
    [18808,"HCEP03730560","2024-04-11 06:15:00","9.5098","3.1858","28.074","5.596","7.56","0.375","3.908","0.03","0.27","29.0848","4.6158","59.06","0","SATNPRO1963","31.104","0.43566","5"],
    [18809,"HCEP03730560","2024-04-11 06:30:00","9.5074","3.18573","28.028","5.617","7.57","0.438","3.677","0.12","0.21","29.086","4.61602","59.28","0","SATNPRO1963","31.124","0.43596","5"],
    [18810,"HCEP03730560","2024-04-11 06:45:00","9.5096","3.18616","27.957","5.595","7.57","0.398","3.887","0.04","0.24","29.0886","4.61634","59.05","0","SATNPRO1963","31.39","0.43968","5"],
    [18811,"HCEP03730560","2024-04-11 07:00:00","9.5092","3.1863","27.872","5.586","7.57","0.438","3.88","0.04","0.22","29.0903","4.61659","58.95","0","SATNPRO1963","31.098","0.4356","5"],
    [18812,"HCEP03730560","2024-04-11 07:15:00","9.5104","3.18656","27.752","5.584","7.57","0.389","4.736","0.03","0.33","29.092","4.61681","58.94","0","SATNPRO1963","30.832","0.4319","5"],
    [18813,"HCEP03730560","2024-04-11 07:30:00","9.5148","3.18738","27.602","5.512","7.56","0.433","4.544","0.04","0.22","29.096800000000002","4.61741","58.19","0","SATNPRO1963","30.89","0.43264","5"],
    [18814,"HCEP03730560","2024-04-11 07:45:00","9.5242","3.18846","27.406","5.402","7.56","0.394","5.376","0.02","0.33","29.1002","4.61772","57.03","0","SATNPRO1963","30.752","0.43074","5"],
    [18815,"HCEP03730560","2024-04-11 08:00:00","9.5276","3.18881","27.252","5.324","7.55","0.455","5.427","0.04","0.44","29.101","4.61776","56.22","0","SATNPRO1963","30.706","0.4301","5"],
    [18816,"HCEP03730560","2024-04-11 08:15:00","9.525","3.18899","27.071","5.351","7.55","0.376","4.165","0.03","0.24","29.1049","4.61837","56.5","0","SATNPRO1963","30.93","0.43322","5"],
    [18817,"HCEP03730560","2024-04-11 08:30:00","9.5254","3.18933","26.875","5.342","7.55","0.426","4.411","0.04","0.19","29.1083","4.61883","56.41","0","SATNPRO1963","30.588","0.42844","5"],
    [18818,"HCEP03730560","2024-04-11 08:45:00","9.5238","3.18961","26.656","5.358","7.55","0.382","4.116","0.07","0.39","29.1124","4.61944","56.58","0","SATNPRO1963","30.758","0.43084","5"],
    [18819,"HCEP03730560","2024-04-11 09:00:00","9.5257","3.18993","26.439","5.343","7.54","0.41","4.003","0.01","0.22","29.1142","4.61966","56.42","0","SATNPRO1963","30.856","0.4322","5"],
    [18820,"HCEP03730560","2024-04-11 09:15:00","9.5291","3.1904","26.203","5.312","7.54","0.367","4.072","0.02","0.37","29.1163","4.61987","56.1","0","SATNPRO1963","30.808","0.43148","5"],
    [18821,"HCEP03730560","2024-04-11 09:30:00","9.5325","3.19109","25.983","5.259","7.54","0.431","4.607","0.04","0.46","29.1205","4.62041","55.54","0","SATNPRO1963","30.812","0.4316","5"],
    [18822,"HCEP03730560","2024-04-11 09:45:00","9.5337","3.19163","25.749","5.237","7.53","0.358","4.183","0.01","0.26","29.1251","4.62104","55.32","0","SATNPRO1963","30.790000000000003","0.43128","5"],
    [18823,"HCEP03730560","2024-04-11 10:00:00","9.5339","3.19214","25.438","5.215","7.53","0.404","4.131","0.02","0.25","29.1302","4.62175","55.09","0","SATNPRO1963","30.618","0.42886","5"],
    [18824,"HCEP03730560","2024-04-11 10:15:00","9.5321","3.19204","25","5.241","7.53","0.367","4.063","0.02","0.25","29.1308","4.62184","55.35","0","SATNPRO1963","30.806","0.43148","5"],
    [18825,"HCEP03730560","2024-04-11 10:30:00","9.5354","3.19243","24.769","5.213","7.53","0.391","3.913","0.02","0.19","29.1323","4.62198","55.06","0","SATNPRO1963","30.744","0.43064","5"],
    [18826,"HCEP03730560","2024-04-11 10:45:00","9.5357","3.19204","24.517","5.2","7.53","0.35","3.702","0.02","0.23","29.1281","4.62135","54.93","0","SATNPRO1963","30.934","0.43328","5"],
    [18827,"HCEP03730560","2024-04-11 11:00:00","9.5394","3.19222","24.255","5.175","7.53","0.392","3.966","0.02","0.2","29.127","4.62112","54.67","0","SATNPRO1963","30.721999999999998","0.43032","5"],
    [18828,"HCEP03730560","2024-04-11 11:15:00","9.5461","3.19327","24.101","5.073","7.52","0.354","4.433","0.02","0.29","29.1322","4.62175","53.6","0","SATNPRO1963","30.628","0.42898","5"],
    [18829,"HCEP03730560","2024-04-11 11:30:00","9.5496","3.19384","23.98","5.004","7.51","0.406","4.595","0.02","0.25","29.1352","4.6221","52.88","0","SATNPRO1963","30.514","0.4274","5"],
    [18830,"HCEP03730560","2024-04-11 11:45:00","9.5494","3.19426","23.885","4.991","7.51","0.352","4.042","0.02","0.24","29.1397","4.62274","52.74","0","SATNPRO1963","30.596","0.42856","5"],
    [18831,"HCEP03730560","2024-04-11 12:00:00","9.5516","3.19447","23.85","4.969","7.51","0.401","4.428","0.02","0.72","29.14","4.62275","52.51","0","SATNPRO1963","30.506","0.4273","5"],
    [18832,"HCEP03730560","2024-04-11 12:15:00","9.5543","3.19462","23.808","4.926","7.51","0.354","4.117","0.02","0.28","29.1394","4.62261","52.06","0","SATNPRO1963","30.488","0.42702","5"],
    [18833,"HCEP03730560","2024-04-11 12:30:00","9.5564","3.19479","23.784","4.886","7.5","0.416","4.197","0.03","0.32","29.1394","4.62258","51.64","0","SATNPRO1963","30.362000000000002","0.42524","5"],
    [18834,"HCEP03730560","2024-04-11 12:45:00","9.5574","3.19487","23.817","4.873","7.5","0.359","4.175","0.03","0.41","29.1394","4.62255","51.51","0","SATNPRO1963","30.388","0.42566","5"],
    [18835,"HCEP03730560","2024-04-11 13:00:00","9.5581","3.19485","23.854","4.871","7.5","0.405","4.138","0.04","0.35","29.1386","4.62244","51.48","0","SATNPRO1963","30.49","0.42704","5"],
    [18836,"HCEP03730560","2024-04-11 13:15:00","9.5597","3.19481","23.966","4.851","7.5","0.357","3.732","0.03","0.14","29.1369","4.62217","51.28","0","SATNPRO1963","30.392","0.42568","5"],
    [18837,"HCEP03730560","2024-04-11 13:30:00","9.5599","3.19486","24.067","4.838","7.5","0.403","3.768","0.06","0.22","29.1371","4.6222","51.14","0","SATNPRO1963","30.312","0.42456","5"],
    [18838,"HCEP03730560","2024-04-11 13:45:00","9.5609","3.19487","24.227","4.823","7.5","0.351","3.848","0.02","0.25","29.1363","4.62208","50.98","0","SATNPRO1963","30.416","0.42602","5"],
    [18839,"HCEP03730560","2024-04-11 14:00:00","9.5614","3.19491","24.38","4.818","7.5","0.385","3.389","0.02","0.15","29.1364","4.62209","50.92","0","SATNPRO1963","30.226","0.42336","5"],
    [18840,"HCEP03730560","2024-04-11 14:15:00","9.5625","3.19494","24.565","4.802","7.5","0.361","3.368","0.04","0.2","29.1356","4.62197","50.76","0","SATNPRO1963","30.29","0.4243","5"],
    [18841,"HCEP03730560","2024-04-11 14:30:00","9.5644","3.19503","24.764","4.781","7.5","0.397","3.656","0.03","0.28","29.135","4.62186","50.54","0","SATNPRO1963","30.084","0.4214","5"],
    [18842,"HCEP03730560","2024-04-11 14:45:00","9.5663","3.19515","24.929","4.746","7.49","0.347","3.589","0.03","0.16","29.1345","4.62177","50.16","0","SATNPRO1963","30.066","0.42116","5"],
    [18843,"HCEP03730560","2024-04-11 15:00:00","9.5698","3.19529","25.086","4.696","7.49","0.391","3.633","0.02","0.19","29.133","4.6215","49.64","0","SATNPRO1963","30.038","0.42072","5"],
    [18844,"HCEP03730560","2024-04-11 15:15:00","9.5718","3.19522","25.275","4.652","7.49","0.36","3.63","0.03","0.15","29.1306","4.62114","49.18","0","SATNPRO1963","29.88","0.41854","5"],
    [18845,"HCEP03730560","2024-04-11 15:30:00","9.5711","3.19477","25.492","4.641","7.49","0.412","4.159","0.02","0.16","29.1266","4.62058","49.07","0","SATNPRO1963","29.76","0.41684","5"],
    [18846,"HCEP03730560","2024-04-11 15:45:00","9.5705","3.19404","25.695","4.659","7.49","0.362","3.961","0.03","0.12","29.1196","4.6196","49.25","0","SATNPRO1963","29.784","0.41716","5"],
    [18847,"HCEP03730560","2024-04-11 16:00:00","9.5715","3.19401","25.902","4.658","7.49","0.417","4.121","0.04","0.22","29.1184","4.61943","49.24","0","SATNPRO1963","29.902","0.41886","5"],
    [18848,"HCEP03730560","2024-04-11 16:15:00","9.5724","3.19403","26.121","4.645","7.49","0.385","4.262","0.03","0.27","29.1178","4.61933","49.1","0","SATNPRO1963","29.8","0.4174","5"],
    [18849,"HCEP03730560","2024-04-11 16:30:00","9.5722","3.19384","26.345","4.645","7.49","0.414","4.337","0.01","0.26","29.116","4.61909","49.1","0","SATNPRO1963","29.922","0.4191","5"],
    [18850,"HCEP03730560","2024-04-11 16:45:00","9.5734","3.19377","26.552","4.633","7.49","0.374","4.868","0.02","0.21","29.1142","4.61882","48.97","0","SATNPRO1963","29.874000000000002","0.41842","5"],
    [18851,"HCEP03730560","2024-04-11 17:00:00","9.5743","3.19333","26.762","4.628","7.49","0.416","4.145","0.02","0.18","29.109","4.61807","48.93","0","SATNPRO1963","29.66","0.41542","5"],
    [18852,"HCEP03730560","2024-04-11 17:15:00","9.5753","3.19294","26.967","4.627","7.49","0.374","3.974","0.02","0.18","29.1041","4.61737","48.91","0","SATNPRO1963","29.624","0.4149","5"],
    [18853,"HCEP03730560","2024-04-11 17:30:00","9.5765","3.19262","27.135","4.62","7.49","0.432","4.097","0.05","0.26","29.0999","4.61675","48.84","0","SATNPRO1963","29.788","0.41722","5"],
    [18854,"HCEP03730560","2024-04-11 17:45:00","9.5785","3.19262","27.302","4.594","7.48","0.363","3.866","0.03","0.17","29.0982","4.61649","48.56","0","SATNPRO1963","29.772","0.41702","5"],
    [18855,"HCEP03730560","2024-04-11 18:00:00","9.5806","3.19257","27.431","4.57","7.48","0.428","3.797","0.04","0.26","29.0959","4.61612","48.31","0","SATNPRO1963","29.904","0.41884","5"],
    [18856,"HCEP03730560","2024-04-11 18:15:00","9.5834","3.19258","27.529","4.536","7.48","0.399","3.794","0.05","0.21","29.0938","4.61578","47.96","0","SATNPRO1963","29.58","0.4143","5"],
    [18857,"HCEP03730560","2024-04-11 18:30:00","9.5841","3.19261","27.631","4.522","7.48","0.417","3.89","0.03","0.17","29.0934","4.61572","47.81","0","SATNPRO1963","29.472","0.41284","5"],
    [18858,"HCEP03730560","2024-04-11 18:45:00","9.5833","3.19268","27.724","4.525","7.48","0.374","4.229","0.02","0.24","29.0948","4.61593","47.83","0","SATNPRO1963","29.637999999999998","0.4151","5"],
    [18859,"HCEP03730560","2024-04-11 19:00:00","9.5853","3.19289","27.776","4.495","7.48","0.419","3.967","0.03","0.21","29.0952","4.61596","47.53","0","SATNPRO1963","29.552","0.41394","5"],
    [18860,"HCEP03730560","2024-04-11 19:15:00","9.5891","3.19303","27.794","4.453","7.47","0.373","3.746","0.03","0.24","29.0935","4.61566","47.08","0","SATNPRO1963","29.396","0.41172","5"],
    [18861,"HCEP03730560","2024-04-11 19:30:00","9.5889","3.19318","27.814","4.428","7.47","0.413","4.402","0.03","0.22","29.0952","4.61591","46.82","0","SATNPRO1963","29.446","0.41242","5"],
    [18862,"HCEP03730560","2024-04-11 19:45:00","9.5897","3.19292","27.818","4.421","7.47","0.362","3.76","0.02","0.35","29.092","4.61543","46.74","0","SATNPRO1963","29.428","0.41216","5"],
    [18863,"HCEP03730560","2024-04-11 20:00:00","9.59","3.19306","27.825","4.42","7.47","0.404","3.56","0.03","0.27","29.093","4.61557","46.74","0","SATNPRO1963","29.29","0.41024","5"],
    [18864,"HCEP03730560","2024-04-11 20:15:00","9.5905","3.19317","27.849","4.407","7.47","0.351","3.724","0.02","0.12","29.0938","4.61567","46.6","0","SATNPRO1963","29.238","0.40954","5"],
    [18865,"HCEP03730560","2024-04-11 20:30:00","9.5894","3.19317","27.825","4.406","7.47","0.405","3.787","0.02","0.21","29.0947","4.61583","46.59","0","SATNPRO1963","29.41","0.4119","5"],
    [18866,"HCEP03730560","2024-04-11 20:45:00","9.5885","3.19318","27.799","4.414","7.47","0.364","3.766","0.03","0.15","29.0956","4.61596","46.67","0","SATNPRO1963","29.464","0.41272","5"],
    [18867,"HCEP03730560","2024-04-11 21:00:00","9.5875","3.19292","27.749","4.439","7.47","0.415","3.873","0.02","0.31","29.0937","4.6157","46.93","0","SATNPRO1963","29.526","0.41356","5"],
    [18868,"HCEP03730560","2024-04-11 21:15:00","9.587","3.19323","27.686","4.447","7.47","0.376","4.308","0.03","0.38","29.0973","4.61623","47.02","0","SATNPRO1963","29.402","0.41184","5"],
    [18869,"HCEP03730560","2024-04-11 21:30:00","9.5807","3.19336","27.619","4.481","7.47","0.416","4.764","0.02","0.3","29.1037","4.61725","47.38","0","SATNPRO1963","29.566","0.41412","5"],
    [18870,"HCEP03730560","2024-04-11 21:45:00","9.5805","3.19315","27.535","4.525","7.47","0.363","3.732","0.03","0.24","29.1018","4.61698","47.84","0","SATNPRO1963","29.686","0.41582","5"],
    [18871,"HCEP03730560","2024-04-11 22:00:00","9.5798","3.19223","27.462","4.558","7.48","0.417","3.325","0.05","0.21","29.0932","4.61575","48.19","0","SATNPRO1963","29.728","0.4164","5"],
    [18872,"HCEP03730560","2024-04-11 22:15:00","9.5731","3.19314","27.383","4.562","7.48","0.394","4.854","0.04","0.22","29.1077","4.61795","48.23","0","SATNPRO1963","29.77","0.417","5"],
    [18873,"HCEP03730560","2024-04-11 22:30:00","9.5712","3.19261","27.288","4.585","7.48","0.436","5.432","0.04","0.45","29.104","4.61744","48.46","0","SATNPRO1963","29.69","0.41586","5"],
    [18874,"HCEP03730560","2024-04-11 22:45:00","9.567","3.19121","27.199","4.701","7.48","0.381","4.366","0.03","0.16","29.0933","4.61598","49.68","0","SATNPRO1963","29.698","0.41594","5"],
    [18875,"HCEP03730560","2024-04-11 23:00:00","9.563","3.18973","27.067","4.785","7.49","0.404","3.619","0.03","0.24","29.0816","4.61436","50.56","0","SATNPRO1963","29.71","0.41614","5"],
    [18876,"HCEP03730560","2024-04-11 23:15:00","9.5596","3.18881","26.963","4.848","7.5","0.361","3.264","0.03","0.16","29.0752","4.61349","51.22","0","SATNPRO1963","29.872","0.41836","5"],
    [18877,"HCEP03730560","2024-04-11 23:30:00","9.5566","3.188","26.856","4.891","7.5","0.41","3.427","0.04","0.17","29.0695","4.61272","51.67","0","SATNPRO1963","29.786","0.4172","5"],
    [18878,"HCEP03730560","2024-04-11 23:45:00","9.5552","3.18743","26.749","4.923","7.5","0.37","3.92","0.03","0.23","29.0649","4.61208","52.01","0","SATNPRO1963","29.864","0.41828","5"],
    [18879,"HCEP03730560","2024-04-12 00:00:00","9.5583","3.18846","26.681","4.849","7.5","0.437","4.365","0.04","0.28","29.0728","4.61316","51.23","0","SATNPRO1963","29.822","0.4177","5"],
    [18880,"HCEP03730560","2024-04-12 00:15:00","9.559","3.18872","26.588","4.827","7.5","0.39","4.465","0.04","0.26","29.0749","4.61344","50.99","0","SATNPRO1963","29.854","0.41818","5"],
    [18881,"HCEP03730560","2024-04-12 00:30:00","9.5445","3.18433","26.5","5.074","7.51","0.393","3.181","0.02","0.17","29.0424","4.60903","53.58","0","SATNPRO1963","30.092","0.4215","5"],
    [18882,"HCEP03730560","2024-04-12 00:45:00","9.538","3.18238","26.463","5.258","7.52","0.367","3.743","0.02","0.21","29.028","4.60707","55.51","0","SATNPRO1963","29.934","0.41928","5"],
    [18883,"HCEP03730560","2024-04-12 01:00:00","9.5587","3.1895","26.467","4.923","7.51","0.439","5.314","0.03","0.32","29.0831","4.61462","52.01","0","SATNPRO1963","29.786","0.41722","5"],
    [18884,"HCEP03730560","2024-04-12 01:15:00","9.5643","3.19127","26.459","4.71","7.5","0.413","5.321","0.09","0.25","29.0964","4.61643","49.77","0","SATNPRO1963","29.678","0.4157","5"],
    [18885,"HCEP03730560","2024-04-12 01:30:00","9.563","3.19123","26.434","4.678","7.49","0.455","5.362","0.03","0.25","29.097","4.61653","49.43","0","SATNPRO1963","29.736","0.41646","5"],
    [18886,"HCEP03730560","2024-04-12 01:45:00","9.5592","3.19025","26.476","4.744","7.49","0.398","4.989","0.03","0.24","29.0903","4.61564","50.12","0","SATNPRO1963","29.68","0.41574","5"],
    [18887,"HCEP03730560","2024-04-12 02:00:00","9.5539","3.18821","26.563","4.83","7.5","0.438","5.145","0.03","0.24","29.074","4.6134","51.03","0","SATNPRO1963","29.836","0.41792","5"],
    [18888,"HCEP03730560","2024-04-12 02:15:00","9.5552","3.18807","26.657","4.816","7.5","0.413","5.654","0.02","0.28","29.0714","4.61301","50.88","0","SATNPRO1963","29.912","0.41898","5"],
    [18889,"HCEP03730560","2024-04-12 02:30:00","9.5575","3.18874","26.681","4.765","7.5","0.474","6.253","0.07","0.31","29.0763","4.61368","50.34","0","SATNPRO1963","29.61","0.41472","5"],
    [18890,"HCEP03730560","2024-04-12 02:45:00","9.5548","3.18753","26.77","4.794","7.5","0.446","5.724","0.07","0.25","29.0662","4.61228","50.64","0","SATNPRO1963","29.61","0.41472","5"],
    [18891,"HCEP03730560","2024-04-12 03:00:00","9.549","3.1859","26.856","4.876","7.5","0.456","5.421","0.03","0.29","29.0545","4.6107","51.5","0","SATNPRO1963","29.784","0.41718","5"],
    [18892,"HCEP03730560","2024-04-12 03:15:00","9.5483","3.18632","26.937","4.915","7.51","0.401","4.303","0.03","0.24","29.0592","4.61139","51.91","0","SATNPRO1963","29.78","0.41716","5"],
    [18893,"HCEP03730560","2024-04-12 03:30:00","9.5485","3.18701","27.039","4.92","7.51","0.418","4.565","0.04","0.29","29.066","4.61237","51.96","0","SATNPRO1963","29.756","0.4168","5"],
    [18894,"HCEP03730560","2024-04-12 03:45:00","9.5517","3.18808","27.142","4.877","7.51","0.41","5.433","0.04","0.3","29.0741","4.61349","51.52","0","SATNPRO1963","29.96","0.41964","5"],
    [18895,"HCEP03730560","2024-04-12 04:00:00","9.556","3.19008","27.227","4.828","7.5","0.414","4.469","0.03","0.28","29.0908","4.61581","51.01","0","SATNPRO1963","29.762","0.41688","5"],
    [18896,"HCEP03730560","2024-04-12 04:15:00","9.5602","3.19165","27.318","4.752","7.5","0.367","4.275","0.04","0.25","29.1032","4.61752","50.22","0","SATNPRO1963","29.836","0.41794","5"],
    [18897,"HCEP03730560","2024-04-12 04:30:00","9.5621","3.19229","27.401","4.702","7.49","0.425","4.303","0.02","0.22","29.1081","4.6182","49.69","0","SATNPRO1963","29.728","0.41642","5"],
    [18898,"HCEP03730560","2024-04-12 04:45:00","9.5626","3.19244","27.489","4.677","7.49","0.382","4.18","0.03","0.24","29.1092","4.61835","49.43","0","SATNPRO1963","29.842","0.418","5"],
    [18899,"HCEP03730560","2024-04-12 05:00:00","9.5636","3.19245","27.579","4.666","7.49","0.414","4.082","0.03","0.25","29.1084","4.61823","49.31","0","SATNPRO1963","29.778","0.41712","5"],
    [18900,"HCEP03730560","2024-04-12 05:15:00","9.5615","3.192","27.663","4.701","7.49","0.369","4.414","0.04","0.45","29.1055","4.61785","49.67","0","SATNPRO1963","29.944","0.41944","5"],
    [18901,"HCEP03730560","2024-04-12 05:30:00","9.5582","3.19159","27.733","4.747","7.49","0.418","4.36","0.03","0.27","29.1041","4.61771","50.16","0","SATNPRO1963","29.918","0.41904","5"],
    [18902,"HCEP03730560","2024-04-12 05:45:00","9.5545","3.19163","27.782","4.798","7.5","0.384","4.688","0.06","0.23","29.1075","4.61826","50.7","0","SATNPRO1963","29.972","0.41978","5"],
    [18903,"HCEP03730560","2024-04-12 06:00:00","9.5505","3.19136","27.821","4.853","7.5","0.418","4.569","0.04","0.26","29.1079","4.6184","51.27","0","SATNPRO1963","30.080000000000002","0.42132","5"],
    [18904,"HCEP03730560","2024-04-12 06:15:00","9.5438","3.1911","27.85","4.939","7.51","0.367","4.387","0.03","0.37","29.1107","4.61892","52.18","0","SATNPRO1963","30.298","0.42436","5"],
    [18905,"HCEP03730560","2024-04-12 06:30:00","9.5413","3.19124","27.862","4.982","7.51","0.422","5.847","0.03","0.43","29.1142","4.61946","52.63","0","SATNPRO1963","30.226","0.4234","5"],
    [18906,"HCEP03730560","2024-04-12 06:45:00","9.5395","3.191","27.843","5.002","7.51","0.388","4.715","0.04","0.31","29.1132","4.61934","52.84","0","SATNPRO1963","30.494","0.42712","5"],
    [18907,"HCEP03730560","2024-04-12 07:00:00","9.5379","3.19069","27.808","5.018","7.51","0.414","4.602","0.03","0.23","29.1114","4.61911","53","0","SATNPRO1963","30.614","0.4288","5"],
    [18908,"HCEP03730560","2024-04-12 07:15:00","9.536","3.19024","27.767","5.041","7.52","0.366","4.066","0.04","0.23","29.1084","4.61871","53.24","0","SATNPRO1963","30.413999999999998","0.42602","5"],
    [18909,"HCEP03730560","2024-04-12 07:30:00","9.5324","3.18935","27.701","5.082","7.52","0.423","3.475","0.05","0.14","29.1024","4.61792","53.67","0","SATNPRO1963","30.291999999999998","0.42432","5"],
    [18910,"HCEP03730560","2024-04-12 07:45:00","9.5316","3.18902","27.613","5.097","7.52","0.361","3.739","0.04","0.23","29.0997","4.61754","53.83","0","SATNPRO1963","30.786","0.4312","5"],
    [18911,"HCEP03730560","2024-04-12 08:00:00","9.5312","3.18891","27.499","5.104","7.52","0.443","4.185","0.06","0.26","29.0989","4.61743","53.9","0","SATNPRO1963","30.168","0.42254","5"],
    [18912,"HCEP03730560","2024-04-12 08:15:00","9.5264","3.18781","27.361","5.161","7.52","0.357","3.505","0.03","0.16","29.0918","4.61648","54.49","0","SATNPRO1963","30.35","0.42512","5"],
    [18913,"HCEP03730560","2024-04-12 08:30:00","9.523","3.18727","27.219","5.224","7.53","0.405","3.534","0.04","0.14","29.0892","4.61616","55.15","0","SATNPRO1963","30.462","0.42668","5"],
    [18914,"HCEP03730560","2024-04-12 08:45:00","9.5307","3.1888","27.043","5.141","7.53","0.368","3.56","0.03","0.19","29.0984","4.61733","54.29","0","SATNPRO1963","30.254","0.42376","5"],
    [18915,"HCEP03730560","2024-04-12 09:00:00","9.5331","3.18947","26.84","5.08","7.52","0.418","4.098","0.03","0.12","29.1033","4.61799","53.65","0","SATNPRO1963","30.134","0.42204","5"],
    [18916,"HCEP03730560","2024-04-12 09:15:00","9.5355","3.18981","26.628","5.027","7.52","0.39","4.528","0.05","0.25","29.1049","4.61816","53.09","0","SATNPRO1963","30.36","0.42526","5"],
    [18917,"HCEP03730560","2024-04-12 09:30:00","9.5379","3.19015","26.428","4.999","7.51","0.416","4.479","0.03","0.26","29.1065","4.61834","52.8","0","SATNPRO1963","30.308","0.42454","5"],
    [18918,"HCEP03730560","2024-04-12 09:45:00","9.5383","3.19005","26.205","4.979","7.51","0.391","4.55","0.04","0.18","29.1052","4.61813","52.59","0","SATNPRO1963","30.07","0.42118","5"],
    [18919,"HCEP03730560","2024-04-12 10:00:00","9.538","3.18995","25.98","4.977","7.51","0.427","4.569","0.04","0.32","29.1045","4.61802","52.57","0","SATNPRO1963","30.18","0.42274","5"],
    [18920,"HCEP03730560","2024-04-12 10:15:00","9.54","3.1901","25.675","4.969","7.51","0.368","4.38","0.03","0.24","29.1046","4.61797","52.48","0","SATNPRO1963","30.222","0.42332","5"],
    [18921,"HCEP03730560","2024-04-12 10:30:00","9.5417","3.1904","25.406","4.955","7.51","0.413","4.475","0.03","0.25","29.1063","4.61817","52.34","0","SATNPRO1963","30.086000000000002","0.4214","5"],
    [18922,"HCEP03730560","2024-04-12 10:45:00","9.5428","3.19045","25.161","4.928","7.51","0.381","4.438","0.08","0.26","29.1061","4.61812","52.06","0","SATNPRO1963","30.13","0.42204","5"],
    [18923,"HCEP03730560","2024-04-12 11:00:00","9.5442","3.19035","24.929","4.919","7.5","0.393","4.26","0.02","0.2","29.104","4.61777","51.97","0","SATNPRO1963","30.134","0.42208","5"],
    [18924,"HCEP03730560","2024-04-12 11:15:00","9.547","3.18994","24.699","4.904","7.5","0.408","4.603","0.18","0.83","29.0978","4.61682","51.8","0","SATNPRO1963","30.068","0.42116","5"],
    [18925,"HCEP03730560","2024-04-12 11:30:00","9.5509","3.18964","24.492","4.876","7.5","0.388","4.155","0.02","0.29","29.0916","4.61585","51.51","0","SATNPRO1963","29.878","0.4185","5"],
    [18926,"HCEP03730560","2024-04-12 11:45:00","9.557","3.19012","24.329","4.793","7.5","0.37","4.326","0.03","0.21","29.0916","4.61575","50.64","0","SATNPRO1963","29.764","0.41688","5"],
    [18927,"HCEP03730560","2024-04-12 12:00:00","9.5638","3.19061","24.155","4.705","7.49","0.419","4.585","0.03","0.31","29.0911","4.61554","49.72","0","SATNPRO1963","29.702","0.41602","5"],
    [18928,"HCEP03730560","2024-04-12 12:15:00","9.5671","3.19097","24.022","4.652","7.48","0.368","4.358","0.02","0.21","29.0921","4.61562","49.16","0","SATNPRO1963","29.548","0.4139","5"],
    [18929,"HCEP03730560","2024-04-12 12:30:00","9.5688","3.19138","23.918","4.616","7.48","0.4","4.549","0.02","0.28","29.0948","4.61597","48.78","0","SATNPRO1963","29.626","0.41498","5"],
    [18930,"HCEP03730560","2024-04-12 12:45:00","9.5697","3.19156","23.907","4.6","7.48","0.358","4.459","0.03","0.31","29.0959","4.61611","48.61","0","SATNPRO1963","29.596","0.41454","5"],
    [18931,"HCEP03730560","2024-04-12 13:00:00","9.5701","3.19166","23.829","4.59","7.48","0.401","4.111","0.02","0.23","29.0967","4.61621","48.52","0","SATNPRO1963","29.509999999999998","0.41334","5"],
    [18932,"HCEP03730560","2024-04-12 13:15:00","9.5706","3.19182","23.816","4.579","7.47","0.361","4.444","0.02","0.6","29.0979","4.61638","48.4","0","SATNPRO1963","29.504","0.41326","5"],
    [18933,"HCEP03730560","2024-04-12 13:30:00","9.5715","3.19202","23.846","4.536","7.47","0.408","4.173","0.03","0.23","29.0992","4.61655","47.94","0","SATNPRO1963","29.614","0.41482","5"],
    [18934,"HCEP03730560","2024-04-12 13:45:00","9.5712","3.19204","23.834","4.541","7.47","0.369","4.014","0.04","0.22","29.0996","4.61662","48","0","SATNPRO1963","29.754","0.41676","5"],
    [18935,"HCEP03730560","2024-04-12 14:00:00","9.5722","3.19229","23.938","4.52","7.47","0.408","4.353","0.01","0.24","29.1013","4.61684","47.77","0","SATNPRO1963","29.438","0.41238","5"],
    [18936,"HCEP03730560","2024-04-12 14:15:00","9.5727","3.1924","23.996","4.502","7.47","0.37","4.429","0.02","0.21","29.1021","4.61695","47.58","0","SATNPRO1963","29.568","0.41412","5"],
    [18937,"HCEP03730560","2024-04-12 14:30:00","9.5725","3.19235","24.181","4.502","7.47","0.406","4.552","0.02","0.16","29.1015","4.61689","47.58","0","SATNPRO1963","29.556","0.414","5"],
    [18938,"HCEP03730560","2024-04-12 14:45:00","9.5712","3.19204","24.27","4.528","7.47","0.36","4.379","0.02","0.15","29.0995","4.61663","47.86","0","SATNPRO1963","29.552","0.41394","5"],
    [18939,"HCEP03730560","2024-04-12 15:00:00","9.5715","3.19205","24.493","4.516","7.47","0.416","4.969","0.02","0.23","29.0993","4.6166","47.74","0","SATNPRO1963","29.364","0.41132","5"],
    [18940,"HCEP03730560","2024-04-12 15:15:00","9.5719","3.192","24.683","4.518","7.47","0.361","4.709","0.02","0.25","29.0983","4.61647","47.75","0","SATNPRO1963","29.372","0.41138","5"],
    [18941,"HCEP03730560","2024-04-12 15:30:00","9.5729","3.19198","24.862","4.514","7.47","0.411","4.612","0.02","0.15","29.0973","4.61631","47.71","0","SATNPRO1963","29.352","0.41118","5"],
    [18942,"HCEP03730560","2024-04-12 15:45:00","9.5743","3.19197","25.024","4.497","7.47","0.365","4.545","0.02","0.45","29.0959","4.6161","47.54","0","SATNPRO1963","29.298000000000002","0.41038","5"],
    [18943,"HCEP03730560","2024-04-12 16:00:00","9.5763","3.19222","25.205","4.459","7.47","0.404","4.608","0.02","0.21","29.096800000000002","4.6162","47.13","0","SATNPRO1963","29.416","0.41202","5"],
    [18944,"HCEP03730560","2024-04-12 16:15:00","9.5797","3.19239","25.379","4.423","7.47","0.358","4.214","0.02","0.14","29.0956","4.61599","46.76","0","SATNPRO1963","29.21","0.4091","5"],
    [18945,"HCEP03730560","2024-04-12 16:30:00","9.5806","3.19235","25.56","4.407","7.47","0.397","4.452","0.01","0.16","29.0944","4.61581","46.59","0","SATNPRO1963","29.394000000000002","0.41168","5"],
    [18946,"HCEP03730560","2024-04-12 16:45:00","9.5813","3.19217","25.801","4.398","7.47","0.357","4.135","0.02","0.13","29.092","4.61546","46.49","0","SATNPRO1963","29.274","0.41002","5"],
    [18947,"HCEP03730560","2024-04-12 17:00:00","9.5798","3.19143","25.979","4.43","7.47","0.399","4.151","0.02","0.14","29.0856","4.61458","46.82","0","SATNPRO1963","29.176000000000002","0.40864","5"],
    [18948,"HCEP03730560","2024-04-12 17:15:00","9.5797","3.19125","26.226","4.456","7.47","0.362","4.252","0.02","0.29","29.0838","4.61434","47.1","0","SATNPRO1963","29.11","0.40772","5"],
    [18949,"HCEP03730560","2024-04-12 17:30:00","9.5809","3.19123","26.417","4.396","7.47","0.423","4.664","0.02","0.17","29.0826","4.61416","46.47","0","SATNPRO1963","29.198","0.40898","5"],
    [18950,"HCEP03730560","2024-04-12 17:45:00","9.5822","3.19144","26.583","4.352","7.46","0.377","4.869","0.02","0.16","29.0835","4.61427","46.01","0","SATNPRO1963","28.908","0.4049","5"],
    [18951,"HCEP03730560","2024-04-12 18:00:00","9.5826","3.19106","26.817","4.34","7.46","0.418","4.641","0.01","0.24","29.0793","4.61368","45.88","0","SATNPRO1963","29.218","0.40924","5"],
    [18952,"HCEP03730560","2024-04-12 18:15:00","9.5826","3.19057","26.977","4.356","7.46","0.388","4.504","0.03","0.16","29.0744","4.61298","46.05","0","SATNPRO1963","29.19","0.40884","5"],
    [18953,"HCEP03730560","2024-04-12 18:30:00","9.5824","3.1903","27.158","4.367","7.46","0.409","4.338","0.01","0.14","29.0717","4.61261","46.16","0","SATNPRO1963","29.218","0.40926","5"],
    [18954,"HCEP03730560","2024-04-12 18:45:00","9.5844","3.19041","27.288","4.343","7.46","0.371","4.185","0.02","0.11","29.0711","4.6125","45.91","0","SATNPRO1963","29.066","0.4071","5"],
    [18955,"HCEP03730560","2024-04-12 19:00:00","9.5857","3.19031","27.428","4.332","7.46","0.42","4.125","0.03","0.15","29.069","4.61219","45.79","0","SATNPRO1963","29.17","0.40858","5"],
    [18956,"HCEP03730560","2024-04-12 19:15:00","9.5877","3.19025","27.515","4.311","7.46","0.387","4.161","0.02","0.24","29.0668","4.61183","45.57","0","SATNPRO1963","29.062","0.40708","5"],
    [18957,"HCEP03730560","2024-04-12 19:30:00","9.5895","3.19038","27.611","4.291","7.46","0.43","4.504","0.03","0.37","29.0666","4.61178","45.36","0","SATNPRO1963","29.158","0.40838","5"],
    [18958,"HCEP03730560","2024-04-12 19:45:00","9.5919","3.19088","27.674","4.236","7.46","0.392","5.396","0.02","0.41","29.0696","4.61217","44.78","0","SATNPRO1963","28.872","0.40438","5"],
    [18959,"HCEP03730560","2024-04-12 20:00:00","9.5946","3.19132","27.713","4.179","7.45","0.435","5.464","0.03","0.39","29.0719","4.61245","44.18","0","SATNPRO1963","28.842000000000002","0.404","5"],
    [18960,"HCEP03730560","2024-04-12 20:15:00","9.5965","3.19152","27.74","4.142","7.45","0.401","5.463","0.03","0.25","29.0723","4.61249","43.8","0","SATNPRO1963","28.766000000000002","0.4029","5"],
    [18961,"HCEP03730560","2024-04-12 20:30:00","9.5978","3.1914","27.763","4.128","7.45","0.443","4.977","0.05","0.36","29.0701","4.61214","43.65","0","SATNPRO1963","28.706","0.40206","5"],
    [18962,"HCEP03730560","2024-04-12 20:45:00","9.5986","3.1915","27.804","4.116","7.45","0.379","4.848","0.02","0.23","29.0705","4.61219","43.53","0","SATNPRO1963","28.66","0.40142","5"],
    [18963,"HCEP03730560","2024-04-12 21:00:00","9.5987","3.19164","27.825","4.102","7.45","0.434","5.133","0.03","0.26","29.0717","4.61237","43.37","0","SATNPRO1963","28.66","0.40146","5"],
    [18964,"HCEP03730560","2024-04-12 21:15:00","9.598","3.19184","27.848","4.096","7.44","0.404","5.046","0.04","0.31","29.0744","4.61276","43.31","0","SATNPRO1963","28.626","0.40096","5"],
    [18965,"HCEP03730560","2024-04-12 21:30:00","9.5968","3.19194","27.823","4.095","7.44","0.425","5.081","0.03","0.3","29.0763","4.61306","43.3","0","SATNPRO1963","28.65","0.40128","5"],
    [18966,"HCEP03730560","2024-04-12 21:45:00","9.5947","3.19217","27.815","4.106","7.44","0.391","4.84","0.02","0.21","29.0803","4.61366","43.42","0","SATNPRO1963","28.830000000000002","0.40384","5"],
    [18967,"HCEP03730560","2024-04-12 22:00:00","9.5941","3.19213","27.768","4.126","7.44","0.447","4.543","0.04","0.22","29.0805","4.6137","43.63","0","SATNPRO1963","28.754","0.40276","5"],
    [18968,"HCEP03730560","2024-04-12 22:15:00","9.5898","3.19229","27.725","4.153","7.45","0.374","4.865","0.02","0.37","29.0856","4.6145","43.91","0","SATNPRO1963","28.738","0.40252","5"],
    [18969,"HCEP03730560","2024-04-12 22:30:00","9.5878","3.19229","27.665","4.193","7.45","0.459","4.675","0.05","0.19","29.0872","4.61477","44.33","0","SATNPRO1963","29.046","0.40684","5"],
    [18970,"HCEP03730560","2024-04-12 22:45:00","9.5837","3.19239","27.594","4.242","7.45","0.396","4.913","0.04","0.62","29.0915","4.61546","44.84","0","SATNPRO1963","28.952","0.4055","5"],
    [18971,"HCEP03730560","2024-04-12 23:00:00","9.5805","3.19235","27.493","4.289","7.45","0.442","5.209","0.03","0.31","29.0938","4.61583","45.34","0","SATNPRO1963","29.158","0.40842","5"],
    [18972,"HCEP03730560","2024-04-12 23:15:00","9.5838","3.19174","27.427","4.317","7.46","0.367","4.037","0.03","0.19","29.085","4.61451","45.64","0","SATNPRO1963","29.07","0.4072","5"],
    [18973,"HCEP03730560","2024-04-12 23:30:00","9.5784","3.19236","27.344","4.326","7.46","0.425","5.145","0.02","0.26","29.0957","4.61613","45.73","0","SATNPRO1963","29.062","0.40706","5"],
    [18974,"HCEP03730560","2024-04-12 23:45:00","9.5771","3.19232","27.262","4.341","7.46","0.391","4.73","0.03","0.25","29.0963","4.61624","45.88","0","SATNPRO1963","29.126","0.40796","5"],
    [18975,"HCEP03730560","2024-04-13 00:00:00","9.5767","3.19209","27.19","4.357","7.46","0.42","4.685","0.03","0.27","29.0943","4.61596","46.05","0","SATNPRO1963","29.34","0.41092","5"],
    [18976,"HCEP03730560","2024-04-13 00:15:00","9.576","3.19206","27.111","4.375","7.46","0.38","4.998","0.02","0.16","29.0947","4.61601","46.24","0","SATNPRO1963","29.064","0.40708","5"],
    [18977,"HCEP03730560","2024-04-13 00:30:00","9.5744","3.19192","27.025","4.392","7.46","0.433","5.163","0.05","0.18","29.0946","4.61602","46.43","0","SATNPRO1963","29.202","0.409","5"],
    [18978,"HCEP03730560","2024-04-13 00:45:00","9.5725","3.19136","26.935","4.43","7.46","0.385","4.825","0.03","0.12","29.0904","4.61545","46.82","0","SATNPRO1963","29.12","0.4079","5"],
    [18979,"HCEP03730560","2024-04-13 01:00:00","9.5707","3.19119","26.848","4.47","7.47","0.417","4.72","0.03","0.24","29.0903","4.61546","47.24","0","SATNPRO1963","29.264","0.40986","5"],
    [18980,"HCEP03730560","2024-04-13 01:15:00","9.5672","3.19088","26.785","4.491","7.47","0.376","4.93","0.03","0.22","29.09","4.61547","47.46","0","SATNPRO1963","29.288","0.41024","5"],
    [18981,"HCEP03730560","2024-04-13 01:30:00","9.5617","3.18986","26.744","4.566","7.47","0.419","4.76","0.04","0.25","29.0842","4.61474","48.24","0","SATNPRO1963","29.328","0.4108","5"],
    [18982,"HCEP03730560","2024-04-13 01:45:00","9.5557","3.18801","26.692","4.678","7.48","0.373","4.987","0.02","0.26","29.0703","4.61285","49.42","0","SATNPRO1963","29.398","0.41178","5"],
    [18983,"HCEP03730560","2024-04-13 02:00:00","9.5523","3.18878","26.671","4.695","7.48","0.426","5.717","0.03","0.26","29.0809","4.61443","49.6","0","SATNPRO1963","29.456","0.41258","5"],
    [18984,"HCEP03730560","2024-04-13 02:15:00","9.5512","3.1888","26.678","4.703","7.49","0.382","5.863","0.02","0.3","29.082","4.6146","49.68","0","SATNPRO1963","29.518","0.41344","5"],
    [18985,"HCEP03730560","2024-04-13 02:30:00","9.55","3.18881","26.698","4.715","7.49","0.435","5.464","0.04","0.27","29.083","4.61477","49.81","0","SATNPRO1963","29.504","0.4132","5"],
    [18986,"HCEP03730560","2024-04-13 02:45:00","9.5498","3.18887","26.716","4.712","7.49","0.395","5.691","0.04","0.3","29.0838","4.61489","49.77","0","SATNPRO1963","29.541999999999998","0.4138","5"],
    [18987,"HCEP03730560","2024-04-13 03:00:00","9.5497","3.189","26.733","4.712","7.49","0.425","5.283","0.03","0.29","29.0852","4.61509","49.78","0","SATNPRO1963","29.562","0.4141","5"],
    [18988,"HCEP03730560","2024-04-13 03:15:00","9.5487","3.18892","26.754","4.715","7.49","0.379","5.683","0.03","0.32","29.0852","4.61511","49.8","0","SATNPRO1963","29.586","0.41436","5"],
    [18989,"HCEP03730560","2024-04-13 03:30:00","9.5527","3.18957","26.798","4.685","7.49","0.44","5.163","0.15","0.36","29.0884","4.6155","49.5","0","SATNPRO1963","29.394000000000002","0.41174","5"],
    [18990,"HCEP03730560","2024-04-13 03:45:00","9.5551","3.19019","26.857","4.643","7.49","0.39","5.54","0.05","0.26","29.0928","4.61609","49.06","0","SATNPRO1963","29.358","0.4112","5"],
    [18991,"HCEP03730560","2024-04-13 04:00:00","9.5543","3.19057","26.905","4.636","7.48","0.423","5.401","0.04","0.31","29.0972","4.61675","48.98","0","SATNPRO1963","29.628","0.41498","5"],
    [18992,"HCEP03730560","2024-04-13 04:15:00","9.5467","3.19132","26.963","4.679","7.49","0.368","4.613","0.02","0.18","29.1109","4.61885","49.43","0","SATNPRO1963","29.76","0.41682","5"],
    [18993,"HCEP03730560","2024-04-13 04:30:00","9.5206","3.19165","27.031","4.891","7.5","0.418","4.617","0.03","0.25","29.1354","4.62281","51.65","0","SATNPRO1963","29.972","0.41982","5"],
    [18994,"HCEP03730560","2024-04-13 04:45:00","9.481","3.19043","27.101","5.235","7.52","0.344","4.056","0.02","0.29","29.1553","4.62637","55.24","0","SATNPRO1963","30.558","0.428","5"],
    [18995,"HCEP03730560","2024-04-13 05:00:00","9.4604","3.18956","27.159","5.65","7.55","5.607","168.554","4.76","101.62","29.1632","4.62787","59.59","0","SATNPRO1963","31","0.43422","5"],
    [18996,"HCEP03730560","2024-04-13 05:15:00","9.4562","3.18946","27.215","5.761","7.56","0.333","3.329","0.05","0.38","29.1656","4.62829","60.76","0","SATNPRO1963","31.233999999999998","0.43748","5"],
    [18997,"HCEP03730560","2024-04-13 05:30:00","9.455","3.18943","27.272","5.78","7.57","0.367","3.589","0.01","0.23","29.1662","4.6284","60.96","0","SATNPRO1963","31.098","0.4356","5"],
    [18998,"HCEP03730560","2024-04-13 05:45:00","9.4538","3.18945","27.331","5.784","7.57","0.338","4.021","0.02","0.38","29.1673","4.62859","61","0","SATNPRO1963","31.13","0.436","5"],
    [18999,"HCEP03730560","2024-04-13 06:00:00","9.4489","3.19019","27.375","5.817","7.58","0.36","3.24","0.01","0.31","29.1788","4.63032","61.34","0","SATNPRO1963","31.094","0.43552","5"],
    [19000,"HCEP03730560","2024-04-13 06:15:00","9.4476","3.19039","27.444","5.829","7.58","0.336","3.858","0.02","0.37","29.1818","4.63078","61.47","0","SATNPRO1963","31.168","0.43652","5"],
    [19001,"HCEP03730560","2024-04-13 06:30:00","9.4466","3.19103","27.482","5.842","7.58","0.373","3.641","0.03","0.29","29.189","4.63184","61.61","0","SATNPRO1963","31.274","0.43804","5"],
    [19002,"HCEP03730560","2024-04-13 06:45:00","9.4408","3.19105","27.51","5.882","7.59","0.333","3.485","0.03","0.19","29.194","4.63265","62.02","0","SATNPRO1963","31.312","0.43858","5"],
    [19003,"HCEP03730560","2024-04-13 07:00:00","9.4389","3.19079","27.537","5.901","7.59","0.389","3.591","0.04","0.29","29.1929","4.63254","62.23","0","SATNPRO1963","31.412","0.43998","5"],
    [19004,"HCEP03730560","2024-04-13 07:15:00","9.4334","3.19072","27.542","5.944","7.59","0.319","3.335","0.03","0.16","29.1967","4.63318","62.67","0","SATNPRO1963","31.546","0.44186","5"],
    [19005,"HCEP03730560","2024-04-13 07:30:00","9.4324","3.19012","27.528","5.962","7.59","0.435","3.781","0.26","0.33","29.1914","4.63244","62.85","0","SATNPRO1963","31.34","0.43896","5"],
    [19006,"HCEP03730560","2024-04-13 07:45:00","9.4315","3.1898","27.502","5.954","7.59","0.344","4.343","0.02","0.29","29.189","4.6321","62.78","0","SATNPRO1963","31.4","0.43982","5"],
    [19007,"HCEP03730560","2024-04-13 08:00:00","9.4262","3.18954","27.459","6.009","7.6","0.378","3.014","0.06","0.15","29.1907","4.63244","63.35","0","SATNPRO1963","31.474","0.44086","5"],
    [19008,"HCEP03730560","2024-04-13 08:15:00","9.4261","3.18921","27.394","6.005","7.6","0.336","4.018","0.02","0.21","29.1875","4.63197","63.3","0","SATNPRO1963","31.084","0.4354","5"],
    [19009,"HCEP03730560","2024-04-13 08:30:00","9.4253","3.18932","27.303","5.994","7.6","0.382","4.673","0.02","0.42","29.1892","4.63223","63.19","0","SATNPRO1963","31.332","0.4389","5"],
    [19010,"HCEP03730560","2024-04-13 08:45:00","9.4244","3.18956","27.239","5.99","7.6","0.339","4.093","0.02","0.17","29.1924","4.6327","63.14","0","SATNPRO1963","31.252","0.43772","5"],
    [19011,"HCEP03730560","2024-04-13 09:00:00","9.4227","3.18963","27.118","5.998","7.6","0.376","4.024","0.02","0.23","29.1946","4.63304","63.22","0","SATNPRO1963","31.696","0.444","5"],
    [19012,"HCEP03730560","2024-04-13 09:15:00","9.4221","3.18977","26.975","5.999","7.6","0.35","4.213","0.03","0.2","29.1966","4.63332","63.23","0","SATNPRO1963","31.198","0.43696","5"],
    [19013,"HCEP03730560","2024-04-13 09:30:00","9.4228","3.18979","26.847","5.992","7.6","0.386","3.951","0.04","0.15","29.1962","4.63324","63.16","0","SATNPRO1963","31.354","0.43918","5"],
    [19014,"HCEP03730560","2024-04-13 09:45:00","9.4248","3.18977","26.686","5.964","7.6","0.339","3.819","0.02","0.17","29.1945","4.63296","62.88","0","SATNPRO1963","31.392","0.43974","5"],
    [19015,"HCEP03730560","2024-04-13 10:00:00","9.4231","3.18988","26.498","5.978","7.6","0.395","4.094","0.07","0.17","29.197","4.63334","63.02","0","SATNPRO1963","31.512","0.44138","5"],
    [19016,"HCEP03730560","2024-04-13 10:15:00","9.4202","3.19001","26.31","5.996","7.6","0.336","4.16","0.02","0.14","29.2008","4.63392","63.2","0","SATNPRO1963","31.44","0.44034","5"],
    [19017,"HCEP03730560","2024-04-13 10:30:00","9.4154","3.19032","26.112","6.036","7.6","0.367","3.862","0.01","0.15","29.2079","4.63501","63.62","0","SATNPRO1963","31.498","0.4412","5"],
    [19018,"HCEP03730560","2024-04-13 10:45:00","9.414","3.19105","25.903","6.042","7.6","0.333","4.487","0.02","0.18","29.2165","4.63627","63.69","0","SATNPRO1963","31.604","0.44264","5"],
    [19019,"HCEP03730560","2024-04-13 11:00:00","9.4129","3.19159","25.705","6.061","7.6","0.367","4.045","0.02","0.12","29.2229","4.6372","63.89","0","SATNPRO1963","31.756","0.4448","5"],
    [19020,"HCEP03730560","2024-04-13 11:15:00","9.4114","3.192","25.463","6.072","7.6","0.318","3.783","0.01","0.31","29.2285","4.638","64","0","SATNPRO1963","31.834","0.44588","5"],
    [19021,"HCEP03730560","2024-04-13 11:30:00","9.4117","3.19251","25.262","6.069","7.6","0.361","4.128","0.01","0.24","29.2334","4.6387","63.97","0","SATNPRO1963","31.658","0.44344","5"],
    [19022,"HCEP03730560","2024-04-13 11:45:00","9.414","3.19312","25.061","6.021","7.6","0.341","5.054","0.02","0.22","29.2378","4.63928","63.48","0","SATNPRO1963","31.844","0.44602","5"],
    [19023,"HCEP03730560","2024-04-13 12:00:00","9.4116","3.1936","24.851","6.074","7.6","0.343","3.412","0.02","0.2","29.2448","4.6403","64.03","0","SATNPRO1963","31.922","0.4471","5"],
    [19024,"HCEP03730560","2024-04-13 12:15:00","9.4124","3.19404","24.669","6.075","7.6","0.285","2.881","0.01","0.1","29.2486","4.64082","64.04","0","SATNPRO1963","31.922","0.4471","5"],
    [19025,"HCEP03730560","2024-04-13 12:30:00","9.414","3.19421","24.539","6.04","7.6","0.348","3.643","0.01","0.17","29.2491","4.64086","63.68","0","SATNPRO1963","31.956","0.44758","5"],
    [19026,"HCEP03730560","2024-04-13 12:45:00","9.4138","3.19416","24.369","6.039","7.6","0.301","3.424","0.01","0.15","29.2488","4.64081","63.67","0","SATNPRO1963","32.03","0.44862","5"],
    [19027,"HCEP03730560","2024-04-13 13:00:00","9.4145","3.1942","24.249","6.034","7.6","0.344","3.474","0.02","0.15","29.2487","4.64077","63.62","0","SATNPRO1963","31.76","0.44486","5"],
    [19028,"HCEP03730560","2024-04-13 13:15:00","9.4148","3.19423","24.163","6.03","7.6","0.312","4.2","0.02","0.33","29.2487","4.64077","63.57","0","SATNPRO1963","31.664","0.44352","5"],
    [19029,"HCEP03730560","2024-04-13 13:30:00","9.4124","3.19386","24.115","6.062","7.6","0.342","3.072","0.02","0.09","29.247","4.64056","63.9","0","SATNPRO1963","32.032","0.44864","5"],
    [19030,"HCEP03730560","2024-04-13 13:45:00","9.4134","3.19396","24.048","6.056","7.6","0.299","3.315","0.02","0.37","29.2472","4.64057","63.84","0","SATNPRO1963","31.926","0.44716","5"],
    [19031,"HCEP03730560","2024-04-13 14:00:00","9.4111","3.19347","24.035","6.089","7.6","0.329","2.643","0.02","0.14","29.2442","4.64018","64.19","0","SATNPRO1963","31.976","0.44788","5"],
    [19032,"HCEP03730560","2024-04-13 14:15:00","9.4113","3.1935","24.058","6.09","7.6","0.305","2.78","0.02","0.1","29.2442","4.64019","64.2","0","SATNPRO1963","31.852","0.44616","5"],
    [19033,"HCEP03730560","2024-04-13 14:30:00","9.4135","3.19384","24.099","6.056","7.6","0.333","2.988","0.01","0.08","29.2459","4.64038","63.84","0","SATNPRO1963","31.808","0.44548","5"],
    [19034,"HCEP03730560","2024-04-13 14:45:00","9.4147","3.19397","24.154","6.029","7.6","0.298","3.024","0.01","0.1","29.2462","4.64041","63.56","0","SATNPRO1963","31.726","0.44434","5"],
    [19035,"HCEP03730560","2024-04-13 15:00:00","9.4159","3.19434","24.206","6.003","7.6","0.341","3.279","0.01","0.1","29.249","4.6408","63.29","0","SATNPRO1963","31.57","0.44216","5"],
    [19036,"HCEP03730560","2024-04-13 15:15:00","9.415","3.19428","24.304","6.016","7.6","0.291","2.893","0.01","0.1","29.2491","4.64083","63.43","0","SATNPRO1963","31.79","0.44526","5"],
    [19037,"HCEP03730560","2024-04-13 15:30:00","9.415","3.19413","24.479","6.021","7.6","0.34","2.862","0.03","0.07","29.2474","4.6406","63.48","0","SATNPRO1963","31.756","0.44482","5"],
    [19038,"HCEP03730560","2024-04-13 15:45:00","9.4145","3.19394","24.562","6.031","7.6","0.293","2.866","0.02","0.11","29.2459","4.64039","63.59","0","SATNPRO1963","31.636","0.44314","5"],
    [19039,"HCEP03730560","2024-04-13 16:00:00","9.4153","3.19476","24.712","6.034","7.6","0.359","3.776","0.02","0.4","29.2536","4.64149","63.62","0","SATNPRO1963","31.83","0.44582","5"],
    [19040,"HCEP03730560","2024-04-13 16:15:00","9.4189","3.19538","24.843","5.959","7.6","0.316","3.887","0.02","0.18","29.2568","4.6419","62.83","0","SATNPRO1963","31.706","0.44406","5"],
    [19041,"HCEP03730560","2024-04-13 16:30:00","9.4168","3.19497","24.952","5.987","7.6","0.341","3.185","0.02","0.15","29.2543","4.64158","63.13","0","SATNPRO1963","31.778","0.4451","5"],
    [19042,"HCEP03730560","2024-04-13 16:45:00","9.4163","3.19491","25.101","6","7.6","0.315","2.985","0.04","0.15","29.254","4.64156","63.26","0","SATNPRO1963","31.786","0.44522","5"],
    [19043,"HCEP03730560","2024-04-13 17:00:00","9.4188","3.19531","25.283","5.98","7.6","0.356","3.336","0.04","0.12","29.256","4.6418","63.06","0","SATNPRO1963","31.916","0.44706","5"],
    [19044,"HCEP03730560","2024-04-13 17:15:00","9.4177","3.19484","25.414","5.993","7.6","0.306","3.202","0.03","0.18","29.2521","4.64128","63.18","0","SATNPRO1963","31.812","0.44556","5"],
    [19045,"HCEP03730560","2024-04-13 17:30:00","9.4206","3.19575","25.674","5.945","7.6","0.355","3.416","0.02","0.17","29.2588","4.6422","62.69","0","SATNPRO1963","31.733999999999998","0.4445","5"],
    [19046,"HCEP03730560","2024-04-13 17:45:00","9.4157","3.19489","25.893","6.009","7.6","0.283","2.56","0.02","0.1","29.254","4.64161","63.35","0","SATNPRO1963","31.977999999999998","0.44788","5"],
    [19047,"HCEP03730560","2024-04-13 18:00:00","9.4171","3.19422","26.101","6.028","7.6","0.334","2.611","0.02","0.11","29.246","4.64046","63.56","0","SATNPRO1963","31.794","0.4453","5"],
    [19048,"HCEP03730560","2024-04-13 18:15:00","9.4195","3.19465","26.317","6.001","7.6","0.306","2.797","0.02","0.24","29.2484","4.64076","63.27","0","SATNPRO1963","31.756","0.44478","5"],
    [19049,"HCEP03730560","2024-04-13 18:30:00","9.4237","3.19275","26.51","5.991","7.6","0.354","2.759","0.03","0.12","29.2256","4.63743","63.17","0","SATNPRO1963","31.554","0.44194","5"],
    [19050,"HCEP03730560","2024-04-13 18:45:00","9.4244","3.1953","26.704","5.926","7.6","0.314","3.416","0.03","0.21","29.2508","4.64104","62.49","0","SATNPRO1963","31.636","0.44312","5"],
    [19051,"HCEP03730560","2024-04-13 19:00:00","9.4257","3.19501","26.874","5.89","7.59","0.365","3.729","0.02","0.23","29.2467","4.64044","62.12","0","SATNPRO1963","31.664","0.4435","5"],
    [19052,"HCEP03730560","2024-04-13 19:15:00","9.4262","3.1941","27.029","5.896","7.59","0.329","3.428","0.03","0.17","29.237","4.63905","62.18","0","SATNPRO1963","31.502","0.44126","5"],
    [19053,"HCEP03730560","2024-04-13 19:30:00","9.4264","3.194","27.189","5.902","7.59","0.362","3.42","0.03","0.2","29.2358","4.63889","62.24","0","SATNPRO1963","31.58","0.4423","5"],
    [19054,"HCEP03730560","2024-04-13 19:45:00","9.4265","3.19439","27.323","5.893","7.59","0.323","3.677","0.04","0.24","29.2396","4.63943","62.15","0","SATNPRO1963","31.496","0.4411","5"],
    [19055,"HCEP03730560","2024-04-13 20:00:00","9.4272","3.19446","27.434","5.879","7.59","0.381","4.797","0.03","0.33","29.2397","4.63944","62","0","SATNPRO1963","31.628","0.44302","5"],
    [19056,"HCEP03730560","2024-04-13 20:15:00","9.4313","3.19375","27.519","5.866","7.59","0.336","3.255","0.07","0.14","29.2291","4.63786","61.86","0","SATNPRO1963","31.546","0.44186","5"],
    [19057,"HCEP03730560","2024-04-13 20:30:00","9.4325","3.19378","27.6","5.848","7.59","0.352","3.081","0.02","0.17","29.2284","4.63773","61.67","0","SATNPRO1963","31.656","0.4434","5"],
    [19058,"HCEP03730560","2024-04-13 20:45:00","9.43","3.19401","27.679","5.859","7.59","0.313","3.004","0.03","0.12","29.2328","4.63842","61.78","0","SATNPRO1963","31.438","0.44036","5"],
    [19059,"HCEP03730560","2024-04-13 21:00:00","9.4319","3.1935","27.708","5.867","7.59","0.351","3.2","0.02","0.2","29.226","4.63742","61.87","0","SATNPRO1963","31.416","0.4401","5"],
    [19060,"HCEP03730560","2024-04-13 21:15:00","9.4314","3.19388","27.723","5.852","7.59","0.323","3.011","0.05","0.11","29.2303","4.63804","61.71","0","SATNPRO1963","31.54","0.4418","5"],
    [19061,"HCEP03730560","2024-04-13 21:30:00","9.4289","3.19492","27.741","5.826","7.59","0.357","3.793","0.02","0.19","29.2428","4.63988","61.44","0","SATNPRO1963","31.528000000000002","0.44158","5"],
    [19062,"HCEP03730560","2024-04-13 21:45:00","9.431","3.19467","27.762","5.793","7.59","0.343","4.749","0.04","0.26","29.2386","4.63923","61.09","0","SATNPRO1963","31.388","0.43962","5"],
    [19063,"HCEP03730560","2024-04-13 22:00:00","9.4311","3.19426","27.778","5.804","7.58","0.381","4.682","0.04","0.38","29.2343","4.63862","61.21","0","SATNPRO1963","31.29","0.43826","5"],
    [19064,"HCEP03730560","2024-04-13 22:15:00","9.431","3.19428","27.776","5.795","7.58","0.322","4.497","0.02","0.54","29.2346","4.63867","61.11","0","SATNPRO1963","31.52","0.44148","5"],
    [19065,"HCEP03730560","2024-04-13 22:30:00","9.4324","3.19345","27.76","5.832","7.59","0.36","3.47","0.03","0.32","29.2251","4.63728","61.5","0","SATNPRO1963","31.506","0.44132","5"],
    [19066,"HCEP03730560","2024-04-13 22:45:00","9.4315","3.19318","27.758","5.876","7.59","0.315","3.098","0.03","0.19","29.2231","4.63701","61.96","0","SATNPRO1963","31.558","0.44198","5"],
    [19067,"HCEP03730560","2024-04-13 23:00:00","9.4307","3.19289","27.734","5.893","7.59","0.331","2.709","0.02","0.09","29.2208","4.63669","62.14","0","SATNPRO1963","31.554","0.44198","5"],
    [19068,"HCEP03730560","2024-04-13 23:15:00","9.4301","3.19357","27.691","5.876","7.59","0.304","3.061","0.02","0.22","29.2281","4.63775","61.97","0","SATNPRO1963","31.428","0.44022","5"],
    [19069,"HCEP03730560","2024-04-13 23:30:00","9.4304","3.19317","27.638","5.895","7.59","0.378","2.487","0.11","0.1","29.2238","4.63713","62.16","0","SATNPRO1963","31.68","0.44374","5"],
    [19070,"HCEP03730560","2024-04-13 23:45:00","9.4321","3.19305","27.563","5.894","7.59","0.314","2.628","0.03","0.14","29.2214","4.63674","62.15","0","SATNPRO1963","31.66","0.44346","5"],
    [19071,"HCEP03730560","2024-04-14 00:00:00","9.4327","3.19298","27.515","5.889","7.59","0.339","2.407","0.02","0.1","29.2202","4.63655","62.1","0","SATNPRO1963","31.52","0.44148","5"],
    [19072,"HCEP03730560","2024-04-14 00:15:00","9.4327","3.19358","27.44","5.858","7.59","0.318","3.187","0.04","0.28","29.2262","4.63742","61.78","0","SATNPRO1963","31.868","0.44636","5"],
    [19073,"HCEP03730560","2024-04-14 00:30:00","9.432","3.19441","27.368","5.8","7.59","0.363","3.131","0.02","0.14","29.2353","4.63873","61.17","0","SATNPRO1963","31.51","0.44132","5"],
    [19074,"HCEP03730560","2024-04-14 00:45:00","9.4313","3.19486","27.303","5.763","7.58","0.325","3.87","0.02","0.3","29.2404","4.63947","60.78","0","SATNPRO1963","31.304","0.43846","5"],
    [19075,"HCEP03730560","2024-04-14 01:00:00","9.4308","3.19411","27.238","5.809","7.58","0.33","2.805","0.02","0.09","29.2333","4.63846","61.26","0","SATNPRO1963","31.476","0.44084","5"],
    [19076,"HCEP03730560","2024-04-14 01:15:00","9.4309","3.19396","27.174","5.827","7.58","0.296","3.139","0.01","0.14","29.2317","4.63822","61.45","0","SATNPRO1963","31.36","0.43924","5"],
    [19077,"HCEP03730560","2024-04-14 01:30:00","9.4322","3.19353","27.106","5.837","7.58","0.349","2.944","0.02","0.11","29.2263","4.63742","61.55","0","SATNPRO1963","31.452","0.44056","5"],
    [19078,"HCEP03730560","2024-04-14 01:45:00","9.4333","3.19281","27.032","5.856","7.59","0.288","2.438","0.02","0.1","29.2182","4.63623","61.76","0","SATNPRO1963","31.484","0.44098","5"],
    [19079,"HCEP03730560","2024-04-14 02:00:00","9.4341","3.1932","26.959","5.842","7.59","0.342","2.761","0.03","0.16","29.2214","4.63668","61.61","0","SATNPRO1963","31.462","0.44066","5"],
    [19080,"HCEP03730560","2024-04-14 02:15:00","9.4343","3.19609","26.905","5.664","7.58","0.4","5.116","0.07","0.18","29.2506","4.64085","59.74","0","SATNPRO1963","31.236","0.43754","5"],
    [19081,"HCEP03730560","2024-04-14 02:30:00","9.4349","3.19622","26.876","5.604","7.57","0.416","5.986","0.06","0.36","29.2515","4.64096","59.11","0","SATNPRO1963","31.208","0.43712","5"],
    [19082,"HCEP03730560","2024-04-14 02:45:00","9.435","3.19635","26.854","5.605","7.57","0.355","5.781","0.03","0.52","29.2527","4.64113","59.12","0","SATNPRO1963","31.072","0.43524","5"],
    [19083,"HCEP03730560","2024-04-14 03:00:00","9.435","3.19624","26.814","5.634","7.57","0.39","5.301","0.03","0.34","29.2515","4.64097","59.43","0","SATNPRO1963","31.296","0.43834","5"],
    [19084,"HCEP03730560","2024-04-14 03:15:00","9.4359","3.19698","26.8","5.604","7.57","0.361","5.77","0.02","0.49","29.2584","4.64193","59.11","0","SATNPRO1963","31.37","0.43938","5"],
    [19085,"HCEP03730560","2024-04-14 03:30:00","9.4344","3.19669","26.785","5.677","7.57","0.392","4.99","0.06","0.38","29.2567","4.64172","59.89","0","SATNPRO1963","31.384","0.43956","5"],
    [19086,"HCEP03730560","2024-04-14 03:45:00","9.4353","3.19699","26.789","5.679","7.57","0.339","5.623","0.01","1.86","29.259","4.64203","59.91","0","SATNPRO1963","31.436","0.44032","5"],
    [19087,"HCEP03730560","2024-04-14 04:00:00","9.4358","3.19303","26.81","5.76","7.57","0.365","3.614","0.02","0.19","29.2184","4.6362","60.74","0","SATNPRO1963","31.37","0.4394","5"],
    [19088,"HCEP03730560","2024-04-14 04:15:00","9.4358","3.19557","26.848","5.706","7.57","0.329","4.248","0.02","0.23","29.2441","4.6399","60.18","0","SATNPRO1963","31.356","0.43922","5"],
    [19089,"HCEP03730560","2024-04-14 04:30:00","9.4353","3.19691","26.887","5.663","7.57","0.386","4.511","0.04","0.28","29.258","4.6419","59.73","0","SATNPRO1963","31.278","0.4381","5"],
    [19090,"HCEP03730560","2024-04-14 04:45:00","9.4361","3.19572","26.917","5.644","7.57","0.342","4.284","0.03","0.24","29.2454","4.64007","59.53","0","SATNPRO1963","31.328","0.43884","5"],
    [19091,"HCEP03730560","2024-04-14 05:00:00","9.4365","3.19474","26.947","5.635","7.57","0.396","5.281","0.02","0.34","29.2352","4.63861","59.43","0","SATNPRO1963","30.942","0.43344","5"],
    [19092,"HCEP03730560","2024-04-14 05:15:00","9.4368","3.19467","26.979","5.598","7.57","0.38","5.433","0.03","0.35","29.2341","4.63845","59.05","0","SATNPRO1963","31.034","0.4347","5"],
    [19093,"HCEP03730560","2024-04-14 05:30:00","9.4368","3.19424","27.019","5.576","7.56","0.425","5.264","0.04","0.31","29.2298","4.63783","58.81","0","SATNPRO1963","30.744","0.43062","5"],
    [19094,"HCEP03730560","2024-04-14 05:45:00","9.4348","3.19364","27.05","5.585","7.56","0.376","5.532","0.03","0.4","29.2253","4.63723","58.9","0","SATNPRO1963","31.118","0.43584","5"],
    [19095,"HCEP03730560","2024-04-14 06:00:00","9.4346","3.19274","27.083","5.59","7.56","0.412","4.553","0.04","0.17","29.2164","4.63595","58.95","0","SATNPRO1963","30.748","0.43066","5"],
    [19096,"HCEP03730560","2024-04-14 06:15:00","9.4363","3.19219","27.116","5.563","7.56","0.369","5.063","0.03","0.44","29.2094","4.63492","58.66","0","SATNPRO1963","30.8","0.43144","5"],
    [19097,"HCEP03730560","2024-04-14 06:30:00","9.4383","3.19148","27.139","5.565","7.56","0.422","4.743","0.06","0.39","29.2005","4.63361","58.69","0","SATNPRO1963","30.54","0.42772","5"],
    [19098,"HCEP03730560","2024-04-14 06:45:00","9.4405","3.1911","27.176","5.558","7.56","0.362","4.668","0.04","0.33","29.195","4.63278","58.61","0","SATNPRO1963","30.728","0.43038","5"],
    [19099,"HCEP03730560","2024-04-14 07:00:00","9.4421","3.19073","27.206","5.546","7.56","0.442","5.053","0.07","0.41","29.1899","4.63202","58.49","0","SATNPRO1963","30.672","0.42962","5"],
    [19100,"HCEP03730560","2024-04-14 07:15:00","9.4433","3.1903","27.225","5.534","7.56","0.374","4.982","0.03","0.25","29.1845","4.63123","58.36","0","SATNPRO1963","30.733999999999998","0.43048","5"],
    [19101,"HCEP03730560","2024-04-14 07:30:00","9.4433","3.18989","27.237","5.528","7.56","0.44","5.21","0.06","0.31","29.1804","4.63064","58.29","0","SATNPRO1963","30.576","0.4283","5"],
    [19102,"HCEP03730560","2024-04-14 07:45:00","9.4424","3.18979","27.225","5.539","7.56","0.392","5.541","0.05","0.32","29.1801","4.63062","58.41","0","SATNPRO1963","30.704","0.43004","5"],
    [19103,"HCEP03730560","2024-04-14 08:00:00","9.4408","3.19009","27.229","5.566","7.56","0.408","5.173","0.04","0.3","29.1844","4.63126","58.69","0","SATNPRO1963","30.785999999999998","0.43124","5"],
    [19104,"HCEP03730560","2024-04-14 08:15:00","9.44","3.19018","27.21","5.579","7.56","0.392","5.159","0.05","0.31","29.1861","4.63152","58.83","0","SATNPRO1963","30.722","0.4303","5"],
    [19105,"HCEP03730560","2024-04-14 08:30:00","9.4397","3.19025","27.182","5.584","7.56","0.42","5.628","0.03","0.26","29.1869","4.63164","58.88","0","SATNPRO1963","30.786","0.4312","5"],
    [19106,"HCEP03730560","2024-04-14 08:45:00","9.4384","3.19024","27.15","5.596","7.56","0.375","5.176","0.03","0.24","29.1879","4.63181","59.01","0","SATNPRO1963","30.918","0.43308","5"],
    [19107,"HCEP03730560","2024-04-14 09:00:00","9.4371","3.19023","27.109","5.637","7.56","0.411","5.147","0.03","0.28","29.189","4.63197","59.43","0","SATNPRO1963","31.022","0.43454","5"],
    [19108,"HCEP03730560","2024-04-14 09:15:00","9.4363","3.19035","27.052","5.67","7.57","0.368","4.878","0.03","0.25","29.1908","4.63224","59.78","0","SATNPRO1963","31.14","0.43618","5"],
    [19109,"HCEP03730560","2024-04-14 09:30:00","9.4365","3.19068","26.989","5.69","7.57","0.405","5.078","0.04","0.37","29.194","4.63271","60","0","SATNPRO1963","31.195999999999998","0.43696","5"],
    [19110,"HCEP03730560","2024-04-14 09:45:00","9.4372","3.19109","26.903","5.709","7.57","0.358","4.671","0.05","0.24","29.1976","4.6332","60.2","0","SATNPRO1963","31.148","0.4363","5"],
    [19111,"HCEP03730560","2024-04-14 10:00:00","9.438","3.19147","26.795","5.718","7.57","0.384","3.812","0.04","0.26","29.2009","4.63365","60.3","0","SATNPRO1963","31.354","0.43916","5"],
    [19112,"HCEP03730560","2024-04-14 10:15:00","9.4385","3.19168","26.681","5.713","7.57","0.354","4.728","0.04","0.24","29.2026","4.63387","60.25","0","SATNPRO1963","31.358","0.4392","5"],
    [19113,"HCEP03730560","2024-04-14 10:30:00","9.4386","3.19188","26.562","5.721","7.57","0.375","3.53","0.02","0.29","29.2046","4.63416","60.34","0","SATNPRO1963","31.358","0.43924","5"],
    [19114,"HCEP03730560","2024-04-14 10:45:00","9.4385","3.192","26.436","5.719","7.57","0.352","3.505","0.09","0.3","29.206","4.63435","60.31","0","SATNPRO1963","31.477999999999998","0.44088","5"],
    [19115,"HCEP03730560","2024-04-14 11:00:00","9.4388","3.19217","26.283","5.715","7.57","0.372","3.395","0.03","0.33","29.2075","4.63455","60.27","0","SATNPRO1963","31.68","0.44376","5"],
    [19116,"HCEP03730560","2024-04-14 11:15:00","9.4387","3.19223","26.126","5.716","7.57","0.313","3.35","0.02","0.15","29.2083","4.63466","60.28","0","SATNPRO1963","31.358","0.4392","5"],
    [19117,"HCEP03730560","2024-04-14 11:30:00","9.4382","3.19241","25.958","5.725","7.57","0.373","3.472","0.03","0.18","29.2105","4.63498","60.38","0","SATNPRO1963","31.662","0.4435","5"],
    [19118,"HCEP03730560","2024-04-14 11:45:00","9.4375","3.19248","25.77","5.746","7.57","0.331","2.928","0.06","0.23","29.2119","4.63518","60.6","0","SATNPRO1963","31.536","0.44168","5"],
    [19119,"HCEP03730560","2024-04-14 12:00:00","9.4381","3.19242","25.571","5.722","7.57","0.38","3.722","0.02","0.2","29.2109","4.63501","60.35","0","SATNPRO1963","31.534","0.44174","5"],
    [19120,"HCEP03730560","2024-04-14 12:15:00","9.4375","3.19252","25.416","5.74","7.57","0.315","3.057","0.03","0.21","29.2125","4.63524","60.53","0","SATNPRO1963","31.336","0.4389","5"],
    [19121,"HCEP03730560","2024-04-14 12:30:00","9.4376","3.19258","25.246","5.748","7.57","0.351","2.879","0.03","0.13","29.213","4.63531","60.62","0","SATNPRO1963","31.634","0.44308","5"],
    [19122,"HCEP03730560","2024-04-14 12:45:00","9.4381","3.19251","25.086","5.734","7.57","0.304","3.074","0.02","0.23","29.2121","4.63515","60.47","0","SATNPRO1963","31.422","0.44008","5"],
    [19123,"HCEP03730560","2024-04-14 13:00:00","9.4384","3.19248","24.924","5.738","7.57","0.344","2.886","0.02","0.18","29.2116","4.63507","60.51","0","SATNPRO1963","31.578","0.44236","5"],
    [19124,"HCEP03730560","2024-04-14 13:15:00","9.438","3.19244","24.783","5.751","7.57","0.302","2.938","0.02","0.17","29.2114","4.63505","60.65","0","SATNPRO1963","31.548","0.44186","5"],
    [19125,"HCEP03730560","2024-04-14 13:30:00","9.4382","3.19231","24.647","5.75","7.57","0.343","2.913","0.02","0.13","29.21","4.63483","60.64","0","SATNPRO1963","31.368","0.4393","5"],
    [19126,"HCEP03730560","2024-04-14 13:45:00","9.4385","3.19217","24.563","5.75","7.57","0.3","2.735","0.02","0.13","29.2084","4.63459","60.64","0","SATNPRO1963","31.59","0.4425","5"],
    [19127,"HCEP03730560","2024-04-14 14:00:00","9.439","3.19184","24.471","5.736","7.57","0.355","3.148","0.02","0.12","29.2047","4.63405","60.49","0","SATNPRO1963","31.464","0.44068","5"],
    [19128,"HCEP03730560","2024-04-14 14:15:00","9.4385","3.19113","24.386","5.724","7.57","0.317","3.193","0.02","0.14","29.1979","4.63308","60.36","0","SATNPRO1963","31.366","0.43932","5"],
    [19129,"HCEP03730560","2024-04-14 14:30:00","9.4383","3.19091","24.326","5.74","7.57","0.354","3.067","0.02","0.12","29.1959","4.63279","60.52","0","SATNPRO1963","31.32","0.4387","5"],
    [19130,"HCEP03730560","2024-04-14 14:45:00","9.4374","3.1903","24.321","5.779","7.57","0.308","2.625","0.04","0.1","29.1905","4.63204","60.94","0","SATNPRO1963","31.368","0.43938","5"],
    [19131,"HCEP03730560","2024-04-14 15:00:00","9.4374","3.19012","24.347","5.789","7.57","0.344","2.465","0.03","0.06","29.1887","4.63177","61.04","0","SATNPRO1963","31.384","0.4396","5"],
    [19132,"HCEP03730560","2024-04-14 15:15:00","9.4377","3.18994","24.325","5.8","7.57","0.307","2.303","0.02","0.07","29.1866","4.63146","61.16","0","SATNPRO1963","31.477999999999998","0.44094","5"],
    [19133,"HCEP03730560","2024-04-14 15:30:00","9.4378","3.19009","24.364","5.789","7.57","0.355","2.647","0.02","0.11","29.1881","4.63168","61.04","0","SATNPRO1963","31.436","0.44032","5"],
    [19134,"HCEP03730560","2024-04-14 15:45:00","9.4377","3.19046","24.426","5.756","7.57","0.313","2.768","0.02","0.13","29.1918","4.63221","60.69","0","SATNPRO1963","31.221999999999998","0.4373","5"],
    [19135,"HCEP03730560","2024-04-14 16:00:00","9.4367","3.19009","24.505","5.767","7.57","0.351","2.772","0.02","0.15","29.1888","4.63181","60.8","0","SATNPRO1963","31.3","0.43838","5"],
    [19136,"HCEP03730560","2024-04-14 16:15:00","9.4363","3.19047","24.562","5.747","7.57","0.313","2.829","0.02","0.1","29.193","4.63242","60.59","0","SATNPRO1963","31.326","0.43878","5"],
    [19137,"HCEP03730560","2024-04-14 16:30:00","9.441","3.19233","24.615","5.644","7.57","0.396","4.9","0.02","0.28","29.208","4.6345","59.52","0","SATNPRO1963","31.176000000000002","0.43666","5"],
    [19138,"HCEP03730560","2024-04-14 16:45:00","9.4407","3.19228","24.707","5.625","7.56","0.356","4.388","0.04","0.14","29.2077","4.63446","59.32","0","SATNPRO1963","31.162","0.43648","5"],
    [19139,"HCEP03730560","2024-04-14 17:00:00","9.4403","3.19235","24.886","5.636","7.56","0.374","4.118","0.02","0.1","29.2087","4.63462","59.43","0","SATNPRO1963","31.122","0.43592","5"],
    [19140,"HCEP03730560","2024-04-14 17:15:00","9.4389","3.19085","25.045","5.669","7.57","0.329","3.85","0.02","0.17","29.1945","4.63262","59.77","0","SATNPRO1963","31.118","0.43586","5"],
    [19141,"HCEP03730560","2024-04-14 17:30:00","9.4406","3.19145","25.205","5.664","7.57","0.369","3.881","0.02","0.11","29.1992","4.63327","59.73","0","SATNPRO1963","31.148","0.43628","5"],
    [19142,"HCEP03730560","2024-04-14 17:45:00","9.4394","3.19031","25.314","5.681","7.57","0.309","2.977","0.01","0.13","29.1886","4.63177","59.91","0","SATNPRO1963","31.118","0.43586","5"],
    [19143,"HCEP03730560","2024-04-14 18:00:00","9.4395","3.18993","25.531","5.727","7.57","0.35","2.665","0.02","0.09","29.1846","4.63122","60.38","0","SATNPRO1963","31.244","0.43764","5"],
    [19144,"HCEP03730560","2024-04-14 18:15:00","9.4404","3.18967","25.636","5.721","7.57","0.305","2.642","0.01","0.11","29.1812","4.63072","60.32","0","SATNPRO1963","31.018","0.43448","5"],
    [19145,"HCEP03730560","2024-04-14 18:30:00","9.4428","3.18916","25.83","5.716","7.57","0.345","2.384","0.02","0.07","29.1739","4.62964","60.28","0","SATNPRO1963","31.05","0.43488","5"],
    [19146,"HCEP03730560","2024-04-14 18:45:00","9.4437","3.18918","26.053","5.697","7.57","0.303","2.769","0.02","0.31","29.1733","4.62955","60.08","0","SATNPRO1963","31.184","0.43678","5"],
    [19147,"HCEP03730560","2024-04-14 19:00:00","9.4465","3.18872","26.205","5.704","7.57","0.344","2.482","0.01","0.05","29.1664","4.62852","60.15","0","SATNPRO1963","30.939999999999998","0.43334","5"],
    [19148,"HCEP03730560","2024-04-14 19:15:00","9.4489","3.18824","26.355","5.66","7.57","0.307","2.456","0.02","0.05","29.1595","4.62749","59.69","0","SATNPRO1963","30.976","0.4339","5"],
    [19149,"HCEP03730560","2024-04-14 19:30:00","9.4516","3.18827","26.607","5.607","7.57","0.347","2.673","0.01","0.07","29.1575","4.62718","59.13","0","SATNPRO1963","30.648","0.42926","5"],
    [19150,"HCEP03730560","2024-04-14 19:45:00","9.4452","3.18939","26.717","5.628","7.57","0.309","2.823","0.02","0.09","29.174","4.62966","59.35","0","SATNPRO1963","31.004","0.43428","5"],
    [19151,"HCEP03730560","2024-04-14 20:00:00","9.4421","3.19045","26.941","5.626","7.57","0.356","3.104","0.01","0.12","29.1872","4.63162","59.33","0","SATNPRO1963","30.936","0.4333","5"],
    [19152,"HCEP03730560","2024-04-14 20:15:00","9.4426","3.19015","27.138","5.637","7.57","0.319","2.92","0.02","0.14","29.1836","4.63111","59.44","0","SATNPRO1963","31.022000000000002","0.4345","5"],
    [19153,"HCEP03730560","2024-04-14 20:30:00","9.4462","3.18895","27.173","5.685","7.57","0.332","2.299","0.01","0.09","29.1686","4.62889","59.94","0","SATNPRO1963","31.316","0.43862","5"],
    [19154,"HCEP03730560","2024-04-14 20:45:00","9.4524","3.18803","27.321","5.629","7.57","0.319","2.606","0.02","0.05","29.1541","4.62671","59.36","0","SATNPRO1963","30.598","0.42864","5"],
    [19155,"HCEP03730560","2024-04-14 21:00:00","9.4524","3.18795","27.407","5.6","7.57","0.363","2.635","0.02","0.06","29.1533","4.6266","59.05","0","SATNPRO1963","30.5","0.42726","5"],
    [19156,"HCEP03730560","2024-04-14 21:15:00","9.4511","3.18775","27.522","5.713","7.57","0.302","1.958","0.02","0.06","29.1523","4.62649","60.24","0","SATNPRO1963","30.96","0.43368","5"],
    [19157,"HCEP03730560","2024-04-14 21:30:00","9.4494","3.1879","27.62","5.782","7.58","0.327","1.912","0.02","0.05","29.1551","4.62693","60.96","0","SATNPRO1963","31.154","0.43636","5"],
    [19158,"HCEP03730560","2024-04-14 21:45:00","9.4423","3.18894","27.736","5.759","7.58","0.298","2.326","0.02","0.05","29.1714","4.6294","60.72","0","SATNPRO1963","31.214","0.43724","5"],
    [19159,"HCEP03730560","2024-04-14 22:00:00","9.441","3.19031","27.746","5.681","7.57","0.358","3.137","0.02","0.13","29.1864","4.63157","59.9","0","SATNPRO1963","30.812","0.43158","5"],
    [19160,"HCEP03730560","2024-04-14 22:15:00","9.4493","3.19343","27.892","5.326","7.55","0.413","7.911","0.02","0.15","29.211","4.63497","56.18","0","SATNPRO1963","30.148","0.42222","5"],
    [19161,"HCEP03730560","2024-04-14 22:30:00","9.4466","3.19365","27.826","5.332","7.55","0.404","5.433","0.02","0.16","29.2155","4.63565","56.24","0","SATNPRO1963","30.704","0.43004","5"],
    [19162,"HCEP03730560","2024-04-14 22:45:00","9.4474","3.19416","27.849","5.342","7.55","0.363","5.633","0.01","0.15","29.22","4.63629","56.35","0","SATNPRO1963","30.672","0.42962","5"],
    [19163,"HCEP03730560","2024-04-14 23:00:00","9.4449","3.19371","27.901","5.412","7.55","0.39","4.441","0.03","0.08","29.2174","4.63596","57.08","0","SATNPRO1963","30.66","0.42948","5"],
    [19164,"HCEP03730560","2024-04-14 23:15:00","9.4458","3.19407","27.914","5.399","7.55","0.387","6.011","0.06","0.23","29.2204","4.63637","56.95","0","SATNPRO1963","30.674","0.42962","5"],
    [19165,"HCEP03730560","2024-04-14 23:30:00","9.4451","3.19371","27.936","5.41","7.55","0.391","4.908","0.01","0.23","29.2173","4.63595","57.06","0","SATNPRO1963","30.572","0.42822","5"],
    [19166,"HCEP03730560","2024-04-14 23:45:00","9.4476","3.19346","27.879","5.338","7.54","0.36","5.698","0.01","0.12","29.2127","4.63523","56.31","0","SATNPRO1963","30.426","0.42616","5"],
    [19167,"HCEP03730560","2024-04-15 00:00:00","9.4469","3.19218","27.846","5.361","7.54","0.402","5.676","0.01","0.1","29.2004","4.63348","56.55","0","SATNPRO1963","30.426","0.42616","5"],
    [19168,"HCEP03730560","2024-04-15 00:15:00","9.4473","3.19233","27.81","5.337","7.54","0.367","5.577","0.01","0.16","29.2015","4.63364","56.29","0","SATNPRO1963","30.414","0.42602","5"],
    [19169,"HCEP03730560","2024-04-15 00:30:00","9.4479","3.19183","27.797","5.343","7.54","0.41","5.654","0.02","0.13","29.1961","4.63284","56.35","0","SATNPRO1963","30.554","0.428","5"],
    [19170,"HCEP03730560","2024-04-15 00:45:00","9.4486","3.19209","27.739","5.317","7.54","0.375","6.035","0.02","0.14","29.198","4.63311","56.09","0","SATNPRO1963","30.346","0.42504","5"],
    [19171,"HCEP03730560","2024-04-15 01:00:00","9.4479","3.19224","27.689","5.314","7.54","0.404","5.399","0.02","0.09","29.2002","4.63343","56.04","0","SATNPRO1963","30.364","0.42532","5"],
    [19172,"HCEP03730560","2024-04-15 01:15:00","9.4481","3.19093","27.659","5.323","7.54","0.392","6.02","0.02","0.18","29.1868","4.6315","56.13","0","SATNPRO1963","30.246","0.42366","5"],
    [19173,"HCEP03730560","2024-04-15 01:30:00","9.4475","3.1904","27.613","5.359","7.54","0.419","5.162","0.02","0.08","29.182","4.63082","56.52","0","SATNPRO1963","30.236","0.42354","5"],
    [19174,"HCEP03730560","2024-04-15 01:45:00","9.4435","3.18944","27.48","5.478","7.55","0.37","4.806","0.02","0.18","29.1755","4.62995","57.76","0","SATNPRO1963","30.58","0.42832","5"],
    [19175,"HCEP03730560","2024-04-15 02:00:00","9.4371","3.18861","27.394","5.619","7.56","0.399","4.123","0.02","0.1","29.1724","4.62962","59.24","0","SATNPRO1963","30.74","0.43056","5"],
    [19176,"HCEP03730560","2024-04-15 02:15:00","9.4313","3.18887","27.38","5.757","7.57","0.342","3.705","0.01","0.11","29.1798","4.63077","60.69","0","SATNPRO1963","31.148","0.43626","5"],
    [19177,"HCEP03730560","2024-04-15 02:30:00","9.4319","3.18953","27.311","5.801","7.57","0.374","3.407","0.02","0.14","29.1859","4.63164","61.16","0","SATNPRO1963","31.27","0.43796","5"],
    [19178,"HCEP03730560","2024-04-15 02:45:00","9.4317","3.18973","27.238","5.803","7.58","0.33","3.477","0.01","0.07","29.1882","4.63197","61.18","0","SATNPRO1963","31.168","0.43656","5"],
    [19179,"HCEP03730560","2024-04-15 03:00:00","9.4316","3.18986","27.111","5.807","7.58","0.367","3.331","0.02","0.08","29.1896","4.63217","61.22","0","SATNPRO1963","31.142","0.4362","5"],
    [19180,"HCEP03730560","2024-04-15 03:15:00","9.4317","3.18997","27.091","5.815","7.58","0.321","3.088","0.02","0.07","29.1907","4.63232","61.31","0","SATNPRO1963","31.288","0.43822","5"],
    [19181,"HCEP03730560","2024-04-15 03:30:00","9.4316","3.18958","27.044","5.833","7.58","0.369","3.273","0.03","0.12","29.1869","4.63177","61.5","0","SATNPRO1963","31.304","0.43848","5"],
    [19182,"HCEP03730560","2024-04-15 03:45:00","9.43","3.18873","27.012","5.874","7.58","0.312","2.478","0.03","0.08","29.1795","4.63074","61.92","0","SATNPRO1963","31.288","0.43822","5"],
    [19183,"HCEP03730560","2024-04-15 04:00:00","9.4296","3.18843","26.991","5.877","7.58","0.372","3.084","0.02","0.18","29.1769","4.63037","61.95","0","SATNPRO1963","31.04","0.43478","5"],
    [19184,"HCEP03730560","2024-04-15 04:15:00","9.4307","3.18804","26.94","5.875","7.58","0.354","3.209","0.06","0.15","29.172","4.62964","61.93","0","SATNPRO1963","31.15","0.4363","5"],
    [19185,"HCEP03730560","2024-04-15 04:30:00","9.4309","3.1883","26.856","5.845","7.58","0.374","3.592","0.02","0.16","29.1746","4.63","61.61","0","SATNPRO1963","31.334","0.43886","5"],
    [19186,"HCEP03730560","2024-04-15 04:45:00","9.4323","3.18855","26.84","5.842","7.58","0.335","3.547","0.04","0.28","29.1759","4.63017","61.59","0","SATNPRO1963","31.144","0.43624","5"],
    [19187,"HCEP03730560","2024-04-15 05:00:00","9.4339","3.18795","26.87","5.833","7.58","0.362","2.807","0.02","0.07","29.1686","4.62909","61.49","0","SATNPRO1963","31.158","0.4364","5"],
    [19188,"HCEP03730560","2024-04-15 05:15:00","9.4339","3.18647","26.857","5.877","7.58","0.319","2.335","0.02","0.07","29.1536","4.62694","61.95","0","SATNPRO1963","31.157999999999998","0.43638","5"],
    [19189,"HCEP03730560","2024-04-15 05:30:00","9.4346","3.19039","26.788","5.775","7.58","0.393","4.678","0.02","0.2","29.1927","4.63254","60.89","0","SATNPRO1963","31.158","0.43644","5"],
    [19190,"HCEP03730560","2024-04-15 05:45:00","9.4342","3.19072","26.794","5.743","7.58","0.338","3.238","0.02","0.13","29.1963","4.63306","60.56","0","SATNPRO1963","31.352","0.43916","5"],
    [19191,"HCEP03730560","2024-04-15 06:00:00","9.4348","3.19111","26.844","5.713","7.57","0.399","4.124","0.02","0.2","29.1998","4.63355","60.24","0","SATNPRO1963","31.204","0.43708","5"],
    [19192,"HCEP03730560","2024-04-15 06:15:00","9.4353","3.19161","26.819","5.673","7.57","0.383","5.105","0.02","0.29","29.2044","4.6342","59.82","0","SATNPRO1963","31.198","0.43698","5"],
    [19193,"HCEP03730560","2024-04-15 06:30:00","9.4366","3.19203","26.87","5.6","7.57","0.418","5.133","0.02","0.25","29.2077","4.63465","59.05","0","SATNPRO1963","30.946","0.43344","5"],
    [19194,"HCEP03730560","2024-04-15 06:45:00","9.4394","3.19232","26.805","5.504","7.56","0.419","6.207","0.04","0.32","29.2084","4.6347","58.04","0","SATNPRO1963","30.828","0.43178","5"],
    [19195,"HCEP03730560","2024-04-15 07:00:00","9.4421","3.19379","26.894","5.424","7.55","0.442","5.3","0.04","0.31","29.2209","4.63645","57.21","0","SATNPRO1963","30.61","0.42878","5"],
    [19196,"HCEP03730560","2024-04-15 07:15:00","9.4417","3.19396","26.9","5.408","7.55","0.409","5.208","0.04","0.31","29.223","4.63676","57.04","0","SATNPRO1963","30.59","0.42846","5"],
    [19197,"HCEP03730560","2024-04-15 07:30:00","9.4427","3.19408","26.916","5.38","7.55","0.437","4.984","0.03","0.23","29.2234","4.6368","56.75","0","SATNPRO1963","30.606","0.42864","5"],
    [19198,"HCEP03730560","2024-04-15 07:45:00","9.4424","3.19387","26.943","5.388","7.55","0.383","4.579","0.02","0.2","29.2215","4.63654","56.83","0","SATNPRO1963","30.912","0.43292","5"],
    [19199,"HCEP03730560","2024-04-15 08:00:00","9.442","3.19378","26.96","5.399","7.55","0.428","4.611","0.03","0.2","29.2209","4.63646","56.95","0","SATNPRO1963","30.654","0.42936","5"],
    [19200,"HCEP03730560","2024-04-15 08:15:00","9.4423","3.19412","26.958","5.395","7.54","0.386","4.473","0.04","0.23","29.2242","4.63692","56.91","0","SATNPRO1963","30.736","0.4305","5"],
    [19201,"HCEP03730560","2024-04-15 08:30:00","9.4421","3.19414","27","5.398","7.54","0.441","4.484","0.05","0.18","29.2244","4.63696","56.93","0","SATNPRO1963","30.666","0.42952","5"],
    [19202,"HCEP03730560","2024-04-15 08:45:00","9.4413","3.19412","27.006","5.432","7.55","0.375","4.224","0.02","0.26","29.2249","4.63705","57.29","0","SATNPRO1963","30.948","0.43352","5"],
    [19203,"HCEP03730560","2024-04-15 09:00:00","9.4407","3.19408","27.004","5.456","7.55","0.405","3.837","0.03","0.15","29.2251","4.63708","57.55","0","SATNPRO1963","30.916","0.43304","5"],
    [19204,"HCEP03730560","2024-04-15 09:15:00","9.44","3.19385","26.997","5.507","7.55","0.38","4.043","0.04","0.18","29.2233","4.63684","58.09","0","SATNPRO1963","31.006","0.43432","5"],
    [19205,"HCEP03730560","2024-04-15 09:30:00","9.4399","3.19384","26.991","5.514","7.55","0.412","5.21","0.02","0.17","29.2232","4.63683","58.15","0","SATNPRO1963","31.15","0.43632","5"],
    [19206,"HCEP03730560","2024-04-15 09:45:00","9.44","3.19394","26.919","5.521","7.55","0.371","4.622","0.02","0.2","29.2242","4.63696","58.23","0","SATNPRO1963","30.992","0.4341","5"],
    [19207,"HCEP03730560","2024-04-15 10:00:00","9.4403","3.19413","26.836","5.525","7.55","0.41","3.861","0.03","0.14","29.2258","4.63719","58.27","0","SATNPRO1963","31.046","0.43486","5"],
    [19208,"HCEP03730560","2024-04-15 10:15:00","9.4411","3.19443","26.858","5.511","7.55","0.36","4.116","0.02","0.16","29.2283","4.63753","58.13","0","SATNPRO1963","31.148","0.43626","5"],
    [19209,"HCEP03730560","2024-04-15 10:30:00","9.4419","3.19465","26.819","5.499","7.55","0.393","4.066","0.01","0.08","29.2298","4.63773","58.01","0","SATNPRO1963","30.766","0.43094","5"],
    [19210,"HCEP03730560","2024-04-15 10:45:00","9.4421","3.19483","26.735","5.487","7.55","0.36","4.224","0.02","0.11","29.2315","4.63797","57.88","0","SATNPRO1963","30.948","0.43344","5"],
    [19211,"HCEP03730560","2024-04-15 11:00:00","9.4423","3.19493","26.662","5.482","7.55","0.388","3.993","0.01","0.11","29.2324","4.63809","57.83","0","SATNPRO1963","30.96","0.43368","5"],
    [19212,"HCEP03730560","2024-04-15 11:15:00","9.4418","3.19455","26.531","5.474","7.55","0.35","3.757","0.02","0.12","29.229","4.6376","57.73","0","SATNPRO1963","30.902","0.43282","5"],
    [19213,"HCEP03730560","2024-04-15 11:30:00","9.44","3.19368","26.512","5.529","7.55","0.379","3.279","0.02","0.11","29.221800000000002","4.63659","58.31","0","SATNPRO1963","31.004","0.43432","5"],
    [19214,"HCEP03730560","2024-04-15 11:45:00","9.4391","3.1928","26.403","5.605","7.56","0.34","3.123","0.03","0.22","29.2136","4.63543","59.12","0","SATNPRO1963","31.022","0.43446","5"],
    [19215,"HCEP03730560","2024-04-15 12:00:00","9.4394","3.19336","26.239","5.611","7.56","0.385","3.504","0.01","0.12","29.2191","4.6362","59.17","0","SATNPRO1963","31.098","0.43556","5"],
    [19216,"HCEP03730560","2024-04-15 12:15:00","9.4408","3.19407","26.12","5.527","7.55","0.339","3.31","0.02","0.09","29.2252","4.63705","58.29","0","SATNPRO1963","30.998","0.43416","5"],
    [19217,"HCEP03730560","2024-04-15 12:30:00","9.4407","3.19412","25.981","5.518","7.55","0.383","3.525","0.02","0.13","29.2258","4.63713","58.2","0","SATNPRO1963","31.086","0.43544","5"],
    [19218,"HCEP03730560","2024-04-15 12:45:00","9.4436","3.19533","25.805","5.48","7.55","0.355","4.287","0.02","0.16","29.2358","4.63849","57.81","0","SATNPRO1963","30.87","0.43242","5"],
    [19219,"HCEP03730560","2024-04-15 13:00:00","9.4446","3.19551","25.67","5.465","7.55","0.403","4.709","0.02","0.17","29.2369","4.63863","57.65","0","SATNPRO1963","31.034","0.4347","5"],
    [19220,"HCEP03730560","2024-04-15 13:15:00","9.4441","3.19547","25.585","5.494","7.55","0.355","4.389","0.01","0.13","29.2369","4.63864","57.96","0","SATNPRO1963","31.06","0.43506","5"],
    [19221,"HCEP03730560","2024-04-15 13:30:00","9.4452","3.19562","25.498","5.468","7.55","0.407","4.614","0.02","0.13","29.2376","4.63871","57.69","0","SATNPRO1963","31.006","0.43434","5"],
    [19222,"HCEP03730560","2024-04-15 13:45:00","9.4459","3.19572","25.318","5.432","7.54","0.371","4.639","0.02","0.16","29.238","4.63875","57.3","0","SATNPRO1963","30.76","0.43084","5"],
    [19223,"HCEP03730560","2024-04-15 14:00:00","9.446","3.19577","25.215","5.419","7.54","0.403","4.695","0.01","0.13","29.2385","4.63881","57.17","0","SATNPRO1963","31.034","0.43466","5"],
    [19224,"HCEP03730560","2024-04-15 14:15:00","9.4463","3.19585","25.139","5.411","7.54","0.38","4.665","0.03","0.15","29.2391","4.63889","57.08","0","SATNPRO1963","31.046","0.43484","5"],
    [19225,"HCEP03730560","2024-04-15 14:30:00","9.4463","3.19595","25.019","5.43","7.54","0.402","4.071","0.02","0.14","29.2401","4.63903","57.29","0","SATNPRO1963","31.09","0.43544","5"],
    [19226,"HCEP03730560","2024-04-15 14:45:00","9.4462","3.19588","24.913","5.468","7.54","0.373","4.589","0.03","0.16","29.2396","4.63895","57.68","0","SATNPRO1963","31.18","0.43672","5"],
    [19227,"HCEP03730560","2024-04-15 15:00:00","9.4442","3.19571","24.816","5.531","7.55","0.377","3.163","0.01","0.22","29.2395","4.63896","58.35","0","SATNPRO1963","31.206","0.43706","5"],
    [19228,"HCEP03730560","2024-04-15 15:15:00","9.4459","3.19579","24.734","5.487","7.55","0.379","4.461","0.05","0.17","29.239","4.63885","57.88","0","SATNPRO1963","31.262","0.43786","5"],
    [19229,"HCEP03730560","2024-04-15 15:30:00","9.4473","3.19601","24.705","5.409","7.54","0.421","5.165","0.02","0.16","29.24","4.63898","57.06","0","SATNPRO1963","31.008","0.43438","5"],
    [19230,"HCEP03730560","2024-04-15 15:45:00","9.4472","3.19602","24.629","5.406","7.54","0.38","4.742","0.02","0.21","29.2404","4.63902","57.03","0","SATNPRO1963","31.004","0.43426","5"],
    [19231,"HCEP03730560","2024-04-15 16:00:00","9.4479","3.19615","24.612","5.407","7.54","0.425","4.699","0.03","0.31","29.241","4.63911","57.04","0","SATNPRO1963","31.146","0.43624","5"],
    [19232,"HCEP03730560","2024-04-15 16:15:00","9.4486","3.19627","24.609","5.396","7.54","0.392","4.591","0.03","0.18","29.2417","4.63919","56.93","0","SATNPRO1963","31.194","0.43696","5"],
    [19233,"HCEP03730560","2024-04-15 16:30:00","9.4494","3.19644","24.653","5.379","7.54","0.434","4.972","0.04","0.18","29.2428","4.63933","56.75","0","SATNPRO1963","31.259999999999998","0.43788","5"],
    [19234,"HCEP03730560","2024-04-15 16:45:00","9.4498","3.19662","24.71","5.37","7.54","0.378","4.905","0.03","0.15","29.2442","4.63953","56.66","0","SATNPRO1963","31.202","0.43704","5"],
    [19235,"HCEP03730560","2024-04-15 17:00:00","9.4505","3.19671","24.718","5.367","7.54","0.434","5.199","0.03","0.26","29.2446","4.63958","56.63","0","SATNPRO1963","30.98","0.43394","5"],
    [19236,"HCEP03730560","2024-04-15 17:15:00","9.4507","3.19678","24.795","5.367","7.54","0.384","5.017","0.03","0.17","29.2451","4.63966","56.63","0","SATNPRO1963","30.954","0.43358","5"],
    [19237,"HCEP03730560","2024-04-15 17:30:00","9.4512","3.19701","24.87","5.373","7.54","0.409","4.802","0.01","0.17","29.2469","4.6399","56.69","0","SATNPRO1963","31.168","0.43658","5"],
    [19238,"HCEP03730560","2024-04-15 17:45:00","9.4512","3.19714","24.998","5.415","7.54","0.374","4.41","0.02","0.18","29.2482","4.6401","57.14","0","SATNPRO1963","31.288","0.43822","5"],
    [19239,"HCEP03730560","2024-04-15 18:00:00","9.4516","3.19722","25.096","5.439","7.54","0.422","4.611","0.04","0.18","29.2486","4.64016","57.39","0","SATNPRO1963","31.352","0.43912","5"],
    [19240,"HCEP03730560","2024-04-15 18:15:00","9.4521","3.19741","25.212","5.451","7.54","0.366","4.508","0.02","0.14","29.2501","4.64037","57.51","0","SATNPRO1963","31.514","0.44136","5"],
    [19241,"HCEP03730560","2024-04-15 18:30:00","9.453","3.1975","25.244","5.452","7.55","0.417","5.055","0.02","0.26","29.2503","4.64038","57.53","0","SATNPRO1963","31.573999999999998","0.44224","5"],
    [19242,"HCEP03730560","2024-04-15 18:45:00","9.4523","3.19734","25.486","5.493","7.55","0.37","4.366","0.05","0.29","29.2491","4.64024","57.96","0","SATNPRO1963","31.488","0.44108","5"],
    [19243,"HCEP03730560","2024-04-15 19:00:00","9.4523","3.19713","25.515","5.528","7.55","0.388","3.802","0.03","0.38","29.247","4.63993","58.33","0","SATNPRO1963","31.768","0.44494","5"],
    [19244,"HCEP03730560","2024-04-15 19:15:00","9.4518","3.19723","25.788","5.545","7.55","0.341","3.708","0.02","0.13","29.2484","4.64016","58.51","0","SATNPRO1963","31.596","0.44256","5"],
    [19245,"HCEP03730560","2024-04-15 19:30:00","9.4539","3.19804","25.904","5.513","7.55","0.389","4.336","0.02","0.13","29.2548","4.64104","58.18","0","SATNPRO1963","31.752","0.44476","5"],
    [19246,"HCEP03730560","2024-04-15 19:45:00","9.4553","3.19874","26.023","5.459","7.55","0.364","4.651","0.03","0.27","29.2607","4.64188","57.61","0","SATNPRO1963","31.634","0.44308","5"],
    [19247,"HCEP03730560","2024-04-15 20:00:00","9.4539","3.19885","26.24","5.447","7.55","0.405","4.668","0.03","0.28","29.2628","4.64221","57.48","0","SATNPRO1963","31.482","0.44092","5"],
    [19248,"HCEP03730560","2024-04-15 20:15:00","9.4518","3.1983","26.44","5.48","7.55","0.342","4.455","0.01","0.19","29.2589","4.64171","57.83","0","SATNPRO1963","31.522000000000002","0.4415","5"],
    [19249,"HCEP03730560","2024-04-15 20:30:00","9.4508","3.19796","26.536","5.534","7.55","0.539","12.746","0.24","13.58","29.2563","4.64135","58.39","0","SATNPRO1963","31.738","0.44456","5"],
    [19250,"HCEP03730560","2024-04-15 20:45:00","9.453","3.19723","26.77","5.616","7.56","0.291","1.981","0.02","0.13","29.247","4.63999","59.26","0","SATNPRO1963","32.028","0.44864","5"],
    [19251,"HCEP03730560","2024-04-15 21:00:00","9.4514","3.19771","26.942","5.597","7.56","0.378","4.249","0.01","0.16","29.2531","4.6409","59.06","0","SATNPRO1963","31.832","0.44584","5"],
    [19252,"HCEP03730560","2024-04-15 21:15:00","9.4505","3.1971","27.14","5.522","7.56","0.358","4.711","0.02","0.2","29.2475","4.64014","58.26","0","SATNPRO1963","31.434","0.44028","5"],
    [19253,"HCEP03730560","2024-04-15 21:30:00","9.4502","3.19661","27.208","5.495","7.56","0.412","5.487","0.03","0.29","29.2428","4.63947","57.98","0","SATNPRO1963","31.472","0.44082","5"],
    [19254,"HCEP03730560","2024-04-15 21:45:00","9.4501","3.19629","27.367","5.47","7.55","0.367","5.114","0.02","0.2","29.2395","4.63901","57.71","0","SATNPRO1963","31.302","0.4384","5"],
    [19255,"HCEP03730560","2024-04-15 22:00:00","9.4512","3.1962","27.357","5.482","7.55","0.395","4.684","0.02","0.17","29.2378","4.63874","57.84","0","SATNPRO1963","31.338","0.43894","5"],
    [19256,"HCEP03730560","2024-04-15 22:15:00","9.4528","3.19722","27.537","5.48","7.55","0.354","5.108","0.01","0.16","29.2467","4.64001","57.83","0","SATNPRO1963","31.45","0.44052","5"],
    [19257,"HCEP03730560","2024-04-15 22:30:00","9.452","3.19766","27.66","5.498","7.55","0.396","5.015","0.02","0.2","29.2518","4.64075","58.02","0","SATNPRO1963","31.72","0.44428","5"],
    [19258,"HCEP03730560","2024-04-15 22:45:00","9.4534","3.19686","27.674","5.572","7.56","0.325","3.817","0.01","0.08","29.2424","4.63939","58.8","0","SATNPRO1963","32.222","0.45134","5"],
    [19259,"HCEP03730560","2024-04-15 23:00:00","9.452","3.19876","27.691","5.553","7.56","0.38","4.533","0.03","0.15","29.2629","4.64234","58.6","0","SATNPRO1963","31.986","0.44802","5"],
    [19260,"HCEP03730560","2024-04-15 23:15:00","9.452","3.19894","27.796","5.556","7.56","0.328","4.413","0.02","0.19","29.2647","4.64262","58.63","0","SATNPRO1963","31.898","0.44678","5"],
    [19261,"HCEP03730560","2024-04-15 23:30:00","9.4528","3.19934","27.806","5.545","7.56","0.364","4.331","0.01","0.31","29.2681","4.64308","58.52","0","SATNPRO1963","31.864","0.44628","5"],
    [19262,"HCEP03730560","2024-04-15 23:45:00","9.4531","3.19963","27.794","5.518","7.56","0.326","4.172","0.01","0.12","29.2707","4.64346","58.23","0","SATNPRO1963","31.84","0.44598","5"],
    [19263,"HCEP03730560","2024-04-16 00:00:00","9.4536","3.19996","27.947","5.498","7.56","0.365","4.39","0.01","0.16","29.2736","4.64387","58.03","0","SATNPRO1963","31.89","0.44668","5"],
    [19264,"HCEP03730560","2024-04-16 00:15:00","9.4541","3.20058","27.874","5.496","7.55","0.322","4.077","0.02","0.09","29.2795","4.6447","58.01","0","SATNPRO1963","31.912","0.447","5"],
    [19265,"HCEP03730560","2024-04-16 00:30:00","9.4551","3.20128","27.79","5.499","7.55","0.345","3.416","0.02","0.12","29.2858","4.64559","58.05","0","SATNPRO1963","32.046","0.44886","5"],
    [19266,"HCEP03730560","2024-04-16 00:45:00","9.4556","3.20158","27.826","5.492","7.55","0.307","3.779","0.01","0.17","29.2884","4.64595","57.97","0","SATNPRO1963","31.926000000000002","0.44716","5"],
    [19267,"HCEP03730560","2024-04-16 01:00:00","9.4563","3.20187","27.838","5.475","7.55","0.354","4.151","0.01","0.11","29.2908","4.64628","57.79","0","SATNPRO1963","31.728","0.4444","5"],
    [19268,"HCEP03730560","2024-04-16 01:15:00","9.4562","3.20196","27.81","5.464","7.55","0.313","4.114","0.01","0.21","29.2918","4.64643","57.67","0","SATNPRO1963","31.904","0.44688","5"],
    [19269,"HCEP03730560","2024-04-16 01:30:00","9.4567","3.20229","27.762","5.483","7.55","0.342","3.569","0.01","0.23","29.2947","4.64683","57.88","0","SATNPRO1963","32.120000000000005","0.44994","5"],
    [19270,"HCEP03730560","2024-04-16 01:45:00","9.4567","3.20241","27.754","5.503","7.55","0.306","3.389","0.02","0.16","29.2959","4.647","58.09","0","SATNPRO1963","32.11","0.44976","5"],
    [19271,"HCEP03730560","2024-04-16 02:00:00","9.4567","3.20248","27.685","5.511","7.55","0.346","3.22","0.02","0.15","29.2967","4.64711","58.17","0","SATNPRO1963","32.14","0.45018","5"],
    [19272,"HCEP03730560","2024-04-16 02:15:00","9.4566","3.20237","27.569","5.525","7.56","0.31","3.54","0.04","0.49","29.2957","4.64696","58.32","0","SATNPRO1963","32.036","0.44874","5"],
    [19273,"HCEP03730560","2024-04-16 02:30:00","9.4564","3.20221","27.55","5.523","7.56","0.357","3.964","0.02","0.27","29.2943","4.64676","58.3","0","SATNPRO1963","32.19","0.45088","5"],
    [19274,"HCEP03730560","2024-04-16 02:45:00","9.456","3.20236","27.49","5.539","7.56","0.303","3.355","0.01","0.12","29.2962","4.64704","58.47","0","SATNPRO1963","32.186","0.45082","5"],
    [19275,"HCEP03730560","2024-04-16 03:00:00","9.4562","3.20237","27.414","5.545","7.56","0.347","3.418","0.02","0.19","29.2961","4.64702","58.53","0","SATNPRO1963","32.082","0.44936","5"],
    [19276,"HCEP03730560","2024-04-16 03:15:00","9.4559","3.20223","27.364","5.544","7.56","0.307","3.452","0.02","0.17","29.2949","4.64685","58.52","0","SATNPRO1963","32.288","0.45226","5"],
    [19277,"HCEP03730560","2024-04-16 03:30:00","9.4559","3.20213","27.272","5.555","7.56","0.348","3.35","0.02","0.21","29.294","4.64671","58.64","0","SATNPRO1963","32.326","0.45274","5"],
    [19278,"HCEP03730560","2024-04-16 03:45:00","9.4551","3.20195","27.17","5.56","7.56","0.312","3.317","0.02","0.17","29.2929","4.64656","58.69","0","SATNPRO1963","32.403999999999996","0.45388","5"],
    [19279,"HCEP03730560","2024-04-16 04:00:00","9.4551","3.20179","27.051","5.588","7.56","0.365","3.527","0.03","0.18","29.2912","4.64631","58.98","0","SATNPRO1963","32.464","0.4547","5"],
    [19280,"HCEP03730560","2024-04-16 04:15:00","9.4565","3.2018","27.006","5.594","7.56","0.294","2.648","0.02","0.15","29.2903","4.64615","59.05","0","SATNPRO1963","32.266","0.45196","5"],
    [19281,"HCEP03730560","2024-04-16 04:30:00","9.4572","3.2018","26.93","5.6","7.56","0.352","2.852","0.02","0.15","29.2898","4.64607","59.11","0","SATNPRO1963","32.507999999999996","0.45534","5"],
    [19282,"HCEP03730560","2024-04-16 04:45:00","9.4553","3.20144","26.855","5.612","7.56","0.288","2.36","0.02","0.11","29.2877","4.6458","59.24","0","SATNPRO1963","32.47","0.4548","5"],
    [19283,"HCEP03730560","2024-04-16 05:00:00","9.4546","3.20137","26.789","5.612","7.56","0.345","3.03","0.03","0.16","29.2875","4.64578","59.23","0","SATNPRO1963","32.54","0.4558","5"],
    [19284,"HCEP03730560","2024-04-16 05:15:00","9.4539","3.20125","26.735","5.603","7.56","0.304","2.84","0.02","0.12","29.2869","4.6457","59.14","0","SATNPRO1963","32.292","0.4523","5"],
    [19285,"HCEP03730560","2024-04-16 05:30:00","9.4537","3.20131","26.698","5.588","7.56","0.36","3.264","0.03","0.14","29.2877","4.64582","58.98","0","SATNPRO1963","32.332","0.45284","5"],
    [19286,"HCEP03730560","2024-04-16 05:45:00","9.4537","3.20127","26.657","5.575","7.56","0.324","3.404","0.06","0.14","29.2873","4.64575","58.84","0","SATNPRO1963","32.292","0.45234","5"],
    [19287,"HCEP03730560","2024-04-16 06:00:00","9.4536","3.2012","26.652","5.572","7.56","0.41","3.602","0.06","0.22","29.2867","4.64567","58.81","0","SATNPRO1963","32.28","0.45212","5"],
    [19288,"HCEP03730560","2024-04-16 06:15:00","9.454","3.20114","26.626","5.564","7.56","0.319","3.425","0.04","0.13","29.2857","4.64552","58.73","0","SATNPRO1963","32.160000000000004","0.45046","5"],
    [19289,"HCEP03730560","2024-04-16 06:30:00","9.4543","3.20104","26.607","5.559","7.56","0.36","3.489","0.03","0.15","29.2845","4.64535","58.68","0","SATNPRO1963","32.262","0.45184","5"],
    [19290,"HCEP03730560","2024-04-16 06:45:00","9.4537","3.20102","26.622","5.568","7.56","0.329","3.797","0.02","0.3","29.2848","4.64539","58.77","0","SATNPRO1963","32.39","0.45362","5"],
    [19291,"HCEP03730560","2024-04-16 07:00:00","9.4535","3.20113","26.588","5.569","7.56","0.369","3.734","0.02","0.21","29.2861","4.64559","58.78","0","SATNPRO1963","32.3","0.45242","5"],
    [19292,"HCEP03730560","2024-04-16 07:15:00","9.453","3.20115","26.583","5.59","7.56","0.329","2.989","0.04","0.16","29.2866","4.64567","59","0","SATNPRO1963","32.446","0.45444","5"],
    [19293,"HCEP03730560","2024-04-16 07:30:00","9.4527","3.20099","26.631","5.603","7.56","0.36","3.211","0.03","0.27","29.2853","4.64549","59.13","0","SATNPRO1963","32.586","0.45642","5"],
    [19294,"HCEP03730560","2024-04-16 07:45:00","9.4527","3.201","26.615","5.605","7.56","0.311","2.754","0.02","0.08","29.2855","4.64551","59.16","0","SATNPRO1963","32.263999999999996","0.45194","5"],
    [19295,"HCEP03730560","2024-04-16 08:00:00","9.4534","3.20148","26.599","5.585","7.56","0.361","3.421","0.03","0.44","29.2897","4.6461","58.95","0","SATNPRO1963","32.23","0.45142","5"],
    [19296,"HCEP03730560","2024-04-16 08:15:00","9.4538","3.20157","26.61","5.555","7.56","0.33","3.448","0.05","0.22","29.2903","4.64618","58.64","0","SATNPRO1963","32.248","0.45168","5"],
    [19297,"HCEP03730560","2024-04-16 08:30:00","9.4543","3.20164","26.625","5.534","7.56","0.373","3.733","0.03","0.2","29.2905","4.64621","58.41","0","SATNPRO1963","32.449999999999996","0.4545","5"],
    [19298,"HCEP03730560","2024-04-16 08:45:00","9.4552","3.2017","26.648","5.502","7.55","0.345","4.316","0.03","0.27","29.2905","4.64618","58.07","0","SATNPRO1963","32.211999999999996","0.45116","5"],
    [19299,"HCEP03730560","2024-04-16 09:00:00","9.4544","3.20198","26.663","5.523","7.55","0.352","3.211","0.02","0.15","29.2939","4.64668","58.3","0","SATNPRO1963","32.428000000000004","0.4542","5"],
    [19300,"HCEP03730560","2024-04-16 09:15:00","9.4555","3.20213","26.664","5.503","7.55","0.332","3.835","0.02","0.21","29.2945","4.64676","58.09","0","SATNPRO1963","32.147999999999996","0.45032","5"],
    [19301,"HCEP03730560","2024-04-16 09:30:00","9.4552","3.20201","26.68","5.497","7.55","0.373","3.551","0.05","0.12","29.2936","4.64663","58.02","0","SATNPRO1963","32.08","0.44932","5"],
    [19302,"HCEP03730560","2024-04-16 09:45:00","9.4554","3.20218","26.688","5.495","7.55","0.334","3.725","0.03","0.15","29.2952","4.64686","58","0","SATNPRO1963","32.222","0.4513","5"],
    [19303,"HCEP03730560","2024-04-16 10:00:00","9.4559","3.20224","26.723","5.49","7.55","0.378","3.699","0.04","0.24","29.2953","4.64687","57.95","0","SATNPRO1963","32.246","0.45166","5"],
    [19304,"HCEP03730560","2024-04-16 10:15:00","9.4562","3.20236","26.768","5.497","7.55","0.319","3.326","0.02","0.18","29.2963","4.64701","58.02","0","SATNPRO1963","32.176","0.45068","5"],
    [19305,"HCEP03730560","2024-04-16 10:30:00","9.4572","3.20239","26.765","5.492","7.55","0.348","3.238","0.02","0.16","29.2958","4.64691","57.98","0","SATNPRO1963","32.198","0.451","5"],
    [19306,"HCEP03730560","2024-04-16 10:45:00","9.4601","3.20315","26.744","5.454","7.55","0.317","3.392","0.02","0.18","29.3011","4.64762","57.58","0","SATNPRO1963","32.224","0.45134","5"],
    [19307,"HCEP03730560","2024-04-16 11:00:00","9.4592","3.20317","26.725","5.499","7.55","0.358","3.027","0.04","0.15","29.302","4.64778","58.05","0","SATNPRO1963","32.418","0.45408","5"],
    [19308,"HCEP03730560","2024-04-16 11:15:00","9.4596","3.20349","26.69","5.517","7.55","0.293","2.64","0.02","0.23","29.3049","4.64818","58.24","0","SATNPRO1963","32.272","0.45202","5"],
    [19309,"HCEP03730560","2024-04-16 11:30:00","9.4614","3.20403","26.642","5.483","7.55","0.362","3.111","0.02","0.14","29.309","4.64872","57.89","0","SATNPRO1963","32.382","0.45356","5"],
    [19310,"HCEP03730560","2024-04-16 11:45:00","9.4584","3.20321","26.583","5.52","7.55","0.308","2.457","0.03","0.09","29.3031","4.64793","58.27","0","SATNPRO1963","32.358","0.45322","5"],
    [19311,"HCEP03730560","2024-04-16 12:00:00","9.4613","3.20394","26.54","5.508","7.55","0.343","2.556","0.02","0.1","29.3082","4.64861","58.15","0","SATNPRO1963","32.461999999999996","0.45466","5"],
    [19312,"HCEP03730560","2024-04-16 12:15:00","9.4617","3.20407","26.472","5.506","7.55","0.298","2.627","0.02","0.14","29.3091","4.64873","58.13","0","SATNPRO1963","32.326","0.45278","5"],
    [19313,"HCEP03730560","2024-04-16 12:30:00","9.4617","3.20411","26.4","5.494","7.55","0.369","3","0.04","0.19","29.3097","4.6488","58.01","0","SATNPRO1963","32.43","0.45424","5"],
    [19314,"HCEP03730560","2024-04-16 12:45:00","9.4618","3.20417","26.317","5.492","7.55","0.333","3.042","0.05","0.15","29.3101","4.64886","57.99","0","SATNPRO1963","32.458","0.4546","5"],
    [19315,"HCEP03730560","2024-04-16 13:00:00","9.4615","3.2041","26.221","5.487","7.55","0.345","3.031","0.01","0.16","29.3097","4.64881","57.93","0","SATNPRO1963","32.184","0.4508","5"],
    [19316,"HCEP03730560","2024-04-16 13:15:00","9.4632","3.2045","26.114","5.461","7.55","0.333","3.34","0.07","0.17","29.3125","4.64916","57.66","0","SATNPRO1963","32.338","0.45298","5"],
    [19317,"HCEP03730560","2024-04-16 13:30:00","9.4634","3.20452","26.027","5.451","7.55","0.384","3.447","0.06","0.23","29.3125","4.64916","57.56","0","SATNPRO1963","32.268","0.45194","5"],
    [19318,"HCEP03730560","2024-04-16 13:45:00","9.4634","3.20442","25.929","5.46","7.55","0.318","3.103","0.02","0.14","29.3116","4.64903","57.65","0","SATNPRO1963","32.358","0.45322","5"],
    [19319,"HCEP03730560","2024-04-16 14:00:00","9.4633","3.20435","25.817","5.452","7.55","0.424","3.779","0.15","0.23","29.311","4.64894","57.56","0","SATNPRO1963","32.438","0.45436","5"],
    [19320,"HCEP03730560","2024-04-16 14:15:00","9.4633","3.2043","25.708","5.441","7.54","0.332","3.853","0.03","0.24","29.3105","4.64886","57.45","0","SATNPRO1963","32.25","0.45174","5"],
    [19321,"HCEP03730560","2024-04-16 14:30:00","9.4622","3.20383","25.614","5.449","7.54","0.362","3.411","0.03","0.17","29.3068","4.64833","57.53","0","SATNPRO1963","32.5","0.45522","5"],
    [19322,"HCEP03730560","2024-04-16 14:45:00","9.4627","3.20375","25.537","5.477","7.55","0.319","3.305","0.03","0.25","29.3055","4.64813","57.83","0","SATNPRO1963","32.276","0.4521","5"],
    [19323,"HCEP03730560","2024-04-16 15:00:00","9.4618","3.20357","25.412","5.465","7.55","0.355","3.558","0.04","0.15","29.3045","4.648","57.7","0","SATNPRO1963","32.336","0.4529","5"],
    [19324,"HCEP03730560","2024-04-16 15:15:00","9.4613","3.20323","25.308","5.464","7.55","0.324","3.541","0.02","0.16","29.3015","4.64758","57.69","0","SATNPRO1963","32.336","0.45292","5"],
    [19325,"HCEP03730560","2024-04-16 15:30:00","9.4624","3.20348","25.183","5.466","7.55","0.359","3.574","0.03","0.3","29.3031","4.64778","57.71","0","SATNPRO1963","32.224000000000004","0.4513","5"],
    [19326,"HCEP03730560","2024-04-16 15:45:00","9.4621","3.2036","25.118","5.441","7.54","0.327","3.776","0.02","0.19","29.3046","4.648","57.45","0","SATNPRO1963","32.05","0.44892","5"],
    [19327,"HCEP03730560","2024-04-16 16:00:00","9.4615","3.20328","25","5.436","7.54","0.376","3.941","0.03","0.26","29.3019","4.64761","57.39","0","SATNPRO1963","32.13","0.45006","5"],
    [19328,"HCEP03730560","2024-04-16 16:15:00","9.4614","3.20335","24.933","5.435","7.54","0.326","3.896","0.02","0.14","29.3028","4.64775","57.38","0","SATNPRO1963","32.217999999999996","0.45128","5"],
    [19329,"HCEP03730560","2024-04-16 16:30:00","9.4611","3.20316","24.883","5.429","7.54","0.371","4.291","0.02","0.21","29.3011","4.6475","57.32","0","SATNPRO1963","32.228","0.45144","5"],
    [19330,"HCEP03730560","2024-04-16 16:45:00","9.4595","3.20209","24.864","5.445","7.54","0.325","4.116","0.02","0.46","29.2916","4.64617","57.48","0","SATNPRO1963","32.238","0.45154","5"],
    [19331,"HCEP03730560","2024-04-16 17:00:00","9.4597","3.20241","24.822","5.447","7.54","0.362","3.866","0.02","0.25","29.2947","4.6466","57.51","0","SATNPRO1963","32.14","0.45022","5"],
    [19332,"HCEP03730560","2024-04-16 17:15:00","9.4605","3.20276","24.804","5.428","7.54","0.334","4.009","0.03","0.17","29.2976","4.647","57.3","0","SATNPRO1963","32.096000000000004","0.44956","5"],
    [19333,"HCEP03730560","2024-04-16 17:30:00","9.4612","3.20331","24.832","5.408","7.54","0.386","4.544","0.05","0.52","29.3025","4.64769","57.09","0","SATNPRO1963","32.06","0.44906","5"],
    [19334,"HCEP03730560","2024-04-16 17:45:00","9.4623","3.20396","24.857","5.384","7.54","0.338","3.889","0.03","0.26","29.3082","4.6485","56.84","0","SATNPRO1963","32.156","0.45038","5"],
    [19335,"HCEP03730560","2024-04-16 18:00:00","9.4631","3.20405","24.884","5.375","7.54","0.381","3.886","0.04","0.16","29.3085","4.64853","56.75","0","SATNPRO1963","31.928","0.44722","5"],
    [19336,"HCEP03730560","2024-04-16 18:15:00","9.4632","3.20421","24.946","5.368","7.54","0.346","3.857","0.05","0.19","29.31","4.64874","56.68","0","SATNPRO1963","32.102","0.44962","5"],
    [19337,"HCEP03730560","2024-04-16 18:30:00","9.4632","3.2043","24.996","5.358","7.54","0.37","4.12","0.02","0.31","29.3109","4.64887","56.57","0","SATNPRO1963","32.147999999999996","0.4503","5"],
    [19338,"HCEP03730560","2024-04-16 18:45:00","9.463","3.20426","25.072","5.365","7.54","0.327","3.751","0.02","0.19","29.3106","4.64884","56.64","0","SATNPRO1963","32.186","0.45088","5"],
    [19339,"HCEP03730560","2024-04-16 19:00:00","9.4628","3.20427","25.214","5.369","7.54","0.37","3.943","0.02","0.27","29.3109","4.64889","56.69","0","SATNPRO1963","32.230000000000004","0.45146","5"],
    [19340,"HCEP03730560","2024-04-16 19:15:00","9.4622","3.20397","25.285","5.383","7.54","0.317","3.362","0.01","0.22","29.3082","4.64852","56.83","0","SATNPRO1963","32.106","0.44966","5"],
    [19341,"HCEP03730560","2024-04-16 19:30:00","9.4633","3.20443","25.399","5.373","7.54","0.367","3.464","0.03","0.17","29.3119","4.64904","56.73","0","SATNPRO1963","32.234","0.4515","5"],
    [19342,"HCEP03730560","2024-04-16 19:45:00","9.4633","3.2044","25.528","5.366","7.54","0.345","3.63","0.07","0.27","29.3116","4.64901","56.66","0","SATNPRO1963","32.194","0.45092","5"],
    [19343,"HCEP03730560","2024-04-16 20:00:00","9.4636","3.2044","25.664","5.356","7.54","0.371","3.873","0.02","0.29","29.3113","4.64897","56.55","0","SATNPRO1963","32.19","0.45088","5"],
    [19344,"HCEP03730560","2024-04-16 20:15:00","9.4634","3.20432","25.814","5.352","7.54","0.332","3.815","0.03","0.13","29.3105","4.64886","56.51","0","SATNPRO1963","32.092","0.4495","5"],
    [19345,"HCEP03730560","2024-04-16 20:30:00","9.4636","3.2045","25.963","5.348","7.54","0.365","3.437","0.03","0.18","29.3122","4.64911","56.46","0","SATNPRO1963","32.188","0.45078","5"],
    [19346,"HCEP03730560","2024-04-16 20:45:00","9.4643","3.20467","26.086","5.324","7.54","0.326","3.846","0.02","0.27","29.3133","4.64926","56.22","0","SATNPRO1963","32.068","0.44912","5"],
    [19347,"HCEP03730560","2024-04-16 21:00:00","9.465","3.2049","26.242","5.287","7.54","0.377","4.982","0.01","0.22","29.3149","4.64949","55.83","0","SATNPRO1963","32.064","0.4491","5"],
    [19348,"HCEP03730560","2024-04-16 21:15:00","9.4653","3.20489","26.395","5.272","7.54","0.337","4.619","0.02","0.14","29.3146","4.64944","55.67","0","SATNPRO1963","31.97","0.44778","5"],
    [19349,"HCEP03730560","2024-04-16 21:30:00","9.4643","3.20477","26.557","5.282","7.54","0.373","4.086","0.02","0.15","29.3141","4.6494","55.77","0","SATNPRO1963","31.974","0.44784","5"],
    [19350,"HCEP03730560","2024-04-16 21:45:00","9.4647","3.20486","26.715","5.266","7.54","0.333","4.513","0.01","0.21","29.3146","4.64948","55.61","0","SATNPRO1963","31.945999999999998","0.44746","5"],
    [19351,"HCEP03730560","2024-04-16 22:00:00","9.4649","3.20481","26.906","5.248","7.53","0.382","4.696","0.03","0.28","29.3139","4.64938","55.41","0","SATNPRO1963","32.028","0.44862","5"],
    [19352,"HCEP03730560","2024-04-16 22:15:00","9.4647","3.20454","27.053","5.254","7.53","0.334","4.576","0.01","0.15","29.3112","4.64902","55.48","0","SATNPRO1963","31.85","0.4461","5"],
    [19353,"HCEP03730560","2024-04-16 22:30:00","9.4659","3.20492","27.187","5.221","7.53","0.387","4.937","0.02","0.15","29.3141","4.64941","55.13","0","SATNPRO1963","31.796","0.44534","5"],
    [19354,"HCEP03730560","2024-04-16 22:45:00","9.4658","3.20497","27.298","5.214","7.53","0.343","4.676","0.02","0.12","29.3146","4.64949","55.05","0","SATNPRO1963","31.93","0.44724","5"],
    [19355,"HCEP03730560","2024-04-16 23:00:00","9.4653","3.20491","27.383","5.231","7.53","0.384","4.425","0.01","0.12","29.3144","4.64948","55.23","0","SATNPRO1963","31.718","0.44424","5"],
    [19356,"HCEP03730560","2024-04-16 23:15:00","9.4614","3.20414","27.501","5.348","7.54","0.319","3.138","0.02","0.1","29.3098","4.64889","56.47","0","SATNPRO1963","32.324","0.4528","5"],
    [19357,"HCEP03730560","2024-04-16 23:30:00","9.4628","3.20451","27.593","5.349","7.54","0.358","3.254","0.02","0.13","29.3123","4.64923","56.48","0","SATNPRO1963","32.17","0.45054","5"],
    [19358,"HCEP03730560","2024-04-16 23:45:00","9.4634","3.2046","27.674","5.347","7.54","0.323","3.383","0.02","0.18","29.3127","4.64929","56.46","0","SATNPRO1963","32.016","0.44842","5"],
    [19359,"HCEP03730560","2024-04-17 00:00:00","9.4625","3.20435","27.712","5.362","7.54","0.368","3.801","0.02","0.37","29.3108","4.64904","56.61","0","SATNPRO1963","32.298","0.45236","5"],
    [19360,"HCEP03730560","2024-04-17 00:15:00","9.4639","3.20455","27.747","5.339","7.54","0.32","3.624","0.01","0.24","29.3118","4.64914","56.38","0","SATNPRO1963","32.160000000000004","0.45046","5"],
    [19361,"HCEP03730560","2024-04-17 00:30:00","9.4643","3.20457","27.769","5.325","7.54","0.381","4.072","0.02","0.15","29.3117","4.64912","56.23","0","SATNPRO1963","31.894000000000002","0.4467","5"],
    [19362,"HCEP03730560","2024-04-17 00:45:00","9.4647","3.2041","27.796","5.331","7.54","0.333","3.395","0.02","0.21","29.3065","4.64838","56.29","0","SATNPRO1963","32.214","0.45124","5"],
    [19363,"HCEP03730560","2024-04-17 01:00:00","9.4626","3.20337","27.826","5.362","7.54","0.361","3.11","0.02","0.12","29.3008","4.64761","56.62","0","SATNPRO1963","32.126","0.45","5"],
    [19364,"HCEP03730560","2024-04-17 01:15:00","9.4631","3.2035","27.841","5.354","7.54","0.331","3.666","0.02","0.11","29.3017","4.64772","56.52","0","SATNPRO1963","32.06","0.44902","5"],
    [19365,"HCEP03730560","2024-04-17 01:30:00","9.4615","3.2029","27.844","5.37","7.54","0.347","3.003","0.01","0.11","29.2969","4.64707","56.69","0","SATNPRO1963","32.162","0.4505","5"],
    [19366,"HCEP03730560","2024-04-17 01:45:00","9.4617","3.20289","27.827","5.369","7.54","0.309","3.029","0.02","0.12","29.2967","4.64703","56.68","0","SATNPRO1963","32.144","0.45022","5"],
    [19367,"HCEP03730560","2024-04-17 02:00:00","9.462","3.20306","27.774","5.357","7.54","0.368","3.534","0.02","0.12","29.2982","4.64724","56.55","0","SATNPRO1963","31.948","0.44746","5"],
    [19368,"HCEP03730560","2024-04-17 02:15:00","9.4628","3.20303","27.74","5.351","7.54","0.325","3.359","0.02","0.09","29.2973","4.64708","56.49","0","SATNPRO1963","31.948","0.4475","5"],
    [19369,"HCEP03730560","2024-04-17 02:30:00","9.4653","3.20332","27.696","5.275","7.54","0.4","4.49","0.03","0.38","29.2981","4.64716","55.7","0","SATNPRO1963","31.636","0.44312","5"],
    [19370,"HCEP03730560","2024-04-17 02:45:00","9.4646","3.20287","27.637","5.265","7.54","0.372","4.847","0.04","0.34","29.2942","4.64661","55.59","0","SATNPRO1963","31.768","0.44498","5"],
    [19371,"HCEP03730560","2024-04-17 03:00:00","9.4635","3.20231","27.567","5.277","7.54","0.399","4.897","0.02","0.37","29.2895","4.64594","55.71","0","SATNPRO1963","31.68","0.44372","5"],
    [19372,"HCEP03730560","2024-04-17 03:15:00","9.4626","3.20193","27.503","5.303","7.54","0.361","4.862","0.03","0.32","29.2864","4.64551","55.98","0","SATNPRO1963","31.918","0.44706","5"],
    [19373,"HCEP03730560","2024-04-17 03:30:00","9.4621","3.20162","27.425","5.316","7.54","0.389","4.313","0.02","0.19","29.2837","4.64513","56.12","0","SATNPRO1963","31.896","0.44678","5"],
    [19374,"HCEP03730560","2024-04-17 03:45:00","9.463","3.20164","27.33","5.304","7.54","0.368","4.951","0.02","0.2","29.2832","4.64504","55.99","0","SATNPRO1963","31.886","0.44658","5"],
    [19375,"HCEP03730560","2024-04-17 04:00:00","9.4633","3.20138","27.25","5.293","7.54","0.41","5.116","0.02","0.17","29.2804","4.64462","55.87","0","SATNPRO1963","31.72","0.44426","5"],
    [19376,"HCEP03730560","2024-04-17 04:15:00","9.4628","3.2009","27.137","5.301","7.54","0.358","4.863","0.02","0.23","29.2759","4.64399","55.96","0","SATNPRO1963","31.88","0.44652","5"],
    [19377,"HCEP03730560","2024-04-17 04:30:00","9.4628","3.20076","27.04","5.296","7.53","0.401","5.235","0.02","0.19","29.2745","4.64378","55.9","0","SATNPRO1963","31.69","0.4439","5"],
    [19378,"HCEP03730560","2024-04-17 04:45:00","9.4621","3.20075","26.939","5.298","7.53","0.361","5.267","0.02","0.22","29.2751","4.64387","55.93","0","SATNPRO1963","31.644","0.44324","5"],
    [19379,"HCEP03730560","2024-04-17 05:00:00","9.462","3.20075","26.838","5.304","7.53","0.399","5.137","0.02","0.3","29.2752","4.64388","55.99","0","SATNPRO1963","31.784","0.44522","5"],
    [19380,"HCEP03730560","2024-04-17 05:15:00","9.4622","3.20066","26.733","5.299","7.53","0.375","4.942","0.06","0.26","29.2742","4.64373","55.93","0","SATNPRO1963","31.782","0.44514","5"],
    [19381,"HCEP03730560","2024-04-17 05:30:00","9.4627","3.20051","26.6","5.29","7.53","0.415","4.971","0.03","0.31","29.2723","4.64344","55.84","0","SATNPRO1963","31.934","0.44732","5"],
    [19382,"HCEP03730560","2024-04-17 05:45:00","9.4631","3.2","26.545","5.305","7.53","0.376","5.094","0.03","0.47","29.2668","4.64264","55.99","0","SATNPRO1963","31.704","0.44406","5"],
    [19383,"HCEP03730560","2024-04-17 06:00:00","9.4631","3.19907","26.453","5.335","7.54","0.403","4.613","0.02","0.2","29.2574","4.64129","56.31","0","SATNPRO1963","31.695999999999998","0.44394","5"],
    [19384,"HCEP03730560","2024-04-17 06:15:00","9.4631","3.19811","26.384","5.368","7.54","0.375","4.471","0.02","0.2","29.2478","4.6399","56.65","0","SATNPRO1963","31.752","0.44474","5"],
    [19385,"HCEP03730560","2024-04-17 06:30:00","9.4631","3.19751","26.35","5.385","7.54","0.422","4.693","0.03","0.33","29.2417","4.63903","56.83","0","SATNPRO1963","31.646","0.44328","5"],
    [19386,"HCEP03730560","2024-04-17 06:45:00","9.4634","3.19703","26.333","5.388","7.54","0.387","4.425","0.02","0.3","29.2366","4.63829","56.86","0","SATNPRO1963","31.554","0.44196","5"],
    [19387,"HCEP03730560","2024-04-17 07:00:00","9.4633","3.19676","26.302","5.382","7.54","0.44","4.726","0.04","0.34","29.234","4.63793","56.79","0","SATNPRO1963","31.608","0.44274","5"],
    [19388,"HCEP03730560","2024-04-17 07:15:00","9.4629","3.19614","26.299","5.385","7.54","0.387","4.549","0.02","0.27","29.228","4.63707","56.83","0","SATNPRO1963","31.302","0.43844","5"],
    [19389,"HCEP03730560","2024-04-17 07:30:00","9.4624","3.19594","26.279","5.386","7.54","0.436","4.345","0.03","0.31","29.2264","4.63685","56.84","0","SATNPRO1963","31.514","0.44142","5"],
    [19390,"HCEP03730560","2024-04-17 07:45:00","9.4621","3.19588","26.279","5.377","7.54","0.382","4.166","0.02","0.27","29.226","4.63679","56.75","0","SATNPRO1963","31.419999999999998","0.44014","5"],
    [19391,"HCEP03730560","2024-04-17 08:00:00","9.463","3.19609","26.282","5.354","7.54","0.442","5.204","0.02","0.39","29.2275","4.63699","56.5","0","SATNPRO1963","31.206","0.43706","5"],
    [19392,"HCEP03730560","2024-04-17 08:15:00","9.4632","3.19649","26.31","5.351","7.54","0.409","4.489","0.04","0.29","29.2313","4.63754","56.46","0","SATNPRO1963","31.658","0.44344","5"],
    [19393,"HCEP03730560","2024-04-17 08:30:00","9.4628","3.19633","26.317","5.353","7.54","0.44","4.593","0.03","0.42","29.23","4.63736","56.49","0","SATNPRO1963","31.352","0.43916","5"],
    [19394,"HCEP03730560","2024-04-17 08:45:00","9.4625","3.19583","26.317","5.36","7.54","0.394","4.373","0.03","0.29","29.2253","4.63669","56.56","0","SATNPRO1963","31.52","0.4415","5"],
    [19395,"HCEP03730560","2024-04-17 09:00:00","9.4624","3.19601","26.338","5.357","7.54","0.439","3.971","0.04","0.27","29.2271","4.63695","56.54","0","SATNPRO1963","31.534","0.44166","5"],
    [19396,"HCEP03730560","2024-04-17 09:15:00","9.4652","3.19951","26.357","5.243","7.53","0.418","5.774","0.05","0.38","29.2602","4.64165","55.35","0","SATNPRO1963","31.348","0.43906","5"],
    [19397,"HCEP03730560","2024-04-17 09:30:00","9.4657","3.19951","26.383","5.15","7.53","0.484","6.702","0.03","0.41","29.2599","4.64159","54.36","0","SATNPRO1963","31.386","0.43964","5"],
    [19398,"HCEP03730560","2024-04-17 09:45:00","9.4643","3.19951","26.428","5.211","7.53","0.408","5.224","0.05","0.45","29.2609","4.64177","55.01","0","SATNPRO1963","31.788","0.44524","5"],
    [19399,"HCEP03730560","2024-04-17 10:00:00","9.4638","3.19894","26.463","5.254","7.53","0.432","4.405","0.04","0.31","29.2556","4.64102","55.46","0","SATNPRO1963","31.696","0.44394","5"],
    [19400,"HCEP03730560","2024-04-17 10:15:00","9.4637","3.19794","26.492","5.282","7.53","0.391","4.145","0.04","0.31","29.2455","4.63958","55.74","0","SATNPRO1963","31.916","0.44702","5"],
    [19401,"HCEP03730560","2024-04-17 10:30:00","9.4637","3.19848","26.534","5.289","7.53","0.437","4.359","0.04","0.27","29.251","4.64037","55.83","0","SATNPRO1963","31.662","0.4435","5"],
    [19402,"HCEP03730560","2024-04-17 10:45:00","9.4638","3.19896","26.594","5.276","7.53","0.385","4.933","0.02","0.48","29.2557","4.64105","55.69","0","SATNPRO1963","31.716","0.44422","5"],
    [19403,"HCEP03730560","2024-04-17 11:00:00","9.4634","3.19979","26.621","5.273","7.53","0.444","5.029","0.04","0.33","29.2644","4.64229","55.66","0","SATNPRO1963","31.764","0.44488","5"],
    [19404,"HCEP03730560","2024-04-17 11:15:00","9.4635","3.19886","26.652","5.289","7.53","0.376","4.399","0.03","0.58","29.2549","4.64094","55.82","0","SATNPRO1963","31.791999999999998","0.44532","5"],
    [19405,"HCEP03730560","2024-04-17 11:30:00","9.4634","3.19879","26.671","5.307","7.53","0.412","4.432","0.03","0.39","29.2543","4.64085","56.01","0","SATNPRO1963","31.688000000000002","0.44382","5"],
    [19406,"HCEP03730560","2024-04-17 11:45:00","9.4636","3.19857","26.698","5.316","7.53","0.391","4.125","0.08","0.29","29.2519","4.6405","56.1","0","SATNPRO1963","31.712","0.44418","5"],
    [19407,"HCEP03730560","2024-04-17 12:00:00","9.4639","3.19879","26.689","5.313","7.53","0.408","3.816","0.02","0.23","29.2539","4.64078","56.08","0","SATNPRO1963","31.8","0.44542","5"],
    [19408,"HCEP03730560","2024-04-17 12:15:00","9.4665","3.1996","26.694","5.244","7.53","0.402","4.373","0.04","0.21","29.2599","4.6416","55.36","0","SATNPRO1963","31.596","0.44254","5"],
    [19409,"HCEP03730560","2024-04-17 12:30:00","9.4675","3.19979","26.717","5.202","7.53","0.479","5.561","0.04","0.35","29.2611","4.64176","54.92","0","SATNPRO1963","31.554","0.44198","5"],
    [19410,"HCEP03730560","2024-04-17 12:45:00","9.4667","3.20002","26.686","5.209","7.53","0.404","5.007","0.04","0.3","29.264","4.64218","54.98","0","SATNPRO1963","31.474","0.44086","5"],
    [19411,"HCEP03730560","2024-04-17 13:00:00","9.4652","3.20092","26.656","5.217","7.53","0.433","5.253","0.02","0.23","29.2744","4.6437","55.07","0","SATNPRO1963","31.474","0.44084","5"],
    [19412,"HCEP03730560","2024-04-17 13:15:00","9.4651","3.20174","26.603","5.201","7.53","0.388","5.33","0.03","0.21","29.2827","4.64489","54.91","0","SATNPRO1963","31.554000000000002","0.44194","5"],
    [19413,"HCEP03730560","2024-04-17 13:30:00","9.4654","3.20199","26.586","5.181","7.52","0.424","5.125","0.02","0.35","29.2851","4.64523","54.7","0","SATNPRO1963","31.695999999999998","0.44398","5"],
    [19414,"HCEP03730560","2024-04-17 13:45:00","9.4653","3.20185","26.523","5.183","7.52","0.386","5.392","0.02","0.41","29.2838","4.64504","54.72","0","SATNPRO1963","31.574","0.44224","5"],
    [19415,"HCEP03730560","2024-04-17 14:00:00","9.4648","3.20207","26.444","5.188","7.52","0.432","4.971","0.03","0.29","29.2864","4.64542","54.77","0","SATNPRO1963","31.432","0.4403","5"],
    [19416,"HCEP03730560","2024-04-17 14:15:00","9.4646","3.20195","26.335","5.192","7.52","0.396","5.429","0.02","0.29","29.2855","4.64528","54.81","0","SATNPRO1963","31.548000000000002","0.44192","5"],
    [19417,"HCEP03730560","2024-04-17 14:30:00","9.4638","3.2021","26.26","5.215","7.52","0.445","5.312","0.04","0.3","29.2875","4.64559","55.05","0","SATNPRO1963","31.568","0.44214","5"],
    [19418,"HCEP03730560","2024-04-17 14:45:00","9.4631","3.20235","26.167","5.23","7.53","0.391","4.83","0.03","0.28","29.2908","4.64606","55.22","0","SATNPRO1963","31.648","0.44328","5"],
    [19419,"HCEP03730560","2024-04-17 15:00:00","9.4635","3.2025","26.057","5.226","7.53","0.441","5.289","0.04","0.33","29.2919","4.64621","55.17","0","SATNPRO1963","31.74","0.44458","5"],
    [19420,"HCEP03730560","2024-04-17 15:15:00","9.4635","3.20262","25.974","5.213","7.52","0.392","5.552","0.03","0.28","29.2932","4.64638","55.04","0","SATNPRO1963","31.602","0.44264","5"],
    [19421,"HCEP03730560","2024-04-17 15:30:00","9.4635","3.20272","25.875","5.21","7.52","0.458","5.619","0.08","0.27","29.2942","4.64653","55.01","0","SATNPRO1963","31.48","0.44094","5"],
    [19422,"HCEP03730560","2024-04-17 15:45:00","9.4635","3.20277","25.762","5.211","7.52","0.388","5.463","0.03","0.36","29.2948","4.64661","55.02","0","SATNPRO1963","31.658","0.44346","5"],
    [19423,"HCEP03730560","2024-04-17 16:00:00","9.4633","3.20284","25.663","5.216","7.52","0.42","5.239","0.03","0.34","29.2958","4.64675","55.07","0","SATNPRO1963","31.908","0.44696","5"],
    [19424,"HCEP03730560","2024-04-17 16:15:00","9.4631","3.20307","25.552","5.229","7.52","0.382","4.88","0.03","0.21","29.2984","4.64711","55.21","0","SATNPRO1963","31.878","0.44654","5"],
    [19425,"HCEP03730560","2024-04-17 16:30:00","9.4631","3.20329","25.447","5.232","7.52","0.417","5.265","0.02","0.28","29.3006","4.64742","55.24","0","SATNPRO1963","31.746","0.44466","5"],
    [19426,"HCEP03730560","2024-04-17 16:45:00","9.4632","3.20343","25.352","5.234","7.52","0.386","4.779","0.03","0.25","29.302","4.64761","55.26","0","SATNPRO1963","31.914","0.44694","5"],
    [19427,"HCEP03730560","2024-04-17 17:00:00","9.4635","3.2036","25.26","5.236","7.52","0.419","4.711","0.03","0.22","29.3034","4.64781","55.28","0","SATNPRO1963","31.93","0.44724","5"],
    [19428,"HCEP03730560","2024-04-17 17:15:00","9.4637","3.20384","25.199","5.229","7.52","0.392","4.918","0.03","0.21","29.3057","4.64813","55.21","0","SATNPRO1963","31.962","0.44764","5"],
    [19429,"HCEP03730560","2024-04-17 17:30:00","9.4643","3.20398","25.137","5.224","7.52","0.416","4.625","0.02","0.41","29.3068","4.64827","55.15","0","SATNPRO1963","31.988","0.44808","5"],
    [19430,"HCEP03730560","2024-04-17 17:45:00","9.4643","3.20421","25.089","5.218","7.52","0.399","5.416","0.06","0.27","29.309","4.64859","55.09","0","SATNPRO1963","31.926","0.44718","5"],
    [19431,"HCEP03730560","2024-04-17 18:00:00","9.4639","3.20423","25.055","5.227","7.52","0.429","4.365","0.05","0.26","29.3095","4.64867","55.19","0","SATNPRO1963","32.068","0.44918","5"],
    [19432,"HCEP03730560","2024-04-17 18:15:00","9.4641","3.2044","25.016","5.233","7.52","0.354","4.276","0.02","0.31","29.3111","4.64889","55.25","0","SATNPRO1963","31.816","0.44566","5"],
    [19433,"HCEP03730560","2024-04-17 18:30:00","9.4628","3.20383","24.985","5.28","7.53","0.391","3.811","0.02","0.22","29.3065","4.64825","55.74","0","SATNPRO1963","32.046","0.44886","5"],
    [19434,"HCEP03730560","2024-04-17 18:45:00","9.4627","3.20359","24.977","5.314","7.53","0.347","4.155","0.03","0.21","29.3041","4.64791","56.11","0","SATNPRO1963","32.28","0.4521","5"],
    [19435,"HCEP03730560","2024-04-17 19:00:00","9.462","3.20339","24.968","5.343","7.53","0.38","4.117","0.02","0.14","29.3028","4.64773","56.41","0","SATNPRO1963","32.15","0.45034","5"],
    [19436,"HCEP03730560","2024-04-17 19:15:00","9.4625","3.20378","25.02","5.316","7.53","0.365","4.344","0.03","0.21","29.3062","4.64821","56.13","0","SATNPRO1963","32.144","0.45024","5"],
    [19437,"HCEP03730560","2024-04-17 19:30:00","9.4622","3.2036","25.077","5.312","7.53","0.394","4.403","0.02","0.39","29.3046","4.64799","56.08","0","SATNPRO1963","32.098","0.44958","5"],
    [19438,"HCEP03730560","2024-04-17 19:45:00","9.4624","3.20386","25.18","5.294","7.53","0.38","4.089","0.07","0.22","29.307","4.64834","55.89","0","SATNPRO1963","31.908","0.44696","5"],
    [19439,"HCEP03730560","2024-04-17 20:00:00","9.4631","3.20392","25.253","5.291","7.53","0.425","5.203","0.04","0.68","29.307","4.64833","55.86","0","SATNPRO1963","32.072","0.4492","5"],
    [19440,"HCEP03730560","2024-04-17 20:15:00","9.4628","3.20386","25.365","5.283","7.53","0.37","4.717","0.02","0.19","29.3066","4.64828","55.78","0","SATNPRO1963","31.992","0.4481","5"],
    [19441,"HCEP03730560","2024-04-17 20:30:00","9.4637","3.20437","25.468","5.259","7.53","0.418","5.036","0.03","0.2","29.3111","4.64892","55.53","0","SATNPRO1963","31.986","0.448","5"],
    [19442,"HCEP03730560","2024-04-17 20:45:00","9.4637","3.20462","25.578","5.254","7.53","0.372","4.935","0.03","0.31","29.3134","4.64926","55.47","0","SATNPRO1963","32.028","0.44858","5"],
    [19443,"HCEP03730560","2024-04-17 21:00:00","9.4638","3.20471","25.711","5.252","7.53","0.41","5.221","0.03","0.37","29.3143","4.64939","55.45","0","SATNPRO1963","32.038","0.44874","5"],
    [19444,"HCEP03730560","2024-04-17 21:15:00","9.4643","3.20503","25.835","5.239","7.53","0.363","5.429","0.01","0.29","29.3171","4.64979","55.32","0","SATNPRO1963","31.95","0.44756","5"],
    [19445,"HCEP03730560","2024-04-17 21:30:00","9.4646","3.20522","25.982","5.227","7.53","0.402","4.998","0.02","0.33","29.3187","4.65003","55.19","0","SATNPRO1963","32.048","0.44892","5"],
    [19446,"HCEP03730560","2024-04-17 21:45:00","9.4645","3.20522","26.141","5.224","7.53","0.37","4.844","0.03","0.35","29.3187","4.65003","55.16","0","SATNPRO1963","31.875999999999998","0.44644","5"],
    [19447,"HCEP03730560","2024-04-17 22:00:00","9.4643","3.205","26.249","5.236","7.53","0.385","4.021","0.03","0.21","29.3166","4.64975","55.28","0","SATNPRO1963","32.112","0.4498","5"],
    [19448,"HCEP03730560","2024-04-17 22:15:00","9.464","3.2048","26.398","5.23","7.53","0.362","4.522","0.02","0.22","29.3147","4.64949","55.22","0","SATNPRO1963","31.926","0.44722","5"],
    [19449,"HCEP03730560","2024-04-17 22:30:00","9.463","3.20393","26.554","5.238","7.53","0.418","4.559","0.03","0.22","29.3067","4.64836","55.31","0","SATNPRO1963","31.838","0.44592","5"],
    [19450,"HCEP03730560","2024-04-17 22:45:00","9.4622","3.2034","26.708","5.265","7.53","0.354","4.022","0.02","0.21","29.3018","4.64769","55.59","0","SATNPRO1963","31.932","0.44726","5"],
    [19451,"HCEP03730560","2024-04-17 23:00:00","9.463","3.20388","26.853","5.253","7.53","0.403","4.506","0.02","0.2","29.3061","4.64829","55.46","0","SATNPRO1963","31.878","0.4465","5"],
    [19452,"HCEP03730560","2024-04-17 23:15:00","9.4645","3.20514","27.015","5.203","7.53","0.381","5.107","0.04","0.33","29.3175","4.64992","54.95","0","SATNPRO1963","32.108000000000004","0.44972","5"],
    [19453,"HCEP03730560","2024-04-17 23:30:00","9.4663","3.20596","27.145","5.188","7.53","0.397","4.739","0.02","0.2","29.3243","4.65086","54.79","0","SATNPRO1963","31.951999999999998","0.44754","5"],
    [19454,"HCEP03730560","2024-04-17 23:45:00","9.467","3.20636","27.257","5.183","7.53","0.354","4.925","0.02","0.32","29.3278","4.65136","54.73","0","SATNPRO1963","32.147999999999996","0.45032","5"],
    [19455,"HCEP03730560","2024-04-18 00:00:00","9.4678","3.20685","27.407","5.179","7.53","0.377","4.314","0.02","0.22","29.332","4.65196","54.7","0","SATNPRO1963","32.506","0.45526","5"],
    [19456,"HCEP03730560","2024-04-18 00:15:00","9.4685","3.20727","27.482","5.173","7.53","0.361","4.335","0.04","0.19","29.3356","4.65247","54.63","0","SATNPRO1963","32.641999999999996","0.45724","5"],
    [19457,"HCEP03730560","2024-04-18 00:30:00","9.4683","3.20744","27.582","5.168","7.53","0.39","4.268","0.03","0.27","29.3375","4.65274","54.58","0","SATNPRO1963","32.275999999999996","0.4521","5"],
    [19458,"HCEP03730560","2024-04-18 00:45:00","9.4683","3.20755","27.638","5.173","7.53","0.332","4.289","0.04","0.38","29.3385","4.6529","54.64","0","SATNPRO1963","32.382","0.45358","5"],
    [19459,"HCEP03730560","2024-04-18 01:00:00","9.4688","3.20765","27.698","5.17","7.53","0.373","4.185","0.04","0.26","29.3391","4.65297","54.6","0","SATNPRO1963","32.216","0.45128","5"],
    [19460,"HCEP03730560","2024-04-18 01:15:00","9.4684","3.20762","27.727","5.181","7.53","0.351","4.087","0.04","0.29","29.3391","4.65298","54.72","0","SATNPRO1963","32.604","0.4567","5"],
    [19461,"HCEP03730560","2024-04-18 01:30:00","9.4684","3.20743","27.735","5.179","7.53","0.38","4.099","0.04","0.26","29.3372","4.65271","54.69","0","SATNPRO1963","32.226","0.4514","5"],
    [19462,"HCEP03730560","2024-04-18 01:45:00","9.4682","3.2073","27.781","5.178","7.53","0.33","3.736","0.06","0.17","29.336","4.65254","54.69","0","SATNPRO1963","32.134","0.4501","5"],
    [19463,"HCEP03730560","2024-04-18 02:00:00","9.4676","3.20711","27.769","5.195","7.53","0.397","3.896","0.04","0.19","29.3347","4.65236","54.87","0","SATNPRO1963","32.244","0.45162","5"],
    [19464,"HCEP03730560","2024-04-18 02:15:00","9.4672","3.20696","27.794","5.214","7.53","0.326","3.839","0.03","0.23","29.3334","4.6522","55.07","0","SATNPRO1963","32.129999999999995","0.45004","5"],
    [19465,"HCEP03730560","2024-04-18 02:30:00","9.4669","3.20716","27.772","5.228","7.53","0.361","3.425","0.06","0.16","29.3357","4.65252","55.21","0","SATNPRO1963","32.36","0.45322","5"],
    [19466,"HCEP03730560","2024-04-18 02:45:00","9.4666","3.20692","27.736","5.238","7.53","0.337","3.379","0.04","0.13","29.3335","4.65221","55.32","0","SATNPRO1963","32.586","0.45638","5"],
    [19467,"HCEP03730560","2024-04-18 03:00:00","9.4663","3.20678","27.689","5.242","7.53","0.377","3.634","0.03","0.22","29.3324","4.65206","55.36","0","SATNPRO1963","32.35","0.45312","5"],
    [19468,"HCEP03730560","2024-04-18 03:15:00","9.4666","3.20681","27.632","5.23","7.53","0.339","3.695","0.04","0.18","29.3325","4.65206","55.23","0","SATNPRO1963","32.870000000000005","0.46036","5"],
    [19469,"HCEP03730560","2024-04-18 03:30:00","9.4656","3.20669","27.563","5.255","7.53","0.359","3.164","0.02","0.13","29.3321","4.65202","55.5","0","SATNPRO1963","32.352","0.45314","5"],
    [19470,"HCEP03730560","2024-04-18 03:45:00","9.4656","3.2066","27.497","5.26","7.53","0.335","3.401","0.06","0.38","29.3311","4.65188","55.55","0","SATNPRO1963","32.188","0.45086","5"],
    [19471,"HCEP03730560","2024-04-18 04:00:00","9.4654","3.20648","27.417","5.262","7.53","0.368","3.822","0.04","0.14","29.3302","4.65175","55.57","0","SATNPRO1963","32.226","0.4514","5"],
    [19472,"HCEP03730560","2024-04-18 04:15:00","9.4648","3.20627","27.324","5.275","7.53","0.328","3.167","0.04","0.17","29.3286","4.65152","55.7","0","SATNPRO1963","32.54","0.45578","5"],
    [19473,"HCEP03730560","2024-04-18 04:30:00","9.4651","3.20611","27.229","5.255","7.53","0.363","3.489","0.02","0.14","29.3268","4.65124","55.5","0","SATNPRO1963","32.32","0.45266","5"],
    [19474,"HCEP03730560","2024-04-18 04:45:00","9.4641","3.20577","27.168","5.297","7.53","0.343","3.995","0.04","0.63","29.3241","4.65088","55.93","0","SATNPRO1963","32.542","0.4558","5"],
    [19475,"HCEP03730560","2024-04-18 05:00:00","9.465","3.20601","27.071","5.266","7.53","0.373","3.783","0.02","0.18","29.3258","4.6511","55.61","0","SATNPRO1963","32.482","0.45494","5"],
    [19476,"HCEP03730560","2024-04-18 05:15:00","9.4634","3.20551","26.959","5.318","7.53","0.332","3.265","0.02","0.19","29.3222","4.6506","56.15","0","SATNPRO1963","32.538000000000004","0.45576","5"],
    [19477,"HCEP03730560","2024-04-18 05:30:00","9.4614","3.20454","26.786","5.347","7.54","0.356","2.576","0.03","0.09","29.3141","4.64946","56.45","0","SATNPRO1963","32.711999999999996","0.4582","5"],
    [19478,"HCEP03730560","2024-04-18 05:45:00","9.4625","3.20451","26.672","5.333","7.54","0.33","2.564","0.03","0.08","29.3129","4.64927","56.31","0","SATNPRO1963","32.321999999999996","0.45272","5"],
    [19479,"HCEP03730560","2024-04-18 06:00:00","9.4631","3.20458","26.562","5.306","7.53","0.366","2.982","0.02","0.08","29.3132","4.64929","56.03","0","SATNPRO1963","32.212","0.45118","5"],
    [19480,"HCEP03730560","2024-04-18 06:15:00","9.4631","3.20437","26.446","5.277","7.53","0.352","3.344","0.05","0.17","29.3111","4.64898","55.72","0","SATNPRO1963","32.148","0.45028","5"],
    [19481,"HCEP03730560","2024-04-18 06:30:00","9.4636","3.20419","26.333","5.232","7.53","0.395","3.66","0.03","0.13","29.3089","4.64866","55.24","0","SATNPRO1963","32.1","0.4496","5"],
    [19482,"HCEP03730560","2024-04-18 06:45:00","9.4637","3.20377","26.232","5.225","7.53","0.401","4.184","0.24","0.21","29.3046","4.64803","55.17","0","SATNPRO1963","31.86","0.44628","5"],
    [19483,"HCEP03730560","2024-04-18 07:00:00","9.4627","3.2031","26.145","5.272","7.53","0.389","3.648","0.03","0.28","29.2987","4.6472","55.66","0","SATNPRO1963","32.266000000000005","0.45192","5"],
    [19484,"HCEP03730560","2024-04-18 07:15:00","9.4634","3.20348","26.08","5.249","7.53","0.333","3.499","0.03","0.13","29.3019","4.64765","55.41","0","SATNPRO1963","31.91","0.44698","5"],
    [19485,"HCEP03730560","2024-04-18 07:30:00","9.4649","3.2046","26.03","5.187","7.53","0.403","4.166","0.04","0.25","29.3121","4.64908","54.77","0","SATNPRO1963","31.95","0.44752","5"],
    [19486,"HCEP03730560","2024-04-18 07:45:00","9.465","3.20497","25.995","5.18","7.52","0.351","3.733","0.02","0.2","29.3158","4.6496","54.69","0","SATNPRO1963","32.05","0.4489","5"],
    [19487,"HCEP03730560","2024-04-18 08:00:00","9.4649","3.20547","25.983","5.212","7.52","0.467","3.087","0.17","0.11","29.321","4.65034","55.04","0","SATNPRO1963","32.156","0.4504","5"],
    [19488,"HCEP03730560","2024-04-18 08:15:00","9.4651","3.20585","25.984","5.218","7.53","0.376","3.881","0.05","0.22","29.3247","4.65087","55.11","0","SATNPRO1963","32.338","0.45292","5"],
    [19489,"HCEP03730560","2024-04-18 08:30:00","9.4676","3.20693","25.988","5.177","7.52","0.408","4.118","0.04","0.2","29.3336","4.6521","54.68","0","SATNPRO1963","32.112","0.44976","5"],
    [19490,"HCEP03730560","2024-04-18 08:45:00","9.468","3.2073","26.016","5.135","7.52","0.376","4.68","0.05","0.26","29.3369","4.65257","54.23","0","SATNPRO1963","32.098","0.44956","5"],
    [19491,"HCEP03730560","2024-04-18 09:00:00","9.4663","3.20733","26.035","5.156","7.52","0.397","4.325","0.02","0.17","29.3387","4.65286","54.46","0","SATNPRO1963","32.098","0.44958","5"],
    [19492,"HCEP03730560","2024-04-18 09:15:00","9.4667","3.20756","26.063","5.18","7.52","0.34","4.104","0.02","0.18","29.3407","4.65314","54.71","0","SATNPRO1963","32.188","0.45082","5"],
    [19493,"HCEP03730560","2024-04-18 09:30:00","9.4667","3.20761","26.1","5.168","7.52","0.395","4.061","0.04","0.07","29.3411","4.6532","54.58","0","SATNPRO1963","32.263999999999996","0.4519","5"],
    [19494,"HCEP03730560","2024-04-18 09:45:00","9.4654","3.20753","26.139","5.178","7.52","0.348","4.271","0.03","0.27","29.3413","4.65326","54.69","0","SATNPRO1963","32.234","0.4515","5"],
    [19495,"HCEP03730560","2024-04-18 10:00:00","9.4659","3.20765","26.176","5.193","7.52","0.389","4.326","0.02","0.11","29.3422","4.65338","54.84","0","SATNPRO1963","32.364","0.4533","5"],
    [19496,"HCEP03730560","2024-04-18 10:15:00","9.4656","3.20771","26.218","5.202","7.52","0.353","4.226","0.03","0.28","29.343","4.6535","54.94","0","SATNPRO1963","32.442","0.45438","5"],
    [19497,"HCEP03730560","2024-04-18 10:30:00","9.4654","3.20765","26.258","5.223","7.53","0.391","3.705","0.05","0.17","29.3424","4.65343","55.16","0","SATNPRO1963","32.2","0.45102","5"],
    [19498,"HCEP03730560","2024-04-18 10:45:00","9.4653","3.20765","26.317","5.199","7.53","0.357","4.101","0.04","0.28","29.3426","4.65346","54.9","0","SATNPRO1963","32.35","0.4531","5"],
    [19499,"HCEP03730560","2024-04-18 11:00:00","9.4653","3.20761","26.39","5.208","7.53","0.384","3.858","0.02","0.18","29.3421","4.65339","55","0","SATNPRO1963","32.22","0.45132","5"],
    [19500,"HCEP03730560","2024-04-18 11:15:00","9.4655","3.20758","26.442","5.188","7.53","0.367","4.279","0.04","0.14","29.3416","4.65332","54.79","0","SATNPRO1963","32.452","0.45456","5"],
    [19501,"HCEP03730560","2024-04-18 11:30:00","9.465","3.20758","26.48","5.195","7.53","0.414","4.462","0.04","0.38","29.342","4.65338","54.86","0","SATNPRO1963","32.17","0.45058","5"],
    [19502,"HCEP03730560","2024-04-18 11:45:00","9.4663","3.20755","26.543","5.17","7.52","0.367","4.402","0.02","0.31","29.3407","4.65318","54.61","0","SATNPRO1963","32.181999999999995","0.45074","5"],
    [19503,"HCEP03730560","2024-04-18 12:00:00","9.4654","3.20746","26.599","5.167","7.52","0.412","4.527","0.03","0.21","29.3404","4.65316","54.57","0","SATNPRO1963","32.298","0.4524","5"],
    [19504,"HCEP03730560","2024-04-18 12:15:00","9.4651","3.20736","26.656","5.157","7.52","0.353","4.122","0.02","0.34","29.3396","4.65304","54.46","0","SATNPRO1963","32.19","0.4509","5"],
    [19505,"HCEP03730560","2024-04-18 12:30:00","9.4656","3.20733","26.742","5.158","7.52","0.418","5.029","0.03","0.6","29.3389","4.65294","54.48","0","SATNPRO1963","32.18","0.45076","5"],
    [19506,"HCEP03730560","2024-04-18 12:45:00","9.4645","3.20727","26.757","5.186","7.52","0.333","3.759","0.02","0.12","29.3392","4.653","54.77","0","SATNPRO1963","32.308","0.45254","5"],
    [19507,"HCEP03730560","2024-04-18 13:00:00","9.4651","3.20731","26.791","5.173","7.52","0.41","5.607","0.03","0.86","29.3391","4.65298","54.63","0","SATNPRO1963","32.156","0.45042","5"],
    [19508,"HCEP03730560","2024-04-18 13:15:00","9.4662","3.20743","26.821","5.139","7.52","0.381","4.651","0.08","0.25","29.3395","4.65302","54.27","0","SATNPRO1963","32.226","0.45136","5"],
    [19509,"HCEP03730560","2024-04-18 13:30:00","9.4669","3.20754","26.819","5.095","7.52","0.435","5.574","0.07","0.44","29.3399","4.65306","53.82","0","SATNPRO1963","31.94","0.44736","5"],
    [19510,"HCEP03730560","2024-04-18 13:45:00","9.466","3.20751","26.81","5.129","7.52","0.365","4.385","0.03","0.24","29.3403","4.65315","54.17","0","SATNPRO1963","32.26","0.45188","5"],
    [19511,"HCEP03730560","2024-04-18 14:00:00","9.4658","3.20748","26.818","5.132","7.52","0.383","4.756","0.02","0.18","29.3402","4.65314","54.2","0","SATNPRO1963","32.058","0.44902","5"],
    [19512,"HCEP03730560","2024-04-18 14:15:00","9.4658","3.20741","26.777","5.145","7.52","0.338","4.29","0.02","0.56","29.3395","4.65303","54.34","0","SATNPRO1963","32.214","0.45124","5"],
    [19513,"HCEP03730560","2024-04-18 14:30:00","9.4642","3.20728","26.707","5.199","7.52","0.37","3.542","0.03","0.14","29.3395","4.65306","54.9","0","SATNPRO1963","32.3","0.45242","5"],
    [19514,"HCEP03730560","2024-04-18 14:45:00","9.4644","3.20718","26.663","5.214","7.52","0.354","3.72","0.07","0.39","29.3384","4.65289","55.07","0","SATNPRO1963","32.204","0.45104","5"],
    [19515,"HCEP03730560","2024-04-18 15:00:00","9.4636","3.2071","26.626","5.238","7.53","0.372","3.57","0.03","0.4","29.3382","4.65287","55.31","0","SATNPRO1963","32.288","0.45228","5"],
    [19516,"HCEP03730560","2024-04-18 15:15:00","9.4635","3.20703","26.522","5.242","7.53","0.32","3.201","0.02","0.07","29.3377","4.65279","55.36","0","SATNPRO1963","32.262","0.45186","5"],
    [19517,"HCEP03730560","2024-04-18 15:30:00","9.4638","3.20691","26.452","5.235","7.53","0.369","3.192","0.02","0.05","29.3362","4.65257","55.29","0","SATNPRO1963","32.194","0.45092","5"],
    [19518,"HCEP03730560","2024-04-18 15:45:00","9.4631","3.20677","26.374","5.238","7.53","0.326","3.363","0.02","0.38","29.3354","4.65247","55.31","0","SATNPRO1963","32.19","0.4509","5"],
    [19519,"HCEP03730560","2024-04-18 16:00:00","9.4602","3.20656","26.267","5.34","7.53","0.341","2.512","0.01","0.2","29.3357","4.65255","56.39","0","SATNPRO1963","32.588","0.45642","5"],
    [19520,"HCEP03730560","2024-04-18 16:15:00","9.4599","3.20596","26.18","5.36","7.53","0.318","2.929","0.02","0.27","29.3299","4.65173","56.6","0","SATNPRO1963","32.332","0.4529","5"],
    [19521,"HCEP03730560","2024-04-18 16:30:00","9.4588","3.20567","26.071","5.374","7.54","0.361","2.61","0.04","0.18","29.328","4.65146","56.74","0","SATNPRO1963","32.594","0.45654","5"],
    [19522,"HCEP03730560","2024-04-18 16:45:00","9.4562","3.20459","25.966","5.433","7.54","0.297","2.284","0.02","0.1","29.3192","4.65024","57.36","0","SATNPRO1963","32.756","0.4588","5"],
    [19523,"HCEP03730560","2024-04-18 17:00:00","9.4579","3.20545","25.875","5.427","7.54","0.347","2.744","0.02","0.11","29.3265","4.65125","57.3","0","SATNPRO1963","32.622","0.45696","5"],
    [19524,"HCEP03730560","2024-04-18 17:15:00","9.4584","3.20589","25.766","5.412","7.54","0.308","2.342","0.04","0.12","29.3306","4.65183","57.14","0","SATNPRO1963","32.802","0.45946","5"],
    [19525,"HCEP03730560","2024-04-18 17:30:00","9.4591","3.20584","25.675","5.387","7.54","0.353","2.5","0.04","0.1","29.3296","4.65167","56.88","0","SATNPRO1963","32.536","0.4557","5"],
    [19526,"HCEP03730560","2024-04-18 17:45:00","9.4615","3.20558","25.556","5.309","7.53","0.325","2.985","0.02","0.19","29.325","4.65095","56.06","0","SATNPRO1963","32.364","0.4533","5"],
    [19527,"HCEP03730560","2024-04-18 18:00:00","9.4579","3.20506","25.484","5.367","7.53","0.346","2.55","0.02","0.22","29.3227","4.65069","56.66","0","SATNPRO1963","32.726","0.4584","5"],
    [19528,"HCEP03730560","2024-04-18 18:15:00","9.4593","3.20489","25.352","5.364","7.54","0.324","2.841","0.02","0.15","29.3199","4.65025","56.63","0","SATNPRO1963","32.226","0.45134","5"],
    [19529,"HCEP03730560","2024-04-18 18:30:00","9.4592","3.20471","25.235","5.357","7.53","0.372","2.946","0.03","0.17","29.3182","4.65","56.56","0","SATNPRO1963","32.536","0.45578","5"],
    [19530,"HCEP03730560","2024-04-18 18:45:00","9.4566","3.2037","25.17","5.381","7.54","0.331","3.101","0.03","0.1","29.3102","4.64889","56.8","0","SATNPRO1963","32.63","0.45704","5"],
    [19531,"HCEP03730560","2024-04-18 19:00:00","9.4547","3.20352","25.143","5.482","7.54","0.355","2.414","0.04","0.18","29.3099","4.64889","57.88","0","SATNPRO1963","32.69","0.45786","5"],
    [19532,"HCEP03730560","2024-04-18 19:15:00","9.4563","3.20296","25.119","5.435","7.54","0.31","2.418","0.02","0.22","29.3029","4.64786","57.38","0","SATNPRO1963","32.598","0.4566","5"],
    [19533,"HCEP03730560","2024-04-18 19:30:00","9.4612","3.20458","25.1","5.304","7.53","0.384","3.714","0.03","0.2","29.3153","4.64955","56.01","0","SATNPRO1963","32.328","0.45278","5"],
    [19534,"HCEP03730560","2024-04-18 19:45:00","9.464","3.20471","25.113","5.198","7.53","0.342","3.821","0.02","0.23","29.3143","4.64936","54.88","0","SATNPRO1963","32.14","0.4502","5"],
    [19535,"HCEP03730560","2024-04-18 20:00:00","9.4621","3.20431","25.125","5.23","7.52","0.381","3.484","0.03","0.16","29.3119","4.64904","55.22","0","SATNPRO1963","32.264","0.4519","5"],
    [19536,"HCEP03730560","2024-04-18 20:15:00","9.4576","3.20372","25.183","5.333","7.53","0.319","2.727","0.03","0.07","29.3095","4.64878","56.3","0","SATNPRO1963","32.588","0.45646","5"],
    [19537,"HCEP03730560","2024-04-18 20:30:00","9.4591","3.20361","25.219","5.402","7.54","0.355","2.715","0.03","0.07","29.3072","4.64843","57.03","0","SATNPRO1963","32.5","0.4552","5"],
    [19538,"HCEP03730560","2024-04-18 20:45:00","9.4605","3.20345","25.295","5.356","7.53","0.317","2.789","0.02","0.08","29.3044","4.64801","56.55","0","SATNPRO1963","32.558","0.45608","5"],
    [19539,"HCEP03730560","2024-04-18 21:00:00","9.4601","3.20335","25.404","5.37","7.54","1.252","19.013","1.66","27.16","29.3037","4.64792","56.7","0","SATNPRO1963","32.492","0.45512","5"],
    [19540,"HCEP03730560","2024-04-18 21:15:00","9.4565","3.20277","25.464","5.464","7.54","0.304","2.146","0.02","0.06","29.3007","4.64756","57.67","0","SATNPRO1963","32.47","0.45482","5"],
    [19541,"HCEP03730560","2024-04-18 21:30:00","9.4557","3.20275","25.551","5.504","7.54","0.35","2.383","0.03","0.06","29.3011","4.64763","58.1","0","SATNPRO1963","32.546","0.45586","5"],
    [19542,"HCEP03730560","2024-04-18 21:45:00","9.4606","3.20344","25.639","5.408","7.54","0.342","2.838","0.05","0.11","29.304","4.64797","57.09","0","SATNPRO1963","32.304","0.45246","5"],
    [19543,"HCEP03730560","2024-04-18 22:00:00","9.464","3.20376","25.771","5.265","7.53","0.382","3.201","0.04","0.09","29.3045","4.64798","55.58","0","SATNPRO1963","32.12","0.44988","5"],
    [19544,"HCEP03730560","2024-04-18 22:15:00","9.4656","3.20436","25.893","5.155","7.53","0.365","3.923","0.03","0.13","29.3092","4.64864","54.44","0","SATNPRO1963","32.15","0.45032","5"],
    [19545,"HCEP03730560","2024-04-18 22:30:00","9.4687","3.20497","26.021","5.024","7.52","0.429","4.991","0.04","0.16","29.3128","4.6491","53.05","0","SATNPRO1963","31.568","0.44218","5"],
    [19546,"HCEP03730560","2024-04-18 22:45:00","9.4722","3.20542","26.156","4.828","7.51","0.411","6.544","0.05","0.42","29.3144","4.64928","50.99","0","SATNPRO1963","30.982","0.43394","5"],
    [19547,"HCEP03730560","2024-04-18 23:00:00","9.4673","3.20502","26.318","4.937","7.5","0.414","5.412","0.03","0.35","29.3143","4.64937","52.14","0","SATNPRO1963","31.604","0.44266","5"],
    [19548,"HCEP03730560","2024-04-18 23:15:00","9.4638","3.20459","26.496","5.088","7.51","0.353","4.555","0.02","0.23","29.3127","4.6492","53.72","0","SATNPRO1963","31.936","0.44732","5"],
    [19549,"HCEP03730560","2024-04-18 23:30:00","9.4621","3.20452","26.657","5.151","7.52","0.402","4.396","0.04","0.16","29.3133","4.64934","54.39","0","SATNPRO1963","31.888","0.44666","5"],
    [19550,"HCEP03730560","2024-04-18 23:45:00","9.4653","3.20481","26.803","5.059","7.52","0.381","5.8","0.06","0.25","29.3137","4.64934","53.42","0","SATNPRO1963","31.676","0.44366","5"],
    [19551,"HCEP03730560","2024-04-19 00:00:00","9.4601","3.20436","26.95","5.109","7.52","0.384","4.247","0.02","0.19","29.3133","4.64939","53.94","0","SATNPRO1963","31.82","0.4457","5"],
    [19552,"HCEP03730560","2024-04-19 00:15:00","9.4617","3.20471","27.062","5.156","7.52","0.362","4.271","0.06","0.19","29.3154","4.64967","54.44","0","SATNPRO1963","31.752","0.44474","5"],
    [19553,"HCEP03730560","2024-04-19 00:30:00","9.4617","3.20471","27.217","5.13","7.52","0.388","4.433","0.02","0.27","29.3153","4.64966","54.16","0","SATNPRO1963","31.726","0.44438","5"],
    [19554,"HCEP03730560","2024-04-19 00:45:00","9.462","3.20489","27.337","5.096","7.52","0.354","4.487","0.02","0.3","29.3168","4.64988","53.8","0","SATNPRO1963","31.744","0.44464","5"],
    [19555,"HCEP03730560","2024-04-19 01:00:00","9.4619","3.20497","27.441","5.094","7.52","0.425","4.249","0.02","0.12","29.3177","4.65002","53.78","0","SATNPRO1963","31.864","0.4463","5"],
    [19556,"HCEP03730560","2024-04-19 01:15:00","9.4622","3.2051","27.53","5.1","7.52","0.359","4.936","0.02","0.38","29.3187","4.65016","53.85","0","SATNPRO1963","31.706","0.44412","5"],
    [19557,"HCEP03730560","2024-04-19 01:30:00","9.4634","3.20514","27.603","5.065","7.52","0.393","4.314","0.03","0.27","29.3182","4.65007","53.48","0","SATNPRO1963","31.89","0.44668","5"],
    [19558,"HCEP03730560","2024-04-19 01:45:00","9.4636","3.2052","27.644","5.061","7.52","0.357","4.782","0.02","0.28","29.3185","4.65012","53.44","0","SATNPRO1963","31.628","0.443","5"],
    [19559,"HCEP03730560","2024-04-19 02:00:00","9.4621","3.20509","27.668","5.079","7.52","0.382","5.02","0.02","0.28","29.3188","4.65018","53.62","0","SATNPRO1963","31.818","0.44566","5"],
    [19560,"HCEP03730560","2024-04-19 02:15:00","9.4624","3.20493","27.681","5.089","7.52","0.366","5.762","0.03","0.3","29.3168","4.6499","53.74","0","SATNPRO1963","31.758","0.44482","5"],
    [19561,"HCEP03730560","2024-04-19 02:30:00","9.4597","3.2047","27.682","5.133","7.52","0.396","5.297","0.03","0.18","29.3167","4.64992","54.19","0","SATNPRO1963","32.124","0.44996","5"],
    [19562,"HCEP03730560","2024-04-19 02:45:00","9.461","3.20469","27.669","5.133","7.52","0.381","5.295","0.06","0.14","29.3156","4.64973","54.2","0","SATNPRO1963","31.74","0.44456","5"],
    [19563,"HCEP03730560","2024-04-19 03:00:00","9.4589","3.20449","27.638","5.179","7.52","0.397","4.262","0.03","0.26","29.3153","4.64973","54.68","0","SATNPRO1963","32.208","0.45116","5"],
    [19564,"HCEP03730560","2024-04-19 03:15:00","9.4598","3.20452","27.604","5.165","7.52","0.353","4.826","0.02","0.39","29.3149","4.64965","54.53","0","SATNPRO1963","31.994","0.4481","5"],
    [19565,"HCEP03730560","2024-04-19 03:30:00","9.4578","3.20439","27.556","5.206","7.53","0.385","5.042","0.02","0.16","29.3153","4.64974","54.96","0","SATNPRO1963","32.174","0.45062","5"],
    [19566,"HCEP03730560","2024-04-19 03:45:00","9.458","3.20432","27.502","5.204","7.53","0.327","3.907","0.03","0.23","29.3143","4.64959","54.94","0","SATNPRO1963","31.87","0.4464","5"],
    [19567,"HCEP03730560","2024-04-19 04:00:00","9.459","3.2043","27.435","5.185","7.53","0.395","3.744","0.02","0.19","29.3134","4.64945","54.74","0","SATNPRO1963","31.462","0.44064","5"],
    [19568,"HCEP03730560","2024-04-19 04:15:00","9.4578","3.20415","27.356","5.216","7.53","0.378","4.503","0.05","0.12","29.3129","4.64939","55.07","0","SATNPRO1963","31.842","0.446","5"],
    [19569,"HCEP03730560","2024-04-19 04:30:00","9.4551","3.20394","27.282","5.303","7.53","0.372","4.091","0.03","0.29","29.313","4.64945","55.98","0","SATNPRO1963","32.246","0.45164","5"],
    [19570,"HCEP03730560","2024-04-19 04:45:00","9.4571","3.20401","27.191","5.284","7.53","0.329","2.989","0.06","0.11","29.312","4.64927","55.79","0","SATNPRO1963","32.258","0.4518","5"],
    [19571,"HCEP03730560","2024-04-19 05:00:00","9.4609","3.20413","27.098","5.185","7.53","0.382","3.922","0.03","0.19","29.3101","4.64892","54.74","0","SATNPRO1963","31.892","0.44668","5"],
    [19572,"HCEP03730560","2024-04-19 05:15:00","9.4512","3.20287","27.028","5.416","7.54","0.326","2.285","0.06","0.17","29.3054","4.64841","57.17","0","SATNPRO1963","32.582","0.45636","5"],
    [19573,"HCEP03730560","2024-04-19 05:30:00","9.4709","3.20496","26.919","5.029","7.52","0.44","6.365","0.02","0.42","29.3105","4.6488","53.11","0","SATNPRO1963","31.33","0.43884","5"],
    [19574,"HCEP03730560","2024-04-19 05:45:00","9.4691","3.20552","26.807","4.883","7.51","0.37","4.937","0.04","0.5","29.3177","4.64985","51.57","0","SATNPRO1963","31.434","0.44028","5"],
    [19575,"HCEP03730560","2024-04-19 06:00:00","9.4662","3.20559","26.695","5.016","7.51","0.407","4.798","0.02","0.39","29.3209","4.65035","52.97","0","SATNPRO1963","32.08","0.44934","5"],
    [19576,"HCEP03730560","2024-04-19 06:15:00","9.4611","3.20496","26.555","5.193","7.52","0.334","4.095","0.02","0.3","29.3187","4.65011","54.83","0","SATNPRO1963","32.534","0.45566","5"],
    [19577,"HCEP03730560","2024-04-19 06:30:00","9.4618","3.20507","26.41","5.228","7.52","0.387","4.253","0.02","0.31","29.3192","4.65017","55.21","0","SATNPRO1963","32.13","0.45002","5"],
    [19578,"HCEP03730560","2024-04-19 06:45:00","9.4595","3.2044","26.261","5.288","7.53","0.349","3.671","0.06","0.29","29.3144","4.64952","55.83","0","SATNPRO1963","32.48","0.45494","5"],
    [19579,"HCEP03730560","2024-04-19 07:00:00","9.4614","3.20484","26.131","5.248","7.53","0.384","3.789","0.03","0.25","29.3174","4.6499","55.41","0","SATNPRO1963","32.282","0.45214","5"],
    [19580,"HCEP03730560","2024-04-19 07:15:00","9.461","3.20462","26.02","5.223","7.52","0.349","4.159","0.02","0.22","29.3156","4.64964","55.14","0","SATNPRO1963","32.094","0.44952","5"],
    [19581,"HCEP03730560","2024-04-19 07:30:00","9.4622","3.20473","25.901","5.196","7.52","0.392","4.188","0.02","0.23","29.3157","4.64963","54.86","0","SATNPRO1963","32.156","0.45042","5"],
    [19582,"HCEP03730560","2024-04-19 07:45:00","9.4637","3.2052","25.817","5.144","7.52","0.351","4.257","0.02","0.18","29.3192","4.65011","54.32","0","SATNPRO1963","32.006","0.44832","5"],
    [19583,"HCEP03730560","2024-04-19 08:00:00","9.463","3.20503","25.765","5.141","7.52","0.394","3.979","0.02","0.15","29.3182","4.64997","54.28","0","SATNPRO1963","32.222","0.45138","5"],
    [19584,"HCEP03730560","2024-04-19 08:15:00","9.4646","3.20564","25.694","5.098","7.52","0.357","4.196","0.03","0.13","29.323","4.65062","53.83","0","SATNPRO1963","31.962","0.4477","5"],
    [19585,"HCEP03730560","2024-04-19 08:30:00","9.4659","3.20616","25.653","5.052","7.51","0.401","4.035","0.03","0.11","29.3272","4.65121","53.35","0","SATNPRO1963","31.84","0.44598","5"],
    [19586,"HCEP03730560","2024-04-19 08:45:00","9.4672","3.20655","25.669","5.01","7.51","0.355","4.074","0.03","0.12","29.3301","4.65159","52.9","0","SATNPRO1963","31.788","0.44522","5"],
    [19587,"HCEP03730560","2024-04-19 09:00:00","9.4675","3.20682","25.683","5.002","7.51","0.391","4.015","0.02","0.15","29.3327","4.65196","52.83","0","SATNPRO1963","31.924","0.44716","5"],
    [19588,"HCEP03730560","2024-04-19 09:15:00","9.4682","3.20708","25.707","4.998","7.51","0.36","3.864","0.03","0.16","29.3347","4.65223","52.79","0","SATNPRO1963","31.881999999999998","0.44652","5"],
    [19589,"HCEP03730560","2024-04-19 09:30:00","9.4683","3.20725","25.739","4.983","7.51","0.419","3.868","0.05","0.13","29.3363","4.65246","52.63","0","SATNPRO1963","31.866","0.44638","5"],
    [19590,"HCEP03730560","2024-04-19 09:45:00","9.4695","3.20756","25.782","4.958","7.5","0.363","4.443","0.02","0.17","29.3385","4.65276","52.36","0","SATNPRO1963","31.846","0.44604","5"],
    [19591,"HCEP03730560","2024-04-19 10:00:00","9.47","3.20783","25.826","4.941","7.5","0.39","4.135","0.02","0.13","29.3407","4.65308","52.19","0","SATNPRO1963","31.96","0.44764","5"],
    [19592,"HCEP03730560","2024-04-19 10:15:00","9.4702","3.20805","25.875","4.937","7.5","0.372","4.124","0.04","0.18","29.3428","4.65337","52.14","0","SATNPRO1963","32.123999999999995","0.44994","5"],
    [19593,"HCEP03730560","2024-04-19 10:30:00","9.4702","3.20827","25.922","4.936","7.5","0.436","4.204","0.12","0.18","29.3449","4.65368","52.14","0","SATNPRO1963","31.608","0.44274","5"],
    [19594,"HCEP03730560","2024-04-19 10:45:00","9.4706","3.20847","26.007","4.941","7.5","0.373","4.305","0.03","0.17","29.3467","4.65393","52.19","0","SATNPRO1963","31.794","0.44536","5"],
    [19595,"HCEP03730560","2024-04-19 11:00:00","9.4709","3.20853","26.09","4.932","7.5","0.405","4.245","0.03","0.25","29.3469","4.65396","52.1","0","SATNPRO1963","31.951999999999998","0.44754","5"],
    [19596,"HCEP03730560","2024-04-19 11:15:00","9.4707","3.20855","26.164","4.935","7.5","0.375","4.191","0.03","0.11","29.3473","4.65403","52.13","0","SATNPRO1963","31.972","0.44784","5"],
    [19597,"HCEP03730560","2024-04-19 11:30:00","9.4712","3.20863","26.244","4.929","7.5","0.395","4.081","0.02","0.09","29.3476","4.65406","52.07","0","SATNPRO1963","31.908","0.44692","5"],
    [19598,"HCEP03730560","2024-04-19 11:45:00","9.4714","3.20869","26.321","4.927","7.5","0.358","3.997","0.02","0.12","29.3481","4.65414","52.05","0","SATNPRO1963","31.712","0.4442","5"],
    [19599,"HCEP03730560","2024-04-19 12:00:00","9.4705","3.20862","26.413","4.954","7.5","0.398","3.729","0.03","0.32","29.3481","4.65415","52.33","0","SATNPRO1963","32.03","0.44862","5"],
    [19600,"HCEP03730560","2024-04-19 12:15:00","9.471","3.20875","26.494","4.964","7.51","0.346","3.867","0.04","0.12","29.349","4.65428","52.43","0","SATNPRO1963","32.506","0.45532","5"],
    [19601,"HCEP03730560","2024-04-19 12:30:00","9.4715","3.20888","26.578","4.946","7.51","0.402","3.869","0.04","0.16","29.3499","4.6544","52.24","0","SATNPRO1963","31.977999999999998","0.4479","5"],
    [19602,"HCEP03730560","2024-04-19 12:45:00","9.4719","3.20895","26.671","4.92","7.5","0.353","4.269","0.02","0.26","29.3502","4.65445","51.97","0","SATNPRO1963","31.894000000000002","0.44674","5"],
    [19603,"HCEP03730560","2024-04-19 13:00:00","9.4714","3.2089","26.744","4.938","7.5","0.386","3.698","0.05","0.16","29.35","4.65443","52.16","0","SATNPRO1963","31.978","0.4479","5"],
    [19604,"HCEP03730560","2024-04-19 13:15:00","9.4717","3.20893","26.811","4.938","7.5","0.348","3.993","0.03","0.19","29.3501","4.65445","52.16","0","SATNPRO1963","31.866","0.44632","5"],
    [19605,"HCEP03730560","2024-04-19 13:30:00","9.471","3.20887","26.852","4.944","7.5","0.368","3.515","0.01","0.13","29.35","4.65444","52.22","0","SATNPRO1963","31.946","0.44744","5"],
    [19606,"HCEP03730560","2024-04-19 13:45:00","9.4721","3.20893","26.911","4.92","7.5","0.378","4.234","0.12","0.16","29.3497","4.65438","51.97","0","SATNPRO1963","31.945999999999998","0.44746","5"],
    [19607,"HCEP03730560","2024-04-19 14:00:00","9.4692","3.20837","26.945","4.97","7.51","0.386","3.498","0.03","0.17","29.3463","4.65396","52.5","0","SATNPRO1963","32.202","0.45106","5"],
    [19608,"HCEP03730560","2024-04-19 14:15:00","9.4686","3.20793","26.968","5.009","7.51","0.353","3.41","0.05","0.13","29.3424","4.6534","52.91","0","SATNPRO1963","32.204","0.4511","5"],
    [19609,"HCEP03730560","2024-04-19 14:30:00","9.4692","3.20811","26.976","4.996","7.51","0.371","3.375","0.01","0.14","29.3438","4.6536","52.77","0","SATNPRO1963","31.942","0.44744","5"],
    [19610,"HCEP03730560","2024-04-19 14:45:00","9.4695","3.20808","26.983","4.982","7.51","0.366","3.654","0.03","0.26","29.3431","4.6535","52.62","0","SATNPRO1963","31.990000000000002","0.44806","5"],
    [19611,"HCEP03730560","2024-04-19 15:00:00","9.4676","3.20676","26.975","5.002","7.51","0.408","3.237","0.06","0.18","29.3314","4.65185","52.82","0","SATNPRO1963","32.217999999999996","0.45126","5"],
    [19612,"HCEP03730560","2024-04-19 15:15:00","9.468","3.20682","26.914","5.01","7.51","0.354","3.305","0.03","0.17","29.3317","4.65188","52.91","0","SATNPRO1963","32.006","0.44828","5"],
    [19613,"HCEP03730560","2024-04-19 15:30:00","9.4673","3.20682","26.871","5.009","7.51","0.402","3.398","0.04","0.18","29.3323","4.65198","52.9","0","SATNPRO1963","32.07","0.44924","5"],
    [19614,"HCEP03730560","2024-04-19 15:45:00","9.4661","3.20647","26.83","5.039","7.51","0.367","3.258","0.05","0.1","29.3298","4.65163","53.22","0","SATNPRO1963","32.106","0.44972","5"],
    [19615,"HCEP03730560","2024-04-19 16:00:00","9.4676","3.20717","26.762","5.011","7.51","0.404","3.943","0.03","0.14","29.3356","4.65244","52.92","0","SATNPRO1963","32.046","0.44886","5"],
    [19616,"HCEP03730560","2024-04-19 16:15:00","9.4656","3.20655","26.694","5.062","7.51","0.344","3.323","0.03","0.1","29.331","4.65182","53.46","0","SATNPRO1963","32.230000000000004","0.45146","5"],
    [19617,"HCEP03730560","2024-04-19 16:30:00","9.4653","3.20647","26.602","5.072","7.51","0.394","3.655","0.02","0.17","29.3305","4.65174","53.56","0","SATNPRO1963","31.964","0.44774","5"],
    [19618,"HCEP03730560","2024-04-19 16:45:00","9.4702","3.20765","26.522","4.923","7.51","0.363","4.443","0.02","0.17","29.3385","4.65279","51.99","0","SATNPRO1963","31.66","0.44346","5"],
    [19619,"HCEP03730560","2024-04-19 17:00:00","9.4682","3.20718","26.425","4.925","7.5","0.401","3.755","0.02","0.15","29.3354","4.65239","52.02","0","SATNPRO1963","31.984","0.44802","5"],
    [19620,"HCEP03730560","2024-04-19 17:15:00","9.4646","3.20638","26.325","5.033","7.51","0.358","3.354","0.04","0.11","29.3303","4.6517","53.15","0","SATNPRO1963","32.24","0.45156","5"],
    [19621,"HCEP03730560","2024-04-19 17:30:00","9.4645","3.20621","26.221","5.098","7.51","0.456","3.556","0.06","0.11","29.3287","4.65147","53.84","0","SATNPRO1963","32.146","0.45026","5"],
    [19622,"HCEP03730560","2024-04-19 17:45:00","9.465","3.20633","26.11","5.07","7.51","0.356","3.34","0.03","0.07","29.3296","4.65159","53.54","0","SATNPRO1963","32.088","0.44942","5"],
    [19623,"HCEP03730560","2024-04-19 18:00:00","9.4665","3.20649","25.989","5.017","7.51","0.446","3.932","0.12","0.16","29.3299","4.6516","52.98","0","SATNPRO1963","31.75","0.4447","5"],
    [19624,"HCEP03730560","2024-04-19 18:15:00","9.4645","3.20571","25.879","5.056","7.51","0.352","3.746","0.01","0.12","29.3238","4.65074","53.39","0","SATNPRO1963","32.32","0.4527","5"],
    [19625,"HCEP03730560","2024-04-19 18:30:00","9.4641","3.2057","25.766","5.079","7.51","0.379","3.896","0.02","0.1","29.324","4.65078","53.63","0","SATNPRO1963","32.098","0.4496","5"],
    [19626,"HCEP03730560","2024-04-19 18:45:00","9.4641","3.20573","25.657","5.068","7.51","0.38","4.046","0.02","0.17","29.3244","4.65083","53.52","0","SATNPRO1963","32.194","0.45092","5"],
    [19627,"HCEP03730560","2024-04-19 19:00:00","9.4618","3.20493","25.55","5.156","7.51","0.403","3.145","0.06","0.13","29.3182","4.64998","54.45","0","SATNPRO1963","32.034","0.44872","5"],
    [19628,"HCEP03730560","2024-04-19 19:15:00","9.465","3.20563","25.446","5.067","7.51","0.339","3.454","0.02","0.11","29.3227","4.65056","53.51","0","SATNPRO1963","32.278","0.4521","5"],
    [19629,"HCEP03730560","2024-04-19 19:30:00","9.4636","3.20535","25.324","5.09","7.51","0.404","3.473","0.07","0.17","29.321","4.65034","53.75","0","SATNPRO1963","32.21","0.4512","5"],
    [19630,"HCEP03730560","2024-04-19 19:45:00","9.4639","3.20549","25.266","5.098","7.51","0.351","3.888","0.02","0.13","29.3222","4.6505","53.83","0","SATNPRO1963","32.214","0.45122","5"],
    [19631,"HCEP03730560","2024-04-19 20:00:00","9.4637","3.20546","25.217","5.119","7.51","0.385","3.424","0.02","0.13","29.3222","4.65049","54.06","0","SATNPRO1963","32.136","0.45012","5"],
    [19632,"HCEP03730560","2024-04-19 20:15:00","9.4648","3.20569","25.192","5.072","7.51","0.346","3.399","0.03","0.28","29.3236","4.65068","53.56","0","SATNPRO1963","31.96","0.44764","5"],
    [19633,"HCEP03730560","2024-04-19 20:30:00","9.4621","3.20542","25.211","5.138","7.51","0.396","3.198","0.03","0.28","29.3231","4.65065","54.25","0","SATNPRO1963","32.414","0.45406","5"],
    [19634,"HCEP03730560","2024-04-19 20:45:00","9.4641","3.20586","25.185","5.135","7.51","0.337","3.202","0.02","0.18","29.3259","4.65102","54.22","0","SATNPRO1963","32.162","0.45054","5"],
    [19635,"HCEP03730560","2024-04-19 21:00:00","9.4644","3.20595","25.231","5.091","7.51","0.386","3.578","0.05","0.16","29.3265","4.6511","53.76","0","SATNPRO1963","32.158","0.45042","5"],
    [19636,"HCEP03730560","2024-04-19 21:15:00","9.4611","3.2054","25.283","5.188","7.52","0.325","2.786","0.04","0.15","29.3237","4.65076","54.78","0","SATNPRO1963","32.568","0.45616","5"],
    [19637,"HCEP03730560","2024-04-19 21:30:00","9.4605","3.20527","25.314","5.239","7.52","0.365","2.563","0.03","0.07","29.3228","4.65064","55.32","0","SATNPRO1963","32.714","0.45822","5"],
    [19638,"HCEP03730560","2024-04-19 21:45:00","9.4573","3.20416","25.409","5.356","7.53","0.325","2.596","0.03","0.32","29.3141","4.64946","56.55","0","SATNPRO1963","32.712","0.4582","5"],
    [19639,"HCEP03730560","2024-04-19 22:00:00","9.462","3.20541","25.538","5.244","7.53","0.372","2.974","0.03","0.09","29.323","4.65066","55.37","0","SATNPRO1963","32.48","0.45496","5"],
    [19640,"HCEP03730560","2024-04-19 22:15:00","9.4659","3.20607","25.607","5.083","7.52","0.343","3.706","0.02","0.11","29.3264","4.65108","53.67","0","SATNPRO1963","31.996000000000002","0.44814","5"],
    [19641,"HCEP03730560","2024-04-19 22:30:00","9.464","3.20579","25.734","5.073","7.52","0.38","3.484","0.05","0.13","29.325","4.65093","53.56","0","SATNPRO1963","32.066","0.44914","5"],
    [19642,"HCEP03730560","2024-04-19 22:45:00","9.4647","3.20585","25.871","5.086","7.52","0.336","3.438","0.02","0.15","29.3249","4.65091","53.7","0","SATNPRO1963","32.086","0.44938","5"],
    [19643,"HCEP03730560","2024-04-19 23:00:00","9.4654","3.20601","25.993","5.029","7.51","0.395","3.341","0.03","0.07","29.3259","4.65105","53.1","0","SATNPRO1963","32.134","0.45006","5"],
    [19644,"HCEP03730560","2024-04-19 23:15:00","9.4653","3.20601","26.133","5.026","7.51","0.352","3.272","0.04","0.09","29.3261","4.65108","53.07","0","SATNPRO1963","32.172","0.4506","5"],
    [19645,"HCEP03730560","2024-04-19 23:30:00","9.4644","3.20589","26.3","5.057","7.51","0.378","2.84","0.03","0.05","29.3255","4.65102","53.4","0","SATNPRO1963","32.192","0.4509","5"],
    [19646,"HCEP03730560","2024-04-19 23:45:00","9.4608","3.20525","26.414","5.187","7.52","0.32","2.422","0.02","0.07","29.3219","4.65057","54.76","0","SATNPRO1963","32.434","0.4543","5"],
    [19647,"HCEP03730560","2024-04-20 00:00:00","9.4653","3.20603","26.585","5.082","7.52","0.361","2.877","0.01","0.07","29.326","4.6511","53.66","0","SATNPRO1963","32.058","0.44904","5"],
    [19648,"HCEP03730560","2024-04-20 00:15:00","9.4631","3.2057","26.726","5.095","7.52","0.325","2.67","0.02","0.05","29.3245","4.65092","53.8","0","SATNPRO1963","32.054","0.44898","5"],
    [19649,"HCEP03730560","2024-04-20 00:30:00","9.4649","3.20601","26.866","5.064","7.52","0.375","2.93","0.02","0.15","29.3261","4.65113","53.48","0","SATNPRO1963","31.95","0.44754","5"],
    [19650,"HCEP03730560","2024-04-20 00:45:00","9.4654","3.20631","27.007","5.029","7.51","1.032","32.338","1.03","32.39","29.3286","4.65149","53.11","0","SATNPRO1963","31.974","0.44784","5"],
    [19651,"HCEP03730560","2024-04-20 01:00:00","9.4651","3.2065","27.158","5.047","7.51","3.99","49.019","3.17","16.33","29.3306","4.65179","53.3","0","SATNPRO1963","32.316","0.45266","5"],
    [19652,"HCEP03730560","2024-04-20 01:15:00","9.4621","3.20579","27.252","5.141","7.52","0.338","2.46","0.06","0.36","29.326","4.65119","54.28","0","SATNPRO1963","32.49","0.4551","5"],
    [19653,"HCEP03730560","2024-04-20 01:30:00","9.4641","3.20625","27.381","5.128","7.52","0.363","2.847","0.02","0.06","29.3289","4.65157","54.15","0","SATNPRO1963","32.24","0.45162","5"],
    [19654,"HCEP03730560","2024-04-20 01:45:00","9.464","3.20637","27.454","5.114","7.52","0.312","2.631","0.01","0.11","29.3302","4.65176","54","0","SATNPRO1963","32.232","0.45148","5"],
    [19655,"HCEP03730560","2024-04-20 02:00:00","9.4654","3.20645","27.568","5.074","7.52","0.365","2.758","0.02","0.09","29.3298","4.65169","53.59","0","SATNPRO1963","31.934","0.44732","5"],
    [19656,"HCEP03730560","2024-04-20 02:15:00","9.463","3.20568","27.6","5.124","7.52","0.322","2.487","0.02","0.08","29.324","4.6509","54.11","0","SATNPRO1963","32.362","0.45328","5"],
    [19657,"HCEP03730560","2024-04-20 02:30:00","9.4644","3.20572","27.626","5.102","7.52","0.367","2.859","0.02","0.1","29.3232","4.65077","53.87","0","SATNPRO1963","32.168","0.45054","5"],
    [19658,"HCEP03730560","2024-04-20 02:45:00","9.4663","3.20624","27.654","5.043","7.52","0.338","2.952","0.02","0.12","29.3269","4.65126","53.26","0","SATNPRO1963","31.951999999999998","0.44752","5"],
    [19659,"HCEP03730560","2024-04-20 03:00:00","9.4646","3.20545","27.657","5.046","7.51","0.376","2.641","0.03","0.09","29.3204","4.65036","53.28","0","SATNPRO1963","32.114","0.44982","5"],
    [19660,"HCEP03730560","2024-04-20 03:15:00","9.4642","3.20529","27.642","5.057","7.52","0.324","2.708","0.02","0.1","29.319","4.65017","53.4","0","SATNPRO1963","32.144","0.45022","5"],
    [19661,"HCEP03730560","2024-04-20 03:30:00","9.4635","3.20454","27.637","5.08","7.52","0.389","3.03","0.04","0.09","29.312","4.64917","53.64","0","SATNPRO1963","32.218","0.45124","5"],
    [19662,"HCEP03730560","2024-04-20 03:45:00","9.4636","3.20426","27.599","5.089","7.52","0.344","3.065","0.03","0.22","29.3091","4.64875","53.73","0","SATNPRO1963","31.804","0.44546","5"],
    [19663,"HCEP03730560","2024-04-20 04:00:00","9.4638","3.2048","27.553","5.09","7.52","0.402","3.039","0.05","0.28","29.3144","4.64951","53.74","0","SATNPRO1963","32.106","0.44968","5"],
    [19664,"HCEP03730560","2024-04-20 04:15:00","9.4637","3.20426","27.455","5.077","7.52","0.335","2.966","0.04","0.14","29.3091","4.64875","53.6","0","SATNPRO1963","32.116","0.44984","5"],
    [19665,"HCEP03730560","2024-04-20 04:30:00","9.4636","3.20452","27.375","5.078","7.52","0.368","3.247","0.02","0.12","29.3119","4.64914","53.62","0","SATNPRO1963","32.15","0.45032","5"],
    [19666,"HCEP03730560","2024-04-20 04:45:00","9.4638","3.20484","27.307","5.074","7.52","0.334","2.746","0.03","0.12","29.3149","4.64957","53.57","0","SATNPRO1963","32.162","0.45052","5"],
    [19667,"HCEP03730560","2024-04-20 05:00:00","9.4637","3.20462","27.196","5.075","7.52","0.379","3.086","0.02","0.2","29.3128","4.64927","53.59","0","SATNPRO1963","32.108","0.44972","5"],
    [19668,"HCEP03730560","2024-04-20 05:15:00","9.4625","3.20461","27.103","5.112","7.52","0.333","3.167","0.03","0.18","29.3137","4.64941","53.98","0","SATNPRO1963","32.36","0.45326","5"],
    [19669,"HCEP03730560","2024-04-20 05:30:00","9.4692","3.20696","27.001","4.942","7.51","0.403","3.649","0.02","0.19","29.3321","4.65192","52.2","0","SATNPRO1963","32.002","0.44826","5"],
    [19670,"HCEP03730560","2024-04-20 05:45:00","9.4699","3.20733","26.887","4.886","7.5","0.715","18.325","0.32","20.79","29.3354","4.65237","51.61","0","SATNPRO1963","32.042","0.44882","5"],
    [19671,"HCEP03730560","2024-04-20 06:00:00","9.4695","3.20787","26.758","4.889","7.5","0.455","2.964","0.26","0.21","29.3412","4.65321","51.64","0","SATNPRO1963","32.066","0.44914","5"],
    [19672,"HCEP03730560","2024-04-20 06:15:00","9.4676","3.20765","26.616","4.99","7.5","0.346","2.294","0.06","0.08","29.3405","4.65314","52.7","0","SATNPRO1963","32.403999999999996","0.4539","5"],
    [19673,"HCEP03730560","2024-04-20 06:30:00","9.4661","3.20735","26.485","5.059","7.51","0.385","2.606","0.04","0.48","29.3388","4.65291","53.43","0","SATNPRO1963","32.6","0.45664","5"],
    [19674,"HCEP03730560","2024-04-20 06:45:00","9.4755","3.20864","26.333","4.742","7.5","0.454","5.169","0.04","0.21","29.3442","4.65351","50.09","0","SATNPRO1963","31.438","0.44034","5"],
    [19675,"HCEP03730560","2024-04-20 07:00:00","9.4768","3.20874","26.193","4.581","7.48","0.491","5.197","0.07","0.31","29.3442","4.65348","48.39","0","SATNPRO1963","31.06","0.43504","5"],
    [19676,"HCEP03730560","2024-04-20 07:15:00","9.4776","3.20881","26.032","4.515","7.48","0.453","5.308","0.04","0.27","29.3443","4.65347","47.7","0","SATNPRO1963","30.766000000000002","0.4309","5"],
    [19677,"HCEP03730560","2024-04-20 07:30:00","9.4741","3.20841","25.881","4.644","7.48","0.483","4.749","0.09","0.32","29.3432","4.65335","49.06","0","SATNPRO1963","31.528","0.44164","5"],
    [19678,"HCEP03730560","2024-04-20 07:45:00","9.4688","3.20734","25.743","4.873","7.49","0.395","3.569","0.03","0.2","29.3369","4.65254","51.46","0","SATNPRO1963","32.124","0.44992","5"],
    [19679,"HCEP03730560","2024-04-20 08:00:00","9.4735","3.20821","25.617","4.791","7.49","0.457","3.956","0.05","0.21","29.3418","4.65315","50.61","0","SATNPRO1963","31.638","0.44318","5"],
    [19680,"HCEP03730560","2024-04-20 08:15:00","9.4744","3.20831","25.519","4.687","7.48","0.436","4.45","0.05","0.21","29.3421","4.65318","49.51","0","SATNPRO1963","31.564","0.44212","5"],
    [19681,"HCEP03730560","2024-04-20 08:30:00","9.4764","3.20856","25.436","4.6","7.48","0.546","5.866","0.08","0.27","29.3431","4.65327","48.6","0","SATNPRO1963","31.378","0.4395","5"],
    [19682,"HCEP03730560","2024-04-20 08:45:00","9.4762","3.20851","25.408","4.573","7.47","0.502","5.778","0.17","0.27","29.3427","4.65322","48.31","0","SATNPRO1963","31.214","0.43718","5"],
    [19683,"HCEP03730560","2024-04-20 09:00:00","9.4757","3.20841","25.384","4.582","7.47","0.501","5.653","0.04","0.22","29.3421","4.65315","48.4","0","SATNPRO1963","31.12","0.4359","5"],
    [19684,"HCEP03730560","2024-04-20 09:15:00","9.477","3.20847","25.365","4.531","7.47","0.449","5.201","0.03","0.19","29.3416","4.65305","47.86","0","SATNPRO1963","30.92","0.43314","5"],
    [19685,"HCEP03730560","2024-04-20 09:30:00","9.4767","3.20827","25.368","4.509","7.47","0.468","4.79","0.02","0.25","29.3398","4.6528","47.63","0","SATNPRO1963","30.884","0.43258","5"],
    [19686,"HCEP03730560","2024-04-20 09:45:00","9.4728","3.2076","25.396","4.626","7.47","0.42","4.296","0.03","0.13","29.3362","4.65236","48.86","0","SATNPRO1963","31.432","0.44026","5"],
    [19687,"HCEP03730560","2024-04-20 10:00:00","9.4663","3.20633","25.442","4.914","7.49","0.416","2.808","0.03","0.15","29.3287","4.6514","51.9","0","SATNPRO1963","32.084","0.4494","5"],
    [19688,"HCEP03730560","2024-04-20 10:15:00","9.4649","3.20581","25.525","5.05","7.5","0.373","2.742","0.04","0.24","29.3246","4.65084","53.33","0","SATNPRO1963","32.334","0.45288","5"],
    [19689,"HCEP03730560","2024-04-20 10:30:00","9.4647","3.20537","25.583","5.091","7.51","0.421","3.369","0.02","0.16","29.3202","4.65021","53.76","0","SATNPRO1963","32.056","0.449","5"],
    [19690,"HCEP03730560","2024-04-20 10:45:00","9.4679","3.20591","25.627","4.959","7.5","0.386","3.303","0.02","0.1","29.3231","4.65057","52.37","0","SATNPRO1963","31.708000000000002","0.44418","5"],
    [19691,"HCEP03730560","2024-04-20 11:00:00","9.472","3.20623","25.681","4.724","7.49","0.479","4.488","0.05","0.27","29.323","4.65049","49.89","0","SATNPRO1963","31.242","0.4376","5"],
    [19692,"HCEP03730560","2024-04-20 11:15:00","9.475","3.2068","25.766","4.527","7.48","1.152","30.019","0.15","15.04","29.3262","4.6509","47.81","0","SATNPRO1963","30.541999999999998","0.42778","5"],
    [19693,"HCEP03730560","2024-04-20 11:30:00","9.4743","3.20647","25.902","4.495","7.47","0.522","5.052","0.22","0.36","29.3234","4.65052","47.48","0","SATNPRO1963","30.636","0.42912","5"],
    [19694,"HCEP03730560","2024-04-20 11:45:00","9.4756","3.20681","26.022","4.477","7.47","0.443","5.474","0.04","0.31","29.3258","4.65084","47.29","0","SATNPRO1963","30.392","0.42568","5"],
    [19695,"HCEP03730560","2024-04-20 12:00:00","9.4756","3.20702","26.085","4.451","7.47","0.934","13.715","0.84","6.07","29.3278","4.65114","47.02","0","SATNPRO1963","30.336","0.42492","5"],
    [19696,"HCEP03730560","2024-04-20 12:15:00","9.4696","3.20471","26.209","4.651","7.47","0.425","4.633","0.02","0.12","29.3093","4.6486","49.12","0","SATNPRO1963","31.148","0.43626","5"],
    [19697,"HCEP03730560","2024-04-20 12:30:00","9.4741","3.20614","26.3","4.54","7.47","0.49","5.108","0.04","0.22","29.3201","4.65008","47.95","0","SATNPRO1963","30.584","0.42842","5"],
    [19698,"HCEP03730560","2024-04-20 12:45:00","9.4674","3.2041","26.382","4.725","7.48","0.431","4.233","0.11","0.76","29.3048","4.64801","49.89","0","SATNPRO1963","31.238","0.43756","5"],
    [19699,"HCEP03730560","2024-04-20 13:00:00","9.4646","3.20383","26.523","4.877","7.49","0.426","3.189","0.04","0.08","29.3043","4.648","51.49","0","SATNPRO1963","31.474","0.44084","5"],
    [19700,"HCEP03730560","2024-04-20 13:15:00","9.4627","3.2037","26.59","4.972","7.5","0.349","2.548","0.02","0.07","29.3045","4.64806","52.5","0","SATNPRO1963","31.726","0.44434","5"],
    [19701,"HCEP03730560","2024-04-20 13:30:00","9.462","3.20367","26.704","5.002","7.5","0.414","2.717","0.08","0.1","29.3049","4.64813","52.81","0","SATNPRO1963","31.552","0.44194","5"],
    [19702,"HCEP03730560","2024-04-20 13:45:00","9.4608","3.20343","26.824","4.969","7.5","0.363","2.913","0.02","0.13","29.3033","4.64793","52.46","0","SATNPRO1963","31.586","0.44244","5"],
    [19703,"HCEP03730560","2024-04-20 14:00:00","9.4601","3.20326","26.969","4.942","7.5","0.452","3.191","0.14","0.17","29.3022","4.64779","52.18","0","SATNPRO1963","31.42","0.44012","5"],
    [19704,"HCEP03730560","2024-04-20 14:15:00","9.4599","3.20302","27.036","4.897","7.5","0.392","3.666","0.03","0.5","29.2997","4.64745","51.7","0","SATNPRO1963","31.022000000000002","0.43456","5"],
    [19705,"HCEP03730560","2024-04-20 14:30:00","9.466","3.20377","27.126","4.713","7.49","0.461","4.711","0.01","0.1","29.3023","4.64772","49.76","0","SATNPRO1963","30.314","0.42466","5"],
    [19706,"HCEP03730560","2024-04-20 14:45:00","9.4604","3.20299","27.152","4.769","7.49","0.448","4.643","0.03","0.12","29.299","4.64735","50.34","0","SATNPRO1963","30.876","0.43244","5"],
    [19707,"HCEP03730560","2024-04-20 15:00:00","9.4567","3.20258","27.165","4.936","7.5","0.448","3.73","0.02","0.24","29.2979","4.64725","52.11","0","SATNPRO1963","31.233999999999998","0.43746","5"],
    [19708,"HCEP03730560","2024-04-20 15:15:00","9.4479","3.20169","27.28","5.159","7.51","0.424","3.865","0.02","0.1","29.296","4.64715","54.45","0","SATNPRO1963","31.182","0.43678","5"],
    [19709,"HCEP03730560","2024-04-20 15:30:00","9.4572","3.20267","27.277","4.926","7.51","0.495","4.533","0.03","0.17","29.2984","4.64731","52","0","SATNPRO1963","30.636","0.42912","5"],
    [19710,"HCEP03730560","2024-04-20 15:45:00","9.4572","3.20259","27.27","4.885","7.5","0.442","4.419","0.02","0.14","29.2975","4.64719","51.57","0","SATNPRO1963","30.956","0.43358","5"],
    [19711,"HCEP03730560","2024-04-20 16:00:00","9.4543","3.20211","27.22","4.936","7.5","0.499","3.787","0.1","0.15","29.2951","4.64689","52.1","0","SATNPRO1963","31.094","0.43552","5"],
    [19712,"HCEP03730560","2024-04-20 16:15:00","9.4476","3.20118","27.17","5.157","7.51","0.398","2.984","0.04","1.46","29.2912","4.64645","54.42","0","SATNPRO1963","31.428","0.44024","5"],
    [19713,"HCEP03730560","2024-04-20 16:30:00","9.4516","3.20148","27.083","5.19","7.52","0.449","3.112","0.03","0.28","29.291","4.64635","54.78","0","SATNPRO1963","31.496","0.44116","5"],
    [19714,"HCEP03730560","2024-04-20 16:45:00","9.4462","3.2004","26.992","5.342","7.53","0.374","2.071","0.06","0.47","29.2845","4.64551","56.37","0","SATNPRO1963","32.528","0.4556","5"],
    [19715,"HCEP03730560","2024-04-20 17:00:00","9.4507","3.2011","26.923","5.299","7.53","0.478","3.316","0.15","0.18","29.288","4.64592","55.92","0","SATNPRO1963","31.692","0.4439","5"],
    [19716,"HCEP03730560","2024-04-20 17:15:00","9.4526","3.20144","26.851","5.012","7.52","0.426","4.163","0.11","0.26","29.2899","4.64615","52.9","0","SATNPRO1963","31.86","0.44624","5"],
    [19717,"HCEP03730560","2024-04-20 17:30:00","9.4479","3.20055","26.758","5.247","7.52","0.457","3.262","0.09","0.1","29.2847","4.64549","55.37","0","SATNPRO1963","31.884","0.44658","5"],
    [19718,"HCEP03730560","2024-04-20 17:45:00","9.4547","3.20169","26.666","5.026","7.52","0.437","4.236","0.03","0.21","29.2907","4.64622","53.05","0","SATNPRO1963","30.928","0.43316","5"],
    [19719,"HCEP03730560","2024-04-20 18:00:00","9.4598","3.20248","26.572","4.821","7.5","0.51","4.984","0.03","0.19","29.2946","4.64669","50.89","0","SATNPRO1963","30.394000000000002","0.4257","5"],
    [19720,"HCEP03730560","2024-04-20 18:15:00","9.4631","3.20301","26.468","4.685","7.49","0.472","5.261","0.03","0.15","29.2973","4.64702","49.46","0","SATNPRO1963","30.112","0.42174","5"],
    [19721,"HCEP03730560","2024-04-20 18:30:00","9.4623","3.20315","26.348","4.686","7.49","0.521","5.37","0.02","0.17","29.2995","4.64733","49.47","0","SATNPRO1963","30.316","0.42462","5"],
    [19722,"HCEP03730560","2024-04-20 18:45:00","9.4599","3.20294","26.256","4.805","7.49","0.445","4.239","0.04","0.24","29.2993","4.64734","50.73","0","SATNPRO1963","30.646","0.42926","5"],
    [19723,"HCEP03730560","2024-04-20 19:00:00","9.4595","3.2029","26.144","4.814","7.49","0.457","3.849","0.02","0.25","29.2993","4.64734","50.82","0","SATNPRO1963","30.977999999999998","0.43392","5"],
    [19724,"HCEP03730560","2024-04-20 19:15:00","9.4611","3.20293","26.008","4.886","7.49","0.426","4.225","0.12","0.32","29.2984","4.64718","51.58","0","SATNPRO1963","30.916","0.433","5"],
    [19725,"HCEP03730560","2024-04-20 19:30:00","9.4617","3.20291","25.895","4.806","7.49","0.463","4.207","0.04","0.16","29.2977","4.64706","50.74","0","SATNPRO1963","30.67","0.4296","5"],
    [19726,"HCEP03730560","2024-04-20 19:45:00","9.4595","3.20287","25.761","4.858","7.49","0.441","3.39","0.13","0.15","29.2991","4.6473","51.29","0","SATNPRO1963","31.532","0.44164","5"],
    [19727,"HCEP03730560","2024-04-20 20:00:00","9.4616","3.20319","25.647","4.869","7.49","0.444","4.161","0.04","0.15","29.3007","4.64748","51.4","0","SATNPRO1963","31.068","0.43516","5"],
    [19728,"HCEP03730560","2024-04-20 20:15:00","9.4644","3.20373","25.592","4.826","7.49","0.457","4.564","0.05","0.18","29.3038","4.64787","50.95","0","SATNPRO1963","31.124","0.43596","5"],
    [19729,"HCEP03730560","2024-04-20 20:30:00","9.4693","3.20454","25.519","4.681","7.48","0.502","5.046","0.03","0.37","29.3081","4.64839","49.43","0","SATNPRO1963","31.058","0.43504","5"],
    [19730,"HCEP03730560","2024-04-20 20:45:00","9.4639","3.20361","25.474","4.838","7.49","0.414","3.731","0.03","0.37","29.3032","4.64778","51.08","0","SATNPRO1963","31.484","0.44102","5"],
    [19731,"HCEP03730560","2024-04-20 21:00:00","9.462","3.20322","25.451","4.938","7.49","0.458","3.414","0.06","0.23","29.3007","4.64746","52.14","0","SATNPRO1963","31.938","0.44734","5"],
    [19732,"HCEP03730560","2024-04-20 21:15:00","9.4606","3.20291","25.455","5.103","7.5","0.412","3.082","0.03","0.31","29.2987","4.6472","53.87","0","SATNPRO1963","32.263999999999996","0.45196","5"],
    [19733,"HCEP03730560","2024-04-20 21:30:00","9.4641","3.20299","25.47","4.99","7.5","0.508","4.157","0.14","0.27","29.2967","4.64685","52.68","0","SATNPRO1963","31.846","0.44608","5"],
    [19734,"HCEP03730560","2024-04-20 21:45:00","9.4632","3.20303","25.501","4.935","7.5","0.465","4.204","0.05","0.23","29.2978","4.64703","52.1","0","SATNPRO1963","31.492","0.4411","5"],
    [19735,"HCEP03730560","2024-04-20 22:00:00","9.4588","3.20177","25.555","5.029","7.5","0.461","3.446","0.06","0.11","29.2887","4.64581","53.09","0","SATNPRO1963","31.822","0.44572","5"],
    [19736,"HCEP03730560","2024-04-20 22:15:00","9.4575","3.20154","25.608","5.1","7.51","0.386","3.106","0.03","0.08","29.2874","4.64564","53.83","0","SATNPRO1963","31.878","0.44648","5"],
    [19737,"HCEP03730560","2024-04-20 22:30:00","9.4577","3.20161","25.698","5.112","7.51","0.402","2.52","0.02","0.1","29.2879","4.64572","53.96","0","SATNPRO1963","31.806","0.44548","5"],
    [19738,"HCEP03730560","2024-04-20 22:45:00","9.4577","3.20177","25.766","5.135","7.51","0.381","2.68","0.04","0.17","29.2895","4.64594","54.21","0","SATNPRO1963","32.048","0.44888","5"],
    [19739,"HCEP03730560","2024-04-20 23:00:00","9.459","3.20226","25.892","5.139","7.52","0.442","3.335","0.03","0.13","29.2933","4.64647","54.25","0","SATNPRO1963","31.918","0.4471","5"],
    [19740,"HCEP03730560","2024-04-20 23:15:00","9.4606","3.20267","26.013","5.164","7.52","0.433","3.34","0.09","0.17","29.2961","4.64685","54.52","0","SATNPRO1963","31.696","0.44396","5"],
    [19741,"HCEP03730560","2024-04-20 23:30:00","9.4578","3.20225","26.135","5.179","7.52","0.43","2.308","0.09","0.12","29.2941","4.64663","54.67","0","SATNPRO1963","32.24","0.45158","5"],
    [19742,"HCEP03730560","2024-04-20 23:45:00","9.4591","3.20254","26.275","5.15","7.52","0.466","4.657","0.03","0.28","29.2959","4.64687","54.37","0","SATNPRO1963","32.138000000000005","0.45014","5"],
    [19743,"HCEP03730560","2024-04-21 00:00:00","9.4721","3.20492","26.408","4.668","7.5","0.54","5.456","0.03","0.25","29.3094","4.64858","49.29","0","SATNPRO1963","30.514","0.42738","5"],
    [19744,"HCEP03730560","2024-04-21 00:15:00","9.4601","3.20273","26.532","4.893","7.5","0.445","3.063","0.07","0.34","29.297","4.64702","51.66","0","SATNPRO1963","31.724","0.44436","5"],
    [19745,"HCEP03730560","2024-04-21 00:30:00","9.4593","3.20259","26.682","5.034","7.51","4.447","56.87","3.22","15.27","29.2961","4.64692","53.14","0","SATNPRO1963","31.95","0.44748","5"],
    [19746,"HCEP03730560","2024-04-21 00:45:00","9.4569","3.20198","26.801","5.06","7.51","0.402","2.872","0.02","0.25","29.2919","4.64636","53.41","0","SATNPRO1963","31.494","0.44112","5"],
    [19747,"HCEP03730560","2024-04-21 01:00:00","9.4572","3.20226","26.922","5.054","7.51","0.543","2.87","0.25","0.39","29.2944","4.64672","53.35","0","SATNPRO1963","31.67","0.4436","5"],
    [19748,"HCEP03730560","2024-04-21 01:15:00","9.4644","3.20326","27.06","4.767","7.5","0.559","6.001","0.14","0.27","29.2985","4.64719","50.33","0","SATNPRO1963","30.06","0.42106","5"],
    [19749,"HCEP03730560","2024-04-21 01:30:00","9.4728","3.2047","27.175","4.431","7.48","0.614","7.131","0.05","0.36","29.3062","4.64815","46.8","0","SATNPRO1963","29.77","0.41698","5"],
    [19750,"HCEP03730560","2024-04-21 01:45:00","9.4742","3.20493","27.296","4.299","7.47","0.565","7.132","0.05","0.49","29.3073","4.6483","45.4","0","SATNPRO1963","30.146","0.42226","5"],
    [19751,"HCEP03730560","2024-04-21 02:00:00","9.4766","3.2056","27.424","4.253","7.46","0.567","5.749","0.06","0.23","29.3121","4.64895","44.92","0","SATNPRO1963","29.83","0.41782","5"],
    [19752,"HCEP03730560","2024-04-21 02:15:00","9.4758","3.20552","27.52","4.274","7.46","0.502","5.255","0.03","0.31","29.3119","4.64894","45.14","0","SATNPRO1963","29.914","0.41898","5"],
    [19753,"HCEP03730560","2024-04-21 02:30:00","9.4728","3.20462","27.6","4.329","7.46","0.557","6.061","0.03","0.32","29.3052","4.64804","45.72","0","SATNPRO1963","29.944","0.41942","5"],
    [19754,"HCEP03730560","2024-04-21 02:45:00","9.4738","3.20493","27.664","4.352","7.46","0.458","4.479","0.04","0.27","29.3075","4.64836","45.96","0","SATNPRO1963","29.816","0.41766","5"],
    [19755,"HCEP03730560","2024-04-21 03:00:00","9.4756","3.20611","27.683","4.439","7.46","0.569","5.52","0.08","0.4","29.318","4.64982","46.89","0","SATNPRO1963","31.134","0.43604","5"],
    [19756,"HCEP03730560","2024-04-21 03:15:00","9.4739","3.20574","27.679","4.519","7.47","0.49","4.609","0.07","0.22","29.3156","4.64951","47.73","0","SATNPRO1963","31.02","0.4345","5"],
    [19757,"HCEP03730560","2024-04-21 03:30:00","9.474","3.20559","27.688","4.512","7.47","0.523","4.795","0.04","0.17","29.314","4.64929","47.65","0","SATNPRO1963","30.938","0.43332","5"],
    [19758,"HCEP03730560","2024-04-21 03:45:00","9.4723","3.20472","27.667","4.507","7.47","0.601","5.338","0.31","0.56","29.3066","4.64825","47.59","0","SATNPRO1963","30.696","0.42992","5"],
    [19759,"HCEP03730560","2024-04-21 04:00:00","9.4696","3.20429","27.628","4.587","7.47","0.516","4.814","0.04","0.21","29.3044","4.64798","48.44","0","SATNPRO1963","31.162","0.43648","5"],
    [19760,"HCEP03730560","2024-04-21 04:15:00","9.4717","3.20432","27.584","4.527","7.47","0.542","5.194","0.09","0.46","29.3031","4.64775","47.81","0","SATNPRO1963","30.286","0.4242","5"],
    [19761,"HCEP03730560","2024-04-21 04:30:00","9.4689","3.20374","27.523","4.576","7.47","0.51","4.301","0.04","0.15","29.2995","4.64729","48.32","0","SATNPRO1963","31.338","0.43896","5"],
    [19762,"HCEP03730560","2024-04-21 04:45:00","9.4704","3.20384","27.438","4.575","7.47","0.498","5.163","0.05","0.34","29.2994","4.64723","48.31","0","SATNPRO1963","30.605999999999998","0.42868","5"],
    [19763,"HCEP03730560","2024-04-21 05:00:00","9.4698","3.20367","27.348","4.567","7.47","0.508","4.317","0.04","0.14","29.2981","4.64706","48.22","0","SATNPRO1963","30.926000000000002","0.43316","5"],
    [19764,"HCEP03730560","2024-04-21 05:15:00","9.4712","3.20391","27.243","4.538","7.47","0.543","4.724","0.09","0.16","29.2995","4.64722","47.92","0","SATNPRO1963","30.512","0.42732","5"],
    [19765,"HCEP03730560","2024-04-21 05:30:00","9.4637","3.20253","27.103","4.732","7.48","0.506","3.433","0.09","0.12","29.2917","4.64623","49.96","0","SATNPRO1963","31.68","0.44374","5"],
    [19766,"HCEP03730560","2024-04-21 05:45:00","9.477","3.20601","26.988","4.496","7.47","0.602","5.745","0.08","0.38","29.3161","4.64948","47.49","0","SATNPRO1963","30.274","0.42402","5"],
    [19767,"HCEP03730560","2024-04-21 06:00:00","9.4767","3.20578","26.804","4.359","7.46","0.652","5.374","0.09","0.27","29.3141","4.64919","46.04","0","SATNPRO1963","30.344","0.42506","5"],
    [19768,"HCEP03730560","2024-04-21 06:15:00","9.4754","3.20556","26.685","4.421","7.46","0.576","5.238","0.05","0.28","29.3129","4.64904","46.7","0","SATNPRO1963","30.588","0.42842","5"],
    [19769,"HCEP03730560","2024-04-21 06:30:00","9.4747","3.20537","26.548","4.421","7.46","0.694","5.706","0.13","0.3","29.3117","4.64887","46.7","0","SATNPRO1963","30.608","0.42872","5"],
    [19770,"HCEP03730560","2024-04-21 06:45:00","9.4728","3.20535","26.386","4.508","7.46","0.584","5.206","0.05","0.29","29.3131","4.64909","47.61","0","SATNPRO1963","30.862","0.43226","5"],
    [19771,"HCEP03730560","2024-04-21 07:00:00","9.4739","3.20568","26.272","4.605","7.47","5.947","45.119","5.03","32.66","29.3155","4.64942","48.64","0","SATNPRO1963","31.386","0.4396","5"],
    [19772,"HCEP03730560","2024-04-21 07:15:00","9.4747","3.20572","26.097","4.615","7.47","0.553","4.734","0.17","0.4","29.3154","4.64938","48.75","0","SATNPRO1963","31.428","0.44026","5"],
    [19773,"HCEP03730560","2024-04-21 07:30:00","9.4757","3.20637","25.923","4.599","7.47","0.568","5.057","0.07","0.25","29.3213","4.65019","48.58","0","SATNPRO1963","31.47","0.44078","5"],
    [19774,"HCEP03730560","2024-04-21 07:45:00","9.477","3.2068","25.701","4.574","7.47","0.48","4.379","0.03","0.29","29.3246","4.65063","48.32","0","SATNPRO1963","31.344","0.43896","5"],
    [19775,"HCEP03730560","2024-04-21 08:00:00","9.4798","3.20735","25.549","4.464","7.46","0.548","5.196","0.04","0.28","29.3279","4.65105","47.16","0","SATNPRO1963","30.858","0.43224","5"],
    [19776,"HCEP03730560","2024-04-21 08:15:00","9.4817","3.20757","25.412","4.344","7.46","0.569","4.783","0.11","0.28","29.3287","4.65112","45.89","0","SATNPRO1963","30.752","0.43074","5"],
    [19777,"HCEP03730560","2024-04-21 08:30:00","9.4825","3.20796","25.269","4.286","7.45","0.572","5.145","0.04","0.32","29.332","4.65157","45.28","0","SATNPRO1963","30.544","0.42782","5"],
    [19778,"HCEP03730560","2024-04-21 08:45:00","9.4826","3.20779","25.195","4.273","7.45","0.544","4.944","0.07","0.28","29.3303","4.65132","45.14","0","SATNPRO1963","30.642","0.42922","5"],
    [19779,"HCEP03730560","2024-04-21 09:00:00","9.4824","3.20755","25.097","4.269","7.45","0.557","4.584","0.03","0.23","29.328","4.65099","45.09","0","SATNPRO1963","30.582","0.42834","5"],
    [19780,"HCEP03730560","2024-04-21 09:15:00","9.4822","3.2075","25.086","4.274","7.45","0.537","4.732","0.04","0.29","29.3278","4.65096","45.16","0","SATNPRO1963","30.588","0.42848","5"],
    [19781,"HCEP03730560","2024-04-21 09:30:00","9.4825","3.20758","25.081","4.261","7.44","0.601","5.163","0.06","0.32","29.3282","4.65102","45.02","0","SATNPRO1963","30.594","0.42854","5"],
    [19782,"HCEP03730560","2024-04-21 09:45:00","9.4821","3.20735","25.062","4.266","7.44","0.541","4.718","0.05","0.19","29.3263","4.65074","45.07","0","SATNPRO1963","30.54","0.42778","5"],
    [19783,"HCEP03730560","2024-04-21 10:00:00","9.4819","3.20711","25.119","4.27","7.44","0.6","4.793","0.06","0.2","29.324","4.65042","45.11","0","SATNPRO1963","30.574","0.42824","5"],
    [19784,"HCEP03730560","2024-04-21 10:15:00","9.4815","3.2068","25.157","4.276","7.44","0.543","4.6","0.04","0.13","29.3211","4.65002","45.17","0","SATNPRO1963","30.470000000000002","0.42678","5"],
    [19785,"HCEP03730560","2024-04-21 10:30:00","9.4805","3.20652","25.23","4.302","7.45","0.577","4.448","0.03","0.25","29.3191","4.64976","45.44","0","SATNPRO1963","30.682","0.42978","5"],
    [19786,"HCEP03730560","2024-04-21 10:45:00","9.4807","3.20643","25.257","4.307","7.45","0.569","4.401","0.04","0.24","29.318","4.6496","45.5","0","SATNPRO1963","30.61","0.42874","5"],
    [19787,"HCEP03730560","2024-04-21 11:00:00","9.4807","3.20632","25.37","4.313","7.45","0.582","4.347","0.04","0.26","29.3169","4.64944","45.56","0","SATNPRO1963","30.792","0.43126","5"],
    [19788,"HCEP03730560","2024-04-21 11:15:00","9.4805","3.2061","25.475","4.308","7.45","0.605","4.369","0.08","0.29","29.3148","4.64916","45.51","0","SATNPRO1963","30.774","0.43102","5"],
    [19789,"HCEP03730560","2024-04-21 11:30:00","9.4808","3.20587","25.58","4.299","7.45","0.65","4.482","0.08","0.29","29.3121","4.64877","45.41","0","SATNPRO1963","30.714","0.43024","5"],
    [19790,"HCEP03730560","2024-04-21 11:45:00","9.4807","3.2057","25.682","4.305","7.45","0.577","4.086","0.11","0.24","29.3105","4.64855","45.47","0","SATNPRO1963","30.528","0.42758","5"],
    [19791,"HCEP03730560","2024-04-21 12:00:00","9.4804","3.20552","25.779","4.304","7.45","1.614","33.533","1.37","27.66","29.3088","4.64832","45.46","0","SATNPRO1963","30.542","0.42776","5"],
    [19792,"HCEP03730560","2024-04-21 12:15:00","9.4802","3.20539","25.89","4.316","7.45","0.581","4.141","0.08","0.23","29.3076","4.64816","45.58","0","SATNPRO1963","30.808","0.4315","5"],
    [19793,"HCEP03730560","2024-04-21 12:30:00","9.4799","3.2053","26.017","4.335","7.45","4.266","56.019","3.01","26.37","29.3069","4.64806","45.79","0","SATNPRO1963","30.938","0.43336","5"],
    [19794,"HCEP03730560","2024-04-21 12:45:00","9.4799","3.20537","26.13","4.343","7.45","0.581","3.879","0.12","0.17","29.3076","4.64817","45.87","0","SATNPRO1963","30.668","0.42952","5"],
    [19795,"HCEP03730560","2024-04-21 13:00:00","9.4804","3.20537","26.261","4.341","7.45","0.655","4.067","0.08","0.15","29.3072","4.6481","45.85","0","SATNPRO1963","30.744","0.43062","5"],
    [19796,"HCEP03730560","2024-04-21 13:15:00","9.4805","3.20563","26.378","4.322","7.45","0.609","4.539","0.07","0.18","29.3097","4.64847","45.65","0","SATNPRO1963","30.672","0.42956","5"],
    [19797,"HCEP03730560","2024-04-21 13:30:00","9.4802","3.20555","26.493","4.332","7.45","0.604","4.139","0.04","0.18","29.3091","4.6484","45.76","0","SATNPRO1963","30.72","0.43024","5"],
    [19798,"HCEP03730560","2024-04-21 13:45:00","9.4804","3.20582","26.677","4.318","7.45","0.596","4.314","0.11","0.16","29.3116","4.64876","45.61","0","SATNPRO1963","30.855999999999998","0.4322","5"],
    [19799,"HCEP03730560","2024-04-21 14:00:00","9.4801","3.20546","26.806","4.347","7.45","0.609","3.688","0.07","0.12","29.3081","4.64828","45.91","0","SATNPRO1963","30.792","0.4313","5"],
    [19800,"HCEP03730560","2024-04-21 14:15:00","9.4796","3.20533","26.86","4.361","7.46","0.555","3.584","0.05","0.49","29.3071","4.64814","46.06","0","SATNPRO1963","30.884","0.43258","5"],
    [19801,"HCEP03730560","2024-04-21 14:30:00","9.4792","3.20509","27.025","4.382","7.46","0.572","3.257","0.05","0.12","29.305","4.64786","46.29","0","SATNPRO1963","30.786","0.4312","5"],
    [19802,"HCEP03730560","2024-04-21 14:45:00","9.4789","3.20494","27.154","4.4","7.46","0.539","3.36","0.04","0.14","29.3037","4.64768","46.48","0","SATNPRO1963","30.902","0.43282","5"],
    [19803,"HCEP03730560","2024-04-21 15:00:00","9.4784","3.20481","27.283","4.427","7.46","0.562","3.019","0.04","0.07","29.3028","4.64757","46.76","0","SATNPRO1963","31.004","0.43428","5"],
    [19804,"HCEP03730560","2024-04-21 15:15:00","9.4785","3.20474","27.32","4.425","7.46","0.531","2.972","0.05","0.08","29.3019","4.64745","46.74","0","SATNPRO1963","31.02","0.43448","5"],
    [19805,"HCEP03730560","2024-04-21 15:30:00","9.4789","3.20496","27.378","4.414","7.46","0.577","3.165","0.05","0.07","29.3038","4.64772","46.62","0","SATNPRO1963","31.036","0.43474","5"],
    [19806,"HCEP03730560","2024-04-21 15:45:00","9.4744","3.20362","27.43","4.598","7.47","0.494","2.598","0.03","0.1","29.2939","4.64637","48.56","0","SATNPRO1963","31.252","0.43776","5"],
    [19807,"HCEP03730560","2024-04-21 16:00:00","9.4772","3.20477","27.396","4.559","7.47","0.541","2.719","0.07","0.05","29.3033","4.64768","48.15","0","SATNPRO1963","31.096","0.43554","5"],
    [19808,"HCEP03730560","2024-04-21 16:15:00","9.4792","3.20543","27.345","4.425","7.46","0.511","2.986","0.03","0.05","29.3083","4.64835","46.74","0","SATNPRO1963","30.916","0.433","5"],
    [19809,"HCEP03730560","2024-04-21 16:30:00","9.4794","3.2056","27.327","4.386","7.46","0.706","6.391","0.07","0.9","29.3098","4.64857","46.33","0","SATNPRO1963","30.948","0.43346","5"],
    [19810,"HCEP03730560","2024-04-21 16:45:00","9.4796","3.20575","27.286","4.378","7.46","0.669","5.682","0.06","0.6","29.3112","4.64876","46.24","0","SATNPRO1963","31.016","0.4344","5"],
    [19811,"HCEP03730560","2024-04-21 17:00:00","9.4805","3.20613","27.235","4.338","7.46","0.786","8.016","0.14","6.37","29.3143","4.64918","45.82","0","SATNPRO1963","30.74","0.43056","5"],
    [19812,"HCEP03730560","2024-04-21 17:15:00","9.4821","3.20653","27.164","4.246","7.45","0.675","6.125","0.05","0.19","29.3171","4.64955","44.85","0","SATNPRO1963","30.404","0.42588","5"],
    [19813,"HCEP03730560","2024-04-21 17:30:00","9.4808","3.20633","27.136","4.303","7.45","0.632","4.461","0.03","0.13","29.3161","4.64944","45.46","0","SATNPRO1963","30.516","0.42742","5"],
    [19814,"HCEP03730560","2024-04-21 17:45:00","9.4803","3.20636","27.003","4.339","7.45","0.564","3.887","0.03","0.14","29.317","4.64956","45.83","0","SATNPRO1963","30.61","0.42872","5"],
    [19815,"HCEP03730560","2024-04-21 18:00:00","9.4826","3.2071","26.963","4.267","7.45","0.61","4.222","0.04","0.11","29.3226","4.65032","45.08","0","SATNPRO1963","30.650000000000002","0.4293","5"],
    [19816,"HCEP03730560","2024-04-21 18:15:00","9.4821","3.20727","26.81","4.262","7.45","0.539","3.809","0.03","0.05","29.3248","4.65064","45.02","0","SATNPRO1963","30.562","0.42806","5"],
    [19817,"HCEP03730560","2024-04-21 18:30:00","9.4791","3.20649","26.74","4.389","7.45","0.547","3.166","0.03","0.15","29.3194","4.64991","46.36","0","SATNPRO1963","30.918","0.43306","5"],
    [19818,"HCEP03730560","2024-04-21 18:45:00","9.4781","3.20593","26.647","4.418","7.46","0.589","4.235","0.04","0.11","29.3145","4.64923","46.66","0","SATNPRO1963","30.874","0.43246","5"],
    [19819,"HCEP03730560","2024-04-21 19:00:00","9.4804","3.20671","26.564","4.397","7.46","0.652","4.706","0.03","0.2","29.3206","4.65005","46.45","0","SATNPRO1963","31.064","0.43512","5"],
    [19820,"HCEP03730560","2024-04-21 19:15:00","9.4753","3.20503","26.422","4.545","7.46","0.526","2.812","0.06","0.09","29.3079","4.64831","48.01","0","SATNPRO1963","31.476","0.44088","5"],
    [19821,"HCEP03730560","2024-04-21 19:30:00","9.4673","3.19992","26.331","4.96","7.49","0.513","2.018","0.02","0.11","29.2627","4.64196","52.36","0","SATNPRO1963","32.206","0.45112","5"],
    [19822,"HCEP03730560","2024-04-21 19:45:00","9.4654","3.19866","26.196","5.162","7.5","0.484","1.833","0.04","0.11","29.2515","4.64039","54.49","0","SATNPRO1963","32.434","0.45428","5"],
    [19823,"HCEP03730560","2024-04-21 20:00:00","9.4728","3.20357","26.134","4.963","7.5","0.545","2.264","0.08","0.09","29.2951","4.64651","52.41","0","SATNPRO1963","31.748","0.44466","5"],
    [19824,"HCEP03730560","2024-04-21 20:15:00","9.4676","3.20025","25.961","4.96","7.5","0.555","3.179","0.14","2.87","29.2659","4.64241","52.37","0","SATNPRO1963","32.3","0.4524","5"],
    [19825,"HCEP03730560","2024-04-21 20:30:00","9.4773","3.20505","25.861","4.637","7.48","0.551","2.618","0.07","0.09","29.3065","4.64805","48.98","0","SATNPRO1963","31.588","0.44244","5"],
    [19826,"HCEP03730560","2024-04-21 20:45:00","9.4791","3.20572","25.771","4.412","7.47","0.546","2.602","0.1","0.08","29.312","4.64879","46.6","0","SATNPRO1963","31.058","0.43502","5"],
    [19827,"HCEP03730560","2024-04-21 21:00:00","9.4792","3.20618","25.703","4.394","7.46","0.57","2.78","0.09","0.36","29.3165","4.64944","46.42","0","SATNPRO1963","31.118","0.43584","5"],
    [19828,"HCEP03730560","2024-04-21 21:15:00","9.4794","3.20623","25.611","4.382","7.46","0.557","3.228","0.07","0.73","29.317","4.64949","46.28","0","SATNPRO1963","31.054","0.43498","5"],
    [19829,"HCEP03730560","2024-04-21 21:30:00","9.4797","3.2064","25.602","4.365","7.45","0.598","2.958","0.11","0.31","29.3184","4.64969","46.11","0","SATNPRO1963","30.914","0.43302","5"],
    [19830,"HCEP03730560","2024-04-21 21:45:00","9.4796","3.20629","25.556","4.367","7.45","0.535","2.812","0.05","0.1","29.3174","4.64954","46.12","0","SATNPRO1963","31.038","0.43474","5"],
    [19831,"HCEP03730560","2024-04-21 22:00:00","9.4794","3.20575","25.618","4.38","7.45","0.555","2.694","0.04","0.07","29.3121","4.64879","46.26","0","SATNPRO1963","31.074","0.43522","5"],
    [19832,"HCEP03730560","2024-04-21 22:15:00","9.4792","3.20599","25.676","4.383","7.45","0.54","2.778","0.04","0.09","29.3146","4.64916","46.29","0","SATNPRO1963","31.164","0.4365","5"],
    [19833,"HCEP03730560","2024-04-21 22:30:00","9.4788","3.20598","25.681","4.395","7.45","0.573","2.579","0.12","0.07","29.3149","4.64922","46.42","0","SATNPRO1963","31.178","0.4367","5"],
    [19834,"HCEP03730560","2024-04-21 22:45:00","9.4815","3.20657","25.807","4.308","7.45","0.644","3.81","0.08","0.17","29.3186","4.64969","45.5","0","SATNPRO1963","30.86","0.43226","5"],
    [19835,"HCEP03730560","2024-04-21 23:00:00","9.4825","3.20616","25.845","4.226","7.45","0.783","4.727","0.07","0.22","29.3136","4.64897","44.64","0","SATNPRO1963","30.816","0.4316","5"],
    [19836,"HCEP03730560","2024-04-21 23:15:00","9.4815","3.20592","25.935","4.261","7.45","0.788","4.984","0.09","0.35","29.3119","4.64875","45.01","0","SATNPRO1963","30.762","0.4309","5"],
    [19837,"HCEP03730560","2024-04-21 23:30:00","9.4796","3.20531","26.027","4.338","7.45","0.82","4.578","0.08","0.2","29.3073","4.64812","45.82","0","SATNPRO1963","30.888","0.43266","5"],
    [19838,"HCEP03730560","2024-04-21 23:45:00","9.4799","3.20541","26.156","4.338","7.45","0.803","4.987","0.09","0.32","29.308","4.64823","45.82","0","SATNPRO1963","30.88","0.43254","5"],
    [19839,"HCEP03730560","2024-04-22 00:00:00","9.4792","3.20526","26.241","4.363","7.45","0.82","4.541","0.09","0.38","29.307","4.64811","46.08","0","SATNPRO1963","31.056","0.435","5"],
    [19840,"HCEP03730560","2024-04-22 00:15:00","9.4777","3.20496","26.34","4.422","7.46","0.762","4.619","0.12","0.47","29.3052","4.64787","46.7","0","SATNPRO1963","31.206","0.43706","5"],
    [19841,"HCEP03730560","2024-04-22 00:30:00","9.4755","3.20462","26.446","4.505","7.46","0.746","4.259","0.08","0.32","29.3035","4.64767","47.58","0","SATNPRO1963","31.504","0.44126","5"],
    [19842,"HCEP03730560","2024-04-22 00:45:00","9.4754","3.20457","26.568","4.531","7.47","0.729","4.402","0.16","0.25","29.303","4.64762","47.85","0","SATNPRO1963","31.466","0.44074","5"],
    [19843,"HCEP03730560","2024-04-22 01:00:00","9.4743","3.20452","26.76","4.556","7.47","0.792","4.181","0.09","0.16","29.3033","4.64769","48.11","0","SATNPRO1963","31.316","0.43862","5"],
    [19844,"HCEP03730560","2024-04-22 01:15:00","9.4711","3.20411","26.869","4.634","7.47","0.736","4.02","0.09","0.14","29.3017","4.64752","48.94","0","SATNPRO1963","31.432","0.44028","5"],
    [19845,"HCEP03730560","2024-04-22 01:30:00","9.466","3.20273","27.036","4.821","7.48","0.683","2.905","0.07","0.18","29.2919","4.64621","50.91","0","SATNPRO1963","31.77","0.44502","5"],
    [19846,"HCEP03730560","2024-04-22 01:45:00","9.4676","3.20314","27.154","4.858","7.49","0.66","3.529","0.06","0.18","29.2947","4.6466","51.3","0","SATNPRO1963","31.858","0.44624","5"],
    [19847,"HCEP03730560","2024-04-22 02:00:00","9.4648","3.20272","27.242","4.855","7.49","0.736","3.228","0.1","0.17","29.2927","4.64636","51.26","0","SATNPRO1963","31.732","0.44448","5"],
    [19848,"HCEP03730560","2024-04-22 02:15:00","9.4659","3.20302","27.383","4.884","7.5","0.728","3.781","0.11","0.17","29.2948","4.64665","51.56","0","SATNPRO1963","31.586","0.44242","5"],
    [19849,"HCEP03730560","2024-04-22 02:30:00","9.4684","3.20325","27.463","4.758","7.49","0.796","4.2","0.07","0.24","29.295","4.64664","50.24","0","SATNPRO1963","31.522","0.4415","5"],
    [19850,"HCEP03730560","2024-04-22 02:45:00","9.4694","3.20327","27.604","4.706","7.49","0.745","3.764","0.07","0.18","29.2943","4.64653","49.69","0","SATNPRO1963","31.426","0.44018","5"],
    [19851,"HCEP03730560","2024-04-22 03:00:00","9.4693","3.2032","27.673","4.706","7.49","0.796","4.144","0.07","0.16","29.2937","4.64645","49.69","0","SATNPRO1963","31.394000000000002","0.43972","5"],
    [19852,"HCEP03730560","2024-04-22 03:15:00","9.4686","3.20294","27.715","4.713","7.49","0.759","3.986","0.12","0.21","29.2917","4.64618","49.76","0","SATNPRO1963","31.726","0.4444","5"],
    [19853,"HCEP03730560","2024-04-22 03:30:00","9.4673","3.2025","27.774","4.749","7.49","0.766","3.858","0.09","0.25","29.2882","4.6457","50.14","0","SATNPRO1963","31.514","0.44144","5"],
    [19854,"HCEP03730560","2024-04-22 03:45:00","9.4676","3.20256","27.787","4.742","7.49","0.787","3.967","0.13","0.32","29.2886","4.64576","50.06","0","SATNPRO1963","31.400000000000002","0.43982","5"],
    [19855,"HCEP03730560","2024-04-22 04:00:00","9.4638","3.20163","27.674","4.739","7.49","1.011","8.544","0.14","1.1","29.2823","4.64491","50.03","0","SATNPRO1963","31.164","0.4365","5"],
    [19856,"HCEP03730560","2024-04-22 04:15:00","9.4614","3.20091","27.657","4.804","7.49","0.854","4.867","0.19","0.83","29.277","4.6442","50.71","0","SATNPRO1963","31.516","0.44144","5"],
    [19857,"HCEP03730560","2024-04-22 04:30:00","9.4608","3.20075","27.666","4.818","7.49","0.855","4.825","0.09","0.48","29.2758","4.64404","50.86","0","SATNPRO1963","31.344","0.43908","5"],
    [19858,"HCEP03730560","2024-04-22 04:45:00","9.461","3.20073","27.578","4.804","7.49","0.857","6.302","0.16","0.39","29.2755","4.64399","50.7","0","SATNPRO1963","31.19","0.43684","5"],
    [19859,"HCEP03730560","2024-04-22 05:00:00","9.4602","3.20047","27.493","4.806","7.49","0.99","5.378","0.28","0.45","29.2735","4.64371","50.72","0","SATNPRO1963","31.066","0.43514","5"],
    [19860,"HCEP03730560","2024-04-22 05:15:00","9.4625","3.20118","27.419","4.779","7.49","0.912","4.868","0.22","0.23","29.2788","4.64443","50.45","0","SATNPRO1963","31.706","0.44406","5"],
    [19861,"HCEP03730560","2024-04-22 05:30:00","9.4624","3.20114","27.31","4.783","7.49","0.904","5.339","0.14","0.43","29.2786","4.64439","50.48","0","SATNPRO1963","31.324","0.43874","5"],
    [19862,"HCEP03730560","2024-04-22 05:45:00","9.4656","3.20196","27.196","4.749","7.49","0.77","4.734","0.08","0.31","29.2844","4.64516","50.13","0","SATNPRO1963","31.46","0.44064","5"],
    [19863,"HCEP03730560","2024-04-22 06:00:00","9.4647","3.20182","27.043","4.76","7.49","0.885","4.513","0.19","0.37","29.2837","4.64507","50.25","0","SATNPRO1963","31.502","0.44126","5"],
    [19864,"HCEP03730560","2024-04-22 06:15:00","9.4637","3.2015","26.897","4.818","7.49","0.729","4.535","0.05","0.47","29.2814","4.64474","50.86","0","SATNPRO1963","31.614","0.4428","5"],
    [19865,"HCEP03730560","2024-04-22 06:30:00","9.4678","3.20254","26.725","4.76","7.49","0.866","4.431","0.08","0.27","29.2886","4.6457","50.26","0","SATNPRO1963","31.514","0.44144","5"],
    [19866,"HCEP03730560","2024-04-22 06:45:00","9.468","3.20282","26.55","4.738","7.49","0.865","4.636","0.07","0.32","29.2913","4.64607","50.03","0","SATNPRO1963","31.516000000000002","0.44142","5"],
    [19867,"HCEP03730560","2024-04-22 07:00:00","9.4689","3.20318","26.393","4.729","7.48","0.902","4.432","0.11","0.45","29.2944","4.64648","49.93","0","SATNPRO1963","31.616","0.44284","5"],
    [19868,"HCEP03730560","2024-04-22 07:15:00","9.4643","3.20268","26.207","4.811","7.49","0.782","4.263","0.07","0.21","29.2931","4.64637","50.79","0","SATNPRO1963","31.75","0.44474","5"],
    [19869,"HCEP03730560","2024-04-22 07:30:00","9.4635","3.20268","26.037","4.872","7.49","0.794","3.954","0.08","0.3","29.2939","4.64649","51.44","0","SATNPRO1963","31.584","0.44238","5"],
    [19870,"HCEP03730560","2024-04-22 07:45:00","9.464","3.20283","25.854","4.87","7.49","0.732","4.032","0.08","0.2","29.2949","4.64662","51.42","0","SATNPRO1963","31.774","0.44504","5"],
    [19871,"HCEP03730560","2024-04-22 08:00:00","9.4637","3.20287","25.657","4.874","7.49","0.777","4.268","0.09","0.31","29.2957","4.64673","51.46","0","SATNPRO1963","31.692","0.4439","5"],
    [19872,"HCEP03730560","2024-04-22 08:15:00","9.4619","3.20281","25.485","4.896","7.49","0.723","3.825","0.15","0.23","29.2967","4.64688","51.69","0","SATNPRO1963","31.7","0.444","5"],
    [19873,"HCEP03730560","2024-04-22 08:30:00","9.4609","3.20283","25.308","4.919","7.49","0.767","4.189","0.07","0.22","29.2978","4.64705","51.93","0","SATNPRO1963","31.512","0.44136","5"],
    [19874,"HCEP03730560","2024-04-22 08:45:00","9.4602","3.20284","25.156","4.933","7.5","0.879","4.02","0.8","0.4","29.2985","4.64717","52.08","0","SATNPRO1963","31.884","0.44658","5"],
    [19875,"HCEP03730560","2024-04-22 09:00:00","9.4596","3.20281","25.009","4.939","7.5","0.759","4.117","0.05","0.22","29.2988","4.6472","52.14","0","SATNPRO1963","32.03","0.4486","5"],
    [19876,"HCEP03730560","2024-04-22 09:15:00","9.4604","3.20287","24.917","4.93","7.5","0.745","4.436","0.07","0.23","29.2988","4.64718","52.05","0","SATNPRO1963","31.843999999999998","0.446","5"],
    [19877,"HCEP03730560","2024-04-22 09:30:00","9.4613","3.2029","24.851","4.907","7.49","0.758","4.173","0.05","0.24","29.2984","4.6471","51.81","0","SATNPRO1963","31.614","0.4428","5"],
    [19878,"HCEP03730560","2024-04-22 09:45:00","9.4621","3.20292","24.857","4.887","7.49","0.732","4.48","0.07","0.36","29.2979","4.64701","51.59","0","SATNPRO1963","31.598","0.44262","5"],
    [19879,"HCEP03730560","2024-04-22 10:00:00","9.4627","3.2029","24.843","4.871","7.49","1.001","4.532","1.06","0.52","29.2972","4.64691","51.42","0","SATNPRO1963","31.494","0.4411","5"],
    [19880,"HCEP03730560","2024-04-22 10:15:00","9.4629","3.20292","24.867","4.853","7.49","0.769","4.139","0.1","0.24","29.2972","4.64691","51.24","0","SATNPRO1963","31.62","0.44292","5"],
    [19881,"HCEP03730560","2024-04-22 10:30:00","9.4628","3.20293","24.904","4.852","7.49","0.795","4.349","0.05","0.45","29.2974","4.64694","51.23","0","SATNPRO1963","31.61","0.44272","5"],
    [19882,"HCEP03730560","2024-04-22 10:45:00","9.4627","3.20292","24.938","4.859","7.49","0.744","3.88","0.07","0.22","29.2973","4.64693","51.3","0","SATNPRO1963","31.79","0.44524","5"],
    [19883,"HCEP03730560","2024-04-22 11:00:00","9.4618","3.20294","25.009","4.869","7.49","0.756","3.737","0.05","0.2","29.2983","4.6471","51.4","0","SATNPRO1963","31.664","0.4435","5"],
    [19884,"HCEP03730560","2024-04-22 11:15:00","9.4608","3.20304","25.072","4.887","7.49","0.752","3.569","0.07","0.2","29.3001","4.64737","51.59","0","SATNPRO1963","31.526","0.44158","5"],
    [19885,"HCEP03730560","2024-04-22 11:30:00","9.4609","3.20314","25.178","4.886","7.49","0.771","3.693","0.07","0.24","29.301","4.6475","51.58","0","SATNPRO1963","31.53","0.44162","5"],
    [19886,"HCEP03730560","2024-04-22 11:45:00","9.4608","3.20309","25.285","4.887","7.49","0.713","3.391","0.05","0.17","29.3004","4.64743","51.6","0","SATNPRO1963","31.794","0.44532","5"],
    [19887,"HCEP03730560","2024-04-22 12:00:00","9.4608","3.20302","25.392","4.891","7.5","0.775","3.233","0.07","0.21","29.2997","4.64734","51.63","0","SATNPRO1963","31.562","0.44204","5"],
    [19888,"HCEP03730560","2024-04-22 12:15:00","9.4619","3.20285","25.526","4.89","7.5","0.741","3","0.08","0.18","29.2971","4.64695","51.63","0","SATNPRO1963","31.842","0.44598","5"],
    [19889,"HCEP03730560","2024-04-22 12:30:00","9.4624","3.20265","25.679","4.885","7.5","0.733","2.793","0.07","0.11","29.2946","4.64659","51.57","0","SATNPRO1963","31.656","0.44336","5"],
    [19890,"HCEP03730560","2024-04-22 12:45:00","9.4644","3.20259","25.828","4.853","7.49","0.69","2.702","0.09","0.09","29.2922","4.64622","51.23","0","SATNPRO1963","31.654","0.44336","5"],
    [19891,"HCEP03730560","2024-04-22 13:00:00","9.4639","3.20297","25.964","4.832","7.49","0.815","3.427","0.1","0.45","29.2965","4.64685","51.01","0","SATNPRO1963","31.692","0.44392","5"],
    [19892,"HCEP03730560","2024-04-22 13:15:00","9.4635","3.20332","26.113","4.796","7.49","0.869","4.411","0.08","0.21","29.3003","4.64741","50.64","0","SATNPRO1963","31.666","0.44354","5"],
    [19893,"HCEP03730560","2024-04-22 13:30:00","9.4638","3.20334","26.248","4.781","7.49","0.874","3.979","0.08","0.12","29.3001","4.64739","50.47","0","SATNPRO1963","31.428","0.44022","5"],
    [19894,"HCEP03730560","2024-04-22 13:45:00","9.4643","3.20332","26.389","4.78","7.49","0.798","3.416","0.07","0.21","29.2995","4.64731","50.47","0","SATNPRO1963","31.524","0.44154","5"],
    [19895,"HCEP03730560","2024-04-22 14:00:00","9.4643","3.20332","26.586","4.775","7.49","0.863","3.38","0.07","0.13","29.2994","4.6473","50.42","0","SATNPRO1963","31.464000000000002","0.4407","5"],
    [19896,"HCEP03730560","2024-04-22 14:15:00","9.464","3.20334","26.697","4.771","7.49","0.824","3.639","0.05","0.12","29.2998","4.64736","50.38","0","SATNPRO1963","31.56","0.44204","5"],
    [19897,"HCEP03730560","2024-04-22 14:30:00","9.464","3.20334","26.88","4.77","7.49","0.895","3.784","0.07","0.14","29.2997","4.64736","50.36","0","SATNPRO1963","31.419999999999998","0.44008","5"],
    [19898,"HCEP03730560","2024-04-22 14:45:00","9.4644","3.20337","27.018","4.763","7.49","0.841","3.381","0.06","0.11","29.2996","4.64735","50.29","0","SATNPRO1963","31.334","0.4389","5"],
    [19899,"HCEP03730560","2024-04-22 15:00:00","9.4651","3.20341","27.113","4.749","7.49","0.859","3.391","0.06","0.08","29.2995","4.64732","50.15","0","SATNPRO1963","31.588","0.44244","5"],
    [19900,"HCEP03730560","2024-04-22 15:15:00","9.4655","3.20346","27.242","4.733","7.49","0.849","3.689","0.08","0.17","29.2996","4.64734","49.97","0","SATNPRO1963","31.195999999999998","0.437","5"],
    [19901,"HCEP03730560","2024-04-22 15:30:00","9.4674","3.20359","27.342","4.703","7.49","0.856","3.309","0.05","0.19","29.2993","4.64727","49.66","0","SATNPRO1963","31.334","0.43886","5"],
    [19902,"HCEP03730560","2024-04-22 15:45:00","9.4672","3.20359","27.434","4.689","7.49","0.829","3.259","0.07","0.15","29.2994","4.6473","49.51","0","SATNPRO1963","31.264","0.43792","5"],
    [19903,"HCEP03730560","2024-04-22 16:00:00","9.4666","3.20356","27.497","4.692","7.49","0.919","3.307","0.14","0.19","29.2996","4.64734","49.54","0","SATNPRO1963","31.4","0.43986","5"],
    [19904,"HCEP03730560","2024-04-22 16:15:00","9.4678","3.20363","27.518","4.681","7.48","0.842","3.041","0.12","0.15","29.2993","4.64727","49.42","0","SATNPRO1963","31.564","0.44212","5"],
    [19905,"HCEP03730560","2024-04-22 16:30:00","9.4677","3.20369","27.547","4.672","7.48","0.922","3.108","0.19","0.14","29.3","4.64738","49.33","0","SATNPRO1963","31.35","0.43914","5"],
    [19906,"HCEP03730560","2024-04-22 16:45:00","9.4668","3.20359","27.527","4.68","7.48","0.841","3.326","0.11","0.49","29.2997","4.64735","49.41","0","SATNPRO1963","31.474","0.44086","5"],
    [19907,"HCEP03730560","2024-04-22 17:00:00","9.4656","3.2035","27.483","4.705","7.48","0.946","3.947","0.17","0.36","29.2998","4.64738","49.68","0","SATNPRO1963","31.518","0.44146","5"],
    [19908,"HCEP03730560","2024-04-22 17:15:00","9.4672","3.20363","27.46","4.686","7.48","0.993","3.74","0.28","0.15","29.2998","4.64735","49.48","0","SATNPRO1963","31.45","0.4405","5"],
    [19909,"HCEP03730560","2024-04-22 17:30:00","9.4672","3.20362","27.41","4.675","7.48","1.164","3.892","0.97","0.43","29.2998","4.64735","49.37","0","SATNPRO1963","31.462","0.44066","5"],
    [19910,"HCEP03730560","2024-04-22 17:45:00","9.4682","3.2037","27.351","4.652","7.48","0.884","3.831","0.1","0.17","29.2998","4.64733","49.12","0","SATNPRO1963","31.268","0.438","5"],
    [19911,"HCEP03730560","2024-04-22 18:00:00","9.4663","3.20357","27.283","4.671","7.48","0.892","3.516","0.09","0.33","29.3001","4.6474","49.32","0","SATNPRO1963","31.43","0.44024","5"],
    [19912,"HCEP03730560","2024-04-22 18:15:00","9.4668","3.20362","27.207","4.67","7.48","0.864","3.635","0.12","0.23","29.3001","4.64739","49.31","0","SATNPRO1963","31.326","0.43876","5"],
    [19913,"HCEP03730560","2024-04-22 18:30:00","9.4659","3.20353","27.13","4.682","7.48","0.892","3.358","0.12","0.13","29.3","4.64738","49.44","0","SATNPRO1963","31.332","0.43888","5"],
    [19914,"HCEP03730560","2024-04-22 18:45:00","9.4656","3.2035","27.053","4.693","7.48","0.871","3.645","0.15","0.19","29.3","4.64739","49.55","0","SATNPRO1963","31.41","0.43992","5"],
    [19915,"HCEP03730560","2024-04-22 19:00:00","9.4663","3.20353","26.927","4.689","7.48","0.904","3.589","0.16","0.27","29.2998","4.64734","49.51","0","SATNPRO1963","31.306","0.43852","5"],
    [19916,"HCEP03730560","2024-04-22 19:15:00","9.4657","3.20345","26.84","4.706","7.48","0.83","2.852","0.14","0.19","29.2995","4.64729","49.69","0","SATNPRO1963","31.57","0.44224","5"],
    [19917,"HCEP03730560","2024-04-22 19:30:00","9.4647","3.20327","26.742","4.758","7.48","0.861","4.208","0.17","2.53","29.2985","4.64717","50.24","0","SATNPRO1963","31.612","0.4428","5"],
    [19918,"HCEP03730560","2024-04-22 19:45:00","9.4644","3.20316","26.649","4.79","7.49","0.738","3.082","0.08","0.12","29.2978","4.64706","50.57","0","SATNPRO1963","31.786","0.44522","5"],
    [19919,"HCEP03730560","2024-04-22 20:00:00","9.4638","3.20295","26.545","4.816","7.49","0.794","3.067","0.1","0.11","29.2961","4.64683","50.84","0","SATNPRO1963","31.844","0.44606","5"],
    [19920,"HCEP03730560","2024-04-22 20:15:00","9.4635","3.20306","26.424","4.82","7.49","0.721","3.509","0.1","0.18","29.2975","4.64703","50.89","0","SATNPRO1963","31.672","0.44364","5"],
    [19921,"HCEP03730560","2024-04-22 20:30:00","9.4633","3.20313","26.304","4.818","7.49","0.764","3.542","0.07","0.17","29.2985","4.64717","50.87","0","SATNPRO1963","31.572","0.44222","5"],
    [19922,"HCEP03730560","2024-04-22 20:45:00","9.4623","3.20315","26.195","4.82","7.49","0.69","2.914","0.05","0.09","29.2995","4.64733","50.89","0","SATNPRO1963","31.588","0.44242","5"],
    [19923,"HCEP03730560","2024-04-22 21:00:00","9.4622","3.20307","26.061","4.831","7.49","0.803","2.631","0.15","0.16","29.2988","4.64722","51","0","SATNPRO1963","31.746","0.44468","5"],
    [19924,"HCEP03730560","2024-04-22 21:15:00","9.4625","3.20306","25.944","4.838","7.49","0.741","2.594","0.1","0.29","29.2986","4.64717","51.08","0","SATNPRO1963","31.802","0.44548","5"],
    [19925,"HCEP03730560","2024-04-22 21:30:00","9.4608","3.20296","25.831","4.872","7.49","0.735","3.103","0.06","0.11","29.2989","4.64724","51.44","0","SATNPRO1963","32.022","0.44852","5"],
    [19926,"HCEP03730560","2024-04-22 21:45:00","9.4596","3.20298","25.748","4.901","7.49","0.735","3.101","0.07","0.24","29.3001","4.64744","51.74","0","SATNPRO1963","31.764","0.44492","5"],
    [19927,"HCEP03730560","2024-04-22 22:00:00","9.4612","3.20325","25.701","4.874","7.49","0.951","5.056","0.06","0.31","29.3017","4.64762","51.46","0","SATNPRO1963","31.39","0.43966","5"],
    [19928,"HCEP03730560","2024-04-22 22:15:00","9.4598","3.20303","25.692","4.85","7.49","0.838","3.862","0.1","0.36","29.3005","4.64749","51.2","0","SATNPRO1963","31.838","0.44596","5"],
    [19929,"HCEP03730560","2024-04-22 22:30:00","9.4617","3.20332","25.724","4.819","7.49","0.871","4.172","0.08","0.32","29.3019","4.64765","50.88","0","SATNPRO1963","31.386","0.43956","5"],
    [19930,"HCEP03730560","2024-04-22 22:45:00","9.4605","3.20317","25.756","4.813","7.49","0.807","4.431","0.07","0.66","29.3014","4.6476","50.81","0","SATNPRO1963","31.413999999999998","0.44","5"],
    [19931,"HCEP03730560","2024-04-22 23:00:00","9.461","3.20322","25.8","4.814","7.49","0.901","4.055","0.22","0.38","29.3015","4.64761","50.82","0","SATNPRO1963","31.474","0.44086","5"],
    [19932,"HCEP03730560","2024-04-22 23:15:00","9.4612","3.20325","25.875","4.81","7.49","0.79","3.676","0.14","0.26","29.3015","4.64762","50.78","0","SATNPRO1963","31.38","0.43954","5"],
    [19933,"HCEP03730560","2024-04-22 23:30:00","9.462","3.20329","25.96","4.804","7.49","0.867","4.242","0.1","0.34","29.3013","4.64758","50.72","0","SATNPRO1963","31.452","0.44048","5"],
    [19934,"HCEP03730560","2024-04-22 23:45:00","9.4621","3.20326","26.049","4.788","7.49","0.804","4.267","0.06","0.3","29.3009","4.64751","50.55","0","SATNPRO1963","31.424","0.44014","5"],
    [19935,"HCEP03730560","2024-04-23 00:00:00","9.4633","3.2034","26.142","4.763","7.49","1.041","4.724","0.2","0.37","29.3012","4.64754","50.29","0","SATNPRO1963","31.36","0.4392","5"],
    [19936,"HCEP03730560","2024-04-23 00:15:00","9.4647","3.2035","26.258","4.714","7.48","0.968","4.712","0.18","0.43","29.3011","4.64751","49.77","0","SATNPRO1963","31.428","0.44022","5"],
    [19937,"HCEP03730560","2024-04-23 00:30:00","9.4654","3.20343","26.369","4.686","7.48","0.942","5.278","0.08","0.33","29.2997","4.64731","49.47","0","SATNPRO1963","31.512","0.44136","5"],
    [19938,"HCEP03730560","2024-04-23 00:45:00","9.4656","3.20331","26.489","4.677","7.48","5.772","55.986","3.28","26.6","29.2984","4.64712","49.38","0","SATNPRO1963","31.448","0.44046","5"],
    [19939,"HCEP03730560","2024-04-23 01:00:00","9.4646","3.20322","26.617","4.694","7.48","1.511","10.936","0.74","4.99","29.2982","4.64712","49.56","0","SATNPRO1963","31.412","0.43998","5"],
    [19940,"HCEP03730560","2024-04-23 01:15:00","9.4635","3.20297","26.75","4.733","7.48","2.335","23.971","2.21","27.12","29.2965","4.6469","49.97","0","SATNPRO1963","31.302","0.43844","5"],
    [19941,"HCEP03730560","2024-04-23 01:30:00","9.4635","3.20293","26.878","4.749","7.49","0.949","5.653","0.07","0.28","29.2959","4.64683","50.14","0","SATNPRO1963","31.732","0.44444","5"],
    [19942,"HCEP03730560","2024-04-23 01:45:00","9.4611","3.20258","27.008","4.809","7.49","0.907","4.648","0.14","0.4","29.2943","4.64665","50.77","0","SATNPRO1963","31.576","0.44226","5"],
    [19943,"HCEP03730560","2024-04-23 02:00:00","9.4596","3.20248","27.106","4.885","7.49","0.934","4.11","0.14","0.35","29.2945","4.6467","51.57","0","SATNPRO1963","31.676000000000002","0.44368","5"],
    [19944,"HCEP03730560","2024-04-23 02:15:00","9.4604","3.20248","27.196","4.875","7.5","0.932","5.019","0.2","0.44","29.2939","4.64662","51.46","0","SATNPRO1963","31.782","0.44516","5"],
    [19945,"HCEP03730560","2024-04-23 02:30:00","9.4594","3.20233","27.311","4.892","7.5","0.94","4.752","0.19","0.36","29.2931","4.64653","51.64","0","SATNPRO1963","31.718","0.44428","5"],
    [19946,"HCEP03730560","2024-04-23 02:45:00","9.4615","3.20245","27.395","4.854","7.5","0.871","3.72","0.08","0.16","29.2926","4.64642","51.24","0","SATNPRO1963","31.74","0.4446","5"],
    [19947,"HCEP03730560","2024-04-23 03:00:00","9.4621","3.20244","27.498","4.836","7.5","0.908","4.201","0.15","0.24","29.292","4.64633","51.05","0","SATNPRO1963","31.778","0.4451","5"],
    [19948,"HCEP03730560","2024-04-23 03:15:00","9.462","3.20231","27.59","4.833","7.5","0.848","4.522","0.07","0.45","29.2907","4.64615","51.02","0","SATNPRO1963","31.83","0.44582","5"],
    [19949,"HCEP03730560","2024-04-23 03:30:00","9.4619","3.2022","27.631","4.837","7.5","0.89","4.482","0.07","0.3","29.2897","4.646","51.06","0","SATNPRO1963","31.526","0.4416","5"],
    [19950,"HCEP03730560","2024-04-23 03:45:00","9.4621","3.20217","27.682","4.833","7.5","0.912","4.887","0.12","0.48","29.2891","4.64593","51.02","0","SATNPRO1963","31.668","0.44356","5"],
    [19951,"HCEP03730560","2024-04-23 04:00:00","9.4623","3.20227","27.718","4.811","7.49","0.962","4.308","0.16","0.37","29.29","4.64604","50.78","0","SATNPRO1963","31.678","0.44368","5"],
    [19952,"HCEP03730560","2024-04-23 04:15:00","9.4625","3.20224","27.718","4.804","7.49","0.917","3.853","0.09","0.35","29.2895","4.64598","50.72","0","SATNPRO1963","31.71","0.44416","5"],
    [19953,"HCEP03730560","2024-04-23 04:30:00","9.4622","3.20218","27.702","4.808","7.49","0.921","3.937","0.12","0.42","29.2892","4.64594","50.75","0","SATNPRO1963","31.708000000000002","0.44412","5"],
    [19954,"HCEP03730560","2024-04-23 04:45:00","9.4635","3.20237","27.647","4.765","7.49","0.994","3.596","0.13","0.15","29.29","4.64603","50.3","0","SATNPRO1963","31.574","0.44226","5"],
    [19955,"HCEP03730560","2024-04-23 05:00:00","9.4635","3.20237","27.598","4.74","7.49","0.906","4.521","0.06","0.41","29.29","4.64602","50.04","0","SATNPRO1963","31.666","0.44354","5"],
    [19956,"HCEP03730560","2024-04-23 05:15:00","9.4637","3.20238","27.518","4.732","7.49","0.929","3.84","0.11","0.24","29.2901","4.64602","49.96","0","SATNPRO1963","31.502","0.44126","5"],
    [19957,"HCEP03730560","2024-04-23 05:30:00","9.4637","3.20239","27.444","4.726","7.49","1.027","4.21","0.28","0.17","29.2901","4.64602","49.9","0","SATNPRO1963","31.436","0.4403","5"],
    [19958,"HCEP03730560","2024-04-23 05:45:00","9.4637","3.20235","27.342","4.729","7.49","0.992","4.447","0.19","0.12","29.2898","4.64598","49.93","0","SATNPRO1963","31.592","0.44252","5"],
    [19959,"HCEP03730560","2024-04-23 06:00:00","9.4635","3.20235","27.22","4.734","7.49","0.946","4.12","0.07","0.21","29.29","4.646","49.98","0","SATNPRO1963","31.198","0.43696","5"],
    [19960,"HCEP03730560","2024-04-23 06:15:00","9.4635","3.20235","27.069","4.733","7.48","0.975","3.954","0.17","0.18","29.29","4.646","49.97","0","SATNPRO1963","31.602","0.44262","5"],
    [19961,"HCEP03730560","2024-04-23 06:30:00","9.4632","3.20233","26.913","4.742","7.48","1.007","4.093","0.17","0.21","29.2902","4.64601","50.06","0","SATNPRO1963","31.62","0.44288","5"],
    [19962,"HCEP03730560","2024-04-23 06:45:00","9.4635","3.20243","26.755","4.74","7.48","1.011","3.908","0.25","0.4","29.291","4.64612","50.04","0","SATNPRO1963","31.42","0.44006","5"],
    [19963,"HCEP03730560","2024-04-23 07:00:00","9.4635","3.20237","26.578","4.73","7.48","1.03","3.889","0.14","0.15","29.2905","4.64603","49.94","0","SATNPRO1963","31.566","0.44214","5"],
    [19964,"HCEP03730560","2024-04-23 07:15:00","9.4634","3.20234","26.401","4.731","7.48","0.995","3.647","0.17","0.2","29.2903","4.646","49.95","0","SATNPRO1963","31.426000000000002","0.44014","5"],
    [19965,"HCEP03730560","2024-04-23 07:30:00","9.4632","3.20226","26.22","4.738","7.48","1.019","3.41","0.14","0.08","29.2898","4.64591","50.02","0","SATNPRO1963","31.330000000000002","0.43886","5"],
    [19966,"HCEP03730560","2024-04-23 07:45:00","9.4631","3.20218","26.024","4.74","7.48","0.966","3.62","0.16","0.2","29.2891","4.64581","50.03","0","SATNPRO1963","31.436","0.44032","5"],
    [19967,"HCEP03730560","2024-04-23 08:00:00","9.4625","3.20211","25.841","4.765","7.48","0.915","3.348","0.11","0.23","29.289","4.6458","50.3","0","SATNPRO1963","31.784","0.44518","5"],
    [19968,"HCEP03730560","2024-04-23 08:15:00","9.4625","3.20205","25.638","4.772","7.48","0.908","3.307","0.15","0.15","29.2884","4.64569","50.38","0","SATNPRO1963","31.622","0.44296","5"],
    [19969,"HCEP03730560","2024-04-23 08:30:00","9.4614","3.20198","25.432","4.812","7.49","1","3.395","0.14","0.29","29.2887","4.64575","50.79","0","SATNPRO1963","31.66","0.44344","5"],
    [19970,"HCEP03730560","2024-04-23 08:45:00","9.4616","3.20203","25.237","4.821","7.49","0.953","3.356","0.17","0.31","29.2891","4.64579","50.89","0","SATNPRO1963","31.78","0.44512","5"],
    [19971,"HCEP03730560","2024-04-23 09:00:00","9.4592","3.20181","25.055","4.881","7.49","0.903","3.045","0.09","0.15","29.289","4.6458","51.53","0","SATNPRO1963","31.84","0.44596","5"],
    [19972,"HCEP03730560","2024-04-23 09:15:00","9.4606","3.20205","24.9","4.843","7.49","0.903","4.005","0.11","0.27","29.2903","4.64596","51.12","0","SATNPRO1963","31.534","0.44168","5"],
    [19973,"HCEP03730560","2024-04-23 09:30:00","9.4544","3.20224","24.766","4.839","7.49","1.064","4.378","0.36","0.43","29.2974","4.64708","51.08","0","SATNPRO1963","31.509999999999998","0.44132","5"],
    [19974,"HCEP03730560","2024-04-23 09:45:00","9.4481","3.20202","24.657","5.073","7.5","0.878","3.157","0.09","0.19","29.3004","4.64761","53.54","0","SATNPRO1963","32.294","0.45234","5"],
    [19975,"HCEP03730560","2024-04-23 10:00:00","9.4489","3.20204","24.571","5.12","7.51","0.965","3.025","0.19","0.15","29.2998","4.64751","54.03","0","SATNPRO1963","32.18","0.45072","5"],
    [19976,"HCEP03730560","2024-04-23 10:15:00","9.4484","3.20196","24.518","5.135","7.51","0.835","2.956","0.13","0.2","29.2995","4.64748","54.19","0","SATNPRO1963","32.422","0.45408","5"],
    [19977,"HCEP03730560","2024-04-23 10:30:00","9.4487","3.20191","24.503","5.136","7.51","0.958","2.751","0.27","0.17","29.2987","4.64736","54.21","0","SATNPRO1963","32.153999999999996","0.4504","5"],
    [19978,"HCEP03730560","2024-04-23 10:45:00","9.4507","3.20195","24.526","5.087","7.51","0.9","3.404","0.16","0.74","29.2975","4.64715","53.69","0","SATNPRO1963","32.04","0.4488","5"],
    [19979,"HCEP03730560","2024-04-23 11:00:00","9.4512","3.20202","24.564","5.061","7.51","0.943","2.997","0.14","0.15","29.2978","4.64718","53.42","0","SATNPRO1963","32.086","0.44944","5"],
    [19980,"HCEP03730560","2024-04-23 11:15:00","9.452","3.20204","24.637","5.039","7.51","0.816","3.445","0.07","0.55","29.2974","4.64711","53.19","0","SATNPRO1963","31.772000000000002","0.44498","5"],
    [19981,"HCEP03730560","2024-04-23 11:30:00","9.4536","3.20206","24.698","4.99","7.5","1.016","3.497","0.2","0.18","29.2962","4.64692","52.67","0","SATNPRO1963","32.048","0.44886","5"],
    [19982,"HCEP03730560","2024-04-23 11:45:00","9.4546","3.20205","24.783","4.968","7.5","0.94","3.338","0.19","0.15","29.2952","4.64677","52.43","0","SATNPRO1963","31.846","0.44606","5"],
    [19983,"HCEP03730560","2024-04-23 12:00:00","9.4576","3.20208","24.891","4.895","7.5","0.894","3.547","0.09","0.19","29.293","4.64641","51.67","0","SATNPRO1963","31.792","0.4453","5"],
    [19984,"HCEP03730560","2024-04-23 12:15:00","9.4583","3.20216","25.029","4.853","7.49","0.905","3.584","0.1","0.44","29.2932","4.64642","51.23","0","SATNPRO1963","31.622","0.44294","5"],
    [19985,"HCEP03730560","2024-04-23 12:30:00","9.4604","3.20206","25.164","4.818","7.49","0.997","3.993","0.13","0.19","29.2905","4.646","50.86","0","SATNPRO1963","31.728","0.4444","5"],
    [19986,"HCEP03730560","2024-04-23 12:45:00","9.4599","3.20197","25.307","4.828","7.49","0.972","3.549","0.16","0.17","29.2898","4.64593","50.96","0","SATNPRO1963","31.732","0.44444","5"],
    [19987,"HCEP03730560","2024-04-23 13:00:00","9.4604","3.20199","25.45","4.818","7.49","0.949","3.714","0.13","0.2","29.2896","4.6459","50.86","0","SATNPRO1963","31.76","0.44488","5"],
    [19988,"HCEP03730560","2024-04-23 13:15:00","9.4602","3.20185","25.626","4.836","7.49","1.085","4.189","0.41","1.05","29.2883","4.64572","51.05","0","SATNPRO1963","31.634","0.44308","5"],
    [19989,"HCEP03730560","2024-04-23 13:30:00","9.4596","3.20186","25.803","4.848","7.49","1.049","3.59","0.25","0.22","29.2888","4.64582","51.18","0","SATNPRO1963","31.652","0.44334","5"],
    [19990,"HCEP03730560","2024-04-23 13:45:00","9.4595","3.202","25.986","4.841","7.49","0.938","3.896","0.13","0.37","29.2903","4.64604","51.1","0","SATNPRO1963","31.71","0.44416","5"],
    [19991,"HCEP03730560","2024-04-23 14:00:00","9.457","3.20213","26.165","4.872","7.5","0.911","3.143","0.12","0.12","29.2935","4.64656","51.42","0","SATNPRO1963","31.846","0.446","5"],
    [19992,"HCEP03730560","2024-04-23 14:15:00","9.4537","3.20221","26.334","4.934","7.5","0.845","2.545","0.12","0.1","29.2969","4.64711","52.08","0","SATNPRO1963","32.114","0.44978","5"],
    [19993,"HCEP03730560","2024-04-23 14:30:00","9.4573","3.20214","26.508","4.911","7.5","0.927","2.687","0.1","0.2","29.2933","4.64654","51.84","0","SATNPRO1963","31.786","0.44518","5"],
    [19994,"HCEP03730560","2024-04-23 14:45:00","9.459","3.20218","26.692","4.885","7.5","0.917","3.457","0.1","0.32","29.2922","4.64637","51.57","0","SATNPRO1963","32.084","0.4494","5"],
    [19995,"HCEP03730560","2024-04-23 15:00:00","9.4533","3.20234","26.868","4.926","7.5","0.944","2.723","0.06","0.17","29.2985","4.64738","52","0","SATNPRO1963","31.91","0.44698","5"],
    [19996,"HCEP03730560","2024-04-23 15:15:00","9.4529","3.20226","27.035","4.949","7.5","0.896","2.445","0.11","0.14","29.2978","4.64729","52.24","0","SATNPRO1963","31.752","0.44474","5"],
    [19997,"HCEP03730560","2024-04-23 15:30:00","9.4588","3.20217","27.199","4.895","7.5","0.938","2.821","0.08","0.15","29.292","4.64637","51.67","0","SATNPRO1963","31.88","0.44654","5"],
    [19998,"HCEP03730560","2024-04-23 15:45:00","9.4579","3.20223","27.294","4.864","7.5","1.013","2.724","0.45","0.13","29.2933","4.64658","51.34","0","SATNPRO1963","31.742","0.44462","5"],
    [19999,"HCEP03730560","2024-04-23 16:00:00","9.4612","3.20232","27.402","4.788","7.5","1.022","2.959","0.13","0.22","29.2914","4.64626","50.55","0","SATNPRO1963","31.76","0.44486","5"],
    [20000,"HCEP03730560","2024-04-23 16:15:00","9.4613","3.20234","27.572","4.754","7.49","0.946","3.038","0.09","0.23","29.2916","4.64629","50.18","0","SATNPRO1963","31.528","0.4416","5"],
    [20001,"HCEP03730560","2024-04-23 16:30:00","9.453","3.20232","27.597","4.937","7.5","0.934","2.626","0.1","0.14","29.2982","4.64738","52.11","0","SATNPRO1963","32.068","0.44914","5"],
    [20002,"HCEP03730560","2024-04-23 16:45:00","9.4599","3.2023","27.665","4.859","7.5","0.98","3.576","0.22","0.95","29.2923","4.64642","51.3","0","SATNPRO1963","31.666","0.4435","5"],
    [20003,"HCEP03730560","2024-04-23 17:00:00","9.4598","3.20229","27.674","4.812","7.5","0.844","2.923","0.07","0.3","29.2922","4.64641","50.79","0","SATNPRO1963","31.81","0.44558","5"],
    [20004,"HCEP03730560","2024-04-23 17:15:00","9.4522","3.20223","27.661","4.974","7.5","0.848","2.277","0.15","0.11","29.2979","4.64736","52.5","0","SATNPRO1963","31.900000000000002","0.4468","5"],
    [20005,"HCEP03730560","2024-04-23 17:30:00","9.4583","3.20222","27.688","4.911","7.5","0.877","2.711","0.07","0.21","29.2928","4.64652","51.84","0","SATNPRO1963","32.006","0.44832","5"],
    [20006,"HCEP03730560","2024-04-23 17:45:00","9.4534","3.20214","27.596","4.951","7.5","0.828","2.769","0.08","0.11","29.296","4.64706","52.26","0","SATNPRO1963","32.204","0.45106","5"],
    [20007,"HCEP03730560","2024-04-23 18:00:00","9.4537","3.20216","27.536","4.991","7.51","0.858","2.772","0.08","0.12","29.296","4.64705","52.68","0","SATNPRO1963","31.88","0.44652","5"],
    [20008,"HCEP03730560","2024-04-23 18:15:00","9.4555","3.20213","27.508","4.96","7.51","0.843","2.544","0.07","0.09","29.2942","4.64675","52.36","0","SATNPRO1963","31.933999999999997","0.44728","5"],
    [20009,"HCEP03730560","2024-04-23 18:30:00","9.4559","3.20204","27.429","4.948","7.5","0.857","2.584","0.09","0.12","29.293","4.64658","52.23","0","SATNPRO1963","31.838","0.44592","5"],
    [20010,"HCEP03730560","2024-04-23 18:45:00","9.4559","3.20202","27.38","4.948","7.5","0.866","2.733","0.19","0.14","29.2928","4.64654","52.23","0","SATNPRO1963","31.796","0.44536","5"],
    [20011,"HCEP03730560","2024-04-23 19:00:00","9.457","3.20205","27.339","4.91","7.5","0.857","2.859","0.06","0.12","29.2922","4.64644","51.83","0","SATNPRO1963","31.804000000000002","0.44544","5"],
    [20012,"HCEP03730560","2024-04-23 19:15:00","9.4566","3.20196","27.258","4.924","7.5","0.809","2.467","0.06","0.05","29.2916","4.64636","51.98","0","SATNPRO1963","31.892","0.44668","5"],
    [20013,"HCEP03730560","2024-04-23 19:30:00","9.4559","3.20189","27.162","4.943","7.5","0.818","2.531","0.07","0.04","29.2915","4.64635","52.17","0","SATNPRO1963","32.05","0.44894","5"],
    [20014,"HCEP03730560","2024-04-23 19:45:00","9.4571","3.2018","27.066","4.941","7.5","0.802","2.495","0.08","0.06","29.2898","4.64607","52.15","0","SATNPRO1963","31.968","0.44776","5"],
    [20015,"HCEP03730560","2024-04-23 20:00:00","9.4587","3.20161","27.04","4.908","7.5","0.83","2.464","0.06","0.07","29.2865","4.64557","51.81","0","SATNPRO1963","31.822","0.44574","5"],
    [20016,"HCEP03730560","2024-04-23 20:15:00","9.4566","3.20189","26.918","4.923","7.5","0.766","2.49","0.05","0.07","29.2911","4.64627","51.96","0","SATNPRO1963","31.832","0.44588","5"],
    [20017,"HCEP03730560","2024-04-23 20:30:00","9.4559","3.20156","26.784","4.957","7.5","0.832","2.373","0.06","0.07","29.2884","4.64588","52.33","0","SATNPRO1963","32.038","0.44876","5"],
    [20018,"HCEP03730560","2024-04-23 20:45:00","9.4566","3.20188","26.699","4.944","7.5","0.856","3.068","0.13","0.11","29.2911","4.64626","52.18","0","SATNPRO1963","31.87","0.44634","5"],
    [20019,"HCEP03730560","2024-04-23 21:00:00","9.4553","3.20144","26.621","4.963","7.5","0.83","2.493","0.05","0.08","29.2877","4.64579","52.39","0","SATNPRO1963","32.18","0.45076","5"],
    [20020,"HCEP03730560","2024-04-23 21:15:00","9.4595","3.20221","26.484","4.844","7.5","0.905","3.932","0.06","0.16","29.2921","4.64633","51.14","0","SATNPRO1963","31.490000000000002","0.44102","5"],
    [20021,"HCEP03730560","2024-04-23 21:30:00","9.4608","3.20242","26.372","4.71","7.49","0.984","4.31","0.07","0.2","29.2933","4.64647","49.72","0","SATNPRO1963","31.584","0.44238","5"],
    [20022,"HCEP03730560","2024-04-23 21:45:00","9.4619","3.20249","26.26","4.693","7.48","0.922","4.399","0.05","0.12","29.2931","4.64642","49.54","0","SATNPRO1963","31.288","0.43822","5"],
    [20023,"HCEP03730560","2024-04-23 22:00:00","9.4609","3.20208","26.164","4.707","7.48","0.936","3.573","0.06","0.13","29.2899","4.64597","49.69","0","SATNPRO1963","31.542","0.44186","5"],
    [20024,"HCEP03730560","2024-04-23 22:15:00","9.4621","3.20226","26.123","4.72","7.48","0.994","4.639","0.08","0.12","29.2907","4.64606","49.83","0","SATNPRO1963","31.312","0.43854","5"],
    [20025,"HCEP03730560","2024-04-23 22:30:00","9.4635","3.20244","26.064","4.64","7.48","1.978","23.518","2.01","29.77","29.2913","4.64613","48.99","0","SATNPRO1963","31.192","0.43688","5"],
    [20026,"HCEP03730560","2024-04-23 22:45:00","9.4671","3.20278","25.993","4.505","7.47","1.02","4.987","0.07","0.11","29.292","4.64615","47.57","0","SATNPRO1963","30.798","0.4314","5"],
    [20027,"HCEP03730560","2024-04-23 23:00:00","9.4713","3.20322","26.007","4.32","7.46","1.117","5.251","0.07","0.16","29.2929","4.64621","45.61","0","SATNPRO1963","30.184","0.42278","5"],
    [20028,"HCEP03730560","2024-04-23 23:15:00","9.4724","3.20353","26.046","4.196","7.45","1.108","5.402","0.07","0.22","29.2952","4.64651","44.31","0","SATNPRO1963","30.162","0.42246","5"],
    [20029,"HCEP03730560","2024-04-23 23:30:00","9.4717","3.20373","26.1","4.174","7.44","1.121","5.522","0.07","0.15","29.2977","4.64689","44.07","0","SATNPRO1963","30.21","0.42314","5"],
    [20030,"HCEP03730560","2024-04-23 23:45:00","9.4706","3.20369","26.128","4.203","7.44","1.035","4.885","0.05","0.12","29.2982","4.64699","44.38","0","SATNPRO1963","30.291999999999998","0.42426","5"],
    [20031,"HCEP03730560","2024-04-24 00:00:00","9.4686","3.20316","26.222","4.274","7.45","1.063","4.362","0.08","0.15","29.2945","4.6465","45.13","0","SATNPRO1963","30.492","0.4271","5"],
    [20032,"HCEP03730560","2024-04-24 00:15:00","9.4685","3.20322","26.375","4.253","7.45","1.036","4.746","0.06","0.18","29.2951","4.64659","44.91","0","SATNPRO1963","30.188","0.42282","5"],
    [20033,"HCEP03730560","2024-04-24 00:30:00","9.4686","3.20325","26.387","4.214","7.44","1.076","4.897","0.06","0.1","29.2952","4.64661","44.49","0","SATNPRO1963","30.142","0.42218","5"],
    [20034,"HCEP03730560","2024-04-24 00:45:00","9.4678","3.20311","26.455","4.218","7.44","1.026","4.892","0.06","0.17","29.2945","4.64653","44.54","0","SATNPRO1963","30.086","0.4214","5"],
    [20035,"HCEP03730560","2024-04-24 01:00:00","9.4657","3.20284","26.53","4.233","7.44","1.083","4.973","0.09","0.22","29.2934","4.64641","44.69","0","SATNPRO1963","30.13","0.42202","5"],
    [20036,"HCEP03730560","2024-04-24 01:15:00","9.4649","3.20277","26.648","4.24","7.45","1.068","5.187","0.09","0.26","29.2934","4.64642","44.77","0","SATNPRO1963","30.05","0.4209","5"],
    [20037,"HCEP03730560","2024-04-24 01:30:00","9.4617","3.20239","26.731","4.29","7.45","1.165","4.961","0.11","0.18","29.2921","4.6463","45.29","0","SATNPRO1963","30.002","0.42026","5"],
    [20038,"HCEP03730560","2024-04-24 01:45:00","9.4579","3.20204","26.868","4.399","7.45","1.081","4.739","0.08","0.15","29.2915","4.6463","46.44","0","SATNPRO1963","30.273999999999997","0.42404","5"],
    [20039,"HCEP03730560","2024-04-24 02:00:00","9.4556","3.20189","26.957","4.506","7.46","1.064","4.856","0.06","0.12","29.2919","4.64639","47.56","0","SATNPRO1963","30.472","0.4268","5"],
    [20040,"HCEP03730560","2024-04-24 02:15:00","9.4531","3.20174","27.083","4.597","7.47","0.983","4.34","0.06","0.16","29.2923","4.64651","48.52","0","SATNPRO1963","30.898","0.4328","5"],
    [20041,"HCEP03730560","2024-04-24 02:30:00","9.4523","3.20165","27.183","4.656","7.47","1.054","4.61","0.07","0.19","29.2921","4.6465","49.15","0","SATNPRO1963","30.932","0.4333","5"],
    [20042,"HCEP03730560","2024-04-24 02:45:00","9.4511","3.20162","27.309","4.689","7.48","0.999","4.589","0.07","0.22","29.2927","4.64661","49.49","0","SATNPRO1963","31.074","0.43522","5"],
    [20043,"HCEP03730560","2024-04-24 03:00:00","9.4504","3.20164","27.383","4.724","7.48","1.11","4.59","0.08","0.22","29.2935","4.64674","49.86","0","SATNPRO1963","30.994","0.43408","5"],
    [20044,"HCEP03730560","2024-04-24 03:15:00","9.4495","3.20154","27.47","4.742","7.48","1.093","6.476","0.08","0.43","29.2931","4.64671","50.05","0","SATNPRO1963","31.032","0.43462","5"],
    [20045,"HCEP03730560","2024-04-24 03:30:00","9.4501","3.20147","27.564","4.749","7.49","1.184","7.344","0.08","0.57","29.2919","4.64652","50.12","0","SATNPRO1963","31","0.43416","5"],
    [20046,"HCEP03730560","2024-04-24 03:45:00","9.4502","3.20145","27.638","4.742","7.49","1.282","9.637","0.14","1.2","29.2916","4.64649","50.05","0","SATNPRO1963","30.866","0.43234","5"],
    [20047,"HCEP03730560","2024-04-24 04:00:00","9.4508","3.20149","27.683","4.715","7.48","1.391","9.96","0.16","1.19","29.2915","4.64646","49.77","0","SATNPRO1963","30.904","0.43288","5"],
    [20048,"HCEP03730560","2024-04-24 04:15:00","9.4507","3.2014","27.707","4.701","7.48","1.22","8.07","0.12","1.15","29.2906","4.64634","49.62","0","SATNPRO1963","31.046","0.43484","5"],
    [20049,"HCEP03730560","2024-04-24 04:30:00","9.4508","3.20124","27.724","4.714","7.48","1.437","8.139","0.21","0.36","29.2889","4.6461","49.75","0","SATNPRO1963","30.894000000000002","0.43274","5"],
    [20050,"HCEP03730560","2024-04-24 04:45:00","9.4491","3.20094","27.693","4.785","7.49","1.276","5.21","0.4","0.57","29.2873","4.64589","50.5","0","SATNPRO1963","31.124","0.43594","5"],
    [20051,"HCEP03730560","2024-04-24 05:00:00","9.4486","3.20069","27.664","4.861","7.49","1.267","3.928","0.37","0.32","29.2852","4.6456","51.29","0","SATNPRO1963","31.408","0.43994","5"],
    [20052,"HCEP03730560","2024-04-24 05:15:00","9.4473","3.20048","27.605","4.926","7.5","1.135","4.183","0.12","0.43","29.2842","4.64548","51.98","0","SATNPRO1963","31.748","0.44468","5"],
    [20053,"HCEP03730560","2024-04-24 05:30:00","9.4469","3.20035","27.545","4.983","7.5","1.812","21.868","1","23.2","29.2832","4.64534","52.59","0","SATNPRO1963","31.702","0.44408","5"],
    [20054,"HCEP03730560","2024-04-24 05:45:00","9.4468","3.20017","27.468","5.017","7.5","1.175","3.416","0.3","0.23","29.2815","4.64509","52.94","0","SATNPRO1963","31.832","0.44586","5"],
    [20055,"HCEP03730560","2024-04-24 06:00:00","9.4472","3.20007","27.386","5.027","7.51","1.163","4.025","0.13","0.19","29.2801","4.64488","53.04","0","SATNPRO1963","31.686","0.44384","5"],
    [20056,"HCEP03730560","2024-04-24 06:15:00","9.4476","3.19988","27.237","5.039","7.51","1.084","3.239","0.13","0.6","29.278","4.64456","53.18","0","SATNPRO1963","31.86","0.44624","5"],
    [20057,"HCEP03730560","2024-04-24 06:30:00","9.4481","3.19961","27.109","5.053","7.51","1.348","14.61","0.41","22.29","29.275","4.64412","53.33","0","SATNPRO1963","31.788","0.44524","5"],
    [20058,"HCEP03730560","2024-04-24 06:45:00","9.4494","3.19955","26.958","5.002","7.51","1.329","4.76","0.63","0.32","29.2734","4.64385","52.79","0","SATNPRO1963","31.73","0.4444","5"],
    [20059,"HCEP03730560","2024-04-24 07:00:00","9.4493","3.19942","26.806","5.004","7.5","1.289","4.885","0.29","1.02","29.2721","4.64366","52.81","0","SATNPRO1963","31.82","0.44566","5"],
    [20060,"HCEP03730560","2024-04-24 07:15:00","9.4514","3.20006","26.654","4.876","7.5","1.231","5.849","0.1","0.44","29.2769","4.64431","51.45","0","SATNPRO1963","31.296","0.43832","5"],
    [20061,"HCEP03730560","2024-04-24 07:30:00","9.4504","3.1996","26.456","4.843","7.49","1.2","4.825","0.1","0.66","29.2731","4.64377","51.11","0","SATNPRO1963","31.466","0.44072","5"],
    [20062,"HCEP03730560","2024-04-24 07:45:00","9.4515","3.20017","26.297","4.856","7.49","1.231","6.133","0.1","1.96","29.2781","4.64445","51.24","0","SATNPRO1963","31.226","0.43738","5"],
    [20063,"HCEP03730560","2024-04-24 08:00:00","9.4538","3.20033","26.124","4.696","7.48","1.328","6.338","0.11","0.5","29.2779","4.64438","49.56","0","SATNPRO1963","30.884","0.4326","5"],
    [20064,"HCEP03730560","2024-04-24 08:15:00","9.4553","3.20087","25.904","4.584","7.48","1.253","5.631","0.11","0.39","29.2822","4.64495","48.38","0","SATNPRO1963","30.426","0.42616","5"],
    [20065,"HCEP03730560","2024-04-24 08:30:00","9.4565","3.20116","25.7","4.503","7.47","1.286","5.942","0.08","0.3","29.284300000000002","4.64521","47.53","0","SATNPRO1963","30.477999999999998","0.42692","5"],
    [20066,"HCEP03730560","2024-04-24 08:45:00","9.455","3.20126","25.506","4.532","7.47","1.146","4.976","0.13","0.27","29.2866","4.64557","47.84","0","SATNPRO1963","30.554","0.428","5"],
    [20067,"HCEP03730560","2024-04-24 09:00:00","9.4563","3.20138","25.303","4.527","7.46","1.16","6.358","0.18","0.33","29.2869","4.64557","47.78","0","SATNPRO1963","30.498","0.4272","5"],
    [20068,"HCEP03730560","2024-04-24 09:15:00","9.4593","3.2016","25.088","4.457","7.46","1.14","6.542","0.11","0.28","29.2867","4.64548","47.04","0","SATNPRO1963","30.396","0.42572","5"],
    [20069,"HCEP03730560","2024-04-24 09:30:00","9.4643","3.20219","24.891","4.326","7.45","1.186","7.782","0.07","0.61","29.2887","4.64567","45.68","0","SATNPRO1963","30.322","0.42472","5"],
    [20070,"HCEP03730560","2024-04-24 09:45:00","9.465","3.20253","24.704","4.307","7.45","1.188","6.643","0.18","0.31","29.2916","4.64606","45.48","0","SATNPRO1963","30.434","0.42626","5"],
    [20071,"HCEP03730560","2024-04-24 10:00:00","9.4647","3.20266","24.55","4.34","7.45","1.188","6.764","0.11","0.28","29.2932","4.64628","45.82","0","SATNPRO1963","30.58","0.42834","5"],
    [20072,"HCEP03730560","2024-04-24 10:15:00","9.4641","3.20265","24.454","4.375","7.45","1.118","6.542","0.1","0.4","29.2936","4.64635","46.19","0","SATNPRO1963","30.702","0.43002","5"],
    [20073,"HCEP03730560","2024-04-24 10:30:00","9.4643","3.20268","24.378","4.375","7.45","1.179","7.418","0.1","0.39","29.2938","4.64637","46.18","0","SATNPRO1963","30.733999999999998","0.43054","5"],
    [20074,"HCEP03730560","2024-04-24 10:45:00","9.4636","3.20249","24.361","4.405","7.45","1.115","6.422","0.16","0.53","29.2925","4.64619","46.51","0","SATNPRO1963","30.817999999999998","0.43168","5"],
    [20075,"HCEP03730560","2024-04-24 11:00:00","9.4625","3.20224","24.37","4.484","7.45","1.173","6.882","0.1","0.35","29.2909","4.64598","47.34","0","SATNPRO1963","31.03","0.43464","5"],
    [20076,"HCEP03730560","2024-04-24 11:15:00","9.4611","3.20202","24.372","4.521","7.46","1.064","4.887","0.08","0.43","29.2898","4.64586","47.72","0","SATNPRO1963","31.116","0.43584","5"],
    [20077,"HCEP03730560","2024-04-24 11:30:00","9.4599","3.20182","24.416","4.618","7.46","1.082","4.736","0.09","0.4","29.2888","4.64572","48.75","0","SATNPRO1963","31.334","0.43886","5"],
    [20078,"HCEP03730560","2024-04-24 11:45:00","9.4592","3.20174","24.498","4.656","7.47","1.072","4.305","0.15","0.63","29.2885","4.6457","49.15","0","SATNPRO1963","31.32","0.43868","5"],
    [20079,"HCEP03730560","2024-04-24 12:00:00","9.4592","3.20176","24.569","4.673","7.47","1.114","4.588","0.13","0.6","29.2887","4.64573","49.33","0","SATNPRO1963","31.366","0.43936","5"],
    [20080,"HCEP03730560","2024-04-24 12:15:00","9.4593","3.20179","24.686","4.671","7.47","1.183","4.45","0.19","0.36","29.2888","4.64576","49.31","0","SATNPRO1963","31.532","0.44166","5"],
    [20081,"HCEP03730560","2024-04-24 12:30:00","9.4592","3.2018","24.811","4.665","7.47","1.035","3.71","0.08","0.26","29.2889","4.64578","49.24","0","SATNPRO1963","31.23","0.43746","5"],
    [20082,"HCEP03730560","2024-04-24 12:45:00","9.4594","3.20183","24.943","4.669","7.47","0.994","3.782","0.12","0.36","29.289","4.6458","49.28","0","SATNPRO1963","31.44","0.44034","5"],
    [20083,"HCEP03730560","2024-04-24 13:00:00","9.4595","3.20185","25.097","4.658","7.47","1.217","4.147","0.16","0.31","29.289","4.64581","49.17","0","SATNPRO1963","31.258","0.43778","5"],
    [20084,"HCEP03730560","2024-04-24 13:15:00","9.4594","3.20184","25.271","4.658","7.48","1.113","4.423","0.16","0.38","29.289","4.64581","49.17","0","SATNPRO1963","31.586","0.4424","5"],
    [20085,"HCEP03730560","2024-04-24 13:30:00","9.4595","3.20186","25.43","4.658","7.48","1.103","4.093","0.13","0.28","29.289","4.64582","49.17","0","SATNPRO1963","31.348","0.43906","5"],
    [20086,"HCEP03730560","2024-04-24 13:45:00","9.4595","3.20188","25.604","4.662","7.48","1.141","4.348","0.19","0.23","29.2892","4.64587","49.21","0","SATNPRO1963","31.502","0.44128","5"],
    [20087,"HCEP03730560","2024-04-24 14:00:00","9.4601","3.20193","25.794","4.643","7.48","1.074","4.31","0.08","0.3","29.2891","4.64586","49.02","0","SATNPRO1963","31.308","0.43852","5"],
    [20088,"HCEP03730560","2024-04-24 14:15:00","9.4598","3.20191","25.959","4.653","7.48","1.127","3.92","0.15","0.22","29.2891","4.64587","49.12","0","SATNPRO1963","31.546","0.44184","5"],
    [20089,"HCEP03730560","2024-04-24 14:30:00","9.4596","3.2019","26.133","4.65","7.48","1.022","3.818","0.12","0.21","29.289","4.64587","49.08","0","SATNPRO1963","31.732","0.44452","5"],
    [20090,"HCEP03730560","2024-04-24 14:45:00","9.4621","3.2024","26.3","4.526","7.47","1.002","4.015","0.09","0.31","29.2921","4.64627","47.78","0","SATNPRO1963","31.028","0.43458","5"],
    [20091,"HCEP03730560","2024-04-24 15:00:00","9.461","3.20247","26.476","4.503","7.47","1.113","5.242","0.08","0.49","29.2936","4.64651","47.53","0","SATNPRO1963","31.136","0.43612","5"],
    [20092,"HCEP03730560","2024-04-24 15:15:00","9.459","3.20263","26.678","4.598","7.47","1.032","5.086","0.1","0.31","29.2967","4.64702","48.54","0","SATNPRO1963","31.47","0.44076","5"],
    [20093,"HCEP03730560","2024-04-24 15:30:00","9.4558","3.20267","26.869","4.718","7.48","1.056","4.38","0.17","0.26","29.2996","4.6475","49.81","0","SATNPRO1963","31.656","0.44342","5"],
    [20094,"HCEP03730560","2024-04-24 15:45:00","9.4541","3.20285","27.053","4.776","7.49","0.999","4.43","0.12","0.27","29.3028","4.64799","50.41","0","SATNPRO1963","31.64","0.44318","5"],
    [20095,"HCEP03730560","2024-04-24 16:00:00","9.4552","3.20304","27.191","4.747","7.49","1.02","4.728","0.08","0.29","29.3038","4.64812","50.11","0","SATNPRO1963","31.632","0.44304","5"],
    [20096,"HCEP03730560","2024-04-24 16:15:00","9.4556","3.20315","27.326","4.72","7.49","1.047","4.943","0.1","0.53","29.3045","4.64823","49.82","0","SATNPRO1963","31.596","0.44254","5"],
    [20097,"HCEP03730560","2024-04-24 16:30:00","9.4564","3.20309","27.421","4.689","7.48","1.071","4.965","0.08","0.31","29.3031","4.64802","49.5","0","SATNPRO1963","31.512","0.44138","5"],
    [20098,"HCEP03730560","2024-04-24 16:45:00","9.4557","3.20297","27.52","4.719","7.48","1.053","4.952","0.11","0.27","29.3025","4.64795","49.82","0","SATNPRO1963","31.704","0.44406","5"],
    [20099,"HCEP03730560","2024-04-24 17:00:00","9.4547","3.20272","27.587","4.759","7.49","1.112","4.924","0.09","0.39","29.3008","4.64773","50.24","0","SATNPRO1963","31.792","0.44532","5"],
    [20100,"HCEP03730560","2024-04-24 17:15:00","9.4556","3.20218","27.64","4.801","7.49","1.044","4.865","0.09","0.29","29.2945","4.64682","50.68","0","SATNPRO1963","31.736","0.44448","5"],
    [20101,"HCEP03730560","2024-04-24 17:30:00","9.4547","3.20179","27.653","4.86","7.49","1.061","4.989","0.14","0.38","29.2914","4.64638","51.3","0","SATNPRO1963","31.992","0.4481","5"],
    [20102,"HCEP03730560","2024-04-24 17:45:00","9.4556","3.20145","27.667","4.882","7.5","1.051","4.519","0.2","0.37","29.2871","4.64576","51.53","0","SATNPRO1963","31.914","0.447","5"],
    [20103,"HCEP03730560","2024-04-24 18:00:00","9.456","3.20088","27.644","4.886","7.5","1.137","4.358","0.15","0.54","29.281","4.64487","51.57","0","SATNPRO1963","31.992","0.44814","5"],
    [20104,"HCEP03730560","2024-04-24 18:15:00","9.4572","3.20007","27.619","4.905","7.5","1.046","4.536","0.12","0.5","29.2719","4.64353","51.77","0","SATNPRO1963","32.064","0.44908","5"],
    [20105,"HCEP03730560","2024-04-24 18:30:00","9.4588","3.19963","27.587","4.898","7.5","1.235","4.921","0.18","0.41","29.2662","4.6427","51.7","0","SATNPRO1963","31.832","0.44588","5"],
    [20106,"HCEP03730560","2024-04-24 18:45:00","9.4604","3.19929","27.547","4.873","7.5","1.125","4.956","0.14","0.44","29.2614","4.64198","51.44","0","SATNPRO1963","31.756","0.44478","5"],
    [20107,"HCEP03730560","2024-04-24 19:00:00","9.4612","3.19903","27.484","4.846","7.49","1.176","5.196","0.11","0.46","29.2581","4.64149","51.15","0","SATNPRO1963","31.810000000000002","0.44558","5"],
    [20108,"HCEP03730560","2024-04-24 19:15:00","9.4614","3.19891","27.417","4.884","7.5","1.142","4.541","0.11","0.36","29.2569","4.64131","51.55","0","SATNPRO1963","31.922","0.44714","5"],
    [20109,"HCEP03730560","2024-04-24 19:30:00","9.461","3.19928","27.345","4.893","7.5","1.235","4.868","0.41","0.43","29.2609","4.64188","51.64","0","SATNPRO1963","32.086","0.4494","5"],
    [20110,"HCEP03730560","2024-04-24 19:45:00","9.4626","3.19973","27.256","4.839","7.49","1.049","4.874","0.11","0.39","29.2642","4.64233","51.07","0","SATNPRO1963","32.002","0.44824","5"],
    [20111,"HCEP03730560","2024-04-24 20:00:00","9.4655","3.20017","27.178","4.701","7.49","1.152","5.315","0.17","0.52","29.2663","4.64256","49.62","0","SATNPRO1963","31.822","0.44572","5"],
    [20112,"HCEP03730560","2024-04-24 20:15:00","9.4676","3.20024","27.102","4.603","7.48","1.174","5.574","0.17","0.62","29.2653","4.64238","48.59","0","SATNPRO1963","31.512","0.44138","5"],
    [20113,"HCEP03730560","2024-04-24 20:30:00","9.4685","3.20006","27.017","4.568","7.47","1.189","5.486","0.13","0.59","29.2629","4.64201","48.23","0","SATNPRO1963","31.79","0.44524","5"],
    [20114,"HCEP03730560","2024-04-24 20:45:00","9.4689","3.19955","26.93","4.584","7.47","1.162","4.891","0.13","0.59","29.2574","4.64121","48.39","0","SATNPRO1963","32.034","0.44872","5"],
    [20115,"HCEP03730560","2024-04-24 21:00:00","9.4683","3.19926","26.822","4.636","7.47","1.16","4.413","0.13","0.26","29.2549","4.64086","48.93","0","SATNPRO1963","31.900000000000002","0.44678","5"],
    [20116,"HCEP03730560","2024-04-24 21:15:00","9.4689","3.19912","26.736","4.645","7.47","1.182","4.854","0.15","0.6","29.2532","4.64059","49.04","0","SATNPRO1963","31.804","0.4455","5"],
    [20117,"HCEP03730560","2024-04-24 21:30:00","9.4688","3.19897","26.633","4.659","7.47","1.228","4.802","0.18","0.63","29.2517","4.64038","49.18","0","SATNPRO1963","32.144","0.45022","5"],
    [20118,"HCEP03730560","2024-04-24 21:45:00","9.4712","3.19946","26.53","4.599","7.47","1.241","4.608","0.2","0.61","29.2548","4.64077","48.55","0","SATNPRO1963","31.798","0.44534","5"],
    [20119,"HCEP03730560","2024-04-24 22:00:00","9.4731","3.19942","26.418","4.516","7.47","1.322","4.479","0.19","0.62","29.2529","4.64046","47.67","0","SATNPRO1963","31.522000000000002","0.44156","5"],
    [20120,"HCEP03730560","2024-04-24 22:15:00","9.4742","3.19932","26.337","4.473","7.46","1.276","5.256","0.15","0.68","29.251","4.64017","47.22","0","SATNPRO1963","31.416","0.44004","5"],
    [20121,"HCEP03730560","2024-04-24 22:30:00","9.4749","3.19921","26.258","4.448","7.46","1.313","4.716","0.12","0.38","29.2494","4.63992","46.96","0","SATNPRO1963","31.424","0.44014","5"],
    [20122,"HCEP03730560","2024-04-24 22:45:00","9.4754","3.1991","26.204","4.435","7.46","1.258","4.699","0.13","0.68","29.2479","4.63969","46.82","0","SATNPRO1963","31.28","0.4381","5"],
    [20123,"HCEP03730560","2024-04-24 23:00:00","9.4758","3.199","26.155","4.428","7.46","1.344","4.671","0.17","0.34","29.2465","4.63949","46.75","0","SATNPRO1963","31.532","0.44164","5"],
    [20124,"HCEP03730560","2024-04-24 23:15:00","9.4764","3.19882","26.119","4.427","7.46","2.651","31.59","2.26","32.26","29.2442","4.63914","46.74","0","SATNPRO1963","31.456","0.44058","5"],
    [20125,"HCEP03730560","2024-04-24 23:30:00","9.4769","3.19859","26.123","4.428","7.46","1.323","4.387","0.16","0.38","29.2414","4.63874","46.75","0","SATNPRO1963","31.522000000000002","0.44154","5"],
    [20126,"HCEP03730560","2024-04-24 23:45:00","9.4777","3.19847","26.161","4.425","7.45","1.357","4.154","0.21","0.49","29.2396","4.63846","46.72","0","SATNPRO1963","31.306","0.4385","5"],
    [20127,"HCEP03730560","2024-04-25 00:00:00","9.4777","3.19835","26.211","4.428","7.45","1.382","4.276","0.17","0.36","29.2384","4.63829","46.75","0","SATNPRO1963","31.392","0.43968","5"],
    [20128,"HCEP03730560","2024-04-25 00:15:00","9.478","3.19821","26.267","4.434","7.46","1.409","4.741","0.22","0.61","29.2367","4.63804","46.81","0","SATNPRO1963","31.418","0.44008","5"],
    [20129,"HCEP03730560","2024-04-25 00:30:00","9.4782","3.19807","26.338","4.437","7.46","1.482","4.339","0.19","0.48","29.235","4.63781","46.84","0","SATNPRO1963","31.654","0.44338","5"],
    [20130,"HCEP03730560","2024-04-25 00:45:00","9.4786","3.19801","26.407","4.431","7.46","1.368","5.114","0.15","0.44","29.2341","4.63768","46.78","0","SATNPRO1963","31.57","0.44218","5"],
    [20131,"HCEP03730560","2024-04-25 01:00:00","9.4786","3.19805","26.49","4.425","7.46","1.33","4.451","0.12","0.54","29.2344","4.63772","46.71","0","SATNPRO1963","31.796","0.44536","5"],
    [20132,"HCEP03730560","2024-04-25 01:15:00","9.4787","3.19802","26.587","4.424","7.46","1.28","3.783","0.2","0.39","29.2341","4.63768","46.7","0","SATNPRO1963","32.028","0.44864","5"],
    [20133,"HCEP03730560","2024-04-25 01:30:00","9.4792","3.19814","26.659","4.414","7.46","1.305","3.735","0.15","0.2","29.2348","4.63778","46.6","0","SATNPRO1963","31.58","0.44232","5"],
    [20134,"HCEP03730560","2024-04-25 01:45:00","9.479","3.19849","26.752","4.376","7.45","1.317","4.032","0.17","0.33","29.2385","4.63832","46.2","0","SATNPRO1963","31.258","0.43786","5"],
    [20135,"HCEP03730560","2024-04-25 02:00:00","9.4792","3.19884","26.86","4.32","7.45","1.421","5.434","0.17","0.35","29.2418","4.6388","45.6","0","SATNPRO1963","31.178","0.43674","5"],
    [20136,"HCEP03730560","2024-04-25 02:15:00","9.4821","3.19798","26.982","4.367","7.45","1.431","5.034","0.13","0.34","29.2307","4.63715","46.11","0","SATNPRO1963","31.084","0.4354","5"],
    [20137,"HCEP03730560","2024-04-25 02:30:00","9.4812","3.19776","27.116","4.389","7.45","1.543","5.298","0.16","0.27","29.2292","4.63696","46.33","0","SATNPRO1963","31.28","0.43816","5"],
    [20138,"HCEP03730560","2024-04-25 02:45:00","9.4786","3.19744","27.185","4.472","7.46","1.705","5.676","0.32","0.46","29.228","4.63684","47.21","0","SATNPRO1963","31.072","0.43522","5"],
    [20139,"HCEP03730560","2024-04-25 03:00:00","9.4749","3.19682","27.287","4.645","7.47","1.681","5.257","0.1","0.3","29.2247","4.63644","49.03","0","SATNPRO1963","31.106","0.43572","5"],
    [20140,"HCEP03730560","2024-04-25 03:15:00","9.4722","3.19707","27.367","4.744","7.48","1.662","5.055","0.15","0.47","29.2295","4.63718","50.07","0","SATNPRO1963","31.332","0.43886","5"],
    [20141,"HCEP03730560","2024-04-25 03:30:00","9.4709","3.19714","27.502","4.77","7.48","1.725","4.955","0.14","0.47","29.2312","4.63745","50.35","0","SATNPRO1963","31.378","0.43948","5"],
    [20142,"HCEP03730560","2024-04-25 03:45:00","9.4713","3.19709","27.538","4.781","7.48","1.687","4.835","0.21","0.35","29.2303","4.63732","50.46","0","SATNPRO1963","31.454","0.44056","5"],
    [20143,"HCEP03730560","2024-04-25 04:00:00","9.4703","3.19741","27.618","4.784","7.49","1.62","4.504","0.21","0.55","29.2344","4.63792","50.5","0","SATNPRO1963","31.468","0.44076","5"],
    [20144,"HCEP03730560","2024-04-25 04:15:00","9.4689","3.19786","27.716","4.77","7.49","1.493","4.163","0.16","0.17","29.24","4.63876","50.35","0","SATNPRO1963","31.492","0.44108","5"],
    [20145,"HCEP03730560","2024-04-25 04:30:00","9.4686","3.19815","27.703","4.751","7.48","1.83","27.1","0.38","21.99","29.2432","4.63923","50.14","0","SATNPRO1963","31.448","0.44048","5"],
    [20146,"HCEP03730560","2024-04-25 04:45:00","9.4689","3.19828","27.729","4.726","7.48","5.066","52.906","3.14","24.39","29.2442","4.63937","49.89","0","SATNPRO1963","31.586","0.44242","5"],
    [20147,"HCEP03730560","2024-04-25 05:00:00","9.4681","3.19837","27.676","4.719","7.48","1.701","10.671","0.22","6.17","29.2458","4.63961","49.81","0","SATNPRO1963","31.59","0.4425","5"],
    [20148,"HCEP03730560","2024-04-25 05:15:00","9.468","3.19839","27.677","4.723","7.48","1.911","16.942","1.07","17.31","29.2461","4.63965","49.85","0","SATNPRO1963","31.456","0.44056","5"],
    [20149,"HCEP03730560","2024-04-25 05:30:00","9.4678","3.19827","27.565","4.74","7.48","1.738","17.729","0.32","18.82","29.245","4.6395","50.03","0","SATNPRO1963","31.49","0.44108","5"],
    [20150,"HCEP03730560","2024-04-25 05:45:00","9.4686","3.19799","27.48","4.761","7.48","2.19","9.78","0.48","7","29.2416","4.63899","50.26","0","SATNPRO1963","31.386","0.43962","5"],
    [20151,"HCEP03730560","2024-04-25 06:00:00","9.4694","3.19744","27.451","4.791","7.49","3.28","32.087","0.73","18.16","29.2354","4.63809","50.57","0","SATNPRO1963","31.638","0.44314","5"],
    [20152,"HCEP03730560","2024-04-25 06:15:00","9.4686","3.19738","27.334","4.796","7.49","4.868","35.198","4.97","28.98","29.2355","4.6381","50.62","0","SATNPRO1963","31.392","0.4397","5"],
    [20153,"HCEP03730560","2024-04-25 06:30:00","9.4676","3.19766","27.259","4.783","7.49","1.556","4.431","0.12","0.24","29.2392","4.63864","50.48","0","SATNPRO1963","31.6","0.4426","5"],
    [20154,"HCEP03730560","2024-04-25 06:45:00","9.4677","3.19772","27.078","4.781","7.49","2.727","18.051","2.79","25.64","29.2398","4.63871","50.47","0","SATNPRO1963","31.422","0.44006","5"],
    [20155,"HCEP03730560","2024-04-25 07:00:00","9.468","3.19753","27.019","4.791","7.49","1.618","3.705","0.23","0.2","29.2376","4.6384","50.57","0","SATNPRO1963","31.342","0.439","5"],
    [20156,"HCEP03730560","2024-04-25 07:15:00","9.467","3.19796","26.875","4.787","7.49","1.553","3.837","0.21","0.5","29.2429","4.63916","50.53","0","SATNPRO1963","31.426000000000002","0.44018","5"],
    [20157,"HCEP03730560","2024-04-25 07:30:00","9.4665","3.19796","26.668","4.772","7.48","1.494","3.751","0.24","0.33","29.2433","4.63923","50.37","0","SATNPRO1963","31.636","0.44308","5"],
    [20158,"HCEP03730560","2024-04-25 07:45:00","9.4669","3.19775","26.563","4.796","7.48","1.464","3.671","0.12","0.28","29.2409","4.63887","50.62","0","SATNPRO1963","31.582","0.44238","5"],
    [20159,"HCEP03730560","2024-04-25 08:00:00","9.4667","3.19747","26.283","4.781","7.48","1.439","3.155","0.13","0.25","29.2384","4.6385","50.46","0","SATNPRO1963","31.666","0.44354","5"],
    [20160,"HCEP03730560","2024-04-25 08:15:00","9.4671","3.19741","26.08","4.809","7.48","1.709","3.088","1.44","0.33","29.2375","4.63835","50.75","0","SATNPRO1963","31.464","0.44074","5"],
    [20161,"HCEP03730560","2024-04-25 08:30:00","9.4657","3.19807","25.912","4.783","7.48","1.503","3.734","0.22","0.26","29.2454","4.63949","50.48","0","SATNPRO1963","31.616","0.4428","5"],
    [20162,"HCEP03730560","2024-04-25 08:45:00","9.4662","3.1983","25.7","4.773","7.48","2.684","29.835","1.4","26.19","29.2475","4.63976","50.38","0","SATNPRO1963","31.416","0.44006","5"],
    [20163,"HCEP03730560","2024-04-25 09:00:00","9.4762","3.19696","25.521","4.794","7.48","7.252","377.14","3.18","110.36","29.2257","4.63646","50.6","0","SATNPRO1963","31.526","0.44158","5"],
    [20164,"HCEP03730560","2024-04-25 09:15:00","9.4711","3.19768","25.31","4.756","7.48","1.281","2.554","0.14","0.19","29.2373","4.63821","50.21","0","SATNPRO1963","31.676","0.44368","5"],
    [20165,"HCEP03730560","2024-04-25 09:30:00","9.4772","3.19729","25.082","4.719","7.48","1.368","2.569","0.19","0.14","29.2285","4.63681","49.81","0","SATNPRO1963","31.512","0.44136","5"],
    [20166,"HCEP03730560","2024-04-25 09:45:00","9.4772","3.19775","24.927","4.661","7.47","1.247","2.685","0.21","0.25","29.2332","4.63748","49.21","0","SATNPRO1963","31.496","0.44116","5"],
    [20167,"HCEP03730560","2024-04-25 10:00:00","9.4674","3.19915","24.742","4.636","7.47","1.453","4.649","0.21","0.26","29.2555","4.64084","48.94","0","SATNPRO1963","31.724","0.44434","5"],
    [20168,"HCEP03730560","2024-04-25 10:15:00","9.4675","3.19924","24.511","4.61","7.47","1.46","4.753","0.18","0.24","29.2564","4.64095","48.66","0","SATNPRO1963","31.554","0.44202","5"],
    [20169,"HCEP03730560","2024-04-25 10:30:00","9.4673","3.19893","24.406","4.621","7.47","1.536","5.016","0.21","0.21","29.2535","4.64053","48.78","0","SATNPRO1963","31.644000000000002","0.44324","5"],
    [20170,"HCEP03730560","2024-04-25 10:45:00","9.4668","3.19872","24.275","4.66","7.47","1.505","4.739","0.23","0.55","29.2518","4.6403","49.19","0","SATNPRO1963","31.726","0.44438","5"],
    [20171,"HCEP03730560","2024-04-25 11:00:00","9.4667","3.19883","24.235","4.668","7.47","1.497","4.046","0.23","0.22","29.253","4.64047","49.27","0","SATNPRO1963","31.608","0.44272","5"],
    [20172,"HCEP03730560","2024-04-25 11:15:00","9.4666","3.19888","24.189","4.677","7.47","1.58","3.905","0.34","0.24","29.2535","4.64054","49.37","0","SATNPRO1963","31.876","0.44648","5"],
    [20173,"HCEP03730560","2024-04-25 11:30:00","9.4669","3.19905","24.173","4.662","7.47","1.366","3.596","0.16","0.3","29.2551","4.64076","49.21","0","SATNPRO1963","31.748","0.44472","5"],
    [20174,"HCEP03730560","2024-04-25 11:45:00","9.4663","3.19905","24.183","4.655","7.47","1.467","3.808","0.28","0.24","29.2556","4.64084","49.14","0","SATNPRO1963","31.663999999999998","0.44352","5"],
    [20175,"HCEP03730560","2024-04-25 12:00:00","9.4663","3.19899","24.271","4.656","7.47","1.472","5.081","0.14","2.92","29.2549","4.64075","49.14","0","SATNPRO1963","31.644000000000002","0.44324","5"],
    [20176,"HCEP03730560","2024-04-25 12:15:00","9.4669","3.19881","24.382","4.639","7.47","1.555","5.146","0.16","0.37","29.2525","4.6404","48.97","0","SATNPRO1963","31.648","0.44326","5"],
    [20177,"HCEP03730560","2024-04-25 12:30:00","9.4661","3.19857","24.481","4.633","7.47","1.578","4.101","0.18","0.22","29.2508","4.64018","48.91","0","SATNPRO1963","31.17","0.43658","5"],
    [20178,"HCEP03730560","2024-04-25 12:45:00","9.4665","3.1984","24.655","4.632","7.47","1.527","4.842","0.14","0.43","29.2486","4.63986","48.89","0","SATNPRO1963","31.198","0.43696","5"],
    [20179,"HCEP03730560","2024-04-25 13:00:00","9.466","3.19832","24.755","4.614","7.47","1.512","4.668","0.13","0.27","29.2482","4.63981","48.7","0","SATNPRO1963","31.182","0.43672","5"],
    [20180,"HCEP03730560","2024-04-25 13:15:00","9.4659","3.19828","24.907","4.61","7.47","1.641","5.299","0.33","0.45","29.2478","4.63978","48.65","0","SATNPRO1963","31.004","0.43426","5"],
    [20181,"HCEP03730560","2024-04-25 13:30:00","9.4641","3.19831","25.144","4.623","7.47","1.433","3.857","0.12","0.28","29.2495","4.64007","48.79","0","SATNPRO1963","31.206","0.43712","5"],
    [20182,"HCEP03730560","2024-04-25 13:45:00","9.4641","3.19836","25.211","4.618","7.47","1.411","4.523","0.12","0.13","29.2499","4.64013","48.74","0","SATNPRO1963","31.098","0.43556","5"],
    [20183,"HCEP03730560","2024-04-25 14:00:00","9.4644","3.19838","25.309","4.612","7.47","1.49","4.734","0.09","0.41","29.2499","4.64012","48.68","0","SATNPRO1963","31.24","0.43754","5"],
    [20184,"HCEP03730560","2024-04-25 14:15:00","9.4629","3.19804","25.467","4.622","7.47","1.372","5.018","0.09","0.26","29.2476","4.63983","48.78","0","SATNPRO1963","31.322","0.4387","5"],
    [20185,"HCEP03730560","2024-04-25 14:30:00","9.463","3.19802","25.637","4.666","7.47","1.418","5.095","0.1","0.67","29.2473","4.63979","49.24","0","SATNPRO1963","31.342","0.439","5"],
    [20186,"HCEP03730560","2024-04-25 14:45:00","9.4617","3.1979","25.818","4.71","7.48","1.338","4.556","0.08","0.16","29.2471","4.6398","49.7","0","SATNPRO1963","31.36","0.43928","5"],
    [20187,"HCEP03730560","2024-04-25 15:00:00","9.4618","3.19789","26.036","4.722","7.48","1.369","4.094","0.09","0.1","29.2467","4.63976","49.83","0","SATNPRO1963","31.414","0.43998","5"],
    [20188,"HCEP03730560","2024-04-25 15:15:00","9.4618","3.19789","26.192","4.724","7.48","1.297","3.772","0.08","0.12","29.2467","4.63977","49.85","0","SATNPRO1963","31.204","0.43708","5"],
    [20189,"HCEP03730560","2024-04-25 15:30:00","9.4625","3.19807","26.403","4.695","7.48","1.3","3.754","0.09","0.1","29.2479","4.63993","49.55","0","SATNPRO1963","31.262","0.43788","5"],
    [20190,"HCEP03730560","2024-04-25 15:45:00","9.4621","3.19802","26.562","4.689","7.48","1.275","3.451","0.08","0.09","29.2476","4.63991","49.48","0","SATNPRO1963","31.196","0.43694","5"],
    [20191,"HCEP03730560","2024-04-25 16:00:00","9.4615","3.19764","26.753","4.744","7.48","1.299","3.215","0.07","0.22","29.2442","4.63944","50.07","0","SATNPRO1963","31.364","0.4393","5"],
    [20192,"HCEP03730560","2024-04-25 16:15:00","9.4634","3.19831","26.942","4.673","7.48","1.299","4.517","0.09","0.2","29.2493","4.64016","49.33","0","SATNPRO1963","31.282","0.43822","5"],
    [20193,"HCEP03730560","2024-04-25 16:30:00","9.4633","3.19826","27.201","4.668","7.48","1.313","3.965","0.08","0.2","29.2487","4.64009","49.27","0","SATNPRO1963","31.314","0.43856","5"],
    [20194,"HCEP03730560","2024-04-25 16:45:00","9.4643","3.19823","27.22","4.664","7.48","1.324","4.495","0.1","0.21","29.2477","4.63992","49.22","0","SATNPRO1963","31.392","0.43968","5"],
    [20195,"HCEP03730560","2024-04-25 17:00:00","9.4663","3.19792","27.364","4.658","7.48","1.373","4.313","0.08","0.14","29.2428","4.6392","49.17","0","SATNPRO1963","31.302","0.43846","5"],
    [20196,"HCEP03730560","2024-04-25 17:15:00","9.4686","3.19757","27.514","4.654","7.48","1.415","4.821","0.13","0.2","29.2374","4.63838","49.12","0","SATNPRO1963","31.31","0.43852","5"],
    [20197,"HCEP03730560","2024-04-25 17:30:00","9.47","3.19763","27.543","4.646","7.48","1.485","4.94","0.09","0.32","29.2368","4.63828","49.04","0","SATNPRO1963","31.21","0.43716","5"],
    [20198,"HCEP03730560","2024-04-25 17:45:00","9.469","3.19796","27.624","4.628","7.48","1.372","4.349","0.1","0.21","29.241","4.6389","48.85","0","SATNPRO1963","31.342","0.439","5"],
    [20199,"HCEP03730560","2024-04-25 18:00:00","9.4717","3.19798","27.668","4.614","7.48","1.446","4.557","0.1","0.18","29.2389","4.63856","48.7","0","SATNPRO1963","31.477999999999998","0.44094","5"],
    [20200,"HCEP03730560","2024-04-25 18:15:00","9.4756","3.19784","27.66","4.573","7.47","1.408","3.971","0.2","0.11","29.2344","4.63784","48.27","0","SATNPRO1963","31.304000000000002","0.43846","5"],
    [20201,"HCEP03730560","2024-04-25 18:30:00","9.4763","3.19795","27.662","4.525","7.47","1.422","4.132","0.1","0.22","29.2348","4.63789","47.77","0","SATNPRO1963","31.308","0.43852","5"],
    [20202,"HCEP03730560","2024-04-25 18:45:00","9.476","3.19837","27.618","4.482","7.47","1.368","4.645","0.08","0.14","29.2394","4.63855","47.32","0","SATNPRO1963","31.482","0.44094","5"],
    [20203,"HCEP03730560","2024-04-25 19:00:00","9.477","3.1988","27.635","4.408","7.46","1.403","4.236","0.11","0.19","29.2429","4.63904","46.54","0","SATNPRO1963","31.534","0.4417","5"],
    [20204,"HCEP03730560","2024-04-25 19:15:00","9.4783","3.19891","27.626","4.34","7.46","1.405","4.886","0.1","0.28","29.243","4.63903","45.82","0","SATNPRO1963","31.33","0.4388","5"],
    [20205,"HCEP03730560","2024-04-25 19:30:00","9.4807","3.19858","27.564","4.283","7.45","1.533","4.631","0.15","0.19","29.2377","4.63822","45.22","0","SATNPRO1963","31.232","0.43746","5"],
    [20206,"HCEP03730560","2024-04-25 19:45:00","9.4841","3.19793","27.533","4.267","7.45","1.499","4.666","0.12","0.31","29.2284","4.63683","45.05","0","SATNPRO1963","31.134","0.4361","5"],
    [20207,"HCEP03730560","2024-04-25 20:00:00","9.4832","3.19757","27.474","4.305","7.45","1.584","5.299","0.1","0.33","29.2255","4.63641","45.44","0","SATNPRO1963","31.212","0.43714","5"],
    [20208,"HCEP03730560","2024-04-25 20:15:00","9.4836","3.19661","27.417","4.429","7.45","1.592","5.555","0.11","0.16","29.2155","4.63497","46.76","0","SATNPRO1963","31.128","0.43602","5"],
    [20209,"HCEP03730560","2024-04-25 20:30:00","9.485900000000001","3.19556","27.41","4.531","7.46","1.981","28.301","0.38","21.91","29.203","4.63314","47.83","0","SATNPRO1963","31.076","0.43522","5"],
    [20210,"HCEP03730560","2024-04-25 20:45:00","9.4876","3.19501","27.304","4.583","7.47","1.772","5.586","0.16","0.28","29.1961","4.63212","48.38","0","SATNPRO1963","31.076","0.43526","5"],
    [20211,"HCEP03730560","2024-04-25 21:00:00","9.4908","3.19475","27.204","4.57","7.47","1.822","5.112","0.12","0.23","29.1909","4.63131","48.25","0","SATNPRO1963","31.122","0.43592","5"],
    [20212,"HCEP03730560","2024-04-25 21:15:00","9.4931","3.19478","27.132","4.501","7.46","1.823","5.322","0.12","0.39","29.1894","4.63105","47.51","0","SATNPRO1963","30.786","0.43122","5"],
    [20213,"HCEP03730560","2024-04-25 21:30:00","9.496","3.19477","27.033","4.419","7.46","1.971","4.944","0.18","0.19","29.1869","4.63063","46.65","0","SATNPRO1963","30.8","0.4314","5"],
    [20214,"HCEP03730560","2024-04-25 21:45:00","9.4983","3.19468","27.028","4.347","7.45","2.031","5.278","0.18","0.23","29.1842","4.6302","45.89","0","SATNPRO1963","30.556","0.42796","5"],
    [20215,"HCEP03730560","2024-04-25 22:00:00","9.5012","3.19465","26.956","4.281","7.45","2.099","5.324","0.12","0.26","29.1816","4.62978","45.2","0","SATNPRO1963","30.48","0.42692","5"],
    [20216,"HCEP03730560","2024-04-25 22:15:00","9.5018","3.19448","26.873","4.266","7.44","2.034","5.153","0.14","0.26","29.1794","4.62944","45.04","0","SATNPRO1963","30.49","0.42706","5"],
    [20217,"HCEP03730560","2024-04-25 22:30:00","9.5009","3.19427","26.724","4.31","7.44","2.176","5.006","0.18","0.21","29.178","4.62926","45.51","0","SATNPRO1963","30.64","0.42916","5"],
    [20218,"HCEP03730560","2024-04-25 22:45:00","9.4988","3.19404","26.629","4.386","7.45","2.003","4.916","0.13","0.26","29.1774","4.62919","46.31","0","SATNPRO1963","30.806","0.43148","5"],
    [20219,"HCEP03730560","2024-04-25 23:00:00","9.4955","3.19394","26.655","4.483","7.45","1.975","4.708","0.16","0.21","29.1791","4.6295","47.32","0","SATNPRO1963","30.849999999999998","0.43208","5"],
    [20220,"HCEP03730560","2024-04-25 23:15:00","9.4933","3.19376","26.535","4.567","7.46","1.995","4.917","0.22","0.29","29.1791","4.62954","48.22","0","SATNPRO1963","30.97","0.43376","5"],
    [20221,"HCEP03730560","2024-04-25 23:30:00","9.4937","3.19364","26.606","4.603","7.46","2.12","5.442","0.2","0.38","29.1775","4.6293","48.6","0","SATNPRO1963","30.96","0.43364","5"],
    [20222,"HCEP03730560","2024-04-25 23:45:00","9.4932","3.19328","26.588","4.628","7.47","1.992","5.581","0.19","0.33","29.1743","4.62886","48.85","0","SATNPRO1963","31.074","0.43524","5"],
    [20223,"HCEP03730560","2024-04-26 00:00:00","9.4925","3.19308","26.575","4.651","7.47","2.022","5.733","0.2","0.41","29.1728","4.62865","49.1","0","SATNPRO1963","31.024","0.43456","5"],
    [20224,"HCEP03730560","2024-04-26 00:15:00","9.4919","3.19319","26.626","4.653","7.47","1.928","5.889","0.15","0.31","29.1744","4.6289","49.11","0","SATNPRO1963","30.875999999999998","0.43248","5"],
    [20225,"HCEP03730560","2024-04-26 00:30:00","9.4907","3.19346","26.661","4.635","7.47","1.944","5.877","0.14","0.33","29.1782","4.62945","48.93","0","SATNPRO1963","30.94","0.43338","5"],
    [20226,"HCEP03730560","2024-04-26 00:45:00","9.4887","3.19325","26.67","4.653","7.47","1.916","5.939","0.14","0.36","29.1777","4.62943","49.11","0","SATNPRO1963","30.956","0.4336","5"],
    [20227,"HCEP03730560","2024-04-26 01:00:00","9.484","3.19292","26.732","4.751","7.48","1.926","5.682","0.12","0.37","29.1781","4.62956","50.14","0","SATNPRO1963","31.354","0.4392","5"],
    [20228,"HCEP03730560","2024-04-26 01:15:00","9.4814","3.19408","26.756","4.773","7.48","1.754","5.642","0.13","0.41","29.192","4.6316","50.38","0","SATNPRO1963","31.242","0.4376","5"],
    [20229,"HCEP03730560","2024-04-26 01:30:00","9.4796","3.19489","26.78","4.725","7.48","1.831","5.763","0.22","0.35","29.2016","4.63301","49.87","0","SATNPRO1963","31.404","0.4399","5"],
    [20230,"HCEP03730560","2024-04-26 01:45:00","9.4783","3.19547","26.768","4.695","7.48","1.765","5.329","0.21","0.32","29.2085","4.63403","49.56","0","SATNPRO1963","31.146","0.43628","5"],
    [20231,"HCEP03730560","2024-04-26 02:00:00","9.4778","3.19598","26.833","4.658","7.48","1.677","5.399","0.14","0.35","29.2141","4.63484","49.17","0","SATNPRO1963","31.306","0.4385","5"],
    [20232,"HCEP03730560","2024-04-26 02:15:00","9.4766","3.19621","26.848","4.643","7.47","1.608","5.244","0.09","0.3","29.2173","4.63533","49.01","0","SATNPRO1963","31.232","0.43748","5"],
    [20233,"HCEP03730560","2024-04-26 02:30:00","9.4736","3.19623","27.021","4.663","7.48","1.601","4.74","0.11","0.22","29.2199","4.63577","49.22","0","SATNPRO1963","31.266","0.43794","5"],
    [20234,"HCEP03730560","2024-04-26 02:45:00","9.4709","3.1956","27.087","4.734","7.48","1.672","4.993","0.22","0.46","29.2157","4.63521","49.96","0","SATNPRO1963","31.358","0.43922","5"],
    [20235,"HCEP03730560","2024-04-26 03:00:00","9.4725","3.19439","27.152","4.8","7.48","1.8","4.944","0.14","0.37","29.2021","4.63323","50.66","0","SATNPRO1963","31.55","0.44188","5"],
    [20236,"HCEP03730560","2024-04-26 03:15:00","9.4707","3.19398","27.222","4.883","7.49","1.705","4.545","0.16","0.37","29.1995","4.63289","51.53","0","SATNPRO1963","31.614","0.44278","5"],
    [20237,"HCEP03730560","2024-04-26 03:30:00","9.4687","3.19307","27.241","5","7.5","1.842","4.379","0.23","0.3","29.1919","4.63184","52.76","0","SATNPRO1963","31.716","0.44428","5"],
    [20238,"HCEP03730560","2024-04-26 03:45:00","9.4656","3.19251","27.31","5.134","7.51","1.746","4.321","0.15","0.36","29.1887","4.63145","54.16","0","SATNPRO1963","31.762","0.44488","5"],
    [20239,"HCEP03730560","2024-04-26 04:00:00","9.4672","3.19159","27.364","5.202","7.51","1.788","3.923","0.17","0.25","29.1781","4.6299","54.88","0","SATNPRO1963","31.98","0.44798","5"],
    [20240,"HCEP03730560","2024-04-26 04:15:00","9.468","3.19073","27.382","5.252","7.52","1.811","3.694","0.15","0.36","29.1687","4.62854","55.41","0","SATNPRO1963","31.990000000000002","0.44814","5"],
    [20241,"HCEP03730560","2024-04-26 04:30:00","9.4712","3.18947","27.38","5.292","7.52","1.992","3.821","0.21","0.48","29.1533","4.62628","55.83","0","SATNPRO1963","32.142","0.45024","5"],
    [20242,"HCEP03730560","2024-04-26 04:45:00","9.4711","3.18949","27.461","5.327","7.53","1.853","3.298","0.15","0.21","29.1537","4.62633","56.19","0","SATNPRO1963","31.958000000000002","0.44762","5"],
    [20243,"HCEP03730560","2024-04-26 05:00:00","9.4724","3.18942","27.579","5.337","7.53","1.884","3.327","0.19","0.24","29.1518","4.62604","56.3","0","SATNPRO1963","31.892","0.4467","5"],
    [20244,"HCEP03730560","2024-04-26 05:15:00","9.4727","3.18928","27.582","5.336","7.53","1.883","3.201","0.19","0.2","29.1502","4.62581","56.3","0","SATNPRO1963","31.972","0.44778","5"],
    [20245,"HCEP03730560","2024-04-26 05:30:00","9.475","3.18913","27.611","5.338","7.53","1.893","3.483","0.18","0.2","29.1468","4.62529","56.32","0","SATNPRO1963","31.978","0.44788","5"],
    [20246,"HCEP03730560","2024-04-26 05:45:00","9.473","3.18944","27.599","5.332","7.53","1.954","3.751","0.25","0.36","29.1516","4.62601","56.25","0","SATNPRO1963","32.166","0.45054","5"],
    [20247,"HCEP03730560","2024-04-26 06:00:00","9.4726","3.18935","27.606","5.318","7.53","2.108","3.854","0.55","0.23","29.1509","4.62592","56.1","0","SATNPRO1963","32.052","0.44892","5"],
    [20248,"HCEP03730560","2024-04-26 06:15:00","9.4729","3.1893","27.577","5.299","7.53","1.989","4.122","0.18","0.24","29.1502","4.62581","55.9","0","SATNPRO1963","32.034","0.44868","5"],
    [20249,"HCEP03730560","2024-04-26 06:30:00","9.4727","3.18941","27.503","5.283","7.53","2.057","4.268","0.25","0.2","29.1516","4.626","55.74","0","SATNPRO1963","32.172","0.45062","5"],
    [20250,"HCEP03730560","2024-04-26 06:45:00","9.4727","3.18939","27.427","5.274","7.53","1.913","4.128","0.21","0.39","29.1513","4.62596","55.64","0","SATNPRO1963","31.982","0.44794","5"],
    [20251,"HCEP03730560","2024-04-26 07:00:00","9.4725","3.18935","27.338","5.275","7.53","2.007","3.979","0.17","0.26","29.1511","4.62593","55.65","0","SATNPRO1963","31.919999999999998","0.44712","5"],
    [20252,"HCEP03730560","2024-04-26 07:15:00","9.4706","3.1904","27.2","5.265","7.52","1.857","4.705","0.17","0.45","29.1633","4.62771","55.55","0","SATNPRO1963","32.038","0.44874","5"],
    [20253,"HCEP03730560","2024-04-26 07:30:00","9.4694","3.19082","27.059","5.248","7.52","1.861","3.923","0.18","0.25","29.1686","4.62849","55.37","0","SATNPRO1963","32.078","0.44932","5"],
    [20254,"HCEP03730560","2024-04-26 07:45:00","9.4659","3.19214","26.908","5.213","7.52","1.868","4.235","0.28","0.4","29.1849","4.63087","55.01","0","SATNPRO1963","31.997999999999998","0.44816","5"],
    [20255,"HCEP03730560","2024-04-26 08:00:00","9.4644","3.19273","26.72","5.176","7.52","1.804","3.801","0.17","0.19","29.1921","4.63192","54.61","0","SATNPRO1963","31.962","0.44768","5"],
    [20256,"HCEP03730560","2024-04-26 08:15:00","9.4638","3.19281","26.522","5.162","7.52","1.812","3.658","0.33","0.27","29.1935","4.63211","54.47","0","SATNPRO1963","31.832","0.44586","5"],
    [20257,"HCEP03730560","2024-04-26 08:30:00","9.4651","3.19293","26.338","5.148","7.51","1.92","3.942","0.5","1.3","29.1937","4.63211","54.32","0","SATNPRO1963","31.866","0.44634","5"],
    [20258,"HCEP03730560","2024-04-26 08:45:00","9.4667","3.19321","26.137","5.106","7.51","1.857","3.867","0.37","0.33","29.1954","4.63231","53.87","0","SATNPRO1963","31.72","0.4443","5"],
    [20259,"HCEP03730560","2024-04-26 09:00:00","9.47","3.19381","25.991","5.018","7.51","1.841","3.723","0.2","0.42","29.1988","4.63273","52.96","0","SATNPRO1963","31.69","0.44384","5"],
    [20260,"HCEP03730560","2024-04-26 09:15:00","9.4735","3.19446","25.807","4.907","7.5","1.877","4.075","0.16","0.27","29.2026","4.63321","51.79","0","SATNPRO1963","31.637999999999998","0.44314","5"],
    [20261,"HCEP03730560","2024-04-26 09:30:00","9.4743","3.19484","25.644","4.815","7.49","1.842","4.608","0.16","0.28","29.2059","4.63366","50.81","0","SATNPRO1963","31.722","0.44434","5"],
    [20262,"HCEP03730560","2024-04-26 09:45:00","9.4755","3.19524","25.435","4.732","7.48","1.841","4.784","0.19","0.36","29.209","4.63407","49.95","0","SATNPRO1963","31.502","0.44122","5"],
    [20263,"HCEP03730560","2024-04-26 10:00:00","9.4784","3.19506","25.235","4.716","7.48","1.868","4.613","0.16","0.42","29.2049","4.63342","49.78","0","SATNPRO1963","31.756","0.44478","5"],
    [20264,"HCEP03730560","2024-04-26 10:15:00","9.4808","3.19486","24.987","4.696","7.48","1.873","4.229","0.22","0.5","29.201","4.63281","49.56","0","SATNPRO1963","31.64","0.44318","5"],
    [20265,"HCEP03730560","2024-04-26 10:30:00","9.4844","3.19477","24.695","4.66","7.47","2.006","4.217","0.22","0.33","29.1973","4.63219","49.19","0","SATNPRO1963","31.386","0.4396","5"],
    [20266,"HCEP03730560","2024-04-26 10:45:00","9.4839","3.19417","24.417","4.692","7.47","2.025","5.321","0.21","0.36","29.1917","4.63139","49.53","0","SATNPRO1963","31.47","0.44076","5"],
    [20267,"HCEP03730560","2024-04-26 11:00:00","9.4862","3.19289","24.251","4.793","7.48","2.328","6.328","0.29","0.37","29.177","4.62923","50.59","0","SATNPRO1963","31.372","0.43942","5"],
    [20268,"HCEP03730560","2024-04-26 11:15:00","9.4886","3.19309","24.037","4.748","7.47","2.136","5.195","0.2","0.99","29.1772","4.62919","50.11","0","SATNPRO1963","31.464","0.44066","5"],
    [20269,"HCEP03730560","2024-04-26 11:30:00","9.4921","3.19277","23.975","4.743","7.47","2.171","4.848","0.2","0.45","29.1712","4.62827","50.07","0","SATNPRO1963","31.29","0.43828","5"],
    [20270,"HCEP03730560","2024-04-26 11:45:00","9.4971","3.19209","23.945","4.756","7.47","2.196","4.106","0.29","0.24","29.1602","4.62661","50.2","0","SATNPRO1963","31.4","0.43984","5"],
    [20271,"HCEP03730560","2024-04-26 12:00:00","9.4994","3.192","23.986","4.749","7.47","2.276","4.416","0.25","0.35","29.1573","4.62616","50.13","0","SATNPRO1963","31.02","0.43448","5"],
    [20272,"HCEP03730560","2024-04-26 12:15:00","9.4997","3.19257","24.034","4.697","7.47","2.339","4.464","0.28","0.35","29.1629","4.62696","49.59","0","SATNPRO1963","31.064","0.4351","5"],
    [20273,"HCEP03730560","2024-04-26 12:30:00","9.4946","3.19334","24.069","4.657","7.47","2.168","5.125","0.21","0.38","29.1748","4.62875","49.16","0","SATNPRO1963","31.19","0.43688","5"],
    [20274,"HCEP03730560","2024-04-26 12:45:00","9.4955","3.19372","24.158","4.61","7.47","2.186","4.783","0.33","0.43","29.1779","4.62918","48.66","0","SATNPRO1963","31.168","0.43658","5"],
    [20275,"HCEP03730560","2024-04-26 13:00:00","9.4971","3.19391","24.252","4.565","7.46","2.213","4.109","0.26","0.21","29.1784","4.62923","48.2","0","SATNPRO1963","31.18","0.4367","5"],
    [20276,"HCEP03730560","2024-04-26 13:15:00","9.4984","3.19404","24.363","4.521","7.46","2.188","4.184","0.21","0.26","29.1786","4.62925","47.73","0","SATNPRO1963","30.928","0.4332","5"],
    [20277,"HCEP03730560","2024-04-26 13:30:00","9.5019","3.19413","24.501","4.473","7.46","2.28","4.38","0.29","0.44","29.1767","4.62892","47.23","0","SATNPRO1963","30.888","0.43264","5"],
    [20278,"HCEP03730560","2024-04-26 13:45:00","9.5056","3.19423","24.638","4.416","7.45","2.24","3.981","0.33","0.35","29.1746","4.62856","46.63","0","SATNPRO1963","30.81","0.43156","5"],
    [20279,"HCEP03730560","2024-04-26 14:00:00","9.5061","3.19427","24.808","4.381","7.45","2.536","4.232","0.42","0.52","29.1746","4.62857","46.26","0","SATNPRO1963","30.864","0.43234","5"],
    [20280,"HCEP03730560","2024-04-26 14:15:00","9.5058","3.19423","24.975","4.374","7.45","2.3","4.543","0.19","0.64","29.1743","4.62854","46.19","0","SATNPRO1963","30.804000000000002","0.43146","5"],
    [20281,"HCEP03730560","2024-04-26 14:30:00","9.5055","3.1942","25.129","4.381","7.45","2.324","4.52","0.32","0.33","29.1742","4.62854","46.26","0","SATNPRO1963","30.650000000000002","0.4293","5"],
    [20282,"HCEP03730560","2024-04-26 14:45:00","9.5061","3.1942","25.236","4.38","7.45","2.097","4.011","0.19","0.31","29.1736","4.62845","46.25","0","SATNPRO1963","30.836","0.43192","5"],
    [20283,"HCEP03730560","2024-04-26 15:00:00","9.5057","3.19414","25.48","4.372","7.45","2.21","4.354","0.18","0.34","29.1733","4.62842","46.16","0","SATNPRO1963","30.522","0.42754","5"],
    [20284,"HCEP03730560","2024-04-26 15:15:00","9.5042","3.19399","25.665","4.392","7.45","2.193","4.484","0.19","0.37","29.1729","4.6284","46.38","0","SATNPRO1963","30.688","0.42984","5"],
    [20285,"HCEP03730560","2024-04-26 15:30:00","9.5013","3.19357","25.839","4.463","7.45","2.319","4.169","0.16","0.29","29.171","4.62819","47.12","0","SATNPRO1963","30.948","0.43346","5"],
    [20286,"HCEP03730560","2024-04-26 15:45:00","9.5032","3.19318","26.031","4.493","7.46","2.329","4.05","0.2","0.22","29.1655","4.62738","47.44","0","SATNPRO1963","30.718","0.43026","5"],
    [20287,"HCEP03730560","2024-04-26 16:00:00","9.5063","3.19291","26.198","4.513","7.46","2.346","3.904","0.17","0.17","29.1601","4.62657","47.65","0","SATNPRO1963","30.868","0.43238","5"],
    [20288,"HCEP03730560","2024-04-26 16:15:00","9.5109","3.19194","26.401","4.553","7.46","2.356","4.158","0.14","0.25","29.1465","4.62454","48.07","0","SATNPRO1963","30.605999999999998","0.4287","5"],
    [20289,"HCEP03730560","2024-04-26 16:30:00","9.5166","3.19137","26.577","4.604","7.47","2.406","4.247","0.18","0.29","29.136","4.62295","48.61","0","SATNPRO1963","30.552","0.42798","5"],
    [20290,"HCEP03730560","2024-04-26 16:45:00","9.523","3.19051","26.743","4.598","7.47","2.443","3.818","0.16","0.3","29.1221","4.62085","48.56","0","SATNPRO1963","30.382","0.42556","5"],
    [20291,"HCEP03730560","2024-04-26 17:00:00","9.5249","3.19037","26.942","4.617","7.47","2.578","4.215","0.17","0.21","29.119","4.62038","48.76","0","SATNPRO1963","30.558","0.42798","5"],
    [20292,"HCEP03730560","2024-04-26 17:15:00","9.5279","3.18988","27.117","4.647","7.47","2.457","4.287","0.14","0.21","29.1116","4.61929","49.07","0","SATNPRO1963","30.272000000000002","0.42402","5"],
    [20293,"HCEP03730560","2024-04-26 17:30:00","9.5325","3.18967","27.25","4.653","7.47","2.562","4.133","0.2","0.31","29.1057","4.61837","49.14","0","SATNPRO1963","30.132","0.42206","5"],
    [20294,"HCEP03730560","2024-04-26 17:45:00","9.5347","3.1896","27.366","4.683","7.48","2.5","3.948","0.19","0.4","29.1032","4.61797","49.46","0","SATNPRO1963","30.328","0.4248","5"],
    [20295,"HCEP03730560","2024-04-26 18:00:00","9.5426","3.1885","27.468","4.726","7.48","2.663","3.872","0.21","0.35","29.0856","4.61532","49.92","0","SATNPRO1963","30.106","0.4217","5"],
    [20296,"HCEP03730560","2024-04-26 18:15:00","9.5499","3.18749","27.579","4.77","7.48","2.624","3.977","0.2","0.33","29.0695","4.61288","50.38","0","SATNPRO1963","29.866","0.41832","5"],
    [20297,"HCEP03730560","2024-04-26 18:30:00","9.5503","3.18756","27.69","4.784","7.48","2.906","4.058","0.38","0.28","29.0698","4.61292","50.53","0","SATNPRO1963","29.988","0.42002","5"],
    [20298,"HCEP03730560","2024-04-26 18:45:00","9.5521","3.18708","27.818","4.801","7.49","2.867","4.153","0.33","0.29","29.0635","4.612","50.71","0","SATNPRO1963","29.904","0.4189","5"],
    [20299,"HCEP03730560","2024-04-26 19:00:00","9.5524","3.18687","27.845","4.813","7.49","2.727","3.901","0.28","0.34","29.0611","4.61164","50.84","0","SATNPRO1963","30.106","0.42164","5"],
    [20300,"HCEP03730560","2024-04-26 19:15:00","9.5507","3.18731","27.863","4.8","7.49","2.78","4.123","0.58","0.57","29.067","4.61252","50.7","0","SATNPRO1963","29.914","0.419","5"],
    [20301,"HCEP03730560","2024-04-26 19:30:00","9.5479","3.18785","27.785","4.75","7.48","2.859","4.548","0.29","0.55","29.0746","4.61366","50.17","0","SATNPRO1963","29.99","0.42006","5"],
    [20302,"HCEP03730560","2024-04-26 19:45:00","9.5414","3.18845","27.747","4.718","7.48","2.664","5.611","0.21","1.67","29.0859","4.6154","49.83","0","SATNPRO1963","29.982","0.41994","5"],
    [20303,"HCEP03730560","2024-04-26 20:00:00","9.5348","3.18864","27.727","4.707","7.48","2.851","4.263","0.36","0.29","29.0932","4.61655","49.7","0","SATNPRO1963","30.24","0.42356","5"],
    [20304,"HCEP03730560","2024-04-26 20:15:00","9.5294","3.18853","27.676","4.715","7.48","2.738","5.131","0.23","0.46","29.0965","4.61712","49.79","0","SATNPRO1963","30.438","0.42632","5"],
    [20305,"HCEP03730560","2024-04-26 20:30:00","9.5213","3.18929","27.676","4.712","7.48","2.758","5.292","0.26","0.42","29.1108","4.61932","49.75","0","SATNPRO1963","30.554","0.42796","5"],
    [20306,"HCEP03730560","2024-04-26 20:45:00","9.5217","3.18938","27.688","4.703","7.48","2.438","4.155","0.23","0.21","29.1113","4.61938","49.66","0","SATNPRO1963","30.718","0.43024","5"],
    [20307,"HCEP03730560","2024-04-26 21:00:00","9.5178","3.19033","27.628","4.661","7.48","2.426","4.355","0.13","0.2","29.1242","4.62129","49.21","0","SATNPRO1963","30.628","0.429","5"],
    [20308,"HCEP03730560","2024-04-26 21:15:00","9.514","3.1911","27.53","4.637","7.47","2.579","4.325","0.27","0.33","29.135","4.6229","48.96","0","SATNPRO1963","30.762","0.43092","5"],
    [20309,"HCEP03730560","2024-04-26 21:30:00","9.515","3.19089","27.463","4.608","7.47","2.707","4.445","0.47","0.5","29.1321","4.62247","48.65","0","SATNPRO1963","30.96","0.43362","5"],
    [20310,"HCEP03730560","2024-04-26 21:45:00","9.5144","3.19078","27.383","4.61","7.47","2.52","4.04","0.29","0.29","29.1315","4.62239","48.67","0","SATNPRO1963","30.48","0.42692","5"],
    [20311,"HCEP03730560","2024-04-26 22:00:00","9.5141","3.19068","27.304","4.629","7.47","2.396","3.992","0.19","0.3","29.1308","4.62228","48.88","0","SATNPRO1963","30.616","0.42886","5"],
    [20312,"HCEP03730560","2024-04-26 22:15:00","9.5126","3.1904","27.223","4.639","7.47","2.429","4.311","0.17","0.24","29.1292","4.62207","48.97","0","SATNPRO1963","30.662","0.42948","5"],
    [20313,"HCEP03730560","2024-04-26 22:30:00","9.5125","3.19073","27.17","4.637","7.47","2.458","4.902","0.17","0.39","29.1326","4.62256","48.96","0","SATNPRO1963","30.786","0.4312","5"],
    [20314,"HCEP03730560","2024-04-26 22:45:00","9.5119","3.19094","27.08","4.611","7.47","2.438","4.277","0.27","0.22","29.1353","4.62295","48.68","0","SATNPRO1963","30.642","0.42918","5"],
    [20315,"HCEP03730560","2024-04-26 23:00:00","9.5114","3.19137","26.996","4.575","7.47","2.576","4.636","0.36","0.67","29.1401","4.62365","48.3","0","SATNPRO1963","30.622","0.42888","5"],
    [20316,"HCEP03730560","2024-04-26 23:15:00","9.5112","3.19174","26.928","4.534","7.47","2.443","4.369","0.26","0.3","29.1439","4.6242","47.87","0","SATNPRO1963","30.692","0.4299","5"],
    [20317,"HCEP03730560","2024-04-26 23:30:00","9.512","3.19148","26.878","4.537","7.46","2.618","4.346","0.3","0.27","29.1407","4.62372","47.9","0","SATNPRO1963","30.77","0.43098","5"],
    [20318,"HCEP03730560","2024-04-26 23:45:00","9.5115","3.19166","26.802","4.528","7.46","2.576","4.704","0.28","0.6","29.1431","4.62406","47.81","0","SATNPRO1963","30.59","0.42846","5"],
    [20319,"HCEP03730560","2024-04-27 00:00:00","9.5121","3.19177","26.736","4.507","7.46","2.578","4.536","0.34","0.36","29.1437","4.62414","47.59","0","SATNPRO1963","30.732","0.43046","5"],
    [20320,"HCEP03730560","2024-04-27 00:15:00","9.512","3.19186","26.68","4.493","7.46","2.704","4.396","0.45","0.35","29.1447","4.62428","47.44","0","SATNPRO1963","30.56","0.42804","5"],
    [20321,"HCEP03730560","2024-04-27 00:30:00","9.5127","3.19182","26.627","4.484","7.46","2.537","4.374","0.22","0.33","29.1437","4.62413","47.34","0","SATNPRO1963","30.66","0.42946","5"],
    [20322,"HCEP03730560","2024-04-27 00:45:00","9.5141","3.19185","26.619","4.473","7.46","2.521","4.409","0.25","0.36","29.1429","4.62398","47.23","0","SATNPRO1963","30.572","0.4282","5"],
    [20323,"HCEP03730560","2024-04-27 01:00:00","9.5185","3.19219","26.619","4.433","7.46","2.609","4.138","0.34","0.35","29.1427","4.62387","46.82","0","SATNPRO1963","30.48","0.42694","5"],
    [20324,"HCEP03730560","2024-04-27 01:15:00","9.5196","3.1925","26.633","4.39","7.45","2.355","4.544","0.23","0.43","29.145","4.62419","46.37","0","SATNPRO1963","30.436","0.42628","5"],
    [20325,"HCEP03730560","2024-04-27 01:30:00","9.5178","3.19276","26.67","4.401","7.45","2.44","4.645","0.23","0.44","29.1491","4.6248","46.48","0","SATNPRO1963","30.694","0.42992","5"],
    [20326,"HCEP03730560","2024-04-27 01:45:00","9.5183","3.19305","26.722","4.377","7.45","2.496","5.014","0.28","0.88","29.1516","4.62516","46.22","0","SATNPRO1963","30.462","0.42666","5"],
    [20327,"HCEP03730560","2024-04-27 02:00:00","9.5199","3.19322","26.762","4.343","7.45","2.545","4.079","0.26","0.3","29.152","4.62519","45.86","0","SATNPRO1963","30.526","0.42758","5"],
    [20328,"HCEP03730560","2024-04-27 02:15:00","9.5196","3.19366","26.809","4.265","7.45","2.543","4.745","0.29","0.32","29.1567","4.62587","45.04","0","SATNPRO1963","30.272","0.42402","5"],
    [20329,"HCEP03730560","2024-04-27 02:30:00","9.5193","3.1941","26.867","4.187","7.44","2.757","4.876","0.68","0.77","29.1613","4.62654","44.22","0","SATNPRO1963","30.308","0.42452","5"],
    [20330,"HCEP03730560","2024-04-27 02:45:00","9.5182","3.19435","26.936","4.143","7.44","2.61","4.779","0.31","0.33","29.1647","4.62706","43.76","0","SATNPRO1963","30.278","0.42406","5"],
    [20331,"HCEP03730560","2024-04-27 03:00:00","9.5154","3.19459","26.975","4.136","7.43","2.479","5.091","0.21","0.7","29.1694","4.62777","43.69","0","SATNPRO1963","30.59","0.42844","5"],
    [20332,"HCEP03730560","2024-04-27 03:15:00","9.5131","3.1947","27.008","4.14","7.43","2.316","5.159","0.17","0.39","29.1724","4.62825","43.72","0","SATNPRO1963","30.41","0.42596","5"],
    [20333,"HCEP03730560","2024-04-27 03:30:00","9.5106","3.1948","27.069","4.156","7.43","14.391","589.807","1.73","235.78","29.1753","4.62872","43.89","0","SATNPRO1963","30.692","0.42988","5"],
    [20334,"HCEP03730560","2024-04-27 03:45:00","9.498","3.19509","27.123","4.296","7.44","13.88","267.971","1.52","122.98","29.1885","4.63083","45.36","0","SATNPRO1963","30.996","0.43414","5"],
    [20335,"HCEP03730560","2024-04-27 04:00:00","9.493","3.19503","27.199","4.426","7.45","14.43","797.801","2.26","207.66","29.1919","4.63142","46.72","0","SATNPRO1963","31.23","0.43742","5"],
    [20336,"HCEP03730560","2024-04-27 04:15:00","9.481","3.19537","27.254","4.623","7.46","14.189","847.753","2.47","226.95","29.2051","4.63352","48.8","0","SATNPRO1963","31.662","0.44348","5"],
    [20337,"HCEP03730560","2024-04-27 04:30:00","9.4804","3.19532","27.316","4.708","7.47","16.831","1003.666","2.95","312.86","29.2051","4.63353","49.69","0","SATNPRO1963","31.658","0.44346","5"],
    [20338,"HCEP03730560","2024-04-27 04:45:00","9.4785","3.19571","27.349","4.747","7.47","15.5","1029.078","2.42","206.31","29.2106","4.63436","50.11","0","SATNPRO1963","31.922","0.44712","5"],
    [20339,"HCEP03730560","2024-04-27 05:00:00","9.4778","3.19594","27.406","4.753","7.48","15.169","657.967","2.77","105.22","29.2134","4.63478","50.17","0","SATNPRO1963","32.062","0.4491","5"],
    [20340,"HCEP03730560","2024-04-27 05:15:00","9.4759","3.19621","27.448","4.762","7.48","13.298","699.051","1.78","211.21","29.2177","4.63543","50.27","0","SATNPRO1963","32.168","0.45058","5"],
    [20341,"HCEP03730560","2024-04-27 05:30:00","9.4742","3.1966","27.471","4.762","7.48","10.972","559.87","4.93","200.52","29.223","4.63622","50.26","0","SATNPRO1963","31.756","0.44484","5"],
    [20342,"HCEP03730560","2024-04-27 05:45:00","9.4736","3.19683","27.506","4.752","7.48","5.278","36.568","5.58","31.1","29.2258","4.63663","50.16","0","SATNPRO1963","32.116","0.44986","5"],
    [20343,"HCEP03730560","2024-04-27 06:00:00","9.4724","3.19719","27.469","4.729","7.48","1.423","3.376","0.12","0.16","29.2305","4.63733","49.92","0","SATNPRO1963","32.028","0.44858","5"],
    [20344,"HCEP03730560","2024-04-27 06:15:00","9.4731","3.19721","27.443","4.721","7.48","1.354","3.254","0.16","0.2","29.23","4.63724","49.83","0","SATNPRO1963","32.004","0.44824","5"],
    [20345,"HCEP03730560","2024-04-27 06:30:00","9.4735","3.19724","27.461","4.706","7.48","1.407","3.368","0.11","0.38","29.2301","4.63725","49.67","0","SATNPRO1963","32","0.4482","5"],
    [20346,"HCEP03730560","2024-04-27 06:45:00","9.4737","3.19696","27.425","4.719","7.48","1.316","2.955","0.14","0.16","29.227","4.6368","49.81","0","SATNPRO1963","31.806","0.44546","5"],
    [20347,"HCEP03730560","2024-04-27 07:00:00","9.473","3.19648","27.402","4.755","7.48","2.053","59.808","0.28","8.19","29.2227","4.6362","50.19","0","SATNPRO1963","32.062","0.4491","5"],
    [20348,"HCEP03730560","2024-04-27 07:15:00","9.4715","3.19646","27.322","4.772","7.48","1.946","25.578","0.48","20.27","29.2238","4.63637","50.37","0","SATNPRO1963","31.983999999999998","0.44798","5"],
    [20349,"HCEP03730560","2024-04-27 07:30:00","9.4738","3.19653","27.206","4.761","7.48","1.381","3.134","0.12","0.22","29.2227","4.63617","50.25","0","SATNPRO1963","32.128","0.44998","5"],
    [20350,"HCEP03730560","2024-04-27 07:45:00","9.4761","3.19686","27.107","4.72","7.48","1.392","2.497","0.3","0.16","29.2242","4.63634","49.82","0","SATNPRO1963","31.756","0.4448","5"],
    [20351,"HCEP03730560","2024-04-27 08:00:00","9.4751","3.19696","26.969","4.689","7.48","1.389","3.357","0.11","0.18","29.2261","4.63662","49.5","0","SATNPRO1963","32.056","0.44902","5"],
    [20352,"HCEP03730560","2024-04-27 08:15:00","9.475","3.197","26.836","4.675","7.48","1.363","3.473","0.16","0.2","29.2266","4.63668","49.35","0","SATNPRO1963","31.778","0.44512","5"],
    [20353,"HCEP03730560","2024-04-27 08:30:00","9.4746","3.19687","26.658","4.685","7.47","1.427","3.446","0.19","0.19","29.2258","4.63657","49.46","0","SATNPRO1963","32.008","0.44834","5"],
    [20354,"HCEP03730560","2024-04-27 08:45:00","9.4752","3.1969","26.5","4.678","7.47","1.464","3.657","0.14","0.27","29.2256","4.63652","49.38","0","SATNPRO1963","31.854","0.44618","5"],
    [20355,"HCEP03730560","2024-04-27 09:00:00","9.4749","3.19696","26.299","4.666","7.47","1.376","3.168","0.1","0.25","29.2266","4.63665","49.25","0","SATNPRO1963","31.848","0.44608","5"],
    [20356,"HCEP03730560","2024-04-27 09:15:00","9.4743","3.19715","26.106","4.648","7.47","2.147","10.502","2.26","18.69","29.229","4.637","49.06","0","SATNPRO1963","31.808","0.44554","5"],
    [20357,"HCEP03730560","2024-04-27 09:30:00","9.4736","3.19731","25.912","4.648","7.47","1.398","3.034","0.09","0.23","29.2313","4.63732","49.07","0","SATNPRO1963","31.901999999999997","0.44682","5"],
    [20358,"HCEP03730560","2024-04-27 09:45:00","9.4734","3.19737","25.6","4.629","7.47","1.446","3.315","0.17","0.33","29.2322","4.63745","48.86","0","SATNPRO1963","31.908","0.4469","5"],
    [20359,"HCEP03730560","2024-04-27 10:00:00","9.474","3.1974","25.376","4.614","7.47","1.572","3.825","0.23","0.5","29.2321","4.6374","48.7","0","SATNPRO1963","26.438000000000002","0.37028","5"],
    [20360,"HCEP03730560","2024-04-27 10:15:00","9.474","3.19746","25.175","4.605","7.47","1.522","3.591","0.13","0.29","29.2328","4.63749","48.61","0","SATNPRO1963","31.958000000000002","0.44764","5"],
    [20361,"HCEP03730560","2024-04-27 10:30:00","9.4736","3.19753","25.008","4.602","7.46","1.537","3.688","0.15","0.39","29.2339","4.63766","48.58","0","SATNPRO1963","31.728","0.44438","5"],
    [20362,"HCEP03730560","2024-04-27 10:45:00","9.4726","3.19751","24.795","4.608","7.46","1.443","3.215","0.15","0.27","29.2346","4.63776","48.64","0","SATNPRO1963","31.89","0.44668","5"],
    [20363,"HCEP03730560","2024-04-27 11:00:00","9.4738","3.19731","24.573","4.599","7.46","1.452","3.767","0.1","0.17","29.2317","4.6373","48.54","0","SATNPRO1963","31.742","0.4446","5"],
    [20364,"HCEP03730560","2024-04-27 11:15:00","9.4743","3.19703","24.482","4.623","7.46","1.409","3.758","0.08","0.16","29.2284","4.63682","48.8","0","SATNPRO1963","31.75","0.44472","5"],
    [20365,"HCEP03730560","2024-04-27 11:30:00","9.475","3.19693","24.368","4.638","7.46","1.445","3.932","0.11","0.23","29.2269","4.63658","48.96","0","SATNPRO1963","31.798","0.44538","5"],
    [20366,"HCEP03730560","2024-04-27 11:45:00","9.4753","3.19669","24.259","4.641","7.46","1.419","3.342","0.13","0.27","29.2243","4.6362","48.99","0","SATNPRO1963","31.882","0.44654","5"],
    [20367,"HCEP03730560","2024-04-27 12:00:00","9.475","3.19683","24.214","4.641","7.46","1.437","3.577","0.11","0.15","29.226","4.63645","48.99","0","SATNPRO1963","31.852","0.44618","5"],
    [20368,"HCEP03730560","2024-04-27 12:15:00","9.4756","3.19665","24.088","4.647","7.46","1.376","3.052","0.11","0.21","29.2237","4.63611","49.05","0","SATNPRO1963","31.823999999999998","0.44574","5"],
    [20369,"HCEP03730560","2024-04-27 12:30:00","9.4753","3.1966","24.093","4.646","7.46","1.389","3.827","0.11","0.14","29.2235","4.63608","49.04","0","SATNPRO1963","31.772","0.44502","5"],
    [20370,"HCEP03730560","2024-04-27 12:45:00","9.4756","3.19659","24.043","4.649","7.46","1.427","3.659","0.13","0.15","29.2232","4.63603","49.07","0","SATNPRO1963","31.808","0.44556","5"],
    [20371,"HCEP03730560","2024-04-27 13:00:00","9.4757","3.1965","24.092","4.653","7.46","1.49","3.813","0.12","0.15","29.2221","4.63587","49.11","0","SATNPRO1963","31.648","0.4433","5"],
    [20372,"HCEP03730560","2024-04-27 13:15:00","9.4756","3.19634","24.112","4.668","7.47","1.44","3.736","0.14","0.21","29.2206","4.63566","49.27","0","SATNPRO1963","31.658","0.44342","5"],
    [20373,"HCEP03730560","2024-04-27 13:30:00","9.4747","3.19623","24.173","4.673","7.47","1.469","3.805","0.09","0.2","29.2202","4.63561","49.33","0","SATNPRO1963","31.744","0.4446","5"],
    [20374,"HCEP03730560","2024-04-27 13:45:00","9.4747","3.19576","24.289","4.696","7.47","1.495","3.805","0.16","0.2","29.2154","4.63494","49.57","0","SATNPRO1963","31.684","0.44378","5"],
    [20375,"HCEP03730560","2024-04-27 14:00:00","9.4754","3.19547","24.337","4.721","7.47","1.552","3.787","0.16","0.21","29.2118","4.63441","49.82","0","SATNPRO1963","31.578","0.44232","5"],
    [20376,"HCEP03730560","2024-04-27 14:15:00","9.4764","3.19516","24.398","4.72","7.47","1.493","3.973","0.11","0.14","29.2079","4.63384","49.82","0","SATNPRO1963","31.592","0.4425","5"],
    [20377,"HCEP03730560","2024-04-27 14:30:00","9.477","3.19484","24.636","4.728","7.47","1.557","4.07","0.09","0.2","29.204","4.63328","49.9","0","SATNPRO1963","31.724","0.44434","5"],
    [20378,"HCEP03730560","2024-04-27 14:45:00","9.4791","3.19455","24.781","4.735","7.47","1.499","4.144","0.12","0.18","29.1994","4.6326","49.98","0","SATNPRO1963","31.544","0.4418","5"],
    [20379,"HCEP03730560","2024-04-27 15:00:00","9.4828","3.19407","24.912","4.727","7.48","1.551","4.078","0.09","0.23","29.1914","4.63138","49.9","0","SATNPRO1963","31.166","0.43654","5"],
    [20380,"HCEP03730560","2024-04-27 15:15:00","9.4869","3.1937","25.068","4.71","7.48","1.606","3.993","0.18","0.26","29.1843","4.6303","49.71","0","SATNPRO1963","31.24","0.43758","5"],
    [20381,"HCEP03730560","2024-04-27 15:30:00","9.4915","3.19335","25.188","4.685","7.47","1.634","3.737","0.11","0.25","29.177","4.62918","49.45","0","SATNPRO1963","31.326","0.43878","5"],
    [20382,"HCEP03730560","2024-04-27 15:45:00","9.4956","3.19306","25.421","4.662","7.47","1.649","4.387","0.09","0.35","29.1706","4.62821","49.21","0","SATNPRO1963","30.854","0.43216","5"],
    [20383,"HCEP03730560","2024-04-27 16:00:00","9.4953","3.19316","25.566","4.644","7.47","1.76","4.899","0.12","0.33","29.1718","4.6284","49.03","0","SATNPRO1963","31.258","0.43784","5"],
    [20384,"HCEP03730560","2024-04-27 16:15:00","9.5001","3.19309","25.811","4.579","7.47","1.784","4.579","0.11","0.27","29.1671","4.62765","48.35","0","SATNPRO1963","30.81","0.43154","5"],
    [20385,"HCEP03730560","2024-04-27 16:30:00","9.504","3.19302","26.016","4.529","7.47","1.843","4.575","0.13","0.38","29.1631","4.62702","47.82","0","SATNPRO1963","30.882","0.43254","5"],
    [20386,"HCEP03730560","2024-04-27 16:45:00","9.5064","3.19287","26.17","4.509","7.46","1.829","5.661","0.11","0.28","29.1597","4.6265","47.61","0","SATNPRO1963","30.712","0.43018","5"],
    [20387,"HCEP03730560","2024-04-27 17:00:00","9.5109","3.19252","26.449","4.513","7.46","1.799","4.87","0.13","0.22","29.1524","4.62539","47.65","0","SATNPRO1963","30.648","0.42928","5"],
    [20388,"HCEP03730560","2024-04-27 17:15:00","9.5121","3.19245","26.597","4.513","7.46","1.706","5.217","0.09","0.24","29.1505","4.62511","47.66","0","SATNPRO1963","30.752","0.43072","5"],
    [20389,"HCEP03730560","2024-04-27 17:30:00","9.5151","3.19217","26.809","4.52","7.46","1.799","5.287","0.12","0.23","29.1452","4.62431","47.72","0","SATNPRO1963","30.698","0.42998","5"],
    [20390,"HCEP03730560","2024-04-27 17:45:00","9.5162","3.19226","26.959","4.509","7.46","1.797","5.992","0.12","0.3","29.1452","4.62429","47.62","0","SATNPRO1963","30.666","0.4295","5"],
    [20391,"HCEP03730560","2024-04-27 18:00:00","9.518","3.19226","27.141","4.495","7.46","1.796","5.447","0.1","0.28","29.1437","4.62406","47.46","0","SATNPRO1963","30.727999999999998","0.43038","5"],
    [20392,"HCEP03730560","2024-04-27 18:15:00","9.5206","3.1922","27.32","4.484","7.46","1.756","5.922","0.07","0.35","29.141","4.62363","47.36","0","SATNPRO1963","30.48","0.4269","5"],
    [20393,"HCEP03730560","2024-04-27 18:30:00","9.5245","3.19187","27.367","4.48","7.46","1.816","5.901","0.13","0.36","29.1344","4.62262","47.31","0","SATNPRO1963","30.484","0.42698","5"],
    [20394,"HCEP03730560","2024-04-27 18:45:00","9.526","3.19176","27.468","4.475","7.46","1.816","5.842","0.22","0.35","29.132","4.62226","47.26","0","SATNPRO1963","30.445999999999998","0.4264","5"],
    [20395,"HCEP03730560","2024-04-27 19:00:00","9.5273","3.19165","27.644","4.47","7.46","1.839","5.782","0.14","0.35","29.1297","4.62192","47.21","0","SATNPRO1963","30.392","0.42568","5"],
    [20396,"HCEP03730560","2024-04-27 19:15:00","9.5289","3.1915","27.702","4.46","7.46","1.749","5.454","0.12","0.33","29.1269","4.62149","47.11","0","SATNPRO1963","30.3","0.42442","5"],
    [20397,"HCEP03730560","2024-04-27 19:30:00","9.5312","3.19129","27.805","4.463","7.46","1.851","5.88","0.1","0.33","29.1229","4.62088","47.13","0","SATNPRO1963","30.196","0.42296","5"],
    [20398,"HCEP03730560","2024-04-27 19:45:00","9.5324","3.19118","27.831","4.455","7.46","1.787","5.724","0.11","0.39","29.1209","4.62057","47.06","0","SATNPRO1963","30.413999999999998","0.426","5"],
    [20399,"HCEP03730560","2024-04-27 20:00:00","9.5369","3.19065","27.915","4.453","7.46","1.924","6.585","0.14","0.6","29.1117","4.61918","47.03","0","SATNPRO1963","30.33","0.42482","5"],
    [20400,"HCEP03730560","2024-04-27 20:15:00","9.5485","3.18957","27.951","4.446","7.46","1.927","5.141","0.14","0.33","29.0915","4.61608","46.97","0","SATNPRO1963","29.754","0.41678","5"],
    [20401,"HCEP03730560","2024-04-27 20:30:00","9.5618","3.18786","27.946","4.476","7.46","2.032","5.394","0.12","0.27","29.0634","4.61183","47.29","0","SATNPRO1963","29.808","0.41748","5"],
    [20402,"HCEP03730560","2024-04-27 20:45:00","9.5527","3.18925","27.992","4.419","7.46","2.011","5.312","0.14","0.32","29.0847","4.61504","46.69","0","SATNPRO1963","29.608","0.41474","5"],
    [20403,"HCEP03730560","2024-04-27 21:00:00","9.5565","3.18906","27.907","4.391","7.46","2.136","5.243","0.2","0.32","29.0798","4.61427","46.39","0","SATNPRO1963","29.744","0.4166","5"],
    [20404,"HCEP03730560","2024-04-27 21:15:00","9.5621","3.18842","27.899","4.396","7.46","2.065","5.294","0.18","0.52","29.0689","4.6126","46.45","0","SATNPRO1963","29.494","0.41312","5"],
    [20405,"HCEP03730560","2024-04-27 21:30:00","9.5722","3.18739","27.818","4.46","7.46","2.125","5.083","0.23","0.3","29.0503","4.60975","47.12","0","SATNPRO1963","29.156","0.40838","5"],
    [20406,"HCEP03730560","2024-04-27 21:45:00","9.5721","3.18746","27.784","4.44","7.46","2.031","4.862","0.14","0.35","29.0511","4.60986","46.91","0","SATNPRO1963","29.562","0.41406","5"],
    [20407,"HCEP03730560","2024-04-27 22:00:00","9.5734","3.18726","27.736","4.445","7.46","2.144","6.724","0.14","0.58","29.0481","4.60941","46.96","0","SATNPRO1963","29.246","0.40964","5"],
    [20408,"HCEP03730560","2024-04-27 22:15:00","9.5712","3.18744","27.694","4.433","7.46","2.101","5.468","0.11","0.29","29.0518","4.60997","46.84","0","SATNPRO1963","29.492","0.41306","5"],
    [20409,"HCEP03730560","2024-04-27 22:30:00","9.5708","3.18753","27.621","4.425","7.46","2.178","5.376","0.17","0.4","29.053","4.61015","46.76","0","SATNPRO1963","29.298000000000002","0.4104","5"],
    [20410,"HCEP03730560","2024-04-27 22:45:00","9.5694","3.18768","27.564","4.409","7.45","2.064","5.972","0.2","0.64","29.0555","4.61054","46.59","0","SATNPRO1963","29.418","0.41202","5"],
    [20411,"HCEP03730560","2024-04-27 23:00:00","9.5696","3.188","27.51","4.447","7.46","2.063","5.244","0.26","0.6","29.0587","4.61099","46.98","0","SATNPRO1963","29.169999999999998","0.40856","5"],
    [20412,"HCEP03730560","2024-04-27 23:15:00","9.6611","3.17367","27.452","4.88","7.48","1.96","3.281","0.11","0.27","28.8408","4.57814","51.6","0","SATNPRO1963","27.51","0.3853","5"],
    [20413,"HCEP03730560","2024-04-27 23:30:00","9.6552","3.17478","27.353","5.077","7.51","2.072","3.399","0.17","0.19","28.8567","4.58052","53.68","0","SATNPRO1963","27.404","0.38388","5"],
    [20414,"HCEP03730560","2024-04-27 23:45:00","9.6757","3.1713","27.25","5.182","7.52","2.092","3.217","0.18","0.15","28.8055","4.57281","54.79","0","SATNPRO1963","27.338","0.38292","5"],
    [20415,"HCEP03730560","2024-04-28 00:00:00","9.6828","3.17017","27.169","5.267","7.53","2.176","3.138","0.18","0.21","28.7884","4.57024","55.69","0","SATNPRO1963","27.198","0.381","5"],
    [20416,"HCEP03730560","2024-04-28 00:15:00","9.6843","3.16955","27.104","5.3","7.54","2.055","3.058","0.16","0.17","28.7809","4.56914","56.04","0","SATNPRO1963","27.178","0.38066","5"],
    [20417,"HCEP03730560","2024-04-28 00:30:00","9.6832","3.16964","27.031","5.307","7.54","2.263","3.121","0.27","0.19","28.7828","4.56942","56.12","0","SATNPRO1963","27.192","0.38088","5"],
    [20418,"HCEP03730560","2024-04-28 00:45:00","9.6808","3.1699","26.958","5.302","7.55","1.939","2.773","0.11","0.11","28.7873","4.5701","56.06","0","SATNPRO1963","27.15","0.38028","5"],
    [20419,"HCEP03730560","2024-04-28 01:00:00","9.6761","3.17022","26.909","5.297","7.55","2.026","3.014","0.25","0.16","28.7943","4.57119","56","0","SATNPRO1963","27.114","0.3798","5"],
    [20420,"HCEP03730560","2024-04-28 01:15:00","9.6735","3.17062","26.886","5.282","7.54","2.038","2.879","0.18","0.15","28.8005","4.57211","55.85","0","SATNPRO1963","27.23","0.3814","5"],
    [20421,"HCEP03730560","2024-04-28 01:30:00","9.6664","3.17098","26.877","5.289","7.54","2.226","2.958","0.36","0.17","28.8097","4.57356","55.92","0","SATNPRO1963","27.41","0.38392","5"],
    [20422,"HCEP03730560","2024-04-28 01:45:00","9.6633","3.17181","26.868","5.246","7.54","2.15","3.441","0.3","0.24","28.8206","4.57517","55.46","0","SATNPRO1963","27.658","0.38744","5"],
    [20423,"HCEP03730560","2024-04-28 02:00:00","9.6571","3.17172","26.896","5.264","7.54","2.167","3.194","0.3","0.18","28.8246","4.57585","55.65","0","SATNPRO1963","27.516","0.38542","5"],
    [20424,"HCEP03730560","2024-04-28 02:15:00","9.6452","3.17206","26.868","5.297","7.54","2.092","3.605","0.3","0.3","28.8375","4.57791","55.98","0","SATNPRO1963","27.894","0.39074","5"],
    [20425,"HCEP03730560","2024-04-28 02:30:00","9.6331","3.17313","26.834","5.28","7.54","2.176","2.758","0.29","0.23","28.8581","4.58107","55.8","0","SATNPRO1963","28.266","0.39592","5"],
    [20426,"HCEP03730560","2024-04-28 02:45:00","9.6202","3.17506","26.848","5.185","7.53","2.106","3.126","0.28","0.32","28.8878","4.58555","54.79","0","SATNPRO1963","28.268","0.39592","5"],
    [20427,"HCEP03730560","2024-04-28 03:00:00","9.6114","3.17658","26.884","5.083","7.53","2.293","4.125","0.33","0.65","28.9103","4.58893","53.71","0","SATNPRO1963","28.422","0.39808","5"],
    [20428,"HCEP03730560","2024-04-28 03:15:00","9.6032","3.17762","26.919","4.99","7.52","2.215","4.706","0.29","0.41","28.9272","4.59151","52.72","0","SATNPRO1963","28.502","0.39922","5"],
    [20429,"HCEP03730560","2024-04-28 03:30:00","9.591","3.17991","26.967","4.887","7.51","2.086","4.827","0.15","0.35","28.9601","4.59644","51.63","0","SATNPRO1963","28.85","0.40412","5"],
    [20430,"HCEP03730560","2024-04-28 03:45:00","9.5765","3.18256","27.02","4.754","7.5","2.03","6.009","0.39","0.51","28.9985","4.60221","50.22","0","SATNPRO1963","29.322","0.4107","5"],
    [20431,"HCEP03730560","2024-04-28 04:00:00","9.5571","3.1845","27.049","4.71","7.49","2.119","5.246","0.17","0.32","29.0337","4.60759","49.75","0","SATNPRO1963","29.642","0.41522","5"],
    [20432,"HCEP03730560","2024-04-28 04:15:00","9.5458","3.18574","27.09","4.736","7.49","1.997","5.133","0.21","0.5","29.0553","4.61089","50.02","0","SATNPRO1963","30.198","0.42294","5"],
    [20433,"HCEP03730560","2024-04-28 04:30:00","9.5432","3.18664","27.12","4.749","7.48","1.82","4.2","0.2","0.26","29.0666","4.61255","50.15","0","SATNPRO1963","30.276","0.42404","5"],
    [20434,"HCEP03730560","2024-04-28 04:45:00","9.5398","3.1876","27.189","4.738","7.48","1.724","4.17","0.21","0.4","29.0789","4.61439","50.04","0","SATNPRO1963","30.434","0.42628","5"],
    [20435,"HCEP03730560","2024-04-28 05:00:00","9.5306","3.18893","27.281","4.698","7.48","1.705","4.404","0.16","0.59","29.0997","4.61754","49.62","0","SATNPRO1963","30.612000000000002","0.42876","5"],
    [20436,"HCEP03730560","2024-04-28 05:15:00","9.5268","3.18946","27.325","4.672","7.48","1.724","3.591","0.18","0.36","29.1082","4.61882","49.33","0","SATNPRO1963","30.376","0.42546","5"],
    [20437,"HCEP03730560","2024-04-28 05:30:00","9.5294","3.18954","27.344","4.695","7.48","1.621","3.308","0.15","0.56","29.1069","4.61859","49.57","0","SATNPRO1963","30.536","0.4277","5"],
    [20438,"HCEP03730560","2024-04-28 05:45:00","9.5247","3.18998","27.396","4.66","7.48","1.598","3.822","0.13","0.36","29.1151","4.61985","49.21","0","SATNPRO1963","30.738","0.43056","5"],
    [20439,"HCEP03730560","2024-04-28 06:00:00","9.5211","3.19053","27.429","4.634","7.47","1.802","4.447","0.26","0.76","29.1235","4.62113","48.93","0","SATNPRO1963","30.842","0.43198","5"],
    [20440,"HCEP03730560","2024-04-28 06:15:00","9.5198","3.19073","27.45","4.613","7.47","1.684","3.878","0.22","0.26","29.1266","4.62159","48.71","0","SATNPRO1963","30.894","0.43268","5"],
    [20441,"HCEP03730560","2024-04-28 06:30:00","9.5243","3.19054","27.449","4.618","7.47","1.666","3.631","0.18","0.2","29.121","4.62071","48.77","0","SATNPRO1963","30.79","0.43128","5"],
    [20442,"HCEP03730560","2024-04-28 06:45:00","9.5259","3.19042","27.452","4.621","7.47","1.746","3.656","0.29","0.18","29.1185","4.62033","48.79","0","SATNPRO1963","30.298","0.42436","5"],
    [20443,"HCEP03730560","2024-04-28 07:00:00","9.5411","3.18895","27.438","4.647","7.47","1.71","2.898","0.14","0.19","29.0914","4.61617","49.08","0","SATNPRO1963","30.55","0.42792","5"],
    [20444,"HCEP03730560","2024-04-28 07:15:00","9.5293","3.18969","27.382","4.659","7.47","1.726","3.381","0.24","0.18","29.1084","4.61881","49.2","0","SATNPRO1963","30.718","0.43028","5"],
    [20445,"HCEP03730560","2024-04-28 07:30:00","9.5248","3.18965","27.35","4.667","7.47","1.68","4.267","0.2","0.29","29.1117","4.61936","49.28","0","SATNPRO1963","30.94","0.43338","5"],
    [20446,"HCEP03730560","2024-04-28 07:45:00","9.5203","3.18999","27.289","4.654","7.47","1.691","4.464","0.17","0.22","29.1188","4.62045","49.14","0","SATNPRO1963","30.772000000000002","0.431","5"],
    [20447,"HCEP03730560","2024-04-28 08:00:00","9.5217","3.18956","27.206","4.662","7.47","1.802","4.926","0.18","1.62","29.1133","4.61964","49.22","0","SATNPRO1963","30.81","0.43156","5"],
    [20448,"HCEP03730560","2024-04-28 08:15:00","9.5297","3.18852","27.091","4.725","7.48","1.701","3.445","0.19","0.2","29.0964","4.61707","49.89","0","SATNPRO1963","30.606","0.42868","5"],
    [20449,"HCEP03730560","2024-04-28 08:30:00","9.529","3.18864","26.982","4.727","7.48","1.803","3.981","0.2","0.22","29.0982","4.61732","49.91","0","SATNPRO1963","30.62","0.4289","5"],
    [20450,"HCEP03730560","2024-04-28 08:45:00","9.534","3.18826","26.853","4.742","7.48","1.646","5.303","0.19","5.86","29.0905","4.61612","50.08","0","SATNPRO1963","30.534","0.42766","5"],
    [20451,"HCEP03730560","2024-04-28 09:00:00","9.5343","3.18805","26.688","4.762","7.48","1.681","3.014","0.17","0.28","29.0881","4.61578","50.28","0","SATNPRO1963","30.573999999999998","0.42824","5"],
    [20452,"HCEP03730560","2024-04-28 09:15:00","9.5413","3.18773","26.527","4.759","7.48","1.659","2.781","0.18","0.2","29.0793","4.61438","50.26","0","SATNPRO1963","30.296","0.42434","5"],
    [20453,"HCEP03730560","2024-04-28 09:30:00","9.5507","3.18754","26.337","4.746","7.48","1.751","2.422","0.21","0.17","29.0699","4.61286","50.13","0","SATNPRO1963","30.212","0.42314","5"],
    [20454,"HCEP03730560","2024-04-28 09:45:00","9.5469","3.18719","26.143","4.769","7.48","1.675","2.468","0.18","0.12","29.0694","4.61284","50.36","0","SATNPRO1963","30.53","0.4276","5"],
    [20455,"HCEP03730560","2024-04-28 10:00:00","9.55","3.18731","25.958","4.77","7.48","1.679","2.264","0.21","0.19","29.0683","4.61261","50.38","0","SATNPRO1963","30.169999999999998","0.4226","5"],
    [20456,"HCEP03730560","2024-04-28 10:15:00","9.5304","3.18863","25.757","4.616","7.47","1.826","4.847","0.2","0.19","29.0975","4.61713","48.75","0","SATNPRO1963","30.01","0.42036","5"],
    [20457,"HCEP03730560","2024-04-28 10:30:00","9.526","3.18912","25.559","4.585","7.47","1.999","4.344","0.47","0.17","29.106","4.61842","48.41","0","SATNPRO1963","30.57","0.42816","5"],
    [20458,"HCEP03730560","2024-04-28 10:45:00","9.5246","3.18916","25.359","4.599","7.47","1.823","3.945","0.25","0.21","29.1078","4.61868","48.56","0","SATNPRO1963","30.586","0.4284","5"],
    [20459,"HCEP03730560","2024-04-28 11:00:00","9.5215","3.18975","25.151","4.603","7.46","1.709","4.262","0.26","0.34","29.1163","4.61995","48.6","0","SATNPRO1963","30.568","0.42818","5"],
    [20460,"HCEP03730560","2024-04-28 11:15:00","9.5211","3.18971","24.953","4.601","7.46","1.783","3.578","0.31","0.44","29.1163","4.61994","48.58","0","SATNPRO1963","30.594","0.42852","5"],
    [20461,"HCEP03730560","2024-04-28 11:30:00","9.5217","3.18971","24.775","4.612","7.46","1.783","3.579","0.24","0.16","29.1159","4.61987","48.7","0","SATNPRO1963","30.596","0.42854","5"],
    [20462,"HCEP03730560","2024-04-28 11:45:00","9.5234","3.18945","24.607","4.618","7.46","1.739","3.688","0.19","0.48","29.1119","4.61926","48.76","0","SATNPRO1963","30.598","0.4286","5"],
    [20463,"HCEP03730560","2024-04-28 12:00:00","9.5205","3.19001","24.465","4.635","7.46","1.705","2.943","0.26","0.28","29.12","4.62046","48.94","0","SATNPRO1963","30.768","0.43096","5"],
    [20464,"HCEP03730560","2024-04-28 12:15:00","9.524","3.18963","24.349","4.634","7.46","1.698","2.971","0.23","0.35","29.1134","4.61944","48.93","0","SATNPRO1963","30.84","0.43198","5"],
    [20465,"HCEP03730560","2024-04-28 12:30:00","9.5191","3.19098","24.26","4.523","7.46","1.722","4.63","0.21","4.68","29.131","4.62206","47.76","0","SATNPRO1963","30.854","0.43218","5"],
    [20466,"HCEP03730560","2024-04-28 12:45:00","9.5192","3.19099","24.209","4.512","7.45","1.76","3.972","0.23","1.19","29.131","4.62205","47.64","0","SATNPRO1963","31.076","0.43528","5"],
    [20467,"HCEP03730560","2024-04-28 13:00:00","9.5189","3.1913","24.185","4.435","7.45","1.678","3.454","0.26","0.13","29.1343","4.62253","46.83","0","SATNPRO1963","30.93","0.43322","5"],
    [20468,"HCEP03730560","2024-04-28 13:15:00","9.5187","3.19151","24.175","4.391","7.45","1.897","3.93","0.27","0.21","29.1367","4.62287","46.36","0","SATNPRO1963","30.616","0.42882","5"],
    [20469,"HCEP03730560","2024-04-28 13:30:00","9.5181","3.19163","24.189","4.376","7.44","1.764","3.821","0.25","0.21","29.1384","4.62312","46.2","0","SATNPRO1963","30.69","0.4299","5"],
    [20470,"HCEP03730560","2024-04-28 13:45:00","9.5174","3.19179","24.206","4.359","7.44","1.862","3.9","0.25","0.15","29.1406","4.62345","46.03","0","SATNPRO1963","30.744","0.43062","5"],
    [20471,"HCEP03730560","2024-04-28 14:00:00","9.5181","3.1919","24.251","4.315","7.44","1.91","4.485","0.35","0.26","29.1411","4.62351","45.57","0","SATNPRO1963","30.53","0.42764","5"],
    [20472,"HCEP03730560","2024-04-28 14:15:00","9.5162","3.19219","24.337","4.296","7.44","1.871","4.506","0.21","0.39","29.1455","4.62419","45.37","0","SATNPRO1963","30.404","0.42586","5"],
    [20473,"HCEP03730560","2024-04-28 14:30:00","9.5137","3.19201","24.418","4.42","7.44","1.663","3.143","0.15","0.24","29.1457","4.62427","46.67","0","SATNPRO1963","30.826","0.43172","5"],
    [20474,"HCEP03730560","2024-04-28 14:45:00","9.5135","3.19201","24.529","4.45","7.45","1.613","3.15","0.19","0.25","29.1458","4.62429","46.99","0","SATNPRO1963","30.99","0.43406","5"],
    [20475,"HCEP03730560","2024-04-28 15:00:00","9.5132","3.19188","24.659","4.461","7.45","1.683","3.656","0.21","0.21","29.1448","4.62415","47.1","0","SATNPRO1963","30.74","0.4306","5"],
    [20476,"HCEP03730560","2024-04-28 15:15:00","9.5147","3.19187","24.766","4.392","7.45","1.697","3.484","0.43","0.47","29.1434","4.62393","46.38","0","SATNPRO1963","30.6","0.42862","5"],
    [20477,"HCEP03730560","2024-04-28 15:30:00","9.5138","3.19138","24.892","4.477","7.45","1.583","3.553","0.12","0.26","29.139","4.62333","47.28","0","SATNPRO1963","30.85","0.43212","5"],
    [20478,"HCEP03730560","2024-04-28 15:45:00","9.5144","3.1915","25.073","4.493","7.45","1.652","3.621","0.22","0.17","29.1397","4.62343","47.45","0","SATNPRO1963","30.810000000000002","0.43154","5"],
    [20479,"HCEP03730560","2024-04-28 16:00:00","9.5128","3.19099","25.22","4.567","7.46","1.499","3.122","0.14","0.17","29.1358","4.6229","48.21","0","SATNPRO1963","30.914","0.43302","5"],
    [20480,"HCEP03730560","2024-04-28 16:15:00","9.5141","3.1906","25.4","4.621","7.46","1.272","2.725","0.1","0.17","29.1308","4.62218","48.79","0","SATNPRO1963","30.908","0.43292","5"],
    [20481,"HCEP03730560","2024-04-28 16:30:00","9.5169","3.18933","25.565","4.687","7.47","1.241","2.418","0.12","0.21","29.1157","4.61996","49.49","0","SATNPRO1963","30.798","0.43136","5"],
    [20482,"HCEP03730560","2024-04-28 16:45:00","9.5264","3.18909","25.759","4.679","7.47","1.337","2.557","0.16","0.12","29.1054","4.61833","49.41","0","SATNPRO1963","30.573999999999998","0.42824","5"],
    [20483,"HCEP03730560","2024-04-28 17:00:00","9.5285","3.1893","25.936","4.64","7.47","1.376","2.83","0.1","0.11","29.1057","4.61836","49","0","SATNPRO1963","30.622","0.4289","5"],
    [20484,"HCEP03730560","2024-04-28 17:15:00","9.5508","3.18754","26.101","4.582","7.47","1.456","3.008","0.13","0.16","29.0699","4.61283","48.39","0","SATNPRO1963","29.714","0.4162","5"],
    [20485,"HCEP03730560","2024-04-28 17:30:00","9.527","3.19015","26.322","4.531","7.47","1.533","4.451","0.17","0.24","29.1154","4.61979","47.85","0","SATNPRO1963","30.252","0.4237","5"],
    [20486,"HCEP03730560","2024-04-28 17:45:00","9.5236","3.19044","26.479","4.497","7.46","1.352","4.447","0.07","0.25","29.121","4.62067","47.49","0","SATNPRO1963","30.502","0.42722","5"],
    [20487,"HCEP03730560","2024-04-28 18:00:00","9.5346","3.18928","26.683","4.489","7.46","1.369","3.572","0.08","0.18","29.1003","4.61752","47.4","0","SATNPRO1963","29.954","0.41958","5"],
    [20488,"HCEP03730560","2024-04-28 18:15:00","9.5227","3.19136","26.831","4.398","7.46","1.592","4.842","0.22","0.24","29.1309","4.62211","46.44","0","SATNPRO1963","30.332","0.42488","5"],
    [20489,"HCEP03730560","2024-04-28 18:30:00","9.5357","3.18967","27.086","4.401","7.46","1.537","4.405","0.14","0.24","29.1031","4.61792","46.48","0","SATNPRO1963","30.288","0.42422","5"],
    [20490,"HCEP03730560","2024-04-28 18:45:00","9.5223","3.19133","27.216","4.368","7.45","1.621","4.797","0.24","0.27","29.1307","4.62213","46.12","0","SATNPRO1963","30.032","0.42066","5"],
    [20491,"HCEP03730560","2024-04-28 19:00:00","9.5226","3.19161","27.375","4.341","7.45","1.568","5.042","0.14","0.44","29.1332","4.62249","45.85","0","SATNPRO1963","30.408","0.42592","5"],
    [20492,"HCEP03730560","2024-04-28 19:15:00","9.52","3.19215","27.498","4.291","7.45","4.566","47.812","4.38","21.45","29.1408","4.62362","45.31","0","SATNPRO1963","30.318","0.42466","5"],
    [20493,"HCEP03730560","2024-04-28 19:30:00","9.52","3.19217","27.626","4.281","7.45","3.418","28.743","3.32","27.39","29.141","4.62366","45.21","0","SATNPRO1963","30.62","0.4289","5"],
    [20494,"HCEP03730560","2024-04-28 19:45:00","9.5212","3.19199","27.71","4.279","7.45","1.664","5.051","0.25","0.35","29.1381","4.62322","45.18","0","SATNPRO1963","30.636","0.4291","5"],
    [20495,"HCEP03730560","2024-04-28 20:00:00","9.5208","3.19196","27.753","4.29","7.45","1.6","4.903","0.16","0.31","29.1381","4.62324","45.31","0","SATNPRO1963","30.422","0.42608","5"],
    [20496,"HCEP03730560","2024-04-28 20:15:00","9.5192","3.19219","27.74","4.295","7.45","1.532","4.94","0.15","0.33","29.1417","4.62379","45.35","0","SATNPRO1963","30.402","0.42584","5"],
    [20497,"HCEP03730560","2024-04-28 20:30:00","9.5178","3.19235","27.747","4.3","7.45","1.512","5.644","0.11","0.4","29.1445","4.62421","45.41","0","SATNPRO1963","30.314","0.42458","5"],
    [20498,"HCEP03730560","2024-04-28 20:45:00","9.5174","3.19247","27.777","4.292","7.45","1.58","5.493","0.17","0.65","29.146","4.62443","45.32","0","SATNPRO1963","30.474","0.42686","5"],
    [20499,"HCEP03730560","2024-04-28 21:00:00","9.5181","3.19229","27.743","4.293","7.45","1.675","4.911","0.28","0.55","29.1436","4.62408","45.33","0","SATNPRO1963","30.502","0.42724","5"],
    [20500,"HCEP03730560","2024-04-28 21:15:00","9.5193","3.19202","27.779","4.312","7.45","1.492","5.038","0.14","0.41","29.1399","4.62353","45.53","0","SATNPRO1963","30.352","0.4251","5"],
    [20501,"HCEP03730560","2024-04-28 21:30:00","9.5219","3.19144","27.785","4.337","7.45","1.591","5.037","0.13","0.31","29.1319","4.62234","45.8","0","SATNPRO1963","30.338","0.42492","5"],
    [20502,"HCEP03730560","2024-04-28 21:45:00","9.5225","3.19136","27.784","4.343","7.45","1.577","5.22","0.24","0.46","29.1306","4.62214","45.86","0","SATNPRO1963","30.336","0.42492","5"],
    [20503,"HCEP03730560","2024-04-28 22:00:00","9.5233","3.19118","27.759","4.333","7.45","1.647","6.011","0.16","0.5","29.1282","4.62178","45.76","0","SATNPRO1963","30.262","0.42384","5"],
    [20504,"HCEP03730560","2024-04-28 22:15:00","9.5291","3.19018","27.727","4.425","7.45","2.43","95.591","0.7","49.85","29.1134","4.61956","46.73","0","SATNPRO1963","29.738","0.41654","5"],
    [20505,"HCEP03730560","2024-04-28 22:30:00","9.5381","3.18824","27.72","4.424","7.45","8.922","184.349","1.21","44.49","29.0865","4.61554","46.72","0","SATNPRO1963","29.328","0.41076","5"],
    [20506,"HCEP03730560","2024-04-28 22:45:00","9.5472","3.18532","27.703","4.611","7.47","4.565","47.778","1.83","16.49","29.0497","4.6101","48.69","0","SATNPRO1963","29.226","0.40934","5"],
    [20507,"HCEP03730560","2024-04-28 23:00:00","9.5419","3.18672","27.646","4.668","7.47","2.42","25.668","1.32","28.16","29.0681","4.61282","49.3","0","SATNPRO1963","29.642","0.41522","5"],
    [20508,"HCEP03730560","2024-04-28 23:15:00","9.5397","3.18667","27.619","4.613","7.47","1.681","6.197","0.25","0.31","29.0694","4.61305","48.72","0","SATNPRO1963","29.844","0.418","5"],
    [20509,"HCEP03730560","2024-04-28 23:30:00","9.5339","3.18833","27.58","4.525","7.47","1.903","5.311","0.26","0.25","29.0909","4.61623","47.79","0","SATNPRO1963","29.914","0.419","5"],
    [20510,"HCEP03730560","2024-04-28 23:45:00","9.5362","3.18727","27.502","4.563","7.47","1.632","4.872","0.22","0.4","29.0783","4.61438","48.18","0","SATNPRO1963","29.802","0.41746","5"],
    [20511,"HCEP03730560","2024-04-29 00:00:00","9.5383","3.18519","27.436","4.716","7.48","1.769","4.957","0.19","0.4","29.0557","4.61109","49.79","0","SATNPRO1963","29.852","0.41814","5"],
    [20512,"HCEP03730560","2024-04-29 00:15:00","9.5366","3.18371","27.394","4.914","7.49","1.7","5.093","0.27","1.15","29.0421","4.60917","51.88","0","SATNPRO1963","29.788","0.41722","5"],
    [20513,"HCEP03730560","2024-04-29 00:30:00","9.532","3.18825","27.313","4.632","7.48","1.73","5.059","0.2","0.44","29.0917","4.61637","48.92","0","SATNPRO1963","30.064","0.4211","5"],
    [20514,"HCEP03730560","2024-04-29 00:45:00","9.5308","3.18852","27.257","4.51","7.47","1.669","4.64","0.23","0.39","29.0955","4.61692","47.63","0","SATNPRO1963","29.830000000000002","0.41782","5"],
    [20515,"HCEP03730560","2024-04-29 01:00:00","9.5321","3.18689","27.206","4.601","7.47","1.594","4.508","0.13","0.23","29.078","4.61439","48.58","0","SATNPRO1963","29.728","0.4164","5"],
    [20516,"HCEP03730560","2024-04-29 01:15:00","9.5308","3.18882","27.139","4.51","7.47","1.662","4.632","0.25","0.56","29.0986","4.61736","47.63","0","SATNPRO1963","30.004","0.42024","5"],
    [20517,"HCEP03730560","2024-04-29 01:30:00","9.5309","3.18673","27.068","4.524","7.47","1.593","4.13","0.22","0.29","29.0774","4.61432","47.76","0","SATNPRO1963","30.002","0.4202","5"],
    [20518,"HCEP03730560","2024-04-29 01:45:00","9.5281","3.18517","27.027","4.74","7.48","1.537","3.892","0.1","0.34","29.064","4.61244","50.04","0","SATNPRO1963","29.86","0.41824","5"],
    [20519,"HCEP03730560","2024-04-29 02:00:00","9.5267","3.18518","26.99","4.824","7.49","1.613","5.069","0.18","0.67","29.0652","4.61263","50.92","0","SATNPRO1963","29.908","0.41894","5"],
    [20520,"HCEP03730560","2024-04-29 02:15:00","9.5219","3.18451","26.945","4.893","7.49","1.527","4.79","0.12","0.29","29.0623","4.6123","51.65","0","SATNPRO1963","29.798000000000002","0.41742","5"],
    [20521,"HCEP03730560","2024-04-29 02:30:00","9.5196","3.18487","26.898","4.912","7.49","1.596","5.238","0.12","0.28","29.0678","4.61313","51.85","0","SATNPRO1963","29.978","0.41988","5"],
    [20522,"HCEP03730560","2024-04-29 02:45:00","9.5157","3.18515","26.886","4.917","7.5","1.723","5.201","0.62","0.44","29.0737","4.61405","51.9","0","SATNPRO1963","29.828","0.41784","5"],
    [20523,"HCEP03730560","2024-04-29 03:00:00","9.5102","3.18532","26.874","4.916","7.5","3.366","72.748","0.78","23.96","29.08","4.61504","51.89","0","SATNPRO1963","30.146","0.42226","5"],
    [20524,"HCEP03730560","2024-04-29 03:15:00","9.5086","3.18614","26.911","4.864","7.49","1.623","5.516","0.13","0.23","29.0896","4.61645","51.34","0","SATNPRO1963","30.182","0.42276","5"],
    [20525,"HCEP03730560","2024-04-29 03:30:00","9.5081","3.18638","26.926","4.826","7.49","1.724","5.868","0.15","0.32","29.0924","4.61686","50.94","0","SATNPRO1963","30.098","0.42158","5"],
    [20526,"HCEP03730560","2024-04-29 03:45:00","9.5052","3.18564","26.958","4.884","7.49","1.627","4.962","0.15","0.25","29.0872","4.61617","51.55","0","SATNPRO1963","30.036","0.4207","5"],
    [20527,"HCEP03730560","2024-04-29 04:00:00","9.5012","3.18595","26.982","4.932","7.5","1.583","5.176","0.1","0.29","29.0936","4.61715","52.05","0","SATNPRO1963","30.212","0.4232","5"],
    [20528,"HCEP03730560","2024-04-29 04:15:00","9.5","3.18629","27.009","4.937","7.5","1.563","5.291","0.2","0.4","29.098","4.61781","52.09","0","SATNPRO1963","30.322","0.4247","5"],
    [20529,"HCEP03730560","2024-04-29 04:30:00","9.4974","3.18656","27.03","4.922","7.5","1.613","5.016","0.15","0.39","29.1028","4.61854","51.94","0","SATNPRO1963","30.528","0.4276","5"],
    [20530,"HCEP03730560","2024-04-29 04:45:00","9.4965","3.18669","27.038","4.925","7.5","1.674","25.393","0.37","28.24","29.1049","4.61887","51.97","0","SATNPRO1963","30.356","0.42514","5"],
    [20531,"HCEP03730560","2024-04-29 05:00:00","9.4969","3.18699","27.079","4.897","7.5","1.556","8.68","0.14","10.2","29.1075","4.61923","51.67","0","SATNPRO1963","30.598","0.42858","5"],
    [20532,"HCEP03730560","2024-04-29 05:15:00","9.4972","3.18723","27.113","4.888","7.5","1.438","4.425","0.12","0.37","29.1097","4.61954","51.59","0","SATNPRO1963","30.608","0.42872","5"],
    [20533,"HCEP03730560","2024-04-29 05:30:00","9.4967","3.18752","27.153","4.857","7.5","1.572","5.326","0.17","0.54","29.113","4.62003","51.26","0","SATNPRO1963","30.504","0.42726","5"],
    [20534,"HCEP03730560","2024-04-29 05:45:00","9.4971","3.18804","27.191","4.817","7.49","1.493","4.969","0.16","0.75","29.118","4.62074","50.84","0","SATNPRO1963","30.534000000000002","0.42766","5"],
    [20535,"HCEP03730560","2024-04-29 06:00:00","9.4974","3.18835","27.216","4.782","7.49","1.586","4.49","0.23","0.49","29.1208","4.62114","50.47","0","SATNPRO1963","30.648","0.4293","5"],
    [20536,"HCEP03730560","2024-04-29 06:15:00","9.4975","3.18877","27.249","4.743","7.49","1.527","4.517","0.15","0.24","29.1249","4.62173","50.06","0","SATNPRO1963","30.6","0.42862","5"],
    [20537,"HCEP03730560","2024-04-29 06:30:00","9.4979","3.18934","27.272","4.708","7.48","1.474","4.648","0.1","0.14","29.1304","4.62252","49.69","0","SATNPRO1963","30.622","0.42894","5"],
    [20538,"HCEP03730560","2024-04-29 06:45:00","9.4987","3.18994","27.303","4.659","7.48","1.459","4.168","0.12","0.37","29.1358","4.62328","49.17","0","SATNPRO1963","30.732","0.43044","5"],
    [20539,"HCEP03730560","2024-04-29 07:00:00","9.499","3.19055","27.311","4.631","7.48","1.572","4.153","0.12","0.29","29.1418","4.62413","48.88","0","SATNPRO1963","30.726","0.43038","5"],
    [20540,"HCEP03730560","2024-04-29 07:15:00","9.4974","3.19092","27.325","4.632","7.47","1.528","4.643","0.16","0.37","29.1468","4.62487","48.9","0","SATNPRO1963","30.904","0.43286","5"],
    [20541,"HCEP03730560","2024-04-29 07:30:00","9.4888","3.19102","27.325","4.692","7.48","1.499","4.789","0.14","0.3","29.1547","4.62616","49.52","0","SATNPRO1963","31.192","0.4369","5"],
    [20542,"NA","2024-05-01 08:00:00",null,null,null,null,null,null,null,null,null,null,null,null,null,"SATNPRO1963","30.524","0.42754","5"],
    [20543,"HCEP03730560","2024-04-29 07:45:00","9.4792","3.19089","27.313","4.821","7.48","1.658","6.911","0.19","2.13","29.1612","4.62726","50.88","0","SATNPRO1963","31.058","0.43498","5"],
    [20544,"HCEP03730560","2024-04-29 08:00:00","9.4662","3.19086","27.269","4.94","7.49","1.497","4.079","0.32","0.33","29.1715","4.62897","52.12","0","SATNPRO1963","31.57","0.4422","5"],
    [20545,"HCEP03730560","2024-04-29 08:15:00","9.4643","3.19091","27.218","4.985","7.5","1.29","3.115","0.2","0.19","29.1736","4.62929","52.59","0","SATNPRO1963","31.492","0.4411","5"],
    [20546,"HCEP03730560","2024-04-29 08:30:00","9.4637","3.19086","27.155","4.993","7.5","1.754","3.49","1.08","0.26","29.1736","4.6293","52.68","0","SATNPRO1963","31.334","0.43888","5"],
    [20547,"HCEP03730560","2024-04-29 08:45:00","9.4641","3.19088","27.08","4.982","7.5","1.327","3.74","0.15","0.23","29.1735","4.62928","52.55","0","SATNPRO1963","31.174","0.43668","5"],
    [20548,"HCEP03730560","2024-04-29 09:00:00","9.4662","3.19095","26.99","4.967","7.5","1.41","3.778","0.19","0.69","29.1725","4.6291","52.4","0","SATNPRO1963","31.236","0.43752","5"],
    [20549,"HCEP03730560","2024-04-29 09:15:00","9.4684","3.19098","26.872","4.95","7.5","1.404","3.561","0.2","0.19","29.1711","4.62884","52.22","0","SATNPRO1963","31.408","0.4399","5"],
    [20550,"HCEP03730560","2024-04-29 09:30:00","9.4723","3.19102","26.786","4.914","7.5","1.432","3.521","0.29","0.31","29.1684","4.62839","51.85","0","SATNPRO1963","31.142","0.4362","5"],
    [20551,"HCEP03730560","2024-04-29 09:45:00","9.4737","3.19105","26.635","4.882","7.49","1.34","4.007","0.1","0.33","29.1676","4.62824","51.51","0","SATNPRO1963","31.314","0.43862","5"],
    [20552,"HCEP03730560","2024-04-29 10:00:00","9.4791","3.19107","26.496","4.84","7.49","1.328","4.388","0.09","0.42","29.1635","4.62755","51.07","0","SATNPRO1963","31.058","0.43504","5"],
    [20553,"HCEP03730560","2024-04-29 10:15:00","9.4835","3.19111","26.334","4.802","7.49","1.341","4.184","0.12","0.22","29.1604","4.62702","50.68","0","SATNPRO1963","31.182","0.43678","5"],
    [20554,"HCEP03730560","2024-04-29 10:30:00","9.4932","3.19108","26.159","4.703","7.48","1.401","4.171","0.12","0.17","29.1523","4.62568","49.64","0","SATNPRO1963","30.86","0.43228","5"],
    [20555,"HCEP03730560","2024-04-29 10:45:00","9.495","3.19094","25.987","4.659","7.47","1.426","6.284","0.15","1.09","29.1495","4.62522","49.17","0","SATNPRO1963","30.958000000000002","0.43364","5"],
    [20556,"HCEP03730560","2024-04-29 11:00:00","9.4936","3.19105","25.795","4.645","7.47","1.489","7.128","0.12","1.65","29.1517","4.62556","49.03","0","SATNPRO1963","30.832","0.43184","5"],
    [20557,"HCEP03730560","2024-04-29 11:15:00","9.4935","3.19115","25.621","4.622","7.47","1.434","9.262","0.12","2.19","29.153","4.62573","48.78","0","SATNPRO1963","30.894000000000002","0.43276","5"],
    [20558,"HCEP03730560","2024-04-29 11:30:00","9.4991","3.19084","25.459","4.58","7.47","1.492","4.62","0.12","0.28","29.1453","4.62452","48.34","0","SATNPRO1963","30.817999999999998","0.43164","5"],
    [20559,"HCEP03730560","2024-04-29 11:45:00","9.5006","3.19092","25.278","4.551","7.46","1.508","4.885","0.14","0.36","29.145","4.62443","48.04","0","SATNPRO1963","30.692","0.42992","5"],
    [20560,"HCEP03730560","2024-04-29 12:00:00","9.502","3.19087","25.123","4.511","7.46","1.553","5.141","0.16","0.22","29.1434","4.62417","47.61","0","SATNPRO1963","30.58","0.42828","5"],
    [20561,"HCEP03730560","2024-04-29 12:15:00","9.5057","3.19073","24.957","4.479","7.46","1.425","4.854","0.12","0.37","29.1391","4.62348","47.28","0","SATNPRO1963","30.49","0.42708","5"],
    [20562,"HCEP03730560","2024-04-29 12:30:00","9.5099","3.19072","24.827","4.457","7.45","1.455","5.163","0.11","0.33","29.1356","4.6229","47.05","0","SATNPRO1963","30.546","0.42784","5"],
    [20563,"HCEP03730560","2024-04-29 12:45:00","9.5128","3.19067","24.684","4.438","7.45","1.572","5.16","0.25","0.3","29.1328","4.62244","46.86","0","SATNPRO1963","30.67","0.42956","5"],
    [20564,"HCEP03730560","2024-04-29 13:00:00","9.5165","3.19087","24.554","4.406","7.45","1.809","7.003","0.2","1.78","29.1319","4.62224","46.53","0","SATNPRO1963","30.494","0.4271","5"],
    [20565,"HCEP03730560","2024-04-29 13:15:00","9.5195","3.19115","24.472","4.369","7.44","1.544","5.432","0.26","0.78","29.1324","4.62225","46.13","0","SATNPRO1963","30.442","0.42642","5"],
    [20566,"HCEP03730560","2024-04-29 13:30:00","9.5211","3.19127","24.373","4.349","7.44","1.442","4.524","0.2","0.4","29.1323","4.62221","45.92","0","SATNPRO1963","30.42","0.42608","5"],
    [20567,"HCEP03730560","2024-04-29 13:45:00","9.5216","3.19117","24.32","4.342","7.44","1.36","4.566","0.22","0.36","29.1308","4.62198","45.85","0","SATNPRO1963","30.306","0.42448","5"],
    [20568,"HCEP03730560","2024-04-29 14:00:00","9.522","3.19093","24.267","4.338","7.44","1.524","5.285","0.21","0.44","29.1282","4.62159","45.81","0","SATNPRO1963","30.152","0.42232","5"],
    [20569,"HCEP03730560","2024-04-29 14:15:00","9.5225","3.19089","24.285","4.325","7.44","1.407","5.668","0.13","0.35","29.1273","4.62147","45.68","0","SATNPRO1963","30.426000000000002","0.42614","5"],
    [20570,"HCEP03730560","2024-04-29 14:30:00","9.5228","3.19045","24.296","4.331","7.44","1.511","5.845","0.21","0.53","29.1227","4.62079","45.74","0","SATNPRO1963","30.35","0.42514","5"],
    [20571,"HCEP03730560","2024-04-29 14:45:00","9.5236","3.19058","24.297","4.32","7.44","1.5","5.665","0.19","0.37","29.1232","4.62086","45.62","0","SATNPRO1963","30.226","0.42336","5"],
    [20572,"HCEP03730560","2024-04-29 15:00:00","9.5243","3.19066","24.35","4.324","7.44","1.394","5.252","0.12","0.32","29.1235","4.62089","45.66","0","SATNPRO1963","30.274","0.42406","5"],
    [20573,"HCEP03730560","2024-04-29 15:15:00","9.5251","3.19092","24.416","4.304","7.44","1.368","4.677","0.11","0.28","29.1255","4.62116","45.45","0","SATNPRO1963","30.146","0.42222","5"],
    [20574,"HCEP03730560","2024-04-29 15:30:00","9.5257","3.19107","24.497","4.276","7.44","1.543","5.898","0.19","0.38","29.1264","4.62129","45.15","0","SATNPRO1963","30.124000000000002","0.42192","5"],
    [20575,"HCEP03730560","2024-04-29 15:45:00","9.5258","3.19111","24.61","4.25","7.43","1.568","10.813","0.29","17.24","29.1268","4.62135","44.88","0","SATNPRO1963","30.208","0.42312","5"],
    [20576,"HCEP03730560","2024-04-29 16:00:00","9.5261","3.19113","24.723","4.232","7.43","1.36","4.541","0.12","0.29","29.1267","4.62133","44.69","0","SATNPRO1963","30.216","0.42322","5"],
    [20577,"HCEP03730560","2024-04-29 16:15:00","9.5268","3.19114","24.853","4.218","7.43","1.414","4.306","0.18","0.63","29.1262","4.62126","44.54","0","SATNPRO1963","30.184","0.42278","5"],
    [20578,"HCEP03730560","2024-04-29 16:30:00","9.5287","3.19117","25.009","4.206","7.43","1.407","3.86","0.15","0.25","29.1248","4.62103","44.43","0","SATNPRO1963","30.11","0.4218","5"],
    [20579,"HCEP03730560","2024-04-29 16:45:00","9.5289","3.19119","25.167","4.201","7.43","1.374","3.734","0.1","0.21","29.1248","4.62105","44.37","0","SATNPRO1963","30.084","0.42136","5"],
    [20580,"HCEP03730560","2024-04-29 17:00:00","9.5293","3.19111","25.313","4.195","7.43","1.476","4.151","0.19","0.43","29.1236","4.62086","44.31","0","SATNPRO1963","30.034","0.4207","5"],
    [20581,"HCEP03730560","2024-04-29 17:15:00","9.5304","3.19102","25.47","4.189","7.43","1.389","4.29","0.12","0.32","29.1218","4.6206","44.24","0","SATNPRO1963","30.01","0.42036","5"],
    [20582,"HCEP03730560","2024-04-29 17:30:00","9.531","3.19095","25.629","4.176","7.43","1.471","3.918","0.12","0.17","29.1205","4.62042","44.11","0","SATNPRO1963","29.746","0.41668","5"],
    [20583,"HCEP03730560","2024-04-29 17:45:00","9.5329","3.19066","25.785","4.166","7.43","1.479","3.802","0.19","0.13","29.1159","4.61973","44","0","SATNPRO1963","29.686","0.41582","5"],
    [20584,"HCEP03730560","2024-04-29 18:00:00","9.5341","3.1906","25.965","4.127","7.43","1.46","6.757","0.1","7.49","29.1143","4.61949","43.58","0","SATNPRO1963","29.574","0.4142","5"],
    [20585,"HCEP03730560","2024-04-29 18:15:00","9.5356","3.19037","26.198","4.102","7.43","1.425","4.749","0.08","0.32","29.1106","4.61895","43.33","0","SATNPRO1963","29.696","0.41592","5"],
    [20586,"HCEP03730560","2024-04-29 18:30:00","9.537","3.19009","26.384","4.136","7.43","1.444","5.572","0.19","2.56","29.1066","4.61836","43.68","0","SATNPRO1963","29.64","0.41514","5"],
    [20587,"HCEP03730560","2024-04-29 18:45:00","9.5381","3.19011","26.559","4.147","7.43","1.364","4.124","0.11","0.23","29.1059","4.61825","43.8","0","SATNPRO1963","29.826","0.41772","5"],
    [20588,"HCEP03730560","2024-04-29 19:00:00","9.539","3.19002","26.77","4.15","7.43","1.413","4.375","0.13","0.18","29.1042","4.61801","43.83","0","SATNPRO1963","29.462","0.41268","5"],
    [20589,"HCEP03730560","2024-04-29 19:15:00","9.5401","3.18991","26.907","4.159","7.43","1.346","4.238","0.09","0.3","29.1021","4.61768","43.93","0","SATNPRO1963","29.688","0.41584","5"],
    [20590,"HCEP03730560","2024-04-29 19:30:00","9.5415","3.18991","27.079","4.16","7.43","1.524","4.745","0.3","0.66","29.1009","4.6175","43.94","0","SATNPRO1963","29.48","0.41292","5"],
    [20591,"HCEP03730560","2024-04-29 19:45:00","9.5425","3.1899","27.204","4.15","7.43","1.323","4.149","0.09","0.26","29.0999","4.61735","43.84","0","SATNPRO1963","29.5","0.4132","5"],
    [20592,"HCEP03730560","2024-04-29 20:00:00","9.5436","3.18963","27.356","4.19","7.44","1.316","4.058","0.09","0.3","29.0962","4.61681","44.26","0","SATNPRO1963","29.752","0.4167","5"],
    [20593,"HCEP03730560","2024-04-29 20:15:00","9.544","3.18947","27.511","4.193","7.44","1.253","4.698","0.09","0.3","29.0942","4.61653","44.29","0","SATNPRO1963","29.599999999999998","0.4146","5"],
    [20594,"HCEP03730560","2024-04-29 20:30:00","9.544","3.18934","27.604","4.199","7.44","1.882","16.204","0.33","4.93","29.0929","4.61635","44.35","0","SATNPRO1963","29.622","0.4149","5"],
    [20595,"HCEP03730560","2024-04-29 20:45:00","9.5444","3.18899","27.706","4.239","7.44","1.327","3.32","0.19","0.24","29.089","4.61577","44.78","0","SATNPRO1963","29.69","0.41588","5"],
    [20596,"HCEP03730560","2024-04-29 21:00:00","9.5444","3.18912","27.783","4.24","7.44","1.431","4.211","0.18","0.3","29.0903","4.61597","44.78","0","SATNPRO1963","29.754","0.41674","5"],
    [20597,"HCEP03730560","2024-04-29 21:15:00","9.5432","3.18947","27.834","4.209","7.44","1.24","3.781","0.18","0.24","29.0947","4.61663","44.46","0","SATNPRO1963","29.666","0.41552","5"],
    [20598,"HCEP03730560","2024-04-29 21:30:00","9.5431","3.1894","27.861","4.204","7.44","1.337","3.947","0.16","0.2","29.0942","4.61656","44.4","0","SATNPRO1963","29.322","0.41068","5"],
    [20599,"HCEP03730560","2024-04-29 21:45:00","9.5415","3.18962","27.897","4.186","7.44","1.285","4.302","0.12","0.2","29.0976","4.61708","44.22","0","SATNPRO1963","29.582","0.41434","5"],
    [20600,"HCEP03730560","2024-04-29 22:00:00","9.5407","3.18972","27.928","4.169","7.44","1.427","5.206","0.21","0.43","29.0993","4.61733","44.03","0","SATNPRO1963","29.762","0.41686","5"],
    [20601,"HCEP03730560","2024-04-29 22:15:00","9.5406","3.18967","27.961","4.132","7.43","1.437","5.816","0.17","0.51","29.0988","4.61727","43.65","0","SATNPRO1963","29.62","0.4149","5"],
    [20602,"HCEP03730560","2024-04-29 22:30:00","9.5405","3.18979","27.97","4.11","7.43","1.494","6.193","0.25","0.47","29.1002","4.61747","43.41","0","SATNPRO1963","29.58","0.41432","5"],
    [20603,"HCEP03730560","2024-04-29 22:45:00","9.5407","3.18984","27.965","4.102","7.43","1.374","5.721","0.21","0.96","29.1004","4.6175","43.33","0","SATNPRO1963","29.542","0.41378","5"],
    [20604,"HCEP03730560","2024-04-29 23:00:00","9.5422","3.18982","27.958","4.089","7.43","1.426","6.031","0.14","0.48","29.0991","4.61728","43.19","0","SATNPRO1963","29.776","0.41704","5"],
    [20605,"HCEP03730560","2024-04-29 23:15:00","9.5427","3.18977","27.978","4.107","7.43","1.331","4.775","0.14","0.23","29.0981","4.61714","43.38","0","SATNPRO1963","29.642","0.4152","5"],
    [20606,"HCEP03730560","2024-04-29 23:30:00","9.5425","3.1898","27.891","4.092","7.43","1.336","4.867","0.09","0.24","29.0987","4.61721","43.22","0","SATNPRO1963","29.488","0.41304","5"],
    [20607,"HCEP03730560","2024-04-29 23:45:00","9.5425","3.18973","27.834","4.102","7.43","1.215","4.768","0.1","0.21","29.098","4.61711","43.33","0","SATNPRO1963","29.508","0.41332","5"],
    [20608,"HCEP03730560","2024-04-30 00:00:00","9.5428","3.18969","27.796","4.123","7.43","2.693","44.564","2.36","23.19","29.0974","4.61702","43.55","0","SATNPRO1963","29.516000000000002","0.41342","5"],
    [20609,"HCEP03730560","2024-04-30 00:15:00","9.5429","3.18972","27.733","4.112","7.43","9.557","307.131","2.35","100.96","29.0976","4.61705","43.43","0","SATNPRO1963","29.676000000000002","0.41568","5"],
    [20610,"HCEP03730560","2024-04-30 00:30:00","9.5429","3.1897","27.691","4.112","7.43","1.257","4.101","0.11","0.28","29.0974","4.61701","43.43","0","SATNPRO1963","29.386","0.41158","5"],
    [20611,"HCEP03730560","2024-04-30 00:45:00","9.541","3.18975","27.543","4.077","7.43","10.318","245.422","3.16","112.38","29.0995","4.61734","43.06","0","SATNPRO1963","29.598","0.41456","5"],
    [20612,"HCEP03730560","2024-04-30 01:00:00","9.5396","3.18949","27.49","4.094","7.43","1.366","5.881","0.09","0.38","29.0981","4.61716","43.24","0","SATNPRO1963","29.39","0.41166","5"],
    [20613,"HCEP03730560","2024-04-30 01:15:00","9.5359","3.18889","27.447","4.105","7.43","1.331","5.802","0.11","0.4","29.095","4.61677","43.35","0","SATNPRO1963","29.29","0.41028","5"],
    [20614,"HCEP03730560","2024-04-30 01:30:00","9.5344","3.18836","27.378","4.208","7.43","1.317","5.314","0.07","0.23","29.0909","4.61621","44.44","0","SATNPRO1963","29.404","0.4119","5"],
    [20615,"HCEP03730560","2024-04-30 01:45:00","9.5349","3.18787","27.343","4.265","7.44","1.333","4.972","0.1","0.28","29.0855","4.61542","45.03","0","SATNPRO1963","29.288","0.41022","5"],
    [20616,"HCEP03730560","2024-04-30 02:00:00","9.5346","3.18709","27.276","4.348","7.45","1.312","4.035","0.1","0.2","29.0779","4.61434","45.92","0","SATNPRO1963","29.078","0.4073","5"],
    [20617,"HCEP03730560","2024-04-30 02:15:00","9.5361","3.18769","27.191","4.3","7.45","1.383","6.494","0.12","0.66","29.0829","4.61502","45.41","0","SATNPRO1963","29.22","0.40928","5"],
    [20618,"HCEP03730560","2024-04-30 02:30:00","9.536","3.18861","27.17","4.157","7.44","1.392","5.916","0.07","0.18","29.0922","4.61636","43.9","0","SATNPRO1963","29.054","0.40698","5"],
    [20619,"HCEP03730560","2024-04-30 02:45:00","9.5386","3.18693","27.103","4.284","7.44","1.502","7.352","0.13","3.18","29.0732","4.61358","45.24","0","SATNPRO1963","29.150000000000002","0.40834","5"],
    [20620,"HCEP03730560","2024-04-30 03:00:00","9.539","3.18648","27.029","4.399","7.45","1.443","60.327","0.17","16.1","29.0684","4.61288","46.45","0","SATNPRO1963","29.24","0.40956","5"],
    [20621,"HCEP03730560","2024-04-30 03:15:00","9.5364","3.18735","26.945","4.362","7.45","1.362","21.658","0.11","21.84","29.0792","4.61448","46.06","0","SATNPRO1963","29.226","0.40938","5"],
    [20622,"HCEP03730560","2024-04-30 03:30:00","9.5346","3.18845","26.902","4.221","7.44","1.415","5.652","0.13","0.59","29.0918","4.61631","44.57","0","SATNPRO1963","29.082","0.40736","5"],
    [20623,"HCEP03730560","2024-04-30 03:45:00","9.5332","3.18853","26.849","4.151","7.44","1.629","13.404","0.3","8.67","29.0938","4.61662","43.84","0","SATNPRO1963","29.221999999999998","0.40934","5"],
    [20624,"HCEP03730560","2024-04-30 04:00:00","9.5313","3.18835","26.869","4.199","7.44","1.515","24.313","0.13","20.52","29.0935","4.61661","44.34","0","SATNPRO1963","29.504","0.41328","5"],
    [20625,"HCEP03730560","2024-04-30 04:15:00","9.5302","3.18719","26.898","4.373","7.45","1.198","4.004","0.1","0.29","29.0826","4.61507","46.18","0","SATNPRO1963","29.494","0.4131","5"],
    [20626,"HCEP03730560","2024-04-30 04:30:00","9.536","3.18707","26.865","4.425","7.45","1.15","3.344","0.12","0.28","29.0767","4.61412","46.72","0","SATNPRO1963","29.492","0.4131","5"],
    [20627,"HCEP03730560","2024-04-30 04:45:00","9.5344","3.18727","26.905","4.415","7.45","1.183","4.269","0.1","0.49","29.0801","4.61463","46.62","0","SATNPRO1963","29.54","0.41376","5"],
    [20628,"HCEP03730560","2024-04-30 05:00:00","9.5314","3.18826","26.896","4.371","7.45","1.274","4.763","0.12","0.22","29.0925","4.61646","46.16","0","SATNPRO1963","29.496","0.41312","5"],
    [20629,"HCEP03730560","2024-04-30 05:15:00","9.5421","3.18581","26.915","4.538","7.46","1.125","3.469","0.18","0.76","29.0591","4.61149","47.92","0","SATNPRO1963","29.404","0.41184","5"],
    [20630,"HCEP03730560","2024-04-30 05:30:00","9.5375","3.18708","26.919","4.44","7.46","1.294","4.597","0.1","0.28","29.0756","4.61393","46.89","0","SATNPRO1963","29.29","0.41028","5"],
    [20631,"HCEP03730560","2024-04-30 05:45:00","9.5377","3.1871","26.942","4.306","7.45","1.32","4.868","0.13","0.19","29.0757","4.61394","45.47","0","SATNPRO1963","29.451999999999998","0.41252","5"],
    [20632,"HCEP03730560","2024-04-30 06:00:00","9.5376","3.18713","26.96","4.286","7.45","1.442","5.61","0.13","0.3","29.076","4.61399","45.26","0","SATNPRO1963","29.093999999999998","0.4075","5"],
    [20633,"HCEP03730560","2024-04-30 06:15:00","9.5401","3.18483","27.004","4.399","7.45","1.35","5.318","0.14","0.55","29.0507","4.61032","46.45","0","SATNPRO1963","29.15","0.40828","5"],
    [20634,"HCEP03730560","2024-04-30 06:30:00","9.5368","3.18664","26.99","4.385","7.45","1.412","5.836","0.12","0.48","29.0718","4.6134","46.31","0","SATNPRO1963","29.208","0.40914","5"],
    [20635,"HCEP03730560","2024-04-30 06:45:00","9.5335","3.18867","27.01","4.251","7.45","1.324","4.791","0.12","0.27","29.0949","4.61678","44.89","0","SATNPRO1963","29.602","0.41464","5"],
    [20636,"HCEP03730560","2024-04-30 07:00:00","9.5322","3.18996","26.952","4.115","7.44","1.376","4.77","0.12","0.23","29.109","4.61882","43.46","0","SATNPRO1963","29.622","0.41492","5"],
    [20637,"HCEP03730560","2024-04-30 07:15:00","9.5326","3.19028","26.993","4.069","7.43","1.289","4.563","0.1","0.25","29.1119","4.61923","42.97","0","SATNPRO1963","29.64","0.41518","5"],
    [20638,"HCEP03730560","2024-04-30 07:30:00","9.5319","3.19033","27.032","4.054","7.43","1.352","5.146","0.1","0.4","29.1129","4.61939","42.81","0","SATNPRO1963","29.66","0.41544","5"],
    [20639,"HCEP03730560","2024-04-30 07:45:00","9.5322","3.19035","27.061","4.036","7.42","1.36","5.041","0.14","0.28","29.1128","4.61938","42.62","0","SATNPRO1963","29.468","0.41276","5"],
    [20640,"HCEP03730560","2024-04-30 08:00:00","9.5329","3.19041","27.047","4.017","7.42","1.347","4.971","0.11","0.3","29.113","4.61938","42.42","0","SATNPRO1963","29.308","0.4105","5"],
    [20641,"HCEP03730560","2024-04-30 08:15:00","9.5321","3.1905","27.045","4.026","7.42","1.456","5.627","0.15","0.37","29.1145","4.61961","42.52","0","SATNPRO1963","29.568","0.4141","5"],
    [20642,"HCEP03730560","2024-04-30 08:30:00","9.5293","3.19057","27.009","4.095","7.42","2.245","11.224","1.37","8.18","29.1174","4.62008","43.24","0","SATNPRO1963","29.848","0.41806","5"],
    [20643,"HCEP03730560","2024-04-30 08:45:00","9.5308","3.19062","26.973","4.07","7.42","1.582","10.648","0.39","8.66","29.1168","4.61997","42.99","0","SATNPRO1963","29.484","0.41296","5"],
    [20644,"HCEP03730560","2024-04-30 09:00:00","9.5288","3.19073","26.922","4.062","7.42","1.429","7.214","0.13","6.05","29.1195","4.62039","42.9","0","SATNPRO1963","29.444","0.41246","5"],
    [20645,"HCEP03730560","2024-04-30 09:15:00","9.5207","3.19099","26.905","4.042","7.42","1.704","25.124","0.31","19.88","29.1288","4.62186","42.68","0","SATNPRO1963","29.732","0.41646","5"],
    [20646,"HCEP03730560","2024-04-30 09:30:00","9.5167","3.19125","26.838","4.065","7.42","2.058","43.915","0.56","18.7","29.1346","4.62276","42.92","0","SATNPRO1963","29.816","0.4176","5"],
    [20647,"HCEP03730560","2024-04-30 09:45:00","9.5111","3.1914","26.788","4.106","7.42","1.537","5.028","0.17","0.37","29.1407","4.62372","43.35","0","SATNPRO1963","29.928","0.4192","5"],
    [20648,"HCEP03730560","2024-04-30 10:00:00","9.506","3.19154","26.715","4.156","7.43","1.65","5.23","0.23","0.34","29.1463","4.62462","43.87","0","SATNPRO1963","29.87","0.41836","5"],
    [20649,"HCEP03730560","2024-04-30 10:15:00","9.4809","3.19144","26.605","4.414","7.44","1.551","4.884","0.18","0.34","29.1657","4.62784","46.58","0","SATNPRO1963","30.526","0.4276","5"],
    [20650,"HCEP03730560","2024-04-30 10:30:00","9.4772","3.19145","26.514","4.535","7.45","1.575","5.186","0.19","0.62","29.1689","4.62836","47.86","0","SATNPRO1963","30.36","0.42524","5"],
    [20651,"HCEP03730560","2024-04-30 10:45:00","9.4645","3.19139","26.397","4.684","7.46","1.918","30.007","0.18","16.64","29.1786","4.62996","49.41","0","SATNPRO1963","30.592","0.4285","5"],
    [20652,"HCEP03730560","2024-04-30 11:00:00","9.4564","3.19114","26.269","4.828","7.47","1.444","4.231","0.22","0.29","29.1828","4.6307","50.93","0","SATNPRO1963","30.704","0.43004","5"],
    [20653,"HCEP03730560","2024-04-30 11:15:00","9.453","3.19105","26.129","4.905","7.48","1.356","4.117","0.19","0.19","29.1846","4.63101","51.73","0","SATNPRO1963","30.89","0.43266","5"],
    [20654,"HCEP03730560","2024-04-30 11:30:00","9.4502","3.19092","25.982","4.954","7.49","1.442","4.586","0.22","0.26","29.1857","4.63121","52.25","0","SATNPRO1963","30.89","0.43264","5"],
    [20655,"HCEP03730560","2024-04-30 11:45:00","9.4476","3.19072","25.833","5.013","7.49","1.236","3.561","0.21","0.18","29.1858","4.63126","52.86","0","SATNPRO1963","31.012","0.4344","5"],
    [20656,"HCEP03730560","2024-04-30 12:00:00","9.4498","3.19069","25.653","5.022","7.5","1.39","4.122","0.51","0.36","29.1838","4.63093","52.96","0","SATNPRO1963","30.928","0.43318","5"],
    [20657,"HCEP03730560","2024-04-30 12:15:00","9.4473","3.1906","25.501","5.04","7.5","1.251","4.287","0.18","0.3","29.185","4.63113","53.15","0","SATNPRO1963","30.976","0.43388","5"],
    [20658,"HCEP03730560","2024-04-30 12:30:00","9.4462","3.19047","25.333","5.067","7.5","1.256","4.195","0.2","0.4","29.1847","4.63109","53.44","0","SATNPRO1963","31.186","0.43678","5"],
    [20659,"HCEP03730560","2024-04-30 12:45:00","9.4439","3.19038","25.158","5.098","7.5","1.213","3.873","0.19","0.3","29.1858","4.63128","53.76","0","SATNPRO1963","31.252","0.4377","5"],
    [20660,"HCEP03730560","2024-04-30 13:00:00","9.4457","3.19046","24.998","5.08","7.5","1.314","3.971","0.26","0.22","29.185","4.63113","53.57","0","SATNPRO1963","30.964","0.4337","5"],
    [20661,"HCEP03730560","2024-04-30 13:15:00","9.4473","3.19035","24.84","5.062","7.5","1.376","5.305","0.44","1.5","29.1827","4.63077","53.39","0","SATNPRO1963","31.132","0.43606","5"],
    [20662,"HCEP03730560","2024-04-30 13:30:00","9.4498","3.19043","24.687","5.048","7.5","1.206","4.627","0.2","0.57","29.1816","4.63055","53.24","0","SATNPRO1963","30.864","0.43228","5"],
    [20663,"HCEP03730560","2024-04-30 13:45:00","9.4555","3.19051","24.58","4.98","7.5","1.207","4.565","0.15","0.32","29.1778","4.6299","52.53","0","SATNPRO1963","30.916","0.43302","5"],
    [20664,"HCEP03730560","2024-04-30 14:00:00","9.4704","3.19021","24.467","4.853","7.49","1.216","3.05","0.17","0.18","29.1627","4.62747","51.2","0","SATNPRO1963","30.846","0.43204","5"],
    [20665,"HCEP03730560","2024-04-30 14:15:00","9.4688","3.19034","24.451","4.82","7.49","1.133","4.666","0.16","0.5","29.1653","4.62787","50.85","0","SATNPRO1963","30.854","0.43222","5"],
    [20666,"HCEP03730560","2024-04-30 14:30:00","9.4699","3.19057","24.416","4.775","7.48","1.218","3.621","0.13","0.16","29.1667","4.62805","50.38","0","SATNPRO1963","30.858","0.4322","5"],
    [20667,"HCEP03730560","2024-04-30 14:45:00","9.4744","3.19063","24.372","4.7","7.48","1.182","4.397","0.11","0.22","29.1637","4.62753","49.59","0","SATNPRO1963","30.694","0.4299","5"],
    [20668,"HCEP03730560","2024-04-30 15:00:00","9.4753","3.19053","24.409","4.667","7.47","1.259","4.677","0.13","0.21","29.1619","4.62727","49.24","0","SATNPRO1963","30.554","0.42796","5"],
    [20669,"HCEP03730560","2024-04-30 15:15:00","9.4799","3.19059","24.38","4.617","7.47","1.396","6.596","0.18","1.52","29.1588","4.62673","48.71","0","SATNPRO1963","30.382","0.42556","5"],
    [20670,"HCEP03730560","2024-04-30 15:30:00","9.4823","3.19068","24.437","4.549","7.46","1.302","5.424","0.13","0.53","29.1578","4.62655","48.01","0","SATNPRO1963","30.276","0.42404","5"],
    [20671,"HCEP03730560","2024-04-30 15:45:00","9.4835","3.19072","24.448","4.521","7.46","1.248","5.078","0.14","0.27","29.1572","4.62644","47.71","0","SATNPRO1963","30.468","0.42672","5"],
    [20672,"HCEP03730560","2024-04-30 16:00:00","9.4812","3.19078","24.506","4.52","7.46","1.296","5.467","0.11","0.25","29.1596","4.62683","47.7","0","SATNPRO1963","30.36","0.42522","5"],
    [20673,"HCEP03730560","2024-04-30 16:15:00","9.4792","3.19072","24.547","4.545","7.46","1.152","5.121","0.08","0.2","29.1606","4.62701","47.96","0","SATNPRO1963","30.368","0.42532","5"],
    [20674,"HCEP03730560","2024-04-30 16:30:00","9.4736","3.19095","24.615","4.581","7.46","1.265","5.207","0.18","0.27","29.1676","4.62812","48.34","0","SATNPRO1963","30.22","0.42332","5"],
    [20675,"HCEP03730560","2024-04-30 16:45:00","9.467","3.19133","24.706","4.618","7.46","1.227","4.977","0.14","0.27","29.1766","4.62953","48.72","0","SATNPRO1963","30.33","0.42482","5"],
    [20676,"HCEP03730560","2024-04-30 17:00:00","9.4716","3.19116","24.842","4.616","7.47","1.217","4.284","0.14","0.27","29.1712","4.62868","48.7","0","SATNPRO1963","30.528","0.42762","5"],
    [20677,"HCEP03730560","2024-04-30 17:15:00","9.4558","3.19097","24.986","4.784","7.47","1.103","3.815","0.12","0.36","29.182","4.63052","50.46","0","SATNPRO1963","30.836000000000002","0.43188","5"],
    [20678,"HCEP03730560","2024-04-30 17:30:00","9.4535","3.19107","25.103","4.867","7.48","1.237","4.198","0.13","0.24","29.1848","4.63098","51.34","0","SATNPRO1963","30.83","0.43186","5"],
    [20679,"HCEP03730560","2024-04-30 17:45:00","9.4541","3.19118","25.223","4.859","7.49","1.197","4.776","0.17","1.66","29.1855","4.63107","51.25","0","SATNPRO1963","30.816","0.43162","5"],
    [20680,"HCEP03730560","2024-04-30 18:00:00","9.4544","3.19112","25.351","4.868","7.49","1.161","3.743","0.09","0.2","29.1845","4.63093","51.35","0","SATNPRO1963","30.759999999999998","0.43082","5"],
    [20681,"HCEP03730560","2024-04-30 18:15:00","9.4528","3.19129","25.505","4.853","7.49","1.144","4.228","0.09","0.28","29.1875","4.63139","51.19","0","SATNPRO1963","30.7","0.43004","5"],
    [20682,"HCEP03730560","2024-04-30 18:30:00","9.4521","3.19132","25.673","4.862","7.49","1.214","4.069","0.12","0.33","29.1883","4.63153","51.29","0","SATNPRO1963","30.796","0.43136","5"],
    [20683,"HCEP03730560","2024-04-30 18:45:00","9.454","3.19127","25.846","4.857","7.49","1.103","4.286","0.07","1.75","29.1862","4.63121","51.23","0","SATNPRO1963","30.648","0.42926","5"],
    [20684,"HCEP03730560","2024-04-30 19:00:00","9.4566","3.19144","26.051","4.822","7.49","1.24","4.251","0.11","0.39","29.1857","4.63111","50.87","0","SATNPRO1963","30.802","0.43146","5"],
    [20685,"HCEP03730560","2024-04-30 19:15:00","9.4587","3.19144","26.284","4.785","7.49","1.195","4.548","0.13","0.43","29.1839","4.63082","50.47","0","SATNPRO1963","30.439999999999998","0.42636","5"],
    [20686,"HCEP03730560","2024-04-30 19:30:00","9.4605","3.19134","26.487","4.767","7.49","1.18","3.896","0.17","0.57","29.1814","4.63043","50.29","0","SATNPRO1963","30.546","0.42786","5"],
    [20687,"HCEP03730560","2024-04-30 19:45:00","9.472","3.1913","26.657","4.659","7.48","1.142","3.646","0.19","0.85","29.1715","4.62882","49.16","1","SATNPRO1963","30.712","0.43012","5"],
    [20688,"HCEP03730560","2024-04-30 20:00:00","9.4678","3.19133","26.849","4.658","7.48","1.112","3.602","0.1","0.44","29.1752","4.62944","49.15","0","SATNPRO1963","30.602","0.42866","5"],
    [20689,"HCEP03730560","2024-04-30 20:15:00","9.468","3.19124","27.011","4.695","7.48","1.05","3.389","0.17","0.26","29.174","4.62927","49.53","0","SATNPRO1963","30.72","0.43028","5"],
    [20690,"HCEP03730560","2024-04-30 20:30:00","9.4611","3.19129","27.157","4.732","7.48","1.023","3.307","0.1","0.19","29.18","4.63027","49.92","0","SATNPRO1963","30.718","0.43028","5"],
    [20691,"HCEP03730560","2024-04-30 20:45:00","9.4661","3.19142","27.301","4.731","7.48","1.051","3.347","0.14","0.39","29.1773","4.6298","49.91","0","SATNPRO1963","30.614","0.4288","5"],
    [20692,"HCEP03730560","2024-04-30 21:00:00","9.4668","3.19155","27.43","4.689","7.48","1.136","3.323","0.12","0.35","29.178","4.62989","49.47","0","SATNPRO1963","30.688","0.42984","5"],
    [20693,"HCEP03730560","2024-04-30 21:15:00","9.4687","3.19163","27.535","4.643","7.48","1.113","3.096","0.15","0.29","29.1772","4.62975","48.99","0","SATNPRO1963","30.682","0.42978","5"],
    [20694,"HCEP03730560","2024-04-30 21:30:00","9.4935","3.19145","27.631","4.514","7.47","1.321","2.965","0.35","0.21","29.1551","4.62615","47.64","0","SATNPRO1963","30.434","0.42628","5"],
    [20695,"HCEP03730560","2024-04-30 21:45:00","9.4814","3.19144","27.68","4.52","7.47","1.079","3.096","0.14","0.27","29.1649","4.62777","47.7","0","SATNPRO1963","30.438","0.42636","5"],
    [20696,"HCEP03730560","2024-04-30 22:00:00","9.4945","3.19153","27.732","4.462","7.47","1.077","3.28","0.1","0.15","29.1552","4.62615","47.1","0","SATNPRO1963","30.44","0.42638","5"],
    [20697,"HCEP03730560","2024-04-30 22:15:00","9.484","3.19161","27.739","4.522","7.47","2.729","39.078","1.95","21.44","29.1644","4.62767","47.72","0","SATNPRO1963","30.268","0.42396","5"],
    [20698,"HCEP03730560","2024-04-30 22:30:00","9.4791","3.19156","27.833","4.571","7.47","2.101","28.429","0.19","15.21","29.1679","4.62826","48.24","0","SATNPRO1963","30.448","0.42646","5"],
    [20699,"HCEP03730560","2024-04-30 22:45:00","9.4949","3.19155","27.9","4.471","7.46","2.345","77.023","0.88","20.98","29.155","4.62613","47.19","0","SATNPRO1963","30.33","0.42482","5"],
    [20700,"HCEP03730560","2024-04-30 23:00:00","9.4869","3.19152","27.902","4.474","7.46","1.071","2.826","0.18","0.12","29.1611","4.62714","47.22","0","SATNPRO1963","30.3","0.42442","5"],
    [20701,"HCEP03730560","2024-04-30 23:15:00","9.4863","3.19158","27.886","4.463","7.46","1.027","3.447","0.1","0.76","29.1622","4.62731","47.1","0","SATNPRO1963","30.414","0.426","5"],
    [20702,"HCEP03730560","2024-04-30 23:30:00","9.4872","3.19158","27.918","4.384","7.46","1.091","3.343","0.12","0.16","29.1615","4.6272","46.26","0","SATNPRO1963","30.128","0.42196","5"],
    [20703,"HCEP03730560","2024-04-30 23:45:00","9.5","3.1907","27.919","4.29","7.45","1.124","3.806","0.11","0.37","29.1422","4.6242","45.29","0","SATNPRO1963","29.922","0.41914","5"],
    [20704,"HCEP03730560","2024-05-01 00:00:00","9.4878","3.19108","27.899","4.371","7.45","1.095","3.731","0.1","0.24","29.156","4.6264","46.13","0","SATNPRO1963","29.914","0.41898","5"],
    [20705,"HCEP03730560","2024-05-01 00:15:00","9.4762","3.19146","27.851","4.444","7.46","1.105","3.941","0.18","0.17","29.1693","4.6285","46.89","0","SATNPRO1963","30.112000000000002","0.4218","5"],
    [20706,"HCEP03730560","2024-05-01 00:30:00","9.4678","3.19175","27.824","4.528","7.46","1.143","4.451","0.12","0.18","29.1791","4.63006","47.78","0","SATNPRO1963","30.204","0.42306","5"],
    [20707,"HCEP03730560","2024-05-01 00:45:00","9.4736","3.19185","27.781","4.482","7.46","1.072","4.671","0.09","0.16","29.1753","4.62941","47.3","0","SATNPRO1963","30.144000000000002","0.42224","5"],
    [20708,"HCEP03730560","2024-05-01 01:00:00","9.4844","3.1915","27.765","4.365","7.46","1.211","5.062","0.17","0.19","29.163","4.62746","46.06","0","SATNPRO1963","29.698","0.41596","5"],
    [20709,"HCEP03730560","2024-05-01 01:15:00","9.4893","3.19134","27.667","4.27","7.45","1.181","4.732","0.14","0.26","29.1574","4.62656","45.07","0","SATNPRO1963","29.404","0.41186","5"],
    [20710,"HCEP03730560","2024-05-01 01:30:00","9.475","3.19187","27.6","4.353","7.45","1.161","5.101","0.11","0.27","29.1744","4.62924","45.94","0","SATNPRO1963","29.806","0.4175","5"],
    [20711,"HCEP03730560","2024-05-01 01:45:00","9.4801","3.1916","27.541","4.381","7.45","1.165","4.398","0.1","0.38","29.1676","4.62818","46.23","0","SATNPRO1963","30.018","0.42048","5"],
    [20712,"HCEP03730560","2024-05-01 02:00:00","9.4853","3.19137","27.459","4.353","7.45","1.241","4.846","0.16","1.16","29.1611","4.62714","45.94","0","SATNPRO1963","29.738","0.41654","5"],
    [20713,"HCEP03730560","2024-05-01 02:15:00","9.4968","3.19078","27.397","4.264","7.45","1.131","4.891","0.11","2.42","29.1457","4.62474","45","0","SATNPRO1963","29.308","0.41048","5"],
    [20714,"HCEP03730560","2024-05-01 02:30:00","9.4991","3.19059","27.321","4.231","7.44","1.188","4.065","0.19","0.19","29.1421","4.62417","44.66","0","SATNPRO1963","29.63","0.41502","5"],
    [20715,"HCEP03730560","2024-05-01 02:45:00","9.4994","3.19039","27.235","4.203","7.44","1.126","4.003","0.11","0.39","29.1398","4.62384","44.36","0","SATNPRO1963","29.602","0.41464","5"],
    [20716,"HCEP03730560","2024-05-01 03:00:00","9.5022","3.19006","27.149","4.215","7.44","1.104","4.168","0.12","0.36","29.1343","4.62298","44.49","0","SATNPRO1963","29.492","0.41312","5"],
    [20717,"HCEP03730560","2024-05-01 03:15:00","9.4961","3.19031","27.071","4.241","7.44","1.079","4.224","0.12","0.15","29.1418","4.62416","44.76","0","SATNPRO1963","29.316","0.4106","5"],
    [20718,"HCEP03730560","2024-05-01 03:30:00","9.5219","3.18665","26.987","4.376","7.45","1.042","3.499","0.17","0.22","29.0839","4.61541","46.19","0","SATNPRO1963","29.042","0.40676","5"],
    [20719,"HCEP03730560","2024-05-01 03:45:00","9.5255","3.18536","26.914","4.507","7.46","0.926","3.014","0.12","0.14","29.0681","4.61306","47.57","0","SATNPRO1963","29.178","0.4087","5"],
    [20720,"HCEP03730560","2024-05-01 04:00:00","9.5216","3.18571","26.845","4.552","7.46","0.947","3.448","0.1","0.72","29.0748","4.61409","48.06","0","SATNPRO1963","29.438","0.41236","5"],
    [20721,"HCEP03730560","2024-05-01 04:15:00","9.5182","3.18643","26.774","4.546","7.47","0.955","3.102","0.1","0.2","29.0848","4.61558","47.99","0","SATNPRO1963","29.472","0.4128","5"],
    [20722,"HCEP03730560","2024-05-01 04:30:00","9.511","3.18727","26.748","4.526","7.46","0.924","3.223","0.08","0.3","29.0991","4.61776","47.77","0","SATNPRO1963","29.582","0.41434","5"],
    [20723,"HCEP03730560","2024-05-01 04:45:00","9.5032","3.1881","26.688","4.518","7.46","0.974","3.312","0.1","0.29","29.1139","4.62001","47.68","0","SATNPRO1963","29.61","0.41472","5"],
    [20724,"HCEP03730560","2024-05-01 05:00:00","9.4936","3.19022","26.679","4.285","7.45","1.161","7.163","0.13","0.8","29.1431","4.62437","45.23","1","SATNPRO1963","29.32","0.41066","5"],
    [20725,"HCEP03730560","2024-05-01 05:15:00","9.4865","3.19048","26.649","4.279","7.45","1.101","6.494","0.09","0.45","29.1514","4.62569","45.15","1","SATNPRO1963","29.586000000000002","0.41442","5"],
    [20726,"HCEP03730560","2024-05-01 05:30:00","9.4879","3.18959","26.647","4.404","7.45","1.053","5.336","0.1","0.4","29.1413","4.62422","46.48","1","SATNPRO1963","30.009999999999998","0.4204","5"],
    [20727,"HCEP03730560","2024-05-01 05:45:00","9.4831","3.18958","26.662","4.54","7.46","0.939","3.659","0.1","0.57","29.1451","4.62484","47.91","1","SATNPRO1963","30.122","0.4219","5"],
    [20728,"HCEP03730560","2024-05-01 06:00:00","9.4804","3.18979","26.673","4.587","7.46","0.986","4.232","0.08","0.24","29.1495","4.62552","48.4","1","SATNPRO1963","30.04","0.42078","5"],
    [20729,"NA","2024-05-01 06:15:00",null,null,null,null,null,null,null,null,null,null,null,null,null,"SATNPRO1963","30.02","0.42048","5"],
    [20730,"NA","2024-05-01 06:30:00",null,null,null,null,null,null,null,null,null,null,null,null,null,"SATNPRO1963","29.948","0.4195","5"],
    [20731,"NA","2024-05-01 06:45:00",null,null,null,null,null,null,null,null,null,null,null,null,null,"SATNPRO1963","30.086","0.42144","5"],
    [20732,"NA","2024-05-01 07:00:00",null,null,null,null,null,null,null,null,null,null,null,null,null,"SATNPRO1963","30.396","0.42574","5"],
    [20733,"NA","2024-05-01 07:15:00",null,null,null,null,null,null,null,null,null,null,null,null,null,"SATNPRO1963","30.546","0.42784","5"],
    [20734,"NA","2024-05-01 07:30:00",null,null,null,null,null,null,null,null,null,null,null,null,null,"SATNPRO1963","30.572","0.42822","5"],
    [20735,"NA","2024-05-01 07:45:00",null,null,null,null,null,null,null,null,null,null,null,null,null,"SATNPRO1963","30.336","0.42492","5"],
    [20736,"NA","2024-05-01 08:15:00",null,null,null,null,null,null,null,null,null,null,null,null,null,"SATNPRO1963","30.544","0.42778","5"],
    [20737,"NA","2024-05-01 08:30:00",null,null,null,null,null,null,null,null,null,null,null,null,null,"SATNPRO1963","30.404","0.42582","5"],
    [20738,"NA","2024-05-01 08:45:00",null,null,null,null,null,null,null,null,null,null,null,null,null,"SATNPRO1963","30.686","0.4298","5"],
    [20739,"NA","2024-05-01 09:00:00",null,null,null,null,null,null,null,null,null,null,null,null,null,"SATNPRO1963","30.882","0.43252","5"],
    [20740,"NA","2024-05-01 09:15:00",null,null,null,null,null,null,null,null,null,null,null,null,null,"SATNPRO1963","30.66","0.42946","5"],
    [20741,"NA","2024-05-01 09:30:00",null,null,null,null,null,null,null,null,null,null,null,null,null,"SATNPRO1963","30.558","0.42802","5"],
    [20742,"NA","2024-05-01 09:45:00",null,null,null,null,null,null,null,null,null,null,null,null,null,"SATNPRO1963","30.364","0.4253","5"],
    [20743,"NA","2024-05-01 10:00:00",null,null,null,null,null,null,null,null,null,null,null,null,null,"SATNPRO1963","30.338","0.42496","5"],
    [20744,"NA","2024-05-01 10:15:00",null,null,null,null,null,null,null,null,null,null,null,null,null,"SATNPRO1963","30.49","0.42704","5"],
    [20745,"NA","2024-05-01 10:30:00",null,null,null,null,null,null,null,null,null,null,null,null,null,"SATNPRO1963","30.628","0.429","5"],
    [20746,"NA","2024-05-01 10:45:00",null,null,null,null,null,null,null,null,null,null,null,null,null,"SATNPRO1963","30.772000000000002","0.43104","5"],
    [20747,"NA","2024-05-01 11:00:00",null,null,null,null,null,null,null,null,null,null,null,null,null,"SATNPRO1963","30.584","0.42834","5"],
    [20748,"NA","2024-05-01 11:15:00",null,null,null,null,null,null,null,null,null,null,null,null,null,"SATNPRO1963","30.834","0.43186","5"],
    [20749,"NA","2024-05-01 11:30:00",null,null,null,null,null,null,null,null,null,null,null,null,null,"SATNPRO1963","30.64","0.42916","5"],
    [20750,"NA","2024-05-01 11:45:00",null,null,null,null,null,null,null,null,null,null,null,null,null,"SATNPRO1963","30.576","0.42826","5"],
    [20751,"NA","2024-05-01 12:00:00",null,null,null,null,null,null,null,null,null,null,null,null,null,"SATNPRO1963","30.798","0.4314","5"],
    [20752,"NA","2024-05-01 12:15:00",null,null,null,null,null,null,null,null,null,null,null,null,null,"SATNPRO1963","30.524","0.42754","5"],
    [20753,"NA","2024-05-01 12:30:00",null,null,null,null,null,null,null,null,null,null,null,null,null,"SATNPRO1963","30.784","0.4312","5"],
    [20754,"NA","2024-05-01 12:45:00",null,null,null,null,null,null,null,null,null,null,null,null,null,"SATNPRO1963","30.72","0.43034","5"],
    [20755,"NA","2024-05-01 13:00:00",null,null,null,null,null,null,null,null,null,null,null,null,null,"SATNPRO1963","30.762","0.43088","5"],
    [20756,"NA","2024-05-01 13:15:00",null,null,null,null,null,null,null,null,null,null,null,null,null,"SATNPRO1963","30.808","0.43156","5"],
    [20757,"NA","2024-05-01 13:30:00",null,null,null,null,null,null,null,null,null,null,null,null,null,"SATNPRO1963","30.892","0.43268","5"],
    [20758,"NA","2024-05-01 13:45:00",null,null,null,null,null,null,null,null,null,null,null,null,null,"SATNPRO1963","30.89","0.43266","5"],
    [20759,"NA","2024-05-01 14:00:00",null,null,null,null,null,null,null,null,null,null,null,null,null,"SATNPRO1963","30.82","0.43168","5"],
    [20760,"NA","2024-05-01 14:15:00",null,null,null,null,null,null,null,null,null,null,null,null,null,"SATNPRO1963","30.766","0.43094","5"],
    [20761,"NA","2024-05-01 14:30:00",null,null,null,null,null,null,null,null,null,null,null,null,null,"SATNPRO1963","30.638","0.4291","5"],
    [20762,"NA","2024-05-01 14:45:00",null,null,null,null,null,null,null,null,null,null,null,null,null,"SATNPRO1963","30.562","0.42812","5"],
    [20763,"NA","2024-05-01 15:00:00",null,null,null,null,null,null,null,null,null,null,null,null,null,"SATNPRO1963","30.836","0.43188","5"],
    [20764,"NA","2024-05-01 15:15:00",null,null,null,null,null,null,null,null,null,null,null,null,null,"SATNPRO1963","30.662","0.42946","5"],
    [20765,"NA","2024-05-01 15:30:00",null,null,null,null,null,null,null,null,null,null,null,null,null,"SATNPRO1963","30.602","0.42864","5"],
    [20766,"NA","2024-05-01 15:45:00",null,null,null,null,null,null,null,null,null,null,null,null,null,"SATNPRO1963","30.63","0.42906","5"],
    [20767,"NA","2024-05-01 16:00:00",null,null,null,null,null,null,null,null,null,null,null,null,null,"SATNPRO1963","30.708","0.43014","5"],
    [20768,"NA","2024-05-01 16:15:00",null,null,null,null,null,null,null,null,null,null,null,null,null,"SATNPRO1963","30.738","0.43052","5"],
    [20769,"NA","2024-05-01 16:30:00",null,null,null,null,null,null,null,null,null,null,null,null,null,"SATNPRO1963","30.532","0.42766","5"],
    [20770,"NA","2024-05-01 16:45:00",null,null,null,null,null,null,null,null,null,null,null,null,null,"SATNPRO1963","30.796","0.4313","5"],
    [20771,"NA","2024-05-01 17:00:00",null,null,null,null,null,null,null,null,null,null,null,null,null,"SATNPRO1963","30.248","0.4237","5"],
    [20772,"NA","2024-05-01 17:15:00",null,null,null,null,null,null,null,null,null,null,null,null,null,"SATNPRO1963","30.428","0.42616","5"],
    [20773,"NA","2024-05-01 17:30:00",null,null,null,null,null,null,null,null,null,null,null,null,null,"SATNPRO1963","30.598","0.42856","5"],
    [20774,"NA","2024-05-01 17:45:00",null,null,null,null,null,null,null,null,null,null,null,null,null,"SATNPRO1963","30.396","0.42574","5"],
    [20775,"NA","2024-05-01 18:00:00",null,null,null,null,null,null,null,null,null,null,null,null,null,"SATNPRO1963","30.392","0.4257","5"],
    [20776,"NA","2024-05-01 18:15:00",null,null,null,null,null,null,null,null,null,null,null,null,null,"SATNPRO1963","30.51","0.42734","5"],
    [20777,"NA","2024-05-01 18:30:00",null,null,null,null,null,null,null,null,null,null,null,null,null,"SATNPRO1963","30.562","0.4281","5"],
    [20778,"NA","2024-05-01 18:45:00",null,null,null,null,null,null,null,null,null,null,null,null,null,"SATNPRO1963","30.524","0.42758","5"],
    [20779,"NA","2024-05-01 19:00:00",null,null,null,null,null,null,null,null,null,null,null,null,null,"SATNPRO1963","30.556","0.428","5"],
    [20780,"NA","2024-05-01 19:15:00",null,null,null,null,null,null,null,null,null,null,null,null,null,"SATNPRO1963","30.416","0.42602","5"],
    [20781,"NA","2024-05-01 19:30:00",null,null,null,null,null,null,null,null,null,null,null,null,null,"SATNPRO1963","30.362000000000002","0.42526","5"],
    [20782,"NA","2024-05-01 19:45:00",null,null,null,null,null,null,null,null,null,null,null,null,null,"SATNPRO1963","30.342","0.42502","5"],
    [20783,"NA","2024-05-01 20:00:00",null,null,null,null,null,null,null,null,null,null,null,null,null,"SATNPRO1963","30.172","0.42264","5"],
    [20784,"NA","2024-05-01 20:15:00",null,null,null,null,null,null,null,null,null,null,null,null,null,"SATNPRO1963","29.994","0.42014","5"],
    [20785,"NA","2024-05-01 20:30:00",null,null,null,null,null,null,null,null,null,null,null,null,null,"SATNPRO1963","30.204","0.42308","5"],
    [20786,"NA","2024-05-01 20:45:00",null,null,null,null,null,null,null,null,null,null,null,null,null,"SATNPRO1963","29.972","0.41982","5"],
    [20787,"NA","2024-05-01 21:00:00",null,null,null,null,null,null,null,null,null,null,null,null,null,"SATNPRO1963","30.150000000000002","0.42232","5"],
    [20788,"NA","2024-05-01 21:15:00",null,null,null,null,null,null,null,null,null,null,null,null,null,"SATNPRO1963","30.312","0.42456","5"],
    [20789,"NA","2024-05-01 21:30:00",null,null,null,null,null,null,null,null,null,null,null,null,null,"SATNPRO1963","30.338","0.42492","5"],
    [20790,"NA","2024-05-01 21:45:00",null,null,null,null,null,null,null,null,null,null,null,null,null,"SATNPRO1963","29.972","0.41984","5"],
    [20791,"NA","2024-05-01 22:00:00",null,null,null,null,null,null,null,null,null,null,null,null,null,"SATNPRO1963","29.924","0.41916","5"],
    [20792,"NA","2024-05-01 22:15:00",null,null,null,null,null,null,null,null,null,null,null,null,null,"SATNPRO1963","30.102","0.42162","5"],
    [20793,"NA","2024-05-01 22:30:00",null,null,null,null,null,null,null,null,null,null,null,null,null,"SATNPRO1963","29.874000000000002","0.41842","5"],
    [20794,"NA","2024-05-01 22:45:00",null,null,null,null,null,null,null,null,null,null,null,null,null,"SATNPRO1963","29.716","0.41626","5"],
    [20795,"NA","2024-05-01 23:00:00",null,null,null,null,null,null,null,null,null,null,null,null,null,"SATNPRO1963","29.754","0.41678","5"],
    [20796,"NA","2024-05-01 23:15:00",null,null,null,null,null,null,null,null,null,null,null,null,null,"SATNPRO1963","29.913999999999998","0.41904","5"],
    [20797,"NA","2024-05-01 23:30:00",null,null,null,null,null,null,null,null,null,null,null,null,null,"SATNPRO1963","29.908","0.4189","5"],
    [20798,"NA","2024-05-01 23:45:00",null,null,null,null,null,null,null,null,null,null,null,null,null,"SATNPRO1963","29.982","0.41994","5"],
    [20799,"NA","2024-05-02 00:00:00",null,null,null,null,null,null,null,null,null,null,null,null,null,"SATNPRO1963","29.698","0.41598","5"],
    [20800,"NA","2024-05-02 00:15:00",null,null,null,null,null,null,null,null,null,null,null,null,null,"SATNPRO1963","30.174","0.42264","5"],
    [20801,"NA","2024-05-02 00:30:00",null,null,null,null,null,null,null,null,null,null,null,null,null,"SATNPRO1963","30.041999999999998","0.42082","5"],
    [20802,"NA","2024-05-02 00:45:00",null,null,null,null,null,null,null,null,null,null,null,null,null,"SATNPRO1963","30.186","0.4228","5"],
    [20803,"NA","2024-05-02 01:00:00",null,null,null,null,null,null,null,null,null,null,null,null,null,"SATNPRO1963","29.74","0.41654","5"],
    [20804,"NA","2024-05-02 01:15:00",null,null,null,null,null,null,null,null,null,null,null,null,null,"SATNPRO1963","30.136","0.4221","5"],
    [20805,"NA","2024-05-02 01:30:00",null,null,null,null,null,null,null,null,null,null,null,null,null,"SATNPRO1963","30.212","0.42316","5"],
    [20806,"NA","2024-05-02 01:45:00",null,null,null,null,null,null,null,null,null,null,null,null,null,"SATNPRO1963","29.887999999999998","0.41862","5"],
    [20807,"NA","2024-05-02 02:00:00",null,null,null,null,null,null,null,null,null,null,null,null,null,"SATNPRO1963","29.998","0.42016","5"],
    [20808,"NA","2024-05-02 02:15:00",null,null,null,null,null,null,null,null,null,null,null,null,null,"SATNPRO1963","30.092","0.4215","5"],
    [20809,"NA","2024-05-02 02:30:00",null,null,null,null,null,null,null,null,null,null,null,null,null,"SATNPRO1963","30.138","0.42212","5"],
    [20810,"NA","2024-05-02 02:45:00",null,null,null,null,null,null,null,null,null,null,null,null,null,"SATNPRO1963","29.898","0.41876","5"],
    [20811,"NA","2024-05-02 03:00:00",null,null,null,null,null,null,null,null,null,null,null,null,null,"SATNPRO1963","30.046","0.42088","5"],
    [20812,"NA","2024-05-02 03:15:00",null,null,null,null,null,null,null,null,null,null,null,null,null,"SATNPRO1963","30.212","0.42318","5"],
    [20813,"NA","2024-05-02 03:30:00",null,null,null,null,null,null,null,null,null,null,null,null,null,"SATNPRO1963","30.282","0.42414","5"],
    [20814,"NA","2024-05-02 03:45:00",null,null,null,null,null,null,null,null,null,null,null,null,null,"SATNPRO1963","30.026","0.42056","5"],
    [20815,"NA","2024-05-02 04:00:00",null,null,null,null,null,null,null,null,null,null,null,null,null,"SATNPRO1963","30.162","0.42248","5"],
    [20816,"NA","2024-05-02 04:15:00",null,null,null,null,null,null,null,null,null,null,null,null,null,"SATNPRO1963","29.76","0.41686","5"],
    [20817,"NA","2024-05-02 04:30:00",null,null,null,null,null,null,null,null,null,null,null,null,null,"SATNPRO1963","30.048","0.42088","5"],
    [20818,"NA","2024-05-02 04:45:00",null,null,null,null,null,null,null,null,null,null,null,null,null,"SATNPRO1963","30.09","0.42148","5"],
    [20819,"NA","2024-05-02 05:00:00",null,null,null,null,null,null,null,null,null,null,null,null,null,"SATNPRO1963","30.08","0.42132","5"],
    [20820,"NA","2024-05-02 05:15:00",null,null,null,null,null,null,null,null,null,null,null,null,null,"SATNPRO1963","30.01","0.42034","5"],
    [20821,"NA","2024-05-02 05:30:00",null,null,null,null,null,null,null,null,null,null,null,null,null,"SATNPRO1963","30.174","0.42266","5"],
    [20822,"NA","2024-05-02 05:45:00",null,null,null,null,null,null,null,null,null,null,null,null,null,"SATNPRO1963","30.096","0.42158","5"],
    [20823,"NA","2024-05-02 06:00:00",null,null,null,null,null,null,null,null,null,null,null,null,null,"SATNPRO1963","30.232","0.42344","5"],
    [20824,"NA","2024-05-02 06:15:00",null,null,null,null,null,null,null,null,null,null,null,null,null,"SATNPRO1963","30.32","0.42464","5"],
    [20825,"NA","2024-05-02 06:30:00",null,null,null,null,null,null,null,null,null,null,null,null,null,"SATNPRO1963","30.11","0.42174","5"],
    [20826,"NA","2024-05-02 06:45:00",null,null,null,null,null,null,null,null,null,null,null,null,null,"SATNPRO1963","30.028","0.42064","5"],
    [20827,"NA","2024-05-02 07:00:00",null,null,null,null,null,null,null,null,null,null,null,null,null,"SATNPRO1963","30.144","0.4222","5"],
    [20828,"NA","2024-05-02 07:15:00",null,null,null,null,null,null,null,null,null,null,null,null,null,"SATNPRO1963","30.136","0.42208","5"],
    [20829,"NA","2024-05-02 07:30:00",null,null,null,null,null,null,null,null,null,null,null,null,null,"SATNPRO1963","30.208000000000002","0.4231","5"],
    [20830,"NA","2024-05-02 07:45:00",null,null,null,null,null,null,null,null,null,null,null,null,null,"SATNPRO1963","30.15","0.42228","5"],
    [20831,"NA","2024-05-02 08:00:00",null,null,null,null,null,null,null,null,null,null,null,null,null,"SATNPRO1963","30.052","0.42094","5"],
    [20832,"NA","2024-05-02 08:15:00",null,null,null,null,null,null,null,null,null,null,null,null,null,"SATNPRO1963","30.192","0.42286","5"],
    [20833,"NA","2024-05-02 08:30:00",null,null,null,null,null,null,null,null,null,null,null,null,null,"SATNPRO1963","30.16","0.42246","5"],
    [20834,"NA","2024-05-02 08:45:00",null,null,null,null,null,null,null,null,null,null,null,null,null,"SATNPRO1963","30.454","0.42656","5"],
    [20835,"NA","2024-05-02 09:00:00",null,null,null,null,null,null,null,null,null,null,null,null,null,"SATNPRO1963","30.64","0.42918","5"],
    [20836,"NA","2024-05-02 09:15:00",null,null,null,null,null,null,null,null,null,null,null,null,null,"SATNPRO1963","30.892","0.43268","5"],
    [20837,"NA","2024-05-02 09:30:00",null,null,null,null,null,null,null,null,null,null,null,null,null,"SATNPRO1963","31.126","0.43598","5"],
    [20838,"NA","2024-05-02 09:45:00",null,null,null,null,null,null,null,null,null,null,null,null,null,"SATNPRO1963","31.014","0.43442","5"],
    [20839,"NA","2024-05-02 10:00:00",null,null,null,null,null,null,null,null,null,null,null,null,null,"SATNPRO1963","31.154","0.43636","5"],
    [20840,"NA","2024-05-02 10:15:00",null,null,null,null,null,null,null,null,null,null,null,null,null,"SATNPRO1963","30.926","0.43316","5"],
    [20841,"NA","2024-05-02 10:30:00",null,null,null,null,null,null,null,null,null,null,null,null,null,"SATNPRO1963","31.174","0.43662","5"],
    [20842,"NA","2024-05-02 10:45:00",null,null,null,null,null,null,null,null,null,null,null,null,null,"SATNPRO1963","31.358","0.43922","5"],
    [20843,"NA","2024-05-02 11:00:00",null,null,null,null,null,null,null,null,null,null,null,null,null,"SATNPRO1963","31.504","0.44126","5"],
    [20844,"NA","2024-05-02 11:15:00",null,null,null,null,null,null,null,null,null,null,null,null,null,"SATNPRO1963","31.458000000000002","0.44062","5"],
    [20845,"NA","2024-05-02 11:30:00",null,null,null,null,null,null,null,null,null,null,null,null,null,"SATNPRO1963","31.228","0.43742","5"],
    [20846,"NA","2024-05-02 11:45:00",null,null,null,null,null,null,null,null,null,null,null,null,null,"SATNPRO1963","31.314","0.43862","5"],
    [20847,"NA","2024-05-02 12:00:00",null,null,null,null,null,null,null,null,null,null,null,null,null,"SATNPRO1963","31.054","0.43494","5"],
    [20848,"NA","2024-05-02 12:15:00",null,null,null,null,null,null,null,null,null,null,null,null,null,"SATNPRO1963","30.96","0.43364","5"],
    [20849,"NA","2024-05-02 12:30:00",null,null,null,null,null,null,null,null,null,null,null,null,null,"SATNPRO1963","30.89","0.43266","5"],
    [20850,"NA","2024-05-02 12:45:00",null,null,null,null,null,null,null,null,null,null,null,null,null,"SATNPRO1963","30.442","0.42638","5"],
    [20851,"NA","2024-05-02 13:00:00",null,null,null,null,null,null,null,null,null,null,null,null,null,"SATNPRO1963","30.567999999999998","0.42818","5"],
    [20852,"NA","2024-05-02 13:15:00",null,null,null,null,null,null,null,null,null,null,null,null,null,"SATNPRO1963","30.387999999999998","0.42562","5"],
    [20853,"NA","2024-05-02 13:30:00",null,null,null,null,null,null,null,null,null,null,null,null,null,"SATNPRO1963","30.451999999999998","0.42656","5"],
    [20854,"NA","2024-05-02 13:45:00",null,null,null,null,null,null,null,null,null,null,null,null,null,"SATNPRO1963","30.744","0.43062","5"],
    [20855,"NA","2024-05-02 14:00:00",null,null,null,null,null,null,null,null,null,null,null,null,null,"SATNPRO1963","30.322","0.42472","5"],
    [20856,"NA","2024-05-02 14:15:00",null,null,null,null,null,null,null,null,null,null,null,null,null,"SATNPRO1963","30.862","0.4323","5"],
    [20857,"NA","2024-05-02 14:30:00",null,null,null,null,null,null,null,null,null,null,null,null,null,"SATNPRO1963","30.828","0.4318","5"],
    [20858,"NA","2024-05-02 14:45:00",null,null,null,null,null,null,null,null,null,null,null,null,null,"SATNPRO1963","31.012","0.43444","5"],
    [20859,"NA","2024-05-02 15:00:00",null,null,null,null,null,null,null,null,null,null,null,null,null,"SATNPRO1963","30.788","0.43124","5"],
    [20860,"NA","2024-05-02 15:15:00",null,null,null,null,null,null,null,null,null,null,null,null,null,"SATNPRO1963","31.144","0.43628","5"],
    [20861,"NA","2024-05-02 15:30:00",null,null,null,null,null,null,null,null,null,null,null,null,null,"SATNPRO1963","30.939999999999998","0.43338","5"],
    [20862,"NA","2024-05-02 15:45:00",null,null,null,null,null,null,null,null,null,null,null,null,null,"SATNPRO1963","31.21","0.43714","5"],
    [20863,"NA","2024-05-02 16:00:00",null,null,null,null,null,null,null,null,null,null,null,null,null,"SATNPRO1963","31.274","0.43802","5"],
    [20864,"NA","2024-05-02 16:15:00",null,null,null,null,null,null,null,null,null,null,null,null,null,"SATNPRO1963","31.466","0.44072","5"],
    [20865,"NA","2024-05-02 16:30:00",null,null,null,null,null,null,null,null,null,null,null,null,null,"SATNPRO1963","31.346","0.43906","5"],
    [20866,"NA","2024-05-02 16:45:00",null,null,null,null,null,null,null,null,null,null,null,null,null,"SATNPRO1963","31.302","0.43844","5"],
    [20867,"NA","2024-05-02 17:00:00",null,null,null,null,null,null,null,null,null,null,null,null,null,"SATNPRO1963","31.454","0.44058","5"],
    [20868,"NA","2024-05-02 17:15:00",null,null,null,null,null,null,null,null,null,null,null,null,null,"SATNPRO1963","31.432","0.44024","5"],
    [20869,"NA","2024-05-02 17:30:00",null,null,null,null,null,null,null,null,null,null,null,null,null,"SATNPRO1963","31.446","0.44046","5"],
    [20870,"NA","2024-05-02 17:45:00",null,null,null,null,null,null,null,null,null,null,null,null,null,"SATNPRO1963","31.264","0.4379","5"],
    [20871,"NA","2024-05-02 18:00:00",null,null,null,null,null,null,null,null,null,null,null,null,null,"SATNPRO1963","31.708000000000002","0.44414","5"],
    [20872,"NA","2024-05-02 18:15:00",null,null,null,null,null,null,null,null,null,null,null,null,null,"SATNPRO1963","31.636","0.44308","5"],
    [20873,"NA","2024-05-02 18:30:00",null,null,null,null,null,null,null,null,null,null,null,null,null,"SATNPRO1963","31.918","0.44708","5"],
    [20874,"NA","2024-05-02 18:45:00",null,null,null,null,null,null,null,null,null,null,null,null,null,"SATNPRO1963","31.558","0.44202","5"],
    [20875,"NA","2024-05-02 19:00:00",null,null,null,null,null,null,null,null,null,null,null,null,null,"SATNPRO1963","31.548","0.44186","5"],
    [20876,"NA","2024-05-02 19:15:00",null,null,null,null,null,null,null,null,null,null,null,null,null,"SATNPRO1963","31.544","0.44182","5"],
    [20877,"NA","2024-05-02 19:30:00",null,null,null,null,null,null,null,null,null,null,null,null,null,"SATNPRO1963","31.5","0.44122","5"],
    [20878,"NA","2024-05-02 19:45:00",null,null,null,null,null,null,null,null,null,null,null,null,null,"SATNPRO1963","31.458000000000002","0.44062","5"],
    [20879,"NA","2024-05-02 20:00:00",null,null,null,null,null,null,null,null,null,null,null,null,null,"SATNPRO1963","31.402","0.43982","5"],
    [20880,"NA","2024-05-02 20:15:00",null,null,null,null,null,null,null,null,null,null,null,null,null,"SATNPRO1963","31.509999999999998","0.44134","5"],
    [20881,"NA","2024-05-02 20:30:00",null,null,null,null,null,null,null,null,null,null,null,null,null,"SATNPRO1963","31.354","0.43916","5"],
    [20882,"NA","2024-05-02 20:45:00",null,null,null,null,null,null,null,null,null,null,null,null,null,"SATNPRO1963","31.282","0.43816","5"],
    [20883,"NA","2024-05-02 21:00:00",null,null,null,null,null,null,null,null,null,null,null,null,null,"SATNPRO1963","31.32","0.43868","5"],
    [20884,"NA","2024-05-02 21:15:00",null,null,null,null,null,null,null,null,null,null,null,null,null,"SATNPRO1963","31.11","0.43574","5"],
    [20885,"NA","2024-05-02 21:30:00",null,null,null,null,null,null,null,null,null,null,null,null,null,"SATNPRO1963","31.178","0.43672","5"],
    [20886,"NA","2024-05-02 21:45:00",null,null,null,null,null,null,null,null,null,null,null,null,null,"SATNPRO1963","31.334","0.43886","5"],
    [20887,"NA","2024-05-02 22:00:00",null,null,null,null,null,null,null,null,null,null,null,null,null,"SATNPRO1963","31.412","0.44","5"],
    [20888,"NA","2024-05-02 22:15:00",null,null,null,null,null,null,null,null,null,null,null,null,null,"SATNPRO1963","31.419999999999998","0.44012","5"],
    [20889,"NA","2024-05-02 22:30:00",null,null,null,null,null,null,null,null,null,null,null,null,null,"SATNPRO1963","31.336000000000002","0.4389","5"],
    [20890,"NA","2024-05-02 22:45:00",null,null,null,null,null,null,null,null,null,null,null,null,null,"SATNPRO1963","31.13","0.43602","5"],
    [20891,"NA","2024-05-02 23:00:00",null,null,null,null,null,null,null,null,null,null,null,null,null,"SATNPRO1963","31.142","0.43622","5"],
    [20892,"NA","2024-05-02 23:15:00",null,null,null,null,null,null,null,null,null,null,null,null,null,"SATNPRO1963","31.43","0.44022","5"],
    [20893,"NA","2024-05-02 23:30:00",null,null,null,null,null,null,null,null,null,null,null,null,null,"SATNPRO1963","31.154","0.43638","5"],
    [20894,"NA","2024-05-02 23:45:00",null,null,null,null,null,null,null,null,null,null,null,null,null,"SATNPRO1963","31.522000000000002","0.4415","5"],
    [20895,"NA","2024-05-03 00:00:00",null,null,null,null,null,null,null,null,null,null,null,null,null,"SATNPRO1963","31.382","0.43954","5"],
    [20896,"NA","2024-05-03 00:15:00",null,null,null,null,null,null,null,null,null,null,null,null,null,"SATNPRO1963","31.282","0.43818","5"],
    [20897,"NA","2024-05-03 00:30:00",null,null,null,null,null,null,null,null,null,null,null,null,null,"SATNPRO1963","31.296","0.43832","5"],
    [20898,"NA","2024-05-03 00:45:00",null,null,null,null,null,null,null,null,null,null,null,null,null,"SATNPRO1963","31.258","0.43784","5"],
    [20899,"NA","2024-05-03 01:00:00",null,null,null,null,null,null,null,null,null,null,null,null,null,"SATNPRO1963","31.076","0.43528","5"],
    [20900,"NA","2024-05-03 01:15:00",null,null,null,null,null,null,null,null,null,null,null,null,null,"SATNPRO1963","31.082","0.43536","5"],
    [20901,"NA","2024-05-03 01:30:00",null,null,null,null,null,null,null,null,null,null,null,null,null,"SATNPRO1963","31.176","0.43668","5"],
    [20902,"NA","2024-05-03 01:45:00",null,null,null,null,null,null,null,null,null,null,null,null,null,"SATNPRO1963","31.028","0.43458","5"],
    [20903,"NA","2024-05-03 02:00:00",null,null,null,null,null,null,null,null,null,null,null,null,null,"SATNPRO1963","31.138","0.43614","5"],
    [20904,"NA","2024-05-03 02:15:00",null,null,null,null,null,null,null,null,null,null,null,null,null,"SATNPRO1963","31.13","0.43602","5"],
    [20905,"NA","2024-05-03 02:30:00",null,null,null,null,null,null,null,null,null,null,null,null,null,"SATNPRO1963","31.224","0.43732","5"],
    [20906,"NA","2024-05-03 02:45:00",null,null,null,null,null,null,null,null,null,null,null,null,null,"SATNPRO1963","30.95","0.43346","5"],
    [20907,"NA","2024-05-03 03:00:00",null,null,null,null,null,null,null,null,null,null,null,null,null,"SATNPRO1963","30.822","0.43172","5"],
    [20908,"NA","2024-05-03 03:15:00",null,null,null,null,null,null,null,null,null,null,null,null,null,"SATNPRO1963","30.768","0.43096","5"],
    [20909,"NA","2024-05-03 03:30:00",null,null,null,null,null,null,null,null,null,null,null,null,null,"SATNPRO1963","30.584","0.42838","5"],
    [20910,"NA","2024-05-03 03:45:00",null,null,null,null,null,null,null,null,null,null,null,null,null,"SATNPRO1963","30.498","0.42716","5"],
    [20911,"NA","2024-05-03 04:00:00",null,null,null,null,null,null,null,null,null,null,null,null,null,"SATNPRO1963","31.216","0.43724","5"],
    [20912,"NA","2024-05-03 04:15:00",null,null,null,null,null,null,null,null,null,null,null,null,null,"SATNPRO1963","31.152","0.43634","5"],
    [20913,"NA","2024-05-03 04:30:00",null,null,null,null,null,null,null,null,null,null,null,null,null,"SATNPRO1963","31.042","0.43478","5"],
    [20914,"NA","2024-05-03 04:45:00",null,null,null,null,null,null,null,null,null,null,null,null,null,"SATNPRO1963","31.128","0.436","5"],
    [20915,"NA","2024-05-03 05:00:00",null,null,null,null,null,null,null,null,null,null,null,null,null,"SATNPRO1963","31.02","0.43446","5"],
    [20916,"NA","2024-05-03 05:15:00",null,null,null,null,null,null,null,null,null,null,null,null,null,"SATNPRO1963","30.625999999999998","0.42898","5"],
    [20917,"NA","2024-05-03 05:30:00",null,null,null,null,null,null,null,null,null,null,null,null,null,"SATNPRO1963","30.582","0.4284","5"],
    [20918,"NA","2024-05-03 05:45:00",null,null,null,null,null,null,null,null,null,null,null,null,null,"SATNPRO1963","30.524","0.42752","5"],
    [20919,"NA","2024-05-03 06:00:00",null,null,null,null,null,null,null,null,null,null,null,null,null,"SATNPRO1963","30.754","0.43076","5"],
    [20920,"NA","2024-05-03 06:15:00",null,null,null,null,null,null,null,null,null,null,null,null,null,"SATNPRO1963","30.448","0.42648","5"],
    [20921,"NA","2024-05-03 06:30:00",null,null,null,null,null,null,null,null,null,null,null,null,null,"SATNPRO1963","31.004","0.4343","5"],
    [20922,"NA","2024-05-03 06:45:00",null,null,null,null,null,null,null,null,null,null,null,null,null,"SATNPRO1963","31.172","0.4366","5"],
    [20923,"NA","2024-05-03 07:00:00",null,null,null,null,null,null,null,null,null,null,null,null,null,"SATNPRO1963","31.038","0.43472","5"],
    [20924,"NA","2024-05-03 07:15:00",null,null,null,null,null,null,null,null,null,null,null,null,null,"SATNPRO1963","31.102","0.43566","5"],
    [20925,"NA","2024-05-03 07:30:00",null,null,null,null,null,null,null,null,null,null,null,null,null,"SATNPRO1963","31.04","0.43474","5"],
    [20926,"NA","2024-05-03 07:45:00",null,null,null,null,null,null,null,null,null,null,null,null,null,"SATNPRO1963","31.196","0.43698","5"],
    [20927,"NA","2024-05-03 08:00:00",null,null,null,null,null,null,null,null,null,null,null,null,null,"SATNPRO1963","30.838","0.43194","5"],
    [20928,"NA","2024-05-03 08:15:00",null,null,null,null,null,null,null,null,null,null,null,null,null,"SATNPRO1963","30.922","0.43312","5"],
    [20929,"NA","2024-05-03 08:30:00",null,null,null,null,null,null,null,null,null,null,null,null,null,"SATNPRO1963","30.522000000000002","0.4275","5"],
    [20930,"NA","2024-05-03 08:45:00",null,null,null,null,null,null,null,null,null,null,null,null,null,"SATNPRO1963","30.368","0.4253","5"],
    [20931,"NA","2024-05-03 09:00:00",null,null,null,null,null,null,null,null,null,null,null,null,null,"SATNPRO1963","30.424","0.42614","5"],
    [20932,"NA","2024-05-03 09:15:00",null,null,null,null,null,null,null,null,null,null,null,null,null,"SATNPRO1963","30.264","0.42386","5"],
    [20933,"NA","2024-05-03 09:30:00",null,null,null,null,null,null,null,null,null,null,null,null,null,"SATNPRO1963","30.172","0.4226","5"],
    [20934,"NA","2024-05-03 09:45:00",null,null,null,null,null,null,null,null,null,null,null,null,null,"SATNPRO1963","29.762","0.41686","5"],
    [20935,"NA","2024-05-03 10:00:00",null,null,null,null,null,null,null,null,null,null,null,null,null,"SATNPRO1963","30.244","0.4236","5"],
    [20936,"NA","2024-05-03 10:15:00",null,null,null,null,null,null,null,null,null,null,null,null,null,"SATNPRO1963","29.604","0.41464","5"],
    [20937,"NA","2024-05-03 10:30:00",null,null,null,null,null,null,null,null,null,null,null,null,null,"SATNPRO1963","30.012","0.42036","5"],
    [20938,"NA","2024-05-03 10:45:00",null,null,null,null,null,null,null,null,null,null,null,null,null,"SATNPRO1963","30.364","0.42534","5"],
    [20939,"NA","2024-05-03 11:00:00",null,null,null,null,null,null,null,null,null,null,null,null,null,"SATNPRO1963","30.34","0.425","5"],
    [20940,"NA","2024-05-03 11:15:00",null,null,null,null,null,null,null,null,null,null,null,null,null,"SATNPRO1963","30.37","0.42538","5"],
    [20941,"NA","2024-05-03 11:30:00",null,null,null,null,null,null,null,null,null,null,null,null,null,"SATNPRO1963","30.238","0.42354","5"],
    [20942,"NA","2024-05-03 11:45:00",null,null,null,null,null,null,null,null,null,null,null,null,null,"SATNPRO1963","30.408","0.4259","5"],
    [20943,"NA","2024-05-03 12:00:00",null,null,null,null,null,null,null,null,null,null,null,null,null,"SATNPRO1963","31.064","0.43512","5"],
    [20944,"NA","2024-05-03 12:15:00",null,null,null,null,null,null,null,null,null,null,null,null,null,"SATNPRO1963","31.118","0.43586","5"],
    [20945,"NA","2024-05-03 12:30:00",null,null,null,null,null,null,null,null,null,null,null,null,null,"SATNPRO1963","31.188","0.43686","5"],
    [20946,"NA","2024-05-03 12:45:00",null,null,null,null,null,null,null,null,null,null,null,null,null,"SATNPRO1963","31.240000000000002","0.43756","5"],
    [20947,"NA","2024-05-03 13:00:00",null,null,null,null,null,null,null,null,null,null,null,null,null,"SATNPRO1963","31.052","0.43492","5"],
    [20948,"NA","2024-05-03 13:15:00",null,null,null,null,null,null,null,null,null,null,null,null,null,"SATNPRO1963","31.068","0.43518","5"],
    [20949,"NA","2024-05-03 13:30:00",null,null,null,null,null,null,null,null,null,null,null,null,null,"SATNPRO1963","31.082","0.43536","5"],
    [20950,"NA","2024-05-03 13:45:00",null,null,null,null,null,null,null,null,null,null,null,null,null,"SATNPRO1963","31.502","0.44122","5"],
    [20951,"NA","2024-05-03 14:00:00",null,null,null,null,null,null,null,null,null,null,null,null,null,"SATNPRO1963","31.442","0.4404","5"],
    [20952,"NA","2024-05-03 14:15:00",null,null,null,null,null,null,null,null,null,null,null,null,null,"SATNPRO1963","31.164","0.4365","5"],
    [20953,"NA","2024-05-03 14:30:00",null,null,null,null,null,null,null,null,null,null,null,null,null,"SATNPRO1963","31.426000000000002","0.44016","5"],
    [20954,"NA","2024-05-03 14:45:00",null,null,null,null,null,null,null,null,null,null,null,null,null,"SATNPRO1963","31.186","0.43684","5"],
    [20955,"NA","2024-05-03 15:00:00",null,null,null,null,null,null,null,null,null,null,null,null,null,"SATNPRO1963","31.226","0.4374","5"],
    [20956,"NA","2024-05-03 15:15:00",null,null,null,null,null,null,null,null,null,null,null,null,null,"SATNPRO1963","31.288","0.43822","5"],
    [20957,"NA","2024-05-03 15:30:00",null,null,null,null,null,null,null,null,null,null,null,null,null,"SATNPRO1963","31.476","0.44088","5"],
    [20958,"NA","2024-05-03 15:45:00",null,null,null,null,null,null,null,null,null,null,null,null,null,"SATNPRO1963","31.538","0.44176","5"],
    [20959,"NA","2024-05-03 16:00:00",null,null,null,null,null,null,null,null,null,null,null,null,null,"SATNPRO1963","31.262","0.43786","5"],
    [20960,"NA","2024-05-03 16:15:00",null,null,null,null,null,null,null,null,null,null,null,null,null,"SATNPRO1963","31.396","0.43974","5"],
    [20961,"NA","2024-05-03 16:30:00",null,null,null,null,null,null,null,null,null,null,null,null,null,"SATNPRO1963","31.12","0.43588","5"],
    [20962,"NA","2024-05-03 16:45:00",null,null,null,null,null,null,null,null,null,null,null,null,null,"SATNPRO1963","31.504","0.4413","5"],
    [20963,"NA","2024-05-03 17:00:00",null,null,null,null,null,null,null,null,null,null,null,null,null,"SATNPRO1963","31.692","0.44392","5"],
    [20964,"NA","2024-05-03 17:15:00",null,null,null,null,null,null,null,null,null,null,null,null,null,"SATNPRO1963","31.766000000000002","0.44492","5"],
    [20965,"NA","2024-05-03 17:30:00",null,null,null,null,null,null,null,null,null,null,null,null,null,"SATNPRO1963","31.406","0.43986","5"],
    [20966,"NA","2024-05-03 17:45:00",null,null,null,null,null,null,null,null,null,null,null,null,null,"SATNPRO1963","31.084","0.43538","5"],
    [20967,"NA","2024-05-03 18:00:00",null,null,null,null,null,null,null,null,null,null,null,null,null,"SATNPRO1963","30.602","0.42862","5"],
    [20968,"NA","2024-05-03 18:15:00",null,null,null,null,null,null,null,null,null,null,null,null,null,"SATNPRO1963","30.556","0.428","5"],
    [20969,"NA","2024-05-03 18:30:00",null,null,null,null,null,null,null,null,null,null,null,null,null,"SATNPRO1963","30.436","0.42632","5"],
    [20970,"NA","2024-05-03 18:45:00",null,null,null,null,null,null,null,null,null,null,null,null,null,"SATNPRO1963","30.264","0.42388","5"],
    [20971,"NA","2024-05-03 19:00:00",null,null,null,null,null,null,null,null,null,null,null,null,null,"SATNPRO1963","30.392","0.42566","5"],
    [20972,"NA","2024-05-03 19:15:00",null,null,null,null,null,null,null,null,null,null,null,null,null,"SATNPRO1963","30.116","0.42184","5"],
    [20973,"NA","2024-05-03 19:30:00",null,null,null,null,null,null,null,null,null,null,null,null,null,"SATNPRO1963","30.37","0.4254","5"],
    [20974,"NA","2024-05-03 19:45:00",null,null,null,null,null,null,null,null,null,null,null,null,null,"SATNPRO1963","30.242","0.42358","5"],
    [20975,"NA","2024-05-03 20:00:00",null,null,null,null,null,null,null,null,null,null,null,null,null,"SATNPRO1963","30.564","0.42812","5"],
    [20976,"NA","2024-05-03 20:15:00",null,null,null,null,null,null,null,null,null,null,null,null,null,"SATNPRO1963","30.298000000000002","0.42438","5"],
    [20977,"NA","2024-05-03 20:30:00",null,null,null,null,null,null,null,null,null,null,null,null,null,"SATNPRO1963","30.698","0.42998","5"],
    [20978,"NA","2024-05-03 20:45:00",null,null,null,null,null,null,null,null,null,null,null,null,null,"SATNPRO1963","30.418","0.42604","5"],
    [20979,"NA","2024-05-03 21:00:00",null,null,null,null,null,null,null,null,null,null,null,null,null,"SATNPRO1963","30.762","0.4309","5"],
    [20980,"NA","2024-05-03 21:15:00",null,null,null,null,null,null,null,null,null,null,null,null,null,"SATNPRO1963","30.674","0.42966","5"],
    [20981,"NA","2024-05-03 21:30:00",null,null,null,null,null,null,null,null,null,null,null,null,null,"SATNPRO1963","30.637999999999998","0.42914","5"],
    [20982,"NA","2024-05-03 21:45:00",null,null,null,null,null,null,null,null,null,null,null,null,null,"SATNPRO1963","30.802","0.43142","5"],
    [20983,"NA","2024-05-03 22:00:00",null,null,null,null,null,null,null,null,null,null,null,null,null,"SATNPRO1963","30.508","0.42732","5"],
    [20984,"NA","2024-05-03 22:15:00",null,null,null,null,null,null,null,null,null,null,null,null,null,"SATNPRO1963","30.630000000000003","0.42904","5"],
    [20985,"NA","2024-05-03 22:30:00",null,null,null,null,null,null,null,null,null,null,null,null,null,"SATNPRO1963","30.388","0.42564","5"],
    [20986,"NA","2024-05-03 22:45:00",null,null,null,null,null,null,null,null,null,null,null,null,null,"SATNPRO1963","30.618","0.42884","5"],
    [20987,"NA","2024-05-03 23:00:00",null,null,null,null,null,null,null,null,null,null,null,null,null,"SATNPRO1963","30.424","0.4261","5"],
    [20988,"NA","2024-05-03 23:15:00",null,null,null,null,null,null,null,null,null,null,null,null,null,"SATNPRO1963","30.439999999999998","0.42634","5"],
    [20989,"NA","2024-05-03 23:30:00",null,null,null,null,null,null,null,null,null,null,null,null,null,"SATNPRO1963","30.496","0.42714","5"],
    [20990,"NA","2024-05-03 23:45:00",null,null,null,null,null,null,null,null,null,null,null,null,null,"SATNPRO1963","30.759999999999998","0.43086","5"],
    [20991,"NA","2024-05-04 00:00:00",null,null,null,null,null,null,null,null,null,null,null,null,null,"SATNPRO1963","30.896","0.43276","5"],
    [20992,"NA","2024-05-04 00:15:00",null,null,null,null,null,null,null,null,null,null,null,null,null,"SATNPRO1963","31.04","0.43482","5"],
    [20993,"NA","2024-05-04 00:30:00",null,null,null,null,null,null,null,null,null,null,null,null,null,"SATNPRO1963","30.900000000000002","0.4328","5"],
    [20994,"NA","2024-05-04 00:45:00",null,null,null,null,null,null,null,null,null,null,null,null,null,"SATNPRO1963","30.926","0.4332","5"],
    [20995,"NA","2024-05-04 01:00:00",null,null,null,null,null,null,null,null,null,null,null,null,null,"SATNPRO1963","30.922","0.43314","5"],
    [20996,"NA","2024-05-04 01:15:00",null,null,null,null,null,null,null,null,null,null,null,null,null,"SATNPRO1963","31.072","0.43522","5"],
    [20997,"NA","2024-05-04 01:30:00",null,null,null,null,null,null,null,null,null,null,null,null,null,"SATNPRO1963","31.294","0.4383","5"],
    [20998,"NA","2024-05-04 01:45:00",null,null,null,null,null,null,null,null,null,null,null,null,null,"SATNPRO1963","31.044","0.43482","5"],
    [20999,"NA","2024-05-04 02:00:00",null,null,null,null,null,null,null,null,null,null,null,null,null,"SATNPRO1963","31.164","0.43652","5"],
    [21000,"NA","2024-05-04 02:15:00",null,null,null,null,null,null,null,null,null,null,null,null,null,"SATNPRO1963","30.996","0.43416","5"],
    [21001,"NA","2024-05-04 02:30:00",null,null,null,null,null,null,null,null,null,null,null,null,null,"SATNPRO1963","31.034","0.43468","5"],
    [21002,"NA","2024-05-04 02:45:00",null,null,null,null,null,null,null,null,null,null,null,null,null,"SATNPRO1963","30.888","0.43266","5"],
    [21003,"NA","2024-05-04 03:00:00",null,null,null,null,null,null,null,null,null,null,null,null,null,"SATNPRO1963","31.114","0.4358","5"],
    [21004,"NA","2024-05-04 03:15:00",null,null,null,null,null,null,null,null,null,null,null,null,null,"SATNPRO1963","30.694","0.42996","5"],
    [21005,"NA","2024-05-04 03:30:00",null,null,null,null,null,null,null,null,null,null,null,null,null,"SATNPRO1963","31.04","0.43482","5"],
    [21006,"NA","2024-05-04 03:45:00",null,null,null,null,null,null,null,null,null,null,null,null,null,"SATNPRO1963","30.866","0.43232","5"],
    [21007,"NA","2024-05-04 04:00:00",null,null,null,null,null,null,null,null,null,null,null,null,null,"SATNPRO1963","30.992","0.43408","5"],
    [21008,"NA","2024-05-04 04:15:00",null,null,null,null,null,null,null,null,null,null,null,null,null,"SATNPRO1963","30.778000000000002","0.43112","5"],
    [21009,"NA","2024-05-04 04:30:00",null,null,null,null,null,null,null,null,null,null,null,null,null,"SATNPRO1963","30.796","0.43132","5"],
    [21010,"NA","2024-05-04 04:45:00",null,null,null,null,null,null,null,null,null,null,null,null,null,"SATNPRO1963","30.366","0.42534","5"],
    [21011,"NA","2024-05-04 05:00:00",null,null,null,null,null,null,null,null,null,null,null,null,null,"SATNPRO1963","29.962","0.41964","5"],
    [21012,"NA","2024-05-04 05:15:00",null,null,null,null,null,null,null,null,null,null,null,null,null,"SATNPRO1963","29.924","0.41912","5"],
    [21013,"NA","2024-05-04 05:30:00",null,null,null,null,null,null,null,null,null,null,null,null,null,"SATNPRO1963","29.742","0.4166","5"],
    [21014,"NA","2024-05-04 05:45:00",null,null,null,null,null,null,null,null,null,null,null,null,null,"SATNPRO1963","29.572","0.4142","5"],
    [21015,"NA","2024-05-04 06:00:00",null,null,null,null,null,null,null,null,null,null,null,null,null,"SATNPRO1963","29.644","0.41522","5"],
    [21016,"NA","2024-05-04 06:15:00",null,null,null,null,null,null,null,null,null,null,null,null,null,"SATNPRO1963","29.648","0.4153","5"],
    [21017,"NA","2024-05-04 06:30:00",null,null,null,null,null,null,null,null,null,null,null,null,null,"SATNPRO1963","29.878","0.41848","5"],
    [21018,"NA","2024-05-04 06:45:00",null,null,null,null,null,null,null,null,null,null,null,null,null,"SATNPRO1963","29.772000000000002","0.417","5"],
    [21019,"NA","2024-05-04 07:00:00",null,null,null,null,null,null,null,null,null,null,null,null,null,"SATNPRO1963","29.664","0.41548","5"],
    [21020,"NA","2024-05-04 07:15:00",null,null,null,null,null,null,null,null,null,null,null,null,null,"SATNPRO1963","29.908","0.41888","5"],
    [21021,"NA","2024-05-04 07:30:00",null,null,null,null,null,null,null,null,null,null,null,null,null,"SATNPRO1963","29.922","0.41912","5"],
    [21022,"NA","2024-05-04 07:45:00",null,null,null,null,null,null,null,null,null,null,null,null,null,"SATNPRO1963","30.242","0.4236","5"],
    [21023,"NA","2024-05-04 08:00:00",null,null,null,null,null,null,null,null,null,null,null,null,null,"SATNPRO1963","30.21","0.4231","5"],
    [21024,"NA","2024-05-04 08:15:00",null,null,null,null,null,null,null,null,null,null,null,null,null,"SATNPRO1963","30.426000000000002","0.4262","5"],
    [21025,"NA","2024-05-04 08:30:00",null,null,null,null,null,null,null,null,null,null,null,null,null,"SATNPRO1963","30.346","0.42502","5"],
    [21026,"NA","2024-05-04 08:45:00",null,null,null,null,null,null,null,null,null,null,null,null,null,"SATNPRO1963","30.132","0.42204","5"],
    [21027,"NA","2024-05-04 09:00:00",null,null,null,null,null,null,null,null,null,null,null,null,null,"SATNPRO1963","29.786","0.41718","5"],
    [21028,"NA","2024-05-04 09:15:00",null,null,null,null,null,null,null,null,null,null,null,null,null,"SATNPRO1963","30.328","0.42482","5"],
    [21029,"NA","2024-05-04 09:30:00",null,null,null,null,null,null,null,null,null,null,null,null,null,"SATNPRO1963","29.906","0.4189","5"],
    [21030,"NA","2024-05-04 09:45:00",null,null,null,null,null,null,null,null,null,null,null,null,null,"SATNPRO1963","30.038","0.42076","5"],
    [21031,"NA","2024-05-04 10:00:00",null,null,null,null,null,null,null,null,null,null,null,null,null,"SATNPRO1963","30.126","0.42196","5"],
    [21032,"NA","2024-05-04 10:15:00",null,null,null,null,null,null,null,null,null,null,null,null,null,"SATNPRO1963","29.894","0.41876","5"],
    [21033,"NA","2024-05-04 10:30:00",null,null,null,null,null,null,null,null,null,null,null,null,null,"SATNPRO1963","29.906","0.4189","5"],
    [21034,"NA","2024-05-04 10:45:00",null,null,null,null,null,null,null,null,null,null,null,null,null,"SATNPRO1963","29.788","0.41724","5"],
    [21035,"NA","2024-05-04 11:00:00",null,null,null,null,null,null,null,null,null,null,null,null,null,"SATNPRO1963","30.195999999999998","0.42296","5"],
    [21036,"NA","2024-05-04 11:15:00",null,null,null,null,null,null,null,null,null,null,null,null,null,"SATNPRO1963","30.124","0.42194","5"],
    [21037,"NA","2024-05-04 11:30:00",null,null,null,null,null,null,null,null,null,null,null,null,null,"SATNPRO1963","30.384","0.42556","5"],
    [21038,"NA","2024-05-04 11:45:00",null,null,null,null,null,null,null,null,null,null,null,null,null,"SATNPRO1963","30.428","0.42616","5"],
    [21039,"NA","2024-05-04 12:00:00",null,null,null,null,null,null,null,null,null,null,null,null,null,"SATNPRO1963","30.43","0.42624","5"],
    [21040,"NA","2024-05-04 12:15:00",null,null,null,null,null,null,null,null,null,null,null,null,null,"SATNPRO1963","29.848","0.41804","5"],
    [21041,"NA","2024-05-04 12:30:00",null,null,null,null,null,null,null,null,null,null,null,null,null,"SATNPRO1963","29.906","0.41886","5"],
    [21042,"NA","2024-05-04 12:45:00",null,null,null,null,null,null,null,null,null,null,null,null,null,"SATNPRO1963","29.518","0.41344","5"],
    [21043,"NA","2024-05-04 13:00:00",null,null,null,null,null,null,null,null,null,null,null,null,null,"SATNPRO1963","29.34","0.41096","5"],
    [21044,"NA","2024-05-04 13:15:00",null,null,null,null,null,null,null,null,null,null,null,null,null,"SATNPRO1963","29.988","0.42002","5"],
    [21045,"NA","2024-05-04 13:30:00",null,null,null,null,null,null,null,null,null,null,null,null,null,"SATNPRO1963","30.228","0.42338","5"],
    [21046,"NA","2024-05-04 13:45:00",null,null,null,null,null,null,null,null,null,null,null,null,null,"SATNPRO1963","30.26","0.42386","5"],
    [21047,"NA","2024-05-04 14:00:00",null,null,null,null,null,null,null,null,null,null,null,null,null,"SATNPRO1963","30.248","0.42366","5"],
    [21048,"NA","2024-05-04 14:15:00",null,null,null,null,null,null,null,null,null,null,null,null,null,"SATNPRO1963","30.212","0.42318","5"],
    [21049,"NA","2024-05-04 14:30:00",null,null,null,null,null,null,null,null,null,null,null,null,null,"SATNPRO1963","29.323999999999998","0.41072","5"],
    [21050,"NA","2024-05-04 14:45:00",null,null,null,null,null,null,null,null,null,null,null,null,null,"SATNPRO1963","29.233999999999998","0.4095","5"],
    [21051,"NA","2024-05-04 15:00:00",null,null,null,null,null,null,null,null,null,null,null,null,null,"SATNPRO1963","29.451999999999998","0.41254","5"],
    [21052,"NA","2024-05-04 15:15:00",null,null,null,null,null,null,null,null,null,null,null,null,null,"SATNPRO1963","29.672","0.41562","5"],
    [21053,"NA","2024-05-04 15:30:00",null,null,null,null,null,null,null,null,null,null,null,null,null,"SATNPRO1963","29.53","0.41364","5"],
    [21054,"NA","2024-05-04 15:45:00",null,null,null,null,null,null,null,null,null,null,null,null,null,"SATNPRO1963","29.776","0.41704","5"],
    [21055,"NA","2024-05-04 16:00:00",null,null,null,null,null,null,null,null,null,null,null,null,null,"SATNPRO1963","29.61","0.4147","5"],
    [21056,"NA","2024-05-04 16:15:00",null,null,null,null,null,null,null,null,null,null,null,null,null,"SATNPRO1963","29.778","0.4171","5"],
    [21057,"NA","2024-05-04 16:30:00",null,null,null,null,null,null,null,null,null,null,null,null,null,"SATNPRO1963","29.972","0.4198","5"],
    [21058,"NA","2024-05-04 16:45:00",null,null,null,null,null,null,null,null,null,null,null,null,null,"SATNPRO1963","29.832","0.41784","5"],
    [21059,"NA","2024-05-04 17:00:00",null,null,null,null,null,null,null,null,null,null,null,null,null,"SATNPRO1963","30.256","0.42378","5"],
    [21060,"NA","2024-05-04 17:15:00",null,null,null,null,null,null,null,null,null,null,null,null,null,"SATNPRO1963","29.818","0.41764","5"],
    [21061,"NA","2024-05-04 17:30:00",null,null,null,null,null,null,null,null,null,null,null,null,null,"SATNPRO1963","29.986","0.42002","5"],
    [21062,"NA","2024-05-04 17:45:00",null,null,null,null,null,null,null,null,null,null,null,null,null,"SATNPRO1963","30.552","0.42796","5"],
    [21063,"NA","2024-05-04 18:00:00",null,null,null,null,null,null,null,null,null,null,null,null,null,"SATNPRO1963","30.534","0.42772","5"],
    [21064,"NA","2024-05-04 18:15:00",null,null,null,null,null,null,null,null,null,null,null,null,null,"SATNPRO1963","30.6","0.42862","5"],
    [21065,"NA","2024-05-04 18:30:00",null,null,null,null,null,null,null,null,null,null,null,null,null,"SATNPRO1963","30.804","0.43144","5"],
    [21066,"NA","2024-05-04 18:45:00",null,null,null,null,null,null,null,null,null,null,null,null,null,"SATNPRO1963","30.326","0.42476","5"],
    [21067,"NA","2024-05-04 19:00:00",null,null,null,null,null,null,null,null,null,null,null,null,null,"SATNPRO1963","30.104","0.42166","5"],
    [21068,"NA","2024-05-04 19:15:00",null,null,null,null,null,null,null,null,null,null,null,null,null,"SATNPRO1963","30.202","0.423","5"],
    [21069,"NA","2024-05-04 19:30:00",null,null,null,null,null,null,null,null,null,null,null,null,null,"SATNPRO1963","30.092000000000002","0.42148","5"],
    [21070,"NA","2024-05-04 19:45:00",null,null,null,null,null,null,null,null,null,null,null,null,null,"SATNPRO1963","30.168","0.42254","5"],
    [21071,"NA","2024-05-04 20:00:00",null,null,null,null,null,null,null,null,null,null,null,null,null,"SATNPRO1963","29.882","0.41854","5"],
    [21072,"NA","2024-05-04 20:15:00",null,null,null,null,null,null,null,null,null,null,null,null,null,"SATNPRO1963","30.026","0.42056","5"],
    [21073,"NA","2024-05-04 20:30:00",null,null,null,null,null,null,null,null,null,null,null,null,null,"SATNPRO1963","30.188","0.42286","5"],
    [21074,"NA","2024-05-04 20:45:00",null,null,null,null,null,null,null,null,null,null,null,null,null,"SATNPRO1963","30.202","0.423","5"],
    [21075,"NA","2024-05-04 21:00:00",null,null,null,null,null,null,null,null,null,null,null,null,null,"SATNPRO1963","30.306","0.42446","5"],
    [21076,"NA","2024-05-04 21:15:00",null,null,null,null,null,null,null,null,null,null,null,null,null,"SATNPRO1963","30.105999999999998","0.42168","5"],
    [21077,"NA","2024-05-04 21:30:00",null,null,null,null,null,null,null,null,null,null,null,null,null,"SATNPRO1963","30.396","0.42578","5"],
    [21078,"NA","2024-05-04 21:45:00",null,null,null,null,null,null,null,null,null,null,null,null,null,"SATNPRO1963","29.712","0.41614","5"],
    [21079,"NA","2024-05-04 22:00:00",null,null,null,null,null,null,null,null,null,null,null,null,null,"SATNPRO1963","30.224","0.4233","5"],
    [21080,"NA","2024-05-04 22:15:00",null,null,null,null,null,null,null,null,null,null,null,null,null,"SATNPRO1963","30.09","0.42146","5"],
    [21081,"NA","2024-05-04 22:30:00",null,null,null,null,null,null,null,null,null,null,null,null,null,"SATNPRO1963","30.474","0.42686","5"],
    [21082,"NA","2024-05-04 22:45:00",null,null,null,null,null,null,null,null,null,null,null,null,null,"SATNPRO1963","29.936","0.4193","5"],
    [21083,"NA","2024-05-04 23:00:00",null,null,null,null,null,null,null,null,null,null,null,null,null,"SATNPRO1963","29.92","0.4191","5"],
    [21084,"NA","2024-05-04 23:15:00",null,null,null,null,null,null,null,null,null,null,null,null,null,"SATNPRO1963","29.766000000000002","0.41692","5"],
    [21085,"NA","2024-05-04 23:30:00",null,null,null,null,null,null,null,null,null,null,null,null,null,"SATNPRO1963","29.992","0.4201","5"],
    [21086,"NA","2024-05-04 23:45:00",null,null,null,null,null,null,null,null,null,null,null,null,null,"SATNPRO1963","29.81","0.41754","5"],
    [21087,"NA","2024-05-05 00:00:00",null,null,null,null,null,null,null,null,null,null,null,null,null,"SATNPRO1963","30.112000000000002","0.42174","5"],
    [21088,"NA","2024-05-05 00:15:00",null,null,null,null,null,null,null,null,null,null,null,null,null,"SATNPRO1963","30.102","0.42158","5"],
    [21089,"NA","2024-05-05 00:30:00",null,null,null,null,null,null,null,null,null,null,null,null,null,"SATNPRO1963","29.988","0.42004","5"],
    [21090,"NA","2024-05-05 00:45:00",null,null,null,null,null,null,null,null,null,null,null,null,null,"SATNPRO1963","29.862000000000002","0.41828","5"],
    [21091,"NA","2024-05-05 01:00:00",null,null,null,null,null,null,null,null,null,null,null,null,null,"SATNPRO1963","29.75","0.41668","5"],
    [21092,"NA","2024-05-05 01:15:00",null,null,null,null,null,null,null,null,null,null,null,null,null,"SATNPRO1963","29.836","0.41792","5"],
    [21093,"NA","2024-05-05 01:30:00",null,null,null,null,null,null,null,null,null,null,null,null,null,"SATNPRO1963","30.012","0.42034","5"],
    [21094,"NA","2024-05-05 01:45:00",null,null,null,null,null,null,null,null,null,null,null,null,null,"SATNPRO1963","30.206","0.42306","5"],
    [21095,"NA","2024-05-05 02:00:00",null,null,null,null,null,null,null,null,null,null,null,null,null,"SATNPRO1963","30.114","0.42176","5"],
    [21096,"NA","2024-05-05 02:15:00",null,null,null,null,null,null,null,null,null,null,null,null,null,"SATNPRO1963","30.276","0.42406","5"],
    [21097,"NA","2024-05-05 02:30:00",null,null,null,null,null,null,null,null,null,null,null,null,null,"SATNPRO1963","30.098","0.42156","5"],
    [21098,"NA","2024-05-05 02:45:00",null,null,null,null,null,null,null,null,null,null,null,null,null,"SATNPRO1963","30.518","0.4274","5"],
    [21099,"NA","2024-05-05 03:00:00",null,null,null,null,null,null,null,null,null,null,null,null,null,"SATNPRO1963","30.182000000000002","0.42276","5"],
    [21100,"NA","2024-05-05 03:15:00",null,null,null,null,null,null,null,null,null,null,null,null,null,"SATNPRO1963","30.658","0.42942","5"],
    [21101,"NA","2024-05-05 03:30:00",null,null,null,null,null,null,null,null,null,null,null,null,null,"SATNPRO1963","29.744","0.41662","5"],
    [21102,"NA","2024-05-05 03:45:00",null,null,null,null,null,null,null,null,null,null,null,null,null,"SATNPRO1963","30.166","0.4225","5"],
    [21103,"NA","2024-05-05 04:00:00",null,null,null,null,null,null,null,null,null,null,null,null,null,"SATNPRO1963","30.344","0.425","5"],
    [21104,"NA","2024-05-05 04:15:00",null,null,null,null,null,null,null,null,null,null,null,null,null,"SATNPRO1963","30.258","0.4238","5"],
    [21105,"NA","2024-05-05 04:30:00",null,null,null,null,null,null,null,null,null,null,null,null,null,"SATNPRO1963","30.164","0.42246","5"],
    [21106,"NA","2024-05-05 04:45:00",null,null,null,null,null,null,null,null,null,null,null,null,null,"SATNPRO1963","29.64","0.41512","5"],
    [21107,"NA","2024-05-05 05:00:00",null,null,null,null,null,null,null,null,null,null,null,null,null,"SATNPRO1963","29.808","0.41752","5"],
    [21108,"NA","2024-05-05 05:15:00",null,null,null,null,null,null,null,null,null,null,null,null,null,"SATNPRO1963","29.822","0.41768","5"],
    [21109,"NA","2024-05-05 05:30:00",null,null,null,null,null,null,null,null,null,null,null,null,null,"SATNPRO1963","29.512","0.4134","5"],
    [21110,"NA","2024-05-05 05:45:00",null,null,null,null,null,null,null,null,null,null,null,null,null,"SATNPRO1963","29.642","0.41518","5"],
    [21111,"NA","2024-05-05 06:00:00",null,null,null,null,null,null,null,null,null,null,null,null,null,"SATNPRO1963","29.599999999999998","0.41462","5"],
    [21112,"NA","2024-05-05 06:15:00",null,null,null,null,null,null,null,null,null,null,null,null,null,"SATNPRO1963","29.54","0.41374","5"],
    [21113,"NA","2024-05-05 06:30:00",null,null,null,null,null,null,null,null,null,null,null,null,null,"SATNPRO1963","29.682000000000002","0.4158","5"],
    [21114,"NA","2024-05-05 06:45:00",null,null,null,null,null,null,null,null,null,null,null,null,null,"SATNPRO1963","29.638","0.41506","5"],
    [21115,"NA","2024-05-05 07:00:00",null,null,null,null,null,null,null,null,null,null,null,null,null,"SATNPRO1963","29.956","0.41958","5"],
    [21116,"NA","2024-05-05 07:15:00",null,null,null,null,null,null,null,null,null,null,null,null,null,"SATNPRO1963","30.416","0.42604","5"],
    [21117,"NA","2024-05-05 07:30:00",null,null,null,null,null,null,null,null,null,null,null,null,null,"SATNPRO1963","30.694","0.4299","5"],
    [21118,"NA","2024-05-05 07:45:00",null,null,null,null,null,null,null,null,null,null,null,null,null,"SATNPRO1963","30.464","0.42666","5"],
    [21119,"NA","2024-05-05 08:00:00",null,null,null,null,null,null,null,null,null,null,null,null,null,"SATNPRO1963","30.285999999999998","0.42422","5"],
    [21120,"NA","2024-05-05 08:15:00",null,null,null,null,null,null,null,null,null,null,null,null,null,"SATNPRO1963","30.588","0.42846","5"],
    [21121,"NA","2024-05-05 08:30:00",null,null,null,null,null,null,null,null,null,null,null,null,null,"SATNPRO1963","30.028","0.4206","5"],
    [21122,"NA","2024-05-05 08:45:00",null,null,null,null,null,null,null,null,null,null,null,null,null,"SATNPRO1963","29.812","0.41756","5"],
    [21123,"NA","2024-05-05 09:00:00",null,null,null,null,null,null,null,null,null,null,null,null,null,"SATNPRO1963","29.216","0.40922","5"],
    [21124,"NA","2024-05-05 09:15:00",null,null,null,null,null,null,null,null,null,null,null,null,null,"SATNPRO1963","30.146","0.42228","5"],
    [21125,"NA","2024-05-05 09:30:00",null,null,null,null,null,null,null,null,null,null,null,null,null,"SATNPRO1963","30.262","0.4239","5"],
    [21126,"NA","2024-05-05 09:45:00",null,null,null,null,null,null,null,null,null,null,null,null,null,"SATNPRO1963","29.374","0.41144","5"],
    [21127,"NA","2024-05-05 10:00:00",null,null,null,null,null,null,null,null,null,null,null,null,null,"SATNPRO1963","29.626","0.41496","5"],
    [21128,"NA","2024-05-05 10:15:00",null,null,null,null,null,null,null,null,null,null,null,null,null,"SATNPRO1963","29.466","0.41272","5"],
    [21129,"NA","2024-05-05 10:30:00",null,null,null,null,null,null,null,null,null,null,null,null,null,"SATNPRO1963","29.36","0.41124","5"],
    [21130,"NA","2024-05-05 10:45:00",null,null,null,null,null,null,null,null,null,null,null,null,null,"SATNPRO1963","29.522","0.41348","5"],
    [21131,"NA","2024-05-05 11:00:00",null,null,null,null,null,null,null,null,null,null,null,null,null,"SATNPRO1963","29.498","0.41318","5"],
    [21132,"NA","2024-05-05 11:15:00",null,null,null,null,null,null,null,null,null,null,null,null,null,"SATNPRO1963","29.658","0.41542","5"],
    [21133,"NA","2024-05-05 11:30:00",null,null,null,null,null,null,null,null,null,null,null,null,null,"SATNPRO1963","29.456","0.41258","5"],
    [21134,"NA","2024-05-05 11:45:00",null,null,null,null,null,null,null,null,null,null,null,null,null,"SATNPRO1963","30.006","0.4203","5"],
    [21135,"NA","2024-05-05 12:00:00",null,null,null,null,null,null,null,null,null,null,null,null,null,"SATNPRO1963","30.242","0.4236","5"],
    [21136,"NA","2024-05-05 12:15:00",null,null,null,null,null,null,null,null,null,null,null,null,null,"SATNPRO1963","30.23","0.42344","5"],
    [21137,"NA","2024-05-05 12:30:00",null,null,null,null,null,null,null,null,null,null,null,null,null,"SATNPRO1963","30.486","0.427","5"],
    [21138,"NA","2024-05-05 12:45:00",null,null,null,null,null,null,null,null,null,null,null,null,null,"SATNPRO1963","30.478","0.42692","5"],
    [21139,"NA","2024-05-05 13:00:00",null,null,null,null,null,null,null,null,null,null,null,null,null,"SATNPRO1963","30.562","0.42808","5"],
    [21140,"NA","2024-05-05 13:15:00",null,null,null,null,null,null,null,null,null,null,null,null,null,"SATNPRO1963","30.456","0.4266","5"],
    [21141,"NA","2024-05-05 13:30:00",null,null,null,null,null,null,null,null,null,null,null,null,null,"SATNPRO1963","30.503999999999998","0.42726","5"],
    [21142,"NA","2024-05-05 13:45:00",null,null,null,null,null,null,null,null,null,null,null,null,null,"SATNPRO1963","30.346","0.42506","5"],
    [21143,"NA","2024-05-05 14:00:00",null,null,null,null,null,null,null,null,null,null,null,null,null,"SATNPRO1963","30.508","0.42736","5"],
    [21144,"NA","2024-05-05 14:15:00",null,null,null,null,null,null,null,null,null,null,null,null,null,"SATNPRO1963","30.5","0.4272","5"],
    [21145,"NA","2024-05-05 14:30:00",null,null,null,null,null,null,null,null,null,null,null,null,null,"SATNPRO1963","30.63","0.429","5"],
    [21146,"NA","2024-05-05 14:45:00",null,null,null,null,null,null,null,null,null,null,null,null,null,"SATNPRO1963","31.002","0.4342","5"],
    [21147,"NA","2024-05-05 15:00:00",null,null,null,null,null,null,null,null,null,null,null,null,null,"SATNPRO1963","30.838","0.43196","5"],
    [21148,"NA","2024-05-05 15:15:00",null,null,null,null,null,null,null,null,null,null,null,null,null,"SATNPRO1963","30.772","0.43102","5"],
    [21149,"NA","2024-05-05 15:30:00",null,null,null,null,null,null,null,null,null,null,null,null,null,"SATNPRO1963","31.252","0.43774","5"],
    [21150,"NA","2024-05-05 15:45:00",null,null,null,null,null,null,null,null,null,null,null,null,null,"SATNPRO1963","30.742","0.43058","5"],
    [21151,"NA","2024-05-05 16:00:00",null,null,null,null,null,null,null,null,null,null,null,null,null,"SATNPRO1963","30.4","0.42582","5"],
    [21152,"NA","2024-05-05 16:15:00",null,null,null,null,null,null,null,null,null,null,null,null,null,"SATNPRO1963","30.44","0.42636","5"],
    [21153,"NA","2024-05-05 16:30:00",null,null,null,null,null,null,null,null,null,null,null,null,null,"SATNPRO1963","30.434","0.4263","5"],
    [21154,"NA","2024-05-05 16:45:00",null,null,null,null,null,null,null,null,null,null,null,null,null,"SATNPRO1963","29.912","0.41896","5"],
    [21155,"NA","2024-05-05 17:00:00",null,null,null,null,null,null,null,null,null,null,null,null,null,"SATNPRO1963","30.12","0.42192","5"],
    [21156,"NA","2024-05-05 17:15:00",null,null,null,null,null,null,null,null,null,null,null,null,null,"SATNPRO1963","29.882","0.41854","5"],
    [21157,"NA","2024-05-05 17:30:00",null,null,null,null,null,null,null,null,null,null,null,null,null,"SATNPRO1963","29.596","0.41454","5"],
    [21158,"NA","2024-05-05 17:45:00",null,null,null,null,null,null,null,null,null,null,null,null,null,"SATNPRO1963","29.414","0.412","5"],
    [21159,"NA","2024-05-05 18:00:00",null,null,null,null,null,null,null,null,null,null,null,null,null,"SATNPRO1963","29.454","0.41258","5"],
    [21160,"NA","2024-05-05 18:15:00",null,null,null,null,null,null,null,null,null,null,null,null,null,"SATNPRO1963","29.138","0.40812","5"],
    [21161,"NA","2024-05-05 18:30:00",null,null,null,null,null,null,null,null,null,null,null,null,null,"SATNPRO1963","29.378","0.4115","5"],
    [21162,"NA","2024-05-05 18:45:00",null,null,null,null,null,null,null,null,null,null,null,null,null,"SATNPRO1963","29.368","0.41136","5"],
    [21163,"NA","2024-05-05 19:00:00",null,null,null,null,null,null,null,null,null,null,null,null,null,"SATNPRO1963","29.69","0.41588","5"],
    [21164,"NA","2024-05-05 19:15:00",null,null,null,null,null,null,null,null,null,null,null,null,null,"SATNPRO1963","29.582","0.41436","5"],
    [21165,"NA","2024-05-05 19:30:00",null,null,null,null,null,null,null,null,null,null,null,null,null,"SATNPRO1963","29.764","0.41694","5"],
    [21166,"NA","2024-05-05 19:45:00",null,null,null,null,null,null,null,null,null,null,null,null,null,"SATNPRO1963","29.794","0.41732","5"],
    [21167,"NA","2024-05-05 20:00:00",null,null,null,null,null,null,null,null,null,null,null,null,null,"SATNPRO1963","29.784","0.41714","5"],
    [21168,"NA","2024-05-05 20:15:00",null,null,null,null,null,null,null,null,null,null,null,null,null,"SATNPRO1963","29.604","0.41464","5"],
    [21169,"NA","2024-05-05 20:30:00",null,null,null,null,null,null,null,null,null,null,null,null,null,"SATNPRO1963","29.86","0.41822","5"],
    [21170,"NA","2024-05-05 20:45:00",null,null,null,null,null,null,null,null,null,null,null,null,null,"SATNPRO1963","29.724","0.41632","5"],
    [21171,"NA","2024-05-05 21:00:00",null,null,null,null,null,null,null,null,null,null,null,null,null,"SATNPRO1963","29.573999999999998","0.41422","5"],
    [21172,"NA","2024-05-05 21:15:00",null,null,null,null,null,null,null,null,null,null,null,null,null,"SATNPRO1963","29.52","0.4135","5"],
    [21173,"NA","2024-05-05 21:30:00",null,null,null,null,null,null,null,null,null,null,null,null,null,"SATNPRO1963","29.546","0.41386","5"],
    [21174,"NA","2024-05-05 21:45:00",null,null,null,null,null,null,null,null,null,null,null,null,null,"SATNPRO1963","29.666","0.4155","5"],
    [21175,"NA","2024-05-05 22:00:00",null,null,null,null,null,null,null,null,null,null,null,null,null,"SATNPRO1963","29.759999999999998","0.41688","5"],
    [21176,"NA","2024-05-05 22:15:00",null,null,null,null,null,null,null,null,null,null,null,null,null,"SATNPRO1963","29.656","0.4154","5"],
    [21177,"NA","2024-05-05 22:30:00",null,null,null,null,null,null,null,null,null,null,null,null,null,"SATNPRO1963","29.836000000000002","0.41788","5"],
    [21178,"NA","2024-05-05 22:45:00",null,null,null,null,null,null,null,null,null,null,null,null,null,"SATNPRO1963","30.042","0.42078","5"],
    [21179,"NA","2024-05-05 23:00:00",null,null,null,null,null,null,null,null,null,null,null,null,null,"SATNPRO1963","30.018","0.42046","5"],
    [21180,"NA","2024-05-05 23:15:00",null,null,null,null,null,null,null,null,null,null,null,null,null,"SATNPRO1963","29.856","0.41818","5"],
    [21181,"NA","2024-05-05 23:30:00",null,null,null,null,null,null,null,null,null,null,null,null,null,"SATNPRO1963","30.113999999999997","0.42178","5"],
    [21182,"NA","2024-05-05 23:45:00",null,null,null,null,null,null,null,null,null,null,null,null,null,"SATNPRO1963","30.192","0.4229","5"],
    [21183,"NA","2024-05-06 00:00:00",null,null,null,null,null,null,null,null,null,null,null,null,null,"SATNPRO1963","30.614","0.42878","5"],
    [21184,"NA","2024-05-06 00:15:00",null,null,null,null,null,null,null,null,null,null,null,null,null,"SATNPRO1963","30.412","0.42598","5"],
    [21185,"NA","2024-05-06 00:30:00",null,null,null,null,null,null,null,null,null,null,null,null,null,"SATNPRO1963","30.669999999999998","0.42956","5"],
    [21186,"NA","2024-05-06 00:45:00",null,null,null,null,null,null,null,null,null,null,null,null,null,"SATNPRO1963","30.846","0.43204","5"],
    [21187,"NA","2024-05-06 01:00:00",null,null,null,null,null,null,null,null,null,null,null,null,null,"SATNPRO1963","30.618","0.42892","5"],
    [21188,"NA","2024-05-06 01:15:00",null,null,null,null,null,null,null,null,null,null,null,null,null,"SATNPRO1963","30.7","0.43002","5"],
    [21189,"NA","2024-05-06 01:30:00",null,null,null,null,null,null,null,null,null,null,null,null,null,"SATNPRO1963","30.732","0.43044","5"],
    [21190,"NA","2024-05-06 01:45:00",null,null,null,null,null,null,null,null,null,null,null,null,null,"SATNPRO1963","30.506","0.42732","5"],
    [21191,"NA","2024-05-06 02:00:00",null,null,null,null,null,null,null,null,null,null,null,null,null,"SATNPRO1963","30.508","0.42728","5"],
    [21192,"NA","2024-05-06 02:15:00",null,null,null,null,null,null,null,null,null,null,null,null,null,"SATNPRO1963","30.47","0.42678","5"],
    [21193,"NA","2024-05-06 02:30:00",null,null,null,null,null,null,null,null,null,null,null,null,null,"SATNPRO1963","30.48","0.42692","5"],
    [21194,"NA","2024-05-06 02:45:00",null,null,null,null,null,null,null,null,null,null,null,null,null,"SATNPRO1963","30.238","0.42356","5"],
    [21195,"NA","2024-05-06 03:00:00",null,null,null,null,null,null,null,null,null,null,null,null,null,"SATNPRO1963","30.202","0.42302","5"],
    [21196,"NA","2024-05-06 03:15:00",null,null,null,null,null,null,null,null,null,null,null,null,null,"SATNPRO1963","30.302","0.42444","5"],
    [21197,"NA","2024-05-06 03:30:00",null,null,null,null,null,null,null,null,null,null,null,null,null,"SATNPRO1963","30.17","0.42262","5"],
    [21198,"NA","2024-05-06 03:45:00",null,null,null,null,null,null,null,null,null,null,null,null,null,"SATNPRO1963","30.154","0.42234","5"],
    [21199,"NA","2024-05-06 04:00:00",null,null,null,null,null,null,null,null,null,null,null,null,null,"SATNPRO1963","30.259999999999998","0.42386","5"],
    [21200,"NA","2024-05-06 04:15:00",null,null,null,null,null,null,null,null,null,null,null,null,null,"SATNPRO1963","30.073999999999998","0.42124","5"],
    [21201,"NA","2024-05-06 04:30:00",null,null,null,null,null,null,null,null,null,null,null,null,null,"SATNPRO1963","30.201999999999998","0.42298","5"],
    [21202,"NA","2024-05-06 04:45:00",null,null,null,null,null,null,null,null,null,null,null,null,null,"SATNPRO1963","30.118","0.42186","5"],
    [21203,"NA","2024-05-06 05:00:00",null,null,null,null,null,null,null,null,null,null,null,null,null,"SATNPRO1963","30.215999999999998","0.4232","5"],
    [21204,"NA","2024-05-06 05:15:00",null,null,null,null,null,null,null,null,null,null,null,null,null,"SATNPRO1963","30.082","0.42134","5"],
    [21205,"NA","2024-05-06 05:30:00",null,null,null,null,null,null,null,null,null,null,null,null,null,"SATNPRO1963","30.314","0.42458","5"],
    [21206,"NA","2024-05-06 05:45:00",null,null,null,null,null,null,null,null,null,null,null,null,null,"SATNPRO1963","30.15","0.4223","5"],
    [21207,"NA","2024-05-06 06:00:00",null,null,null,null,null,null,null,null,null,null,null,null,null,"SATNPRO1963","30.162","0.42248","5"],
    [21208,"NA","2024-05-06 06:15:00",null,null,null,null,null,null,null,null,null,null,null,null,null,"SATNPRO1963","30.452","0.42658","5"],
    [21209,"NA","2024-05-06 06:30:00",null,null,null,null,null,null,null,null,null,null,null,null,null,"SATNPRO1963","30.402","0.42588","5"],
    [21210,"NA","2024-05-06 06:45:00",null,null,null,null,null,null,null,null,null,null,null,null,null,"SATNPRO1963","30.758","0.43082","5"],
    [21211,"NA","2024-05-06 07:00:00",null,null,null,null,null,null,null,null,null,null,null,null,null,"SATNPRO1963","31.034000000000002","0.43468","5"],
    [21212,"NA","2024-05-06 07:15:00",null,null,null,null,null,null,null,null,null,null,null,null,null,"SATNPRO1963","30.966","0.43374","5"],
    [21213,"NA","2024-05-06 07:30:00",null,null,null,null,null,null,null,null,null,null,null,null,null,"SATNPRO1963","31.262","0.4379","5"],
    [21214,"NA","2024-05-06 07:45:00",null,null,null,null,null,null,null,null,null,null,null,null,null,"SATNPRO1963","31.312","0.43856","5"],
    [21215,"NA","2024-05-06 08:00:00",null,null,null,null,null,null,null,null,null,null,null,null,null,"SATNPRO1963","31.276","0.43808","5"],
    [21216,"NA","2024-05-06 08:15:00",null,null,null,null,null,null,null,null,null,null,null,null,null,"SATNPRO1963","31.33","0.4388","5"],
    [21217,"NA","2024-05-06 08:30:00",null,null,null,null,null,null,null,null,null,null,null,null,null,"SATNPRO1963","31.39","0.43964","5"],
    [21218,"NA","2024-05-06 08:45:00",null,null,null,null,null,null,null,null,null,null,null,null,null,"SATNPRO1963","31.652","0.4433","5"],
    [21219,"NA","2024-05-06 09:00:00",null,null,null,null,null,null,null,null,null,null,null,null,null,"SATNPRO1963","31.606","0.4427","5"],
    [21220,"NA","2024-05-06 09:15:00",null,null,null,null,null,null,null,null,null,null,null,null,null,"SATNPRO1963","31.242","0.43756","5"],
    [21221,"NA","2024-05-06 09:30:00",null,null,null,null,null,null,null,null,null,null,null,null,null,"SATNPRO1963","31.388","0.43966","5"],
    [21222,"NA","2024-05-06 09:45:00",null,null,null,null,null,null,null,null,null,null,null,null,null,"SATNPRO1963","31.526","0.44158","5"],
    [21223,"NA","2024-05-06 10:00:00",null,null,null,null,null,null,null,null,null,null,null,null,null,"SATNPRO1963","31.474","0.44086","5"],
    [21224,"NA","2024-05-06 10:15:00",null,null,null,null,null,null,null,null,null,null,null,null,null,"SATNPRO1963","31.458","0.44062","5"],
    [21225,"NA","2024-05-06 10:30:00",null,null,null,null,null,null,null,null,null,null,null,null,null,"SATNPRO1963","31.136","0.43614","5"],
    [21226,"NA","2024-05-06 10:45:00",null,null,null,null,null,null,null,null,null,null,null,null,null,"SATNPRO1963","31.182","0.43676","5"],
    [21227,"NA","2024-05-06 11:00:00",null,null,null,null,null,null,null,null,null,null,null,null,null,"SATNPRO1963","31.468","0.44074","5"],
    [21228,"NA","2024-05-06 11:15:00",null,null,null,null,null,null,null,null,null,null,null,null,null,"SATNPRO1963","31.384","0.43954","5"],
    [21229,"NA","2024-05-06 11:30:00",null,null,null,null,null,null,null,null,null,null,null,null,null,"SATNPRO1963","31.576","0.44224","5"],
    [21230,"NA","2024-05-06 11:45:00",null,null,null,null,null,null,null,null,null,null,null,null,null,"SATNPRO1963","31.578","0.44228","5"],
    [21231,"NA","2024-05-06 12:00:00",null,null,null,null,null,null,null,null,null,null,null,null,null,"SATNPRO1963","31.532","0.44164","5"],
    [21232,"NA","2024-05-06 12:15:00",null,null,null,null,null,null,null,null,null,null,null,null,null,"SATNPRO1963","31.516000000000002","0.44144","5"],
    [21233,"NA","2024-05-06 12:30:00",null,null,null,null,null,null,null,null,null,null,null,null,null,"SATNPRO1963","31.336","0.43892","5"],
    [21234,"NA","2024-05-06 12:45:00",null,null,null,null,null,null,null,null,null,null,null,null,null,"SATNPRO1963","31.452","0.44052","5"],
    [21235,"NA","2024-05-06 13:00:00",null,null,null,null,null,null,null,null,null,null,null,null,null,"SATNPRO1963","31.408","0.4399","5"],
    [21236,"NA","2024-05-06 13:15:00",null,null,null,null,null,null,null,null,null,null,null,null,null,"SATNPRO1963","31.224","0.43738","5"],
    [21237,"NA","2024-05-06 13:30:00",null,null,null,null,null,null,null,null,null,null,null,null,null,"SATNPRO1963","31.47","0.44074","5"],
    [21238,"NA","2024-05-06 13:45:00",null,null,null,null,null,null,null,null,null,null,null,null,null,"SATNPRO1963","31.436","0.44032","5"],
    [21239,"NA","2024-05-06 14:00:00",null,null,null,null,null,null,null,null,null,null,null,null,null,"SATNPRO1963","31.278","0.4381","5"],
    [21240,"NA","2024-05-06 14:15:00",null,null,null,null,null,null,null,null,null,null,null,null,null,"SATNPRO1963","31.144000000000002","0.43624","5"],
    [21241,"NA","2024-05-06 14:30:00",null,null,null,null,null,null,null,null,null,null,null,null,null,"SATNPRO1963","31.288","0.43828","5"],
    [21242,"NA","2024-05-06 14:45:00",null,null,null,null,null,null,null,null,null,null,null,null,null,"SATNPRO1963","31.234","0.43746","5"],
    [21243,"NA","2024-05-06 15:00:00",null,null,null,null,null,null,null,null,null,null,null,null,null,"SATNPRO1963","31.148","0.43628","5"],
    [21244,"NA","2024-05-06 15:15:00",null,null,null,null,null,null,null,null,null,null,null,null,null,"SATNPRO1963","31.242","0.4376","5"],
    [21245,"NA","2024-05-06 15:30:00",null,null,null,null,null,null,null,null,null,null,null,null,null,"SATNPRO1963","31.002","0.43426","5"],
    [21246,"NA","2024-05-06 15:45:00",null,null,null,null,null,null,null,null,null,null,null,null,null,"SATNPRO1963","31.122","0.4359","5"],
    [21247,"NA","2024-05-06 16:00:00",null,null,null,null,null,null,null,null,null,null,null,null,null,"SATNPRO1963","31.138","0.43616","5"],
    [21248,"NA","2024-05-06 16:15:00",null,null,null,null,null,null,null,null,null,null,null,null,null,"SATNPRO1963","31.12","0.43588","5"],
    [21249,"NA","2024-05-06 16:30:00",null,null,null,null,null,null,null,null,null,null,null,null,null,"SATNPRO1963","31.272","0.43802","5"],
    [21250,"NA","2024-05-06 16:45:00",null,null,null,null,null,null,null,null,null,null,null,null,null,"SATNPRO1963","31.044","0.43482","5"],
    [21251,"NA","2024-05-06 17:00:00",null,null,null,null,null,null,null,null,null,null,null,null,null,"SATNPRO1963","31.262","0.43786","5"],
    [21252,"NA","2024-05-06 17:15:00",null,null,null,null,null,null,null,null,null,null,null,null,null,"SATNPRO1963","31.24","0.43756","5"],
    [21253,"NA","2024-05-06 17:30:00",null,null,null,null,null,null,null,null,null,null,null,null,null,"SATNPRO1963","31.162","0.43646","5"],
    [21254,"NA","2024-05-06 17:45:00",null,null,null,null,null,null,null,null,null,null,null,null,null,"SATNPRO1963","31.178","0.4367","5"],
    [21255,"NA","2024-05-06 18:00:00",null,null,null,null,null,null,null,null,null,null,null,null,null,"SATNPRO1963","31.316","0.43866","5"],
    [21256,"NA","2024-05-06 18:15:00",null,null,null,null,null,null,null,null,null,null,null,null,null,"SATNPRO1963","31.248","0.43768","5"],
    [21257,"NA","2024-05-06 18:30:00",null,null,null,null,null,null,null,null,null,null,null,null,null,"SATNPRO1963","31.278","0.4381","5"],
    [21258,"NA","2024-05-06 18:45:00",null,null,null,null,null,null,null,null,null,null,null,null,null,"SATNPRO1963","31.284","0.4382","5"],
    [21259,"NA","2024-05-06 19:00:00",null,null,null,null,null,null,null,null,null,null,null,null,null,"SATNPRO1963","30.986","0.43402","5"],
    [21260,"NA","2024-05-06 19:15:00",null,null,null,null,null,null,null,null,null,null,null,null,null,"SATNPRO1963","30.924","0.43318","5"],
    [21261,"NA","2024-05-06 19:30:00",null,null,null,null,null,null,null,null,null,null,null,null,null,"SATNPRO1963","30.792","0.43132","5"],
    [21262,"NA","2024-05-06 19:45:00",null,null,null,null,null,null,null,null,null,null,null,null,null,"SATNPRO1963","30.834","0.4319","5"],
    [21263,"NA","2024-05-06 20:00:00",null,null,null,null,null,null,null,null,null,null,null,null,null,"SATNPRO1963","30.94","0.43336","5"],
    [21264,"NA","2024-05-06 20:15:00",null,null,null,null,null,null,null,null,null,null,null,null,null,"SATNPRO1963","31.114","0.43584","5"],
    [21265,"NA","2024-05-06 20:30:00",null,null,null,null,null,null,null,null,null,null,null,null,null,"SATNPRO1963","31.01","0.43438","5"],
    [21266,"NA","2024-05-06 20:45:00",null,null,null,null,null,null,null,null,null,null,null,null,null,"SATNPRO1963","30.988","0.43402","5"],
    [21267,"NA","2024-05-06 21:00:00",null,null,null,null,null,null,null,null,null,null,null,null,null,"SATNPRO1963","30.98","0.43394","5"],
    [21268,"NA","2024-05-06 21:15:00",null,null,null,null,null,null,null,null,null,null,null,null,null,"SATNPRO1963","31.356","0.43922","5"],
    [21269,"NA","2024-05-06 21:30:00",null,null,null,null,null,null,null,null,null,null,null,null,null,"SATNPRO1963","31.226","0.43738","5"],
    [21270,"NA","2024-05-06 21:45:00",null,null,null,null,null,null,null,null,null,null,null,null,null,"SATNPRO1963","31.048000000000002","0.43488","5"],
    [21271,"NA","2024-05-06 22:00:00",null,null,null,null,null,null,null,null,null,null,null,null,null,"SATNPRO1963","31.248","0.4377","5"],
    [21272,"NA","2024-05-06 22:15:00",null,null,null,null,null,null,null,null,null,null,null,null,null,"SATNPRO1963","30.884","0.4326","5"],
    [21273,"NA","2024-05-06 22:30:00",null,null,null,null,null,null,null,null,null,null,null,null,null,"SATNPRO1963","30.706","0.43008","5"],
    [21274,"NA","2024-05-06 22:45:00",null,null,null,null,null,null,null,null,null,null,null,null,null,"SATNPRO1963","30.846","0.43206","5"],
    [21275,"NA","2024-05-06 23:00:00",null,null,null,null,null,null,null,null,null,null,null,null,null,"SATNPRO1963","30.66","0.42946","5"],
    [21276,"NA","2024-05-06 23:15:00",null,null,null,null,null,null,null,null,null,null,null,null,null,"SATNPRO1963","30.412","0.42596","5"],
    [21277,"NA","2024-05-06 23:30:00",null,null,null,null,null,null,null,null,null,null,null,null,null,"SATNPRO1963","30.08","0.42134","5"],
    [21278,"NA","2024-05-06 23:45:00",null,null,null,null,null,null,null,null,null,null,null,null,null,"SATNPRO1963","30.032","0.42064","5"],
    [21279,"NA","2024-05-07 00:00:00",null,null,null,null,null,null,null,null,null,null,null,null,null,"SATNPRO1963","29.748","0.41666","5"],
    [21280,"NA","2024-05-07 00:15:00",null,null,null,null,null,null,null,null,null,null,null,null,null,"SATNPRO1963","29.67","0.41556","5"],
    [21281,"NA","2024-05-07 00:30:00",null,null,null,null,null,null,null,null,null,null,null,null,null,"SATNPRO1963","29.618","0.41486","5"],
    [21282,"NA","2024-05-07 00:45:00",null,null,null,null,null,null,null,null,null,null,null,null,null,"SATNPRO1963","29.612","0.41474","5"],
    [21283,"NA","2024-05-07 01:00:00",null,null,null,null,null,null,null,null,null,null,null,null,null,"SATNPRO1963","29.619999999999997","0.41484","5"],
    [21284,"NA","2024-05-07 01:15:00",null,null,null,null,null,null,null,null,null,null,null,null,null,"SATNPRO1963","29.394000000000002","0.4117","5"],
    [21285,"NA","2024-05-07 01:30:00",null,null,null,null,null,null,null,null,null,null,null,null,null,"SATNPRO1963","29.292","0.41028","5"],
    [21286,"NA","2024-05-07 01:45:00",null,null,null,null,null,null,null,null,null,null,null,null,null,"SATNPRO1963","29.358","0.41122","5"],
    [21287,"NA","2024-05-07 02:00:00",null,null,null,null,null,null,null,null,null,null,null,null,null,"SATNPRO1963","29.158","0.4084","5"],
    [21288,"NA","2024-05-07 02:15:00",null,null,null,null,null,null,null,null,null,null,null,null,null,"SATNPRO1963","29.206","0.4091","5"],
    [21289,"NA","2024-05-07 02:30:00",null,null,null,null,null,null,null,null,null,null,null,null,null,"SATNPRO1963","29.122","0.40788","5"],
    [21290,"NA","2024-05-07 02:45:00",null,null,null,null,null,null,null,null,null,null,null,null,null,"SATNPRO1963","29.29","0.41028","5"],
    [21291,"NA","2024-05-07 03:00:00",null,null,null,null,null,null,null,null,null,null,null,null,null,"SATNPRO1963","29.328","0.41078","5"],
    [21292,"NA","2024-05-07 03:15:00",null,null,null,null,null,null,null,null,null,null,null,null,null,"SATNPRO1963","29.486","0.41302","5"],
    [21293,"NA","2024-05-07 03:30:00",null,null,null,null,null,null,null,null,null,null,null,null,null,"SATNPRO1963","29.432","0.41222","5"],
    [21294,"NA","2024-05-07 03:45:00",null,null,null,null,null,null,null,null,null,null,null,null,null,"SATNPRO1963","29.648","0.41528","5"],
    [21295,"NA","2024-05-07 04:00:00",null,null,null,null,null,null,null,null,null,null,null,null,null,"SATNPRO1963","29.562","0.4141","5"],
    [21296,"NA","2024-05-07 04:15:00",null,null,null,null,null,null,null,null,null,null,null,null,null,"SATNPRO1963","29.724","0.4163","5"],
    [21297,"NA","2024-05-07 04:30:00",null,null,null,null,null,null,null,null,null,null,null,null,null,"SATNPRO1963","29.752","0.41672","5"],
    [21298,"NA","2024-05-07 04:45:00",null,null,null,null,null,null,null,null,null,null,null,null,null,"SATNPRO1963","29.802","0.4174","5"],
    [21299,"NA","2024-05-07 05:00:00",null,null,null,null,null,null,null,null,null,null,null,null,null,"SATNPRO1963","29.704","0.41608","5"],
    [21300,"NA","2024-05-07 05:15:00",null,null,null,null,null,null,null,null,null,null,null,null,null,"SATNPRO1963","29.768","0.41692","5"],
    [21301,"NA","2024-05-07 05:30:00",null,null,null,null,null,null,null,null,null,null,null,null,null,"SATNPRO1963","29.676","0.41564","5"],
    [21302,"NA","2024-05-07 05:45:00",null,null,null,null,null,null,null,null,null,null,null,null,null,"SATNPRO1963","29.738","0.41654","5"],
    [21303,"NA","2024-05-07 06:00:00",null,null,null,null,null,null,null,null,null,null,null,null,null,"SATNPRO1963","29.592","0.41452","5"],
    [21304,"NA","2024-05-07 06:15:00",null,null,null,null,null,null,null,null,null,null,null,null,null,"SATNPRO1963","29.48","0.41292","5"],
    [21305,"NA","2024-05-07 06:30:00",null,null,null,null,null,null,null,null,null,null,null,null,null,"SATNPRO1963","29.642","0.41518","5"],
    [21306,"NA","2024-05-07 06:45:00",null,null,null,null,null,null,null,null,null,null,null,null,null,"SATNPRO1963","29.694","0.4159","5"],
    [21307,"NA","2024-05-07 07:00:00",null,null,null,null,null,null,null,null,null,null,null,null,null,"SATNPRO1963","29.446","0.41242","5"],
    [21308,"NA","2024-05-07 07:15:00",null,null,null,null,null,null,null,null,null,null,null,null,null,"SATNPRO1963","29.814","0.41758","5"],
    [21309,"NA","2024-05-07 07:30:00",null,null,null,null,null,null,null,null,null,null,null,null,null,"SATNPRO1963","30.233999999999998","0.42346","5"],
    [21310,"NA","2024-05-07 07:45:00",null,null,null,null,null,null,null,null,null,null,null,null,null,"SATNPRO1963","30.182","0.42274","5"],
    [21311,"NA","2024-05-07 08:00:00",null,null,null,null,null,null,null,null,null,null,null,null,null,"SATNPRO1963","30.038","0.42074","5"],
    [21312,"NA","2024-05-07 08:15:00",null,null,null,null,null,null,null,null,null,null,null,null,null,"SATNPRO1963","30.240000000000002","0.4236","5"],
    [21313,"NA","2024-05-07 08:30:00",null,null,null,null,null,null,null,null,null,null,null,null,null,"SATNPRO1963","29.954","0.41956","5"],
    [21314,"NA","2024-05-07 08:45:00",null,null,null,null,null,null,null,null,null,null,null,null,null,"SATNPRO1963","30.064","0.42108","5"],
    [21315,"NA","2024-05-07 09:00:00",null,null,null,null,null,null,null,null,null,null,null,null,null,"SATNPRO1963","30.087999999999997","0.42144","5"],
    [21316,"NA","2024-05-07 09:15:00",null,null,null,null,null,null,null,null,null,null,null,null,null,"SATNPRO1963","30.188","0.4228","5"],
    [21317,"NA","2024-05-07 09:30:00",null,null,null,null,null,null,null,null,null,null,null,null,null,"SATNPRO1963","30.234","0.42346","5"],
    [21318,"NA","2024-05-07 09:45:00",null,null,null,null,null,null,null,null,null,null,null,null,null,"SATNPRO1963","30.134","0.42204","5"],
    [21319,"NA","2024-05-07 10:00:00",null,null,null,null,null,null,null,null,null,null,null,null,null,"SATNPRO1963","30.364","0.4253","5"],
    [21320,"NA","2024-05-07 10:15:00",null,null,null,null,null,null,null,null,null,null,null,null,null,"SATNPRO1963","30.304","0.42448","5"],
    [21321,"NA","2024-05-07 10:30:00",null,null,null,null,null,null,null,null,null,null,null,null,null,"SATNPRO1963","30.216","0.42322","5"],
    [21322,"NA","2024-05-07 10:45:00",null,null,null,null,null,null,null,null,null,null,null,null,null,"SATNPRO1963","30.382","0.42554","5"],
    [21323,"NA","2024-05-07 11:00:00",null,null,null,null,null,null,null,null,null,null,null,null,null,"SATNPRO1963","30.31","0.42456","5"],
    [21324,"NA","2024-05-07 11:15:00",null,null,null,null,null,null,null,null,null,null,null,null,null,"SATNPRO1963","30.482","0.42696","5"],
    [21325,"NA","2024-05-07 11:30:00",null,null,null,null,null,null,null,null,null,null,null,null,null,"SATNPRO1963","30.508000000000003","0.42734","5"],
    [21326,"NA","2024-05-07 11:45:00",null,null,null,null,null,null,null,null,null,null,null,null,null,"SATNPRO1963","30.504","0.42728","5"],
    [21327,"NA","2024-05-07 12:00:00",null,null,null,null,null,null,null,null,null,null,null,null,null,"SATNPRO1963","30.506","0.42728","5"],
    [21328,"NA","2024-05-07 12:15:00",null,null,null,null,null,null,null,null,null,null,null,null,null,"SATNPRO1963","30.628","0.42898","5"],
    [21329,"NA","2024-05-07 12:30:00",null,null,null,null,null,null,null,null,null,null,null,null,null,"SATNPRO1963","30.77","0.431","5"],
    [21330,"NA","2024-05-07 12:45:00",null,null,null,null,null,null,null,null,null,null,null,null,null,"SATNPRO1963","30.605999999999998","0.42872","5"],
    [21331,"NA","2024-05-07 13:00:00",null,null,null,null,null,null,null,null,null,null,null,null,null,"SATNPRO1963","30.55","0.4279","5"],
    [21332,"NA","2024-05-07 13:15:00",null,null,null,null,null,null,null,null,null,null,null,null,null,"SATNPRO1963","30.41","0.42594","5"],
    [21333,"NA","2024-05-07 13:30:00",null,null,null,null,null,null,null,null,null,null,null,null,null,"SATNPRO1963","30.096","0.42156","5"],
    [21334,"NA","2024-05-07 13:45:00",null,null,null,null,null,null,null,null,null,null,null,null,null,"SATNPRO1963","30.098","0.4216","5"],
    [21335,"NA","2024-05-07 14:00:00",null,null,null,null,null,null,null,null,null,null,null,null,null,"SATNPRO1963","30.116","0.42184","5"],
    [21336,"NA","2024-05-07 14:15:00",null,null,null,null,null,null,null,null,null,null,null,null,null,"SATNPRO1963","30.402","0.42584","5"],
    [21337,"NA","2024-05-07 14:30:00",null,null,null,null,null,null,null,null,null,null,null,null,null,"SATNPRO1963","30.364","0.4253","5"],
    [21338,"NA","2024-05-07 14:45:00",null,null,null,null,null,null,null,null,null,null,null,null,null,"SATNPRO1963","30.166","0.42254","5"],
    [21339,"NA","2024-05-07 15:00:00",null,null,null,null,null,null,null,null,null,null,null,null,null,"SATNPRO1963","29.918","0.41906","5"],
    [21340,"NA","2024-05-07 15:15:00",null,null,null,null,null,null,null,null,null,null,null,null,null,"SATNPRO1963","30.028000000000002","0.4206","5"],
    [21341,"NA","2024-05-07 15:30:00",null,null,null,null,null,null,null,null,null,null,null,null,null,"SATNPRO1963","29.669999999999998","0.4156","5"],
    [21342,"NA","2024-05-07 15:45:00",null,null,null,null,null,null,null,null,null,null,null,null,null,"SATNPRO1963","29.54","0.41374","5"],
    [21343,"NA","2024-05-07 16:00:00",null,null,null,null,null,null,null,null,null,null,null,null,null,"SATNPRO1963","29.374","0.41142","5"],
    [21344,"NA","2024-05-07 16:15:00",null,null,null,null,null,null,null,null,null,null,null,null,null,"SATNPRO1963","29.158","0.4084","5"],
    [21345,"NA","2024-05-07 16:30:00",null,null,null,null,null,null,null,null,null,null,null,null,null,"SATNPRO1963","29.262","0.40988","5"],
    [21346,"NA","2024-05-07 16:45:00",null,null,null,null,null,null,null,null,null,null,null,null,null,"SATNPRO1963","29.152","0.40832","5"],
    [21347,"NA","2024-05-07 17:00:00",null,null,null,null,null,null,null,null,null,null,null,null,null,"SATNPRO1963","29.272","0.40998","5"],
    [21348,"NA","2024-05-07 17:15:00",null,null,null,null,null,null,null,null,null,null,null,null,null,"SATNPRO1963","28.922","0.40512","5"],
    [21349,"NA","2024-05-07 17:30:00",null,null,null,null,null,null,null,null,null,null,null,null,null,"SATNPRO1963","28.87","0.40436","5"],
    [21350,"NA","2024-05-07 17:45:00",null,null,null,null,null,null,null,null,null,null,null,null,null,"SATNPRO1963","29.066","0.40708","5"],
    [21351,"NA","2024-05-07 18:00:00",null,null,null,null,null,null,null,null,null,null,null,null,null,"SATNPRO1963","29.108","0.4077","5"],
    [21352,"NA","2024-05-07 18:15:00",null,null,null,null,null,null,null,null,null,null,null,null,null,"SATNPRO1963","29.14","0.40812","5"],
    [21353,"NA","2024-05-07 18:30:00",null,null,null,null,null,null,null,null,null,null,null,null,null,"SATNPRO1963","29.062","0.40706","5"],
    [21354,"NA","2024-05-07 18:45:00",null,null,null,null,null,null,null,null,null,null,null,null,null,"SATNPRO1963","29.14","0.40818","5"],
    [21355,"NA","2024-05-07 19:00:00",null,null,null,null,null,null,null,null,null,null,null,null,null,"SATNPRO1963","29.372","0.41142","5"],
    [21356,"NA","2024-05-07 19:15:00",null,null,null,null,null,null,null,null,null,null,null,null,null,"SATNPRO1963","29.242","0.40958","5"],
    [21357,"NA","2024-05-07 19:30:00",null,null,null,null,null,null,null,null,null,null,null,null,null,"SATNPRO1963","29.496","0.41316","5"],
    [21358,"NA","2024-05-07 19:45:00",null,null,null,null,null,null,null,null,null,null,null,null,null,"SATNPRO1963","29.502","0.41324","5"],
    [21359,"NA","2024-05-07 20:00:00",null,null,null,null,null,null,null,null,null,null,null,null,null,"SATNPRO1963","29.476","0.41288","5"],
    [21360,"NA","2024-05-07 20:15:00",null,null,null,null,null,null,null,null,null,null,null,null,null,"SATNPRO1963","29.554","0.41394","5"],
    [21361,"NA","2024-05-07 20:30:00",null,null,null,null,null,null,null,null,null,null,null,null,null,"SATNPRO1963","29.806","0.41748","5"],
    [21362,"NA","2024-05-07 20:45:00",null,null,null,null,null,null,null,null,null,null,null,null,null,"SATNPRO1963","29.704","0.41606","5"],
    [21363,"NA","2024-05-07 21:00:00",null,null,null,null,null,null,null,null,null,null,null,null,null,"SATNPRO1963","29.768","0.417","5"],
    [21364,"NA","2024-05-07 21:15:00",null,null,null,null,null,null,null,null,null,null,null,null,null,"SATNPRO1963","29.902","0.41884","5"],
    [21365,"NA","2024-05-07 21:30:00",null,null,null,null,null,null,null,null,null,null,null,null,null,"SATNPRO1963","29.75","0.4167","5"],
    [21366,"NA","2024-05-07 21:45:00",null,null,null,null,null,null,null,null,null,null,null,null,null,"SATNPRO1963","29.74","0.41658","5"],
    [21367,"NA","2024-05-07 22:00:00",null,null,null,null,null,null,null,null,null,null,null,null,null,"SATNPRO1963","29.574","0.41426","5"],
    [21368,"NA","2024-05-07 22:15:00",null,null,null,null,null,null,null,null,null,null,null,null,null,"SATNPRO1963","29.556","0.41396","5"],
    [21369,"NA","2024-05-07 22:30:00",null,null,null,null,null,null,null,null,null,null,null,null,null,"SATNPRO1963","29.57","0.41418","5"],
    [21370,"NA","2024-05-07 22:45:00",null,null,null,null,null,null,null,null,null,null,null,null,null,"SATNPRO1963","29.672","0.41564","5"],
    [21371,"NA","2024-05-07 23:00:00",null,null,null,null,null,null,null,null,null,null,null,null,null,"SATNPRO1963","29.634","0.41506","5"],
    [21372,"NA","2024-05-07 23:15:00",null,null,null,null,null,null,null,null,null,null,null,null,null,"SATNPRO1963","29.646","0.41526","5"],
    [21373,"NA","2024-05-07 23:30:00",null,null,null,null,null,null,null,null,null,null,null,null,null,"SATNPRO1963","29.776","0.41706","5"],
    [21374,"NA","2024-05-07 23:45:00",null,null,null,null,null,null,null,null,null,null,null,null,null,"SATNPRO1963","29.462","0.41264","5"],
    [21375,"NA","2024-05-08 00:00:00",null,null,null,null,null,null,null,null,null,null,null,null,null,"SATNPRO1963","29.506","0.41328","5"],
    [21376,"NA","2024-05-08 00:15:00",null,null,null,null,null,null,null,null,null,null,null,null,null,"SATNPRO1963","29.736","0.41648","5"],
    [21377,"NA","2024-05-08 00:30:00",null,null,null,null,null,null,null,null,null,null,null,null,null,"SATNPRO1963","29.802","0.4174","5"],
    [21378,"NA","2024-05-08 00:45:00",null,null,null,null,null,null,null,null,null,null,null,null,null,"SATNPRO1963","29.87","0.41838","5"],
    [21379,"NA","2024-05-08 01:00:00",null,null,null,null,null,null,null,null,null,null,null,null,null,"SATNPRO1963","29.788","0.41722","5"],
    [21380,"NA","2024-05-08 01:15:00",null,null,null,null,null,null,null,null,null,null,null,null,null,"SATNPRO1963","29.808","0.41752","5"],
    [21381,"NA","2024-05-08 01:30:00",null,null,null,null,null,null,null,null,null,null,null,null,null,"SATNPRO1963","29.9","0.41886","5"],
    [21382,"NA","2024-05-08 01:45:00",null,null,null,null,null,null,null,null,null,null,null,null,null,"SATNPRO1963","29.87","0.41836","5"],
    [21383,"NA","2024-05-08 02:00:00",null,null,null,null,null,null,null,null,null,null,null,null,null,"SATNPRO1963","30.082","0.42134","5"],
    [21384,"NA","2024-05-08 02:15:00",null,null,null,null,null,null,null,null,null,null,null,null,null,"SATNPRO1963","30.048","0.42088","5"],
    [21385,"NA","2024-05-08 02:30:00",null,null,null,null,null,null,null,null,null,null,null,null,null,"SATNPRO1963","29.892","0.41866","5"],
    [21386,"NA","2024-05-08 02:45:00",null,null,null,null,null,null,null,null,null,null,null,null,null,"SATNPRO1963","30.028","0.42064","5"],
    [21387,"NA","2024-05-08 03:00:00",null,null,null,null,null,null,null,null,null,null,null,null,null,"SATNPRO1963","29.982","0.41996","5"],
    [21388,"NA","2024-05-08 03:15:00",null,null,null,null,null,null,null,null,null,null,null,null,null,"SATNPRO1963","30.146","0.42226","5"],
    [21389,"NA","2024-05-08 03:30:00",null,null,null,null,null,null,null,null,null,null,null,null,null,"SATNPRO1963","30.12","0.42188","5"],
    [21390,"NA","2024-05-08 03:45:00",null,null,null,null,null,null,null,null,null,null,null,null,null,"SATNPRO1963","30.186","0.4228","5"],
    [21391,"NA","2024-05-08 04:00:00",null,null,null,null,null,null,null,null,null,null,null,null,null,"SATNPRO1963","30.227999999999998","0.4234","5"],
    [21392,"NA","2024-05-08 04:15:00",null,null,null,null,null,null,null,null,null,null,null,null,null,"SATNPRO1963","30.067999999999998","0.42114","5"],
    [21393,"NA","2024-05-08 04:30:00",null,null,null,null,null,null,null,null,null,null,null,null,null,"SATNPRO1963","30.072","0.42118","5"],
    [21394,"NA","2024-05-08 04:45:00",null,null,null,null,null,null,null,null,null,null,null,null,null,"SATNPRO1963","30.056","0.42098","5"],
    [21395,"NA","2024-05-08 05:00:00",null,null,null,null,null,null,null,null,null,null,null,null,null,"SATNPRO1963","30.19","0.4229","5"],
    [21396,"NA","2024-05-08 05:15:00",null,null,null,null,null,null,null,null,null,null,null,null,null,"SATNPRO1963","30.356","0.4252","5"],
    [21397,"NA","2024-05-08 05:30:00",null,null,null,null,null,null,null,null,null,null,null,null,null,"SATNPRO1963","30.04","0.42076","5"],
    [21398,"NA","2024-05-08 05:45:00",null,null,null,null,null,null,null,null,null,null,null,null,null,"SATNPRO1963","30.232","0.42346","5"],
    [21399,"NA","2024-05-08 06:00:00",null,null,null,null,null,null,null,null,null,null,null,null,null,"SATNPRO1963","30.02","0.4205","5"],
    [21400,"NA","2024-05-08 06:15:00",null,null,null,null,null,null,null,null,null,null,null,null,null,"SATNPRO1963","30.294","0.42428","5"],
    [21401,"NA","2024-05-08 06:30:00",null,null,null,null,null,null,null,null,null,null,null,null,null,"SATNPRO1963","29.98","0.4199","5"],
    [21402,"NA","2024-05-08 06:45:00",null,null,null,null,null,null,null,null,null,null,null,null,null,"SATNPRO1963","30.03","0.4206","5"],
    [21403,"NA","2024-05-08 07:00:00",null,null,null,null,null,null,null,null,null,null,null,null,null,"SATNPRO1963","29.998","0.4202","5"],
    [21404,"NA","2024-05-08 07:15:00",null,null,null,null,null,null,null,null,null,null,null,null,null,"SATNPRO1963","29.983999999999998","0.41998","5"],
    [21405,"NA","2024-05-08 07:30:00",null,null,null,null,null,null,null,null,null,null,null,null,null,"SATNPRO1963","29.914","0.419","5"],
    [21406,"NA","2024-05-08 07:45:00",null,null,null,null,null,null,null,null,null,null,null,null,null,"SATNPRO1963","30.044","0.4208","5"],
    [21407,"NA","2024-05-08 08:00:00",null,null,null,null,null,null,null,null,null,null,null,null,null,"SATNPRO1963","30.006","0.4203","5"],
    [21408,"NA","2024-05-08 08:15:00",null,null,null,null,null,null,null,null,null,null,null,null,null,"SATNPRO1963","30.056","0.42102","5"],
    [21409,"NA","2024-05-08 08:30:00",null,null,null,null,null,null,null,null,null,null,null,null,null,"SATNPRO1963","30.148","0.42226","5"],
    [21410,"NA","2024-05-08 08:45:00",null,null,null,null,null,null,null,null,null,null,null,null,null,"SATNPRO1963","29.954","0.41954","5"],
    [21411,"NA","2024-05-08 09:00:00",null,null,null,null,null,null,null,null,null,null,null,null,null,"SATNPRO1963","30.068","0.4212","5"],
    [21412,"NA","2024-05-08 09:15:00",null,null,null,null,null,null,null,null,null,null,null,null,null,"SATNPRO1963","30.052","0.42088","5"],
    [21413,"NA","2024-05-08 09:30:00",null,null,null,null,null,null,null,null,null,null,null,null,null,"SATNPRO1963","29.86","0.41826","5"],
    [21414,"NA","2024-05-08 09:45:00",null,null,null,null,null,null,null,null,null,null,null,null,null,"SATNPRO1963","29.814","0.41758","5"],
    [21415,"NA","2024-05-08 10:00:00",null,null,null,null,null,null,null,null,null,null,null,null,null,"SATNPRO1963","29.866","0.41836","5"],
    [21416,"NA","2024-05-08 10:15:00",null,null,null,null,null,null,null,null,null,null,null,null,null,"SATNPRO1963","30.148","0.4223","5"],
    [21417,"NA","2024-05-08 10:30:00",null,null,null,null,null,null,null,null,null,null,null,null,null,"SATNPRO1963","29.776","0.41706","5"],
    [21418,"NA","2024-05-08 10:45:00",null,null,null,null,null,null,null,null,null,null,null,null,null,"SATNPRO1963","30.048000000000002","0.42086","5"],
    [21419,"NA","2024-05-08 11:00:00",null,null,null,null,null,null,null,null,null,null,null,null,null,"SATNPRO1963","29.282","0.41012","5"],
    [21420,"NA","2024-05-08 11:15:00",null,null,null,null,null,null,null,null,null,null,null,null,null,"SATNPRO1963","30.028","0.42058","5"],
    [21421,"NA","2024-05-08 11:30:00",null,null,null,null,null,null,null,null,null,null,null,null,null,"SATNPRO1963","30.169999999999998","0.42262","5"],
    [21422,"NA","2024-05-08 11:45:00",null,null,null,null,null,null,null,null,null,null,null,null,null,"SATNPRO1963","30.016000000000002","0.4204","5"],
    [21423,"NA","2024-05-08 12:00:00",null,null,null,null,null,null,null,null,null,null,null,null,null,"SATNPRO1963","29.89","0.41862","5"],
    [21424,"NA","2024-05-08 12:15:00",null,null,null,null,null,null,null,null,null,null,null,null,null,"SATNPRO1963","29.932","0.41924","5"],
    [21425,"NA","2024-05-08 12:30:00",null,null,null,null,null,null,null,null,null,null,null,null,null,"SATNPRO1963","29.919999999999998","0.4191","5"],
    [21426,"NA","2024-05-08 12:45:00",null,null,null,null,null,null,null,null,null,null,null,null,null,"SATNPRO1963","29.888","0.4186","5"],
    [21427,"NA","2024-05-08 13:00:00",null,null,null,null,null,null,null,null,null,null,null,null,null,"SATNPRO1963","29.834","0.41788","5"],
    [21428,"NA","2024-05-08 13:15:00",null,null,null,null,null,null,null,null,null,null,null,null,null,"SATNPRO1963","29.662","0.41548","5"],
    [21429,"NA","2024-05-08 13:30:00",null,null,null,null,null,null,null,null,null,null,null,null,null,"SATNPRO1963","29.788","0.41724","5"],
    [21430,"NA","2024-05-08 13:45:00",null,null,null,null,null,null,null,null,null,null,null,null,null,"SATNPRO1963","29.782","0.41716","5"],
    [21431,"NA","2024-05-08 14:00:00",null,null,null,null,null,null,null,null,null,null,null,null,null,"SATNPRO1963","29.666","0.41554","5"],
    [21432,"NA","2024-05-08 14:15:00",null,null,null,null,null,null,null,null,null,null,null,null,null,"SATNPRO1963","29.68","0.41574","5"],
    [21433,"NA","2024-05-08 14:30:00",null,null,null,null,null,null,null,null,null,null,null,null,null,"SATNPRO1963","29.974","0.41984","5"],
    [21434,"NA","2024-05-08 14:45:00",null,null,null,null,null,null,null,null,null,null,null,null,null,"SATNPRO1963","29.842","0.418","5"],
    [21435,"NA","2024-05-08 15:00:00",null,null,null,null,null,null,null,null,null,null,null,null,null,"SATNPRO1963","29.914","0.419","5"],
    [21436,"NA","2024-05-08 15:15:00",null,null,null,null,null,null,null,null,null,null,null,null,null,"SATNPRO1963","29.614","0.4148","5"],
    [21437,"NA","2024-05-08 15:30:00",null,null,null,null,null,null,null,null,null,null,null,null,null,"SATNPRO1963","29.63","0.415","5"],
    [21438,"NA","2024-05-08 15:45:00",null,null,null,null,null,null,null,null,null,null,null,null,null,"SATNPRO1963","29.492","0.41306","5"],
    [21439,"NA","2024-05-08 16:00:00",null,null,null,null,null,null,null,null,null,null,null,null,null,"SATNPRO1963","29.458000000000002","0.4126","5"],
    [21440,"NA","2024-05-08 16:15:00",null,null,null,null,null,null,null,null,null,null,null,null,null,"SATNPRO1963","29.612000000000002","0.41476","5"],
    [21441,"NA","2024-05-08 16:30:00",null,null,null,null,null,null,null,null,null,null,null,null,null,"SATNPRO1963","29.664","0.41548","5"],
    [21442,"NA","2024-05-08 16:45:00",null,null,null,null,null,null,null,null,null,null,null,null,null,"SATNPRO1963","29.588","0.41446","5"],
    [21443,"NA","2024-05-08 17:00:00",null,null,null,null,null,null,null,null,null,null,null,null,null,"SATNPRO1963","29.906","0.41888","5"],
    [21444,"NA","2024-05-08 17:15:00",null,null,null,null,null,null,null,null,null,null,null,null,null,"SATNPRO1963","29.698","0.41596","5"],
    [21445,"NA","2024-05-08 17:30:00",null,null,null,null,null,null,null,null,null,null,null,null,null,"SATNPRO1963","29.692","0.41592","5"],
    [21446,"NA","2024-05-08 17:45:00",null,null,null,null,null,null,null,null,null,null,null,null,null,"SATNPRO1963","29.588","0.41442","5"],
    [21447,"NA","2024-05-08 18:00:00",null,null,null,null,null,null,null,null,null,null,null,null,null,"SATNPRO1963","29.796","0.41736","5"],
    [21448,"NA","2024-05-08 18:15:00",null,null,null,null,null,null,null,null,null,null,null,null,null,"SATNPRO1963","29.658","0.41544","5"],
    [21449,"NA","2024-05-08 18:30:00",null,null,null,null,null,null,null,null,null,null,null,null,null,"SATNPRO1963","29.5","0.41318","5"],
    [21450,"NA","2024-05-08 18:45:00",null,null,null,null,null,null,null,null,null,null,null,null,null,"SATNPRO1963","29.46","0.41266","5"],
    [21451,"NA","2024-05-08 19:00:00",null,null,null,null,null,null,null,null,null,null,null,null,null,"SATNPRO1963","29.398","0.41176","5"],
    [21452,"NA","2024-05-08 19:15:00",null,null,null,null,null,null,null,null,null,null,null,null,null,"SATNPRO1963","29.366","0.41132","5"],
    [21453,"NA","2024-05-08 19:30:00",null,null,null,null,null,null,null,null,null,null,null,null,null,"SATNPRO1963","29.53","0.41364","5"],
    [21454,"NA","2024-05-08 19:45:00",null,null,null,null,null,null,null,null,null,null,null,null,null,"SATNPRO1963","29.32","0.41064","5"],
    [21455,"NA","2024-05-08 20:00:00",null,null,null,null,null,null,null,null,null,null,null,null,null,"SATNPRO1963","29.252","0.40972","5"],
    [21456,"NA","2024-05-08 20:15:00",null,null,null,null,null,null,null,null,null,null,null,null,null,"SATNPRO1963","29.096","0.40756","5"],
    [21457,"NA","2024-05-08 20:30:00",null,null,null,null,null,null,null,null,null,null,null,null,null,"SATNPRO1963","29.25","0.40972","5"],
    [21458,"NA","2024-05-08 20:45:00",null,null,null,null,null,null,null,null,null,null,null,null,null,"SATNPRO1963","28.948","0.40544","5"],
    [21459,"NA","2024-05-08 21:00:00",null,null,null,null,null,null,null,null,null,null,null,null,null,"SATNPRO1963","29.198","0.40894","5"],
    [21460,"NA","2024-05-08 21:15:00",null,null,null,null,null,null,null,null,null,null,null,null,null,"SATNPRO1963","29.15","0.40826","5"],
    [21461,"NA","2024-05-08 21:30:00",null,null,null,null,null,null,null,null,null,null,null,null,null,"SATNPRO1963","29.208","0.4091","5"],
    [21462,"NA","2024-05-08 21:45:00",null,null,null,null,null,null,null,null,null,null,null,null,null,"SATNPRO1963","28.984","0.40598","5"],
    [21463,"NA","2024-05-08 22:00:00",null,null,null,null,null,null,null,null,null,null,null,null,null,"SATNPRO1963","29.024","0.40654","5"],
    [21464,"NA","2024-05-08 22:15:00",null,null,null,null,null,null,null,null,null,null,null,null,null,"SATNPRO1963","29.194","0.40894","5"],
    [21465,"NA","2024-05-08 22:30:00",null,null,null,null,null,null,null,null,null,null,null,null,null,"SATNPRO1963","29.108","0.4077","5"],
    [21466,"NA","2024-05-08 22:45:00",null,null,null,null,null,null,null,null,null,null,null,null,null,"SATNPRO1963","29.266","0.40994","5"],
    [21467,"NA","2024-05-08 23:00:00",null,null,null,null,null,null,null,null,null,null,null,null,null,"SATNPRO1963","29.124","0.40792","5"],
    [21468,"NA","2024-05-08 23:15:00",null,null,null,null,null,null,null,null,null,null,null,null,null,"SATNPRO1963","29.227999999999998","0.4094","5"],
    [21469,"NA","2024-05-08 23:30:00",null,null,null,null,null,null,null,null,null,null,null,null,null,"SATNPRO1963","29.182000000000002","0.40874","5"],
    [21470,"NA","2024-05-08 23:45:00",null,null,null,null,null,null,null,null,null,null,null,null,null,"SATNPRO1963","29.094","0.40752","5"],
    [21471,"NA","2024-05-09 00:00:00",null,null,null,null,null,null,null,null,null,null,null,null,null,"SATNPRO1963","29.198","0.40896","5"],
    [21472,"NA","2024-05-09 00:15:00",null,null,null,null,null,null,null,null,null,null,null,null,null,"SATNPRO1963","29.204","0.40906","5"],
    [21473,"NA","2024-05-09 00:30:00",null,null,null,null,null,null,null,null,null,null,null,null,null,"SATNPRO1963","29.804000000000002","0.41748","5"],
    [21474,"NA","2024-05-09 00:45:00",null,null,null,null,null,null,null,null,null,null,null,null,null,"SATNPRO1963","29.535999999999998","0.41368","5"],
    [21475,"NA","2024-05-09 01:00:00",null,null,null,null,null,null,null,null,null,null,null,null,null,"SATNPRO1963","29.392","0.41166","5"],
    [21476,"NA","2024-05-09 01:15:00",null,null,null,null,null,null,null,null,null,null,null,null,null,"SATNPRO1963","29.398","0.41178","5"],
    [21477,"NA","2024-05-09 01:30:00",null,null,null,null,null,null,null,null,null,null,null,null,null,"SATNPRO1963","29.358","0.41118","5"],
    [21478,"NA","2024-05-09 01:45:00",null,null,null,null,null,null,null,null,null,null,null,null,null,"SATNPRO1963","29.536","0.41372","5"],
    [21479,"NA","2024-05-09 02:00:00",null,null,null,null,null,null,null,null,null,null,null,null,null,"SATNPRO1963","29.54","0.41376","5"],
    [21480,"NA","2024-05-09 02:15:00",null,null,null,null,null,null,null,null,null,null,null,null,null,"SATNPRO1963","29.32","0.41068","5"],
    [21481,"NA","2024-05-09 02:30:00",null,null,null,null,null,null,null,null,null,null,null,null,null,"SATNPRO1963","29.634","0.41508","5"],
    [21482,"NA","2024-05-09 02:45:00",null,null,null,null,null,null,null,null,null,null,null,null,null,"SATNPRO1963","29.618","0.41488","5"],
    [21483,"NA","2024-05-09 03:00:00",null,null,null,null,null,null,null,null,null,null,null,null,null,"SATNPRO1963","29.486","0.41302","5"],
    [21484,"NA","2024-05-09 03:15:00",null,null,null,null,null,null,null,null,null,null,null,null,null,"SATNPRO1963","29.596","0.41456","5"],
    [21485,"NA","2024-05-09 03:30:00",null,null,null,null,null,null,null,null,null,null,null,null,null,"SATNPRO1963","29.424","0.41216","5"],
    [21486,"NA","2024-05-09 03:45:00",null,null,null,null,null,null,null,null,null,null,null,null,null,"SATNPRO1963","29.42","0.41208","5"],
    [21487,"NA","2024-05-09 04:00:00",null,null,null,null,null,null,null,null,null,null,null,null,null,"SATNPRO1963","29.45","0.41246","5"],
    [21488,"NA","2024-05-09 04:15:00",null,null,null,null,null,null,null,null,null,null,null,null,null,"SATNPRO1963","29.54","0.41382","5"],
    [21489,"NA","2024-05-09 04:30:00",null,null,null,null,null,null,null,null,null,null,null,null,null,"SATNPRO1963","29.63","0.415","5"],
    [21490,"NA","2024-05-09 04:45:00",null,null,null,null,null,null,null,null,null,null,null,null,null,"SATNPRO1963","29.612000000000002","0.41476","5"],
    [21491,"NA","2024-05-09 05:00:00",null,null,null,null,null,null,null,null,null,null,null,null,null,"SATNPRO1963","29.684","0.4158","5"],
    [21492,"NA","2024-05-09 05:15:00",null,null,null,null,null,null,null,null,null,null,null,null,null,"SATNPRO1963","29.572","0.41422","5"],
    [21493,"NA","2024-05-09 05:30:00",null,null,null,null,null,null,null,null,null,null,null,null,null,"SATNPRO1963","29.534","0.41368","5"],
    [21494,"NA","2024-05-09 05:45:00",null,null,null,null,null,null,null,null,null,null,null,null,null,"SATNPRO1963","29.701999999999998","0.41602","5"],
    [21495,"NA","2024-05-09 06:00:00",null,null,null,null,null,null,null,null,null,null,null,null,null,"SATNPRO1963","29.588","0.41444","5"],
    [21496,"NA","2024-05-09 06:15:00",null,null,null,null,null,null,null,null,null,null,null,null,null,"SATNPRO1963","29.656","0.41536","5"],
    [21497,"NA","2024-05-09 06:30:00",null,null,null,null,null,null,null,null,null,null,null,null,null,"SATNPRO1963","29.708000000000002","0.4161","5"],
    [21498,"NA","2024-05-09 06:45:00",null,null,null,null,null,null,null,null,null,null,null,null,null,"SATNPRO1963","29.642","0.4152","5"],
    [21499,"NA","2024-05-09 07:00:00",null,null,null,null,null,null,null,null,null,null,null,null,null,"SATNPRO1963","29.648","0.4153","5"],
    [21500,"NA","2024-05-09 07:15:00",null,null,null,null,null,null,null,null,null,null,null,null,null,"SATNPRO1963","29.708000000000002","0.41614","5"],
    [21501,"NA","2024-05-09 07:30:00",null,null,null,null,null,null,null,null,null,null,null,null,null,"SATNPRO1963","29.778","0.41708","5"],
    [21502,"NA","2024-05-09 07:45:00",null,null,null,null,null,null,null,null,null,null,null,null,null,"SATNPRO1963","29.848","0.41806","5"],
    [21503,"NA","2024-05-09 08:00:00",null,null,null,null,null,null,null,null,null,null,null,null,null,"SATNPRO1963","29.798","0.41738","5"],
    [21504,"NA","2024-05-09 08:15:00",null,null,null,null,null,null,null,null,null,null,null,null,null,"SATNPRO1963","29.72","0.41628","5"],
    [21505,"NA","2024-05-09 08:30:00",null,null,null,null,null,null,null,null,null,null,null,null,null,"SATNPRO1963","29.74","0.41658","5"],
    [21506,"NA","2024-05-09 08:45:00",null,null,null,null,null,null,null,null,null,null,null,null,null,"SATNPRO1963","29.742","0.41658","5"],
    [21507,"NA","2024-05-09 09:00:00",null,null,null,null,null,null,null,null,null,null,null,null,null,"SATNPRO1963","29.686","0.41582","5"],
    [21508,"NA","2024-05-09 09:15:00",null,null,null,null,null,null,null,null,null,null,null,null,null,"SATNPRO1963","29.672","0.4156","5"],
    [21509,"NA","2024-05-09 09:30:00",null,null,null,null,null,null,null,null,null,null,null,null,null,"SATNPRO1963","29.5","0.41318","5"],
    [21510,"NA","2024-05-09 09:45:00",null,null,null,null,null,null,null,null,null,null,null,null,null,"SATNPRO1963","29.382","0.41154","5"],
    [21511,"NA","2024-05-09 10:00:00",null,null,null,null,null,null,null,null,null,null,null,null,null,"SATNPRO1963","29.374","0.4114","5"],
    [21512,"NA","2024-05-09 10:15:00",null,null,null,null,null,null,null,null,null,null,null,null,null,"SATNPRO1963","29.732","0.41646","5"],
    [21513,"NA","2024-05-09 10:30:00",null,null,null,null,null,null,null,null,null,null,null,null,null,"SATNPRO1963","29.686","0.41582","5"],
    [21514,"NA","2024-05-09 10:45:00",null,null,null,null,null,null,null,null,null,null,null,null,null,"SATNPRO1963","29.724","0.41636","5"],
    [21515,"NA","2024-05-09 11:00:00",null,null,null,null,null,null,null,null,null,null,null,null,null,"SATNPRO1963","29.594","0.4145","5"],
    [21516,"NA","2024-05-09 11:15:00",null,null,null,null,null,null,null,null,null,null,null,null,null,"SATNPRO1963","29.62","0.4149","5"],
    [21517,"NA","2024-05-09 11:30:00",null,null,null,null,null,null,null,null,null,null,null,null,null,"SATNPRO1963","29.7","0.41602","5"],
    [21518,"NA","2024-05-09 11:45:00",null,null,null,null,null,null,null,null,null,null,null,null,null,"SATNPRO1963","29.602","0.41462","5"],
    [21519,"NA","2024-05-09 12:00:00",null,null,null,null,null,null,null,null,null,null,null,null,null,"SATNPRO1963","29.612000000000002","0.41478","5"],
    [21520,"NA","2024-05-09 12:15:00",null,null,null,null,null,null,null,null,null,null,null,null,null,"SATNPRO1963","29.624","0.41492","5"],
    [21521,"NA","2024-05-09 12:30:00",null,null,null,null,null,null,null,null,null,null,null,null,null,"SATNPRO1963","29.738","0.41652","5"],
    [21522,"NA","2024-05-09 12:45:00",null,null,null,null,null,null,null,null,null,null,null,null,null,"SATNPRO1963","29.874","0.41846","5"],
    [21523,"NA","2024-05-09 13:00:00",null,null,null,null,null,null,null,null,null,null,null,null,null,"SATNPRO1963","29.946","0.41946","5"],
    [21524,"NA","2024-05-09 13:15:00",null,null,null,null,null,null,null,null,null,null,null,null,null,"SATNPRO1963","30.036","0.4207","5"],
    [21525,"NA","2024-05-09 13:30:00",null,null,null,null,null,null,null,null,null,null,null,null,null,"SATNPRO1963","29.848","0.41808","5"],
    [21526,"NA","2024-05-09 13:45:00",null,null,null,null,null,null,null,null,null,null,null,null,null,"SATNPRO1963","29.658","0.4154","5"],
    [21527,"NA","2024-05-09 14:00:00",null,null,null,null,null,null,null,null,null,null,null,null,null,"SATNPRO1963","29.72","0.41626","5"],
    [21528,"NA","2024-05-09 14:15:00",null,null,null,null,null,null,null,null,null,null,null,null,null,"SATNPRO1963","29.338","0.41094","5"],
    [21529,"NA","2024-05-09 14:30:00",null,null,null,null,null,null,null,null,null,null,null,null,null,"SATNPRO1963","29.492","0.41308","5"],
    [21530,"NA","2024-05-09 14:45:00",null,null,null,null,null,null,null,null,null,null,null,null,null,"SATNPRO1963","29.490000000000002","0.41308","5"],
    [21531,"NA","2024-05-09 15:00:00",null,null,null,null,null,null,null,null,null,null,null,null,null,"SATNPRO1963","29.462","0.41268","5"],
    [21532,"NA","2024-05-09 15:15:00",null,null,null,null,null,null,null,null,null,null,null,null,null,"SATNPRO1963","29.508","0.4133","5"],
    [21533,"NA","2024-05-09 15:30:00",null,null,null,null,null,null,null,null,null,null,null,null,null,"SATNPRO1963","29.896","0.41874","5"],
    [21534,"NA","2024-05-09 15:45:00",null,null,null,null,null,null,null,null,null,null,null,null,null,"SATNPRO1963","29.451999999999998","0.41252","5"],
    [21535,"NA","2024-05-09 16:00:00",null,null,null,null,null,null,null,null,null,null,null,null,null,"SATNPRO1963","29.526","0.41356","5"],
    [21536,"NA","2024-05-09 16:15:00",null,null,null,null,null,null,null,null,null,null,null,null,null,"SATNPRO1963","29.476","0.41282","5"],
    [21537,"NA","2024-05-09 16:30:00",null,null,null,null,null,null,null,null,null,null,null,null,null,"SATNPRO1963","29.58","0.41432","5"],
    [21538,"NA","2024-05-09 16:45:00",null,null,null,null,null,null,null,null,null,null,null,null,null,"SATNPRO1963","29.355999999999998","0.4112","5"],
    [21539,"NA","2024-05-09 17:00:00",null,null,null,null,null,null,null,null,null,null,null,null,null,"SATNPRO1963","29.348","0.41106","5"],
    [21540,"NA","2024-05-09 17:15:00",null,null,null,null,null,null,null,null,null,null,null,null,null,"SATNPRO1963","29.336","0.41088","5"],
    [21541,"NA","2024-05-09 17:30:00",null,null,null,null,null,null,null,null,null,null,null,null,null,"SATNPRO1963","29.227999999999998","0.4094","5"],
    [21542,"NA","2024-05-09 17:45:00",null,null,null,null,null,null,null,null,null,null,null,null,null,"SATNPRO1963","29.466","0.41278","5"],
    [21543,"NA","2024-05-09 18:00:00",null,null,null,null,null,null,null,null,null,null,null,null,null,"SATNPRO1963","29.612","0.41476","5"],
    [21544,"NA","2024-05-09 18:15:00",null,null,null,null,null,null,null,null,null,null,null,null,null,"SATNPRO1963","29.152","0.40834","5"],
    [21545,"NA","2024-05-09 18:30:00",null,null,null,null,null,null,null,null,null,null,null,null,null,"SATNPRO1963","29.317999999999998","0.41064","5"],
    [21546,"NA","2024-05-09 18:45:00",null,null,null,null,null,null,null,null,null,null,null,null,null,"SATNPRO1963","29.37","0.41134","5"],
    [21547,"NA","2024-05-09 19:00:00",null,null,null,null,null,null,null,null,null,null,null,null,null,"SATNPRO1963","29.218","0.40926","5"],
    [21548,"NA","2024-05-09 19:15:00",null,null,null,null,null,null,null,null,null,null,null,null,null,"SATNPRO1963","29.322","0.41074","5"],
    [21549,"NA","2024-05-09 19:30:00",null,null,null,null,null,null,null,null,null,null,null,null,null,"SATNPRO1963","29.695999999999998","0.416","5"],
    [21550,"NA","2024-05-09 19:45:00",null,null,null,null,null,null,null,null,null,null,null,null,null,"SATNPRO1963","29.496000000000002","0.41314","5"],
    [21551,"NA","2024-05-09 20:00:00",null,null,null,null,null,null,null,null,null,null,null,null,null,"SATNPRO1963","29.618","0.41488","5"],
    [21552,"NA","2024-05-09 20:15:00",null,null,null,null,null,null,null,null,null,null,null,null,null,"SATNPRO1963","29.637999999999998","0.41514","5"],
    [21553,"NA","2024-05-09 20:30:00",null,null,null,null,null,null,null,null,null,null,null,null,null,"SATNPRO1963","29.534","0.41368","5"],
    [21554,"NA","2024-05-09 20:45:00",null,null,null,null,null,null,null,null,null,null,null,null,null,"SATNPRO1963","30.154","0.42232","5"],
    [21555,"NA","2024-05-09 21:00:00",null,null,null,null,null,null,null,null,null,null,null,null,null,"SATNPRO1963","29.066","0.40714","5"],
    [21556,"NA","2024-05-09 21:15:00",null,null,null,null,null,null,null,null,null,null,null,null,null,"SATNPRO1963","29.099999999999998","0.4076","5"],
    [21557,"NA","2024-05-09 21:30:00",null,null,null,null,null,null,null,null,null,null,null,null,null,"SATNPRO1963","29.246","0.40966","5"],
    [21558,"NA","2024-05-09 21:45:00",null,null,null,null,null,null,null,null,null,null,null,null,null,"SATNPRO1963","29.806","0.4175","5"],
    [21559,"NA","2024-05-09 22:00:00",null,null,null,null,null,null,null,null,null,null,null,null,null,"SATNPRO1963","29.358","0.41118","5"],
    [21560,"NA","2024-05-09 22:15:00",null,null,null,null,null,null,null,null,null,null,null,null,null,"SATNPRO1963","29.382","0.41156","5"],
    [21561,"NA","2024-05-09 22:30:00",null,null,null,null,null,null,null,null,null,null,null,null,null,"SATNPRO1963","29.486","0.41296","5"],
    [21562,"NA","2024-05-09 22:45:00",null,null,null,null,null,null,null,null,null,null,null,null,null,"SATNPRO1963","29.169999999999998","0.40856","5"],
    [21563,"NA","2024-05-09 23:00:00",null,null,null,null,null,null,null,null,null,null,null,null,null,"SATNPRO1963","29.142","0.4082","5"],
    [21564,"NA","2024-05-09 23:15:00",null,null,null,null,null,null,null,null,null,null,null,null,null,"SATNPRO1963","29.428","0.41216","5"],
    [21565,"NA","2024-05-09 23:30:00",null,null,null,null,null,null,null,null,null,null,null,null,null,"SATNPRO1963","29.272000000000002","0.41004","5"],
    [21566,"NA","2024-05-09 23:45:00",null,null,null,null,null,null,null,null,null,null,null,null,null,"SATNPRO1963","29.294","0.41034","5"],
    [21567,"NA","2024-05-10 00:00:00",null,null,null,null,null,null,null,null,null,null,null,null,null,"SATNPRO1963","29.28","0.41012","5"],
    [21568,"NA","2024-05-10 00:15:00",null,null,null,null,null,null,null,null,null,null,null,null,null,"SATNPRO1963","29.232","0.40944","5"],
    [21569,"NA","2024-05-10 00:30:00",null,null,null,null,null,null,null,null,null,null,null,null,null,"SATNPRO1963","29.398","0.41182","5"],
    [21570,"NA","2024-05-10 00:45:00",null,null,null,null,null,null,null,null,null,null,null,null,null,"SATNPRO1963","29.226","0.40934","5"],
    [21571,"NA","2024-05-10 01:00:00",null,null,null,null,null,null,null,null,null,null,null,null,null,"SATNPRO1963","29.298000000000002","0.41036","5"],
    [21572,"NA","2024-05-10 01:15:00",null,null,null,null,null,null,null,null,null,null,null,null,null,"SATNPRO1963","29.23","0.40942","5"],
    [21573,"NA","2024-05-10 01:30:00",null,null,null,null,null,null,null,null,null,null,null,null,null,"SATNPRO1963","29.306","0.41048","5"],
    [21574,"NA","2024-05-10 01:45:00",null,null,null,null,null,null,null,null,null,null,null,null,null,"SATNPRO1963","29.34","0.41092","5"],
    [21575,"NA","2024-05-10 02:00:00",null,null,null,null,null,null,null,null,null,null,null,null,null,"SATNPRO1963","29.32","0.4107","5"],
    [21576,"NA","2024-05-10 02:15:00",null,null,null,null,null,null,null,null,null,null,null,null,null,"SATNPRO1963","29.456","0.4126","5"],
    [21577,"NA","2024-05-10 02:30:00",null,null,null,null,null,null,null,null,null,null,null,null,null,"SATNPRO1963","29.566","0.41414","5"],
    [21578,"NA","2024-05-10 02:45:00",null,null,null,null,null,null,null,null,null,null,null,null,null,"SATNPRO1963","29.48","0.4129","5"],
    [21579,"NA","2024-05-10 03:00:00",null,null,null,null,null,null,null,null,null,null,null,null,null,"SATNPRO1963","29.69","0.41582","5"],
    [21580,"NA","2024-05-10 03:15:00",null,null,null,null,null,null,null,null,null,null,null,null,null,"SATNPRO1963","29.87","0.41836","5"],
    [21581,"NA","2024-05-10 03:30:00",null,null,null,null,null,null,null,null,null,null,null,null,null,"SATNPRO1963","29.864","0.41828","5"],
    [21582,"NA","2024-05-10 03:45:00",null,null,null,null,null,null,null,null,null,null,null,null,null,"SATNPRO1963","30.278","0.4241","5"],
    [21583,"NA","2024-05-10 04:00:00",null,null,null,null,null,null,null,null,null,null,null,null,null,"SATNPRO1963","30.548","0.4279","5"],
    [21584,"NA","2024-05-10 04:15:00",null,null,null,null,null,null,null,null,null,null,null,null,null,"SATNPRO1963","30.832","0.43186","5"],
    [21585,"NA","2024-05-10 04:30:00",null,null,null,null,null,null,null,null,null,null,null,null,null,"SATNPRO1963","30.742","0.43062","5"],
    [21586,"NA","2024-05-10 04:45:00",null,null,null,null,null,null,null,null,null,null,null,null,null,"SATNPRO1963","30.808","0.4315","5"],
    [21587,"NA","2024-05-10 05:00:00",null,null,null,null,null,null,null,null,null,null,null,null,null,"SATNPRO1963","30.782","0.43116","5"],
    [21588,"NA","2024-05-10 05:15:00",null,null,null,null,null,null,null,null,null,null,null,null,null,"SATNPRO1963","31.072","0.43524","5"],
    [21589,"NA","2024-05-10 05:30:00",null,null,null,null,null,null,null,null,null,null,null,null,null,"SATNPRO1963","30.988","0.43404","5"],
    [21590,"NA","2024-05-10 05:45:00",null,null,null,null,null,null,null,null,null,null,null,null,null,"SATNPRO1963","31.148","0.43628","5"],
    [21591,"NA","2024-05-10 06:00:00",null,null,null,null,null,null,null,null,null,null,null,null,null,"SATNPRO1963","31.206","0.4371","5"],
    [21592,"NA","2024-05-10 06:15:00",null,null,null,null,null,null,null,null,null,null,null,null,null,"SATNPRO1963","30.906","0.4329","5"],
    [21593,"NA","2024-05-10 06:30:00",null,null,null,null,null,null,null,null,null,null,null,null,null,"SATNPRO1963","30.852","0.43216","5"],
    [21594,"NA","2024-05-10 06:45:00",null,null,null,null,null,null,null,null,null,null,null,null,null,"SATNPRO1963","31.192","0.43688","5"],
    [21595,"NA","2024-05-10 07:00:00",null,null,null,null,null,null,null,null,null,null,null,null,null,"SATNPRO1963","30.992","0.43412","5"],
    [21596,"NA","2024-05-10 07:15:00",null,null,null,null,null,null,null,null,null,null,null,null,null,"SATNPRO1963","31.028","0.43458","5"],
    [21597,"NA","2024-05-10 07:30:00",null,null,null,null,null,null,null,null,null,null,null,null,null,"SATNPRO1963","30.872","0.4324","5"],
    [21598,"NA","2024-05-10 07:45:00",null,null,null,null,null,null,null,null,null,null,null,null,null,"SATNPRO1963","30.992","0.4341","5"],
    [21599,"NA","2024-05-10 08:00:00",null,null,null,null,null,null,null,null,null,null,null,null,null,"SATNPRO1963","31.068","0.43518","5"],
    [21600,"NA","2024-05-10 08:15:00",null,null,null,null,null,null,null,null,null,null,null,null,null,"SATNPRO1963","31.188000000000002","0.43682","5"],
    [21601,"NA","2024-05-10 08:30:00",null,null,null,null,null,null,null,null,null,null,null,null,null,"SATNPRO1963","31.23","0.43744","5"],
    [21602,"NA","2024-05-10 08:45:00",null,null,null,null,null,null,null,null,null,null,null,null,null,"SATNPRO1963","31.212","0.4372","5"],
    [21603,"NA","2024-05-10 09:00:00",null,null,null,null,null,null,null,null,null,null,null,null,null,"SATNPRO1963","31.272","0.43802","5"],
    [21604,"NA","2024-05-10 09:15:00",null,null,null,null,null,null,null,null,null,null,null,null,null,"SATNPRO1963","31.396","0.43972","5"],
    [21605,"NA","2024-05-10 09:30:00",null,null,null,null,null,null,null,null,null,null,null,null,null,"SATNPRO1963","31.358","0.43922","5"],
    [21606,"NA","2024-05-10 09:45:00",null,null,null,null,null,null,null,null,null,null,null,null,null,"SATNPRO1963","31.348","0.4391","5"],
    [21607,"NA","2024-05-10 10:00:00",null,null,null,null,null,null,null,null,null,null,null,null,null,"SATNPRO1963","31.296","0.43834","5"],
    [21608,"NA","2024-05-10 10:15:00",null,null,null,null,null,null,null,null,null,null,null,null,null,"SATNPRO1963","31.372","0.4394","5"],
    [21609,"NA","2024-05-10 10:30:00",null,null,null,null,null,null,null,null,null,null,null,null,null,"SATNPRO1963","31.13","0.43604","5"],
    [21610,"NA","2024-05-10 10:45:00",null,null,null,null,null,null,null,null,null,null,null,null,null,"SATNPRO1963","31.116","0.43586","5"],
    [21611,"NA","2024-05-10 11:00:00",null,null,null,null,null,null,null,null,null,null,null,null,null,"SATNPRO1963","31.164","0.4365","5"],
    [21612,"NA","2024-05-10 11:15:00",null,null,null,null,null,null,null,null,null,null,null,null,null,"SATNPRO1963","31.27","0.43798","5"],
    [21613,"NA","2024-05-10 11:30:00",null,null,null,null,null,null,null,null,null,null,null,null,null,"SATNPRO1963","31.378","0.4395","5"],
    [21614,"NA","2024-05-10 11:45:00",null,null,null,null,null,null,null,null,null,null,null,null,null,"SATNPRO1963","31.274","0.43802","5"],
    [21615,"NA","2024-05-10 12:00:00",null,null,null,null,null,null,null,null,null,null,null,null,null,"SATNPRO1963","31.36","0.43924","5"],
    [21616,"NA","2024-05-10 12:15:00",null,null,null,null,null,null,null,null,null,null,null,null,null,"SATNPRO1963","31.078","0.43528","5"],
    [21617,"NA","2024-05-10 12:30:00",null,null,null,null,null,null,null,null,null,null,null,null,null,"SATNPRO1963","31.522","0.44152","5"],
    [21618,"NA","2024-05-10 12:45:00",null,null,null,null,null,null,null,null,null,null,null,null,null,"SATNPRO1963","31.506","0.4413","5"],
    [21619,"NA","2024-05-10 13:00:00",null,null,null,null,null,null,null,null,null,null,null,null,null,"SATNPRO1963","31.49","0.44106","5"],
    [21620,"NA","2024-05-10 13:15:00",null,null,null,null,null,null,null,null,null,null,null,null,null,"SATNPRO1963","31.266","0.4379","5"],
    [21621,"NA","2024-05-10 13:30:00",null,null,null,null,null,null,null,null,null,null,null,null,null,"SATNPRO1963","31.468","0.44076","5"],
    [21622,"NA","2024-05-10 13:45:00",null,null,null,null,null,null,null,null,null,null,null,null,null,"SATNPRO1963","31.454","0.44054","5"],
    [21623,"NA","2024-05-10 14:00:00",null,null,null,null,null,null,null,null,null,null,null,null,null,"SATNPRO1963","31.372","0.43942","5"],
    [21624,"NA","2024-05-10 14:15:00",null,null,null,null,null,null,null,null,null,null,null,null,null,"SATNPRO1963","31.544","0.4418","5"],
    [21625,"NA","2024-05-10 14:30:00",null,null,null,null,null,null,null,null,null,null,null,null,null,"SATNPRO1963","31.214","0.43724","5"],
    [21626,"NA","2024-05-10 14:45:00",null,null,null,null,null,null,null,null,null,null,null,null,null,"SATNPRO1963","31.318","0.43866","5"],
    [21627,"NA","2024-05-10 15:00:00",null,null,null,null,null,null,null,null,null,null,null,null,null,"SATNPRO1963","31.148","0.43628","5"],
    [21628,"NA","2024-05-10 15:15:00",null,null,null,null,null,null,null,null,null,null,null,null,null,"SATNPRO1963","31.242","0.43762","5"],
    [21629,"NA","2024-05-10 15:30:00",null,null,null,null,null,null,null,null,null,null,null,null,null,"SATNPRO1963","31.150000000000002","0.43628","5"],
    [21630,"NA","2024-05-10 15:45:00",null,null,null,null,null,null,null,null,null,null,null,null,null,"SATNPRO1963","30.968","0.43378","5"],
    [21631,"NA","2024-05-10 16:00:00",null,null,null,null,null,null,null,null,null,null,null,null,null,"SATNPRO1963","31.004","0.43428","5"],
    [21632,"NA","2024-05-10 16:15:00",null,null,null,null,null,null,null,null,null,null,null,null,null,"SATNPRO1963","31.240000000000002","0.4376","5"],
    [21633,"NA","2024-05-10 16:30:00",null,null,null,null,null,null,null,null,null,null,null,null,null,"SATNPRO1963","31.008","0.43436","5"],
    [21634,"NA","2024-05-10 16:45:00",null,null,null,null,null,null,null,null,null,null,null,null,null,"SATNPRO1963","30.868000000000002","0.43232","5"],
    [21635,"NA","2024-05-10 17:00:00",null,null,null,null,null,null,null,null,null,null,null,null,null,"SATNPRO1963","31.082","0.43536","5"],
    [21636,"NA","2024-05-10 17:15:00",null,null,null,null,null,null,null,null,null,null,null,null,null,"SATNPRO1963","30.830000000000002","0.43186","5"],
    [21637,"NA","2024-05-10 17:30:00",null,null,null,null,null,null,null,null,null,null,null,null,null,"SATNPRO1963","31.074","0.43526","5"],
    [21638,"NA","2024-05-10 17:45:00",null,null,null,null,null,null,null,null,null,null,null,null,null,"SATNPRO1963","31.102","0.43562","5"],
    [21639,"NA","2024-05-10 18:00:00",null,null,null,null,null,null,null,null,null,null,null,null,null,"SATNPRO1963","30.982","0.43398","5"],
    [21640,"NA","2024-05-10 18:15:00",null,null,null,null,null,null,null,null,null,null,null,null,null,"SATNPRO1963","31.352","0.43916","5"],
    [21641,"NA","2024-05-10 18:30:00",null,null,null,null,null,null,null,null,null,null,null,null,null,"SATNPRO1963","31.338","0.43892","5"],
    [21642,"NA","2024-05-10 18:45:00",null,null,null,null,null,null,null,null,null,null,null,null,null,"SATNPRO1963","31.302","0.4384","5"],
    [21643,"NA","2024-05-10 19:00:00",null,null,null,null,null,null,null,null,null,null,null,null,null,"SATNPRO1963","31.13","0.43608","5"],
    [21644,"NA","2024-05-10 19:15:00",null,null,null,null,null,null,null,null,null,null,null,null,null,"SATNPRO1963","30.906","0.43286","5"],
    [21645,"NA","2024-05-10 19:30:00",null,null,null,null,null,null,null,null,null,null,null,null,null,"SATNPRO1963","31.236","0.43752","5"],
    [21646,"NA","2024-05-10 19:45:00",null,null,null,null,null,null,null,null,null,null,null,null,null,"SATNPRO1963","30.928","0.43316","5"],
    [21647,"NA","2024-05-10 20:00:00",null,null,null,null,null,null,null,null,null,null,null,null,null,"SATNPRO1963","30.846","0.43204","5"],
    [21648,"NA","2024-05-10 20:15:00",null,null,null,null,null,null,null,null,null,null,null,null,null,"SATNPRO1963","30.92","0.43306","5"],
    [21649,"NA","2024-05-10 20:30:00",null,null,null,null,null,null,null,null,null,null,null,null,null,"SATNPRO1963","30.84","0.43196","5"],
    [21650,"NA","2024-05-10 20:45:00",null,null,null,null,null,null,null,null,null,null,null,null,null,"SATNPRO1963","30.804000000000002","0.43148","5"],
    [21651,"NA","2024-05-10 21:00:00",null,null,null,null,null,null,null,null,null,null,null,null,null,"SATNPRO1963","30.956","0.43358","5"],
    [21652,"NA","2024-05-10 21:15:00",null,null,null,null,null,null,null,null,null,null,null,null,null,"SATNPRO1963","30.838","0.43196","5"],
    [21653,"NA","2024-05-10 21:30:00",null,null,null,null,null,null,null,null,null,null,null,null,null,"SATNPRO1963","30.674","0.42962","5"],
    [21654,"NA","2024-05-10 21:45:00",null,null,null,null,null,null,null,null,null,null,null,null,null,"SATNPRO1963","30.624","0.42894","5"],
    [21655,"NA","2024-05-10 22:00:00",null,null,null,null,null,null,null,null,null,null,null,null,null,"SATNPRO1963","30.694","0.42992","5"],
    [21656,"NA","2024-05-10 22:15:00",null,null,null,null,null,null,null,null,null,null,null,null,null,"SATNPRO1963","30.592","0.4285","5"],
    [21657,"NA","2024-05-10 22:30:00",null,null,null,null,null,null,null,null,null,null,null,null,null,"SATNPRO1963","30.516","0.4274","5"],
    [21658,"NA","2024-05-10 22:45:00",null,null,null,null,null,null,null,null,null,null,null,null,null,"SATNPRO1963","30.546","0.42788","5"],
    [21659,"NA","2024-05-10 23:00:00",null,null,null,null,null,null,null,null,null,null,null,null,null,"SATNPRO1963","30.65","0.4293","5"],
    [21660,"NA","2024-05-10 23:15:00",null,null,null,null,null,null,null,null,null,null,null,null,null,"SATNPRO1963","30.554","0.42796","5"],
    [21661,"NA","2024-05-10 23:30:00",null,null,null,null,null,null,null,null,null,null,null,null,null,"SATNPRO1963","30.334","0.4249","5"],
    [21662,"NA","2024-05-10 23:45:00",null,null,null,null,null,null,null,null,null,null,null,null,null,"SATNPRO1963","30.248","0.42368","5"],
    [21663,"NA","2024-05-11 00:00:00",null,null,null,null,null,null,null,null,null,null,null,null,null,"SATNPRO1963","30.024","0.42054","5"],
    [21664,"NA","2024-05-11 00:15:00",null,null,null,null,null,null,null,null,null,null,null,null,null,"SATNPRO1963","29.848","0.41806","5"],
    [21665,"NA","2024-05-11 00:30:00",null,null,null,null,null,null,null,null,null,null,null,null,null,"SATNPRO1963","29.906","0.4189","5"],
    [21666,"NA","2024-05-11 00:45:00",null,null,null,null,null,null,null,null,null,null,null,null,null,"SATNPRO1963","30.256","0.42378","5"],
    [21667,"NA","2024-05-11 01:00:00",null,null,null,null,null,null,null,null,null,null,null,null,null,"SATNPRO1963","29.71","0.4161","5"],
    [21668,"NA","2024-05-11 01:15:00",null,null,null,null,null,null,null,null,null,null,null,null,null,"SATNPRO1963","29.746","0.41668","5"],
    [21669,"NA","2024-05-11 01:30:00",null,null,null,null,null,null,null,null,null,null,null,null,null,"SATNPRO1963","29.738","0.41654","5"],
    [21670,"NA","2024-05-11 01:45:00",null,null,null,null,null,null,null,null,null,null,null,null,null,"SATNPRO1963","29.624","0.41494","5"],
    [21671,"NA","2024-05-11 02:00:00",null,null,null,null,null,null,null,null,null,null,null,null,null,"SATNPRO1963","29.566","0.41412","5"],
    [21672,"NA","2024-05-11 02:15:00",null,null,null,null,null,null,null,null,null,null,null,null,null,"SATNPRO1963","29.642","0.4152","5"],
    [21673,"NA","2024-05-11 02:30:00",null,null,null,null,null,null,null,null,null,null,null,null,null,"SATNPRO1963","29.724","0.41636","5"],
    [21674,"NA","2024-05-11 02:45:00",null,null,null,null,null,null,null,null,null,null,null,null,null,"SATNPRO1963","29.518","0.41346","5"],
    [21675,"NA","2024-05-11 03:00:00",null,null,null,null,null,null,null,null,null,null,null,null,null,"SATNPRO1963","29.43","0.41218","5"],
    [21676,"NA","2024-05-11 03:15:00",null,null,null,null,null,null,null,null,null,null,null,null,null,"SATNPRO1963","29.674","0.41562","5"],
    [21677,"NA","2024-05-11 03:30:00",null,null,null,null,null,null,null,null,null,null,null,null,null,"SATNPRO1963","29.68","0.41574","5"],
    [21678,"NA","2024-05-11 03:45:00",null,null,null,null,null,null,null,null,null,null,null,null,null,"SATNPRO1963","29.762","0.41686","5"],
    [21679,"NA","2024-05-11 04:00:00",null,null,null,null,null,null,null,null,null,null,null,null,null,"SATNPRO1963","30.102","0.42158","5"],
    [21680,"NA","2024-05-11 04:15:00",null,null,null,null,null,null,null,null,null,null,null,null,null,"SATNPRO1963","30.09","0.42142","5"],
    [21681,"NA","2024-05-11 04:30:00",null,null,null,null,null,null,null,null,null,null,null,null,null,"SATNPRO1963","30.194","0.42292","5"],
    [21682,"NA","2024-05-11 04:45:00",null,null,null,null,null,null,null,null,null,null,null,null,null,"SATNPRO1963","30.068","0.42114","5"],
    [21683,"NA","2024-05-11 05:00:00",null,null,null,null,null,null,null,null,null,null,null,null,null,"SATNPRO1963","30.136","0.42214","5"],
    [21684,"NA","2024-05-11 05:15:00",null,null,null,null,null,null,null,null,null,null,null,null,null,"SATNPRO1963","30.21","0.42314","5"],
    [21685,"NA","2024-05-11 05:30:00",null,null,null,null,null,null,null,null,null,null,null,null,null,"SATNPRO1963","30.256","0.42382","5"],
    [21686,"NA","2024-05-11 05:45:00",null,null,null,null,null,null,null,null,null,null,null,null,null,"SATNPRO1963","30.506","0.4273","5"],
    [21687,"NA","2024-05-11 06:00:00",null,null,null,null,null,null,null,null,null,null,null,null,null,"SATNPRO1963","30.316","0.42464","5"],
    [21688,"NA","2024-05-11 06:15:00",null,null,null,null,null,null,null,null,null,null,null,null,null,"SATNPRO1963","30.566","0.42814","5"],
    [21689,"NA","2024-05-11 06:30:00",null,null,null,null,null,null,null,null,null,null,null,null,null,"SATNPRO1963","30.334","0.42486","5"],
    [21690,"NA","2024-05-11 06:45:00",null,null,null,null,null,null,null,null,null,null,null,null,null,"SATNPRO1963","30.616","0.4288","5"],
    [21691,"NA","2024-05-11 07:00:00",null,null,null,null,null,null,null,null,null,null,null,null,null,"SATNPRO1963","30.494","0.42712","5"],
    [21692,"NA","2024-05-11 07:15:00",null,null,null,null,null,null,null,null,null,null,null,null,null,"SATNPRO1963","30.416","0.42606","5"],
    [21693,"NA","2024-05-11 07:30:00",null,null,null,null,null,null,null,null,null,null,null,null,null,"SATNPRO1963","30.164","0.42248","5"],
    [21694,"NA","2024-05-11 07:45:00",null,null,null,null,null,null,null,null,null,null,null,null,null,"SATNPRO1963","30.236","0.4235","5"],
    [21695,"NA","2024-05-11 08:00:00",null,null,null,null,null,null,null,null,null,null,null,null,null,"SATNPRO1963","30.026","0.42054","5"],
    [21696,"NA","2024-05-11 08:15:00",null,null,null,null,null,null,null,null,null,null,null,null,null,"SATNPRO1963","30.23","0.4234","5"],
    [21697,"NA","2024-05-11 08:30:00",null,null,null,null,null,null,null,null,null,null,null,null,null,"SATNPRO1963","30.208","0.4231","5"],
    [21698,"NA","2024-05-11 08:45:00",null,null,null,null,null,null,null,null,null,null,null,null,null,"SATNPRO1963","29.992","0.4201","5"],
    [21699,"NA","2024-05-11 09:00:00",null,null,null,null,null,null,null,null,null,null,null,null,null,"SATNPRO1963","30.216","0.42318","5"],
    [21700,"NA","2024-05-11 09:15:00",null,null,null,null,null,null,null,null,null,null,null,null,null,"SATNPRO1963","30.054000000000002","0.42096","5"],
    [21701,"NA","2024-05-11 09:30:00",null,null,null,null,null,null,null,null,null,null,null,null,null,"SATNPRO1963","30.082","0.42134","5"],
    [21702,"NA","2024-05-11 09:45:00",null,null,null,null,null,null,null,null,null,null,null,null,null,"SATNPRO1963","30.17","0.4226","5"],
    [21703,"NA","2024-05-11 10:00:00",null,null,null,null,null,null,null,null,null,null,null,null,null,"SATNPRO1963","30.55","0.42786","5"],
    [21704,"NA","2024-05-11 10:15:00",null,null,null,null,null,null,null,null,null,null,null,null,null,"SATNPRO1963","30.578","0.42832","5"],
    [21705,"NA","2024-05-11 10:30:00",null,null,null,null,null,null,null,null,null,null,null,null,null,"SATNPRO1963","30.454","0.42656","5"],
    [21706,"NA","2024-05-11 10:45:00",null,null,null,null,null,null,null,null,null,null,null,null,null,"SATNPRO1963","30.534","0.4277","5"],
    [21707,"NA","2024-05-11 11:00:00",null,null,null,null,null,null,null,null,null,null,null,null,null,"SATNPRO1963","30.472","0.42682","5"],
    [21708,"NA","2024-05-11 11:15:00",null,null,null,null,null,null,null,null,null,null,null,null,null,"SATNPRO1963","30.593999999999998","0.42856","5"],
    [21709,"NA","2024-05-11 11:30:00",null,null,null,null,null,null,null,null,null,null,null,null,null,"SATNPRO1963","30.476","0.42694","5"],
    [21710,"NA","2024-05-11 11:45:00",null,null,null,null,null,null,null,null,null,null,null,null,null,"SATNPRO1963","30.766","0.43092","5"],
    [21711,"NA","2024-05-11 12:00:00",null,null,null,null,null,null,null,null,null,null,null,null,null,"SATNPRO1963","30.740000000000002","0.43058","5"],
    [21712,"NA","2024-05-11 12:15:00",null,null,null,null,null,null,null,null,null,null,null,null,null,"SATNPRO1963","30.874","0.43246","5"],
    [21713,"NA","2024-05-11 12:30:00",null,null,null,null,null,null,null,null,null,null,null,null,null,"SATNPRO1963","30.862","0.43228","5"],
    [21714,"NA","2024-05-11 12:45:00",null,null,null,null,null,null,null,null,null,null,null,null,null,"SATNPRO1963","30.846","0.43206","5"],
    [21715,"NA","2024-05-11 13:00:00",null,null,null,null,null,null,null,null,null,null,null,null,null,"SATNPRO1963","30.914","0.43298","5"],
    [21716,"NA","2024-05-11 13:15:00",null,null,null,null,null,null,null,null,null,null,null,null,null,"SATNPRO1963","30.884","0.4326","5"],
    [21717,"NA","2024-05-11 13:30:00",null,null,null,null,null,null,null,null,null,null,null,null,null,"SATNPRO1963","30.836","0.43192","5"],
    [21718,"NA","2024-05-11 13:45:00",null,null,null,null,null,null,null,null,null,null,null,null,null,"SATNPRO1963","30.796","0.43138","5"],
    [21719,"NA","2024-05-11 14:00:00",null,null,null,null,null,null,null,null,null,null,null,null,null,"SATNPRO1963","30.88","0.43254","5"],
    [21720,"NA","2024-05-11 14:15:00",null,null,null,null,null,null,null,null,null,null,null,null,null,"SATNPRO1963","30.676","0.42966","5"],
    [21721,"NA","2024-05-11 14:30:00",null,null,null,null,null,null,null,null,null,null,null,null,null,"SATNPRO1963","30.54","0.42774","5"],
    [21722,"NA","2024-05-11 14:45:00",null,null,null,null,null,null,null,null,null,null,null,null,null,"SATNPRO1963","30.68","0.42974","5"],
    [21723,"NA","2024-05-11 15:00:00",null,null,null,null,null,null,null,null,null,null,null,null,null,"SATNPRO1963","30.148","0.42228","5"],
    [21724,"NA","2024-05-11 15:15:00",null,null,null,null,null,null,null,null,null,null,null,null,null,"SATNPRO1963","30.236","0.42346","5"],
    [21725,"NA","2024-05-11 15:30:00",null,null,null,null,null,null,null,null,null,null,null,null,null,"SATNPRO1963","30.094","0.42152","5"],
    [21726,"NA","2024-05-11 15:45:00",null,null,null,null,null,null,null,null,null,null,null,null,null,"SATNPRO1963","30.054","0.42092","5"],
    [21727,"NA","2024-05-11 16:00:00",null,null,null,null,null,null,null,null,null,null,null,null,null,"SATNPRO1963","30.128","0.422","5"],
    [21728,"NA","2024-05-11 16:15:00",null,null,null,null,null,null,null,null,null,null,null,null,null,"SATNPRO1963","30.324","0.42478","5"],
    [21729,"NA","2024-05-11 16:30:00",null,null,null,null,null,null,null,null,null,null,null,null,null,"SATNPRO1963","30.44","0.42636","5"],
    [21730,"NA","2024-05-11 16:45:00",null,null,null,null,null,null,null,null,null,null,null,null,null,"SATNPRO1963","30.471999999999998","0.42686","5"],
    [21731,"NA","2024-05-11 17:00:00",null,null,null,null,null,null,null,null,null,null,null,null,null,"SATNPRO1963","30.522","0.4275","5"],
    [21732,"NA","2024-05-11 17:15:00",null,null,null,null,null,null,null,null,null,null,null,null,null,"SATNPRO1963","30.398","0.42578","5"],
    [21733,"NA","2024-05-11 17:30:00",null,null,null,null,null,null,null,null,null,null,null,null,null,"SATNPRO1963","30.376","0.42548","5"],
    [21734,"NA","2024-05-11 17:45:00",null,null,null,null,null,null,null,null,null,null,null,null,null,"SATNPRO1963","30.477999999999998","0.42688","5"],
    [21735,"NA","2024-05-11 18:00:00",null,null,null,null,null,null,null,null,null,null,null,null,null,"SATNPRO1963","30.330000000000002","0.42476","5"],
    [21736,"NA","2024-05-11 18:15:00",null,null,null,null,null,null,null,null,null,null,null,null,null,"SATNPRO1963","30.490000000000002","0.42706","5"],
    [21737,"NA","2024-05-11 18:30:00",null,null,null,null,null,null,null,null,null,null,null,null,null,"SATNPRO1963","30.354","0.42518","5"],
    [21738,"NA","2024-05-11 18:45:00",null,null,null,null,null,null,null,null,null,null,null,null,null,"SATNPRO1963","30.296","0.42436","5"],
    [21739,"NA","2024-05-11 19:00:00",null,null,null,null,null,null,null,null,null,null,null,null,null,"SATNPRO1963","30.024","0.42058","5"],
    [21740,"NA","2024-05-11 19:15:00",null,null,null,null,null,null,null,null,null,null,null,null,null,"SATNPRO1963","30.318","0.42468","5"],
    [21741,"NA","2024-05-11 19:30:00",null,null,null,null,null,null,null,null,null,null,null,null,null,"SATNPRO1963","30.11","0.42176","5"],
    [21742,"NA","2024-05-11 19:45:00",null,null,null,null,null,null,null,null,null,null,null,null,null,"SATNPRO1963","30.169999999999998","0.4226","5"],
    [21743,"NA","2024-05-11 20:00:00",null,null,null,null,null,null,null,null,null,null,null,null,null,"SATNPRO1963","30.062","0.4211","5"],
    [21744,"NA","2024-05-11 20:15:00",null,null,null,null,null,null,null,null,null,null,null,null,null,"SATNPRO1963","30.284","0.42418","5"],
    [21745,"NA","2024-05-11 20:30:00",null,null,null,null,null,null,null,null,null,null,null,null,null,"SATNPRO1963","30.32","0.4247","5"],
    [21746,"NA","2024-05-11 20:45:00",null,null,null,null,null,null,null,null,null,null,null,null,null,"SATNPRO1963","30.148","0.42226","5"],
    [21747,"NA","2024-05-11 21:00:00",null,null,null,null,null,null,null,null,null,null,null,null,null,"SATNPRO1963","30.182","0.42274","5"],
    [21748,"NA","2024-05-11 21:15:00",null,null,null,null,null,null,null,null,null,null,null,null,null,"SATNPRO1963","30.04","0.42078","5"],
    [21749,"NA","2024-05-11 21:30:00",null,null,null,null,null,null,null,null,null,null,null,null,null,"SATNPRO1963","30.084","0.42136","5"],
    [21750,"NA","2024-05-11 21:45:00",null,null,null,null,null,null,null,null,null,null,null,null,null,"SATNPRO1963","30.028000000000002","0.42056","5"],
    [21751,"NA","2024-05-11 22:00:00",null,null,null,null,null,null,null,null,null,null,null,null,null,"SATNPRO1963","30.012","0.42038","5"],
    [21752,"NA","2024-05-11 22:15:00",null,null,null,null,null,null,null,null,null,null,null,null,null,"SATNPRO1963","29.908","0.41886","5"],
    [21753,"NA","2024-05-11 22:30:00",null,null,null,null,null,null,null,null,null,null,null,null,null,"SATNPRO1963","29.954","0.41954","5"],
    [21754,"NA","2024-05-11 22:45:00",null,null,null,null,null,null,null,null,null,null,null,null,null,"SATNPRO1963","29.977999999999998","0.41992","5"],
    [21755,"NA","2024-05-11 23:00:00",null,null,null,null,null,null,null,null,null,null,null,null,null,"SATNPRO1963","30.156","0.42238","5"],
    [21756,"NA","2024-05-11 23:15:00",null,null,null,null,null,null,null,null,null,null,null,null,null,"SATNPRO1963","30.214","0.42322","5"],
    [21757,"NA","2024-05-11 23:30:00",null,null,null,null,null,null,null,null,null,null,null,null,null,"SATNPRO1963","30.264","0.4239","5"],
    [21758,"NA","2024-05-11 23:45:00",null,null,null,null,null,null,null,null,null,null,null,null,null,"SATNPRO1963","30.354","0.42516","5"],
    [21759,"NA","2024-05-12 00:00:00",null,null,null,null,null,null,null,null,null,null,null,null,null,"SATNPRO1963","30.330000000000002","0.42482","5"],
    [21760,"NA","2024-05-12 00:15:00",null,null,null,null,null,null,null,null,null,null,null,null,null,"SATNPRO1963","30.504","0.42722","5"],
    [21761,"NA","2024-05-12 00:30:00",null,null,null,null,null,null,null,null,null,null,null,null,null,"SATNPRO1963","30.296","0.42434","5"],
    [21762,"NA","2024-05-12 00:45:00",null,null,null,null,null,null,null,null,null,null,null,null,null,"SATNPRO1963","30.272","0.424","5"],
    [21763,"NA","2024-05-12 01:00:00",null,null,null,null,null,null,null,null,null,null,null,null,null,"SATNPRO1963","30.342","0.425","5"],
    [21764,"NA","2024-05-12 01:15:00",null,null,null,null,null,null,null,null,null,null,null,null,null,"SATNPRO1963","30.285999999999998","0.4242","5"],
    [21765,"NA","2024-05-12 01:30:00",null,null,null,null,null,null,null,null,null,null,null,null,null,"SATNPRO1963","30.302","0.4244","5"],
    [21766,"NA","2024-05-12 01:45:00",null,null,null,null,null,null,null,null,null,null,null,null,null,"SATNPRO1963","30.366","0.42532","5"],
    [21767,"NA","2024-05-12 02:00:00",null,null,null,null,null,null,null,null,null,null,null,null,null,"SATNPRO1963","30.336","0.42492","5"],
    [21768,"NA","2024-05-12 02:15:00",null,null,null,null,null,null,null,null,null,null,null,null,null,"SATNPRO1963","30.382","0.42558","5"],
    [21769,"NA","2024-05-12 02:30:00",null,null,null,null,null,null,null,null,null,null,null,null,null,"SATNPRO1963","30.162","0.42248","5"],
    [21770,"NA","2024-05-12 02:45:00",null,null,null,null,null,null,null,null,null,null,null,null,null,"SATNPRO1963","29.97","0.41976","5"],
    [21771,"NA","2024-05-12 03:00:00",null,null,null,null,null,null,null,null,null,null,null,null,null,"SATNPRO1963","29.932","0.41922","5"],
    [21772,"NA","2024-05-12 03:15:00",null,null,null,null,null,null,null,null,null,null,null,null,null,"SATNPRO1963","29.916","0.41902","5"],
    [21773,"NA","2024-05-12 03:30:00",null,null,null,null,null,null,null,null,null,null,null,null,null,"SATNPRO1963","29.744","0.41662","5"],
    [21774,"NA","2024-05-12 03:45:00",null,null,null,null,null,null,null,null,null,null,null,null,null,"SATNPRO1963","29.734","0.41644","5"],
    [21775,"NA","2024-05-12 04:00:00",null,null,null,null,null,null,null,null,null,null,null,null,null,"SATNPRO1963","29.87","0.41834","5"],
    [21776,"NA","2024-05-12 04:15:00",null,null,null,null,null,null,null,null,null,null,null,null,null,"SATNPRO1963","30.184","0.42278","5"],
    [21777,"NA","2024-05-12 04:30:00",null,null,null,null,null,null,null,null,null,null,null,null,null,"SATNPRO1963","30.662","0.42946","5"],
    [21778,"NA","2024-05-12 04:45:00",null,null,null,null,null,null,null,null,null,null,null,null,null,"SATNPRO1963","30.4","0.42582","5"],
    [21779,"NA","2024-05-12 05:00:00",null,null,null,null,null,null,null,null,null,null,null,null,null,"SATNPRO1963","30.654","0.42936","5"],
    [21780,"NA","2024-05-12 05:15:00",null,null,null,null,null,null,null,null,null,null,null,null,null,"SATNPRO1963","30.63","0.42902","5"],
    [21781,"NA","2024-05-12 05:30:00",null,null,null,null,null,null,null,null,null,null,null,null,null,"SATNPRO1963","30.336","0.42492","5"],
    [21782,"NA","2024-05-12 05:45:00",null,null,null,null,null,null,null,null,null,null,null,null,null,"SATNPRO1963","30.218","0.42324","5"],
    [21783,"NA","2024-05-12 06:00:00",null,null,null,null,null,null,null,null,null,null,null,null,null,"SATNPRO1963","30.126","0.42196","5"],
    [21784,"NA","2024-05-12 06:15:00",null,null,null,null,null,null,null,null,null,null,null,null,null,"SATNPRO1963","30.176000000000002","0.42268","5"],
    [21785,"NA","2024-05-12 06:30:00",null,null,null,null,null,null,null,null,null,null,null,null,null,"SATNPRO1963","29.844","0.41802","5"],
    [21786,"NA","2024-05-12 06:45:00",null,null,null,null,null,null,null,null,null,null,null,null,null,"SATNPRO1963","29.954","0.41954","5"],
    [21787,"NA","2024-05-12 07:00:00",null,null,null,null,null,null,null,null,null,null,null,null,null,"SATNPRO1963","30.13","0.42202","5"],
    [21788,"NA","2024-05-12 07:15:00",null,null,null,null,null,null,null,null,null,null,null,null,null,"SATNPRO1963","29.894","0.41872","5"],
    [21789,"NA","2024-05-12 07:30:00",null,null,null,null,null,null,null,null,null,null,null,null,null,"SATNPRO1963","30.046","0.42088","5"],
    [21790,"NA","2024-05-12 07:45:00",null,null,null,null,null,null,null,null,null,null,null,null,null,"SATNPRO1963","30.04","0.42074","5"],
    [21791,"NA","2024-05-12 08:00:00",null,null,null,null,null,null,null,null,null,null,null,null,null,"SATNPRO1963","30.156","0.4224","5"],
    [21792,"NA","2024-05-12 08:15:00",null,null,null,null,null,null,null,null,null,null,null,null,null,"SATNPRO1963","29.886","0.4186","5"],
    [21793,"NA","2024-05-12 08:30:00",null,null,null,null,null,null,null,null,null,null,null,null,null,"SATNPRO1963","29.63","0.415","5"],
    [21794,"NA","2024-05-12 08:45:00",null,null,null,null,null,null,null,null,null,null,null,null,null,"SATNPRO1963","29.63","0.41502","5"],
    [21795,"NA","2024-05-12 09:00:00",null,null,null,null,null,null,null,null,null,null,null,null,null,"SATNPRO1963","29.244","0.4096","5"],
    [21796,"NA","2024-05-12 09:15:00",null,null,null,null,null,null,null,null,null,null,null,null,null,"SATNPRO1963","29.586000000000002","0.41438","5"],
    [21797,"NA","2024-05-12 09:30:00",null,null,null,null,null,null,null,null,null,null,null,null,null,"SATNPRO1963","29.618","0.41484","5"],
    [21798,"NA","2024-05-12 09:45:00",null,null,null,null,null,null,null,null,null,null,null,null,null,"SATNPRO1963","29.546","0.41384","5"],
    [21799,"NA","2024-05-12 10:00:00",null,null,null,null,null,null,null,null,null,null,null,null,null,"SATNPRO1963","29.79","0.41724","5"],
    [21800,"NA","2024-05-12 10:15:00",null,null,null,null,null,null,null,null,null,null,null,null,null,"SATNPRO1963","30.258","0.42382","5"],
    [21801,"NA","2024-05-12 10:30:00",null,null,null,null,null,null,null,null,null,null,null,null,null,"SATNPRO1963","30.038","0.4207","5"],
    [21802,"NA","2024-05-12 10:45:00",null,null,null,null,null,null,null,null,null,null,null,null,null,"SATNPRO1963","29.942","0.41938","5"],
    [21803,"NA","2024-05-12 11:00:00",null,null,null,null,null,null,null,null,null,null,null,null,null,"SATNPRO1963","29.96","0.41964","5"],
    [21804,"NA","2024-05-12 11:15:00",null,null,null,null,null,null,null,null,null,null,null,null,null,"SATNPRO1963","29.92","0.41906","5"],
    [21805,"NA","2024-05-12 11:30:00",null,null,null,null,null,null,null,null,null,null,null,null,null,"SATNPRO1963","30.208000000000002","0.42308","5"],
    [21806,"NA","2024-05-12 11:45:00",null,null,null,null,null,null,null,null,null,null,null,null,null,"SATNPRO1963","30.19","0.42288","5"],
    [21807,"NA","2024-05-12 12:00:00",null,null,null,null,null,null,null,null,null,null,null,null,null,"SATNPRO1963","30.26","0.4238","5"],
    [21808,"NA","2024-05-12 12:15:00",null,null,null,null,null,null,null,null,null,null,null,null,null,"SATNPRO1963","30.414","0.426","5"],
    [21809,"NA","2024-05-12 12:30:00",null,null,null,null,null,null,null,null,null,null,null,null,null,"SATNPRO1963","30.44","0.42634","5"],
    [21810,"NA","2024-05-12 12:45:00",null,null,null,null,null,null,null,null,null,null,null,null,null,"SATNPRO1963","30.46","0.42664","5"],
    [21811,"NA","2024-05-12 13:00:00",null,null,null,null,null,null,null,null,null,null,null,null,null,"SATNPRO1963","30.358","0.42526","5"],
    [21812,"NA","2024-05-12 13:15:00",null,null,null,null,null,null,null,null,null,null,null,null,null,"SATNPRO1963","30.413999999999998","0.42598","5"],
    [21813,"NA","2024-05-12 13:30:00",null,null,null,null,null,null,null,null,null,null,null,null,null,"SATNPRO1963","30.29","0.42426","5"],
    [21814,"NA","2024-05-12 13:45:00",null,null,null,null,null,null,null,null,null,null,null,null,null,"SATNPRO1963","30.476","0.42688","5"],
    [21815,"NA","2024-05-12 14:00:00",null,null,null,null,null,null,null,null,null,null,null,null,null,"SATNPRO1963","30.558","0.42804","5"],
    [21816,"NA","2024-05-12 14:15:00",null,null,null,null,null,null,null,null,null,null,null,null,null,"SATNPRO1963","30.3","0.42442","5"],
    [21817,"NA","2024-05-12 14:30:00",null,null,null,null,null,null,null,null,null,null,null,null,null,"SATNPRO1963","30.32","0.42468","5"],
    [21818,"NA","2024-05-12 14:45:00",null,null,null,null,null,null,null,null,null,null,null,null,null,"SATNPRO1963","30.102","0.42166","5"],
    [21819,"NA","2024-05-12 15:00:00",null,null,null,null,null,null,null,null,null,null,null,null,null,"SATNPRO1963","30.282","0.42418","5"],
    [21820,"NA","2024-05-12 15:15:00",null,null,null,null,null,null,null,null,null,null,null,null,null,"SATNPRO1963","30.26","0.42388","5"],
    [21821,"NA","2024-05-12 15:30:00",null,null,null,null,null,null,null,null,null,null,null,null,null,"SATNPRO1963","30.374","0.42544","5"],
    [21822,"NA","2024-05-12 15:45:00",null,null,null,null,null,null,null,null,null,null,null,null,null,"SATNPRO1963","30.406","0.4259","5"],
    [21823,"NA","2024-05-12 16:00:00",null,null,null,null,null,null,null,null,null,null,null,null,null,"SATNPRO1963","30.368","0.42538","5"],
    [21824,"NA","2024-05-12 16:15:00",null,null,null,null,null,null,null,null,null,null,null,null,null,"SATNPRO1963","30.428","0.42622","5"],
    [21825,"NA","2024-05-12 16:30:00",null,null,null,null,null,null,null,null,null,null,null,null,null,"SATNPRO1963","30.328","0.4248","5"],
    [21826,"NA","2024-05-12 16:45:00",null,null,null,null,null,null,null,null,null,null,null,null,null,"SATNPRO1963","29.934","0.41926","5"],
    [21827,"NA","2024-05-12 17:00:00",null,null,null,null,null,null,null,null,null,null,null,null,null,"SATNPRO1963","30.014","0.42042","5"],
    [21828,"NA","2024-05-12 17:15:00",null,null,null,null,null,null,null,null,null,null,null,null,null,"SATNPRO1963","30.064","0.4211","5"],
    [21829,"NA","2024-05-12 17:30:00",null,null,null,null,null,null,null,null,null,null,null,null,null,"SATNPRO1963","30.312","0.42458","5"],
    [21830,"NA","2024-05-12 17:45:00",null,null,null,null,null,null,null,null,null,null,null,null,null,"SATNPRO1963","30.274","0.42402","5"],
    [21831,"NA","2024-05-12 18:00:00",null,null,null,null,null,null,null,null,null,null,null,null,null,"SATNPRO1963","30.194","0.4229","5"],
    [21832,"NA","2024-05-12 18:15:00",null,null,null,null,null,null,null,null,null,null,null,null,null,"SATNPRO1963","30.164","0.42254","5"],
    [21833,"NA","2024-05-12 18:30:00",null,null,null,null,null,null,null,null,null,null,null,null,null,"SATNPRO1963","30.056","0.42098","5"],
    [21834,"NA","2024-05-12 18:45:00",null,null,null,null,null,null,null,null,null,null,null,null,null,"SATNPRO1963","30.26","0.42386","5"],
    [21835,"NA","2024-05-12 19:00:00",null,null,null,null,null,null,null,null,null,null,null,null,null,"SATNPRO1963","30.222","0.42328","5"],
    [21836,"NA","2024-05-12 19:15:00",null,null,null,null,null,null,null,null,null,null,null,null,null,"SATNPRO1963","30.192","0.42292","5"],
    [21837,"NA","2024-05-12 19:30:00",null,null,null,null,null,null,null,null,null,null,null,null,null,"SATNPRO1963","30.06","0.42106","5"],
    [21838,"NA","2024-05-12 19:45:00",null,null,null,null,null,null,null,null,null,null,null,null,null,"SATNPRO1963","31.026","0.43456","5"],
    [21839,"NA","2024-05-12 20:00:00",null,null,null,null,null,null,null,null,null,null,null,null,null,"SATNPRO1963","31.201999999999998","0.43702","5"],
    [21840,"NA","2024-05-12 20:15:00",null,null,null,null,null,null,null,null,null,null,null,null,null,"SATNPRO1963","30.336","0.42492","5"],
    [21841,"NA","2024-05-12 20:30:00",null,null,null,null,null,null,null,null,null,null,null,null,null,"SATNPRO1963","30","0.4202","5"],
    [21842,"NA","2024-05-12 20:45:00",null,null,null,null,null,null,null,null,null,null,null,null,null,"SATNPRO1963","29.964","0.41972","5"],
    [21843,"NA","2024-05-12 21:00:00",null,null,null,null,null,null,null,null,null,null,null,null,null,"SATNPRO1963","29.902","0.41882","5"],
    [21844,"NA","2024-05-12 21:15:00",null,null,null,null,null,null,null,null,null,null,null,null,null,"SATNPRO1963","29.954","0.41956","5"],
    [21845,"NA","2024-05-12 21:30:00",null,null,null,null,null,null,null,null,null,null,null,null,null,"SATNPRO1963","29.7","0.41598","5"],
    [21846,"NA","2024-05-12 21:45:00",null,null,null,null,null,null,null,null,null,null,null,null,null,"SATNPRO1963","29.908","0.41888","5"],
    [21847,"NA","2024-05-12 22:00:00",null,null,null,null,null,null,null,null,null,null,null,null,null,"SATNPRO1963","29.846","0.41802","5"],
    [21848,"NA","2024-05-12 22:15:00",null,null,null,null,null,null,null,null,null,null,null,null,null,"SATNPRO1963","29.742","0.41662","5"],
    [21849,"NA","2024-05-12 22:30:00",null,null,null,null,null,null,null,null,null,null,null,null,null,"SATNPRO1963","30.052","0.42094","5"],
    [21850,"NA","2024-05-12 22:45:00",null,null,null,null,null,null,null,null,null,null,null,null,null,"SATNPRO1963","29.908","0.4189","5"],
    [21851,"NA","2024-05-12 23:00:00",null,null,null,null,null,null,null,null,null,null,null,null,null,"SATNPRO1963","29.986","0.41998","5"],
    [21852,"NA","2024-05-12 23:15:00",null,null,null,null,null,null,null,null,null,null,null,null,null,"SATNPRO1963","29.682","0.41576","5"],
    [21853,"NA","2024-05-12 23:30:00",null,null,null,null,null,null,null,null,null,null,null,null,null,"SATNPRO1963","30.034","0.42064","5"],
    [21854,"NA","2024-05-12 23:45:00",null,null,null,null,null,null,null,null,null,null,null,null,null,"SATNPRO1963","30.438","0.42632","5"],
    [21855,"NA","2024-05-13 00:00:00",null,null,null,null,null,null,null,null,null,null,null,null,null,"SATNPRO1963","30.492","0.42706","5"],
    [21856,"NA","2024-05-13 00:15:00",null,null,null,null,null,null,null,null,null,null,null,null,null,"SATNPRO1963","30.584","0.42838","5"],
    [21857,"NA","2024-05-13 00:30:00",null,null,null,null,null,null,null,null,null,null,null,null,null,"SATNPRO1963","30.648","0.42928","5"],
    [21858,"NA","2024-05-13 00:45:00",null,null,null,null,null,null,null,null,null,null,null,null,null,"SATNPRO1963","29.852","0.41814","5"],
    [21859,"NA","2024-05-13 01:00:00",null,null,null,null,null,null,null,null,null,null,null,null,null,"SATNPRO1963","29.876","0.41848","5"],
    [21860,"NA","2024-05-13 01:15:00",null,null,null,null,null,null,null,null,null,null,null,null,null,"SATNPRO1963","29.71","0.41614","5"],
    [21861,"NA","2024-05-13 01:30:00",null,null,null,null,null,null,null,null,null,null,null,null,null,"SATNPRO1963","29.736","0.41648","5"],
    [21862,"NA","2024-05-13 01:45:00",null,null,null,null,null,null,null,null,null,null,null,null,null,"SATNPRO1963","30.28","0.42412","5"],
    [21863,"NA","2024-05-13 02:00:00",null,null,null,null,null,null,null,null,null,null,null,null,null,"SATNPRO1963","30.362","0.42524","5"],
    [21864,"NA","2024-05-13 02:15:00",null,null,null,null,null,null,null,null,null,null,null,null,null,"SATNPRO1963","30.51","0.42734","5"],
    [21865,"NA","2024-05-13 02:30:00",null,null,null,null,null,null,null,null,null,null,null,null,null,"SATNPRO1963","30.322","0.42472","5"],
    [21866,"NA","2024-05-13 02:45:00",null,null,null,null,null,null,null,null,null,null,null,null,null,"SATNPRO1963","30.2","0.42296","5"],
    [21867,"NA","2024-05-13 03:00:00",null,null,null,null,null,null,null,null,null,null,null,null,null,"SATNPRO1963","30.086000000000002","0.42142","5"],
    [21868,"NA","2024-05-13 03:15:00",null,null,null,null,null,null,null,null,null,null,null,null,null,"SATNPRO1963","30.158","0.42238","5"],
    [21869,"NA","2024-05-13 03:30:00",null,null,null,null,null,null,null,null,null,null,null,null,null,"SATNPRO1963","29.954","0.4196","5"],
    [21870,"NA","2024-05-13 03:45:00",null,null,null,null,null,null,null,null,null,null,null,null,null,"SATNPRO1963","30","0.42024","5"],
    [21871,"NA","2024-05-13 04:00:00",null,null,null,null,null,null,null,null,null,null,null,null,null,"SATNPRO1963","30.218","0.42324","5"],
    [21872,"NA","2024-05-13 04:15:00",null,null,null,null,null,null,null,null,null,null,null,null,null,"SATNPRO1963","29.87","0.41836","5"],
    [21873,"NA","2024-05-13 04:30:00",null,null,null,null,null,null,null,null,null,null,null,null,null,"SATNPRO1963","29.856","0.4182","5"],
    [21874,"NA","2024-05-13 04:45:00",null,null,null,null,null,null,null,null,null,null,null,null,null,"SATNPRO1963","29.902","0.4188","5"],
    [21875,"NA","2024-05-13 05:00:00",null,null,null,null,null,null,null,null,null,null,null,null,null,"SATNPRO1963","29.722","0.4163","5"],
    [21876,"NA","2024-05-13 05:15:00",null,null,null,null,null,null,null,null,null,null,null,null,null,"SATNPRO1963","30.012","0.42034","5"],
    [21877,"NA","2024-05-13 05:30:00",null,null,null,null,null,null,null,null,null,null,null,null,null,"SATNPRO1963","30.138","0.42214","5"],
    [21878,"NA","2024-05-13 05:45:00",null,null,null,null,null,null,null,null,null,null,null,null,null,"SATNPRO1963","30.184","0.4228","5"],
    [21879,"NA","2024-05-13 06:00:00",null,null,null,null,null,null,null,null,null,null,null,null,null,"SATNPRO1963","30.176","0.42266","5"],
    [21880,"NA","2024-05-13 06:15:00",null,null,null,null,null,null,null,null,null,null,null,null,null,"SATNPRO1963","30.298000000000002","0.42436","5"],
    [21881,"NA","2024-05-13 06:30:00",null,null,null,null,null,null,null,null,null,null,null,null,null,"SATNPRO1963","30.848","0.43206","5"],
    [21882,"NA","2024-05-13 06:45:00",null,null,null,null,null,null,null,null,null,null,null,null,null,"SATNPRO1963","30.818","0.43166","5"],
    [21883,"NA","2024-05-13 07:00:00",null,null,null,null,null,null,null,null,null,null,null,null,null,"SATNPRO1963","30.964","0.43372","5"],
    [21884,"NA","2024-05-13 07:15:00",null,null,null,null,null,null,null,null,null,null,null,null,null,"SATNPRO1963","30.906","0.43288","5"],
    [21885,"NA","2024-05-13 07:30:00",null,null,null,null,null,null,null,null,null,null,null,null,null,"SATNPRO1963","31.148","0.43628","5"],
    [21886,"NA","2024-05-13 07:45:00",null,null,null,null,null,null,null,null,null,null,null,null,null,"SATNPRO1963","31.26","0.43782","5"],
    [21887,"NA","2024-05-13 08:00:00",null,null,null,null,null,null,null,null,null,null,null,null,null,"SATNPRO1963","31.306","0.43844","5"],
    [21888,"NA","2024-05-13 08:15:00",null,null,null,null,null,null,null,null,null,null,null,null,null,"SATNPRO1963","31.392","0.43968","5"],
    [21889,"NA","2024-05-13 08:30:00",null,null,null,null,null,null,null,null,null,null,null,null,null,"SATNPRO1963","31.11","0.43574","5"],
    [21890,"NA","2024-05-13 08:45:00",null,null,null,null,null,null,null,null,null,null,null,null,null,"SATNPRO1963","31.298000000000002","0.43838","5"],
    [21891,"NA","2024-05-13 09:00:00",null,null,null,null,null,null,null,null,null,null,null,null,null,"SATNPRO1963","31.094","0.43552","5"],
    [21892,"NA","2024-05-13 09:15:00",null,null,null,null,null,null,null,null,null,null,null,null,null,"SATNPRO1963","30.94","0.43338","5"],
    [21893,"NA","2024-05-13 09:30:00",null,null,null,null,null,null,null,null,null,null,null,null,null,"SATNPRO1963","31.162","0.43648","5"],
    [21894,"NA","2024-05-13 09:45:00",null,null,null,null,null,null,null,null,null,null,null,null,null,"SATNPRO1963","31.152","0.43636","5"],
    [21895,"NA","2024-05-13 10:00:00",null,null,null,null,null,null,null,null,null,null,null,null,null,"SATNPRO1963","31.13","0.43602","5"],
    [21896,"NA","2024-05-13 10:15:00",null,null,null,null,null,null,null,null,null,null,null,null,null,"SATNPRO1963","30.758","0.4308","5"],
    [21897,"NA","2024-05-13 10:30:00",null,null,null,null,null,null,null,null,null,null,null,null,null,"SATNPRO1963","30.71","0.4301","5"],
    [21898,"NA","2024-05-13 10:45:00",null,null,null,null,null,null,null,null,null,null,null,null,null,"SATNPRO1963","30.881999999999998","0.43256","5"],
    [21899,"NA","2024-05-13 11:00:00",null,null,null,null,null,null,null,null,null,null,null,null,null,"SATNPRO1963","30.826","0.43178","5"],
    [21900,"NA","2024-05-13 11:15:00",null,null,null,null,null,null,null,null,null,null,null,null,null,"SATNPRO1963","31.164","0.4365","5"],
    [21901,"NA","2024-05-13 11:30:00",null,null,null,null,null,null,null,null,null,null,null,null,null,"SATNPRO1963","31.18","0.43674","5"],
    [21902,"NA","2024-05-13 11:45:00",null,null,null,null,null,null,null,null,null,null,null,null,null,"SATNPRO1963","30.692","0.42994","5"],
    [21903,"NA","2024-05-13 12:00:00",null,null,null,null,null,null,null,null,null,null,null,null,null,"SATNPRO1963","31.158","0.43638","5"],
    [21904,"NA","2024-05-13 12:15:00",null,null,null,null,null,null,null,null,null,null,null,null,null,"SATNPRO1963","31.19","0.43686","5"],
    [21905,"NA","2024-05-13 12:30:00",null,null,null,null,null,null,null,null,null,null,null,null,null,"SATNPRO1963","31.752","0.44474","5"],
    [21906,"NA","2024-05-13 12:45:00",null,null,null,null,null,null,null,null,null,null,null,null,null,"SATNPRO1963","31.458","0.44066","5"],
    [21907,"NA","2024-05-13 13:00:00",null,null,null,null,null,null,null,null,null,null,null,null,null,"SATNPRO1963","31.498","0.44118","5"],
    [21908,"NA","2024-05-13 13:15:00",null,null,null,null,null,null,null,null,null,null,null,null,null,"SATNPRO1963","31.451999999999998","0.44056","5"],
    [21909,"NA","2024-05-13 13:30:00",null,null,null,null,null,null,null,null,null,null,null,null,null,"SATNPRO1963","31.424","0.44014","5"],
    [21910,"NA","2024-05-13 13:45:00",null,null,null,null,null,null,null,null,null,null,null,null,null,"SATNPRO1963","31.5","0.44122","5"],
    [21911,"NA","2024-05-13 14:00:00",null,null,null,null,null,null,null,null,null,null,null,null,null,"SATNPRO1963","31.538","0.44176","5"],
    [21912,"NA","2024-05-13 14:15:00",null,null,null,null,null,null,null,null,null,null,null,null,null,"SATNPRO1963","31.588","0.44242","5"],
    [21913,"NA","2024-05-13 14:30:00",null,null,null,null,null,null,null,null,null,null,null,null,null,"SATNPRO1963","31.759999999999998","0.44486","5"],
    [21914,"NA","2024-05-13 14:45:00",null,null,null,null,null,null,null,null,null,null,null,null,null,"SATNPRO1963","31.91","0.44696","5"],
    [21915,"NA","2024-05-13 15:00:00",null,null,null,null,null,null,null,null,null,null,null,null,null,"SATNPRO1963","31.698","0.44396","5"],
    [21916,"NA","2024-05-13 15:15:00",null,null,null,null,null,null,null,null,null,null,null,null,null,"SATNPRO1963","31.68","0.4437","5"],
    [21917,"NA","2024-05-13 15:30:00",null,null,null,null,null,null,null,null,null,null,null,null,null,"SATNPRO1963","31.916","0.44704","5"],
    [21918,"NA","2024-05-13 15:45:00",null,null,null,null,null,null,null,null,null,null,null,null,null,"SATNPRO1963","31.552","0.44196","5"],
    [21919,"NA","2024-05-13 16:00:00",null,null,null,null,null,null,null,null,null,null,null,null,null,"SATNPRO1963","31.688","0.44386","5"],
    [21920,"NA","2024-05-13 16:15:00",null,null,null,null,null,null,null,null,null,null,null,null,null,"SATNPRO1963","31.784","0.44518","5"],
    [21921,"NA","2024-05-13 16:30:00",null,null,null,null,null,null,null,null,null,null,null,null,null,"SATNPRO1963","31.958","0.44764","5"],
    [21922,"NA","2024-05-13 16:45:00",null,null,null,null,null,null,null,null,null,null,null,null,null,"SATNPRO1963","31.791999999999998","0.44532","5"],
    [21923,"NA","2024-05-13 17:00:00",null,null,null,null,null,null,null,null,null,null,null,null,null,"SATNPRO1963","31.96","0.44766","5"],
    [21924,"NA","2024-05-13 17:15:00",null,null,null,null,null,null,null,null,null,null,null,null,null,"SATNPRO1963","31.824","0.4458","5"],
    [21925,"NA","2024-05-13 17:30:00",null,null,null,null,null,null,null,null,null,null,null,null,null,"SATNPRO1963","32.06","0.44906","5"],
    [21926,"NA","2024-05-13 17:45:00",null,null,null,null,null,null,null,null,null,null,null,null,null,"SATNPRO1963","31.882","0.44654","5"],
    [21927,"NA","2024-05-13 18:00:00",null,null,null,null,null,null,null,null,null,null,null,null,null,"SATNPRO1963","32.08","0.44934","5"],
    [21928,"NA","2024-05-13 18:15:00",null,null,null,null,null,null,null,null,null,null,null,null,null,"SATNPRO1963","32.136","0.45014","5"],
    [21929,"NA","2024-05-13 18:30:00",null,null,null,null,null,null,null,null,null,null,null,null,null,"SATNPRO1963","31.733999999999998","0.44448","5"],
    [21930,"NA","2024-05-13 18:45:00",null,null,null,null,null,null,null,null,null,null,null,null,null,"SATNPRO1963","31.538","0.44176","5"],
    [21931,"NA","2024-05-13 19:00:00",null,null,null,null,null,null,null,null,null,null,null,null,null,"SATNPRO1963","31.56","0.44204","5"],
    [21932,"NA","2024-05-13 19:15:00",null,null,null,null,null,null,null,null,null,null,null,null,null,"SATNPRO1963","31.666","0.44356","5"],
    [21933,"NA","2024-05-13 19:30:00",null,null,null,null,null,null,null,null,null,null,null,null,null,"SATNPRO1963","31.727999999999998","0.4444","5"],
    [21934,"NA","2024-05-13 19:45:00",null,null,null,null,null,null,null,null,null,null,null,null,null,"SATNPRO1963","32.074","0.44926","5"],
    [21935,"NA","2024-05-13 20:00:00",null,null,null,null,null,null,null,null,null,null,null,null,null,"SATNPRO1963","31.983999999999998","0.44798","5"],
    [21936,"NA","2024-05-13 20:15:00",null,null,null,null,null,null,null,null,null,null,null,null,null,"SATNPRO1963","31.878","0.44652","5"],
    [21937,"NA","2024-05-13 20:30:00",null,null,null,null,null,null,null,null,null,null,null,null,null,"SATNPRO1963","31.878","0.4465","5"],
    [21938,"NA","2024-05-13 20:45:00",null,null,null,null,null,null,null,null,null,null,null,null,null,"SATNPRO1963","31.898","0.4468","5"],
    [21939,"NA","2024-05-13 21:00:00",null,null,null,null,null,null,null,null,null,null,null,null,null,"SATNPRO1963","31.844","0.44602","5"],
    [21940,"NA","2024-05-13 21:15:00",null,null,null,null,null,null,null,null,null,null,null,null,null,"SATNPRO1963","31.706","0.4441","5"],
    [21941,"NA","2024-05-13 21:30:00",null,null,null,null,null,null,null,null,null,null,null,null,null,"SATNPRO1963","31.91","0.44694","5"],
    [21942,"NA","2024-05-13 21:45:00",null,null,null,null,null,null,null,null,null,null,null,null,null,"SATNPRO1963","31.96","0.44764","5"],
    [21943,"NA","2024-05-13 22:00:00",null,null,null,null,null,null,null,null,null,null,null,null,null,"SATNPRO1963","32.019999999999996","0.44852","5"],
    [21944,"NA","2024-05-13 22:15:00",null,null,null,null,null,null,null,null,null,null,null,null,null,"SATNPRO1963","31.896","0.44676","5"],
    [21945,"NA","2024-05-13 22:30:00",null,null,null,null,null,null,null,null,null,null,null,null,null,"SATNPRO1963","31.592","0.4425","5"],
    [21946,"NA","2024-05-13 22:45:00",null,null,null,null,null,null,null,null,null,null,null,null,null,"SATNPRO1963","31.946","0.44746","5"],
    [21947,"NA","2024-05-13 23:00:00",null,null,null,null,null,null,null,null,null,null,null,null,null,"SATNPRO1963","31.814","0.44558","5"],
    [21948,"NA","2024-05-13 23:15:00",null,null,null,null,null,null,null,null,null,null,null,null,null,"SATNPRO1963","31.72","0.44428","5"],
    [21949,"NA","2024-05-13 23:30:00",null,null,null,null,null,null,null,null,null,null,null,null,null,"SATNPRO1963","31.764","0.4449","5"],
    [21950,"NA","2024-05-13 23:45:00",null,null,null,null,null,null,null,null,null,null,null,null,null,"SATNPRO1963","31.878","0.4465","5"],
    [21951,"NA","2024-05-14 00:00:00",null,null,null,null,null,null,null,null,null,null,null,null,null,"SATNPRO1963","32.06","0.44906","5"],
    [21952,"NA","2024-05-14 00:15:00",null,null,null,null,null,null,null,null,null,null,null,null,null,"SATNPRO1963","32.056","0.44902","5"],
    [21953,"NA","2024-05-14 00:30:00",null,null,null,null,null,null,null,null,null,null,null,null,null,"SATNPRO1963","32.008","0.4483","5"],
    [21954,"NA","2024-05-14 00:45:00",null,null,null,null,null,null,null,null,null,null,null,null,null,"SATNPRO1963","32.138","0.45014","5"],
    [21955,"NA","2024-05-14 01:00:00",null,null,null,null,null,null,null,null,null,null,null,null,null,"SATNPRO1963","31.932","0.44726","5"],
    [21956,"NA","2024-05-14 01:15:00",null,null,null,null,null,null,null,null,null,null,null,null,null,"SATNPRO1963","32.096000000000004","0.44954","5"],
    [21957,"NA","2024-05-14 01:30:00",null,null,null,null,null,null,null,null,null,null,null,null,null,"SATNPRO1963","32.084","0.4494","5"],
    [21958,"NA","2024-05-14 01:45:00",null,null,null,null,null,null,null,null,null,null,null,null,null,"SATNPRO1963","31.826","0.44576","5"],
    [21959,"NA","2024-05-14 02:00:00",null,null,null,null,null,null,null,null,null,null,null,null,null,"SATNPRO1963","31.791999999999998","0.44532","5"],
    [21960,"NA","2024-05-14 02:15:00",null,null,null,null,null,null,null,null,null,null,null,null,null,"SATNPRO1963","31.858","0.44616","5"],
    [21961,"NA","2024-05-14 02:30:00",null,null,null,null,null,null,null,null,null,null,null,null,null,"SATNPRO1963","31.862000000000002","0.44628","5"],
    [21962,"NA","2024-05-14 02:45:00",null,null,null,null,null,null,null,null,null,null,null,null,null,"SATNPRO1963","31.9","0.44682","5"],
    [21963,"NA","2024-05-14 03:00:00",null,null,null,null,null,null,null,null,null,null,null,null,null,"SATNPRO1963","32.092","0.44948","5"],
    [21964,"NA","2024-05-14 03:15:00",null,null,null,null,null,null,null,null,null,null,null,null,null,"SATNPRO1963","32.078","0.4493","5"],
    [21965,"NA","2024-05-14 03:30:00",null,null,null,null,null,null,null,null,null,null,null,null,null,"SATNPRO1963","31.881999999999998","0.44656","5"],
    [21966,"NA","2024-05-14 03:45:00",null,null,null,null,null,null,null,null,null,null,null,null,null,"SATNPRO1963","31.904","0.44688","5"],
    [21967,"NA","2024-05-14 04:00:00",null,null,null,null,null,null,null,null,null,null,null,null,null,"SATNPRO1963","32.138000000000005","0.45018","5"],
    [21968,"NA","2024-05-14 04:15:00",null,null,null,null,null,null,null,null,null,null,null,null,null,"SATNPRO1963","32.084","0.4494","5"],
    [21969,"NA","2024-05-14 04:30:00",null,null,null,null,null,null,null,null,null,null,null,null,null,"SATNPRO1963","32.077999999999996","0.44928","5"],
    [21970,"NA","2024-05-14 04:45:00",null,null,null,null,null,null,null,null,null,null,null,null,null,"SATNPRO1963","32.082","0.44936","5"],
    [21971,"NA","2024-05-14 05:00:00",null,null,null,null,null,null,null,null,null,null,null,null,null,"SATNPRO1963","32.02","0.4485","5"],
    [21972,"NA","2024-05-14 05:15:00",null,null,null,null,null,null,null,null,null,null,null,null,null,"SATNPRO1963","32.122","0.44994","5"],
    [21973,"NA","2024-05-14 05:30:00",null,null,null,null,null,null,null,null,null,null,null,null,null,"SATNPRO1963","32.048","0.44892","5"],
    [21974,"NA","2024-05-14 05:45:00",null,null,null,null,null,null,null,null,null,null,null,null,null,"SATNPRO1963","31.964","0.44774","5"],
    [21975,"NA","2024-05-14 06:00:00",null,null,null,null,null,null,null,null,null,null,null,null,null,"SATNPRO1963","32.004","0.44826","5"],
    [21976,"NA","2024-05-14 06:15:00",null,null,null,null,null,null,null,null,null,null,null,null,null,"SATNPRO1963","31.988","0.44808","5"],
    [21977,"NA","2024-05-14 06:30:00",null,null,null,null,null,null,null,null,null,null,null,null,null,"SATNPRO1963","32.264","0.45194","5"],
    [21978,"NA","2024-05-14 06:45:00",null,null,null,null,null,null,null,null,null,null,null,null,null,"SATNPRO1963","31.9","0.44686","5"],
    [21979,"NA","2024-05-14 07:00:00",null,null,null,null,null,null,null,null,null,null,null,null,null,"SATNPRO1963","32.278","0.45208","5"],
    [21980,"NA","2024-05-14 07:15:00",null,null,null,null,null,null,null,null,null,null,null,null,null,"SATNPRO1963","32.102","0.44968","5"],
    [21981,"NA","2024-05-14 07:30:00",null,null,null,null,null,null,null,null,null,null,null,null,null,"SATNPRO1963","32.134","0.45004","5"],
    [21982,"NA","2024-05-14 07:45:00",null,null,null,null,null,null,null,null,null,null,null,null,null,"SATNPRO1963","31.919999999999998","0.4471","5"],
    [21983,"NA","2024-05-14 08:00:00",null,null,null,null,null,null,null,null,null,null,null,null,null,"SATNPRO1963","31.928","0.4472","5"],
    [21984,"NA","2024-05-14 08:15:00",null,null,null,null,null,null,null,null,null,null,null,null,null,"SATNPRO1963","32.078","0.4493","5"],
    [21985,"NA","2024-05-14 08:30:00",null,null,null,null,null,null,null,null,null,null,null,null,null,"SATNPRO1963","32.096000000000004","0.44954","5"],
    [21986,"NA","2024-05-14 08:45:00",null,null,null,null,null,null,null,null,null,null,null,null,null,"SATNPRO1963","32.15","0.4503","5"],
    [21987,"NA","2024-05-14 09:00:00",null,null,null,null,null,null,null,null,null,null,null,null,null,"SATNPRO1963","31.87","0.4464","5"],
    [21988,"NA","2024-05-14 09:15:00",null,null,null,null,null,null,null,null,null,null,null,null,null,"SATNPRO1963","32.022","0.44848","5"],
    [21989,"NA","2024-05-14 09:30:00",null,null,null,null,null,null,null,null,null,null,null,null,null,"SATNPRO1963","31.766000000000002","0.44494","5"],
    [21990,"NA","2024-05-14 09:45:00",null,null,null,null,null,null,null,null,null,null,null,null,null,"SATNPRO1963","32.14","0.45018","5"],
    [21991,"NA","2024-05-14 10:00:00",null,null,null,null,null,null,null,null,null,null,null,null,null,"SATNPRO1963","32.184","0.45076","5"],
    [21992,"NA","2024-05-14 10:15:00",null,null,null,null,null,null,null,null,null,null,null,null,null,"SATNPRO1963","32.104","0.44968","5"],
    [21993,"NA","2024-05-14 10:30:00",null,null,null,null,null,null,null,null,null,null,null,null,null,"SATNPRO1963","32.228","0.45146","5"],
    [21994,"NA","2024-05-14 10:45:00",null,null,null,null,null,null,null,null,null,null,null,null,null,"SATNPRO1963","32.128","0.44998","5"],
    [21995,"NA","2024-05-14 11:00:00",null,null,null,null,null,null,null,null,null,null,null,null,null,"SATNPRO1963","32.016","0.44842","5"],
    [21996,"NA","2024-05-14 11:15:00",null,null,null,null,null,null,null,null,null,null,null,null,null,"SATNPRO1963","31.886","0.4466","5"],
    [21997,"NA","2024-05-14 11:30:00",null,null,null,null,null,null,null,null,null,null,null,null,null,"SATNPRO1963","32.1","0.44962","5"],
    [21998,"NA","2024-05-14 11:45:00",null,null,null,null,null,null,null,null,null,null,null,null,null,"SATNPRO1963","31.938000000000002","0.44734","5"],
    [21999,"NA","2024-05-14 12:00:00",null,null,null,null,null,null,null,null,null,null,null,null,null,"SATNPRO1963","31.932","0.44724","5"],
    [22000,"NA","2024-05-14 12:15:00",null,null,null,null,null,null,null,null,null,null,null,null,null,"SATNPRO1963","31.862","0.44626","5"],
    [22001,"NA","2024-05-14 12:30:00",null,null,null,null,null,null,null,null,null,null,null,null,null,"SATNPRO1963","31.919999999999998","0.44708","5"],
    [22002,"NA","2024-05-14 12:45:00",null,null,null,null,null,null,null,null,null,null,null,null,null,"SATNPRO1963","31.94","0.44738","5"],
    [22003,"NA","2024-05-14 13:00:00",null,null,null,null,null,null,null,null,null,null,null,null,null,"SATNPRO1963","31.994","0.44818","5"],
    [22004,"NA","2024-05-14 13:15:00",null,null,null,null,null,null,null,null,null,null,null,null,null,"SATNPRO1963","31.954","0.44756","5"],
    [22005,"NA","2024-05-14 13:30:00",null,null,null,null,null,null,null,null,null,null,null,null,null,"SATNPRO1963","31.932","0.44728","5"],
    [22006,"NA","2024-05-14 13:45:00",null,null,null,null,null,null,null,null,null,null,null,null,null,"SATNPRO1963","32.008","0.44832","5"],
    [22007,"NA","2024-05-14 14:00:00",null,null,null,null,null,null,null,null,null,null,null,null,null,"SATNPRO1963","31.846","0.44608","5"],
    [22008,"NA","2024-05-14 14:15:00",null,null,null,null,null,null,null,null,null,null,null,null,null,"SATNPRO1963","31.928","0.4472","5"],
    [22009,"NA","2024-05-14 14:30:00",null,null,null,null,null,null,null,null,null,null,null,null,null,"SATNPRO1963","31.864","0.44632","5"],
    [22010,"NA","2024-05-14 14:45:00",null,null,null,null,null,null,null,null,null,null,null,null,null,"SATNPRO1963","31.796","0.44538","5"],
    [22011,"NA","2024-05-14 15:00:00",null,null,null,null,null,null,null,null,null,null,null,null,null,"SATNPRO1963","31.834","0.44588","5"],
    [22012,"NA","2024-05-14 15:15:00",null,null,null,null,null,null,null,null,null,null,null,null,null,"SATNPRO1963","31.952","0.44756","5"],
    [22013,"NA","2024-05-14 15:30:00",null,null,null,null,null,null,null,null,null,null,null,null,null,"SATNPRO1963","31.902","0.44682","5"],
    [22014,"NA","2024-05-14 15:45:00",null,null,null,null,null,null,null,null,null,null,null,null,null,"SATNPRO1963","31.828","0.4458","5"],
    [22015,"NA","2024-05-14 16:00:00",null,null,null,null,null,null,null,null,null,null,null,null,null,"SATNPRO1963","31.804","0.44546","5"],
    [22016,"NA","2024-05-14 16:15:00",null,null,null,null,null,null,null,null,null,null,null,null,null,"SATNPRO1963","31.998","0.44818","5"],
    [22017,"NA","2024-05-14 16:30:00",null,null,null,null,null,null,null,null,null,null,null,null,null,"SATNPRO1963","32.082","0.44936","5"],
    [22018,"NA","2024-05-14 16:45:00",null,null,null,null,null,null,null,null,null,null,null,null,null,"SATNPRO1963","31.9","0.44682","5"],
    [22019,"NA","2024-05-14 17:00:00",null,null,null,null,null,null,null,null,null,null,null,null,null,"SATNPRO1963","31.906","0.44694","5"],
    [22020,"NA","2024-05-14 17:15:00",null,null,null,null,null,null,null,null,null,null,null,null,null,"SATNPRO1963","31.902","0.44682","5"],
    [22021,"NA","2024-05-14 17:30:00",null,null,null,null,null,null,null,null,null,null,null,null,null,"SATNPRO1963","31.998","0.4482","5"],
    [22022,"NA","2024-05-14 17:45:00",null,null,null,null,null,null,null,null,null,null,null,null,null,"SATNPRO1963","31.912","0.447","5"],
    [22023,"NA","2024-05-14 18:00:00",null,null,null,null,null,null,null,null,null,null,null,null,null,"SATNPRO1963","31.86","0.44626","5"],
    [22024,"NA","2024-05-14 18:15:00",null,null,null,null,null,null,null,null,null,null,null,null,null,"SATNPRO1963","31.78","0.44514","5"],
    [22025,"NA","2024-05-14 18:30:00",null,null,null,null,null,null,null,null,null,null,null,null,null,"SATNPRO1963","31.562","0.44208","5"],
    [22026,"NA","2024-05-14 18:45:00",null,null,null,null,null,null,null,null,null,null,null,null,null,"SATNPRO1963","31.502","0.44124","5"],
    [22027,"NA","2024-05-14 19:00:00",null,null,null,null,null,null,null,null,null,null,null,null,null,"SATNPRO1963","31.534","0.44168","5"],
    [22028,"NA","2024-05-14 19:15:00",null,null,null,null,null,null,null,null,null,null,null,null,null,"SATNPRO1963","31.632","0.44302","5"],
    [22029,"NA","2024-05-14 19:30:00",null,null,null,null,null,null,null,null,null,null,null,null,null,"SATNPRO1963","31.512","0.44138","5"],
    [22030,"NA","2024-05-14 19:45:00",null,null,null,null,null,null,null,null,null,null,null,null,null,"SATNPRO1963","31.524","0.44156","5"],
    [22031,"NA","2024-05-14 20:00:00",null,null,null,null,null,null,null,null,null,null,null,null,null,"SATNPRO1963","31.564","0.44212","5"],
    [22032,"NA","2024-05-14 20:15:00",null,null,null,null,null,null,null,null,null,null,null,null,null,"SATNPRO1963","31.594","0.44252","5"],
    [22033,"NA","2024-05-14 20:30:00",null,null,null,null,null,null,null,null,null,null,null,null,null,"SATNPRO1963","31.634","0.44312","5"],
    [22034,"NA","2024-05-14 20:45:00",null,null,null,null,null,null,null,null,null,null,null,null,null,"SATNPRO1963","31.422","0.44012","5"],
    [22035,"NA","2024-05-14 21:00:00",null,null,null,null,null,null,null,null,null,null,null,null,null,"SATNPRO1963","31.542","0.4418","5"],
    [22036,"NA","2024-05-14 21:15:00",null,null,null,null,null,null,null,null,null,null,null,null,null,"SATNPRO1963","31.66","0.44344","5"],
    [22037,"NA","2024-05-14 21:30:00",null,null,null,null,null,null,null,null,null,null,null,null,null,"SATNPRO1963","31.342000000000002","0.43904","5"],
    [22038,"NA","2024-05-14 21:45:00",null,null,null,null,null,null,null,null,null,null,null,null,null,"SATNPRO1963","31.168","0.43656","5"],
    [22039,"NA","2024-05-14 22:00:00",null,null,null,null,null,null,null,null,null,null,null,null,null,"SATNPRO1963","31.419999999999998","0.44008","5"],
    [22040,"NA","2024-05-14 22:15:00",null,null,null,null,null,null,null,null,null,null,null,null,null,"SATNPRO1963","31.316","0.43866","5"],
    [22041,"NA","2024-05-14 22:30:00",null,null,null,null,null,null,null,null,null,null,null,null,null,"SATNPRO1963","31.55","0.4419","5"],
    [22042,"NA","2024-05-14 22:45:00",null,null,null,null,null,null,null,null,null,null,null,null,null,"SATNPRO1963","31.412","0.43996","5"],
    [22043,"NA","2024-05-14 23:00:00",null,null,null,null,null,null,null,null,null,null,null,null,null,"SATNPRO1963","31.348","0.4391","5"],
    [22044,"NA","2024-05-14 23:15:00",null,null,null,null,null,null,null,null,null,null,null,null,null,"SATNPRO1963","31.528","0.44162","5"],
    [22045,"NA","2024-05-14 23:30:00",null,null,null,null,null,null,null,null,null,null,null,null,null,"SATNPRO1963","31.432","0.44022","5"],
    [22046,"NA","2024-05-14 23:45:00",null,null,null,null,null,null,null,null,null,null,null,null,null,"SATNPRO1963","31.468","0.44078","5"],
    [22047,"NA","2024-05-15 00:00:00",null,null,null,null,null,null,null,null,null,null,null,null,null,"SATNPRO1963","31.509999999999998","0.44132","5"],
    [22048,"NA","2024-05-15 00:15:00",null,null,null,null,null,null,null,null,null,null,null,null,null,"SATNPRO1963","31.506","0.44134","5"],
    [22049,"NA","2024-05-15 00:30:00",null,null,null,null,null,null,null,null,null,null,null,null,null,"SATNPRO1963","31.384","0.4396","5"],
    [22050,"NA","2024-05-15 00:45:00",null,null,null,null,null,null,null,null,null,null,null,null,null,"SATNPRO1963","31.442","0.44038","5"],
    [22051,"NA","2024-05-15 01:00:00",null,null,null,null,null,null,null,null,null,null,null,null,null,"SATNPRO1963","31.466","0.44076","5"],
    [22052,"NA","2024-05-15 01:15:00",null,null,null,null,null,null,null,null,null,null,null,null,null,"SATNPRO1963","31.564","0.4421","5"],
    [22053,"NA","2024-05-15 01:30:00",null,null,null,null,null,null,null,null,null,null,null,null,null,"SATNPRO1963","31.368","0.43936","5"],
    [22054,"NA","2024-05-15 01:45:00",null,null,null,null,null,null,null,null,null,null,null,null,null,"SATNPRO1963","31.518","0.44142","5"],
    [22055,"NA","2024-05-15 02:00:00",null,null,null,null,null,null,null,null,null,null,null,null,null,"SATNPRO1963","31.462","0.4407","5"],
    [22056,"NA","2024-05-15 02:15:00",null,null,null,null,null,null,null,null,null,null,null,null,null,"SATNPRO1963","31.596","0.44254","5"],
    [22057,"NA","2024-05-15 02:30:00",null,null,null,null,null,null,null,null,null,null,null,null,null,"SATNPRO1963","31.728","0.44442","5"],
    [22058,"NA","2024-05-15 02:45:00",null,null,null,null,null,null,null,null,null,null,null,null,null,"SATNPRO1963","31.752","0.44472","5"],
    [22059,"NA","2024-05-15 03:00:00",null,null,null,null,null,null,null,null,null,null,null,null,null,"SATNPRO1963","31.75","0.44468","5"],
    [22060,"NA","2024-05-15 03:15:00",null,null,null,null,null,null,null,null,null,null,null,null,null,"SATNPRO1963","31.644000000000002","0.44322","5"],
    [22061,"NA","2024-05-15 03:30:00",null,null,null,null,null,null,null,null,null,null,null,null,null,"SATNPRO1963","31.552","0.44194","5"],
    [22062,"NA","2024-05-15 03:45:00",null,null,null,null,null,null,null,null,null,null,null,null,null,"SATNPRO1963","31.928","0.44724","5"],
    [22063,"NA","2024-05-15 04:00:00",null,null,null,null,null,null,null,null,null,null,null,null,null,"SATNPRO1963","31.844","0.446","5"],
    [22064,"NA","2024-05-15 04:15:00",null,null,null,null,null,null,null,null,null,null,null,null,null,"SATNPRO1963","31.642","0.44324","5"],
    [22065,"NA","2024-05-15 04:30:00",null,null,null,null,null,null,null,null,null,null,null,null,null,"SATNPRO1963","31.695999999999998","0.44394","5"],
    [22066,"NA","2024-05-15 04:45:00",null,null,null,null,null,null,null,null,null,null,null,null,null,"SATNPRO1963","31.86","0.44626","5"],
    [22067,"NA","2024-05-15 05:00:00",null,null,null,null,null,null,null,null,null,null,null,null,null,"SATNPRO1963","31.849999999999998","0.4461","5"],
    [22068,"NA","2024-05-15 05:15:00",null,null,null,null,null,null,null,null,null,null,null,null,null,"SATNPRO1963","31.932000000000002","0.44732","5"],
    [22069,"NA","2024-05-15 05:30:00",null,null,null,null,null,null,null,null,null,null,null,null,null,"SATNPRO1963","31.762","0.4449","5"],
    [22070,"NA","2024-05-15 05:45:00",null,null,null,null,null,null,null,null,null,null,null,null,null,"SATNPRO1963","31.951999999999998","0.4476","5"],
    [22071,"NA","2024-05-15 06:00:00",null,null,null,null,null,null,null,null,null,null,null,null,null,"SATNPRO1963","31.823999999999998","0.44576","5"],
    [22072,"NA","2024-05-15 06:15:00",null,null,null,null,null,null,null,null,null,null,null,null,null,"SATNPRO1963","31.766000000000002","0.44494","5"],
    [22073,"NA","2024-05-15 06:30:00",null,null,null,null,null,null,null,null,null,null,null,null,null,"SATNPRO1963","31.913999999999998","0.447","5"],
    [22074,"NA","2024-05-15 06:45:00",null,null,null,null,null,null,null,null,null,null,null,null,null,"SATNPRO1963","31.82","0.44568","5"],
    [22075,"NA","2024-05-15 07:00:00",null,null,null,null,null,null,null,null,null,null,null,null,null,"SATNPRO1963","31.976","0.4479","5"],
    [22076,"NA","2024-05-15 07:15:00",null,null,null,null,null,null,null,null,null,null,null,null,null,"SATNPRO1963","31.974","0.44782","5"],
    [22077,"NA","2024-05-15 07:30:00",null,null,null,null,null,null,null,null,null,null,null,null,null,"SATNPRO1963","32.262","0.45186","5"],
    [22078,"NA","2024-05-15 07:45:00",null,null,null,null,null,null,null,null,null,null,null,null,null,"SATNPRO1963","32.135999999999996","0.4501","5"],
    [22079,"NA","2024-05-15 08:00:00",null,null,null,null,null,null,null,null,null,null,null,null,null,"SATNPRO1963","32.346000000000004","0.45304","5"],
    [22080,"NA","2024-05-15 08:15:00",null,null,null,null,null,null,null,null,null,null,null,null,null,"SATNPRO1963","32.082","0.44932","5"],
    [22081,"NA","2024-05-15 08:30:00",null,null,null,null,null,null,null,null,null,null,null,null,null,"SATNPRO1963","31.896","0.44676","5"],
    [22082,"NA","2024-05-15 08:45:00",null,null,null,null,null,null,null,null,null,null,null,null,null,"SATNPRO1963","31.972","0.44784","5"],
    [22083,"NA","2024-05-15 09:00:00",null,null,null,null,null,null,null,null,null,null,null,null,null,"SATNPRO1963","31.87","0.44642","5"],
    [22084,"NA","2024-05-15 09:15:00",null,null,null,null,null,null,null,null,null,null,null,null,null,"SATNPRO1963","31.71","0.44418","5"],
    [22085,"NA","2024-05-15 09:30:00",null,null,null,null,null,null,null,null,null,null,null,null,null,"SATNPRO1963","31.956","0.44758","5"],
    [22086,"NA","2024-05-15 09:45:00",null,null,null,null,null,null,null,null,null,null,null,null,null,"SATNPRO1963","31.82","0.4457","5"],
    [22087,"NA","2024-05-15 10:00:00",null,null,null,null,null,null,null,null,null,null,null,null,null,"SATNPRO1963","31.58","0.4423","5"],
    [22088,"NA","2024-05-15 10:15:00",null,null,null,null,null,null,null,null,null,null,null,null,null,"SATNPRO1963","31.706","0.44412","5"],
    [22089,"NA","2024-05-15 10:30:00",null,null,null,null,null,null,null,null,null,null,null,null,null,"SATNPRO1963","31.794","0.44536","5"],
    [22090,"NA","2024-05-15 10:45:00",null,null,null,null,null,null,null,null,null,null,null,null,null,"SATNPRO1963","31.828","0.44582","5"],
    [22091,"NA","2024-05-15 11:00:00",null,null,null,null,null,null,null,null,null,null,null,null,null,"SATNPRO1963","31.748","0.44468","5"],
    [22092,"NA","2024-05-15 11:15:00",null,null,null,null,null,null,null,null,null,null,null,null,null,"SATNPRO1963","31.631999999999998","0.44306","5"],
    [22093,"NA","2024-05-15 11:30:00",null,null,null,null,null,null,null,null,null,null,null,null,null,"SATNPRO1963","31.878","0.44654","5"],
    [22094,"NA","2024-05-15 11:45:00",null,null,null,null,null,null,null,null,null,null,null,null,null,"SATNPRO1963","31.788","0.44526","5"],
    [22095,"HCEP03730566","2024-05-15 12:15:00","9.4813","3.20569","26.021","6.441","6.41","0.395","2.933","0.02","0.13","29.3098","4.64845","68.24","0","SATNPRO1509","29.854","0.41814","5"],
    [22096,"HCEP03730566","2024-05-15 12:30:00","9.3829","3.20235","26.089","4.802","6.79","0.425","3.096","0.04","0.11","29.3564","4.6569","50.63","0","SATNPRO1509","30.598","0.42854","5"],
    [22097,"HCEP03730566","2024-05-15 12:45:00","9.3762","3.20221","26.014","4.712","6.98","0.415","3.06","0.04","0.09","29.3605","4.6576","49.67","0","SATNPRO1509","30.830000000000002","0.43182","5"],
    [22098,"HCEP03730566","2024-05-15 13:00:00","9.3741","3.20213","25.919","4.707","7.11","0.409","2.919","0.03","0.09","29.3615","4.65777","49.62","0","SATNPRO1509","30.862","0.43226","5"],
    [22099,"HCEP03730566","2024-05-15 13:15:00","9.3744","3.20213","25.856","4.707","7.21","0.432","3.388","0.04","0.11","29.3613","4.65773","49.62","0","SATNPRO1509","30.974","0.43386","5"],
    [22100,"HCEP03730566","2024-05-15 13:30:00","9.3741","3.20212","25.729","4.695","7.27","0.433","3.299","0.04","0.1","29.3615","4.65776","49.49","0","SATNPRO1509","30.95","0.43348","5"],
    [22101,"HCEP03730566","2024-05-15 13:45:00","9.3745","3.20203","25.65","4.696","7.32","0.427","3.127","0.03","0.09","29.3602","4.65757","49.5","0","SATNPRO1509","31.058","0.43502","5"],
    [22102,"HCEP03730566","2024-05-15 14:00:00","9.3745","3.20193","25.536","4.708","7.36","0.51","6.392","0.13","6.05","29.3592","4.65742","49.63","0","SATNPRO1509","31.166","0.43654","5"],
    [22103,"HCEP03730566","2024-05-15 14:15:00","9.3752","3.20179","25.431","4.72","7.39","0.406","2.882","0.03","0.07","29.3573","4.65712","49.75","0","SATNPRO1509","31.116","0.43582","5"],
    [22104,"HCEP03730566","2024-05-15 14:30:00","9.3744","3.20182","25.34","4.721","7.43","0.413","2.826","0.04","0.07","29.3583","4.65727","49.76","0","SATNPRO1509","31.266","0.43792","5"],
    [22105,"HCEP03730566","2024-05-15 14:45:00","9.3761","3.20121","25.269","4.756","7.45","0.421","2.552","0.03","0.08","29.3507","4.65616","50.13","0","SATNPRO1509","31.632","0.44308","5"],
    [22106,"HCEP03730566","2024-05-15 15:00:00","9.3772","3.20085","25.206","4.802","7.48","0.399","1.875","0.03","0.06","29.3463","4.65549","50.62","0","SATNPRO1509","32.012","0.44836","5"],
    [22107,"HCEP03730566","2024-05-15 15:15:00","9.3744","3.20086","25.031","4.869","7.49","0.417","1.554","0.02","0.09","29.3487","4.65588","51.33","0","SATNPRO1509","32.024","0.44854","5"],
    [22108,"HCEP03730566","2024-05-15 15:30:00","9.3733","3.20206","24.993","4.817","7.5","0.532","3.165","0.03","0.07","29.3617","4.65776","50.77","0","SATNPRO1509","31.006","0.4343","5"],
    [22109,"HCEP03730566","2024-05-15 15:45:00","9.3753","3.20083","24.959","4.804","7.51","0.524","1.844","0.04","0.14","29.3477","4.65572","50.63","0","SATNPRO1509","32.083999999999996","0.44936","5"],
    [22110,"HCEP03730566","2024-05-15 16:00:00","9.3749","3.20153","24.869","4.828","7.52","0.623","3.276","0.03","0.12","29.3552","4.65679","50.89","0","SATNPRO1509","31.476","0.44088","5"],
    [22111,"HCEP03730566","2024-05-15 16:15:00","9.3747","3.20226","24.881","4.689","7.52","0.657","4.375","0.03","0.12","29.3627","4.65787","49.43","0","SATNPRO1509","31.024","0.43452","5"],
    [22112,"HCEP03730566","2024-05-15 16:30:00","9.3745","3.20224","24.852","4.597","7.52","0.659","4.08","0.02","0.19","29.3628","4.65788","48.46","0","SATNPRO1509","31.073999999999998","0.43522","5"],
    [22113,"HCEP03730566","2024-05-15 16:45:00","9.3723","3.2026","24.883","4.582","7.52","0.636","3.936","0.01","0.11","29.368","4.65868","48.3","0","SATNPRO1509","30.936","0.43332","5"],
    [22114,"HCEP03730566","2024-05-15 17:00:00","9.3715","3.20264","24.858","4.584","7.52","0.603","3.846","0.03","0.14","29.3692","4.65886","48.33","0","SATNPRO1509","31.012","0.43436","5"],
    [22115,"HCEP03730566","2024-05-15 17:15:00","9.3709","3.20274","24.908","4.581","7.53","0.527","3.583","0.01","0.13","29.3707","4.65909","48.29","0","SATNPRO1509","31.08","0.4353","5"],
    [22116,"HCEP03730566","2024-05-15 17:30:00","9.3705","3.20271","24.955","4.594","7.53","0.442","3.709","0.01","0.17","29.3707","4.6591","48.42","0","SATNPRO1509","31.118","0.43584","5"],
    [22117,"HCEP03730566","2024-05-15 17:45:00","9.3733","3.20218","25.124","4.629","7.53","0.347","3.595","0","0.08","29.363","4.65796","48.79","0","SATNPRO1509","31.262","0.43786","5"],
    [22118,"HCEP03730566","2024-05-15 18:00:00","9.3691","3.20136","25.171","4.644","7.53","0.26","4.308","0","0.13","29.358","4.65732","48.95","0","SATNPRO1509","31.116","0.43584","5"],
    [22119,"HCEP03730566","2024-05-15 18:15:00","9.3684","3.20305","25.192","4.625","7.54","0.192","6.115","0","0.13","29.3757","4.65987","48.75","0","SATNPRO1509","31.1","0.43562","5"],
    [22120,"HCEP03730566","2024-05-15 18:30:00","9.3678","3.2032","25.345","4.635","7.54","0.133","9.348","0","0.12","29.3777","4.66018","48.85","0","SATNPRO1509","31.01","0.4344","5"],
    [22121,"HCEP03730566","2024-05-15 18:45:00","9.3683","3.20323","25.432","4.592","7.54","0.097","16.103","0","0.11","29.3775","4.66015","48.4","0","SATNPRO1509","30.986","0.43402","5"],
    [22122,"HCEP03730566","2024-05-15 19:00:00","9.3686","3.2033","25.576","4.575","7.54","0.082","27.651","0","0.08","29.378","4.66022","48.23","0","SATNPRO1509","30.862","0.43226","5"],
    [22123,"HCEP03730566","2024-05-15 19:15:00","9.3704","3.20293","25.707","4.548","7.54","0.086","46.579","0.01","0.08","29.3727","4.65943","47.94","0","SATNPRO1509","30.86","0.43222","5"],
    [22124,"HCEP03730566","2024-05-15 19:30:00","9.3716","3.203","25.917","4.531","7.54","0.099","72.234","0.01","0.12","29.3723","4.65937","47.76","0","SATNPRO1509","30.8","0.43138","5"],
    [22125,"HCEP03730566","2024-05-15 19:45:00","9.3734","3.2029","25.972","4.509","7.53","0.119","105.042","0.01","0.11","29.3698","4.65898","47.53","0","SATNPRO1509","30.676","0.42968","5"],
    [22126,"HCEP03730566","2024-05-15 20:00:00","9.3739","3.20291","26.189","4.492","7.53","0.152","132.056","0.01","0.1","29.3695","4.65894","47.35","0","SATNPRO1509","30.808","0.43148","5"],
    [22127,"HCEP03730566","2024-05-15 20:15:00","9.3748","3.20272","26.381","4.49","7.53","0.172","144.891","0.02","0.13","29.3667","4.65853","47.33","0","SATNPRO1509","30.868","0.43232","5"],
    [22128,"HCEP03730566","2024-05-15 20:30:00","9.375","3.20263","26.5","4.498","7.53","0.185","147.681","0.02","0.1","29.3656","4.65837","47.42","0","SATNPRO1509","30.918","0.43306","5"],
    [22129,"HCEP03730566","2024-05-15 20:45:00","9.376","3.20258","26.696","4.488","7.53","0.212","142.875","0.02","0.12","29.3641","4.65816","47.32","0","SATNPRO1509","30.866","0.43234","5"],
    [22130,"NA","2024-06-05 20:00:00",null,null,null,null,null,null,null,null,null,null,null,null,null,"SATNPRO1509","27.392","0.38368","5"],
    [22131,"HCEP03730566","2024-05-15 21:00:00","9.3772","3.20245","26.864","4.469","7.53","0.222","131.429","0.02","0.12","29.3617","4.6578","47.11","0","SATNPRO1509","30.872","0.43238","5"],
    [22132,"HCEP03730566","2024-05-15 21:15:00","9.3772","3.20256","27.017","4.449","7.53","0.226","115.291","0.02","0.08","29.3628","4.65797","46.9","0","SATNPRO1509","30.718","0.43024","5"],
    [22133,"HCEP03730566","2024-05-15 21:30:00","9.3765","3.20255","27.156","4.45","7.53","0.214","96.769","0.01","0.03","29.3633","4.65805","46.92","0","SATNPRO1509","30.874","0.43242","5"],
    [22134,"HCEP03730566","2024-05-15 21:45:00","9.3706","3.2029","27.265","4.508","7.53","0.199","68.121","0.02","0","29.3716","4.65936","47.52","0","SATNPRO1509","30.998","0.4342","5"],
    [22135,"HCEP03730566","2024-05-15 22:00:00","9.3724","3.20279","27.394","4.532","7.53","0.187","31.085","0.01","0","29.3689","4.65895","47.78","0","SATNPRO1509","30.982","0.43396","5"],
    [22136,"HCEP03730566","2024-05-15 22:15:00","9.3685","3.20298","27.47","4.572","7.53","0.173","14.603","0.02","0.01","29.374","4.65975","48.19","0","SATNPRO1509","31.076","0.43526","5"],
    [22137,"HCEP03730566","2024-05-15 22:30:00","9.3705","3.20296","27.569","4.56","7.54","0.165","5.642","0.01","0.01","29.3722","4.65946","48.07","0","SATNPRO1509","30.92","0.43308","5"],
    [22138,"HCEP03730566","2024-05-15 22:45:00","9.3733","3.20292","27.736","4.49","7.53","0.158","1.384","0.01","0.01","29.3694","4.65902","47.33","0","SATNPRO1509","30.778","0.43112","5"],
    [22139,"HCEP03730566","2024-05-15 23:00:00","9.3761","3.20276","27.728","4.424","7.53","0.151","0.373","0.01","0.01","29.3655","4.65841","46.64","0","SATNPRO1509","30.716","0.4302","5"],
    [22140,"HCEP03730566","2024-05-15 23:15:00","9.3781","3.20254","27.811","4.385","7.53","0.133","0.345","0.01","0.01","29.3615","4.65781","46.23","0","SATNPRO1509","30.718","0.43028","5"],
    [22141,"HCEP03730566","2024-05-15 23:30:00","9.3784","3.20251","27.879","4.374","7.52","0.119","0.37","0.01","0.01","29.361","4.65774","46.12","0","SATNPRO1509","30.576","0.42824","5"],
    [22142,"HCEP03730566","2024-05-15 23:45:00","9.3791","3.2023","27.858","4.375","7.52","0.106","0.361","0.01","0.01","29.3583","4.65734","46.12","0","SATNPRO1509","30.758","0.43082","5"],
    [22143,"HCEP03730566","2024-05-16 00:00:00","9.378","3.20229","27.832","4.397","7.52","0.089","0.382","0.01","0.01","29.3592","4.65748","46.36","0","SATNPRO1509","30.864","0.43226","5"],
    [22144,"HCEP03730566","2024-05-16 00:15:00","9.3786","3.20172","27.889","4.463","7.52","0.085","0.42","0","0.01","29.3528","4.65656","47.05","0","SATNPRO1509","31.126","0.43598","5"],
    [22145,"HCEP03730566","2024-05-16 00:30:00","9.3755","3.20226","27.825","4.515","7.52","0.085","0.66","0","0.03","29.3609","4.65777","47.59","0","SATNPRO1509","30.954","0.4336","5"],
    [22146,"HCEP03730566","2024-05-16 00:45:00","9.371","3.20241","27.839","4.537","7.52","0.087","0.749","0.01","0.03","29.3661","4.6586","47.83","0","SATNPRO1509","31.11","0.43572","5"],
    [22147,"HCEP03730566","2024-05-16 01:00:00","9.3693","3.20235","27.801","4.609","7.53","0.09","0.802","0.01","0.03","29.3669","4.65874","48.59","0","SATNPRO1509","31.33","0.43886","5"],
    [22148,"HCEP03730566","2024-05-16 01:15:00","9.3686","3.20191","27.757","4.68","7.53","0.088","0.791","0.01","0.02","29.363","4.65819","49.33","0","SATNPRO1509","31.394","0.43972","5"],
    [22149,"HCEP03730566","2024-05-16 01:30:00","9.368","3.20226","27.697","4.702","7.54","0.1","0.952","0.01","0.04","29.367","4.65878","49.56","0","SATNPRO1509","31.43","0.4402","5"],
    [22150,"HCEP03730566","2024-05-16 01:45:00","9.3668","3.20223","27.576","4.722","7.54","0.11","0.95","0.01","0.04","29.3677","4.65889","49.77","0","SATNPRO1509","31.622","0.44298","5"],
    [22151,"HCEP03730566","2024-05-16 02:00:00","9.3648","3.20206","27.521","4.752","7.54","0.118","0.95","0.01","0.06","29.3677","4.65892","50.08","0","SATNPRO1509","31.794","0.4453","5"],
    [22152,"HCEP03730566","2024-05-16 02:15:00","9.3632","3.20249","27.437","4.778","7.54","0.147","1.299","0.03","0.04","29.3735","4.65977","50.36","0","SATNPRO1509","31.541999999999998","0.44178","5"],
    [22153,"HCEP03730566","2024-05-16 02:30:00","9.3598","3.20282","27.345","4.815","7.55","0.159","1.517","0.02","0.05","29.3796","4.6607","50.75","0","SATNPRO1509","31.49","0.44104","5"],
    [22154,"HCEP03730566","2024-05-16 02:45:00","9.3568","3.20311","27.287","4.869","7.55","0.165","1.619","0.01","0.09","29.3851","4.66155","51.31","0","SATNPRO1509","31.652","0.44336","5"],
    [22155,"HCEP03730566","2024-05-16 03:00:00","9.3547","3.20334","27.213","4.927","7.55","0.202","1.88","0.04","0.11","29.3891","4.66215","51.93","0","SATNPRO1509","31.764","0.44488","5"],
    [22156,"HCEP03730566","2024-05-16 03:15:00","9.3524","3.20343","27.106","4.966","7.56","0.2","1.76","0.02","0.09","29.392","4.66261","52.33","0","SATNPRO1509","31.822","0.44572","5"],
    [22157,"HCEP03730566","2024-05-16 03:30:00","9.3513","3.20349","27.005","5.023","7.56","0.229","2.081","0.03","0.1","29.3935","4.66283","52.93","0","SATNPRO1509","31.826","0.44582","5"],
    [22158,"HCEP03730566","2024-05-16 03:45:00","9.3515","3.20355","26.845","5.006","7.57","0.251","2.334","0.02","0.13","29.394","4.66289","52.76","0","SATNPRO1509","31.776","0.4451","5"],
    [22159,"HCEP03730566","2024-05-16 04:00:00","9.3506","3.20349","26.749","5.025","7.57","0.253","2.152","0.01","0.07","29.3942","4.66293","52.96","0","SATNPRO1509","31.901999999999997","0.44682","5"],
    [22160,"HCEP03730566","2024-05-16 04:15:00","9.3512","3.20347","26.597","5.018","7.57","0.286","2.153","0.04","0.09","29.3935","4.66281","52.88","0","SATNPRO1509","31.822","0.44574","5"],
    [22161,"HCEP03730566","2024-05-16 04:30:00","9.3516","3.20345","26.559","5.017","7.57","0.297","2.261","0.03","0.09","29.3931","4.66275","52.87","0","SATNPRO1509","31.774","0.44506","5"],
    [22162,"HCEP03730566","2024-05-16 04:45:00","9.3529","3.20353","26.439","4.986","7.57","0.332","2.739","0.03","0.16","29.3928","4.66267","52.55","0","SATNPRO1509","31.654","0.4434","5"],
    [22163,"HCEP03730566","2024-05-16 05:00:00","9.3526","3.20345","26.322","4.96","7.56","0.357","2.53","0.05","0.14","29.3923","4.6626","52.27","0","SATNPRO1509","31.826","0.44576","5"],
    [22164,"HCEP03730566","2024-05-16 05:15:00","9.3542","3.20333","26.244","4.952","7.56","0.362","2.745","0.04","0.12","29.3898","4.66221","52.19","0","SATNPRO1509","31.592","0.44248","5"],
    [22165,"HCEP03730566","2024-05-16 05:30:00","9.3549","3.20328","26.157","4.93","7.56","0.407","2.845","0.1","0.21","29.3888","4.66204","51.96","0","SATNPRO1509","31.576","0.44224","5"],
    [22166,"HCEP03730566","2024-05-16 05:45:00","9.3557","3.2032","26.114","4.917","7.56","0.393","2.99","0.04","0.15","29.3873","4.66181","51.82","0","SATNPRO1509","31.718","0.44426","5"],
    [22167,"HCEP03730566","2024-05-16 06:00:00","9.3574","3.20317","26.084","4.887","7.56","0.431","3.406","0.05","0.18","29.3856","4.66154","51.5","0","SATNPRO1509","31.604","0.44264","5"],
    [22168,"HCEP03730566","2024-05-16 06:15:00","9.3572","3.20283","26.082","4.887","7.56","0.414","2.806","0.08","0.17","29.3824","4.66108","51.5","0","SATNPRO1509","31.704","0.4441","5"],
    [22169,"HCEP03730566","2024-05-16 06:30:00","9.3571","3.20259","26.069","4.929","7.56","0.467","2.479","0.35","0.11","29.38","4.66074","51.94","0","SATNPRO1509","31.816","0.44562","5"],
    [22170,"HCEP03730566","2024-05-16 06:45:00","9.3577","3.20221","26.064","4.977","7.56","0.371","2.134","0.05","0.22","29.3757","4.66011","52.45","0","SATNPRO1509","31.888","0.44664","5"],
    [22171,"HCEP03730566","2024-05-16 07:00:00","9.3555","3.20184","26.063","5.069","7.56","0.356","1.457","0.08","0.15","29.3737","4.65986","53.42","0","SATNPRO1509","32.452","0.45458","5"],
    [22172,"HCEP03730566","2024-05-16 07:15:00","9.3573","3.20151","26.049","5.174","7.57","0.327","1.849","0.03","0.4","29.3689","4.65914","54.53","0","SATNPRO1509","32.494","0.4551","5"],
    [22173,"HCEP03730566","2024-05-16 07:30:00","9.3599","3.20135","26.052","5.152","7.57","0.354","1.625","0.07","0.11","29.3652","4.65856","54.29","0","SATNPRO1509","32.292","0.45228","5"],
    [22174,"HCEP03730566","2024-05-16 07:45:00","9.36","3.20097","26.08","5.154","7.57","0.334","1.581","0.04","0.18","29.3611","4.65798","54.31","0","SATNPRO1509","32.478","0.45492","5"],
    [22175,"HCEP03730566","2024-05-16 08:00:00","9.3638","3.20095","26.018","5.13","7.57","0.367","2.075","0.04","0.1","29.3579","4.65744","54.06","0","SATNPRO1509","32.216","0.45124","5"],
    [22176,"HCEP03730566","2024-05-16 08:15:00","9.365","3.20172","26.054","4.964","7.56","0.412","3.417","0.05","0.11","29.3647","4.65841","52.32","0","SATNPRO1509","31.724","0.44434","5"],
    [22177,"HCEP03730566","2024-05-16 08:30:00","9.3651","3.20185","26.108","4.828","7.56","0.418","3.59","0.05","0.18","29.3659","4.65858","50.89","0","SATNPRO1509","31.826","0.4458","5"],
    [22178,"HCEP03730566","2024-05-16 08:45:00","9.3648","3.20198","26.155","4.805","7.55","0.421","3.493","0.13","0.11","29.3675","4.65882","50.65","0","SATNPRO1509","31.758","0.44484","5"],
    [22179,"HCEP03730566","2024-05-16 09:00:00","9.3638","3.20196","26.179","4.814","7.55","0.382","3.148","0.03","0.11","29.3681","4.65891","50.73","0","SATNPRO1509","31.682","0.44374","5"],
    [22180,"HCEP03730566","2024-05-16 09:15:00","9.3634","3.20201","26.211","4.829","7.55","0.386","3.017","0.03","0.08","29.3689","4.65904","50.9","0","SATNPRO1509","31.762","0.44486","5"],
    [22181,"HCEP03730566","2024-05-16 09:30:00","9.3617","3.20223","26.245","4.849","7.55","0.378","3.054","0.05","0.14","29.3726","4.6596","51.11","0","SATNPRO1509","31.684","0.4438","5"],
    [22182,"HCEP03730566","2024-05-16 09:45:00","9.361","3.20233","26.276","4.877","7.55","0.407","2.97","0.13","0.14","29.3741","4.65984","51.4","0","SATNPRO1509","31.764","0.44494","5"],
    [22183,"HCEP03730566","2024-05-16 10:00:00","9.36","3.20249","26.353","4.878","7.55","0.366","2.871","0.02","0.12","29.3765","4.66021","51.41","0","SATNPRO1509","31.768","0.44496","5"],
    [22184,"HCEP03730566","2024-05-16 10:15:00","9.3627","3.20169","26.406","4.912","7.55","0.363","2.042","0.07","0.07","29.3662","4.65868","51.77","0","SATNPRO1509","32.072","0.4492","5"],
    [22185,"HCEP03730566","2024-05-16 10:30:00","9.3599","3.20226","26.423","4.947","7.55","0.38","3.144","0.03","0.15","29.3742","4.65987","52.14","0","SATNPRO1509","31.736","0.44454","5"],
    [22186,"HCEP03730566","2024-05-16 10:45:00","9.3594","3.20227","26.499","4.949","7.55","0.355","2.549","0.05","0.12","29.3747","4.65997","52.16","0","SATNPRO1509","32.104","0.4497","5"],
    [22187,"HCEP03730566","2024-05-16 11:00:00","9.3604","3.20162","26.534","4.99","7.56","0.312","1.738","0.03","0.05","29.3673","4.65888","52.59","0","SATNPRO1509","32.314","0.4526","5"],
    [22188,"HCEP03730566","2024-05-16 11:15:00","9.359","3.2015","26.574","5.072","7.56","0.331","1.753","0.05","0.13","29.3672","4.6589","53.45","0","SATNPRO1509","32.542","0.4558","5"],
    [22189,"HCEP03730566","2024-05-16 11:30:00","9.3586","3.20282","26.58","5.014","7.56","0.405","3.504","0.04","0.15","29.3809","4.66087","52.84","0","SATNPRO1509","31.56","0.44208","5"],
    [22190,"HCEP03730566","2024-05-16 11:45:00","9.3575","3.20245","26.591","4.931","7.56","0.347","2.534","0.03","0.12","29.3781","4.66049","51.96","0","SATNPRO1509","32.718","0.45828","5"],
    [22191,"HCEP03730566","2024-05-16 12:00:00","9.3575","3.20293","26.525","4.971","7.56","0.367","3.206","0.03","0.11","29.3829","4.66118","52.39","0","SATNPRO1509","31.642","0.44318","5"],
    [22192,"HCEP03730566","2024-05-16 12:15:00","9.3578","3.20324","26.487","4.862","7.55","0.397","3.71","0.06","0.2","29.3859","4.66159","51.24","0","SATNPRO1509","31.43","0.4402","5"],
    [22193,"HCEP03730566","2024-05-16 12:30:00","9.357","3.20336","26.45","4.813","7.55","0.386","3.608","0.04","0.16","29.3878","4.66188","50.72","0","SATNPRO1509","31.312","0.43856","5"],
    [22194,"HCEP03730566","2024-05-16 12:45:00","9.3579","3.20345","26.441","4.805","7.55","0.409","3.798","0.06","0.16","29.3879","4.66188","50.64","0","SATNPRO1509","31.356","0.43918","5"],
    [22195,"HCEP03730566","2024-05-16 13:00:00","9.359","3.20365","26.381","4.744","7.54","0.423","4.055","0.04","0.22","29.3891","4.66203","50","0","SATNPRO1509","31.258","0.43778","5"],
    [22196,"HCEP03730566","2024-05-16 13:15:00","9.3602","3.20376","26.367","4.692","7.54","0.427","3.971","0.06","0.21","29.3892","4.66202","49.46","0","SATNPRO1509","31.078","0.43528","5"],
    [22197,"HCEP03730566","2024-05-16 13:30:00","9.3594","3.20357","26.29","4.672","7.54","0.399","3.433","0.06","0.16","29.388","4.66185","49.24","0","SATNPRO1509","31.362","0.43926","5"],
    [22198,"HCEP03730566","2024-05-16 13:45:00","9.358","3.20365","26.35","4.721","7.54","0.356","4.048","0.03","0.23","29.3899","4.66216","49.75","0","SATNPRO1509","31.400000000000002","0.4398","5"],
    [22199,"HCEP03730566","2024-05-16 14:00:00","9.3539","3.20372","26.105","4.821","7.54","0.351","3.488","0.05","0.17","29.3941","4.66283","50.81","0","SATNPRO1509","31.594","0.44252","5"],
    [22200,"HCEP03730566","2024-05-16 14:15:00","9.351","3.20378","26.02","4.954","7.55","0.307","3.052","0.02","0.21","29.3972","4.66331","52.21","0","SATNPRO1509","31.919999999999998","0.44706","5"],
    [22201,"HCEP03730566","2024-05-16 14:30:00","9.3496","3.20374","25.951","5.031","7.55","0.293","2.741","0.02","0.14","29.3979","4.66344","53.02","0","SATNPRO1509","32.11","0.44974","5"],
    [22202,"HCEP03730566","2024-05-16 14:45:00","9.3514","3.20391","25.874","4.991","7.55","0.322","3.592","0.03","0.29","29.3982","4.66344","52.6","0","SATNPRO1509","31.714000000000002","0.44422","5"],
    [22203,"HCEP03730566","2024-05-16 15:00:00","9.3528","3.20374","25.81","4.946","7.55","0.33","3.771","0.04","0.32","29.3954","4.663","52.12","0","SATNPRO1509","31.822","0.44572","5"],
    [22204,"HCEP03730566","2024-05-16 15:15:00","9.3546","3.20369","25.746","4.909","7.55","0.334","3.939","0.1","0.24","29.3934","4.66268","51.74","0","SATNPRO1509","31.632","0.44306","5"],
    [22205,"HCEP03730566","2024-05-16 15:30:00","9.3553","3.20346","25.709","4.879","7.55","0.33","3.804","0.05","0.21","29.3904","4.66224","51.42","0","SATNPRO1509","31.724","0.44432","5"],
    [22206,"HCEP03730566","2024-05-16 15:45:00","9.3557","3.20344","25.611","4.885","7.55","0.312","3.508","0.1","0.15","29.3899","4.66216","51.49","0","SATNPRO1509","31.628","0.44302","5"],
    [22207,"HCEP03730566","2024-05-16 16:00:00","9.3544","3.20363","25.595","4.893","7.55","0.307","3.861","0.03","0.22","29.393","4.66262","51.57","0","SATNPRO1509","31.791999999999998","0.4453","5"],
    [22208,"HCEP03730566","2024-05-16 16:15:00","9.3547","3.20327","25.575","4.912","7.55","0.3","3.726","0.03","0.12","29.389","4.66204","51.77","0","SATNPRO1509","31.824","0.44574","5"],
    [22209,"HCEP03730566","2024-05-16 16:30:00","9.3551","3.20291","25.512","4.959","7.55","0.292","4.265","0.03","0.11","29.3851","4.66147","52.26","0","SATNPRO1509","32.116","0.44984","5"],
    [22210,"HCEP03730566","2024-05-16 16:45:00","9.3544","3.20348","25.501","4.945","7.55","0.304","7.082","0.02","0.12","29.3915","4.6624","52.12","0","SATNPRO1509","31.77","0.44498","5"],
    [22211,"HCEP03730566","2024-05-16 17:00:00","9.3541","3.20321","25.414","4.922","7.55","0.304","14.24","0.03","0.1","29.389","4.66204","51.87","0","SATNPRO1509","31.852","0.44614","5"],
    [22212,"HCEP03730566","2024-05-16 17:15:00","9.3542","3.20335","25.377","4.969","7.55","0.308","25.886","0.04","0.09","29.3903","4.66223","52.37","0","SATNPRO1509","32.038000000000004","0.44876","5"],
    [22213,"HCEP03730566","2024-05-16 17:30:00","9.3557","3.20299","25.364","4.954","7.55","0.303","35.268","0.02","0.09","29.3855","4.66151","52.21","0","SATNPRO1509","31.804","0.4455","5"],
    [22214,"HCEP03730566","2024-05-16 17:45:00","9.3557","3.20341","25.4","4.92","7.55","0.315","40.345","0.02","0.2","29.3897","4.66212","51.85","0","SATNPRO1509","31.822","0.44576","5"],
    [22215,"HCEP03730566","2024-05-16 18:00:00","9.3554","3.20353","25.42","4.891","7.55","0.318","39.165","0.02","0.07","29.3912","4.66234","51.54","0","SATNPRO1509","31.826","0.44578","5"],
    [22216,"HCEP03730566","2024-05-16 18:15:00","9.3552","3.2037","25.435","4.866","7.55","0.327","36.677","0.03","0.08","29.3931","4.66262","51.29","0","SATNPRO1509","31.682","0.44376","5"],
    [22217,"HCEP03730566","2024-05-16 18:30:00","9.3546","3.20378","25.437","4.862","7.55","0.318","32.822","0.02","0.05","29.3944","4.66281","51.24","0","SATNPRO1509","31.752","0.44474","5"],
    [22218,"HCEP03730566","2024-05-16 18:45:00","9.3541","3.20377","25.499","4.877","7.55","0.314","30.581","0.02","0.08","29.3947","4.66287","51.4","0","SATNPRO1509","31.754","0.44474","5"],
    [22219,"HCEP03730566","2024-05-16 19:00:00","9.3533","3.2038","25.613","4.901","7.55","0.32","29.127","0.01","0.06","29.3956","4.66301","51.65","0","SATNPRO1509","31.816","0.44562","5"],
    [22220,"HCEP03730566","2024-05-16 19:15:00","9.3515","3.20404","25.655","4.905","7.55","0.338","27.849","0.02","0.07","29.3995","4.66361","51.69","0","SATNPRO1509","31.872","0.44642","5"],
    [22221,"HCEP03730566","2024-05-16 19:30:00","9.3504","3.20448","25.764","4.889","7.55","0.348","27.378","0.01","0.08","29.4048","4.66439","51.52","0","SATNPRO1509","31.644","0.4432","5"],
    [22222,"HCEP03730566","2024-05-16 19:45:00","9.3499","3.20453","25.817","4.882","7.55","0.359","27.325","0.03","0.15","29.4057","4.66454","51.45","0","SATNPRO1509","31.666","0.4435","5"],
    [22223,"HCEP03730566","2024-05-16 20:00:00","9.3491","3.20487","25.981","4.862","7.55","0.373","28.212","0.01","0.07","29.4098","4.66515","51.24","0","SATNPRO1509","31.637999999999998","0.44314","5"],
    [22224,"HCEP03730566","2024-05-16 20:15:00","9.3494","3.20494","26.04","4.84","7.54","0.382","29.713","0.01","0.07","29.4102","4.6652","51.01","0","SATNPRO1509","31.594","0.44254","5"],
    [22225,"HCEP03730566","2024-05-16 20:30:00","9.3493","3.20496","26.215","4.836","7.54","0.389","30.456","0.01","0.08","29.4105","4.66525","50.97","0","SATNPRO1509","31.61","0.44274","5"],
    [22226,"HCEP03730566","2024-05-16 20:45:00","9.349","3.20501","26.374","4.835","7.54","0.39","30.309","0.01","0.1","29.4111","4.66536","50.96","0","SATNPRO1509","31.666","0.44352","5"],
    [22227,"HCEP03730566","2024-05-16 21:00:00","9.3486","3.20502","26.466","4.847","7.54","0.407","30.033","0.04","0.88","29.4115","4.66543","51.08","0","SATNPRO1509","31.54","0.44176","5"],
    [22228,"HCEP03730566","2024-05-16 21:15:00","9.3489","3.20501","26.559","4.843","7.54","0.402","29.106","0.01","0.18","29.4111","4.66538","51.04","0","SATNPRO1509","31.55","0.4419","5"],
    [22229,"HCEP03730566","2024-05-16 21:30:00","9.3479","3.20498","26.665","4.862","7.54","0.394","27.834","0.02","0.14","29.4115","4.66546","51.24","0","SATNPRO1509","31.61","0.44276","5"],
    [22230,"HCEP03730566","2024-05-16 21:45:00","9.3478","3.20493","26.799","4.885","7.55","0.393","24.285","0.03","0.11","29.411","4.6654","51.48","0","SATNPRO1509","31.546","0.44186","5"],
    [22231,"HCEP03730566","2024-05-16 22:00:00","9.3482","3.20465","26.951","4.903","7.55","0.368","16.296","0.02","0.14","29.4079","4.66496","51.67","0","SATNPRO1509","31.674","0.44368","5"],
    [22232,"HCEP03730566","2024-05-16 22:15:00","9.3488","3.20434","27.034","4.952","7.55","0.35","11.934","0.01","0.11","29.4042","4.66441","52.19","0","SATNPRO1509","31.784000000000002","0.4452","5"],
    [22233,"HCEP03730566","2024-05-16 22:30:00","9.3502","3.20412","27.119","4.978","7.55","0.347","16.947","0.03","0.17","29.4008","4.6639","52.46","0","SATNPRO1509","31.785999999999998","0.44524","5"],
    [22234,"HCEP03730566","2024-05-16 22:45:00","9.3516","3.20397","27.272","4.947","7.55","0.338","23.853","0.01","0.11","29.398","4.66349","52.14","0","SATNPRO1509","31.823999999999998","0.44574","5"],
    [22235,"HCEP03730566","2024-05-16 23:00:00","9.3517","3.2038","27.39","4.961","7.55","0.334","25.397","0.01","0.09","29.3962","4.66324","52.29","0","SATNPRO1509","31.86","0.44628","5"],
    [22236,"HCEP03730566","2024-05-16 23:15:00","9.3519","3.20362","27.498","4.982","7.55","0.337","27.592","0.02","0.11","29.3941","4.66294","52.51","0","SATNPRO1509","32.008","0.44832","5"],
    [22237,"HCEP03730566","2024-05-16 23:30:00","9.3527","3.20348","27.572","4.995","7.55","0.326","30.33","0.01","0.07","29.3921","4.66263","52.64","0","SATNPRO1509","32.016","0.44844","5"],
    [22238,"HCEP03730566","2024-05-16 23:45:00","9.354","3.20321","27.682","5.001","7.55","0.332","31.842","0.01","0.09","29.3881","4.66206","52.7","0","SATNPRO1509","32.098","0.44956","5"],
    [22239,"HCEP03730566","2024-05-17 00:00:00","9.3549","3.20301","27.682","5.009","7.55","0.33","30.238","0.01","0.08","29.3854","4.66164","52.79","0","SATNPRO1509","32.072","0.44922","5"],
    [22240,"HCEP03730566","2024-05-17 00:15:00","9.3562","3.20284","27.74","5.008","7.55","0.329","26.43","0.02","0.07","29.3826","4.66123","52.78","0","SATNPRO1509","32.106","0.44972","5"],
    [22241,"HCEP03730566","2024-05-17 00:30:00","9.3576","3.20269","27.757","4.987","7.55","0.332","24.587","0.01","0.08","29.3799","4.66081","52.56","0","SATNPRO1509","32.006","0.4483","5"],
    [22242,"HCEP03730566","2024-05-17 00:45:00","9.3599","3.20245","27.778","4.975","7.55","0.329","24.245","0.01","0.1","29.3756","4.66016","52.43","0","SATNPRO1509","32.042","0.4488","5"],
    [22243,"HCEP03730566","2024-05-17 01:00:00","9.3628","3.2024","27.794","4.9","7.55","0.338","24.481","0.02","0.08","29.3727","4.65969","51.64","0","SATNPRO1509","31.946","0.44746","5"],
    [22244,"HCEP03730566","2024-05-17 01:15:00","9.3672","3.20183","27.732","4.852","7.54","0.332","23.983","0.02","0.08","29.3633","4.65826","51.14","0","SATNPRO1509","31.948","0.44748","5"],
    [22245,"HCEP03730566","2024-05-17 01:30:00","9.3698","3.20156","27.728","4.81","7.54","0.331","23.164","0.02","0.07","29.3584","4.65751","50.7","0","SATNPRO1509","31.964","0.4477","5"],
    [22246,"HCEP03730566","2024-05-17 01:45:00","9.3707","3.2011","27.654","4.842","7.54","0.322","24.144","0.04","0.08","29.3531","4.65673","51.04","0","SATNPRO1509","32.136","0.4501","5"],
    [22247,"HCEP03730566","2024-05-17 02:00:00","9.3715","3.20119","27.537","4.814","7.54","0.326","26.061","0.02","0.08","29.3534","4.65675","50.74","0","SATNPRO1509","32.064","0.44912","5"],
    [22248,"HCEP03730566","2024-05-17 02:15:00","9.3717","3.20107","27.541","4.823","7.54","0.313","24.581","0.02","0.08","29.3519","4.65654","50.84","0","SATNPRO1509","32","0.44826","5"],
    [22249,"HCEP03730566","2024-05-17 02:30:00","9.3731","3.20092","27.386","4.806","7.53","0.315","20.976","0.01","0.13","29.3494","4.65614","50.65","0","SATNPRO1509","31.994","0.44812","5"],
    [22250,"HCEP03730566","2024-05-17 02:45:00","9.3752","3.2008","27.331","4.776","7.53","0.321","17.992","0.02","0.12","29.3465","4.65568","50.35","0","SATNPRO1509","32.016","0.44846","5"],
    [22251,"HCEP03730566","2024-05-17 03:00:00","9.3761","3.2008","27.298","4.732","7.53","0.327","15.479","0.03","0.07","29.3457","4.65556","49.87","0","SATNPRO1509","32.064","0.44912","5"],
    [22252,"HCEP03730566","2024-05-17 03:15:00","9.3766","3.20085","27.168","4.687","7.53","0.337","12.298","0.02","0.14","29.3458","4.65555","49.4","0","SATNPRO1509","31.96","0.44766","5"],
    [22253,"HCEP03730566","2024-05-17 03:30:00","9.3766","3.20109","27.035","4.644","7.52","0.344","7.962","0.02","0.11","29.3484","4.65591","48.95","0","SATNPRO1509","31.934","0.4473","5"],
    [22254,"HCEP03730566","2024-05-17 03:45:00","9.3752","3.20137","26.881","4.62","7.52","0.355","5.092","0.02","0.14","29.3525","4.65651","48.7","0","SATNPRO1509","31.926000000000002","0.4472","5"],
    [22255,"HCEP03730566","2024-05-17 04:00:00","9.3737","3.20156","26.781","4.633","7.52","0.35","4.476","0.02","0.13","29.3557","4.657","48.84","0","SATNPRO1509","31.864","0.4463","5"],
    [22256,"HCEP03730566","2024-05-17 04:15:00","9.3701","3.202","26.709","4.64","7.52","0.357","3.933","0.05","0.14","29.3631","4.65811","48.91","0","SATNPRO1509","31.802","0.44548","5"],
    [22257,"HCEP03730566","2024-05-17 04:30:00","9.367","3.20238","26.588","4.684","7.52","0.367","4.058","0.03","0.17","29.3695","4.65908","49.37","0","SATNPRO1509","31.784","0.44518","5"],
    [22258,"HCEP03730566","2024-05-17 04:45:00","9.3636","3.20262","26.45","4.742","7.52","0.361","3.715","0.02","0.1","29.3749","4.65991","49.98","0","SATNPRO1509","31.84","0.44596","5"],
    [22259,"HCEP03730566","2024-05-17 05:00:00","9.3615","3.20285","26.318","4.784","7.52","0.365","3.805","0.03","0.13","29.3789","4.66052","50.42","0","SATNPRO1509","31.744","0.44462","5"],
    [22260,"HCEP03730566","2024-05-17 05:15:00","9.3576","3.20299","26.269","4.839","7.53","0.357","3.514","0.03","0.16","29.3836","4.66125","51","0","SATNPRO1509","31.84","0.446","5"],
    [22261,"HCEP03730566","2024-05-17 05:30:00","9.3563","3.20306","26.118","4.911","7.53","0.369","3.684","0.04","0.15","29.3854","4.66154","51.75","0","SATNPRO1509","31.808","0.44552","5"],
    [22262,"HCEP03730566","2024-05-17 05:45:00","9.3536","3.20307","25.979","4.962","7.54","0.355","3.703","0.03","0.16","29.3877","4.66191","52.29","0","SATNPRO1509","31.884","0.4466","5"],
    [22263,"HCEP03730566","2024-05-17 06:00:00","9.3472","3.20311","25.865","5.122","7.55","0.329","2.66","0.05","0.13","29.3935","4.66283","53.97","0","SATNPRO1509","32.1","0.44964","5"],
    [22264,"HCEP03730566","2024-05-17 06:15:00","9.3463","3.20329","25.81","5.266","7.56","0.322","3.005","0.03","0.16","29.3961","4.66322","55.49","0","SATNPRO1509","31.990000000000002","0.44808","5"],
    [22265,"HCEP03730566","2024-05-17 06:30:00","9.3454","3.20336","25.767","5.301","7.56","0.329","3.184","0.02","0.16","29.3976","4.66345","55.86","0","SATNPRO1509","31.846","0.44602","5"],
    [22266,"HCEP03730566","2024-05-17 06:45:00","9.3456","3.2034","25.74","5.306","7.57","0.382","3.711","0.11","0.19","29.3978","4.66349","55.91","0","SATNPRO1509","31.830000000000002","0.4458","5"],
    [22267,"HCEP03730566","2024-05-17 07:00:00","9.3449","3.20349","25.671","5.305","7.57","0.355","3.517","0.04","0.15","29.3993","4.66371","55.9","0","SATNPRO1509","31.85","0.44614","5"],
    [22268,"HCEP03730566","2024-05-17 07:15:00","9.3432","3.20368","25.685","5.33","7.57","0.341","3.124","0.04","0.14","29.4026","4.66421","56.16","0","SATNPRO1509","31.888","0.44664","5"],
    [22269,"HCEP03730566","2024-05-17 07:30:00","9.3412","3.20389","25.634","5.394","7.58","0.323","2.909","0.03","0.3","29.4064","4.66478","56.84","0","SATNPRO1509","31.798","0.44538","5"],
    [22270,"HCEP03730566","2024-05-17 07:45:00","9.341","3.20395","25.682","5.435","7.58","0.335","3.405","0.03","0.17","29.4072","4.66491","57.27","0","SATNPRO1509","31.822","0.44576","5"],
    [22271,"HCEP03730566","2024-05-17 08:00:00","9.3412","3.204","25.726","5.437","7.59","0.345","3.697","0.03","0.15","29.4075","4.66496","57.29","0","SATNPRO1509","31.77","0.44498","5"],
    [22272,"HCEP03730566","2024-05-17 08:15:00","9.3389","3.20415","25.733","5.463","7.59","0.309","2.557","0.02","0.25","29.4109","4.66548","57.56","0","SATNPRO1509","31.904","0.44688","5"],
    [22273,"HCEP03730566","2024-05-17 08:30:00","9.337","3.20434","25.776","5.511","7.59","0.377","3.346","0.13","1.02","29.4144","4.66602","58.07","0","SATNPRO1509","31.818","0.44566","5"],
    [22274,"HCEP03730566","2024-05-17 08:45:00","9.3364","3.2045","25.815","5.538","7.6","0.318","2.783","0.02","0.16","29.4165","4.66633","58.35","0","SATNPRO1509","31.784","0.44518","5"],
    [22275,"HCEP03730566","2024-05-17 09:00:00","9.336","3.20456","25.827","5.548","7.6","0.344","2.848","0.07","0.22","29.4175","4.66648","58.45","0","SATNPRO1509","31.892","0.44668","5"],
    [22276,"HCEP03730566","2024-05-17 09:15:00","9.3361","3.20456","25.866","5.557","7.6","0.316","2.792","0.04","0.14","29.4173","4.66645","58.55","0","SATNPRO1509","31.773999999999997","0.44508","5"],
    [22277,"HCEP03730566","2024-05-17 09:30:00","9.3376","3.20433","25.889","5.538","7.6","0.346","3.279","0.05","0.19","29.4138","4.66592","58.35","0","SATNPRO1509","31.79","0.4453","5"],
    [22278,"HCEP03730566","2024-05-17 09:45:00","9.3372","3.20435","25.952","5.527","7.6","0.333","3.665","0.03","0.29","29.4143","4.66601","58.24","0","SATNPRO1509","31.706","0.4441","5"],
    [22279,"HCEP03730566","2024-05-17 10:00:00","9.3364","3.20439","25.999","5.542","7.6","0.319","2.809","0.04","0.23","29.4153","4.66617","58.39","0","SATNPRO1509","31.81","0.44554","5"],
    [22280,"HCEP03730566","2024-05-17 10:15:00","9.3378","3.20427","26.091","5.544","7.6","0.352","3.589","0.04","0.25","29.4129","4.6658","58.42","0","SATNPRO1509","31.724","0.44434","5"],
    [22281,"HCEP03730566","2024-05-17 10:30:00","9.3399","3.20403","26.163","5.508","7.6","0.342","3.422","0.03","0.32","29.4087","4.66517","58.04","0","SATNPRO1509","31.764","0.44488","5"],
    [22282,"HCEP03730566","2024-05-17 10:45:00","9.3397","3.20401","26.234","5.503","7.6","0.336","2.873","0.04","0.22","29.4087","4.66518","57.98","0","SATNPRO1509","31.994","0.44808","5"],
    [22283,"HCEP03730566","2024-05-17 11:00:00","9.3398","3.20398","26.352","5.519","7.6","0.328","3.003","0.02","0.19","29.4082","4.66512","58.15","0","SATNPRO1509","31.766000000000002","0.44494","5"],
    [22284,"HCEP03730566","2024-05-17 11:15:00","9.3401","3.20398","26.414","5.528","7.6","0.339","3.396","0.04","0.28","29.408","4.66508","58.25","0","SATNPRO1509","31.778","0.44508","5"],
    [22285,"HCEP03730566","2024-05-17 11:30:00","9.3401","3.20397","26.448","5.527","7.6","0.349","3.454","0.03","0.33","29.4079","4.66506","58.24","0","SATNPRO1509","31.842","0.44598","5"],
    [22286,"HCEP03730566","2024-05-17 11:45:00","9.3408","3.20397","26.513","5.527","7.6","0.331","3.259","0.03","0.28","29.4072","4.66495","58.24","0","SATNPRO1509","31.753999999999998","0.44474","5"],
    [22287,"HCEP03730566","2024-05-17 12:00:00","9.3417","3.20387","26.588","5.522","7.6","0.442","3.186","0.26","0.18","29.4054","4.66469","58.19","0","SATNPRO1509","31.791999999999998","0.44532","5"],
    [22288,"HCEP03730566","2024-05-17 12:15:00","9.342","3.20379","26.632","5.531","7.6","0.345","2.993","0.05","0.25","29.4044","4.66454","58.28","0","SATNPRO1509","31.898","0.44678","5"],
    [22289,"HCEP03730566","2024-05-17 12:30:00","9.3417","3.2038","26.652","5.549","7.6","0.323","2.768","0.03","0.17","29.4047","4.6646","58.46","0","SATNPRO1509","31.824","0.44574","5"],
    [22290,"HCEP03730566","2024-05-17 12:45:00","9.3413","3.2039","26.688","5.548","7.6","0.33","3.071","0.02","0.19","29.406","4.66479","58.46","0","SATNPRO1509","31.828","0.4458","5"],
    [22291,"HCEP03730566","2024-05-17 13:00:00","9.3405","3.20405","26.683","5.536","7.6","0.341","3.384","0.04","0.15","29.4082","4.66511","58.33","0","SATNPRO1509","31.87","0.44642","5"],
    [22292,"HCEP03730566","2024-05-17 13:15:00","9.3396","3.20423","26.671","5.526","7.6","0.332","3.593","0.02","0.17","29.4108","4.66551","58.23","0","SATNPRO1509","31.778","0.44512","5"],
    [22293,"HCEP03730566","2024-05-17 13:30:00","9.3382","3.20443","26.643","5.525","7.6","0.325","3.094","0.02","0.15","29.414","4.66599","58.21","0","SATNPRO1509","31.782","0.44516","5"],
    [22294,"HCEP03730566","2024-05-17 13:45:00","9.338","3.20445","26.63","5.524","7.6","0.362","3.123","0.06","0.18","29.4143","4.66604","58.21","0","SATNPRO1509","31.81","0.44554","5"],
    [22295,"HCEP03730566","2024-05-17 14:00:00","9.339","3.20442","26.61","5.523","7.6","0.339","3.312","0.02","0.12","29.4132","4.66586","58.2","0","SATNPRO1509","31.804","0.44548","5"],
    [22296,"HCEP03730566","2024-05-17 14:15:00","9.3391","3.20436","26.543","5.502","7.6","0.354","2.995","0.06","0.14","29.4125","4.66575","57.98","0","SATNPRO1509","31.782","0.44516","5"],
    [22297,"HCEP03730566","2024-05-17 14:30:00","9.3403","3.20426","26.52","5.488","7.6","0.374","3.759","0.05","0.17","29.4105","4.66544","57.82","0","SATNPRO1509","31.724","0.44434","5"],
    [22298,"HCEP03730566","2024-05-17 14:45:00","9.3409","3.20421","26.463","5.457","7.6","0.353","3.368","0.02","0.19","29.4096","4.6653","57.5","0","SATNPRO1509","31.722","0.44434","5"],
    [22299,"HCEP03730566","2024-05-17 15:00:00","9.3413","3.20415","26.421","5.456","7.6","0.379","3.405","0.07","0.25","29.4087","4.66516","57.5","0","SATNPRO1509","31.75","0.44476","5"],
    [22300,"HCEP03730566","2024-05-17 15:15:00","9.341","3.20418","26.361","5.444","7.6","0.408","3.517","0.05","0.21","29.409300000000002","4.66525","57.37","0","SATNPRO1509","31.74","0.4446","5"],
    [22301,"HCEP03730566","2024-05-17 15:30:00","9.3412","3.20355","26.325","5.443","7.6","0.427","3.616","0.07","0.18","29.4027","4.6643","57.35","0","SATNPRO1509","31.646","0.44326","5"],
    [22302,"HCEP03730566","2024-05-17 15:45:00","9.3409","3.20432","26.261","5.443","7.6","0.404","3.69","0.05","0.28","29.4108","4.66546","57.35","0","SATNPRO1509","31.726","0.44438","5"],
    [22303,"HCEP03730566","2024-05-17 16:00:00","9.3402","3.20436","26.176","5.445","7.6","0.444","3.519","0.06","0.19","29.4118","4.6656","57.37","0","SATNPRO1509","31.69","0.44386","5"],
    [22304,"HCEP03730566","2024-05-17 16:15:00","9.3401","3.20436","26.155","5.45","7.6","0.459","3.243","0.03","0.16","29.4119","4.66562","57.43","0","SATNPRO1509","31.796","0.44536","5"],
    [22305,"HCEP03730566","2024-05-17 16:30:00","9.3407","3.20435","26.08","5.455","7.6","0.508","3.371","0.02","0.14","29.4114","4.66553","57.47","0","SATNPRO1509","31.692","0.44392","5"],
    [22306,"HCEP03730566","2024-05-17 16:45:00","9.3406","3.20433","26.004","5.449","7.6","0.556","3.473","0.02","0.14","29.4112","4.66551","57.42","0","SATNPRO1509","31.73","0.44442","5"],
    [22307,"HCEP03730566","2024-05-17 17:00:00","9.3406","3.20441","25.989","5.44","7.6","0.59","3.769","0.02","0.21","29.412","4.66562","57.32","0","SATNPRO1509","31.732","0.44446","5"],
    [22308,"HCEP03730566","2024-05-17 17:15:00","9.3402","3.20442","25.886","5.438","7.6","0.579","3.513","0.01","0.1","29.4125","4.66569","57.3","0","SATNPRO1509","31.624","0.44296","5"],
    [22309,"HCEP03730566","2024-05-17 17:30:00","9.3399","3.20448","25.836","5.446","7.6","0.56","3.537","0.01","0.2","29.4135","4.66583","57.38","0","SATNPRO1509","31.658","0.4434","5"],
    [22310,"HCEP03730566","2024-05-17 17:45:00","9.3394","3.20453","25.739","5.448","7.6","0.514","3.199","0.01","0.12","29.4144","4.66597","57.4","0","SATNPRO1509","31.72","0.4443","5"],
    [22311,"HCEP03730566","2024-05-17 18:00:00","9.339","3.20458","25.702","5.452","7.6","0.448","3.201","0.01","0.22","29.4152","4.6661","57.45","0","SATNPRO1509","31.67","0.44362","5"],
    [22312,"HCEP03730566","2024-05-17 18:15:00","9.3383","3.20465","25.698","5.451","7.6","0.365","3.377","0","0.12","29.4164","4.66628","57.44","0","SATNPRO1509","31.694","0.4439","5"],
    [22313,"HCEP03730566","2024-05-17 18:30:00","9.3379","3.20482","25.666","5.443","7.6","0.285","4.169","0","0.14","29.4186","4.6666","57.35","0","SATNPRO1509","31.752","0.4447","5"],
    [22314,"HCEP03730566","2024-05-17 18:45:00","9.3376","3.20488","25.632","5.443","7.6","0.208","5.358","0","0.16","29.4194","4.66672","57.35","0","SATNPRO1509","31.636","0.44312","5"],
    [22315,"HCEP03730566","2024-05-17 19:00:00","9.3377","3.20475","25.679","5.453","7.6","0.144","8.479","0","0.19","29.418","4.66651","57.46","0","SATNPRO1509","31.79","0.44526","5"],
    [22316,"HCEP03730566","2024-05-17 19:15:00","9.3381","3.20502","25.663","5.435","7.59","0.103","16.336","0","0.12","29.4205","4.66687","57.27","0","SATNPRO1509","31.558","0.44204","5"],
    [22317,"HCEP03730566","2024-05-17 19:30:00","9.338","3.20506","25.722","5.403","7.59","0.082","28.856","0.01","0.14","29.4209","4.66693","56.94","0","SATNPRO1509","31.49","0.4411","5"],
    [22318,"HCEP03730566","2024-05-17 19:45:00","9.3376","3.20493","25.713","5.408","7.59","0.079","50.324","0.01","0.16","29.42","4.6668","56.99","0","SATNPRO1509","31.692","0.44388","5"],
    [22319,"HCEP03730566","2024-05-17 20:00:00","9.3377","3.20493","25.803","5.428","7.59","0.089","80.338","0.01","0.13","29.4198","4.66678","57.2","0","SATNPRO1509","31.574","0.44226","5"],
    [22320,"HCEP03730566","2024-05-17 20:15:00","9.3388","3.20459","25.858","5.438","7.59","0.094","119.185","0.01","0.14","29.4154","4.66613","57.3","0","SATNPRO1509","31.798000000000002","0.44536","5"],
    [22321,"HCEP03730566","2024-05-17 20:30:00","9.3391","3.20454","26.022","5.448","7.59","0.114","153.717","0.01","0.25","29.4145","4.66601","57.4","0","SATNPRO1509","31.774","0.44504","5"],
    [22322,"HCEP03730566","2024-05-17 20:45:00","9.3399","3.20434","26.085","5.454","7.59","0.224","293.989","0.07","61.13","29.4119","4.66562","57.47","0","SATNPRO1509","31.762","0.44486","5"],
    [22323,"HCEP03730566","2024-05-17 21:00:00","9.34","3.20423","26.205","5.48","7.6","0.146","177.228","0.01","0.13","29.4107","4.66546","57.74","0","SATNPRO1509","32.052","0.44896","5"],
    [22324,"HCEP03730566","2024-05-17 21:15:00","9.3406","3.20428","26.335","5.483","7.6","0.186","172.819","0.03","0.05","29.4106","4.66544","57.77","0","SATNPRO1509","31.892","0.44672","5"],
    [22325,"HCEP03730566","2024-05-17 21:30:00","9.3411","3.20449","26.448","5.427","7.59","0.202","158.936","0.03","0.1","29.4123","4.66568","57.18","0","SATNPRO1509","31.738","0.4445","5"],
    [22326,"HCEP03730566","2024-05-17 21:45:00","9.3416","3.20463","26.554","5.384","7.59","0.226","137.622","0.03","0","29.4133","4.66583","56.73","0","SATNPRO1509","31.490000000000002","0.44104","5"],
    [22327,"HCEP03730566","2024-05-17 22:00:00","9.3416","3.20458","26.696","5.347","7.59","0.219","114.657","0.02","0.05","29.4127","4.66574","56.34","0","SATNPRO1509","31.542","0.44184","5"],
    [22328,"HCEP03730566","2024-05-17 22:15:00","9.3421","3.20461","26.794","5.342","7.59","0.223","77.071","0.02","0.02","29.4125","4.66571","56.29","0","SATNPRO1509","31.576","0.4423","5"],
    [22329,"HCEP03730566","2024-05-17 22:30:00","9.3421","3.20464","26.825","5.326","7.59","1.562","34.893","1.04","2.27","29.4128","4.66575","56.12","0","SATNPRO1509","31.45","0.44052","5"],
    [22330,"HCEP03730566","2024-05-17 22:45:00","9.3423","3.20466","26.998","5.331","7.58","0.316","14.757","0.16","0.38","29.4128","4.66576","56.17","0","SATNPRO1509","31.522000000000002","0.44156","5"],
    [22331,"HCEP03730566","2024-05-17 23:00:00","9.3422","3.20464","27.153","5.347","7.58","0.222","5.448","0.02","0.06","29.4126","4.66575","56.35","0","SATNPRO1509","31.51","0.44136","5"],
    [22332,"HCEP03730566","2024-05-17 23:15:00","9.3428","3.20458","27.181","5.348","7.59","0.938","6.833","0.14","1.78","29.4115","4.66558","56.35","0","SATNPRO1509","31.526","0.44152","5"],
    [22333,"HCEP03730566","2024-05-17 23:30:00","9.3429","3.20455","27.421","5.349","7.59","0.162","0.3","0.02","0.01","29.411","4.66552","56.37","0","SATNPRO1509","31.526","0.44152","5"],
    [22334,"HCEP03730566","2024-05-17 23:45:00","9.3429","3.20444","27.481","5.353","7.59","0.142","0.276","0.01","0.01","29.4099","4.66536","56.41","0","SATNPRO1509","31.568","0.44218","5"],
    [22335,"HCEP03730566","2024-05-18 00:00:00","9.3434","3.20444","27.569","5.357","7.59","0.13","0.273","0.02","0.01","29.4094","4.66528","56.45","0","SATNPRO1509","31.506","0.44126","5"],
    [22336,"HCEP03730566","2024-05-18 00:15:00","9.3437","3.20439","27.631","5.359","7.59","0.111","0.276","0.01","0.01","29.4086","4.66517","56.47","0","SATNPRO1509","31.628","0.443","5"],
    [22337,"HCEP03730566","2024-05-18 00:30:00","9.3439","3.2043","27.717","5.364","7.59","0.103","0.335","0.01","0.01","29.4075","4.66501","56.53","0","SATNPRO1509","31.524","0.44156","5"],
    [22338,"HCEP03730566","2024-05-18 00:45:00","9.3448","3.20417","27.761","5.375","7.59","0.096","0.464","0.01","0.03","29.4055","4.66472","56.64","0","SATNPRO1509","31.722","0.4443","5"],
    [22339,"HCEP03730566","2024-05-18 01:00:00","9.3446","3.20405","27.714","5.404","7.59","0.093","0.573","0.01","0.04","29.4044","4.66456","56.94","0","SATNPRO1509","31.689999999999998","0.44386","5"],
    [22340,"HCEP03730566","2024-05-18 01:15:00","9.3448","3.20392","27.739","5.427","7.59","0.092","0.567","0.01","0.03","29.4029","4.66434","57.19","0","SATNPRO1509","31.894","0.44672","5"],
    [22341,"HCEP03730566","2024-05-18 01:30:00","9.3453","3.2039","27.687","5.439","7.59","0.1","0.668","0.02","0.03","29.4023","4.66424","57.31","0","SATNPRO1509","31.802","0.44544","5"],
    [22342,"HCEP03730566","2024-05-18 01:45:00","9.3454","3.20381","27.797","5.436","7.59","0.111","0.728","0.02","0.03","29.4013","4.6641","57.28","0","SATNPRO1509","31.986","0.44806","5"],
    [22343,"HCEP03730566","2024-05-18 02:00:00","9.3457","3.20378","27.688","5.447","7.59","0.131","0.764","0.07","0.03","29.4008","4.66402","57.39","0","SATNPRO1509","31.734","0.44448","5"],
    [22344,"HCEP03730566","2024-05-18 02:15:00","9.3461","3.20376","27.602","5.44","7.59","0.149","0.856","0.03","0.05","29.4003","4.66394","57.32","0","SATNPRO1509","31.722","0.44436","5"],
    [22345,"HCEP03730566","2024-05-18 02:30:00","9.3464","3.20369","27.652","5.426","7.59","0.168","0.925","0.03","0.03","29.3993","4.66379","57.18","0","SATNPRO1509","31.764","0.44492","5"],
    [22346,"HCEP03730566","2024-05-18 02:45:00","9.3469","3.20335","27.636","5.461","7.59","0.169","0.745","0.04","0.03","29.3954","4.66323","57.54","0","SATNPRO1509","32.153999999999996","0.45036","5"],
    [22347,"HCEP03730566","2024-05-18 03:00:00","9.3471","3.20327","27.506","5.523","7.59","0.184","0.843","0.04","0.11","29.3945","4.66309","58.2","0","SATNPRO1509","32.198","0.45096","5"],
    [22348,"HCEP03730566","2024-05-18 03:15:00","9.3471","3.20346","27.358","5.51","7.59","0.222","1.151","0.03","0.05","29.3964","4.66335","58.06","0","SATNPRO1509","31.868","0.44638","5"],
    [22349,"HCEP03730566","2024-05-18 03:30:00","9.3472","3.20334","27.326","5.483","7.59","0.239","1.167","0.03","0.07","29.3952","4.66317","57.78","0","SATNPRO1509","31.983999999999998","0.44796","5"],
    [22350,"HCEP03730566","2024-05-18 03:45:00","9.3474","3.20344","27.175","5.473","7.59","0.28","1.377","0.04","0.04","29.3962","4.6633","57.68","0","SATNPRO1509","31.862000000000002","0.4463","5"],
    [22351,"HCEP03730566","2024-05-18 04:00:00","9.3474","3.20342","27.127","5.448","7.59","0.357","1.786","0.09","0.08","29.3959","4.66326","57.41","0","SATNPRO1509","31.908","0.4469","5"],
    [22352,"HCEP03730566","2024-05-18 04:15:00","9.3472","3.20346","26.918","5.442","7.59","0.349","1.763","0.06","0.07","29.3967","4.66336","57.35","0","SATNPRO1509","31.8","0.44542","5"],
    [22353,"HCEP03730566","2024-05-18 04:30:00","9.3474","3.20358","26.802","5.431","7.59","0.36","2.024","0.05","0.06","29.3977","4.66349","57.23","0","SATNPRO1509","31.752","0.44472","5"],
    [22354,"HCEP03730566","2024-05-18 04:45:00","9.3471","3.20367","26.721","5.405","7.59","0.483","2.958","0.07","0.14","29.3989","4.66366","56.96","0","SATNPRO1509","31.79","0.44526","5"],
    [22355,"HCEP03730566","2024-05-18 05:00:00","9.3473","3.20382","26.598","5.358","7.59","0.532","3.69","0.09","0.26","29.4003","4.66386","56.46","0","SATNPRO1509","31.524","0.44154","5"],
    [22356,"HCEP03730566","2024-05-18 05:15:00","9.347","3.20388","26.403","5.319","7.58","0.546","3.794","0.12","0.43","29.4012","4.66398","56.05","0","SATNPRO1509","31.648","0.44326","5"],
    [22357,"HCEP03730566","2024-05-18 05:30:00","9.3466","3.20392","26.281","5.324","7.58","0.57","3.884","0.06","0.26","29.402","4.6641","56.1","0","SATNPRO1509","31.514","0.4414","5"],
    [22358,"HCEP03730566","2024-05-18 05:45:00","9.3464","3.20393","26.139","5.324","7.58","0.62","3.896","0.1","0.24","29.4023","4.66414","56.1","0","SATNPRO1509","31.598","0.4426","5"],
    [22359,"HCEP03730566","2024-05-18 06:00:00","9.3463","3.20398","25.963","5.321","7.58","0.631","3.661","0.09","0.13","29.4031","4.66423","56.07","0","SATNPRO1509","31.468","0.44076","5"],
    [22360,"HCEP03730566","2024-05-18 06:15:00","9.3462","3.20399","25.865","5.321","7.58","0.621","3.363","0.07","0.15","29.4033","4.66426","56.07","0","SATNPRO1509","31.55","0.4419","5"],
    [22361,"HCEP03730566","2024-05-18 06:30:00","9.3457","3.20397","25.746","5.32","7.58","0.599","2.979","0.09","0.16","29.4035","4.66429","56.06","0","SATNPRO1509","31.622","0.44292","5"],
    [22362,"HCEP03730566","2024-05-18 06:45:00","9.346","3.20398","25.658","5.327","7.58","0.636","3.734","0.08","0.18","29.4034","4.66427","56.13","0","SATNPRO1509","31.582","0.44232","5"],
    [22363,"HCEP03730566","2024-05-18 07:00:00","9.3463","3.20407","25.587","5.314","7.58","0.63","3.705","0.06","0.23","29.4041","4.66437","56","0","SATNPRO1509","31.555999999999997","0.44198","5"],
    [22364,"HCEP03730566","2024-05-18 07:15:00","9.3457","3.20405","25.463","5.294","7.58","0.593","3.443","0.08","0.16","29.4045","4.66442","55.79","0","SATNPRO1509","31.65","0.44332","5"],
    [22365,"HCEP03730566","2024-05-18 07:30:00","9.3465","3.20397","25.446","5.281","7.58","0.64","3.72","0.16","0.19","29.403","4.6642","55.65","0","SATNPRO1509","31.541999999999998","0.4418","5"],
    [22366,"HCEP03730566","2024-05-18 07:45:00","9.3468","3.20405","25.466","5.265","7.58","0.609","3.677","0.08","0.18","29.4035","4.66426","55.48","0","SATNPRO1509","31.358","0.43926","5"],
    [22367,"HCEP03730566","2024-05-18 08:00:00","9.3473","3.20405","25.464","5.256","7.57","0.62","3.689","0.07","0.1","29.4031","4.66419","55.39","0","SATNPRO1509","31.39","0.4397","5"],
    [22368,"HCEP03730566","2024-05-18 08:15:00","9.347","3.20398","25.475","5.251","7.57","0.628","3.383","0.09","0.12","29.4027","4.66414","55.33","0","SATNPRO1509","31.374","0.43942","5"],
    [22369,"HCEP03730566","2024-05-18 08:30:00","9.3463","3.20392","25.513","5.3","7.58","0.557","2.955","0.08","0.15","29.4027","4.66415","55.85","0","SATNPRO1509","31.61","0.44278","5"],
    [22370,"HCEP03730566","2024-05-18 08:45:00","9.3459","3.20391","25.501","5.333","7.58","0.552","2.974","0.11","0.14","29.4028","4.66418","56.2","0","SATNPRO1509","31.54","0.4418","5"],
    [22371,"HCEP03730566","2024-05-18 09:00:00","9.3469","3.20389","25.495","5.349","7.58","0.615","3.673","0.11","0.14","29.4019","4.66403","56.37","0","SATNPRO1509","31.506","0.44128","5"],
    [22372,"HCEP03730566","2024-05-18 09:15:00","9.3466","3.20388","25.562","5.325","7.58","0.509","2.682","0.09","0.11","29.4018","4.66403","56.12","0","SATNPRO1509","31.652","0.44336","5"],
    [22373,"HCEP03730566","2024-05-18 09:30:00","9.3468","3.20375","25.638","5.352","7.58","0.507","2.353","0.15","0.15","29.4004","4.66382","56.4","0","SATNPRO1509","31.744","0.44462","5"],
    [22374,"HCEP03730566","2024-05-18 09:45:00","9.3469","3.20374","25.737","5.374","7.58","0.509","2.553","0.09","0.12","29.4002","4.6638","56.63","0","SATNPRO1509","31.774","0.44504","5"],
    [22375,"HCEP03730566","2024-05-18 10:00:00","9.3484","3.20374","25.802","5.349","7.58","0.563","3.581","0.06","0.26","29.3989","4.66359","56.37","0","SATNPRO1509","31.544","0.44184","5"],
    [22376,"HCEP03730566","2024-05-18 10:15:00","9.3481","3.20364","25.843","5.329","7.58","0.485","2.881","0.06","0.16","29.3982","4.6635","56.16","0","SATNPRO1509","31.834","0.4459","5"],
    [22377,"HCEP03730566","2024-05-18 10:30:00","9.349","3.20359","25.947","5.344","7.58","0.508","3.502","0.04","0.12","29.3968","4.66329","56.32","0","SATNPRO1509","31.68","0.44374","5"],
    [22378,"HCEP03730566","2024-05-18 10:45:00","9.3495","3.20358","26.004","5.332","7.58","0.537","3.343","0.13","0.15","29.3964","4.66322","56.19","0","SATNPRO1509","31.728","0.4444","5"],
    [22379,"HCEP03730566","2024-05-18 11:00:00","9.3489","3.20341","26.122","5.358","7.58","0.431","2.711","0.06","0.26","29.395","4.66304","56.46","0","SATNPRO1509","31.922","0.44708","5"],
    [22380,"HCEP03730566","2024-05-18 11:15:00","9.3497","3.20333","26.243","5.405","7.58","0.454","2.543","0.09","0.15","29.3936","4.66283","56.96","0","SATNPRO1509","31.942","0.44738","5"],
    [22381,"HCEP03730566","2024-05-18 11:30:00","9.3507","3.2034","26.272","5.373","7.58","0.473","3.508","0.06","0.3","29.3934","4.66279","56.62","0","SATNPRO1509","31.738","0.44454","5"],
    [22382,"HCEP03730566","2024-05-18 11:45:00","9.3513","3.20322","26.379","5.343","7.58","0.472","2.956","0.07","0.18","29.391","4.66244","56.3","0","SATNPRO1509","31.852","0.44612","5"],
    [22383,"HCEP03730566","2024-05-18 12:00:00","9.3529","3.2032","26.505","5.34","7.58","0.473","3.146","0.06","0.22","29.3894","4.66219","56.27","0","SATNPRO1509","31.872","0.44642","5"],
    [22384,"HCEP03730566","2024-05-18 12:15:00","9.3542","3.20321","26.598","5.307","7.58","0.49","3.883","0.04","0.16","29.3884","4.66202","55.93","0","SATNPRO1509","31.642","0.44318","5"],
    [22385,"HCEP03730566","2024-05-18 12:30:00","9.3555","3.2032","26.695","5.261","7.57","0.496","4.286","0.05","0.35","29.3873","4.66184","55.44","0","SATNPRO1509","31.5","0.4412","5"],
    [22386,"HCEP03730566","2024-05-18 12:45:00","9.3559","3.20315","26.736","5.238","7.57","0.477","4.883","0.07","1.17","29.3864","4.66172","55.2","0","SATNPRO1509","31.648","0.44328","5"],
    [22387,"HCEP03730566","2024-05-18 13:00:00","9.3549","3.20318","26.83","5.254","7.57","0.47","4.272","0.14","1.73","29.3874","4.66189","55.37","0","SATNPRO1509","31.762","0.4449","5"],
    [22388,"HCEP03730566","2024-05-18 13:15:00","9.3554","3.20307","26.883","5.297","7.57","0.438","3.643","0.06","0.21","29.386","4.66168","55.83","0","SATNPRO1509","31.791999999999998","0.4453","5"],
    [22389,"HCEP03730566","2024-05-18 13:30:00","9.355","3.20314","26.858","5.307","7.57","0.442","3.549","0.06","0.17","29.3869","4.66182","55.93","0","SATNPRO1509","31.838","0.44596","5"],
    [22390,"HCEP03730566","2024-05-18 13:45:00","9.3529","3.20348","26.964","5.305","7.57","0.442","4.127","0.05","0.14","29.3921","4.6626","55.91","0","SATNPRO1509","31.806","0.44548","5"],
    [22391,"HCEP03730566","2024-05-18 14:00:00","9.351","3.20403","26.969","5.245","7.57","0.448","4.352","0.04","0.22","29.3992","4.66366","55.28","0","SATNPRO1509","31.47","0.44082","5"],
    [22392,"HCEP03730566","2024-05-18 14:15:00","9.3488","3.20452","26.974","5.193","7.57","0.467","4.418","0.05","0.17","29.4061","4.66468","54.73","0","SATNPRO1509","31.332","0.43886","5"],
    [22393,"HCEP03730566","2024-05-18 14:30:00","9.3448","3.20511","26.99","5.218","7.57","0.415","3.581","0.05","0.16","29.4153","4.66608","54.99","0","SATNPRO1509","31.594","0.44254","5"],
    [22394,"HCEP03730566","2024-05-18 14:45:00","9.3455","3.20511","26.974","5.241","7.57","0.431","4.103","0.11","0.2","29.4148","4.66598","55.23","0","SATNPRO1509","31.47","0.4408","5"],
    [22395,"HCEP03730566","2024-05-18 15:00:00","9.3444","3.20513","26.935","5.232","7.57","0.356","3.552","0.03","0.19","29.4159","4.66616","55.14","0","SATNPRO1509","31.318","0.43868","5"],
    [22396,"HCEP03730566","2024-05-18 15:15:00","9.3459","3.20471","26.951","5.278","7.57","0.355","3.355","0.03","0.16","29.4104","4.66535","55.62","0","SATNPRO1509","31.474","0.44088","5"],
    [22397,"HCEP03730566","2024-05-18 15:30:00","9.3463","3.20477","26.81","5.26","7.57","0.363","3.31","0.04","0.16","29.4107","4.66538","55.43","0","SATNPRO1509","31.364","0.43932","5"],
    [22398,"HCEP03730566","2024-05-18 15:45:00","9.3459","3.20492","26.699","5.212","7.57","0.352","3.565","0.03","0.1","29.4126","4.66565","54.93","0","SATNPRO1509","31.442","0.44042","5"],
    [22399,"HCEP03730566","2024-05-18 16:00:00","9.3489","3.20429","26.765","5.194","7.57","0.371","3.764","0.03","0.17","29.4037","4.66432","54.74","0","SATNPRO1509","31.46","0.44064","5"],
    [22400,"HCEP03730566","2024-05-18 16:15:00","9.3466","3.20501","26.601","5.161","7.57","0.377","4.312","0.03","0.09","29.413","4.66569","54.39","0","SATNPRO1509","31.202","0.437","5"],
    [22401,"HCEP03730566","2024-05-18 16:30:00","9.3477","3.20471","26.586","5.156","7.57","0.387","4.549","0.05","0.44","29.4091","4.66511","54.34","0","SATNPRO1509","31.402","0.43984","5"],
    [22402,"HCEP03730566","2024-05-18 16:45:00","9.3505","3.2041","26.564","5.177","7.57","0.395","5.154","0.03","0.12","29.4006","4.66383","54.56","0","SATNPRO1509","31.572","0.4422","5"],
    [22403,"HCEP03730566","2024-05-18 17:00:00","9.351","3.20384","26.499","5.214","7.57","0.393","8.126","0.03","0.09","29.3976","4.6634","54.95","0","SATNPRO1509","31.582","0.44236","5"],
    [22404,"HCEP03730566","2024-05-18 17:15:00","9.3508","3.20378","26.337","5.233","7.57","0.385","16.882","0.03","0.07","29.3972","4.66333","55.15","0","SATNPRO1509","31.786","0.4452","5"],
    [22405,"HCEP03730566","2024-05-18 17:30:00","9.3506","3.20402","26.359","5.228","7.57","0.399","29.686","0.08","0.08","29.3997","4.6637","55.1","0","SATNPRO1509","31.702","0.44404","5"],
    [22406,"HCEP03730566","2024-05-18 17:45:00","9.351","3.20377","26.287","5.231","7.57","0.394","38.682","0.03","0.06","29.3969","4.66328","55.13","0","SATNPRO1509","31.736","0.4445","5"],
    [22407,"HCEP03730566","2024-05-18 18:00:00","9.3502","3.2039","26.178","5.226","7.57","0.409","43.412","0.03","0.08","29.3989","4.66358","55.07","0","SATNPRO1509","31.534","0.44166","5"],
    [22408,"HCEP03730566","2024-05-18 18:15:00","9.351","3.20366","26.135","5.242","7.57","0.379","41.697","0.02","0.08","29.3958","4.66312","55.24","0","SATNPRO1509","31.702","0.44398","5"],
    [22409,"HCEP03730566","2024-05-18 18:30:00","9.3495","3.20417","26.087","5.232","7.57","0.401","39.115","0.02","0.1","29.4023","4.66407","55.14","0","SATNPRO1509","31.566","0.44218","5"],
    [22410,"HCEP03730566","2024-05-18 18:45:00","9.3501","3.20409","25.995","5.218","7.57","0.395","34.79","0.03","0.09","29.401","4.66387","55","0","SATNPRO1509","31.714","0.4442","5"],
    [22411,"HCEP03730566","2024-05-18 19:00:00","9.3512","3.20345","25.905","5.259","7.57","0.406","30.673","0.04","0.06","29.3937","4.6628","55.42","0","SATNPRO1509","31.87","0.44636","5"],
    [22412,"HCEP03730566","2024-05-18 19:15:00","9.351","3.20354","25.933","5.301","7.57","0.408","28.508","0.04","0.08","29.3948","4.66296","55.86","0","SATNPRO1509","31.728","0.44444","5"],
    [22413,"HCEP03730566","2024-05-18 19:30:00","9.3463","3.20504","25.914","5.25","7.57","0.408","27.527","0.03","0.09","29.4138","4.66577","55.33","0","SATNPRO1509","31.354","0.43918","5"],
    [22414,"HCEP03730566","2024-05-18 19:45:00","9.3503","3.20375","25.882","5.228","7.57","0.408","27.551","0.04","0.09","29.3975","4.66335","55.1","0","SATNPRO1509","31.628","0.44302","5"],
    [22415,"HCEP03730566","2024-05-18 20:00:00","9.3461","3.20504","25.892","5.216","7.57","0.425","28.837","0.02","0.1","29.414","4.66579","54.97","0","SATNPRO1509","31.23","0.43746","5"],
    [22416,"HCEP03730566","2024-05-18 20:15:00","9.3457","3.2052","25.973","5.182","7.57","0.434","30.344","0.02","0.11","29.4159","4.66609","54.61","0","SATNPRO1509","31.378","0.4395","5"],
    [22417,"HCEP03730566","2024-05-18 20:30:00","9.3463","3.20495","26.033","5.201","7.57","0.451","32.531","0.03","0.1","29.4129","4.66565","54.82","0","SATNPRO1509","31.326","0.43878","5"],
    [22418,"HCEP03730566","2024-05-18 20:45:00","9.3457","3.20534","26.051","5.185","7.57","0.442","33.525","0.02","0.14","29.4172","4.66628","54.65","0","SATNPRO1509","31.163999999999998","0.43654","5"],
    [22419,"HCEP03730566","2024-05-18 21:00:00","9.3452","3.20499","26.146","5.217","7.57","0.454","32.399","0.04","0.1","29.4142","4.66586","54.98","0","SATNPRO1509","31.616","0.44282","5"],
    [22420,"HCEP03730566","2024-05-18 21:15:00","9.346","3.2048","26.227","5.249","7.57","0.445","31.999","0.03","0.13","29.4115","4.66546","55.31","0","SATNPRO1509","31.556","0.44198","5"],
    [22421,"HCEP03730566","2024-05-18 21:30:00","9.3443","3.20516","26.252","5.261","7.57","0.432","31.117","0.02","0.19","29.4166","4.66623","55.44","0","SATNPRO1509","31.384","0.43958","5"],
    [22422,"HCEP03730566","2024-05-18 21:45:00","9.3452","3.20507","26.389","5.27","7.57","0.451","29.575","0.04","0.14","29.4148","4.66596","55.54","0","SATNPRO1509","31.474","0.44086","5"],
    [22423,"HCEP03730566","2024-05-18 22:00:00","9.3469","3.20457","26.541","5.262","7.57","0.426","23.767","0.03","0.12","29.4083","4.66501","55.46","0","SATNPRO1509","31.57","0.4422","5"],
    [22424,"HCEP03730566","2024-05-18 22:15:00","9.3499","3.20389","26.603","5.249","7.57","0.442","14.344","0.04","0.09","29.3988","4.6636","55.32","0","SATNPRO1509","31.822","0.44576","5"],
    [22425,"HCEP03730566","2024-05-18 22:30:00","9.3491","3.20424","26.761","5.239","7.57","0.422","13.939","0.03","0.22","29.403","4.66422","55.22","0","SATNPRO1509","31.822","0.44574","5"],
    [22426,"HCEP03730566","2024-05-18 22:45:00","9.3486","3.20449","26.809","5.226","7.57","0.416","21.693","0.04","0.18","29.406","4.66466","55.07","0","SATNPRO1509","31.48","0.4409","5"],
    [22427,"HCEP03730566","2024-05-18 23:00:00","9.3481","3.20489","26.919","5.191","7.57","0.433","27.807","0.03","0.14","29.4104","4.66531","54.71","0","SATNPRO1509","31.302","0.43842","5"],
    [22428,"HCEP03730566","2024-05-18 23:15:00","9.3485","3.2049","27.034","5.17","7.57","0.442","29.689","0.04","0.18","29.4102","4.66528","54.49","0","SATNPRO1509","31.314","0.43858","5"],
    [22429,"HCEP03730566","2024-05-18 23:30:00","9.3511","3.20392","27.211","5.192","7.57","0.462","34.884","0.06","4.86","29.398","4.66349","54.72","0","SATNPRO1509","31.718","0.44428","5"],
    [22430,"HCEP03730566","2024-05-18 23:45:00","9.3517","3.20365","27.231","5.254","7.57","0.403","34.31","0.04","0.09","29.3948","4.66302","55.37","0","SATNPRO1509","31.706","0.44412","5"],
    [22431,"HCEP03730566","2024-05-19 00:00:00","9.3506","3.20493","27.309","5.222","7.57","0.438","35.808","0.04","0.11","29.4086","4.66503","55.03","0","SATNPRO1509","31.084","0.4354","5"],
    [22432,"HCEP03730566","2024-05-19 00:15:00","9.3485","3.20532","27.466","5.096","7.56","0.407","32.465","0.02","0.12","29.4142","4.66588","53.71","0","SATNPRO1509","30.994","0.43414","5"],
    [22433,"HCEP03730566","2024-05-19 00:30:00","9.3478","3.2054","27.471","5.091","7.56","0.424","28.665","0.03","0.13","29.4156","4.6661","53.65","0","SATNPRO1509","30.86","0.43226","5"],
    [22434,"HCEP03730566","2024-05-19 00:45:00","9.3465","3.20492","27.562","5.15","7.56","0.386","26.62","0.03","0.08","29.4117","4.66557","54.27","0","SATNPRO1509","31.328","0.4388","5"],
    [22435,"HCEP03730566","2024-05-19 01:00:00","9.3445","3.20504","27.672","5.268","7.57","0.373","26.383","0.02","0.24","29.4145","4.66601","55.52","0","SATNPRO1509","31.41","0.43996","5"],
    [22436,"HCEP03730566","2024-05-19 01:15:00","9.3434","3.20496","27.695","5.392","7.58","0.357","24.86","0.03","0.1","29.4146","4.66605","56.82","0","SATNPRO1509","31.542","0.44178","5"],
    [22437,"HCEP03730566","2024-05-19 01:30:00","9.3445","3.20511","27.759","5.361","7.58","0.355","24.654","0.03","0.18","29.4152","4.66611","56.49","0","SATNPRO1509","31.268","0.43792","5"],
    [22438,"HCEP03730566","2024-05-19 01:45:00","9.3448","3.20423","27.798","5.397","7.58","0.32","24.41","0.03","0.11","29.406","4.6648","56.87","0","SATNPRO1509","31.92","0.44712","5"],
    [22439,"HCEP03730566","2024-05-19 02:00:00","9.3448","3.20432","27.71","5.483","7.58","0.32","24.992","0.03","0.08","29.407","4.66493","57.78","0","SATNPRO1509","32.034","0.44868","5"],
    [22440,"HCEP03730566","2024-05-19 02:15:00","9.3441","3.20457","27.78","5.483","7.59","0.326","24.794","0.03","0.11","29.4101","4.66539","57.77","0","SATNPRO1509","31.68","0.44374","5"],
    [22441,"HCEP03730566","2024-05-19 02:30:00","9.3447","3.2049","27.77","5.42","7.59","0.324","22.756","0.02","0.09","29.413","4.66579","57.12","0","SATNPRO1509","31.586","0.4424","5"],
    [22442,"HCEP03730566","2024-05-19 02:45:00","9.3456","3.20501","27.689","5.352","7.58","0.336","18.995","0.02","0.09","29.4134","4.66583","56.4","0","SATNPRO1509","31.468","0.44074","5"],
    [22443,"HCEP03730566","2024-05-19 03:00:00","9.3464","3.20532","27.635","5.278","7.58","0.351","16.978","0.02","0.09","29.4159","4.66617","55.62","0","SATNPRO1509","31.118000000000002","0.4359","5"],
    [22444,"HCEP03730566","2024-05-19 03:15:00","9.347","3.20525","27.6","5.195","7.57","0.372","14.391","0.03","0.13","29.4147","4.66599","54.75","0","SATNPRO1509","31.026","0.43462","5"],
    [22445,"HCEP03730566","2024-05-19 03:30:00","9.3484","3.20511","27.548","5.169","7.57","0.371","10.645","0.03","0.16","29.4121","4.66559","54.47","0","SATNPRO1509","31.118000000000002","0.43586","5"],
    [22446,"HCEP03730566","2024-05-19 03:45:00","9.3466","3.20451","27.415","5.229","7.57","0.32","5.926","0.03","0.15","29.4075","4.66496","55.1","0","SATNPRO1509","31.834","0.4459","5"],
    [22447,"HCEP03730566","2024-05-19 04:00:00","9.3506","3.20441","27.243","5.283","7.57","0.369","4.836","0.03","0.2","29.4033","4.66427","55.67","0","SATNPRO1509","31.59","0.44248","5"],
    [22448,"HCEP03730566","2024-05-19 04:15:00","9.3505","3.20386","27.197","5.244","7.57","0.871","35.42","0.55","34.04","29.3979","4.66349","55.26","0","SATNPRO1509","31.75","0.44474","5"],
    [22449,"HCEP03730566","2024-05-19 04:30:00","9.3515","3.2037","27.057","5.301","7.57","0.333","3.097","0.02","0.17","29.3955","4.66311","55.86","0","SATNPRO1509","31.716","0.44422","5"],
    [22450,"HCEP03730566","2024-05-19 04:45:00","9.3519","3.20325","27.01","5.325","7.57","0.308","2.127","0.03","0.07","29.3906","4.6624","56.12","0","SATNPRO1509","32.141999999999996","0.4502","5"],
    [22451,"HCEP03730566","2024-05-19 05:00:00","9.3529","3.2033","26.809","5.352","7.58","0.336","2.588","0.03","0.16","29.3904","4.66234","56.41","0","SATNPRO1509","31.714","0.4442","5"],
    [22452,"HCEP03730566","2024-05-19 05:15:00","9.3534","3.20335","26.614","5.31","7.57","0.546","6.678","0.6","15.32","29.3906","4.66236","55.96","0","SATNPRO1509","31.706","0.4441","5"],
    [22453,"HCEP03730566","2024-05-19 05:30:00","9.3536","3.20373","26.467","5.255","7.57","0.393","3.573","0.03","0.17","29.3943","4.66288","55.38","0","SATNPRO1509","31.678","0.44372","5"],
    [22454,"HCEP03730566","2024-05-19 05:45:00","9.3554","3.20322","26.296","5.193","7.57","0.402","3.665","0.04","0.47","29.3876","4.66188","54.73","0","SATNPRO1509","31.738","0.44458","5"],
    [22455,"HCEP03730566","2024-05-19 06:00:00","9.3541","3.20376","26.124","5.186","7.57","0.429","3.997","0.03","0.21","29.3943","4.66285","54.65","0","SATNPRO1509","31.44","0.4404","5"],
    [22456,"HCEP03730566","2024-05-19 06:15:00","9.3517","3.20398","25.947","5.175","7.56","0.489","6.209","0.22","12.1","29.3986","4.6635","54.53","0","SATNPRO1509","31.504","0.44128","5"],
    [22457,"HCEP03730566","2024-05-19 06:30:00","9.352","3.20413","25.785","5.176","7.56","0.464","4.084","0.09","0.18","29.4","4.66368","54.55","0","SATNPRO1509","31.314","0.43866","5"],
    [22458,"HCEP03730566","2024-05-19 06:45:00","9.3529","3.20413","25.611","5.116","7.56","0.464","4.158","0.04","0.33","29.3993","4.66355","53.92","0","SATNPRO1509","31.3","0.43838","5"],
    [22459,"HCEP03730566","2024-05-19 07:00:00","9.3529","3.20427","25.443","5.058","7.56","0.58","4.598","0.13","0.36","29.4007","4.66375","53.31","0","SATNPRO1509","31.169999999999998","0.4366","5"],
    [22460,"HCEP03730566","2024-05-19 07:15:00","9.3529","3.20436","25.28","5.025","7.55","0.587","4.336","0.18","0.45","29.4017","4.66388","52.96","0","SATNPRO1509","31.032","0.43464","5"],
    [22461,"HCEP03730566","2024-05-19 07:30:00","9.3513","3.20446","25.2","5.034","7.55","0.674","12.302","0.39","23.23","29.4041","4.66425","53.05","0","SATNPRO1509","31.044","0.43484","5"],
    [22462,"HCEP03730566","2024-05-19 07:45:00","9.3495","3.20445","25.125","5.079","7.55","0.514","3.734","0.09","0.24","29.4056","4.66449","53.53","0","SATNPRO1509","31.285999999999998","0.4382","5"],
    [22463,"HCEP03730566","2024-05-19 08:00:00","9.3485","3.20445","25.052","5.14","7.56","0.478","3.536","0.09","0.42","29.4064","4.66462","54.17","0","SATNPRO1509","31.39","0.43968","5"],
    [22464,"HCEP03730566","2024-05-19 08:15:00","9.347","3.20449","24.999","5.204","7.56","0.479","3.29","0.1","0.24","29.4081","4.66488","54.84","0","SATNPRO1509","31.48","0.44096","5"],
    [22465,"HCEP03730566","2024-05-19 08:30:00","9.3472","3.20454","24.991","5.241","7.56","0.415","3.242","0.07","0.64","29.4084","4.66493","55.23","0","SATNPRO1509","31.496000000000002","0.44112","5"],
    [22466,"HCEP03730566","2024-05-19 08:45:00","9.3465","3.20469","24.994","5.244","7.57","0.434","2.948","0.06","0.29","29.4104","4.66523","55.26","0","SATNPRO1509","31.432","0.44024","5"],
    [22467,"HCEP03730566","2024-05-19 09:00:00","9.3466","3.20469","25.03","5.24","7.57","0.494","2.973","0.13","0.28","29.4103","4.66521","55.22","0","SATNPRO1509","31.434","0.44026","5"],
    [22468,"HCEP03730566","2024-05-19 09:15:00","9.346","3.20488","25.066","5.245","7.57","0.424","3.07","0.07","0.18","29.4128","4.66559","55.28","0","SATNPRO1509","31.44","0.44038","5"],
    [22469,"HCEP03730566","2024-05-19 09:30:00","9.345","3.20521","25.112","5.249","7.57","0.441","3.481","0.07","0.28","29.4169","4.66619","55.31","0","SATNPRO1509","31.227999999999998","0.43736","5"],
    [22470,"HCEP03730566","2024-05-19 09:45:00","9.3447","3.20536","25.193","5.23","7.57","0.506","3.355","0.11","0.19","29.4186","4.66645","55.11","0","SATNPRO1509","31.138","0.43614","5"],
    [22471,"HCEP03730566","2024-05-19 10:00:00","9.3438","3.20547","25.279","5.216","7.57","0.417","3.314","0.06","0.27","29.4205","4.66674","54.97","0","SATNPRO1509","31.316","0.4386","5"],
    [22472,"HCEP03730566","2024-05-19 10:15:00","9.3453","3.20488","25.382","5.233","7.57","0.409","2.758","0.06","0.35","29.4132","4.66567","55.15","0","SATNPRO1509","31.502","0.44124","5"],
    [22473,"HCEP03730566","2024-05-19 10:30:00","9.3432","3.20542","25.524","5.268","7.57","0.446","2.705","0.09","0.13","29.4204","4.66675","55.51","0","SATNPRO1509","31.546","0.44184","5"],
    [22474,"HCEP03730566","2024-05-19 10:45:00","9.3454","3.20476","25.624","5.248","7.57","0.397","2.302","0.1","0.17","29.4118","4.66549","55.31","0","SATNPRO1509","31.54","0.44176","5"],
    [22475,"HCEP03730566","2024-05-19 11:00:00","9.3439","3.20523","25.688","5.266","7.57","0.405","2.572","0.05","0.14","29.4178","4.66637","55.5","0","SATNPRO1509","31.374","0.43944","5"],
    [22476,"HCEP03730566","2024-05-19 11:15:00","9.3451","3.20501","25.747","5.254","7.57","0.396","2.597","0.03","0.13","29.4145","4.66589","55.37","0","SATNPRO1509","31.504","0.44126","5"],
    [22477,"HCEP03730566","2024-05-19 11:30:00","9.3444","3.20532","25.856","5.236","7.57","0.418","2.754","0.06","0.09","29.4183","4.66644","55.18","0","SATNPRO1509","31.451999999999998","0.44056","5"],
    [22478,"HCEP03730566","2024-05-19 11:45:00","9.3444","3.20548","25.978","5.196","7.57","0.448","3.249","0.07","0.15","29.4198","4.66667","54.76","0","SATNPRO1509","31.28","0.43818","5"],
    [22479,"HCEP03730566","2024-05-19 12:00:00","9.3441","3.20544","26.062","5.176","7.57","0.451","3.251","0.09","0.31","29.4196","4.66665","54.55","0","SATNPRO1509","31.182","0.43678","5"],
    [22480,"HCEP03730566","2024-05-19 12:15:00","9.3455","3.20518","26.201","5.168","7.56","0.431","3.402","0.05","0.15","29.4158","4.66609","54.47","0","SATNPRO1509","31.426","0.44016","5"],
    [22481,"HCEP03730566","2024-05-19 12:30:00","9.3469","3.20524","26.314","5.142","7.56","0.455","3.976","0.05","0.61","29.4152","4.66598","54.19","0","SATNPRO1509","31.258","0.4378","5"],
    [22482,"HCEP03730566","2024-05-19 12:45:00","9.3469","3.20531","26.438","5.094","7.56","0.466","3.986","0.06","0.16","29.4159","4.66608","53.69","0","SATNPRO1509","31.163999999999998","0.4365","5"],
    [22483,"HCEP03730566","2024-05-19 13:00:00","9.3472","3.20541","26.583","5.051","7.56","0.473","4.4","0.04","0.16","29.4166","4.6662","53.23","0","SATNPRO1509","31.042","0.43474","5"],
    [22484,"HCEP03730566","2024-05-19 13:15:00","9.3478","3.20539","26.698","4.995","7.55","0.487","4.612","0.06","0.63","29.4158","4.66608","52.65","0","SATNPRO1509","30.996000000000002","0.43416","5"],
    [22485,"HCEP03730566","2024-05-19 13:30:00","9.3477","3.20552","26.753","4.967","7.55","0.492","4.589","0.05","0.18","29.4173","4.66629","52.35","0","SATNPRO1509","30.89","0.43264","5"],
    [22486,"HCEP03730566","2024-05-19 13:45:00","9.3482","3.20541","26.854","4.964","7.55","0.491","4.534","0.05","0.2","29.4156","4.66604","52.31","0","SATNPRO1509","30.892","0.43272","5"],
    [22487,"HCEP03730566","2024-05-19 14:00:00","9.3478","3.20545","26.927","4.975","7.55","0.514","4.605","0.07","0.19","29.4164","4.66617","52.43","0","SATNPRO1509","30.932","0.43322","5"],
    [22488,"HCEP03730566","2024-05-19 14:15:00","9.3477","3.20549","26.992","4.985","7.55","0.487","4.826","0.03","0.24","29.4169","4.66625","52.54","0","SATNPRO1509","31.028","0.43456","5"],
    [22489,"HCEP03730566","2024-05-19 14:30:00","9.3477","3.20533","27.019","5.031","7.55","0.472","4.657","0.04","0.21","29.4151","4.666","53.02","0","SATNPRO1509","31.157999999999998","0.4364","5"],
    [22490,"HCEP03730566","2024-05-19 14:45:00","9.3488","3.20492","27.032","5.075","7.55","0.452","3.929","0.08","0.15","29.4101","4.66526","53.48","0","SATNPRO1509","31.266","0.43794","5"],
    [22491,"HCEP03730566","2024-05-19 15:00:00","9.3499","3.20465","27.026","5.115","7.55","0.5","3.961","0.1","0.19","29.4065","4.66472","53.9","0","SATNPRO1509","31.52","0.44148","5"],
    [22492,"HCEP03730566","2024-05-19 15:15:00","9.3506","3.20444","27.024","5.144","7.55","0.445","3.857","0.04","0.14","29.4036","4.6643","54.21","0","SATNPRO1509","31.578","0.44226","5"],
    [22493,"HCEP03730566","2024-05-19 15:30:00","9.3524","3.20423","27.023","5.166","7.56","0.513","3.54","0.1","0.16","29.4001","4.66376","54.44","0","SATNPRO1509","31.718","0.44428","5"],
    [22494,"HCEP03730566","2024-05-19 15:45:00","9.3518","3.20428","26.979","5.176","7.56","0.51","3.915","0.08","0.22","29.4012","4.66393","54.55","0","SATNPRO1509","31.672","0.44358","5"],
    [22495,"HCEP03730566","2024-05-19 16:00:00","9.3501","3.20445","26.948","5.171","7.56","0.517","4.024","0.05","0.23","29.4042","4.66439","54.5","0","SATNPRO1509","31.666","0.4435","5"],
    [22496,"HCEP03730566","2024-05-19 16:15:00","9.349","3.2045","26.907","5.175","7.56","0.527","3.826","0.05","0.17","29.4056","4.66461","54.54","0","SATNPRO1509","31.66","0.44346","5"],
    [22497,"HCEP03730566","2024-05-19 16:30:00","9.3482","3.2045","26.855","5.196","7.56","0.56","3.722","0.03","0.24","29.4064","4.66472","54.76","0","SATNPRO1509","31.618","0.44286","5"],
    [22498,"HCEP03730566","2024-05-19 16:45:00","9.3475","3.20456","26.792","5.228","7.56","0.581","3.804","0.03","0.25","29.4076","4.6649","55.09","0","SATNPRO1509","31.806","0.44554","5"],
    [22499,"HCEP03730566","2024-05-19 17:00:00","9.3475","3.20449","26.732","5.244","7.56","0.608","3.86","0.04","0.25","29.4069","4.66481","55.26","0","SATNPRO1509","31.788","0.4452","5"],
    [22500,"HCEP03730566","2024-05-19 17:15:00","9.3485","3.20429","26.68","5.266","7.57","0.589","3.69","0.02","0.19","29.4041","4.66438","55.49","0","SATNPRO1509","31.814","0.44558","5"],
    [22501,"HCEP03730566","2024-05-19 17:30:00","9.3485","3.20437","26.609","5.26","7.57","0.571","4.313","0.01","0.3","29.4049","4.66449","55.43","0","SATNPRO1509","31.628","0.443","5"],
    [22502,"HCEP03730566","2024-05-19 17:45:00","9.3487","3.20442","26.545","5.247","7.57","0.516","4.723","0.01","0.25","29.4053","4.66454","55.29","0","SATNPRO1509","31.802","0.44546","5"],
    [22503,"HCEP03730566","2024-05-19 18:00:00","9.3487","3.20448","26.515","5.232","7.57","0.442","5.007","0.01","0.21","29.4059","4.66462","55.13","0","SATNPRO1509","31.878","0.4465","5"],
    [22504,"HCEP03730566","2024-05-19 18:15:00","9.3484","3.20451","26.451","5.225","7.57","0.359","5.405","0.01","0.43","29.4065","4.66472","55.07","0","SATNPRO1509","31.864","0.44636","5"],
    [22505,"HCEP03730566","2024-05-19 18:30:00","9.3489","3.20453","26.402","5.217","7.57","0.278","6.618","0","0.31","29.4062","4.66467","54.98","0","SATNPRO1509","31.990000000000002","0.44806","5"],
    [22506,"HCEP03730566","2024-05-19 18:45:00","9.3496","3.20449","26.336","5.214","7.57","0.205","8.475","0","0.37","29.4054","4.66452","54.95","0","SATNPRO1509","31.89","0.4467","5"],
    [22507,"HCEP03730566","2024-05-19 19:00:00","9.3502","3.20442","26.224","5.214","7.56","0.145","13.199","0","0.47","29.4042","4.66434","54.95","0","SATNPRO1509","31.876","0.44652","5"],
    [22508,"HCEP03730566","2024-05-19 19:15:00","9.3507","3.2044","26.221","5.212","7.56","0.106","23.202","0","0.28","29.4035","4.66424","54.93","0","SATNPRO1509","31.904","0.44686","5"],
    [22509,"HCEP03730566","2024-05-19 19:30:00","9.3517","3.20433","26.159","5.209","7.56","0.085","40.467","0.01","0.34","29.4021","4.66401","54.89","0","SATNPRO1509","31.906","0.44692","5"],
    [22510,"HCEP03730566","2024-05-19 19:45:00","9.3523","3.2043","26.164","5.207","7.56","0.09","69.476","0.01","0.3","29.4013","4.66388","54.87","0","SATNPRO1509","31.842","0.446","5"],
    [22511,"HCEP03730566","2024-05-19 20:00:00","9.3529","3.20425","26.056","5.205","7.56","0.105","111.531","0.02","0.18","29.4002","4.66371","54.86","0","SATNPRO1509","31.9","0.44682","5"],
    [22512,"HCEP03730566","2024-05-19 20:15:00","9.3534","3.2042","26.073","5.199","7.56","0.122","158.626","0.01","0.22","29.3994","4.66358","54.79","0","SATNPRO1509","31.872","0.44642","5"],
    [22513,"HCEP03730566","2024-05-19 20:30:00","9.3539","3.20415","26.014","5.198","7.56","0.145","198.705","0.01","0.21","29.3985","4.66344","54.79","0","SATNPRO1509","31.892","0.44672","5"],
    [22514,"HCEP03730566","2024-05-19 20:45:00","9.3548","3.20411","26.057","5.189","7.56","0.166","219.344","0.01","0.23","29.3973","4.66325","54.69","0","SATNPRO1509","32.032","0.44868","5"],
    [22515,"HCEP03730566","2024-05-19 21:00:00","9.3549","3.20412","26.063","5.187","7.56","0.198","222.737","0.03","0.12","29.3974","4.66327","54.67","0","SATNPRO1509","31.926","0.44716","5"],
    [22516,"HCEP03730566","2024-05-19 21:15:00","9.3551","3.20411","26.127","5.182","7.56","0.21","214.339","0.02","0.26","29.397","4.66322","54.61","0","SATNPRO1509","31.900000000000002","0.44684","5"],
    [22517,"HCEP03730566","2024-05-19 21:30:00","9.3553","3.20413","26.214","5.171","7.56","0.228","192.363","0.03","0.15","29.397","4.66322","54.5","0","SATNPRO1509","31.796","0.4454","5"],
    [22518,"HCEP03730566","2024-05-19 21:45:00","9.3556","3.20413","26.299","5.166","7.56","0.221","161.635","0.02","0.08","29.3968","4.66319","54.44","0","SATNPRO1509","31.872","0.44642","5"],
    [22519,"HCEP03730566","2024-05-19 22:00:00","9.3555","3.20417","26.334","5.157","7.56","0.219","128.771","0.02","0.07","29.3972","4.66325","54.35","0","SATNPRO1509","31.782","0.44516","5"],
    [22520,"HCEP03730566","2024-05-19 22:15:00","9.3556","3.20415","26.412","5.161","7.56","0.21","73.827","0.02","0.05","29.3969","4.66321","54.39","0","SATNPRO1509","31.908","0.44696","5"],
    [22521,"HCEP03730566","2024-05-19 22:30:00","9.3553","3.20417","26.518","5.157","7.56","0.193","26.77","0.01","0.02","29.3973","4.66329","54.36","0","SATNPRO1509","31.962","0.44766","5"],
    [22522,"HCEP03730566","2024-05-19 22:45:00","9.3551","3.20417","26.605","5.164","7.56","0.189","12.271","0.02","0.02","29.3975","4.66331","54.43","0","SATNPRO1509","31.91","0.44698","5"],
    [22523,"HCEP03730566","2024-05-19 23:00:00","9.3549","3.20418","26.697","5.166","7.56","0.17","4.057","0.02","0.01","29.3977","4.66335","54.44","0","SATNPRO1509","31.906","0.44694","5"],
    [22524,"HCEP03730566","2024-05-19 23:15:00","9.3549","3.20418","26.787","5.174","7.56","0.154","0.722","0.01","0.01","29.3977","4.66335","54.53","0","SATNPRO1509","31.926","0.44716","5"],
    [22525,"HCEP03730566","2024-05-19 23:30:00","9.3547","3.20417","26.923","5.18","7.56","0.141","0.289","0.01","0.01","29.3977","4.66336","54.59","0","SATNPRO1509","31.964","0.44768","5"],
    [22526,"HCEP03730566","2024-05-19 23:45:00","9.3547","3.20415","27.022","5.181","7.56","0.12","0.261","0.01","0.01","29.3974","4.66334","54.6","0","SATNPRO1509","31.939999999999998","0.44738","5"],
    [22527,"HCEP03730566","2024-05-20 00:00:00","9.3552","3.20415","27.088","5.177","7.56","0.113","0.271","0.01","0.01","29.397","4.66327","54.57","0","SATNPRO1509","31.872","0.4464","5"],
    [22528,"HCEP03730566","2024-05-20 00:15:00","9.3552","3.20412","27.237","5.178","7.56","0.095","0.276","0.01","0.01","29.3967","4.66323","54.57","0","SATNPRO1509","31.952","0.44756","5"],
    [22529,"HCEP03730566","2024-05-20 00:30:00","9.3555","3.20416","27.325","5.177","7.56","0.091","0.349","0.01","0.01","29.3968","4.66324","54.57","0","SATNPRO1509","31.992","0.44808","5"],
    [22530,"HCEP03730566","2024-05-20 00:45:00","9.3557","3.20413","27.423","5.166","7.56","0.088","0.456","0.01","0.02","29.3963","4.66318","54.45","0","SATNPRO1509","32.02","0.44852","5"],
    [22531,"HCEP03730566","2024-05-20 01:00:00","9.3555","3.20415","27.452","5.173","7.56","0.087","0.578","0.01","0.03","29.3966","4.66323","54.52","0","SATNPRO1509","31.916","0.44702","5"],
    [22532,"HCEP03730566","2024-05-20 01:15:00","9.3557","3.20415","27.516","5.17","7.56","0.088","0.674","0.01","0.02","29.3964","4.66321","54.49","0","SATNPRO1509","31.91","0.44694","5"],
    [22533,"HCEP03730566","2024-05-20 01:30:00","9.3557","3.20417","27.585","5.172","7.56","0.091","0.752","0.01","0.03","29.3966","4.66324","54.51","0","SATNPRO1509","31.9","0.44682","5"],
    [22534,"HCEP03730566","2024-05-20 01:45:00","9.3553","3.2042","27.644","5.167","7.56","0.1","0.833","0.01","0.03","29.3973","4.66334","54.45","0","SATNPRO1509","31.922","0.4471","5"],
    [22535,"HCEP03730566","2024-05-20 02:00:00","9.355","3.20422","27.636","5.17","7.56","0.115","0.883","0.01","0.04","29.3976","4.66338","54.49","0","SATNPRO1509","31.892","0.44668","5"],
    [22536,"HCEP03730566","2024-05-20 02:15:00","9.3552","3.20425","27.673","5.16","7.56","0.131","0.998","0.02","0.03","29.3978","4.66341","54.39","0","SATNPRO1509","31.914","0.447","5"],
    [22537,"HCEP03730566","2024-05-20 02:30:00","9.3546","3.20426","27.649","5.155","7.56","0.142","1.118","0.02","0.05","29.3984","4.66351","54.33","0","SATNPRO1509","31.904","0.44686","5"],
    [22538,"HCEP03730566","2024-05-20 02:45:00","9.3546","3.2043","27.608","5.144","7.56","0.167","1.271","0.02","0.04","29.3988","4.66358","54.22","0","SATNPRO1509","31.804","0.44546","5"],
    [22539,"HCEP03730566","2024-05-20 03:00:00","9.3546","3.20433","27.575","5.139","7.56","0.19","1.467","0.03","0.05","29.3991","4.66361","54.16","0","SATNPRO1509","31.842","0.446","5"],
    [22540,"HCEP03730566","2024-05-20 03:15:00","9.3543","3.20436","27.527","5.128","7.56","0.221","1.73","0.03","0.08","29.3997","4.6637","54.04","0","SATNPRO1509","31.862000000000002","0.4463","5"],
    [22541,"HCEP03730566","2024-05-20 03:30:00","9.3542","3.20437","27.468","5.128","7.56","0.273","2.003","0.04","0.04","29.3999","4.66372","54.05","0","SATNPRO1509","31.81","0.44556","5"],
    [22542,"HCEP03730566","2024-05-20 03:45:00","9.3539","3.2044","27.375","5.121","7.56","0.283","2.337","0.04","0.08","29.4005","4.66381","53.97","0","SATNPRO1509","31.762","0.4449","5"],
    [22543,"HCEP03730566","2024-05-20 04:00:00","9.354","3.20446","27.279","5.093","7.56","0.321","4.965","0.04","3.22","29.401","4.66388","53.68","0","SATNPRO1509","31.646","0.44324","5"],
    [22544,"HCEP03730566","2024-05-20 04:15:00","9.3539","3.20447","27.17","5.077","7.56","0.344","2.886","0.03","0.06","29.4013","4.66391","53.51","0","SATNPRO1509","31.65","0.4433","5"],
    [22545,"HCEP03730566","2024-05-20 04:30:00","9.3536","3.20449","27.031","5.07","7.55","6.212","45.347","8.3","43.9","29.4017","4.66397","53.44","0","SATNPRO1509","31.654","0.4434","5"],
    [22546,"HCEP03730566","2024-05-20 04:45:00","9.3536","3.20447","26.88","5.071","7.55","0.409","3.741","0.04","0.55","29.4016","4.66395","53.44","0","SATNPRO1509","31.636","0.4431","5"],
    [22547,"HCEP03730566","2024-05-20 05:00:00","9.3533","3.20446","26.733","5.076","7.55","0.414","3.576","0.04","0.28","29.4018","4.66398","53.5","0","SATNPRO1509","31.658","0.4434","5"],
    [22548,"HCEP03730566","2024-05-20 05:15:00","9.3532","3.20445","26.579","5.07","7.55","0.459","3.488","0.05","0.13","29.4019","4.66398","53.44","0","SATNPRO1509","31.5","0.44118","5"],
    [22549,"HCEP03730566","2024-05-20 05:30:00","9.3535","3.20445","26.414","5.062","7.55","0.467","3.779","0.03","0.11","29.4018","4.66395","53.35","0","SATNPRO1509","31.594","0.4425","5"],
    [22550,"HCEP03730566","2024-05-20 05:45:00","9.3534","3.20443","26.271","5.058","7.55","0.469","3.661","0.04","0.09","29.4016","4.66392","53.31","0","SATNPRO1509","31.72","0.44426","5"],
    [22551,"HCEP03730566","2024-05-20 06:00:00","9.3532","3.20438","26.068","5.079","7.55","0.477","3.483","0.05","0.1","29.4013","4.66387","53.52","0","SATNPRO1509","31.684","0.4438","5"],
    [22552,"HCEP03730566","2024-05-20 06:15:00","9.3532","3.20438","25.903","5.083","7.55","0.49","3.454","0.05","0.12","29.4014","4.66387","53.57","0","SATNPRO1509","31.626","0.443","5"],
    [22553,"HCEP03730566","2024-05-20 06:30:00","9.3533","3.2044","25.72","5.072","7.55","0.509","3.51","0.06","0.2","29.4016","4.66389","53.45","0","SATNPRO1509","31.608","0.4427","5"],
    [22554,"HCEP03730566","2024-05-20 06:45:00","9.3532","3.20439","25.549","5.069","7.55","0.497","3.441","0.05","0.09","29.4017","4.66389","53.42","0","SATNPRO1509","31.64","0.44316","5"],
    [22555,"HCEP03730566","2024-05-20 07:00:00","9.3538","3.20444","25.366","5.052","7.55","0.524","4.046","0.08","0.11","29.4018","4.66388","53.25","0","SATNPRO1509","31.451999999999998","0.44058","5"],
    [22556,"HCEP03730566","2024-05-20 07:15:00","9.3542","3.20444","25.206","5.021","7.55","0.518","4.091","0.05","0.13","29.4016","4.66383","52.92","0","SATNPRO1509","31.448","0.44046","5"],
    [22557,"HCEP03730566","2024-05-20 07:30:00","9.3534","3.20438","25.058","5.029","7.55","0.496","3.296","0.06","0.16","29.4016","4.66385","53","0","SATNPRO1509","31.59","0.44248","5"],
    [22558,"HCEP03730566","2024-05-20 07:45:00","9.3532","3.20436","24.927","5.059","7.55","0.575","3.492","0.11","0.14","29.4017","4.66385","53.32","0","SATNPRO1509","31.704","0.44406","5"],
    [22559,"HCEP03730566","2024-05-20 08:00:00","9.3534","3.20439","24.863","5.063","7.55","0.541","3.461","0.11","0.24","29.4018","4.66386","53.36","0","SATNPRO1509","31.718","0.44424","5"],
    [22560,"HCEP03730566","2024-05-20 08:15:00","9.3536","3.20437","24.777","5.058","7.55","0.505","3.678","0.06","0.2","29.4015","4.6638","53.31","0","SATNPRO1509","31.636","0.4431","5"],
    [22561,"HCEP03730566","2024-05-20 08:30:00","9.3545","3.2044","24.727","5.043","7.55","0.576","3.593","0.14","0.25","29.4011","4.66374","53.15","0","SATNPRO1509","31.612000000000002","0.44276","5"],
    [22562,"HCEP03730566","2024-05-20 08:45:00","9.3555","3.20443","24.72","5.003","7.55","0.589","4.33","0.12","0.23","29.4006","4.66364","52.73","0","SATNPRO1509","31.346","0.43906","5"],
    [22563,"HCEP03730566","2024-05-20 09:00:00","9.3556","3.20446","24.711","4.968","7.55","0.599","4.413","0.13","0.23","29.4008","4.66366","52.36","0","SATNPRO1509","31.306","0.4385","5"],
    [22564,"HCEP03730566","2024-05-20 09:15:00","9.3559","3.20446","24.735","4.957","7.54","0.585","4.322","0.11","0.23","29.4006","4.66363","52.25","0","SATNPRO1509","31.326","0.43878","5"],
    [22565,"HCEP03730566","2024-05-20 09:30:00","9.3559","3.20443","24.766","4.94","7.54","0.569","4.291","0.11","0.36","29.4002","4.66357","52.07","0","SATNPRO1509","31.386","0.4396","5"],
    [22566,"HCEP03730566","2024-05-20 09:45:00","9.3558","3.20445","24.806","4.949","7.54","0.513","3.883","0.07","0.17","29.4004","4.66361","52.16","0","SATNPRO1509","31.38","0.43948","5"],
    [22567,"HCEP03730566","2024-05-20 10:00:00","9.3557","3.20445","24.838","4.956","7.54","0.532","3.807","0.09","0.31","29.4006","4.66364","52.23","0","SATNPRO1509","31.492","0.44112","5"],
    [22568,"HCEP03730566","2024-05-20 10:15:00","9.3554","3.20449","24.859","4.953","7.54","0.529","3.727","0.07","0.17","29.4011","4.66373","52.21","0","SATNPRO1509","31.408","0.43992","5"],
    [22569,"HCEP03730566","2024-05-20 10:30:00","9.3554","3.20454","24.95","4.945","7.54","0.552","3.953","0.11","0.2","29.4016","4.6638","52.12","0","SATNPRO1509","30.650000000000002","0.42928","5"],
    [22570,"HCEP03730566","2024-05-20 10:45:00","9.3545","3.20454","25.057","4.944","7.54","0.568","4.042","0.11","0.31","29.4023","4.66392","52.11","0","SATNPRO1509","31.355999999999998","0.43916","5"],
    [22571,"HCEP03730566","2024-05-20 11:00:00","9.3542","3.20453","25.155","4.952","7.54","0.6","4.028","0.12","0.17","29.4024","4.66395","52.19","0","SATNPRO1509","31.358","0.43922","5"],
    [22572,"HCEP03730566","2024-05-20 11:15:00","9.3552","3.20455","25.301","4.946","7.54","0.585","4.301","0.11","0.27","29.4018","4.66385","52.12","0","SATNPRO1509","31.364","0.43934","5"],
    [22573,"HCEP03730566","2024-05-20 11:30:00","9.3558","3.20453","25.465","4.918","7.54","0.583","5.014","0.09","0.34","29.401","4.66374","51.84","0","SATNPRO1509","31.194","0.4369","5"],
    [22574,"HCEP03730566","2024-05-20 11:45:00","9.3559","3.2045","25.634","4.908","7.54","0.584","5.465","0.09","0.35","29.4005","4.66368","51.73","0","SATNPRO1509","31.244","0.43764","5"],
    [22575,"HCEP03730566","2024-05-20 12:00:00","9.3547","3.2044","25.672","4.946","7.54","0.508","4.19","0.06","0.47","29.4005","4.6637","52.13","0","SATNPRO1509","31.472","0.44082","5"],
    [22576,"HCEP03730566","2024-05-20 12:15:00","9.3554","3.20459","25.952","4.968","7.54","0.607","4.929","0.12","0.18","29.4018","4.66389","52.36","0","SATNPRO1509","31.27","0.43798","5"],
    [22577,"HCEP03730566","2024-05-20 12:30:00","9.3544","3.20454","26.101","4.927","7.54","0.611","4.385","0.09","0.31","29.402","4.66394","51.93","0","SATNPRO1509","31.434","0.44026","5"],
    [22578,"HCEP03730566","2024-05-20 12:45:00","9.3546","3.20459","26.25","4.968","7.54","0.538","4.26","0.06","0.2","29.4023","4.66399","52.36","0","SATNPRO1509","31.476","0.44088","5"],
    [22579,"HCEP03730566","2024-05-20 13:00:00","9.355","3.20462","26.39","4.947","7.54","0.572","4.355","0.09","0.27","29.4021","4.66397","52.14","0","SATNPRO1509","31.3","0.43842","5"],
    [22580,"HCEP03730566","2024-05-20 13:15:00","9.3554","3.20462","26.546","4.937","7.54","0.565","4.56","0.07","0.26","29.4018","4.66392","52.03","0","SATNPRO1509","31.448","0.44048","5"],
    [22581,"HCEP03730566","2024-05-20 13:30:00","9.3552","3.20458","26.693","4.935","7.54","0.539","4.037","0.09","0.17","29.4015","4.66389","52.02","0","SATNPRO1509","31.45","0.44048","5"],
    [22582,"HCEP03730566","2024-05-20 13:45:00","9.3552","3.20459","26.824","4.932","7.54","0.534","4.052","0.06","0.21","29.4016","4.66391","51.99","0","SATNPRO1509","31.418","0.4401","5"],
    [22583,"HCEP03730566","2024-05-20 14:00:00","9.3548","3.20454","26.947","4.948","7.54","0.553","3.997","0.08","0.13","29.4013","4.66388","52.15","0","SATNPRO1509","31.586","0.4424","5"],
    [22584,"HCEP03730566","2024-05-20 14:15:00","9.355","3.20455","27.039","4.983","7.54","0.475","3.551","0.08","0.12","29.4012","4.66387","52.52","0","SATNPRO1509","31.614","0.4428","5"],
    [22585,"HCEP03730566","2024-05-20 14:30:00","9.3543","3.20444","27.128","5.042","7.54","0.414","3.115","0.05","0.25","29.4006","4.66381","53.14","0","SATNPRO1509","31.998","0.4482","5"],
    [22586,"HCEP03730566","2024-05-20 14:45:00","9.3541","3.20442","27.186","5.051","7.55","0.403","3.278","0.05","0.26","29.4006","4.66381","53.24","0","SATNPRO1509","31.798000000000002","0.44538","5"],
    [22587,"HCEP03730566","2024-05-20 15:00:00","9.3549","3.2045","27.211","5.031","7.55","0.423","3.624","0.05","0.09","29.4007","4.66381","53.02","0","SATNPRO1509","31.642","0.4432","5"],
    [22588,"HCEP03730566","2024-05-20 15:15:00","9.3553","3.20447","27.302","5.008","7.55","0.407","3.801","0.04","0.17","29.4","4.66372","52.78","0","SATNPRO1509","31.668","0.44358","5"],
    [22589,"HCEP03730566","2024-05-20 15:30:00","9.356","3.20445","27.322","4.987","7.55","0.399","3.938","0.04","0.15","29.3992","4.66359","52.56","0","SATNPRO1509","31.504","0.44126","5"],
    [22590,"HCEP03730566","2024-05-20 15:45:00","9.3568","3.20445","27.344","4.968","7.54","0.414","4.083","0.04","0.11","29.3986","4.66349","52.36","0","SATNPRO1509","31.55","0.4419","5"],
    [22591,"HCEP03730566","2024-05-20 16:00:00","9.3574","3.20443","27.384","4.953","7.54","0.428","4.047","0.06","0.13","29.3979","4.66338","52.2","0","SATNPRO1509","31.438","0.44034","5"],
    [22592,"HCEP03730566","2024-05-20 16:15:00","9.3584","3.20427","27.363","4.948","7.54","0.424","3.999","0.03","0.13","29.3955","4.66301","52.16","0","SATNPRO1509","31.47","0.44082","5"],
    [22593,"HCEP03730566","2024-05-20 16:30:00","9.3597","3.20418","27.297","4.942","7.54","0.512","4.397","0.11","0.22","29.3935","4.66271","52.09","0","SATNPRO1509","31.348","0.43912","5"],
    [22594,"HCEP03730566","2024-05-20 16:45:00","9.3597","3.20425","27.343","4.932","7.54","0.473","5.965","0.07","0.09","29.3943","4.66281","51.98","0","SATNPRO1509","31.428","0.44022","5"],
    [22595,"HCEP03730566","2024-05-20 17:00:00","9.3604","3.20417","27.339","4.923","7.54","0.488","10.91","0.06","0.19","29.3928","4.66259","51.89","0","SATNPRO1509","31.332","0.43892","5"],
    [22596,"HCEP03730566","2024-05-20 17:15:00","9.3616","3.20412","27.311","4.918","7.54","0.485","22.067","0.06","0.09","29.3913","4.66235","51.84","0","SATNPRO1509","31.384","0.43956","5"],
    [22597,"HCEP03730566","2024-05-20 17:30:00","9.3633","3.20408","27.202","4.914","7.54","0.504","36.209","0.08","0.09","29.3895","4.66206","51.8","0","SATNPRO1509","31.436","0.44034","5"],
    [22598,"HCEP03730566","2024-05-20 17:45:00","9.3632","3.20413","27.188","4.903","7.54","0.482","46.606","0.05","0.11","29.3902","4.66216","51.68","0","SATNPRO1509","31.494","0.44114","5"],
    [22599,"HCEP03730566","2024-05-20 18:00:00","9.364","3.20406","27.069","4.895","7.54","0.499","48.577","0.06","0.09","29.3889","4.66195","51.6","0","SATNPRO1509","31.446","0.44044","5"],
    [22600,"HCEP03730566","2024-05-20 18:15:00","9.3658","3.204","27.066","4.891","7.54","0.499","43.917","0.06","0.1","29.3867","4.6616","51.56","0","SATNPRO1509","31.586","0.44242","5"],
    [22601,"HCEP03730566","2024-05-20 18:30:00","9.3667","3.204","26.942","4.891","7.53","0.487","36.861","0.06","0.08","29.3861","4.66149","51.55","0","SATNPRO1509","31.55","0.4419","5"],
    [22602,"HCEP03730566","2024-05-20 18:45:00","9.3677","3.20397","26.909","4.884","7.53","0.485","30.493","0.06","0.1","29.385","4.66131","51.49","0","SATNPRO1509","31.686","0.4438","5"],
    [22603,"HCEP03730566","2024-05-20 19:00:00","9.3675","3.20397","26.846","4.883","7.53","0.484","27.213","0.04","0.16","29.3852","4.66135","51.47","0","SATNPRO1509","31.66","0.44342","5"],
    [22604,"HCEP03730566","2024-05-20 19:15:00","9.368","3.20402","26.803","4.87","7.53","0.494","26.29","0.03","0.09","29.3853","4.66134","51.34","0","SATNPRO1509","31.534","0.44174","5"],
    [22605,"HCEP03730566","2024-05-20 19:30:00","9.3681","3.20406","26.699","4.852","7.53","2.072","76.657","1.61","29.09","29.3856","4.66138","51.15","0","SATNPRO1509","31.528","0.44162","5"],
    [22606,"HCEP03730566","2024-05-20 19:45:00","9.3685","3.20409","26.599","4.832","7.53","0.516","27.688","0.05","0.07","29.3857","4.66139","50.94","0","SATNPRO1509","31.552","0.44196","5"],
    [22607,"HCEP03730566","2024-05-20 20:00:00","9.3696","3.20412","26.442","4.803","7.53","0.527","28.779","0.04","0.15","29.3852","4.66128","50.64","0","SATNPRO1509","31.582","0.44236","5"],
    [22608,"HCEP03730566","2024-05-20 20:15:00","9.3698","3.20413","26.358","4.788","7.53","0.521","30.946","0.04","0.08","29.3851","4.66125","50.47","0","SATNPRO1509","31.476","0.44084","5"],
    [22609,"HCEP03730566","2024-05-20 20:30:00","9.3712","3.20422","26.28","4.75","7.52","1.092","81.73","1.04","25.42","29.3848","4.66119","50.08","0","SATNPRO1509","31.408","0.43992","5"],
    [22610,"HCEP03730566","2024-05-20 20:45:00","9.3736","3.20411","26.193","4.705","7.52","0.564","36.509","0.03","0.07","29.3818","4.66071","49.6","0","SATNPRO1509","31.404","0.43982","5"],
    [22611,"HCEP03730566","2024-05-20 21:00:00","9.3749","3.20401","26.176","4.693","7.52","0.575","35.944","0.04","0.11","29.3798","4.6604","49.47","0","SATNPRO1509","31.436","0.44032","5"],
    [22612,"HCEP03730566","2024-05-20 21:15:00","9.3754","3.20394","26.215","4.694","7.52","0.565","35.063","0.05","0.07","29.3786","4.66022","49.49","0","SATNPRO1509","31.464","0.44072","5"],
    [22613,"HCEP03730566","2024-05-20 21:30:00","9.3764","3.20386","26.209","4.704","7.52","0.583","34.826","0.03","1.29","29.3771","4.65998","49.59","0","SATNPRO1509","31.534","0.4417","5"],
    [22614,"HCEP03730566","2024-05-20 21:45:00","9.3764","3.2038","26.255","4.676","7.52","0.62","33.021","0.23","0.93","29.3764","4.65989","49.3","0","SATNPRO1509","31.41","0.43994","5"],
    [22615,"HCEP03730566","2024-05-20 22:00:00","9.3765","3.20374","26.307","4.682","7.51","0.575","26.515","0.05","0.59","29.3757","4.65978","49.36","0","SATNPRO1509","31.406","0.4399","5"],
    [22616,"HCEP03730566","2024-05-20 22:15:00","9.3763","3.20373","26.376","4.681","7.51","0.57","15.284","0.04","0.07","29.3758","4.6598","49.35","0","SATNPRO1509","31.526","0.44156","5"],
    [22617,"HCEP03730566","2024-05-20 22:30:00","9.3763","3.20375","26.399","4.683","7.51","0.556","15.192","0.04","0.13","29.3759","4.65982","49.37","0","SATNPRO1509","31.462","0.44068","5"],
    [22618,"HCEP03730566","2024-05-20 22:45:00","9.3762","3.20384","26.529","4.716","7.51","0.523","24.486","0.03","0.09","29.3769","4.65997","49.72","0","SATNPRO1509","31.516","0.44148","5"],
    [22619,"HCEP03730566","2024-05-20 23:00:00","9.3754","3.2039","26.595","4.716","7.52","0.537","30.928","0.04","0.1","29.3781","4.66016","49.72","0","SATNPRO1509","31.46","0.44068","5"],
    [22620,"HCEP03730566","2024-05-20 23:15:00","9.373","3.20409","26.629","4.696","7.51","0.531","33.393","0.04","0.07","29.3819","4.66076","49.51","0","SATNPRO1509","31.378","0.43948","5"],
    [22621,"HCEP03730566","2024-05-20 23:30:00","9.3711","3.20413","26.693","4.715","7.52","0.522","36.607","0.04","0.1","29.3839","4.66108","49.71","0","SATNPRO1509","31.368","0.43934","5"],
    [22622,"HCEP03730566","2024-05-20 23:45:00","9.3695","3.20415","26.794","4.743","7.52","0.526","39.289","0.05","0.09","29.3854","4.66133","50","0","SATNPRO1509","31.284","0.4382","5"],
    [22623,"HCEP03730566","2024-05-21 00:00:00","9.3675","3.20419","26.878","4.765","7.52","0.521","39.617","0.04","0.08","29.3874","4.66166","50.23","0","SATNPRO1509","31.312","0.4386","5"],
    [22624,"HCEP03730566","2024-05-21 00:15:00","9.3661","3.20422","26.945","4.774","7.52","0.519","34.301","0.04","0.11","29.3888","4.6619","50.32","0","SATNPRO1509","31.378","0.43954","5"],
    [22625,"HCEP03730566","2024-05-21 00:30:00","9.3643","3.2043","27.028","4.796","7.52","0.519","28.749","0.03","0.09","29.391","4.66225","50.55","0","SATNPRO1509","31.322","0.43872","5"],
    [22626,"HCEP03730566","2024-05-21 00:45:00","9.3625","3.20438","27.118","4.816","7.52","0.499","25.734","0.03","0.06","29.3933","4.66261","50.76","0","SATNPRO1509","31.332","0.43886","5"],
    [22627,"HCEP03730566","2024-05-21 01:00:00","9.3622","3.20424","27.231","4.833","7.53","0.508","24.006","0.09","0.07","29.3921","4.66246","50.95","0","SATNPRO1509","31.284","0.43816","5"],
    [22628,"HCEP03730566","2024-05-21 01:15:00","9.3617","3.20414","27.321","4.841","7.53","0.476","23.679","0.06","0.06","29.3914","4.66236","51.03","0","SATNPRO1509","31.462","0.44066","5"],
    [22629,"HCEP03730566","2024-05-21 01:30:00","9.3618","3.20419","27.357","4.839","7.53","0.46","22.527","0.04","0.15","29.3918","4.66242","51","0","SATNPRO1509","31.348","0.43906","5"],
    [22630,"HCEP03730566","2024-05-21 01:45:00","9.3615","3.20429","27.447","4.816","7.53","0.474","20.679","0.05","0.06","29.3931","4.66262","50.76","0","SATNPRO1509","31.26","0.43784","5"],
    [22631,"HCEP03730566","2024-05-21 02:00:00","9.3615","3.20432","27.471","4.794","7.53","0.531","21.709","0.12","0.45","29.3934","4.66267","50.53","0","SATNPRO1509","31.142","0.43618","5"],
    [22632,"HCEP03730566","2024-05-21 02:15:00","9.3624","3.20432","27.526","4.763","7.52","0.482","24.094","0.07","0.11","29.3926","4.66253","50.2","0","SATNPRO1509","31.066","0.4351","5"],
    [22633,"HCEP03730566","2024-05-21 02:30:00","9.363","3.20411","27.546","4.738","7.52","0.436","24.788","0.04","0.11","29.3899","4.66215","49.94","0","SATNPRO1509","31.072","0.4352","5"],
    [22634,"HCEP03730566","2024-05-21 02:45:00","9.3644","3.20395","27.561","4.727","7.52","0.475","22.715","0.14","0.14","29.3872","4.66172","49.83","0","SATNPRO1509","30.986","0.43404","5"],
    [22635,"HCEP03730566","2024-05-21 03:00:00","9.3671","3.20358","27.548","4.71","7.52","0.448","18.355","0.05","0.09","29.3812","4.66082","49.65","0","SATNPRO1509","31.076","0.43526","5"],
    [22636,"HCEP03730566","2024-05-21 03:15:00","9.3676","3.20323","27.527","4.708","7.52","0.451","14.134","0.07","0.09","29.3773","4.66025","49.63","0","SATNPRO1509","31.09","0.43548","5"],
    [22637,"HCEP03730566","2024-05-21 03:30:00","9.3696","3.20268","27.486","4.762","7.52","0.44","10.461","0.03","0.09","29.3701","4.65917","50.2","0","SATNPRO1509","31.286","0.43818","5"],
    [22638,"HCEP03730566","2024-05-21 03:45:00","9.3699","3.20217","27.407","4.831","7.52","0.409","6.626","0.05","0.07","29.3646","4.65838","50.92","0","SATNPRO1509","31.772","0.44502","5"],
    [22639,"HCEP03730566","2024-05-21 04:00:00","9.3744","3.20192","27.358","4.854","7.52","0.468","4.272","0.06","0.12","29.3585","4.65742","51.17","0","SATNPRO1509","31.564","0.44208","5"],
    [22640,"HCEP03730566","2024-05-21 04:15:00","9.3757","3.20157","27.281","4.85","7.53","0.511","3.552","0.09","0.12","29.3539","4.65673","51.12","0","SATNPRO1509","31.704","0.44404","5"],
    [22641,"HCEP03730566","2024-05-21 04:30:00","9.377","3.20137","27.183","4.863","7.53","0.515","3.365","0.06","0.09","29.3508","4.65626","51.26","0","SATNPRO1509","31.77","0.44496","5"],
    [22642,"HCEP03730566","2024-05-21 04:45:00","9.3779","3.20122","27.06","4.872","7.53","0.538","3.333","0.07","0.14","29.3486","4.65593","51.35","0","SATNPRO1509","31.906","0.44692","5"],
    [22643,"HCEP03730566","2024-05-21 05:00:00","9.3776","3.20121","26.942","4.87","7.53","0.524","3.348","0.06","0.19","29.3488","4.65596","51.34","0","SATNPRO1509","31.968","0.44778","5"],
    [22644,"HCEP03730566","2024-05-21 05:15:00","9.377","3.201","26.778","4.895","7.53","0.549","2.934","0.13","0.26","29.3472","4.65572","51.6","0","SATNPRO1509","32.07","0.4492","5"],
    [22645,"HCEP03730566","2024-05-21 05:30:00","9.3771","3.20091","26.625","4.957","7.53","0.556","2.742","0.09","0.12","29.3463","4.65558","52.26","0","SATNPRO1509","32.288","0.45224","5"],
    [22646,"HCEP03730566","2024-05-21 05:45:00","9.3779","3.20109","26.447","4.937","7.53","0.587","3.278","0.11","0.24","29.3476","4.65574","52.04","0","SATNPRO1509","31.998","0.44822","5"],
    [22647,"HCEP03730566","2024-05-21 06:00:00","9.3779","3.20144","26.295","4.862","7.53","0.625","3.369","0.11","0.24","29.3512","4.65625","51.25","0","SATNPRO1509","31.64","0.44314","5"],
    [22648,"HCEP03730566","2024-05-21 06:15:00","9.3771","3.20193","26.102","4.785","7.52","0.631","3.873","0.08","0.23","29.3569","4.65707","50.45","0","SATNPRO1509","31.508","0.4413","5"],
    [22649,"HCEP03730566","2024-05-21 06:30:00","9.3768","3.20176","25.936","4.76","7.52","0.586","3.121","0.08","0.2","29.3555","4.65686","50.17","0","SATNPRO1509","31.452","0.44052","5"],
    [22650,"HCEP03730566","2024-05-21 06:45:00","9.378","3.20132","25.761","4.807","7.52","0.635","3.118","0.11","0.26","29.35","4.65605","50.67","0","SATNPRO1509","31.826","0.44576","5"],
    [22651,"HCEP03730566","2024-05-21 07:00:00","9.3744","3.20233","25.568","4.813","7.52","0.66","4.242","0.11","0.28","29.3634","4.65802","50.74","0","SATNPRO1509","31.328","0.43878","5"],
    [22652,"HCEP03730566","2024-05-21 07:15:00","9.3714","3.20278","25.403","4.721","7.52","0.715","4.089","0.22","0.34","29.3704","4.65907","49.77","0","SATNPRO1509","31.262","0.4379","5"],
    [22653,"HCEP03730566","2024-05-21 07:30:00","9.3694","3.2028","25.109","4.727","7.52","0.626","3.87","0.09","0.19","29.3724","4.65937","49.83","0","SATNPRO1509","31.282","0.43814","5"],
    [22654,"HCEP03730566","2024-05-21 07:45:00","9.3709","3.2024","25.005","4.77","7.52","0.674","3.758","0.11","0.3","29.3673","4.6586","50.28","0","SATNPRO1509","31.44","0.44038","5"],
    [22655,"HCEP03730566","2024-05-21 08:00:00","9.3711","3.20235","24.77","4.803","7.52","0.697","4.264","0.11","0.59","29.3666","4.65849","50.63","0","SATNPRO1509","31.57","0.4422","5"],
    [22656,"HCEP03730566","2024-05-21 08:15:00","9.3708","3.20232","24.674","4.809","7.52","0.689","4.184","0.08","0.24","29.3666","4.65849","50.69","0","SATNPRO1509","31.572","0.44222","5"],
    [22657,"HCEP03730566","2024-05-21 08:30:00","9.3712","3.20224","24.579","4.823","7.52","0.681","4.066","0.08","0.37","29.3655","4.65832","50.84","0","SATNPRO1509","31.496","0.44114","5"],
    [22658,"HCEP03730566","2024-05-21 08:45:00","9.3713","3.20213","24.441","4.844","7.52","0.664","3.534","0.09","0.33","29.3643","4.65814","51.06","0","SATNPRO1509","31.738","0.44454","5"],
    [22659,"HCEP03730566","2024-05-21 09:00:00","9.3695","3.20229","24.396","4.886","7.53","0.658","3.43","0.09","0.41","29.3675","4.65863","51.51","0","SATNPRO1509","31.786","0.44518","5"],
    [22660,"HCEP03730566","2024-05-21 09:15:00","9.3695","3.20243","24.389","4.884","7.53","0.671","3.642","0.08","0.47","29.3689","4.65883","51.48","0","SATNPRO1509","31.78","0.4451","5"],
    [22661,"HCEP03730566","2024-05-21 09:30:00","9.369","3.20262","24.406","4.883","7.53","0.719","4.239","0.08","0.42","29.3711","4.65916","51.47","0","SATNPRO1509","31.554","0.44198","5"],
    [22662,"HCEP03730566","2024-05-21 09:45:00","9.3698","3.20225","24.484","4.889","7.53","0.672","3.426","0.15","0.52","29.3668","4.65853","51.53","0","SATNPRO1509","31.727999999999998","0.4444","5"],
    [22663,"HCEP03730566","2024-05-21 10:00:00","9.3685","3.20266","24.472","4.887","7.53","0.628","3.962","0.06","0.3","29.372","4.6593","51.51","0","SATNPRO1509","31.614","0.44282","5"],
    [22664,"HCEP03730566","2024-05-21 10:15:00","9.3698","3.2026","24.577","4.835","7.53","0.695","4.421","0.08","0.59","29.3703","4.65903","50.97","0","SATNPRO1509","31.538","0.44176","5"],
    [22665,"HCEP03730566","2024-05-21 10:30:00","9.3696","3.20264","24.645","4.807","7.53","0.629","4.382","0.05","0.58","29.3708","4.65912","50.67","0","SATNPRO1509","31.596","0.44254","5"],
    [22666,"HCEP03730566","2024-05-21 10:45:00","9.3695","3.20275","24.7","4.801","7.53","0.65","3.812","0.13","0.14","29.372","4.65929","50.61","0","SATNPRO1509","31.413999999999998","0.44","5"],
    [22667,"HCEP03730566","2024-05-21 11:00:00","9.3699","3.20266","24.869","4.78","7.52","0.624","3.334","0.07","0.16","29.3707","4.65911","50.39","0","SATNPRO1509","31.618","0.44286","5"],
    [22668,"HCEP03730566","2024-05-21 11:15:00","9.3684","3.2029","24.967","4.777","7.52","0.594","3.204","0.09","0.1","29.3743","4.65966","50.36","0","SATNPRO1509","31.462","0.4407","5"],
    [22669,"HCEP03730566","2024-05-21 11:30:00","9.3679","3.203","25.127","4.8","7.52","0.585","3.297","0.06","0.14","29.3758","4.65988","50.6","0","SATNPRO1509","31.53","0.44166","5"],
    [22670,"HCEP03730566","2024-05-21 11:45:00","9.3699","3.203","25.248","4.777","7.52","0.681","4.262","0.08","0.12","29.3741","4.65961","50.36","0","SATNPRO1509","31.172","0.4366","5"],
    [22671,"HCEP03730566","2024-05-21 12:00:00","9.3692","3.20286","25.463","4.765","7.52","0.641","3.786","0.07","0.1","29.3731","4.65949","50.23","0","SATNPRO1509","31.576","0.44226","5"],
    [22672,"HCEP03730566","2024-05-21 12:15:00","9.3693","3.20285","25.548","4.794","7.52","0.614","3.478","0.06","0.09","29.3729","4.65947","50.53","0","SATNPRO1509","31.528","0.44162","5"],
    [22673,"HCEP03730566","2024-05-21 12:30:00","9.3678","3.20296","25.659","4.803","7.53","0.566","2.799","0.07","0.07","29.3751","4.65982","50.63","0","SATNPRO1509","31.512","0.44134","5"],
    [22674,"HCEP03730566","2024-05-21 12:45:00","9.368","3.20336","25.771","4.761","7.53","0.641","3.817","0.05","0.27","29.379","4.66039","50.19","0","SATNPRO1509","31.478","0.4409","5"],
    [22675,"HCEP03730566","2024-05-21 13:00:00","9.369","3.2035","25.953","4.706","7.52","0.689","4.025","0.06","0.2","29.3795","4.66045","49.61","0","SATNPRO1509","31.26","0.43786","5"],
    [22676,"HCEP03730566","2024-05-21 13:15:00","9.3706","3.20339","26.153","4.696","7.52","0.709","4.07","0.06","0.17","29.377","4.66007","49.5","0","SATNPRO1509","31.324","0.43874","5"],
    [22677,"HCEP03730566","2024-05-21 13:30:00","9.3741","3.20248","26.318","4.797","7.52","0.77","3.364","0.11","0.24","29.3648","4.65827","50.57","0","SATNPRO1509","31.674","0.44364","5"],
    [22678,"HCEP03730566","2024-05-21 13:45:00","9.3748","3.20267","26.495","4.804","7.53","0.764","3.479","0.08","0.17","29.3661","4.65846","50.64","0","SATNPRO1509","31.538","0.44172","5"],
    [22679,"HCEP03730566","2024-05-21 14:00:00","9.3835","3.20247","26.627","4.809","7.53","0.876","3.834","0.29","0.2","29.3569","4.65699","50.7","0","SATNPRO1509","31.618000000000002","0.44286","5"],
    [22680,"HCEP03730566","2024-05-21 14:15:00","9.3902","3.20232","26.772","4.844","7.53","1.058","3.818","0.22","0.18","29.3499","4.65587","51.08","0","SATNPRO1509","31.606","0.44268","5"],
    [22681,"HCEP03730566","2024-05-21 14:30:00","9.4048","3.20227","26.917","4.821","7.53","1.295","4.338","0.13","0.28","29.3373","4.65381","50.85","0","SATNPRO1509","31.194","0.43696","5"],
    [22682,"HCEP03730566","2024-05-21 14:45:00","9.3979","3.20262","27.022","4.795","7.53","1.272","4.493","0.21","0.12","29.3465","4.65526","50.57","0","SATNPRO1509","31.478","0.44092","5"],
    [22683,"HCEP03730566","2024-05-21 15:00:00","9.4256","3.20428","27.171","4.874","7.53","1.517","4.382","0.22","0.24","29.3406","4.65393","51.43","0","SATNPRO1509","31.348","0.43908","5"],
    [22684,"HCEP03730566","2024-05-21 15:15:00","9.4536","3.20608","27.258","4.982","7.53","1.854","4.435","0.25","0.14","29.3358","4.65275","52.6","0","SATNPRO1509","31.146","0.43626","5"],
    [22685,"HCEP03730566","2024-05-21 15:30:00","9.4667","3.20694","27.31","4.996","7.53","1.954","4.452","0.21","0.12","29.3338","4.65222","52.76","0","SATNPRO1509","31.146","0.43624","5"],
    [22686,"HCEP03730566","2024-05-21 15:45:00","9.4736","3.20808","27.316","4.92","7.53","1.997","4.54","0.28","0.27","29.3397","4.65296","51.97","0","SATNPRO1509","31.24","0.43758","5"],
    [22687,"HCEP03730566","2024-05-21 16:00:00","9.4757","3.20852","27.341","4.803","7.53","1.872","4.869","0.25","0.19","29.3424","4.6533","50.74","0","SATNPRO1509","31.29","0.43828","5"],
    [22688,"HCEP03730566","2024-05-21 16:15:00","9.4692","3.20803","27.33","4.753","7.52","1.604","5.02","0.21","0.21","29.3428","4.65348","50.2","0","SATNPRO1509","31.2","0.43696","5"],
    [22689,"HCEP03730566","2024-05-21 16:30:00","9.4734","3.20796","27.333","4.781","7.52","1.582","5.222","0.14","0.25","29.3387","4.65281","50.5","0","SATNPRO1509","31.26","0.4379","5"],
    [22690,"HCEP03730566","2024-05-21 16:45:00","9.4816","3.2081","27.363","4.876","7.52","1.55","5.481","0.17","0.24","29.3333","4.6519","51.51","0","SATNPRO1509","31.264","0.4379","5"],
    [22691,"HCEP03730566","2024-05-21 17:00:00","9.4825","3.20795","27.325","4.936","7.52","1.509","5.872","0.16","0.23","29.3311","4.65156","52.15","0","SATNPRO1509","31.108","0.43572","5"],
    [22692,"HCEP03730566","2024-05-21 17:15:00","9.4819","3.20786","27.329","4.943","7.52","1.24","5.466","0.11","0.29","29.3307","4.65151","52.23","0","SATNPRO1509","31.116","0.43582","5"],
    [22693,"HCEP03730566","2024-05-21 17:30:00","9.481","3.20777","27.328","4.918","7.52","1.033","5.578","0.09","0.23","29.3305","4.6515","51.96","0","SATNPRO1509","31.07","0.43516","5"],
    [22694,"HCEP03730566","2024-05-21 17:45:00","9.4775","3.20793","27.179","4.884","7.52","0.945","6.307","0.08","0.52","29.335","4.65221","51.59","0","SATNPRO1509","31.102","0.43562","5"],
    [22695,"HCEP03730566","2024-05-21 18:00:00","9.4845","3.2083","27.111","4.87","7.52","0.7","5.571","0.04","0.35","29.3331","4.6518","51.45","0","SATNPRO1509","31.144","0.43624","5"],
    [22696,"HCEP03730566","2024-05-21 18:15:00","9.4943","3.20894","27.049","4.883","7.52","0.559","5.683","0.02","0.24","29.3316","4.6514","51.61","0","SATNPRO1509","30.908","0.43292","5"],
    [22697,"HCEP03730566","2024-05-21 18:30:00","9.5126","3.21015","26.997","4.892","7.52","0.44","7.139","0.02","0.91","29.3289","4.65069","51.72","0","SATNPRO1509","30.892","0.43268","5"],
    [22698,"HCEP03730566","2024-05-21 18:45:00","9.5158","3.21037","26.976","4.875","7.52","0.421","29.911","0.04","16.15","29.3285","4.65057","51.54","0","SATNPRO1509","30.688","0.4298","5"],
    [22699,"HCEP03730566","2024-05-21 19:00:00","9.5128","3.21012","26.981","4.821","7.51","0.308","53.576","0.04","39.81","29.3284","4.65062","50.96","0","SATNPRO1509","30.658","0.42946","5"],
    [22700,"HCEP03730566","2024-05-21 19:15:00","9.516","3.21019","26.924","4.792","7.51","0.359","421.967","0.03","132.85","29.3266","4.6503","50.66","0","SATNPRO1509","30.524","0.42752","5"],
    [22701,"HCEP03730566","2024-05-21 19:30:00","9.5273","3.21059","26.927","4.792","7.51","0.243","49.362","0.02","0.39","29.3214","4.64935","50.67","0","SATNPRO1509","30.428","0.42622","5"],
    [22702,"HCEP03730566","2024-05-21 19:45:00","9.5358","3.21088","26.908","4.798","7.51","0.523","226.478","0.26","79.66","29.3174","4.64864","50.75","0","SATNPRO1509","30.258","0.42384","5"],
    [22703,"HCEP03730566","2024-05-21 20:00:00","9.5367","3.21085","26.788","4.802","7.51","0.469","168.111","0.1","41.03","29.3163","4.64845","50.79","0","SATNPRO1509","30.07","0.42118","5"],
    [22704,"HCEP03730566","2024-05-21 20:15:00","9.5276","3.21033","26.749","4.795","7.51","0.569","199.61","0.07","0.49","29.3185","4.64893","50.7","0","SATNPRO1509","30.24","0.4236","5"],
    [22705,"HCEP03730566","2024-05-21 20:30:00","9.5164","3.20958","26.711","4.77","7.51","0.662","268.569","0.08","0.55","29.3201","4.64935","50.43","0","SATNPRO1509","30.198","0.42298","5"],
    [22706,"HCEP03730566","2024-05-21 20:45:00","9.5032","3.20884","26.632","4.753","7.51","0.841","314.183","0.11","0.69","29.3235","4.65007","50.23","0","SATNPRO1509","30.356","0.42518","5"],
    [22707,"HCEP03730566","2024-05-21 21:00:00","9.5047","3.20874","26.567","4.738","7.51","0.986","331.711","0.13","0.63","29.3213","4.64972","50.08","0","SATNPRO1509","30.22","0.42328","5"],
    [22708,"HCEP03730566","2024-05-21 21:15:00","9.5242","3.20932","26.513","4.776","7.51","1.311","322.997","0.16","0.66","29.3112","4.64793","50.49","0","SATNPRO1509","29.766000000000002","0.41692","5"],
    [22709,"HCEP03730566","2024-05-21 21:30:00","9.5457","3.2097","26.489","4.837","7.51","1.388","291.931","0.24","0.53","29.2976","4.64559","51.16","0","SATNPRO1509","30.014","0.4204","5"],
    [22710,"HCEP03730566","2024-05-21 21:45:00","9.5529","3.20747","26.475","4.938","7.52","1.459","247.765","0.19","0.4","29.2692","4.64139","52.23","0","SATNPRO1509","29.986","0.42002","5"],
    [22711,"HCEP03730566","2024-05-21 22:00:00","9.5432","3.20305","26.421","5.037","7.52","1.467","196.409","0.19","0.19","29.2324","4.6363","53.25","0","SATNPRO1509","30.028","0.42062","5"],
    [22712,"HCEP03730566","2024-05-21 22:15:00","9.5368","3.20371","26.421","5.066","7.53","1.348","136.303","0.1","0.08","29.2443","4.6381","53.56","0","SATNPRO1509","30.242","0.42362","5"],
    [22713,"HCEP03730566","2024-05-21 22:30:00","9.5271","3.20589","26.382","5.018","7.53","1.253","55.743","0.1","0.05","29.2742","4.64257","53.05","0","SATNPRO1509","30.268","0.42396","5"],
    [22714,"HCEP03730566","2024-05-21 22:45:00","9.5194","3.20718","26.367","4.92","7.53","1.126","23.526","0.08","0.04","29.2936","4.64548","52.01","0","SATNPRO1509","30.14","0.42214","5"],
    [22715,"HCEP03730566","2024-05-21 23:00:00","9.5111","3.20631","26.455","4.852","7.52","1.036","10.261","0.1","0.01","29.2914","4.64532","51.28","0","SATNPRO1509","30.426","0.42616","5"],
    [22716,"HCEP03730566","2024-05-21 23:15:00","9.5017","3.2032","26.416","4.89","7.52","0.941","2.497","0.07","0.01","29.2678","4.64209","51.66","0","SATNPRO1509","30.509999999999998","0.42736","5"],
    [22717,"HCEP03730566","2024-05-21 23:30:00","9.4919","3.20475","26.571","4.872","7.52","0.815","0.485","0.06","0.01","29.2914","4.64566","51.47","0","SATNPRO1509","30.414","0.42606","5"],
    [22718,"HCEP03730566","2024-05-21 23:45:00","9.491","3.20588","26.609","4.816","7.52","0.709","0.395","0.05","0.01","29.3036","4.64742","50.88","0","SATNPRO1509","30.57","0.42818","5"],
    [22719,"HCEP03730566","2024-05-22 00:00:00","9.4937","3.20605","26.795","4.835","7.52","0.607","0.406","0.04","0.02","29.303","4.6473","51.08","0","SATNPRO1509","30.63","0.42904","5"],
    [22720,"HCEP03730566","2024-05-22 00:15:00","9.4967","3.20504","26.796","4.879","7.52","0.535","0.515","0.04","0.06","29.2902","4.64542","51.55","0","SATNPRO1509","30.75","0.43072","5"],
    [22721,"HCEP03730566","2024-05-22 00:30:00","9.4883","3.20375","26.763","4.996","7.53","0.366","0.377","0.02","0.03","29.2841","4.64469","52.77","0","SATNPRO1509","30.98","0.43394","5"],
    [22722,"HCEP03730566","2024-05-22 00:45:00","9.4755","3.20383","26.863","4.986","7.53","0.344","0.659","0.03","0.03","29.2953","4.64653","52.66","0","SATNPRO1509","31.162","0.43644","5"],
    [22723,"HCEP03730566","2024-05-22 01:00:00","9.4594","3.2038","26.923","4.957","7.53","0.305","0.66","0.02","0.02","29.3081","4.64865","52.34","0","SATNPRO1509","31.192","0.43692","5"],
    [22724,"HCEP03730566","2024-05-22 01:15:00","9.4479","3.20347","27.007","4.943","7.53","0.309","0.826","0.03","0.07","29.3142","4.64973","52.18","0","SATNPRO1509","31.308","0.4385","5"],
    [22725,"HCEP03730566","2024-05-22 01:30:00","9.443","3.20374","27.124","4.928","7.53","0.32","0.941","0.04","0.06","29.3209","4.65078","52.01","0","SATNPRO1509","31.32","0.43872","5"],
    [22726,"HCEP03730566","2024-05-22 01:45:00","9.4383","3.20353","27.225","4.933","7.53","0.344","0.986","0.06","0.07","29.3226","4.65112","52.06","0","SATNPRO1509","31.48","0.44094","5"],
    [22727,"HCEP03730566","2024-05-22 02:00:00","9.436","3.20382","27.267","4.925","7.53","0.414","1.158","0.09","0.17","29.3273","4.65184","51.98","0","SATNPRO1509","31.53","0.44164","5"],
    [22728,"HCEP03730566","2024-05-22 02:15:00","9.4377","3.20442","27.329","4.901","7.53","0.46","1.012","0.07","0.1","29.332","4.65249","51.73","0","SATNPRO1509","31.552","0.4419","5"],
    [22729,"HCEP03730566","2024-05-22 02:30:00","9.4321","3.20374","27.392","4.909","7.53","0.476","1.161","0.08","0.08","29.3297","4.65226","51.8","0","SATNPRO1509","31.578","0.44232","5"],
    [22730,"HCEP03730566","2024-05-22 02:45:00","9.4252","3.2031","27.423","4.921","7.53","0.504","1.287","0.1","0.18","29.3288","4.65226","51.92","0","SATNPRO1509","31.688","0.44386","5"],
    [22731,"HCEP03730566","2024-05-22 03:00:00","9.4188","3.20255","27.491","4.924","7.53","0.569","1.385","0.09","0.1","29.3285","4.65233","51.95","0","SATNPRO1509","31.836","0.4459","5"],
    [22732,"HCEP03730566","2024-05-22 03:15:00","9.396","3.20103","27.492","4.968","7.54","0.536","2.007","0.08","0.19","29.3317","4.6532","52.39","0","SATNPRO1509","32.132","0.45004","5"],
    [22733,"HCEP03730566","2024-05-22 03:30:00","9.3945","3.20108","27.499","4.994","7.54","0.595","1.87","0.08","0.12","29.3334","4.65348","52.66","0","SATNPRO1509","32.16","0.45044","5"],
    [22734,"HCEP03730566","2024-05-22 03:45:00","9.3928","3.20068","27.489","5.054","7.55","0.636","2.057","0.06","0.11","29.3308","4.65313","53.29","0","SATNPRO1509","32.37","0.45338","5"],
    [22735,"HCEP03730566","2024-05-22 04:00:00","9.392","3.20039","27.441","5.097","7.55","0.735","2.067","0.15","0.14","29.3285","4.65281","53.74","0","SATNPRO1509","32.414","0.45404","5"],
    [22736,"HCEP03730566","2024-05-22 04:15:00","9.3952","3.20016","27.407","5.109","7.55","0.842","2.349","0.11","0.17","29.3236","4.65205","53.87","0","SATNPRO1509","32.438","0.45438","5"],
    [22737,"HCEP03730566","2024-05-22 04:30:00","9.4014","3.1998","27.336","5.095","7.56","1.03","2.617","0.13","0.16","29.3149","4.65068","53.73","0","SATNPRO1509","32.412","0.45398","5"],
    [22738,"HCEP03730566","2024-05-22 04:45:00","9.4106","3.19931","27.243","5.091","7.56","1.094","2.921","0.16","0.27","29.3025","4.64874","53.69","0","SATNPRO1509","32.262","0.45192","5"],
    [22739,"HCEP03730566","2024-05-22 05:00:00","9.42","3.19902","27.133","5.104","7.56","1.319","2.994","0.27","0.21","29.2919","4.64704","53.84","0","SATNPRO1509","32.344","0.45302","5"],
    [22740,"HCEP03730566","2024-05-22 05:15:00","9.4221","3.19899","27.005","5.114","7.55","1.4","3.114","0.26","0.28","29.2899","4.64672","53.94","0","SATNPRO1509","32.206","0.45108","5"],
    [22741,"HCEP03730566","2024-05-22 05:30:00","9.4206","3.19902","26.846","5.113","7.55","1.531","3.13","0.45","0.53","29.2915","4.64695","53.93","0","SATNPRO1509","32.302","0.45246","5"],
    [22742,"HCEP03730566","2024-05-22 05:45:00","9.4157","3.19917","26.697","5.103","7.55","1.354","3.187","0.23","0.36","29.297","4.64783","53.82","0","SATNPRO1509","32.3","0.45238","5"],
    [22743,"HCEP03730566","2024-05-22 06:00:00","9.4133","3.19931","26.5","5.075","7.55","1.708","3.86","0.48","0.38","29.3006","4.64837","53.52","0","SATNPRO1509","32.372","0.45344","5"],
    [22744,"HCEP03730566","2024-05-22 06:15:00","9.4128","3.19934","26.314","5.054","7.55","1.558","3.74","0.25","0.36","29.3014","4.64848","53.3","0","SATNPRO1509","32.13","0.45002","5"],
    [22745,"HCEP03730566","2024-05-22 06:30:00","9.4097","3.19942","26.131","5.054","7.55","1.34","3.33","0.28","0.51","29.3047","4.649","53.3","0","SATNPRO1509","32.342","0.45298","5"],
    [22746,"HCEP03730566","2024-05-22 06:45:00","9.4067","3.19965","25.989","5.054","7.55","1.805","3.36","0.79","0.39","29.3095","4.64974","53.3","0","SATNPRO1509","32.402","0.45386","5"],
    [22747,"HCEP03730566","2024-05-22 07:00:00","9.4046","3.19981","25.726","5.044","7.55","1.56","3.426","0.39","0.62","29.3131","4.65027","53.19","0","SATNPRO1509","32.364","0.45332","5"],
    [22748,"HCEP03730566","2024-05-22 07:15:00","9.4031","3.19996","25.475","5.046","7.55","1.361","3.279","0.3","0.34","29.3159","4.65069","53.21","0","SATNPRO1509","32.322","0.45274","5"],
    [22749,"HCEP03730566","2024-05-22 07:30:00","9.4021","3.20003","25.252","5.031","7.55","1.65","3.326","0.52","0.38","29.3175","4.65093","53.06","0","SATNPRO1509","32.43","0.45424","5"],
    [22750,"HCEP03730566","2024-05-22 07:45:00","9.4021","3.20011","25.071","5.032","7.55","1.515","3.302","0.28","0.27","29.3184","4.65104","53.06","0","SATNPRO1509","32.326","0.45278","5"],
    [22751,"HCEP03730566","2024-05-22 08:00:00","9.4022","3.20019","24.852","5.036","7.55","1.2","2.601","0.29","0.16","29.3192","4.65115","53.11","0","SATNPRO1509","32.334","0.45288","5"],
    [22752,"HCEP03730566","2024-05-22 08:15:00","9.4063","3.19998","24.633","5.019","7.55","1.53","3.537","0.41","0.5","29.3138","4.65028","52.93","0","SATNPRO1509","32.252","0.45174","5"],
    [22753,"HCEP03730566","2024-05-22 08:30:00","9.405","3.20024","24.463","4.989","7.54","1.583","3.054","0.35","0.18","29.3176","4.65085","52.61","0","SATNPRO1509","32.24","0.4516","5"],
    [22754,"HCEP03730566","2024-05-22 08:45:00","9.4059","3.20043","24.311","5.006","7.54","1.409","2.832","0.33","0.22","29.3188","4.65099","52.79","0","SATNPRO1509","32.206","0.45108","5"],
    [22755,"HCEP03730566","2024-05-22 09:00:00","9.4086","3.20094","24.241","5.019","7.55","1.424","2.835","0.3","0.24","29.3217","4.65136","52.94","0","SATNPRO1509","32.147999999999996","0.45032","5"],
    [22756,"HCEP03730566","2024-05-22 09:15:00","9.4067","3.20077","24.176","4.998","7.54","1.454","3.103","0.34","0.31","29.3217","4.65138","52.72","0","SATNPRO1509","32.562","0.45608","5"],
    [22757,"HCEP03730566","2024-05-22 09:30:00","9.4041","3.20065","24.127","4.978","7.54","1.468","3.026","0.35","0.25","29.3226","4.65156","52.5","0","SATNPRO1509","32.142","0.45022","5"],
    [22758,"HCEP03730566","2024-05-22 09:45:00","9.4022","3.20089","24.099","4.965","7.54","1.632","3.683","0.32","0.23","29.3266","4.65216","52.36","0","SATNPRO1509","31.566","0.44214","5"],
    [22759,"HCEP03730566","2024-05-22 10:00:00","9.4001","3.20106","24.103","4.949","7.54","1.41","3.768","0.34","0.28","29.33","4.65269","52.19","0","SATNPRO1509","31.970000000000002","0.4478","5"],
    [22760,"HCEP03730566","2024-05-22 10:15:00","9.4013","3.20114","24.13","4.94","7.54","1.431","3.097","0.31","0.22","29.3298","4.65264","52.1","0","SATNPRO1509","32.02","0.44846","5"],
    [22761,"HCEP03730566","2024-05-22 10:30:00","9.4012","3.20119","24.179","4.952","7.54","1.306","3.108","0.27","0.48","29.3304","4.65273","52.22","0","SATNPRO1509","32.108","0.44972","5"],
    [22762,"HCEP03730566","2024-05-22 10:45:00","9.4003","3.20116","24.282","4.951","7.54","1.431","2.998","0.4","0.2","29.3308","4.65281","52.22","0","SATNPRO1509","32.102000000000004","0.44964","5"],
    [22763,"HCEP03730566","2024-05-22 11:00:00","9.4012","3.20116","24.359","4.926","7.54","1.609","3.102","0.34","0.15","29.3301","4.6527","51.95","0","SATNPRO1509","32.012","0.44834","5"],
    [22764,"HCEP03730566","2024-05-22 11:15:00","9.4017","3.20118","24.49","4.911","7.54","1.492","3.581","0.39","0.6","29.3298","4.65264","51.79","0","SATNPRO1509","32.018","0.4485","5"],
    [22765,"HCEP03730566","2024-05-22 11:30:00","9.3999","3.20118","24.609","4.925","7.54","1.438","2.986","0.25","0.14","29.3312","4.6529","51.94","0","SATNPRO1509","32.2","0.45096","5"],
    [22766,"HCEP03730566","2024-05-22 11:45:00","9.4003","3.2011","24.719","4.958","7.54","1.425","3.105","0.28","0.18","29.33","4.65272","52.28","0","SATNPRO1509","32.234","0.45148","5"],
    [22767,"HCEP03730566","2024-05-22 12:00:00","9.4016","3.20116","24.866","4.889","7.54","1.582","4.053","0.2","0.22","29.3294","4.65262","51.56","0","SATNPRO1509","32.098","0.44958","5"],
    [22768,"HCEP03730566","2024-05-22 12:15:00","9.4049","3.20149","24.998","4.92","7.54","1.603","3.955","0.16","0.17","29.3301","4.65266","51.89","0","SATNPRO1509","31.956","0.44762","5"],
    [22769,"HCEP03730566","2024-05-22 12:30:00","9.4102","3.20204","25.166","4.898","7.54","1.641","3.65","0.24","0.13","29.3313","4.65275","51.66","0","SATNPRO1509","31.942","0.44738","5"],
    [22770,"HCEP03730566","2024-05-22 12:45:00","9.4169","3.20258","25.32","4.879","7.53","1.794","3.603","0.28","0.28","29.3312","4.65263","51.47","0","SATNPRO1509","31.782","0.44514","5"],
    [22771,"HCEP03730566","2024-05-22 13:00:00","9.4257","3.2031","25.51","4.833","7.53","1.909","4.327","0.17","0.19","29.3292","4.65219","50.99","0","SATNPRO1509","31.662","0.4435","5"],
    [22772,"HCEP03730566","2024-05-22 13:15:00","9.4352","3.20366","25.685","4.807","7.53","2.057","4.454","0.28","0.28","29.3269","4.65171","50.73","0","SATNPRO1509","31.576","0.44228","5"],
    [22773,"HCEP03730566","2024-05-22 13:30:00","9.4407","3.20405","25.868","4.82","7.53","2.075","4.19","0.18","0.3","29.3264","4.65154","50.87","0","SATNPRO1509","31.514","0.44138","5"],
    [22774,"HCEP03730566","2024-05-22 13:45:00","9.4543","3.20505","26.066","4.822","7.53","1.967","3.978","0.2","0.16","29.3253","4.65116","50.9","0","SATNPRO1509","31.419999999999998","0.44012","5"],
    [22775,"HCEP03730566","2024-05-22 14:00:00","9.4615","3.2057","26.226","4.822","7.53","2.111","4.282","0.21","0.22","29.3259","4.65113","50.92","0","SATNPRO1509","31.356","0.43916","5"],
    [22776,"HCEP03730566","2024-05-22 14:15:00","9.4697","3.20619","26.45","4.813","7.52","1.977","4.234","0.17","0.15","29.3242","4.65074","50.84","0","SATNPRO1509","31.26","0.43782","5"],
    [22777,"HCEP03730566","2024-05-22 14:30:00","9.4772","3.20673","26.625","4.813","7.52","1.939","3.918","0.18","0.16","29.3234","4.65051","50.84","0","SATNPRO1509","31.148","0.43628","5"],
    [22778,"HCEP03730566","2024-05-22 14:45:00","9.4839","3.20714","26.779","4.814","7.52","1.855","3.594","0.23","0.17","29.322","4.65021","50.86","0","SATNPRO1509","31.08","0.4353","5"],
    [22779,"HCEP03730566","2024-05-22 15:00:00","9.4872","3.20741","26.941","4.81","7.52","1.859","3.688","0.17","0.18","29.322","4.65015","50.82","0","SATNPRO1509","31.068","0.43518","5"],
    [22780,"HCEP03730566","2024-05-22 15:15:00","9.4886","3.20753","27.06","4.8","7.52","1.838","4.017","0.14","0.13","29.322","4.65014","50.72","0","SATNPRO1509","31.038","0.43478","5"],
    [22781,"HCEP03730566","2024-05-22 15:30:00","9.4918","3.2078","27.192","4.788","7.52","2.029","4.055","0.32","0.25","29.3221","4.6501","50.59","0","SATNPRO1509","30.954","0.43358","5"],
    [22782,"HCEP03730566","2024-05-22 15:45:00","9.4928","3.20789","27.348","4.779","7.52","1.945","4.031","0.22","0.27","29.322","4.65008","50.5","0","SATNPRO1509","30.998","0.4342","5"],
    [22783,"HCEP03730566","2024-05-22 16:00:00","9.4926","3.2078","27.44","4.771","7.51","2.129","3.907","0.36","0.24","29.3213","4.64998","50.42","0","SATNPRO1509","30.958000000000002","0.43366","5"],
    [22784,"HCEP03730566","2024-05-22 16:15:00","9.4935","3.2078","27.506","4.766","7.51","2.002","3.787","0.4","0.45","29.3205","4.64986","50.36","0","SATNPRO1509","31.247999999999998","0.43766","5"],
    [22785,"HCEP03730566","2024-05-22 16:30:00","9.4945","3.20781","27.557","4.765","7.51","2.078","3.859","0.52","0.38","29.3198","4.64974","50.35","0","SATNPRO1509","30.858","0.43222","5"],
    [22786,"HCEP03730566","2024-05-22 16:45:00","9.4957","3.20784","27.593","4.773","7.51","2.14","4.864","0.56","0.46","29.3191","4.64962","50.43","0","SATNPRO1509","30.822","0.43168","5"],
    [22787,"HCEP03730566","2024-05-22 17:00:00","9.4969","3.20786","27.616","4.781","7.51","1.934","6.554","0.21","0.49","29.3183","4.64949","50.53","0","SATNPRO1509","30.926","0.4332","5"],
    [22788,"HCEP03730566","2024-05-22 17:15:00","9.4976","3.20795","27.606","4.789","7.51","1.943","10.654","0.31","0.39","29.3187","4.64953","50.61","0","SATNPRO1509","30.864","0.43232","5"],
    [22789,"HCEP03730566","2024-05-22 17:30:00","9.4978","3.20799","27.602","4.787","7.51","2.095","21.905","0.4","0.64","29.3189","4.64955","50.59","0","SATNPRO1509","31.256","0.4378","5"],
    [22790,"HCEP03730566","2024-05-22 17:45:00","9.4986","3.20802","27.599","4.792","7.51","1.989","33.053","0.28","0.59","29.3186","4.6495","50.64","0","SATNPRO1509","30.946","0.43344","5"],
    [22791,"HCEP03730566","2024-05-22 18:00:00","9.4991","3.20805","27.575","4.805","7.52","1.978","49.449","0.4","0.32","29.3185","4.64947","50.78","0","SATNPRO1509","30.96","0.43364","5"],
    [22792,"HCEP03730566","2024-05-22 18:15:00","9.5005","3.2081","27.548","4.812","7.52","1.915","50.329","0.29","0.86","29.3179","4.64936","50.85","0","SATNPRO1509","31.014","0.4344","5"],
    [22793,"HCEP03730566","2024-05-22 18:30:00","9.501","3.20815","27.507","4.818","7.52","2.041","50.12","0.32","0.3","29.3179","4.64935","50.92","0","SATNPRO1509","31.048000000000002","0.43484","5"],
    [22794,"HCEP03730566","2024-05-22 18:45:00","9.5028","3.20818","27.448","4.827","7.52","2.022","43.872","0.34","0.13","29.3168","4.64916","51.01","0","SATNPRO1509","31.214","0.43722","5"],
    [22795,"HCEP03730566","2024-05-22 19:00:00","9.501","3.20816","27.398","4.83","7.52","1.81","45.43","0.28","0.34","29.318","4.64936","51.05","0","SATNPRO1509","31.056","0.43502","5"],
    [22796,"HCEP03730566","2024-05-22 19:15:00","9.5031","3.20818","27.342","4.831","7.52","1.97","44.681","0.33","0.33","29.3166","4.64912","51.06","0","SATNPRO1509","31.134","0.4361","5"],
    [22797,"HCEP03730566","2024-05-22 19:30:00","9.5034","3.20816","27.267","4.857","7.52","1.876","42.575","0.36","0.29","29.3162","4.64905","51.33","0","SATNPRO1509","31.14","0.43618","5"],
    [22798,"HCEP03730566","2024-05-22 19:45:00","9.5022","3.20802","27.208","4.863","7.52","1.747","40.841","0.34","0.18","29.3157","4.649","51.39","0","SATNPRO1509","31.15","0.43632","5"],
    [22799,"HCEP03730566","2024-05-22 20:00:00","9.5026","3.20816","27.16","4.86","7.52","1.807","39.65","0.41","0.22","29.3169","4.64916","51.36","0","SATNPRO1509","31.08","0.43536","5"],
    [22800,"HCEP03730566","2024-05-22 20:15:00","9.503","3.20805","27.078","4.856","7.52","1.797","40.704","0.31","0.5","29.3155","4.64895","51.32","0","SATNPRO1509","31.1","0.4356","5"],
    [22801,"HCEP03730566","2024-05-22 20:30:00","9.5021","3.20819","26.969","4.851","7.52","1.895","41.246","0.3","0.33","29.3177","4.64928","51.27","0","SATNPRO1509","31.076","0.43526","5"],
    [22802,"HCEP03730566","2024-05-22 20:45:00","9.4961","3.20804","26.904","4.785","7.52","1.927","40.553","0.32","0.25","29.3211","4.64986","50.57","0","SATNPRO1509","30.764","0.43086","5"],
    [22803,"HCEP03730566","2024-05-22 21:00:00","9.4994","3.20818","26.782","4.698","7.51","1.922","43.276","0.22","0.13","29.3198","4.64961","49.64","0","SATNPRO1509","31.07","0.43522","5"],
    [22804,"HCEP03730566","2024-05-22 21:15:00","9.4983","3.20779","26.65","4.751","7.51","1.854","43.278","0.27","0.25","29.3168","4.6492","50.21","0","SATNPRO1509","31.03","0.43464","5"],
    [22805,"HCEP03730566","2024-05-22 21:30:00","9.4921","3.20785","26.602","4.714","7.51","1.96","42.434","0.26","0.33","29.3225","4.65012","49.81","0","SATNPRO1509","30.924","0.43314","5"],
    [22806,"HCEP03730566","2024-05-22 21:45:00","9.4914","3.20772","26.574","4.622","7.51","2.003","41.544","0.25","0.26","29.3219","4.65004","48.83","0","SATNPRO1509","30.706","0.43012","5"],
    [22807,"HCEP03730566","2024-05-22 22:00:00","9.4894","3.20752","26.503","4.653","7.51","2.017","40.491","0.26","0.21","29.3215","4.65001","49.16","0","SATNPRO1509","30.78","0.43108","5"],
    [22808,"HCEP03730566","2024-05-22 22:15:00","9.4869","3.20738","26.476","4.677","7.51","1.958","36.084","0.35","0.41","29.322","4.65013","49.41","0","SATNPRO1509","30.956","0.43358","5"],
    [22809,"HCEP03730566","2024-05-22 22:30:00","9.4856","3.20726","26.475","4.672","7.51","1.788","25.232","0.2","0.47","29.3219","4.65014","49.36","0","SATNPRO1509","31.014","0.43444","5"],
    [22810,"HCEP03730566","2024-05-22 22:45:00","9.4845","3.20716","26.481","4.705","7.51","1.809","16.056","0.23","0.21","29.3219","4.65016","49.7","0","SATNPRO1509","30.932","0.43326","5"],
    [22811,"HCEP03730566","2024-05-22 23:00:00","9.4829","3.2071","26.468","4.712","7.51","1.982","24.182","0.4","0.7","29.3226","4.65028","49.78","0","SATNPRO1509","31.026","0.43454","5"],
    [22812,"HCEP03730566","2024-05-22 23:15:00","9.48","3.2069","26.515","4.715","7.51","1.936","35.048","0.24","0.33","29.3229","4.65038","49.81","0","SATNPRO1509","31.056","0.43498","5"],
    [22813,"HCEP03730566","2024-05-22 23:30:00","9.4773","3.20675","26.538","4.719","7.51","1.757","38.075","0.28","0.21","29.3235","4.65051","49.85","0","SATNPRO1509","31.104","0.43564","5"],
    [22814,"HCEP03730566","2024-05-22 23:45:00","9.4738","3.20643","26.617","4.721","7.51","1.793","40.965","0.27","0.21","29.3231","4.65052","49.87","0","SATNPRO1509","31.206","0.4371","5"],
    [22815,"HCEP03730566","2024-05-23 00:00:00","9.4715","3.20615","26.647","4.737","7.51","1.731","43.934","0.19","0.2","29.3222","4.65044","50.03","0","SATNPRO1509","31.166","0.43654","5"],
    [22816,"HCEP03730566","2024-05-23 00:15:00","9.4691","3.206","26.794","4.736","7.51","1.65","46.987","0.16","0.17","29.3226","4.65055","50.02","0","SATNPRO1509","31.206","0.43708","5"],
    [22817,"HCEP03730566","2024-05-23 00:30:00","9.4668","3.2058","26.785","4.731","7.51","1.752","44.846","0.17","0.15","29.3223","4.65055","49.97","0","SATNPRO1509","31.28","0.43812","5"],
    [22818,"HCEP03730566","2024-05-23 00:45:00","9.4622","3.20541","26.896","4.749","7.51","1.666","36.344","0.21","0.21","29.3222","4.65062","50.14","0","SATNPRO1509","31.355999999999998","0.43918","5"],
    [22819,"HCEP03730566","2024-05-23 01:00:00","9.4582","3.2051","26.93","4.78","7.51","1.596","31.06","0.17","0.13","29.3223","4.65071","50.46","0","SATNPRO1509","31.472","0.44086","5"],
    [22820,"HCEP03730566","2024-05-23 01:15:00","9.4584","3.20514","26.959","4.788","7.52","1.686","29.228","0.24","0.13","29.3225","4.65074","50.56","0","SATNPRO1509","31.426","0.4402","5"],
    [22821,"HCEP03730566","2024-05-23 01:30:00","9.4593","3.20516","27.061","4.794","7.52","1.702","28.458","0.2","0.12","29.322","4.65065","50.61","0","SATNPRO1509","31.323999999999998","0.4387","5"],
    [22822,"HCEP03730566","2024-05-23 01:45:00","9.4595","3.20532","27.173","4.794","7.52","1.696","26.926","0.19","0.13","29.3233","4.65084","50.62","0","SATNPRO1509","31.462","0.4407","5"],
    [22823,"HCEP03730566","2024-05-23 02:00:00","9.459","3.2053","27.206","4.802","7.52","1.734","26.293","0.2","0.23","29.3236","4.6509","50.7","0","SATNPRO1509","31.438000000000002","0.44032","5"],
    [22824,"HCEP03730566","2024-05-23 02:15:00","9.4583","3.20528","27.253","4.818","7.52","1.616","25.597","0.21","0.08","29.3239","4.65096","50.87","0","SATNPRO1509","31.454","0.44056","5"],
    [22825,"HCEP03730566","2024-05-23 02:30:00","9.457","3.20518","27.395","4.834","7.52","1.655","26.949","0.19","0.09","29.3238","4.65098","51.04","0","SATNPRO1509","31.472","0.44082","5"],
    [22826,"HCEP03730566","2024-05-23 02:45:00","9.4557","3.2051","27.409","4.849","7.52","1.623","28.944","0.21","0.13","29.3242","4.65105","51.2","0","SATNPRO1509","31.38","0.43952","5"],
    [22827,"HCEP03730566","2024-05-23 03:00:00","9.4528","3.20498","27.452","4.862","7.52","1.522","26.971","0.16","0.13","29.3253","4.65127","51.33","0","SATNPRO1509","31.524","0.44156","5"],
    [22828,"HCEP03730566","2024-05-23 03:15:00","9.4485","3.20481","27.497","4.863","7.52","1.466","23.11","0.18","0.12","29.3271","4.6516","51.34","0","SATNPRO1509","31.536","0.44172","5"],
    [22829,"HCEP03730566","2024-05-23 03:30:00","9.4494","3.20485","27.496","4.868","7.53","1.434","17.787","0.11","0.13","29.3268","4.65154","51.39","0","SATNPRO1509","31.504","0.44124","5"],
    [22830,"HCEP03730566","2024-05-23 03:45:00","9.45","3.20476","27.512","4.886","7.53","1.537","13.413","0.15","0.12","29.3252","4.65131","51.58","0","SATNPRO1509","31.49","0.44104","5"],
    [22831,"HCEP03730566","2024-05-23 04:00:00","9.4486","3.20465","27.487","4.885","7.53","1.507","10.136","0.15","0.12","29.3254","4.65135","51.56","0","SATNPRO1509","31.488","0.44102","5"],
    [22832,"HCEP03730566","2024-05-23 04:15:00","9.4497","3.20463","27.472","4.924","7.53","1.575","7.849","0.19","0.14","29.3243","4.65117","51.99","0","SATNPRO1509","31.562","0.4421","5"],
    [22833,"HCEP03730566","2024-05-23 04:30:00","9.4517","3.20469","27.408","4.901","7.53","1.647","5.105","0.21","0.11","29.3233","4.651","51.74","0","SATNPRO1509","31.528","0.44156","5"],
    [22834,"HCEP03730566","2024-05-23 04:45:00","9.452","3.20473","27.36","4.871","7.53","1.624","4.367","0.2","0.15","29.3235","4.65101","51.42","0","SATNPRO1509","31.476","0.44086","5"],
    [22835,"HCEP03730566","2024-05-23 05:00:00","9.4512","3.20474","27.302","4.863","7.53","1.7","3.683","0.23","0.16","29.3242","4.65113","51.33","0","SATNPRO1509","31.484","0.44098","5"],
    [22836,"HCEP03730566","2024-05-23 05:15:00","9.4501","3.20474","27.212","4.853","7.53","1.628","3.754","0.18","0.17","29.3251","4.65128","51.23","0","SATNPRO1509","31.52","0.4415","5"],
    [22837,"HCEP03730566","2024-05-23 05:30:00","9.4491","3.20474","27.093","4.832","7.53","1.981","3.676","0.31","0.21","29.326","4.65142","51.01","0","SATNPRO1509","31.386","0.4396","5"],
    [22838,"HCEP03730566","2024-05-23 05:45:00","9.4462","3.20466","26.983","4.83","7.53","1.901","3.069","0.49","0.23","29.3276","4.65168","50.99","0","SATNPRO1509","31.522","0.4415","5"],
    [22839,"HCEP03730566","2024-05-23 06:00:00","9.444","3.2046","26.874","4.85","7.53","1.755","2.391","0.3","0.22","29.3289","4.6519","51.19","0","SATNPRO1509","31.582","0.44236","5"],
    [22840,"HCEP03730566","2024-05-23 06:15:00","9.4439","3.20449","26.718","4.879","7.53","1.969","3.011","0.39","0.32","29.3279","4.65176","51.5","0","SATNPRO1509","31.41","0.43996","5"],
    [22841,"HCEP03730566","2024-05-23 06:30:00","9.4462","3.20449","26.549","4.862","7.53","1.859","2.931","0.3","0.29","29.326","4.65144","51.32","0","SATNPRO1509","31.364","0.4393","5"],
    [22842,"HCEP03730566","2024-05-23 06:45:00","9.4457","3.20447","26.369","4.883","7.53","1.909","2.635","0.49","0.45","29.3263","4.65147","51.55","0","SATNPRO1509","31.612","0.44278","5"],
    [22843,"HCEP03730566","2024-05-23 07:00:00","9.4397","3.20406","26.174","4.919","7.53","1.739","2.261","0.31","0.44","29.3272","4.65169","51.91","0","SATNPRO1509","31.768","0.44496","5"],
    [22844,"HCEP03730566","2024-05-23 07:15:00","9.446","3.20449","25.956","4.94","7.53","2.065","3.281","0.21","0.4","29.3266","4.65148","52.15","0","SATNPRO1509","31.5","0.44118","5"],
    [22845,"HCEP03730566","2024-05-23 07:30:00","9.445","3.20451","25.729","4.898","7.53","2.251","2.969","0.53","0.6","29.3277","4.65164","51.7","0","SATNPRO1509","31.414","0.44004","5"],
    [22846,"HCEP03730566","2024-05-23 07:45:00","9.4494","3.20466","25.456","4.885","7.53","2.314","3.003","0.3","0.63","29.3257","4.65126","51.57","0","SATNPRO1509","31.514","0.44144","5"],
    [22847,"HCEP03730566","2024-05-23 08:00:00","9.4516","3.20469","25.164","4.889","7.53","2.383","3.26","0.28","0.36","29.3243","4.65101","51.61","0","SATNPRO1509","31.66","0.44348","5"],
    [22848,"HCEP03730566","2024-05-23 08:15:00","9.4553","3.20481","24.945","4.874","7.53","2.584","3.152","0.5","0.35","29.3225","4.65068","51.46","0","SATNPRO1509","31.382","0.43954","5"],
    [22849,"HCEP03730566","2024-05-23 08:30:00","9.4562","3.20479","24.74","4.871","7.53","2.396","3.19","0.27","0.22","29.3216","4.65052","51.43","0","SATNPRO1509","31.53","0.4416","5"],
    [22850,"HCEP03730566","2024-05-23 08:45:00","9.4547","3.20482","24.555","4.883","7.53","2.588","3.345","0.37","0.23","29.3232","4.65076","51.55","0","SATNPRO1509","31.328","0.4388","5"],
    [22851,"HCEP03730566","2024-05-23 09:00:00","9.457","3.2048","24.395","4.879","7.53","2.423","3.072","0.3","0.2","29.3212","4.65043","51.51","0","SATNPRO1509","31.452","0.44054","5"],
    [22852,"HCEP03730566","2024-05-23 09:15:00","9.4591","3.20475","24.235","4.895","7.53","2.436","3.155","0.28","0.23","29.3191","4.65007","51.68","0","SATNPRO1509","31.496","0.4412","5"],
    [22853,"HCEP03730566","2024-05-23 09:30:00","9.4609","3.20474","24.131","4.916","7.53","2.479","3.167","0.34","0.28","29.3176","4.64982","51.9","0","SATNPRO1509","31.334","0.43892","5"],
    [22854,"HCEP03730566","2024-05-23 09:45:00","9.4627","3.20477","24.038","4.919","7.53","2.511","3.167","0.39","0.22","29.3164","4.64962","51.94","0","SATNPRO1509","31.364","0.43928","5"],
    [22855,"HCEP03730566","2024-05-23 10:00:00","9.4623","3.20483","23.979","4.9","7.53","2.626","3.512","0.27","0.3","29.3174","4.64976","51.74","0","SATNPRO1509","31.458","0.44062","5"],
    [22856,"HCEP03730566","2024-05-23 10:15:00","9.4613","3.20489","23.947","4.878","7.53","2.585","3.245","0.24","0.35","29.3189","4.64999","51.51","0","SATNPRO1509","31.330000000000002","0.43882","5"],
    [22857,"HCEP03730566","2024-05-23 10:30:00","9.4613","3.20493","23.951","4.872","7.53","2.504","3.165","0.35","0.44","29.3193","4.65005","51.44","0","SATNPRO1509","31.348","0.43904","5"],
    [22858,"HCEP03730566","2024-05-23 10:45:00","9.4609","3.20499","23.946","4.867","7.53","2.587","2.947","0.33","0.26","29.3202","4.65019","51.39","0","SATNPRO1509","31.304000000000002","0.43842","5"],
    [22859,"HCEP03730566","2024-05-23 11:00:00","9.4612","3.20505","23.987","4.856","7.53","2.477","2.974","0.34","0.27","29.3206","4.65024","51.28","0","SATNPRO1509","31.37","0.43938","5"],
    [22860,"HCEP03730566","2024-05-23 11:15:00","9.4601","3.2051","24.053","4.841","7.53","2.553","3.338","0.36","0.38","29.3219","4.65045","51.12","0","SATNPRO1509","31.252","0.43772","5"],
    [22861,"HCEP03730566","2024-05-23 11:30:00","9.4604","3.20514","24.16","4.822","7.53","2.343","3.351","0.18","0.2","29.322","4.65047","50.92","0","SATNPRO1509","31.220000000000002","0.43726","5"],
    [22862,"HCEP03730566","2024-05-23 11:45:00","9.4618","3.20522","24.275","4.815","7.53","2.582","3.446","0.29","0.18","29.3217","4.6504","50.84","0","SATNPRO1509","31.154","0.4364","5"],
    [22863,"HCEP03730566","2024-05-23 12:00:00","9.4651","3.20541","24.404","4.82","7.52","2.465","3.144","0.26","0.19","29.3208","4.65023","50.9","0","SATNPRO1509","31.18","0.43674","5"],
    [22864,"HCEP03730566","2024-05-23 12:15:00","9.4661","3.20556","24.533","4.818","7.52","2.496","3.283","0.23","0.18","29.3215","4.65031","50.88","0","SATNPRO1509","31.184","0.43676","5"],
    [22865,"HCEP03730566","2024-05-23 12:30:00","9.4695","3.20581","24.691","4.792","7.52","2.49","3.152","0.27","0.13","29.3211","4.6502","50.61","0","SATNPRO1509","31.21","0.4371","5"],
    [22866,"HCEP03730566","2024-05-23 12:45:00","9.4716","3.20588","24.817","4.762","7.52","2.348","2.985","0.25","0.15","29.3201","4.65003","50.29","0","SATNPRO1509","31.202","0.43704","5"],
    [22867,"HCEP03730566","2024-05-23 13:00:00","9.4727","3.20594","24.976","4.727","7.52","2.411","3.154","0.26","0.13","29.3198","4.64998","49.92","0","SATNPRO1509","31.13","0.43606","5"],
    [22868,"HCEP03730566","2024-05-23 13:15:00","9.474","3.20606","25.166","4.695","7.51","2.572","3.331","0.18","0.26","29.3198","4.64997","49.59","0","SATNPRO1509","31.114","0.43582","5"],
    [22869,"HCEP03730566","2024-05-23 13:30:00","9.4775","3.2062","25.349","4.665","7.51","2.709","3.781","0.27","0.22","29.3183","4.64969","49.27","0","SATNPRO1509","31.104","0.43564","5"],
    [22870,"HCEP03730566","2024-05-23 13:45:00","9.4815","3.20638","25.54","4.665","7.51","2.704","3.978","0.27","0.28","29.3168","4.64942","49.28","0","SATNPRO1509","31.056","0.435","5"],
    [22871,"HCEP03730566","2024-05-23 14:00:00","9.4857","3.20656","25.755","4.67","7.51","2.708","4.231","0.22","0.24","29.315","4.6491","49.34","0","SATNPRO1509","31.137999999999998","0.43614","5"],
    [22872,"HCEP03730566","2024-05-23 14:15:00","9.4906","3.20687","25.973","4.667","7.51","2.917","4.376","0.33","0.25","29.3141","4.6489","49.31","0","SATNPRO1509","31.012","0.4344","5"],
    [22873,"HCEP03730566","2024-05-23 14:30:00","9.4947","3.20706","26.2","4.663","7.51","2.802","4.093","0.34","0.27","29.3126","4.64863","49.27","0","SATNPRO1509","31.084","0.43542","5"],
    [22874,"HCEP03730566","2024-05-23 14:45:00","9.4993","3.20719","26.421","4.665","7.51","2.786","4.082","0.21","0.29","29.3101","4.6482","49.29","0","SATNPRO1509","30.922","0.4331","5"],
    [22875,"HCEP03730566","2024-05-23 15:00:00","9.5024","3.2073","26.594","4.664","7.51","3.065","4.09","0.47","0.18","29.3085","4.64793","49.29","0","SATNPRO1509","30.884","0.43256","5"],
    [22876,"HCEP03730566","2024-05-23 15:15:00","9.5053","3.20731","26.779","4.651","7.51","3.151","3.946","0.25","0.28","29.3062","4.64756","49.16","0","SATNPRO1509","30.802","0.43138","5"],
    [22877,"HCEP03730566","2024-05-23 15:30:00","9.5077","3.20729","26.957","4.642","7.51","3.233","4.239","0.31","0.24","29.304","4.64721","49.06","0","SATNPRO1509","30.724","0.43038","5"],
    [22878,"HCEP03730566","2024-05-23 15:45:00","9.5103","3.20721","27.131","4.641","7.5","3.178","4.542","0.32","0.24","29.301","4.64675","49.05","0","SATNPRO1509","30.642","0.42918","5"],
    [22879,"HCEP03730566","2024-05-23 16:00:00","9.5111","3.20712","27.272","4.632","7.5","3.135","4.571","0.31","0.24","29.2994","4.6465","48.96","0","SATNPRO1509","30.716","0.43024","5"],
    [22880,"HCEP03730566","2024-05-23 16:15:00","9.5116","3.20703","27.393","4.628","7.5","3.038","4.143","0.28","0.33","29.2979","4.6463","48.92","0","SATNPRO1509","30.712","0.43014","5"],
    [22881,"HCEP03730566","2024-05-23 16:30:00","9.512","3.20701","27.512","4.625","7.5","2.895","4.043","0.31","0.36","29.2975","4.64623","48.88","0","SATNPRO1509","30.77","0.43098","5"],
    [22882,"HCEP03730566","2024-05-23 16:45:00","9.513","3.20711","27.623","4.613","7.5","2.772","4.404","0.33","0.32","29.2976","4.64624","48.76","0","SATNPRO1509","30.694","0.42992","5"],
    [22883,"HCEP03730566","2024-05-23 17:00:00","9.5133","3.20724","27.739","4.595","7.5","2.535","4.449","0.24","0.4","29.2987","4.64639","48.57","0","SATNPRO1509","30.71","0.43016","5"],
    [22884,"HCEP03730566","2024-05-23 17:15:00","9.5154","3.20733","27.783","4.578","7.5","2.202","4.079","0.3","0.41","29.2978","4.64623","48.39","0","SATNPRO1509","30.732","0.43044","5"],
    [22885,"HCEP03730566","2024-05-23 17:30:00","9.5169","3.20741","27.803","4.576","7.5","1.805","3.656","0.26","0.36","29.2973","4.64614","48.37","0","SATNPRO1509","30.66","0.4295","5"],
    [22886,"HCEP03730566","2024-05-23 17:45:00","9.5191","3.20744","27.796","4.569","7.5","1.484","3.632","0.12","0.27","29.2959","4.6459","48.3","0","SATNPRO1509","30.64","0.42918","5"],
    [22887,"HCEP03730566","2024-05-23 18:00:00","9.5224","3.20744","27.808","4.566","7.5","1.191","3.447","0.11","0.34","29.2932","4.64546","48.26","0","SATNPRO1509","30.66","0.42944","5"],
    [22888,"HCEP03730566","2024-05-23 18:15:00","9.5232","3.20744","27.819","4.573","7.5","0.958","3.654","0.07","0.27","29.2925","4.64534","48.34","0","SATNPRO1509","30.572","0.42822","5"],
    [22889,"HCEP03730566","2024-05-23 18:30:00","9.5245","3.20738","27.811","4.57","7.5","0.743","3.956","0.04","0.29","29.2908","4.64507","48.31","0","SATNPRO1509","30.566","0.42814","5"],
    [22890,"HCEP03730566","2024-05-23 18:45:00","9.5248","3.2074","27.794","4.566","7.5","0.599","4.511","0.02","0.4","29.2907","4.64506","48.27","0","SATNPRO1509","30.55","0.4279","5"],
    [22891,"HCEP03730566","2024-05-23 19:00:00","9.5239","3.20741","27.736","4.553","7.5","0.472","5.743","0.02","0.45","29.2917","4.64521","48.14","0","SATNPRO1509","30.536","0.4277","5"],
    [22892,"HCEP03730566","2024-05-23 19:15:00","9.522","3.20729","27.713","4.546","7.5","0.354","9.263","0.01","0.22","29.292","4.64528","48.06","0","SATNPRO1509","30.666","0.42954","5"],
    [22893,"HCEP03730566","2024-05-23 19:30:00","9.5208","3.20731","27.65","4.544","7.5","0.286","17.275","0.01","0.28","29.2933","4.64548","48.04","0","SATNPRO1509","30.588","0.42842","5"],
    [22894,"HCEP03730566","2024-05-23 19:45:00","9.5201","3.20733","27.547","4.539","7.5","0.245","33.701","0.01","0.27","29.2941","4.6456","47.99","0","SATNPRO1509","30.816","0.43164","5"],
    [22895,"HCEP03730566","2024-05-23 20:00:00","9.5188","3.20731","27.476","4.534","7.5","0.255","61.777","0.02","0.24","29.2949","4.64574","47.93","0","SATNPRO1509","30.624","0.42896","5"],
    [22896,"HCEP03730566","2024-05-23 20:15:00","9.5172","3.20728","27.402","4.535","7.5","0.3","107.802","0.03","0.18","29.296","4.64592","47.94","0","SATNPRO1509","30.614","0.42882","5"],
    [22897,"HCEP03730566","2024-05-23 20:30:00","9.514","3.20708","27.282","4.553","7.5","0.38","174.373","0.04","0.14","29.2966","4.64606","48.12","0","SATNPRO1509","30.61","0.42872","5"],
    [22898,"HCEP03730566","2024-05-23 20:45:00","9.5122","3.20699","27.203","4.553","7.5","0.58","268.749","0.07","0.37","29.2972","4.64617","48.12","0","SATNPRO1509","30.558","0.428","5"],
    [22899,"HCEP03730566","2024-05-23 21:00:00","9.5105","3.20676","27.131","4.493","7.49","0.74","371.994","0.08","0.74","29.2963","4.64607","47.49","0","SATNPRO1509","30.546","0.42786","5"],
    [22900,"HCEP03730566","2024-05-23 21:15:00","9.5063","3.20643","27.061","4.512","7.49","0.861","438.226","0.1","0.69","29.2964","4.64616","47.68","0","SATNPRO1509","30.622","0.42892","5"],
    [22901,"HCEP03730566","2024-05-23 21:30:00","9.5042","3.20579","26.977","4.518","7.49","0.95","461.634","0.07","0.36","29.2917","4.64551","47.74","0","SATNPRO1509","30.574","0.42824","5"],
    [22902,"HCEP03730566","2024-05-23 21:45:00","9.5094","3.20463","26.905","4.54","7.5","1.114","446.36","0.1","0.49","29.2758","4.64313","47.98","0","SATNPRO1509","30.518","0.42744","5"],
    [22903,"HCEP03730566","2024-05-23 22:00:00","9.5273","3.20342","26.829","4.666","7.5","1.088","398.455","0.07","0.38","29.2489","4.63896","49.31","0","SATNPRO1509","30.486","0.427","5"],
    [22904,"HCEP03730566","2024-05-23 22:15:00","9.5359","3.2033","26.752","4.805","7.51","1.117","324.339","0.1","0.29","29.2408","4.63765","50.79","0","SATNPRO1509","30.588","0.42844","5"],
    [22905,"HCEP03730566","2024-05-23 22:30:00","9.5385","3.20325","26.679","4.846","7.52","1.117","250.41","0.1","0.17","29.2381","4.63721","51.24","0","SATNPRO1509","30.574","0.42822","5"],
    [22906,"HCEP03730566","2024-05-23 22:45:00","9.5342","3.20329","26.63","4.851","7.52","1.077","159.484","0.1","0.22","29.2421","4.63785","51.28","0","SATNPRO1509","30.672","0.42958","5"],
    [22907,"HCEP03730566","2024-05-23 23:00:00","9.5339","3.20317","26.609","4.835","7.52","1.079","58.746","0.1","0.04","29.2411","4.63772","51.11","0","SATNPRO1509","30.472","0.42682","5"],
    [22908,"HCEP03730566","2024-05-23 23:15:00","9.536","3.20338","26.587","4.832","7.52","1.019","26.131","0.1","0","29.2416","4.63774","51.08","0","SATNPRO1509","30.542","0.42782","5"],
    [22909,"HCEP03730566","2024-05-23 23:30:00","9.5338","3.20316","26.591","4.816","7.52","0.964","10.803","0.15","0.01","29.2411","4.63772","50.9","0","SATNPRO1509","30.616","0.42884","5"],
    [22910,"HCEP03730566","2024-05-23 23:45:00","9.5354","3.20337","26.622","4.817","7.52","0.839","2.443","0.08","0.01","29.2419","4.6378","50.92","0","SATNPRO1509","30.582","0.42836","5"],
    [22911,"HCEP03730566","2024-05-24 00:00:00","9.5367","3.20344","26.652","4.838","7.52","0.785","0.346","0.09","0.01","29.2416","4.63774","51.14","0","SATNPRO1509","30.684","0.42978","5"],
    [22912,"HCEP03730566","2024-05-24 00:15:00","9.5339","3.20361","26.704","4.841","7.52","0.709","0.271","0.1","0.01","29.2455","4.63835","51.18","0","SATNPRO1509","30.654","0.42932","5"],
    [22913,"HCEP03730566","2024-05-24 00:30:00","9.538","3.20366","26.752","4.853","7.52","0.588","0.292","0.07","0.02","29.2427","4.63788","51.31","0","SATNPRO1509","30.622","0.42892","5"],
    [22914,"HCEP03730566","2024-05-24 00:45:00","9.5398","3.2037","26.777","4.891","7.53","0.498","0.281","0.05","0.03","29.2416","4.63769","51.71","0","SATNPRO1509","30.548","0.42788","5"],
    [22915,"HCEP03730566","2024-05-24 01:00:00","9.5391","3.20384","26.854","4.913","7.53","0.402","0.287","0.04","0.02","29.2436","4.638","51.94","0","SATNPRO1509","30.706","0.43012","5"],
    [22916,"HCEP03730566","2024-05-24 01:15:00","9.537","3.20396","26.918","4.914","7.53","0.391","0.541","0.04","0.03","29.2464","4.63844","51.95","0","SATNPRO1509","30.678","0.42972","5"],
    [22917,"HCEP03730566","2024-05-24 01:30:00","9.5382","3.20373","26.983","4.927","7.53","0.405","0.723","0.05","0.07","29.2431","4.63795","52.08","0","SATNPRO1509","30.696","0.42994","5"],
    [22918,"HCEP03730566","2024-05-24 01:45:00","9.5388","3.20347","27.042","4.939","7.53","0.385","0.783","0.06","0.08","29.24","4.63749","52.21","0","SATNPRO1509","30.724","0.43034","5"],
    [22919,"HCEP03730566","2024-05-24 02:00:00","9.5343","3.20316","27.108","4.954","7.53","0.446","0.889","0.12","0.07","29.2405","4.63765","52.37","0","SATNPRO1509","30.732","0.43048","5"],
    [22920,"HCEP03730566","2024-05-24 02:15:00","9.5317","3.20335","27.174","4.946","7.53","0.475","0.977","0.08","0.21","29.2445","4.63827","52.28","0","SATNPRO1509","30.836","0.4319","5"],
    [22921,"HCEP03730566","2024-05-24 02:30:00","9.5309","3.20306","27.234","4.951","7.53","0.573","0.929","0.21","0.13","29.2422","4.63796","52.34","0","SATNPRO1509","30.83","0.43178","5"],
    [22922,"HCEP03730566","2024-05-24 02:45:00","9.5322","3.20319","27.28","4.963","7.53","0.609","0.968","0.14","0.1","29.2424","4.63797","52.46","0","SATNPRO1509","30.78","0.43114","5"],
    [22923,"HCEP03730566","2024-05-24 03:00:00","9.5316","3.20301","27.338","4.963","7.53","0.783","1.071","0.27","0.22","29.2411","4.63779","52.46","0","SATNPRO1509","30.864","0.4323","5"],
    [22924,"HCEP03730566","2024-05-24 03:15:00","9.5348","3.20255","27.386","4.974","7.54","0.99","1.168","0.33","0.15","29.2339","4.63671","52.58","0","SATNPRO1509","30.81","0.43154","5"],
    [22925,"HCEP03730566","2024-05-24 03:30:00","9.5379","3.20195","27.431","4.989","7.54","1.082","1.223","0.27","0.16","29.2253","4.63542","52.74","0","SATNPRO1509","30.778","0.43112","5"],
    [22926,"HCEP03730566","2024-05-24 03:45:00","9.5347","3.20095","27.451","4.983","7.54","1.324","1.701","0.36","0.4","29.2177","4.63439","52.67","0","SATNPRO1509","30.732","0.43042","5"],
    [22927,"HCEP03730566","2024-05-24 04:00:00","9.5311","3.20088","27.46","4.983","7.54","1.201","1.476","0.21","0.17","29.2199","4.63478","52.66","0","SATNPRO1509","31.014","0.43444","5"],
    [22928,"HCEP03730566","2024-05-24 04:15:00","9.5306","3.2012","27.471","4.995","7.54","1.412","1.919","0.32","0.39","29.2236","4.6353","52.79","0","SATNPRO1509","30.826","0.43174","5"],
    [22929,"HCEP03730566","2024-05-24 04:30:00","9.5283","3.20095","27.464","5.004","7.54","1.454","1.865","0.29","0.34","29.223","4.63527","52.89","0","SATNPRO1509","30.766","0.43092","5"],
    [22930,"HCEP03730566","2024-05-24 04:45:00","9.528","3.20123","27.456","5.007","7.54","1.897","2.457","0.48","0.46","29.226","4.6357","52.91","0","SATNPRO1509","30.926","0.43318","5"],
    [22931,"HCEP03730566","2024-05-24 05:00:00","9.5281","3.2014","27.409","5.013","7.54","1.655","1.759","0.22","0.16","29.2277","4.63594","52.98","0","SATNPRO1509","30.91","0.43292","5"],
    [22932,"HCEP03730566","2024-05-24 05:15:00","9.5242","3.20128","27.35","5.013","7.54","1.909","2.162","0.37","0.27","29.2297","4.63629","52.97","0","SATNPRO1509","30.922","0.43314","5"],
    [22933,"HCEP03730566","2024-05-24 05:30:00","9.5229","3.20134","27.275","4.98","7.54","1.986","2.559","0.31","0.2","29.2313","4.63654","52.63","0","SATNPRO1509","30.878","0.43246","5"],
    [22934,"HCEP03730566","2024-05-24 05:45:00","9.5215","3.2015","27.204","4.961","7.54","2.174","2.663","0.37","0.22","29.2342","4.63697","52.43","0","SATNPRO1509","30.77","0.43098","5"],
    [22935,"HCEP03730566","2024-05-24 06:00:00","9.5208","3.2017","27.078","4.951","7.54","2.284","2.988","0.47","0.37","29.2367","4.63734","52.32","0","SATNPRO1509","30.924","0.43314","5"],
    [22936,"HCEP03730566","2024-05-24 06:15:00","9.5208","3.20198","26.952","4.944","7.54","2.197","2.817","0.26","0.63","29.2397","4.63776","52.24","0","SATNPRO1509","30.942","0.43338","5"],
    [22937,"HCEP03730566","2024-05-24 06:30:00","9.5221","3.20227","26.865","4.937","7.54","2.551","2.857","0.81","0.73","29.2416","4.638","52.17","0","SATNPRO1509","30.89","0.43268","5"],
    [22938,"HCEP03730566","2024-05-24 06:45:00","9.5229","3.2027","26.714","4.927","7.54","2.303","2.698","0.26","0.37","29.2453","4.63852","52.07","0","SATNPRO1509","30.86","0.43226","5"],
    [22939,"HCEP03730566","2024-05-24 07:00:00","9.5231","3.20294","26.534","4.909","7.54","2.112","2.594","0.37","0.37","29.2477","4.63884","51.89","0","SATNPRO1509","30.884","0.4326","5"],
    [22940,"HCEP03730566","2024-05-24 07:15:00","9.5249","3.20321","26.327","4.907","7.53","2.209","2.68","0.36","0.49","29.249","4.63898","51.86","0","SATNPRO1509","30.954","0.43356","5"],
    [22941,"HCEP03730566","2024-05-24 07:30:00","9.5263","3.20342","26.076","4.895","7.53","2.376","2.995","0.37","0.32","29.25","4.63909","51.73","0","SATNPRO1509","30.854","0.43218","5"],
    [22942,"HCEP03730566","2024-05-24 07:45:00","9.5196","3.20403","25.798","4.862","7.53","2.821","3.576","0.67","0.43","29.2618","4.64089","51.38","0","SATNPRO1509","30.886","0.4326","5"],
    [22943,"HCEP03730566","2024-05-24 08:00:00","9.5158","3.20437","25.559","4.826","7.53","2.608","3.174","0.26","0.44","29.2684","4.64189","51.01","0","SATNPRO1509","30.96","0.43364","5"],
    [22944,"HCEP03730566","2024-05-24 08:15:00","9.5151","3.20449","25.327","4.817","7.53","2.244","2.723","0.21","0.37","29.2703","4.64215","50.91","0","SATNPRO1509","30.978","0.43388","5"],
    [22945,"HCEP03730566","2024-05-24 08:30:00","9.5172","3.20494","25.103","4.811","7.52","2.404","3.004","0.46","0.29","29.2733","4.64253","50.85","0","SATNPRO1509","30.92","0.43306","5"],
    [22946,"HCEP03730566","2024-05-24 08:45:00","9.5166","3.20502","24.891","4.781","7.52","2.424","3.155","0.34","0.26","29.2747","4.64273","50.53","0","SATNPRO1509","31.004","0.43426","5"],
    [22947,"HCEP03730566","2024-05-24 09:00:00","9.5172","3.20487","24.671","4.771","7.52","2.307","3.075","0.26","0.55","29.2727","4.64243","50.43","0","SATNPRO1509","30.994","0.43408","5"],
    [22948,"HCEP03730566","2024-05-24 09:15:00","9.5195","3.2046","24.487","4.768","7.52","2.39","3.275","0.28","0.26","29.2682","4.64172","50.39","0","SATNPRO1509","30.874","0.4324","5"],
    [22949,"HCEP03730566","2024-05-24 09:30:00","9.5202","3.20458","24.326","4.757","7.52","2.443","3.238","0.31","0.27","29.2675","4.64161","50.27","0","SATNPRO1509","30.902","0.43284","5"],
    [22950,"HCEP03730566","2024-05-24 09:45:00","9.5207","3.20464","24.187","4.75","7.52","2.425","3.6","0.27","0.26","29.2678","4.64163","50.21","0","SATNPRO1509","30.772000000000002","0.431","5"],
    [22951,"HCEP03730566","2024-05-24 10:00:00","9.5201","3.20468","24.055","4.735","7.52","2.566","3.58","0.4","0.35","29.2687","4.64176","50.04","0","SATNPRO1509","30.762","0.43088","5"],
    [22952,"HCEP03730566","2024-05-24 10:15:00","9.5231","3.20459","23.95","4.718","7.52","2.392","3.541","0.26","0.27","29.2654","4.64123","49.87","0","SATNPRO1509","30.652","0.42932","5"],
    [22953,"HCEP03730566","2024-05-24 10:30:00","9.5232","3.20461","23.882","4.71","7.52","2.475","3.304","0.26","0.26","29.2655","4.64124","49.79","0","SATNPRO1509","30.626","0.42898","5"],
    [22954,"HCEP03730566","2024-05-24 10:45:00","9.5231","3.20461","23.873","4.701","7.51","2.525","3.28","0.29","0.3","29.2657","4.64127","49.68","0","SATNPRO1509","30.73","0.43042","5"],
    [22955,"HCEP03730566","2024-05-24 11:00:00","9.5212","3.20474","23.853","4.697","7.51","2.552","3.127","0.33","0.27","29.2684","4.6417","49.64","0","SATNPRO1509","30.94","0.43334","5"],
    [22956,"HCEP03730566","2024-05-24 11:15:00","9.5197","3.20485","23.884","4.676","7.51","2.498","3.367","0.37","0.26","29.2708","4.64206","49.42","0","SATNPRO1509","30.822","0.4317","5"],
    [22957,"HCEP03730566","2024-05-24 11:30:00","9.5169","3.20504","23.935","4.659","7.51","2.733","3.419","0.53","0.37","29.275","4.64271","49.24","0","SATNPRO1509","30.722","0.4303","5"],
    [22958,"HCEP03730566","2024-05-24 11:45:00","9.5141","3.20524","24.001","4.625","7.51","2.778","3.813","0.49","0.42","29.2793","4.64338","48.88","0","SATNPRO1509","30.752","0.43074","5"],
    [22959,"HCEP03730566","2024-05-24 12:00:00","9.5122","3.20544","24.101","4.588","7.51","2.464","3.758","0.27","0.2","29.2827","4.64392","48.49","0","SATNPRO1509","30.686","0.42986","5"],
    [22960,"HCEP03730566","2024-05-24 12:15:00","9.512","3.20551","24.14","4.569","7.5","2.372","3.609","0.34","0.25","29.2837","4.64406","48.28","0","SATNPRO1509","30.682","0.42976","5"],
    [22961,"HCEP03730566","2024-05-24 12:30:00","9.5124","3.20556","24.279","4.559","7.5","2.172","3.399","0.19","0.11","29.2838","4.64407","48.18","0","SATNPRO1509","30.71","0.4302","5"],
    [22962,"HCEP03730566","2024-05-24 12:45:00","9.5127","3.2056","24.402","4.546","7.5","2.328","3.379","0.19","0.15","29.2838","4.64408","48.04","0","SATNPRO1509","30.614","0.42882","5"],
    [22963,"HCEP03730566","2024-05-24 13:00:00","9.5126","3.20577","24.556","4.529","7.5","2.212","3.248","0.19","0.12","29.2856","4.64435","47.87","0","SATNPRO1509","30.62","0.42888","5"],
    [22964,"HCEP03730566","2024-05-24 13:15:00","9.515","3.20618","24.754","4.488","7.5","2.298","3.355","0.22","0.11","29.2877","4.64462","47.43","0","SATNPRO1509","30.52","0.4275","5"],
    [22965,"HCEP03730566","2024-05-24 13:30:00","9.525","3.2067","24.879","4.463","7.49","2.328","3.27","0.34","0.2","29.2847","4.64402","47.18","0","SATNPRO1509","30.486","0.42704","5"],
    [22966,"HCEP03730566","2024-05-24 13:45:00","9.5296","3.20681","25.078","4.464","7.49","2.302","3.471","0.22","0.12","29.282","4.64356","47.2","0","SATNPRO1509","30.47","0.42682","5"],
    [22967,"HCEP03730566","2024-05-24 14:00:00","9.5348","3.20701","25.248","4.458","7.49","2.355","3.354","0.22","0.12","29.2797","4.64316","47.13","0","SATNPRO1509","30.232","0.42344","5"],
    [22968,"HCEP03730566","2024-05-24 14:15:00","9.5477","3.20739","25.445","4.463","7.49","2.209","3.273","0.14","0.2","29.273","4.64198","47.2","0","SATNPRO1509","30.296","0.42438","5"],
    [22969,"HCEP03730566","2024-05-24 14:30:00","9.5499","3.20751","25.664","4.453","7.49","2.158","3.49","0.16","0.5","29.2723","4.64185","47.1","0","SATNPRO1509","30.174","0.42268","5"],
    [22970,"HCEP03730566","2024-05-24 14:45:00","9.5515","3.20757","25.844","4.455","7.49","2.061","3.541","0.19","0.18","29.2715","4.64172","47.12","0","SATNPRO1509","30.118","0.42186","5"],
    [22971,"HCEP03730566","2024-05-24 15:00:00","9.5544","3.20771","26.054","4.455","7.49","2.007","3.643","0.2","0.32","29.2705","4.64154","47.13","0","SATNPRO1509","30.138","0.4221","5"],
    [22972,"HCEP03730566","2024-05-24 15:15:00","9.5635","3.20773","26.255","4.46","7.49","1.898","3.833","0.26","0.11","29.2632","4.64035","47.18","0","SATNPRO1509","29.994","0.42008","5"],
    [22973,"HCEP03730566","2024-05-24 15:30:00","9.5641","3.20788","26.51","4.467","7.49","1.668","4.023","0.12","0.15","29.2641","4.64047","47.25","0","SATNPRO1509","29.982","0.41994","5"],
    [22974,"HCEP03730566","2024-05-24 15:45:00","9.5656","3.20766","26.729","4.464","7.49","1.674","4.091","0.14","0.21","29.2606","4.63996","47.22","0","SATNPRO1509","29.919999999999998","0.41908","5"],
    [22975,"HCEP03730566","2024-05-24 16:00:00","9.5656","3.20755","26.876","4.468","7.49","1.572","4.001","0.17","0.2","29.2595","4.6398","47.26","0","SATNPRO1509","29.96","0.41964","5"],
    [22976,"HCEP03730566","2024-05-24 16:15:00","9.5659","3.20755","27.056","4.468","7.49","1.705","3.95","0.18","0.18","29.2592","4.63977","47.26","0","SATNPRO1509","29.918","0.41908","5"],
    [22977,"HCEP03730566","2024-05-24 16:30:00","9.566","3.20739","27.201","4.465","7.49","1.62","4.257","0.14","0.17","29.2574","4.63951","47.24","0","SATNPRO1509","29.776","0.41702","5"],
    [22978,"HCEP03730566","2024-05-24 16:45:00","9.5661","3.20718","27.345","4.461","7.49","1.652","4.207","0.14","0.16","29.2551","4.6392","47.19","0","SATNPRO1509","29.764","0.4169","5"],
    [22979,"HCEP03730566","2024-05-24 17:00:00","9.5658","3.20714","27.47","4.452","7.49","1.696","4.456","0.19","0.21","29.2549","4.63919","47.1","0","SATNPRO1509","29.828","0.4178","5"],
    [22980,"HCEP03730566","2024-05-24 17:15:00","9.5658","3.20711","27.582","4.447","7.49","1.712","4.672","0.22","0.11","29.2546","4.63914","47.05","0","SATNPRO1509","29.73","0.41638","5"],
    [22981,"HCEP03730566","2024-05-24 17:30:00","9.5665","3.20699","27.654","4.445","7.49","1.618","5.476","0.15","0.14","29.2527","4.63887","47.03","0","SATNPRO1509","29.816","0.4176","5"],
    [22982,"HCEP03730566","2024-05-24 17:45:00","9.5674","3.20676","27.735","4.449","7.49","1.509","8.747","0.16","0.11","29.2497","4.63841","47.07","0","SATNPRO1509","29.852","0.41816","5"],
    [22983,"HCEP03730566","2024-05-24 18:00:00","9.5683","3.20664","27.779","4.458","7.49","1.627","17.731","0.31","0.28","29.2477","4.63813","47.16","0","SATNPRO1509","29.848","0.4181","5"],
    [22984,"HCEP03730566","2024-05-24 18:15:00","9.5707","3.2064","27.792","4.462","7.49","1.491","28.577","0.19","0.14","29.2433","4.63745","47.21","0","SATNPRO1509","29.794","0.41726","5"],
    [22985,"HCEP03730566","2024-05-24 18:30:00","9.5743","3.20628","27.783","4.491","7.49","1.465","37.753","0.25","0.1","29.2391","4.63679","47.52","0","SATNPRO1509","29.93","0.4192","5"],
    [22986,"HCEP03730566","2024-05-24 18:45:00","9.583","3.20647","27.819","4.515","7.49","1.584","42.048","0.32","0.13","29.234","4.6359","47.77","0","SATNPRO1509","29.816","0.41762","5"],
    [22987,"HCEP03730566","2024-05-24 19:00:00","9.5898","3.20625","27.798","4.531","7.49","1.293","39.609","0.14","0.11","29.2262","4.63467","47.95","0","SATNPRO1509","29.816","0.41762","5"],
    [22988,"HCEP03730566","2024-05-24 19:15:00","9.5957","3.20576","27.786","4.543","7.5","1.262","35.089","0.11","0.07","29.2166","4.63318","48.08","0","SATNPRO1509","29.766","0.4169","5"],
    [22989,"HCEP03730566","2024-05-24 19:30:00","9.6019","3.20548","27.847","4.585","7.5","1.181","34.363","0.18","0.17","29.2087","4.63195","48.53","0","SATNPRO1509","29.752","0.41672","5"],
    [22990,"HCEP03730566","2024-05-24 19:45:00","9.6053","3.20571","27.839","4.636","7.5","1.211","34.996","0.17","0.24","29.2082","4.63181","49.07","0","SATNPRO1509","29.746","0.41664","5"],
    [22991,"HCEP03730566","2024-05-24 20:00:00","9.6136","3.20547","27.829","4.679","7.51","1.081","34.402","0.13","0.15","29.199","4.63035","49.53","0","SATNPRO1509","29.744","0.41664","5"],
    [22992,"HCEP03730566","2024-05-24 20:15:00","9.5753","3.20662","27.824","4.553","7.5","1.346","33.332","0.1","0.16","29.2418","4.63716","48.17","0","SATNPRO1509","29.532","0.41364","5"],
    [22993,"HCEP03730566","2024-05-24 20:30:00","9.5733","3.20676","27.781","4.422","7.49","1.605","31.828","0.13","0.17","29.2448","4.63762","46.79","0","SATNPRO1509","29.532","0.41362","5"],
    [22994,"HCEP03730566","2024-05-24 20:45:00","9.5921","3.20379","27.696","4.417","7.49","1.527","33.511","0.1","0.22","29.1997","4.63082","46.74","0","SATNPRO1509","29.252","0.40972","5"],
    [22995,"HCEP03730566","2024-05-24 21:00:00","9.583","3.20415","27.611","4.499","7.49","1.481","37.682","0.13","0.23","29.2106","4.63254","47.6","0","SATNPRO1509","29.468","0.41274","5"],
    [22996,"HCEP03730566","2024-05-24 21:15:00","9.5885","3.20317","27.529","4.508","7.5","1.423","42.981","0.1","0.23","29.1964","4.63041","47.69","0","SATNPRO1509","29.401999999999997","0.41182","5"],
    [22997,"HCEP03730566","2024-05-24 21:30:00","9.591","3.20249","27.454","4.537","7.5","1.473","48.381","0.13","0.31","29.1875","4.62908","48","0","SATNPRO1509","29.454","0.41254","5"],
    [22998,"HCEP03730566","2024-05-24 21:45:00","9.5889","3.20255","27.377","4.555","7.5","1.468","50.703","0.15","0.3","29.1898","4.62944","48.19","0","SATNPRO1509","29.384","0.41158","5"],
    [22999,"HCEP03730566","2024-05-24 22:00:00","9.5861","3.2026","27.289","4.562","7.5","1.453","50.15","0.13","0.22","29.1926","4.62989","48.26","0","SATNPRO1509","29.486","0.41302","5"],
    [23000,"HCEP03730566","2024-05-24 22:15:00","9.5831","3.20253","27.156","4.56","7.5","1.444","49.775","0.18","0.26","29.1944","4.63019","48.24","0","SATNPRO1509","29.542","0.41382","5"],
    [23001,"HCEP03730566","2024-05-24 22:30:00","9.5801","3.20289","27.045","4.56","7.5","1.572","49.146","0.28","0.23","29.2005","4.63111","48.24","0","SATNPRO1509","29.498","0.41318","5"],
    [23002,"HCEP03730566","2024-05-24 22:45:00","9.5787","3.20273","26.931","4.554","7.5","1.544","45.311","0.23","0.25","29.2001","4.63107","48.17","0","SATNPRO1509","29.454","0.41254","5"],
    [23003,"HCEP03730566","2024-05-24 23:00:00","9.577","3.20262","26.872","4.573","7.5","1.567","38.573","0.36","0.62","29.2005","4.63115","48.37","0","SATNPRO1509","29.631999999999998","0.41506","5"],
    [23004,"HCEP03730566","2024-05-24 23:15:00","9.5746","3.20168","26.765","4.59","7.5","1.453","20.984","0.22","0.21","29.193","4.63011","48.55","0","SATNPRO1509","29.542","0.41382","5"],
    [23005,"HCEP03730566","2024-05-24 23:30:00","9.5732","3.20031","26.749","4.626","7.51","1.485","24.427","0.18","0.25","29.1802","4.6283","48.92","0","SATNPRO1509","29.584","0.4144","5"],
    [23006,"HCEP03730566","2024-05-24 23:45:00","9.5688","3.19905","26.752","4.677","7.51","1.489","39.785","0.23","0.21","29.1711","4.62708","49.45","0","SATNPRO1509","29.63","0.41498","5"],
    [23007,"HCEP03730566","2024-05-25 00:00:00","9.5661","3.1997","26.682","4.698","7.51","1.472","47.234","0.22","0.27","29.1798","4.62837","49.68","0","SATNPRO1509","29.71","0.4161","5"],
    [23008,"HCEP03730566","2024-05-25 00:15:00","9.5656","3.20049","26.678","4.698","7.51","1.328","47.196","0.17","0.2","29.1883","4.6296","49.68","0","SATNPRO1509","29.888","0.41864","5"],
    [23009,"HCEP03730566","2024-05-25 00:30:00","9.5644","3.20157","26.735","4.697","7.51","1.314","48.851","0.18","0.27","29.2001","4.63131","49.67","0","SATNPRO1509","30.024","0.42056","5"],
    [23010,"HCEP03730566","2024-05-25 00:45:00","9.5625","3.20233","26.761","4.649","7.51","1.465","51.346","0.29","0.29","29.2093","4.63267","49.16","0","SATNPRO1509","29.912","0.41898","5"],
    [23011,"HCEP03730566","2024-05-25 01:00:00","9.5599","3.20365","26.819","4.596","7.51","1.507","52.871","0.25","0.22","29.2248","4.63493","48.61","0","SATNPRO1509","30.054","0.42092","5"],
    [23012,"HCEP03730566","2024-05-25 01:15:00","9.5596","3.20434","26.884","4.568","7.5","1.46","47.456","0.27","0.26","29.2319","4.63596","48.31","0","SATNPRO1509","30.152","0.42234","5"],
    [23013,"HCEP03730566","2024-05-25 01:30:00","9.5617","3.2055","26.933","4.532","7.5","1.483","38.873","0.31","0.21","29.2418","4.63735","47.93","0","SATNPRO1509","30.074","0.4212","5"],
    [23014,"HCEP03730566","2024-05-25 01:45:00","9.5606","3.20603","26.983","4.482","7.5","1.342","36.847","0.18","1.8","29.2481","4.63827","47.4","0","SATNPRO1509","29.794","0.4173","5"],
    [23015,"HCEP03730566","2024-05-25 02:00:00","9.5588","3.20613","27.028","4.435","7.49","1.459","33.872","0.24","0.28","29.2506","4.63866","46.92","0","SATNPRO1509","29.854","0.41814","5"],
    [23016,"HCEP03730566","2024-05-25 02:15:00","9.5588","3.20626","27.086","4.41","7.49","1.561","33.747","0.17","0.25","29.2519","4.63885","46.64","0","SATNPRO1509","29.99","0.42006","5"],
    [23017,"HCEP03730566","2024-05-25 02:30:00","9.5588","3.20648","27.136","4.409","7.49","1.487","34.707","0.2","0.13","29.2541","4.63917","46.64","0","SATNPRO1509","29.924","0.41912","5"],
    [23018,"HCEP03730566","2024-05-25 02:45:00","9.558","3.20649","27.209","4.413","7.49","1.406","36.434","0.22","0.18","29.2548","4.63929","46.68","0","SATNPRO1509","30.002","0.42022","5"],
    [23019,"HCEP03730566","2024-05-25 03:00:00","9.5565","3.20675","27.251","4.416","7.49","1.341","39.694","0.35","0.15","29.2586","4.63987","46.71","0","SATNPRO1509","30.012","0.4204","5"],
    [23020,"HCEP03730566","2024-05-25 03:15:00","9.5554","3.20678","27.296","4.406","7.48","1.355","41.585","0.23","0.16","29.2598","4.64006","46.61","0","SATNPRO1509","30.052","0.42092","5"],
    [23021,"HCEP03730566","2024-05-25 03:30:00","9.5533","3.20668","27.322","4.41","7.48","1.289","42.96","0.2","0.2","29.2605","4.6402","46.64","0","SATNPRO1509","30.14","0.42216","5"],
    [23022,"HCEP03730566","2024-05-25 03:45:00","9.5508","3.20648","27.359","4.42","7.48","1.266","41.567","0.14","0.31","29.2605","4.64023","46.75","0","SATNPRO1509","30.196","0.42298","5"],
    [23023,"HCEP03730566","2024-05-25 04:00:00","9.5491","3.20637","27.402","4.437","7.49","1.19","43.451","0.14","0.49","29.2607","4.6403","46.92","0","SATNPRO1509","30.19","0.42286","5"],
    [23024,"HCEP03730566","2024-05-25 04:15:00","9.5469","3.2062","27.44","4.443","7.49","1.266","27.373","0.28","0.21","29.2609","4.64037","46.98","0","SATNPRO1509","30.26","0.42382","5"],
    [23025,"HCEP03730566","2024-05-25 04:30:00","9.5448","3.20603","27.467","4.455","7.49","1.323","20.927","0.26","0.49","29.2607","4.64039","47.11","0","SATNPRO1509","30.322","0.42474","5"],
    [23026,"HCEP03730566","2024-05-25 04:45:00","9.5421","3.20569","27.477","4.465","7.49","1.296","14.253","0.24","0.23","29.2595","4.64026","47.21","0","SATNPRO1509","30.42","0.4261","5"],
    [23027,"HCEP03730566","2024-05-25 05:00:00","9.5411","3.2054","27.463","4.475","7.49","1.242","8.919","0.14","0.2","29.2574","4.63998","47.31","0","SATNPRO1509","30.504","0.42726","5"],
    [23028,"HCEP03730566","2024-05-25 05:15:00","9.539","3.20507","27.448","4.484","7.49","1.327","6.337","0.16","0.41","29.2558","4.63978","47.41","0","SATNPRO1509","30.442","0.4264","5"],
    [23029,"HCEP03730566","2024-05-25 05:30:00","9.5335","3.20494","27.418","4.488","7.49","1.483","4.747","0.22","0.21","29.259","4.64033","47.45","0","SATNPRO1509","30.51","0.4273","5"],
    [23030,"HCEP03730566","2024-05-25 05:45:00","9.5317","3.20514","27.356","4.479","7.49","1.361","3.854","0.14","0.12","29.2625","4.64086","47.35","0","SATNPRO1509","30.387999999999998","0.42562","5"],
    [23031,"HCEP03730566","2024-05-25 06:00:00","9.5311","3.20526","27.283","4.46","7.49","1.535","3.9","0.12","0.13","29.2643","4.64112","47.15","0","SATNPRO1509","30.398","0.42572","5"],
    [23032,"HCEP03730566","2024-05-25 06:15:00","9.5286","3.20542","27.193","4.452","7.49","1.551","3.239","0.23","0.17","29.2679","4.64168","47.06","0","SATNPRO1509","30.59","0.42846","5"],
    [23033,"HCEP03730566","2024-05-25 06:30:00","9.5274","3.20541","27.076","4.466","7.49","1.578","2.64","0.29","0.11","29.2689","4.64183","47.21","0","SATNPRO1509","30.580000000000002","0.42832","5"],
    [23034,"HCEP03730566","2024-05-25 06:45:00","9.5258","3.2053","26.958","4.463","7.49","1.676","2.861","0.29","0.24","29.2691","4.64189","47.18","0","SATNPRO1509","30.614","0.42882","5"],
    [23035,"HCEP03730566","2024-05-25 07:00:00","9.5255","3.20532","26.816","4.472","7.49","1.682","2.567","0.29","0.11","29.2696","4.64195","47.27","0","SATNPRO1509","30.436","0.42628","5"],
    [23036,"HCEP03730566","2024-05-25 07:15:00","9.5248","3.20527","26.67","4.473","7.49","1.614","2.335","0.22","0.15","29.2697","4.64198","47.29","0","SATNPRO1509","30.618","0.42886","5"],
    [23037,"HCEP03730566","2024-05-25 07:30:00","9.5248","3.20528","26.534","4.472","7.49","1.614","2.457","0.24","0.21","29.2699","4.642","47.27","0","SATNPRO1509","30.614","0.4288","5"],
    [23038,"HCEP03730566","2024-05-25 07:45:00","9.5254","3.20528","26.383","4.467","7.49","1.641","2.409","0.28","0.21","29.2695","4.64192","47.21","0","SATNPRO1509","30.604","0.42866","5"],
    [23039,"HCEP03730566","2024-05-25 08:00:00","9.5254","3.20525","26.162","4.463","7.49","1.598","2.366","0.23","0.24","29.2693","4.64187","47.18","0","SATNPRO1509","30.658","0.42942","5"],
    [23040,"HCEP03730566","2024-05-25 08:15:00","9.5253","3.20524","25.942","4.472","7.49","1.608","2.199","0.39","0.14","29.2693","4.64187","47.27","0","SATNPRO1509","30.562","0.42812","5"],
    [23041,"HCEP03730566","2024-05-25 08:30:00","9.5274","3.20536","25.725","4.464","7.49","1.598","2.499","0.19","0.23","29.2689","4.64176","47.19","0","SATNPRO1509","30.58","0.4283","5"],
    [23042,"HCEP03730566","2024-05-25 08:45:00","9.529","3.20534","25.48","4.438","7.49","1.697","2.674","0.22","0.17","29.2675","4.64152","46.92","0","SATNPRO1509","30.466","0.42674","5"],
    [23043,"HCEP03730566","2024-05-25 09:00:00","9.5305","3.20528","25.243","4.416","7.49","1.883","3.193","0.21","0.2","29.2657","4.64123","46.68","0","SATNPRO1509","30.514","0.4274","5"],
    [23044,"HCEP03730566","2024-05-25 09:15:00","9.5318","3.20529","25.003","4.384","7.49","2.049","3.669","0.21","0.21","29.2649","4.64107","46.35","0","SATNPRO1509","30.323999999999998","0.42472","5"],
    [23045,"HCEP03730566","2024-05-25 09:30:00","9.5356","3.20554","24.8","4.339","7.49","2.172","3.579","0.38","0.31","29.2644","4.64092","45.88","0","SATNPRO1509","30.253999999999998","0.42376","5"],
    [23046,"HCEP03730566","2024-05-25 09:45:00","9.5375","3.20576","24.589","4.337","7.48","1.748","3.034","0.26","0.16","29.2652","4.64099","45.86","0","SATNPRO1509","30.43","0.42624","5"],
    [23047,"HCEP03730566","2024-05-25 10:00:00","9.5382","3.20574","24.394","4.364","7.48","1.627","2.687","0.16","0.15","29.2645","4.64086","46.14","0","SATNPRO1509","30.376","0.42546","5"],
    [23048,"HCEP03730566","2024-05-25 10:15:00","9.5384","3.20609","24.228","4.337","7.48","1.852","2.934","0.22","0.15","29.268","4.64135","45.85","0","SATNPRO1509","30.342","0.425","5"],
    [23049,"HCEP03730566","2024-05-25 10:30:00","9.5406","3.20627","24.12","4.325","7.48","1.712","2.408","0.2","0.14","29.268","4.6413","45.73","0","SATNPRO1509","30.302","0.42442","5"],
    [23050,"HCEP03730566","2024-05-25 10:45:00","9.54","3.20623","23.981","4.315","7.48","1.911","2.622","0.22","0.14","29.2682","4.64134","45.63","0","SATNPRO1509","30.204","0.42308","5"],
    [23051,"HCEP03730566","2024-05-25 11:00:00","9.5424","3.20639","23.885","4.297","7.48","1.833","2.498","0.29","0.11","29.2678","4.64123","45.44","0","SATNPRO1509","30.216","0.4232","5"],
    [23052,"HCEP03730566","2024-05-25 11:15:00","9.5413","3.20632","23.888","4.306","7.48","1.813","2.552","0.21","0.14","29.2681","4.64129","45.53","0","SATNPRO1509","30.236","0.4235","5"],
    [23053,"HCEP03730566","2024-05-25 11:30:00","9.5406","3.20624","23.865","4.308","7.48","1.789","2.461","0.22","0.13","29.2679","4.64127","45.55","0","SATNPRO1509","30.242","0.4236","5"],
    [23054,"HCEP03730566","2024-05-25 11:45:00","9.5397","3.20621","23.903","4.306","7.48","1.715","2.387","0.19","0.16","29.2682","4.64134","45.54","0","SATNPRO1509","30.244","0.4236","5"],
    [23055,"HCEP03730566","2024-05-25 12:00:00","9.5406","3.20625","23.885","4.31","7.48","1.666","2.381","0.22","0.17","29.2679","4.64128","45.58","0","SATNPRO1509","30.334","0.42488","5"],
    [23056,"HCEP03730566","2024-05-25 12:15:00","9.5393","3.20621","23.958","4.304","7.48","1.983","2.716","0.45","0.13","29.2685","4.6414","45.51","0","SATNPRO1509","30.222","0.42334","5"],
    [23057,"HCEP03730566","2024-05-25 12:30:00","9.5421","3.20633","24.01","4.304","7.48","1.733","2.184","0.29","0.17","29.2675","4.6412","45.52","0","SATNPRO1509","30.31","0.42456","5"],
    [23058,"HCEP03730566","2024-05-25 12:45:00","9.5428","3.20631","24.111","4.321","7.48","1.67","2.342","0.19","0.21","29.2667","4.64108","45.69","0","SATNPRO1509","30.354","0.42516","5"],
    [23059,"HCEP03730566","2024-05-25 13:00:00","9.5413","3.20631","24.23","4.314","7.48","1.562","2.28","0.16","0.23","29.2677","4.64127","45.61","0","SATNPRO1509","30.378","0.42544","5"],
    [23060,"HCEP03730566","2024-05-25 13:15:00","9.541","3.2063","24.355","4.286","7.48","1.674","2.445","0.17","0.13","29.2679","4.6413","45.32","0","SATNPRO1509","30.308","0.42452","5"],
    [23061,"HCEP03730566","2024-05-25 13:30:00","9.5412","3.20635","24.465","4.262","7.48","1.644","2.645","0.21","0.15","29.2682","4.64134","45.06","0","SATNPRO1509","30.25","0.42368","5"],
    [23062,"HCEP03730566","2024-05-25 13:45:00","9.5425","3.20643","24.657","4.213","7.47","1.951","3.744","0.17","0.25","29.2679","4.64128","44.55","0","SATNPRO1509","30.092","0.4215","5"],
    [23063,"HCEP03730566","2024-05-25 14:00:00","9.5439","3.20643","24.791","4.171","7.47","1.972","4.24","0.27","0.17","29.2667","4.6411","44.11","0","SATNPRO1509","29.784","0.41718","5"],
    [23064,"HCEP03730566","2024-05-25 14:15:00","9.5433","3.20629","24.975","4.186","7.47","1.985","3.914","0.27","0.22","29.2656","4.64097","44.26","0","SATNPRO1509","29.948","0.41948","5"],
    [23065,"HCEP03730566","2024-05-25 14:30:00","9.5279","3.20525","25.096","4.501","7.48","1.477","3.239","0.16","0.27","29.2676","4.64153","47.59","0","SATNPRO1509","30.458","0.42666","5"],
    [23066,"HCEP03730566","2024-05-25 14:45:00","9.5252","3.2051","25.313","4.627","7.5","1.379","2.96","0.14","0.19","29.2682","4.64168","48.91","0","SATNPRO1509","30.496","0.42714","5"],
    [23067,"HCEP03730566","2024-05-25 15:00:00","9.5321","3.20556","25.503","4.606","7.5","1.438","3.58","0.14","0.28","29.2672","4.64142","48.69","0","SATNPRO1509","30.554","0.42802","5"],
    [23068,"HCEP03730566","2024-05-25 15:15:00","9.5451","3.20589","25.694","4.486","7.5","1.406","3.514","0.21","0.27","29.2598","4.64015","47.44","0","SATNPRO1509","30.2","0.423","5"],
    [23069,"HCEP03730566","2024-05-25 15:30:00","9.5506","3.20615","25.929","4.417","7.5","1.383","3.621","0.13","0.3","29.2579","4.63978","46.71","0","SATNPRO1509","30.098","0.42154","5"],
    [23070,"HCEP03730566","2024-05-25 15:45:00","9.5565","3.20613","26.133","4.371","7.49","1.399","3.682","0.22","0.27","29.2528","4.63897","46.24","0","SATNPRO1509","30.094","0.4215","5"],
    [23071,"HCEP03730566","2024-05-25 16:00:00","9.5604","3.20584","26.355","4.407","7.49","1.227","3.047","0.19","0.19","29.2466","4.63802","46.61","0","SATNPRO1509","30.034000000000002","0.42068","5"],
    [23072,"HCEP03730566","2024-05-25 16:15:00","9.5637","3.20577","26.588","4.443","7.49","1.136","2.853","0.13","0.19","29.2431","4.63748","47","0","SATNPRO1509","30.177999999999997","0.42266","5"],
    [23073,"HCEP03730566","2024-05-25 16:30:00","9.564","3.20612","26.782","4.417","7.49","1.252","3.632","0.13","0.24","29.2463","4.63794","46.72","0","SATNPRO1509","30.006","0.4203","5"],
    [23074,"HCEP03730566","2024-05-25 16:45:00","9.5703","3.20634","26.905","4.378","7.49","1.325","3.418","0.18","0.18","29.2434","4.63742","46.32","0","SATNPRO1509","29.866","0.41836","5"],
    [23075,"HCEP03730566","2024-05-25 17:00:00","9.575","3.20636","27.135","4.328","7.48","1.318","3.506","0.13","0.27","29.2397","4.63683","45.79","0","SATNPRO1509","29.716","0.41626","5"],
    [23076,"HCEP03730566","2024-05-25 17:15:00","9.5776","3.20641","27.365","4.307","7.48","1.384","3.617","0.28","0.33","29.2379","4.63654","45.57","0","SATNPRO1509","29.534","0.4137","5"],
    [23077,"HCEP03730566","2024-05-25 17:30:00","9.5814","3.20637","27.517","4.297","7.48","1.359","3.669","0.28","0.45","29.2344","4.63597","45.46","0","SATNPRO1509","29.366","0.4113","5"],
    [23078,"HCEP03730566","2024-05-25 17:45:00","9.5848","3.20631","27.641","4.295","7.48","1.12","3.672","0.12","0.61","29.2309","4.63542","45.45","0","SATNPRO1509","29.594","0.41452","5"],
    [23079,"HCEP03730566","2024-05-25 18:00:00","9.5841","3.20625","27.741","4.293","7.48","1.092","3.962","0.12","0.42","29.2309","4.63543","45.43","0","SATNPRO1509","29.532","0.41366","5"],
    [23080,"HCEP03730566","2024-05-25 18:15:00","9.5832","3.20623","27.872","4.3","7.48","1.017","3.688","0.09","0.27","29.2314","4.63553","45.5","0","SATNPRO1509","29.522","0.4135","5"],
    [23081,"HCEP03730566","2024-05-25 18:30:00","9.5831","3.20622","27.868","4.306","7.48","0.888","3.577","0.06","0.36","29.2313","4.63552","45.56","0","SATNPRO1509","29.488","0.41302","5"],
    [23082,"HCEP03730566","2024-05-25 18:45:00","9.5859","3.20623","27.838","4.306","7.48","0.782","3.413","0.06","0.52","29.2292","4.63516","45.56","0","SATNPRO1509","29.586","0.41438","5"],
    [23083,"HCEP03730566","2024-05-25 19:00:00","9.5884","3.20623","27.883","4.311","7.48","0.667","3.501","0.02","0.45","29.2272","4.63483","45.62","0","SATNPRO1509","29.632","0.41504","5"],
    [23084,"HCEP03730566","2024-05-25 19:15:00","9.5876","3.20637","27.85","4.317","7.48","0.554","3.543","0.02","0.27","29.2293","4.63515","45.68","0","SATNPRO1509","29.656","0.41538","5"],
    [23085,"HCEP03730566","2024-05-25 19:30:00","9.5843","3.20637","27.912","4.32","7.48","0.452","5.058","0.01","0.31","29.2319","4.63559","45.72","0","SATNPRO1509","29.490000000000002","0.41302","5"],
    [23086,"HCEP03730566","2024-05-25 19:45:00","9.589","3.20651","27.937","4.31","7.48","0.357","7.694","0.01","0.67","29.2295","4.63517","45.62","0","SATNPRO1509","29.53","0.4136","5"],
    [23087,"HCEP03730566","2024-05-25 20:00:00","9.5815","3.20631","27.932","4.299","7.48","0.271","15.064","0.01","0.47","29.2335","4.63586","45.49","0","SATNPRO1509","29.432","0.4123","5"],
    [23088,"HCEP03730566","2024-05-25 20:15:00","9.5773","3.20617","27.899","4.306","7.48","0.201","29.348","0.01","0.31","29.2355","4.63623","45.56","0","SATNPRO1509","29.692","0.41592","5"],
    [23089,"HCEP03730566","2024-05-25 20:30:00","9.5778","3.20578","27.808","4.322","7.48","0.161","55.393","0.01","0.36","29.2312","4.6356","45.73","0","SATNPRO1509","29.73","0.41642","5"],
    [23090,"HCEP03730566","2024-05-25 20:45:00","9.5733","3.20494","27.785","4.379","7.48","0.155","100.61","0.02","0.29","29.2265","4.63499","46.33","0","SATNPRO1509","29.779999999999998","0.4171","5"],
    [23091,"HCEP03730566","2024-05-25 21:00:00","9.5673","3.20449","27.725","4.421","7.49","0.177","172.402","0.02","0.26","29.2269","4.63515","46.76","0","SATNPRO1509","29.86","0.4182","5"],
    [23092,"HCEP03730566","2024-05-25 21:15:00","9.567","3.2044","27.619","4.426","7.49","0.232","276.949","0.03","0.4","29.2262","4.63506","46.81","0","SATNPRO1509","29.78","0.41712","5"],
    [23093,"HCEP03730566","2024-05-25 21:30:00","9.5667","3.20502","27.553","4.44","7.49","0.274","418.353","0.04","0.45","29.2328","4.636","46.97","0","SATNPRO1509","29.932","0.41924","5"],
    [23094,"HCEP03730566","2024-05-25 21:45:00","9.5629","3.20532","27.464","4.447","7.49","0.332","540.444","0.06","0.79","29.2389","4.63693","47.04","0","SATNPRO1509","30.032","0.42062","5"],
    [23095,"HCEP03730566","2024-05-25 22:00:00","9.5609","3.20539","27.409","4.439","7.49","0.454","602.283","0.08","0.84","29.2413","4.63731","46.95","0","SATNPRO1509","29.918","0.41904","5"],
    [23096,"HCEP03730566","2024-05-25 22:15:00","9.5598","3.20537","27.349","4.41","7.49","0.479","604.365","0.08","1.6","29.242","4.63743","46.65","0","SATNPRO1509","30.044","0.42082","5"],
    [23097,"HCEP03730566","2024-05-25 22:30:00","9.5573","3.20532","27.276","4.411","7.49","0.482","551.014","0.08","0.51","29.2436","4.63769","46.66","0","SATNPRO1509","30.042","0.42078","5"],
    [23098,"HCEP03730566","2024-05-25 22:45:00","9.5561","3.2051","27.178","4.436","7.49","0.542","460.631","0.09","1.34","29.2423","4.63753","46.91","0","SATNPRO1509","30.058","0.42102","5"],
    [23099,"HCEP03730566","2024-05-25 23:00:00","9.5558","3.20524","27.103","4.436","7.49","0.463","351.218","0.06","0.41","29.244","4.63777","46.92","0","SATNPRO1509","30.102","0.42166","5"],
    [23100,"HCEP03730566","2024-05-25 23:15:00","9.5541","3.2053","27.023","4.452","7.49","0.512","248.471","0.09","0.21","29.246","4.63808","47.08","0","SATNPRO1509","30.132","0.42204","5"],
    [23101,"HCEP03730566","2024-05-25 23:30:00","9.5531","3.20505","26.941","4.451","7.49","0.546","123.364","0.1","0.17","29.2444","4.63786","47.08","0","SATNPRO1509","30.13","0.422","5"],
    [23102,"HCEP03730566","2024-05-25 23:45:00","9.5488","3.20477","26.883","4.471","7.49","0.52","46.578","0.12","0.1","29.245","4.63803","47.28","0","SATNPRO1509","30.16","0.42244","5"],
    [23103,"HCEP03730566","2024-05-26 00:00:00","9.5463","3.20466","26.846","4.468","7.49","0.54","24.122","0.17","0.11","29.246","4.63821","47.25","0","SATNPRO1509","30.172","0.42262","5"],
    [23104,"HCEP03730566","2024-05-26 00:15:00","9.5448","3.20488","26.819","4.481","7.49","0.441","8.473","0.06","0.02","29.2494","4.63872","47.38","0","SATNPRO1509","30.136","0.4221","5"],
    [23105,"HCEP03730566","2024-05-26 00:30:00","9.5424","3.20446","26.808","4.488","7.5","0.437","1.304","0.15","0.02","29.2472","4.63845","47.45","0","SATNPRO1509","30.294","0.42434","5"],
    [23106,"HCEP03730566","2024-05-26 00:45:00","9.5413","3.20448","26.808","4.5","7.5","0.353","0.269","0.05","0.01","29.2483","4.63862","47.58","0","SATNPRO1509","30.204","0.42306","5"],
    [23107,"HCEP03730566","2024-05-26 01:00:00","9.5394","3.20444","26.837","4.486","7.5","0.317","0.251","0.07","0.02","29.2494","4.63882","47.43","0","SATNPRO1509","30.07","0.42122","5"],
    [23108,"HCEP03730566","2024-05-26 01:15:00","9.538","3.20434","26.842","4.494","7.5","0.286","0.249","0.06","0.02","29.2495","4.63886","47.51","0","SATNPRO1509","30.176000000000002","0.42266","5"],
    [23109,"HCEP03730566","2024-05-26 01:30:00","9.5373","3.20444","26.899","4.486","7.5","0.247","0.266","0.03","0.02","29.251","4.6391","47.43","0","SATNPRO1509","30.168","0.42258","5"],
    [23110,"HCEP03730566","2024-05-26 01:45:00","9.5366","3.20437","26.89","4.492","7.5","0.194","0.324","0.03","0.02","29.251","4.63909","47.49","0","SATNPRO1509","30.322","0.42472","5"],
    [23111,"HCEP03730566","2024-05-26 02:00:00","9.5369","3.20445","26.954","4.497","7.5","0.18","0.537","0.02","0.02","29.2515","4.63917","47.55","0","SATNPRO1509","30.256","0.42378","5"],
    [23112,"HCEP03730566","2024-05-26 02:15:00","9.5367","3.20442","26.947","4.497","7.5","0.175","0.75","0.02","0.07","29.2514","4.63916","47.54","0","SATNPRO1509","30.264","0.4239","5"],
    [23113,"HCEP03730566","2024-05-26 02:30:00","9.5364","3.2047","27.026","4.497","7.5","0.168","0.79","0.02","0.03","29.2544","4.63959","47.54","0","SATNPRO1509","30.38","0.42552","5"],
    [23114,"HCEP03730566","2024-05-26 02:45:00","9.5359","3.20471","27.075","4.496","7.5","0.199","0.925","0.04","0.07","29.2549","4.63968","47.53","0","SATNPRO1509","30.316","0.42466","5"],
    [23115,"HCEP03730566","2024-05-26 03:00:00","9.5343","3.20485","27.123","4.527","7.5","0.203","0.927","0.05","0.12","29.2576","4.6401","47.86","0","SATNPRO1509","30.394","0.42572","5"],
    [23116,"HCEP03730566","2024-05-26 03:15:00","9.5317","3.20485","27.133","4.56","7.5","0.25","0.903","0.07","0.07","29.2597","4.64045","48.2","0","SATNPRO1509","30.342","0.425","5"],
    [23117,"HCEP03730566","2024-05-26 03:30:00","9.5258","3.20466","27.201","4.607","7.51","0.261","0.936","0.04","0.08","29.2625","4.64096","48.7","0","SATNPRO1509","30.41","0.42594","5"],
    [23118,"HCEP03730566","2024-05-26 03:45:00","9.5226","3.20449","27.241","4.703","7.52","0.272","1.051","0.04","0.18","29.2634","4.64115","49.7","0","SATNPRO1509","30.436","0.42634","5"],
    [23119,"HCEP03730566","2024-05-26 04:00:00","9.521","3.20452","27.286","4.766","7.52","0.331","1.086","0.07","0.18","29.265","4.6414","50.38","0","SATNPRO1509","30.578","0.4283","5"],
    [23120,"HCEP03730566","2024-05-26 04:15:00","9.5172","3.20423","27.368","4.856","7.53","0.398","1.196","0.14","0.31","29.2651","4.6415","51.32","0","SATNPRO1509","30.642","0.4292","5"],
    [23121,"HCEP03730566","2024-05-26 04:30:00","9.5152","3.20412","27.399","4.906","7.54","0.438","1.136","0.1","0.18","29.2656","4.6416","51.85","0","SATNPRO1509","30.752","0.4307","5"],
    [23122,"HCEP03730566","2024-05-26 04:45:00","9.5144","3.20407","27.438","4.944","7.54","0.521","1.561","0.12","0.18","29.2657","4.64164","52.24","0","SATNPRO1509","30.668","0.42958","5"],
    [23123,"HCEP03730566","2024-05-26 05:00:00","9.5157","3.2042","27.456","4.91","7.54","0.6","1.699","0.12","0.21","29.2661","4.64166","51.89","0","SATNPRO1509","30.516","0.42744","5"],
    [23124,"HCEP03730566","2024-05-26 05:15:00","9.5147","3.20415","27.484","4.883","7.54","0.541","1.597","0.09","0.45","29.2663","4.64171","51.6","0","SATNPRO1509","30.674","0.42962","5"],
    [23125,"HCEP03730566","2024-05-26 05:30:00","9.5132","3.20412","27.481","4.904","7.54","0.697","1.831","0.2","0.75","29.2673","4.64188","51.83","0","SATNPRO1509","30.612000000000002","0.42872","5"],
    [23126,"HCEP03730566","2024-05-26 05:45:00","9.5137","3.20412","27.452","4.897","7.54","0.664","1.767","0.11","0.28","29.2668","4.64181","51.75","0","SATNPRO1509","30.516000000000002","0.42746","5"],
    [23127,"HCEP03730566","2024-05-26 06:00:00","9.5136","3.20415","27.466","4.882","7.54","0.835","2.146","0.16","0.23","29.2672","4.64186","51.59","0","SATNPRO1509","30.518","0.42742","5"],
    [23128,"HCEP03730566","2024-05-26 06:15:00","9.5136","3.20417","27.418","4.855","7.54","0.839","2.115","0.13","0.16","29.2675","4.6419","51.31","0","SATNPRO1509","30.554","0.42792","5"],
    [23129,"HCEP03730566","2024-05-26 06:30:00","9.5139","3.20426","27.381","4.831","7.54","1.027","2.173","0.32","0.16","29.2682","4.64199","51.06","0","SATNPRO1509","30.616","0.42884","5"],
    [23130,"HCEP03730566","2024-05-26 06:45:00","9.5132","3.20414","27.303","4.83","7.54","1.019","2.273","0.21","0.27","29.2676","4.64191","51.04","0","SATNPRO1509","30.66","0.42946","5"],
    [23131,"HCEP03730566","2024-05-26 07:00:00","9.5125","3.20392","27.182","4.868","7.54","0.872","1.861","0.17","0.11","29.2659","4.64167","51.44","0","SATNPRO1509","30.794","0.4313","5"],
    [23132,"HCEP03730566","2024-05-26 07:15:00","9.5135","3.20421","27.093","4.874","7.54","0.978","2.306","0.2","0.13","29.2681","4.64197","51.51","0","SATNPRO1509","30.576","0.42822","5"],
    [23133,"HCEP03730566","2024-05-26 07:30:00","9.5142","3.20423","26.969","4.819","7.54","0.974","2.406","0.18","0.18","29.2678","4.6419","50.93","0","SATNPRO1509","30.568","0.42816","5"],
    [23134,"HCEP03730566","2024-05-26 07:45:00","9.5142","3.20415","26.782","4.813","7.54","0.91","2.226","0.23","0.15","29.267","4.64179","50.87","0","SATNPRO1509","30.63","0.42906","5"],
    [23135,"HCEP03730566","2024-05-26 08:00:00","9.516","3.20429","26.634","4.796","7.54","1.007","2.55","0.29","0.19","29.2671","4.64176","50.69","0","SATNPRO1509","30.538","0.42772","5"],
    [23136,"HCEP03730566","2024-05-26 08:15:00","9.5168","3.20421","26.452","4.775","7.54","0.993","2.708","0.22","0.19","29.2656","4.64151","50.47","0","SATNPRO1509","30.506","0.4273","5"],
    [23137,"HCEP03730566","2024-05-26 08:30:00","9.5169","3.2041","26.198","4.799","7.54","0.922","2.419","0.28","0.22","29.2645","4.64135","50.72","0","SATNPRO1509","30.454","0.42654","5"],
    [23138,"HCEP03730566","2024-05-26 08:45:00","9.5175","3.20403","25.947","4.841","7.54","0.845","2.288","0.1","0.22","29.2634","4.64116","51.16","0","SATNPRO1509","30.526","0.4276","5"],
    [23139,"HCEP03730566","2024-05-26 09:00:00","9.5188","3.20395","25.772","4.853","7.54","0.822","2.457","0.12","0.21","29.2616","4.64088","51.29","0","SATNPRO1509","30.516000000000002","0.42744","5"],
    [23140,"HCEP03730566","2024-05-26 09:15:00","9.5209","3.20387","25.436","4.86","7.54","0.814","2.451","0.15","0.31","29.2592","4.64047","51.37","0","SATNPRO1509","30.536","0.42774","5"],
    [23141,"HCEP03730566","2024-05-26 09:30:00","9.5218","3.2037","25.128","4.901","7.54","0.871","1.883","0.29","0.15","29.257","4.64012","51.79","0","SATNPRO1509","30.634","0.42908","5"],
    [23142,"HCEP03730566","2024-05-26 09:45:00","9.5209","3.20362","24.889","4.955","7.55","0.763","1.982","0.21","0.26","29.2569","4.64011","52.37","0","SATNPRO1509","30.64","0.42918","5"],
    [23143,"HCEP03730566","2024-05-26 10:00:00","9.5216","3.20354","24.693","4.979","7.55","0.774","1.91","0.19","0.18","29.2557","4.63991","52.63","0","SATNPRO1509","30.584","0.42836","5"],
    [23144,"HCEP03730566","2024-05-26 10:15:00","9.5185","3.20361","24.395","4.99","7.55","0.759","1.912","0.15","0.25","29.259","4.64042","52.73","0","SATNPRO1509","30.65","0.42932","5"],
    [23145,"HCEP03730566","2024-05-26 10:30:00","9.5201","3.20361","24.259","4.986","7.55","0.726","2.149","0.12","0.25","29.2577","4.6402","52.69","0","SATNPRO1509","30.618","0.42888","5"],
    [23146,"HCEP03730566","2024-05-26 10:45:00","9.5239","3.20379","24.092","4.936","7.55","0.788","2.506","0.1","0.16","29.2566","4.63996","52.17","0","SATNPRO1509","30.49","0.4271","5"],
    [23147,"HCEP03730566","2024-05-26 11:00:00","9.5276","3.20387","23.968","4.811","7.54","0.781","2.501","0.11","0.14","29.2544","4.63958","50.85","0","SATNPRO1509","30.522","0.42752","5"],
    [23148,"HCEP03730566","2024-05-26 11:15:00","9.5276","3.20376","23.898","4.771","7.54","0.819","2.83","0.18","0.2","29.2533","4.63942","50.44","0","SATNPRO1509","30.486","0.427","5"],
    [23149,"HCEP03730566","2024-05-26 11:30:00","9.5256","3.20377","23.817","4.777","7.54","0.847","3.025","0.13","0.22","29.2551","4.6397","50.49","0","SATNPRO1509","30.418","0.4261","5"],
    [23150,"HCEP03730566","2024-05-26 11:45:00","9.5292","3.20373","23.765","4.777","7.54","0.77","2.817","0.06","0.14","29.2518","4.63917","50.49","0","SATNPRO1509","30.408","0.42592","5"],
    [23151,"HCEP03730566","2024-05-26 12:00:00","9.5277","3.20379","23.725","4.765","7.53","0.801","2.781","0.09","0.14","29.2537","4.63946","50.37","0","SATNPRO1509","30.408","0.42592","5"],
    [23152,"HCEP03730566","2024-05-26 12:15:00","9.5286","3.20379","23.78","4.767","7.53","0.75","2.761","0.08","0.19","29.2528","4.63932","50.38","0","SATNPRO1509","30.418","0.42604","5"],
    [23153,"HCEP03730566","2024-05-26 12:30:00","9.5298","3.2038","23.788","4.772","7.53","0.727","2.738","0.06","0.15","29.252","4.63918","50.44","0","SATNPRO1509","30.52","0.42748","5"],
    [23154,"HCEP03730566","2024-05-26 12:45:00","9.5309","3.20386","23.831","4.771","7.53","0.793","2.832","0.16","0.1","29.2517","4.63912","50.43","0","SATNPRO1509","30.354","0.4252","5"],
    [23155,"HCEP03730566","2024-05-26 13:00:00","9.5362","3.20404","23.861","4.699","7.53","0.768","2.831","0.13","0.15","29.2491","4.63867","49.67","0","SATNPRO1509","30.419999999999998","0.42608","5"],
    [23156,"HCEP03730566","2024-05-26 13:15:00","9.5408","3.20421","23.939","4.62","7.52","0.822","3.183","0.09","0.2","29.2471","4.6383","48.85","0","SATNPRO1509","30.282","0.4242","5"],
    [23157,"HCEP03730566","2024-05-26 13:30:00","9.5486","3.20444","24.054","4.538","7.52","0.829","3.08","0.1","0.15","29.2431","4.63759","47.99","0","SATNPRO1509","30.212","0.42316","5"],
    [23158,"HCEP03730566","2024-05-26 13:45:00","9.5578","3.20465","24.176","4.463","7.51","0.822","2.989","0.16","0.21","29.2376","4.63665","47.2","0","SATNPRO1509","30.026","0.42056","5"],
    [23159,"HCEP03730566","2024-05-26 14:00:00","9.5638","3.20482","24.279","4.41","7.5","0.82","3.351","0.09","0.11","29.2344","4.6361","46.65","0","SATNPRO1509","29.942","0.41942","5"],
    [23160,"HCEP03730566","2024-05-26 14:15:00","9.5688","3.2048","24.454","4.355","7.5","0.842","3.623","0.06","0.18","29.2301","4.6354","46.06","0","SATNPRO1509","29.824","0.41772","5"],
    [23161,"HCEP03730566","2024-05-26 14:30:00","9.5726","3.20478","24.558","4.304","7.49","0.926","3.932","0.1","0.21","29.2267","4.63485","45.53","0","SATNPRO1509","29.608","0.41472","5"],
    [23162,"HCEP03730566","2024-05-26 14:45:00","9.5761","3.20454","24.712","4.275","7.49","0.907","4.32","0.07","0.26","29.2214","4.63404","45.23","0","SATNPRO1509","29.541999999999998","0.41374","5"],
    [23163,"HCEP03730566","2024-05-26 15:00:00","9.5814","3.20424","24.859","4.272","7.49","0.916","4.99","0.1","0.26","29.214","4.6329","45.19","0","SATNPRO1509","29.548","0.41386","5"],
    [23164,"HCEP03730566","2024-05-26 15:15:00","9.5844","3.20388","25.045","4.277","7.48","0.957","5.066","0.1","0.23","29.2079","4.63199","45.25","0","SATNPRO1509","29.434","0.41226","5"],
    [23165,"HCEP03730566","2024-05-26 15:30:00","9.5865","3.20352","25.227","4.277","7.49","0.958","5.371","0.15","0.25","29.2024","4.63117","45.25","0","SATNPRO1509","29.398","0.41176","5"],
    [23166,"HCEP03730566","2024-05-26 15:45:00","9.5902","3.20328","25.429","4.291","7.49","0.931","6.491","0.06","0.37","29.1969","4.63033","45.4","0","SATNPRO1509","29.292","0.4103","5"],
    [23167,"HCEP03730566","2024-05-26 16:00:00","9.5943","3.20289","25.642","4.289","7.49","0.947","6.799","0.07","0.33","29.1895","4.62921","45.39","0","SATNPRO1509","29.248","0.40968","5"],
    [23168,"HCEP03730566","2024-05-26 16:15:00","9.6014","3.20233","25.889","4.291","7.49","0.919","6.936","0.07","0.41","29.1781","4.62746","45.41","0","SATNPRO1509","29.11","0.4077","5"],
    [23169,"HCEP03730566","2024-05-26 16:30:00","9.6131","3.20168","26.13","4.321","7.49","0.922","6.604","0.12","0.45","29.1619","4.62495","45.74","0","SATNPRO1509","28.998","0.40618","5"],
    [23170,"HCEP03730566","2024-05-26 16:45:00","9.624","3.20135","26.376","4.352","7.49","0.822","6.498","0.06","0.42","29.1497","4.62303","46.07","0","SATNPRO1509","28.843999999999998","0.404","5"],
    [23171,"HCEP03730566","2024-05-26 17:00:00","9.6238","3.20149","26.629","4.37","7.49","0.835","6.558","0.1","0.39","29.1511","4.62324","46.26","0","SATNPRO1509","28.858","0.40424","5"],
    [23172,"HCEP03730566","2024-05-26 17:15:00","9.6271","3.20146","26.804","4.353","7.49","0.794","6.249","0.08","0.37","29.1481","4.62277","46.08","0","SATNPRO1509","28.762","0.40286","5"],
    [23173,"HCEP03730566","2024-05-26 17:30:00","9.6288","3.20157","26.979","4.338","7.49","0.75","5.884","0.05","0.35","29.1478","4.6227","45.92","0","SATNPRO1509","28.692","0.4019","5"],
    [23174,"HCEP03730566","2024-05-26 17:45:00","9.6313","3.20159","27.195","4.322","7.49","0.743","5.425","0.06","0.19","29.1458","4.62238","45.76","0","SATNPRO1509","28.716","0.40222","5"],
    [23175,"HCEP03730566","2024-05-26 18:00:00","9.6333","3.20154","27.338","4.318","7.49","0.727","5.748","0.06","0.25","29.1437","4.62206","45.71","0","SATNPRO1509","28.69","0.40186","5"],
    [23176,"HCEP03730566","2024-05-26 18:15:00","9.6358","3.20138","27.531","4.32","7.49","0.734","7.302","0.12","0.26","29.1399","4.62149","45.74","0","SATNPRO1509","28.688","0.40178","5"],
    [23177,"HCEP03730566","2024-05-26 18:30:00","9.6367","3.20139","27.67","4.331","7.49","0.692","12.766","0.07","0.34","29.1392","4.62137","45.86","0","SATNPRO1509","28.72","0.4023","5"],
    [23178,"HCEP03730566","2024-05-26 18:45:00","9.6337","3.20154","27.84","4.326","7.49","0.698","20.828","0.08","0.26","29.1431","4.62199","45.8","0","SATNPRO1509","28.714","0.4022","5"],
    [23179,"HCEP03730566","2024-05-26 19:00:00","9.6328","3.20158","27.918","4.311","7.49","0.707","27.667","0.06","0.15","29.1442","4.62217","45.64","0","SATNPRO1509","28.676000000000002","0.40168","5"],
    [23180,"HCEP03730566","2024-05-26 19:15:00","9.6309","3.20165","27.974","4.31","7.49","0.736","32.917","0.07","0.19","29.1465","4.62253","45.63","0","SATNPRO1509","28.726","0.40236","5"],
    [23181,"HCEP03730566","2024-05-26 19:30:00","9.6288","3.20173","28.025","4.305","7.49","0.71","35.739","0.1","0.23","29.1489","4.62292","45.58","0","SATNPRO1509","28.712","0.40216","5"],
    [23182,"HCEP03730566","2024-05-26 19:45:00","9.6242","3.20188","28.065","4.303","7.49","0.744","35.503","0.08","0.18","29.1542","4.62377","45.55","0","SATNPRO1509","28.812","0.40356","5"],
    [23183,"HCEP03730566","2024-05-26 20:00:00","9.6196","3.20195","28.089","4.296","7.49","0.72","34.976","0.07","0.27","29.1586","4.62447","45.48","0","SATNPRO1509","28.872","0.40438","5"],
    [23184,"HCEP03730566","2024-05-26 20:15:00","9.6185","3.20187","28.098","4.3","7.48","0.722","36.011","0.07","0.18","29.1587","4.62451","45.52","0","SATNPRO1509","28.948","0.40542","5"],
    [23185,"HCEP03730566","2024-05-26 20:30:00","9.615","3.20179","28.079","4.326","7.49","0.74","37.007","0.12","0.13","29.1608","4.62486","45.79","0","SATNPRO1509","28.976","0.40588","5"],
    [23186,"HCEP03730566","2024-05-26 20:45:00","9.5885","3.20206","28.062","4.358","7.49","0.759","37.8","0.08","0.31","29.1849","4.62879","46.1","0","SATNPRO1509","29.324","0.41072","5"],
    [23187,"HCEP03730566","2024-05-26 21:00:00","9.5769","3.20237","28.007","4.401","7.49","0.745","35.614","0.08","0.15","29.1976","4.6308","46.55","0","SATNPRO1509","29.496000000000002","0.41312","5"],
    [23188,"HCEP03730566","2024-05-26 21:15:00","9.5788","3.20245","27.943","4.405","7.49","0.745","34.965","0.08","0.25","29.1968","4.63065","46.59","0","SATNPRO1509","29.454","0.41256","5"],
    [23189,"HCEP03730566","2024-05-26 21:30:00","9.5832","3.20241","27.847","4.394","7.49","0.766","36.634","0.1","0.37","29.1929","4.63001","46.49","0","SATNPRO1509","29.386","0.41162","5"],
    [23190,"HCEP03730566","2024-05-26 21:45:00","9.5811","3.20246","27.807","4.393","7.49","0.757","39.952","0.1","0.25","29.1951","4.63035","46.48","0","SATNPRO1509","29.486","0.413","5"],
    [23191,"HCEP03730566","2024-05-26 22:00:00","9.5815","3.20249","27.747","4.387","7.49","0.744","46.842","0.08","0.2","29.1951","4.63036","46.41","0","SATNPRO1509","29.402","0.4118","5"],
    [23192,"HCEP03730566","2024-05-26 22:15:00","9.5787","3.20246","27.636","4.39","7.49","0.77","54.797","0.08","0.2","29.1971","4.63068","46.44","0","SATNPRO1509","29.46","0.41262","5"],
    [23193,"HCEP03730566","2024-05-26 22:30:00","9.5799","3.20255","27.498","4.385","7.49","0.787","58.013","0.09","0.27","29.1971","4.63065","46.39","0","SATNPRO1509","29.172","0.40862","5"],
    [23194,"HCEP03730566","2024-05-26 22:45:00","9.5789","3.20244","27.404","4.386","7.49","0.809","56.933","0.09","0.19","29.1969","4.63063","46.39","0","SATNPRO1509","29.43","0.41224","5"],
    [23195,"HCEP03730566","2024-05-26 23:00:00","9.5734","3.20242","27.341","4.423","7.49","0.772","57.322","0.09","0.23","29.2011","4.63133","46.78","0","SATNPRO1509","29.554","0.41396","5"],
    [23196,"HCEP03730566","2024-05-26 23:15:00","9.5782","3.20254","27.27","4.442","7.5","0.764","55.784","0.12","0.19","29.1984","4.63086","46.99","0","SATNPRO1509","29.322","0.4107","5"],
    [23197,"HCEP03730566","2024-05-26 23:30:00","9.5764","3.20261","27.232","4.435","7.5","0.781","50.036","0.1","0.38","29.2007","4.63121","46.92","0","SATNPRO1509","29.422","0.4121","5"],
    [23198,"HCEP03730566","2024-05-26 23:45:00","9.5766","3.20265","27.144","4.454","7.5","0.721","37.082","0.06","0.31","29.201","4.63124","47.11","0","SATNPRO1509","29.5","0.4132","5"],
    [23199,"HCEP03730566","2024-05-27 00:00:00","9.5823","3.20265","27.071","4.449","7.5","0.699","22.337","0.12","0.35","29.1963","4.63048","47.07","0","SATNPRO1509","29.428","0.41218","5"],
    [23200,"HCEP03730566","2024-05-27 00:15:00","9.5824","3.20277","27.009","4.419","7.5","0.648","27.45","0.06","0.24","29.1975","4.63064","46.74","0","SATNPRO1509","29.323999999999998","0.41074","5"],
    [23201,"HCEP03730566","2024-05-27 00:30:00","9.5829","3.20285","26.935","4.411","7.5","0.677","43.526","0.08","0.2","29.1979","4.63068","46.67","0","SATNPRO1509","29.406","0.41186","5"],
    [23202,"HCEP03730566","2024-05-27 00:45:00","9.5777","3.20288","26.886","4.42","7.5","0.673","54.413","0.05","0.21","29.2025","4.63142","46.75","0","SATNPRO1509","29.442","0.41242","5"],
    [23203,"HCEP03730566","2024-05-27 01:00:00","9.5739","3.20294","26.792","4.453","7.5","0.655","54.526","0.11","0.31","29.2062","4.63201","47.1","0","SATNPRO1509","29.61","0.41474","5"],
    [23204,"HCEP03730566","2024-05-27 01:15:00","9.5714","3.20301","26.755","4.47","7.5","0.649","54.01","0.06","0.2","29.209","4.63246","47.28","0","SATNPRO1509","29.632","0.41498","5"],
    [23205,"HCEP03730566","2024-05-27 01:30:00","9.57","3.20309","26.729","4.483","7.5","0.677","55.462","0.16","0.14","29.2109","4.63276","47.41","0","SATNPRO1509","29.738","0.41648","5"],
    [23206,"HCEP03730566","2024-05-27 01:45:00","9.5659","3.20306","26.734","4.499","7.5","0.694","56.806","0.17","0.15","29.2139","4.63326","47.58","0","SATNPRO1509","29.628","0.41502","5"],
    [23207,"HCEP03730566","2024-05-27 02:00:00","9.5643","3.20311","26.745","4.517","7.5","0.622","48.831","0.05","0.23","29.2157","4.63354","47.77","0","SATNPRO1509","29.605999999999998","0.41464","5"],
    [23208,"HCEP03730566","2024-05-27 02:15:00","9.5623","3.20315","26.766","4.526","7.5","0.64","38.944","0.08","0.19","29.2178","4.63388","47.87","0","SATNPRO1509","29.628","0.41496","5"],
    [23209,"HCEP03730566","2024-05-27 02:30:00","9.5633","3.20325","26.808","4.534","7.51","0.613","34.669","0.05","0.24","29.2179","4.63389","47.95","0","SATNPRO1509","29.594","0.41456","5"],
    [23210,"HCEP03730566","2024-05-27 02:45:00","9.562","3.2032","26.838","4.541","7.51","0.652","34.4","0.09","0.12","29.2185","4.634","48.02","0","SATNPRO1509","29.668","0.41552","5"],
    [23211,"HCEP03730566","2024-05-27 03:00:00","9.5629","3.20321","26.872","4.553","7.51","0.632","33.379","0.1","0.15","29.2178","4.63389","48.16","0","SATNPRO1509","29.69","0.41582","5"],
    [23212,"HCEP03730566","2024-05-27 03:15:00","9.5598","3.2032","26.9","4.57","7.51","0.705","33.951","0.35","0.21","29.2203","4.6343","48.33","0","SATNPRO1509","29.714","0.4162","5"],
    [23213,"HCEP03730566","2024-05-27 03:30:00","9.5602","3.20329","26.939","4.584","7.51","0.62","33.083","0.1","0.17","29.2208","4.63436","48.48","0","SATNPRO1509","29.836","0.4179","5"],
    [23214,"HCEP03730566","2024-05-27 03:45:00","9.5573","3.20327","27.01","4.588","7.51","0.596","31.861","0.09","0.36","29.223","4.63473","48.51","0","SATNPRO1509","29.88","0.4185","5"],
    [23215,"HCEP03730566","2024-05-27 04:00:00","9.5564","3.20332","27.05","4.596","7.51","0.582","33.038","0.08","0.19","29.2242","4.63492","48.61","0","SATNPRO1509","29.733999999999998","0.41648","5"],
    [23216,"HCEP03730566","2024-05-27 04:15:00","9.5565","3.20342","27.084","4.6","7.51","0.596","31.692","0.1","0.19","29.2251","4.63505","48.64","0","SATNPRO1509","29.846","0.41804","5"],
    [23217,"HCEP03730566","2024-05-27 04:30:00","9.5552","3.2034","27.131","4.6","7.51","0.575","29.388","0.09","0.16","29.2259","4.63519","48.64","0","SATNPRO1509","29.736","0.4165","5"],
    [23218,"HCEP03730566","2024-05-27 04:45:00","9.5542","3.20342","27.171","4.598","7.51","0.575","23.79","0.07","0.15","29.2269","4.63536","48.62","0","SATNPRO1509","29.852","0.41812","5"],
    [23219,"HCEP03730566","2024-05-27 05:00:00","9.553","3.20349","27.21","4.592","7.51","0.565","18.183","0.1","0.3","29.2286","4.63562","48.55","0","SATNPRO1509","29.842","0.41802","5"],
    [23220,"HCEP03730566","2024-05-27 05:15:00","9.5513","3.20345","27.246","4.598","7.51","0.567","12.925","0.08","0.15","29.2296","4.6358","48.62","0","SATNPRO1509","29.96","0.41962","5"],
    [23221,"HCEP03730566","2024-05-27 05:30:00","9.5492","3.20342","27.281","4.603","7.52","0.559","9.969","0.04","0.13","29.231","4.63603","48.67","0","SATNPRO1509","29.944","0.4194","5"],
    [23222,"HCEP03730566","2024-05-27 05:45:00","9.5478","3.20341","27.334","4.605","7.52","0.572","7.068","0.06","0.12","29.2319","4.63619","48.69","0","SATNPRO1509","29.96","0.41962","5"],
    [23223,"HCEP03730566","2024-05-27 06:00:00","9.5464","3.20335","27.363","4.614","7.52","0.551","4.729","0.06","0.14","29.2325","4.63631","48.79","0","SATNPRO1509","29.983999999999998","0.41998","5"],
    [23224,"HCEP03730566","2024-05-27 06:15:00","9.5464","3.20338","27.382","4.609","7.52","0.592","3.863","0.16","0.18","29.2327","4.63633","48.74","0","SATNPRO1509","29.98","0.41994","5"],
    [23225,"HCEP03730566","2024-05-27 06:30:00","9.5462","3.20336","27.36","4.608","7.52","0.602","3.442","0.1","0.17","29.2327","4.63633","48.72","0","SATNPRO1509","29.992","0.42006","5"],
    [23226,"HCEP03730566","2024-05-27 06:45:00","9.5454","3.20334","27.36","4.609","7.52","0.644","2.908","0.15","0.22","29.2332","4.63643","48.74","0","SATNPRO1509","29.966","0.41972","5"],
    [23227,"HCEP03730566","2024-05-27 07:00:00","9.5458","3.20342","27.349","4.612","7.52","0.627","2.483","0.17","0.13","29.2336","4.63647","48.77","0","SATNPRO1509","30.044","0.42084","5"],
    [23228,"HCEP03730566","2024-05-27 07:15:00","9.5463","3.20343","27.285","4.609","7.52","0.619","2.498","0.08","0.13","29.2334","4.63643","48.73","0","SATNPRO1509","29.944","0.4194","5"],
    [23229,"HCEP03730566","2024-05-27 07:30:00","9.547","3.20353","27.228","4.59","7.52","0.579","2.462","0.07","0.12","29.2339","4.63649","48.54","0","SATNPRO1509","29.996","0.42012","5"],
    [23230,"HCEP03730566","2024-05-27 07:45:00","9.5475","3.20358","27.142","4.587","7.52","0.673","2.602","0.17","0.32","29.234","4.63648","48.5","0","SATNPRO1509","29.934","0.41926","5"],
    [23231,"HCEP03730566","2024-05-27 08:00:00","9.5487","3.20361","27.031","4.578","7.52","0.645","2.555","0.09","0.18","29.2334","4.63637","48.4","0","SATNPRO1509","30.009999999999998","0.42032","5"],
    [23232,"HCEP03730566","2024-05-27 08:15:00","9.5495","3.20369","26.872","4.553","7.52","0.657","2.675","0.07","0.22","29.2336","4.63638","48.14","0","SATNPRO1509","29.91","0.41892","5"],
    [23233,"HCEP03730566","2024-05-27 08:30:00","9.5502","3.20375","26.728","4.537","7.51","0.745","2.762","0.14","0.36","29.2336","4.63636","47.98","0","SATNPRO1509","29.928","0.41918","5"],
    [23234,"HCEP03730566","2024-05-27 08:45:00","9.5513","3.2037","26.669","4.521","7.51","0.709","3.066","0.1","0.22","29.2323","4.63615","47.8","0","SATNPRO1509","29.802","0.4174","5"],
    [23235,"HCEP03730566","2024-05-27 09:00:00","9.5523","3.20375","26.47","4.509","7.51","0.771","3.518","0.11","0.34","29.2321","4.63609","47.68","0","SATNPRO1509","29.818","0.41764","5"],
    [23236,"HCEP03730566","2024-05-27 09:15:00","9.5537","3.20381","26.32","4.495","7.51","0.775","3.576","0.08","0.42","29.2316","4.63598","47.53","0","SATNPRO1509","29.75","0.4167","5"],
    [23237,"HCEP03730566","2024-05-27 09:30:00","9.5544","3.20387","26.197","4.531","7.51","0.736","2.864","0.1","0.35","29.2317","4.63598","47.91","0","SATNPRO1509","29.79","0.41726","5"],
    [23238,"HCEP03730566","2024-05-27 09:45:00","9.5545","3.20392","26.004","4.616","7.51","0.721","3.52","0.07","0.82","29.2322","4.63604","48.82","0","SATNPRO1509","29.8","0.4174","5"],
    [23239,"HCEP03730566","2024-05-27 10:00:00","9.5562","3.20397","25.79","4.679","7.52","0.729","2.821","0.08","0.17","29.2314","4.63588","49.48","0","SATNPRO1509","29.744","0.41658","5"],
    [23240,"HCEP03730566","2024-05-27 10:15:00","9.5572","3.20396","25.537","4.697","7.52","0.771","3.255","0.09","0.37","29.2305","4.63573","49.68","0","SATNPRO1509","29.706","0.41608","5"],
    [23241,"HCEP03730566","2024-05-27 10:30:00","9.5587","3.20387","25.36","4.698","7.52","0.812","3.636","0.07","0.41","29.2285","4.6354","49.68","0","SATNPRO1509","29.808","0.41752","5"],
    [23242,"HCEP03730566","2024-05-27 10:45:00","9.5586","3.20389","25.163","4.713","7.53","0.859","3.376","0.08","0.33","29.2289","4.63545","49.85","0","SATNPRO1509","29.716","0.41624","5"],
    [23243,"HCEP03730566","2024-05-27 11:00:00","9.5603","3.20384","24.956","4.721","7.53","0.843","3.639","0.11","0.36","29.2271","4.63515","49.93","0","SATNPRO1509","29.657999999999998","0.41536","5"],
    [23244,"HCEP03730566","2024-05-27 11:15:00","9.5617","3.20378","24.686","4.757","7.53","0.793","3.022","0.08","0.26","29.2255","4.63487","50.31","0","SATNPRO1509","29.756","0.4168","5"],
    [23245,"HCEP03730566","2024-05-27 11:30:00","9.5616","3.20374","24.208","4.832","7.54","0.767","3.191","0.11","0.34","29.2253","4.63483","51.1","0","SATNPRO1509","29.75","0.41668","5"],
    [23246,"HCEP03730566","2024-05-27 11:45:00","9.5634","3.20371","24.085","4.901","7.54","0.773","2.929","0.12","0.28","29.2236","4.63453","51.84","0","SATNPRO1509","29.79","0.41728","5"],
    [23247,"HCEP03730566","2024-05-27 12:00:00","9.5664","3.20356","24.011","4.935","7.55","0.788","3.132","0.16","0.5","29.2196","4.63391","52.2","0","SATNPRO1509","29.708","0.41612","5"],
    [23248,"HCEP03730566","2024-05-27 12:15:00","9.5722","3.20342","23.923","4.966","7.55","0.724","2.616","0.13","0.31","29.2136","4.63294","52.53","0","SATNPRO1509","29.606","0.4147","5"],
    [23249,"HCEP03730566","2024-05-27 12:30:00","9.5738","3.20346","23.856","4.98","7.55","0.727","2.997","0.08","0.34","29.2128","4.63279","52.68","0","SATNPRO1509","29.66","0.41548","5"],
    [23250,"HCEP03730566","2024-05-27 12:45:00","9.5766","3.2034","23.845","4.968","7.56","0.775","3.028","0.13","0.32","29.2098","4.63232","52.55","0","SATNPRO1509","29.686","0.41578","5"],
    [23251,"HCEP03730566","2024-05-27 13:00:00","9.5772","3.20343","23.851","4.962","7.56","0.787","3.129","0.13","0.21","29.2096","4.63228","52.49","0","SATNPRO1509","29.59","0.41446","5"],
    [23252,"HCEP03730566","2024-05-27 13:15:00","9.5806","3.20337","23.869","4.959","7.56","0.74","2.991","0.06","0.26","29.2063","4.63175","52.46","0","SATNPRO1509","29.576","0.41422","5"],
    [23253,"HCEP03730566","2024-05-27 13:30:00","9.581","3.20337","23.933","4.951","7.56","0.803","3.222","0.14","0.29","29.2059","4.63168","52.38","0","SATNPRO1509","29.554000000000002","0.41396","5"],
    [23254,"HCEP03730566","2024-05-27 13:45:00","9.5827","3.20334","23.969","4.937","7.55","0.775","3.405","0.09","0.19","29.2042","4.63141","52.23","0","SATNPRO1509","29.442","0.4124","5"],
    [23255,"HCEP03730566","2024-05-27 14:00:00","9.5837","3.2033","24.025","4.914","7.55","0.782","3.384","0.18","0.24","29.203","4.63122","51.99","0","SATNPRO1509","29.368","0.41132","5"],
    [23256,"HCEP03730566","2024-05-27 14:15:00","9.5852","3.20328","24.142","4.886","7.55","0.794","3.277","0.19","0.2","29.2015","4.63099","51.7","0","SATNPRO1509","29.404","0.4119","5"],
    [23257,"HCEP03730566","2024-05-27 14:30:00","9.589","3.20314","24.234","4.869","7.55","0.796","3.052","0.13","0.14","29.197","4.63029","51.51","0","SATNPRO1509","29.316","0.41062","5"],
    [23258,"HCEP03730566","2024-05-27 14:45:00","9.5898","3.20314","24.379","4.869","7.55","0.78","3.084","0.12","0.21","29.1962","4.63017","51.51","0","SATNPRO1509","29.346","0.411","5"],
    [23259,"HCEP03730566","2024-05-27 15:00:00","9.5909","3.20311","24.499","4.862","7.55","0.764","3.34","0.11","0.15","29.195","4.62999","51.44","0","SATNPRO1509","29.35","0.4111","5"],
    [23260,"HCEP03730566","2024-05-27 15:15:00","9.5943","3.20295","24.664","4.846","7.55","0.822","3.575","0.16","0.18","29.1906","4.6293","51.28","0","SATNPRO1509","29.272000000000002","0.41002","5"],
    [23261,"HCEP03730566","2024-05-27 15:30:00","9.5978","3.20281","24.814","4.825","7.55","0.818","3.765","0.09","0.25","29.1863","4.62863","51.06","0","SATNPRO1509","29.308","0.4105","5"],
    [23262,"HCEP03730566","2024-05-27 15:45:00","9.6006","3.20265","24.969","4.829","7.55","0.836","3.447","0.17","0.16","29.1823","4.62803","51.11","0","SATNPRO1509","29.232","0.40948","5"],
    [23263,"HCEP03730566","2024-05-27 16:00:00","9.6047","3.20246","25.161","4.795","7.54","0.796","3.341","0.08","0.15","29.177","4.6272","50.75","0","SATNPRO1509","29.076","0.4072","5"],
    [23264,"HCEP03730566","2024-05-27 16:15:00","9.6074","3.20233","25.361","4.749","7.54","0.833","3.62","0.1","0.27","29.1735","4.62666","50.26","0","SATNPRO1509","29.16","0.40842","5"],
    [23265,"HCEP03730566","2024-05-27 16:30:00","9.6112","3.20215","25.581","4.681","7.53","0.83","3.451","0.08","0.2","29.1684","4.62589","49.54","0","SATNPRO1509","28.992","0.40606","5"],
    [23266,"HCEP03730566","2024-05-27 16:45:00","9.6145","3.20193","25.775","4.598","7.53","0.874","3.156","0.14","0.18","29.1635","4.62513","48.67","0","SATNPRO1509","28.91","0.40496","5"],
    [23267,"HCEP03730566","2024-05-27 17:00:00","9.6161","3.20191","26.003","4.545","7.52","0.913","3.459","0.11","0.32","29.1619","4.62489","48.1","0","SATNPRO1509","28.866","0.40436","5"],
    [23268,"HCEP03730566","2024-05-27 17:15:00","9.6162","3.20191","26.22","4.524","7.52","0.833","3.312","0.07","0.27","29.1617","4.62487","47.89","0","SATNPRO1509","28.914","0.405","5"],
    [23269,"HCEP03730566","2024-05-27 17:30:00","9.6166","3.20187","26.446","4.516","7.51","0.864","3.451","0.11","0.23","29.1609","4.62477","47.8","0","SATNPRO1509","28.852","0.40414","5"],
    [23270,"HCEP03730566","2024-05-27 17:45:00","9.6172","3.20185","26.647","4.499","7.51","0.858","3.505","0.08","0.16","29.1602","4.62466","47.62","0","SATNPRO1509","28.887999999999998","0.40466","5"],
    [23271,"HCEP03730566","2024-05-27 18:00:00","9.6187","3.20178","26.879","4.479","7.51","0.961","3.376","0.17","0.27","29.1581","4.62434","47.41","0","SATNPRO1509","28.86","0.4042","5"],
    [23272,"HCEP03730566","2024-05-27 18:15:00","9.6212","3.20167","27.055","4.457","7.51","0.904","3.074","0.14","0.17","29.1549","4.62386","47.18","0","SATNPRO1509","28.726","0.40236","5"],
    [23273,"HCEP03730566","2024-05-27 18:30:00","9.6229","3.20158","27.236","4.442","7.5","0.872","3.303","0.1","0.27","29.1525","4.6235","47.03","0","SATNPRO1509","28.686","0.4018","5"],
    [23274,"HCEP03730566","2024-05-27 18:45:00","9.6231","3.20155","27.414","4.421","7.5","0.838","3.8","0.05","0.42","29.152","4.62343","46.8","0","SATNPRO1509","28.61","0.40074","5"],
    [23275,"HCEP03730566","2024-05-27 19:00:00","9.6225","3.20158","27.544","4.4","7.5","0.799","3.842","0.03","0.29","29.1527","4.62355","46.57","0","SATNPRO1509","28.696","0.40192","5"],
    [23276,"HCEP03730566","2024-05-27 19:15:00","9.6212","3.2017","27.678","4.397","7.5","0.747","4.247","0.04","0.33","29.1549","4.6239","46.55","0","SATNPRO1509","28.669999999999998","0.4016","5"],
    [23277,"HCEP03730566","2024-05-27 19:30:00","9.6199","3.20176","27.763","4.397","7.5","0.668","4.465","0.02","0.36","29.1565","4.62416","46.54","0","SATNPRO1509","28.576","0.40024","5"],
    [23278,"HCEP03730566","2024-05-27 19:45:00","9.6186","3.20181","27.839","4.405","7.5","0.582","4.82","0.03","0.61","29.1581","4.62441","46.62","0","SATNPRO1509","28.664","0.40146","5"],
    [23279,"HCEP03730566","2024-05-27 20:00:00","9.6178","3.20188","27.86","4.427","7.5","0.476","5.771","0.01","0.37","29.1594","4.62461","46.86","0","SATNPRO1509","28.698","0.40198","5"],
    [23280,"HCEP03730566","2024-05-27 20:15:00","9.6152","3.20199","27.878","4.456","7.5","0.376","8.67","0.01","0.49","29.1626","4.62512","47.16","0","SATNPRO1509","28.772","0.40298","5"],
    [23281,"HCEP03730566","2024-05-27 20:30:00","9.6132","3.20217","27.886","4.482","7.5","0.28","15.718","0.01","0.5","29.1661","4.62565","47.44","0","SATNPRO1509","28.764","0.40292","5"],
    [23282,"HCEP03730566","2024-05-27 20:45:00","9.6111","3.20229","27.926","4.519","7.51","0.204","30.307","0.01","0.59","29.169","4.62611","47.83","0","SATNPRO1509","28.756","0.40274","5"],
    [23283,"HCEP03730566","2024-05-27 21:00:00","9.6081","3.20248","27.94","4.565","7.51","0.15","57.677","0.01","0.35","29.1734","4.62678","48.31","0","SATNPRO1509","28.982","0.40594","5"],
    [23284,"HCEP03730566","2024-05-27 21:15:00","9.606","3.20258","27.948","4.626","7.52","0.14","108.48","0.01","0.3","29.176","4.6272","48.96","0","SATNPRO1509","28.804000000000002","0.40346","5"],
    [23285,"HCEP03730566","2024-05-27 21:30:00","9.6046","3.20266","27.941","4.671","7.52","0.156","189.359","0.02","0.23","29.178","4.6275","49.44","0","SATNPRO1509","28.616","0.4008","5"],
    [23286,"HCEP03730566","2024-05-27 21:45:00","9.6031","3.20275","27.869","4.697","7.52","0.185","313.727","0.02","0.66","29.1802","4.62785","49.71","0","SATNPRO1509","28.864","0.40428","5"],
    [23287,"HCEP03730566","2024-05-27 22:00:00","9.6003","3.20287","27.826","4.717","7.53","0.219","494.908","0.02","1.14","29.1836","4.62838","49.92","0","SATNPRO1509","29.044","0.4068","5"],
    [23288,"HCEP03730566","2024-05-27 22:15:00","9.5973","3.20298","27.803","4.733","7.53","0.273","653.369","0.03","2.66","29.1872","4.62894","50.09","0","SATNPRO1509","28.932","0.40526","5"],
    [23289,"HCEP03730566","2024-05-27 22:30:00","9.5938","3.20312","27.764","4.731","7.53","0.336","737.533","0.09","1.07","29.1915","4.62962","50.06","0","SATNPRO1509","29.092","0.40748","5"],
    [23290,"HCEP03730566","2024-05-27 22:45:00","9.5909","3.20326","27.699","4.723","7.53","0.359","745.148","0.06","1.07","29.1953","4.63022","49.98","0","SATNPRO1509","28.968","0.40572","5"],
    [23291,"HCEP03730566","2024-05-27 23:00:00","9.5889","3.20333","27.62","4.72","7.53","0.385","682.859","0.05","0.94","29.1976","4.63058","49.94","0","SATNPRO1509","29.046","0.4068","5"],
    [23292,"HCEP03730566","2024-05-27 23:15:00","9.5876","3.20339","27.525","4.726","7.53","0.431","574.304","0.07","1.73","29.1993","4.63084","50","0","SATNPRO1509","29","0.40622","5"],
    [23293,"HCEP03730566","2024-05-27 23:30:00","9.5856","3.20342","27.463","4.728","7.53","0.399","434.699","0.09","0.47","29.2013","4.63115","50.03","0","SATNPRO1509","29.072","0.40722","5"],
    [23294,"HCEP03730566","2024-05-27 23:45:00","9.5842","3.20344","27.396","4.73","7.53","0.378","313.417","0.04","0.32","29.2027","4.63137","50.04","0","SATNPRO1509","29.126","0.40796","5"],
    [23295,"HCEP03730566","2024-05-28 00:00:00","9.583","3.20347","27.316","4.722","7.53","0.411","165.555","0.11","0.26","29.2039","4.63156","49.96","0","SATNPRO1509","29.098","0.40758","5"],
    [23296,"HCEP03730566","2024-05-28 00:15:00","9.5822","3.20349","27.229","4.719","7.53","0.363","60.733","0.07","0.04","29.2048","4.6317","49.92","0","SATNPRO1509","29.242","0.40958","5"],
    [23297,"HCEP03730566","2024-05-28 00:30:00","9.581","3.20349","27.161","4.723","7.53","0.331","32.186","0.05","0.08","29.2059","4.63187","49.97","0","SATNPRO1509","29.046","0.40682","5"],
    [23298,"HCEP03730566","2024-05-28 00:45:00","9.5796","3.20353","27.089","4.738","7.53","0.287","11.396","0.03","0.02","29.2074","4.63211","50.13","0","SATNPRO1509","29.233999999999998","0.40948","5"],
    [23299,"HCEP03730566","2024-05-28 01:00:00","9.5776","3.20361","27.014","4.756","7.54","0.265","1.84","0.03","0.02","29.2098","4.63249","50.31","0","SATNPRO1509","29.244","0.40964","5"],
    [23300,"HCEP03730566","2024-05-28 01:15:00","9.5753","3.20365","26.944","4.768","7.54","0.267","0.317","0.06","0.02","29.2122","4.63286","50.44","0","SATNPRO1509","29.24","0.40954","5"],
    [23301,"HCEP03730566","2024-05-28 01:30:00","9.573","3.20375","26.871","4.789","7.54","0.213","0.245","0.03","0.02","29.2151","4.63332","50.66","0","SATNPRO1509","29.334","0.41086","5"],
    [23302,"HCEP03730566","2024-05-28 01:45:00","9.571","3.20381","26.826","4.811","7.54","0.183","0.254","0.02","0.01","29.2172","4.63365","50.89","0","SATNPRO1509","29.27","0.40996","5"],
    [23303,"HCEP03730566","2024-05-28 02:00:00","9.5693","3.20385","26.787","4.813","7.54","0.168","0.287","0.03","0.03","29.2191","4.63396","50.91","0","SATNPRO1509","29.33","0.41082","5"],
    [23304,"HCEP03730566","2024-05-28 02:15:00","9.5673","3.20385","26.754","4.796","7.54","0.15","0.358","0.03","0.04","29.2208","4.63422","50.72","0","SATNPRO1509","29.332","0.41086","5"],
    [23305,"HCEP03730566","2024-05-28 02:30:00","9.5651","3.20393","26.737","4.792","7.54","0.136","0.627","0.02","0.05","29.2234","4.63464","50.68","0","SATNPRO1509","29.276","0.41004","5"],
    [23306,"HCEP03730566","2024-05-28 02:45:00","9.564","3.20397","26.722","4.788","7.54","0.137","0.826","0.02","0.05","29.2247","4.63484","50.64","0","SATNPRO1509","29.384","0.41156","5"],
    [23307,"HCEP03730566","2024-05-28 03:00:00","9.5626","3.20396","26.734","4.789","7.54","0.128","0.972","0.03","0.17","29.2257","4.63501","50.65","0","SATNPRO1509","29.44","0.41234","5"],
    [23308,"HCEP03730566","2024-05-28 03:15:00","9.5622","3.20399","26.756","4.788","7.54","0.14","1.044","0.03","0.15","29.2264","4.63512","50.63","0","SATNPRO1509","29.342","0.41098","5"],
    [23309,"HCEP03730566","2024-05-28 03:30:00","9.5608","3.204","26.773","4.781","7.54","0.167","1.034","0.06","0.1","29.2275","4.63531","50.57","0","SATNPRO1509","29.398","0.41174","5"],
    [23310,"HCEP03730566","2024-05-28 03:45:00","9.5592","3.20407","26.798","4.781","7.54","0.18","1.075","0.04","0.2","29.2296","4.63563","50.56","0","SATNPRO1509","29.52","0.41348","5"],
    [23311,"HCEP03730566","2024-05-28 04:00:00","9.5582","3.20406","26.834","4.777","7.54","0.194","1.039","0.05","0.13","29.2302","4.63574","50.52","0","SATNPRO1509","29.41","0.41192","5"],
    [23312,"HCEP03730566","2024-05-28 04:15:00","9.5571","3.20412","26.852","4.77","7.54","0.299","1.087","0.33","0.15","29.2318","4.63599","50.45","0","SATNPRO1509","29.464","0.41266","5"],
    [23313,"HCEP03730566","2024-05-28 04:30:00","9.5566","3.20413","26.877","4.761","7.54","0.285","1.16","0.08","0.13","29.2322","4.63606","50.35","0","SATNPRO1509","29.322","0.4107","5"],
    [23314,"HCEP03730566","2024-05-28 04:45:00","9.5559","3.2042","26.918","4.757","7.54","0.295","1.436","0.05","0.25","29.2335","4.63625","50.3","0","SATNPRO1509","29.394","0.4117","5"],
    [23315,"HCEP03730566","2024-05-28 05:00:00","9.5557","3.20421","26.957","4.753","7.54","0.356","1.682","0.08","0.16","29.2338","4.6363","50.26","0","SATNPRO1509","29.244","0.40964","5"],
    [23316,"HCEP03730566","2024-05-28 05:15:00","9.5537","3.20431","26.984","4.767","7.54","0.395","1.858","0.08","0.25","29.2364","4.63672","50.41","0","SATNPRO1509","29.352","0.41112","5"],
    [23317,"HCEP03730566","2024-05-28 05:30:00","9.5509","3.20449","27.034","4.798","7.54","0.442","2.188","0.07","0.14","29.2405","4.63735","50.74","0","SATNPRO1509","29.498","0.41316","5"],
    [23318,"HCEP03730566","2024-05-28 05:45:00","9.5504","3.20457","27.057","4.843","7.55","0.428","2.099","0.06","0.12","29.2416","4.63752","51.22","0","SATNPRO1509","29.65","0.4153","5"],
    [23319,"HCEP03730566","2024-05-28 06:00:00","9.551","3.20487","27.074","4.915","7.55","0.499","2.189","0.14","0.14","29.2442","4.63789","51.98","0","SATNPRO1509","29.68","0.4157","5"],
    [23320,"HCEP03730566","2024-05-28 06:15:00","9.5528","3.20519","27.106","5.018","7.56","0.498","2.228","0.06","0.21","29.246","4.63811","53.07","0","SATNPRO1509","29.788","0.41722","5"],
    [23321,"HCEP03730566","2024-05-28 06:30:00","9.5568","3.20472","27.141","5.077","7.57","0.533","1.895","0.11","0.37","29.238","4.6369","53.69","0","SATNPRO1509","29.758","0.4168","5"],
    [23322,"HCEP03730566","2024-05-28 06:45:00","9.5598","3.2058","27.173","5.142","7.57","0.536","1.916","0.14","0.23","29.2464","4.63805","54.39","0","SATNPRO1509","30.218","0.42324","5"],
    [23323,"HCEP03730566","2024-05-28 07:00:00","9.5545","3.20488","27.176","5.137","7.57","0.566","1.818","0.06","0.14","29.2414","4.63743","54.33","0","SATNPRO1509","29.794","0.41726","5"],
    [23324,"HCEP03730566","2024-05-28 07:15:00","9.5533","3.20491","27.174","4.973","7.56","0.631","1.959","0.08","0.13","29.2427","4.63763","52.59","0","SATNPRO1509","29.716","0.4162","5"],
    [23325,"HCEP03730566","2024-05-28 07:30:00","9.554","3.20516","27.156","4.947","7.56","0.782","2.192","0.37","0.35","29.2447","4.6379","52.32","0","SATNPRO1509","29.716","0.41622","5"],
    [23326,"HCEP03730566","2024-05-28 07:45:00","9.555","3.2053","27.118","5.024","7.56","0.708","2.268","0.27","0.54","29.2452","4.63796","53.14","0","SATNPRO1509","29.637999999999998","0.41514","5"],
    [23327,"HCEP03730566","2024-05-28 08:00:00","9.561","3.20614","27.114","5.156","7.57","0.555","1.495","0.08","0.23","29.2489","4.63838","54.54","0","SATNPRO1509","29.81","0.41756","5"],
    [23328,"HCEP03730566","2024-05-28 08:15:00","9.5638","3.20683","27.06","5.401","7.59","0.529","1.274","0.13","0.12","29.2535","4.63899","57.14","0","SATNPRO1509","30.214","0.42316","5"],
    [23329,"HCEP03730566","2024-05-28 08:30:00","9.5609","3.2069","26.978","5.547","7.6","0.783","1.645","0.95","0.5","29.2566","4.63949","58.68","0","SATNPRO1509","30.14","0.42216","5"],
    [23330,"HCEP03730566","2024-05-28 08:45:00","9.5616","3.20714","26.904","5.587","7.61","0.522","1.446","0.09","0.47","29.2586","4.63975","59.1","0","SATNPRO1509","30.16","0.42242","5"],
    [23331,"HCEP03730566","2024-05-28 09:00:00","9.5556","3.20768","26.817","5.622","7.62","0.695","2.423","0.21","0.57","29.2689","4.64132","59.47","0","SATNPRO1509","30.046","0.42084","5"],
    [23332,"HCEP03730566","2024-05-28 09:15:00","9.55","3.20805","26.733","5.603","7.62","0.662","2.833","0.08","0.31","29.2773","4.64262","59.27","0","SATNPRO1509","30.19","0.42288","5"],
    [23333,"HCEP03730566","2024-05-28 09:30:00","9.5423","3.20834","26.593","5.634","7.63","0.745","2.644","0.6","0.45","29.2865","4.64408","59.59","0","SATNPRO1509","30.238","0.42356","5"],
    [23334,"HCEP03730566","2024-05-28 09:45:00","9.5396","3.20842","26.379","5.667","7.63","0.595","2.536","0.08","0.47","29.2897","4.64456","59.93","0","SATNPRO1509","30.278","0.42406","5"],
    [23335,"HCEP03730566","2024-05-28 10:00:00","9.539","3.20845","26.133","5.669","7.64","0.561","2.302","0.04","0.17","29.2905","4.64468","59.95","0","SATNPRO1509","30.14","0.42218","5"],
    [23336,"HCEP03730566","2024-05-28 10:15:00","9.5408","3.2086","25.937","5.665","7.64","0.598","2.457","0.08","0.22","29.2906","4.64465","59.91","0","SATNPRO1509","30.18","0.42274","5"],
    [23337,"HCEP03730566","2024-05-28 10:30:00","9.5386","3.20891","25.766","5.676","7.64","0.598","2.567","0.09","0.28","29.2956","4.64539","60.03","0","SATNPRO1509","30.254","0.42378","5"],
    [23338,"HCEP03730566","2024-05-28 10:45:00","9.5341","3.20889","25.59","5.684","7.64","0.817","2.682","0.75","0.25","29.2991","4.64597","60.1","0","SATNPRO1509","30.268","0.42396","5"],
    [23339,"HCEP03730566","2024-05-28 11:00:00","9.5313","3.20883","25.434","5.695","7.64","0.578","2.213","0.1","0.26","29.3009","4.64626","60.22","0","SATNPRO1509","30.396","0.42574","5"],
    [23340,"HCEP03730566","2024-05-28 11:15:00","9.5297","3.20883","25.266","5.706","7.64","0.537","2.347","0.06","0.58","29.3023","4.64648","60.34","0","SATNPRO1509","30.387999999999998","0.42566","5"],
    [23341,"HCEP03730566","2024-05-28 11:30:00","9.5309","3.20887","25.043","5.706","7.64","0.558","2.284","0.13","0.29","29.3018","4.64637","60.34","0","SATNPRO1509","30.282","0.42416","5"],
    [23342,"HCEP03730566","2024-05-28 11:45:00","9.5342","3.20886","24.838","5.698","7.64","0.578","2.687","0.08","0.31","29.299","4.64591","60.26","0","SATNPRO1509","30.264","0.42388","5"],
    [23343,"HCEP03730566","2024-05-28 12:00:00","9.5381","3.20881","24.678","5.69","7.64","0.607","2.647","0.22","0.24","29.2955","4.64532","60.17","0","SATNPRO1509","30.142","0.42216","5"],
    [23344,"HCEP03730566","2024-05-28 12:15:00","9.5432","3.20835","24.567","5.675","7.64","0.541","2.525","0.05","0.3","29.2867","4.64397","60.02","0","SATNPRO1509","30.054","0.42096","5"],
    [23345,"HCEP03730566","2024-05-28 12:30:00","9.5438","3.20848","24.473","5.65","7.64","0.612","2.991","0.11","0.32","29.2876","4.64408","59.76","0","SATNPRO1509","29.978","0.4199","5"],
    [23346,"HCEP03730566","2024-05-28 12:45:00","9.5463","3.20822","24.255","5.631","7.64","0.555","2.417","0.07","0.22","29.283","4.64336","59.56","0","SATNPRO1509","30.048000000000002","0.4209","5"],
    [23347,"HCEP03730566","2024-05-28 13:00:00","9.5474","3.20804","24.126","5.605","7.64","0.723","2.544","0.28","0.27","29.2803","4.64296","59.29","0","SATNPRO1509","29.916","0.41904","5"],
    [23348,"HCEP03730566","2024-05-28 13:15:00","9.5493","3.20772","24.054","5.564","7.64","0.619","2.346","0.18","0.2","29.2756","4.64224","58.85","0","SATNPRO1509","29.916","0.419","5"],
    [23349,"HCEP03730566","2024-05-28 13:30:00","9.5496","3.20764","24.01","5.541","7.63","0.569","2.748","0.08","0.31","29.2745","4.64207","58.6","0","SATNPRO1509","29.706","0.41608","5"],
    [23350,"HCEP03730566","2024-05-28 13:45:00","9.548400000000001","3.20783","24.042","5.525","7.63","0.606","2.845","0.1","0.29","29.2774","4.64251","58.44","0","SATNPRO1509","29.866","0.41836","5"],
    [23351,"HCEP03730566","2024-05-28 14:00:00","9.5482","3.20785","24.063","5.527","7.63","0.616","2.834","0.07","0.25","29.2778","4.64258","58.45","0","SATNPRO1509","29.759999999999998","0.41686","5"],
    [23352,"HCEP03730566","2024-05-28 14:15:00","9.5487","3.20779","24.09","5.51","7.63","0.643","2.922","0.11","0.21","29.2768","4.64242","58.27","0","SATNPRO1509","29.782","0.41714","5"],
    [23353,"HCEP03730566","2024-05-28 14:30:00","9.5495","3.20766","24.177","5.49","7.63","0.701","3.329","0.17","0.3","29.2748","4.64212","58.06","0","SATNPRO1509","29.752","0.41672","5"],
    [23354,"HCEP03730566","2024-05-28 14:45:00","9.5528","3.20711","24.171","5.445","7.62","0.675","3.01","0.12","0.25","29.2665","4.64089","57.59","0","SATNPRO1509","29.534","0.41364","5"],
    [23355,"HCEP03730566","2024-05-28 15:00:00","9.5576","3.20651","24.235","5.346","7.62","0.676","3.61","0.07","0.65","29.2565","4.63937","56.54","0","SATNPRO1509","29.482","0.41294","5"],
    [23356,"HCEP03730566","2024-05-28 15:15:00","9.5634","3.20572","24.343","5.186","7.6","0.788","3.893","0.16","0.29","29.2438","4.63745","54.86","0","SATNPRO1509","29.352","0.41114","5"],
    [23357,"HCEP03730566","2024-05-28 15:30:00","9.5686","3.20514","24.452","5.079","7.59","0.674","3.399","0.06","0.27","29.2336","4.63591","53.73","0","SATNPRO1509","29.276","0.41008","5"],
    [23358,"HCEP03730566","2024-05-28 15:45:00","9.5704","3.20513","24.58","5.064","7.58","0.676","3.548","0.09","0.29","29.232","4.63565","53.57","0","SATNPRO1509","29.402","0.41184","5"],
    [23359,"HCEP03730566","2024-05-28 16:00:00","9.5732","3.20483","24.758","5.031","7.58","0.649","3.409","0.07","0.37","29.2267","4.63486","53.23","0","SATNPRO1509","29.198","0.40898","5"],
    [23360,"HCEP03730566","2024-05-28 16:15:00","9.5744","3.20474","24.895","5.006","7.57","0.644","3.86","0.06","0.28","29.2247","4.63456","52.96","0","SATNPRO1509","29.172","0.40858","5"],
    [23361,"HCEP03730566","2024-05-28 16:30:00","9.5768","3.2046","25.041","5.006","7.57","0.582","3.776","0.05","0.33","29.2212","4.63402","52.96","0","SATNPRO1509","29.192","0.4089","5"],
    [23362,"HCEP03730566","2024-05-28 16:45:00","9.5793","3.20442","25.198","5.016","7.57","0.567","3.767","0.06","0.3","29.2173","4.63343","53.07","0","SATNPRO1509","29.232","0.40946","5"],
    [23363,"HCEP03730566","2024-05-28 17:00:00","9.5809","3.20438","25.376","5.021","7.57","0.521","3.865","0.05","0.31","29.2156","4.63316","53.13","0","SATNPRO1509","29.254","0.40976","5"],
    [23364,"HCEP03730566","2024-05-28 17:15:00","9.5848","3.20429","25.572","5.024","7.57","0.506","3.93","0.06","0.29","29.2115","4.63252","53.16","0","SATNPRO1509","29.298","0.41036","5"],
    [23365,"HCEP03730566","2024-05-28 17:30:00","9.5871","3.20415","25.816","5.018","7.57","0.496","4.077","0.04","0.36","29.2081","4.632","53.1","0","SATNPRO1509","29.188","0.40882","5"],
    [23366,"HCEP03730566","2024-05-28 17:45:00","9.5921","3.20387","26.009","4.989","7.57","0.507","4.293","0.08","0.23","29.2011","4.63092","52.79","0","SATNPRO1509","29.208","0.40912","5"],
    [23367,"HCEP03730566","2024-05-28 18:00:00","9.5958","3.20365","26.211","4.932","7.56","0.524","4.353","0.04","0.23","29.1958","4.63011","52.19","0","SATNPRO1509","29.114","0.4078","5"],
    [23368,"HCEP03730566","2024-05-28 18:15:00","9.5986","3.20343","26.419","4.895","7.56","0.551","4.462","0.13","0.31","29.1912","4.62942","51.8","0","SATNPRO1509","28.934","0.40526","5"],
    [23369,"HCEP03730566","2024-05-28 18:30:00","9.6017","3.20328","26.639","4.859","7.56","0.557","4.88","0.1","0.3","29.1871","4.62879","51.42","0","SATNPRO1509","28.95","0.40548","5"],
    [23370,"HCEP03730566","2024-05-28 18:45:00","9.6035","3.20315","26.887","4.845","7.55","0.542","6.454","0.04","0.17","29.1842","4.62835","51.27","0","SATNPRO1509","28.824","0.4037","5"],
    [23371,"HCEP03730566","2024-05-28 19:00:00","9.6046","3.20317","27.053","4.835","7.55","0.545","10.507","0.05","0.17","29.1834","4.62824","51.17","0","SATNPRO1509","28.832","0.40386","5"],
    [23372,"HCEP03730566","2024-05-28 19:15:00","9.6046","3.20315","27.233","4.823","7.55","0.557","16.909","0.05","0.19","29.1832","4.62821","51.04","0","SATNPRO1509","28.816","0.40364","5"],
    [23373,"HCEP03730566","2024-05-28 19:30:00","9.6058","3.20312","27.39","4.822","7.55","0.574","24.4","0.07","0.28","29.1818","4.628","51.03","0","SATNPRO1509","28.866","0.40434","5"],
    [23374,"HCEP03730566","2024-05-28 19:45:00","9.6071","3.20306","27.525","4.823","7.55","0.567","33.259","0.06","0.51","29.1802","4.62776","51.04","0","SATNPRO1509","28.772000000000002","0.40298","5"],
    [23375,"HCEP03730566","2024-05-28 20:00:00","9.6069","3.20305","27.67","4.81","7.55","0.571","40.21","0.08","0.23","29.1802","4.62777","50.91","0","SATNPRO1509","28.736","0.40246","5"],
    [23376,"HCEP03730566","2024-05-28 20:15:00","9.6068","3.20306","27.769","4.8","7.55","0.565","44.289","0.05","0.6","29.1803","4.62779","50.8","0","SATNPRO1509","28.73","0.40244","5"],
    [23377,"HCEP03730566","2024-05-28 20:30:00","9.6068","3.20301","27.858","4.797","7.55","0.548","43.329","0.06","0.29","29.1798","4.62772","50.77","0","SATNPRO1509","28.872","0.4044","5"],
    [23378,"HCEP03730566","2024-05-28 20:45:00","9.606","3.20308","27.895","4.798","7.55","0.544","44.288","0.04","0.15","29.1811","4.62792","50.78","0","SATNPRO1509","28.818","0.40364","5"],
    [23379,"HCEP03730566","2024-05-28 21:00:00","9.6047","3.20316","27.92","4.796","7.55","0.547","44.891","0.05","0.26","29.183","4.62822","50.76","0","SATNPRO1509","28.89","0.40466","5"],
    [23380,"HCEP03730566","2024-05-28 21:15:00","9.604","3.20319","27.965","4.796","7.55","0.588","42.711","0.07","0.13","29.1838","4.62835","50.76","0","SATNPRO1509","28.674","0.40166","5"],
    [23381,"HCEP03730566","2024-05-28 21:30:00","9.6022","3.2033","27.975","4.791","7.55","0.681","40.325","0.23","0.23","29.1864","4.62875","50.7","0","SATNPRO1509","28.778000000000002","0.40314","5"],
    [23382,"HCEP03730566","2024-05-28 21:45:00","9.6004","3.20339","27.982","4.782","7.54","0.572","37.631","0.04","0.14","29.1888","4.62912","50.61","0","SATNPRO1509","28.692","0.40186","5"],
    [23383,"HCEP03730566","2024-05-28 22:00:00","9.5984","3.2035","28.004","4.791","7.54","0.596","38.72","0.05","0.29","29.1915","4.62955","50.71","0","SATNPRO1509","29.108","0.40772","5"],
    [23384,"HCEP03730566","2024-05-28 22:15:00","9.5959","3.20368","27.999","4.803","7.55","0.593","42.34","0.05","0.29","29.1953","4.63014","50.83","0","SATNPRO1509","28.812","0.40356","5"],
    [23385,"HCEP03730566","2024-05-28 22:30:00","9.5933","3.20384","27.964","4.825","7.55","0.626","50.379","0.05","0.43","29.1991","4.63073","51.06","0","SATNPRO1509","28.84","0.40394","5"],
    [23386,"HCEP03730566","2024-05-28 22:45:00","9.5905","3.204","27.919","4.845","7.55","0.707","59.549","0.09","0.26","29.2029","4.63133","51.27","0","SATNPRO1509","28.998","0.40618","5"],
    [23387,"HCEP03730566","2024-05-28 23:00:00","9.5883","3.20415","27.879","4.85","7.55","0.654","63.868","0.06","0.2","29.2063","4.63184","51.32","0","SATNPRO1509","28.858","0.40424","5"],
    [23388,"HCEP03730566","2024-05-28 23:15:00","9.5859","3.20425","27.816","4.85","7.55","0.682","64.707","0.04","0.26","29.2092","4.6323","51.32","0","SATNPRO1509","28.932","0.40524","5"],
    [23389,"HCEP03730566","2024-05-28 23:30:00","9.5798","3.20462","27.745","4.824","7.55","0.739","65.857","0.08","0.26","29.218","4.63366","51.04","0","SATNPRO1509","28.736","0.40248","5"],
    [23390,"HCEP03730566","2024-05-28 23:45:00","9.5795","3.20465","27.676","4.816","7.55","0.649","63.484","0.03","0.37","29.2185","4.63374","50.95","0","SATNPRO1509","29.034","0.40668","5"],
    [23391,"HCEP03730566","2024-05-29 00:00:00","9.5723","3.20538","27.611","4.875","7.55","0.669","57.058","0.07","1.77","29.2318","4.63577","51.57","0","SATNPRO1509","29.118000000000002","0.40788","5"],
    [23392,"HCEP03730566","2024-05-29 00:15:00","9.5682","3.20581","27.53","4.929","7.55","0.667","40.522","0.06","0.38","29.2395","4.63693","52.14","0","SATNPRO1509","29.03","0.40662","5"],
    [23393,"HCEP03730566","2024-05-29 00:30:00","9.565","3.20609","27.436","4.981","7.56","0.688","24.696","0.17","0.35","29.245","4.63777","52.7","0","SATNPRO1509","29.168","0.40856","5"],
    [23394,"HCEP03730566","2024-05-29 00:45:00","9.5645","3.20612","27.364","5.026","7.56","0.599","36.302","0.06","0.23","29.2457","4.63788","53.16","0","SATNPRO1509","29.068","0.40712","5"],
    [23395,"HCEP03730566","2024-05-29 01:00:00","9.5632","3.20617","27.263","5.059","7.57","0.578","56.192","0.07","0.11","29.2473","4.63812","53.51","0","SATNPRO1509","29.118","0.40786","5"],
    [23396,"HCEP03730566","2024-05-29 01:15:00","9.5623","3.20624","27.174","5.071","7.57","0.588","62.542","0.07","0.25","29.2487","4.63834","53.64","0","SATNPRO1509","29.19","0.40884","5"],
    [23397,"HCEP03730566","2024-05-29 01:30:00","9.5623","3.20636","27.093","5.068","7.57","0.587","60.715","0.07","0.26","29.2501","4.63853","53.61","0","SATNPRO1509","29.048000000000002","0.4069","5"],
    [23398,"HCEP03730566","2024-05-29 01:45:00","9.5621","3.20634","27.011","5.069","7.57","0.65","58.894","0.24","0.28","29.25","4.63852","53.62","0","SATNPRO1509","29.158","0.40842","5"],
    [23399,"HCEP03730566","2024-05-29 02:00:00","9.5631","3.20628","26.93","5.062","7.57","0.564","59.654","0.05","0.21","29.2486","4.63829","53.54","0","SATNPRO1509","29.201999999999998","0.40904","5"],
    [23400,"HCEP03730566","2024-05-29 02:15:00","9.5631","3.20629","26.833","5.049","7.57","0.604","60.87","0.09","0.21","29.2488","4.63832","53.4","0","SATNPRO1509","29.016000000000002","0.40642","5"],
    [23401,"HCEP03730566","2024-05-29 02:30:00","9.561","3.20645","26.759","5.051","7.57","0.569","51.473","0.04","0.25","29.2521","4.63882","53.43","0","SATNPRO1509","29.17","0.40854","5"],
    [23402,"HCEP03730566","2024-05-29 02:45:00","9.5577","3.20671","26.692","5.09","7.58","0.542","42.46","0.05","0.18","29.2575","4.63965","53.84","0","SATNPRO1509","29.178","0.40872","5"],
    [23403,"HCEP03730566","2024-05-29 03:00:00","9.5568","3.20685","26.635","5.123","7.58","0.593","39.201","0.08","0.19","29.2597","4.63997","54.19","0","SATNPRO1509","29.194","0.40892","5"],
    [23404,"HCEP03730566","2024-05-29 03:15:00","9.5565","3.20692","26.588","5.127","7.58","0.567","40.307","0.06","0.12","29.2607","4.64012","54.23","0","SATNPRO1509","29.278","0.41012","5"],
    [23405,"HCEP03730566","2024-05-29 03:30:00","9.5561","3.20695","26.551","5.128","7.58","0.555","42.696","0.05","0.2","29.2613","4.64021","54.24","0","SATNPRO1509","29.138","0.40808","5"],
    [23406,"HCEP03730566","2024-05-29 03:45:00","9.5561","3.20701","26.54","5.143","7.58","0.556","44.082","0.05","0.35","29.2619","4.64029","54.4","0","SATNPRO1509","29.308","0.41052","5"],
    [23407,"HCEP03730566","2024-05-29 04:00:00","9.5558","3.20699","26.54","5.165","7.58","0.544","42.714","0.05","0.25","29.2619","4.6403","54.63","0","SATNPRO1509","29.222","0.4093","5"],
    [23408,"HCEP03730566","2024-05-29 04:15:00","9.5557","3.20699","26.558","5.138","7.58","0.545","41.303","0.08","0.21","29.262","4.64033","54.35","0","SATNPRO1509","29.3","0.4104","5"],
    [23409,"HCEP03730566","2024-05-29 04:30:00","9.5552","3.20707","26.558","5.136","7.58","0.561","38.597","0.09","0.19","29.2632","4.64051","54.33","0","SATNPRO1509","29.154","0.40834","5"],
    [23410,"HCEP03730566","2024-05-29 04:45:00","9.5557","3.20704","26.581","5.143","7.59","0.535","34.574","0.07","0.26","29.2625","4.6404","54.4","0","SATNPRO1509","29.32","0.41068","5"],
    [23411,"HCEP03730566","2024-05-29 05:00:00","9.5559","3.20702","26.594","5.122","7.58","0.536","30.788","0.1","0.24","29.2622","4.64035","54.18","0","SATNPRO1509","29.342","0.41098","5"],
    [23412,"HCEP03730566","2024-05-29 05:15:00","9.5564","3.20696","26.617","5.121","7.58","0.521","25.451","0.06","0.12","29.2611","4.64019","54.17","0","SATNPRO1509","29.188","0.40882","5"],
    [23413,"HCEP03730566","2024-05-29 05:30:00","9.5563","3.20693","26.672","5.132","7.58","0.495","19.098","0.08","0.19","29.2608","4.64015","54.28","0","SATNPRO1509","29.204","0.40906","5"],
    [23414,"HCEP03730566","2024-05-29 05:45:00","9.5568","3.20692","26.679","5.135","7.59","0.492","14.515","0.05","0.13","29.2603","4.64007","54.32","0","SATNPRO1509","29.284000000000002","0.41016","5"],
    [23415,"HCEP03730566","2024-05-29 06:00:00","9.5574","3.20687","26.694","5.12","7.59","0.487","10.405","0.07","0.08","29.2593","4.63991","54.16","0","SATNPRO1509","29.21","0.40914","5"],
    [23416,"HCEP03730566","2024-05-29 06:15:00","9.5582","3.20684","26.773","5.098","7.58","0.539","7.304","0.11","0.14","29.2583","4.63977","53.93","0","SATNPRO1509","29.14","0.40818","5"],
    [23417,"HCEP03730566","2024-05-29 06:30:00","9.5583","3.20684","26.762","5.081","7.58","0.53","5.264","0.06","0.11","29.2582","4.63974","53.75","0","SATNPRO1509","29.224","0.40932","5"],
    [23418,"HCEP03730566","2024-05-29 06:45:00","9.5587","3.20685","26.838","5.082","7.58","0.522","4.55","0.09","0.18","29.258","4.63971","53.76","0","SATNPRO1509","29.198","0.409","5"],
    [23419,"HCEP03730566","2024-05-29 07:00:00","9.5588","3.20684","26.849","5.09","7.58","0.543","3.871","0.09","0.21","29.2578","4.63968","53.84","0","SATNPRO1509","29.29","0.41028","5"],
    [23420,"HCEP03730566","2024-05-29 07:15:00","9.5587","3.20681","26.902","5.09","7.58","0.517","3.372","0.05","0.35","29.2576","4.63966","53.85","0","SATNPRO1509","29.3","0.41036","5"],
    [23421,"HCEP03730566","2024-05-29 07:30:00","9.559","3.20676","26.957","5.104","7.58","0.536","2.908","0.08","0.15","29.2568","4.63955","53.99","0","SATNPRO1509","29.292","0.41026","5"],
    [23422,"HCEP03730566","2024-05-29 07:45:00","9.5589","3.20676","26.981","5.109","7.58","0.513","2.759","0.05","0.2","29.2569","4.63956","54.04","0","SATNPRO1509","29.3","0.4104","5"],
    [23423,"HCEP03730566","2024-05-29 08:00:00","9.5589","3.2068","26.993","5.105","7.58","0.589","2.928","0.13","0.32","29.2573","4.63961","54","0","SATNPRO1509","29.236","0.4095","5"],
    [23424,"HCEP03730566","2024-05-29 08:15:00","9.5587","3.20681","27.017","5.094","7.58","0.549","2.928","0.07","0.28","29.2575","4.63966","53.88","0","SATNPRO1509","29.386","0.41164","5"],
    [23425,"HCEP03730566","2024-05-29 08:30:00","9.5575","3.20682","27.003","5.098","7.58","0.56","2.387","0.09","0.12","29.2586","4.63983","53.93","0","SATNPRO1509","29.338","0.41094","5"],
    [23426,"HCEP03730566","2024-05-29 08:45:00","9.5574","3.20691","26.982","5.1","7.58","0.626","2.917","0.07","0.48","29.2597","4.63999","53.95","0","SATNPRO1509","29.222","0.4093","5"],
    [23427,"HCEP03730566","2024-05-29 09:00:00","9.5577","3.20691","26.963","5.084","7.58","0.643","3.129","0.08","0.3","29.2594","4.63994","53.78","0","SATNPRO1509","29.166","0.40854","5"],
    [23428,"HCEP03730566","2024-05-29 09:15:00","9.5538","3.20729","26.908","5.089","7.58","0.617","3.127","0.15","0.9","29.2665","4.64102","53.83","0","SATNPRO1509","29.332","0.41088","5"],
    [23429,"HCEP03730566","2024-05-29 09:30:00","9.5519","3.20744","26.849","5.129","7.58","0.579","2.635","0.08","0.15","29.2696","4.64149","54.25","0","SATNPRO1509","29.314","0.4106","5"],
    [23430,"HCEP03730566","2024-05-29 09:45:00","9.551","3.20754","26.762","5.161","7.58","0.611","2.881","0.12","0.32","29.2713","4.64175","54.59","0","SATNPRO1509","29.312","0.41056","5"],
    [23431,"HCEP03730566","2024-05-29 10:00:00","9.5493","3.20769","26.688","5.181","7.59","0.597","2.418","0.09","0.33","29.2742","4.64219","54.8","0","SATNPRO1509","29.4","0.41178","5"],
    [23432,"HCEP03730566","2024-05-29 10:15:00","9.5492","3.20778","26.586","5.201","7.59","0.626","2.793","0.13","0.65","29.2753","4.64234","55.01","0","SATNPRO1509","29.323999999999998","0.41076","5"],
    [23433,"HCEP03730566","2024-05-29 10:30:00","9.5461","3.20815","26.463","5.231","7.59","0.581","2.757","0.06","0.3","29.2816","4.64329","55.32","0","SATNPRO1509","29.56","0.41406","5"],
    [23434,"HCEP03730566","2024-05-29 10:45:00","9.5424","3.20835","26.36","5.327","7.6","0.49","2.056","0.04","0.13","29.2866","4.64407","56.33","0","SATNPRO1509","29.722","0.41632","5"],
    [23435,"HCEP03730566","2024-05-29 11:00:00","9.5422","3.20843","26.249","5.396","7.61","0.508","2.251","0.04","0.15","29.2876","4.64422","57.06","0","SATNPRO1509","29.62","0.41488","5"],
    [23436,"HCEP03730566","2024-05-29 11:15:00","9.5422","3.20845","26.074","5.372","7.61","0.546","2.39","0.05","0.22","29.288","4.64425","56.82","0","SATNPRO1509","29.66","0.41544","5"],
    [23437,"HCEP03730566","2024-05-29 11:30:00","9.5435","3.20842","25.938","5.363","7.61","0.54","2.464","0.09","0.15","29.2866","4.64403","56.72","0","SATNPRO1509","29.594","0.41454","5"],
    [23438,"HCEP03730566","2024-05-29 11:45:00","9.5443","3.20837","25.761","5.361","7.61","0.517","2.301","0.05","0.15","29.2855","4.64384","56.7","0","SATNPRO1509","29.62","0.41488","5"],
    [23439,"HCEP03730566","2024-05-29 12:00:00","9.5433","3.20842","25.582","5.365","7.61","0.528","2.279","0.08","0.17","29.2869","4.64405","56.74","0","SATNPRO1509","29.618","0.41482","5"],
    [23440,"HCEP03730566","2024-05-29 12:15:00","9.5434","3.20847","25.407","5.354","7.61","0.538","2.7","0.05","0.13","29.2875","4.64412","56.63","0","SATNPRO1509","29.512","0.41338","5"],
    [23441,"HCEP03730566","2024-05-29 12:30:00","9.5428","3.20849","25.266","5.356","7.61","0.54","2.367","0.07","0.14","29.2882","4.64422","56.65","0","SATNPRO1509","29.548000000000002","0.41388","5"],
    [23442,"HCEP03730566","2024-05-29 12:45:00","9.5424","3.20851","25.099","5.368","7.61","0.499","2.252","0.06","0.14","29.2888","4.64431","56.77","0","SATNPRO1509","29.605999999999998","0.41468","5"],
    [23443,"HCEP03730566","2024-05-29 13:00:00","9.5421","3.2085","24.931","5.377","7.61","0.506","2.428","0.04","0.15","29.2889","4.64432","56.86","0","SATNPRO1509","29.64","0.4152","5"],
    [23444,"HCEP03730566","2024-05-29 13:15:00","9.5421","3.20851","24.777","5.372","7.61","0.545","2.776","0.05","0.2","29.2892","4.64436","56.82","0","SATNPRO1509","29.68","0.41568","5"],
    [23445,"HCEP03730566","2024-05-29 13:30:00","9.542","3.20852","24.653","5.366","7.61","0.533","2.699","0.06","0.2","29.2894","4.64438","56.75","0","SATNPRO1509","29.712","0.41618","5"],
    [23446,"HCEP03730566","2024-05-29 13:45:00","9.5426","3.2085","24.586","5.363","7.61","0.517","2.71","0.04","0.2","29.2888","4.64427","56.71","0","SATNPRO1509","29.544","0.41384","5"],
    [23447,"HCEP03730566","2024-05-29 14:00:00","9.5414","3.20852","24.456","5.364","7.61","0.534","2.68","0.12","0.22","29.29","4.64446","56.73","0","SATNPRO1509","29.688","0.41586","5"],
    [23448,"HCEP03730566","2024-05-29 14:15:00","9.5405","3.20847","24.417","5.382","7.62","0.515","2.161","0.05","0.11","29.2901","4.6445","56.92","0","SATNPRO1509","29.814","0.4176","5"],
    [23449,"HCEP03730566","2024-05-29 14:30:00","9.5402","3.2085","24.397","5.403","7.62","0.55","2.445","0.12","0.15","29.2907","4.64459","57.15","0","SATNPRO1509","29.766000000000002","0.4169","5"],
    [23450,"HCEP03730566","2024-05-29 14:45:00","9.5393","3.20858","24.323","5.392","7.62","0.52","2.253","0.06","0.1","29.2923","4.64482","57.03","0","SATNPRO1509","29.746","0.41662","5"],
    [23451,"HCEP03730566","2024-05-29 15:00:00","9.5378","3.20873","24.357","5.388","7.62","0.518","2.658","0.03","0.11","29.295","4.64524","56.99","0","SATNPRO1509","29.686","0.4158","5"],
    [23452,"HCEP03730566","2024-05-29 15:15:00","9.5358","3.20872","24.395","5.391","7.62","0.531","2.248","0.14","0.11","29.2966","4.6455","57.02","0","SATNPRO1509","29.82","0.4177","5"],
    [23453,"HCEP03730566","2024-05-29 15:30:00","9.5364","3.20875","24.432","5.397","7.62","0.55","2.873","0.06","0.23","29.2963","4.64545","57.08","0","SATNPRO1509","29.718","0.41626","5"],
    [23454,"HCEP03730566","2024-05-29 15:45:00","9.5335","3.20887","24.491","5.4","7.62","0.56","2.425","0.12","0.18","29.3","4.64603","57.1","0","SATNPRO1509","29.822","0.4177","5"],
    [23455,"HCEP03730566","2024-05-29 16:00:00","9.5334","3.209","24.548","5.408","7.62","0.547","2.888","0.09","0.28","29.3013","4.64623","57.19","0","SATNPRO1509","29.75","0.41668","5"],
    [23456,"HCEP03730566","2024-05-29 16:15:00","9.53","3.20916","24.671","5.394","7.62","0.693","2.967","0.31","0.18","29.3056","4.64692","57.04","0","SATNPRO1509","29.722","0.41632","5"],
    [23457,"HCEP03730566","2024-05-29 16:30:00","9.5274","3.20926","24.77","5.416","7.62","0.513","2.835","0.05","0.14","29.3087","4.6474","57.27","0","SATNPRO1509","29.846","0.41802","5"],
    [23458,"HCEP03730566","2024-05-29 16:45:00","9.5257","3.20926","24.85","5.423","7.62","0.544","2.826","0.09","0.15","29.3101","4.64764","57.34","0","SATNPRO1509","29.922","0.41912","5"],
    [23459,"HCEP03730566","2024-05-29 17:00:00","9.5256","3.20928","25.079","5.436","7.62","0.521","2.668","0.08","0.11","29.3103","4.64768","57.48","0","SATNPRO1509","30.004","0.42026","5"],
    [23460,"HCEP03730566","2024-05-29 17:15:00","9.5254","3.20927","25.151","5.434","7.62","0.52","2.604","0.1","0.19","29.3103","4.64769","57.45","0","SATNPRO1509","29.836","0.41792","5"],
    [23461,"HCEP03730566","2024-05-29 17:30:00","9.5255","3.20927","25.261","5.442","7.62","0.504","2.478","0.08","0.55","29.3102","4.64768","57.54","0","SATNPRO1509","29.778","0.4171","5"],
    [23462,"HCEP03730566","2024-05-29 17:45:00","9.5266","3.20918","25.43","5.452","7.62","0.528","2.486","0.06","0.28","29.3084","4.64741","57.65","0","SATNPRO1509","29.962","0.41966","5"],
    [23463,"HCEP03730566","2024-05-29 18:00:00","9.5264","3.20922","25.64","5.463","7.62","0.563","2.443","0.11","0.15","29.3088","4.64749","57.77","0","SATNPRO1509","30.073999999999998","0.42124","5"],
    [23464,"HCEP03730566","2024-05-29 18:15:00","9.5261","3.2092","25.884","5.465","7.62","0.545","2.361","0.05","0.29","29.3087","4.64749","57.78","0","SATNPRO1509","30.122","0.42192","5"],
    [23465,"HCEP03730566","2024-05-29 18:30:00","9.5264","3.20929","26.074","5.471","7.62","0.603","2.627","0.05","0.25","29.3093","4.64759","57.85","0","SATNPRO1509","30.11","0.42178","5"],
    [23466,"HCEP03730566","2024-05-29 18:45:00","9.5279","3.20933","26.234","5.398","7.62","0.684","3.275","0.05","0.32","29.3084","4.64744","57.08","0","SATNPRO1509","29.814","0.41756","5"],
    [23467,"HCEP03730566","2024-05-29 19:00:00","9.5286","3.20938","26.447","5.348","7.62","0.719","3.545","0.03","0.12","29.3082","4.64742","56.55","0","SATNPRO1509","29.604","0.41466","5"],
    [23468,"HCEP03730566","2024-05-29 19:15:00","9.5279","3.20942","26.64","5.335","7.61","0.741","3.716","0.02","0.49","29.3092","4.64758","56.41","0","SATNPRO1509","29.704","0.41602","5"],
    [23469,"HCEP03730566","2024-05-29 19:30:00","9.5273","3.20942","26.828","5.323","7.61","0.751","3.73","0.03","0.25","29.3096","4.64765","56.28","0","SATNPRO1509","29.664","0.41546","5"],
    [23470,"HCEP03730566","2024-05-29 19:45:00","9.529","3.20936","27.068","5.295","7.61","0.726","3.819","0.02","0.21","29.3074","4.64733","55.99","0","SATNPRO1509","29.482","0.41294","5"],
    [23471,"HCEP03730566","2024-05-29 20:00:00","9.532","3.20928","27.182","5.269","7.61","0.672","4.005","0.01","0.16","29.3042","4.64683","55.71","0","SATNPRO1509","29.36","0.41124","5"],
    [23472,"HCEP03730566","2024-05-29 20:15:00","9.5355","3.20909","27.353","5.255","7.61","0.589","4.104","0.01","0.3","29.2993","4.64607","55.57","0","SATNPRO1509","29.424","0.41214","5"],
    [23473,"HCEP03730566","2024-05-29 20:30:00","9.545","3.20822","27.514","5.288","7.61","0.488","4.315","0.02","2.48","29.2828","4.64354","55.93","0","SATNPRO1509","29.586","0.4144","5"],
    [23474,"HCEP03730566","2024-05-29 20:45:00","9.5483","3.20808","27.615","5.356","7.61","0.38","6.126","0","0.15","29.2786","4.64289","56.64","0","SATNPRO1509","29.798000000000002","0.41736","5"],
    [23475,"HCEP03730566","2024-05-29 21:00:00","9.5411","3.20867","27.724","5.341","7.61","0.293","13.406","0.01","0.2","29.2903","4.6447","56.49","0","SATNPRO1509","29.48","0.4129","5"],
    [23476,"HCEP03730566","2024-05-29 21:15:00","9.5394","3.20881","27.834","5.296","7.61","0.205","28.111","0.01","0.25","29.2931","4.64514","56.01","0","SATNPRO1509","29.562","0.4141","5"],
    [23477,"HCEP03730566","2024-05-29 21:30:00","9.5377","3.20895","27.94","5.275","7.61","0.143","55.199","0","0.12","29.2959","4.64557","55.79","0","SATNPRO1509","29.358","0.41122","5"],
    [23478,"HCEP03730566","2024-05-29 21:45:00","9.5355","3.20908","27.964","5.253","7.61","0.115","102.221","0","0.11","29.2989","4.64605","55.55","0","SATNPRO1509","29.46","0.41264","5"],
    [23479,"HCEP03730566","2024-05-29 22:00:00","9.5334","3.20923","27.934","5.233","7.6","0.115","180.41","0","0.2","29.3023","4.64657","55.34","0","SATNPRO1509","29.326","0.41076","5"],
    [23480,"HCEP03730566","2024-05-29 22:15:00","9.5356","3.20911","27.921","5.249","7.6","0.126","301.75","0.01","0.17","29.2992","4.64608","55.51","0","SATNPRO1509","29.47","0.41276","5"],
    [23481,"HCEP03730566","2024-05-29 22:30:00","9.5475","3.20811","27.989","5.344","7.61","0.117","492.169","0.01","0.49","29.2795","4.64305","56.52","0","SATNPRO1509","29.752","0.41672","5"],
    [23482,"HCEP03730566","2024-05-29 22:45:00","9.5476","3.2081","27.993","5.363","7.61","0.135","704.392","0.01","0.69","29.2793","4.64302","56.72","0","SATNPRO1509","29.798000000000002","0.41738","5"],
    [23483,"NA","2024-05-29 23:00:00",null,null,null,null,null,null,null,null,null,null,null,null,null,"SATNPRO1509","29.664","0.41552","5"],
    [23484,"HCEP03730566","2024-05-29 23:00:01","9.5402","3.20852","27.993","5.347","7.61","0.187","722.14","0.01","0.19","29.2895","4.64462","56.55","0","NA",null,null,null],
    [23485,"HCEP03730566","2024-05-29 23:15:00","9.5454","3.20832","27.95","5.359","7.61","0.18","743.355","0.02","0","29.2832","4.64362","56.68","0","SATNPRO1509","29.766000000000002","0.41698","5"],
    [23486,"HCEP03730566","2024-05-29 23:30:00","9.5437","3.2084","27.88","5.362","7.61","0.186","713.943","0.01","0.43","29.2855","4.64397","56.71","0","SATNPRO1509","29.75","0.41672","5"],
    [23487,"HCEP03730566","2024-05-29 23:45:00","9.5348","3.20905","27.872","5.323","7.61","0.25","700.652","0.01","0.47","29.2992","4.6461","56.29","0","SATNPRO1509","29.502","0.41324","5"],
    [23488,"HCEP03730566","2024-05-30 00:00:00","9.5332","3.20917","27.791","5.31","7.61","0.256","532.111","0.02","0.14","29.3019","4.6465","56.15","0","SATNPRO1509","29.584","0.41438","5"],
    [23489,"HCEP03730566","2024-05-30 00:15:00","9.5322","3.20916","27.772","5.294","7.61","0.25","381.979","0.02","0","29.3025","4.64662","55.98","0","SATNPRO1509","29.626","0.41496","5"],
    [23490,"HCEP03730566","2024-05-30 00:30:00","9.5318","3.20934","27.683","5.282","7.61","0.237","220.735","0.01","0.15","29.3047","4.64693","55.86","0","SATNPRO1509","29.51","0.41336","5"],
    [23491,"HCEP03730566","2024-05-30 00:45:00","9.5336","3.20926","27.595","5.277","7.61","0.235","79.768","0.02","0.06","29.3025","4.64657","55.8","0","SATNPRO1509","29.454","0.41258","5"],
    [23492,"HCEP03730566","2024-05-30 01:00:00","9.5359","3.20925","27.5","5.23","7.6","0.232","38.089","0.01","0.05","29.3006","4.64625","55.31","0","SATNPRO1509","29.23","0.40942","5"],
    [23493,"HCEP03730566","2024-05-30 01:15:00","9.5402","3.20906","27.395","5.186","7.6","0.217","15.862","0.01","0.01","29.2952","4.6454","54.85","0","SATNPRO1509","29.174","0.40864","5"],
    [23494,"HCEP03730566","2024-05-30 01:30:00","9.5421","3.20901","27.34","5.151","7.6","0.207","3.517","0.02","0.01","29.2932","4.64508","54.48","0","SATNPRO1509","29.062","0.40704","5"],
    [23495,"HCEP03730566","2024-05-30 01:45:00","9.5454","3.20881","27.196","5.108","7.59","0.2","0.47","0.03","0.01","29.2885","4.64433","54.03","0","SATNPRO1509","28.932000000000002","0.40528","5"],
    [23496,"HCEP03730566","2024-05-30 02:00:00","9.5439","3.20884","27.1","5.097","7.59","0.166","0.299","0.01","0.01","29.2901","4.64459","53.91","0","SATNPRO1509","29.038","0.40674","5"],
    [23497,"HCEP03730566","2024-05-30 02:15:00","9.5394","3.20913","26.991","5.124","7.59","0.147","0.28","0.02","0.02","29.2967","4.64561","54.19","0","SATNPRO1509","29.108","0.40776","5"],
    [23498,"HCEP03730566","2024-05-30 02:30:00","9.5406","3.20903","26.872","5.143","7.59","0.129","0.256","0.03","0.01","29.2947","4.64529","54.39","0","SATNPRO1509","29.108","0.40772","5"],
    [23499,"HCEP03730566","2024-05-30 02:45:00","9.5426","3.20892","26.753","5.136","7.59","0.11","0.27","0.01","0.01","29.2921","4.64488","54.32","0","SATNPRO1509","29.06","0.40702","5"],
    [23500,"HCEP03730566","2024-05-30 03:00:00","9.5366","3.20916","26.643","5.163","7.59","0.096","0.482","0","0.01","29.2994","4.64602","54.6","0","SATNPRO1509","29.364","0.41128","5"],
    [23501,"HCEP03730566","2024-05-30 03:15:00","9.5353","3.2092","26.547","5.197","7.6","0.093","0.713","0.01","0.01","29.3009","4.64625","54.96","0","SATNPRO1509","29.306","0.41052","5"],
    [23502,"HCEP03730566","2024-05-30 03:30:00","9.5349","3.2092","26.465","5.201","7.6","0.099","0.914","0.01","0.02","29.3013","4.64631","55","0","SATNPRO1509","29.262","0.40984","5"],
    [23503,"HCEP03730566","2024-05-30 03:45:00","9.5379","3.2091","26.363","5.201","7.6","0.103","0.967","0.01","0.04","29.2979","4.64577","55","0","SATNPRO1509","29.306","0.4105","5"],
    [23504,"HCEP03730566","2024-05-30 04:00:00","9.5358","3.2092","26.327","5.198","7.6","0.108","0.997","0.01","0.04","29.3007","4.6462","54.97","0","SATNPRO1509","29.4","0.41176","5"],
    [23505,"HCEP03730566","2024-05-30 04:15:00","9.5389","3.209","26.308","5.19","7.6","0.121","0.942","0.01","0.06","29.296","4.64548","54.89","0","SATNPRO1509","29.291999999999998","0.4103","5"],
    [23506,"HCEP03730566","2024-05-30 04:30:00","9.5438","3.20867","26.284","5.184","7.6","0.126","0.899","0.02","0.05","29.2888","4.64436","54.83","0","SATNPRO1509","29.358","0.4112","5"],
    [23507,"HCEP03730566","2024-05-30 04:45:00","9.5437","3.20863","26.272","5.179","7.59","0.142","0.863","0.01","0.06","29.2885","4.64431","54.78","0","SATNPRO1509","29.314","0.41062","5"],
    [23508,"HCEP03730566","2024-05-30 05:00:00","9.543","3.20875","26.253","5.186","7.59","0.173","0.913","0.02","0.06","29.2902","4.64457","54.85","0","SATNPRO1509","29.392","0.41172","5"],
    [23509,"HCEP03730566","2024-05-30 05:15:00","9.5417","3.20886","26.268","5.185","7.59","0.207","1.016","0.03","0.09","29.2924","4.64491","54.84","0","SATNPRO1509","29.372","0.41138","5"],
    [23510,"HCEP03730566","2024-05-30 05:30:00","9.5418","3.20883","26.292","5.182","7.59","0.227","1.108","0.02","0.09","29.292","4.64485","54.81","0","SATNPRO1509","29.31","0.41054","5"],
    [23511,"HCEP03730566","2024-05-30 05:45:00","9.5426","3.20884","26.318","5.168","7.59","0.278","1.421","0.03","0.12","29.2914","4.64476","54.66","0","SATNPRO1509","29.29","0.41026","5"],
    [23512,"HCEP03730566","2024-05-30 06:00:00","9.5448","3.20874","26.321","5.124","7.59","0.348","1.81","0.05","0.1","29.2886","4.64432","54.2","0","SATNPRO1509","29.006","0.40628","5"],
    [23513,"HCEP03730566","2024-05-30 06:15:00","9.5453","3.20878","26.366","5.083","7.59","0.427","2.536","0.04","0.12","29.2886","4.64431","53.76","0","SATNPRO1509","28.928","0.4052","5"],
    [23514,"HCEP03730566","2024-05-30 06:30:00","9.5467","3.20868","26.386","5.048","7.58","0.431","2.626","0.04","0.16","29.2864","4.64397","53.39","0","SATNPRO1509","29.084","0.4074","5"],
    [23515,"HCEP03730566","2024-05-30 06:45:00","9.5494","3.20833","26.392","5.063","7.58","0.412","2.076","0.05","0.16","29.2808","4.64311","53.55","0","SATNPRO1509","29.256","0.4098","5"],
    [23516,"HCEP03730566","2024-05-30 07:00:00","9.5531","3.2081","26.459","5.131","7.58","0.378","1.638","0.04","0.11","29.2753","4.64227","54.28","0","SATNPRO1509","29.474","0.41286","5"],
    [23517,"HCEP03730566","2024-05-30 07:15:00","9.5535","3.20797","26.509","5.136","7.58","0.468","2.463","0.05","0.22","29.2737","4.64204","54.32","0","SATNPRO1509","29.228","0.40938","5"],
    [23518,"HCEP03730566","2024-05-30 07:30:00","9.5545","3.20803","26.546","5.093","7.58","0.534","2.7","0.06","0.21","29.2734","4.64198","53.88","0","SATNPRO1509","29.162","0.40844","5"],
    [23519,"HCEP03730566","2024-05-30 07:45:00","9.5546","3.20799","26.584","5.011","7.58","0.561","3.24","0.05","0.26","29.273","4.64192","53","0","SATNPRO1509","28.954","0.40556","5"],
    [23520,"HCEP03730566","2024-05-30 08:00:00","9.5546","3.20803","26.599","4.964","7.57","0.576","3.316","0.05","0.23","29.2734","4.64197","52.51","0","SATNPRO1509","28.862","0.4043","5"],
    [23521,"HCEP03730566","2024-05-30 08:15:00","9.5558","3.20791","26.658","4.949","7.57","0.577","3.127","0.05","0.15","29.2711","4.64163","52.35","0","SATNPRO1509","28.968","0.40576","5"],
    [23522,"HCEP03730566","2024-05-30 08:30:00","9.5573","3.20781","26.69","4.934","7.57","0.614","3.319","0.06","0.1","29.2689","4.64129","52.2","0","SATNPRO1509","28.884","0.40456","5"],
    [23523,"HCEP03730566","2024-05-30 08:45:00","9.5571","3.20786","26.72","4.916","7.57","0.641","3.554","0.1","0.11","29.2696","4.64139","52","0","SATNPRO1509","28.842","0.40396","5"],
    [23524,"HCEP03730566","2024-05-30 09:00:00","9.5589","3.20777","26.744","4.889","7.57","0.619","3.376","0.04","0.14","29.2672","4.64103","51.71","0","SATNPRO1509","28.843999999999998","0.40402","5"],
    [23525,"HCEP03730566","2024-05-30 09:15:00","9.5588","3.20777","26.764","4.873","7.57","0.635","3.345","0.06","0.15","29.2672","4.64103","51.55","0","SATNPRO1509","28.8","0.4034","5"],
    [23526,"HCEP03730566","2024-05-30 09:30:00","9.5607","3.20755","26.757","4.852","7.56","0.609","3.502","0.03","0.15","29.2635","4.64046","51.33","0","SATNPRO1509","28.7","0.402","5"],
    [23527,"HCEP03730566","2024-05-30 09:45:00","9.5628","3.20737","26.967","4.815","7.56","0.598","3.73","0.05","0.26","29.2598","4.63991","50.94","0","SATNPRO1509","28.772","0.40298","5"],
    [23528,"HCEP03730566","2024-05-30 10:00:00","9.5659","3.20705","26.91","4.771","7.56","0.66","4.974","0.03","0.29","29.2541","4.63903","50.48","0","SATNPRO1509","28.678","0.40168","5"],
    [23529,"HCEP03730566","2024-05-30 10:15:00","9.5647","3.20726","26.841","4.725","7.55","0.723","5.076","0.08","0.36","29.2572","4.6395","49.99","0","SATNPRO1509","28.56","0.40004","5"],
    [23530,"HCEP03730566","2024-05-30 10:30:00","9.5591","3.20775","26.793","4.76","7.55","0.67","4.358","0.05","0.33","29.2668","4.64096","50.36","0","SATNPRO1509","28.604","0.40066","5"],
    [23531,"HCEP03730566","2024-05-30 10:45:00","9.5549","3.20814","26.771","4.857","7.56","0.681","4.533","0.08","0.41","29.2742","4.64209","51.38","0","SATNPRO1509","28.844","0.40402","5"],
    [23532,"HCEP03730566","2024-05-30 11:00:00","9.5552","3.2081","26.691","4.924","7.56","0.613","3.36","0.07","0.29","29.2735","4.64199","52.09","0","SATNPRO1509","28.88","0.40454","5"],
    [23533,"HCEP03730566","2024-05-30 11:15:00","9.5545","3.20814","26.6","4.955","7.57","0.7","3.082","0.47","0.39","29.2746","4.64215","52.42","0","SATNPRO1509","29.006","0.40632","5"],
    [23534,"HCEP03730566","2024-05-30 11:30:00","9.5526","3.20822","26.506","5.04","7.57","0.529","2.653","0.1","0.32","29.277","4.64252","53.31","0","SATNPRO1509","29.436","0.41232","5"],
    [23535,"HCEP03730566","2024-05-30 11:45:00","9.5574","3.20788","26.351","5.106","7.58","0.501","2.176","0.06","0.13","29.2696","4.64137","54.01","0","SATNPRO1509","29.14","0.40816","5"],
    [23536,"HCEP03730566","2024-05-30 12:00:00","9.5544","3.20808","26.293","5.109","7.58","0.522","2.651","0.09","0.25","29.2742","4.64208","54.04","0","SATNPRO1509","29.43","0.41222","5"],
    [23537,"HCEP03730566","2024-05-30 12:15:00","9.5547","3.20807","26.17","5.141","7.58","0.498","2.718","0.05","0.21","29.2738","4.64201","54.38","0","SATNPRO1509","29.366","0.4113","5"],
    [23538,"HCEP03730566","2024-05-30 12:30:00","9.5551","3.2081","26.017","5.121","7.58","0.506","2.757","0.04","0.23","29.2739","4.642","54.17","0","SATNPRO1509","29.18","0.4087","5"],
    [23539,"HCEP03730566","2024-05-30 12:45:00","9.5545","3.20817","25.937","5.094","7.58","0.585","3.196","0.12","0.21","29.2751","4.64219","53.88","0","SATNPRO1509","29.018","0.40648","5"],
    [23540,"HCEP03730566","2024-05-30 13:00:00","9.5548","3.20825","25.765","5.075","7.58","0.564","3.526","0.06","0.28","29.2757","4.64226","53.68","0","SATNPRO1509","29.092","0.4075","5"],
    [23541,"HCEP03730566","2024-05-30 13:15:00","9.555","3.20822","25.676","5.05","7.58","0.565","3.421","0.08","0.27","29.2753","4.64219","53.42","0","SATNPRO1509","28.956","0.4056","5"],
    [23542,"HCEP03730566","2024-05-30 13:30:00","9.5551","3.20819","25.555","5.043","7.58","0.536","3.02","0.04","0.28","29.275","4.64214","53.34","0","SATNPRO1509","28.962","0.40564","5"],
    [23543,"HCEP03730566","2024-05-30 13:45:00","9.5553","3.20815","25.419","5.065","7.58","0.553","3.214","0.08","0.4","29.2745","4.64205","53.57","0","SATNPRO1509","29.106","0.40774","5"],
    [23544,"HCEP03730566","2024-05-30 14:00:00","9.5563","3.2081","25.275","5.093","7.58","0.521","2.915","0.06","0.21","29.2732","4.64185","53.87","0","SATNPRO1509","29.134","0.40806","5"],
    [23545,"HCEP03730566","2024-05-30 14:15:00","9.5558","3.20814","25.115","5.104","7.58","0.55","3.099","0.17","0.25","29.2741","4.64197","53.99","0","SATNPRO1509","29.158","0.40842","5"],
    [23546,"HCEP03730566","2024-05-30 14:30:00","9.5569","3.20806","24.951","5.093","7.58","0.567","3.341","0.11","0.31","29.2724","4.64171","53.88","0","SATNPRO1509","29.018","0.40644","5"],
    [23547,"HCEP03730566","2024-05-30 14:45:00","9.5568","3.20797","24.843","5.05","7.58","0.558","3.409","0.05","0.29","29.2717","4.64159","53.42","0","SATNPRO1509","28.89","0.40466","5"],
    [23548,"HCEP03730566","2024-05-30 15:00:00","9.5577","3.208","24.812","5.019","7.58","0.569","3.148","0.07","0.21","29.2712","4.64151","53.1","0","SATNPRO1509","28.924","0.40518","5"],
    [23549,"HCEP03730566","2024-05-30 15:15:00","9.5584","3.20789","24.751","5.009","7.58","0.581","3.349","0.1","0.3","29.2696","4.64126","52.99","0","SATNPRO1509","28.977999999999998","0.40588","5"],
    [23550,"HCEP03730566","2024-05-30 15:30:00","9.5596","3.20781","24.719","4.999","7.58","0.565","3.366","0.04","0.32","29.2678","4.64098","52.88","0","SATNPRO1509","28.904","0.40488","5"],
    [23551,"HCEP03730566","2024-05-30 15:45:00","9.5586","3.20785","24.749","4.987","7.58","0.565","3.334","0.07","0.17","29.269","4.64117","52.75","0","SATNPRO1509","28.886","0.4046","5"],
    [23552,"HCEP03730566","2024-05-30 16:00:00","9.5572","3.20794","24.706","4.985","7.57","0.605","3.433","0.1","0.2","29.2712","4.6415","52.74","0","SATNPRO1509","28.946","0.4054","5"],
    [23553,"HCEP03730566","2024-05-30 16:15:00","9.5561","3.20809","24.731","4.986","7.57","0.544","3.453","0.05","0.19","29.2735","4.64186","52.74","0","SATNPRO1509","28.868","0.40432","5"],
    [23554,"HCEP03730566","2024-05-30 16:30:00","9.5557","3.20813","24.761","4.982","7.57","0.514","3.417","0.05","0.2","29.2743","4.64198","52.71","0","SATNPRO1509","28.936","0.40534","5"],
    [23555,"HCEP03730566","2024-05-30 16:45:00","9.5551","3.20817","24.812","4.986","7.57","0.509","3.575","0.11","0.19","29.2751","4.6421","52.74","0","SATNPRO1509","28.824","0.40372","5"],
    [23556,"HCEP03730566","2024-05-30 17:00:00","9.5556","3.2081","24.882","4.987","7.57","0.498","3.511","0.06","0.24","29.2739","4.64194","52.76","0","SATNPRO1509","28.93","0.40518","5"],
    [23557,"HCEP03730566","2024-05-30 17:15:00","9.5564","3.20805","24.937","4.979","7.57","0.488","3.925","0.04","0.24","29.2728","4.64177","52.67","0","SATNPRO1509","28.848","0.40404","5"],
    [23558,"HCEP03730566","2024-05-30 17:30:00","9.5562","3.20808","25.052","4.969","7.57","0.482","4.029","0.05","0.19","29.2732","4.64183","52.56","0","SATNPRO1509","28.805999999999997","0.40348","5"],
    [23559,"HCEP03730566","2024-05-30 17:45:00","9.5565","3.20814","25.193","4.964","7.57","0.474","4.34","0.06","0.17","29.2735","4.64187","52.51","0","SATNPRO1509","28.928","0.40518","5"],
    [23560,"HCEP03730566","2024-05-30 18:00:00","9.5566","3.20816","25.307","4.963","7.57","0.443","4.14","0.03","0.19","29.2735","4.64188","52.5","0","SATNPRO1509","28.71","0.40214","5"],
    [23561,"HCEP03730566","2024-05-30 18:15:00","9.5569","3.2082","25.468","4.963","7.57","0.448","4.334","0.03","0.17","29.2737","4.64191","52.5","0","SATNPRO1509","28.758","0.4028","5"],
    [23562,"HCEP03730566","2024-05-30 18:30:00","9.5573","3.20828","25.605","4.989","7.57","0.43","4.188","0.04","0.16","29.2741","4.64197","52.78","0","SATNPRO1509","28.824","0.4037","5"],
    [23563,"HCEP03730566","2024-05-30 18:45:00","9.5584","3.20828","25.761","4.986","7.58","0.443","4.591","0.03","0.18","29.2732","4.64184","52.75","0","SATNPRO1509","28.834","0.40388","5"],
    [23564,"HCEP03730566","2024-05-30 19:00:00","9.5593","3.20823","25.903","4.97","7.57","0.459","5.57","0.04","0.1","29.2719","4.64164","52.58","0","SATNPRO1509","28.884","0.4046","5"],
    [23565,"HCEP03730566","2024-05-30 19:15:00","9.56","3.20825","26.093","4.956","7.57","0.475","8.244","0.03","0.13","29.2714","4.64157","52.43","0","SATNPRO1509","28.732","0.40246","5"],
    [23566,"HCEP03730566","2024-05-30 19:30:00","9.5605","3.20825","26.275","4.953","7.57","0.455","14.56","0.02","0.13","29.2709","4.6415","52.4","0","SATNPRO1509","28.69","0.40184","5"],
    [23567,"HCEP03730566","2024-05-30 19:45:00","9.5603","3.20825","26.45","4.95","7.57","0.496","21.493","0.04","0.18","29.271","4.64152","52.37","0","SATNPRO1509","28.704","0.40204","5"],
    [23568,"HCEP03730566","2024-05-30 20:00:00","9.5602","3.20818","26.669","4.955","7.57","0.477","23.459","0.04","0.11","29.2703","4.64144","52.42","0","SATNPRO1509","28.804","0.40344","5"],
    [23569,"HCEP03730566","2024-05-30 20:15:00","9.5608","3.20819","26.838","4.965","7.57","0.462","28.305","0.02","0.18","29.2698","4.64137","52.52","0","SATNPRO1509","28.764","0.40288","5"],
    [23570,"HCEP03730566","2024-05-30 20:30:00","9.5612","3.20815","27.06","4.959","7.57","0.458","32.241","0.03","0.11","29.269","4.64126","52.46","0","SATNPRO1509","28.84","0.40392","5"],
    [23571,"HCEP03730566","2024-05-30 20:45:00","9.5619","3.20811","27.203","4.953","7.57","0.487","33.76","0.04","0.1","29.2679","4.6411","52.4","0","SATNPRO1509","28.714","0.4022","5"],
    [23572,"HCEP03730566","2024-05-30 21:00:00","9.563","3.20814","27.384","4.938","7.57","0.469","34.116","0.02","0.16","29.2674","4.64101","52.24","0","SATNPRO1509","28.696","0.40192","5"],
    [23573,"HCEP03730566","2024-05-30 21:15:00","9.5634","3.20808","27.552","4.931","7.57","0.49","34.971","0.05","0.13","29.2664","4.64087","52.17","0","SATNPRO1509","28.66","0.40148","5"],
    [23574,"HCEP03730566","2024-05-30 21:30:00","9.5643","3.20803","27.658","4.93","7.57","0.473","34.682","0.03","0.13","29.265","4.64066","52.15","0","SATNPRO1509","28.716","0.40222","5"],
    [23575,"HCEP03730566","2024-05-30 21:45:00","9.5651","3.20801","27.776","4.926","7.57","0.484","35.354","0.04","0.18","29.2642","4.64054","52.11","0","SATNPRO1509","28.654","0.40134","5"],
    [23576,"HCEP03730566","2024-05-30 22:00:00","9.5654","3.20798","27.907","4.923","7.57","0.47","34.201","0.03","0.23","29.2636","4.64045","52.09","0","SATNPRO1509","28.718","0.40224","5"],
    [23577,"HCEP03730566","2024-05-30 22:15:00","9.5651","3.20802","28.022","4.919","7.57","0.477","33.916","0.02","0.12","29.2642","4.64056","52.04","0","SATNPRO1509","28.646","0.40122","5"],
    [23578,"HCEP03730566","2024-05-30 22:30:00","9.5653","3.20804","28.027","4.914","7.57","0.492","38.416","0.03","0.15","29.2641","4.64054","51.99","0","SATNPRO1509","28.65","0.4013","5"],
    [23579,"HCEP03730566","2024-05-30 22:45:00","9.5654","3.20799","28.044","4.909","7.57","0.497","45.295","0.03","0.33","29.2635","4.64045","51.94","0","SATNPRO1509","28.616","0.40086","5"],
    [23580,"HCEP03730566","2024-05-30 23:00:00","9.5658","3.20801","28.085","4.914","7.57","0.525","57.17","0.03","0.21","29.2635","4.64044","51.99","0","SATNPRO1509","28.714","0.40216","5"],
    [23581,"HCEP03730566","2024-05-30 23:15:00","9.5661","3.20794","28.103","4.909","7.57","0.525","65.906","0.03","0.12","29.2624","4.64029","51.93","0","SATNPRO1509","28.644000000000002","0.4012","5"],
    [23582,"HCEP03730566","2024-05-30 23:30:00","9.5662","3.20794","28.079","4.894","7.57","0.566","67.158","0.1","0.11","29.2624","4.64028","51.77","0","SATNPRO1509","28.654","0.40138","5"],
    [23583,"HCEP03730566","2024-05-30 23:45:00","9.5662","3.20802","28.062","4.872","7.57","0.592","67.583","0.05","0.19","29.2632","4.64039","51.54","0","SATNPRO1509","28.514","0.3994","5"],
    [23584,"HCEP03730566","2024-05-31 00:00:00","9.5656","3.20808","27.999","4.84","7.56","0.58","68.336","0.03","0.13","29.2643","4.64057","51.21","0","SATNPRO1509","28.448","0.39848","5"],
    [23585,"HCEP03730566","2024-05-31 00:15:00","9.5656","3.20814","27.937","4.817","7.56","0.6","65.187","0.04","0.15","29.265","4.64066","50.96","0","SATNPRO1509","28.354","0.39714","5"],
    [23586,"HCEP03730566","2024-05-31 00:30:00","9.5653","3.20822","27.919","4.778","7.56","0.616","55.388","0.06","0.14","29.266","4.64081","50.55","0","SATNPRO1509","28.208000000000002","0.3951","5"],
    [23587,"HCEP03730566","2024-05-31 00:45:00","9.5647","3.20825","27.844","4.751","7.55","0.598","36.341","0.04","0.33","29.2669","4.64094","50.26","0","SATNPRO1509","28.232","0.39544","5"],
    [23588,"HCEP03730566","2024-05-31 01:00:00","9.5644","3.20832","27.764","4.74","7.55","0.575","26.359","0.03","0.24","29.2678","4.64107","50.15","0","SATNPRO1509","28.252","0.3957","5"],
    [23589,"HCEP03730566","2024-05-31 01:15:00","9.5635","3.20836","27.663","4.724","7.55","0.573","44.131","0.05","0.22","29.269","4.64125","49.98","0","SATNPRO1509","28.188","0.39478","5"],
    [23590,"HCEP03730566","2024-05-31 01:30:00","9.5631","3.20838","27.566","4.726","7.55","0.553","65.182","0.03","0.17","29.2696","4.64134","50","0","SATNPRO1509","28.134","0.39406","5"],
    [23591,"HCEP03730566","2024-05-31 01:45:00","9.5631","3.20839","27.479","4.717","7.55","0.574","68.223","0.06","0.15","29.2697","4.64136","49.9","0","SATNPRO1509","28.06","0.39302","5"],
    [23592,"HCEP03730566","2024-05-31 02:00:00","9.5632","3.20838","27.372","4.716","7.55","0.549","63.096","0.03","0.2","29.2696","4.64133","49.89","0","SATNPRO1509","28.258","0.39578","5"],
    [23593,"HCEP03730566","2024-05-31 02:15:00","9.5628","3.20836","27.249","4.723","7.55","0.557","61.036","0.04","0.15","29.2697","4.64135","49.96","0","SATNPRO1509","28.298000000000002","0.39636","5"],
    [23594,"HCEP03730566","2024-05-31 02:30:00","9.5621","3.20844","27.138","4.724","7.54","0.554","63.446","0.05","0.14","29.2712","4.64156","49.98","0","SATNPRO1509","28.11","0.39374","5"],
    [23595,"HCEP03730566","2024-05-31 02:45:00","9.5618","3.20846","27.013","4.72","7.55","0.56","61.333","0.06","0.66","29.2717","4.64163","49.94","0","SATNPRO1509","28.278","0.39606","5"],
    [23596,"HCEP03730566","2024-05-31 03:00:00","9.5626","3.20839","26.892","4.722","7.55","0.572","50.129","0.05","0.23","29.2703","4.64141","49.95","0","SATNPRO1509","28.218","0.39522","5"],
    [23597,"HCEP03730566","2024-05-31 03:15:00","9.5621","3.20839","26.73","4.734","7.55","0.552","41.275","0.05","0.15","29.2708","4.64149","50.08","0","SATNPRO1509","28.24","0.39556","5"],
    [23598,"HCEP03730566","2024-05-31 03:30:00","9.5612","3.20844","26.577","4.741","7.55","0.534","35.786","0.04","0.21","29.2722","4.64168","50.16","0","SATNPRO1509","28.124","0.39392","5"],
    [23599,"HCEP03730566","2024-05-31 03:45:00","9.5604","3.20841","26.449","4.748","7.55","0.519","34.076","0.04","0.06","29.2725","4.64174","50.23","0","SATNPRO1509","28.33","0.3968","5"],
    [23600,"HCEP03730566","2024-05-31 04:00:00","9.5605","3.20845","26.289","4.763","7.55","0.535","33.087","0.06","0.07","29.2729","4.64179","50.39","0","SATNPRO1509","28.402","0.39784","5"],
    [23601,"HCEP03730566","2024-05-31 04:15:00","9.5596","3.20849","26.171","4.759","7.55","0.666","32.41","0.47","0.1","29.2741","4.64196","50.34","0","SATNPRO1509","28.254","0.39576","5"],
    [23602,"HCEP03730566","2024-05-31 04:30:00","9.5594","3.20853","26.043","4.729","7.55","0.555","30.816","0.05","0.13","29.2747","4.64205","50.03","0","SATNPRO1509","28.206","0.39506","5"],
    [23603,"HCEP03730566","2024-05-31 04:45:00","9.5585","3.2085","25.928","4.749","7.55","0.521","31.657","0.04","0.14","29.2752","4.64213","50.24","0","SATNPRO1509","28.392","0.39772","5"],
    [23604,"HCEP03730566","2024-05-31 05:00:00","9.5581","3.20855","25.833","4.783","7.55","0.571","34.943","0.08","0.37","29.2761","4.64226","50.59","0","SATNPRO1509","28.736","0.40252","5"],
    [23605,"HCEP03730566","2024-05-31 05:15:00","9.5585","3.20841","25.789","4.797","7.55","0.505","32.185","0.04","0.08","29.2743","4.64199","50.75","0","SATNPRO1509","28.364","0.39726","5"],
    [23606,"HCEP03730566","2024-05-31 05:30:00","9.5573","3.20851","25.752","4.813","7.56","0.525","25.49","0.04","0.2","29.2763","4.6423","50.91","0","SATNPRO1509","28.44","0.39836","5"],
    [23607,"HCEP03730566","2024-05-31 05:45:00","9.5567","3.20855","25.718","4.815","7.56","0.519","23.477","0.04","0.2","29.2772","4.64243","50.93","0","SATNPRO1509","28.598","0.40058","5"],
    [23608,"HCEP03730566","2024-05-31 06:00:00","9.5555","3.20861","25.738","4.806","7.56","0.493","20.247","0.05","0.24","29.2788","4.64269","50.84","0","SATNPRO1509","28.317999999999998","0.39664","5"],
    [23609,"HCEP03730566","2024-05-31 06:15:00","9.5544","3.20872","25.755","4.794","7.56","0.533","17.197","0.04","0.23","29.2809","4.64301","50.72","0","SATNPRO1509","28.378","0.3975","5"],
    [23610,"HCEP03730566","2024-05-31 06:30:00","9.5542","3.2087","25.787","4.781","7.56","0.588","11.153","0.14","0.44","29.2807","4.64299","50.57","0","SATNPRO1509","28.448","0.39844","5"],
    [23611,"HCEP03730566","2024-05-31 06:45:00","9.5399","3.20943","25.841","4.866","7.56","0.447","7.447","0.06","1.42","29.2997","4.64597","51.46","0","SATNPRO1509","29.276","0.41","5"],
    [23612,"HCEP03730566","2024-05-31 07:00:00","9.537","3.20965","25.87","5.012","7.57","0.463","5.546","0.03","0.44","29.3043","4.64668","53.01","0","SATNPRO1509","29.186","0.40878","5"],
    [23613,"HCEP03730566","2024-05-31 07:15:00","9.5256","3.21026","25.902","5.062","7.57","0.416","3.908","0.06","0.24","29.3198","4.6491","53.53","0","SATNPRO1509","29.52","0.41352","5"],
    [23614,"HCEP03730566","2024-05-31 07:30:00","9.5243","3.21026","25.931","5.126","7.58","0.44","3.686","0.05","0.23","29.3208","4.64927","54.2","0","SATNPRO1509","29.514","0.41338","5"],
    [23615,"HCEP03730566","2024-05-31 07:45:00","9.5148","3.21072","25.983","5.168","7.59","0.423","3.064","0.06","0.17","29.3332","4.65122","54.64","0","SATNPRO1509","29.706","0.41608","5"],
    [23616,"HCEP03730566","2024-05-31 08:00:00","9.503","3.2112","26.054","5.214","7.59","0.436","2.721","0.09","0.22","29.3478","4.65351","55.11","0","SATNPRO1509","29.874","0.41848","5"],
    [23617,"HCEP03730566","2024-05-31 08:15:00","9.5","3.21133","26.136","5.249","7.59","0.464","3.149","0.15","1.29","29.3515","4.65411","55.49","0","SATNPRO1509","30.152","0.42234","5"],
    [23618,"HCEP03730566","2024-05-31 08:30:00","9.4957","3.21153","26.227","5.267","7.6","0.413","2.825","0.03","0.39","29.3569","4.65497","55.67","0","SATNPRO1509","30.008","0.4203","5"],
    [23619,"HCEP03730566","2024-05-31 08:45:00","9.4961","3.21157","26.275","5.268","7.6","0.463","2.951","0.09","0.23","29.357","4.65497","55.68","0","SATNPRO1509","29.972","0.4198","5"],
    [23620,"HCEP03730566","2024-05-31 09:00:00","9.4932","3.21158","26.318","5.28","7.6","0.461","2.425","0.09","0.17","29.3595","4.65538","55.81","0","SATNPRO1509","29.962","0.41968","5"],
    [23621,"HCEP03730566","2024-05-31 09:15:00","9.495","3.21163","26.412","5.284","7.6","0.487","3.125","0.07","0.27","29.3585","4.65521","55.84","0","SATNPRO1509","30.014","0.42038","5"],
    [23622,"HCEP03730566","2024-05-31 09:30:00","9.4887","3.21163","26.451","5.314","7.61","0.39","1.973","0.07","0.22","29.3636","4.65605","56.16","0","SATNPRO1509","30.308","0.42454","5"],
    [23623,"HCEP03730566","2024-05-31 09:45:00","9.4891","3.21177","26.556","5.368","7.61","0.47","2.769","0.17","0.33","29.3646","4.65621","56.73","0","SATNPRO1509","30.298","0.42438","5"],
    [23624,"HCEP03730566","2024-05-31 10:00:00","9.4888","3.21173","26.613","5.356","7.61","0.418","2.392","0.04","0.17","29.3645","4.65619","56.61","0","SATNPRO1509","30.33","0.42482","5"],
    [23625,"HCEP03730566","2024-05-31 10:15:00","9.4924","3.21162","26.636","5.364","7.61","0.451","2.812","0.15","0.33","29.3604","4.65555","56.69","0","SATNPRO1509","30.19","0.42288","5"],
    [23626,"HCEP03730566","2024-05-31 10:30:00","9.4985","3.21135","26.679","5.349","7.61","0.453","3.388","0.05","0.35","29.3526","4.65433","56.54","0","SATNPRO1509","30.142","0.4222","5"],
    [23627,"HCEP03730566","2024-05-31 10:45:00","9.4993","3.21143","26.615","5.322","7.61","0.521","4.019","0.06","0.3","29.3529","4.65435","56.26","0","SATNPRO1509","30.192","0.42286","5"],
    [23628,"HCEP03730566","2024-05-31 11:00:00","9.5043","3.21108","26.624","5.314","7.61","0.51","2.606","0.1","0.41","29.3452","4.65315","56.18","0","SATNPRO1509","29.958","0.41962","5"],
    [23629,"HCEP03730566","2024-05-31 11:15:00","9.5069","3.21104","26.644","5.314","7.61","0.473","2.884","0.06","0.22","29.3426","4.65274","56.18","0","SATNPRO1509","30.002","0.42022","5"],
    [23630,"HCEP03730566","2024-05-31 11:30:00","9.5231","3.20994","26.672","5.309","7.61","0.48","2.397","0.06","0.17","29.3183","4.64898","56.13","0","SATNPRO1509","29.7","0.416","5"],
    [23631,"HCEP03730566","2024-05-31 11:45:00","9.5029","3.21135","26.675","5.312","7.61","0.484","2.838","0.04","0.23","29.3491","4.65374","56.16","0","SATNPRO1509","29.87","0.41836","5"],
    [23632,"HCEP03730566","2024-05-31 12:00:00","9.4987","3.2115","26.604","5.297","7.61","0.527","3.136","0.06","0.27","29.3541","4.65452","55.99","0","SATNPRO1509","30.238","0.42354","5"],
    [23633,"HCEP03730566","2024-05-31 12:15:00","9.4924","3.21179","26.535","5.292","7.61","0.602","3.768","0.09","0.23","29.3622","4.65579","55.93","0","SATNPRO1509","30.202","0.423","5"],
    [23634,"HCEP03730566","2024-05-31 12:30:00","9.4889","3.2118","26.478","5.309","7.61","0.496","2.86","0.06","0.18","29.3651","4.65628","56.11","0","SATNPRO1509","30.302","0.42448","5"],
    [23635,"HCEP03730566","2024-05-31 12:45:00","9.4863","3.21199","26.466","5.336","7.61","0.472","2.544","0.04","0.11","29.3692","4.6569","56.39","0","SATNPRO1509","30.394","0.4257","5"],
    [23636,"HCEP03730566","2024-05-31 13:00:00","9.4943","3.21157","26.394","5.353","7.61","0.434","2.295","0.07","0.2","29.3584","4.65522","56.58","0","SATNPRO1509","30.232","0.42342","5"],
    [23637,"HCEP03730566","2024-05-31 13:15:00","9.4803","3.21258","26.295","5.327","7.61","0.575","4.201","0.07","0.32","29.3801","4.65856","56.29","0","SATNPRO1509","30.014","0.42036","5"],
    [23638,"HCEP03730566","2024-05-31 13:30:00","9.4792","3.2125","26.222","5.29","7.61","0.518","2.825","0.06","0.17","29.3803","4.6586","55.91","0","SATNPRO1509","30.328","0.4248","5"],
    [23639,"HCEP03730566","2024-05-31 13:45:00","9.4833","3.21207","26.146","5.321","7.61","0.401","1.663","0.05","0.09","29.3726","4.65743","56.24","0","SATNPRO1509","30.236","0.42352","5"],
    [23640,"HCEP03730566","2024-05-31 14:00:00","9.4728","3.21276","26.033","5.351","7.61","0.458","2.258","0.07","0.49","29.3883","4.65985","56.54","0","SATNPRO1509","30.252","0.42374","5"],
    [23641,"HCEP03730566","2024-05-31 14:15:00","9.4918","3.2116","25.927","5.349","7.61","0.455","1.599","0.1","0.19","29.361","4.6556","56.54","0","SATNPRO1509","30.328","0.42478","5"],
    [23642,"HCEP03730566","2024-05-31 14:30:00","9.4975","3.2111","25.822","5.4","7.61","0.383","1.44","0.18","0.21","29.3514","4.65411","57.07","0","SATNPRO1509","30.562","0.4281","5"],
    [23643,"HCEP03730566","2024-05-31 14:45:00","9.4932","3.21107","25.705","5.433","7.62","0.365","1.478","0.06","0.06","29.3546","4.65464","57.42","0","SATNPRO1509","30.586","0.42842","5"],
    [23644,"HCEP03730566","2024-05-31 15:00:00","9.5029","3.21059","25.585","5.463","7.62","0.32","0.893","0.04","0.08","29.3419","4.65264","57.74","0","SATNPRO1509","30.812","0.43152","5"],
    [23645,"HCEP03730566","2024-05-31 15:15:00","9.4794","3.21267","25.474","5.42","7.62","0.552","3.38","0.05","0.2","29.3822","4.65883","57.28","0","SATNPRO1509","30.042","0.42078","5"],
    [23646,"HCEP03730566","2024-05-31 15:30:00","9.4679","3.21362","25.371","5.293","7.61","0.546","3.175","0.08","0.17","29.4013","4.66176","55.92","0","SATNPRO1509","30.056","0.42102","5"],
    [23647,"HCEP03730566","2024-05-31 15:45:00","9.4706","3.21342","25.289","5.216","7.61","0.547","3.154","0.11","0.14","29.3971","4.66111","55.12","0","SATNPRO1509","30.164","0.42248","5"],
    [23648,"HCEP03730566","2024-05-31 16:00:00","9.4718","3.2135","25.195","5.192","7.6","0.58","3.521","0.12","0.22","29.3968","4.66104","54.86","0","SATNPRO1509","29.936","0.41932","5"],
    [23649,"HCEP03730566","2024-05-31 16:15:00","9.473","3.21336","25.156","5.171","7.6","0.541","3.323","0.05","0.1","29.3945","4.66069","54.64","0","SATNPRO1509","29.98","0.41994","5"],
    [23650,"HCEP03730566","2024-05-31 16:30:00","9.4742","3.21326","25.092","5.175","7.6","0.554","3.3","0.07","0.19","29.3925","4.66038","54.69","0","SATNPRO1509","29.974","0.41984","5"],
    [23651,"HCEP03730566","2024-05-31 16:45:00","9.4759","3.21312","25.049","5.181","7.6","0.558","3.383","0.08","0.19","29.3898","4.65996","54.75","0","SATNPRO1509","29.962","0.41966","5"],
    [23652,"HCEP03730566","2024-05-31 17:00:00","9.4774","3.21294","25.058","5.186","7.6","0.56","3.168","0.19","0.12","29.3867","4.65948","54.8","0","SATNPRO1509","30.1","0.4216","5"],
    [23653,"HCEP03730566","2024-05-31 17:15:00","9.4815","3.21266","25.083","5.202","7.6","0.517","3.14","0.04","0.14","29.3805","4.65853","54.98","0","SATNPRO1509","29.94","0.41938","5"],
    [23654,"HCEP03730566","2024-05-31 17:30:00","9.4722","3.21356","25.112","5.191","7.6","0.555","3.445","0.06","0.15","29.3972","4.66108","54.85","0","SATNPRO1509","29.846","0.418","5"],
    [23655,"HCEP03730566","2024-05-31 17:45:00","9.476","3.21315","25.164","5.166","7.6","0.535","3.217","0.04","0.11","29.3899","4.65998","54.59","0","SATNPRO1509","29.994","0.4201","5"],
    [23656,"HCEP03730566","2024-05-31 18:00:00","9.4849","3.21244","25.232","5.195","7.6","0.505","2.911","0.04","0.12","29.3754","4.65775","54.9","0","SATNPRO1509","30.026","0.42056","5"],
    [23657,"HCEP03730566","2024-05-31 18:15:00","9.4854","3.21241","25.292","5.211","7.6","0.531","2.851","0.04","0.13","29.3747","4.65764","55.08","0","SATNPRO1509","30.084","0.4214","5"],
    [23658,"HCEP03730566","2024-05-31 18:30:00","9.4896","3.21226","25.335","5.209","7.6","0.567","2.974","0.06","0.15","29.3698","4.65686","55.06","0","SATNPRO1509","30.046","0.42084","5"],
    [23659,"HCEP03730566","2024-05-31 18:45:00","9.472","3.21412","25.409","5.134","7.6","0.697","3.821","0.06","0.2","29.403","4.66193","54.26","0","SATNPRO1509","29.666","0.41552","5"],
    [23660,"HCEP03730566","2024-05-31 19:00:00","9.4655","3.21457","25.527","5.013","7.59","0.726","4.538","0.04","0.32","29.4128","4.66346","52.97","0","SATNPRO1509","29.516","0.41344","5"],
    [23661,"HCEP03730566","2024-05-31 19:15:00","9.458","3.21495","25.657","4.97","7.59","0.77","4.708","0.05","0.23","29.4227","4.66503","52.51","0","SATNPRO1509","29.534","0.41368","5"],
    [23662,"HCEP03730566","2024-05-31 19:30:00","9.4584","3.21477","25.782","5","7.59","0.752","4.328","0.02","0.22","29.4205","4.66472","52.82","0","SATNPRO1509","29.828","0.41782","5"],
    [23663,"HCEP03730566","2024-05-31 19:45:00","9.4604","3.21467","25.89","5.022","7.59","0.748","3.998","0.02","0.2","29.4177","4.66428","53.06","0","SATNPRO1509","29.684","0.4158","5"],
    [23664,"HCEP03730566","2024-05-31 20:00:00","9.4625","3.21444","26.05","5.023","7.59","0.755","4.501","0.02","0.22","29.4137","4.66368","53.07","0","SATNPRO1509","29.678","0.4157","5"],
    [23665,"HCEP03730566","2024-05-31 20:15:00","9.4629","3.21397","26.215","5.053","7.59","0.696","3.805","0.01","0.24","29.4086","4.66295","53.39","0","SATNPRO1509","29.844","0.41802","5"],
    [23666,"HCEP03730566","2024-05-31 20:30:00","9.4604","3.21409","26.438","5.104","7.59","0.634","4.182","0.01","0.54","29.4117","4.66345","53.93","0","SATNPRO1509","30.066","0.42112","5"],
    [23667,"HCEP03730566","2024-05-31 20:45:00","9.4632","3.2145","26.667","5.082","7.59","0.553","5.427","0.01","0.28","29.4135","4.66367","53.7","0","SATNPRO1509","29.782","0.41714","5"],
    [23668,"HCEP03730566","2024-05-31 21:00:00","9.4621","3.21446","26.879","5.035","7.59","0.447","6.559","0.01","0.23","29.4139","4.66376","53.19","0","SATNPRO1509","29.692","0.41586","5"],
    [23669,"HCEP03730566","2024-05-31 21:15:00","9.4608","3.21422","27.039","5.061","7.59","0.342","10.211","0","0.33","29.4124","4.66358","53.47","0","SATNPRO1509","30.178","0.42276","5"],
    [23670,"HCEP03730566","2024-05-31 21:30:00","9.4633","3.21466","27.201","5.06","7.59","0.25","20.992","0","0.36","29.4148","4.66389","53.46","0","SATNPRO1509","29.696","0.41594","5"],
    [23671,"HCEP03730566","2024-05-31 21:45:00","9.4611","3.21436","27.375","5.028","7.59","0.167","39.153","0","0.15","29.4135","4.66376","53.12","0","SATNPRO1509","29.886","0.41858","5"],
    [23672,"HCEP03730566","2024-05-31 22:00:00","9.4655","3.21388","27.413","5.069","7.59","0.122","74.572","0","0.25","29.405","4.66246","53.56","0","SATNPRO1509","30.012","0.42038","5"],
    [23673,"HCEP03730566","2024-05-31 22:15:00","9.4691","3.21395","27.605","5.066","7.59","0.109","137.775","0.01","0.42","29.4027","4.66208","53.53","0","SATNPRO1509","29.806","0.41748","5"],
    [23674,"HCEP03730566","2024-05-31 22:30:00","9.4781","3.21305","27.701","5.085","7.59","0.109","236.4","0.01","0.27","29.3861","4.65954","53.73","0","SATNPRO1509","29.918","0.41904","5"],
    [23675,"HCEP03730566","2024-05-31 22:45:00","9.4827","3.2128","27.852","5.144","7.59","0.117","397.835","0.01","1.62","29.3798","4.65857","54.37","0","SATNPRO1509","30.152","0.42234","5"],
    [23676,"HCEP03730566","2024-05-31 23:00:00","9.49","3.21232","27.92","5.135","7.59","0.139","639.597","0.01","0.47","29.3689","4.65688","54.27","0","SATNPRO1509","29.778","0.41712","5"],
    [23677,"HCEP03730566","2024-05-31 23:15:00","9.4993","3.21174","27.927","5.11","7.59","0.162","727.064","0.01","0.9","29.3554","4.65479","54.02","0","SATNPRO1509","29.86","0.41822","5"],
    [23678,"HCEP03730566","2024-05-31 23:30:00","9.4902","3.21292","27.971","5.062","7.59","0.196","782.137","0.03","0.47","29.3749","4.65774","53.51","0","SATNPRO1509","29.43","0.4122","5"],
    [23679,"HCEP03730566","2024-05-31 23:45:00","9.4912","3.21278","28.016","5.01","7.59","0.206","778.962","0.01","0","29.3725","4.65738","52.95","0","SATNPRO1509","29.564","0.41412","5"],
    [23680,"HCEP03730566","2024-06-01 00:00:00","9.4937","3.21254","28.028","5.026","7.59","0.221","721.357","0.03","0.47","29.3681","4.65671","53.12","0","SATNPRO1509","29.566","0.4141","5"],
    [23681,"HCEP03730566","2024-06-01 00:15:00","9.4975","3.21224","28.005","5.035","7.59","0.211","674.993","0.01","0","29.362","4.65576","53.22","0","SATNPRO1509","29.536","0.41372","5"],
    [23682,"HCEP03730566","2024-06-01 00:30:00","9.4899","3.21302","27.985","4.958","7.58","0.249","488.469","0.04","0.56","29.3761","4.65792","52.41","0","SATNPRO1509","29.444","0.4124","5"],
    [23683,"HCEP03730566","2024-06-01 00:45:00","9.4909","3.21283","27.956","4.949","7.58","0.214","330.393","0.01","0.21","29.3734","4.65751","52.31","0","SATNPRO1509","29.448","0.41248","5"],
    [23684,"HCEP03730566","2024-06-01 01:00:00","9.4898","3.21255","27.878","4.994","7.58","0.204","149.176","0.01","0.18","29.3714","4.65724","52.78","0","SATNPRO1509","29.624","0.41488","5"],
    [23685,"HCEP03730566","2024-06-01 01:15:00","9.4878","3.21206","27.823","5.053","7.58","0.188","55.885","0.01","0.05","29.3682","4.65682","53.4","0","SATNPRO1509","29.75","0.4167","5"],
    [23686,"HCEP03730566","2024-06-01 01:30:00","9.4891","3.21205","27.732","5.107","7.59","0.174","29.358","0.02","0.03","29.3671","4.65662","53.97","0","SATNPRO1509","29.822","0.41772","5"],
    [23687,"HCEP03730566","2024-06-01 01:45:00","9.4878","3.21199","27.659","5.134","7.59","0.164","10.191","0.01","0.01","29.3674","4.65669","54.26","0","SATNPRO1509","29.866","0.4183","5"],
    [23688,"HCEP03730566","2024-06-01 02:00:00","9.4863","3.21183","27.528","5.181","7.59","0.146","1.572","0.01","0.01","29.3672","4.65668","54.75","0","SATNPRO1509","29.93","0.41924","5"],
    [23689,"HCEP03730566","2024-06-01 02:15:00","9.4838","3.21172","27.41","5.212","7.6","0.113","0.23","0.02","0.01","29.3682","4.65686","55.08","0","SATNPRO1509","30.166","0.42254","5"],
    [23690,"HCEP03730566","2024-06-01 02:30:00","9.4838","3.21192","27.311","5.217","7.6","0.115","0.254","0.01","0.01","29.3702","4.65715","55.14","0","SATNPRO1509","30.035999999999998","0.4207","5"],
    [23691,"HCEP03730566","2024-06-01 02:45:00","9.4805","3.2118","27.182","5.223","7.6","0.099","0.212","0","0.01","29.3718","4.65742","55.19","0","SATNPRO1509","30.154","0.42234","5"],
    [23692,"HCEP03730566","2024-06-01 03:00:00","9.4799","3.21198","27.01","5.259","7.6","0.083","0.208","0.01","0.01","29.3742","4.65776","55.57","0","SATNPRO1509","30.204","0.42306","5"],
    [23693,"HCEP03730566","2024-06-01 03:15:00","9.4776","3.2121","26.893","5.253","7.6","0.077","0.291","0.01","0.02","29.3773","4.65824","55.5","0","SATNPRO1509","30.116","0.42182","5"],
    [23694,"HCEP03730566","2024-06-01 03:30:00","9.4741","3.21227","26.701","5.262","7.61","0.108","0.857","0.09","0.73","29.3819","4.65896","55.6","0","SATNPRO1509","30.176","0.4227","5"],
    [23695,"HCEP03730566","2024-06-01 03:45:00","9.471","3.21236","26.543","5.26","7.61","0.073","0.755","0.01","0.04","29.3855","4.65952","55.57","0","SATNPRO1509","30.218","0.42324","5"],
    [23696,"HCEP03730566","2024-06-01 04:00:00","9.4715","3.21242","26.368","5.255","7.61","0.075","0.919","0.01","0.04","29.3858","4.65954","55.52","0","SATNPRO1509","30.252","0.42366","5"],
    [23697,"HCEP03730566","2024-06-01 04:15:00","9.4699","3.21252","26.25","5.234","7.61","0.088","1.014","0.01","0.06","29.3881","4.65989","55.3","0","SATNPRO1509","30.348","0.42506","5"],
    [23698,"HCEP03730566","2024-06-01 04:30:00","9.4683","3.21256","26.098","5.226","7.6","0.085","0.97","0.01","0.05","29.3899","4.66017","55.22","0","SATNPRO1509","30.264","0.42388","5"],
    [23699,"HCEP03730566","2024-06-01 04:45:00","9.4678","3.21266","25.937","5.231","7.6","0.107","1.006","0.07","0.07","29.3913","4.66037","55.27","0","SATNPRO1509","30.264","0.42388","5"],
    [23700,"HCEP03730566","2024-06-01 05:00:00","9.4677","3.21278","25.789","5.204","7.6","0.119","1.148","0.02","0.13","29.3927","4.66057","54.99","0","SATNPRO1509","30.29","0.42428","5"],
    [23701,"HCEP03730566","2024-06-01 05:15:00","9.4664","3.2129","25.611","5.188","7.6","0.14","1.231","0.02","0.09","29.395","4.66091","54.81","0","SATNPRO1509","30.188","0.42284","5"],
    [23702,"HCEP03730566","2024-06-01 05:30:00","9.4637","3.21279","25.454","5.188","7.6","0.146","1.086","0.02","0.12","29.3963","4.66113","54.81","0","SATNPRO1509","30.118","0.42184","5"],
    [23703,"HCEP03730566","2024-06-01 05:45:00","9.4641","3.21281","25.353","5.203","7.6","0.177","1.179","0.04","0.11","29.3961","4.66109","54.97","0","SATNPRO1509","30.214000000000002","0.4232","5"],
    [23704,"HCEP03730566","2024-06-01 06:00:00","9.4645","3.21284","25.31","5.196","7.6","0.193","1.301","0.04","0.11","29.3962","4.66109","54.89","0","SATNPRO1509","30.232","0.42346","5"],
    [23705,"HCEP03730566","2024-06-01 06:15:00","9.4643","3.21286","25.276","5.192","7.6","0.226","1.531","0.03","0.11","29.3965","4.66114","54.85","0","SATNPRO1509","30.13","0.42206","5"],
    [23706,"HCEP03730566","2024-06-01 06:30:00","9.4642","3.21275","25.294","5.191","7.6","0.279","1.744","0.07","0.23","29.3955","4.661","54.84","0","SATNPRO1509","30.224","0.42336","5"],
    [23707,"HCEP03730566","2024-06-01 06:45:00","9.4657","3.2128","25.278","5.195","7.6","0.282","1.651","0.05","0.09","29.3948","4.66086","54.89","0","SATNPRO1509","30.178","0.42268","5"],
    [23708,"HCEP03730566","2024-06-01 07:00:00","9.4664","3.21278","25.291","5.193","7.6","0.309","2.002","0.04","0.12","29.394","4.66074","54.86","0","SATNPRO1509","30.07","0.42114","5"],
    [23709,"HCEP03730566","2024-06-01 07:15:00","9.4667","3.21277","25.286","5.184","7.6","0.335","2.219","0.06","0.16","29.3936","4.66068","54.77","0","SATNPRO1509","30.284","0.42416","5"],
    [23710,"HCEP03730566","2024-06-01 07:30:00","9.4659","3.2128","25.275","5.177","7.6","0.329","2.091","0.04","0.15","29.3946","4.66083","54.69","0","SATNPRO1509","30.318","0.42464","5"],
    [23711,"HCEP03730566","2024-06-01 07:45:00","9.4629","3.2129","25.334","5.186","7.6","0.436","2.124","0.1","0.16","29.3981","4.66139","54.79","0","SATNPRO1509","30.268","0.42398","5"],
    [23712,"HCEP03730566","2024-06-01 08:00:00","9.4622","3.213","25.381","5.181","7.6","0.398","2.749","0.03","0.24","29.3996","4.66163","54.74","0","SATNPRO1509","30.244","0.42362","5"],
    [23713,"HCEP03730566","2024-06-01 08:15:00","9.4614","3.21296","25.475","5.167","7.6","0.431","3.164","0.04","0.23","29.3998","4.66168","54.58","0","SATNPRO1509","30.144000000000002","0.4222","5"],
    [23714,"HCEP03730566","2024-06-01 08:30:00","9.4601","3.21301","25.56","5.178","7.6","0.461","3.178","0.06","0.27","29.4014","4.66193","54.7","0","SATNPRO1509","30.344","0.42498","5"],
    [23715,"HCEP03730566","2024-06-01 08:45:00","9.4601","3.21297","25.654","5.179","7.6","0.434","2.746","0.06","0.24","29.4009","4.66187","54.71","0","SATNPRO1509","30.332","0.42488","5"],
    [23716,"HCEP03730566","2024-06-01 09:00:00","9.4629","3.21275","25.749","5.199","7.6","0.473","2.673","0.05","0.17","29.3963","4.66116","54.93","0","SATNPRO1509","30.222","0.42332","5"],
    [23717,"HCEP03730566","2024-06-01 09:15:00","9.4697","3.21241","25.838","5.231","7.6","0.397","2.004","0.04","0.21","29.3873","4.65976","55.26","0","SATNPRO1509","30.284","0.42414","5"],
    [23718,"HCEP03730566","2024-06-01 09:30:00","9.4708","3.21235","25.936","5.246","7.6","0.392","2.133","0.05","0.16","29.3858","4.65953","55.43","0","SATNPRO1509","30.31","0.42458","5"],
    [23719,"HCEP03730566","2024-06-01 09:45:00","9.4759","3.21207","26.047","5.25","7.6","0.427","2.602","0.04","0.16","29.3787","4.65843","55.47","0","SATNPRO1509","30.256","0.4238","5"],
    [23720,"HCEP03730566","2024-06-01 10:00:00","9.4718","3.21266","26.153","5.198","7.6","0.488","3.549","0.07","0.25","29.3879","4.65983","54.93","0","SATNPRO1509","30.014","0.42038","5"],
    [23721,"HCEP03730566","2024-06-01 10:15:00","9.469","3.21283","26.246","5.11","7.6","0.464","4.039","0.04","0.33","29.392","4.66046","53.99","0","SATNPRO1509","29.94","0.41934","5"],
    [23722,"HCEP03730566","2024-06-01 10:30:00","9.4716","3.21276","26.314","5.095","7.59","0.536","3.641","0.13","0.19","29.3891","4.66001","53.84","0","SATNPRO1509","29.814","0.4176","5"],
    [23723,"HCEP03730566","2024-06-01 10:45:00","9.4653","3.21298","26.451","5.102","7.59","0.483","3.138","0.06","0.15","29.3965","4.66119","53.9","0","SATNPRO1509","30","0.42022","5"],
    [23724,"HCEP03730566","2024-06-01 11:00:00","9.4554","3.21343","26.553","5.114","7.59","0.479","3.456","0.06","0.24","29.4091","4.66318","54.03","0","SATNPRO1509","30.168","0.42256","5"],
    [23725,"HCEP03730566","2024-06-01 11:15:00","9.4535","3.21348","26.643","5.137","7.59","0.438","3.124","0.05","0.14","29.4111","4.6635","54.26","0","SATNPRO1509","30.252","0.42376","5"],
    [23726,"HCEP03730566","2024-06-01 11:30:00","9.4508","3.21369","26.734","5.146","7.59","0.454","3.443","0.03","0.2","29.4154","4.66417","54.36","0","SATNPRO1509","30.084","0.42138","5"],
    [23727,"HCEP03730566","2024-06-01 11:45:00","9.4474","3.21378","26.787","5.137","7.59","0.465","3.303","0.06","0.28","29.4191","4.66476","54.26","0","SATNPRO1509","30.150000000000002","0.42228","5"],
    [23728,"HCEP03730566","2024-06-01 12:00:00","9.4466","3.21395","26.826","5.145","7.6","0.466","3.805","0.07","0.24","29.4215","4.66512","54.34","0","SATNPRO1509","30.25","0.4237","5"],
    [23729,"HCEP03730566","2024-06-01 12:15:00","9.4457","3.21397","26.858","5.152","7.6","0.424","3.361","0.03","0.21","29.4223","4.66527","54.42","0","SATNPRO1509","30.162","0.4225","5"],
    [23730,"HCEP03730566","2024-06-01 12:30:00","9.4445","3.21404","26.856","5.163","7.6","0.408","3.223","0.02","0.23","29.4242","4.66555","54.54","0","SATNPRO1509","30.37","0.4254","5"],
    [23731,"HCEP03730566","2024-06-01 12:45:00","9.4423","3.21414","26.878","5.164","7.6","0.403","3.142","0.03","0.2","29.4269","4.66598","54.54","0","SATNPRO1509","30.444","0.42644","5"],
    [23732,"HCEP03730566","2024-06-01 13:00:00","9.4422","3.21407","26.878","5.169","7.6","0.418","3.058","0.05","0.15","29.4263","4.66589","54.59","0","SATNPRO1509","30.418","0.42606","5"],
    [23733,"HCEP03730566","2024-06-01 13:15:00","9.4433","3.21411","26.849","5.185","7.6","0.412","3.456","0.04","0.32","29.4258","4.66581","54.77","0","SATNPRO1509","30.552","0.42794","5"],
    [23734,"HCEP03730566","2024-06-01 13:30:00","9.4447","3.21395","26.803","5.173","7.59","0.394","3.198","0.04","0.19","29.423","4.66538","54.64","0","SATNPRO1509","30.47","0.42674","5"],
    [23735,"HCEP03730566","2024-06-01 13:45:00","9.4437","3.21406","26.795","5.177","7.6","0.411","3.72","0.03","0.21","29.425","4.66568","54.68","0","SATNPRO1509","30.418","0.42608","5"],
    [23736,"HCEP03730566","2024-06-01 14:00:00","9.4446","3.21403","26.715","5.164","7.6","0.423","3.246","0.05","0.16","29.424","4.66551","54.54","0","SATNPRO1509","30.326","0.42474","5"],
    [23737,"HCEP03730566","2024-06-01 14:15:00","9.4457","3.21401","26.661","5.158","7.6","0.456","3.554","0.07","0.26","29.4229","4.66533","54.48","0","SATNPRO1509","30.356","0.4252","5"],
    [23738,"HCEP03730566","2024-06-01 14:30:00","9.4503","3.21364","26.579","5.144","7.6","0.421","3.272","0.05","0.22","29.4154","4.66418","54.33","0","SATNPRO1509","30.228","0.42342","5"],
    [23739,"HCEP03730566","2024-06-01 14:45:00","9.4527","3.21347","26.508","5.129","7.6","0.419","3.128","0.04","0.27","29.4117","4.6636","54.18","0","SATNPRO1509","30.118","0.42186","5"],
    [23740,"HCEP03730566","2024-06-01 15:00:00","9.4626","3.21343","26.442","5.127","7.6","0.411","3.086","0.04","0.16","29.4032","4.66219","54.16","0","SATNPRO1509","30.136","0.42208","5"],
    [23741,"HCEP03730566","2024-06-01 15:15:00","9.4758","3.21254","26.393","5.111","7.59","0.415","2.747","0.05","0.18","29.3834","4.65912","54","0","SATNPRO1509","29.95","0.41948","5"],
    [23742,"HCEP03730566","2024-06-01 15:30:00","9.479","3.21283","26.292","5.085","7.59","0.413","2.412","0.08","0.15","29.3838","4.65911","53.74","0","SATNPRO1509","29.766","0.41692","5"],
    [23743,"HCEP03730566","2024-06-01 15:45:00","9.4825","3.21266","26.221","5.052","7.59","0.377","2.385","0.04","0.16","29.3793","4.6584","53.39","0","SATNPRO1509","29.682","0.41574","5"],
    [23744,"HCEP03730566","2024-06-01 16:00:00","9.4724","3.21323","26.123","5.036","7.59","0.411","2.732","0.03","0.21","29.3933","4.66058","53.22","0","SATNPRO1509","29.772","0.41702","5"],
    [23745,"HCEP03730566","2024-06-01 16:15:00","9.4551","3.21411","26.043","5.026","7.59","0.423","3.606","0.04","0.21","29.4164","4.6642","53.09","0","SATNPRO1509","29.924","0.41914","5"],
    [23746,"HCEP03730566","2024-06-01 16:30:00","9.4521","3.21429","25.93","5.004","7.58","0.461","4.219","0.04","0.2","29.4207","4.66486","52.86","0","SATNPRO1509","29.828","0.41778","5"],
    [23747,"HCEP03730566","2024-06-01 16:45:00","9.4479","3.21442","25.849","5.002","7.58","0.435","4.348","0.03","0.22","29.4255","4.66562","52.84","0","SATNPRO1509","29.85","0.41812","5"],
    [23748,"HCEP03730566","2024-06-01 17:00:00","9.4449","3.21438","25.775","5.046","7.59","0.405","3.464","0.04","0.28","29.4277","4.66598","53.3","0","SATNPRO1509","30.08","0.42138","5"],
    [23749,"HCEP03730566","2024-06-01 17:15:00","9.4429","3.21434","25.717","5.076","7.59","0.383","3.646","0.04","0.5","29.4289","4.66619","53.61","0","SATNPRO1509","30.2","0.423","5"],
    [23750,"HCEP03730566","2024-06-01 17:30:00","9.4456","3.21429","25.659","5.093","7.59","0.359","3.265","0.03","0.38","29.4262","4.66575","53.8","0","SATNPRO1509","30.198","0.4229","5"],
    [23751,"HCEP03730566","2024-06-01 17:45:00","9.4426","3.21442","25.614","5.082","7.59","0.386","3.895","0.04","0.15","29.43","4.66635","53.68","0","SATNPRO1509","30.118","0.42186","5"],
    [23752,"HCEP03730566","2024-06-01 18:00:00","9.4456","3.21437","25.582","5.063","7.59","0.363","3.571","0.04","0.18","29.427","4.66586","53.48","0","SATNPRO1509","30.008","0.42032","5"],
    [23753,"HCEP03730566","2024-06-01 18:15:00","9.4483","3.21438","25.587","5.036","7.58","0.416","4.164","0.16","0.49","29.425","4.66552","53.19","0","SATNPRO1509","29.934","0.41928","5"],
    [23754,"HCEP03730566","2024-06-01 18:30:00","9.4523","3.21432","25.603","5.001","7.58","0.364","4.302","0.03","0.24","29.4211","4.66489","52.83","0","SATNPRO1509","29.862000000000002","0.41824","5"],
    [23755,"HCEP03730566","2024-06-01 18:45:00","9.4522","3.21432","25.649","4.97","7.58","0.365","4.141","0.04","0.31","29.4211","4.6649","52.5","0","SATNPRO1509","29.764","0.4169","5"],
    [23756,"HCEP03730566","2024-06-01 19:00:00","9.4632","3.21387","25.682","4.957","7.58","0.378","4.177","0.05","0.16","29.4075","4.66275","52.38","0","SATNPRO1509","29.66","0.41544","5"],
    [23757,"HCEP03730566","2024-06-01 19:15:00","9.4487","3.21441","25.698","4.959","7.58","0.383","4.433","0.15","0.16","29.4248","4.6655","52.38","0","SATNPRO1509","29.922","0.41912","5"],
    [23758,"HCEP03730566","2024-06-01 19:30:00","9.4498","3.21437","25.749","4.978","7.58","0.391","5.454","0.03","0.16","29.4236","4.6653","52.59","0","SATNPRO1509","29.91","0.4189","5"],
    [23759,"HCEP03730566","2024-06-01 19:45:00","9.4425","3.21449","25.841","4.987","7.58","0.368","8.828","0.03","0.25","29.4306","4.66645","52.67","0","SATNPRO1509","30.086","0.42144","5"],
    [23760,"HCEP03730566","2024-06-01 20:00:00","9.4401","3.21456","25.944","5.023","7.58","0.354","14.807","0.04","0.19","29.4333","4.66689","53.06","0","SATNPRO1509","30.072","0.42126","5"],
    [23761,"HCEP03730566","2024-06-01 20:15:00","9.4402","3.21461","26.025","5.032","7.58","0.395","22.882","0.11","0.16","29.4337","4.66694","53.15","0","SATNPRO1509","29.928","0.4192","5"],
    [23762,"HCEP03730566","2024-06-01 20:30:00","9.4402","3.21468","26.155","5.028","7.58","0.366","29.734","0.02","1.03","29.4343","4.66704","53.11","0","SATNPRO1509","30.072","0.42118","5"],
    [23763,"HCEP03730566","2024-06-01 20:45:00","9.4392","3.21474","26.293","5.038","7.58","0.376","36.075","0.02","0.3","29.4358","4.66727","53.21","0","SATNPRO1509","30.06","0.4211","5"],
    [23764,"HCEP03730566","2024-06-01 21:00:00","9.4385","3.21482","26.433","5.031","7.59","0.381","41.506","0.04","0.16","29.4371","4.66748","53.14","0","SATNPRO1509","29.98","0.41994","5"],
    [23765,"HCEP03730566","2024-06-01 21:15:00","9.4381","3.21485","26.562","5.022","7.59","0.397","44.342","0.04","0.11","29.4377","4.66758","53.04","0","SATNPRO1509","29.976","0.41984","5"],
    [23766,"HCEP03730566","2024-06-01 21:30:00","9.4384","3.21482","26.717","5.017","7.58","0.426","45.741","0.04","0.1","29.437","4.66749","52.99","0","SATNPRO1509","29.95","0.41948","5"],
    [23767,"HCEP03730566","2024-06-01 21:45:00","9.4382","3.21481","26.852","5.019","7.58","0.397","46.862","0.04","0.39","29.437","4.6675","53.01","0","SATNPRO1509","29.972","0.41982","5"],
    [23768,"HCEP03730566","2024-06-01 22:00:00","9.4398","3.21474","27.029","5.02","7.58","0.413","47.322","0.04","0.13","29.435","4.6672","53.02","0","SATNPRO1509","29.962","0.41964","5"],
    [23769,"HCEP03730566","2024-06-01 22:15:00","9.4436","3.21462","27.181","4.999","7.58","0.427","47.257","0.04","0.2","29.4306","4.66651","52.81","0","SATNPRO1509","29.97","0.41976","5"],
    [23770,"HCEP03730566","2024-06-01 22:30:00","9.4486","3.21441","27.336","4.973","7.58","0.467","46.299","0.03","0.18","29.4242","4.66551","52.53","0","SATNPRO1509","29.906","0.4189","5"],
    [23771,"HCEP03730566","2024-06-01 22:45:00","9.4572","3.21388","27.493","4.954","7.58","0.462","43.734","0.03","0.48","29.4118","4.66359","52.33","0","SATNPRO1509","29.98","0.41994","5"],
    [23772,"HCEP03730566","2024-06-01 23:00:00","9.4651","3.21333","27.638","4.966","7.58","0.492","46.429","0.05","0.18","29.3997","4.66172","52.47","0","SATNPRO1509","29.89","0.41864","5"],
    [23773,"HCEP03730566","2024-06-01 23:15:00","9.4771","3.21297","27.765","4.961","7.58","0.484","51.87","0.02","0.44","29.3862","4.65958","52.42","0","SATNPRO1509","29.586","0.41442","5"],
    [23774,"HCEP03730566","2024-06-01 23:30:00","9.4866","3.21266","27.864","4.906","7.57","0.507","61.182","0.03","0.4","29.3751","4.65783","51.84","0","SATNPRO1509","29.387999999999998","0.4116","5"],
    [23775,"HCEP03730566","2024-06-01 23:45:00","9.4927","3.21262","27.949","4.813","7.57","0.537","72.369","0.03","0.64","29.3697","4.65695","50.87","0","SATNPRO1509","28.964000000000002","0.40568","5"],
    [23776,"HCEP03730566","2024-06-02 00:00:00","9.4985","3.21225","28.014","4.72","7.56","0.563","75.6","0.09","0.42","29.3613","4.65564","49.9","0","SATNPRO1509","28.776","0.40308","5"],
    [23777,"HCEP03730566","2024-06-02 00:15:00","9.5019","3.21231","28.044","4.644","7.55","0.549","68.145","0.04","0.69","29.3591","4.65527","49.09","0","SATNPRO1509","28.652","0.40134","5"],
    [23778,"HCEP03730566","2024-06-02 00:30:00","9.5022","3.21248","28.069","4.559","7.55","0.59","62.256","0.09","0.59","29.3605","4.65547","48.19","0","SATNPRO1509","28.432","0.39822","5"],
    [23779,"HCEP03730566","2024-06-02 00:45:00","9.5033","3.21249","28.067","4.489","7.54","0.563","60.208","0.04","1.69","29.3597","4.65534","47.46","0","SATNPRO1509","28.436","0.39828","5"],
    [23780,"HCEP03730566","2024-06-02 01:00:00","9.506","3.21233","28.02","4.482","7.54","0.551","53.683","0.06","0.17","29.356","4.65475","47.39","0","SATNPRO1509","28.344","0.39702","5"],
    [23781,"HCEP03730566","2024-06-02 01:15:00","9.5061","3.21242","27.992","4.472","7.53","0.568","35.04","0.07","0.29","29.3567","4.65485","47.28","0","SATNPRO1509","28.286","0.3962","5"],
    [23782,"HCEP03730566","2024-06-02 01:30:00","9.5047","3.21251","27.943","4.432","7.53","0.546","33.558","0.04","0.59","29.3588","4.65518","46.86","0","SATNPRO1509","28.172","0.3946","5"],
    [23783,"HCEP03730566","2024-06-02 01:45:00","9.5037","3.21259","27.876","4.405","7.53","0.527","54.282","0.04","0.29","29.3605","4.65544","46.57","0","SATNPRO1509","28.382","0.39754","5"],
    [23784,"HCEP03730566","2024-06-02 02:00:00","9.5041","3.21262","27.798","4.391","7.52","0.521","71.175","0.04","0.2","29.3605","4.65541","46.42","0","SATNPRO1509","28.394000000000002","0.39766","5"],
    [23785,"HCEP03730566","2024-06-02 02:15:00","9.5036","3.21264","27.707","4.382","7.52","0.558","71.589","0.15","0.18","29.3611","4.65551","46.32","0","SATNPRO1509","28.189999999999998","0.39486","5"],
    [23786,"HCEP03730566","2024-06-02 02:30:00","9.503","3.21267","27.602","4.372","7.52","0.52","66.409","0.07","0.24","29.362","4.65565","46.22","0","SATNPRO1509","28.03","0.39262","5"],
    [23787,"HCEP03730566","2024-06-02 02:45:00","9.503","3.21269","27.471","4.356","7.52","0.521","64.345","0.09","0.45","29.3622","4.65566","46.05","0","SATNPRO1509","28.244","0.3956","5"],
    [23788,"HCEP03730566","2024-06-02 03:00:00","9.503","3.21269","27.313","4.353","7.51","0.5","64.877","0.03","0.19","29.3623","4.65567","46.02","0","SATNPRO1509","28.178","0.3947","5"],
    [23789,"HCEP03730566","2024-06-02 03:15:00","9.5036","3.21267","27.17","4.351","7.52","0.469","57.968","0.03","0.51","29.3617","4.65556","46","0","SATNPRO1509","28.21","0.39512","5"],
    [23790,"HCEP03730566","2024-06-02 03:30:00","9.5028","3.21269","27.012","4.354","7.52","0.448","44.674","0.02","0.1","29.3626","4.6557","46.03","0","SATNPRO1509","28.126","0.39394","5"],
    [23791,"HCEP03730566","2024-06-02 03:45:00","9.5017","3.21268","26.817","4.37","7.52","0.454","36.086","0.06","0.11","29.3635","4.65583","46.2","0","SATNPRO1509","28.178","0.39468","5"],
    [23792,"HCEP03730566","2024-06-02 04:00:00","9.4965","3.21266","26.612","4.42","7.52","0.453","32.537","0.03","0.13","29.3676","4.6565","46.72","0","SATNPRO1509","28.438","0.3983","5"],
    [23793,"HCEP03730566","2024-06-02 04:15:00","9.488","3.21243","26.429","4.625","7.53","0.341","29.514","0.02","0.06","29.3723","4.65731","48.89","0","SATNPRO1509","29.496","0.41318","5"],
    [23794,"HCEP03730566","2024-06-02 04:30:00","9.4864","3.21253","26.251","4.781","7.55","0.367","27.944","0.02","0.14","29.3748","4.65769","50.53","0","SATNPRO1509","29.39","0.41164","5"],
    [23795,"HCEP03730566","2024-06-02 04:45:00","9.4857","3.21268","26.072","4.773","7.55","0.394","27.064","0.02","0.11","29.3769","4.65799","50.44","0","SATNPRO1509","29.16","0.40842","5"],
    [23796,"HCEP03730566","2024-06-02 05:00:00","9.4807","3.21263","25.83","4.78","7.55","0.364","26.18","0.06","0.15","29.3806","4.6586","50.52","0","SATNPRO1509","29.502","0.41324","5"],
    [23797,"HCEP03730566","2024-06-02 05:15:00","9.4823","3.21261","25.652","4.851","7.56","0.343","26.473","0.02","0.11","29.3791","4.65835","51.26","0","SATNPRO1509","29.33","0.4108","5"],
    [23798,"HCEP03730566","2024-06-02 05:30:00","9.4824","3.21265","25.421","4.828","7.56","0.376","25.373","0.03","0.13","29.3795","4.65839","51.02","0","SATNPRO1509","29.332","0.41088","5"],
    [23799,"HCEP03730566","2024-06-02 05:45:00","9.483","3.21273","25.279","4.786","7.56","0.397","23.26","0.02","0.3","29.38","4.65844","50.58","0","SATNPRO1509","29.05","0.40688","5"],
    [23800,"HCEP03730566","2024-06-02 06:00:00","9.4817","3.21283","25.068","4.738","7.56","0.403","19.621","0.03","0.19","29.3821","4.65875","50.07","0","SATNPRO1509","29.12","0.4079","5"],
    [23801,"HCEP03730566","2024-06-02 06:15:00","9.4807","3.21286","24.924","4.738","7.56","0.418","16.181","0.03","0.18","29.3833","4.65893","50.07","0","SATNPRO1509","29.188","0.40882","5"],
    [23802,"HCEP03730566","2024-06-02 06:30:00","9.4814","3.21297","24.798","4.729","7.56","0.404","12.328","0.03","0.18","29.3838","4.65898","49.98","0","SATNPRO1509","28.98","0.40594","5"],
    [23803,"HCEP03730566","2024-06-02 06:45:00","9.4823","3.21299","24.756","4.691","7.55","0.429","9.561","0.04","0.13","29.3833","4.6589","49.58","0","SATNPRO1509","28.9","0.40478","5"],
    [23804,"HCEP03730566","2024-06-02 07:00:00","9.4816","3.21305","24.72","4.674","7.55","0.42","6.981","0.03","0.16","29.3845","4.65908","49.4","0","SATNPRO1509","28.95","0.4055","5"],
    [23805,"HCEP03730566","2024-06-02 07:15:00","9.4809","3.21312","24.715","4.664","7.55","0.43","5.811","0.02","0.16","29.3858","4.65928","49.29","0","SATNPRO1509","29.03","0.40662","5"],
    [23806,"HCEP03730566","2024-06-02 07:30:00","9.4795","3.21318","24.701","4.665","7.55","0.429","5.026","0.03","0.14","29.3875","4.65955","49.3","0","SATNPRO1509","28.986","0.40602","5"],
    [23807,"HCEP03730566","2024-06-02 07:45:00","9.479","3.21315","24.746","4.694","7.55","0.413","4.166","0.03","0.1","29.3876","4.65958","49.6","0","SATNPRO1509","29.126","0.40794","5"],
    [23808,"HCEP03730566","2024-06-02 08:00:00","9.477","3.21316","24.773","4.749","7.55","0.405","3.865","0.03","0.15","29.3894","4.65987","50.18","0","SATNPRO1509","29.3","0.4104","5"],
    [23809,"HCEP03730566","2024-06-02 08:15:00","9.4757","3.21326","24.814","4.782","7.56","0.401","3.557","0.04","0.11","29.3914","4.66017","50.53","0","SATNPRO1509","29.368","0.41138","5"],
    [23810,"HCEP03730566","2024-06-02 08:30:00","9.4783","3.21236","24.87","4.875","7.56","0.32","2.102","0.04","0.11","29.3802","4.65853","51.52","0","SATNPRO1509","29.76","0.41684","5"],
    [23811,"HCEP03730566","2024-06-02 08:45:00","9.4781","3.21228","24.93","5.004","7.57","0.345","2.344","0.04","0.22","29.3794","4.65843","52.88","0","SATNPRO1509","29.93","0.41924","5"],
    [23812,"HCEP03730566","2024-06-02 09:00:00","9.4757","3.21292","25.077","4.993","7.57","0.45","3.869","0.03","0.17","29.3879","4.65969","52.77","0","SATNPRO1509","29.18","0.40874","5"],
    [23813,"HCEP03730566","2024-06-02 09:15:00","9.4771","3.21235","25.185","4.965","7.58","0.326","2.241","0.03","0.19","29.3809","4.65868","52.47","0","SATNPRO1509","29.926","0.41914","5"],
    [23814,"HCEP03730566","2024-06-02 09:30:00","9.478","3.21223","25.27","5.073","7.58","0.336","2.18","0.02","0.11","29.3789","4.65838","53.61","0","SATNPRO1509","30.114","0.42178","5"],
    [23815,"HCEP03730566","2024-06-02 09:45:00","9.4803","3.21214","25.377","5.095","7.59","0.333","2.234","0.02","0.14","29.376","4.65792","53.84","0","SATNPRO1509","30.07","0.42116","5"],
    [23816,"HCEP03730566","2024-06-02 10:00:00","9.4809","3.21209","25.566","5.098","7.59","0.339","1.909","0.08","0.74","29.375","4.65779","53.87","0","SATNPRO1509","30.138","0.42208","5"],
    [23817,"HCEP03730566","2024-06-02 10:15:00","9.4801","3.21264","25.663","5.034","7.59","0.387","2.546","0.04","0.11","29.3813","4.6587","53.19","0","SATNPRO1509","29.54","0.41376","5"],
    [23818,"HCEP03730566","2024-06-02 10:30:00","9.4804","3.21268","25.825","4.902","7.58","0.407","3.094","0.02","0.1","29.3813","4.6587","51.8","0","SATNPRO1509","29.506","0.41326","5"],
    [23819,"HCEP03730566","2024-06-02 10:45:00","9.4738","3.21375","25.828","4.694","7.57","0.576","5.383","0.1","0.13","29.3975","4.66114","49.6","0","SATNPRO1509","28.72","0.4023","5"],
    [23820,"HCEP03730566","2024-06-02 11:00:00","9.4671","3.21385","26.008","4.614","7.56","0.478","4.18","0.04","0.2","29.404","4.6622","48.76","0","SATNPRO1509","29.08","0.40728","5"],
    [23821,"HCEP03730566","2024-06-02 11:15:00","9.4612","3.21422","26.157","4.651","7.56","0.477","4.219","0.02","0.13","29.4125","4.66354","49.14","0","SATNPRO1509","28.942","0.4054","5"],
    [23822,"HCEP03730566","2024-06-02 11:30:00","9.4585","3.21435","26.337","4.686","7.56","0.485","4.693","0.02","0.31","29.416","4.66409","49.51","0","SATNPRO1509","28.962","0.40564","5"],
    [23823,"HCEP03730566","2024-06-02 11:45:00","9.4597","3.21434","26.454","4.659","7.56","0.493","4.552","0.04","0.27","29.4148","4.66391","49.23","0","SATNPRO1509","29.046","0.40682","5"],
    [23824,"HCEP03730566","2024-06-02 12:00:00","9.4593","3.21441","26.599","4.707","7.56","0.471","4.371","0.03","0.11","29.4158","4.66406","49.73","0","SATNPRO1509","29.176","0.40866","5"],
    [23825,"HCEP03730566","2024-06-02 12:15:00","9.4605","3.21435","26.722","4.712","7.56","0.474","4.381","0.03","0.14","29.4142","4.66382","49.79","0","SATNPRO1509","29.208","0.40914","5"],
    [23826,"HCEP03730566","2024-06-02 12:30:00","9.4641","3.21415","26.795","4.741","7.56","0.455","3.988","0.03","0.21","29.4092","4.66304","50.09","0","SATNPRO1509","29.318","0.41068","5"],
    [23827,"HCEP03730566","2024-06-02 12:45:00","9.4685","3.21379","26.895","4.857","7.57","0.417","3.524","0.04","0.17","29.4019","4.66192","51.32","0","SATNPRO1509","29.562","0.41406","5"],
    [23828,"HCEP03730566","2024-06-02 13:00:00","9.4748","3.2133","26.898","4.929","7.58","0.385","3.191","0.02","0.14","29.3917","4.66035","52.09","0","SATNPRO1509","29.724","0.41636","5"],
    [23829,"HCEP03730566","2024-06-02 13:15:00","9.4736","3.21345","27.029","4.914","7.58","0.404","3.609","0.02","0.2","29.3941","4.66074","51.93","0","SATNPRO1509","29.654","0.41538","5"],
    [23830,"HCEP03730566","2024-06-02 13:30:00","9.4768","3.21319","27.026","4.929","7.58","0.402","3.398","0.03","0.11","29.3889","4.65993","52.09","0","SATNPRO1509","29.632","0.41504","5"],
    [23831,"HCEP03730566","2024-06-02 13:45:00","9.4831","3.21293","27.008","4.927","7.58","0.403","3.457","0.02","0.19","29.3811","4.6587","52.07","0","SATNPRO1509","29.578","0.41434","5"],
    [23832,"HCEP03730566","2024-06-02 14:00:00","9.4814","3.21309","27.01","4.881","7.58","0.425","3.976","0.02","0.16","29.3841","4.65916","51.59","0","SATNPRO1509","29.567999999999998","0.41412","5"],
    [23833,"HCEP03730566","2024-06-02 14:15:00","9.4818","3.21314","26.999","4.861","7.58","0.447","4.082","0.02","0.25","29.3843","4.65918","51.37","0","SATNPRO1509","29.352","0.41112","5"],
    [23834,"HCEP03730566","2024-06-02 14:30:00","9.4879","3.21289","26.958","4.816","7.58","0.501","4.802","0.03","0.18","29.3769","4.658","50.9","0","SATNPRO1509","29.169999999999998","0.40856","5"],
    [23835,"HCEP03730566","2024-06-02 14:45:00","9.4964","3.21253","26.948","4.78","7.58","0.541","5.087","0.04","0.19","29.3662","4.65632","50.52","0","SATNPRO1509","29.07","0.40722","5"],
    [23836,"HCEP03730566","2024-06-02 15:00:00","9.5067","3.21195","26.88","4.777","7.57","0.515","4.738","0.04","0.15","29.352","4.65411","50.5","0","SATNPRO1509","29.116","0.40786","5"],
    [23837,"HCEP03730566","2024-06-02 15:15:00","9.5075","3.21199","26.833","4.766","7.57","0.547","5.25","0.03","0.32","29.3517","4.65403","50.39","0","SATNPRO1509","28.968","0.40574","5"],
    [23838,"HCEP03730566","2024-06-02 15:30:00","9.5125","3.21175","26.811","4.757","7.57","0.551","5.257","0.03","0.2","29.3453","4.65303","50.29","0","SATNPRO1509","28.986","0.40598","5"],
    [23839,"HCEP03730566","2024-06-02 15:45:00","9.5207","3.21133","26.81","4.77","7.57","0.521","5.155","0.03","0.12","29.3343","4.65131","50.44","0","SATNPRO1509","29.036","0.40668","5"],
    [23840,"HCEP03730566","2024-06-02 16:00:00","9.5347","3.21048","26.767","4.788","7.57","0.498","5.152","0.02","0.2","29.3142","4.64819","50.63","0","SATNPRO1509","28.906","0.40484","5"],
    [23841,"HCEP03730566","2024-06-02 16:15:00","9.5424","3.2101","26.618","4.807","7.57","0.483","4.871","0.04","0.2","29.3042","4.6466","50.84","0","SATNPRO1509","28.99","0.40606","5"],
    [23842,"HCEP03730566","2024-06-02 16:30:00","9.552","3.20958","26.587","4.817","7.57","0.461","4.403","0.04","0.31","29.2911","4.64456","50.96","0","SATNPRO1509","28.974","0.40582","5"],
    [23843,"HCEP03730566","2024-06-02 16:45:00","9.5524","3.20952","26.496","4.815","7.57","0.466","4.77","0.03","0.2","29.2902","4.64442","50.93","0","SATNPRO1509","28.908","0.4049","5"],
    [23844,"HCEP03730566","2024-06-02 17:00:00","9.5634","3.20896","26.385","4.798","7.57","0.436","4.289","0.05","0.21","29.2757","4.64214","50.77","0","SATNPRO1509","28.882","0.40454","5"],
    [23845,"HCEP03730566","2024-06-02 17:15:00","9.5711","3.20858","26.349","4.768","7.57","0.437","4.488","0.03","0.28","29.2655","4.64054","50.45","0","SATNPRO1509","28.764","0.40288","5"],
    [23846,"HCEP03730566","2024-06-02 17:30:00","9.5755","3.20862","26.307","4.678","7.56","0.462","4.466","0.03","0.23","29.2624","4.64001","49.5","0","SATNPRO1509","28.504","0.39928","5"],
    [23847,"HCEP03730566","2024-06-02 17:45:00","9.5789","3.20859","26.275","4.599","7.55","0.484","4.312","0.06","0.22","29.2593","4.63952","48.67","0","SATNPRO1509","28.396","0.39768","5"],
    [23848,"HCEP03730566","2024-06-02 18:00:00","9.5814","3.20863","26.231","4.556","7.55","0.481","4.28","0.03","0.22","29.2578","4.63924","48.21","0","SATNPRO1509","28.292","0.39628","5"],
    [23849,"HCEP03730566","2024-06-02 18:15:00","9.5797","3.20862","26.064","4.534","7.54","0.495","4.32","0.06","0.28","29.2591","4.63946","47.98","0","SATNPRO1509","28.278","0.39608","5"],
    [23850,"HCEP03730566","2024-06-02 18:30:00","9.5757","3.2088","26.116","4.541","7.54","0.502","4.505","0.02","0.28","29.2641","4.64025","48.05","0","SATNPRO1509","28.232","0.39544","5"],
    [23851,"HCEP03730566","2024-06-02 18:45:00","9.5716","3.20915","26.024","4.538","7.54","0.571","4.427","0.04","0.19","29.271","4.6413","48.02","0","SATNPRO1509","28.08","0.39332","5"],
    [23852,"HCEP03730566","2024-06-02 19:00:00","9.5703","3.20912","25.93","4.532","7.54","0.605","4.685","0.03","0.36","29.2718","4.64144","47.96","0","SATNPRO1509","28.38","0.39754","5"],
    [23853,"HCEP03730566","2024-06-02 19:15:00","9.5649","3.20917","25.9","4.556","7.54","0.688","5.598","0.04","0.6","29.2768","4.64224","48.2","0","SATNPRO1509","28.418000000000003","0.39808","5"],
    [23854,"HCEP03730566","2024-06-02 19:30:00","9.5576","3.20949","26.082","4.595","7.54","0.699","5.788","0.02","0.22","29.2859","4.64369","48.61","0","SATNPRO1509","28.472","0.39884","5"],
    [23855,"HCEP03730566","2024-06-02 19:45:00","9.5502","3.20988","26.121","4.605","7.54","0.735","5.495","0.02","0.37","29.2958","4.64524","48.71","0","SATNPRO1509","28.516","0.39938","5"],
    [23856,"HCEP03730566","2024-06-02 20:00:00","9.5429","3.21031","26.183","4.61","7.54","0.769","6.055","0.01","0.34","29.3061","4.64685","48.77","0","SATNPRO1509","28.518","0.39946","5"],
    [23857,"HCEP03730566","2024-06-02 20:15:00","9.5328","3.21094","26.309","4.603","7.54","0.784","5.467","0.05","0.22","29.3207","4.64912","48.68","0","SATNPRO1509","28.642","0.40116","5"],
    [23858,"HCEP03730566","2024-06-02 20:30:00","9.5337","3.21067","26.493","4.614","7.55","0.743","5.212","0.01","0.26","29.3172","4.64861","48.8","0","SATNPRO1509","28.618","0.40086","5"],
    [23859,"HCEP03730566","2024-06-02 20:45:00","9.5482","3.21017","26.652","4.606","7.54","0.687","5.241","0.01","0.3","29.3002","4.64593","48.72","0","SATNPRO1509","28.386","0.39764","5"],
    [23860,"HCEP03730566","2024-06-02 21:00:00","9.5409","3.21053","26.49","4.563","7.54","0.607","6.371","0.01","0.37","29.3098","4.64744","48.26","0","SATNPRO1509","28.428","0.3982","5"],
    [23861,"HCEP03730566","2024-06-02 21:15:00","9.5387","3.21063","26.432","4.522","7.54","0.511","7.661","0.01","0.36","29.3127","4.64788","47.83","0","SATNPRO1509","28.316","0.39658","5"],
    [23862,"HCEP03730566","2024-06-02 21:30:00","9.5337","3.2108","26.544","4.526","7.54","0.398","10.574","0.01","0.28","29.3185","4.6488","47.87","0","SATNPRO1509","28.592","0.40048","5"],
    [23863,"HCEP03730566","2024-06-02 21:45:00","9.5248","3.21117","26.555","4.659","7.54","0.295","18.789","0","0.46","29.3294","4.65053","49.27","0","SATNPRO1509","28.976","0.40584","5"],
    [23864,"HCEP03730566","2024-06-02 22:00:00","9.5237","3.21113","26.599","4.72","7.55","0.2","37.067","0","0.25","29.3299","4.65062","49.91","0","SATNPRO1509","28.942","0.40536","5"],
    [23865,"HCEP03730566","2024-06-02 22:15:00","9.526","3.21098","26.796","4.728","7.55","0.139","69.634","0","0.23","29.3264","4.65009","50","0","SATNPRO1509","28.924","0.40512","5"],
    [23866,"HCEP03730566","2024-06-02 22:30:00","9.5274","3.2109","26.866","4.731","7.55","0.111","124.911","0.01","0.24","29.3244","4.64978","50.03","0","SATNPRO1509","29.03","0.4066","5"],
    [23867,"HCEP03730566","2024-06-02 22:45:00","9.528","3.21079","27.033","4.774","7.56","0.103","216.453","0","0.3","29.3228","4.64954","50.48","0","SATNPRO1509","29.004","0.40624","5"],
    [23868,"HCEP03730566","2024-06-02 23:00:00","9.5304","3.21069","27.183","4.757","7.56","0.118","373.044","0.01","0.71","29.3197","4.64907","50.31","0","SATNPRO1509","28.948","0.40546","5"],
    [23869,"HCEP03730566","2024-06-02 23:15:00","9.5322","3.21068","27.35","4.706","7.55","0.139","616.228","0.01","1.18","29.3181","4.64882","49.77","0","SATNPRO1509","28.732","0.40244","5"],
    [23870,"HCEP03730566","2024-06-02 23:30:00","9.5281","3.21084","27.395","4.686","7.55","0.154","727.47","0.01","0.79","29.3231","4.64961","49.56","0","SATNPRO1509","28.892","0.40464","5"],
    [23871,"HCEP03730566","2024-06-02 23:45:00","9.5283","3.21087","27.514","4.672","7.55","0.179","794.453","0.02","2.35","29.3231","4.64962","49.41","0","SATNPRO1509","28.792","0.40328","5"],
    [23872,"HCEP03730566","2024-06-03 00:00:00","9.5283","3.21094","27.786","4.623","7.55","0.213","790.958","0.02","7.21","29.3237","4.64972","48.88","0","SATNPRO1509","28.695999999999998","0.40194","5"],
    [23873,"HCEP03730566","2024-06-03 00:15:00","9.5283","3.21099","27.897","4.565","7.54","0.229","744.306","0.02","0.43","29.3242","4.6498","48.28","0","SATNPRO1509","28.59","0.40048","5"],
    [23874,"HCEP03730566","2024-06-03 00:30:00","9.5271","3.21101","27.928","4.585","7.54","0.23","726.748","0.01","1.29","29.3254","4.64998","48.48","0","SATNPRO1509","28.734","0.40248","5"],
    [23875,"HCEP03730566","2024-06-03 00:45:00","9.5249","3.21108","27.936","4.62","7.54","0.215","539.6","0.01","0.51","29.3279","4.65038","48.86","0","SATNPRO1509","28.834","0.40384","5"],
    [23876,"HCEP03730566","2024-06-03 01:00:00","9.5242","3.2111","28.044","4.637","7.55","0.213","370.603","0.02","0.36","29.3286","4.65051","49.03","0","SATNPRO1509","28.9","0.40476","5"],
    [23877,"HCEP03730566","2024-06-03 01:15:00","9.5248","3.21106","27.98","4.64","7.55","0.205","185.975","0.02","0.17","29.3277","4.65036","49.07","0","SATNPRO1509","28.86","0.40426","5"],
    [23878,"HCEP03730566","2024-06-03 01:30:00","9.5273","3.21104","27.938","4.604","7.55","0.208","67.955","0.02","0.07","29.3254","4.64999","48.69","0","SATNPRO1509","28.701999999999998","0.40204","5"],
    [23879,"HCEP03730566","2024-06-03 01:45:00","9.5276","3.21098","27.986","4.568","7.54","0.182","34.989","0.01","0.03","29.3246","4.64987","48.3","0","SATNPRO1509","28.758","0.40278","5"],
    [23880,"HCEP03730566","2024-06-03 02:00:00","9.5298","3.21087","27.91","4.569","7.54","0.179","13.097","0.01","0.04","29.3217","4.64941","48.32","0","SATNPRO1509","28.764","0.40292","5"],
    [23881,"HCEP03730566","2024-06-03 02:15:00","9.5342","3.21072","27.973","4.5","7.54","0.167","2.519","0.01","0.01","29.3166","4.6486","47.59","0","SATNPRO1509","28.512","0.3994","5"],
    [23882,"HCEP03730566","2024-06-03 02:30:00","9.549","3.20986","27.833","4.568","7.54","0.133","0.257","0.02","0.01","29.2959","4.64538","48.32","0","SATNPRO1509","28.93","0.40518","5"],
    [23883,"HCEP03730566","2024-06-03 02:45:00","9.549","3.20985","27.692","4.685","7.55","0.12","0.183","0.01","0.01","29.2959","4.64536","49.55","0","SATNPRO1509","28.836","0.4039","5"],
    [23884,"HCEP03730566","2024-06-03 03:00:00","9.552","3.20956","27.606","4.655","7.55","0.114","0.207","0.01","0.01","29.2905","4.64454","49.24","0","SATNPRO1509","28.736","0.40248","5"],
    [23885,"HCEP03730566","2024-06-03 03:15:00","9.5506","3.20973","27.498","4.659","7.55","0.101","0.182","0.02","0.01","29.2934","4.64496","49.29","0","SATNPRO1509","28.913999999999998","0.405","5"],
    [23886,"HCEP03730566","2024-06-03 03:30:00","9.5396","3.2104","27.329","4.613","7.55","0.092","0.281","0.01","0.01","29.3092","4.64742","48.79","0","SATNPRO1509","28.534","0.39968","5"],
    [23887,"HCEP03730566","2024-06-03 03:45:00","9.563","3.20894","27.036","4.611","7.54","0.078","0.523","0.01","0.01","29.2755","4.64216","48.78","0","SATNPRO1509","28.88","0.4045","5"],
    [23888,"HCEP03730566","2024-06-03 04:00:00","9.5415","3.21033","27.059","4.627","7.54","0.087","1.067","0.01","0.03","29.3071","4.64706","48.94","0","SATNPRO1509","28.65","0.40126","5"],
    [23889,"HCEP03730566","2024-06-03 04:15:00","9.539","3.21051","26.943","4.499","7.54","0.091","1.334","0.01","0.02","29.3109","4.64765","47.59","0","SATNPRO1509","28.226","0.39538","5"],
    [23890,"HCEP03730566","2024-06-03 04:30:00","9.5366","3.21061","26.756","4.468","7.53","0.104","1.685","0.01","0.23","29.3141","4.64813","47.25","0","SATNPRO1509","28.374","0.39746","5"],
    [23891,"HCEP03730566","2024-06-03 04:45:00","9.5356","3.21062","26.497","4.504","7.54","0.104","1.552","0.01","0.04","29.3151","4.64828","47.64","0","SATNPRO1509","28.451999999999998","0.39854","5"],
    [23892,"HCEP03730566","2024-06-03 05:00:00","9.5331","3.21072","26.446","4.54","7.54","0.126","1.552","0.05","0.06","29.3182","4.64876","48.02","0","SATNPRO1509","28.556","0.39998","5"],
    [23893,"HCEP03730566","2024-06-03 05:15:00","9.5305","3.21079","26.175","4.575","7.54","0.124","1.494","0.01","0.04","29.3211","4.64922","48.38","0","SATNPRO1509","28.584","0.40036","5"],
    [23894,"HCEP03730566","2024-06-03 05:30:00","9.5293","3.21078","25.972","4.625","7.54","0.142","1.439","0.01","0.03","29.322","4.64935","48.91","0","SATNPRO1509","28.788","0.40326","5"],
    [23895,"HCEP03730566","2024-06-03 05:45:00","9.5291","3.21073","25.592","4.654","7.55","0.163","1.441","0.02","0.05","29.3218","4.64931","49.21","0","SATNPRO1509","28.87","0.40436","5"],
    [23896,"HCEP03730566","2024-06-03 06:00:00","9.5288","3.21071","25.489","4.676","7.55","0.181","1.545","0.02","0.04","29.3219","4.64932","49.45","0","SATNPRO1509","28.852","0.40412","5"],
    [23897,"HCEP03730566","2024-06-03 06:15:00","9.5281","3.21072","25.123","4.68","7.55","0.219","1.73","0.03","0.13","29.3228","4.64944","49.49","0","SATNPRO1509","28.96","0.40564","5"],
    [23898,"HCEP03730566","2024-06-03 06:30:00","9.5276","3.21079","25.026","4.676","7.55","0.259","2.186","0.02","0.33","29.3239","4.6496","49.44","0","SATNPRO1509","28.79","0.40324","5"],
    [23899,"HCEP03730566","2024-06-03 06:45:00","9.5271","3.21079","24.868","4.67","7.55","0.278","2.158","0.03","0.22","29.3243","4.64966","49.38","0","SATNPRO1509","28.814","0.40356","5"],
    [23900,"HCEP03730566","2024-06-03 07:00:00","9.5265","3.21082","24.739","4.664","7.55","0.345","2.39","0.07","0.23","29.3252","4.64979","49.32","0","SATNPRO1509","28.846","0.40402","5"],
    [23901,"HCEP03730566","2024-06-03 07:15:00","9.5251","3.21087","24.633","4.668","7.55","0.354","2.563","0.04","0.26","29.3269","4.65006","49.37","0","SATNPRO1509","28.904","0.40484","5"],
    [23902,"HCEP03730566","2024-06-03 07:30:00","9.5243","3.21093","24.547","4.671","7.55","0.386","2.866","0.04","0.24","29.3282","4.65024","49.4","0","SATNPRO1509","28.886","0.40458","5"],
    [23903,"HCEP03730566","2024-06-03 07:45:00","9.5232","3.21093","24.49","4.652","7.54","0.464","3.236","0.11","0.47","29.3291","4.6504","49.19","0","SATNPRO1509","28.778000000000002","0.40308","5"],
    [23904,"HCEP03730566","2024-06-03 08:00:00","9.5229","3.21095","24.46","4.661","7.55","0.554","3.145","0.4","0.22","29.3296","4.65046","49.29","0","SATNPRO1509","28.796","0.40336","5"],
    [23905,"HCEP03730566","2024-06-03 08:15:00","9.5229","3.21101","24.447","4.655","7.55","0.505","3.402","0.06","0.14","29.3302","4.65054","49.23","0","SATNPRO1509","28.78","0.40314","5"],
    [23906,"HCEP03730566","2024-06-03 08:30:00","9.5228","3.21105","24.454","4.619","7.55","0.622","3.634","0.12","0.31","29.3307","4.65062","48.84","0","SATNPRO1509","28.656","0.40136","5"],
    [23907,"HCEP03730566","2024-06-03 08:45:00","9.5226","3.21108","24.452","4.599","7.54","0.548","3.738","0.07","0.19","29.3311","4.65069","48.64","0","SATNPRO1509","28.54","0.3997","5"],
    [23908,"HCEP03730566","2024-06-03 09:00:00","9.5224","3.21113","24.497","4.564","7.54","0.601","4.068","0.09","0.22","29.3318","4.65079","48.26","0","SATNPRO1509","28.45","0.3985","5"],
    [23909,"HCEP03730566","2024-06-03 09:15:00","9.5221","3.21116","24.522","4.536","7.54","0.635","3.977","0.08","0.26","29.3323","4.65087","47.97","0","SATNPRO1509","28.6","0.40062","5"],
    [23910,"HCEP03730566","2024-06-03 09:30:00","9.5229","3.21119","24.745","4.504","7.54","0.662","4.737","0.11","0.29","29.3319","4.65081","47.63","0","SATNPRO1509","28.41","0.39792","5"],
    [23911,"HCEP03730566","2024-06-03 09:45:00","9.5214","3.21119","24.825","4.493","7.53","0.636","4.168","0.08","1.34","29.3331","4.65101","47.51","0","SATNPRO1509","28.606","0.4007","5"],
    [23912,"HCEP03730566","2024-06-03 10:00:00","9.5215","3.21121","24.895","4.55","7.54","0.632","4.057","0.06","0.14","29.3332","4.65104","48.12","0","SATNPRO1509","28.676","0.40168","5"],
    [23913,"HCEP03730566","2024-06-03 10:15:00","9.5216","3.21107","24.933","4.616","7.54","0.546","3.277","0.04","0.23","29.3316","4.6508","48.81","0","SATNPRO1509","28.81","0.40356","5"],
    [23914,"HCEP03730566","2024-06-03 10:30:00","9.5272","3.21088","25.102","4.626","7.54","0.623","4.144","0.04","0.33","29.3251","4.64979","48.92","0","SATNPRO1509","28.77","0.40296","5"],
    [23915,"HCEP03730566","2024-06-03 10:45:00","9.5341","3.21055","25.213","4.61","7.54","0.593","4.089","0.04","0.32","29.3162","4.64839","48.75","0","SATNPRO1509","28.69","0.40186","5"],
    [23916,"HCEP03730566","2024-06-03 11:00:00","9.5428","3.21009","25.383","4.576","7.54","0.618","4.054","0.07","0.32","29.3043","4.64655","48.4","0","SATNPRO1509","28.608","0.40072","5"],
    [23917,"HCEP03730566","2024-06-03 11:15:00","9.5451","3.21006","25.464","4.581","7.54","0.656","7.433","0.06","0.82","29.302","4.64618","48.45","0","SATNPRO1509","28.594","0.40054","5"],
    [23918,"HCEP03730566","2024-06-03 11:30:00","9.5506","3.20982","25.652","4.604","7.54","0.723","8.041","0.05","0.68","29.295","4.64509","48.7","0","SATNPRO1509","28.542","0.39976","5"],
    [23919,"HCEP03730566","2024-06-03 11:45:00","9.5557","3.20975","25.82","4.605","7.54","0.712","8.999","0.07","0.54","29.2902","4.64432","48.71","0","SATNPRO1509","28.586","0.4004","5"],
    [23920,"NA","2024-06-03 12:00:00",null,null,null,null,null,null,null,null,null,null,null,null,null,"SATNPRO1509","28.57","0.40018","5"],
    [23921,"HCEP03730566","2024-06-03 12:00:01","9.5631","3.2094","26.018","4.612","7.54","0.633","7.031","0.06","0.77","29.2805","4.64281","48.8","0","NA",null,null,null],
    [23922,"HCEP03730566","2024-06-03 12:15:00","9.5699","3.20916","26.27","4.603","7.54","0.626","7.049","0.08","0.59","29.2725","4.64156","48.7","0","SATNPRO1509","28.488","0.39902","5"],
    [23923,"HCEP03730566","2024-06-03 12:30:00","9.5746","3.20896","26.472","4.569","7.54","0.652","6.696","0.05","0.7","29.2665","4.64064","48.35","0","SATNPRO1509","28.378","0.39752","5"],
    [23924,"HCEP03730566","2024-06-03 12:45:00","9.5951","3.20819","26.645","4.551","7.54","0.686","7.508","0.06","0.49","29.242","4.63677","48.18","0","SATNPRO1509","28.228","0.39536","5"],
    [23925,"HCEP03730566","2024-06-03 13:00:00","9.6043","3.20783","26.792","4.554","7.54","0.775","10.24","0.14","0.78","29.2308","4.63502","48.22","0","SATNPRO1509","28.178","0.3947","5"],
    [23926,"HCEP03730566","2024-06-03 13:15:00","9.6077","3.20788","26.898","4.532","7.54","0.859","14.637","0.09","0.86","29.2285","4.63463","47.98","0","SATNPRO1509","28.126","0.39396","5"],
    [23927,"HCEP03730566","2024-06-03 13:30:00","9.6303","3.20741","27.047","4.501","7.53","0.823","13.023","0.13","0.9","29.2053","4.63093","47.67","0","SATNPRO1509","27.966","0.39168","5"],
    [23928,"HCEP03730566","2024-06-03 13:45:00","9.636","3.20729","27.147","4.466","7.53","0.716","9.01","0.08","0.54","29.1995","4.62999","47.31","0","SATNPRO1509","27.826","0.38978","5"],
    [23929,"HCEP03730566","2024-06-03 14:00:00","9.6429","3.2072","27.352","4.405","7.53","0.664","7.35","0.07","0.7","29.1929","4.62895","46.67","0","SATNPRO1509","27.668","0.38756","5"],
    [23930,"HCEP03730566","2024-06-03 14:15:00","9.6547","3.20667","27.475","4.41","7.52","0.835","8.224","0.36","0.66","29.1779","4.6266","46.73","0","SATNPRO1509","27.57","0.38616","5"],
    [23931,"HCEP03730566","2024-06-03 14:30:00","9.676","3.20599","27.58","4.406","7.52","0.726","6.537","0.08","0.69","29.1538","4.62279","46.69","0","SATNPRO1509","27.488","0.38498","5"],
    [23932,"HCEP03730566","2024-06-03 14:45:00","9.6803","3.20586","27.609","4.381","7.52","0.82","7.004","0.16","1.2","29.149","4.62202","46.43","0","SATNPRO1509","27.404","0.38384","5"],
    [23933,"HCEP03730566","2024-06-03 15:00:00","9.6834","3.2034","27.796","4.476","7.52","0.92","6.892","0.1","0.83","29.1217","4.61807","47.43","0","SATNPRO1509","27.62","0.38688","5"],
    [23934,"HCEP03730566","2024-06-03 15:15:00","9.6679","3.20468","27.727","4.6","7.53","1.019","6.657","0.07","0.7","29.1471","4.62197","48.74","0","SATNPRO1509","27.642","0.38712","5"],
    [23935,"HCEP03730566","2024-06-03 15:30:00","9.6511","3.20609","27.722","4.562","7.53","1.055","5.681","0.1","0.54","29.1749","4.62625","48.33","0","SATNPRO1509","27.855999999999998","0.3902","5"],
    [23936,"HCEP03730566","2024-06-03 15:45:00","9.6447","3.20671","27.735","4.513","7.53","1.333","6.472","0.53","0.59","29.1864","4.62801","47.81","0","SATNPRO1509","27.838","0.38992","5"],
    [23937,"HCEP03730566","2024-06-03 16:00:00","9.6389","3.20708","27.695","4.474","7.53","1.081","5.694","0.09","0.61","29.1948","4.62931","47.39","0","SATNPRO1509","27.968","0.39172","5"],
    [23938,"HCEP03730566","2024-06-03 16:15:00","9.6313","3.20749","27.619","4.452","7.52","1.007","5.037","0.11","0.41","29.2052","4.63092","47.15","0","SATNPRO1509","28.014","0.3924","5"],
    [23939,"HCEP03730566","2024-06-03 16:30:00","9.623","3.20782","27.5","4.436","7.52","1.102","5.174","0.13","0.46","29.2152","4.6325","46.98","0","SATNPRO1509","28.03","0.39254","5"],
    [23940,"HCEP03730566","2024-06-03 16:45:00","9.6096","3.20795","27.506","4.453","7.52","0.962","5.625","0.12","0.49","29.2275","4.63449","47.15","0","SATNPRO1509","28.195999999999998","0.39492","5"],
    [23941,"HCEP03730566","2024-06-03 17:00:00","9.6049","3.20803","27.448","4.497","7.53","0.845","4.776","0.06","0.29","29.232","4.63522","47.61","0","SATNPRO1509","28.23","0.39544","5"],
    [23942,"HCEP03730566","2024-06-03 17:15:00","9.5893","3.20807","27.382","4.544","7.53","0.896","5.598","0.06","0.41","29.2452","4.63738","48.1","0","SATNPRO1509","28.378","0.39752","5"],
    [23943,"HCEP03730566","2024-06-03 17:30:00","9.5804","3.20823","27.385","4.626","7.53","0.824","5.707","0.1","0.4","29.2541","4.6388","48.96","0","SATNPRO1509","28.642","0.40122","5"],
    [23944,"HCEP03730566","2024-06-03 17:45:00","9.577","3.20839","27.324","4.682","7.54","0.699","6.34","0.04","0.79","29.2584","4.63948","49.55","0","SATNPRO1509","28.714000000000002","0.40212","5"],
    [23945,"HCEP03730566","2024-06-03 18:00:00","9.5784","3.20841","27.251","4.685","7.54","1.132","5.396","0.1","0.46","29.2576","4.63933","49.58","0","SATNPRO1509","28.594","0.40054","5"],
    [23946,"HCEP03730566","2024-06-03 18:15:00","9.5848","3.20828","26.941","4.659","7.54","1.014","4.711","0.07","0.32","29.2512","4.63829","49.31","0","SATNPRO1509","28.472","0.39884","5"],
    [23947,"HCEP03730566","2024-06-03 18:30:00","9.5881","3.20823","26.742","4.633","7.54","1.01","4.271","0.06","0.36","29.2481","4.63778","49.04","0","SATNPRO1509","28.48","0.39888","5"],
    [23948,"HCEP03730566","2024-06-03 18:45:00","9.5894","3.20825","26.582","4.615","7.54","0.794","4.302","0.18","0.32","29.2473","4.63762","48.84","0","SATNPRO1509","28.456","0.39856","5"],
    [23949,"HCEP03730566","2024-06-03 19:00:00","9.5965","3.20817","26.477","4.604","7.54","0.707","4.421","0.08","0.86","29.2407","4.63655","48.73","0","SATNPRO1509","28.212","0.3952","5"],
    [23950,"HCEP03730566","2024-06-03 19:15:00","9.5933","3.20819","26.421","4.583","7.54","33.199","4.891","38.64","0.45","29.2435","4.63701","48.51","0","SATNPRO1509","28.43","0.39818","5"],
    [23951,"HCEP03730566","2024-06-03 19:30:00","9.593","3.20823","26.35","4.574","7.54","0.777","4.736","0.09","0.28","29.2443","4.63712","48.42","0","SATNPRO1509","28.438","0.39832","5"],
    [23952,"HCEP03730566","2024-06-03 19:45:00","9.5914","3.20832","26.297","4.571","7.54","0.877","5.46","0.11","0.26","29.2465","4.63746","48.38","0","SATNPRO1509","28.3","0.3964","5"],
    [23953,"HCEP03730566","2024-06-03 20:00:00","9.592","3.20836","26.235","4.56","7.54","0.582","5.972","0.14","0.22","29.2464","4.63743","48.27","0","SATNPRO1509","28.304000000000002","0.39644","5"],
    [23954,"HCEP03730566","2024-06-03 20:15:00","9.5897","3.20847","26.195","4.57","7.54","0.604","8.67","0.09","0.19","29.2494","4.6379","48.37","0","SATNPRO1509","28.456","0.39856","5"],
    [23955,"HCEP03730566","2024-06-03 20:30:00","9.5848","3.20875","26.246","4.592","7.54","0.57","13.171","0.05","0.14","29.2562","4.63896","48.6","0","SATNPRO1509","28.604","0.40064","5"],
    [23956,"HCEP03730566","2024-06-03 20:45:00","9.5836","3.20884","26.26","4.631","7.54","0.628","19.375","0.08","0.4","29.2581","4.63925","49.02","0","SATNPRO1509","28.65","0.4013","5"],
    [23957,"HCEP03730566","2024-06-03 21:00:00","9.5668","3.20957","26.288","4.812","7.55","0.509","25.036","0.1","0.17","29.2791","4.64257","50.91","0","SATNPRO1509","29.356","0.4112","5"],
    [23958,"HCEP03730566","2024-06-03 21:15:00","9.5593","3.20988","26.342","4.985","7.57","0.514","29.673","0.07","0.11","29.2884","4.64403","52.74","0","SATNPRO1509","29.502","0.41318","5"],
    [23959,"HCEP03730566","2024-06-03 21:30:00","9.5517","3.21015","26.369","5.042","7.57","0.475","31.599","0.05","0.16","29.2972","4.64542","53.34","0","SATNPRO1509","29.698","0.41602","5"],
    [23960,"HCEP03730566","2024-06-03 21:45:00","9.5489","3.21037","26.451","5.058","7.58","0.48","31.459","0.04","0.12","29.3016","4.64612","53.51","0","SATNPRO1509","29.576","0.41424","5"],
    [23961,"HCEP03730566","2024-06-03 22:00:00","9.5501","3.21024","26.564","5.03","7.58","0.506","30.609","0.05","0.11","29.2993","4.64577","53.2","0","SATNPRO1509","29.612","0.41478","5"],
    [23962,"HCEP03730566","2024-06-03 22:15:00","9.5507","3.21018","26.672","4.999","7.58","0.526","30.827","0.05","0.1","29.2983","4.64561","52.88","0","SATNPRO1509","29.456","0.41258","5"],
    [23963,"HCEP03730566","2024-06-03 22:30:00","9.5501","3.21012","26.715","4.961","7.58","0.538","29.93","0.09","0.12","29.298","4.64559","52.48","0","SATNPRO1509","29.442","0.41236","5"],
    [23964,"HCEP03730566","2024-06-03 22:45:00","9.5444","3.21051","26.867","4.967","7.58","0.503","30.117","0.06","0.07","29.3066","4.64692","52.54","0","SATNPRO1509","29.58","0.4143","5"],
    [23965,"HCEP03730566","2024-06-03 23:00:00","9.5399","3.21076","26.98","5.026","7.58","0.527","32.433","0.05","0.14","29.3127","4.6479","53.16","0","SATNPRO1509","29.718","0.41628","5"],
    [23966,"HCEP03730566","2024-06-03 23:15:00","9.54","3.2107","27.066","5.028","7.59","0.557","37.666","0.06","0.13","29.3121","4.6478","53.18","0","SATNPRO1509","29.8","0.4174","5"],
    [23967,"HCEP03730566","2024-06-03 23:30:00","9.5426","3.21057","27.159","4.992","7.59","0.592","45.056","0.06","0.11","29.3086","4.64726","52.81","0","SATNPRO1509","29.506","0.41324","5"],
    [23968,"HCEP03730566","2024-06-03 23:45:00","9.5443","3.21044","27.327","4.951","7.58","0.591","54.628","0.05","0.13","29.3058","4.64685","52.37","0","SATNPRO1509","29.514","0.41338","5"],
    [23969,"HCEP03730566","2024-06-04 00:00:00","9.5463","3.2103","27.396","4.937","7.58","0.584","64.318","0.06","0.2","29.3028","4.64638","52.22","0","SATNPRO1509","29.424","0.41218","5"],
    [23970,"HCEP03730566","2024-06-04 00:15:00","9.548400000000001","3.21016","27.496","4.884","7.58","0.592","67.809","0.05","0.39","29.2996","4.64589","51.67","0","SATNPRO1509","29.424","0.41216","5"],
    [23971,"HCEP03730566","2024-06-04 00:30:00","9.5493","3.21015","27.598","4.764","7.57","0.724","68.197","0.06","0.21","29.2987","4.64575","50.4","0","SATNPRO1509","28.982","0.40594","5"],
    [23972,"HCEP03730566","2024-06-04 00:45:00","9.5494","3.21008","27.675","4.687","7.56","0.792","69.45","0.06","0.11","29.2979","4.64564","49.58","0","SATNPRO1509","28.79","0.40326","5"],
    [23973,"HCEP03730566","2024-06-04 01:00:00","9.5473","3.21004","27.782","4.619","7.56","0.768","68.192","0.05","0.1","29.2991","4.64586","48.86","0","SATNPRO1509","28.846","0.40404","5"],
    [23974,"HCEP03730566","2024-06-04 01:15:00","9.5463","3.21012","27.859","4.617","7.55","0.768","61.76","0.06","0.13","29.3008","4.64612","48.84","0","SATNPRO1509","28.812","0.40356","5"],
    [23975,"HCEP03730566","2024-06-04 01:30:00","9.5462","3.21012","27.918","4.638","7.55","0.678","48.213","0.04","0.1","29.3007","4.64612","49.06","0","SATNPRO1509","28.926","0.4052","5"],
    [23976,"HCEP03730566","2024-06-04 01:45:00","9.5462","3.21014","27.927","4.638","7.55","0.721","27.464","0.07","0.46","29.301","4.64615","49.06","0","SATNPRO1509","28.918","0.40506","5"],
    [23977,"HCEP03730566","2024-06-04 02:00:00","9.5466","3.2101","27.986","4.644","7.55","0.695","37.268","0.16","0.12","29.3002","4.64604","49.12","0","SATNPRO1509","28.888","0.40464","5"],
    [23978,"HCEP03730566","2024-06-04 02:15:00","9.5473","3.21009","27.988","4.641","7.55","0.646","64.918","0.03","0.1","29.2996","4.64593","49.09","0","SATNPRO1509","28.898","0.40476","5"],
    [23979,"HCEP03730566","2024-06-04 02:30:00","9.5487","3.21002","27.978","4.64","7.55","0.622","77.967","0.03","0.11","29.2977","4.64565","49.08","0","SATNPRO1509","28.874","0.40448","5"],
    [23980,"HCEP03730566","2024-06-04 02:45:00","9.55","3.20996","27.902","4.638","7.55","0.651","75.351","0.06","0.14","29.2961","4.64538","49.07","0","SATNPRO1509","28.884","0.40458","5"],
    [23981,"HCEP03730566","2024-06-04 03:00:00","9.5524","3.20987","27.811","4.644","7.55","0.639","68.692","0.03","0.11","29.2932","4.64493","49.12","0","SATNPRO1509","28.862","0.40426","5"],
    [23982,"HCEP03730566","2024-06-04 03:15:00","9.5555","3.20977","27.686","4.671","7.55","0.65","64.154","0.05","0.12","29.2897","4.64437","49.41","0","SATNPRO1509","28.876","0.4045","5"],
    [23983,"HCEP03730566","2024-06-04 03:30:00","9.5628","3.20963","27.548","4.728","7.55","0.624","59.57","0.06","0.28","29.2825","4.64319","50.03","0","SATNPRO1509","29.224","0.40932","5"],
    [23984,"HCEP03730566","2024-06-04 03:45:00","9.5652","3.2095","27.429","4.781","7.56","0.615","47.442","0.05","0.13","29.2793","4.64268","50.59","0","SATNPRO1509","28.86","0.4042","5"],
    [23985,"HCEP03730566","2024-06-04 04:00:00","9.5676","3.20967","27.351","4.843","7.56","0.581","36.667","0.06","0.12","29.279","4.6426","51.24","0","SATNPRO1509","29.236","0.40952","5"],
    [23986,"HCEP03730566","2024-06-04 04:15:00","9.5662","3.20962","27.091","4.881","7.57","0.591","29.119","0.05","0.12","29.2798","4.64272","51.64","0","SATNPRO1509","29.152","0.4083","5"],
    [23987,"HCEP03730566","2024-06-04 04:30:00","9.5645","3.2097","26.779","4.854","7.57","0.611","26.971","0.04","0.08","29.2821","4.64306","51.36","0","SATNPRO1509","29.114","0.40778","5"],
    [23988,"HCEP03730566","2024-06-04 04:45:00","9.5617","3.20985","26.583","4.887","7.57","0.563","23.585","0.03","0.08","29.2859","4.64364","51.71","0","SATNPRO1509","29.304","0.41048","5"],
    [23989,"HCEP03730566","2024-06-04 05:00:00","9.5599","3.20987","26.433","4.891","7.58","0.603","21.827","0.12","0.1","29.2877","4.64393","51.74","0","SATNPRO1509","29.296","0.41034","5"],
    [23990,"HCEP03730566","2024-06-04 05:15:00","9.5498","3.21049","26.26","4.979","7.58","0.554","20.764","0.04","0.17","29.3023","4.64618","52.67","0","SATNPRO1509","29.566","0.4141","5"],
    [23991,"HCEP03730566","2024-06-04 05:30:00","9.5378","3.21112","26.018","5.052","7.59","0.554","20.986","0.03","0.12","29.3185","4.6487","53.43","0","SATNPRO1509","29.768","0.41692","5"],
    [23992,"HCEP03730566","2024-06-04 05:45:00","9.5308","3.21149","25.681","5.072","7.6","0.539","21.802","0.04","0.43","29.3281","4.65018","53.64","0","SATNPRO1509","29.816","0.41762","5"],
    [23993,"HCEP03730566","2024-06-04 06:00:00","9.5495","3.21051","25.435","4.97","7.59","0.627","21.634","0.03","0.28","29.303","4.64624","52.58","0","SATNPRO1509","29.296","0.41034","5"],
    [23994,"HCEP03730566","2024-06-04 06:15:00","9.5775","3.209","25.137","4.838","7.59","0.677","21.705","0.04","0.41","29.2651","4.6403","51.2","0","SATNPRO1509","28.848","0.40406","5"],
    [23995,"HCEP03730566","2024-06-04 06:30:00","9.581","3.20889","24.934","4.811","7.58","0.689","19.002","0.07","1.15","29.2611","4.63966","50.92","0","SATNPRO1509","28.88","0.40448","5"],
    [23996,"HCEP03730566","2024-06-04 06:45:00","9.5812","3.20897","24.682","4.85","7.58","0.695","16.261","0.06","0.98","29.262","4.63976","51.33","0","SATNPRO1509","28.880000000000003","0.40452","5"],
    [23997,"HCEP03730566","2024-06-04 07:00:00","9.5896","3.20879","24.479","4.84","7.58","0.774","16.448","0.06","1.2","29.2534","4.63837","51.23","0","SATNPRO1509","28.79","0.40326","5"],
    [23998,"HCEP03730566","2024-06-04 07:15:00","9.6024","3.20836","24.311","4.724","7.58","0.769","13.464","0.05","1.21","29.2387","4.63604","50.01","0","SATNPRO1509","28.382","0.39754","5"],
    [23999,"HCEP03730566","2024-06-04 07:30:00","9.6231","3.20763","24.105","4.508","7.56","0.827","14.664","0.06","0.83","29.2146","4.63221","47.74","0","SATNPRO1509","27.846","0.39","5"],
    [24000,"HCEP03730566","2024-06-04 07:45:00","9.6289","3.20748","23.974","4.386","7.55","0.828","12.95","0.06","1.49","29.2085","4.63123","46.45","0","SATNPRO1509","27.71","0.3881","5"],
    [24001,"HCEP03730566","2024-06-04 08:00:00","9.6325","3.20737","23.836","4.34","7.54","0.889","12.873","0.05","1.24","29.2045","4.63058","45.96","0","SATNPRO1509","27.654","0.38732","5"],
    [24002,"HCEP03730566","2024-06-04 08:15:00","9.6414","3.2071","23.743","4.293","7.54","1.003","15.724","0.07","1.89","29.1946","4.62901","45.48","0","SATNPRO1509","27.454","0.38454","5"],
    [24003,"HCEP03730566","2024-06-04 08:30:00","9.6471","3.20687","23.714","4.266","7.53","1.026","14.713","0.05","1.07","29.1876","4.6279","45.19","0","SATNPRO1509","27.488","0.38508","5"],
    [24004,"HCEP03730566","2024-06-04 08:45:00","9.6467","3.20685","23.8","4.253","7.53","1.112","13.015","0.09","1.28","29.1876","4.62792","45.06","0","SATNPRO1509","27.41","0.38392","5"],
    [24005,"HCEP03730566","2024-06-04 09:00:00","9.6454","3.2068","23.882","4.277","7.53","1.161","12.293","0.13","1.16","29.1882","4.62803","45.31","0","SATNPRO1509","27.402","0.38382","5"],
    [24006,"HCEP03730566","2024-06-04 09:15:00","9.6458","3.20672","23.942","4.291","7.53","1.157","11.688","0.09","1.81","29.1871","4.62786","45.46","0","SATNPRO1509","27.458000000000002","0.38458","5"],
    [24007,"HCEP03730566","2024-06-04 09:30:00","9.6507","3.20651","24.039","4.291","7.53","1.164","11.234","0.08","1.34","29.1809","4.6269","45.46","0","SATNPRO1509","27.396","0.38372","5"],
    [24008,"HCEP03730566","2024-06-04 09:45:00","9.6542","3.20635","24.083","4.288","7.52","1.207","10.644","0.07","0.76","29.1764","4.6262","45.43","0","SATNPRO1509","27.358","0.3832","5"],
    [24009,"HCEP03730566","2024-06-04 10:00:00","9.6584","3.20622","24.285","4.278","7.52","1.258","9.802","0.16","0.71","29.1716","4.62545","45.33","0","SATNPRO1509","27.3","0.3824","5"],
    [24010,"HCEP03730566","2024-06-04 10:15:00","9.6614","3.20613","24.439","4.27","7.52","1.291","8.97","0.11","0.65","29.1683","4.62493","45.24","0","SATNPRO1509","27.256","0.38178","5"],
    [24011,"HCEP03730566","2024-06-04 10:30:00","9.6628","3.20603","24.588","4.263","7.52","1.421","9.063","0.22","0.51","29.1661","4.62459","45.17","0","SATNPRO1509","27.174","0.3806","5"],
    [24012,"HCEP03730566","2024-06-04 10:45:00","9.6664","3.20582","24.714","4.265","7.52","1.314","7.534","0.08","0.4","29.161","4.62381","45.19","0","SATNPRO1509","27.178","0.38066","5"],
    [24013,"HCEP03730566","2024-06-04 11:00:00","9.6694","3.20559","24.926","4.291","7.52","1.279","6.637","0.12","0.42","29.1562","4.62309","45.47","0","SATNPRO1509","27.242","0.38154","5"],
    [24014,"HCEP03730566","2024-06-04 11:15:00","9.6749","3.2053","25.082","4.293","7.52","1.313","6.769","0.2","0.47","29.1488","4.62194","45.5","0","SATNPRO1509","27.158","0.38038","5"],
    [24015,"HCEP03730566","2024-06-04 11:30:00","9.6853","3.20485","25.262","4.297","7.52","1.279","6.068","0.12","0.44","29.1357","4.6199","45.54","0","SATNPRO1509","27.112000000000002","0.37974","5"],
    [24016,"HCEP03730566","2024-06-04 11:45:00","9.688","3.20461","25.457","4.305","7.52","1.35","6.36","0.09","0.25","29.131","4.61919","45.63","0","SATNPRO1509","27.036","0.37866","5"],
    [24017,"HCEP03730566","2024-06-04 12:00:00","9.6921","3.20441","25.649","4.302","7.52","1.317","5.724","0.21","0.33","29.1256","4.61835","45.6","0","SATNPRO1509","27.076","0.37922","5"],
    [24018,"HCEP03730566","2024-06-04 12:15:00","9.6901","3.20467","25.857","4.289","7.52","1.335","5.961","0.16","0.25","29.1298","4.61901","45.46","0","SATNPRO1509","26.996","0.3781","5"],
    [24019,"HCEP03730566","2024-06-04 12:30:00","9.6899","3.20465","26.064","4.274","7.52","1.354","5.594","0.17","0.23","29.1296","4.61899","45.31","0","SATNPRO1509","27.032","0.37862","5"],
    [24020,"HCEP03730566","2024-06-04 12:45:00","9.7104","3.20345","26.266","4.292","7.52","1.274","5.246","0.09","0.25","29.1008","4.61453","45.5","0","SATNPRO1509","26.926","0.37714","5"],
    [24021,"HCEP03730566","2024-06-04 13:00:00","9.7184","3.20309","26.495","4.305","7.52","1.341","5.103","0.14","0.21","29.0908","4.61296","45.65","0","SATNPRO1509","26.852","0.37608","5"],
    [24022,"HCEP03730566","2024-06-04 13:15:00","9.7238","3.20257","26.704","4.314","7.52","1.417","5.019","0.21","0.37","29.081","4.61148","45.74","0","SATNPRO1509","26.82","0.37564","5"],
    [24023,"HCEP03730566","2024-06-04 13:30:00","9.7361","3.2021","26.903","4.314","7.52","1.402","4.981","0.13","0.43","29.0664","4.60918","45.76","0","SATNPRO1509","26.752","0.37472","5"],
    [24024,"HCEP03730566","2024-06-04 13:45:00","9.7423","3.20166","27.083","4.323","7.52","1.602","5.39","0.27","0.4","29.0568","4.60772","45.85","0","SATNPRO1509","26.676000000000002","0.37364","5"],
    [24025,"HCEP03730566","2024-06-04 14:00:00","9.7528","3.20129","27.238","4.357","7.52","1.582","5.193","0.22","0.5","29.0446","4.6058","46.23","0","SATNPRO1509","26.504","0.37122","5"],
    [24026,"HCEP03730566","2024-06-04 14:15:00","9.7578","3.2011","27.394","4.359","7.52","1.768","5.229","0.29","0.38","29.0386","4.60487","46.24","0","SATNPRO1509","26.558","0.37204","5"],
    [24027,"HCEP03730566","2024-06-04 14:30:00","9.7581","3.20106","27.486","4.359","7.52","1.72","4.815","0.18","0.34","29.0379","4.60476","46.25","0","SATNPRO1509","26.434","0.37028","5"],
    [24028,"HCEP03730566","2024-06-04 14:45:00","9.7591","3.20086","27.603","4.364","7.52","1.785","4.632","0.46","0.56","29.0351","4.60435","46.3","0","SATNPRO1509","26.428","0.37014","5"],
    [24029,"HCEP03730566","2024-06-04 15:00:00","9.7543","3.20103","27.734","4.362","7.52","1.715","4.814","0.19","0.3","29.0406","4.60523","46.28","0","SATNPRO1509","26.552","0.37188","5"],
    [24030,"HCEP03730566","2024-06-04 15:15:00","9.7568","3.20093","27.859","4.361","7.52","1.787","4.65","0.4","0.38","29.0376","4.60475","46.27","0","SATNPRO1509","26.514","0.37136","5"],
    [24031,"HCEP03730566","2024-06-04 15:30:00","9.7572","3.20103","27.906","4.352","7.52","2.046","5.979","0.39","0.37","29.0382","4.60485","46.17","0","SATNPRO1509","26.286","0.36816","5"],
    [24032,"HCEP03730566","2024-06-04 15:45:00","10.3343","3.15133","28.077","4.661","7.56","2.149","7.382","0.16","0.4","28.0887","4.4593","49.75","0","SATNPRO1509","23.994","0.3361","5"],
    [24033,"HCEP03730566","2024-06-04 16:00:00","10.111","3.17508","28.048","4.84","7.59","3.67","7.203","0.24","0.41","28.4976","4.52149","51.55","0","SATNPRO1509","22.998","0.32212","5"],
    [24034,"HCEP03730566","2024-06-04 16:15:00","10.275","3.15965","28.029","5.079","7.6","3.843","6.53","0.19","0.42","28.2167","4.47859","54.2","0","SATNPRO1509","22.084","0.3093","5"],
    [24035,"HCEP03730566","2024-06-04 16:30:00","10.3783","3.14852","27.889","5.465","7.64","4.052","6.197","0.25","0.82","28.0272","4.44979","58.39","0","SATNPRO1509","21.724","0.3043","5"],
    [24036,"HCEP03730566","2024-06-04 16:45:00","10.3314","3.15168","27.702","5.587","7.67","4.139","6.322","0.52","0.56","28.0946","4.46017","59.66","0","SATNPRO1509","22.096","0.30946","5"],
    [24037,"HCEP03730566","2024-06-04 17:00:00","10.2809","3.15536","27.622","5.664","7.68","3.263","4.993","0.21","0.2","28.1699","4.47176","60.45","0","SATNPRO1509","22.73","0.31838","5"],
    [24038,"HCEP03730566","2024-06-04 17:15:00","10.2209","3.15994","27.629","5.596","7.67","3.463","6.167","0.27","0.41","28.2618","4.48589","59.68","0","SATNPRO1509","23.298000000000002","0.32632","5"],
    [24039,"HCEP03730566","2024-06-04 17:30:00","10.1453","3.16659","27.521","5.45","7.66","3.312","5.548","0.26","0.47","28.3867","4.505","58.08","0","SATNPRO1509","23.66","0.3314","5"],
    [24040,"HCEP03730566","2024-06-04 17:45:00","10.048400000000001","3.17577","27.387","5.161","7.64","3.16","5.123","0.32","0.31","28.554","4.53055","54.94","0","SATNPRO1509","24.426","0.34212","5"],
    [24041,"HCEP03730566","2024-06-04 18:00:00","9.9644","3.18527","27.37","4.879","7.61","2.896","5.335","0.36","0.26","28.715","4.55502","51.89","0","SATNPRO1509","24.784","0.34712","5"],
    [24042,"HCEP03730566","2024-06-04 18:15:00","9.9308","3.1891","27.337","4.77","7.59","2.618","4.922","0.3","0.29","28.78","4.56488","50.72","0","SATNPRO1509","25.252","0.3537","5"],
    [24043,"HCEP03730566","2024-06-04 18:30:00","9.9198","3.19052","27.279","4.753","7.58","2.316","4.678","0.22","0.36","28.803","4.56835","50.53","0","SATNPRO1509","25.35","0.35506","5"],
    [24044,"HCEP03730566","2024-06-04 18:45:00","9.8986","3.19169","27.2","4.788","7.58","2.04","3.813","0.21","0.23","28.8316","4.57281","50.89","0","SATNPRO1509","25.628","0.359","5"],
    [24045,"HCEP03730566","2024-06-04 19:00:00","9.886","3.19224","27.123","4.789","7.58","1.92","3.845","0.13","0.24","28.8472","4.57525","50.89","0","SATNPRO1509","25.774","0.361","5"],
    [24046,"HCEP03730566","2024-06-04 19:15:00","9.8806","3.19252","27.055","4.762","7.58","1.967","4.385","0.24","0.31","28.8543","4.57635","50.6","0","SATNPRO1509","25.759999999999998","0.36084","5"],
    [24047,"HCEP03730566","2024-06-04 19:30:00","9.8721","3.19266","26.968","4.734","7.57","1.994","4.762","0.14","0.25","28.8625","4.57766","50.29","0","SATNPRO1509","25.948","0.36344","5"],
    [24048,"HCEP03730566","2024-06-04 19:45:00","9.8126","3.19523","26.881","4.69","7.57","2.19","5.754","0.23","0.36","28.9359","4.58918","49.78","0","SATNPRO1509","26.21","0.3671","5"],
    [24049,"HCEP03730566","2024-06-04 20:00:00","9.7621","3.19888","26.799","4.655","7.56","1.76","5.458","0.21","0.54","29.0131","4.6011","49.39","0","SATNPRO1509","26.9","0.37676","5"],
    [24050,"HCEP03730566","2024-06-04 20:15:00","9.7179","3.20182","26.722","4.621","7.56","1.461","5.103","0.14","0.31","29.0783","4.61119","49","0","SATNPRO1509","27.192","0.38086","5"],
    [24051,"HCEP03730566","2024-06-04 20:30:00","9.7072","3.20205","26.658","4.651","7.55","1.326","5.286","0.07","0.37","29.0893","4.61295","49.3","0","SATNPRO1509","27.45","0.3845","5"],
    [24052,"HCEP03730566","2024-06-04 20:45:00","9.7023","3.20188","26.592","4.694","7.56","1.203","5.353","0.09","0.4","29.0915","4.61335","49.76","0","SATNPRO1509","27.57","0.38616","5"],
    [24053,"HCEP03730566","2024-06-04 21:00:00","9.7016","3.20146","26.541","4.748","7.56","1.054","5.342","0.11","0.52","29.0879","4.61284","50.32","0","SATNPRO1509","27.602","0.3866","5"],
    [24054,"HCEP03730566","2024-06-04 21:15:00","9.7018","3.2011","26.518","4.83","7.57","0.881","5.65","0.04","0.51","29.0841","4.61229","51.2","0","SATNPRO1509","27.892","0.39068","5"],
    [24055,"HCEP03730566","2024-06-04 21:30:00","9.6913","3.20132","26.499","5.124","7.58","0.703","5.543","0.03","0.36","29.0949","4.61401","54.3","0","SATNPRO1509","28.562","0.40008","5"],
    [24056,"HCEP03730566","2024-06-04 21:45:00","9.684","3.20179","26.504","5.31","7.6","0.567","7.207","0.03","0.39","29.1054","4.61565","56.27","0","SATNPRO1509","28.788","0.40322","5"],
    [24057,"HCEP03730566","2024-06-04 22:00:00","9.6832","3.20163","26.546","5.289","7.61","0.44","12.075","0.01","0.34","29.1045","4.61554","56.04","0","SATNPRO1509","28.848","0.40406","5"],
    [24058,"HCEP03730566","2024-06-04 22:15:00","9.6877","3.20103","26.616","5.229","7.61","0.344","23.207","0.01","0.48","29.0948","4.61408","55.41","0","SATNPRO1509","28.516","0.3994","5"],
    [24059,"HCEP03730566","2024-06-04 22:30:00","9.6837","3.20197","26.662","5.287","7.61","0.261","44.194","0.02","0.69","29.1074","4.61595","56.02","0","SATNPRO1509","28.884","0.40456","5"],
    [24060,"HCEP03730566","2024-06-04 22:45:00","9.6772","3.20252","26.727","5.35","7.62","0.251","82.12","0.01","0.53","29.1182","4.61761","56.69","0","SATNPRO1509","29.08","0.40732","5"],
    [24061,"HCEP03730566","2024-06-04 23:00:00","9.6763","3.20256","26.809","5.371","7.63","0.295","145.535","0.03","0.48","29.1194","4.6178","56.91","0","SATNPRO1509","28.962","0.40564","5"],
    [24062,"HCEP03730566","2024-06-04 23:15:00","9.6775","3.20258","26.89","5.363","7.63","0.399","241.712","0.04","1.06","29.1186","4.61767","56.83","0","SATNPRO1509","28.922","0.40516","5"],
    [24063,"HCEP03730566","2024-06-04 23:30:00","9.6833","3.20211","26.981","5.373","7.63","0.555","385.947","0.13","1.06","29.1091","4.61621","56.93","0","SATNPRO1509","28.74","0.40256","5"],
    [24064,"HCEP03730566","2024-06-04 23:45:00","9.6861","3.2018","27.066","5.358","7.63","0.736","559.638","0.17","1.46","29.1036","4.61539","56.78","0","SATNPRO1509","28.936","0.40528","5"],
    [24065,"HCEP03730566","2024-06-05 00:00:00","9.6858","3.202","27.16","5.357","7.63","0.855","669.578","0.09","2.47","29.1059","4.61572","56.77","0","SATNPRO1509","28.776","0.40304","5"],
    [24066,"HCEP03730566","2024-06-05 00:15:00","9.6855","3.20223","27.239","5.382","7.63","1.002","699.733","0.13","3.67","29.1084","4.61609","57.04","0","SATNPRO1509","28.896","0.40472","5"],
    [24067,"HCEP03730566","2024-06-05 00:30:00","9.6871","3.20227","27.327","5.402","7.63","1.142","662.551","0.19","1.72","29.1074","4.61593","57.25","0","SATNPRO1509","29.152","0.4083","5"],
    [24068,"HCEP03730566","2024-06-05 00:45:00","9.6895","3.20187","27.426","5.39","7.63","1.114","586.039","0.15","0.72","29.1015","4.61504","57.13","0","SATNPRO1509","28.701999999999998","0.40206","5"],
    [24069,"HCEP03730566","2024-06-05 01:00:00","9.6816","3.20287","27.525","5.395","7.63","1.147","476.75","0.12","1.42","29.1179","4.61754","57.18","0","SATNPRO1509","29.078","0.4073","5"],
    [24070,"HCEP03730566","2024-06-05 01:15:00","9.6755","3.20336","27.608","5.418","7.63","1.075","365.241","0.14","2.16","29.1277","4.61905","57.42","0","SATNPRO1509","29.156","0.40836","5"],
    [24071,"HCEP03730566","2024-06-05 01:30:00","9.6786","3.2031","27.677","5.428","7.63","0.999","241.025","0.14","0.38","29.1226","4.61827","57.52","0","SATNPRO1509","29.142","0.40818","5"],
    [24072,"HCEP03730566","2024-06-05 01:45:00","9.6736","3.20357","27.784","5.426","7.63","1.033","115.097","0.22","0.12","29.1313","4.61961","57.49","0","SATNPRO1509","29.146","0.4083","5"],
    [24073,"HCEP03730566","2024-06-05 02:00:00","9.6593","3.20466","27.904","5.4","7.63","1.061","54.055","0.12","0.09","29.1538","4.62309","57.21","0","SATNPRO1509","29.234","0.4095","5"],
    [24074,"HCEP03730566","2024-06-05 02:15:00","9.642","3.20578","28.016","5.363","7.63","0.92","27.463","0.07","0.03","29.179","4.62701","56.81","0","SATNPRO1509","29.362","0.41126","5"],
    [24075,"HCEP03730566","2024-06-05 02:30:00","9.6356","3.20607","28.153","5.344","7.63","0.797","8.645","0.06","0.02","29.1872","4.62829","56.6","0","SATNPRO1509","29.386","0.41162","5"],
    [24076,"HCEP03730566","2024-06-05 02:45:00","9.6376","3.20595","28.185","5.331","7.62","0.761","1.257","0.12","0.02","29.1843","4.62785","56.46","0","SATNPRO1509","29.352","0.41112","5"],
    [24077,"HCEP03730566","2024-06-05 03:00:00","9.6394","3.20584","28.181","5.321","7.62","0.608","0.3","0.06","0.02","29.1816","4.62744","56.35","0","SATNPRO1509","29.292","0.41028","5"],
    [24078,"HCEP03730566","2024-06-05 03:15:00","9.6443","3.20555","28.134","5.309","7.62","0.561","0.302","0.04","0.01","29.1748","4.62638","56.24","0","SATNPRO1509","29.304","0.41046","5"],
    [24079,"HCEP03730566","2024-06-05 03:30:00","9.6471","3.20548","28.167","5.294","7.62","0.482","0.341","0.03","0.04","29.1719","4.62591","56.08","0","SATNPRO1509","29.234","0.40948","5"],
    [24080,"HCEP03730566","2024-06-05 03:45:00","9.6511","3.20533","28.12","5.261","7.62","0.402","0.388","0.03","0.04","29.1671","4.62515","55.73","0","SATNPRO1509","29.082","0.40734","5"],
    [24081,"HCEP03730566","2024-06-05 04:00:00","9.6494","3.20541","28.079","5.248","7.62","0.358","0.617","0.03","0.1","29.1693","4.62549","55.6","0","SATNPRO1509","28.974","0.40582","5"],
    [24082,"HCEP03730566","2024-06-05 04:15:00","9.6494","3.20546","27.969","5.241","7.61","0.308","0.9","0.02","0.08","29.1699","4.62557","55.51","0","SATNPRO1509","29.067999999999998","0.40712","5"],
    [24083,"HCEP03730566","2024-06-05 04:30:00","9.6578","3.20505","27.869","5.214","7.61","0.312","1.27","0.03","0.11","29.159","4.62386","55.24","0","SATNPRO1509","28.922","0.40512","5"],
    [24084,"HCEP03730566","2024-06-05 04:45:00","9.6703","3.20438","27.629","5.17","7.61","0.326","1.616","0.02","0.13","29.1421","4.62121","54.78","0","SATNPRO1509","28.746","0.40268","5"],
    [24085,"HCEP03730566","2024-06-05 05:00:00","9.6884","3.20306","27.511","5.098","7.6","0.362","1.73","0.03","0.16","29.1142","4.61689","54.03","0","SATNPRO1509","28.362","0.39724","5"],
    [24086,"HCEP03730566","2024-06-05 05:15:00","9.7083","3.20167","27.276","5.01","7.6","0.462","2.013","0.04","0.15","29.0844","4.61226","53.11","0","SATNPRO1509","28","0.39216","5"],
    [24087,"HCEP03730566","2024-06-05 05:30:00","9.7163","3.20087","27.031","4.944","7.59","0.562","2.125","0.04","0.2","29.0699","4.61003","52.42","0","SATNPRO1509","27.848","0.39004","5"],
    [24088,"HCEP03730566","2024-06-05 05:45:00","9.7216","3.20059","26.782","4.939","7.59","0.594","1.922","0.07","0.39","29.063","4.60894","52.36","0","SATNPRO1509","27.97","0.39176","5"],
    [24089,"HCEP03730566","2024-06-05 06:00:00","9.7329","3.20017","26.569","4.941","7.59","0.72","1.975","0.05","0.16","29.0497","4.60683","52.4","0","SATNPRO1509","27.768","0.38896","5"],
    [24090,"HCEP03730566","2024-06-05 06:15:00","9.7437","3.19972","26.316","4.913","7.58","0.883","2.072","0.11","0.24","29.0366","4.60475","52.1","0","SATNPRO1509","27.574","0.38626","5"],
    [24091,"HCEP03730566","2024-06-05 06:30:00","9.7425","3.20012","26.072","4.876","7.58","1.071","2.434","0.08","0.34","29.0417","4.60549","51.71","0","SATNPRO1509","27.528","0.38558","5"],
    [24092,"HCEP03730566","2024-06-05 06:45:00","9.7327","3.20067","25.888","4.845","7.58","1.248","2.709","0.1","0.31","29.0552","4.60758","51.38","0","SATNPRO1509","27.556","0.38596","5"],
    [24093,"HCEP03730566","2024-06-05 07:00:00","9.7248","3.2011","25.553","4.83","7.58","1.52","3.28","0.11","0.37","29.066","4.60924","51.22","0","SATNPRO1509","27.608","0.3867","5"],
    [24094,"HCEP03730566","2024-06-05 07:15:00","9.7253","3.20105","25.3","4.797","7.57","1.629","3.486","0.08","0.28","29.0651","4.6091","50.87","0","SATNPRO1509","27.508","0.38532","5"],
    [24095,"HCEP03730566","2024-06-05 07:30:00","9.7288","3.2009","24.995","4.75","7.57","1.83","3.939","0.4","0.52","29.061","4.60842","50.37","0","SATNPRO1509","27.486","0.38496","5"],
    [24096,"HCEP03730566","2024-06-05 07:45:00","9.7305","3.20088","24.721","4.702","7.56","1.854","3.922","0.07","0.31","29.0595","4.60817","49.86","0","SATNPRO1509","27.306","0.3825","5"],
    [24097,"HCEP03730566","2024-06-05 08:00:00","9.7356","3.20067","24.501","4.641","7.56","2.254","4.527","0.43","0.47","29.0534","4.60719","49.22","0","SATNPRO1509","27.227999999999998","0.38136","5"],
    [24098,"HCEP03730566","2024-06-05 08:15:00","9.741","3.20046","24.257","4.6","7.56","2.291","4.336","0.17","0.51","29.047","4.60617","48.79","0","SATNPRO1509","27.094","0.37952","5"],
    [24099,"HCEP03730566","2024-06-05 08:30:00","9.7458","3.20026","24.1","4.58","7.55","2.459","4.633","0.22","0.4","29.0412","4.60525","48.58","0","SATNPRO1509","27.028","0.37858","5"],
    [24100,"HCEP03730566","2024-06-05 08:45:00","9.7488","3.20017","23.972","4.564","7.55","2.522","4.842","0.18","0.55","29.0379","4.60471","48.41","0","SATNPRO1509","27.022","0.3785","5"],
    [24101,"HCEP03730566","2024-06-05 09:00:00","9.7513","3.20009","23.839","4.538","7.55","2.834","4.684","0.37","0.28","29.0352","4.60428","48.14","0","SATNPRO1509","26.868000000000002","0.37632","5"],
    [24102,"HCEP03730566","2024-06-05 09:15:00","9.7525","3.20006","23.765","4.516","7.54","3.239","5.234","0.28","0.55","29.0339","4.60406","47.91","0","SATNPRO1509","26.892","0.37668","5"],
    [24103,"HCEP03730566","2024-06-05 09:30:00","9.7569","3.19987","23.734","4.509","7.54","3.634","4.705","0.47","0.7","29.0285","4.60323","47.83","0","SATNPRO1509","26.72","0.37426","5"],
    [24104,"HCEP03730566","2024-06-05 09:45:00","9.7571","3.19987","23.78","4.504","7.54","3.464","4.447","0.41","0.35","29.0283","4.60319","47.78","0","SATNPRO1509","26.694","0.37388","5"],
    [24105,"HCEP03730566","2024-06-05 10:00:00","9.7598","3.19976","23.776","4.492","7.54","3.634","4.328","0.8","0.36","29.025","4.60267","47.65","0","SATNPRO1509","26.774","0.37502","5"],
    [24106,"HCEP03730566","2024-06-05 10:15:00","9.7623","3.1997","23.866","4.486","7.54","3.458","4.194","0.31","0.34","29.0224","4.60227","47.59","0","SATNPRO1509","26.772","0.37502","5"],
    [24107,"HCEP03730566","2024-06-05 10:30:00","9.7611","3.19971","23.952","4.48","7.54","3.871","4.501","0.3","0.3","29.0234","4.60243","47.53","0","SATNPRO1509","26.663999999999998","0.3735","5"],
    [24108,"HCEP03730566","2024-06-05 10:45:00","9.7612","3.1997","24.056","4.464","7.54","3.692","4.566","0.27","0.3","29.0231","4.6024","47.35","0","SATNPRO1509","26.564","0.3721","5"],
    [24109,"HCEP03730566","2024-06-05 11:00:00","9.7683","3.19932","24.194","4.443","7.54","4.033","4.277","0.49","0.64","29.0137","4.60092","47.14","0","SATNPRO1509","26.612","0.3727","5"],
    [24110,"HCEP03730566","2024-06-05 11:15:00","9.781","3.19862","24.354","4.446","7.54","3.579","4.665","0.28","0.27","28.9963","4.59823","47.18","0","SATNPRO1509","26.472","0.37074","5"],
    [24111,"HCEP03730566","2024-06-05 11:30:00","9.7893","3.19818","24.523","4.453","7.54","3.789","4.395","0.34","0.31","28.9851","4.5965","47.26","0","SATNPRO1509","26.276","0.36806","5"],
    [24112,"HCEP03730566","2024-06-05 11:45:00","9.7879","3.19812","24.711","4.443","7.54","4.339","5.156","0.39","0.94","28.9856","4.59661","47.16","0","SATNPRO1509","26.218","0.36722","5"],
    [24113,"HCEP03730566","2024-06-05 12:00:00","9.7983","3.19777","24.897","4.437","7.54","3.978","4.57","0.4","0.48","28.9736","4.59472","47.09","0","SATNPRO1509","26.142","0.36618","5"],
    [24114,"HCEP03730566","2024-06-05 12:15:00","9.8024","3.19755","25.054","4.444","7.53","3.976","4.47","0.82","0.24","28.968","4.59386","47.18","0","SATNPRO1509","26.26","0.3678","5"],
    [24115,"HCEP03730566","2024-06-05 12:30:00","9.8039","3.19721","25.245","4.465","7.54","3.565","4.389","0.31","0.34","28.9634","4.59319","47.39","0","SATNPRO1509","26.246","0.36764","5"],
    [24116,"HCEP03730566","2024-06-05 12:45:00","9.8179","3.19668","25.432","4.488","7.54","3.485","4.117","0.28","0.26","28.9467","4.59056","47.65","0","SATNPRO1509","26.226","0.36732","5"],
    [24117,"HCEP03730566","2024-06-05 13:00:00","9.8245","3.19614","25.643","4.494","7.54","3.27","4.023","0.2","0.34","28.936","4.58893","47.72","0","SATNPRO1509","26.232","0.36744","5"],
    [24118,"HCEP03730566","2024-06-05 13:15:00","9.8258","3.19606","25.863","4.494","7.54","3.466","4.656","0.32","0.44","28.934","4.58863","47.72","0","SATNPRO1509","26.125999999999998","0.36596","5"],
    [24119,"HCEP03730566","2024-06-05 13:30:00","9.8376","3.19538","26.102","4.476","7.54","3.786","4.446","0.63","0.5","28.9177","4.58611","47.53","0","SATNPRO1509","25.976","0.36388","5"],
    [24120,"HCEP03730566","2024-06-05 13:45:00","9.8447","3.19498","26.362","4.471","7.54","3.851","4.802","0.55","0.35","28.908","4.58461","47.49","0","SATNPRO1509","25.688","0.35982","5"],
    [24121,"HCEP03730566","2024-06-05 14:00:00","9.8387","3.19528","26.602","4.454","7.54","3.656","4.967","0.17","0.41","28.9156","4.58581","47.3","0","SATNPRO1509","25.846","0.36204","5"],
    [24122,"HCEP03730566","2024-06-05 14:15:00","9.8363","3.19548","26.83","4.446","7.54","3.702","4.18","0.34","0.4","28.9194","4.58642","47.22","0","SATNPRO1509","25.974","0.36378","5"],
    [24123,"HCEP03730566","2024-06-05 14:30:00","9.829","3.19587","27.019","4.448","7.54","3.66","4.674","0.32","0.42","28.9291","4.58794","47.23","0","SATNPRO1509","25.852","0.36208","5"],
    [24124,"HCEP03730566","2024-06-05 14:45:00","9.8249","3.19601","27.214","4.445","7.54","3.755","4.986","0.32","0.32","28.9337","4.58868","47.2","0","SATNPRO1509","25.878","0.36244","5"],
    [24125,"HCEP03730566","2024-06-05 15:00:00","9.8296","3.19575","27.388","4.445","7.54","3.486","4.83","0.24","0.49","28.9274","4.5877","47.2","0","SATNPRO1509","25.99","0.36408","5"],
    [24126,"HCEP03730566","2024-06-05 15:15:00","9.8329","3.1956","27.528","4.459","7.54","3.361","4.311","0.56","0.42","28.923","4.58703","47.35","0","SATNPRO1509","25.986","0.36404","5"],
    [24127,"HCEP03730566","2024-06-05 15:30:00","9.8321","3.19561","27.681","4.466","7.54","3.246","4.371","0.23","0.46","28.9238","4.58717","47.42","0","SATNPRO1509","26.032","0.36462","5"],
    [24128,"HCEP03730566","2024-06-05 15:45:00","9.8242","3.196","27.804","4.453","7.54","3.649","5.015","0.44","0.82","28.934","4.58876","47.29","0","SATNPRO1509","26.055999999999997","0.36496","5"],
    [24129,"HCEP03730566","2024-06-05 16:00:00","9.8183","3.19637","27.898","4.433","7.54","3.362","4.576","0.26","0.37","28.9424","4.59007","47.06","0","SATNPRO1509","26.09","0.36538","5"],
    [24130,"HCEP03730566","2024-06-05 16:15:00","9.8093","3.19698","27.938","4.426","7.54","3.385","4.759","0.19","0.31","28.9556","4.59213","46.99","0","SATNPRO1509","26.198","0.36696","5"],
    [24131,"HCEP03730566","2024-06-05 16:30:00","9.7872","3.1985","27.866","4.402","7.53","3.904","4.886","0.38","0.34","28.9887","4.59723","46.72","0","SATNPRO1509","26.298","0.36832","5"],
    [24132,"HCEP03730566","2024-06-05 16:45:00","9.7971","3.19763","27.864","4.401","7.53","3.405","3.602","0.27","0.29","28.9721","4.59468","46.71","0","SATNPRO1509","26.306","0.36846","5"],
    [24133,"HCEP03730566","2024-06-05 17:00:00","9.8159","3.19636","27.973","4.474","7.54","4.807","5.178","0.37","0.27","28.9441","4.59037","47.5","0","SATNPRO1509","26.286","0.3682","5"],
    [24134,"HCEP03730566","2024-06-05 17:15:00","9.8053","3.19675","28.027","4.523","7.54","5.924","5.662","0.32","0.3","28.9565","4.59233","48.01","0","SATNPRO1509","26.364","0.36928","5"],
    [24135,"HCEP03730566","2024-06-05 17:30:00","9.8113","3.19625","27.9","4.582","7.55","4.743","5.214","0.27","0.35","28.9467","4.59081","48.64","0","SATNPRO1509","26.482","0.37092","5"],
    [24136,"HCEP03730566","2024-06-05 17:45:00","9.8042","3.19654","27.896","4.62","7.55","4.442","5.204","0.27","0.4","28.9554","4.59217","49.04","0","SATNPRO1509","26.598","0.37254","5"],
    [24137,"HCEP03730566","2024-06-05 18:00:00","9.7964","3.19691","27.846","4.665","7.56","4.136","5.442","0.24","0.24","28.9653","4.59373","49.52","0","SATNPRO1509","26.784","0.37518","5"],
    [24138,"HCEP03730566","2024-06-05 18:15:00","9.7845","3.19765","27.828","4.747","7.56","3.748","5.143","0.25","0.33","28.9824","4.59637","50.37","0","SATNPRO1509","27.004","0.37824","5"],
    [24139,"HCEP03730566","2024-06-05 18:30:00","9.775","3.19822","27.741","4.761","7.57","3.391","4.44","0.25","0.31","28.9957","4.59845","50.52","0","SATNPRO1509","27.196","0.38094","5"],
    [24140,"HCEP03730566","2024-06-05 18:45:00","9.7696","3.19847","27.649","4.781","7.57","3.142","4.401","0.18","0.3","29.0027","4.59953","50.73","0","SATNPRO1509","27.222","0.38128","5"],
    [24141,"HCEP03730566","2024-06-05 19:00:00","9.7672","3.19862","27.615","4.801","7.57","2.998","4.161","0.17","0.27","29.0061","4.60006","50.94","0","SATNPRO1509","27.19","0.3808","5"],
    [24142,"HCEP03730566","2024-06-05 19:15:00","9.8283","3.19561","27.532","4.687","7.57","2.501","3.362","0.22","0.33","28.9268","4.58766","49.76","0","SATNPRO1509","26.53","0.3716","5"],
    [24143,"HCEP03730566","2024-06-05 19:30:00","9.7625","3.19895","27.492","4.811","7.57","2.873","4.681","0.17","0.23","29.0133","4.60116","51.04","0","SATNPRO1509","27.508","0.38532","5"],
    [24144,"HCEP03730566","2024-06-05 19:45:00","9.7583","3.19912","27.404","4.823","7.58","2.947","4.749","0.13","0.2","29.0184","4.60196","51.17","0","SATNPRO1509","27.392","0.38364","5"],
    [24145,"HCEP03730566","2024-06-05 20:00:01","9.7553","3.19929","27.324","4.829","7.58","2.871","4.686","0.14","0.24","29.0225","4.60259","51.22","0","NA",null,null,null],
    [24146,"HCEP03730566","2024-06-05 20:15:00","9.7585","3.19918","27.259","4.832","7.58","3.127","5.032","0.6","0.17","29.0188","4.602","51.26","0","SATNPRO1509","27.406","0.38386","5"],
    [24147,"HCEP03730566","2024-06-05 20:30:00","9.7605","3.1991","27.182","4.834","7.58","3.072","6.382","0.26","0.17","29.0165","4.60164","51.29","0","SATNPRO1509","27.392","0.38368","5"],
    [24148,"HCEP03730566","2024-06-05 20:45:00","9.7577","3.1991","27.103","4.851","7.58","2.955","10.066","0.15","0.19","29.0188","4.602","51.46","0","SATNPRO1509","27.672","0.3876","5"],
    [24149,"HCEP03730566","2024-06-05 21:00:00","9.7824","3.19803","27.031","4.862","7.58","2.454","13.949","0.17","0.2","28.9882","4.5972","51.6","0","SATNPRO1509","26.98","0.3779","5"],
    [24150,"HCEP03730566","2024-06-05 21:15:00","9.7885","3.19735","26.96","4.856","7.57","2.696","19.657","0.24","0.1","28.9765","4.59541","51.53","0","SATNPRO1509","27.25","0.3817","5"],
    [24151,"HCEP03730566","2024-06-05 21:30:00","9.7411","3.20008","26.878","4.896","7.58","3.09","26.005","0.22","0.08","29.0421","4.60562","51.93","0","SATNPRO1509","27.908","0.3909","5"],
    [24152,"HCEP03730566","2024-06-05 21:45:00","9.7367","3.20032","26.826","4.911","7.58","3.101","31.923","0.34","0.11","29.0481","4.60654","52.09","0","SATNPRO1509","27.972","0.3918","5"],
    [24153,"HCEP03730566","2024-06-05 22:00:00","9.7255","3.20086","26.797","4.926","7.59","3.149","35.82","0.22","0.1","29.0625","4.60881","52.23","0","SATNPRO1509","27.956","0.39158","5"],
    [24154,"HCEP03730566","2024-06-05 22:15:00","9.7246","3.20093","26.782","4.93","7.59","3.201","37.57","0.15","0.12","29.0639","4.60902","52.28","0","SATNPRO1509","28.028000000000002","0.39258","5"],
    [24155,"HCEP03730566","2024-06-05 22:30:00","9.7212","3.20108","26.782","4.924","7.59","3.014","37.457","0.4","0.29","29.0682","4.60969","52.21","0","SATNPRO1509","28.058","0.393","5"],
    [24156,"HCEP03730566","2024-06-05 22:45:00","9.717","3.20141","26.788","4.914","7.59","3.026","35.551","0.28","0.13","29.0749","4.61073","52.1","0","SATNPRO1509","28.12","0.39386","5"],
    [24157,"HCEP03730566","2024-06-05 23:00:00","9.7077","3.20194","26.818","4.947","7.59","2.555","32.806","0.16","0.17","29.0878","4.61273","52.45","0","SATNPRO1509","28.152","0.39436","5"],
    [24158,"HCEP03730566","2024-06-05 23:15:00","9.7032","3.20217","26.866","4.97","7.59","2.629","32.635","0.1","0.28","29.0936","4.61365","52.69","0","SATNPRO1509","28.304","0.39646","5"],
    [24159,"HCEP03730566","2024-06-05 23:30:00","9.6927","3.20278","26.92","5.049","7.59","2.497","33.791","0.18","1.25","29.1083","4.61594","53.51","0","SATNPRO1509","28.62","0.40092","5"],
    [24160,"HCEP03730566","2024-06-05 23:45:00","9.687","3.20315","26.978","5.118","7.6","2.232","34.903","0.17","0.18","29.1166","4.61723","54.25","0","SATNPRO1509","28.86","0.40424","5"],
    [24161,"HCEP03730566","2024-06-06 00:00:00","9.6853","3.20326","27.039","5.178","7.61","2.357","37.951","0.18","0.27","29.119","4.6176","54.88","0","SATNPRO1509","28.814","0.40358","5"],
    [24162,"HCEP03730566","2024-06-06 00:15:00","9.6859","3.20317","27.099","5.184","7.61","2.264","41.547","0.18","0.32","29.1176","4.6174","54.94","0","SATNPRO1509","28.746","0.40264","5"],
    [24163,"HCEP03730566","2024-06-06 00:30:00","9.6878","3.20308","27.163","5.206","7.61","2.283","43.062","0.16","0.23","29.1151","4.61701","55.17","0","SATNPRO1509","28.906","0.4049","5"],
    [24164,"HCEP03730566","2024-06-06 00:45:00","9.6901","3.20304","27.227","5.204","7.61","2.338","42.413","0.22","0.28","29.1128","4.61665","55.15","0","SATNPRO1509","28.71","0.40216","5"],
    [24165,"HCEP03730566","2024-06-06 01:00:00","9.6913","3.20292","27.31","5.202","7.61","2.382","43.709","0.22","0.2","29.1107","4.61632","55.14","0","SATNPRO1509","28.846","0.40398","5"],
    [24166,"HCEP03730566","2024-06-06 01:15:00","9.6928","3.20285","27.397","5.196","7.61","2.231","45.27","0.19","0.32","29.1087","4.61602","55.07","0","SATNPRO1509","28.692","0.40188","5"],
    [24167,"HCEP03730566","2024-06-06 01:30:00","9.6933","3.20284","27.463","5.195","7.61","2.294","41.785","0.22","0.35","29.1082","4.61594","55.07","0","SATNPRO1509","28.824","0.40372","5"],
    [24168,"HCEP03730566","2024-06-06 01:45:00","9.693","3.20285","27.537","5.195","7.61","2.229","37.088","0.15","0.43","29.1085","4.61599","55.06","0","SATNPRO1509","28.748","0.40266","5"],
    [24169,"HCEP03730566","2024-06-06 02:00:00","9.6921","3.20294","27.584","5.196","7.62","2.14","29.646","0.11","0.25","29.1101","4.61624","55.08","0","SATNPRO1509","28.806","0.4035","5"],
    [24170,"HCEP03730566","2024-06-06 02:15:00","9.6912","3.20303","27.642","5.183","7.62","2.366","19.772","0.17","0.42","29.1117","4.61649","54.93","0","SATNPRO1509","28.686","0.4018","5"],
    [24171,"HCEP03730566","2024-06-06 02:30:00","9.6884","3.20314","27.69","5.184","7.61","2.446","29.819","0.19","0.44","29.115","4.61702","54.94","0","SATNPRO1509","28.674","0.40164","5"],
    [24172,"HCEP03730566","2024-06-06 02:45:00","9.686","3.20332","27.745","5.19","7.61","2.638","42.719","0.24","0.38","29.1188","4.6176","55.01","0","SATNPRO1509","28.802","0.40342","5"],
    [24173,"HCEP03730566","2024-06-06 03:00:00","9.684","3.20353","27.773","5.189","7.61","2.577","41.175","0.21","0.32","29.1225","4.61817","54.99","0","SATNPRO1509","28.896","0.40476","5"],
    [24174,"HCEP03730566","2024-06-06 03:15:00","9.6838","3.2036","27.825","5.185","7.61","2.698","36.93","0.25","1.21","29.1234","4.6183","54.95","0","SATNPRO1509","28.902","0.40482","5"],
    [24175,"HCEP03730566","2024-06-06 03:30:00","9.6783","3.20396","27.864","5.171","7.61","2.692","33.421","0.21","0.35","29.1313","4.61954","54.8","0","SATNPRO1509","28.784","0.40318","5"],
    [24176,"HCEP03730566","2024-06-06 03:45:00","9.675","3.20427","27.866","5.178","7.61","2.88","30.554","0.33","0.21","29.1372","4.62044","54.87","0","SATNPRO1509","28.830000000000002","0.4038","5"],
    [24177,"HCEP03730566","2024-06-06 04:00:00","9.6705","3.20452","27.826","5.193","7.61","2.69","28.378","0.26","0.22","29.1433","4.62139","55.03","0","SATNPRO1509","28.928","0.40514","5"],
    [24178,"HCEP03730566","2024-06-06 04:15:00","9.6699","3.20453","27.782","5.204","7.61","2.649","27.383","0.22","0.2","29.144","4.62149","55.14","0","SATNPRO1509","29.04","0.40674","5"],
    [24179,"HCEP03730566","2024-06-06 04:30:00","9.669","3.20467","27.71","5.201","7.61","2.707","27.846","0.19","0.26","29.1461","4.62181","55.11","0","SATNPRO1509","29.041999999999998","0.40678","5"],
    [24180,"HCEP03730566","2024-06-06 04:45:00","9.6685","3.20469","27.618","5.199","7.61","2.64","29.215","0.49","0.38","29.1468","4.62191","55.08","0","SATNPRO1509","29.088","0.40744","5"],
    [24181,"HCEP03730566","2024-06-06 05:00:00","9.6693","3.20462","27.517","5.198","7.61","2.569","30.462","0.66","0.5","29.1454","4.62169","55.08","0","SATNPRO1509","29.074","0.40724","5"],
    [24182,"HCEP03730566","2024-06-06 05:15:00","9.6548","3.20593","27.391","5.174","7.61","2.759","31.94","0.33","0.46","29.1705","4.62553","54.82","0","SATNPRO1509","29.192","0.40884","5"],
    [24183,"HCEP03730566","2024-06-06 05:30:00","9.6416","3.20679","27.234","5.152","7.61","2.392","30.448","0.17","0.32","29.1899","4.62852","54.57","0","SATNPRO1509","29.246","0.40964","5"],
    [24184,"HCEP03730566","2024-06-06 05:45:00","9.6382","3.20691","27.082","5.139","7.6","2.169","28.198","0.15","0.25","29.1939","4.62916","54.43","0","SATNPRO1509","29.284","0.4102","5"],
    [24185,"HCEP03730566","2024-06-06 06:00:00","9.6359","3.20705","26.919","5.149","7.6","2.074","27.09","0.16","0.29","29.1972","4.62966","54.54","0","SATNPRO1509","29.37","0.4114","5"],
    [24186,"HCEP03730566","2024-06-06 06:15:00","9.6404","3.20674","26.725","5.135","7.6","2.196","28.564","0.19","0.32","29.1906","4.62862","54.39","0","SATNPRO1509","29.328","0.41078","5"],
    [24187,"HCEP03730566","2024-06-06 06:30:00","9.6464","3.20632","26.518","5.122","7.6","2.343","28.232","0.11","0.21","29.1815","4.62721","54.26","0","SATNPRO1509","29.05","0.4069","5"],
    [24188,"HCEP03730566","2024-06-06 06:45:00","9.6631","3.20493","26.288","5.101","7.6","2.514","26.069","0.13","0.35","29.154","4.62296","54.05","0","SATNPRO1509","28.844","0.40398","5"],
    [24189,"HCEP03730566","2024-06-06 07:00:00","9.6592","3.2051","26.049","5.1","7.6","2.28","21.273","0.13","0.29","29.1591","4.62374","54.03","0","SATNPRO1509","29.038","0.40672","5"],
    [24190,"HCEP03730566","2024-06-06 07:15:00","9.6588","3.20509","25.822","5.123","7.6","2.413","16.157","0.17","0.27","29.159300000000002","4.62377","54.27","0","SATNPRO1509","29.098","0.40754","5"],
    [24191,"HCEP03730566","2024-06-06 07:30:00","9.6599","3.20502","25.568","5.131","7.6","2.17","9.684","0.1","0.23","29.1579","4.62353","54.36","0","SATNPRO1509","29.054","0.40696","5"],
    [24192,"HCEP03730566","2024-06-06 07:45:00","9.6611","3.20502","25.272","5.142","7.6","2.115","6.587","0.15","0.53","29.1569","4.62336","54.48","0","SATNPRO1509","29.16","0.40848","5"],
    [24193,"HCEP03730566","2024-06-06 08:00:00","9.6636","3.20493","25.036","5.139","7.6","1.992","4.568","0.14","0.24","29.1542","4.62291","54.45","0","SATNPRO1509","29.074","0.40724","5"],
    [24194,"HCEP03730566","2024-06-06 08:15:00","9.6664","3.20474","24.791","5.131","7.6","2.143","3.998","0.18","0.21","29.15","4.62225","54.36","0","SATNPRO1509","28.894000000000002","0.4047","5"],
    [24195,"HCEP03730566","2024-06-06 08:30:00","9.6697","3.20458","24.523","5.119","7.6","2.113","3.605","0.24","0.27","29.146","4.62159","54.25","0","SATNPRO1509","28.96","0.40566","5"],
    [24196,"HCEP03730566","2024-06-06 08:45:00","9.6705","3.20456","24.271","5.092","7.6","2.307","3.68","0.26","0.33","29.1452","4.62146","53.96","0","SATNPRO1509","28.881999999999998","0.40454","5"],
    [24197,"HCEP03730566","2024-06-06 09:00:00","9.67","3.20473","24.079","5.062","7.6","2.45","3.695","0.2","0.47","29.1473","4.62176","53.64","0","SATNPRO1509","28.876","0.40446","5"],
    [24198,"HCEP03730566","2024-06-06 09:15:00","9.6705","3.20469","23.907","5.031","7.6","2.444","3.562","0.18","0.39","29.1466","4.62164","53.31","0","SATNPRO1509","28.754","0.40274","5"],
    [24199,"HCEP03730566","2024-06-06 09:30:00","9.6723","3.20462","23.818","5.018","7.59","2.646","3.71","0.19","0.4","29.1445","4.62129","53.17","0","SATNPRO1509","28.642","0.4012","5"],
    [24200,"HCEP03730566","2024-06-06 09:45:00","9.679","3.20412","23.738","5.015","7.59","2.548","3.746","0.22","1.81","29.1341","4.61969","53.15","0","SATNPRO1509","28.738","0.40252","5"],
    [24201,"HCEP03730566","2024-06-06 10:00:00","9.6822","3.20393","23.618","5.009","7.59","2.804","3.538","0.23","0.32","29.1296","4.61899","53.08","0","SATNPRO1509","28.61","0.40072","5"],
    [24202,"HCEP03730566","2024-06-06 10:15:00","9.6893","3.20348","23.554","4.987","7.59","3.022","3.982","0.21","0.66","29.1194","4.6174","52.86","0","SATNPRO1509","28.518","0.39946","5"],
    [24203,"HCEP03730566","2024-06-06 10:30:00","9.6903","3.20348","23.64","4.968","7.59","3.126","4.01","0.3","0.65","29.1185","4.61725","52.65","0","SATNPRO1509","28.492","0.39906","5"],
    [24204,"HCEP03730566","2024-06-06 10:45:00","9.686","3.20377","23.644","4.955","7.59","3.453","4.632","0.38","0.5","29.1249","4.61824","52.52","0","SATNPRO1509","28.442","0.39838","5"],
    [24205,"HCEP03730566","2024-06-06 11:00:00","9.6846","3.20388","23.752","4.943","7.59","3.341","3.956","0.15","0.28","29.1271","4.61859","52.39","0","SATNPRO1509","28.386","0.39758","5"],
    [24206,"HCEP03730566","2024-06-06 11:15:00","9.6882","3.20379","23.84","4.908","7.59","3.774","4.319","0.23","0.16","29.1232","4.61797","52.01","0","SATNPRO1509","28.294","0.3963","5"],
    [24207,"HCEP03730566","2024-06-06 11:30:00","9.6905","3.20368","23.964","4.866","7.59","3.934","4.537","0.21","0.19","29.1202","4.61752","51.57","0","SATNPRO1509","28.256","0.39578","5"],
    [24208,"HCEP03730566","2024-06-06 11:45:00","9.6918","3.20361","24.126","4.853","7.59","3.781","4.334","0.14","0.2","29.1184","4.61725","51.44","0","SATNPRO1509","28.19","0.39488","5"],
    [24209,"HCEP03730566","2024-06-06 12:00:00","9.6975","3.20329","24.259","4.844","7.59","3.729","4.335","0.23","0.21","29.1105","4.61601","51.35","0","SATNPRO1509","28.105999999999998","0.39366","5"],
    [24210,"HCEP03730566","2024-06-06 12:15:00","9.7008","3.20314","24.455","4.83","7.58","3.559","4.396","0.16","0.26","29.1063","4.61537","51.2","0","SATNPRO1509","27.972","0.39182","5"],
    [24211,"HCEP03730566","2024-06-06 12:30:00","9.7041","3.20301","24.664","4.818","7.58","3.457","4.67","0.15","0.32","29.1023","4.61475","51.08","0","SATNPRO1509","28.080000000000002","0.39328","5"],
    [24212,"HCEP03730566","2024-06-06 12:45:00","9.7088","3.20285","24.862","4.81","7.58","3.523","4.16","0.31","0.18","29.096800000000002","4.61389","51","0","SATNPRO1509","27.96","0.39162","5"],
    [24213,"HCEP03730566","2024-06-06 13:00:00","9.7105","3.20279","25.038","4.812","7.58","3.276","4.398","0.18","0.22","29.0947","4.61358","51.02","0","SATNPRO1509","28.008","0.3923","5"],
    [24214,"HCEP03730566","2024-06-06 13:15:00","9.7126","3.2027","25.241","4.794","7.58","3.351","4.392","0.22","0.18","29.092","4.61317","50.83","0","SATNPRO1509","27.792","0.38924","5"],
    [24215,"HCEP03730566","2024-06-06 13:30:00","9.713","3.20273","25.45","4.782","7.58","3.298","4.303","0.17","0.14","29.0919","4.61315","50.71","0","SATNPRO1509","27.8","0.38936","5"],
    [24216,"HCEP03730566","2024-06-06 13:45:00","9.7141","3.20269","25.693","4.768","7.58","3.328","4.436","0.19","0.16","29.0905","4.61295","50.55","0","SATNPRO1509","27.848","0.39004","5"],
    [24217,"HCEP03730566","2024-06-06 14:00:00","9.7173","3.20253","25.898","4.765","7.58","3.269","4.068","0.35","0.21","29.0862","4.61229","50.52","0","SATNPRO1509","27.844","0.39002","5"],
    [24218,"HCEP03730566","2024-06-06 14:15:00","9.7207","3.20234","26.149","4.764","7.58","3.082","4.175","0.14","0.11","29.0815","4.61157","50.52","0","SATNPRO1509","27.77","0.38898","5"],
    [24219,"HCEP03730566","2024-06-06 14:30:00","9.7226","3.20228","26.35","4.769","7.58","3.116","4.125","0.2","0.18","29.0793","4.61124","50.57","0","SATNPRO1509","27.8","0.38938","5"],
    [24220,"HCEP03730566","2024-06-06 14:45:00","9.7229","3.20228","26.639","4.765","7.58","3.103","4.014","0.17","0.12","29.0789","4.61119","50.52","0","SATNPRO1509","27.832","0.38984","5"],
    [24221,"HCEP03730566","2024-06-06 15:00:00","9.7231","3.20226","26.836","4.759","7.58","3.057","3.8","0.19","0.11","29.0785","4.61113","50.46","0","SATNPRO1509","27.862000000000002","0.39024","5"],
    [24222,"HCEP03730566","2024-06-06 15:15:00","9.7247","3.20223","27.06","4.754","7.58","3.161","3.738","0.16","0.24","29.0768","4.61088","50.42","0","SATNPRO1509","27.768","0.38896","5"],
    [24223,"HCEP03730566","2024-06-06 15:30:00","9.7291","3.20206","27.248","4.756","7.57","3.111","3.228","0.22","0.13","29.0715","4.61005","50.44","0","SATNPRO1509","27.75","0.38866","5"],
    [24224,"HCEP03730566","2024-06-06 15:45:00","9.7318","3.20191","27.428","4.763","7.57","2.995","2.952","0.15","0.13","29.0677","4.60948","50.51","0","SATNPRO1509","27.782","0.38914","5"],
    [24225,"HCEP03730566","2024-06-06 16:00:00","9.7337","3.2019","27.572","4.757","7.57","3.219","3.402","0.2","0.18","29.066","4.60921","50.45","0","SATNPRO1509","27.674","0.38764","5"],
    [24226,"HCEP03730566","2024-06-06 16:15:00","9.7308","3.20204","27.709","4.746","7.57","3.306","3.914","0.18","0.19","29.0697","4.6098","50.33","0","SATNPRO1509","27.648","0.38726","5"],
    [24227,"HCEP03730566","2024-06-06 16:30:00","9.7329","3.2019","27.838","4.736","7.57","3.54","3.551","0.36","0.27","29.0665","4.60931","50.23","0","SATNPRO1509","27.68","0.3877","5"],
    [24228,"HCEP03730566","2024-06-06 16:45:00","9.7271","3.20213","27.94","4.738","7.57","3.113","3.152","0.14","0.18","29.0735","4.61042","50.24","0","SATNPRO1509","27.716","0.38822","5"],
    [24229,"HCEP03730566","2024-06-06 17:00:00","9.7285","3.20211","27.999","4.739","7.57","3.197","3.198","0.27","0.28","29.0722","4.61021","50.26","0","SATNPRO1509","27.834","0.38986","5"],
    [24230,"HCEP03730566","2024-06-06 17:15:00","9.7231","3.20234","28.091","4.75","7.57","2.869","3.129","0.17","0.17","29.0787","4.61125","50.37","0","SATNPRO1509","27.738","0.3885","5"],
    [24231,"HCEP03730566","2024-06-06 17:30:00","9.7258","3.20218","28.088","4.705","7.57","3.686","5.521","0.14","0.34","29.075","4.61066","49.89","0","SATNPRO1509","27.727999999999998","0.38838","5"],
    [24232,"HCEP03730566","2024-06-06 17:45:00","9.7506","3.20084","27.939","4.729","7.57","3.652","4.186","0.21","0.24","29.0416","4.60544","50.17","0","SATNPRO1509","27.594","0.38648","5"],
    [24233,"HCEP03730566","2024-06-06 18:00:00","9.7538","3.20056","27.96","4.772","7.58","3.703","4.271","0.18","0.17","29.0363","4.60463","50.63","0","SATNPRO1509","27.546","0.38584","5"],
    [24234,"HCEP03730566","2024-06-06 18:15:00","9.7528","3.20062","27.99","4.768","7.58","3.652","4.224","0.19","0.11","29.0376","4.60484","50.58","0","SATNPRO1509","27.506","0.38528","5"],
    [24235,"HCEP03730566","2024-06-06 18:30:00","9.7427","3.20118","27.924","4.744","7.58","3.944","4.973","0.27","0.15","29.0514","4.60698","50.32","0","SATNPRO1509","27.54","0.38574","5"],
    [24236,"HCEP03730566","2024-06-06 18:45:00","9.7415","3.2012","27.917","4.733","7.58","3.854","4.186","0.22","0.12","29.0525","4.60717","50.2","0","SATNPRO1509","27.567999999999998","0.3861","5"],
    [24237,"HCEP03730566","2024-06-06 19:00:00","9.727","3.20216","27.851","4.678","7.57","3.946","5.443","0.17","0.28","29.0739","4.61047","49.61","0","SATNPRO1509","27.544","0.3858","5"],
    [24238,"HCEP03730566","2024-06-06 19:15:00","9.718","3.20253","27.858","4.647","7.57","4.027","5.745","0.21","0.42","29.0848","4.61219","49.27","0","SATNPRO1509","27.62","0.38686","5"],
    [24239,"HCEP03730566","2024-06-06 19:30:00","9.7131","3.20277","27.794","4.678","7.57","3.453","4.201","0.21","0.17","29.0912","4.61319","49.59","0","SATNPRO1509","27.796","0.38932","5"],
    [24240,"HCEP03730566","2024-06-06 19:45:00","9.7122","3.20282","27.736","4.688","7.57","3.181","4.095","0.19","0.23","29.0925","4.61339","49.7","0","SATNPRO1509","27.86","0.39024","5"],
    [24241,"HCEP03730566","2024-06-06 20:00:00","9.718","3.20219","27.66","4.751","7.57","3.089","3.649","0.21","0.21","29.0816","4.61172","50.37","0","SATNPRO1509","27.88","0.3905","5"],
    [24242,"HCEP03730566","2024-06-06 20:15:00","9.7148","3.20276","27.606","4.757","7.57","2.817","4.077","0.11","0.12","29.0899","4.61295","50.44","0","SATNPRO1509","27.788","0.38924","5"],
    [24243,"HCEP03730566","2024-06-06 20:30:00","9.7166","3.20263","27.506","4.731","7.57","2.58","4.488","0.1","0.17","29.0872","4.61254","50.16","0","SATNPRO1509","27.733999999999998","0.38844","5"],
    [24244,"HCEP03730566","2024-06-06 20:45:00","9.7214","3.20223","27.443","4.718","7.57","2.272","4.434","0.09","0.11","29.0793","4.61132","50.03","0","SATNPRO1509","27.756","0.38876","5"],
    [24245,"HCEP03730566","2024-06-06 21:00:00","9.7183","3.20244","27.359","4.698","7.57","2.021","5.532","0.07","0.17","29.084","4.61204","49.82","0","SATNPRO1509","27.686","0.38778","5"],
    [24246,"HCEP03730566","2024-06-06 21:15:00","9.7181","3.20241","27.292","4.677","7.57","1.663","5.663","0.05","0.12","29.0838","4.61202","49.59","0","SATNPRO1509","27.644","0.38718","5"],
    [24247,"HCEP03730566","2024-06-06 21:30:00","9.7195","3.20233","27.2","4.671","7.57","1.331","5.913","0.03","0.16","29.0819","4.61171","49.53","0","SATNPRO1509","27.764","0.38892","5"],
    [24248,"HCEP03730566","2024-06-06 21:45:00","9.7211","3.20219","27.142","4.687","7.57","1.06","5.561","0.02","0.12","29.0793","4.6113","49.7","0","SATNPRO1509","27.71","0.38812","5"],
    [24249,"HCEP03730566","2024-06-06 22:00:00","9.7197","3.20222","27.051","4.694","7.57","0.843","5.983","0.02","0.17","29.0808","4.61154","49.77","0","SATNPRO1509","27.726","0.38834","5"],
    [24250,"HCEP03730566","2024-06-06 22:15:00","9.7197","3.20221","26.953","4.697","7.57","0.651","6.737","0.01","0.14","29.0806","4.61151","49.8","0","SATNPRO1509","27.684","0.38774","5"],
    [24251,"HCEP03730566","2024-06-06 22:30:00","9.7182","3.20227","26.897","4.698","7.57","0.51","9.641","0.01","0.21","29.0825","4.6118","49.81","0","SATNPRO1509","27.728","0.3884","5"],
    [24252,"HCEP03730566","2024-06-06 22:45:00","9.72","3.20212","26.839","4.724","7.57","0.389","15.224","0.01","0.38","29.0796","4.61135","50.09","0","SATNPRO1509","27.733999999999998","0.38842","5"],
    [24253,"HCEP03730566","2024-06-06 23:00:00","9.7161","3.20233","26.798","4.752","7.57","0.318","26.368","0.01","0.4","29.0848","4.61216","50.39","0","SATNPRO1509","27.958","0.39156","5"],
    [24254,"HCEP03730566","2024-06-06 23:15:00","9.7147","3.20234","26.771","4.797","7.57","0.293","44.623","0.02","0.47","29.0861","4.61237","50.86","0","SATNPRO1509","28.018","0.39242","5"],
    [24255,"HCEP03730566","2024-06-06 23:30:00","9.7144","3.20229","26.765","4.831","7.58","0.344","73.826","0.03","0.4","29.0859","4.61234","51.22","0","SATNPRO1509","28.154","0.39434","5"],
    [24256,"HCEP03730566","2024-06-06 23:45:00","9.7116","3.20258","26.779","4.835","7.58","0.437","115.561","0.02","0.29","29.0909","4.61312","51.26","0","SATNPRO1509","28.164","0.39446","5"],
    [24257,"HCEP03730566","2024-06-07 00:00:00","9.7092","3.20266","26.801","4.82","7.58","0.638","162.281","0.07","0.24","29.0937","4.61356","51.1","0","SATNPRO1509","28.098","0.39356","5"],
    [24258,"HCEP03730566","2024-06-07 00:15:00","9.706","3.20284","26.848","4.82","7.58","0.814","204.075","0.04","0.36","29.0981","4.61425","51.1","0","SATNPRO1509","27.974","0.39186","5"],
    [24259,"HCEP03730566","2024-06-07 00:30:00","9.7036","3.203","26.902","4.801","7.58","1.1","227.997","0.07","0.59","29.1016","4.61479","50.89","0","SATNPRO1509","28.104","0.39366","5"],
    [24260,"HCEP03730566","2024-06-07 00:45:00","9.6996","3.20319","26.948","4.794","7.58","1.361","234.718","0.11","0.31","29.1068","4.61561","50.81","0","SATNPRO1509","28.094","0.3935","5"],
    [24261,"HCEP03730566","2024-06-07 01:00:00","9.6972","3.20332","27.028","4.786","7.58","1.505","228.904","0.12","0.21","29.11","4.6161","50.74","0","SATNPRO1509","28.136","0.39408","5"],
    [24262,"HCEP03730566","2024-06-07 01:15:00","9.6958","3.20342","27.085","4.783","7.58","1.676","209.907","0.17","0.24","29.112","4.61643","50.7","0","SATNPRO1509","28.068","0.39312","5"],
    [24263,"HCEP03730566","2024-06-07 01:30:00","9.6946","3.20353","27.143","4.778","7.58","1.629","185.883","0.12","0.4","29.1142","4.61676","50.64","0","SATNPRO1509","28.132","0.39404","5"],
    [24264,"HCEP03730566","2024-06-07 01:45:00","9.6922","3.20367","27.199","4.78","7.57","1.651","161.858","0.11","0.42","29.1174","4.61727","50.67","0","SATNPRO1509","28.18","0.3947","5"],
    [24265,"HCEP03730566","2024-06-07 02:00:00","9.6893","3.20382","27.261","4.783","7.57","1.564","124.739","0.09","0.13","29.1213","4.61788","50.7","0","SATNPRO1509","28.195999999999998","0.39494","5"],
    [24266,"HCEP03730566","2024-06-07 02:15:00","9.6866","3.20398","27.33","4.787","7.57","1.636","79.006","0.12","0.08","29.1251","4.61847","50.74","0","SATNPRO1509","28.286","0.39618","5"],
    [24267,"HCEP03730566","2024-06-07 02:30:00","9.6821","3.20421","27.391","4.78","7.57","1.504","49.745","0.08","0.06","29.1309","4.61939","50.66","0","SATNPRO1509","28.144","0.39424","5"],
    [24268,"HCEP03730566","2024-06-07 02:45:00","9.6767","3.20477","27.445","4.786","7.57","1.537","23.185","0.11","0.06","29.141","4.62093","50.72","0","SATNPRO1509","28.172","0.39464","5"],
    [24269,"HCEP03730566","2024-06-07 03:00:00","9.6679","3.20584","27.504","4.867","7.58","1.51","6.398","0.39","0.05","29.1588","4.62364","51.57","0","SATNPRO1509","28.544","0.3998","5"],
    [24270,"HCEP03730566","2024-06-07 03:15:00","9.6619","3.20672","27.554","4.989","7.59","1.206","0.752","0.12","0.02","29.1726","4.62571","52.87","0","SATNPRO1509","28.63","0.40104","5"],
    [24271,"HCEP03730566","2024-06-07 03:30:00","9.6612","3.20698","27.594","5.048","7.59","0.961","0.306","0.08","0.03","29.1757","4.62618","53.49","0","SATNPRO1509","28.82","0.4037","5"],
    [24272,"HCEP03730566","2024-06-07 03:45:00","9.6651","3.20687","27.618","5.07","7.6","0.82","0.304","0.05","0.04","29.1714","4.62549","53.73","0","SATNPRO1509","28.954","0.40556","5"],
    [24273,"HCEP03730566","2024-06-07 04:00:00","9.668","3.20722","27.625","5.107","7.6","0.698","0.26","0.09","0.02","29.1726","4.62562","54.12","0","SATNPRO1509","28.916","0.40502","5"],
    [24274,"HCEP03730566","2024-06-07 04:15:00","9.6634","3.20756","27.627","5.162","7.61","0.515","0.262","0.03","0.02","29.1797","4.62672","54.7","0","SATNPRO1509","28.896","0.40478","5"],
    [24275,"HCEP03730566","2024-06-07 04:30:00","9.6676","3.20725","27.614","5.192","7.61","0.456","0.39","0.04","0.03","29.1733","4.62572","55.02","0","SATNPRO1509","29.073999999999998","0.40722","5"],
    [24276,"HCEP03730566","2024-06-07 04:45:00","9.6598","3.20816","27.585","5.179","7.61","0.455","0.632","0.03","0.04","29.1888","4.62808","54.88","0","SATNPRO1509","28.972","0.4058","5"],
    [24277,"HCEP03730566","2024-06-07 05:00:00","9.6552","3.20842","27.572","5.161","7.61","0.468","0.802","0.05","0.04","29.1951","4.62905","54.68","0","SATNPRO1509","29.032","0.40664","5"],
    [24278,"HCEP03730566","2024-06-07 05:15:00","9.6503","3.20862","27.505","5.163","7.61","0.467","0.862","0.05","0.05","29.2011","4.63","54.71","0","SATNPRO1509","29.158","0.40838","5"],
    [24279,"HCEP03730566","2024-06-07 05:30:00","9.6463","3.20884","27.43","5.158","7.61","0.559","0.971","0.08","0.07","29.2066","4.63085","54.64","0","SATNPRO1509","29.154","0.40834","5"],
    [24280,"HCEP03730566","2024-06-07 05:45:00","9.6398","3.20915","27.285","5.134","7.6","0.654","1.045","0.08","0.04","29.215","4.63216","54.39","0","SATNPRO1509","29.192","0.40888","5"],
    [24281,"HCEP03730566","2024-06-07 06:00:00","9.6359","3.20942","27.224","5.102","7.6","0.774","1.388","0.16","0.15","29.221","4.63309","54.05","0","SATNPRO1509","29.086","0.40742","5"],
    [24282,"HCEP03730566","2024-06-07 06:15:00","9.6295","3.20977","27.061","5.072","7.6","0.927","1.664","0.1","0.3","29.2297","4.63444","53.72","0","SATNPRO1509","29.224","0.40936","5"],
    [24283,"HCEP03730566","2024-06-07 06:30:00","9.6252","3.20987","26.884","5.063","7.6","0.939","1.305","0.08","0.16","29.2343","4.63516","53.62","0","SATNPRO1509","29.188","0.40884","5"],
    [24284,"HCEP03730566","2024-06-07 06:45:00","9.6309","3.20952","26.692","5.072","7.6","1.039","1.34","0.08","0.22","29.2263","4.6339","53.73","0","SATNPRO1509","29.194","0.40894","5"],
    [24285,"HCEP03730566","2024-06-07 07:00:00","9.6373","3.20917","26.486","5.082","7.6","1.201","1.5","0.08","0.14","29.2176","4.63253","53.83","0","SATNPRO1509","29.137999999999998","0.4081","5"],
    [24286,"HCEP03730566","2024-06-07 07:15:00","9.6559","3.20813","26.261","5.096","7.6","1.37","1.502","0.1","0.22","29.1921","4.62855","53.99","0","SATNPRO1509","29.084","0.40736","5"],
    [24287,"HCEP03730566","2024-06-07 07:30:00","9.6466","3.20864","26.058","5.091","7.6","1.67","2.296","0.12","0.22","29.2049","4.63052","53.94","0","SATNPRO1509","29.092","0.40748","5"],
    [24288,"HCEP03730566","2024-06-07 07:45:00","9.6271","3.21006","25.832","5.038","7.6","2.026","3.11","0.12","0.3","29.2351","4.63518","53.36","0","SATNPRO1509","29.198","0.40896","5"],
    [24289,"HCEP03730566","2024-06-07 08:00:00","9.6162","3.21059","25.577","4.995","7.59","2.098","3.025","0.13","0.27","29.2494","4.6374","52.9","0","SATNPRO1509","29.342","0.41098","5"],
    [24290,"HCEP03730566","2024-06-07 08:15:00","9.6157","3.21047","25.326","5.009","7.6","2.362","3.188","0.49","0.28","29.2487","4.6373","53.04","0","SATNPRO1509","29.332","0.41084","5"],
    [24291,"HCEP03730566","2024-06-07 08:30:00","9.6157","3.21042","25.11","5.022","7.6","2.377","3.243","0.25","0.36","29.2483","4.63723","53.19","0","SATNPRO1509","29.354","0.41116","5"],
    [24292,"HCEP03730566","2024-06-07 08:45:00","9.6151","3.21043","24.874","5.022","7.6","2.538","3.755","0.16","0.32","29.249","4.63733","53.18","0","SATNPRO1509","29.378","0.41152","5"],
    [24293,"HCEP03730566","2024-06-07 09:00:00","9.6135","3.21051","24.61","5.012","7.59","2.744","4.084","0.15","0.43","29.2513","4.63766","53.08","0","SATNPRO1509","29.4","0.4118","5"],
    [24294,"HCEP03730566","2024-06-07 09:15:00","9.6059","3.21109","24.41","5.008","7.59","2.827","4.402","0.15","0.42","29.2633","4.63951","53.03","0","SATNPRO1509","29.514","0.41338","5"],
    [24295,"HCEP03730566","2024-06-07 09:30:00","9.6008","3.2114","24.202","5.001","7.59","2.758","4.259","0.13","0.38","29.2707","4.64064","52.95","0","SATNPRO1509","29.387999999999998","0.41164","5"],
    [24296,"HCEP03730566","2024-06-07 09:45:00","9.5983","3.21178","24","5.001","7.59","3.027","5.008","0.2","0.53","29.2767","4.64154","52.95","0","SATNPRO1509","29.496","0.41314","5"],
    [24297,"HCEP03730566","2024-06-07 10:00:00","9.597","3.21184","23.878","4.999","7.59","2.883","4.304","0.21","0.35","29.2784","4.64179","52.93","0","SATNPRO1509","29.492","0.41306","5"],
    [24298,"HCEP03730566","2024-06-07 10:15:00","9.5993","3.21145","23.619","5.008","7.59","2.966","4.281","0.21","0.47","29.2726","4.64091","53.03","0","SATNPRO1509","29.504","0.41326","5"],
    [24299,"HCEP03730566","2024-06-07 10:30:00","9.6017","3.21123","23.512","5.016","7.59","3.219","3.647","0.29","0.62","29.2686","4.64028","53.11","0","SATNPRO1509","29.486","0.41298","5"],
    [24300,"HCEP03730566","2024-06-07 10:45:00","9.6112","3.21024","23.455","5.017","7.59","3.051","3.882","0.18","0.33","29.2509","4.63758","53.13","0","SATNPRO1509","29.404","0.41184","5"],
    [24301,"HCEP03730566","2024-06-07 11:00:00","9.6186","3.21008","23.59","5.008","7.6","3.059","4.226","0.16","0.32","29.2431","4.63635","53.04","0","SATNPRO1509","29.33","0.41084","5"],
    [24302,"HCEP03730566","2024-06-07 11:15:00","9.6333","3.20812","23.558","4.999","7.59","2.978","4.226","0.17","0.22","29.2115","4.63156","52.96","0","SATNPRO1509","29.148","0.40828","5"],
    [24303,"HCEP03730566","2024-06-07 11:30:00","9.6396","3.20852","23.555","4.981","7.59","2.868","4.111","0.09","0.22","29.2104","4.63129","52.77","0","SATNPRO1509","29.018","0.40642","5"],
    [24304,"HCEP03730566","2024-06-07 11:45:00","9.6422","3.20823","23.607","4.985","7.59","2.837","3.99","0.13","0.24","29.2053","4.63052","52.81","0","SATNPRO1509","29.052","0.40692","5"],
    [24305,"HCEP03730566","2024-06-07 12:00:00","9.6422","3.20797","23.715","4.983","7.59","2.795","4.203","0.16","0.2","29.2027","4.63015","52.79","0","SATNPRO1509","29.016000000000002","0.4064","5"],
    [24306,"HCEP03730566","2024-06-07 12:15:00","9.6511","3.20757","23.86","4.983","7.6","2.674","4.091","0.14","0.23","29.1914","4.62839","52.79","0","SATNPRO1509","28.914","0.40496","5"],
    [24307,"HCEP03730566","2024-06-07 12:30:00","9.6539","3.20727","23.981","4.967","7.6","2.809","4.579","0.16","0.24","29.1861","4.62758","52.63","0","SATNPRO1509","28.828","0.40376","5"],
    [24308,"HCEP03730566","2024-06-07 12:45:00","9.6567","3.20716","24.197","4.945","7.59","2.818","4.623","0.15","0.18","29.1826","4.62704","52.39","0","SATNPRO1509","28.759999999999998","0.40282","5"],
    [24309,"HCEP03730566","2024-06-07 13:00:00","9.6552","3.20734","24.364","4.927","7.59","2.818","4.423","0.16","0.42","29.1855","4.62751","52.21","0","SATNPRO1509","28.714","0.4022","5"],
    [24310,"HCEP03730566","2024-06-07 13:15:00","9.6573","3.20699","24.567","4.917","7.59","2.813","3.732","0.13","0.1","29.1803","4.62673","52.1","0","SATNPRO1509","28.706","0.4021","5"],
    [24311,"HCEP03730566","2024-06-07 13:30:00","9.6569","3.20701","24.742","4.909","7.59","2.847","3.779","0.11","0.15","29.1807","4.6268","52.01","0","SATNPRO1509","28.754","0.40276","5"],
    [24312,"HCEP03730566","2024-06-07 13:45:00","9.6611","3.20695","24.937","4.897","7.59","2.798","3.951","0.12","0.18","29.1766","4.62616","51.89","0","SATNPRO1509","28.692","0.40188","5"],
    [24313,"HCEP03730566","2024-06-07 14:00:00","9.6712","3.20565","25.136","4.875","7.59","2.874","3.289","0.16","0.18","29.1553","4.62294","51.66","0","SATNPRO1509","28.592","0.40048","5"],
    [24314,"HCEP03730566","2024-06-07 14:15:00","9.6608","3.20713","25.377","4.843","7.59","3","4.022","0.14","0.18","29.1784","4.62644","51.32","0","SATNPRO1509","28.502000000000002","0.39922","5"],
    [24315,"HCEP03730566","2024-06-07 14:30:00","9.6695","3.20646","25.596","4.821","7.59","2.895","4.333","0.13","0.16","29.1646","4.62432","51.09","0","SATNPRO1509","28.426000000000002","0.39814","5"],
    [24316,"HCEP03730566","2024-06-07 14:45:00","9.6768","3.20556","25.853","4.781","7.58","2.931","4.427","0.12","0.22","29.1495","4.62206","50.66","0","SATNPRO1509","28.274","0.396","5"],
    [24317,"HCEP03730566","2024-06-07 15:00:00","9.6811","3.20517","26.048","4.758","7.58","2.834","4.395","0.15","0.11","29.1421","4.62093","50.43","0","SATNPRO1509","28.24","0.39554","5"],
    [24318,"HCEP03730566","2024-06-07 15:15:00","9.6771","3.20551","26.354","4.754","7.58","3.072","4.677","0.19","0.18","29.1485","4.62194","50.38","0","SATNPRO1509","28.292","0.39628","5"],
    [24319,"HCEP03730566","2024-06-07 15:30:00","9.6729","3.20606","26.544","4.769","7.58","3.003","4.105","0.17","0.13","29.1574","4.6233","50.54","0","SATNPRO1509","28.358","0.39722","5"],
    [24320,"HCEP03730566","2024-06-07 15:45:00","9.6738","3.20614","26.754","4.767","7.58","2.933","3.546","0.16","0.13","29.1574","4.62329","50.52","0","SATNPRO1509","28.352","0.39716","5"],
    [24321,"HCEP03730566","2024-06-07 16:00:00","9.6742","3.20605","26.944","4.78","7.58","2.914","3.212","0.15","0.14","29.1561","4.62311","50.66","0","SATNPRO1509","28.408","0.39796","5"],
    [24322,"HCEP03730566","2024-06-07 16:15:00","9.679","3.20567","27.17","4.794","7.58","2.859","3.882","0.17","0.15","29.1484","4.62193","50.81","0","SATNPRO1509","28.318","0.39664","5"],
    [24323,"HCEP03730566","2024-06-07 16:30:00","9.6816","3.2054","27.414","4.784","7.58","2.947","3.417","0.15","0.15","29.1434","4.62118","50.71","0","SATNPRO1509","28.222","0.39528","5"],
    [24324,"HCEP03730566","2024-06-07 16:45:00","9.6747","3.20609","27.571","4.764","7.58","3.088","4.27","0.13","0.18","29.1558","4.62309","50.49","0","SATNPRO1509","28.304000000000002","0.3964","5"],
    [24325,"HCEP03730566","2024-06-07 17:00:00","9.6765","3.20585","27.717","4.756","7.57","3.163","3.984","0.24","0.19","29.1519","4.62251","50.41","0","SATNPRO1509","28.284","0.3962","5"],
    [24326,"HCEP03730566","2024-06-07 17:15:00","9.673","3.2062","27.845","4.755","7.57","3.092","4.387","0.16","0.19","29.1581","4.62347","50.39","0","SATNPRO1509","28.336","0.39688","5"],
    [24327,"HCEP03730566","2024-06-07 17:30:00","9.6748","3.20603","27.923","4.747","7.57","3.089","4.068","0.22","0.22","29.155","4.623","50.31","0","SATNPRO1509","28.352","0.39712","5"],
    [24328,"HCEP03730566","2024-06-07 17:45:00","9.6766","3.20587","27.975","4.758","7.57","2.93","3.374","0.25","0.21","29.1519","4.62252","50.42","0","SATNPRO1509","28.318","0.39664","5"],
    [24329,"HCEP03730566","2024-06-07 18:00:00","9.6848","3.20507","27.957","4.783","7.57","2.494","2.455","0.23","0.15","29.1373","4.62028","50.69","0","SATNPRO1509","28.422","0.3981","5"],
    [24330,"HCEP03730566","2024-06-07 18:15:00","9.6738","3.20593","27.997","4.782","7.57","2.748","4.303","0.21","0.23","29.1548","4.62298","50.68","0","SATNPRO1509","28.316","0.39662","5"],
    [24331,"HCEP03730566","2024-06-07 18:30:00","9.6518","3.20838","27.978","4.712","7.57","2.791","5.593","0.14","0.3","29.1973","4.62945","49.93","0","SATNPRO1509","28.594","0.4005","5"],
    [24332,"HCEP03730566","2024-06-07 18:45:00","9.6364","3.2099","28.019","4.68","7.57","2.412","4.822","0.14","0.3","29.225","4.6337","49.58","0","SATNPRO1509","28.498","0.39914","5"],
    [24333,"HCEP03730566","2024-06-07 19:00:00","9.6377","3.20949","28.025","4.707","7.57","2.242","4.793","0.14","0.28","29.2199","4.63294","49.86","0","SATNPRO1509","28.594","0.40054","5"],
    [24334,"HCEP03730566","2024-06-07 19:15:00","9.636","3.20953","27.978","4.753","7.57","2.197","4.683","0.26","0.22","29.2217","4.63323","50.35","0","SATNPRO1509","28.608","0.40066","5"],
    [24335,"HCEP03730566","2024-06-07 19:30:00","9.6293","3.21002","27.963","4.748","7.57","2.135","4.675","0.12","0.33","29.2321","4.63483","50.29","0","SATNPRO1509","28.782","0.40314","5"],
    [24336,"HCEP03730566","2024-06-07 19:45:00","9.628","3.21037","27.931","4.747","7.57","2.118","4.45","0.17","0.35","29.2367","4.63552","50.28","0","SATNPRO1509","28.77","0.40298","5"],
    [24337,"HCEP03730566","2024-06-07 20:00:00","9.648","3.20815","27.884","4.778","7.57","1.876","3.918","0.07","0.27","29.1981","4.62963","50.62","0","SATNPRO1509","28.588","0.40044","5"],
    [24338,"HCEP03730566","2024-06-07 20:15:00","9.6457","3.20834","27.847","4.798","7.57","2.042","4.469","0.12","0.31","29.2019","4.63022","50.83","0","SATNPRO1509","28.62","0.40086","5"],
    [24339,"HCEP03730566","2024-06-07 20:30:00","9.6717","3.20591","27.782","4.811","7.57","1.748","3.567","0.13","0.19","29.1564","4.62324","50.98","0","SATNPRO1509","28.656","0.4014","5"],
    [24340,"HCEP03730566","2024-06-07 20:45:00","9.6386","3.20923","27.717","4.803","7.57","2.042","6.339","0.12","0.19","29.2167","4.63245","50.88","0","SATNPRO1509","28.774","0.403","5"],
    [24341,"HCEP03730566","2024-06-07 21:00:00","9.6437","3.20891","27.64","4.761","7.57","2.09","9.504","0.13","0.16","29.2093","4.6313","50.44","0","SATNPRO1509","28.688","0.40182","5"],
    [24342,"HCEP03730566","2024-06-07 21:15:00","9.6549","3.20827","27.567","4.708","7.57","2.354","15.919","0.19","0.23","29.1938","4.62888","49.89","0","SATNPRO1509","28.372","0.39744","5"],
    [24343,"HCEP03730566","2024-06-07 21:30:00","9.68","3.2069","27.504","4.629","7.56","2.374","22.952","0.13","0.2","29.1597","4.62356","49.06","0","SATNPRO1509","27.932","0.39122","5"],
    [24344,"HCEP03730566","2024-06-07 21:45:00","9.7163","3.20434","27.425","4.604","7.56","2.122","30.216","0.13","0.16","29.1047","4.61504","48.82","0","SATNPRO1509","27.823999999999998","0.38972","5"],
    [24345,"HCEP03730566","2024-06-07 22:00:00","9.727","3.20351","27.339","4.635","7.56","2.077","37.343","0.26","0.28","29.0877","4.61242","49.16","0","SATNPRO1509","27.844","0.38998","5"],
    [24346,"HCEP03730566","2024-06-07 22:15:00","9.7153","3.20466","27.252","4.632","7.56","2.252","41.237","0.13","0.38","29.1087","4.61563","49.12","0","SATNPRO1509","27.692","0.38788","5"],
    [24347,"HCEP03730566","2024-06-07 22:30:00","9.688","3.20639","27.173","4.538","7.56","2.313","43.257","0.11","0.1","29.1482","4.62175","48.1","0","SATNPRO1509","27.972","0.39178","5"],
    [24348,"HCEP03730566","2024-06-07 22:45:00","9.694","3.20642","27.086","4.539","7.55","2.305","45.063","0.13","0.33","29.1437","4.62099","48.12","0","SATNPRO1509","27.826","0.38972","5"],
    [24349,"HCEP03730566","2024-06-07 23:00:00","9.6944","3.2064","26.998","4.53","7.55","2.364","45.892","0.11","0.19","29.1433","4.62092","48.02","0","SATNPRO1509","28.052","0.3929","5"],
    [24350,"HCEP03730566","2024-06-07 23:15:00","9.6954","3.20622","26.93","4.503","7.55","2.382","43.414","0.2","0.16","29.1406","4.62052","47.74","0","SATNPRO1509","28.092","0.39344","5"],
    [24351,"HCEP03730566","2024-06-07 23:30:00","9.6941","3.20627","26.867","4.52","7.55","2.291","41.269","0.15","0.22","29.1423","4.62078","47.92","0","SATNPRO1509","27.62","0.38688","5"],
    [24352,"HCEP03730566","2024-06-07 23:45:00","9.6891","3.2064","26.836","4.513","7.55","2.258","39.135","0.1","0.12","29.1476","4.62163","47.84","0","SATNPRO1509","27.634","0.38706","5"],
    [24353,"HCEP03730566","2024-06-08 00:00:00","9.6764","3.207","26.803","4.523","7.55","2.008","37.658","0.09","0.23","29.1639","4.62418","47.94","0","SATNPRO1509","27.96","0.3916","5"],
    [24354,"HCEP03730566","2024-06-08 00:15:00","9.6642","3.20765","26.781","4.553","7.55","1.957","36.128","0.1","0.28","29.1804","4.62675","48.25","0","SATNPRO1509","28.238","0.39554","5"],
    [24355,"HCEP03730566","2024-06-08 00:30:00","9.6524","3.20843","26.802","4.601","7.55","1.935","36.074","0.08","0.18","29.1978","4.62945","48.75","0","SATNPRO1509","28.398","0.39778","5"],
    [24356,"HCEP03730566","2024-06-08 00:45:00","9.6413","3.20937","26.788","4.704","7.56","1.812","35.765","0.09","0.25","29.2163","4.6323","49.83","0","SATNPRO1509","28.69","0.40184","5"],
    [24357,"HCEP03730566","2024-06-08 01:00:00","9.6265","3.21094","26.805","4.813","7.57","1.522","31.943","0.07","0.18","29.2441","4.63654","50.99","0","SATNPRO1509","29.14","0.40818","5"],
    [24358,"HCEP03730566","2024-06-08 01:15:00","9.6138","3.21182","26.854","4.931","7.58","1.565","31.36","0.08","0.2","29.2633","4.63951","52.22","0","SATNPRO1509","29.302","0.41042","5"],
    [24359,"HCEP03730566","2024-06-08 01:30:00","9.6077","3.21227","26.892","5.002","7.59","1.487","30.352","0.15","0.29","29.2728","4.64098","52.98","0","SATNPRO1509","29.512","0.41336","5"],
    [24360,"HCEP03730566","2024-06-08 01:45:00","9.5959","3.21307","26.95","5.053","7.59","1.39","29.52","0.1","0.33","29.2905","4.64372","53.51","0","SATNPRO1509","29.63","0.41504","5"],
    [24361,"HCEP03730566","2024-06-08 02:00:00","9.5909","3.21341","27.01","5.082","7.6","1.345","29.012","0.09","0.28","29.2979","4.64488","53.81","0","SATNPRO1509","29.75","0.4167","5"],
    [24362,"HCEP03730566","2024-06-08 02:15:00","9.591","3.21343","27.087","5.09","7.6","1.303","26.834","0.08","0.48","29.298","4.64489","53.89","0","SATNPRO1509","29.726","0.41634","5"],
    [24363,"HCEP03730566","2024-06-08 02:30:00","9.5943","3.21318","27.135","5.075","7.6","1.391","25.514","0.09","0.54","29.2928","4.64409","53.73","0","SATNPRO1509","29.7","0.416","5"],
    [24364,"HCEP03730566","2024-06-08 02:45:00","9.5958","3.21309","27.21","5.047","7.6","1.382","24.728","0.07","0.53","29.2907","4.64376","53.44","0","SATNPRO1509","29.602","0.4146","5"],
    [24365,"HCEP03730566","2024-06-08 03:00:00","9.588","3.21358","27.27","5.039","7.6","1.456","26.187","0.36","0.59","29.3019","4.64552","53.36","0","SATNPRO1509","29.714","0.41618","5"],
    [24366,"HCEP03730566","2024-06-08 03:15:00","9.5845","3.21374","27.332","5.015","7.6","1.456","26.952","0.15","0.39","29.3064","4.64622","53.1","0","SATNPRO1509","29.654","0.41542","5"],
    [24367,"HCEP03730566","2024-06-08 03:30:00","9.5856","3.21368","27.387","5.002","7.6","1.465","28.755","0.12","0.46","29.3048","4.64598","52.96","0","SATNPRO1509","29.624","0.41494","5"],
    [24368,"HCEP03730566","2024-06-08 03:45:00","9.5863","3.21371","27.439","4.996","7.6","1.488","25.045","0.16","0.41","29.3046","4.64594","52.9","0","SATNPRO1509","29.834","0.41786","5"],
    [24369,"HCEP03730566","2024-06-08 04:00:00","9.5824","3.21393","27.485","4.991","7.6","1.557","27.758","0.1","0.43","29.3099","4.64678","52.84","0","SATNPRO1509","29.774","0.417","5"],
    [24370,"HCEP03730566","2024-06-08 04:15:00","9.5833","3.21379","27.535","4.996","7.6","1.558","30.02","0.22","0.17","29.3078","4.64646","52.89","0","SATNPRO1509","29.78","0.41714","5"],
    [24371,"HCEP03730566","2024-06-08 04:30:00","9.584","3.21374","27.575","5.005","7.6","1.61","31.539","0.16","0.26","29.3066","4.64628","52.99","0","SATNPRO1509","29.728","0.41642","5"],
    [24372,"HCEP03730566","2024-06-08 04:45:00","9.5853","3.21359","27.6","5.004","7.6","1.576","33.056","0.12","0.31","29.304","4.64588","52.98","0","SATNPRO1509","29.722","0.41632","5"],
    [24373,"HCEP03730566","2024-06-08 05:00:00","9.5837","3.21376","27.597","4.989","7.6","1.649","34.372","0.22","0.42","29.307","4.64634","52.82","0","SATNPRO1509","29.702","0.416","5"],
    [24374,"HCEP03730566","2024-06-08 05:15:00","9.5854","3.21361","27.582","4.967","7.59","1.891","35.501","1.35","0.13","29.3042","4.6459","52.59","0","SATNPRO1509","29.676000000000002","0.41568","5"],
    [24375,"HCEP03730566","2024-06-08 05:30:00","9.5785","3.21404","27.556","4.948","7.59","1.586","36.145","0.1","0.18","29.3142","4.64746","52.38","0","SATNPRO1509","29.79","0.41724","5"],
    [24376,"HCEP03730566","2024-06-08 05:45:00","9.5713","3.21437","27.523","4.958","7.59","1.686","35.884","0.19","0.17","29.3233","4.64889","52.48","0","SATNPRO1509","29.884","0.4186","5"],
    [24377,"HCEP03730566","2024-06-08 06:00:00","9.5485","3.21594","27.475","4.978","7.59","1.553","36.218","0.11","0.18","29.3579","4.65424","52.68","0","SATNPRO1509","30.264","0.42392","5"],
    [24378,"HCEP03730566","2024-06-08 06:15:00","9.5408","3.21625","27.401","5.012","7.59","1.81","36.702","1.02","0.36","29.3673","4.65573","53.03","0","SATNPRO1509","30.324","0.42474","5"],
    [24379,"HCEP03730566","2024-06-08 06:30:00","9.5385","3.21643","27.287","5.028","7.59","1.592","35.977","0.15","0.25","29.3711","4.6563","53.2","0","SATNPRO1509","30.376","0.42548","5"],
    [24380,"HCEP03730566","2024-06-08 06:45:00","9.5367","3.21659","27.165","5.026","7.59","1.496","34.908","0.1","0.25","29.3742","4.65676","53.17","0","SATNPRO1509","30.298000000000002","0.42438","5"],
    [24381,"HCEP03730566","2024-06-08 07:00:00","9.5328","3.21677","27.024","5.034","7.59","1.582","31.63","0.4","0.19","29.3793","4.65755","53.25","0","SATNPRO1509","30.412","0.426","5"],
    [24382,"HCEP03730566","2024-06-08 07:15:00","9.5352","3.21692","26.857","5.027","7.59","1.319","28.557","0.07","0.44","29.3789","4.65745","53.19","0","SATNPRO1509","30.352","0.42514","5"],
    [24383,"HCEP03730566","2024-06-08 07:30:00","9.5319","3.21711","26.684","5.017","7.59","1.185","23.271","0.07","0.28","29.3836","4.65817","53.08","0","SATNPRO1509","30.482","0.42694","5"],
    [24384,"HCEP03730566","2024-06-08 07:45:00","9.5324","3.21703","26.485","5.027","7.59","1.224","12.557","0.08","0.23","29.3824","4.65798","53.19","0","SATNPRO1509","30.608","0.4287","5"],
    [24385,"HCEP03730566","2024-06-08 08:00:00","9.5338","3.21694","26.265","5.036","7.59","1.201","8.036","0.07","0.26","29.3806","4.65768","53.29","0","SATNPRO1509","30.426000000000002","0.42616","5"],
    [24386,"HCEP03730566","2024-06-08 08:15:00","9.5356","3.21697","26.043","5.03","7.59","1.212","5.8","0.11","0.28","29.3794","4.65747","53.22","0","SATNPRO1509","30.466","0.4267","5"],
    [24387,"HCEP03730566","2024-06-08 08:30:00","9.5346","3.21715","25.818","5.019","7.59","1.289","4.498","0.06","0.19","29.3822","4.65787","53.11","0","SATNPRO1509","30.381999999999998","0.42554","5"],
    [24388,"HCEP03730566","2024-06-08 08:45:00","9.5338","3.21722","25.584","5.02","7.59","1.297","3.859","0.07","0.27","29.3836","4.65808","53.11","0","SATNPRO1509","30.418","0.42604","5"],
    [24389,"HCEP03730566","2024-06-08 09:00:00","9.5335","3.21717","25.362","5.035","7.59","1.298","3.488","0.07","0.26","29.3834","4.65804","53.28","0","SATNPRO1509","30.464","0.4267","5"],
    [24390,"HCEP03730566","2024-06-08 09:15:00","9.5343","3.21716","25.125","5.05","7.59","1.391","3.308","0.43","0.27","29.3827","4.65791","53.43","0","SATNPRO1509","30.413999999999998","0.42604","5"],
    [24391,"HCEP03730566","2024-06-08 09:30:00","9.5374","3.2168","24.877","5.059","7.59","1.259","2.844","0.07","0.19","29.3767","4.65699","53.53","0","SATNPRO1509","30.348","0.42506","5"],
    [24392,"HCEP03730566","2024-06-08 09:45:00","9.541","3.21656","24.663","5.059","7.6","1.312","3.095","0.08","0.22","29.3714","4.65615","53.53","0","SATNPRO1509","30.422","0.42612","5"],
    [24393,"HCEP03730566","2024-06-08 10:00:00","9.5415","3.21647","24.442","5.055","7.59","1.407","3.107","0.07","0.28","29.3701","4.65594","53.49","0","SATNPRO1509","30.532","0.42764","5"],
    [24394,"HCEP03730566","2024-06-08 10:15:00","9.541","3.21667","24.261","5.047","7.6","1.513","3.365","0.16","0.32","29.3727","4.6563","53.4","0","SATNPRO1509","30.426000000000002","0.42618","5"],
    [24395,"HCEP03730566","2024-06-08 10:30:00","9.5443","3.21648","24.061","5.038","7.59","1.558","3.233","0.09","0.23","29.3681","4.65558","53.31","0","SATNPRO1509","30.314","0.42462","5"],
    [24396,"HCEP03730566","2024-06-08 10:45:00","9.5443","3.21656","23.83","5.02","7.59","1.671","3.425","0.11","0.28","29.3691","4.65571","53.12","0","SATNPRO1509","30.264","0.4239","5"],
    [24397,"HCEP03730566","2024-06-08 11:00:00","9.5502","3.21603","23.681","5.01","7.6","1.723","3.158","0.2","0.26","29.359","4.65415","53.02","0","SATNPRO1509","30.272000000000002","0.42398","5"],
    [24398,"HCEP03730566","2024-06-08 11:15:00","9.5497","3.21613","23.593","5.01","7.6","1.653","3.25","0.14","0.32","29.3603","4.65434","53.02","0","SATNPRO1509","30.278","0.4241","5"],
    [24399,"HCEP03730566","2024-06-08 11:30:00","9.5529","3.21589","23.556","5.01","7.6","1.658","3.433","0.17","0.66","29.3554","4.65358","53.03","0","SATNPRO1509","30.202","0.42304","5"],
    [24400,"HCEP03730566","2024-06-08 11:45:00","9.5576","3.2155","23.553","5.013","7.6","1.582","2.831","0.1","0.21","29.3476","4.65239","53.06","0","SATNPRO1509","30.022","0.42052","5"],
    [24401,"HCEP03730566","2024-06-08 12:00:00","9.5632","3.21524","23.601","5.026","7.6","1.509","2.777","0.18","0.34","29.3404","4.65125","53.2","0","SATNPRO1509","30.058","0.42102","5"],
    [24402,"HCEP03730566","2024-06-08 12:15:00","9.5623","3.21527","23.713","5.02","7.6","1.597","2.86","0.13","0.44","29.3413","4.65141","53.13","0","SATNPRO1509","30.106","0.42168","5"],
    [24403,"HCEP03730566","2024-06-08 12:30:00","9.564","3.21527","23.806","5.004","7.6","1.644","3.535","0.12","0.36","29.3399","4.65119","52.97","0","SATNPRO1509","30.052","0.42088","5"],
    [24404,"HCEP03730566","2024-06-08 12:45:00","9.5651","3.21518","23.878","4.984","7.59","1.578","3.679","0.08","0.2","29.3381","4.6509","52.75","0","SATNPRO1509","29.976","0.41986","5"],
    [24405,"HCEP03730566","2024-06-08 13:00:00","9.5679","3.21519","24.029","4.965","7.59","1.665","3.736","0.15","0.21","29.3358","4.65053","52.55","0","SATNPRO1509","30.004","0.42026","5"],
    [24406,"HCEP03730566","2024-06-08 13:15:00","9.5715","3.21502","24.159","4.956","7.59","1.583","3.621","0.12","0.15","29.3311","4.64981","52.46","0","SATNPRO1509","29.96","0.41968","5"],
    [24407,"HCEP03730566","2024-06-08 13:30:00","9.5771","3.21448","24.331","4.939","7.59","1.622","3.956","0.12","0.32","29.321","4.64827","52.29","0","SATNPRO1509","29.958","0.41958","5"],
    [24408,"HCEP03730566","2024-06-08 13:45:00","9.5771","3.21454","24.49","4.942","7.59","1.586","3.599","0.11","0.16","29.3215","4.64835","52.32","0","SATNPRO1509","29.834","0.41784","5"],
    [24409,"HCEP03730566","2024-06-08 14:00:00","9.5839","3.21433","24.66","4.938","7.59","1.527","3.232","0.09","0.26","29.3138","4.64715","52.28","0","SATNPRO1509","29.796","0.4173","5"],
    [24410,"HCEP03730566","2024-06-08 14:15:00","9.5846","3.21435","24.856","4.93","7.59","1.557","3.465","0.08","0.16","29.3134","4.64708","52.2","0","SATNPRO1509","29.574","0.41422","5"],
    [24411,"HCEP03730566","2024-06-08 14:30:00","9.5898","3.21398","25.024","4.906","7.59","1.652","3.939","0.1","0.21","29.3053","4.64585","51.94","0","SATNPRO1509","29.580000000000002","0.41432","5"],
    [24412,"HCEP03730566","2024-06-08 14:45:00","9.6015","3.21314","25.224","4.893","7.59","1.552","3.318","0.09","0.28","29.2872","4.64306","51.82","0","SATNPRO1509","29.522","0.41354","5"],
    [24413,"HCEP03730566","2024-06-08 15:00:00","9.6178","3.21204","25.448","4.916","7.59","1.535","3.022","0.1","0.19","29.2628","4.63929","52.07","0","SATNPRO1509","29.44","0.41234","5"],
    [24414,"HCEP03730566","2024-06-08 15:15:00","9.5938","3.21353","25.664","4.929","7.59","1.531","3.801","0.05","0.23","29.2973","4.64466","52.19","0","SATNPRO1509","29.567999999999998","0.41416","5"],
    [24415,"HCEP03730566","2024-06-08 15:30:00","9.5891","3.21392","25.913","4.927","7.59","1.486","3.776","0.1","0.32","29.3049","4.64585","52.17","0","SATNPRO1509","29.704","0.41608","5"],
    [24416,"HCEP03730566","2024-06-08 15:45:00","9.5907","3.21349","26.154","4.93","7.59","1.407","3.765","0.08","0.19","29.2992","4.64501","52.2","0","SATNPRO1509","29.672","0.4156","5"],
    [24417,"HCEP03730566","2024-06-08 16:00:00","9.5915","3.21362","26.363","4.969","7.6","1.352","3.348","0.09","0.16","29.2997","4.64509","52.62","0","SATNPRO1509","29.779999999999998","0.41712","5"],
    [24418,"HCEP03730566","2024-06-08 16:15:00","9.5921","3.21346","26.608","4.997","7.6","1.31","3.003","0.1","0.13","29.2976","4.64479","52.91","0","SATNPRO1509","29.796","0.41736","5"],
    [24419,"HCEP03730566","2024-06-08 16:30:00","9.59","3.21371","26.798","5.005","7.6","1.266","2.861","0.09","0.17","29.3017","4.64543","52.99","0","SATNPRO1509","29.855999999999998","0.41818","5"],
    [24420,"HCEP03730566","2024-06-08 16:45:00","9.5878","3.21381","27.004","5.009","7.6","1.276","3.035","0.07","0.17","29.3045","4.64588","53.03","0","SATNPRO1509","29.866","0.41828","5"],
    [24421,"HCEP03730566","2024-06-08 17:00:00","9.5851","3.21404","27.227","5.002","7.6","1.295","2.936","0.11","0.12","29.309","4.64658","52.96","0","SATNPRO1509","29.944","0.41944","5"],
    [24422,"HCEP03730566","2024-06-08 17:15:00","9.5853","3.21409","27.363","4.988","7.6","1.435","2.97","0.15","0.24","29.3092","4.64662","52.81","0","SATNPRO1509","29.855999999999998","0.41814","5"],
    [24423,"HCEP03730566","2024-06-08 17:30:00","9.5846","3.21416","27.559","4.971","7.59","1.451","3.167","0.11","0.23","29.3104","4.6468","52.63","0","SATNPRO1509","29.785999999999998","0.4172","5"],
    [24424,"HCEP03730566","2024-06-08 17:45:00","9.5859","3.21413","27.698","4.95","7.59","1.418","2.939","0.12","0.21","29.309","4.64659","52.41","0","SATNPRO1509","29.904","0.41888","5"],
    [24425,"HCEP03730566","2024-06-08 18:00:00","9.5782","3.21482","27.816","4.918","7.59","1.642","3.944","0.1","0.2","29.3222","4.64863","52.07","0","SATNPRO1509","29.586","0.4144","5"],
    [24426,"HCEP03730566","2024-06-08 18:15:00","9.5748","3.21502","27.899","4.859","7.59","1.709","3.756","0.12","0.23","29.327","4.64938","51.44","0","SATNPRO1509","29.694","0.41588","5"],
    [24427,"HCEP03730566","2024-06-08 18:30:00","9.5771","3.21488","27.978","4.865","7.59","1.653","3.481","0.12","0.3","29.3235","4.64885","51.5","0","SATNPRO1509","29.61","0.41476","5"],
    [24428,"HCEP03730566","2024-06-08 18:45:00","9.5807","3.2145","28.017","4.879","7.59","1.669","3.578","0.09","0.24","29.3169","4.64783","51.66","0","SATNPRO1509","29.742","0.41658","5"],
    [24429,"HCEP03730566","2024-06-08 19:00:00","9.5806","3.21457","28.054","4.896","7.59","1.547","3.161","0.11","0.22","29.3176","4.64793","51.84","0","SATNPRO1509","29.726","0.41638","5"],
    [24430,"HCEP03730566","2024-06-08 19:15:00","9.5837","3.21429","28.089","4.889","7.59","1.44","3.081","0.12","0.21","29.3122","4.64712","51.76","0","SATNPRO1509","29.722","0.41632","5"],
    [24431,"HCEP03730566","2024-06-08 19:30:00","9.5778","3.21488","28.115","4.879","7.59","1.572","3.563","0.1","0.17","29.323","4.64877","51.65","0","SATNPRO1509","29.64","0.41518","5"],
    [24432,"HCEP03730566","2024-06-08 19:45:00","9.5761","3.21505","28.088","4.834","7.59","1.382","3.297","0.06","0.09","29.3261","4.64924","51.17","0","SATNPRO1509","29.59","0.41446","5"],
    [24433,"HCEP03730566","2024-06-08 20:00:00","9.5785","3.21481","28.031","4.853","7.59","1.339","2.942","0.08","0.12","29.3218","4.64857","51.38","0","SATNPRO1509","29.606","0.41468","5"],
    [24434,"HCEP03730566","2024-06-08 20:15:00","9.5797","3.21462","27.998","4.878","7.59","1.223","2.579","0.07","0.09","29.3189","4.64813","51.64","0","SATNPRO1509","29.736","0.4165","5"],
    [24435,"HCEP03730566","2024-06-08 20:30:00","9.5847","3.21441","27.954","4.887","7.59","1.242","3.263","0.05","0.1","29.3127","4.64716","51.74","0","SATNPRO1509","29.696","0.41592","5"],
    [24436,"HCEP03730566","2024-06-08 20:45:00","9.5895","3.21404","27.89","4.89","7.59","1.22","3.205","0.09","0.08","29.3051","4.64598","51.77","0","SATNPRO1509","29.7","0.41602","5"],
    [24437,"HCEP03730566","2024-06-08 21:00:00","9.5883","3.20835","27.847","4.901","7.59","1.152","3.087","0.06","0.11","29.2486","4.63791","51.87","0","SATNPRO1509","29.744","0.4166","5"],
    [24438,"HCEP03730566","2024-06-08 21:15:00","9.5942","3.2136","27.732","4.916","7.59","1.045","3.012","0.04","0.13","29.2968","4.6447","52.06","0","SATNPRO1509","29.604","0.41462","5"],
    [24439,"HCEP03730566","2024-06-08 21:30:00","9.5844","3.21421","27.721","4.923","7.59","0.961","2.91","0.03","0.23","29.311","4.6469","52.12","0","SATNPRO1509","29.65","0.4153","5"],
    [24440,"HCEP03730566","2024-06-08 21:45:00","9.5822","3.21433","27.615","4.94","7.59","0.879","3.008","0.03","0.17","29.314","4.64738","52.3","0","SATNPRO1509","29.91","0.41898","5"],
    [24441,"HCEP03730566","2024-06-08 22:00:00","9.5785","3.21471","27.54","4.918","7.59","0.763","3.233","0.01","0.17","29.321","4.64843","52.06","0","SATNPRO1509","29.892","0.4187","5"],
    [24442,"HCEP03730566","2024-06-08 22:15:00","9.5775","3.215","27.477","4.894","7.59","0.658","3.515","0.01","0.15","29.3247","4.64898","51.81","0","SATNPRO1509","29.622","0.41496","5"],
    [24443,"HCEP03730566","2024-06-08 22:30:00","9.5715","3.21556","27.386","4.81","7.59","0.539","4.402","0.01","0.23","29.3353","4.65059","50.92","0","SATNPRO1509","29.742","0.41658","5"],
    [24444,"HCEP03730566","2024-06-08 22:45:00","9.5981","3.21357","27.302","4.771","7.58","0.419","4.355","0.01","0.07","29.2935","4.64414","50.52","0","SATNPRO1509","29.324","0.41074","5"],
    [24445,"HCEP03730566","2024-06-08 23:00:00","9.5827","3.21481","27.226","4.726","7.58","0.317","6.759","0","0.17","29.3186","4.648","50.03","0","SATNPRO1509","29.374","0.41146","5"],
    [24446,"HCEP03730566","2024-06-08 23:15:00","9.5768","3.21543","27.149","4.699","7.58","0.239","10.386","0.01","0.11","29.3297","4.64969","49.74","0","SATNPRO1509","29.306","0.4105","5"],
    [24447,"HCEP03730566","2024-06-08 23:30:00","9.5765","3.2155","27.054","4.678","7.57","0.199","17.657","0.01","0.14","29.3307","4.64984","49.52","0","SATNPRO1509","29.342","0.411","5"],
    [24448,"HCEP03730566","2024-06-08 23:45:00","9.5754","3.21568","26.988","4.671","7.57","0.205","29.257","0.01","0.12","29.3335","4.65024","49.46","0","SATNPRO1509","29.32","0.41064","5"],
    [24449,"HCEP03730566","2024-06-09 00:00:00","9.5745","3.21574","26.916","4.66","7.57","0.252","47.221","0.01","0.12","29.3348","4.65045","49.33","0","SATNPRO1509","29.282","0.41016","5"],
    [24450,"HCEP03730566","2024-06-09 00:15:00","9.5734","3.21591","26.854","4.658","7.57","0.318","69.011","0.03","0.08","29.3374","4.65084","49.32","0","SATNPRO1509","29.356","0.41116","5"],
    [24451,"HCEP03730566","2024-06-09 00:30:00","9.5778","3.21555","26.816","4.65","7.57","0.394","93.988","0.01","0.1","29.3302","4.64973","49.23","0","SATNPRO1509","29.264","0.40988","5"],
    [24452,"HCEP03730566","2024-06-09 00:45:00","9.5887","3.21488","26.778","4.62","7.57","0.486","108.872","0.02","0.12","29.3146","4.64729","48.92","0","SATNPRO1509","29.168","0.40854","5"],
    [24453,"HCEP03730566","2024-06-09 01:00:00","9.5844","3.21521","26.759","4.599","7.56","0.564","116.218","0.03","0.05","29.3214","4.64834","48.7","0","SATNPRO1509","29.176","0.40866","5"],
    [24454,"HCEP03730566","2024-06-09 01:15:00","9.5871","3.21501","26.772","4.58","7.56","0.668","115.637","0.03","0.05","29.3173","4.6477","48.49","0","SATNPRO1509","29.022000000000002","0.40648","5"],
    [24455,"HCEP03730566","2024-06-09 01:30:00","9.5928","3.21455","26.767","4.589","7.56","0.678","111.449","0.03","0.03","29.3079","4.64627","48.59","0","SATNPRO1509","29.132","0.40804","5"],
    [24456,"HCEP03730566","2024-06-09 01:45:00","9.5919","3.21438","26.806","4.676","7.57","0.644","106.769","0.02","0.05","29.307","4.64616","49.51","0","SATNPRO1509","29.354","0.41114","5"],
    [24457,"HCEP03730566","2024-06-09 02:00:00","9.591","3.21435","26.845","4.745","7.57","0.647","104.904","0.02","0.06","29.3074","4.64622","50.24","0","SATNPRO1509","29.482","0.4129","5"],
    [24458,"HCEP03730566","2024-06-09 02:15:00","9.5907","3.21434","26.86","4.769","7.57","0.656","102.444","0.04","0","29.3075","4.64625","50.5","0","SATNPRO1509","29.528","0.41364","5"],
    [24459,"HCEP03730566","2024-06-09 02:30:00","9.5854","3.21458","26.889","4.802","7.58","0.585","82.265","0.02","0.09","29.3142","4.6473","50.84","0","SATNPRO1509","29.572","0.4142","5"],
    [24460,"HCEP03730566","2024-06-09 02:45:00","9.5689","3.21614","26.931","4.861","7.58","0.507","56.674","0.04","0.05","29.3434","4.65178","51.46","0","SATNPRO1509","29.734","0.41648","5"],
    [24461,"HCEP03730566","2024-06-09 03:00:00","9.5666","3.21636","26.99","4.883","7.59","0.484","29.795","0.02","0.04","29.3476","4.65242","51.69","0","SATNPRO1509","29.812","0.41756","5"],
    [24462,"HCEP03730566","2024-06-09 03:15:00","9.5672","3.21633","27.032","4.917","7.59","0.442","9.436","0.02","0.02","29.3467","4.65229","52.05","0","SATNPRO1509","29.858","0.41818","5"],
    [24463,"HCEP03730566","2024-06-09 03:30:00","9.5681","3.21631","27.101","4.896","7.59","0.411","1.409","0.02","0.01","29.3458","4.65214","51.83","0","SATNPRO1509","29.908","0.41894","5"],
    [24464,"HCEP03730566","2024-06-09 03:45:00","9.5682","3.21631","27.173","4.882","7.59","0.377","0.365","0.02","0.01","29.3457","4.65213","51.68","0","SATNPRO1509","29.866","0.41828","5"],
    [24465,"HCEP03730566","2024-06-09 04:00:00","9.5651","3.21675","27.206","4.933","7.59","0.308","0.265","0.02","0.01","29.3526","4.65317","52.22","0","SATNPRO1509","30.064","0.4211","5"],
    [24466,"HCEP03730566","2024-06-09 04:15:00","9.5629","3.217","27.255","4.981","7.6","0.27","0.281","0.02","0.01","29.3569","4.65383","52.72","0","SATNPRO1509","29.994","0.42008","5"],
    [24467,"HCEP03730566","2024-06-09 04:30:00","9.5581","3.21754","27.264","5.029","7.6","0.22","0.24","0.01","0.01","29.3663","4.65526","53.23","0","SATNPRO1509","30.186","0.42276","5"],
    [24468,"HCEP03730566","2024-06-09 04:45:00","9.551","3.21817","27.317","5.044","7.6","0.2","0.393","0.01","0.01","29.3785","4.65714","53.39","0","SATNPRO1509","30.34","0.42496","5"],
    [24469,"HCEP03730566","2024-06-09 05:00:00","9.5425","3.21876","27.344","5.048","7.6","0.182","0.407","0.01","0.02","29.3913","4.65912","53.42","0","SATNPRO1509","30.387999999999998","0.42562","5"],
    [24470,"HCEP03730566","2024-06-09 05:15:00","9.5429","3.21868","27.38","5.046","7.61","0.185","0.508","0.01","0.03","29.3902","4.65896","53.4","0","SATNPRO1509","30.428","0.4262","5"],
    [24471,"HCEP03730566","2024-06-09 05:30:00","9.5403","3.21881","27.405","5.064","7.61","0.19","0.504","0.02","0.03","29.3936","4.6595","53.59","0","SATNPRO1509","30.42","0.42608","5"],
    [24472,"HCEP03730566","2024-06-09 05:45:00","9.5418","3.21869","27.41","5.074","7.61","0.211","0.599","0.01","0.04","29.3912","4.65913","53.7","0","SATNPRO1509","30.378","0.42548","5"],
    [24473,"HCEP03730566","2024-06-09 06:00:00","9.5411","3.21877","27.393","5.072","7.61","0.226","0.592","0.02","0.04","29.3925","4.65933","53.68","0","SATNPRO1509","30.442","0.42642","5"],
    [24474,"HCEP03730566","2024-06-09 06:15:00","9.5431","3.21855","27.366","5.113","7.61","0.227","0.486","0.02","0.04","29.3887","4.65874","54.11","0","SATNPRO1509","30.573999999999998","0.42824","5"],
    [24475,"HCEP03730566","2024-06-09 06:30:00","9.5453","3.21837","27.314","5.128","7.61","0.257","0.508","0.04","0.04","29.3852","4.6582","54.27","0","SATNPRO1509","30.578","0.4283","5"],
    [24476,"HCEP03730566","2024-06-09 06:45:00","9.5446","3.21836","27.243","5.113","7.61","0.318","0.751","0.03","0.05","29.3856","4.65826","54.11","0","SATNPRO1509","30.338","0.42498","5"],
    [24477,"HCEP03730566","2024-06-09 07:00:00","9.5426","3.21853","27.187","5.079","7.61","0.401","0.943","0.05","0.12","29.389","4.65878","53.75","0","SATNPRO1509","30.424","0.42612","5"],
    [24478,"HCEP03730566","2024-06-09 07:15:00","9.5394","3.21883","27.086","5.067","7.61","0.565","1.341","0.19","0.42","29.3946","4.65964","53.62","0","SATNPRO1509","30.486","0.42704","5"],
    [24479,"HCEP03730566","2024-06-09 07:30:00","9.5378","3.21903","26.953","5.041","7.6","0.589","1.442","0.07","0.19","29.398","4.66015","53.35","0","SATNPRO1509","30.578","0.42826","5"],
    [24480,"HCEP03730566","2024-06-09 07:45:00","9.5365","3.2192","26.824","5.033","7.6","0.666","1.562","0.08","0.13","29.4009","4.66058","53.26","0","SATNPRO1509","30.516000000000002","0.42744","5"],
    [24481,"HCEP03730566","2024-06-09 08:00:00","9.5354","3.21944","26.659","5.021","7.6","0.754","1.836","0.09","0.19","29.4043","4.66108","53.13","0","SATNPRO1509","30.344","0.425","5"],
    [24482,"HCEP03730566","2024-06-09 08:15:00","9.5344","3.21957","26.489","5.02","7.6","0.83","2.36","0.09","0.42","29.4065","4.66139","53.12","0","SATNPRO1509","30.476","0.42684","5"],
    [24483,"HCEP03730566","2024-06-09 08:30:00","9.5339","3.21965","26.327","5.019","7.6","0.808","2.739","0.04","0.31","29.4078","4.66158","53.11","0","SATNPRO1509","30.554","0.42798","5"],
    [24484,"HCEP03730566","2024-06-09 08:45:00","9.5342","3.21957","26.115","5.024","7.6","0.983","2.077","0.11","0.19","29.4067","4.66141","53.17","0","SATNPRO1509","30.492","0.42708","5"],
    [24485,"HCEP03730566","2024-06-09 09:00:00","9.5365","3.21931","25.939","5.02","7.6","1.013","2.8","0.12","0.26","29.4024","4.66074","53.12","0","SATNPRO1509","30.6","0.4286","5"],
    [24486,"HCEP03730566","2024-06-09 09:15:00","9.5365","3.2193","25.747","5.021","7.6","1.047","2.702","0.09","0.24","29.4024","4.66073","53.13","0","SATNPRO1509","30.432000000000002","0.42624","5"],
    [24487,"HCEP03730566","2024-06-09 09:30:00","9.5363","3.21931","25.508","5.022","7.6","1.065","2.745","0.08","0.23","29.4027","4.66076","53.14","0","SATNPRO1509","30.52","0.42746","5"],
    [24488,"HCEP03730566","2024-06-09 09:45:00","9.5361","3.2193","25.203","5.03","7.6","1.082","2.33","0.11","0.18","29.4029","4.66077","53.23","0","SATNPRO1509","30.536","0.4277","5"],
    [24489,"HCEP03730566","2024-06-09 10:00:00","9.5365","3.21921","24.996","5.037","7.6","1.222","3.138","0.09","0.48","29.4018","4.6606","53.31","0","SATNPRO1509","30.474","0.42682","5"],
    [24490,"HCEP03730566","2024-06-09 10:15:00","9.5342","3.21978","24.793","5.021","7.6","1.325","3.692","0.13","0.4","29.4094","4.66172","53.14","0","SATNPRO1509","30.412","0.42594","5"],
    [24491,"HCEP03730566","2024-06-09 10:30:00","9.5338","3.21976","24.634","5.003","7.6","1.156","3.014","0.09","0.3","29.4097","4.66176","52.95","0","SATNPRO1509","30.502","0.42724","5"],
    [24492,"HCEP03730566","2024-06-09 10:45:00","9.5347","3.21974","24.561","5.01","7.59","1.158","3.259","0.06","0.16","29.4087","4.6616","53.02","0","SATNPRO1509","30.5","0.4272","5"],
    [24493,"HCEP03730566","2024-06-09 11:00:00","9.5355","3.21972","24.411","4.999","7.6","1.18","3.367","0.21","0.39","29.408","4.66146","52.9","0","SATNPRO1509","30.34","0.42496","5"],
    [24494,"HCEP03730566","2024-06-09 11:15:00","9.5365","3.2196","24.182","4.971","7.59","1.202","3.383","0.09","0.24","29.406","4.66116","52.61","0","SATNPRO1509","30.442","0.42638","5"],
    [24495,"HCEP03730566","2024-06-09 11:30:00","9.5372","3.21956","23.967","4.961","7.59","1.233","3.703","0.11","0.33","29.4051","4.661","52.51","0","SATNPRO1509","30.434","0.42628","5"],
    [24496,"HCEP03730566","2024-06-09 11:45:00","9.537","3.21959","23.869","4.952","7.59","1.342","3.835","0.21","0.62","29.4056","4.66107","52.41","0","SATNPRO1509","30.364","0.42534","5"],
    [24497,"HCEP03730566","2024-06-09 12:00:00","9.5376","3.2195","23.781","4.954","7.59","1.23","2.971","0.09","0.36","29.4042","4.66086","52.43","0","SATNPRO1509","30.44","0.42634","5"],
    [24498,"HCEP03730566","2024-06-09 12:15:00","9.5372","3.21962","23.752","4.96","7.59","1.202","2.862","0.09","0.28","29.4058","4.66108","52.49","0","SATNPRO1509","30.408","0.42592","5"],
    [24499,"HCEP03730566","2024-06-09 12:30:00","9.5369","3.21966","23.818","4.95","7.59","1.238","2.939","0.12","0.23","29.4065","4.6612","52.38","0","SATNPRO1509","30.392","0.4257","5"],
    [24500,"HCEP03730566","2024-06-09 12:45:00","9.5369","3.2197","23.879","4.946","7.59","1.201","3.193","0.1","0.34","29.4068","4.66125","52.34","0","SATNPRO1509","30.304","0.42446","5"],
    [24501,"HCEP03730566","2024-06-09 13:00:00","9.5363","3.21984","23.976","4.935","7.59","1.239","3.413","0.11","0.27","29.4087","4.66153","52.23","0","SATNPRO1509","30.364","0.4253","5"],
    [24502,"HCEP03730566","2024-06-09 13:15:00","9.5352","3.21997","24.039","4.928","7.59","1.155","3.256","0.08","0.18","29.4108","4.66186","52.15","0","SATNPRO1509","30.362","0.42526","5"],
    [24503,"HCEP03730566","2024-06-09 13:30:00","9.5344","3.22011","24.146","4.926","7.59","1.173","3.21","0.08","0.15","29.4129","4.66217","52.13","0","SATNPRO1509","30.274","0.42402","5"],
    [24504,"HCEP03730566","2024-06-09 13:45:00","9.5346","3.22009","24.291","4.931","7.59","1.182","3.001","0.08","0.19","29.4125","4.66213","52.18","0","SATNPRO1509","30.45","0.42652","5"],
    [24505,"HCEP03730566","2024-06-09 14:00:00","9.5349","3.22005","24.401","4.925","7.59","1.121","3.112","0.06","0.17","29.4117","4.66202","52.12","0","SATNPRO1509","30.471999999999998","0.42682","5"],
    [24506,"HCEP03730566","2024-06-09 14:15:00","9.5348","3.22023","24.517","4.928","7.59","1.116","3.454","0.06","0.13","29.4136","4.6623","52.15","0","SATNPRO1509","30.374","0.42542","5"],
    [24507,"HCEP03730566","2024-06-09 14:30:00","9.5341","3.22026","24.681","4.916","7.59","1.066","3.038","0.06","0.16","29.4144","4.66243","52.02","0","SATNPRO1509","30.348","0.42508","5"],
    [24508,"HCEP03730566","2024-06-09 14:45:00","9.5343","3.22029","24.874","4.928","7.6","1.065","3.078","0.1","0.2","29.4145","4.66246","52.15","0","SATNPRO1509","30.346","0.42506","5"],
    [24509,"HCEP03730566","2024-06-09 15:00:00","9.5349","3.22038","25.032","4.92","7.6","1.102","3.569","0.05","0.12","29.4149","4.66251","52.06","0","SATNPRO1509","30.262","0.42386","5"],
    [24510,"HCEP03730566","2024-06-09 15:15:00","9.5368","3.22021","25.239","4.898","7.6","1.142","3.537","0.08","0.21","29.4115","4.662","51.84","0","SATNPRO1509","30.266","0.42396","5"],
    [24511,"HCEP03730566","2024-06-09 15:30:00","9.5415","3.21972","25.43","4.898","7.6","1.117","3.424","0.06","0.14","29.4026","4.66065","51.84","0","SATNPRO1509","30.23","0.42342","5"],
    [24512,"HCEP03730566","2024-06-09 15:45:00","9.5413","3.21987","25.601","4.896","7.6","1.125","4.037","0.04","0.18","29.4042","4.66089","51.82","0","SATNPRO1509","30.28","0.42412","5"],
    [24513,"HCEP03730566","2024-06-09 16:00:00","9.5475","3.2191","25.892","4.89","7.6","1.143","4.463","0.04","0.21","29.3913","4.65895","51.76","0","SATNPRO1509","30.128","0.422","5"],
    [24514,"HCEP03730566","2024-06-09 16:15:00","9.5565","3.21837","26.056","4.87","7.6","1.15","3.857","0.05","0.28","29.3764","4.65667","51.55","0","SATNPRO1509","29.918","0.41902","5"],
    [24515,"HCEP03730566","2024-06-09 16:30:00","9.5586","3.21806","26.216","4.875","7.59","1.131","3.922","0.06","0.2","29.3716","4.65595","51.6","0","SATNPRO1509","30.146","0.42226","5"],
    [24516,"HCEP03730566","2024-06-09 16:45:00","9.5563","3.21834","26.525","4.877","7.59","1.164","4.46","0.05","0.16","29.3761","4.65666","51.63","0","SATNPRO1509","30.118","0.42184","5"],
    [24517,"HCEP03730566","2024-06-09 17:00:00","9.56","3.218","26.723","4.858","7.59","1.168","4.254","0.04","0.16","29.3696","4.65567","51.43","0","SATNPRO1509","30","0.42018","5"],
    [24518,"HCEP03730566","2024-06-09 17:15:00","9.56","3.21804","26.967","4.858","7.59","1.17","4.558","0.07","0.18","29.37","4.65574","51.43","0","SATNPRO1509","30.066","0.4211","5"],
    [24519,"HCEP03730566","2024-06-09 17:30:00","9.5602","3.21808","27.086","4.854","7.59","1.127","4.277","0.06","0.19","29.3701","4.65576","51.38","0","SATNPRO1509","30.032","0.42068","5"],
    [24520,"HCEP03730566","2024-06-09 17:45:00","9.5593","3.21808","27.381","4.854","7.59","1.101","3.822","0.05","0.16","29.3707","4.65588","51.38","0","SATNPRO1509","30.026","0.42058","5"],
    [24521,"HCEP03730566","2024-06-09 18:00:00","9.5599","3.21798","27.434","4.853","7.59","1.072","3.57","0.07","0.16","29.3691","4.65565","51.38","0","SATNPRO1509","30.006","0.42028","5"],
    [24522,"HCEP03730566","2024-06-09 18:15:00","9.5581","3.21823","27.572","4.845","7.59","1.057","3.743","0.05","0.15","29.3732","4.65627","51.29","0","SATNPRO1509","29.984","0.42","5"],
    [24523,"HCEP03730566","2024-06-09 18:30:00","9.5595","3.21805","27.687","4.85","7.59","0.989","3.6","0.06","0.24","29.3701","4.65581","51.34","0","SATNPRO1509","29.918","0.41904","5"],
    [24524,"HCEP03730566","2024-06-09 18:45:00","9.5585","3.21819","27.874","4.848","7.59","1.001","4.465","0.03","0.13","29.3723","4.65615","51.31","0","SATNPRO1509","29.966","0.41972","5"],
    [24525,"HCEP03730566","2024-06-09 19:00:00","9.5588","3.21821","27.942","4.847","7.59","0.93","4.277","0.04","0.14","29.3722","4.65614","51.31","0","SATNPRO1509","29.977999999999998","0.4199","5"],
    [24526,"HCEP03730566","2024-06-09 19:15:00","9.5563","3.21851","28.052","4.837","7.59","0.906","4.699","0.04","0.12","29.3772","4.65691","51.2","0","SATNPRO1509","29.914","0.41898","5"],
    [24527,"HCEP03730566","2024-06-09 19:30:00","9.5561","3.21854","27.983","4.826","7.59","0.844","4.187","0.04","0.13","29.3777","4.65697","51.09","0","SATNPRO1509","29.978","0.41992","5"],
    [24528,"HCEP03730566","2024-06-09 19:45:00","9.5547","3.21872","27.962","4.823","7.59","0.828","4.299","0.05","0.13","29.3806","4.65741","51.05","0","SATNPRO1509","29.95","0.41952","5"],
    [24529,"HCEP03730566","2024-06-09 20:00:00","9.5528","3.21892","28.015","4.804","7.59","0.84","4.418","0.11","0.12","29.3843","4.65798","50.85","0","SATNPRO1509","29.864","0.41826","5"],
    [24530,"HCEP03730566","2024-06-09 20:15:00","9.5512","3.21911","28.07","4.801","7.59","0.842","4.575","0.05","0.12","29.3874","4.65846","50.82","0","SATNPRO1509","30.003999999999998","0.4203","5"],
    [24531,"HCEP03730566","2024-06-09 20:30:00","9.5502","3.21924","28.082","4.799","7.59","0.827","4.633","0.04","0.16","29.3896","4.65879","50.8","0","SATNPRO1509","29.838","0.41796","5"],
    [24532,"HCEP03730566","2024-06-09 20:45:00","9.5493","3.21936","28.051","4.801","7.59","0.799","4.354","0.03","0.1","29.3915","4.65908","50.81","0","SATNPRO1509","29.902","0.41888","5"],
    [24533,"HCEP03730566","2024-06-09 21:00:00","9.548","3.2195","28.096","4.803","7.59","0.828","4.554","0.05","0.08","29.394","4.65946","50.83","0","SATNPRO1509","30.006","0.42026","5"],
    [24534,"HCEP03730566","2024-06-09 21:15:00","9.5471","3.21963","27.968","4.795","7.59","0.854","5.79","0.04","0.11","29.3961","4.65977","50.75","0","SATNPRO1509","29.983999999999998","0.42","5"],
    [24535,"HCEP03730566","2024-06-09 21:30:00","9.5472","3.21964","27.982","4.78","7.59","0.854","7.779","0.05","0.07","29.3962","4.65978","50.59","0","SATNPRO1509","29.96","0.41962","5"],
    [24536,"HCEP03730566","2024-06-09 21:45:00","9.5479","3.21958","27.935","4.792","7.58","0.829","11.334","0.03","0.05","29.3949","4.65958","50.73","0","SATNPRO1509","29.983999999999998","0.41994","5"],
    [24537,"HCEP03730566","2024-06-09 22:00:00","9.5468","3.2197","27.812","4.775","7.58","0.87","16.411","0.05","0.06","29.3972","4.65992","50.54","0","SATNPRO1509","29.97","0.41978","5"],
    [24538,"HCEP03730566","2024-06-09 22:15:00","9.5471","3.21971","27.775","4.779","7.58","0.844","21.411","0.04","0.06","29.397","4.65989","50.58","0","SATNPRO1509","29.934","0.41928","5"],
    [24539,"HCEP03730566","2024-06-09 22:30:00","9.5478","3.21948","27.684","4.808","7.58","0.747","24.98","0.03","0.04","29.3942","4.65946","50.89","0","SATNPRO1509","30.072","0.42124","5"],
    [24540,"HCEP03730566","2024-06-09 22:45:00","9.5549","3.21895","27.603","4.804","7.59","0.785","27.871","0.03","0.04","29.383","4.65773","50.85","0","SATNPRO1509","29.906","0.4189","5"],
    [24541,"HCEP03730566","2024-06-09 23:00:00","9.5587","3.2187","27.505","4.733","7.58","0.877","29.494","0.05","0.06","29.3774","4.65686","50.1","0","SATNPRO1509","29.776","0.4171","5"],
    [24542,"HCEP03730566","2024-06-09 23:15:00","9.5558","3.21896","27.424","4.724","7.58","0.848","29.998","0.04","0.05","29.3824","4.65762","50","0","SATNPRO1509","29.782","0.41712","5"],
    [24543,"HCEP03730566","2024-06-09 23:30:00","9.5553","3.21902","27.336","4.738","7.58","0.816","28.608","0.02","0.05","29.3835","4.65778","50.15","0","SATNPRO1509","29.926000000000002","0.4192","5"],
    [24544,"HCEP03730566","2024-06-09 23:45:00","9.5579","3.21878","27.271","4.747","7.58","0.781","26.45","0.03","0.04","29.379","4.65708","50.25","0","SATNPRO1509","29.954","0.41956","5"],
    [24545,"HCEP03730566","2024-06-10 00:00:00","9.5534","3.21918","27.121","4.752","7.58","0.764","24.986","0.03","0.04","29.3868","4.65827","50.3","0","SATNPRO1509","29.998","0.42018","5"],
    [24546,"HCEP03730566","2024-06-10 00:15:00","9.5604","3.21854","27.016","4.762","7.58","0.755","23.196","0.03","0.06","29.3746","4.65639","50.41","0","SATNPRO1509","29.779999999999998","0.4171","5"],
    [24547,"HCEP03730566","2024-06-10 00:30:00","9.5653","3.2179","26.93","4.805","7.58","0.712","21.92","0.04","0.1","29.3642","4.65482","50.86","0","SATNPRO1509","29.742","0.41656","5"],
    [24548,"HCEP03730566","2024-06-10 00:45:00","9.5624","3.21853","26.875","4.798","7.58","0.744","22.535","0.03","0.07","29.3729","4.65612","50.79","0","SATNPRO1509","29.852","0.41808","5"],
    [24549,"HCEP03730566","2024-06-10 01:00:00","9.5585","3.21883","26.814","4.807","7.58","0.762","23.632","0.03","0.14","29.3791","4.65707","50.88","0","SATNPRO1509","29.822","0.41772","5"],
    [24550,"HCEP03730566","2024-06-10 01:15:00","9.5542","3.21896","26.74","4.788","7.58","0.793","24.565","0.04","0.09","29.3841","4.65785","50.69","0","SATNPRO1509","30.01","0.42032","5"],
    [24551,"HCEP03730566","2024-06-10 01:30:00","9.5545","3.21897","26.718","4.776","7.58","0.814","24.631","0.07","0.16","29.3839","4.65782","50.55","0","SATNPRO1509","29.942","0.41938","5"],
    [24552,"HCEP03730566","2024-06-10 01:45:00","9.5526","3.21901","26.716","4.773","7.58","0.821","23.945","0.05","0.26","29.3858","4.65812","50.52","0","SATNPRO1509","30.012","0.4204","5"],
    [24553,"HCEP03730566","2024-06-10 02:00:00","9.551","3.21924","26.67","4.763","7.58","0.82","23.108","0.03","0.27","29.3896","4.65869","50.41","0","SATNPRO1509","29.986","0.42002","5"],
    [24554,"HCEP03730566","2024-06-10 02:15:00","9.5506","3.21928","26.622","4.752","7.58","0.836","22.286","0.04","0.34","29.3902","4.65879","50.3","0","SATNPRO1509","30.004","0.42026","5"],
    [24555,"HCEP03730566","2024-06-10 02:30:00","9.5488","3.21951","26.693","4.755","7.58","0.829","20.295","0.04","0.43","29.3941","4.65937","50.33","0","SATNPRO1509","29.94","0.41936","5"],
    [24556,"HCEP03730566","2024-06-10 02:45:00","9.546","3.21987","26.744","4.742","7.58","0.807","16.239","0.04","0.89","29.4","4.66027","50.19","0","SATNPRO1509","29.904","0.41886","5"],
    [24557,"HCEP03730566","2024-06-10 03:00:00","9.5435","3.22012","26.752","4.74","7.58","0.78","14.568","0.04","1","29.4044","4.66095","50.17","0","SATNPRO1509","30","0.42018","5"],
    [24558,"HCEP03730566","2024-06-10 03:15:00","9.5446","3.22002","26.785","4.755","7.58","0.792","17.045","0.04","0.58","29.4025","4.66066","50.33","0","SATNPRO1509","29.902","0.41882","5"],
    [24559,"HCEP03730566","2024-06-10 03:30:00","9.5448","3.22002","26.804","4.751","7.58","0.815","20.134","0.05","0.19","29.4024","4.66064","50.28","0","SATNPRO1509","29.936","0.41932","5"],
    [24560,"HCEP03730566","2024-06-10 03:45:00","9.5443","3.22006","26.84","4.772","7.58","0.779","20.506","0.04","0.18","29.4032","4.66077","50.51","0","SATNPRO1509","30.012","0.42038","5"],
    [24561,"HCEP03730566","2024-06-10 04:00:00","9.5423","3.22026","26.905","4.782","7.58","0.852","22.252","0.05","0.36","29.4068","4.66133","50.61","0","SATNPRO1509","30.058","0.42104","5"],
    [24562,"HCEP03730566","2024-06-10 04:15:00","9.5408","3.22045","26.91","4.791","7.58","0.848","24.927","0.04","0.28","29.4099","4.6618","50.7","0","SATNPRO1509","30.009999999999998","0.42032","5"],
    [24563,"HCEP03730566","2024-06-10 04:30:00","9.5395","3.2208","26.943","4.816","7.58","0.815","27.082","0.04","0.15","29.4145","4.66248","50.97","0","SATNPRO1509","30.304","0.42448","5"],
    [24564,"HCEP03730566","2024-06-10 04:45:00","9.5382","3.22129","26.973","4.899","7.59","0.86","27.99","0.06","0.22","29.4206","4.66338","51.85","0","SATNPRO1509","30.358","0.42516","5"],
    [24565,"HCEP03730566","2024-06-10 05:00:00","9.5392","3.22153","26.998","4.974","7.59","0.79","26.592","0.06","0.24","29.4222","4.66358","52.65","0","SATNPRO1509","30.564","0.4281","5"],
    [24566,"HCEP03730566","2024-06-10 05:15:00","9.5397","3.22148","27.046","5.01","7.6","0.767","24.968","0.06","0.12","29.4212","4.66344","53.03","0","SATNPRO1509","30.644000000000002","0.42922","5"],
    [24567,"HCEP03730566","2024-06-10 05:30:00","9.5402","3.22132","27.08","5.023","7.6","0.794","25.249","0.05","0.28","29.4192","4.66315","53.17","0","SATNPRO1509","30.546","0.42786","5"],
    [24568,"HCEP03730566","2024-06-10 05:45:00","9.5419","3.22119","27.106","5.024","7.6","0.825","27.197","0.07","0.32","29.4164","4.66272","53.18","0","SATNPRO1509","30.49","0.42708","5"],
    [24569,"HCEP03730566","2024-06-10 06:00:00","9.5436","3.2211","27.147","5.037","7.6","0.803","28.083","0.06","0.32","29.4142","4.66237","53.32","0","SATNPRO1509","30.578","0.4283","5"],
    [24570,"HCEP03730566","2024-06-10 06:15:00","9.5455","3.22097","27.16","5.044","7.61","0.772","28.06","0.07","0.2","29.4113","4.66193","53.4","0","SATNPRO1509","30.582","0.42836","5"],
    [24571,"HCEP03730566","2024-06-10 06:30:00","9.5453","3.22101","27.18","5.041","7.61","0.773","25.636","0.06","0.16","29.4119","4.66201","53.36","0","SATNPRO1509","30.516000000000002","0.4274","5"],
    [24572,"HCEP03730566","2024-06-10 06:45:00","9.545","3.22095","27.169","5.025","7.61","0.754","20.599","0.06","0.21","29.4114","4.66196","53.18","0","SATNPRO1509","30.42","0.4261","5"],
    [24573,"HCEP03730566","2024-06-10 07:00:00","9.5457","3.22076","27.127","5.006","7.61","0.732","20.856","0.04","0.11","29.409","4.6616","52.99","0","SATNPRO1509","30.386","0.4256","5"],
    [24574,"HCEP03730566","2024-06-10 07:15:00","9.5453","3.22075","27.098","4.967","7.6","0.744","21.698","0.04","0.23","29.4092","4.66163","52.58","0","SATNPRO1509","30.31","0.42452","5"],
    [24575,"HCEP03730566","2024-06-10 07:30:00","9.5443","3.2208","27.064","4.94","7.6","0.777","18.567","0.05","0.21","29.4106","4.66185","52.29","0","SATNPRO1509","30.233999999999998","0.4235","5"],
    [24576,"HCEP03730566","2024-06-10 07:45:00","9.5451","3.22068","26.998","4.918","7.6","0.862","15.977","0.08","0.13","29.4087","4.66155","52.05","0","SATNPRO1509","30.268","0.42396","5"],
    [24577,"HCEP03730566","2024-06-10 08:00:00","9.5442","3.22073","26.921","4.892","7.6","0.868","13.003","0.08","0.16","29.4101","4.66176","51.78","0","SATNPRO1509","30.172","0.4226","5"],
    [24578,"HCEP03730566","2024-06-10 08:15:00","9.5427","3.22078","26.816","4.876","7.59","0.833","9.576","0.05","0.31","29.4118","4.66203","51.61","0","SATNPRO1509","30.252","0.42374","5"],
    [24579,"HCEP03730566","2024-06-10 08:30:00","9.542","3.22077","26.73","4.864","7.59","0.772","6.625","0.03","0.19","29.4123","4.66211","51.49","0","SATNPRO1509","30.218","0.42326","5"],
    [24580,"HCEP03730566","2024-06-10 08:45:00","9.5421","3.22076","26.651","4.923","7.59","0.748","4.585","0.04","0.2","29.4122","4.66209","52.11","0","SATNPRO1509","30.324","0.42472","5"],
    [24581,"HCEP03730566","2024-06-10 09:00:00","9.5421","3.22082","26.534","4.924","7.59","0.767","3.722","0.06","0.25","29.4129","4.66218","52.12","0","SATNPRO1509","30.454","0.42656","5"],
    [24582,"HCEP03730566","2024-06-10 09:15:00","9.5419","3.22084","26.348","4.919","7.59","0.728","3.153","0.04","0.27","29.4132","4.66222","52.07","0","SATNPRO1509","30.45","0.4265","5"],
    [24583,"HCEP03730566","2024-06-10 09:30:00","9.5425","3.2209","26.153","4.917","7.59","0.847","3.423","0.06","0.31","29.4134","4.66223","52.04","0","SATNPRO1509","30.292","0.42432","5"],
    [24584,"HCEP03730566","2024-06-10 09:45:00","9.5424","3.22102","25.926","4.926","7.6","0.832","3.089","0.05","0.2","29.4148","4.66241","52.14","0","SATNPRO1509","30.368","0.42538","5"],
    [24585,"HCEP03730566","2024-06-10 10:00:00","9.5429","3.22108","25.725","4.954","7.6","0.846","3.115","0.09","0.2","29.4151","4.66244","52.43","0","SATNPRO1509","30.552","0.42796","5"],
    [24586,"HCEP03730566","2024-06-10 10:15:00","9.5434","3.22108","25.49","4.966","7.6","0.845","3.014","0.05","0.38","29.4148","4.66237","52.56","0","SATNPRO1509","30.5","0.42718","5"],
    [24587,"HCEP03730566","2024-06-10 10:30:00","9.5441","3.22104","25.295","4.979","7.6","0.867","2.967","0.05","0.33","29.4138","4.66221","52.7","0","SATNPRO1509","30.564","0.42812","5"],
    [24588,"HCEP03730566","2024-06-10 10:45:00","9.545","3.22094","25.108","4.991","7.6","0.858","2.76","0.05","0.18","29.4122","4.66195","52.83","0","SATNPRO1509","30.53","0.4276","5"],
    [24589,"HCEP03730566","2024-06-10 11:00:00","9.546","3.22084","24.915","5.005","7.6","0.893","2.727","0.06","0.25","29.4105","4.66167","52.98","0","SATNPRO1509","30.544","0.42782","5"],
    [24590,"HCEP03730566","2024-06-10 11:15:00","9.5454","3.22093","24.749","5.01","7.6","0.911","2.781","0.06","0.24","29.4119","4.66187","53.03","0","SATNPRO1509","30.548","0.42788","5"],
    [24591,"HCEP03730566","2024-06-10 11:30:00","9.5476","3.22076","24.582","5.016","7.6","0.908","2.624","0.06","0.18","29.4085","4.66133","53.09","0","SATNPRO1509","30.72","0.43024","5"],
    [24592,"HCEP03730566","2024-06-10 11:45:00","9.5471","3.22082","24.437","5.034","7.6","0.97","3.14","0.09","0.29","29.4096","4.66149","53.28","0","SATNPRO1509","30.656","0.42938","5"],
    [24593,"HCEP03730566","2024-06-10 12:00:00","9.5464","3.22092","24.326","5.029","7.61","0.978","3.133","0.08","0.26","29.4112","4.66174","53.24","0","SATNPRO1509","30.492","0.4271","5"],
    [24594,"HCEP03730566","2024-06-10 12:15:00","9.5477","3.22099","24.21","5.022","7.61","0.902","3.171","0.08","0.19","29.4109","4.66167","53.16","0","SATNPRO1509","30.562","0.42804","5"],
    [24595,"HCEP03730566","2024-06-10 12:30:00","9.5472","3.22109","24.145","5.032","7.61","0.951","2.654","0.08","0.29","29.4122","4.66186","53.26","0","SATNPRO1509","30.496","0.42714","5"],
    [24596,"HCEP03730566","2024-06-10 12:45:00","9.5459","3.22124","24.072","5.043","7.6","0.957","2.803","0.07","0.4","29.415","4.66227","53.38","0","SATNPRO1509","30.652","0.42934","5"],
    [24597,"HCEP03730566","2024-06-10 13:00:00","9.5443","3.22138","24.077","5.046","7.6","0.956","2.638","0.06","0.16","29.4176","4.66267","53.41","0","SATNPRO1509","30.53","0.42762","5"],
    [24598,"HCEP03730566","2024-06-10 13:15:00","9.543","3.22149","24.1","5.035","7.6","0.965","2.782","0.08","0.27","29.4199","4.66302","53.3","0","SATNPRO1509","30.616","0.42882","5"],
    [24599,"HCEP03730566","2024-06-10 13:30:00","9.5411","3.22164","24.132","5.028","7.6","0.977","2.723","0.07","0.33","29.4228","4.66348","53.22","0","SATNPRO1509","30.716","0.43026","5"],
    [24600,"HCEP03730566","2024-06-10 13:45:00","9.5404","3.22171","24.193","5.028","7.6","0.965","2.65","0.09","0.17","29.4241","4.66367","53.22","0","SATNPRO1509","30.6","0.4286","5"],
    [24601,"HCEP03730566","2024-06-10 14:00:00","9.5407","3.22177","24.258","5.026","7.6","0.956","2.997","0.09","0.25","29.4244","4.66373","53.2","0","SATNPRO1509","30.568","0.42816","5"],
    [24602,"HCEP03730566","2024-06-10 14:15:00","9.5407","3.22176","24.35","5.011","7.6","0.978","3.407","0.08","0.21","29.4243","4.66371","53.04","0","SATNPRO1509","30.512","0.42734","5"],
    [24603,"HCEP03730566","2024-06-10 14:30:00","9.5406","3.22174","24.429","5.003","7.6","1.066","3.327","0.14","0.35","29.4241","4.66369","52.95","0","SATNPRO1509","30.586","0.42832","5"],
    [24604,"HCEP03730566","2024-06-10 14:45:00","9.5401","3.22188","24.538","4.998","7.6","0.982","3.132","0.07","0.31","29.426","4.66398","52.91","0","SATNPRO1509","30.598","0.4286","5"],
    [24605,"HCEP03730566","2024-06-10 15:00:00","9.5403","3.22192","24.667","4.984","7.6","1.047","3.415","0.07","0.28","29.4262","4.664","52.76","0","SATNPRO1509","30.616","0.4288","5"],
    [24606,"HCEP03730566","2024-06-10 15:15:00","9.541","3.22187","24.815","4.971","7.6","1.057","2.979","0.07","0.17","29.425","4.66384","52.62","0","SATNPRO1509","30.554","0.428","5"],
    [24607,"HCEP03730566","2024-06-10 15:30:00","9.541","3.22182","24.979","4.955","7.6","1.087","3.454","0.08","0.37","29.4244","4.66375","52.45","0","SATNPRO1509","30.482","0.4269","5"],
    [24608,"HCEP03730566","2024-06-10 15:45:00","9.541","3.22162","25.145","4.923","7.6","1.087","3.426","0.11","0.65","29.4223","4.66346","52.11","0","SATNPRO1509","30.396","0.42572","5"],
    [24609,"HCEP03730566","2024-06-10 16:00:00","9.5425","3.22119","25.303","4.886","7.59","1.066","3.359","0.06","0.7","29.4168","4.66266","51.71","0","SATNPRO1509","30.434","0.42628","5"],
    [24610,"HCEP03730566","2024-06-10 16:15:00","9.5444","3.22086","25.489","4.858","7.59","1.07","3.261","0.11","0.3","29.4117","4.66191","51.42","0","SATNPRO1509","30.344","0.42506","5"],
    [24611,"HCEP03730566","2024-06-10 16:30:00","9.5458","3.22054","25.685","4.79","7.59","1.095","3.514","0.07","0.2","29.4073","4.66127","50.7","0","SATNPRO1509","30.032","0.42066","5"],
    [24612,"HCEP03730566","2024-06-10 16:45:00","9.548400000000001","3.2202","25.873","4.733","7.58","1.169","3.885","0.06","0.26","29.4016","4.66041","50.1","0","SATNPRO1509","29.996000000000002","0.42016","5"],
    [24613,"HCEP03730566","2024-06-10 17:00:00","9.5513","3.21984","26.068","4.7","7.58","1.162","3.692","0.08","0.2","29.3956","4.65951","49.75","0","SATNPRO1509","29.874","0.41848","5"],
    [24614,"HCEP03730566","2024-06-10 17:15:00","9.5547","3.21948","26.281","4.691","7.58","1.2","3.652","0.09","0.23","29.3891","4.65853","49.66","0","SATNPRO1509","29.887999999999998","0.41858","5"],
    [24615,"HCEP03730566","2024-06-10 17:30:00","9.5566","3.21929","26.472","4.675","7.58","1.19","3.831","0.07","0.32","29.3855","4.65799","49.49","0","SATNPRO1509","29.72","0.41628","5"],
    [24616,"HCEP03730566","2024-06-10 17:45:00","9.5609","3.21883","26.688","4.633","7.57","1.187","3.924","0.06","0.17","29.3772","4.65675","49.05","0","SATNPRO1509","29.67","0.41558","5"],
    [24617,"HCEP03730566","2024-06-10 18:00:00","9.5653","3.21853","26.891","4.604","7.57","1.262","4.05","0.1","0.14","29.3705","4.65572","48.74","0","SATNPRO1509","29.58","0.41428","5"],
    [24618,"HCEP03730566","2024-06-10 18:15:00","9.5682","3.21823","27.057","4.571","7.57","1.275","4.214","0.07","0.15","29.365","4.6549","48.39","0","SATNPRO1509","29.446","0.41246","5"],
    [24619,"HCEP03730566","2024-06-10 18:30:00","9.5721","3.21786","27.214","4.539","7.56","1.372","4.073","0.09","0.24","29.3582","4.65385","48.06","0","SATNPRO1509","29.382","0.41156","5"],
    [24620,"HCEP03730566","2024-06-10 18:45:00","9.5746","3.21764","27.384","4.521","7.56","1.366","4.064","0.07","0.13","29.3538","4.65319","47.86","0","SATNPRO1509","29.346","0.41108","5"],
    [24621,"HCEP03730566","2024-06-10 19:00:00","9.5764","3.21745","27.505","4.511","7.56","1.365","4.175","0.08","0.5","29.3503","4.65267","47.77","0","SATNPRO1509","29.308","0.41052","5"],
    [24622,"HCEP03730566","2024-06-10 19:15:00","9.5763","3.21749","27.67","4.503","7.56","1.339","4.545","0.05","0.28","29.3507","4.65274","47.67","0","SATNPRO1509","29.266000000000002","0.4099","5"],
    [24623,"HCEP03730566","2024-06-10 19:30:00","9.5789","3.21729","27.791","4.495","7.56","1.29","4.226","0.07","0.26","29.3466","4.6521","47.6","0","SATNPRO1509","29.326","0.41078","5"],
    [24624,"HCEP03730566","2024-06-10 19:45:00","9.5768","3.21746","27.921","4.489","7.56","1.314","4.898","0.08","0.5","29.35","4.65264","47.53","0","SATNPRO1509","29.358","0.41122","5"],
    [24625,"HCEP03730566","2024-06-10 20:00:00","9.5772","3.21743","27.939","4.488","7.55","1.313","4.339","0.13","0.37","29.3493","4.65253","47.52","0","SATNPRO1509","29.328","0.41076","5"],
    [24626,"HCEP03730566","2024-06-10 20:15:00","9.5739","3.21772","27.893","4.491","7.55","1.336","4.449","0.08","0.31","29.3549","4.65339","47.55","0","SATNPRO1509","29.39","0.41166","5"],
    [24627,"HCEP03730566","2024-06-10 20:30:00","9.5721","3.21787","27.967","4.498","7.55","1.275","4.211","0.06","0.49","29.3579","4.65386","47.62","0","SATNPRO1509","29.272000000000002","0.41006","5"],
    [24628,"HCEP03730566","2024-06-10 20:45:00","9.5703","3.21806","28.042","4.505","7.55","1.217","4.56","0.06","0.31","29.3613","4.65437","47.7","0","SATNPRO1509","29.334","0.4109","5"],
    [24629,"HCEP03730566","2024-06-10 21:00:00","9.568","3.21828","28.064","4.506","7.55","1.165","4.33","0.05","0.3","29.3653","4.65499","47.71","0","SATNPRO1509","29.426","0.41212","5"],
    [24630,"HCEP03730566","2024-06-10 21:15:00","9.5654","3.21862","28.077","4.506","7.55","1.111","4.607","0.07","0.42","29.3709","4.65584","47.71","0","SATNPRO1509","29.483999999999998","0.41296","5"],
    [24631,"HCEP03730566","2024-06-10 21:30:00","9.5617","3.219","28.052","4.519","7.55","1.09","4.575","0.05","0.44","29.3778","4.65689","47.84","0","SATNPRO1509","29.514","0.41336","5"],
    [24632,"HCEP03730566","2024-06-10 21:45:00","9.5621","3.21895","28.001","4.533","7.55","1.041","4.384","0.07","0.57","29.377","4.65677","47.99","0","SATNPRO1509","29.546","0.41386","5"],
    [24633,"HCEP03730566","2024-06-10 22:00:00","9.5602","3.2192","27.985","4.548","7.55","0.958","3.95","0.04","0.28","29.381","4.65738","48.15","0","SATNPRO1509","29.65","0.41532","5"],
    [24634,"HCEP03730566","2024-06-10 22:15:00","9.5583","3.2195","27.936","4.555","7.56","0.871","4.376","0.03","0.32","29.3856","4.65807","48.22","0","SATNPRO1509","29.580000000000002","0.41434","5"],
    [24635,"HCEP03730566","2024-06-10 22:30:00","9.5572","3.21968","27.883","4.559","7.56","0.771","4.542","0.01","0.36","29.3884","4.65849","48.26","0","SATNPRO1509","29.612","0.41478","5"],
    [24636,"HCEP03730566","2024-06-10 22:45:00","9.5564","3.21992","27.749","4.571","7.56","0.639","4.248","0.01","0.25","29.3915","4.65893","48.39","0","SATNPRO1509","29.728","0.41642","5"],
    [24637,"HCEP03730566","2024-06-10 23:00:00","9.5545","3.2201","27.571","4.61","7.56","0.519","3.852","0.01","0.21","29.395","4.65946","48.81","0","SATNPRO1509","29.894","0.4187","5"],
    [24638,"HCEP03730566","2024-06-10 23:15:00","9.5549","3.22017","27.527","4.656","7.56","0.407","4.496","0","0.24","29.3953","4.65949","49.28","0","SATNPRO1509","29.983999999999998","0.42002","5"],
    [24639,"HCEP03730566","2024-06-10 23:30:00","9.5579","3.21978","27.452","4.645","7.56","0.302","5.766","0","0.21","29.389","4.65853","49.17","0","SATNPRO1509","29.936","0.41928","5"],
    [24640,"HCEP03730566","2024-06-10 23:45:00","9.5566","3.21999","27.384","4.632","7.56","0.216","8.97","0.01","0.15","29.3922","4.65901","49.03","0","SATNPRO1509","29.916","0.41902","5"],
    [24641,"HCEP03730566","2024-06-11 00:00:00","9.5569","3.22004","27.307","4.633","7.57","0.166","15.044","0.01","0.2","29.3925","4.65904","49.05","0","SATNPRO1509","29.624000000000002","0.41494","5"],
    [24642,"HCEP03730566","2024-06-11 00:15:00","9.5596","3.2197","27.18","4.635","7.57","0.15","24.769","0.01","0.16","29.3869","4.65818","49.07","0","SATNPRO1509","29.816","0.41762","5"],
    [24643,"HCEP03730566","2024-06-11 00:30:00","9.5597","3.21956","27.127","4.639","7.57","0.172","41.094","0.01","0.12","29.3854","4.65796","49.11","0","SATNPRO1509","29.856","0.41822","5"],
    [24644,"HCEP03730566","2024-06-11 00:45:00","9.5602","3.21963","27.041","4.643","7.57","0.22","61.914","0.04","0.15","29.3857","4.658","49.16","0","SATNPRO1509","29.86","0.4182","5"],
    [24645,"HCEP03730566","2024-06-11 01:00:00","9.5632","3.21912","26.952","4.665","7.57","0.258","83.399","0.02","0.13","29.3782","4.65686","49.39","0","SATNPRO1509","29.84","0.41796","5"],
    [24646,"HCEP03730566","2024-06-11 01:15:00","9.5647","3.21959","26.868","4.693","7.57","0.317","102.328","0.02","0.1","29.3817","4.65734","49.69","0","SATNPRO1509","30.044","0.42076","5"],
    [24647,"HCEP03730566","2024-06-11 01:30:00","9.5633","3.21971","26.817","4.74","7.57","0.383","109.765","0.04","0.13","29.3842","4.65771","50.19","0","SATNPRO1509","30.034","0.42072","5"],
    [24648,"HCEP03730566","2024-06-11 01:45:00","9.5635","3.2198","26.754","4.746","7.58","0.434","110.784","0.04","0.16","29.3849","4.6578","50.25","0","SATNPRO1509","30.152","0.42232","5"],
    [24649,"HCEP03730566","2024-06-11 02:00:00","9.5648","3.21978","26.687","4.736","7.58","0.495","107.466","0.03","0.16","29.3837","4.6576","50.15","0","SATNPRO1509","29.945999999999998","0.41944","5"],
    [24650,"HCEP03730566","2024-06-11 02:15:00","9.5649","3.21984","26.632","4.728","7.58","0.539","104.376","0.04","0.16","29.3843","4.65768","50.05","0","SATNPRO1509","29.948","0.4195","5"],
    [24651,"HCEP03730566","2024-06-11 02:30:00","9.5667","3.21972","26.549","4.723","7.58","0.533","103.346","0.04","0.06","29.3816","4.65726","50.01","0","SATNPRO1509","29.922","0.41912","5"],
    [24652,"HCEP03730566","2024-06-11 02:45:00","9.5668","3.21975","26.529","4.722","7.58","0.534","102.073","0.05","0","29.3818","4.65728","50","0","SATNPRO1509","30.076","0.42128","5"],
    [24653,"HCEP03730566","2024-06-11 03:00:00","9.568","3.21971","26.542","4.735","7.58","0.504","84.843","0.03","0.03","29.3804","4.65707","50.13","0","SATNPRO1509","29.798","0.41734","5"],
    [24654,"HCEP03730566","2024-06-11 03:15:00","9.5686","3.21971","26.577","4.732","7.58","0.493","59.804","0.03","0.02","29.3799","4.65699","50.11","0","SATNPRO1509","29.848","0.41806","5"],
    [24655,"HCEP03730566","2024-06-11 03:30:00","9.5698","3.21969","26.588","4.732","7.58","0.474","31.71","0.05","0.06","29.3787","4.6568","50.11","0","SATNPRO1509","29.978","0.4199","5"],
    [24656,"HCEP03730566","2024-06-11 03:45:00","9.571","3.21966","26.597","4.741","7.58","0.415","9.94","0.02","0.01","29.3774","4.65659","50.2","0","SATNPRO1509","29.948","0.41946","5"],
    [24657,"HCEP03730566","2024-06-11 04:00:00","9.5714","3.21967","26.618","4.752","7.58","0.372","1.55","0.03","0.02","29.3772","4.65655","50.31","0","SATNPRO1509","29.946","0.41944","5"],
    [24658,"HCEP03730566","2024-06-11 04:15:00","9.5694","3.21993","26.647","4.79","7.58","0.321","0.314","0.03","0.02","29.3814","4.6572","50.72","0","SATNPRO1509","30.138","0.42212","5"],
    [24659,"HCEP03730566","2024-06-11 04:30:00","9.5652","3.22034","26.665","4.835","7.58","0.274","0.279","0.02","0.02","29.389","4.65835","51.2","0","SATNPRO1509","30.284","0.4242","5"],
    [24660,"HCEP03730566","2024-06-11 04:45:00","9.5653","3.22031","26.697","4.838","7.58","0.249","0.317","0.02","0.04","29.3886","4.6583","51.23","0","SATNPRO1509","30.086","0.42142","5"],
    [24661,"HCEP03730566","2024-06-11 05:00:00","9.5637","3.22048","26.748","4.83","7.59","0.213","0.364","0.01","0.04","29.3917","4.65877","51.14","0","SATNPRO1509","29.964","0.41966","5"],
    [24662,"HCEP03730566","2024-06-11 05:15:00","9.5606","3.22076","26.754","4.84","7.59","0.184","0.417","0.01","0.02","29.397","4.65958","51.24","0","SATNPRO1509","30.206","0.4231","5"],
    [24663,"HCEP03730566","2024-06-11 05:30:00","9.5598","3.22087","26.801","4.829","7.59","0.171","0.513","0.01","0.03","29.3988","4.65986","51.13","0","SATNPRO1509","30.218","0.42326","5"],
    [24664,"HCEP03730566","2024-06-11 05:45:00","9.5593","3.22086","26.821","4.811","7.59","0.172","0.61","0.01","0.04","29.399","4.6599","50.93","0","SATNPRO1509","30.166","0.42252","5"],
    [24665,"HCEP03730566","2024-06-11 06:00:00","9.5593","3.22086","26.866","4.793","7.59","0.182","0.705","0.01","0.08","29.399","4.6599","50.74","0","SATNPRO1509","30.084","0.4214","5"],
    [24666,"HCEP03730566","2024-06-11 06:15:00","9.5582","3.22093","26.917","4.773","7.58","0.211","0.792","0.02","0.1","29.4005","4.66015","50.53","0","SATNPRO1509","30.078","0.42132","5"],
    [24667,"HCEP03730566","2024-06-11 06:30:00","9.5582","3.22093","26.953","4.759","7.58","0.226","0.813","0.02","0.12","29.4006","4.66015","50.39","0","SATNPRO1509","30.006","0.42026","5"],
    [24668,"HCEP03730566","2024-06-11 06:45:00","9.5576","3.22097","26.986","4.743","7.58","0.275","0.93","0.03","0.11","29.4015","4.6603","50.22","0","SATNPRO1509","29.971999999999998","0.41982","5"],
    [24669,"HCEP03730566","2024-06-11 07:00:00","9.5561","3.22109","27.009","4.729","7.58","0.309","1.047","0.03","0.13","29.4039","4.66067","50.07","0","SATNPRO1509","29.918","0.41902","5"],
    [24670,"HCEP03730566","2024-06-11 07:15:00","9.5541","3.22136","27.003","4.72","7.58","0.41","1.475","0.12","0.2","29.4082","4.66133","49.97","0","SATNPRO1509","30.044","0.4208","5"],
    [24671,"HCEP03730566","2024-06-11 07:30:00","9.5517","3.22168","27.002","4.719","7.58","0.424","1.212","0.04","0.11","29.4134","4.66211","49.95","0","SATNPRO1509","30.078","0.42132","5"],
    [24672,"HCEP03730566","2024-06-11 07:45:00","9.5499","3.22195","27.002","4.719","7.58","0.496","1.548","0.13","0.2","29.4176","4.66275","49.96","0","SATNPRO1509","30.07","0.42118","5"],
    [24673,"HCEP03730566","2024-06-11 08:00:00","9.5491","3.22206","26.975","4.712","7.58","0.539","1.887","0.07","0.32","29.4194","4.66301","49.88","0","SATNPRO1509","29.986","0.42002","5"],
    [24674,"HCEP03730566","2024-06-11 08:15:00","9.5483","3.22228","26.96","4.702","7.58","0.604","1.989","0.06","0.17","29.4223","4.66344","49.78","0","SATNPRO1509","30.062","0.42104","5"],
    [24675,"HCEP03730566","2024-06-11 08:30:00","9.5475","3.22237","26.941","4.698","7.58","0.661","1.956","0.06","0.18","29.4239","4.66368","49.73","0","SATNPRO1509","30.052","0.42092","5"],
    [24676,"HCEP03730566","2024-06-11 08:45:00","9.546","3.22262","26.876","4.697","7.57","0.788","2.208","0.07","0.17","29.4276","4.66424","49.73","0","SATNPRO1509","30.074","0.42122","5"],
    [24677,"HCEP03730566","2024-06-11 09:00:00","9.546","3.22268","26.741","4.692","7.57","0.786","2.781","0.06","0.16","29.4283","4.66432","49.67","0","SATNPRO1509","29.992","0.42008","5"],
    [24678,"HCEP03730566","2024-06-11 09:15:00","9.5448","3.22283","26.65","4.703","7.58","0.754","2.57","0.03","0.11","29.4308","4.66471","49.79","0","SATNPRO1509","30.252","0.42374","5"],
    [24679,"HCEP03730566","2024-06-11 09:30:00","9.545","3.22292","26.564","4.698","7.58","0.867","3.238","0.03","0.16","29.4317","4.66482","49.73","0","SATNPRO1509","30.125999999999998","0.422","5"],
    [24680,"HCEP03730566","2024-06-11 09:45:00","9.545","3.22293","26.445","4.684","7.58","0.9","3.24","0.05","0.14","29.4318","4.66483","49.59","0","SATNPRO1509","30.126","0.42194","5"],
    [24681,"HCEP03730566","2024-06-11 10:00:00","9.5457","3.22276","26.318","4.671","7.58","1.005","3.403","0.1","0.26","29.4296","4.66449","49.45","0","SATNPRO1509","30.018","0.42044","5"],
    [24682,"HCEP03730566","2024-06-11 10:15:00","9.5454","3.22279","26.176","4.672","7.58","0.978","3.236","0.07","0.29","29.4301","4.66457","49.46","0","SATNPRO1509","30.11","0.42176","5"],
    [24683,"HCEP03730566","2024-06-11 10:30:00","9.545","3.22281","26.042","4.686","7.57","0.96","2.934","0.08","0.24","29.4307","4.66465","49.6","0","SATNPRO1509","30.072","0.4212","5"],
    [24684,"HCEP03730566","2024-06-11 10:45:00","9.5466","3.22255","25.896","4.692","7.58","1.011","3.182","0.09","0.51","29.4269","4.66407","49.67","0","SATNPRO1509","30.12","0.4219","5"],
    [24685,"HCEP03730566","2024-06-11 11:00:00","9.5476","3.22246","25.764","4.686","7.58","1.055","3.567","0.05","0.17","29.4251","4.66379","49.61","0","SATNPRO1509","30.092000000000002","0.42146","5"],
    [24686,"HCEP03730566","2024-06-11 11:15:00","9.5482","3.22232","25.6","4.683","7.58","1.047","3.18","0.08","0.14","29.4233","4.66351","49.57","0","SATNPRO1509","30.252","0.42374","5"],
    [24687,"HCEP03730566","2024-06-11 11:30:00","9.5497","3.22215","25.453","4.699","7.58","1.056","3.491","0.07","0.2","29.4204","4.66306","49.74","0","SATNPRO1509","30.058","0.42102","5"],
    [24688,"HCEP03730566","2024-06-11 11:45:00","9.5509","3.22202","25.271","4.709","7.58","1.014","3.466","0.06","0.31","29.4182","4.66271","49.85","0","SATNPRO1509","30.06","0.42102","5"],
    [24689,"HCEP03730566","2024-06-11 12:00:00","9.551","3.22202","25.13","4.721","7.58","1.05","3.795","0.08","0.35","29.4183","4.66271","49.98","0","SATNPRO1509","30.073999999999998","0.42124","5"],
    [24690,"HCEP03730566","2024-06-11 12:15:00","9.5495","3.22218","24.992","4.754","7.58","1.004","3.467","0.05","0.33","29.4211","4.66314","50.32","0","SATNPRO1509","30.254","0.42378","5"],
    [24691,"HCEP03730566","2024-06-11 12:30:00","9.5495","3.22231","24.861","4.775","7.58","1.02","3.585","0.09","0.43","29.4225","4.66332","50.56","0","SATNPRO1509","30.196","0.42298","5"],
    [24692,"HCEP03730566","2024-06-11 12:45:00","9.5499","3.22288","24.741","4.794","7.58","1.016","3.476","0.08","0.35","29.428","4.6641","50.75","0","SATNPRO1509","30.258","0.42382","5"],
    [24693,"HCEP03730566","2024-06-11 13:00:00","9.5495","3.2234","24.651","4.843","7.59","0.949","3.309","0.05","0.16","29.4336","4.6649","51.28","0","SATNPRO1509","30.343999999999998","0.42504","5"],
    [24694,"HCEP03730566","2024-06-11 13:15:00","9.5488","3.22379","24.544","4.861","7.59","0.935","3.368","0.05","0.23","29.4382","4.66556","51.46","0","SATNPRO1509","30.27","0.424","5"],
    [24695,"HCEP03730566","2024-06-11 13:30:00","9.5482","3.22409","24.508","4.865","7.59","0.971","3.481","0.08","0.3","29.4417","4.66607","51.51","0","SATNPRO1509","30.28","0.42412","5"],
    [24696,"HCEP03730566","2024-06-11 13:45:00","9.5479","3.2243","24.467","4.868","7.59","0.921","3.2","0.05","0.2","29.4441","4.66642","51.55","0","SATNPRO1509","30.462","0.42668","5"],
    [24697,"HCEP03730566","2024-06-11 14:00:00","9.5483","3.22444","24.491","4.876","7.6","0.923","3.357","0.06","0.19","29.4451","4.66656","51.63","0","SATNPRO1509","30.34","0.42494","5"],
    [24698,"HCEP03730566","2024-06-11 14:15:00","9.5486","3.22452","24.498","4.889","7.6","0.891","3.265","0.05","0.15","29.4457","4.66665","51.76","0","SATNPRO1509","30.346","0.42502","5"],
    [24699,"HCEP03730566","2024-06-11 14:30:00","9.5494","3.2246","24.544","4.902","7.6","0.878","3.155","0.04","0.12","29.4458","4.66664","51.9","0","SATNPRO1509","30.483999999999998","0.42702","5"],
    [24700,"HCEP03730566","2024-06-11 14:45:00","9.5494","3.22464","24.578","4.906","7.6","0.881","3.113","0.05","0.14","29.4462","4.6667","51.95","0","SATNPRO1509","30.39","0.42566","5"],
    [24701,"HCEP03730566","2024-06-11 15:00:00","9.5493","3.22476","24.643","4.895","7.6","0.874","3.208","0.05","0.58","29.4474","4.66689","51.83","0","SATNPRO1509","30.36","0.42524","5"],
    [24702,"HCEP03730566","2024-06-11 15:15:00","9.5489","3.22494","24.751","4.892","7.6","0.859","3.072","0.05","0.12","29.4496","4.66721","51.79","0","SATNPRO1509","30.344","0.42504","5"],
    [24703,"HCEP03730566","2024-06-11 15:30:00","9.549","3.22498","24.855","4.886","7.6","0.876","2.98","0.07","0.15","29.4499","4.66725","51.73","0","SATNPRO1509","30.494","0.42712","5"],
    [24704,"HCEP03730566","2024-06-11 15:45:00","9.55","3.22482","24.972","4.9","7.6","0.833","2.684","0.04","0.1","29.4473","4.66688","51.88","0","SATNPRO1509","30.474","0.42686","5"],
    [24705,"HCEP03730566","2024-06-11 16:00:00","9.5507","3.2247","25.141","4.914","7.6","0.875","2.825","0.07","0.17","29.4455","4.66662","52.03","0","SATNPRO1509","30.558","0.428","5"],
    [24706,"HCEP03730566","2024-06-11 16:15:00","9.5517","3.22446","25.225","4.91","7.6","0.84","2.786","0.05","0.2","29.4423","4.66614","51.99","0","SATNPRO1509","30.47","0.42682","5"],
    [24707,"HCEP03730566","2024-06-11 16:30:00","9.5533","3.22421","25.47","4.917","7.6","0.879","3.06","0.09","0.23","29.4383","4.66556","52.06","0","SATNPRO1509","30.428","0.42624","5"],
    [24708,"HCEP03730566","2024-06-11 16:45:00","9.5537","3.22426","25.565","4.922","7.6","0.908","3.362","0.06","0.14","29.4385","4.66558","52.12","0","SATNPRO1509","30.372","0.42542","5"],
    [24709,"HCEP03730566","2024-06-11 17:00:00","9.5576","3.2234","25.733","4.913","7.6","0.852","2.815","0.1","0.12","29.4265","4.66381","52.02","0","SATNPRO1509","30.366","0.42534","5"],
    [24710,"HCEP03730566","2024-06-11 17:15:00","9.5592","3.22308","25.924","4.935","7.6","0.81","2.481","0.05","0.13","29.4219","4.66313","52.26","0","SATNPRO1509","30.368000000000002","0.42536","5"],
    [24711,"HCEP03730566","2024-06-11 17:30:00","9.5566","3.22389","26.098","4.932","7.6","0.877","3.012","0.04","0.12","29.4321","4.66465","52.23","0","SATNPRO1509","30.366","0.4253","5"],
    [24712,"HCEP03730566","2024-06-11 17:45:00","9.5569","3.22443","26.227","4.994","7.61","0.802","2.649","0.04","0.11","29.4373","4.66539","52.89","0","SATNPRO1509","30.642","0.42922","5"],
    [24713,"HCEP03730566","2024-06-11 18:00:00","9.5559","3.22496","26.475","4.977","7.61","0.834","3.173","0.04","0.14","29.4433","4.66628","52.71","0","SATNPRO1509","30.468","0.42674","5"],
    [24714,"HCEP03730566","2024-06-11 18:15:00","9.5556","3.22528","26.667","4.972","7.61","0.796","2.627","0.07","0.14","29.4467","4.6668","52.66","0","SATNPRO1509","30.526","0.4276","5"],
    [24715,"HCEP03730566","2024-06-11 18:30:00","9.555","3.22559","26.862","4.979","7.61","0.764","2.836","0.04","0.15","29.4503","4.66733","52.73","0","SATNPRO1509","30.506","0.42734","5"],
    [24716,"HCEP03730566","2024-06-11 18:45:00","9.5538","3.22597","27.041","4.96","7.61","0.768","3.259","0.04","0.12","29.4551","4.66804","52.52","0","SATNPRO1509","30.29","0.4243","5"],
    [24717,"HCEP03730566","2024-06-11 19:00:00","9.5532","3.2262","27.225","4.945","7.61","0.783","3.205","0.06","0.24","29.4578","4.66846","52.37","0","SATNPRO1509","30.332","0.42486","5"],
    [24718,"HCEP03730566","2024-06-11 19:15:00","9.5532","3.22626","27.367","4.944","7.61","0.714","2.701","0.06","0.16","29.4583","4.66853","52.36","0","SATNPRO1509","30.494","0.42712","5"],
    [24719,"HCEP03730566","2024-06-11 19:30:00","9.5531","3.2262","27.483","4.97","7.61","0.633","2.558","0.02","0.38","29.4578","4.66847","52.64","0","SATNPRO1509","30.502","0.42722","5"],
    [24720,"HCEP03730566","2024-06-11 19:45:00","9.5534","3.22599","27.565","4.986","7.61","0.615","2.521","0.03","0.13","29.4554","4.66813","52.8","0","SATNPRO1509","30.532","0.42766","5"],
    [24721,"HCEP03730566","2024-06-11 20:00:00","9.553","3.22635","27.74","4.96","7.61","0.621","3.112","0.04","0.13","29.4593","4.6687","52.53","0","SATNPRO1509","30.368","0.42534","5"],
    [24722,"HCEP03730566","2024-06-11 20:15:00","9.552","3.22656","27.762","4.915","7.61","0.637","3.756","0.04","0.12","29.4622","4.66913","52.05","0","SATNPRO1509","30.413999999999998","0.42598","5"],
    [24723,"HCEP03730566","2024-06-11 20:30:00","9.5538","3.22544","27.845","4.942","7.61","0.532","3.025","0.04","0.3","29.4494","4.66727","52.34","0","SATNPRO1509","30.562","0.4281","5"],
    [24724,"HCEP03730566","2024-06-11 20:45:00","9.5532","3.22604","27.903","4.955","7.61","0.56","4.748","0.03","0.53","29.4559","4.66822","52.47","0","SATNPRO1509","30.406","0.42592","5"],
    [24725,"HCEP03730566","2024-06-11 21:00:00","9.5532","3.22612","27.91","4.956","7.61","0.518","2.857","0.03","0.08","29.4567","4.66834","52.49","0","SATNPRO1509","30.422","0.4261","5"],
    [24726,"HCEP03730566","2024-06-11 21:15:00","9.5536","3.22602","27.939","4.945","7.61","0.503","2.733","0.02","0.05","29.4554","4.66815","52.37","0","SATNPRO1509","30.478","0.42692","5"],
    [24727,"HCEP03730566","2024-06-11 21:30:00","9.5561","3.2251","27.918","4.921","7.61","0.522","3.083","0.04","0.04","29.4441","4.66648","52.11","0","SATNPRO1509","30.336","0.4249","5"],
    [24728,"HCEP03730566","2024-06-11 21:45:00","9.5569","3.22497","27.971","4.903","7.61","0.57","3.97","0.04","0.06","29.442","4.66617","51.92","0","SATNPRO1509","30.204","0.42302","5"],
    [24729,"HCEP03730566","2024-06-11 22:00:00","9.557","3.22515","27.878","4.865","7.6","0.606","6.072","0.02","0.05","29.4438","4.66641","51.53","0","SATNPRO1509","30.314","0.4246","5"],
    [24730,"HCEP03730566","2024-06-11 22:15:00","9.5579","3.22494","27.923","4.855","7.6","0.6","9.628","0.02","0.04","29.441","4.666","51.41","0","SATNPRO1509","30.35","0.4251","5"],
    [24731,"HCEP03730566","2024-06-11 22:30:00","9.5577","3.22487","27.879","4.845","7.6","0.629","14.489","0.04","0.05","29.4404","4.66592","51.31","0","SATNPRO1509","30.248","0.42368","5"],
    [24732,"HCEP03730566","2024-06-11 22:45:00","9.559","3.22449","27.822","4.84","7.6","0.628","19.675","0.03","0.06","29.4356","4.6652","51.25","0","SATNPRO1509","30.184","0.42274","5"],
    [24733,"HCEP03730566","2024-06-11 23:00:00","9.561","3.22415","27.776","4.827","7.6","0.61","22.992","0.03","0.05","29.4304","4.66442","51.12","0","SATNPRO1509","30.182","0.42274","5"],
    [24734,"HCEP03730566","2024-06-11 23:15:00","9.5615","3.22383","27.691","4.81","7.59","0.605","24.991","0.03","0.05","29.4268","4.6639","50.93","0","SATNPRO1509","30.184","0.42276","5"],
    [24735,"HCEP03730566","2024-06-11 23:30:00","9.5598","3.22432","27.647","4.801","7.59","0.613","26.563","0.03","0.05","29.4332","4.66484","50.85","0","SATNPRO1509","30.224","0.42332","5"],
    [24736,"HCEP03730566","2024-06-11 23:45:00","9.572","3.22246","27.56","4.801","7.59","0.583","26.987","0.02","0.08","29.4045","4.66051","50.84","0","SATNPRO1509","30.014","0.42042","5"],
    [24737,"HCEP03730566","2024-06-12 00:00:00","9.5584","3.22479","27.494","4.79","7.59","0.601","26.607","0.03","0.07","29.4392","4.66572","50.72","0","SATNPRO1509","30.221999999999998","0.42334","5"],
    [24738,"HCEP03730566","2024-06-12 00:15:00","9.5585","3.22487","27.382","4.781","7.59","0.606","24.112","0.03","0.1","29.4399","4.66581","50.63","0","SATNPRO1509","29.956","0.4196","5"],
    [24739,"HCEP03730566","2024-06-12 00:30:00","9.5583","3.22505","27.357","4.763","7.59","0.609","22.444","0.04","0.09","29.442","4.6661","50.45","0","SATNPRO1509","30.056","0.42098","5"],
    [24740,"HCEP03730566","2024-06-12 00:45:00","9.5562","3.22569","27.21","4.764","7.59","0.596","21.659","0.02","0.09","29.4502","4.66731","50.45","0","SATNPRO1509","30.102","0.42166","5"],
    [24741,"HCEP03730566","2024-06-12 01:00:00","9.5568","3.2255","27.134","4.784","7.59","0.608","21.613","0.02","0.06","29.4478","4.66695","50.66","0","SATNPRO1509","30.196","0.4229","5"],
    [24742,"HCEP03730566","2024-06-12 01:15:00","9.5593","3.22454","27.047","4.767","7.59","0.621","21.518","0.02","0.05","29.4361","4.66524","50.49","0","SATNPRO1509","30.052","0.42092","5"],
    [24743,"HCEP03730566","2024-06-12 01:30:00","9.5595","3.22458","26.94","4.756","7.59","0.607","22.567","0.03","0.07","29.4364","4.66525","50.37","0","SATNPRO1509","30.106","0.4217","5"],
    [24744,"HCEP03730566","2024-06-12 01:45:00","9.5583","3.22505","26.863","4.771","7.59","0.634","24.528","0.03","0.09","29.4422","4.66611","50.53","0","SATNPRO1509","30.201999999999998","0.42308","5"],
    [24745,"HCEP03730566","2024-06-12 02:00:00","9.5543","3.22661","26.766","4.731","7.59","0.687","25.451","0.04","0.12","29.4612","4.6689","50.1","0","SATNPRO1509","29.9","0.4188","5"],
    [24746,"HCEP03730566","2024-06-12 02:15:00","9.5533","3.22666","26.63","4.741","7.59","0.647","24.697","0.03","0.15","29.4626","4.6691","50.21","0","SATNPRO1509","30.158","0.42238","5"],
    [24747,"HCEP03730566","2024-06-12 02:30:00","9.5532","3.22682","26.598","4.729","7.59","0.682","23.66","0.04","0.27","29.4643","4.66935","50.08","0","SATNPRO1509","30.096","0.42154","5"],
    [24748,"HCEP03730566","2024-06-12 02:45:00","9.5537","3.2265","26.488","4.704","7.59","0.642","22.88","0.03","0.26","29.4608","4.66883","49.82","0","SATNPRO1509","30.172","0.42262","5"],
    [24749,"HCEP03730566","2024-06-12 03:00:00","9.5556","3.22617","26.453","4.681","7.58","0.711","22.285","0.07","0.57","29.4558","4.66808","49.58","0","SATNPRO1509","29.714","0.41622","5"],
    [24750,"HCEP03730566","2024-06-12 03:15:00","9.5584","3.22527","26.418","4.644","7.58","0.695","18.071","0.04","1.15","29.4445","4.6664","49.18","0","SATNPRO1509","29.852","0.41814","5"],
    [24751,"HCEP03730566","2024-06-12 03:30:00","9.5591","3.22504","26.421","4.647","7.58","0.682","14.825","0.03","1.23","29.4415","4.66598","49.21","0","SATNPRO1509","29.764","0.4169","5"],
    [24752,"HCEP03730566","2024-06-12 03:45:00","9.5629","3.22415","26.381","4.647","7.58","0.677","15.676","0.04","0.86","29.4295","4.66418","49.21","0","SATNPRO1509","29.868","0.41838","5"],
    [24753,"HCEP03730566","2024-06-12 04:00:00","9.5684","3.22308","26.406","4.638","7.58","0.65","19.097","0.03","0.39","29.4142","4.6619","49.11","0","SATNPRO1509","29.784","0.41718","5"],
    [24754,"HCEP03730566","2024-06-12 04:15:00","9.5694","3.22304","26.399","4.622","7.58","0.67","20.098","0.06","0.38","29.4129","4.66169","48.95","0","SATNPRO1509","29.91","0.41898","5"],
    [24755,"HCEP03730566","2024-06-12 04:30:00","9.5633","3.22438","26.395","4.609","7.58","0.722","21.678","0.04","0.24","29.4315","4.66447","48.81","0","SATNPRO1509","29.506","0.41324","5"],
    [24756,"HCEP03730566","2024-06-12 04:45:00","9.5628","3.22429","26.447","4.556","7.57","0.75","24.2","0.05","0.23","29.431","4.6644","48.25","0","SATNPRO1509","29.44","0.41236","5"],
    [24757,"HCEP03730566","2024-06-12 05:00:00","9.5662","3.22285","26.458","4.541","7.57","0.687","25.16","0.04","0.11","29.4136","4.66185","48.09","0","SATNPRO1509","29.718","0.41624","5"],
    [24758,"HCEP03730566","2024-06-12 05:15:00","9.5677","3.22258","26.459","4.593","7.57","0.689","25.727","0.04","0.16","29.4096","4.66126","48.64","0","SATNPRO1509","29.81","0.41754","5"],
    [24759,"HCEP03730566","2024-06-12 05:30:00","9.5664","3.22276","26.489","4.563","7.57","0.782","24.634","0.04","0.1","29.4125","4.66169","48.33","0","SATNPRO1509","29.566","0.41412","5"],
    [24760,"HCEP03730566","2024-06-12 05:45:00","9.5673","3.22181","26.521","4.548","7.57","0.664","19.397","0.04","0.09","29.4022","4.6602","48.16","0","SATNPRO1509","29.832","0.41784","5"],
    [24761,"HCEP03730566","2024-06-12 06:00:00","9.5667","3.22168","26.521","4.58","7.57","0.662","17.219","0.03","0.13","29.4014","4.66009","48.5","0","SATNPRO1509","29.906","0.41886","5"],
    [24762,"HCEP03730566","2024-06-12 06:15:00","9.5676","3.22157","26.567","4.518","7.56","0.682","17.981","0.03","0.07","29.3995","4.65981","47.84","0","SATNPRO1509","29.69","0.41586","5"],
    [24763,"HCEP03730566","2024-06-12 06:30:00","9.5688","3.22121","26.586","4.466","7.56","0.676","20.441","0.03","0.07","29.3949","4.65914","47.29","0","SATNPRO1509","29.626","0.41498","5"],
    [24764,"HCEP03730566","2024-06-12 06:45:00","9.571","3.2209","26.683","4.429","7.56","0.692","23.804","0.04","0.08","29.3898","4.65837","46.9","0","SATNPRO1509","29.474","0.41282","5"],
    [24765,"HCEP03730566","2024-06-12 07:00:00","9.5733","3.22063","26.713","4.395","7.55","0.708","26.03","0.04","0.15","29.3853","4.65769","46.54","0","SATNPRO1509","29.374","0.41144","5"],
    [24766,"HCEP03730566","2024-06-12 07:15:00","9.5752","3.22042","26.717","4.36","7.55","0.69","26.921","0.02","0.07","29.3816","4.65712","46.17","0","SATNPRO1509","29.254","0.40978","5"],
    [24767,"HCEP03730566","2024-06-12 07:30:00","9.5761","3.22034","26.771","4.323","7.55","0.685","24.971","0.03","0.1","29.38","4.65689","45.78","0","SATNPRO1509","29.156","0.4084","5"],
    [24768,"HCEP03730566","2024-06-12 07:45:00","9.5781","3.22041","26.762","4.314","7.54","0.739","23.719","0.03","0.11","29.3791","4.65672","45.68","0","SATNPRO1509","29.148","0.40826","5"],
    [24769,"HCEP03730566","2024-06-12 08:00:00","9.5743","3.22112","26.782","4.471","7.55","0.694","21.273","0.05","0.1","29.3893","4.65825","47.35","0","SATNPRO1509","29.612000000000002","0.4148","5"],
    [24770,"HCEP03730566","2024-06-12 08:15:00","9.574","3.22111","26.883","4.568","7.56","0.661","17.22","0.06","0.17","29.3895","4.65828","48.38","0","SATNPRO1509","29.908","0.41892","5"],
    [24771,"HCEP03730566","2024-06-12 08:30:00","9.5773","3.22079","26.896","4.606","7.56","0.667","13.622","0.05","0.16","29.3836","4.65738","48.78","0","SATNPRO1509","29.848","0.4181","5"],
    [24772,"HCEP03730566","2024-06-12 08:45:00","9.5796","3.2206","26.911","4.643","7.57","0.595","9.456","0.04","0.08","29.3797","4.65679","49.18","0","SATNPRO1509","30.008","0.42024","5"],
    [24773,"HCEP03730566","2024-06-12 09:00:00","9.5809","3.22042","26.821","4.673","7.57","0.668","6.767","0.06","0.11","29.3768","4.65635","49.49","0","SATNPRO1509","29.85","0.41814","5"],
    [24774,"HCEP03730566","2024-06-12 09:15:00","9.5836","3.2202","26.764","4.603","7.57","0.687","5.246","0.05","0.11","29.3725","4.65567","48.75","0","SATNPRO1509","29.554","0.41396","5"],
    [24775,"HCEP03730566","2024-06-12 09:30:00","9.5829","3.2202","26.702","4.516","7.56","0.722","4.503","0.03","0.13","29.373","4.65576","47.83","0","SATNPRO1509","29.402","0.41184","5"],
    [24776,"HCEP03730566","2024-06-12 09:45:00","9.5801","3.22024","26.638","4.414","7.56","0.764","4.393","0.04","0.22","29.3758","4.65621","46.75","0","SATNPRO1509","29.104","0.40766","5"],
    [24777,"HCEP03730566","2024-06-12 10:00:00","9.5757","3.22051","26.547","4.335","7.55","0.793","4.335","0.03","0.18","29.3822","4.65719","45.91","0","SATNPRO1509","29.17","0.40862","5"],
    [24778,"HCEP03730566","2024-06-12 10:15:00","9.5701","3.22132","26.453","4.359","7.55","0.852","4.447","0.04","0.21","29.3949","4.65911","46.16","0","SATNPRO1509","29.316","0.41066","5"],
    [24779,"HCEP03730566","2024-06-12 10:30:00","9.5656","3.22292","26.387","4.411","7.55","0.857","4.17","0.06","0.16","29.4148","4.66203","46.71","0","SATNPRO1509","29.38","0.41148","5"],
    [24780,"HCEP03730566","2024-06-12 10:45:00","9.5649","3.22333","26.306","4.448","7.55","0.917","4.7","0.06","0.35","29.4195","4.66271","47.11","0","SATNPRO1509","29.418","0.41206","5"],
    [24781,"HCEP03730566","2024-06-12 11:00:00","9.5634","3.22384","26.189","4.467","7.55","0.919","4.369","0.06","0.4","29.426","4.66366","47.31","0","SATNPRO1509","29.372","0.4114","5"],
    [24782,"HCEP03730566","2024-06-12 11:15:00","9.5628","3.22403","26.062","4.511","7.56","0.889","4.404","0.07","0.34","29.4285","4.66402","47.78","0","SATNPRO1509","29.676","0.41564","5"],
    [24783,"HCEP03730566","2024-06-12 11:30:00","9.5627","3.22399","25.933","4.54","7.56","0.897","4.3","0.06","0.37","29.4282","4.66398","48.08","0","SATNPRO1509","29.572","0.41424","5"],
    [24784,"HCEP03730566","2024-06-12 11:45:00","9.563","3.22377","25.776","4.575","7.56","0.919","4.006","0.07","0.21","29.4258","4.66361","48.45","0","SATNPRO1509","29.806","0.41752","5"],
    [24785,"HCEP03730566","2024-06-12 12:00:00","9.5641","3.2234","25.649","4.587","7.57","0.956","3.853","0.07","0.26","29.4211","4.66292","48.58","0","SATNPRO1509","29.774","0.41706","5"],
    [24786,"HCEP03730566","2024-06-12 12:15:00","9.5649","3.2231","25.531","4.605","7.57","0.946","3.629","0.07","0.34","29.4176","4.6624","48.77","0","SATNPRO1509","29.802","0.4174","5"],
    [24787,"HCEP03730566","2024-06-12 12:30:00","9.5665","3.2228","25.422","4.635","7.57","0.885","3.612","0.08","0.3","29.4133","4.66174","49.08","0","SATNPRO1509","29.916","0.41902","5"],
    [24788,"HCEP03730566","2024-06-12 12:45:00","9.5664","3.22269","25.254","4.644","7.57","0.828","3.666","0.04","0.21","29.4123","4.66159","49.18","0","SATNPRO1509","29.97","0.41978","5"],
    [24789,"HCEP03730566","2024-06-12 13:00:00","9.5676","3.22247","25.158","4.688","7.57","0.877","3.225","0.07","0.27","29.4092","4.66112","49.64","0","SATNPRO1509","30.142","0.42222","5"],
    [24790,"HCEP03730566","2024-06-12 13:15:00","9.569","3.22232","25.037","4.724","7.58","0.88","3.42","0.07","0.32","29.4066","4.66072","50.02","0","SATNPRO1509","30.238","0.42348","5"],
    [24791,"HCEP03730566","2024-06-12 13:30:00","9.5716","3.22213","24.918","4.742","7.58","0.816","3.245","0.07","0.23","29.4026","4.66009","50.22","0","SATNPRO1509","30.184","0.4228","5"],
    [24792,"HCEP03730566","2024-06-12 13:45:00","9.5695","3.22246","24.848","4.728","7.58","0.835","3.737","0.05","0.15","29.4077","4.66085","50.07","0","SATNPRO1509","30.02","0.4205","5"],
    [24793,"HCEP03730566","2024-06-12 14:00:00","9.5693","3.22246","24.796","4.712","7.58","0.851","3.97","0.05","0.22","29.4079","4.66088","49.9","0","SATNPRO1509","30.042","0.42084","5"],
    [24794,"HCEP03730566","2024-06-12 14:15:00","9.5692","3.22258","24.754","4.7","7.58","0.891","3.856","0.06","0.23","29.4092","4.66107","49.78","0","SATNPRO1509","30.066","0.42112","5"],
    [24795,"HCEP03730566","2024-06-12 14:30:00","9.5686","3.2227","24.788","4.691","7.58","0.874","3.862","0.05","0.23","29.4108","4.66131","49.68","0","SATNPRO1509","29.971999999999998","0.4198","5"],
    [24796,"HCEP03730566","2024-06-12 14:45:00","9.5689","3.22274","24.746","4.684","7.58","0.891","3.852","0.07","0.52","29.411","4.66134","49.6","0","SATNPRO1509","29.934","0.4193","5"],
    [24797,"HCEP03730566","2024-06-12 15:00:00","9.5686","3.22282","24.759","4.677","7.58","0.877","3.898","0.06","0.46","29.412","4.66148","49.53","0","SATNPRO1509","29.791999999999998","0.41732","5"],
    [24798,"HCEP03730566","2024-06-12 15:15:00","9.568","3.22314","24.788","4.661","7.57","0.932","4.025","0.06","0.24","29.4157","4.66203","49.36","0","SATNPRO1509","29.804","0.4174","5"],
    [24799,"HCEP03730566","2024-06-12 15:30:00","9.5676","3.22325","24.864","4.638","7.57","0.911","3.958","0.06","0.2","29.4172","4.66224","49.12","0","SATNPRO1509","29.926","0.41914","5"],
    [24800,"HCEP03730566","2024-06-12 15:45:00","9.5676","3.22321","24.934","4.622","7.57","0.92","3.77","0.09","0.18","29.4167","4.66218","48.95","0","SATNPRO1509","29.928","0.41918","5"],
    [24801,"HCEP03730566","2024-06-12 16:00:00","9.5681","3.22315","25.012","4.621","7.57","0.908","3.751","0.06","0.22","29.4156","4.66202","48.94","0","SATNPRO1509","29.86","0.41828","5"],
    [24802,"HCEP03730566","2024-06-12 16:15:00","9.5694","3.22285","25.107","4.627","7.57","0.854","3.413","0.04","0.12","29.4115","4.66142","49","0","SATNPRO1509","29.97","0.4198","5"],
    [24803,"HCEP03730566","2024-06-12 16:30:00","9.5734","3.2219","25.234","4.644","7.57","0.806","3.034","0.04","0.11","29.3986","4.65951","49.18","0","SATNPRO1509","30.098","0.4216","5"],
    [24804,"HCEP03730566","2024-06-12 16:45:00","9.5746","3.22166","25.354","4.634","7.57","0.805","3.041","0.04","0.13","29.3951","4.65899","49.08","0","SATNPRO1509","29.828","0.4178","5"],
    [24805,"HCEP03730566","2024-06-12 17:00:00","9.5724","3.22217","25.452","4.595","7.57","0.857","3.573","0.04","0.11","29.4021","4.66004","48.67","0","SATNPRO1509","29.89","0.41864","5"],
    [24806,"HCEP03730566","2024-06-12 17:15:00","9.5746","3.22127","25.588","4.589","7.57","0.854","3.469","0.05","0.12","29.3911","4.65844","48.61","0","SATNPRO1509","29.776","0.41702","5"],
    [24807,"HCEP03730566","2024-06-12 17:30:00","9.5735","3.22192","25.772","4.609","7.57","0.863","3.576","0.06","0.13","29.3985","4.65952","48.82","0","SATNPRO1509","29.878","0.41846","5"],
    [24808,"HCEP03730566","2024-06-12 17:45:00","9.5722","3.2223","25.915","4.619","7.57","0.901","4.051","0.08","0.11","29.4034","4.66025","48.92","0","SATNPRO1509","29.908","0.4189","5"],
    [24809,"HCEP03730566","2024-06-12 18:00:00","9.5717","3.22235","26.039","4.616","7.57","0.868","4.13","0.04","0.16","29.4042","4.66039","48.89","0","SATNPRO1509","30.008","0.42026","5"],
    [24810,"HCEP03730566","2024-06-12 18:15:00","9.5721","3.22238","26.246","4.635","7.57","0.924","4.189","0.17","0.15","29.4041","4.66038","49.09","0","SATNPRO1509","30.094","0.42152","5"],
    [24811,"HCEP03730566","2024-06-12 18:30:00","9.5724","3.22239","26.439","4.65","7.57","0.868","4.001","0.05","0.2","29.4039","4.66035","49.25","0","SATNPRO1509","30.018","0.42044","5"],
    [24812,"HCEP03730566","2024-06-12 18:45:00","9.5735","3.22226","26.602","4.643","7.57","0.877","4.084","0.04","0.23","29.4016","4.66001","49.17","0","SATNPRO1509","30.012","0.42038","5"],
    [24813,"HCEP03730566","2024-06-12 19:00:00","9.5775","3.22206","26.771","4.627","7.57","0.891","4.274","0.05","0.2","29.3963","4.65919","49.01","0","SATNPRO1509","29.934","0.41926","5"],
    [24814,"HCEP03730566","2024-06-12 19:15:00","9.5753","3.22226","26.927","4.604","7.57","0.914","4.431","0.05","0.09","29.3999","4.65976","48.76","0","SATNPRO1509","29.914","0.41902","5"],
    [24815,"HCEP03730566","2024-06-12 19:30:00","9.5738","3.22241","27.119","4.6","7.57","0.909","4.337","0.04","0.29","29.4027","4.66019","48.72","0","SATNPRO1509","29.884","0.41858","5"],
    [24816,"HCEP03730566","2024-06-12 19:45:00","9.5733","3.22241","27.302","4.605","7.57","0.895","3.887","0.06","0.15","29.403","4.66026","48.77","0","SATNPRO1509","29.932","0.41926","5"],
    [24817,"HCEP03730566","2024-06-12 20:00:00","9.5731","3.22238","27.359","4.611","7.57","0.865","3.628","0.05","0.13","29.4029","4.66024","48.83","0","SATNPRO1509","29.982","0.41996","5"],
    [24818,"HCEP03730566","2024-06-12 20:15:00","9.5741","3.22224","27.461","4.61","7.57","0.892","3.631","0.05","0.17","29.4006","4.65991","48.82","0","SATNPRO1509","29.983999999999998","0.41998","5"],
    [24819,"HCEP03730566","2024-06-12 20:30:00","9.5745","3.2221","27.61","4.602","7.57","0.912","3.678","0.06","0.18","29.3988","4.65964","48.74","0","SATNPRO1509","29.832","0.41786","5"],
    [24820,"HCEP03730566","2024-06-12 20:45:00","9.575","3.22199","27.719","4.594","7.57","0.846","3.246","0.04","0.15","29.3972","4.65942","48.65","0","SATNPRO1509","29.964","0.4197","5"],
    [24821,"HCEP03730566","2024-06-12 21:00:00","9.5759","3.22183","27.796","4.591","7.57","0.893","3.519","0.06","0.24","29.3948","4.65907","48.62","0","SATNPRO1509","29.982","0.41992","5"],
    [24822,"HCEP03730566","2024-06-12 21:15:00","9.5757","3.22187","27.839","4.567","7.57","0.877","3.292","0.16","0.14","29.3954","4.65915","48.37","0","SATNPRO1509","29.849999999999998","0.4181","5"],
    [24823,"HCEP03730566","2024-06-12 21:30:00","9.5755","3.22193","27.828","4.56","7.57","0.846","3.169","0.04","0.13","29.3961","4.65926","48.3","0","SATNPRO1509","29.942","0.41934","5"],
    [24824,"HCEP03730566","2024-06-12 21:45:00","9.5748","3.22212","27.904","4.553","7.57","0.88","3.907","0.04","0.14","29.3986","4.65963","48.23","0","SATNPRO1509","29.834","0.41792","5"],
    [24825,"HCEP03730566","2024-06-12 22:00:00","9.5749","3.22212","27.901","4.56","7.57","0.836","3.557","0.03","0.4","29.3986","4.65963","48.3","0","SATNPRO1509","29.916","0.41904","5"],
    [24826,"HCEP03730566","2024-06-12 22:15:00","9.5747","3.22212","27.922","4.564","7.57","0.797","3.596","0.02","0.13","29.3986","4.65964","48.33","0","SATNPRO1509","29.828","0.41778","5"],
    [24827,"HCEP03730566","2024-06-12 22:30:00","9.5743","3.2222","27.912","4.548","7.57","0.763","3.961","0.02","0.21","29.3998","4.65981","48.17","0","SATNPRO1509","29.81","0.41752","5"],
    [24828,"HCEP03730566","2024-06-12 22:45:00","9.5746","3.22224","27.898","4.528","7.57","0.699","3.972","0.01","0.23","29.4","4.65984","47.96","0","SATNPRO1509","29.7","0.416","5"],
    [24829,"HCEP03730566","2024-06-12 23:00:00","9.5744","3.22224","27.923","4.512","7.56","0.61","3.983","0.01","0.13","29.4002","4.65987","47.78","0","SATNPRO1509","29.732","0.41646","5"],
    [24830,"HCEP03730566","2024-06-12 23:15:00","9.5748","3.22212","27.848","4.516","7.56","0.518","3.929","0.01","0.16","29.3986","4.65963","47.83","0","SATNPRO1509","29.774","0.41708","5"],
    [24831,"HCEP03730566","2024-06-12 23:30:00","9.575","3.22203","27.806","4.522","7.56","0.418","3.64","0.01","0.12","29.3976","4.65949","47.89","0","SATNPRO1509","29.756","0.41676","5"],
    [24832,"HCEP03730566","2024-06-12 23:45:00","9.5748","3.22219","27.713","4.502","7.56","0.327","4.04","0","0.1","29.3994","4.65974","47.69","0","SATNPRO1509","29.704","0.41606","5"],
    [24833,"HCEP03730566","2024-06-13 00:00:00","9.574","3.22243","27.666","4.495","7.56","0.249","5.785","0.01","0.22","29.4025","4.6602","47.6","0","SATNPRO1509","29.733999999999998","0.41652","5"],
    [24834,"HCEP03730566","2024-06-13 00:15:00","9.5738","3.22252","27.601","4.483","7.56","0.184","8.749","0","0.14","29.4036","4.66034","47.48","0","SATNPRO1509","29.71","0.41612","5"],
    [24835,"HCEP03730566","2024-06-13 00:30:00","9.5741","3.22221","27.515","4.515","7.56","0.133","13.182","0.01","0.17","29.4002","4.65985","47.82","0","SATNPRO1509","29.792","0.41728","5"],
    [24836,"HCEP03730566","2024-06-13 00:45:00","9.5733","3.22255","27.415","4.547","7.56","0.126","23.556","0","0.22","29.4043","4.66045","48.16","0","SATNPRO1509","29.824","0.41774","5"],
    [24837,"HCEP03730566","2024-06-13 01:00:00","9.573","3.22264","27.309","4.517","7.56","0.135","38.491","0.01","0.12","29.4056","4.66063","47.84","0","SATNPRO1509","29.816","0.41762","5"],
    [24838,"HCEP03730566","2024-06-13 01:15:00","9.573","3.22257","27.214","4.509","7.56","0.163","58.425","0.01","0.11","29.4049","4.66053","47.76","0","SATNPRO1509","29.96","0.41962","5"],
    [24839,"HCEP03730566","2024-06-13 01:30:00","9.574","3.22243","27.102","4.547","7.56","0.191","80.407","0.02","0.09","29.4027","4.66019","48.16","0","SATNPRO1509","29.782","0.41716","5"],
    [24840,"HCEP03730566","2024-06-13 01:45:00","9.5731","3.22262","27.01","4.523","7.56","0.247","100.395","0.02","0.1","29.4055","4.6606","47.9","0","SATNPRO1509","29.794","0.41732","5"],
    [24841,"HCEP03730566","2024-06-13 02:00:00","9.5727","3.22268","26.885","4.505","7.56","0.299","108.859","0.02","0.14","29.4064","4.66073","47.72","0","SATNPRO1509","29.826","0.41778","5"],
    [24842,"HCEP03730566","2024-06-13 02:15:00","9.5743","3.22218","26.779","4.529","7.56","0.316","110.414","0.03","0.03","29.4001","4.65979","47.97","0","SATNPRO1509","29.94","0.41934","5"],
    [24843,"HCEP03730566","2024-06-13 02:30:00","9.5752","3.22209","26.655","4.57","7.56","0.357","106.7","0.04","0.07","29.3985","4.65955","48.4","0","SATNPRO1509","29.822","0.4177","5"],
    [24844,"HCEP03730566","2024-06-13 02:45:00","9.5768","3.22171","26.527","4.564","7.56","0.338","101.534","0.03","0.06","29.3934","4.65878","48.34","0","SATNPRO1509","29.876","0.41846","5"],
    [24845,"HCEP03730566","2024-06-13 03:00:00","9.5762","3.22176","26.41","4.547","7.56","0.368","95.667","0.04","0","29.3945","4.65893","48.16","0","SATNPRO1509","29.794","0.41734","5"],
    [24846,"HCEP03730566","2024-06-13 03:15:00","9.5788","3.22119","26.311","4.534","7.55","0.338","82.763","0.03","0.04","29.3866","4.65776","48.02","0","SATNPRO1509","29.84","0.41798","5"],
    [24847,"HCEP03730566","2024-06-13 03:30:00","9.5795","3.22115","26.2","4.506","7.56","0.351","60.922","0.04","0","29.3856","4.65759","47.73","0","SATNPRO1509","29.804","0.41748","5"],
    [24848,"HCEP03730566","2024-06-13 03:45:00","9.5833","3.22104","26.141","4.523","7.56","0.315","35.796","0.02","0.02","29.3815","4.65694","47.91","0","SATNPRO1509","29.892","0.41872","5"],
    [24849,"HCEP03730566","2024-06-13 04:00:00","9.5877","3.22097","26.073","4.597","7.56","0.275","19.866","0.02","0.01","29.3772","4.65623","48.69","0","SATNPRO1509","29.918","0.41908","5"],
    [24850,"HCEP03730566","2024-06-13 04:15:00","9.5752","3.22221","26.063","4.535","7.56","0.347","9.469","0.06","0.01","29.4","4.65972","48.03","0","SATNPRO1509","29.594","0.41452","5"],
    [24851,"HCEP03730566","2024-06-13 04:30:00","9.5775","3.22158","26.05","4.488","7.56","0.289","2.019","0.02","0.02","29.3917","4.65849","47.54","0","SATNPRO1509","29.832","0.41782","5"],
    [24852,"HCEP03730566","2024-06-13 04:45:00","9.576","3.22206","26.036","4.479","7.56","0.281","0.42","0.02","0.02","29.3978","4.65939","47.44","0","SATNPRO1509","29.736","0.41652","5"],
    [24853,"HCEP03730566","2024-06-13 05:00:00","9.5755","3.22218","26.043","4.477","7.56","0.248","0.372","0.02","0.02","29.3994","4.65963","47.41","0","SATNPRO1509","29.714","0.41622","5"],
    [24854,"HCEP03730566","2024-06-13 05:15:00","9.5784","3.22167","26.022","4.473","7.56","0.216","0.347","0.07","0.05","29.3919","4.6585","47.37","0","SATNPRO1509","29.782","0.41716","5"],
    [24855,"HCEP03730566","2024-06-13 05:30:00","9.5772","3.22178","26.039","4.454","7.56","0.175","0.34","0.01","0.02","29.394","4.65882","47.17","0","SATNPRO1509","29.668","0.41558","5"],
    [24856,"HCEP03730566","2024-06-13 05:45:00","9.5773","3.22197","26.053","4.448","7.56","0.163","0.485","0.02","0.04","29.3958","4.65908","47.11","0","SATNPRO1509","29.49","0.41306","5"],
    [24857,"HCEP03730566","2024-06-13 06:00:00","9.5779","3.22203","26.071","4.453","7.56","0.153","0.562","0.02","0.03","29.3959","4.65909","47.16","0","SATNPRO1509","29.692","0.41588","5"],
    [24858,"HCEP03730566","2024-06-13 06:15:00","9.578","3.22214","26.105","4.467","7.55","0.154","0.706","0.03","0.05","29.3969","4.65923","47.31","0","SATNPRO1509","29.541999999999998","0.4138","5"],
    [24859,"HCEP03730566","2024-06-13 06:30:00","9.5773","3.22228","26.131","4.452","7.55","0.153","0.846","0.01","0.17","29.3989","4.65954","47.16","0","SATNPRO1509","29.556","0.41396","5"],
    [24860,"HCEP03730566","2024-06-13 06:45:00","9.5775","3.22241","26.153","4.476","7.55","0.156","0.781","0.02","0.05","29.4","4.65969","47.41","0","SATNPRO1509","29.752","0.4167","5"],
    [24861,"HCEP03730566","2024-06-13 07:00:00","9.577","3.22248","26.19","4.528","7.56","0.168","0.81","0.02","0.06","29.4011","4.65986","47.96","0","SATNPRO1509","29.8","0.41744","5"],
    [24862,"HCEP03730566","2024-06-13 07:15:00","9.5769","3.22251","26.233","4.529","7.56","0.187","0.926","0.03","0.07","29.4014","4.65991","47.97","0","SATNPRO1509","29.942","0.41934","5"],
    [24863,"HCEP03730566","2024-06-13 07:30:00","9.5769","3.22258","26.269","4.527","7.56","0.217","1.133","0.03","0.13","29.4022","4.66002","47.95","0","SATNPRO1509","29.808","0.41752","5"],
    [24864,"HCEP03730566","2024-06-13 07:45:00","9.5761","3.22262","26.319","4.515","7.56","0.253","1.243","0.03","0.07","29.4032","4.66018","47.82","0","SATNPRO1509","29.558","0.41402","5"],
    [24865,"HCEP03730566","2024-06-13 08:00:00","9.5763","3.22263","26.373","4.494","7.56","0.275","1.262","0.03","0.12","29.4031","4.66016","47.6","0","SATNPRO1509","29.646","0.41526","5"],
    [24866,"HCEP03730566","2024-06-13 08:15:00","9.5783","3.22245","26.438","4.502","7.56","0.309","1.393","0.03","0.12","29.3997","4.65965","47.68","0","SATNPRO1509","29.712","0.4162","5"],
    [24867,"HCEP03730566","2024-06-13 08:30:00","9.5769","3.22255","26.478","4.516","7.56","0.345","1.661","0.02","0.09","29.4018","4.65998","47.84","0","SATNPRO1509","29.806","0.41748","5"],
    [24868,"HCEP03730566","2024-06-13 08:45:00","9.5786","3.22243","26.478","4.526","7.56","0.376","1.652","0.03","0.1","29.3992","4.65957","47.94","0","SATNPRO1509","29.764","0.41692","5"],
    [24869,"HCEP03730566","2024-06-13 09:00:00","9.5773","3.22251","26.573","4.537","7.56","0.445","2.082","0.04","0.14","29.4011","4.65987","48.05","0","SATNPRO1509","29.586","0.41442","5"],
    [24870,"HCEP03730566","2024-06-13 09:15:00","9.5765","3.22253","26.517","4.501","7.56","0.484","2.491","0.04","0.17","29.4019","4.66","47.67","0","SATNPRO1509","29.762","0.41688","5"],
    [24871,"HCEP03730566","2024-06-13 09:30:00","9.5758","3.22254","26.601","4.467","7.56","0.539","2.448","0.06","0.15","29.4025","4.66011","47.31","0","SATNPRO1509","29.684","0.4158","5"],
    [24872,"HCEP03730566","2024-06-13 09:45:00","9.5753","3.22255","26.568","4.448","7.56","0.591","2.822","0.06","0.13","29.403","4.66018","47.11","0","SATNPRO1509","29.62","0.4149","5"],
    [24873,"HCEP03730566","2024-06-13 10:00:00","9.5755","3.22257","26.606","4.431","7.55","0.634","3.246","0.04","0.2","29.4031","4.6602","46.94","0","SATNPRO1509","29.61","0.4147","5"],
    [24874,"HCEP03730566","2024-06-13 10:15:00","9.5755","3.22258","26.594","4.412","7.55","0.655","3.432","0.04","0.14","29.4032","4.66021","46.73","0","SATNPRO1509","29.612","0.41474","5"],
    [24875,"HCEP03730566","2024-06-13 10:30:00","9.5756","3.22256","26.562","4.405","7.55","0.69","3.439","0.06","0.16","29.4029","4.66016","46.65","0","SATNPRO1509","29.652","0.41532","5"],
    [24876,"HCEP03730566","2024-06-13 10:45:00","9.5764","3.22253","26.495","4.411","7.55","0.718","3.674","0.04","0.13","29.402","4.66002","46.72","0","SATNPRO1509","29.606","0.4147","5"],
    [24877,"HCEP03730566","2024-06-13 11:00:00","9.5761","3.22255","26.464","4.422","7.55","0.717","3.56","0.05","0.11","29.4026","4.6601","46.84","0","SATNPRO1509","29.638","0.4151","5"],
    [24878,"HCEP03730566","2024-06-13 11:15:00","9.5772","3.22257","26.407","4.422","7.55","0.818","4.514","0.05","0.14","29.4018","4.65996","46.84","0","SATNPRO1509","29.509999999999998","0.41328","5"],
    [24879,"HCEP03730566","2024-06-13 11:30:00","9.5757","3.2226","26.347","4.432","7.55","0.707","3.232","0.04","0.12","29.4033","4.66021","46.95","0","SATNPRO1509","29.626","0.41498","5"],
    [24880,"HCEP03730566","2024-06-13 11:45:00","9.5755","3.22256","26.308","4.439","7.55","0.692","3.147","0.05","0.07","29.4031","4.66018","47.02","0","SATNPRO1509","29.544","0.41382","5"],
    [24881,"HCEP03730566","2024-06-13 12:00:00","9.5762","3.22265","26.217","4.413","7.55","0.804","4.195","0.04","0.17","29.4035","4.66021","46.74","0","SATNPRO1509","29.556","0.41394","5"],
    [24882,"HCEP03730566","2024-06-13 12:15:00","9.5761","3.22252","26.133","4.381","7.55","0.805","3.887","0.04","0.16","29.4023","4.66004","46.4","0","SATNPRO1509","29.612","0.41478","5"],
    [24883,"HCEP03730566","2024-06-13 12:30:00","9.5746","3.22277","26.057","4.378","7.55","0.776","3.737","0.05","0.16","29.4062","4.66061","46.37","0","SATNPRO1509","29.528","0.41356","5"],
    [24884,"HCEP03730566","2024-06-13 12:45:00","9.5757","3.22266","25.962","4.382","7.55","0.717","3.245","0.09","0.12","29.4041","4.6603","46.41","0","SATNPRO1509","29.698","0.416","5"],
    [24885,"HCEP03730566","2024-06-13 13:00:00","9.5735","3.22295","25.878","4.392","7.55","0.757","3.527","0.04","0.15","29.4089","4.66102","46.52","0","SATNPRO1509","29.592","0.41452","5"],
    [24886,"HCEP03730566","2024-06-13 13:15:00","9.5742","3.22278","25.789","4.377","7.55","0.696","3.139","0.04","0.15","29.4066","4.66067","46.36","0","SATNPRO1509","29.566","0.41414","5"],
    [24887,"HCEP03730566","2024-06-13 13:30:00","9.574","3.22285","25.741","4.387","7.55","0.699","3.141","0.05","0.13","29.4075","4.6608","46.47","0","SATNPRO1509","29.624","0.41492","5"],
    [24888,"HCEP03730566","2024-06-13 13:45:00","9.5743","3.22279","25.6","4.384","7.55","0.684","3.098","0.04","0.11","29.4066","4.66066","46.43","0","SATNPRO1509","29.586","0.4144","5"],
    [24889,"HCEP03730566","2024-06-13 14:00:00","9.5732","3.223","25.551","4.381","7.55","0.73","3.355","0.04","0.19","29.4098","4.66113","46.4","0","SATNPRO1509","29.562","0.41404","5"],
    [24890,"HCEP03730566","2024-06-13 14:15:00","9.573","3.22302","25.418","4.378","7.55","0.719","3.293","0.06","0.16","29.4102","4.66119","46.36","0","SATNPRO1509","29.592","0.41448","5"],
    [24891,"HCEP03730566","2024-06-13 14:30:00","9.5727","3.22307","25.351","4.382","7.55","0.727","3.302","0.03","0.1","29.4109","4.66129","46.42","0","SATNPRO1509","29.522","0.4135","5"],
    [24892,"HCEP03730566","2024-06-13 14:45:00","9.5728","3.22313","25.322","4.37","7.55","0.789","3.676","0.06","0.17","29.4115","4.66137","46.28","0","SATNPRO1509","29.422","0.41212","5"],
    [24893,"HCEP03730566","2024-06-13 15:00:00","9.5724","3.22325","25.244","4.334","7.55","0.769","3.721","0.03","0.12","29.4131","4.6616","45.9","0","SATNPRO1509","29.438","0.41232","5"],
    [24894,"HCEP03730566","2024-06-13 15:15:00","9.5724","3.22333","25.203","4.34","7.55","0.837","3.924","0.04","0.21","29.414","4.66172","45.96","0","SATNPRO1509","29.406000000000002","0.41188","5"],
    [24895,"HCEP03730566","2024-06-13 15:30:00","9.5717","3.22361","25.202","4.322","7.55","0.862","4.634","0.05","0.38","29.4173","4.66221","45.78","0","SATNPRO1509","29.19","0.40884","5"],
    [24896,"HCEP03730566","2024-06-13 15:45:00","9.5698","3.22372","25.187","4.344","7.55","0.728","3.103","0.05","0.11","29.42","4.66263","46.01","0","SATNPRO1509","29.566","0.41408","5"],
    [24897,"HCEP03730566","2024-06-13 16:00:00","9.5688","3.22366","25.258","4.436","7.55","0.628","2.609","0.03","0.09","29.4202","4.66268","46.98","0","SATNPRO1509","29.91","0.41894","5"],
    [24898,"HCEP03730566","2024-06-13 16:15:00","9.571","3.2234","25.284","4.474","7.55","0.646","2.757","0.04","0.16","29.4157","4.662","47.39","0","SATNPRO1509","29.8","0.41738","5"],
    [24899,"HCEP03730566","2024-06-13 16:30:00","9.574","3.2228","25.334","4.44","7.55","0.681","2.923","0.08","0.27","29.4072","4.66072","47.02","0","SATNPRO1509","29.706","0.41604","5"],
    [24900,"HCEP03730566","2024-06-13 16:45:00","9.5752","3.22255","25.387","4.418","7.55","0.658","2.845","0.13","0.43","29.4037","4.66021","46.79","0","SATNPRO1509","29.676","0.41568","5"],
    [24901,"HCEP03730566","2024-06-13 17:00:00","9.5777","3.22219","25.497","4.447","7.56","0.579","2.439","0.04","0.15","29.3979","4.65935","47.1","0","SATNPRO1509","29.954","0.41958","5"],
    [24902,"HCEP03730566","2024-06-13 17:15:00","9.5752","3.22261","25.526","4.455","7.56","0.607","2.673","0.04","0.09","29.4042","4.66029","47.18","0","SATNPRO1509","29.646","0.41524","5"],
    [24903,"HCEP03730566","2024-06-13 17:30:00","9.5737","3.22301","25.626","4.384","7.55","0.711","3.326","0.04","0.16","29.4095","4.66108","46.44","0","SATNPRO1509","29.573999999999998","0.41422","5"],
    [24904,"HCEP03730566","2024-06-13 17:45:00","9.5743","3.22315","25.77","4.307","7.55","0.848","4.582","0.07","0.19","29.4103","4.6612","45.62","0","SATNPRO1509","29.118000000000002","0.40782","5"],
    [24905,"HCEP03730566","2024-06-13 18:00:00","9.5736","3.22327","25.815","4.228","7.54","0.856","4.798","0.06","0.19","29.4121","4.66146","44.78","0","SATNPRO1509","29.124","0.40794","5"],
    [24906,"HCEP03730566","2024-06-13 18:15:00","9.5738","3.22323","25.921","4.22","7.54","0.826","4.527","0.05","0.15","29.4114","4.66138","44.7","0","SATNPRO1509","29.208000000000002","0.40912","5"],
    [24907,"HCEP03730566","2024-06-13 18:30:00","9.5741","3.2232","26.078","4.196","7.54","0.851","4.911","0.06","0.18","29.4109","4.6613","44.44","0","SATNPRO1509","29.19","0.40886","5"],
    [24908,"HCEP03730566","2024-06-13 18:45:00","9.5744","3.22307","26.207","4.191","7.53","0.829","4.768","0.04","0.19","29.409300000000002","4.66107","44.39","0","SATNPRO1509","29.158","0.4084","5"],
    [24909,"HCEP03730566","2024-06-13 19:00:00","9.5747","3.22282","26.366","4.189","7.53","0.74","4.307","0.04","0.16","29.4064","4.66066","44.37","0","SATNPRO1509","29.28","0.41016","5"],
    [24910,"HCEP03730566","2024-06-13 19:15:00","9.5744","3.22283","26.559","4.204","7.53","0.755","4.5","0.06","0.15","29.4067","4.66072","44.53","0","SATNPRO1509","29.262","0.40986","5"],
    [24911,"HCEP03730566","2024-06-13 19:30:00","9.5742","3.22276","26.635","4.216","7.53","0.664","4.133","0.03","0.1","29.4061","4.66065","44.65","0","SATNPRO1509","29.312","0.41058","5"],
    [24912,"HCEP03730566","2024-06-13 19:45:00","9.5735","3.22271","26.809","4.233","7.54","0.62","3.915","0.05","0.1","29.4061","4.66066","44.83","0","SATNPRO1509","29.354","0.41114","5"],
    [24913,"HCEP03730566","2024-06-13 20:00:00","9.5739","3.22266","26.953","4.238","7.54","0.588","4.22","0.03","0.1","29.4052","4.66054","44.88","0","SATNPRO1509","29.352","0.41112","5"],
    [24914,"HCEP03730566","2024-06-13 20:15:00","9.5747","3.22255","27.038","4.246","7.54","0.546","3.911","0.02","0.11","29.4033","4.66027","44.97","0","SATNPRO1509","29.334","0.41092","5"],
    [24915,"HCEP03730566","2024-06-13 20:30:00","9.5761","3.22248","27.239","4.238","7.54","0.543","4.351","0.03","0.12","29.4014","4.65998","44.89","0","SATNPRO1509","29.282","0.41018","5"],
    [24916,"HCEP03730566","2024-06-13 20:45:00","9.5775","3.22243","27.332","4.191","7.53","0.553","4.448","0.02","0.12","29.3998","4.65973","44.39","0","SATNPRO1509","29.148","0.40826","5"],
    [24917,"HCEP03730566","2024-06-13 21:00:00","9.5787","3.22236","27.426","4.166","7.53","0.554","4.726","0.02","0.13","29.398","4.65946","44.12","0","SATNPRO1509","29.062","0.40706","5"],
    [24918,"HCEP03730566","2024-06-13 21:15:00","9.579","3.22225","27.562","4.177","7.53","0.535","4.224","0.03","0.08","29.3966","4.65926","44.24","0","SATNPRO1509","29.291999999999998","0.4103","5"],
    [24919,"HCEP03730566","2024-06-13 21:30:00","9.5786","3.22222","27.685","4.2","7.53","0.526","4.358","0.02","0.15","29.3966","4.65926","44.49","0","SATNPRO1509","29.208","0.4091","5"],
    [24920,"HCEP03730566","2024-06-13 21:45:00","9.5793","3.22213","27.711","4.228","7.53","0.512","3.874","0.03","0.09","29.3951","4.65904","44.78","0","SATNPRO1509","29.26","0.40984","5"],
    [24921,"HCEP03730566","2024-06-13 22:00:00","9.5802","3.22204","27.756","4.255","7.54","0.514","4.245","0.03","0.14","29.3934","4.65879","45.07","0","SATNPRO1509","29.366","0.41128","5"],
    [24922,"HCEP03730566","2024-06-13 22:15:00","9.5812","3.22185","27.811","4.306","7.54","0.517","4.985","0.04","0.06","29.3906","4.65838","45.6","0","SATNPRO1509","29.426000000000002","0.41216","5"],
    [24923,"HCEP03730566","2024-06-13 22:30:00","9.5824","3.22174","27.794","4.328","7.54","0.525","7.2","0.02","0.1","29.3886","4.65806","45.84","0","SATNPRO1509","29.468","0.41276","5"],
    [24924,"HCEP03730566","2024-06-13 22:45:00","9.5828","3.22161","27.844","4.405","7.55","0.504","10.685","0.03","0.07","29.3869","4.65782","46.66","0","SATNPRO1509","29.605999999999998","0.41468","5"],
    [24925,"HCEP03730566","2024-06-13 23:00:00","9.5836","3.2216","27.837","4.41","7.55","0.521","15.463","0.02","0.07","29.3862","4.6577","46.71","0","SATNPRO1509","29.566","0.41412","5"],
    [24926,"HCEP03730566","2024-06-13 23:15:00","9.5838","3.22156","27.819","4.44","7.55","0.526","19.812","0.03","0.05","29.3856","4.65762","47.03","0","SATNPRO1509","29.706","0.41606","5"],
    [24927,"HCEP03730566","2024-06-13 23:30:00","9.5844","3.22144","27.785","4.522","7.56","0.506","23.216","0.03","0.08","29.3839","4.65735","47.9","0","SATNPRO1509","29.83","0.41782","5"],
    [24928,"HCEP03730566","2024-06-13 23:45:00","9.5848","3.2214","27.807","4.556","7.56","0.487","26.26","0.02","0.06","29.3832","4.65725","48.26","0","SATNPRO1509","29.881999999999998","0.41852","5"],
    [24929,"HCEP03730566","2024-06-14 00:00:00","9.5863","3.22131","27.729","4.554","7.56","0.495","28.01","0.02","0.06","29.3811","4.65692","48.23","0","SATNPRO1509","29.856","0.41818","5"],
    [24930,"HCEP03730566","2024-06-14 00:15:00","9.5876","3.22122","27.658","4.582","7.57","0.486","28.021","0.02","0.06","29.3792","4.65661","48.53","0","SATNPRO1509","29.882","0.41852","5"],
    [24931,"HCEP03730566","2024-06-14 00:30:00","9.5884","3.22115","27.585","4.591","7.57","0.476","26.259","0.02","0.09","29.3778","4.6564","48.63","0","SATNPRO1509","29.88","0.4185","5"],
    [24932,"HCEP03730566","2024-06-14 00:45:00","9.5879","3.22121","27.518","4.588","7.57","0.468","24.242","0.02","0.08","29.3788","4.65655","48.6","0","SATNPRO1509","29.876","0.41848","5"],
    [24933,"HCEP03730566","2024-06-14 01:00:00","9.5865","3.22132","27.423","4.577","7.57","0.489","22.92","0.02","0.1","29.3812","4.65691","48.48","0","SATNPRO1509","29.998","0.42016","5"],
    [24934,"HCEP03730566","2024-06-14 01:15:00","9.5851","3.22143","27.329","4.576","7.57","0.482","22.273","0.02","0.07","29.3835","4.65726","48.47","0","SATNPRO1509","29.962","0.4197","5"],
    [24935,"HCEP03730566","2024-06-14 01:30:00","9.5833","3.22156","27.239","4.592","7.57","0.481","21.656","0.02","0.1","29.3863","4.65768","48.64","0","SATNPRO1509","30.11","0.4217","5"],
    [24936,"HCEP03730566","2024-06-14 01:45:00","9.5826","3.22163","27.131","4.6","7.57","0.487","22.692","0.01","0.16","29.3876","4.65788","48.73","0","SATNPRO1509","30.148","0.42226","5"],
    [24937,"HCEP03730566","2024-06-14 02:00:00","9.5817","3.22179","26.991","4.606","7.57","0.513","24.571","0.06","0.39","29.39","4.65823","48.78","0","SATNPRO1509","30.348","0.42508","5"],
    [24938,"HCEP03730566","2024-06-14 02:15:00","9.5816","3.22193","26.895","4.663","7.57","0.477","25.244","0.03","0.09","29.3915","4.65844","49.39","0","SATNPRO1509","30.206","0.42304","5"],
    [24939,"HCEP03730566","2024-06-14 02:30:00","9.5815","3.22195","26.735","4.663","7.57","0.496","24.773","0.04","0.15","29.3919","4.65849","49.39","0","SATNPRO1509","30.218","0.42326","5"],
    [24940,"HCEP03730566","2024-06-14 02:45:00","9.5812","3.22203","26.599","4.674","7.58","0.495","24.251","0.04","0.1","29.393","4.65864","49.5","0","SATNPRO1509","30.174","0.42262","5"],
    [24941,"HCEP03730566","2024-06-14 03:00:00","9.5808","3.22199","26.451","4.658","7.58","0.504","22.938","0.02","0.15","29.393","4.65864","49.33","0","SATNPRO1509","30.132","0.42204","5"],
    [24942,"HCEP03730566","2024-06-14 03:15:00","9.5808","3.22199","26.336","4.612","7.57","0.545","22.52","0.24","0.29","29.3931","4.65865","48.85","0","SATNPRO1509","30.194","0.42294","5"],
    [24943,"HCEP03730566","2024-06-14 03:30:00","9.5809","3.22196","26.194","4.591","7.57","0.534","20.285","0.04","0.33","29.3927","4.65859","48.63","0","SATNPRO1509","30.016000000000002","0.42042","5"],
    [24944,"HCEP03730566","2024-06-14 03:45:00","9.5812","3.22193","26.093","4.591","7.57","0.525","14.952","0.04","0.43","29.3922","4.65849","48.63","0","SATNPRO1509","30.03","0.4206","5"],
    [24945,"HCEP03730566","2024-06-14 04:00:00","9.581","3.22189","25.998","4.583","7.56","0.525","12.277","0.08","0.42","29.392","4.65847","48.55","0","SATNPRO1509","30.034","0.42064","5"],
    [24946,"HCEP03730566","2024-06-14 04:15:00","9.5814","3.22185","25.91","4.572","7.56","0.511","16.152","0.04","0.51","29.3914","4.65837","48.43","0","SATNPRO1509","30.094","0.4215","5"],
    [24947,"HCEP03730566","2024-06-14 04:30:00","9.5816","3.22184","25.824","4.551","7.56","0.528","20.632","0.04","0.31","29.3911","4.65832","48.2","0","SATNPRO1509","30.012","0.42036","5"],
    [24948,"HCEP03730566","2024-06-14 04:45:00","9.5805","3.22196","25.767","4.559","7.56","0.466","20.844","0.04","0.24","29.3932","4.65864","48.29","0","SATNPRO1509","30.118000000000002","0.42188","5"],
    [24949,"HCEP03730566","2024-06-14 05:00:00","9.581","3.2218","25.733","4.573","7.56","0.539","23.049","0.07","0.14","29.3912","4.65834","48.44","0","SATNPRO1509","30.058","0.421","5"],
    [24950,"HCEP03730566","2024-06-14 05:15:00","9.5818","3.22179","25.73","4.549","7.56","0.486","25.69","0.04","0.18","29.3904","4.6582","48.19","0","SATNPRO1509","29.67","0.41552","5"],
    [24951,"HCEP03730566","2024-06-14 05:30:00","9.5814","3.22175","25.722","4.556","7.56","0.463","28.404","0.03","0.38","29.3904","4.65821","48.26","0","SATNPRO1509","30.122","0.4219","5"],
    [24952,"HCEP03730566","2024-06-14 05:45:00","9.5818","3.22169","25.69","4.558","7.56","0.484","27.286","0.04","0.29","29.3894","4.65806","48.28","0","SATNPRO1509","30.056","0.42094","5"],
    [24953,"HCEP03730566","2024-06-14 06:00:00","9.5834","3.22157","25.693","4.565","7.56","0.532","24.539","0.04","0.32","29.3869","4.65768","48.36","0","SATNPRO1509","30.044","0.4208","5"],
    [24954,"HCEP03730566","2024-06-14 06:15:00","9.5846","3.22157","25.703","4.56","7.56","0.527","21.802","0.05","0.24","29.3859","4.65752","48.3","0","SATNPRO1509","29.976","0.41986","5"],
    [24955,"HCEP03730566","2024-06-14 06:30:00","9.585","3.22152","25.728","4.571","7.56","0.519","20.683","0.03","0.13","29.3851","4.65739","48.42","0","SATNPRO1509","29.944","0.41938","5"],
    [24956,"HCEP03730566","2024-06-14 06:45:00","9.5857","3.22142","25.75","4.574","7.56","0.485","19.319","0.02","0.1","29.3835","4.65716","48.45","0","SATNPRO1509","30.073999999999998","0.42122","5"],
    [24957,"HCEP03730566","2024-06-14 07:00:00","9.5869","3.22131","25.792","4.553","7.56","0.508","22.628","0.03","0.09","29.3814","4.65683","48.22","0","SATNPRO1509","29.966","0.41972","5"],
    [24958,"HCEP03730566","2024-06-14 07:15:00","9.5869","3.22135","25.85","4.532","7.56","0.497","27.503","0.03","0.11","29.3818","4.65689","48.01","0","SATNPRO1509","29.976","0.41986","5"],
    [24959,"HCEP03730566","2024-06-14 07:30:00","9.5861","3.22143","25.845","4.529","7.56","0.5","29.97","0.04","0.09","29.3833","4.65713","47.98","0","SATNPRO1509","29.976","0.41988","5"],
    [24960,"HCEP03730566","2024-06-14 07:45:00","9.585","3.2216","25.962","4.52","7.56","0.484","28.27","0.03","0.13","29.3859","4.65752","47.88","0","SATNPRO1509","29.814","0.41762","5"],
    [24961,"HCEP03730566","2024-06-14 08:00:00","9.5838","3.22188","25.996","4.508","7.56","0.478","25.198","0.02","0.08","29.3896","4.65808","47.75","0","SATNPRO1509","29.882","0.41854","5"],
    [24962,"HCEP03730566","2024-06-14 08:15:00","9.5822","3.22212","26.007","4.494","7.56","0.483","23.081","0.03","0.09","29.3933","4.65863","47.6","0","SATNPRO1509","29.766","0.41692","5"],
    [24963,"HCEP03730566","2024-06-14 08:30:00","9.5802","3.22228","26.062","4.382","7.56","0.506","20.605","0.03","0.1","29.3966","4.65914","46.41","0","SATNPRO1509","29.524","0.41352","5"],
    [24964,"HCEP03730566","2024-06-14 08:45:00","9.578","3.22268","26.136","4.245","7.55","0.499","16.367","0.03","0.1","29.4023","4.66","44.96","0","SATNPRO1509","29.272000000000002","0.40998","5"],
    [24965,"HCEP03730566","2024-06-14 09:00:00","9.5767","3.22301","26.191","4.221","7.54","0.494","13.097","0.02","0.12","29.4068","4.66067","44.71","0","SATNPRO1509","29.392","0.4117","5"],
    [24966,"HCEP03730566","2024-06-14 09:15:00","9.5749","3.2233","26.231","4.236","7.54","0.481","8.961","0.02","0.12","29.4111","4.66133","44.87","0","SATNPRO1509","29.45","0.4125","5"],
    [24967,"HCEP03730566","2024-06-14 09:30:00","9.5732","3.22354","26.268","4.225","7.54","0.476","6.353","0.02","0.09","29.415","4.66191","44.75","0","SATNPRO1509","29.476","0.41286","5"],
    [24968,"HCEP03730566","2024-06-14 09:45:00","9.5722","3.22383","26.316","4.237","7.53","0.501","5.296","0.03","0.1","29.4187","4.66247","44.88","0","SATNPRO1509","29.486","0.41298","5"],
    [24969,"HCEP03730566","2024-06-14 10:00:00","9.5699","3.22458","26.337","4.306","7.54","0.482","4.409","0.02","0.32","29.4281","4.66385","45.61","0","SATNPRO1509","29.958","0.41962","5"],
    [24970,"HCEP03730566","2024-06-14 10:15:00","9.5696","3.22496","26.362","4.457","7.55","0.51","4.956","0.02","0.19","29.4322","4.66445","47.21","0","SATNPRO1509","29.964","0.41968","5"],
    [24971,"HCEP03730566","2024-06-14 10:30:00","9.5703","3.22493","26.385","4.515","7.56","0.494","4.141","0.02","0.19","29.4312","4.6643","47.82","0","SATNPRO1509","30.166","0.42252","5"],
    [24972,"HCEP03730566","2024-06-14 10:45:00","9.5714","3.22465","26.483","4.529","7.56","0.47","3.692","0.02","0.15","29.4275","4.66375","47.98","0","SATNPRO1509","30.023999999999997","0.42052","5"],
    [24973,"HCEP03730566","2024-06-14 11:00:00","9.5726","3.22437","26.428","4.527","7.56","0.484","3.684","0.03","0.18","29.4237","4.66319","47.95","0","SATNPRO1509","30.068","0.42114","5"],
    [24974,"HCEP03730566","2024-06-14 11:15:00","9.573","3.22437","26.459","4.504","7.56","0.51","3.771","0.03","0.23","29.4234","4.66314","47.7","0","SATNPRO1509","30.072","0.42122","5"],
    [24975,"HCEP03730566","2024-06-14 11:30:00","9.5727","3.2244","26.437","4.489","7.56","0.494","3.803","0.02","0.37","29.4239","4.66322","47.54","0","SATNPRO1509","30.018","0.42048","5"],
    [24976,"HCEP03730566","2024-06-14 11:45:00","9.5729","3.22433","26.428","4.484","7.56","0.496","3.798","0.02","0.17","29.4231","4.66309","47.5","0","SATNPRO1509","30.044","0.4208","5"],
    [24977,"HCEP03730566","2024-06-14 12:00:00","9.5721","3.22439","26.374","4.516","7.56","0.498","3.61","0.02","0.24","29.4243","4.66328","47.83","0","SATNPRO1509","30.054000000000002","0.42094","5"],
    [24978,"HCEP03730566","2024-06-14 12:15:00","9.5719","3.22463","26.337","4.532","7.56","0.533","3.904","0.03","0.25","29.4269","4.66365","48.01","0","SATNPRO1509","30.14","0.42218","5"],
    [24979,"HCEP03730566","2024-06-14 12:30:00","9.5739","3.22438","26.273","4.539","7.56","0.524","3.974","0.03","0.2","29.4229","4.66303","48.08","0","SATNPRO1509","30.144","0.4222","5"],
    [24980,"HCEP03730566","2024-06-14 12:45:00","9.5763","3.22393","26.249","4.555","7.56","0.531","3.92","0.04","0.22","29.4164","4.66206","48.25","0","SATNPRO1509","30.118","0.42184","5"],
    [24981,"HCEP03730566","2024-06-14 13:00:00","9.5764","3.22393","26.24","4.562","7.57","0.541","3.779","0.04","0.16","29.4162","4.66204","48.32","0","SATNPRO1509","30.116","0.42182","5"],
    [24982,"HCEP03730566","2024-06-14 13:15:00","9.5807","3.22343","26.181","4.569","7.57","0.538","3.835","0.04","0.18","29.4077","4.66073","48.4","0","SATNPRO1509","30.192","0.42286","5"],
    [24983,"HCEP03730566","2024-06-14 13:30:00","9.5818","3.22326","26.166","4.588","7.57","0.566","4.078","0.04","0.22","29.4051","4.66034","48.61","0","SATNPRO1509","30.202","0.42302","5"],
    [24984,"HCEP03730566","2024-06-14 13:45:00","9.5822","3.22321","26.088","4.606","7.57","0.564","4.118","0.05","0.23","29.4042","4.6602","48.79","0","SATNPRO1509","30.392","0.42568","5"],
    [24985,"HCEP03730566","2024-06-14 14:00:00","9.5854","3.22282","25.994","4.654","7.58","0.554","4.247","0.04","0.16","29.3978","4.65922","49.3","0","SATNPRO1509","30.27","0.42398","5"],
    [24986,"HCEP03730566","2024-06-14 14:15:00","9.5915","3.2221","25.907","4.677","7.58","0.539","4.317","0.03","0.18","29.3856","4.65736","49.55","0","SATNPRO1509","30.342","0.42502","5"],
    [24987,"HCEP03730566","2024-06-14 14:30:00","9.5977","3.22127","25.881","4.684","7.58","0.545","4.059","0.04","0.25","29.3721","4.65533","49.63","0","SATNPRO1509","30.218","0.42324","5"],
    [24988,"HCEP03730566","2024-06-14 14:45:00","9.597","3.22132","25.821","4.685","7.58","0.518","3.778","0.03","0.35","29.3732","4.65548","49.64","0","SATNPRO1509","30.288","0.42424","5"],
    [24989,"HCEP03730566","2024-06-14 15:00:00","9.595","3.22142","25.768","4.681","7.58","0.535","3.912","0.05","0.21","29.3759","4.65591","49.59","0","SATNPRO1509","30.408","0.42592","5"],
    [24990,"HCEP03730566","2024-06-14 15:15:00","9.5947","3.22138","25.63","4.676","7.58","0.533","3.879","0.05","0.21","29.3757","4.65588","49.53","0","SATNPRO1509","30.406000000000002","0.42588","5"],
    [24991,"HCEP03730566","2024-06-14 15:30:00","9.5942","3.22138","25.605","4.66","7.58","0.547","4.026","0.09","0.29","29.3762","4.65595","49.37","0","SATNPRO1509","30.416","0.42606","5"],
    [24992,"HCEP03730566","2024-06-14 15:45:00","9.5945","3.22138","25.592","4.666","7.58","0.525","3.923","0.03","0.34","29.376","4.65593","49.43","0","SATNPRO1509","30.308","0.42452","5"],
    [24993,"HCEP03730566","2024-06-14 16:00:00","9.5957","3.22134","25.568","4.666","7.58","0.52","4.18","0.03","0.2","29.3746","4.65569","49.44","0","SATNPRO1509","30.346","0.42506","5"],
    [24994,"HCEP03730566","2024-06-14 16:15:00","9.596","3.22137","25.528","4.649","7.58","0.55","4.228","0.05","0.39","29.3746","4.65569","49.25","0","SATNPRO1509","30.274","0.42404","5"],
    [24995,"HCEP03730566","2024-06-14 16:30:00","9.5978","3.22124","25.519","4.585","7.57","0.547","4.228","0.04","0.3","29.3719","4.65527","48.58","0","SATNPRO1509","30.16","0.4224","5"],
    [24996,"HCEP03730566","2024-06-14 16:45:00","9.5995","3.22112","25.551","4.519","7.57","0.577","4.435","0.05","0.44","29.3692","4.65486","47.87","0","SATNPRO1509","29.934","0.4193","5"],
    [24997,"HCEP03730566","2024-06-14 17:00:00","9.6021","3.22087","25.579","4.452","7.56","0.574","4.404","0.05","0.48","29.3647","4.65416","47.17","0","SATNPRO1509","29.886","0.4186","5"],
    [24998,"HCEP03730566","2024-06-14 17:15:00","9.6043","3.22071","25.6","4.409","7.56","0.548","4.393","0.04","0.35","29.3612","4.65363","46.72","0","SATNPRO1509","29.712","0.41618","5"],
    [24999,"HCEP03730566","2024-06-14 17:30:00","9.6058","3.22056","25.653","4.371","7.56","0.588","4.304","0.08","0.38","29.3584","4.65321","46.31","0","SATNPRO1509","29.644000000000002","0.41524","5"],
    [25000,"HCEP03730566","2024-06-14 17:45:00","9.6066","3.22056","25.72","4.334","7.55","0.576","4.302","0.06","0.59","29.3578","4.65311","45.93","0","SATNPRO1509","29.652","0.41528","5"],
    [25001,"HCEP03730566","2024-06-14 18:00:00","9.6072","3.22053","25.775","4.317","7.55","0.564","4.343","0.03","0.19","29.3569","4.65297","45.74","0","SATNPRO1509","29.6","0.41462","5"],
    [25002,"HCEP03730566","2024-06-14 18:15:00","9.6071","3.22056","25.887","4.309","7.55","0.558","4.429","0.04","0.19","29.3573","4.65304","45.65","0","SATNPRO1509","29.546","0.41386","5"],
    [25003,"HCEP03730566","2024-06-14 18:30:00","9.607","3.22057","25.975","4.301","7.55","0.559","4.309","0.04","0.21","29.3574","4.65306","45.58","0","SATNPRO1509","29.528","0.4136","5"],
    [25004,"HCEP03730566","2024-06-14 18:45:00","9.6074","3.22051","26.044","4.299","7.54","0.567","4.208","0.05","0.37","29.3565","4.65292","45.55","0","SATNPRO1509","29.624","0.41494","5"],
    [25005,"HCEP03730566","2024-06-14 19:00:00","9.6079","3.22055","26.136","4.299","7.54","0.541","3.809","0.05","0.72","29.3564","4.65291","45.55","0","SATNPRO1509","29.718","0.41622","5"],
    [25006,"HCEP03730566","2024-06-14 19:15:00","9.6071","3.22056","26.273","4.299","7.54","0.556","3.711","0.04","0.43","29.3571","4.65303","45.55","0","SATNPRO1509","29.526","0.4136","5"],
    [25007,"HCEP03730566","2024-06-14 19:30:00","9.6067","3.22062","26.394","4.299","7.54","0.541","3.668","0.05","0.25","29.358","4.65317","45.55","0","SATNPRO1509","29.564","0.4141","5"],
    [25008,"HCEP03730566","2024-06-14 19:45:00","9.6062","3.22068","26.533","4.298","7.54","0.554","3.483","0.06","0.26","29.359","4.65333","45.54","0","SATNPRO1509","29.58","0.41434","5"],
    [25009,"HCEP03730566","2024-06-14 20:00:00","9.6044","3.22081","26.653","4.298","7.54","0.619","4.843","0.05","0.27","29.3617","4.65376","45.54","0","SATNPRO1509","29.662","0.4155","5"],
    [25010,"HCEP03730566","2024-06-14 20:15:00","9.6048","3.22079","26.797","4.28","7.54","0.61","4.61","0.08","0.33","29.3611","4.65367","45.35","0","SATNPRO1509","29.61","0.41474","5"],
    [25011,"HCEP03730566","2024-06-14 20:30:00","9.6054","3.22078","26.901","4.261","7.54","0.658","5.268","0.1","0.39","29.3605","4.65358","45.15","0","SATNPRO1509","29.428","0.41216","5"],
    [25012,"HCEP03730566","2024-06-14 20:45:00","9.6032","3.22095","27.016","4.263","7.54","0.612","4.751","0.04","0.3","29.3639","4.65412","45.17","0","SATNPRO1509","29.632","0.415","5"],
    [25013,"HCEP03730566","2024-06-14 21:00:00","9.6035","3.22089","27.158","4.318","7.54","0.549","3.567","0.05","0.37","29.3631","4.654","45.75","0","SATNPRO1509","29.774","0.41704","5"],
    [25014,"HCEP03730566","2024-06-14 21:15:00","9.6026","3.22099","27.228","4.371","7.54","0.546","3.655","0.04","0.25","29.3647","4.65425","46.31","0","SATNPRO1509","29.818","0.41766","5"],
    [25015,"HCEP03730566","2024-06-14 21:30:00","9.6023","3.22102","27.324","4.382","7.54","0.568","3.663","0.02","0.33","29.3652","4.65434","46.42","0","SATNPRO1509","29.856","0.4182","5"],
    [25016,"HCEP03730566","2024-06-14 21:45:00","9.6015","3.22106","27.34","4.396","7.54","0.613","3.406","0.04","0.35","29.3663","4.65451","46.57","0","SATNPRO1509","29.93","0.4192","5"],
    [25017,"HCEP03730566","2024-06-14 22:00:00","9.6011","3.22115","27.47","4.423","7.54","0.648","3.141","0.07","0.28","29.3675","4.6547","46.86","0","SATNPRO1509","30.004","0.42028","5"],
    [25018,"HCEP03730566","2024-06-14 22:15:00","9.5999","3.22126","27.49","4.452","7.55","0.665","3.321","0.03","0.26","29.3696","4.65501","47.17","0","SATNPRO1509","30.044","0.42086","5"],
    [25019,"HCEP03730566","2024-06-14 22:30:00","9.599","3.22135","27.595","4.463","7.55","0.7","3.611","0.03","0.19","29.3712","4.65526","47.29","0","SATNPRO1509","29.97","0.4198","5"],
    [25020,"HCEP03730566","2024-06-14 22:45:00","9.5982","3.2214","27.67","4.485","7.55","0.706","3.574","0.03","0.18","29.3723","4.65544","47.51","0","SATNPRO1509","30.172","0.42264","5"],
    [25021,"HCEP03730566","2024-06-14 23:00:00","9.5983","3.22141","27.685","4.507","7.55","0.689","3.919","0.01","0.18","29.3723","4.65544","47.76","0","SATNPRO1509","30.088","0.42144","5"],
    [25022,"HCEP03730566","2024-06-14 23:15:00","9.5983","3.22152","27.706","4.51","7.56","0.664","4.221","0.07","0.2","29.3735","4.65561","47.78","0","SATNPRO1509","30.066","0.42114","5"],
    [25023,"HCEP03730566","2024-06-14 23:30:00","9.5989","3.2216","27.747","4.488","7.55","0.588","4.225","0.01","0.23","29.3737","4.65563","47.55","0","SATNPRO1509","29.934","0.4193","5"],
    [25024,"HCEP03730566","2024-06-14 23:45:00","9.5991","3.22163","27.706","4.458","7.55","0.506","4.279","0","0.15","29.3739","4.65566","47.24","0","SATNPRO1509","29.902","0.41884","5"],
    [25025,"HCEP03730566","2024-06-15 00:00:00","9.5985","3.22169","27.663","4.452","7.55","0.412","4.758","0","0.29","29.375","4.65583","47.17","0","SATNPRO1509","30.016","0.4204","5"],
    [25026,"HCEP03730566","2024-06-15 00:15:00","9.598","3.22171","27.662","4.47","7.55","0.314","5.056","0","0.34","29.3757","4.65593","47.36","0","SATNPRO1509","29.96","0.41962","5"],
    [25027,"HCEP03730566","2024-06-15 00:30:00","9.5973","3.22177","27.61","4.51","7.55","0.229","6.372","0","0.26","29.3768","4.6561","47.79","0","SATNPRO1509","30.15","0.42236","5"],
    [25028,"HCEP03730566","2024-06-15 00:45:00","9.5966","3.22187","27.56","4.535","7.55","0.162","10.074","0.01","0.34","29.3784","4.65633","48.05","0","SATNPRO1509","30.13","0.42202","5"],
    [25029,"HCEP03730566","2024-06-15 01:00:00","9.5963","3.22184","27.488","4.545","7.55","0.113","16.467","0","0.16","29.3784","4.65634","48.15","0","SATNPRO1509","30.236","0.4235","5"],
    [25030,"HCEP03730566","2024-06-15 01:15:00","9.5957","3.22196","27.424","4.562","7.56","0.099","28.819","0.01","0.37","29.3802","4.6566","48.33","0","SATNPRO1509","30.166","0.42252","5"],
    [25031,"HCEP03730566","2024-06-15 01:30:00","9.5953","3.22203","27.349","4.549","7.56","0.108","47.157","0.01","0.18","29.3811","4.65674","48.2","0","SATNPRO1509","30.066","0.42112","5"],
    [25032,"HCEP03730566","2024-06-15 01:45:00","9.595","3.22206","27.258","4.533","7.56","0.124","70.879","0.01","0.2","29.3818","4.65683","48.02","0","SATNPRO1509","30.054","0.42096","5"],
    [25033,"HCEP03730566","2024-06-15 02:00:00","9.5949","3.22209","27.17","4.528","7.56","0.143","97.522","0.02","0.24","29.3821","4.65687","47.98","0","SATNPRO1509","30.032","0.42064","5"],
    [25034,"HCEP03730566","2024-06-15 02:15:00","9.5948","3.22212","27.051","4.527","7.56","0.175","114.234","0.02","0.22","29.3826","4.65695","47.96","0","SATNPRO1509","29.842","0.418","5"],
    [25035,"HCEP03730566","2024-06-15 02:30:00","9.5946","3.22215","26.93","4.522","7.55","0.2","122.621","0.03","0.23","29.3831","4.65701","47.91","0","SATNPRO1509","29.986","0.42","5"],
    [25036,"HCEP03730566","2024-06-15 02:45:00","9.5945","3.22219","26.819","4.527","7.56","0.233","121.592","0.04","0.27","29.3837","4.65709","47.96","0","SATNPRO1509","29.96","0.41966","5"],
    [25037,"HCEP03730566","2024-06-15 03:00:00","9.5947","3.22216","26.69","4.531","7.55","0.236","117.236","0.03","0.2","29.3832","4.65702","48.01","0","SATNPRO1509","30.142","0.4222","5"],
    [25038,"HCEP03730566","2024-06-15 03:15:00","9.5952","3.22214","26.564","4.531","7.55","0.265","111.163","0.04","0.1","29.3827","4.65692","48","0","SATNPRO1509","30.17","0.42258","5"],
    [25039,"HCEP03730566","2024-06-15 03:30:00","9.596","3.2221","26.43","4.504","7.55","0.261","104.104","0.03","0.06","29.3817","4.65675","47.72","0","SATNPRO1509","30.052","0.42092","5"],
    [25040,"HCEP03730566","2024-06-15 03:45:00","9.5965","3.22215","26.282","4.449","7.55","0.277","89.592","0.03","0.08","29.3818","4.65675","47.13","0","SATNPRO1509","29.748","0.41668","5"],
    [25041,"HCEP03730566","2024-06-15 04:00:00","9.5964","3.22215","26.148","4.4","7.55","0.262","64.675","0.03","0.02","29.3819","4.65676","46.62","0","SATNPRO1509","29.712","0.41616","5"],
    [25042,"HCEP03730566","2024-06-15 04:15:00","9.5965","3.22215","25.997","4.379","7.55","0.234","38.828","0.02","0.03","29.382","4.65676","46.39","0","SATNPRO1509","29.753999999999998","0.41678","5"],
    [25043,"HCEP03730566","2024-06-15 04:30:00","9.5967","3.22208","25.875","4.375","7.55","0.236","21.116","0.02","0.02","29.3811","4.65663","46.36","0","SATNPRO1509","29.706","0.41606","5"],
    [25044,"HCEP03730566","2024-06-15 04:45:00","9.5969","3.22199","25.736","4.368","7.54","0.208","8.157","0.03","0.02","29.3801","4.65646","46.28","0","SATNPRO1509","29.826","0.41778","5"],
    [25045,"HCEP03730566","2024-06-15 05:00:00","9.5975","3.22183","25.612","4.404","7.55","0.181","1.16","0.02","0.01","29.3781","4.65616","46.67","0","SATNPRO1509","29.932","0.41926","5"],
    [25046,"HCEP03730566","2024-06-15 05:15:00","9.5971","3.22178","25.551","4.442","7.54","0.171","0.272","0.02","0.02","29.3779","4.65614","47.06","0","SATNPRO1509","29.823999999999998","0.41772","5"],
    [25047,"HCEP03730566","2024-06-15 05:30:00","9.5975","3.22154","25.494","4.388","7.54","0.143","0.247","0.01","0.01","29.3752","4.65575","46.49","0","SATNPRO1509","29.682","0.41576","5"],
    [25048,"HCEP03730566","2024-06-15 05:45:00","9.5978","3.22138","25.423","4.37","7.54","0.131","0.261","0.01","0.01","29.3734","4.65548","46.3","0","SATNPRO1509","29.676","0.41562","5"],
    [25049,"HCEP03730566","2024-06-15 06:00:00","9.5976","3.22138","25.388","4.374","7.54","0.121","0.307","0.01","0.01","29.3735","4.65549","46.34","0","SATNPRO1509","29.874","0.41848","5"],
    [25050,"HCEP03730566","2024-06-15 06:15:00","9.5966","3.22133","25.38","4.405","7.54","0.106","0.408","0.01","0.02","29.3739","4.65557","46.67","0","SATNPRO1509","29.986","0.42002","5"],
    [25051,"HCEP03730566","2024-06-15 06:30:00","9.596","3.2214","25.419","4.431","7.54","0.109","0.56","0.01","0.03","29.375","4.65573","46.94","0","SATNPRO1509","29.901999999999997","0.41882","5"],
    [25052,"HCEP03730566","2024-06-15 06:45:00","9.5959","3.22145","25.454","4.426","7.54","0.119","0.699","0.01","0.04","29.3756","4.65582","46.89","0","SATNPRO1509","29.604","0.41464","5"],
    [25053,"HCEP03730566","2024-06-15 07:00:00","9.5959","3.22148","25.457","4.409","7.54","0.117","0.737","0.01","0.08","29.3758","4.65586","46.71","0","SATNPRO1509","29.628","0.415","5"],
    [25054,"HCEP03730566","2024-06-15 07:15:00","9.5956","3.22155","25.496","4.396","7.55","0.13","0.891","0.01","0.06","29.3768","4.65601","46.57","0","SATNPRO1509","29.874","0.41844","5"],
    [25055,"HCEP03730566","2024-06-15 07:30:00","9.5953","3.2216","25.513","4.382","7.55","0.138","0.976","0.01","0.1","29.3776","4.65612","46.43","0","SATNPRO1509","29.742","0.41658","5"],
    [25056,"HCEP03730566","2024-06-15 07:45:00","9.5951","3.22169","25.564","4.369","7.55","0.168","1.187","0.02","0.09","29.3787","4.65629","46.28","0","SATNPRO1509","29.588","0.41444","5"],
    [25057,"HCEP03730566","2024-06-15 08:00:00","9.5953","3.22194","25.584","4.327","7.54","0.203","1.312","0.04","0.13","29.381","4.65662","45.84","0","SATNPRO1509","29.674","0.41564","5"],
    [25058,"HCEP03730566","2024-06-15 08:15:00","9.5951","3.22222","25.656","4.3","7.54","0.202","1.426","0.02","0.17","29.3839","4.65705","45.56","0","SATNPRO1509","29.77","0.41698","5"],
    [25059,"HCEP03730566","2024-06-15 08:30:00","9.5945","3.22231","25.684","4.319","7.54","0.258","1.801","0.04","0.22","29.3853","4.65726","45.75","0","SATNPRO1509","29.87","0.41838","5"],
    [25060,"HCEP03730566","2024-06-15 08:45:00","9.5928","3.22244","25.784","4.346","7.54","0.268","1.509","0.07","0.14","29.388","4.65768","46.04","0","SATNPRO1509","29.848","0.41808","5"],
    [25061,"HCEP03730566","2024-06-15 09:00:00","9.5925","3.22251","25.912","4.398","7.55","0.275","1.685","0.03","0.24","29.3888","4.65781","46.59","0","SATNPRO1509","30.084","0.4214","5"],
    [25062,"HCEP03730566","2024-06-15 09:15:00","9.5925","3.22252","25.896","4.407","7.55","0.308","2.063","0.04","1.09","29.389","4.65783","46.69","0","SATNPRO1509","29.702","0.41606","5"],
    [25063,"HCEP03730566","2024-06-15 09:30:00","9.593","3.22244","26.054","4.432","7.55","0.319","1.878","0.03","0.11","29.3877","4.65765","46.95","0","SATNPRO1509","30.048000000000002","0.42088","5"],
    [25064,"HCEP03730566","2024-06-15 09:45:00","9.5936","3.22242","26.1","4.445","7.55","0.348","2.001","0.03","0.28","29.387","4.65754","47.09","0","SATNPRO1509","30.16","0.42246","5"],
    [25065,"HCEP03730566","2024-06-15 10:00:00","9.593","3.22248","26.175","4.483","7.56","0.35","1.92","0.03","0.13","29.3881","4.6577","47.5","0","SATNPRO1509","30.142","0.42218","5"],
    [25066,"HCEP03730566","2024-06-15 10:15:00","9.5936","3.22238","26.226","4.508","7.56","0.419","2.153","0.06","0.35","29.3865","4.65747","47.76","0","SATNPRO1509","30.138","0.42214","5"],
    [25067,"HCEP03730566","2024-06-15 10:30:00","9.5937","3.22247","26.333","4.468","7.56","0.47","2.98","0.04","0.14","29.3873","4.6576","47.34","0","SATNPRO1509","30.008","0.42032","5"],
    [25068,"HCEP03730566","2024-06-15 10:45:00","9.5939","3.22241","26.409","4.412","7.56","0.537","3.185","0.04","0.18","29.3866","4.65749","46.75","0","SATNPRO1509","30.009999999999998","0.42036","5"],
    [25069,"HCEP03730566","2024-06-15 11:00:00","9.5943","3.22236","26.452","4.382","7.55","0.567","3.556","0.09","0.25","29.3857","4.65735","46.43","0","SATNPRO1509","29.882","0.41854","5"],
    [25070,"HCEP03730566","2024-06-15 11:15:00","9.5949","3.22227","26.517","4.341","7.55","0.609","3.526","0.06","0.15","29.3842","4.65714","45.99","0","SATNPRO1509","29.734","0.4165","5"],
    [25071,"HCEP03730566","2024-06-15 11:30:00","9.5954","3.22208","26.56","4.319","7.55","0.692","3.722","0.25","0.68","29.382","4.65681","45.76","0","SATNPRO1509","29.704","0.41606","5"],
    [25072,"HCEP03730566","2024-06-15 11:45:00","9.5959","3.22197","26.603","4.311","7.54","0.656","3.835","0.06","0.34","29.3804","4.65658","45.67","0","SATNPRO1509","29.842","0.41802","5"],
    [25073,"HCEP03730566","2024-06-15 12:00:00","9.5962","3.2218","26.651","4.299","7.54","0.677","3.991","0.05","0.18","29.3784","4.6563","45.55","0","SATNPRO1509","29.669999999999998","0.41562","5"],
    [25074,"HCEP03730566","2024-06-15 12:15:00","9.597","3.22176","26.674","4.307","7.54","0.646","3.954","0.06","0.22","29.3773","4.65612","45.64","0","SATNPRO1509","29.566","0.4141","5"],
    [25075,"HCEP03730566","2024-06-15 12:30:00","9.5971","3.22173","26.668","4.31","7.54","0.646","3.884","0.05","0.24","29.377","4.65607","45.66","0","SATNPRO1509","29.746","0.41666","5"],
    [25076,"HCEP03730566","2024-06-15 12:45:00","9.5966","3.22187","26.656","4.305","7.54","0.624","3.782","0.04","0.17","29.3787","4.65633","45.61","0","SATNPRO1509","29.678","0.41568","5"],
    [25077,"HCEP03730566","2024-06-15 13:00:00","9.5968","3.22188","26.642","4.299","7.54","0.627","3.692","0.05","0.14","29.3788","4.65634","45.55","0","SATNPRO1509","29.716","0.41622","5"],
    [25078,"HCEP03730566","2024-06-15 13:15:00","9.5968","3.22193","26.618","4.296","7.54","0.629","3.691","0.06","0.11","29.3793","4.65641","45.51","0","SATNPRO1509","29.7","0.41596","5"],
    [25079,"HCEP03730566","2024-06-15 13:30:00","9.5967","3.22199","26.584","4.295","7.54","0.619","3.783","0.06","0.16","29.3799","4.6565","45.5","0","SATNPRO1509","29.684","0.41582","5"],
    [25080,"HCEP03730566","2024-06-15 13:45:00","9.5968","3.22198","26.554","4.285","7.54","0.612","3.468","0.06","0.24","29.3797","4.65647","45.4","0","SATNPRO1509","29.698","0.41594","5"],
    [25081,"HCEP03730566","2024-06-15 14:00:00","9.5969","3.22199","26.541","4.288","7.54","0.63","3.739","0.06","0.2","29.3798","4.65647","45.43","0","SATNPRO1509","29.664","0.41554","5"],
    [25082,"HCEP03730566","2024-06-15 14:15:00","9.5971","3.22206","26.517","4.291","7.54","0.62","3.669","0.05","0.19","29.3804","4.65655","45.46","0","SATNPRO1509","29.68","0.41572","5"],
    [25083,"HCEP03730566","2024-06-15 14:30:00","9.5971","3.22205","26.469","4.296","7.54","0.592","3.568","0.03","0.16","29.3802","4.65652","45.52","0","SATNPRO1509","29.756","0.41678","5"],
    [25084,"HCEP03730566","2024-06-15 14:45:00","9.5976","3.22202","26.411","4.312","7.54","0.578","3.616","0.05","0.16","29.3796","4.65642","45.69","0","SATNPRO1509","29.68","0.41574","5"],
    [25085,"HCEP03730566","2024-06-15 15:00:00","9.5974","3.2221","26.329","4.319","7.54","0.579","3.428","0.05","0.17","29.3805","4.65655","45.76","0","SATNPRO1509","29.72","0.41626","5"],
    [25086,"HCEP03730566","2024-06-15 15:15:00","9.5973","3.22211","26.275","4.322","7.54","0.578","3.561","0.06","0.13","29.3807","4.65659","45.79","0","SATNPRO1509","29.81","0.41748","5"],
    [25087,"HCEP03730566","2024-06-15 15:30:00","9.5977","3.22205","26.215","4.319","7.55","0.577","3.403","0.04","0.11","29.3798","4.65645","45.76","0","SATNPRO1509","29.754","0.41676","5"],
    [25088,"HCEP03730566","2024-06-15 15:45:00","9.5978","3.22197","26.181","4.315","7.55","0.571","3.497","0.04","0.14","29.3789","4.65631","45.72","0","SATNPRO1509","29.858","0.4182","5"],
    [25089,"HCEP03730566","2024-06-15 16:00:00","9.5981","3.22201","26.102","4.312","7.55","0.594","3.569","0.06","0.16","29.3792","4.65634","45.69","0","SATNPRO1509","29.832","0.41784","5"],
    [25090,"HCEP03730566","2024-06-15 16:15:00","9.5989","3.22188","26.096","4.301","7.54","0.585","3.597","0.04","0.12","29.3772","4.65605","45.57","0","SATNPRO1509","29.66","0.4154","5"],
    [25091,"HCEP03730566","2024-06-15 16:30:00","9.5988","3.22187","26.082","4.315","7.54","0.557","3.513","0.04","0.1","29.3771","4.65603","45.72","0","SATNPRO1509","29.816","0.41762","5"],
    [25092,"HCEP03730566","2024-06-15 16:45:00","9.5988","3.22187","26.084","4.311","7.55","0.558","3.687","0.05","0.14","29.3772","4.65604","45.68","0","SATNPRO1509","29.88","0.41848","5"],
    [25093,"HCEP03730566","2024-06-15 17:00:00","9.5989","3.22182","26.07","4.323","7.55","0.553","3.581","0.05","0.15","29.3767","4.65596","45.81","0","SATNPRO1509","29.766","0.41694","5"],
    [25094,"HCEP03730566","2024-06-15 17:15:00","9.5992","3.2218","26.016","4.324","7.55","0.549","3.399","0.04","0.14","29.3762","4.65589","45.82","0","SATNPRO1509","29.796","0.41736","5"],
    [25095,"HCEP03730566","2024-06-15 17:30:00","9.5993","3.22179","25.962","4.33","7.55","0.573","3.454","0.07","0.21","29.376","4.65586","45.88","0","SATNPRO1509","29.93","0.41924","5"],
    [25096,"HCEP03730566","2024-06-15 17:45:00","9.5993","3.22179","25.97","4.335","7.55","0.537","3.179","0.06","0.35","29.376","4.65586","45.93","0","SATNPRO1509","29.538","0.41372","5"],
    [25097,"HCEP03730566","2024-06-15 18:00:00","9.5992","3.22179","25.986","4.337","7.55","0.544","3.098","0.04","0.18","29.3761","4.65587","45.95","0","SATNPRO1509","29.856","0.4182","5"],
    [25098,"HCEP03730566","2024-06-15 18:15:00","9.5992","3.22179","26.03","4.337","7.55","0.565","3.167","0.06","0.17","29.3762","4.65588","45.96","0","SATNPRO1509","29.834","0.41786","5"],
    [25099,"HCEP03730566","2024-06-15 18:30:00","9.5989","3.2218","26.011","4.337","7.55","0.524","3.049","0.04","0.22","29.3765","4.65593","45.96","0","SATNPRO1509","29.956","0.4196","5"],
    [25100,"HCEP03730566","2024-06-15 18:45:00","9.5987","3.22186","26.012","4.338","7.54","0.539","2.976","0.05","0.15","29.3772","4.65605","45.97","0","SATNPRO1509","29.791999999999998","0.4173","5"],
    [25101,"HCEP03730566","2024-06-15 19:00:00","9.5984","3.22189","26.077","4.335","7.54","0.558","2.956","0.08","0.19","29.3777","4.65613","45.93","0","SATNPRO1509","29.848","0.41806","5"],
    [25102,"HCEP03730566","2024-06-15 19:15:00","9.5985","3.22193","26.142","4.336","7.54","0.561","3.243","0.07","0.29","29.378","4.65617","45.94","0","SATNPRO1509","29.722","0.4163","5"],
    [25103,"HCEP03730566","2024-06-15 19:30:00","9.5983","3.222","26.216","4.325","7.54","0.602","4.133","0.06","0.27","29.3788","4.65629","45.82","0","SATNPRO1509","29.746","0.41664","5"],
    [25104,"HCEP03730566","2024-06-15 19:45:00","9.5983","3.22204","26.296","4.296","7.54","0.589","4.075","0.05","0.26","29.3792","4.65635","45.52","0","SATNPRO1509","29.766","0.41692","5"],
    [25105,"HCEP03730566","2024-06-15 20:00:00","9.598","3.22212","26.399","4.298","7.54","0.574","4.241","0.05","0.19","29.3803","4.65651","45.54","0","SATNPRO1509","29.714","0.41622","5"],
    [25106,"HCEP03730566","2024-06-15 20:15:00","9.5978","3.22221","26.493","4.305","7.54","0.553","4.378","0.06","0.21","29.3813","4.65667","45.61","0","SATNPRO1509","29.824","0.41776","5"],
    [25107,"HCEP03730566","2024-06-15 20:30:00","9.5979","3.22219","26.587","4.308","7.54","0.545","4.126","0.07","0.22","29.381","4.65663","45.65","0","SATNPRO1509","29.774","0.41704","5"],
    [25108,"HCEP03730566","2024-06-15 20:45:00","9.5983","3.22221","26.692","4.328","7.54","0.479","3.997","0.05","0.27","29.3809","4.65661","45.86","0","SATNPRO1509","29.818","0.41768","5"],
    [25109,"HCEP03730566","2024-06-15 21:00:00","9.5987","3.22212","26.821","4.342","7.54","0.458","3.847","0.1","0.3","29.3795","4.65642","46.01","0","SATNPRO1509","29.934","0.4193","5"],
    [25110,"HCEP03730566","2024-06-15 21:15:00","9.5992","3.222","26.918","4.37","7.54","0.443","3.449","0.18","0.24","29.3778","4.65617","46.3","0","SATNPRO1509","29.88","0.41854","5"],
    [25111,"HCEP03730566","2024-06-15 21:30:00","9.6002","3.22194","27.009","4.392","7.54","0.399","3.51","0.06","0.31","29.3764","4.65596","46.53","0","SATNPRO1509","29.904","0.41888","5"],
    [25112,"HCEP03730566","2024-06-15 21:45:00","9.5997","3.22214","27.117","4.398","7.54","0.426","3.581","0.11","0.28","29.3788","4.65631","46.6","0","SATNPRO1509","29.894","0.41872","5"],
    [25113,"HCEP03730566","2024-06-15 22:00:00","9.5983","3.22248","27.201","4.415","7.55","0.411","3.82","0.07","0.21","29.3833","4.65699","46.78","0","SATNPRO1509","30.058","0.42102","5"],
    [25114,"HCEP03730566","2024-06-15 22:15:00","9.5979","3.2226","27.294","4.439","7.55","0.417","4.09","0.04","0.18","29.3848","4.65722","47.03","0","SATNPRO1509","30.018","0.42048","5"],
    [25115,"HCEP03730566","2024-06-15 22:30:00","9.5979","3.2226","27.368","4.441","7.55","0.416","4.843","0.03","0.21","29.3848","4.65721","47.06","0","SATNPRO1509","30.004","0.42026","5"],
    [25116,"HCEP03730566","2024-06-15 22:45:00","9.5976","3.22258","27.444","4.437","7.55","0.473","6.607","0.07","0.37","29.3848","4.65723","47.02","0","SATNPRO1509","30.01","0.42032","5"],
    [25117,"HCEP03730566","2024-06-15 23:00:00","9.5977","3.22249","27.5","4.413","7.55","0.462","9.765","0.04","0.27","29.3837","4.65708","46.76","0","SATNPRO1509","29.964000000000002","0.4197","5"],
    [25118,"HCEP03730566","2024-06-15 23:15:00","9.5981","3.22222","27.549","4.34","7.55","0.494","16.027","0.05","0.28","29.3807","4.65664","45.99","0","SATNPRO1509","29.618000000000002","0.41484","5"],
    [25119,"HCEP03730566","2024-06-15 23:30:00","9.6","3.222","27.585","4.275","7.55","0.512","23.287","0.12","0.19","29.3769","4.65607","45.29","0","SATNPRO1509","29.746","0.41664","5"],
    [25120,"HCEP03730566","2024-06-15 23:45:00","9.601","3.22176","27.61","4.238","7.54","0.519","30.068","0.06","0.27","29.3737","4.65558","44.9","0","SATNPRO1509","29.518","0.41344","5"],
    [25121,"HCEP03730566","2024-06-16 00:00:00","9.6011","3.22173","27.617","4.23","7.54","0.518","34.827","0.04","0.16","29.3733","4.65553","44.82","0","SATNPRO1509","29.482","0.41294","5"],
    [25122,"HCEP03730566","2024-06-16 00:15:00","9.6019","3.22173","27.602","4.225","7.54","0.558","40.215","0.06","0.11","29.3727","4.65543","44.77","0","SATNPRO1509","29.476","0.41288","5"],
    [25123,"HCEP03730566","2024-06-16 00:30:00","9.6012","3.22178","27.6","4.218","7.54","0.577","42.638","0.07","0.13","29.3737","4.65559","44.69","0","SATNPRO1509","29.424","0.41212","5"],
    [25124,"HCEP03730566","2024-06-16 00:45:00","9.6009","3.2218","27.579","4.214","7.54","0.559","43.961","0.04","0.27","29.3742","4.65566","44.64","0","SATNPRO1509","29.43","0.41222","5"],
    [25125,"HCEP03730566","2024-06-16 01:00:00","9.6003","3.22187","27.547","4.209","7.53","0.552","41.493","0.03","0.16","29.3753","4.65583","44.59","0","SATNPRO1509","29.494","0.41308","5"],
    [25126,"HCEP03730566","2024-06-16 01:15:00","9.6003","3.22191","27.506","4.213","7.53","0.539","37.051","0.03","0.14","29.3758","4.6559","44.63","0","SATNPRO1509","29.476","0.41288","5"],
    [25127,"HCEP03730566","2024-06-16 01:30:00","9.5998","3.22196","27.45","4.217","7.53","0.544","32.753","0.04","0.16","29.3767","4.65604","44.68","0","SATNPRO1509","29.606","0.4147","5"],
    [25128,"HCEP03730566","2024-06-16 01:45:00","9.5998","3.22197","27.371","4.227","7.53","0.526","28.793","0.04","0.12","29.3769","4.65606","44.78","0","SATNPRO1509","29.62","0.41484","5"],
    [25129,"HCEP03730566","2024-06-16 02:00:00","9.5995","3.222","27.304","4.228","7.53","0.51","26.55","0.04","0.15","29.3774","4.65614","44.8","0","SATNPRO1509","29.57","0.41418","5"],
    [25130,"HCEP03730566","2024-06-16 02:15:00","9.5999","3.22195","27.244","4.229","7.54","0.521","27.164","0.02","0.12","29.3767","4.65602","44.81","0","SATNPRO1509","29.48","0.41292","5"],
    [25131,"HCEP03730566","2024-06-16 02:30:00","9.6009","3.22188","27.121","4.221","7.54","0.53","28.054","0.03","0.15","29.3752","4.65578","44.73","0","SATNPRO1509","29.512","0.4134","5"],
    [25132,"HCEP03730566","2024-06-16 02:45:00","9.6019","3.22177","27.023","4.215","7.54","0.567","29.566","0.03","0.12","29.3732","4.65547","44.66","0","SATNPRO1509","29.434","0.4123","5"],
    [25133,"HCEP03730566","2024-06-16 03:00:00","9.6024","3.22174","26.857","4.218","7.53","0.565","29.052","0.03","0.15","29.3727","4.65538","44.69","0","SATNPRO1509","29.564","0.41404","5"],
    [25134,"HCEP03730566","2024-06-16 03:15:00","9.6028","3.2217","26.76","4.211","7.53","0.588","28.868","0.04","0.17","29.372","4.65526","44.61","0","SATNPRO1509","29.482","0.41292","5"],
    [25135,"HCEP03730566","2024-06-16 03:30:00","9.6026","3.22169","26.609","4.203","7.53","0.634","27.287","0.22","0.3","29.3721","4.65527","44.54","0","SATNPRO1509","29.498","0.41318","5"],
    [25136,"HCEP03730566","2024-06-16 03:45:00","9.6035","3.22163","26.492","4.202","7.53","0.579","25.827","0.05","0.48","29.3708","4.65506","44.52","0","SATNPRO1509","29.662","0.41546","5"],
    [25137,"HCEP03730566","2024-06-16 04:00:00","9.6035","3.2216","26.333","4.218","7.53","0.54","22.701","0.04","0.4","29.3706","4.65503","44.69","0","SATNPRO1509","29.612000000000002","0.41476","5"],
    [25138,"HCEP03730566","2024-06-16 04:15:00","9.6041","3.22155","26.142","4.22","7.53","0.539","18.257","0.04","0.51","29.3696","4.65487","44.71","0","SATNPRO1509","29.598","0.4146","5"],
    [25139,"HCEP03730566","2024-06-16 04:30:00","9.605","3.22146","25.984","4.22","7.53","0.567","15.852","0.07","0.67","29.3681","4.65462","44.71","0","SATNPRO1509","29.622","0.4149","5"],
    [25140,"HCEP03730566","2024-06-16 04:45:00","9.6065","3.22136","25.798","4.226","7.53","0.576","19.257","0.07","0.61","29.3659","4.65427","44.78","0","SATNPRO1509","29.59","0.41448","5"],
    [25141,"HCEP03730566","2024-06-16 05:00:00","9.6074","3.22129","25.572","4.226","7.53","0.592","24.172","0.09","0.54","29.3645","4.65405","44.79","0","SATNPRO1509","29.62","0.41486","5"],
    [25142,"HCEP03730566","2024-06-16 05:15:00","9.6085","3.22122","25.389","4.228","7.53","0.545","25.439","0.05","0.67","29.363","4.6538","44.81","0","SATNPRO1509","29.602","0.41462","5"],
    [25143,"HCEP03730566","2024-06-16 05:30:00","9.6097","3.22109","25.241","4.244","7.53","0.54","26.2","0.05","0.61","29.3607","4.65345","44.97","0","SATNPRO1509","29.616","0.41482","5"],
    [25144,"HCEP03730566","2024-06-16 05:45:00","9.612","3.22086","25.131","4.293","7.54","0.511","27.276","0.05","0.36","29.3566","4.65281","45.49","0","SATNPRO1509","29.762","0.41684","5"],
    [25145,"HCEP03730566","2024-06-16 06:00:00","9.6131","3.22079","25.152","4.324","7.54","0.489","28.478","0.04","0.18","29.3549","4.65255","45.82","0","SATNPRO1509","29.786","0.41722","5"],
    [25146,"HCEP03730566","2024-06-16 06:15:00","9.6147","3.22058","25.092","4.351","7.54","0.463","28.658","0.03","0.25","29.3516","4.65204","46.11","0","SATNPRO1509","29.93","0.41922","5"],
    [25147,"HCEP03730566","2024-06-16 06:30:00","9.6144","3.22062","25.073","4.399","7.55","0.447","25.08","0.04","0.14","29.3523","4.65214","46.62","0","SATNPRO1509","29.964000000000002","0.4197","5"],
    [25148,"HCEP03730566","2024-06-16 06:45:00","9.6115","3.22083","25.072","4.389","7.55","0.464","22.022","0.03","0.09","29.3568","4.65284","46.51","0","SATNPRO1509","29.87","0.41838","5"],
    [25149,"HCEP03730566","2024-06-16 07:00:00","9.6078","3.22118","25.091","4.342","7.55","0.498","21.757","0.03","0.15","29.3633","4.65384","46.02","0","SATNPRO1509","29.722","0.4163","5"],
    [25150,"HCEP03730566","2024-06-16 07:15:00","9.6053","3.2214","25.101","4.306","7.55","0.474","22.465","0.03","0.08","29.3676","4.6545","45.63","0","SATNPRO1509","29.764","0.4169","5"],
    [25151,"HCEP03730566","2024-06-16 07:30:00","9.6037","3.22159","25.095","4.295","7.54","0.479","25.31","0.02","0.09","29.3708","4.65498","45.51","0","SATNPRO1509","29.798","0.41736","5"],
    [25152,"HCEP03730566","2024-06-16 07:45:00","9.6025","3.22175","25.119","4.271","7.54","0.484","29.584","0.02","0.09","29.3734","4.65537","45.26","0","SATNPRO1509","29.744","0.4166","5"],
    [25153,"HCEP03730566","2024-06-16 08:00:00","9.6019","3.22182","25.174","4.268","7.54","0.483","32.64","0.03","0.06","29.3745","4.65554","45.22","0","SATNPRO1509","29.684","0.4158","5"],
    [25154,"HCEP03730566","2024-06-16 08:15:00","9.6017","3.22191","25.215","4.285","7.54","0.472","31.87","0.02","0.07","29.3756","4.65571","45.4","0","SATNPRO1509","29.75","0.4167","5"],
    [25155,"HCEP03730566","2024-06-16 08:30:00","9.6013","3.22202","25.284","4.299","7.54","0.462","27.275","0.03","0.06","29.377","4.65592","45.55","0","SATNPRO1509","29.822","0.41768","5"],
    [25156,"HCEP03730566","2024-06-16 08:45:00","9.6014","3.22208","25.341","4.305","7.54","0.493","24.771","0.04","0.09","29.3776","4.65601","45.62","0","SATNPRO1509","29.896","0.41874","5"],
    [25157,"HCEP03730566","2024-06-16 09:00:00","9.6019","3.22205","25.404","4.313","7.54","0.486","23.611","0.04","0.08","29.3768","4.65589","45.7","0","SATNPRO1509","29.838","0.41794","5"],
    [25158,"HCEP03730566","2024-06-16 09:15:00","9.6028","3.22202","25.489","4.339","7.55","0.438","19.096","0.02","0.07","29.3757","4.65572","45.97","0","SATNPRO1509","29.85","0.4181","5"],
    [25159,"HCEP03730566","2024-06-16 09:30:00","9.6031","3.22207","25.556","4.334","7.55","0.49","15.46","0.03","0.12","29.3758","4.65574","45.92","0","SATNPRO1509","29.878","0.4185","5"],
    [25160,"HCEP03730566","2024-06-16 09:45:00","9.6039","3.22188","25.652","4.317","7.55","0.46","11.197","0.05","0.21","29.3733","4.65537","45.75","0","SATNPRO1509","29.814","0.41758","5"],
    [25161,"HCEP03730566","2024-06-16 10:00:00","9.6055","3.22162","25.73","4.301","7.54","0.439","7.513","0.03","0.18","29.3693","4.65478","45.58","0","SATNPRO1509","29.766000000000002","0.41692","5"],
    [25162,"HCEP03730566","2024-06-16 10:15:00","9.6058","3.22158","25.828","4.274","7.54","0.443","5.634","0.04","0.13","29.3686","4.65467","45.29","0","SATNPRO1509","29.632","0.41504","5"],
    [25163,"HCEP03730566","2024-06-16 10:30:00","9.6064","3.22148","25.922","4.246","7.53","0.468","4.738","0.04","0.14","29.367","4.65444","44.99","0","SATNPRO1509","29.648","0.41524","5"],
    [25164,"HCEP03730566","2024-06-16 10:45:00","9.6069","3.22146","26.042","4.231","7.54","0.498","4.299","0.06","0.26","29.3665","4.65437","44.83","0","SATNPRO1509","29.626","0.41494","5"],
    [25165,"HCEP03730566","2024-06-16 11:00:00","9.6079","3.2214","26.128","4.217","7.53","0.495","3.982","0.04","0.13","29.365","4.65414","44.69","0","SATNPRO1509","29.682","0.41576","5"],
    [25166,"HCEP03730566","2024-06-16 11:15:00","9.6087","3.22132","26.246","4.2","7.53","0.525","3.948","0.07","0.15","29.3635","4.65392","44.51","0","SATNPRO1509","29.592","0.41448","5"],
    [25167,"HCEP03730566","2024-06-16 11:30:00","9.6099","3.22119","26.354","4.184","7.53","0.529","3.671","0.07","0.17","29.3612","4.65357","44.34","0","SATNPRO1509","29.57","0.41418","5"],
    [25168,"HCEP03730566","2024-06-16 11:45:00","9.6106","3.22116","26.473","4.185","7.53","0.55","3.692","0.05","0.16","29.3603","4.65344","44.35","0","SATNPRO1509","29.608","0.41472","5"],
    [25169,"HCEP03730566","2024-06-16 12:00:00","9.6121","3.2211","26.552","4.184","7.53","0.522","3.472","0.03","0.12","29.3584","4.65315","44.34","0","SATNPRO1509","29.562","0.41406","5"],
    [25170,"HCEP03730566","2024-06-16 12:15:00","9.614","3.22099","26.614","4.181","7.53","0.544","3.507","0.05","0.16","29.3557","4.65273","44.31","0","SATNPRO1509","29.592","0.41448","5"],
    [25171,"HCEP03730566","2024-06-16 12:30:00","9.615","3.22089","26.707","4.18","7.53","0.563","3.748","0.11","0.15","29.3538","4.65245","44.3","0","SATNPRO1509","29.588","0.41442","5"],
    [25172,"HCEP03730566","2024-06-16 12:45:00","9.6157","3.22087","26.762","4.166","7.53","0.545","3.783","0.04","0.17","29.353","4.65232","44.15","0","SATNPRO1509","29.59","0.41446","5"],
    [25173,"HCEP03730566","2024-06-16 13:00:00","9.6169","3.22077","26.792","4.157","7.53","0.561","3.683","0.04","0.2","29.3511","4.65202","44.05","0","SATNPRO1509","29.658","0.41544","5"],
    [25174,"HCEP03730566","2024-06-16 13:15:00","9.6179","3.22074","26.818","4.15","7.53","0.572","3.959","0.04","0.13","29.3499","4.65184","43.98","0","SATNPRO1509","29.582","0.41432","5"],
    [25175,"HCEP03730566","2024-06-16 13:30:00","9.6197","3.2206","26.829","4.142","7.53","0.576","3.539","0.06","0.27","29.3471","4.6514","43.9","0","SATNPRO1509","29.596","0.41456","5"],
    [25176,"HCEP03730566","2024-06-16 13:45:00","9.6199","3.22057","26.84","4.134","7.53","0.565","3.62","0.06","0.25","29.3465","4.65132","43.82","0","SATNPRO1509","29.482","0.41292","5"],
    [25177,"HCEP03730566","2024-06-16 14:00:00","9.6203","3.22057","26.844","4.128","7.53","0.564","3.63","0.04","0.29","29.3462","4.65127","43.75","0","SATNPRO1509","29.478","0.41292","5"],
    [25178,"HCEP03730566","2024-06-16 14:15:00","9.6209","3.22054","26.856","4.118","7.53","0.575","3.638","0.07","0.27","29.3454","4.65114","43.64","0","SATNPRO1509","29.41","0.4119","5"],
    [25179,"HCEP03730566","2024-06-16 14:30:00","9.6219","3.22049","26.851","4.105","7.53","0.581","3.533","0.06","0.23","29.3441","4.65094","43.51","0","SATNPRO1509","29.474","0.4128","5"],
    [25180,"HCEP03730566","2024-06-16 14:45:00","9.623","3.22046","26.835","4.09","7.52","0.59","3.527","0.05","0.19","29.3429","4.65075","43.34","0","SATNPRO1509","29.312","0.41054","5"],
    [25181,"HCEP03730566","2024-06-16 15:00:00","9.6235","3.22043","26.826","4.077","7.52","0.605","3.317","0.08","0.22","29.3422","4.65065","43.21","0","SATNPRO1509","29.458000000000002","0.41264","5"],
    [25182,"HCEP03730566","2024-06-16 15:15:00","9.6243","3.22041","26.8","4.062","7.52","0.609","3.321","0.08","0.28","29.3414","4.65051","43.05","0","SATNPRO1509","29.322","0.41072","5"],
    [25183,"HCEP03730566","2024-06-16 15:30:00","9.624","3.22041","26.769","4.053","7.52","0.659","3.242","0.1","0.17","29.3417","4.65056","42.95","0","SATNPRO1509","29.28","0.41012","5"],
    [25184,"HCEP03730566","2024-06-16 15:45:00","9.626","3.22031","26.704","4.048","7.52","0.601","3.411","0.06","0.56","29.339","4.65014","42.9","0","SATNPRO1509","29.396","0.41172","5"],
    [25185,"HCEP03730566","2024-06-16 16:00:00","9.6253","3.22035","26.638","4.051","7.51","0.586","3.351","0.06","0.23","29.34","4.65028","42.94","0","SATNPRO1509","29.368","0.41132","5"],
    [25186,"HCEP03730566","2024-06-16 16:15:00","9.6236","3.22041","26.642","4.053","7.51","0.652","3.541","0.08","0.18","29.342","4.6506","42.95","0","SATNPRO1509","29.354","0.41114","5"],
    [25187,"HCEP03730566","2024-06-16 16:30:00","9.6223","3.22048","26.59","4.061","7.52","0.64","3.612","0.09","0.17","29.3437","4.65086","43.05","0","SATNPRO1509","29.316","0.41066","5"],
    [25188,"HCEP03730566","2024-06-16 16:45:00","9.6219","3.22052","26.568","4.062","7.52","0.66","3.888","0.07","0.23","29.3445","4.65099","43.05","0","SATNPRO1509","29.386","0.41158","5"],
    [25189,"HCEP03730566","2024-06-16 17:00:00","9.6206","3.22058","26.53","4.064","7.52","0.703","3.934","0.08","0.18","29.3462","4.65125","43.07","0","SATNPRO1509","29.346","0.41104","5"],
    [25190,"HCEP03730566","2024-06-16 17:15:00","9.6199","3.2206","26.48","4.075","7.52","0.665","4.031","0.05","0.27","29.3471","4.65138","43.19","0","SATNPRO1509","29.396","0.41178","5"],
    [25191,"HCEP03730566","2024-06-16 17:30:00","9.6187","3.22068","26.44","4.088","7.52","0.698","4.078","0.09","0.13","29.3488","4.65165","43.33","0","SATNPRO1509","29.386","0.4116","5"],
    [25192,"HCEP03730566","2024-06-16 17:45:00","9.6181","3.22071","26.393","4.093","7.52","0.71","3.907","0.1","0.29","29.3496","4.65178","43.38","0","SATNPRO1509","29.534","0.41368","5"],
    [25193,"HCEP03730566","2024-06-16 18:00:00","9.6176","3.22077","26.362","4.1","7.52","0.702","3.994","0.08","0.23","29.3507","4.65193","43.46","0","SATNPRO1509","29.451999999999998","0.41252","5"],
    [25194,"HCEP03730566","2024-06-16 18:15:00","9.6172","3.22078","26.338","4.097","7.52","0.737","4.173","0.13","0.34","29.351","4.65199","43.42","0","SATNPRO1509","29.382","0.41158","5"],
    [25195,"HCEP03730566","2024-06-16 18:30:00","9.6167","3.22084","26.314","4.096","7.52","0.72","4.431","0.08","0.37","29.3521","4.65215","43.41","0","SATNPRO1509","29.402","0.41182","5"],
    [25196,"HCEP03730566","2024-06-16 18:45:00","9.6162","3.22089","26.294","4.09","7.52","0.752","4.036","0.08","0.28","29.353","4.65229","43.35","0","SATNPRO1509","29.51","0.4133","5"],
    [25197,"HCEP03730566","2024-06-16 19:00:00","9.6157","3.22094","26.297","4.085","7.52","0.782","4.296","0.11","0.19","29.3539","4.65242","43.29","0","SATNPRO1509","29.5","0.41318","5"],
    [25198,"HCEP03730566","2024-06-16 19:15:00","9.6137","3.22111","26.347","4.088","7.52","0.73","4.258","0.1","0.21","29.3572","4.65294","43.32","0","SATNPRO1509","29.406","0.41186","5"],
    [25199,"HCEP03730566","2024-06-16 19:30:00","9.6121","3.22132","26.373","4.095","7.52","0.731","4.684","0.07","0.18","29.3607","4.65347","43.4","0","SATNPRO1509","29.486","0.41298","5"],
    [25200,"HCEP03730566","2024-06-16 19:45:00","9.6099","3.22163","26.394","4.136","7.53","0.688","4.341","0.04","0.19","29.3655","4.6542","43.82","0","SATNPRO1509","29.53","0.41364","5"],
    [25201,"HCEP03730566","2024-06-16 20:00:00","9.6088","3.22176","26.44","4.166","7.53","0.687","4.45","0.04","0.14","29.3677","4.65453","44.15","0","SATNPRO1509","29.598","0.41458","5"],
    [25202,"HCEP03730566","2024-06-16 20:15:00","9.6076","3.22193","26.483","4.19","7.53","0.687","4.315","0.08","0.18","29.3704","4.65494","44.41","0","SATNPRO1509","29.778","0.41708","5"],
    [25203,"HCEP03730566","2024-06-16 20:30:00","9.6064","3.22205","26.538","4.211","7.53","0.68","4.325","0.05","0.14","29.3727","4.65528","44.62","0","SATNPRO1509","29.7","0.41604","5"],
    [25204,"HCEP03730566","2024-06-16 20:45:00","9.6055","3.22212","26.627","4.219","7.54","0.681","4.468","0.04","0.19","29.3741","4.65551","44.71","0","SATNPRO1509","29.721999999999998","0.41634","5"],
    [25205,"HCEP03730566","2024-06-16 21:00:00","9.6051","3.22215","26.688","4.218","7.54","0.699","4.609","0.04","0.21","29.3747","4.65561","44.7","0","SATNPRO1509","29.706","0.41612","5"],
    [25206,"HCEP03730566","2024-06-16 21:15:00","9.603","3.22218","26.738","4.205","7.54","0.701","3.799","0.08","0.15","29.3767","4.65593","44.56","0","SATNPRO1509","29.794","0.41732","5"],
    [25207,"HCEP03730566","2024-06-16 21:30:00","9.6031","3.22212","26.834","4.193","7.53","0.721","4.124","0.07","0.21","29.3758","4.65581","44.43","0","SATNPRO1509","29.688","0.41586","5"],
    [25208,"HCEP03730566","2024-06-16 21:45:00","9.6034","3.22205","26.924","4.181","7.53","0.705","3.927","0.06","0.25","29.3749","4.65569","44.3","0","SATNPRO1509","29.65","0.4153","5"],
    [25209,"HCEP03730566","2024-06-16 22:00:00","9.6035","3.22205","27.014","4.167","7.53","0.738","3.773","0.05","0.22","29.3748","4.65567","44.15","0","SATNPRO1509","29.584","0.41436","5"],
    [25210,"HCEP03730566","2024-06-16 22:15:00","9.6041","3.22209","27.094","4.138","7.53","0.745","4.065","0.05","0.26","29.3747","4.65565","43.85","0","SATNPRO1509","29.512","0.41342","5"],
    [25211,"HCEP03730566","2024-06-16 22:30:00","9.6055","3.22216","27.177","4.119","7.53","0.796","4.106","0.07","0.28","29.3742","4.65556","43.65","0","SATNPRO1509","29.516","0.41342","5"],
    [25212,"HCEP03730566","2024-06-16 22:45:00","9.6078","3.22251","27.251","4.128","7.53","0.808","4.415","0.04","0.22","29.3758","4.65576","43.75","0","SATNPRO1509","29.41","0.41196","5"],
    [25213,"HCEP03730566","2024-06-16 23:00:00","9.611","3.22293","27.319","4.166","7.53","0.805","4.417","0.04","0.28","29.3774","4.65593","44.15","0","SATNPRO1509","29.406","0.41188","5"],
    [25214,"HCEP03730566","2024-06-16 23:15:00","9.6129","3.2233","27.397","4.213","7.54","0.782","4.199","0.03","0.11","29.3795","4.6562","44.65","0","SATNPRO1509","29.483999999999998","0.41298","5"],
    [25215,"HCEP03730566","2024-06-16 23:30:00","9.6141","3.22341","27.441","4.254","7.54","0.748","3.935","0.02","0.12","29.3797","4.65622","45.09","0","SATNPRO1509","29.606","0.4147","5"],
    [25216,"HCEP03730566","2024-06-16 23:45:00","9.6149","3.22317","27.504","4.341","7.54","0.698","3.659","0.01","0.3","29.3766","4.65575","46.01","0","SATNPRO1509","29.808","0.4175","5"],
    [25217,"HCEP03730566","2024-06-17 00:00:00","9.6138","3.22275","27.559","4.454","7.55","0.626","3.048","0.01","0.23","29.3732","4.6553","47.21","0","SATNPRO1509","30.16","0.42242","5"],
    [25218,"HCEP03730566","2024-06-17 00:15:00","9.6145","3.2229","27.57","4.513","7.56","0.55","3.269","0.01","0.11","29.3741","4.65541","47.83","0","SATNPRO1509","30.156000000000002","0.42236","5"],
    [25219,"HCEP03730566","2024-06-17 00:30:00","9.6169","3.22301","27.594","4.508","7.56","0.462","3.665","0","0.11","29.3733","4.65525","47.79","0","SATNPRO1509","30.105999999999998","0.42168","5"],
    [25220,"HCEP03730566","2024-06-17 00:45:00","9.6174","3.22326","27.555","4.493","7.56","0.365","4.05","0","0.17","29.3754","4.65554","47.63","0","SATNPRO1509","29.998","0.4202","5"],
    [25221,"HCEP03730566","2024-06-17 01:00:00","9.6181","3.22338","27.562","4.489","7.56","0.271","5.427","0","0.11","29.376","4.65562","47.59","0","SATNPRO1509","29.96","0.41964","5"],
    [25222,"HCEP03730566","2024-06-17 01:15:00","9.6177","3.22349","27.548","4.484","7.56","0.194","8.703","0","0.14","29.3775","4.65584","47.53","0","SATNPRO1509","30.116","0.42182","5"],
    [25223,"HCEP03730566","2024-06-17 01:30:00","9.6194","3.22359","27.503","4.507","7.57","0.134","14.307","0","0.13","29.3772","4.65576","47.77","0","SATNPRO1509","30.19","0.42282","5"],
    [25224,"HCEP03730566","2024-06-17 01:45:00","9.6175","3.22368","27.455","4.537","7.57","0.107","24.569","0","0.1","29.3797","4.65615","48.09","0","SATNPRO1509","30.094","0.42152","5"],
    [25225,"HCEP03730566","2024-06-17 02:00:00","9.617","3.22372","27.399","4.536","7.57","0.104","41.131","0.01","0.1","29.3804","4.65626","48.08","0","SATNPRO1509","30.188","0.42284","5"],
    [25226,"HCEP03730566","2024-06-17 02:15:00","9.6138","3.22385","27.322","4.521","7.57","0.12","63.853","0.01","0.1","29.3844","4.65688","47.92","0","SATNPRO1509","30.29","0.42428","5"],
    [25227,"HCEP03730566","2024-06-17 02:30:00","9.613","3.22395","27.243","4.508","7.57","0.153","88.819","0.02","0.08","29.3861","4.65714","47.78","0","SATNPRO1509","30.042","0.42082","5"],
    [25228,"HCEP03730566","2024-06-17 02:45:00","9.6119","3.22396","27.138","4.484","7.57","0.171","112.054","0.01","0.18","29.3872","4.6573","47.53","0","SATNPRO1509","30.114","0.42184","5"],
    [25229,"HCEP03730566","2024-06-17 03:00:00","9.6113","3.22388","27.015","4.471","7.56","0.206","122.656","0.02","0.12","29.3868","4.65726","47.39","0","SATNPRO1509","30.02","0.42046","5"],
    [25230,"HCEP03730566","2024-06-17 03:15:00","9.6114","3.2238","26.895","4.446","7.56","0.241","125.252","0.02","0.16","29.3861","4.65715","47.12","0","SATNPRO1509","29.951999999999998","0.41954","5"],
    [25231,"HCEP03730566","2024-06-17 03:30:00","9.6111","3.22376","26.74","4.421","7.56","0.256","121.849","0.02","0.1","29.386","4.65712","46.85","0","SATNPRO1509","29.88","0.41856","5"],
    [25232,"HCEP03730566","2024-06-17 03:45:00","9.6101","3.22377","26.587","4.413","7.56","0.278","116.189","0.04","0","29.387","4.65728","46.77","0","SATNPRO1509","29.938","0.41934","5"],
    [25233,"HCEP03730566","2024-06-17 04:00:00","9.6097","3.22379","26.436","4.401","7.56","0.283","108.998","0.02","0.12","29.3876","4.65736","46.64","0","SATNPRO1509","29.872","0.41842","5"],
    [25234,"HCEP03730566","2024-06-17 04:15:00","9.6089","3.22388","26.301","4.374","7.56","0.291","99.826","0.07","0.07","29.3891","4.65758","46.36","0","SATNPRO1509","29.9","0.4188","5"],
    [25235,"HCEP03730566","2024-06-17 04:30:00","9.6076","3.22388","26.147","4.337","7.55","0.256","77.223","0.02","0.04","29.3903","4.65777","45.96","0","SATNPRO1509","29.814","0.4176","5"],
    [25236,"HCEP03730566","2024-06-17 04:45:00","9.6071","3.22383","26.017","4.32","7.55","0.275","49.238","0.03","0.02","29.3902","4.65776","45.78","0","SATNPRO1509","29.742","0.41658","5"],
    [25237,"HCEP03730566","2024-06-17 05:00:00","9.6066","3.2236","25.861","4.302","7.54","0.242","28.474","0.01","0.03","29.3884","4.65749","45.59","0","SATNPRO1509","29.69","0.41584","5"],
    [25238,"HCEP03730566","2024-06-17 05:15:00","9.607","3.22338","25.699","4.279","7.54","0.254","13.25","0.03","0.02","29.3859","4.65712","45.34","0","SATNPRO1509","29.712","0.41618","5"],
    [25239,"HCEP03730566","2024-06-17 05:30:00","9.6056","3.22318","25.506","4.241","7.54","0.222","3.054","0.02","0.01","29.3851","4.65702","44.95","0","SATNPRO1509","29.628","0.41496","5"],
    [25240,"HCEP03730566","2024-06-17 05:45:00","9.6047","3.22297","25.336","4.222","7.53","0.199","0.402","0.01","0.01","29.3838","4.65685","44.74","0","SATNPRO1509","29.728","0.4164","5"],
    [25241,"HCEP03730566","2024-06-17 06:00:00","9.6041","3.22291","25.227","4.212","7.53","0.162","0.292","0.01","0.01","29.3837","4.65683","44.64","0","SATNPRO1509","29.852","0.4181","5"],
    [25242,"HCEP03730566","2024-06-17 06:15:00","9.604","3.22281","25.103","4.205","7.53","0.142","0.305","0.01","0.02","29.3828","4.6567","44.56","0","SATNPRO1509","29.746000000000002","0.41664","5"],
    [25243,"HCEP03730566","2024-06-17 06:30:00","9.6049","3.22291","24.978","4.218","7.53","0.126","0.28","0.02","0.01","29.3832","4.65673","44.7","0","SATNPRO1509","29.852","0.41812","5"],
    [25244,"HCEP03730566","2024-06-17 06:45:00","9.606","3.22302","24.812","4.242","7.53","0.105","0.35","0.01","0.01","29.3835","4.65674","44.96","0","SATNPRO1509","29.96","0.41962","5"],
    [25245,"HCEP03730566","2024-06-17 07:00:00","9.6076","3.22315","24.758","4.275","7.53","0.108","0.528","0.01","0.04","29.3834","4.6567","45.31","0","SATNPRO1509","30.026","0.42056","5"],
    [25246,"HCEP03730566","2024-06-17 07:15:00","9.6088","3.22325","24.684","4.296","7.53","0.109","0.571","0.01","0.03","29.3835","4.65669","45.53","0","SATNPRO1509","29.908","0.41892","5"],
    [25247,"HCEP03730566","2024-06-17 07:30:00","9.6103","3.22327","24.661","4.329","7.53","0.121","0.583","0.02","0.02","29.3825","4.65652","45.88","0","SATNPRO1509","29.972","0.41976","5"],
    [25248,"HCEP03730566","2024-06-17 07:45:00","9.6106","3.22329","24.652","4.336","7.53","0.123","0.652","0.03","0.12","29.3824","4.65651","45.96","0","SATNPRO1509","30.034","0.42064","5"],
    [25249,"HCEP03730566","2024-06-17 08:00:00","9.6112","3.22326","24.762","4.344","7.54","0.127","0.72","0.02","0.07","29.3816","4.65638","46.04","0","SATNPRO1509","30.106","0.42166","5"],
    [25250,"HCEP03730566","2024-06-17 08:15:00","9.6115","3.22324","24.757","4.356","7.54","0.143","0.761","0.02","0.1","29.3812","4.65631","46.17","0","SATNPRO1509","29.956","0.41956","5"],
    [25251,"HCEP03730566","2024-06-17 08:30:00","9.6118","3.22327","24.777","4.362","7.54","0.17","0.811","0.07","0.06","29.3812","4.65631","46.23","0","SATNPRO1509","29.988","0.42006","5"],
    [25252,"HCEP03730566","2024-06-17 08:45:00","9.612","3.22329","24.829","4.363","7.54","0.194","1.056","0.03","0.42","29.3812","4.65631","46.25","0","SATNPRO1509","30.042","0.42082","5"],
    [25253,"HCEP03730566","2024-06-17 09:00:00","9.612","3.22319","24.905","4.367","7.54","0.222","1.074","0.05","0.43","29.3802","4.65618","46.29","0","SATNPRO1509","30.088","0.42144","5"],
    [25254,"HCEP03730566","2024-06-17 09:15:00","9.612","3.2232","24.976","4.366","7.54","0.244","1.156","0.05","0.24","29.3803","4.65619","46.27","0","SATNPRO1509","30.152","0.42234","5"],
    [25255,"HCEP03730566","2024-06-17 09:30:00","9.6119","3.22313","25.122","4.366","7.54","0.271","1.247","0.05","0.19","29.3796","4.6561","46.27","0","SATNPRO1509","30.138","0.42212","5"],
    [25256,"HCEP03730566","2024-06-17 09:45:00","9.6115","3.22305","25.193","4.364","7.53","0.335","1.592","0.06","0.24","29.379","4.65603","46.25","0","SATNPRO1509","30.09","0.42142","5"],
    [25257,"HCEP03730566","2024-06-17 10:00:00","9.6113","3.22308","25.357","4.344","7.53","0.46","2.025","0.11","0.18","29.3795","4.65611","46.04","0","SATNPRO1509","29.904","0.41886","5"],
    [25258,"HCEP03730566","2024-06-17 10:15:00","9.6119","3.2225","25.471","4.306","7.53","0.449","2.042","0.09","0.16","29.3731","4.65519","45.64","0","SATNPRO1509","29.9","0.4188","5"],
    [25259,"HCEP03730566","2024-06-17 10:30:00","9.612","3.22258","25.573","4.308","7.53","0.449","2.348","0.03","0.15","29.3738","4.65529","45.66","0","SATNPRO1509","30.046","0.42084","5"],
    [25260,"HCEP03730566","2024-06-17 10:45:00","9.6119","3.22267","25.687","4.327","7.53","0.508","2.782","0.06","0.19","29.3747","4.65544","45.86","0","SATNPRO1509","29.94","0.4194","5"],
    [25261,"HCEP03730566","2024-06-17 11:00:00","9.6111","3.22256","25.808","4.328","7.54","0.535","3.025","0.06","0.16","29.3742","4.65539","45.87","0","SATNPRO1509","29.982","0.41996","5"],
    [25262,"HCEP03730566","2024-06-17 11:15:00","9.6121","3.2224","25.953","4.316","7.54","0.602","3.21","0.06","0.14","29.3718","4.65502","45.74","0","SATNPRO1509","29.896","0.4187","5"],
    [25263,"HCEP03730566","2024-06-17 11:30:00","9.6127","3.22222","26.074","4.296","7.54","0.649","3.388","0.08","0.15","29.3694","4.65469","45.53","0","SATNPRO1509","29.792","0.4173","5"],
    [25264,"HCEP03730566","2024-06-17 11:45:00","9.6139","3.22197","26.233","4.254","7.54","0.693","3.411","0.06","0.12","29.3658","4.65416","45.09","0","SATNPRO1509","29.786","0.4172","5"],
    [25265,"HCEP03730566","2024-06-17 12:00:00","9.6142","3.22178","26.353","4.22","7.54","0.773","3.741","0.15","0.24","29.3636","4.65385","44.72","0","SATNPRO1509","29.816","0.41764","5"],
    [25266,"HCEP03730566","2024-06-17 12:15:00","9.6169","3.22154","26.494","4.186","7.54","0.765","4.257","0.07","0.22","29.3589","4.65313","44.36","0","SATNPRO1509","29.702","0.41606","5"],
    [25267,"HCEP03730566","2024-06-17 12:30:00","9.6194","3.22134","26.644","4.162","7.54","0.754","3.911","0.06","0.15","29.3548","4.65251","44.11","0","SATNPRO1509","29.652","0.41534","5"],
    [25268,"HCEP03730566","2024-06-17 12:45:00","9.6227","3.22115","26.735","4.149","7.53","0.735","3.978","0.05","0.17","29.3501","4.65179","43.98","0","SATNPRO1509","29.628","0.41502","5"],
    [25269,"HCEP03730566","2024-06-17 13:00:00","9.6272","3.22094","26.812","4.151","7.53","0.71","3.847","0.05","0.13","29.3443","4.65088","44","0","SATNPRO1509","29.546","0.41382","5"],
    [25270,"HCEP03730566","2024-06-17 13:15:00","9.6281","3.22082","26.911","4.141","7.53","0.708","3.943","0.05","0.26","29.3424","4.65059","43.9","0","SATNPRO1509","29.576","0.41426","5"],
    [25271,"HCEP03730566","2024-06-17 13:30:00","9.6325","3.2206","26.974","4.122","7.53","0.724","4.062","0.03","0.13","29.3365","4.64968","43.69","0","SATNPRO1509","29.534","0.41366","5"],
    [25272,"HCEP03730566","2024-06-17 13:45:00","9.6345","3.22049","27.043","4.108","7.53","0.742","3.97","0.06","0.19","29.3337","4.64924","43.55","0","SATNPRO1509","29.406","0.41188","5"],
    [25273,"HCEP03730566","2024-06-17 14:00:00","9.638","3.22031","27.07","4.105","7.53","0.775","3.88","0.06","0.3","29.3291","4.64853","43.52","0","SATNPRO1509","29.49","0.41306","5"],
    [25274,"HCEP03730566","2024-06-17 14:15:00","9.6413","3.22016","27.105","4.126","7.53","0.705","3.635","0.05","0.19","29.3249","4.64787","43.74","0","SATNPRO1509","29.444","0.41244","5"],
    [25275,"HCEP03730566","2024-06-17 14:30:00","9.64","3.22022","27.108","4.13","7.53","0.752","3.858","0.09","0.31","29.3265","4.64813","43.78","0","SATNPRO1509","29.416","0.41198","5"],
    [25276,"HCEP03730566","2024-06-17 14:45:00","9.6414","3.22017","27.087","4.112","7.53","0.721","3.664","0.08","0.53","29.3248","4.64786","43.59","0","SATNPRO1509","29.366","0.4113","5"],
    [25277,"HCEP03730566","2024-06-17 15:00:00","9.6428","3.22013","27.076","4.09","7.53","0.746","3.481","0.13","0.45","29.3233","4.64762","43.36","0","SATNPRO1509","29.362000000000002","0.41128","5"],
    [25278,"HCEP03730566","2024-06-17 15:15:00","9.6423","3.22014","27.192","4.071","7.52","0.732","3.727","0.08","0.39","29.3238","4.6477","43.16","0","SATNPRO1509","29.374","0.41144","5"],
    [25279,"HCEP03730566","2024-06-17 15:15:00","9.6423","3.22014","27.192","4.071","7.52","0.732","3.727","0.08","0.39","29.3238","4.6477","43.16","0","SATNPRO1509","29.374","0.41144","5"],
    [25280,"HCEP03730566","2024-06-17 15:30:00","9.6424","3.22014","27.128","4.039","7.52","0.724","3.887","0.06","0.28","29.3238","4.64769","42.82","0","SATNPRO1509","29.242","0.40962","5"],
    [25281,"HCEP03730566","2024-06-17 15:30:00","9.6424","3.22014","27.128","4.039","7.52","0.724","3.887","0.06","0.28","29.3238","4.64769","42.82","0","SATNPRO1509","29.242","0.40962","5"],
    [25282,"HCEP03730566","2024-06-17 15:45:00","9.6437","3.22009","27.19","4.015","7.52","0.71","3.607","0.05","0.24","29.3221","4.64744","42.57","0","SATNPRO1509","29.218","0.40924","5"],
    [25283,"HCEP03730566","2024-06-17 15:45:00","9.6437","3.22009","27.19","4.015","7.52","0.71","3.607","0.05","0.24","29.3221","4.64744","42.57","0","SATNPRO1509","29.218","0.40924","5"],
    [25284,"HCEP03730566","2024-06-17 16:00:00","9.6457","3.22002","27.132","4","7.52","0.703","3.504","0.07","0.31","29.3199","4.64707","42.41","0","SATNPRO1509","29.194","0.40888","5"],
    [25285,"HCEP03730566","2024-06-17 16:15:00","9.6467","3.22001","27.081","3.985","7.52","0.742","3.531","0.09","0.21","29.319","4.64693","42.25","0","SATNPRO1509","29.206","0.40912","5"],
    [25286,"HCEP03730566","2024-06-17 16:30:00","9.6482","3.21996","27.108","3.976","7.51","0.69","3.487","0.05","0.2","29.3172","4.64664","42.15","0","SATNPRO1509","29.214","0.4092","5"],
    [25287,"HCEP03730566","2024-06-17 16:45:00","9.6499","3.2199","27.054","3.97","7.51","0.707","3.55","0.05","0.33","29.3152","4.64633","42.09","0","SATNPRO1509","29.202","0.40904","5"],
    [25288,"HCEP03730566","2024-06-17 17:00:00","9.6487","3.21996","27.032","3.968","7.51","0.704","3.441","0.05","0.18","29.3169","4.64659","42.08","0","SATNPRO1509","29.142","0.40822","5"],
    [25289,"HCEP03730566","2024-06-17 17:15:00","9.648","3.21996","26.979","3.961","7.51","0.693","3.397","0.05","0.19","29.3175","4.64668","42","0","SATNPRO1509","29.206","0.40908","5"],
    [25290,"HCEP03730566","2024-06-17 17:30:00","9.6497","3.21992","26.963","3.96","7.51","0.693","3.105","0.07","0.15","29.3157","4.6464","41.99","0","SATNPRO1509","29.216","0.40922","5"],
    [25291,"HCEP03730566","2024-06-17 17:45:00","9.6489","3.21994","26.88","3.964","7.51","0.707","3.267","0.06","0.24","29.3166","4.64654","42.03","0","SATNPRO1509","29.114","0.40778","5"],
    [25292,"HCEP03730566","2024-06-17 18:00:00","9.6463","3.22002","26.808","3.972","7.51","0.731","3.339","0.09","0.21","29.3194","4.64698","42.11","0","SATNPRO1509","29.308","0.41046","5"],
    [25293,"HCEP03730566","2024-06-17 18:15:00","9.6383","3.22029","26.747","3.982","7.51","0.756","3.996","0.06","0.2","29.3287","4.64844","42.21","0","SATNPRO1509","29.244","0.40958","5"],
    [25294,"HCEP03730566","2024-06-17 18:30:00","9.636","3.22039","26.663","3.994","7.5","0.759","4.085","0.07","0.22","29.3317","4.64891","42.34","0","SATNPRO1509","29.29","0.41024","5"],
    [25295,"HCEP03730566","2024-06-17 18:45:00","9.6345","3.22046","26.656","4.002","7.51","0.798","4.753","0.05","0.17","29.3336","4.64921","42.43","0","SATNPRO1509","29.258","0.4098","5"],
    [25296,"HCEP03730566","2024-06-17 19:00:00","9.6331","3.22051","26.609","4","7.51","0.745","4.391","0.05","0.15","29.3353","4.64947","42.4","0","SATNPRO1509","29.276","0.41002","5"],
    [25297,"HCEP03730566","2024-06-17 19:15:00","9.6335","3.22047","26.526","3.999","7.52","0.727","4.154","0.06","0.15","29.3346","4.64936","42.39","0","SATNPRO1509","29.298","0.41038","5"],
    [25298,"HCEP03730566","2024-06-17 19:30:00","9.6337","3.22048","26.539","3.988","7.52","0.741","4.396","0.06","0.12","29.3345","4.64934","42.27","0","SATNPRO1509","29.162","0.40848","5"],
    [25299,"HCEP03730566","2024-06-17 19:45:00","9.6342","3.22048","26.506","3.989","7.52","0.695","4.141","0.04","0.24","29.3341","4.64927","42.29","0","SATNPRO1509","29.272000000000002","0.41","5"],
    [25300,"HCEP03730566","2024-06-17 20:00:00","9.6321","3.2206","26.499","3.996","7.52","0.716","4.338","0.03","0.18","29.337","4.64973","42.35","0","SATNPRO1509","29.206","0.40908","5"],
    [25301,"HCEP03730566","2024-06-17 20:15:00","9.6299","3.22076","26.493","4.009","7.52","0.718","4.466","0.05","0.13","29.3405","4.65027","42.5","0","SATNPRO1509","29.296","0.41032","5"],
    [25302,"HCEP03730566","2024-06-17 20:30:00","9.6284","3.22093","26.541","4.03","7.52","0.714","4.331","0.04","0.22","29.3434","4.65071","42.72","0","SATNPRO1509","29.386","0.41158","5"],
    [25303,"HCEP03730566","2024-06-17 20:45:00","9.6271","3.22118","26.599","4.055","7.52","0.67","4.186","0.02","0.11","29.3469","4.65124","42.98","0","SATNPRO1509","29.426","0.41218","5"],
    [25304,"HCEP03730566","2024-06-17 21:00:00","9.6273","3.22148","26.608","4.1","7.53","0.612","3.934","0.03","0.2","29.3498","4.65166","43.46","0","SATNPRO1509","29.552","0.41396","5"],
    [25305,"HCEP03730566","2024-06-17 21:15:00","9.6263","3.22194","26.671","4.161","7.53","0.586","3.636","0.07","0.14","29.3552","4.65245","44.11","0","SATNPRO1509","29.694","0.41592","5"],
    [25306,"HCEP03730566","2024-06-17 21:30:00","9.6251","3.22203","26.737","4.195","7.53","0.534","3.665","0.03","0.13","29.3571","4.65274","44.47","0","SATNPRO1509","29.776","0.41704","5"],
    [25307,"HCEP03730566","2024-06-17 21:45:00","9.6245","3.22202","26.783","4.202","7.54","0.525","3.5","0.05","0.11","29.3575","4.65282","44.54","0","SATNPRO1509","29.786","0.41722","5"],
    [25308,"HCEP03730566","2024-06-17 22:00:00","9.6234","3.22187","26.851","4.208","7.54","0.473","3.235","0.06","0.11","29.3568","4.65273","44.6","0","SATNPRO1509","29.864","0.41828","5"],
    [25309,"HCEP03730566","2024-06-17 22:15:00","9.6221","3.2222","26.936","4.231","7.54","0.47","3.349","0.04","0.12","29.3612","4.65339","44.84","0","SATNPRO1509","29.916","0.419","5"],
    [25310,"HCEP03730566","2024-06-17 22:30:00","9.6216","3.22252","27.012","4.268","7.54","0.445","2.991","0.03","0.11","29.3648","4.65392","45.24","0","SATNPRO1509","29.926","0.41918","5"],
    [25311,"HCEP03730566","2024-06-17 22:45:00","9.6219","3.22261","27.072","4.28","7.54","0.47","3.502","0.04","0.15","29.3653","4.654","45.36","0","SATNPRO1509","30.008","0.42034","5"],
    [25312,"HCEP03730566","2024-06-17 23:00:00","9.6221","3.22265","27.168","4.254","7.54","0.501","4.246","0.03","0.09","29.3656","4.65403","45.09","0","SATNPRO1509","29.856","0.41816","5"],
    [25313,"HCEP03730566","2024-06-17 23:15:00","9.6237","3.22231","27.205","4.232","7.54","0.527","4.596","0.04","0.13","29.3609","4.65334","44.86","0","SATNPRO1509","29.798000000000002","0.41738","5"],
    [25314,"HCEP03730566","2024-06-17 23:30:00","9.6253","3.22207","27.26","4.222","7.54","0.534","5.731","0.03","0.1","29.357","4.65276","44.75","0","SATNPRO1509","29.708","0.41612","5"],
    [25315,"HCEP03730566","2024-06-17 23:45:00","9.6293","3.2219","27.352","4.183","7.54","0.58","7.982","0.04","0.07","29.352","4.65197","44.34","0","SATNPRO1509","29.608","0.4147","5"],
    [25316,"HCEP03730566","2024-06-18 00:00:00","9.6301","3.22199","27.416","4.207","7.54","0.596","12.837","0.07","0.1","29.3523","4.65201","44.59","0","SATNPRO1509","29.674","0.41568","5"],
    [25317,"HCEP03730566","2024-06-18 00:15:00","9.6303","3.22222","27.446","4.254","7.54","0.537","19.738","0.03","0.09","29.3545","4.65232","45.09","0","SATNPRO1509","29.73","0.41642","5"],
    [25318,"HCEP03730566","2024-06-18 00:30:00","9.6291","3.2223","27.474","4.264","7.54","0.564","26.175","0.05","0.17","29.3563","4.65259","45.2","0","SATNPRO1509","29.914","0.41904","5"],
    [25319,"HCEP03730566","2024-06-18 00:45:00","9.6284","3.22239","27.496","4.259","7.54","0.6","30.927","0.06","0.18","29.3577","4.65281","45.15","0","SATNPRO1509","29.756","0.41678","5"],
    [25320,"HCEP03730566","2024-06-18 01:00:00","9.6277","3.22251","27.501","4.259","7.54","0.581","34.358","0.1","0.13","29.3595","4.65309","45.15","0","SATNPRO1509","29.818","0.41766","5"],
    [25321,"HCEP03730566","2024-06-18 01:15:00","9.6284","3.22264","27.507","4.275","7.54","0.578","37","0.06","0.22","29.3602","4.65317","45.32","0","SATNPRO1509","29.888","0.41864","5"],
    [25322,"HCEP03730566","2024-06-18 01:30:00","9.6293","3.22283","27.481","4.288","7.54","0.562","37.333","0.05","0.27","29.3614","4.65332","45.46","0","SATNPRO1509","29.907999999999998","0.41892","5"],
    [25323,"HCEP03730566","2024-06-18 01:45:00","9.6289","3.22287","27.46","4.29","7.54","0.564","36.311","0.05","0.2","29.3622","4.65344","45.48","0","SATNPRO1509","29.684","0.41576","5"],
    [25324,"HCEP03730566","2024-06-18 02:00:00","9.6251","3.22282","27.428","4.285","7.54","0.525","33.537","0.05","0.14","29.3648","4.65388","45.43","0","SATNPRO1509","29.904","0.41886","5"],
    [25325,"HCEP03730566","2024-06-18 02:15:00","9.6229","3.22287","27.385","4.264","7.54","0.521","29.83","0.05","0.34","29.3671","4.65425","45.19","0","SATNPRO1509","29.758","0.41682","5"],
    [25326,"HCEP03730566","2024-06-18 02:30:00","9.62","3.22299","27.338","4.238","7.54","0.549","29.776","0.05","0.17","29.3707","4.65481","44.92","0","SATNPRO1509","29.714","0.4162","5"],
    [25327,"HCEP03730566","2024-06-18 02:45:00","9.6178","3.22308","27.267","4.211","7.53","0.564","29.655","0.05","0.12","29.3734","4.65523","44.64","0","SATNPRO1509","29.682","0.41574","5"],
    [25328,"HCEP03730566","2024-06-18 03:00:00","9.6162","3.22326","27.175","4.191","7.52","0.57","29.938","0.07","0.11","29.3766","4.65571","44.42","0","SATNPRO1509","29.822","0.41774","5"],
    [25329,"HCEP03730566","2024-06-18 03:15:00","9.6154","3.22337","27.066","4.185","7.53","0.559","31.816","0.04","0.12","29.3783","4.65597","44.36","0","SATNPRO1509","29.77","0.41696","5"],
    [25330,"HCEP03730566","2024-06-18 03:30:00","9.6141","3.22347","26.944","4.184","7.53","0.613","32.53","0.09","0.48","29.3805","4.65629","44.35","0","SATNPRO1509","29.694000000000003","0.41588","5"],
    [25331,"HCEP03730566","2024-06-18 03:45:00","9.6134","3.22357","26.823","4.182","7.52","0.594","31.567","0.05","0.11","29.3821","4.65653","44.33","0","SATNPRO1509","29.740000000000002","0.4165","5"],
    [25332,"HCEP03730566","2024-06-18 04:00:00","9.6135","3.2236","26.672","4.178","7.52","0.601","30.202","0.04","0.35","29.3823","4.65656","44.29","0","SATNPRO1509","31.814","0.4456","5"],
    [25333,"HCEP03730566","2024-06-18 04:15:00","9.6136","3.22357","26.537","4.165","7.52","0.589","27.562","0.04","0.29","29.382","4.6565","44.14","0","SATNPRO1509","29.614","0.4148","5"],
    [25334,"HCEP03730566","2024-06-18 04:30:00","9.6142","3.22346","26.381","4.165","7.52","0.583","26.68","0.03","0.68","29.3805","4.65626","44.14","0","SATNPRO1509","29.692","0.4159","5"],
    [25335,"HCEP03730566","2024-06-18 04:45:00","9.6154","3.22339","26.225","4.17","7.52","0.606","22.88","0.07","0.52","29.3789","4.656","44.2","0","SATNPRO1509","29.696","0.41594","5"],
    [25336,"HCEP03730566","2024-06-18 05:00:00","9.6162","3.22337","26.035","4.174","7.52","0.596","19.271","0.06","0.61","29.3781","4.65586","44.24","0","SATNPRO1509","29.732","0.41642","5"],
    [25337,"HCEP03730566","2024-06-18 05:15:00","9.6168","3.22333","25.864","4.187","7.52","0.583","19.037","0.05","0.27","29.3774","4.65574","44.38","0","SATNPRO1509","29.684","0.4158","5"],
    [25338,"HCEP03730566","2024-06-18 05:30:00","9.6167","3.22326","25.664","4.182","7.52","0.612","23.404","0.07","0.22","29.3767","4.65564","44.33","0","SATNPRO1509","29.554","0.41392","5"],
    [25339,"HCEP03730566","2024-06-18 05:45:00","9.6151","3.22328","25.487","4.156","7.51","0.547","25.757","0.05","0.48","29.3784","4.65589","44.05","0","SATNPRO1509","29.684","0.41578","5"],
    [25340,"HCEP03730566","2024-06-18 06:00:00","9.6154","3.22317","25.288","4.159","7.51","0.628","26.426","0.4","0.2","29.3771","4.65568","44.08","0","SATNPRO1509","29.792","0.41728","5"],
    [25341,"HCEP03730566","2024-06-18 06:15:00","9.6162","3.22312","25.128","4.153","7.51","0.584","28.739","0.06","0.4","29.376","4.65551","44.02","0","SATNPRO1509","29.696","0.41592","5"],
    [25342,"HCEP03730566","2024-06-18 06:30:00","9.6157","3.22317","24.969","4.133","7.51","0.609","31.067","0.06","0.28","29.3769","4.65564","43.81","0","SATNPRO1509","29.726","0.41634","5"],
    [25343,"HCEP03730566","2024-06-18 06:45:00","9.6164","3.2231","24.833","4.12","7.51","0.584","33.128","0.05","0.35","29.3757","4.65544","43.66","0","SATNPRO1509","29.712","0.41618","5"],
    [25344,"HCEP03730566","2024-06-18 07:00:00","9.6177","3.2229","24.722","4.13","7.51","0.631","32.244","0.07","0.24","29.3727","4.65498","43.78","0","SATNPRO1509","29.644000000000002","0.41526","5"],
    [25345,"HCEP03730566","2024-06-18 07:15:00","9.618","3.22299","24.629","4.153","7.52","0.594","30.191","0.06","0.4","29.3733","4.65507","44.02","0","SATNPRO1509","29.412","0.41196","5"],
    [25346,"HCEP03730566","2024-06-18 07:30:00","9.6194","3.22297","24.552","4.143","7.52","0.607","30.495","0.05","0.19","29.3721","4.65487","43.91","0","SATNPRO1509","29.694","0.41594","5"],
    [25347,"HCEP03730566","2024-06-18 07:45:00","9.6205","3.22304","24.516","4.154","7.52","0.666","29.495","0.09","1.72","29.3719","4.65481","44.04","0","SATNPRO1509","29.637999999999998","0.41516","5"],
    [25348,"HCEP03730566","2024-06-18 08:00:00","9.6216","3.2235","24.505","4.169","7.53","0.703","28.047","0.09","0.14","29.3757","4.65533","44.19","0","SATNPRO1509","29.846","0.41802","5"],
    [25349,"HCEP03730566","2024-06-18 08:15:00","9.6223","3.22383","24.503","4.181","7.53","0.67","31.089","0.08","0.14","29.3783","4.6557","44.32","0","SATNPRO1509","29.664","0.41548","5"],
    [25350,"HCEP03730566","2024-06-18 08:30:00","9.6226","3.22396","24.511","4.207","7.53","0.611","35.217","0.06","0.23","29.3795","4.65587","44.59","0","SATNPRO1509","29.614","0.4148","5"],
    [25351,"HCEP03730566","2024-06-18 08:45:00","9.6225","3.22407","24.545","4.224","7.53","0.601","36.919","0.09","0.14","29.3806","4.65603","44.78","0","SATNPRO1509","29.712","0.41616","5"],
    [25352,"HCEP03730566","2024-06-18 09:00:00","9.6229","3.22401","24.614","4.243","7.54","0.598","35.794","0.05","0.12","29.3797","4.65589","44.98","0","SATNPRO1509","29.858","0.41822","5"],
    [25353,"HCEP03730566","2024-06-18 09:15:00","9.6234","3.22397","24.676","4.246","7.54","0.597","33.598","0.05","0.11","29.3789","4.65577","45.01","0","SATNPRO1509","29.794","0.41728","5"],
    [25354,"HCEP03730566","2024-06-18 09:30:00","9.6251","3.22394","24.739","4.285","7.54","0.546","29.148","0.08","0.18","29.3771","4.65549","45.42","0","SATNPRO1509","29.934","0.41928","5"],
    [25355,"HCEP03730566","2024-06-18 09:45:00","9.6251","3.22399","24.822","4.305","7.54","0.561","21.223","0.05","0.14","29.3776","4.65557","45.64","0","SATNPRO1509","29.976","0.41984","5"],
    [25356,"HCEP03730566","2024-06-18 10:00:00","9.6268","3.22393","24.944","4.314","7.54","0.549","17.108","0.05","0.13","29.3756","4.65526","45.74","0","SATNPRO1509","29.928","0.41918","5"],
    [25357,"HCEP03730566","2024-06-18 10:15:00","9.6285","3.22383","25.043","4.342","7.55","0.519","14.288","0.05","0.11","29.3731","4.65487","46.04","0","SATNPRO1509","29.976","0.41984","5"],
    [25358,"HCEP03730566","2024-06-18 10:30:00","9.6284","3.22366","25.157","4.337","7.54","0.512","11.006","0.05","0.23","29.3715","4.65465","45.98","0","SATNPRO1509","30.008","0.42034","5"],
    [25359,"HCEP03730566","2024-06-18 10:45:00","9.6277","3.22303","25.267","4.302","7.54","0.521","6.981","0.03","0.19","29.3657","4.65384","45.6","0","SATNPRO1509","29.97","0.41978","5"],
    [25360,"HCEP03730566","2024-06-18 11:00:00","9.6276","3.22258","25.378","4.256","7.54","0.543","5.364","0.04","0.19","29.3612","4.6532","45.11","0","SATNPRO1509","29.886","0.41862","5"],
    [25361,"HCEP03730566","2024-06-18 11:15:00","9.6271","3.22241","25.525","4.226","7.54","0.563","4.249","0.06","0.25","29.3597","4.65301","44.8","0","SATNPRO1509","29.932","0.41924","5"],
    [25362,"HCEP03730566","2024-06-18 11:30:00","9.6277","3.22231","25.666","4.211","7.54","0.552","3.878","0.05","0.21","29.3582","4.6528","44.64","0","SATNPRO1509","29.854","0.41814","5"],
    [25363,"HCEP03730566","2024-06-18 11:45:00","9.6283","3.22221","25.871","4.183","7.54","0.583","3.608","0.05","0.22","29.3566","4.65256","44.34","0","SATNPRO1509","29.812","0.41758","5"],
    [25364,"HCEP03730566","2024-06-18 12:00:00","9.6288","3.22194","26.03","4.16","7.54","0.581","3.12","0.05","0.2","29.3534","4.65211","44.1","0","SATNPRO1509","29.73","0.41642","5"],
    [25365,"HCEP03730566","2024-06-18 12:15:00","9.6293","3.22186","26.222","4.149","7.54","0.613","3.234","0.04","0.13","29.3521","4.65192","43.98","0","SATNPRO1509","29.746","0.41664","5"],
    [25366,"HCEP03730566","2024-06-18 12:30:00","9.631","3.22166","26.377","4.134","7.53","0.631","3.109","0.05","0.24","29.3487","4.65141","43.82","0","SATNPRO1509","29.666","0.41554","5"],
    [25367,"HCEP03730566","2024-06-18 12:45:00","9.6328","3.22157","26.545","4.114","7.53","0.658","3.095","0.06","0.25","29.3462","4.65104","43.61","0","SATNPRO1509","29.644","0.41522","5"],
    [25368,"HCEP03730566","2024-06-18 13:00:00","9.6336","3.2215","26.718","4.103","7.53","0.667","3.245","0.05","0.27","29.3449","4.65084","43.49","0","SATNPRO1509","29.666","0.41554","5"],
    [25369,"HCEP03730566","2024-06-18 13:15:00","9.6341","3.22148","26.869","4.092","7.53","0.679","3.393","0.05","0.17","29.3441","4.65072","43.38","0","SATNPRO1509","29.62","0.41486","5"],
    [25370,"HCEP03730566","2024-06-18 13:30:00","9.6348","3.22149","26.984","4.086","7.53","0.731","3.234","0.06","0.18","29.3437","4.65066","43.32","0","SATNPRO1509","29.536","0.41372","5"],
    [25371,"HCEP03730566","2024-06-18 13:45:00","9.6353","3.22152","27.086","4.078","7.52","0.749","3.132","0.07","0.16","29.3434","4.65063","43.23","0","SATNPRO1509","29.604","0.41462","5"],
    [25372,"HCEP03730566","2024-06-18 14:00:00","9.6353","3.22153","27.174","4.073","7.52","0.764","3.153","0.07","0.26","29.3435","4.65064","43.18","0","SATNPRO1509","29.684","0.41576","5"],
    [25373,"HCEP03730566","2024-06-18 14:15:00","9.6357","3.22157","27.251","4.061","7.52","0.829","3.362","0.08","0.14","29.3436","4.65065","43.05","0","SATNPRO1509","29.458000000000002","0.4126","5"],
    [25374,"HCEP03730566","2024-06-18 14:30:00","9.6359","3.22158","27.315","4.05","7.52","0.826","3.219","0.07","0.22","29.3435","4.65064","42.94","0","SATNPRO1509","29.612","0.41474","5"],
    [25375,"HCEP03730566","2024-06-18 14:45:00","9.6363","3.22158","27.331","4.048","7.51","0.922","3.143","0.31","0.23","29.3431","4.65058","42.91","0","SATNPRO1509","29.594","0.41454","5"],
    [25376,"HCEP03730566","2024-06-18 15:00:00","9.6366","3.22162","27.358","4.042","7.51","0.845","3.35","0.06","0.34","29.3433","4.6506","42.85","0","SATNPRO1509","29.518","0.41344","5"],
    [25377,"HCEP03730566","2024-06-18 15:15:00","9.6372","3.22156","27.373","4.032","7.51","0.869","3.196","0.09","0.21","29.3422","4.65043","42.75","0","SATNPRO1509","29.398","0.41178","5"],
    [25378,"HCEP03730566","2024-06-18 15:30:00","9.6387","3.22154","27.373","4.027","7.51","1.015","3.151","0.18","0.3","29.3408","4.65021","42.69","0","SATNPRO1509","29.384","0.4116","5"],
    [25379,"HCEP03730566","2024-06-18 15:45:00","9.6399","3.22149","27.349","4.026","7.51","0.846","3.256","0.09","0.29","29.3393","4.64997","42.68","0","SATNPRO1509","29.626","0.41498","5"],
    [25380,"HCEP03730566","2024-06-18 16:00:00","9.6411","3.22143","27.391","4.031","7.5","0.798","2.832","0.08","0.16","29.3377","4.64972","42.74","0","SATNPRO1509","29.556","0.41398","5"],
    [25381,"HCEP03730566","2024-06-18 16:15:00","9.6406","3.22151","27.381","4.043","7.5","0.841","2.835","0.09","0.19","29.3389","4.64991","42.87","0","SATNPRO1509","29.538","0.41378","5"],
    [25382,"HCEP03730566","2024-06-18 16:30:00","9.6399","3.22154","27.362","4.046","7.5","0.939","3.308","0.15","0.41","29.3398","4.65004","42.9","0","SATNPRO1509","29.644000000000002","0.41522","5"],
    [25383,"HCEP03730566","2024-06-18 16:45:00","9.6366","3.22198","27.347","4.044","7.51","0.898","3.671","0.07","0.23","29.3469","4.65112","42.87","0","SATNPRO1509","29.476","0.41286","5"],
    [25384,"HCEP03730566","2024-06-18 17:00:00","9.6356","3.22221","27.294","4.042","7.51","0.854","3.629","0.07","0.16","29.3501","4.65158","42.85","0","SATNPRO1509","29.438","0.41236","5"],
    [25385,"HCEP03730566","2024-06-18 17:15:00","9.635","3.22244","27.251","4.086","7.52","0.793","3.709","0.05","0.14","29.353","4.65201","43.31","0","SATNPRO1509","29.51","0.41334","5"],
    [25386,"HCEP03730566","2024-06-18 17:30:00","9.6344","3.22285","27.218","4.117","7.52","0.849","4.454","0.08","0.16","29.3576","4.65267","43.65","0","SATNPRO1509","29.6","0.41458","5"],
    [25387,"HCEP03730566","2024-06-18 17:45:00","9.6351","3.22342","27.181","4.178","7.53","0.82","4.257","0.04","0.18","29.3627","4.6534","44.3","0","SATNPRO1509","29.702","0.41602","5"],
    [25388,"HCEP03730566","2024-06-18 18:00:00","9.6369","3.2241","27.157","4.255","7.54","0.782","4.09","0.05","0.17","29.3681","4.65414","45.12","0","SATNPRO1509","29.826","0.41774","5"],
    [25389,"HCEP03730566","2024-06-18 18:15:00","9.6378","3.22451","27.068","4.325","7.55","0.783","4.095","0.05","0.13","29.3715","4.6546","45.86","0","SATNPRO1509","29.887999999999998","0.41866","5"],
    [25390,"HCEP03730566","2024-06-18 18:30:00","9.6383","3.22468","27.032","4.367","7.55","0.759","3.94","0.06","0.12","29.3728","4.65478","46.31","0","SATNPRO1509","29.926","0.41912","5"],
    [25391,"HCEP03730566","2024-06-18 18:45:00","9.6377","3.22469","26.979","4.383","7.56","0.718","3.764","0.04","0.12","29.3735","4.65489","46.47","0","SATNPRO1509","30.09","0.42148","5"],
    [25392,"HCEP03730566","2024-06-18 19:00:00","9.6371","3.22454","26.883","4.391","7.56","0.724","3.788","0.07","0.17","29.3725","4.65474","46.57","0","SATNPRO1509","30.114","0.42178","5"],
    [25393,"HCEP03730566","2024-06-18 19:15:00","9.6363","3.22447","26.881","4.382","7.56","0.681","3.488","0.04","0.16","29.3725","4.65475","46.47","0","SATNPRO1509","30.136","0.42212","5"],
    [25394,"HCEP03730566","2024-06-18 19:30:00","9.6362","3.22448","26.839","4.377","7.56","0.721","3.795","0.06","0.19","29.3727","4.65478","46.41","0","SATNPRO1509","30.054","0.42098","5"],
    [25395,"HCEP03730566","2024-06-18 19:45:00","9.6361","3.22454","26.797","4.376","7.56","0.723","3.849","0.05","0.1","29.3733","4.65487","46.4","0","SATNPRO1509","30.105999999999998","0.4217","5"],
    [25396,"HCEP03730566","2024-06-18 20:00:00","9.6367","3.22465","26.771","4.387","7.56","0.749","3.83","0.08","0.13","29.374","4.65496","46.52","0","SATNPRO1509","30.074","0.42118","5"],
    [25397,"HCEP03730566","2024-06-18 20:15:00","9.6366","3.22457","26.729","4.398","7.56","0.722","3.741","0.09","0.13","29.3733","4.65487","46.64","0","SATNPRO1509","30.042","0.4208","5"],
    [25398,"HCEP03730566","2024-06-18 20:30:00","9.6369","3.22492","26.718","4.405","7.56","0.693","3.788","0.05","0.17","29.3766","4.65532","46.72","0","SATNPRO1509","30.206","0.42308","5"],
    [25399,"HCEP03730566","2024-06-18 20:45:00","9.6368","3.22494","26.726","4.421","7.56","0.7","3.551","0.06","0.18","29.3769","4.65537","46.88","0","SATNPRO1509","30.172","0.42262","5"],
    [25400,"HCEP03730566","2024-06-18 21:00:00","9.6374","3.2251","26.715","4.437","7.56","0.681","3.639","0.04","0.15","29.378","4.65552","47.05","0","SATNPRO1509","30.154","0.4224","5"],
    [25401,"HCEP03730566","2024-06-18 21:15:00","9.6379","3.22532","26.738","4.464","7.56","0.649","3.229","0.04","0.15","29.3798","4.65577","47.34","0","SATNPRO1509","30.196","0.42294","5"],
    [25402,"HCEP03730566","2024-06-18 21:30:00","9.6369","3.22516","26.765","4.462","7.57","0.686","3.575","0.04","0.12","29.379","4.65568","47.32","0","SATNPRO1509","30.166","0.42252","5"],
    [25403,"HCEP03730566","2024-06-18 21:45:00","9.636","3.22502","26.809","4.431","7.56","0.738","3.742","0.09","0.23","29.3782","4.65558","46.99","0","SATNPRO1509","30.148","0.42226","5"],
    [25404,"HCEP03730566","2024-06-18 22:00:00","9.6347","3.22473","26.859","4.379","7.56","0.747","3.534","0.07","0.19","29.3764","4.65535","46.43","0","SATNPRO1509","30.084","0.42138","5"],
    [25405,"HCEP03730566","2024-06-18 22:15:00","9.6328","3.22431","26.883","4.314","7.56","0.766","3.786","0.05","0.28","29.3738","4.655","45.74","0","SATNPRO1509","29.956","0.41958","5"],
    [25406,"HCEP03730566","2024-06-18 22:30:00","9.6324","3.22419","26.947","4.267","7.55","0.743","3.493","0.05","0.23","29.3728","4.65487","45.24","0","SATNPRO1509","29.946","0.41944","5"],
    [25407,"HCEP03730566","2024-06-18 22:45:00","9.6318","3.22413","26.978","4.264","7.55","0.758","3.532","0.06","0.17","29.3727","4.65487","45.21","0","SATNPRO1509","29.93","0.41928","5"],
    [25408,"HCEP03730566","2024-06-18 23:00:00","9.6319","3.22425","27.046","4.261","7.55","0.787","3.481","0.06","0.15","29.3738","4.65503","45.18","0","SATNPRO1509","29.95","0.4195","5"],
    [25409,"HCEP03730566","2024-06-18 23:15:00","9.6331","3.22446","27.099","4.286","7.55","0.867","3.314","0.25","0.28","29.375","4.65518","45.45","0","SATNPRO1509","29.98","0.41992","5"],
    [25410,"HCEP03730566","2024-06-18 23:30:00","9.632","3.22436","27.167","4.29","7.55","0.918","4.066","0.61","1.23","29.3748","4.65518","45.49","0","SATNPRO1509","29.902","0.41882","5"],
    [25411,"HCEP03730566","2024-06-18 23:45:00","9.6324","3.22441","27.227","4.285","7.55","0.826","3.655","0.09","0.25","29.3749","4.65519","45.43","0","SATNPRO1509","30.086","0.42138","5"],
    [25412,"HCEP03730566","2024-06-19 00:00:00","9.631","3.22428","27.276","4.258","7.55","0.794","3.856","0.04","0.16","29.3747","4.6552","45.14","0","SATNPRO1509","29.884","0.41856","5"],
    [25413,"HCEP03730566","2024-06-19 00:15:00","9.63","3.22419","27.326","4.236","7.54","0.757","3.887","0.02","0.25","29.3746","4.6552","44.91","0","SATNPRO1509","29.992","0.42008","5"],
    [25414,"HCEP03730566","2024-06-19 00:30:00","9.6299","3.22407","27.373","4.217","7.54","0.683","3.851","0.01","0.29","29.3735","4.65505","44.72","0","SATNPRO1509","29.866","0.41836","5"],
    [25415,"HCEP03730566","2024-06-19 00:45:00","9.6303","3.22405","27.421","4.209","7.54","0.611","3.852","0.02","0.2","29.3729","4.65496","44.62","0","SATNPRO1509","29.756","0.41676","5"],
    [25416,"HCEP03730566","2024-06-19 01:00:00","9.6291","3.22396","27.45","4.19","7.54","0.51","3.956","0.01","0.35","29.3729","4.65498","44.42","0","SATNPRO1509","29.846","0.41804","5"],
    [25417,"HCEP03730566","2024-06-19 01:15:00","9.6298","3.224","27.475","4.181","7.54","0.399","4.283","0.01","0.3","29.3729","4.65496","44.32","0","SATNPRO1509","29.804","0.41748","5"],
    [25418,"HCEP03730566","2024-06-19 01:30:00","9.6304","3.22404","27.494","4.182","7.54","0.304","5.846","0.01","0.37","29.3727","4.65492","44.33","0","SATNPRO1509","30.03","0.42062","5"],
    [25419,"HCEP03730566","2024-06-19 01:45:00","9.6306","3.22403","27.496","4.187","7.53","0.214","8.726","0.01","0.23","29.3724","4.65488","44.39","0","SATNPRO1509","29.794","0.41734","5"],
    [25420,"HCEP03730566","2024-06-19 02:00:00","9.6301","3.22401","27.49","4.183","7.53","0.149","14.858","0.01","0.28","29.3727","4.65493","44.35","0","SATNPRO1509","29.788","0.41722","5"],
    [25421,"HCEP03730566","2024-06-19 02:15:00","9.6304","3.22402","27.471","4.176","7.52","0.117","25.571","0.01","0.32","29.3725","4.6549","44.27","0","SATNPRO1509","29.796","0.4173","5"],
    [25422,"HCEP03730566","2024-06-19 02:30:00","9.6305","3.22405","27.441","4.168","7.52","0.117","42.939","0.01","0.15","29.3728","4.65493","44.19","0","SATNPRO1509","29.824","0.41776","5"],
    [25423,"HCEP03730566","2024-06-19 02:45:00","9.6298","3.22408","27.401","4.17","7.52","0.131","67.094","0.01","0.16","29.3737","4.65507","44.21","0","SATNPRO1509","29.898","0.41876","5"],
    [25424,"HCEP03730566","2024-06-19 03:00:00","9.6301","3.22418","27.363","4.169","7.51","0.171","98.147","0.02","0.44","29.3744","4.65516","44.2","0","SATNPRO1509","29.951999999999998","0.41952","5"],
    [25425,"HCEP03730566","2024-06-19 03:15:00","9.6295","3.22424","27.291","4.172","7.52","0.209","122.02","0.03","0.18","29.3756","4.65534","44.23","0","SATNPRO1509","29.754","0.41678","5"],
    [25426,"HCEP03730566","2024-06-19 03:30:00","9.6299","3.22451","27.198","4.177","7.52","0.237","135.789","0.04","0.27","29.378","4.65567","44.28","0","SATNPRO1509","29.918","0.41908","5"],
    [25427,"HCEP03730566","2024-06-19 03:45:00","9.6299","3.22472","27.12","4.212","7.52","0.271","140.462","0.06","0.11","29.3801","4.65597","44.65","0","SATNPRO1509","30.028","0.4206","5"],
    [25428,"HCEP03730566","2024-06-19 04:00:00","9.6299","3.22474","27.002","4.231","7.52","0.287","138.448","0.06","0.14","29.3804","4.65602","44.86","0","SATNPRO1509","29.887999999999998","0.41864","5"],
    [25429,"HCEP03730566","2024-06-19 04:15:00","9.6302","3.22485","26.864","4.237","7.52","0.302","133.425","0.03","0.22","29.3813","4.65612","44.92","0","SATNPRO1509","30.032","0.42064","5"],
    [25430,"HCEP03730566","2024-06-19 04:30:00","9.6304","3.22491","26.717","4.239","7.52","0.301","128.373","0.05","0.17","29.3819","4.65619","44.94","0","SATNPRO1509","29.97","0.4198","5"],
    [25431,"HCEP03730566","2024-06-19 04:45:00","9.6313","3.22504","26.554","4.244","7.52","0.299","122.713","0.03","0","29.3824","4.65625","45","0","SATNPRO1509","30.004","0.42022","5"],
    [25432,"HCEP03730566","2024-06-19 05:00:00","9.6325","3.22523","26.367","4.256","7.52","0.342","104.479","0.08","0.03","29.3834","4.65636","45.12","0","SATNPRO1509","29.894","0.41872","5"],
    [25433,"HCEP03730566","2024-06-19 05:15:00","9.6359","3.22574","26.163","4.295","7.52","0.3","71.13","0.02","0","29.3859","4.65664","45.55","0","SATNPRO1509","30.073999999999998","0.42126","5"],
    [25434,"HCEP03730566","2024-06-19 05:30:00","9.6417","3.22676","25.96","4.376","7.53","0.283","43.718","0.02","0.04","29.3914","4.65733","46.42","0","SATNPRO1509","30.16","0.42242","5"],
    [25435,"HCEP03730566","2024-06-19 05:45:00","9.6445","3.22709","25.739","4.497","7.53","0.248","20.005","0.02","0.01","29.3927","4.65744","47.7","0","SATNPRO1509","30.204","0.42306","5"],
    [25436,"HCEP03730566","2024-06-19 06:00:00","9.6471","3.22746","25.507","4.564","7.54","0.232","5.032","0.01","0.01","29.3943","4.65762","48.42","0","SATNPRO1509","30.291999999999998","0.42428","5"],
    [25437,"HCEP03730566","2024-06-19 06:15:00","9.6545","3.22881","25.312","4.657","7.55","0.224","0.571","0.04","0.03","29.402","4.65857","49.41","0","SATNPRO1509","30.406","0.4259","5"],
    [25438,"HCEP03730566","2024-06-19 06:30:00","9.6593","3.22987","25.153","4.801","7.56","0.194","0.327","0.02","0.02","29.4088","4.65946","50.94","0","SATNPRO1509","30.674","0.42966","5"],
    [25439,"HCEP03730566","2024-06-19 06:45:00","9.6624","3.23052","24.937","4.911","7.57","0.171","0.303","0.04","0.03","29.413","4.65999","52.12","0","SATNPRO1509","30.806","0.43146","5"],
    [25440,"HCEP03730566","2024-06-19 07:00:00","9.6646","3.23104","24.803","4.987","7.58","0.133","0.29","0.01","0.01","29.4164","4.66043","52.93","0","SATNPRO1509","30.762","0.43088","5"],
    [25441,"HCEP03730566","2024-06-19 07:15:00","9.6656","3.23139","24.67","5.043","7.59","0.12","0.331","0.02","0.01","29.4192","4.6608","53.52","0","SATNPRO1509","30.8","0.43136","5"],
    [25442,"HCEP03730566","2024-06-19 07:30:00","9.6647","3.23121","24.523","5.062","7.6","0.143","0.471","0.14","0.04","29.4182","4.66067","53.73","0","SATNPRO1509","30.832","0.43186","5"],
    [25443,"HCEP03730566","2024-06-19 07:45:00","9.663","3.23098","24.408","5.043","7.6","0.104","0.544","0.01","0.03","29.4172","4.66056","53.52","0","SATNPRO1509","30.776","0.43108","5"],
    [25444,"HCEP03730566","2024-06-19 08:00:00","9.6614","3.23079","24.298","5.003","7.6","0.11","0.646","0.01","0.05","29.4167","4.6605","53.09","0","SATNPRO1509","30.416","0.426","5"],
    [25445,"HCEP03730566","2024-06-19 08:15:00","9.6593","3.23073","24.221","4.967","7.6","0.119","0.663","0.02","0.03","29.4179","4.6607","52.71","0","SATNPRO1509","30.561999999999998","0.4281","5"],
    [25446,"HCEP03730566","2024-06-19 08:30:00","9.6584","3.23081","24.191","4.935","7.6","0.134","0.709","0.03","0.04","29.4194","4.66093","52.37","0","SATNPRO1509","30.678","0.42968","5"],
    [25447,"HCEP03730566","2024-06-19 08:45:00","9.6583","3.23099","24.214","4.926","7.6","0.144","0.761","0.02","0.17","29.4212","4.6612","52.27","0","SATNPRO1509","30.704","0.43006","5"],
    [25448,"HCEP03730566","2024-06-19 09:00:00","9.6593","3.23121","24.267","4.938","7.59","0.17","0.811","0.07","0.07","29.4227","4.66139","52.41","0","SATNPRO1509","30.602","0.42862","5"],
    [25449,"HCEP03730566","2024-06-19 09:15:00","9.6595","3.23129","24.281","4.962","7.59","0.181","0.897","0.02","0.09","29.4233","4.66148","52.66","0","SATNPRO1509","30.63","0.42902","5"],
    [25450,"HCEP03730566","2024-06-19 09:30:00","9.6594","3.23119","24.314","4.965","7.6","0.227","1.136","0.03","0.11","29.4224","4.66135","52.69","0","SATNPRO1509","30.624","0.42896","5"],
    [25451,"HCEP03730566","2024-06-19 09:45:00","9.6498","3.22893","24.371","4.907","7.6","0.258","1.229","0.03","0.09","29.4075","4.65939","52.06","0","SATNPRO1509","30.584","0.42838","5"],
    [25452,"HCEP03730566","2024-06-19 10:00:00","9.6563","3.22991","24.456","4.852","7.6","0.314","1.559","0.03","0.17","29.4119","4.65992","51.48","0","SATNPRO1509","30.632","0.42902","5"],
    [25453,"HCEP03730566","2024-06-19 10:15:00","9.6556","3.23004","24.553","4.849","7.6","0.351","1.716","0.03","0.11","29.4137","4.66019","51.46","0","SATNPRO1509","30.506","0.4273","5"],
    [25454,"HCEP03730566","2024-06-19 10:30:00","9.6523","3.22889","24.662","4.81","7.6","0.416","2.118","0.08","0.09","29.4049","4.65899","51.03","0","SATNPRO1509","30.445999999999998","0.42644","5"],
    [25455,"HCEP03730566","2024-06-19 10:45:00","9.6541","3.22921","24.817","4.77","7.6","0.431","2.326","0.03","0.15","29.4066","4.65921","50.61","0","SATNPRO1509","30.446","0.42644","5"],
    [25456,"HCEP03730566","2024-06-19 11:00:00","9.6521","3.22844","24.936","4.759","7.6","0.48","2.446","0.04","0.15","29.4003","4.65835","50.49","0","SATNPRO1509","30.5","0.4272","5"],
    [25457,"HCEP03730566","2024-06-19 11:15:00","9.6513","3.22805","25.077","4.725","7.59","0.529","2.691","0.07","0.24","29.397","4.6579","50.13","0","SATNPRO1509","30.55","0.42794","5"],
    [25458,"HCEP03730566","2024-06-19 11:30:00","9.65","3.2274","25.248","4.701","7.59","0.545","2.51","0.08","0.17","29.3915","4.65715","49.87","0","SATNPRO1509","30.568","0.42816","5"],
    [25459,"HCEP03730566","2024-06-19 11:45:00","9.6492","3.22685","25.405","4.668","7.59","0.507","2.547","0.04","0.18","29.3865","4.65646","49.52","0","SATNPRO1509","30.542","0.42778","5"],
    [25460,"HCEP03730566","2024-06-19 12:00:00","9.6497","3.22709","25.575","4.634","7.59","0.579","2.806","0.06","0.2","29.3885","4.65674","49.16","0","SATNPRO1509","30.488","0.42704","5"],
    [25461,"HCEP03730566","2024-06-19 12:15:00","9.6499","3.2267","25.766","4.621","7.59","0.611","2.86","0.05","0.12","29.3843","4.65615","49.02","0","SATNPRO1509","30.394","0.42572","5"],
    [25462,"HCEP03730566","2024-06-19 12:30:00","9.6498","3.22669","25.927","4.6","7.58","0.64","3.185","0.04","0.11","29.3843","4.65616","48.79","0","SATNPRO1509","30.434","0.42628","5"],
    [25463,"HCEP03730566","2024-06-19 12:45:00","9.6496","3.22668","26.112","4.587","7.58","0.667","3.136","0.06","0.14","29.3841","4.65615","48.66","0","SATNPRO1509","30.374","0.42548","5"],
    [25464,"HCEP03730566","2024-06-19 13:00:00","9.6492","3.22667","26.335","4.584","7.58","0.677","3.163","0.06","0.12","29.3843","4.6562","48.62","0","SATNPRO1509","30.392","0.42572","5"],
    [25465,"HCEP03730566","2024-06-19 13:15:00","9.6483","3.22657","26.481","4.561","7.58","0.676","3.1","0.05","0.13","29.384","4.65617","48.38","0","SATNPRO1509","30.296","0.42436","5"],
    [25466,"HCEP03730566","2024-06-19 13:30:00","9.6483","3.22666","26.653","4.552","7.58","0.715","3.254","0.04","0.15","29.3849","4.65631","48.28","0","SATNPRO1509","30.268","0.42396","5"],
    [25467,"HCEP03730566","2024-06-19 13:45:00","9.6483","3.22674","26.816","4.564","7.58","0.723","3.152","0.04","0.12","29.3856","4.65642","48.41","0","SATNPRO1509","30.362000000000002","0.42528","5"],
    [25468,"HCEP03730566","2024-06-19 14:00:00","9.6494","3.22703","26.957","4.571","7.58","0.797","3.587","0.06","0.11","29.3875","4.65669","48.48","0","SATNPRO1509","30.304000000000002","0.42446","5"],
    [25469,"HCEP03730566","2024-06-19 14:15:00","9.6512","3.22744","27.086","4.59","7.58","0.833","3.909","0.06","0.13","29.3901","4.65703","48.69","0","SATNPRO1509","30.284","0.42418","5"],
    [25470,"HCEP03730566","2024-06-19 14:30:00","9.6521","3.22762","27.25","4.6","7.58","0.82","3.711","0.08","0.11","29.3912","4.65718","48.8","0","SATNPRO1509","30.381999999999998","0.42556","5"],
    [25471,"HCEP03730566","2024-06-19 14:45:00","9.6523","3.22771","27.347","4.612","7.59","0.86","3.647","0.08","0.12","29.3918","4.65728","48.93","0","SATNPRO1509","30.38","0.42554","5"],
    [25472,"HCEP03730566","2024-06-19 15:00:00","9.6529","3.22777","27.441","4.617","7.59","0.827","3.404","0.06","0.21","29.3919","4.65728","48.98","0","SATNPRO1509","30.472","0.42682","5"],
    [25473,"HCEP03730566","2024-06-19 15:15:00","9.6533","3.22786","27.502","4.615","7.58","0.861","3.546","0.06","0.18","29.3925","4.65736","48.96","0","SATNPRO1509","30.482","0.42696","5"],
    [25474,"HCEP03730566","2024-06-19 15:30:00","9.6534","3.22786","27.524","4.614","7.58","0.806","3.021","0.06","0.11","29.3924","4.65734","48.95","0","SATNPRO1509","30.412","0.42598","5"],
    [25475,"HCEP03730566","2024-06-19 15:45:00","9.6497","3.22651","27.581","4.585","7.58","0.794","2.705","0.1","0.15","29.3818","4.6559","48.64","0","SATNPRO1509","30.358","0.42522","5"],
    [25476,"HCEP03730566","2024-06-19 16:00:00","9.646","3.22546","27.573","4.462","7.57","0.697","2.674","0.07","0.17","29.3742","4.65488","47.33","0","SATNPRO1509","30.07","0.42116","5"],
    [25477,"HCEP03730566","2024-06-19 16:15:00","9.6439","3.22471","27.575","4.363","7.56","0.686","2.544","0.1","0.14","29.3683","4.65407","46.28","0","SATNPRO1509","30.07","0.42118","5"],
    [25478,"HCEP03730566","2024-06-19 16:30:00","9.6454","3.22515","27.577","4.311","7.55","0.69","2.551","0.05","0.13","29.3716","4.65451","45.72","0","SATNPRO1509","30.114","0.4218","5"],
    [25479,"HCEP03730566","2024-06-19 16:45:00","9.6437","3.22482","27.594","4.327","7.55","0.669","2.421","0.1","0.09","29.3697","4.65426","45.89","0","SATNPRO1509","30.162","0.42248","5"],
    [25480,"HCEP03730566","2024-06-19 17:00:00","9.6446","3.22523","27.592","4.32","7.55","0.672","2.364","0.15","0.17","29.3731","4.65474","45.81","0","SATNPRO1509","30.122","0.42192","5"],
    [25481,"HCEP03730566","2024-06-19 17:15:00","9.6467","3.22571","27.608","4.364","7.55","0.641","2.352","0.04","0.13","29.3762","4.65515","46.29","0","SATNPRO1509","30.236","0.42344","5"],
    [25482,"HCEP03730566","2024-06-19 17:30:00","9.6481","3.22621","27.544","4.426","7.54","0.687","2.373","0.07","0.15","29.3801","4.65568","46.95","0","SATNPRO1509","30.274","0.42406","5"],
    [25483,"HCEP03730566","2024-06-19 17:45:00","9.6503","3.22694","27.502","4.499","7.54","0.72","2.539","0.14","0.22","29.3857","4.65644","47.72","0","SATNPRO1509","30.45","0.42652","5"],
    [25484,"HCEP03730566","2024-06-19 18:00:00","9.6514","3.22715","27.433","4.591","7.56","0.65","2.357","0.07","0.14","29.3869","4.65658","48.7","0","SATNPRO1509","30.466","0.42668","5"],
    [25485,"HCEP03730566","2024-06-19 18:15:00","9.6537","3.22835","27.389","4.607","7.55","0.724","3.042","0.07","0.18","29.3972","4.65802","48.87","0","SATNPRO1509","30.394","0.42572","5"],
    [25486,"HCEP03730566","2024-06-19 18:30:00","9.6529","3.22769","27.333","4.6","7.56","0.717","3.178","0.09","0.16","29.3912","4.65717","48.8","0","SATNPRO1509","30.372","0.42542","5"],
    [25487,"HCEP03730566","2024-06-19 18:45:00","9.6516","3.22765","27.286","4.584","7.57","0.757","3.573","0.06","0.21","29.3919","4.65729","48.63","0","SATNPRO1509","30.330000000000002","0.4248","5"],
    [25488,"HCEP03730566","2024-06-19 19:00:00","9.6502","3.22717","27.253","4.54","7.57","0.713","3.533","0.08","0.23","29.3882","4.65678","48.16","0","SATNPRO1509","30.34","0.42498","5"],
    [25489,"HCEP03730566","2024-06-19 19:15:00","9.6495","3.22708","27.186","4.503","7.57","0.714","3.736","0.1","0.16","29.3879","4.65675","47.77","0","SATNPRO1509","30.166","0.42254","5"],
    [25490,"HCEP03730566","2024-06-19 19:30:00","9.6494","3.22701","27.148","4.471","7.57","0.753","3.972","0.08","0.1","29.3872","4.65666","47.42","0","SATNPRO1509","30.192","0.42288","5"],
    [25491,"HCEP03730566","2024-06-19 19:45:00","9.6492","3.2269","27.086","4.436","7.57","0.776","4.324","0.06","0.13","29.3863","4.65653","47.06","0","SATNPRO1509","30.12","0.42184","5"],
    [25492,"HCEP03730566","2024-06-19 20:00:00","9.649","3.22702","27.028","4.417","7.57","0.772","4.594","0.08","0.13","29.3877","4.65673","46.85","0","SATNPRO1509","30.062","0.42106","5"],
    [25493,"HCEP03730566","2024-06-19 20:15:00","9.6491","3.22703","26.963","4.433","7.57","0.734","4.372","0.05","0.09","29.3878","4.65673","47.03","0","SATNPRO1509","30.102","0.4216","5"],
    [25494,"HCEP03730566","2024-06-19 20:30:00","9.6487","3.22691","26.929","4.423","7.57","0.736","4.256","0.06","0.21","29.3869","4.65661","46.92","0","SATNPRO1509","30.058","0.421","5"],
    [25495,"HCEP03730566","2024-06-19 20:45:00","9.6482","3.22665","26.852","4.391","7.57","0.696","4.076","0.05","0.17","29.3847","4.6563","46.58","0","SATNPRO1509","30.024","0.42054","5"],
    [25496,"HCEP03730566","2024-06-19 21:00:00","9.6484","3.22666","26.818","4.371","7.56","0.679","4.222","0.03","0.15","29.3846","4.65628","46.37","0","SATNPRO1509","30.034","0.4207","5"],
    [25497,"HCEP03730566","2024-06-19 21:15:00","9.648","3.22637","26.811","4.338","7.56","0.659","3.987","0.03","0.07","29.382","4.65591","46.01","0","SATNPRO1509","29.983999999999998","0.41998","5"],
    [25498,"HCEP03730566","2024-06-19 21:30:00","9.6477","3.22613","26.824","4.302","7.56","0.645","3.947","0.06","0.14","29.3799","4.65562","45.63","0","SATNPRO1509","29.802","0.41742","5"],
    [25499,"HCEP03730566","2024-06-19 21:45:00","9.6481","3.22577","26.817","4.272","7.56","0.614","3.814","0.06","0.15","29.3759","4.65504","45.31","0","SATNPRO1509","29.886","0.4186","5"],
    [25500,"HCEP03730566","2024-06-19 22:00:00","9.6485","3.22562","26.798","4.247","7.55","0.549","3.635","0.04","0.09","29.3741","4.65477","45.05","0","SATNPRO1509","29.768","0.41698","5"],
    [25501,"HCEP03730566","2024-06-19 22:15:00","9.6493","3.22552","26.848","4.229","7.55","0.545","3.845","0.04","0.13","29.3725","4.65453","44.85","0","SATNPRO1509","29.754","0.41678","5"],
    [25502,"HCEP03730566","2024-06-19 22:30:00","9.6504","3.22549","26.867","4.227","7.55","0.517","3.657","0.03","0.1","29.3712","4.65433","44.83","0","SATNPRO1509","29.776","0.41704","5"],
    [25503,"HCEP03730566","2024-06-19 22:45:00","9.652","3.22546","26.887","4.233","7.55","0.519","3.66","0.04","0.18","29.3696","4.65407","44.9","0","SATNPRO1509","29.85","0.4181","5"],
    [25504,"HCEP03730566","2024-06-19 23:00:00","9.6552","3.22533","26.933","4.238","7.55","0.508","3.585","0.06","0.15","29.3658","4.65347","44.96","0","SATNPRO1509","29.798","0.41738","5"],
    [25505,"HCEP03730566","2024-06-19 23:15:00","9.6551","3.22543","26.971","4.256","7.55","0.537","3.873","0.07","0.22","29.3667","4.65361","45.15","0","SATNPRO1509","29.854","0.41812","5"],
    [25506,"HCEP03730566","2024-06-19 23:30:00","9.6559","3.22545","27.026","4.262","7.55","0.51","4.132","0.06","0.26","29.3663","4.65354","45.21","0","SATNPRO1509","29.878","0.41848","5"],
    [25507,"HCEP03730566","2024-06-19 23:45:00","9.6554","3.22547","27.091","4.27","7.55","0.531","4.878","0.06","0.22","29.3669","4.65364","45.29","0","SATNPRO1509","29.686","0.4158","5"],
    [25508,"HCEP03730566","2024-06-20 00:00:00","9.6563","3.22542","27.151","4.253","7.55","0.538","5.867","0.07","0.22","29.3656","4.65344","45.12","0","SATNPRO1509","29.706","0.41608","5"],
    [25509,"HCEP03730566","2024-06-20 00:15:00","9.658","3.22542","27.21","4.272","7.55","0.539","8.92","0.05","0.17","29.3642","4.65321","45.32","0","SATNPRO1509","29.694","0.4159","5"],
    [25510,"HCEP03730566","2024-06-20 00:30:00","9.6575","3.22554","27.256","4.26","7.54","0.624","14.553","0.27","0.24","29.3658","4.65345","45.19","0","SATNPRO1509","29.759999999999998","0.41682","5"],
    [25511,"HCEP03730566","2024-06-20 00:45:00","9.6583","3.22569","27.314","4.249","7.54","0.62","22.775","0.11","0.16","29.3666","4.65356","45.08","0","SATNPRO1509","29.61","0.41468","5"],
    [25512,"HCEP03730566","2024-06-20 01:00:00","9.6583","3.22582","27.362","4.243","7.54","0.63","30.069","0.17","0.25","29.3679","4.65375","45.02","0","SATNPRO1509","29.407999999999998","0.4119","5"],
    [25513,"HCEP03730566","2024-06-20 01:15:00","9.6583","3.22586","27.403","4.24","7.54","0.607","36.025","0.05","0.3","29.3683","4.65381","44.98","0","SATNPRO1509","29.632","0.41506","5"],
    [25514,"HCEP03730566","2024-06-20 01:30:00","9.6598","3.226","27.442","4.237","7.54","0.632","40.63","0.06","0.15","29.3685","4.65381","44.95","0","SATNPRO1509","29.46","0.41266","5"],
    [25515,"HCEP03730566","2024-06-20 01:45:00","9.6608","3.22599","27.475","4.257","7.54","0.61","44.142","0.06","0.26","29.3675","4.65366","45.16","0","SATNPRO1509","29.582","0.41438","5"],
    [25516,"HCEP03730566","2024-06-20 02:00:00","9.662","3.22588","27.488","4.259","7.54","0.615","45.384","0.06","0.24","29.3654","4.65333","45.19","0","SATNPRO1509","29.374000000000002","0.41142","5"],
    [25517,"HCEP03730566","2024-06-20 02:15:00","9.6638","3.22589","27.481","4.285","7.54","0.615","44.064","0.09","0.1","29.3641","4.65311","45.47","0","SATNPRO1509","29.898","0.41874","5"],
    [25518,"HCEP03730566","2024-06-20 02:30:00","9.6634","3.2261","27.505","4.296","7.54","0.637","42.171","0.32","0.25","29.3666","4.65348","45.58","0","SATNPRO1509","29.734","0.4165","5"],
    [25519,"HCEP03730566","2024-06-20 02:45:00","9.6631","3.22619","27.478","4.343","7.54","0.603","37.905","0.06","0.14","29.3677","4.65365","46.08","0","SATNPRO1509","29.722","0.4163","5"],
    [25520,"HCEP03730566","2024-06-20 03:00:00","9.6632","3.22638","27.451","4.327","7.54","0.594","36.059","0.07","0.19","29.3695","4.6539","45.91","0","SATNPRO1509","29.85","0.4181","5"],
    [25521,"HCEP03730566","2024-06-20 03:15:00","9.6628","3.22646","27.406","4.352","7.54","0.606","33.797","0.07","0.1","29.3707","4.65406","46.17","0","SATNPRO1509","29.988","0.42002","5"],
    [25522,"HCEP03730566","2024-06-20 03:30:00","9.6642","3.2267","27.361","4.364","7.54","0.662","32.591","0.33","0.29","29.372","4.65423","46.3","0","SATNPRO1509","30.254","0.42376","5"],
    [25523,"HCEP03730566","2024-06-20 03:45:00","9.6626","3.22648","27.309","4.39","7.54","0.593","32.932","0.07","0.1","29.3711","4.65412","46.58","0","SATNPRO1509","29.906","0.41888","5"],
    [25524,"HCEP03730566","2024-06-20 04:00:00","9.6629","3.22657","27.223","4.363","7.54","0.589","33.666","0.04","0.13","29.3718","4.65421","46.29","0","SATNPRO1509","29.844","0.41802","5"],
    [25525,"HCEP03730566","2024-06-20 04:15:00","9.6625","3.22654","27.115","4.365","7.54","0.608","34.178","0.07","0.13","29.3719","4.65423","46.31","0","SATNPRO1509","29.983999999999998","0.41998","5"],
    [25526,"HCEP03730566","2024-06-20 04:30:00","9.662","3.22668","26.992","4.355","7.54","0.644","33.948","0.06","0.35","29.3737","4.65448","46.21","0","SATNPRO1509","29.92","0.41906","5"],
    [25527,"HCEP03730566","2024-06-20 04:45:00","9.6634","3.22693","26.845","4.378","7.54","0.702","33.265","0.1","0.16","29.3752","4.65467","46.45","0","SATNPRO1509","30.09","0.42146","5"],
    [25528,"HCEP03730566","2024-06-20 05:00:00","9.6643","3.22726","26.682","4.424","7.54","0.788","32.886","0.7","0.41","29.3778","4.65502","46.94","0","SATNPRO1509","30.124000000000002","0.42196","5"],
    [25529,"HCEP03730566","2024-06-20 05:15:00","9.6642","3.22738","26.499","4.451","7.54","0.668","30.246","0.22","0.47","29.3792","4.65522","47.23","0","SATNPRO1509","30.014","0.42044","5"],
    [25530,"HCEP03730566","2024-06-20 05:30:00","9.6638","3.22739","26.31","4.445","7.54","0.631","24.146","0.06","0.32","29.3797","4.65527","47.16","0","SATNPRO1509","30","0.42022","5"],
    [25531,"HCEP03730566","2024-06-20 05:45:00","9.6632","3.22733","26.126","4.426","7.54","0.581","22.693","0.04","0.33","29.3796","4.65527","46.97","0","SATNPRO1509","30.014","0.42038","5"],
    [25532,"HCEP03730566","2024-06-20 06:00:00","9.6625","3.22719","25.916","4.401","7.54","0.596","26.388","0.04","0.78","29.3789","4.65516","46.7","0","SATNPRO1509","29.924","0.41912","5"],
    [25533,"HCEP03730566","2024-06-20 06:15:00","9.6618","3.22704","25.705","4.361","7.53","0.595","28.891","0.04","0.89","29.378","4.65503","46.27","0","SATNPRO1509","29.84","0.41792","5"],
    [25534,"HCEP03730566","2024-06-20 06:30:00","9.6614","3.22674","25.501","4.306","7.53","0.672","31.385","0.16","0.95","29.3754","4.65467","45.69","0","SATNPRO1509","29.508","0.41328","5"],
    [25535,"HCEP03730566","2024-06-20 06:45:00","9.6609","3.22658","25.293","4.254","7.53","0.653","32.169","0.05","0.6","29.3743","4.6545","45.14","0","SATNPRO1509","29.706","0.4161","5"],
    [25536,"HCEP03730566","2024-06-20 07:00:00","9.6642","3.22699","25.078","4.289","7.53","0.579","33.623","0.04","0.86","29.3758","4.65464","45.51","0","SATNPRO1509","30.016","0.42042","5"],
    [25537,"HCEP03730566","2024-06-20 07:15:00","9.6672","3.22747","24.879","4.42","7.53","0.573","36.041","0.05","0.37","29.3782","4.65493","46.9","0","SATNPRO1509","30.254","0.42376","5"],
    [25538,"HCEP03730566","2024-06-20 07:30:00","9.6688","3.22778","24.688","4.526","7.54","0.557","36.625","0.06","0.16","29.3801","4.65516","48.03","0","SATNPRO1509","30.376","0.42548","5"],
    [25539,"HCEP03730566","2024-06-20 07:45:00","9.6715","3.22841","24.524","4.634","7.55","0.52","36.121","0.07","0.27","29.3843","4.6557","49.18","0","SATNPRO1509","30.67","0.4296","5"],
    [25540,"HCEP03730566","2024-06-20 08:00:00","9.6697","3.2284","24.341","4.703","7.55","0.567","37.591","0.15","0.25","29.3857","4.65593","49.91","0","SATNPRO1509","30.496","0.42716","5"],
    [25541,"HCEP03730566","2024-06-20 08:15:00","9.6691","3.22839","24.176","4.691","7.56","0.526","40.197","0.04","0.54","29.3863","4.65601","49.78","0","SATNPRO1509","30.488","0.42704","5"],
    [25542,"HCEP03730566","2024-06-20 08:30:00","9.6671","3.22816","24.075","4.666","7.56","0.514","43.918","0.04","0.46","29.3856","4.65594","49.51","0","SATNPRO1509","30.454","0.42656","5"],
    [25543,"HCEP03730566","2024-06-20 08:45:00","9.6648","3.22772","24","4.608","7.56","0.496","46.561","0.03","0.67","29.3831","4.65562","48.89","0","SATNPRO1509","30.144","0.42224","5"],
    [25544,"HCEP03730566","2024-06-20 09:00:00","9.6615","3.22583","23.952","4.501","7.55","0.496","49.066","0.05","0.41","29.3668","4.65333","47.75","0","SATNPRO1509","29.824","0.41772","5"],
    [25545,"HCEP03730566","2024-06-20 09:15:00","9.6599","3.22561","23.912","4.362","7.54","0.516","42.647","0.09","0.51","29.3659","4.65324","46.28","0","SATNPRO1509","29.828","0.41778","5"],
    [25546,"HCEP03730566","2024-06-20 09:30:00","9.6617","3.22704","23.86","4.333","7.54","0.578","42.172","0.05","0.27","29.3788","4.65505","45.98","0","SATNPRO1509","30.022","0.42056","5"],
    [25547,"HCEP03730566","2024-06-20 09:45:00","9.6611","3.22717","23.929","4.363","7.54","0.589","39.139","0.05","0.25","29.3806","4.65531","46.29","0","SATNPRO1509","29.919999999999998","0.41906","5"],
    [25548,"HCEP03730566","2024-06-20 10:00:00","9.6606","3.22733","24.002","4.356","7.54","0.569","34.307","0.03","0.15","29.3826","4.65562","46.22","0","SATNPRO1509","29.738","0.41654","5"],
    [25549,"HCEP03730566","2024-06-20 10:15:00","9.6588","3.22714","24.093","4.337","7.53","0.569","26.73","0.04","0.11","29.3822","4.6556","46.02","0","SATNPRO1509","29.804000000000002","0.41742","5"],
    [25550,"HCEP03730566","2024-06-20 10:30:00","9.6577","3.22719","24.202","4.307","7.53","0.557","24.005","0.03","0.58","29.3835","4.6558","45.69","0","SATNPRO1509","29.836000000000002","0.4179","5"],
    [25551,"HCEP03730566","2024-06-20 10:45:00","9.657","3.22704","24.319","4.295","7.53","0.582","18.892","0.05","0.14","29.3824","4.65567","45.57","0","SATNPRO1509","29.808","0.41754","5"],
    [25552,"HCEP03730566","2024-06-20 11:00:00","9.6563","3.2266","24.447","4.281","7.52","0.6","14.974","0.08","0.22","29.3786","4.65514","45.42","0","SATNPRO1509","29.806","0.41748","5"],
    [25553,"HCEP03730566","2024-06-20 11:15:00","9.6559","3.22674","24.598","4.256","7.52","0.611","11.9","0.05","0.15","29.3802","4.65539","45.15","0","SATNPRO1509","29.774","0.41704","5"],
    [25554,"HCEP03730566","2024-06-20 11:30:00","9.6555","3.22644","24.756","4.235","7.52","0.628","7.929","0.04","0.18","29.3775","4.65502","44.93","0","SATNPRO1509","29.816","0.41762","5"],
    [25555,"HCEP03730566","2024-06-20 11:45:00","9.6559","3.22613","24.927","4.223","7.52","0.624","6.02","0.09","0.28","29.374","4.65452","44.8","0","SATNPRO1509","29.948","0.41948","5"],
    [25556,"HCEP03730566","2024-06-20 12:00:00","9.6619","3.22474","25.086","4.245","7.53","0.616","4.615","0.12","0.23","29.355","4.6517","45.04","0","SATNPRO1509","29.938","0.41936","5"],
    [25557,"HCEP03730566","2024-06-20 12:15:00","9.6613","3.22525","25.247","4.293","7.53","0.534","3.825","0.05","0.12","29.3606","4.65253","45.55","0","SATNPRO1509","29.96","0.41962","5"],
    [25558,"HCEP03730566","2024-06-20 12:30:00","9.6607","3.22519","25.418","4.286","7.54","0.561","3.564","0.08","0.16","29.3604","4.65251","45.46","0","SATNPRO1509","30.06","0.42104","5"],
    [25559,"HCEP03730566","2024-06-20 12:45:00","9.6612","3.22512","25.612","4.288","7.54","0.515","3.008","0.04","0.17","29.3592","4.65235","45.49","0","SATNPRO1509","30.003999999999998","0.42024","5"],
    [25560,"HCEP03730566","2024-06-20 13:00:00","9.6606","3.22508","25.817","4.294","7.54","0.619","3.09","0.46","0.13","29.3592","4.65237","45.55","0","SATNPRO1509","30.06","0.42104","5"],
    [25561,"HCEP03730566","2024-06-20 13:15:00","9.6612","3.22524","26.004","4.297","7.55","0.539","3.018","0.03","0.12","29.3603","4.65252","45.59","0","SATNPRO1509","30.064","0.42106","5"],
    [25562,"HCEP03730566","2024-06-20 13:30:00","9.6638","3.22578","26.217","4.36","7.55","0.595","3.062","0.06","0.11","29.3635","4.65296","46.26","0","SATNPRO1509","30.1","0.4216","5"],
    [25563,"HCEP03730566","2024-06-20 13:45:00","9.6648","3.22624","26.421","4.436","7.56","0.592","3.146","0.07","0.14","29.3673","4.65349","47.06","0","SATNPRO1509","30.204","0.42308","5"],
    [25564,"HCEP03730566","2024-06-20 14:00:00","9.663","3.22655","26.604","4.437","7.56","0.615","3.413","0.03","0.11","29.3717","4.65417","47.07","0","SATNPRO1509","30.092","0.4215","5"],
    [25565,"HCEP03730566","2024-06-20 14:15:00","9.6605","3.22692","26.776","4.403","7.56","0.693","3.966","0.05","0.14","29.3775","4.65504","46.71","0","SATNPRO1509","30.06","0.42102","5"],
    [25566,"HCEP03730566","2024-06-20 14:30:00","9.6579","3.22716","26.975","4.378","7.56","0.687","3.265","0.07","0.11","29.3819","4.65574","46.45","0","SATNPRO1509","30.124","0.4219","5"],
    [25567,"HCEP03730566","2024-06-20 14:45:00","9.657","3.22708","27.133","4.389","7.56","0.609","3.056","0.04","0.19","29.3817","4.65574","46.56","0","SATNPRO1509","30.346","0.42504","5"],
    [25568,"HCEP03730566","2024-06-20 15:00:00","9.655","3.2264","27.288","4.392","7.56","0.575","2.702","0.03","0.08","29.3765","4.65503","46.59","0","SATNPRO1509","30.27","0.42398","5"],
    [25569,"HCEP03730566","2024-06-20 15:15:00","9.6522","3.22599","27.408","4.302","7.56","0.605","2.918","0.04","0.09","29.3746","4.65482","45.63","0","SATNPRO1509","30.078","0.4213","5"],
    [25570,"HCEP03730566","2024-06-20 15:30:00","9.6524","3.2261","27.491","4.244","7.56","0.672","3.203","0.05","0.1","29.3755","4.65494","45.02","0","SATNPRO1509","29.87","0.41838","5"],
    [25571,"HCEP03730566","2024-06-20 15:45:00","9.6509","3.22525","27.586","4.185","7.55","0.707","3.222","0.04","0.08","29.3681","4.65392","44.4","0","SATNPRO1509","29.826","0.41778","5"],
    [25572,"HCEP03730566","2024-06-20 16:00:00","9.6501","3.22509","27.658","4.133","7.54","0.721","3.212","0.06","0.11","29.3671","4.65379","43.84","0","SATNPRO1509","29.818","0.41766","5"],
    [25573,"HCEP03730566","2024-06-20 16:15:00","9.6507","3.22519","27.698","4.112","7.54","0.74","3.324","0.07","0.28","29.3676","4.65386","43.62","0","SATNPRO1509","29.77","0.417","5"],
    [25574,"HCEP03730566","2024-06-20 16:30:00","9.6498","3.22471","27.726","4.093","7.53","0.711","3.04","0.08","0.14","29.3635","4.65329","43.41","0","SATNPRO1509","29.762","0.41684","5"],
    [25575,"HCEP03730566","2024-06-20 16:45:00","9.6499","3.22496","27.685","4.054","7.53","0.785","3.237","0.12","0.23","29.366","4.65364","43","0","SATNPRO1509","29.688","0.41582","5"],
    [25576,"HCEP03730566","2024-06-20 17:00:00","9.6512","3.22507","27.799","4.084","7.52","0.752","3.086","0.07","0.18","29.366","4.65362","43.32","0","SATNPRO1509","29.812","0.41756","5"],
    [25577,"HCEP03730566","2024-06-20 17:15:00","9.6497","3.22455","27.792","4.072","7.52","0.712","2.893","0.09","0.32","29.362","4.65307","43.19","0","SATNPRO1509","29.802","0.41742","5"],
    [25578,"HCEP03730566","2024-06-20 17:30:00","9.6491","3.22429","27.803","4.035","7.51","0.693","2.799","0.08","0.29","29.3599","4.65278","42.8","0","SATNPRO1509","29.732","0.41644","5"],
    [25579,"HCEP03730566","2024-06-20 17:45:00","9.6495","3.22438","27.804","4.009","7.51","0.741","2.791","0.26","0.29","29.3604","4.65285","42.52","0","SATNPRO1509","29.68","0.41572","5"],
    [25580,"HCEP03730566","2024-06-20 18:00:00","9.6509","3.22518","27.741","4.04","7.51","0.725","2.828","0.3","0.16","29.3673","4.65382","42.85","0","SATNPRO1509","29.838","0.41794","5"],
    [25581,"HCEP03730566","2024-06-20 18:15:00","9.6527","3.2258","27.756","4.115","7.51","0.815","3.305","0.24","0.62","29.3721","4.65447","43.65","0","SATNPRO1509","29.866","0.41832","5"],
    [25582,"HCEP03730566","2024-06-20 18:30:00","9.6551","3.22688","27.686","4.156","7.51","0.757","3.534","0.1","0.2","29.3811","4.65571","44.09","0","SATNPRO1509","29.954","0.41956","5"],
    [25583,"HCEP03730566","2024-06-20 18:45:00","9.6566","3.22688","27.621","4.212","7.51","0.798","3.891","0.1","0.16","29.3799","4.6555","44.68","0","SATNPRO1509","29.968","0.41974","5"],
    [25584,"HCEP03730566","2024-06-20 19:00:00","9.6573","3.22698","27.553","4.224","7.52","0.852","4.246","0.08","0.25","29.3803","4.65556","44.81","0","SATNPRO1509","29.81","0.41754","5"],
    [25585,"HCEP03730566","2024-06-20 19:15:00","9.6567","3.22679","27.515","4.223","7.53","0.805","4.238","0.07","0.15","29.3789","4.65536","44.8","0","SATNPRO1509","29.808","0.4175","5"],
    [25586,"HCEP03730566","2024-06-20 19:30:00","9.6557","3.2265","27.449","4.221","7.53","0.779","3.715","0.26","0.42","29.3769","4.65509","44.78","0","SATNPRO1509","30.006","0.42028","5"],
    [25587,"HCEP03730566","2024-06-20 19:45:00","9.6558","3.22658","27.403","4.236","7.54","0.74","3.498","0.12","0.22","29.3776","4.65517","44.93","0","SATNPRO1509","29.934","0.41924","5"],
    [25588,"HCEP03730566","2024-06-20 20:00:00","9.6566","3.22657","27.338","4.239","7.54","0.746","3.624","0.13","0.17","29.3769","4.65506","44.97","0","SATNPRO1509","30.074","0.42124","5"],
    [25589,"HCEP03730566","2024-06-20 20:15:00","9.6581","3.22632","27.273","4.251","7.54","0.737","3.425","0.1","0.09","29.3732","4.6545","45.09","0","SATNPRO1509","29.97","0.41976","5"],
    [25590,"HCEP03730566","2024-06-20 20:30:00","9.66","3.22595","27.214","4.263","7.54","0.735","3.164","0.13","0.15","29.3679","4.6537","45.23","0","SATNPRO1509","29.948","0.41944","5"],
    [25591,"HCEP03730566","2024-06-20 20:45:00","9.66","3.22619","27.143","4.247","7.54","0.765","3.764","0.11","0.11","29.3704","4.65406","45.06","0","SATNPRO1509","30.01","0.42034","5"],
    [25592,"HCEP03730566","2024-06-20 21:00:00","9.6605","3.22609","27.071","4.228","7.54","0.681","3.688","0.07","0.19","29.3689","4.65384","44.86","0","SATNPRO1509","29.95","0.41948","5"],
    [25593,"HCEP03730566","2024-06-20 21:15:00","9.6611","3.22619","27.022","4.214","7.54","0.761","4.207","0.09","0.19","29.3696","4.65392","44.71","0","SATNPRO1509","29.78","0.41714","5"],
    [25594,"HCEP03730566","2024-06-20 21:30:00","9.6609","3.22646","26.95","4.208","7.54","0.778","4.525","0.07","0.18","29.3725","4.65433","44.65","0","SATNPRO1509","29.842","0.418","5"],
    [25595,"HCEP03730566","2024-06-20 21:45:00","9.6608","3.22652","26.929","4.215","7.54","0.71","4.12","0.03","0.11","29.3731","4.65442","44.72","0","SATNPRO1509","29.846","0.41806","5"],
    [25596,"HCEP03730566","2024-06-20 22:00:00","9.6601","3.22666","26.863","4.222","7.54","0.743","4.202","0.08","0.1","29.3752","4.65472","44.79","0","SATNPRO1509","29.898","0.41878","5"],
    [25597,"HCEP03730566","2024-06-20 22:15:00","9.6595","3.22702","26.881","4.202","7.54","0.79","4.573","0.06","0.13","29.3792","4.65531","44.58","0","SATNPRO1509","29.748","0.41668","5"],
    [25598,"HCEP03730566","2024-06-20 22:30:00","9.6597","3.22727","26.876","4.17","7.54","0.804","4.382","0.21","0.12","29.3816","4.65566","44.24","0","SATNPRO1509","29.576","0.41424","5"],
    [25599,"HCEP03730566","2024-06-20 22:45:00","9.6598","3.22751","26.9","4.163","7.54","0.775","4.183","0.07","0.08","29.3839","4.65598","44.17","0","SATNPRO1509","29.596","0.41456","5"],
    [25600,"HCEP03730566","2024-06-20 23:00:00","9.6602","3.22755","26.906","4.17","7.54","0.733","4.069","0.06","0.17","29.384","4.65599","44.24","0","SATNPRO1509","29.628","0.41498","5"],
    [25601,"HCEP03730566","2024-06-20 23:15:00","9.6604","3.22754","26.944","4.181","7.54","0.743","4.192","0.04","0.09","29.3837","4.65595","44.37","0","SATNPRO1509","29.6","0.41462","5"],
    [25602,"HCEP03730566","2024-06-20 23:30:00","9.6606","3.2276","26.997","4.177","7.54","0.788","4.183","0.05","0.16","29.3841","4.656","44.32","0","SATNPRO1509","29.566","0.4141","5"],
    [25603,"HCEP03730566","2024-06-20 23:45:00","9.6645","3.22737","27.041","4.195","7.54","0.759","3.782","0.04","0.12","29.3785","4.65514","44.52","0","SATNPRO1509","29.782","0.41716","5"],
    [25604,"HCEP03730566","2024-06-21 00:00:00","9.6703","3.22709","27.089","4.265","7.54","0.782","3.647","0.07","0.13","29.371","4.65396","45.26","0","SATNPRO1509","29.868","0.41834","5"],
    [25605,"HCEP03730566","2024-06-21 00:15:00","9.6703","3.22708","27.136","4.28","7.55","0.812","3.621","0.04","0.17","29.371","4.65396","45.41","0","SATNPRO1509","29.808","0.4175","5"],
    [25606,"HCEP03730566","2024-06-21 00:30:00","9.6707","3.227","27.176","4.256","7.55","0.895","4.068","0.26","0.32","29.3697","4.65378","45.17","0","SATNPRO1509","29.742","0.41662","5"],
    [25607,"HCEP03730566","2024-06-21 00:45:00","9.6727","3.22682","27.22","4.242","7.55","0.814","3.888","0.04","0.2","29.3663","4.65325","45.01","0","SATNPRO1509","29.701999999999998","0.41606","5"],
    [25608,"HCEP03730566","2024-06-21 01:00:00","9.6699","3.22687","27.264","4.229","7.55","0.755","4.544","0.02","0.2","29.3691","4.65371","44.87","0","SATNPRO1509","29.538","0.41374","5"],
    [25609,"HCEP03730566","2024-06-21 01:15:00","9.6713","3.22686","27.307","4.209","7.54","0.676","4.707","0.01","0.34","29.3679","4.65351","44.66","0","SATNPRO1509","29.566","0.4141","5"],
    [25610,"HCEP03730566","2024-06-21 01:30:00","9.6731","3.22686","27.367","4.228","7.54","0.598","4.515","0.01","0.43","29.3664","4.65327","44.86","0","SATNPRO1509","29.522","0.41352","5"],
    [25611,"HCEP03730566","2024-06-21 01:45:00","9.6768","3.22682","27.417","4.284","7.55","0.489","4.303","0.01","0.18","29.3629","4.6527","45.47","0","SATNPRO1509","30.072","0.4212","5"],
    [25612,"HCEP03730566","2024-06-21 02:00:00","9.6738","3.22687","27.448","4.289","7.54","0.387","5.467","0.01","0.26","29.3658","4.65318","45.52","0","SATNPRO1509","29.68","0.41572","5"],
    [25613,"HCEP03730566","2024-06-21 02:15:00","9.6753","3.22711","27.473","4.285","7.54","0.282","6.719","0.01","0.25","29.3671","4.65334","45.48","0","SATNPRO1509","29.936","0.41934","5"],
    [25614,"HCEP03730566","2024-06-21 02:30:00","9.6769","3.22719","27.498","4.327","7.54","0.195","10.572","0","0.58","29.3665","4.65323","45.92","0","SATNPRO1509","30.112000000000002","0.42176","5"],
    [25615,"HCEP03730566","2024-06-21 02:45:00","9.6772","3.22725","27.517","4.367","7.54","0.141","17.755","0.01","0.41","29.3668","4.65327","46.35","0","SATNPRO1509","30.002000000000002","0.42022","5"],
    [25616,"HCEP03730566","2024-06-21 03:00:00","9.6778","3.22713","27.553","4.386","7.54","0.119","30.952","0.01","0.53","29.3651","4.65302","46.55","0","SATNPRO1509","30.04","0.42074","5"],
    [25617,"HCEP03730566","2024-06-21 03:15:00","9.6785","3.22742","27.541","4.394","7.54","0.113","51.036","0.01","0.31","29.3674","4.65334","46.64","0","SATNPRO1509","30.092","0.42144","5"],
    [25618,"HCEP03730566","2024-06-21 03:30:00","9.6786","3.228","27.499","4.459","7.54","0.128","77.664","0.01","0.47","29.3733","4.65417","47.32","0","SATNPRO1509","30.26","0.42386","5"],
    [25619,"HCEP03730566","2024-06-21 03:45:00","9.6787","3.22819","27.459","4.511","7.54","0.162","102.244","0.03","0.61","29.3751","4.65442","47.88","0","SATNPRO1509","30.234","0.42346","5"],
    [25620,"HCEP03730566","2024-06-21 04:00:00","9.6782","3.2284","27.416","4.525","7.54","0.193","122.55","0.02","0.26","29.3776","4.65479","48.03","0","SATNPRO1509","30.322","0.42472","5"],
    [25621,"HCEP03730566","2024-06-21 04:15:00","9.6778","3.22827","27.351","4.524","7.54","0.221","131.781","0.03","0.19","29.3767","4.65467","48.01","0","SATNPRO1509","30.206","0.4231","5"],
    [25622,"HCEP03730566","2024-06-21 04:30:00","9.6777","3.22846","27.274","4.511","7.54","0.236","132.925","0.03","0.08","29.3787","4.65495","47.88","0","SATNPRO1509","30.106","0.4217","5"],
    [25623,"HCEP03730566","2024-06-21 04:45:00","9.6777","3.22846","27.168","4.506","7.54","0.297","129.545","0.06","0","29.3787","4.65495","47.83","0","SATNPRO1509","30.108","0.4217","5"],
    [25624,"HCEP03730566","2024-06-21 05:00:00","9.6776","3.22852","27.043","4.498","7.54","0.321","126.259","0.04","0.1","29.3796","4.65506","47.74","0","SATNPRO1509","29.876","0.4185","5"],
    [25625,"HCEP03730566","2024-06-21 05:15:00","9.6778","3.22851","26.905","4.486","7.54","0.336","124.015","0.04","0.11","29.3793","4.65501","47.61","0","SATNPRO1509","30.516","0.42738","5"],
    [25626,"HCEP03730566","2024-06-21 05:30:00","9.6772","3.22856","26.736","4.474","7.54","0.318","118.904","0.04","0","29.3803","4.65516","47.49","0","SATNPRO1509","30.142","0.42218","5"],
    [25627,"HCEP03730566","2024-06-21 05:45:00","9.6761","3.23043","26.561","4.504","7.54","0.34","98.348","0.06","0.03","29.4001","4.658","47.81","0","SATNPRO1509","30.262","0.42388","5"],
    [25628,"HCEP03730566","2024-06-21 06:00:00","9.6768","3.23158","26.35","4.591","7.55","0.324","66.043","0.05","0.03","29.4113","4.65957","48.74","0","SATNPRO1509","30.286","0.42422","5"],
    [25629,"HCEP03730566","2024-06-21 06:15:00","9.6779","3.23191","26.155","4.671","7.56","0.266","37.774","0.04","0.02","29.4138","4.6599","49.59","0","SATNPRO1509","30.564","0.4281","5"],
    [25630,"HCEP03730566","2024-06-21 06:30:00","9.677","3.23134","25.948","4.709","7.56","0.262","14.032","0.05","0.03","29.4088","4.65919","49.99","0","SATNPRO1509","30.41","0.42592","5"],
    [25631,"HCEP03730566","2024-06-21 06:45:00","9.6768","3.23121","25.734","4.687","7.56","0.25","2.42","0.06","0.02","29.4078","4.65904","49.75","0","SATNPRO1509","30.368","0.42538","5"],
    [25632,"HCEP03730566","2024-06-21 07:00:00","9.677","3.23131","25.518","4.681","7.56","0.192","0.402","0.02","0.02","29.4087","4.65916","49.7","0","SATNPRO1509","30.356","0.42516","5"],
    [25633,"HCEP03730566","2024-06-21 07:15:00","9.6763","3.23029","25.288","4.658","7.56","0.195","0.319","0.1","0.02","29.3991","4.65778","49.44","0","SATNPRO1509","30.234","0.42346","5"],
    [25634,"HCEP03730566","2024-06-21 07:30:00","9.6768","3.22957","25.074","4.586","7.56","0.152","0.321","0.01","0.01","29.3915","4.65668","48.67","0","SATNPRO1509","30.076","0.42124","5"],
    [25635,"HCEP03730566","2024-06-21 07:45:00","9.6765","3.22926","24.862","4.525","7.55","0.134","0.345","0.01","0.01","29.3887","4.65626","48.03","0","SATNPRO1509","30.073999999999998","0.4212","5"],
    [25636,"HCEP03730566","2024-06-21 08:00:00","9.6755","3.22926","24.648","4.503","7.55","0.122","0.477","0.01","0.02","29.3896","4.65639","47.8","0","SATNPRO1509","30.188","0.42284","5"],
    [25637,"HCEP03730566","2024-06-21 08:15:00","9.6751","3.2293","24.445","4.498","7.55","0.12","0.639","0.01","0.05","29.3904","4.65651","47.74","0","SATNPRO1509","30.172","0.42262","5"],
    [25638,"HCEP03730566","2024-06-21 08:30:00","9.6751","3.22944","24.256","4.509","7.55","0.109","0.659","0.01","0.03","29.3919","4.65671","47.86","0","SATNPRO1509","30.302","0.42444","5"],
    [25639,"HCEP03730566","2024-06-21 08:45:00","9.675","3.22949","24.091","4.519","7.55","0.118","0.77","0.02","0.16","29.3925","4.6568","47.97","0","SATNPRO1509","30.176","0.42264","5"],
    [25640,"HCEP03730566","2024-06-21 09:00:00","9.675","3.22954","23.954","4.515","7.55","0.132","0.674","0.04","0.02","29.3931","4.65686","47.93","0","SATNPRO1509","30.204","0.42306","5"],
    [25641,"HCEP03730566","2024-06-21 09:15:00","9.6747","3.22955","23.804","4.516","7.55","0.138","0.834","0.02","0.07","29.3935","4.65692","47.94","0","SATNPRO1509","30.146","0.42226","5"],
    [25642,"HCEP03730566","2024-06-21 09:30:00","9.6748","3.22955","23.711","4.516","7.55","0.184","0.861","0.08","0.09","29.3935","4.65691","47.94","0","SATNPRO1509","30.252","0.42376","5"],
    [25643,"HCEP03730566","2024-06-21 09:45:00","9.6747","3.22956","23.647","4.509","7.55","0.192","0.808","0.05","0.06","29.3937","4.65693","47.86","0","SATNPRO1509","30.052","0.42094","5"],
    [25644,"HCEP03730566","2024-06-21 10:00:00","9.6747","3.22955","23.622","4.505","7.55","0.181","0.696","0.02","0.06","29.3936","4.65692","47.81","0","SATNPRO1509","30.148","0.42228","5"],
    [25645,"HCEP03730566","2024-06-21 10:15:00","9.6757","3.22941","23.641","4.518","7.55","0.282","1.139","0.17","0.3","29.3914","4.6566","47.96","0","SATNPRO1509","30.398","0.42576","5"],
    [25646,"HCEP03730566","2024-06-21 10:30:00","9.6786","3.22946","23.717","4.578","7.55","0.22","1.116","0.03","0.09","29.3895","4.65627","48.59","0","SATNPRO1509","30.644000000000002","0.42922","5"],
    [25647,"HCEP03730566","2024-06-21 10:45:00","9.6802","3.22925","23.906","4.632","7.56","0.249","1.186","0.03","0.12","29.386","4.65575","49.16","0","SATNPRO1509","30.534","0.42768","5"],
    [25648,"HCEP03730566","2024-06-21 11:00:00","9.6766","3.22911","23.999","4.624","7.55","0.332","1.771","0.04","0.12","29.3875","4.65604","49.08","0","SATNPRO1509","30.282","0.42414","5"],
    [25649,"HCEP03730566","2024-06-21 11:15:00","9.6763","3.22907","24.117","4.549","7.55","0.374","2.086","0.05","0.25","29.3872","4.65601","48.28","0","SATNPRO1509","30.316","0.4246","5"],
    [25650,"HCEP03730566","2024-06-21 11:30:00","9.6763","3.22925","24.272","4.511","7.56","0.493","2.895","0.09","0.18","29.389","4.65627","47.88","0","SATNPRO1509","30.125999999999998","0.42196","5"],
    [25651,"NA","2024-06-21 11:45:00",null,null,null,null,null,null,null,null,null,null,null,null,null,"SATNPRO1509","30.218","0.42326","5"],
    [25652,"HCEP03730566","2024-06-21 11:45:01","9.6776","3.2293","24.395","4.522","7.56","0.459","2.269","0.09","0.12","29.3884","4.65617","48","0","NA",null,null,null],
    [25653,"HCEP03730566","2024-06-21 12:00:00","9.677","3.22938","24.577","4.563","7.56","0.523","2.611","0.09","0.11","29.3896","4.65637","48.44","0","SATNPRO1509","30.27","0.42404","5"],
    [25654,"HCEP03730566","2024-06-21 12:15:00","9.6749","3.22911","24.763","4.509","7.56","0.66","3.601","0.1","0.29","29.3886","4.65628","47.86","0","SATNPRO1509","30.064","0.4211","5"],
    [25655,"HCEP03730566","2024-06-21 12:30:00","9.6731","3.2292","24.897","4.441","7.56","0.604","3.188","0.07","0.15","29.3909","4.65663","47.13","0","SATNPRO1509","30.106","0.4217","5"],
    [25656,"HCEP03730566","2024-06-21 12:45:00","9.6731","3.2292","25.13","4.431","7.56","0.675","3.722","0.1","0.34","29.3908","4.65664","47.03","0","SATNPRO1509","29.994","0.42016","5"],
    [25657,"HCEP03730566","2024-06-21 13:00:00","9.6715","3.22891","25.307","4.386","7.56","0.717","4.133","0.06","0.17","29.389","4.65642","46.55","0","SATNPRO1509","29.934","0.41928","5"],
    [25658,"HCEP03730566","2024-06-21 13:15:00","9.6711","3.22874","25.494","4.357","7.56","0.701","3.876","0.09","0.16","29.3877","4.65624","46.24","0","SATNPRO1509","29.998","0.42016","5"],
    [25659,"HCEP03730566","2024-06-21 13:30:00","9.6749","3.22816","25.678","4.365","7.56","0.681","3.593","0.04","0.13","29.3786","4.65489","46.33","0","SATNPRO1509","29.942","0.4194","5"],
    [25660,"HCEP03730566","2024-06-21 13:45:00","9.6753","3.22804","25.903","4.359","7.56","0.689","3.661","0.05","0.15","29.377","4.65467","46.26","0","SATNPRO1509","29.855999999999998","0.41812","5"],
    [25661,"HCEP03730566","2024-06-21 14:00:00","9.6758","3.22777","26.103","4.338","7.56","0.715","3.841","0.08","0.16","29.3738","4.65421","46.04","0","SATNPRO1509","29.916","0.41902","5"],
    [25662,"HCEP03730566","2024-06-21 14:15:00","9.6776","3.22731","26.332","4.355","7.57","0.672","3.682","0.04","0.22","29.3676","4.6533","46.22","0","SATNPRO1509","29.856","0.41818","5"],
    [25663,"HCEP03730566","2024-06-21 14:30:00","9.6765","3.22755","26.566","4.331","7.56","0.698","4.132","0.04","0.1","29.3708","4.65379","45.97","0","SATNPRO1509","29.948","0.41942","5"],
    [25664,"HCEP03730566","2024-06-21 14:45:00","9.6744","3.22798","26.822","4.294","7.56","0.723","4.387","0.04","0.11","29.3768","4.65471","45.57","0","SATNPRO1509","29.872","0.4184","5"],
    [25665,"HCEP03730566","2024-06-21 15:00:00","9.6742","3.22823","26.937","4.296","7.56","0.713","4.193","0.04","0.12","29.3794","4.65509","45.59","0","SATNPRO1509","29.86","0.41824","5"],
    [25666,"HCEP03730566","2024-06-21 15:15:00","9.673","3.22852","27.118","4.32","7.56","0.716","4.146","0.05","0.17","29.3832","4.65567","45.85","0","SATNPRO1509","30.02","0.42046","5"],
    [25667,"HCEP03730566","2024-06-21 15:30:00","9.6729","3.2286","27.29","4.327","7.56","0.735","3.847","0.13","0.13","29.384","4.6558","45.93","0","SATNPRO1509","29.912","0.41894","5"],
    [25668,"HCEP03730566","2024-06-21 15:45:00","9.6721","3.22855","27.461","4.316","7.56","0.689","3.77","0.03","0.11","29.3841","4.65583","45.8","0","SATNPRO1509","29.82","0.41768","5"],
    [25669,"HCEP03730566","2024-06-21 16:00:00","9.6724","3.22876","27.56","4.309","7.56","0.721","3.951","0.04","0.11","29.386","4.6561","45.73","0","SATNPRO1509","29.822","0.4177","5"],
    [25670,"HCEP03730566","2024-06-21 16:15:00","9.6722","3.2288","27.686","4.307","7.56","0.727","3.858","0.04","0.1","29.3865","4.65618","45.71","0","SATNPRO1509","29.912","0.41898","5"],
    [25671,"HCEP03730566","2024-06-21 16:30:00","9.6719","3.22876","27.777","4.289","7.56","0.75","4.047","0.04","0.11","29.3863","4.65616","45.52","0","SATNPRO1509","29.854","0.41816","5"],
    [25672,"HCEP03730566","2024-06-21 16:45:00","9.6718","3.22868","27.84","4.271","7.55","0.799","4.057","0.1","0.1","29.3856","4.65607","45.32","0","SATNPRO1509","29.882","0.4186","5"],
    [25673,"HCEP03730566","2024-06-21 17:00:00","9.6703","3.22837","27.898","4.245","7.55","0.754","3.764","0.05","0.12","29.3836","4.65582","45.05","0","SATNPRO1509","29.838","0.41794","5"],
    [25674,"HCEP03730566","2024-06-21 17:15:00","9.6698","3.22817","27.876","4.224","7.55","0.766","3.697","0.09","0.22","29.382","4.65559","44.83","0","SATNPRO1509","29.782","0.41716","5"],
    [25675,"HCEP03730566","2024-06-21 17:30:00","9.6698","3.22796","27.852","4.209","7.54","0.778","3.554","0.11","0.35","29.3799","4.65529","44.66","0","SATNPRO1509","29.84","0.41794","5"],
    [25676,"HCEP03730566","2024-06-21 17:45:00","9.6682","3.22762","27.953","4.195","7.53","0.657","3.136","0.06","0.12","29.3777","4.65501","44.51","0","SATNPRO1509","29.816","0.41762","5"],
    [25677,"HCEP03730566","2024-06-21 18:00:00","9.6676","3.2275","27.964","4.183","7.53","0.633","3.039","0.03","0.09","29.377","4.65492","44.38","0","SATNPRO1509","29.864","0.4183","5"],
    [25678,"HCEP03730566","2024-06-21 18:15:00","9.6676","3.22747","27.91","4.182","7.53","0.628","3.081","0.05","0.06","29.3768","4.65489","44.37","0","SATNPRO1509","30.056","0.42096","5"],
    [25679,"HCEP03730566","2024-06-21 18:30:00","9.6687","3.22768","27.959","4.193","7.54","0.638","3.133","0.04","0.06","29.3779","4.65503","44.49","0","SATNPRO1509","29.922","0.41914","5"],
    [25680,"HCEP03730566","2024-06-21 18:45:00","9.6685","3.22766","27.902","4.192","7.54","0.592","2.88","0.05","0.07","29.3779","4.65503","44.48","0","SATNPRO1509","29.956","0.41958","5"],
    [25681,"HCEP03730566","2024-06-21 19:00:00","9.6675","3.22746","27.852","4.193","7.54","0.574","2.758","0.05","0.05","29.3767","4.65488","44.49","0","SATNPRO1509","29.948","0.4195","5"],
    [25682,"HCEP03730566","2024-06-21 19:15:00","9.6693","3.22786","27.795","4.207","7.55","0.646","3.215","0.05","0.08","29.3794","4.65522","44.64","0","SATNPRO1509","29.95","0.41952","5"],
    [25683,"HCEP03730566","2024-06-21 19:30:00","9.6692","3.22772","27.696","4.213","7.55","0.56","2.703","0.03","0.07","29.378","4.65502","44.71","0","SATNPRO1509","30.006","0.42024","5"],
    [25684,"HCEP03730566","2024-06-21 19:45:00","9.6697","3.22788","27.605","4.231","7.55","0.584","2.891","0.04","0.1","29.3792","4.65518","44.9","0","SATNPRO1509","30.03","0.42062","5"],
    [25685,"HCEP03730566","2024-06-21 20:00:00","9.671","3.22793","27.582","4.25","7.55","0.517","2.708","0.03","0.1","29.3787","4.65508","45.11","0","SATNPRO1509","30.196","0.42294","5"],
    [25686,"HCEP03730566","2024-06-21 20:15:00","9.673400000000001","3.22809","27.569","4.298","7.56","0.569","3.012","0.03","0.09","29.3784","4.65499","45.62","0","SATNPRO1509","30.196","0.42292","5"],
    [25687,"HCEP03730566","2024-06-21 20:30:00","9.6745","3.22893","27.502","4.317","7.56","0.658","4.336","0.04","0.2","29.386","4.65607","45.82","0","SATNPRO1509","29.908","0.41894","5"],
    [25688,"HCEP03730566","2024-06-21 20:45:00","9.6746","3.22991","27.373","4.295","7.56","0.712","5.036","0.03","0.1","29.3958","4.65746","45.59","0","SATNPRO1509","29.83","0.41782","5"],
    [25689,"HCEP03730566","2024-06-21 21:00:00","9.6754","3.23047","27.293","4.293","7.56","0.726","5.243","0.05","0.18","29.4008","4.65816","45.57","0","SATNPRO1509","29.836","0.41788","5"],
    [25690,"HCEP03730566","2024-06-21 21:15:00","9.6758","3.23054","27.265","4.305","7.57","0.722","5.029","0.05","0.12","29.4012","4.65821","45.7","0","SATNPRO1509","29.824","0.41774","5"],
    [25691,"HCEP03730566","2024-06-21 21:30:00","9.6763","3.23076","27.182","4.322","7.57","0.71","5.071","0.05","0.15","29.403","4.65845","45.88","0","SATNPRO1509","29.78","0.41712","5"],
    [25692,"HCEP03730566","2024-06-21 21:45:00","9.6769","3.23054","27.121","4.354","7.57","0.66","4.432","0.04","0.15","29.4003","4.65805","46.22","0","SATNPRO1509","29.892","0.4187","5"],
    [25693,"HCEP03730566","2024-06-21 22:00:00","9.6802","3.22764","27.055","4.37","7.57","0.517","3.123","0.04","0.09","29.3685","4.65343","46.38","0","SATNPRO1509","30.03","0.4206","5"],
    [25694,"HCEP03730566","2024-06-21 22:15:00","9.6776","3.23016","27.046","4.373","7.57","0.566","4.038","0.03","0.1","29.396","4.65742","46.42","0","SATNPRO1509","29.878","0.41854","5"],
    [25695,"HCEP03730566","2024-06-21 22:30:00","9.6778","3.22965","26.955","4.354","7.57","0.555","4.309","0.04","0.11","29.3908","4.65665","46.22","0","SATNPRO1509","29.948","0.41944","5"],
    [25696,"HCEP03730566","2024-06-21 22:45:00","9.6789","3.2292","26.973","4.319","7.57","0.523","4.333","0.03","0.1","29.3853","4.65586","45.84","0","SATNPRO1509","29.918","0.41904","5"],
    [25697,"HCEP03730566","2024-06-21 23:00:00","9.679","3.22926","26.915","4.301","7.56","0.518","4.512","0.03","0.13","29.3858","4.65592","45.65","0","SATNPRO1509","29.924","0.41914","5"],
    [25698,"HCEP03730566","2024-06-21 23:15:00","9.6796","3.22962","26.956","4.304","7.56","0.522","4.669","0.05","0.1","29.389","4.65638","45.68","0","SATNPRO1509","29.823999999999998","0.4177","5"],
    [25699,"HCEP03730566","2024-06-21 23:30:00","9.6812","3.22984","26.933","4.312","7.56","0.488","4.369","0.03","0.09","29.3899","4.65648","45.78","0","SATNPRO1509","29.798","0.41732","5"],
    [25700,"HCEP03730566","2024-06-21 23:45:00","9.6814","3.23012","26.976","4.357","7.56","0.494","4.309","0.06","0.22","29.3926","4.65685","46.25","0","SATNPRO1509","29.944","0.4194","5"],
    [25701,"HCEP03730566","2024-06-22 00:00:00","9.6828","3.2304","27.011","4.382","7.56","0.462","3.821","0.03","0.09","29.3942","4.65706","46.52","0","SATNPRO1509","29.944","0.41942","5"],
    [25702,"HCEP03730566","2024-06-22 00:15:00","9.6856","3.23021","27.057","4.429","7.57","0.463","4.022","0.03","0.19","29.39","4.65642","47.03","0","SATNPRO1509","29.974","0.41984","5"],
    [25703,"HCEP03730566","2024-06-22 00:30:00","9.6855","3.23076","27.096","4.451","7.57","0.444","4.47","0.02","0.13","29.3956","4.65723","47.25","0","SATNPRO1509","30.348","0.4251","5"],
    [25704,"HCEP03730566","2024-06-22 00:45:00","9.6869","3.23113","27.136","4.511","7.57","0.432","5.998","0.03","0.17","29.3981","4.65757","47.9","0","SATNPRO1509","30.546","0.42782","5"],
    [25705,"HCEP03730566","2024-06-22 01:00:00","9.6893","3.23125","27.189","4.656","7.58","0.425","8.727","0.07","0.08","29.3974","4.65742","49.44","0","SATNPRO1509","30.634","0.42912","5"],
    [25706,"HCEP03730566","2024-06-22 01:15:00","9.6884","3.23154","27.247","4.665","7.59","0.384","17.039","0.02","0.06","29.4009","4.65795","49.54","0","SATNPRO1509","30.584","0.4284","5"],
    [25707,"HCEP03730566","2024-06-22 01:30:00","9.6878","3.23148","27.344","4.645","7.59","0.415","24.993","0.02","0.31","29.4009","4.65795","49.32","0","SATNPRO1509","30.468","0.42678","5"],
    [25708,"HCEP03730566","2024-06-22 01:45:00","9.6868","3.23161","27.353","4.569","7.59","0.446","28.868","0.03","0.28","29.403","4.65827","48.51","0","SATNPRO1509","30.246","0.42366","5"],
    [25709,"HCEP03730566","2024-06-22 02:00:00","9.6873","3.23175","27.45","4.559","7.59","0.436","29.136","0.03","0.24","29.4039","4.6584","48.41","0","SATNPRO1509","30.068","0.42114","5"],
    [25710,"HCEP03730566","2024-06-22 02:15:00","9.6868","3.23196","27.459","4.521","7.59","0.48","29.472","0.03","0.18","29.4064","4.65877","48.01","0","SATNPRO1509","30.018","0.42046","5"],
    [25711,"HCEP03730566","2024-06-22 02:30:00","9.6877","3.23225","27.545","4.554","7.59","0.451","28.221","0.03","0.13","29.4086","4.65907","48.35","0","SATNPRO1509","30.122","0.42192","5"],
    [25712,"HCEP03730566","2024-06-22 02:45:00","9.6878","3.23253","27.545","4.603","7.59","0.456","26.468","0.04","0.21","29.4113","4.65946","48.88","0","SATNPRO1509","30.118000000000002","0.42186","5"],
    [25713,"HCEP03730566","2024-06-22 03:00:00","9.6864","3.23353","27.593","4.613","7.59","0.438","23.986","0.02","0.15","29.4226","4.6611","48.99","0","SATNPRO1509","30.192","0.4229","5"],
    [25714,"HCEP03730566","2024-06-22 03:15:00","9.6869","3.23392","27.598","4.639","7.6","0.48","22.484","0.03","0.3","29.4261","4.66159","49.26","0","SATNPRO1509","30.206","0.42308","5"],
    [25715,"HCEP03730566","2024-06-22 03:30:00","9.6872","3.23395","27.614","4.64","7.6","0.461","22.61","0.03","0.22","29.4261","4.66158","49.27","0","SATNPRO1509","30.268","0.42392","5"],
    [25716,"HCEP03730566","2024-06-22 03:45:00","9.6881","3.23392","27.612","4.67","7.6","0.435","23.868","0.04","0.52","29.4251","4.66143","49.59","0","SATNPRO1509","30.316","0.42464","5"],
    [25717,"HCEP03730566","2024-06-22 04:00:00","9.6883","3.23406","27.583","4.668","7.6","0.453","23.545","0.05","0.07","29.4264","4.6616","49.57","0","SATNPRO1509","30.244","0.42364","5"],
    [25718,"HCEP03730566","2024-06-22 04:15:00","9.6925","3.23452","27.58","4.766","7.6","0.417","23.478","0.04","0.05","29.4275","4.6617","50.62","0","SATNPRO1509","30.906","0.4329","5"],
    [25719,"HCEP03730566","2024-06-22 04:30:00","9.6979","3.2347","27.529","4.952","7.61","0.441","25.971","0.05","0.73","29.4249","4.66123","52.6","0","SATNPRO1509","31.254","0.4378","5"],
    [25720,"HCEP03730566","2024-06-22 04:45:00","9.6919","3.23441","27.467","4.926","7.62","0.604","37.976","0.2","23.78","29.4269","4.66162","52.32","0","SATNPRO1509","30.836","0.4319","5"],
    [25721,"HCEP03730566","2024-06-22 05:00:00","9.691","3.23446","27.404","4.827","7.61","0.476","26.021","0.06","0.7","29.4282","4.66181","51.27","0","SATNPRO1509","30.594","0.42852","5"],
    [25722,"HCEP03730566","2024-06-22 05:15:00","9.693","3.23397","27.318","4.813","7.61","0.496","25.103","0.04","0.24","29.4216","4.66083","51.12","0","SATNPRO1509","30.786","0.4312","5"],
    [25723,"HCEP03730566","2024-06-22 05:30:00","9.6928","3.2338","27.2","4.814","7.6","0.476","23.772","0.03","0.47","29.4202","4.66062","51.13","0","SATNPRO1509","30.642","0.42918","5"],
    [25724,"HCEP03730566","2024-06-22 05:45:00","9.6925","3.23393","27.061","4.796","7.6","0.603","25.407","0.12","2.14","29.4218","4.66085","50.93","0","SATNPRO1509","30.482","0.42698","5"],
    [25725,"HCEP03730566","2024-06-22 06:00:00","9.6918","3.2341","26.899","4.78","7.59","0.468","17.134","0.04","0.67","29.4241","4.66119","50.77","0","SATNPRO1509","30.492","0.42706","5"],
    [25726,"HCEP03730566","2024-06-22 06:15:00","9.6926","3.23398","26.719","4.778","7.59","0.468","13.865","0.05","1.03","29.4224","4.66092","50.74","0","SATNPRO1509","30.624","0.42892","5"],
    [25727,"HCEP03730566","2024-06-22 06:30:00","9.6928","3.23403","26.531","4.792","7.58","0.475","15.883","0.05","0.5","29.4228","4.66095","50.89","0","SATNPRO1509","30.68","0.4297","5"],
    [25728,"HCEP03730566","2024-06-22 06:45:00","9.6937","3.23412","26.322","4.815","7.58","0.442","19.689","0.05","0.28","29.423","4.66096","51.14","0","SATNPRO1509","30.914","0.433","5"],
    [25729,"HCEP03730566","2024-06-22 07:00:00","9.6949","3.23406","26.094","4.846","7.58","0.433","20.97","0.04","0.14","29.4215","4.66071","51.47","0","SATNPRO1509","30.894000000000002","0.43274","5"],
    [25730,"HCEP03730566","2024-06-22 07:15:00","9.6947","3.23402","25.916","4.863","7.59","0.52","23.001","0.58","0.2","29.4214","4.66068","51.65","0","SATNPRO1509","31.038","0.43478","5"],
    [25731,"HCEP03730566","2024-06-22 07:30:00","9.6972","3.23382","25.656","4.901","7.59","0.426","23.771","0.07","0.41","29.4174","4.66006","52.05","0","SATNPRO1509","31.104","0.43566","5"],
    [25732,"HCEP03730566","2024-06-22 07:45:00","9.6957","3.2342","25.407","4.914","7.6","0.53","23.201","0.1","0.31","29.4225","4.6608","52.2","0","SATNPRO1509","30.91","0.43296","5"],
    [25733,"HCEP03730566","2024-06-22 08:00:00","9.6975","3.23417","25.178","4.897","7.59","0.47","21.466","0.07","0.08","29.4208","4.66051","52.01","0","SATNPRO1509","31.259999999999998","0.4378","5"],
    [25734,"HCEP03730566","2024-06-22 08:15:00","9.6979","3.2346","24.951","4.905","7.59","0.513","20.811","0.09","0.22","29.425","4.66109","52.1","0","SATNPRO1509","30.836","0.43188","5"],
    [25735,"HCEP03730566","2024-06-22 08:30:00","9.6947","3.23466","24.749","4.868","7.59","0.513","23.748","0.06","0.31","29.4282","4.6616","51.71","0","SATNPRO1509","30.55","0.4279","5"],
    [25736,"HCEP03730566","2024-06-22 08:45:00","9.6945","3.23488","24.506","4.828","7.59","0.431","25.379","0.04","0.14","29.4307","4.66195","51.28","0","SATNPRO1509","30.706","0.4301","5"],
    [25737,"HCEP03730566","2024-06-22 09:00:00","9.6949","3.2351","24.26","4.847","7.59","0.484","28.648","0.08","1","29.4327","4.66221","51.48","0","SATNPRO1509","30.816","0.43166","5"],
    [25738,"HCEP03730566","2024-06-22 09:15:00","9.6951","3.23524","24.048","4.863","7.59","0.461","30.461","0.06","1.01","29.434","4.66238","51.66","0","SATNPRO1509","30.798000000000002","0.43136","5"],
    [25739,"HCEP03730566","2024-06-22 09:30:00","9.6936","3.23522","23.957","4.856","7.59","0.598","32.438","0.1","0.23","29.4351","4.66256","51.58","0","SATNPRO1509","30.61","0.42876","5"],
    [25740,"HCEP03730566","2024-06-22 09:45:00","9.6936","3.23522","23.872","4.838","7.58","0.497","33.716","0.08","0.16","29.4352","4.66256","51.39","0","SATNPRO1509","30.594","0.42852","5"],
    [25741,"HCEP03730566","2024-06-22 10:00:00","9.6937","3.2352","23.773","4.833","7.58","0.469","32.38","0.03","0.13","29.4349","4.66251","51.34","0","SATNPRO1509","30.676000000000002","0.42966","5"],
    [25742,"HCEP03730566","2024-06-22 10:15:00","9.6938","3.23514","23.681","4.82","7.58","0.476","30.072","0.05","0.11","29.4343","4.66243","51.19","0","SATNPRO1509","30.534","0.42768","5"],
    [25743,"HCEP03730566","2024-06-22 10:30:00","9.6942","3.23504","23.661","4.818","7.58","0.469","28.66","0.08","0.24","29.433","4.66223","51.17","0","SATNPRO1509","30.724","0.43034","5"],
    [25744,"HCEP03730566","2024-06-22 10:45:00","9.6945","3.23494","23.591","4.827","7.58","0.442","25.599","0.04","0.18","29.4317","4.66203","51.27","0","SATNPRO1509","30.748","0.43066","5"],
    [25745,"HCEP03730566","2024-06-22 11:00:00","9.6947","3.23492","23.673","4.823","7.58","0.696","21.772","0.43","0.23","29.4314","4.66198","51.22","0","SATNPRO1509","30.574","0.42822","5"],
    [25746,"HCEP03730566","2024-06-22 11:15:00","9.6949","3.2348","23.784","4.801","7.58","0.569","17.694","0.1","0.22","29.4298","4.66177","51","0","SATNPRO1509","30.474","0.42688","5"],
    [25747,"HCEP03730566","2024-06-22 11:30:00","9.6945","3.23675","23.918","4.801","7.58","0.546","12.586","0.06","0.13","29.4498","4.66465","51","0","SATNPRO1509","30.674","0.42964","5"],
    [25748,"HCEP03730566","2024-06-22 11:45:00","9.6942","3.23731","24.02","4.832","7.59","0.514","9.094","0.05","0.19","29.4556","4.66548","51.33","0","SATNPRO1509","30.642","0.42916","5"],
    [25749,"HCEP03730566","2024-06-22 12:00:00","9.6942","3.23815","24.141","4.844","7.59","0.575","7.192","0.04","0.13","29.4641","4.66671","51.47","0","SATNPRO1509","30.580000000000002","0.42834","5"],
    [25750,"HCEP03730566","2024-06-22 12:15:00","9.6946","3.23623","24.304","4.861","7.6","0.529","4.864","0.06","0.16","29.4443","4.66387","51.64","0","SATNPRO1509","30.684","0.42978","5"],
    [25751,"HCEP03730566","2024-06-22 12:30:00","9.6941","3.23775","24.472","4.845","7.6","0.626","4.697","0.05","0.11","29.46","4.66614","51.47","0","SATNPRO1509","30.632","0.4291","5"],
    [25752,"HCEP03730566","2024-06-22 12:45:00","9.6948","3.23524","24.602","4.806","7.59","0.554","3.873","0.06","0.28","29.434","4.66242","51.05","0","SATNPRO1509","30.684","0.42976","5"],
    [25753,"HCEP03730566","2024-06-22 13:00:00","9.6949","3.23527","24.779","4.807","7.59","0.559","3.083","0.17","0.13","29.4342","4.66246","51.05","0","SATNPRO1509","30.638","0.4291","5"],
    [25754,"HCEP03730566","2024-06-22 13:15:00","9.6946","3.2356","24.95","4.816","7.59","0.552","2.947","0.07","0.14","29.4377","4.66297","51.16","0","SATNPRO1509","30.785999999999998","0.43124","5"],
    [25755,"HCEP03730566","2024-06-22 13:30:00","9.6947","3.2359","25.133","4.823","7.59","0.568","3.046","0.05","0.19","29.4406","4.66339","51.23","0","SATNPRO1509","30.678","0.42968","5"],
    [25756,"HCEP03730566","2024-06-22 13:45:00","9.6941","3.2358","25.333","4.833","7.59","0.565","2.729","0.1","0.18","29.4401","4.66334","51.33","0","SATNPRO1509","30.698","0.42996","5"],
    [25757,"HCEP03730566","2024-06-22 14:00:00","9.694","3.23586","25.555","4.817","7.6","0.619","3.301","0.11","0.16","29.4406","4.66343","51.17","0","SATNPRO1509","30.567999999999998","0.42818","5"],
    [25758,"HCEP03730566","2024-06-22 14:15:00","9.6944","3.23596","25.743","4.836","7.6","0.609","3.19","0.06","0.14","29.4412","4.66352","51.37","0","SATNPRO1509","30.724","0.43034","5"],
    [25759,"HCEP03730566","2024-06-22 14:30:00","9.6951","3.23579","25.95","4.86","7.61","0.576","2.826","0.07","0.3","29.4389","4.66319","51.62","0","SATNPRO1509","30.862","0.43226","5"],
    [25760,"HCEP03730566","2024-06-22 14:45:00","9.6957","3.23504","26.144","4.876","7.6","0.709","2.853","0.54","0.23","29.4307","4.66202","51.79","0","SATNPRO1509","31.094","0.43556","5"],
    [25761,"HCEP03730566","2024-06-22 15:00:00","9.6958","3.23348","26.372","4.867","7.6","0.588","2.937","0.06","0.23","29.4149","4.65976","51.69","0","SATNPRO1509","31.036","0.4347","5"],
    [25762,"HCEP03730566","2024-06-22 15:15:00","9.698","3.23373","26.611","4.873","7.61","0.605","2.824","0.12","0.18","29.4154","4.65982","51.75","0","SATNPRO1509","31.074","0.43526","5"],
    [25763,"HCEP03730566","2024-06-22 15:30:00","9.698","3.23355","26.844","4.861","7.61","0.613","2.92","0.06","0.14","29.4135","4.65955","51.63","0","SATNPRO1509","30.938","0.43334","5"],
    [25764,"HCEP03730566","2024-06-22 15:45:00","9.6978","3.23322","26.974","4.836","7.61","0.582","2.959","0.06","0.14","29.4103","4.6591","51.36","0","SATNPRO1509","30.998","0.43416","5"],
    [25765,"HCEP03730566","2024-06-22 16:00:00","9.6983","3.23278","27.196","4.812","7.61","0.573","2.87","0.03","0.09","29.4054","4.6584","51.11","0","SATNPRO1509","30.91","0.43296","5"],
    [25766,"HCEP03730566","2024-06-22 16:15:00","9.6976","3.23277","27.387","4.799","7.61","0.596","3.231","0.04","0.09","29.4058","4.65849","50.97","0","SATNPRO1509","30.88","0.43248","5"],
    [25767,"HCEP03730566","2024-06-22 16:30:00","9.6958","3.23272","27.53","4.766","7.61","0.585","2.922","0.05","0.1","29.4067","4.65866","50.61","0","SATNPRO1509","30.791999999999998","0.43132","5"],
    [25768,"HCEP03730566","2024-06-22 16:45:00","9.6929","3.23256","27.682","4.713","7.6","0.607","3.055","0.04","0.11","29.4075","4.65883","50.05","0","SATNPRO1509","30.61","0.42876","5"],
    [25769,"HCEP03730566","2024-06-22 17:00:00","9.6912","3.23208","27.791","4.634","7.6","0.603","3.348","0.04","0.12","29.4039","4.65836","49.21","0","SATNPRO1509","30.65","0.42926","5"],
    [25770,"HCEP03730566","2024-06-22 17:15:00","9.6871","3.2317","27.867","4.544","7.59","0.634","3.488","0.04","0.11","29.4034","4.65836","48.25","0","SATNPRO1509","30.336000000000002","0.42492","5"],
    [25771,"HCEP03730566","2024-06-22 17:30:00","9.6846","3.23124","27.94","4.459","7.58","0.61","3.315","0.03","0.14","29.4009","4.65804","47.34","0","SATNPRO1509","30.166","0.42248","5"],
    [25772,"HCEP03730566","2024-06-22 17:45:00","9.6829","3.23086","27.984","4.392","7.57","0.645","3.414","0.05","0.15","29.3983","4.65771","46.62","0","SATNPRO1509","30.048","0.42088","5"],
    [25773,"HCEP03730566","2024-06-22 18:00:00","9.6819","3.23068","27.996","4.345","7.57","0.685","3.578","0.11","0.17","29.3974","4.65759","46.12","0","SATNPRO1509","30.076","0.42126","5"],
    [25774,"HCEP03730566","2024-06-22 18:15:00","9.6799","3.23005","27.98","4.287","7.56","0.805","3.537","0.32","0.2","29.3926","4.65695","45.5","0","SATNPRO1509","29.962","0.41964","5"],
    [25775,"HCEP03730566","2024-06-22 18:30:00","9.6778","3.22955","28.009","4.207","7.55","1.007","14.284","0.59","22.97","29.3894","4.65652","44.66","0","SATNPRO1509","29.834","0.41788","5"],
    [25776,"HCEP03730566","2024-06-22 18:45:00","9.6758","3.22893","28.023","4.132","7.54","0.719","3.614","0.08","0.18","29.3846","4.65588","43.86","0","SATNPRO1509","29.822","0.41774","5"],
    [25777,"HCEP03730566","2024-06-22 19:00:00","9.6749","3.22854","27.982","4.066","7.53","0.754","3.569","0.09","0.28","29.3815","4.65544","43.16","0","SATNPRO1509","29.64","0.41516","5"],
    [25778,"HCEP03730566","2024-06-22 19:15:00","9.6745","3.22813","27.983","4.009","7.52","0.743","3.794","0.06","0.29","29.3777","4.6549","42.55","0","SATNPRO1509","29.634","0.41512","5"],
    [25779,"HCEP03730566","2024-06-22 19:30:00","9.674","3.22789","27.954","3.967","7.52","0.882","3.973","0.74","0.38","29.3757","4.65462","42.1","0","SATNPRO1509","29.536","0.41374","5"],
    [25780,"HCEP03730566","2024-06-22 19:45:00","9.6742","3.22716","27.956","3.933","7.51","0.74","3.893","0.05","0.39","29.3682","4.65355","41.74","0","SATNPRO1509","29.554","0.41394","5"],
    [25781,"HCEP03730566","2024-06-22 20:00:00","9.6742","3.22699","27.855","3.891","7.51","0.75","3.963","0.06","0.23","29.3665","4.65329","41.3","0","SATNPRO1509","29.48","0.41288","5"],
    [25782,"HCEP03730566","2024-06-22 20:15:00","9.6738","3.22637","27.833","3.867","7.51","0.744","3.758","0.11","0.19","29.3606","4.65246","41.04","0","SATNPRO1509","29.514","0.41342","5"],
    [25783,"HCEP03730566","2024-06-22 20:30:00","9.6743","3.22662","27.755","3.845","7.51","0.722","3.847","0.05","0.34","29.3628","4.65275","40.8","0","SATNPRO1509","29.586","0.41438","5"],
    [25784,"HCEP03730566","2024-06-22 20:45:00","9.6754","3.22777","27.713","3.877","7.51","0.699","3.82","0.05","0.12","29.3735","4.65427","41.15","0","SATNPRO1509","29.472","0.41276","5"],
    [25785,"HCEP03730566","2024-06-22 21:00:00","9.6763","3.22863","27.59","3.982","7.52","0.655","3.496","0.05","0.12","29.3814","4.65538","42.26","0","SATNPRO1509","29.718","0.41622","5"],
    [25786,"HCEP03730566","2024-06-22 21:15:00","9.6759","3.22863","27.507","4.051","7.52","0.648","3.492","0.02","0.18","29.3818","4.65543","43","0","SATNPRO1509","29.756","0.41678","5"],
    [25787,"HCEP03730566","2024-06-22 21:30:00","9.6797","3.22977","27.442","4.078","7.53","0.681","4.225","0.04","0.13","29.3902","4.65657","43.29","0","SATNPRO1509","29.676","0.4157","5"],
    [25788,"HCEP03730566","2024-06-22 21:45:00","9.6809","3.22989","27.309","4.147","7.54","0.648","4.06","0.04","0.09","29.3905","4.65658","44.03","0","SATNPRO1509","29.778","0.41708","5"],
    [25789,"HCEP03730566","2024-06-22 22:00:00","9.6809","3.22988","27.278","4.152","7.54","0.665","4.25","0.02","0.11","29.3904","4.65657","44.08","0","SATNPRO1509","29.804000000000002","0.41748","5"],
    [25790,"HCEP03730566","2024-06-22 22:15:00","9.6812","3.22989","27.136","4.172","7.54","0.648","3.98","0.04","0.12","29.3903","4.65654","44.29","0","SATNPRO1509","29.776","0.41708","5"],
    [25791,"HCEP03730566","2024-06-22 22:30:00","9.6814","3.22989","27.094","4.162","7.55","0.656","4.051","0.04","0.16","29.3902","4.65652","44.18","0","SATNPRO1509","29.798000000000002","0.41738","5"],
    [25792,"HCEP03730566","2024-06-22 22:45:00","9.6819","3.23017","27.031","4.164","7.55","0.677","4.34","0.03","0.11","29.3926","4.65686","44.21","0","SATNPRO1509","29.82","0.41764","5"],
    [25793,"HCEP03730566","2024-06-22 23:00:00","9.6833","3.23077","26.986","4.194","7.55","0.685","4.036","0.03","0.09","29.3975","4.65753","44.53","0","SATNPRO1509","29.874","0.41846","5"],
    [25794,"HCEP03730566","2024-06-22 23:15:00","9.6823","3.23058","26.962","4.174","7.55","0.702","4.108","0.05","0.11","29.3964","4.65739","44.32","0","SATNPRO1509","29.756","0.41676","5"],
    [25795,"HCEP03730566","2024-06-22 23:30:00","9.6819","3.23049","26.919","4.143","7.55","0.723","4.153","0.03","0.1","29.3959","4.65731","43.98","0","SATNPRO1509","29.72","0.41628","5"],
    [25796,"HCEP03730566","2024-06-22 23:45:00","9.6821","3.23013","26.912","4.162","7.55","0.703","3.817","0.04","0.17","29.3922","4.65678","44.18","0","SATNPRO1509","29.824","0.41774","5"],
    [25797,"HCEP03730566","2024-06-23 00:00:00","9.6829","3.23048","26.884","4.21","7.55","0.689","3.37","0.03","0.11","29.3949","4.65716","44.69","0","SATNPRO1509","30.054","0.42098","5"],
    [25798,"HCEP03730566","2024-06-23 00:15:00","9.6834","3.23054","26.902","4.247","7.55","0.703","3.256","0.02","0.11","29.3952","4.65718","45.08","0","SATNPRO1509","30.192","0.4229","5"],
    [25799,"HCEP03730566","2024-06-23 00:30:00","9.6838","3.23052","26.925","4.278","7.56","0.737","3.421","0.03","0.17","29.3946","4.6571","45.41","0","SATNPRO1509","30.184","0.42278","5"],
    [25800,"HCEP03730566","2024-06-23 00:45:00","9.6807","3.22951","26.939","4.249","7.56","0.746","3.021","0.03","0.15","29.3869","4.65606","45.1","0","SATNPRO1509","30.144000000000002","0.42224","5"],
    [25801,"HCEP03730566","2024-06-23 01:00:00","9.6871","3.23213","26.988","4.258","7.56","0.776","3.73","0.02","0.08","29.4081","4.65898","45.21","0","SATNPRO1509","29.962","0.41968","5"],
    [25802,"HCEP03730566","2024-06-23 01:15:00","9.6869","3.23213","27.05","4.313","7.56","0.769","4.001","0.02","0.07","29.4083","4.65901","45.8","0","SATNPRO1509","29.966","0.41972","5"],
    [25803,"HCEP03730566","2024-06-23 01:30:00","9.6864","3.23155","27.107","4.336","7.56","0.713","3.761","0.02","0.09","29.4028","4.65824","46.04","0","SATNPRO1509","29.978","0.4199","5"],
    [25804,"HCEP03730566","2024-06-23 01:45:00","9.6898","3.23307","27.166","4.37","7.57","0.643","4.167","0.01","0.09","29.4153","4.65997","46.4","0","SATNPRO1509","30.032","0.42064","5"],
    [25805,"HCEP03730566","2024-06-23 02:00:00","9.6885","3.23182","27.229","4.375","7.57","0.556","4.2","0.01","0.12","29.4037","4.65834","46.46","0","SATNPRO1509","30.022000000000002","0.42046","5"],
    [25806,"HCEP03730566","2024-06-23 02:15:00","9.6895","3.23268","27.275","4.36","7.57","0.454","4.971","0","0.16","29.4116","4.65945","46.3","0","SATNPRO1509","30.05","0.4209","5"],
    [25807,"HCEP03730566","2024-06-23 02:30:00","9.6899","3.23281","27.335","4.369","7.57","0.349","5.227","0.01","0.11","29.4125","4.65957","46.39","0","SATNPRO1509","30.128","0.42198","5"],
    [25808,"HCEP03730566","2024-06-23 02:45:00","9.6901","3.23283","27.375","4.388","7.57","0.255","7.083","0.01","0.16","29.4126","4.65959","46.59","0","SATNPRO1509","30.080000000000002","0.42128","5"],
    [25809,"HCEP03730566","2024-06-23 03:00:00","9.6897","3.23258","27.436","4.401","7.57","0.174","11.254","0","0.09","29.4103","4.65928","46.73","0","SATNPRO1509","30.124","0.42196","5"],
    [25810,"HCEP03730566","2024-06-23 03:15:00","9.6946","3.23438","27.464","4.501","7.58","0.132","20.36","0.01","0.19","29.4244","4.66121","47.8","0","SATNPRO1509","30.272","0.42402","5"],
    [25811,"HCEP03730566","2024-06-23 03:30:00","9.6966","3.23492","27.537","4.539","7.58","0.12","33.961","0.01","0.18","29.4282","4.66173","48.21","0","SATNPRO1509","30.322","0.4247","5"],
    [25812,"HCEP03730566","2024-06-23 03:45:00","9.6977","3.23602","27.576","4.617","7.59","0.135","54.554","0.01","0.24","29.4384","4.66316","49.04","0","SATNPRO1509","30.588","0.42842","5"],
    [25813,"HCEP03730566","2024-06-23 04:00:00","9.6965","3.23715","27.602","4.76","7.6","0.155","81.542","0.01","0.1","29.4508","4.66495","50.56","0","SATNPRO1509","30.744","0.4306","5"],
    [25814,"HCEP03730566","2024-06-23 04:15:00","9.696","3.2378","27.62","4.858","7.61","0.164","111.202","0.01","0.12","29.4576","4.66595","51.61","0","SATNPRO1509","30.994","0.43414","5"],
    [25815,"HCEP03730566","2024-06-23 04:30:00","9.6958","3.23753","27.624","4.862","7.61","0.213","130.512","0.02","0.12","29.4551","4.66559","51.65","0","SATNPRO1509","30.766","0.43092","5"],
    [25816,"HCEP03730566","2024-06-23 04:45:00","9.6964","3.23693","27.611","4.817","7.61","0.249","139.125","0.02","0.14","29.4486","4.66465","51.17","0","SATNPRO1509","30.866","0.43236","5"],
    [25817,"HCEP03730566","2024-06-23 05:00:00","9.6967","3.23682","27.586","4.789","7.61","0.283","138.479","0.02","0.12","29.4472","4.66445","50.87","0","SATNPRO1509","30.578","0.4283","5"],
    [25818,"HCEP03730566","2024-06-23 05:15:00","9.6974","3.23635","27.531","4.76","7.61","0.321","133.694","0.03","0.15","29.442","4.66369","50.57","0","SATNPRO1509","30.702","0.43","5"],
    [25819,"HCEP03730566","2024-06-23 05:30:00","9.6977","3.23629","27.485","4.751","7.6","0.347","128.268","0.06","0.15","29.4412","4.66356","50.47","0","SATNPRO1509","30.726","0.43036","5"],
    [25820,"HCEP03730566","2024-06-23 05:45:00","9.6982","3.23654","27.409","4.791","7.59","0.324","122.825","0.03","0.1","29.4433","4.66385","50.9","0","SATNPRO1509","30.848","0.4321","5"],
    [25821,"HCEP03730566","2024-06-23 06:00:00","9.6981","3.23645","27.307","4.829","7.59","0.344","113.786","0.03","0.13","29.4424","4.66372","51.3","0","SATNPRO1509","30.848","0.43206","5"],
    [25822,"HCEP03730566","2024-06-23 06:15:00","9.6987","3.23654","27.188","4.829","7.59","0.308","86.095","0.05","0.07","29.4429","4.66377","51.3","0","SATNPRO1509","30.826","0.43176","5"],
    [25823,"HCEP03730566","2024-06-23 06:30:00","9.6977","3.2361","27.061","4.819","7.58","0.317","57.122","0.03","0","29.4394","4.66328","51.19","0","SATNPRO1509","30.7","0.42996","5"],
    [25824,"HCEP03730566","2024-06-23 06:45:00","9.6977","3.23581","26.9","4.746","7.58","0.312","31.736","0.04","0.04","29.4365","4.66286","50.42","0","SATNPRO1509","30.536","0.42776","5"],
    [25825,"HCEP03730566","2024-06-23 07:00:00","9.6979","3.23568","26.722","4.704","7.57","0.285","11.739","0.03","0.01","29.4352","4.66265","49.96","0","SATNPRO1509","30.59","0.42846","5"],
    [25826,"HCEP03730566","2024-06-23 07:15:00","9.6978","3.23555","26.533","4.689","7.57","0.273","2.155","0.03","0.01","29.434","4.66247","49.81","0","SATNPRO1509","30.572","0.42822","5"],
    [25827,"HCEP03730566","2024-06-23 07:30:00","9.6977","3.23546","26.31","4.684","7.57","0.236","0.384","0.02","0.01","29.4333","4.66236","49.76","0","SATNPRO1509","30.498","0.42716","5"],
    [25828,"HCEP03730566","2024-06-23 07:45:00","9.6982","3.23535","26.089","4.679","7.57","0.192","0.287","0.02","0.01","29.4319","4.66214","49.7","0","SATNPRO1509","30.628","0.42898","5"],
    [25829,"HCEP03730566","2024-06-23 08:00:00","9.6981","3.23535","25.85","4.674","7.58","0.178","0.308","0.02","0.01","29.432","4.66214","49.65","0","SATNPRO1509","30.568","0.42816","5"],
    [25830,"HCEP03730566","2024-06-23 08:15:00","9.698","3.23521","25.66","4.672","7.57","0.138","0.266","0.03","0.01","29.4307","4.66195","49.62","0","SATNPRO1509","30.682","0.42974","5"],
    [25831,"HCEP03730566","2024-06-23 08:30:00","9.6982","3.23546","25.415","4.7","7.58","0.134","0.37","0.01","0.02","29.4332","4.66228","49.92","0","SATNPRO1509","30.582","0.42834","5"],
    [25832,"HCEP03730566","2024-06-23 08:45:00","9.6995","3.23618","25.169","4.739","7.59","0.116","0.369","0.02","0.04","29.4395","4.66315","50.34","0","SATNPRO1509","31.026","0.43458","5"],
    [25833,"HCEP03730566","2024-06-23 09:00:00","9.7003","3.23654","24.912","4.857","7.59","0.101","0.396","0.01","0.05","29.4425","4.66356","51.6","0","SATNPRO1509","31.314","0.43862","5"],
    [25834,"HCEP03730566","2024-06-23 09:15:00","9.7003","3.23658","24.705","4.921","7.6","0.117","0.526","0.02","0.05","29.4431","4.66362","52.28","0","SATNPRO1509","31.19","0.43686","5"],
    [25835,"HCEP03730566","2024-06-23 09:30:00","9.6996","3.2368","24.445","4.933","7.59","0.137","0.717","0.03","0.19","29.4459","4.66402","52.4","0","SATNPRO1509","31.198","0.437","5"],
    [25836,"HCEP03730566","2024-06-23 09:45:00","9.6995","3.23687","24.173","4.916","7.59","0.139","0.773","0.03","0.29","29.4469","4.66415","52.23","0","SATNPRO1509","31.144000000000002","0.43622","5"],
    [25837,"HCEP03730566","2024-06-23 10:00:00","9.6992","3.237","23.978","4.916","7.59","0.183","0.845","0.05","0.12","29.4485","4.66438","52.22","0","SATNPRO1509","31.048","0.43486","5"],
    [25838,"HCEP03730566","2024-06-23 10:15:00","9.6989","3.23715","23.841","4.919","7.59","0.207","0.872","0.05","0.1","29.4503","4.66464","52.26","0","SATNPRO1509","31.046","0.43482","5"],
    [25839,"HCEP03730566","2024-06-23 10:30:00","9.6987","3.23738","23.744","4.92","7.59","0.215","0.861","0.05","0.08","29.4528","4.66499","52.27","0","SATNPRO1509","31.058","0.43506","5"],
    [25840,"HCEP03730566","2024-06-23 10:45:00","9.6986","3.23753","23.695","4.925","7.59","0.247","0.902","0.04","0.2","29.4544","4.66521","52.33","0","SATNPRO1509","31.064","0.43506","5"],
    [25841,"HCEP03730566","2024-06-23 11:00:00","9.6985","3.23764","23.688","4.927","7.59","0.295","0.982","0.08","0.13","29.4556","4.66538","52.35","0","SATNPRO1509","30.946","0.43348","5"],
    [25842,"HCEP03730566","2024-06-23 11:15:00","9.6983","3.23768","23.686","4.931","7.59","0.355","1.222","0.1","0.33","29.4562","4.66548","52.38","0","SATNPRO1509","30.968","0.43376","5"],
    [25843,"HCEP03730566","2024-06-23 11:30:00","9.6984","3.23772","23.73","4.93","7.59","0.358","1.154","0.06","0.13","29.4565","4.66552","52.37","0","SATNPRO1509","31.098","0.43558","5"],
    [25844,"HCEP03730566","2024-06-23 11:45:00","9.6981","3.23774","23.773","4.936","7.59","0.412","1.445","0.06","0.13","29.4569","4.66558","52.44","0","SATNPRO1509","31.094","0.43556","5"],
    [25845,"HCEP03730566","2024-06-23 12:00:00","9.698","3.2377","23.847","4.945","7.6","0.423","1.566","0.07","0.11","29.4565","4.66553","52.54","0","SATNPRO1509","30.998","0.43418","5"],
    [25846,"HCEP03730566","2024-06-23 12:15:00","9.698","3.23767","23.937","4.933","7.6","0.464","1.691","0.05","0.1","29.4563","4.66551","52.41","0","SATNPRO1509","31.1","0.43562","5"],
    [25847,"HCEP03730566","2024-06-23 12:30:00","9.6983","3.23759","24.032","4.933","7.61","0.489","1.76","0.07","0.1","29.4551","4.66533","52.4","0","SATNPRO1509","31.166","0.43654","5"],
    [25848,"HCEP03730566","2024-06-23 12:45:00","9.6987","3.23752","24.143","4.929","7.6","0.515","1.899","0.06","0.12","29.454","4.66519","52.37","0","SATNPRO1509","31.094","0.43554","5"],
    [25849,"HCEP03730566","2024-06-23 13:00:00","9.6988","3.23741","24.272","4.921","7.6","0.618","2.28","0.09","0.16","29.4528","4.66501","52.28","0","SATNPRO1509","31.166","0.43652","5"],
    [25850,"HCEP03730566","2024-06-23 13:15:00","9.6983","3.23758","24.446","4.894","7.6","0.778","3.236","0.09","0.18","29.4549","4.66533","51.99","0","SATNPRO1509","30.972","0.43378","5"],
    [25851,"HCEP03730566","2024-06-23 13:30:00","9.698","3.23787","24.632","4.879","7.6","0.751","3.068","0.07","0.2","29.458","4.66579","51.84","0","SATNPRO1509","31.093999999999998","0.4355","5"],
    [25852,"HCEP03730566","2024-06-23 13:45:00","9.698","3.23783","24.768","4.891","7.59","0.898","3.581","0.17","0.37","29.4575","4.66573","51.96","0","SATNPRO1509","30.89","0.43268","5"],
    [25853,"HCEP03730566","2024-06-23 14:00:00","9.698","3.23809","24.956","4.915","7.6","0.762","2.852","0.2","0.21","29.46","4.6661","52.21","0","SATNPRO1509","31.178","0.4367","5"],
    [25854,"HCEP03730566","2024-06-23 14:15:00","9.6982","3.23812","25.13","4.938","7.61","0.815","3.67","0.08","0.15","29.4601","4.66612","52.46","0","SATNPRO1509","31.138","0.43612","5"],
    [25855,"HCEP03730566","2024-06-23 14:30:00","9.6983","3.23811","25.342","4.937","7.62","0.795","3.401","0.08","0.25","29.4598","4.66609","52.45","0","SATNPRO1509","31.084","0.4354","5"],
    [25856,"HCEP03730566","2024-06-23 14:45:00","9.698","3.2382","25.548","4.951","7.62","0.826","3.339","0.11","0.26","29.461","4.66627","52.6","0","SATNPRO1509","31.152","0.43632","5"],
    [25857,"HCEP03730566","2024-06-23 15:00:00","9.6983","3.23807","25.769","4.935","7.62","0.806","3.587","0.11","0.31","29.4593","4.66604","52.43","0","SATNPRO1509","31.028","0.43462","5"],
    [25858,"HCEP03730566","2024-06-23 15:15:00","9.6992","3.23769","25.997","4.915","7.62","0.767","3.597","0.08","0.27","29.4546","4.66537","52.21","0","SATNPRO1509","31.06","0.43508","5"],
    [25859,"HCEP03730566","2024-06-23 15:30:00","9.7002","3.23695","26.23","4.896","7.62","0.75","3.577","0.1","0.38","29.4463","4.66417","52.01","0","SATNPRO1509","31.036","0.4347","5"],
    [25860,"HCEP03730566","2024-06-23 15:45:00","9.7","3.23523","26.456","4.826","7.6","0.692","3.031","0.09","0.16","29.429","4.66171","51.26","0","SATNPRO1509","30.912000000000003","0.43296","5"],
    [25861,"HCEP03730566","2024-06-23 16:00:00","9.6986","3.23464","26.681","4.67","7.6","0.745","3.637","0.13","0.6","29.4242","4.66106","49.61","0","SATNPRO1509","30.914","0.43302","5"],
    [25862,"HCEP03730566","2024-06-23 16:15:00","9.7011","3.23552","26.866","4.745","7.59","0.848","3.391","0.35","0.34","29.4309","4.66198","50.4","0","SATNPRO1509","30.824","0.43176","5"],
    [25863,"HCEP03730566","2024-06-23 16:30:00","9.7019","3.23606","27.049","4.807","7.59","0.836","3.192","0.63","0.25","29.4356","4.66265","51.06","0","SATNPRO1509","30.904","0.43286","5"],
    [25864,"HCEP03730566","2024-06-23 16:45:00","9.7012","3.2353","27.219","4.814","7.59","0.72","2.733","0.08","0.21","29.4284","4.66166","51.14","0","SATNPRO1509","31.008","0.4343","5"],
    [25865,"HCEP03730566","2024-06-23 17:00:00","9.7035","3.23605","27.378","4.81","7.59","0.729","3.137","0.17","0.4","29.4341","4.66243","51.1","0","SATNPRO1509","30.983999999999998","0.434","5"],
    [25866,"HCEP03730566","2024-06-23 17:15:00","9.7041","3.23601","27.582","4.844","7.59","0.708","3.429","0.07","0.42","29.433","4.66228","51.46","0","SATNPRO1509","30.972","0.43382","5"],
    [25867,"HCEP03730566","2024-06-23 17:30:00","9.7042","3.2359","27.719","4.847","7.59","0.764","3.1","0.27","0.93","29.4318","4.66211","51.49","0","SATNPRO1509","30.942","0.4334","5"],
    [25868,"HCEP03730566","2024-06-23 17:45:00","9.7044","3.23577","27.781","4.833","7.59","0.717","2.819","0.07","0.3","29.4303","4.66191","51.34","0","SATNPRO1509","30.93","0.43324","5"],
    [25869,"HCEP03730566","2024-06-23 18:00:00","9.703","3.23525","27.817","4.789","7.59","0.75","3.221","0.06","0.33","29.4262","4.66133","50.88","0","SATNPRO1509","30.716","0.4302","5"],
    [25870,"HCEP03730566","2024-06-23 18:15:00","9.7011","3.23453","27.894","4.693","7.58","0.809","3.549","0.09","0.35","29.4205","4.66056","49.85","0","SATNPRO1509","30.474","0.42686","5"],
    [25871,"HCEP03730566","2024-06-23 18:30:00","9.6993","3.23374","27.926","4.591","7.57","0.839","3.664","0.09","0.52","29.4139","4.65965","48.76","0","SATNPRO1509","30.422","0.4261","5"],
    [25872,"HCEP03730566","2024-06-23 18:45:00","9.6987","3.23359","27.964","4.506","7.57","0.863","3.706","0.17","0.57","29.4129","4.65952","47.86","0","SATNPRO1509","30.232","0.42346","5"],
    [25873,"HCEP03730566","2024-06-23 19:00:00","9.696","3.2325","28.044","4.426","7.56","0.846","3.723","0.1","0.27","29.4042","4.65833","47.01","0","SATNPRO1509","30.208000000000002","0.4231","5"],
    [25874,"HCEP03730566","2024-06-23 19:15:00","9.6968","3.23273","28.05","4.352","7.55","0.847","3.688","0.08","0.28","29.4058","4.65854","46.22","0","SATNPRO1509","30.272","0.42404","5"],
    [25875,"HCEP03730566","2024-06-23 19:30:00","9.6982","3.23329","27.995","4.356","7.55","0.949","3.389","0.32","0.26","29.4103","4.65916","46.27","0","SATNPRO1509","30.32","0.42468","5"],
    [25876,"HCEP03730566","2024-06-23 19:45:00","9.6978","3.23308","28.027","4.369","7.55","0.872","3.416","0.11","0.4","29.4085","4.65891","46.4","0","SATNPRO1509","30.18","0.4227","5"],
    [25877,"HCEP03730566","2024-06-23 20:00:00","9.6968","3.23272","28.006","4.36","7.55","0.861","3.399","0.08","0.32","29.4057","4.65852","46.3","0","SATNPRO1509","30.18","0.42272","5"],
    [25878,"HCEP03730566","2024-06-23 20:15:00","9.6983","3.23325","27.983","4.36","7.55","0.965","11.48","0.52","18.09","29.4098","4.65908","46.31","0","SATNPRO1509","30.242","0.4236","5"],
    [25879,"HCEP03730566","2024-06-23 20:30:00","9.7003","3.23372","27.925","4.435","7.56","5.198","55.997","4.56","47.93","29.413","4.6595","47.11","0","SATNPRO1509","30.404","0.42584","5"],
    [25880,"HCEP03730566","2024-06-23 20:45:00","9.7009","3.2338","27.863","4.487","7.56","0.734","3.17","0.06","0.18","29.4133","4.65953","47.66","0","SATNPRO1509","30.538","0.42772","5"],
    [25881,"HCEP03730566","2024-06-23 21:00:00","9.7","3.23353","27.767","4.52","7.57","0.754","2.951","0.07","0.27","29.4113","4.65926","48.01","0","SATNPRO1509","30.678","0.42972","5"],
    [25882,"HCEP03730566","2024-06-23 21:15:00","9.7038","3.23619","27.664","4.6","7.56","0.827","3.643","0.1","0.25","29.435","4.66258","48.87","0","SATNPRO1509","30.796","0.43134","5"],
    [25883,"HCEP03730566","2024-06-23 21:30:00","9.7036","3.23679","27.571","4.785","7.58","0.765","3.506","0.06","0.15","29.4413","4.66347","50.84","0","SATNPRO1509","30.884","0.43258","5"],
    [25884,"HCEP03730566","2024-06-23 21:45:00","9.7033","3.23694","27.468","4.81","7.59","0.798","3.845","0.09","0.15","29.4431","4.66374","51.1","0","SATNPRO1509","30.768","0.43094","5"],
    [25885,"HCEP03730566","2024-06-23 22:00:00","9.7025","3.23715","27.398","4.802","7.6","0.756","4.077","0.06","0.14","29.4459","4.66415","51.01","0","SATNPRO1509","30.830000000000002","0.43178","5"],
    [25886,"HCEP03730566","2024-06-23 22:15:00","9.7024","3.2374","27.342","4.814","7.6","0.701","3.733","0.04","0.19","29.4485","4.66452","51.15","0","SATNPRO1509","30.832","0.43184","5"],
    [25887,"HCEP03730566","2024-06-23 22:30:00","9.7023","3.23753","27.244","4.831","7.61","0.646","3.469","0.04","0.18","29.45","4.66472","51.33","0","SATNPRO1509","31.06","0.43502","5"],
    [25888,"HCEP03730566","2024-06-23 22:45:00","9.7023","3.2377","27.164","4.858","7.61","0.642","3.464","0.14","0.1","29.4516","4.66496","51.62","0","SATNPRO1509","30.928","0.43318","5"],
    [25889,"HCEP03730566","2024-06-23 23:00:00","9.7026","3.23751","27.117","4.868","7.62","0.561","3.289","0.05","0.14","29.4496","4.66465","51.72","0","SATNPRO1509","31.084","0.4354","5"],
    [25890,"HCEP03730566","2024-06-23 23:15:00","9.7029","3.23748","27.03","4.883","7.62","0.541","3.307","0.08","0.11","29.449","4.66456","51.88","0","SATNPRO1509","31.104","0.43566","5"],
    [25891,"HCEP03730566","2024-06-23 23:30:00","9.703","3.23715","26.95","4.863","7.62","0.532","3.375","0.08","0.14","29.4457","4.66408","51.67","0","SATNPRO1509","31.068","0.43522","5"],
    [25892,"HCEP03730566","2024-06-23 23:45:00","9.7025","3.23682","26.893","4.836","7.62","0.51","3.153","0.03","0.09","29.4428","4.66367","51.38","0","SATNPRO1509","31.032","0.43468","5"],
    [25893,"HCEP03730566","2024-06-24 00:00:00","9.7024","3.23677","26.853","4.822","7.62","0.55","3.309","0.04","0.14","29.4424","4.66361","51.23","0","SATNPRO1509","31.042","0.43482","5"],
    [25894,"HCEP03730566","2024-06-24 00:15:00","9.7025","3.23657","26.83","4.813","7.62","0.551","3.186","0.05","0.11","29.4403","4.6633","51.13","0","SATNPRO1509","30.964000000000002","0.43372","5"],
    [25895,"HCEP03730566","2024-06-24 00:30:00","9.7026","3.23648","26.794","4.805","7.61","0.566","3.256","0.06","0.21","29.4394","4.66317","51.05","0","SATNPRO1509","30.956","0.43362","5"],
    [25896,"HCEP03730566","2024-06-24 00:45:00","9.7025","3.23634","26.801","4.791","7.61","0.594","3.379","0.19","0.13","29.438","4.66299","50.89","0","SATNPRO1509","30.977999999999998","0.43388","5"],
    [25897,"HCEP03730566","2024-06-24 01:00:00","9.7023","3.2363","26.821","4.78","7.61","0.675","4.227","0.3","0.13","29.4377","4.66294","50.78","0","SATNPRO1509","30.944","0.43344","5"],
    [25898,"HCEP03730566","2024-06-24 01:15:00","9.7023","3.23628","26.841","4.775","7.61","0.591","6.575","0.07","0.16","29.4375","4.66292","50.72","0","SATNPRO1509","30.848","0.43208","5"],
    [25899,"HCEP03730566","2024-06-24 01:30:00","9.7029","3.23605","26.867","4.765","7.61","0.565","11.216","0.05","0.12","29.4347","4.66251","50.62","0","SATNPRO1509","30.936","0.43332","5"],
    [25900,"HCEP03730566","2024-06-24 01:45:00","9.7027","3.2362","26.907","4.761","7.61","0.612","17.833","0.16","0.2","29.4363","4.66274","50.58","0","SATNPRO1509","30.854","0.43216","5"],
    [25901,"HCEP03730566","2024-06-24 02:00:00","9.7026","3.23632","26.959","4.757","7.6","0.634","24.832","0.11","0.4","29.4376","4.66293","50.54","0","SATNPRO1509","30.932","0.43326","5"],
    [25902,"HCEP03730566","2024-06-24 02:15:00","9.7032","3.23645","27.01","4.767","7.6","0.59","28.816","0.06","0.13","29.4384","4.66303","50.65","0","SATNPRO1509","30.784","0.4312","5"],
    [25903,"HCEP03730566","2024-06-24 02:30:00","9.7041","3.23662","27.052","4.775","7.6","0.594","32.809","0.06","0.17","29.4394","4.66317","50.73","0","SATNPRO1509","30.936","0.43336","5"],
    [25904,"HCEP03730566","2024-06-24 02:45:00","9.7034","3.23671","27.105","4.786","7.6","0.649","34.97","0.11","0.23","29.4409","4.6634","50.84","0","SATNPRO1509","30.998","0.4342","5"],
    [25905,"HCEP03730566","2024-06-24 03:00:00","9.7032","3.23686","27.154","4.769","7.6","0.648","35.368","0.06","0.15","29.4424","4.66362","50.67","0","SATNPRO1509","30.764","0.43088","5"],
    [25906,"HCEP03730566","2024-06-24 03:15:00","9.7029","3.23699","27.213","4.768","7.6","0.638","35.192","0.06","0.26","29.4441","4.66386","50.66","0","SATNPRO1509","30.866","0.43232","5"],
    [25907,"HCEP03730566","2024-06-24 03:30:00","9.7041","3.23716","27.274","4.766","7.6","0.68","35.305","0.11","0.19","29.4448","4.66395","50.64","0","SATNPRO1509","31.296","0.43838","5"],
    [25908,"HCEP03730566","2024-06-24 03:45:00","9.7048","3.23715","27.337","4.778","7.6","0.765","35.267","0.33","0.15","29.4441","4.66385","50.76","0","SATNPRO1509","30.87","0.43238","5"],
    [25909,"HCEP03730566","2024-06-24 04:00:00","9.7049","3.23712","27.396","4.815","7.61","0.634","36.126","0.05","0.13","29.4436","4.66378","51.16","0","SATNPRO1509","30.990000000000002","0.43406","5"],
    [25910,"HCEP03730566","2024-06-24 04:15:00","9.705","3.23707","27.438","4.792","7.6","0.866","33.476","0.58","0.32","29.443","4.66369","50.91","0","SATNPRO1509","30.958","0.43358","5"],
    [25911,"HCEP03730566","2024-06-24 04:30:00","9.7043","3.23695","27.493","4.769","7.59","0.744","28.922","0.1","0.23","29.4424","4.66363","50.67","0","SATNPRO1509","30.814","0.43158","5"],
    [25912,"HCEP03730566","2024-06-24 04:45:00","9.7045","3.23684","27.522","4.751","7.59","0.72","29.839","0.09","0.15","29.4411","4.66343","50.47","0","SATNPRO1509","30.830000000000002","0.43182","5"],
    [25913,"HCEP03730566","2024-06-24 05:00:00","9.7048","3.23666","27.565","4.743","7.58","0.792","32.023","0.11","0.27","29.439","4.66312","50.39","0","SATNPRO1509","30.794","0.43134","5"],
    [25914,"HCEP03730566","2024-06-24 05:15:00","9.7057","3.23643","27.572","4.734","7.57","0.802","32.993","0.08","0.25","29.436","4.66268","50.29","0","SATNPRO1509","30.94","0.4334","5"],
    [25915,"HCEP03730566","2024-06-24 05:30:00","9.7065","3.2362","27.563","4.733","7.57","0.799","32.677","0.07","0.19","29.433","4.66224","50.29","0","SATNPRO1509","30.92","0.43308","5"],
    [25916,"HCEP03730566","2024-06-24 05:45:00","9.7068","3.23608","27.531","4.732","7.57","0.938","32.808","0.14","0.33","29.4315","4.66202","50.28","0","SATNPRO1509","30.77","0.43098","5"],
    [25917,"HCEP03730566","2024-06-24 06:00:00","9.7076","3.23593","27.49","4.732","7.58","0.91","31.791","0.13","0.46","29.4294","4.66171","50.27","0","SATNPRO1509","30.998","0.43418","5"],
    [25918,"HCEP03730566","2024-06-24 06:15:00","9.7077","3.23599","27.447","4.736","7.59","0.942","31.167","0.19","1.11","29.4299","4.66178","50.32","0","SATNPRO1509","30.876","0.43248","5"],
    [25919,"HCEP03730566","2024-06-24 06:30:00","9.705","3.23663","27.38","4.745","7.59","0.889","30.857","0.15","0.46","29.4386","4.66306","50.42","0","SATNPRO1509","30.754","0.43078","5"],
    [25920,"HCEP03730566","2024-06-24 06:45:00","9.7016","3.2373","27.285","4.757","7.59","0.926","28.194","0.84","0.4","29.4482","4.66448","50.54","0","SATNPRO1509","30.772","0.43102","5"],
    [25921,"HCEP03730566","2024-06-24 07:00:00","9.7","3.2377","27.162","4.769","7.59","0.785","28.2","0.16","0.22","29.4536","4.66527","50.67","0","SATNPRO1509","30.906000000000002","0.4329","5"],
    [25922,"HCEP03730566","2024-06-24 07:15:00","9.6923","3.23962","27.032","4.82","7.59","0.866","26.483","0.44","0.3","29.4792","4.66907","51.21","0","SATNPRO1509","30.986","0.43402","5"],
    [25923,"HCEP03730566","2024-06-24 07:30:00","9.6903","3.23985","26.878","4.905","7.58","0.729","23.254","0.14","0.14","29.4834","4.66969","52.11","0","SATNPRO1509","31.142","0.43622","5"],
    [25924,"HCEP03730566","2024-06-24 07:45:00","9.6893","3.24018","26.701","4.939","7.58","0.776","25.246","0.22","0.52","29.4876","4.6703","52.48","0","SATNPRO1509","31.16","0.43644","5"],
    [25925,"HCEP03730566","2024-06-24 08:00:00","9.6877","3.24042","26.499","4.965","7.58","0.772","26.775","0.18","0.22","29.4913","4.67085","52.75","0","SATNPRO1509","31.169999999999998","0.43658","5"],
    [25926,"HCEP03730566","2024-06-24 08:15:00","9.688","3.24031","26.284","4.975","7.59","0.72","26.069","0.07","1.32","29.49","4.67065","52.85","0","SATNPRO1509","31.2","0.43702","5"],
    [25927,"HCEP03730566","2024-06-24 08:30:00","9.6856","3.24073","26.066","4.985","7.6","0.693","23.716","0.1","0.2","29.4963","4.67158","52.95","0","SATNPRO1509","31.378","0.43952","5"],
    [25928,"HCEP03730566","2024-06-24 08:45:00","9.685","3.24096","25.844","5.039","7.61","0.661","22.939","0.12","0.16","29.4992","4.67199","53.53","0","SATNPRO1509","31.38","0.43954","5"],
    [25929,"HCEP03730566","2024-06-24 09:00:00","9.6843","3.24116","25.6","5.053","7.61","0.7","24.789","0.08","0.19","29.502","4.67238","53.68","0","SATNPRO1509","31.296","0.43838","5"],
    [25930,"HCEP03730566","2024-06-24 09:15:00","9.6839","3.24128","25.377","5.052","7.61","0.706","27.33","0.06","0.22","29.5035","4.6726","53.67","0","SATNPRO1509","31.3","0.4384","5"],
    [25931,"HCEP03730566","2024-06-24 09:30:00","9.6837","3.24142","25.155","5.044","7.61","0.807","28.458","0.11","0.16","29.5052","4.67283","53.59","0","SATNPRO1509","31.3","0.4384","5"],
    [25932,"HCEP03730566","2024-06-24 09:45:00","9.6827","3.24164","24.937","5.047","7.62","1.107","31.937","0.65","0.63","29.5083","4.67328","53.62","0","SATNPRO1509","31.286","0.4382","5"],
    [25933,"HCEP03730566","2024-06-24 10:00:00","9.6824","3.24174","24.767","5.062","7.62","0.717","33.762","0.19","0.09","29.5096","4.67345","53.78","0","SATNPRO1509","31.4","0.43984","5"],
    [25934,"HCEP03730566","2024-06-24 10:15:00","9.6823","3.24174","24.569","5.054","7.62","0.747","34.801","0.1","0.11","29.5097","4.67347","53.69","0","SATNPRO1509","31.194","0.43694","5"],
    [25935,"HCEP03730566","2024-06-24 10:30:00","9.6821","3.24182","24.366","5.048","7.62","0.813","33.455","0.27","0.32","29.5109","4.67362","53.63","0","SATNPRO1509","31.224","0.43734","5"],
    [25936,"HCEP03730566","2024-06-24 10:45:00","9.6819","3.24183","24.17","5.051","7.62","0.687","31.875","0.09","0.11","29.5112","4.67366","53.66","0","SATNPRO1509","31.226","0.4374","5"],
    [25937,"HCEP03730566","2024-06-24 11:00:00","9.6821","3.24187","24.011","5.051","7.62","0.823","29.434","0.16","0.27","29.5115","4.67369","53.66","0","SATNPRO1509","31.176","0.43668","5"],
    [25938,"HCEP03730566","2024-06-24 11:15:00","9.6821","3.24192","23.859","5.041","7.61","0.809","25.624","0.12","0.26","29.5121","4.67377","53.56","0","SATNPRO1509","31.436","0.44028","5"],
    [25939,"HCEP03730566","2024-06-24 11:30:00","9.6816","3.24206","23.733","5.041","7.61","0.661","18.79","0.09","0.05","29.5139","4.67403","53.56","0","SATNPRO1509","31.21","0.43716","5"],
    [25940,"HCEP03730566","2024-06-24 11:45:00","9.6816","3.24208","23.649","5.05","7.61","0.726","14.842","0.09","0.03","29.5142","4.67407","53.65","0","SATNPRO1509","31.188","0.43686","5"],
    [25941,"HCEP03730566","2024-06-24 12:00:00","9.6816","3.24198","23.629","5.039","7.61","0.8","12.256","0.09","0.13","29.5132","4.67392","53.54","0","SATNPRO1509","31.176000000000002","0.43664","5"],
    [25942,"HCEP03730566","2024-06-24 12:15:00","9.6816","3.24198","23.629","5.02","7.61","0.724","8.656","0.09","0.14","29.5132","4.67391","53.33","0","SATNPRO1509","31.186","0.43686","5"],
    [25943,"HCEP03730566","2024-06-24 12:30:00","9.6814","3.24197","23.662","5.028","7.61","0.709","6.597","0.12","0.2","29.5133","4.67394","53.42","0","SATNPRO1509","31.184","0.43678","5"],
    [25944,"HCEP03730566","2024-06-24 12:45:00","9.6822","3.2419","23.709","5.04","7.61","0.689","4.96","0.07","0.11","29.5118","4.67372","53.55","0","SATNPRO1509","31.31","0.43856","5"],
    [25945,"HCEP03730566","2024-06-24 13:00:00","9.6827","3.24176","23.763","5.047","7.6","0.804","4.146","0.16","0.08","29.51","4.67346","53.62","0","SATNPRO1509","32.192","0.45094","5"],
    [25946,"HCEP03730566","2024-06-24 13:15:00","9.6827","3.24175","23.88","5.051","7.61","0.651","3.677","0.07","0.14","29.5099","4.67344","53.66","0","SATNPRO1509","31.252","0.43774","5"],
    [25947,"HCEP03730566","2024-06-24 13:30:00","9.6835","3.24143","24.125","5.049","7.61","0.74","2.907","0.16","0.2","29.5059","4.67287","53.64","0","SATNPRO1509","31.288","0.43822","5"],
    [25948,"HCEP03730566","2024-06-24 13:45:00","9.6838","3.24149","24.274","5.037","7.61","0.752","2.923","0.07","0.44","29.5062","4.67291","53.51","0","SATNPRO1509","31.248","0.43768","5"],
    [25949,"HCEP03730566","2024-06-24 14:00:00","9.6831","3.24166","24.518","5.02","7.61","0.816","3.156","0.09","0.28","29.5084","4.67325","53.33","0","SATNPRO1509","31.294","0.43832","5"],
    [25950,"HCEP03730566","2024-06-24 14:15:00","9.6827","3.24176","24.652","5.027","7.62","0.739","2.426","0.07","0.13","29.5096","4.67345","53.4","0","SATNPRO1509","31.3","0.4384","5"],
    [25951,"HCEP03730566","2024-06-24 14:30:00","9.6815","3.24215","24.855","5.038","7.62","0.801","2.511","0.06","0.09","29.5145","4.67418","53.52","0","SATNPRO1509","31.274","0.43802","5"],
    [25952,"HCEP03730566","2024-06-24 14:45:00","9.6814","3.24223","25.048","5.047","7.63","0.827","2.585","0.07","0.13","29.5153","4.67431","53.62","0","SATNPRO1509","31.296","0.43836","5"],
    [25953,"HCEP03730566","2024-06-24 15:00:00","9.6803","3.2426","25.249","5.039","7.63","0.987","3.493","0.08","0.21","29.5198","4.67498","53.54","0","SATNPRO1509","31.201999999999998","0.43702","5"],
    [25954,"HCEP03730566","2024-06-24 15:15:00","9.6797","3.2427","25.429","5.035","7.63","1.01","3.665","0.07","0.18","29.5212","4.67521","53.49","0","SATNPRO1509","31.114","0.43578","5"],
    [25955,"HCEP03730566","2024-06-24 15:30:00","9.6802","3.24259","25.613","5.009","7.63","1.081","4.035","0.08","0.26","29.5197","4.67499","53.22","0","SATNPRO1509","31.105999999999998","0.43568","5"],
    [25956,"HCEP03730566","2024-06-24 15:45:00","9.6811","3.2421","25.817","4.993","7.63","1.075","4.066","0.08","0.2","29.5139","4.67415","53.05","0","SATNPRO1509","31.126","0.43594","5"],
    [25957,"HCEP03730566","2024-06-24 16:00:00","9.683","3.2419","26.041","4.979","7.63","1.079","4.033","0.07","0.33","29.5103","4.67362","52.89","0","SATNPRO1509","31.046","0.43488","5"],
    [25958,"HCEP03730566","2024-06-24 16:15:00","9.6856","3.24114","26.298","4.943","7.63","1.108","4.486","0.08","0.27","29.5004","4.67218","52.51","0","SATNPRO1509","31.03","0.43466","5"],
    [25959,"HCEP03730566","2024-06-24 16:30:00","9.6934","3.23965","26.495","4.899","7.63","0.951","3.448","0.1","0.19","29.4789","4.66898","52.05","0","SATNPRO1509","31.108","0.43572","5"],
    [25960,"HCEP03730566","2024-06-24 16:45:00","9.6927","3.23976","26.753","4.862","7.63","0.996","3.814","0.08","0.18","29.4805","4.66922","51.66","0","SATNPRO1509","31.052","0.43492","5"],
    [25961,"HCEP03730566","2024-06-24 17:00:00","9.696","3.23927","26.915","4.833","7.62","0.963","3.918","0.05","0.19","29.4728","4.66808","51.35","0","SATNPRO1509","30.992","0.43406","5"],
    [25962,"HCEP03730566","2024-06-24 17:15:00","9.6968","3.23883","27.105","4.809","7.62","1.023","3.794","0.07","0.15","29.4676","4.66733","51.09","0","SATNPRO1509","30.9","0.43286","5"],
    [25963,"HCEP03730566","2024-06-24 17:30:00","9.6972","3.2389","27.322","4.785","7.62","1.038","4.176","0.1","0.16","29.4679","4.66738","50.84","0","SATNPRO1509","30.912","0.43298","5"],
    [25964,"HCEP03730566","2024-06-24 17:45:00","9.6998","3.2384","27.458","4.769","7.61","1.043","3.782","0.13","0.2","29.4607","4.66631","50.67","0","SATNPRO1509","30.934","0.43326","5"],
    [25965,"HCEP03730566","2024-06-24 18:00:00","9.7019","3.23798","27.613","4.769","7.61","1.017","3.652","0.06","0.2","29.4547","4.66542","50.66","0","SATNPRO1509","30.948","0.4335","5"],
    [25966,"HCEP03730566","2024-06-24 18:15:00","9.7023","3.23776","27.733","4.76","7.61","1.033","3.916","0.08","0.43","29.4521","4.66505","50.57","0","SATNPRO1509","31.034","0.43468","5"],
    [25967,"HCEP03730566","2024-06-24 18:30:00","9.7011","3.23814","27.831","4.757","7.61","1.11","3.628","0.22","0.15","29.4568","4.66576","50.54","0","SATNPRO1509","30.916","0.43306","5"],
    [25968,"HCEP03730566","2024-06-24 18:45:00","9.6998","3.23836","27.919","4.752","7.6","1.093","3.579","0.09","0.21","29.4601","4.66625","50.48","0","SATNPRO1509","30.93","0.43324","5"],
    [25969,"HCEP03730566","2024-06-24 19:00:00","9.7005","3.23832","27.946","4.75","7.6","1.107","3.344","0.13","0.21","29.4591","4.6661","50.47","0","SATNPRO1509","30.948","0.43348","5"],
    [25970,"HCEP03730566","2024-06-24 19:15:00","9.6958","3.23929","27.966","4.748","7.6","1.253","3.763","0.15","0.23","29.4727","4.66813","50.45","0","SATNPRO1509","30.832","0.43184","5"],
    [25971,"HCEP03730566","2024-06-24 19:30:00","9.6939","3.23974","28.013","4.763","7.59","1.321","4.153","0.13","0.26","29.4787","4.66903","50.6","0","SATNPRO1509","30.843999999999998","0.43202","5"],
    [25972,"HCEP03730566","2024-06-24 19:45:00","9.6941","3.23978","27.999","4.766","7.59","1.273","4.172","0.12","0.32","29.479","4.66907","50.64","0","SATNPRO1509","30.914","0.43302","5"],
    [25973,"HCEP03730566","2024-06-24 20:00:00","9.6984","3.23892","27.994","4.756","7.59","1.265","3.4","0.21","0.21","29.4668","4.66725","50.53","0","SATNPRO1509","30.806","0.4315","5"],
    [25974,"HCEP03730566","2024-06-24 20:15:00","9.698","3.23894","27.997","4.742","7.59","1.256","3.618","0.1","0.25","29.4674","4.66733","50.38","0","SATNPRO1509","30.936","0.43336","5"],
    [25975,"HCEP03730566","2024-06-24 20:30:00","9.6996","3.23864","27.962","4.728","7.59","1.325","3.811","0.12","0.26","29.4631","4.66669","50.23","0","SATNPRO1509","30.87","0.43238","5"],
    [25976,"HCEP03730566","2024-06-24 20:45:00","9.7039","3.23761","27.942","4.72","7.59","1.278","3.722","0.1","0.32","29.4491","4.66462","50.15","0","SATNPRO1509","30.913999999999998","0.43302","5"],
    [25977,"HCEP03730566","2024-06-24 21:00:00","9.7032","3.23789","27.931","4.717","7.59","1.307","3.812","0.13","0.28","29.4525","4.66511","50.12","0","SATNPRO1509","30.792","0.43126","5"],
    [25978,"HCEP03730566","2024-06-24 21:15:00","9.7063","3.23724","27.867","4.709","7.59","1.248","3.614","0.11","0.28","29.4435","4.66377","50.04","0","SATNPRO1509","30.846","0.43202","5"],
    [25979,"HCEP03730566","2024-06-24 21:30:00","9.7078","3.23686","27.827","4.698","7.58","1.284","3.793","0.11","0.24","29.4384","4.663","49.92","0","SATNPRO1509","30.764","0.43086","5"],
    [25980,"HCEP03730566","2024-06-24 21:45:00","9.7095","3.23631","27.787","4.696","7.59","1.199","3.533","0.09","0.2","29.4315","4.66198","49.9","0","SATNPRO1509","30.906","0.4329","5"],
    [25981,"HCEP03730566","2024-06-24 22:00:00","9.71","3.23616","27.754","4.691","7.58","1.122","3.787","0.11","0.41","29.4298","4.66172","49.84","0","SATNPRO1509","30.814","0.4316","5"],
    [25982,"HCEP03730566","2024-06-24 22:15:00","9.7107","3.23582","27.648","4.68","7.58","1.126","3.53","0.37","0.35","29.4258","4.66114","49.72","0","SATNPRO1509","30.846","0.43206","5"],
    [25983,"HCEP03730566","2024-06-24 22:30:00","9.7105","3.23582","27.548","4.679","7.59","1.088","3.431","0.1","0.26","29.4259","4.66116","49.71","0","SATNPRO1509","30.939999999999998","0.43334","5"],
    [25984,"HCEP03730566","2024-06-24 22:45:00","9.7111","3.2358","27.472","4.681","7.59","1.03","3.087","0.07","0.24","29.4253","4.66105","49.74","0","SATNPRO1509","30.852","0.4321","5"],
    [25985,"HCEP03730566","2024-06-24 23:00:00","9.7097","3.23635","27.394","4.685","7.58","1.157","3.382","0.08","0.27","29.432","4.66203","49.78","0","SATNPRO1509","30.91","0.43298","5"],
    [25986,"HCEP03730566","2024-06-24 23:15:00","9.6972","3.23927","27.254","4.655","7.58","1.435","5.012","0.17","0.36","29.4716","4.66791","49.45","0","SATNPRO1509","30.402","0.42584","5"],
    [25987,"HCEP03730566","2024-06-24 23:30:00","9.695","3.23966","27.132","4.601","7.58","1.463","4.941","0.16","0.28","29.4774","4.66877","48.88","0","SATNPRO1509","30.48","0.42692","5"],
    [25988,"HCEP03730566","2024-06-24 23:45:00","9.6961","3.23935","27.044","4.599","7.58","1.398","5.223","0.11","0.3","29.4735","4.66818","48.87","0","SATNPRO1509","30.432","0.42624","5"],
    [25989,"HCEP03730566","2024-06-25 00:00:00","9.696","3.23949","26.966","4.601","7.58","1.348","4.697","0.12","0.32","29.475","4.66839","48.88","0","SATNPRO1509","30.576","0.4283","5"],
    [25990,"HCEP03730566","2024-06-25 00:15:00","9.7011","3.23806","26.88","4.63","7.58","1.154","3.448","0.12","0.17","29.4564","4.66565","49.19","0","SATNPRO1509","30.768","0.43092","5"],
    [25991,"HCEP03730566","2024-06-25 00:30:00","9.6951","3.23966","26.783","4.657","7.58","1.247","4.143","0.08","0.23","29.4776","4.66877","49.48","0","SATNPRO1509","30.733999999999998","0.43048","5"],
    [25992,"HCEP03730566","2024-06-25 00:45:00","9.694","3.23986","26.709","4.651","7.58","1.232","4.599","0.13","0.66","29.4804","4.66919","49.41","0","SATNPRO1509","30.584","0.4284","5"],
    [25993,"HCEP03730566","2024-06-25 01:00:00","9.6929","3.24012","26.637","4.655","7.58","1.121","4.469","0.07","0.33","29.484","4.66972","49.46","0","SATNPRO1509","30.75","0.43068","5"],
    [25994,"HCEP03730566","2024-06-25 01:15:00","9.693","3.24004","26.615","4.662","7.58","1.067","4.17","0.07","0.37","29.4831","4.66959","49.54","0","SATNPRO1509","30.72","0.4303","5"],
    [25995,"HCEP03730566","2024-06-25 01:30:00","9.6947","3.23955","26.61","4.682","7.58","0.99","3.749","0.05","0.4","29.4768","4.66865","49.74","0","SATNPRO1509","30.733999999999998","0.43052","5"],
    [25996,"HCEP03730566","2024-06-25 01:45:00","9.6978","3.23912","26.62","4.703","7.58","0.888","3.568","0.03","0.32","29.4699","4.66762","49.96","0","SATNPRO1509","30.754","0.43074","5"],
    [25997,"HCEP03730566","2024-06-25 02:00:00","9.6955","3.23947","26.639","4.697","7.59","0.811","4.443","0.05","0.38","29.4753","4.66843","49.9","0","SATNPRO1509","30.868","0.43232","5"],
    [25998,"HCEP03730566","2024-06-25 02:15:00","9.6944","3.23977","26.685","4.682","7.58","0.703","4.533","0.02","0.21","29.4792","4.66901","49.74","0","SATNPRO1509","30.684","0.42982","5"],
    [25999,"HCEP03730566","2024-06-25 02:30:00","9.6945","3.23976","26.741","4.671","7.58","0.594","4.776","0.01","0.31","29.479","4.66898","49.63","0","SATNPRO1509","30.612","0.4288","5"],
    [26000,"HCEP03730566","2024-06-25 02:45:00","9.6958","3.23948","26.812","4.661","7.58","0.478","4.753","0.01","0.31","29.4751","4.66841","49.52","0","SATNPRO1509","30.648","0.42928","5"],
    [26001,"HCEP03730566","2024-06-25 03:00:00","9.6952","3.23962","26.851","4.657","7.58","0.363","6.11","0.01","0.69","29.477","4.66869","49.47","0","SATNPRO1509","30.72","0.43028","5"],
    [26002,"HCEP03730566","2024-06-25 03:15:00","9.6978","3.23884","26.916","4.658","7.58","0.261","7.69","0.01","0.28","29.4669","4.66721","49.49","0","SATNPRO1509","30.682","0.42978","5"],
    [26003,"HCEP03730566","2024-06-25 03:30:00","9.6957","3.23952","26.989","4.657","7.58","0.19","13.098","0.01","0.28","29.4755","4.66848","49.47","0","SATNPRO1509","30.692","0.42986","5"],
    [26004,"HCEP03730566","2024-06-25 03:45:00","9.6962","3.23945","27.038","4.664","7.58","0.152","21.925","0.01","0.32","29.4744","4.66831","49.55","0","SATNPRO1509","30.64","0.4292","5"],
    [26005,"HCEP03730566","2024-06-25 04:00:00","9.6958","3.23951","27.1","4.662","7.58","0.155","36.862","0.02","0.33","29.4753","4.66845","49.53","0","SATNPRO1509","30.64","0.42914","5"],
    [26006,"HCEP03730566","2024-06-25 04:15:00","9.6973","3.23924","27.154","4.668","7.58","0.19","58.113","0.02","0.38","29.4714","4.66787","49.6","0","SATNPRO1509","30.818","0.43166","5"],
    [26007,"HCEP03730566","2024-06-25 04:30:00","9.6972","3.23912","27.197","4.689","7.58","0.225","85.565","0.06","0.25","29.4702","4.6677","49.82","0","SATNPRO1509","31.074","0.43526","5"],
    [26008,"HCEP03730566","2024-06-25 04:45:00","9.6957","3.23953","27.267","4.695","7.58","0.29","116.847","0.03","0.4","29.4755","4.66848","49.88","0","SATNPRO1509","30.77","0.431","5"],
    [26009,"HCEP03730566","2024-06-25 05:00:00","9.6923","3.24028","27.31","4.684","7.58","0.344","134.558","0.03","0.45","29.4857","4.67002","49.77","0","SATNPRO1509","30.588","0.42848","5"],
    [26010,"HCEP03730566","2024-06-25 05:15:00","9.692","3.24028","27.356","4.69","7.58","0.437","139.423","0.07","0.53","29.486","4.67007","49.83","0","SATNPRO1509","30.932000000000002","0.43322","5"],
    [26011,"HCEP03730566","2024-06-25 05:30:00","9.6926","3.24007","27.397","4.693","7.58","0.508","138.647","0.08","0.48","29.4835","4.66969","49.86","0","SATNPRO1509","30.758","0.43082","5"],
    [26012,"HCEP03730566","2024-06-25 05:45:00","9.6942","3.23976","27.424","4.7","7.58","0.53","133.033","0.07","2.11","29.479","4.66902","49.93","0","SATNPRO1509","30.778","0.4311","5"],
    [26013,"HCEP03730566","2024-06-25 06:00:00","9.6968","3.23909","27.444","4.695","7.58","0.917","130.862","0.6","1.05","29.4701","4.66771","49.88","0","SATNPRO1509","30.786","0.43122","5"],
    [26014,"HCEP03730566","2024-06-25 06:15:00","9.6993","3.23851","27.451","4.677","7.58","0.757","127.626","0.28","0.08","29.4622","4.66654","49.69","0","SATNPRO1509","30.914","0.43302","5"],
    [26015,"HCEP03730566","2024-06-25 06:30:00","9.7043","3.23739","27.432","4.649","7.58","0.778","123.579","0.73","0.08","29.4469","4.66425","49.39","0","SATNPRO1509","30.843999999999998","0.43202","5"],
    [26016,"HCEP03730566","2024-06-25 06:45:00","9.709","3.23645","27.407","4.603","7.58","0.608","98.985","0.11","0","29.4335","4.66226","48.91","0","SATNPRO1509","30.732","0.43048","5"],
    [26017,"HCEP03730566","2024-06-25 07:00:00","9.7119","3.23577","27.344","4.578","7.58","0.502","62.983","0.08","0.03","29.4244","4.66091","48.64","0","SATNPRO1509","30.922","0.43308","5"],
    [26018,"HCEP03730566","2024-06-25 07:15:00","9.7107","3.23618","27.287","4.549","7.57","0.524","32.535","0.06","0.02","29.4295","4.66165","48.34","0","SATNPRO1509","30.488","0.42702","5"],
    [26019,"HCEP03730566","2024-06-25 07:30:00","9.7126","3.23565","27.209","4.501","7.57","0.468","10.494","0.1","0.02","29.4226","4.66062","47.82","0","SATNPRO1509","30.614","0.42882","5"],
    [26020,"HCEP03730566","2024-06-25 07:45:00","9.7144","3.23529","27.114","4.469","7.57","0.46","2.177","0.1","0.05","29.4175","4.65985","47.48","0","SATNPRO1509","30.406","0.4259","5"],
    [26021,"HCEP03730566","2024-06-25 08:00:00","9.7147","3.23532","26.98","4.439","7.55","0.398","0.463","0.07","0.02","29.4176","4.65986","47.16","0","SATNPRO1509","30.498","0.42718","5"],
    [26022,"HCEP03730566","2024-06-25 08:15:00","9.7126","3.23576","26.825","4.436","7.55","0.301","0.318","0.03","0.01","29.4239","4.66079","47.14","0","SATNPRO1509","30.318","0.42464","5"],
    [26023,"HCEP03730566","2024-06-25 08:30:00","9.7103","3.2362","26.667","4.438","7.55","0.274","0.335","0.02","0.01","29.4302","4.66173","47.16","0","SATNPRO1509","30.516","0.42738","5"],
    [26024,"HCEP03730566","2024-06-25 08:45:00","9.7093","3.23636","26.487","4.443","7.56","0.236","0.363","0.04","0.01","29.4328","4.66209","47.21","0","SATNPRO1509","30.342","0.42498","5"],
    [26025,"HCEP03730566","2024-06-25 09:00:00","9.7079","3.23669","26.284","4.435","7.56","0.222","0.459","0.02","0.02","29.4373","4.66276","47.12","0","SATNPRO1509","30.382","0.42556","5"],
    [26026,"HCEP03730566","2024-06-25 09:15:00","9.7069","3.23689","26.112","4.433","7.56","0.213","0.578","0.02","0.04","29.4402","4.66317","47.1","0","SATNPRO1509","30.404","0.42584","5"],
    [26027,"HCEP03730566","2024-06-25 09:30:00","9.7051","3.23731","25.911","4.438","7.56","0.216","0.724","0.02","0.09","29.446","4.66403","47.15","0","SATNPRO1509","30.128","0.422","5"],
    [26028,"HCEP03730566","2024-06-25 09:45:00","9.7048","3.23737","25.709","4.444","7.56","0.221","0.868","0.02","0.19","29.4469","4.66415","47.22","0","SATNPRO1509","30.483999999999998","0.427","5"],
    [26029,"HCEP03730566","2024-06-25 10:00:00","9.705","3.23737","25.482","4.45","7.56","0.226","0.814","0.02","0.04","29.4468","4.66412","47.28","0","SATNPRO1509","30.454","0.42656","5"],
    [26030,"HCEP03730566","2024-06-25 10:15:00","9.705","3.23731","25.28","4.455","7.56","0.262","0.933","0.05","0.15","29.4462","4.66403","47.34","0","SATNPRO1509","30.402","0.4258","5"],
    [26031,"HCEP03730566","2024-06-25 10:30:00","9.7046","3.2374","25.059","4.463","7.56","0.285","0.98","0.05","0.07","29.4476","4.66422","47.42","0","SATNPRO1509","30.502","0.42724","5"],
    [26032,"HCEP03730566","2024-06-25 10:45:00","9.7048","3.23737","24.882","4.474","7.55","0.355","1.116","0.05","0.07","29.4472","4.66415","47.54","0","SATNPRO1509","30.524","0.42754","5"],
    [26033,"HCEP03730566","2024-06-25 11:00:00","9.7047","3.2373","24.64","4.481","7.55","0.406","1.159","0.12","0.09","29.4467","4.66406","47.61","0","SATNPRO1509","30.578","0.4283","5"],
    [26034,"HCEP03730566","2024-06-25 11:15:00","9.705","3.23723","24.441","4.488","7.55","0.512","1.369","0.11","0.09","29.4458","4.66391","47.68","0","SATNPRO1509","30.642","0.4292","5"],
    [26035,"HCEP03730566","2024-06-25 11:30:00","9.7055","3.23712","24.229","4.493","7.55","0.671","1.427","0.27","0.11","29.4445","4.66371","47.74","0","SATNPRO1509","30.566","0.42816","5"],
    [26036,"HCEP03730566","2024-06-25 11:45:00","9.7058","3.23714","24.073","4.505","7.56","0.7","1.748","0.6","0.65","29.4445","4.66369","47.87","0","SATNPRO1509","30.509999999999998","0.42734","5"],
    [26037,"HCEP03730566","2024-06-25 12:00:00","9.7054","3.23711","23.961","4.522","7.56","0.605","1.719","0.1","0.12","29.4445","4.6637","48.04","0","SATNPRO1509","30.618","0.42884","5"],
    [26038,"HCEP03730566","2024-06-25 12:15:00","9.705","3.23731","23.913","4.542","7.56","0.675","1.891","0.12","0.17","29.4469","4.66404","48.26","0","SATNPRO1509","30.844","0.43202","5"],
    [26039,"HCEP03730566","2024-06-25 12:30:00","9.7048","3.23738","23.833","4.541","7.56","0.841","2.158","0.23","0.13","29.4478","4.66417","48.25","0","SATNPRO1509","30.74","0.43058","5"],
    [26040,"HCEP03730566","2024-06-25 12:45:00","9.7049","3.23732","23.856","4.557","7.56","0.856","2.25","0.15","0.21","29.4471","4.66407","48.41","0","SATNPRO1509","30.736","0.43056","5"],
    [26041,"HCEP03730566","2024-06-25 13:00:00","9.7033","3.23761","23.901","4.574","7.57","0.838","2.344","0.11","0.16","29.4513","4.6647","48.6","0","SATNPRO1509","30.82","0.43168","5"],
    [26042,"HCEP03730566","2024-06-25 13:15:00","9.7018","3.23799","23.938","4.578","7.57","0.959","2.759","0.1","0.16","29.4563","4.66544","48.64","0","SATNPRO1509","30.714","0.43022","5"],
    [26043,"HCEP03730566","2024-06-25 13:30:00","9.7016","3.23796","23.993","4.566","7.57","0.99","2.537","0.31","0.29","29.4562","4.66544","48.51","0","SATNPRO1509","30.794","0.43132","5"],
    [26044,"HCEP03730566","2024-06-25 13:45:00","9.7032","3.23761","24.08","4.623","7.57","0.847","2.02","0.14","0.1","29.4513","4.66472","49.11","0","SATNPRO1509","30.93","0.43322","5"],
    [26045,"HCEP03730566","2024-06-25 14:00:00","9.7054","3.23694","24.186","4.694","7.58","0.793","1.913","0.28","0.08","29.4428","4.66346","49.87","0","SATNPRO1509","30.984","0.434","5"],
    [26046,"HCEP03730566","2024-06-25 14:15:00","9.7041","3.23752","24.336","4.705","7.58","1.027","3.088","0.13","0.29","29.4495","4.66446","49.99","0","SATNPRO1509","31.16","0.43646","5"],
    [26047,"HCEP03730566","2024-06-25 14:30:00","9.701","3.23826","24.498","4.676","7.58","1.185","3.63","0.1","0.19","29.4595","4.66595","49.68","0","SATNPRO1509","30.644000000000002","0.42924","5"],
    [26048,"HCEP03730566","2024-06-25 14:45:00","9.7045","3.23734","24.589","4.65","7.58","0.985","2.602","0.13","0.32","29.4473","4.66414","49.41","0","SATNPRO1509","31.302","0.4385","5"],
    [26049,"HCEP03730566","2024-06-25 15:00:00","9.7033","3.23781","24.735","4.649","7.58","1.404","4.276","0.21","0.3","29.4529","4.66498","49.4","0","SATNPRO1509","30.732","0.4305","5"],
    [26050,"HCEP03730566","2024-06-25 15:15:00","9.7083","3.2366","24.928","4.546","7.58","1.15","3.158","0.13","0.17","29.4366","4.66257","48.3","0","SATNPRO1509","30.706","0.43008","5"],
    [26051,"HCEP03730566","2024-06-25 15:30:00","9.7067","3.23695","25.127","4.517","7.58","1.254","3.458","0.14","0.16","29.4413","4.66328","48","0","SATNPRO1509","30.868","0.4324","5"],
    [26052,"HCEP03730566","2024-06-25 15:45:00","9.7027","3.23795","25.345","4.505","7.57","1.39","3.805","0.2","0.23","29.4547","4.66528","47.87","0","SATNPRO1509","30.754","0.4308","5"],
    [26053,"HCEP03730566","2024-06-25 16:00:00","9.7013","3.23838","25.54","4.483","7.56","1.572","4.495","0.18","0.26","29.46","4.66607","47.63","0","SATNPRO1509","30.3","0.42444","5"],
    [26054,"HCEP03730566","2024-06-25 16:15:00","9.7003","3.23861","25.744","4.448","7.56","1.691","4.782","0.18","0.25","29.4631","4.66655","47.26","0","SATNPRO1509","30.42","0.42608","5"],
    [26055,"HCEP03730566","2024-06-25 16:30:00","9.6998","3.23878","25.967","4.43","7.57","1.623","4.775","0.12","0.12","29.4652","4.66687","47.06","0","SATNPRO1509","30.444","0.42644","5"],
    [26056,"HCEP03730566","2024-06-25 16:45:00","9.699","3.23886","26.189","4.452","7.57","1.382","4.023","0.1","0.13","29.4665","4.66709","47.3","0","SATNPRO1509","30.456","0.42658","5"],
    [26057,"HCEP03730566","2024-06-25 17:00:00","9.698","3.23907","26.428","4.492","7.57","1.25","3.323","0.23","0.12","29.4692","4.66751","47.72","0","SATNPRO1509","30.79","0.4313","5"],
    [26058,"HCEP03730566","2024-06-25 17:15:00","9.698","3.23912","26.64","4.538","7.58","1.188","3.763","0.09","0.19","29.4698","4.66759","48.22","0","SATNPRO1509","30.694","0.42992","5"],
    [26059,"HCEP03730566","2024-06-25 17:30:00","9.6986","3.23885","26.84","4.542","7.58","1.168","3.283","0.1","0.14","29.4665","4.66712","48.26","0","SATNPRO1509","30.734","0.4305","5"],
    [26060,"HCEP03730566","2024-06-25 17:45:00","9.6981","3.23911","27.056","4.596","7.58","1.233","3.536","0.12","0.14","29.4694","4.66756","48.83","0","SATNPRO1509","30.674","0.42964","5"],
    [26061,"HCEP03730566","2024-06-25 18:00:00","9.6985","3.23908","27.25","4.529","7.58","1.307","4.164","0.09","0.19","29.4686","4.66746","48.12","0","SATNPRO1509","30.558","0.42798","5"],
    [26062,"HCEP03730566","2024-06-25 18:15:00","9.6987","3.23909","27.39","4.498","7.58","1.317","4.404","0.16","0.2","29.4686","4.66745","47.79","0","SATNPRO1509","30.596","0.42856","5"],
    [26063,"HCEP03730566","2024-06-25 18:30:00","9.6988","3.23893","27.557","4.488","7.58","1.196","3.782","0.07","0.09","29.4667","4.6672","47.69","0","SATNPRO1509","30.556","0.42798","5"],
    [26064,"HCEP03730566","2024-06-25 18:45:00","9.6989","3.23891","27.644","4.491","7.58","1.245","3.823","0.13","0.1","29.4665","4.66716","47.72","0","SATNPRO1509","30.578","0.4283","5"],
    [26065,"HCEP03730566","2024-06-25 19:00:00","9.6999","3.23875","27.795","4.491","7.58","1.196","3.463","0.09","0.13","29.464","4.66681","47.72","0","SATNPRO1509","30.624000000000002","0.42892","5"],
    [26066,"HCEP03730566","2024-06-25 19:15:00","9.7005","3.23883","27.878","4.468","7.58","1.256","3.936","0.1","0.13","29.4643","4.66684","47.48","0","SATNPRO1509","30.451999999999998","0.4265","5"],
    [26067,"HCEP03730566","2024-06-25 19:30:00","9.7004","3.23882","27.929","4.435","7.57","1.44","4.312","0.26","0.29","29.4642","4.66683","47.13","0","SATNPRO1509","30.396","0.42576","5"],
    [26068,"HCEP03730566","2024-06-25 19:45:00","9.7008","3.23874","27.982","4.429","7.57","1.375","4.275","0.12","0.76","29.463","4.66666","47.06","0","SATNPRO1509","30.48","0.42692","5"],
    [26069,"HCEP03730566","2024-06-25 20:00:00","9.7016","3.23858","28.024","4.433","7.57","1.34","3.895","0.15","0.21","29.4608","4.66633","47.1","0","SATNPRO1509","30.492","0.42708","5"],
    [26070,"HCEP03730566","2024-06-25 20:15:00","9.7021","3.23851","28.066","4.441","7.57","1.536","4.334","0.45","0.58","29.4597","4.66616","47.19","0","SATNPRO1509","30.456","0.42656","5"],
    [26071,"HCEP03730566","2024-06-25 20:30:00","9.7038","3.23805","28.034","4.465","7.57","1.083","3.314","0.15","0.29","29.4536","4.66527","47.44","0","SATNPRO1509","30.614","0.42882","5"],
    [26072,"HCEP03730566","2024-06-25 20:45:00","9.7022","3.23838","28.036","4.491","7.57","1.182","3.792","0.12","0.26","29.4583","4.66596","47.72","0","SATNPRO1509","30.654","0.42932","5"],
    [26073,"HCEP03730566","2024-06-25 21:00:00","9.702","3.23841","28.028","4.467","7.57","1.316","3.886","0.5","0.31","29.4588","4.66603","47.46","0","SATNPRO1509","30.578","0.4283","5"],
    [26074,"HCEP03730566","2024-06-25 21:15:00","9.7019","3.23839","28.032","4.452","7.57","1.088","3.739","0.12","0.32","29.4586","4.66601","47.31","0","SATNPRO1509","30.624","0.4289","5"],
    [26075,"HCEP03730566","2024-06-25 21:30:00","9.7016","3.23849","28.027","4.439","7.57","1.095","3.938","0.1","0.21","29.4599","4.6662","47.16","0","SATNPRO1509","30.428","0.42618","5"],
    [26076,"HCEP03730566","2024-06-25 21:45:00","9.7016","3.2385","27.984","4.418","7.57","1.107","4.135","0.11","0.31","29.46","4.66621","46.94","0","SATNPRO1509","30.451999999999998","0.42654","5"],
    [26077,"HCEP03730566","2024-06-25 22:00:00","9.7017","3.23849","27.925","4.405","7.57","1.114","4.125","0.09","0.27","29.4599","4.66619","46.8","0","SATNPRO1509","30.44","0.42638","5"],
    [26078,"HCEP03730566","2024-06-25 22:15:00","9.702","3.23838","27.86","4.402","7.57","1.056","3.906","0.1","0.33","29.4585","4.66598","46.77","0","SATNPRO1509","30.574","0.42826","5"],
    [26079,"HCEP03730566","2024-06-25 22:30:00","9.7028","3.23813","27.776","4.412","7.57","0.869","3.234","0.08","0.11","29.4554","4.66552","46.88","0","SATNPRO1509","30.624","0.42892","5"],
    [26080,"HCEP03730566","2024-06-25 22:45:00","9.7021","3.23828","27.695","4.426","7.57","0.908","3.484","0.09","0.13","29.4575","4.66583","47.02","0","SATNPRO1509","30.472","0.4268","5"],
    [26081,"HCEP03730566","2024-06-25 23:00:00","9.7023","3.23828","27.591","4.407","7.57","1.01","6.658","0.17","3.13","29.4573","4.66579","46.83","0","SATNPRO1509","30.578","0.4283","5"],
    [26082,"HCEP03730566","2024-06-25 23:15:00","9.7023","3.23822","27.49","4.401","7.56","0.777","3.388","0.07","0.38","29.4568","4.66571","46.76","0","SATNPRO1509","30.548","0.4279","5"],
    [26083,"HCEP03730566","2024-06-25 23:30:00","9.7025","3.23819","27.41","4.415","7.56","0.673","2.948","0.06","0.15","29.4564","4.66565","46.91","0","SATNPRO1509","30.483999999999998","0.42698","5"],
    [26084,"HCEP03730566","2024-06-25 23:45:00","9.7017","3.23841","27.284","4.411","7.56","0.728","3.403","0.09","0.16","29.4592","4.66606","46.87","0","SATNPRO1509","30.448","0.4265","5"],
    [26085,"HCEP03730566","2024-06-26 00:00:00","9.7016","3.23842","27.167","4.377","7.56","0.781","4.003","0.13","0.27","29.4596","4.6661","46.5","0","SATNPRO1509","30.328","0.4248","5"],
    [26086,"HCEP03730566","2024-06-26 00:15:00","9.7016","3.23859","27.051","4.351","7.56","0.877","4.629","0.09","0.22","29.4613","4.66634","46.23","0","SATNPRO1509","30.344","0.42502","5"],
    [26087,"HCEP03730566","2024-06-26 00:30:00","9.7008","3.23874","26.944","4.299","7.56","0.929","4.664","0.14","0.28","29.4635","4.66666","45.68","0","SATNPRO1509","30.09","0.42148","5"],
    [26088,"HCEP03730566","2024-06-26 00:45:00","9.7","3.23902","26.829","4.274","7.55","0.962","4.923","0.09","0.22","29.4671","4.66719","45.41","0","SATNPRO1509","30","0.42018","5"],
    [26089,"HCEP03730566","2024-06-26 01:00:00","9.6995","3.23924","26.726","4.246","7.55","1.033","4.816","0.22","0.26","29.4697","4.66757","45.11","0","SATNPRO1509","29.984","0.41998","5"],
    [26090,"HCEP03730566","2024-06-26 01:15:00","9.6995","3.23911","26.63","4.253","7.55","0.927","4.928","0.11","0.17","29.4685","4.66738","45.19","0","SATNPRO1509","30.246","0.42364","5"],
    [26091,"HCEP03730566","2024-06-26 01:30:00","9.7009","3.2386","26.559","4.305","7.55","0.799","5.431","0.24","0.29","29.4621","4.66644","45.74","0","SATNPRO1509","30.445999999999998","0.42642","5"],
    [26092,"HCEP03730566","2024-06-26 01:45:00","9.7002","3.23881","26.498","4.37","7.55","0.783","7.754","0.08","0.14","29.4648","4.66684","46.43","0","SATNPRO1509","30.36","0.42528","5"],
    [26093,"HCEP03730566","2024-06-26 02:00:00","9.7002","3.23886","26.467","4.356","7.56","0.807","13.471","0.09","0.13","29.4654","4.66692","46.29","0","SATNPRO1509","30.336000000000002","0.42492","5"],
    [26094,"HCEP03730566","2024-06-26 02:15:00","9.7","3.23902","26.463","4.351","7.56","0.923","21.26","0.13","0.32","29.4672","4.66718","46.23","0","SATNPRO1509","30.33","0.4248","5"],
    [26095,"HCEP03730566","2024-06-26 02:30:00","9.6994","3.23921","26.449","4.303","7.55","0.911","27.221","0.12","0.22","29.4695","4.66752","45.72","0","SATNPRO1509","30.114","0.42174","5"],
    [26096,"HCEP03730566","2024-06-26 02:45:00","9.6994","3.23908","26.44","4.284","7.55","0.837","29.389","0.12","0.14","29.4683","4.66735","45.52","0","SATNPRO1509","30.27","0.42398","5"],
    [26097,"HCEP03730566","2024-06-26 03:00:00","9.7","3.23903","26.475","4.287","7.55","0.867","33.82","0.09","0.11","29.4672","4.66718","45.55","0","SATNPRO1509","29.944","0.41938","5"],
    [26098,"HCEP03730566","2024-06-26 03:15:00","9.7009","3.23887","26.509","4.262","7.55","0.833","37.586","0.1","0.1","29.4649","4.66684","45.28","0","SATNPRO1509","29.982","0.41992","5"],
    [26099,"HCEP03730566","2024-06-26 03:30:00","9.7008","3.23892","26.556","4.239","7.55","0.826","39.313","0.06","0.14","29.4654","4.66692","45.04","0","SATNPRO1509","29.91","0.41892","5"],
    [26100,"HCEP03730566","2024-06-26 03:45:00","9.7004","3.23907","26.597","4.21","7.55","0.791","37.054","0.05","0.17","29.4672","4.66719","44.74","0","SATNPRO1509","29.802","0.41742","5"],
    [26101,"HCEP03730566","2024-06-26 04:00:00","9.7","3.23919","26.656","4.197","7.55","0.76","33.035","0.12","0.14","29.4688","4.66742","44.6","0","SATNPRO1509","29.844","0.41798","5"],
    [26102,"HCEP03730566","2024-06-26 04:15:00","9.7004","3.23902","26.702","4.205","7.55","0.757","28.53","0.07","0.12","29.4667","4.66712","44.68","0","SATNPRO1509","29.996","0.42016","5"],
    [26103,"HCEP03730566","2024-06-26 04:30:00","9.7006","3.23899","26.735","4.211","7.55","0.743","25.116","0.04","0.07","29.4662","4.66704","44.75","0","SATNPRO1509","29.928","0.4192","5"],
    [26104,"HCEP03730566","2024-06-26 04:45:00","9.7013","3.23875","26.817","4.201","7.55","0.792","24.795","0.05","0.12","29.4633","4.66661","44.64","0","SATNPRO1509","29.872","0.41838","5"],
    [26105,"HCEP03730566","2024-06-26 05:00:00","9.7023","3.23842","26.863","4.183","7.55","0.756","24.431","0.04","0.1","29.4591","4.666","44.45","0","SATNPRO1509","30.016000000000002","0.4204","5"],
    [26106,"HCEP03730566","2024-06-26 05:15:00","9.7015","3.23888","26.931","4.186","7.55","0.785","24.196","0.06","0.11","29.4644","4.66677","44.48","0","SATNPRO1509","29.942","0.41936","5"],
    [26107,"HCEP03730566","2024-06-26 05:30:00","9.7025","3.23856","26.999","4.179","7.55","0.714","25.358","0.05","0.13","29.4604","4.66619","44.4","0","SATNPRO1509","29.982","0.41998","5"],
    [26108,"HCEP03730566","2024-06-26 05:45:00","9.7023","3.23862","27.061","4.158","7.56","0.815","27.427","0.09","0.3","29.461","4.66629","44.18","0","SATNPRO1509","29.928","0.41918","5"],
    [26109,"HCEP03730566","2024-06-26 06:00:00","9.7028","3.23857","27.111","4.144","7.56","0.782","27.397","0.04","0.14","29.4601","4.66615","44.04","0","SATNPRO1509","29.808","0.4175","5"],
    [26110,"HCEP03730566","2024-06-26 06:15:00","9.7038","3.23832","27.176","4.133","7.56","0.766","26.512","0.03","0.15","29.4567","4.66565","43.92","0","SATNPRO1509","29.936","0.41936","5"],
    [26111,"HCEP03730566","2024-06-26 06:30:00","9.7036","3.23843","27.209","4.135","7.56","0.812","25.446","0.06","0.15","29.458","4.66584","43.94","0","SATNPRO1509","29.772","0.41704","5"],
    [26112,"HCEP03730566","2024-06-26 06:45:00","9.7035","3.23839","27.233","4.124","7.55","0.8","23.57","0.05","0.16","29.4576","4.6658","43.82","0","SATNPRO1509","29.894","0.41872","5"],
    [26113,"HCEP03730566","2024-06-26 07:00:00","9.7043","3.23822","27.271","4.11","7.55","0.894","20.133","0.09","0.38","29.4553","4.66544","43.67","0","SATNPRO1509","29.73","0.4164","5"],
    [26114,"HCEP03730566","2024-06-26 07:15:00","9.7045","3.23822","27.272","4.085","7.55","0.865","14.689","0.1","0.29","29.4551","4.66542","43.41","0","SATNPRO1509","29.516","0.4134","5"],
    [26115,"HCEP03730566","2024-06-26 07:30:00","9.7041","3.23825","27.282","4.092","7.55","0.762","15.499","0.07","0.18","29.4558","4.66552","43.48","0","SATNPRO1509","29.862000000000002","0.41826","5"],
    [26116,"HCEP03730566","2024-06-26 07:45:00","9.7039","3.23821","27.236","4.092","7.55","0.753","21.007","0.05","0.1","29.4555","4.66548","43.48","0","SATNPRO1509","29.812","0.41754","5"],
    [26117,"HCEP03730566","2024-06-26 08:00:00","9.7035","3.23823","27.153","4.13","7.55","0.726","23.5","0.05","0.13","29.456","4.66556","43.88","0","SATNPRO1509","29.994","0.42008","5"],
    [26118,"HCEP03730566","2024-06-26 08:15:00","9.703","3.23826","27.119","4.196","7.55","0.692","24.761","0.08","0.16","29.4568","4.66568","44.59","0","SATNPRO1509","30.114","0.42176","5"],
    [26119,"HCEP03730566","2024-06-26 08:30:00","9.7043","3.23807","27.048","4.17","7.56","0.755","27.06","0.05","0.11","29.4539","4.66523","44.3","0","SATNPRO1509","29.852","0.41808","5"],
    [26120,"HCEP03730566","2024-06-26 08:45:00","9.7039","3.23806","26.928","4.15","7.55","0.772","25.976","0.08","0.12","29.4541","4.66526","44.09","0","SATNPRO1509","29.916","0.41902","5"],
    [26121,"HCEP03730566","2024-06-26 09:00:00","9.705","3.23783","26.768","4.115","7.55","0.851","23.616","0.05","0.18","29.4509","4.66478","43.72","0","SATNPRO1509","29.812","0.41758","5"],
    [26122,"HCEP03730566","2024-06-26 09:15:00","9.7043","3.23795","26.66","4.125","7.55","0.875","21.406","0.12","0.1","29.4528","4.66505","43.83","0","SATNPRO1509","30.134","0.42204","5"],
    [26123,"HCEP03730566","2024-06-26 09:30:00","9.7038","3.23805","26.508","4.229","7.55","0.638","19.334","0.07","0.05","29.4542","4.66526","44.94","0","SATNPRO1509","30.052","0.42094","5"],
    [26124,"HCEP03730566","2024-06-26 09:45:00","9.7045","3.23801","26.358","4.229","7.54","0.661","19.178","0.08","0.19","29.4534","4.66513","44.93","0","SATNPRO1509","29.95","0.41952","5"],
    [26125,"HCEP03730566","2024-06-26 10:00:00","9.7046","3.23794","26.188","4.172","7.53","0.712","21.552","0.1","0.13","29.4526","4.66499","44.33","0","SATNPRO1509","29.822","0.41772","5"],
    [26126,"HCEP03730566","2024-06-26 10:15:00","9.705","3.23787","26.021","4.146","7.54","0.759","23.758","0.07","0.14","29.4517","4.66485","44.05","0","SATNPRO1509","29.82","0.4177","5"],
    [26127,"HCEP03730566","2024-06-26 10:30:00","9.7049","3.23773","25.837","4.382","7.55","0.611","25.9","0.05","0.09","29.4504","4.66466","46.56","0","SATNPRO1509","30.442","0.42638","5"],
    [26128,"HCEP03730566","2024-06-26 10:45:00","9.705","3.23759","25.618","4.261","7.56","0.604","26.772","0.04","0.05","29.449","4.66444","45.28","0","SATNPRO1509","30.433999999999997","0.4263","5"],
    [26129,"HCEP03730566","2024-06-26 11:00:00","9.7053","3.23764","25.436","4.234","7.56","0.646","27.207","0.05","0.05","29.4493","4.66447","44.99","0","SATNPRO1509","29.962","0.41966","5"],
    [26130,"HCEP03730566","2024-06-26 11:15:00","9.7072","3.23713","25.258","4.185","7.56","0.517","25.959","0.11","0.09","29.4428","4.6635","44.47","0","SATNPRO1509","30.894","0.4327","5"],
    [26131,"HCEP03730566","2024-06-26 11:30:00","9.7044","3.23784","25.059","4.22","7.56","0.622","24.249","0.12","0.09","29.4523","4.66489","44.84","0","SATNPRO1509","30.064","0.4211","5"],
    [26132,"HCEP03730566","2024-06-26 11:45:00","9.7043","3.23795","24.829","4.204","7.56","0.7","21.551","0.15","0.08","29.4536","4.66507","44.66","0","SATNPRO1509","29.954","0.41952","5"],
    [26133,"HCEP03730566","2024-06-26 12:00:00","9.7043","3.23784","24.666","4.166","7.55","0.615","18.295","0.05","0.08","29.4525","4.6649","44.27","0","SATNPRO1509","29.894","0.41868","5"],
    [26134,"HCEP03730566","2024-06-26 12:15:00","9.7038","3.238","24.514","4.162","7.55","0.569","14.265","0.07","0.35","29.4545","4.66519","44.22","0","SATNPRO1509","29.894","0.41876","5"],
    [26135,"HCEP03730566","2024-06-26 12:30:00","9.704","3.23788","24.325","4.185","7.54","0.59","10.794","0.08","0.23","29.4533","4.66499","44.46","0","SATNPRO1509","30.028","0.42058","5"],
    [26136,"HCEP03730566","2024-06-26 12:45:00","9.7033","3.23801","24.169","4.212","7.54","0.559","8.041","0.06","0.27","29.4552","4.66527","44.76","0","SATNPRO1509","30.16","0.42242","5"],
    [26137,"HCEP03730566","2024-06-26 13:00:00","9.7041","3.23795","24.051","4.196","7.54","0.7","6.205","0.11","0.17","29.4541","4.66509","44.58","0","SATNPRO1509","29.734","0.41648","5"],
    [26138,"HCEP03730566","2024-06-26 13:15:00","9.7034","3.23806","23.953","4.135","7.53","0.64","5.168","0.1","0.21","29.4558","4.66534","43.94","0","SATNPRO1509","29.918","0.41904","5"],
    [26139,"HCEP03730566","2024-06-26 13:30:00","9.7031","3.23809","23.956","4.14","7.53","0.654","4.329","0.08","0.18","29.4562","4.66542","43.99","0","SATNPRO1509","29.946","0.4194","5"],
    [26140,"HCEP03730566","2024-06-26 13:45:00","9.7006","3.23877","24.091","4.21","7.53","0.727","4.547","0.08","0.24","29.4651","4.66673","44.74","0","SATNPRO1509","30.298","0.42436","5"],
    [26141,"HCEP03730566","2024-06-26 14:00:00","9.7009","3.23864","24.089","4.31","7.54","0.675","4.099","0.07","0.32","29.4635","4.6665","45.8","0","SATNPRO1509","30.542","0.42776","5"],
    [26142,"HCEP03730566","2024-06-26 14:15:00","9.7008","3.23864","24.18","4.332","7.54","0.768","3.959","0.1","0.22","29.4636","4.66652","46.03","0","SATNPRO1509","30.392","0.4257","5"],
    [26143,"HCEP03730566","2024-06-26 14:30:00","9.7005","3.23886","24.2","4.335","7.54","0.778","4.055","0.12","0.29","29.4661","4.66688","46.06","0","SATNPRO1509","30.342","0.42498","5"],
    [26144,"HCEP03730566","2024-06-26 14:45:00","9.701","3.23858","24.287","4.337","7.54","0.732","3.12","0.33","0.22","29.4629","4.66642","46.08","0","SATNPRO1509","30.368","0.42534","5"],
    [26145,"HCEP03730566","2024-06-26 15:00:00","9.7001","3.23886","24.432","4.346","7.54","0.705","2.902","0.13","0.12","29.4662","4.66692","46.18","0","SATNPRO1509","30.322","0.42468","5"],
    [26146,"HCEP03730566","2024-06-26 15:15:00","9.6992","3.23919","24.577","4.364","7.55","0.687","3.269","0.09","0.15","29.4704","4.66754","46.37","0","SATNPRO1509","30.496000000000002","0.42712","5"],
    [26147,"HCEP03730566","2024-06-26 15:30:00","9.6995","3.23894","24.761","4.392","7.55","0.59","2.851","0.07","0.13","29.4675","4.66713","46.66","0","SATNPRO1509","30.702","0.43004","5"],
    [26148,"HCEP03730566","2024-06-26 15:45:00","9.6989","3.23922","24.969","4.418","7.55","0.807","3.022","0.14","0.21","29.4707","4.66762","46.94","0","SATNPRO1509","30.528","0.42762","5"],
    [26149,"HCEP03730566","2024-06-26 16:00:00","9.6991","3.23918","25.117","4.41","7.55","0.878","3.364","0.38","0.18","29.4701","4.66753","46.86","0","SATNPRO1509","30.398","0.4258","5"],
    [26150,"HCEP03730566","2024-06-26 16:15:00","9.6995","3.23933","25.308","4.369","7.55","0.863","4.355","0.11","0.28","29.4712","4.6677","46.42","0","SATNPRO1509","30.266","0.42394","5"],
    [26151,"HCEP03730566","2024-06-26 16:30:00","9.6997","3.23922","25.497","4.306","7.54","0.884","4.129","0.13","0.35","29.4698","4.66751","45.75","0","SATNPRO1509","30.318","0.42464","5"],
    [26152,"HCEP03730566","2024-06-26 16:45:00","9.7","3.23885","25.694","4.352","7.54","0.727","3.312","0.11","0.24","29.4658","4.66694","46.24","0","SATNPRO1509","30.66","0.42948","5"],
    [26153,"HCEP03730566","2024-06-26 17:00:00","9.7009","3.23879","25.877","4.396","7.54","0.84","3.533","0.27","0.17","29.4643","4.66672","46.7","0","SATNPRO1509","30.474","0.42686","5"],
    [26154,"HCEP03730566","2024-06-26 17:15:00","9.7019","3.23844","26.086","4.36","7.53","0.727","3.024","0.09","0.22","29.4599","4.66608","46.33","0","SATNPRO1509","30.508","0.4273","5"],
    [26155,"HCEP03730566","2024-06-26 17:30:00","9.7018","3.23877","26.304","4.288","7.53","0.936","4.298","0.18","0.18","29.4632","4.66657","45.56","0","SATNPRO1509","30.124","0.42196","5"],
    [26156,"HCEP03730566","2024-06-26 17:45:00","9.7041","3.23801","26.52","4.231","7.53","0.642","2.74","0.13","0.13","29.4536","4.66517","44.96","0","SATNPRO1509","30.294","0.42432","5"],
    [26157,"HCEP03730566","2024-06-26 18:00:00","9.7061","3.2375","26.721","4.199","7.52","0.87","3.731","0.13","0.22","29.4468","4.66417","44.62","0","SATNPRO1509","29.806","0.41746","5"],
    [26158,"HCEP03730566","2024-06-26 18:15:00","9.7052","3.23812","26.919","4.096","7.53","1.112","4.948","0.16","0.22","29.4536","4.66517","43.52","0","SATNPRO1509","29.598","0.41452","5"],
    [26159,"HCEP03730566","2024-06-26 18:30:00","9.7062","3.23806","27.121","3.979","7.52","1.079","4.986","0.09","0.26","29.4522","4.66497","42.28","0","SATNPRO1509","29.456","0.41262","5"],
    [26160,"HCEP03730566","2024-06-26 18:45:00","9.7066","3.23787","27.298","3.926","7.52","1.099","4.975","0.21","0.34","29.4498","4.66462","41.72","0","SATNPRO1509","29.752","0.41672","5"],
    [26161,"HCEP03730566","2024-06-26 19:00:00","9.7067","3.23762","27.463","3.941","7.51","0.995","5.171","0.29","0.86","29.4472","4.66426","41.87","0","SATNPRO1509","29.926","0.41912","5"],
    [26162,"HCEP03730566","2024-06-26 19:15:00","9.7062","3.23773","27.6","4.022","7.52","0.998","3.989","0.32","0.33","29.4486","4.66448","42.73","0","SATNPRO1509","29.98","0.41992","5"],
    [26163,"HCEP03730566","2024-06-26 19:30:00","9.7061","3.23795","27.708","4.063","7.53","0.931","3.928","0.49","0.24","29.4509","4.66481","43.18","0","SATNPRO1509","29.798000000000002","0.41734","5"],
    [26164,"HCEP03730566","2024-06-26 19:45:00","9.7056","3.23805","27.816","4.043","7.53","0.912","4.442","0.14","0.36","29.4522","4.66502","42.96","0","SATNPRO1509","29.722","0.41632","5"],
    [26165,"HCEP03730566","2024-06-26 20:00:00","9.705","3.23841","27.915","4.026","7.53","0.972","4.819","0.17","0.34","29.4564","4.66563","42.78","0","SATNPRO1509","29.628","0.41502","5"],
    [26166,"HCEP03730566","2024-06-26 20:15:00","9.7056","3.23821","27.966","4.015","7.53","1.092","5.009","0.27","1.46","29.4538","4.66526","42.66","0","SATNPRO1509","29.868","0.41834","5"],
    [26167,"HCEP03730566","2024-06-26 20:30:00","9.7033","3.23881","27.975","4.06","7.54","0.895","4.275","0.17","0.4","29.4617","4.66643","43.14","0","SATNPRO1509","29.8","0.41736","5"],
    [26168,"HCEP03730566","2024-06-26 20:45:00","9.7032","3.23882","28.021","4.068","7.54","0.952","4.54","0.14","0.31","29.4619","4.66646","43.22","0","SATNPRO1509","29.888","0.4186","5"],
    [26169,"HCEP03730566","2024-06-26 21:00:00","9.7036","3.23879","28.012","4.064","7.54","1.075","4.893","0.19","0.81","29.4613","4.66636","43.18","0","SATNPRO1509","29.864","0.41832","5"],
    [26170,"HCEP03730566","2024-06-26 21:15:00","9.704","3.2387","28.004","4.064","7.54","1.041","4.324","0.16","0.33","29.46","4.66617","43.19","0","SATNPRO1509","29.830000000000002","0.41784","5"],
    [26171,"HCEP03730566","2024-06-26 21:30:00","9.7052","3.23832","28.033","4.064","7.54","1.072","3.986","0.24","0.25","29.4552","4.66547","43.19","0","SATNPRO1509","29.906","0.41892","5"],
    [26172,"HCEP03730566","2024-06-26 21:45:00","9.7058","3.23826","28.029","4.069","7.54","0.888","3.995","0.11","0.26","29.4541","4.6653","43.24","0","SATNPRO1509","30.046","0.4208","5"],
    [26173,"HCEP03730566","2024-06-26 22:00:00","9.7062","3.23808","28.001","4.07","7.54","0.849","3.946","0.2","0.28","29.452","4.66499","43.25","0","SATNPRO1509","29.974","0.41986","5"],
    [26174,"HCEP03730566","2024-06-26 22:15:00","9.7067","3.2378","27.925","4.079","7.54","0.855","3.691","0.15","0.35","29.4488","4.66452","43.34","0","SATNPRO1509","30.072000000000003","0.42122","5"],
    [26175,"HCEP03730566","2024-06-26 22:30:00","9.7074","3.23751","27.887","4.09","7.54","0.782","3.496","0.07","0.38","29.4453","4.664","43.45","0","SATNPRO1509","30.044","0.4208","5"],
    [26176,"HCEP03730566","2024-06-26 22:45:00","9.7088","3.23715","27.854","4.091","7.54","0.846","3.653","0.11","0.58","29.4406","4.6633","43.46","0","SATNPRO1509","30.05","0.42092","5"],
    [26177,"HCEP03730566","2024-06-26 23:00:00","9.7101","3.23675","27.836","4.083","7.53","0.969","4.316","0.12","0.69","29.4355","4.66255","43.39","0","SATNPRO1509","30.216","0.42326","5"],
    [26178,"HCEP03730566","2024-06-26 23:15:00","9.7117","3.23615","27.631","4.096","7.53","0.887","3.787","0.11","0.35","29.4282","4.66147","43.52","0","SATNPRO1509","30.336","0.4249","5"],
    [26179,"HCEP03730566","2024-06-26 23:30:00","9.7146","3.23518","27.529","4.107","7.53","0.832","3.469","0.12","0.22","29.4161","4.65968","43.64","0","SATNPRO1509","30.346","0.42506","5"],
    [26180,"HCEP03730566","2024-06-26 23:45:00","9.7157","3.23482","27.424","4.109","7.53","0.875","3.474","0.14","0.24","29.4116","4.65901","43.66","0","SATNPRO1509","30.426","0.4262","5"],
    [26181,"HCEP03730566","2024-06-27 00:00:00","9.716","3.23432","27.25","4.083","7.53","1.001","3.869","0.29","0.43","29.4065","4.65826","43.38","0","SATNPRO1509","30.355999999999998","0.42518","5"],
    [26182,"HCEP03730566","2024-06-27 00:15:00","9.7163","3.23392","27.139","4.032","7.53","0.994","3.996","0.14","0.75","29.4023","4.65765","42.84","0","SATNPRO1509","30.355999999999998","0.42518","5"],
    [26183,"HCEP03730566","2024-06-27 00:30:00","9.7167","3.2336","27.051","3.995","7.53","0.96","3.633","0.1","0.41","29.3987","4.65712","42.45","0","SATNPRO1509","30.264","0.42394","5"],
    [26184,"HCEP03730566","2024-06-27 00:45:00","9.7169","3.23327","26.913","3.963","7.53","0.983","3.738","0.11","0.55","29.3952","4.65661","42.11","0","SATNPRO1509","30.288","0.42424","5"],
    [26185,"HCEP03730566","2024-06-27 01:00:00","9.7175","3.23305","26.831","3.937","7.53","1.041","4.07","0.17","0.38","29.3926","4.65622","41.83","0","SATNPRO1509","30.272","0.424","5"],
    [26186,"HCEP03730566","2024-06-27 01:15:00","9.7173","3.23314","26.713","3.927","7.53","1.059","4.094","0.11","0.34","29.3938","4.65639","41.72","0","SATNPRO1509","30.316","0.42464","5"],
    [26187,"HCEP03730566","2024-06-27 01:30:00","9.7176","3.23332","26.552","3.922","7.52","0.976","3.754","0.08","0.36","29.3954","4.6566","41.66","0","SATNPRO1509","30.330000000000002","0.42484","5"],
    [26188,"HCEP03730566","2024-06-27 01:45:00","9.7175","3.23336","26.426","3.93","7.52","0.991","3.765","0.08","0.26","29.3959","4.65668","41.76","0","SATNPRO1509","30.22","0.42328","5"],
    [26189,"HCEP03730566","2024-06-27 02:00:00","9.7176","3.23339","26.331","3.93","7.52","0.95","3.87","0.07","0.28","29.3962","4.6567","41.75","0","SATNPRO1509","30.268","0.42392","5"],
    [26190,"HCEP03730566","2024-06-27 02:15:00","9.7175","3.23337","26.219","3.926","7.52","0.871","3.838","0.04","0.3","29.3961","4.65669","41.71","0","SATNPRO1509","30.148","0.42228","5"],
    [26191,"HCEP03730566","2024-06-27 02:30:00","9.7178","3.23315","26.163","3.915","7.52","0.788","3.83","0.03","0.19","29.3937","4.65634","41.6","0","SATNPRO1509","30.16","0.42246","5"],
    [26192,"HCEP03730566","2024-06-27 02:45:00","9.7177","3.23305","26.177","3.899","7.52","0.701","4.051","0.01","0.35","29.3926","4.65619","41.43","0","SATNPRO1509","30.226","0.42338","5"],
    [26193,"HCEP03730566","2024-06-27 03:00:00","9.7174","3.23317","26.096","3.896","7.52","0.583","3.796","0.01","0.17","29.3942","4.65641","41.39","0","SATNPRO1509","30.298","0.42434","5"],
    [26194,"HCEP03730566","2024-06-27 03:15:00","9.7176","3.23339","26.054","3.9","7.51","0.472","4.063","0.01","0.28","29.3962","4.6567","41.44","0","SATNPRO1509","30.288","0.42422","5"],
    [26195,"HCEP03730566","2024-06-27 03:30:00","9.7178","3.23336","26.102","3.908","7.5","0.359","4.863","0.01","0.33","29.3958","4.65664","41.52","0","SATNPRO1509","30.348","0.42508","5"],
    [26196,"HCEP03730566","2024-06-27 03:45:00","9.7182","3.23332","26.112","3.918","7.5","0.263","6.965","0.01","0.2","29.395","4.65652","41.62","0","SATNPRO1509","30.34","0.42496","5"],
    [26197,"HCEP03730566","2024-06-27 04:00:00","9.7184","3.23326","26.152","3.921","7.49","0.186","11.333","0.01","0.18","29.3943","4.65641","41.66","0","SATNPRO1509","30.448","0.42644","5"],
    [26198,"HCEP03730566","2024-06-27 04:15:00","9.7183","3.23311","26.17","3.918","7.5","0.138","19.516","0.01","0.19","29.3929","4.65621","41.63","0","SATNPRO1509","30.478","0.4269","5"],
    [26199,"HCEP03730566","2024-06-27 04:30:00","9.7186","3.233","26.225","3.915","7.49","0.135","33.331","0.02","0.27","29.3915","4.65601","41.59","0","SATNPRO1509","30.436","0.42632","5"],
    [26200,"HCEP03730566","2024-06-27 04:45:00","9.7188","3.23304","26.259","3.915","7.49","0.16","54.497","0.02","0.16","29.3916","4.65603","41.59","0","SATNPRO1509","30.324","0.42476","5"],
    [26201,"HCEP03730566","2024-06-27 05:00:00","9.7189","3.23282","26.352","3.904","7.5","0.199","80.885","0.02","0.16","29.3894","4.65571","41.48","0","SATNPRO1509","30.366","0.4253","5"],
    [26202,"HCEP03730566","2024-06-27 05:15:00","9.7183","3.23303","26.382","3.901","7.51","0.246","112.192","0.02","0.09","29.3919","4.65608","41.44","0","SATNPRO1509","30.227999999999998","0.42336","5"],
    [26203,"HCEP03730566","2024-06-27 05:30:00","9.7182","3.23307","26.45","3.883","7.51","0.286","131.2","0.02","0.14","29.3924","4.65616","41.26","0","SATNPRO1509","30.226","0.42338","5"],
    [26204,"HCEP03730566","2024-06-27 05:45:00","9.7179","3.23307","26.499","3.873","7.51","0.316","139.967","0.03","0.16","29.3926","4.6562","41.15","0","SATNPRO1509","30.342","0.42498","5"],
    [26205,"HCEP03730566","2024-06-27 06:00:00","9.718","3.23317","26.567","3.871","7.52","0.371","139.937","0.03","0.12","29.3935","4.65632","41.12","0","SATNPRO1509","30.188","0.42288","5"],
    [26206,"HCEP03730566","2024-06-27 06:15:00","9.718","3.23328","26.661","3.871","7.52","0.403","134.904","0.03","0.08","29.3946","4.6565","41.12","0","SATNPRO1509","30.198","0.423","5"],
    [26207,"HCEP03730566","2024-06-27 06:30:00","9.7179","3.23351","26.721","3.87","7.52","0.439","129.299","0.04","0.12","29.397","4.65684","41.11","0","SATNPRO1509","30.186","0.4228","5"],
    [26208,"HCEP03730566","2024-06-27 06:45:00","9.7187","3.23403","26.79","3.901","7.52","1.94","142.643","1.6","12.24","29.4015","4.65747","41.45","0","SATNPRO1509","30.132","0.42204","5"],
    [26209,"HCEP03730566","2024-06-27 07:00:00","9.7191","3.23451","26.84","3.95","7.53","0.488","115.82","0.06","0.08","29.406","4.65812","41.97","0","SATNPRO1509","30.128","0.42202","5"],
    [26210,"HCEP03730566","2024-06-27 07:15:00","9.7188","3.23494","26.896","3.967","7.53","0.427","89.022","0.04","0.05","29.4105","4.65877","42.15","0","SATNPRO1509","30.12","0.42186","5"],
    [26211,"HCEP03730566","2024-06-27 07:30:00","9.7191","3.23524","26.936","3.972","7.53","0.389","57.881","0.04","0.02","29.4133","4.65916","42.2","0","SATNPRO1509","30.134","0.42208","5"],
    [26212,"HCEP03730566","2024-06-27 07:45:00","9.7198","3.23543","27.006","3.976","7.53","0.426","30.225","0.15","0.02","29.4147","4.65935","42.25","0","SATNPRO1509","30.036","0.42068","5"],
    [26213,"HCEP03730566","2024-06-27 08:00:00","9.7205","3.23577","27.029","3.907","7.53","0.377","10.657","0.04","0.03","29.4175","4.65974","41.52","0","SATNPRO1509","29.766000000000002","0.4169","5"],
    [26214,"HCEP03730566","2024-06-27 08:15:00","9.7196","3.23593","27.036","3.876","7.53","0.392","2.096","0.05","0.05","29.4198","4.66009","41.19","0","SATNPRO1509","29.753999999999998","0.41676","5"],
    [26215,"HCEP03730566","2024-06-27 08:30:00","9.7204","3.23568","27.049","3.878","7.52","0.375","0.445","0.06","0.02","29.4167","4.65963","41.21","0","SATNPRO1509","29.663999999999998","0.41548","5"],
    [26216,"HCEP03730566","2024-06-27 08:45:00","9.7209","3.23562","27.043","3.86","7.52","0.338","0.366","0.08","0.01","29.4157","4.65948","41.01","0","SATNPRO1509","29.616","0.41478","5"],
    [26217,"HCEP03730566","2024-06-27 09:00:00","9.7199","3.23555","27.018","3.86","7.52","0.297","0.379","0.09","0.11","29.4158","4.65951","41.02","0","SATNPRO1509","29.792","0.41728","5"],
    [26218,"HCEP03730566","2024-06-27 09:15:00","9.7194","3.23565","26.954","3.875","7.52","0.238","0.322","0.03","0.03","29.4171","4.65971","41.17","0","SATNPRO1509","29.768","0.41694","5"],
    [26219,"HCEP03730566","2024-06-27 09:30:00","9.719","3.23571","26.899","3.87","7.52","0.244","0.706","0.07","0.42","29.4181","4.65985","41.13","0","SATNPRO1509","29.602","0.41458","5"],
    [26220,"HCEP03730566","2024-06-27 09:45:00","9.7193","3.2359","26.809","3.813","7.52","0.209","0.539","0.04","0.04","29.4198","4.66009","40.52","0","SATNPRO1509","29.46","0.41262","5"],
    [26221,"HCEP03730566","2024-06-27 10:00:00","9.7184","3.23618","26.724","3.759","7.52","0.194","0.629","0.05","0.03","29.4234","4.66061","39.94","0","SATNPRO1509","29.362000000000002","0.41124","5"],
    [26222,"HCEP03730566","2024-06-27 10:15:00","9.7181","3.23632","26.607","3.742","7.51","0.199","0.742","0.04","0.04","29.4251","4.66085","39.76","0","SATNPRO1509","29.298","0.4104","5"],
    [26223,"HCEP03730566","2024-06-27 10:30:00","9.7179","3.23616","26.482","3.755","7.51","0.176","0.754","0.03","0.03","29.4237","4.66065","39.9","0","SATNPRO1509","29.318","0.41066","5"],
    [26224,"HCEP03730566","2024-06-27 10:45:00","9.7197","3.23593","26.366","3.799","7.51","0.219","0.805","0.03","0.05","29.42","4.66008","40.37","0","SATNPRO1509","29.498","0.41314","5"],
    [26225,"HCEP03730566","2024-06-27 11:00:00","9.7207","3.2358","26.227","3.881","7.52","0.255","0.868","0.04","0.03","29.418","4.65976","41.24","0","SATNPRO1509","29.668","0.41556","5"],
    [26226,"HCEP03730566","2024-06-27 11:15:00","9.7213","3.23572","26.07","3.907","7.52","0.419","1.165","0.45","0.1","29.4167","4.65957","41.52","0","SATNPRO1509","29.644","0.4152","5"],
    [26227,"HCEP03730566","2024-06-27 11:30:00","9.7225","3.23552","25.925","3.925","7.52","0.338","1.144","0.06","0.08","29.4137","4.6591","41.71","0","SATNPRO1509","29.78","0.41714","5"],
    [26228,"HCEP03730566","2024-06-27 11:45:00","9.7235","3.2353","25.753","3.995","7.53","0.402","1.142","0.11","0.09","29.4108","4.65866","42.46","0","SATNPRO1509","29.988","0.42004","5"],
    [26229,"HCEP03730566","2024-06-27 12:00:00","9.7255","3.235","25.586","4.001","7.53","0.451","1.226","0.23","0.06","29.4062","4.65796","42.52","0","SATNPRO1509","30.28","0.42414","5"],
    [26230,"HCEP03730566","2024-06-27 12:15:00","9.723","3.23546","25.431","4.003","7.53","0.49","1.621","0.07","0.11","29.4129","4.65896","42.54","0","SATNPRO1509","29.762","0.41684","5"],
    [26231,"HCEP03730566","2024-06-27 12:30:00","9.7206","3.23574","25.285","3.928","7.53","0.499","1.71","0.11","0.09","29.4178","4.65968","41.74","0","SATNPRO1509","29.988","0.42002","5"],
    [26232,"HCEP03730566","2024-06-27 12:45:00","9.7208","3.23533","25.111","3.909","7.53","0.646","2.378","0.09","0.15","29.4136","4.65907","41.53","0","SATNPRO1509","29.622","0.4149","5"],
    [26233,"HCEP03730566","2024-06-27 13:00:00","9.718","3.23609","24.982","3.818","7.53","0.827","2.874","0.15","0.18","29.4236","4.66054","40.57","0","SATNPRO1509","29.314","0.4106","5"],
    [26234,"HCEP03730566","2024-06-27 13:15:00","9.7173","3.23618","24.852","3.776","7.52","0.828","3.024","0.19","0.14","29.4251","4.66076","40.12","0","SATNPRO1509","29.28","0.41012","5"],
    [26235,"HCEP03730566","2024-06-27 13:30:00","9.7166","3.23622","24.72","3.751","7.52","0.764","2.998","0.08","0.11","29.4261","4.66091","39.86","0","SATNPRO1509","29.35","0.41108","5"],
    [26236,"HCEP03730566","2024-06-27 13:45:00","9.716","3.2363","24.636","3.739","7.51","0.803","3.26","0.08","0.11","29.4274","4.6611","39.73","0","SATNPRO1509","29.362","0.41126","5"],
    [26237,"HCEP03730566","2024-06-27 14:00:00","9.7154","3.23634","24.581","3.743","7.51","0.782","3.219","0.06","0.18","29.4283","4.66124","39.78","0","SATNPRO1509","29.4","0.41184","5"],
    [26238,"HCEP03730566","2024-06-27 14:15:00","9.7155","3.23635","24.556","3.751","7.51","0.91","3.412","0.1","0.11","29.4284","4.66126","39.86","0","SATNPRO1509","29.442","0.4124","5"],
    [26239,"HCEP03730566","2024-06-27 14:30:00","9.7154","3.23635","24.54","3.751","7.51","0.811","3.296","0.08","0.13","29.4285","4.66127","39.86","0","SATNPRO1509","29.596","0.41454","5"],
    [26240,"HCEP03730566","2024-06-27 14:45:00","9.7151","3.23638","24.505","3.763","7.51","0.881","3.272","0.13","0.11","29.429","4.66134","39.98","0","SATNPRO1509","29.458000000000002","0.41262","5"],
    [26241,"HCEP03730566","2024-06-27 15:00:00","9.7167","3.23503","24.589","3.838","7.51","0.824","2.963","0.14","0.15","29.4141","4.65919","40.78","0","SATNPRO1509","30.490000000000002","0.42706","5"],
    [26242,"HCEP03730566","2024-06-27 15:15:00","9.7166","3.23507","24.566","3.967","7.52","0.921","2.588","0.56","0.07","29.4145","4.65925","42.15","0","SATNPRO1509","30.51","0.42734","5"],
    [26243,"HCEP03730566","2024-06-27 15:30:00","9.7159","3.23572","24.698","3.992","7.51","0.873","2.912","0.21","0.24","29.4216","4.66028","42.42","0","SATNPRO1509","30.364","0.42528","5"],
    [26244,"HCEP03730566","2024-06-27 15:45:00","9.7157","3.23535","24.732","3.951","7.5","0.885","2.871","0.25","0.37","29.4181","4.65978","41.98","0","SATNPRO1509","30.108","0.42174","5"],
    [26245,"HCEP03730566","2024-06-27 16:00:00","9.7142","3.2363","24.851","3.945","7.5","0.91","3.366","0.1","0.15","29.4288","4.66135","41.92","0","SATNPRO1509","29.732","0.41642","5"],
    [26246,"HCEP03730566","2024-06-27 16:15:00","9.7143","3.23637","25","3.856","7.49","1.088","3.713","0.29","0.12","29.4294","4.66144","40.97","0","SATNPRO1509","29.552","0.41394","5"],
    [26247,"HCEP03730566","2024-06-27 16:30:00","9.7146","3.23642","25.137","3.812","7.5","1.114","3.73","0.19","0.2","29.4296","4.66147","40.51","0","SATNPRO1509","29.656","0.4154","5"],
    [26248,"HCEP03730566","2024-06-27 16:45:00","9.7143","3.23643","25.282","3.803","7.5","0.993","3.666","0.12","0.13","29.4299","4.66153","40.41","0","SATNPRO1509","29.636","0.41512","5"],
    [26249,"HCEP03730566","2024-06-27 17:00:00","9.7144","3.23643","25.478","3.806","7.51","1.087","4.059","0.23","0.14","29.4297","4.66151","40.44","0","SATNPRO1509","29.704","0.41608","5"],
    [26250,"HCEP03730566","2024-06-27 17:15:00","9.7145","3.23646","25.656","3.814","7.51","1.034","3.933","0.12","0.24","29.4298","4.66153","40.53","0","SATNPRO1509","29.71","0.41618","5"],
    [26251,"HCEP03730566","2024-06-27 17:30:00","9.7147","3.23651","25.872","3.808","7.5","0.972","3.694","0.1","0.14","29.43","4.66158","40.46","0","SATNPRO1509","29.466","0.41272","5"],
    [26252,"HCEP03730566","2024-06-27 17:45:00","9.715","3.23667","26.126","3.784","7.51","1.111","4.188","0.14","0.2","29.4313","4.66176","40.21","0","SATNPRO1509","29.464","0.41266","5"],
    [26253,"HCEP03730566","2024-06-27 18:00:00","9.7148","3.23662","26.319","3.796","7.51","1.025","3.768","0.13","0.12","29.431","4.66173","40.34","0","SATNPRO1509","29.544","0.41382","5"],
    [26254,"HCEP03730566","2024-06-27 18:15:00","9.7148","3.23663","26.521","3.828","7.51","1.124","3.845","0.34","0.11","29.431","4.66174","40.67","0","SATNPRO1509","29.669999999999998","0.4156","5"],
    [26255,"HCEP03730566","2024-06-27 18:30:00","9.7151","3.23661","26.767","3.84","7.51","1.078","4.055","0.16","0.16","29.4304","4.66167","40.8","0","SATNPRO1509","29.6","0.41458","5"],
    [26256,"HCEP03730566","2024-06-27 18:45:00","9.7153","3.23665","26.907","3.867","7.52","1.017","4.084","0.08","0.12","29.4306","4.6617","41.1","0","SATNPRO1509","29.822","0.4177","5"],
    [26257,"HCEP03730566","2024-06-27 19:00:00","9.7151","3.23664","27.133","3.889","7.52","1.062","4.586","0.12","0.17","29.4306","4.66172","41.33","0","SATNPRO1509","29.818","0.41766","5"],
    [26258,"HCEP03730566","2024-06-27 19:15:00","9.7153","3.23663","27.319","3.895","7.52","0.991","3.941","0.11","0.15","29.4303","4.66168","41.39","0","SATNPRO1509","29.81","0.41752","5"],
    [26259,"HCEP03730566","2024-06-27 19:30:00","9.7152","3.23663","27.467","3.902","7.52","0.956","3.681","0.22","0.14","29.4302","4.66168","41.46","0","SATNPRO1509","29.828","0.41778","5"],
    [26260,"HCEP03730566","2024-06-27 19:45:00","9.7155","3.23663","27.641","3.89","7.53","0.91","3.522","0.16","0.18","29.43","4.66165","41.33","0","SATNPRO1509","29.733999999999998","0.41648","5"],
    [26261,"HCEP03730566","2024-06-27 20:00:00","9.7156","3.2366","27.785","3.894","7.53","0.807","3.094","0.07","0.08","29.4295","4.66159","41.37","0","SATNPRO1509","29.892","0.41868","5"],
    [26262,"HCEP03730566","2024-06-27 20:15:00","9.7158","3.23651","27.931","3.921","7.53","0.82","2.947","0.11","0.12","29.4284","4.66145","41.67","0","SATNPRO1509","29.956","0.4196","5"],
    [26263,"HCEP03730566","2024-06-27 20:30:00","9.7166","3.23653","28.071","3.87","7.52","0.951","4.066","0.11","0.3","29.4278","4.66135","41.12","0","SATNPRO1509","29.72","0.41628","5"],
    [26264,"HCEP03730566","2024-06-27 20:45:00","9.7171","3.23643","28.135","3.83","7.52","1.036","4.176","0.11","0.15","29.4265","4.66115","40.69","0","SATNPRO1509","29.604","0.41466","5"],
    [26265,"HCEP03730566","2024-06-27 21:00:00","9.7176","3.23638","28.152","3.825","7.52","1.072","4.598","0.17","0.25","29.4256","4.66102","40.64","0","SATNPRO1509","29.494","0.41306","5"],
    [26266,"HCEP03730566","2024-06-27 21:15:00","9.7183","3.23625","28.2","3.805","7.52","1.062","4.54","0.12","0.2","29.4236","4.66073","40.44","0","SATNPRO1509","29.526","0.41354","5"],
    [26267,"HCEP03730566","2024-06-27 21:30:00","9.7191","3.23607","28.186","3.823","7.52","0.964","4.094","0.1","0.17","29.4211","4.66036","40.63","0","SATNPRO1509","29.71","0.41614","5"],
    [26268,"HCEP03730566","2024-06-27 21:45:00","9.7195","3.2354","28.242","3.904","7.52","0.734","1.846","0.26","0.12","29.4141","4.65935","41.49","0","SATNPRO1509","30.398","0.4258","5"],
    [26269,"HCEP03730566","2024-06-27 22:00:00","9.7199","3.23554","28.242","3.992","7.52","0.698","1.965","0.23","0.15","29.4152","4.65949","42.42","0","SATNPRO1509","30.35","0.4251","5"],
    [26270,"HCEP03730566","2024-06-27 22:15:00","9.7192","3.23559","28.215","3.99","7.53","0.671","2.038","0.1","0.08","29.4162","4.65965","42.4","0","SATNPRO1509","30.338","0.42496","5"],
    [26271,"HCEP03730566","2024-06-27 22:30:00","9.7204","3.23551","28.203","4.005","7.53","0.629","1.812","0.12","0.1","29.4145","4.65938","42.55","0","SATNPRO1509","30.558","0.42802","5"],
    [26272,"HCEP03730566","2024-06-27 22:45:00","9.7204","3.23551","28.153","4.038","7.53","0.651","1.929","0.17","0.11","29.4145","4.65938","42.91","0","SATNPRO1509","30.572","0.4282","5"],
    [26273,"HCEP03730566","2024-06-27 23:00:00","9.7194","3.23588","28.063","3.958","7.53","0.993","3.634","0.53","0.64","29.4191","4.66005","42.06","0","SATNPRO1509","29.778","0.4171","5"],
    [26274,"HCEP03730566","2024-06-27 23:15:00","9.7195","3.23588","27.979","3.843","7.52","0.837","3.243","0.19","0.21","29.419","4.66004","40.84","0","SATNPRO1509","30.078","0.42128","5"],
    [26275,"HCEP03730566","2024-06-27 23:30:00","9.7197","3.23585","27.873","3.856","7.52","0.799","3.414","0.29","0.31","29.4185","4.65996","40.97","0","SATNPRO1509","29.662","0.41548","5"],
    [26276,"HCEP03730566","2024-06-27 23:45:00","9.7193","3.23581","27.807","3.808","7.52","0.741","3.314","0.11","0.11","29.4186","4.65996","40.47","0","SATNPRO1509","29.945999999999998","0.41944","5"],
    [26277,"HCEP03730566","2024-06-28 00:00:00","9.7204","3.23564","27.718","3.848","7.52","0.713","3.095","0.12","0.12","29.4159","4.65957","40.89","0","SATNPRO1509","30.026","0.4206","5"],
    [26278,"HCEP03730566","2024-06-28 00:15:00","9.722","3.23519","27.601","3.864","7.52","0.593","2.54","0.11","0.21","29.4102","4.65871","41.06","0","SATNPRO1509","30.192","0.42288","5"],
    [26279,"HCEP03730566","2024-06-28 00:30:00","9.7246","3.23483","27.428","3.947","7.52","0.605","2.614","0.13","0.31","29.4045","4.65784","41.95","0","SATNPRO1509","30.422","0.42614","5"],
    [26280,"HCEP03730566","2024-06-28 00:45:00","9.7242","3.23491","27.338","3.956","7.52","0.63","2.791","0.22","0.2","29.4057","4.65801","42.04","0","SATNPRO1509","30.158","0.42242","5"],
    [26281,"HCEP03730566","2024-06-28 01:00:00","9.7225","3.23522","27.156","3.873","7.52","0.66","3.45","0.16","0.28","29.4102","4.65867","41.15","0","SATNPRO1509","29.918","0.4191","5"],
    [26282,"HCEP03730566","2024-06-28 01:15:00","9.7218","3.23538","26.977","3.782","7.52","0.727","3.537","0.15","0.24","29.4125","4.659","40.19","0","SATNPRO1509","29.642","0.4152","5"],
    [26283,"HCEP03730566","2024-06-28 01:30:00","9.7215","3.23544","26.833","3.736","7.51","0.777","3.816","0.14","0.31","29.4134","4.65912","39.7","0","SATNPRO1509","29.562","0.4141","5"],
    [26284,"HCEP03730566","2024-06-28 01:45:00","9.7216","3.23527","26.656","3.7","7.51","0.782","4.486","0.09","0.24","29.4117","4.65888","39.31","0","SATNPRO1509","29.496000000000002","0.41312","5"],
    [26285,"HCEP03730566","2024-06-28 02:00:00","9.7212","3.23524","26.457","3.698","7.51","0.864","5.619","0.19","0.37","29.4118","4.65888","39.3","0","SATNPRO1509","29.556","0.41398","5"],
    [26286,"HCEP03730566","2024-06-28 02:15:00","9.7199","3.2354","26.25","3.696","7.51","0.749","7.659","0.14","0.29","29.4145","4.65928","39.28","0","SATNPRO1509","29.726","0.41634","5"],
    [26287,"HCEP03730566","2024-06-28 02:30:00","9.7205","3.23527","26.1","3.684","7.51","0.758","13.036","0.14","0.21","29.4127","4.65901","39.15","0","SATNPRO1509","29.602","0.4146","5"],
    [26288,"HCEP03730566","2024-06-28 02:45:00","9.7218","3.23503","25.984","3.688","7.51","0.738","20.749","0.15","0.25","29.4094","4.65851","39.19","0","SATNPRO1509","29.738","0.41652","5"],
    [26289,"HCEP03730566","2024-06-28 03:00:00","9.7231","3.23496","25.84","3.682","7.5","0.813","28.908","0.23","0.22","29.4077","4.65823","39.13","0","SATNPRO1509","29.652","0.41528","5"],
    [26290,"HCEP03730566","2024-06-28 03:15:00","9.7243","3.2348","25.742","3.67","7.5","0.745","36.117","0.11","0.22","29.4052","4.65784","39","0","SATNPRO1509","29.602","0.41464","5"],
    [26291,"HCEP03730566","2024-06-28 03:30:00","9.7251","3.23469","25.696","3.66","7.5","0.792","44.254","0.14","0.29","29.4034","4.65757","38.89","0","SATNPRO1509","29.582","0.41434","5"],
    [26292,"HCEP03730566","2024-06-28 03:45:00","9.7267","3.23449","25.691","3.662","7.5","0.829","45.659","0.26","0.19","29.4","4.65705","38.92","0","SATNPRO1509","29.578","0.41428","5"],
    [26293,"HCEP03730566","2024-06-28 04:00:00","9.7278","3.23441","25.704","3.668","7.5","0.786","45.532","0.19","0.19","29.3983","4.65679","38.98","0","SATNPRO1509","29.654","0.41534","5"],
    [26294,"HCEP03730566","2024-06-28 04:15:00","9.7296","3.23422","25.732","3.671","7.49","0.722","44.047","0.12","0.25","29.3949","4.65628","39.01","0","SATNPRO1509","29.646","0.41522","5"],
    [26295,"HCEP03730566","2024-06-28 04:30:00","9.7285","3.23425","25.775","3.67","7.49","0.798","39.238","0.13","0.22","29.3962","4.65648","39","0","SATNPRO1509","29.45","0.41248","5"],
    [26296,"HCEP03730566","2024-06-28 04:45:00","9.7287","3.23403","25.803","3.67","7.49","0.789","34.773","0.14","0.26","29.3938","4.65614","39","0","SATNPRO1509","29.552","0.41392","5"],
    [26297,"HCEP03730566","2024-06-28 05:00:00","9.729","3.23389","25.849","3.674","7.49","0.775","32.801","0.12","0.15","29.392","4.65589","39.04","0","SATNPRO1509","29.736","0.4165","5"],
    [26298,"HCEP03730566","2024-06-28 05:15:00","9.7293","3.23372","25.889","3.671","7.48","0.848","31.803","0.21","0.44","29.3901","4.6556","39.01","0","SATNPRO1509","29.562","0.41408","5"],
    [26299,"HCEP03730566","2024-06-28 05:30:00","9.7307","3.23351","25.944","3.664","7.48","0.799","31.809","0.1","0.35","29.3868","4.65511","38.94","0","SATNPRO1509","29.842","0.41798","5"],
    [26300,"HCEP03730566","2024-06-28 05:45:00","9.7304","3.23351","26.015","3.647","7.48","0.876","30.839","0.11","0.98","29.387","4.65515","38.76","0","SATNPRO1509","29.672","0.4156","5"],
    [26301,"HCEP03730566","2024-06-28 06:00:00","9.7308","3.23334","26.064","3.627","7.48","0.821","30.126","0.08","0.78","29.385","4.65487","38.54","0","SATNPRO1509","29.678","0.4157","5"],
    [26302,"HCEP03730566","2024-06-28 06:15:00","9.7302","3.23318","26.129","3.615","7.48","0.887","29.866","0.13","0.44","29.3838","4.65471","38.42","0","SATNPRO1509","29.734","0.41648","5"],
    [26303,"HCEP03730566","2024-06-28 06:30:00","9.73","3.23308","26.178","3.605","7.48","0.859","28.293","0.08","0.25","29.383","4.6546","38.31","0","SATNPRO1509","29.702","0.41606","5"],
    [26304,"HCEP03730566","2024-06-28 06:45:00","9.7292","3.23301","26.263","3.592","7.48","0.875","27.667","0.11","0.38","29.3829","4.6546","38.17","0","SATNPRO1509","29.88","0.41852","5"],
    [26305,"HCEP03730566","2024-06-28 07:00:00","9.7291","3.23306","26.374","3.582","7.48","0.979","27.622","0.17","0.57","29.3835","4.65469","38.06","0","SATNPRO1509","29.532","0.41362","5"],
    [26306,"HCEP03730566","2024-06-28 07:15:00","9.7289","3.23311","26.454","3.568","7.48","0.818","27.029","0.1","0.92","29.384","4.65478","37.92","0","SATNPRO1509","29.642","0.4152","5"],
    [26307,"HCEP03730566","2024-06-28 07:30:00","9.729","3.23315","26.524","3.561","7.47","0.797","22.344","0.1","0.3","29.3843","4.65482","37.84","0","SATNPRO1509","29.774","0.41702","5"],
    [26308,"HCEP03730566","2024-06-28 07:45:00","9.7292","3.23333","26.581","3.569","7.47","0.782","20.518","0.13","0.23","29.386","4.65506","37.93","0","SATNPRO1509","29.61","0.41472","5"],
    [26309,"HCEP03730566","2024-06-28 08:00:00","9.7285","3.23359","26.655","3.574","7.47","0.833","23.574","0.09","0.32","29.3891","4.65552","37.98","0","SATNPRO1509","29.65","0.41528","5"],
    [26310,"HCEP03730566","2024-06-28 08:15:00","9.7289","3.23375","26.824","3.572","7.48","0.823","27.263","0.1","1.69","29.3903","4.6557","37.96","0","SATNPRO1509","29.506","0.4133","5"],
    [26311,"HCEP03730566","2024-06-28 08:30:00","9.7289","3.23383","26.873","3.559","7.48","0.802","28.341","0.09","2.34","29.3912","4.65583","37.82","0","SATNPRO1509","29.514","0.4134","5"],
    [26312,"HCEP03730566","2024-06-28 08:45:00","9.729","3.2338","26.864","3.554","7.48","0.937","27.222","0.21","0.33","29.3908","4.65577","37.76","0","SATNPRO1509","29.374","0.41142","5"],
    [26313,"HCEP03730566","2024-06-28 09:00:00","9.7295","3.23333","26.912","3.551","7.48","0.879","27.218","0.29","0.2","29.3857","4.65503","37.73","0","SATNPRO1509","29.574","0.41422","5"],
    [26314,"HCEP03730566","2024-06-28 09:15:00","9.7284","3.23308","26.96","3.549","7.48","0.827","24.899","0.17","0.14","29.384","4.65481","37.71","0","SATNPRO1509","29.682","0.41576","5"],
    [26315,"HCEP03730566","2024-06-28 09:30:00","9.7286","3.2325","26.993","3.503","7.48","0.865","22.224","0.16","0.3","29.378","4.65394","37.22","0","SATNPRO1509","29.696","0.41594","5"],
    [26316,"HCEP03730566","2024-06-28 09:45:00","9.7293","3.23245","26.988","3.481","7.48","0.861","20.47","0.12","0.17","29.3769","4.65377","36.99","0","SATNPRO1509","29.788","0.41724","5"],
    [26317,"HCEP03730566","2024-06-28 10:00:00","9.7296","3.23241","26.94","3.455","7.47","0.882","20.144","0.28","0.17","29.3763","4.65369","36.71","0","SATNPRO1509","29.82","0.41768","5"],
    [26318,"HCEP03730566","2024-06-28 10:15:00","9.7299","3.23233","26.923","3.44","7.47","0.745","21.759","0.06","0.1","29.3752","4.65352","36.55","0","SATNPRO1509","29.774","0.41704","5"],
    [26319,"HCEP03730566","2024-06-28 10:30:00","9.7298","3.23241","26.883","3.437","7.47","0.784","25.773","0.12","0.11","29.3762","4.65366","36.52","0","SATNPRO1509","29.618","0.41488","5"],
    [26320,"HCEP03730566","2024-06-28 10:45:00","9.7295","3.23264","26.833","3.432","7.47","0.819","30.423","0.1","0.13","29.3787","4.65403","36.47","0","SATNPRO1509","29.528000000000002","0.4136","5"],
    [26321,"HCEP03730566","2024-06-28 11:00:00","9.7296","3.23276","26.759","3.421","7.47","0.811","33.305","0.12","0.14","29.3799","4.6542","36.35","0","SATNPRO1509","29.492","0.4131","5"],
    [26322,"HCEP03730566","2024-06-28 11:15:00","9.7302","3.23284","26.675","3.419","7.47","0.875","35.846","0.16","0.18","29.3803","4.65423","36.33","0","SATNPRO1509","29.578","0.41434","5"],
    [26323,"HCEP03730566","2024-06-28 11:30:00","9.7305","3.2331","26.58","3.434","7.47","0.854","35.257","0.1","0.13","29.3826","4.65455","36.49","0","SATNPRO1509","29.418","0.41204","5"],
    [26324,"HCEP03730566","2024-06-28 11:45:00","9.7301","3.23312","26.473","3.436","7.47","0.807","31.073","0.13","0.18","29.3832","4.65465","36.51","0","SATNPRO1509","29.612000000000002","0.41476","5"],
    [26325,"HCEP03730566","2024-06-28 12:00:00","9.7301","3.23325","26.377","3.437","7.47","0.814","27.408","0.1","0.23","29.3846","4.65483","36.52","0","SATNPRO1509","29.344","0.411","5"],
    [26326,"HCEP03730566","2024-06-28 12:15:00","9.73","3.23333","26.281","3.433","7.47","0.78","23.646","0.1","0.27","29.3855","4.65496","36.48","0","SATNPRO1509","29.256","0.40974","5"],
    [26327,"HCEP03730566","2024-06-28 12:30:00","9.7301","3.23323","26.168","3.422","7.47","0.855","20.437","0.16","0.26","29.3845","4.65481","36.36","0","SATNPRO1509","29.31","0.41052","5"],
    [26328,"HCEP03730566","2024-06-28 12:45:00","9.7299","3.23325","26.063","3.406","7.47","0.76","15.955","0.09","0.21","29.3849","4.65486","36.19","0","SATNPRO1509","29.3","0.41042","5"],
    [26329,"HCEP03730566","2024-06-28 13:00:00","9.7294","3.23314","25.924","3.399","7.46","0.899","11.928","0.17","1.12","29.3841","4.65475","36.12","0","SATNPRO1509","29.174","0.40868","5"],
    [26330,"HCEP03730566","2024-06-28 13:15:00","9.729","3.2331","25.806","3.389","7.46","0.939","8.488","0.18","0.17","29.3841","4.65475","36.01","0","SATNPRO1509","29.158","0.4084","5"],
    [26331,"HCEP03730566","2024-06-28 13:30:00","9.7288","3.23306","25.688","3.376","7.46","0.933","6.454","0.16","0.15","29.384","4.65473","35.87","0","SATNPRO1509","29.262","0.4099","5"],
    [26332,"HCEP03730566","2024-06-28 13:45:00","9.7289","3.23317","25.582","3.368","7.46","1.034","5.851","0.17","0.19","29.385","4.65487","35.79","0","SATNPRO1509","29.31","0.41056","5"],
    [26333,"HCEP03730566","2024-06-28 14:00:00","9.7288","3.23326","25.461","3.362","7.46","1.128","5.353","0.38","0.38","29.3861","4.65502","35.73","0","SATNPRO1509","29.308","0.4105","5"],
    [26334,"HCEP03730566","2024-06-28 14:15:00","9.7285","3.23333","25.356","3.366","7.46","0.908","4.388","0.13","0.16","29.3871","4.65516","35.76","0","SATNPRO1509","29.2","0.40902","5"],
    [26335,"HCEP03730566","2024-06-28 14:30:00","9.7285","3.23316","25.269","3.356","7.46","1.1","4.062","0.23","0.29","29.3854","4.65491","35.66","0","SATNPRO1509","29.22","0.40928","5"],
    [26336,"HCEP03730566","2024-06-28 14:45:00","9.7285","3.23286","25.196","3.331","7.46","1.075","3.536","0.18","0.23","29.3823","4.65447","35.4","0","SATNPRO1509","29.27","0.40996","5"],
    [26337,"HCEP03730566","2024-06-28 15:00:00","9.7283","3.2329","25.142","3.315","7.46","1.119","3.343","0.14","0.22","29.383","4.65457","35.23","0","SATNPRO1509","29.374","0.41146","5"],
    [26338,"HCEP03730566","2024-06-28 15:15:00","9.7279","3.23304","25.102","3.326","7.46","1.022","3.001","0.16","0.13","29.3847","4.65482","35.34","0","SATNPRO1509","29.444","0.41242","5"],
    [26339,"HCEP03730566","2024-06-28 15:30:00","9.7275","3.23323","25.12","3.374","7.46","0.923","2.646","0.21","0.16","29.387","4.65514","35.85","0","SATNPRO1509","29.855999999999998","0.41816","5"],
    [26340,"HCEP03730566","2024-06-28 15:45:00","9.7294","3.23395","25.121","3.461","7.47","0.994","3.197","0.16","0.25","29.3927","4.65593","36.78","0","SATNPRO1509","29.456","0.41258","5"],
    [26341,"HCEP03730566","2024-06-28 16:00:00","9.7296","3.23414","25.178","3.496","7.47","1.062","3.55","0.14","0.33","29.3944","4.65617","37.15","0","SATNPRO1509","29.426","0.41214","5"],
    [26342,"HCEP03730566","2024-06-28 16:15:00","9.7303","3.23416","25.218","3.49","7.48","1.189","3.452","0.27","0.27","29.3939","4.6561","37.09","0","SATNPRO1509","29.396","0.41174","5"],
    [26343,"HCEP03730566","2024-06-28 16:30:00","9.7301","3.23415","25.29","3.494","7.47","1.461","3.683","0.35","0.39","29.394","4.65612","37.14","0","SATNPRO1509","29.43","0.41222","5"],
    [26344,"HCEP03730566","2024-06-28 16:45:00","9.73","3.23416","25.384","3.493","7.47","1.26","3.493","0.16","0.26","29.3942","4.65615","37.12","0","SATNPRO1509","29.496","0.41316","5"],
    [26345,"HCEP03730566","2024-06-28 17:00:00","9.73","3.23414","25.483","3.49","7.47","1.536","3.417","0.94","0.24","29.3939","4.65612","37.09","0","SATNPRO1509","29.456","0.4126","5"],
    [26346,"HCEP03730566","2024-06-28 17:15:00","9.7296","3.23419","25.62","3.485","7.47","1.464","3.869","0.39","0.49","29.3947","4.65625","37.03","0","SATNPRO1509","29.34","0.41096","5"],
    [26347,"HCEP03730566","2024-06-28 17:30:00","9.7291","3.23425","25.748","3.466","7.47","1.491","4.104","0.26","0.67","29.3956","4.65639","36.83","0","SATNPRO1509","29.384","0.41152","5"],
    [26348,"HCEP03730566","2024-06-28 17:45:00","9.7288","3.23427","25.907","3.46","7.47","1.507","3.838","0.36","0.34","29.396","4.65646","36.77","0","SATNPRO1509","29.52","0.41346","5"],
    [26349,"HCEP03730566","2024-06-28 18:00:00","9.7288","3.23431","26.06","3.464","7.47","1.427","3.8","0.33","0.33","29.3965","4.65654","36.81","0","SATNPRO1509","29.474","0.41284","5"],
    [26350,"HCEP03730566","2024-06-28 18:15:00","9.7286","3.23434","26.21","3.467","7.47","1.564","3.931","0.4","0.5","29.3968","4.65659","36.85","0","SATNPRO1509","29.514","0.41338","5"],
    [26351,"HCEP03730566","2024-06-28 18:30:00","9.7284","3.23429","26.377","3.473","7.47","1.31","3.098","0.22","0.42","29.3964","4.65655","36.91","0","SATNPRO1509","30.012","0.42036","5"],
    [26352,"HCEP03730566","2024-06-28 18:45:00","9.7283","3.23442","26.546","3.467","7.47","1.471","3.875","0.41","0.32","29.3977","4.65675","36.84","0","SATNPRO1509","29.38","0.41152","5"],
    [26353,"HCEP03730566","2024-06-28 19:00:00","9.7288","3.23427","26.713","3.459","7.47","1.152","3.248","0.14","0.21","29.3957","4.65646","36.76","0","SATNPRO1509","29.516","0.4134","5"],
    [26354,"HCEP03730566","2024-06-28 19:15:00","9.7323","3.23332","26.924","3.484","7.47","1.229","3.211","0.18","0.22","29.3832","4.65463","37.02","0","SATNPRO1509","29.938","0.41936","5"],
    [26355,"HCEP03730566","2024-06-28 19:30:00","9.7395","3.23312","27.086","3.534","7.47","1.22","2.367","0.25","0.19","29.3752","4.65337","37.56","0","SATNPRO1509","29.956","0.41958","5"],
    [26356,"HCEP03730566","2024-06-28 19:45:00","9.7353","3.23348","27.275","3.565","7.47","1.195","2.616","0.21","0.18","29.3823","4.65446","37.89","0","SATNPRO1509","29.898","0.41878","5"],
    [26357,"HCEP03730566","2024-06-28 20:00:00","9.7437","3.23246","27.406","3.559","7.47","1.247","2.619","0.22","0.3","29.365","4.65186","37.82","0","SATNPRO1509","30.086","0.4214","5"],
    [26358,"HCEP03730566","2024-06-28 20:15:00","9.7371","3.23373","27.533","3.581","7.48","1.261","2.796","0.25","0.34","29.3833","4.65459","38.06","0","SATNPRO1509","29.926","0.41914","5"],
    [26359,"HCEP03730566","2024-06-28 20:30:00","9.7335","3.2342","27.699","3.53","7.47","1.526","4.135","0.32","0.44","29.3908","4.65574","37.52","0","SATNPRO1509","29.394","0.41168","5"],
    [26360,"HCEP03730566","2024-06-28 20:45:00","9.7327","3.23429","27.82","3.5","7.47","1.478","3.697","0.44","0.51","29.3923","4.65597","37.2","0","SATNPRO1509","29.454","0.41256","5"],
    [26361,"HCEP03730566","2024-06-28 21:00:00","9.7323","3.23435","27.955","3.505","7.47","1.416","3.859","0.31","0.25","29.3931","4.65611","37.25","0","SATNPRO1509","29.352","0.41118","5"],
    [26362,"HCEP03730566","2024-06-28 21:15:00","9.7314","3.23442","27.977","3.512","7.47","1.506","5.251","0.36","0.94","29.3945","4.65633","37.32","0","SATNPRO1509","29.48","0.4129","5"],
    [26363,"HCEP03730566","2024-06-28 21:30:00","9.7297","3.23456","28.053","3.497","7.47","1.501","4.536","0.24","0.85","29.3973","4.65676","37.16","0","SATNPRO1509","29.364","0.41128","5"],
    [26364,"HCEP03730566","2024-06-28 21:45:00","9.7278","3.23475","28.117","3.468","7.46","1.454","3.785","0.37","0.38","29.4008","4.65729","36.86","0","SATNPRO1509","29.336","0.41092","5"],
    [26365,"HCEP03730566","2024-06-28 22:00:00","9.7269","3.23483","28.187","3.451","7.47","1.391","3.808","0.16","1.72","29.4023","4.65753","36.68","0","SATNPRO1509","29.221999999999998","0.4093","5"],
    [26366,"HCEP03730566","2024-06-28 22:15:00","9.7261","3.23488","28.205","3.438","7.47","1.314","3.375","0.28","0.26","29.4035","4.65771","36.54","0","SATNPRO1509","29.266000000000002","0.4099","5"],
    [26367,"HCEP03730566","2024-06-28 22:30:00","9.7261","3.23494","28.195","3.445","7.47","1.391","3.599","0.28","0.33","29.4041","4.6578","36.61","0","SATNPRO1509","29.222","0.40932","5"],
    [26368,"HCEP03730566","2024-06-28 22:45:00","9.7258","3.235","28.185","3.427","7.47","1.283","3.4","0.27","0.23","29.4049","4.65792","36.42","0","SATNPRO1509","29.282","0.41012","5"],
    [26369,"HCEP03730566","2024-06-28 23:00:00","9.7257","3.23504","28.141","3.427","7.48","1.308","3.318","0.31","0.14","29.4055","4.658","36.42","0","SATNPRO1509","29.258","0.40982","5"],
    [26370,"HCEP03730566","2024-06-28 23:15:00","9.7255","3.2351","28.058","3.434","7.48","1.148","3.193","0.16","0.07","29.4062","4.6581","36.49","0","SATNPRO1509","29.206","0.40912","5"],
    [26371,"HCEP03730566","2024-06-28 23:30:00","9.7251","3.23524","27.99","3.445","7.48","1.263","3.27","0.19","0.2","29.4079","4.65835","36.61","0","SATNPRO1509","29.314","0.41058","5"],
    [26372,"HCEP03730566","2024-06-28 23:45:00","9.7249","3.23537","27.926","3.478","7.48","1.224","3.063","0.16","0.16","29.4094","4.65856","36.96","0","SATNPRO1509","29.498","0.41314","5"],
    [26373,"HCEP03730566","2024-06-29 00:00:00","9.726","3.23543","27.813","3.521","7.48","1.197","3.189","0.13","0.09","29.4092","4.6585","37.41","0","SATNPRO1509","29.526","0.41356","5"],
    [26374,"HCEP03730566","2024-06-29 00:15:00","9.7272","3.23541","27.717","3.583","7.49","1.315","3.569","0.18","0.34","29.4081","4.65833","38.07","0","SATNPRO1509","29.47","0.4128","5"],
    [26375,"HCEP03730566","2024-06-29 00:30:00","9.7274","3.23546","27.607","3.633","7.49","1.207","3.302","0.11","0.1","29.4085","4.65837","38.61","0","SATNPRO1509","29.608","0.4147","5"],
    [26376,"HCEP03730566","2024-06-29 00:45:00","9.7273","3.23544","27.495","3.66","7.5","1.41","3.091","0.39","0.18","29.4084","4.65835","38.9","0","SATNPRO1509","29.594","0.41454","5"],
    [26377,"HCEP03730566","2024-06-29 01:00:00","9.7275","3.23549","27.365","3.675","7.5","1.383","3.081","0.25","0.2","29.4088","4.6584","39.06","0","SATNPRO1509","29.672","0.4156","5"],
    [26378,"HCEP03730566","2024-06-29 01:15:00","9.7279","3.23546","27.225","3.704","7.5","1.313","2.876","0.36","0.16","29.4082","4.6583","39.36","0","SATNPRO1509","29.738","0.4165","5"],
    [26379,"HCEP03730566","2024-06-29 01:30:00","9.7285","3.23545","27.079","3.734","7.5","1.215","2.993","0.22","0.27","29.4077","4.6582","39.68","0","SATNPRO1509","29.772","0.417","5"],
    [26380,"HCEP03730566","2024-06-29 01:45:00","9.7294","3.23541","26.916","3.765","7.5","1.141","2.804","0.25","0.45","29.4066","4.65803","40.01","0","SATNPRO1509","29.948","0.41944","5"],
    [26381,"HCEP03730566","2024-06-29 02:00:00","9.7294","3.2354","26.753","3.773","7.5","1.32","2.778","0.35","0.13","29.4065","4.65801","40.1","0","SATNPRO1509","29.824","0.41772","5"],
    [26382,"HCEP03730566","2024-06-29 02:15:00","9.7294","3.23538","26.583","3.767","7.5","1.112","2.841","0.18","0.11","29.4064","4.65798","40.04","0","SATNPRO1509","29.674","0.41564","5"],
    [26383,"HCEP03730566","2024-06-29 02:30:00","9.7277","3.23552","26.392","3.761","7.5","1.002","2.96","0.2","0.21","29.409300000000002","4.65841","39.98","0","SATNPRO1509","29.666","0.4155","5"],
    [26384,"HCEP03730566","2024-06-29 02:45:00","9.7264","3.2356","26.196","3.727","7.49","0.968","3.12","0.09","0.27","29.4112","4.6587","39.61","0","SATNPRO1509","29.566","0.41412","5"],
    [26385,"HCEP03730566","2024-06-29 03:00:00","9.7257","3.23565","26.012","3.699","7.49","0.798","2.753","0.03","0.18","29.4124","4.65887","39.31","0","SATNPRO1509","29.71","0.4161","5"],
    [26386,"HCEP03730566","2024-06-29 03:15:00","9.7255","3.23566","25.848","3.69","7.49","0.726","3.102","0.07","0.2","29.4127","4.65891","39.21","0","SATNPRO1509","29.682","0.41576","5"],
    [26387,"HCEP03730566","2024-06-29 03:30:00","9.7253","3.23566","25.708","3.672","7.49","0.593","3.247","0.02","0.19","29.413","4.65895","39.03","0","SATNPRO1509","29.596","0.41452","5"],
    [26388,"HCEP03730566","2024-06-29 03:45:00","9.7254","3.23565","25.569","3.655","7.49","0.492","3.32","0.02","0.07","29.4128","4.65891","38.85","0","SATNPRO1509","29.446","0.41242","5"],
    [26389,"HCEP03730566","2024-06-29 04:00:00","9.7251","3.23568","25.376","3.665","7.48","0.35","4.471","0.01","0.3","29.4135","4.659","38.95","0","SATNPRO1509","29.69","0.41586","5"],
    [26390,"HCEP03730566","2024-06-29 04:15:00","9.7251","3.23569","25.328","3.671","7.48","0.261","7.189","0.01","0.56","29.4136","4.65901","39.02","0","SATNPRO1509","29.594","0.4145","5"],
    [26391,"HCEP03730566","2024-06-29 04:30:00","9.7245","3.23574","25.293","3.663","7.48","0.196","11.816","0.01","0.08","29.4146","4.65916","38.93","0","SATNPRO1509","29.498","0.41322","5"],
    [26392,"HCEP03730566","2024-06-29 04:45:00","9.7244","3.23577","25.252","3.661","7.48","0.184","21.738","0.03","0.25","29.415","4.65922","38.9","0","SATNPRO1509","29.522","0.4135","5"],
    [26393,"HCEP03730566","2024-06-29 05:00:00","9.7236","3.23585","25.256","3.646","7.48","0.176","36.572","0.03","0.21","29.4165","4.65944","38.75","0","SATNPRO1509","29.796","0.41732","5"],
    [26394,"HCEP03730566","2024-06-29 05:15:00","9.7235","3.23588","25.268","3.663","7.48","0.226","59.236","0.07","0.15","29.4168","4.65949","38.92","0","SATNPRO1509","29.594","0.41448","5"],
    [26395,"HCEP03730566","2024-06-29 05:30:00","9.7235","3.23588","25.289","3.675","7.48","0.265","84.328","0.04","0.35","29.4168","4.6595","39.06","0","SATNPRO1509","29.742","0.4166","5"],
    [26396,"HCEP03730566","2024-06-29 05:45:00","9.7226","3.23602","25.307","3.662","7.48","0.38","122.528","0.07","3.64","29.4189","4.65981","38.92","0","SATNPRO1509","29.592","0.4145","5"],
    [26397,"HCEP03730566","2024-06-29 06:00:00","9.7211","3.23616","25.355","3.638","7.48","0.488","135.473","0.16","0.97","29.4215","4.66021","38.66","0","SATNPRO1509","29.626","0.41498","5"],
    [26398,"HCEP03730566","2024-06-29 06:15:00","9.7197","3.23628","25.398","3.625","7.48","0.437","143.143","0.12","0.83","29.4239","4.66058","38.53","0","SATNPRO1509","29.624","0.4149","5"],
    [26399,"HCEP03730566","2024-06-29 06:30:00","9.7186","3.23639","25.439","3.61","7.48","0.541","141.75","0.07","0.72","29.4259","4.66089","38.36","0","SATNPRO1509","29.524","0.41354","5"],
    [26400,"HCEP03730566","2024-06-29 06:45:00","9.7186","3.23645","25.508","3.601","7.48","0.82","136.414","1.29","0.49","29.4264","4.66096","38.27","0","SATNPRO1509","29.798","0.41736","5"],
    [26401,"HCEP03730566","2024-06-29 07:00:00","9.7185","3.23649","25.594","3.608","7.48","0.555","131.985","0.1","0.53","29.4269","4.66104","38.34","0","SATNPRO1509","29.642","0.41518","5"],
    [26402,"HCEP03730566","2024-06-29 07:15:00","9.7185","3.23651","25.703","3.61","7.49","0.612","128.228","0.15","0.27","29.4271","4.66108","38.36","0","SATNPRO1509","29.64","0.4152","5"],
    [26403,"HCEP03730566","2024-06-29 07:30:00","9.7185","3.23652","25.764","3.615","7.49","0.611","118.701","0.16","0.17","29.4272","4.6611","38.41","0","SATNPRO1509","29.650000000000002","0.41528","5"],
    [26404,"HCEP03730566","2024-06-29 07:45:00","9.7187","3.23653","25.787","3.625","7.48","0.61","87.529","0.15","0.06","29.4271","4.66107","38.52","0","SATNPRO1509","29.696","0.41596","5"],
    [26405,"HCEP03730566","2024-06-29 08:00:00","9.7187","3.23652","25.961","3.628","7.48","0.561","58.056","0.11","0.02","29.4269","4.66106","38.56","0","SATNPRO1509","29.608","0.41472","5"],
    [26406,"HCEP03730566","2024-06-29 08:15:00","9.7189","3.23651","26.05","3.636","7.49","0.494","29.731","0.09","0.02","29.4265","4.66101","38.64","0","SATNPRO1509","29.662","0.41548","5"],
    [26407,"HCEP03730566","2024-06-29 08:30:00","9.7187","3.23658","26.14","3.632","7.49","0.425","9.812","0.06","0.01","29.4274","4.66115","38.59","0","SATNPRO1509","29.816","0.41766","5"],
    [26408,"HCEP03730566","2024-06-29 08:45:00","9.7183","3.23661","26.252","3.619","7.49","0.395","1.658","0.08","0.01","29.4281","4.66125","38.46","0","SATNPRO1509","29.542","0.41376","5"],
    [26409,"HCEP03730566","2024-06-29 09:00:00","9.7184","3.23658","26.344","3.606","7.49","0.449","0.326","0.31","0.01","29.4276","4.66119","38.32","0","SATNPRO1509","29.47","0.41282","5"],
    [26410,"HCEP03730566","2024-06-29 09:15:00","9.719","3.23651","26.424","3.583","7.49","0.318","0.291","0.04","0.02","29.4264","4.66101","38.08","0","SATNPRO1509","29.426","0.41216","5"],
    [26411,"HCEP03730566","2024-06-29 09:30:00","9.7196","3.23646","26.51","3.579","7.49","0.241","0.254","0.03","0.01","29.4253","4.66085","38.03","0","SATNPRO1509","29.548000000000002","0.41386","5"],
    [26412,"HCEP03730566","2024-06-29 09:45:00","9.7196","3.23641","26.601","3.57","7.49","0.21","0.285","0.02","0.01","29.4248","4.66079","37.93","0","SATNPRO1509","29.634","0.41508","5"],
    [26413,"HCEP03730566","2024-06-29 10:00:00","9.72","3.2364","26.665","3.54","7.49","0.205","0.35","0.03","0.02","29.4244","4.66072","37.62","0","SATNPRO1509","29.584","0.4144","5"],
    [26414,"HCEP03730566","2024-06-29 10:15:00","9.7202","3.23637","26.729","3.503","7.48","0.192","0.461","0.03","0.04","29.4238","4.66063","37.23","0","SATNPRO1509","29.534","0.4137","5"],
    [26415,"HCEP03730566","2024-06-29 10:30:00","9.721","3.23635","26.779","3.504","7.47","0.186","0.548","0.03","0.03","29.423","4.66051","37.23","0","SATNPRO1509","29.554","0.41398","5"],
    [26416,"HCEP03730566","2024-06-29 10:45:00","9.7224","3.23637","26.879","3.52","7.47","0.182","0.571","0.04","0.03","29.4219","4.66034","37.41","0","SATNPRO1509","29.896","0.41872","5"],
    [26417,"HCEP03730566","2024-06-29 11:00:00","9.7226","3.23635","26.928","3.565","7.47","0.185","0.662","0.03","0.07","29.4216","4.66029","37.89","0","SATNPRO1509","29.554","0.41396","5"],
    [26418,"HCEP03730566","2024-06-29 11:15:00","9.7225","3.23626","26.939","3.553","7.47","0.2","0.713","0.04","0.05","29.4208","4.66017","37.76","0","SATNPRO1509","29.486","0.41298","5"],
    [26419,"HCEP03730566","2024-06-29 11:30:00","9.7223","3.23624","26.931","3.526","7.48","0.26","0.858","0.07","0.19","29.4208","4.66018","37.47","0","SATNPRO1509","29.364","0.4113","5"],
    [26420,"HCEP03730566","2024-06-29 11:45:00","9.7225","3.23616","26.885","3.505","7.48","0.296","0.854","0.08","0.08","29.4198","4.66004","37.25","0","SATNPRO1509","29.54","0.41376","5"],
    [26421,"HCEP03730566","2024-06-29 12:00:00","9.7231","3.2361","26.869","3.501","7.48","0.336","0.942","0.09","0.06","29.4188","4.65987","37.2","0","SATNPRO1509","29.534","0.41366","5"],
    [26422,"HCEP03730566","2024-06-29 12:15:00","9.7235","3.23604","26.817","3.51","7.48","0.332","0.981","0.09","0.07","29.4178","4.65973","37.3","0","SATNPRO1509","29.596","0.41452","5"],
    [26423,"HCEP03730566","2024-06-29 12:30:00","9.7268","3.23567","26.789","3.573","7.48","0.35","0.965","0.07","0.05","29.4114","4.65875","37.97","0","SATNPRO1509","29.886","0.4186","5"],
    [26424,"HCEP03730566","2024-06-29 12:45:00","9.7248","3.2358","26.782","3.631","7.49","0.415","1.125","0.1","0.05","29.4144","4.65921","38.59","0","SATNPRO1509","29.896","0.41874","5"],
    [26425,"HCEP03730566","2024-06-29 13:00:00","9.7258","3.2358","26.644","3.619","7.49","0.502","1.251","0.08","0.06","29.4137","4.65908","38.46","0","SATNPRO1509","30.152","0.42236","5"],
    [26426,"HCEP03730566","2024-06-29 13:15:00","9.7233","3.23609","26.615","3.552","7.49","0.703","1.657","0.24","0.17","29.4185","4.65982","37.75","0","SATNPRO1509","29.498","0.4132","5"],
    [26427,"HCEP03730566","2024-06-29 13:30:00","9.7234","3.23604","26.541","3.457","7.48","1.017","1.915","0.82","0.26","29.4181","4.65975","36.74","0","SATNPRO1509","29.368","0.41132","5"],
    [26428,"HCEP03730566","2024-06-29 13:45:00","9.7232","3.23615","26.479","3.433","7.48","0.944","2.409","0.19","0.21","29.4193","4.65993","36.48","0","SATNPRO1509","29.194","0.4089","5"],
    [26429,"HCEP03730566","2024-06-29 14:00:00","9.7237","3.23636","26.41","3.442","7.48","1.005","2.54","0.13","0.13","29.421","4.66016","36.58","0","SATNPRO1509","29.402","0.4118","5"],
    [26430,"HCEP03730566","2024-06-29 14:15:00","9.7238","3.23632","26.335","3.523","7.48","0.998","2.471","0.2","0.46","29.4206","4.6601","37.45","0","SATNPRO1509","29.524","0.41354","5"],
    [26431,"HCEP03730566","2024-06-29 14:30:00","9.724","3.23632","26.25","3.557","7.49","1.143","2.723","0.25","0.23","29.4204","4.66006","37.8","0","SATNPRO1509","29.674","0.41564","5"],
    [26432,"HCEP03730566","2024-06-29 14:45:00","9.7241","3.23627","26.161","3.554","7.48","1.204","2.973","0.23","0.37","29.4199","4.65997","37.77","0","SATNPRO1509","29.536","0.41372","5"],
    [26433,"HCEP03730566","2024-06-29 15:00:00","9.7242","3.2362","26.095","3.514","7.48","1.45","3.167","0.64","0.28","29.4191","4.65986","37.35","0","SATNPRO1509","29.406000000000002","0.41188","5"],
    [26434,"HCEP03730566","2024-06-29 15:15:00","9.7242","3.23616","25.958","3.477","7.48","1.511","3.346","0.4","0.5","29.4189","4.65981","36.95","0","SATNPRO1509","29.246","0.40962","5"],
    [26435,"HCEP03730566","2024-06-29 15:30:00","9.7249","3.23596","25.901","3.435","7.48","1.38","3.31","0.3","0.26","29.4162","4.65943","36.5","0","SATNPRO1509","29.067999999999998","0.40712","5"],
    [26436,"HCEP03730566","2024-06-29 15:45:00","9.7251","3.23588","25.823","3.388","7.47","1.577","3.551","0.3","0.42","29.4153","4.65928","36","0","SATNPRO1509","29.176","0.40862","5"],
    [26437,"HCEP03730566","2024-06-29 16:00:00","9.7247","3.23596","25.811","3.375","7.47","1.345","3.674","0.22","0.37","29.4164","4.65944","35.86","0","SATNPRO1509","29.038","0.40674","5"],
    [26438,"HCEP03730566","2024-06-29 16:15:00","9.7246","3.236","25.76","3.371","7.47","1.3","3.379","0.16","0.17","29.4169","4.65951","35.83","0","SATNPRO1509","29.144000000000002","0.40824","5"],
    [26439,"HCEP03730566","2024-06-29 16:30:00","9.7243","3.23607","25.726","3.378","7.47","1.491","3.317","0.27","0.24","29.4179","4.65966","35.89","0","SATNPRO1509","29.142","0.4082","5"],
    [26440,"HCEP03730566","2024-06-29 16:45:00","9.7242","3.23614","25.667","3.386","7.46","1.342","3.348","0.16","0.26","29.4187","4.65978","35.98","0","SATNPRO1509","29.264","0.4099","5"],
    [26441,"HCEP03730566","2024-06-29 17:00:00","9.724","3.23622","25.703","3.401","7.46","1.423","3.173","0.28","0.19","29.4196","4.65991","36.15","0","SATNPRO1509","29.304","0.41042","5"],
    [26442,"HCEP03730566","2024-06-29 17:15:00","9.724","3.23626","25.726","3.425","7.46","1.393","3.068","0.25","0.23","29.4201","4.65998","36.39","0","SATNPRO1509","29.3","0.41042","5"],
    [26443,"HCEP03730566","2024-06-29 17:30:00","9.7243","3.23649","25.786","3.437","7.46","1.506","3.37","0.21","0.17","29.4221","4.66027","36.53","0","SATNPRO1509","29.476","0.4129","5"],
    [26444,"HCEP03730566","2024-06-29 17:45:00","9.7244","3.23663","25.868","3.49","7.47","1.538","3.395","0.15","0.16","29.4235","4.66047","37.09","0","SATNPRO1509","29.506","0.41328","5"],
    [26445,"HCEP03730566","2024-06-29 18:00:00","9.7243","3.23678","25.931","3.553","7.47","1.963","3.513","0.42","0.37","29.4249","4.66068","37.76","0","SATNPRO1509","29.796","0.41734","5"],
    [26446,"HCEP03730566","2024-06-29 18:15:00","9.7242","3.23683","26.027","3.617","7.47","1.528","3.002","0.34","0.21","29.4255","4.66078","38.45","0","SATNPRO1509","29.864","0.41832","5"],
    [26447,"HCEP03730566","2024-06-29 18:30:00","9.7244","3.23679","26.134","3.664","7.48","1.349","2.796","0.28","0.17","29.425","4.66069","38.94","0","SATNPRO1509","29.842","0.418","5"],
    [26448,"NA","2024-06-29 18:45:00",null,null,null,null,null,null,null,null,null,null,null,null,null,"SATNPRO1509","29.686","0.41582","5"],
    [26449,"HCEP03730566","2024-06-29 18:45:01","9.7245","3.23681","26.234","3.681","7.48","1.592","3.236","0.44","0.49","29.425","4.6607","39.12","0","NA",null,null,null],
    [26450,"HCEP03730566","2024-06-29 19:00:00","9.7248","3.2369","26.347","3.696","7.49","1.352","3.02","0.31","0.37","29.4256","4.66079","39.28","0","SATNPRO1509","29.774","0.41702","5"],
    [26451,"HCEP03730566","2024-06-29 19:15:00","9.7248","3.23695","26.488","3.717","7.49","1.335","2.868","0.45","0.23","29.4261","4.66087","39.51","0","SATNPRO1509","29.87","0.41842","5"],
    [26452,"HCEP03730566","2024-06-29 19:30:00","9.7251","3.23691","26.633","3.72","7.5","1.319","3.118","0.24","0.27","29.4253","4.66077","39.54","0","SATNPRO1509","29.712","0.41618","5"],
    [26453,"HCEP03730566","2024-06-29 19:45:00","9.7247","3.23645","26.763","3.614","7.5","1.475","3.447","0.25","0.28","29.421","4.66016","38.41","0","SATNPRO1509","29.322","0.41074","5"],
    [26454,"HCEP03730566","2024-06-29 20:00:00","9.7249","3.23615","26.895","3.461","7.49","1.377","3.532","0.23","0.25","29.4177","4.65969","36.79","0","SATNPRO1509","29.19","0.40882","5"],
    [26455,"HCEP03730566","2024-06-29 20:15:00","9.7258","3.23612","27.033","3.429","7.48","1.428","3.812","0.23","0.3","29.4166","4.65953","36.44","0","SATNPRO1509","30.1","0.4216","5"],
    [26456,"HCEP03730566","2024-06-29 20:30:00","9.7264","3.2361","27.191","3.434","7.48","1.407","3.744","0.23","0.37","29.4159","4.65943","36.5","0","SATNPRO1509","29.182","0.40872","5"],
    [26457,"HCEP03730566","2024-06-29 20:45:00","9.7271","3.23607","27.321","3.463","7.48","1.3","3.64","0.2","0.29","29.415","4.65929","36.81","0","SATNPRO1509","29.354","0.41116","5"],
    [26458,"HCEP03730566","2024-06-29 21:00:00","9.7282","3.23605","27.473","3.496","7.48","1.639","4.085","0.59","0.37","29.4138","4.65911","37.15","0","SATNPRO1509","29.278","0.4101","5"],
    [26459,"HCEP03730566","2024-06-29 21:15:00","9.7307","3.23598","27.617","3.528","7.48","1.306","3.63","0.19","0.47","29.411","4.65867","37.5","0","SATNPRO1509","29.562","0.41406","5"],
    [26460,"HCEP03730566","2024-06-29 21:30:00","9.7311","3.23595","27.746","3.584","7.49","1.217","3.248","0.26","0.32","29.4103","4.65857","38.09","0","SATNPRO1509","29.578","0.4143","5"],
    [26461,"HCEP03730566","2024-06-29 21:45:00","9.732","3.23599","27.872","3.651","7.49","1.323","3.407","0.25","0.4","29.41","4.65852","38.8","0","SATNPRO1509","30.080000000000002","0.42136","5"],
    [26462,"HCEP03730566","2024-06-29 22:00:00","9.7316","3.23609","27.976","3.681","7.5","1.221","3.127","0.29","0.43","29.4113","4.65871","39.12","0","SATNPRO1509","29.64","0.41516","5"],
    [26463,"HCEP03730566","2024-06-29 22:15:00","9.7318","3.23612","28.041","3.721","7.5","1.25","3.255","0.21","0.33","29.4114","4.65873","39.55","0","SATNPRO1509","29.614","0.41482","5"],
    [26464,"HCEP03730566","2024-06-29 22:30:00","9.7314","3.23622","28.09","3.729","7.5","1.103","3.269","0.15","0.34","29.4126","4.65892","39.64","0","SATNPRO1509","29.784","0.41718","5"],
    [26465,"HCEP03730566","2024-06-29 22:45:00","9.7311","3.23627","28.122","3.754","7.49","1.157","2.978","0.18","0.17","29.4134","4.65904","39.9","0","SATNPRO1509","29.858","0.4182","5"],
    [26466,"HCEP03730566","2024-06-29 23:00:00","9.7311","3.23623","28.17","3.815","7.5","1.205","2.741","0.28","0.24","29.4129","4.65897","40.55","0","SATNPRO1509","30.044","0.4208","5"],
    [26467,"HCEP03730566","2024-06-29 23:15:00","9.7331","3.23595","28.122","3.888","7.5","1.035","2.636","0.32","0.66","29.4085","4.65831","41.33","0","SATNPRO1509","30.37","0.4254","5"],
    [26468,"HCEP03730566","2024-06-29 23:30:00","9.7363","3.23568","28.095","3.971","7.51","1.06","2.474","0.41","0.31","29.4032","4.65749","42.2","0","SATNPRO1509","30.41","0.42592","5"],
    [26469,"HCEP03730566","2024-06-29 23:45:00","9.7408","3.23557","28.073","3.983","7.51","0.992","2.883","0.18","0.36","29.3984","4.65673","42.34","0","SATNPRO1509","30.092","0.42152","5"],
    [26470,"HCEP03730566","2024-06-30 00:00:00","9.7418","3.23552","28.028","3.952","7.51","1.125","3.182","0.25","0.29","29.3972","4.65653","42.01","0","SATNPRO1509","30.168","0.42258","5"],
    [26471,"HCEP03730566","2024-06-30 00:15:00","9.7401","3.23558","27.968","3.945","7.51","0.925","3.236","0.28","0.23","29.3992","4.65685","41.93","0","SATNPRO1509","30.092","0.42148","5"],
    [26472,"HCEP03730566","2024-06-30 00:30:00","9.7395","3.2356","27.885","3.94","7.51","0.899","3.195","0.15","1.02","29.3999","4.65695","41.88","0","SATNPRO1509","29.94","0.4194","5"],
    [26473,"HCEP03730566","2024-06-30 00:45:00","9.7398","3.23558","27.785","3.953","7.51","0.963","2.765","0.39","0.37","29.3995","4.65689","42.02","0","SATNPRO1509","30.314","0.42458","5"],
    [26474,"HCEP03730566","2024-06-30 01:00:00","9.7396","3.23555","27.68","3.967","7.51","0.912","2.408","0.68","0.17","29.3993","4.65685","42.17","0","SATNPRO1509","30.355999999999998","0.42522","5"],
    [26475,"HCEP03730566","2024-06-30 01:15:00","9.7341","3.23569","27.545","4.001","7.51","0.725","2.193","0.15","0.14","29.4054","4.65781","42.53","0","SATNPRO1509","30.802","0.43142","5"],
    [26476,"HCEP03730566","2024-06-30 01:30:00","9.7332","3.23576","27.418","4.039","7.52","0.982","3.007","0.28","0.23","29.4069","4.65803","42.93","0","SATNPRO1509","30.78","0.43114","5"],
    [26477,"HCEP03730566","2024-06-30 01:45:00","9.7332","3.23586","27.272","4.023","7.51","0.792","2.586","0.19","0.11","29.4079","4.65817","42.76","0","SATNPRO1509","30.586","0.42836","5"],
    [26478,"HCEP03730566","2024-06-30 02:00:00","9.732","3.23609","27.112","3.945","7.51","0.896","4.088","0.15","0.32","29.4112","4.65865","41.93","0","SATNPRO1509","30.142","0.42214","5"],
    [26479,"HCEP03730566","2024-06-30 02:15:00","9.7319","3.23613","26.934","3.848","7.51","0.994","5.045","0.14","0.21","29.4118","4.65873","40.9","0","SATNPRO1509","30.006","0.42028","5"],
    [26480,"HCEP03730566","2024-06-30 02:30:00","9.7325","3.23605","26.748","3.799","7.5","1.743","6.897","0.89","0.45","29.4107","4.65855","40.38","0","SATNPRO1509","29.936","0.41932","5"],
    [26481,"HCEP03730566","2024-06-30 02:45:00","9.7334","3.23599","26.538","3.792","7.5","1.119","10.392","0.26","0.22","29.4094","4.65833","40.31","0","SATNPRO1509","30.266","0.4239","5"],
    [26482,"HCEP03730566","2024-06-30 03:00:00","9.7339","3.23595","26.347","3.782","7.5","1.263","17.324","0.62","0.31","29.4086","4.6582","40.2","0","SATNPRO1509","29.948","0.41946","5"],
    [26483,"HCEP03730566","2024-06-30 03:15:00","9.7348","3.23589","26.135","3.743","7.5","1.139","27.804","0.42","0.52","29.4073","4.65799","39.79","0","SATNPRO1509","29.766000000000002","0.41694","5"],
    [26484,"HCEP03730566","2024-06-30 03:30:00","9.7354","3.23582","25.918","3.721","7.5","1.31","38.416","0.58","0.19","29.4062","4.65781","39.55","0","SATNPRO1509","29.662","0.41546","5"],
    [26485,"HCEP03730566","2024-06-30 03:45:00","9.7363","3.23574","25.697","3.705","7.49","1.138","46.064","0.19","0.25","29.4047","4.65757","39.38","0","SATNPRO1509","29.778","0.41712","5"],
    [26486,"HCEP03730566","2024-06-30 04:00:00","9.7368","3.23563","25.5","3.678","7.49","1.268","61.68","0.3","0.54","29.4033","4.65734","39.09","0","SATNPRO1509","29.46","0.41264","5"],
    [26487,"HCEP03730566","2024-06-30 04:15:00","9.7361","3.23552","25.316","3.626","7.49","1.28","56.861","0.3","0.38","29.4029","4.65729","38.54","0","SATNPRO1509","29.474","0.41284","5"],
    [26488,"HCEP03730566","2024-06-30 04:30:00","9.7356","3.23549","25.168","3.584","7.49","1.143","59.004","0.12","1.12","29.4031","4.65731","38.09","0","SATNPRO1509","29.496","0.41314","5"],
    [26489,"HCEP03730566","2024-06-30 04:45:00","9.7349","3.23554","25.002","3.559","7.48","1.068","63.331","0.1","0.43","29.4042","4.65747","37.83","0","SATNPRO1509","29.5","0.41318","5"],
    [26490,"HCEP03730566","2024-06-30 05:00:00","9.733","3.23563","24.857","3.531","7.48","1.231","59.599","0.56","0.46","29.4067","4.65786","37.53","0","SATNPRO1509","29.488","0.413","5"],
    [26491,"HCEP03730566","2024-06-30 05:15:00","9.7324","3.23569","24.765","3.504","7.48","1.167","55.215","0.42","0.21","29.4079","4.65803","37.25","0","SATNPRO1509","29.426","0.41218","5"],
    [26492,"HCEP03730566","2024-06-30 05:30:00","9.7304","3.23576","24.717","3.481","7.48","1.089","51.12","0.2","0.16","29.4101","4.65838","37","0","SATNPRO1509","29.362","0.41126","5"],
    [26493,"HCEP03730566","2024-06-30 05:45:00","9.73","3.23578","24.683","3.468","7.47","1.071","48.448","0.36","0.21","29.4108","4.65849","36.86","0","SATNPRO1509","29.400000000000002","0.41176","5"],
    [26494,"HCEP03730566","2024-06-30 06:00:00","9.7295","3.23584","24.682","3.448","7.47","1.284","45.127","0.42","0.22","29.4118","4.65864","36.65","0","SATNPRO1509","29.384","0.41156","5"],
    [26495,"HCEP03730566","2024-06-30 06:15:00","9.7292","3.2359","24.684","3.409","7.47","1.216","42.19","0.18","0.11","29.4127","4.65877","36.23","0","SATNPRO1509","29.218","0.40922","5"],
    [26496,"HCEP03730566","2024-06-30 06:30:00","9.7292","3.23596","24.724","3.388","7.47","1.246","40.357","0.25","0.39","29.4132","4.65884","36.01","0","SATNPRO1509","29.242","0.4096","5"],
    [26497,"HCEP03730566","2024-06-30 06:45:00","9.7289","3.23601","24.764","3.361","7.47","1.324","41.435","0.21","0.45","29.4139","4.65896","35.72","0","SATNPRO1509","29.009999999999998","0.40628","5"],
    [26498,"HCEP03730566","2024-06-30 07:00:00","9.7284","3.2361","24.801","3.322","7.47","1.377","42.068","0.15","0.45","29.4152","4.65916","35.3","0","SATNPRO1509","29.108","0.40772","5"],
    [26499,"HCEP03730566","2024-06-30 07:15:00","9.7283","3.2361","24.866","3.32","7.46","1.357","43.941","0.29","0.55","29.4153","4.65917","35.28","0","SATNPRO1509","28.990000000000002","0.40602","5"],
    [26500,"HCEP03730566","2024-06-30 07:30:00","9.7288","3.23607","24.939","3.308","7.46","1.343","42.121","0.61","0.33","29.4146","4.65907","35.16","0","SATNPRO1509","29.018","0.40646","5"],
    [26501,"HCEP03730566","2024-06-30 07:45:00","9.7288","3.23605","25.049","3.287","7.46","1.519","41.759","0.26","0.6","29.4143","4.65903","34.94","0","SATNPRO1509","28.88","0.4045","5"],
    [26502,"HCEP03730566","2024-06-30 08:00:00","9.7293","3.2361","25.177","3.269","7.46","1.093","36.84","0.12","1.73","29.4144","4.65904","34.75","0","SATNPRO1509","28.974","0.40582","5"],
    [26503,"HCEP03730566","2024-06-30 08:15:00","9.7283","3.23619","25.32","3.271","7.46","1.095","27.377","0.1","0.78","29.4161","4.65931","34.77","0","SATNPRO1509","28.97","0.40576","5"],
    [26504,"HCEP03730566","2024-06-30 08:30:00","9.7272","3.23646","25.47","3.293","7.46","1.123","27.919","0.14","1.88","29.4195","4.65983","35","0","SATNPRO1509","29.122","0.4079","5"],
    [26505,"HCEP03730566","2024-06-30 08:45:00","9.7269","3.23656","25.572","3.335","7.46","1.05","33.373","0.14","0.67","29.4208","4.66002","35.45","0","SATNPRO1509","29.154","0.40832","5"],
    [26506,"HCEP03730566","2024-06-30 09:00:00","9.7268","3.23663","25.669","3.354","7.47","1.024","31.271","0.17","0.28","29.4215","4.66013","35.65","0","SATNPRO1509","29.240000000000002","0.40954","5"],
    [26507,"HCEP03730566","2024-06-30 09:15:00","9.7272","3.23669","25.813","3.364","7.47","1.257","31.141","0.35","0.25","29.4217","4.66016","35.75","0","SATNPRO1509","29.102","0.40762","5"],
    [26508,"HCEP03730566","2024-06-30 09:30:00","9.7263","3.23661","25.964","3.35","7.47","1.059","33.343","0.14","0.37","29.4216","4.66017","35.61","0","SATNPRO1509","29.17","0.40858","5"],
    [26509,"HCEP03730566","2024-06-30 09:45:00","9.7262","3.23657","26.072","3.353","7.47","0.951","28.246","0.1","0.18","29.4213","4.66013","35.64","0","SATNPRO1509","29.234","0.40948","5"],
    [26510,"HCEP03730566","2024-06-30 10:00:00","9.7262","3.23654","26.172","3.333","7.47","1.257","26.439","0.75","0.28","29.4209","4.66008","35.43","0","SATNPRO1509","29.064","0.4071","5"],
    [26511,"HCEP03730566","2024-06-30 10:15:00","9.726","3.23653","26.307","3.294","7.47","1.162","24.152","0.22","0.3","29.4209","4.6601","35.01","0","SATNPRO1509","29.062","0.40704","5"],
    [26512,"HCEP03730566","2024-06-30 10:30:00","9.7264","3.23646","26.457","3.281","7.47","1.04","22.373","0.14","0.77","29.4198","4.65994","34.87","0","SATNPRO1509","29.02","0.40646","5"],
    [26513,"HCEP03730566","2024-06-30 10:45:00","9.7275","3.23626","26.577","3.287","7.47","1.08","23.045","0.14","0.17","29.4168","4.6595","34.93","0","SATNPRO1509","29.214000000000002","0.40918","5"],
    [26514,"HCEP03730566","2024-06-30 11:00:00","9.7298","3.23605","26.671","3.322","7.47","1.063","25.606","0.26","0.28","29.4128","4.6589","35.31","0","SATNPRO1509","29.194","0.40892","5"],
    [26515,"HCEP03730566","2024-06-30 11:15:00","9.7322","3.23568","26.775","3.369","7.47","0.957","26.148","0.12","0.09","29.407","4.65803","35.81","0","SATNPRO1509","29.452","0.4125","5"],
    [26516,"HCEP03730566","2024-06-30 11:30:00","9.7289","3.23607","26.866","3.351","7.47","0.976","27.415","0.14","0.14","29.4137","4.65905","35.62","0","SATNPRO1509","29.18","0.40872","5"],
    [26517,"HCEP03730566","2024-06-30 11:45:00","9.7296","3.23608","26.933","3.315","7.47","0.981","28.101","0.13","0.1","29.4132","4.65897","35.24","0","SATNPRO1509","29.232","0.40942","5"],
    [26518,"HCEP03730566","2024-06-30 12:00:00","9.7305","3.23594","27.005","3.297","7.47","0.956","28.706","0.17","0.15","29.411","4.65864","35.04","0","SATNPRO1509","29.262","0.40984","5"],
    [26519,"HCEP03730566","2024-06-30 12:15:00","9.7335","3.23574","27.016","3.321","7.47","0.89","27.164","0.23","0.11","29.4066","4.65796","35.3","0","SATNPRO1509","29.39","0.4117","5"],
    [26520,"HCEP03730566","2024-06-30 12:30:00","9.7323","3.23577","27.027","3.326","7.46","0.81","23.09","0.13","0.13","29.4078","4.65815","35.35","0","SATNPRO1509","29.29","0.41026","5"],
    [26521,"HCEP03730566","2024-06-30 12:45:00","9.7318","3.23577","27.021","3.316","7.46","0.848","20.706","0.11","0.11","29.4083","4.65824","35.25","0","SATNPRO1509","29.2","0.409","5"],
    [26522,"HCEP03730566","2024-06-30 13:00:00","9.7333","3.23553","27.013","3.315","7.45","0.81","17.572","0.1","0.12","29.4046","4.65768","35.23","0","SATNPRO1509","29.29","0.41026","5"],
    [26523,"HCEP03730566","2024-06-30 13:15:00","9.7318","3.23562","26.972","3.313","7.45","0.839","13.452","0.17","0.13","29.4068","4.65802","35.22","0","SATNPRO1509","29.326","0.41076","5"],
    [26524,"HCEP03730566","2024-06-30 13:30:00","9.7312","3.23564","27.005","3.259","7.45","0.882","10.16","0.12","0.26","29.4074","4.65812","34.64","0","SATNPRO1509","29.056","0.40698","5"],
    [26525,"HCEP03730566","2024-06-30 13:45:00","9.7317","3.23545","26.956","3.207","7.45","0.904","7.575","0.14","0.13","29.4051","4.65778","34.09","0","SATNPRO1509","29.028","0.40656","5"],
    [26526,"HCEP03730566","2024-06-30 14:00:00","9.7328","3.23524","26.913","3.167","7.45","0.933","5.716","0.16","0.17","29.4022","4.65734","33.66","0","SATNPRO1509","28.99","0.40604","5"],
    [26527,"HCEP03730566","2024-06-30 14:15:00","9.7341","3.23505","26.904","3.152","7.45","0.966","4.789","0.14","0.31","29.3991","4.65688","33.5","0","SATNPRO1509","29.026","0.40658","5"],
    [26528,"HCEP03730566","2024-06-30 14:30:00","9.7348","3.23486","26.843","3.157","7.45","1.016","4.052","0.15","0.12","29.3967","4.65651","33.55","0","SATNPRO1509","29.202","0.40904","5"],
    [26529,"HCEP03730566","2024-06-30 14:45:00","9.7357","3.23467","26.767","3.171","7.45","1.056","3.82","0.17","0.26","29.394","4.65611","33.7","0","SATNPRO1509","29.22","0.40926","5"],
    [26530,"HCEP03730566","2024-06-30 15:00:00","9.7367","3.23447","26.722","3.183","7.46","1.216","4.77","0.54","5.4","29.3913","4.6557","33.84","0","SATNPRO1509","29.242","0.40958","5"],
    [26531,"HCEP03730566","2024-06-30 15:15:00","9.7375","3.23436","26.651","3.178","7.46","1.207","3.135","0.28","0.31","29.3896","4.65543","33.78","0","SATNPRO1509","29.114","0.4078","5"],
    [26532,"HCEP03730566","2024-06-30 15:30:00","9.7385","3.23423","26.636","3.161","7.45","1.121","2.633","0.26","0.23","29.3874","4.65511","33.6","0","SATNPRO1509","29.272","0.41002","5"],
    [26533,"HCEP03730566","2024-06-30 15:45:00","9.7397","3.23408","26.589","3.15","7.45","1.098","2.656","0.18","0.29","29.385","4.65473","33.48","0","SATNPRO1509","29.27","0.41","5"],
    [26534,"HCEP03730566","2024-06-30 16:00:00","9.7401","3.234","26.621","3.132","7.45","1.128","2.659","0.2","0.32","29.3839","4.65457","33.29","0","SATNPRO1509","29.228","0.40936","5"],
    [26535,"HCEP03730566","2024-06-30 16:15:00","9.7408","3.23399","26.583","3.12","7.45","1.16","2.703","0.22","0.31","29.3831","4.65445","33.16","0","SATNPRO1509","29.176","0.40864","5"],
    [26536,"HCEP03730566","2024-06-30 16:30:00","9.741","3.23396","26.525","3.107","7.45","1.119","2.744","0.22","0.21","29.3827","4.65438","33.03","0","SATNPRO1509","29.246","0.40962","5"],
    [26537,"HCEP03730566","2024-06-30 16:45:00","9.7404","3.23398","26.394","3.1","7.45","1.118","2.59","0.17","0.1","29.3835","4.65449","32.94","0","SATNPRO1509","29.2","0.40898","5"],
    [26538,"HCEP03730566","2024-06-30 17:00:00","9.7403","3.23405","26.372","3.1","7.45","1.113","2.691","0.13","0.3","29.3843","4.65461","32.94","0","SATNPRO1509","29.272000000000002","0.41","5"],
    [26539,"HCEP03730566","2024-06-30 17:15:00","9.7396","3.2341","26.329","3.096","7.45","1.187","3.103","0.14","0.14","29.3853","4.65477","32.91","0","SATNPRO1509","29.06","0.40702","5"],
    [26540,"HCEP03730566","2024-06-30 17:30:00","9.7384","3.23435","26.275","3.08","7.45","1.28","3.115","0.17","0.22","29.3888","4.65528","32.73","0","SATNPRO1509","29.084","0.40742","5"],
    [26541,"HCEP03730566","2024-06-30 17:45:00","9.737","3.23455","26.238","3.088","7.44","1.295","3.183","0.21","0.17","29.392","4.65576","32.83","0","SATNPRO1509","28.958","0.4056","5"],
    [26542,"HCEP03730566","2024-06-30 18:00:00","9.7371","3.23455","26.26","3.094","7.45","1.403","3.522","0.2","0.12","29.3919","4.65575","32.89","0","SATNPRO1509","29.07","0.40716","5"],
    [26543,"HCEP03730566","2024-06-30 18:15:00","9.7365","3.2346","26.294","3.096","7.45","1.35","3.141","0.15","0.14","29.3929","4.6559","32.9","0","SATNPRO1509","28.994","0.40612","5"],
    [26544,"HCEP03730566","2024-06-30 18:30:00","9.7363","3.23469","26.298","3.094","7.45","1.293","4.991","0.15","3.73","29.394","4.65607","32.88","0","SATNPRO1509","29.09","0.40746","5"],
    [26545,"HCEP03730566","2024-06-30 18:45:00","9.7354","3.23491","26.311","3.085","7.45","1.25","2.929","0.13","0.12","29.3969","4.6565","32.79","0","SATNPRO1509","28.974","0.40582","5"],
    [26546,"HCEP03730566","2024-06-30 19:00:00","9.7348","3.23514","26.393","3.073","7.45","1.385","3.49","0.18","0.21","29.3997","4.65692","32.66","0","SATNPRO1509","28.882","0.40458","5"],
    [26547,"HCEP03730566","2024-06-30 19:15:00","9.7348","3.23539","26.418","3.094","7.45","1.42","3.552","0.23","0.17","29.4022","4.65727","32.89","0","SATNPRO1509","28.878","0.40448","5"],
    [26548,"HCEP03730566","2024-06-30 19:30:00","9.7357","3.23554","26.524","3.108","7.45","1.315","3.499","0.15","0.16","29.4029","4.65737","33.03","0","SATNPRO1509","28.846","0.40406","5"],
    [26549,"HCEP03730566","2024-06-30 19:45:00","9.7368","3.23559","26.628","3.113","7.45","1.325","3.372","0.16","0.18","29.4025","4.6573","33.09","0","SATNPRO1509","28.75","0.4027","5"],
    [26550,"HCEP03730566","2024-06-30 20:00:00","9.7355","3.2356","26.709","3.119","7.45","1.337","3.578","0.09","0.14","29.4036","4.65748","33.15","0","SATNPRO1509","28.834","0.40386","5"],
    [26551,"HCEP03730566","2024-06-30 20:15:00","9.7354","3.23562","26.808","3.139","7.46","1.403","3.28","0.13","0.18","29.4039","4.65753","33.36","0","SATNPRO1509","28.934","0.40528","5"],
    [26552,"HCEP03730566","2024-06-30 20:30:00","9.7354","3.23563","26.894","3.15","7.46","1.473","3.642","0.16","0.11","29.4039","4.65754","33.48","0","SATNPRO1509","29.052","0.4069","5"],
    [26553,"HCEP03730566","2024-06-30 20:45:00","9.7358","3.23563","27.003","3.153","7.46","1.504","3.649","0.13","0.16","29.4036","4.65749","33.52","0","SATNPRO1509","28.924","0.4051","5"],
    [26554,"HCEP03730566","2024-06-30 21:00:00","9.7376","3.23567","27.133","3.156","7.46","1.331","3.281","0.13","0.14","29.4024","4.6573","33.55","0","SATNPRO1509","28.932","0.40526","5"],
    [26555,"HCEP03730566","2024-06-30 21:15:00","9.7381","3.2357","27.238","3.157","7.46","1.384","3.435","0.17","0.23","29.4023","4.65728","33.55","0","SATNPRO1509","28.848","0.40406","5"],
    [26556,"HCEP03730566","2024-06-30 21:30:00","9.739","3.2358","27.341","3.148","7.46","1.305","3.436","0.07","0.14","29.4025","4.6573","33.46","0","SATNPRO1509","28.686","0.4018","5"],
    [26557,"HCEP03730566","2024-06-30 21:45:00","9.7402","3.23588","27.452","3.146","7.46","1.408","3.763","0.08","0.09","29.4024","4.65726","33.44","0","SATNPRO1509","28.73","0.40242","5"],
    [26558,"HCEP03730566","2024-06-30 22:00:00","9.7423","3.2359","27.549","3.183","7.46","1.466","3.498","0.14","0.12","29.4007","4.657","33.84","0","SATNPRO1509","28.686","0.40176","5"],
    [26559,"HCEP03730566","2024-06-30 22:15:00","9.7459","3.23577","27.629","3.272","7.46","1.603","3.84","0.13","0.12","29.3964","4.65633","34.79","0","SATNPRO1509","29.01","0.40632","5"],
    [26560,"HCEP03730566","2024-06-30 22:30:00","9.7453","3.23584","27.745","3.351","7.47","1.614","3.488","0.2","0.22","29.3976","4.65652","35.62","0","SATNPRO1509","29.182","0.40872","5"],
    [26561,"HCEP03730566","2024-06-30 22:45:00","9.7446","3.23581","27.8","3.384","7.47","1.645","3.521","0.21","0.31","29.3979","4.65657","35.97","0","SATNPRO1509","29.163999999999998","0.40848","5"],
    [26562,"HCEP03730566","2024-06-30 23:00:00","9.7434","3.23587","27.88","3.423","7.48","1.74","3.931","0.2","0.33","29.3994","4.6568","36.39","0","SATNPRO1509","29.144000000000002","0.4082","5"],
    [26563,"HCEP03730566","2024-06-30 23:15:00","9.7458","3.2359","27.906","3.49","7.48","1.764","3.497","0.29","0.25","29.3978","4.65654","37.1","0","SATNPRO1509","29.294","0.4103","5"],
    [26564,"HCEP03730566","2024-06-30 23:30:00","9.7491","3.23612","27.952","3.599","7.49","1.616","3.341","0.24","0.32","29.3972","4.6564","38.26","0","SATNPRO1509","29.604","0.41464","5"],
    [26565,"HCEP03730566","2024-06-30 23:45:00","9.7544","3.23668","27.951","3.745","7.5","1.466","3.056","0.16","0.16","29.3986","4.6565","39.82","0","SATNPRO1509","29.786","0.41722","5"],
    [26566,"HCEP03730566","2024-07-01 00:00:00","9.7585","3.23701","27.953","3.887","7.51","1.301","2.779","0.14","0.27","29.3986","4.65643","41.33","0","SATNPRO1509","29.928","0.41922","5"],
    [26567,"HCEP03730566","2024-07-01 00:15:00","9.7603","3.2371","27.939","3.961","7.52","1.376","3.116","0.2","0.24","29.3981","4.65633","42.12","0","SATNPRO1509","29.828","0.41774","5"],
    [26568,"HCEP03730566","2024-07-01 00:30:00","9.7608","3.23717","27.92","3.973","7.52","1.315","3.108","0.18","0.14","29.3983","4.65635","42.25","0","SATNPRO1509","30.12","0.42186","5"],
    [26569,"HCEP03730566","2024-07-01 00:45:00","9.7609","3.23727","27.879","3.993","7.53","1.246","2.982","0.15","0.15","29.3992","4.65648","42.47","0","SATNPRO1509","30.024","0.42054","5"],
    [26570,"HCEP03730566","2024-07-01 01:00:00","9.7608","3.23725","27.809","4.007","7.53","1.275","2.766","0.16","0.12","29.3991","4.65646","42.62","0","SATNPRO1509","30.028","0.42058","5"],
    [26571,"HCEP03730566","2024-07-01 01:15:00","9.7616","3.23733","27.724","3.995","7.53","1.221","2.865","0.13","0.1","29.3994","4.65648","42.49","0","SATNPRO1509","30.068","0.42114","5"],
    [26572,"HCEP03730566","2024-07-01 01:30:00","9.7627","3.23748","27.629","4.058","7.53","1.196","2.436","0.13","0.09","29.4","4.65654","43.15","0","SATNPRO1509","30.156","0.42238","5"],
    [26573,"HCEP03730566","2024-07-01 01:45:00","9.7622","3.23742","27.498","4.067","7.54","1.207","2.77","0.14","0.12","29.3998","4.65652","43.26","0","SATNPRO1509","30.27","0.42402","5"],
    [26574,"HCEP03730566","2024-07-01 02:00:00","9.7625","3.23743","27.368","4.072","7.54","1.174","2.594","0.17","0.07","29.3997","4.65649","43.31","0","SATNPRO1509","30.162","0.42244","5"],
    [26575,"HCEP03730566","2024-07-01 02:15:00","9.7642","3.23756","27.229","4.127","7.54","1.067","2.636","0.06","0.11","29.3997","4.65645","43.9","0","SATNPRO1509","30.408","0.4259","5"],
    [26576,"HCEP03730566","2024-07-01 02:30:00","9.7646","3.23751","27.048","4.125","7.54","1.043","2.688","0.06","0.09","29.3989","4.65632","43.87","0","SATNPRO1509","30.174","0.42266","5"],
    [26577,"HCEP03730566","2024-07-01 02:45:00","9.7646","3.23742","26.851","4.086","7.54","1.006","2.802","0.05","0.07","29.3981","4.65619","43.46","0","SATNPRO1509","30.118","0.42182","5"],
    [26578,"HCEP03730566","2024-07-01 03:00:00","9.7654","3.23738","26.694","4.076","7.54","0.963","2.817","0.05","0.09","29.3971","4.65604","43.35","0","SATNPRO1509","30.11","0.42174","5"],
    [26579,"HCEP03730566","2024-07-01 03:15:00","9.7669","3.23735","26.537","4.108","7.54","0.874","2.614","0.06","0.05","29.3957","4.6558","43.69","0","SATNPRO1509","30.154","0.42236","5"],
    [26580,"HCEP03730566","2024-07-01 03:30:00","9.7668","3.23729","26.281","4.121","7.55","0.784","2.705","0.02","0.08","29.3953","4.65573","43.83","0","SATNPRO1509","30.128","0.422","5"],
    [26581,"HCEP03730566","2024-07-01 03:45:00","9.7668","3.23713","26.061","4.096","7.55","0.685","2.89","0.02","0.07","29.3938","4.65549","43.57","0","SATNPRO1509","30.108","0.42174","5"],
    [26582,"HCEP03730566","2024-07-01 04:00:00","9.7673","3.23701","25.829","4.068","7.54","0.579","3.26","0.01","0.08","29.3922","4.65524","43.26","0","SATNPRO1509","30.062","0.42108","5"],
    [26583,"HCEP03730566","2024-07-01 04:15:00","9.7687","3.23713","25.62","4.056","7.54","0.465","3.804","0.01","0.07","29.3924","4.65524","43.14","0","SATNPRO1509","30.004","0.42026","5"],
    [26584,"HCEP03730566","2024-07-01 04:30:00","9.7717","3.23719","25.436","4.178","7.55","0.358","4.257","0.01","0.16","29.3906","4.65492","44.45","0","SATNPRO1509","30.334","0.42486","5"],
    [26585,"HCEP03730566","2024-07-01 04:45:00","9.7715","3.23734","25.211","4.19","7.55","0.261","6.369","0.01","0.1","29.3923","4.65516","44.57","0","SATNPRO1509","30.132","0.42204","5"],
    [26586,"HCEP03730566","2024-07-01 05:00:00","9.774","3.23759","25.031","4.198","7.55","0.196","10.687","0.02","0.12","29.3928","4.65518","44.66","0","SATNPRO1509","30.102","0.42166","5"],
    [26587,"HCEP03730566","2024-07-01 05:15:00","9.7712","3.23737","24.877","4.197","7.55","0.166","19.505","0.01","0.56","29.3931","4.65525","44.64","0","SATNPRO1509","30.068","0.42112","5"],
    [26588,"HCEP03730566","2024-07-01 05:30:00","9.7639","3.23714","24.763","4.056","7.54","0.206","32.605","0.13","0.16","29.3967","4.6559","43.14","0","SATNPRO1509","29.564","0.4141","5"],
    [26589,"HCEP03730566","2024-07-01 05:45:00","9.7635","3.23721","24.655","3.921","7.52","0.22","52.904","0.05","0.13","29.3979","4.65606","41.7","0","SATNPRO1509","29.676","0.41564","5"],
    [26590,"HCEP03730566","2024-07-01 06:00:00","9.7635","3.23724","24.577","3.931","7.52","0.24","78.69","0.04","0.25","29.3981","4.65609","41.81","0","SATNPRO1509","29.89","0.41868","5"],
    [26591,"HCEP03730566","2024-07-01 06:15:00","9.7625","3.23735","24.51","3.961","7.52","0.324","106.837","0.05","0.14","29.4","4.65638","42.13","0","SATNPRO1509","29.926000000000002","0.41918","5"],
    [26592,"HCEP03730566","2024-07-01 06:30:00","9.7632","3.23743","24.523","4.002","7.52","0.377","124.001","0.08","0.18","29.4003","4.6564","42.56","0","SATNPRO1509","30.022","0.4205","5"],
    [26593,"HCEP03730566","2024-07-01 06:45:00","9.7644","3.23737","24.455","4.051","7.52","0.56","130.471","0.05","0.1","29.3988","4.65616","43.08","0","SATNPRO1509","30.07","0.4212","5"],
    [26594,"HCEP03730566","2024-07-01 07:00:00","9.7634","3.2375","24.479","4.069","7.53","0.475","129.499","0.07","0.06","29.4008","4.65647","43.28","0","SATNPRO1509","30.208","0.4231","5"],
    [26595,"HCEP03730566","2024-07-01 07:15:00","9.7654","3.23754","24.448","4.096","7.53","0.482","125.257","0.06","0.13","29.3996","4.65626","43.56","0","SATNPRO1509","30.21","0.42316","5"],
    [26596,"HCEP03730566","2024-07-01 07:30:00","9.7641","3.23758","24.511","4.12","7.53","0.53","121.557","0.07","0.1","29.4011","4.6565","43.82","0","SATNPRO1509","30.264","0.42388","5"],
    [26597,"HCEP03730566","2024-07-01 07:45:00","9.7611","3.23756","24.573","4.098","7.53","0.557","119.192","0.07","0.21","29.4033","4.65687","43.58","0","SATNPRO1509","30.05","0.4209","5"],
    [26598,"HCEP03730566","2024-07-01 08:00:00","9.7595","3.23746","24.637","4.009","7.53","0.606","112.901","0.07","0.08","29.4036","4.65694","42.63","0","SATNPRO1509","29.756","0.41676","5"],
    [26599,"HCEP03730566","2024-07-01 08:15:00","9.7594","3.23746","24.686","3.925","7.52","0.623","87.455","0.06","0.04","29.4037","4.65696","41.74","0","SATNPRO1509","29.598","0.41458","5"],
    [26600,"HCEP03730566","2024-07-01 08:30:00","9.7603","3.23747","24.774","3.889","7.52","0.546","59.107","0.05","0.04","29.4029","4.65685","41.36","0","SATNPRO1509","29.518","0.41346","5"],
    [26601,"HCEP03730566","2024-07-01 08:45:00","9.7612","3.23752","24.925","3.88","7.52","0.482","28.287","0.04","0.01","29.4026","4.65679","41.27","0","SATNPRO1509","29.714","0.41618","5"],
    [26602,"HCEP03730566","2024-07-01 09:00:00","9.7626","3.23748","25.079","3.919","7.52","0.465","8.531","0.06","0.01","29.4011","4.65656","41.68","0","SATNPRO1509","29.628","0.415","5"],
    [26603,"HCEP03730566","2024-07-01 09:15:00","9.7644","3.23745","25.224","3.915","7.52","0.402","1.359","0.03","0.01","29.3992","4.65627","41.64","0","SATNPRO1509","29.714","0.4162","5"],
    [26604,"HCEP03730566","2024-07-01 09:30:00","9.7683","3.23735","25.345","4.026","7.53","0.379","0.363","0.04","0.03","29.395","4.6556","42.82","0","SATNPRO1509","30.192","0.42288","5"],
    [26605,"HCEP03730566","2024-07-01 09:45:00","9.7599","3.23738","25.455","3.929","7.53","0.372","1.58","0.06","1.58","29.4021","4.65677","41.78","0","SATNPRO1509","29.582","0.41432","5"],
    [26606,"HCEP03730566","2024-07-01 10:00:00","9.7529","3.2372","25.621","3.844","7.52","0.302","0.359","0.03","0.04","29.4059","4.65745","40.87","0","SATNPRO1509","29.71","0.41614","5"],
    [26607,"HCEP03730566","2024-07-01 10:15:00","9.75","3.23712","25.726","3.749","7.52","0.262","0.344","0.02","0.02","29.4075","4.65773","39.86","0","SATNPRO1509","29.576","0.41424","5"],
    [26608,"HCEP03730566","2024-07-01 10:30:00","9.7483","3.237","25.896","3.684","7.51","0.242","0.45","0.02","0.02","29.4076","4.65778","39.17","0","SATNPRO1509","29.492","0.4131","5"],
    [26609,"HCEP03730566","2024-07-01 10:45:00","9.7489","3.23696","25.999","3.673","7.51","0.221","0.555","0.01","0.03","29.4066","4.65764","39.06","0","SATNPRO1509","29.54","0.41376","5"],
    [26610,"HCEP03730566","2024-07-01 11:00:00","9.7486","3.23687","26.21","3.672","7.51","0.214","0.607","0.01","0.03","29.4059","4.65756","39.04","0","SATNPRO1509","29.602","0.41462","5"],
    [26611,"HCEP03730566","2024-07-01 11:15:00","9.7466","3.2367","26.417","3.595","7.51","0.211","0.673","0.02","0.04","29.4058","4.65758","38.23","0","SATNPRO1509","29.542","0.41374","5"],
    [26612,"HCEP03730566","2024-07-01 11:30:00","9.7466","3.23659","26.504","3.545","7.5","0.242","0.756","0.02","0.04","29.4046","4.65742","37.69","0","SATNPRO1509","29.448","0.41242","5"],
    [26613,"HCEP03730566","2024-07-01 11:45:00","9.7509","3.23662","26.654","3.611","7.5","0.282","0.769","0.04","0.04","29.4013","4.65689","38.4","0","SATNPRO1509","29.716","0.41624","5"],
    [26614,"HCEP03730566","2024-07-01 12:00:00","9.7567","3.23647","26.803","3.639","7.5","0.322","0.833","0.05","0.06","29.395","4.65589","38.69","0","SATNPRO1509","29.762","0.41688","5"],
    [26615,"HCEP03730566","2024-07-01 12:15:00","9.754","3.23654","26.918","3.682","7.5","0.393","0.961","0.11","0.07","29.3978","4.65635","39.15","0","SATNPRO1509","29.62","0.41486","5"],
    [26616,"HCEP03730566","2024-07-01 12:30:00","9.7544","3.23652","27.108","3.643","7.5","0.48","1.163","0.1","0.16","29.3973","4.65627","38.74","0","SATNPRO1509","29.6","0.4146","5"],
    [26617,"HCEP03730566","2024-07-01 12:45:00","9.7501","3.23642","27.203","3.593","7.5","0.569","1.23","0.08","0.15","29.3997","4.6567","38.2","0","SATNPRO1509","29.464000000000002","0.4127","5"],
    [26618,"HCEP03730566","2024-07-01 13:00:00","9.7473","3.23627","27.184","3.506","7.49","0.6","1.274","0.09","0.1","29.4006","4.65687","37.28","0","SATNPRO1509","29.468","0.41276","5"],
    [26619,"HCEP03730566","2024-07-01 13:15:00","9.7427","3.23637","27.286","3.405","7.48","0.733","1.617","0.15","0.18","29.4052","4.65762","36.2","0","SATNPRO1509","29.15","0.4083","5"],
    [26620,"HCEP03730566","2024-07-01 13:30:00","9.7416","3.23628","27.316","3.319","7.48","0.78","1.724","0.11","0.1","29.4052","4.65764","35.28","0","SATNPRO1509","29.28","0.41012","5"],
    [26621,"HCEP03730566","2024-07-01 13:45:00","9.7395","3.23618","27.39","3.265","7.47","0.925","1.835","0.15","0.14","29.4059","4.65778","34.7","0","SATNPRO1509","29.136","0.40812","5"],
    [26622,"HCEP03730566","2024-07-01 14:00:00","9.7388","3.23604","27.407","3.22","7.47","0.881","1.926","0.15","0.24","29.4051","4.65767","34.23","0","SATNPRO1509","29.026","0.40656","5"],
    [26623,"HCEP03730566","2024-07-01 14:15:00","9.7387","3.23583","27.309","3.184","7.46","0.915","1.829","0.2","0.16","29.403","4.65738","33.84","0","SATNPRO1509","29.131999999999998","0.40808","5"],
    [26624,"HCEP03730566","2024-07-01 14:30:00","9.7387","3.23583","27.358","3.154","7.46","1.135","2.168","0.25","0.17","29.4031","4.65739","33.53","0","SATNPRO1509","29.052","0.40694","5"],
    [26625,"HCEP03730566","2024-07-01 14:45:00","9.7388","3.23577","27.33","3.117","7.45","1.149","2.185","0.26","0.18","29.4024","4.65729","33.13","0","SATNPRO1509","28.974","0.40584","5"],
    [26626,"HCEP03730566","2024-07-01 15:00:00","9.7388","3.23571","27.312","3.092","7.45","1.226","2.593","0.24","0.22","29.4018","4.6572","32.86","0","SATNPRO1509","28.988","0.40602","5"],
    [26627,"HCEP03730566","2024-07-01 15:15:00","9.7392","3.23565","27.255","3.058","7.44","1.293","2.806","0.2","0.18","29.4009","4.65707","32.51","0","SATNPRO1509","28.938","0.40536","5"],
    [26628,"HCEP03730566","2024-07-01 15:30:00","9.7397","3.23547","27.257","3.04","7.44","1.261","2.621","0.13","0.15","29.3987","4.65674","32.32","0","SATNPRO1509","28.958","0.40562","5"],
    [26629,"HCEP03730566","2024-07-01 15:45:00","9.7401","3.23539","27.251","3.039","7.44","1.305","2.673","0.15","0.16","29.3975","4.65656","32.3","0","SATNPRO1509","28.986","0.40598","5"],
    [26630,"HCEP03730566","2024-07-01 16:00:00","9.7406","3.23542","27.208","3.021","7.44","1.407","3.095","0.29","0.55","29.3974","4.65653","32.12","0","SATNPRO1509","28.9","0.40478","5"],
    [26631,"HCEP03730566","2024-07-01 16:15:00","9.7446","3.2354","27.157","3.065","7.44","1.249","2.498","0.16","0.17","29.394","4.65598","32.58","0","SATNPRO1509","29.126","0.4079","5"],
    [26632,"HCEP03730566","2024-07-01 16:30:00","9.7433","3.23539","27.154","3.098","7.45","1.247","2.843","0.14","0.37","29.395","4.65614","32.94","0","SATNPRO1509","28.926","0.40514","5"],
    [26633,"HCEP03730566","2024-07-01 16:45:00","9.7445","3.23542","27.138","3.098","7.45","1.285","2.772","0.16","0.21","29.3943","4.65602","32.93","0","SATNPRO1509","28.89","0.4046","5"],
    [26634,"HCEP03730566","2024-07-01 17:00:00","9.7438","3.23533","27.06","3.074","7.45","1.241","2.996","0.17","0.26","29.394","4.65598","32.67","0","SATNPRO1509","28.968","0.4058","5"],
    [26635,"HCEP03730566","2024-07-01 17:15:00","9.7433","3.23532","26.952","3.046","7.45","1.234","3.25","0.15","0.19","29.3944","4.65604","32.38","0","SATNPRO1509","28.898","0.40476","5"],
    [26636,"HCEP03730566","2024-07-01 17:30:00","9.7435","3.23528","26.954","3.025","7.45","1.257","3.117","0.15","0.18","29.3939","4.65596","32.15","0","SATNPRO1509","28.884","0.40462","5"],
    [26637,"HCEP03730566","2024-07-01 17:45:00","9.7433","3.23527","26.927","3.017","7.45","1.235","2.914","0.14","0.11","29.3939","4.65597","32.08","0","SATNPRO1509","28.958","0.4056","5"],
    [26638,"HCEP03730566","2024-07-01 18:00:00","9.7434","3.23521","26.895","3","7.45","1.274","2.94","0.21","0.16","29.3931","4.65585","31.89","0","SATNPRO1509","28.892","0.40472","5"],
    [26639,"HCEP03730566","2024-07-01 18:15:00","9.7436","3.23511","26.779","2.993","7.45","1.259","2.871","0.19","0.11","29.3921","4.65569","31.82","0","SATNPRO1509","28.84","0.40394","5"],
    [26640,"HCEP03730566","2024-07-01 18:30:00","9.7437","3.23505","26.765","2.975","7.45","1.211","2.82","0.14","0.15","29.3914","4.65559","31.63","0","SATNPRO1509","28.822","0.4037","5"],
    [26641,"HCEP03730566","2024-07-01 18:45:00","9.7452","3.23499","26.733","3","7.45","1.148","2.649","0.1","0.08","29.3895","4.65529","31.9","0","SATNPRO1509","28.944","0.40538","5"],
    [26642,"HCEP03730566","2024-07-01 19:00:00","9.7478","3.23503","26.652","3.035","7.45","1.06","2.368","0.09","0.29","29.3879","4.65501","32.27","0","SATNPRO1509","28.95","0.4055","5"],
    [26643,"HCEP03730566","2024-07-01 19:15:00","9.7462","3.23481","26.679","3.045","7.45","1.109","2.17","0.15","0.12","29.387","4.65492","32.37","0","SATNPRO1509","29.066","0.40712","5"],
    [26644,"HCEP03730566","2024-07-01 19:30:00","9.7457","3.23477","26.713","2.99","7.45","1.086","2.433","0.11","0.26","29.387","4.65493","31.79","0","SATNPRO1509","29.01","0.4063","5"],
    [26645,"HCEP03730566","2024-07-01 19:45:00","9.7467","3.23488","26.667","2.991","7.45","1.074","2.495","0.09","0.09","29.3872","4.65494","31.8","0","SATNPRO1509","28.945999999999998","0.40546","5"],
    [26646,"HCEP03730566","2024-07-01 20:00:00","9.7461","3.23478","26.734","3.014","7.45","1.117","2.519","0.12","0.1","29.3867","4.65488","32.04","0","SATNPRO1509","28.98","0.40592","5"],
    [26647,"HCEP03730566","2024-07-01 20:15:00","9.7477","3.23492","26.792","3.048","7.45","1.134","2.431","0.1","0.08","29.3868","4.65486","32.41","0","SATNPRO1509","29.022","0.40646","5"],
    [26648,"HCEP03730566","2024-07-01 20:30:00","9.7489","3.2351","26.841","3.082","7.45","1.016","2.18","0.1","0.07","29.3876","4.65496","32.77","0","SATNPRO1509","29.114","0.4078","5"],
    [26649,"HCEP03730566","2024-07-01 20:45:00","9.7482","3.23507","26.885","3.103","7.45","1.104","2.328","0.1","0.07","29.3879","4.65502","32.99","0","SATNPRO1509","28.976","0.40582","5"],
    [26650,"HCEP03730566","2024-07-01 21:00:00","9.748","3.23513","26.995","3.095","7.45","1.123","2.591","0.12","0.11","29.3886","4.65514","32.9","0","SATNPRO1509","29.056","0.40698","5"],
    [26651,"HCEP03730566","2024-07-01 21:15:00","9.7459","3.23512","27.046","3.042","7.45","1.216","3.05","0.14","0.07","29.3902","4.6554","32.34","0","SATNPRO1509","28.919999999999998","0.40506","5"],
    [26652,"HCEP03730566","2024-07-01 21:30:00","9.7459","3.23519","27.057","2.988","7.45","1.127","3.016","0.11","0.14","29.3909","4.6555","31.76","0","SATNPRO1509","28.654","0.40136","5"],
    [26653,"HCEP03730566","2024-07-01 21:45:00","9.7462","3.23535","27.216","2.992","7.45","1.262","3.388","0.11","0.1","29.3922","4.65569","31.81","0","SATNPRO1509","28.762","0.40286","5"],
    [26654,"HCEP03730566","2024-07-01 22:00:00","9.7462","3.23541","27.277","2.987","7.45","1.279","3.897","0.11","0.1","29.3927","4.65576","31.76","0","SATNPRO1509","28.764","0.40288","5"],
    [26655,"HCEP03730566","2024-07-01 22:15:00","9.7444","3.23553","27.342","2.965","7.45","1.176","3.237","0.13","0.11","29.3954","4.65619","31.52","0","SATNPRO1509","28.704","0.40202","5"],
    [26656,"HCEP03730566","2024-07-01 22:30:00","9.7436","3.23557","27.477","2.965","7.44","1.174","3.363","0.11","0.1","29.3965","4.65636","31.52","0","SATNPRO1509","28.696","0.40192","5"],
    [26657,"HCEP03730566","2024-07-01 22:45:00","9.743","3.23562","27.52","2.972","7.45","1.19","3.406","0.18","0.17","29.3974","4.65651","31.59","0","SATNPRO1509","28.748","0.40266","5"],
    [26658,"HCEP03730566","2024-07-01 23:00:00","9.7426","3.23565","27.629","2.983","7.45","1.167","3.275","0.11","0.37","29.398","4.6566","31.71","0","SATNPRO1509","28.706","0.4021","5"],
    [26659,"HCEP03730566","2024-07-01 23:15:00","9.742","3.23567","27.699","2.987","7.45","1.132","3.041","0.08","0.13","29.3986","4.65671","31.75","0","SATNPRO1509","28.791999999999998","0.40328","5"],
    [26660,"HCEP03730566","2024-07-01 23:30:00","9.7417","3.23573","27.715","2.987","7.45","1.172","3.067","0.09","0.07","29.3995","4.65684","31.75","0","SATNPRO1509","28.785999999999998","0.4032","5"],
    [26661,"HCEP03730566","2024-07-01 23:45:00","9.7415","3.23586","27.783","3.002","7.45","1.074","3.045","0.07","0.07","29.4009","4.65704","31.91","0","SATNPRO1509","28.79","0.40328","5"],
    [26662,"HCEP03730566","2024-07-02 00:00:00","9.7415","3.23596","27.818","3.028","7.45","1.088","2.95","0.13","0.09","29.4019","4.65719","32.19","0","SATNPRO1509","28.886","0.40456","5"],
    [26663,"HCEP03730566","2024-07-02 00:15:00","9.7425","3.2361","27.828","3.058","7.45","1.062","3.332","0.09","0.11","29.4025","4.65726","32.51","0","SATNPRO1509","28.836","0.4039","5"],
    [26664,"HCEP03730566","2024-07-02 00:30:00","9.7461","3.23641","27.843","3.125","7.45","1.075","3.197","0.1","0.1","29.4027","4.65723","33.22","0","SATNPRO1509","29.061999999999998","0.40704","5"],
    [26665,"HCEP03730566","2024-07-02 00:45:00","9.7518","3.23688","27.835","3.284","7.46","1.054","3.436","0.12","0.14","29.4027","4.65714","34.92","0","SATNPRO1509","29.232","0.40944","5"],
    [26666,"HCEP03730566","2024-07-02 01:00:00","9.7568","3.23725","27.816","3.436","7.47","0.983","3.452","0.14","0.11","29.4024","4.657","36.54","0","SATNPRO1509","29.366","0.41134","5"],
    [26667,"HCEP03730566","2024-07-02 01:15:00","9.7631","3.23772","27.789","3.578","7.48","0.858","3.136","0.1","0.11","29.402","4.65683","38.05","0","SATNPRO1509","29.506","0.41328","5"],
    [26668,"HCEP03730566","2024-07-02 01:30:00","9.7679","3.23799","27.706","3.707","7.49","0.915","3.536","0.14","0.14","29.4009","4.65659","39.42","0","SATNPRO1509","29.468","0.41276","5"],
    [26669,"HCEP03730566","2024-07-02 01:45:00","9.7723","3.2382","27.677","3.823","7.51","0.846","3.319","0.07","0.1","29.3994","4.6563","40.67","0","SATNPRO1509","29.67","0.41558","5"],
    [26670,"HCEP03730566","2024-07-02 02:00:00","9.7778","3.23847","27.61","3.89","7.52","0.801","3.073","0.08","0.11","29.3976","4.65594","41.39","0","SATNPRO1509","29.718","0.41624","5"],
    [26671,"HCEP03730566","2024-07-02 02:15:00","9.7798","3.23856","27.505","3.946","7.52","0.787","3.306","0.06","0.07","29.397","4.65582","41.98","0","SATNPRO1509","29.758","0.41682","5"],
    [26672,"HCEP03730566","2024-07-02 02:30:00","9.7846","3.2388","27.413","4.003","7.53","0.773","3.091","0.08","0.06","29.3954","4.65551","42.59","0","SATNPRO1509","29.848","0.41808","5"],
    [26673,"HCEP03730566","2024-07-02 02:45:00","9.7866","3.23894","27.267","4.054","7.54","0.821","3.485","0.06","0.08","29.3952","4.65543","43.14","0","SATNPRO1509","29.866","0.41832","5"],
    [26674,"HCEP03730566","2024-07-02 03:00:00","9.7922","3.2392","27.118","4.114","7.54","0.793","3.714","0.08","0.06","29.3934","4.65506","43.78","0","SATNPRO1509","29.886","0.41862","5"],
    [26675,"HCEP03730566","2024-07-02 03:15:00","9.7961","3.23939","26.922","4.121","7.55","0.925","5.612","0.1","0.08","29.3923","4.65483","43.85","0","SATNPRO1509","29.792","0.41732","5"],
    [26676,"HCEP03730566","2024-07-02 03:30:00","9.8061","3.24076","26.706","4.267","7.55","0.853","7.935","0.07","0.06","29.3979","4.65545","45.43","0","SATNPRO1509","30.046","0.4208","5"],
    [26677,"HCEP03730566","2024-07-02 03:45:00","9.8041","3.2406","26.566","4.275","7.56","0.882","12.775","0.07","0.05","29.398","4.65549","45.5","0","SATNPRO1509","29.94","0.41936","5"],
    [26678,"HCEP03730566","2024-07-02 04:00:00","9.8042","3.24062","26.347","4.254","7.56","0.921","18.105","0.09","0.43","29.3982","4.6555","45.29","0","SATNPRO1509","29.878","0.41852","5"],
    [26679,"HCEP03730566","2024-07-02 04:15:00","9.807","3.24098","26.147","4.269","7.56","0.91","21.076","0.08","0.05","29.3996","4.65564","45.44","0","SATNPRO1509","29.814","0.41758","5"],
    [26680,"HCEP03730566","2024-07-02 04:30:00","9.8075","3.24117","25.91","4.277","7.56","0.894","25.013","0.11","0.08","29.4012","4.65585","45.53","0","SATNPRO1509","30","0.42018","5"],
    [26681,"HCEP03730566","2024-07-02 04:45:00","9.8097","3.24143","25.707","4.322","7.56","0.938","29.726","0.13","0.06","29.4021","4.65593","46.01","0","SATNPRO1509","29.746","0.41662","5"],
    [26682,"HCEP03730566","2024-07-02 05:00:00","9.8137","3.24177","25.458","4.362","7.57","0.859","31.748","0.09","0.07","29.4024","4.65589","46.44","0","SATNPRO1509","29.988","0.42","5"],
    [26683,"HCEP03730566","2024-07-02 05:15:00","9.8094","3.24151","25.249","4.362","7.57","0.942","31.155","0.18","0.12","29.4033","4.65608","46.44","0","SATNPRO1509","29.804","0.41746","5"],
    [26684,"HCEP03730566","2024-07-02 05:30:00","9.8073","3.24149","25.047","4.332","7.56","1.043","28.598","0.52","0.09","29.405","4.65635","46.12","0","SATNPRO1509","29.904","0.41888","5"],
    [26685,"HCEP03730566","2024-07-02 05:45:00","9.8061","3.24141","24.835","4.302","7.56","1","26.426","0.1","0.12","29.4052","4.65638","45.8","0","SATNPRO1509","29.668","0.41554","5"],
    [26686,"HCEP03730566","2024-07-02 06:00:00","9.8035","3.24128","24.651","4.297","7.56","0.922","25.17","0.13","0.12","29.4061","4.65655","45.74","0","SATNPRO1509","29.692","0.4159","5"],
    [26687,"HCEP03730566","2024-07-02 06:15:00","9.8008","3.2411","24.5","4.264","7.55","0.963","25.331","0.13","0.12","29.4066","4.65665","45.39","0","SATNPRO1509","29.706","0.41608","5"],
    [26688,"HCEP03730566","2024-07-02 06:30:00","9.7949","3.2406","24.382","4.213","7.55","0.93","25.297","0.11","0.13","29.4063","4.65671","44.84","0","SATNPRO1509","29.714","0.41622","5"],
    [26689,"HCEP03730566","2024-07-02 06:45:00","9.7935","3.24053","24.259","4.144","7.54","0.939","24.825","0.15","0.08","29.4068","4.6568","44.11","0","SATNPRO1509","29.62","0.41486","5"],
    [26690,"HCEP03730566","2024-07-02 07:00:00","9.793","3.24059","24.185","4.118","7.54","1.012","25.298","0.09","0.2","29.4079","4.65695","43.82","0","SATNPRO1509","29.482","0.41296","5"],
    [26691,"HCEP03730566","2024-07-02 07:15:00","9.7938","3.24091","24.149","4.132","7.54","0.975","24.648","0.18","0.21","29.4105","4.65731","43.98","0","SATNPRO1509","30.008","0.42032","5"],
    [26692,"HCEP03730566","2024-07-02 07:30:00","9.7824","3.23972","24.121","4.124","7.54","1.004","24.512","0.15","0.13","29.4079","4.65713","43.88","0","SATNPRO1509","29.578","0.4143","5"],
    [26693,"HCEP03730566","2024-07-02 07:45:00","9.7728","3.23873","24.037","3.934","7.52","1.137","23.206","0.21","0.34","29.4058","4.65699","41.85","0","SATNPRO1509","29.382","0.41154","5"],
    [26694,"HCEP03730566","2024-07-02 08:00:00","9.7756","3.2392","24.018","3.849","7.51","1.126","22.171","0.2","0.19","29.4082","4.65729","40.94","0","SATNPRO1509","29.2","0.40904","5"],
    [26695,"HCEP03730566","2024-07-02 08:15:00","9.7713","3.23894","24.029","3.837","7.51","1.024","20.783","0.25","0.21","29.409","4.65749","40.82","0","SATNPRO1509","29.432","0.41224","5"],
    [26696,"HCEP03730566","2024-07-02 08:30:00","9.7689","3.23897","24.073","3.817","7.51","0.984","16.622","0.19","0.11","29.4114","4.65786","40.6","0","SATNPRO1509","29.528","0.41362","5"],
    [26697,"HCEP03730566","2024-07-02 08:45:00","9.7708","3.2392","24.2","3.823","7.51","0.969","13.248","0.17","0.15","29.412","4.65793","40.67","0","SATNPRO1509","29.448","0.41246","5"],
    [26698,"HCEP03730566","2024-07-02 09:00:00","9.7743","3.23966","24.41","3.841","7.51","1.034","18.199","0.16","0.2","29.4137","4.65812","40.86","0","SATNPRO1509","29.578","0.41434","5"],
    [26699,"HCEP03730566","2024-07-02 09:15:00","9.7751","3.23982","24.573","3.872","7.51","0.953","24.591","0.13","0.22","29.4146","4.65825","41.19","0","SATNPRO1509","29.694","0.41592","5"],
    [26700,"HCEP03730566","2024-07-02 09:30:00","9.7773","3.2402","24.714","3.917","7.51","1.023","26.168","0.74","0.29","29.4166","4.6585","41.68","0","SATNPRO1509","29.602","0.41464","5"],
    [26701,"HCEP03730566","2024-07-02 09:45:00","9.779","3.24031","24.889","3.957","7.51","1.043","27.859","0.3","0.25","29.4162","4.65843","42.1","0","SATNPRO1509","29.57","0.41418","5"],
    [26702,"HCEP03730566","2024-07-02 10:00:00","9.7805","3.24041","24.915","3.996","7.52","0.934","28.523","0.43","0.3","29.4161","4.65838","42.52","0","SATNPRO1509","29.672","0.41562","5"],
    [26703,"HCEP03730566","2024-07-02 10:15:00","9.7716","3.23939","25.092","3.93","7.52","1.067","29.306","0.17","0.38","29.4129","4.6581","41.81","0","SATNPRO1509","29.402","0.41186","5"],
    [26704,"HCEP03730566","2024-07-02 10:30:00","9.7705","3.23908","25.254","3.845","7.51","1.143","27.444","0.25","0.28","29.4107","4.65781","40.9","0","SATNPRO1509","29.416","0.41202","5"],
    [26705,"HCEP03730566","2024-07-02 10:45:00","9.7749","3.23929","25.409","3.79","7.51","1.135","26.25","0.12","0.38","29.4091","4.65752","40.33","0","SATNPRO1509","29.252","0.4097","5"],
    [26706,"HCEP03730566","2024-07-02 11:00:00","9.7771","3.2392","25.573","3.788","7.5","1.078","23.342","0.12","0.34","29.4063","4.65709","40.3","0","SATNPRO1509","29.36","0.41124","5"],
    [26707,"HCEP03730566","2024-07-02 11:15:00","9.7683","3.23838","25.742","3.757","7.5","0.976","22.802","0.12","0.33","29.4053","4.6571","39.96","0","SATNPRO1509","29.316","0.41062","5"],
    [26708,"HCEP03730566","2024-07-02 11:30:00","9.7625","3.23797","25.934","3.675","7.49","1.035","24.552","0.2","0.32","29.4057","4.65727","39.09","0","SATNPRO1509","29.448","0.41246","5"],
    [26709,"HCEP03730566","2024-07-02 11:45:00","9.7582","3.23759","26.128","3.608","7.48","0.87","24.524","0.13","0.21","29.4053","4.6573","38.37","0","SATNPRO1509","29.394","0.41168","5"],
    [26710,"HCEP03730566","2024-07-02 12:00:00","9.7557","3.23717","26.317","3.545","7.48","0.896","26.579","0.14","0.3","29.4031","4.65704","37.7","0","SATNPRO1509","29.498","0.41316","5"],
    [26711,"HCEP03730566","2024-07-02 12:15:00","9.7547","3.23695","26.495","3.484","7.47","0.869","29.968","0.22","0.17","29.4016","4.65685","37.05","0","SATNPRO1509","29.472","0.41282","5"],
    [26712,"HCEP03730566","2024-07-02 12:30:00","9.7548","3.23695","26.678","3.432","7.47","0.789","30.828","0.08","0.13","29.4015","4.65684","36.5","0","SATNPRO1509","29.42","0.41212","5"],
    [26713,"HCEP03730566","2024-07-02 12:45:00","9.7586","3.237","26.808","3.439","7.47","0.845","30.257","0.09","0.33","29.3988","4.6564","36.57","0","SATNPRO1509","29.486","0.413","5"],
    [26714,"HCEP03730566","2024-07-02 13:00:00","9.7787","3.23805","26.97","3.666","7.48","0.885","28.503","0.1","0.24","29.3929","4.65522","39","0","SATNPRO1509","29.714","0.41614","5"],
    [26715,"HCEP03730566","2024-07-02 13:15:00","9.7843","3.23784","27.103","3.816","7.5","0.968","23.754","0.11","0.45","29.3862","4.65418","40.6","0","SATNPRO1509","29.628","0.41498","5"],
    [26716,"HCEP03730566","2024-07-02 13:30:00","9.7829","3.23767","27.211","3.808","7.49","0.87","16.134","0.12","0.18","29.3856","4.65411","40.52","0","SATNPRO1509","29.688","0.41582","5"],
    [26717,"HCEP03730566","2024-07-02 13:45:00","9.7621","3.23697","27.297","3.673","7.49","0.86","11.215","0.13","0.18","29.3954","4.65588","39.07","0","SATNPRO1509","29.378","0.41148","5"],
    [26718,"HCEP03730566","2024-07-02 14:00:00","9.7564","3.23657","27.395","3.456","7.48","0.829","8.044","0.08","0.22","29.396","4.65608","36.75","0","SATNPRO1509","29.234","0.40948","5"],
    [26719,"HCEP03730566","2024-07-02 14:15:00","9.7527","3.23637","27.476","3.313","7.47","0.834","5.979","0.07","0.1","29.397","4.65628","35.23","0","SATNPRO1509","29.256","0.40982","5"],
    [26720,"HCEP03730566","2024-07-02 14:30:00","9.7513","3.23623","27.504","3.203","7.46","0.844","4.982","0.11","0.08","29.3967","4.65627","34.05","0","SATNPRO1509","29.076","0.40724","5"],
    [26721,"HCEP03730566","2024-07-02 14:45:00","9.7539","3.23552","27.578","3.144","7.46","0.926","3.948","0.18","0.39","29.3874","4.6549","33.43","0","SATNPRO1509","28.938","0.40534","5"],
    [26722,"HCEP03730566","2024-07-02 15:00:00","9.7516","3.2356","27.622","3.095","7.45","0.943","3.963","0.17","0.32","29.3901","4.65532","32.9","0","SATNPRO1509","28.804000000000002","0.40346","5"],
    [26723,"HCEP03730566","2024-07-02 15:15:00","9.7515","3.23574","27.709","3.04","7.45","0.953","3.514","0.14","0.3","29.3916","4.65554","32.32","0","SATNPRO1509","28.81","0.4035","5"],
    [26724,"HCEP03730566","2024-07-02 15:30:00","9.7509","3.23576","27.606","3.005","7.45","0.962","3.083","0.07","0.16","29.3924","4.65566","31.95","0","SATNPRO1509","28.726","0.4024","5"],
    [26725,"HCEP03730566","2024-07-02 15:45:00","9.7507","3.23565","27.642","2.968","7.44","1.03","3.002","0.12","0.11","29.3914","4.65552","31.55","0","SATNPRO1509","28.674","0.40166","5"],
    [26726,"HCEP03730566","2024-07-02 16:00:00","9.7512","3.23558","27.661","2.928","7.44","1.044","2.952","0.12","0.13","29.3902","4.65535","31.13","0","SATNPRO1509","28.574","0.40024","5"],
    [26727,"HCEP03730566","2024-07-02 16:15:00","9.751","3.23553","27.726","2.89","7.44","1.077","2.769","0.14","0.17","29.3899","4.6553","30.73","0","SATNPRO1509","28.642","0.40118","5"],
    [26728,"HCEP03730566","2024-07-02 16:30:00","9.7533","3.2355","27.649","2.887","7.44","1.136","3.194","0.14","0.44","29.3878","4.65496","30.7","0","SATNPRO1509","28.55","0.39992","5"],
    [26729,"HCEP03730566","2024-07-02 16:45:00","9.7533","3.23545","27.623","2.882","7.44","1.155","3.087","0.19","0.23","29.3873","4.65489","30.65","0","SATNPRO1509","28.63","0.40106","5"],
    [26730,"HCEP03730566","2024-07-02 17:00:00","9.755","3.23544","27.612","2.886","7.43","1.089","3.053","0.12","0.16","29.3858","4.65465","30.69","0","SATNPRO1509","28.561999999999998","0.40006","5"],
    [26731,"HCEP03730566","2024-07-02 17:15:00","9.7557","3.23543","27.524","2.895","7.43","1.164","3.116","0.13","0.23","29.3851","4.65452","30.78","0","SATNPRO1509","28.642","0.40118","5"],
    [26732,"HCEP03730566","2024-07-02 17:30:00","9.756","3.23543","27.489","2.896","7.43","1.173","3.207","0.13","0.16","29.3848","4.65448","30.79","0","SATNPRO1509","28.604","0.40066","5"],
    [26733,"HCEP03730566","2024-07-02 17:45:00","9.756","3.23542","27.424","2.898","7.43","1.122","3.269","0.17","0.19","29.3848","4.65447","30.81","0","SATNPRO1509","28.54","0.39976","5"],
    [26734,"HCEP03730566","2024-07-02 18:00:00","9.7569","3.23546","27.313","2.906","7.43","1.148","3.157","0.1","0.1","29.3846","4.65442","30.9","0","SATNPRO1509","28.666","0.40152","5"],
    [26735,"HCEP03730566","2024-07-02 18:15:00","9.757","3.23552","27.217","2.945","7.44","1.082","3.133","0.1","0.1","29.3851","4.6545","31.31","0","SATNPRO1509","28.764","0.40288","5"],
    [26736,"HCEP03730566","2024-07-02 18:30:00","9.7556","3.23554","27.199","2.943","7.44","1.128","3.274","0.12","0.08","29.3864","4.6547","31.29","0","SATNPRO1509","28.744","0.4026","5"],
    [26737,"HCEP03730566","2024-07-02 18:45:00","9.7551","3.2355","27.07","2.892","7.44","1.135","3.176","0.11","0.1","29.3864","4.65471","30.75","0","SATNPRO1509","28.606","0.40068","5"],
    [26738,"HCEP03730566","2024-07-02 19:00:00","9.7549","3.23533","27.011","2.845","7.44","1.156","3.312","0.08","0.09","29.385","4.65449","30.25","0","SATNPRO1509","28.474","0.39884","5"],
    [26739,"HCEP03730566","2024-07-02 19:15:00","9.7565","3.23532","26.939","2.865","7.44","1.091","2.873","0.1","0.15","29.3835","4.65426","30.46","0","SATNPRO1509","28.564","0.40006","5"],
    [26740,"HCEP03730566","2024-07-02 19:30:00","9.7578","3.23533","26.947","2.907","7.44","1.092","2.905","0.09","0.09","29.3827","4.65411","30.91","0","SATNPRO1509","28.538","0.39974","5"],
    [26741,"HCEP03730566","2024-07-02 19:45:00","9.7585","3.23527","26.899","2.878","7.44","1.201","2.965","0.16","0.09","29.3814","4.65392","30.6","0","SATNPRO1509","28.654","0.40134","5"],
    [26742,"HCEP03730566","2024-07-02 20:00:00","9.7593","3.23527","26.908","2.897","7.44","1.177","3.053","0.18","0.11","29.3809","4.65383","30.81","0","SATNPRO1509","28.684","0.40176","5"],
    [26743,"HCEP03730566","2024-07-02 20:15:00","9.7596","3.23528","26.868","2.94","7.44","1.113","2.996","0.11","0.08","29.3807","4.65379","31.26","0","SATNPRO1509","28.568","0.40014","5"],
    [26744,"HCEP03730566","2024-07-02 20:30:00","9.7616","3.23537","26.855","2.966","7.44","1.106","2.714","0.12","0.15","29.38","4.65366","31.53","0","SATNPRO1509","28.708","0.40208","5"],
    [26745,"HCEP03730566","2024-07-02 20:45:00","9.7613","3.23554","26.859","2.947","7.44","1.136","3.318","0.09","0.4","29.3819","4.65393","31.34","0","SATNPRO1509","28.524","0.39952","5"],
    [26746,"HCEP03730566","2024-07-02 21:00:00","9.7625","3.23618","26.913","3.045","7.44","1.002","2.725","0.07","0.07","29.3873","4.65469","32.38","0","SATNPRO1509","28.887999999999998","0.4046","5"],
    [26747,"HCEP03730566","2024-07-02 21:15:00","9.7627","3.23676","26.934","3.118","7.45","1.155","3.194","0.18","0.14","29.393","4.65551","33.16","0","SATNPRO1509","28.87","0.40438","5"],
    [26748,"HCEP03730566","2024-07-02 21:30:00","9.7625","3.23672","26.967","3.131","7.45","1.137","2.913","0.11","0.1","29.3927","4.65547","33.3","0","SATNPRO1509","28.914","0.40498","5"],
    [26749,"HCEP03730566","2024-07-02 21:45:00","9.7621","3.23629","26.967","3.108","7.46","1.038","2.596","0.1","0.1","29.3888","4.65492","33.05","0","SATNPRO1509","28.94","0.40534","5"],
    [26750,"HCEP03730566","2024-07-02 22:00:00","9.7609","3.23619","27.055","3.029","7.45","1.156","3.401","0.1","0.12","29.3887","4.65493","32.21","0","SATNPRO1509","28.582","0.40034","5"],
    [26751,"HCEP03730566","2024-07-02 22:15:00","9.762","3.23676","27.126","3.076","7.45","1.093","3.09","0.11","0.3","29.3935","4.6556","32.71","0","SATNPRO1509","28.782","0.40312","5"],
    [26752,"HCEP03730566","2024-07-02 22:30:00","9.7603","3.23638","27.199","3.06","7.45","1.097","2.943","0.11","0.11","29.391","4.65527","32.54","0","SATNPRO1509","28.692","0.40188","5"],
    [26753,"HCEP03730566","2024-07-02 22:45:00","9.7575","3.23603","27.236","2.903","7.45","1.11","3.383","0.09","0.06","29.3898","4.65515","30.86","0","SATNPRO1509","28.274","0.39606","5"],
    [26754,"HCEP03730566","2024-07-02 23:00:00","9.7592","3.23662","27.285","2.914","7.44","1.119","3.592","0.08","0.1","29.3943","4.65577","30.99","0","SATNPRO1509","28.352","0.39712","5"],
    [26755,"HCEP03730566","2024-07-02 23:15:00","9.759","3.23659","27.376","2.934","7.44","1.174","3.764","0.13","0.08","29.3942","4.65576","31.2","0","SATNPRO1509","28.38","0.39752","5"],
    [26756,"HCEP03730566","2024-07-02 23:30:00","9.7595","3.23679","27.427","2.961","7.44","1.134","3.758","0.11","0.15","29.3958","4.65598","31.49","0","SATNPRO1509","28.482","0.39896","5"],
    [26757,"HCEP03730566","2024-07-02 23:45:00","9.7611","3.23751","27.478","3.069","7.45","1.096","3.438","0.13","0.07","29.4017","4.65681","32.63","0","SATNPRO1509","28.73","0.4024","5"],
    [26758,"HCEP03730566","2024-07-03 00:00:00","9.7626","3.23799","27.531","3.193","7.46","1.083","3.284","0.12","0.06","29.4052","4.65728","33.96","0","SATNPRO1509","28.727999999999998","0.40242","5"],
    [26759,"HCEP03730566","2024-07-03 00:15:00","9.7628","3.23808","27.586","3.267","7.46","1.045","3.341","0.11","0.07","29.406","4.6574","34.75","0","SATNPRO1509","28.944","0.40542","5"],
    [26760,"HCEP03730566","2024-07-03 00:30:00","9.7631","3.23825","27.651","3.31","7.47","1.033","3.284","0.14","0.11","29.4073","4.65759","35.21","0","SATNPRO1509","29.032","0.40666","5"],
    [26761,"HCEP03730566","2024-07-03 00:45:00","9.7629","3.23833","27.694","3.355","7.47","1.092","3.352","0.13","0.17","29.4083","4.65773","35.68","0","SATNPRO1509","29.04","0.40674","5"],
    [26762,"HCEP03730566","2024-07-03 01:00:00","9.7619","3.23813","27.705","3.353","7.47","1.027","3.302","0.07","0.07","29.4071","4.65759","35.66","0","SATNPRO1509","29.134","0.40806","5"],
    [26763,"HCEP03730566","2024-07-03 01:15:00","9.7612","3.23789","27.726","3.358","7.48","1.028","3.019","0.11","0.11","29.4053","4.65733","35.71","0","SATNPRO1509","29.246","0.40964","5"],
    [26764,"HCEP03730566","2024-07-03 01:30:00","9.7589","3.23776","27.706","3.369","7.48","0.978","2.634","0.1","0.21","29.4059","4.65746","35.83","0","SATNPRO1509","29.284","0.41024","5"],
    [26765,"HCEP03730566","2024-07-03 01:45:00","9.7591","3.23788","27.678","3.384","7.48","1.02","2.587","0.12","0.1","29.4069","4.6576","35.99","0","SATNPRO1509","29.214","0.4092","5"],
    [26766,"HCEP03730566","2024-07-03 02:00:00","9.7596","3.2379","27.659","3.379","7.48","0.974","2.71","0.07","0.06","29.4068","4.65757","35.94","0","SATNPRO1509","29.124000000000002","0.40792","5"],
    [26767,"HCEP03730566","2024-07-03 02:15:00","9.7595","3.23784","27.632","3.339","7.48","1.033","3.018","0.15","0.11","29.4063","4.6575","35.51","0","SATNPRO1509","29.056","0.407","5"],
    [26768,"HCEP03730566","2024-07-03 02:30:00","9.7614","3.2379","27.569","3.335","7.48","1.022","2.917","0.1","0.12","29.4053","4.65732","35.47","0","SATNPRO1509","28.994","0.40614","5"],
    [26769,"HCEP03730566","2024-07-03 02:45:00","9.7647","3.23817","27.484","3.373","7.48","1.128","3.016","0.54","0.18","29.4053","4.65726","35.87","0","SATNPRO1509","29.124","0.40792","5"],
    [26770,"HCEP03730566","2024-07-03 03:00:00","9.7701","3.23876","27.4","3.451","7.48","1.002","2.67","0.18","0.13","29.4069","4.6574","36.71","0","SATNPRO1509","29.194","0.40892","5"],
    [26771,"HCEP03730566","2024-07-03 03:15:00","9.7746","3.2391","27.276","3.554","7.48","0.97","3.066","0.16","0.25","29.4067","4.65728","37.81","0","SATNPRO1509","29.328","0.41078","5"],
    [26772,"HCEP03730566","2024-07-03 03:30:00","9.7779","3.2396","27.144","3.626","7.49","1.049","3.128","0.42","0.31","29.409","4.65755","38.58","0","SATNPRO1509","29.276","0.41006","5"],
    [26773,"HCEP03730566","2024-07-03 03:45:00","9.7808","3.24004","26.993","3.703","7.49","0.846","3.173","0.06","0.21","29.4112","4.6578","39.4","0","SATNPRO1509","29.34","0.41094","5"],
    [26774,"HCEP03730566","2024-07-03 04:00:00","9.7831","3.24023","26.811","3.759","7.49","0.787","3.35","0.07","0.38","29.4113","4.65777","40","0","SATNPRO1509","29.605999999999998","0.41464","5"],
    [26775,"HCEP03730566","2024-07-03 04:15:00","9.7864","3.24063","26.625","3.805","7.49","0.688","3.431","0.03","0.26","29.4127","4.6579","40.49","0","SATNPRO1509","29.36","0.41122","5"],
    [26776,"HCEP03730566","2024-07-03 04:30:00","9.7865","3.24063","26.426","3.855","7.5","0.572","3.416","0.02","0.18","29.4127","4.65789","41.02","0","SATNPRO1509","29.348","0.4111","5"],
    [26777,"HCEP03730566","2024-07-03 04:45:00","9.7861","3.24062","26.214","3.855","7.5","0.463","4.025","0.01","0.31","29.4129","4.65791","41.02","0","SATNPRO1509","29.451999999999998","0.4125","5"],
    [26778,"HCEP03730566","2024-07-03 05:00:00","9.7911","3.24101","25.992","3.866","7.5","0.351","4.668","0.01","0.14","29.4129","4.6578","41.15","0","SATNPRO1509","29.396","0.41174","5"],
    [26779,"HCEP03730566","2024-07-03 05:15:00","9.7895","3.24091","25.768","3.917","7.5","0.248","7.085","0.01","0.18","29.4133","4.65788","41.68","0","SATNPRO1509","29.56","0.41402","5"],
    [26780,"HCEP03730566","2024-07-03 05:30:00","9.7851","3.24056","25.543","3.881","7.5","0.185","11.45","0.01","0.25","29.4135","4.65798","41.3","0","SATNPRO1509","29.24","0.40956","5"],
    [26781,"HCEP03730566","2024-07-03 05:45:00","9.7837","3.24051","25.324","3.848","7.5","0.146","19.657","0.01","0.14","29.4143","4.6581","40.95","0","SATNPRO1509","29.458","0.4126","5"],
    [26782,"HCEP03730566","2024-07-03 06:00:00","9.7764","3.23989","25.117","3.801","7.51","0.15","33.469","0.02","0.2","29.414","4.65818","40.44","0","SATNPRO1509","29.348","0.41108","5"],
    [26783,"HCEP03730566","2024-07-03 06:15:00","9.7741","3.23973","24.908","3.711","7.5","0.198","54.259","0.03","0.21","29.4144","4.65825","39.48","0","SATNPRO1509","29.258","0.40984","5"],
    [26784,"HCEP03730566","2024-07-03 06:30:00","9.7697","3.23932","24.712","3.646","7.49","0.256","79.099","0.06","0.22","29.4139","4.65825","38.79","0","SATNPRO1509","29.126","0.40792","5"],
    [26785,"HCEP03730566","2024-07-03 06:45:00","9.7682","3.23918","24.515","3.597","7.48","0.292","106.828","0.07","0.61","29.4138","4.65825","38.26","0","SATNPRO1509","29.168","0.40856","5"],
    [26786,"HCEP03730566","2024-07-03 07:00:00","9.7657","3.23902","24.354","3.548","7.48","0.328","123.348","0.06","0.16","29.4142","4.65834","37.74","0","SATNPRO1509","29.195999999999998","0.40894","5"],
    [26787,"HCEP03730566","2024-07-03 07:15:00","9.7656","3.2389","24.197","3.53","7.48","0.411","129.154","0.12","0.18","29.4133","4.6582","37.55","0","SATNPRO1509","29.137999999999998","0.40812","5"],
    [26788,"HCEP03730566","2024-07-03 07:30:00","9.7662","3.2391","24.012","3.539","7.48","0.535","127.887","0.12","0.14","29.4148","4.6584","37.65","0","SATNPRO1509","29.312","0.41054","5"],
    [26789,"HCEP03730566","2024-07-03 07:45:00","9.7685","3.23943","23.875","3.572","7.48","0.674","123.996","0.25","0.03","29.4163","4.65857","38","0","SATNPRO1509","29.548","0.41392","5"],
    [26790,"HCEP03730566","2024-07-03 08:00:00","9.7669","3.23931","23.827","3.601","7.49","0.543","121.045","0.16","0.07","29.4165","4.65862","38.31","0","SATNPRO1509","29.004","0.40626","5"],
    [26791,"HCEP03730566","2024-07-03 08:15:00","9.767","3.2367","23.833","3.588","7.48","0.696","119.788","0.21","0.7","29.3902","4.65485","38.16","0","SATNPRO1509","29.312","0.41056","5"],
    [26792,"HCEP03730566","2024-07-03 08:30:00","9.7674","3.23948","23.84","3.563","7.48","0.506","113.795","0.15","0.1","29.4177","4.65878","37.9","0","SATNPRO1509","29.134","0.40808","5"],
    [26793,"HCEP03730566","2024-07-03 08:45:00","9.7677","3.23963","23.891","3.558","7.48","0.521","88.618","0.12","0","29.419","4.65896","37.85","0","SATNPRO1509","29.312","0.41058","5"],
    [26794,"HCEP03730566","2024-07-03 09:00:00","9.7691","3.23988","23.959","3.597","7.48","0.475","58.924","0.1","0.03","29.4204","4.65914","38.27","0","SATNPRO1509","29.346","0.41106","5"],
    [26795,"HCEP03730566","2024-07-03 09:15:00","9.7703","3.24","24.036","3.629","7.48","0.453","28.559","0.07","0.02","29.4205","4.65914","38.61","0","SATNPRO1509","29.5","0.41322","5"],
    [26796,"HCEP03730566","2024-07-03 09:30:00","9.7713","3.24008","24.12","3.66","7.49","0.431","9.325","0.07","0.01","29.4206","4.65914","38.94","0","SATNPRO1509","29.708","0.41612","5"],
    [26797,"HCEP03730566","2024-07-03 09:45:00","9.7715","3.24011","24.234","3.688","7.49","0.403","1.381","0.13","0.02","29.4205","4.65914","39.24","0","SATNPRO1509","29.678","0.41572","5"],
    [26798,"HCEP03730566","2024-07-03 10:00:00","9.7691","3.23978","24.28","3.674","7.49","0.35","0.314","0.05","0.01","29.4192","4.65899","39.08","0","SATNPRO1509","29.41","0.41194","5"],
    [26799,"HCEP03730566","2024-07-03 10:15:00","9.7684","3.23968","24.45","3.621","7.49","0.267","0.238","0.04","0.01","29.4187","4.65894","38.52","0","SATNPRO1509","29.3","0.4104","5"],
    [26800,"HCEP03730566","2024-07-03 10:30:00","9.7687","3.23977","24.621","3.561","7.49","0.257","0.286","0.04","0.01","29.4193","4.65904","37.88","0","SATNPRO1509","29.084","0.40738","5"],
    [26801,"HCEP03730566","2024-07-03 10:45:00","9.7718","3.24008","24.792","3.549","7.49","0.241","0.407","0.02","0.02","29.4199","4.65907","37.75","0","SATNPRO1509","29.136","0.40808","5"],
    [26802,"HCEP03730566","2024-07-03 11:00:00","9.7739","3.24024","24.968","3.576","7.49","0.221","0.437","0.02","0.02","29.4197","4.65902","38.05","0","SATNPRO1509","29.264","0.40988","5"],
    [26803,"HCEP03730566","2024-07-03 11:15:00","9.7795","3.24089","25.112","3.64","7.49","0.17","0.449","0.02","0.02","29.4215","4.65919","38.73","0","SATNPRO1509","29.62","0.41486","5"],
    [26804,"HCEP03730566","2024-07-03 11:30:00","9.7814","3.24099","25.267","3.751","7.49","0.197","0.593","0.04","0.13","29.421","4.65909","39.91","0","SATNPRO1509","29.712","0.4162","5"],
    [26805,"HCEP03730566","2024-07-03 11:45:00","9.7844","3.24132","25.441","3.847","7.51","0.185","0.582","0.03","0.04","29.4218","4.65917","40.94","0","SATNPRO1509","29.75","0.41672","5"],
    [26806,"HCEP03730566","2024-07-03 12:00:00","9.7924","3.24247","25.653","3.997","7.52","0.182","0.605","0.04","0.09","29.4266","4.65973","42.55","0","SATNPRO1509","30.198","0.42302","5"],
    [26807,"HCEP03730566","2024-07-03 12:15:00","9.8006","3.2434","25.867","4.174","7.54","0.195","0.564","0.05","0.04","29.4292","4.65998","44.43","0","SATNPRO1509","30.402","0.4258","5"],
    [26808,"HCEP03730566","2024-07-03 12:30:00","9.7934","3.24253","26.071","4.187","7.55","0.267","0.647","0.11","0.06","29.4263","4.6597","44.57","0","SATNPRO1509","30.142","0.4222","5"],
    [26809,"HCEP03730566","2024-07-03 12:45:00","9.791","3.24211","26.275","4.072","7.54","0.261","0.793","0.06","0.08","29.424","4.65942","43.34","0","SATNPRO1509","29.913999999999998","0.41896","5"],
    [26810,"HCEP03730566","2024-07-03 13:00:00","9.7816","3.24031","26.488","3.92","7.54","0.32","0.875","0.06","0.06","29.4135","4.65808","41.71","0","SATNPRO1509","29.678","0.4157","5"],
    [26811,"HCEP03730566","2024-07-03 13:15:00","9.7749","3.23975","26.69","3.73","7.52","0.429","1.162","0.11","0.08","29.4133","4.65818","39.69","0","SATNPRO1509","29.404","0.41184","5"],
    [26812,"HCEP03730566","2024-07-03 13:30:00","9.7723","3.23905","26.854","3.593","7.51","0.486","1.297","0.13","0.11","29.4082","4.65751","38.23","0","SATNPRO1509","29.276","0.41006","5"],
    [26813,"HCEP03730566","2024-07-03 13:45:00","9.7715","3.23896","27.033","3.518","7.5","0.502","1.553","0.12","0.14","29.4078","4.65748","37.42","0","SATNPRO1509","29.272000000000002","0.41","5"],
    [26814,"HCEP03730566","2024-07-03 14:00:00","9.7692","3.23856","27.179","3.477","7.5","0.558","1.673","0.1","0.12","29.4058","4.65724","36.98","0","SATNPRO1509","29.242","0.4096","5"],
    [26815,"HCEP03730566","2024-07-03 14:15:00","9.7679","3.2383","27.307","3.424","7.49","0.6","1.642","0.09","0.06","29.4041","4.65702","36.42","0","SATNPRO1509","29.306","0.41048","5"],
    [26816,"HCEP03730566","2024-07-03 14:30:00","9.7663","3.23797","27.411","3.377","7.49","0.625","1.861","0.08","0.11","29.402","4.65675","35.92","0","SATNPRO1509","29.298","0.41036","5"],
    [26817,"HCEP03730566","2024-07-03 14:45:00","9.7654","3.23783","27.546","3.329","7.48","0.681","2.113","0.09","0.11","29.4013","4.65668","35.41","0","SATNPRO1509","29.23","0.40942","5"],
    [26818,"HCEP03730566","2024-07-03 15:00:00","9.7655","3.23784","27.659","3.305","7.48","0.771","2.001","0.13","0.12","29.4013","4.65669","35.16","0","SATNPRO1509","29.201999999999998","0.40904","5"],
    [26819,"HCEP03730566","2024-07-03 15:15:00","9.7654","3.23778","27.708","3.299","7.47","0.826","8.286","0.23","16.2","29.4007","4.6566","35.09","0","SATNPRO1509","29.254","0.40978","5"],
    [26820,"HCEP03730566","2024-07-03 15:30:00","9.7651","3.23763","27.781","3.286","7.47","0.907","2.118","0.21","0.14","29.3994","4.65643","34.95","0","SATNPRO1509","29.192","0.4089","5"],
    [26821,"HCEP03730566","2024-07-03 15:45:00","9.7656","3.23768","27.76","3.253","7.47","0.938","2.514","0.14","0.13","29.3995","4.65644","34.6","0","SATNPRO1509","29.092","0.40746","5"],
    [26822,"HCEP03730566","2024-07-03 16:00:00","9.7646","3.23742","27.759","3.213","7.46","1.055","2.728","0.17","0.15","29.3977","4.6562","34.17","0","SATNPRO1509","28.962","0.40568","5"],
    [26823,"HCEP03730566","2024-07-03 16:15:00","9.7638","3.23691","27.767","3.148","7.45","1","2.35","0.2","0.13","29.3933","4.65558","33.48","0","SATNPRO1509","28.922","0.40514","5"],
    [26824,"HCEP03730566","2024-07-03 16:30:00","9.7639","3.23688","27.752","3.092","7.45","1.024","2.804","0.14","0.14","29.3929","4.65551","32.88","0","SATNPRO1509","28.878","0.4045","5"],
    [26825,"HCEP03730566","2024-07-03 16:45:00","9.7642","3.23665","27.743","3.052","7.45","1.137","2.857","0.24","0.18","29.3903","4.65514","32.46","0","SATNPRO1509","28.734","0.40246","5"],
    [26826,"HCEP03730566","2024-07-03 17:00:00","9.7645","3.23673","27.73","3.016","7.45","1.135","3.052","0.22","0.24","29.391","4.65523","32.08","0","SATNPRO1509","28.596","0.40052","5"],
    [26827,"HCEP03730566","2024-07-03 17:15:00","9.7649","3.23634","27.715","2.984","7.44","1.134","2.98","0.23","0.23","29.3867","4.65461","31.74","0","SATNPRO1509","28.528","0.39958","5"],
    [26828,"HCEP03730566","2024-07-03 17:30:00","9.7654","3.23624","27.697","2.936","7.44","1.293","3.216","0.34","0.21","29.3853","4.6544","31.22","0","SATNPRO1509","28.406","0.39782","5"],
    [26829,"HCEP03730566","2024-07-03 17:45:00","9.7657","3.23624","27.661","2.898","7.44","1.212","3.22","0.2","0.27","29.385","4.65435","30.82","0","SATNPRO1509","28.566","0.40014","5"],
    [26830,"HCEP03730566","2024-07-03 18:00:00","9.7657","3.23604","27.576","2.881","7.43","1.162","2.847","0.25","0.17","29.3831","4.65407","30.64","0","SATNPRO1509","28.422","0.39814","5"],
    [26831,"HCEP03730566","2024-07-03 18:15:00","9.7649","3.2363","27.633","2.867","7.43","1.082","3.063","0.18","0.45","29.3864","4.65456","30.49","0","SATNPRO1509","28.442","0.39832","5"],
    [26832,"HCEP03730566","2024-07-03 18:30:00","9.7642","3.23654","27.513","2.904","7.43","1.144","3.266","0.17","0.41","29.3894","4.65499","30.88","0","SATNPRO1509","28.542","0.3998","5"],
    [26833,"HCEP03730566","2024-07-03 18:45:00","9.7643","3.23677","27.5","2.935","7.43","1.151","3.679","0.16","0.35","29.3916","4.65531","31.21","0","SATNPRO1509","28.470000000000002","0.39882","5"],
    [26834,"HCEP03730566","2024-07-03 19:00:00","9.7654","3.2372","27.388","2.975","7.43","1.165","3.932","0.22","0.14","29.395","4.65577","31.64","0","SATNPRO1509","28.586000000000002","0.40042","5"],
    [26835,"HCEP03730566","2024-07-03 19:15:00","9.7673","3.23746","27.345","3.021","7.44","1.121","4.081","0.16","0.15","29.3961","4.65589","32.14","0","SATNPRO1509","28.608","0.4007","5"],
    [26836,"HCEP03730566","2024-07-03 19:30:00","9.7815","3.24073","27.278","3.182","7.44","1.144","4.187","0.16","0.18","29.4174","4.65869","33.86","0","SATNPRO1509","28.856","0.40418","5"],
    [26837,"HCEP03730566","2024-07-03 19:45:00","9.787","3.24199","27.2","3.465","7.47","1.142","4.271","0.14","0.19","29.4257","4.65978","36.88","0","SATNPRO1509","28.874","0.40446","5"],
    [26838,"HCEP03730566","2024-07-03 20:00:00","9.7845","3.24114","27.135","3.48","7.47","1.109","4.215","0.11","0.18","29.4192","4.65889","37.03","0","SATNPRO1509","28.822","0.40372","5"],
    [26839,"HCEP03730566","2024-07-03 20:15:00","9.7823","3.24031","27.085","3.401","7.46","1.161","4","0.16","0.14","29.4126","4.65799","36.19","0","SATNPRO1509","28.727999999999998","0.40234","5"],
    [26840,"HCEP03730566","2024-07-03 20:30:00","9.7732","3.23732","27.03","3.254","7.46","1.104","3.251","0.22","0.17","29.39","4.65491","34.61","0","SATNPRO1509","28.756","0.40276","5"],
    [26841,"HCEP03730566","2024-07-03 20:45:00","9.7746","3.23822","26.99","3.119","7.46","1.112","3.151","0.17","0.13","29.3979","4.65601","33.18","0","SATNPRO1509","28.76","0.40286","5"],
    [26842,"HCEP03730566","2024-07-03 21:00:00","9.7687","3.23673","26.956","3.073","7.45","1.081","2.369","0.18","0.12","29.3878","4.65467","32.68","0","SATNPRO1509","28.804","0.40346","5"],
    [26843,"HCEP03730566","2024-07-03 21:15:00","9.7756","3.23856","26.944","3.059","7.45","1.126","3.035","0.25","0.3","29.4005","4.65636","32.54","0","SATNPRO1509","28.804","0.40344","5"],
    [26844,"HCEP03730566","2024-07-03 21:30:00","9.7844","3.24044","26.934","3.199","7.46","1.194","4.187","0.24","0.86","29.4124","4.6579","34.04","0","SATNPRO1509","28.696","0.40192","5"],
    [26845,"HCEP03730566","2024-07-03 21:45:00","9.7857","3.24084","26.957","3.31","7.46","1.279","4.064","0.34","0.32","29.4152","4.65829","35.22","0","SATNPRO1509","28.52","0.39946","5"],
    [26846,"HCEP03730566","2024-07-03 22:00:00","9.7876","3.24142","26.967","3.39","7.47","1.329","3.811","0.28","0.17","29.4196","4.65888","36.08","0","SATNPRO1509","29.608","0.41474","5"],
    [26847,"HCEP03730566","2024-07-03 22:15:00","9.7891","3.2418","26.972","3.445","7.48","1.153","4.448","0.11","0.28","29.4221","4.65922","36.66","0","SATNPRO1509","28.776","0.40306","5"],
    [26848,"HCEP03730566","2024-07-03 22:30:00","9.7886","3.24162","27.008","3.478","7.48","0.999","3.605","0.11","0.21","29.4207","4.65903","37.01","0","SATNPRO1509","28.836","0.40394","5"],
    [26849,"HCEP03730566","2024-07-03 22:45:00","9.7903","3.24226","27.049","3.5","7.48","1.135","3.925","0.29","0.19","29.4257","4.65971","37.25","0","SATNPRO1509","28.84","0.40396","5"],
    [26850,"HCEP03730566","2024-07-03 23:00:00","9.7904","3.24212","27.078","3.533","7.48","1.086","3.607","0.28","0.14","29.4242","4.65951","37.6","0","SATNPRO1509","28.954","0.4056","5"],
    [26851,"HCEP03730566","2024-07-03 23:15:00","9.7904","3.24236","27.13","3.572","7.48","1.037","3.352","0.17","0.12","29.4266","4.65985","38.02","0","SATNPRO1509","29.086","0.4074","5"],
    [26852,"HCEP03730566","2024-07-03 23:30:00","9.7927","3.2432","27.191","3.631","7.48","1.061","3.724","0.17","0.24","29.4331","4.66075","38.65","0","SATNPRO1509","29.138","0.40812","5"],
    [26853,"HCEP03730566","2024-07-03 23:45:00","9.7927","3.24323","27.234","3.707","7.48","1.005","3.246","0.18","0.15","29.4334","4.66079","39.46","0","SATNPRO1509","29.322","0.41068","5"],
    [26854,"HCEP03730566","2024-07-04 00:00:00","9.7926","3.24305","27.289","3.751","7.49","0.874","3.151","0.12","0.14","29.4316","4.66054","39.93","0","SATNPRO1509","29.374","0.41146","5"],
    [26855,"HCEP03730566","2024-07-04 00:15:00","9.7925","3.24293","27.348","3.787","7.49","0.946","2.938","0.17","0.24","29.4305","4.66038","40.31","0","SATNPRO1509","29.49","0.41306","5"],
    [26856,"HCEP03730566","2024-07-04 00:30:00","9.7955","3.24331","27.407","3.83","7.5","0.993","3.533","0.38","1.18","29.4319","4.66053","40.77","0","SATNPRO1509","29.58","0.41432","5"],
    [26857,"HCEP03730566","2024-07-04 00:45:00","9.7893","3.24164","27.474","3.862","7.5","0.835","2.522","0.13","0.27","29.4202","4.65896","41.11","0","SATNPRO1509","29.759999999999998","0.41682","5"],
    [26858,"HCEP03730566","2024-07-04 01:00:00","9.7938","3.24255","27.505","3.861","7.5","0.819","2.92","0.15","0.19","29.4256","4.65967","41.1","0","SATNPRO1509","29.76","0.41684","5"],
    [26859,"HCEP03730566","2024-07-04 01:15:00","9.7992","3.24354","27.549","3.972","7.52","0.882","2.969","0.25","0.23","29.4312","4.66038","42.29","0","SATNPRO1509","29.878","0.41852","5"],
    [26860,"HCEP03730566","2024-07-04 01:30:00","9.8","3.24377","27.583","4.037","7.53","0.813","3.011","0.15","0.21","29.4327","4.66058","42.98","0","SATNPRO1509","29.753999999999998","0.41676","5"],
    [26861,"HCEP03730566","2024-07-04 01:45:00","9.8068","3.24525","27.622","4.06","7.54","0.772","2.732","0.14","0.16","29.4421","4.66181","43.23","0","SATNPRO1509","29.762","0.41688","5"],
    [26862,"HCEP03730566","2024-07-04 02:00:00","9.8122","3.24605","27.646","4.184","7.55","0.743","2.911","0.27","0.27","29.4457","4.66223","44.56","0","SATNPRO1509","29.898","0.41878","5"],
    [26863,"HCEP03730566","2024-07-04 02:15:00","9.8158","3.24662","27.647","4.267","7.55","0.691","3.104","0.1","0.18","29.4484","4.66256","45.45","0","SATNPRO1509","30.102","0.42164","5"],
    [26864,"HCEP03730566","2024-07-04 02:30:00","9.8218","3.24742","27.643","4.346","7.56","0.682","2.953","0.2","0.23","29.4516","4.66291","46.3","0","SATNPRO1509","30.262","0.42384","5"],
    [26865,"HCEP03730566","2024-07-04 02:45:00","9.8274","3.24827","27.618","4.418","7.57","0.591","2.966","0.1","0.13","29.4556","4.66339","47.07","0","SATNPRO1509","30.35","0.42512","5"],
    [26866,"HCEP03730566","2024-07-04 03:00:00","9.8283","3.24841","27.582","4.478","7.58","0.682","3.599","0.22","0.41","29.4562","4.66346","47.71","0","SATNPRO1509","30.24","0.42354","5"],
    [26867,"HCEP03730566","2024-07-04 03:15:00","9.8283","3.24832","27.522","4.49","7.58","0.71","4.407","0.18","0.29","29.4554","4.66333","47.83","0","SATNPRO1509","30.438","0.4263","5"],
    [26868,"HCEP03730566","2024-07-04 03:30:00","9.8308","3.24862","27.457","4.509","7.58","0.652","5.591","0.13","0.24","29.4564","4.66343","48.04","0","SATNPRO1509","30.514","0.42742","5"],
    [26869,"HCEP03730566","2024-07-04 03:45:00","9.8323","3.24852","27.371","4.539","7.58","0.659","9.099","0.11","0.34","29.4542","4.66309","48.36","0","SATNPRO1509","30.386","0.42566","5"],
    [26870,"HCEP03730566","2024-07-04 04:00:00","9.8328","3.2484","27.263","4.548","7.57","0.644","10.429","0.08","0.1","29.4525","4.66284","48.46","0","SATNPRO1509","30.406000000000002","0.42586","5"],
    [26871,"HCEP03730566","2024-07-04 04:15:00","9.8325","3.24819","27.142","4.545","7.57","0.644","14.641","0.12","0.2","29.4508","4.66259","48.43","0","SATNPRO1509","30.376","0.42544","5"],
    [26872,"HCEP03730566","2024-07-04 04:30:00","9.8329","3.24818","26.989","4.542","7.58","0.75","18.759","0.19","0.3","29.4504","4.66251","48.39","0","SATNPRO1509","30.464","0.42672","5"],
    [26873,"HCEP03730566","2024-07-04 04:45:00","9.8364","3.24867","26.818","4.559","7.58","0.601","22.2","0.1","0.11","29.4525","4.66274","48.58","0","SATNPRO1509","30.74","0.43058","5"],
    [26874,"HCEP03730566","2024-07-04 05:00:00","9.8348","3.24867","26.648","4.61","7.59","0.697","26.685","0.18","0.14","29.4538","4.66295","49.13","0","SATNPRO1509","30.637999999999998","0.42916","5"],
    [26875,"HCEP03730566","2024-07-04 05:15:00","9.8356","3.24889","26.442","4.6","7.58","0.638","29.931","0.1","0.08","29.4556","4.66317","49.02","0","SATNPRO1509","30.75","0.4307","5"],
    [26876,"HCEP03730566","2024-07-04 05:30:00","9.8362","3.24903","26.232","4.625","7.59","0.601","32.166","0.08","0.09","29.4566","4.6633","49.28","0","SATNPRO1509","30.778","0.43108","5"],
    [26877,"HCEP03730566","2024-07-04 05:45:00","9.8364","3.24909","26.016","4.642","7.59","0.607","31.407","0.11","0.06","29.457","4.66335","49.47","0","SATNPRO1509","30.774","0.431","5"],
    [26878,"HCEP03730566","2024-07-04 06:00:00","9.8367","3.24934","25.775","4.659","7.6","0.595","28.372","0.1","0.29","29.4594","4.66367","49.65","0","SATNPRO1509","30.742","0.43062","5"],
    [26879,"HCEP03730566","2024-07-04 06:15:00","9.8364","3.24922","25.534","4.661","7.6","0.597","24.631","0.13","0.09","29.4585","4.66353","49.67","0","SATNPRO1509","30.740000000000002","0.43058","5"],
    [26880,"HCEP03730566","2024-07-04 06:30:00","9.8358","3.24906","25.326","4.644","7.6","0.594","22.378","0.07","0.12","29.4575","4.66339","49.49","0","SATNPRO1509","30.682","0.42978","5"],
    [26881,"HCEP03730566","2024-07-04 06:45:00","9.8357","3.24908","25.097","4.633","7.6","0.62","21.883","0.1","0.07","29.4579","4.66344","49.37","0","SATNPRO1509","30.785999999999998","0.43122","5"],
    [26882,"HCEP03730566","2024-07-04 07:00:00","9.8354","3.24898","24.904","4.62","7.6","0.626","22.291","0.1","0.08","29.4573","4.66334","49.23","0","SATNPRO1509","30.564","0.4281","5"],
    [26883,"HCEP03730566","2024-07-04 07:15:00","9.8353","3.24904","24.671","4.608","7.6","0.666","22.55","0.1","0.07","29.4581","4.66344","49.1","0","SATNPRO1509","30.636","0.4291","5"],
    [26884,"HCEP03730566","2024-07-04 07:30:00","9.8356","3.24909","24.317","4.622","7.59","0.668","23.532","0.1","0.49","29.4584","4.66345","49.26","0","SATNPRO1509","30.742","0.43056","5"],
    [26885,"HCEP03730566","2024-07-04 07:45:00","9.8357","3.24913","24.102","4.622","7.59","0.851","23.527","0.23","0.09","29.4588","4.66351","49.25","0","SATNPRO1509","30.74","0.43056","5"],
    [26886,"HCEP03730566","2024-07-04 08:00:00","9.8355","3.24913","24.06","4.611","7.59","0.596","23.006","0.1","0.09","29.4591","4.66354","49.14","0","SATNPRO1509","30.83","0.43186","5"],
    [26887,"HCEP03730566","2024-07-04 08:15:00","9.8364","3.24912","23.962","4.6","7.59","0.666","22.19","0.07","0.12","29.4583","4.66341","49.02","0","SATNPRO1509","30.712","0.43018","5"],
    [26888,"HCEP03730566","2024-07-04 08:30:00","9.8359","3.24913","23.811","4.594","7.59","0.69","21.521","0.13","0.11","29.4588","4.66348","48.96","0","SATNPRO1509","30.811999999999998","0.43152","5"],
    [26889,"HCEP03730566","2024-07-04 08:45:00","9.8354","3.24912","23.73","4.615","7.59","0.698","21.535","0.16","0.18","29.4591","4.66353","49.18","0","SATNPRO1509","30.706","0.4301","5"],
    [26890,"HCEP03730566","2024-07-04 09:00:00","9.8347","3.24912","23.692","4.608","7.59","0.733","19.399","0.17","0.13","29.4597","4.66362","49.1","0","SATNPRO1509","30.652","0.4293","5"],
    [26891,"HCEP03730566","2024-07-04 09:15:00","9.8356","3.24926","23.674","4.598","7.59","0.669","14.618","0.12","0.13","29.4604","4.6637","48.99","0","SATNPRO1509","30.774","0.43106","5"],
    [26892,"HCEP03730566","2024-07-04 09:30:00","9.8351","3.24918","23.652","4.617","7.59","0.725","16.108","0.19","0.17","29.46","4.66365","49.2","0","SATNPRO1509","30.606","0.4287","5"],
    [26893,"HCEP03730566","2024-07-04 09:45:00","9.8349","3.24896","23.673","4.601","7.59","0.6","21.972","0.14","0.09","29.4579","4.66336","49.03","0","SATNPRO1509","30.682","0.42976","5"],
    [26894,"HCEP03730566","2024-07-04 10:00:00","9.8346","3.24901","23.766","4.574","7.59","0.586","25.238","0.08","0.1","29.4587","4.66348","48.74","0","SATNPRO1509","30.452","0.42656","5"],
    [26895,"HCEP03730566","2024-07-04 10:15:00","9.834","3.24909","23.931","4.545","7.59","0.65","26.612","0.12","0.25","29.4599","4.66369","48.43","0","SATNPRO1509","30.451999999999998","0.42654","5"],
    [26896,"HCEP03730566","2024-07-04 10:30:00","9.8348","3.24912","24.049","4.554","7.59","0.612","27.972","0.13","0.18","29.4594","4.6636","48.53","0","SATNPRO1509","30.682","0.42978","5"],
    [26897,"HCEP03730566","2024-07-04 10:45:00","9.8353","3.24907","24.183","4.623","7.59","0.61","27.626","0.13","0.07","29.4585","4.66347","49.26","0","SATNPRO1509","30.746","0.43066","5"],
    [26898,"HCEP03730566","2024-07-04 11:00:00","9.8344","3.24951","24.332","4.609","7.59","0.681","27.63","0.1","0.16","29.4636","4.66422","49.11","0","SATNPRO1509","30.38","0.42554","5"],
    [26899,"HCEP03730566","2024-07-04 11:15:00","9.8352","3.24969","24.473","4.576","7.6","0.67","25.697","0.12","0.11","29.4647","4.66437","48.76","0","SATNPRO1509","30.5","0.42722","5"],
    [26900,"HCEP03730566","2024-07-04 11:30:00","9.8353","3.24972","24.636","4.572","7.6","0.72","23.296","0.09","0.2","29.4649","4.66441","48.72","0","SATNPRO1509","30.514","0.4274","5"],
    [26901,"HCEP03730566","2024-07-04 11:45:00","9.8348","3.24972","24.818","4.558","7.6","0.696","21.016","0.1","0.19","29.4652","4.66447","48.57","0","SATNPRO1509","30.298000000000002","0.42436","5"],
    [26902,"HCEP03730566","2024-07-04 12:00:00","9.835","3.24976","25.02","4.559","7.6","0.697","21.452","0.09","0.14","29.4653","4.6645","48.59","0","SATNPRO1509","30.456","0.42662","5"],
    [26903,"HCEP03730566","2024-07-04 12:15:00","9.8348","3.24974","25.185","4.546","7.6","0.658","23.811","0.08","0.12","29.4652","4.66449","48.44","0","SATNPRO1509","30.274","0.42404","5"],
    [26904,"HCEP03730566","2024-07-04 12:30:00","9.8351","3.24987","25.37","4.544","7.6","0.615","25.59","0.05","0.12","29.4662","4.66465","48.43","0","SATNPRO1509","30.394","0.4257","5"],
    [26905,"HCEP03730566","2024-07-04 12:45:00","9.8352","3.24992","25.576","4.557","7.6","0.59","26.339","0.04","0.11","29.4666","4.66471","48.56","0","SATNPRO1509","30.47","0.4268","5"],
    [26906,"HCEP03730566","2024-07-04 13:00:00","9.8354","3.24988","25.782","4.559","7.6","0.6","26.399","0.08","0.1","29.4659","4.66462","48.59","0","SATNPRO1509","30.364","0.42526","5"],
    [26907,"HCEP03730566","2024-07-04 13:15:00","9.8354","3.24988","26.022","4.561","7.6","0.628","24.726","0.1","0.1","29.4658","4.66462","48.61","0","SATNPRO1509","30.41","0.42592","5"],
    [26908,"HCEP03730566","2024-07-04 13:30:00","9.8355","3.24989","26.285","4.558","7.6","0.606","23.901","0.07","0.12","29.4658","4.66463","48.57","0","SATNPRO1509","30.512","0.42742","5"],
    [26909,"HCEP03730566","2024-07-04 13:45:00","9.8355","3.24993","26.497","4.566","7.6","0.583","20.947","0.07","0.07","29.466","4.66468","48.66","0","SATNPRO1509","30.444","0.42642","5"],
    [26910,"HCEP03730566","2024-07-04 14:00:00","9.8354","3.24975","26.696","4.561","7.6","0.573","16.696","0.08","0.09","29.4643","4.66444","48.6","0","SATNPRO1509","30.522","0.42752","5"],
    [26911,"HCEP03730566","2024-07-04 14:15:00","9.8354","3.24969","26.911","4.56","7.6","0.569","11.848","0.05","0.11","29.4636","4.66435","48.59","0","SATNPRO1509","30.614","0.42884","5"],
    [26912,"HCEP03730566","2024-07-04 14:30:00","9.8346","3.24961","27.065","4.545","7.6","0.553","7.457","0.08","0.08","29.4633","4.66433","48.44","0","SATNPRO1509","30.4","0.42574","5"],
    [26913,"HCEP03730566","2024-07-04 14:45:00","9.8349","3.24969","27.218","4.514","7.6","0.591","5.425","0.09","0.07","29.4639","4.66442","48.1","0","SATNPRO1509","30.258","0.42382","5"],
    [26914,"HCEP03730566","2024-07-04 15:00:00","9.8354","3.24999","27.388","4.488","7.59","0.65","4.84","0.07","0.11","29.4663","4.66477","47.82","0","SATNPRO1509","30.196","0.42296","5"],
    [26915,"HCEP03730566","2024-07-04 15:15:00","9.8354","3.25032","27.561","4.499","7.59","0.634","3.802","0.09","0.14","29.4696","4.66526","47.95","0","SATNPRO1509","30.402","0.42584","5"],
    [26916,"HCEP03730566","2024-07-04 15:30:00","9.8354","3.2506","27.685","4.532","7.59","0.635","3.282","0.08","0.12","29.4724","4.66566","48.3","0","SATNPRO1509","30.436","0.4263","5"],
    [26917,"HCEP03730566","2024-07-04 15:45:00","9.8349","3.25072","27.769","4.547","7.6","0.642","2.82","0.07","0.08","29.4739","4.66589","48.45","0","SATNPRO1509","30.598","0.42854","5"],
    [26918,"HCEP03730566","2024-07-04 16:00:00","9.8346","3.25079","27.852","4.554","7.6","0.671","2.991","0.09","0.16","29.4749","4.66604","48.53","0","SATNPRO1509","30.488","0.42708","5"],
    [26919,"HCEP03730566","2024-07-04 16:15:00","9.8346","3.25084","27.906","4.551","7.59","0.723","3.109","0.08","0.15","29.4754","4.66611","48.5","0","SATNPRO1509","30.296","0.42436","5"],
    [26920,"HCEP03730566","2024-07-04 16:30:00","9.8341","3.25094","27.909","4.543","7.59","0.711","2.84","0.1","0.13","29.4768","4.66632","48.42","0","SATNPRO1509","30.368000000000002","0.42538","5"],
    [26921,"HCEP03730566","2024-07-04 16:45:00","9.8342","3.25086","27.91","4.544","7.59","0.835","3.458","0.54","2.7","29.4759","4.66619","48.43","0","SATNPRO1509","30.38","0.42548","5"],
    [26922,"HCEP03730566","2024-07-04 17:00:00","9.8347","3.25079","27.923","4.544","7.59","0.82","2.889","0.2","0.16","29.4747","4.66601","48.43","0","SATNPRO1509","30.252","0.42378","5"],
    [26923,"HCEP03730566","2024-07-04 17:15:00","9.8344","3.25087","27.881","4.538","7.59","0.774","2.748","0.18","0.17","29.4759","4.66619","48.36","0","SATNPRO1509","30.42","0.42612","5"],
    [26924,"HCEP03730566","2024-07-04 17:30:00","9.8343","3.2509","27.918","4.558","7.59","0.678","2.487","0.16","0.19","29.4763","4.66625","48.58","0","SATNPRO1509","30.532","0.42766","5"],
    [26925,"HCEP03730566","2024-07-04 17:45:00","9.8354","3.25061","27.86","4.581","7.59","0.703","2.457","0.1","0.14","29.4724","4.66567","48.82","0","SATNPRO1509","30.654","0.42936","5"],
    [26926,"HCEP03730566","2024-07-04 18:00:00","9.8352","3.25078","27.816","4.586","7.59","0.775","2.682","0.16","0.15","29.4743","4.66593","48.88","0","SATNPRO1509","30.538","0.42778","5"],
    [26927,"HCEP03730566","2024-07-04 18:15:00","9.835","3.25065","27.823","4.573","7.59","0.791","2.503","0.22","0.13","29.4731","4.66577","48.73","0","SATNPRO1509","30.502","0.42722","5"],
    [26928,"HCEP03730566","2024-07-04 18:30:00","9.835","3.25071","27.798","4.569","7.59","0.823","2.457","0.24","0.12","29.4738","4.66587","48.69","0","SATNPRO1509","30.62","0.42886","5"],
    [26929,"HCEP03730566","2024-07-04 18:45:00","9.8352","3.25051","27.744","4.551","7.59","0.806","2.917","0.17","0.41","29.4716","4.66555","48.5","0","SATNPRO1509","30.224","0.42334","5"],
    [26930,"HCEP03730566","2024-07-04 19:00:00","9.8354","3.25001","27.669","4.524","7.59","0.941","2.556","0.6","0.17","29.4665","4.66481","48.21","0","SATNPRO1509","30.232","0.42346","5"],
    [26931,"HCEP03730566","2024-07-04 19:15:00","9.8349","3.24979","27.611","4.499","7.59","0.829","2.856","0.17","0.27","29.4647","4.66456","47.95","0","SATNPRO1509","29.886","0.41862","5"],
    [26932,"HCEP03730566","2024-07-04 19:30:00","9.835","3.24952","27.543","4.461","7.59","0.873","2.993","0.22","0.15","29.4619","4.66416","47.53","0","SATNPRO1509","30.04","0.42074","5"],
    [26933,"HCEP03730566","2024-07-04 19:45:00","9.8339","3.24895","27.492","4.417","7.58","0.778","3.07","0.11","0.12","29.4572","4.6635","47.07","0","SATNPRO1509","30.064","0.4211","5"],
    [26934,"HCEP03730566","2024-07-04 20:00:00","9.8202","3.24566","27.404","4.286","7.57","1.095","3.195","0.24","0.46","29.4353","4.66059","45.65","0","SATNPRO1509","29.716","0.41626","5"],
    [26935,"HCEP03730566","2024-07-04 20:15:00","9.8226","3.24613","27.342","4.08","7.55","1.035","3.431","0.27","0.16","29.4381","4.66095","43.46","0","SATNPRO1509","29.588","0.41446","5"],
    [26936,"HCEP03730566","2024-07-04 20:30:00","9.8191","3.24415","27.259","4.024","7.54","0.939","2.775","0.24","0.1","29.4212","4.65859","42.86","0","SATNPRO1509","29.602","0.41462","5"],
    [26937,"HCEP03730566","2024-07-04 20:45:00","9.8195","3.24379","27.168","3.944","7.53","0.938","5.015","0.21","7.35","29.4172","4.65801","42","0","SATNPRO1509","29.58","0.4143","5"],
    [26938,"HCEP03730566","2024-07-04 21:00:00","9.8284","3.24777","27.08","4.038","7.54","0.997","4.143","0.18","0.14","29.45","4.66254","43.02","0","SATNPRO1509","29.48","0.41294","5"],
    [26939,"HCEP03730566","2024-07-04 21:15:00","9.8297","3.24812","27.019","4.146","7.55","0.958","4.036","0.14","0.18","29.4524","4.66286","44.18","0","SATNPRO1509","29.618","0.41484","5"],
    [26940,"HCEP03730566","2024-07-04 21:30:00","9.8244","3.24507","26.961","4.15","7.55","0.903","3.369","0.19","0.18","29.4261","4.65919","44.2","0","SATNPRO1509","29.628","0.41502","5"],
    [26941,"HCEP03730566","2024-07-04 21:45:00","9.8276","3.24695","26.9","4.097","7.55","0.853","3.421","0.16","0.21","29.4424","4.66146","43.65","0","SATNPRO1509","29.604","0.41466","5"],
    [26942,"HCEP03730566","2024-07-04 22:00:00","9.8304","3.2484","26.88","4.15","7.55","0.837","3.822","0.17","0.21","29.4547","4.66317","44.22","0","SATNPRO1509","29.622","0.41494","5"],
    [26943,"HCEP03730566","2024-07-04 22:15:00","9.8311","3.24864","26.859","4.204","7.55","0.95","3.892","0.19","0.2","29.4566","4.66342","44.79","0","SATNPRO1509","29.61","0.41472","5"],
    [26944,"HCEP03730566","2024-07-04 22:30:00","9.8288","3.24742","26.865","4.208","7.55","0.88","3.262","0.23","0.16","29.4462","4.66198","44.83","0","SATNPRO1509","29.644","0.41522","5"],
    [26945,"HCEP03730566","2024-07-04 22:45:00","9.8286","3.24731","26.879","4.172","7.55","0.852","2.823","0.29","0.14","29.4453","4.66185","44.45","0","SATNPRO1509","29.706","0.41608","5"],
    [26946,"HCEP03730566","2024-07-04 23:00:00","9.8288","3.2474","26.912","4.166","7.55","0.848","3.168","0.19","0.22","29.446","4.66195","44.39","0","SATNPRO1509","29.714","0.41618","5"],
    [26947,"HCEP03730566","2024-07-04 23:15:00","9.8292","3.24775","26.948","4.158","7.55","0.891","3.29","0.21","0.15","29.4492","4.6624","44.3","0","SATNPRO1509","29.664","0.41548","5"],
    [26948,"HCEP03730566","2024-07-04 23:30:00","9.829","3.24761","26.988","4.141","7.55","0.922","3.51","0.32","0.14","29.4479","4.66223","44.12","0","SATNPRO1509","29.544","0.41382","5"],
    [26949,"HCEP03730566","2024-07-04 23:45:00","9.8293","3.24734","27.05","4.135","7.55","0.894","3.263","0.37","0.07","29.445","4.6618","44.06","0","SATNPRO1509","29.574","0.41422","5"],
    [26950,"HCEP03730566","2024-07-05 00:00:00","9.8293","3.24751","27.093","4.135","7.55","1.011","4.168","0.21","0.4","29.4465","4.66203","44.06","0","SATNPRO1509","29.52","0.4135","5"],
    [26951,"HCEP03730566","2024-07-05 00:15:00","9.83","3.24801","27.137","4.141","7.55","0.782","3.985","0.16","0.39","29.451","4.66266","44.12","0","SATNPRO1509","29.468","0.41278","5"],
    [26952,"HCEP03730566","2024-07-05 00:30:00","9.8308","3.24832","27.178","4.155","7.55","0.946","3.53","0.18","0.13","29.4535","4.66301","44.28","0","SATNPRO1509","29.631999999999998","0.41504","5"],
    [26953,"HCEP03730566","2024-07-05 00:45:00","9.8316","3.24857","27.23","4.185","7.55","1.217","3.818","1.3","0.27","29.4553","4.66326","44.59","0","SATNPRO1509","29.626","0.41494","5"],
    [26954,"HCEP03730566","2024-07-05 01:00:00","9.8318","3.24855","27.281","4.186","7.56","0.958","3.661","0.19","0.3","29.4549","4.66319","44.61","0","SATNPRO1509","29.416","0.41202","5"],
    [26955,"HCEP03730566","2024-07-05 01:15:00","9.8315","3.24851","27.328","4.161","7.56","1.087","4.479","0.25","0.2","29.4547","4.66318","44.34","0","SATNPRO1509","29.451999999999998","0.4125","5"],
    [26956,"HCEP03730566","2024-07-05 01:30:00","9.8323","3.24835","27.4","4.126","7.56","0.948","4.32","0.21","0.33","29.4525","4.66285","43.96","0","SATNPRO1509","29.698","0.41594","5"],
    [26957,"HCEP03730566","2024-07-05 01:45:00","9.8323","3.24802","27.458","4.182","7.56","1.047","3.701","0.28","0.24","29.4491","4.66237","44.56","0","SATNPRO1509","29.688","0.41582","5"],
    [26958,"HCEP03730566","2024-07-05 02:00:00","9.8317","3.2478","27.505","4.185","7.56","1.007","4.049","0.23","0.21","29.4473","4.66212","44.59","0","SATNPRO1509","29.512","0.41336","5"],
    [26959,"HCEP03730566","2024-07-05 02:15:00","9.8341","3.24763","27.551","4.203","7.56","0.991","3.551","0.2","0.24","29.4436","4.66156","44.78","0","SATNPRO1509","29.612","0.41474","5"],
    [26960,"HCEP03730566","2024-07-05 02:30:00","9.8341","3.24748","27.593","4.224","7.56","0.987","3.357","0.24","0.26","29.4421","4.66135","45.01","0","SATNPRO1509","29.811999999999998","0.41756","5"],
    [26961,"HCEP03730566","2024-07-05 02:45:00","9.8341","3.24736","27.621","4.213","7.56","0.91","3.397","0.18","0.26","29.4409","4.66117","44.89","0","SATNPRO1509","29.802","0.41742","5"],
    [26962,"HCEP03730566","2024-07-05 03:00:00","9.8339","3.24712","27.633","4.195","7.56","0.964","3.501","0.19","0.28","29.4387","4.66086","44.69","0","SATNPRO1509","29.97","0.4198","5"],
    [26963,"HCEP03730566","2024-07-05 03:15:00","9.8322","3.24673","27.641","4.161","7.55","0.945","3.566","0.2","0.21","29.4361","4.66052","44.33","0","SATNPRO1509","29.526","0.41354","5"],
    [26964,"HCEP03730566","2024-07-05 03:30:00","9.8319","3.24645","27.608","4.108","7.55","0.982","3.505","0.14","0.21","29.4336","4.66017","43.76","0","SATNPRO1509","29.432","0.4122","5"],
    [26965,"HCEP03730566","2024-07-05 03:45:00","9.8323","3.24613","27.573","4.083","7.55","1.004","3.253","0.15","0.19","29.43","4.65965","43.5","0","SATNPRO1509","29.686","0.41582","5"],
    [26966,"HCEP03730566","2024-07-05 04:00:00","9.833","3.24577","27.517","4.108","7.55","0.903","2.946","0.13","0.17","29.426","4.65905","43.76","0","SATNPRO1509","29.838","0.41794","5"],
    [26967,"HCEP03730566","2024-07-05 04:15:00","9.8328","3.24549","27.452","4.115","7.54","0.819","3.089","0.06","0.19","29.4233","4.65867","43.84","0","SATNPRO1509","29.8","0.41744","5"],
    [26968,"HCEP03730566","2024-07-05 04:30:00","9.8329","3.24516","27.363","4.109","7.54","0.782","3.119","0.09","0.18","29.42","4.65818","43.77","0","SATNPRO1509","30.048000000000002","0.42088","5"],
    [26969,"HCEP03730566","2024-07-05 04:45:00","9.8364","3.24529","27.268","4.118","7.54","0.693","2.94","0.16","0.15","29.4185","4.65791","43.87","0","SATNPRO1509","30.096","0.4215","5"],
    [26970,"HCEP03730566","2024-07-05 05:00:00","9.8314","3.24463","27.14","4.113","7.54","0.579","3.629","0.04","0.22","29.416","4.65763","43.82","0","SATNPRO1509","29.704","0.41604","5"],
    [26971,"HCEP03730566","2024-07-05 05:15:00","9.8347","3.24472","26.995","4.038","7.54","0.472","3.467","0.1","0.54","29.4143","4.65732","43.02","0","SATNPRO1509","29.887999999999998","0.41866","5"],
    [26972,"HCEP03730566","2024-07-05 05:30:00","9.8343","3.24463","26.829","4.06","7.54","0.341","4.437","0.01","0.13","29.4137","4.65723","43.25","0","SATNPRO1509","29.882","0.41858","5"],
    [26973,"HCEP03730566","2024-07-05 05:45:00","9.8377","3.24485","26.654","4.079","7.54","0.243","6.377","0.01","0.17","29.4132","4.65709","43.45","0","SATNPRO1509","29.998","0.42018","5"],
    [26974,"HCEP03730566","2024-07-05 06:00:00","9.8355","3.24456","26.447","4.108","7.54","0.17","10.984","0.01","0.1","29.4121","4.65696","43.77","0","SATNPRO1509","30.022","0.42054","5"],
    [26975,"HCEP03730566","2024-07-05 06:15:00","9.835","3.24434","26.237","4.049","7.54","0.145","19.356","0.02","0.08","29.4104","4.65672","43.13","0","SATNPRO1509","29.822","0.41774","5"],
    [26976,"HCEP03730566","2024-07-05 06:30:00","9.8317","3.24407","26.001","3.981","7.53","0.135","33.266","0.01","0.24","29.4106","4.65678","42.41","0","SATNPRO1509","29.368","0.41136","5"],
    [26977,"HCEP03730566","2024-07-05 06:45:00","9.8329","3.24413","25.783","3.922","7.53","0.166","53.568","0.03","0.13","29.4102","4.6567","41.78","0","SATNPRO1509","30.174","0.42264","5"],
    [26978,"HCEP03730566","2024-07-05 07:00:00","9.8334","3.24418","25.517","3.926","7.53","0.21","77.162","0.07","0.16","29.4105","4.65671","41.82","0","SATNPRO1509","29.548","0.41388","5"],
    [26979,"HCEP03730566","2024-07-05 07:15:00","9.8328","3.24428","25.299","3.943","7.53","0.269","104.592","0.06","0.28","29.412","4.65693","42","0","SATNPRO1509","29.514","0.41338","5"],
    [26980,"HCEP03730566","2024-07-05 07:30:00","9.8314","3.2448","25.108","3.909","7.53","0.75","122.12","1.25","0.28","29.4185","4.65787","41.64","0","SATNPRO1509","29.09","0.40744","5"],
    [26981,"HCEP03730566","2024-07-05 07:45:00","9.8311","3.24525","24.835","3.868","7.53","0.471","128.475","0.05","0.25","29.4234","4.65856","41.2","0","SATNPRO1509","29.186","0.40876","5"],
    [26982,"HCEP03730566","2024-07-05 08:00:00","9.8309","3.24593","24.59","3.886","7.53","0.655","128.467","0.25","0.32","29.4304","4.65955","41.4","0","SATNPRO1509","29.216","0.40922","5"],
    [26983,"HCEP03730566","2024-07-05 08:15:00","9.8298","3.24615","24.385","3.911","7.53","0.614","126.721","0.15","0.23","29.4336","4.66001","41.66","0","SATNPRO1509","29.288","0.41022","5"],
    [26984,"HCEP03730566","2024-07-05 08:30:00","9.8295","3.24611","24.161","3.925","7.53","0.614","123.543","0.13","0.15","29.4335","4.66","41.82","0","SATNPRO1509","29.176000000000002","0.40866","5"],
    [26985,"HCEP03730566","2024-07-05 08:45:00","9.829","3.24597","23.996","3.934","7.53","0.62","123.925","0.12","0.11","29.4326","4.65987","41.91","0","SATNPRO1509","29.224","0.40934","5"],
    [26986,"HCEP03730566","2024-07-05 09:00:00","9.8289","3.24597","23.823","3.931","7.53","0.579","118.052","0.12","0.03","29.4328","4.65988","41.88","0","SATNPRO1509","29.248","0.4097","5"],
    [26987,"HCEP03730566","2024-07-05 09:15:00","9.8288","3.24586","23.706","3.914","7.53","0.558","94.461","0.08","0.06","29.4318","4.65974","41.7","0","SATNPRO1509","29.266000000000002","0.40994","5"],
    [26988,"HCEP03730566","2024-07-05 09:30:00","9.829","3.24588","23.614","3.893","7.53","0.534","60.639","0.12","0","29.4318","4.65973","41.47","0","SATNPRO1509","29.194000000000003","0.40894","5"],
    [26989,"HCEP03730566","2024-07-05 09:45:00","9.829","3.24571","23.582","3.866","7.53","0.422","28.412","0.06","0.03","29.4301","4.65948","41.18","0","SATNPRO1509","29.168","0.40856","5"],
    [26990,"HCEP03730566","2024-07-05 10:00:00","9.8293","3.24501","23.568","3.87","7.53","0.394","8.063","0.09","0.01","29.4229","4.65845","41.23","0","SATNPRO1509","29.156","0.4084","5"],
    [26991,"HCEP03730566","2024-07-05 10:15:00","9.8303","3.24476","23.57","3.863","7.53","0.338","1.132","0.06","0.01","29.4196","4.65795","41.15","0","SATNPRO1509","29.408","0.41192","5"],
    [26992,"HCEP03730566","2024-07-05 10:30:00","9.8304","3.2454","23.598","3.856","7.52","0.367","0.376","0.07","0.01","29.4259","4.65887","41.08","0","SATNPRO1509","29.094","0.40754","5"],
    [26993,"HCEP03730566","2024-07-05 10:45:00","9.8302","3.24481","23.672","3.85","7.52","0.275","0.314","0.07","0.01","29.4202","4.65805","41.02","0","SATNPRO1509","29.424","0.41214","5"],
    [26994,"HCEP03730566","2024-07-05 11:00:00","9.8317","3.24432","23.768","3.868","7.52","0.244","0.303","0.05","0.02","29.414","4.65714","41.2","0","SATNPRO1509","29.288","0.41026","5"],
    [26995,"HCEP03730566","2024-07-05 11:15:00","9.8286","3.24594","23.968","3.913","7.53","0.201","0.336","0.03","0.02","29.4327","4.65989","41.68","0","SATNPRO1509","29.12","0.40786","5"],
    [26996,"HCEP03730566","2024-07-05 11:30:00","9.8286","3.24624","24.091","3.871","7.53","0.198","0.427","0.03","0.01","29.4356","4.6603","41.24","0","SATNPRO1509","28.98","0.4059","5"],
    [26997,"HCEP03730566","2024-07-05 11:45:00","9.8284","3.24589","24.315","3.863","7.53","0.179","0.51","0.03","0.02","29.4322","4.65983","41.15","0","SATNPRO1509","29.324","0.4107","5"],
    [26998,"HCEP03730566","2024-07-05 12:00:00","9.8282","3.24533","24.493","3.899","7.53","0.173","0.621","0.02","0.02","29.4267","4.65906","41.53","0","SATNPRO1509","29.44","0.41234","5"],
    [26999,"HCEP03730566","2024-07-05 12:15:00","9.8293","3.24465","24.658","3.921","7.54","0.169","0.578","0.03","0.02","29.4189","4.65793","41.76","0","SATNPRO1509","29.63","0.41504","5"],
    [27000,"HCEP03730566","2024-07-05 12:30:00","9.8288","3.2447","24.805","3.932","7.54","0.206","0.733","0.05","0.05","29.4197","4.65807","41.88","0","SATNPRO1509","29.57","0.41416","5"],
    [27001,"HCEP03730566","2024-07-05 12:45:00","9.8282","3.24549","25.018","3.893","7.54","0.246","0.898","0.06","0.05","29.428","4.65928","41.47","0","SATNPRO1509","29.362","0.41128","5"],
    [27002,"HCEP03730566","2024-07-05 13:00:00","9.8298","3.24594","25.216","3.914","7.54","0.293","0.964","0.06","0.06","29.4311","4.65971","41.69","0","SATNPRO1509","29.238","0.40954","5"],
    [27003,"HCEP03730566","2024-07-05 13:15:00","9.8306","3.24825","25.412","3.928","7.54","0.375","1.333","0.07","0.06","29.4536","4.66293","41.85","0","SATNPRO1509","29.164","0.40848","5"],
    [27004,"HCEP03730566","2024-07-05 13:30:00","9.8321","3.24879","25.618","4.011","7.55","0.426","1.476","0.09","0.18","29.4578","4.6635","42.74","0","SATNPRO1509","29.342","0.41098","5"],
    [27005,"HCEP03730566","2024-07-05 13:45:00","9.8323","3.24902","25.857","4.075","7.55","0.468","1.597","0.08","0.13","29.4598","4.6638","43.42","0","SATNPRO1509","29.402","0.41182","5"],
    [27006,"HCEP03730566","2024-07-05 14:00:00","9.8329","3.24929","26.08","4.102","7.55","0.536","1.911","0.08","0.1","29.4619","4.66411","43.71","0","SATNPRO1509","29.476","0.41286","5"],
    [27007,"HCEP03730566","2024-07-05 14:15:00","9.8335","3.24961","26.318","4.124","7.55","0.594","1.999","0.09","0.16","29.4645","4.66448","43.94","0","SATNPRO1509","29.464","0.41272","5"],
    [27008,"HCEP03730566","2024-07-05 14:30:00","9.8334","3.24953","26.533","4.151","7.56","0.657","2.456","0.11","0.13","29.4637","4.66439","44.23","0","SATNPRO1509","29.524","0.41354","5"],
    [27009,"HCEP03730566","2024-07-05 14:45:00","9.8333","3.24944","26.749","4.139","7.56","0.725","2.585","0.15","0.13","29.4628","4.66427","44.11","0","SATNPRO1509","29.524","0.41348","5"],
    [27010,"HCEP03730566","2024-07-05 15:00:00","9.8333","3.24936","26.947","4.13","7.56","0.754","2.824","0.13","0.19","29.462","4.66417","44.01","0","SATNPRO1509","29.528","0.41358","5"],
    [27011,"HCEP03730566","2024-07-05 15:15:00","9.8333","3.24927","27.094","4.131","7.56","0.822","2.929","0.15","0.13","29.461","4.66403","44.02","0","SATNPRO1509","29.48","0.4129","5"],
    [27012,"HCEP03730566","2024-07-05 15:30:00","9.8327","3.24905","27.29","4.117","7.56","0.838","3.092","0.16","0.16","29.4592","4.6638","43.87","0","SATNPRO1509","29.46","0.41264","5"],
    [27013,"HCEP03730566","2024-07-05 15:45:00","9.8326","3.24913","27.418","4.093","7.56","0.861","3.494","0.08","0.1","29.46","4.66392","43.61","0","SATNPRO1509","29.454","0.41256","5"],
    [27014,"HCEP03730566","2024-07-05 16:00:00","9.8326","3.2492","27.56","4.086","7.56","0.912","3.772","0.14","0.1","29.4607","4.66402","43.55","0","SATNPRO1509","29.354","0.41118","5"],
    [27015,"HCEP03730566","2024-07-05 16:15:00","9.8323","3.24905","27.713","4.078","7.56","0.928","3.615","0.15","0.17","29.4593","4.66384","43.45","0","SATNPRO1509","29.39","0.41164","5"],
    [27016,"HCEP03730566","2024-07-05 16:30:00","9.8322","3.24912","27.789","4.062","7.55","0.968","3.902","0.13","0.19","29.46","4.66395","43.28","0","SATNPRO1509","29.362000000000002","0.41128","5"],
    [27017,"HCEP03730566","2024-07-05 16:45:00","9.8323","3.24905","27.857","4.051","7.55","1.034","4.211","0.25","0.13","29.4592","4.66384","43.17","0","SATNPRO1509","29.3","0.4104","5"],
    [27018,"HCEP03730566","2024-07-05 17:00:00","9.8318","3.24906","27.889","4.04","7.55","1.035","4.32","0.26","0.17","29.4597","4.66392","43.05","0","SATNPRO1509","29.288","0.41022","5"],
    [27019,"HCEP03730566","2024-07-05 17:15:00","9.8316","3.24925","27.88","4.042","7.55","1.03","4.263","0.12","0.19","29.4618","4.66423","43.07","0","SATNPRO1509","29.247999999999998","0.40966","5"],
    [27020,"HCEP03730566","2024-07-05 17:30:00","9.8311","3.24895","27.901","4.058","7.55","1.063","3.995","0.17","0.28","29.4592","4.66386","43.24","0","SATNPRO1509","29.466","0.41272","5"],
    [27021,"HCEP03730566","2024-07-05 17:45:00","9.83","3.24856","27.893","4.063","7.55","1.013","3.583","0.12","0.13","29.4562","4.66345","43.29","0","SATNPRO1509","29.392","0.4117","5"],
    [27022,"HCEP03730566","2024-07-05 18:00:00","9.832","3.24927","27.912","4.094","7.56","1.113","3.958","0.49","0.17","29.4617","4.6642","43.62","0","SATNPRO1509","29.478","0.41292","5"],
    [27023,"HCEP03730566","2024-07-05 18:15:00","9.8315","3.24887","27.907","4.11","7.56","1.063","3.666","0.25","0.19","29.4581","4.6637","43.8","0","SATNPRO1509","29.564","0.4141","5"],
    [27024,"HCEP03730566","2024-07-05 18:30:00","9.8322","3.24938","27.901","4.094","7.55","1.015","4.172","0.2","0.36","29.4626","4.66433","43.63","0","SATNPRO1509","29.56","0.41404","5"],
    [27025,"HCEP03730566","2024-07-05 18:45:00","9.8326","3.24944","27.879","4.111","7.56","1.169","4.516","0.23","0.45","29.463","4.66437","43.81","0","SATNPRO1509","29.554","0.41396","5"],
    [27026,"HCEP03730566","2024-07-05 19:00:00","9.8328","3.24928","27.818","4.13","7.55","1.051","3.612","0.41","0.82","29.4613","4.66412","44.01","0","SATNPRO1509","29.824","0.41772","5"],
    [27027,"HCEP03730566","2024-07-05 19:15:00","9.8328","3.24925","27.783","4.149","7.55","0.979","3.288","0.25","0.18","29.4609","4.66407","44.21","0","SATNPRO1509","29.644000000000002","0.41522","5"],
    [27028,"HCEP03730566","2024-07-05 19:30:00","9.8327","3.24919","27.724","4.157","7.55","0.989","2.982","0.38","0.13","29.4604","4.66399","44.3","0","SATNPRO1509","29.886","0.4186","5"],
    [27029,"HCEP03730566","2024-07-05 19:45:00","9.8326","3.24922","27.686","4.153","7.55","0.945","3.44","0.14","0.24","29.4609","4.66406","44.25","0","SATNPRO1509","29.654","0.41534","5"],
    [27030,"HCEP03730566","2024-07-05 20:00:00","9.8326","3.24917","27.617","4.137","7.55","0.999","3.304","0.29","0.19","29.4603","4.66397","44.08","0","SATNPRO1509","29.65","0.41532","5"],
    [27031,"HCEP03730566","2024-07-05 20:15:00","9.8323","3.24903","27.53","4.139","7.55","0.911","3.258","0.16","0.38","29.4592","4.66382","44.1","0","SATNPRO1509","29.832","0.41784","5"],
    [27032,"HCEP03730566","2024-07-05 20:30:00","9.8324","3.24911","27.439","4.147","7.55","0.814","2.741","0.16","0.12","29.4599","4.66391","44.19","0","SATNPRO1509","29.832","0.41784","5"],
    [27033,"HCEP03730566","2024-07-05 20:45:00","9.8304","3.24794","27.341","4.148","7.55","0.89","2.306","0.38","0.12","29.45","4.66252","44.2","0","SATNPRO1509","29.996","0.42014","5"],
    [27034,"HCEP03730566","2024-07-05 21:00:00","9.832","3.24888","27.275","4.148","7.55","0.879","2.887","0.19","0.1","29.4581","4.66365","44.2","0","SATNPRO1509","29.82","0.41768","5"],
    [27035,"HCEP03730566","2024-07-05 21:15:00","9.8325","3.2492","27.19","4.124","7.55","1.323","5.903","0.23","0.4","29.4609","4.66403","43.94","0","SATNPRO1509","29.506","0.4133","5"],
    [27036,"HCEP03730566","2024-07-05 21:30:00","9.8322","3.24904","27.122","4.097","7.55","0.956","3.406","0.39","0.16","29.4595","4.66384","43.65","0","SATNPRO1509","29.536","0.4137","5"],
    [27037,"HCEP03730566","2024-07-05 21:45:00","9.8312","3.24829","27.037","4.083","7.55","0.924","3.29","0.28","0.51","29.4529","4.6629","43.5","0","SATNPRO1509","29.484","0.41298","5"],
    [27038,"HCEP03730566","2024-07-05 22:00:00","9.8316","3.24871","26.968","4.052","7.54","0.967","3.766","0.21","0.21","29.4569","4.66346","43.17","0","SATNPRO1509","29.342000000000002","0.41096","5"],
    [27039,"HCEP03730566","2024-07-05 22:15:00","9.8319","3.24905","26.904","4.021","7.55","1.028","4.236","0.26","0.26","29.4599","4.66389","42.85","0","SATNPRO1509","29.308","0.4105","5"],
    [27040,"HCEP03730566","2024-07-05 22:30:00","9.8322","3.24921","26.839","4.001","7.54","1.037","4.595","0.22","0.27","29.4613","4.66408","42.63","0","SATNPRO1509","29.236","0.4095","5"],
    [27041,"HCEP03730566","2024-07-05 22:45:00","9.8324","3.24922","26.793","3.992","7.54","1.007","4.213","0.26","0.29","29.4614","4.66408","42.54","0","SATNPRO1509","29.262","0.40986","5"],
    [27042,"HCEP03730566","2024-07-05 23:00:00","9.8325","3.24914","26.76","4","7.54","0.945","3.978","0.17","0.28","29.4604","4.66394","42.62","0","SATNPRO1509","29.291999999999998","0.4103","5"],
    [27043,"HCEP03730566","2024-07-05 23:15:00","9.8319","3.24897","26.769","4.032","7.55","0.833","3.122","0.26","0.25","29.4592","4.66378","42.96","0","SATNPRO1509","29.572","0.41422","5"],
    [27044,"HCEP03730566","2024-07-05 23:30:00","9.8314","3.24879","26.794","4.055","7.55","0.962","3.013","0.3","0.14","29.4578","4.66359","43.21","0","SATNPRO1509","29.756","0.4168","5"],
    [27045,"HCEP03730566","2024-07-05 23:45:00","9.8311","3.24857","26.817","4.06","7.55","0.729","2.519","0.16","0.24","29.4559","4.66332","43.25","0","SATNPRO1509","29.806","0.4175","5"],
    [27046,"HCEP03730566","2024-07-06 00:00:00","9.8308","3.24842","26.838","4.074","7.55","0.891","2.634","0.19","0.37","29.4546","4.66314","43.41","0","SATNPRO1509","29.896","0.41872","5"],
    [27047,"HCEP03730566","2024-07-06 00:15:00","9.8312","3.24837","26.893","4.075","7.55","0.953","2.194","0.41","0.08","29.4538","4.66302","43.42","0","SATNPRO1509","29.794","0.4173","5"],
    [27048,"HCEP03730566","2024-07-06 00:30:00","9.8309","3.24837","26.943","4.089","7.55","0.756","2.03","0.16","0.09","29.454","4.66306","43.57","0","SATNPRO1509","29.886","0.4186","5"],
    [27049,"HCEP03730566","2024-07-06 00:45:00","9.8309","3.24839","26.987","4.098","7.55","0.731","2.293","0.16","0.08","29.4541","4.66308","43.66","0","SATNPRO1509","29.768","0.41694","5"],
    [27050,"HCEP03730566","2024-07-06 01:00:00","9.8313","3.24851","27.058","4.084","7.55","0.862","2.462","0.24","0.08","29.455","4.66321","43.51","0","SATNPRO1509","29.704","0.41604","5"],
    [27051,"HCEP03730566","2024-07-06 01:15:00","9.8314","3.24862","27.091","4.087","7.55","0.834","2.636","0.3","0.29","29.456","4.66335","43.55","0","SATNPRO1509","29.804","0.41748","5"],
    [27052,"HCEP03730566","2024-07-06 01:30:00","9.8317","3.24866","27.165","4.095","7.55","0.896","2.794","0.36","0.33","29.4561","4.66336","43.63","0","SATNPRO1509","29.678","0.41572","5"],
    [27053,"HCEP03730566","2024-07-06 01:45:00","9.8321","3.24859","27.234","4.067","7.55","0.847","3.244","0.2","0.24","29.455","4.6632","43.34","0","SATNPRO1509","29.404","0.41188","5"],
    [27054,"HCEP03730566","2024-07-06 02:00:00","9.8326","3.24839","27.299","4.002","7.55","0.85","3.152","0.19","0.17","29.4526","4.66285","42.65","0","SATNPRO1509","29.198","0.40898","5"],
    [27055,"HCEP03730566","2024-07-06 02:15:00","9.8328","3.24814","27.354","3.919","7.55","1.019","3.506","0.21","0.26","29.45","4.66248","41.76","0","SATNPRO1509","29.012","0.40638","5"],
    [27056,"HCEP03730566","2024-07-06 02:30:00","9.8324","3.24831","27.424","3.855","7.54","0.974","4.067","0.24","0.51","29.452","4.66277","41.08","0","SATNPRO1509","28.86","0.4042","5"],
    [27057,"HCEP03730566","2024-07-06 02:45:00","9.8324","3.24834","27.476","3.811","7.53","1.294","7.806","0.23","0.49","29.4522","4.66282","40.61","0","SATNPRO1509","28.774","0.40304","5"],
    [27058,"HCEP03730566","2024-07-06 03:00:00","9.8335","3.24804","27.531","3.777","7.53","1.126","4.83","0.28","0.27","29.4482","4.66223","40.25","0","SATNPRO1509","28.722","0.40232","5"],
    [27059,"HCEP03730566","2024-07-06 03:15:00","9.8344","3.24782","27.583","3.74","7.52","2.432","5.171","5.33","0.58","29.4453","4.6618","39.85","0","SATNPRO1509","28.69","0.40182","5"],
    [27060,"HCEP03730566","2024-07-06 03:30:00","9.8356","3.2471","27.615","3.721","7.52","1.263","6.114","0.8","0.23","29.4371","4.66061","39.64","0","SATNPRO1509","28.68","0.4017","5"],
    [27061,"HCEP03730566","2024-07-06 03:45:00","9.8376","3.24632","27.633","3.686","7.52","1.563","7.722","2.62","0.21","29.4277","4.65922","39.27","0","SATNPRO1509","28.482","0.3989","5"],
    [27062,"HCEP03730566","2024-07-06 04:00:00","9.8376","3.24606","27.644","3.642","7.52","1.203","12.008","0.36","0.29","29.4251","4.65885","38.81","0","SATNPRO1509","28.526","0.39954","5"],
    [27063,"HCEP03730566","2024-07-06 04:15:00","9.8356","3.24671","27.622","3.605","7.52","1.734","17.777","0.45","8.88","29.4332","4.66004","38.4","0","SATNPRO1509","28.492","0.39908","5"],
    [27064,"HCEP03730566","2024-07-06 04:30:00","9.8373","3.24572","27.546","3.585","7.51","1.181","14.329","0.32","0.18","29.4219","4.65839","38.19","0","SATNPRO1509","28.388","0.39762","5"],
    [27065,"HCEP03730566","2024-07-06 04:45:00","9.8387","3.24583","27.501","3.565","7.51","1.208","20.012","0.37","0.2","29.4219","4.65837","37.98","0","SATNPRO1509","28.288","0.39622","5"],
    [27066,"HCEP03730566","2024-07-06 05:00:00","9.8402","3.24623","27.44","3.538","7.51","1.345","23.96","0.2","0.17","29.4247","4.65874","37.7","0","SATNPRO1509","28.232","0.39544","5"],
    [27067,"HCEP03730566","2024-07-06 05:15:00","9.8427","3.24683","27.364","3.542","7.51","1.679","28.48","0.29","0.3","29.4287","4.65927","37.75","0","SATNPRO1509","28.233999999999998","0.3955","5"],
    [27068,"HCEP03730566","2024-07-06 05:30:00","9.8431","3.24703","27.26","3.588","7.51","2.305","32.384","0.51","0.28","29.4304","4.6595","38.23","0","SATNPRO1509","28.25","0.39574","5"],
    [27069,"HCEP03730566","2024-07-06 05:45:00","9.8423","3.24724","27.14","3.629","7.51","1.74","34.611","0.22","0.17","29.4332","4.6599","38.67","0","SATNPRO1509","28.445999999999998","0.39842","5"],
    [27070,"HCEP03730566","2024-07-06 06:00:00","9.844","3.24757","26.985","3.69","7.52","1.56","36.709","0.24","0.19","29.4352","4.66015","39.32","0","SATNPRO1509","28.764","0.4029","5"],
    [27071,"HCEP03730566","2024-07-06 06:15:00","9.8445","3.24774","26.835","3.787","7.52","1.526","32.695","0.3","0.14","29.4365","4.66032","40.36","0","SATNPRO1509","28.932","0.40526","5"],
    [27072,"HCEP03730566","2024-07-06 06:30:00","9.8442","3.24786","26.642","3.829","7.52","1.547","29.689","0.46","0.12","29.4381","4.66054","40.81","0","SATNPRO1509","28.962","0.40566","5"],
    [27073,"HCEP03730566","2024-07-06 06:45:00","9.8434","3.24764","26.452","3.831","7.53","1.107","26.799","0.17","0.1","29.4367","4.66035","40.83","0","SATNPRO1509","28.708","0.4021","5"],
    [27074,"HCEP03730566","2024-07-06 07:00:00","9.8434","3.2476","26.243","3.768","7.52","1.335","24.754","0.23","0.15","29.4363","4.66028","40.16","0","SATNPRO1509","28.695999999999998","0.40192","5"],
    [27075,"HCEP03730566","2024-07-06 07:15:00","9.8434","3.24766","26.017","3.744","7.52","1.215","24.122","0.07","0.22","29.4369","4.66035","39.9","0","SATNPRO1509","28.71","0.40214","5"],
    [27076,"HCEP03730566","2024-07-06 07:30:00","9.8432","3.24761","25.796","3.753","7.52","1.143","23.74","0.31","0.12","29.4367","4.66031","39.99","0","SATNPRO1509","28.774","0.40302","5"],
    [27077,"HCEP03730566","2024-07-06 07:45:00","9.8429","3.2475","25.565","3.745","7.52","1.244","23.864","0.19","0.16","29.436","4.6602","39.91","0","SATNPRO1509","28.584","0.40038","5"],
    [27078,"HCEP03730566","2024-07-06 08:00:00","9.8423","3.24734","25.332","3.713","7.52","1.188","24.422","0.27","0.19","29.4349","4.66004","39.57","0","SATNPRO1509","28.598","0.40056","5"],
    [27079,"HCEP03730566","2024-07-06 08:15:00","9.8427","3.24728","25.112","3.679","7.52","1.301","25.022","0.52","0.3","29.4341","4.65991","39.2","0","SATNPRO1509","28.608","0.40072","5"],
    [27080,"HCEP03730566","2024-07-06 08:30:00","9.8419","3.24712","24.922","3.65","7.52","1.137","24.576","0.23","0.24","29.4333","4.65979","38.9","0","SATNPRO1509","28.381999999999998","0.39756","5"],
    [27081,"HCEP03730566","2024-07-06 08:45:00","9.8415","3.247","24.698","3.623","7.51","1.124","23.67","0.23","0.16","29.4325","4.65968","38.61","0","SATNPRO1509","28.328","0.39682","5"],
    [27082,"HCEP03730566","2024-07-06 09:00:00","9.841","3.24678","24.475","3.596","7.51","1.333","22.938","0.33","0.26","29.4307","4.65942","38.32","0","SATNPRO1509","28.262","0.39588","5"],
    [27083,"HCEP03730566","2024-07-06 09:15:00","9.8417","3.24663","24.264","3.559","7.51","1.057","21.63","0.22","0.16","29.4288","4.65912","37.93","0","SATNPRO1509","28.262","0.39584","5"],
    [27084,"HCEP03730566","2024-07-06 09:30:00","9.8442","3.24634","24.064","3.555","7.51","1.255","18.017","0.4","0.49","29.4238","4.65835","37.88","0","SATNPRO1509","28.503999999999998","0.39924","5"],
    [27085,"HCEP03730566","2024-07-06 09:45:00","9.8481","3.24648","23.862","3.603","7.51","0.959","15.451","0.18","0.2","29.4222","4.65804","38.4","0","SATNPRO1509","28.992","0.40608","5"],
    [27086,"HCEP03730566","2024-07-06 10:00:00","9.849","3.24649","23.755","3.655","7.51","1.122","20.064","0.27","0.34","29.4216","4.65794","38.95","0","SATNPRO1509","28.82","0.40368","5"],
    [27087,"HCEP03730566","2024-07-06 10:15:00","9.8434","3.24679","23.659","3.618","7.51","0.958","25.214","0.17","0.16","29.4292","4.65911","38.56","0","SATNPRO1509","28.702","0.40202","5"],
    [27088,"HCEP03730566","2024-07-06 10:30:00","9.8426","3.24665","23.6","3.558","7.51","1.099","25.383","0.26","0.06","29.4285","4.65902","37.92","0","SATNPRO1509","28.55","0.3999","5"],
    [27089,"HCEP03730566","2024-07-06 10:45:00","9.8415","3.24673","23.591","3.551","7.51","1.099","27.24","0.38","0.09","29.4302","4.65928","37.84","0","SATNPRO1509","28.264","0.39592","5"],
    [27090,"HCEP03730566","2024-07-06 11:00:00","9.8463","3.2466","23.609","3.56","7.51","1.049","29.094","0.35","0.1","29.425","4.65846","37.93","0","SATNPRO1509","28.848","0.40408","5"],
    [27091,"HCEP03730566","2024-07-06 11:15:00","9.8459","3.24662","23.776","3.61","7.51","0.95","29.898","0.12","0.28","29.4254","4.65854","38.47","0","SATNPRO1509","28.754","0.40274","5"],
    [27092,"HCEP03730566","2024-07-06 11:30:00","9.8423","3.24681","23.813","3.588","7.51","0.952","28.957","0.13","0.2","29.4302","4.65928","38.24","0","SATNPRO1509","28.306","0.39652","5"],
    [27093,"HCEP03730566","2024-07-06 11:45:00","9.8421","3.24689","23.93","3.548","7.51","1.076","27.112","0.25","0.11","29.4311","4.65942","37.8","0","SATNPRO1509","28.294","0.3963","5"],
    [27094,"HCEP03730566","2024-07-06 12:00:00","9.839","3.24704","24.079","3.483","7.5","1.764","26.976","0.46","0.27","29.4352","4.66006","37.11","0","SATNPRO1509","27.84","0.38992","5"],
    [27095,"HCEP03730566","2024-07-06 12:15:00","9.8409","3.24689","24.185","3.426","7.5","1.062","22.869","0.14","0.34","29.432","4.65959","36.51","0","SATNPRO1509","28.144000000000002","0.39422","5"],
    [27096,"HCEP03730566","2024-07-06 12:30:00","9.8388","3.24632","24.319","3.431","7.5","1.164","25.483","0.14","0.24","29.428","4.65906","36.55","0","SATNPRO1509","28.052","0.39294","5"],
    [27097,"HCEP03730566","2024-07-06 12:45:00","9.8373","3.24626","24.53","3.328","7.5","1.153","27.228","0.13","0.12","29.4285","4.65917","35.46","0","SATNPRO1509","27.75","0.3887","5"],
    [27098,"HCEP03730566","2024-07-06 13:00:00","9.8373","3.24605","24.73","3.32","7.49","1.094","28.823","0.15","0.17","29.4264","4.65887","35.38","0","SATNPRO1509","27.916","0.391","5"],
    [27099,"HCEP03730566","2024-07-06 13:15:00","9.8376","3.24594","24.903","3.36","7.49","1.157","29.697","0.21","0.06","29.425","4.65868","35.8","0","SATNPRO1509","28.073999999999998","0.3932","5"],
    [27100,"HCEP03730566","2024-07-06 13:30:00","9.8374","3.2463","25.086","3.333","7.49","1.453","28.319","0.2","0.16","29.4287","4.65922","35.51","0","SATNPRO1509","28.002000000000002","0.39224","5"],
    [27101,"HCEP03730566","2024-07-06 13:45:00","9.8372","3.24635","25.292","3.19","7.49","1.618","28.296","0.4","0.19","29.4293","4.65933","33.99","0","SATNPRO1509","27.676","0.38762","5"],
    [27102,"HCEP03730566","2024-07-06 14:00:00","9.8373","3.24616","25.496","3.236","7.49","1.351","24.59","0.2","0.11","29.4271","4.65903","34.48","0","SATNPRO1509","28.166","0.3945","5"],
    [27103,"HCEP03730566","2024-07-06 14:15:00","9.8364","3.24637","25.706","3.279","7.49","1.628","22.091","0.2","0.21","29.43","4.65946","34.93","0","SATNPRO1509","27.552","0.38588","5"],
    [27104,"HCEP03730566","2024-07-06 14:30:00","9.8348","3.2466","25.913","3.3","7.49","1.511","14.431","0.22","0.26","29.4335","4.66","35.16","0","SATNPRO1509","27.862","0.39026","5"],
    [27105,"HCEP03730566","2024-07-06 14:45:00","9.8358","3.24635","26.151","3.363","7.49","1.256","9.772","0.15","0.09","29.43","4.6595","35.83","0","SATNPRO1509","28.099999999999998","0.39356","5"],
    [27106,"HCEP03730566","2024-07-06 15:00:00","9.835","3.2466","26.38","3.381","7.5","1.499","6.921","0.19","0.14","29.4331","4.65997","36.02","0","SATNPRO1509","28.134","0.39406","5"],
    [27107,"HCEP03730566","2024-07-06 15:15:00","9.8341","3.24677","26.615","3.375","7.5","1.74","5.589","0.47","0.21","29.4354","4.66033","35.96","0","SATNPRO1509","27.976","0.39182","5"],
    [27108,"HCEP03730566","2024-07-06 15:30:00","9.8344","3.24654","26.805","3.384","7.5","1.295","4.423","0.11","0.1","29.4328","4.65995","36.05","0","SATNPRO1509","28.31","0.39656","5"],
    [27109,"HCEP03730566","2024-07-06 15:45:00","9.835","3.24615","27","3.422","7.5","1.266","3.666","0.15","0.12","29.4283","4.65931","36.45","0","SATNPRO1509","28.39","0.39766","5"],
    [27110,"HCEP03730566","2024-07-06 16:00:00","9.8349","3.24609","27.149","3.448","7.5","1.355","3.517","0.14","0.1","29.4278","4.65926","36.74","0","SATNPRO1509","28.438","0.39834","5"],
    [27111,"HCEP03730566","2024-07-06 16:15:00","9.8347","3.24628","27.336","3.448","7.5","1.445","3.494","0.24","0.18","29.4297","4.65954","36.73","0","SATNPRO1509","28.206","0.39508","5"],
    [27112,"HCEP03730566","2024-07-06 16:30:00","9.834","3.24656","27.479","3.424","7.5","1.441","3.574","0.31","0.19","29.4331","4.66005","36.48","0","SATNPRO1509","28.182","0.3947","5"],
    [27113,"HCEP03730566","2024-07-06 16:45:00","9.833","3.24681","27.601","3.404","7.5","1.431","3.348","0.17","0.09","29.4363","4.66053","36.26","0","SATNPRO1509","28.268","0.39598","5"],
    [27114,"HCEP03730566","2024-07-06 17:00:00","9.8318","3.24692","27.742","3.435","7.5","1.363","3.315","0.19","0.17","29.4384","4.66085","36.6","0","SATNPRO1509","28.368000000000002","0.39738","5"],
    [27115,"HCEP03730566","2024-07-06 17:15:00","9.8308","3.24692","27.848","3.498","7.5","1.487","3.077","0.21","0.12","29.4392","4.661","37.26","0","SATNPRO1509","28.68","0.40166","5"],
    [27116,"HCEP03730566","2024-07-06 17:30:00","9.8293","3.24673","27.9","3.576","7.5","1.415","2.924","0.22","0.13","29.4385","4.66093","38.1","0","SATNPRO1509","29.002","0.40624","5"],
    [27117,"HCEP03730566","2024-07-06 17:45:00","9.8265","3.2462","27.907","3.662","7.51","1.622","2.761","0.29","0.31","29.4354","4.66053","39.01","0","SATNPRO1509","29.236","0.40948","5"],
    [27118,"HCEP03730566","2024-07-06 18:00:00","9.8244","3.24594","27.931","3.664","7.52","1.607","3.034","0.22","0.21","29.4344","4.66043","39.03","0","SATNPRO1509","29.134","0.40802","5"],
    [27119,"HCEP03730566","2024-07-06 18:15:00","9.8234","3.24569","27.927","3.623","7.52","1.63","3.346","0.26","0.32","29.4328","4.66021","38.59","0","SATNPRO1509","29.216","0.4092","5"],
    [27120,"HCEP03730566","2024-07-06 18:30:00","9.8205","3.24532","27.933","3.572","7.51","1.58","3.453","0.16","0.19","29.4315","4.66008","38.04","0","SATNPRO1509","28.958","0.4056","5"],
    [27121,"HCEP03730566","2024-07-06 18:45:00","9.8201","3.24525","27.933","3.51","7.51","1.6","3.715","0.27","0.25","29.4311","4.66003","37.39","0","SATNPRO1509","28.84","0.40398","5"],
    [27122,"HCEP03730566","2024-07-06 19:00:00","9.8177","3.24478","27.936","3.453","7.5","1.392","3.628","0.22","1.04","29.4283","4.65966","36.78","0","SATNPRO1509","28.652","0.40132","5"],
    [27123,"HCEP03730566","2024-07-06 19:15:00","9.817","3.24471","27.923","3.394","7.5","1.519","3.545","0.3","0.35","29.4282","4.65966","36.15","0","SATNPRO1509","28.64","0.40118","5"],
    [27124,"HCEP03730566","2024-07-06 19:30:00","9.8132","3.24409","27.912","3.334","7.49","1.321","3.124","0.18","0.19","29.4251","4.65929","35.51","0","SATNPRO1509","28.858","0.40418","5"],
    [27125,"HCEP03730566","2024-07-06 19:45:00","9.8089","3.24336","27.856","3.327","7.49","1.216","2.337","0.56","0.1","29.4213","4.65881","35.42","0","SATNPRO1509","29.22","0.40928","5"],
    [27126,"HCEP03730566","2024-07-06 20:00:00","9.8072","3.24266","27.76","3.314","7.49","0.978","2.525","0.13","0.21","29.4157","4.65803","35.28","0","SATNPRO1509","29.227999999999998","0.40938","5"],
    [27127,"HCEP03730566","2024-07-06 20:15:00","9.8096","3.24305","27.757","3.289","7.48","0.999","2.67","0.18","0.45","29.4177","4.65828","35.02","0","SATNPRO1509","29.244","0.40962","5"],
    [27128,"HCEP03730566","2024-07-06 20:30:00","9.8092","3.24247","27.678","3.291","7.48","1.068","2.254","0.22","0.15","29.4121","4.65749","35.04","0","SATNPRO1509","29.284","0.41014","5"],
    [27129,"HCEP03730566","2024-07-06 20:45:00","9.8112","3.2435","27.586","3.313","7.48","0.964","2.115","0.2","0.09","29.4209","4.65871","35.28","0","SATNPRO1509","29.034","0.40668","5"],
    [27130,"HCEP03730566","2024-07-06 21:00:00","9.8166","3.24472","27.529","3.328","7.48","1.218","3.086","0.25","0.18","29.4288","4.65973","35.44","0","SATNPRO1509","28.62","0.40086","5"],
    [27131,"HCEP03730566","2024-07-06 21:15:00","9.8189","3.24508","27.45","3.354","7.48","1.167","3.403","0.27","0.34","29.4306","4.65995","35.72","0","SATNPRO1509","28.662","0.40142","5"],
    [27132,"HCEP03730566","2024-07-06 21:30:00","9.8209","3.24526","27.368","3.393","7.49","1.456","3.716","0.38","0.18","29.4308","4.65993","36.14","0","SATNPRO1509","28.692","0.40192","5"],
    [27133,"HCEP03730566","2024-07-06 21:45:00","9.8226","3.24546","27.28","3.422","7.49","1.659","3.78","0.55","0.26","29.4314","4.65999","36.45","0","SATNPRO1509","28.605999999999998","0.40066","5"],
    [27134,"HCEP03730566","2024-07-06 22:00:00","9.8239","3.24564","27.179","3.421","7.49","1.341","4.024","0.28","0.27","29.4322","4.66008","36.44","0","SATNPRO1509","28.468","0.39874","5"],
    [27135,"HCEP03730566","2024-07-06 22:15:00","9.8258","3.2459","27.071","3.422","7.49","1.377","3.854","0.4","0.37","29.4333","4.6602","36.45","0","SATNPRO1509","28.582","0.40034","5"],
    [27136,"HCEP03730566","2024-07-06 22:30:00","9.8257","3.24588","26.996","3.435","7.49","1.712","3.806","0.42","0.43","29.4333","4.66019","36.59","0","SATNPRO1509","28.541999999999998","0.3998","5"],
    [27137,"HCEP03730566","2024-07-06 22:45:00","9.8242","3.2456","26.905","3.435","7.5","1.531","3.72","0.35","0.19","29.4316","4.65997","36.59","0","SATNPRO1509","28.608","0.40074","5"],
    [27138,"HCEP03730566","2024-07-06 23:00:00","9.8217","3.24528","26.836","3.401","7.49","1.324","3.827","0.23","0.47","29.4305","4.65984","36.23","0","SATNPRO1509","28.592","0.40046","5"],
    [27139,"HCEP03730566","2024-07-06 23:15:00","9.8242","3.24539","26.764","3.397","7.49","1.212","3.253","0.21","0.13","29.4296","4.65968","36.19","0","SATNPRO1509","28.648","0.40126","5"],
    [27140,"HCEP03730566","2024-07-06 23:30:00","9.8218","3.2452","26.728","3.399","7.49","1.39","3.319","0.28","0.25","29.4296","4.65972","36.21","0","SATNPRO1509","28.605999999999998","0.40064","5"],
    [27141,"HCEP03730566","2024-07-06 23:45:00","9.8224","3.24532","26.715","3.347","7.49","1.726","3.334","1.2","0.41","29.4304","4.65982","35.65","0","SATNPRO1509","28.662000000000003","0.40146","5"],
    [27142,"HCEP03730566","2024-07-07 00:00:00","9.8217","3.24527","26.708","3.328","7.48","1.647","3.428","0.57","0.29","29.4304","4.65983","35.44","0","SATNPRO1509","28.532","0.39964","5"],
    [27143,"HCEP03730566","2024-07-07 00:15:00","9.8212","3.24517","26.707","3.307","7.48","1.447","3.049","0.28","0.16","29.4298","4.65976","35.22","0","SATNPRO1509","28.488","0.39906","5"],
    [27144,"HCEP03730566","2024-07-07 00:30:00","9.8202","3.24497","26.745","3.282","7.48","1.578","3.255","0.54","0.66","29.4287","4.65961","34.96","0","SATNPRO1509","28.446","0.39844","5"],
    [27145,"HCEP03730566","2024-07-07 00:45:00","9.8183","3.2447","26.766","3.252","7.48","1.3","2.758","0.23","0.13","29.4275","4.65947","34.64","0","SATNPRO1509","28.5","0.39918","5"],
    [27146,"HCEP03730566","2024-07-07 01:00:00","9.8184","3.2447","26.804","3.236","7.48","1.16","2.722","0.21","0.15","29.4274","4.65947","34.47","0","SATNPRO1509","28.294","0.39634","5"],
    [27147,"HCEP03730566","2024-07-07 01:15:00","9.8196","3.24491","26.866","3.218","7.48","1.227","3.221","0.23","0.39","29.4286","4.65961","34.28","0","SATNPRO1509","28.3","0.39638","5"],
    [27148,"HCEP03730566","2024-07-07 01:30:00","9.8203","3.24503","26.933","3.245","7.48","1.405","3.171","0.51","0.51","29.4291","4.65968","34.57","0","SATNPRO1509","28.486","0.39898","5"],
    [27149,"HCEP03730566","2024-07-07 01:45:00","9.8219","3.24528","26.991","3.288","7.48","1.386","3.018","0.38","0.13","29.4303","4.65982","35.02","0","SATNPRO1509","28.72","0.40228","5"],
    [27150,"HCEP03730566","2024-07-07 02:00:00","9.8247","3.24571","27.039","3.349","7.49","1.23","2.709","0.29","0.26","29.4322","4.66006","35.67","0","SATNPRO1509","28.594","0.4005","5"],
    [27151,"HCEP03730566","2024-07-07 02:15:00","9.8261","3.24595","27.112","3.388","7.49","1.29","3.358","0.29","0.24","29.4336","4.66023","36.09","0","SATNPRO1509","28.598","0.40056","5"],
    [27152,"HCEP03730566","2024-07-07 02:30:00","9.8278","3.24611","27.16","3.373","7.49","1.413","3.323","0.38","0.45","29.4337","4.66023","35.93","0","SATNPRO1509","28.509999999999998","0.39934","5"],
    [27153,"HCEP03730566","2024-07-07 02:45:00","9.829","3.24618","27.239","3.376","7.49","1.401","3.154","0.24","0.23","29.4334","4.66016","35.97","0","SATNPRO1509","28.586000000000002","0.40044","5"],
    [27154,"HCEP03730566","2024-07-07 03:00:00","9.8343","3.24354","27.312","3.415","7.49","1.404","2.792","0.39","0.25","29.4025","4.65566","36.37","0","SATNPRO1509","28.702","0.402","5"],
    [27155,"HCEP03730566","2024-07-07 03:15:00","9.83","3.2464","27.375","3.375","7.5","1.634","3.896","0.34","0.22","29.4347","4.66035","35.95","0","SATNPRO1509","28.252","0.39574","5"],
    [27156,"HCEP03730566","2024-07-07 03:30:00","9.831","3.24665","27.433","3.314","7.49","1.402","3.623","0.28","0.19","29.4364","4.66057","35.3","0","SATNPRO1509","28.279999999999998","0.39612","5"],
    [27157,"HCEP03730566","2024-07-07 03:45:00","9.8324","3.24699","27.494","3.302","7.49","1.44","3.772","0.35","0.29","29.4387","4.66088","35.18","0","SATNPRO1509","27.984","0.39198","5"],
    [27158,"HCEP03730566","2024-07-07 04:00:00","9.8343","3.24714","27.534","3.297","7.48","1.338","3.654","0.13","0.24","29.4386","4.66084","35.13","0","SATNPRO1509","28.038","0.39272","5"],
    [27159,"HCEP03730566","2024-07-07 04:15:00","9.8355","3.24718","27.575","3.314","7.48","1.352","3.568","0.59","0.21","29.438","4.66074","35.31","0","SATNPRO1509","28.172","0.3946","5"],
    [27160,"HCEP03730566","2024-07-07 04:30:00","9.8352","3.24742","27.588","3.329","7.49","1.039","3.723","0.11","0.3","29.4407","4.66112","35.47","0","SATNPRO1509","28.106","0.39366","5"],
    [27161,"HCEP03730566","2024-07-07 04:45:00","9.8352","3.24737","27.586","3.315","7.49","0.924","3.588","0.09","0.26","29.4401","4.66104","35.32","0","SATNPRO1509","28.25","0.39568","5"],
    [27162,"HCEP03730566","2024-07-07 05:00:00","9.8363","3.24747","27.58","3.31","7.49","0.804","4.046","0.05","0.25","29.4403","4.66105","35.26","0","SATNPRO1509","27.94","0.39134","5"],
    [27163,"HCEP03730566","2024-07-07 05:15:00","9.8376","3.2475","27.547","3.262","7.49","0.672","4","0.03","0.31","29.4395","4.66092","34.76","0","SATNPRO1509","27.727999999999998","0.38836","5"],
    [27164,"HCEP03730566","2024-07-07 05:30:00","9.8399","3.24742","27.509","3.258","7.49","0.561","5.065","0.02","0.32","29.4369","4.6605","34.72","0","SATNPRO1509","27.762","0.38884","5"],
    [27165,"HCEP03730566","2024-07-07 05:45:00","9.8433","3.24744","27.433","3.257","7.48","0.436","4.45","0.04","0.51","29.4343","4.66006","34.7","0","SATNPRO1509","27.858","0.39018","5"],
    [27166,"HCEP03730566","2024-07-07 06:00:00","9.8447","3.2473","27.354","3.29","7.48","0.325","6.277","0.01","0.22","29.4318","4.65968","35.06","0","SATNPRO1509","27.92","0.39104","5"],
    [27167,"HCEP03730566","2024-07-07 06:15:00","9.846","3.24733","27.27","3.336","7.49","0.242","8.884","0.01","0.19","29.4311","4.65955","35.55","0","SATNPRO1509","28.29","0.39624","5"],
    [27168,"HCEP03730566","2024-07-07 06:30:00","9.8481","3.2473","27.145","3.382","7.49","0.176","14.081","0.01","0.18","29.4291","4.65922","36.05","0","SATNPRO1509","28.412","0.39794","5"],
    [27169,"HCEP03730566","2024-07-07 06:45:00","9.8505","3.24728","27.006","3.512","7.49","0.168","23.779","0.02","0.19","29.4271","4.65888","37.43","0","SATNPRO1509","28.47","0.39874","5"],
    [27170,"HCEP03730566","2024-07-07 07:00:00","9.8499","3.24727","26.851","3.629","7.5","0.18","39.611","0.02","0.28","29.4274","4.65893","38.68","0","SATNPRO1509","28.968","0.40574","5"],
    [27171,"HCEP03730566","2024-07-07 07:15:00","9.8508","3.24725","26.674","3.667","7.51","0.254","61.201","0.05","0.2","29.4267","4.65879","39.08","0","SATNPRO1509","28.86","0.40424","5"],
    [27172,"HCEP03730566","2024-07-07 07:30:00","9.8506","3.24725","26.494","3.711","7.51","0.314","85.314","0.07","0.33","29.4268","4.65881","39.56","0","SATNPRO1509","28.784","0.40318","5"],
    [27173,"HCEP03730566","2024-07-07 07:45:00","9.8505","3.24723","26.293","3.674","7.52","0.411","109.775","0.1","0.14","29.4269","4.65881","39.15","0","SATNPRO1509","29.002","0.40624","5"],
    [27174,"HCEP03730566","2024-07-07 08:00:00","9.8507","3.2472","26.063","3.722","7.52","0.495","121.664","0.38","0.39","29.4265","4.65873","39.67","0","SATNPRO1509","29.28","0.41008","5"],
    [27175,"HCEP03730566","2024-07-07 08:15:00","9.8514","3.24717","25.849","3.789","7.52","0.419","124.783","0.06","0.11","29.4257","4.6586","40.38","0","SATNPRO1509","29.504","0.41326","5"],
    [27176,"HCEP03730566","2024-07-07 08:30:00","9.8512","3.24716","25.622","3.833","7.53","0.564","121.936","0.26","0.18","29.4258","4.65861","40.86","0","SATNPRO1509","29.46","0.41262","5"],
    [27177,"HCEP03730566","2024-07-07 08:45:00","9.8511","3.24715","25.383","3.861","7.53","0.558","118.865","0.1","0.14","29.4259","4.65861","41.15","0","SATNPRO1509","29.69","0.41582","5"],
    [27178,"HCEP03730566","2024-07-07 09:00:00","9.8507","3.24716","25.149","3.91","7.54","0.503","118.593","0.13","0.08","29.4264","4.65867","41.67","0","SATNPRO1509","29.74","0.41658","5"],
    [27179,"HCEP03730566","2024-07-07 09:15:00","9.8498","3.24713","24.96","3.828","7.54","0.711","119.899","0.61","0.08","29.4269","4.65875","40.79","0","SATNPRO1509","29.192","0.40888","5"],
    [27180,"HCEP03730566","2024-07-07 09:30:00","9.8482","3.24724","24.76","3.726","7.53","0.691","113.458","0.1","0.08","29.4294","4.65912","39.71","0","SATNPRO1509","29.426","0.41214","5"],
    [27181,"HCEP03730566","2024-07-07 09:45:00","9.847","3.24737","24.528","3.841","7.53","0.585","86.74","0.2","0.06","29.4317","4.65946","40.94","0","SATNPRO1509","29.72","0.4163","5"],
    [27182,"HCEP03730566","2024-07-07 10:00:00","9.8459","3.24728","24.21","3.906","7.54","0.509","54.836","0.24","0","29.4319","4.6595","41.63","0","SATNPRO1509","29.204","0.40904","5"],
    [27183,"HCEP03730566","2024-07-07 10:15:00","9.8459","3.24717","24.02","3.758","7.53","0.658","24.248","0.18","0.02","29.4309","4.65933","40.05","0","SATNPRO1509","28.846","0.40408","5"],
    [27184,"HCEP03730566","2024-07-07 10:30:00","9.8443","3.2472","23.902","3.611","7.52","0.691","5.922","0.51","0.02","29.4326","4.6596","38.48","0","SATNPRO1509","28.558","0.39996","5"],
    [27185,"HCEP03730566","2024-07-07 10:45:00","9.8436","3.24725","23.909","3.495","7.51","0.602","1.317","0.07","0.08","29.4336","4.65975","37.25","0","SATNPRO1509","28.324","0.39674","5"],
    [27186,"HCEP03730566","2024-07-07 11:00:00","9.8423","3.24728","23.869","3.424","7.51","0.493","0.319","0.05","0.01","29.4349","4.65997","36.49","0","SATNPRO1509","28.182","0.39474","5"],
    [27187,"HCEP03730566","2024-07-07 11:15:00","9.8416","3.24734","23.865","3.416","7.5","0.384","0.297","0.04","0.02","29.4362","4.66015","36.4","0","SATNPRO1509","28.374","0.39744","5"],
    [27188,"HCEP03730566","2024-07-07 11:30:00","9.8415","3.24735","23.816","3.426","7.5","0.326","0.3","0.04","0.01","29.4363","4.66018","36.51","0","SATNPRO1509","28.302","0.39642","5"],
    [27189,"HCEP03730566","2024-07-07 11:45:00","9.8411","3.24723","23.91","3.387","7.5","0.284","0.438","0.05","0.24","29.4355","4.66006","36.09","0","SATNPRO1509","28.172","0.39458","5"],
    [27190,"HCEP03730566","2024-07-07 12:00:00","9.8405","3.2473","23.861","3.359","7.5","0.227","0.354","0.02","0.01","29.4366","4.66023","35.8","0","SATNPRO1509","28.236","0.39552","5"],
    [27191,"HCEP03730566","2024-07-07 12:15:00","9.8394","3.24742","23.978","3.324","7.5","0.263","0.493","0.03","0.02","29.4387","4.66056","35.42","0","SATNPRO1509","27.79","0.38922","5"],
    [27192,"HCEP03730566","2024-07-07 12:30:00","9.838","3.24744","24.124","3.243","7.49","0.268","0.592","0.04","0.03","29.4399","4.66077","34.55","0","SATNPRO1509","27.872","0.39038","5"],
    [27193,"HCEP03730566","2024-07-07 12:45:00","9.8378","3.24745","24.209","3.2","7.49","0.329","0.707","0.04","0.03","29.4403","4.66082","34.1","0","SATNPRO1509","27.794","0.38934","5"],
    [27194,"HCEP03730566","2024-07-07 13:00:00","9.8379","3.24738","24.342","3.166","7.48","0.33","0.776","0.04","0.06","29.4394","4.6607","33.74","0","SATNPRO1509","27.824","0.38978","5"],
    [27195,"HCEP03730566","2024-07-07 13:15:00","9.8376","3.24735","24.511","3.199","7.48","0.389","0.775","0.13","0.05","29.4392","4.66069","34.08","0","SATNPRO1509","27.94","0.39138","5"],
    [27196,"HCEP03730566","2024-07-07 13:30:00","9.8378","3.24733","24.677","3.265","7.49","0.443","0.846","0.09","0.05","29.4388","4.66064","34.8","0","SATNPRO1509","28.178","0.39468","5"],
    [27197,"HCEP03730566","2024-07-07 13:45:00","9.838","3.24726","24.86","3.264","7.49","0.458","0.864","0.11","0.05","29.4379","4.66052","34.78","0","SATNPRO1509","28.164","0.39444","5"],
    [27198,"HCEP03730566","2024-07-07 14:00:00","9.8374","3.24725","25.052","3.298","7.49","0.614","14.23","0.12","9.22","29.4382","4.66058","35.14","0","SATNPRO1509","28.346","0.39704","5"],
    [27199,"HCEP03730566","2024-07-07 14:15:00","9.8372","3.24731","25.232","3.252","7.49","0.61","1.134","0.13","0.06","29.4389","4.66069","34.65","0","SATNPRO1509","27.95","0.39148","5"],
    [27200,"HCEP03730566","2024-07-07 14:30:00","9.8364","3.24728","25.417","3.206","7.49","0.733","1.352","0.09","0.06","29.4392","4.66076","34.16","0","SATNPRO1509","27.834","0.38984","5"],
    [27201,"HCEP03730566","2024-07-07 14:45:00","9.8359","3.24725","25.616","3.191","7.48","0.817","1.448","0.17","0.09","29.4392","4.66079","34","0","SATNPRO1509","27.888","0.3906","5"],
    [27202,"HCEP03730566","2024-07-07 15:00:00","9.8356","3.24726","25.833","3.18","7.48","1.017","1.915","0.11","0.12","29.4394","4.66083","33.89","0","SATNPRO1509","27.82","0.38966","5"],
    [27203,"HCEP03730566","2024-07-07 15:15:00","9.8352","3.24715","26.029","3.149","7.48","1.047","1.852","0.12","0.07","29.4386","4.66073","33.56","0","SATNPRO1509","27.904","0.39086","5"],
    [27204,"HCEP03730566","2024-07-07 15:30:00","9.8351","3.24711","26.274","3.179","7.48","1.117","1.953","0.12","0.07","29.4381","4.66068","33.87","0","SATNPRO1509","28.076","0.39324","5"],
    [27205,"HCEP03730566","2024-07-07 15:45:00","9.8354","3.24688","26.507","3.198","7.48","1.237","2.244","0.18","0.09","29.4356","4.66032","34.07","0","SATNPRO1509","28.184","0.39478","5"],
    [27206,"HCEP03730566","2024-07-07 16:00:00","9.8356","3.247","26.708","3.194","7.48","1.458","2.626","0.25","0.17","29.4365","4.66046","34.04","0","SATNPRO1509","27.874","0.39046","5"],
    [27207,"HCEP03730566","2024-07-07 16:15:00","9.8355","3.24678","26.881","3.16","7.48","1.313","2.779","0.11","0.11","29.4343","4.66016","33.67","0","SATNPRO1509","28.026","0.39256","5"],
    [27208,"HCEP03730566","2024-07-07 16:30:00","9.8354","3.24673","27.057","3.165","7.48","1.4","2.667","0.26","0.11","29.4338","4.6601","33.72","0","SATNPRO1509","27.964","0.39168","5"],
    [27209,"HCEP03730566","2024-07-07 16:45:00","9.8356","3.24639","27.251","3.178","7.48","1.319","2.488","0.16","0.07","29.4301","4.65958","33.86","0","SATNPRO1509","28.096","0.39354","5"],
    [27210,"HCEP03730566","2024-07-07 17:00:00","9.8348","3.24657","27.427","3.188","7.48","1.458","2.606","0.2","0.07","29.4325","4.65995","33.96","0","SATNPRO1509","27.972","0.3918","5"],
    [27211,"HCEP03730566","2024-07-07 17:15:00","9.8349","3.2467","27.595","3.143","7.48","1.471","2.978","0.14","0.1","29.4336","4.66012","33.49","0","SATNPRO1509","27.93","0.39124","5"],
    [27212,"HCEP03730566","2024-07-07 17:30:00","9.8344","3.24668","27.713","3.116","7.48","1.629","2.931","0.28","0.12","29.4338","4.66016","33.2","0","SATNPRO1509","27.81","0.38954","5"],
    [27213,"HCEP03730566","2024-07-07 17:45:00","9.8341","3.24686","27.804","3.108","7.47","1.832","3.374","0.23","0.22","29.4359","4.66047","33.12","0","SATNPRO1509","27.784","0.38918","5"],
    [27214,"HCEP03730566","2024-07-07 18:00:00","9.8332","3.2467","27.884","3.104","7.47","1.79","3.382","0.18","0.11","29.435","4.66036","33.07","0","SATNPRO1509","27.73","0.38836","5"],
    [27215,"HCEP03730566","2024-07-07 18:15:00","9.8322","3.24648","27.905","3.124","7.47","1.759","3.188","0.29","0.21","29.4335","4.66017","33.28","0","SATNPRO1509","27.978","0.39186","5"],
    [27216,"HCEP03730566","2024-07-07 18:30:00","9.8321","3.24653","27.933","3.105","7.47","1.788","3.469","0.34","0.19","29.4341","4.66025","33.08","0","SATNPRO1509","28.04","0.39274","5"],
    [27217,"HCEP03730566","2024-07-07 18:45:00","9.8289","3.24555","27.944","3.113","7.47","1.408","2.381","0.82","0.16","29.4268","4.65927","33.16","0","SATNPRO1509","28.244","0.3956","5"],
    [27218,"HCEP03730566","2024-07-07 19:00:00","9.8298","3.24609","27.96","3.118","7.47","1.532","3.025","0.21","0.14","29.4316","4.65993","33.22","0","SATNPRO1509","27.766","0.38888","5"],
    [27219,"HCEP03730566","2024-07-07 19:15:00","9.8283","3.2458","28.009","3.03","7.47","1.612","3.163","0.26","0.16","29.4298","4.65971","32.28","0","SATNPRO1509","27.71","0.38816","5"],
    [27220,"HCEP03730566","2024-07-07 19:30:00","9.8251","3.24513","27.989","2.969","7.47","1.598","3.16","0.2","0.18","29.4258","4.65918","31.63","0","SATNPRO1509","27.714000000000002","0.38818","5"],
    [27221,"HCEP03730566","2024-07-07 19:45:00","9.8248","3.24511","27.929","2.926","7.46","1.533","3.23","0.25","0.11","29.4258","4.65919","31.17","0","SATNPRO1509","27.624","0.3869","5"],
    [27222,"HCEP03730566","2024-07-07 20:00:00","9.8234","3.24491","27.848","2.883","7.46","1.64","3.523","0.21","0.13","29.425","4.6591","30.71","0","SATNPRO1509","27.534","0.38564","5"],
    [27223,"HCEP03730566","2024-07-07 20:15:00","9.821","3.24445","27.837","2.842","7.45","1.629","3.27","0.22","0.21","29.4224","4.65877","30.27","0","SATNPRO1509","27.646","0.38722","5"],
    [27224,"HCEP03730566","2024-07-07 20:30:00","9.8196","3.24426","27.733","2.813","7.45","1.413","2.96","0.22","0.18","29.4217","4.65868","29.96","0","SATNPRO1509","27.676000000000002","0.38764","5"],
    [27225,"HCEP03730566","2024-07-07 20:45:00","9.8187","3.2442","27.679","2.813","7.45","1.238","2.813","0.1","0.15","29.4218","4.6587","29.96","0","SATNPRO1509","27.844","0.39","5"],
    [27226,"HCEP03730566","2024-07-07 21:00:00","9.817","3.24277","27.622","2.884","7.45","1.059","2.22","0.17","0.35","29.4088","4.65688","30.71","0","SATNPRO1509","28.254","0.39572","5"],
    [27227,"HCEP03730566","2024-07-07 21:15:00","9.8171","3.2427","27.552","2.989","7.46","0.957","1.983","0.09","0.08","29.4081","4.65676","31.83","0","SATNPRO1509","28.494","0.39912","5"],
    [27228,"HCEP03730566","2024-07-07 21:30:00","9.8224","3.24467","27.468","2.981","7.46","1.166","2.381","0.15","0.11","29.4235","4.65888","31.75","0","SATNPRO1509","27.888","0.3906","5"],
    [27229,"HCEP03730566","2024-07-07 21:45:00","9.8257","3.24505","27.387","2.922","7.46","1.595","3.695","0.19","0.34","29.4247","4.65898","31.13","0","SATNPRO1509","27.701999999999998","0.38802","5"],
    [27230,"HCEP03730566","2024-07-07 22:00:00","9.8315","3.24672","27.286","2.909","7.46","1.547","3.564","0.24","0.2","29.4368","4.66062","31","0","SATNPRO1509","27.34","0.38298","5"],
    [27231,"HCEP03730566","2024-07-07 22:15:00","9.8321","3.24692","27.195","2.87","7.45","1.517","3.792","0.16","0.18","29.4383","4.66082","30.58","0","SATNPRO1509","27.148","0.38024","5"],
    [27232,"HCEP03730566","2024-07-07 22:30:00","9.8328","3.24712","27.128","2.87","7.45","1.649","4.007","0.22","0.26","29.4398","4.66101","30.58","0","SATNPRO1509","27.134","0.38002","5"],
    [27233,"HCEP03730566","2024-07-07 22:45:00","9.8323","3.24703","27.02","2.857","7.45","1.874","4.093","0.75","0.88","29.4394","4.66095","30.44","0","SATNPRO1509","27.201999999999998","0.381","5"],
    [27234,"HCEP03730566","2024-07-07 23:00:00","9.8316","3.24686","26.932","2.858","7.45","1.71","3.448","0.39","0.24","29.4383","4.6608","30.45","0","SATNPRO1509","27.246","0.38166","5"],
    [27235,"HCEP03730566","2024-07-07 23:15:00","9.8323","3.24699","26.825","2.839","7.45","1.466","3.969","0.28","0.17","29.439","4.66088","30.25","0","SATNPRO1509","27.092","0.37946","5"],
    [27236,"HCEP03730566","2024-07-07 23:30:00","9.8325","3.24704","26.772","2.829","7.45","1.445","3.564","0.18","0.12","29.4394","4.66094","30.14","0","SATNPRO1509","27.196","0.38092","5"],
    [27237,"HCEP03730566","2024-07-07 23:45:00","9.8328","3.24712","26.686","2.831","7.45","1.447","3.656","0.17","0.13","29.44","4.66102","30.16","0","SATNPRO1509","27.176","0.3806","5"],
    [27238,"HCEP03730566","2024-07-08 00:00:00","9.8323","3.24705","26.644","2.829","7.45","1.509","3.399","0.23","0.2","29.4397","4.66097","30.14","0","SATNPRO1509","27.114","0.37978","5"],
    [27239,"HCEP03730566","2024-07-08 00:15:00","9.8326","3.24711","26.647","2.836","7.45","1.484","3.319","0.23","0.18","29.44","4.66102","30.21","0","SATNPRO1509","27.224","0.3813","5"],
    [27240,"HCEP03730566","2024-07-08 00:30:00","9.8323","3.24713","26.625","2.839","7.45","1.524","3.096","0.33","0.18","29.4405","4.66109","30.25","0","SATNPRO1509","27.206","0.3811","5"],
    [27241,"HCEP03730566","2024-07-08 00:45:00","9.8324","3.24715","26.621","2.854","7.45","1.372","3.186","0.23","0.19","29.4406","4.6611","30.41","0","SATNPRO1509","27.124","0.3799","5"],
    [27242,"HCEP03730566","2024-07-08 01:00:00","9.8325","3.24723","26.634","2.863","7.45","1.473","3.239","0.35","0.29","29.4413","4.6612","30.51","0","SATNPRO1509","27.227999999999998","0.38142","5"],
    [27243,"HCEP03730566","2024-07-08 01:15:00","9.8328","3.24724","26.671","2.894","7.45","1.278","3.069","0.24","0.15","29.4411","4.66117","30.84","0","SATNPRO1509","27.599999999999998","0.38662","5"],
    [27244,"HCEP03730566","2024-07-08 01:30:00","9.8328","3.24743","26.684","2.95","7.45","1.107","2.992","0.22","0.57","29.4431","4.66146","31.43","0","SATNPRO1509","27.586","0.3864","5"],
    [27245,"HCEP03730566","2024-07-08 01:45:00","9.8323","3.24732","26.719","2.969","7.46","1.195","2.99","0.42","0.15","29.4424","4.66136","31.63","0","SATNPRO1509","27.562","0.38604","5"],
    [27246,"HCEP03730566","2024-07-08 02:00:00","9.8304","3.24673","26.759","2.967","7.46","1.043","2.831","0.17","0.19","29.4381","4.66078","31.61","0","SATNPRO1509","27.698","0.38796","5"],
    [27247,"HCEP03730566","2024-07-08 02:15:00","9.8314","3.24701","26.821","3.028","7.46","1.031","2.704","0.18","0.11","29.44","4.66105","32.26","0","SATNPRO1509","27.664","0.38748","5"],
    [27248,"HCEP03730566","2024-07-08 02:30:00","9.8335","3.24771","26.904","2.997","7.46","1.002","3.371","0.11","0.29","29.4453","4.66177","31.94","0","SATNPRO1509","27.342000000000002","0.38298","5"],
    [27249,"HCEP03730566","2024-07-08 02:45:00","9.8324","3.24709","26.955","2.987","7.46","1.004","2.834","0.31","0.3","29.4399","4.66103","31.83","0","SATNPRO1509","27.712","0.3882","5"],
    [27250,"HCEP03730566","2024-07-08 03:00:00","9.8341","3.24779","26.985","3.038","7.46","0.986","3.341","0.35","0.15","29.4455","4.66179","32.37","0","SATNPRO1509","27.604","0.38662","5"],
    [27251,"HCEP03730566","2024-07-08 03:15:00","9.8337","3.24766","27.053","2.98","7.46","0.942","3.361","0.12","0.19","29.4445","4.66165","31.75","0","SATNPRO1509","27.666","0.3875","5"],
    [27252,"HCEP03730566","2024-07-08 03:30:00","9.8339","3.2477","27.108","3.051","7.47","0.895","3.399","0.15","0.13","29.4447","4.66169","32.51","0","SATNPRO1509","27.822","0.3897","5"],
    [27253,"HCEP03730566","2024-07-08 03:45:00","9.8346","3.24805","27.163","3.084","7.46","0.991","3.856","0.18","0.12","29.4477","4.66211","32.86","0","SATNPRO1509","27.638","0.38714","5"],
    [27254,"HCEP03730566","2024-07-08 04:00:00","9.835","3.24812","27.227","3.056","7.46","0.987","4.66","0.24","0.15","29.448","4.66214","32.56","0","SATNPRO1509","27.974","0.3918","5"],
    [27255,"HCEP03730566","2024-07-08 04:15:00","9.8357","3.24827","27.281","3.07","7.46","1.061","6.757","0.37","0.16","29.4489","4.66227","32.71","0","SATNPRO1509","27.66","0.38738","5"],
    [27256,"HCEP03730566","2024-07-08 04:30:00","9.8363","3.24832","27.329","3.081","7.46","1.134","9.292","0.28","0.12","29.4489","4.66226","32.83","0","SATNPRO1509","27.774","0.38902","5"],
    [27257,"HCEP03730566","2024-07-08 04:45:00","9.8385","3.24802","27.375","3.213","7.47","0.952","12.778","0.18","0.18","29.444","4.66153","34.24","0","SATNPRO1509","28.506","0.39924","5"],
    [27258,"HCEP03730566","2024-07-08 05:00:00","9.8415","3.24733","27.408","3.393","7.48","0.969","17.977","0.28","0.1","29.4347","4.66015","36.16","0","SATNPRO1509","29.286","0.4102","5"],
    [27259,"HCEP03730566","2024-07-08 05:15:00","9.8409","3.24744","27.436","3.531","7.49","0.85","24.602","0.22","0.22","29.4362","4.66038","37.63","0","SATNPRO1509","29.064","0.40708","5"],
    [27260,"HCEP03730566","2024-07-08 05:30:00","9.8387","3.24816","27.45","3.388","7.49","1.198","30.174","0.41","0.12","29.4453","4.66171","36.1","0","SATNPRO1509","27.576","0.38624","5"],
    [27261,"HCEP03730566","2024-07-08 05:45:00","9.84","3.24809","27.445","3.113","7.48","1.195","34.959","0.2","0.17","29.4435","4.66144","33.17","0","SATNPRO1509","27.419999999999998","0.38412","5"],
    [27262,"HCEP03730566","2024-07-08 06:00:00","9.8401","3.24813","27.422","3.025","7.47","1.132","40.896","0.2","0.13","29.4439","4.66149","32.23","0","SATNPRO1509","27.606","0.38668","5"],
    [27263,"HCEP03730566","2024-07-08 06:15:00","9.8412","3.24812","27.384","3.033","7.47","1.238","44.538","0.15","1.85","29.4429","4.66132","32.32","0","SATNPRO1509","27.654","0.38734","5"],
    [27264,"HCEP03730566","2024-07-08 06:30:00","9.8429","3.24802","27.328","3.068","7.47","1.169","39.313","0.24","0.14","29.4405","4.66095","32.69","0","SATNPRO1509","27.986","0.39198","5"],
    [27265,"HCEP03730566","2024-07-08 06:45:00","9.8442","3.24797","27.251","3.102","7.47","0.913","30.043","0.09","0.06","29.439","4.66071","33.06","0","SATNPRO1509","27.892","0.39062","5"],
    [27266,"HCEP03730566","2024-07-08 07:00:00","9.8443","3.24796","27.162","3.097","7.47","1.063","26.618","0.19","0.22","29.4388","4.66067","33.01","0","SATNPRO1509","27.914","0.39102","5"],
    [27267,"HCEP03730566","2024-07-08 07:15:00","9.8452","3.24791","27.038","3.135","7.47","1.001","24.446","0.14","0.1","29.4376","4.66048","33.42","0","SATNPRO1509","28.02","0.39242","5"],
    [27268,"HCEP03730566","2024-07-08 07:30:00","9.8461","3.24787","26.908","3.168","7.47","1.029","23.722","0.38","0.1","29.4365","4.6603","33.76","0","SATNPRO1509","27.942","0.39136","5"],
    [27269,"HCEP03730566","2024-07-08 07:45:00","9.8468","3.24778","26.773","3.21","7.48","1.028","23.995","0.15","0.11","29.4351","4.66008","34.21","0","SATNPRO1509","28.184","0.39476","5"],
    [27270,"HCEP03730566","2024-07-08 08:00:00","9.8479","3.24774","26.633","3.202","7.48","0.928","24.229","0.11","0.12","29.4339","4.65987","34.12","0","SATNPRO1509","28.022","0.39254","5"],
    [27271,"HCEP03730566","2024-07-08 08:15:00","9.849","3.24766","26.442","3.224","7.48","1.027","24.268","0.28","0.09","29.4322","4.65961","34.36","0","SATNPRO1509","28.21","0.39512","5"],
    [27272,"HCEP03730566","2024-07-08 08:30:00","9.8484","3.24757","26.212","3.223","7.48","1.108","25.736","0.13","0.12","29.4319","4.65957","34.35","0","SATNPRO1509","27.728","0.38836","5"],
    [27273,"HCEP03730566","2024-07-08 08:45:00","9.8505","3.24742","26.032","3.119","7.48","0.991","24.825","0.07","0.17","29.4288","4.65907","33.24","0","SATNPRO1509","27.898","0.3908","5"],
    [27274,"HCEP03730566","2024-07-08 09:00:00","9.8536","3.24728","25.82","3.168","7.48","0.977","23.106","0.12","0.17","29.425","4.65846","33.77","0","SATNPRO1509","28.084","0.39336","5"],
    [27275,"HCEP03730566","2024-07-08 09:15:00","9.8492","3.24744","25.616","3.156","7.48","1.185","22.737","0.17","0.14","29.4303","4.65928","33.64","0","SATNPRO1509","27.392","0.38366","5"],
    [27276,"HCEP03730566","2024-07-08 09:30:00","9.8475","3.24744","25.421","2.983","7.47","1.077","21.977","0.15","0.16","29.4317","4.6595","31.79","0","SATNPRO1509","27.438","0.38432","5"],
    [27277,"HCEP03730566","2024-07-08 09:45:00","9.8442","3.24752","25.207","2.906","7.47","1.122","20.293","0.13","0.18","29.4353","4.66005","30.97","0","SATNPRO1509","27.01","0.37836","5"],
    [27278,"HCEP03730566","2024-07-08 10:00:00","9.8525","3.24719","25.014","2.959","7.46","0.864","15.329","0.14","0.28","29.4253","4.65847","31.54","0","SATNPRO1509","28.086","0.39344","5"],
    [27279,"HCEP03730566","2024-07-08 10:15:00","9.8521","3.24274","24.795","3.13","7.47","0.938","16.269","0.1","0.25","29.3811","4.65214","33.35","0","SATNPRO1509","28.052","0.39294","5"],
    [27280,"HCEP03730566","2024-07-08 10:30:00","9.8531","3.24716","24.607","3.175","7.46","0.95","21.973","0.31","0.14","29.4247","4.65835","33.84","0","SATNPRO1509","28.169999999999998","0.39458","5"],
    [27281,"HCEP03730566","2024-07-08 10:45:00","9.8517","3.24709","24.406","3.191","7.47","0.788","24.583","0.12","0.18","29.4252","4.65844","34.01","0","SATNPRO1509","27.944000000000003","0.39142","5"],
    [27282,"HCEP03730566","2024-07-08 11:00:00","9.8503","3.247","24.233","3.144","7.47","1.177","25.106","0.37","0.29","29.4255","4.6585","33.5","0","SATNPRO1509","27.740000000000002","0.38852","5"],
    [27283,"HCEP03730566","2024-07-08 11:15:00","9.8444","3.24736","24.082","3.053","7.47","1.166","26.843","0.13","0.2","29.4339","4.65979","32.54","0","SATNPRO1509","27.586","0.38636","5"],
    [27284,"HCEP03730566","2024-07-08 11:30:00","9.8448","3.2473","23.985","2.958","7.46","1.163","28.796","0.21","0.23","29.433","4.65966","31.53","0","SATNPRO1509","27.266000000000002","0.38196","5"],
    [27285,"HCEP03730566","2024-07-08 11:45:00","9.8427","3.24752","23.946","2.912","7.46","1.552","29.284","1.38","0.2","29.437","4.66025","31.03","0","SATNPRO1509","27.216","0.38118","5"],
    [27286,"HCEP03730566","2024-07-08 12:00:00","9.8416","3.24762","23.95","2.856","7.46","1.271","28.402","0.18","0.42","29.4389","4.66055","30.43","0","SATNPRO1509","27.016","0.37842","5"],
    [27287,"HCEP03730566","2024-07-08 12:15:00","9.8424","3.24756","23.957","2.86","7.45","1.54","28.475","0.54","5.17","29.4376","4.66035","30.47","0","SATNPRO1509","27.124","0.37992","5"],
    [27288,"HCEP03730566","2024-07-08 12:30:00","9.8429","3.24754","24.033","2.897","7.45","1.167","25.257","0.12","0.23","29.437","4.66026","30.87","0","SATNPRO1509","27.368000000000002","0.38332","5"],
    [27289,"HCEP03730566","2024-07-08 12:45:00","9.8423","3.24761","24.092","2.929","7.46","1.039","23.796","0.13","0.13","29.4383","4.66045","31.21","0","SATNPRO1509","27.394","0.38372","5"],
    [27290,"HCEP03730566","2024-07-08 13:00:00","9.8413","3.24772","24.163","2.942","7.46","1.078","25.208","0.13","0.17","29.4401","4.66073","31.36","0","SATNPRO1509","27.492","0.38506","5"],
    [27291,"HCEP03730566","2024-07-08 13:15:00","9.8387","3.24801","24.264","2.967","7.46","1.124","28.067","0.11","0.16","29.445","4.66149","31.62","0","SATNPRO1509","27.726000000000003","0.38832","5"],
    [27292,"HCEP03730566","2024-07-08 13:30:00","9.8387","3.24797","24.39","3.005","7.46","1.369","29.498","0.16","0.32","29.4446","4.66144","32.02","0","SATNPRO1509","27.4","0.38378","5"],
    [27293,"HCEP03730566","2024-07-08 13:45:00","9.839","3.2479","24.533","3.034","7.46","1.106","30.213","0.14","0.12","29.4437","4.66131","32.33","0","SATNPRO1509","27.61","0.38672","5"],
    [27294,"HCEP03730566","2024-07-08 14:00:00","9.8401","3.24772","24.64","3.143","7.47","1.161","28.034","0.33","0.19","29.4409","4.6609","33.49","0","SATNPRO1509","27.876","0.39044","5"],
    [27295,"HCEP03730566","2024-07-08 14:15:00","9.8392","3.24794","24.889","3.203","7.47","1.057","25.932","0.18","0.15","29.4437","4.66133","34.13","0","SATNPRO1509","28.058","0.393","5"],
    [27296,"HCEP03730566","2024-07-08 14:30:00","9.839","3.24792","25.05","3.156","7.47","0.944","22.666","0.18","0.19","29.4436","4.66133","33.63","0","SATNPRO1509","28.304","0.39646","5"],
    [27297,"HCEP03730566","2024-07-08 14:45:00","9.8391","3.24794","25.199","3.233","7.48","0.843","18.842","0.11","0.28","29.4437","4.66134","34.45","0","SATNPRO1509","28.632","0.40106","5"],
    [27298,"HCEP03730566","2024-07-08 15:00:00","9.8383","3.24816","25.38","3.263","7.48","1.048","14.841","0.16","0.27","29.4464","4.66176","34.78","0","SATNPRO1509","28.259999999999998","0.39582","5"],
    [27299,"HCEP03730566","2024-07-08 15:15:00","9.8384","3.2481","25.569","3.247","7.48","0.939","9.865","0.2","0.27","29.4457","4.66167","34.6","0","SATNPRO1509","28.678","0.40168","5"],
    [27300,"HCEP03730566","2024-07-08 15:30:00","9.8383","3.24822","25.769","3.275","7.49","1.142","6.704","0.1","0.1","29.4469","4.66185","34.89","0","SATNPRO1509","27.826","0.38976","5"],
    [27301,"HCEP03730566","2024-07-08 15:45:00","9.838","3.24826","25.991","3.048","7.48","1.324","5.206","0.19","0.14","29.4474","4.66194","32.48","0","SATNPRO1509","27.722","0.3883","5"],
    [27302,"HCEP03730566","2024-07-08 16:00:00","9.8386","3.24832","26.208","3.031","7.47","1.34","3.977","0.12","0.09","29.4475","4.66196","32.3","0","SATNPRO1509","27.814","0.38956","5"],
    [27303,"HCEP03730566","2024-07-08 16:15:00","9.8384","3.24843","26.435","3.095","7.48","1.481","3.528","0.18","0.26","29.4487","4.66215","32.98","0","SATNPRO1509","27.772","0.38896","5"],
    [27304,"HCEP03730566","2024-07-08 16:30:00","9.8383","3.24842","26.623","3.084","7.48","1.407","3.036","0.21","0.21","29.4485","4.66213","32.87","0","SATNPRO1509","27.75","0.38864","5"],
    [27305,"HCEP03730566","2024-07-08 16:45:00","9.8377","3.24831","26.816","3.08","7.47","1.367","2.914","0.15","0.11","29.4479","4.66207","32.82","0","SATNPRO1509","27.818","0.38962","5"],
    [27306,"HCEP03730566","2024-07-08 17:00:00","9.8377","3.24822","26.985","3.082","7.47","1.439","3.259","0.15","0.12","29.4469","4.66193","32.84","0","SATNPRO1509","27.759999999999998","0.3888","5"],
    [27307,"HCEP03730566","2024-07-08 17:15:00","9.8375","3.24805","27.182","3.071","7.47","1.329","2.808","0.15","0.13","29.4452","4.66171","32.73","0","SATNPRO1509","27.914","0.391","5"],
    [27308,"HCEP03730566","2024-07-08 17:30:00","9.8377","3.24797","27.334","3.111","7.48","1.271","2.657","0.1","0.11","29.4443","4.66158","33.15","0","SATNPRO1509","28.108","0.39368","5"],
    [27309,"HCEP03730566","2024-07-08 17:45:00","9.8379","3.24811","27.47","3.091","7.48","1.46","3.128","0.15","0.17","29.4454","4.66175","32.93","0","SATNPRO1509","27.75","0.38868","5"],
    [27310,"HCEP03730566","2024-07-08 18:00:00","9.8377","3.24826","27.624","3.029","7.47","1.726","3.54","0.17","0.18","29.447","4.66199","32.28","0","SATNPRO1509","27.682","0.38774","5"],
    [27311,"HCEP03730566","2024-07-08 18:15:00","9.8377","3.24799","27.751","2.997","7.47","1.586","3.13","0.2","0.18","29.4443","4.6616","31.94","0","SATNPRO1509","27.626","0.3869","5"],
    [27312,"HCEP03730566","2024-07-08 18:30:00","9.8376","3.24802","27.831","2.977","7.47","1.675","3.304","0.21","0.16","29.4447","4.66167","31.72","0","SATNPRO1509","27.419999999999998","0.38404","5"],
    [27313,"HCEP03730566","2024-07-08 18:45:00","9.8374","3.24785","27.865","2.935","7.46","2.054","3.795","0.37","0.4","29.443","4.66144","31.27","0","SATNPRO1509","27.338","0.38298","5"],
    [27314,"HCEP03730566","2024-07-08 19:00:00","9.8374","3.24766","27.922","2.923","7.46","1.931","3.74","0.26","0.7","29.4412","4.66117","31.15","0","SATNPRO1509","27.622","0.38688","5"],
    [27315,"HCEP03730566","2024-07-08 19:15:00","9.8371","3.24734","27.946","2.926","7.46","1.646","3.212","0.25","0.29","29.4382","4.66075","31.18","0","SATNPRO1509","27.818","0.38964","5"],
    [27316,"HCEP03730566","2024-07-08 19:30:00","9.8369","3.24735","27.958","2.937","7.46","1.558","3.196","0.4","1.15","29.4385","4.66079","31.3","0","SATNPRO1509","27.628","0.38696","5"],
    [27317,"HCEP03730566","2024-07-08 19:45:00","9.8369","3.24758","27.962","2.874","7.46","1.872","3.845","0.29","0.23","29.4407","4.66112","30.63","0","SATNPRO1509","27.208000000000002","0.38112","5"],
    [27318,"HCEP03730566","2024-07-08 20:00:00","9.8346","3.24696","27.967","2.803","7.45","1.617","3.38","0.26","0.24","29.4364","4.66054","29.87","0","SATNPRO1509","27.288","0.38222","5"],
    [27319,"HCEP03730566","2024-07-08 20:15:00","9.8339","3.24676","27.964","2.777","7.45","1.767","3.68","0.33","0.44","29.4349","4.66034","29.58","0","SATNPRO1509","27.192","0.38086","5"],
    [27320,"HCEP03730566","2024-07-08 20:30:00","9.8318","3.24612","27.937","2.757","7.45","1.43","3.021","0.18","0.25","29.4302","4.6597","29.37","0","SATNPRO1509","27.528","0.38556","5"],
    [27321,"HCEP03730566","2024-07-08 20:45:00","9.8314","3.24604","27.929","2.78","7.45","1.568","2.979","0.44","0.24","29.4298","4.65965","29.62","0","SATNPRO1509","27.324","0.38272","5"],
    [27322,"HCEP03730566","2024-07-08 21:00:00","9.8365","3.24544","27.819","2.87","7.45","1.376","2.827","0.41","0.45","29.4196","4.6581","30.58","0","SATNPRO1509","28.986","0.40596","5"],
    [27323,"HCEP03730566","2024-07-08 21:15:00","9.8316","3.24598","27.74","3.064","7.46","1.396","3.087","0.24","0.21","29.4291","4.65953","32.64","0","SATNPRO1509","27.98","0.39194","5"],
    [27324,"HCEP03730566","2024-07-08 21:30:00","9.8308","3.246","27.673","2.773","7.45","1.967","3.384","0.96","0.27","29.43","4.65968","29.54","0","SATNPRO1509","27.286","0.3822","5"],
    [27325,"HCEP03730566","2024-07-08 21:45:00","9.8302","3.24595","27.59","2.688","7.44","1.557","3.61","0.32","0.35","29.43","4.65968","28.64","0","SATNPRO1509","27.15","0.38024","5"],
    [27326,"HCEP03730566","2024-07-08 22:00:00","9.8283","3.24552","27.531","2.637","7.44","1.537","3.685","0.21","0.35","29.4272","4.65931","28.09","0","SATNPRO1509","27.014","0.37838","5"],
    [27327,"HCEP03730566","2024-07-08 22:15:00","9.8279","3.24547","27.449","2.606","7.43","1.406","3.11","0.36","0.18","29.4272","4.6593","27.76","0","SATNPRO1509","27.052","0.3789","5"],
    [27328,"HCEP03730566","2024-07-08 22:30:00","9.8275","3.24547","27.363","2.579","7.43","1.481","3.089","0.7","0.27","29.4275","4.65935","27.47","0","SATNPRO1509","26.992","0.37806","5"],
    [27329,"HCEP03730566","2024-07-08 22:45:00","9.8278","3.24541","27.266","2.556","7.43","1.238","3.025","0.25","0.17","29.4266","4.65922","27.23","0","SATNPRO1509","27.048","0.37882","5"],
    [27330,"HCEP03730566","2024-07-08 23:00:00","9.8285","3.24563","27.169","2.55","7.42","1.182","2.926","0.11","0.12","29.4284","4.65945","27.17","0","SATNPRO1509","27.088","0.3794","5"],
    [27331,"HCEP03730566","2024-07-08 23:15:00","9.8289","3.24561","27.055","2.553","7.42","1.422","3.01","0.2","0.23","29.4279","4.65937","27.2","0","SATNPRO1509","27.104","0.37968","5"],
    [27332,"HCEP03730566","2024-07-08 23:30:00","9.8284","3.24565","26.956","2.563","7.42","1.498","2.973","0.62","0.23","29.4287","4.65949","27.3","0","SATNPRO1509","26.996","0.37808","5"],
    [27333,"HCEP03730566","2024-07-08 23:45:00","9.8282","3.24558","26.861","2.557","7.42","1.358","2.854","0.24","0.18","29.4282","4.65942","27.24","0","SATNPRO1509","26.934","0.3773","5"],
    [27334,"HCEP03730566","2024-07-09 00:00:00","9.8276","3.24513","26.747","2.549","7.42","1.471","3.202","0.28","0.24","29.4242","4.65885","27.15","0","SATNPRO1509","26.982","0.37792","5"],
    [27335,"HCEP03730566","2024-07-09 00:15:00","9.8276","3.24551","26.642","2.537","7.42","1.306","3.031","0.22","0.2","29.4281","4.65939","27.02","0","SATNPRO1509","26.96","0.37762","5"],
    [27336,"HCEP03730566","2024-07-09 00:30:00","9.8278","3.24555","26.544","2.516","7.42","1.213","2.836","0.13","0.12","29.4284","4.65943","26.8","0","SATNPRO1509","26.926","0.37714","5"],
    [27337,"HCEP03730566","2024-07-09 00:45:00","9.8286","3.2457","26.474","2.502","7.42","1.336","3.138","0.43","0.17","29.4292","4.65953","26.66","0","SATNPRO1509","26.922","0.3771","5"],
    [27338,"HCEP03730566","2024-07-09 01:00:00","9.8299","3.24594","26.454","2.501","7.42","1.34","3.355","0.21","0.18","29.4306","4.65971","26.65","0","SATNPRO1509","26.806","0.37548","5"],
    [27339,"HCEP03730566","2024-07-09 01:15:00","9.8324","3.24653","26.441","2.437","7.42","1.65","3.691","0.37","0.29","29.4344","4.66021","25.97","0","SATNPRO1509","26.41","0.36994","5"],
    [27340,"HCEP03730566","2024-07-09 01:30:00","9.8337","3.24689","26.441","2.45","7.41","1.659","3.679","0.36","0.17","29.437","4.66056","26.1","0","SATNPRO1509","26.632","0.37304","5"],
    [27341,"HCEP03730566","2024-07-09 01:45:00","9.8339","3.24701","26.502","2.495","7.41","1.607","3.573","0.37","0.28","29.4381","4.66071","26.59","0","SATNPRO1509","26.718","0.37426","5"],
    [27342,"HCEP03730566","2024-07-09 02:00:00","9.8349","3.24732","26.529","2.494","7.42","1.689","3.924","0.27","0.32","29.4404","4.66102","26.57","0","SATNPRO1509","26.574","0.37218","5"],
    [27343,"HCEP03730566","2024-07-09 02:15:00","9.8358","3.24752","26.536","2.538","7.42","1.615","4.014","0.31","0.4","29.4416","4.66118","27.04","0","SATNPRO1509","26.496","0.37112","5"],
    [27344,"HCEP03730566","2024-07-09 02:30:00","9.8363","3.24769","26.556","2.569","7.42","1.702","4.062","0.38","0.32","29.4429","4.66136","27.37","0","SATNPRO1509","26.712","0.37418","5"],
    [27345,"HCEP03730566","2024-07-09 02:45:00","9.8359","3.2477","26.604","2.627","7.43","1.551","3.876","0.27","0.29","29.4433","4.66143","27.99","0","SATNPRO1509","26.887999999999998","0.37664","5"],
    [27346,"HCEP03730566","2024-07-09 03:00:00","9.8382","3.24832","26.674","2.685","7.43","1.725","4.067","0.44","0.23","29.4476","4.662","28.61","0","SATNPRO1509","26.708","0.37412","5"],
    [27347,"HCEP03730566","2024-07-09 03:15:00","9.8394","3.24866","26.785","2.715","7.43","1.761","4.197","0.53","0.35","29.45","4.66233","28.93","0","SATNPRO1509","26.864","0.37626","5"],
    [27348,"HCEP03730566","2024-07-09 03:30:00","9.8395","3.24874","26.792","2.79","7.44","1.672","4.447","0.49","0.8","29.4507","4.66244","29.73","0","SATNPRO1509","27.14","0.38014","5"],
    [27349,"HCEP03730566","2024-07-09 03:45:00","9.8399","3.24881","26.855","2.837","7.44","1.46","3.849","0.19","0.31","29.4511","4.66249","30.23","0","SATNPRO1509","27.272","0.38196","5"],
    [27350,"HCEP03730566","2024-07-09 04:00:00","9.8392","3.24856","26.913","2.879","7.44","1.412","3.491","0.32","0.25","29.4491","4.66223","30.68","0","SATNPRO1509","27.468","0.38474","5"],
    [27351,"HCEP03730566","2024-07-09 04:15:00","9.8401","3.24868","26.984","2.922","7.45","1.404","4.097","0.23","0.26","29.4495","4.66227","31.14","0","SATNPRO1509","27.605999999999998","0.38668","5"],
    [27352,"HCEP03730566","2024-07-09 04:30:00","9.8412","3.24891","27.055","2.964","7.45","1.424","3.664","0.4","0.29","29.4509","4.66245","31.59","0","SATNPRO1509","27.856","0.39018","5"],
    [27353,"HCEP03730566","2024-07-09 04:45:00","9.842","3.24912","27.11","2.946","7.45","1.176","3.863","0.23","0.34","29.4524","4.66265","31.4","0","SATNPRO1509","27.982","0.39192","5"],
    [27354,"HCEP03730566","2024-07-09 05:00:00","9.8427","3.24921","27.174","3.084","7.46","1.112","3.45","0.39","0.23","29.4527","4.66268","32.86","0","SATNPRO1509","28.164","0.3945","5"],
    [27355,"HCEP03730566","2024-07-09 05:15:00","9.8439","3.24953","27.213","3.16","7.47","0.915","3.725","0.12","1.88","29.4549","4.66298","33.68","0","SATNPRO1509","28.06","0.393","5"],
    [27356,"HCEP03730566","2024-07-09 05:30:00","9.8437","3.24945","27.259","3.138","7.47","0.783","4.379","0.03","0.33","29.4543","4.66291","33.44","0","SATNPRO1509","27.948","0.39144","5"],
    [27357,"HCEP03730566","2024-07-09 05:45:00","9.8448","3.24908","27.302","3.134","7.47","0.612","2.933","0.03","0.26","29.4496","4.66221","33.4","0","SATNPRO1509","28.346","0.39704","5"],
    [27358,"HCEP03730566","2024-07-09 06:00:00","9.8441","3.249","27.331","3.157","7.47","0.519","4.23","0.01","0.26","29.4494","4.6622","33.65","0","SATNPRO1509","27.836000000000002","0.38986","5"],
    [27359,"HCEP03730566","2024-07-09 06:15:00","9.8438","3.2487","27.348","3.042","7.47","0.409","4.971","0.02","0.19","29.4466","4.6618","32.42","0","SATNPRO1509","27.535999999999998","0.38566","5"],
    [27360,"HCEP03730566","2024-07-09 06:30:00","9.8434","3.24835","27.337","2.93","7.46","0.312","6.976","0.01","0.26","29.4435","4.66136","31.23","0","SATNPRO1509","27.256","0.38176","5"],
    [27361,"HCEP03730566","2024-07-09 06:45:00","9.8442","3.24816","27.313","2.856","7.46","0.239","10.843","0.04","0.33","29.4408","4.66097","30.44","0","SATNPRO1509","27.304","0.38242","5"],
    [27362,"HCEP03730566","2024-07-09 07:00:00","9.8455","3.24804","27.216","2.84","7.45","0.182","18.009","0.01","0.29","29.4387","4.66063","30.27","0","SATNPRO1509","27.492","0.38508","5"],
    [27363,"HCEP03730566","2024-07-09 07:15:00","9.8467","3.24793","27.17","2.815","7.45","0.194","28.527","0.03","0.38","29.4365","4.6603","30","0","SATNPRO1509","27.43","0.38422","5"],
    [27364,"HCEP03730566","2024-07-09 07:30:00","9.8478","3.24782","27.102","2.854","7.45","0.238","44.466","0.07","0.47","29.4346","4.66001","30.42","0","SATNPRO1509","27.616","0.38682","5"],
    [27365,"HCEP03730566","2024-07-09 07:45:00","9.848","3.24781","27.003","2.89","7.45","0.336","65.804","0.06","0.23","29.4344","4.65996","30.8","0","SATNPRO1509","27.836","0.3899","5"],
    [27366,"HCEP03730566","2024-07-09 08:00:00","9.8491","3.24774","26.891","2.931","7.45","0.378","89.538","0.12","0.2","29.4328","4.65971","31.24","0","SATNPRO1509","27.762","0.38884","5"],
    [27367,"HCEP03730566","2024-07-09 08:15:00","9.8498","3.24771","26.768","2.912","7.45","0.558","113.145","0.14","0.25","29.4319","4.65957","31.04","0","SATNPRO1509","27.876","0.39044","5"],
    [27368,"HCEP03730566","2024-07-09 08:30:00","9.8502","3.2477","26.626","2.896","7.44","0.611","124.745","0.08","0.28","29.4316","4.65951","30.87","0","SATNPRO1509","27.438","0.3843","5"],
    [27369,"HCEP03730566","2024-07-09 08:45:00","9.8507","3.24769","26.472","2.843","7.44","0.721","127.16","0.12","0.19","29.4312","4.65944","30.3","0","SATNPRO1509","27.288","0.38224","5"],
    [27370,"HCEP03730566","2024-07-09 09:00:00","9.8513","3.24766","26.317","2.805","7.44","0.735","124.516","0.11","0.18","29.4304","4.6593","29.9","0","SATNPRO1509","27.358","0.38322","5"],
    [27371,"HCEP03730566","2024-07-09 09:15:00","9.8523","3.24764","26.198","2.802","7.45","0.667","120.446","0.1","0.11","29.4294","4.65914","29.87","0","SATNPRO1509","27.688","0.38778","5"],
    [27372,"HCEP03730566","2024-07-09 09:30:00","9.8519","3.24763","25.994","2.831","7.44","1.182","120.161","0.19","0.07","29.4298","4.65918","30.17","0","SATNPRO1509","27.150000000000002","0.38026","5"],
    [27373,"HCEP03730566","2024-07-09 09:45:00","9.8514","3.2476","25.783","2.781","7.44","0.913","120.916","0.24","0.07","29.4299","4.6592","29.64","0","SATNPRO1509","27.218","0.38124","5"],
    [27374,"HCEP03730566","2024-07-09 10:00:00","9.8524","3.2475","25.656","2.777","7.44","0.954","111.145","0.19","0.09","29.4282","4.65893","29.59","0","SATNPRO1509","27.21","0.38112","5"],
    [27375,"HCEP03730566","2024-07-09 10:15:00","9.8539","3.24739","25.425","2.776","7.44","0.807","82.105","0.18","0.04","29.426","4.65857","29.59","0","SATNPRO1509","27.38","0.38348","5"],
    [27376,"HCEP03730566","2024-07-09 10:30:00","9.8547","3.24735","25.233","2.779","7.44","0.73","49.57","0.2","0.03","29.425","4.65841","29.62","0","SATNPRO1509","27.224","0.38134","5"],
    [27377,"HCEP03730566","2024-07-09 10:45:00","9.8537","3.2474","25.053","2.763","7.44","0.633","20.206","0.13","0.02","29.4264","4.65862","29.44","0","SATNPRO1509","26.962","0.37766","5"],
    [27378,"HCEP03730566","2024-07-09 11:00:00","9.8551","3.24727","24.888","2.764","7.44","0.517","4.327","0.06","0.01","29.424","4.65824","29.46","0","SATNPRO1509","27.624000000000002","0.38692","5"],
    [27379,"HCEP03730566","2024-07-09 11:15:00","9.8547","3.24728","24.675","2.808","7.44","0.536","0.633","0.28","0.02","29.4246","4.65832","29.93","0","SATNPRO1509","27.264","0.38188","5"],
    [27380,"HCEP03730566","2024-07-09 11:30:00","9.8525","3.24744","24.557","2.806","7.45","0.456","0.325","0.08","0.01","29.4279","4.65883","29.9","0","SATNPRO1509","27.244","0.3816","5"],
    [27381,"HCEP03730566","2024-07-09 11:45:00","9.8521","3.24743","24.395","2.773","7.44","0.444","0.335","0.08","0.03","29.4283","4.65888","29.55","0","SATNPRO1509","27.41","0.38392","5"],
    [27382,"HCEP03730566","2024-07-09 12:00:00","9.8553","3.24767","24.242","2.879","7.45","0.3","0.253","0.1","0.02","29.4281","4.65879","30.69","0","SATNPRO1509","27.972","0.3918","5"],
    [27383,"HCEP03730566","2024-07-09 12:15:00","9.8572","3.24803","24.115","3.139","7.46","0.241","0.257","0.05","0.01","29.4303","4.65906","33.46","0","SATNPRO1509","29.092","0.40744","5"],
    [27384,"HCEP03730566","2024-07-09 12:30:00","9.8553","3.24794","24.078","3.267","7.47","0.431","0.372","0.5","0.03","29.4309","4.65918","34.82","0","SATNPRO1509","28.504","0.39922","5"],
    [27385,"HCEP03730566","2024-07-09 12:45:00","9.856","3.24798","24.245","3.248","7.47","0.192","0.38","0.03","0.01","29.4306","4.65914","34.62","0","SATNPRO1509","28.674","0.40166","5"],
    [27386,"HCEP03730566","2024-07-09 13:00:00","9.8529","3.24795","24.198","3.216","7.47","0.272","0.508","0.12","0.02","29.433","4.65952","34.28","0","SATNPRO1509","27.924","0.39112","5"],
    [27387,"HCEP03730566","2024-07-09 13:15:00","9.8504","3.248","24.273","3.08","7.47","0.304","0.699","0.08","0.06","29.4355","4.65992","32.83","0","SATNPRO1509","27.572","0.38618","5"],
    [27388,"HCEP03730566","2024-07-09 13:30:00","9.8504","3.2485","24.383","2.994","7.46","0.32","0.683","0.09","0.04","29.4404","4.66063","31.92","0","SATNPRO1509","28.05","0.39286","5"],
    [27389,"HCEP03730566","2024-07-09 13:45:00","9.85","3.24877","24.496","2.99","7.46","0.403","0.868","0.08","0.09","29.4434","4.66108","31.87","0","SATNPRO1509","27.604","0.38662","5"],
    [27390,"HCEP03730566","2024-07-09 14:00:00","9.8505","3.2494","24.579","3.001","7.46","0.415","0.833","0.08","0.06","29.4493","4.66192","31.99","0","SATNPRO1509","27.836","0.38992","5"],
    [27391,"HCEP03730566","2024-07-09 14:15:00","9.8513","3.24994","24.68","3.091","7.47","0.43","0.866","0.09","0.06","29.454","4.66258","32.95","0","SATNPRO1509","28.05","0.3929","5"],
    [27392,"HCEP03730566","2024-07-09 14:30:00","9.8516","3.25008","24.821","3.168","7.47","0.732","1.289","0.41","0.24","29.4551","4.66274","33.77","0","SATNPRO1509","28.292","0.39626","5"],
    [27393,"HCEP03730566","2024-07-09 14:45:00","9.8518","3.25009","24.906","3.199","7.47","0.6","1.049","0.17","0.08","29.455","4.66273","34.1","0","SATNPRO1509","28.362000000000002","0.39728","5"],
    [27394,"HCEP03730566","2024-07-09 15:00:00","9.8531","3.25061","25.081","3.24","7.48","0.815","1.391","0.24","0.12","29.4591","4.6633","34.54","0","SATNPRO1509","28.396","0.39772","5"],
    [27395,"HCEP03730566","2024-07-09 15:15:00","9.853","3.25049","25.345","3.276","7.48","0.791","1.476","0.1","0.09","29.4578","4.66314","34.92","0","SATNPRO1509","28.478","0.39888","5"],
    [27396,"HCEP03730566","2024-07-09 15:30:00","9.853","3.25046","25.472","3.299","7.49","0.86","1.681","0.08","0.07","29.4575","4.6631","35.17","0","SATNPRO1509","28.381999999999998","0.39752","5"],
    [27397,"HCEP03730566","2024-07-09 15:45:00","9.8532","3.25008","25.639","3.303","7.49","0.948","1.592","0.2","0.07","29.4534","4.66253","35.21","0","SATNPRO1509","28.477999999999998","0.39886","5"],
    [27398,"HCEP03730566","2024-07-09 16:00:00","9.8534","3.25042","25.864","3.298","7.49","1.226","2.073","0.2","0.08","29.4566","4.66299","35.16","0","SATNPRO1509","28.342","0.39696","5"],
    [27399,"HCEP03730566","2024-07-09 16:15:00","9.8532","3.25054","26.001","3.273","7.49","1.297","2.369","0.12","0.1","29.4579","4.66319","34.89","0","SATNPRO1509","28.252","0.39572","5"],
    [27400,"HCEP03730566","2024-07-09 16:30:00","9.8538","3.25082","26.203","3.244","7.49","1.493","2.7","0.42","0.17","29.4602","4.66352","34.58","0","SATNPRO1509","28.194","0.39492","5"],
    [27401,"HCEP03730566","2024-07-09 16:45:00","9.8541","3.251","26.435","3.26","7.49","1.461","2.698","0.16","0.12","29.4617","4.66373","34.76","0","SATNPRO1509","28.386","0.39762","5"],
    [27402,"HCEP03730566","2024-07-09 17:00:00","9.8535","3.25089","26.679","3.313","7.5","1.55","3.081","0.12","0.11","29.4609","4.66364","35.32","0","SATNPRO1509","28.442","0.39838","5"],
    [27403,"HCEP03730566","2024-07-09 17:15:00","9.8539","3.25103","26.827","3.355","7.5","1.662","3.192","0.21","0.26","29.4619","4.66379","35.77","0","SATNPRO1509","28.594","0.4005","5"],
    [27404,"HCEP03730566","2024-07-09 17:30:00","9.8536","3.2509","27","3.369","7.5","1.54","2.679","0.16","0.08","29.4608","4.66365","35.92","0","SATNPRO1509","28.752","0.40276","5"],
    [27405,"HCEP03730566","2024-07-09 17:45:00","9.8533","3.25077","27.211","3.376","7.5","1.883","3.567","0.32","0.14","29.4596","4.6635","35.99","0","SATNPRO1509","28.652","0.4013","5"],
    [27406,"HCEP03730566","2024-07-09 18:00:00","9.8537","3.25071","27.37","3.348","7.5","1.791","3.667","0.11","0.12","29.4587","4.66337","35.69","0","SATNPRO1509","28.596","0.40054","5"],
    [27407,"HCEP03730566","2024-07-09 18:15:00","9.8533","3.25076","27.497","3.332","7.5","1.871","3.517","0.22","0.12","29.4595","4.66349","35.52","0","SATNPRO1509","28.548","0.39984","5"],
    [27408,"HCEP03730566","2024-07-09 18:30:00","9.8533","3.25081","27.633","3.352","7.5","1.497","2.791","0.1","0.07","29.4599","4.66356","35.74","0","SATNPRO1509","28.564","0.40006","5"],
    [27409,"HCEP03730566","2024-07-09 18:45:00","9.8537","3.251","27.784","3.359","7.5","1.672","3.247","0.35","0.15","29.4614","4.66377","35.81","0","SATNPRO1509","28.542","0.39978","5"],
    [27410,"HCEP03730566","2024-07-09 19:00:00","9.8537","3.25103","27.876","3.327","7.5","1.674","3.136","0.18","0.14","29.4617","4.66383","35.47","0","SATNPRO1509","28.568","0.40016","5"],
    [27411,"HCEP03730566","2024-07-09 19:15:00","9.8534","3.25087","27.961","3.334","7.5","1.584","2.89","0.43","0.14","29.4603","4.66364","35.54","0","SATNPRO1509","28.716","0.40222","5"],
    [27412,"HCEP03730566","2024-07-09 19:30:00","9.8535","3.25093","27.979","3.364","7.5","1.458","2.728","0.18","0.17","29.4608","4.66371","35.87","0","SATNPRO1509","28.602","0.40064","5"],
    [27413,"HCEP03730566","2024-07-09 19:45:00","9.8537","3.25086","28.012","3.351","7.5","1.583","2.991","0.18","0.16","29.4599","4.66359","35.72","0","SATNPRO1509","28.654","0.40134","5"],
    [27414,"HCEP03730566","2024-07-09 20:00:00","9.8534","3.25066","27.984","3.341","7.5","1.599","3.133","0.34","0.2","29.4582","4.66334","35.61","0","SATNPRO1509","28.798","0.40338","5"],
    [27415,"HCEP03730566","2024-07-09 20:15:00","9.8531","3.25064","27.977","3.341","7.5","1.508","2.866","0.16","0.11","29.4583","4.66335","35.62","0","SATNPRO1509","28.862","0.40424","5"],
    [27416,"HCEP03730566","2024-07-09 20:30:00","9.8533","3.25064","28.022","3.326","7.5","1.647","3.523","0.18","0.3","29.4581","4.66332","35.45","0","SATNPRO1509","28.554000000000002","0.39996","5"],
    [27417,"HCEP03730566","2024-07-09 20:45:00","9.8523","3.25043","27.928","3.312","7.5","1.462","2.867","0.15","0.25","29.4568","4.66315","35.3","0","SATNPRO1509","29.146","0.40824","5"],
    [27418,"HCEP03730566","2024-07-09 21:00:00","9.8522","3.25029","27.972","3.351","7.5","1.261","2.3","0.17","0.1","29.4554","4.66296","35.72","0","SATNPRO1509","28.97","0.4058","5"],
    [27419,"HCEP03730566","2024-07-09 21:15:00","9.8528","3.25059","27.921","3.367","7.5","1.264","2.559","0.14","0.14","29.458","4.66331","35.89","0","SATNPRO1509","28.830000000000002","0.40382","5"],
    [27420,"HCEP03730566","2024-07-09 21:30:00","9.8517","3.25019","27.795","3.353","7.5","1.254","2.106","0.28","0.11","29.4549","4.66288","35.75","0","SATNPRO1509","29.046","0.40684","5"],
    [27421,"HCEP03730566","2024-07-09 21:45:00","9.8514","3.25012","27.827","3.366","7.5","1.331","2.18","0.26","0.4","29.4544","4.66282","35.89","0","SATNPRO1509","29.06","0.40702","5"],
    [27422,"HCEP03730566","2024-07-09 22:00:00","9.8515","3.25026","27.755","3.361","7.5","1.219","2.209","0.15","0.08","29.4558","4.66301","35.82","0","SATNPRO1509","28.808","0.4035","5"],
    [27423,"HCEP03730566","2024-07-09 22:15:00","9.8505","3.24965","27.661","3.355","7.5","1.194","2.073","0.14","0.08","29.4505","4.66227","35.76","0","SATNPRO1509","29.022","0.4065","5"],
    [27424,"HCEP03730566","2024-07-09 22:30:00","9.8527","3.25046","27.522","3.334","7.5","1.351","2.546","0.19","0.08","29.4569","4.66314","35.54","0","SATNPRO1509","28.612000000000002","0.40078","5"],
    [27425,"HCEP03730566","2024-07-09 22:45:00","9.8524","3.25048","27.491","3.295","7.5","1.397","2.506","0.25","0.11","29.4574","4.6632","35.13","0","SATNPRO1509","28.822","0.40366","5"],
    [27426,"HCEP03730566","2024-07-09 23:00:00","9.8523","3.25038","27.39","3.264","7.5","1.418","2.865","0.14","0.15","29.4565","4.66308","34.8","0","SATNPRO1509","28.616","0.40076","5"],
    [27427,"HCEP03730566","2024-07-09 23:15:00","9.8524","3.25043","27.28","3.24","7.49","1.443","3.089","0.17","0.14","29.4569","4.66313","34.54","0","SATNPRO1509","28.512","0.39934","5"],
    [27428,"HCEP03730566","2024-07-09 23:30:00","9.8509","3.24979","27.151","3.24","7.49","1.16","2.057","0.15","0.13","29.4517","4.66241","34.54","0","SATNPRO1509","28.624","0.40094","5"],
    [27429,"HCEP03730566","2024-07-09 23:45:00","9.8499","3.24917","27.043","3.251","7.49","1.253","2.176","0.25","0.08","29.4465","4.66167","34.66","0","SATNPRO1509","28.55","0.39988","5"],
    [27430,"HCEP03730566","2024-07-10 00:00:00","9.8509","3.24946","26.902","3.185","7.49","1.206","2.714","0.09","0.13","29.4486","4.66195","33.95","0","SATNPRO1509","28.349999999999998","0.3971","5"],
    [27431,"HCEP03730566","2024-07-10 00:15:00","9.85","3.24892","26.818","3.154","7.49","1.132","2.143","0.19","0.08","29.4439","4.66128","33.62","0","SATNPRO1509","28.496","0.39914","5"],
    [27432,"HCEP03730566","2024-07-10 00:30:00","9.8515","3.24983","26.682","3.15","7.49","1.169","2.533","0.13","0.1","29.4519","4.66239","33.57","0","SATNPRO1509","28.328","0.39676","5"],
    [27433,"HCEP03730566","2024-07-10 00:45:00","9.8515","3.24985","26.581","3.17","7.49","1.097","2.307","0.16","0.06","29.4522","4.66243","33.79","0","SATNPRO1509","28.387999999999998","0.39762","5"],
    [27434,"HCEP03730566","2024-07-10 01:00:00","9.8509","3.24948","26.474","3.18","7.49","1.074","2.294","0.11","0.09","29.449","4.66198","33.89","0","SATNPRO1509","28.38","0.39752","5"],
    [27435,"HCEP03730566","2024-07-10 01:15:00","9.8512","3.24966","26.399","3.182","7.49","1.063","2.543","0.13","0.1","29.4505","4.66219","33.92","0","SATNPRO1509","28.378","0.39748","5"],
    [27436,"HCEP03730566","2024-07-10 01:30:00","9.8528","3.25051","26.335","3.144","7.48","1.308","3.558","0.24","0.15","29.4578","4.66319","33.52","0","SATNPRO1509","28.099999999999998","0.3936","5"],
    [27437,"HCEP03730566","2024-07-10 01:45:00","9.853","3.25056","26.36","3.114","7.48","1.312","3.048","0.13","0.1","29.4582","4.66324","33.2","0","SATNPRO1509","28.328","0.3968","5"],
    [27438,"HCEP03730566","2024-07-10 02:00:00","9.8537","3.25085","26.371","3.05","7.48","1.381","3.725","0.17","0.11","29.4605","4.66358","32.51","0","SATNPRO1509","27.646","0.38722","5"],
    [27439,"HCEP03730566","2024-07-10 02:15:00","9.8535","3.25085","26.33","2.979","7.47","1.319","3.795","0.13","0.14","29.4606","4.66358","31.76","0","SATNPRO1509","27.881999999999998","0.39056","5"],
    [27440,"HCEP03730566","2024-07-10 02:30:00","9.8527","3.25056","26.35","3.033","7.47","1.029","2.655","0.09","0.1","29.4584","4.66329","32.33","0","SATNPRO1509","28.474","0.39886","5"],
    [27441,"HCEP03730566","2024-07-10 02:45:00","9.8521","3.25024","26.315","3.159","7.48","0.9","2.348","0.09","0.06","29.4556","4.6629","33.67","0","SATNPRO1509","28.528","0.39958","5"],
    [27442,"HCEP03730566","2024-07-10 03:00:00","9.8519","3.25016","26.395","3.236","7.49","0.844","2.321","0.08","0.08","29.4551","4.66283","34.49","0","SATNPRO1509","28.5","0.3992","5"],
    [27443,"HCEP03730566","2024-07-10 03:15:00","9.8524","3.25048","26.409","3.249","7.49","0.881","2.761","0.11","0.14","29.4578","4.6632","34.63","0","SATNPRO1509","28.578","0.4003","5"],
    [27444,"HCEP03730566","2024-07-10 03:30:00","9.8548","3.2512","26.502","3.113","7.48","0.942","3.554","0.07","0.1","29.4631","4.66392","33.19","0","SATNPRO1509","27.676000000000002","0.38768","5"],
    [27445,"HCEP03730566","2024-07-10 03:45:00","9.8551","3.25157","26.488","3.037","7.48","0.969","3.91","0.12","0.19","29.4665","4.66441","32.38","0","SATNPRO1509","27.956","0.39156","5"],
    [27446,"HCEP03730566","2024-07-10 04:00:00","9.8538","3.25096","26.542","3.19","7.48","0.789","2.193","0.12","0.07","29.4615","4.66372","34.01","0","SATNPRO1509","28.85","0.40406","5"],
    [27447,"HCEP03730566","2024-07-10 04:15:00","9.8559","3.25188","26.624","3.252","7.49","0.827","3.058","0.08","0.11","29.4688","4.66474","34.67","0","SATNPRO1509","28.63","0.40102","5"],
    [27448,"HCEP03730566","2024-07-10 04:30:00","9.855","3.25156","26.643","3.305","7.49","0.883","3","0.13","0.12","29.4664","4.66441","35.24","0","SATNPRO1509","28.994","0.4061","5"],
    [27449,"HCEP03730566","2024-07-10 04:45:00","9.8579","3.25238","26.711","3.313","7.5","1.041","9.503","0.3","14.13","29.4722","4.66519","35.32","0","SATNPRO1509","28.286","0.3962","5"],
    [27450,"HCEP03730566","2024-07-10 05:00:00","9.8586","3.25239","26.783","3.266","7.49","0.931","3.951","0.13","0.07","29.4717","4.66511","34.83","0","SATNPRO1509","28.806","0.40348","5"],
    [27451,"HCEP03730566","2024-07-10 05:15:00","9.8592","3.25253","26.835","3.336","7.5","1.105","5.876","0.3","0.08","29.4726","4.66524","35.57","0","SATNPRO1509","28.528","0.3996","5"],
    [27452,"HCEP03730566","2024-07-10 05:30:00","9.8598","3.25275","26.9","3.293","7.5","1.157","9.407","0.2","0.1","29.4743","4.66547","35.12","0","SATNPRO1509","28.388","0.39762","5"],
    [27453,"HCEP03730566","2024-07-10 05:45:00","9.8636","3.25269","26.963","3.377","7.5","1.013","14.26","0.18","0.12","29.4706","4.66487","36.01","0","SATNPRO1509","29.022","0.40652","5"],
    [27454,"HCEP03730566","2024-07-10 06:00:00","9.862","3.25254","27.028","3.426","7.5","1.247","19.29","0.34","0.11","29.4704","4.66489","36.53","0","SATNPRO1509","28.384","0.39762","5"],
    [27455,"HCEP03730566","2024-07-10 06:15:00","9.8628","3.25266","27.056","3.354","7.5","1.231","23.329","0.34","0.17","29.4709","4.66494","35.76","0","SATNPRO1509","28.434","0.39824","5"],
    [27456,"HCEP03730566","2024-07-10 06:30:00","9.8639","3.25261","27.1","3.363","7.5","1.07","27.525","0.22","0.09","29.4695","4.66472","35.86","0","SATNPRO1509","28.808","0.40352","5"],
    [27457,"HCEP03730566","2024-07-10 06:45:00","9.8646","3.25251","27.114","3.432","7.5","1.109","30.838","0.19","0.12","29.4679","4.66449","36.6","0","SATNPRO1509","29.018","0.40648","5"],
    [27458,"HCEP03730566","2024-07-10 07:00:00","9.8662","3.25229","27.129","3.446","7.5","1.135","31.645","0.41","0.12","29.4645","4.66397","36.75","0","SATNPRO1509","28.998","0.40616","5"],
    [27459,"HCEP03730566","2024-07-10 07:15:00","9.8648","3.25219","27.124","3.443","7.5","1.038","29.757","0.18","0.21","29.4646","4.664","36.72","0","SATNPRO1509","28.758","0.4028","5"],
    [27460,"HCEP03730566","2024-07-10 07:30:00","9.8603","3.25166","27.096","3.367","7.5","1.082","26.816","0.21","0.18","29.4629","4.66384","35.9","0","SATNPRO1509","28.268","0.39592","5"],
    [27461,"HCEP03730566","2024-07-10 07:45:00","9.8612","3.25119","27.065","3.21","7.49","1.085","23.381","0.14","0.11","29.4575","4.66305","34.23","0","SATNPRO1509","27.812","0.38956","5"],
    [27462,"HCEP03730566","2024-07-10 08:00:00","9.8607","3.2508","27.03","3.159","7.49","1.12","22.604","0.18","0.13","29.454","4.66256","33.69","0","SATNPRO1509","28.026","0.39258","5"],
    [27463,"HCEP03730566","2024-07-10 08:15:00","9.8592","3.25042","26.977","3.12","7.49","1.212","22.709","0.18","0.12","29.4514","4.66221","33.27","0","SATNPRO1509","27.896","0.39074","5"],
    [27464,"HCEP03730566","2024-07-10 08:30:00","9.858","3.25008","26.895","3.008","7.48","1.229","22.912","0.13","0.24","29.4491","4.6619","32.06","0","SATNPRO1509","27.682","0.3877","5"],
    [27465,"HCEP03730566","2024-07-10 08:45:00","9.8582","3.24989","26.795","2.936","7.47","1.176","22.165","0.14","0.14","29.447","4.66159","31.3","0","SATNPRO1509","27.75","0.3887","5"],
    [27466,"HCEP03730566","2024-07-10 09:00:00","9.8568","3.24956","26.725","2.857","7.47","1.276","23.776","0.16","0.16","29.4448","4.66129","30.46","0","SATNPRO1509","27.258","0.3818","5"],
    [27467,"HCEP03730566","2024-07-10 09:15:00","9.8574","3.24942","26.593","2.756","7.46","1.256","24.145","0.11","0.12","29.4431","4.66102","29.38","0","SATNPRO1509","27.292","0.38228","5"],
    [27468,"HCEP03730566","2024-07-10 09:30:00","9.8579","3.24934","26.441","2.774","7.45","1.401","23.451","0.36","0.22","29.4419","4.66084","29.58","0","SATNPRO1509","27.386","0.3836","5"],
    [27469,"HCEP03730566","2024-07-10 09:45:00","9.8579","3.24932","26.321","2.814","7.46","1.26","22.257","0.23","0.2","29.4417","4.6608","30","0","SATNPRO1509","27.362","0.38326","5"],
    [27470,"HCEP03730566","2024-07-10 10:00:00","9.8592","3.24938","26.158","2.944","7.46","1.535","21.732","0.15","0.18","29.4413","4.66072","31.38","0","SATNPRO1509","28.108","0.39372","5"],
    [27471,"HCEP03730566","2024-07-10 10:15:00","9.8611","3.2494","25.976","3.105","7.47","1.509","21.112","0.12","0.38","29.4401","4.6605","33.11","0","SATNPRO1509","27.887999999999998","0.39062","5"],
    [27472,"HCEP03730566","2024-07-10 10:30:00","9.8573","3.24884","25.88","2.925","7.47","1.529","16.377","0.25","0.22","29.4375","4.66019","31.18","0","SATNPRO1509","27.828","0.3898","5"],
    [27473,"HCEP03730566","2024-07-10 10:45:00","9.857","3.24852","25.747","2.691","7.45","1.492","14.298","0.4","0.23","29.4347","4.65978","28.69","0","SATNPRO1509","26.822","0.37568","5"],
    [27474,"HCEP03730566","2024-07-10 11:00:00","9.8586","3.24815","25.569","2.568","7.44","1.302","18.858","0.17","0.22","29.4297","4.65903","27.38","0","SATNPRO1509","27.192","0.38088","5"],
    [27475,"HCEP03730566","2024-07-10 11:15:00","9.8614","3.24784","25.445","2.642","7.44","1.299","23.421","0.29","0.28","29.4244","4.65822","28.17","0","SATNPRO1509","28.25","0.3957","5"],
    [27476,"HCEP03730566","2024-07-10 11:30:00","9.8631","3.2476","24.514","2.966","7.46","1.015","21.698","0.17","0.14","29.421","4.65765","31.62","0","SATNPRO1509","28.134","0.39406","5"],
    [27477,"HCEP03730560","2024-07-10 12:30:00","9.8847","3.25056","24.441","4.124","7.62","1.542","2.278","0.22","0.1","29.4331","4.65901","44","0","SATNPRO1962","24.042","0.33678","5"],
    [27478,"HCEP03730560","2024-07-10 12:45:00","9.8645","3.25072","24.367","3.347","7.61","1.46","2.284","0.22","0.13","29.4511","4.66193","35.68","0","SATNPRO1962","23.724","0.33228","5"],
    [27479,"HCEP03730560","2024-07-10 13:00:00","9.8658","3.25093","24.32","3.317","7.62","1.414","2.066","0.22","0.08","29.4523","4.66207","35.37","0","SATNPRO1962","24.64","0.3451","5"],
    [27480,"HCEP03730560","2024-07-10 13:15:00","9.8654","3.25223","24.338","3.381","7.62","1.514","2.341","0.23","0.09","29.4657","4.66399","36.06","0","SATNPRO1962","24.451999999999998","0.34248","5"],
    [27481,"HCEP03730560","2024-07-10 13:30:00","9.8679","3.25194","24.32","3.426","7.63","1.496","2.139","0.25","0.09","29.4606","4.66323","36.54","0","SATNPRO1962","24.978","0.34988","5"],
    [27482,"HCEP03730560","2024-07-10 13:45:00","9.8675","3.2522","24.377","3.496","7.63","1.505","2.433","0.21","0.11","29.4636","4.66366","37.29","0","SATNPRO1962","24.768","0.34694","5"],
    [27483,"HCEP03730560","2024-07-10 14:00:00","9.8658","3.25126","24.4","3.471","7.63","1.365","1.916","0.23","0.07","29.4555","4.66253","37.01","0","SATNPRO1962","24.752","0.34672","5"],
    [27484,"HCEP03730560","2024-07-10 14:15:00","9.866","3.2534","24.474","3.548","7.64","1.512","2.718","0.13","0.18","29.4768","4.66558","37.84","0","SATNPRO1962","25.201999999999998","0.35298","5"],
    [27485,"HCEP03730560","2024-07-10 14:30:00","9.8651","3.25409","24.53","3.51","7.63","1.735","3.468","0.2","0.24","29.4844","4.66669","37.43","0","SATNPRO1962","24.316","0.3406","5"],
    [27486,"HCEP03730560","2024-07-10 14:45:00","9.8674","3.25449","24.647","3.498","7.64","1.797","3.208","0.36","0.47","29.4865","4.66695","37.31","0","SATNPRO1962","24.43","0.3422","5"],
    [27487,"HCEP03730560","2024-07-10 15:00:00","9.8675","3.25469","24.742","3.535","7.64","1.865","3.323","0.39","0.25","29.4884","4.66723","37.7","0","SATNPRO1962","24.572","0.34418","5"],
    [27488,"HCEP03730560","2024-07-10 15:15:00","9.868","3.25487","24.898","3.533","7.64","1.872","3.507","0.27","0.23","29.4897","4.66742","37.69","0","SATNPRO1962","24.614","0.34476","5"],
    [27489,"HCEP03730560","2024-07-10 15:30:00","9.8689","3.2553","25.009","3.564","7.64","1.667","3.286","0.23","0.24","29.4933","4.66792","38.01","0","SATNPRO1962","24.74","0.34652","5"],
    [27490,"HCEP03730560","2024-07-10 15:45:00","9.869","3.25545","25.17","3.606","7.65","1.536","2.836","0.16","0.16","29.4947","4.66812","38.46","0","SATNPRO1962","24.914","0.34894","5"],
    [27491,"HCEP03730560","2024-07-10 16:00:00","9.8688","3.25552","25.34","3.59","7.64","1.585","3.202","0.21","0.13","29.4954","4.66824","38.29","0","SATNPRO1962","24.618","0.34478","5"],
    [27492,"HCEP03730560","2024-07-10 16:15:00","9.8687","3.25534","25.507","3.636","7.65","1.431","2.556","0.21","0.09","29.4936","4.668","38.79","0","SATNPRO1962","25.672","0.35956","5"],
    [27493,"HCEP03730560","2024-07-10 16:30:00","9.8687","3.25465","25.619","3.693","7.65","1.477","2.523","0.19","0.11","29.4867","4.66701","39.39","0","SATNPRO1962","25.456","0.35652","5"],
    [27494,"HCEP03730560","2024-07-10 16:45:00","9.8681","3.2547","25.806","3.651","7.65","1.684","2.955","0.3","0.25","29.4875","4.66715","38.94","0","SATNPRO1962","24.992","0.35004","5"],
    [27495,"HCEP03730560","2024-07-10 17:00:00","9.8691","3.25377","26.034","3.686","7.65","1.283","1.804","0.25","0.1","29.4773","4.66569","39.31","0","SATNPRO1962","25.356","0.35518","5"],
    [27496,"HCEP03730560","2024-07-10 17:15:00","9.8666","3.25479","26.277","3.599","7.64","1.702","3.369","0.34","0.18","29.4895","4.66749","38.38","0","SATNPRO1962","24.444","0.34238","5"],
    [27497,"HCEP03730560","2024-07-10 17:30:00","9.8672","3.25462","26.462","3.488","7.64","1.593","3.157","0.16","0.21","29.4873","4.66717","37.2","0","SATNPRO1962","24.560000000000002","0.34402","5"],
    [27498,"HCEP03730560","2024-07-10 17:45:00","9.8678","3.25509","26.653","3.478","7.63","1.646","3.708","0.21","0.19","29.4914","4.66775","37.1","0","SATNPRO1962","24.412","0.34194","5"],
    [27499,"HCEP03730560","2024-07-10 18:00:00","9.8686","3.25532","26.866","3.524","7.64","1.494","2.63","0.28","0.28","29.4929","4.66798","37.59","0","SATNPRO1962","25.084","0.3513","5"],
    [27500,"HCEP03730560","2024-07-10 18:15:00","9.8685","3.25546","26.985","3.637","7.65","1.293","2.098","0.26","0.1","29.4944","4.66819","38.8","0","SATNPRO1962","25.15","0.35228","5"],
    [27501,"HCEP03730560","2024-07-10 18:30:00","9.8689","3.25539","27.185","3.695","7.65","1.461","2.343","0.46","0.12","29.4933","4.66804","39.41","0","SATNPRO1962","25.266","0.35388","5"],
    [27502,"HCEP03730560","2024-07-10 18:45:00","9.869","3.25526","27.339","3.699","7.65","1.303","2.243","0.17","0.15","29.4918","4.66784","39.46","0","SATNPRO1962","25.082","0.35134","5"],
    [27503,"HCEP03730560","2024-07-10 19:00:00","9.8694","3.25508","27.489","3.686","7.65","1.394","2.361","0.36","0.09","29.4896","4.66753","39.32","0","SATNPRO1962","25.046","0.3508","5"],
    [27504,"HCEP03730560","2024-07-10 19:15:00","9.8695","3.25488","27.611","3.703","7.65","1.236","2.139","0.13","0.09","29.4874","4.66722","39.49","0","SATNPRO1962","25.228","0.35336","5"],
    [27505,"HCEP03730560","2024-07-10 19:30:00","9.8713","3.25474","27.673","3.756","7.66","1.129","1.815","0.15","0.07","29.4846","4.66679","40.06","0","SATNPRO1962","25.56","0.35804","5"],
    [27506,"HCEP03730560","2024-07-10 19:45:00","9.8758","3.25431","27.774","3.971","7.68","1.237","1.751","0.16","0.06","29.4766","4.66557","42.35","0","SATNPRO1962","26.11","0.36572","5"],
    [27507,"HCEP03730560","2024-07-10 20:00:00","9.8706","3.25449","27.758","3.918","7.66","1.29","2.479","0.13","0.08","29.4826","4.66651","41.79","0","SATNPRO1962","25.362000000000002","0.35528","5"],
    [27508,"HCEP03730560","2024-07-10 20:15:00","9.8701","3.25401","27.852","3.751","7.65","1.214","2.067","0.25","0.11","29.4782","4.66591","40","0","SATNPRO1962","25.272000000000002","0.35398","5"],
    [27509,"HCEP03730560","2024-07-10 20:30:00","9.8715","3.25364","27.837","3.781","7.66","1.141","1.591","0.19","0.1","29.4734","4.6652","40.33","0","SATNPRO1962","25.692","0.35986","5"],
    [27510,"HCEP03730560","2024-07-10 20:45:00","9.8674","3.25253","27.847","3.705","7.64","1.421","2.091","0.4","0.09","29.4656","4.66415","39.51","0","SATNPRO1962","24.844","0.348","5"],
    [27511,"HCEP03730560","2024-07-10 21:00:00","9.8648","3.25187","27.79","3.451","7.63","1.323","2.113","0.31","0.06","29.4611","4.66354","36.81","0","SATNPRO1962","24.572","0.34416","5"],
    [27512,"HCEP03730560","2024-07-10 21:15:00","9.8652","3.25151","27.765","3.321","7.62","1.386","2.086","0.18","0.06","29.4572","4.66298","35.41","0","SATNPRO1962","24.386","0.34158","5"],
    [27513,"HCEP03730560","2024-07-10 21:30:00","9.8651","3.25159","27.758","3.315","7.62","1.251","2.35","0.13","0.06","29.4581","4.66311","35.35","0","SATNPRO1962","24.326","0.34076","5"],
    [27514,"HCEP03730560","2024-07-10 21:45:00","9.8654","3.2532","27.743","3.281","7.61","1.341","3.244","0.12","0.11","29.4739","4.66537","34.99","0","SATNPRO1962","24.12","0.33782","5"],
    [27515,"HCEP03730560","2024-07-10 22:00:00","9.8644","3.25141","27.649","3.23","7.61","1.308","2.333","0.16","0.09","29.4568","4.66294","34.44","0","SATNPRO1962","24.338","0.34092","5"],
    [27516,"HCEP03730560","2024-07-10 22:15:00","9.8648","3.25071","27.64","3.195","7.61","1.251","2.145","0.11","0.08","29.4495","4.66188","34.06","0","SATNPRO1962","24.174","0.33858","5"],
    [27517,"HCEP03730560","2024-07-10 22:30:00","9.865","3.25077","27.541","3.113","7.6","1.277","2.111","0.13","0.07","29.45","4.66194","33.2","0","SATNPRO1962","24.018","0.3364","5"],
    [27518,"HCEP03730560","2024-07-10 22:45:00","9.8648","3.25066","27.42","3.038","7.59","1.428","2.15","0.36","0.08","29.449","4.6618","32.39","0","SATNPRO1962","23.89","0.33464","5"],
    [27519,"HCEP03730560","2024-07-10 23:00:00","9.8676","3.24949","27.271","3.004","7.59","1.277","2.057","0.17","0.1","29.4351","4.65975","32.03","0","SATNPRO1962","24.19","0.33884","5"],
    [27520,"HCEP03730560","2024-07-10 23:15:00","9.8689","3.24919","27.255","3.081","7.6","1.23","1.924","0.25","0.07","29.4311","4.65915","32.85","0","SATNPRO1962","24.483999999999998","0.34296","5"],
    [27521,"HCEP03730560","2024-07-10 23:30:00","9.8653","3.25042","27.123","3.1","7.59","1.244","2.053","0.7","0.09","29.4464","4.6614","33.06","0","SATNPRO1962","24.006","0.33622","5"],
    [27522,"HCEP03730560","2024-07-10 23:45:00","9.8656","3.25213","27.052","3.106","7.6","1.504","2.764","0.59","0.28","29.4633","4.6638","33.13","0","SATNPRO1962","24.268","0.3399","5"],
    [27523,"HCEP03730560","2024-07-11 00:00:00","9.866","3.25202","26.917","3.195","7.61","1.33","2.355","0.26","0.14","29.4619","4.6636","34.07","0","SATNPRO1962","24.348","0.34104","5"],
    [27524,"HCEP03730560","2024-07-11 00:15:00","9.8737","3.25281","26.789","3.395","7.63","1.321","2.351","0.21","0.14","29.4637","4.6637","36.21","0","SATNPRO1962","25.558","0.35792","5"],
    [27525,"HCEP03730560","2024-07-11 00:30:00","9.8761","3.25256","26.651","3.685","7.64","1.122","1.867","0.17","0.27","29.4593","4.66303","39.31","0","SATNPRO1962","25.349999999999998","0.35506","5"],
    [27526,"HCEP03730560","2024-07-11 00:45:00","9.8794","3.25322","26.505","3.737","7.65","1.675","2.611","0.55","0.31","29.4632","4.66353","39.87","0","SATNPRO1962","25.59","0.35842","5"],
    [27527,"HCEP03730560","2024-07-11 01:00:00","9.8794","3.25355","26.395","3.77","7.65","1.469","2.63","0.35","0.24","29.4666","4.664","40.22","0","SATNPRO1962","25.634","0.35908","5"],
    [27528,"HCEP03730560","2024-07-11 01:15:00","9.8819","3.25363","26.264","3.794","7.66","1.321","2.637","0.29","0.27","29.4653","4.66377","40.48","0","SATNPRO1962","25.454","0.35654","5"],
    [27529,"HCEP03730560","2024-07-11 01:30:00","9.8802","3.2538","26.142","3.75","7.65","1.391","3.019","0.26","0.28","29.4686","4.66426","40","0","SATNPRO1962","25.462","0.35666","5"],
    [27530,"HCEP03730560","2024-07-11 01:45:00","9.8759","3.2543","26.04","3.658","7.64","1.719","3.76","0.41","0.42","29.4771","4.66554","39.02","0","SATNPRO1962","25.09","0.3514","5"],
    [27531,"HCEP03730560","2024-07-11 02:00:00","9.8766","3.25436","25.972","3.595","7.64","1.642","3.793","0.66","0.84","29.4771","4.66553","38.34","0","SATNPRO1962","25.134","0.35204","5"],
    [27532,"HCEP03730560","2024-07-11 02:15:00","9.8763","3.25471","25.914","3.57","7.64","1.546","3.723","0.37","0.28","29.4809","4.66607","38.08","0","SATNPRO1962","25.003999999999998","0.3502","5"],
    [27533,"HCEP03730560","2024-07-11 02:30:00","9.8769","3.25489","25.889","3.567","7.64","1.433","3.447","0.23","0.19","29.4823","4.66626","38.05","0","SATNPRO1962","24.904","0.34888","5"],
    [27534,"HCEP03730560","2024-07-11 02:45:00","9.8767","3.2549","25.869","3.564","7.64","1.53","3.304","0.8","0.26","29.4825","4.66629","38.02","0","SATNPRO1962","24.686","0.34576","5"],
    [27535,"HCEP03730560","2024-07-11 03:00:00","9.8765","3.2547","25.874","3.557","7.64","1.312","3.239","0.19","0.58","29.4807","4.66604","37.95","0","SATNPRO1962","24.496","0.34312","5"],
    [27536,"HCEP03730560","2024-07-11 03:15:00","9.8751","3.2543","25.888","3.553","7.64","1.455","2.767","0.69","0.28","29.4778","4.66565","37.91","0","SATNPRO1962","24.934","0.34922","5"],
    [27537,"HCEP03730560","2024-07-11 03:30:00","9.8758","3.25445","25.928","3.547","7.64","1.294","2.719","0.39","0.13","29.4788","4.66578","37.83","0","SATNPRO1962","25.076","0.35122","5"],
    [27538,"HCEP03730560","2024-07-11 03:45:00","9.8761","3.25418","25.993","3.564","7.64","1.29","2.786","0.2","0.18","29.4757","4.66534","38.02","0","SATNPRO1962","25.078","0.3513","5"],
    [27539,"HCEP03730560","2024-07-11 04:00:00","9.8763","3.25445","26.002","3.568","7.64","1.189","2.641","0.26","0.15","29.4783","4.6657","38.07","0","SATNPRO1962","25.07","0.35118","5"],
    [27540,"HCEP03730560","2024-07-11 04:15:00","9.8767","3.25477","26.029","3.575","7.64","1.341","2.861","0.28","0.24","29.4811","4.6661","38.13","0","SATNPRO1962","24.994","0.3501","5"],
    [27541,"HCEP03730560","2024-07-11 04:30:00","9.8772","3.25514","26.068","3.581","7.64","1.209","2.608","0.33","0.13","29.4844","4.66656","38.2","0","SATNPRO1962","24.974","0.34984","5"],
    [27542,"HCEP03730560","2024-07-11 04:45:00","9.878","3.2554","26.11","3.593","7.64","1.216","2.694","0.29","0.22","29.4864","4.66684","38.33","0","SATNPRO1962","25.012","0.35032","5"],
    [27543,"HCEP03730560","2024-07-11 05:00:00","9.8785","3.25555","26.198","3.605","7.64","1.283","2.661","0.36","0.18","29.4874","4.66698","38.46","0","SATNPRO1962","25.022000000000002","0.35048","5"],
    [27544,"HCEP03730560","2024-07-11 05:15:00","9.8785","3.25561","26.25","3.607","7.64","1.256","2.667","0.26","0.13","29.488","4.66707","38.48","0","SATNPRO1962","24.906","0.34888","5"],
    [27545,"HCEP03730560","2024-07-11 05:30:00","9.8786","3.25575","26.295","3.585","7.64","1.408","3.059","0.29","0.18","29.4894","4.66726","38.24","0","SATNPRO1962","24.846","0.348","5"],
    [27546,"HCEP03730560","2024-07-11 05:45:00","9.8785","3.25574","26.354","3.572","7.64","1.369","2.908","0.26","0.13","29.4893","4.66726","38.11","0","SATNPRO1962","24.854","0.34812","5"],
    [27547,"HCEP03730560","2024-07-11 06:00:00","9.8787","3.2559","26.432","3.562","7.64","1.381","3.275","0.2","0.22","29.4907","4.66747","38","0","SATNPRO1962","24.686","0.34578","5"],
    [27548,"HCEP03730560","2024-07-11 06:15:00","9.879","3.25603","26.505","3.558","7.64","1.477","3.278","0.26","0.12","29.4917","4.66761","37.96","0","SATNPRO1962","24.82","0.34764","5"],
    [27549,"HCEP03730560","2024-07-11 06:30:00","9.8789","3.25584","26.556","3.579","7.64","1.221","2.646","0.25","0.12","29.4899","4.66735","38.18","0","SATNPRO1962","25.128","0.35196","5"],
    [27550,"HCEP03730560","2024-07-11 06:45:00","9.8791","3.25591","26.66","3.601","7.64","1.376","2.832","0.28","0.16","29.4904","4.66743","38.42","0","SATNPRO1962","25.142","0.35216","5"],
    [27551,"HCEP03730560","2024-07-11 07:00:00","9.8793","3.25572","26.667","3.613","7.64","1.35","3.029","0.19","0.12","29.4884","4.66713","38.55","0","SATNPRO1962","24.962","0.34966","5"],
    [27552,"HCEP03730560","2024-07-11 07:15:00","9.8789","3.2562","26.711","3.576","7.64","1.583","3.492","0.27","0.15","29.4933","4.66785","38.15","0","SATNPRO1962","24.68","0.34566","5"],
    [27553,"HCEP03730560","2024-07-11 07:30:00","9.8787","3.25624","26.742","3.531","7.64","1.459","3.256","0.26","0.15","29.4939","4.66795","37.68","0","SATNPRO1962","24.798000000000002","0.34732","5"],
    [27554,"HCEP03730560","2024-07-11 07:45:00","9.8792","3.25619","26.762","3.536","7.64","1.547","3.336","0.27","0.13","29.4931","4.66782","37.72","0","SATNPRO1962","24.652","0.3453","5"],
    [27555,"HCEP03730560","2024-07-11 08:00:00","9.8781","3.2563","26.746","3.51","7.63","1.459","3.494","0.18","0.22","29.495","4.66811","37.45","0","SATNPRO1962","24.522","0.34348","5"],
    [27556,"HCEP03730560","2024-07-11 08:15:00","9.8785","3.25616","26.761","3.474","7.63","1.435","3.473","0.14","0.12","29.4933","4.66786","37.06","0","SATNPRO1962","24.644","0.34516","5"],
    [27557,"HCEP03730560","2024-07-11 08:30:00","9.8787","3.25624","26.767","3.508","7.63","1.326","3.123","0.12","0.11","29.494","4.66795","37.42","0","SATNPRO1962","24.784","0.34714","5"],
    [27558,"HCEP03730560","2024-07-11 08:45:00","9.8791","3.25599","26.677","3.545","7.64","1.266","2.731","0.15","0.1","29.4911","4.66753","37.82","0","SATNPRO1962","24.97","0.34976","5"],
    [27559,"HCEP03730560","2024-07-11 09:00:00","9.8785","3.2562","26.615","3.569","7.64","1.166","2.721","0.12","0.11","29.4937","4.66791","38.08","0","SATNPRO1962","24.878","0.34848","5"],
    [27560,"HCEP03730560","2024-07-11 09:15:00","9.8779","3.25619","26.566","3.548","7.64","1.322","2.746","0.19","0.1","29.4942","4.66798","37.85","0","SATNPRO1962","24.764","0.34684","5"],
    [27561,"HCEP03730560","2024-07-11 09:30:00","9.8769","3.25601","26.503","3.499","7.63","1.349","2.928","0.29","0.09","29.4932","4.66786","37.33","0","SATNPRO1962","24.648","0.34522","5"],
    [27562,"HCEP03730560","2024-07-11 09:45:00","9.8756","3.2557","26.423","3.41","7.62","1.605","3.355","0.25","0.16","29.4912","4.66759","36.38","0","SATNPRO1962","24.342","0.34096","5"],
    [27563,"HCEP03730560","2024-07-11 10:00:00","9.8755","3.25534","26.355","3.359","7.62","1.389","3.142","0.17","0.19","29.4877","4.66709","35.83","0","SATNPRO1962","24.372","0.34136","5"],
    [27564,"HCEP03730560","2024-07-11 10:15:00","9.8753","3.25485","26.24","3.37","7.62","1.864","4.124","0.44","0.61","29.483","4.66641","35.95","0","SATNPRO1962","24.316","0.3406","5"],
    [27565,"HCEP03730560","2024-07-11 10:30:00","9.8757","3.25462","26.12","3.305","7.62","2.084","4.734","0.36","0.78","29.4804","4.66602","35.25","0","SATNPRO1962","24.35","0.34104","5"],
    [27566,"HCEP03730560","2024-07-11 10:45:00","9.8759","3.25425","25.983","3.3","7.62","2.083","4.412","0.35","0.64","29.4767","4.66548","35.2","0","SATNPRO1962","24.284","0.34016","5"],
    [27567,"HCEP03730560","2024-07-11 11:00:00","9.8746","3.25244","25.879","3.281","7.61","1.645","2.692","0.35","0.17","29.4595","4.66304","34.99","0","SATNPRO1962","24.53","0.34358","5"],
    [27568,"HCEP03730560","2024-07-11 11:15:00","9.8744","3.25114","25.732","3.273","7.62","1.439","2.164","0.43","0.17","29.4468","4.66122","34.91","0","SATNPRO1962","25.134","0.352","5"],
    [27569,"HCEP03730560","2024-07-11 11:30:00","9.875","3.25157","25.614","3.341","7.62","1.43","2.038","0.43","0.1","29.4506","4.66175","35.63","0","SATNPRO1962","25.282","0.35412","5"],
    [27570,"HCEP03730560","2024-07-11 11:45:00","9.8776","3.25247","25.467","3.497","7.63","1.481","2.426","0.41","0.26","29.4576","4.66269","37.3","0","SATNPRO1962","25.47","0.35674","5"],
    [27571,"HCEP03730560","2024-07-11 12:00:00","9.8762","3.25438","25.341","3.47","7.62","1.943","4.024","0.72","0.38","29.4779","4.66562","37.01","0","SATNPRO1962","24.504","0.34326","5"],
    [27572,"HCEP03730560","2024-07-11 12:15:00","9.8765","3.25421","25.199","3.389","7.62","1.752","3.601","0.37","0.34","29.476","4.66533","36.15","0","SATNPRO1962","24.654","0.34532","5"],
    [27573,"HCEP03730560","2024-07-11 12:30:00","9.8778","3.25287","25.082","3.494","7.63","1.4","2.733","0.37","0.37","29.4616","4.66324","37.27","0","SATNPRO1962","25.288","0.3542","5"],
    [27574,"HCEP03730560","2024-07-11 12:45:00","9.8773","3.25383","24.974","3.518","7.63","1.799","3","0.72","0.23","29.4717","4.66469","37.52","0","SATNPRO1962","25.358","0.35516","5"],
    [27575,"HCEP03730560","2024-07-11 13:00:00","9.877","3.25459","24.889","3.445","7.62","1.649","3.377","0.34","0.28","29.4795","4.66581","36.75","0","SATNPRO1962","24.998","0.3501","5"],
    [27576,"HCEP03730560","2024-07-11 13:15:00","9.8768","3.25511","24.808","3.366","7.62","1.817","3.847","0.3","0.21","29.485","4.66659","35.91","0","SATNPRO1962","24.222","0.33926","5"],
    [27577,"HCEP03730560","2024-07-11 13:30:00","9.8767","3.25527","24.776","3.305","7.62","1.672","3.897","0.3","0.15","29.4867","4.66683","35.26","0","SATNPRO1962","24.306","0.34044","5"],
    [27578,"HCEP03730560","2024-07-11 13:45:00","9.8769","3.2555","24.736","3.291","7.62","1.665","3.704","0.25","0.25","29.4888","4.66712","35.11","0","SATNPRO1962","24.154","0.33828","5"],
    [27579,"HCEP03730560","2024-07-11 14:00:00","9.8769","3.25565","24.732","3.304","7.62","1.509","3.757","0.18","0.3","29.4903","4.66734","35.24","0","SATNPRO1962","24.509999999999998","0.34328","5"],
    [27580,"HCEP03730560","2024-07-11 14:15:00","9.877","3.25581","24.732","3.306","7.62","1.448","3.213","0.24","0.16","29.4918","4.66756","35.27","0","SATNPRO1962","24.416","0.34202","5"],
    [27581,"HCEP03730560","2024-07-11 14:30:00","9.8777","3.25581","24.741","3.342","7.62","1.658","3.223","1.23","0.18","29.4913","4.66747","35.65","0","SATNPRO1962","24.696","0.34594","5"],
    [27582,"HCEP03730560","2024-07-11 14:45:00","9.8783","3.2555","24.781","3.412","7.63","1.275","3.023","0.14","0.23","29.4877","4.66694","36.4","0","SATNPRO1962","24.804","0.34744","5"],
    [27583,"HCEP03730560","2024-07-11 15:00:00","9.8778","3.25611","24.829","3.393","7.62","1.699","3.329","1.65","0.34","29.4941","4.66788","36.2","0","SATNPRO1962","24.446","0.3424","5"],
    [27584,"HCEP03730560","2024-07-11 15:15:00","9.8781","3.25625","24.945","3.357","7.62","1.44","3.253","0.42","0.22","29.4953","4.66804","35.82","0","SATNPRO1962","24.534","0.34364","5"],
    [27585,"HCEP03730560","2024-07-11 15:30:00","9.8779","3.2563","25.027","3.338","7.62","1.532","3.486","0.3","0.22","29.4959","4.66814","35.61","0","SATNPRO1962","24.462","0.34266","5"],
    [27586,"HCEP03730560","2024-07-11 15:45:00","9.878","3.25633","25.126","3.341","7.62","1.571","3.458","0.41","0.25","29.4961","4.66817","35.65","0","SATNPRO1962","24.471999999999998","0.34276","5"],
    [27587,"HCEP03730560","2024-07-11 16:00:00","9.8781","3.25639","25.241","3.349","7.62","1.382","3.268","0.15","0.18","29.4965","4.66824","35.73","0","SATNPRO1962","24.355999999999998","0.34114","5"],
    [27588,"HCEP03730560","2024-07-11 16:15:00","9.878","3.25651","25.382","3.333","7.62","1.398","3.1","0.16","0.18","29.4978","4.66843","35.56","0","SATNPRO1962","24.4","0.34176","5"],
    [27589,"HCEP03730560","2024-07-11 16:30:00","9.8778","3.25657","25.509","3.331","7.62","1.376","3.138","0.23","0.18","29.4985","4.66854","35.53","0","SATNPRO1962","24.342","0.34098","5"],
    [27590,"HCEP03730560","2024-07-11 16:45:00","9.8773","3.25652","25.648","3.329","7.62","1.439","3.093","0.31","0.19","29.4984","4.66854","35.52","0","SATNPRO1962","24.494","0.34304","5"],
    [27591,"HCEP03730560","2024-07-11 17:00:00","9.876","3.2563","25.804","3.302","7.61","1.478","3.214","0.24","0.18","29.4972","4.6684","35.23","0","SATNPRO1962","24.228","0.33934","5"],
    [27592,"HCEP03730560","2024-07-11 17:15:00","9.875","3.25603","25.982","3.245","7.61","1.603","3.537","0.32","0.23","29.4952","4.66815","34.62","0","SATNPRO1962","24.072","0.33716","5"],
    [27593,"HCEP03730560","2024-07-11 17:30:00","9.8731","3.25545","26.176","3.137","7.6","1.774","3.827","0.55","0.26","29.4908","4.66756","33.46","0","SATNPRO1962","23.714000000000002","0.33214","5"],
    [27594,"HCEP03730560","2024-07-11 17:45:00","9.8719","3.25527","26.337","3.016","7.59","1.81","3.987","0.3","0.33","29.4899","4.66746","32.18","0","SATNPRO1962","23.602","0.3306","5"],
    [27595,"HCEP03730560","2024-07-11 18:00:00","9.8717","3.25506","26.51","2.99","7.59","1.913","3.642","0.8","0.31","29.488","4.66719","31.9","0","SATNPRO1962","23.748","0.33266","5"],
    [27596,"HCEP03730560","2024-07-11 18:15:00","9.8739","3.25476","26.696","3.096","7.6","1.579","2.948","0.25","0.17","29.483","4.66647","33.02","0","SATNPRO1962","24.266000000000002","0.33984","5"],
    [27597,"HCEP03730560","2024-07-11 18:30:00","9.8746","3.25455","26.857","3.246","7.61","1.456","2.891","0.23","0.12","29.4803","4.66607","34.62","0","SATNPRO1962","24.194","0.33888","5"],
    [27598,"HCEP03730560","2024-07-11 18:45:00","9.8723","3.25443","26.997","3.198","7.6","1.637","2.925","0.57","0.13","29.4809","4.66621","34.11","0","SATNPRO1962","24.02","0.3364","5"],
    [27599,"HCEP03730560","2024-07-11 19:00:00","9.8744","3.25431","27.185","3.2","7.61","1.372","2.672","0.18","0.17","29.4779","4.66575","34.14","0","SATNPRO1962","24.254","0.33972","5"],
    [27600,"HCEP03730560","2024-07-11 19:15:00","9.8772","3.25431","27.334","3.375","7.62","1.399","2.313","0.41","0.11","29.4756","4.66538","36.01","0","SATNPRO1962","24.490000000000002","0.34306","5"],
    [27601,"HCEP03730560","2024-07-11 19:30:00","9.878","3.25435","27.438","3.496","7.63","1.181","1.888","0.17","0.06","29.4753","4.66533","37.29","0","SATNPRO1962","25.52","0.35744","5"],
    [27602,"HCEP03730560","2024-07-11 19:45:00","9.8747","3.25398","27.546","3.375","7.61","1.333","2.206","0.37","0.11","29.4743","4.66526","36","0","SATNPRO1962","25.336","0.35486","5"],
    [27603,"HCEP03730560","2024-07-11 20:00:00","9.8735","3.25381","27.67","3.216","7.6","1.342","2.393","0.24","0.13","29.4735","4.66516","34.31","0","SATNPRO1962","24.226000000000003","0.3393","5"],
    [27604,"HCEP03730560","2024-07-11 20:15:00","9.8705","3.25342","27.727","2.965","7.58","1.387","2.504","0.23","0.1","29.472","4.665","31.62","0","SATNPRO1962","23.838","0.33388","5"],
    [27605,"HCEP03730560","2024-07-11 20:30:00","9.8699","3.25349","27.793","2.809","7.57","1.415","2.765","0.13","0.09","29.4732","4.66519","29.96","0","SATNPRO1962","23.38","0.32748","5"],
    [27606,"HCEP03730560","2024-07-11 20:45:00","9.8716","3.25337","27.728","2.853","7.58","1.46","2.618","0.33","0.16","29.4706","4.66478","30.43","0","SATNPRO1962","23.724","0.33228","5"],
    [27607,"HCEP03730560","2024-07-11 21:00:00","9.8702","3.25327","27.738","2.828","7.57","1.383","2.761","0.13","0.1","29.4707","4.66483","30.16","0","SATNPRO1962","23.236","0.32546","5"],
    [27608,"HCEP03730560","2024-07-11 21:15:00","9.8696","3.25342","27.789","2.736","7.57","1.431","2.74","0.2","0.1","29.4727","4.66512","29.18","0","SATNPRO1962","23.268","0.32586","5"],
    [27609,"HCEP03730560","2024-07-11 21:30:00","9.8702","3.25348","27.771","2.755","7.57","1.352","2.671","0.2","0.08","29.4728","4.66512","29.38","0","SATNPRO1962","23.631999999999998","0.331","5"],
    [27610,"HCEP03730560","2024-07-11 21:45:00","9.8705","3.25369","27.792","2.82","7.57","1.406","2.582","0.13","0.09","29.4746","4.66539","30.08","0","SATNPRO1962","23.676","0.33166","5"],
    [27611,"HCEP03730560","2024-07-11 22:00:00","9.8709","3.25451","27.664","2.846","7.57","1.463","2.929","0.24","0.1","29.4827","4.66652","30.36","0","SATNPRO1962","23.561999999999998","0.33002","5"],
    [27612,"HCEP03730560","2024-07-11 22:15:00","9.872","3.25493","27.63","2.856","7.58","1.546","3.266","0.18","0.15","29.486","4.66698","30.47","0","SATNPRO1962","23.576","0.33024","5"],
    [27613,"HCEP03730560","2024-07-11 22:30:00","9.8725","3.25495","27.576","2.895","7.58","1.639","3.493","0.3","0.21","29.4858","4.66693","30.88","0","SATNPRO1962","24.29","0.3402","5"],
    [27614,"HCEP03730560","2024-07-11 22:45:00","9.8722","3.25504","27.499","2.884","7.58","1.669","3.76","0.18","0.15","29.487","4.6671","30.76","0","SATNPRO1962","23.482","0.32888","5"],
    [27615,"HCEP03730560","2024-07-11 23:00:00","9.8729","3.25525","27.46","2.952","7.59","1.424","3.215","0.14","0.19","29.4885","4.66731","31.49","0","SATNPRO1962","23.854","0.33412","5"],
    [27616,"HCEP03730560","2024-07-11 23:15:00","9.8783","3.25527","27.306","3.403","7.63","1.188","2.314","0.13","0.22","29.4843","4.66661","36.31","0","SATNPRO1962","25.736","0.36048","5"],
    [27617,"HCEP03730560","2024-07-11 23:30:00","9.8763","3.25535","27.203","3.707","7.64","1.14","1.96","0.32","0.14","29.4869","4.667","39.55","0","SATNPRO1962","25.866","0.36228","5"],
    [27618,"HCEP03730560","2024-07-11 23:45:00","9.8754","3.25562","27.115","3.581","7.63","1.22","2.039","0.41","0.12","29.4904","4.66751","38.2","0","SATNPRO1962","25.13","0.35204","5"],
    [27619,"HCEP03730560","2024-07-12 00:00:00","9.8754","3.25586","27.003","3.442","7.62","1.303","2.463","0.42","0.4","29.4927","4.66784","36.72","0","SATNPRO1962","24.637999999999998","0.34508","5"],
    [27620,"HCEP03730560","2024-07-12 00:15:00","9.8765","3.25588","26.865","3.389","7.62","1.203","2.406","0.23","0.14","29.4922","4.66774","36.16","0","SATNPRO1962","24.766","0.34696","5"],
    [27621,"HCEP03730560","2024-07-12 00:30:00","9.88","3.2559","26.757","3.424","7.62","1.076","2.284","0.27","0.12","29.4895","4.66729","36.53","0","SATNPRO1962","25.074","0.35122","5"],
    [27622,"HCEP03730560","2024-07-12 00:45:00","9.877","3.25594","26.628","3.411","7.62","1.232","2.661","0.58","0.3","29.4924","4.66775","36.39","0","SATNPRO1962","24.754","0.34676","5"],
    [27623,"HCEP03730560","2024-07-12 01:00:00","9.8759","3.25587","26.507","3.345","7.62","1.089","2.48","0.16","0.1","29.4927","4.6678","35.69","0","SATNPRO1962","24.726","0.34632","5"],
    [27624,"HCEP03730560","2024-07-12 01:15:00","9.8755","3.25586","26.318","3.296","7.61","1.383","3.007","0.3","0.15","29.4929","4.66783","35.16","0","SATNPRO1962","24.496","0.3431","5"],
    [27625,"HCEP03730560","2024-07-12 01:30:00","9.8754","3.25581","26.17","3.228","7.61","1.505","3.094","0.72","0.2","29.4925","4.66777","34.44","0","SATNPRO1962","24.404","0.34184","5"],
    [27626,"HCEP03730560","2024-07-12 01:45:00","9.8754","3.25585","26.035","3.2","7.6","1.48","3.3","0.8","0.33","29.4931","4.66783","34.14","0","SATNPRO1962","24.323999999999998","0.34068","5"],
    [27627,"HCEP03730560","2024-07-12 02:00:00","9.8752","3.25581","25.909","3.184","7.6","1.306","3.343","0.25","0.24","29.4928","4.66779","33.96","0","SATNPRO1962","24.242","0.33956","5"],
    [27628,"HCEP03730560","2024-07-12 02:15:00","9.8755","3.25605","25.815","3.186","7.6","1.24","3.203","0.16","0.26","29.4951","4.66811","33.99","0","SATNPRO1962","24.189999999999998","0.33884","5"],
    [27629,"HCEP03730560","2024-07-12 02:30:00","9.8755","3.2559","25.7","3.192","7.6","1.206","3.024","0.26","0.21","29.4936","4.66789","34.05","0","SATNPRO1962","24.532","0.34364","5"],
    [27630,"HCEP03730560","2024-07-12 02:45:00","9.8753","3.25511","25.636","3.218","7.6","1.255","2.43","0.36","0.16","29.4859","4.66679","34.33","0","SATNPRO1962","24.578","0.34426","5"],
    [27631,"HCEP03730560","2024-07-12 03:00:00","9.8751","3.25449","25.587","3.243","7.61","1.156","2.321","0.28","0.14","29.4798","4.66591","34.59","0","SATNPRO1962","24.804","0.34742","5"],
    [27632,"HCEP03730560","2024-07-12 03:15:00","9.8755","3.25489","25.539","3.229","7.6","1.15","2.497","0.21","0.17","29.4836","4.66645","34.44","0","SATNPRO1962","24.484","0.34298","5"],
    [27633,"HCEP03730560","2024-07-12 03:30:00","9.8755","3.2555","25.526","3.193","7.6","1.471","2.75","1.92","0.23","29.4896","4.6673","34.06","0","SATNPRO1962","24.404","0.3418","5"],
    [27634,"HCEP03730560","2024-07-12 03:45:00","9.8756","3.25565","25.531","3.184","7.6","1.569","2.919","0.85","0.29","29.4911","4.66751","33.96","0","SATNPRO1962","24.382","0.34148","5"],
    [27635,"HCEP03730560","2024-07-12 04:00:00","9.8759","3.25607","25.539","3.196","7.6","1.172","2.749","0.41","0.26","29.495","4.66807","34.09","0","SATNPRO1962","24.4","0.34178","5"],
    [27636,"HCEP03730560","2024-07-12 04:15:00","9.8767","3.25658","25.569","3.193","7.6","1.268","3.166","0.27","0.45","29.4995","4.6687","34.07","0","SATNPRO1962","24.216","0.3392","5"],
    [27637,"HCEP03730560","2024-07-12 04:30:00","9.8776","3.25663","25.601","3.209","7.6","1.548","2.853","0.61","0.12","29.4993","4.66866","34.23","0","SATNPRO1962","24.338","0.34088","5"],
    [27638,"HCEP03730560","2024-07-12 04:45:00","9.8778","3.25654","25.634","3.231","7.61","1.196","2.877","0.4","0.63","29.4981","4.6685","34.47","0","SATNPRO1962","24.416","0.34198","5"],
    [27639,"HCEP03730560","2024-07-12 05:00:00","9.8781","3.25677","25.685","3.223","7.61","1.288","2.757","0.26","0.07","29.5002","4.66879","34.38","0","SATNPRO1962","24.194","0.33888","5"],
    [27640,"HCEP03730560","2024-07-12 05:15:00","9.8785","3.25688","25.739","3.205","7.6","1.222","3.057","0.22","0.23","29.501","4.6689","34.2","0","SATNPRO1962","24.28","0.3401","5"],
    [27641,"HCEP03730560","2024-07-12 05:30:00","9.8804","3.25706","25.811","3.232","7.61","1.491","3.308","0.41","0.22","29.5012","4.6689","34.49","0","SATNPRO1962","24.384","0.34152","5"],
    [27642,"HCEP03730560","2024-07-12 05:45:00","9.88","3.25711","25.874","3.232","7.61","1.424","3.334","0.58","0.31","29.502","4.66902","34.49","0","SATNPRO1962","24.35","0.34108","5"],
    [27643,"HCEP03730560","2024-07-12 06:00:00","9.8835","3.25733","25.949","3.308","7.62","1.316","3.033","0.37","0.29","29.5013","4.66887","35.3","0","SATNPRO1962","24.733999999999998","0.34644","5"],
    [27644,"HCEP03730560","2024-07-12 06:15:00","9.8818","3.25732","26.026","3.324","7.61","1.587","3.37","0.77","0.27","29.5026","4.66908","35.47","0","SATNPRO1962","24.17","0.33852","5"],
    [27645,"HCEP03730560","2024-07-12 06:30:00","9.8843","3.2574","26.1","3.367","7.62","1.389","3.361","0.4","0.23","29.5013","4.66886","35.93","0","SATNPRO1962","24.464000000000002","0.34268","5"],
    [27646,"HCEP03730560","2024-07-12 06:45:00","9.8813","3.25732","26.159","3.348","7.61","1.447","3.461","0.24","0.29","29.5029","4.66915","35.73","0","SATNPRO1962","24.556","0.34392","5"],
    [27647,"HCEP03730560","2024-07-12 07:00:00","9.8827","3.25739","26.221","3.341","7.62","1.37","3.279","0.18","0.44","29.5024","4.66906","35.65","0","SATNPRO1962","24.808","0.34748","5"],
    [27648,"HCEP03730560","2024-07-12 07:15:00","9.8846","3.25737","26.286","3.41","7.62","1.499","2.712","0.46","0.22","29.5007","4.66878","36.39","0","SATNPRO1962","25.39","0.3556","5"],
    [27649,"HCEP03730560","2024-07-12 07:30:00","9.8839","3.25732","26.345","3.488","7.62","1.329","2.771","0.27","0.18","29.5007","4.6688","37.22","0","SATNPRO1962","25.323999999999998","0.35472","5"],
    [27650,"HCEP03730560","2024-07-12 07:45:00","9.884","3.25726","26.4","3.474","7.63","1.633","3.168","0.27","0.24","29.5001","4.66871","37.07","0","SATNPRO1962","25.49","0.35704","5"],
    [27651,"HCEP03730560","2024-07-12 08:00:00","9.8829","3.25718","26.446","3.453","7.62","1.874","3.638","0.55","0.37","29.5001","4.66874","36.84","0","SATNPRO1962","25.355999999999998","0.35512","5"],
    [27652,"HCEP03730560","2024-07-12 08:15:00","9.8825","3.25709","26.494","3.415","7.62","1.679","3.219","0.42","0.51","29.4995","4.66866","36.44","0","SATNPRO1962","24.978","0.34986","5"],
    [27653,"HCEP03730560","2024-07-12 08:30:00","9.8803","3.25695","26.534","3.366","7.61","1.779","3.479","0.4","0.28","29.4998","4.66874","35.91","0","SATNPRO1962","24.576","0.3442","5"],
    [27654,"HCEP03730560","2024-07-12 08:45:00","9.8784","3.25658","26.553","3.3","7.61","1.952","3.201","1.65","0.22","29.4977","4.66847","35.21","0","SATNPRO1962","24.598","0.34454","5"],
    [27655,"HCEP03730560","2024-07-12 09:00:00","9.8779","3.25551","26.569","3.292","7.61","1.696","2.506","0.82","0.17","29.4874","4.66702","35.12","0","SATNPRO1962","24.808","0.34748","5"],
    [27656,"HCEP03730560","2024-07-12 09:15:00","9.8767","3.25597","26.542","3.238","7.6","1.833","4.227","0.31","0.35","29.493","4.66784","34.54","0","SATNPRO1962","24.188","0.33884","5"],
    [27657,"HCEP03730560","2024-07-12 09:30:00","9.877","3.25616","26.54","3.164","7.6","1.702","3.848","0.39","0.41","29.4946","4.66805","33.75","0","SATNPRO1962","24.396","0.34172","5"],
    [27658,"HCEP03730560","2024-07-12 09:45:00","9.8766","3.25613","26.512","3.155","7.6","1.57","3.245","0.41","0.25","29.4947","4.66807","33.66","0","SATNPRO1962","24.43","0.34218","5"],
    [27659,"HCEP03730560","2024-07-12 10:00:00","9.877","3.25613","26.478","3.151","7.6","1.657","3.402","0.64","0.36","29.4943","4.66801","33.62","0","SATNPRO1962","24.338","0.3409","5"],
    [27660,"HCEP03730560","2024-07-12 10:15:00","9.8776","3.25646","26.422","3.173","7.6","1.935","3.071","1.66","0.28","29.4972","4.66842","33.85","0","SATNPRO1962","24.558","0.34394","5"],
    [27661,"HCEP03730560","2024-07-12 10:30:00","9.8789","3.2567","26.371","3.217","7.6","1.566","2.77","0.78","0.21","29.4986","4.66859","34.32","0","SATNPRO1962","24.804000000000002","0.34742","5"],
    [27662,"HCEP03730560","2024-07-12 10:45:00","9.8808","3.25697","26.286","3.274","7.61","1.283","2.592","0.28","0.13","29.4997","4.66871","34.93","0","SATNPRO1962","24.822","0.34764","5"],
    [27663,"HCEP03730560","2024-07-12 11:00:00","9.8807","3.25729","26.205","3.265","7.61","1.296","2.867","0.29","0.15","29.5031","4.6692","34.84","0","SATNPRO1962","24.764","0.34684","5"],
    [27664,"HCEP03730560","2024-07-12 11:15:00","9.8821","3.25768","26.134","3.278","7.61","1.439","2.898","0.31","0.21","29.5059","4.66956","34.98","0","SATNPRO1962","24.576","0.34424","5"],
    [27665,"HCEP03730560","2024-07-12 11:30:00","9.8828","3.25782","26.05","3.307","7.61","1.543","2.976","0.38","0.16","29.5068","4.66967","35.29","0","SATNPRO1962","24.82","0.34762","5"],
    [27666,"HCEP03730560","2024-07-12 11:45:00","9.8928","3.25814","25.965","3.521","7.64","1.267","2.338","0.4","0.21","29.5018","4.66878","37.58","0","SATNPRO1962","25.31","0.35452","5"],
    [27667,"HCEP03730560","2024-07-12 12:00:00","9.8965","3.25874","25.877","3.736","7.65","1.02","1.992","0.26","0.1","29.5048","4.66914","39.88","0","SATNPRO1962","26.116","0.36582","5"],
    [27668,"HCEP03730560","2024-07-12 12:15:00","9.9008","3.25872","25.792","3.854","7.66","1.508","1.891","0.81","0.22","29.5011","4.66854","41.14","0","SATNPRO1962","26.248","0.36762","5"],
    [27669,"HCEP03730560","2024-07-12 12:30:00","9.8972","3.25851","25.699","3.841","7.65","1.292","1.824","0.6","0.18","29.502","4.66873","40.99","0","SATNPRO1962","26.169999999999998","0.36654","5"],
    [27670,"HCEP03730560","2024-07-12 12:45:00","9.9019","3.25892","25.597","3.838","7.66","1.263","2.149","0.31","0.19","29.5023","4.66868","40.97","0","SATNPRO1962","26.408","0.36988","5"],
    [27671,"HCEP03730560","2024-07-12 13:00:00","9.9055","3.25854","25.502","3.961","7.67","0.996","1.849","0.16","0.12","29.4957","4.66766","42.29","0","SATNPRO1962","26.488","0.37102","5"],
    [27672,"HCEP03730560","2024-07-12 13:15:00","9.9008","3.25711","25.416","3.954","7.66","1.198","1.965","0.47","0.4","29.4852","4.66624","42.21","0","SATNPRO1962","26.174","0.36658","5"],
    [27673,"HCEP03730560","2024-07-12 13:30:00","9.9073","3.25962","25.339","3.982","7.67","2.086","2.766","2.23","0.66","29.5051","4.66897","42.51","0","SATNPRO1962","26.108","0.36576","5"],
    [27674,"HCEP03730560","2024-07-12 13:45:00","9.9056","3.25957","25.264","3.904","7.67","1.509","2.948","0.41","0.43","29.506","4.66912","41.68","0","SATNPRO1962","26.72","0.37426","5"],
    [27675,"HCEP03730560","2024-07-12 14:00:00","9.8928","3.25875","25.206","3.678","7.64","1.471","2.851","0.42","0.16","29.5082","4.66965","39.26","0","SATNPRO1962","24.846","0.348","5"],
    [27676,"HCEP03730560","2024-07-12 14:15:00","9.8926","3.25875","25.193","3.502","7.63","1.588","3.422","0.32","0.56","29.5084","4.66968","37.38","0","SATNPRO1962","25.098","0.35154","5"],
    [27677,"HCEP03730560","2024-07-12 14:30:00","9.8953","3.25903","25.111","3.549","7.64","1.228","2.725","0.2","0.14","29.5091","4.66973","37.88","0","SATNPRO1962","25.919999999999998","0.36304","5"],
    [27678,"HCEP03730560","2024-07-12 14:45:00","9.8954","3.259","25.139","3.568","7.64","1.244","2.4","0.23","0.09","29.5087","4.66967","38.09","0","SATNPRO1962","25.52","0.3574","5"],
    [27679,"HCEP03730560","2024-07-12 15:00:00","9.8939","3.25898","25.14","3.54","7.63","1.435","2.865","0.2","0.44","29.5096","4.66984","37.78","0","SATNPRO1962","23.8","0.33336","5"],
    [27680,"HCEP03730560","2024-07-12 15:15:00","9.8929","3.25889","25.164","3.496","7.63","1.448","2.954","0.21","0.17","29.5096","4.66985","37.32","0","SATNPRO1962","24.916","0.34898","5"],
    [27681,"HCEP03730560","2024-07-12 15:30:00","9.8934","3.2591","25.182","3.481","7.63","1.308","2.62","0.16","0.1","29.5112","4.67008","37.16","0","SATNPRO1962","24.936","0.34926","5"],
    [27682,"HCEP03730560","2024-07-12 15:45:00","9.8926","3.25899","25.241","3.494","7.62","1.405","2.679","0.24","0.09","29.5108","4.67003","37.29","0","SATNPRO1962","24.89","0.34864","5"],
    [27683,"HCEP03730560","2024-07-12 16:00:00","9.891","3.25852","25.317","3.438","7.62","1.457","3.032","0.33","0.23","29.5074","4.66958","36.69","0","SATNPRO1962","24.756","0.34676","5"],
    [27684,"HCEP03730560","2024-07-12 16:15:00","9.8912","3.25922","25.395","3.306","7.62","1.49","3.29","0.29","0.19","29.5142","4.67055","35.28","0","SATNPRO1962","24.448","0.34244","5"],
    [27685,"HCEP03730560","2024-07-12 16:30:00","9.8868","3.25861","25.515","3.296","7.6","1.609","3.838","0.27","0.24","29.5117","4.67027","35.17","0","SATNPRO1962","24.02","0.33648","5"],
    [27686,"HCEP03730560","2024-07-12 16:45:00","9.8923","3.25887","25.602","3.223","7.61","1.552","3.699","0.27","0.35","29.5097","4.6699","34.4","0","SATNPRO1962","24.832","0.34782","5"],
    [27687,"HCEP03730560","2024-07-12 17:00:00","9.8884","3.25875","25.741","3.273","7.61","1.628","3.77","0.25","0.29","29.5116","4.67024","34.93","0","SATNPRO1962","24.476","0.34282","5"],
    [27688,"HCEP03730560","2024-07-12 17:15:00","9.8914","3.25889","25.866","3.24","7.61","1.557","3.745","0.2","0.23","29.5105","4.67004","34.58","0","SATNPRO1962","24.952","0.34946","5"],
    [27689,"HCEP03730560","2024-07-12 17:30:00","9.8992","3.25922","25.992","3.396","7.63","1.638","3.383","0.37","0.24","29.5074","4.66948","36.25","0","SATNPRO1962","25.472","0.3568","5"],
    [27690,"HCEP03730560","2024-07-12 17:45:00","9.8948","3.25869","26.098","3.543","7.63","1.606","3.495","0.3","0.31","29.5056","4.6693","37.82","0","SATNPRO1962","24.898","0.34872","5"],
    [27691,"HCEP03730560","2024-07-12 18:00:00","9.8894","3.25831","26.247","3.374","7.61","1.558","3.666","0.18","0.28","29.5062","4.66948","36","0","SATNPRO1962","24.554000000000002","0.34396","5"],
    [27692,"HCEP03730560","2024-07-12 18:15:00","9.8916","3.25833","26.423","3.292","7.61","1.669","3.612","0.24","0.22","29.5046","4.66922","35.13","0","SATNPRO1962","24.482","0.34296","5"],
    [27693,"HCEP03730560","2024-07-12 18:30:00","9.8914","3.25823","26.56","3.31","7.61","1.663","3.393","0.43","0.27","29.5037","4.66911","35.32","0","SATNPRO1962","24.77","0.34696","5"],
    [27694,"HCEP03730560","2024-07-12 18:45:00","9.8993","3.25842","26.73","3.446","7.63","1.455","2.612","0.34","0.14","29.4991","4.66832","36.78","0","SATNPRO1962","25.352","0.3551","5"],
    [27695,"HCEP03730560","2024-07-12 19:00:00","9.8918","3.25801","26.881","3.478","7.62","1.357","2.741","0.19","0.18","29.5009","4.66873","37.12","0","SATNPRO1962","24.98","0.34988","5"],
    [27696,"HCEP03730560","2024-07-12 19:15:00","9.8814","3.2574","26.99","3.225","7.6","1.504","3.48","0.14","0.17","29.5033","4.66925","34.41","0","SATNPRO1962","24.054","0.33694","5"],
    [27697,"HCEP03730560","2024-07-12 19:30:00","9.8796","3.25716","27.149","3.035","7.59","1.382","3.279","0.16","0.21","29.5024","4.66916","32.38","0","SATNPRO1962","24.02","0.33644","5"],
    [27698,"HCEP03730560","2024-07-12 19:45:00","9.8793","3.25695","27.264","3","7.59","1.455","3.155","0.2","0.17","29.5005","4.6689","32.01","0","SATNPRO1962","24.026","0.3365","5"],
    [27699,"HCEP03730560","2024-07-12 20:00:00","9.8789","3.25685","27.398","2.974","7.58","1.4","3.197","0.19","0.16","29.4996","4.6688","31.73","0","SATNPRO1962","23.992","0.33602","5"],
    [27700,"HCEP03730560","2024-07-12 20:15:00","9.8788","3.25681","27.506","2.961","7.58","1.53","3.097","0.34","0.18","29.4993","4.66875","31.6","0","SATNPRO1962","23.95","0.33542","5"],
    [27701,"HCEP03730560","2024-07-12 20:30:00","9.879","3.25682","27.597","2.982","7.58","1.397","2.888","0.41","0.15","29.4992","4.66873","31.82","0","SATNPRO1962","24.034","0.33664","5"],
    [27702,"HCEP03730560","2024-07-12 20:45:00","9.8787","3.25679","27.653","2.996","7.58","1.542","2.648","0.42","0.13","29.4992","4.66875","31.97","0","SATNPRO1962","24.174","0.3386","5"],
    [27703,"HCEP03730560","2024-07-12 21:00:00","9.8785","3.25676","27.698","2.966","7.58","1.283","2.948","0.21","0.24","29.499","4.66872","31.64","0","SATNPRO1962","23.874","0.3344","5"],
    [27704,"HCEP03730560","2024-07-12 21:15:00","9.8784","3.25669","27.717","2.941","7.58","1.665","3.639","0.85","1.25","29.4983","4.66863","31.38","0","SATNPRO1962","23.84","0.33396","5"],
    [27705,"HCEP03730560","2024-07-12 21:30:00","9.8785","3.25661","27.72","2.921","7.58","1.273","2.808","0.24","0.39","29.4974","4.6685","31.16","0","SATNPRO1962","23.900000000000002","0.33472","5"],
    [27706,"HCEP03730560","2024-07-12 21:45:00","9.878","3.25654","27.716","2.905","7.57","1.262","2.604","0.21","0.13","29.4972","4.66847","30.99","0","SATNPRO1962","23.85","0.33404","5"],
    [27707,"HCEP03730560","2024-07-12 22:00:00","9.8791","3.25645","27.696","2.947","7.58","1.043","2.27","0.19","0.1","29.4953","4.66819","31.44","0","SATNPRO1962","24.259999999999998","0.33982","5"],
    [27708,"HCEP03730560","2024-07-12 22:15:00","9.879","3.25633","27.667","2.996","7.58","1.015","2.104","0.12","0.06","29.4942","4.66803","31.97","0","SATNPRO1962","24.43","0.3422","5"],
    [27709,"HCEP03730560","2024-07-12 22:30:00","9.8801","3.25621","27.62","3.051","7.59","2.014","2.322","1.17","0.61","29.4921","4.66771","32.55","0","SATNPRO1962","24.464","0.34262","5"],
    [27710,"HCEP03730560","2024-07-12 22:45:00","9.878","3.25612","27.568","2.938","7.57","1.153","2.38","0.14","0.11","29.493","4.66787","31.35","0","SATNPRO1962","23.756","0.33276","5"],
    [27711,"HCEP03730560","2024-07-12 23:00:00","9.8778","3.25604","27.499","2.774","7.56","1.357","2.952","0.24","0.13","29.4924","4.66779","29.59","0","SATNPRO1962","23.254","0.3257","5"],
    [27712,"HCEP03730560","2024-07-12 23:15:00","9.8778","3.25604","27.428","2.697","7.56","1.523","3.073","0.37","0.25","29.4924","4.66778","28.77","0","SATNPRO1962","23.322","0.32668","5"],
    [27713,"HCEP03730560","2024-07-12 23:30:00","9.8778","3.25605","27.336","2.668","7.56","1.585","2.917","0.43","0.12","29.4926","4.6678","28.46","0","SATNPRO1962","23.356","0.32714","5"],
    [27714,"HCEP03730560","2024-07-12 23:45:00","9.8775","3.25606","27.225","2.65","7.55","1.599","2.877","0.81","0.15","29.493","4.66785","28.27","0","SATNPRO1962","23.244","0.3256","5"],
    [27715,"HCEP03730560","2024-07-13 00:00:00","9.878","3.25609","27.124","2.641","7.55","1.388","2.86","0.28","0.17","29.4929","4.66782","28.17","0","SATNPRO1962","23.224","0.32528","5"],
    [27716,"HCEP03730560","2024-07-13 00:15:00","9.878","3.25611","27.008","2.629","7.55","1.444","2.974","0.48","0.23","29.4931","4.66785","28.05","0","SATNPRO1962","23.25","0.32568","5"],
    [27717,"HCEP03730560","2024-07-13 00:30:00","9.8783","3.2562","26.901","2.611","7.55","1.541","3.471","0.31","0.2","29.4939","4.66795","27.85","0","SATNPRO1962","23.002","0.32218","5"],
    [27718,"HCEP03730560","2024-07-13 00:45:00","9.8781","3.25624","26.754","2.584","7.55","1.544","3.167","0.35","0.25","29.4945","4.66803","27.57","0","SATNPRO1962","23.02","0.32246","5"],
    [27719,"HCEP03730560","2024-07-13 01:00:00","9.8785","3.2563","26.616","2.566","7.55","1.454","3.008","0.38","0.22","29.4947","4.66806","27.38","0","SATNPRO1962","23.132","0.32398","5"],
    [27720,"HCEP03730560","2024-07-13 01:15:00","9.8791","3.25638","26.472","2.57","7.55","1.49","3.118","0.5","0.13","29.4951","4.66809","27.42","0","SATNPRO1962","22.954","0.32152","5"],
    [27721,"HCEP03730560","2024-07-13 01:30:00","9.8793","3.25645","26.325","2.569","7.55","1.339","3.252","0.26","0.21","29.4958","4.66818","27.41","0","SATNPRO1962","23.018","0.3224","5"],
    [27722,"HCEP03730560","2024-07-13 01:45:00","9.8797","3.25655","26.17","2.56","7.54","1.177","3.115","0.16","0.26","29.4965","4.66826","27.31","0","SATNPRO1962","22.924","0.32108","5"],
    [27723,"HCEP03730560","2024-07-13 02:00:00","9.88","3.25673","26.018","2.541","7.54","1.437","3.449","0.74","0.3","29.4982","4.66848","27.11","0","SATNPRO1962","22.986","0.32196","5"],
    [27724,"HCEP03730560","2024-07-13 02:15:00","9.8806","3.25704","25.864","2.544","7.54","1.399","3.386","0.2","0.29","29.5008","4.66884","27.15","0","SATNPRO1962","22.7","0.31794","5"],
    [27725,"HCEP03730560","2024-07-13 02:30:00","9.8818","3.25713","25.732","2.566","7.55","1.318","3.144","0.4","0.41","29.5007","4.6688","27.38","0","SATNPRO1962","23.024","0.32252","5"],
    [27726,"HCEP03730560","2024-07-13 02:45:00","9.8807","3.25728","25.606","2.573","7.55","1.34","3.222","0.55","0.29","29.5032","4.66917","27.45","0","SATNPRO1962","22.784","0.31912","5"],
    [27727,"HCEP03730560","2024-07-13 03:00:00","9.8817","3.25777","25.499","2.62","7.55","1.398","3.19","0.5","0.15","29.5074","4.66974","27.96","0","SATNPRO1962","23.148","0.32422","5"],
    [27728,"HCEP03730560","2024-07-13 03:15:00","9.8825","3.2582","25.417","2.729","7.56","1.238","3.077","0.21","0.3","29.511","4.67025","29.12","0","SATNPRO1962","23.648","0.33124","5"],
    [27729,"HCEP03730560","2024-07-13 03:30:00","9.8817","3.25833","25.346","2.748","7.56","1.263","3.647","0.22","0.55","29.5131","4.67055","29.32","0","SATNPRO1962","23.162","0.3244","5"],
    [27730,"HCEP03730560","2024-07-13 03:45:00","9.8816","3.25844","25.309","2.723","7.56","1.227","3.103","0.29","0.15","29.5142","4.6707","29.06","0","SATNPRO1962","23.204","0.32498","5"],
    [27731,"HCEP03730560","2024-07-13 04:00:00","9.8818","3.25849","25.292","2.738","7.56","1.383","3.124","1.02","0.3","29.5145","4.67075","29.21","0","SATNPRO1962","23.246","0.3256","5"],
    [27732,"HCEP03730560","2024-07-13 04:15:00","9.8829","3.25861","25.291","2.798","7.57","1.5","2.721","0.94","0.14","29.515","4.67079","29.86","0","SATNPRO1962","23.708","0.33204","5"],
    [27733,"HCEP03730560","2024-07-13 04:30:00","9.882","3.25813","25.293","2.967","7.58","1.041","2.303","0.53","0.12","29.5108","4.67021","31.66","0","SATNPRO1962","24.726","0.34634","5"],
    [27734,"HCEP03730560","2024-07-13 04:45:00","9.887","3.25937","25.302","3.095","7.59","1.077","2.552","0.18","0.13","29.5192","4.67133","33.03","0","SATNPRO1962","24.974","0.34976","5"],
    [27735,"HCEP03730560","2024-07-13 05:00:00","9.8854","3.25936","25.331","3.097","7.58","1.183","3.223","0.2","0.26","29.5203","4.67151","33.05","0","SATNPRO1962","23.874","0.3344","5"],
    [27736,"HCEP03730560","2024-07-13 05:15:00","9.8859","3.25951","25.362","2.993","7.58","1.287","3.597","0.18","0.21","29.5214","4.67166","31.94","0","SATNPRO1962","23.768","0.33288","5"],
    [27737,"HCEP03730560","2024-07-13 05:30:00","9.8868","3.25985","25.404","3.022","7.59","1.418","3.581","0.49","0.36","29.5241","4.67204","32.25","0","SATNPRO1962","24.172","0.33854","5"],
    [27738,"HCEP03730560","2024-07-13 05:45:00","9.887","3.25981","25.45","3.046","7.58","1.234","3.434","0.16","0.2","29.5235","4.67196","32.5","0","SATNPRO1962","23.918","0.335","5"],
    [27739,"HCEP03730560","2024-07-13 06:00:00","9.887","3.25983","25.499","3.007","7.58","1.439","4.25","0.22","0.37","29.5237","4.67198","32.1","0","SATNPRO1962","23.752","0.33266","5"],
    [27740,"HCEP03730560","2024-07-13 06:15:00","9.8878","3.26011","25.566","3.094","7.59","1.633","3.674","0.41","0.31","29.5258","4.67228","33.03","0","SATNPRO1962","24.291999999999998","0.34026","5"],
    [27741,"HCEP03730560","2024-07-13 06:30:00","9.888","3.25988","25.636","3.115","7.59","1.701","4.072","0.44","0.36","29.5233","4.67192","33.25","0","SATNPRO1962","24.26","0.33978","5"],
    [27742,"HCEP03730560","2024-07-13 06:45:00","9.8882","3.26007","25.71","3.111","7.59","1.666","3.889","0.45","0.28","29.5251","4.67218","33.2","0","SATNPRO1962","24.264","0.33986","5"],
    [27743,"HCEP03730560","2024-07-13 07:00:00","9.8871","3.25957","25.778","2.997","7.58","2.351","4.424","2.92","0.78","29.5209","4.67159","31.99","0","SATNPRO1962","23.616","0.33078","5"],
    [27744,"HCEP03730560","2024-07-13 07:15:00","9.8882","3.25948","25.844","2.907","7.57","1.899","4.742","0.36","0.58","29.519","4.67131","31.03","0","SATNPRO1962","23.61","0.3307","5"],
    [27745,"HCEP03730560","2024-07-13 07:30:00","9.8894","3.25965","25.915","2.933","7.58","1.67","3.942","0.34","0.24","29.5198","4.67141","31.31","0","SATNPRO1962","23.704","0.33204","5"],
    [27746,"HCEP03730560","2024-07-13 07:45:00","9.8895","3.25961","26.018","2.952","7.58","1.611","4.159","0.29","0.87","29.5192","4.67133","31.51","0","SATNPRO1962","23.744","0.33258","5"],
    [27747,"HCEP03730560","2024-07-13 08:00:00","9.89","3.25951","26.018","2.925","7.57","1.655","4.223","0.34","0.33","29.5179","4.67113","31.22","0","SATNPRO1962","23.534","0.32962","5"],
    [27748,"HCEP03730560","2024-07-13 08:15:00","9.8905","3.25937","26.097","2.91","7.57","1.516","3.981","0.31","0.47","29.516","4.67086","31.06","0","SATNPRO1962","23.568","0.3301","5"],
    [27749,"HCEP03730560","2024-07-13 08:30:00","9.8905","3.25927","26.183","2.846","7.57","1.683","4.015","0.51","0.41","29.515","4.67072","30.38","0","SATNPRO1962","23.862","0.33422","5"],
    [27750,"HCEP03730560","2024-07-13 08:45:00","9.8904","3.25923","26.262","2.81","7.56","1.801","4.49","0.54","1.91","29.5146","4.67068","29.99","0","SATNPRO1962","23.402","0.3278","5"],
    [27751,"HCEP03730560","2024-07-13 09:00:00","9.8908","3.25932","26.331","2.815","7.57","1.81","3.42","0.6","0.1","29.5151","4.67074","30.04","0","SATNPRO1962","23.564","0.33004","5"],
    [27752,"HCEP03730560","2024-07-13 09:15:00","9.8907","3.25934","26.386","2.845","7.57","1.381","3.403","0.14","0.15","29.5153","4.67078","30.36","0","SATNPRO1962","23.574","0.3302","5"],
    [27753,"HCEP03730560","2024-07-13 09:30:00","9.8907","3.25934","26.429","2.849","7.57","1.393","3.41","0.33","0.24","29.5154","4.67079","30.41","0","SATNPRO1962","23.594","0.3305","5"],
    [27754,"HCEP03730560","2024-07-13 09:45:00","9.8907","3.2593","26.439","2.85","7.57","1.631","3.547","0.36","0.18","29.515","4.67073","30.42","0","SATNPRO1962","23.604","0.33062","5"],
    [27755,"HCEP03730560","2024-07-13 10:00:00","9.8902","3.25943","26.459","2.856","7.57","1.359","3.432","0.2","0.13","29.5166","4.67097","30.48","0","SATNPRO1962","23.696","0.33192","5"],
    [27756,"HCEP03730560","2024-07-13 10:15:00","9.8896","3.2595","26.448","2.878","7.57","1.466","3.389","0.4","0.21","29.5178","4.67115","30.72","0","SATNPRO1962","23.654","0.3313","5"],
    [27757,"HCEP03730560","2024-07-13 10:30:00","9.8897","3.2594","26.441","2.882","7.57","1.615","3.387","0.51","0.18","29.5168","4.671","30.76","0","SATNPRO1962","23.616","0.33078","5"],
    [27758,"HCEP03730560","2024-07-13 10:45:00","9.8902","3.25932","26.452","2.869","7.57","1.326","3.208","0.18","0.14","29.5156","4.67082","30.62","0","SATNPRO1962","23.664","0.33146","5"],
    [27759,"HCEP03730560","2024-07-13 11:00:00","9.8899","3.25934","26.451","2.872","7.57","1.501","3.225","0.5","0.24","29.516","4.6709","30.65","0","SATNPRO1962","23.608","0.33068","5"],
    [27760,"HCEP03730560","2024-07-13 11:15:00","9.8897","3.25933","26.436","2.874","7.57","2.279","3.269","2.24","0.33","29.5161","4.67091","30.68","0","SATNPRO1962","23.918","0.33502","5"],
    [27761,"HCEP03730560","2024-07-13 11:30:00","9.8897","3.25928","26.401","2.862","7.57","1.432","3.231","0.26","0.15","29.5156","4.67084","30.54","0","SATNPRO1962","23.614","0.33078","5"],
    [27762,"HCEP03730560","2024-07-13 11:45:00","9.8902","3.25918","26.364","2.841","7.56","1.286","2.988","0.24","0.12","29.5142","4.67062","30.32","0","SATNPRO1962","23.282","0.3261","5"],
    [27763,"HCEP03730560","2024-07-13 12:00:00","9.8887","3.25846","26.327","2.688","7.55","1.32","3.205","0.28","0.24","29.5082","4.66979","28.69","0","SATNPRO1962","22.86","0.32018","5"],
    [27764,"HCEP03730560","2024-07-13 12:15:00","9.8893","3.25861","26.277","2.59","7.55","1.396","3.069","0.26","0.13","29.5093","4.66993","27.64","0","SATNPRO1962","22.98","0.32192","5"],
    [27765,"HCEP03730560","2024-07-13 12:30:00","9.8883","3.2582","26.23","2.546","7.54","1.326","3.189","0.23","0.13","29.5059","4.66946","27.17","0","SATNPRO1962","22.71","0.31808","5"],
    [27766,"HCEP03730560","2024-07-13 12:45:00","9.889","3.25777","26.157","2.502","7.54","1.335","3.047","0.2","0.14","29.5011","4.66876","26.7","0","SATNPRO1962","23.048","0.32282","5"],
    [27767,"HCEP03730560","2024-07-13 13:00:00","9.8906","3.25765","26.124","2.522","7.54","1.35","2.988","0.32","0.14","29.4986","4.66838","26.92","0","SATNPRO1962","23.194","0.32488","5"],
    [27768,"HCEP03730560","2024-07-13 13:15:00","9.8877","3.25765","26.059","2.481","7.53","1.446","2.923","0.36","0.12","29.501","4.66877","26.48","0","SATNPRO1962","22.816","0.31954","5"],
    [27769,"HCEP03730560","2024-07-13 13:30:00","9.8875","3.2576","25.978","2.428","7.53","1.227","2.917","0.17","0.13","29.5007","4.66872","25.91","0","SATNPRO1962","22.786","0.31916","5"],
    [27770,"HCEP03730560","2024-07-13 13:45:00","9.8872","3.25744","25.921","2.423","7.53","1.277","2.828","0.12","0.08","29.4994","4.66853","25.86","0","SATNPRO1962","22.746000000000002","0.31856","5"],
    [27771,"HCEP03730560","2024-07-13 14:00:00","9.8867","3.25755","25.881","2.428","7.53","1.247","2.789","0.21","0.13","29.5009","4.66876","25.91","0","SATNPRO1962","22.906","0.32086","5"],
    [27772,"HCEP03730560","2024-07-13 14:15:00","9.8865","3.25778","25.84","2.463","7.53","1.431","2.837","0.35","0.12","29.5034","4.6691","26.29","0","SATNPRO1962","22.916","0.321","5"],
    [27773,"HCEP03730560","2024-07-13 14:30:00","9.8882","3.25901","25.764","2.568","7.55","1.626","3.763","0.24","0.13","29.5144","4.67065","27.41","0","SATNPRO1962","23.424","0.32806","5"],
    [27774,"HCEP03730560","2024-07-13 14:45:00","9.8878","3.25899","25.698","2.668","7.55","1.404","3.263","0.17","0.12","29.5144","4.67066","28.47","0","SATNPRO1962","23.338","0.32686","5"],
    [27775,"HCEP03730560","2024-07-13 15:00:00","9.8878","3.25921","25.694","2.701","7.55","1.492","3.32","0.26","0.12","29.5167","4.67098","28.82","0","SATNPRO1962","23.212","0.32514","5"],
    [27776,"HCEP03730560","2024-07-13 15:15:00","9.8878","3.25936","25.641","2.72","7.55","1.539","3.487","0.34","0.18","29.5182","4.67119","29.03","0","SATNPRO1962","23.542","0.32974","5"],
    [27777,"HCEP03730560","2024-07-13 15:30:00","9.8876","3.2596","25.648","2.758","7.56","1.522","3.489","0.24","0.16","29.5208","4.67157","29.43","0","SATNPRO1962","23.29","0.3262","5"],
    [27778,"HCEP03730560","2024-07-13 15:45:00","9.8878","3.2592","25.666","2.766","7.56","1.441","3.206","0.2","0.14","29.5167","4.67098","29.52","0","SATNPRO1962","23.48","0.3289","5"],
    [27779,"HCEP03730560","2024-07-13 16:00:00","9.8883","3.25968","25.688","2.829","7.57","1.417","3.138","0.27","0.16","29.521","4.67159","30.2","0","SATNPRO1962","23.918","0.33502","5"],
    [27780,"HCEP03730560","2024-07-13 16:15:00","9.8904","3.26082","25.705","2.984","7.58","1.57","3.401","0.25","0.17","29.5308","4.67295","31.85","0","SATNPRO1962","24.32","0.34062","5"],
    [27781,"HCEP03730560","2024-07-13 16:30:00","9.8915","3.26102","25.749","3.211","7.6","1.389","2.747","0.36","0.14","29.5319","4.67309","34.28","0","SATNPRO1962","25.244","0.35358","5"],
    [27782,"HCEP03730560","2024-07-13 16:45:00","9.8929","3.26147","25.814","3.492","7.62","1.993","2.603","1.95","0.39","29.5352","4.67354","37.28","0","SATNPRO1962","25.814","0.3616","5"],
    [27783,"HCEP03730560","2024-07-13 17:00:00","9.8934","3.26186","25.881","3.503","7.61","1.497","3.469","0.23","0.2","29.5386","4.67403","37.4","0","SATNPRO1962","25.208","0.35312","5"],
    [27784,"HCEP03730560","2024-07-13 17:15:00","9.8943","3.26211","25.969","3.37","7.61","1.603","3.246","0.56","0.29","29.5404","4.67427","35.98","0","SATNPRO1962","25.044","0.35082","5"],
    [27785,"HCEP03730560","2024-07-13 17:30:00","9.8949","3.26219","26.025","3.504","7.62","1.275","3.05","0.27","0.26","29.5407","4.6743","37.41","0","SATNPRO1962","25.642","0.35916","5"],
    [27786,"HCEP03730560","2024-07-13 17:45:00","9.8912","3.26099","26.114","3.523","7.62","1.352","2.334","0.32","0.15","29.5316","4.67308","37.6","0","SATNPRO1962","25.564","0.35808","5"],
    [27787,"HCEP03730560","2024-07-13 18:00:00","9.8943","3.262","26.192","3.494","7.62","1.477","3.019","0.25","0.16","29.5392","4.67412","37.3","0","SATNPRO1962","25.12","0.35186","5"],
    [27788,"HCEP03730560","2024-07-13 18:15:00","9.8946","3.26214","26.275","3.396","7.61","1.715","3.398","0.36","0.24","29.5404","4.67428","36.26","0","SATNPRO1962","24.721999999999998","0.34628","5"],
    [27789,"HCEP03730560","2024-07-13 18:30:00","9.8944","3.2621","26.402","3.351","7.61","1.834","3.655","1.03","0.3","29.54","4.67424","35.78","0","SATNPRO1962","24.558","0.34398","5"],
    [27790,"HCEP03730560","2024-07-13 18:45:00","9.8953","3.26218","26.547","3.359","7.61","1.635","3.204","0.27","0.27","29.54","4.67424","35.86","0","SATNPRO1962","24.98","0.34992","5"],
    [27791,"HCEP03730560","2024-07-13 19:00:00","9.8967","3.26232","26.628","3.463","7.62","1.538","3.158","0.17","0.18","29.5403","4.67426","36.97","0","SATNPRO1962","25.242","0.35354","5"],
    [27792,"HCEP03730560","2024-07-13 19:15:00","9.8968","3.26237","26.791","3.511","7.63","1.502","3.135","0.19","0.31","29.5406","4.67431","37.48","0","SATNPRO1962","25.114","0.35178","5"],
    [27793,"HCEP03730560","2024-07-13 19:30:00","9.8957","3.26212","26.925","3.537","7.62","1.661","3.507","0.27","0.2","29.539","4.67411","37.76","0","SATNPRO1962","25.216","0.3532","5"],
    [27794,"HCEP03730560","2024-07-13 19:45:00","9.895","3.26192","27.029","3.507","7.62","1.682","3.342","0.3","0.25","29.5374","4.6739","37.44","0","SATNPRO1962","25.432","0.35624","5"],
    [27795,"HCEP03730560","2024-07-13 20:00:00","9.8963","3.262","27.123","3.541","7.63","1.528","3.239","0.21","0.2","29.5372","4.67385","37.81","0","SATNPRO1962","25.674","0.35964","5"],
    [27796,"HCEP03730560","2024-07-13 20:15:00","9.8952","3.2618","27.248","3.532","7.62","1.709","3.402","0.26","0.24","29.5361","4.67371","37.7","0","SATNPRO1962","25.436","0.3563","5"],
    [27797,"HCEP03730560","2024-07-13 20:30:00","9.8946","3.2617","27.314","3.483","7.62","1.611","3.095","0.25","0.15","29.5355","4.67365","37.18","0","SATNPRO1962","25.189999999999998","0.35282","5"],
    [27798,"HCEP03730560","2024-07-13 20:45:00","9.8947","3.26166","27.419","3.431","7.62","1.676","3.037","0.24","0.21","29.535","4.67358","36.63","0","SATNPRO1962","25.058","0.351","5"],
    [27799,"HCEP03730560","2024-07-13 21:00:00","9.8943","3.26146","27.499","3.37","7.61","1.537","3.333","0.2","0.26","29.5333","4.67335","35.97","0","SATNPRO1962","24.828","0.34778","5"],
    [27800,"HCEP03730560","2024-07-13 21:15:00","9.8937","3.26117","27.566","3.271","7.6","1.564","3.243","0.22","0.15","29.5309","4.67302","34.92","0","SATNPRO1962","24.658","0.34542","5"],
    [27801,"HCEP03730560","2024-07-13 21:30:00","9.894","3.26089","27.596","3.176","7.59","1.936","3.761","0.6","0.22","29.5277","4.67255","33.9","0","SATNPRO1962","24.288","0.3402","5"],
    [27802,"HCEP03730560","2024-07-13 21:45:00","9.895","3.26074","27.627","3.138","7.59","1.976","3.675","0.46","0.35","29.5254","4.67221","33.5","0","SATNPRO1962","24.538","0.34368","5"],
    [27803,"HCEP03730560","2024-07-13 22:00:00","9.8957","3.26057","27.633","3.114","7.59","1.693","3.482","0.33","0.43","29.5232","4.67188","33.24","0","SATNPRO1962","24.362","0.34126","5"],
    [27804,"HCEP03730560","2024-07-13 22:15:00","9.8968","3.26043","27.639","3.087","7.58","1.785","3.439","0.25","0.27","29.5209","4.67154","32.96","0","SATNPRO1962","24.387999999999998","0.34158","5"],
    [27805,"HCEP03730560","2024-07-13 22:30:00","9.8974","3.2604","27.632","3.064","7.58","1.954","3.555","0.52","0.4","29.5201","4.67141","32.71","0","SATNPRO1962","24.328","0.34076","5"],
    [27806,"HCEP03730560","2024-07-13 22:45:00","9.8985","3.2603","27.613","3.043","7.58","1.852","3.399","0.38","0.35","29.5181","4.67111","32.48","0","SATNPRO1962","24.314","0.34058","5"],
    [27807,"HCEP03730560","2024-07-13 23:00:00","9.8992","3.26023","27.575","3.007","7.58","2.013","3.337","0.67","0.27","29.5169","4.67093","32.1","0","SATNPRO1962","24.408","0.34186","5"],
    [27808,"HCEP03730560","2024-07-13 23:15:00","9.9007","3.26016","27.531","2.991","7.58","1.791","3.248","0.28","0.28","29.515","4.67062","31.93","0","SATNPRO1962","24.142","0.33816","5"],
    [27809,"HCEP03730560","2024-07-13 23:30:00","9.9024","3.26005","27.475","2.978","7.57","1.761","3.221","0.29","0.16","29.5125","4.67024","31.79","0","SATNPRO1962","24.172","0.33854","5"],
    [27810,"HCEP03730560","2024-07-13 23:45:00","9.9038","3.25996","27.429","2.961","7.57","1.961","2.974","0.34","0.08","29.5105","4.66992","31.61","0","SATNPRO1962","24.188","0.33878","5"],
    [27811,"HCEP03730560","2024-07-14 00:00:00","9.9043","3.25991","27.344","2.947","7.57","2.095","3.245","0.59","0.2","29.5096","4.66979","31.47","0","SATNPRO1962","24.002","0.33616","5"],
    [27812,"HCEP03730560","2024-07-14 00:15:00","9.9031","3.25993","27.214","2.885","7.57","1.894","3.257","0.24","0.09","29.5109","4.66998","30.8","0","SATNPRO1962","24.082","0.33734","5"],
    [27813,"HCEP03730560","2024-07-14 00:30:00","9.9032","3.25992","27.113","2.852","7.56","1.964","3.439","0.3","0.13","29.5108","4.66995","30.45","0","SATNPRO1962","23.918","0.33504","5"],
    [27814,"HCEP03730560","2024-07-14 00:45:00","9.9026","3.25996","27","2.853","7.56","1.888","3.184","0.17","0.13","29.5117","4.67009","30.46","0","SATNPRO1962","24.054000000000002","0.33686","5"],
    [27815,"HCEP03730560","2024-07-14 01:00:00","9.9015","3.26004","26.862","2.869","7.57","1.779","3.326","0.29","0.15","29.5134","4.67034","30.63","0","SATNPRO1962","24.168","0.33854","5"],
    [27816,"HCEP03730560","2024-07-14 01:15:00","9.9013","3.26008","26.734","2.89","7.57","1.791","3.138","0.3","0.14","29.514","4.67043","30.85","0","SATNPRO1962","24.108","0.3377","5"],
    [27817,"HCEP03730560","2024-07-14 01:30:00","9.9011","3.26011","26.573","2.911","7.57","1.782","3.034","0.32","0.17","29.5145","4.6705","31.08","0","SATNPRO1962","24.188","0.3388","5"],
    [27818,"HCEP03730560","2024-07-14 01:45:00","9.9004","3.26015","26.42","2.932","7.57","1.84","3.098","0.48","0.53","29.5156","4.67065","31.3","0","SATNPRO1962","24.182","0.3387","5"],
    [27819,"HCEP03730560","2024-07-14 02:00:00","9.9009","3.26012","26.265","2.949","7.57","1.693","3.086","0.54","0.31","29.5149","4.67054","31.48","0","SATNPRO1962","24.18","0.3387","5"],
    [27820,"HCEP03730560","2024-07-14 02:15:00","9.9014","3.26011","26.106","2.964","7.57","1.446","3.044","0.16","0.2","29.5145","4.67046","31.65","0","SATNPRO1962","24.626","0.34492","5"],
    [27821,"HCEP03730560","2024-07-14 02:30:00","9.9019","3.26011","25.93","2.999","7.58","1.553","2.717","0.31","0.21","29.5142","4.6704","32.02","0","SATNPRO1962","24.439999999999998","0.34232","5"],
    [27822,"HCEP03730560","2024-07-14 02:45:00","9.9023","3.26017","25.759","3.066","7.58","1.701","2.586","0.72","0.11","29.5145","4.67042","32.74","0","SATNPRO1962","24.848","0.34804","5"],
    [27823,"HCEP03730560","2024-07-14 03:00:00","9.9016","3.2602","25.607","3.103","7.58","1.615","2.504","0.58","0.19","29.5154","4.67056","33.13","0","SATNPRO1962","24.878","0.34848","5"],
    [27824,"HCEP03730560","2024-07-14 03:15:00","9.9018","3.26024","25.468","3.133","7.59","1.675","2.501","0.81","0.21","29.5157","4.67059","33.45","0","SATNPRO1962","25.154","0.3523","5"],
    [27825,"HCEP03730560","2024-07-14 03:30:00","9.9008","3.26027","25.352","3.152","7.59","1.341","2.467","0.47","0.08","29.5168","4.67076","33.65","0","SATNPRO1962","24.918","0.34902","5"],
    [27826,"HCEP03730560","2024-07-14 03:45:00","9.8998","3.26031","25.249","3.111","7.58","1.385","2.539","0.33","0.11","29.5181","4.67096","33.22","0","SATNPRO1962","24.682","0.34572","5"],
    [27827,"HCEP03730560","2024-07-14 04:00:00","9.8996","3.26035","25.163","3.114","7.59","1.523","2.595","0.59","0.21","29.5187","4.67103","33.24","0","SATNPRO1962","24.662","0.34544","5"],
    [27828,"HCEP03730560","2024-07-14 04:15:00","9.8993","3.26038","25.101","3.119","7.59","1.234","2.545","0.24","0.25","29.5193","4.67112","33.3","0","SATNPRO1962","24.66","0.34542","5"],
    [27829,"HCEP03730560","2024-07-14 04:30:00","9.8979","3.26037","25.054","3.098","7.58","1.552","2.522","0.76","0.15","29.5203","4.67129","33.07","0","SATNPRO1962","24.656","0.3454","5"],
    [27830,"HCEP03730560","2024-07-14 04:45:00","9.8973","3.26036","25.027","3.007","7.58","1.514","3.345","0.17","0.33","29.5208","4.67136","32.1","0","SATNPRO1962","24.274","0.33998","5"],
    [27831,"HCEP03730560","2024-07-14 05:00:00","9.897","3.2604","25.026","2.91","7.57","1.954","3.625","0.68","0.28","29.5213","4.67145","31.06","0","SATNPRO1962","24.182","0.33874","5"],
    [27832,"HCEP03730560","2024-07-14 05:15:00","9.8973","3.26049","25.032","2.929","7.58","1.648","3.157","0.48","0.23","29.522","4.67154","31.27","0","SATNPRO1962","24.494","0.34306","5"],
    [27833,"HCEP03730560","2024-07-14 05:30:00","9.8969","3.26046","25.046","2.96","7.57","1.734","3.599","0.49","0.44","29.5221","4.67157","31.6","0","SATNPRO1962","24.272","0.33996","5"],
    [27834,"HCEP03730560","2024-07-14 05:45:00","9.8969","3.26053","25.11","2.963","7.58","1.511","2.925","0.23","0.17","29.5228","4.67166","31.64","0","SATNPRO1962","24.398","0.34174","5"],
    [27835,"HCEP03730560","2024-07-14 06:00:00","9.8975","3.26064","25.108","3.047","7.58","1.303","2.697","0.31","0.21","29.5234","4.67174","32.52","0","SATNPRO1962","24.766","0.34688","5"],
    [27836,"HCEP03730560","2024-07-14 06:15:00","9.8976","3.26065","25.16","3.113","7.58","1.354","2.616","0.3","0.23","29.5234","4.67175","33.23","0","SATNPRO1962","24.77","0.34694","5"],
    [27837,"HCEP03730560","2024-07-14 06:30:00","9.8973","3.25974","25.22","3.135","7.59","1.421","2.717","0.46","0.35","29.5145","4.67048","33.47","0","SATNPRO1962","24.828","0.3478","5"],
    [27838,"HCEP03730560","2024-07-14 06:45:00","9.8968","3.26082","25.267","3.107","7.58","1.467","2.662","0.29","0.12","29.5257","4.67209","33.17","0","SATNPRO1962","24.962","0.34962","5"],
    [27839,"HCEP03730560","2024-07-14 07:00:00","9.8967","3.26101","25.335","3.107","7.59","1.222","2.659","0.16","0.19","29.5276","4.67237","33.17","0","SATNPRO1962","24.926000000000002","0.34914","5"],
    [27840,"HCEP03730560","2024-07-14 07:15:00","9.8968","3.26115","25.395","3.181","7.59","1.493","2.908","0.28","0.68","29.529","4.67257","33.96","0","SATNPRO1962","24.96","0.34962","5"],
    [27841,"HCEP03730560","2024-07-14 07:30:00","9.8968","3.26128","25.494","3.244","7.6","1.337","2.737","0.19","0.18","29.5302","4.67275","34.63","0","SATNPRO1962","25.036","0.3507","5"],
    [27842,"HCEP03730560","2024-07-14 07:45:00","9.8967","3.26126","25.576","3.235","7.59","1.88","3.412","0.58","0.19","29.53","4.67273","34.54","0","SATNPRO1962","24.546","0.3438","5"],
    [27843,"HCEP03730560","2024-07-14 08:00:00","9.8966","3.26115","25.672","3.171","7.59","1.56","3.109","0.2","0.16","29.529","4.67258","33.85","0","SATNPRO1962","24.558","0.34398","5"],
    [27844,"HCEP03730560","2024-07-14 08:15:00","9.8966","3.26113","25.744","3.144","7.59","1.433","2.94","0.17","0.13","29.5288","4.67256","33.56","0","SATNPRO1962","24.826","0.34774","5"],
    [27845,"HCEP03730560","2024-07-14 08:30:00","9.8972","3.26102","25.845","3.136","7.59","1.558","3.004","0.25","0.13","29.5272","4.67233","33.48","0","SATNPRO1962","24.884","0.3485","5"],
    [27846,"HCEP03730560","2024-07-14 08:45:00","9.8978","3.26089","25.933","3.08","7.58","1.829","3.17","0.59","0.16","29.5254","4.67206","32.88","0","SATNPRO1962","24.41","0.34188","5"],
    [27847,"HCEP03730560","2024-07-14 09:00:00","9.8984","3.26084","26.053","3.063","7.58","1.698","3.12","0.33","0.13","29.5243","4.67191","32.7","0","SATNPRO1962","24.576","0.34426","5"],
    [27848,"HCEP03730560","2024-07-14 09:15:00","9.8979","3.26081","26.11","3.044","7.58","1.763","3.212","0.46","0.3","29.5243","4.67192","32.5","0","SATNPRO1962","24.55","0.34386","5"],
    [27849,"HCEP03730560","2024-07-14 09:30:00","9.898","3.26078","26.237","3.04","7.58","1.654","3.211","0.25","0.28","29.5239","4.67187","32.45","0","SATNPRO1962","24.468","0.34272","5"],
    [27850,"HCEP03730560","2024-07-14 09:45:00","9.8976","3.26077","26.298","3.024","7.58","2.087","3.493","0.47","0.31","29.5241","4.67191","32.28","0","SATNPRO1962","24.298","0.34034","5"],
    [27851,"HCEP03730560","2024-07-14 10:00:00","9.8974","3.2608","26.37","2.987","7.57","2.28","3.955","0.6","0.29","29.5245","4.67198","31.88","0","SATNPRO1962","24.274","0.34002","5"],
    [27852,"HCEP03730560","2024-07-14 10:15:00","9.8969","3.26095","26.45","2.999","7.58","2.19","4.013","0.36","0.36","29.5264","4.67226","32.01","0","SATNPRO1962","24.458","0.34258","5"],
    [27853,"HCEP03730560","2024-07-14 10:30:00","9.8965","3.26111","26.538","3.053","7.58","2.011","3.74","0.37","0.21","29.5283","4.67254","32.59","0","SATNPRO1962","24.468","0.34272","5"],
    [27854,"HCEP03730560","2024-07-14 10:45:00","9.8962","3.2613","26.586","3.105","7.59","1.954","3.565","0.3","0.53","29.5305","4.67286","33.15","0","SATNPRO1962","24.712","0.34616","5"],
    [27855,"HCEP03730560","2024-07-14 11:00:00","9.8962","3.26144","26.628","3.157","7.59","2.057","3.873","0.35","0.25","29.5319","4.67306","33.7","0","SATNPRO1962","24.746","0.3466","5"],
    [27856,"HCEP03730560","2024-07-14 11:15:00","9.896","3.26156","26.636","3.153","7.59","2.07","3.848","0.32","0.48","29.5332","4.67326","33.66","0","SATNPRO1962","24.582","0.3443","5"],
    [27857,"HCEP03730560","2024-07-14 11:30:00","9.8961","3.26165","26.656","3.149","7.59","1.798","3.397","0.29","0.21","29.5341","4.67338","33.62","0","SATNPRO1962","27.148","0.38026","5"],
    [27858,"HCEP03730560","2024-07-14 11:45:00","9.8963","3.2615","26.655","3.178","7.59","2.16","3.055","1.33","0.89","29.5323","4.67313","33.92","0","SATNPRO1962","24.99","0.35","5"],
    [27859,"HCEP03730560","2024-07-14 12:00:00","9.8965","3.26132","26.66","3.25","7.6","1.682","2.728","0.47","0.18","29.5304","4.67285","34.7","0","SATNPRO1962","25.306","0.35444","5"],
    [27860,"HCEP03730560","2024-07-14 12:15:00","9.897","3.26126","26.663","3.321","7.6","1.55","2.487","0.4","0.25","29.5294","4.6727","35.46","0","SATNPRO1962","25.614","0.35878","5"],
    [27861,"HCEP03730560","2024-07-14 12:30:00","9.8994","3.26064","26.632","3.415","7.61","1.554","2.01","0.71","0.15","29.5212","4.67148","36.46","0","SATNPRO1962","25.888","0.3626","5"],
    [27862,"HCEP03730560","2024-07-14 12:45:00","9.8999","3.26056","26.622","3.44","7.61","1.304","2.206","0.21","0.16","29.5201","4.67131","36.72","0","SATNPRO1962","25.566","0.3581","5"],
    [27863,"HCEP03730560","2024-07-14 13:00:00","9.8983","3.26072","26.593","3.353","7.6","1.323","2.247","0.31","0.13","29.5229","4.67174","35.8","0","SATNPRO1962","25.29","0.35424","5"],
    [27864,"HCEP03730560","2024-07-14 13:15:00","9.9008","3.26064","26.563","3.313","7.6","1.239","2.045","0.31","0.08","29.5201","4.67129","35.36","0","SATNPRO1962","25.314","0.3546","5"],
    [27865,"HCEP03730560","2024-07-14 13:30:00","9.8992","3.26069","26.519","3.251","7.6","1.317","2.32","0.33","0.09","29.522","4.67159","34.71","0","SATNPRO1962","25.108","0.35168","5"],
    [27866,"HCEP03730560","2024-07-14 13:45:00","9.9005","3.26058","26.519","3.244","7.6","1.352","2.055","0.33","0.07","29.5198","4.67126","34.63","0","SATNPRO1962","25.238","0.35354","5"],
    [27867,"HCEP03730560","2024-07-14 14:00:00","9.9013","3.26055","26.497","3.274","7.6","1.208","2.146","0.22","0.07","29.5187","4.67109","34.96","0","SATNPRO1962","25.266","0.35392","5"],
    [27868,"HCEP03730560","2024-07-14 14:15:00","9.9015","3.26058","26.413","3.279","7.6","1.271","2.118","0.27","0.08","29.5189","4.67111","35.01","0","SATNPRO1962","25.122","0.35188","5"],
    [27869,"HCEP03730560","2024-07-14 14:30:00","9.9058","3.2605","26.361","3.335","7.61","1.216","1.828","0.16","0.06","29.5147","4.67043","35.6","0","SATNPRO1962","25.586","0.35838","5"],
    [27870,"HCEP03730560","2024-07-14 14:45:00","9.9013","3.26055","26.34","3.318","7.6","1.17","2.127","0.19","0.1","29.5189","4.6711","35.43","0","SATNPRO1962","25.124","0.35192","5"],
    [27871,"HCEP03730560","2024-07-14 15:00:00","9.8979","3.26086","26.297","3.184","7.59","1.31","2.474","0.21","0.19","29.5247","4.67199","33.99","0","SATNPRO1962","24.826","0.34772","5"],
    [27872,"HCEP03730560","2024-07-14 15:15:00","9.8977","3.26154","26.262","3.195","7.6","1.361","2.782","0.21","0.35","29.5317","4.67299","34.11","0","SATNPRO1962","25.144","0.35218","5"],
    [27873,"HCEP03730560","2024-07-14 15:30:00","9.8979","3.26142","26.221","3.257","7.6","1.205","2.339","0.22","0.13","29.5304","4.6728","34.78","0","SATNPRO1962","25.116","0.35178","5"],
    [27874,"HCEP03730560","2024-07-14 15:45:00","9.9036","3.26243","26.216","3.342","7.61","1.552","2.809","0.34","0.2","29.5359","4.67349","35.69","0","SATNPRO1962","25.396","0.35572","5"],
    [27875,"HCEP03730560","2024-07-14 16:00:00","9.9075","3.26299","26.173","3.473","7.61","1.598","2.947","0.24","0.2","29.5383","4.67376","37.09","0","SATNPRO1962","25.772000000000002","0.361","5"],
    [27876,"HCEP03730560","2024-07-14 16:15:00","9.9118","3.26361","26.155","3.547","7.63","1.447","2.604","0.37","0.12","29.541","4.67407","37.88","0","SATNPRO1962","25.846","0.362","5"],
    [27877,"HCEP03730560","2024-07-14 16:30:00","9.9127","3.26374","26.162","3.649","7.63","1.458","2.788","0.25","0.15","29.5416","4.67415","38.98","0","SATNPRO1962","25.89","0.3626","5"],
    [27878,"HCEP03730560","2024-07-14 16:45:00","9.9152","3.26422","26.187","3.674","7.63","1.64","2.835","0.39","0.17","29.5443","4.67449","39.24","0","SATNPRO1962","25.9","0.36274","5"],
    [27879,"HCEP03730560","2024-07-14 17:00:00","9.916","3.26443","26.171","3.617","7.63","1.73","3.459","0.3","0.25","29.5458","4.67469","38.64","0","SATNPRO1962","25.492","0.35706","5"],
    [27880,"HCEP03730560","2024-07-14 17:15:00","9.9173","3.26448","26.215","3.58","7.63","1.73","3.229","0.33","0.17","29.5453","4.67459","38.23","0","SATNPRO1962","25.538","0.35768","5"],
    [27881,"HCEP03730560","2024-07-14 17:30:00","9.9174","3.26458","26.232","3.58","7.63","1.574","3.078","0.18","0.22","29.5461","4.67471","38.24","0","SATNPRO1962","25.544","0.35774","5"],
    [27882,"HCEP03730560","2024-07-14 17:45:00","9.9172","3.26453","26.311","3.571","7.63","1.65","3.004","0.22","0.15","29.5458","4.67468","38.15","0","SATNPRO1962","25.398","0.35578","5"],
    [27883,"HCEP03730560","2024-07-14 18:00:00","9.9176","3.26465","26.338","3.545","7.63","1.604","3.003","0.42","0.1","29.5466","4.67479","37.87","0","SATNPRO1962","25.436","0.3563","5"],
    [27884,"HCEP03730560","2024-07-14 18:15:00","9.9183","3.26479","26.419","3.552","7.63","1.624","2.9","0.2","0.18","29.5474","4.67489","37.94","0","SATNPRO1962","25.398","0.35574","5"],
    [27885,"HCEP03730560","2024-07-14 18:30:00","9.9192","3.26492","26.48","3.559","7.63","1.576","2.96","0.2","0.16","29.548","4.67496","38.02","0","SATNPRO1962","25.352","0.35504","5"],
    [27886,"HCEP03730560","2024-07-14 18:45:00","9.9199","3.26502","26.514","3.58","7.63","1.645","2.881","0.15","0.08","29.5484","4.67502","38.24","0","SATNPRO1962","25.394","0.35572","5"],
    [27887,"HCEP03730560","2024-07-14 19:00:00","9.9203","3.26515","26.639","3.601","7.63","1.45","2.797","0.17","0.07","29.5493","4.67514","38.47","0","SATNPRO1962","25.456","0.35654","5"],
    [27888,"HCEP03730560","2024-07-14 19:15:00","9.9217","3.26532","26.702","3.584","7.63","1.572","2.846","0.16","0.09","29.5498","4.67519","38.29","0","SATNPRO1962","25.32","0.35466","5"],
    [27889,"HCEP03730560","2024-07-14 19:30:00","9.9224","3.26543","26.819","3.572","7.63","1.497","2.834","0.24","0.1","29.5504","4.67527","38.16","0","SATNPRO1962","25.312","0.35454","5"],
    [27890,"HCEP03730560","2024-07-14 19:45:00","9.9233","3.26559","26.87","3.578","7.63","1.57","2.895","0.22","0.08","29.5512","4.67538","38.22","0","SATNPRO1962","25.322","0.35466","5"],
    [27891,"HCEP03730560","2024-07-14 20:00:00","9.9232","3.26559","26.969","3.603","7.63","1.451","2.84","0.1","0.09","29.5512","4.67538","38.49","0","SATNPRO1962","25.496","0.35712","5"],
    [27892,"HCEP03730560","2024-07-14 20:15:00","9.923","3.2655","27.041","3.648","7.63","1.478","2.67","0.18","0.1","29.5505","4.67529","38.97","0","SATNPRO1962","25.009999999999998","0.35024","5"],
    [27893,"HCEP03730560","2024-07-14 20:30:00","9.9222","3.26535","27.14","3.663","7.63","1.444","2.902","0.14","0.12","29.5496","4.67518","39.13","0","SATNPRO1962","25.438","0.35632","5"],
    [27894,"HCEP03730560","2024-07-14 20:45:00","9.9183","3.2646","27.239","3.693","7.64","1.391","2.358","0.21","0.12","29.5452","4.67462","39.45","0","SATNPRO1962","25.97","0.36378","5"],
    [27895,"HCEP03730560","2024-07-14 21:00:00","9.9162","3.26414","27.326","3.754","7.64","1.212","2.094","0.11","0.05","29.5423","4.67425","40.09","0","SATNPRO1962","26.112000000000002","0.3658","5"],
    [27896,"HCEP03730560","2024-07-14 21:15:00","9.9131","3.26408","27.393","3.573","7.62","1.516","3.051","0.28","0.07","29.5442","4.67458","38.16","0","SATNPRO1962","25.282","0.3541","5"],
    [27897,"HCEP03730560","2024-07-14 21:30:00","9.9085","3.26341","27.478","3.364","7.61","1.432","3.333","0.09","0.07","29.5412","4.67423","35.93","0","SATNPRO1962","24.954","0.34954","5"],
    [27898,"HCEP03730560","2024-07-14 21:45:00","9.905","3.26287","27.541","3.307","7.6","1.415","3.222","0.13","0.08","29.5386","4.67393","35.31","0","SATNPRO1962","25.178","0.35268","5"],
    [27899,"HCEP03730560","2024-07-14 22:00:00","9.9021","3.26198","27.572","3.347","7.6","1.283","2.667","0.15","0.1","29.532","4.67304","35.74","0","SATNPRO1962","25.128","0.35196","5"],
    [27900,"HCEP03730560","2024-07-14 22:15:00","9.9012","3.26171","27.582","3.276","7.6","1.433","3.051","0.09","0.14","29.5301","4.67277","34.97","0","SATNPRO1962","25.068","0.35114","5"],
    [27901,"HCEP03730560","2024-07-14 22:30:00","9.9003","3.26135","27.609","3.223","7.59","1.198","2.273","0.14","0.07","29.5272","4.67238","34.41","0","SATNPRO1962","25.096","0.35152","5"],
    [27902,"HCEP03730560","2024-07-14 22:45:00","9.899","3.26132","27.618","3.066","7.58","1.451","2.877","0.21","0.14","29.5279","4.6725","32.74","0","SATNPRO1962","24.41","0.34188","5"],
    [27903,"HCEP03730560","2024-07-14 23:00:00","9.9","3.26104","27.623","2.923","7.57","1.434","3.093","0.15","0.1","29.5243","4.67198","31.2","0","SATNPRO1962","24.32","0.34064","5"],
    [27904,"HCEP03730560","2024-07-14 23:15:00","9.9004","3.26071","27.593","2.796","7.56","1.772","3.774","0.13","0.13","29.5208","4.67146","29.85","0","SATNPRO1962","23.916","0.335","5"],
    [27905,"HCEP03730560","2024-07-14 23:30:00","9.9007","3.26066","27.56","2.667","7.55","1.926","4.217","0.18","0.14","29.52","4.67133","28.47","0","SATNPRO1962","23.686","0.33178","5"],
    [27906,"HCEP03730560","2024-07-14 23:45:00","9.9015","3.26057","27.526","2.592","7.54","1.963","4.395","0.15","0.11","29.5184","4.6711","27.67","0","SATNPRO1962","23.47","0.32876","5"],
    [27907,"HCEP03730560","2024-07-15 00:00:00","9.9023","3.26055","27.507","2.565","7.54","1.87","4.025","0.19","0.09","29.5175","4.67096","27.38","0","SATNPRO1962","23.471999999999998","0.32876","5"],
    [27908,"HCEP03730560","2024-07-15 00:15:00","9.9038","3.26057","27.39","2.58","7.54","1.883","4.016","0.15","0.1","29.5166","4.6708","27.55","0","SATNPRO1962","23.708","0.33212","5"],
    [27909,"HCEP03730560","2024-07-15 00:30:00","9.905","3.26074","27.311","2.66","7.55","1.855","3.78","0.16","0.12","29.5173","4.67087","28.4","0","SATNPRO1962","23.866","0.33426","5"],
    [27910,"HCEP03730560","2024-07-15 00:45:00","9.9048","3.26076","27.238","2.71","7.55","1.965","4.036","0.16","0.11","29.5177","4.67093","28.93","0","SATNPRO1962","23.91","0.33488","5"],
    [27911,"HCEP03730560","2024-07-15 01:00:00","9.9056","3.26102","27.113","2.813","7.56","1.951","4.018","0.15","0.09","29.5197","4.67119","30.03","0","SATNPRO1962","24.242","0.33954","5"],
    [27912,"HCEP03730560","2024-07-15 01:15:00","9.906","3.26122","27.003","2.979","7.57","1.937","3.654","0.16","0.11","29.5215","4.67143","31.81","0","SATNPRO1962","24.686","0.34576","5"],
    [27913,"HCEP03730560","2024-07-15 01:30:00","9.9068","3.26141","26.863","3.105","7.58","1.717","3.269","0.12","0.06","29.5227","4.67159","33.16","0","SATNPRO1962","25.004","0.35022","5"],
    [27914,"HCEP03730560","2024-07-15 01:45:00","9.9075","3.26159","26.694","3.201","7.59","1.667","2.832","0.15","0.1","29.524","4.67175","34.18","0","SATNPRO1962","25.282","0.3541","5"],
    [27915,"HCEP03730560","2024-07-15 02:00:00","9.9074","3.26163","26.582","3.214","7.59","1.621","2.863","0.23","0.07","29.5247","4.67184","34.32","0","SATNPRO1962","25.232","0.35342","5"],
    [27916,"HCEP03730560","2024-07-15 02:15:00","9.9073","3.26158","26.397","3.204","7.59","1.677","3.093","0.2","0.08","29.5242","4.67177","34.21","0","SATNPRO1962","25.324","0.3547","5"],
    [27917,"HCEP03730560","2024-07-15 02:30:00","9.9084","3.26184","26.255","3.261","7.6","1.528","2.76","0.2","0.06","29.526","4.67199","34.82","0","SATNPRO1962","25.416","0.356","5"],
    [27918,"HCEP03730560","2024-07-15 02:45:00","9.9088","3.2619","26.108","3.32","7.6","1.552","2.621","0.21","0.06","29.5263","4.67202","35.45","0","SATNPRO1962","25.54","0.35774","5"],
    [27919,"HCEP03730560","2024-07-15 03:00:00","9.9088","3.26186","25.941","3.357","7.6","1.397","2.465","0.15","0.08","29.526","4.67196","35.84","0","SATNPRO1962","25.582","0.3583","5"],
    [27920,"HCEP03730560","2024-07-15 03:15:00","9.9084","3.26177","25.762","3.324","7.6","1.736","3.015","0.17","0.09","29.5256","4.6719","35.49","0","SATNPRO1962","25.338","0.35486","5"],
    [27921,"HCEP03730560","2024-07-15 03:30:00","9.9095","3.26181","25.624","3.29","7.6","1.55","2.854","0.23","0.14","29.5251","4.67181","35.13","0","SATNPRO1962","25.354","0.3551","5"],
    [27922,"HCEP03730560","2024-07-15 03:45:00","9.9103","3.26077","25.458","3.343","7.6","1.603","2.431","0.24","0.09","29.5141","4.67021","35.7","0","SATNPRO1962","25.494","0.35706","5"],
    [27923,"HCEP03730560","2024-07-15 04:00:00","9.9113","3.26178","25.306","3.39","7.61","1.409","2.446","0.16","0.13","29.5235","4.67153","36.2","0","SATNPRO1962","25.566","0.3581","5"],
    [27924,"HCEP03730560","2024-07-15 04:15:00","9.9114","3.26167","25.214","3.344","7.6","1.745","2.736","0.42","0.14","29.5223","4.67135","35.71","0","SATNPRO1962","25.424","0.3561","5"],
    [27925,"HCEP03730560","2024-07-15 04:30:00","9.912","3.26174","25.098","3.342","7.61","1.812","2.8","0.39","0.09","29.5226","4.67138","35.69","0","SATNPRO1962","25.508","0.3573","5"],
    [27926,"HCEP03730560","2024-07-15 04:45:00","9.9119","3.26175","24.995","3.373","7.61","1.627","2.638","0.28","0.21","29.5228","4.6714","36.02","0","SATNPRO1962","25.81","0.36152","5"],
    [27927,"HCEP03730560","2024-07-15 05:00:00","9.9111","3.26167","24.925","3.353","7.6","1.798","2.964","0.5","0.14","29.5227","4.6714","35.81","0","SATNPRO1962","25.438","0.3563","5"],
    [27928,"HCEP03730560","2024-07-15 05:15:00","9.9112","3.26171","24.837","3.315","7.6","1.803","2.644","0.62","0.12","29.523","4.67144","35.4","0","SATNPRO1962","25.632","0.35902","5"],
    [27929,"HCEP03730560","2024-07-15 05:30:00","9.9111","3.26185","24.787","3.348","7.61","1.834","2.698","0.61","0.17","29.5246","4.67166","35.75","0","SATNPRO1962","25.536","0.3577","5"],
    [27930,"HCEP03730560","2024-07-15 05:45:00","9.9124","3.26202","24.792","3.409","7.61","1.468","2.428","0.34","0.43","29.5252","4.67173","36.41","0","SATNPRO1962","25.948","0.36346","5"],
    [27931,"HCEP03730560","2024-07-15 06:00:00","9.9127","3.2623","24.773","3.478","7.62","1.233","2.444","0.26","0.21","29.5277","4.67208","37.14","0","SATNPRO1962","26.02","0.36446","5"],
    [27932,"HCEP03730560","2024-07-15 06:15:00","9.9133","3.26239","24.776","3.51","7.62","1.354","2.277","0.24","0.26","29.5281","4.67212","37.48","0","SATNPRO1962","26.05","0.36484","5"],
    [27933,"HCEP03730560","2024-07-15 06:30:00","9.9137","3.26249","24.79","3.506","7.62","1.633","2.533","0.45","0.16","29.5288","4.67222","37.44","0","SATNPRO1962","25.968","0.36374","5"],
    [27934,"HCEP03730560","2024-07-15 06:45:00","9.9141","3.26261","24.828","3.489","7.62","1.502","2.639","0.25","0.5","29.5297","4.67234","37.26","0","SATNPRO1962","25.808","0.36152","5"],
    [27935,"HCEP03730560","2024-07-15 07:00:00","9.9148","3.26288","24.874","3.479","7.62","1.497","2.641","0.61","0.2","29.5318","4.67263","37.15","0","SATNPRO1962","25.888","0.36256","5"],
    [27936,"HCEP03730560","2024-07-15 07:15:00","9.9161","3.26303","24.935","3.476","7.62","1.832","2.867","0.4","0.3","29.5322","4.67268","37.12","0","SATNPRO1962","25.9","0.3628","5"],
    [27937,"HCEP03730560","2024-07-15 07:30:00","9.9172","3.26336","25.001","3.473","7.62","1.821","2.708","0.66","0.18","29.5346","4.67299","37.1","0","SATNPRO1962","25.836","0.36188","5"],
    [27938,"HCEP03730560","2024-07-15 07:45:00","9.9196","3.26378","25.084","3.465","7.62","1.956","2.677","0.26","0.09","29.5368","4.67328","37.01","0","SATNPRO1962","25.72","0.36024","5"],
    [27939,"HCEP03730560","2024-07-15 08:00:00","9.9211","3.26403","25.181","3.476","7.62","1.992","3.305","0.49","0.39","29.538","4.67343","37.13","0","SATNPRO1962","25.772","0.36094","5"],
    [27940,"HCEP03730560","2024-07-15 08:15:00","9.9245","3.26436","25.282","3.525","7.62","1.802","3.03","0.39","0.3","29.5385","4.67346","37.65","0","SATNPRO1962","25.944","0.3634","5"],
    [27941,"HCEP03730560","2024-07-15 08:30:00","9.9221","3.2641","25.401","3.506","7.62","1.757","3.384","0.35","0.66","29.5379","4.67341","37.45","0","SATNPRO1962","25.884","0.36256","5"],
    [27942,"HCEP03730560","2024-07-15 08:45:00","9.9202","3.26383","25.507","3.463","7.62","1.968","3.231","0.31","0.2","29.5366","4.67327","36.99","0","SATNPRO1962","25.596","0.35848","5"],
    [27943,"HCEP03730560","2024-07-15 09:00:00","9.9223","3.26428","25.642","3.47","7.62","2.097","3.225","0.47","0.24","29.5393","4.67362","37.06","0","SATNPRO1962","25.8","0.36138","5"],
    [27944,"HCEP03730560","2024-07-15 09:15:00","9.9218","3.2642","25.74","3.485","7.62","2.226","3.537","0.45","0.38","29.5389","4.67358","37.23","0","SATNPRO1962","25.596","0.3585","5"],
    [27945,"HCEP03730560","2024-07-15 09:30:00","9.9196","3.26395","25.839","3.433","7.61","2.103","4.231","0.28","0.24","29.5382","4.67353","36.67","0","SATNPRO1962","25.558","0.35798","5"],
    [27946,"HCEP03730560","2024-07-15 09:45:00","9.9187","3.26382","25.956","3.384","7.61","2.056","3.577","0.21","0.22","29.5376","4.67346","36.15","0","SATNPRO1962","25.618","0.35882","5"],
    [27947,"HCEP03730560","2024-07-15 10:00:00","9.915","3.2632","26.069","3.355","7.6","2.187","3.928","0.38","0.49","29.534300000000002","4.67306","35.83","0","SATNPRO1962","25.514","0.35742","5"],
    [27948,"HCEP03730560","2024-07-15 10:15:00","9.9119","3.26266","26.186","3.301","7.6","2.013","3.369","0.47","0.42","29.5314","4.6727","35.25","0","SATNPRO1962","25.448","0.35644","5"],
    [27949,"HCEP03730560","2024-07-15 10:30:00","9.9116","3.26224","26.292","3.295","7.6","1.811","3.125","0.23","0.23","29.5274","4.67214","35.18","0","SATNPRO1962","25.626","0.35898","5"],
    [27950,"HCEP03730560","2024-07-15 10:45:00","9.9116","3.262","26.377","3.286","7.6","2.092","3.556","0.31","0.63","29.525","4.6718","35.09","0","SATNPRO1962","25.682","0.35974","5"],
    [27951,"HCEP03730560","2024-07-15 11:00:00","9.9125","3.26166","26.459","3.224","7.59","1.883","3.597","0.24","0.28","29.5208","4.67119","34.43","0","SATNPRO1962","25.398","0.35576","5"],
    [27952,"HCEP03730560","2024-07-15 11:15:00","9.9143","3.26164","26.556","3.223","7.59","1.919","3.283","0.31","0.17","29.5191","4.67092","34.42","0","SATNPRO1962","25.628","0.35892","5"],
    [27953,"HCEP03730560","2024-07-15 11:30:00","9.9148","3.2616","26.638","3.258","7.59","2.11","3.822","0.39","0.39","29.5182","4.67079","34.79","0","SATNPRO1962","25.562","0.35802","5"],
    [27954,"HCEP03730560","2024-07-15 11:45:00","9.9156","3.26155","26.667","3.249","7.59","1.955","3.592","0.37","0.23","29.5171","4.67062","34.7","0","SATNPRO1962","25.512","0.3573","5"],
    [27955,"HCEP03730560","2024-07-15 12:00:00","9.9171","3.26158","26.711","3.29","7.6","1.738","3.05","0.39","0.28","29.5162","4.67047","35.14","0","SATNPRO1962","25.976","0.36382","5"],
    [27956,"HCEP03730560","2024-07-15 12:15:00","9.914","3.26111","26.757","3.161","7.58","1.882","3.448","0.35","0.27","29.514","4.6702","33.75","0","SATNPRO1962","24.958","0.34956","5"],
    [27957,"HCEP03730560","2024-07-15 12:30:00","9.9094","3.26078","26.803","2.86","7.56","2.057","3.931","0.31","0.31","29.5144","4.67035","30.54","0","SATNPRO1962","24.208000000000002","0.33908","5"],
    [27958,"HCEP03730560","2024-07-15 12:45:00","9.9059","3.26078","26.818","2.688","7.55","1.796","3.574","0.2","0.25","29.5173","4.67082","28.7","0","SATNPRO1962","23.992","0.33602","5"],
    [27959,"HCEP03730560","2024-07-15 13:00:00","9.9035","3.2609","26.84","2.682","7.55","1.802","3.459","0.24","0.2","29.5204","4.67131","28.63","0","SATNPRO1962","24.204","0.339","5"],
    [27960,"HCEP03730560","2024-07-15 13:15:00","9.9038","3.26135","26.826","2.814","7.56","1.616","2.849","0.29","0.38","29.5247","4.67191","30.05","0","SATNPRO1962","24.944","0.3494","5"],
    [27961,"HCEP03730560","2024-07-15 13:30:00","9.9052","3.26182","26.814","2.994","7.57","1.431","2.832","0.19","0.14","29.5282","4.6724","31.97","0","SATNPRO1962","25.034","0.35066","5"],
    [27962,"HCEP03730560","2024-07-15 13:45:00","9.9085","3.26226","26.819","3.12","7.58","1.43","2.57","0.33","0.17","29.5299","4.67258","33.31","0","SATNPRO1962","25.284","0.35414","5"],
    [27963,"HCEP03730560","2024-07-15 14:00:00","9.9098","3.26243","26.816","3.189","7.59","1.584","2.832","0.64","0.31","29.5306","4.67266","34.05","0","SATNPRO1962","25.38","0.3555","5"],
    [27964,"HCEP03730560","2024-07-15 14:15:00","9.9128","3.26272","26.813","3.268","7.6","1.334","2.573","0.26","0.21","29.531","4.67266","34.9","0","SATNPRO1962","25.57","0.35814","5"],
    [27965,"HCEP03730560","2024-07-15 14:30:00","9.9149","3.26306","26.796","3.322","7.6","1.609","2.705","0.69","0.13","29.5327","4.67287","35.48","0","SATNPRO1962","25.38","0.35548","5"],
    [27966,"HCEP03730560","2024-07-15 14:45:00","9.9159","3.26321","26.753","3.298","7.6","1.492","2.928","0.21","0.22","29.5334","4.67295","35.23","0","SATNPRO1962","25.304","0.3544","5"],
    [27967,"HCEP03730560","2024-07-15 15:00:00","9.9167","3.26334","26.757","3.288","7.6","1.385","2.738","0.23","0.18","29.5342","4.67305","35.12","0","SATNPRO1962","25.226","0.35334","5"],
    [27968,"HCEP03730560","2024-07-15 15:15:00","9.917","3.26343","26.745","3.266","7.6","1.454","2.793","0.28","0.22","29.5347","4.67312","34.89","0","SATNPRO1962","25.268","0.35392","5"],
    [27969,"HCEP03730560","2024-07-15 15:30:00","9.9171","3.26345","26.696","3.227","7.59","1.381","2.939","0.25","0.21","29.5349","4.67314","34.47","0","SATNPRO1962","24.98","0.34988","5"],
    [27970,"HCEP03730560","2024-07-15 15:45:00","9.9175","3.2635","26.668","3.199","7.59","1.477","2.822","0.46","0.18","29.5351","4.67316","34.17","0","SATNPRO1962","24.924","0.3491","5"],
    [27971,"HCEP03730560","2024-07-15 16:00:00","9.9177","3.26351","26.62","3.176","7.59","1.263","2.906","0.18","0.19","29.535","4.67314","33.92","0","SATNPRO1962","24.818","0.34764","5"],
    [27972,"HCEP03730560","2024-07-15 16:15:00","9.9175","3.26351","26.6","3.143","7.59","1.417","2.853","0.37","0.32","29.5351","4.67316","33.57","0","SATNPRO1962","24.73","0.34642","5"],
    [27973,"HCEP03730560","2024-07-15 16:30:00","9.9176","3.26354","26.552","3.11","7.58","1.389","2.972","0.45","0.21","29.5354","4.6732","33.21","0","SATNPRO1962","24.73","0.3464","5"],
    [27974,"HCEP03730560","2024-07-15 16:45:00","9.9173","3.26355","26.528","3.06","7.58","1.478","3.166","0.32","0.34","29.5358","4.67326","32.69","0","SATNPRO1962","24.532","0.3436","5"],
    [27975,"HCEP03730560","2024-07-15 17:00:00","9.9173","3.2636","26.507","3.002","7.57","1.654","3.356","0.46","0.26","29.5362","4.67332","32.06","0","SATNPRO1962","24.31","0.3405","5"],
    [27976,"HCEP03730560","2024-07-15 17:15:00","9.9173","3.26365","26.492","2.957","7.57","1.618","3.245","0.36","0.34","29.5368","4.6734","31.58","0","SATNPRO1962","24.118","0.33778","5"],
    [27977,"HCEP03730560","2024-07-15 17:30:00","9.917","3.26371","26.508","2.955","7.57","1.974","3.49","0.85","0.75","29.5377","4.67353","31.56","0","SATNPRO1962","24.212","0.3391","5"],
    [27978,"HCEP03730560","2024-07-15 17:45:00","9.916","3.2634","26.5","3.001","7.58","1.446","2.921","0.43","0.51","29.5354","4.67322","32.06","0","SATNPRO1962","24.8","0.3474","5"],
    [27979,"HCEP03730560","2024-07-15 18:00:00","9.9166","3.2636","26.503","3.016","7.57","1.481","2.994","0.49","0.1","29.5369","4.67343","32.21","0","SATNPRO1962","24.394","0.3417","5"],
    [27980,"HCEP03730560","2024-07-15 18:15:00","9.917","3.26365","26.519","2.967","7.57","1.429","3.007","0.34","0.24","29.537","4.67344","31.69","0","SATNPRO1962","24.202","0.33898","5"],
    [27981,"HCEP03730560","2024-07-15 18:30:00","9.9171","3.26362","26.573","2.948","7.57","1.32","3.167","0.21","0.51","29.5366","4.67338","31.48","0","SATNPRO1962","24.252","0.33966","5"],
    [27982,"HCEP03730560","2024-07-15 18:45:00","9.9171","3.26354","26.6","2.975","7.57","1.364","2.929","0.19","0.2","29.5358","4.67327","31.77","0","SATNPRO1962","24.426","0.34216","5"],
    [27983,"HCEP03730560","2024-07-15 19:00:00","9.9173","3.26354","26.644","3","7.57","1.358","2.986","0.26","0.11","29.5357","4.67325","32.04","0","SATNPRO1962","24.36","0.34122","5"],
    [27984,"HCEP03730560","2024-07-15 19:15:00","9.9169","3.26354","26.647","2.998","7.57","1.37","3.06","0.28","0.17","29.5359","4.67328","32.02","0","SATNPRO1962","24.472","0.34278","5"],
    [27985,"HCEP03730560","2024-07-15 19:30:00","9.9173","3.26351","26.69","2.983","7.57","1.422","3.18","0.24","0.41","29.5353","4.6732","31.86","0","SATNPRO1962","24.414","0.34194","5"],
    [27986,"HCEP03730560","2024-07-15 19:45:00","9.917","3.26348","26.753","2.979","7.57","1.413","2.808","0.29","0.13","29.5352","4.67319","31.82","0","SATNPRO1962","24.502","0.34316","5"],
    [27987,"HCEP03730560","2024-07-15 20:00:00","9.917","3.26345","26.812","2.994","7.57","1.366","2.867","0.45","0.22","29.5349","4.67316","31.97","0","SATNPRO1962","24.506","0.3433","5"],
    [27988,"HCEP03730560","2024-07-15 20:15:00","9.9169","3.26345","26.884","2.994","7.57","1.443","3.058","0.18","0.15","29.5349","4.67316","31.98","0","SATNPRO1962","24.406","0.34186","5"],
    [27989,"HCEP03730560","2024-07-15 20:30:00","9.9169","3.26343","26.936","2.966","7.57","1.485","3.172","0.29","0.17","29.5347","4.67313","31.68","0","SATNPRO1962","24.462","0.34268","5"],
    [27990,"HCEP03730560","2024-07-15 20:45:00","9.9168","3.26342","27.001","2.946","7.57","1.659","2.996","0.74","0.15","29.5347","4.67314","31.47","0","SATNPRO1962","24.342","0.3409","5"],
    [27991,"HCEP03730560","2024-07-15 21:00:00","9.917","3.26345","27.079","2.895","7.56","1.517","3.359","0.28","0.19","29.5348","4.67316","30.92","0","SATNPRO1962","24.104","0.3376","5"],
    [27992,"HCEP03730560","2024-07-15 21:15:00","9.9171","3.26348","27.143","2.869","7.56","1.666","3.069","0.56","0.22","29.535","4.67318","30.65","0","SATNPRO1962","24.074","0.3372","5"],
    [27993,"HCEP03730560","2024-07-15 21:30:00","9.9165","3.26332","27.21","2.865","7.56","1.207","2.977","0.16","0.28","29.5339","4.67303","30.6","0","SATNPRO1962","24.146","0.3382","5"],
    [27994,"HCEP03730560","2024-07-15 21:45:00","9.916","3.26321","27.247","2.839","7.56","1.44","2.91","0.27","0.12","29.5331","4.67293","30.32","0","SATNPRO1962","24.006","0.33624","5"],
    [27995,"HCEP03730560","2024-07-15 22:00:00","9.9156","3.26317","27.312","2.832","7.56","1.296","2.837","0.18","0.09","29.5331","4.67294","30.25","0","SATNPRO1962","24.12","0.33786","5"],
    [27996,"HCEP03730560","2024-07-15 22:15:00","9.9153","3.2631","27.352","2.857","7.56","1.342","2.623","0.36","0.1","29.5326","4.67288","30.52","0","SATNPRO1962","24.322","0.34068","5"],
    [27997,"HCEP03730560","2024-07-15 22:30:00","9.9151","3.26282","27.411","2.923","7.57","1.02","2.368","0.17","0.09","29.5299","4.6725","31.22","0","SATNPRO1962","24.418","0.342","5"],
    [27998,"HCEP03730560","2024-07-15 22:45:00","9.9151","3.26255","27.423","2.985","7.57","1.026","2.206","0.12","0.08","29.5272","4.67212","31.88","0","SATNPRO1962","24.508","0.34328","5"],
    [27999,"HCEP03730560","2024-07-15 23:00:00","9.9151","3.26241","27.467","3.003","7.57","0.984","2.243","0.24","0.08","29.5257","4.67191","32.07","0","SATNPRO1962","24.69","0.34582","5"],
    [28000,"HCEP03730560","2024-07-15 23:15:00","9.9149","3.26239","27.474","2.995","7.57","1.293","2.54","0.36","0.1","29.5257","4.67191","31.98","0","SATNPRO1962","24.46","0.34262","5"],
    [28001,"HCEP03730560","2024-07-15 23:30:00","9.9153","3.26232","27.462","2.988","7.57","1.074","2.417","0.18","0.35","29.5247","4.67176","31.91","0","SATNPRO1962","24.684","0.34572","5"],
    [28002,"HCEP03730560","2024-07-15 23:45:00","9.9186","3.26157","27.455","3.143","7.59","1.019","1.695","0.17","0.1","29.5145","4.67024","33.56","0","SATNPRO1962","25.488","0.35704","5"],
    [28003,"HCEP03730560","2024-07-16 00:00:00","9.9165","3.26217","27.428","3.212","7.59","1.077","2.134","0.22","0.15","29.5223","4.67139","34.3","0","SATNPRO1962","25.178","0.3527","5"],
    [28004,"HCEP03730560","2024-07-16 00:15:00","9.9162","3.26219","27.407","3.147","7.58","1.145","2.16","0.24","0.1","29.5227","4.67146","33.61","0","SATNPRO1962","24.778","0.34704","5"],
    [28005,"HCEP03730560","2024-07-16 00:30:00","9.9154","3.26236","27.38","3.054","7.58","1.058","2.377","0.13","0.08","29.5251","4.67181","32.62","0","SATNPRO1962","24.436","0.34226","5"],
    [28006,"HCEP03730560","2024-07-16 00:45:00","9.9154","3.26239","27.356","2.991","7.57","1.151","2.312","0.27","0.19","29.5253","4.67184","31.94","0","SATNPRO1962","24.5","0.34312","5"],
    [28007,"HCEP03730560","2024-07-16 01:00:00","9.9151","3.26255","27.247","2.957","7.57","1.103","2.545","0.22","0.09","29.5273","4.67212","31.58","0","SATNPRO1962","24.304000000000002","0.34042","5"],
    [28008,"HCEP03730560","2024-07-16 01:15:00","9.9154","3.26276","27.137","2.928","7.57","1.268","2.35","0.29","0.07","29.5291","4.67237","31.28","0","SATNPRO1962","24.44","0.34234","5"],
    [28009,"HCEP03730560","2024-07-16 01:30:00","9.9158","3.26293","27.056","2.925","7.57","1.293","2.783","0.45","0.19","29.5306","4.67257","31.24","0","SATNPRO1962","24.184","0.3387","5"],
    [28010,"HCEP03730560","2024-07-16 01:45:00","9.9157","3.26287","26.939","2.948","7.57","1.331","2.626","0.64","0.12","29.5301","4.67249","31.48","0","SATNPRO1962","24.49","0.343","5"],
    [28011,"HCEP03730560","2024-07-16 02:00:00","9.916","3.26311","26.798","2.983","7.57","1.487","2.836","0.62","0.15","29.5324","4.67281","31.86","0","SATNPRO1962","24.508","0.34322","5"],
    [28012,"HCEP03730560","2024-07-16 02:15:00","9.9164","3.26338","26.656","2.867","7.56","1.277","3.262","0.2","0.15","29.5348","4.67313","30.62","0","SATNPRO1962","23.806","0.33344","5"],
    [28013,"HCEP03730560","2024-07-16 02:30:00","9.9156","3.26315","26.506","2.849","7.56","1.05","2.929","0.18","0.22","29.5332","4.67291","30.43","0","SATNPRO1962","24.137999999999998","0.3381","5"],
    [28014,"HCEP03730560","2024-07-16 02:45:00","9.9156","3.26284","26.35","2.904","7.57","1.479","2.908","0.89","0.17","29.5301","4.67247","31.02","0","SATNPRO1962","24.163999999999998","0.33846","5"],
    [28015,"HCEP03730560","2024-07-16 03:00:00","9.9141","3.26205","26.189","2.972","7.57","1.054","2.149","0.36","0.24","29.5235","4.67153","31.74","0","SATNPRO1962","24.944","0.34938","5"],
    [28016,"HCEP03730560","2024-07-16 03:15:00","9.9156","3.26119","26.021","3.03","7.57","1.072","1.638","0.38","0.19","29.5137","4.6701","32.36","0","SATNPRO1962","25.272","0.35398","5"],
    [28017,"HCEP03730560","2024-07-16 03:30:00","9.9147","3.26131","25.848","3.039","7.58","1.303","1.746","0.61","0.12","29.5157","4.6704","32.46","0","SATNPRO1962","25.002","0.35016","5"],
    [28018,"HCEP03730560","2024-07-16 03:45:00","9.9193","3.26095","25.681","3.084","7.58","0.865","1.447","0.28","0.06","29.5085","4.66927","32.93","0","SATNPRO1962","25.532","0.35764","5"],
    [28019,"HCEP03730560","2024-07-16 04:00:00","9.9191","3.26093","25.512","3.108","7.58","1.212","1.652","0.39","0.08","29.5085","4.66926","33.19","0","SATNPRO1962","25.364","0.35526","5"],
    [28020,"HCEP03730560","2024-07-16 04:15:00","9.922","3.26079","25.345","3.156","7.59","0.992","1.518","0.31","0.06","29.5048","4.66868","33.7","0","SATNPRO1962","25.478","0.35686","5"],
    [28021,"HCEP03730560","2024-07-16 04:30:00","9.9226","3.26069","25.196","3.215","7.59","0.984","1.385","0.39","0.04","29.5033","4.66844","34.34","0","SATNPRO1962","25.198","0.35294","5"],
    [28022,"HCEP03730560","2024-07-16 04:45:00","9.9228","3.2605","25.047","3.238","7.59","1.162","1.559","0.68","0.28","29.5014","4.66816","34.58","0","SATNPRO1962","25.578","0.3583","5"],
    [28023,"HCEP03730560","2024-07-16 05:00:00","9.9218","3.26039","24.899","3.224","7.59","1.302","1.491","0.55","0.07","29.5011","4.66812","34.43","0","SATNPRO1962","25.654","0.35934","5"],
    [28024,"HCEP03730560","2024-07-16 05:15:00","9.9223","3.26053","24.779","3.202","7.59","1.525","1.473","1.03","0.24","29.5022","4.66827","34.2","0","SATNPRO1962","25.468","0.35676","5"],
    [28025,"HCEP03730560","2024-07-16 05:30:00","9.9209","3.26016","24.681","3.179","7.59","1.219","1.573","0.52","0.27","29.4996","4.66792","33.95","0","SATNPRO1962","25.418","0.35604","5"],
    [28026,"HCEP03730560","2024-07-16 05:45:00","9.9176","3.26035","24.597","3.126","7.58","1.229","1.479","0.46","0.09","29.5042","4.66863","33.38","0","SATNPRO1962","25.506","0.35724","5"],
    [28027,"HCEP03730560","2024-07-16 06:00:00","9.9157","3.26032","24.543","3.049","7.57","1.67","1.853","2.34","0.42","29.5056","4.66885","32.56","0","SATNPRO1962","25.156","0.35234","5"],
    [28028,"HCEP03730560","2024-07-16 06:15:00","9.9156","3.26023","24.508","3.003","7.57","1.402","1.777","0.42","0.3","29.5047","4.66873","32.06","0","SATNPRO1962","25.246","0.35364","5"],
    [28029,"HCEP03730560","2024-07-16 06:30:00","9.9151","3.26028","24.493","2.974","7.57","1.682","2.124","0.87","0.16","29.5057","4.66887","31.75","0","SATNPRO1962","25.026","0.35052","5"],
    [28030,"HCEP03730560","2024-07-16 06:45:00","9.9153","3.26097","24.484","2.887","7.56","1.662","3.747","0.38","0.35","29.5124","4.66983","30.84","0","SATNPRO1962","24.452","0.34248","5"],
    [28031,"HCEP03730560","2024-07-16 07:00:00","9.9147","3.2617","24.487","2.802","7.56","1.638","3.362","0.38","0.29","29.5202","4.67095","29.93","0","SATNPRO1962","24.068","0.33712","5"],
    [28032,"HCEP03730560","2024-07-16 07:15:00","9.9153","3.26219","24.509","2.746","7.55","1.838","4.211","0.96","1.04","29.5246","4.67157","29.33","0","SATNPRO1962","24.464","0.34264","5"],
    [28033,"HCEP03730560","2024-07-16 07:30:00","9.9154","3.26248","24.538","2.725","7.55","1.763","3.933","0.61","0.47","29.5274","4.67197","29.1","0","SATNPRO1962","23.848","0.33404","5"],
    [28034,"HCEP03730560","2024-07-16 07:45:00","9.9154","3.26271","24.583","2.648","7.54","1.922","3.802","0.36","0.21","29.5297","4.6723","28.29","0","SATNPRO1962","23.666","0.33148","5"],
    [28035,"HCEP03730560","2024-07-16 08:00:00","9.9153","3.26268","24.649","2.616","7.54","3.573","3.857","2.55","0.24","29.5294","4.67227","27.94","0","SATNPRO1962","23.662","0.33142","5"],
    [28036,"HCEP03730560","2024-07-16 08:15:00","9.9155","3.26266","24.727","2.637","7.54","1.891","2.999","0.76","0.09","29.529","4.67222","28.17","0","SATNPRO1962","23.6","0.3306","5"],
    [28037,"HCEP03730560","2024-07-16 08:30:00","9.9156","3.26262","24.928","2.649","7.55","1.718","3.675","0.56","0.27","29.5285","4.67216","28.3","0","SATNPRO1962","23.676000000000002","0.33168","5"],
    [28038,"HCEP03730560","2024-07-16 08:45:00","9.9153","3.26251","25.074","2.671","7.55","1.494","3.143","0.31","0.26","29.5276","4.67204","28.52","0","SATNPRO1962","23.712","0.3321","5"],
    [28039,"HCEP03730560","2024-07-16 09:00:00","9.9163","3.26234","25.161","2.75","7.55","1.579","2.799","0.45","0.28","29.5251","4.67167","29.37","0","SATNPRO1962","24.474","0.3428","5"],
    [28040,"HCEP03730560","2024-07-16 09:15:00","9.9167","3.26216","25.27","2.801","7.56","2.091","3.12","1.48","0.22","29.5229","4.67135","29.91","0","SATNPRO1962","24.112","0.3377","5"],
    [28041,"HCEP03730560","2024-07-16 09:30:00","9.9167","3.2625","25.379","2.832","7.56","2.099","3.404","1.05","0.32","29.5263","4.67184","30.25","0","SATNPRO1962","24.302","0.3404","5"],
    [28042,"HCEP03730560","2024-07-16 09:45:00","9.9176","3.26226","25.498","2.865","7.57","2.063","2.853","1.16","0.22","29.5231","4.67137","30.6","0","SATNPRO1962","24.47","0.34272","5"],
    [28043,"HCEP03730560","2024-07-16 10:00:00","9.918","3.26206","25.547","3.022","7.58","1.457","2.345","0.38","0.15","29.5206","4.67102","32.28","0","SATNPRO1962","25.62","0.3589","5"],
    [28044,"HCEP03730560","2024-07-16 10:15:00","9.9195","3.26197","25.686","3.152","7.58","1.293","1.853","0.61","0.16","29.5185","4.6707","33.67","0","SATNPRO1962","25.7","0.35994","5"],
    [28045,"HCEP03730560","2024-07-16 10:30:00","9.9175","3.26239","25.851","3.037","7.57","1.547","2.834","0.37","0.18","29.5243","4.67157","32.44","0","SATNPRO1962","24.248","0.33962","5"],
    [28046,"HCEP03730560","2024-07-16 10:45:00","9.9172","3.26248","25.979","2.921","7.56","1.839","2.604","0.7","0.16","29.5254","4.67175","31.19","0","SATNPRO1962","24.298","0.34032","5"],
    [28047,"HCEP03730560","2024-07-16 11:00:00","9.9173","3.26227","26.104","2.926","7.57","1.107","1.984","0.22","0.1","29.5232","4.67143","31.25","0","SATNPRO1962","24.968","0.3497","5"],
    [28048,"HCEP03730560","2024-07-16 11:15:00","9.9169","3.26235","26.229","2.973","7.57","1.544","2.253","0.68","0.28","29.5242","4.67159","31.75","0","SATNPRO1962","24.914","0.34898","5"],
    [28049,"HCEP03730560","2024-07-16 11:30:00","9.9171","3.26252","26.354","2.932","7.56","1.499","2.778","0.36","0.3","29.5258","4.67182","31.31","0","SATNPRO1962","24.456","0.34256","5"],
    [28050,"HCEP03730560","2024-07-16 11:45:00","9.9171","3.26256","26.475","2.845","7.56","1.48","2.562","0.32","0.23","29.5261","4.67186","30.39","0","SATNPRO1962","24.316","0.3406","5"],
    [28051,"HCEP03730560","2024-07-16 12:00:00","9.918","3.26237","26.588","2.91","7.57","1.26","2.07","0.39","0.14","29.5233","4.67147","31.08","0","SATNPRO1962","24.852","0.34808","5"],
    [28052,"HCEP03730560","2024-07-16 12:15:00","9.9189","3.26236","26.687","2.988","7.57","1.326","2.117","0.65","0.39","29.5225","4.67134","31.92","0","SATNPRO1962","24.768","0.34694","5"],
    [28053,"HCEP03730560","2024-07-16 12:30:00","9.9198","3.26221","26.77","3.078","7.58","1.522","1.878","0.77","0.22","29.5203","4.67101","32.87","0","SATNPRO1962","25.268","0.35392","5"],
    [28054,"HCEP03730560","2024-07-16 12:45:00","9.9203","3.26203","26.853","3.167","7.59","1.829","1.57","1.59","0.14","29.5179","4.67067","33.83","0","SATNPRO1962","25.476","0.35682","5"],
    [28055,"HCEP03730560","2024-07-16 13:00:00","9.921","3.26207","26.92","3.239","7.59","1.079","1.523","0.49","0.11","29.5178","4.67064","34.59","0","SATNPRO1962","25.566","0.3581","5"],
    [28056,"HCEP03730560","2024-07-16 13:15:00","9.9218","3.26196","26.958","3.278","7.59","1.015","1.371","0.29","0.08","29.516","4.67038","35.01","0","SATNPRO1962","25.66","0.3594","5"],
    [28057,"HCEP03730560","2024-07-16 13:30:00","9.9214","3.26203","27.002","3.293","7.59","1.107","1.605","0.34","0.15","29.517","4.67053","35.17","0","SATNPRO1962","25.6","0.35858","5"],
    [28058,"HCEP03730560","2024-07-16 13:45:00","9.92","3.26201","27.038","3.247","7.59","1.144","1.602","0.33","0.2","29.5179","4.67069","34.68","0","SATNPRO1962","25.608","0.35866","5"],
    [28059,"HCEP03730560","2024-07-16 14:00:00","9.9201","3.2618","27.049","3.23","7.59","1.096","1.726","0.33","0.24","29.5157","4.67037","34.5","0","SATNPRO1962","25.57","0.35816","5"],
    [28060,"HCEP03730560","2024-07-16 14:15:00","9.9203","3.26168","27.065","3.251","7.59","1.072","1.552","0.25","0.07","29.5143","4.67017","34.72","0","SATNPRO1962","25.71","0.36012","5"],
    [28061,"HCEP03730560","2024-07-16 14:30:00","9.9201","3.26164","27.084","3.222","7.59","1.207","1.7","0.5","0.07","29.5142","4.67015","34.41","0","SATNPRO1962","25.392","0.35568","5"],
    [28062,"HCEP03730560","2024-07-16 14:45:00","9.9193","3.26159","27.099","3.178","7.59","1.668","1.836","0.59","0.2","29.5143","4.67019","33.94","0","SATNPRO1962","25.134","0.35206","5"],
    [28063,"HCEP03730560","2024-07-16 15:00:00","9.9184","3.26163","27.095","3.11","7.58","1.111","1.996","0.19","0.11","29.5155","4.67037","33.22","0","SATNPRO1962","25.062","0.35106","5"],
    [28064,"HCEP03730560","2024-07-16 15:15:00","9.9186","3.26198","27.082","3.058","7.58","1.226","1.984","0.35","0.12","29.5188","4.67083","32.66","0","SATNPRO1962","24.518","0.34342","5"],
    [28065,"HCEP03730560","2024-07-16 15:30:00","9.9196","3.26181","27.078","3.031","7.58","1.767","2.075","1.78","0.22","29.5162","4.67045","32.38","0","SATNPRO1962","24.97","0.34972","5"],
    [28066,"HCEP03730560","2024-07-16 15:45:00","9.9182","3.26226","27.046","2.969","7.57","1.261","2.169","0.27","0.1","29.5219","4.67129","31.71","0","SATNPRO1962","24.594","0.3445","5"],
    [28067,"HCEP03730560","2024-07-16 16:00:00","9.9184","3.26234","27.017","2.858","7.56","1.844","2.681","0.68","0.25","29.5226","4.67138","30.52","0","SATNPRO1962","24.108","0.33766","5"],
    [28068,"HCEP03730560","2024-07-16 16:15:00","9.9191","3.26223","26.996","2.832","7.56","1.833","2.466","0.64","0.17","29.5209","4.67112","30.25","0","SATNPRO1962","24.604","0.34464","5"],
    [28069,"HCEP03730560","2024-07-16 16:30:00","9.92","3.26195","26.95","2.884","7.56","1.915","2.601","0.85","0.28","29.5174","4.6706","30.8","0","SATNPRO1962","24.458000000000002","0.34258","5"],
    [28070,"HCEP03730560","2024-07-16 16:45:00","9.9208","3.2618","26.901","2.966","7.57","1.711","2.615","0.32","0.23","29.5152","4.67028","31.68","0","SATNPRO1962","25.024","0.35052","5"],
    [28071,"HCEP03730560","2024-07-16 17:00:00","9.9194","3.26223","26.868","2.91","7.56","2.621","2.773","1.81","0.3","29.5206","4.67107","31.08","0","SATNPRO1962","24.438","0.34224","5"],
    [28072,"HCEP03730560","2024-07-16 17:15:00","9.9192","3.26221","26.838","2.787","7.55","1.846","2.704","0.4","0.21","29.5207","4.67109","29.77","0","SATNPRO1962","24.066000000000003","0.3371","5"],
    [28073,"HCEP03730560","2024-07-16 17:30:00","9.9182","3.26248","26.819","2.69","7.55","2.114","3.494","0.65","1.5","29.5242","4.67161","28.73","0","SATNPRO1962","23.884","0.33456","5"],
    [28074,"HCEP03730560","2024-07-16 17:45:00","9.9177","3.2626","26.81","2.605","7.54","1.917","3.209","0.41","0.15","29.5258","4.67183","27.82","0","SATNPRO1962","23.498","0.32914","5"],
    [28075,"HCEP03730560","2024-07-16 18:00:00","9.9168","3.26272","26.787","2.513","7.53","1.969","3.588","0.64","0.39","29.5277","4.67213","26.84","0","SATNPRO1962","23.606","0.33064","5"],
    [28076,"HCEP03730560","2024-07-16 18:15:00","9.9173","3.26241","26.728","2.579","7.54","1.555","2.693","0.38","0.16","29.5242","4.67161","27.54","0","SATNPRO1962","24.152","0.33832","5"],
    [28077,"HCEP03730560","2024-07-16 18:30:00","9.9167","3.26251","26.732","2.674","7.54","1.657","3.363","0.25","0.3","29.5258","4.67185","28.56","0","SATNPRO1962","23.894000000000002","0.33464","5"],
    [28078,"HCEP03730560","2024-07-16 18:45:00","9.9165","3.2623","26.723","2.671","7.54","1.977","3.018","0.61","0.29","29.5238","4.67157","28.52","0","SATNPRO1962","24.317999999999998","0.34064","5"],
    [28079,"HCEP03730560","2024-07-16 19:00:00","9.9163","3.26219","26.709","2.684","7.55","1.661","3.066","0.32","0.26","29.5229","4.67144","28.66","0","SATNPRO1962","24.258","0.33976","5"],
    [28080,"HCEP03730560","2024-07-16 19:15:00","9.9165","3.2625","26.71","2.629","7.54","1.916","3.472","0.32","0.25","29.5259","4.67187","28.08","0","SATNPRO1962","23.532","0.32964","5"],
    [28081,"HCEP03730560","2024-07-16 19:30:00","9.9164","3.26257","26.759","2.52","7.53","1.773","3.503","0.35","0.21","29.5266","4.67198","26.92","0","SATNPRO1962","23.3","0.32634","5"],
    [28082,"HCEP03730560","2024-07-16 19:45:00","9.9163","3.26251","26.762","2.51","7.53","1.779","3.138","0.45","0.36","29.5261","4.67191","26.81","0","SATNPRO1962","23.364","0.32726","5"],
    [28083,"HCEP03730560","2024-07-16 20:00:00","9.9162","3.26253","26.804","2.521","7.53","1.688","3.155","0.29","0.16","29.5264","4.67195","26.92","0","SATNPRO1962","23.56","0.33","5"],
    [28084,"HCEP03730560","2024-07-16 20:15:00","9.9162","3.26244","26.831","2.55","7.54","1.617","2.85","0.45","0.22","29.5254","4.67181","27.23","0","SATNPRO1962","23.746","0.33258","5"],
    [28085,"HCEP03730560","2024-07-16 20:30:00","9.9165","3.26217","26.872","2.667","7.55","1.369","2.833","0.21","0.14","29.5224","4.67138","28.49","0","SATNPRO1962","23.9","0.33476","5"],
    [28086,"HCEP03730560","2024-07-16 20:45:00","9.9167","3.26215","26.873","2.727","7.55","1.097","2.245","0.23","0.29","29.5222","4.67134","29.12","0","SATNPRO1962","24.64","0.3451","5"],
    [28087,"HCEP03730560","2024-07-16 21:00:00","9.9165","3.26236","26.945","2.711","7.54","1.57","2.686","0.6","0.18","29.5244","4.67167","28.96","0","SATNPRO1962","24.02","0.3365","5"],
    [28088,"HCEP03730560","2024-07-16 21:15:00","9.9171","3.2621","26.984","2.734","7.55","1.174","2.14","0.24","0.12","29.5212","4.6712","29.2","0","SATNPRO1962","24.614","0.34476","5"],
    [28089,"HCEP03730560","2024-07-16 21:30:00","9.9168","3.26228","27.04","2.794","7.55","1.165","2.281","0.35","0.26","29.5233","4.6715","29.84","0","SATNPRO1962","24.47","0.34272","5"],
    [28090,"HCEP03730560","2024-07-16 21:45:00","9.9174","3.2623","27.093","2.777","7.55","1.047","2.097","0.18","0.08","29.5229","4.67145","29.66","0","SATNPRO1962","24.544","0.34378","5"],
    [28091,"HCEP03730560","2024-07-16 22:00:00","9.9179","3.26233","27.134","2.789","7.55","1.076","2.131","0.22","0.13","29.5228","4.67142","29.79","0","SATNPRO1962","24.352","0.34112","5"],
    [28092,"HCEP03730560","2024-07-16 22:15:00","9.9182","3.26239","27.183","2.784","7.55","1.153","2.099","0.27","0.09","29.5232","4.67147","29.74","0","SATNPRO1962","24.922","0.3491","5"],
    [28093,"HCEP03730560","2024-07-16 22:30:00","9.9183","3.26241","27.228","2.772","7.55","1.32","2.452","0.32","0.32","29.5233","4.67149","29.61","0","SATNPRO1962","24.416","0.342","5"],
    [28094,"HCEP03730560","2024-07-16 22:45:00","9.9187","3.26242","27.279","2.723","7.55","1.181","2.267","0.21","0.12","29.5231","4.67146","29.09","0","SATNPRO1962","24.422","0.34208","5"],
    [28095,"HCEP03730560","2024-07-16 23:00:00","9.9183","3.26242","27.323","2.653","7.54","1.391","2.765","0.48","0.25","29.5233","4.6715","28.33","0","SATNPRO1962","24.34","0.3409","5"],
    [28096,"HCEP03730560","2024-07-16 23:15:00","9.9181","3.26234","27.346","2.63","7.54","1.398","2.655","0.43","0.15","29.5227","4.67142","28.08","0","SATNPRO1962","24.288","0.34018","5"],
    [28097,"HCEP03730560","2024-07-16 23:30:00","9.918","3.26238","27.376","2.591","7.53","1.372","3.198","0.29","0.24","29.5231","4.67149","27.67","0","SATNPRO1962","24.178","0.33862","5"],
    [28098,"HCEP03730560","2024-07-16 23:45:00","9.9179","3.2623","27.395","2.54","7.53","1.892","2.978","0.95","0.23","29.5225","4.67139","27.13","0","SATNPRO1962","23.958","0.3356","5"],
    [28099,"HCEP03730560","2024-07-17 00:00:00","9.9176","3.2622","27.414","2.561","7.53","1.671","2.932","1.07","0.27","29.5217","4.67129","27.35","0","SATNPRO1962","24.018","0.33642","5"],
    [28100,"HCEP03730560","2024-07-17 00:15:00","9.9178","3.26212","27.408","2.544","7.53","1.726","3.245","0.98","0.48","29.5207","4.67114","27.17","0","SATNPRO1962","23.832","0.3338","5"],
    [28101,"HCEP03730560","2024-07-17 00:30:00","9.9174","3.26207","27.39","2.524","7.53","1.52","3.164","0.5","0.29","29.5206","4.67113","26.95","0","SATNPRO1962","23.856","0.33414","5"],
    [28102,"HCEP03730560","2024-07-17 00:45:00","9.9169","3.26205","27.361","2.544","7.53","1.389","2.815","0.31","0.17","29.5207","4.67115","27.17","0","SATNPRO1962","24.08","0.33722","5"],
    [28103,"HCEP03730560","2024-07-17 01:00:00","9.9166","3.26201","27.325","2.565","7.53","1.416","2.974","0.39","0.19","29.5206","4.67114","27.4","0","SATNPRO1962","24.066","0.33708","5"],
    [28104,"HCEP03730560","2024-07-17 01:15:00","9.9163","3.26196","27.272","2.601","7.54","1.426","2.669","0.39","0.17","29.5204","4.67112","27.78","0","SATNPRO1962","24.248","0.33962","5"],
    [28105,"HCEP03730560","2024-07-17 01:30:00","9.916","3.26193","27.209","2.598","7.53","1.457","3.093","0.33","0.26","29.5203","4.6711","27.75","0","SATNPRO1962","24.086","0.33732","5"],
    [28106,"HCEP03730560","2024-07-17 01:45:00","9.9155","3.26186","27.138","2.581","7.54","1.404","2.78","0.45","0.24","29.5201","4.67108","27.56","0","SATNPRO1962","24.291999999999998","0.34022","5"],
    [28107,"HCEP03730560","2024-07-17 02:00:00","9.9153","3.26184","27.043","2.55","7.53","1.28","2.905","0.25","0.32","29.5201","4.67108","27.24","0","SATNPRO1962","23.954","0.3355","5"],
    [28108,"HCEP03730560","2024-07-17 02:15:00","9.9151","3.2618","26.941","2.505","7.53","1.214","3.016","0.34","0.44","29.5199","4.67104","26.76","0","SATNPRO1962","23.956","0.33552","5"],
    [28109,"HCEP03730560","2024-07-17 02:30:00","9.915","3.26178","26.822","2.478","7.53","1.226","2.706","0.15","0.12","29.5198","4.67102","26.46","0","SATNPRO1962","24.008","0.33632","5"],
    [28110,"HCEP03730560","2024-07-17 02:45:00","9.9151","3.26176","26.688","2.501","7.53","1.212","2.652","0.24","0.15","29.5196","4.67098","26.71","0","SATNPRO1962","24.338","0.3409","5"],
    [28111,"HCEP03730560","2024-07-17 03:00:00","9.9149","3.26173","26.547","2.521","7.53","1.013","2.738","0.17","0.13","29.5196","4.67098","26.92","0","SATNPRO1962","24.548000000000002","0.34384","5"],
    [28112,"HCEP03730560","2024-07-17 03:15:00","9.9151","3.26172","26.382","2.524","7.53","1.116","2.577","0.14","0.14","29.5193","4.67092","26.96","0","SATNPRO1962","24.038","0.33668","5"],
    [28113,"HCEP03730560","2024-07-17 03:30:00","9.9151","3.26171","26.213","2.486","7.53","1.422","2.97","0.49","0.19","29.5192","4.67091","26.54","0","SATNPRO1962","24.024","0.33652","5"],
    [28114,"HCEP03730560","2024-07-17 03:45:00","9.9151","3.2617","26.048","2.455","7.52","2.422","2.821","1.42","0.13","29.5192","4.6709","26.22","0","SATNPRO1962","23.788","0.33322","5"],
    [28115,"HCEP03730560","2024-07-17 04:00:00","9.9152","3.26167","25.871","2.437","7.52","1.228","2.921","0.42","0.27","29.5189","4.67085","26.02","0","SATNPRO1962","23.896","0.3347","5"],
    [28116,"HCEP03730560","2024-07-17 04:15:00","9.9152","3.26167","25.687","2.433","7.52","1.197","2.815","0.21","0.22","29.519","4.67085","25.98","0","SATNPRO1962","23.87","0.33434","5"],
    [28117,"HCEP03730560","2024-07-17 04:30:00","9.9148","3.26165","25.504","2.426","7.52","1.15","3.015","0.25","0.23","29.5192","4.67086","25.9","0","SATNPRO1962","23.942","0.33534","5"],
    [28118,"HCEP03730560","2024-07-17 04:45:00","9.9151","3.26164","25.357","2.43","7.52","1.242","2.818","0.5","0.23","29.5189","4.67081","25.95","0","SATNPRO1962","23.9","0.33476","5"],
    [28119,"HCEP03730560","2024-07-17 05:00:00","9.9148","3.26169","25.183","2.402","7.52","1.404","3.232","0.46","0.13","29.5197","4.67093","25.65","0","SATNPRO1962","23.68","0.3317","5"],
    [28120,"HCEP03730560","2024-07-17 05:15:00","9.9145","3.26172","25.016","2.372","7.52","1.324","3.369","0.32","0.44","29.5204","4.67101","25.34","0","SATNPRO1962","23.74","0.33254","5"],
    [28121,"HCEP03730560","2024-07-17 05:30:00","9.9149","3.26181","24.872","2.365","7.52","1.476","3.573","0.38","0.22","29.521","4.67108","25.25","0","SATNPRO1962","23.672","0.33158","5"],
    [28122,"HCEP03730560","2024-07-17 05:45:00","9.9151","3.2619","24.714","2.362","7.52","1.199","3.312","0.23","0.25","29.5218","4.67119","25.22","0","SATNPRO1962","23.596","0.33048","5"],
    [28123,"HCEP03730560","2024-07-17 06:00:00","9.915","3.26191","24.566","2.337","7.51","1.403","3.578","0.3","0.22","29.5221","4.67122","24.96","0","SATNPRO1962","23.658","0.33136","5"],
    [28124,"HCEP03730560","2024-07-17 06:15:00","9.915","3.26202","24.451","2.334","7.52","1.733","3.156","1.97","0.48","29.5232","4.67137","24.93","0","SATNPRO1962","23.598","0.33054","5"],
    [28125,"HCEP03730560","2024-07-17 06:30:00","9.9153","3.26208","24.356","2.337","7.52","1.475","3.906","0.41","0.43","29.5236","4.67143","24.96","0","SATNPRO1962","23.49","0.32904","5"],
    [28126,"HCEP03730560","2024-07-17 06:45:00","9.9189","3.26262","24.263","2.399","7.52","1.972","2.863","0.98","0.17","29.5261","4.67171","25.63","0","SATNPRO1962","23.902","0.3348","5"],
    [28127,"HCEP03730560","2024-07-17 07:00:00","9.9189","3.26267","24.227","2.472","7.53","1.552","3.178","0.33","0.29","29.5265","4.67177","26.41","0","SATNPRO1962","23.89","0.33464","5"],
    [28128,"HCEP03730560","2024-07-17 07:15:00","9.9191","3.26266","24.2","2.471","7.53","1.525","2.757","0.54","0.1","29.5263","4.67174","26.39","0","SATNPRO1962","23.982","0.33592","5"],
    [28129,"HCEP03730560","2024-07-17 07:30:00","9.92","3.26285","24.185","2.47","7.53","1.314","3.261","0.31","0.21","29.5275","4.67189","26.38","0","SATNPRO1962","24.056","0.33694","5"],
    [28130,"HCEP03730560","2024-07-17 07:45:00","9.9229","3.26321","24.195","2.542","7.53","1.308","2.788","0.26","0.21","29.5288","4.67203","27.15","0","SATNPRO1962","23.842","0.33396","5"],
    [28131,"HCEP03730560","2024-07-17 08:00:00","9.9232","3.2631","24.226","2.575","7.53","1.634","3.136","1.7","0.2","29.5274","4.67183","27.51","0","SATNPRO1962","24.018","0.33644","5"],
    [28132,"HCEP03730560","2024-07-17 08:15:00","9.9218","3.26254","24.258","2.526","7.53","1.555","3.141","0.44","0.2","29.5229","4.67121","26.99","0","SATNPRO1962","23.954","0.3355","5"],
    [28133,"HCEP03730560","2024-07-17 08:30:00","9.9226","3.26309","24.316","2.494","7.53","1.374","3.154","0.34","0.19","29.5278","4.67189","26.64","0","SATNPRO1962","23.874","0.3344","5"],
    [28134,"HCEP03730560","2024-07-17 08:45:00","9.9222","3.263","24.407","2.454","7.52","1.587","3.509","0.25","0.21","29.5271","4.67181","26.21","0","SATNPRO1962","23.996","0.33612","5"],
    [28135,"HCEP03730560","2024-07-17 09:00:00","9.9255","3.2633","24.498","2.464","7.53","1.811","3.703","0.54","0.7","29.5274","4.67181","26.32","0","SATNPRO1962","24.064","0.33706","5"],
    [28136,"HCEP03730560","2024-07-17 09:15:00","9.9229","3.26304","24.618","2.453","7.52","1.695","3.604","0.5","0.23","29.5269","4.67178","26.2","0","SATNPRO1962","23.77","0.33294","5"],
    [28137,"HCEP03730560","2024-07-17 09:30:00","9.9231","3.26303","24.732","2.415","7.52","1.705","3.583","0.32","0.2","29.5265","4.67173","25.8","0","SATNPRO1962","23.502","0.32918","5"],
    [28138,"HCEP03730560","2024-07-17 09:45:00","9.924","3.26312","24.859","2.408","7.52","1.656","3.532","0.24","0.19","29.5267","4.67174","25.72","0","SATNPRO1962","23.642","0.33116","5"],
    [28139,"HCEP03730560","2024-07-17 10:00:00","9.9339","3.26444","25.007","2.525","7.54","1.416","3.266","0.26","0.17","29.5317","4.6723","26.98","0","SATNPRO1962","24.362000000000002","0.34126","5"],
    [28140,"HCEP03730560","2024-07-17 10:15:00","9.9418","3.26556","25.154","2.737","7.55","1.628","3.334","0.35","0.22","29.5365","4.67286","29.25","0","SATNPRO1962","24.392","0.34166","5"],
    [28141,"HCEP03730560","2024-07-17 10:30:00","9.9424","3.26578","25.293","2.811","7.55","1.6","3.859","0.28","0.39","29.5381","4.67309","30.04","0","SATNPRO1962","24.366","0.34128","5"],
    [28142,"HCEP03730560","2024-07-17 10:45:00","9.9413","3.26572","25.464","2.807","7.55","1.687","3.801","0.4","0.47","29.5384","4.67316","30","0","SATNPRO1962","24.227999999999998","0.33936","5"],
    [28143,"HCEP03730560","2024-07-17 11:00:00","9.941","3.26572","25.625","2.788","7.55","1.514","3.477","0.28","0.16","29.5385","4.67318","29.79","0","SATNPRO1962","24.25","0.33968","5"],
    [28144,"HCEP03730560","2024-07-17 11:15:00","9.9405","3.26568","25.81","2.774","7.55","1.563","3.608","0.13","0.12","29.5384","4.67319","29.64","0","SATNPRO1962","24.248","0.3396","5"],
    [28145,"HCEP03730560","2024-07-17 11:30:00","9.9472","3.26633","25.985","2.89","7.57","1.229","2.756","0.18","0.21","29.5394","4.67324","30.89","0","SATNPRO1962","24.754","0.34672","5"],
    [28146,"HCEP03730560","2024-07-17 11:45:00","9.9456","3.26621","26.149","2.979","7.57","1.306","2.774","0.21","0.08","29.5395","4.67329","31.83","0","SATNPRO1962","24.662","0.34542","5"],
    [28147,"HCEP03730560","2024-07-17 12:00:00","9.9404","3.26563","26.308","2.902","7.56","1.331","3.031","0.25","0.14","29.5378","4.67314","31.01","0","SATNPRO1962","24.424","0.3421","5"],
    [28148,"HCEP03730560","2024-07-17 12:15:00","9.9407","3.26561","26.462","2.817","7.56","1.358","3.047","0.14","0.15","29.5373","4.67307","30.1","0","SATNPRO1962","24.502","0.34316","5"],
    [28149,"HCEP03730560","2024-07-17 12:30:00","9.9388","3.26537","26.613","2.787","7.55","1.304","3.267","0.28","0.12","29.5365","4.67299","29.78","0","SATNPRO1962","24.288","0.34018","5"],
    [28150,"HCEP03730560","2024-07-17 12:45:00","9.9389","3.2652","26.736","2.756","7.55","1.395","3.113","0.32","0.16","29.5346","4.67273","29.45","0","SATNPRO1962","24.238","0.3395","5"],
    [28151,"HCEP03730560","2024-07-17 13:00:00","9.9399","3.26538","26.892","2.766","7.55","1.282","2.973","0.16","0.1","29.5355","4.67285","29.56","0","SATNPRO1962","24.468","0.3427","5"],
    [28152,"HCEP03730560","2024-07-17 13:15:00","9.94","3.26538","27.002","2.784","7.55","1.335","3.06","0.19","0.12","29.5353","4.67283","29.75","0","SATNPRO1962","24.27","0.33992","5"],
    [28153,"HCEP03730560","2024-07-17 13:30:00","9.9405","3.26539","27.105","2.783","7.55","1.282","2.846","0.23","0.1","29.535","4.67279","29.74","0","SATNPRO1962","24.387999999999998","0.3416","5"],
    [28154,"HCEP03730560","2024-07-17 13:45:00","9.9377","3.26497","27.127","2.757","7.55","1.336","2.961","0.15","0.11","29.5331","4.67256","29.46","0","SATNPRO1962","24.276","0.34004","5"],
    [28155,"HCEP03730560","2024-07-17 14:00:00","9.9344","3.26456","27.22","2.671","7.54","1.32","3.311","0.13","0.12","29.5316","4.67241","28.54","0","SATNPRO1962","23.972","0.33574","5"],
    [28156,"HCEP03730560","2024-07-17 14:15:00","9.9343","3.26443","27.319","2.625","7.54","1.37","3.119","0.17","0.09","29.5303","4.67223","28.05","0","SATNPRO1962","24.094","0.33744","5"],
    [28157,"HCEP03730560","2024-07-17 14:30:00","9.9358","3.26443","27.321","2.665","7.54","1.326","3.107","0.19","0.12","29.5292","4.67204","28.48","0","SATNPRO1962","24.144","0.33818","5"],
    [28158,"HCEP03730560","2024-07-17 14:45:00","9.9348","3.26445","27.298","2.646","7.54","1.477","3.333","0.22","0.13","29.5302","4.6722","28.27","0","SATNPRO1962","23.988","0.33598","5"],
    [28159,"HCEP03730560","2024-07-17 15:00:00","9.9348","3.26438","27.358","2.602","7.54","1.462","3.262","0.25","0.13","29.5294","4.6721","27.8","0","SATNPRO1962","23.983999999999998","0.33594","5"],
    [28160,"HCEP03730560","2024-07-17 15:15:00","9.9337","3.26428","27.405","2.581","7.54","1.674","3.348","0.27","0.13","29.5293","4.6721","27.58","0","SATNPRO1962","23.892","0.33464","5"],
    [28161,"HCEP03730560","2024-07-17 15:30:00","9.9329","3.26404","27.395","2.555","7.53","1.535","3.454","0.23","0.14","29.5276","4.67186","27.3","0","SATNPRO1962","23.892","0.33464","5"],
    [28162,"HCEP03730560","2024-07-17 15:45:00","9.9321","3.26392","27.453","2.538","7.53","1.416","3.289","0.09","0.1","29.527","4.67181","27.11","0","SATNPRO1962","23.77","0.33296","5"],
    [28163,"HCEP03730560","2024-07-17 16:00:00","9.9308","3.26364","27.429","2.524","7.53","1.414","3.201","0.22","0.16","29.5252","4.67157","26.96","0","SATNPRO1962","23.77","0.3329","5"],
    [28164,"HCEP03730560","2024-07-17 16:15:00","9.9302","3.26366","27.393","2.488","7.53","1.604","3.344","0.29","0.19","29.526","4.67168","26.58","0","SATNPRO1962","23.822","0.3337","5"],
    [28165,"HCEP03730560","2024-07-17 16:30:00","9.93","3.26375","27.411","2.435","7.52","1.418","3.435","0.18","0.11","29.5271","4.67185","26.01","0","SATNPRO1962","23.428","0.32814","5"],
    [28166,"HCEP03730560","2024-07-17 16:45:00","9.9302","3.26385","27.406","2.407","7.52","1.471","3.348","0.33","0.17","29.5279","4.67197","25.72","0","SATNPRO1962","23.266000000000002","0.32588","5"],
    [28167,"HCEP03730560","2024-07-17 17:00:00","9.9284","3.2636","27.369","2.397","7.52","1.472","3.568","0.45","0.46","29.5269","4.67185","25.61","0","SATNPRO1962","23.456","0.32854","5"],
    [28168,"HCEP03730560","2024-07-17 17:15:00","9.9267","3.26339","27.323","2.373","7.52","1.342","3.239","0.22","0.22","29.5262","4.67177","25.35","0","SATNPRO1962","23.496000000000002","0.32912","5"],
    [28169,"HCEP03730560","2024-07-17 17:30:00","9.925","3.26315","27.286","2.346","7.52","1.752","3.598","0.98","0.44","29.5252","4.67165","25.06","0","SATNPRO1962","23.58","0.33026","5"],
    [28170,"HCEP03730560","2024-07-17 17:45:00","9.9239","3.26286","27.265","2.328","7.51","1.375","2.912","0.29","0.1","29.5232","4.67139","24.86","0","SATNPRO1962","23.548","0.32984","5"],
    [28171,"HCEP03730560","2024-07-17 18:00:00","9.9237","3.26267","27.19","2.33","7.51","1.202","2.893","0.19","0.11","29.5215","4.67114","24.89","0","SATNPRO1962","23.721999999999998","0.33226","5"],
    [28172,"HCEP03730560","2024-07-17 18:15:00","9.923400000000001","3.26257","27.172","2.343","7.52","1.343","2.675","0.29","0.08","29.5207","4.67104","25.03","0","SATNPRO1962","23.884","0.33452","5"],
    [28173,"HCEP03730560","2024-07-17 18:30:00","9.9237","3.26247","27.087","2.374","7.52","1.209","2.711","0.16","0.08","29.5195","4.67086","25.36","0","SATNPRO1962","23.976","0.3358","5"],
    [28174,"HCEP03730560","2024-07-17 18:45:00","9.9236","3.2626","27.049","2.366","7.51","1.387","2.7","0.42","0.14","29.5209","4.67105","25.27","0","SATNPRO1962","23.58","0.3303","5"],
    [28175,"HCEP03730560","2024-07-17 19:00:00","9.9242","3.26268","27.041","2.35","7.52","1.231","2.717","0.31","0.09","29.5212","4.67109","25.1","0","SATNPRO1962","23.808","0.33344","5"],
    [28176,"HCEP03730560","2024-07-17 19:15:00","9.9261","3.26277","27.004","2.416","7.52","1.196","2.589","0.19","0.08","29.5206","4.67096","25.8","0","SATNPRO1962","24.034","0.33664","5"],
    [28177,"HCEP03730560","2024-07-17 19:30:00","9.9294","3.26347","26.993","2.473","7.52","1.08","2.687","0.1","0.04","29.5249","4.67152","26.42","0","SATNPRO1962","23.922","0.33506","5"],
    [28178,"HCEP03730560","2024-07-17 19:45:00","9.9338","3.26411","26.997","2.531","7.53","1.189","2.654","0.27","0.07","29.5277","4.67185","27.05","0","SATNPRO1962","23.988","0.33598","5"],
    [28179,"HCEP03730560","2024-07-17 20:00:00","9.9386","3.2645","27.01","2.629","7.54","1.051","2.704","0.13","0.09","29.5277","4.67176","28.09","0","SATNPRO1962","24.22","0.33926","5"],
    [28180,"HCEP03730560","2024-07-17 20:15:00","9.939","3.26462","26.991","2.652","7.54","1.07","2.693","0.13","0.06","29.5286","4.67188","28.34","0","SATNPRO1962","24.076","0.3372","5"],
    [28181,"HCEP03730560","2024-07-17 20:30:00","9.9404","3.26522","26.989","2.637","7.54","1.173","3.265","0.09","0.16","29.5334","4.67255","28.18","0","SATNPRO1962","23.95","0.33546","5"],
    [28182,"HCEP03730560","2024-07-17 20:45:00","9.946","3.26587","27.032","2.697","7.55","1.155","2.933","0.12","0.08","29.5354","4.67274","28.83","0","SATNPRO1962","24.324","0.34072","5"],
    [28183,"HCEP03730560","2024-07-17 21:00:00","9.9474","3.26616","26.991","2.74","7.54","1.269","3.305","0.14","0.08","29.5372","4.67297","29.29","0","SATNPRO1962","24.152","0.33832","5"],
    [28184,"HCEP03730560","2024-07-17 21:15:00","9.9554","3.26717","27.08","2.793","7.56","1.096","2.788","0.11","0.09","29.5407","4.67334","29.86","0","SATNPRO1962","24.276","0.34002","5"],
    [28185,"HCEP03730560","2024-07-17 21:30:00","9.9536","3.26705","27.113","2.834","7.55","1.296","3.246","0.27","0.13","29.5409","4.6734","30.29","0","SATNPRO1962","23.99","0.336","5"],
    [28186,"HCEP03730560","2024-07-17 21:45:00","9.9578","3.26753","27.119","2.854","7.56","1.243","2.903","0.15","0.08","29.5424","4.67354","30.51","0","SATNPRO1962","24.276","0.33998","5"],
    [28187,"HCEP03730560","2024-07-17 22:00:00","9.9539","3.26708","27.155","2.79","7.55","1.394","3.48","0.23","0.1","29.5409","4.6734","29.82","0","SATNPRO1962","23.914","0.33498","5"],
    [28188,"HCEP03730560","2024-07-17 22:15:00","9.9639","3.26839","27.176","2.851","7.56","1.218","2.819","0.15","0.06","29.5459","4.67395","30.48","0","SATNPRO1962","24.334","0.34086","5"],
    [28189,"HCEP03730560","2024-07-17 22:30:00","9.9634","3.26841","27.235","2.926","7.56","1.242","2.955","0.25","0.16","29.5465","4.67404","31.28","0","SATNPRO1962","24.252","0.33966","5"],
    [28190,"HCEP03730560","2024-07-17 22:45:00","9.9619","3.26822","27.273","2.874","7.56","1.525","3.851","0.5","0.17","29.5458","4.67397","30.72","0","SATNPRO1962","23.772","0.33296","5"],
    [28191,"HCEP03730560","2024-07-17 23:00:00","9.9667","3.2689","27.328","2.883","7.56","1.325","3.301","0.19","0.16","29.5487","4.6743","30.82","0","SATNPRO1962","24.092","0.33746","5"],
    [28192,"HCEP03730560","2024-07-17 23:15:00","9.9629","3.26837","27.361","2.869","7.56","1.444","3.944","0.17","0.14","29.5465","4.67406","30.68","0","SATNPRO1962","23.66","0.3314","5"],
    [28193,"HCEP03730560","2024-07-17 23:30:00","9.9688","3.26926","27.409","2.917","7.57","1.146","2.889","0.19","0.21","29.5505","4.67454","31.19","0","SATNPRO1962","24.372","0.34136","5"],
    [28194,"HCEP03730560","2024-07-17 23:45:00","9.9667","3.26893","27.441","2.973","7.57","1.46","2.978","0.48","0.16","29.549","4.67435","31.8","0","SATNPRO1962","24.208","0.33904","5"],
    [28195,"HCEP03730560","2024-07-18 00:00:00","9.9663","3.2689","27.464","2.94","7.56","1.387","3.003","0.58","0.14","29.5489","4.67435","31.44","0","SATNPRO1962","24.19","0.3388","5"],
    [28196,"HCEP03730560","2024-07-18 00:15:00","9.9674","3.26906","27.483","2.931","7.57","1.283","3.089","0.54","0.16","29.5497","4.67444","31.34","0","SATNPRO1962","24.142","0.33814","5"],
    [28197,"HCEP03730560","2024-07-18 00:30:00","9.969","3.26909","27.501","3.037","7.58","1.257","2.495","0.41","0.13","29.5486","4.67426","32.48","0","SATNPRO1962","24.658","0.34538","5"],
    [28198,"HCEP03730560","2024-07-18 00:45:00","9.9653","3.26861","27.502","3.019","7.57","1.242","3.193","0.21","0.14","29.5469","4.67409","32.28","0","SATNPRO1962","24.308","0.3405","5"],
    [28199,"HCEP03730560","2024-07-18 01:00:00","9.9645","3.26846","27.508","2.931","7.56","1.151","3.033","0.19","0.17","29.546","4.67397","31.34","0","SATNPRO1962","24.236","0.33944","5"],
    [28200,"HCEP03730560","2024-07-18 01:15:00","9.9625","3.26808","27.479","2.895","7.56","1.131","2.883","0.2","0.14","29.5439","4.6737","30.95","0","SATNPRO1962","24.278","0.34006","5"],
    [28201,"HCEP03730560","2024-07-18 01:30:00","9.9635","3.26815","27.439","2.93","7.57","1.102","2.842","0.15","0.13","29.5437","4.67366","31.33","0","SATNPRO1962","24.474","0.34278","5"],
    [28202,"HCEP03730560","2024-07-18 01:45:00","9.9573","3.26731","27.398","2.889","7.56","1.227","2.902","0.26","0.11","29.5404","4.67328","30.89","0","SATNPRO1962","24.122","0.33786","5"],
    [28203,"HCEP03730560","2024-07-18 02:00:00","9.9508","3.26645","27.344","2.785","7.55","1.148","3.165","0.2","0.13","29.5371","4.67293","29.77","0","SATNPRO1962","24.068","0.33708","5"],
    [28204,"HCEP03730560","2024-07-18 02:15:00","9.9457","3.26579","27.286","2.673","7.54","1.263","3.466","0.22","0.16","29.5347","4.67266","28.56","0","SATNPRO1962","23.838","0.33388","5"],
    [28205,"HCEP03730560","2024-07-18 02:30:00","9.9457","3.26575","27.23","2.618","7.54","1.165","3.395","0.18","0.19","29.5344","4.67261","27.98","0","SATNPRO1962","23.774","0.33296","5"],
    [28206,"HCEP03730560","2024-07-18 02:45:00","9.9417","3.26523","27.121","2.588","7.53","1.423","3.136","0.83","0.15","29.5324","4.67239","27.66","0","SATNPRO1962","23.756","0.33276","5"],
    [28207,"HCEP03730560","2024-07-18 03:00:00","9.9394","3.26484","27.019","2.528","7.53","1.429","3.32","0.32","0.16","29.5305","4.67215","27.02","0","SATNPRO1962","23.678","0.33166","5"],
    [28208,"HCEP03730560","2024-07-18 03:15:00","9.9384","3.2646","26.882","2.515","7.53","1.282","3.079","0.46","0.14","29.529","4.67194","26.87","0","SATNPRO1962","23.814","0.33352","5"],
    [28209,"HCEP03730560","2024-07-18 03:30:00","9.9491","3.26542","26.758","2.773","7.56","0.996","2.593","0.3","0.12","29.5284","4.67168","29.64","0","SATNPRO1962","24.674","0.3456","5"],
    [28210,"HCEP03730560","2024-07-18 03:45:00","9.9453","3.26507","26.602","2.841","7.55","1.296","2.571","0.61","0.18","29.5281","4.67169","30.36","0","SATNPRO1962","24.716","0.3462","5"],
    [28211,"HCEP03730560","2024-07-18 04:00:00","9.9381","3.26459","26.431","2.659","7.53","2.098","3.361","1.58","0.24","29.5293","4.67197","28.42","0","SATNPRO1962","23.608","0.33064","5"],
    [28212,"HCEP03730560","2024-07-18 04:15:00","9.9395","3.2648","26.252","2.515","7.53","1.119","3.334","0.22","0.18","29.5303","4.67208","26.88","0","SATNPRO1962","23.766","0.3329","5"],
    [28213,"HCEP03730560","2024-07-18 04:30:00","9.9397","3.26491","26.082","2.487","7.53","1.237","3.679","0.23","0.17","29.5313","4.67221","26.58","0","SATNPRO1962","23.652","0.3313","5"],
    [28214,"HCEP03730560","2024-07-18 04:45:00","9.9372","3.26479","25.891","2.434","7.52","1.462","3.734","0.89","0.26","29.5322","4.67237","26.01","0","SATNPRO1962","23.346","0.32702","5"],
    [28215,"HCEP03730560","2024-07-18 05:00:00","9.9363","3.26464","25.711","2.407","7.52","1.665","3.799","0.53","0.33","29.5315","4.67228","25.72","0","SATNPRO1962","23.494","0.32908","5"],
    [28216,"HCEP03730560","2024-07-18 05:15:00","9.9334","3.26424","25.506","2.37","7.52","1.439","3.433","0.32","0.15","29.5299","4.67208","25.32","0","SATNPRO1962","23.176000000000002","0.32464","5"],
    [28217,"HCEP03730560","2024-07-18 05:30:00","9.9313","3.26386","25.315","2.335","7.51","1.018","3.192","0.23","0.13","29.5279","4.67182","24.94","0","SATNPRO1962","24.012","0.3363","5"],
    [28218,"HCEP03730560","2024-07-18 05:45:00","9.9368","3.26401","25.127","2.609","7.54","1.044","2.209","0.24","0.16","29.5251","4.67131","27.87","0","SATNPRO1962","25.926000000000002","0.36312","5"],
    [28219,"HCEP03730560","2024-07-18 06:00:00","9.9348","3.26346","24.935","2.884","7.55","1.134","2.531","0.44","0.21","29.5212","4.67079","30.82","0","SATNPRO1962","25.486","0.35696","5"],
    [28220,"HCEP03730560","2024-07-18 06:15:00","9.9339","3.26407","24.757","2.673","7.54","1.85","3.398","0.69","0.17","29.5281","4.67178","28.56","0","SATNPRO1962","23.932","0.33518","5"],
    [28221,"HCEP03730560","2024-07-18 06:30:00","9.9348","3.2645","24.596","2.547","7.52","1.88","4.046","0.82","0.38","29.5319","4.67229","27.21","0","SATNPRO1962","23.612","0.33072","5"],
    [28222,"HCEP03730560","2024-07-18 06:45:00","9.9359","3.26454","24.463","2.428","7.52","1.576","3.646","0.48","0.23","29.5314","4.67219","25.94","0","SATNPRO1962","23.586","0.33032","5"],
    [28223,"HCEP03730560","2024-07-18 07:00:00","9.9399","3.26532","24.322","2.408","7.52","1.554","3.914","0.25","0.19","29.5359","4.67276","25.73","0","SATNPRO1962","23.162","0.32442","5"],
    [28224,"HCEP03730560","2024-07-18 07:15:00","9.941","3.26548","24.206","2.362","7.52","1.538","3.723","0.36","0.29","29.5367","4.67286","25.24","0","SATNPRO1962","23.298","0.32636","5"],
    [28225,"HCEP03730560","2024-07-18 07:30:00","9.9416","3.26554","24.122","2.394","7.52","1.505","3.803","0.24","0.29","29.5369","4.67286","25.59","0","SATNPRO1962","23.214","0.32514","5"],
    [28226,"HCEP03730560","2024-07-18 07:45:00","9.9396","3.26522","24.057","2.458","7.52","1.435","3.082","0.64","0.16","29.5353","4.67267","26.27","0","SATNPRO1962","23.798000000000002","0.3333","5"],
    [28227,"HCEP03730560","2024-07-18 08:00:00","9.9404","3.26535","24.026","2.502","7.53","1.708","3.442","0.46","0.17","29.5359","4.67274","26.74","0","SATNPRO1962","23.664","0.33146","5"],
    [28228,"HCEP03730560","2024-07-18 08:15:00","9.9393","3.26505","24.013","2.528","7.53","1.192","3.06","0.19","0.14","29.5339","4.67247","27.01","0","SATNPRO1962","23.842","0.33396","5"],
    [28229,"HCEP03730560","2024-07-18 08:30:00","9.9403","3.26512","24.02","2.557","7.53","1.352","3.103","0.35","0.42","29.5337","4.67242","27.32","0","SATNPRO1962","24.434","0.34226","5"],
    [28230,"HCEP03730560","2024-07-18 08:45:00","9.9411","3.26522","24.054","2.554","7.53","1.13","2.807","0.28","0.14","29.5341","4.67246","27.29","0","SATNPRO1962","24.282","0.34008","5"],
    [28231,"HCEP03730560","2024-07-18 09:00:00","9.9388","3.26498","24.092","2.535","7.53","1.165","2.772","0.24","0.14","29.5335","4.67242","27.09","0","SATNPRO1962","24.012","0.33632","5"],
    [28232,"HCEP03730560","2024-07-18 09:15:00","9.9401","3.26525","24.145","2.498","7.53","1.221","2.891","0.23","0.12","29.5351","4.67264","26.69","0","SATNPRO1962","24.067999999999998","0.33714","5"],
    [28233,"HCEP03730560","2024-07-18 09:30:00","9.9399","3.26521","24.226","2.419","7.52","1.267","3.262","0.31","0.16","29.5349","4.67261","25.85","0","SATNPRO1962","23.324","0.3267","5"],
    [28234,"HCEP03730560","2024-07-18 09:45:00","9.9346","3.26431","24.345","2.352","7.51","1.325","2.805","0.26","0.12","29.5302","4.67203","25.13","0","SATNPRO1962","23.282","0.32608","5"],
    [28235,"HCEP03730560","2024-07-18 10:00:00","9.9267","3.26278","24.464","2.268","7.51","1.427","2.961","1.39","0.19","29.5212","4.67089","24.22","0","SATNPRO1962","23.388","0.3276","5"],
    [28236,"HCEP03730560","2024-07-18 10:15:00","9.9278","3.26158","24.62","2.186","7.5","1.374","2.773","0.3","0.21","29.5082","4.66903","23.35","0","SATNPRO1962","23.604","0.33064","5"],
    [28237,"HCEP03730560","2024-07-18 10:30:00","9.926","3.26196","24.764","2.104","7.49","1.225","2.788","0.25","0.19","29.5135","4.66982","22.48","0","SATNPRO1962","23.294","0.3263","5"],
    [28238,"HCEP03730560","2024-07-18 10:45:00","9.9254","3.2623","24.867","2.173","7.5","1.052","2.457","0.14","0.08","29.5173","4.67038","23.22","0","SATNPRO1962","23.628","0.33094","5"],
    [28239,"HCEP03730560","2024-07-18 11:00:00","9.9324","3.26405","25.039","2.349","7.52","1.594","3.766","0.27","0.38","29.529","4.67195","25.1","0","SATNPRO1962","23.79","0.33326","5"],
    [28240,"HCEP03730560","2024-07-18 11:15:00","9.9362","3.26495","25.249","2.398","7.51","2.289","5.231","0.36","0.41","29.5348","4.67272","25.63","0","SATNPRO1962","23.254","0.32568","5"],
    [28241,"HCEP03730560","2024-07-18 11:30:00","9.9355","3.26495","25.426","2.39","7.52","1.886","4.28","0.29","0.23","29.5353","4.67282","25.54","0","SATNPRO1962","23.71","0.3321","5"],
    [28242,"HCEP03730560","2024-07-18 11:45:00","9.9355","3.26499","25.607","2.478","7.52","1.886","4.246","0.25","0.22","29.5358","4.67289","26.48","0","SATNPRO1962","23.878","0.3345","5"],
    [28243,"HCEP03730560","2024-07-18 12:00:00","9.9341","3.2648","25.776","2.533","7.53","1.836","4.469","0.2","0.41","29.5349","4.67279","27.06","0","SATNPRO1962","24.218","0.3392","5"],
    [28244,"HCEP03730560","2024-07-18 12:15:00","9.9316","3.26443","25.985","2.563","7.53","1.7","3.797","0.28","0.24","29.5331","4.67259","27.39","0","SATNPRO1962","24.178","0.33866","5"],
    [28245,"HCEP03730560","2024-07-18 12:30:00","9.9302","3.26407","26.187","2.609","7.53","1.622","3.922","0.26","0.22","29.5306","4.67227","27.87","0","SATNPRO1962","24.582","0.3443","5"],
    [28246,"HCEP03730560","2024-07-18 12:45:00","9.9293","3.26406","26.366","2.608","7.53","1.766","4.178","0.29","0.3","29.5312","4.67238","27.86","0","SATNPRO1962","24.276","0.34002","5"],
    [28247,"HCEP03730560","2024-07-18 13:00:00","9.9251","3.26336","26.538","2.57","7.53","1.514","3.406","0.28","0.29","29.5275","4.67193","27.45","0","SATNPRO1962","24.196","0.33888","5"],
    [28248,"HCEP03730560","2024-07-18 13:15:00","9.923","3.26309","26.687","2.439","7.52","1.558","3.729","0.3","0.21","29.5264","4.67182","26.05","0","SATNPRO1962","23.622","0.33088","5"],
    [28249,"HCEP03730560","2024-07-18 13:30:00","9.9225","3.26301","26.833","2.294","7.51","1.529","3.804","0.25","0.22","29.5261","4.6718","24.5","0","SATNPRO1962","23.314","0.32658","5"],
    [28250,"HCEP03730560","2024-07-18 13:45:00","9.9224","3.26298","26.971","2.239","7.5","1.634","3.661","0.36","0.22","29.5257","4.67176","23.92","0","SATNPRO1962","23.174","0.3246","5"],
    [28251,"HCEP03730560","2024-07-18 14:00:00","9.9219","3.26288","27.102","2.184","7.5","1.52","4.063","0.26","0.19","29.5251","4.67168","23.33","0","SATNPRO1962","22.904","0.32082","5"],
    [28252,"HCEP03730560","2024-07-18 14:15:00","9.9214","3.26275","27.242","2.111","7.49","1.649","3.655","0.63","0.18","29.5242","4.67157","22.55","0","SATNPRO1962","22.646","0.31718","5"],
    [28253,"HCEP03730560","2024-07-18 14:30:00","9.9211","3.26263","27.321","2.056","7.49","1.343","3.448","0.24","0.25","29.5232","4.67144","21.96","0","SATNPRO1962","22.668","0.3175","5"],
    [28254,"HCEP03730560","2024-07-18 14:45:00","9.921","3.26255","27.403","2.02","7.49","1.437","3.251","0.31","0.28","29.5224","4.67133","21.58","0","SATNPRO1962","22.566","0.31608","5"],
    [28255,"HCEP03730560","2024-07-18 15:00:00","9.9209","3.26248","27.47","2.002","7.48","1.462","3.217","0.23","0.18","29.5218","4.67124","21.38","0","SATNPRO1962","22.558","0.316","5"],
    [28256,"HCEP03730560","2024-07-18 15:15:00","9.921","3.26249","27.536","1.991","7.48","1.452","3.06","0.32","0.21","29.5217","4.67124","21.27","0","SATNPRO1962","22.568","0.31606","5"],
    [28257,"HCEP03730560","2024-07-18 15:30:00","9.9214","3.2626","27.569","1.987","7.48","1.557","3.541","0.35","0.23","29.5225","4.67135","21.22","0","SATNPRO1962","22.522","0.31542","5"],
    [28258,"HCEP03730560","2024-07-18 15:45:00","9.9213","3.26257","27.591","1.987","7.48","1.361","3.213","0.18","0.23","29.5223","4.67132","21.23","0","SATNPRO1962","22.602","0.31664","5"],
    [28259,"HCEP03730560","2024-07-18 16:00:00","9.9211","3.2625","27.62","1.989","7.48","1.586","3.328","1.04","0.72","29.5218","4.67125","21.24","0","SATNPRO1962","22.618","0.31682","5"],
    [28260,"HCEP03730560","2024-07-18 16:15:00","9.9209","3.26241","27.63","1.986","7.48","1.351","2.842","0.35","0.2","29.5209","4.67113","21.22","0","SATNPRO1962","22.622","0.31686","5"],
    [28261,"HCEP03730560","2024-07-18 16:30:00","9.9211","3.26242","27.668","1.973","7.48","1.4","3.17","0.31","0.28","29.521","4.67114","21.07","0","SATNPRO1962","22.49","0.31504","5"],
    [28262,"HCEP03730560","2024-07-18 16:45:00","9.9211","3.26236","27.659","1.953","7.48","1.539","3.079","0.45","0.23","29.5204","4.67105","20.85","0","SATNPRO1962","22.658","0.31734","5"],
    [28263,"HCEP03730560","2024-07-18 17:00:00","9.9203","3.26211","27.647","1.957","7.48","1.296","2.934","0.35","0.2","29.5184","4.67079","20.9","0","SATNPRO1962","22.654","0.31732","5"],
    [28264,"HCEP03730560","2024-07-18 17:15:00","9.9203","3.26203","27.632","1.978","7.48","1.15","2.807","0.18","0.11","29.5177","4.67068","21.13","0","SATNPRO1962","22.764","0.31882","5"],
    [28265,"HCEP03730560","2024-07-18 17:30:00","9.9197","3.26193","27.632","1.998","7.48","1.186","2.912","0.28","0.2","29.5172","4.67061","21.33","0","SATNPRO1962","22.816","0.3196","5"],
    [28266,"HCEP03730560","2024-07-18 17:45:00","9.9202","3.26193","27.664","2.009","7.48","1.304","3.004","0.22","0.23","29.5168","4.67056","21.46","0","SATNPRO1962","22.740000000000002","0.3185","5"],
    [28267,"HCEP03730560","2024-07-18 18:00:00","9.9201","3.26192","27.57","2.019","7.48","1.301","3.043","0.28","0.12","29.5167","4.67054","21.56","0","SATNPRO1962","22.756","0.31874","5"],
    [28268,"HCEP03730560","2024-07-18 18:15:00","9.9201","3.26193","27.562","2.015","7.48","1.276","2.84","0.29","0.11","29.5168","4.67056","21.52","0","SATNPRO1962","22.764","0.31882","5"],
    [28269,"HCEP03730560","2024-07-18 18:30:00","9.9204","3.26211","27.428","1.974","7.48","1.297","3.196","0.19","0.12","29.5184","4.67077","21.08","0","SATNPRO1962","22.362","0.3132","5"],
    [28270,"HCEP03730560","2024-07-18 18:45:00","9.9202","3.26198","27.436","1.964","7.48","1.133","2.784","0.11","0.08","29.5173","4.67061","20.98","0","SATNPRO1962","22.622","0.31688","5"],
    [28271,"HCEP03730560","2024-07-18 19:00:00","9.9204","3.26199","27.391","1.986","7.48","1.109","2.81","0.16","0.11","29.5173","4.67061","21.21","0","SATNPRO1962","22.55","0.31586","5"],
    [28272,"HCEP03730560","2024-07-18 19:15:00","9.9202","3.26198","27.321","1.992","7.48","1.16","2.61","0.15","0.06","29.5173","4.67061","21.27","0","SATNPRO1962","22.632","0.317","5"],
    [28273,"HCEP03730560","2024-07-18 19:30:00","9.9203","3.26198","27.289","2.005","7.48","1.118","2.673","0.3","0.11","29.5173","4.6706","21.42","0","SATNPRO1962","22.706","0.318","5"],
    [28274,"HCEP03730560","2024-07-18 19:45:00","9.9203","3.262","27.188","2.012","7.48","1.036","2.497","0.1","0.07","29.5175","4.67063","21.49","0","SATNPRO1962","22.722","0.31824","5"],
    [28275,"HCEP03730560","2024-07-18 20:00:00","9.922","3.26239","27.166","2.033","7.49","1.269","2.934","0.23","0.12","29.5201","4.67097","21.71","0","SATNPRO1962","22.784","0.31914","5"],
    [28276,"HCEP03730560","2024-07-18 20:15:00","9.9242","3.2629","27.079","2.087","7.49","1.914","3.876","0.25","0.21","29.5234","4.6714","22.29","0","SATNPRO1962","22.9","0.32076","5"],
    [28277,"HCEP03730560","2024-07-18 20:30:00","9.9258","3.26321","27.066","2.18","7.5","1.665","3.584","0.25","0.18","29.5252","4.67162","23.28","0","SATNPRO1962","23.328","0.32676","5"],
    [28278,"HCEP03730560","2024-07-18 20:45:00","9.9268","3.26333","27.025","2.278","7.5","1.568","3.458","0.2","0.18","29.5256","4.67167","24.33","0","SATNPRO1962","23.572","0.33016","5"],
    [28279,"HCEP03730560","2024-07-18 21:00:00","9.9289","3.26369","27.016","2.337","7.51","1.755","3.753","0.19","0.16","29.5276","4.67191","24.97","0","SATNPRO1962","23.604","0.33064","5"],
    [28280,"HCEP03730560","2024-07-18 21:15:00","9.931","3.26406","27.001","2.371","7.51","1.855","3.851","0.28","0.16","29.5296","4.67216","25.33","0","SATNPRO1962","23.742","0.33254","5"],
    [28281,"HCEP03730560","2024-07-18 21:30:00","9.9337","3.26447","27.019","2.437","7.52","1.632","3.644","0.26","0.15","29.5314","4.67237","26.04","0","SATNPRO1962","23.784","0.33314","5"],
    [28282,"HCEP03730560","2024-07-18 21:45:00","9.935","3.26468","27.04","2.489","7.52","1.699","3.864","0.19","0.12","29.5325","4.67251","26.59","0","SATNPRO1962","23.906","0.33482","5"],
    [28283,"HCEP03730560","2024-07-18 22:00:00","9.9373","3.26498","27.05","2.544","7.53","1.647","3.721","0.24","0.19","29.5336","4.67263","27.18","0","SATNPRO1962","24.042","0.33674","5"],
    [28284,"HCEP03730560","2024-07-18 22:15:00","9.9393","3.26522","27.041","2.569","7.53","1.699","3.661","0.23","0.16","29.5344","4.67271","27.46","0","SATNPRO1962","24.06","0.33702","5"],
    [28285,"HCEP03730560","2024-07-18 22:30:00","9.9416","3.26553","27.079","2.574","7.53","1.63","3.522","0.18","0.15","29.5355","4.67283","27.51","0","SATNPRO1962","23.984","0.33592","5"],
    [28286,"HCEP03730560","2024-07-18 22:45:00","9.9427","3.26557","27.113","2.563","7.53","1.626","3.564","0.15","0.19","29.5351","4.67276","27.39","0","SATNPRO1962","23.908","0.33486","5"],
    [28287,"HCEP03730560","2024-07-18 23:00:00","9.943","3.26559","27.15","2.538","7.53","1.72","3.723","0.21","0.15","29.535","4.67274","27.12","0","SATNPRO1962","23.892","0.3346","5"],
    [28288,"HCEP03730560","2024-07-18 23:15:00","9.9432","3.26552","27.206","2.514","7.53","1.66","3.361","0.15","0.15","29.5341","4.67261","26.87","0","SATNPRO1962","23.73","0.33242","5"],
    [28289,"HCEP03730560","2024-07-18 23:30:00","9.9431","3.2654","27.27","2.457","7.52","1.688","3.571","0.13","0.09","29.5329","4.67245","26.26","0","SATNPRO1962","23.612","0.3307","5"],
    [28290,"HCEP03730560","2024-07-18 23:45:00","9.9428","3.26524","27.264","2.382","7.52","1.798","3.432","0.23","0.09","29.5316","4.67226","25.45","0","SATNPRO1962","23.416","0.32798","5"],
    [28291,"HCEP03730560","2024-07-19 00:00:00","9.9442","3.26501","27.349","2.322","7.51","1.765","3.337","0.26","0.1","29.528","4.67174","24.81","0","SATNPRO1962","23.419999999999998","0.32804","5"],
    [28292,"HCEP03730560","2024-07-19 00:15:00","9.9442","3.26488","27.391","2.279","7.51","1.719","3.343","0.19","0.14","29.5268","4.67157","24.35","0","SATNPRO1962","23.304","0.3264","5"],
    [28293,"HCEP03730560","2024-07-19 00:30:00","9.9452","3.26485","27.394","2.241","7.5","1.74","3.625","0.19","0.18","29.5257","4.67138","23.95","0","SATNPRO1962","23.29","0.32624","5"],
    [28294,"HCEP03730560","2024-07-19 00:45:00","9.9457","3.26485","27.435","2.222","7.5","2.023","3.786","0.35","0.17","29.5252","4.67131","23.74","0","SATNPRO1962","23.082","0.32332","5"],
    [28295,"HCEP03730560","2024-07-19 01:00:00","9.9465","3.26487","27.467","2.213","7.5","1.908","3.79","0.26","0.13","29.5248","4.67124","23.65","0","SATNPRO1962","23.178","0.32466","5"],
    [28296,"HCEP03730560","2024-07-19 01:15:00","9.9474","3.26489","27.472","2.215","7.5","1.985","3.602","0.31","0.17","29.5243","4.67115","23.68","0","SATNPRO1962","23.174","0.32456","5"],
    [28297,"090HCEP03730560","2024-07-19 01:30:00","9.9489","3.26498","27.49","2.245","7.5","1.921","3.513","0.34","0.11","29.5239","4.67108","23.99","0","SATNPRO1962","23.262","0.32582","5"],
    [28298,"HCEP03730560","2024-07-19 01:45:00","9.9497","3.26515","27.517","2.283","7.51","2.049","3.673","0.33","0.22","29.5249","4.67121","24.4","0","SATNPRO1962","23.541999999999998","0.32972","5"],
    [28299,"HCEP03730560","2024-07-19 02:00:00","9.9515","3.26547","27.502","2.335","7.51","1.872","3.355","0.35","0.17","29.5267","4.67144","24.96","0","SATNPRO1962","23.662","0.33144","5"],
    [28300,"HCEP03730560","2024-07-19 02:15:00","9.9526","3.26553","27.498","2.38","7.51","1.842","3.406","0.15","0.13","29.5264","4.67138","25.43","0","SATNPRO1962","23.514","0.3293","5"],
    [28301,"HCEP03730560","2024-07-19 02:30:00","9.954","3.26568","27.439","2.41","7.52","1.869","3.146","0.46","0.2","29.5268","4.6714","25.76","0","SATNPRO1962","23.716","0.3322","5"],
    [28302,"HCEP03730560","2024-07-19 02:45:00","9.9549","3.26568","27.383","2.438","7.52","1.636","2.859","0.25","0.26","29.5261","4.67128","26.06","0","SATNPRO1962","23.886","0.33456","5"],
    [28303,"HCEP03730560","2024-07-19 03:00:00","9.9561","3.26574","27.338","2.451","7.52","1.655","3.099","0.22","0.13","29.5257","4.67121","26.2","0","SATNPRO1962","23.71","0.33208","5"],
    [28304,"HCEP03730560","2024-07-19 03:15:00","9.957","3.26578","27.272","2.443","7.52","1.619","3.088","0.3","0.14","29.5253","4.67113","26.11","0","SATNPRO1962","23.8","0.3334","5"],
    [28305,"HCEP03730560","2024-07-19 03:30:00","9.9581","3.26587","27.154","2.464","7.52","1.496","2.882","0.21","0.09","29.5254","4.67112","26.33","0","SATNPRO1962","23.872","0.33434","5"],
    [28306,"HCEP03730560","2024-07-19 03:45:00","9.959","3.26587","27.043","2.496","7.52","1.418","2.668","0.22","0.1","29.5247","4.67099","26.68","0","SATNPRO1962","23.896","0.3347","5"],
    [28307,"HCEP03730560","2024-07-19 04:00:00","9.9604","3.2659","26.917","2.505","7.52","1.61","2.92","0.35","0.14","29.524","4.67087","26.77","0","SATNPRO1962","23.916","0.33498","5"],
    [28308,"HCEP03730560","2024-07-19 04:15:00","9.9601","3.26586","26.787","2.504","7.52","1.72","3.005","0.44","0.13","29.5238","4.67084","26.77","0","SATNPRO1962","23.748","0.3326","5"],
    [28309,"HCEP03730560","2024-07-19 04:30:00","9.9602","3.26583","26.616","2.501","7.52","1.397","3.176","0.27","0.16","29.5236","4.67079","26.74","0","SATNPRO1962","24.052","0.33696","5"],
    [28310,"HCEP03730560","2024-07-19 04:45:00","9.9602","3.26581","26.436","2.503","7.52","1.537","2.695","0.52","0.14","29.5235","4.67076","26.76","0","SATNPRO1962","23.848","0.33402","5"],
    [28311,"HCEP03730560","2024-07-19 05:00:00","9.9621","3.26596","26.239","2.505","7.52","1.548","3.192","0.28","0.21","29.5235","4.67072","26.78","0","SATNPRO1962","23.922","0.33504","5"],
    [28312,"HCEP03730560","2024-07-19 05:15:00","9.9605","3.26581","26.044","2.497","7.52","1.825","3.141","0.63","0.33","29.5233","4.67071","26.69","0","SATNPRO1962","23.994","0.33608","5"],
    [28313,"HCEP03730560","2024-07-19 05:30:00","9.9593","3.26572","25.838","2.497","7.52","1.553","2.858","0.37","0.16","29.5234","4.67074","26.69","0","SATNPRO1962","24.024","0.3365","5"],
    [28314,"HCEP03730560","2024-07-19 05:45:00","9.9586","3.26582","25.629","2.464","7.52","1.865","3.553","0.59","0.6","29.5252","4.67099","26.34","0","SATNPRO1962","23.748","0.33262","5"],
    [28315,"HCEP03730560","2024-07-19 06:00:00","9.958","3.26581","25.428","2.452","7.52","1.452","2.882","0.29","0.21","29.5256","4.67105","26.21","0","SATNPRO1962","23.898","0.33474","5"],
    [28316,"HCEP03730560","2024-07-19 06:15:00","9.9568","3.26589","25.222","2.441","7.52","1.888","2.925","0.35","0.21","29.5275","4.67132","26.1","0","SATNPRO1962","23.794","0.33326","5"],
    [28317,"HCEP03730560","2024-07-19 06:30:00","9.9555","3.26602","24.979","2.429","7.52","1.787","2.916","0.32","0.15","29.5299","4.67169","25.97","0","SATNPRO1962","23.694","0.33188","5"],
    [28318,"HCEP03730560","2024-07-19 06:45:00","9.9558","3.26608","24.777","2.441","7.52","1.912","2.643","1.07","0.18","29.5304","4.67174","26.09","0","SATNPRO1962","23.76","0.33278","5"],
    [28319,"HCEP03730560","2024-07-19 07:00:00","9.9558","3.26617","24.587","2.466","7.52","2.16","3.158","0.48","0.33","29.5313","4.67185","26.36","0","SATNPRO1962","25.002","0.3502","5"],
    [28320,"HCEP03730560","2024-07-19 07:15:00","9.9548","3.26624","24.395","2.475","7.52","2.625","3.491","0.77","0.26","29.533","4.6721","26.45","0","SATNPRO1962","23.816","0.33358","5"],
    [28321,"HCEP03730560","2024-07-19 07:30:00","9.9546","3.26615","24.219","2.445","7.52","2.71","4.355","0.69","0.45","29.5323","4.67199","26.14","0","SATNPRO1962","23.788","0.3332","5"],
    [28322,"HCEP03730560","2024-07-19 07:45:00","9.9547","3.2663","24.045","2.435","7.52","2.867","3.698","0.99","0.28","29.5338","4.67219","26.03","0","SATNPRO1962","23.858","0.33416","5"],
    [28323,"HCEP03730560","2024-07-19 08:00:00","9.9542","3.26623","23.919","2.434","7.52","2.184","3.46","0.3","0.21","29.5335","4.67215","26.02","0","SATNPRO1962","23.762","0.33284","5"],
    [28324,"HCEP03730560","2024-07-19 08:15:00","9.9547","3.2663","23.829","2.417","7.52","2.838","3.725","0.97","0.28","29.5339","4.67219","25.83","0","SATNPRO1962","23.532","0.32958","5"],
    [28325,"HCEP03730560","2024-07-19 08:30:00","9.9551","3.26638","23.776","2.42","7.52","2.621","3.882","0.95","0.39","29.534300000000002","4.67225","25.87","0","SATNPRO1962","23.498","0.32918","5"],
    [28326,"HCEP03730560","2024-07-19 08:45:00","9.9556","3.26624","23.752","2.436","7.52","2.636","3.753","1.11","1.17","29.5325","4.67198","26.04","0","SATNPRO1962","23.772","0.33296","5"],
    [28327,"HCEP03730560","2024-07-19 09:00:00","9.9568","3.26666","23.758","2.466","7.52","2.223","3.465","0.72","0.33","29.5358","4.67242","26.36","0","SATNPRO1962","23.768","0.33288","5"],
    [28328,"HCEP03730560","2024-07-19 09:15:00","9.9569","3.26667","23.773","2.486","7.52","2.971","3.459","0.81","0.28","29.5358","4.67243","26.58","0","SATNPRO1962","23.804","0.33344","5"],
    [28329,"HCEP03730560","2024-07-19 09:30:00","9.9576","3.26669","23.78","2.478","7.52","2.154","3.265","0.94","0.36","29.5354","4.67237","26.5","0","SATNPRO1962","23.552","0.32988","5"],
    [28330,"HCEP03730560","2024-07-19 09:45:00","9.9576","3.2667","23.833","2.486","7.52","2.316","3.08","0.66","0.19","29.5354","4.67237","26.58","0","SATNPRO1962","23.754","0.33272","5"],
    [28331,"HCEP03730560","2024-07-19 10:00:00","9.9591","3.26678","23.938","2.504","7.53","2.074","3.268","0.52","0.37","29.535","4.67228","26.76","0","SATNPRO1962","23.8","0.33338","5"],
    [28332,"HCEP03730560","2024-07-19 10:15:00","9.9592","3.26659","24.069","2.502","7.52","2.007","3.205","0.52","0.36","29.533","4.672","26.74","0","SATNPRO1962","23.768","0.33292","5"],
    [28333,"HCEP03730560","2024-07-19 10:30:00","9.9597","3.26655","24.211","2.487","7.52","1.834","3.009","0.37","0.16","29.5321","4.67188","26.59","0","SATNPRO1962","23.748","0.33264","5"],
    [28334,"HCEP03730560","2024-07-19 10:45:00","9.9591","3.26644","24.423","2.456","7.52","2.225","3.541","0.4","0.15","29.5314","4.6718","26.26","0","SATNPRO1962","23.6","0.33054","5"],
    [28335,"HCEP03730560","2024-07-19 11:00:00","9.9591","3.26652","24.575","2.446","7.52","1.631","3.056","0.29","0.22","29.5321","4.67191","26.15","0","SATNPRO1962","23.774","0.333","5"],
    [28336,"HCEP03730560","2024-07-19 11:15:00","9.9569","3.26605","24.723","2.459","7.52","1.726","2.7","0.37","0.23","29.5292","4.67154","26.29","0","SATNPRO1962","23.846","0.33396","5"],
    [28337,"HCEP03730560","2024-07-19 11:30:00","9.9568","3.26623","24.892","2.472","7.52","1.713","2.816","0.45","0.19","29.531","4.6718","26.42","0","SATNPRO1962","24.024","0.3365","5"],
    [28338,"HCEP03730560","2024-07-19 11:45:00","9.9573","3.26678","25.082","2.478","7.52","2.458","3.854","0.3","0.45","29.536","4.67252","26.49","0","SATNPRO1962","23.814","0.33358","5"],
    [28339,"HCEP03730560","2024-07-19 12:00:00","9.9557","3.26657","25.248","2.427","7.52","2.635","4.099","0.5","0.45","29.5352","4.67245","25.95","0","SATNPRO1962","23.48","0.3289","5"],
    [28340,"HCEP03730560","2024-07-19 12:15:00","9.9549","3.26651","25.449","2.416","7.52","2.673","4.119","0.6","0.28","29.5352","4.67247","25.83","0","SATNPRO1962","23.752","0.3327","5"],
    [28341,"HCEP03730560","2024-07-19 12:30:00","9.9529","3.26635","25.649","2.397","7.52","2.985","4.89","0.43","0.35","29.5351","4.6725","25.63","0","SATNPRO1962","23.514","0.32934","5"],
    [28342,"HCEP03730560","2024-07-19 12:45:00","9.9512","3.26612","25.839","2.391","7.52","3.395","4.741","0.78","0.4","29.5341","4.6724","25.56","0","SATNPRO1962","23.494","0.32906","5"],
    [28343,"HCEP03730560","2024-07-19 13:00:00","9.9501","3.26592","26.064","2.389","7.52","3.029","5.128","0.42","0.25","29.5329","4.67226","25.53","0","SATNPRO1962","23.744","0.33254","5"],
    [28344,"HCEP03730560","2024-07-19 13:15:00","9.9494","3.2657","26.268","2.427","7.52","2.679","4.246","0.42","0.42","29.5312","4.67204","25.94","0","SATNPRO1962","23.986","0.33598","5"],
    [28345,"HCEP03730560","2024-07-19 13:30:00","9.9483","3.26561","26.46","2.46","7.52","2.681","4.433","0.43","0.36","29.5311","4.67206","26.29","0","SATNPRO1962","23.912","0.33494","5"],
    [28346,"HCEP03730560","2024-07-19 13:45:00","9.9463","3.26507","26.656","2.42","7.52","2.522","3.965","0.34","0.14","29.5272","4.67154","25.86","0","SATNPRO1962","23.902","0.33478","5"],
    [28347,"HCEP03730560","2024-07-19 14:00:00","9.9457","3.26489","26.801","2.388","7.51","2.448","4.016","0.36","0.23","29.5259","4.67137","25.52","0","SATNPRO1962","23.862000000000002","0.33426","5"],
    [28348,"HCEP03730560","2024-07-19 14:15:00","9.9445","3.2647","26.949","2.38","7.51","2.447","3.772","0.34","0.18","29.5248","4.67125","25.43","0","SATNPRO1962","23.836","0.33386","5"],
    [28349,"HCEP03730560","2024-07-19 14:30:00","9.9447","3.26484","27.098","2.4","7.52","2.381","3.609","0.36","0.25","29.5261","4.67144","25.65","0","SATNPRO1962","23.884","0.33452","5"],
    [28350,"HCEP03730560","2024-07-19 14:45:00","9.9454","3.26505","27.209","2.453","7.52","2.182","3.156","0.3","0.13","29.5276","4.67165","26.21","0","SATNPRO1962","24.168","0.33852","5"],
    [28351,"HCEP03730560","2024-07-19 15:00:00","9.945","3.26536","27.305","2.511","7.52","2.667","3.939","0.42","0.2","29.5309","4.67213","26.84","0","SATNPRO1962","24.19","0.3388","5"],
    [28352,"HCEP03730560","2024-07-19 15:15:00","9.9445","3.26534","27.412","2.566","7.53","2.631","3.59","0.56","0.21","29.5311","4.67218","27.42","0","SATNPRO1962","24.416","0.342","5"],
    [28353,"HCEP03730560","2024-07-19 15:30:00","9.9438","3.26528","27.518","2.6","7.53","2.56","3.44","0.39","0.2","29.5311","4.67219","27.78","0","SATNPRO1962","24.456","0.34254","5"],
    [28354,"HCEP03730560","2024-07-19 15:45:00","9.9424","3.26515","27.621","2.596","7.53","2.815","3.724","0.57","0.22","29.5308","4.67218","27.74","0","SATNPRO1962","24.419999999999998","0.34208","5"],
    [28355,"HCEP03730560","2024-07-19 16:00:00","9.9402","3.26481","27.631","2.578","7.53","2.381","2.99","0.43","0.19","29.5292","4.67199","27.55","0","SATNPRO1962","24.394","0.34168","5"],
    [28356,"HCEP03730560","2024-07-19 16:15:00","9.9393","3.26469","27.673","2.545","7.53","2.781","3.476","0.55","0.24","29.5288","4.67195","27.2","0","SATNPRO1962","24.5","0.34312","5"],
    [28357,"HCEP03730560","2024-07-19 16:30:00","9.9381","3.26455","27.705","2.499","7.52","2.642","3.329","0.58","0.15","29.5284","4.67191","26.71","0","SATNPRO1962","24.162","0.33844","5"],
    [28358,"HCEP03730560","2024-07-19 16:45:00","9.9341","3.26397","27.716","2.449","7.52","2.545","3.094","0.54","0.18","29.5257","4.6716","26.16","0","SATNPRO1962","23.945999999999998","0.33542","5"],
    [28359,"HCEP03730560","2024-07-19 17:00:00","9.9329","3.2637","27.688","2.389","7.51","2.537","3.032","0.71","0.25","29.5241","4.67138","25.53","0","SATNPRO1962","23.974","0.33584","5"],
    [28360,"HCEP03730560","2024-07-19 17:15:00","9.9289","3.26299","27.717","2.29","7.5","2.764","2.745","2.73","0.33","29.5202","4.6709","24.46","0","SATNPRO1962","23.534","0.32968","5"],
    [28361,"HCEP03730560","2024-07-19 17:30:00","9.9292","3.26293","27.701","2.172","7.5","2.541","3.043","0.97","0.35","29.5194","4.67077","23.21","0","SATNPRO1962","23.25","0.32568","5"],
    [28362,"HCEP03730560","2024-07-19 17:45:00","9.9259","3.26243","27.68","2.06","7.49","2.596","2.919","1.01","0.29","29.517","4.6705","22","0","SATNPRO1962","22.894","0.32068","5"],
    [28363,"HCEP03730560","2024-07-19 18:00:00","9.925","3.26233","27.648","1.966","7.48","2.483","3.164","0.64","0.32","29.5168","4.67047","21","0","SATNPRO1962","22.728","0.31834","5"],
    [28364,"HCEP03730560","2024-07-19 18:15:00","9.9266","3.26254","27.633","1.957","7.48","2.529","3.059","0.67","0.21","29.5177","4.67057","20.91","0","SATNPRO1962","22.71","0.31812","5"],
    [28365,"HCEP03730560","2024-07-19 18:30:00","9.9267","3.26254","27.604","1.965","7.48","2.414","3.152","0.75","0.46","29.5175","4.67055","20.99","0","SATNPRO1962","22.738","0.31844","5"],
    [28366,"HCEP03730560","2024-07-19 18:45:00","9.925","3.26224","27.57","1.93","7.48","2.074","2.824","0.53","0.24","29.516","4.67035","20.62","0","SATNPRO1962","22.634","0.31702","5"],
    [28367,"HCEP03730560","2024-07-19 19:00:00","9.925","3.26231","27.533","1.906","7.47","1.952","2.82","0.44","0.17","29.5166","4.67044","20.35","0","SATNPRO1962","22.65","0.31724","5"],
    [28368,"HCEP03730560","2024-07-19 19:15:00","9.9278","3.26281","27.461","1.949","7.48","2.272","3.033","0.37","0.19","29.5194","4.67079","20.82","0","SATNPRO1962","22.812","0.31948","5"],
    [28369,"HCEP03730560","2024-07-19 19:30:00","9.9276","3.26282","27.437","1.985","7.48","2.16","3.051","0.4","0.21","29.5197","4.67084","21.2","0","SATNPRO1962","22.934","0.32124","5"],
    [28370,"HCEP03730560","2024-07-19 19:45:00","9.929","3.26294","27.369","1.99","7.48","2.567","3.575","0.25","0.14","29.5198","4.67082","21.25","0","SATNPRO1962","22.886","0.32054","5"],
    [28371,"HCEP03730560","2024-07-19 20:00:00","9.9289","3.263","27.246","2.006","7.48","2.566","3.779","0.29","0.31","29.5205","4.67092","21.43","0","SATNPRO1962","23.044","0.3228","5"],
    [28372,"HCEP03730560","2024-07-19 20:15:00","9.9324","3.2636","27.229","2.058","7.49","2.919","4.117","0.43","0.15","29.5237","4.67131","21.99","0","SATNPRO1962","23.16","0.3244","5"],
    [28373,"HCEP03730560","2024-07-19 20:30:00","9.9354","3.264","27.11","2.14","7.49","3.172","4.528","0.51","0.22","29.5253","4.67148","22.87","0","SATNPRO1962","23.432","0.32824","5"],
    [28374,"HCEP03730560","2024-07-19 20:45:00","9.9367","3.26422","27.062","2.215","7.5","3.125","4.286","0.48","0.32","29.5265","4.67163","23.67","0","SATNPRO1962","23.606","0.3306","5"],
    [28375,"HCEP03730560","2024-07-19 21:00:00","9.9411","3.26483","27.004","2.291","7.51","3.212","4.511","0.55","0.31","29.529","4.67191","24.48","0","SATNPRO1962","23.828","0.33376","5"],
    [28376,"HCEP03730560","2024-07-19 21:15:00","9.944","3.26522","26.975","2.357","7.51","3.546","4.691","0.53","0.48","29.5305","4.67208","25.19","0","SATNPRO1962","23.934","0.33526","5"],
    [28377,"HCEP03730560","2024-07-19 21:30:00","9.9476","3.26581","26.907","2.402","7.51","3.642","4.938","0.4","0.37","29.5336","4.67245","25.67","0","SATNPRO1962","23.886","0.33456","5"],
    [28378,"HCEP03730560","2024-07-19 21:45:00","9.9481","3.26588","26.899","2.434","7.52","3.318","3.959","0.77","0.35","29.5338","4.67247","26.02","0","SATNPRO1962","24.058","0.33698","5"],
    [28379,"HCEP03730560","2024-07-19 22:00:00","9.9444","3.26534","26.908","2.448","7.52","2.303","3.38","0.44","0.46","29.5314","4.67219","26.16","0","SATNPRO1962","24.022","0.33646","5"],
    [28380,"HCEP03730560","2024-07-19 22:15:00","9.9444","3.26533","26.904","2.452","7.52","2.459","3.342","0.32","0.15","29.5313","4.67218","26.2","0","SATNPRO1962","24.074","0.3372","5"],
    [28381,"HCEP03730560","2024-07-19 22:30:00","9.9427","3.2651","26.927","2.434","7.52","2.186","3.267","0.37","0.13","29.5304","4.67207","26.01","0","SATNPRO1962","24.122","0.3379","5"],
    [28382,"HCEP03730560","2024-07-19 22:45:00","9.9417","3.2649","26.943","2.465","7.52","1.883","2.492","0.44","0.23","29.5292","4.67192","26.35","0","SATNPRO1962","24.154","0.33832","5"],
    [28383,"HCEP03730560","2024-07-19 23:00:00","9.9447","3.26533","26.984","2.497","7.52","2.284","3.212","0.67","0.3","29.531","4.67213","26.68","0","SATNPRO1962","24.146","0.33822","5"],
    [28384,"HCEP03730560","2024-07-19 23:15:00","9.9459","3.2655","27.023","2.515","7.52","2.136","3.008","0.4","0.16","29.5317","4.67222","26.87","0","SATNPRO1962","24.39","0.34162","5"],
    [28385,"HCEP03730560","2024-07-19 23:30:00","9.9471","3.26566","27.106","2.549","7.53","1.988","3.145","0.34","0.18","29.5324","4.6723","27.24","0","SATNPRO1962","24.27","0.33994","5"],
    [28386,"HCEP03730560","2024-07-19 23:45:00","9.9491","3.26599","27.138","2.596","7.53","1.994","2.91","0.33","0.23","29.534","4.67249","27.74","0","SATNPRO1962","24.686","0.3458","5"],
    [28387,"HCEP03730560","2024-07-20 00:00:00","9.9519","3.26647","27.203","2.64","7.53","2.051","2.963","0.35","0.14","29.5365","4.67281","28.22","0","SATNPRO1962","24.458000000000002","0.34262","5"],
    [28388,"HCEP03730560","2024-07-20 00:15:00","9.9551","3.26685","27.256","2.653","7.54","2.017","2.95","0.37","0.15","29.5377","4.67292","28.36","0","SATNPRO1962","24.368","0.34126","5"],
    [28389,"HCEP03730560","2024-07-20 00:30:00","9.9568","3.26717","27.299","2.631","7.53","2.11","3.068","0.52","0.13","29.5394","4.67315","28.13","0","SATNPRO1962","24.2","0.33896","5"],
    [28390,"HCEP03730560","2024-07-20 00:45:00","9.9567","3.26711","27.362","2.59","7.53","2.277","2.903","0.53","0.22","29.5389","4.67308","27.69","0","SATNPRO1962","24.162","0.3384","5"],
    [28391,"HCEP03730560","2024-07-20 01:00:00","9.9566","3.26705","27.432","2.536","7.53","2.071","3.219","0.38","0.17","29.5383","4.673","27.11","0","SATNPRO1962","23.962","0.33566","5"],
    [28392,"HCEP03730560","2024-07-20 01:15:00","9.9575","3.26715","27.469","2.476","7.52","2.208","3.039","0.33","0.13","29.5386","4.67303","26.47","0","SATNPRO1962","23.744","0.33256","5"],
    [28393,"HCEP03730560","2024-07-20 01:30:00","9.9579","3.26706","27.499","2.44","7.52","2.37","3.236","0.45","0.19","29.5374","4.67286","26.09","0","SATNPRO1962","23.752","0.3327","5"],
    [28394,"HCEP03730560","2024-07-20 01:45:00","9.9583","3.26696","27.547","2.403","7.52","2.462","3.532","0.46","1.01","29.536","4.67265","25.69","0","SATNPRO1962","23.578","0.33028","5"],
    [28395,"HCEP03730560","2024-07-20 02:00:00","9.9593","3.26694","27.569","2.378","7.51","2.278","3.181","0.33","0.18","29.535","4.67248","25.42","0","SATNPRO1962","23.66","0.33138","5"],
    [28396,"HCEP03730560","2024-07-20 02:15:00","9.9583","3.2665","27.587","2.379","7.51","2.512","3.095","0.49","0.16","29.5314","4.672","25.43","0","SATNPRO1962","23.632","0.33102","5"],
    [28397,"HCEP03730560","2024-07-20 02:30:00","9.9589","3.26647","27.6","2.367","7.51","2.4","3.059","0.42","0.14","29.5306","4.67187","25.3","0","SATNPRO1962","23.684","0.33176","5"],
    [28398,"HCEP03730560","2024-07-20 02:45:00","9.96","3.26665","27.583","2.336","7.51","2.822","3.494","0.44","0.22","29.5315","4.67197","24.97","0","SATNPRO1962","23.592","0.33046","5"],
    [28399,"HCEP03730560","2024-07-20 03:00:00","9.9591","3.26617","27.565","2.361","7.52","2.79","3.375","0.62","0.24","29.5275","4.67142","25.24","0","SATNPRO1962","23.614","0.33072","5"],
    [28400,"HCEP03730560","2024-07-20 03:15:00","9.9605","3.26639","27.531","2.406","7.51","2.825","3.377","0.46","0.18","29.5286","4.67155","25.72","0","SATNPRO1962","23.634","0.33104","5"],
    [28401,"HCEP03730560","2024-07-20 03:30:00","9.9582","3.26565","27.492","2.544","7.53","2.621","2.953","0.43","0.18","29.523","4.67079","27.19","0","SATNPRO1962","24.092","0.33742","5"],
    [28402,"HCEP03730560","2024-07-20 03:45:00","9.962","3.26617","27.435","2.532","7.52","2.679","3.369","0.36","0.18","29.5251","4.67103","27.07","0","SATNPRO1962","23.736","0.3324","5"],
    [28403,"HCEP03730560","2024-07-20 04:00:00","9.9624","3.26595","27.347","2.427","7.52","2.559","3.219","0.56","0.17","29.5226","4.67066","25.95","0","SATNPRO1962","24.016000000000002","0.33638","5"],
    [28404,"HCEP03730560","2024-07-20 04:15:00","9.9649","3.26609","27.262","2.412","7.51","2.768","3.695","0.48","0.25","29.5221","4.67053","25.79","0","SATNPRO1962","23.828","0.33374","5"],
    [28405,"HCEP03730560","2024-07-20 04:30:00","9.9677","3.26626","27.156","2.377","7.51","2.872","4.012","0.35","0.19","29.5216","4.67041","25.41","0","SATNPRO1962","23.683999999999997","0.33176","5"],
    [28406,"HCEP03730560","2024-07-20 04:45:00","9.969","3.26624","27.007","2.401","7.52","2.797","3.722","0.47","0.17","29.5203","4.67019","25.67","0","SATNPRO1962","23.878","0.33446","5"],
    [28407,"HCEP03730560","2024-07-20 05:00:00","9.9707","3.26616","26.889","2.439","7.52","2.654","3.505","0.42","0.12","29.5182","4.66986","26.08","0","SATNPRO1962","23.972","0.33578","5"],
    [28408,"HCEP03730560","2024-07-20 05:15:00","9.9716","3.26616","26.682","2.464","7.52","2.566","3.42","0.3","0.09","29.5175","4.66973","26.35","0","SATNPRO1962","23.98","0.33586","5"],
    [28409,"HCEP03730560","2024-07-20 05:30:00","9.9723","3.26615","26.481","2.492","7.52","2.46","3.152","0.38","0.1","29.5169","4.66963","26.64","0","SATNPRO1962","24.07","0.33714","5"],
    [28410,"HCEP03730560","2024-07-20 05:45:00","9.9718","3.26612","26.322","2.506","7.52","2.664","2.98","0.5","0.15","29.5171","4.66965","26.8","0","SATNPRO1962","24.114","0.33774","5"],
    [28411,"HCEP03730560","2024-07-20 06:00:00","9.9715","3.26613","26.085","2.501","7.52","2.679","3.308","0.5","0.23","29.5175","4.6697","26.75","0","SATNPRO1962","24.13","0.33802","5"],
    [28412,"HCEP03730560","2024-07-20 06:15:00","9.9709","3.26614","25.838","2.478","7.52","2.637","2.918","0.55","0.14","29.5182","4.66979","26.49","0","SATNPRO1962","23.976","0.3358","5"],
    [28413,"HCEP03730560","2024-07-20 06:30:00","9.9698","3.26613","25.61","2.452","7.52","2.545","2.909","0.55","0.23","29.5191","4.66992","26.22","0","SATNPRO1962","24","0.33618","5"],
    [28414,"HCEP03730560","2024-07-20 06:45:00","9.9684","3.26617","25.384","2.421","7.52","2.336","2.652","0.46","0.12","29.5208","4.67018","25.89","0","SATNPRO1962","23.748","0.33262","5"],
    [28415,"HCEP03730560","2024-07-20 07:00:00","9.9667","3.26556","25.141","2.392","7.51","2.669","2.711","0.81","0.2","29.5161","4.66952","25.58","0","SATNPRO1962","23.802","0.33336","5"],
    [28416,"HCEP03730560","2024-07-20 07:15:00","9.9654","3.26605","24.891","2.362","7.51","3.985","3.825","0.75","0.24","29.5222","4.6704","25.26","0","SATNPRO1962","23.788","0.33318","5"],
    [28417,"HCEP03730560","2024-07-20 07:30:00","9.9632","3.26583","24.648","2.376","7.52","3.449","3.001","1.7","0.19","29.5219","4.67038","25.41","0","SATNPRO1962","24.176","0.33864","5"],
    [28418,"HCEP03730560","2024-07-20 07:45:00","9.9623","3.2657","24.439","2.478","7.52","2.248","2.113","0.38","0.08","29.5214","4.67032","26.49","0","SATNPRO1962","24.49","0.34304","5"],
    [28419,"HCEP03730560","2024-07-20 08:00:00","9.9649","3.26602","24.232","2.647","7.54","2.082","2.045","0.67","0.1","29.5226","4.67043","28.3","0","SATNPRO1962","25.308","0.35448","5"],
    [28420,"HCEP03730560","2024-07-20 08:15:00","9.9678","3.26651","24.045","2.805","7.55","1.928","1.85","0.39","0.11","29.5252","4.67074","30","0","SATNPRO1962","25.024","0.35054","5"],
    [28421,"HCEP03730560","2024-07-20 08:30:00","9.9681","3.26666","23.909","2.741","7.54","2.634","2.7","0.64","0.2","29.5264","4.6709","29.31","0","SATNPRO1962","24.364","0.34126","5"],
    [28422,"HCEP03730560","2024-07-20 08:45:00","9.9662","3.26662","23.783","2.629","7.53","2.546","2.597","0.52","0.16","29.5276","4.6711","28.11","0","SATNPRO1962","24.334","0.34088","5"],
    [28423,"HCEP03730560","2024-07-20 09:00:00","9.9626","3.26636","23.711","2.534","7.52","2.614","2.951","0.43","0.17","29.5281","4.67122","27.09","0","SATNPRO1962","24.12","0.33782","5"],
    [28424,"HCEP03730560","2024-07-20 09:15:00","9.9664","3.26699","23.663","2.495","7.53","2.132","2.605","0.35","0.14","29.5312","4.6716","26.68","0","SATNPRO1962","24.276","0.34002","5"],
    [28425,"HCEP03730560","2024-07-20 09:30:00","9.974","3.26772","23.625","2.639","7.53","2.444","2.787","0.57","0.19","29.5323","4.67164","28.22","0","SATNPRO1962","24.612000000000002","0.34476","5"],
    [28426,"HCEP03730560","2024-07-20 09:45:00","9.9738","3.2679","23.605","2.611","7.53","2.397","2.774","0.38","0.25","29.5344","4.67193","27.93","0","SATNPRO1962","24.326","0.34074","5"],
    [28427,"HCEP03730560","2024-07-20 10:00:00","10.0032","3.27093","23.63","2.909","7.56","2.083","2.623","0.39","0.13","29.5406","4.67233","31.13","0","SATNPRO1962","25.477999999999998","0.35682","5"],
    [28428,"HCEP03730560","2024-07-20 10:15:00","10.0145","3.27005","23.629","3.229","7.59","1.463","1.611","0.3","0.08","29.5226","4.66956","34.56","0","SATNPRO1962","25.764","0.36086","5"],
    [28429,"HCEP03730560","2024-07-20 10:30:00","10.0142","3.27144","23.661","3.364","7.59","1.642","2.058","0.37","0.17","29.5367","4.67158","36.01","0","SATNPRO1962","25.802","0.3614","5"],
    [28430,"HCEP03730560","2024-07-20 10:45:00","10.0075","3.27069","23.764","3.331","7.59","1.434","1.657","0.48","0.21","29.5347","4.67141","35.65","0","SATNPRO1962","25.758","0.3608","5"],
    [28431,"HCEP03730560","2024-07-20 11:00:00","10.039","3.27314","23.889","3.461","7.61","1.489","1.467","0.38","0.09","29.5334","4.6707","37.07","0","SATNPRO1962","26.258","0.3678","5"],
    [28432,"HCEP03730560","2024-07-20 11:15:00","10.0098","3.27034","24.031","3.498","7.6","1.686","4.27","0.42","0.13","29.5292","4.67061","37.44","0","SATNPRO1962","25.782","0.36112","5"],
    [28433,"HCEP03730560","2024-07-20 11:30:00","9.9925","3.26853","24.183","3.275","7.58","1.594","3.684","0.51","0.37","29.5251","4.67032","35.04","0","SATNPRO1962","25.87","0.36234","5"],
    [28434,"HCEP03730560","2024-07-20 11:45:00","9.97","3.26674","24.367","2.84","7.54","3.112","5.381","0.62","0.18","29.5255","4.67077","30.36","0","SATNPRO1962","24.02","0.33646","5"],
    [28435,"HCEP03730560","2024-07-20 12:00:00","9.9672","3.26627","24.642","2.414","7.52","3.393","10.811","0.86","4.74","29.523","4.67048","25.81","0","SATNPRO1962","23.594","0.33048","5"],
    [28436,"HCEP03730560","2024-07-20 12:15:00","9.9695","3.26641","24.836","2.393","7.52","2.346","2.613","0.39","0.29","29.5224","4.67036","25.59","0","SATNPRO1962","23.992","0.33604","5"],
    [28437,"HCEP03730560","2024-07-20 12:30:00","9.9707","3.26656","25.017","2.526","7.53","2.563","3.063","0.51","0.26","29.5229","4.67042","27.01","0","SATNPRO1962","24.492","0.34308","5"],
    [28438,"HCEP03730560","2024-07-20 12:45:00","9.9897","3.26852","25.217","2.909","7.56","2.296","2.929","0.4","0.37","29.5269","4.67069","31.12","0","SATNPRO1962","25.362000000000002","0.35524","5"],
    [28439,"HCEP03730560","2024-07-20 13:00:00","9.9782","3.26788","25.422","2.766","7.54","3.093","4.615","0.33","0.17","29.5299","4.67132","29.58","0","SATNPRO1962","24.08","0.33726","5"],
    [28440,"HCEP03730560","2024-07-20 13:15:00","9.9781","3.26819","25.617","2.556","7.53","2.951","4.286","0.26","0.26","29.533","4.67177","27.34","0","SATNPRO1962","24.18","0.33864","5"],
    [28441,"HCEP03730560","2024-07-20 13:30:00","9.9814","3.26875","25.844","2.628","7.54","2.893","4.735","0.33","0.49","29.5357","4.67212","28.11","0","SATNPRO1962","24.2","0.339","5"],
    [28442,"HCEP03730560","2024-07-20 13:45:00","9.9873","3.26934","26.068","2.803","7.55","2.475","3.62","0.28","0.24","29.5368","4.67218","29.98","0","SATNPRO1962","24.68","0.34572","5"],
    [28443,"HCEP03730560","2024-07-20 14:00:00","9.9855","3.269","26.289","2.804","7.55","2.442","3.792","0.41","0.34","29.5347","4.67193","30","0","SATNPRO1962","24.524","0.34352","5"],
    [28444,"HCEP03730560","2024-07-20 14:15:00","9.9754","3.26792","26.513","2.641","7.54","2.618","3.715","0.2","0.23","29.5321","4.67174","28.25","0","SATNPRO1962","24.206","0.33904","5"],
    [28445,"HCEP03730560","2024-07-20 14:30:00","9.9733","3.26767","26.74","2.57","7.53","2.893","3.993","0.42","0.22","29.5313","4.67167","27.49","0","SATNPRO1962","24.152","0.33826","5"],
    [28446,"HCEP03730560","2024-07-20 14:45:00","9.9727","3.26761","26.863","2.561","7.53","2.688","3.842","0.28","0.28","29.5311","4.67167","27.38","0","SATNPRO1962","24.166","0.33852","5"],
    [28447,"HCEP03730560","2024-07-20 15:00:00","9.9711","3.26729","27.042","2.534","7.53","2.977","3.979","0.38","0.17","29.5291","4.67142","27.1","0","SATNPRO1962","24.05","0.33684","5"],
    [28448,"HCEP03730560","2024-07-20 15:15:00","9.9721","3.26767","27.188","2.536","7.53","2.608","3.601","0.27","0.3","29.532","4.67182","27.11","0","SATNPRO1962","24.176000000000002","0.3386","5"],
    [28449,"HCEP03730560","2024-07-20 15:30:00","9.9756","3.26825","27.374","2.598","7.53","2.464","3.606","0.38","0.14","29.5349","4.67219","27.78","0","SATNPRO1962","24.2","0.33898","5"],
    [28450,"HCEP03730560","2024-07-20 15:45:00","9.978","3.26861","27.511","2.682","7.54","2.211","3.168","0.18","0.1","29.5364","4.67237","28.68","0","SATNPRO1962","24.378","0.34148","5"],
    [28451,"HCEP03730560","2024-07-20 16:00:00","9.9797","3.26898","27.589","2.746","7.54","2.198","3.11","0.22","0.13","29.5387","4.67268","29.38","0","SATNPRO1962","24.448","0.34244","5"],
    [28452,"HCEP03730560","2024-07-20 16:15:00","9.9814","3.26914","27.705","2.804","7.55","2.099","2.653","0.48","0.14","29.5389","4.67268","30","0","SATNPRO1962","24.648","0.34526","5"],
    [28453,"HCEP03730560","2024-07-20 16:30:00","9.9852","3.2695","27.771","2.863","7.55","2.093","3.077","0.28","0.12","29.5395","4.6727","30.62","0","SATNPRO1962","24.637999999999998","0.34512","5"],
    [28454,"HCEP03730560","2024-07-20 16:45:00","9.9869","3.26988","27.797","2.907","7.56","2.096","2.885","0.23","0.13","29.5418","4.67301","31.1","0","SATNPRO1962","24.736","0.34646","5"],
    [28455,"HCEP03730560","2024-07-20 17:00:00","9.9865","3.26983","27.819","2.922","7.56","2.163","3.23","0.4","0.38","29.5417","4.673","31.26","0","SATNPRO1962","24.786","0.34718","5"],
    [28456,"HCEP03730560","2024-07-20 17:15:00","9.9861","3.26989","27.851","2.908","7.56","2.274","2.928","0.53","0.31","29.5426","4.67314","31.11","0","SATNPRO1962","24.900000000000002","0.3488","5"],
    [28457,"HCEP03730560","2024-07-20 17:30:00","9.9808","3.26919","27.833","2.885","7.55","1.988","2.75","0.27","0.17","29.5399","4.67284","30.86","0","SATNPRO1962","24.791999999999998","0.34724","5"],
    [28458,"HCEP03730560","2024-07-20 17:45:00","9.9799","3.26916","27.878","2.869","7.55","1.862","2.382","0.37","0.1","29.5403","4.67291","30.69","0","SATNPRO1962","24.716","0.34618","5"],
    [28459,"HCEP03730560","2024-07-20 18:00:00","9.9788","3.26902","27.862","2.869","7.55","1.816","2.572","0.37","0.2","29.5398","4.67287","30.68","0","SATNPRO1962","24.82","0.34766","5"],
    [28460,"HCEP03730560","2024-07-20 18:15:00","9.9781","3.26898","27.857","2.856","7.55","1.882","2.383","0.3","0.14","29.5399","4.67289","30.55","0","SATNPRO1962","24.810000000000002","0.34752","5"],
    [28461,"HCEP03730560","2024-07-20 18:30:00","9.9781","3.26904","27.823","2.842","7.55","1.861","2.601","0.37","0.2","29.5406","4.67299","30.4","0","SATNPRO1962","24.588","0.34442","5"],
    [28462,"HCEP03730560","2024-07-20 18:45:00","9.978","3.26898","27.779","2.813","7.55","2.184","2.874","0.33","0.22","29.54","4.6729","30.08","0","SATNPRO1962","24.564","0.34408","5"],
    [28463,"HCEP03730560","2024-07-20 19:00:00","9.9709","3.26828","27.737","2.772","7.55","2.1","2.903","0.31","0.17","29.5389","4.67286","29.64","0","SATNPRO1962","24.42","0.34206","5"],
    [28464,"HCEP03730560","2024-07-20 19:15:00","9.9654","3.26757","27.681","2.724","7.54","1.967","2.784","0.32","0.2","29.5362","4.67257","29.13","0","SATNPRO1962","24.32","0.34064","5"],
    [28465,"HCEP03730560","2024-07-20 19:30:00","9.9668","3.26772","27.619","2.644","7.54","2.134","3.059","0.41","0.2","29.5367","4.67261","28.27","0","SATNPRO1962","24.278","0.34004","5"],
    [28466,"HCEP03730560","2024-07-20 19:45:00","9.9607","3.26724","27.547","2.597","7.53","2.418","3.223","0.48","0.37","29.5369","4.67274","27.77","0","SATNPRO1962","24.356","0.34112","5"],
    [28467,"HCEP03730560","2024-07-20 20:00:00","9.9513","3.266","27.487","2.513","7.52","2.401","3.664","0.38","0.63","29.5321","4.67221","26.86","0","SATNPRO1962","23.9","0.33478","5"],
    [28468,"HCEP03730560","2024-07-20 20:15:00","9.9483","3.26528","27.42","2.403","7.51","2.412","3.206","0.31","0.26","29.5274","4.67158","25.68","0","SATNPRO1962","23.796","0.33332","5"],
    [28469,"HCEP03730560","2024-07-20 20:30:00","9.942","3.26433","27.372","2.3","7.5","2.29","3.16","0.39","0.13","29.5231","4.67107","24.57","0","SATNPRO1962","23.676000000000002","0.33162","5"],
    [28470,"HCEP03730560","2024-07-20 20:45:00","9.9426","3.26435","27.288","2.222","7.5","1.905","2.601","0.2","0.1","29.5228","4.67101","23.75","0","SATNPRO1962","23.656","0.33134","5"],
    [28471,"HCEP03730560","2024-07-20 21:00:00","9.9444","3.26467","27.136","2.243","7.5","2.11","2.826","0.33","0.1","29.5246","4.67123","23.97","0","SATNPRO1962","23.832","0.33376","5"],
    [28472,"HCEP03730560","2024-07-20 21:15:00","9.9478","3.26515","27.125","2.287","7.5","2.03","2.859","0.26","0.12","29.5267","4.67147","24.45","0","SATNPRO1962","23.82","0.33362","5"],
    [28473,"HCEP03730560","2024-07-20 21:30:00","9.9556","3.26635","27.04","2.365","7.51","2.229","3.37","0.3","0.09","29.5323","4.67214","25.28","0","SATNPRO1962","23.826","0.33368","5"],
    [28474,"HCEP03730560","2024-07-20 21:45:00","9.9516","3.26563","26.996","2.367","7.51","1.936","2.754","0.21","0.11","29.5284","4.67164","25.3","0","SATNPRO1962","23.84","0.33392","5"],
    [28475,"HCEP03730560","2024-07-20 22:00:00","9.9519","3.26586","26.914","2.37","7.51","1.875","2.757","0.2","0.07","29.5305","4.67193","25.33","0","SATNPRO1962","23.854","0.33408","5"],
    [28476,"HCEP03730560","2024-07-20 22:15:00","9.9557","3.26632","26.896","2.408","7.51","1.935","2.714","0.19","0.07","29.532","4.67208","25.74","0","SATNPRO1962","23.986","0.33596","5"],
    [28477,"HCEP03730560","2024-07-20 22:30:00","9.9582","3.26674","26.878","2.451","7.52","1.844","2.866","0.17","0.12","29.5342","4.67235","26.21","0","SATNPRO1962","24.046","0.3368","5"],
    [28478,"HCEP03730560","2024-07-20 22:45:00","9.9587","3.26675","26.86","2.468","7.52","2.07","2.837","0.32","0.09","29.5339","4.6723","26.38","0","SATNPRO1962","24.138","0.33808","5"],
    [28479,"HCEP03730560","2024-07-20 23:00:00","9.9612","3.26705","26.835","2.501","7.52","2.104","3.229","0.18","0.08","29.5348","4.67239","26.73","0","SATNPRO1962","24.105999999999998","0.33762","5"],
    [28480,"HCEP03730560","2024-07-20 23:15:00","9.9679","3.26788","26.847","2.527","7.52","2.597","3.573","0.36","0.14","29.5377","4.67269","27.02","0","SATNPRO1962","24.076","0.3372","5"],
    [28481,"HCEP03730560","2024-07-20 23:30:00","9.9668","3.26764","26.882","2.534","7.52","2.297","3.549","0.31","0.11","29.5361","4.67249","27.09","0","SATNPRO1962","24.146","0.33822","5"],
    [28482,"HCEP03730560","2024-07-20 23:45:00","9.9668","3.26768","26.909","2.539","7.52","2.05","3.189","0.18","0.11","29.5365","4.67254","27.15","0","SATNPRO1962","24.131999999999998","0.33804","5"],
    [28483,"HCEP03730560","2024-07-21 00:00:00","9.9668","3.26718","26.959","2.519","7.52","2.181","3.329","0.38","0.15","29.5316","4.67184","26.93","0","SATNPRO1962","24","0.33612","5"],
    [28484,"HCEP03730560","2024-07-21 00:15:00","9.9679","3.26772","27.022","2.488","7.52","2.284","3.546","0.28","0.15","29.5359","4.67245","26.61","0","SATNPRO1962","23.844","0.334","5"],
    [28485,"HCEP03730560","2024-07-21 00:30:00","9.9693","3.26784","27.046","2.476","7.52","2.275","3.719","0.26","0.18","29.536","4.67244","26.48","0","SATNPRO1962","23.996","0.33612","5"],
    [28486,"HCEP03730560","2024-07-21 00:45:00","9.9709","3.26803","27.145","2.483","7.52","2.487","3.444","0.35","0.1","29.5366","4.6725","26.55","0","SATNPRO1962","23.966","0.33568","5"],
    [28487,"HCEP03730560","2024-07-21 01:00:00","9.9717","3.26806","27.198","2.475","7.52","2.479","3.954","0.32","0.17","29.5362","4.67243","26.47","0","SATNPRO1962","23.922","0.3351","5"],
    [28488,"HCEP03730560","2024-07-21 01:15:00","9.9727","3.26815","27.259","2.472","7.52","2.477","3.783","0.36","0.26","29.5363","4.67244","26.43","0","SATNPRO1962","23.754","0.33274","5"],
    [28489,"HCEP03730560","2024-07-21 01:30:00","9.9746","3.26833","27.357","2.477","7.52","2.444","3.929","0.28","0.16","29.5365","4.67243","26.49","0","SATNPRO1962","23.794","0.33326","5"],
    [28490,"HCEP03730560","2024-07-21 01:45:00","9.9782","3.26877","27.377","2.521","7.52","2.381","3.617","0.25","0.18","29.538","4.67258","26.96","0","SATNPRO1962","23.944","0.33538","5"],
    [28491,"HCEP03730560","2024-07-21 02:00:00","9.9808","3.26906","27.473","2.567","7.53","2.41","3.72","0.37","0.19","29.5387","4.67264","27.46","0","SATNPRO1962","23.97","0.33574","5"],
    [28492,"HCEP03730560","2024-07-21 02:15:00","9.9819","3.2692","27.505","2.589","7.53","2.388","3.636","0.32","0.12","29.5392","4.6727","27.7","0","SATNPRO1962","24.032","0.33656","5"],
    [28493,"HCEP03730560","2024-07-21 02:30:00","9.9826","3.26924","27.569","2.587","7.53","2.329","3.688","0.22","0.13","29.539","4.67266","27.67","0","SATNPRO1962","24.014","0.33634","5"],
    [28494,"HCEP03730560","2024-07-21 02:45:00","9.9832","3.26927","27.624","2.578","7.53","2.393","3.463","0.31","0.16","29.5387","4.67262","27.58","0","SATNPRO1962","24.018","0.33642","5"],
    [28495,"HCEP03730560","2024-07-21 03:00:00","9.9832","3.26922","27.629","2.57","7.53","2.252","3.789","0.21","0.21","29.5383","4.67256","27.49","0","SATNPRO1962","24.009999999999998","0.3363","5"],
    [28496,"HCEP03730560","2024-07-21 03:15:00","9.9835","3.26919","27.65","2.559","7.53","2.271","3.487","0.18","0.12","29.5378","4.67249","27.37","0","SATNPRO1962","23.826","0.33374","5"],
    [28497,"HCEP03730560","2024-07-21 03:30:00","9.983","3.26906","27.659","2.532","7.53","2.22","3.6","0.21","0.15","29.5368","4.67235","27.09","0","SATNPRO1962","23.906","0.33484","5"],
    [28498,"HCEP03730560","2024-07-21 03:45:00","9.9817","3.26879","27.66","2.486","7.52","2.313","3.329","0.22","0.13","29.5352","4.67214","26.59","0","SATNPRO1962","23.718","0.3322","5"],
    [28499,"HCEP03730560","2024-07-21 04:00:00","9.9788","3.26835","27.684","2.425","7.52","2.458","3.292","0.24","0.09","29.5331","4.6719","25.94","0","SATNPRO1962","23.604","0.33058","5"],
    [28500,"HCEP03730560","2024-07-21 04:15:00","9.9784","3.26808","27.626","2.388","7.51","2.251","2.984","0.23","0.07","29.5307","4.67156","25.54","0","SATNPRO1962","23.662","0.33144","5"],
    [28501,"HCEP03730560","2024-07-21 04:30:00","9.9806","3.26812","27.537","2.401","7.51","2.403","3.154","0.29","0.06","29.5294","4.67133","25.68","0","SATNPRO1962","23.868","0.33432","5"],
    [28502,"HCEP03730560","2024-07-21 04:45:00","9.9791","3.26797","27.453","2.378","7.51","2.629","3.286","0.25","0.11","29.5292","4.67132","25.43","0","SATNPRO1962","23.644000000000002","0.33118","5"],
    [28503,"HCEP03730560","2024-07-21 05:00:00","9.9828","3.26816","27.379","2.423","7.52","2.538","3.23","0.34","0.08","29.5281","4.6711","25.92","0","SATNPRO1962","23.791999999999998","0.33324","5"],
    [28504,"HCEP03730560","2024-07-21 05:15:00","9.9899","3.26879","27.25","2.53","7.52","2.262","2.66","0.22","0.07","29.5286","4.67104","27.06","0","SATNPRO1962","24.122","0.33786","5"],
    [28505,"HCEP03730560","2024-07-21 05:30:00","9.9891","3.26863","27.096","2.553","7.52","2.453","2.908","0.33","0.1","29.5277","4.67092","27.31","0","SATNPRO1962","24.032","0.3366","5"],
    [28506,"HCEP03730560","2024-07-21 05:45:00","9.9999","3.26968","26.938","2.667","7.54","2.137","2.288","0.25","0.08","29.5295","4.67099","28.53","0","SATNPRO1962","24.368","0.34128","5"],
    [28507,"HCEP03730560","2024-07-21 06:00:00","10.0045","3.27006","26.76","2.792","7.54","2.363","2.343","0.37","0.09","29.5296","4.67091","29.87","0","SATNPRO1962","24.56","0.34402","5"],
    [28508,"HCEP03730560","2024-07-21 06:15:00","10.0021","3.26972","26.524","2.779","7.54","2.333","2.147","0.42","0.1","29.5283","4.67075","29.73","0","SATNPRO1962","24.61","0.3447","5"],
    [28509,"HCEP03730560","2024-07-21 06:30:00","10.003","3.26973","26.309","2.76","7.54","2.237","2.314","0.37","0.09","29.5277","4.67064","29.53","0","SATNPRO1962","24.496","0.3431","5"],
    [28510,"HCEP03730560","2024-07-21 06:45:00","10.0082","3.26679","26.088","2.806","7.55","2.198","1.998","0.37","0.05","29.4942","4.66575","30.02","0","SATNPRO1962","24.728","0.34632","5"],
    [28511,"HCEP03730560","2024-07-21 07:00:00","10.006","3.26971","25.834","2.838","7.55","2.332","2.235","0.4","0.07","29.5253","4.67022","30.37","0","SATNPRO1962","24.644","0.3452","5"],
    [28512,"HCEP03730560","2024-07-21 07:15:00","10.0147","3.27052","25.598","2.923","7.56","2.024","1.91","0.24","0.07","29.5264","4.67021","31.28","0","SATNPRO1962","25.11","0.35172","5"],
    [28513,"HCEP03730560","2024-07-21 07:30:00","10.0128","3.27003","25.387","2.971","7.56","2.256","2.061","0.62","0.05","29.5231","4.66976","31.8","0","SATNPRO1962","24.988","0.34998","5"],
    [28514,"HCEP03730560","2024-07-21 07:45:00","10.0196","3.27021","25.175","3.018","7.57","2.104","1.979","0.26","0.05","29.5194","4.66911","32.3","0","SATNPRO1962","25.152","0.35232","5"],
    [28515,"HCEP03730560","2024-07-21 08:00:00","10.0293","3.27137","24.911","3.053","7.57","1.841","1.729","0.23","0.07","29.5233","4.66948","32.69","0","SATNPRO1962","25.352","0.35508","5"],
    [28516,"HCEP03730560","2024-07-21 08:15:00","10.0267","3.2708","24.673","3.203","7.58","2.337","2.005","0.31","0.09","29.5198","4.66902","34.29","0","SATNPRO1962","25.46","0.35662","5"],
    [28517,"HCEP03730560","2024-07-21 08:30:00","10.023","3.27017","24.475","3.143","7.58","1.895","1.717","0.33","0.05","29.5166","4.66861","33.64","0","SATNPRO1962","25.386","0.35556","5"],
    [28518,"HCEP03730560","2024-07-21 08:45:00","10.0207","3.26993","24.293","3.127","7.57","1.977","1.789","0.2","0.07","29.5161","4.66857","33.47","0","SATNPRO1962","25.518","0.35746","5"],
    [28519,"HCEP03730560","2024-07-21 09:00:00","10.0218","3.2692","24.056","3.188","7.58","1.714","1.67","0.23","0.34","29.5081","4.66739","34.13","0","SATNPRO1962","25.576","0.35822","5"],
    [28520,"HCEP03730560","2024-07-21 09:15:00","10.0112","3.26934","23.883","2.953","7.56","3.03","2.785","0.53","0.12","29.5181","4.66898","31.6","0","SATNPRO1962","24.838","0.3479","5"],
    [28521,"HCEP03730560","2024-07-21 09:30:00","10.0121","3.26957","23.726","2.884","7.56","2.93","2.797","0.37","0.11","29.5197","4.6692","30.86","0","SATNPRO1962","24.939999999999998","0.3493","5"],
    [28522,"HCEP03730560","2024-07-21 09:45:00","10.024","3.27052","23.617","3","7.57","2.233","1.929","0.33","0.08","29.5196","4.66897","32.12","0","SATNPRO1962","25.444","0.35636","5"],
    [28523,"HCEP03730560","2024-07-21 10:00:00","10.0294","3.27126","23.554","3.088","7.57","2.64","2.754","0.34","0.23","29.5226","4.66931","33.06","0","SATNPRO1962","25.285999999999998","0.35416","5"],
    [28524,"HCEP03730560","2024-07-21 10:15:00","10.0266","3.27111","23.532","2.975","7.56","2.746","2.763","0.46","0.18","29.5234","4.66947","31.85","0","SATNPRO1962","25.026","0.35056","5"],
    [28525,"HCEP03730560","2024-07-21 10:30:00","10.017","3.27052","23.513","2.944","7.56","2.317","2.561","0.3","0.16","29.5254","4.66991","31.51","0","SATNPRO1962","24.662","0.34546","5"],
    [28526,"HCEP03730560","2024-07-21 10:45:00","10.0273","3.27159","23.561","2.98","7.57","2.391","2.108","0.54","0.21","29.5276","4.67006","31.9","0","SATNPRO1962","25.048","0.35086","5"],
    [28527,"HCEP03730560","2024-07-21 11:00:00","10.0102","3.27016","23.588","2.902","7.55","2.4","2.969","0.46","0.24","29.5273","4.6703","31.06","0","SATNPRO1962","24.272","0.33996","5"],
    [28528,"HCEP03730560","2024-07-21 11:15:00","9.9989","3.2694","23.639","2.677","7.54","2.399","2.999","0.44","0.47","29.5288","4.67071","28.64","0","SATNPRO1962","24.036","0.33664","5"],
    [28529,"HCEP03730560","2024-07-21 11:30:00","10.0017","3.26996","23.702","2.556","7.53","2.436","3.724","0.44","1.45","29.5321","4.67114","27.35","0","SATNPRO1962","24.004","0.33624","5"],
    [28530,"HCEP03730560","2024-07-21 11:45:00","10.0035","3.27028","23.778","2.557","7.53","2.237","3.108","0.46","0.26","29.5338","4.67136","27.36","0","SATNPRO1962","24.284","0.34016","5"],
    [28531,"HCEP03730560","2024-07-21 12:00:00","10.0022","3.27017","23.927","2.553","7.53","2.642","3.198","0.57","0.27","29.5338","4.67138","27.32","0","SATNPRO1962","23.67","0.3315","5"],
    [28532,"HCEP03730560","2024-07-21 12:15:00","10.002","3.27012","24.272","2.531","7.53","2.359","3.117","0.51","0.16","29.5333","4.67133","27.08","0","SATNPRO1962","23.748","0.33264","5"],
    [28533,"HCEP03730560","2024-07-21 12:30:00","9.9979","3.26973","24.45","2.476","7.52","2.148","3.322","0.32","0.28","29.5326","4.67132","26.5","0","SATNPRO1962","23.496000000000002","0.32912","5"],
    [28534,"HCEP03730560","2024-07-21 12:45:00","9.9896","3.26847","24.737","2.37","7.51","2.806","3.468","0.53","0.25","29.5268","4.67064","25.35","0","SATNPRO1962","23.368","0.32734","5"],
    [28535,"HCEP03730560","2024-07-21 13:00:00","9.9824","3.2674","24.898","2.274","7.51","2.71","3.677","0.44","0.29","29.5219","4.67007","24.33","0","SATNPRO1962","23.334","0.32682","5"],
    [28536,"HCEP03730560","2024-07-21 13:15:00","9.9857","3.26718","24.998","2.313","7.51","2.647","3.644","0.39","0.28","29.5168","4.6693","24.74","0","SATNPRO1962","23.7","0.33194","5"],
    [28537,"HCEP03730560","2024-07-21 13:30:00","9.9871","3.26713","25.215","2.393","7.51","2.994","4.331","0.45","0.61","29.5152","4.66905","25.6","0","SATNPRO1962","23.758","0.33276","5"],
    [28538,"HCEP03730560","2024-07-21 13:45:00","9.9902","3.26751","25.434","2.43","7.52","2.396","3.024","0.35","0.14","29.5163","4.66917","25.99","0","SATNPRO1962","24.11","0.3377","5"],
    [28539,"HCEP03730560","2024-07-21 14:00:00","9.9932","3.26832","25.657","2.449","7.52","2.303","3.55","0.24","0.31","29.5219","4.66994","26.2","0","SATNPRO1962","23.802","0.33338","5"],
    [28540,"HCEP03730560","2024-07-21 14:15:00","10.0071","3.27069","25.937","2.546","7.53","2.487","3.801","0.24","0.17","29.5342","4.67147","27.25","0","SATNPRO1962","23.844","0.33398","5"],
    [28541,"HCEP03730560","2024-07-21 14:30:00","10.0307","3.27291","26.129","2.814","7.55","2.584","3.742","0.69","0.14","29.537","4.67149","30.13","0","SATNPRO1962","24.18","0.33868","5"],
    [28542,"HCEP03730560","2024-07-21 14:45:00","10.0235","3.27269","26.34","2.836","7.55","2.696","4.185","0.31","0.3","29.5406","4.67213","30.36","0","SATNPRO1962","24.148","0.33828","5"],
    [28543,"HCEP03730560","2024-07-21 15:00:00","10.0211","3.27236","26.536","2.804","7.55","2.612","4.263","0.34","0.28","29.5392","4.67198","30.02","0","SATNPRO1962","24.184","0.33872","5"],
    [28544,"HCEP03730560","2024-07-21 15:15:00","10.0221","3.27222","26.816","2.784","7.55","2.538","3.475","0.4","0.23","29.5368","4.67164","29.8","0","SATNPRO1962","24.196","0.3389","5"],
    [28545,"HCEP03730560","2024-07-21 15:30:00","10.0219","3.27222","26.954","2.799","7.55","2.49","3.816","0.34","0.25","29.537","4.67168","29.96","0","SATNPRO1962","24.26","0.33976","5"],
    [28546,"HCEP03730560","2024-07-21 15:45:00","10.0262","3.27239","27.141","2.873","7.55","2.365","3.174","0.27","0.22","29.5351","4.67135","30.76","0","SATNPRO1962","24.536","0.34364","5"],
    [28547,"HCEP03730560","2024-07-21 16:00:00","10.0321","3.27287","27.282","2.986","7.56","2.485","3.313","0.51","0.31","29.535","4.67125","31.98","0","SATNPRO1962","24.704","0.34602","5"],
    [28548,"HCEP03730560","2024-07-21 16:15:00","10.0389","3.27325","27.458","3.031","7.57","2.382","3.037","0.27","0.19","29.5331","4.67087","32.46","0","SATNPRO1962","24.9","0.34878","5"],
    [28549,"HCEP03730560","2024-07-21 16:30:00","10.0403","3.27323","27.626","3.084","7.57","2.425","2.882","0.54","0.22","29.5318","4.67067","33.03","0","SATNPRO1962","24.99","0.35002","5"],
    [28550,"HCEP03730560","2024-07-21 16:45:00","10.0362","3.27283","27.72","3.079","7.57","2.158","2.828","0.35","0.43","29.5311","4.67065","32.98","0","SATNPRO1962","25.036","0.35062","5"],
    [28551,"HCEP03730560","2024-07-21 17:00:00","10.0365","3.27277","27.787","3.048","7.57","2.174","3.039","0.28","0.15","29.5302","4.67051","32.64","0","SATNPRO1962","24.886","0.34862","5"],
    [28552,"HCEP03730560","2024-07-21 17:15:00","10.0372","3.27294","27.876","3.048","7.57","2.315","2.916","0.93","0.34","29.5313","4.67067","32.64","0","SATNPRO1962","25.03","0.35056","5"],
    [28553,"HCEP03730560","2024-07-21 17:30:00","10.0428","3.27371","27.888","3.091","7.57","2.099","2.787","0.34","0.32","29.5344","4.67102","33.11","0","SATNPRO1962","25.01","0.3503","5"],
    [28554,"HCEP03730560","2024-07-21 17:45:00","10.0423","3.27393","27.845","3.135","7.57","2.237","3.207","0.34","0.22","29.5371","4.6714","33.58","0","SATNPRO1962","24.926","0.3491","5"],
    [28555,"HCEP03730560","2024-07-21 18:00:00","10.0414","3.27399","27.904","3.097","7.57","2.32","3.403","0.4","0.22","29.5383","4.67159","33.17","0","SATNPRO1962","24.696","0.34592","5"],
    [28556,"HCEP03730560","2024-07-21 18:15:00","10.0324","3.27342","27.932","2.998","7.56","2.52","4.045","0.33","0.29","29.54","4.67199","32.11","0","SATNPRO1962","24.52","0.34344","5"],
    [28557,"HCEP03730560","2024-07-21 18:30:00","10.0278","3.27311","27.884","2.915","7.56","2.554","3.973","0.43","0.64","29.5407","4.67216","31.22","0","SATNPRO1962","24.29","0.3402","5"],
    [28558,"HCEP03730560","2024-07-21 18:45:00","10.0295","3.2732","27.911","2.88","7.56","2.401","3.384","0.52","0.25","29.5402","4.67207","30.84","0","SATNPRO1962","24.39","0.34166","5"],
    [28559,"HCEP03730560","2024-07-21 19:00:00","10.0327","3.27351","27.86","2.93","7.56","2.308","3.268","0.4","0.23","29.5407","4.67208","31.37","0","SATNPRO1962","24.642","0.34514","5"],
    [28560,"HCEP03730560","2024-07-21 19:15:00","10.0294","3.27328","27.849","2.923","7.56","2.412","3.487","0.39","0.19","29.5411","4.67219","31.3","0","SATNPRO1962","24.381999999999998","0.34156","5"],
    [28561,"HCEP03730560","2024-07-21 19:30:00","10.0268","3.27306","27.823","2.881","7.55","2.219","3.439","0.34","0.33","29.541","4.67222","30.85","0","SATNPRO1962","24.276","0.34002","5"],
    [28562,"HCEP03730560","2024-07-21 19:45:00","10.0219","3.27257","27.69","2.826","7.55","2.478","3.443","0.44","0.3","29.5402","4.67218","30.25","0","SATNPRO1962","24.16","0.33836","5"],
    [28563,"HCEP03730560","2024-07-21 20:00:00","10.0168","3.27211","27.647","2.784","7.55","2.419","3.883","0.34","0.25","29.5398","4.6722","29.81","0","SATNPRO1962","24.302","0.34036","5"],
    [28564,"HCEP03730560","2024-07-21 20:15:00","10.0045","3.27065","27.563","2.688","7.54","2.565","4.117","0.28","0.33","29.5352","4.67175","28.77","0","SATNPRO1962","24.07","0.33716","5"],
    [28565,"HCEP03730560","2024-07-21 20:30:00","9.9922","3.26918","27.43","2.59","7.53","2.294","3.831","0.34","0.2","29.5305","4.67129","27.71","0","SATNPRO1962","24.044","0.33674","5"],
    [28566,"HCEP03730560","2024-07-21 20:45:00","9.9891","3.26873","27.395","2.516","7.52","2.397","3.761","0.31","0.39","29.5287","4.67107","26.91","0","SATNPRO1962","23.954","0.3355","5"],
    [28567,"HCEP03730560","2024-07-21 21:00:00","9.9817","3.26782","27.38","2.462","7.52","2.283","3.895","0.21","0.78","29.5256","4.67075","26.34","0","SATNPRO1962","23.816","0.33356","5"],
    [28568,"HCEP03730560","2024-07-21 21:15:00","9.983","3.26807","27.224","2.417","7.52","2.638","4.025","0.38","0.25","29.5271","4.67093","25.85","0","SATNPRO1962","23.672","0.33154","5"],
    [28569,"HCEP03730560","2024-07-21 21:30:00","9.9817","3.26778","27.176","2.391","7.51","2.889","4.258","0.36","0.48","29.5252","4.67069","25.57","0","SATNPRO1962","23.706","0.33208","5"],
    [28570,"HCEP03730560","2024-07-21 21:45:00","9.9829","3.26768","27.072","2.399","7.51","2.672","3.678","0.26","0.24","29.5233","4.67039","25.66","0","SATNPRO1962","23.924","0.3351","5"],
    [28571,"HCEP03730560","2024-07-21 22:00:00","9.9836","3.26777","26.993","2.408","7.51","2.833","3.999","0.39","0.28","29.5237","4.67043","25.76","0","SATNPRO1962","23.830000000000002","0.33378","5"],
    [28572,"HCEP03730560","2024-07-21 22:15:00","9.9756","3.2668","26.904","2.368","7.51","2.388","3.333","0.4","0.27","29.5206","4.67012","25.32","0","SATNPRO1962","23.87","0.33434","5"],
    [28573,"HCEP03730560","2024-07-21 22:30:00","9.9739","3.2666","26.764","2.321","7.51","2.307","3.271","0.45","0.14","29.52","4.67005","24.82","0","SATNPRO1962","23.650000000000002","0.33126","5"],
    [28574,"HCEP03730560","2024-07-21 22:45:00","9.9735","3.26655","26.779","2.293","7.5","2.399","3.269","0.36","0.21","29.5198","4.67004","24.52","0","SATNPRO1962","23.842","0.33392","5"],
    [28575,"HCEP03730560","2024-07-21 23:00:00","9.9744","3.26666","26.7","2.287","7.5","2.298","3.211","0.38","0.18","29.5202","4.67006","24.46","0","SATNPRO1962","23.76","0.3328","5"],
    [28576,"HCEP03730560","2024-07-21 23:15:00","9.9767","3.26691","26.697","2.303","7.5","2.253","3.157","0.35","0.28","29.5209","4.67013","24.63","0","SATNPRO1962","23.736","0.33246","5"],
    [28577,"HCEP03730560","2024-07-21 23:30:00","9.9772","3.26699","26.657","2.326","7.51","2.028","3.033","0.39","0.17","29.5212","4.67017","24.87","0","SATNPRO1962","23.676","0.33162","5"],
    [28578,"HCEP03730560","2024-07-21 23:45:00","9.9772","3.26699","26.654","2.335","7.51","1.985","2.869","0.25","0.36","29.5212","4.67016","24.97","0","SATNPRO1962","23.75","0.3327","5"],
    [28579,"HCEP03730560","2024-07-22 00:00:00","9.9754","3.26675","26.626","2.317","7.5","2.08","2.944","0.36","0.19","29.5203","4.67006","24.78","0","SATNPRO1962","23.794","0.33332","5"],
    [28580,"HCEP03730560","2024-07-22 00:15:00","9.9756","3.26672","26.687","2.3","7.5","1.902","2.734","0.24","0.09","29.5198","4.66999","24.6","0","SATNPRO1962","23.976","0.33582","5"],
    [28581,"HCEP03730560","2024-07-22 00:30:00","9.9739","3.26652","26.764","2.286","7.5","2.01","3.079","0.27","0.18","29.5192","4.66993","24.44","0","SATNPRO1962","23.722","0.33224","5"],
    [28582,"HCEP03730560","2024-07-22 00:45:00","9.9761","3.26679","26.798","2.315","7.5","1.903","2.786","0.21","0.08","29.52","4.67002","24.75","0","SATNPRO1962","23.844","0.33398","5"],
    [28583,"HCEP03730560","2024-07-22 01:00:00","9.9764","3.26678","26.877","2.314","7.5","2.06","3.118","0.27","0.11","29.5197","4.66998","24.75","0","SATNPRO1962","23.768","0.33294","5"],
    [28584,"HCEP03730560","2024-07-22 01:15:00","9.9763","3.26678","26.961","2.316","7.5","1.871","2.846","0.17","0.12","29.5198","4.67","24.77","0","SATNPRO1962","23.718","0.3322","5"],
    [28585,"HCEP03730560","2024-07-22 01:30:00","9.9758","3.2667","27.019","2.3","7.5","1.897","3.098","0.19","0.12","29.5194","4.66995","24.6","0","SATNPRO1962","23.698","0.33196","5"],
    [28586,"HCEP03730560","2024-07-22 01:45:00","9.9755","3.26661","27.117","2.259","7.5","2.151","3.247","0.21","0.14","29.5186","4.66985","24.16","0","SATNPRO1962","23.54","0.3297","5"],
    [28587,"HCEP03730560","2024-07-22 02:00:00","9.9763","3.26659","27.179","2.258","7.5","1.972","3.268","0.27","0.23","29.5178","4.66972","24.15","0","SATNPRO1962","23.626","0.331","5"],
    [28588,"HCEP03730560","2024-07-22 02:15:00","9.9785","3.26676","27.289","2.276","7.5","1.965","3.011","0.21","0.12","29.5176","4.66966","24.34","0","SATNPRO1962","23.568","0.33014","5"],
    [28589,"HCEP03730560","2024-07-22 02:30:00","9.981","3.26708","27.365","2.3","7.5","2.102","3.423","0.3","0.13","29.5188","4.66979","24.6","0","SATNPRO1962","23.478","0.32886","5"],
    [28590,"HCEP03730560","2024-07-22 02:45:00","9.9823","3.26724","27.401","2.318","7.5","2.029","3.289","0.26","0.14","29.5194","4.66986","24.79","0","SATNPRO1962","23.644","0.3312","5"],
    [28591,"HCEP03730560","2024-07-22 03:00:00","9.9843","3.26752","27.487","2.352","7.51","1.965","3.409","0.27","0.14","29.5204","4.66998","25.16","0","SATNPRO1962","23.7","0.33198","5"],
    [28592,"HCEP03730560","2024-07-22 03:15:00","9.9874","3.26787","27.508","2.375","7.51","1.974","3.449","0.18","0.23","29.5213","4.67006","25.4","0","SATNPRO1962","23.806","0.33346","5"],
    [28593,"HCEP03730560","2024-07-22 03:30:00","9.9996","3.26936","27.533","2.474","7.52","2.024","3.656","0.2","0.12","29.5264","4.67057","26.47","0","SATNPRO1962","23.862","0.33422","5"],
    [28594,"HCEP03730560","2024-07-22 03:45:00","10.0094","3.2705","27.619","2.606","7.53","2.208","3.738","0.24","0.15","29.5297","4.67089","27.89","0","SATNPRO1962","23.964","0.33566","5"],
    [28595,"HCEP03730560","2024-07-22 04:00:00","10.0159","3.27125","27.634","2.658","7.53","2.052","3.708","0.2","0.12","29.5319","4.6711","28.45","0","SATNPRO1962","24.02","0.33644","5"],
    [28596,"HCEP03730560","2024-07-22 04:15:00","10.0179","3.27152","27.687","2.686","7.54","2.099","3.515","0.23","0.1","29.5329","4.67121","28.75","0","SATNPRO1962","24.056","0.33696","5"],
    [28597,"HCEP03730560","2024-07-22 04:30:00","10.019","3.27166","27.658","2.695","7.54","2.166","3.865","0.22","0.14","29.5334","4.67126","28.85","0","SATNPRO1962","24.08","0.3373","5"],
    [28598,"HCEP03730560","2024-07-22 04:45:00","10.0179","3.27153","27.657","2.686","7.54","2.017","3.409","0.24","0.1","29.5331","4.67124","28.76","0","SATNPRO1962","24.006","0.33622","5"],
    [28599,"HCEP03730560","2024-07-22 05:00:00","10.0159","3.2714","27.655","2.666","7.54","2.022","3.713","0.22","0.19","29.5333","4.6713","28.54","0","SATNPRO1962","24.018","0.33642","5"],
    [28600,"HCEP03730560","2024-07-22 05:15:00","10.0193","3.27182","27.59","2.699","7.54","1.861","3.25","0.16","0.09","29.5348","4.67145","28.9","0","SATNPRO1962","24.082","0.33728","5"],
    [28601,"HCEP03730560","2024-07-22 05:30:00","10.0204","3.27192","27.508","2.704","7.54","1.999","3.671","0.2","0.11","29.535","4.67145","28.95","0","SATNPRO1962","24.064","0.33704","5"],
    [28602,"HCEP03730560","2024-07-22 05:45:00","10.0205","3.27191","27.404","2.699","7.54","1.919","3.283","0.22","0.08","29.5348","4.67142","28.89","0","SATNPRO1962","24.056","0.33694","5"],
    [28603,"HCEP03730560","2024-07-22 06:00:00","10.0206","3.27187","27.296","2.685","7.54","1.968","3.434","0.19","0.09","29.5344","4.67135","28.74","0","SATNPRO1962","24.04","0.33674","5"],
    [28604,"HCEP03730560","2024-07-22 06:15:00","10.0272","3.27255","27.142","2.73","7.54","1.885","3.245","0.13","0.07","29.5358","4.67144","29.23","0","SATNPRO1962","24.146","0.33824","5"],
    [28605,"HCEP03730560","2024-07-22 06:30:00","10.0307","3.27277","27.017","2.756","7.54","2.036","3.269","0.24","0.08","29.5353","4.6713","29.51","0","SATNPRO1962","24.064","0.33702","5"],
    [28606,"HCEP03730560","2024-07-22 06:45:00","10.0305","3.2727","26.788","2.734","7.54","1.992","3.131","0.21","0.09","29.5348","4.67121","29.27","0","SATNPRO1962","24.094","0.33746","5"],
    [28607,"HCEP03730560","2024-07-22 07:00:00","10.0296","3.27262","26.598","2.717","7.54","2.113","3.423","0.25","0.09","29.5348","4.67122","29.09","0","SATNPRO1962","23.974","0.3358","5"],
    [28608,"HCEP03730560","2024-07-22 07:15:00","10.029","3.27253","26.344","2.692","7.54","2.148","3.288","0.23","0.09","29.5345","4.67117","28.83","0","SATNPRO1962","23.94","0.33528","5"],
    [28609,"HCEP03730560","2024-07-22 07:30:00","10.029","3.27251","26.141","2.684","7.54","2.374","3.674","0.44","0.13","29.5344","4.67114","28.73","0","SATNPRO1962","24.028","0.33656","5"],
    [28610,"HCEP03730560","2024-07-22 07:45:00","10.0287","3.27249","25.888","2.677","7.54","2.145","3.083","0.34","0.1","29.5344","4.67114","28.67","0","SATNPRO1962","23.948","0.33544","5"],
    [28611,"HCEP03730560","2024-07-22 08:00:00","10.0303","3.27255","25.644","2.693","7.54","1.836","2.831","0.22","0.33","29.5339","4.67103","28.84","0","SATNPRO1962","24.06","0.33702","5"],
    [28612,"HCEP03730560","2024-07-22 08:15:00","10.0287","3.27225","25.395","2.693","7.54","1.846","2.611","0.22","0.15","29.5323","4.67081","28.84","0","SATNPRO1962","24.044","0.33678","5"],
    [28613,"HCEP03730560","2024-07-22 08:30:00","10.0256","3.27167","25.156","2.674","7.54","1.693","2.646","0.19","0.08","29.5291","4.67039","28.62","0","SATNPRO1962","24.09","0.33744","5"],
    [28614,"HCEP03730560","2024-07-22 08:45:00","10.0234","3.27135","24.921","2.646","7.53","1.831","2.474","0.3","0.08","29.5279","4.67024","28.33","0","SATNPRO1962","24.144","0.33816","5"],
    [28615,"HCEP03730560","2024-07-22 09:00:00","10.0202","3.2707","24.681","2.644","7.53","1.646","2.378","0.31","0.13","29.5241","4.66974","28.3","0","SATNPRO1962","24.136","0.3381","5"],
    [28616,"HCEP03730560","2024-07-22 09:15:00","10.0172","3.27027","24.419","2.632","7.53","1.704","2.136","0.33","0.09","29.5223","4.66952","28.17","0","SATNPRO1962","24.18","0.33866","5"],
    [28617,"HCEP03730560","2024-07-22 09:30:00","10.0195","3.27058","24.201","2.62","7.53","1.603","2.293","0.26","0.08","29.5236","4.66966","28.05","0","SATNPRO1962","24.25","0.33968","5"],
    [28618,"HCEP03730560","2024-07-22 09:45:00","10.0186","3.27029","24.007","2.636","7.53","1.588","2.046","0.17","0.1","29.5216","4.66937","28.22","0","SATNPRO1962","24.354","0.3411","5"],
    [28619,"HCEP03730560","2024-07-22 10:00:00","10.0188","3.27068","23.838","2.628","7.53","1.539","2.329","0.24","0.09","29.5254","4.6699","28.13","0","SATNPRO1962","24.134","0.33804","5"],
    [28620,"HCEP03730560","2024-07-22 10:15:00","10.0179","3.27051","23.687","2.585","7.53","1.69","2.158","0.25","0.07","29.5245","4.66977","27.67","0","SATNPRO1962","24.082","0.33728","5"],
    [28621,"HCEP03730560","2024-07-22 10:30:00","10.0275","3.27209","23.601","2.616","7.53","1.912","2.881","0.4","0.3","29.5324","4.67074","28.01","0","SATNPRO1962","24.02","0.33646","5"],
    [28622,"HCEP03730560","2024-07-22 10:45:00","10.0297","3.26782","23.523","2.641","7.53","2.298","3.351","0.31","0.22","29.488","4.66436","28.27","0","SATNPRO1962","23.656","0.33134","5"],
    [28623,"HCEP03730560","2024-07-22 11:00:00","10.0258","3.27192","23.474","2.579","7.53","2.367","3.652","0.41","0.2","29.5321","4.67072","27.61","0","SATNPRO1962","23.71","0.3321","5"],
    [28624,"HCEP03730560","2024-07-22 11:15:00","10.0276","3.27226","23.478","2.582","7.53","2.049","3.274","0.28","0.19","29.534","4.67096","27.64","0","SATNPRO1962","23.848","0.33402","5"],
    [28625,"HCEP03730560","2024-07-22 11:30:00","10.0393","3.27362","23.509","2.635","7.54","2.001","3.306","0.28","0.15","29.5381","4.67135","28.22","0","SATNPRO1962","23.988","0.33596","5"],
    [28626,"HCEP03730560","2024-07-22 11:45:00","10.0425","3.274","23.571","2.767","7.54","1.892","3.331","0.32","0.18","29.5393","4.67148","29.63","0","SATNPRO1962","24.12","0.33782","5"],
    [28627,"HCEP03730560","2024-07-22 12:00:00","10.0529","3.27527","23.653","2.895","7.56","1.593","3.083","0.22","0.17","29.5435","4.6719","31.01","0","SATNPRO1962","24.398","0.34172","5"],
    [28628,"HCEP03730560","2024-07-22 12:15:00","10.0454","3.27437","23.723","2.889","7.55","1.726","3.259","0.31","0.17","29.5406","4.67162","30.94","0","SATNPRO1962","24.128","0.33794","5"],
    [28629,"HCEP03730560","2024-07-22 12:30:00","10.0544","3.27539","23.873","2.867","7.56","1.531","2.974","0.22","0.13","29.5434","4.67188","30.72","0","SATNPRO1962","24.338","0.34088","5"],
    [28630,"HCEP03730560","2024-07-22 12:45:00","10.0738","3.27746","24.039","3.055","7.57","1.575","2.749","0.25","0.17","29.5481","4.67224","32.75","0","SATNPRO1962","24.964000000000002","0.34968","5"],
    [28631,"HCEP03730560","2024-07-22 13:00:00","10.0672","3.2768","24.229","3.113","7.57","1.561","3.009","0.29","0.16","29.5468","4.67217","33.36","0","SATNPRO1962","24.488","0.343","5"],
    [28632,"HCEP03730560","2024-07-22 13:15:00","10.0551","3.27548","24.415","3.018","7.56","1.794","3.574","0.3","0.26","29.5434","4.6719","32.34","0","SATNPRO1962","24.246","0.33958","5"],
    [28633,"HCEP03730560","2024-07-22 13:30:00","10.0483","3.27468","24.597","2.889","7.55","1.934","3.724","0.42","0.23","29.5409","4.67167","30.95","0","SATNPRO1962","24.156","0.3383","5"],
    [28634,"HCEP03730560","2024-07-22 13:45:00","10.0423","3.274","24.838","2.805","7.55","2.225","3.923","0.42","0.3","29.5389","4.6715","30.05","0","SATNPRO1962","24.104","0.3376","5"],
    [28635,"HCEP03730560","2024-07-22 14:00:00","10.0415","3.27185","25.144","2.781","7.55","2.263","3.359","0.52","0.21","29.518","4.66853","29.78","0","SATNPRO1962","24.02","0.33644","5"],
    [28636,"HCEP03730560","2024-07-22 14:15:00","10.0258","3.2718","25.305","2.694","7.54","2.045","2.716","0.53","0.21","29.5302","4.67055","28.84","0","SATNPRO1962","24.208","0.33902","5"],
    [28637,"HCEP03730560","2024-07-22 14:30:00","10.0297","3.27212","25.497","2.772","7.54","1.868","2.859","0.36","0.24","29.5301","4.67049","29.68","0","SATNPRO1962","24.218","0.3392","5"],
    [28638,"HCEP03730560","2024-07-22 14:45:00","10.0378","3.27344","25.777","2.693","7.54","2.135","4.004","0.26","0.2","29.5367","4.67131","28.84","0","SATNPRO1962","24.094","0.3375","5"],
    [28639,"HCEP03730560","2024-07-22 15:00:00","10.0473","3.27459","26.017","2.786","7.55","1.922","4.311","0.23","0.17","29.5402","4.67167","29.84","0","SATNPRO1962","23.992","0.336","5"],
    [28640,"HCEP03730560","2024-07-22 15:15:00","10.0543","3.27535","26.25","2.876","7.55","1.921","4.098","0.24","0.17","29.542","4.67182","30.81","0","SATNPRO1962","24.22","0.33922","5"],
    [28641,"HCEP03730560","2024-07-22 15:30:00","10.0579","3.27573","26.507","2.949","7.56","1.812","3.727","0.31","0.29","29.5428","4.67189","31.59","0","SATNPRO1962","24.276","0.34004","5"],
    [28642,"HCEP03730560","2024-07-22 15:45:00","10.0589","3.27585","26.701","2.979","7.56","1.821","3.462","0.26","0.15","29.5431","4.67193","31.92","0","SATNPRO1962","24.386","0.34158","5"],
    [28643,"HCEP03730560","2024-07-22 16:00:00","10.0585","3.27584","26.94","2.987","7.56","1.646","3.096","0.22","0.13","29.5432","4.67196","32","0","SATNPRO1962","24.416","0.34198","5"],
    [28644,"HCEP03730560","2024-07-22 16:15:00","10.0641","3.27632","27.102","3.049","7.57","1.647","3.05","0.17","0.28","29.5434","4.6719","32.67","0","SATNPRO1962","24.556","0.34396","5"],
    [28645,"HCEP03730560","2024-07-22 16:30:00","10.0586","3.27494","27.23","3.03","7.56","1.717","2.976","0.32","0.25","29.5341","4.67067","32.46","0","SATNPRO1962","24.47","0.34276","5"],
    [28646,"HCEP03730560","2024-07-22 16:45:00","10.0897","3.27638","27.41","2.927","7.57","1.887","2.459","0.3","0.28","29.523","4.66858","31.37","0","SATNPRO1962","24.992","0.35004","5"],
    [28647,"HCEP03730560","2024-07-22 17:00:00","10.0152","3.27016","27.616","2.516","7.53","2.137","3.768","0.24","0.25","29.5216","4.66963","26.93","0","SATNPRO1962","23.9","0.33476","5"],
    [28648,"HCEP03730560","2024-07-22 17:15:00","10.0214","3.27056","27.674","2.576","7.53","2.359","3.991","0.32","0.19","29.5204","4.66937","27.57","0","SATNPRO1962","24.062","0.33702","5"],
    [28649,"HCEP03730560","2024-07-22 17:30:00","10.0222","3.27061","27.814","2.587","7.53","2.346","3.961","0.31","0.13","29.5202","4.66933","27.7","0","SATNPRO1962","24.236","0.33948","5"],
    [28650,"HCEP03730560","2024-07-22 17:45:00","10.0273","3.27091","27.905","2.672","7.53","2.187","3.308","0.27","0.12","29.519","4.66908","28.6","0","SATNPRO1962","24.38","0.34146","5"],
    [28651,"HCEP03730560","2024-07-22 18:00:00","10.0246","3.27074","27.971","2.62","7.53","2.21","3.617","0.22","0.14","29.5195","4.6692","28.04","0","SATNPRO1962","23.944","0.33538","5"],
    [28652,"HCEP03730560","2024-07-22 18:15:00","10.0319","3.27173","27.982","2.621","7.53","1.972","3.389","0.25","0.14","29.5235","4.66965","28.06","0","SATNPRO1962","24.148","0.33822","5"],
    [28653,"HCEP03730560","2024-07-22 18:30:00","10.0751","3.27617","27.941","2.958","7.56","1.911","3.35","0.41","0.17","29.5327","4.67023","31.7","0","SATNPRO1962","24.76","0.34676","5"],
    [28654,"HCEP03730560","2024-07-22 18:45:00","10.0952","3.27875","27.942","3.287","7.59","1.873","3.546","0.3","0.48","29.542","4.67123","35.25","0","SATNPRO1962","25.02","0.35044","5"],
    [28655,"HCEP03730560","2024-07-22 19:00:00","10.1046","3.28016","27.903","3.39","7.6","1.88","3.87","0.24","0.26","29.5484","4.67199","36.36","0","SATNPRO1962","24.912","0.34892","5"],
    [28656,"HCEP03730560","2024-07-22 19:15:00","10.1106","3.28152","27.911","3.445","7.61","1.96","4.243","0.31","0.21","29.5571","4.67313","36.96","0","SATNPRO1962","25.038","0.35068","5"],
    [28657,"HCEP03730560","2024-07-22 19:30:00","10.1345","3.28455","27.875","3.722","7.63","1.958","4.849","0.28","0.17","29.5678","4.67425","39.95","0","SATNPRO1962","25.666","0.35948","5"],
    [28658,"HCEP03730560","2024-07-22 19:45:00","10.1579","3.28719","27.845","4.017","7.66","2.007","3.933","0.27","0.21","29.5751","4.67491","43.15","0","SATNPRO1962","25.796","0.36132","5"],
    [28659,"HCEP03730560","2024-07-22 20:00:00","10.1603","3.28743","27.804","4.101","7.67","1.795","4.306","0.2","0.39","29.5755","4.67492","44.05","0","SATNPRO1962","25.9","0.36276","5"],
    [28660,"HCEP03730560","2024-07-22 20:15:00","10.1614","3.28757","27.71","4.124","7.67","1.859","3.497","0.39","0.17","29.576","4.67497","44.3","0","SATNPRO1962","25.916","0.36302","5"],
    [28661,"HCEP03730560","2024-07-22 20:30:00","10.1584","3.28726","27.635","4.102","7.67","1.774","3.347","0.33","0.12","29.5754","4.67493","44.06","0","SATNPRO1962","25.858","0.36216","5"],
    [28662,"HCEP03730560","2024-07-22 20:45:00","10.1529","3.28661","27.521","4.037","7.66","1.791","3.637","0.24","0.14","29.5734","4.67473","43.36","0","SATNPRO1962","25.804","0.36142","5"],
    [28663,"HCEP03730560","2024-07-22 21:00:00","10.1555","3.28686","27.485","4.029","7.66","1.773","3.819","0.27","0.28","29.5738","4.67474","43.27","0","SATNPRO1962","25.918","0.36302","5"],
    [28664,"HCEP03730560","2024-07-22 21:15:00","10.1574","3.2871","27.365","4.05","7.67","1.792","3.483","0.27","0.27","29.5747","4.67483","43.5","0","SATNPRO1962","25.884","0.36254","5"],
    [28665,"HCEP03730560","2024-07-22 21:30:00","10.1628","3.28317","27.233","4.095","7.67","1.595","3.382","0.18","0.18","29.5312","4.66853","43.98","0","SATNPRO1962","25.89","0.36262","5"],
    [28666,"HCEP03730560","2024-07-22 21:45:00","10.1623","3.28765","27.146","4.102","7.67","1.833","3.669","0.36","0.39","29.5763","4.67496","44.06","0","SATNPRO1962","25.922","0.36308","5"],
    [28667,"HCEP03730560","2024-07-22 22:00:00","10.1572","3.2872","27.089","4.061","7.67","1.667","3.612","0.16","0.56","29.576","4.67501","43.62","0","SATNPRO1962","25.688","0.35982","5"],
    [28668,"HCEP03730560","2024-07-22 22:15:00","10.1572","3.28717","26.999","4.041","7.67","1.611","3.23","0.2","0.15","29.5757","4.67496","43.4","0","SATNPRO1962","25.78","0.36106","5"],
    [28669,"HCEP03730560","2024-07-22 22:30:00","10.1529","3.28658","26.89","4.013","7.66","1.601","3.492","0.22","0.18","29.5734","4.67469","43.1","0","SATNPRO1962","25.668","0.35952","5"],
    [28670,"HCEP03730560","2024-07-22 22:45:00","10.1557","3.28656","26.742","3.974","7.66","1.647","3.397","0.2","0.2","29.571","4.6743","42.67","0","SATNPRO1962","25.606","0.3586","5"],
    [28671,"HCEP03730560","2024-07-22 23:00:00","10.1481","3.28568","26.68","3.926","7.65","1.708","3.72","0.24","0.23","29.5685","4.67406","42.16","0","SATNPRO1962","25.61","0.35874","5"],
    [28672,"HCEP03730560","2024-07-22 23:15:00","10.1445","3.28533","26.585","3.884","7.65","1.754","3.426","0.31","0.32","29.5679","4.67403","41.7","0","SATNPRO1962","25.516000000000002","0.35736","5"],
    [28673,"HCEP03730560","2024-07-22 23:30:00","10.1419","3.28483","26.478","3.86","7.65","1.755","3.239","0.35","0.24","29.565","4.67366","41.44","0","SATNPRO1962","25.518","0.35746","5"],
    [28674,"HCEP03730560","2024-07-22 23:45:00","10.1431","3.28468","26.427","3.843","7.64","1.854","3.288","0.34","0.28","29.5626","4.67328","41.25","0","SATNPRO1962","25.45","0.35646","5"],
    [28675,"HCEP03730560","2024-07-23 00:00:00","10.1414","3.28447","26.428","3.821","7.64","1.997","3.475","0.59","0.35","29.5619","4.67322","41.02","0","SATNPRO1962","25.372","0.35536","5"],
    [28676,"HCEP03730560","2024-07-23 00:15:00","10.1405","3.28423","26.379","3.788","7.64","2.083","3.702","0.4","0.32","29.5602","4.67299","40.66","0","SATNPRO1962","25.408","0.35588","5"],
    [28677,"HCEP03730560","2024-07-23 00:30:00","10.1385","3.28394","26.41","3.746","7.64","1.791","3.711","0.21","0.17","29.559","4.67285","40.21","0","SATNPRO1962","25.305999999999997","0.35446","5"],
    [28678,"HCEP03730560","2024-07-23 00:45:00","10.1378","3.28372","26.391","3.721","7.63","1.759","3.346","0.22","0.33","29.5574","4.67263","39.94","0","SATNPRO1962","25.368","0.35534","5"],
    [28679,"HCEP03730560","2024-07-23 01:00:00","10.14","3.28412","26.404","3.732","7.64","1.794","3.459","0.31","0.25","29.5596","4.67291","40.06","0","SATNPRO1962","25.294","0.35428","5"],
    [28680,"HCEP03730560","2024-07-23 01:15:00","10.1411","3.28398","26.497","3.75","7.64","1.862","3.123","0.2","0.14","29.5573","4.67257","40.26","0","SATNPRO1962","25.24","0.35354","5"],
    [28681,"HCEP03730560","2024-07-23 01:30:00","10.1433","3.28432","26.572","3.759","7.64","1.781","3.281","0.22","0.13","29.5588","4.67276","40.36","0","SATNPRO1962","25.32","0.35466","5"],
    [28682,"HCEP03730560","2024-07-23 01:45:00","10.1437","3.28414","26.644","3.764","7.64","1.871","3.061","0.25","0.19","29.5567","4.67244","40.41","0","SATNPRO1962","25.37","0.35536","5"],
    [28683,"HCEP03730560","2024-07-23 02:00:00","10.1451","3.28414","26.66","3.765","7.64","1.97","3.055","0.34","0.15","29.5555","4.67226","40.42","0","SATNPRO1962","25.278","0.35402","5"],
    [28684,"HCEP03730560","2024-07-23 02:15:00","10.1444","3.28358","26.836","3.762","7.64","1.911","2.635","0.39","0.17","29.5504","4.67155","40.38","0","SATNPRO1962","25.408","0.35586","5"],
    [28685,"HCEP03730560","2024-07-23 02:30:00","10.142","3.2832","26.865","3.738","7.63","1.838","2.785","0.29","0.26","29.5486","4.67134","40.13","0","SATNPRO1962","25.348","0.35504","5"],
    [28686,"HCEP03730560","2024-07-23 02:45:00","10.1418","3.28359","26.967","3.712","7.63","1.944","3.03","0.45","0.16","29.5526","4.67192","39.85","0","SATNPRO1962","25.284","0.35414","5"],
    [28687,"HCEP03730560","2024-07-23 03:00:00","10.1418","3.28326","27.107","3.705","7.63","2.088","2.903","0.42","0.26","29.5492","4.67144","39.77","0","SATNPRO1962","25.268","0.3539","5"],
    [28688,"HCEP03730560","2024-07-23 03:15:00","10.1405","3.28303","27.175","3.705","7.63","2.007","2.547","0.39","0.14","29.5481","4.6713","39.77","0","SATNPRO1962","25.472","0.3568","5"],
    [28689,"HCEP03730560","2024-07-23 03:30:00","10.141","3.28321","27.239","3.708","7.63","1.964","2.691","0.4","0.15","29.5494","4.67148","39.81","0","SATNPRO1962","25.503999999999998","0.35722","5"],
    [28690,"HCEP03730560","2024-07-23 03:45:00","10.1406","3.28324","27.344","3.701","7.63","1.881","2.736","0.39","0.13","29.55","4.67158","39.73","0","SATNPRO1962","25.438","0.35628","5"],
    [28691,"HCEP03730560","2024-07-23 04:00:00","10.1416","3.28293","27.422","3.695","7.63","1.953","2.844","0.55","0.2","29.546","4.671","39.66","0","SATNPRO1962","25.338","0.35486","5"],
    [28692,"HCEP03730560","2024-07-23 04:15:00","10.1468","3.28368","27.474","3.709","7.63","1.897","3.065","0.45","0.54","29.5493","4.67138","39.82","0","SATNPRO1962","25.346","0.355","5"],
    [28693,"HCEP03730560","2024-07-23 04:30:00","10.1541","3.28466","27.512","3.744","7.64","1.863","3.205","0.56","0.23","29.5531","4.67181","40.2","0","SATNPRO1962","25.358","0.35514","5"],
    [28694,"HCEP03730560","2024-07-23 04:45:00","10.1596","3.28566","27.559","3.786","7.64","1.972","3.234","0.41","0.2","29.5585","4.67249","40.66","0","SATNPRO1962","25.502","0.3572","5"],
    [28695,"HCEP03730560","2024-07-23 05:00:00","10.1655","3.28612","27.593","3.84","7.65","1.919","3.297","0.48","0.32","29.5583","4.67237","41.24","0","SATNPRO1962","25.646","0.35922","5"],
    [28696,"HCEP03730560","2024-07-23 05:15:00","10.1694","3.28652","27.601","3.901","7.65","2.167","2.923","0.85","0.2","29.5591","4.67241","41.91","0","SATNPRO1962","25.698","0.35994","5"],
    [28697,"HCEP03730560","2024-07-23 05:30:00","10.1751","3.28637","27.592","3.952","7.66","1.788","2.677","0.69","0.2","29.5529","4.67143","42.46","0","SATNPRO1962","25.652","0.35932","5"],
    [28698,"HCEP03730560","2024-07-23 05:45:00","10.171","3.28679","27.569","3.964","7.65","2.09","3.003","1.84","0.27","29.5605","4.67259","42.58","0","SATNPRO1962","25.67","0.35958","5"],
    [28699,"HCEP03730560","2024-07-23 06:00:00","10.1689","3.28682","27.51","3.942","7.65","2.256","3.404","0.72","0.34","29.5625","4.67291","42.35","0","SATNPRO1962","25.663999999999998","0.35948","5"],
    [28700,"HCEP03730560","2024-07-23 06:15:00","10.1684","3.28687","27.438","3.919","7.65","2.169","3.429","0.49","0.69","29.5634","4.67305","42.1","0","SATNPRO1962","25.388","0.35558","5"],
    [28701,"HCEP03730560","2024-07-23 06:30:00","10.1605","3.28636","27.346","3.872","7.65","2.63","3.605","1.23","0.38","29.5649","4.67337","41.58","0","SATNPRO1962","25.092","0.35144","5"],
    [28702,"HCEP03730560","2024-07-23 06:45:00","10.1564","3.286","27.229","3.809","7.64","2.031","3.222","0.64","0.33","29.5646","4.6734","40.91","0","SATNPRO1962","25.186","0.35282","5"],
    [28703,"HCEP03730560","2024-07-23 07:00:00","10.1571","3.2859","27.099","3.799","7.64","1.784","2.923","0.79","0.21","29.5631","4.67316","40.8","0","SATNPRO1962","25.39","0.35562","5"],
    [28704,"HCEP03730560","2024-07-23 07:15:00","10.1572","3.28582","26.93","3.816","7.64","1.993","2.704","0.73","0.41","29.5622","4.67303","40.98","0","SATNPRO1962","25.53","0.3576","5"],
    [28705,"HCEP03730560","2024-07-23 07:30:00","10.1516","3.28532","26.762","3.791","7.64","1.672","2.994","0.89","0.35","29.562","4.67308","40.7","0","SATNPRO1962","25.304","0.35442","5"],
    [28706,"HCEP03730560","2024-07-23 07:45:00","10.1478","3.28471","26.559","3.751","7.64","1.576","2.382","0.55","0.11","29.5591","4.67271","40.28","0","SATNPRO1962","25.368","0.3553","5"],
    [28707,"HCEP03730560","2024-07-23 08:00:00","10.1415","3.28312","26.373","3.721","7.63","1.575","2.347","0.22","0.21","29.5485","4.67129","39.95","0","SATNPRO1962","25.3","0.3544","5"],
    [28708,"HCEP03730560","2024-07-23 08:15:00","10.1327","3.28233","26.142","3.647","7.62","1.513","2.29","0.26","0.15","29.5478","4.67133","39.14","0","SATNPRO1962","25.15","0.3523","5"],
    [28709,"HCEP03730560","2024-07-23 08:30:00","10.1181","3.28057","25.885","3.525","7.61","1.621","2.538","0.43","0.16","29.5422","4.67076","37.82","0","SATNPRO1962","24.962","0.34962","5"],
    [28710,"HCEP03730560","2024-07-23 08:45:00","10.1099","3.27913","25.669","3.392","7.6","2.092","2.647","0.56","0.29","29.5347","4.6698","36.38","0","SATNPRO1962","25.002000000000002","0.35018","5"],
    [28711,"HCEP03730560","2024-07-23 09:00:00","10.1036","3.27785","25.44","3.318","7.6","1.66","2.308","0.51","0.13","29.5271","4.66882","35.58","0","SATNPRO1962","25.212","0.35314","5"],
    [28712,"HCEP03730560","2024-07-23 09:15:00","10.1061","3.27816","25.175","3.29","7.59","1.876","2.72","0.27","0.14","29.5283","4.66893","35.28","0","SATNPRO1962","25.06","0.35102","5"],
    [28713,"HCEP03730560","2024-07-23 09:30:00","10.1062","3.27823","24.949","3.265","7.59","1.972","3.098","0.42","0.15","29.529","4.66902","35.02","0","SATNPRO1962","24.896","0.34874","5"],
    [28714,"HCEP03730560","2024-07-23 09:45:00","10.107","3.27853","24.753","3.263","7.59","1.974","2.852","0.3","0.18","29.5314","4.66933","35","0","SATNPRO1962","25.01","0.3503","5"],
    [28715,"HCEP03730560","2024-07-23 10:00:00","10.1122","3.27959","24.5","3.258","7.59","1.969","3.209","0.36","0.21","29.5378","4.67016","34.95","0","SATNPRO1962","24.852","0.3481","5"],
    [28716,"HCEP03730560","2024-07-23 10:15:00","10.1211","3.28093","24.289","3.275","7.59","2.08","3.601","0.35","0.19","29.5441","4.67089","35.13","0","SATNPRO1962","24.482","0.34288","5"],
    [28717,"HCEP03730560","2024-07-23 10:30:00","10.1282","3.28206","24.062","3.311","7.59","2.76","4.698","0.53","0.37","29.5496","4.67154","35.53","0","SATNPRO1962","24.605999999999998","0.34466","5"],
    [28718,"HCEP03730560","2024-07-23 10:45:00","10.1281","3.28191","23.855","3.327","7.6","2.512","3.732","0.57","0.32","29.5483","4.67135","35.7","0","SATNPRO1962","24.558","0.344","5"],
    [28719,"HCEP03730560","2024-07-23 11:00:00","10.1288","3.2819","23.697","3.323","7.6","2.472","3.858","0.6","0.44","29.5477","4.67124","35.66","0","SATNPRO1962","24.419999999999998","0.34206","5"],
    [28720,"HCEP03730560","2024-07-23 11:15:00","10.1227","3.28091","23.61","3.332","7.6","1.987","2.937","0.44","0.15","29.5428","4.67063","35.76","0","SATNPRO1962","24.616","0.34478","5"],
    [28721,"HCEP03730560","2024-07-23 11:30:00","10.1287","3.28178","23.55","3.315","7.59","2.536","3.802","0.68","0.31","29.5466","4.67108","35.57","0","SATNPRO1962","24.509999999999998","0.34334","5"],
    [28722,"HCEP03730560","2024-07-23 11:45:00","10.1207","3.28068","23.533","3.269","7.59","2.3","3.376","0.81","0.35","29.5422","4.67058","35.07","0","SATNPRO1962","24.470000000000002","0.34274","5"],
    [28723,"HCEP03730560","2024-07-23 12:00:00","10.1173","3.28033","23.573","3.227","7.59","2.158","3.45","0.47","0.26","29.5415","4.67054","34.62","0","SATNPRO1962","24.392","0.3416","5"],
    [28724,"HCEP03730560","2024-07-23 12:15:00","10.1143","3.27981","23.623","3.176","7.58","2.35","3.271","0.44","0.23","29.5387","4.67019","34.07","0","SATNPRO1962","24.304","0.34042","5"],
    [28725,"HCEP03730560","2024-07-23 12:30:00","10.118","3.28025","23.68","3.139","7.58","2.376","3.818","0.51","0.32","29.54","4.67031","33.67","0","SATNPRO1962","24.323999999999998","0.34068","5"],
    [28726,"HCEP03730560","2024-07-23 12:45:00","10.1073","3.27887","23.755","3.089","7.57","2.317","3.311","0.64","0.3","29.5349","4.66978","33.13","0","SATNPRO1962","24.134","0.33804","5"],
    [28727,"HCEP03730560","2024-07-23 13:00:00","10.1009","3.27815","23.862","2.996","7.57","2.084","3.193","0.48","0.27","29.533","4.66961","32.13","0","SATNPRO1962","24.114","0.33776","5"],
    [28728,"HCEP03730560","2024-07-23 13:15:00","10.0992","3.27819","24.005","2.947","7.56","2.486","3.436","0.54","0.39","29.5347","4.66989","31.61","0","SATNPRO1962","24.336000000000002","0.34088","5"],
    [28729,"HCEP03730560","2024-07-23 13:30:00","10.0898","3.27699","24.176","2.956","7.56","2.009","3.032","0.52","0.23","29.5303","4.66942","31.69","0","SATNPRO1962","24.138","0.33808","5"],
    [28730,"HCEP03730560","2024-07-23 13:45:00","10.103","3.27853","24.36","2.976","7.57","2.232","3.296","0.61","0.4","29.5348","4.66987","31.92","0","SATNPRO1962","24.24","0.33954","5"],
    [28731,"HCEP03730560","2024-07-23 14:00:00","10.109","3.27946","24.541","3.051","7.57","2.266","3.593","0.55","0.27","29.5391","4.67039","32.73","0","SATNPRO1962","24.244","0.33956","5"],
    [28732,"HCEP03730560","2024-07-23 14:15:00","10.1095","3.2795","24.775","3.114","7.58","2.131","3.311","0.6","0.32","29.539","4.67039","33.4","0","SATNPRO1962","24.534","0.34364","5"],
    [28733,"HCEP03730560","2024-07-23 14:30:00","10.1155","3.28006","25.008","3.173","7.58","2.369","4.033","0.49","1.2","29.5396","4.67038","34.04","0","SATNPRO1962","24.626","0.34496","5"],
    [28734,"HCEP03730560","2024-07-23 14:45:00","10.1671","3.28348","25.258","3.469","7.61","5.166","6.973","0.51","0.88","29.5315","4.66839","37.26","0","SATNPRO1962","24.996","0.3501","5"],
    [28735,"HCEP03730560","2024-07-23 15:00:00","10.1608","3.28324","25.447","3.594","7.61","5.285","7.907","0.66","0.57","29.534300000000002","4.6689","38.59","0","SATNPRO1962","25.22","0.35324","5"],
    [28736,"HCEP03730560","2024-07-23 15:15:00","10.1585","3.2831","25.687","3.571","7.61","5.373","7.329","0.76","0.73","29.5347","4.669","38.34","0","SATNPRO1962","25.128","0.35194","5"],
    [28737,"HCEP03730560","2024-07-23 15:30:00","10.1594","3.28318","25.906","3.561","7.61","4.762","6.353","0.41","0.41","29.5347","4.669","38.24","0","SATNPRO1962","25.076","0.35126","5"],
    [28738,"HCEP03730560","2024-07-23 15:45:00","10.1587","3.28315","26.111","3.553","7.61","4.629","5.452","0.53","0.21","29.5348","4.66904","38.15","0","SATNPRO1962","25.06","0.35098","5"],
    [28739,"HCEP03730560","2024-07-23 16:00:00","10.1555","3.28291","26.343","3.537","7.61","5.696","6.338","0.7","0.65","29.535","4.66913","37.97","0","SATNPRO1962","25.024","0.35048","5"],
    [28740,"HCEP03730560","2024-07-23 16:15:00","10.1583","3.28296","26.616","3.521","7.61","6.638","9.798","1.36","0.97","29.533","4.66883","37.81","0","SATNPRO1962","24.964","0.34966","5"],
    [28741,"HCEP03730560","2024-07-23 16:30:00","10.1553","3.2826","26.875","3.495","7.61","5.053","7.089","1.08","1","29.5317","4.6687","37.53","0","SATNPRO1962","24.982","0.34992","5"],
    [28742,"HCEP03730560","2024-07-23 16:45:00","10.147","3.28171","27.099","3.428","7.6","3.983","4.88","0.64","0.33","29.5296","4.66854","36.8","0","SATNPRO1962","24.746","0.34658","5"],
    [28743,"HCEP03730560","2024-07-23 17:00:00","10.1385","3.28103","27.312","3.33","7.59","3.211","4.291","0.45","0.35","29.5297","4.66872","35.73","0","SATNPRO1962","24.552","0.3439","5"],
    [28744,"HCEP03730560","2024-07-23 17:15:00","10.1329","3.28085","27.367","3.26","7.59","3.156","4.594","0.33","0.25","29.5324","4.66919","34.98","0","SATNPRO1962","24.332","0.34082","5"],
    [28745,"HCEP03730560","2024-07-23 17:30:00","10.12","3.27957","27.522","3.116","7.58","2.866","4.41","0.42","0.24","29.5301","4.66909","33.43","0","SATNPRO1962","24.282","0.3401","5"],
    [28746,"HCEP03730560","2024-07-23 17:45:00","10.1084","3.2784","27.686","3.011","7.57","3.167","4.6","0.63","0.27","29.5278","4.66896","32.29","0","SATNPRO1962","24.012","0.33636","5"],
    [28747,"HCEP03730560","2024-07-23 18:00:00","10.1008","3.27753","27.813","2.924","7.56","2.64","4.19","0.28","0.3","29.5253","4.66874","31.35","0","SATNPRO1962","24.078","0.33724","5"],
    [28748,"HCEP03730560","2024-07-23 18:15:00","10.1289","3.27986","27.944","3.036","7.57","2.867","3.418","0.61","0.31","29.5256","4.66833","32.58","0","SATNPRO1962","24.419999999999998","0.34206","5"],
    [28749,"HCEP03730560","2024-07-23 18:30:00","10.131","3.27963","27.999","3.106","7.57","2.732","3.718","0.51","0.65","29.5215","4.66771","33.32","0","SATNPRO1962","24.338","0.34088","5"],
    [28750,"HCEP03730560","2024-07-23 18:45:00","10.1451","3.28089","28.044","3.185","7.58","2.908","3.367","0.42","0.29","29.5227","4.66765","34.18","0","SATNPRO1962","24.44","0.34234","5"],
    [28751,"HCEP03730560","2024-07-23 19:00:00","10.1341","3.27986","27.99","3.202","7.58","3.055","3.774","0.6","0.41","29.5214","4.66764","34.36","0","SATNPRO1962","24.206","0.33902","5"],
    [28752,"HCEP03730560","2024-07-23 19:15:00","10.1219","3.27971","28.004","3.104","7.57","3.123","3.605","0.42","0.25","29.5297","4.66903","33.3","0","SATNPRO1962","24.112","0.33776","5"],
    [28753,"HCEP03730560","2024-07-23 19:30:00","10.1123","3.27858","27.976","3.028","7.57","2.705","3.65","0.46","0.19","29.5263","4.66871","32.48","0","SATNPRO1962","24.14","0.3381","5"],
    [28754,"HCEP03730560","2024-07-23 19:45:00","10.110900000000001","3.27854","28.001","2.966","7.56","2.592","3.352","0.42","0.24","29.527","4.66883","31.81","0","SATNPRO1962","24.184","0.33874","5"],
    [28755,"HCEP03730560","2024-07-23 20:00:00","10.1192","3.27923","27.954","2.985","7.57","2.743","3.311","0.56","0.27","29.5272","4.66871","32.02","0","SATNPRO1962","24.242","0.33954","5"],
    [28756,"HCEP03730560","2024-07-23 20:15:00","10.125","3.27986","27.898","3.057","7.57","2.554","3.2","0.47","0.35","29.5287","4.66883","32.8","0","SATNPRO1962","24.073999999999998","0.33716","5"],
    [28757,"HCEP03730560","2024-07-23 20:30:00","10.1237","3.28015","27.864","3.083","7.57","2.836","3.195","0.65","0.2","29.5327","4.66942","33.08","0","SATNPRO1962","24.306","0.34046","5"],
    [28758,"HCEP03730560","2024-07-23 20:45:00","10.1115","3.2789","27.751","3.05","7.56","2.524","3.218","0.47","0.18","29.5302","4.66927","32.71","0","SATNPRO1962","24.116","0.33774","5"],
    [28759,"HCEP03730560","2024-07-23 21:00:00","10.1162","3.27947","27.715","2.989","7.57","2.517","3.275","0.36","0.19","29.5321","4.66946","32.07","0","SATNPRO1962","24.252","0.33968","5"],
    [28760,"HCEP03730560","2024-07-23 21:15:00","10.1307","3.28076","27.523","3.091","7.58","2.394","3.068","0.28","0.21","29.5332","4.66936","33.17","0","SATNPRO1962","24.512","0.34332","5"],
    [28761,"HCEP03730560","2024-07-23 21:30:00","10.1436","3.28173","27.443","3.208","7.58","3.136","3.406","0.61","0.19","29.5324","4.66903","34.43","0","SATNPRO1962","24.631999999999998","0.34504","5"],
    [28762,"HCEP03730560","2024-07-23 21:45:00","10.1385","3.28141","27.339","3.21","7.58","3.772","4.184","0.54","0.18","29.5334","4.66925","34.45","0","SATNPRO1962","24.404","0.34184","5"],
    [28763,"HCEP03730560","2024-07-23 22:00:00","10.1383","3.28144","27.197","3.166","7.58","3.508","4.18","0.44","0.15","29.534","4.66932","33.98","0","SATNPRO1962","24.436","0.34228","5"],
    [28764,"HCEP03730560","2024-07-23 22:15:00","10.1374","3.28132","27.117","3.149","7.58","3.316","4.065","0.36","0.33","29.5336","4.66927","33.8","0","SATNPRO1962","24.35","0.34104","5"],
    [28765,"HCEP03730560","2024-07-23 22:30:00","10.1243","3.28015","26.996","3.071","7.57","2.654","3.539","0.52","0.17","29.5325","4.66934","32.95","0","SATNPRO1962","24.126","0.33792","5"],
    [28766,"HCEP03730560","2024-07-23 22:45:00","10.1361","3.28097","26.849","3.124","7.58","2.678","3.256","0.39","0.26","29.5312","4.66895","33.53","0","SATNPRO1962","24.366","0.34126","5"],
    [28767,"HCEP03730560","2024-07-23 23:00:00","10.1422","3.28136","26.748","3.214","7.58","2.68","3.026","0.38","0.22","29.5302","4.66869","34.5","0","SATNPRO1962","24.546","0.3438","5"],
    [28768,"HCEP03730560","2024-07-23 23:15:00","10.0929","3.2756","26.594","3.017","7.55","2.725","3.631","0.43","0.19","29.513","4.66705","32.34","0","SATNPRO1962","24.056","0.33694","5"],
    [28769,"HCEP03730560","2024-07-23 23:30:00","10.0744","3.27369","26.468","2.626","7.54","2.207","3.358","0.27","0.22","29.509","4.66678","28.14","0","SATNPRO1962","23.804","0.33344","5"],
    [28770,"HCEP03730560","2024-07-23 23:45:00","10.0666","3.27302","26.353","2.555","7.53","2.08","3.483","0.22","0.23","29.5087","4.66687","27.38","0","SATNPRO1962","23.778","0.33304","5"],
    [28771,"HCEP03730560","2024-07-24 00:00:00","10.0569","3.27211","26.254","2.448","7.52","1.914","3.228","0.3","0.26","29.5076","4.66686","26.23","0","SATNPRO1962","23.484","0.3289","5"],
    [28772,"HCEP03730560","2024-07-24 00:15:00","10.0455","3.2706","26.164","2.302","7.5","1.819","3.307","0.21","0.19","29.5018","4.66622","24.65","0","SATNPRO1962","23.404","0.32778","5"],
    [28773,"HCEP03730560","2024-07-24 00:30:00","10.0376","3.27017","26.066","2.235","7.5","1.866","3.047","0.35","0.14","29.5041","4.66667","23.93","0","SATNPRO1962","23.29","0.3262","5"],
    [28774,"HCEP03730560","2024-07-24 00:45:00","10.0596","3.27211","26.023","2.286","7.51","1.887","3.234","0.34","0.36","29.5055","4.66651","24.49","0","SATNPRO1962","23.556","0.3299","5"],
    [28775,"HCEP03730560","2024-07-24 01:00:00","10.072","3.2737","26.061","2.438","7.52","2.05","3.386","0.5","0.45","29.5112","4.66711","26.12","0","SATNPRO1962","23.714","0.3322","5"],
    [28776,"HCEP03730560","2024-07-24 01:15:00","10.0783","3.27447","26.068","2.548","7.52","2.174","3.262","0.36","0.21","29.5137","4.66737","27.31","0","SATNPRO1962","23.81","0.3335","5"],
    [28777,"HCEP03730560","2024-07-24 01:30:00","10.0837","3.27496","26.119","2.61","7.53","2.205","3.401","0.29","0.31","29.5143","4.66736","27.97","0","SATNPRO1962","23.9","0.33476","5"],
    [28778,"HCEP03730560","2024-07-24 01:45:00","10.0901","3.27566","26.158","2.653","7.53","2.317","3.143","0.4","0.21","29.516","4.6675","28.44","0","SATNPRO1962","23.888","0.33458","5"],
    [28779,"HCEP03730560","2024-07-24 02:00:00","10.1027","3.27703","26.186","2.735","7.54","2.45","3.388","0.37","0.22","29.5194","4.66778","29.33","0","SATNPRO1962","23.91","0.3349","5"],
    [28780,"HCEP03730560","2024-07-24 02:15:00","10.119","3.27882","26.304","2.871","7.55","2.676","3.28","0.36","0.27","29.5239","4.66815","30.8","0","SATNPRO1962","24.128","0.33794","5"],
    [28781,"HCEP03730560","2024-07-24 02:30:00","10.1296","3.28004","26.377","2.99","7.56","2.815","3.387","0.69","0.21","29.5274","4.66848","32.09","0","SATNPRO1962","24.352","0.34112","5"],
    [28782,"HCEP03730560","2024-07-24 02:45:00","10.1371","3.2808","26.438","3.078","7.57","2.667","3.059","0.43","0.22","29.5289","4.66857","33.03","0","SATNPRO1962","24.43","0.34222","5"],
    [28783,"HCEP03730560","2024-07-24 03:00:00","10.1358","3.28073","26.53","3.106","7.57","2.697","3.373","0.96","0.32","29.5292","4.66865","33.34","0","SATNPRO1962","24.27","0.33992","5"],
    [28784,"HCEP03730560","2024-07-24 03:15:00","10.1345","3.28077","26.662","3.085","7.57","2.661","3.21","0.62","0.23","29.5306","4.66888","33.1","0","SATNPRO1962","24.19","0.33884","5"],
    [28785,"HCEP03730560","2024-07-24 03:30:00","10.1337","3.28079","26.726","3.072","7.57","2.502","3.401","0.39","0.3","29.5314","4.66901","32.96","0","SATNPRO1962","24.432","0.3422","5"],
    [28786,"HCEP03730560","2024-07-24 03:45:00","10.1327","3.28073","26.838","3.063","7.57","2.997","3.288","0.54","0.28","29.5316","4.66906","32.86","0","SATNPRO1962","24.03","0.3366","5"],
    [28787,"HCEP03730560","2024-07-24 04:00:00","10.1295","3.28055","26.92","3.038","7.57","2.162","3.352","0.45","0.2","29.5324","4.66923","32.6","0","SATNPRO1962","24.12","0.33784","5"],
    [28788,"HCEP03730560","2024-07-24 04:15:00","10.1269","3.28037","27.008","3.011","7.56","2.57","3.796","0.52","0.54","29.5327","4.66932","32.3","0","SATNPRO1962","23.98","0.33588","5"],
    [28789,"HCEP03730560","2024-07-24 04:30:00","10.1229","3.28001","27.089","2.979","7.56","2.441","3.985","0.64","0.43","29.5323","4.66933","31.96","0","SATNPRO1962","24.082","0.3373","5"],
    [28790,"HCEP03730560","2024-07-24 04:45:00","10.1105","3.27861","27.187","2.922","7.56","2.416","3.582","0.61","0.51","29.5284","4.66899","31.34","0","SATNPRO1962","24.099999999999998","0.33762","5"],
    [28791,"HCEP03730560","2024-07-24 05:00:00","10.1038","3.27792","27.262","2.849","7.55","2.279","3.824","0.56","0.72","29.527","4.6689","30.56","0","SATNPRO1962","23.98","0.33582","5"],
    [28792,"HCEP03730560","2024-07-24 05:15:00","10.0992","3.27731","27.351","2.796","7.55","2.261","3.534","0.61","0.42","29.5246","4.66865","29.99","0","SATNPRO1962","23.826","0.33372","5"],
    [28793,"HCEP03730560","2024-07-24 05:30:00","10.0988","3.27729","27.418","2.765","7.54","2.093","3.913","0.28","0.32","29.5247","4.66867","29.65","0","SATNPRO1962","23.992","0.33606","5"],
    [28794,"HCEP03730560","2024-07-24 05:45:00","10.1004","3.2775","27.471","2.774","7.55","2.383","4.013","0.52","0.41","29.5254","4.66875","29.74","0","SATNPRO1962","23.922","0.33504","5"],
    [28795,"HCEP03730560","2024-07-24 06:00:00","10.098","3.27729","27.497","2.782","7.54","2.015","3.887","0.34","0.5","29.5253","4.66878","29.83","0","SATNPRO1962","23.964","0.33566","5"],
    [28796,"HCEP03730560","2024-07-24 06:15:00","10.1059","3.27826","27.447","2.806","7.55","2.151","3.934","0.33","0.89","29.5286","4.66911","30.1","0","SATNPRO1962","23.964","0.33568","5"],
    [28797,"HCEP03730560","2024-07-24 06:30:00","10.1069","3.27834","27.434","2.828","7.55","2.175","3.878","0.32","0.74","29.5285","4.66908","30.33","0","SATNPRO1962","24.076","0.33718","5"],
    [28798,"HCEP03730560","2024-07-24 06:45:00","10.0822","3.27511","27.406","2.723","7.53","1.688","2.773","0.46","0.18","29.5164","4.66776","29.19","0","SATNPRO1962","23.96","0.33562","5"],
    [28799,"HCEP03730560","2024-07-24 07:00:00","10.0901","3.27623","27.348","2.662","7.54","1.65","3.141","0.33","0.37","29.5212","4.66831","28.54","0","SATNPRO1962","23.872","0.33434","5"],
    [28800,"HCEP03730560","2024-07-24 07:15:00","10.0975","3.2772","27.278","2.706","7.54","1.898","3.333","0.58","0.43","29.525","4.66872","29.02","0","SATNPRO1962","23.948","0.33542","5"],
    [28801,"HCEP03730560","2024-07-24 07:30:00","10.1688","3.28641","27.18","3.147","7.6","2.041","2.889","0.57","0.35","29.5587","4.67234","33.81","0","SATNPRO1962","25.13","0.352","5"],
    [28802,"HCEP03730560","2024-07-24 07:45:00","10.1522","3.28419","27.075","3.507","7.6","1.894","2.346","0.57","0.29","29.5501","4.67139","37.66","0","SATNPRO1962","24.944","0.34936","5"],
    [28803,"HCEP03730560","2024-07-24 08:00:00","10.1839","3.28814","26.912","3.645","7.63","2.109","2.573","0.57","0.28","29.5637","4.67279","39.17","0","SATNPRO1962","25.378","0.35546","5"],
    [28804,"HCEP03730560","2024-07-24 08:15:00","10.1675","3.28603","26.747","3.713","7.62","1.758","2.793","0.31","0.75","29.5561","4.67197","39.88","0","SATNPRO1962","25.008","0.3503","5"],
    [28805,"HCEP03730560","2024-07-24 08:30:00","10.1495","3.28382","26.571","3.567","7.61","1.987","2.323","0.73","0.2","29.5488","4.67121","38.3","0","SATNPRO1962","24.849999999999998","0.34804","5"],
    [28806,"HCEP03730560","2024-07-24 08:45:00","10.1434","3.28294","26.396","3.38","7.6","2.034","2.717","0.43","0.3","29.5451","4.67078","36.29","0","SATNPRO1962","24.334","0.34086","5"],
    [28807,"HCEP03730560","2024-07-24 09:00:00","10.1337","3.28161","26.212","3.227","7.58","2.216","3.438","0.51","0.29","29.5398","4.67017","34.63","0","SATNPRO1962","24.414","0.34196","5"],
    [28808,"HCEP03730560","2024-07-24 09:15:00","10.1317","3.28127","25.989","3.132","7.58","1.889","2.972","0.41","0.26","29.5381","4.66995","33.61","0","SATNPRO1962","24.436","0.34228","5"],
    [28809,"HCEP03730560","2024-07-24 09:30:00","10.1306","3.28116","25.796","3.089","7.57","2.35","3.991","0.65","0.3","29.538","4.66994","33.15","0","SATNPRO1962","24.436","0.34226","5"],
    [28810,"HCEP03730560","2024-07-24 09:45:00","10.1327","3.28135","25.571","3.095","7.58","2.108","2.837","0.47","0.16","29.5383","4.66994","33.22","0","SATNPRO1962","24.498","0.3431","5"],
    [28811,"HCEP03730560","2024-07-24 10:00:00","10.1333","3.28147","25.362","3.096","7.57","2.524","4.817","1.17","2","29.5391","4.67004","33.22","0","SATNPRO1962","24.422","0.34208","5"],
    [28812,"HCEP03730560","2024-07-24 10:15:00","10.1332","3.28146","25.174","3.069","7.57","2.643","4.379","0.46","0.31","29.5391","4.67003","32.94","0","SATNPRO1962","24.216","0.33918","5"],
    [28813,"HCEP03730560","2024-07-24 10:30:00","10.1342","3.28162","24.952","3.078","7.57","2.263","3.701","0.67","0.54","29.54","4.67012","33.03","0","SATNPRO1962","24.388","0.34158","5"],
    [28814,"HCEP03730560","2024-07-24 10:45:00","10.1492","3.28369","24.735","3.185","7.59","2.174","3.235","0.37","0.23","29.5484","4.67107","34.2","0","SATNPRO1962","24.574","0.34422","5"],
    [28815,"HCEP03730560","2024-07-24 11:00:00","10.1552","3.28487","24.482","3.34","7.6","2.399","3.426","0.63","0.26","29.5554","4.67195","35.87","0","SATNPRO1962","24.68","0.34568","5"],
    [28816,"HCEP03730560","2024-07-24 11:15:00","10.1397","3.28228","24.276","3.322","7.59","1.681","2.635","0.39","0.16","29.5423","4.67033","35.66","0","SATNPRO1962","24.608","0.34466","5"],
    [28817,"HCEP03730560","2024-07-24 11:30:00","10.146","3.28327","24.153","3.261","7.59","2.147","3.195","0.62","0.29","29.5472","4.6709","35.01","0","SATNPRO1962","24.669999999999998","0.34554","5"],
    [28818,"HCEP03730560","2024-07-24 11:45:00","10.1333","3.28147","23.968","3.203","7.58","1.676","2.677","0.24","0.15","29.5397","4.67004","34.37","0","SATNPRO1962","24.408","0.34186","5"],
    [28819,"HCEP03730560","2024-07-24 12:00:00","10.1416","3.28266","23.851","3.171","7.58","1.817","3.12","0.31","0.64","29.5447","4.67061","34.04","0","SATNPRO1962","24.576","0.34422","5"],
    [28820,"HCEP03730560","2024-07-24 12:15:00","10.1469","3.28331","23.839","3.239","7.59","2.144","3.028","0.91","0.21","29.5469","4.67083","34.77","0","SATNPRO1962","24.672","0.34562","5"],
    [28821,"HCEP03730560","2024-07-24 12:30:00","10.1638","3.28575","23.784","3.38","7.61","1.997","2.937","0.38","0.24","29.5575","4.67207","36.3","0","SATNPRO1962","25.114","0.35178","5"],
    [28822,"HCEP03730560","2024-07-24 12:45:00","10.18","3.28823","23.819","3.604","7.62","2.73","3.603","0.49","0.24","29.569","4.67344","38.72","0","SATNPRO1962","25.384","0.3556","5"],
    [28823,"HCEP03730560","2024-07-24 13:00:00","10.1838","3.28873","23.846","3.763","7.63","2.443","3.67","0.44","0.27","29.5709","4.67365","40.44","0","SATNPRO1962","25.23","0.35336","5"],
    [28824,"HCEP03730560","2024-07-24 13:15:00","10.1862","3.2892","23.919","3.817","7.64","2.913","3.422","0.96","0.37","29.5735","4.67399","41.02","0","SATNPRO1962","25.488","0.357","5"],
    [28825,"HCEP03730560","2024-07-24 13:30:00","10.1927","3.29004","23.995","3.909","7.65","2.373","3.554","0.41","0.32","29.5766","4.67432","42.02","0","SATNPRO1962","25.564","0.35808","5"],
    [28826,"HCEP03730560","2024-07-24 13:45:00","10.1961","3.29071","24.134","3.983","7.66","2.295","3.321","0.27","0.34","29.5805","4.67483","42.81","0","SATNPRO1962","25.772","0.36098","5"],
    [28827,"HCEP03730560","2024-07-24 14:00:00","10.1966","3.29103","24.244","4.032","7.66","2.557","4.017","0.46","0.45","29.5831","4.67521","43.35","0","SATNPRO1962","25.944","0.36336","5"],
    [28828,"HCEP03730560","2024-07-24 14:15:00","10.1963","3.29139","24.345","4.116","7.67","1.966","2.962","0.38","0.37","29.5869","4.67576","44.25","0","SATNPRO1962","26.23","0.36744","5"],
    [28829,"HCEP03730560","2024-07-24 14:30:00","10.1973","3.2914","24.534","4.175","7.67","1.992","3.044","0.34","0.27","29.5861","4.67564","44.88","0","SATNPRO1962","26.25","0.36766","5"],
    [28830,"HCEP03730560","2024-07-24 14:45:00","10.1979","3.29156","24.688","4.168","7.67","2.101","3.39","0.37","0.36","29.5872","4.67579","44.81","0","SATNPRO1962","26.166","0.36648","5"],
    [28831,"HCEP03730560","2024-07-24 15:00:00","10.1986","3.29166","24.941","4.157","7.67","1.988","3.374","0.27","0.29","29.5875","4.67584","44.7","0","SATNPRO1962","26.148","0.36622","5"],
    [28832,"HCEP03730560","2024-07-24 15:15:00","10.2006","3.2921","25.121","4.189","7.68","1.932","3.144","0.35","0.32","29.5902","4.6762","45.03","0","SATNPRO1962","26.314","0.3686","5"],
    [28833,"HCEP03730560","2024-07-24 15:30:00","10.2005","3.2918","25.337","4.213","7.68","1.617","2.597","0.31","0.43","29.5872","4.67579","45.3","0","SATNPRO1962","26.394","0.36968","5"],
    [28834,"HCEP03730560","2024-07-24 15:45:00","10.1992","3.29137","25.649","4.187","7.68","1.695","2.279","0.37","0.19","29.5839","4.67535","45.01","0","SATNPRO1962","26.34","0.36894","5"],
    [28835,"HCEP03730560","2024-07-24 16:00:00","10.1649","3.28608","25.879","3.918","7.64","1.332","2.088","0.28","0.11","29.5591","4.67239","42.09","0","SATNPRO1962","25.18","0.35272","5"],
    [28836,"HCEP03730560","2024-07-24 16:15:00","10.197","3.29055","26.184","3.87","7.66","1.744","2.427","0.37","0.17","29.5773","4.67448","41.6","0","SATNPRO1962","25.926","0.36312","5"],
    [28837,"HCEP03730560","2024-07-24 16:30:00","10.1994","3.29097","26.359","4.02","7.66","2.08","3.2","0.45","0.56","29.5795","4.67476","43.22","0","SATNPRO1962","25.644","0.35916","5"],
    [28838,"HCEP03730560","2024-07-24 16:45:00","10.1943","3.28959","26.627","3.931","7.65","2.736","3.974","0.52","0.64","29.5697","4.67346","42.25","0","SATNPRO1962","25.366","0.35528","5"],
    [28839,"HCEP03730560","2024-07-24 17:00:00","10.1842","3.28806","26.886","3.713","7.63","3.046","5.296","0.44","0.35","29.5627","4.67264","39.9","0","SATNPRO1962","25.144000000000002","0.35222","5"],
    [28840,"HCEP03730560","2024-07-24 17:15:00","10.1746","3.28616","27.047","3.493","7.62","3.263","4.57","0.34","0.18","29.5515","4.67121","37.52","0","SATNPRO1962","24.948","0.34942","5"],
    [28841,"HCEP03730560","2024-07-24 17:30:00","10.1788","3.28694","27.242","3.513","7.62","3.1","5.127","0.38","0.25","29.5557","4.67176","37.75","0","SATNPRO1962","24.994","0.35008","5"],
    [28842,"HCEP03730560","2024-07-24 17:45:00","10.1931","3.28991","27.429","3.719","7.64","2.705","4.417","0.36","0.23","29.5735","4.67407","39.97","0","SATNPRO1962","25.476","0.35682","5"],
    [28843,"HCEP03730560","2024-07-24 18:00:00","10.2005","3.29136","27.55","3.984","7.66","2.203","3.652","0.38","0.29","29.582","4.67517","42.83","0","SATNPRO1962","25.776","0.36102","5"],
    [28844,"HCEP03730560","2024-07-24 18:15:00","10.2011","3.29145","27.731","4.057","7.66","1.893","3.169","0.21","0.18","29.5823","4.67521","43.62","0","SATNPRO1962","25.988","0.364","5"],
    [28845,"HCEP03730560","2024-07-24 18:30:00","10.2","3.29108","27.805","4.068","7.66","1.765","2.939","0.24","0.15","29.5795","4.67484","43.74","0","SATNPRO1962","25.876","0.36246","5"],
    [28846,"HCEP03730560","2024-07-24 18:45:00","10.1789","3.28711","27.935","3.821","7.64","1.142","1.847","0.16","0.09","29.5571","4.67199","41.06","0","SATNPRO1962","25.282","0.35408","5"],
    [28847,"HCEP03730560","2024-07-24 19:00:00","10.1726","3.28577","28.008","3.604","7.63","1.1","1.762","0.18","0.07","29.5488","4.67092","38.71","0","SATNPRO1962","25.354","0.35512","5"],
    [28848,"HCEP03730560","2024-07-24 19:15:00","10.1915","3.28941","28.016","3.826","7.65","1.45","2.369","0.21","0.08","29.5697","4.67359","41.12","0","SATNPRO1962","25.822","0.36166","5"],
    [28849,"HCEP03730560","2024-07-24 19:30:00","10.1958","3.29041","28.054","3.96","7.65","1.749","3.638","0.21","0.23","29.5761","4.67444","42.57","0","SATNPRO1962","25.798000000000002","0.36132","5"],
    [28850,"HCEP03730560","2024-07-24 19:45:00","10.1975","3.29101","28.042","3.998","7.66","1.97","4.382","0.23","0.25","29.5807","4.67506","42.98","0","SATNPRO1962","25.838","0.3619","5"],
    [28851,"HCEP03730560","2024-07-24 20:00:00","10.2036","3.2923","27.999","4.159","7.67","1.381","2.454","0.23","0.07","29.5886","4.67609","44.71","0","SATNPRO1962","26.346","0.36902","5"],
    [28852,"HCEP03730560","2024-07-24 20:15:00","10.2033","3.29237","27.958","4.192","7.68","1.41","2.38","0.2","0.09","29.5895","4.67622","45.08","0","SATNPRO1962","26.259999999999998","0.36778","5"],
    [28853,"HCEP03730560","2024-07-24 20:30:00","10.2031","3.29231","27.96","4.2","7.68","1.366","2.394","0.15","0.11","29.5891","4.67617","45.16","0","SATNPRO1962","26.314","0.36856","5"],
    [28854,"HCEP03730560","2024-07-24 20:45:00","10.2024","3.29193","27.906","4.16","7.67","1.487","2.634","0.22","0.11","29.5859","4.67572","44.73","0","SATNPRO1962","26.134","0.36608","5"],
    [28855,"HCEP03730560","2024-07-24 21:00:00","10.2008","3.29144","27.846","4.085","7.67","1.693","3.289","0.21","0.13","29.5824","4.67524","43.91","0","SATNPRO1962","25.87","0.36236","5"],
    [28856,"HCEP03730560","2024-07-24 21:15:00","10.201","3.29127","27.755","4.013","7.66","1.604","3.022","0.17","0.08","29.5806","4.67498","43.14","0","SATNPRO1962","25.814","0.36156","5"],
    [28857,"HCEP03730560","2024-07-24 21:30:00","10.2018","3.29128","27.647","4.035","7.66","1.425","2.735","0.2","0.09","29.5801","4.67488","43.38","0","SATNPRO1962","25.872","0.3624","5"],
    [28858,"HCEP03730560","2024-07-24 21:45:00","10.2015","3.29117","27.542","4.049","7.66","1.404","2.54","0.18","0.08","29.5792","4.67476","43.53","0","SATNPRO1962","25.98","0.36388","5"],
    [28859,"HCEP03730560","2024-07-24 22:00:00","10.1981","3.29054","27.436","3.957","7.66","1.427","2.764","0.24","0.1","29.5757","4.67431","42.54","0","SATNPRO1962","25.638","0.3591","5"],
    [28860,"HCEP03730560","2024-07-24 22:15:00","10.1978","3.2904","27.304","3.937","7.65","1.535","2.663","0.2","0.07","29.5747","4.67416","42.32","0","SATNPRO1962","25.644","0.35916","5"],
    [28861,"HCEP03730560","2024-07-24 22:30:00","10.1955","3.29006","27.238","3.883","7.65","1.463","2.948","0.18","0.07","29.5732","4.67397","41.74","0","SATNPRO1962","25.718","0.36022","5"],
    [28862,"HCEP03730560","2024-07-24 22:45:00","10.1934","3.28973","27.029","3.836","7.64","1.529","2.891","0.18","0.06","29.5717","4.67378","41.23","0","SATNPRO1962","25.57","0.35816","5"],
    [28863,"HCEP03730560","2024-07-24 23:00:00","10.1921","3.28956","26.985","3.802","7.64","1.535","2.955","0.2","0.08","29.5711","4.67372","40.87","0","SATNPRO1962","25.428","0.35614","5"],
    [28864,"HCEP03730560","2024-07-24 23:15:00","10.2072","3.29064","26.786","3.868","7.65","1.824","3.659","0.22","0.13","29.5697","4.67326","41.59","0","SATNPRO1962","25.466","0.35668","5"],
    [28865,"HCEP03730560","2024-07-24 23:30:00","10.2087","3.29074","26.606","3.964","7.65","1.636","3.098","0.19","0.11","29.5695","4.6732","42.62","0","SATNPRO1962","25.632","0.359","5"],
    [28866,"HCEP03730560","2024-07-24 23:45:00","10.2052","3.29052","26.49","3.885","7.65","1.657","3.068","0.22","0.1","29.5702","4.67335","41.77","0","SATNPRO1962","25.506","0.35724","5"],
    [28867,"HCEP03730560","2024-07-25 00:00:00","10.2016","3.29031","26.344","3.832","7.64","1.559","2.933","0.23","0.1","29.5711","4.67352","41.19","0","SATNPRO1962","25.272","0.35402","5"],
    [28868,"HCEP03730560","2024-07-25 00:15:00","10.1991","3.29012","26.176","3.863","7.64","1.73","3.466","0.2","0.1","29.5712","4.67357","41.52","0","SATNPRO1962","25.272000000000002","0.35398","5"],
    [28869,"HCEP03730560","2024-07-25 00:30:00","10.2114","3.29117","26.051","4.007","7.66","1.514","2.396","0.23","0.05","29.5717","4.67343","43.09","0","SATNPRO1962","25.85","0.36208","5"],
    [28870,"HCEP03730560","2024-07-25 00:45:00","10.2181","3.29183","25.936","4.047","7.66","1.527","2.04","0.19","0.06","29.5729","4.6735","43.52","0","SATNPRO1962","25.902","0.3628","5"],
    [28871,"HCEP03730560","2024-07-25 01:00:00","10.2191","3.29167","25.807","4.129","7.67","1.492","1.961","0.28","0.07","29.5706","4.67314","44.4","0","SATNPRO1962","25.866","0.36232","5"],
    [28872,"HCEP03730560","2024-07-25 01:15:00","10.2311","3.29296","25.678","4.194","7.68","1.487","1.68","0.22","0.1","29.5736","4.67336","45.11","0","SATNPRO1962","25.946","0.36342","5"],
    [28873,"HCEP03730560","2024-07-25 01:30:00","10.2236","3.29191","25.674","4.153","7.67","1.48","2.169","0.24","0.07","29.5694","4.67288","44.67","0","SATNPRO1962","25.758","0.36078","5"],
    [28874,"HCEP03730560","2024-07-25 01:45:00","10.2087","3.29056","25.689","3.979","7.66","1.559","2.509","0.22","0.31","29.5681","4.67295","42.79","0","SATNPRO1962","25.566","0.3581","5"],
    [28875,"HCEP03730560","2024-07-25 02:00:00","10.1858","3.28817","25.718","3.693","7.63","1.86","3.928","0.33","0.3","29.5629","4.67258","39.68","0","SATNPRO1962","24.906","0.34888","5"],
    [28876,"HCEP03730560","2024-07-25 02:15:00","10.1807","3.28751","25.693","3.542","7.62","1.736","3.412","0.22","0.11","29.5605","4.67232","38.06","0","SATNPRO1962","24.86","0.34822","5"],
    [28877,"HCEP03730560","2024-07-25 02:30:00","10.1639","3.28549","25.773","3.362","7.6","1.775","3.976","0.25","0.39","29.5541","4.67168","36.11","0","SATNPRO1962","24.37","0.34132","5"],
    [28878,"HCEP03730560","2024-07-25 02:45:00","10.1606","3.28517","25.82","3.232","7.59","1.757","3.523","0.24","0.14","29.5535","4.67167","34.71","0","SATNPRO1962","24.518","0.34342","5"],
    [28879,"HCEP03730560","2024-07-25 03:00:00","10.1605","3.28508","25.881","3.24","7.59","1.722","3.815","0.32","0.14","29.5527","4.67155","34.8","0","SATNPRO1962","24.506","0.34324","5"],
    [28880,"HCEP03730560","2024-07-25 03:15:00","10.1599","3.28505","25.927","3.209","7.59","1.849","3.733","0.26","0.15","29.5529","4.67159","34.46","0","SATNPRO1962","24.398","0.34174","5"],
    [28881,"HCEP03730560","2024-07-25 03:30:00","10.1657","3.28565","26.057","3.242","7.59","1.747","3.802","0.29","0.19","29.554","4.67166","34.82","0","SATNPRO1962","24.588","0.34438","5"],
    [28882,"HCEP03730560","2024-07-25 03:45:00","10.171","3.28628","26.147","3.284","7.6","1.841","3.704","0.27","0.36","29.556","4.67186","35.28","0","SATNPRO1962","24.618","0.3448","5"],
    [28883,"HCEP03730560","2024-07-25 04:00:00","10.1922","3.28859","26.221","3.511","7.62","1.838","3.798","0.36","0.29","29.5616","4.67233","37.74","0","SATNPRO1962","25.144","0.35216","5"],
    [28884,"HCEP03730560","2024-07-25 04:15:00","10.2046","3.29004","26.308","3.746","7.63","1.859","3.508","0.34","0.2","29.5659","4.67274","40.28","0","SATNPRO1962","25.436","0.35626","5"],
    [28885,"HCEP03730560","2024-07-25 04:30:00","10.2187","3.29175","26.396","3.98","7.65","1.669","2.751","0.33","0.27","29.5715","4.67331","42.8","0","SATNPRO1962","25.862","0.36226","5"],
    [28886,"HCEP03730560","2024-07-25 04:45:00","10.2206","3.29197","26.529","4.082","7.66","1.661","2.8","0.25","0.24","29.572","4.67335","43.9","0","SATNPRO1962","25.945999999999998","0.3634","5"],
    [28887,"HCEP03730560","2024-07-25 05:00:00","10.2192","3.29189","26.604","4.087","7.66","1.674","3.188","0.43","0.36","29.5723","4.67343","43.95","0","SATNPRO1962","25.806","0.3615","5"],
    [28888,"HCEP03730560","2024-07-25 05:15:00","10.2174","3.29177","26.728","4.068","7.66","1.773","3.286","0.42","0.39","29.5725","4.67349","43.75","0","SATNPRO1962","25.912000000000003","0.36294","5"],
    [28889,"HCEP03730560","2024-07-25 05:30:00","10.2156","3.29163","26.871","4.051","7.66","1.894","3.789","0.32","0.39","29.5726","4.67354","43.56","0","SATNPRO1962","25.764","0.36088","5"],
    [28890,"HCEP03730560","2024-07-25 05:45:00","10.2168","3.29174","26.971","4.056","7.66","1.692","3.064","0.35","0.35","29.5726","4.67353","43.62","0","SATNPRO1962","25.726","0.36028","5"],
    [28891,"HCEP03730560","2024-07-25 06:00:00","10.2188","3.29179","27.062","4.059","7.66","1.794","3.66","0.46","0.33","29.5715","4.67334","43.65","0","SATNPRO1962","25.922","0.3631","5"],
    [28892,"HCEP03730560","2024-07-25 06:15:00","10.218","3.29163","27.157","4.046","7.66","1.865","3.473","0.3","0.18","29.5705","4.67322","43.51","0","SATNPRO1962","25.744","0.36058","5"],
    [28893,"HCEP03730560","2024-07-25 06:30:00","10.2177","3.29142","27.22","4.022","7.66","1.699","3.402","0.26","0.26","29.5686","4.67296","43.25","0","SATNPRO1962","25.82","0.36164","5"],
    [28894,"HCEP03730560","2024-07-25 06:45:00","10.2178","3.29129","27.283","4.01","7.66","1.944","3.359","0.36","0.29","29.5672","4.67276","43.12","0","SATNPRO1962","25.74","0.36048","5"],
    [28895,"HCEP03730560","2024-07-25 07:00:00","10.2174","3.29115","27.317","3.994","7.66","1.991","3.592","0.58","0.24","29.5662","4.67263","42.95","0","SATNPRO1962","25.754","0.36078","5"],
    [28896,"HCEP03730560","2024-07-25 07:15:00","10.2176","3.29109","27.337","3.977","7.66","1.861","3.291","0.4","0.18","29.5654","4.67251","42.77","0","SATNPRO1962","25.712","0.36012","5"],
    [28897,"HCEP03730560","2024-07-25 07:30:00","10.2184","3.29112","27.309","3.977","7.66","1.852","3.405","0.59","0.23","29.5651","4.67245","42.77","0","SATNPRO1962","25.733999999999998","0.36046","5"],
    [28898,"HCEP03730560","2024-07-25 07:45:00","10.218","3.29094","27.268","3.975","7.66","1.828","3.236","0.34","0.18","29.5636","4.67224","42.74","0","SATNPRO1962","25.556","0.35798","5"],
    [28899,"HCEP03730560","2024-07-25 08:00:00","10.2104","3.29","27.167","3.899","7.65","1.815","3.521","0.27","0.28","29.5605","4.67192","41.92","0","SATNPRO1962","25.474","0.35682","5"],
    [28900,"HCEP03730560","2024-07-25 08:15:00","10.1984","3.28868","27.071","3.756","7.63","1.763","3.241","0.37","0.2","29.5572","4.67164","40.37","0","SATNPRO1962","25.354","0.35514","5"],
    [28901,"HCEP03730560","2024-07-25 08:30:00","10.198","3.28847","26.976","3.663","7.63","1.774","3.471","0.27","0.29","29.5555","4.67139","39.37","0","SATNPRO1962","25.108","0.35168","5"],
    [28902,"HCEP03730560","2024-07-25 08:45:00","10.1964","3.2882","26.871","3.636","7.63","2.079","3.624","0.52","0.46","29.554","4.67121","39.07","0","SATNPRO1962","24.99","0.35004","5"],
    [28903,"HCEP03730560","2024-07-25 09:00:00","10.1931","3.28778","26.756","3.593","7.62","1.928","3.695","0.3","0.25","29.5526","4.67105","38.61","0","SATNPRO1962","25.032","0.35062","5"],
    [28904,"HCEP03730560","2024-07-25 09:15:00","10.1924","3.28765","26.605","3.559","7.62","1.791","3.503","0.29","0.42","29.552","4.67097","38.25","0","SATNPRO1962","25.19","0.35284","5"],
    [28905,"HCEP03730560","2024-07-25 09:30:00","10.1956","3.28793","26.455","3.566","7.62","1.923","3.598","0.41","0.48","29.5522","4.67094","38.32","0","SATNPRO1962","25.004","0.35018","5"],
    [28906,"HCEP03730560","2024-07-25 09:45:00","10.1972","3.28809","26.318","3.597","7.62","2.154","4.603","1.24","3.55","29.5526","4.67095","38.66","0","SATNPRO1962","25.208000000000002","0.35306","5"],
    [28907,"HCEP03730560","2024-07-25 10:00:00","10.1992","3.28851","26.182","3.64","7.63","1.558","3.346","0.21","0.3","29.5552","4.67129","39.13","0","SATNPRO1962","25.254","0.35372","5"],
    [28908,"HCEP03730560","2024-07-25 10:15:00","10.2006","3.28887","26.001","3.66","7.63","1.857","3.396","0.4","0.29","29.5577","4.67161","39.34","0","SATNPRO1962","25.158","0.35236","5"],
    [28909,"HCEP03730560","2024-07-25 10:30:00","10.1974","3.28863","25.815","3.658","7.62","1.772","3.795","0.2","0.3","29.558","4.67169","39.32","0","SATNPRO1962","25.16","0.35244","5"],
    [28910,"HCEP03730560","2024-07-25 10:45:00","10.1996","3.28916","25.649","3.633","7.62","2.068","3.855","0.32","0.38","29.5616","4.67216","39.06","0","SATNPRO1962","25.292","0.35428","5"],
    [28911,"HCEP03730560","2024-07-25 11:00:00","10.2049","3.28975","25.449","3.705","7.63","1.823","3.488","0.43","0.33","29.5632","4.6723","39.83","0","SATNPRO1962","25.318","0.35458","5"],
    [28912,"HCEP03730560","2024-07-25 11:15:00","10.2058","3.29001","25.226","3.769","7.64","1.953","3.518","0.48","0.66","29.5651","4.67254","40.52","0","SATNPRO1962","25.58","0.3583","5"],
    [28913,"HCEP03730560","2024-07-25 11:30:00","10.2033","3.28974","25.032","3.752","7.63","1.824","3.697","0.48","0.39","29.5645","4.67249","40.34","0","SATNPRO1962","25.528000000000002","0.35754","5"],
    [28914,"HCEP03730560","2024-07-25 11:45:00","10.2019","3.28939","24.852","3.7","7.63","1.927","3.603","0.55","0.33","29.5623","4.67218","39.78","0","SATNPRO1962","25.386","0.35558","5"],
    [28915,"HCEP03730560","2024-07-25 12:00:00","10.2047","3.28978","24.661","3.703","7.63","3.013","4.8","2.64","3.17","29.564","4.67236","39.81","0","SATNPRO1962","25.194","0.35288","5"],
    [28916,"HCEP03730560","2024-07-25 12:15:00","10.2102","3.29024","24.425","3.754","7.64","1.602","3.315","0.23","0.35","29.5641","4.67228","40.36","0","SATNPRO1962","25.416","0.35598","5"],
    [28917,"HCEP03730560","2024-07-25 12:30:00","10.2118","3.29047","24.289","3.797","7.64","1.604","3.439","0.23","0.26","29.5651","4.67239","40.83","0","SATNPRO1962","25.502","0.35722","5"],
    [28918,"HCEP03730560","2024-07-25 12:45:00","10.2155","3.29095","24.205","3.83","7.64","1.666","3.232","0.25","0.42","29.567","4.67259","41.19","0","SATNPRO1962","25.552","0.3579","5"],
    [28919,"HCEP03730560","2024-07-25 13:00:00","10.2183","3.29124","24.143","3.884","7.65","1.779","3.392","0.33","0.53","29.5676","4.67263","41.77","0","SATNPRO1962","25.544","0.35776","5"],
    [28920,"HCEP03730560","2024-07-25 13:15:00","10.2177","3.2914","24.133","3.914","7.65","1.863","3.313","0.45","0.53","29.5697","4.67294","42.09","0","SATNPRO1962","25.708","0.3601","5"],
    [28921,"HCEP03730560","2024-07-25 13:30:00","10.2188","3.29151","24.204","3.937","7.65","1.772","3.484","0.36","0.45","29.5698","4.67293","42.34","0","SATNPRO1962","25.626","0.35896","5"],
    [28922,"HCEP03730560","2024-07-25 13:45:00","10.2168","3.29091","24.199","3.925","7.65","1.7","3.018","0.58","0.39","29.5655","4.67235","42.21","0","SATNPRO1962","25.458","0.35654","5"],
    [28923,"HCEP03730560","2024-07-25 14:00:00","10.2073","3.28976","24.272","3.84","7.64","1.988","3.188","0.9","0.3","29.5618","4.67199","41.28","0","SATNPRO1962","25.38","0.35546","5"],
    [28924,"HCEP03730560","2024-07-25 14:15:00","10.2056","3.28993","24.345","3.736","7.64","1.837","3.672","0.67","0.6","29.5649","4.67246","40.17","0","SATNPRO1962","25.442","0.35632","5"],
    [28925,"HCEP03730560","2024-07-25 14:30:00","10.2068","3.2898","24.468","3.717","7.63","1.804","3.462","0.41","0.41","29.5625","4.67211","39.96","0","SATNPRO1962","25.558","0.358","5"],
    [28926,"HCEP03730560","2024-07-25 14:45:00","10.2115","3.29008","24.599","3.717","7.63","1.94","3.082","0.5","0.29","29.5614","4.67188","39.97","0","SATNPRO1962","25.52","0.35744","5"],
    [28927,"HCEP03730560","2024-07-25 15:00:00","10.2167","3.29028","24.746","3.749","7.64","2.015","3.184","0.59","0.33","29.5591","4.67148","40.31","0","SATNPRO1962","25.482","0.35692","5"],
    [28928,"HCEP03730560","2024-07-25 15:15:00","10.2207","3.29045","24.931","3.769","7.64","1.578","2.704","0.36","0.13","29.5575","4.67119","40.53","0","SATNPRO1962","25.294","0.35428","5"],
    [28929,"HCEP03730560","2024-07-25 15:30:00","10.2225","3.29059","25.133","3.785","7.64","2.614","3.37","1.16","0.7","29.5573","4.67114","40.7","0","SATNPRO1962","25.298","0.35434","5"],
    [28930,"HCEP03730560","2024-07-25 15:45:00","10.2295","3.29117","25.331","3.795","7.64","2.339","3.672","1.24","0.41","29.5573","4.67104","40.82","0","SATNPRO1962","25.298000000000002","0.35434","5"],
    [28931,"HCEP03730560","2024-07-25 16:00:00","10.2504","3.29224","25.527","3.82","7.64","2.351","3.77","0.36","0.41","29.5508","4.66979","41.1","0","SATNPRO1962","25.396","0.35572","5"],
    [28932,"HCEP03730560","2024-07-25 16:15:00","10.2464","3.29222","25.729","3.83","7.64","2.527","3.636","0.37","0.32","29.5539","4.6703","41.21","0","SATNPRO1962","25.628","0.35894","5"],
    [28933,"HCEP03730560","2024-07-25 16:30:00","10.2325","3.29124","25.96","3.779","7.64","2.77","4.694","0.65","1.24","29.5553","4.67074","40.65","0","SATNPRO1962","25.198","0.35296","5"],
    [28934,"HCEP03730560","2024-07-25 16:45:00","10.1995","3.28923","26.25","3.666","7.63","2.641","4.685","0.55","0.36","29.562","4.67226","39.41","0","SATNPRO1962","25.242","0.35356","5"],
    [28935,"HCEP03730560","2024-07-25 17:00:00","10.2026","3.28932","26.515","3.59","7.62","2.554","5.111","0.36","0.95","29.5603","4.67198","38.59","0","SATNPRO1962","25.348","0.35504","5"],
    [28936,"HCEP03730560","2024-07-25 17:15:00","10.2036","3.29049","26.725","3.634","7.63","2.703","5.692","0.56","0.8","29.5711","4.67352","39.07","0","SATNPRO1962","25.384","0.35554","5"],
    [28937,"HCEP03730560","2024-07-25 17:30:00","10.2061","3.29085","26.957","3.7","7.63","2.274","4.638","0.33","0.52","29.5725","4.67369","39.79","0","SATNPRO1962","25.658","0.35936","5"],
    [28938,"HCEP03730560","2024-07-25 17:45:00","10.2307","3.29316","27.136","3.825","7.64","1.997","3.844","0.28","0.35","29.5755","4.67372","41.15","0","SATNPRO1962","25.746","0.3606","5"],
    [28939,"HCEP03730560","2024-07-25 18:00:00","10.2391","3.29364","27.267","3.924","7.65","2.194","3.991","0.36","0.35","29.5732","4.67327","42.22","0","SATNPRO1962","25.848","0.36204","5"],
    [28940,"HCEP03730560","2024-07-25 18:15:00","10.2513","3.29383","27.453","3.946","7.65","2.088","3.713","0.27","0.2","29.5651","4.67192","42.46","0","SATNPRO1962","25.674","0.35962","5"],
    [28941,"HCEP03730560","2024-07-25 18:30:00","10.2816","3.29507","27.573","4.009","7.66","2.004","3.362","0.3","0.34","29.5527","4.66966","43.17","0","SATNPRO1962","25.594","0.35846","5"],
    [28942,"HCEP03730560","2024-07-25 18:45:00","10.2882","3.29526","27.735","4.062","7.67","2.052","3.304","0.25","0.29","29.5493","4.66908","43.74","0","SATNPRO1962","25.534","0.35766","5"],
    [28943,"HCEP03730560","2024-07-25 19:00:00","10.2655","3.29444","27.879","4.028","7.66","1.883","3.119","0.34","0.26","29.5595","4.67092","43.36","0","SATNPRO1962","25.544","0.35778","5"],
    [28944,"HCEP03730560","2024-07-25 19:15:00","10.2375","3.29285","27.966","3.911","7.65","1.842","3.313","0.22","0.31","29.5664","4.67236","42.07","0","SATNPRO1962","25.740000000000002","0.36052","5"],
    [28945,"HCEP03730560","2024-07-25 19:30:00","10.2245","3.29143","28.004","3.78","7.64","1.831","3.368","0.33","0.27","29.5629","4.67207","40.66","0","SATNPRO1962","25.33","0.3548","5"],
    [28946,"HCEP03730560","2024-07-25 19:45:00","10.2201","3.29278","28.005","3.818","7.65","2.106","3.789","0.49","0.39","29.5799","4.67457","41.07","0","SATNPRO1962","25.628","0.35896","5"],
    [28947,"HCEP03730560","2024-07-25 20:00:00","10.2124","3.29306","28.06","3.927","7.65","2.078","4","0.72","0.45","29.589","4.676","42.23","0","SATNPRO1962","25.672","0.35956","5"],
    [28948,"HCEP03730560","2024-07-25 20:15:00","10.2165","3.29295","28.097","3.951","7.65","1.884","3.212","0.57","0.32","29.5845","4.67529","42.49","0","SATNPRO1962","25.764","0.36088","5"],
    [28949,"HCEP03730560","2024-07-25 20:30:00","10.2108","3.29218","28.053","3.909","7.65","1.651","3.451","0.43","0.37","29.5815","4.67496","42.03","0","SATNPRO1962","25.608","0.35868","5"],
    [28950,"HCEP03730560","2024-07-25 20:45:00","10.2123","3.29272","28.041","3.89","7.65","2.064","3.545","0.59","0.31","29.5856","4.67552","41.83","0","SATNPRO1962","25.528000000000002","0.35754","5"],
    [28951,"HCEP03730560","2024-07-25 21:00:00","10.2109","3.29258","28.03","3.889","7.65","1.944","3.78","0.37","0.29","29.5854","4.67552","41.82","0","SATNPRO1962","25.62","0.35882","5"],
    [28952,"HCEP03730560","2024-07-25 21:15:00","10.2085","3.29262","27.998","3.892","7.65","1.739","3.644","0.31","0.28","29.5878","4.67588","41.85","0","SATNPRO1962","25.672","0.3596","5"],
    [28953,"HCEP03730560","2024-07-25 21:30:00","10.2089","3.29278","27.93","3.898","7.65","1.688","3.84","0.26","0.32","29.589","4.67606","41.92","0","SATNPRO1962","25.696","0.3599","5"],
    [28954,"HCEP03730560","2024-07-25 21:45:00","10.2123","3.29279","27.866","3.912","7.65","1.645","3.511","0.27","0.4","29.5863","4.67561","42.06","0","SATNPRO1962","25.772","0.36094","5"],
    [28955,"HCEP03730560","2024-07-25 22:00:00","10.212","3.29277","27.706","3.911","7.65","1.643","3.655","0.29","0.33","29.5866","4.67564","42.06","0","SATNPRO1962","25.582","0.35828","5"],
    [28956,"HCEP03730560","2024-07-25 22:15:00","10.2114","3.29267","27.577","3.897","7.65","1.692","3.501","0.28","0.27","29.5861","4.67557","41.91","0","SATNPRO1962","25.616","0.35872","5"],
    [28957,"HCEP03730560","2024-07-25 22:30:00","10.2093","3.29243","27.459","3.873","7.65","1.665","3.436","0.38","0.38","29.5854","4.67551","41.65","0","SATNPRO1962","25.546","0.3578","5"],
    [28958,"HCEP03730560","2024-07-25 22:45:00","10.2073","3.29216","27.33","3.829","7.64","1.764","3.579","0.67","0.44","29.5844","4.67539","41.17","0","SATNPRO1962","25.364","0.35526","5"],
    [28959,"HCEP03730560","2024-07-25 23:00:00","10.2054","3.29153","27.231","3.802","7.64","1.396","3.256","0.26","0.21","29.5798","4.67475","40.88","0","SATNPRO1962","25.438","0.35628","5"],
    [28960,"HCEP03730560","2024-07-25 23:15:00","10.2011","3.2909","27.107","3.755","7.63","1.485","3.428","0.33","0.43","29.577","4.67443","40.37","0","SATNPRO1962","25.324","0.35468","5"],
    [28961,"HCEP03730560","2024-07-25 23:30:00","10.1947","3.28976","26.91","3.663","7.63","1.342","3.454","0.21","0.38","29.571","4.67366","39.37","0","SATNPRO1962","25.124","0.35192","5"],
    [28962,"HCEP03730560","2024-07-25 23:45:00","10.1854","3.28837","26.806","3.516","7.61","1.407","3.34","0.32","0.23","29.5648","4.67292","37.78","0","SATNPRO1962","24.884","0.34856","5"],
    [28963,"HCEP03730560","2024-07-26 00:00:00","10.1725","3.28589","26.567","3.348","7.59","1.317","3.364","0.28","0.7","29.5508","4.67112","35.97","0","SATNPRO1962","24.528","0.34354","5"],
    [28964,"HCEP03730560","2024-07-26 00:15:00","10.1648","3.28504","26.44","3.15","7.58","1.353","3.458","0.28","0.38","29.5485","4.67092","33.83","0","SATNPRO1962","24.516000000000002","0.3434","5"],
    [28965,"HCEP03730560","2024-07-26 00:30:00","10.1589","3.28381","26.23","3.036","7.57","1.39","3.342","0.4","0.22","29.5411","4.66995","32.61","0","SATNPRO1962","24.218","0.3392","5"],
    [28966,"HCEP03730560","2024-07-26 00:45:00","10.1575","3.2836","26.056","2.96","7.56","1.374","3.307","0.21","0.26","29.5403","4.66984","31.78","0","SATNPRO1962","23.986","0.33594","5"],
    [28967,"HCEP03730560","2024-07-26 01:00:00","10.1549","3.28309","25.866","2.902","7.56","1.361","3.861","0.2","0.43","29.5374","4.66946","31.16","0","SATNPRO1962","23.976","0.33586","5"],
    [28968,"HCEP03730560","2024-07-26 01:15:00","10.1485","3.28203","25.67","2.83","7.55","1.42","3.405","0.28","0.22","29.5321","4.6688","30.38","0","SATNPRO1962","23.774","0.33302","5"],
    [28969,"HCEP03730560","2024-07-26 01:30:00","10.1444","3.28134","25.537","2.75","7.54","1.371","3.259","0.31","0.41","29.5287","4.66837","29.51","0","SATNPRO1962","23.854","0.33412","5"],
    [28970,"HCEP03730560","2024-07-26 01:45:00","10.1428","3.28103","25.406","2.707","7.54","1.437","3.541","0.45","1.76","29.527","4.66815","29.06","0","SATNPRO1962","23.734","0.33242","5"],
    [28971,"HCEP03730560","2024-07-26 02:00:00","10.1403","3.28061","25.324","2.679","7.54","1.331","3.482","0.2","0.52","29.5248","4.66788","28.76","0","SATNPRO1962","23.732","0.33242","5"],
    [28972,"HCEP03730560","2024-07-26 02:15:00","10.138","3.28017","25.266","2.67","7.54","1.32","2.672","0.37","0.25","29.5224","4.66756","28.66","0","SATNPRO1962","23.854","0.33412","5"],
    [28973,"HCEP03730560","2024-07-26 02:30:00","10.1376","3.27991","25.278","2.652","7.53","1.273","2.779","0.37","0.18","29.52","4.66723","28.46","0","SATNPRO1962","23.856","0.3341","5"],
    [28974,"HCEP03730560","2024-07-26 02:45:00","10.1367","3.27971","25.304","2.63","7.53","1.703","2.889","1.03","0.3","29.5188","4.66707","28.22","0","SATNPRO1962","23.724","0.33232","5"],
    [28975,"HCEP03730560","2024-07-26 03:00:00","10.1353","3.2795","25.343","2.593","7.53","1.277","2.879","0.36","0.35","29.5178","4.66696","27.83","0","SATNPRO1962","23.854","0.3341","5"],
    [28976,"HCEP03730560","2024-07-26 03:15:00","10.1359","3.27966","25.392","2.575","7.53","1.341","2.702","0.43","0.14","29.5189","4.6671","27.64","0","SATNPRO1962","23.748","0.33264","5"],
    [28977,"HCEP03730560","2024-07-26 03:30:00","10.1356","3.27974","25.443","2.576","7.53","1.387","2.712","0.5","0.18","29.5199","4.66726","27.64","0","SATNPRO1962","23.62","0.33082","5"],
    [28978,"HCEP03730560","2024-07-26 03:45:00","10.1319","3.27952","25.516","2.512","7.52","1.451","3.016","0.48","0.31","29.5207","4.66745","26.96","0","SATNPRO1962","23.163999999999998","0.32444","5"],
    [28979,"HCEP03730560","2024-07-26 04:00:00","10.1342","3.2799","25.607","2.451","7.52","1.694","3.349","0.89","0.32","29.5225","4.66767","26.31","0","SATNPRO1962","23.252","0.32572","5"],
    [28980,"HCEP03730560","2024-07-26 04:15:00","10.1369","3.28036","25.689","2.449","7.52","1.564","3.205","0.6","0.23","29.5249","4.66797","26.28","0","SATNPRO1962","23.066","0.32306","5"],
    [28981,"HCEP03730560","2024-07-26 04:30:00","10.1371","3.28036","25.783","2.451","7.52","1.189","3.122","0.17","0.16","29.5247","4.66793","26.3","0","SATNPRO1962","23.246","0.3256","5"],
    [28982,"HCEP03730560","2024-07-26 04:45:00","10.1375","3.28036","25.892","2.448","7.52","1.485","3.109","0.41","0.31","29.5244","4.6679","26.27","0","SATNPRO1962","23.136","0.32408","5"],
    [28983,"HCEP03730560","2024-07-26 05:00:00","10.136","3.28015","25.998","2.447","7.52","1.33","3.045","0.38","0.15","29.5234","4.66778","26.26","0","SATNPRO1962","23.986","0.33598","5"],
    [28984,"HCEP03730560","2024-07-26 05:15:00","10.1341","3.27982","26.086","2.45","7.52","1.205","2.639","0.3","0.11","29.5216","4.66756","26.3","0","SATNPRO1962","23.580000000000002","0.3303","5"],
    [28985,"HCEP03730560","2024-07-26 05:30:00","10.1341","3.27965","26.188","2.465","7.52","1.394","2.989","0.63","0.34","29.5199","4.66733","26.45","0","SATNPRO1962","23.458","0.32858","5"],
    [28986,"HCEP03730560","2024-07-26 05:45:00","10.1346","3.27958","26.295","2.494","7.52","1.318","2.479","0.68","0.13","29.5187","4.66716","26.76","0","SATNPRO1962","23.612000000000002","0.33072","5"],
    [28987,"HCEP03730560","2024-07-26 06:00:00","10.1342","3.27937","26.415","2.499","7.52","1.185","2.647","0.27","0.14","29.517","4.66693","26.81","0","SATNPRO1962","23.47","0.32874","5"],
    [28988,"HCEP03730560","2024-07-26 06:15:00","10.1336","3.27929","26.53","2.482","7.52","1.297","2.51","0.34","0.15","29.5166","4.66689","26.64","0","SATNPRO1962","23.502","0.3292","5"],
    [28989,"HCEP03730560","2024-07-26 06:30:00","10.1344","3.27944","26.647","2.471","7.52","1.261","2.791","0.36","0.21","29.5174","4.66699","26.51","0","SATNPRO1962","23.392","0.32764","5"],
    [28990,"HCEP03730560","2024-07-26 06:45:00","10.1352","3.27956","26.738","2.467","7.52","1.266","2.714","0.19","0.15","29.5179","4.66706","26.47","0","SATNPRO1962","23.43","0.32814","5"],
    [28991,"HCEP03730560","2024-07-26 07:00:00","10.1351","3.2796","26.808","2.47","7.52","1.309","2.997","0.34","0.27","29.5184","4.66713","26.51","0","SATNPRO1962","23.778","0.33302","5"],
    [28992,"HCEP03730560","2024-07-26 07:15:00","10.1366","3.27988","26.867","2.481","7.52","1.464","2.937","0.33","0.27","29.5199","4.66733","26.62","0","SATNPRO1962","23.464","0.32864","5"],
    [28993,"HCEP03730560","2024-07-26 07:30:00","10.1384","3.28032","26.988","2.47","7.52","1.584","3.537","0.57","0.27","29.5228","4.66772","26.51","0","SATNPRO1962","23.561999999999998","0.33002","5"],
    [28994,"HCEP03730560","2024-07-26 07:45:00","10.1391","3.28038","27.026","2.474","7.52","1.469","3.146","0.26","0.16","29.5228","4.66771","26.55","0","SATNPRO1962","23.528","0.32958","5"],
    [28995,"HCEP03730560","2024-07-26 08:00:00","10.1398","3.28052","27.094","2.495","7.52","1.484","3.185","0.37","0.51","29.5236","4.6678","26.77","0","SATNPRO1962","23.512","0.32932","5"],
    [28996,"HCEP03730560","2024-07-26 08:15:00","10.1429","3.28107","27.081","2.495","7.52","1.465","3.129","0.36","0.25","29.5266","4.66819","26.78","0","SATNPRO1962","23.278","0.32602","5"],
    [28997,"HCEP03730560","2024-07-26 08:30:00","10.1387","3.28028","27.079","2.501","7.52","1.267","2.781","0.3","0.18","29.5221","4.66762","26.84","0","SATNPRO1962","23.846","0.33402","5"],
    [28998,"HCEP03730560","2024-07-26 08:45:00","10.1371","3.27986","27.063","2.516","7.52","1.227","2.533","0.34","0.21","29.5193","4.66723","27","0","SATNPRO1962","23.594","0.33044","5"],
    [28999,"HCEP03730560","2024-07-26 09:00:00","10.1387","3.28024","27.015","2.506","7.52","1.324","2.823","0.36","0.24","29.5218","4.66757","26.9","0","SATNPRO1962","23.598","0.33052","5"],
    [29000,"HCEP03730560","2024-07-26 09:15:00","10.1404","3.28058","26.96","2.493","7.52","1.564","2.844","0.42","0.15","29.5237","4.66781","26.75","0","SATNPRO1962","23.497999999999998","0.32912","5"],
    [29001,"HCEP03730560","2024-07-26 09:30:00","10.1411","3.2807","26.909","2.487","7.52","1.254","2.989","0.25","0.22","29.5244","4.66789","26.69","0","SATNPRO1962","23.474","0.32882","5"],
    [29002,"HCEP03730560","2024-07-26 09:45:00","10.1431","3.28101","26.79","2.493","7.52","1.255","2.696","0.34","0.19","29.5259","4.66806","26.76","0","SATNPRO1962","23.464","0.3287","5"],
    [29003,"HCEP03730560","2024-07-26 10:00:00","10.1404","3.28055","26.713","2.505","7.52","1.089","2.564","0.24","0.12","29.5235","4.66777","26.89","0","SATNPRO1962","23.616","0.33076","5"],
    [29004,"HCEP03730560","2024-07-26 10:15:00","10.1383","3.28021","26.583","2.514","7.52","1.111","2.365","0.2","0.12","29.5219","4.66756","26.98","0","SATNPRO1962","23.622","0.33086","5"],
    [29005,"HCEP03730560","2024-07-26 10:30:00","10.1432","3.28105","26.482","2.522","7.52","1.213","2.677","0.39","0.18","29.5264","4.66812","27.07","0","SATNPRO1962","23.482","0.32888","5"],
    [29006,"HCEP03730560","2024-07-26 10:45:00","10.1575","3.28243","26.351","2.566","7.53","1.431","3.177","0.38","1.1","29.5286","4.66818","27.55","0","SATNPRO1962","23.412","0.32792","5"],
    [29007,"HCEP03730560","2024-07-26 11:00:00","10.1577","3.28293","26.225","2.558","7.52","1.542","3.898","0.26","0.28","29.5335","4.66887","27.47","0","SATNPRO1962","23.258","0.32578","5"],
    [29008,"HCEP03730560","2024-07-26 11:15:00","10.1622","3.28334","26.095","2.531","7.52","1.581","3.88","0.24","0.23","29.5339","4.66885","27.18","0","SATNPRO1962","23.18","0.32466","5"],
    [29009,"HCEP03730560","2024-07-26 11:30:00","10.1649","3.28353","25.973","2.551","7.53","1.587","3.99","0.41","0.19","29.5335","4.66875","27.39","0","SATNPRO1962","23.266","0.32586","5"],
    [29010,"HCEP03730560","2024-07-26 11:45:00","10.1657","3.28365","25.816","2.575","7.53","1.538","3.589","0.29","0.25","29.5342","4.66882","27.65","0","SATNPRO1962","23.308","0.3265","5"],
    [29011,"HCEP03730560","2024-07-26 12:00:00","10.169","3.28393","25.678","2.609","7.53","1.408","3.639","0.18","0.14","29.5344","4.66879","28.02","0","SATNPRO1962","23.484","0.32894","5"],
    [29012,"HCEP03730560","2024-07-26 12:15:00","10.1732","3.28444","25.529","2.652","7.53","1.583","3.411","0.35","0.15","29.5361","4.66895","28.49","0","SATNPRO1962","23.434","0.32826","5"],
    [29013,"HCEP03730560","2024-07-26 12:30:00","10.1768","3.28486","25.371","2.701","7.54","1.575","3.732","0.35","0.45","29.5374","4.66908","29.01","0","SATNPRO1962","23.61","0.33072","5"],
    [29014,"HCEP03730560","2024-07-26 12:45:00","10.186","3.28583","25.213","2.772","7.55","1.771","3.749","0.42","0.88","29.5396","4.66922","29.78","0","SATNPRO1962","23.746","0.3326","5"],
    [29015,"HCEP03730560","2024-07-26 13:00:00","10.2018","3.28766","25.09","2.902","7.56","1.691","3.834","0.27","0.23","29.545","4.66973","31.19","0","SATNPRO1962","23.736","0.33248","5"],
    [29016,"HCEP03730560","2024-07-26 13:15:00","10.2068","3.28851","25.006","3.034","7.57","1.905","4.007","0.3","0.38","29.5495","4.67027","32.62","0","SATNPRO1962","23.92","0.33502","5"],
    [29017,"HCEP03730560","2024-07-26 13:30:00","10.2132","3.28958","24.885","3.14","7.58","1.703","3.598","0.33","0.26","29.5549","4.67094","33.76","0","SATNPRO1962","24.412","0.34192","5"],
    [29018,"HCEP03730560","2024-07-26 13:45:00","10.2155","3.28998","24.832","3.239","7.58","1.964","3.954","0.29","0.44","29.5571","4.67121","34.83","0","SATNPRO1962","24.342","0.34098","5"],
    [29019,"HCEP03730560","2024-07-26 14:00:00","10.2229","3.29088","24.777","3.317","7.59","1.755","3.994","0.27","0.29","29.5601","4.67151","35.67","0","SATNPRO1962","24.518","0.3434","5"],
    [29020,"HCEP03730560","2024-07-26 14:15:00","10.2257","3.29146","24.787","3.407","7.6","1.906","3.871","0.33","0.45","29.5636","4.67197","36.65","0","SATNPRO1962","24.564","0.34402","5"],
    [29021,"HCEP03730560","2024-07-26 14:30:00","10.2267","3.29182","24.789","3.443","7.6","1.789","3.648","0.53","0.37","29.5663","4.67234","37.04","0","SATNPRO1962","24.758","0.34674","5"],
    [29022,"HCEP03730560","2024-07-26 14:45:00","10.2266","3.29194","24.871","3.465","7.61","1.94","3.761","0.49","0.32","29.5675","4.67252","37.27","0","SATNPRO1962","24.774","0.34702","5"],
    [29023,"HCEP03730560","2024-07-26 15:00:00","10.2277","3.29207","24.922","3.47","7.61","1.757","3.854","0.41","0.31","29.5679","4.67256","37.32","0","SATNPRO1962","24.734","0.3464","5"],
    [29024,"HCEP03730560","2024-07-26 15:15:00","10.2294","3.29218","25.017","3.479","7.61","1.737","3.538","0.26","0.3","29.5675","4.67248","37.42","0","SATNPRO1962","24.72","0.34626","5"],
    [29025,"HCEP03730560","2024-07-26 15:30:00","10.2311","3.29235","25.135","3.483","7.61","1.735","3.734","0.28","0.71","29.5678","4.6725","37.47","0","SATNPRO1962","24.632","0.34502","5"],
    [29026,"HCEP03730560","2024-07-26 15:45:00","10.2336","3.29256","25.282","3.479","7.61","1.869","3.716","0.42","0.37","29.5678","4.67247","37.43","0","SATNPRO1962","24.796","0.34732","5"],
    [29027,"HCEP03730560","2024-07-26 16:00:00","10.2312","3.29236","25.434","3.466","7.61","1.86","3.556","0.34","0.23","29.5677","4.67251","37.28","0","SATNPRO1962","24.782","0.34712","5"],
    [29028,"HCEP03730560","2024-07-26 16:15:00","10.2298","3.29223","25.599","3.448","7.61","2.003","3.505","0.36","0.3","29.5676","4.67252","37.09","0","SATNPRO1962","24.64","0.34516","5"],
    [29029,"HCEP03730560","2024-07-26 16:30:00","10.2289","3.29215","25.782","3.445","7.61","2.117","4.4","1.33","1.15","29.5674","4.67251","37.05","0","SATNPRO1962","24.727999999999998","0.34634","5"],
    [29030,"HCEP03730560","2024-07-26 16:45:00","10.2267","3.29184","25.922","3.451","7.61","2.106","3.688","0.49","0.33","29.5661","4.67237","37.12","0","SATNPRO1962","24.86","0.34824","5"],
    [29031,"HCEP03730560","2024-07-26 17:00:00","10.2256","3.29176","26.118","3.464","7.61","1.74","3.721","0.38","0.28","29.5661","4.6724","37.26","0","SATNPRO1962","24.84","0.3479","5"],
    [29032,"HCEP03730560","2024-07-26 17:15:00","10.2234","3.29157","26.268","3.466","7.61","1.817","3.427","0.42","0.27","29.5659","4.67242","37.27","0","SATNPRO1962","24.776","0.34704","5"],
    [29033,"HCEP03730560","2024-07-26 17:30:00","10.2212","3.29151","26.469","3.489","7.61","1.624","3.379","0.31","0.25","29.567","4.67262","37.52","0","SATNPRO1962","24.928","0.34914","5"],
    [29034,"HCEP03730560","2024-07-26 17:45:00","10.2192","3.29137","26.672","3.47","7.61","1.657","3.989","0.34","3.26","29.5672","4.6727","37.32","0","SATNPRO1962","24.718","0.34622","5"],
    [29035,"HCEP03730560","2024-07-26 18:00:00","10.2199","3.2914","26.822","3.462","7.61","1.594","3.415","0.28","0.2","29.5669","4.67265","37.23","0","SATNPRO1962","24.762","0.34684","5"],
    [29036,"HCEP03730560","2024-07-26 18:15:00","10.2233","3.29169","27.008","3.467","7.61","1.803","3.693","0.33","0.21","29.5668","4.6726","37.29","0","SATNPRO1962","24.846","0.34802","5"],
    [29037,"HCEP03730560","2024-07-26 18:30:00","10.2332","3.29257","27.201","3.462","7.61","1.673","3.625","0.32","0.28","29.5674","4.67253","37.24","0","SATNPRO1962","24.724","0.34632","5"],
    [29038,"HCEP03730560","2024-07-26 18:45:00","10.2398","3.29317","27.45","3.497","7.61","1.685","3.523","0.24","0.28","29.568","4.67251","37.62","0","SATNPRO1962","24.816","0.3476","5"],
    [29039,"HCEP03730560","2024-07-26 19:00:00","10.2447","3.29359","27.603","3.525","7.61","1.588","3.601","0.38","0.34","29.5681","4.67246","37.93","0","SATNPRO1962","24.7","0.34596","5"],
    [29040,"HCEP03730560","2024-07-26 19:15:00","10.2462","3.29373","27.738","3.53","7.61","1.749","3.781","0.26","0.3","29.5683","4.67247","37.99","0","SATNPRO1962","24.782","0.34714","5"],
    [29041,"HCEP03730560","2024-07-26 19:30:00","10.2472","3.29383","27.836","3.526","7.61","1.645","3.852","0.37","0.27","29.5684","4.67247","37.95","0","SATNPRO1962","24.844","0.348","5"],
    [29042,"HCEP03730560","2024-07-26 19:45:00","10.2466","3.29376","28.016","3.532","7.61","1.596","3.517","0.23","0.4","29.568","4.67244","38.01","0","SATNPRO1962","24.907999999999998","0.34886","5"],
    [29043,"HCEP03730560","2024-07-26 20:00:00","10.2471","3.2938","28.089","3.533","7.61","1.59","3.596","0.3","0.48","29.568","4.67244","38.02","0","SATNPRO1962","24.938","0.34928","5"],
    [29044,"HCEP03730560","2024-07-26 20:15:00","10.2459","3.29373","28.138","3.525","7.61","1.552","3.353","0.27","0.21","29.5683","4.6725","37.93","0","SATNPRO1962","24.796","0.3473","5"],
    [29045,"HCEP03730560","2024-07-26 20:30:00","10.246","3.29371","28.165","3.514","7.61","1.504","3.542","0.21","0.24","29.568","4.67246","37.81","0","SATNPRO1962","24.642","0.34514","5"],
    [29046,"HCEP03730560","2024-07-26 20:45:00","10.2481","3.29382","28.173","3.529","7.62","1.51","2.925","0.39","0.26","29.5674","4.67234","37.98","0","SATNPRO1962","24.88","0.34848","5"],
    [29047,"HCEP03730560","2024-07-26 21:00:00","10.2464","3.29371","28.184","3.529","7.61","1.551","3.243","0.52","0.18","29.5677","4.67241","37.98","0","SATNPRO1962","24.814","0.34756","5"],
    [29048,"HCEP03730560","2024-07-26 21:15:00","10.2472","3.29373","28.145","3.525","7.61","1.382","2.992","0.23","0.13","29.5672","4.67233","37.93","0","SATNPRO1962","24.848","0.34802","5"],
    [29049,"HCEP03730560","2024-07-26 21:30:00","10.2473","3.29373","28.072","3.528","7.61","1.449","3.077","0.29","0.14","29.5673","4.67233","37.96","0","SATNPRO1962","24.67","0.34556","5"],
    [29050,"HCEP03730560","2024-07-26 21:45:00","10.2469","3.29378","27.998","3.51","7.61","1.373","3.189","0.16","0.17","29.5679","4.67243","37.77","0","SATNPRO1962","24.612","0.3447","5"],
    [29051,"HCEP03730560","2024-07-26 22:00:00","10.2457","3.29373","27.944","3.481","7.61","1.397","3.443","0.21","0.14","29.5686","4.67253","37.46","0","SATNPRO1962","24.562","0.344","5"],
    [29052,"HCEP03730560","2024-07-26 22:15:00","10.2457","3.29379","27.876","3.45","7.61","1.446","3.426","0.21","0.16","29.5692","4.67261","37.12","0","SATNPRO1962","24.605999999999998","0.34466","5"],
    [29053,"HCEP03730560","2024-07-26 22:30:00","10.2387","3.29319","27.749","3.406","7.6","1.468","3.611","0.24","0.27","29.569","4.67269","36.65","0","SATNPRO1962","24.476","0.3428","5"],
    [29054,"HCEP03730560","2024-07-26 22:45:00","10.2305","3.29249","27.617","3.35","7.6","1.437","3.401","0.22","0.16","29.5687","4.67279","36.04","0","SATNPRO1962","24.336","0.34086","5"],
    [29055,"HCEP03730560","2024-07-26 23:00:00","10.2194","3.29154","27.45","3.305","7.59","1.271","3.283","0.18","0.15","29.5684","4.67291","35.55","0","SATNPRO1962","24.244","0.33958","5"],
    [29056,"HCEP03730560","2024-07-26 23:15:00","10.2137","3.29105","27.351","3.282","7.59","1.307","3.002","0.21","0.28","29.5682","4.67297","35.29","0","SATNPRO1962","24.784","0.34714","5"],
    [29057,"HCEP03730560","2024-07-26 23:30:00","10.206","3.29055","27.216","3.303","7.59","1.179","3.118","0.22","0.19","29.5696","4.67329","35.51","0","SATNPRO1962","24.552","0.34386","5"],
    [29058,"HCEP03730560","2024-07-26 23:45:00","10.2052","3.29065","27.039","3.343","7.6","1.176","3.043","0.15","0.23","29.5712","4.67353","35.94","0","SATNPRO1962","24.682","0.34574","5"],
    [29059,"HCEP03730560","2024-07-27 00:00:00","10.205","3.29078","26.877","3.406","7.6","1.029","2.861","0.13","0.17","29.5727","4.67373","36.62","0","SATNPRO1962","24.864","0.34826","5"],
    [29060,"HCEP03730560","2024-07-27 00:15:00","10.2044","3.29088","26.692","3.443","7.6","1.089","2.678","0.2","0.15","29.5743","4.67395","37.02","0","SATNPRO1962","25.06","0.35102","5"],
    [29061,"HCEP03730560","2024-07-27 00:30:00","10.2046","3.29089","26.5","3.445","7.6","1.032","2.945","0.21","0.16","29.5744","4.67395","37.03","0","SATNPRO1962","24.742","0.34654","5"],
    [29062,"HCEP03730560","2024-07-27 00:45:00","10.2049","3.29092","26.31","3.447","7.6","1.054","2.715","0.22","0.16","29.5744","4.67395","37.06","0","SATNPRO1962","24.951999999999998","0.34952","5"],
    [29063,"HCEP03730560","2024-07-27 01:00:00","10.2056","3.29098","26.118","3.441","7.6","0.905","2.656","0.22","0.13","29.5746","4.67395","37","0","SATNPRO1962","24.892","0.34866","5"],
    [29064,"HCEP03730560","2024-07-27 01:15:00","10.2052","3.29096","25.896","3.442","7.6","1.219","2.972","0.47","0.18","29.5747","4.67396","37","0","SATNPRO1962","24.816","0.3476","5"],
    [29065,"HCEP03730560","2024-07-27 01:30:00","10.2055","3.29102","25.667","3.434","7.6","1.008","3.072","0.21","0.13","29.5752","4.674","36.92","0","SATNPRO1962","24.794","0.34724","5"],
    [29066,"HCEP03730560","2024-07-27 01:45:00","10.2057","3.29058","25.455","3.414","7.6","0.882","2.464","0.14","0.06","29.5708","4.67337","36.7","0","SATNPRO1962","24.908","0.34886","5"],
    [29067,"HCEP03730560","2024-07-27 02:00:00","10.2056","3.29086","25.293","3.406","7.6","0.962","2.708","0.22","0.17","29.5737","4.67377","36.62","0","SATNPRO1962","24.78","0.34712","5"],
    [29068,"HCEP03730560","2024-07-27 02:15:00","10.2056","3.29082","25.158","3.401","7.6","1.099","2.835","0.3","0.1","29.5733","4.67371","36.57","0","SATNPRO1962","24.77","0.34694","5"],
    [29069,"HCEP03730560","2024-07-27 02:30:00","10.2055","3.29083","25.062","3.4","7.6","0.927","2.752","0.16","0.12","29.5736","4.67374","36.56","0","SATNPRO1962","24.854","0.34814","5"],
    [29070,"HCEP03730560","2024-07-27 02:45:00","10.2053","3.29083","24.969","3.394","7.6","0.897","2.701","0.21","0.09","29.5738","4.67377","36.49","0","SATNPRO1962","24.764","0.34688","5"],
    [29071,"HCEP03730560","2024-07-27 03:00:00","10.2057","3.28996","24.936","3.398","7.6","1.13","2.91","0.48","0.46","29.5649","4.67249","36.54","0","SATNPRO1962","24.67","0.34554","5"],
    [29072,"HCEP03730560","2024-07-27 03:15:00","10.2058","3.29084","24.923","3.404","7.6","1.068","2.836","0.24","0.32","29.5735","4.67373","36.6","0","SATNPRO1962","24.782","0.34712","5"],
    [29073,"HCEP03730560","2024-07-27 03:30:00","10.2058","3.29083","24.927","3.4","7.6","0.814","2.668","0.1","0.1","29.5735","4.67371","36.55","0","SATNPRO1962","24.792","0.34728","5"],
    [29074,"HCEP03730560","2024-07-27 03:45:00","10.2058","3.29083","24.935","3.398","7.6","0.911","2.589","0.2","0.13","29.5734","4.67371","36.53","0","SATNPRO1962","24.81","0.3475","5"],
    [29075,"HCEP03730560","2024-07-27 04:00:00","10.2072","3.29089","24.96","3.415","7.6","0.811","2.64","0.14","0.12","29.5728","4.6736","36.72","0","SATNPRO1962","24.864","0.34826","5"],
    [29076,"HCEP03730560","2024-07-27 04:15:00","10.2071","3.29078","25.007","3.425","7.6","0.792","2.419","0.11","0.09","29.5718","4.67347","36.83","0","SATNPRO1962","25.014","0.35038","5"],
    [29077,"HCEP03730560","2024-07-27 04:30:00","10.2066","3.29079","25.046","3.423","7.6","0.914","2.461","0.26","0.07","29.5723","4.67354","36.8","0","SATNPRO1962","25.044","0.35078","5"],
    [29078,"HCEP03730560","2024-07-27 04:45:00","10.2068","3.29078","25.119","3.421","7.6","0.815","2.3","0.24","0.08","29.572","4.6735","36.78","0","SATNPRO1962","24.844","0.34796","5"],
    [29079,"HCEP03730560","2024-07-27 05:00:00","10.206","3.29088","25.204","3.416","7.6","0.825","2.616","0.21","0.1","29.5736","4.67375","36.73","0","SATNPRO1962","24.784","0.34712","5"],
    [29080,"HCEP03730560","2024-07-27 05:15:00","10.2065","3.29089","25.308","3.418","7.6","0.775","2.364","0.12","0.1","29.5733","4.6737","36.75","0","SATNPRO1962","24.91","0.3489","5"],
    [29081,"HCEP03730560","2024-07-27 05:30:00","10.2065","3.29097","25.411","3.422","7.6","0.679","2.741","0.08","0.42","29.5741","4.67381","36.79","0","SATNPRO1962","24.91","0.34888","5"],
    [29082,"HCEP03730560","2024-07-27 05:45:00","10.2058","3.29099","25.538","3.387","7.6","1.036","2.849","0.37","0.1","29.5747","4.67393","36.42","0","SATNPRO1962","24.712","0.34612","5"],
    [29083,"HCEP03730560","2024-07-27 06:00:00","10.206","3.29098","25.669","3.357","7.6","1.099","3.01","0.44","0.2","29.5744","4.67389","36.09","0","SATNPRO1962","24.668","0.34554","5"],
    [29084,"HCEP03730560","2024-07-27 06:15:00","10.206","3.29096","25.769","3.353","7.6","1.03","2.846","0.29","0.34","29.5742","4.67386","36.05","0","SATNPRO1962","24.774","0.34704","5"],
    [29085,"HCEP03730560","2024-07-27 06:30:00","10.2053","3.29088","25.87","3.364","7.6","1.017","2.791","0.23","0.12","29.5739","4.67384","36.17","0","SATNPRO1962","24.884","0.34856","5"],
    [29086,"HCEP03730560","2024-07-27 06:45:00","10.2047","3.29085","25.995","3.341","7.59","1.286","3.185","0.57","0.21","29.5741","4.67388","35.92","0","SATNPRO1962","24.599999999999998","0.34454","5"],
    [29087,"HCEP03730560","2024-07-27 07:00:00","10.2043","3.29079","26.119","3.283","7.59","1.23","3.536","0.36","0.2","29.5737","4.67385","35.3","0","SATNPRO1962","24.566","0.34412","5"],
    [29088,"HCEP03730560","2024-07-27 07:15:00","10.2054","3.2908","26.253","3.236","7.59","1.546","3.703","0.73","0.14","29.5729","4.67371","34.8","0","SATNPRO1962","24.424","0.3421","5"],
    [29089,"HCEP03730560","2024-07-27 07:30:00","10.2071","3.29082","26.371","3.213","7.59","1.524","4.47","0.69","0.51","29.5717","4.67352","34.54","0","SATNPRO1962","24.148","0.33824","5"],
    [29090,"HCEP03730560","2024-07-27 07:45:00","10.2122","3.29112","26.499","3.207","7.59","1.341","4.211","0.25","0.51","29.5705","4.67328","34.48","0","SATNPRO1962","24.406","0.34186","5"],
    [29091,"HCEP03730560","2024-07-27 08:00:00","10.2235","3.29169","26.624","3.261","7.59","1.305","3.585","0.24","0.31","29.5669","4.67258","35.08","0","SATNPRO1962","24.67","0.34554","5"],
    [29092,"HCEP03730560","2024-07-27 08:15:00","10.2176","3.29142","26.693","3.275","7.59","1.382","3.77","0.37","0.34","29.5689","4.67297","35.22","0","SATNPRO1962","24.088","0.33742","5"],
    [29093,"HCEP03730560","2024-07-27 08:30:00","10.2193","3.29157","26.796","3.201","7.58","1.249","4.001","0.23","0.37","29.569","4.67296","34.42","0","SATNPRO1962","24.112","0.33772","5"],
    [29094,"HCEP03730560","2024-07-27 08:45:00","10.2173","3.29148","26.841","3.179","7.58","1.498","3.967","0.9","0.31","29.5697","4.6731","34.19","0","SATNPRO1962","24.132","0.338","5"],
    [29095,"HCEP03730560","2024-07-27 09:00:00","10.2141","3.29124","26.863","3.171","7.58","1.325","4.134","0.22","0.15","29.5699","4.67318","34.09","0","SATNPRO1962","24.146","0.33826","5"],
    [29096,"HCEP03730560","2024-07-27 09:15:00","10.2098","3.29096","26.885","3.143","7.58","1.566","4.291","0.4","0.33","29.5706","4.67335","33.79","0","SATNPRO1962","24.18","0.3387","5"],
    [29097,"HCEP03730560","2024-07-27 09:30:00","10.2073","3.29085","26.917","3.13","7.58","1.271","4.269","0.19","0.21","29.5715","4.67353","33.66","0","SATNPRO1962","24.068","0.33714","5"],
    [29098,"HCEP03730560","2024-07-27 09:45:00","10.208","3.2909","26.894","3.136","7.58","1.184","3.503","0.19","0.14","29.5715","4.6735","33.72","0","SATNPRO1962","24.312","0.34054","5"],
    [29099,"HCEP03730560","2024-07-27 10:00:00","10.2085","3.29089","26.906","3.176","7.58","1.279","3.887","0.56","0.29","29.571","4.67343","34.14","0","SATNPRO1962","24.288","0.3402","5"],
    [29100,"HCEP03730560","2024-07-27 10:15:00","10.2054","3.29077","26.881","3.195","7.58","1.08","3.564","0.15","0.34","29.5724","4.67368","34.35","0","SATNPRO1962","24.384","0.34154","5"],
    [29101,"HCEP03730560","2024-07-27 10:30:00","10.2053","3.29077","26.841","3.191","7.58","1.012","3.774","0.12","0.26","29.5724","4.67368","34.31","0","SATNPRO1962","24.39","0.34164","5"],
    [29102,"HCEP03730560","2024-07-27 10:45:00","10.2054","3.29076","26.781","3.187","7.58","1.155","3.698","0.21","0.51","29.5723","4.67366","34.26","0","SATNPRO1962","24.404","0.34182","5"],
    [29103,"HCEP03730560","2024-07-27 11:00:00","10.2053","3.29073","26.706","3.187","7.58","1.051","3.553","0.27","0.22","29.5722","4.67364","34.26","0","SATNPRO1962","24.272","0.33996","5"],
    [29104,"HCEP03730560","2024-07-27 11:15:00","10.2055","3.29072","26.643","3.182","7.58","1.211","3.261","0.38","0.24","29.5718","4.67358","34.22","0","SATNPRO1962","24.31","0.34046","5"],
    [29105,"HCEP03730560","2024-07-27 11:30:00","10.2062","3.2907","26.574","3.184","7.58","1.042","3.358","0.47","0.3","29.5711","4.67347","34.24","0","SATNPRO1962","24.44","0.34234","5"],
    [29106,"HCEP03730560","2024-07-27 11:45:00","10.2079","3.29086","26.508","3.179","7.58","1.23","3.173","0.46","0.2","29.5713","4.67347","34.18","0","SATNPRO1962","24.238","0.3395","5"],
    [29107,"NA","2024-07-27 12:00:00",null,null,null,null,null,null,null,null,null,null,null,null,null,"SATNPRO1962","24.248","0.33962","5"],
    [29108,"HCEP03730560","2024-07-27 12:00:01","10.2092","3.2908","26.422","3.196","7.58","0.856","3.183","0.13","0.21","29.5698","4.67321","34.36","0","NA",null,null,null],
    [29109,"HCEP03730560","2024-07-27 12:15:00","10.2104","3.29087","26.338","3.18","7.58","1.048","3.182","0.21","0.42","29.5695","4.67315","34.19","0","SATNPRO1962","24.26","0.3398","5"],
    [29110,"HCEP03730560","2024-07-27 12:30:00","10.2097","3.29084","26.262","3.165","7.58","1.349","3.394","1.67","0.24","29.5698","4.6732","34.03","0","SATNPRO1962","24.13","0.338","5"],
    [29111,"HCEP03730560","2024-07-27 12:45:00","10.2121","3.29096","26.169","3.166","7.58","1.03","3.067","0.27","0.1","29.5691","4.67305","34.05","0","SATNPRO1962","24.18","0.33868","5"],
    [29112,"HCEP03730560","2024-07-27 13:00:00","10.2104","3.29085","26.082","3.169","7.58","0.95","3.435","0.21","0.31","29.5694","4.67312","34.07","0","SATNPRO1962","24.224","0.3393","5"],
    [29113,"HCEP03730560","2024-07-27 13:15:00","10.2121","3.29092","25.987","3.167","7.58","0.937","3.053","0.28","0.19","29.5688","4.673","34.05","0","SATNPRO1962","24.392","0.34168","5"],
    [29114,"HCEP03730560","2024-07-27 13:30:00","10.2121","3.29091","25.886","3.182","7.58","0.916","3.654","0.22","1.97","29.5686","4.67298","34.21","0","SATNPRO1962","24.296","0.34028","5"],
    [29115,"HCEP03730560","2024-07-27 13:45:00","10.2113","3.29075","25.783","3.187","7.58","1.04","2.898","0.29","0.13","29.5678","4.67286","34.26","0","SATNPRO1962","24.408","0.34192","5"],
    [29116,"HCEP03730560","2024-07-27 14:00:00","10.2097","3.29065","25.699","3.181","7.58","0.783","2.911","0.11","0.16","29.5682","4.67294","34.2","0","SATNPRO1962","24.332","0.34082","5"],
    [29117,"HCEP03730560","2024-07-27 14:15:00","10.2104","3.29063","25.605","3.181","7.58","1.013","2.696","0.36","0.15","29.5673","4.6728","34.2","0","SATNPRO1962","24.318","0.3406","5"],
    [29118,"HCEP03730560","2024-07-27 14:30:00","10.2124","3.29076","25.554","3.192","7.58","0.799","2.752","0.15","0.11","29.567","4.67272","34.32","0","SATNPRO1962","24.354","0.3411","5"],
    [29119,"HCEP03730560","2024-07-27 14:45:00","10.2121","3.29103","25.514","3.211","7.58","1.003","3.392","0.13","0.48","29.5701","4.67316","34.53","0","SATNPRO1962","24.17","0.33854","5"],
    [29120,"HCEP03730560","2024-07-27 15:00:00","10.2129","3.29124","25.506","3.224","7.59","0.962","3.16","0.25","0.16","29.5715","4.67334","34.67","0","SATNPRO1962","24.508","0.34326","5"],
    [29121,"HCEP03730560","2024-07-27 15:15:00","10.213","3.29134","25.525","3.259","7.59","1.012","3.283","0.18","0.24","29.5724","4.67348","35.05","0","SATNPRO1962","24.504","0.34324","5"],
    [29122,"HCEP03730560","2024-07-27 15:30:00","10.2165","3.29162","25.569","3.332","7.6","0.846","2.981","0.14","0.15","29.5723","4.67341","35.83","0","SATNPRO1962","24.922","0.34906","5"],
    [29123,"HCEP03730560","2024-07-27 15:45:00","10.2136","3.29152","25.617","3.343","7.59","1.075","3.301","0.22","0.32","29.5737","4.67365","35.94","0","SATNPRO1962","24.494","0.34306","5"],
    [29124,"HCEP03730560","2024-07-27 16:00:00","10.2149","3.29168","25.696","3.294","7.59","1.021","3.453","0.25","0.23","29.5741","4.6737","35.43","0","SATNPRO1962","24.746000000000002","0.34664","5"],
    [29125,"HCEP03730560","2024-07-27 16:15:00","10.2145","3.29162","25.753","3.303","7.59","1.149","3.538","0.41","0.18","29.5738","4.67366","35.52","0","SATNPRO1962","24.678","0.34568","5"],
    [29126,"HCEP03730560","2024-07-27 16:30:00","10.2132","3.29155","25.861","3.261","7.59","0.994","3.342","0.41","0.15","29.5741","4.67374","35.07","0","SATNPRO1962","24.43","0.34218","5"],
    [29127,"HCEP03730560","2024-07-27 16:45:00","10.2132","3.29145","25.964","3.24","7.59","1.101","3.331","0.22","0.18","29.5731","4.6736","34.84","0","SATNPRO1962","24.552","0.34388","5"],
    [29128,"HCEP03730560","2024-07-27 17:00:00","10.2129","3.29135","26.098","3.233","7.59","1.036","3.755","0.21","0.35","29.5723","4.67351","34.76","0","SATNPRO1962","24.368","0.34134","5"],
    [29129,"HCEP03730560","2024-07-27 17:15:00","10.2129","3.2913","26.219","3.214","7.58","1.013","3.473","0.19","0.27","29.5717","4.67342","34.56","0","SATNPRO1962","24.404","0.3418","5"],
    [29130,"HCEP03730560","2024-07-27 17:30:00","10.2116","3.29112","26.337","3.184","7.58","0.896","3.273","0.22","0.21","29.571","4.67335","34.24","0","SATNPRO1962","24.294","0.34028","5"],
    [29131,"HCEP03730560","2024-07-27 17:45:00","10.2094","3.29087","26.482","3.125","7.57","1.166","4.303","0.6","3.88","29.5702","4.67328","33.6","0","SATNPRO1962","24.102","0.33762","5"],
    [29132,"HCEP03730560","2024-07-27 18:00:00","10.2081","3.29079","26.614","3.063","7.57","0.929","3.63","0.12","0.35","29.5705","4.67334","32.94","0","SATNPRO1962","24.036","0.33664","5"],
    [29133,"HCEP03730560","2024-07-27 18:15:00","10.2065","3.29068","26.755","3.018","7.57","1.226","4.138","1.02","2.96","29.5707","4.67341","32.45","0","SATNPRO1962","23.992","0.33606","5"],
    [29134,"HCEP03730560","2024-07-27 18:30:00","10.2056","3.29072","26.898","2.998","7.57","0.964","3.698","0.27","0.17","29.5717","4.67358","32.24","0","SATNPRO1962","24.006","0.33624","5"],
    [29135,"HCEP03730560","2024-07-27 18:45:00","10.2047","3.29064","27.029","2.978","7.56","1.181","3.657","0.38","0.21","29.5716","4.67358","32.02","0","SATNPRO1962","23.902","0.33482","5"],
    [29136,"HCEP03730560","2024-07-27 19:00:00","10.2039","3.29067","27.167","2.937","7.56","1.01","3.966","0.14","0.24","29.5725","4.67374","31.57","0","SATNPRO1962","23.762","0.33282","5"],
    [29137,"HCEP03730560","2024-07-27 19:15:00","10.2042","3.29071","27.314","2.92","7.56","1.173","4.645","0.15","0.5","29.5725","4.67375","31.39","0","SATNPRO1962","24","0.33614","5"],
    [29138,"HCEP03730560","2024-07-27 19:30:00","10.2051","3.29075","27.452","2.915","7.56","1.02","3.969","0.16","0.29","29.5722","4.67369","31.34","0","SATNPRO1962","23.728","0.33236","5"],
    [29139,"HCEP03730560","2024-07-27 19:45:00","10.2081","3.29088","27.603","2.913","7.56","1.211","4.032","0.19","0.23","29.5709","4.67346","31.32","0","SATNPRO1962","23.642","0.33114","5"],
    [29140,"HCEP03730560","2024-07-27 20:00:00","10.2145","3.29122","27.729","2.928","7.56","1.116","4.283","0.18","0.18","29.5691","4.6731","31.48","0","SATNPRO1962","23.682","0.3317","5"],
    [29141,"HCEP03730560","2024-07-27 20:15:00","10.2173","3.29141","27.854","2.945","7.56","1.113","4.156","0.11","0.13","29.5686","4.673","31.67","0","SATNPRO1962","23.58","0.33028","5"],
    [29142,"HCEP03730560","2024-07-27 20:30:00","10.2207","3.2916","27.92","2.933","7.56","1.174","4.502","0.17","0.18","29.5677","4.67282","31.55","0","SATNPRO1962","23.54","0.32976","5"],
    [29143,"HCEP03730560","2024-07-27 20:45:00","10.2214","3.29162","28.007","2.968","7.56","1.185","3.995","0.19","0.1","29.5673","4.67275","31.92","0","SATNPRO1962","23.858","0.33416","5"],
    [29144,"HCEP03730560","2024-07-27 21:00:00","10.2357","3.2925","28.065","3.134","7.58","1.062","3.198","0.12","0.11","29.5643","4.6721","33.72","0","SATNPRO1962","24.506","0.34326","5"],
    [29145,"HCEP03730560","2024-07-27 21:15:00","10.2349","3.29245","28.099","3.132","7.57","1.111","3.633","0.11","0.1","29.5645","4.67214","33.69","0","SATNPRO1962","23.964000000000002","0.33562","5"],
    [29146,"HCEP03730560","2024-07-27 21:30:00","10.2373","3.29279","28.084","3.041","7.57","1.111","4.062","0.1","0.13","29.5659","4.6723","32.72","0","SATNPRO1962","23.726","0.33234","5"],
    [29147,"HCEP03730560","2024-07-27 21:45:00","10.2447","3.29327","28.046","3.001","7.57","1.119","4.292","0.1","0.95","29.5647","4.67201","32.29","0","SATNPRO1962","23.522000000000002","0.32946","5"],
    [29148,"HCEP03730560","2024-07-27 22:00:00","10.2568","3.29431","28.055","2.998","7.57","1.119","4.327","0.07","0.51","29.5652","4.67188","32.26","0","SATNPRO1962","23.44","0.32834","5"],
    [29149,"HCEP03730560","2024-07-27 22:15:00","10.2635","3.29493","27.977","3.034","7.57","1.155","3.972","0.15","0.1","29.566","4.67188","32.66","0","SATNPRO1962","23.666","0.33148","5"],
    [29150,"HCEP03730560","2024-07-27 22:30:00","10.2784","3.29653","27.957","3.12","7.58","1.114","3.831","0.1","0.12","29.5697","4.67216","33.6","0","SATNPRO1962","23.704","0.33202","5"],
    [29151,"HCEP03730560","2024-07-27 22:45:00","10.2842","3.2972","27.9","3.173","7.58","1.179","4.017","0.14","0.4","29.5716","4.67234","34.18","0","SATNPRO1962","23.576","0.3302","5"],
    [29152,"HCEP03730560","2024-07-27 23:00:00","10.2973","3.29844","27.761","3.265","7.59","1.167","4.19","0.11","0.26","29.5734","4.67237","35.17","0","SATNPRO1962","23.974","0.33578","5"],
    [29153,"HCEP03730560","2024-07-27 23:15:00","10.3024","3.29896","27.666","3.321","7.6","1.227","4.542","0.1","1.32","29.5745","4.67243","35.78","0","SATNPRO1962","24.022000000000002","0.33644","5"],
    [29154,"HCEP03730560","2024-07-27 23:30:00","10.3133","3.3002","27.539","3.41","7.6","1.152","3.973","0.12","0.56","29.578","4.67274","36.75","0","SATNPRO1962","24.272","0.33998","5"],
    [29155,"HCEP03730560","2024-07-27 23:45:00","10.3234","3.30129","27.388","3.536","7.62","1.33","4.344","0.23","0.62","29.5807","4.67296","38.12","0","SATNPRO1962","24.574","0.34418","5"],
    [29156,"HCEP03730560","2024-07-28 00:00:00","10.3309","3.30234","27.267","3.687","7.63","1.127","3.547","0.14","0.28","29.585","4.67345","39.76","0","SATNPRO1962","24.968","0.34968","5"],
    [29157,"HCEP03730560","2024-07-28 00:15:00","10.3302","3.30256","27.066","3.751","7.63","1.193","3.974","0.15","1.44","29.5878","4.67384","40.45","0","SATNPRO1962","24.990000000000002","0.35006","5"],
    [29158,"HCEP03730560","2024-07-28 00:30:00","10.325","3.30219","26.919","3.739","7.63","1.179","3.881","0.16","0.35","29.5884","4.67401","40.31","0","SATNPRO1962","24.938","0.34932","5"],
    [29159,"HCEP03730560","2024-07-28 00:45:00","10.3199","3.30188","26.718","3.71","7.63","1.157","3.663","0.13","0.83","29.5896","4.67424","39.99","0","SATNPRO1962","24.855999999999998","0.34814","5"],
    [29160,"HCEP03730560","2024-07-28 01:00:00","10.3133","3.30124","26.535","3.682","7.63","1.121","3.987","0.17","1.41","29.5887","4.67421","39.68","0","SATNPRO1962","24.89","0.34864","5"],
    [29161,"HCEP03730560","2024-07-28 01:15:00","10.313","3.30123","26.328","3.673","7.63","1.08","3.382","0.19","0.75","29.589","4.67425","39.58","0","SATNPRO1962","24.888","0.34858","5"],
    [29162,"HCEP03730560","2024-07-28 01:30:00","10.3105","3.3009","26.138","3.661","7.63","1.134","3.343","0.26","0.42","29.5878","4.67411","39.45","0","SATNPRO1962","24.904","0.34886","5"],
    [29163,"HCEP03730560","2024-07-28 01:45:00","10.3116","3.30114","25.935","3.663","7.63","1.091","3.067","0.11","0.16","29.5892","4.67429","39.48","0","SATNPRO1962","24.904","0.3488","5"],
    [29164,"HCEP03730560","2024-07-28 02:00:00","10.3045","3.30034","25.702","3.628","7.62","1.099","3.398","0.22","1.01","29.5873","4.67411","39.09","0","SATNPRO1962","24.802","0.3474","5"],
    [29165,"HCEP03730560","2024-07-28 02:15:00","10.3105","3.30077","25.518","3.584","7.62","1.251","3.669","0.25","0.22","29.5868","4.67393","38.62","0","SATNPRO1962","24.69","0.34586","5"],
    [29166,"HCEP03730560","2024-07-28 02:30:00","10.3009","3.2999","25.304","3.553","7.62","1.173","3.625","0.24","0.26","29.586","4.67397","38.28","0","SATNPRO1962","24.576","0.34426","5"],
    [29167,"HCEP03730560","2024-07-28 02:45:00","10.3102","3.30077","25.13","3.547","7.62","1.337","3.442","0.35","0.31","29.5871","4.67396","38.22","0","SATNPRO1962","24.68","0.3457","5"],
    [29168,"HCEP03730560","2024-07-28 03:00:00","10.3156","3.3012","24.946","3.597","7.62","1.125","3.233","0.4","0.22","29.5871","4.67386","38.77","0","SATNPRO1962","25.232","0.35338","5"],
    [29169,"HCEP03730560","2024-07-28 03:15:00","10.3231","3.30193","24.825","3.655","7.63","1.156","3.259","0.22","0.41","29.5883","4.67391","39.4","0","SATNPRO1962","24.882","0.34852","5"],
    [29170,"HCEP03730560","2024-07-28 03:30:00","10.3261","3.30221","24.712","3.708","7.63","0.973","2.925","0.17","0.15","29.5886","4.6739","39.97","0","SATNPRO1962","25.034","0.35064","5"],
    [29171,"HCEP03730560","2024-07-28 03:45:00","10.329","3.30258","24.629","3.738","7.64","1.8","10.266","0.7","7.09","29.59","4.67404","40.3","0","SATNPRO1962","24.998","0.35012","5"],
    [29172,"HCEP03730560","2024-07-28 04:00:00","10.3257","3.30237","24.591","3.752","7.64","1.275","14.609","0.42","6.49","29.5906","4.67418","40.45","0","SATNPRO1962","25.072","0.35116","5"],
    [29173,"HCEP03730560","2024-07-28 04:15:00","10.322","3.30212","24.535","3.755","7.64","1.8","3.364","0.71","0.47","29.5911","4.67431","40.47","0","SATNPRO1962","25.116","0.35184","5"],
    [29174,"HCEP03730560","2024-07-28 04:30:00","10.3157","3.30151","24.519","3.746","7.63","1.057","3.035","0.26","0.1","29.5902","4.67427","40.37","0","SATNPRO1962","25.144","0.3522","5"],
    [29175,"HCEP03730560","2024-07-28 04:45:00","10.3109","3.30117","24.54","3.71","7.63","1.226","3.328","0.42","0.21","29.5908","4.67444","39.99","0","SATNPRO1962","24.962","0.34964","5"],
    [29176,"HCEP03730560","2024-07-28 05:00:00","10.3067","3.30083","24.57","3.669","7.63","1.021","3.233","0.18","0.18","29.5907","4.6745","39.54","0","SATNPRO1962","24.882","0.34852","5"],
    [29177,"HCEP03730560","2024-07-28 05:15:00","10.3063","3.30089","24.614","3.65","7.63","1.064","3.112","0.21","0.26","29.5917","4.67465","39.34","0","SATNPRO1962","24.99","0.35","5"],
    [29178,"HCEP03730560","2024-07-28 05:30:00","10.2969","3.30008","24.67","3.603","7.62","1.381","3.586","0.64","0.23","29.5913","4.67475","38.81","0","SATNPRO1962","24.834","0.34788","5"],
    [29179,"HCEP03730560","2024-07-28 05:45:00","10.2904","3.29948","24.741","3.532","7.62","1.144","3.379","0.3","0.14","29.5906","4.67476","38.05","0","SATNPRO1962","24.642","0.34518","5"],
    [29180,"HCEP03730560","2024-07-28 06:00:00","10.2867","3.29929","24.825","3.461","7.61","1.138","3.651","0.22","0.26","29.5916","4.67497","37.28","0","SATNPRO1962","24.582","0.34432","5"],
    [29181,"HCEP03730560","2024-07-28 06:15:00","10.2823","3.29884","24.945","3.393","7.6","1.519","4.349","0.86","1.22","29.5908","4.67493","36.54","0","SATNPRO1962","24.296","0.34034","5"],
    [29182,"HCEP03730560","2024-07-28 06:30:00","10.2757","3.2983","25.063","3.335","7.6","1.111","4.172","0.22","0.24","29.5906","4.67503","35.92","0","SATNPRO1962","24.382","0.34152","5"],
    [29183,"HCEP03730560","2024-07-28 06:45:00","10.2686","3.29753","25.191","3.258","7.59","1.319","4.314","0.33","0.23","29.5888","4.67489","35.08","0","SATNPRO1962","24.25","0.33966","5"],
    [29184,"HCEP03730560","2024-07-28 07:00:00","10.2605","3.29678","25.343","3.202","7.59","1.241","4.996","0.29","0.59","29.5878","4.67489","34.47","0","SATNPRO1962","24.183999999999997","0.33876","5"],
    [29185,"HCEP03730560","2024-07-28 07:15:00","10.2471","3.29562","25.485","3.143","7.58","1.193","4.034","0.28","0.22","29.5871","4.67502","33.83","0","SATNPRO1962","24.064","0.3371","5"],
    [29186,"HCEP03730560","2024-07-28 07:30:00","10.2511","3.29606","25.618","3.116","7.58","1.2","4.535","0.23","0.69","29.5883","4.67512","33.54","0","SATNPRO1962","24.03","0.33658","5"],
    [29187,"HCEP03730560","2024-07-28 07:45:00","10.2663","3.29782","25.765","3.163","7.59","1.169","4.138","0.2","0.62","29.5933","4.67559","34.06","0","SATNPRO1962","24.214","0.33916","5"],
    [29188,"HCEP03730560","2024-07-28 08:00:00","10.2868","3.29973","25.87","3.358","7.6","1.044","4.159","0.22","1.88","29.5955","4.67559","36.17","0","SATNPRO1962","24.669999999999998","0.34552","5"],
    [29189,"HCEP03730560","2024-07-28 08:15:00","10.2945","3.3003","25.965","3.45","7.61","1.07","3.7","0.17","0.91","29.5949","4.67537","37.17","0","SATNPRO1962","24.612","0.3447","5"],
    [29190,"HCEP03730560","2024-07-28 08:30:00","10.2928","3.30007","26.194","3.478","7.61","1.042","3.54","0.23","0.14","29.5939","4.67527","37.46","0","SATNPRO1962","24.668","0.34552","5"],
    [29191,"HCEP03730560","2024-07-28 08:45:00","10.3086","3.30158","26.357","3.536","7.62","1.122","3.87","0.19","1.16","29.596","4.67532","38.11","0","SATNPRO1962","24.852","0.34808","5"],
    [29192,"HCEP03730560","2024-07-28 09:00:00","10.2656","3.2974","26.472","3.448","7.6","1.163","5.139","0.16","1.86","29.5894","4.67509","37.13","0","SATNPRO1962","24.232","0.33942","5"],
    [29193,"HCEP03730560","2024-07-28 09:15:00","10.2565","3.29642","26.601","3.213","7.58","1.235","5.044","0.2","0.92","29.587","4.67491","34.59","0","SATNPRO1962","24.074","0.3372","5"],
    [29194,"HCEP03730560","2024-07-28 09:30:00","10.2578","3.29652","26.708","3.129","7.58","1.186","4.657","0.16","0.52","29.587","4.67489","33.68","0","SATNPRO1962","24.086","0.33736","5"],
    [29195,"HCEP03730560","2024-07-28 09:45:00","10.2579","3.29642","26.772","3.116","7.58","1.159","4.567","0.11","0.53","29.5858","4.67472","33.54","0","SATNPRO1962","24.006","0.33622","5"],
    [29196,"HCEP03730560","2024-07-28 10:00:00","10.2673","3.29723","26.84","3.153","7.58","1.089","5.311","0.09","1.52","29.5862","4.67462","33.95","0","SATNPRO1962","24.148","0.33826","5"],
    [29197,"HCEP03730560","2024-07-28 10:15:00","10.2735","3.29773","26.899","3.218","7.58","1.081","5.26","0.08","1.44","29.586","4.6745","34.66","0","SATNPRO1962","24.274","0.34002","5"],
    [29198,"HCEP03730560","2024-07-28 10:30:00","10.2748","3.29778","26.912","3.246","7.59","1.097","5.579","0.16","1.04","29.5855","4.67442","34.95","0","SATNPRO1962","24.178","0.33866","5"],
    [29199,"HCEP03730560","2024-07-28 10:45:00","10.2733","3.29744","26.986","3.216","7.58","1.021","5.186","0.11","1.65","29.5833","4.67413","34.63","0","SATNPRO1962","24.062","0.33704","5"],
    [29200,"HCEP03730560","2024-07-28 11:00:00","10.2693","3.29693","26.929","3.187","7.58","1.021","5.012","0.1","1","29.5815","4.67393","34.31","0","SATNPRO1962","24.06","0.33704","5"],
    [29201,"HCEP03730560","2024-07-28 11:15:00","10.27","3.29686","26.937","3.174","7.58","1.012","3.864","0.11","0.51","29.5803","4.67374","34.18","0","SATNPRO1962","24.098","0.33752","5"],
    [29202,"HCEP03730560","2024-07-28 11:30:00","10.2704","3.29668","26.873","3.188","7.58","1.033","3.992","0.22","0.25","29.5782","4.67344","34.32","0","SATNPRO1962","24.04","0.33676","5"],
    [29203,"HCEP03730560","2024-07-28 11:45:00","10.2665","3.29627","26.861","3.157","7.58","1.031","3.976","0.13","0.3","29.5772","4.67337","33.99","0","SATNPRO1962","23.926000000000002","0.33508","5"],
    [29204,"HCEP03730560","2024-07-28 12:00:00","10.2666","3.29619","26.85","3.119","7.57","1.072","3.994","0.19","0.31","29.5765","4.67325","33.58","0","SATNPRO1962","23.864","0.33422","5"],
    [29205,"HCEP03730560","2024-07-28 12:15:00","10.2621","3.29577","26.852","3.103","7.57","1.093","4.798","0.22","2.58","29.5759","4.67325","33.4","0","SATNPRO1962","23.81","0.3335","5"],
    [29206,"HCEP03730560","2024-07-28 12:30:00","10.2547","3.29498","26.816","3.058","7.57","1.096","4.065","0.3","0.3","29.5741","4.67311","32.91","0","SATNPRO1962","23.722","0.33226","5"],
    [29207,"HCEP03730560","2024-07-28 12:45:00","10.2536","3.29486","26.768","3.007","7.56","0.961","3.82","0.14","0.2","29.5737","4.67307","32.36","0","SATNPRO1962","23.61","0.33068","5"],
    [29208,"HCEP03730560","2024-07-28 13:00:00","10.2576","3.29506","26.675","2.993","7.56","1.045","4.088","0.29","0.6","29.5725","4.67283","32.22","0","SATNPRO1962","23.676","0.3316","5"],
    [29209,"HCEP03730560","2024-07-28 13:15:00","10.2543","3.29446","26.621","2.981","7.56","1.009","4.78","0.17","3.45","29.5693","4.67243","32.09","0","SATNPRO1962","23.588","0.33038","5"],
    [29210,"HCEP03730560","2024-07-28 13:30:00","10.2505","3.29406","26.603","2.955","7.56","1.046","3.882","0.29","0.33","29.5684","4.67235","31.8","0","SATNPRO1962","23.668","0.33154","5"],
    [29211,"HCEP03730560","2024-07-28 13:45:00","10.2505","3.29397","26.558","2.937","7.56","1.066","4.69","0.32","1.85","29.5676","4.67223","31.6","0","SATNPRO1962","23.588","0.3304","5"],
    [29212,"HCEP03730560","2024-07-28 14:00:00","10.2522","3.29412","26.516","2.935","7.56","0.925","3.83","0.12","0.49","29.5676","4.67221","31.58","0","SATNPRO1962","24.302","0.3404","5"],
    [29213,"HCEP03730560","2024-07-28 14:15:00","10.2466","3.2935","26.448","2.923","7.55","0.991","3.656","0.18","0.61","29.5662","4.67209","31.46","0","SATNPRO1962","23.554","0.32992","5"],
    [29214,"HCEP03730560","2024-07-28 14:30:00","10.2346","3.29233","26.382","2.878","7.55","0.951","5.166","0.26","4.09","29.5643","4.67202","30.97","0","SATNPRO1962","23.516","0.32938","5"],
    [29215,"HCEP03730560","2024-07-28 14:45:00","10.2212","3.29112","26.307","2.847","7.55","0.849","3.9","0.13","1.44","29.5631","4.67206","30.61","0","SATNPRO1962","23.618","0.33086","5"],
    [29216,"HCEP03730560","2024-07-28 15:00:00","10.2166","3.29094","26.217","2.861","7.55","0.8","3.57","0.12","0.41","29.5652","4.67243","30.77","0","SATNPRO1962","23.834","0.33386","5"],
    [29217,"HCEP03730560","2024-07-28 15:15:00","10.2135","3.29089","26.172","2.879","7.55","0.771","3.526","0.09","0.6","29.5673","4.67277","30.96","0","SATNPRO1962","23.772000000000002","0.33296","5"],
    [29218,"HCEP03730560","2024-07-28 15:30:00","10.212","3.29082","26.116","2.874","7.55","0.773","4.008","0.09","1.49","29.5678","4.67287","30.9","0","SATNPRO1962","23.631999999999998","0.33104","5"],
    [29219,"HCEP03730560","2024-07-28 15:45:00","10.2102","3.29058","26.13","2.855","7.55","0.864","3.765","0.13","0.23","29.5669","4.67277","30.7","0","SATNPRO1962","23.774","0.33298","5"],
    [29220,"HCEP03730560","2024-07-28 16:00:00","10.2112","3.29049","26.149","2.85","7.55","0.775","4.757","0.12","2.51","29.5651","4.6725","30.64","0","SATNPRO1962","23.854","0.33412","5"],
    [29221,"HCEP03730560","2024-07-28 16:15:00","10.2108","3.29037","26.15","2.881","7.55","0.813","4.083","0.1","1.51","29.5642","4.67238","30.97","0","SATNPRO1962","23.858","0.33414","5"],
    [29222,"HCEP03730560","2024-07-28 16:30:00","10.2105","3.29029","26.171","2.897","7.55","0.725","3.343","0.08","0.2","29.5637","4.67231","31.15","0","SATNPRO1962","24.054000000000002","0.33694","5"],
    [29223,"HCEP03730560","2024-07-28 16:45:00","10.2102","3.29019","26.197","2.902","7.55","0.847","3.517","0.31","1.02","29.563","4.67222","31.2","0","SATNPRO1962","24.078","0.33724","5"],
    [29224,"HCEP03730560","2024-07-28 17:00:00","10.2102","3.29003","26.23","2.907","7.55","0.808","4.28","0.26","1.47","29.5614","4.67199","31.25","0","SATNPRO1962","24.04","0.33672","5"],
    [29225,"HCEP03730560","2024-07-28 17:15:00","10.2105","3.29004","26.266","2.904","7.55","0.743","3.223","0.14","0.91","29.5611","4.67195","31.22","0","SATNPRO1962","24.05","0.33686","5"],
    [29226,"HCEP03730560","2024-07-28 17:30:00","10.2103","3.28995","26.352","2.906","7.55","0.736","3.556","0.14","0.88","29.5605","4.67187","31.24","0","SATNPRO1962","24.082","0.3373","5"],
    [29227,"HCEP03730560","2024-07-28 17:45:00","10.2099","3.28983","26.41","2.899","7.55","0.79","3.171","0.14","0.2","29.5595","4.67174","31.16","0","SATNPRO1962","24.064","0.33708","5"],
    [29228,"HCEP03730560","2024-07-28 18:00:00","10.2084","3.28952","26.496","2.888","7.55","0.685","3.279","0.08","0.54","29.5576","4.6715","31.04","0","SATNPRO1962","24.052","0.33692","5"],
    [29229,"HCEP03730560","2024-07-28 18:15:00","10.2076","3.28932","26.58","2.878","7.55","0.845","2.926","0.27","0.16","29.5562","4.67132","30.94","0","SATNPRO1962","24.102","0.3376","5"],
    [29230,"HCEP03730560","2024-07-28 18:30:00","10.2068","3.28913","26.688","2.854","7.55","0.754","3.38","0.12","0.56","29.555","4.67116","30.68","0","SATNPRO1962","24.13","0.33794","5"],
    [29231,"HCEP03730560","2024-07-28 18:45:00","10.2082","3.28902","26.82","2.827","7.55","0.715","3.289","0.12","1.52","29.5527","4.67081","30.39","0","SATNPRO1962","23.916","0.33498","5"],
    [29232,"HCEP03730560","2024-07-28 19:00:00","10.209","3.28892","26.927","2.804","7.54","0.696","2.905","0.15","0.19","29.551","4.67057","30.14","0","SATNPRO1962","23.752000000000002","0.33268","5"],
    [29233,"HCEP03730560","2024-07-28 19:15:00","10.2074","3.28874","27.047","2.768","7.54","0.855","3.343","0.55","0.23","29.5505","4.67053","29.76","0","SATNPRO1962","23.776","0.33302","5"],
    [29234,"HCEP03730560","2024-07-28 19:30:00","10.206","3.28857","27.149","2.733","7.54","0.72","3.422","0.21","0.14","29.5499","4.67047","29.38","0","SATNPRO1962","23.698","0.33196","5"],
    [29235,"HCEP03730560","2024-07-28 19:45:00","10.2054","3.28847","27.25","2.703","7.54","0.631","3.059","0.09","0.22","29.5493","4.67041","29.05","0","SATNPRO1962","23.626","0.3309","5"],
    [29236,"HCEP03730560","2024-07-28 20:00:00","10.2055","3.28847","27.359","2.684","7.53","0.695","3.263","0.12","0.13","29.5492","4.67039","28.85","0","SATNPRO1962","23.694","0.33188","5"],
    [29237,"HCEP03730560","2024-07-28 20:15:00","10.2049","3.28842","27.468","2.676","7.53","0.809","3.149","0.19","0.12","29.5491","4.6704","28.76","0","SATNPRO1962","23.602","0.33062","5"],
    [29238,"HCEP03730560","2024-07-28 20:30:00","10.2046","3.28832","27.552","2.668","7.53","0.936","3.119","0.44","0.22","29.5484","4.67031","28.68","0","SATNPRO1962","23.606","0.33068","5"],
    [29239,"HCEP03730560","2024-07-28 20:45:00","10.203","3.28814","27.632","2.651","7.53","0.709","2.803","0.25","0.13","29.5479","4.67026","28.5","0","SATNPRO1962","23.532","0.32958","5"],
    [29240,"HCEP03730560","2024-07-28 21:00:00","10.2066","3.2884","27.708","2.658","7.53","0.662","2.619","0.24","0.2","29.5474","4.67015","28.57","0","SATNPRO1962","23.796","0.33332","5"],
    [29241,"HCEP03730560","2024-07-28 21:15:00","10.207","3.28851","27.768","2.686","7.53","0.554","2.466","0.05","0.04","29.5482","4.67025","28.87","0","SATNPRO1962","23.804000000000002","0.33338","5"],
    [29242,"HCEP03730560","2024-07-28 21:30:00","10.203","3.28812","27.829","2.672","7.53","0.604","2.895","0.1","0.18","29.5476","4.67023","28.72","0","SATNPRO1962","23.618000000000002","0.3308","5"],
    [29243,"HCEP03730560","2024-07-28 21:45:00","10.2013","3.28808","27.872","2.627","7.53","0.702","3.014","0.16","0.34","29.5485","4.67039","28.24","0","SATNPRO1962","23.566","0.33008","5"],
    [29244,"HCEP03730560","2024-07-28 22:00:00","10.203","3.28812","27.889","2.624","7.53","0.599","2.765","0.09","0.14","29.5476","4.67024","28.2","0","SATNPRO1962","23.77","0.33294","5"],
    [29245,"HCEP03730560","2024-07-28 22:15:00","10.2032","3.28824","27.899","2.642","7.53","0.717","2.812","0.16","0.34","29.5486","4.67037","28.4","0","SATNPRO1962","23.76","0.33276","5"],
    [29246,"HCEP03730560","2024-07-28 22:30:00","10.2034","3.28835","27.9","2.661","7.53","0.615","2.795","0.11","0.18","29.5494","4.67049","28.6","0","SATNPRO1962","23.776","0.333","5"],
    [29247,"HCEP03730560","2024-07-28 22:45:00","10.2032","3.28854","27.867","2.677","7.53","0.819","3.063","0.26","0.22","29.5515","4.67079","28.78","0","SATNPRO1962","23.81","0.33348","5"],
    [29248,"HCEP03730560","2024-07-28 23:00:00","10.2064","3.28892","27.832","2.739","7.54","0.558","2.721","0.1","0.17","29.5527","4.67091","29.44","0","SATNPRO1962","23.916","0.33498","5"],
    [29249,"HCEP03730560","2024-07-28 23:15:00","10.2072","3.28949","27.784","2.736","7.54","0.781","3.725","0.13","0.34","29.5577","4.6716","29.41","0","SATNPRO1962","23.608","0.33068","5"],
    [29250,"HCEP03730560","2024-07-28 23:30:00","10.2095","3.28983","27.721","2.693","7.53","0.989","3.95","0.29","0.16","29.5593","4.67179","28.95","0","SATNPRO1962","23.6","0.33054","5"],
    [29251,"HCEP03730560","2024-07-28 23:45:00","10.2113","3.29006","27.64","2.688","7.54","0.988","4.051","0.29","0.22","29.5601","4.67187","28.9","0","SATNPRO1962","23.412","0.32792","5"],
    [29252,"HCEP03730560","2024-07-29 00:00:00","10.2127","3.2902","27.54","2.702","7.54","0.77","3.889","0.14","0.2","29.5605","4.6719","29.06","0","SATNPRO1962","23.554","0.32994","5"],
    [29253,"HCEP03730560","2024-07-29 00:15:00","10.2137","3.29036","27.415","2.719","7.54","0.907","3.514","0.51","0.21","29.5613","4.672","29.24","0","SATNPRO1962","23.756","0.33272","5"],
    [29254,"HCEP03730560","2024-07-29 00:30:00","10.2161","3.29059","27.277","2.734","7.54","0.72","3.796","0.19","0.35","29.5617","4.672","29.4","0","SATNPRO1962","23.71","0.33212","5"],
    [29255,"HCEP03730560","2024-07-29 00:45:00","10.2174","3.29071","27.133","2.74","7.54","1.225","3.817","0.58","0.29","29.5619","4.672","29.47","0","SATNPRO1962","23.666","0.33148","5"],
    [29256,"HCEP03730560","2024-07-29 01:00:00","10.2202","3.29099","26.976","2.754","7.54","0.794","3.451","0.27","0.2","29.5624","4.67202","29.61","0","SATNPRO1962","23.474","0.32876","5"],
    [29257,"HCEP03730560","2024-07-29 01:15:00","10.2233","3.29125","26.814","2.771","7.54","0.726","3.285","0.14","0.21","29.5626","4.67198","29.8","0","SATNPRO1962","23.638","0.33108","5"],
    [29258,"HCEP03730560","2024-07-29 01:30:00","10.2253","3.29137","26.621","2.779","7.54","0.687","3.233","0.07","0.25","29.5622","4.67188","29.89","0","SATNPRO1962","23.696","0.33192","5"],
    [29259,"HCEP03730560","2024-07-29 01:45:00","10.2269","3.29152","26.422","2.768","7.54","0.834","3.214","0.25","0.1","29.5624","4.67188","29.77","0","SATNPRO1962","23.616","0.3308","5"],
    [29260,"HCEP03730560","2024-07-29 02:00:00","10.2292","3.29175","26.213","2.783","7.54","0.757","3.583","0.17","0.3","29.5629","4.67189","29.93","0","SATNPRO1962","23.656","0.33136","5"],
    [29261,"HCEP03730560","2024-07-29 02:15:00","10.2303","3.2918","26.012","2.8","7.54","0.881","3.544","0.29","0.13","29.5627","4.67184","30.12","0","SATNPRO1962","23.758","0.3328","5"],
    [29262,"HCEP03730560","2024-07-29 02:30:00","10.2317","3.29198","25.806","2.806","7.55","0.693","3.476","0.15","0.29","29.5634","4.67191","30.18","0","SATNPRO1962","23.64","0.33112","5"],
    [29263,"HCEP03730560","2024-07-29 02:45:00","10.2326","3.29196","25.594","2.817","7.54","0.688","3.167","0.09","0.18","29.5625","4.67175","30.3","0","SATNPRO1962","23.768","0.3329","5"],
    [29264,"HCEP03730560","2024-07-29 03:00:00","10.2375","3.29236","25.381","2.816","7.55","0.928","3.267","0.23","0.25","29.5626","4.67166","30.3","0","SATNPRO1962","23.812","0.3335","5"],
    [29265,"HCEP03730560","2024-07-29 03:15:00","10.244","3.2929","25.195","2.845","7.55","0.677","2.795","0.11","0.1","29.5628","4.67157","30.61","0","SATNPRO1962","23.894","0.33468","5"],
    [29266,"HCEP03730560","2024-07-29 03:30:00","10.2524","3.29365","24.994","2.881","7.55","0.809","3.135","0.22","0.29","29.5635","4.67153","31.01","0","SATNPRO1962","23.71","0.33208","5"],
    [29267,"HCEP03730560","2024-07-29 03:45:00","10.2558","3.29394","24.833","2.908","7.55","0.868","3.021","0.24","0.42","29.5637","4.67149","31.3","0","SATNPRO1962","23.904","0.33486","5"],
    [29268,"HCEP03730560","2024-07-29 04:00:00","10.2534","3.29375","24.705","2.913","7.55","0.666","2.811","0.18","0.1","29.5637","4.67153","31.35","0","SATNPRO1962","23.91","0.3349","5"],
    [29269,"HCEP03730560","2024-07-29 04:15:00","10.2526","3.29369","24.598","2.906","7.55","0.691","2.807","0.12","0.11","29.5639","4.67156","31.27","0","SATNPRO1962","23.922","0.33508","5"],
    [29270,"HCEP03730560","2024-07-29 04:30:00","10.2547","3.29389","24.507","2.907","7.55","0.671","2.734","0.12","0.11","29.5642","4.67156","31.29","0","SATNPRO1962","23.88","0.33446","5"],
    [29271,"HCEP03730560","2024-07-29 04:45:00","10.2519","3.29359","24.428","2.909","7.55","0.674","2.707","0.11","0.09","29.5636","4.67152","31.3","0","SATNPRO1962","23.788","0.33318","5"],
    [29272,"HCEP03730560","2024-07-29 05:00:00","10.2564","3.29406","24.388","2.909","7.55","0.657","2.969","0.09","0.14","29.5645","4.67158","31.31","0","SATNPRO1962","23.738","0.33252","5"],
    [29273,"HCEP03730560","2024-07-29 05:15:00","10.2643","3.29478","24.352","2.927","7.56","0.717","2.854","0.12","0.11","29.5653","4.67156","31.51","0","SATNPRO1962","23.854","0.33414","5"],
    [29274,"HCEP03730560","2024-07-29 05:30:00","10.2807","3.29634","24.324","2.971","7.56","0.698","2.951","0.13","0.12","29.5674","4.67158","31.99","0","SATNPRO1962","23.72","0.33224","5"],
    [29275,"HCEP03730560","2024-07-29 05:45:00","10.3009","3.2981","24.343","3.041","7.57","0.824","2.968","0.11","0.15","29.5685","4.67141","32.76","0","SATNPRO1962","23.894000000000002","0.33466","5"],
    [29276,"HCEP03730560","2024-07-29 06:00:00","10.3253","3.30026","24.366","3.123","7.57","0.939","3.483","0.23","0.17","29.5701","4.67125","33.66","0","SATNPRO1962","24.06","0.337","5"],
    [29277,"HCEP03730560","2024-07-29 06:15:00","10.3612","3.30381","24.387","3.26","7.59","0.942","3.04","0.17","0.11","29.5761","4.67153","35.17","0","SATNPRO1962","24.158","0.33836","5"],
    [29278,"HCEP03730560","2024-07-29 06:30:00","10.3669","3.30407","24.448","3.366","7.6","1.015","3.508","0.21","0.1","29.574","4.67114","36.31","0","SATNPRO1962","24.068","0.3371","5"],
    [29279,"HCEP03730560","2024-07-29 06:45:00","10.3751","3.3049","24.532","3.428","7.6","1","3.418","0.14","0.47","29.5755","4.67122","36.99","0","SATNPRO1962","24.264","0.33986","5"],
    [29280,"HCEP03730560","2024-07-29 07:00:00","10.3655","3.30392","24.669","3.424","7.6","1.091","3.931","0.28","0.15","29.5736","4.6711","36.94","0","SATNPRO1962","24.164","0.33846","5"],
    [29281,"HCEP03730560","2024-07-29 07:15:00","10.353","3.3032","24.775","3.333","7.59","1.235","4.271","0.23","0.32","29.5765","4.67174","35.95","0","SATNPRO1962","23.918","0.33502","5"],
    [29282,"HCEP03730560","2024-07-29 07:30:00","10.359","3.30347","24.935","3.319","7.59","1.159","3.757","0.29","0.14","29.5743","4.67133","35.8","0","SATNPRO1962","23.898","0.33474","5"],
    [29283,"HCEP03730560","2024-07-29 07:45:00","10.357","3.3032","25.067","3.308","7.59","1.264","4.205","0.23","0.18","29.5732","4.67121","35.68","0","SATNPRO1962","23.830000000000002","0.33376","5"],
    [29284,"HCEP03730560","2024-07-29 08:00:00","10.3574","3.30339","25.17","3.264","7.59","1.218","4.709","0.25","0.41","29.5748","4.67144","35.21","0","SATNPRO1962","23.826","0.33368","5"],
    [29285,"HCEP03730560","2024-07-29 08:15:00","10.3614","3.30404","25.294","3.313","7.6","1.096","3.771","0.16","0.18","29.5779","4.67182","35.74","0","SATNPRO1962","24.07","0.33714","5"],
    [29286,"HCEP03730560","2024-07-29 08:30:00","10.3494","3.30285","25.421","3.31","7.59","1.007","4.224","0.09","0.11","29.5757","4.67172","35.7","0","SATNPRO1962","23.754","0.33272","5"],
    [29287,"HCEP03730560","2024-07-29 08:45:00","10.338","3.30183","25.632","3.232","7.58","1.064","4.06","0.15","0.12","29.5748","4.67178","34.85","0","SATNPRO1962","23.676","0.33162","5"],
    [29288,"HCEP03730560","2024-07-29 09:00:00","10.3328","3.30135","25.733","3.181","7.58","0.974","4.362","0.07","0.17","29.5742","4.67179","34.29","0","SATNPRO1962","23.704","0.332","5"],
    [29289,"HCEP03730560","2024-07-29 09:15:00","10.3214","3.30019","25.889","3.126","7.57","1.058","4.234","0.14","0.15","29.572","4.67167","33.69","0","SATNPRO1962","23.512","0.32932","5"],
    [29290,"HCEP03730560","2024-07-29 09:30:00","10.3159","3.29966","26.004","3.06","7.57","1.002","4.611","0.11","0.33","29.571","4.67163","32.97","0","SATNPRO1962","23.544","0.32976","5"],
    [29291,"HCEP03730560","2024-07-29 09:45:00","10.307","3.29867","26.103","3.015","7.57","1.094","4.477","0.15","0.29","29.5685","4.67142","32.49","0","SATNPRO1962","23.486","0.32898","5"],
    [29292,"HCEP03730560","2024-07-29 10:00:00","10.2971","3.29776","26.265","2.973","7.56","0.932","4.195","0.1","0.2","29.5675","4.67144","32.03","0","SATNPRO1962","23.392","0.32768","5"],
    [29293,"HCEP03730560","2024-07-29 10:15:00","10.2963","3.29749","26.383","2.978","7.56","0.93","3.991","0.19","0.31","29.5654","4.67116","32.07","0","SATNPRO1962","23.474","0.3288","5"],
    [29294,"HCEP03730560","2024-07-29 10:30:00","10.2672","3.2943","26.5","2.939","7.56","0.833","3.849","0.08","0.23","29.5572","4.67048","31.64","0","SATNPRO1962","23.574","0.3302","5"],
    [29295,"HCEP03730560","2024-07-29 10:45:00","10.2198","3.28887","26.71","2.659","7.53","0.785","3.659","0.1","0.16","29.5417","4.66906","28.59","0","SATNPRO1962","23.008","0.32228","5"],
    [29296,"HCEP03730560","2024-07-29 11:00:00","10.2134","3.28822","26.856","2.428","7.52","0.695","3.683","0.05","0.23","29.5405","4.66899","26.11","0","SATNPRO1962","22.983999999999998","0.32196","5"],
    [29297,"HCEP03730560","2024-07-29 11:15:00","10.2136","3.28777","26.889","2.396","7.51","0.778","3.627","0.07","0.15","29.5358","4.66833","25.76","0","SATNPRO1962","22.898","0.3207","5"],
    [29298,"HCEP03730560","2024-07-29 11:30:00","10.2124","3.28761","26.988","2.376","7.51","0.729","3.619","0.07","0.22","29.5352","4.66826","25.54","0","SATNPRO1962","22.954","0.3215","5"],
    [29299,"HCEP03730560","2024-07-29 11:45:00","10.2129","3.28746","27.06","2.364","7.51","0.727","3.255","0.06","0.1","29.5333","4.66799","25.42","0","SATNPRO1962","23.012","0.32232","5"],
    [29300,"HCEP03730560","2024-07-29 12:00:00","10.2053","3.28679","27.126","2.334","7.5","0.639","3.218","0.05","0.11","29.5327","4.66802","25.08","0","SATNPRO1962","22.776","0.31904","5"],
    [29301,"HCEP03730560","2024-07-29 12:15:00","10.1993","3.28625","27.163","2.275","7.5","0.663","2.951","0.06","0.1","29.5322","4.66806","24.45","0","SATNPRO1962","22.792","0.31924","5"],
    [29302,"HCEP03730560","2024-07-29 12:30:00","10.195","3.28596","27.147","2.222","7.49","0.63","3.274","0.06","0.13","29.5328","4.66821","23.88","0","SATNPRO1962","22.6","0.31656","5"],
    [29303,"HCEP03730560","2024-07-29 12:45:00","10.193","3.28571","27.143","2.164","7.49","0.662","3.204","0.05","0.12","29.532","4.66813","23.26","0","SATNPRO1962","22.474","0.31478","5"],
    [29304,"HCEP03730560","2024-07-29 13:00:00","10.1938","3.28573","27.207","2.141","7.49","0.67","3.442","0.13","0.15","29.5315","4.66805","23.01","0","SATNPRO1962","22.406","0.31384","5"],
    [29305,"HCEP03730560","2024-07-29 13:15:00","10.1927","3.28567","27.242","2.126","7.49","0.638","3.129","0.05","0.12","29.5318","4.66811","22.85","0","SATNPRO1962","22.472","0.31474","5"],
    [29306,"HCEP03730560","2024-07-29 13:30:00","10.1929","3.28566","27.189","2.108","7.48","0.604","3.243","0.06","0.13","29.5316","4.66808","22.65","0","SATNPRO1962","22.31","0.31248","5"],
    [29307,"HCEP03730560","2024-07-29 13:45:00","10.1956","3.28586","27.154","2.115","7.49","0.663","3.251","0.08","0.11","29.5313","4.66799","22.73","0","SATNPRO1962","22.372","0.31336","5"],
    [29308,"HCEP03730560","2024-07-29 14:00:00","10.2001","3.28643","27.125","2.166","7.49","0.593","3.261","0.05","0.17","29.5334","4.66821","23.28","0","SATNPRO1962","22.599999999999998","0.31652","5"],
    [29309,"HCEP03730560","2024-07-29 14:15:00","10.2077","3.28726","27.093","2.242","7.5","0.644","3.076","0.05","0.12","29.5355","4.66838","24.1","0","SATNPRO1962","22.722","0.31828","5"],
    [29310,"HCEP03730560","2024-07-29 14:30:00","10.2039","3.28685","27.07","2.27","7.49","0.626","3.611","0.06","0.17","29.5345","4.6683","24.4","0","SATNPRO1962","22.59","0.31638","5"],
    [29311,"HCEP03730560","2024-07-29 14:45:00","10.2228","3.28924","27.013","2.346","7.51","0.665","3.034","0.08","0.12","29.5429","4.66919","25.23","0","SATNPRO1962","23.072","0.3232","5"],
    [29312,"HCEP03730560","2024-07-29 15:00:00","10.2267","3.28968","26.968","2.488","7.51","0.612","3.193","0.06","0.2","29.5441","4.66929","26.76","0","SATNPRO1962","23.194","0.32488","5"],
    [29313,"HCEP03730560","2024-07-29 15:15:00","10.2259","3.28955","26.924","2.524","7.52","0.719","3.205","0.11","0.18","29.5435","4.66922","27.14","0","SATNPRO1962","23.116","0.32376","5"],
    [29314,"HCEP03730560","2024-07-29 15:30:00","10.2245","3.28938","26.959","2.512","7.52","0.654","3.632","0.06","0.16","29.5429","4.66916","27.01","0","SATNPRO1962","23.08","0.32326","5"],
    [29315,"HCEP03730560","2024-07-29 15:45:00","10.2224","3.28907","26.937","2.483","7.51","0.713","3.212","0.11","0.07","29.5415","4.669","26.7","0","SATNPRO1962","23.08","0.32324","5"],
    [29316,"HCEP03730560","2024-07-29 16:00:00","10.2186","3.28854","26.856","2.442","7.51","0.627","3.34","0.07","0.19","29.5394","4.66875","26.26","0","SATNPRO1962","22.996","0.3221","5"],
    [29317,"HCEP03730560","2024-07-29 16:15:00","10.2178","3.28836","26.824","2.403","7.51","0.697","3.349","0.09","0.21","29.5383","4.66861","25.83","0","SATNPRO1962","22.934","0.32122","5"],
    [29318,"HCEP03730560","2024-07-29 16:30:00","10.218","3.28829","26.763","2.387","7.51","0.678","3.404","0.09","0.2","29.5375","4.66848","25.67","0","SATNPRO1962","22.87","0.32034","5"],
    [29319,"HCEP03730560","2024-07-29 16:45:00","10.2183","3.28842","26.733","2.378","7.51","0.703","3.421","0.09","0.21","29.5386","4.66863","25.57","0","SATNPRO1962","22.852","0.32008","5"],
    [29320,"HCEP03730560","2024-07-29 17:00:00","10.2194","3.28867","26.715","2.377","7.51","0.785","4.038","0.27","1.23","29.5401","4.66883","25.55","0","SATNPRO1962","22.852","0.3201","5"],
    [29321,"HCEP03730560","2024-07-29 17:15:00","10.224","3.2892","26.718","2.387","7.51","0.844","3.608","0.17","0.22","29.5416","4.66897","25.66","0","SATNPRO1962","22.872","0.32038","5"],
    [29322,"HCEP03730560","2024-07-29 17:30:00","10.2338","3.29028","26.707","2.435","7.51","0.729","3.812","0.11","0.97","29.5445","4.66922","26.19","0","SATNPRO1962","23.156","0.32436","5"],
    [29323,"HCEP03730560","2024-07-29 17:45:00","10.2351","3.29022","26.705","2.481","7.52","0.738","3.567","0.16","0.22","29.5428","4.66895","26.69","0","SATNPRO1962","23.056","0.32294","5"],
    [29324,"HCEP03730560","2024-07-29 18:00:00","10.2339","3.29037","26.715","2.485","7.52","0.699","3.741","0.13","0.18","29.5452","4.66932","26.72","0","SATNPRO1962","23.116","0.32382","5"],
    [29325,"HCEP03730560","2024-07-29 18:15:00","10.233","3.29022","26.732","2.483","7.52","0.777","4.053","0.22","0.74","29.5445","4.66923","26.7","0","SATNPRO1962","23.06","0.32302","5"],
    [29326,"HCEP03730560","2024-07-29 18:30:00","10.2289","3.28977","26.765","2.466","7.51","0.751","4.069","0.12","0.37","29.5433","4.66914","26.52","0","SATNPRO1962","23.126","0.3239","5"],
    [29327,"HCEP03730560","2024-07-29 18:45:00","10.2294","3.28974","26.813","2.433","7.51","0.817","4.139","0.15","0.62","29.5425","4.66902","26.17","0","SATNPRO1962","22.904","0.3208","5"],
    [29328,"HCEP03730560","2024-07-29 19:00:00","10.2271","3.28941","26.86","2.419","7.51","0.749","4.108","0.1","0.2","29.5411","4.66885","26.01","0","SATNPRO1962","23.022000000000002","0.32246","5"],
    [29329,"HCEP03730560","2024-07-29 19:15:00","10.2257","3.28909","26.905","2.411","7.51","0.752","3.904","0.17","0.39","29.539","4.66859","25.93","0","SATNPRO1962","22.906","0.32084","5"],
    [29330,"HCEP03730560","2024-07-29 19:30:00","10.2234","3.28878","26.946","2.39","7.51","0.653","3.71","0.06","0.29","29.5378","4.66845","25.7","0","SATNPRO1962","22.756","0.31874","5"],
    [29331,"HCEP03730560","2024-07-29 19:45:00","10.2276","3.28908","26.974","2.395","7.51","0.732","3.31","0.16","0.2","29.5374","4.66833","25.75","0","SATNPRO1962","22.914","0.32094","5"],
    [29332,"HCEP03730560","2024-07-29 20:00:00","10.2304","3.2894","27.034","2.406","7.51","0.694","3.618","0.11","0.22","29.5382","4.6684","25.88","0","SATNPRO1962","22.994","0.32208","5"],
    [29333,"HCEP03730560","2024-07-29 20:15:00","10.2345","3.28987","27.092","2.432","7.51","0.768","3.499","0.13","0.22","29.5396","4.66854","26.15","0","SATNPRO1962","23.046","0.32282","5"],
    [29334,"HCEP03730560","2024-07-29 20:30:00","10.2397","3.29046","27.147","2.471","7.51","0.751","3.499","0.17","0.16","29.5413","4.66869","26.58","0","SATNPRO1962","23.122","0.32382","5"],
    [29335,"HCEP03730560","2024-07-29 20:45:00","10.2384","3.29036","27.213","2.486","7.51","0.791","3.814","0.18","0.29","29.5413","4.66871","26.74","0","SATNPRO1962","23.064","0.323","5"],
    [29336,"HCEP03730560","2024-07-29 21:00:00","10.2317","3.28948","27.259","2.428","7.51","0.711","3.852","0.1","0.24","29.538","4.66836","26.11","0","SATNPRO1962","22.81","0.31952","5"],
    [29337,"HCEP03730560","2024-07-29 21:15:00","10.2212","3.28829","27.315","2.327","7.5","0.72","3.533","0.14","0.16","29.5346","4.66805","25.02","0","SATNPRO1962","22.52","0.3154","5"],
    [29338,"HCEP03730560","2024-07-29 21:30:00","10.2195","3.28821","27.345","2.227","7.5","0.695","3.783","0.1","0.18","29.5351","4.66816","23.95","0","SATNPRO1962","22.506","0.31524","5"],
    [29339,"HCEP03730560","2024-07-29 21:45:00","10.2174","3.28817","27.411","2.188","7.49","0.719","3.726","0.09","0.38","29.5365","4.66838","23.53","0","SATNPRO1962","22.394","0.31368","5"],
    [29340,"HCEP03730560","2024-07-29 22:00:00","10.2284","3.28935","27.492","2.198","7.49","0.71","4.105","0.07","0.28","29.5392","4.66861","23.64","0","SATNPRO1962","22.598","0.31654","5"],
    [29341,"HCEP03730560","2024-07-29 22:15:00","10.2401","3.29059","27.553","2.266","7.5","0.819","3.913","0.13","0.22","29.5421","4.66883","24.38","0","SATNPRO1962","22.732","0.31838","5"],
    [29342,"HCEP03730560","2024-07-29 22:30:00","10.2675","3.29348","27.588","2.39","7.51","0.799","4.375","0.11","0.29","29.5484","4.66928","25.72","0","SATNPRO1962","22.996","0.3221","5"],
    [29343,"HCEP03730560","2024-07-29 22:45:00","10.3452","3.30149","27.605","2.72","7.55","0.888","4.268","0.09","0.28","29.5648","4.67035","29.33","0","SATNPRO1962","23.458000000000002","0.32856","5"],
    [29344,"HCEP03730560","2024-07-29 23:00:00","10.3904","3.30597","27.574","3.115","7.58","0.874","4.01","0.16","0.41","29.5725","4.67071","33.62","0","SATNPRO1962","23.977999999999998","0.33584","5"],
    [29345,"HCEP03730560","2024-07-29 23:15:00","10.4116","3.30763","27.578","3.398","7.6","0.927","4.119","0.1","0.27","29.5717","4.67025","36.69","0","SATNPRO1962","24.164","0.3384","5"],
    [29346,"HCEP03730560","2024-07-29 23:30:00","10.422","3.3085","27.58","3.518","7.61","0.996","4.434","0.24","0.77","29.5719","4.67012","38","0","SATNPRO1962","24.27","0.33996","5"],
    [29347,"HCEP03730560","2024-07-29 23:45:00","10.4222","3.30856","27.561","3.568","7.61","0.997","4.314","0.17","0.26","29.5723","4.67017","38.54","0","SATNPRO1962","24.259999999999998","0.33982","5"],
    [29348,"HCEP03730560","2024-07-30 00:00:00","10.4259","3.30894","27.53","3.608","7.62","0.88","3.939","0.13","0.24","29.573","4.67022","38.98","0","SATNPRO1962","24.344","0.341","5"],
    [29349,"HCEP03730560","2024-07-30 00:15:00","10.4266","3.30901","27.484","3.634","7.62","0.96","4.272","0.13","0.24","29.5732","4.67023","39.25","0","SATNPRO1962","24.474","0.34284","5"],
    [29350,"HCEP03730560","2024-07-30 00:30:00","10.4298","3.30927","27.434","3.656","7.62","0.995","4.652","0.26","0.65","29.5732","4.67018","39.5","0","SATNPRO1962","24.456","0.34254","5"],
    [29351,"HCEP03730560","2024-07-30 00:45:00","10.4331","3.30954","27.355","3.679","7.63","0.991","4.362","0.15","0.81","29.5732","4.67012","39.75","0","SATNPRO1962","24.616","0.34478","5"],
    [29352,"HCEP03730560","2024-07-30 01:00:00","10.435","3.30966","27.251","3.714","7.63","1.027","4.489","0.26","0.42","29.573","4.67005","40.14","0","SATNPRO1962","24.55","0.34382","5"],
    [29353,"HCEP03730560","2024-07-30 01:15:00","10.4384","3.30998","27.135","3.75","7.64","0.969","3.751","0.15","0.26","29.5733","4.67004","40.52","0","SATNPRO1962","24.604","0.34458","5"],
    [29354,"HCEP03730560","2024-07-30 01:30:00","10.437","3.30991","27.012","3.784","7.64","1.003","4.165","0.22","0.61","29.5739","4.67014","40.89","0","SATNPRO1962","24.69","0.34584","5"],
    [29355,"HCEP03730560","2024-07-30 01:45:00","10.4336","3.30964","26.87","3.778","7.64","1.142","4.387","0.31","0.56","29.5741","4.6702","40.82","0","SATNPRO1962","24.636","0.34504","5"],
    [29356,"HCEP03730560","2024-07-30 02:00:00","10.4283","3.30926","26.71","3.753","7.63","1.006","3.798","0.23","0.29","29.5746","4.67036","40.55","0","SATNPRO1962","24.4","0.34176","5"],
    [29357,"HCEP03730560","2024-07-30 02:15:00","10.423","3.30889","26.55","3.723","7.63","1.013","3.656","0.21","0.28","29.5753","4.67054","40.22","0","SATNPRO1962","24.498","0.34314","5"],
    [29358,"HCEP03730560","2024-07-30 02:30:00","10.4142","3.30823","26.376","3.659","7.63","0.947","3.964","0.17","0.26","29.576","4.67076","39.52","0","SATNPRO1962","24.376","0.3414","5"],
    [29359,"HCEP03730560","2024-07-30 02:45:00","10.4135","3.30818","26.184","3.613","7.62","0.847","3.498","0.11","0.09","29.5762","4.67079","39.02","0","SATNPRO1962","24.31","0.3405","5"],
    [29360,"HCEP03730560","2024-07-30 03:00:00","10.4152","3.3083","25.988","3.606","7.62","0.816","3.885","0.17","0.24","29.5761","4.67074","38.95","0","SATNPRO1962","24.374","0.34138","5"],
    [29361,"HCEP03730560","2024-07-30 03:15:00","10.4204","3.30862","25.787","3.638","7.63","0.853","3.562","0.1","0.18","29.5751","4.67051","39.3","0","SATNPRO1962","24.466","0.3427","5"],
    [29362,"HCEP03730560","2024-07-30 03:30:00","10.4197","3.30856","25.587","3.653","7.62","0.984","4.366","0.33","0.4","29.5751","4.67051","39.46","0","SATNPRO1962","24.396","0.3417","5"],
    [29363,"HCEP03730560","2024-07-30 03:45:00","10.4179","3.30839","25.364","3.641","7.62","0.878","3.676","0.17","0.24","29.575","4.67051","39.33","0","SATNPRO1962","24.456","0.34256","5"],
    [29364,"HCEP03730560","2024-07-30 04:00:00","10.4166","3.30833","25.143","3.641","7.62","0.917","3.804","0.16","0.17","29.5756","4.6706","39.33","0","SATNPRO1962","24.442","0.34234","5"],
    [29365,"HCEP03730560","2024-07-30 04:15:00","10.416","3.30824","24.951","3.627","7.62","0.932","3.653","0.17","0.22","29.5753","4.67056","39.18","0","SATNPRO1962","24.477999999999998","0.34286","5"],
    [29366,"HCEP03730560","2024-07-30 04:30:00","10.413","3.30806","24.781","3.614","7.62","0.936","3.716","0.29","0.21","29.5759","4.67068","39.04","0","SATNPRO1962","24.524","0.3435","5"],
    [29367,"HCEP03730560","2024-07-30 04:45:00","10.4117","3.30792","24.618","3.601","7.62","0.972","3.646","0.25","0.23","29.5757","4.67066","38.89","0","SATNPRO1962","24.572","0.34416","5"],
    [29368,"HCEP03730560","2024-07-30 05:00:00","10.407","3.30755","24.474","3.6","7.62","0.855","3.441","0.31","0.1","29.5759","4.67076","38.88","0","SATNPRO1962","24.514","0.34334","5"],
    [29369,"HCEP03730560","2024-07-30 05:15:00","10.4089","3.30764","24.365","3.592","7.62","0.738","3.106","0.14","0.17","29.5753","4.67063","38.79","0","SATNPRO1962","24.35","0.34106","5"],
    [29370,"HCEP03730560","2024-07-30 05:30:00","10.3813","3.30489","24.268","3.532","7.61","0.83","3.5","0.17","0.13","29.5705","4.67039","38.12","0","SATNPRO1962","24.208","0.3391","5"],
    [29371,"HCEP03730560","2024-07-30 05:45:00","10.3792","3.30477","24.181","3.427","7.61","0.896","2.957","0.24","0.09","29.5711","4.6705","36.99","0","SATNPRO1962","24.258","0.33974","5"],
    [29372,"HCEP03730560","2024-07-30 06:00:00","10.2609","3.29136","24.147","3.017","7.54","0.72","3.016","0.13","0.1","29.5341","4.66716","32.48","0","SATNPRO1962","22.904","0.32082","5"],
    [29373,"HCEP03730560","2024-07-30 06:15:00","10.2768","3.2929","24.125","2.611","7.53","0.756","3.121","0.12","0.15","29.5365","4.66723","28.11","0","SATNPRO1962","22.983999999999998","0.32194","5"],
    [29374,"HCEP03730560","2024-07-30 06:30:00","10.2632","3.29191","24.121","2.493","7.52","0.683","3.012","0.19","0.07","29.5377","4.66763","26.83","0","SATNPRO1962","22.864","0.32024","5"],
    [29375,"HCEP03730560","2024-07-30 06:45:00","10.3503","3.30267","24.127","2.816","7.57","0.81","3.339","0.17","0.09","29.5737","4.67134","30.38","0","SATNPRO1962","24.242","0.3396","5"],
    [29376,"HCEP03730560","2024-07-30 07:00:00","10.3885","3.3059","24.149","3.254","7.59","0.755","3.614","0.1","0.21","29.5747","4.67086","35.13","0","SATNPRO1962","24.106","0.33764","5"],
    [29377,"HCEP03730560","2024-07-30 07:15:00","10.3887","3.30601","24.197","3.392","7.6","0.826","3.667","0.14","0.33","29.5756","4.671","36.62","0","SATNPRO1962","24.104","0.33758","5"],
    [29378,"HCEP03730560","2024-07-30 07:30:00","10.3836","3.30565","24.284","3.417","7.6","0.79","3.343","0.19","0.15","29.5761","4.67116","36.88","0","SATNPRO1962","24.2","0.33898","5"],
    [29379,"HCEP03730560","2024-07-30 07:45:00","10.3799","3.30546","24.4","3.397","7.6","1.045","4.01","0.31","0.29","29.5772","4.67138","36.66","0","SATNPRO1962","24.2","0.33902","5"],
    [29380,"HCEP03730560","2024-07-30 08:00:00","10.3786","3.30532","24.512","3.377","7.6","0.938","4.059","0.2","0.18","29.5768","4.67135","36.45","0","SATNPRO1962","23.942","0.33534","5"],
    [29381,"HCEP03730560","2024-07-30 08:15:00","10.3824","3.30559","24.612","3.394","7.6","0.813","3.807","0.13","0.51","29.5764","4.67124","36.64","0","SATNPRO1962","24.274","0.34002","5"],
    [29382,"HCEP03730560","2024-07-30 08:30:00","10.3851","3.30569","24.766","3.427","7.6","0.763","3.319","0.21","0.71","29.5751","4.67101","36.99","0","SATNPRO1962","24.224","0.33932","5"],
    [29383,"HCEP03730560","2024-07-30 08:45:00","10.3846","3.30547","24.915","3.438","7.6","0.728","3.174","0.12","0.23","29.5734","4.67078","37.11","0","SATNPRO1962","24.242","0.33954","5"],
    [29384,"HCEP03730560","2024-07-30 09:00:00","10.373","3.30453","25.094","3.382","7.6","0.692","3.009","0.08","0.14","29.5734","4.67098","36.5","0","SATNPRO1962","24.066000000000003","0.3371","5"],
    [29385,"HCEP03730560","2024-07-30 09:15:00","10.376","3.3046","25.249","3.347","7.6","0.838","3.227","0.27","0.14","29.5715","4.67067","36.12","0","SATNPRO1962","24.05","0.33688","5"],
    [29386,"HCEP03730560","2024-07-30 09:30:00","10.3692","3.30372","25.357","3.308","7.59","0.732","3.391","0.07","0.25","29.5683","4.67034","35.69","0","SATNPRO1962","24.032","0.33662","5"],
    [29387,"HCEP03730560","2024-07-30 09:45:00","10.2695","3.29333","25.504","2.991","7.55","0.674","3.284","0.07","0.35","29.5462","4.66881","32.2","0","SATNPRO1962","22.972","0.32176","5"],
    [29388,"HCEP03730560","2024-07-30 10:00:00","10.2928","3.2957","25.666","2.568","7.54","0.838","4.377","0.13","0.33","29.5507","4.66909","27.66","0","SATNPRO1962","23.016","0.32236","5"],
    [29389,"HCEP03730560","2024-07-30 10:15:00","10.2918","3.2959","25.853","2.555","7.53","0.856","4.182","0.1","0.32","29.5534","4.66949","27.52","0","SATNPRO1962","22.68","0.31764","5"],
    [29390,"HCEP03730560","2024-07-30 10:30:00","10.2706","3.29328","26.053","2.492","7.52","0.81","4.328","0.08","0.19","29.5445","4.66859","26.82","0","SATNPRO1962","22.721999999999998","0.31824","5"],
    [29391,"HCEP03730560","2024-07-30 10:45:00","10.2772","3.29422","26.199","2.423","7.52","0.874","4.423","0.11","0.2","29.5485","4.66905","26.08","0","SATNPRO1962","22.62","0.31684","5"],
    [29392,"HCEP03730560","2024-07-30 11:00:00","10.2798","3.29451","26.393","2.433","7.52","0.822","4.557","0.08","0.31","29.5491","4.66911","26.19","0","SATNPRO1962","22.748","0.31862","5"],
    [29393,"HCEP03730560","2024-07-30 11:15:00","10.2908","3.29556","26.521","2.496","7.52","0.798","4.495","0.07","0.32","29.5505","4.66914","26.88","0","SATNPRO1962","22.944","0.32138","5"],
    [29394,"HCEP03730560","2024-07-30 11:30:00","10.289","3.29526","26.684","2.559","7.52","0.715","4.137","0.07","0.15","29.549","4.66896","27.56","0","SATNPRO1962","22.902","0.32078","5"],
    [29395,"HCEP03730560","2024-07-30 11:45:00","10.2898","3.29547","26.783","2.56","7.52","0.778","4.154","0.12","0.93","29.5505","4.66916","27.57","0","SATNPRO1962","23.046","0.32276","5"],
    [29396,"HCEP03730560","2024-07-30 12:00:00","10.2923","3.29562","26.924","2.563","7.52","0.743","4.406","0.11","0.51","29.5498","4.66903","27.6","0","SATNPRO1962","22.878","0.32046","5"],
    [29397,"HCEP03730560","2024-07-30 12:15:00","10.2832","3.29451","27.04","2.523","7.52","0.828","3.739","0.32","0.24","29.5461","4.66866","27.16","0","SATNPRO1962","22.852","0.32008","5"],
    [29398,"HCEP03730560","2024-07-30 12:30:00","10.2788","3.29402","27.167","2.467","7.51","0.697","3.78","0.1","0.16","29.5447","4.66855","26.56","0","SATNPRO1962","22.838","0.31986","5"],
    [29399,"HCEP03730560","2024-07-30 12:45:00","10.2744","3.29352","27.242","2.43","7.51","0.68","3.635","0.08","0.21","29.5434","4.66843","26.16","0","SATNPRO1962","22.79","0.31922","5"],
    [29400,"HCEP03730560","2024-07-30 13:00:00","10.2686","3.29295","27.295","2.392","7.51","0.708","3.991","0.11","0.14","29.5424","4.66839","25.75","0","SATNPRO1962","22.716","0.31816","5"],
    [29401,"HCEP03730560","2024-07-30 13:15:00","10.2622","3.29234","27.337","2.342","7.5","0.691","3.435","0.07","0.13","29.5415","4.66837","25.2","0","SATNPRO1962","22.55","0.31586","5"],
    [29402,"HCEP03730560","2024-07-30 13:30:00","10.2577","3.29186","27.363","2.298","7.5","0.618","3.673","0.07","0.2","29.5404","4.66829","24.73","0","SATNPRO1962","22.498","0.31514","5"],
    [29403,"HCEP03730560","2024-07-30 13:45:00","10.256","3.29158","27.37","2.258","7.5","0.701","3.568","0.1","0.29","29.5391","4.66812","24.3","0","SATNPRO1962","22.422","0.31404","5"],
    [29404,"HCEP03730560","2024-07-30 14:00:00","10.254","3.2914","27.411","2.237","7.5","0.648","3.565","0.08","0.24","29.5389","4.66813","24.08","0","SATNPRO1962","22.216","0.31116","5"],
    [29405,"HCEP03730560","2024-07-30 14:15:00","10.2513","3.29113","27.418","2.221","7.49","0.67","3.497","0.08","0.49","29.5384","4.6681","23.9","0","SATNPRO1962","21.812","0.3055","5"],
    [29406,"HCEP03730560","2024-07-30 14:30:00","10.2495","3.29089","27.427","2.203","7.49","0.631","3.961","0.08","0.32","29.5374","4.668","23.7","0","SATNPRO1962","22.348","0.31306","5"],
    [29407,"HCEP03730560","2024-07-30 14:45:00","10.2469","3.29057","27.41","2.188","7.49","0.657","3.469","0.11","0.13","29.5363","4.66788","23.54","0","SATNPRO1962","22.314","0.31254","5"],
    [29408,"HCEP03730560","2024-07-30 15:00:00","10.2448","3.29034","27.409","2.173","7.49","0.712","3.871","0.23","0.17","29.5358","4.66783","23.37","0","SATNPRO1962","22.236","0.31148","5"],
    [29409,"HCEP03730560","2024-07-30 15:15:00","10.2457","3.29037","27.393","2.164","7.49","0.709","3.87","0.1","0.21","29.5354","4.66777","23.28","0","SATNPRO1962","22.31","0.3125","5"],
    [29410,"HCEP03730560","2024-07-30 15:30:00","10.2475","3.29047","27.386","2.172","7.49","0.605","3.842","0.08","0.25","29.5349","4.66766","23.37","0","SATNPRO1962","22.323999999999998","0.31268","5"],
    [29411,"HCEP03730560","2024-07-30 15:45:00","10.2524","3.29095","27.339","2.2","7.49","0.699","3.609","0.14","0.16","29.5358","4.66771","23.67","0","SATNPRO1962","22.442","0.31432","5"],
    [29412,"HCEP03730560","2024-07-30 16:00:00","10.2573","3.29136","27.318","2.257","7.5","0.726","3.823","0.36","0.39","29.5358","4.66764","24.29","0","SATNPRO1962","22.788","0.31916","5"],
    [29413,"HCEP03730560","2024-07-30 16:15:00","10.2625","3.29186","27.291","2.302","7.5","0.656","3.48","0.11","0.16","29.5365","4.66764","24.77","0","SATNPRO1962","22.796","0.31928","5"],
    [29414,"HCEP03730560","2024-07-30 16:30:00","10.2666","3.29214","27.261","2.349","7.5","0.571","2.985","0.1","0.15","29.536","4.6675","25.28","0","SATNPRO1962","22.856","0.32018","5"],
    [29415,"HCEP03730560","2024-07-30 16:45:00","10.2671","3.29224","27.214","2.355","7.5","0.632","3.116","0.14","0.65","29.5366","4.66758","25.34","0","SATNPRO1962","22.658","0.31734","5"],
    [29416,"HCEP03730560","2024-07-30 17:00:00","10.2719","3.29269","27.179","2.364","7.51","0.625","2.975","0.13","0.12","29.5373","4.66759","25.44","0","SATNPRO1962","22.79","0.31924","5"],
    [29417,"HCEP03730560","2024-07-30 17:15:00","10.2637","3.29191","27.144","2.354","7.5","0.69","3.093","0.16","0.3","29.5361","4.66756","25.33","0","SATNPRO1962","22.548","0.31578","5"],
    [29418,"HCEP03730560","2024-07-30 17:30:00","10.2653","3.29214","27.121","2.307","7.5","0.656","3.579","0.13","0.85","29.5371","4.66768","24.83","0","SATNPRO1962","22.486","0.31496","5"],
    [29419,"HCEP03730560","2024-07-30 17:45:00","10.2585","3.29151","27.082","2.268","7.5","0.637","3.274","0.13","0.14","29.5364","4.66768","24.41","0","SATNPRO1962","22.282","0.31208","5"],
    [29420,"HCEP03730560","2024-07-30 18:00:00","10.2528","3.291","27.026","2.208","7.49","0.618","3.438","0.08","0.2","29.5359","4.6677","23.76","0","SATNPRO1962","22.366","0.31328","5"],
    [29421,"HCEP03730560","2024-07-30 18:15:00","10.2503","3.29078","26.982","2.155","7.49","0.687","3.585","0.14","0.21","29.5359","4.66773","23.19","0","SATNPRO1962","22.208","0.31106","5"],
    [29422,"HCEP03730560","2024-07-30 18:30:00","10.2486","3.29062","26.924","2.114","7.49","0.708","3.731","0.22","0.26","29.5357","4.66773","22.75","0","SATNPRO1962","22.03","0.3086","5"],
    [29423,"HCEP03730560","2024-07-30 18:45:00","10.247","3.29052","26.896","2.085","7.48","0.745","3.707","0.18","0.2","29.536","4.6678","22.44","0","SATNPRO1962","22.118","0.30982","5"],
    [29424,"HCEP03730560","2024-07-30 19:00:00","10.2445","3.29036","26.872","2.068","7.48","0.72","4.051","0.18","0.35","29.5364","4.66789","22.24","0","SATNPRO1962","21.946","0.3074","5"],
    [29425,"HCEP03730560","2024-07-30 19:15:00","10.2424","3.29017","26.825","2.041","7.48","0.763","4.256","0.1","0.29","29.5363","4.66792","21.95","0","SATNPRO1962","22.066","0.3091","5"],
    [29426,"HCEP03730560","2024-07-30 19:30:00","10.2413","3.29008","26.832","2.03","7.48","0.694","4.278","0.09","0.25","29.5363","4.66793","21.83","0","SATNPRO1962","22.072","0.30912","5"],
    [29427,"HCEP03730560","2024-07-30 19:45:00","10.2409","3.29006","26.825","2.033","7.48","0.694","4.097","0.1","1.86","29.5364","4.66795","21.87","0","SATNPRO1962","22.016000000000002","0.30836","5"],
    [29428,"HCEP03730560","2024-07-30 20:00:00","10.2431","3.29032","26.878","2.039","7.48","0.652","3.93","0.07","0.28","29.5372","4.66804","21.94","0","SATNPRO1962","21.868","0.30634","5"],
    [29429,"HCEP03730560","2024-07-30 20:15:00","10.2451","3.29059","26.915","2.067","7.48","0.733","3.968","0.12","0.82","29.5382","4.66815","22.23","0","SATNPRO1962","22.168","0.31048","5"],
    [29430,"HCEP03730560","2024-07-30 20:30:00","10.2497","3.29114","26.925","2.092","7.48","0.683","3.879","0.11","0.29","29.5399","4.66832","22.5","0","SATNPRO1962","22.14","0.31014","5"],
    [29431,"HCEP03730560","2024-07-30 20:45:00","10.2552","3.29176","26.997","2.121","7.49","0.758","3.849","0.09","0.14","29.5416","4.66847","22.83","0","SATNPRO1962","22.26","0.31176","5"],
    [29432,"HCEP03730560","2024-07-30 21:00:00","10.2677","3.29309","27.045","2.179","7.49","0.652","3.663","0.08","0.18","29.5447","4.66871","23.45","0","SATNPRO1962","22.338","0.3129","5"],
    [29433,"HCEP03730560","2024-07-30 21:15:00","10.2794","3.29423","27.106","2.278","7.5","0.731","3.623","0.09","0.15","29.5464","4.66877","24.52","0","SATNPRO1962","22.56","0.31596","5"],
    [29434,"HCEP03730560","2024-07-30 21:30:00","10.2926","3.2955","27.163","2.361","7.5","0.788","4.237","0.11","0.21","29.5483","4.66882","25.42","0","SATNPRO1962","22.674","0.31758","5"],
    [29435,"HCEP03730560","2024-07-30 21:45:00","10.3333","3.29938","27.193","2.514","7.52","0.837","4.397","0.12","0.18","29.5538","4.66895","27.1","0","SATNPRO1962","22.944","0.32136","5"],
    [29436,"HCEP03730560","2024-07-30 22:00:00","10.397","3.30551","27.252","2.856","7.56","0.888","4.622","0.12","0.51","29.5627","4.66919","30.83","0","SATNPRO1962","23.822","0.33362","5"],
    [29437,"HCEP03730560","2024-07-30 22:15:00","10.4588","3.31087","27.305","3.312","7.59","0.976","4.281","0.13","0.13","29.5655","4.66861","35.81","0","SATNPRO1962","24.186","0.3388","5"],
    [29438,"HCEP03730560","2024-07-30 22:30:00","10.4814","3.31266","27.342","3.591","7.61","0.999","4.39","0.15","0.28","29.565","4.66817","38.84","0","SATNPRO1962","24.168","0.33852","5"],
    [29439,"HCEP03730560","2024-07-30 22:45:00","10.4875","3.31313","27.384","3.695","7.62","1.031","4.842","0.2","0.26","29.5646","4.66802","39.97","0","SATNPRO1962","24.212","0.33912","5"],
    [29440,"HCEP03730560","2024-07-30 23:00:00","10.4947","3.31374","27.434","3.734","7.63","0.984","4.917","0.11","0.4","29.5648","4.66794","40.4","0","SATNPRO1962","24.284","0.34012","5"],
    [29441,"HCEP03730560","2024-07-30 23:15:00","10.49","3.31346","27.472","3.749","7.63","0.996","4.803","0.16","0.29","29.5658","4.66816","40.56","0","SATNPRO1962","24.41","0.34194","5"],
    [29442,"HCEP03730560","2024-07-30 23:30:00","10.4889","3.31346","27.49","3.749","7.63","0.987","4.601","0.13","0.32","29.5667","4.6683","40.55","0","SATNPRO1962","24.240000000000002","0.3395","5"],
    [29443,"HCEP03730560","2024-07-30 23:45:00","10.4865","3.31338","27.508","3.745","7.63","1.074","4.606","0.27","0.39","29.5678","4.66851","40.51","0","SATNPRO1962","24.27","0.33996","5"],
    [29444,"HCEP03730560","2024-07-31 00:00:00","10.4829","3.31326","27.518","3.753","7.63","0.98","4.737","0.15","0.3","29.5696","4.66881","40.59","0","SATNPRO1962","24.466","0.34268","5"],
    [29445,"HCEP03730560","2024-07-31 00:15:00","10.4737","3.31296","27.501","3.781","7.64","0.935","4.077","0.16","0.24","29.5741","4.6696","40.89","0","SATNPRO1962","24.669999999999998","0.34554","5"],
    [29446,"HCEP03730560","2024-07-31 00:30:00","10.4648","3.31246","27.484","3.821","7.64","0.825","4.092","0.16","0.37","29.5764","4.67007","41.32","0","SATNPRO1962","24.684","0.34574","5"],
    [29447,"HCEP03730560","2024-07-31 00:45:00","10.4596","3.31216","27.459","3.819","7.64","0.846","3.81","0.13","0.21","29.5777","4.67034","41.29","0","SATNPRO1962","24.682000000000002","0.34572","5"],
    [29448,"HCEP03730560","2024-07-31 01:00:00","10.4562","3.312","27.414","3.802","7.64","0.942","4.288","0.17","1.04","29.5788","4.67055","41.1","0","SATNPRO1962","24.542","0.34376","5"],
    [29449,"HCEP03730560","2024-07-31 01:15:00","10.452","3.31178","27.376","3.793","7.64","0.974","3.844","0.23","0.3","29.5801","4.6708","41","0","SATNPRO1962","24.726","0.34632","5"],
    [29450,"HCEP03730560","2024-07-31 01:30:00","10.4517","3.31182","27.306","3.783","7.64","0.895","4.2","0.2","0.35","29.5807","4.67089","40.9","0","SATNPRO1962","24.652","0.34528","5"],
    [29451,"HCEP03730560","2024-07-31 01:45:00","10.4481","3.31175","27.237","3.774","7.64","0.854","3.879","0.22","0.18","29.583","4.67126","40.8","0","SATNPRO1962","24.81","0.3475","5"],
    [29452,"HCEP03730560","2024-07-31 02:00:00","10.4471","3.31179","27.136","3.769","7.64","0.784","3.955","0.14","0.27","29.5842","4.67145","40.74","0","SATNPRO1962","24.706","0.34604","5"],
    [29453,"HCEP03730560","2024-07-31 02:15:00","10.4458","3.31182","27.03","3.767","7.64","0.825","3.766","0.11","0.22","29.5856","4.67166","40.71","0","SATNPRO1962","24.544","0.34378","5"],
    [29454,"HCEP03730560","2024-07-31 02:30:00","10.4445","3.31184","26.908","3.759","7.64","0.777","3.95","0.15","0.27","29.5869","4.67186","40.63","0","SATNPRO1962","24.696","0.34588","5"],
    [29455,"HCEP03730560","2024-07-31 02:45:00","10.4436","3.31151","26.769","3.756","7.64","0.823","3.757","0.24","0.22","29.5845","4.67152","40.6","0","SATNPRO1962","24.646","0.34522","5"],
    [29456,"HCEP03730560","2024-07-31 03:00:00","10.4421","3.31163","26.61","3.743","7.63","0.782","4.207","0.19","0.26","29.5869","4.67188","40.46","0","SATNPRO1962","24.706","0.34608","5"],
    [29457,"HCEP03730560","2024-07-31 03:15:00","10.4406","3.3116","26.42","3.733","7.63","0.778","3.818","0.15","1.09","29.5879","4.67204","40.35","0","SATNPRO1962","24.674","0.34556","5"],
    [29458,"HCEP03730560","2024-07-31 03:30:00","10.4405","3.31165","26.248","3.734","7.63","0.757","3.905","0.19","0.4","29.5885","4.67212","40.36","0","SATNPRO1962","24.478","0.34284","5"],
    [29459,"HCEP03730560","2024-07-31 03:45:00","10.4413","3.31182","26.074","3.749","7.64","0.722","3.748","0.13","0.57","29.5897","4.67226","40.52","0","SATNPRO1962","24.689999999999998","0.34582","5"],
    [29460,"HCEP03730560","2024-07-31 04:00:00","10.444","3.31201","25.876","3.762","7.64","0.844","3.851","0.29","0.59","29.5895","4.67218","40.67","0","SATNPRO1962","24.646","0.34518","5"],
    [29461,"HCEP03730560","2024-07-31 04:15:00","10.4472","3.3123","25.696","3.77","7.64","0.934","3.61","0.43","0.16","29.5898","4.67216","40.75","0","SATNPRO1962","24.53","0.34358","5"],
    [29462,"HCEP03730560","2024-07-31 04:30:00","10.4482","3.31231","25.462","3.784","7.64","0.754","3.824","0.25","0.31","29.5892","4.67205","40.9","0","SATNPRO1962","24.538","0.34368","5"],
    [29463,"HCEP03730560","2024-07-31 04:45:00","10.4456","3.31213","25.257","3.791","7.64","0.774","3.607","0.12","0.41","29.5896","4.67214","40.97","0","SATNPRO1962","24.652","0.34528","5"],
    [29464,"HCEP03730560","2024-07-31 05:00:00","10.4464","3.31218","25.047","3.792","7.64","0.666","3.587","0.09","0.16","29.5895","4.6721","40.99","0","SATNPRO1962","24.834","0.34786","5"],
    [29465,"HCEP03730560","2024-07-31 05:15:00","10.4424","3.31169","24.89","3.761","7.63","0.809","4.105","0.15","0.17","29.588","4.67195","40.65","0","SATNPRO1962","24.61","0.3447","5"],
    [29466,"HCEP03730560","2024-07-31 05:30:00","10.4373","3.3113","24.67","3.724","7.63","0.797","3.661","0.18","0.16","29.5883","4.67204","40.25","0","SATNPRO1962","24.71","0.34612","5"],
    [29467,"HCEP03730560","2024-07-31 05:45:00","10.434","3.31109","24.507","3.73","7.63","0.796","3.542","0.15","0.21","29.589","4.67219","40.31","0","SATNPRO1962","24.976","0.34982","5"],
    [29468,"HCEP03730560","2024-07-31 06:00:00","10.4301","3.31064","24.323","3.717","7.63","0.721","3.859","0.15","0.73","29.5878","4.67207","40.16","0","SATNPRO1962","24.686","0.3458","5"],
    [29469,"HCEP03730560","2024-07-31 06:15:00","10.4223","3.31005","24.176","3.683","7.63","0.708","3.339","0.12","0.15","29.5883","4.67227","39.79","0","SATNPRO1962","24.966","0.34966","5"],
    [29470,"HCEP03730560","2024-07-31 06:30:00","10.4233","3.31016","24.088","3.671","7.63","0.788","3.461","0.31","0.18","29.5886","4.67228","39.66","0","SATNPRO1962","24.808","0.34746","5"],
    [29471,"HCEP03730560","2024-07-31 06:45:00","10.4224","3.31003","24.039","3.667","7.63","0.722","3.187","0.23","0.13","29.5881","4.67223","39.62","0","SATNPRO1962","24.658","0.34538","5"],
    [29472,"HCEP03730560","2024-07-31 07:00:00","10.4205","3.3099","24.007","3.66","7.63","0.752","3.274","0.16","0.09","29.5883","4.67228","39.53","0","SATNPRO1962","24.66","0.34542","5"],
    [29473,"HCEP03730560","2024-07-31 07:15:00","10.4191","3.3097","23.997","3.648","7.63","0.707","3.121","0.11","0.08","29.5875","4.67219","39.4","0","SATNPRO1962","25.03","0.3506","5"],
    [29474,"HCEP03730560","2024-07-31 07:30:00","10.4158","3.30946","24.034","3.626","7.62","0.763","3.397","0.23","0.12","29.5878","4.67229","39.16","0","SATNPRO1962","24.792","0.34724","5"],
    [29475,"HCEP03730560","2024-07-31 07:45:00","10.4143","3.30933","24.07","3.613","7.62","0.775","3.226","0.18","0.1","29.5877","4.6723","39.02","0","SATNPRO1962","24.65","0.34524","5"],
    [29476,"HCEP03730560","2024-07-31 08:00:00","10.4073","3.30858","24.094","3.585","7.62","0.964","3.191","0.2","0.08","29.586","4.67217","38.72","0","SATNPRO1962","24.592000000000002","0.34444","5"],
    [29477,"HCEP03730560","2024-07-31 08:15:00","10.4043","3.30837","24.144","3.541","7.62","1.048","3.439","0.42","0.13","29.5864","4.67228","38.24","0","SATNPRO1962","24.688","0.34582","5"],
    [29478,"HCEP03730560","2024-07-31 08:30:00","10.4058","3.30838","24.221","3.536","7.62","0.714","3.231","0.14","0.17","29.5851","4.67208","38.19","0","SATNPRO1962","24.67","0.34556","5"],
    [29479,"HCEP03730560","2024-07-31 08:45:00","10.4019","3.30808","24.293","3.532","7.61","0.851","3.628","0.11","0.2","29.5854","4.67218","38.14","0","SATNPRO1962","24.604","0.34464","5"],
    [29480,"HCEP03730560","2024-07-31 09:00:00","10.4164","3.30938","24.423","3.538","7.62","0.842","3.892","0.15","0.18","29.5864","4.6721","38.22","0","SATNPRO1962","24.424","0.34212","5"],
    [29481,"HCEP03730560","2024-07-31 09:15:00","10.4227","3.30999","24.587","3.581","7.62","0.841","3.517","0.29","0.12","29.5872","4.67212","38.69","0","SATNPRO1962","24.812","0.34752","5"],
    [29482,"HCEP03730560","2024-07-31 09:30:00","10.4266","3.31023","24.766","3.636","7.62","0.871","3.469","0.39","0.13","29.5863","4.67195","39.28","0","SATNPRO1962","24.832","0.3478","5"],
    [29483,"HCEP03730560","2024-07-31 09:45:00","10.4335","3.31073","24.924","3.663","7.63","0.803","3.651","0.13","0.31","29.5856","4.67175","39.58","0","SATNPRO1962","24.742","0.34658","5"],
    [29484,"HCEP03730560","2024-07-31 10:00:00","10.4265","3.30934","25.083","3.62","7.62","0.896","4.603","0.13","0.37","29.5776","4.67072","39.11","0","SATNPRO1962","24.56","0.34398","5"],
    [29485,"HCEP03730560","2024-07-31 10:15:00","10.4295","3.31025","25.243","3.599","7.62","0.798","3.497","0.1","0.21","29.584","4.6716","38.89","0","SATNPRO1962","24.806","0.3474","5"],
    [29486,"HCEP03730560","2024-07-31 10:30:00","10.4164","3.30913","25.413","3.569","7.61","0.848","4.311","0.1","0.33","29.5835","4.67174","38.55","0","SATNPRO1962","24.326","0.3407","5"],
    [29487,"HCEP03730560","2024-07-31 10:45:00","10.4131","3.30874","25.584","3.46","7.61","0.894","4.361","0.1","0.13","29.5823","4.67164","37.37","0","SATNPRO1962","24.162","0.33844","5"],
    [29488,"HCEP03730560","2024-07-31 11:00:00","10.4149","3.30878","25.761","3.474","7.61","0.846","4.153","0.16","0.2","29.5812","4.67146","37.52","0","SATNPRO1962","24.208","0.33908","5"],
    [29489,"HCEP03730560","2024-07-31 11:15:00","10.4073","3.30808","25.941","3.433","7.6","0.859","4.433","0.07","0.15","29.5802","4.67145","37.07","0","SATNPRO1962","24.13","0.33796","5"],
    [29490,"HCEP03730560","2024-07-31 11:30:00","10.4019","3.30746","26.136","3.347","7.6","0.825","4.843","0.08","0.26","29.5785","4.67131","36.14","0","SATNPRO1962","24.056","0.33696","5"],
    [29491,"HCEP03730560","2024-07-31 11:45:00","10.4022","3.30735","26.361","3.291","7.59","0.825","4.681","0.07","0.15","29.577","4.6711","35.54","0","SATNPRO1962","23.982","0.33592","5"],
    [29492,"HCEP03730560","2024-07-31 12:00:00","10.3919","3.30628","26.496","3.239","7.59","0.796","4.722","0.06","0.18","29.5748","4.67097","34.97","0","SATNPRO1962","23.914","0.33494","5"],
    [29493,"HCEP03730560","2024-07-31 12:15:00","10.3698","3.3039","26.661","3.101","7.57","0.784","4.597","0.05","0.14","29.5691","4.67051","33.46","0","SATNPRO1962","23.524","0.32952","5"],
    [29494,"HCEP03730560","2024-07-31 12:30:00","10.3588","3.30267","26.842","2.954","7.56","0.729","4.543","0.07","0.13","29.5658","4.67023","31.87","0","SATNPRO1962","23.458000000000002","0.32862","5"],
    [29495,"HCEP03730560","2024-07-31 12:45:00","10.3443","3.30116","26.943","2.844","7.55","0.767","4.7","0.07","0.2","29.5625","4.67001","30.67","0","SATNPRO1962","23.244","0.3256","5"],
    [29496,"HCEP03730560","2024-07-31 13:00:00","10.3318","3.29959","27.089","2.734","7.54","0.696","4.544","0.05","0.15","29.557","4.66943","29.48","0","SATNPRO1962","22.974","0.32176","5"],
    [29497,"HCEP03730560","2024-07-31 13:15:00","10.3232","3.29855","27.185","2.643","7.53","0.742","4.149","0.07","0.27","29.5537","4.66911","28.49","0","SATNPRO1962","22.922","0.32104","5"],
    [29498,"HCEP03730560","2024-07-31 13:30:00","10.3226","3.29827","27.299","2.585","7.53","0.692","4.086","0.08","0.19","29.5513","4.66878","27.86","0","SATNPRO1962","22.94","0.3213","5"],
    [29499,"HCEP03730560","2024-07-31 13:45:00","10.3107","3.29704","27.374","2.528","7.52","0.706","3.903","0.05","0.13","29.5488","4.66862","27.24","0","SATNPRO1962","22.832","0.3198","5"],
    [29500,"HCEP03730560","2024-07-31 14:00:00","10.2994","3.29601","27.465","2.444","7.51","0.683","4.176","0.07","0.46","29.5477","4.66865","26.32","0","SATNPRO1962","22.844","0.31996","5"],
    [29501,"HCEP03730560","2024-07-31 14:15:00","10.2959","3.29555","27.492","2.392","7.51","0.698","3.778","0.07","0.25","29.546","4.66846","25.77","0","SATNPRO1962","22.669999999999998","0.31756","5"],
    [29502,"HCEP03730560","2024-07-31 14:30:00","10.2969","3.29547","27.545","2.382","7.51","0.632","3.649","0.06","0.25","29.5444","4.66822","25.66","0","SATNPRO1962","22.674","0.31758","5"],
    [29503,"HCEP03730560","2024-07-31 14:45:00","10.2813","3.29406","27.594","2.317","7.5","0.684","3.719","0.07","0.14","29.543","4.66828","24.95","0","SATNPRO1962","22.47","0.31468","5"],
    [29504,"HCEP03730560","2024-07-31 15:00:00","10.2711","3.29308","27.55","2.245","7.5","0.624","3.568","0.05","0.14","29.5416","4.66825","24.16","0","SATNPRO1962","22.48","0.31488","5"],
    [29505,"HCEP03730560","2024-07-31 15:15:00","10.2672","3.29278","27.593","2.204","7.49","0.666","3.586","0.05","0.44","29.5417","4.66833","23.72","0","SATNPRO1962","22.384","0.31352","5"],
    [29506,"HCEP03730560","2024-07-31 15:30:00","10.2642","3.29245","27.605","2.177","7.49","0.66","3.735","0.09","0.16","29.541","4.66827","23.43","0","SATNPRO1962","22.402","0.31378","5"],
    [29507,"HCEP03730560","2024-07-31 15:45:00","10.2702","3.29298","27.596","2.151","7.49","0.714","3.6","0.15","0.3","29.5413","4.66822","23.15","0","SATNPRO1962","22.342","0.31292","5"],
    [29508,"HCEP03730560","2024-07-31 16:00:00","10.2751","3.29334","27.613","2.154","7.49","0.63","3.407","0.07","0.33","29.5409","4.66809","23.19","0","SATNPRO1962","22.168","0.31054","5"],
    [29509,"HCEP03730560","2024-07-31 16:15:00","10.2746","3.2933","27.586","2.133","7.49","0.653","3.512","0.1","0.2","29.5409","4.66809","22.96","0","SATNPRO1962","22.154","0.3103","5"],
    [29510,"HCEP03730560","2024-07-31 16:30:00","10.2765","3.2934","27.544","2.109","7.48","0.593","3.63","0.06","0.14","29.5404","4.66799","22.7","0","SATNPRO1962","22.12","0.3098","5"],
    [29511,"HCEP03730560","2024-07-31 16:45:00","10.2798","3.29361","27.538","2.101","7.48","0.664","3.685","0.11","0.18","29.5397","4.66783","22.62","0","SATNPRO1962","22.102","0.30958","5"],
    [29512,"HCEP03730560","2024-07-31 17:00:00","10.2833","3.29383","27.489","2.107","7.48","0.593","3.627","0.08","0.17","29.5391","4.66769","22.68","0","SATNPRO1962","22.07","0.3091","5"],
    [29513,"HCEP03730560","2024-07-31 17:15:00","10.2866","3.29403","27.421","2.125","7.49","0.658","3.443","0.07","0.15","29.5385","4.66755","22.88","0","SATNPRO1962","22.064","0.30906","5"],
    [29514,"HCEP03730560","2024-07-31 17:30:00","10.291","3.29428","27.381","2.14","7.49","0.644","3.553","0.1","0.17","29.5375","4.66732","23.04","0","SATNPRO1962","22.204","0.31098","5"],
    [29515,"HCEP03730560","2024-07-31 17:45:00","10.2959","3.29464","27.355","2.176","7.49","0.668","3.5","0.1","0.29","29.537","4.66717","23.43","0","SATNPRO1962","22.256","0.31172","5"],
    [29516,"HCEP03730560","2024-07-31 18:00:00","10.2993","3.29487","27.331","2.209","7.49","0.655","3.701","0.11","0.29","29.5366","4.66705","23.8","0","SATNPRO1962","22.3","0.31236","5"],
    [29517,"HCEP03730560","2024-07-31 18:15:00","10.3022","3.29504","27.289","2.231","7.49","0.791","3.339","0.41","0.34","29.5358","4.6669","24.03","0","SATNPRO1962","22.362","0.31322","5"],
    [29518,"HCEP03730560","2024-07-31 18:30:00","10.3058","3.29531","27.226","2.247","7.5","0.623","3.57","0.11","0.31","29.5356","4.66681","24.21","0","SATNPRO1962","22.274","0.31206","5"],
    [29519,"HCEP03730560","2024-07-31 18:45:00","10.3073","3.29537","27.161","2.265","7.5","0.653","3.293","0.09","0.16","29.535","4.6667","24.4","0","SATNPRO1962","22.388","0.31358","5"],
    [29520,"HCEP03730560","2024-07-31 19:00:00","10.3073","3.29539","27.096","2.258","7.5","0.607","3.246","0.08","0.12","29.5352","4.66672","24.33","0","SATNPRO1962","22.330000000000002","0.31274","5"],
    [29521,"HCEP03730560","2024-07-31 19:15:00","10.3077","3.29552","27.063","2.254","7.5","0.606","3.259","0.09","0.21","29.5363","4.66686","24.28","0","SATNPRO1962","22.242","0.3115","5"],
    [29522,"HCEP03730560","2024-07-31 19:30:00","10.3049","3.29524","27.005","2.248","7.5","0.619","3.314","0.1","0.18","29.5358","4.66683","24.22","0","SATNPRO1962","22.266000000000002","0.31188","5"],
    [29523,"HCEP03730560","2024-07-31 19:45:00","10.3063","3.29535","26.936","2.235","7.5","0.612","3.128","0.07","0.14","29.5357","4.6668","24.07","0","SATNPRO1962","21.71","0.30408","5"],
    [29524,"HCEP03730560","2024-07-31 20:00:00","10.3058","3.29525","26.901","2.236","7.5","0.567","3.186","0.08","0.18","29.5352","4.66673","24.09","0","SATNPRO1962","22.28","0.31204","5"],
    [29525,"HCEP03730560","2024-07-31 20:15:00","10.3082","3.29552","26.867","2.245","7.5","0.605","3.11","0.06","0.21","29.5359","4.66679","24.19","0","SATNPRO1962","22.278","0.31208","5"],
    [29526,"HCEP03730560","2024-07-31 20:30:00","10.307","3.29547","26.885","2.249","7.5","0.597","3.312","0.24","0.3","29.5365","4.66689","24.23","0","SATNPRO1962","22.192","0.31086","5"],
    [29527,"HCEP03730560","2024-07-31 20:45:00","10.3065","3.29559","26.884","2.239","7.49","0.616","3.162","0.08","0.23","29.538","4.66711","24.12","0","SATNPRO1962","22.264","0.31186","5"],
    [29528,"HCEP03730560","2024-07-31 21:00:00","10.3044","3.29555","26.856","2.221","7.49","0.549","3.175","0.06","0.12","29.5393","4.66733","23.93","0","SATNPRO1962","22.074","0.30918","5"],
    [29529,"HCEP03730560","2024-07-31 21:15:00","10.301","3.29525","26.899","2.186","7.49","0.628","3.301","0.08","0.16","29.5391","4.66736","23.55","0","SATNPRO1962","21.976","0.30778","5"],
    [29530,"HCEP03730560","2024-07-31 21:30:00","10.3012","3.29535","26.94","2.165","7.49","0.584","3.314","0.05","0.14","29.5399","4.66748","23.32","0","SATNPRO1962","22.146","0.31018","5"],
    [29531,"HCEP03730560","2024-07-31 21:45:00","10.3044","3.29569","26.926","2.188","7.49","0.627","3.157","0.11","0.17","29.5406","4.66753","23.57","0","SATNPRO1962","22.066","0.30904","5"],
    [29532,"HCEP03730560","2024-07-31 22:00:00","10.3003","3.29523","26.97","2.182","7.49","0.575","3.367","0.13","0.24","29.5394","4.66743","23.5","0","SATNPRO1962","21.998","0.30812","5"],
    [29533,"HCEP03730560","2024-07-31 22:15:00","10.299","3.29507","27.009","2.16","7.49","0.608","3.171","0.1","0.17","29.5389","4.66737","23.27","0","SATNPRO1962","22.11","0.30972","5"],
    [29534,"HCEP03730560","2024-07-31 22:30:00","10.298","3.29493","27.051","2.153","7.49","0.606","3.355","0.09","0.46","29.5383","4.6673","23.19","0","SATNPRO1962","22.166","0.31044","5"],
    [29535,"HCEP03730560","2024-07-31 22:45:00","10.3005","3.29526","27.072","2.165","7.49","0.63","3.119","0.22","0.22","29.5396","4.66745","23.32","0","SATNPRO1962","22.178","0.31062","5"],
    [29536,"HCEP03730560","2024-07-31 23:00:00","10.298","3.29501","27.117","2.167","7.49","0.522","3.171","0.06","0.23","29.539","4.66741","23.34","0","SATNPRO1962","22.226","0.31128","5"],
    [29537,"HCEP03730560","2024-07-31 23:15:00","10.2982","3.29505","27.191","2.161","7.49","0.596","3.006","0.14","0.11","29.5392","4.66744","23.27","0","SATNPRO1962","22.196","0.31094","5"],
    [29538,"HCEP03730560","2024-07-31 23:30:00","10.2969","3.29497","27.229","2.159","7.49","0.545","3.157","0.09","0.19","29.5395","4.6675","23.25","0","SATNPRO1962","22.172","0.31054","5"],
    [29539,"HCEP03730560","2024-07-31 23:45:00","10.2965","3.29497","27.273","2.149","7.49","0.591","3.207","0.06","0.1","29.5398","4.66756","23.14","0","SATNPRO1962","22.086000000000002","0.30936","5"],
    [29540,"HCEP03730560","2024-08-01 00:00:00","10.2943","3.29487","27.301","2.14","7.49","0.577","3.487","0.09","0.2","29.5406","4.66771","23.05","0","SATNPRO1962","22.104","0.30964","5"],
    [29541,"HCEP03730560","2024-08-01 00:15:00","10.2938","3.2948","27.338","2.131","7.49","0.579","3.261","0.06","0.16","29.5403","4.66768","22.96","0","SATNPRO1962","22.206","0.31102","5"],
    [29542,"HCEP03730560","2024-08-01 00:30:00","10.2932","3.29478","27.376","2.123","7.48","0.609","3.61","0.13","0.23","29.5406","4.66773","22.86","0","SATNPRO1962","22.042","0.30874","5"],
    [29543,"HCEP03730560","2024-08-01 00:45:00","10.295","3.29497","27.392","2.121","7.49","0.61","3.553","0.08","0.21","29.5411","4.66777","22.85","0","SATNPRO1962","22.148","0.31018","5"],
    [29544,"HCEP03730560","2024-08-01 01:00:00","10.299","3.29543","27.411","2.132","7.49","0.627","3.886","0.08","0.28","29.5423","4.66789","22.97","0","SATNPRO1962","22.162","0.31044","5"],
    [29545,"HCEP03730560","2024-08-01 01:15:00","10.3027","3.29581","27.407","2.157","7.49","0.756","3.641","0.19","0.3","29.543","4.66793","23.24","0","SATNPRO1962","22.234","0.31146","5"],
    [29546,"HCEP03730560","2024-08-01 01:30:00","10.3063","3.29618","27.39","2.183","7.49","0.61","3.763","0.06","0.17","29.5438","4.66797","23.52","0","SATNPRO1962","22.374","0.31338","5"],
    [29547,"HCEP03730560","2024-08-01 01:45:00","10.3158","3.29714","27.369","2.223","7.49","0.693","3.816","0.13","0.25","29.5456","4.66808","23.95","0","SATNPRO1962","22.356","0.31312","5"],
    [29548,"HCEP03730560","2024-08-01 02:00:00","10.3275","3.2982","27.335","2.278","7.5","0.717","4.273","0.15","0.22","29.5466","4.66803","24.55","0","SATNPRO1962","22.172","0.31056","5"],
    [29549,"HCEP03730560","2024-08-01 02:15:00","10.3496","3.30032","27.293","2.354","7.51","0.725","4.292","0.09","0.19","29.5497","4.66811","25.38","0","SATNPRO1962","22.32","0.31264","5"],
    [29550,"HCEP03730560","2024-08-01 02:30:00","10.3812","3.30318","27.233","2.501","7.52","0.806","4.688","0.17","0.42","29.5525","4.66799","26.98","0","SATNPRO1962","22.78","0.31906","5"],
    [29551,"HCEP03730560","2024-08-01 02:45:00","10.4131","3.30644","27.161","2.678","7.54","0.811","4.798","0.13","0.41","29.5589","4.66838","28.92","0","SATNPRO1962","22.912","0.32094","5"],
    [29552,"HCEP03730560","2024-08-01 03:00:00","10.4422","3.30924","27.079","2.872","7.55","0.802","5.025","0.11","0.83","29.563","4.6685","31.03","0","SATNPRO1962","23.394000000000002","0.32766","5"],
    [29553,"HCEP03730560","2024-08-01 03:15:00","10.494","3.31411","26.956","3.149","7.58","0.895","4.723","0.23","0.25","29.5692","4.66856","34.07","0","SATNPRO1962","23.552","0.32986","5"],
    [29554,"HCEP03730560","2024-08-01 03:30:00","10.5184","3.31662","26.835","3.408","7.6","0.927","4.996","0.14","0.51","29.5743","4.66887","36.89","0","SATNPRO1962","23.724","0.3323","5"],
    [29555,"HCEP03730560","2024-08-01 03:45:00","10.5346","3.31832","26.69","3.586","7.61","0.858","4.619","0.2","0.59","29.578","4.66914","38.83","0","SATNPRO1962","23.864","0.33422","5"],
    [29556,"HCEP03730560","2024-08-01 04:00:00","10.5401","3.31898","26.515","3.678","7.62","0.883","5.087","0.15","1.1","29.5801","4.66934","39.84","0","SATNPRO1962","23.942","0.33536","5"],
    [29557,"HCEP03730560","2024-08-01 04:15:00","10.5453","3.31996","26.359","3.747","7.63","0.78","4.009","0.1","0.21","29.5856","4.67004","40.59","0","SATNPRO1962","24.168","0.33854","5"],
    [29558,"HCEP03730560","2024-08-01 04:30:00","10.5398","3.31959","26.167","3.791","7.64","0.901","4.195","0.24","0.3","29.5865","4.67024","41.06","0","SATNPRO1962","24.286","0.34016","5"],
    [29559,"HCEP03730560","2024-08-01 04:45:00","10.5355","3.31914","25.989","3.778","7.63","0.947","4.516","0.2","0.27","29.5856","4.67017","40.92","0","SATNPRO1962","24.072","0.33714","5"],
    [29560,"HCEP03730560","2024-08-01 05:00:00","10.5342","3.31925","25.795","3.769","7.64","0.776","4.255","0.09","0.24","29.5878","4.67049","40.81","0","SATNPRO1962","24.206","0.33902","5"],
    [29561,"HCEP03730560","2024-08-01 05:15:00","10.5331","3.31922","25.557","3.773","7.64","0.824","4.237","0.13","0.17","29.5885","4.67059","40.86","0","SATNPRO1962","24.529999999999998","0.34356","5"],
    [29562,"HCEP03730560","2024-08-01 05:30:00","10.5395","3.31981","25.336","3.782","7.64","0.838","4.754","0.1","0.33","29.5892","4.67058","40.96","0","SATNPRO1962","24.264","0.33984","5"],
    [29563,"HCEP03730560","2024-08-01 05:45:00","10.5345","3.31957","25.129","3.792","7.64","0.877","4.128","0.17","0.41","29.591","4.67091","41.07","0","SATNPRO1962","24.298000000000002","0.34034","5"],
    [29564,"HCEP03730560","2024-08-01 06:00:00","10.5354","3.31972","24.941","3.806","7.64","0.729","3.943","0.09","0.22","29.5918","4.67101","41.22","0","SATNPRO1962","24.428","0.34214","5"],
    [29565,"HCEP03730560","2024-08-01 06:15:00","10.5352","3.31997","24.754","3.823","7.64","0.849","3.984","0.16","0.46","29.5946","4.67138","41.41","0","SATNPRO1962","24.43","0.34218","5"],
    [29566,"HCEP03730560","2024-08-01 06:30:00","10.5304","3.31946","24.55","3.814","7.64","0.804","4.143","0.15","0.38","29.5935","4.6713","41.3","0","SATNPRO1962","24.32","0.34064","5"],
    [29567,"HCEP03730560","2024-08-01 06:45:00","10.5278","3.31936","24.377","3.799","7.64","0.841","4.071","0.11","0.24","29.5947","4.6715","41.14","0","SATNPRO1962","24.216","0.3392","5"],
    [29568,"HCEP03730560","2024-08-01 07:00:00","10.5316","3.3198","24.203","3.801","7.64","0.759","4.041","0.14","0.36","29.596","4.67162","41.16","0","SATNPRO1962","24.264","0.33984","5"],
    [29569,"HCEP03730560","2024-08-01 07:15:00","10.5276","3.31939","24.064","3.798","7.64","0.945","4.003","0.22","0.18","29.5953","4.67157","41.13","0","SATNPRO1962","24.014","0.33634","5"],
    [29570,"HCEP03730560","2024-08-01 07:30:00","10.5268","3.31929","23.963","3.781","7.64","0.91","4.294","0.14","0.19","29.595","4.67154","40.94","0","SATNPRO1962","24.008","0.33628","5"],
    [29571,"HCEP03730560","2024-08-01 07:45:00","10.5291","3.31947","23.914","3.768","7.64","0.968","4.06","0.19","0.18","29.5949","4.67148","40.8","0","SATNPRO1962","24.068","0.33712","5"],
    [29572,"HCEP03730560","2024-08-01 08:00:00","10.5419","3.32062","23.905","3.784","7.64","0.877","4.55","0.12","0.26","29.5959","4.67142","40.98","0","SATNPRO1962","24.212","0.33912","5"],
    [29573,"HCEP03730560","2024-08-01 08:15:00","10.5543","3.32206","23.875","3.855","7.65","0.88","4.017","0.13","0.18","29.6001","4.67182","41.77","0","SATNPRO1962","24.148","0.33824","5"],
    [29574,"HCEP03730560","2024-08-01 08:30:00","10.5589","3.3225","23.882","3.909","7.65","0.816","3.852","0.18","0.17","29.6006","4.67182","42.36","0","SATNPRO1962","24.224","0.33926","5"],
    [29575,"HCEP03730560","2024-08-01 08:45:00","10.5587","3.3225","23.945","3.917","7.65","0.862","4.07","0.15","0.19","29.6008","4.67185","42.44","0","SATNPRO1962","24.285999999999998","0.34018","5"],
    [29576,"HCEP03730560","2024-08-01 09:00:00","10.56","3.32263","24.004","3.92","7.65","0.872","4.184","0.3","0.23","29.601","4.67187","42.48","0","SATNPRO1962","24.242","0.33956","5"],
    [29577,"HCEP03730560","2024-08-01 09:15:00","10.5618","3.32279","24.104","3.925","7.65","0.867","4.038","0.11","0.17","29.6011","4.67185","42.53","0","SATNPRO1962","24.382","0.34152","5"],
    [29578,"HCEP03730560","2024-08-01 09:30:00","10.5595","3.32253","24.189","3.91","7.65","0.781","4.085","0.09","0.16","29.6004","4.67179","42.37","0","SATNPRO1962","24.276","0.34006","5"],
    [29579,"HCEP03730560","2024-08-01 09:45:00","10.5604","3.3227","24.278","3.916","7.65","0.779","3.976","0.1","0.14","29.6012","4.67191","42.44","0","SATNPRO1962","24.462","0.34262","5"],
    [29580,"HCEP03730560","2024-08-01 10:00:00","10.5615","3.32285","24.41","3.942","7.66","0.727","3.706","0.08","0.12","29.6017","4.67197","42.72","0","SATNPRO1962","24.418","0.34196","5"],
    [29581,"HCEP03730560","2024-08-01 10:15:00","10.5514","3.32185","24.6","3.93","7.65","0.788","3.652","0.1","0.08","29.6001","4.67191","42.58","0","SATNPRO1962","24.294","0.3403","5"],
    [29582,"HCEP03730560","2024-08-01 10:30:00","10.5361","3.32038","24.741","3.857","7.64","0.759","4.228","0.09","0.23","29.5978","4.67184","41.77","0","SATNPRO1962","24.352","0.34108","5"],
    [29583,"HCEP03730560","2024-08-01 10:45:00","10.5231","3.31913","24.908","3.775","7.64","0.867","4.378","0.12","0.14","29.5959","4.67178","40.87","0","SATNPRO1962","24.178","0.3386","5"],
    [29584,"HCEP03730560","2024-08-01 11:00:00","10.5027","3.3169","25.071","3.695","7.63","0.769","4.377","0.08","0.2","29.5905","4.67133","39.99","0","SATNPRO1962","24.118","0.3378","5"],
    [29585,"HCEP03730560","2024-08-01 11:15:00","10.4962","3.31568","25.268","3.595","7.62","0.795","4.356","0.09","0.44","29.5836","4.67047","38.9","0","SATNPRO1962","24.096","0.33748","5"],
    [29586,"HCEP03730560","2024-08-01 11:30:00","10.5075","3.31726","25.419","3.585","7.62","0.771","4.555","0.07","0.24","29.5899","4.6712","38.81","0","SATNPRO1962","24.112","0.33776","5"],
    [29587,"HCEP03730560","2024-08-01 11:45:00","10.5425","3.32068","25.6","3.712","7.64","0.77","4.282","0.06","0.2","29.5953","4.67143","40.21","0","SATNPRO1962","24.128","0.33792","5"],
    [29588,"HCEP03730560","2024-08-01 12:00:00","10.5402","3.32014","25.787","3.79","7.64","0.746","4.464","0.06","0.4","29.5918","4.67097","41.05","0","SATNPRO1962","24.252","0.33966","5"],
    [29589,"HCEP03730560","2024-08-01 12:15:00","10.5413","3.32025","25.99","3.769","7.64","0.856","4.89","0.09","0.28","29.5919","4.67098","40.82","0","SATNPRO1962","24.01","0.33636","5"],
    [29590,"HCEP03730560","2024-08-01 12:30:00","10.5441","3.32043","26.21","3.749","7.64","0.796","4.869","0.13","0.23","29.5912","4.67085","40.61","0","SATNPRO1962","24.11","0.33768","5"],
    [29591,"HCEP03730560","2024-08-01 12:45:00","10.5571","3.32149","26.408","3.776","7.64","0.796","4.407","0.09","0.14","29.5911","4.67064","40.91","0","SATNPRO1962","24.164","0.3385","5"],
    [29592,"HCEP03730560","2024-08-01 13:00:00","10.549","3.32067","26.578","3.783","7.64","0.781","4.579","0.07","0.15","29.5895","4.67055","40.99","0","SATNPRO1962","23.95","0.33548","5"],
    [29593,"HCEP03730560","2024-08-01 13:15:00","10.5396","3.31946","26.807","3.702","7.63","0.843","4.922","0.08","0.19","29.5852","4.67009","40.1","0","SATNPRO1962","23.886","0.33458","5"],
    [29594,"HCEP03730560","2024-08-01 13:30:00","10.5277","3.31829","26.95","3.59","7.62","0.863","5.199","0.08","0.19","29.5832","4.67001","38.88","0","SATNPRO1962","23.554","0.32988","5"],
    [29595,"HCEP03730560","2024-08-01 13:45:00","10.5244","3.31792","27.089","3.513","7.62","0.848","5.039","0.07","0.16","29.5822","4.66992","38.04","0","SATNPRO1962","23.492","0.32904","5"],
    [29596,"HCEP03730560","2024-08-01 14:00:00","10.4929","3.31461","27.217","3.382","7.6","0.784","4.904","0.06","0.16","29.575","4.66941","36.6","0","SATNPRO1962","23.084","0.32328","5"],
    [29597,"HCEP03730560","2024-08-01 14:15:00","10.4424","3.30955","27.34","3.107","7.57","0.808","4.549","0.07","0.12","29.5658","4.66891","33.57","0","SATNPRO1962","22.882","0.32048","5"],
    [29598,"HCEP03730560","2024-08-01 14:30:00","10.4272","3.30795","27.466","2.905","7.56","0.792","4.373","0.17","0.16","29.5622","4.66865","31.38","0","SATNPRO1962","22.808","0.31948","5"],
    [29599,"HCEP03730560","2024-08-01 14:45:00","10.4213","3.30735","27.526","2.836","7.55","0.727","4.114","0.05","0.16","29.5612","4.6686","30.63","0","SATNPRO1962","22.798000000000002","0.3193","5"],
    [29600,"HCEP03730560","2024-08-01 15:00:00","10.4096","3.30622","27.586","2.802","7.55","0.726","4.119","0.1","0.17","29.5594","4.66854","30.26","0","SATNPRO1962","22.808","0.31946","5"],
    [29601,"HCEP03730560","2024-08-01 15:15:00","10.3943","3.3046","27.659","2.731","7.54","0.75","4.211","0.16","0.49","29.5558","4.66827","29.48","0","SATNPRO1962","22.524","0.31548","5"],
    [29602,"HCEP03730560","2024-08-01 15:30:00","10.3624","3.3015","27.686","2.603","7.53","0.81","4.145","0.14","0.17","29.5509","4.6681","28.07","0","SATNPRO1962","22.436","0.31426","5"],
    [29603,"HCEP03730560","2024-08-01 15:45:00","10.3413","3.29955","27.7","2.43","7.51","0.737","3.833","0.1","0.17","29.5487","4.66812","26.2","0","SATNPRO1962","22.498","0.3151","5"],
    [29604,"HCEP03730560","2024-08-01 16:00:00","10.3356","3.29899","27.709","2.325","7.51","0.68","3.915","0.12","0.16","29.5477","4.66808","25.06","0","SATNPRO1962","22.3","0.31238","5"],
    [29605,"HCEP03730560","2024-08-01 16:15:00","10.3287","3.29828","27.751","2.27","7.5","0.69","3.781","0.09","0.35","29.5463","4.66798","24.46","0","SATNPRO1962","23.094","0.32348","5"],
    [29606,"HCEP03730560","2024-08-01 16:30:00","10.3257","3.29793","27.731","2.241","7.5","0.635","3.534","0.08","0.15","29.5453","4.66789","24.15","0","SATNPRO1962","22.31","0.31246","5"],
    [29607,"HCEP03730560","2024-08-01 16:45:00","10.3123","3.29658","27.738","2.189","7.49","0.737","3.464","0.24","0.15","29.5428","4.66776","23.58","0","SATNPRO1962","22.238","0.31146","5"],
    [29608,"HCEP03730560","2024-08-01 17:00:00","10.3101","3.29638","27.737","2.13","7.49","0.628","3.734","0.09","0.27","29.5426","4.66776","22.95","0","SATNPRO1962","22.192","0.3109","5"],
    [29609,"HCEP03730560","2024-08-01 17:15:00","10.308","3.29617","27.689","2.105","7.49","0.607","3.582","0.09","0.75","29.5422","4.66774","22.67","0","SATNPRO1962","22.084","0.30934","5"],
    [29610,"HCEP03730560","2024-08-01 17:30:00","10.3069","3.29599","27.65","2.083","7.48","0.63","3.364","0.14","0.19","29.5413","4.66763","22.44","0","SATNPRO1962","22.134","0.31","5"],
    [29611,"HCEP03730560","2024-08-01 17:45:00","10.3065","3.29594","27.604","2.059","7.48","0.613","3.299","0.1","0.12","29.5411","4.66761","22.18","0","SATNPRO1962","21.964","0.30762","5"],
    [29612,"HCEP03730560","2024-08-01 18:00:00","10.308","3.2961","27.554","2.054","7.48","0.569","3.347","0.11","0.2","29.5416","4.66764","22.13","0","SATNPRO1962","22.154","0.3103","5"],
    [29613,"HCEP03730560","2024-08-01 18:15:00","10.3166","3.29697","27.514","2.087","7.48","0.601","3.174","0.1","0.07","29.5433","4.66774","22.49","0","SATNPRO1962","22.114","0.30974","5"],
    [29614,"HCEP03730560","2024-08-01 18:30:00","10.3719","3.30219","27.463","2.282","7.5","0.565","3.298","0.1","0.27","29.55","4.6678","24.61","0","SATNPRO1962","22.176000000000002","0.31068","5"],
    [29615,"HCEP03730560","2024-08-01 18:45:00","10.326","3.29761","27.388","2.353","7.49","0.606","3.133","0.1","0.2","29.542","4.6674","25.36","0","SATNPRO1962","22.448","0.31446","5"],
    [29616,"HCEP03730560","2024-08-01 19:00:00","10.4025","3.30577","27.312","2.389","7.52","0.56","3.236","0.12","0.18","29.5608","4.66884","25.79","0","SATNPRO1962","23.034","0.3226","5"],
    [29617,"HCEP03730560","2024-08-01 19:15:00","10.3581","3.30075","27.251","2.525","7.51","0.548","2.964","0.09","0.11","29.5471","4.6676","27.23","0","SATNPRO1962","22.644","0.31718","5"],
    [29618,"HCEP03730560","2024-08-01 19:30:00","10.3321","3.29857","27.185","2.36","7.5","0.538","3.11","0.06","0.12","29.5466","4.66794","25.44","0","SATNPRO1962","22.574","0.31618","5"],
    [29619,"HCEP03730560","2024-08-01 19:45:00","10.321","3.29741","27.127","2.228","7.49","0.719","3.424","0.24","0.34","29.5442","4.66778","24.01","0","SATNPRO1962","22.192","0.31084","5"],
    [29620,"HCEP03730560","2024-08-01 20:00:00","10.3103","3.29624","27.07","2.099","7.48","0.74","4.014","0.18","0.58","29.5412","4.66753","22.62","0","SATNPRO1962","21.976","0.30778","5"],
    [29621,"HCEP03730560","2024-08-01 20:15:00","10.3093","3.29617","26.996","2.035","7.48","0.729","3.7","0.16","0.58","29.5414","4.66757","21.93","0","SATNPRO1962","22.062","0.309","5"],
    [29622,"HCEP03730560","2024-08-01 20:30:00","10.3143","3.29658","26.932","2.024","7.48","0.635","4.197","0.09","2.56","29.5415","4.6675","21.81","0","SATNPRO1962","22.058","0.30898","5"],
    [29623,"HCEP03730560","2024-08-01 20:45:00","10.321","3.2973","26.867","2.057","7.48","0.616","3.588","0.06","0.12","29.5432","4.66762","22.17","0","SATNPRO1962","21.974","0.3078","5"],
    [29624,"HCEP03730560","2024-08-01 21:00:00","10.3186","3.29711","26.849","2.079","7.48","0.631","3.631","0.08","0.23","29.5432","4.66766","22.4","0","SATNPRO1962","21.958000000000002","0.30758","5"],
    [29625,"HCEP03730560","2024-08-01 21:15:00","10.3297","3.29838","26.801","2.136","7.49","0.67","3.425","0.1","0.25","29.5469","4.668","23.02","0","SATNPRO1962","22.216","0.31114","5"],
    [29626,"HCEP03730560","2024-08-01 21:30:00","10.3041","3.29557","26.798","2.091","7.48","0.672","4.094","0.17","0.44","29.5398","4.6674","22.52","0","SATNPRO1962","21.87","0.30632","5"],
    [29627,"HCEP03730560","2024-08-01 21:45:00","10.3293","3.29802","26.792","2.073","7.48","0.743","3.806","0.19","0.54","29.5437","4.66756","22.35","0","SATNPRO1962","22.498","0.31514","5"],
    [29628,"HCEP03730560","2024-08-01 22:00:00","10.3913","3.30448","26.814","2.29","7.51","0.668","3.696","0.16","0.31","29.5572","4.66848","24.72","0","SATNPRO1962","22.728","0.31836","5"],
    [29629,"HCEP03730560","2024-08-01 22:15:00","10.383","3.30356","26.815","2.454","7.51","0.73","3.674","0.15","0.12","29.5549","4.66828","26.48","0","SATNPRO1962","22.738","0.3185","5"],
    [29630,"HCEP03730560","2024-08-01 22:30:00","10.41","3.3061","26.836","2.51","7.52","0.676","4.115","0.08","0.16","29.5582","4.66831","27.1","0","SATNPRO1962","22.508","0.31528","5"],
    [29631,"HCEP03730560","2024-08-01 22:45:00","10.3824","3.30363","26.877","2.483","7.51","0.727","4.357","0.09","0.18","29.5561","4.66847","26.79","0","SATNPRO1962","22.202","0.31096","5"],
    [29632,"HCEP03730560","2024-08-01 23:00:00","10.388","3.30416","26.915","2.424","7.51","0.689","4.48","0.09","0.29","29.5567","4.66847","26.16","0","SATNPRO1962","22.248","0.31158","5"],
    [29633,"HCEP03730560","2024-08-01 23:15:00","10.4151","3.30678","26.964","2.502","7.52","0.735","4.383","0.09","0.15","29.5607","4.66861","27.02","0","SATNPRO1962","22.304","0.3124","5"],
    [29634,"HCEP03730560","2024-08-01 23:30:00","10.4165","3.30708","27.018","2.589","7.53","0.701","4.576","0.08","0.29","29.5626","4.66885","27.96","0","SATNPRO1962","22.408","0.31388","5"],
    [29635,"HCEP03730560","2024-08-01 23:45:00","10.4257","3.30809","27.055","2.632","7.53","0.872","4.788","0.45","0.19","29.565","4.66905","28.43","0","SATNPRO1962","22.57","0.3161","5"],
    [29636,"HCEP03730560","2024-08-02 00:00:00","10.4586","3.31132","27.106","2.747","7.54","0.766","4.941","0.14","0.4","29.5703","4.66928","29.69","0","SATNPRO1962","22.784000000000002","0.31916","5"],
    [29637,"HCEP03730560","2024-08-02 00:15:00","10.4549","3.31094","27.152","2.828","7.54","0.823","5.491","0.13","1.15","29.5696","4.66924","30.57","0","SATNPRO1962","22.654","0.31732","5"],
    [29638,"HCEP03730560","2024-08-02 00:30:00","10.4802","3.31357","27.19","2.886","7.55","0.854","5.224","0.12","0.34","29.5749","4.6696","31.21","0","SATNPRO1962","23.004","0.32222","5"],
    [29639,"HCEP03730560","2024-08-02 00:45:00","10.5171","3.31725","27.237","3.039","7.57","0.892","5.361","0.12","0.28","29.5814","4.66994","32.9","0","SATNPRO1962","22.982","0.32194","5"],
    [29640,"HCEP03730560","2024-08-02 01:00:00","10.5363","3.31914","27.286","3.204","7.58","0.882","5.805","0.13","0.33","29.5844","4.67006","34.7","0","SATNPRO1962","23.068","0.3231","5"],
    [29641,"HCEP03730560","2024-08-02 01:15:00","10.5656","3.322","27.324","3.344","7.6","0.852","5.819","0.13","0.65","29.589","4.67025","36.24","0","SATNPRO1962","23.098","0.32354","5"],
    [29642,"HCEP03730560","2024-08-02 01:30:00","10.589","3.32431","27.355","3.473","7.61","0.862","6.068","0.09","0.61","29.5927","4.67042","37.66","0","SATNPRO1962","23.318","0.32658","5"],
    [29643,"HCEP03730560","2024-08-02 01:45:00","10.6089","3.32613","27.385","3.574","7.62","0.924","5.883","0.22","0.31","29.5946","4.67037","38.77","0","SATNPRO1962","23.25","0.32566","5"],
    [29644,"HCEP03730560","2024-08-02 02:00:00","10.6253","3.32758","27.381","3.651","7.63","0.849","5.788","0.1","0.3","29.5956","4.67025","39.62","0","SATNPRO1962","23.366","0.32732","5"],
    [29645,"HCEP03730560","2024-08-02 02:15:00","10.63","3.32804","27.403","3.695","7.63","0.887","5.989","0.12","0.3","29.5963","4.67028","40.1","0","SATNPRO1962","23.426000000000002","0.32816","5"],
    [29646,"HCEP03730560","2024-08-02 02:30:00","10.6322","3.32822","27.388","3.705","7.63","0.874","6.288","0.12","0.28","29.5962","4.67024","40.21","0","SATNPRO1962","23.25","0.32568","5"],
    [29647,"HCEP03730560","2024-08-02 02:45:00","10.632","3.32822","27.364","3.701","7.63","0.925","6.007","0.12","0.29","29.5964","4.67027","40.17","0","SATNPRO1962","23.306","0.32646","5"],
    [29648,"HCEP03730560","2024-08-02 03:00:00","10.6321","3.32829","27.327","3.691","7.63","0.845","5.603","0.11","0.37","29.5971","4.67036","40.06","0","SATNPRO1962","23.36","0.32722","5"],
    [29649,"HCEP03730560","2024-08-02 03:15:00","10.6318","3.32849","27.269","3.708","7.63","0.933","5.462","0.31","0.37","29.5992","4.67067","40.24","0","SATNPRO1962","23.348","0.32704","5"],
    [29650,"HCEP03730560","2024-08-02 03:30:00","10.631","3.32856","27.211","3.744","7.64","0.812","5.746","0.13","0.69","29.6007","4.67089","40.64","0","SATNPRO1962","23.355999999999998","0.32712","5"],
    [29651,"HCEP03730560","2024-08-02 03:45:00","10.6328","3.32889","27.119","3.772","7.64","0.813","4.799","0.21","0.37","29.6025","4.67111","40.94","0","SATNPRO1962","23.492","0.3291","5"],
    [29652,"HCEP03730560","2024-08-02 04:00:00","10.6338","3.32912","27.021","3.814","7.64","0.721","4.372","0.11","0.19","29.6039","4.67129","41.4","0","SATNPRO1962","23.642","0.33118","5"],
    [29653,"HCEP03730560","2024-08-02 04:15:00","10.6395","3.32968","26.892","3.846","7.65","0.788","4.908","0.09","0.46","29.6049","4.67134","41.75","0","SATNPRO1962","23.552","0.32992","5"],
    [29654,"HCEP03730560","2024-08-02 04:30:00","10.6397","3.32976","26.754","3.864","7.65","0.822","4.765","0.18","0.27","29.6056","4.67142","41.95","0","SATNPRO1962","23.528","0.32956","5"],
    [29655,"HCEP03730560","2024-08-02 04:45:00","10.637","3.32965","26.589","3.882","7.65","0.8","4.387","0.2","0.16","29.6067","4.67161","42.14","0","SATNPRO1962","23.554","0.32992","5"],
    [29656,"HCEP03730560","2024-08-02 05:00:00","10.6383","3.32974","26.426","3.887","7.65","0.67","4.362","0.15","0.21","29.6066","4.67157","42.19","0","SATNPRO1962","23.73","0.33244","5"],
    [29657,"HCEP03730560","2024-08-02 05:15:00","10.6383","3.32979","26.228","3.884","7.65","0.777","4.302","0.15","0.43","29.6072","4.67164","42.17","0","SATNPRO1962","23.816","0.3336","5"],
    [29658,"HCEP03730560","2024-08-02 05:30:00","10.6395","3.32981","26.029","3.898","7.65","1.05","10.437","0.16","3.16","29.6066","4.67152","42.32","0","SATNPRO1962","23.72","0.3322","5"],
    [29659,"HCEP03730560","2024-08-02 05:45:00","10.6439","3.33017","25.827","3.901","7.65","0.819","4.126","0.21","0.16","29.6066","4.67144","42.35","0","SATNPRO1962","23.404","0.3278","5"],
    [29660,"HCEP03730560","2024-08-02 06:00:00","10.6475","3.33054","25.602","3.913","7.66","0.708","4.074","0.08","0.12","29.6074","4.67149","42.49","0","SATNPRO1962","23.876","0.33446","5"],
    [29661,"HCEP03730560","2024-08-02 06:15:00","10.6539","3.33094","25.392","3.921","7.65","0.818","4.311","0.15","0.15","29.6062","4.67121","42.58","0","SATNPRO1962","23.942","0.33532","5"],
    [29662,"HCEP03730560","2024-08-02 06:30:00","10.6698","3.3324","25.186","3.945","7.66","0.743","4.265","0.13","0.14","29.6078","4.67118","42.86","0","SATNPRO1962","23.618000000000002","0.33082","5"],
    [29663,"HCEP03730560","2024-08-02 06:45:00","10.6788","3.33311","24.973","4.009","7.66","0.953","4.119","0.47","0.23","29.6076","4.67099","43.56","0","SATNPRO1962","23.344","0.32696","5"],
    [29664,"HCEP03730560","2024-08-02 07:00:00","10.6818","3.3334","24.747","4.044","7.67","0.786","4.057","0.13","0.18","29.6081","4.67101","43.94","0","SATNPRO1962","23.644000000000002","0.33116","5"],
    [29665,"HCEP03730560","2024-08-02 07:15:00","10.6842","3.33355","24.516","4.045","7.66","0.837","4.086","0.11","0.19","29.6078","4.67091","43.95","0","SATNPRO1962","23.476","0.3288","5"],
    [29666,"HCEP03730560","2024-08-02 07:30:00","10.6784","3.33296","24.337","4.029","7.66","0.933","4.584","0.23","0.29","29.6067","4.67083","43.78","0","SATNPRO1962","23.508","0.32928","5"],
    [29667,"HCEP03730560","2024-08-02 07:45:00","10.6828","3.33343","24.168","4.011","7.67","0.812","4.338","0.11","0.19","29.6078","4.67092","43.58","0","SATNPRO1962","23.701999999999998","0.33198","5"],
    [29668,"HCEP03730560","2024-08-02 08:00:00","10.6727","3.33258","24.018","3.982","7.66","0.864","4.965","0.19","0.23","29.6077","4.67105","43.26","0","SATNPRO1962","23.54","0.32972","5"],
    [29669,"HCEP03730560","2024-08-02 08:15:00","10.6669","3.332","23.877","3.933","7.66","0.925","5.03","0.42","0.26","29.6068","4.671","42.73","0","SATNPRO1962","23.378","0.32748","5"],
    [29670,"HCEP03730560","2024-08-02 08:30:00","10.6727","3.33248","23.794","3.911","7.66","0.815","5.498","0.1","0.33","29.6068","4.67091","42.49","0","SATNPRO1962","23.292","0.32628","5"],
    [29671,"HCEP03730560","2024-08-02 08:45:00","10.7024","3.33547","23.746","3.958","7.67","0.911","4.799","0.14","0.29","29.6122","4.67121","43.03","0","SATNPRO1962","23.522","0.32942","5"],
    [29672,"HCEP03730560","2024-08-02 09:00:00","10.7028","3.33538","23.711","4.04","7.67","0.83","5.387","0.1","0.47","29.6111","4.67104","43.92","0","SATNPRO1962","23.576","0.33022","5"],
    [29673,"HCEP03730560","2024-08-02 09:15:00","10.6977","3.33489","23.724","4.049","7.67","0.836","4.331","0.16","0.17","29.6103","4.67102","44.01","0","SATNPRO1962","23.721999999999998","0.3323","5"],
    [29674,"HCEP03730560","2024-08-02 09:30:00","10.7029","3.33564","23.739","4.069","7.67","0.841","4.402","0.15","0.25","29.6134","4.67138","44.23","0","SATNPRO1962","23.652","0.3313","5"],
    [29675,"HCEP03730560","2024-08-02 09:45:00","10.7083","3.3361","23.767","4.119","7.68","0.843","3.826","0.14","0.16","29.6137","4.67133","44.78","0","SATNPRO1962","23.81","0.3335","5"],
    [29676,"HCEP03730560","2024-08-02 10:00:00","10.6746","3.33289","23.832","4.079","7.67","0.776","4.002","0.16","0.12","29.6094","4.67124","44.32","0","SATNPRO1962","23.45","0.32844","5"],
    [29677,"HCEP03730560","2024-08-02 10:15:00","10.6988","3.33532","23.929","4.039","7.67","0.882","3.813","0.17","0.13","29.6136","4.67148","43.91","0","SATNPRO1962","23.72","0.33224","5"],
    [29678,"HCEP03730560","2024-08-02 10:30:00","10.6983","3.33525","24.061","4.091","7.67","0.848","4.142","0.25","1.09","29.6132","4.67144","44.47","0","SATNPRO1962","23.78","0.33308","5"],
    [29679,"HCEP03730560","2024-08-02 10:45:00","10.7131","3.33662","24.215","4.128","7.68","0.819","3.793","0.12","0.12","29.6146","4.67142","44.88","0","SATNPRO1962","23.8","0.33334","5"],
    [29680,"HCEP03730560","2024-08-02 11:00:00","10.7136","3.33712","24.458","4.155","7.68","0.881","4.138","0.3","0.16","29.6191","4.67206","45.18","0","SATNPRO1962","23.826","0.33374","5"],
    [29681,"HCEP03730560","2024-08-02 11:15:00","10.7311","3.33838","24.636","4.216","7.69","0.77","3.959","0.09","0.08","29.6173","4.67154","45.86","0","SATNPRO1962","23.754","0.33272","5"],
    [29682,"HCEP03730560","2024-08-02 11:30:00","10.7652","3.34164","24.748","4.305","7.7","0.786","3.517","0.1","0.11","29.6217","4.67164","46.86","0","SATNPRO1962","23.948","0.33542","5"],
    [29683,"HCEP03730560","2024-08-02 11:45:00","10.802","3.3448","24.978","4.467","7.71","0.902","3.194","0.18","0.12","29.6228","4.67124","48.67","0","SATNPRO1962","23.938","0.3353","5"],
    [29684,"HCEP03730560","2024-08-02 12:00:00","10.7358","3.33872","25.147","4.426","7.69","0.853","4.542","0.11","0.16","29.6166","4.6714","48.15","0","SATNPRO1962","23.276","0.326","5"],
    [29685,"HCEP03730560","2024-08-02 12:15:00","10.7117","3.33635","25.358","4.239","7.68","0.811","4.581","0.09","0.16","29.6127","4.67123","46.09","0","SATNPRO1962","23.552","0.32986","5"],
    [29686,"HCEP03730560","2024-08-02 12:30:00","10.6793","3.33305","25.537","4.052","7.67","0.86","5.14","0.11","0.35","29.6064","4.67084","44.03","0","SATNPRO1962","23.17","0.32452","5"],
    [29687,"HCEP03730560","2024-08-02 12:45:00","10.6245","3.32808","25.767","3.81","7.64","0.863","5.076","0.16","0.17","29.6018","4.67106","41.35","0","SATNPRO1962","23.066","0.32306","5"],
    [29688,"HCEP03730560","2024-08-02 13:00:00","10.6142","3.32722","25.983","3.612","7.63","0.82","5.802","0.06","0.24","29.6015","4.67119","39.19","0","SATNPRO1962","22.994","0.32206","5"],
    [29689,"HCEP03730560","2024-08-02 13:15:00","10.597","3.32563","26.216","3.508","7.62","0.805","5.711","0.05","0.19","29.5996","4.67121","38.05","0","SATNPRO1962","22.948","0.32142","5"],
    [29690,"HCEP03730560","2024-08-02 13:30:00","10.5786","3.32393","26.458","3.453","7.61","0.773","5.559","0.08","0.18","29.5977","4.67124","37.43","0","SATNPRO1962","23.104","0.32364","5"],
    [29691,"HCEP03730560","2024-08-02 13:45:00","10.5705","3.32318","26.645","3.445","7.61","0.739","5.066","0.05","0.15","29.5969","4.67126","37.34","0","SATNPRO1962","23.21","0.3251","5"],
    [29692,"HCEP03730560","2024-08-02 14:00:00","10.5766","3.32369","26.81","3.468","7.61","0.694","5.027","0.06","0.15","29.5969","4.67117","37.6","0","SATNPRO1962","23.264","0.32586","5"],
    [29693,"HCEP03730560","2024-08-02 14:15:00","10.5843","3.32436","27.016","3.498","7.61","0.718","4.903","0.04","0.13","29.5972","4.67112","37.93","0","SATNPRO1962","23.25","0.32566","5"],
    [29694,"HCEP03730560","2024-08-02 14:30:00","10.5897","3.32472","27.149","3.508","7.61","0.742","5.209","0.14","0.17","29.5963","4.67091","38.04","0","SATNPRO1962","23.398","0.32774","5"],
    [29695,"HCEP03730560","2024-08-02 14:45:00","10.5937","3.32515","27.294","3.511","7.61","0.754","5.171","0.06","0.17","29.5972","4.67098","38.07","0","SATNPRO1962","23.256","0.32574","5"],
    [29696,"HCEP03730560","2024-08-02 15:00:00","10.6043","3.32603","27.4","3.522","7.62","0.723","5.037","0.07","0.15","29.5973","4.67082","38.21","0","SATNPRO1962","23.156","0.32434","5"],
    [29697,"HCEP03730560","2024-08-02 15:15:00","10.608","3.32624","27.522","3.537","7.62","0.762","5.178","0.07","0.23","29.5963","4.67064","38.37","0","SATNPRO1962","23.132","0.32404","5"],
    [29698,"HCEP03730560","2024-08-02 15:30:00","10.6107","3.32664","27.649","3.529","7.62","0.778","5.125","0.07","0.24","29.598","4.67084","38.28","0","SATNPRO1962","23.176","0.32464","5"],
    [29699,"HCEP03730560","2024-08-02 15:45:00","10.5968","3.32501","27.707","3.514","7.61","0.796","4.883","0.13","0.14","29.5932","4.67038","38.11","0","SATNPRO1962","23.096","0.32354","5"],
    [29700,"HCEP03730560","2024-08-02 16:00:00","10.6169","3.32697","27.802","3.492","7.61","0.776","4.867","0.13","0.19","29.5962","4.67049","37.89","0","SATNPRO1962","23.076","0.32322","5"],
    [29701,"HCEP03730560","2024-08-02 16:15:00","10.6201","3.32686","27.775","3.513","7.61","0.782","4.812","0.09","0.17","29.5925","4.66992","38.11","0","SATNPRO1962","23.31","0.3265","5"],
    [29702,"HCEP03730560","2024-08-02 16:30:00","10.6099","3.32621","27.777","3.482","7.61","0.789","5.116","0.11","0.2","29.5943","4.67034","37.77","0","SATNPRO1962","22.794","0.31924","5"],
    [29703,"HCEP03730560","2024-08-02 16:45:00","10.6007","3.32511","27.857","3.428","7.61","0.799","4.848","0.1","0.15","29.5909","4.67","37.18","0","SATNPRO1962","22.632","0.317","5"],
    [29704,"HCEP03730560","2024-08-02 17:00:00","10.6099","3.32569","27.855","3.392","7.6","0.817","4.807","0.08","0.16","29.5892","4.66962","36.79","0","SATNPRO1962","22.651999999999997","0.31728","5"],
    [29705,"HCEP03730560","2024-08-02 17:15:00","10.7994","3.34112","27.846","3.74","7.66","0.91","4.404","0.12","0.21","29.5877","4.66645","40.73","0","SATNPRO1962","22.756","0.31874","5"],
    [29706,"HCEP03730560","2024-08-02 17:30:00","10.5353","3.31899","27.835","3.694","7.6","0.736","5.096","0.07","0.17","29.5835","4.66999","40","0","SATNPRO1962","22.7","0.31792","5"],
    [29707,"HCEP03730560","2024-08-02 17:45:00","10.539","3.31939","27.846","3.146","7.59","0.732","5.061","0.06","0.13","29.5845","4.67007","34.07","0","SATNPRO1962","22.766000000000002","0.31888","5"],
    [29708,"HCEP03730560","2024-08-02 18:00:00","10.5211","3.31771","27.783","3.09","7.58","0.741","5.164","0.05","0.32","29.5825","4.67005","33.46","0","SATNPRO1962","22.446","0.31438","5"],
    [29709,"HCEP03730560","2024-08-02 18:15:00","10.512","3.31672","27.737","3.009","7.57","0.788","5.081","0.09","0.26","29.5801","4.66986","32.57","0","SATNPRO1962","22.604","0.31662","5"],
    [29710,"HCEP03730560","2024-08-02 18:30:00","10.5133","3.31639","27.728","2.995","7.57","0.655","4.693","0.06","0.28","29.5758","4.66923","32.42","0","SATNPRO1962","22.924","0.3211","5"],
    [29711,"HCEP03730560","2024-08-02 18:45:00","10.5052","3.31564","27.665","2.999","7.56","0.685","4.495","0.06","0.2","29.5749","4.66923","32.45","0","SATNPRO1962","22.578","0.31626","5"],
    [29712,"HCEP03730560","2024-08-02 19:00:00","10.5059","3.31581","27.586","2.941","7.56","0.711","4.789","0.08","0.2","29.5761","4.66938","31.83","0","SATNPRO1962","22.604","0.31658","5"],
    [29713,"HCEP03730560","2024-08-02 19:15:00","10.5041","3.31556","27.496","2.917","7.56","0.704","4.877","0.06","0.3","29.5752","4.66927","31.57","0","SATNPRO1962","22.524","0.31544","5"],
    [29714,"HCEP03730560","2024-08-02 19:30:00","10.5095","3.31613","27.43","2.906","7.56","0.64","4.555","0.05","0.14","29.5764","4.66936","31.45","0","SATNPRO1962","22.63","0.31696","5"],
    [29715,"HCEP03730560","2024-08-02 19:45:00","10.5252","3.31715","27.396","2.977","7.56","0.687","4.379","0.07","0.21","29.5738","4.66873","32.23","0","SATNPRO1962","22.672","0.31754","5"],
    [29716,"HCEP03730560","2024-08-02 20:00:00","10.5092","3.3156","27.289","2.954","7.56","0.625","4.383","0.05","0.12","29.5715","4.66865","31.97","0","SATNPRO1962","22.608","0.31666","5"],
    [29717,"HCEP03730560","2024-08-02 20:15:00","10.5039","3.31528","27.226","2.88","7.55","0.671","4.652","0.04","0.12","29.5726","4.66889","31.16","0","SATNPRO1962","22.448","0.3144","5"],
    [29718,"HCEP03730560","2024-08-02 20:30:00","10.5039","3.31523","27.15","2.838","7.55","0.64","4.977","0.04","0.06","29.5722","4.66882","30.71","0","SATNPRO1962","22.362","0.31326","5"],
    [29719,"HCEP03730560","2024-08-02 20:45:00","10.5015","3.31506","27.082","2.807","7.55","0.722","5.214","0.07","0.13","29.5724","4.66889","30.37","0","SATNPRO1962","22.302","0.31238","5"],
    [29720,"HCEP03730560","2024-08-02 21:00:00","10.5006","3.31493","26.943","2.78","7.55","0.682","5.241","0.05","0.1","29.5719","4.66883","30.08","0","SATNPRO1962","22.152","0.31028","5"],
    [29721,"HCEP03730560","2024-08-02 21:15:00","10.4906","3.31405","26.905","2.755","7.54","0.686","4.92","0.04","0.22","29.5714","4.66892","29.81","0","SATNPRO1962","22.17","0.31054","5"],
    [29722,"HCEP03730560","2024-08-02 21:30:00","10.482","3.31323","26.871","2.717","7.54","0.623","4.738","0.05","0.13","29.5702","4.66888","29.38","0","SATNPRO1962","22.226","0.31128","5"],
    [29723,"HCEP03730560","2024-08-02 21:45:00","10.5407","3.31832","26.793","2.784","7.55","0.683","4.659","0.04","0.07","29.573","4.66833","30.14","0","SATNPRO1962","22.178","0.31062","5"],
    [29724,"HCEP03730560","2024-08-02 22:00:00","10.5472","3.31979","26.758","2.941","7.56","0.692","4.628","0.05","0.1","29.5822","4.66955","31.85","0","SATNPRO1962","22.138","0.31012","5"],
    [29725,"HCEP03730560","2024-08-02 22:15:00","10.6132","3.32507","26.72","3.001","7.57","0.736","4.634","0.06","0.07","29.5809","4.66832","32.55","0","SATNPRO1962","22.182","0.31068","5"],
    [29726,"HCEP03730560","2024-08-02 22:30:00","10.4735","3.31246","26.72","2.924","7.54","0.638","4.432","0.07","0.09","29.5696","4.66892","31.62","0","SATNPRO1962","22.12","0.3098","5"],
    [29727,"HCEP03730560","2024-08-02 22:45:00","10.4589","3.31106","26.732","2.625","7.53","0.635","4.16","0.05","0.15","29.5676","4.66887","28.37","0","SATNPRO1962","22.056","0.30894","5"],
    [29728,"HCEP03730560","2024-08-02 23:00:00","10.4592","3.31102","26.738","2.586","7.53","0.543","3.788","0.04","0.06","29.567","4.66878","27.96","0","SATNPRO1962","22.064","0.30906","5"],
    [29729,"HCEP03730560","2024-08-02 23:15:00","10.4284","3.30787","26.804","2.491","7.52","0.634","4.178","0.07","0.13","29.5607","4.66838","26.91","0","SATNPRO1962","21.828","0.30572","5"],
    [29730,"HCEP03730560","2024-08-02 23:30:00","10.4224","3.30707","26.821","2.355","7.51","0.558","3.848","0.06","0.11","29.5577","4.66805","25.43","0","SATNPRO1962","21.784","0.3051","5"],
    [29731,"HCEP03730560","2024-08-02 23:45:00","10.415","3.30656","26.879","2.325","7.5","0.6","4.07","0.05","0.16","29.5587","4.66831","25.11","0","SATNPRO1962","21.596","0.3025","5"],
    [29732,"HCEP03730560","2024-08-03 00:00:00","10.4146","3.30663","26.942","2.271","7.5","0.571","4.36","0.05","0.09","29.5597","4.66846","24.52","0","SATNPRO1962","21.64","0.3031","5"],
    [29733,"HCEP03730560","2024-08-03 00:15:00","10.4154","3.30657","26.992","2.274","7.5","0.571","4.046","0.04","0.1","29.5584","4.66827","24.56","0","SATNPRO1962","21.724","0.30428","5"],
    [29734,"HCEP03730560","2024-08-03 00:30:00","10.4196","3.30717","27.053","2.295","7.5","0.579","4.149","0.12","0.19","29.561","4.66857","24.79","0","SATNPRO1962","21.682","0.30372","5"],
    [29735,"HCEP03730560","2024-08-03 00:45:00","10.4336","3.30797","27.098","2.354","7.51","0.594","3.904","0.06","0.1","29.5574","4.66785","25.43","0","SATNPRO1962","21.738","0.30446","5"],
    [29736,"HCEP03730560","2024-08-03 01:00:00","10.4485","3.31016","27.173","2.444","7.51","0.557","3.717","0.06","0.12","29.567","4.66898","26.42","0","SATNPRO1962","21.988","0.30794","5"],
    [29737,"HCEP03730560","2024-08-03 01:15:00","10.4358","3.3089","27.242","2.481","7.51","0.629","4.387","0.06","0.25","29.5648","4.66887","26.81","0","SATNPRO1962","21.77","0.30494","5"],
    [29738,"HCEP03730560","2024-08-03 01:30:00","10.447","3.30992","27.3","2.441","7.51","0.642","4.652","0.08","0.18","29.5657","4.66882","26.38","0","SATNPRO1962","21.642","0.30318","5"],
    [29739,"HCEP03730560","2024-08-03 01:45:00","10.4579","3.3111","27.325","2.471","7.52","0.653","4.523","0.07","0.07","29.5686","4.66906","26.71","0","SATNPRO1962","21.856","0.30612","5"],
    [29740,"HCEP03730560","2024-08-03 02:00:00","10.4683","3.31217","27.376","2.541","7.52","0.615","4.68","0.04","0.09","29.5707","4.6692","27.48","0","SATNPRO1962","21.91","0.3069","5"],
    [29741,"HCEP03730560","2024-08-03 02:15:00","10.4779","3.31316","27.437","2.584","7.52","0.686","4.862","0.09","0.33","29.5726","4.66932","27.94","0","SATNPRO1962","21.864","0.30626","5"],
    [29742,"HCEP03730560","2024-08-03 02:30:00","10.4868","3.31402","27.477","2.624","7.53","0.654","4.842","0.06","0.1","29.574","4.66937","28.39","0","SATNPRO1962","22.06","0.30896","5"],
    [29743,"HCEP03730560","2024-08-03 02:45:00","10.4934","3.31473","27.49","2.66","7.53","0.716","4.832","0.07","0.16","29.5756","4.66951","28.78","0","SATNPRO1962","22.22","0.3112","5"],
    [29744,"HCEP03730560","2024-08-03 03:00:00","10.5025","3.31562","27.503","2.704","7.54","0.69","4.841","0.07","0.13","29.577","4.66956","29.26","0","SATNPRO1962","22.108","0.3097","5"],
    [29745,"HCEP03730560","2024-08-03 03:15:00","10.5128","3.31671","27.488","2.746","7.54","0.733","4.898","0.09","0.17","29.5794","4.66974","29.73","0","SATNPRO1962","22.286","0.31218","5"],
    [29746,"HCEP03730560","2024-08-03 03:30:00","10.5201","3.31744","27.474","2.784","7.54","0.779","5.152","0.34","0.23","29.5808","4.66981","30.14","0","SATNPRO1962","22.174","0.3106","5"],
    [29747,"HCEP03730560","2024-08-03 03:45:00","10.5302","3.31849","27.447","2.821","7.55","0.754","4.999","0.11","0.16","29.5829","4.66995","30.55","0","SATNPRO1962","22.144","0.31016","5"],
    [29748,"HCEP03730560","2024-08-03 04:00:00","10.5455","3.32006","27.4","2.888","7.55","0.758","5.12","0.12","0.23","29.5861","4.67016","31.28","0","SATNPRO1962","22.108","0.30966","5"],
    [29749,"HCEP03730560","2024-08-03 04:15:00","10.5588","3.32134","27.32","2.96","7.56","0.769","5.096","0.1","0.14","29.5879","4.67021","32.07","0","SATNPRO1962","22.358","0.31316","5"],
    [29750,"HCEP03730560","2024-08-03 04:30:00","10.5674","3.32208","27.225","2.999","7.56","0.783","5.511","0.1","0.27","29.5883","4.67012","32.51","0","SATNPRO1962","22.208","0.31104","5"],
    [29751,"HCEP03730560","2024-08-03 04:45:00","10.5733","3.32276","27.131","3.015","7.56","0.808","5.543","0.09","0.17","29.5903","4.6703","32.68","0","SATNPRO1962","22.272","0.31192","5"],
    [29752,"HCEP03730560","2024-08-03 05:00:00","10.5789","3.32333","27.009","3.042","7.57","0.761","5.396","0.07","0.21","29.5914","4.67037","32.97","0","SATNPRO1962","22.26","0.3118","5"],
    [29753,"HCEP03730560","2024-08-03 05:15:00","10.5896","3.32445","26.879","3.065","7.57","0.838","5.657","0.11","0.19","29.5938","4.67054","33.24","0","SATNPRO1962","22.272","0.31196","5"],
    [29754,"HCEP03730560","2024-08-03 05:30:00","10.6002","3.32542","26.718","3.095","7.57","0.817","5.725","0.12","0.22","29.5949","4.67051","33.57","0","SATNPRO1962","22.204","0.311","5"],
    [29755,"HCEP03730560","2024-08-03 05:45:00","10.6061","3.32601","26.548","3.121","7.58","0.897","5.961","0.12","0.2","29.596","4.67057","33.86","0","SATNPRO1962","22.306","0.31242","5"],
    [29756,"HCEP03730560","2024-08-03 06:00:00","10.618","3.32724","26.356","3.168","7.58","0.814","5.598","0.09","0.19","29.5985","4.67072","34.38","0","SATNPRO1962","22.454","0.31452","5"],
    [29757,"HCEP03730560","2024-08-03 06:15:00","10.6375","3.3291","26.158","3.248","7.59","0.821","5.133","0.08","0.12","29.6012","4.67079","35.25","0","SATNPRO1962","22.42","0.31404","5"],
    [29758,"HCEP03730560","2024-08-03 06:30:00","10.6389","3.32914","25.961","3.329","7.6","0.785","4.566","0.14","0.13","29.6004","4.67065","36.14","0","SATNPRO1962","22.596","0.31648","5"],
    [29759,"HCEP03730560","2024-08-03 06:45:00","10.6297","3.32829","25.734","3.339","7.59","0.807","5.126","0.09","0.19","29.5996","4.67066","36.24","0","SATNPRO1962","22.48","0.31492","5"],
    [29760,"HCEP03730560","2024-08-03 07:00:00","10.6083","3.32621","25.516","3.221","7.58","0.841","5.615","0.07","0.3","29.5966","4.67056","34.94","0","SATNPRO1962","22.292","0.31218","5"],
    [29761,"HCEP03730560","2024-08-03 07:15:00","10.606","3.32599","25.258","3.16","7.58","0.956","5.897","0.12","0.4","29.5963","4.67054","34.28","0","SATNPRO1962","22.424","0.31408","5"],
    [29762,"HCEP03730560","2024-08-03 07:30:00","10.606","3.32593","25.012","3.147","7.58","0.906","5.642","0.16","0.25","29.5958","4.67045","34.14","0","SATNPRO1962","22.026","0.30852","5"],
    [29763,"HCEP03730560","2024-08-03 07:45:00","10.6022","3.32548","24.803","3.142","7.58","0.901","5.135","0.14","0.27","29.5946","4.67033","34.08","0","SATNPRO1962","22.434","0.31424","5"],
    [29764,"HCEP03730560","2024-08-03 08:00:00","10.6037","3.32561","24.592","3.138","7.58","0.898","5.137","0.15","0.2","29.5947","4.67031","34.04","0","SATNPRO1962","22.067999999999998","0.30908","5"],
    [29765,"HCEP03730560","2024-08-03 08:15:00","10.6027","3.3254","24.399","3.114","7.58","0.917","5.227","0.12","0.31","29.5936","4.67015","33.78","0","SATNPRO1962","22.228","0.3113","5"],
    [29766,"HCEP03730560","2024-08-03 08:30:00","10.5933","3.32444","24.211","3.071","7.57","0.826","5.31","0.11","0.22","29.5918","4.67004","33.3","0","SATNPRO1962","22.194","0.31084","5"],
    [29767,"HCEP03730560","2024-08-03 08:45:00","10.5864","3.32374","24.052","3.037","7.57","0.881","4.825","0.28","0.22","29.5905","4.66995","32.92","0","SATNPRO1962","22.198","0.31092","5"],
    [29768,"HCEP03730560","2024-08-03 09:00:00","10.579","3.32303","23.872","2.984","7.56","0.884","5.801","0.15","0.38","29.5896","4.66993","32.35","0","SATNPRO1962","21.832","0.3058","5"],
    [29769,"HCEP03730560","2024-08-03 09:15:00","10.5689","3.32196","23.771","2.917","7.56","0.948","5.657","0.19","0.32","29.5873","4.66976","31.62","0","SATNPRO1962","21.804","0.30542","5"],
    [29770,"HCEP03730560","2024-08-03 09:30:00","10.5644","3.32151","23.717","2.9","7.56","0.798","4.972","0.09","0.25","29.5864","4.66971","31.42","0","SATNPRO1962","22.142","0.31014","5"],
    [29771,"HCEP03730560","2024-08-03 09:45:00","10.5566","3.32082","23.726","2.896","7.56","0.822","4.951","0.1","0.18","29.5859","4.66976","31.38","0","SATNPRO1962","22.028","0.30854","5"],
    [29772,"HCEP03730560","2024-08-03 10:00:00","10.5591","3.3211","23.721","2.901","7.56","0.752","4.848","0.08","0.29","29.5868","4.66984","31.43","0","SATNPRO1962","22.336","0.31286","5"],
    [29773,"HCEP03730560","2024-08-03 10:15:00","10.5586","3.3211","23.752","2.908","7.56","0.785","4.611","0.1","0.18","29.5871","4.66989","31.51","0","SATNPRO1962","22.456","0.31454","5"],
    [29774,"HCEP03730560","2024-08-03 10:30:00","10.5549","3.3207","23.824","2.91","7.56","0.71","4.603","0.1","0.19","29.5861","4.66982","31.52","0","SATNPRO1962","22.226","0.31126","5"],
    [29775,"HCEP03730560","2024-08-03 10:45:00","10.5562","3.32083","23.915","2.927","7.56","0.826","4.916","0.13","0.55","29.5863","4.66983","31.71","0","SATNPRO1962","22.394000000000002","0.3137","5"],
    [29776,"HCEP03730560","2024-08-03 11:00:00","10.555","3.3208","24.034","2.931","7.56","0.812","4.875","0.09","0.46","29.587","4.66995","31.75","0","SATNPRO1962","22.206","0.31102","5"],
    [29777,"HCEP03730560","2024-08-03 11:15:00","10.5616","3.32157","24.176","2.929","7.56","0.87","5.555","0.1","0.2","29.5892","4.67016","31.74","0","SATNPRO1962","22.418","0.314","5"],
    [29778,"HCEP03730560","2024-08-03 11:30:00","10.5771","3.32324","24.315","2.967","7.56","0.815","5.357","0.13","0.7","29.593","4.67047","32.17","0","SATNPRO1962","22.426000000000002","0.31412","5"],
    [29779,"HCEP03730560","2024-08-03 11:45:00","10.5883","3.32425","24.501","3.055","7.57","0.808","4.622","0.12","0.2","29.5938","4.67043","33.12","0","SATNPRO1962","22.552","0.31588","5"],
    [29780,"HCEP03730560","2024-08-03 12:00:00","10.5953","3.32493","24.671","3.121","7.57","0.695","4.441","0.1","0.12","29.5948","4.67046","33.84","0","SATNPRO1962","22.573999999999998","0.3162","5"],
    [29781,"HCEP03730560","2024-08-03 12:15:00","10.613","3.32671","24.876","3.155","7.58","0.804","4.806","0.06","0.19","29.5979","4.67064","34.23","0","SATNPRO1962","22.55","0.31586","5"],
    [29782,"HCEP03730560","2024-08-03 12:30:00","10.6104","3.32638","25.071","3.192","7.58","0.769","4.899","0.07","0.15","29.5967","4.67052","34.62","0","SATNPRO1962","22.541999999999998","0.31576","5"],
    [29783,"HCEP03730560","2024-08-03 12:45:00","10.5991","3.32527","25.226","3.135","7.57","0.894","5.876","0.07","0.28","29.5948","4.67044","34","0","SATNPRO1962","22.152","0.31026","5"],
    [29784,"HCEP03730560","2024-08-03 13:00:00","10.5988","3.3249","25.402","3.078","7.58","0.725","4.689","0.08","0.28","29.5914","4.66996","33.38","0","SATNPRO1962","22.45","0.31446","5"],
    [29785,"HCEP03730560","2024-08-03 13:15:00","10.575","3.32273","25.559","2.998","7.56","0.911","5.875","0.14","0.25","29.5892","4.67003","32.5","0","SATNPRO1962","21.698","0.30394","5"],
    [29786,"HCEP03730560","2024-08-03 13:30:00","10.5662","3.32105","25.835","2.778","7.55","0.855","6.097","0.08","0.14","29.5796","4.66882","30.11","0","SATNPRO1962","21.612","0.30266","5"],
    [29787,"HCEP03730560","2024-08-03 13:45:00","10.5544","3.32064","26.049","2.714","7.54","0.846","6.011","0.07","0.26","29.5851","4.6698","29.41","0","SATNPRO1962","21.482","0.3009","5"],
    [29788,"HCEP03730560","2024-08-03 14:00:00","10.5462","3.3197","26.26","2.685","7.54","0.782","5.983","0.05","0.17","29.5824","4.66956","29.08","0","SATNPRO1962","21.708","0.30404","5"],
    [29789,"HCEP03730560","2024-08-03 14:15:00","10.5457","3.3195","26.48","2.681","7.54","0.802","5.779","0.07","0.39","29.5808","4.66935","29.04","0","SATNPRO1962","21.7","0.30396","5"],
    [29790,"HCEP03730560","2024-08-03 14:30:00","10.5342","3.31817","26.711","2.616","7.53","0.763","5.757","0.07","0.16","29.5768","4.66899","28.33","0","SATNPRO1962","21.43","0.30016","5"],
    [29791,"HCEP03730560","2024-08-03 14:45:00","10.5221","3.31655","26.878","2.518","7.52","0.757","5.795","0.05","0.2","29.5706","4.66829","27.26","0","SATNPRO1962","21.076","0.29518","5"],
    [29792,"HCEP03730560","2024-08-03 15:00:00","10.4691","3.31088","27.072","2.295","7.5","0.706","5.63","0.07","0.25","29.5575","4.66728","24.82","0","SATNPRO1962","20.625999999999998","0.28894","5"],
    [29793,"HCEP03730560","2024-08-03 15:15:00","10.4233","3.30659","27.224","2.032","7.48","0.679","5.093","0.07","0.19","29.552","4.66725","21.95","0","SATNPRO1962","20.612","0.28872","5"],
    [29794,"HCEP03730560","2024-08-03 15:30:00","10.4158","3.30567","27.366","1.945","7.48","0.609","4.833","0.05","0.29","29.549","4.66694","21.01","0","SATNPRO1962","20.83","0.29176","5"],
    [29795,"HCEP03730560","2024-08-03 15:45:00","10.4309","3.30678","27.461","2.048","7.48","0.628","4.462","0.06","0.35","29.5477","4.66652","22.13","0","SATNPRO1962","21.19","0.29682","5"],
    [29796,"HCEP03730560","2024-08-03 16:00:00","10.4398","3.3074","27.567","2.128","7.49","0.639","4.489","0.09","0.19","29.5466","4.66623","22.99","0","SATNPRO1962","21.19","0.29682","5"],
    [29797,"HCEP03730560","2024-08-03 16:15:00","10.4324","3.30677","27.658","2.16","7.49","0.633","4.451","0.04","0.18","29.5463","4.66631","23.33","0","SATNPRO1962","21.186","0.29672","5"],
    [29798,"HCEP03730560","2024-08-03 16:30:00","10.4266","3.30619","27.753","2.133","7.48","0.591","4.207","0.07","0.13","29.5453","4.66626","23.04","0","SATNPRO1962","21.24","0.2975","5"],
    [29799,"HCEP03730560","2024-08-03 16:45:00","10.425","3.30605","27.801","2.142","7.49","0.63","3.882","0.1","0.15","29.5451","4.66627","23.14","0","SATNPRO1962","21.264","0.29784","5"],
    [29800,"HCEP03730560","2024-08-03 17:00:00","10.4286","3.30632","27.79","2.179","7.49","0.6","3.736","0.12","0.14","29.5449","4.66618","23.54","0","SATNPRO1962","21.573999999999998","0.3022","5"],
    [29801,"HCEP03730560","2024-08-03 17:15:00","10.4288","3.30636","27.795","2.209","7.49","0.62","3.979","0.09","0.93","29.5451","4.6662","23.86","0","SATNPRO1962","21.522","0.30146","5"],
    [29802,"HCEP03730560","2024-08-03 17:30:00","10.4326","3.3066","27.814","2.23","7.49","0.575","3.417","0.11","0.22","29.5444","4.66604","24.09","0","SATNPRO1962","21.612000000000002","0.3027","5"],
    [29803,"HCEP03730560","2024-08-03 17:45:00","10.4349","3.30663","27.821","2.252","7.49","0.636","3.406","0.19","0.61","29.5428","4.66578","24.33","0","SATNPRO1962","21.59","0.30242","5"],
    [29804,"HCEP03730560","2024-08-03 18:00:00","10.4338","3.30647","27.816","2.25","7.49","0.574","3.426","0.09","0.16","29.5421","4.6657","24.3","0","SATNPRO1962","21.414","0.29996","5"],
    [29805,"HCEP03730560","2024-08-03 18:15:00","10.431","3.30602","27.798","2.229","7.49","0.588","3.441","0.08","0.19","29.5399","4.66543","24.08","0","SATNPRO1962","21.422","0.30004","5"],
    [29806,"HCEP03730560","2024-08-03 18:30:00","10.4297","3.30579","27.744","2.195","7.49","0.585","3.469","0.13","0.19","29.5387","4.66528","23.71","0","SATNPRO1962","21.476","0.3008","5"],
    [29807,"HCEP03730560","2024-08-03 18:45:00","10.4264","3.30539","27.706","2.171","7.49","0.623","3.273","0.12","0.37","29.5375","4.66516","23.45","0","SATNPRO1962","21.274","0.29798","5"],
    [29808,"HCEP03730560","2024-08-03 19:00:00","10.4221","3.30488","27.63","2.135","7.49","0.561","3.528","0.08","0.43","29.5359","4.665","23.06","0","SATNPRO1962","21.326","0.29868","5"],
    [29809,"HCEP03730560","2024-08-03 19:15:00","10.4175","3.30437","27.571","2.098","7.48","0.605","3.355","0.13","0.52","29.5347","4.66489","22.65","0","SATNPRO1962","21.154","0.29632","5"],
    [29810,"HCEP03730560","2024-08-03 19:30:00","10.3996","3.30247","27.467","2.014","7.47","0.554","3.355","0.1","0.75","29.5304","4.66456","21.74","0","SATNPRO1962","20.71","0.29008","5"],
    [29811,"HCEP03730560","2024-08-03 19:45:00","10.3723","3.2995","27.417","1.837","7.46","0.537","2.975","0.08","0.17","29.5231","4.66396","19.82","0","SATNPRO1962","20.448","0.28642","5"],
    [29812,"HCEP03730560","2024-08-03 20:00:00","10.3621","3.2982","27.367","1.665","7.45","0.514","2.998","0.1","0.24","29.5186","4.66347","17.95","0","SATNPRO1962","20.062","0.281","5"],
    [29813,"HCEP03730560","2024-08-03 20:15:00","10.3595","3.29799","27.277","1.569","7.44","0.514","2.984","0.04","0.18","29.5186","4.66352","16.92","0","SATNPRO1962","20.032","0.28058","5"],
    [29814,"HCEP03730560","2024-08-03 20:30:00","10.3606","3.29809","27.196","1.542","7.44","0.53","3.273","0.09","0.32","29.5187","4.6635","16.63","0","SATNPRO1962","20.052","0.28088","5"],
    [29815,"HCEP03730560","2024-08-03 20:45:00","10.3679","3.29879","27.104","1.564","7.44","0.591","3.449","0.11","0.39","29.5198","4.66354","16.87","0","SATNPRO1962","20.25","0.28364","5"],
    [29816,"HCEP03730560","2024-08-03 21:00:00","10.3681","3.29879","27.009","1.576","7.44","0.5","3.091","0.08","0.11","29.5197","4.66351","17","0","SATNPRO1962","19.936","0.27924","5"],
    [29817,"HCEP03730560","2024-08-03 21:15:00","10.3656","3.29857","26.936","1.572","7.44","0.579","3.211","0.08","0.09","29.5195","4.66353","16.95","0","SATNPRO1962","19.942","0.27932","5"],
    [29818,"HCEP03730560","2024-08-03 21:30:00","10.3611","3.29814","26.838","1.534","7.44","0.582","3.405","0.44","0.64","29.519","4.66352","16.54","0","SATNPRO1962","19.544","0.27376","5"],
    [29819,"HCEP03730560","2024-08-03 21:45:00","10.3677","3.29897","26.753","1.519","7.44","0.585","3.352","0.15","0.21","29.5219","4.66382","16.38","0","SATNPRO1962","19.970000000000002","0.27968","5"],
    [29820,"HCEP03730560","2024-08-03 22:00:00","10.3671","3.29901","26.664","1.526","7.44","0.522","3.715","0.08","0.19","29.5228","4.66395","16.46","0","SATNPRO1962","20.13","0.282","5"],
    [29821,"HCEP03730560","2024-08-03 22:15:00","10.3655","3.29897","26.584","1.516","7.44","0.55","3.503","0.11","0.21","29.5238","4.66411","16.35","0","SATNPRO1962","20.128","0.28192","5"],
    [29822,"HCEP03730560","2024-08-03 22:30:00","10.3722","3.2996","26.53","1.536","7.44","0.545","3.698","0.11","0.15","29.5246","4.66412","16.57","0","SATNPRO1962","20.142","0.2821","5"],
    [29823,"HCEP03730560","2024-08-03 22:45:00","10.3829","3.30065","26.493","1.592","7.44","0.7","3.748","0.21","0.28","29.5263","4.66419","17.17","0","SATNPRO1962","20.1","0.28152","5"],
    [29824,"HCEP03730560","2024-08-03 23:00:00","10.3945","3.30185","26.466","1.67","7.45","0.561","4.463","0.12","0.91","29.5288","4.66436","18.03","0","SATNPRO1962","20.416","0.28594","5"],
    [29825,"HCEP03730560","2024-08-03 23:15:00","10.3888","3.30109","26.499","1.709","7.45","0.559","3.506","0.06","0.11","29.5259","4.66403","18.45","0","SATNPRO1962","20.396","0.28568","5"],
    [29826,"HCEP03730560","2024-08-03 23:30:00","10.3825","3.30039","26.509","1.68","7.45","0.665","3.787","0.59","0.35","29.5241","4.66388","18.12","0","SATNPRO1962","20.094","0.28146","5"],
    [29827,"HCEP03730560","2024-08-03 23:45:00","10.3801","3.30006","26.578","1.651","7.44","0.637","3.355","0.16","0.09","29.5227","4.66372","17.81","0","SATNPRO1962","20.25","0.28364","5"],
    [29828,"HCEP03730560","2024-08-04 00:00:00","10.382","3.30026","26.606","1.645","7.44","0.541","3.664","0.08","0.19","29.5231","4.66375","17.75","0","SATNPRO1962","20.238","0.28344","5"],
    [29829,"HCEP03730560","2024-08-04 00:15:00","10.3878","3.30102","26.662","1.667","7.45","0.568","3.826","0.05","0.21","29.526","4.66407","17.99","0","SATNPRO1962","20.232","0.28338","5"],
    [29830,"HCEP03730560","2024-08-04 00:30:00","10.3895","3.30131","26.718","1.693","7.45","0.571","3.958","0.11","0.2","29.5274","4.66425","18.27","0","SATNPRO1962","20.352","0.28508","5"],
    [29831,"HCEP03730560","2024-08-04 00:45:00","10.3887","3.30118","26.769","1.705","7.45","0.575","3.844","0.07","0.22","29.5268","4.66418","18.39","0","SATNPRO1962","20.381999999999998","0.28548","5"],
    [29832,"HCEP03730560","2024-08-04 01:00:00","10.3865","3.30075","26.843","1.712","7.45","0.548","3.562","0.06","0.21","29.5242","4.66385","18.48","0","SATNPRO1962","20.318","0.2846","5"],
    [29833,"HCEP03730560","2024-08-04 01:15:00","10.3882","3.30099","26.937","1.719","7.45","0.623","7.557","0.13","7.09","29.5253","4.66398","18.55","0","SATNPRO1962","20.434","0.28622","5"],
    [29834,"HCEP03730560","2024-08-04 01:30:00","10.3905","3.30123","27.003","1.73","7.45","0.528","3.624","0.06","0.14","29.5256","4.664","18.67","0","SATNPRO1962","20.364","0.28524","5"],
    [29835,"HCEP03730560","2024-08-04 01:45:00","10.4002","3.30225","27.084","1.798","7.46","0.642","4.21","0.15","1.64","29.5278","4.66416","19.41","0","SATNPRO1962","20.416","0.28598","5"],
    [29836,"HCEP03730560","2024-08-04 02:00:00","10.414","3.30386","27.14","1.884","7.46","0.56","3.745","0.08","0.69","29.5326","4.66462","20.35","0","SATNPRO1962","21.022","0.29442","5"],
    [29837,"HCEP03730560","2024-08-04 02:15:00","10.4303","3.30562","27.206","2.007","7.47","0.691","4.113","0.34","2.44","29.5368","4.66496","21.68","0","SATNPRO1962","21.310000000000002","0.29844","5"],
    [29838,"HCEP03730560","2024-08-04 02:30:00","10.4387","3.30679","27.246","2.115","7.48","0.589","3.544","0.13","0.22","29.5415","4.6655","22.85","0","SATNPRO1962","21.618","0.30276","5"],
    [29839,"HCEP03730560","2024-08-04 02:45:00","10.4427","3.30745","27.304","2.185","7.49","0.648","3.767","0.09","0.18","29.5448","4.66591","23.61","0","SATNPRO1962","21.612000000000002","0.30276","5"],
    [29840,"HCEP03730560","2024-08-04 03:00:00","10.4543","3.30908","27.376","2.263","7.5","0.709","4.047","0.27","0.78","29.5515","4.66668","24.46","0","SATNPRO1962","21.944","0.30734","5"],
    [29841,"HCEP03730560","2024-08-04 03:15:00","10.469","3.31078","27.415","2.385","7.51","0.64","4.524","0.16","1.59","29.5563","4.66714","25.78","0","SATNPRO1962","22.012","0.30826","5"],
    [29842,"HCEP03730560","2024-08-04 03:30:00","10.4755","3.312","27.44","2.503","7.51","0.667","4.632","0.26","1.35","29.5632","4.66801","27.07","0","SATNPRO1962","22.338","0.3129","5"],
    [29843,"HCEP03730560","2024-08-04 03:45:00","10.4902","3.3147","27.484","2.642","7.53","0.673","4.631","0.13","0.39","29.5779","4.66988","28.58","0","SATNPRO1962","22.759999999999998","0.31878","5"],
    [29844,"HCEP03730560","2024-08-04 04:00:00","10.5473","3.32282","27.482","3.106","7.58","0.586","3.802","0.07","0.27","29.6118","4.67381","33.65","0","SATNPRO1962","23.888","0.33462","5"],
    [29845,"HCEP03730560","2024-08-04 04:15:00","10.5616","3.32521","27.478","3.558","7.61","0.613","3.363","0.12","0.19","29.6238","4.67529","38.56","0","SATNPRO1962","24.626","0.34496","5"],
    [29846,"HCEP03730560","2024-08-04 04:30:00","10.566","3.32586","27.45","3.756","7.63","0.638","3.446","0.17","0.44","29.6266","4.67561","40.72","0","SATNPRO1962","24.684","0.34574","5"],
    [29847,"HCEP03730560","2024-08-04 04:45:00","10.5653","3.32599","27.401","3.818","7.63","0.669","3.215","0.18","0.24","29.6285","4.67589","41.38","0","SATNPRO1962","24.77","0.34694","5"],
    [29848,"HCEP03730560","2024-08-04 05:00:00","10.5642","3.32597","27.348","3.83","7.64","0.656","3.243","0.18","0.18","29.6292","4.67601","41.52","0","SATNPRO1962","24.652","0.3453","5"],
    [29849,"HCEP03730560","2024-08-04 05:15:00","10.5636","3.32585","27.262","3.827","7.64","0.697","3.457","0.19","0.19","29.6285","4.67592","41.49","0","SATNPRO1962","24.688","0.34582","5"],
    [29850,"HCEP03730560","2024-08-04 05:30:00","10.5638","3.32585","27.159","3.822","7.64","0.586","3.559","0.1","0.13","29.6284","4.67589","41.43","0","SATNPRO1962","24.826","0.34776","5"],
    [29851,"HCEP03730560","2024-08-04 05:45:00","10.5642","3.32576","27.04","3.817","7.64","0.592","3.281","0.08","0.15","29.6272","4.67571","41.38","0","SATNPRO1962","24.806","0.3475","5"],
    [29852,"HCEP03730560","2024-08-04 06:00:00","10.5647","3.32574","26.91","3.808","7.64","0.631","3.548","0.16","0.22","29.6267","4.67562","41.28","0","SATNPRO1962","24.692","0.34584","5"],
    [29853,"HCEP03730560","2024-08-04 06:15:00","10.5645","3.32569","26.733","3.799","7.64","0.649","3.827","0.08","0.2","29.6264","4.67557","41.18","0","SATNPRO1962","24.906","0.34886","5"],
    [29854,"HCEP03730560","2024-08-04 06:30:00","10.5651","3.32567","26.562","3.793","7.64","0.592","3.773","0.06","0.27","29.6259","4.67547","41.12","0","SATNPRO1962","24.669999999999998","0.34556","5"],
    [29855,"HCEP03730560","2024-08-04 06:45:00","10.5651","3.32557","26.371","3.782","7.64","0.656","3.437","0.09","0.17","29.6249","4.67533","41","0","SATNPRO1962","24.62","0.34486","5"],
    [29856,"HCEP03730560","2024-08-04 07:00:00","10.5655","3.32553","26.167","3.77","7.64","0.602","3.611","0.07","0.22","29.6243","4.67523","40.86","0","SATNPRO1962","24.82","0.34768","5"],
    [29857,"HCEP03730560","2024-08-04 07:15:00","10.5656","3.32553","25.957","3.765","7.64","0.649","3.506","0.23","0.18","29.6243","4.6752","40.81","0","SATNPRO1962","24.562","0.34404","5"],
    [29858,"HCEP03730560","2024-08-04 07:30:00","10.5685","3.32589","25.727","3.777","7.64","0.594","2.936","0.21","0.14","29.6256","4.67533","40.95","0","SATNPRO1962","24.742","0.34658","5"],
    [29859,"HCEP03730560","2024-08-04 07:45:00","10.5671","3.32587","25.53","3.787","7.64","0.794","4.032","0.18","0.23","29.6266","4.67549","41.05","0","SATNPRO1962","24.534","0.34366","5"],
    [29860,"HCEP03730560","2024-08-04 08:00:00","10.5695","3.32644","25.305","3.814","7.64","0.591","2.869","0.1","0.14","29.6303","4.67596","41.34","0","SATNPRO1962","24.774","0.34696","5"],
    [29861,"HCEP03730560","2024-08-04 08:15:00","10.5663","3.32613","25.068","3.828","7.64","0.677","3.602","0.13","0.21","29.63","4.67596","41.5","0","SATNPRO1962","24.874000000000002","0.34838","5"],
    [29862,"HCEP03730560","2024-08-04 08:30:00","10.5673","3.32641","24.868","3.818","7.64","0.633","3.405","0.15","0.22","29.6321","4.67623","41.39","0","SATNPRO1962","24.958000000000002","0.3496","5"],
    [29863,"HCEP03730560","2024-08-04 08:45:00","10.5674","3.32652","24.643","3.831","7.65","0.639","3.175","0.15","0.15","29.6331","4.67635","41.54","0","SATNPRO1962","24.654","0.34534","5"],
    [29864,"HCEP03730560","2024-08-04 09:00:00","10.5664","3.32637","24.468","3.83","7.64","0.625","3.592","0.07","0.15","29.6325","4.67628","41.51","0","SATNPRO1962","24.752","0.34666","5"],
    [29865,"HCEP03730560","2024-08-04 09:15:00","10.5667","3.3266","24.261","3.827","7.65","0.637","3.404","0.11","0.32","29.6347","4.67658","41.48","0","SATNPRO1962","25.046","0.35084","5"],
    [29866,"HCEP03730560","2024-08-04 09:30:00","10.5618","3.32629","24.094","3.808","7.64","0.768","5","0.18","0.47","29.6356","4.67677","41.28","0","SATNPRO1962","24.84","0.34794","5"],
    [29867,"HCEP03730560","2024-08-04 09:45:00","10.5563","3.32684","23.939","3.795","7.64","0.724","4.506","0.13","0.63","29.6456","4.67827","41.13","0","SATNPRO1962","24.88","0.34846","5"],
    [29868,"HCEP03730560","2024-08-04 10:00:00","10.5539","3.32666","23.827","3.831","7.65","0.694","4.367","0.15","0.44","29.6458","4.67833","41.52","0","SATNPRO1962","24.946","0.34938","5"],
    [29869,"HCEP03730560","2024-08-04 10:15:00","10.549","3.3272","23.781","3.846","7.65","0.697","4.524","0.09","0.55","29.6552","4.67974","41.69","0","SATNPRO1962","25.072","0.35118","5"],
    [29870,"HCEP03730560","2024-08-04 10:30:00","10.5468","3.32736","23.759","3.856","7.65","0.679","4.327","0.1","0.32","29.6585","4.68025","41.79","0","SATNPRO1962","25.062","0.35102","5"],
    [29871,"HCEP03730560","2024-08-04 10:45:00","10.5446","3.32764","23.782","3.883","7.65","0.673","3.868","0.1","0.19","29.663","4.68093","42.09","0","SATNPRO1962","25.326","0.35472","5"],
    [29872,"HCEP03730560","2024-08-04 11:00:00","10.5446","3.32798","23.828","3.926","7.66","0.665","3.524","0.14","0.22","29.6663","4.6814","42.55","0","SATNPRO1962","25.346","0.35502","5"],
    [29873,"HCEP03730560","2024-08-04 11:15:00","10.543","3.32795","23.912","3.953","7.66","0.727","4.03","0.14","0.19","29.6673","4.68158","42.84","0","SATNPRO1962","25.244","0.35358","5"],
    [29874,"HCEP03730560","2024-08-04 11:30:00","10.5435","3.32812","23.979","3.961","7.66","0.65","4.23","0.09","0.52","29.6686","4.68176","42.93","0","SATNPRO1962","25.61","0.35868","5"],
    [29875,"HCEP03730560","2024-08-04 11:45:00","10.5439","3.32843","24.092","3.994","7.66","0.681","3.796","0.14","0.18","29.6712","4.68213","43.29","0","SATNPRO1962","25.596","0.35856","5"],
    [29876,"HCEP03730560","2024-08-04 12:00:00","10.5512","3.328","24.214","4.046","7.67","0.601","3.419","0.11","0.27","29.661","4.68057","43.85","0","SATNPRO1962","25.672","0.35958","5"],
    [29877,"HCEP03730560","2024-08-04 12:15:00","10.553","3.32684","24.374","4.016","7.66","0.532","2.61","0.09","0.21","29.648","4.6787","43.52","0","SATNPRO1962","25.236","0.35346","5"],
    [29878,"HCEP03730560","2024-08-04 12:30:00","10.5481","3.32772","24.55","3.962","7.66","0.564","2.846","0.17","0.14","29.6606","4.68058","42.95","0","SATNPRO1962","25.568","0.35812","5"],
    [29879,"HCEP03730560","2024-08-04 12:45:00","10.5462","3.32848","24.751","4.012","7.66","0.725","4.593","0.12","0.2","29.6696","4.6819","43.48","0","SATNPRO1962","25.496","0.35718","5"],
    [29880,"HCEP03730560","2024-08-04 13:00:00","10.5455","3.3285","24.917","4.025","7.67","0.627","4.309","0.07","0.2","29.6703","4.68202","43.63","0","SATNPRO1962","25.8","0.36136","5"],
    [29881,"HCEP03730560","2024-08-04 13:15:00","10.5442","3.32842","25.167","4.042","7.67","0.605","3.959","0.04","0.12","29.6705","4.68208","43.81","0","SATNPRO1962","25.692","0.35984","5"],
    [29882,"HCEP03730560","2024-08-04 13:30:00","10.5476","3.32787","25.339","4.002","7.66","0.559","3.654","0.05","0.3","29.6623","4.68087","43.38","0","SATNPRO1962","25.608","0.35868","5"],
    [29883,"HCEP03730560","2024-08-04 13:45:00","10.5445","3.32869","25.524","3.991","7.66","0.611","3.8","0.06","0.14","29.6728","4.68242","43.26","0","SATNPRO1962","25.566","0.35808","5"],
    [29884,"HCEP03730560","2024-08-04 14:00:00","10.5439","3.32874","25.75","3.996","7.66","0.603","4.015","0.06","0.09","29.6737","4.68258","43.3","0","SATNPRO1962","25.572","0.35818","5"],
    [29885,"HCEP03730560","2024-08-04 14:15:00","10.5444","3.32848","25.958","4.013","7.67","0.611","3.576","0.07","0.15","29.6706","4.68215","43.49","0","SATNPRO1962","25.64","0.3591","5"],
    [29886,"HCEP03730560","2024-08-04 14:30:00","10.5456","3.3284","26.179","4.021","7.67","0.579","3.578","0.06","0.23","29.6688","4.68188","43.58","0","SATNPRO1962","25.552","0.35794","5"],
    [29887,"HCEP03730560","2024-08-04 14:45:00","10.5454","3.32825","26.404","3.993","7.66","0.634","3.777","0.05","0.09","29.6674","4.68169","43.27","0","SATNPRO1962","25.3","0.35434","5"],
    [29888,"HCEP03730560","2024-08-04 15:00:00","10.5443","3.32823","26.644","3.95","7.66","0.631","4.064","0.07","0.09","29.668","4.68181","42.81","0","SATNPRO1962","25.228","0.35338","5"],
    [29889,"HCEP03730560","2024-08-04 15:15:00","10.5432","3.32835","26.837","3.93","7.66","0.634","3.726","0.14","0.2","29.67","4.68212","42.59","0","SATNPRO1962","25.368","0.35528","5"],
    [29890,"HCEP03730560","2024-08-04 15:30:00","10.5404","3.3286","27.037","3.989","7.67","0.521","3.375","0.05","0.12","29.6747","4.68284","43.23","0","SATNPRO1962","25.594","0.3585","5"],
    [29891,"HCEP03730560","2024-08-04 15:45:00","10.5379","3.32879","27.187","4.033","7.67","0.592","3.827","0.05","0.11","29.6784","4.68343","43.7","0","SATNPRO1962","25.56","0.35804","5"],
    [29892,"HCEP03730560","2024-08-04 16:00:00","10.5386","3.32867","27.337","4.036","7.67","0.543","3.479","0.08","0.19","29.6767","4.68317","43.73","0","SATNPRO1962","25.68","0.3597","5"],
    [29893,"HCEP03730560","2024-08-04 16:15:00","10.5461","3.32807","27.5","4.007","7.66","0.539","2.977","0.05","0.11","29.6646","4.68135","43.42","0","SATNPRO1962","25.286","0.35422","5"],
    [29894,"HCEP03730560","2024-08-04 16:30:00","10.542","3.32834","27.559","3.97","7.66","0.524","3.215","0.04","0.1","29.6706","4.68226","43.02","0","SATNPRO1962","25.658","0.35936","5"],
    [29895,"HCEP03730560","2024-08-04 16:45:00","10.5461","3.32801","27.651","3.983","7.66","0.538","2.812","0.07","0.09","29.6639","4.68126","43.17","0","SATNPRO1962","25.302","0.35438","5"],
    [29896,"HCEP03730560","2024-08-04 17:00:00","10.5378","3.32874","27.74","4.007","7.67","0.567","3.303","0.1","0.13","29.6779","4.68338","43.42","0","SATNPRO1962","25.592","0.35842","5"],
    [29897,"HCEP03730560","2024-08-04 17:15:00","10.5354","3.32869","27.824","4.07","7.67","0.532","3.012","0.05","0.1","29.6793","4.68362","44.11","0","SATNPRO1962","25.727999999999998","0.36032","5"],
    [29898,"HCEP03730560","2024-08-04 17:30:00","10.5305","3.3282","27.832","4.135","7.68","0.472","2.501","0.08","0.11","29.6784","4.68358","44.8","0","SATNPRO1962","26.088","0.3654","5"],
    [29899,"HCEP03730560","2024-08-04 17:45:00","10.534","3.32904","27.833","4.135","7.67","0.696","3.212","0.71","0.11","29.6839","4.68431","44.81","0","SATNPRO1962","25.666","0.35948","5"],
    [29900,"HCEP03730560","2024-08-04 18:00:00","10.5341","3.329","27.839","4.079","7.67","0.553","3.338","0.1","0.32","29.6833","4.68422","44.2","0","SATNPRO1962","25.81","0.3615","5"],
    [29901,"HCEP03730560","2024-08-04 18:15:00","10.5323","3.32847","27.848","4.099","7.68","0.512","3.044","0.05","0.13","29.6796","4.68372","44.42","0","SATNPRO1962","25.936","0.3633","5"],
    [29902,"HCEP03730560","2024-08-04 18:30:00","10.5335","3.32847","27.821","4.151","7.68","0.548","3.081","0.1","0.13","29.6787","4.68357","44.98","0","SATNPRO1962","26.048000000000002","0.36484","5"],
    [29903,"HCEP03730560","2024-08-04 18:45:00","10.5338","3.32895","27.798","4.113","7.67","0.577","3.606","0.07","0.14","29.6831","4.68419","44.57","0","SATNPRO1962","25.688","0.35984","5"],
    [29904,"HCEP03730560","2024-08-04 19:00:00","10.5304","3.32911","27.762","4.029","7.67","0.593","4.064","0.06","0.23","29.6875","4.68488","43.65","0","SATNPRO1962","25.442","0.35636","5"],
    [29905,"HCEP03730560","2024-08-04 19:15:00","10.5301","3.329","27.698","3.958","7.66","0.624","4.484","0.05","0.2","29.6867","4.68476","42.88","0","SATNPRO1962","25.32","0.35462","5"],
    [29906,"HCEP03730560","2024-08-04 19:30:00","10.5332","3.32829","27.626","3.952","7.66","0.599","4.176","0.07","0.24","29.6771","4.68334","42.82","0","SATNPRO1962","25.412","0.35592","5"],
    [29907,"HCEP03730560","2024-08-04 19:45:00","10.5359","3.32775","27.585","3.96","7.66","0.604","3.901","0.08","0.17","29.6697","4.68224","42.91","0","SATNPRO1962","25.466","0.3567","5"],
    [29908,"HCEP03730560","2024-08-04 20:00:00","10.5289","3.32843","27.526","3.954","7.66","0.623","4.021","0.1","0.18","29.6821","4.68412","42.84","0","SATNPRO1962","25.37","0.35534","5"],
    [29909,"HCEP03730560","2024-08-04 20:15:00","10.5248","3.32859","27.438","3.906","7.66","0.61","4.061","0.07","0.17","29.6871","4.68489","42.32","0","SATNPRO1962","25.368000000000002","0.35536","5"],
    [29910,"HCEP03730560","2024-08-04 20:30:00","10.5208","3.3287","27.379","3.92","7.66","0.538","3.998","0.06","0.38","29.6914","4.68557","42.47","0","SATNPRO1962","25.512","0.35734","5"],
    [29911,"HCEP03730560","2024-08-04 20:45:00","10.5203","3.32843","27.245","3.938","7.66","0.58","3.82","0.11","0.15","29.6892","4.68525","42.66","0","SATNPRO1962","25.346","0.35502","5"],
    [29912,"HCEP03730560","2024-08-04 21:00:00","10.5172","3.32824","27.16","3.913","7.66","0.558","4.077","0.07","0.16","29.6899","4.6854","42.39","0","SATNPRO1962","25.212","0.35314","5"],
    [29913,"HCEP03730560","2024-08-04 21:15:00","10.5197","3.32777","27.066","3.881","7.65","0.62","4.032","0.06","0.28","29.6832","4.68439","42.05","0","SATNPRO1962","25.169999999999998","0.35256","5"],
    [29914,"HCEP03730560","2024-08-04 21:30:00","10.5215","3.32737","26.942","3.871","7.65","0.544","3.963","0.08","0.17","29.6779","4.6836","41.94","0","SATNPRO1962","25.32","0.35468","5"],
    [29915,"HCEP03730560","2024-08-04 21:45:00","10.5229","3.32696","26.821","3.864","7.65","0.59","4.096","0.07","0.23","29.6727","4.68283","41.86","0","SATNPRO1962","25.422","0.35608","5"],
    [29916,"HCEP03730560","2024-08-04 22:00:00","10.5296","3.32686","26.719","3.873","7.65","0.54","3.726","0.09","0.23","29.6663","4.68181","41.96","0","SATNPRO1962","25.378","0.3555","5"],
    [29917,"HCEP03730560","2024-08-04 22:15:00","10.529","3.3268","26.603","3.871","7.65","0.568","3.794","0.08","0.41","29.6663","4.68181","41.94","0","SATNPRO1962","25.29","0.35418","5"],
    [29918,"HCEP03730560","2024-08-04 22:30:00","10.5331","3.32676","26.501","3.862","7.65","0.542","3.703","0.11","0.3","29.6626","4.68122","41.84","0","SATNPRO1962","25.046","0.35082","5"],
    [29919,"HCEP03730560","2024-08-04 22:45:00","10.534","3.32674","26.431","3.847","7.65","0.587","3.668","0.1","0.19","29.6618","4.68108","41.68","0","SATNPRO1962","25.128","0.35202","5"],
    [29920,"HCEP03730560","2024-08-04 23:00:00","10.5365","3.3267","26.366","3.835","7.65","0.573","3.673","0.11","0.17","29.659300000000002","4.68068","41.55","0","SATNPRO1962","25.202","0.353","5"],
    [29921,"HCEP03730560","2024-08-04 23:15:00","10.5334","3.32675","26.301","3.823","7.65","0.556","3.653","0.07","0.2","29.6624","4.68116","41.42","0","SATNPRO1962","25.168","0.35252","5"],
    [29922,"HCEP03730560","2024-08-04 23:30:00","10.5383","3.32662","26.307","3.802","7.64","0.55","3.615","0.08","0.16","29.657","4.68032","41.2","0","SATNPRO1962","25.06","0.351","5"],
    [29923,"HCEP03730560","2024-08-04 23:45:00","10.5364","3.32664","26.303","3.791","7.64","0.588","3.572","0.11","0.1","29.6588","4.68061","41.08","0","SATNPRO1962","25.094","0.3515","5"],
    [29924,"HCEP03730560","2024-08-05 00:00:00","10.5331","3.32669","26.335","3.784","7.64","0.504","3.707","0.06","0.3","29.662","4.68112","41","0","SATNPRO1962","24.992","0.35004","5"],
    [29925,"HCEP03730560","2024-08-05 00:15:00","10.5308","3.32686","26.381","3.783","7.64","0.574","3.552","0.08","0.12","29.6655","4.68165","40.99","0","SATNPRO1962","25.044","0.35078","5"],
    [29926,"HCEP03730560","2024-08-05 00:30:00","10.5331","3.32668","26.426","3.781","7.64","0.582","3.643","0.11","0.32","29.6619","4.6811","40.97","0","SATNPRO1962","24.898","0.34872","5"],
    [29927,"HCEP03730560","2024-08-05 00:45:00","10.5277","3.32697","26.463","3.783","7.64","0.551","3.56","0.06","0.28","29.6691","4.68222","40.99","0","SATNPRO1962","25.108","0.35166","5"],
    [29928,"HCEP03730560","2024-08-05 01:00:00","10.5404","3.32645","26.531","3.745","7.64","0.505","3.557","0.06","0.13","29.6536","4.67981","40.58","0","SATNPRO1962","24.646","0.34522","5"],
    [29929,"HCEP03730560","2024-08-05 01:15:00","10.5256","3.32715","26.597","3.753","7.64","0.567","3.455","0.06","0.16","29.6726","4.68276","40.66","0","SATNPRO1962","25.068","0.35112","5"],
    [29930,"HCEP03730560","2024-08-05 01:30:00","10.5192","3.3276","26.687","3.795","7.64","0.573","4.242","0.14","0.24","29.6821","4.68423","41.11","0","SATNPRO1962","25.12","0.35186","5"],
    [29931,"HCEP03730560","2024-08-05 01:45:00","10.5283","3.327","26.793","3.795","7.64","0.514","3.382","0.08","0.14","29.6688","4.68219","41.12","0","SATNPRO1962","25.080000000000002","0.35126","5"],
    [29932,"HCEP03730560","2024-08-05 02:00:00","10.5273","3.32709","26.866","3.793","7.64","0.537","3.935","0.06","0.13","29.6704","4.68244","41.09","0","SATNPRO1962","25.29","0.35422","5"],
    [29933,"HCEP03730560","2024-08-05 02:15:00","10.5223","3.32728","26.929","3.767","7.64","0.598","4.259","0.07","0.2","29.6764","4.68337","40.81","0","SATNPRO1962","25.018","0.35046","5"],
    [29934,"HCEP03730560","2024-08-05 02:30:00","10.5216","3.32732","27.012","3.727","7.64","0.586","4.53","0.07","0.15","29.6773","4.68351","40.38","0","SATNPRO1962","25.008","0.35026","5"],
    [29935,"HCEP03730560","2024-08-05 02:45:00","10.5217","3.32732","27.054","3.706","7.64","0.593","4.424","0.08","0.18","29.6772","4.68351","40.14","0","SATNPRO1962","24.932","0.3492","5"],
    [29936,"HCEP03730560","2024-08-05 03:00:00","10.5219","3.32738","27.18","3.697","7.64","0.572","4.447","0.06","0.13","29.6776","4.68356","40.05","0","SATNPRO1962","24.951999999999998","0.34946","5"],
    [29937,"HCEP03730560","2024-08-05 03:15:00","10.5215","3.32744","27.243","3.695","7.63","0.584","4.267","0.05","0.16","29.6784","4.6837","40.03","0","SATNPRO1962","24.996","0.3501","5"],
    [29938,"HCEP03730560","2024-08-05 03:30:00","10.5224","3.32765","27.291","3.683","7.63","0.579","4.446","0.08","0.2","29.6799","4.68388","39.89","0","SATNPRO1962","24.846","0.34798","5"],
    [29939,"HCEP03730560","2024-08-05 03:45:00","10.5244","3.32781","27.369","3.664","7.63","0.607","4.715","0.05","0.09","29.6797","4.68384","39.69","0","SATNPRO1962","24.798","0.34732","5"],
    [29940,"HCEP03730560","2024-08-05 04:00:00","10.5273","3.3277","27.401","3.65","7.63","0.594","4.371","0.07","0.15","29.6762","4.68329","39.55","0","SATNPRO1962","24.724","0.34628","5"],
    [29941,"HCEP03730560","2024-08-05 04:15:00","10.531","3.3277","27.429","3.637","7.63","0.578","4.277","0.05","0.11","29.6732","4.68281","39.41","0","SATNPRO1962","24.652","0.34532","5"],
    [29942,"HCEP03730560","2024-08-05 04:30:00","10.5495","3.32694","27.463","3.647","7.63","0.6","3.787","0.15","0.14","29.6507","4.67931","39.52","0","SATNPRO1962","24.786","0.34722","5"],
    [29943,"HCEP03730560","2024-08-05 04:45:00","10.5429","3.32722","27.461","3.669","7.63","0.631","3.728","0.09","0.11","29.6588","4.68056","39.76","0","SATNPRO1962","24.894000000000002","0.3487","5"],
    [29944,"HCEP03730560","2024-08-05 05:00:00","10.5385","3.32755","27.451","3.628","7.62","0.614","4.413","0.09","0.11","29.6657","4.68162","39.31","0","SATNPRO1962","24.592000000000002","0.34444","5"],
    [29945,"HCEP03730560","2024-08-05 05:15:00","10.5329","3.32786","27.41","3.542","7.62","0.687","4.86","0.12","0.13","29.6733","4.68278","38.38","0","SATNPRO1962","24.328","0.34074","5"],
    [29946,"HCEP03730560","2024-08-05 05:30:00","10.5372","3.32775","27.373","3.515","7.62","0.671","4.663","0.11","0.16","29.6687","4.68206","38.09","0","SATNPRO1962","24.33","0.34076","5"],
    [29947,"HCEP03730560","2024-08-05 05:45:00","10.5442","3.32734","27.31","3.544","7.62","0.669","3.948","0.17","0.16","29.659","4.68057","38.41","0","SATNPRO1962","24.400000000000002","0.34178","5"],
    [29948,"HCEP03730560","2024-08-05 06:00:00","10.5526","3.32693","27.222","3.567","7.62","0.604","3.753","0.09","0.17","29.6482","4.67888","38.66","0","SATNPRO1962","24.566","0.3441","5"],
    [29949,"HCEP03730560","2024-08-05 06:15:00","10.5521","3.32695","27.119","3.561","7.62","0.755","4.102","0.23","0.28","29.6488","4.67897","38.6","0","SATNPRO1962","24.362","0.3412","5"],
    [29950,"HCEP03730560","2024-08-05 06:30:00","10.5539","3.32693","26.991","3.538","7.62","0.641","3.88","0.07","0.11","29.6472","4.67871","38.35","0","SATNPRO1962","24.368","0.34126","5"],
    [29951,"HCEP03730560","2024-08-05 06:45:00","10.561","3.3267","26.849","3.553","7.62","0.655","3.318","0.14","0.14","29.6392","4.67746","38.51","0","SATNPRO1962","24.358","0.34116","5"],
    [29952,"HCEP03730560","2024-08-05 07:00:00","10.5528","3.32688","26.681","3.462","7.6","0.753","5.132","0.1","0.16","29.6477","4.67878","37.52","0","SATNPRO1962","23.788","0.33318","5"],
    [29953,"HCEP03730560","2024-08-05 07:15:00","10.5554","3.32678","26.513","3.31","7.6","0.751","5.008","0.14","0.18","29.6447","4.67831","35.87","0","SATNPRO1962","23.612000000000002","0.3307","5"],
    [29954,"HCEP03730560","2024-08-05 07:30:00","10.5676","3.32657","26.312","3.427","7.62","0.527","2.808","0.15","0.09","29.6328","4.6764","37.15","0","SATNPRO1962","24.582","0.34432","5"],
    [29955,"HCEP03730560","2024-08-05 07:45:00","10.5686","3.32649","26.118","3.609","7.62","0.665","3","0.19","0.29","29.6312","4.67616","39.12","0","SATNPRO1962","24.606","0.34466","5"],
    [29956,"HCEP03730560","2024-08-05 08:00:00","10.5637","3.32654","25.933","3.586","7.62","0.649","3.734","0.09","0.2","29.6358","4.67688","38.87","0","SATNPRO1962","24.042","0.33678","5"],
    [29957,"HCEP03730560","2024-08-05 08:15:00","10.5634","3.32652","25.738","3.563","7.62","0.663","2.965","0.18","0.1","29.636","4.67689","38.62","0","SATNPRO1962","24.578","0.34426","5"],
    [29958,"HCEP03730560","2024-08-05 08:30:00","10.5663","3.32646","25.499","3.635","7.63","0.547","2.705","0.09","0.16","29.6331","4.67642","39.41","0","SATNPRO1962","24.696","0.34586","5"],
    [29959,"HCEP03730560","2024-08-05 08:45:00","10.5609","3.32659","25.279","3.652","7.62","0.641","2.863","0.18","0.12","29.6388","4.67731","39.58","0","SATNPRO1962","24.79","0.3472","5"],
    [29960,"HCEP03730560","2024-08-05 09:00:00","10.5602","3.32657","25.09","3.599","7.62","0.675","3.619","0.12","0.31","29.6393","4.67739","39.01","0","SATNPRO1962","24.632","0.34502","5"],
    [29961,"HCEP03730560","2024-08-05 09:15:00","10.5577","3.32655","24.846","3.517","7.61","0.727","4.164","0.18","0.38","29.6412","4.67768","38.12","0","SATNPRO1962","24.268","0.3399","5"],
    [29962,"HCEP03730560","2024-08-05 09:30:00","10.5554","3.32662","24.646","3.501","7.62","0.669","4.296","0.1","0.29","29.6439","4.67808","37.94","0","SATNPRO1962","24.36","0.34122","5"],
    [29963,"HCEP03730560","2024-08-05 09:45:00","10.5538","3.32658","24.419","3.516","7.61","0.646","3.764","0.14","0.28","29.6448","4.67823","38.1","0","SATNPRO1962","24.42","0.34202","5"],
    [29964,"HCEP03730560","2024-08-05 10:00:00","10.5499","3.32657","24.23","3.413","7.6","0.703","4.625","0.12","0.35","29.648","4.67873","36.99","0","SATNPRO1962","24.073999999999998","0.33718","5"],
    [29965,"HCEP03730560","2024-08-05 10:15:00","10.5403","3.32657","24.064","3.249","7.59","0.862","5.864","0.14","0.31","29.6559","4.68","35.21","0","SATNPRO1962","23.192","0.32484","5"],
    [29966,"HCEP03730560","2024-08-05 10:30:00","10.5441","3.32651","23.95","3.255","7.6","0.752","4.221","0.2","0.1","29.6522","4.67941","35.27","0","SATNPRO1962","24.144","0.33816","5"],
    [29967,"HCEP03730560","2024-08-05 10:45:00","10.5426","3.32649","23.889","3.361","7.6","0.712","4.226","0.13","0.2","29.6532","4.67958","36.42","0","SATNPRO1962","23.742","0.3325","5"],
    [29968,"HCEP03730560","2024-08-05 11:00:00","10.54","3.32665","23.865","3.328","7.6","0.877","4.955","0.21","0.21","29.657","4.68015","36.06","0","SATNPRO1962","23.566","0.33006","5"],
    [29969,"HCEP03730560","2024-08-05 11:15:00","10.5416","3.32659","23.877","3.307","7.6","0.817","4.303","0.37","0.14","29.6551","4.67985","35.84","0","SATNPRO1962","23.776","0.333","5"],
    [29970,"HCEP03730560","2024-08-05 11:30:00","10.5417","3.32663","23.898","3.346","7.6","0.679","4.186","0.18","0.15","29.6554","4.6799","36.26","0","SATNPRO1962","24.234","0.33944","5"],
    [29971,"HCEP03730560","2024-08-05 11:45:00","10.5453","3.32659","23.944","3.414","7.61","0.618","3.455","0.08","0.13","29.652","4.67936","36.99","0","SATNPRO1962","24.276","0.34006","5"],
    [29972,"HCEP03730560","2024-08-05 12:00:00","10.5476","3.32653","24.014","3.4","7.6","0.685","4.405","0.1","0.14","29.6496","4.67898","36.85","0","SATNPRO1962","23.838","0.33388","5"],
    [29973,"HCEP03730560","2024-08-05 12:15:00","10.553","3.32619","24.142","3.376","7.61","0.711","3.958","0.1","0.25","29.6418","4.67779","36.59","0","SATNPRO1962","24.466","0.34268","5"],
    [29974,"HCEP03730560","2024-08-05 12:30:00","10.556","3.32613","24.26","3.542","7.62","0.71","2.601","0.19","0.25","29.6387","4.67731","38.39","0","SATNPRO1962","25.186","0.35278","5"],
    [29975,"HCEP03730560","2024-08-05 12:45:00","10.5552","3.32651","24.377","3.552","7.61","0.749","3.499","0.17","0.17","29.643","4.67794","38.5","0","SATNPRO1962","24.218","0.33918","5"],
    [29976,"HCEP03730560","2024-08-05 13:00:00","10.5608","3.32623","24.539","3.57","7.62","0.605","3.039","0.17","1.21","29.6357","4.67682","38.69","0","SATNPRO1962","24.996","0.3501","5"],
    [29977,"HCEP03730560","2024-08-05 13:15:00","10.5536","3.32676","24.766","3.567","7.61","0.691","3.821","0.15","0.12","29.6466","4.67851","38.66","0","SATNPRO1962","24.21","0.33916","5"],
    [29978,"HCEP03730560","2024-08-05 13:30:00","10.5576","3.32555","24.987","3.477","7.61","0.713","4.125","0.23","0.22","29.6314","4.67629","37.68","0","SATNPRO1962","24.162","0.33842","5"],
    [29979,"HCEP03730560","2024-08-05 13:45:00","10.5457","3.32691","25.175","3.308","7.59","0.802","5.543","0.08","0.16","29.6544","4.67977","35.85","0","SATNPRO1962","23.118","0.32386","5"],
    [29980,"HCEP03730560","2024-08-05 14:00:00","10.5457","3.327","25.352","3.091","7.58","0.818","6.164","0.09","0.39","29.6552","4.67989","33.5","0","SATNPRO1962","22.976","0.32184","5"],
    [29981,"HCEP03730560","2024-08-05 14:15:00","10.5533","3.32712","25.504","3.155","7.59","0.833","5.389","0.13","0.16","29.6501","4.67906","34.19","0","SATNPRO1962","23.492","0.32906","5"],
    [29982,"HCEP03730560","2024-08-05 14:30:00","10.5545","3.32693","25.738","3.301","7.59","0.683","4.473","0.1","0.2","29.6472","4.67863","35.78","0","SATNPRO1962","23.982","0.33592","5"],
    [29983,"HCEP03730560","2024-08-05 14:45:00","10.5749","3.32591","25.969","3.492","7.62","0.558","2.056","0.06","0.05","29.6205","4.67452","37.86","0","SATNPRO1962","24.982","0.34992","5"],
    [29984,"HCEP03730560","2024-08-05 15:00:00","10.5585","3.32671","26.177","3.537","7.6","0.658","4.929","0.04","0.12","29.6416","4.6778","38.34","0","SATNPRO1962","24.03","0.33656","5"],
    [29985,"HCEP03730560","2024-08-05 15:15:00","10.5508","3.32689","26.419","3.244","7.59","0.732","4.93","0.08","0.14","29.6495","4.67906","35.16","0","SATNPRO1962","23.71","0.3321","5"],
    [29986,"HCEP03730560","2024-08-05 15:30:00","10.5528","3.32687","26.608","3.198","7.59","0.656","4.573","0.08","0.11","29.6477","4.67877","34.66","0","SATNPRO1962","23.648","0.33122","5"],
    [29987,"HCEP03730560","2024-08-05 15:45:00","10.5594","3.32644","26.796","3.202","7.59","0.606","3.858","0.06","0.09","29.638","4.6773","34.7","0","SATNPRO1962","23.534","0.32966","5"],
    [29988,"HCEP03730560","2024-08-05 16:00:00","10.5621","3.32621","27.016","3.195","7.59","0.609","4.475","0.05","0.28","29.6334","4.67662","34.63","0","SATNPRO1962","23.598","0.33054","5"],
    [29989,"HCEP03730560","2024-08-05 16:15:00","10.5601","3.3262","27.139","3.208","7.59","0.661","4.502","0.06","0.1","29.635","4.67688","34.77","0","SATNPRO1962","23.674","0.33158","5"],
    [29990,"HCEP03730560","2024-08-05 16:30:00","10.5627","3.32624","27.323","3.305","7.6","0.605","3.895","0.1","0.13","29.6332","4.67659","35.82","0","SATNPRO1962","24.116","0.33778","5"],
    [29991,"HCEP03730560","2024-08-05 16:45:00","10.5469","3.32635","27.451","3.202","7.58","0.714","5.508","0.06","0.2","29.647","4.67882","34.7","0","SATNPRO1962","23.137999999999998","0.32408","5"],
    [29992,"HCEP03730560","2024-08-05 17:00:00","10.5413","3.32659","27.555","3.068","7.58","0.68","5.405","0.06","0.1","29.6539","4.67989","33.25","0","SATNPRO1962","23.208000000000002","0.32508","5"],
    [29993,"HCEP03730560","2024-08-05 17:15:00","10.5273","3.32686","27.714","3.101","7.58","0.69","5.34","0.05","0.12","29.6678","4.68211","33.59","0","SATNPRO1962","23.192","0.32486","5"],
    [29994,"HCEP03730560","2024-08-05 17:30:00","10.5562","3.32641","27.741","3.295","7.6","0.597","3.166","0.09","0.17","29.6399","4.67768","35.71","0","SATNPRO1962","24.712","0.34616","5"],
    [29995,"HCEP03730560","2024-08-05 17:45:00","10.5583","3.32611","27.795","3.64","7.62","0.676","3.014","0.15","0.15","29.6352","4.67698","39.46","0","SATNPRO1962","24.98","0.34988","5"],
    [29996,"HCEP03730560","2024-08-05 18:00:00","10.5206","3.32692","27.857","3.444","7.59","0.652","4.999","0.07","0.13","29.6738","4.68309","37.31","0","SATNPRO1962","23.55","0.3299","5"],
    [29997,"HCEP03730560","2024-08-05 18:15:00","10.5148","3.32692","27.855","3.188","7.59","0.704","5.221","0.07","0.25","29.6786","4.68386","34.53","0","SATNPRO1962","23.772000000000002","0.33292","5"],
    [29998,"HCEP03730560","2024-08-05 18:30:00","10.5136","3.32689","27.866","3.221","7.59","0.66","5.194","0.07","0.22","29.6793","4.68398","34.88","0","SATNPRO1962","23.888","0.3346","5"],
    [29999,"HCEP03730560","2024-08-05 18:45:00","10.5135","3.32687","27.836","3.241","7.59","0.677","5.096","0.08","0.21","29.6791","4.68395","35.1","0","SATNPRO1962","23.904","0.33478","5"],
    [30000,"HCEP03730560","2024-08-05 19:00:00","10.5135","3.32686","27.871","3.222","7.59","0.642","5.327","0.06","0.13","29.679","4.68393","34.9","0","SATNPRO1962","23.834","0.33384","5"],
    [30001,"HCEP03730560","2024-08-05 19:15:00","10.5131","3.32685","27.795","3.214","7.59","0.675","5.006","0.23","0.16","29.6792","4.68397","34.81","0","SATNPRO1962","24.266","0.3399","5"],
    [30002,"HCEP03730560","2024-08-05 19:30:00","10.5195","3.3267","27.752","3.226","7.59","0.646","4.642","0.1","0.15","29.6725","4.68291","34.94","0","SATNPRO1962","24.022","0.33644","5"],
    [30003,"HCEP03730560","2024-08-05 19:45:00","10.5123","3.32684","27.705","3.228","7.59","0.621","4.717","0.04","0.14","29.6799","4.68407","34.96","0","SATNPRO1962","23.992","0.3361","5"],
    [30004,"HCEP03730560","2024-08-05 20:00:00","10.5133","3.32681","27.66","3.239","7.59","0.596","4.575","0.06","0.13","29.6788","4.6839","35.08","0","SATNPRO1962","24.016000000000002","0.33638","5"],
    [30005,"HCEP03730560","2024-08-05 20:15:00","10.5157","3.32674","27.563","3.249","7.59","0.598","4.335","0.05","0.1","29.6761","4.68347","35.19","0","SATNPRO1962","24.032","0.33656","5"],
    [30006,"HCEP03730560","2024-08-05 20:30:00","10.5477","3.3261","27.514","3.258","7.59","0.566","3.872","0.05","0.14","29.6439","4.67837","35.31","0","SATNPRO1962","23.886","0.33458","5"],
    [30007,"HCEP03730560","2024-08-05 20:45:00","10.5576","3.32","27.398","3.374","7.61","0.578","2.923","0.06","0.1","29.5757","4.66849","36.55","0","SATNPRO1962","24.806","0.34746","5"],
    [30008,"HCEP03730560","2024-08-05 21:00:00","10.5613","3.32525","27.307","3.792","7.64","0.532","1.857","0.06","0.08","29.6244","4.67537","41.1","0","SATNPRO1962","26.072","0.36516","5"],
    [30009,"HCEP03730560","2024-08-05 21:15:00","10.5413","3.3262","27.235","3.692","7.61","0.597","4.007","0.06","0.12","29.6501","4.67933","40.01","0","SATNPRO1962","23.966","0.33572","5"],
    [30010,"HCEP03730560","2024-08-05 21:30:00","10.5062","3.32655","27.122","3.285","7.6","0.599","5.085","0.06","0.09","29.6822","4.68446","35.58","0","SATNPRO1962","24.054","0.33692","5"],
    [30011,"HCEP03730560","2024-08-05 21:45:00","10.5111","3.326","27.027","3.246","7.6","0.611","4.783","0.05","0.17","29.6728","4.68305","35.15","0","SATNPRO1962","24.104","0.3376","5"],
    [30012,"HCEP03730560","2024-08-05 22:00:00","10.514","3.32665","26.959","3.237","7.59","0.609","5.322","0.04","0.25","29.6769","4.68358","35.06","0","SATNPRO1962","23.852","0.33408","5"],
    [30013,"HCEP03730560","2024-08-05 22:15:00","10.519","3.31816","26.767","3.233","7.59","0.681","5.104","0.12","0.33","29.589","4.67097","35","0","SATNPRO1962","23.99","0.336","5"],
    [30014,"HCEP03730560","2024-08-05 22:30:00","10.5155","3.32651","26.64","3.249","7.59","0.667","5.404","0.09","0.26","29.6744","4.68318","35.19","0","SATNPRO1962","23.82","0.33368","5"],
    [30015,"HCEP03730560","2024-08-05 22:45:00","10.5178","3.32654","26.543","3.229","7.59","0.655","4.94","0.07","0.34","29.6729","4.68292","34.97","0","SATNPRO1962","24.236","0.33948","5"],
    [30016,"HCEP03730560","2024-08-05 23:00:00","10.5131","3.32654","26.424","3.29","7.59","0.594","4.528","0.05","0.25","29.6767","4.68354","35.64","0","SATNPRO1962","24.324","0.34074","5"],
    [30017,"HCEP03730560","2024-08-05 23:15:00","10.5152","3.3265","26.31","3.328","7.6","0.654","4.599","0.1","0.22","29.6747","4.68321","36.05","0","SATNPRO1962","24.372","0.34136","5"],
    [30018,"HCEP03730560","2024-08-05 23:30:00","10.5135","3.32648","26.25","3.374","7.6","0.639","4.344","0.16","0.27","29.6759","4.6834","36.54","0","SATNPRO1962","24.375999999999998","0.34142","5"],
    [30019,"HCEP03730560","2024-08-05 23:45:00","10.529","3.32636","26.226","3.431","7.61","0.59","3.838","0.07","0.21","29.6621","4.68118","37.17","0","SATNPRO1962","24.564","0.34408","5"],
    [30020,"HCEP03730560","2024-08-06 00:00:00","10.5443","3.32613","26.178","3.513","7.61","0.524","2.783","0.08","0.15","29.6474","4.67886","38.07","0","SATNPRO1962","24.704","0.34598","5"],
    [30021,"HCEP03730560","2024-08-06 00:15:00","10.5253","3.32629","26.146","3.519","7.61","0.644","3.965","0.14","0.19","29.6644","4.68157","38.12","0","SATNPRO1962","24.148","0.3382","5"],
    [30022,"HCEP03730560","2024-08-06 00:30:00","10.5295","3.32633","26.163","3.478","7.61","0.608","4.05","0.1","0.15","29.6614","4.68108","37.68","0","SATNPRO1962","24.478","0.34286","5"],
    [30023,"HCEP03730560","2024-08-06 00:45:00","10.5171","3.3264","26.193","3.456","7.61","0.658","3.894","0.13","0.16","29.6722","4.68282","37.43","0","SATNPRO1962","24.768","0.3469","5"],
    [30024,"HCEP03730560","2024-08-06 01:00:00","10.5306","3.32628","26.229","3.437","7.61","0.539","3.454","0.11","0.3","29.66","4.68087","37.23","0","SATNPRO1962","24.412","0.34196","5"],
    [30025,"HCEP03730560","2024-08-06 01:15:00","10.5336","3.32613","26.275","3.436","7.61","0.656","3.608","0.47","0.15","29.6561","4.68027","37.22","0","SATNPRO1962","24.276","0.34","5"],
    [30026,"HCEP03730560","2024-08-06 01:30:00","10.5569","3.3253","26.331","3.545","7.62","0.509","2.714","0.09","0.19","29.629","4.67603","38.42","0","SATNPRO1962","25.108","0.3517","5"],
    [30027,"HCEP03730560","2024-08-06 01:45:00","10.536","3.32551","26.417","3.562","7.61","0.587","3.248","0.12","0.22","29.648","4.67908","38.59","0","SATNPRO1962","24.573999999999998","0.34414","5"],
    [30028,"HCEP03730560","2024-08-06 02:00:00","10.5265","3.32634","26.486","3.455","7.61","0.623","3.512","0.14","0.14","29.6638","4.68149","37.43","0","SATNPRO1962","24.465999999999998","0.34268","5"],
    [30029,"HCEP03730560","2024-08-06 02:15:00","10.5334","3.32624","26.536","3.434","7.61","0.631","3.629","0.16","0.17","29.6572","4.68044","37.2","0","SATNPRO1962","24.644000000000002","0.34518","5"],
    [30030,"HCEP03730560","2024-08-06 02:30:00","10.542","3.32618","26.545","3.452","7.61","0.584","2.955","0.15","0.23","29.6497","4.67923","37.41","0","SATNPRO1962","24.573999999999998","0.3442","5"],
    [30031,"HCEP03730560","2024-08-06 02:45:00","10.5087","3.32629","26.644","3.414","7.6","0.619","4.233","0.06","0.12","29.6777","4.68377","36.98","0","SATNPRO1962","24.436","0.34228","5"],
    [30032,"HCEP03730560","2024-08-06 03:00:00","10.5069","3.32618","26.712","3.356","7.6","0.641","4.296","0.13","0.1","29.6781","4.68384","36.34","0","SATNPRO1962","24.471999999999998","0.34274","5"],
    [30033,"HCEP03730560","2024-08-06 03:15:00","10.526","3.32622","26.8","3.36","7.6","0.611","3.738","0.07","0.08","29.6629","4.68138","36.4","0","SATNPRO1962","24.384","0.34152","5"],
    [30034,"HCEP03730560","2024-08-06 03:30:00","10.5249","3.3263","26.88","3.363","7.6","0.583","3.827","0.09","0.39","29.6645","4.68164","36.43","0","SATNPRO1962","24.44","0.34236","5"],
    [30035,"HCEP03730560","2024-08-06 03:45:00","10.5327","3.32626","26.972","3.359","7.6","0.637","3.511","0.22","0.14","29.6578","4.68056","36.4","0","SATNPRO1962","24.242","0.33954","5"],
    [30036,"HCEP03730560","2024-08-06 04:00:00","10.5245","3.32629","27.032","3.351","7.6","0.598","3.573","0.07","0.09","29.6647","4.68168","36.3","0","SATNPRO1962","24.064","0.33706","5"],
    [30037,"HCEP03730560","2024-08-06 04:15:00","10.5091","3.32626","27.108","3.318","7.6","0.628","4.007","0.11","0.16","29.677","4.68368","35.94","0","SATNPRO1962","24.308","0.34048","5"],
    [30038,"HCEP03730560","2024-08-06 04:30:00","10.5059","3.32621","27.165","3.288","7.59","0.714","4.103","0.57","0.18","29.6791","4.68403","35.61","0","SATNPRO1962","24.214","0.33918","5"],
    [30039,"HCEP03730560","2024-08-06 04:45:00","10.5065","3.32626","27.22","3.25","7.59","0.715","4.478","0.2","0.36","29.679","4.68401","35.19","0","SATNPRO1962","24.144","0.3382","5"],
    [30040,"HCEP03730560","2024-08-06 05:00:00","10.5119","3.32638","27.258","3.17","7.58","0.804","5.207","0.57","0.29","29.6757","4.68346","34.33","0","SATNPRO1962","23.88","0.33448","5"],
    [30041,"HCEP03730560","2024-08-06 05:15:00","10.5172","3.32645","27.27","3.065","7.57","0.729","5.241","0.16","0.33","29.6721","4.68287","33.2","0","SATNPRO1962","23.264","0.32586","5"],
    [30042,"HCEP03730560","2024-08-06 05:30:00","10.5235","3.32638","27.276","3.002","7.57","0.664","4.895","0.13","0.19","29.6663","4.68194","32.52","0","SATNPRO1962","23.352","0.32714","5"],
    [30043,"HCEP03730560","2024-08-06 05:45:00","10.5328","3.32623","27.252","2.99","7.57","0.761","4.474","0.17","0.2","29.6574","4.68051","32.4","0","SATNPRO1962","23.240000000000002","0.32552","5"],
    [30044,"HCEP03730560","2024-08-06 06:00:00","10.5336","3.32635","27.222","2.918","7.56","0.742","5.44","0.12","0.26","29.6578","4.68056","31.61","0","SATNPRO1962","22.784","0.31914","5"],
    [30045,"HCEP03730560","2024-08-06 06:15:00","10.5367","3.32636","27.171","2.829","7.55","0.841","5.627","0.17","0.27","29.6555","4.68018","30.65","0","SATNPRO1962","22.396","0.31368","5"],
    [30046,"HCEP03730560","2024-08-06 06:30:00","10.5428","3.32639","27.093","2.823","7.55","0.732","5.22","0.16","0.17","29.6509","4.67942","30.59","0","SATNPRO1962","23.222","0.3253","5"],
    [30047,"HCEP03730560","2024-08-06 06:45:00","10.5456","3.32631","26.999","2.945","7.57","0.834","4.331","0.23","0.26","29.6478","4.67894","31.91","0","SATNPRO1962","23.52","0.32944","5"],
    [30048,"HCEP03730560","2024-08-06 07:00:00","10.549","3.32624","26.89","3.077","7.57","0.621","3.997","0.09","0.12","29.6444","4.67839","33.35","0","SATNPRO1962","24.312","0.34052","5"],
    [30049,"HCEP03730560","2024-08-06 07:15:00","10.5521","3.32598","26.764","3.27","7.59","7.721","52.053","5.7","21.17","29.6393","4.67761","35.44","0","SATNPRO1962","24.72","0.3462","5"],
    [30050,"HCEP03730560","2024-08-06 07:30:00","10.5524","3.32594","26.615","3.446","7.6","0.681","2.649","0.15","0.24","29.6388","4.67752","37.35","0","SATNPRO1962","24.934","0.34924","5"],
    [30051,"HCEP03730560","2024-08-06 07:45:00","10.5512","3.32615","26.458","3.392","7.59","0.7","3.82","0.1","0.32","29.6419","4.67797","36.76","0","SATNPRO1962","24.756","0.34674","5"],
    [30052,"HCEP03730560","2024-08-06 08:00:00","10.5525","3.32618","26.288","3.346","7.59","0.682","3.565","0.17","0.15","29.6412","4.67785","36.26","0","SATNPRO1962","24.234","0.33946","5"],
    [30053,"HCEP03730560","2024-08-06 08:15:00","10.5552","3.32616","26.105","3.323","7.59","0.668","3.245","0.13","0.13","29.6389","4.67746","36.02","0","SATNPRO1962","24.056","0.3369","5"],
    [30054,"HCEP03730560","2024-08-06 08:30:00","10.554","3.32624","25.915","3.309","7.59","0.579","3.185","0.14","0.13","29.6407","4.67772","35.86","0","SATNPRO1962","24.264","0.33988","5"],
    [30055,"HCEP03730560","2024-08-06 08:45:00","10.5576","3.32619","25.727","3.306","7.59","0.702","2.974","0.16","0.13","29.6375","4.6772","35.83","0","SATNPRO1962","24.388","0.34162","5"],
    [30056,"HCEP03730560","2024-08-06 09:00:00","10.5661","3.32573","25.535","3.427","7.61","0.672","2.558","0.15","0.11","29.626","4.67542","37.15","0","SATNPRO1962","24.668","0.34552","5"],
    [30057,"HCEP03730560","2024-08-06 09:15:00","10.5674","3.32601","25.332","3.476","7.6","0.688","2.504","0.19","0.14","29.6278","4.67564","37.68","0","SATNPRO1962","24.374","0.34144","5"],
    [30058,"HCEP03730560","2024-08-06 09:30:00","10.5674","3.32591","25.208","3.356","7.6","0.635","3.23","0.1","0.11","29.6268","4.6755","36.38","0","SATNPRO1962","24.466","0.34268","5"],
    [30059,"HCEP03730560","2024-08-06 09:45:00","10.5595","3.32612","24.957","3.351","7.59","0.737","3.756","0.16","0.21","29.6354","4.67683","36.32","0","SATNPRO1962","24.288","0.34022","5"],
    [30060,"HCEP03730560","2024-08-06 10:00:00","10.5586","3.32574","24.803","3.447","7.61","0.615","2.435","0.2","0.1","29.6324","4.67641","37.36","0","SATNPRO1962","25.056","0.35096","5"],
    [30061,"HCEP03730560","2024-08-06 10:15:00","10.553","3.32596","24.62","3.542","7.61","0.685","2.965","0.12","0.17","29.6393","4.67747","38.39","0","SATNPRO1962","24.736","0.3465","5"],
    [30062,"HCEP03730560","2024-08-06 10:30:00","10.5466","3.32597","24.494","3.459","7.6","0.698","4.151","0.13","0.4","29.6446","4.67832","37.48","0","SATNPRO1962","23.996","0.33608","5"],
    [30063,"HCEP03730560","2024-08-06 10:45:00","10.5397","3.32601","24.332","3.32","7.59","0.755","4.117","0.14","0.24","29.6507","4.67929","35.98","0","SATNPRO1962","25.806","0.36146","5"],
    [30064,"HCEP03730560","2024-08-06 11:00:00","10.532","3.32342","24.218","3.148","7.57","0.829","4.989","0.16","0.28","29.6315","4.67666","34.1","0","SATNPRO1962","23.328","0.32676","5"],
    [30065,"HCEP03730560","2024-08-06 11:15:00","10.5331","3.32593","24.162","3.022","7.57","0.793","4.574","0.24","0.27","29.6553","4.68004","32.74","0","SATNPRO1962","23.782","0.33312","5"],
    [30066,"HCEP03730560","2024-08-06 11:30:00","10.5328","3.32594","24.124","3.02","7.57","0.744","4.686","0.12","0.41","29.6557","4.6801","32.72","0","SATNPRO1962","23.622","0.33088","5"],
    [30067,"HCEP03730560","2024-08-06 11:45:00","10.5345","3.32583","24.126","3.067","7.58","0.775","4.476","0.17","0.19","29.6532","4.67971","33.23","0","SATNPRO1962","23.668","0.33154","5"],
    [30068,"HCEP03730560","2024-08-06 12:00:00","10.53","3.32597","24.122","3.041","7.57","0.869","6.569","0.21","3.43","29.6583","4.68051","32.94","0","SATNPRO1962","23.668","0.33148","5"],
    [30069,"HCEP03730560","2024-08-06 12:15:00","10.5315","3.32598","24.171","2.977","7.57","0.898","4.998","0.29","0.49","29.6572","4.68034","32.26","0","SATNPRO1962","23.678","0.33166","5"],
    [30070,"HCEP03730560","2024-08-06 12:30:00","10.5355","3.32586","24.249","3.113","7.58","0.626","3.451","0.1","0.1","29.6527","4.67963","33.73","0","SATNPRO1962","24.68","0.34568","5"],
    [30071,"HCEP03730560","2024-08-06 12:45:00","10.5302","3.32598","24.337","3.136","7.57","0.785","5.005","0.09","0.25","29.6582","4.68051","33.98","0","SATNPRO1962","23.28","0.32606","5"],
    [30072,"HCEP03730560","2024-08-06 13:00:00","10.5274","3.32592","24.47","2.976","7.56","0.751","5.022","0.17","0.23","29.6597","4.68078","32.24","0","SATNPRO1962","23.608","0.33066","5"],
    [30073,"HCEP03730560","2024-08-06 13:15:00","10.5244","3.32591","24.605","2.96","7.56","0.806","4.944","0.17","0.2","29.662","4.68116","32.07","0","SATNPRO1962","23.612","0.33068","5"],
    [30074,"HCEP03730560","2024-08-06 13:30:00","10.524","3.32599","24.744","3.008","7.57","0.756","4.899","0.15","0.24","29.6631","4.68132","32.59","0","SATNPRO1962","23.663999999999998","0.33146","5"],
    [30075,"HCEP03730560","2024-08-06 13:45:00","10.5224","3.32604","24.929","3.034","7.57","0.84","4.783","0.33","0.39","29.6648","4.6816","32.87","0","SATNPRO1962","23.844","0.33398","5"],
    [30076,"HCEP03730560","2024-08-06 14:00:00","10.5205","3.32604","25.088","3.064","7.57","0.734","4.82","0.16","0.25","29.6663","4.68187","33.19","0","SATNPRO1962","24.052","0.33688","5"],
    [30077,"HCEP03730560","2024-08-06 14:15:00","10.5189","3.32603","25.182","3.084","7.57","0.743","4.5","0.07","0.35","29.6675","4.68206","33.4","0","SATNPRO1962","24.356","0.34114","5"],
    [30078,"HCEP03730560","2024-08-06 14:30:00","10.5218","3.3261","25.378","3.161","7.58","0.704","4.398","0.1","0.22","29.6658","4.68178","34.24","0","SATNPRO1962","24.844","0.348","5"],
    [30079,"HCEP03730560","2024-08-06 14:45:00","10.525","3.32639","25.583","3.157","7.58","0.812","4.832","0.12","0.29","29.666","4.68177","34.2","0","SATNPRO1962","24.304","0.34048","5"],
    [30080,"HCEP03730560","2024-08-06 15:00:00","10.5303","3.32665","25.751","3.132","7.58","0.817","5.077","0.23","0.26","29.6641","4.68143","33.93","0","SATNPRO1962","24.094","0.33746","5"],
    [30081,"HCEP03730560","2024-08-06 15:15:00","10.5359","3.32688","25.915","3.104","7.57","0.725","4.572","0.1","0.24","29.6617","4.68101","33.63","0","SATNPRO1962","23.976","0.33582","5"],
    [30082,"HCEP03730560","2024-08-06 15:30:00","10.539","3.32695","26.076","3.094","7.57","0.772","4.648","0.22","0.18","29.6599","4.68071","33.53","0","SATNPRO1962","23.888","0.33456","5"],
    [30083,"HCEP03730560","2024-08-06 15:45:00","10.5409","3.32693","26.289","3.135","7.58","0.807","4.313","0.28","0.23","29.6581","4.68043","33.97","0","SATNPRO1962","24.472","0.34278","5"],
    [30084,"HCEP03730560","2024-08-06 16:00:00","10.5398","3.32682","26.49","3.198","7.58","0.734","4.543","0.17","0.18","29.6578","4.68041","34.66","0","SATNPRO1962","23.932","0.33524","5"],
    [30085,"HCEP03730560","2024-08-06 16:15:00","10.5388","3.32692","26.704","3.162","7.58","0.716","4.274","0.12","0.14","29.6595","4.68069","34.26","0","SATNPRO1962","23.988","0.336","5"],
    [30086,"HCEP03730560","2024-08-06 16:30:00","10.5421","3.32662","26.893","3.199","7.59","0.68","4.216","0.09","0.24","29.6537","4.67982","34.66","0","SATNPRO1962","24.078","0.33726","5"],
    [30087,"HCEP03730560","2024-08-06 16:45:00","10.5396","3.32689","27.057","3.211","7.58","0.682","4.232","0.12","0.3","29.6584","4.68054","34.79","0","SATNPRO1962","23.994","0.33606","5"],
    [30088,"HCEP03730560","2024-08-06 17:00:00","10.5473","3.32678","27.211","3.15","7.58","0.781","3.793","0.32","0.24","29.651","4.67937","34.14","0","SATNPRO1962","24.092","0.33746","5"],
    [30089,"HCEP03730560","2024-08-06 17:15:00","10.5498","3.3265","27.348","3.157","7.58","0.689","3.69","0.1","0.13","29.6461","4.67864","34.22","0","SATNPRO1962","24.016","0.3364","5"],
    [30090,"HCEP03730560","2024-08-06 17:30:00","10.5517","3.32622","27.451","3.082","7.57","0.642","3.967","0.07","0.18","29.6418","4.678","33.4","0","SATNPRO1962","23.49","0.32902","5"],
    [30091,"HCEP03730560","2024-08-06 17:45:00","10.5551","3.32621","27.558","2.987","7.56","0.7","4.226","0.13","0.3","29.6389","4.67755","32.37","0","SATNPRO1962","23.7","0.33194","5"],
    [30092,"HCEP03730560","2024-08-06 18:00:00","10.5566","3.32616","27.645","3.014","7.57","0.711","4.168","0.11","0.26","29.6371","4.67727","32.67","0","SATNPRO1962","25.138","0.35208","5"],
    [30093,"HCEP03730560","2024-08-06 18:15:00","10.5618","3.32574","27.696","3.312","7.6","0.761","2.325","0.28","0.16","29.6287","4.67599","35.9","0","SATNPRO1962","25.888","0.3626","5"],
    [30094,"HCEP03730560","2024-08-06 18:30:00","10.5571","3.32615","27.733","3.453","7.59","0.663","3.26","0.17","0.16","29.6366","4.6772","37.42","0","SATNPRO1962","24.462","0.34264","5"],
    [30095,"HCEP03730560","2024-08-06 18:45:00","10.5587","3.3261","27.726","3.343","7.6","0.703","3.335","0.12","0.17","29.6348","4.67691","36.23","0","SATNPRO1962","24.484","0.3429","5"],
    [30096,"HCEP03730560","2024-08-06 19:00:00","10.5616","3.32624","27.722","3.234","7.57","0.59","3.675","0.09","0.3","29.6339","4.67674","35.05","0","SATNPRO1962","23.486","0.32898","5"],
    [30097,"HCEP03730560","2024-08-06 19:15:00","10.5564","3.32618","27.711","2.916","7.56","0.795","4.705","0.09","0.23","29.6375","4.67733","31.6","0","SATNPRO1962","22.722","0.31826","5"],
    [30098,"HCEP03730560","2024-08-06 19:30:00","10.5582","3.3262","27.678","2.824","7.55","0.728","4.176","0.1","0.18","29.6362","4.67712","30.61","0","SATNPRO1962","23.084","0.32336","5"],
    [30099,"HCEP03730560","2024-08-06 19:45:00","10.5418","3.32635","27.634","2.833","7.55","0.718","4.501","0.08","0.14","29.651","4.67948","30.7","0","SATNPRO1962","23.354","0.32712","5"],
    [30100,"HCEP03730560","2024-08-06 20:00:00","10.5479","3.32613","27.585","2.839","7.55","0.744","4.206","0.38","0.12","29.644","4.67839","30.77","0","SATNPRO1962","23.122","0.32384","5"],
    [30101,"HCEP03730560","2024-08-06 20:15:00","10.5505","3.32609","27.511","2.894","7.55","0.669","4.098","0.1","0.14","29.6415","4.67798","31.36","0","SATNPRO1962","23.074","0.32322","5"],
    [30102,"HCEP03730560","2024-08-06 20:30:00","10.5501","3.32615","27.474","2.905","7.56","0.653","3.88","0.09","0.1","29.6424","4.67811","31.48","0","SATNPRO1962","23.674","0.3316","5"],
    [30103,"HCEP03730560","2024-08-06 20:45:00","10.5495","3.32629","27.375","2.979","7.56","0.655","3.508","0.12","0.2","29.6443","4.67839","32.28","0","SATNPRO1962","23.664","0.33146","5"],
    [30104,"HCEP03730560","2024-08-06 21:00:00","10.549","3.32636","27.315","3.064","7.57","0.576","4.345","0.06","0.54","29.6454","4.67855","33.21","0","SATNPRO1962","23.906","0.33486","5"],
    [30105,"HCEP03730560","2024-08-06 21:15:00","10.5495","3.32642","27.187","3.141","7.58","0.635","4.051","0.2","0.74","29.6456","4.67857","34.04","0","SATNPRO1962","24.108","0.3377","5"],
    [30106,"HCEP03730560","2024-08-06 21:30:00","10.5494","3.32624","27.089","3.125","7.57","0.579","5.139","0.07","1.27","29.644","4.67834","33.86","0","SATNPRO1962","23.654","0.33128","5"],
    [30107,"HCEP03730560","2024-08-06 21:45:00","10.5486","3.32633","26.981","3.061","7.57","0.574","5.617","0.06","1.71","29.6456","4.67857","33.17","0","SATNPRO1962","23.778","0.33306","5"],
    [30108,"HCEP03730560","2024-08-06 22:00:00","10.541","3.32644","26.846","3.077","7.57","0.59","4.55","0.07","1.37","29.6529","4.67971","33.34","0","SATNPRO1962","24.024","0.33654","5"],
    [30109,"HCEP03730560","2024-08-06 22:15:00","10.5248","3.32594","26.779","3.025","7.56","0.695","4.976","0.13","1.07","29.6611","4.68115","32.77","0","SATNPRO1962","23.752","0.33268","5"],
    [30110,"HCEP03730560","2024-08-06 22:30:00","10.5183","3.32566","26.649","2.921","7.56","0.662","5.421","0.05","0.56","29.6638","4.68163","31.63","0","SATNPRO1962","23.268","0.3259","5"],
    [30111,"HCEP03730560","2024-08-06 22:45:00","10.5193","3.32561","26.533","2.887","7.56","0.616","4.183","0.07","1.2","29.6624","4.68141","31.27","0","SATNPRO1962","24.138","0.33808","5"],
    [30112,"HCEP03730560","2024-08-06 23:00:00","10.5266","3.32575","26.375","3.002","7.56","0.598","4.059","0.12","0.24","29.658","4.68065","32.52","0","SATNPRO1962","23.904","0.33478","5"],
    [30113,"HCEP03730560","2024-08-06 23:15:00","10.5402","3.32586","26.243","3.122","7.58","0.594","3.116","0.06","0.1","29.648","4.67901","33.82","0","SATNPRO1962","24.326","0.34076","5"],
    [30114,"HCEP03730560","2024-08-06 23:30:00","10.5228","3.32566","26.133","3.109","7.57","0.618","3.762","0.13","0.15","29.6603","4.68103","33.68","0","SATNPRO1962","23.854","0.3341","5"],
    [30115,"HCEP03730560","2024-08-06 23:45:00","10.5203","3.32561","26.026","2.955","7.56","0.632","4.212","0.09","0.41","29.6619","4.68129","32.01","0","SATNPRO1962","23.666","0.33152","5"],
    [30116,"HCEP03730560","2024-08-07 00:00:00","10.534","3.32571","25.949","2.85","7.55","0.845","4.135","0.86","0.21","29.6518","4.67963","30.87","0","SATNPRO1962","23.022","0.32242","5"],
    [30117,"HCEP03730560","2024-08-07 00:15:00","10.5344","3.3257","25.882","2.793","7.55","0.672","4.04","0.15","0.23","29.6513","4.67954","30.25","0","SATNPRO1962","22.854","0.32012","5"],
    [30118,"HCEP03730560","2024-08-07 00:30:00","10.521","3.29451","25.872","2.745","7.54","0.651","4.76","0.12","0.25","29.3542","4.63741","29.68","0","SATNPRO1962","22.794","0.31926","5"],
    [30119,"HCEP03730560","2024-08-07 00:45:00","10.5224","3.32559","25.87","2.698","7.54","0.653","4.398","0.11","0.22","29.66","4.68098","29.22","0","SATNPRO1962","22.75","0.31866","5"],
    [30120,"HCEP03730560","2024-08-07 01:00:00","10.5212","3.32558","25.884","2.677","7.54","0.669","4.62","0.09","0.16","29.6609","4.68112","29","0","SATNPRO1962","22.724","0.31832","5"],
    [30121,"HCEP03730560","2024-08-07 01:15:00","10.5219","3.32559","25.911","2.674","7.54","0.814","4.726","0.44","1.03","29.6604","4.68104","28.96","0","SATNPRO1962","22.866","0.3203","5"],
    [30122,"HCEP03730560","2024-08-07 01:30:00","10.5222","3.32559","25.929","2.679","7.54","0.678","4.492","0.14","0.26","29.6601","4.681","29.02","0","SATNPRO1962","22.838","0.3199","5"],
    [30123,"HCEP03730560","2024-08-07 01:45:00","10.5319","3.3255","25.976","2.706","7.54","0.682","4.309","0.16","0.17","29.6514","4.6796","29.32","0","SATNPRO1962","22.951999999999998","0.3215","5"],
    [30124,"HCEP03730560","2024-08-07 02:00:00","10.5244","3.32559","26.053","2.734","7.54","0.596","4.305","0.12","0.18","29.6584","4.68072","29.62","0","SATNPRO1962","22.918","0.321","5"],
    [30125,"HCEP03730560","2024-08-07 02:15:00","10.5199","3.32561","26.167","2.729","7.54","0.634","4.203","0.09","0.2","29.6622","4.68134","29.56","0","SATNPRO1962","23.104","0.32362","5"],
    [30126,"HCEP03730560","2024-08-07 02:30:00","10.5199","3.32558","26.236","2.749","7.54","0.622","4.089","0.09","0.13","29.6618","4.6813","29.77","0","SATNPRO1962","23.064","0.32308","5"],
    [30127,"HCEP03730560","2024-08-07 02:45:00","10.526","3.32564","26.32","2.767","7.54","0.656","3.891","0.13","0.24","29.6574","4.68057","29.97","0","SATNPRO1962","23.024","0.32248","5"],
    [30128,"HCEP03730560","2024-08-07 03:00:00","10.5264","3.32566","26.391","2.8","7.55","0.646","3.965","0.12","0.26","29.6573","4.68055","30.33","0","SATNPRO1962","23.462","0.32866","5"],
    [30129,"HCEP03730560","2024-08-07 03:15:00","10.5339","3.32568","26.469","2.912","7.56","0.609","3.759","0.09","0.18","29.6513","4.67959","31.55","0","SATNPRO1962","23.812","0.33354","5"],
    [30130,"HCEP03730560","2024-08-07 03:30:00","10.5353","3.32571","26.56","2.989","7.56","0.554","3.569","0.07","0.06","29.6504","4.67944","32.38","0","SATNPRO1962","23.868","0.3343","5"],
    [30131,"HCEP03730560","2024-08-07 03:45:00","10.528","3.32566","26.627","3.019","7.56","0.699","3.971","0.13","0.35","29.6559","4.68034","32.7","0","SATNPRO1962","23.842","0.33394","5"],
    [30132,"HCEP03730560","2024-08-07 04:00:00","10.5128","3.32533","26.697","2.976","7.56","0.694","4.164","0.2","0.2","29.665","4.68188","32.23","0","SATNPRO1962","23.708000000000002","0.33208","5"],
    [30133,"HCEP03730560","2024-08-07 04:15:00","10.5378","3.32565","26.764","3.015","7.57","0.668","3.874","0.08","0.17","29.6477","4.67903","32.67","0","SATNPRO1962","23.887999999999998","0.33458","5"],
    [30134,"HCEP03730560","2024-08-07 04:30:00","10.5282","3.32542","26.85","3.109","7.57","0.689","3.927","0.11","0.24","29.6532","4.67997","33.68","0","SATNPRO1962","24.654","0.3453","5"],
    [30135,"HCEP03730560","2024-08-07 04:45:00","10.5439","3.32515","26.929","3.304","7.59","0.752","3.189","0.14","0.09","29.6378","4.67752","35.8","0","SATNPRO1962","25.516","0.3574","5"],
    [30136,"HCEP03730560","2024-08-07 05:00:00","10.5551","3.32434","27.013","3.42","7.6","0.86","3.212","0.3","0.37","29.6207","4.67492","37.06","0","SATNPRO1962","25.014","0.35038","5"],
    [30137,"HCEP03730560","2024-08-07 05:15:00","10.5463","3.3248","27.081","3.459","7.6","0.853","2.79","0.3","0.8","29.6323","4.67671","37.48","0","SATNPRO1962","24.998","0.35014","5"],
    [30138,"HCEP03730560","2024-08-07 05:30:00","10.5578","3.32449","27.128","3.519","7.61","0.888","1.81","0.47","0.5","29.6199","4.67477","38.14","0","SATNPRO1962","25.276","0.35402","5"],
    [30139,"HCEP03730560","2024-08-07 05:45:00","10.5334","3.32526","27.152","3.448","7.59","0.854","2.932","0.17","0.19","29.6473","4.67906","37.36","0","SATNPRO1962","24.604","0.34464","5"],
    [30140,"HCEP03730560","2024-08-07 06:00:00","10.5263","3.32552","27.177","3.199","7.58","0.771","4.04","0.18","0.27","29.6556","4.68036","34.65","0","SATNPRO1962","23.938","0.33528","5"],
    [30141,"HCEP03730560","2024-08-07 06:15:00","10.529","3.32559","27.179","3.025","7.57","0.84","4.216","0.12","0.39","29.6542","4.68012","32.77","0","SATNPRO1962","23.756","0.33272","5"],
    [30142,"HCEP03730560","2024-08-07 06:30:00","10.5405","3.32482","27.147","3.032","7.57","0.857","4.259","0.12","0.46","29.6371","4.6775","32.85","0","SATNPRO1962","23.854","0.33414","5"],
    [30143,"HCEP03730560","2024-08-07 06:45:00","10.5467","3.32524","27.116","3.068","7.57","0.856","3.324","0.15","0.61","29.6363","4.67728","33.24","0","SATNPRO1962","24.024","0.33652","5"],
    [30144,"HCEP03730560","2024-08-07 07:00:00","10.5476","3.32533","27.057","3.038","7.57","0.737","3.33","0.13","0.42","29.6365","4.6773","32.92","0","SATNPRO1962","23.752","0.3327","5"],
    [30145,"HCEP03730560","2024-08-07 07:15:00","10.548400000000001","3.32556","26.983","2.928","7.55","0.855","4.063","0.17","0.2","29.6381","4.67751","31.73","0","SATNPRO1962","22.956","0.3215","5"],
    [30146,"HCEP03730560","2024-08-07 07:30:00","10.5574","3.32409","26.904","2.953","7.57","0.746","2.354","0.17","0.31","29.6164","4.67427","32","0","SATNPRO1962","24.004","0.33624","5"],
    [30147,"HCEP03730560","2024-08-07 07:45:00","10.5586","3.32321","26.791","3.119","7.57","0.842","1.962","0.29","0.15","29.6067","4.67286","33.8","0","SATNPRO1962","24.212","0.33912","5"],
    [30148,"HCEP03730560","2024-08-07 08:00:00","10.5635","3.31333","26.675","3.155","7.57","0.837","2.35","0.2","0.37","29.5053","4.65832","34.17","0","SATNPRO1962","24.154","0.33832","5"],
    [30149,"HCEP03730560","2024-08-07 08:15:00","10.5703","3.29442","26.539","3.109","7.57","0.87","2.427","0.22","0.15","29.3135","4.63086","33.64","0","SATNPRO1962","23.88","0.3345","5"],
    [30150,"HCEP03730560","2024-08-07 08:30:00","10.5642","3.22396","26.393","3.148","7.58","0.901","1.814","0.22","0.13","28.6252","4.53259","33.91","0","SATNPRO1962","24.396","0.34172","5"],
    [30151,"HCEP03730560","2024-08-07 08:45:00","10.5663","3.31001","26.244","3.16","7.57","0.89","1.926","0.25","0.18","29.4705","4.6533","34.22","0","SATNPRO1962","24.132","0.33802","5"],
    [30152,"HCEP03730560","2024-08-07 09:00:00","10.5798","3.32682","26.068","2.962","7.55","0.993","4.589","0.29","0.17","29.6255","4.67515","32.11","0","SATNPRO1962","22.508","0.3153","5"],
    [30153,"HCEP03730560","2024-08-07 09:15:00","10.5905","3.32675","25.898","2.838","7.56","1.247","3.676","0.49","0.47","29.6162","4.67365","30.78","0","SATNPRO1962","23.32","0.32666","5"],
    [30154,"HCEP03730560","2024-08-07 09:30:00","10.5772","3.32461","25.722","2.983","7.57","1.051","2.211","0.43","0.21","29.6059","4.67239","32.34","0","SATNPRO1962","24.06","0.33698","5"],
    [30155,"HCEP03730560","2024-08-07 09:45:00","10.5694","3.32639","25.545","2.964","7.55","1.313","4.372","0.39","0.22","29.6299","4.67592","32.13","0","SATNPRO1962","22.712","0.31814","5"],
    [30156,"HCEP03730560","2024-08-07 10:00:00","10.5473","3.32566","25.367","2.729","7.54","1.268","4.74","0.38","0.18","29.6407","4.6778","29.57","0","SATNPRO1962","22.642","0.31714","5"],
    [30157,"HCEP03730560","2024-08-07 10:15:00","10.5481","3.32572","25.194","2.647","7.54","1.099","4.702","0.27","0.54","29.6407","4.67778","28.69","0","SATNPRO1962","22.752","0.3187","5"],
    [30158,"HCEP03730560","2024-08-07 10:30:00","10.5473","3.32566","25.019","2.659","7.54","1.017","4.538","0.28","0.4","29.6409","4.6778","28.82","0","SATNPRO1962","22.916","0.32102","5"],
    [30159,"HCEP03730560","2024-08-07 10:45:00","10.5583","3.32499","24.859","2.806","7.55","0.953","3.868","0.24","0.22","29.6253","4.67541","30.42","0","SATNPRO1962","23.756","0.33276","5"],
    [30160,"HCEP03730560","2024-08-07 11:00:00","10.5413","3.3256","24.711","2.856","7.54","0.977","4.802","0.23","0.19","29.6452","4.6785","30.95","0","SATNPRO1962","23.272","0.32598","5"],
    [30161,"HCEP03730560","2024-08-07 11:15:00","10.5569","3.32508","24.596","2.942","7.57","1.04","2.771","0.34","0.31","29.6274","4.67571","31.89","0","SATNPRO1962","24.538","0.34372","5"],
    [30162,"HCEP03730560","2024-08-07 11:30:00","10.5372","3.32552","24.475","3.042","7.55","1.038","4.684","0.18","0.58","29.6479","4.67893","32.95","0","SATNPRO1962","23.898","0.33478","5"],
    [30163,"HCEP03730560","2024-08-07 11:45:00","10.5431","3.32518","24.404","3.036","7.57","1.105","3.638","0.27","0.35","29.6397","4.67767","32.9","0","SATNPRO1962","25.052","0.3509","5"],
    [30164,"HCEP03730560","2024-08-07 12:00:00","10.5297","3.32536","24.356","3.075","7.56","1.764","13.953","0.72","11.83","29.6524","4.67969","33.31","0","SATNPRO1962","23.836","0.33386","5"],
    [30165,"HCEP03730560","2024-08-07 12:15:00","10.5246","3.32516","24.348","2.933","7.56","0.998","3.816","0.25","0.16","29.6546","4.68008","31.77","0","SATNPRO1962","23.874","0.33442","5"],
    [30166,"HCEP03730560","2024-08-07 12:30:00","10.5232","3.32508","24.357","2.913","7.56","1.012","4.555","0.23","0.53","29.6549","4.68015","31.55","0","SATNPRO1962","23.812","0.33352","5"],
    [30167,"HCEP03730560","2024-08-07 12:45:00","10.5236","3.32504","24.396","2.928","7.56","0.956","4.155","0.12","0.29","29.6542","4.68005","31.71","0","SATNPRO1962","23.86","0.33418","5"],
    [30168,"HCEP03730560","2024-08-07 13:00:00","10.524","3.32507","24.449","2.942","7.56","1.204","4.164","0.73","1.17","29.6541","4.68003","31.87","0","SATNPRO1962","24.028","0.33656","5"],
    [30169,"HCEP03730560","2024-08-07 13:15:00","10.524","3.32513","24.519","2.956","7.56","1.003","3.79","0.26","0.41","29.6547","4.68012","32.02","0","SATNPRO1962","23.98","0.3359","5"],
    [30170,"HCEP03730560","2024-08-07 13:30:00","10.5249","3.32527","24.624","2.946","7.56","0.946","3.688","0.35","0.22","29.6553","4.68019","31.92","0","SATNPRO1962","23.904","0.33482","5"],
    [30171,"HCEP03730560","2024-08-07 13:45:00","10.5264","3.32538","24.743","2.934","7.56","1.19","4.052","0.64","0.16","29.6551","4.68014","31.78","0","SATNPRO1962","23.862","0.33418","5"],
    [30172,"HCEP03730560","2024-08-07 14:00:00","10.5283","3.32543","24.873","2.905","7.55","0.995","3.98","0.26","0.25","29.654","4.67997","31.47","0","SATNPRO1962","24.291999999999998","0.34026","5"],
    [30173,"HCEP03730560","2024-08-07 14:15:00","10.53","3.32548","25.019","2.882","7.56","1.021","3.997","0.24","0.25","29.653","4.67981","31.22","0","SATNPRO1962","23.792","0.33324","5"],
    [30174,"HCEP03730560","2024-08-07 14:30:00","10.5323","3.32554","25.17","2.919","7.55","0.942","4.426","0.13","0.18","29.6517","4.6796","31.63","0","SATNPRO1962","24.106","0.33766","5"],
    [30175,"HCEP03730560","2024-08-07 14:45:00","10.5358","3.32562","25.367","2.848","7.55","1.042","4.593","0.13","0.38","29.6497","4.67926","30.85","0","SATNPRO1962","23.648","0.33126","5"],
    [30176,"HCEP03730560","2024-08-07 15:00:00","10.5402","3.32573","25.554","2.778","7.54","1.053","5.009","0.17","0.25","29.6471","4.67883","30.1","0","SATNPRO1962","23.286","0.32618","5"],
    [30177,"HCEP03730560","2024-08-07 15:15:00","10.5465","3.32592","25.713","2.703","7.54","1.15","4.988","0.16","0.47","29.6437","4.67827","29.29","0","SATNPRO1962","24.028","0.33654","5"],
    [30178,"HCEP03730560","2024-08-07 15:30:00","10.5567","3.3261","25.843","2.758","7.55","1.232","4.201","0.47","0.33","29.6372","4.67719","29.89","0","SATNPRO1962","23.778000000000002","0.33306","5"],
    [30179,"HCEP03730560","2024-08-07 15:45:00","10.5647","3.3266","25.983","2.797","7.54","1.023","4.144","0.17","0.28","29.6356","4.67683","30.31","0","SATNPRO1962","23.194","0.32486","5"],
    [30180,"HCEP03730560","2024-08-07 16:00:00","10.5782","3.3273","26.185","2.708","7.53","1.014","4.451","0.16","0.44","29.6315","4.67604","29.36","0","SATNPRO1962","22.938","0.32132","5"],
    [30181,"HCEP03730560","2024-08-07 16:15:00","10.5903","3.32804","26.369","2.607","7.53","1.063","4.271","0.15","0.2","29.6289","4.6755","28.27","0","SATNPRO1962","22.402","0.31382","5"],
    [30182,"HCEP03730560","2024-08-07 16:30:00","10.585","3.32789","26.558","2.506","7.52","1.099","4.905","0.18","0.42","29.6316","4.67597","27.18","0","SATNPRO1962","22.28","0.3121","5"],
    [30183,"HCEP03730560","2024-08-07 16:45:00","10.5852","3.32794","26.757","2.447","7.52","0.992","4.691","0.18","0.34","29.6319","4.67602","26.54","0","SATNPRO1962","22.118","0.30982","5"],
    [30184,"HCEP03730560","2024-08-07 17:00:00","10.5962","3.32864","26.932","2.451","7.52","1.026","4.372","0.24","0.4","29.6297","4.67555","26.58","0","SATNPRO1962","22.342","0.31296","5"],
    [30185,"HCEP03730560","2024-08-07 17:15:00","10.568","3.32694","27.1","2.522","7.52","1.045","4.369","0.15","0.43","29.6358","4.67687","27.35","0","SATNPRO1962","22.852","0.3201","5"],
    [30186,"HCEP03730560","2024-08-07 17:30:00","10.5698","3.3271","27.244","2.596","7.53","0.9","5.691","0.15","1.94","29.6358","4.67686","28.14","0","SATNPRO1962","22.944","0.32134","5"],
    [30187,"HCEP03730560","2024-08-07 17:45:00","10.5659","3.3269","27.376","2.624","7.53","0.936","4.224","0.2","1.52","29.637","4.6771","28.44","0","SATNPRO1962","22.976","0.32184","5"],
    [30188,"HCEP03730560","2024-08-07 18:00:00","10.5467","3.3261","27.485","2.715","7.54","0.987","7.132","0.18","3.46","29.6446","4.67849","29.42","0","SATNPRO1962","23.61","0.33072","5"],
    [30189,"HCEP03730560","2024-08-07 18:15:00","10.5318","3.32573","27.56","2.839","7.55","1.009","8.763","0.21","5.84","29.6531","4.67994","30.76","0","SATNPRO1962","23.824","0.33372","5"],
    [30190,"HCEP03730560","2024-08-07 18:30:00","10.5312","3.32572","27.617","2.908","7.55","0.902","3.769","0.2","0.35","29.6534","4.68","31.5","0","SATNPRO1962","24.194","0.3389","5"],
    [30191,"HCEP03730560","2024-08-07 18:45:00","10.5401","3.3258","27.644","2.945","7.56","0.802","3.272","0.13","0.22","29.6469","4.67893","31.91","0","SATNPRO1962","23.996","0.33612","5"],
    [30192,"HCEP03730560","2024-08-07 19:00:00","10.5351","3.32576","27.673","2.961","7.56","0.915","3.426","0.45","0.16","29.6506","4.67954","32.08","0","SATNPRO1962","23.79","0.33324","5"],
    [30193,"HCEP03730560","2024-08-07 19:15:00","10.5462","3.32586","27.721","2.86","7.54","0.841","3.738","0.11","0.15","29.6426","4.67822","30.99","0","SATNPRO1962","23.366","0.32726","5"],
    [30194,"HCEP03730560","2024-08-07 19:30:00","10.5534","3.32586","27.717","2.788","7.55","0.794","3.563","0.11","0.16","29.6368","4.67728","30.22","0","SATNPRO1962","23.484","0.3289","5"],
    [30195,"HCEP03730560","2024-08-07 19:45:00","10.5537","3.32588","27.677","2.859","7.55","0.82","3.301","0.11","0.14","29.6367","4.67726","30.99","0","SATNPRO1962","23.708","0.33208","5"],
    [30196,"HCEP03730560","2024-08-07 20:00:00","10.5567","3.32594","27.61","2.91","7.56","0.845","3.367","0.22","0.36","29.6348","4.67694","31.54","0","SATNPRO1962","24.246","0.3396","5"],
    [30197,"HCEP03730560","2024-08-07 20:15:00","10.5514","3.32569","27.582","2.923","7.55","0.904","3.433","0.19","0.2","29.6367","4.67729","31.67","0","SATNPRO1962","23.746","0.33262","5"],
    [30198,"HCEP03730560","2024-08-07 20:30:00","10.5372","3.32552","27.528","2.815","7.54","0.867","3.917","0.21","0.14","29.6467","4.67893","30.5","0","SATNPRO1962","23.436","0.32824","5"],
    [30199,"HCEP03730560","2024-08-07 20:45:00","10.5381","3.32553","27.458","2.764","7.54","0.82","3.803","0.14","0.15","29.646","4.67882","29.95","0","SATNPRO1962","23.470000000000002","0.32874","5"],
    [30200,"HCEP03730560","2024-08-07 21:00:00","10.549","3.32544","27.402","2.746","7.54","0.771","3.536","0.12","0.12","29.6362","4.67725","29.76","0","SATNPRO1962","23.334","0.32682","5"],
    [30201,"HCEP03730560","2024-08-07 21:15:00","10.5511","3.32539","27.295","2.696","7.53","0.814","3.31","0.2","0.1","29.6342","4.67692","29.22","0","SATNPRO1962","23.166","0.32448","5"],
    [30202,"HCEP03730560","2024-08-07 21:30:00","10.5458","3.32524","27.163","2.613","7.53","0.751","3.516","0.1","0.15","29.637","4.6774","28.31","0","SATNPRO1962","22.816","0.3196","5"],
    [30203,"HCEP03730560","2024-08-07 21:45:00","10.5551","3.32523","27.077","2.561","7.53","0.688","3.264","0.1","0.12","29.6294","4.67616","27.76","0","SATNPRO1962","22.918","0.32102","5"],
    [30204,"HCEP03730560","2024-08-07 22:00:00","10.5587","3.32518","26.954","2.585","7.53","0.665","3.155","0.11","0.21","29.626","4.67561","28.01","0","SATNPRO1962","22.914","0.32096","5"],
    [30205,"HCEP03730560","2024-08-07 22:15:00","10.556","3.32458","26.849","2.609","7.53","0.746","2.997","0.11","0.43","29.6224","4.67514","28.27","0","SATNPRO1962","22.896","0.32066","5"],
    [30206,"HCEP03730560","2024-08-07 22:30:00","10.5512","3.32411","26.739","2.626","7.53","0.78","3.313","0.18","0.13","29.6216","4.6751","28.45","0","SATNPRO1962","22.996","0.32214","5"],
    [30207,"HCEP03730560","2024-08-07 22:45:00","10.5574","3.32394","26.611","2.649","7.53","0.934","2.813","0.36","0.12","29.615","4.67405","28.71","0","SATNPRO1962","23.286","0.32618","5"],
    [30208,"HCEP03730560","2024-08-07 23:00:00","10.5356","3.3248","26.455","2.615","7.52","0.996","4.364","0.64","0.66","29.6412","4.67812","28.33","0","SATNPRO1962","22.64","0.3171","5"],
    [30209,"HCEP03730560","2024-08-07 23:15:00","10.5243","3.32491","26.314","2.534","7.52","0.878","4.469","0.15","0.45","29.6516","4.67977","27.44","0","SATNPRO1962","22.962","0.3216","5"],
    [30210,"HCEP03730560","2024-08-07 23:30:00","10.5209","3.32476","26.148","2.58","7.53","0.793","4.327","0.1","0.19","29.6529","4.68","27.94","0","SATNPRO1962","23.18","0.32466","5"],
    [30211,"HCEP03730560","2024-08-07 23:45:00","10.5184","3.32462","25.932","2.598","7.53","0.803","4.49","0.16","0.45","29.6537","4.68015","28.14","0","SATNPRO1962","23.046","0.32278","5"],
    [30212,"HCEP03730560","2024-08-08 00:00:00","10.516","3.32457","25.827","2.553","7.52","0.753","4.449","0.14","0.23","29.6552","4.68039","27.65","0","SATNPRO1962","22.736","0.3185","5"],
    [30213,"HCEP03730560","2024-08-08 00:15:00","10.5178","3.32462","25.731","2.522","7.52","0.834","4.256","0.19","0.21","29.6543","4.68023","27.31","0","SATNPRO1962","22.81","0.3195","5"],
    [30214,"HCEP03730560","2024-08-08 00:30:00","10.5194","3.32462","25.626","2.515","7.52","0.781","4.103","0.17","0.2","29.653","4.68001","27.24","0","SATNPRO1962","22.896","0.3207","5"],
    [30215,"HCEP03730560","2024-08-08 00:45:00","10.5197","3.32464","25.572","2.529","7.52","0.729","4.058","0.17","0.41","29.6529","4.67999","27.39","0","SATNPRO1962","22.914","0.32094","5"],
    [30216,"HCEP03730560","2024-08-08 01:00:00","10.5203","3.32314","25.546","2.551","7.52","0.936","4.02","0.62","0.32","29.6376","4.67781","27.63","0","SATNPRO1962","23.162","0.3244","5"],
    [30217,"HCEP03730560","2024-08-08 01:15:00","10.5227","3.32335","25.547","2.58","7.53","0.629","3.597","0.12","0.14","29.6377","4.67777","27.95","0","SATNPRO1962","23.282","0.3261","5"],
    [30218,"HCEP03730560","2024-08-08 01:30:00","10.5233","3.32156","25.573","2.592","7.53","0.801","3.566","0.18","0.08","29.6197","4.6752","28.07","0","SATNPRO1962","23.268","0.3259","5"],
    [30219,"HCEP03730560","2024-08-08 01:45:00","10.5216","3.32345","25.61","2.588","7.53","0.797","3.499","0.58","0.22","29.6396","4.67807","28.03","0","SATNPRO1962","23.19","0.32484","5"],
    [30220,"HCEP03730560","2024-08-08 02:00:00","10.5201","3.32399","25.656","2.577","7.52","0.71","3.391","0.12","0.21","29.6461","4.67903","27.91","0","SATNPRO1962","23.172","0.32454","5"],
    [30221,"HCEP03730560","2024-08-08 02:15:00","10.5191","3.3246","25.72","2.537","7.52","0.709","3.629","0.14","0.15","29.653","4.68002","27.48","0","SATNPRO1962","23.034","0.32258","5"],
    [30222,"HCEP03730560","2024-08-08 02:30:00","10.519","3.32461","25.798","2.536","7.52","0.747","3.909","0.32","0.36","29.6532","4.68005","27.46","0","SATNPRO1962","22.962","0.32162","5"],
    [30223,"HCEP03730560","2024-08-08 02:45:00","10.5186","3.32459","25.875","2.533","7.52","0.84","4.032","0.36","0.36","29.6532","4.68007","27.44","0","SATNPRO1962","22.982","0.3219","5"],
    [30224,"HCEP03730560","2024-08-08 03:00:00","10.5173","3.32456","25.962","2.525","7.52","0.956","4.32","0.6","0.21","29.6539","4.6802","27.35","0","SATNPRO1962","22.962","0.32166","5"],
    [30225,"HCEP03730560","2024-08-08 03:15:00","10.5186","3.3232","26.052","2.547","7.52","0.862","4.059","0.44","0.37","29.6394","4.67811","27.58","0","SATNPRO1962","23.176000000000002","0.3246","5"],
    [30226,"HCEP03730560","2024-08-08 03:30:00","10.5138","3.276","26.145","2.548","7.52","0.767","4.657","0.12","0.39","29.1773","4.61229","27.51","0","SATNPRO1962","22.988","0.32204","5"],
    [30227,"HCEP03730560","2024-08-08 03:45:00","10.5155","3.25717","26.244","2.544","7.52","0.823","3.874","0.14","0.24","28.9904","4.58556","27.44","0","SATNPRO1962","23.256","0.32574","5"],
    [30228,"HCEP03730560","2024-08-08 04:00:00","10.5126","3.28577","26.319","2.488","7.52","0.817","4.514","0.13","0.28","29.2746","4.6262","26.88","0","SATNPRO1962","23.094","0.32348","5"],
    [30229,"HCEP03730560","2024-08-08 04:15:00","10.516","3.32452","26.415","2.507","7.52","0.919","4.423","0.28","0.27","29.6544","4.68031","27.15","0","SATNPRO1962","23.05","0.32286","5"],
    [30230,"HCEP03730560","2024-08-08 04:30:00","10.516","3.32336","26.472","2.538","7.52","1.103","4.872","0.92","1.04","29.643","4.67869","27.49","0","SATNPRO1962","23.136","0.32404","5"],
    [30231,"HCEP03730560","2024-08-08 04:45:00","10.5224","3.32487","26.568","2.551","7.52","0.973","4.622","0.36","0.75","29.6526","4.67996","27.63","0","SATNPRO1962","23.253999999999998","0.3257","5"],
    [30232,"HCEP03730560","2024-08-08 05:00:00","10.5454","3.32486","26.639","2.679","7.54","0.913","3.749","0.2","0.22","29.6338","4.67692","29.02","0","SATNPRO1962","24.14","0.3381","5"],
    [30233,"HCEP03730560","2024-08-08 05:15:00","10.5309","3.32499","26.694","2.758","7.54","1.161","4.279","0.55","0.49","29.6468","4.67901","29.88","0","SATNPRO1962","23.332","0.32682","5"],
    [30234,"HCEP03730560","2024-08-08 05:30:00","10.5259","3.32505","26.741","2.664","7.53","1.081","5.296","0.22","0.5","29.6514","4.67974","28.86","0","SATNPRO1962","23.014","0.32234","5"],
    [30235,"HCEP03730560","2024-08-08 05:45:00","10.5353","3.32513","26.827","2.619","7.53","0.955","4.353","0.13","0.51","29.6446","4.67863","28.38","0","SATNPRO1962","23.422","0.32806","5"],
    [30236,"HCEP03730560","2024-08-08 06:00:00","10.5364","3.32526","26.91","2.648","7.53","1.065","4.15","0.19","0.36","29.6449","4.67866","28.69","0","SATNPRO1962","23.45","0.32844","5"],
    [30237,"HCEP03730560","2024-08-08 06:15:00","10.5371","3.32527","26.977","2.611","7.53","1.221","5.554","0.32","1.64","29.6445","4.67859","28.29","0","SATNPRO1962","23.236","0.32544","5"],
    [30238,"HCEP03730560","2024-08-08 06:30:00","10.5397","3.32529","27.007","2.574","7.52","1.196","5.022","0.2","0.33","29.6425","4.67826","27.88","0","SATNPRO1962","23.189999999999998","0.32484","5"],
    [30239,"HCEP03730560","2024-08-08 06:45:00","10.5401","3.32533","27.029","2.542","7.52","1.243","5.366","0.25","0.57","29.6426","4.67828","27.54","0","SATNPRO1962","22.892","0.32068","5"],
    [30240,"HCEP03730560","2024-08-08 07:00:00","10.5426","3.32553","27.029","2.514","7.52","1.563","4.922","1.18","0.29","29.6425","4.67823","27.24","0","SATNPRO1962","22.964","0.32164","5"],
    [30241,"HCEP03730560","2024-08-08 07:15:00","10.5496","3.32592","27.011","2.536","7.52","1.062","4.488","0.35","0.53","29.6407","4.67785","27.48","0","SATNPRO1962","23.15","0.32428","5"],
    [30242,"HCEP03730560","2024-08-08 07:30:00","10.5557","3.32624","27.039","2.609","7.53","1.469","3.921","0.97","0.2","29.6389","4.67751","28.28","0","SATNPRO1962","23.426000000000002","0.32808","5"],
    [30243,"HCEP03730560","2024-08-08 07:45:00","10.5585","3.32637","26.919","2.665","7.53","1.077","5","0.19","1.39","29.6379","4.67732","28.89","0","SATNPRO1962","23.686","0.33174","5"],
    [30244,"HCEP03730560","2024-08-08 08:00:00","10.5623","3.32642","26.849","2.658","7.53","1.084","3.89","0.29","0.13","29.6354","4.67689","28.81","0","SATNPRO1962","22.868000000000002","0.32032","5"],
    [30245,"HCEP03730560","2024-08-08 08:15:00","10.569","3.32677","26.774","2.556","7.52","1.05","4.335","0.21","0.53","29.6334","4.67649","27.71","0","SATNPRO1962","22.806","0.31946","5"],
    [30246,"HCEP03730560","2024-08-08 08:30:00","10.5799","3.32712","26.684","2.501","7.52","1.128","5.656","0.23","2.71","29.6281","4.67556","27.12","0","SATNPRO1962","22.738","0.3185","5"],
    [30247,"HCEP03730560","2024-08-08 08:45:00","10.5784","3.32733","26.571","2.474","7.52","0.95","3.956","0.18","0.17","29.6314","4.67605","26.83","0","SATNPRO1962","22.804","0.31936","5"],
    [30248,"HCEP03730560","2024-08-08 09:00:00","10.5783","3.32735","26.453","2.439","7.51","1.24","7.395","0.29","2.56","29.6317","4.67609","26.45","0","SATNPRO1962","22.686","0.31774","5"],
    [30249,"HCEP03730560","2024-08-08 09:15:00","10.575","3.32714","26.315","2.424","7.51","1.34","5.166","0.43","1.35","29.6324","4.67623","26.28","0","SATNPRO1962","22.605999999999998","0.31662","5"],
    [30250,"HCEP03730560","2024-08-08 09:30:00","10.5746","3.32718","26.191","2.446","7.51","1.012","4.033","0.21","0.23","29.6332","4.67634","26.52","0","SATNPRO1962","22.86","0.32022","5"],
    [30251,"HCEP03730560","2024-08-08 09:45:00","10.583","3.32784","26.05","2.491","7.52","1.306","3.611","0.91","0.23","29.6329","4.67616","27.02","0","SATNPRO1962","22.974","0.32178","5"],
    [30252,"HCEP03730560","2024-08-08 10:00:00","10.578","3.32747","25.899","2.539","7.52","1.146","4.087","0.4","0.45","29.6333","4.67629","27.53","0","SATNPRO1962","23.188","0.32476","5"],
    [30253,"HCEP03730560","2024-08-08 10:15:00","10.5778","3.32749","25.75","2.582","7.52","1.071","3.546","0.33","0.17","29.6338","4.67636","28","0","SATNPRO1962","23.278","0.32604","5"],
    [30254,"HCEP03730560","2024-08-08 10:30:00","10.5936","3.32694","25.604","2.878","7.56","1.651","1.767","0.55","0.22","29.6156","4.67351","31.21","0","SATNPRO1962","25.106","0.35166","5"],
    [30255,"HCEP03730560","2024-08-08 10:45:00","10.5695","3.32689","25.456","3.056","7.55","1.201","3.122","0.2","0.16","29.6348","4.67662","33.14","0","SATNPRO1962","23.954","0.33554","5"],
    [30256,"HCEP03730560","2024-08-08 11:00:00","10.5611","3.3266","25.333","2.848","7.54","1.148","3.802","0.22","0.12","29.6388","4.67731","30.87","0","SATNPRO1962","23.566","0.33006","5"],
    [30257,"HCEP03730560","2024-08-08 11:15:00","10.558","3.32642","25.168","2.736","7.54","1.205","4.122","0.31","0.35","29.6395","4.67745","29.65","0","SATNPRO1962","23.294","0.32628","5"],
    [30258,"HCEP03730560","2024-08-08 11:30:00","10.5566","3.32642","25.045","2.717","7.54","1.285","4.077","0.18","0.17","29.6408","4.67764","29.45","0","SATNPRO1962","23.594","0.33046","5"],
    [30259,"HCEP03730560","2024-08-08 11:45:00","10.5548","3.32639","24.921","2.745","7.54","1.471","4.075","0.57","0.27","29.6419","4.67783","29.75","0","SATNPRO1962","23.73","0.33236","5"],
    [30260,"HCEP03730560","2024-08-08 12:00:00","10.5507","3.32627","24.827","2.797","7.55","1.156","3.708","0.17","0.3","29.6441","4.67821","30.31","0","SATNPRO1962","23.884","0.33452","5"],
    [30261,"HCEP03730560","2024-08-08 12:15:00","10.548400000000001","3.32621","24.769","2.818","7.54","1.239","3.84","0.27","0.27","29.6455","4.67843","30.53","0","SATNPRO1962","23.874000000000002","0.33436","5"],
    [30262,"HCEP03730560","2024-08-08 12:30:00","10.5477","3.32626","24.713","2.796","7.54","1.091","4.095","0.18","0.43","29.6465","4.67859","30.3","0","SATNPRO1962","23.858","0.33418","5"],
    [30263,"HCEP03730560","2024-08-08 12:45:00","10.5525","3.32663","24.704","2.859","7.56","1.302","2.862","0.54","0.29","29.6463","4.67848","30.98","0","SATNPRO1962","24.786","0.34718","5"],
    [30264,"HCEP03730560","2024-08-08 13:00:00","10.5457","3.3264","24.709","2.932","7.55","1.069","3.839","0.15","0.19","29.6495","4.67904","31.78","0","SATNPRO1962","23.976","0.33586","5"],
    [30265,"HCEP03730560","2024-08-08 13:15:00","10.5457","3.32648","24.739","2.829","7.55","1.156","3.966","0.14","0.2","29.6503","4.67916","30.66","0","SATNPRO1962","23.906","0.33484","5"],
    [30266,"HCEP03730560","2024-08-08 13:30:00","10.5451","3.32662","24.764","2.82","7.55","1.298","3.773","0.35","0.32","29.6522","4.67943","30.56","0","SATNPRO1962","23.875999999999998","0.33442","5"],
    [30267,"HCEP03730560","2024-08-08 13:45:00","10.5457","3.3267","24.844","2.83","7.55","1.126","3.678","0.19","0.14","29.6525","4.67947","30.67","0","SATNPRO1962","24.04","0.3367","5"],
    [30268,"HCEP03730560","2024-08-08 14:00:00","10.5462","3.32662","24.914","2.827","7.55","1.075","3.798","0.17","0.21","29.6512","4.67929","30.64","0","SATNPRO1962","23.934","0.33524","5"],
    [30269,"HCEP03730560","2024-08-08 14:15:00","10.5498","3.32664","25.031","2.803","7.54","1.197","4.333","0.27","0.26","29.6484","4.67884","30.38","0","SATNPRO1962","23.826","0.33372","5"],
    [30270,"HCEP03730560","2024-08-08 14:30:00","10.5515","3.32671","25.154","2.767","7.54","1.105","4.379","0.18","0.24","29.6476","4.67871","29.98","0","SATNPRO1962","23.742","0.33256","5"],
    [30271,"HCEP03730560","2024-08-08 14:45:00","10.5559","3.32699","25.288","2.73","7.54","1.132","4.023","0.1","0.22","29.6468","4.67853","29.59","0","SATNPRO1962","23.526","0.3295","5"],
    [30272,"HCEP03730560","2024-08-08 15:00:00","10.5587","3.32706","25.437","2.719","7.54","1.279","4.438","0.36","0.33","29.6452","4.67827","29.47","0","SATNPRO1962","23.456","0.32854","5"],
    [30273,"HCEP03730560","2024-08-08 15:15:00","10.5631","3.32709","25.565","2.675","7.54","1.264","4.187","0.22","0.97","29.6419","4.67773","28.99","0","SATNPRO1962","23.426000000000002","0.32814","5"],
    [30274,"HCEP03730560","2024-08-08 15:30:00","10.5681","3.32687","25.696","2.765","7.55","1.282","3.61","0.27","0.31","29.6355","4.67675","29.97","0","SATNPRO1962","24.938","0.34926","5"],
    [30275,"HCEP03730560","2024-08-08 15:45:00","10.5745","3.32653","25.784","3.068","7.57","1.601","1.63","0.4","0.19","29.627","4.67544","33.27","0","SATNPRO1962","25.688","0.3598","5"],
    [30276,"HCEP03730560","2024-08-08 16:00:00","10.5754","3.32605","25.933","3.309","7.59","1.498","1.545","0.31","0.55","29.6215","4.67465","35.87","0","SATNPRO1962","25.622","0.3589","5"],
    [30277,"HCEP03730560","2024-08-08 16:15:00","10.5919","3.32656","26.103","3.469","7.6","1.61","1.091","0.24","0.12","29.6131","4.67321","37.62","0","SATNPRO1962","25.906","0.36284","5"],
    [30278,"HCEP03730560","2024-08-08 16:30:00","10.6302","3.33065","26.267","3.228","7.57","1.35","3.796","0.26","0.27","29.6223","4.67392","35.03","0","SATNPRO1962","23.824","0.33372","5"],
    [30279,"HCEP03730560","2024-08-08 16:45:00","10.6178","3.3312","26.423","2.805","7.54","1.324","4.617","0.18","0.22","29.6376","4.67631","30.44","0","SATNPRO1962","22.486","0.31492","5"],
    [30280,"HCEP03730560","2024-08-08 17:00:00","10.6184","3.33112","26.758","2.355","7.51","1.377","4.973","0.26","0.25","29.6362","4.67612","25.55","0","SATNPRO1962","22.605999999999998","0.31664","5"],
    [30281,"HCEP03730560","2024-08-08 17:15:00","10.6363","3.33253","26.842","2.193","7.5","1.442","5.119","0.23","0.26","29.6356","4.67575","23.81","0","SATNPRO1962","22.163999999999998","0.3104","5"],
    [30282,"HCEP03730560","2024-08-08 17:30:00","10.6511","3.33384","26.982","2.134","7.5","1.5","5.631","0.16","0.46","29.6364","4.67564","23.18","0","SATNPRO1962","21.852","0.30606","5"],
    [30283,"HCEP03730560","2024-08-08 17:45:00","10.6752","3.33613","27.193","2.25","7.51","1.763","5.351","0.21","0.41","29.6394","4.6757","24.44","0","SATNPRO1962","22.81","0.31948","5"],
    [30284,"HCEP03730560","2024-08-08 18:00:00","10.6843","3.33708","27.332","2.477","7.52","1.971","5.36","0.28","0.28","29.6413","4.67584","26.92","0","SATNPRO1962","23.108","0.32366","5"],
    [30285,"HCEP03730560","2024-08-08 18:15:00","10.6783","3.33674","27.435","2.598","7.53","1.821","5.524","0.18","1.36","29.6428","4.67615","28.23","0","SATNPRO1962","23.43","0.32818","5"],
    [30286,"HCEP03730560","2024-08-08 18:30:00","10.6599","3.33495","27.575","2.497","7.52","1.647","5.317","0.15","0.22","29.6401","4.67606","27.13","0","SATNPRO1962","22.742","0.31858","5"],
    [30287,"HCEP03730560","2024-08-08 18:45:00","10.6397","3.33332","27.672","2.337","7.51","1.351","4.891","0.16","0.25","29.6403","4.67642","25.38","0","SATNPRO1962","22.218","0.31118","5"],
    [30288,"HCEP03730560","2024-08-08 19:00:00","10.6053","3.33042","27.705","2.278","7.5","1.224","4.77","0.18","0.32","29.6397","4.67687","24.71","0","SATNPRO1962","22.794","0.31922","5"],
    [30289,"HCEP03730560","2024-08-08 19:15:00","10.5662","3.3283","27.688","2.348","7.51","1.129","4.601","0.11","0.63","29.6505","4.67902","25.46","0","SATNPRO1962","23.472","0.3288","5"],
    [30290,"HCEP03730560","2024-08-08 19:30:00","10.5761","3.32879","27.703","2.421","7.51","1.152","4.241","0.18","0.34","29.6472","4.6784","26.25","0","SATNPRO1962","23.148","0.3242","5"],
    [30291,"HCEP03730560","2024-08-08 19:45:00","10.5862","3.32954","27.681","2.382","7.51","1.089","3.974","0.18","0.2","29.6465","4.67814","25.83","0","SATNPRO1962","22.95","0.32144","5"],
    [30292,"HCEP03730560","2024-08-08 20:00:00","10.5898","3.32982","27.655","2.333","7.51","1.091","4.101","0.11","0.38","29.6463","4.67806","25.3","0","SATNPRO1962","22.732","0.3184","5"],
    [30293,"HCEP03730560","2024-08-08 20:15:00","10.5922","3.33012","27.616","2.323","7.5","0.889","3.815","0.17","0.2","29.6473","4.67815","25.2","0","SATNPRO1962","22.736","0.31846","5"],
    [30294,"HCEP03730560","2024-08-08 20:30:00","10.5811","3.32953","27.6","2.351","7.51","0.927","3.67","0.22","0.14","29.6505","4.67879","25.5","0","SATNPRO1962","22.768","0.3189","5"],
    [30295,"HCEP03730560","2024-08-08 20:45:00","10.5776","3.32967","27.544","2.422","7.51","1.055","3.8","0.28","0.26","29.6548","4.67944","26.27","0","SATNPRO1962","23.188","0.32482","5"],
    [30296,"HCEP03730560","2024-08-08 21:00:00","10.5809","3.33027","27.457","2.495","7.52","1.033","4.07","0.39","1.58","29.6581","4.67986","27.05","0","SATNPRO1962","23.542","0.32972","5"],
    [30297,"HCEP03730560","2024-08-08 21:15:00","10.615","3.33302","27.364","2.567","7.53","1.154","3.706","0.58","1.65","29.6575","4.67923","27.86","0","SATNPRO1962","23.456","0.32852","5"],
    [30298,"HCEP03730560","2024-08-08 21:30:00","10.6259","3.33337","27.29","2.605","7.53","1.279","2.941","0.57","0.34","29.6521","4.67829","28.28","0","SATNPRO1962","23.419999999999998","0.32804","5"],
    [30299,"HCEP03730560","2024-08-08 21:45:00","10.5706","3.3295","27.2","2.637","7.53","1.175","3.653","0.19","0.2","29.6589","4.68012","28.6","0","SATNPRO1962","24.144","0.33822","5"],
    [30300,"HCEP03730560","2024-08-08 22:00:00","10.5713","3.32945","27.092","2.719","7.54","1.233","3.148","0.28","0.13","29.6579","4.67997","29.48","0","SATNPRO1962","24.674","0.3456","5"],
    [30301,"HCEP03730560","2024-08-08 22:15:00","10.5668","3.32883","26.988","2.713","7.53","1.271","3.49","0.3","0.21","29.6554","4.67968","29.42","0","SATNPRO1962","24.008","0.3363","5"],
    [30302,"HCEP03730560","2024-08-08 22:30:00","10.5662","3.3282","26.901","2.619","7.53","1.035","3.498","0.27","0.27","29.6498","4.67888","28.39","0","SATNPRO1962","23.72","0.3322","5"],
    [30303,"HCEP03730560","2024-08-08 22:45:00","10.5627","3.32772","26.778","2.655","7.53","0.998","3.415","0.18","0.14","29.6479","4.67866","28.79","0","SATNPRO1962","23.965999999999998","0.33568","5"],
    [30304,"HCEP03730560","2024-08-08 23:00:00","10.5605","3.32729","26.649","2.654","7.53","1.063","3.827","0.36","0.33","29.6454","4.67834","28.76","0","SATNPRO1962","24.212","0.33916","5"],
    [30305,"HCEP03730560","2024-08-08 23:15:00","10.5554","3.32688","26.492","2.669","7.53","1.048","4.04","0.17","0.4","29.6456","4.67844","28.93","0","SATNPRO1962","23.778","0.33306","5"],
    [30306,"HCEP03730560","2024-08-08 23:30:00","10.5528","3.32657","26.337","2.648","7.53","0.912","4.131","0.13","0.33","29.6448","4.67835","28.7","0","SATNPRO1962","23.855999999999998","0.33412","5"],
    [30307,"HCEP03730560","2024-08-08 23:45:00","10.5534","3.3265","26.171","2.649","7.53","0.988","3.881","0.14","0.19","29.6437","4.67818","28.72","0","SATNPRO1962","24.014","0.33636","5"],
    [30308,"HCEP03730560","2024-08-09 00:00:00","10.554","3.32647","25.965","2.653","7.53","0.919","3.915","0.19","0.26","29.6429","4.67804","28.75","0","SATNPRO1962","23.846","0.33402","5"],
    [30309,"HCEP03730560","2024-08-09 00:15:00","10.5543","3.32638","25.834","2.654","7.53","0.922","3.779","0.13","0.4","29.6419","4.67789","28.76","0","SATNPRO1962","23.924","0.33506","5"],
    [30310,"HCEP03730560","2024-08-09 00:30:00","10.5504","3.32639","25.652","2.645","7.53","0.965","3.937","0.18","0.18","29.6453","4.67842","28.66","0","SATNPRO1962","24.038","0.3367","5"],
    [30311,"HCEP03730560","2024-08-09 00:45:00","10.5546","3.32644","25.523","2.669","7.53","0.927","3.859","0.2","0.3","29.6424","4.67793","28.93","0","SATNPRO1962","24.032","0.33658","5"],
    [30312,"HCEP03730560","2024-08-09 01:00:00","10.5504","3.32644","25.439","2.691","7.53","0.87","3.701","0.18","0.17","29.6458","4.67848","29.16","0","SATNPRO1962","24.068","0.3371","5"],
    [30313,"HCEP03730560","2024-08-09 01:15:00","10.5493","3.32641","25.382","2.67","7.53","1.031","3.69","0.22","0.2","29.6464","4.67858","28.94","0","SATNPRO1962","24.068","0.3371","5"],
    [30314,"HCEP03730560","2024-08-09 01:30:00","10.5485","3.32637","25.346","2.651","7.53","0.963","4.184","0.33","1.03","29.6468","4.67865","28.73","0","SATNPRO1962","23.924","0.33514","5"],
    [30315,"HCEP03730560","2024-08-09 01:45:00","10.547","3.32635","25.335","2.631","7.53","0.771","3.386","0.19","0.1","29.6477","4.6788","28.52","0","SATNPRO1962","23.637999999999998","0.33108","5"],
    [30316,"HCEP03730560","2024-08-09 02:00:00","10.5455","3.32636","25.348","2.608","7.53","0.892","3.548","0.68","0.23","29.649","4.67901","28.27","0","SATNPRO1962","23.59","0.33046","5"],
    [30317,"HCEP03730560","2024-08-09 02:15:00","10.5454","3.3263","25.38","2.592","7.53","0.76","3.505","0.21","0.21","29.6485","4.67894","28.09","0","SATNPRO1962","23.722","0.33228","5"],
    [30318,"HCEP03730560","2024-08-09 02:30:00","10.5433","3.32638","25.42","2.573","7.53","0.636","3.629","0.1","0.17","29.6509","4.67932","27.88","0","SATNPRO1962","23.868000000000002","0.3343","5"],
    [30319,"HCEP03730560","2024-08-09 02:45:00","10.543","3.3263","25.44","2.56","7.53","0.784","3.47","0.22","0.22","29.6505","4.67927","27.75","0","SATNPRO1962","23.676","0.33162","5"],
    [30320,"HCEP03730560","2024-08-09 03:00:00","10.542","3.3263","25.497","2.553","7.53","0.797","3.346","0.24","0.13","29.6512","4.67939","27.67","0","SATNPRO1962","23.626","0.33092","5"],
    [30321,"HCEP03730560","2024-08-09 03:15:00","10.5404","3.3263","25.561","2.538","7.52","0.598","3.449","0.1","0.09","29.6525","4.6796","27.51","0","SATNPRO1962","23.59","0.33042","5"],
    [30322,"HCEP03730560","2024-08-09 03:30:00","10.5402","3.3263","25.649","2.528","7.52","0.816","3.583","0.16","0.24","29.6526","4.67963","27.39","0","SATNPRO1962","23.528","0.32954","5"],
    [30323,"HCEP03730560","2024-08-09 03:45:00","10.5406","3.32641","25.753","2.529","7.52","1.238","3.631","0.87","0.24","29.6533","4.67973","27.4","0","SATNPRO1962","23.376","0.32742","5"],
    [30324,"HCEP03730560","2024-08-09 04:00:00","10.5418","3.32647","25.853","2.539","7.52","0.676","3.884","0.15","0.25","29.653","4.67966","27.52","0","SATNPRO1962","23.58","0.3303","5"],
    [30325,"HCEP03730560","2024-08-09 04:15:00","10.5423","3.32653","25.916","2.553","7.52","0.814","3.622","0.12","0.13","29.6531","4.67969","27.67","0","SATNPRO1962","23.512","0.32934","5"],
    [30326,"HCEP03730560","2024-08-09 04:30:00","10.5439","3.32653","25.989","2.578","7.53","0.711","3.44","0.13","0.12","29.6517","4.67946","27.94","0","SATNPRO1962","23.54","0.32968","5"],
    [30327,"HCEP03730560","2024-08-09 04:45:00","10.5485","3.32646","26.075","2.623","7.53","0.769","3.385","0.13","0.11","29.6473","4.67877","28.42","0","SATNPRO1962","23.704","0.332","5"],
    [30328,"HCEP03730560","2024-08-09 05:00:00","10.5492","3.32653","26.161","2.659","7.53","0.808","3.436","0.16","0.21","29.6474","4.67876","28.82","0","SATNPRO1962","23.913999999999998","0.33496","5"],
    [30329,"HCEP03730560","2024-08-09 05:15:00","10.5451","3.32665","26.301","2.621","7.53","0.861","3.534","0.17","0.11","29.6519","4.67949","28.4","0","SATNPRO1962","23.462","0.32862","5"],
    [30330,"HCEP03730560","2024-08-09 05:30:00","10.545","3.32675","26.396","2.551","7.52","0.999","4.477","0.16","0.24","29.6529","4.67964","27.64","0","SATNPRO1962","23.29","0.3262","5"],
    [30331,"HCEP03730560","2024-08-09 05:45:00","10.5552","3.32664","26.455","2.569","7.53","0.933","2.89","0.29","0.3","29.6435","4.67813","27.84","0","SATNPRO1962","23.868","0.33432","5"],
    [30332,"HCEP03730560","2024-08-09 06:00:00","10.5753","3.32691","26.539","2.634","7.53","1.227","2.824","0.24","0.09","29.6298","4.67587","28.55","0","SATNPRO1962","23.716","0.3322","5"],
    [30333,"HCEP03730560","2024-08-09 06:15:00","10.5758","3.32688","26.606","2.651","7.53","1.285","2.783","0.18","0.1","29.6291","4.67577","28.74","0","SATNPRO1962","23.702","0.332","5"],
    [30334,"HCEP03730560","2024-08-09 06:30:00","10.5621","3.3269","26.691","2.625","7.53","1.117","3.08","0.26","0.23","29.6404","4.67759","28.45","0","SATNPRO1962","23.61","0.33072","5"],
    [30335,"HCEP03730560","2024-08-09 06:45:00","10.5597","3.32767","26.766","2.606","7.53","1.2","3.307","0.22","0.16","29.6498","4.67898","28.25","0","SATNPRO1962","23.622","0.33084","5"],
    [30336,"HCEP03730560","2024-08-09 07:00:00","10.5582","3.32847","26.827","2.581","7.53","1.196","4.569","0.18","0.22","29.659","4.68031","27.98","0","SATNPRO1962","23.57","0.33012","5"],
    [30337,"HCEP03730560","2024-08-09 07:15:00","10.5583","3.32867","26.856","2.554","7.52","1.337","4.399","0.28","0.17","29.6608","4.68057","27.68","0","SATNPRO1962","23.39","0.3276","5"],
    [30338,"HCEP03730560","2024-08-09 07:30:00","10.5592","3.3288","26.958","2.548","7.53","1.226","4.24","0.21","0.26","29.6614","4.68065","27.62","0","SATNPRO1962","23.396","0.3277","5"],
    [30339,"HCEP03730560","2024-08-09 07:45:00","10.5588","3.3287","26.953","2.541","7.52","1.115","4.141","0.17","0.13","29.6607","4.68055","27.54","0","SATNPRO1962","23.314","0.32654","5"],
    [30340,"HCEP03730560","2024-08-09 08:00:00","10.5604","3.32871","26.868","2.53","7.52","1.3","4.236","0.47","0.8","29.6596","4.68037","27.43","0","SATNPRO1962","23.252","0.32564","5"],
    [30341,"HCEP03730560","2024-08-09 08:15:00","10.5592","3.32864","26.839","2.527","7.52","1.16","3.961","0.23","0.15","29.6599","4.68043","27.4","0","SATNPRO1962","23.144000000000002","0.32416","5"],
    [30342,"HCEP03730560","2024-08-09 08:30:00","10.5597","3.32874","26.807","2.529","7.52","1.139","3.958","0.21","0.2","29.6604","4.6805","27.42","0","SATNPRO1962","23.208","0.32508","5"],
    [30343,"HCEP03730560","2024-08-09 08:45:00","10.5602","3.32883","26.769","2.557","7.53","1.12","3.714","0.2","0.3","29.661","4.68056","27.72","0","SATNPRO1962","23.506","0.32924","5"],
    [30344,"HCEP03730560","2024-08-09 09:00:00","10.5583","3.32856","26.686","2.572","7.53","1.437","3.854","0.59","0.22","29.6598","4.68042","27.88","0","SATNPRO1962","23.362000000000002","0.32724","5"],
    [30345,"HCEP03730560","2024-08-09 09:15:00","10.556","3.32818","26.618","2.554","7.52","1.155","3.881","0.28","0.2","29.6579","4.68019","27.68","0","SATNPRO1962","23.4","0.3277","5"],
    [30346,"HCEP03730560","2024-08-09 09:30:00","10.5526","3.3275","26.532","2.525","7.52","1.027","3.871","0.22","0.22","29.654","4.67968","27.37","0","SATNPRO1962","23.21","0.32506","5"],
    [30347,"HCEP03730560","2024-08-09 09:45:00","10.5523","3.32732","26.436","2.498","7.52","1.069","3.662","0.18","0.22","29.6525","4.67946","27.07","0","SATNPRO1962","23.154","0.3243","5"],
    [30348,"HCEP03730560","2024-08-09 10:00:00","10.5623","3.32798","26.323","2.525","7.52","1.011","3.486","0.18","0.24","29.651","4.67908","27.37","0","SATNPRO1962","23.384","0.32758","5"],
    [30349,"HCEP03730560","2024-08-09 10:15:00","10.5992","3.32947","26.217","2.556","7.52","1.072","2.941","0.22","0.22","29.6359","4.67634","27.73","0","SATNPRO1962","23.244","0.32556","5"],
    [30350,"HCEP03730560","2024-08-09 10:30:00","10.5888","3.32848","26.116","2.564","7.52","1.071","2.483","0.19","0.13","29.6345","4.6763","27.81","0","SATNPRO1962","23.34","0.32692","5"],
    [30351,"HCEP03730560","2024-08-09 10:45:00","10.5907","3.32839","26.018","2.57","7.52","1.024","2.365","0.24","0.13","29.6322","4.67594","27.87","0","SATNPRO1962","23.406","0.32782","5"],
    [30352,"HCEP03730560","2024-08-09 11:00:00","10.6071","3.32995","25.894","2.544","7.52","1.166","2.424","0.33","0.12","29.6343","4.67597","27.61","0","SATNPRO1962","23.282","0.32612","5"],
    [30353,"HCEP03730560","2024-08-09 11:15:00","10.5929","3.32874","25.783","2.539","7.52","1.249","2.443","0.41","0.12","29.6339","4.67613","27.54","0","SATNPRO1962","23.198","0.32494","5"],
    [30354,"HCEP03730560","2024-08-09 11:30:00","10.5932","3.32857","25.655","2.546","7.52","1.154","2.64","0.23","0.17","29.632","4.67586","27.61","0","SATNPRO1962","23.264","0.32582","5"],
    [30355,"HCEP03730560","2024-08-09 11:45:00","10.5786","3.32781","25.559","2.528","7.52","1.089","3.305","0.17","0.24","29.6364","4.6767","27.41","0","SATNPRO1962","23.168","0.32448","5"],
    [30356,"HCEP03730560","2024-08-09 12:00:00","10.5976","3.32909","25.446","2.521","7.52","1.086","2.516","0.19","0.13","29.6336","4.676","27.35","0","SATNPRO1962","23.022000000000002","0.32246","5"],
    [30357,"HCEP03730560","2024-08-09 12:15:00","10.5815","3.32818","25.329","2.515","7.52","1.012","2.697","0.19","0.14","29.6378","4.67684","27.27","0","SATNPRO1962","23.236","0.32544","5"],
    [30358,"HCEP03730560","2024-08-09 12:30:00","10.5514","3.32709","25.23","2.427","7.51","1.229","4.348","0.28","0.18","29.6516","4.67927","26.31","0","SATNPRO1962","22.706","0.31802","5"],
    [30359,"HCEP03730560","2024-08-09 12:45:00","10.5514","3.3273","25.173","2.316","7.51","1.258","4.375","0.15","0.09","29.6536","4.67956","25.1","0","SATNPRO1962","22.642","0.31712","5"],
    [30360,"HCEP03730560","2024-08-09 13:00:00","10.552","3.32738","25.106","2.301","7.5","1.163","4.354","0.19","0.25","29.654","4.6796","24.94","0","SATNPRO1962","22.69","0.31776","5"],
    [30361,"HCEP03730560","2024-08-09 13:15:00","10.5536","3.32771","25.072","2.31","7.5","1.172","4.177","0.24","0.19","29.6559","4.67984","25.04","0","SATNPRO1962","22.916","0.321","5"],
    [30362,"HCEP03730560","2024-08-09 13:30:00","10.5655","3.32794","25.073","2.36","7.51","1.031","3.504","0.26","0.13","29.6485","4.67861","25.59","0","SATNPRO1962","22.956","0.32154","5"],
    [30363,"HCEP03730560","2024-08-09 13:45:00","10.5591","3.32777","25.074","2.407","7.51","1.116","3.889","0.16","0.14","29.652","4.6792","26.09","0","SATNPRO1962","22.86","0.32018","5"],
    [30364,"HCEP03730560","2024-08-09 14:00:00","10.5569","3.32798","25.107","2.354","7.5","1.075","4.205","0.16","0.12","29.6559","4.67979","25.52","0","SATNPRO1962","22.97","0.32172","5"],
    [30365,"HCEP03730560","2024-08-09 14:15:00","10.5599","3.32802","25.161","2.318","7.5","1.142","4.278","0.13","0.26","29.6538","4.67945","25.12","0","SATNPRO1962","22.75","0.31868","5"],
    [30366,"HCEP03730560","2024-08-09 14:30:00","10.5609","3.32814","25.241","2.314","7.5","1.111","4.687","0.11","0.17","29.6542","4.6795","25.09","0","SATNPRO1962","22.662","0.31742","5"],
    [30367,"HCEP03730560","2024-08-09 14:45:00","10.5688","3.32856","25.3","2.311","7.5","1.183","4.31","0.22","0.4","29.6519","4.67904","25.06","0","SATNPRO1962","22.796","0.31926","5"],
    [30368,"HCEP03730560","2024-08-09 15:00:00","10.5667","3.32847","25.407","2.288","7.5","1.215","4.178","0.16","0.21","29.6527","4.6792","24.81","0","SATNPRO1962","22.962","0.32162","5"],
    [30369,"HCEP03730560","2024-08-09 15:15:00","10.5866","3.3296","25.502","2.35","7.51","1.148","3.961","0.2","0.15","29.6476","4.67817","25.49","0","SATNPRO1962","22.902","0.32076","5"],
    [30370,"HCEP03730560","2024-08-09 15:30:00","10.59","3.3298","25.603","2.4","7.51","1.108","3.697","0.15","0.14","29.6468","4.67801","26.03","0","SATNPRO1962","23.094","0.32346","5"],
    [30371,"HCEP03730560","2024-08-09 15:45:00","10.6051","3.27956","25.733","2.43","7.51","1.197","2.965","0.18","0.19","29.1397","4.60547","26.28","0","SATNPRO1962","23.284","0.32616","5"],
    [30372,"HCEP03730560","2024-08-09 16:00:00","10.623","3.3326","25.853","2.481","7.52","1.329","4.095","0.6","4.87","29.6475","4.67759","26.94","0","SATNPRO1962","23.25","0.32564","5"],
    [30373,"HCEP03730560","2024-08-09 16:15:00","10.6068","3.33024","26.029","2.491","7.52","1.191","3.423","0.19","0.17","29.6373","4.67642","27.02","0","SATNPRO1962","22.992","0.32206","5"],
    [30374,"HCEP03730560","2024-08-09 16:30:00","10.6017","3.3303","26.143","2.379","7.51","1.066","3.378","0.15","0.12","29.642","4.67717","25.81","0","SATNPRO1962","22.942","0.3214","5"],
    [30375,"HCEP03730560","2024-08-09 16:45:00","10.596","3.32974","26.301","2.32","7.51","1.107","3.552","0.11","0.12","29.6411","4.67713","25.17","0","SATNPRO1962","22.662","0.31742","5"],
    [30376,"HCEP03730560","2024-08-09 17:00:00","10.5861","3.32907","26.457","2.275","7.5","1.256","4.227","0.24","0.17","29.6424","4.67749","24.67","0","SATNPRO1962","22.424","0.31408","5"],
    [30377,"HCEP03730560","2024-08-09 17:15:00","10.5826","3.32884","26.643","2.183","7.49","1.26","4.699","0.2","0.38","29.6428","4.67762","23.68","0","SATNPRO1962","22.204","0.311","5"],
    [30378,"HCEP03730560","2024-08-09 17:30:00","10.5843","3.329","26.75","2.1","7.49","1.09","4.326","0.15","0.26","29.6431","4.67763","22.78","0","SATNPRO1962","22.166","0.31046","5"],
    [30379,"HCEP03730560","2024-08-09 17:45:00","10.5873","3.3292","26.913","2.069","7.48","1.143","4.265","0.13","0.18","29.6425","4.67752","22.44","0","SATNPRO1962","22.164","0.31046","5"],
    [30380,"HCEP03730560","2024-08-09 18:00:00","10.5953","3.32978","27.034","2.084","7.49","1.22","4.255","0.35","0.19","29.6417","4.67727","22.61","0","SATNPRO1962","22.23","0.3114","5"],
    [30381,"HCEP03730560","2024-08-09 18:15:00","10.5938","3.32984","27.165","2.086","7.48","1.255","4.437","0.21","0.18","29.6435","4.67756","22.63","0","SATNPRO1962","22.02","0.30844","5"],
    [30382,"HCEP03730560","2024-08-09 18:30:00","10.5971","3.33011","27.305","2.03","7.48","1.18","4.475","0.18","0.19","29.6434","4.6775","22.02","0","SATNPRO1962","21.944","0.30738","5"],
    [30383,"HCEP03730560","2024-08-09 18:45:00","10.5965","3.33026","27.395","2.002","7.48","1.242","4.605","0.2","0.54","29.6452","4.67778","21.72","0","SATNPRO1962","21.982","0.30788","5"],
    [30384,"HCEP03730560","2024-08-09 19:00:00","10.5952","3.33024","27.497","1.984","7.48","1.256","4.644","0.24","0.17","29.6461","4.67794","21.53","0","SATNPRO1962","21.808","0.30542","5"],
    [30385,"HCEP03730560","2024-08-09 19:15:00","10.5957","3.33046","27.573","1.967","7.47","1.187","4.509","0.19","0.26","29.6478","4.67817","21.34","0","SATNPRO1962","21.884","0.3065","5"],
    [30386,"HCEP03730560","2024-08-09 19:30:00","10.6014","3.33109","27.612","1.978","7.48","1.282","4.49","0.2","0.19","29.6494","4.67831","21.46","0","SATNPRO1962","21.986","0.30796","5"],
    [30387,"HCEP03730560","2024-08-09 19:45:00","10.6065","3.33162","27.658","2.028","7.48","1.333","4.431","0.39","0.33","29.6504","4.67838","22.01","0","SATNPRO1962","22.882","0.32052","5"],
    [30388,"HCEP03730560","2024-08-09 20:00:00","10.6057","3.33178","27.672","2.066","7.48","1.612","4.505","1.02","0.35","29.6527","4.67871","22.42","0","SATNPRO1962","22.174","0.31058","5"],
    [30389,"HCEP03730560","2024-08-09 20:15:00","10.6101","3.33225","27.655","2.099","7.49","1.274","4.068","0.21","0.24","29.6537","4.67879","22.78","0","SATNPRO1962","21.756","0.30474","5"],
    [30390,"HCEP03730560","2024-08-09 20:30:00","10.6049","3.33177","27.64","2.144","7.49","1.37","4.222","0.23","0.17","29.6533","4.6788","23.26","0","SATNPRO1962","22.330000000000002","0.31274","5"],
    [30391,"HCEP03730560","2024-08-09 20:45:00","10.6029","3.33166","27.604","2.13","7.49","1.278","3.952","0.3","0.17","29.6538","4.67892","23.11","0","SATNPRO1962","22.386","0.31356","5"],
    [30392,"HCEP03730560","2024-08-09 21:00:00","10.6058","3.33211","27.553","2.156","7.49","1.19","3.922","0.26","0.21","29.656","4.67917","23.39","0","SATNPRO1962","22.442","0.3143","5"],
    [30393,"HCEP03730560","2024-08-09 21:15:00","10.6023","3.33164","27.488","2.197","7.49","1.281","3.78","0.21","0.15","29.6541","4.67896","23.84","0","SATNPRO1962","22.594","0.31646","5"],
    [30394,"HCEP03730560","2024-08-09 21:30:00","10.6039","3.33192","27.406","2.185","7.49","1.221","3.884","0.28","0.22","29.6557","4.67915","23.71","0","SATNPRO1962","22.604","0.3166","5"],
    [30395,"HCEP03730560","2024-08-09 21:45:00","10.6038","3.33181","27.324","2.199","7.49","1.239","4.033","0.45","0.27","29.6546","4.679","23.86","0","SATNPRO1962","22.644000000000002","0.31718","5"],
    [30396,"HCEP03730560","2024-08-09 22:00:00","10.603","3.33178","27.221","2.193","7.49","1.131","3.764","0.24","0.21","29.655","4.67906","23.79","0","SATNPRO1962","22.686","0.3178","5"],
    [30397,"HCEP03730560","2024-08-09 22:15:00","10.5988","3.33131","27.107","2.196","7.49","1.111","4.036","0.24","0.93","29.6539","4.67896","23.83","0","SATNPRO1962","22.548000000000002","0.31586","5"],
    [30398,"HCEP03730560","2024-08-09 22:30:00","10.5978","3.33144","26.998","2.16","7.49","0.957","3.837","0.14","0.21","29.6561","4.67929","23.43","0","SATNPRO1962","22.51","0.31528","5"],
    [30399,"HCEP03730560","2024-08-09 22:45:00","10.5982","3.33118","26.88","2.18","7.49","1.241","3.761","0.5","0.24","29.6532","4.67886","23.65","0","SATNPRO1962","22.468","0.31472","5"],
    [30400,"HCEP03730560","2024-08-09 23:00:00","10.5964","3.33086","26.75","2.153","7.49","0.959","3.823","0.15","0.17","29.6515","4.67864","23.36","0","SATNPRO1962","22.558","0.31596","5"],
    [30401,"HCEP03730560","2024-08-09 23:15:00","10.5952","3.33065","26.602","2.113","7.49","1.004","3.702","0.15","0.23","29.6505","4.6785","22.92","0","SATNPRO1962","22.366","0.3133","5"],
    [30402,"HCEP03730560","2024-08-09 23:30:00","10.5907","3.32995","26.467","2.078","7.48","0.954","3.726","0.24","0.16","29.6473","4.67811","22.54","0","SATNPRO1962","22.2","0.31094","5"],
    [30403,"HCEP03730560","2024-08-09 23:45:00","10.5903","3.32977","26.309","2.055","7.48","0.933","4.135","0.21","0.71","29.646","4.67793","22.29","0","SATNPRO1962","22.206","0.31106","5"],
    [30404,"HCEP03730560","2024-08-10 00:00:00","10.5897","3.32968","26.155","2.039","7.48","0.913","3.945","0.16","0.28","29.6456","4.67787","22.11","0","SATNPRO1962","22.162","0.31046","5"],
    [30405,"HCEP03730560","2024-08-10 00:15:00","10.5896","3.32959","26.031","2.03","7.48","0.879","4.151","0.15","0.67","29.6448","4.67776","22.02","0","SATNPRO1962","22.29","0.31216","5"],
    [30406,"HCEP03730560","2024-08-10 00:30:00","10.5914","3.32957","25.859","2.032","7.48","0.932","4.026","0.1","0.18","29.6432","4.67749","22.04","0","SATNPRO1962","22.174","0.31062","5"],
    [30407,"HCEP03730560","2024-08-10 00:45:00","10.5944","3.32967","25.698","2.052","7.48","0.851","3.869","0.11","0.26","29.6418","4.67724","22.26","0","SATNPRO1962","22.308","0.31248","5"],
    [30408,"HCEP03730560","2024-08-10 01:00:00","10.5969","3.3298","25.552","2.077","7.48","0.845","3.853","0.1","0.12","29.6412","4.6771","22.54","0","SATNPRO1962","22.316","0.3126","5"],
    [30409,"HCEP03730560","2024-08-10 01:15:00","10.5959","3.33","25.421","2.09","7.48","1.031","3.955","0.74","0.35","29.644","4.67751","22.67","0","SATNPRO1962","22.272","0.31196","5"],
    [30410,"HCEP03730560","2024-08-10 01:30:00","10.5976","3.3299","25.347","2.089","7.48","0.778","3.88","0.09","0.27","29.6417","4.67714","22.67","0","SATNPRO1962","22.381999999999998","0.31348","5"],
    [30411,"HCEP03730560","2024-08-10 01:45:00","10.5965","3.33017","25.269","2.101","7.48","0.838","3.824","0.09","0.21","29.6452","4.67765","22.79","0","SATNPRO1962","22.348","0.31302","5"],
    [30412,"HCEP03730560","2024-08-10 02:00:00","10.5981","3.33074","25.219","2.131","7.49","0.948","3.701","0.33","0.1","29.6496","4.67825","23.12","0","SATNPRO1962","22.682","0.3177","5"],
    [30413,"HCEP03730560","2024-08-10 02:15:00","10.6003","3.33128","25.192","2.221","7.5","0.954","3.486","0.15","0.16","29.6532","4.67873","24.09","0","SATNPRO1962","22.858","0.32018","5"],
    [30414,"HCEP03730560","2024-08-10 02:30:00","10.5955","3.33131","25.219","2.301","7.5","0.942","3.859","0.13","0.14","29.6573","4.6794","24.96","0","SATNPRO1962","23.022","0.32244","5"],
    [30415,"HCEP03730560","2024-08-10 02:45:00","10.5946","3.33152","25.224","2.372","7.51","1.065","3.622","0.15","0.16","29.6601","4.6798","25.73","0","SATNPRO1962","23.25","0.32564","5"],
    [30416,"HCEP03730560","2024-08-10 03:00:00","10.5945","3.33167","25.213","2.461","7.51","0.948","3.387","0.13","0.14","29.6617","4.68003","26.7","0","SATNPRO1962","23.55","0.32986","5"],
    [30417,"HCEP03730560","2024-08-10 03:15:00","10.5942","3.33179","25.289","2.502","7.52","1.136","3.331","0.15","0.1","29.6631","4.68024","27.14","0","SATNPRO1962","23.692","0.33186","5"],
    [30418,"HCEP03730560","2024-08-10 03:30:00","10.5947","3.33194","25.329","2.539","7.52","1.133","3.559","0.16","0.19","29.6641","4.68038","27.55","0","SATNPRO1962","23.844","0.33398","5"],
    [30419,"HCEP03730560","2024-08-10 03:45:00","10.5948","3.33029","25.394","2.567","7.52","1.255","3.527","0.22","0.46","29.6478","4.67806","27.85","0","SATNPRO1962","23.632","0.331","5"],
    [30420,"HCEP03730560","2024-08-10 04:00:00","10.5944","3.33067","25.461","2.569","7.52","1.169","3.683","0.23","0.15","29.6518","4.67863","27.87","0","SATNPRO1962","23.766","0.3329","5"],
    [30421,"HCEP03730560","2024-08-10 04:15:00","10.5957","3.33089","25.54","2.565","7.53","1.244","3.683","0.23","0.46","29.6529","4.67878","27.82","0","SATNPRO1962","23.842","0.33394","5"],
    [30422,"HCEP03730560","2024-08-10 04:30:00","10.6012","3.33146","25.612","2.625","7.53","1.308","2.991","0.39","0.17","29.654","4.67886","28.48","0","SATNPRO1962","24.194","0.33888","5"],
    [30423,"HCEP03730560","2024-08-10 04:45:00","10.6058","3.31882","25.667","2.718","7.54","1.232","2.917","0.17","0.5","29.5257","4.66051","29.47","0","SATNPRO1962","24.2","0.339","5"],
    [30424,"HCEP03730560","2024-08-10 05:00:00","10.5965","3.33112","25.794","2.663","7.53","1.166","3.598","0.16","0.25","29.6544","4.679","28.89","0","SATNPRO1962","23.81","0.33348","5"],
    [30425,"HCEP03730560","2024-08-10 05:15:00","10.5959","3.33126","25.881","2.561","7.53","1.29","3.717","0.15","0.15","29.6562","4.67928","27.79","0","SATNPRO1962","23.576","0.33024","5"],
    [30426,"HCEP03730560","2024-08-10 05:30:00","10.5963","3.33232","25.977","2.514","7.52","1.26","4.069","0.2","0.16","29.6663","4.68071","27.28","0","SATNPRO1962","23.53","0.32958","5"],
    [30427,"HCEP03730560","2024-08-10 05:45:00","10.5967","3.33238","26.074","2.49","7.52","1.346","3.916","0.26","0.18","29.6665","4.68074","27.02","0","SATNPRO1962","23.604","0.33062","5"],
    [30428,"HCEP03730560","2024-08-10 06:00:00","10.599","3.33253","26.179","2.486","7.52","1.337","3.719","0.21","0.12","29.6661","4.68065","26.97","0","SATNPRO1962","23.546","0.3298","5"],
    [30429,"HCEP03730560","2024-08-10 06:15:00","10.5992","3.3325","26.279","2.488","7.52","1.495","3.664","0.19","0.24","29.6657","4.6806","26.99","0","SATNPRO1962","23.598","0.33058","5"],
    [30430,"HCEP03730560","2024-08-10 06:30:00","10.5984","3.3324","26.411","2.462","7.52","1.268","3.74","0.15","0.16","29.6653","4.68055","26.71","0","SATNPRO1962","23.414","0.32794","5"],
    [30431,"HCEP03730560","2024-08-10 06:45:00","10.5993","3.33241","26.513","2.434","7.52","1.483","3.551","0.29","0.24","29.6646","4.68044","26.41","0","SATNPRO1962","23.534","0.32962","5"],
    [30432,"HCEP03730560","2024-08-10 07:00:00","10.5982","3.33227","26.612","2.392","7.51","1.257","3.65","0.32","0.17","29.6641","4.68039","25.95","0","SATNPRO1962","23.296","0.3263","5"],
    [30433,"HCEP03730560","2024-08-10 07:15:00","10.5976","3.33216","26.701","2.333","7.51","1.419","3.997","0.71","0.3","29.6634","4.68032","25.31","0","SATNPRO1962","23.186","0.32476","5"],
    [30434,"HCEP03730560","2024-08-10 07:30:00","10.5977","3.33211","26.786","2.296","7.5","1.154","3.983","0.2","0.18","29.6628","4.68023","24.91","0","SATNPRO1962","22.722","0.31826","5"],
    [30435,"HCEP03730560","2024-08-10 07:45:00","10.599","3.33209","26.849","2.28","7.5","1.01","3.98","0.14","0.26","29.6616","4.68004","24.73","0","SATNPRO1962","23.062","0.323","5"],
    [30436,"HCEP03730560","2024-08-10 08:00:00","10.5994","3.33209","26.877","2.301","7.51","1.018","3.95","0.19","0.27","29.6612","4.67998","24.97","0","SATNPRO1962","23.34","0.3269","5"],
    [30437,"HCEP03730560","2024-08-10 08:15:00","10.6009","3.33212","26.784","2.371","7.51","0.913","3.693","0.16","0.96","29.6603","4.67982","25.72","0","SATNPRO1962","23.564","0.33008","5"],
    [30438,"HCEP03730560","2024-08-10 08:30:00","10.597","3.33146","26.778","2.402","7.51","0.872","3.737","0.17","0.32","29.6569","4.6794","26.06","0","SATNPRO1962","23.34","0.32696","5"],
    [30439,"HCEP03730560","2024-08-10 08:45:00","10.5949","3.33098","26.804","2.33","7.5","0.945","3.773","0.15","0.3","29.6539","4.67901","25.28","0","SATNPRO1962","22.992","0.32204","5"],
    [30440,"HCEP03730560","2024-08-10 09:00:00","10.5952","3.33105","26.744","2.276","7.5","1.042","3.629","0.34","0.34","29.6543","4.67906","24.7","0","SATNPRO1962","23.144","0.32416","5"],
    [30441,"HCEP03730560","2024-08-10 09:15:00","10.5982","3.33107","26.796","2.293","7.5","1.075","3.589","0.21","0.24","29.6521","4.6787","24.88","0","SATNPRO1962","23.108","0.32368","5"],
    [30442,"HCEP03730560","2024-08-10 09:30:00","10.6027","3.33099","26.68","2.308","7.5","1.208","3.543","0.9","0.48","29.6477","4.67799","25.04","0","SATNPRO1962","23.158","0.32436","5"],
    [30443,"HCEP03730560","2024-08-10 09:45:00","10.5951","3.33105","26.639","2.308","7.5","1.171","3.646","0.2","0.31","29.6545","4.67909","25.04","0","SATNPRO1962","23.236","0.32546","5"],
    [30444,"HCEP03730560","2024-08-10 10:00:00","10.5947","3.33118","26.606","2.335","7.51","1.099","3.664","0.18","0.22","29.6562","4.67933","25.34","0","SATNPRO1962","23.196","0.3249","5"],
    [30445,"HCEP03730560","2024-08-10 10:15:00","10.5935","3.33127","26.526","2.371","7.51","1.153","3.811","0.11","0.12","29.6581","4.67961","25.72","0","SATNPRO1962","23.244","0.32558","5"],
    [30446,"HCEP03730560","2024-08-10 10:30:00","10.5912","3.33125","26.45","2.386","7.51","1.121","3.769","0.14","0.12","29.6597","4.67988","25.88","0","SATNPRO1962","23.286","0.32616","5"],
    [30447,"HCEP03730560","2024-08-10 10:45:00","10.5882","3.3309","26.41","2.374","7.51","1.167","3.832","0.15","0.16","29.6588","4.67979","25.75","0","SATNPRO1962","23.26","0.32582","5"],
    [30448,"HCEP03730560","2024-08-10 11:00:00","10.5849","3.33048","26.327","2.339","7.5","1.103","3.968","0.11","0.14","29.6574","4.67963","25.37","0","SATNPRO1962","23.218","0.3252","5"],
    [30449,"HCEP03730560","2024-08-10 11:15:00","10.58","3.33046","26.199","2.304","7.5","1.114","3.921","0.18","0.23","29.6612","4.68025","24.99","0","SATNPRO1962","23.12","0.32386","5"],
    [30450,"HCEP03730560","2024-08-10 11:30:00","10.5769","3.32977","26.138","2.272","7.5","1.133","3.904","0.23","0.19","29.6569","4.67968","24.64","0","SATNPRO1962","22.988","0.322","5"],
    [30451,"HCEP03730560","2024-08-10 11:45:00","10.5786","3.32926","26.129","2.229","7.5","1.009","3.641","0.14","0.15","29.6505","4.67874","24.17","0","SATNPRO1962","22.932","0.32124","5"],
    [30452,"HCEP03730560","2024-08-10 12:00:00","10.5734","3.32859","26.031","2.19","7.49","0.996","3.785","0.24","0.26","29.6482","4.67849","23.75","0","SATNPRO1962","22.816","0.31958","5"],
    [30453,"HCEP03730560","2024-08-10 12:15:00","10.5787","3.32893","25.929","2.186","7.49","1.048","3.7","0.23","0.27","29.6472","4.67826","23.71","0","SATNPRO1962","23.072","0.32316","5"],
    [30454,"HCEP03730560","2024-08-10 12:30:00","10.5775","3.32906","25.846","2.201","7.49","1.103","3.797","0.31","0.18","29.6495","4.6786","23.86","0","SATNPRO1962","22.916","0.321","5"],
    [30455,"HCEP03730560","2024-08-10 12:45:00","10.5744","3.32888","25.738","2.183","7.49","1.063","3.681","0.22","0.14","29.6503","4.67875","23.67","0","SATNPRO1962","22.858","0.32014","5"],
    [30456,"HCEP03730560","2024-08-10 13:00:00","10.5737","3.32878","25.66","2.163","7.49","1.075","3.79","0.18","0.19","29.6499","4.67871","23.45","0","SATNPRO1962","22.678","0.31764","5"],
    [30457,"HCEP03730560","2024-08-10 13:15:00","10.5706","3.32886","25.571","2.162","7.49","1.002","3.767","0.12","0.15","29.6532","4.67922","23.44","0","SATNPRO1962","22.624","0.3169","5"],
    [30458,"HCEP03730560","2024-08-10 13:30:00","10.5713","3.32916","25.506","2.192","7.49","1.13","3.715","0.26","0.23","29.6556","4.67955","23.77","0","SATNPRO1962","22.904","0.32082","5"],
    [30459,"HCEP03730560","2024-08-10 13:45:00","10.5666","3.32871","25.476","2.226","7.5","1.145","3.616","0.15","0.1","29.6551","4.67955","24.14","0","SATNPRO1962","22.874000000000002","0.32036","5"],
    [30460,"HCEP03730560","2024-08-10 14:00:00","10.5616","3.32825","25.49","2.206","7.49","1.19","3.788","0.16","0.21","29.6546","4.67956","23.91","0","SATNPRO1962","22.79","0.31926","5"],
    [30461,"HCEP03730560","2024-08-10 14:15:00","10.5542","3.32753","25.49","2.145","7.49","1.074","3.782","0.17","0.17","29.6535","4.67952","23.25","0","SATNPRO1962","22.418","0.314","5"],
    [30462,"HCEP03730560","2024-08-10 14:30:00","10.5494","3.32706","25.513","2.074","7.48","1.066","3.801","0.2","0.24","29.6527","4.67949","22.48","0","SATNPRO1962","22.266","0.31186","5"],
    [30463,"HCEP03730560","2024-08-10 14:45:00","10.5438","3.32646","25.571","2.01","7.48","0.95","3.682","0.09","0.15","29.6513","4.67938","21.78","0","SATNPRO1962","22.195999999999998","0.31092","5"],
    [30464,"HCEP03730560","2024-08-10 15:00:00","10.5413","3.32618","25.578","1.963","7.47","0.815","3.515","0.07","0.11","29.6506","4.67932","21.27","0","SATNPRO1962","22.166","0.31046","5"],
    [30465,"HCEP03730560","2024-08-10 15:15:00","10.5401","3.32596","25.647","1.937","7.47","0.869","3.328","0.1","0.26","29.6494","4.67917","20.99","0","SATNPRO1962","22.196","0.31094","5"],
    [30466,"HCEP03730560","2024-08-10 15:30:00","10.5375","3.32573","25.718","1.91","7.47","0.823","3.314","0.16","0.14","29.6492","4.67919","20.7","0","SATNPRO1962","22.082","0.3093","5"],
    [30467,"HCEP03730560","2024-08-10 15:45:00","10.5336","3.32527","25.795","1.852","7.46","0.842","3.209","0.12","0.11","29.6478","4.67906","20.07","0","SATNPRO1962","21.844","0.30598","5"],
    [30468,"HCEP03730560","2024-08-10 16:00:00","10.5303","3.32485","25.89","1.789","7.46","0.741","3.229","0.12","0.16","29.6463","4.67889","19.38","0","SATNPRO1962","21.682","0.30368","5"],
    [30469,"HCEP03730560","2024-08-10 16:15:00","10.529","3.3246","25.975","1.741","7.46","0.758","3.194","0.1","0.16","29.6449","4.67873","18.85","0","SATNPRO1962","21.604","0.3026","5"],
    [30470,"HCEP03730560","2024-08-10 16:30:00","10.5271","3.3244","26.081","1.703","7.45","0.796","3.141","0.19","0.12","29.6444","4.67868","18.44","0","SATNPRO1962","21.612","0.30272","5"],
    [30471,"HCEP03730560","2024-08-10 16:45:00","10.5268","3.32429","26.211","1.68","7.45","0.814","3.146","0.16","0.09","29.6435","4.67857","18.2","0","SATNPRO1962","21.43","0.30014","5"],
    [30472,"HCEP03730560","2024-08-10 17:00:00","10.5264","3.32421","26.352","1.665","7.45","0.759","3.033","0.12","0.17","29.6429","4.67851","18.03","0","SATNPRO1962","21.456","0.3005","5"],
    [30473,"HCEP03730560","2024-08-10 17:15:00","10.5263","3.32414","26.444","1.665","7.45","0.955","3.158","0.6","0.6","29.6423","4.67843","18.04","0","SATNPRO1962","21.548000000000002","0.30178","5"],
    [30474,"HCEP03730560","2024-08-10 17:30:00","10.5273","3.32448","26.568","1.624","7.44","0.775","3.478","0.12","0.11","29.6447","4.67876","17.59","0","SATNPRO1962","21.317999999999998","0.29858","5"],
    [30475,"HCEP03730560","2024-08-10 17:45:00","10.5286","3.32464","26.72","1.575","7.44","0.771","3.466","0.08","0.08","29.6452","4.67882","17.07","0","SATNPRO1962","21.194","0.29686","5"],
    [30476,"HCEP03730560","2024-08-10 18:00:00","10.5309","3.32463","26.829","1.565","7.44","0.767","3.389","0.1","0.07","29.6433","4.67851","16.95","0","SATNPRO1962","21.302","0.29838","5"],
    [30477,"HCEP03730560","2024-08-10 18:15:00","10.5298","3.32443","26.989","1.582","7.44","0.757","3.303","0.1","0.13","29.6421","4.67837","17.14","0","SATNPRO1962","21.338","0.29888","5"],
    [30478,"HCEP03730560","2024-08-10 18:30:00","10.5305","3.32475","27.114","1.628","7.45","0.84","3.105","0.33","0.21","29.6447","4.67873","17.63","0","SATNPRO1962","21.606","0.30266","5"],
    [30479,"HCEP03730560","2024-08-10 18:45:00","10.5326","3.32499","27.195","1.69","7.45","0.823","2.988","0.12","0.17","29.6453","4.67879","18.31","0","SATNPRO1962","21.637999999999998","0.30308","5"],
    [30480,"HCEP03730560","2024-08-10 19:00:00","10.5328","3.32509","27.306","1.705","7.45","0.87","3.134","0.37","0.11","29.6461","4.67891","18.47","0","SATNPRO1962","21.666","0.30348","5"],
    [30481,"HCEP03730560","2024-08-10 19:15:00","10.534","3.32526","27.4","1.717","7.45","0.78","3.136","0.1","0.16","29.6468","4.67899","18.6","0","SATNPRO1962","21.77","0.30492","5"],
    [30482,"HCEP03730560","2024-08-10 19:30:00","10.5438","3.32633","27.503","1.826","7.46","0.896","2.814","0.12","0.12","29.6493","4.6792","19.79","0","SATNPRO1962","22.46","0.3146","5"],
    [30483,"HCEP03730560","2024-08-10 19:45:00","10.5532","3.32724","27.556","1.996","7.47","1.042","2.639","0.16","0.11","29.6506","4.67923","21.63","0","SATNPRO1962","23.108","0.32368","5"],
    [30484,"HCEP03730560","2024-08-10 20:00:00","10.5617","3.32837","27.593","2.069","7.48","0.931","2.645","0.18","0.12","29.6548","4.67971","22.44","0","SATNPRO1962","23.17","0.32454","5"],
    [30485,"HCEP03730560","2024-08-10 20:15:00","10.5682","3.329","27.588","2.216","7.49","0.848","2.712","0.17","0.27","29.6557","4.67973","24.03","0","SATNPRO1962","23.124","0.3239","5"],
    [30486,"HCEP03730560","2024-08-10 20:30:00","10.5761","3.32967","27.589","2.26","7.49","0.808","2.917","0.19","0.2","29.656","4.67964","24.5","0","SATNPRO1962","23.264","0.32584","5"],
    [30487,"HCEP03730560","2024-08-10 20:45:00","10.582","3.33018","27.594","2.29","7.5","0.671","2.623","0.19","0.08","29.6562","4.67959","24.84","0","SATNPRO1962","23.368","0.32734","5"],
    [30488,"HCEP03730560","2024-08-10 21:00:00","10.5857","3.33097","27.58","2.326","7.5","0.764","3.179","0.1","0.15","29.661","4.68021","25.23","0","SATNPRO1962","23.486","0.32896","5"],
    [30489,"HCEP03730560","2024-08-10 21:15:00","10.5903","3.33156","27.546","2.327","7.5","0.889","3.314","0.17","0.22","29.6631","4.68043","25.24","0","SATNPRO1962","23.432","0.32822","5"],
    [30490,"HCEP03730560","2024-08-10 21:30:00","10.5974","3.33134","27.489","2.282","7.5","0.806","3.301","0.09","0.11","29.6552","4.6792","24.75","0","SATNPRO1962","23.28","0.32608","5"],
    [30491,"HCEP03730560","2024-08-10 21:45:00","10.596","3.33135","27.428","2.224","7.49","0.944","3.4","0.17","0.16","29.6564","4.67939","24.13","0","SATNPRO1962","23.14","0.32414","5"],
    [30492,"HCEP03730560","2024-08-10 22:00:00","10.5994","3.33086","27.362","2.215","7.49","0.975","3.317","0.25","0.12","29.6489","4.67825","24.03","0","SATNPRO1962","23.224","0.3253","5"],
    [30493,"HCEP03730560","2024-08-10 22:15:00","10.6007","3.3308","27.274","2.212","7.49","0.979","3.336","0.18","0.15","29.6472","4.67799","24","0","SATNPRO1962","23.066","0.32306","5"],
    [30494,"HCEP03730560","2024-08-10 22:30:00","10.6046","3.33112","27.171","2.144","7.49","0.86","3.838","0.08","0.14","29.6473","4.67793","23.26","0","SATNPRO1962","22.668","0.31748","5"],
    [30495,"HCEP03730560","2024-08-10 22:45:00","10.6125","3.33126","27.067","1.989","7.48","0.746","3.449","0.1","0.18","29.6423","4.67709","21.58","0","SATNPRO1962","22.483999999999998","0.3149","5"],
    [30496,"HCEP03730560","2024-08-10 23:00:00","10.6088","3.33133","26.917","1.913","7.47","0.835","3.703","0.14","0.18","29.6461","4.67769","20.76","0","SATNPRO1962","22.45","0.31442","5"],
    [30497,"HCEP03730560","2024-08-10 23:15:00","10.6049","3.33134","26.817","1.897","7.47","0.926","4.132","0.1","0.15","29.6494","4.6782","20.58","0","SATNPRO1962","22.55","0.31586","5"],
    [30498,"HCEP03730560","2024-08-10 23:30:00","10.6071","3.3313","26.677","1.923","7.47","0.947","3.822","0.24","0.12","29.6472","4.67786","20.87","0","SATNPRO1962","22.618","0.31682","5"],
    [30499,"HCEP03730560","2024-08-10 23:45:00","10.6086","2.94836","26.537","1.983","7.47","0.926","3.862","0.12","0.28","25.9032","4.13996","21.01","0","SATNPRO1962","22.958000000000002","0.32158","5"],
    [30500,"HCEP03730560","2024-08-11 00:00:00","10.6063","3.33144","26.369","1.917","7.47","0.938","4.056","0.18","0.23","29.6493","4.67815","20.81","0","SATNPRO1962","22.6","0.31654","5"],
    [30501,"HCEP03730560","2024-08-11 00:15:00","10.6063","3.3314","26.208","1.918","7.47","0.998","4.141","0.17","0.18","29.649","4.6781","20.81","0","SATNPRO1962","22.628","0.31694","5"],
    [30502,"HCEP03730560","2024-08-11 00:30:00","10.6037","3.33143","26.063","1.903","7.47","0.864","4.247","0.13","0.15","29.6515","4.67849","20.65","0","SATNPRO1962","22.422","0.31406","5"],
    [30503,"HCEP03730560","2024-08-11 00:45:00","10.6005","3.33137","25.898","1.888","7.47","0.915","4.322","0.14","0.27","29.6535","4.67881","20.49","0","SATNPRO1962","22.484","0.31496","5"],
    [30504,"HCEP03730560","2024-08-11 01:00:00","10.6004","3.33151","25.751","1.943","7.47","0.978","4.055","0.32","0.25","29.6551","4.67903","21.08","0","SATNPRO1962","22.82","0.31966","5"],
    [30505,"HCEP03730560","2024-08-11 01:15:00","10.5995","3.33159","25.591","2.007","7.48","1.015","3.907","0.16","0.22","29.6566","4.67926","21.77","0","SATNPRO1962","23.092","0.3234","5"],
    [30506,"HCEP03730560","2024-08-11 01:30:00","10.6025","3.3319","25.434","2.068","7.48","1.098","3.764","0.57","0.2","29.6574","4.6793","22.44","0","SATNPRO1962","23.398","0.32772","5"],
    [30507,"HCEP03730560","2024-08-11 01:45:00","10.6024","3.33226","25.319","2.16","7.49","0.995","3.757","0.11","0.2","29.661","4.67982","23.44","0","SATNPRO1962","23.44","0.32828","5"],
    [30508,"HCEP03730560","2024-08-11 02:00:00","10.6031","3.33252","25.211","2.233","7.49","1.109","4.001","0.28","0.29","29.6631","4.68009","24.23","0","SATNPRO1962","23.404","0.32782","5"],
    [30509,"HCEP03730560","2024-08-11 02:15:00","10.604","3.33272","25.133","2.271","7.5","1","3.512","0.15","0.15","29.6644","4.68026","24.65","0","SATNPRO1962","23.588","0.33036","5"],
    [30510,"HCEP03730560","2024-08-11 02:30:00","10.6087","3.33313","25.062","2.33","7.5","1.183","3.618","0.28","0.21","29.6647","4.68022","25.28","0","SATNPRO1962","24.102","0.33756","5"],
    [30511,"HCEP03730560","2024-08-11 02:45:00","10.6039","3.33278","25.025","2.312","7.5","1.003","3.656","0.17","0.2","29.665","4.68035","25.09","0","SATNPRO1962","23.56","0.32996","5"],
    [30512,"HCEP03730560","2024-08-11 03:00:00","10.6074","3.33306","25.002","2.294","7.5","1.251","3.929","0.5","0.25","29.665","4.68029","24.89","0","SATNPRO1962","23.57","0.33016","5"],
    [30513,"HCEP03730560","2024-08-11 03:15:00","10.609","3.33328","25.007","2.33","7.51","1.019","3.68","0.17","0.13","29.6659","4.6804","25.29","0","SATNPRO1962","23.408","0.3279","5"],
    [30514,"HCEP03730560","2024-08-11 03:30:00","10.6281","3.33451","25.011","2.469","7.52","1.097","2.935","0.28","0.19","29.6624","4.6796","26.8","0","SATNPRO1962","24.71","0.3461","5"],
    [30515,"HCEP03730560","2024-08-11 03:45:00","10.6216","3.33397","25.032","2.56","7.52","1.267","2.87","0.38","0.23","29.6624","4.6797","27.79","0","SATNPRO1962","24.688","0.34582","5"],
    [30516,"HCEP03730560","2024-08-11 04:00:00","10.6147","3.33333","25.058","2.468","7.51","1.199","3.561","0.32","0.19","29.6618","4.67972","26.78","0","SATNPRO1962","23.738","0.3325","5"],
    [30517,"HCEP03730560","2024-08-11 04:15:00","10.6068","3.33293","25.096","2.334","7.5","1.022","3.887","0.2","0.14","29.6641","4.68018","25.33","0","SATNPRO1962","23.352","0.32708","5"],
    [30518,"HCEP03730560","2024-08-11 04:30:00","10.6022","3.33261","25.147","2.207","7.5","1.064","4.558","0.21","2.11","29.6647","4.68033","23.95","0","SATNPRO1962","23.046","0.32282","5"],
    [30519,"HCEP03730560","2024-08-11 04:45:00","10.6004","3.33248","25.227","2.119","7.49","1.007","4.153","0.17","0.32","29.6649","4.6804","22.99","0","SATNPRO1962","23.046","0.32284","5"],
    [30520,"HCEP03730560","2024-08-11 05:00:00","10.6002","3.33256","25.31","2.077","7.49","1.194","4.043","0.82","0.26","29.6658","4.68053","22.54","0","SATNPRO1962","23.218","0.3252","5"],
    [30521,"HCEP03730560","2024-08-11 05:15:00","10.6021","3.33274","25.404","2.095","7.49","1.074","3.616","0.22","0.11","29.666","4.68054","22.74","0","SATNPRO1962","23.26","0.3258","5"],
    [30522,"HCEP03730560","2024-08-11 05:30:00","10.6034","3.33287","25.485","2.122","7.49","1.113","3.543","0.25","0.29","29.6662","4.68055","23.03","0","SATNPRO1962","23.312","0.3265","5"],
    [30523,"HCEP03730560","2024-08-11 05:45:00","10.6006","3.33255","25.576","2.106","7.49","1.155","3.931","0.24","0.59","29.6653","4.68047","22.85","0","SATNPRO1962","23.238","0.3255","5"],
    [30524,"HCEP03730560","2024-08-11 06:00:00","10.6018","3.33261","25.667","2.083","7.49","1.121","3.728","0.36","0.34","29.6648","4.68039","22.6","0","SATNPRO1962","23.162","0.32444","5"],
    [30525,"HCEP03730560","2024-08-11 06:15:00","10.6018","3.33253","25.77","2.068","7.48","1.194","3.879","0.4","0.58","29.6641","4.68029","22.44","0","SATNPRO1962","23.132","0.32398","5"],
    [30526,"HCEP03730560","2024-08-11 06:30:00","10.5991","3.33219","25.87","2.013","7.48","1.158","4.099","0.25","0.23","29.6628","4.68016","21.84","0","SATNPRO1962","22.77","0.31892","5"],
    [30527,"HCEP03730560","2024-08-11 06:45:00","10.598","3.33197","26.004","1.946","7.47","1.187","4.429","0.19","0.52","29.6615","4.67999","21.12","0","SATNPRO1962","22.648","0.31722","5"],
    [30528,"HCEP03730560","2024-08-11 07:00:00","10.5969","3.33186","26.133","1.884","7.47","1.107","4.648","0.22","0.43","29.6613","4.67999","20.44","0","SATNPRO1962","22.544","0.31576","5"],
    [30529,"HCEP03730560","2024-08-11 07:15:00","10.5964","3.33174","26.234","1.847","7.46","1.194","4.868","0.27","0.47","29.6605","4.67989","20.04","0","SATNPRO1962","23.226","0.32528","5"],
    [30530,"HCEP03730560","2024-08-11 07:30:00","10.5972","3.33165","26.346","1.767","7.46","1.096","4.673","0.23","0.26","29.6589","4.67965","19.17","0","SATNPRO1962","22.584","0.31634","5"],
    [30531,"HCEP03730560","2024-08-11 07:45:00","10.6023","3.33189","26.342","1.711","7.45","1.203","4.769","0.23","0.38","29.6571","4.67932","18.56","0","SATNPRO1962","22.332","0.31282","5"],
    [30532,"HCEP03730560","2024-08-11 08:00:00","10.6075","3.33218","26.442","1.71","7.45","1.23","5.134","0.28","0.84","29.6557","4.67904","18.55","0","SATNPRO1962","22.524","0.31546","5"],
    [30533,"HCEP03730560","2024-08-11 08:15:00","10.609","3.33228","26.509","1.708","7.45","1.206","4.991","0.16","0.48","29.6555","4.67899","18.53","0","SATNPRO1962","22.862000000000002","0.32026","5"],
    [30534,"HCEP03730560","2024-08-11 08:30:00","10.6082","3.3322","26.567","1.712","7.45","1.132","4.418","0.2","0.48","29.6553","4.67898","18.58","0","SATNPRO1962","22.381999999999998","0.31346","5"],
    [30535,"HCEP03730560","2024-08-11 08:45:00","10.6037","3.33191","26.632","1.721","7.45","1.188","4.653","0.29","0.42","29.656","4.67916","18.67","0","SATNPRO1962","22.506","0.31524","5"],
    [30536,"HCEP03730560","2024-08-11 09:00:00","10.6145","3.33217","26.687","1.862","7.47","0.994","3.16","0.2","0.29","29.6498","4.67811","20.21","0","SATNPRO1962","23.364","0.32724","5"],
    [30537,"HCEP03730560","2024-08-11 09:15:00","10.6067","3.332","26.702","1.938","7.47","1.167","4.049","0.33","0.37","29.6545","4.6789","21.03","0","SATNPRO1962","22.902","0.32076","5"],
    [30538,"HCEP03730560","2024-08-11 09:30:00","10.6037","3.33188","26.688","1.85","7.46","1.136","4.094","0.22","0.25","29.6557","4.67911","20.07","0","SATNPRO1962","22.746","0.31862","5"],
    [30539,"HCEP03730560","2024-08-11 09:45:00","10.6047","3.33195","26.703","1.805","7.46","1.166","4.141","0.23","0.37","29.6556","4.67909","19.59","0","SATNPRO1962","22.816","0.31958","5"],
    [30540,"HCEP03730560","2024-08-11 10:00:00","10.6083","3.33219","26.686","1.837","7.46","1.125","4.112","0.2","0.41","29.655","4.67895","19.94","0","SATNPRO1962","22.85","0.32002","5"],
    [30541,"HCEP03730560","2024-08-11 10:15:00","10.6104","3.33242","26.663","1.896","7.47","1.159","3.978","0.23","0.29","29.6556","4.679","20.57","0","SATNPRO1962","22.996000000000002","0.32208","5"],
    [30542,"HCEP03730560","2024-08-11 10:30:00","10.6149","3.33303","26.659","2.001","7.48","1.433","3.816","0.58","0.53","29.658","4.67927","21.72","0","SATNPRO1962","23.212","0.3251","5"],
    [30543,"HCEP03730560","2024-08-11 10:45:00","10.6202","3.33381","26.632","2.153","7.49","1.297","3.324","0.19","0.21","29.6614","4.67966","23.37","0","SATNPRO1962","23.694","0.3319","5"],
    [30544,"HCEP03730560","2024-08-11 11:00:00","10.6185","3.33379","26.604","2.256","7.49","1.303","3.783","0.21","0.3","29.6626","4.67986","24.49","0","SATNPRO1962","23.758","0.33274","5"],
    [30545,"HCEP03730560","2024-08-11 11:15:00","10.6187","3.33396","26.575","2.272","7.5","1.436","3.615","0.21","0.51","29.6641","4.68007","24.66","0","SATNPRO1962","23.814","0.33356","5"],
    [30546,"HCEP03730560","2024-08-11 11:30:00","10.6221","3.33426","26.534","2.311","7.5","1.376","3.722","0.16","0.16","29.6643","4.68004","25.09","0","SATNPRO1962","23.878","0.33444","5"],
    [30547,"HCEP03730560","2024-08-11 11:45:00","10.6324","3.33502","26.474","2.421","7.51","1.46","3.411","0.26","0.22","29.6634","4.67976","26.29","0","SATNPRO1962","24.060000000000002","0.337","5"],
    [30548,"HCEP03730560","2024-08-11 12:00:00","10.631","3.33496","26.424","2.499","7.52","1.45","3.436","0.27","0.47","29.6641","4.67987","27.14","0","SATNPRO1962","24.222","0.3393","5"],
    [30549,"HCEP03730560","2024-08-11 12:15:00","10.6299","3.33496","26.37","2.512","7.52","1.515","3.232","0.27","0.19","29.6649","4.68","27.27","0","SATNPRO1962","24.098","0.33754","5"],
    [30550,"HCEP03730560","2024-08-11 12:30:00","10.6293","3.33489","26.309","2.523","7.52","1.534","3.268","0.38","0.15","29.6647","4.67997","27.4","0","SATNPRO1962","24.186","0.33876","5"],
    [30551,"HCEP03730560","2024-08-11 12:45:00","10.631","3.33519","26.244","2.569","7.53","1.542","3.006","0.27","0.15","29.6663","4.68017","27.9","0","SATNPRO1962","24.342","0.34096","5"],
    [30552,"HCEP03730560","2024-08-11 13:00:00","10.6265","3.33486","26.216","2.592","7.53","1.441","3.066","0.36","0.3","29.6667","4.68031","28.14","0","SATNPRO1962","24.254","0.3397","5"],
    [30553,"HCEP03730560","2024-08-11 13:15:00","10.6212","3.33444","26.162","2.543","7.52","1.41","3.093","0.22","0.22","29.6669","4.68041","27.61","0","SATNPRO1962","24.12","0.33782","5"],
    [30554,"HCEP03730560","2024-08-11 13:30:00","10.6173","3.33382","26.1","2.483","7.52","1.315","3.301","0.23","0.31","29.6641","4.68007","26.95","0","SATNPRO1962","23.934","0.33526","5"],
    [30555,"HCEP03730560","2024-08-11 13:45:00","10.6144","3.33347","26.06","2.437","7.51","1.29","3.187","0.27","0.2","29.6629","4.67994","26.45","0","SATNPRO1962","23.958","0.33558","5"],
    [30556,"HCEP03730560","2024-08-11 14:00:00","10.6112","3.33316","26.019","2.408","7.51","1.287","3.12","0.19","0.14","29.6625","4.67994","26.13","0","SATNPRO1962","23.942","0.33534","5"],
    [30557,"HCEP03730560","2024-08-11 14:15:00","10.6089","3.3323","25.997","2.382","7.51","1.437","3.279","0.32","0.17","29.6559","4.67902","25.85","0","SATNPRO1962","23.834","0.33384","5"],
    [30558,"HCEP03730560","2024-08-11 14:30:00","10.6004","3.33207","25.954","2.326","7.5","1.322","3.43","0.24","0.28","29.6606","4.67982","25.24","0","SATNPRO1962","23.516000000000002","0.3294","5"],
    [30559,"HCEP03730560","2024-08-11 14:45:00","10.5885","3.33083","25.949","2.224","7.5","1.267","3.345","0.66","0.47","29.658","4.67964","24.12","0","SATNPRO1962","23.264","0.32588","5"],
    [30560,"HCEP03730560","2024-08-11 15:00:00","10.576","3.32941","25.944","2.092","7.48","0.993","3.221","0.23","0.2","29.6542","4.67929","22.69","0","SATNPRO1962","22.942","0.3213","5"],
    [30561,"HCEP03730560","2024-08-11 15:15:00","10.5684","3.32853","25.964","1.963","7.48","0.988","3.182","0.2","0.23","29.6516","4.67905","21.29","0","SATNPRO1962","22.652","0.31726","5"],
    [30562,"HCEP03730560","2024-08-11 15:30:00","10.563","3.32785","25.988","1.872","7.47","1.024","3.122","0.22","0.15","29.6492","4.6788","20.29","0","SATNPRO1962","22.408","0.31388","5"],
    [30563,"HCEP03730560","2024-08-11 15:45:00","10.5616","3.32766","26.012","1.809","7.46","0.96","3.144","0.18","0.11","29.6486","4.67873","19.61","0","SATNPRO1962","22.158","0.31036","5"],
    [30564,"HCEP03730560","2024-08-11 16:00:00","10.5569","3.32707","26.069","1.752","7.46","0.95","3.419","0.21","0.4","29.6466","4.67852","18.99","0","SATNPRO1962","22.026","0.30848","5"],
    [30565,"HCEP03730560","2024-08-11 16:15:00","10.5513","3.32628","26.149","1.683","7.45","0.805","3.23","0.1","0.19","29.6432","4.67814","18.24","0","SATNPRO1962","21.916","0.30696","5"],
    [30566,"HCEP03730560","2024-08-11 16:30:00","10.5496","3.32604","26.196","1.632","7.45","0.8","3.296","0.22","0.31","29.6422","4.67802","17.69","0","SATNPRO1962","21.826","0.30576","5"],
    [30567,"HCEP03730560","2024-08-11 16:45:00","10.5501","3.32609","26.265","1.604","7.45","0.838","3.012","0.27","0.18","29.6423","4.67804","17.38","0","SATNPRO1962","21.804","0.3054","5"],
    [30568,"HCEP03730560","2024-08-11 17:00:00","10.5485","3.3259","26.333","1.59","7.44","0.699","3.059","0.13","0.11","29.6417","4.67798","17.23","0","SATNPRO1962","21.914","0.30696","5"],
    [30569,"HCEP03730560","2024-08-11 17:15:00","10.5486","3.32589","26.424","1.582","7.44","0.758","3.083","0.14","0.17","29.6414","4.67794","17.14","0","SATNPRO1962","21.75","0.30464","5"],
    [30570,"HCEP03730560","2024-08-11 17:30:00","10.5502","3.32415","26.49","1.59","7.44","0.694","3.15","0.17","0.35","29.623","4.67529","17.23","0","SATNPRO1962","21.828","0.30574","5"],
    [30571,"HCEP03730560","2024-08-11 17:45:00","10.552","3.32145","26.601","1.603","7.44","0.781","2.892","0.15","0.11","29.5948","4.67126","17.37","0","SATNPRO1962","21.898","0.30672","5"],
    [30572,"HCEP03730560","2024-08-11 18:00:00","10.5547","3.32697","26.69","1.618","7.44","0.756","3.134","0.17","0.37","29.647","4.67865","17.53","0","SATNPRO1962","21.88","0.30648","5"],
    [30573,"HCEP03730560","2024-08-11 18:15:00","10.5487","3.32597","26.774","1.597","7.44","0.762","3.136","0.26","0.67","29.642","4.67804","17.31","0","SATNPRO1962","21.74","0.30448","5"],
    [30574,"HCEP03730560","2024-08-11 18:30:00","10.5432","3.32508","26.883","1.535","7.44","0.645","3.034","0.09","0.42","29.6376","4.67751","16.63","0","SATNPRO1962","21.49","0.30096","5"],
    [30575,"HCEP03730560","2024-08-11 18:45:00","10.5443","3.31845","26.969","1.486","7.43","0.68","3.052","0.14","0.3","29.5713","4.66805","16.1","0","SATNPRO1962","21.476000000000003","0.30082","5"],
    [30576,"HCEP03730560","2024-08-11 19:00:00","10.5455","3.32519","27.037","1.476","7.43","0.647","3.007","0.12","0.22","29.6368","4.67737","16","0","SATNPRO1962","21.56","0.30198","5"],
    [30577,"HCEP03730560","2024-08-11 19:15:00","10.546","3.32539","27.165","1.48","7.43","0.711","2.99","0.12","0.13","29.6384","4.67759","16.04","0","SATNPRO1962","21.45","0.30044","5"],
    [30578,"HCEP03730560","2024-08-11 19:30:00","10.5469","3.3255","27.241","1.472","7.43","0.63","3","0.13","0.09","29.6387","4.67762","15.96","0","SATNPRO1962","21.56","0.30196","5"],
    [30579,"HCEP03730560","2024-08-11 19:45:00","10.5474","3.32545","27.356","1.478","7.43","0.773","3.519","0.13","0.37","29.6377","4.67749","16.02","0","SATNPRO1962","21.584","0.3023","5"],
    [30580,"HCEP03730560","2024-08-11 20:00:00","10.5485","3.32558","27.408","1.499","7.43","0.653","3.098","0.13","0.27","29.6381","4.67753","16.24","0","SATNPRO1962","21.608","0.30266","5"],
    [30581,"HCEP03730560","2024-08-11 20:15:00","10.5493","3.32537","27.422","1.516","7.43","0.698","3.036","0.18","0.17","29.6353","4.67712","16.42","0","SATNPRO1962","21.602","0.30258","5"],
    [30582,"HCEP03730560","2024-08-11 20:30:00","10.548400000000001","3.32576","27.423","1.517","7.43","0.679","2.99","0.15","0.11","29.6399","4.67779","16.44","0","SATNPRO1962","21.59","0.3024","5"],
    [30583,"HCEP03730560","2024-08-11 20:45:00","10.5563","3.32673","27.414","1.596","7.44","0.639","2.628","0.14","0.11","29.6431","4.67811","17.3","0","SATNPRO1962","22.146","0.3102","5"],
    [30584,"HCEP03730560","2024-08-11 21:00:00","10.5587","3.3271","27.427","1.695","7.45","0.658","2.615","0.14","0.1","29.6449","4.67833","18.37","0","SATNPRO1962","22.376","0.3134","5"],
    [30585,"HCEP03730560","2024-08-11 21:15:00","10.563","3.32774","27.4","1.747","7.45","0.601","2.614","0.11","0.14","29.6476","4.67865","18.94","0","SATNPRO1962","22.458000000000002","0.31456","5"],
    [30586,"HCEP03730560","2024-08-11 21:30:00","10.5667","3.32824","27.376","1.784","7.46","0.704","2.919","0.21","0.49","29.6496","4.67887","19.35","0","SATNPRO1962","22.6","0.31654","5"],
    [30587,"HCEP03730560","2024-08-11 21:45:00","10.5736","3.32942","27.359","1.803","7.46","0.717","3.193","0.12","0.28","29.6556","4.67962","19.55","0","SATNPRO1962","22.576","0.31622","5"],
    [30588,"HCEP03730560","2024-08-11 22:00:00","10.5763","3.32959","27.325","1.848","7.46","0.627","2.82","0.14","0.15","29.6552","4.67952","20.04","0","SATNPRO1962","22.778","0.31902","5"],
    [30589,"HCEP03730560","2024-08-11 22:15:00","10.5845","3.33068","27.26","1.927","7.47","0.767","2.891","0.13","0.2","29.659300000000002","4.67996","20.9","0","SATNPRO1962","23.066","0.32308","5"],
    [30590,"HCEP03730560","2024-08-11 22:30:00","10.6001","3.33269","27.196","2.023","7.48","0.96","3.493","0.33","0.17","29.6664","4.68073","21.95","0","SATNPRO1962","23.198","0.32496","5"],
    [30591,"HCEP03730560","2024-08-11 22:45:00","10.606","3.33341","27.116","2.099","7.48","0.859","3.421","0.15","0.13","29.6688","4.68097","22.78","0","SATNPRO1962","23.362000000000002","0.32722","5"],
    [30592,"HCEP03730560","2024-08-11 23:00:00","10.6115","3.33399","27.015","2.181","7.49","1.015","4.206","0.24","0.57","29.6701","4.68107","23.67","0","SATNPRO1962","23.424","0.32812","5"],
    [30593,"HCEP03730560","2024-08-11 23:15:00","10.6135","3.33428","26.902","2.222","7.49","0.982","3.806","0.15","0.25","29.6713","4.6812","24.11","0","SATNPRO1962","23.492","0.32904","5"],
    [30594,"HCEP03730560","2024-08-11 23:30:00","10.6133","3.33436","26.785","2.229","7.49","0.892","3.986","0.12","0.19","29.6724","4.68135","24.19","0","SATNPRO1962","23.556","0.32996","5"],
    [30595,"HCEP03730560","2024-08-11 23:45:00","10.614","3.33454","26.661","2.235","7.5","0.939","4.132","0.19","0.54","29.6736","4.6815","24.26","0","SATNPRO1962","23.816","0.33358","5"],
    [30596,"HCEP03730560","2024-08-12 00:00:00","10.6147","3.33475","26.525","2.26","7.5","0.935","4.168","0.15","0.14","29.6752","4.68171","24.53","0","SATNPRO1962","23.638","0.3311","5"],
    [30597,"HCEP03730560","2024-08-12 00:15:00","10.6155","3.33487","26.382","2.284","7.5","0.898","4.061","0.15","0.23","29.6757","4.68177","24.79","0","SATNPRO1962","23.716","0.33218","5"],
    [30598,"HCEP03730560","2024-08-12 00:30:00","10.6165","3.33496","26.228","2.297","7.5","0.918","4.065","0.34","0.26","29.6759","4.68177","24.94","0","SATNPRO1962","23.802","0.3334","5"],
    [30599,"HCEP03730560","2024-08-12 00:45:00","10.6167","3.33494","26.072","2.301","7.5","0.947","4.021","0.25","0.21","29.6756","4.68171","24.97","0","SATNPRO1962","23.714","0.33216","5"],
    [30600,"HCEP03730560","2024-08-12 01:00:00","10.6193","3.33503","25.91","2.306","7.5","0.963","3.77","0.43","0.11","29.6744","4.6815","25.03","0","SATNPRO1962","23.634","0.33106","5"],
    [30601,"HCEP03730560","2024-08-12 01:15:00","10.6193","3.33495","25.749","2.303","7.5","1.256","3.847","0.28","0.27","29.6737","4.68138","25","0","SATNPRO1962","23.669999999999998","0.33154","5"],
    [30602,"HCEP03730560","2024-08-12 01:30:00","10.6212","3.33503","25.588","2.291","7.5","0.783","3.924","0.2","0.29","29.673","4.68124","24.87","0","SATNPRO1962","23.424","0.3281","5"],
    [30603,"HCEP03730560","2024-08-12 01:45:00","10.6229","3.33505","25.442","2.297","7.5","0.795","3.507","0.18","0.1","29.6719","4.68105","24.94","0","SATNPRO1962","23.477999999999998","0.32884","5"],
    [30604,"HCEP03730560","2024-08-12 02:00:00","10.6222","3.33502","25.3","2.296","7.5","0.927","4.079","0.35","1.01","29.6722","4.6811","24.93","0","SATNPRO1962","23.524","0.32948","5"],
    [30605,"HCEP03730560","2024-08-12 02:15:00","10.6224","3.33509","25.174","2.297","7.5","0.906","3.902","0.22","0.24","29.6728","4.68117","24.93","0","SATNPRO1962","23.51","0.32934","5"],
    [30606,"HCEP03730560","2024-08-12 02:30:00","10.623","3.33515","25.06","2.302","7.5","0.839","3.772","0.2","0.25","29.6729","4.68117","24.99","0","SATNPRO1962","23.518","0.32944","5"],
    [30607,"HCEP03730560","2024-08-12 02:45:00","10.6243","3.33528","24.966","2.314","7.5","0.891","3.811","0.18","0.43","29.6732","4.6812","25.13","0","SATNPRO1962","23.554000000000002","0.3299","5"],
    [30608,"HCEP03730560","2024-08-12 03:00:00","10.6252","3.33522","24.888","2.312","7.5","0.967","4.196","0.19","0.43","29.6719","4.68099","25.1","0","SATNPRO1962","23.608","0.33066","5"],
    [30609,"HCEP03730560","2024-08-12 03:15:00","10.6256","3.33559","24.821","2.325","7.51","0.989","3.746","0.25","0.22","29.6752","4.68145","25.24","0","SATNPRO1962","23.77","0.33294","5"],
    [30610,"HCEP03730560","2024-08-12 03:30:00","10.625","3.33564","24.82","2.35","7.51","0.905","4.27","0.16","0.21","29.6763","4.68161","25.51","0","SATNPRO1962","23.746","0.33258","5"],
    [30611,"HCEP03730560","2024-08-12 03:45:00","10.6306","3.33657","24.803","2.42","7.52","1.08","3.682","0.23","0.28","29.6808","4.68217","26.28","0","SATNPRO1962","24.046","0.3368","5"],
    [30612,"HCEP03730560","2024-08-12 04:00:00","10.6361","3.33745","24.796","2.605","7.53","0.976","3.714","0.14","0.21","29.6851","4.68268","28.29","0","SATNPRO1962","24.400000000000002","0.34178","5"],
    [30613,"HCEP03730560","2024-08-12 04:15:00","10.6401","3.33829","24.833","2.815","7.55","1.193","3.643","0.21","0.34","29.6901","4.68334","30.58","0","SATNPRO1962","25.026","0.35054","5"],
    [30614,"HCEP03730560","2024-08-12 04:30:00","10.6807","3.34069","24.862","3.109","7.58","1.188","2.663","0.27","0.16","29.6807","4.68137","33.8","0","SATNPRO1962","26.098","0.36556","5"],
    [30615,"HCEP03730560","2024-08-12 04:45:00","10.6563","3.31636","24.891","3.335","7.59","1.163","2.799","0.21","0.28","29.461","4.65045","36.19","0","SATNPRO1962","26.03","0.36458","5"],
    [30616,"HCEP03730560","2024-08-12 05:00:00","10.6503","3.3273","24.937","3.331","7.59","1.051","3.169","0.27","0.15","29.5735","4.66657","36.16","0","SATNPRO1962","25.896","0.36272","5"],
    [30617,"HCEP03730560","2024-08-12 05:15:00","10.6401","3.32946","24.989","3.268","7.58","1.259","3.603","0.2","0.15","29.603","4.67095","35.47","0","SATNPRO1962","25.61","0.35874","5"],
    [30618,"HCEP03730560","2024-08-12 05:30:00","10.64","3.33164","25.052","3.23","7.59","1.203","3.579","0.28","0.27","29.6245","4.67401","35.07","0","SATNPRO1962","25.968","0.36376","5"],
    [30619,"HCEP03730560","2024-08-12 05:45:00","10.6428","3.33274","25.152","3.283","7.59","1.313","3.245","0.52","0.19","29.6331","4.6752","35.65","0","SATNPRO1962","26.652","0.3733","5"],
    [30620,"HCEP03730560","2024-08-12 06:00:00","10.6464","3.33377","25.236","3.333","7.6","1.27","3.474","0.29","0.42","29.6403","4.67617","36.19","0","SATNPRO1962","26.195999999999998","0.36686","5"],
    [30621,"HCEP03730560","2024-08-12 06:15:00","10.6388","3.33379","25.352","3.295","7.59","1.299","3.665","0.24","0.44","29.6465","4.67719","35.78","0","SATNPRO1962","26.934","0.37722","5"],
    [30622,"HCEP03730560","2024-08-12 06:30:00","10.6419","3.33369","25.447","3.247","7.59","1.216","3.265","0.14","0.23","29.6431","4.67665","35.26","0","SATNPRO1962","26.192","0.36684","5"],
    [30623,"HCEP03730560","2024-08-12 06:45:00","10.6435","3.33954","25.544","3.292","7.6","1.247","2.952","0.18","0.19","29.6994","4.68465","35.76","0","SATNPRO1962","26.296","0.36832","5"],
    [30624,"HCEP03730560","2024-08-12 07:00:00","10.6449","3.33949","25.638","3.351","7.6","1.33","3.207","0.35","0.37","29.6977","4.6844","36.4","0","SATNPRO1962","26.088","0.36542","5"],
    [30625,"HCEP03730560","2024-08-12 07:15:00","10.6456","3.33476","25.755","3.302","7.59","1.369","3.307","0.53","0.18","29.6504","4.67766","35.87","0","SATNPRO1962","26.026","0.36452","5"],
    [30626,"HCEP03730560","2024-08-12 07:30:00","10.6464","3.33933","25.779","3.229","7.59","1.183","3.359","0.26","0.16","29.6948","4.68396","35.08","0","SATNPRO1962","25.976","0.36386","5"],
    [30627,"HCEP03730560","2024-08-12 07:45:00","10.6402","3.33808","25.892","3.086","7.57","1.285","3.635","0.25","0.18","29.6875","4.68303","33.51","0","SATNPRO1962","25.042","0.35072","5"],
    [30628,"HCEP03730560","2024-08-12 08:00:00","10.6398","3.33784","26.008","2.87","7.56","1.229","4.122","0.24","0.31","29.6854","4.68274","31.17","0","SATNPRO1962","25.386","0.3556","5"],
    [30629,"HCEP03730560","2024-08-12 08:15:00","10.6462","3.33851","26.117","2.863","7.56","1.457","3.284","0.54","0.36","29.6868","4.68284","31.1","0","SATNPRO1962","25.752","0.3607","5"],
    [30630,"HCEP03730560","2024-08-12 08:30:00","10.6555","3.33954","26.239","3.056","7.58","1.107","2.427","0.31","0.16","29.6893","4.68306","33.21","0","SATNPRO1962","26.6","0.37258","5"],
    [30631,"HCEP03730560","2024-08-12 08:45:00","10.6591","3.3401","26.339","3.319","7.6","1.343","2.625","0.25","0.19","29.6919","4.68338","36.06","0","SATNPRO1962","26.888","0.3766","5"],
    [30632,"HCEP03730560","2024-08-12 09:00:00","10.6558","3.3398","26.44","3.43","7.6","1.242","2.282","0.23","0.2","29.6916","4.68339","37.27","0","SATNPRO1962","26.994","0.37806","5"],
    [30633,"HCEP03730560","2024-08-12 09:15:00","10.6557","3.33986","26.518","3.461","7.61","1.169","2.287","0.15","0.1","29.6922","4.68349","37.6","0","SATNPRO1962","26.490000000000002","0.37104","5"],
    [30634,"HCEP03730560","2024-08-12 09:30:00","10.6585","3.34022","26.57","3.509","7.61","1.314","1.866","0.32","0.11","29.6934","4.68362","38.13","0","SATNPRO1962","27.012","0.37836","5"],
    [30635,"HCEP03730560","2024-08-12 09:45:00","10.662","3.34066","26.636","3.594","7.62","1.243","1.616","0.23","0.11","29.6949","4.68378","39.06","0","SATNPRO1962","27.246","0.3816","5"],
    [30636,"HCEP03730560","2024-08-12 10:00:00","10.6632","3.34057","26.707","3.639","7.62","1.145","1.802","0.16","0.11","29.6931","4.68351","39.54","0","SATNPRO1962","26.114","0.36576","5"],
    [30637,"HCEP03730560","2024-08-12 10:15:00","10.6623","3.34026","26.719","3.543","7.62","1.225","1.9","0.21","0.14","29.6907","4.68319","38.5","0","SATNPRO1962","26.552","0.3719","5"],
    [30638,"HCEP03730560","2024-08-12 10:30:00","10.6656","3.34035","26.742","3.504","7.62","1.398","1.797","0.39","0.11","29.6889","4.68287","38.08","0","SATNPRO1962","26.714","0.37418","5"],
    [30639,"HCEP03730560","2024-08-12 10:45:00","10.6688","3.34065","26.758","3.506","7.62","1.476","2.021","0.29","0.13","29.6892","4.68287","38.1","0","SATNPRO1962","26.594","0.3725","5"],
    [30640,"HCEP03730560","2024-08-12 11:00:00","10.6625","3.3401","26.771","3.418","7.6","1.364","2.822","0.25","0.47","29.6889","4.68293","37.14","0","SATNPRO1962","26.024","0.36452","5"],
    [30641,"HCEP03730560","2024-08-12 11:15:00","10.6568","3.33963","26.762","3.275","7.59","1.425","3.216","0.25","0.13","29.6889","4.68302","35.58","0","SATNPRO1962","25.752","0.36072","5"],
    [30642,"HCEP03730560","2024-08-12 11:30:00","10.6545","3.33952","26.745","3.189","7.59","1.359","3.436","0.19","0.39","29.6897","4.68317","34.65","0","SATNPRO1962","25.76","0.3608","5"],
    [30643,"HCEP03730560","2024-08-12 11:45:00","10.6552","3.33951","26.741","3.161","7.59","1.372","3.153","0.31","0.2","29.689","4.68306","34.35","0","SATNPRO1962","25.78","0.36108","5"],
    [30644,"HCEP03730560","2024-08-12 12:00:00","10.6542","3.33946","26.717","3.145","7.58","1.281","3.056","0.16","0.14","29.6894","4.68312","34.18","0","SATNPRO1962","25.732","0.36042","5"],
    [30645,"HCEP03730560","2024-08-12 12:15:00","10.6539","3.33938","26.705","3.128","7.58","1.293","3.157","0.2","0.74","29.6888","4.68304","33.99","0","SATNPRO1962","25.598","0.35852","5"],
    [30646,"HCEP03730560","2024-08-12 12:30:00","10.6508","3.33931","26.696","3.112","7.58","1.332","3.408","0.41","0.52","29.6907","4.68336","33.82","0","SATNPRO1962","25.666","0.35944","5"],
    [30647,"HCEP03730560","2024-08-12 12:45:00","10.6486","3.33924","26.664","3.105","7.58","1.204","3.149","0.21","0.48","29.6918","4.68355","33.73","0","SATNPRO1962","25.614","0.35876","5"],
    [30648,"HCEP03730560","2024-08-12 13:00:00","10.649","3.33918","26.643","3.102","7.58","1.214","3.17","0.26","0.14","29.6909","4.68341","33.7","0","SATNPRO1962","25.432","0.35626","5"],
    [30649,"HCEP03730560","2024-08-12 13:15:00","10.6477","3.33921","26.619","3.098","7.58","1.162","3.056","0.14","0.11","29.6922","4.68361","33.66","0","SATNPRO1962","25.57","0.35816","5"],
    [30650,"HCEP03730560","2024-08-12 13:30:00","10.6504","3.33921","26.565","3.103","7.58","1.068","2.957","0.13","0.18","29.6901","4.68327","33.71","0","SATNPRO1962","25.57","0.35818","5"],
    [30651,"HCEP03730560","2024-08-12 13:45:00","10.6496","3.33927","26.527","3.112","7.58","1.204","2.785","0.27","0.19","29.6913","4.68345","33.81","0","SATNPRO1962","25.642","0.35918","5"],
    [30652,"HCEP03730560","2024-08-12 14:00:00","10.6464","3.3393","26.482","3.14","7.58","1.057","3.128","0.18","0.57","29.6942","4.68392","34.11","0","SATNPRO1962","25.716","0.3602","5"],
    [30653,"HCEP03730560","2024-08-12 14:15:00","10.6425","3.33899","26.451","3.134","7.58","1.104","3.067","0.2","0.23","29.6943","4.68399","34.04","0","SATNPRO1962","25.582","0.35832","5"],
    [30654,"HCEP03730560","2024-08-12 14:30:00","10.638","3.33858","26.445","3.071","7.57","1.091","3.511","0.19","0.3","29.6939","4.68401","33.35","0","SATNPRO1962","22.966","0.32164","5"],
    [30655,"HCEP03730560","2024-08-12 14:45:00","10.6357","3.33849","26.4","3.003","7.57","1.158","3.5","0.17","0.25","29.695","4.6842","32.61","0","SATNPRO1962","25.358","0.35518","5"],
    [30656,"HCEP03730560","2024-08-12 15:00:00","10.6342","3.33844","26.368","2.97","7.57","1.136","3.742","0.16","0.36","29.6958","4.68433","32.25","0","SATNPRO1962","25.402","0.3558","5"],
    [30657,"HCEP03730560","2024-08-12 15:15:00","10.6315","3.33828","26.35","2.943","7.56","1.15","3.611","0.23","0.34","29.6963","4.68445","31.96","0","SATNPRO1962","25.172","0.35256","5"],
    [30658,"HCEP03730560","2024-08-12 15:30:00","10.6281","3.3379","26.339","2.891","7.56","1.111","3.898","0.16","0.3","29.6954","4.68436","31.39","0","SATNPRO1962","25.014","0.35036","5"],
    [30659,"HCEP03730560","2024-08-12 15:45:00","10.6257","3.33751","26.334","2.818","7.55","1.171","3.565","0.26","0.19","29.6935","4.68414","30.59","0","SATNPRO1962","24.924","0.34908","5"],
    [30660,"HCEP03730560","2024-08-12 16:00:00","10.6253","3.33746","26.357","2.763","7.55","1.079","3.653","0.22","0.19","29.6933","4.68412","30","0","SATNPRO1962","24.788","0.34718","5"],
    [30661,"HCEP03730560","2024-08-12 16:15:00","10.6257","3.33733","26.369","2.731","7.55","1.08","3.7","0.22","0.31","29.6917","4.68388","29.65","0","SATNPRO1962","24.924","0.3491","5"],
    [30662,"HCEP03730560","2024-08-12 16:30:00","10.6268","3.33672","26.385","2.689","7.54","0.955","3.16","0.27","0.21","29.6848","4.68287","29.19","0","SATNPRO1962","24.608","0.34464","5"],
    [30663,"HCEP03730560","2024-08-12 16:45:00","10.6157","3.33502","26.412","2.539","7.52","0.759","3.142","0.14","0.49","29.6771","4.68196","27.56","0","SATNPRO1962","24.174","0.33862","5"],
    [30664,"HCEP03730560","2024-08-12 17:00:00","10.6179","3.33554","26.445","2.416","7.52","0.854","3.419","0.19","0.48","29.6804","4.68239","26.23","0","SATNPRO1962","24.198","0.33894","5"],
    [30665,"HCEP03730560","2024-08-12 17:15:00","10.6158","3.33532","26.494","2.395","7.52","0.806","3.015","0.26","0.11","29.6798","4.68235","26","0","SATNPRO1962","24.58","0.34428","5"],
    [30666,"HCEP03730560","2024-08-12 17:30:00","10.6172","3.33597","26.551","2.409","7.52","0.744","3.271","0.15","0.23","29.6851","4.68309","26.15","0","SATNPRO1962","24.162","0.3384","5"],
    [30667,"HCEP03730560","2024-08-12 17:45:00","10.6148","3.33529","26.601","2.415","7.51","0.811","3.184","0.4","0.29","29.6804","4.68245","26.22","0","SATNPRO1962","24.326","0.34074","5"],
    [30668,"HCEP03730560","2024-08-12 18:00:00","10.6159","3.33578","26.669","2.397","7.52","0.739","3.043","0.11","0.16","29.6843","4.68299","26.02","0","SATNPRO1962","24.419999999999998","0.34206","5"],
    [30669,"HCEP03730560","2024-08-12 18:15:00","10.619","3.26255","26.731","2.457","7.52","0.789","2.99","0.19","0.59","28.961","4.57979","26.55","0","SATNPRO1962","24.47","0.34276","5"],
    [30670,"HCEP03730560","2024-08-12 18:30:00","10.6221","3.27255","26.808","2.514","7.53","0.883","3.41","0.14","0.23","29.0568","4.59343","27.18","0","SATNPRO1962","24.772","0.34694","5"],
    [30671,"HCEP03730560","2024-08-12 18:45:00","10.6202","3.3369","26.897","2.569","7.53","0.942","3.641","0.11","0.16","29.6917","4.684","27.89","0","SATNPRO1962","24.854","0.34812","5"],
    [30672,"HCEP03730560","2024-08-12 19:00:00","10.6201","3.33712","26.992","2.613","7.53","1.014","3.851","0.15","0.16","29.6939","4.68432","28.36","0","SATNPRO1962","24.668","0.34552","5"],
    [30673,"HCEP03730560","2024-08-12 19:15:00","10.6207","3.3363","27.096","2.624","7.53","1.07","4.062","0.14","0.48","29.6854","4.6831","28.49","0","SATNPRO1962","24.916","0.349","5"],
    [30674,"HCEP03730560","2024-08-12 19:30:00","10.6216","3.33608","27.154","2.664","7.54","0.978","3.955","0.15","0.35","29.6824","4.68267","28.92","0","SATNPRO1962","24.946","0.34942","5"],
    [30675,"HCEP03730560","2024-08-12 19:45:00","10.6226","3.33674","27.172","2.706","7.54","1.069","4.051","0.17","0.45","29.6881","4.68346","29.38","0","SATNPRO1962","25.118000000000002","0.3518","5"],
    [30676,"HCEP03730560","2024-08-12 20:00:00","10.6248","3.33789","27.124","2.753","7.54","1.038","3.706","0.15","0.26","29.6976","4.68478","29.89","0","SATNPRO1962","25.174","0.35258","5"],
    [30677,"HCEP03730560","2024-08-12 20:15:00","10.6258","3.33809","27.152","2.798","7.55","1.033","3.771","0.16","0.2","29.6988","4.68493","30.38","0","SATNPRO1962","25.39","0.35566","5"],
    [30678,"HCEP03730560","2024-08-12 20:30:00","10.6266","3.33811","27.197","2.843","7.55","0.992","3.796","0.14","0.16","29.6984","4.68486","30.87","0","SATNPRO1962","25.502","0.3572","5"],
    [30679,"HCEP03730560","2024-08-12 20:45:00","10.624","3.33801","27.228","2.858","7.55","1.024","4.083","0.12","0.18","29.6994","4.68506","31.04","0","SATNPRO1962","25.508","0.35728","5"],
    [30680,"HCEP03730560","2024-08-12 21:00:00","10.6214","3.33784","27.274","2.855","7.55","0.973","4.016","0.14","0.21","29.6998","4.68515","31","0","SATNPRO1962","25.424","0.35612","5"],
    [30681,"HCEP03730560","2024-08-12 21:15:00","10.62","3.33781","27.287","2.854","7.55","0.923","3.51","0.11","0.18","29.7007","4.6853","30.99","0","SATNPRO1962","26.098","0.36554","5"],
    [30682,"HCEP03730560","2024-08-12 21:30:00","10.6204","3.33781","27.303","2.865","7.55","1.043","4.007","0.25","0.31","29.7004","4.68525","31.11","0","SATNPRO1962","27.766","0.3889","5"],
    [30683,"HCEP03730560","2024-08-12 21:45:00","10.6234","3.33784","27.295","2.865","7.55","0.929","3.732","0.11","0.28","29.6982","4.68489","31.11","0","SATNPRO1962","27.422","0.3841","5"],
    [30684,"HCEP03730560","2024-08-12 22:00:00","10.638","3.33791","27.285","2.849","7.55","0.864","3.041","0.18","0.23","29.6871","4.68308","30.94","0","SATNPRO1962","26.548000000000002","0.37188","5"],
    [30685,"HCEP03730560","2024-08-12 22:15:00","10.6591","3.33802","27.271","2.776","7.54","1.075","2.731","0.23","0.16","29.6711","4.68047","30.16","0","SATNPRO1962","25.474","0.35676","5"],
    [30686,"HCEP03730560","2024-08-12 22:30:00","10.6369","3.33839","27.243","2.797","7.55","0.956","3.291","0.24","0.14","29.6927","4.6839","30.38","0","SATNPRO1962","26.322","0.36872","5"],
    [30687,"HCEP03730560","2024-08-12 22:45:00","10.639","3.33853","27.19","2.904","7.56","0.978","3.24","0.16","0.19","29.6924","4.68381","31.54","0","SATNPRO1962","26.492","0.3711","5"],
    [30688,"HCEP03730560","2024-08-12 23:00:00","10.6387","3.33861","27.127","2.935","7.56","1.434","5.604","0.47","2.32","29.6935","4.68398","31.88","0","SATNPRO1962","25.902","0.36278","5"],
    [30689,"HCEP03730560","2024-08-12 23:15:00","10.6402","3.3387","27.048","2.941","7.56","1.07","3.629","0.21","0.37","29.6931","4.68389","31.94","0","SATNPRO1962","25.93","0.36318","5"],
    [30690,"HCEP03730560","2024-08-12 23:30:00","10.6416","3.33877","26.973","2.94","7.56","1.105","3.447","0.29","0.18","29.6928","4.68381","31.94","0","SATNPRO1962","25.971999999999998","0.36374","5"],
    [30691,"HCEP03730560","2024-08-12 23:45:00","10.6433","3.33881","26.863","2.946","7.56","0.989","3.594","0.13","0.4","29.6918","4.68365","32","0","SATNPRO1962","25.932","0.36322","5"],
    [30692,"HCEP03730560","2024-08-13 00:00:00","10.6447","3.33885","26.751","2.936","7.56","1.028","3.464","0.16","0.3","29.691","4.68351","31.9","0","SATNPRO1962","25.817999999999998","0.36164","5"],
    [30693,"HCEP03730560","2024-08-13 00:15:00","10.6461","3.33889","26.647","2.925","7.56","1.043","3.683","0.18","0.33","29.6904","4.68339","31.77","0","SATNPRO1962","25.768","0.36092","5"],
    [30694,"HCEP03730560","2024-08-13 00:30:00","10.6474","3.33893","26.518","2.917","7.56","1.046","3.672","0.25","0.4","29.6898","4.68328","31.68","0","SATNPRO1962","25.772","0.361","5"],
    [30695,"HCEP03730560","2024-08-13 00:45:00","10.6492","3.33902","26.383","2.906","7.56","1.147","3.807","0.3","0.26","29.6893","4.68316","31.57","0","SATNPRO1962","25.696","0.3599","5"],
    [30696,"HCEP03730560","2024-08-13 01:00:00","10.6512","3.33908","26.232","2.913","7.56","1.092","3.78","0.72","0.23","29.6882","4.68298","31.64","0","SATNPRO1962","25.490000000000002","0.35704","5"],
    [30697,"HCEP03730560","2024-08-13 01:15:00","10.6524","3.33922","26.082","2.921","7.56","1.002","3.538","0.17","0.23","29.6887","4.68302","31.74","0","SATNPRO1962","25.74","0.36052","5"],
    [30698,"HCEP03730560","2024-08-13 01:30:00","10.6592","3.33975","25.944","2.981","7.57","1.061","3.471","0.32","0.21","29.6885","4.68287","32.39","0","SATNPRO1962","25.676","0.35966","5"],
    [30699,"HCEP03730560","2024-08-13 01:45:00","10.6553","3.33937","25.791","3.002","7.56","1.126","3.572","0.19","0.23","29.688","4.68285","32.62","0","SATNPRO1962","25.82","0.36164","5"],
    [30700,"HCEP03730560","2024-08-13 02:00:00","10.6584","3.33966","25.629","2.991","7.57","1.112","3.279","0.19","0.31","29.6883","4.68284","32.5","0","SATNPRO1962","26.308","0.3685","5"],
    [30701,"HCEP03730560","2024-08-13 02:15:00","10.6562","3.33959","25.484","3.052","7.57","1.34","3.82","0.68","0.26","29.6895","4.68304","33.16","0","SATNPRO1962","25.616","0.3588","5"],
    [30702,"HCEP03730560","2024-08-13 02:30:00","10.6508","3.33921","25.339","2.997","7.56","1.091","3.814","0.15","0.61","29.6903","4.68322","32.56","0","SATNPRO1962","25.714","0.36016","5"],
    [30703,"HCEP03730560","2024-08-13 02:45:00","10.6496","3.3392","25.207","2.954","7.56","1.087","3.541","0.25","0.18","29.6911","4.68336","32.09","0","SATNPRO1962","25.762","0.36082","5"],
    [30704,"HCEP03730560","2024-08-13 03:00:00","10.6514","3.33946","25.096","2.984","7.57","1.08","3.224","0.16","0.25","29.6923","4.68349","32.42","0","SATNPRO1962","25.65","0.35926","5"],
    [30705,"HCEP03730560","2024-08-13 03:15:00","10.6515","3.33951","24.986","3.035","7.57","1.148","3.356","0.29","0.26","29.6928","4.68355","32.97","0","SATNPRO1962","26.482","0.37092","5"],
    [30706,"HCEP03730560","2024-08-13 03:30:00","10.6498","3.33932","24.884","3.029","7.57","1.197","3.627","0.24","0.31","29.6923","4.6835","32.91","0","SATNPRO1962","25.568","0.35812","5"],
    [30707,"HCEP03730560","2024-08-13 03:45:00","10.6482","3.33925","24.815","2.986","7.56","1.11","3.967","0.17","0.74","29.693","4.68362","32.44","0","SATNPRO1962","25.534","0.35764","5"],
    [30708,"HCEP03730560","2024-08-13 04:00:00","10.649","3.3394","24.755","2.982","7.57","1.186","3.593","0.26","0.29","29.6938","4.68372","32.4","0","SATNPRO1962","25.68","0.35968","5"],
    [30709,"HCEP03730560","2024-08-13 04:15:00","10.6516","3.33974","24.71","3.075","7.58","1.1","3.044","0.24","0.26","29.695","4.68385","33.41","0","SATNPRO1962","26.052","0.36488","5"],
    [30710,"HCEP03730560","2024-08-13 04:30:00","10.65","3.33962","24.665","3.125","7.58","1.136","3.147","0.17","0.18","29.6952","4.6839","33.96","0","SATNPRO1962","26","0.36416","5"],
    [30711,"HCEP03730560","2024-08-13 04:45:00","10.6493","3.33951","24.651","3.112","7.57","1.164","3.076","0.18","0.35","29.6946","4.68383","33.81","0","SATNPRO1962","25.93","0.3632","5"],
    [30712,"HCEP03730560","2024-08-13 05:00:00","10.6485","3.33938","24.648","3.066","7.57","1.235","3.527","0.32","0.42","29.694","4.68376","33.31","0","SATNPRO1962","25.622","0.3589","5"],
    [30713,"HCEP03730560","2024-08-13 05:15:00","10.6481","3.33925","24.664","3.008","7.57","1.161","3.372","0.23","0.21","29.6931","4.68363","32.68","0","SATNPRO1962","25.57","0.35814","5"],
    [30714,"HCEP03730560","2024-08-13 05:30:00","10.6469","3.33913","24.693","2.962","7.56","1.267","3.781","0.27","0.28","29.6928","4.68361","32.18","0","SATNPRO1962","25.486","0.35696","5"],
    [30715,"HCEP03730560","2024-08-13 05:45:00","10.6439","3.3389","24.727","2.934","7.56","1.286","3.544","0.3","0.29","29.693","4.68369","31.87","0","SATNPRO1962","25.334","0.35486","5"],
    [30716,"HCEP03730560","2024-08-13 06:00:00","10.6338","3.33817","24.769","2.907","7.56","1.127","3.267","0.17","0.18","29.694","4.68399","31.58","0","SATNPRO1962","25.45","0.35646","5"],
    [30717,"HCEP03730560","2024-08-13 06:15:00","10.6253","3.33773","24.827","2.883","7.56","1.037","2.966","0.21","0.37","29.6966","4.6845","31.31","0","SATNPRO1962","25.742","0.36054","5"],
    [30718,"HCEP03730560","2024-08-13 06:30:00","10.621","3.33751","24.912","2.853","7.55","1.12","3.056","0.37","0.22","29.6979","4.68475","30.98","0","SATNPRO1962","25.538","0.35768","5"],
    [30719,"HCEP03730560","2024-08-13 06:45:00","10.6194","3.33742","24.995","2.819","7.55","0.99","3.191","0.16","0.2","29.6983","4.68485","30.6","0","SATNPRO1962","25.52","0.35742","5"],
    [30720,"HCEP03730560","2024-08-13 07:00:00","10.6178","3.33736","25.081","2.788","7.55","1.21","3.545","0.21","0.2","29.6989","4.68496","30.27","0","SATNPRO1962","25.412","0.35594","5"],
    [30721,"HCEP03730560","2024-08-13 07:15:00","10.6136","3.33714","25.181","2.749","7.54","1.094","3.608","0.25","0.43","29.7001","4.6852","29.84","0","SATNPRO1962","25.378","0.35546","5"],
    [30722,"HCEP03730560","2024-08-13 07:30:00","10.6112","3.337","25.286","2.697","7.54","0.981","3.625","0.17","0.22","29.7006","4.68532","29.27","0","SATNPRO1962","25.21","0.35312","5"],
    [30723,"HCEP03730560","2024-08-13 07:45:00","10.6093","3.33682","25.409","2.648","7.54","1.152","3.616","0.28","0.18","29.7004","4.68533","28.74","0","SATNPRO1962","25.108","0.3517","5"],
    [30724,"HCEP03730560","2024-08-13 08:00:00","10.6034","3.3366","25.52","2.618","7.53","0.923","3.167","0.2","0.17","29.703","4.6858","28.42","0","SATNPRO1962","25.002","0.35016","5"],
    [30725,"HCEP03730560","2024-08-13 08:15:00","10.6062","3.33667","25.599","2.611","7.53","0.936","3.416","0.24","0.18","29.7013","4.68551","28.34","0","SATNPRO1962","25.062","0.35102","5"],
    [30726,"HCEP03730560","2024-08-13 08:30:00","10.6108","3.33688","25.749","2.623","7.53","0.858","3.419","0.13","0.49","29.6996","4.6852","28.47","0","SATNPRO1962","25.044","0.35078","5"],
    [30727,"HCEP03730560","2024-08-13 08:45:00","10.6124","3.33682","25.854","2.641","7.53","0.971","3.382","0.16","0.54","29.6977","4.68492","28.67","0","SATNPRO1962","25.262","0.35382","5"],
    [30728,"HCEP03730560","2024-08-13 09:00:00","10.6155","3.33706","25.964","2.652","7.53","0.982","3.371","0.17","0.2","29.6974","4.68483","28.79","0","SATNPRO1962","25.334","0.35484","5"],
    [30729,"HCEP03730560","2024-08-13 09:15:00","10.619","3.33724","26.09","2.669","7.54","0.967","3.201","0.17","0.19","29.6964","4.68464","28.98","0","SATNPRO1962","25.354","0.3551","5"],
    [30730,"HCEP03730560","2024-08-13 09:30:00","10.6248","3.33749","26.24","2.682","7.54","1.078","3.474","0.26","0.22","29.6941","4.68422","29.12","0","SATNPRO1962","25.188","0.3528","5"],
    [30731,"HCEP03730560","2024-08-13 09:45:00","10.626","3.33758","26.344","2.683","7.54","1.175","3.563","0.52","0.21","29.694","4.6842","29.13","0","SATNPRO1962","25.282","0.35414","5"],
    [30732,"HCEP03730560","2024-08-13 10:00:00","10.6234","3.33772","26.453","2.705","7.54","1.219","3.779","0.23","0.4","29.6973","4.68472","29.37","0","SATNPRO1962","25.512","0.35732","5"],
    [30733,"HCEP03730560","2024-08-13 10:15:00","10.623","3.33781","26.555","2.754","7.54","1.149","3.653","0.18","0.54","29.6985","4.68491","29.9","0","SATNPRO1962","25.442","0.35638","5"],
    [30734,"HCEP03730560","2024-08-13 10:30:00","10.625","3.33794","26.643","2.791","7.55","1.19","3.576","0.28","0.39","29.6982","4.68483","30.31","0","SATNPRO1962","25.602","0.35856","5"],
    [30735,"HCEP03730560","2024-08-13 10:45:00","10.6284","3.33816","26.716","2.821","7.55","1.098","3.233","0.2","0.22","29.6975","4.68468","30.64","0","SATNPRO1962","25.742","0.3606","5"],
    [30736,"HCEP03730560","2024-08-13 11:00:00","10.6266","3.33829","26.78","2.859","7.55","1.051","3.279","0.16","0.18","29.7002","4.6851","31.04","0","SATNPRO1962","25.812","0.36152","5"],
    [30737,"HCEP03730560","2024-08-13 11:15:00","10.638","3.33884","26.824","2.899","7.56","1.302","3.254","0.95","0.32","29.6965","4.68439","31.49","0","SATNPRO1962","25.836","0.36186","5"],
    [30738,"HCEP03730560","2024-08-13 11:30:00","10.6331","3.33881","26.865","2.933","7.56","1.186","3.34","0.23","0.2","29.7","4.68497","31.85","0","SATNPRO1962","25.748","0.36064","5"],
    [30739,"HCEP03730560","2024-08-13 11:45:00","10.6307","3.33888","26.896","2.964","7.56","1.169","3.44","0.24","0.4","29.7027","4.6854","32.19","0","SATNPRO1962","25.864","0.3623","5"],
    [30740,"HCEP03730560","2024-08-13 12:00:00","10.6311","3.33913","26.923","2.999","7.57","1.148","3.359","0.15","0.23","29.7048","4.68569","32.57","0","SATNPRO1962","25.990000000000002","0.36402","5"],
    [30741,"HCEP03730560","2024-08-13 12:15:00","10.6317","3.33931","26.923","3.054","7.57","1.241","3.317","0.23","0.31","29.7061","4.68587","33.17","0","SATNPRO1962","26.073999999999998","0.36518","5"],
    [30742,"HCEP03730560","2024-08-13 12:30:00","10.6302","3.33935","26.944","3.087","7.57","1.224","3.609","0.21","0.28","29.7077","4.68612","33.52","0","SATNPRO1962","26.162","0.36644","5"],
    [30743,"HCEP03730560","2024-08-13 12:45:00","10.629","3.33936","26.942","3.116","7.58","1.222","3.326","0.19","0.27","29.7087","4.68629","33.84","0","SATNPRO1962","26.428","0.37018","5"],
    [30744,"HCEP03730560","2024-08-13 13:00:00","10.6294","3.33946","26.949","3.152","7.58","1.256","3.413","0.22","0.32","29.7095","4.68639","34.24","0","SATNPRO1962","26.504","0.3712","5"],
    [30745,"HCEP03730560","2024-08-13 13:15:00","10.629","3.33948","26.962","3.196","7.58","1.201","3.061","0.2","0.23","29.71","4.68647","34.72","0","SATNPRO1962","26.478","0.37084","5"],
    [30746,"HCEP03730560","2024-08-13 13:30:00","10.6274","3.33949","26.962","3.217","7.59","1.161","3.231","0.17","0.23","29.7114","4.68669","34.94","0","SATNPRO1962","26.298","0.36834","5"],
    [30747,"HCEP03730560","2024-08-13 13:45:00","10.6267","3.3395","26.953","3.237","7.59","1.257","3.35","0.17","0.28","29.712","4.68679","35.15","0","SATNPRO1962","26.504","0.37124","5"],
    [30748,"HCEP03730560","2024-08-13 14:00:00","10.6259","3.33958","26.943","3.267","7.59","1.195","3.52","0.16","0.45","29.7136","4.68702","35.48","0","SATNPRO1962","26.722","0.3743","5"],
    [30749,"HCEP03730560","2024-08-13 14:15:00","10.6253","3.33966","26.913","3.315","7.6","1.191","3.107","0.23","0.3","29.7148","4.68721","36","0","SATNPRO1962","26.902","0.37678","5"],
    [30750,"HCEP03730560","2024-08-13 14:30:00","10.6255","3.33968","26.891","3.349","7.6","1.142","2.946","0.23","0.22","29.7148","4.6872","36.37","0","SATNPRO1962","26.908","0.37688","5"],
    [30751,"HCEP03730560","2024-08-13 14:45:00","10.6265","3.33971","26.87","3.353","7.6","1.119","3.124","0.16","0.16","29.7144","4.68712","36.41","0","SATNPRO1962","26.956","0.37758","5"],
    [30752,"HCEP03730560","2024-08-13 15:00:00","10.6301","3.33982","26.852","3.369","7.6","1.284","3.21","0.34","0.19","29.7125","4.6868","36.59","0","SATNPRO1962","26.945999999999998","0.37738","5"],
    [30753,"HCEP03730560","2024-08-13 15:15:00","10.6343","3.33996","26.831","3.398","7.6","1.153","3.019","0.15","0.14","29.7104","4.68643","36.9","0","SATNPRO1962","27.05","0.3789","5"],
    [30754,"HCEP03730560","2024-08-13 15:30:00","10.6302","3.33995","26.8","3.413","7.6","1.255","3.464","0.23","0.41","29.7137","4.68696","37.06","0","SATNPRO1962","27.02","0.37848","5"],
    [30755,"HCEP03730560","2024-08-13 15:45:00","10.6226","3.3397","26.766","3.372","7.6","1.352","3.888","0.19","0.27","29.7175","4.68762","36.62","0","SATNPRO1962","26.75","0.37468","5"],
    [30756,"HCEP03730560","2024-08-13 16:00:00","10.622","3.33974","26.738","3.315","7.6","1.306","3.749","0.22","0.45","29.7183","4.68775","35.99","0","SATNPRO1962","26.65","0.37326","5"],
    [30757,"HCEP03730560","2024-08-13 16:15:00","10.6165","3.33938","26.72","3.243","7.59","1.139","3.742","0.18","0.59","29.7193","4.68797","35.21","0","SATNPRO1962","26.356","0.36918","5"],
    [30758,"HCEP03730560","2024-08-13 16:30:00","10.615","3.33924","26.694","3.144","7.58","1.24","3.663","0.21","0.23","29.7191","4.68796","34.14","0","SATNPRO1962","26.136","0.3661","5"],
    [30759,"HCEP03730560","2024-08-13 16:45:00","10.614","3.33911","26.689","3.075","7.58","1.133","3.659","0.18","0.46","29.7186","4.68792","33.39","0","SATNPRO1962","26.136","0.36612","5"],
    [30760,"HCEP03730560","2024-08-13 17:00:00","10.6149","3.33912","26.683","3.037","7.57","1.192","3.658","0.32","0.21","29.718","4.68781","32.98","0","SATNPRO1962","26.07","0.36516","5"],
    [30761,"HCEP03730560","2024-08-13 17:15:00","10.6158","3.33912","26.681","3.03","7.57","1.03","3.409","0.12","0.2","29.7172","4.68769","32.9","0","SATNPRO1962","26.136","0.3661","5"],
    [30762,"HCEP03730560","2024-08-13 17:30:00","10.6179","3.33915","26.706","3.032","7.57","1.037","3.296","0.19","0.16","29.7158","4.68746","32.93","0","SATNPRO1962","26.098","0.36552","5"],
    [30763,"HCEP03730560","2024-08-13 17:45:00","10.6156","3.33904","26.72","3.014","7.57","1.045","3.449","0.18","0.29","29.7166","4.68761","32.73","0","SATNPRO1962","26.104","0.36564","5"],
    [30764,"HCEP03730560","2024-08-13 18:00:00","10.6176","3.33907","26.724","3.002","7.57","1.015","3.327","0.23","0.2","29.7153","4.68739","32.59","0","SATNPRO1962","25.944000000000003","0.36338","5"],
    [30765,"HCEP03730560","2024-08-13 18:15:00","10.6188","3.33901","26.751","3.001","7.57","0.984","3.069","0.16","0.21","29.7137","4.68714","32.59","0","SATNPRO1962","25.974","0.36382","5"],
    [30766,"HCEP03730560","2024-08-13 18:30:00","10.6301","3.33931","26.779","3.039","7.57","0.899","3.087","0.16","0.15","29.7075","4.68609","33","0","SATNPRO1962","26.394","0.3697","5"],
    [30767,"HCEP03730560","2024-08-13 18:45:00","10.6274","3.33905","26.809","3.061","7.57","0.966","2.961","0.14","0.12","29.7071","4.68607","33.25","0","SATNPRO1962","26.01","0.36428","5"],
    [30768,"HCEP03730560","2024-08-13 19:00:00","10.6299","3.33894","26.839","2.995","7.57","0.878","3.184","0.11","0.28","29.7039","4.68558","32.53","0","SATNPRO1962","25.824","0.36172","5"],
    [30769,"HCEP03730560","2024-08-13 19:15:00","10.6223","3.3388","26.958","2.935","7.56","0.975","3.207","0.42","0.27","29.7086","4.68638","31.87","0","SATNPRO1962","25.778000000000002","0.36108","5"],
    [30770,"HCEP03730560","2024-08-13 19:30:00","10.614","3.33873","27.025","2.881","7.56","0.959","3.867","0.16","0.3","29.7148","4.68738","31.28","0","SATNPRO1962","25.568","0.35816","5"],
    [30771,"HCEP03730560","2024-08-13 19:45:00","10.6151","3.33877","27.032","2.862","7.56","0.955","3.273","0.21","0.31","29.7143","4.6873","31.08","0","SATNPRO1962","25.71","0.36012","5"],
    [30772,"HCEP03730560","2024-08-13 20:00:00","10.6152","3.33877","27.082","2.883","7.56","0.873","3.195","0.09","0.15","29.7142","4.68729","31.3","0","SATNPRO1962","25.808","0.36148","5"],
    [30773,"HCEP03730560","2024-08-13 20:15:00","10.6132","3.33884","27.075","2.897","7.56","0.962","3.499","0.08","0.13","29.7165","4.68765","31.46","0","SATNPRO1962","25.814","0.36156","5"],
    [30774,"HCEP03730560","2024-08-13 20:30:00","10.61","3.33885","27.092","2.897","7.56","1.114","4.008","0.19","0.23","29.7192","4.68808","31.46","0","SATNPRO1962","25.701999999999998","0.35998","5"],
    [30775,"HCEP03730560","2024-08-13 20:45:00","10.609","3.3389","27.125","2.898","7.56","1.067","3.535","0.15","0.24","29.7205","4.68828","31.46","0","SATNPRO1962","25.724","0.36034","5"],
    [30776,"HCEP03730560","2024-08-13 21:00:00","10.6079","3.33893","27.142","2.888","7.56","1.138","4.098","0.2","0.48","29.7216","4.68846","31.35","0","SATNPRO1962","25.8","0.3614","5"],
    [30777,"HCEP03730560","2024-08-13 21:15:00","10.6071","3.33893","27.168","2.875","7.56","1.195","4.152","0.21","0.3","29.7222","4.68856","31.21","0","SATNPRO1962","25.666","0.3595","5"],
    [30778,"HCEP03730560","2024-08-13 21:30:00","10.6068","3.33895","27.199","2.87","7.56","1.18","3.836","0.25","0.23","29.7226","4.68863","31.16","0","SATNPRO1962","25.830000000000002","0.36178","5"],
    [30779,"HCEP03730560","2024-08-13 21:45:00","10.6068","3.33899","27.228","2.884","7.56","1.17","4.119","0.13","0.33","29.7231","4.6887","31.31","0","SATNPRO1962","25.68","0.3597","5"],
    [30780,"HCEP03730560","2024-08-13 22:00:00","10.607","3.33905","27.25","2.904","7.56","1.101","3.84","0.17","0.33","29.7235","4.68876","31.53","0","SATNPRO1962","25.89","0.36264","5"],
    [30781,"HCEP03730560","2024-08-13 22:15:00","10.6069","3.33907","27.242","2.924","7.56","1.1","3.654","0.15","0.12","29.7238","4.6888","31.75","0","SATNPRO1962","25.884","0.36256","5"],
    [30782,"HCEP03730560","2024-08-13 22:30:00","10.6062","3.33906","27.226","2.937","7.56","1.153","3.959","0.2","0.2","29.7243","4.68888","31.88","0","SATNPRO1962","25.874","0.3624","5"],
    [30783,"HCEP03730560","2024-08-13 22:45:00","10.6061","3.33902","27.211","2.939","7.56","1.264","3.874","0.35","0.31","29.7239","4.68883","31.91","0","SATNPRO1962","25.855999999999998","0.36218","5"],
    [30784,"HCEP03730560","2024-08-13 23:00:00","10.6057","3.33912","27.182","2.954","7.56","0.989","3.707","0.12","0.22","29.7252","4.68902","32.07","0","SATNPRO1962","25.983999999999998","0.36396","5"],
    [30785,"HCEP03730560","2024-08-13 23:15:00","10.6065","3.33915","27.14","2.983","7.57","1.039","3.521","0.17","0.12","29.7249","4.68896","32.39","0","SATNPRO1962","26.04","0.36476","5"],
    [30786,"HCEP03730560","2024-08-13 23:30:00","10.6097","3.33933","27.095","3.041","7.57","0.937","3.283","0.16","0.15","29.7242","4.68879","33.02","0","SATNPRO1962","26.314","0.36856","5"],
    [30787,"HCEP03730560","2024-08-13 23:45:00","10.621","3.33971","27.047","3.162","7.58","0.997","3.083","0.19","0.2","29.7187","4.68784","34.34","0","SATNPRO1962","26.822","0.37564","5"],
    [30788,"HCEP03730560","2024-08-14 00:00:00","10.6195","3.33963","26.974","3.254","7.59","0.966","2.78","0.16","0.14","29.7191","4.68792","35.34","0","SATNPRO1962","26.696","0.37392","5"],
    [30789,"HCEP03730560","2024-08-14 00:15:00","10.6105","3.33927","26.89","3.17","7.58","1.091","3.305","0.32","0.24","29.723","4.6886","34.41","0","SATNPRO1962","26.17","0.36654","5"],
    [30790,"HCEP03730560","2024-08-14 00:30:00","10.6115","3.33928","26.808","3.06","7.57","0.918","3.361","0.12","0.17","29.7223","4.68849","33.23","0","SATNPRO1962","26.34","0.36894","5"],
    [30791,"HCEP03730560","2024-08-14 00:45:00","10.6144","3.3393","26.713","3.049","7.57","1.022","3.412","0.2","0.18","29.7201","4.68812","33.1","0","SATNPRO1962","26.254","0.36772","5"],
    [30792,"HCEP03730560","2024-08-14 01:00:00","10.6205","3.33927","26.597","3.033","7.57","1.054","3.292","0.22","0.15","29.715","4.68729","32.94","0","SATNPRO1962","26.036","0.36468","5"],
    [30793,"HCEP03730560","2024-08-14 01:15:00","10.623","3.33927","26.46","2.986","7.57","1.054","3.416","0.2","0.11","29.713","4.68695","32.42","0","SATNPRO1962","25.962","0.36368","5"],
    [30794,"HCEP03730560","2024-08-14 01:30:00","10.6248","3.33925","26.33","2.938","7.56","0.93","3.585","0.13","0.2","29.7113","4.68669","31.9","0","SATNPRO1962","25.918","0.36304","5"],
    [30795,"HCEP03730560","2024-08-14 01:45:00","10.6256","3.33922","26.189","2.907","7.56","1.072","3.577","0.24","0.3","29.7105","4.68654","31.57","0","SATNPRO1962","25.712","0.36012","5"],
    [30796,"HCEP03730560","2024-08-14 02:00:00","10.6271","3.33916","26.038","2.876","7.56","0.881","3.836","0.23","0.24","29.7087","4.68626","31.23","0","SATNPRO1962","25.562","0.35802","5"],
    [30797,"HCEP03730560","2024-08-14 02:15:00","10.6281","3.3391","25.901","2.841","7.55","1.056","3.791","0.2","0.13","29.7074","4.68604","30.86","0","SATNPRO1962","25.366","0.3553","5"],
    [30798,"HCEP03730560","2024-08-14 02:30:00","10.6288","3.339","25.746","2.802","7.55","0.934","3.787","0.19","0.18","29.7059","4.68581","30.43","0","SATNPRO1962","25.212","0.35314","5"],
    [30799,"HCEP03730560","2024-08-14 02:45:00","10.63","3.3389","25.599","2.755","7.54","1.039","3.778","0.19","0.24","29.704","4.68552","29.92","0","SATNPRO1962","25.294","0.3543","5"],
    [30800,"HCEP03730560","2024-08-14 03:00:00","10.6331","3.33887","25.446","2.709","7.54","1.002","3.577","0.24","0.29","29.7012","4.68506","29.42","0","SATNPRO1962","25.240000000000002","0.35354","5"],
    [30801,"HCEP03730560","2024-08-14 03:15:00","10.6338","3.33879","25.307","2.668","7.54","0.823","3.376","0.15","0.21","29.7","4.68488","28.98","0","SATNPRO1962","25.182","0.35274","5"],
    [30802,"HCEP03730560","2024-08-14 03:30:00","10.6452","3.33911","25.165","2.686","7.54","0.824","3.253","0.41","0.5","29.6938","4.68381","29.18","0","SATNPRO1962","25.408","0.35588","5"],
    [30803,"HCEP03730560","2024-08-14 03:45:00","10.6439","3.33894","25.052","2.731","7.54","0.872","3.027","0.45","0.14","29.6933","4.68375","29.67","0","SATNPRO1962","25.29","0.35426","5"],
    [30804,"HCEP03730560","2024-08-14 04:00:00","10.6342","3.33869","24.941","2.665","7.53","0.85","3.52","0.13","0.27","29.6987","4.68467","28.94","0","SATNPRO1962","25.088","0.35144","5"],
    [30805,"HCEP03730560","2024-08-14 04:15:00","10.6317","3.33858","24.819","2.591","7.53","0.89","3.548","0.2","0.17","29.6998","4.68485","28.14","0","SATNPRO1962","25.798000000000002","0.36134","5"],
    [30806,"HCEP03730560","2024-08-14 04:30:00","10.6315","3.33843","24.733","2.533","7.52","0.92","3.703","0.16","0.21","29.6985","4.68467","27.51","0","SATNPRO1962","25.471999999999998","0.35678","5"],
    [30807,"HCEP03730560","2024-08-14 04:45:00","10.6317","3.33844","24.643","2.487","7.52","0.926","3.739","0.17","0.14","29.6984","4.68464","27.01","0","SATNPRO1962","25.08","0.3513","5"],
    [30808,"HCEP03730560","2024-08-14 05:00:00","10.6318","3.33826","24.578","2.434","7.52","0.935","3.855","0.22","0.22","29.6967","4.68439","26.43","0","SATNPRO1962","25.674","0.35964","5"],
    [30809,"HCEP03730560","2024-08-14 05:15:00","10.6315","3.33815","24.54","2.363","7.51","0.988","3.956","0.23","0.22","29.6958","4.68427","25.66","0","SATNPRO1962","25.322","0.35468","5"],
    [30810,"HCEP03730560","2024-08-14 05:30:00","10.6317","3.33794","24.514","2.277","7.5","0.868","4.084","0.13","0.23","29.6936","4.68395","24.73","0","SATNPRO1962","24.3","0.34036","5"],
    [30811,"HCEP03730560","2024-08-14 05:45:00","10.6306","3.33788","24.497","2.201","7.5","1.092","4.033","0.5","0.13","29.6939","4.68401","23.9","0","SATNPRO1962","24.256","0.33976","5"],
    [30812,"HCEP03730560","2024-08-14 06:00:00","10.6274","3.33777","24.493","2.176","7.49","0.954","3.969","0.21","0.25","29.6955","4.68428","23.63","0","SATNPRO1962","24.23","0.33938","5"],
    [30813,"HCEP03730560","2024-08-14 06:15:00","10.6237","3.33762","24.518","2.149","7.49","1.217","4.017","0.54","0.29","29.6969","4.68455","23.34","0","SATNPRO1962","23.874","0.3344","5"],
    [30814,"HCEP03730560","2024-08-14 06:30:00","10.6195","3.33742","24.543","2.109","7.49","1.056","4.037","0.27","0.29","29.6983","4.68481","22.89","0","SATNPRO1962","23.96","0.33558","5"],
    [30815,"HCEP03730560","2024-08-14 06:45:00","10.6165","3.3373","24.585","2.076","7.49","1.045","4.046","0.22","0.43","29.6996","4.68505","22.54","0","SATNPRO1962","23.808","0.3335","5"],
    [30816,"HCEP03730560","2024-08-14 07:00:00","10.6154","3.33726","24.636","2.051","7.48","1.181","4.49","0.18","0.27","29.7001","4.68515","22.26","0","SATNPRO1962","23.656","0.33132","5"],
    [30817,"HCEP03730560","2024-08-14 07:15:00","10.6132","3.33719","24.707","2.026","7.48","1.036","4.081","0.16","0.27","29.7012","4.68533","22","0","SATNPRO1962","23.742","0.33256","5"],
    [30818,"HCEP03730560","2024-08-14 07:30:00","10.6124","3.33707","24.775","1.996","7.48","1.182","4.814","0.11","0.32","29.7006","4.68527","21.67","0","SATNPRO1962","23.612000000000002","0.33076","5"],
    [30819,"HCEP03730560","2024-08-14 07:45:00","10.6133","3.33698","24.852","1.954","7.47","1.087","4.107","0.16","0.16","29.699","4.68503","21.21","0","SATNPRO1962","23.366","0.3273","5"],
    [30820,"HCEP03730560","2024-08-14 08:00:00","10.6142","3.33692","24.948","1.902","7.47","1.124","4.637","0.15","0.28","29.6976","4.68482","20.65","0","SATNPRO1962","23.204","0.32504","5"],
    [30821,"HCEP03730560","2024-08-14 08:15:00","10.6136","3.33683","25.047","1.85","7.47","1.161","4.025","0.14","0.13","29.6971","4.68477","20.09","0","SATNPRO1962","23.054000000000002","0.3229","5"],
    [30822,"HCEP03730560","2024-08-14 08:30:00","10.6143","3.33682","25.131","1.815","7.46","1.105","3.931","0.22","0.13","29.6965","4.68467","19.71","0","SATNPRO1962","23.062","0.32302","5"],
    [30823,"HCEP03730560","2024-08-14 08:45:00","10.6132","3.33692","25.258","1.823","7.46","1.103","3.765","0.16","0.17","29.6982","4.68494","19.79","0","SATNPRO1962","23.282","0.32612","5"],
    [30824,"HCEP03730560","2024-08-14 09:00:00","10.6122","3.3369","25.385","1.858","7.47","0.912","3.642","0.11","0.12","29.6989","4.68506","20.17","0","SATNPRO1962","23.286","0.32616","5"],
    [30825,"HCEP03730560","2024-08-14 09:15:00","10.6116","3.33694","25.523","1.864","7.47","1.044","3.732","0.18","0.2","29.6997","4.68519","20.23","0","SATNPRO1962","23.162","0.3244","5"],
    [30826,"HCEP03730560","2024-08-14 09:30:00","10.6098","3.3369","25.657","1.864","7.47","0.961","4.278","0.21","0.26","29.7007","4.68537","20.23","0","SATNPRO1962","23.36","0.32718","5"],
    [30827,"HCEP03730560","2024-08-14 09:45:00","10.6088","3.33691","25.809","1.854","7.47","0.996","3.496","0.24","0.19","29.7016","4.68552","20.12","0","SATNPRO1962","23.358","0.32718","5"],
    [30828,"HCEP03730560","2024-08-14 10:00:00","10.6065","3.33679","25.971","1.829","7.46","0.991","3.763","0.16","0.25","29.7021","4.68565","19.85","0","SATNPRO1962","23.024","0.3225","5"],
    [30829,"HCEP03730560","2024-08-14 10:15:00","10.6053","3.33681","26.119","1.809","7.46","1.26","4.199","0.45","0.32","29.7033","4.68583","19.63","0","SATNPRO1962","23.078","0.32326","5"],
    [30830,"HCEP03730560","2024-08-14 10:30:00","10.6084","3.33685","26.257","1.799","7.46","1.031","4.005","0.19","0.2","29.701","4.68547","19.53","0","SATNPRO1962","23.016000000000002","0.32236","5"],
    [30831,"HCEP03730560","2024-08-14 10:45:00","10.6128","3.33691","26.386","1.796","7.46","1.253","3.825","0.62","0.3","29.6981","4.68499","19.49","0","SATNPRO1962","23.026","0.32252","5"],
    [30832,"HCEP03730560","2024-08-14 11:00:00","10.6172","3.33703","26.515","1.802","7.46","1.016","3.766","0.22","0.29","29.6957","4.68459","19.56","0","SATNPRO1962","23.142","0.32414","5"],
    [30833,"HCEP03730560","2024-08-14 11:15:00","10.6188","3.33706","26.613","1.801","7.46","1.157","3.813","0.22","0.17","29.6945","4.6844","19.55","0","SATNPRO1962","23.072","0.32314","5"],
    [30834,"HCEP03730560","2024-08-14 11:30:00","10.6204","3.33709","26.713","1.777","7.46","1.017","4.16","0.16","0.35","29.6935","4.68423","19.29","0","SATNPRO1962","22.966","0.32168","5"],
    [30835,"HCEP03730560","2024-08-14 11:45:00","10.6257","3.33727","26.807","1.762","7.46","1.23","3.942","0.42","0.24","29.691","4.6838","19.13","0","SATNPRO1962","23.018","0.32238","5"],
    [30836,"HCEP03730560","2024-08-14 12:00:00","10.6251","3.33728","26.888","1.759","7.46","1.111","3.951","0.33","0.23","29.6915","4.68389","19.1","0","SATNPRO1962","22.96","0.32164","5"],
    [30837,"HCEP03730560","2024-08-14 12:15:00","10.6211","3.33713","26.956","1.761","7.46","1.28","5.739","0.24","1.38","29.6932","4.6842","19.12","0","SATNPRO1962","23.002","0.3222","5"],
    [30838,"HCEP03730560","2024-08-14 12:30:00","10.613","3.33699","27.011","1.766","7.46","1.105","4.013","0.18","0.17","29.6984","4.68508","19.17","0","SATNPRO1962","22.924","0.3211","5"],
    [30839,"HCEP03730560","2024-08-14 12:45:00","10.6157","3.33706","27.063","1.773","7.46","1.017","3.881","0.16","0.11","29.6969","4.68481","19.25","0","SATNPRO1962","23.162","0.3244","5"],
    [30840,"HCEP03730560","2024-08-14 13:00:00","10.6132","3.33714","27.089","1.803","7.46","1.03","3.958","0.15","0.13","29.6996","4.68525","19.57","0","SATNPRO1962","23.304","0.32642","5"],
    [30841,"HCEP03730560","2024-08-14 13:15:00","10.6075","3.33723","27.115","1.868","7.47","1.089","4.061","0.17","0.42","29.7053","4.68614","20.28","0","SATNPRO1962","23.476","0.32878","5"],
    [30842,"HCEP03730560","2024-08-14 13:30:00","10.6067","3.33722","27.15","1.93","7.47","0.975","4.338","0.24","0.42","29.7057","4.68622","20.95","0","SATNPRO1962","23.566","0.33006","5"],
    [30843,"HCEP03730560","2024-08-14 13:45:00","10.6008","3.33732","27.142","1.963","7.47","0.998","4.422","0.1","0.21","29.7116","4.68715","21.3","0","SATNPRO1962","23.650000000000002","0.3313","5"],
    [30844,"HCEP03730560","2024-08-14 14:00:00","10.6007","3.3374","27.171","2.006","7.48","1.028","3.936","0.19","0.14","29.7123","4.68726","21.78","0","SATNPRO1962","23.748","0.33264","5"],
    [30845,"HCEP03730560","2024-08-14 14:15:00","10.6062","3.33746","27.181","2.043","7.48","0.899","3.732","0.13","0.26","29.7086","4.68663","22.17","0","SATNPRO1962","23.914","0.33496","5"],
    [30846,"HCEP03730560","2024-08-14 14:30:00","10.6088","3.33759","27.179","2.079","7.48","0.86","3.727","0.11","0.14","29.7077","4.68647","22.57","0","SATNPRO1962","23.968","0.33572","5"],
    [30847,"HCEP03730560","2024-08-14 14:45:00","10.613","3.33755","27.18","2.082","7.48","1.014","4.004","0.17","0.37","29.7039","4.68586","22.6","0","SATNPRO1962","23.758","0.33278","5"],
    [30848,"HCEP03730560","2024-08-14 15:00:00","10.6186","3.33742","27.174","2.004","7.48","0.967","3.858","0.13","0.23","29.698","4.68494","21.75","0","SATNPRO1962","23.54","0.32972","5"],
    [30849,"HCEP03730560","2024-08-14 15:15:00","10.6178","3.33754","27.167","1.966","7.48","0.882","3.608","0.14","0.15","29.6999","4.68521","21.35","0","SATNPRO1962","23.602","0.33062","5"],
    [30850,"HCEP03730560","2024-08-14 15:30:00","10.6218","3.33758","27.147","1.981","7.48","1.146","3.849","0.21","0.19","29.697","4.68474","21.51","0","SATNPRO1962","23.466","0.32866","5"],
    [30851,"HCEP03730560","2024-08-14 15:45:00","10.6253","3.33769","27.113","1.973","7.47","0.91","3.628","0.12","0.12","29.6952","4.68443","21.42","0","SATNPRO1962","23.038","0.32268","5"],
    [30852,"HCEP03730560","2024-08-14 16:00:00","10.6254","3.33779","27.085","2.005","7.48","0.853","3.638","0.1","0.12","29.6962","4.68457","21.77","0","SATNPRO1962","24.176000000000002","0.33862","5"],
    [30853,"HCEP03730560","2024-08-14 16:15:00","10.6117","3.33799","27.057","2.093","7.49","1.07","4.086","0.16","0.12","29.7093","4.68665","22.73","0","SATNPRO1962","24.14","0.33814","5"],
    [30854,"HCEP03730560","2024-08-14 16:30:00","10.6081","3.33804","27.037","2.204","7.49","1.162","4.598","0.14","0.15","29.7128","4.68719","23.92","0","SATNPRO1962","24.266","0.33992","5"],
    [30855,"HCEP03730560","2024-08-14 16:45:00","10.6133","3.33829","26.985","2.302","7.5","1.003","3.836","0.12","0.11","29.711","4.68686","24.99","0","SATNPRO1962","25.054","0.3509","5"],
    [30856,"HCEP03730560","2024-08-14 17:00:00","10.6079","3.33825","26.957","2.397","7.51","1.043","3.866","0.18","0.34","29.715","4.68751","26.03","0","SATNPRO1962","24.776","0.347","5"],
    [30857,"HCEP03730560","2024-08-14 17:15:00","10.6099","3.33574","26.94","2.403","7.51","1.061","3.903","0.1","0.4","29.6887","4.68373","26.09","0","SATNPRO1962","25.082","0.3513","5"],
    [30858,"HCEP03730560","2024-08-14 17:30:00","10.6117","3.33648","26.896","2.412","7.51","0.961","3.772","0.17","0.26","29.6946","4.68454","26.19","0","SATNPRO1962","25.442","0.35634","5"],
    [30859,"HCEP03730560","2024-08-14 17:45:00","10.6111","3.3367","26.875","2.44","7.51","1.004","3.688","0.09","0.15","29.6972","4.68492","26.48","0","SATNPRO1962","25.078","0.35128","5"],
    [30860,"HCEP03730560","2024-08-14 18:00:00","10.6113","3.33694","26.859","2.457","7.52","0.971","3.712","0.16","0.18","29.6993","4.68522","26.67","0","SATNPRO1962","25.138","0.3521","5"],
    [30861,"HCEP03730560","2024-08-14 18:15:00","10.6122","3.33589","26.871","2.477","7.52","0.901","3.582","0.12","0.1","29.6882","4.68363","26.89","0","SATNPRO1962","25.16","0.3524","5"],
    [30862,"HCEP03730560","2024-08-14 18:30:00","10.6136","3.33782","26.872","2.491","7.52","0.885","3.528","0.17","0.19","29.7062","4.68617","27.04","0","SATNPRO1962","25.16","0.35238","5"],
    [30863,"HCEP03730560","2024-08-14 18:45:00","10.6154","3.33528","26.858","2.514","7.52","0.832","3.34","0.15","0.08","29.6797","4.68236","27.29","0","SATNPRO1962","25.248","0.35366","5"],
    [30864,"HCEP03730560","2024-08-14 19:00:00","10.6373","3.33767","26.847","2.49","7.52","0.749","3.351","0.1","0.14","29.6854","4.68282","27.04","0","SATNPRO1962","25.098","0.35152","5"],
    [30865,"HCEP03730560","2024-08-14 19:15:00","10.6193","3.33812","26.85","2.479","7.52","0.781","3.265","0.09","0.33","29.7046","4.68584","26.91","0","SATNPRO1962","25.36","0.35522","5"],
    [30866,"HCEP03730560","2024-08-14 19:30:00","10.6143","3.33867","26.887","2.543","7.52","0.781","3.264","0.14","0.2","29.714","4.68727","27.61","0","SATNPRO1962","25.413999999999998","0.35594","5"],
    [30867,"HCEP03730560","2024-08-14 19:45:00","10.6341","3.33682","26.914","2.53","7.52","0.727","3.217","0.08","0.26","29.6796","4.68206","27.47","0","SATNPRO1962","25.387999999999998","0.35562","5"],
    [30868,"HCEP03730560","2024-08-14 20:00:00","10.6137","3.33869","26.926","2.531","7.53","0.799","3.275","0.13","0.12","29.7147","4.68737","27.48","0","SATNPRO1962","25.588","0.35838","5"],
    [30869,"HCEP03730560","2024-08-14 20:15:00","10.6065","3.33863","26.972","2.6","7.53","0.858","3.363","0.09","0.09","29.7198","4.68822","28.23","0","SATNPRO1962","25.69","0.35986","5"],
    [30870,"HCEP03730560","2024-08-14 20:30:00","10.604","3.33856","26.983","2.569","7.53","0.91","3.736","0.09","0.11","29.7212","4.68846","27.89","0","SATNPRO1962","25.326","0.35474","5"],
    [30871,"HCEP03730560","2024-08-14 20:45:00","10.6031","3.33855","27.003","2.533","7.52","0.86","3.695","0.08","0.13","29.721800000000002","4.68856","27.5","0","SATNPRO1962","25.34","0.3549","5"],
    [30872,"HCEP03730560","2024-08-14 21:00:00","10.6037","3.33861","27.027","2.545","7.53","0.823","3.596","0.07","0.16","29.722","4.68857","27.63","0","SATNPRO1962","25.483999999999998","0.35698","5"],
    [30873,"HCEP03730560","2024-08-14 21:15:00","10.6035","3.33863","27.063","2.569","7.53","0.782","3.472","0.09","0.64","29.7223","4.68862","27.88","0","SATNPRO1962","25.558","0.35798","5"],
    [30874,"HCEP03730560","2024-08-14 21:30:00","10.6073","3.33864","27.089","2.587","7.53","0.712","3.233","0.08","0.16","29.7193","4.68815","28.09","0","SATNPRO1962","25.612","0.35872","5"],
    [30875,"HCEP03730560","2024-08-14 21:45:00","10.6044","3.33864","27.094","2.602","7.53","0.693","3.078","0.07","0.08","29.7217","4.68853","28.25","0","SATNPRO1962","25.558","0.35802","5"],
    [30876,"HCEP03730560","2024-08-14 22:00:00","10.6078","3.33867","27.113","2.609","7.53","0.726","3.103","0.23","0.11","29.7191","4.68811","28.32","0","SATNPRO1962","25.658","0.35938","5"],
    [30877,"HCEP03730560","2024-08-14 22:15:00","10.6111","3.33868","27.124","2.588","7.53","0.638","2.998","0.09","0.13","29.7166","4.6877","28.1","0","SATNPRO1962","25.5","0.35716","5"],
    [30878,"HCEP03730560","2024-08-14 22:30:00","10.6059","3.33867","27.151","2.585","7.53","0.671","3.183","0.11","0.31","29.7207","4.68837","28.06","0","SATNPRO1962","25.63","0.35898","5"],
    [30879,"HCEP03730560","2024-08-14 22:45:00","10.6288","3.33864","27.149","2.538","7.52","0.693","3.047","0.2","0.28","29.7018","4.68531","27.56","0","SATNPRO1962","25.284","0.35414","5"],
    [30880,"HCEP03730560","2024-08-14 23:00:00","10.6182","3.33864","27.144","2.493","7.52","0.597","2.985","0.14","0.14","29.7104","4.68671","27.06","0","SATNPRO1962","25.364","0.35524","5"],
    [30881,"HCEP03730560","2024-08-14 23:15:00","10.6087","3.33865","27.141","2.526","7.53","0.621","2.991","0.09","0.13","29.7183","4.68797","27.42","0","SATNPRO1962","25.614","0.35878","5"],
    [30882,"HCEP03730560","2024-08-14 23:30:00","10.6044","3.33866","27.127","2.569","7.53","0.634","3.159","0.12","0.22","29.721800000000002","4.68854","27.89","0","SATNPRO1962","25.67","0.35954","5"],
    [30883,"HCEP03730560","2024-08-14 23:45:00","10.5992","3.33852","27.099","2.532","7.52","0.767","3.666","0.16","0.17","29.7247","4.68904","27.49","0","SATNPRO1962","25.31","0.3545","5"],
    [30884,"HCEP03730560","2024-08-15 00:00:00","10.5984","3.33846","27.07","2.466","7.52","0.778","4.145","0.15","2.24","29.7248","4.68906","26.77","0","SATNPRO1962","25.128","0.35198","5"],
    [30885,"HCEP03730560","2024-08-15 00:15:00","10.5992","3.33846","27.043","2.435","7.52","0.669","3.559","0.09","0.12","29.7241","4.68896","26.44","0","SATNPRO1962","25.18","0.3527","5"],
    [30886,"HCEP03730560","2024-08-15 00:30:00","10.6007","3.33846","26.997","2.44","7.52","0.677","3.47","0.15","0.17","29.7229","4.68875","26.48","0","SATNPRO1962","25.134","0.35204","5"],
    [30887,"HCEP03730560","2024-08-15 00:45:00","10.602","3.33836","26.951","2.427","7.51","0.729","3.571","0.17","0.2","29.7209","4.68844","26.35","0","SATNPRO1962","25.044","0.35076","5"],
    [30888,"HCEP03730560","2024-08-15 01:00:00","10.6024","3.33823","26.88","2.375","7.51","0.612","3.561","0.09","0.29","29.7193","4.68821","25.78","0","SATNPRO1962","24.824","0.3477","5"],
    [30889,"HCEP03730560","2024-08-15 01:15:00","10.6047","3.33823","26.793","2.33","7.51","0.65","3.431","0.16","0.13","29.7175","4.68792","25.29","0","SATNPRO1962","25.008","0.3503","5"],
    [30890,"HCEP03730560","2024-08-15 01:30:00","10.6057","3.33816","26.7","2.29","7.5","0.665","3.821","0.12","0.49","29.7161","4.68768","24.86","0","SATNPRO1962","24.612000000000002","0.34474","5"],
    [30891,"HCEP03730560","2024-08-15 01:45:00","10.604","3.338","26.587","2.184","7.49","0.735","4.028","0.13","0.21","29.7159","4.68769","23.71","0","SATNPRO1962","24.092","0.33742","5"],
    [30892,"HCEP03730560","2024-08-15 02:00:00","10.6071","3.33797","26.496","2.083","7.49","0.692","4.209","0.08","0.24","29.7131","4.68722","22.61","0","SATNPRO1962","24.1","0.33758","5"],
    [30893,"HCEP03730560","2024-08-15 02:15:00","10.6051","3.33785","26.365","2.016","7.48","0.738","4.329","0.11","0.14","29.7136","4.68732","21.88","0","SATNPRO1962","23.752","0.33268","5"],
    [30894,"HCEP03730560","2024-08-15 02:30:00","10.6073","3.33782","26.225","1.984","7.48","0.642","4.084","0.06","0.16","29.7116","4.68699","21.53","0","SATNPRO1962","23.942","0.33536","5"],
    [30895,"HCEP03730560","2024-08-15 02:45:00","10.6095","3.3379","26.084","2.024","7.48","0.69","3.838","0.1","0.17","29.7106","4.68681","21.97","0","SATNPRO1962","24.03","0.33656","5"],
    [30896,"HCEP03730560","2024-08-15 03:00:00","10.6206","3.33815","25.934","2.086","7.49","0.545","3.527","0.08","0.22","29.7041","4.6857","22.65","0","SATNPRO1962","24.338","0.34086","5"],
    [30897,"HCEP03730560","2024-08-15 03:15:00","10.6151","3.33788","25.784","2.069","7.48","0.66","3.966","0.09","0.13","29.706","4.68605","22.46","0","SATNPRO1962","23.9","0.33478","5"],
    [30898,"HCEP03730560","2024-08-15 03:30:00","10.6081","3.33759","25.615","1.945","7.47","0.611","4.259","0.08","0.17","29.7089","4.68657","21.12","0","SATNPRO1962","23.362000000000002","0.32722","5"],
    [30899,"HCEP03730560","2024-08-15 03:45:00","10.617","3.33773","25.457","1.874","7.47","0.645","3.836","0.07","0.19","29.7031","4.68558","20.35","0","SATNPRO1962","23.682","0.33168","5"],
    [30900,"HCEP03730560","2024-08-15 04:00:00","10.6209","3.33778","25.293","1.906","7.47","0.617","3.628","0.23","0.17","29.7005","4.68514","20.7","0","SATNPRO1962","24.11","0.33766","5"],
    [30901,"HCEP03730560","2024-08-15 04:15:00","10.617","3.33753","25.135","1.847","7.46","0.646","3.733","0.11","0.17","29.7013","4.68531","20.05","0","SATNPRO1962","23.036","0.32266","5"],
    [30902,"HCEP03730560","2024-08-15 04:30:00","10.6157","3.33748","24.989","1.762","7.46","0.587","3.905","0.13","0.22","29.7018","4.6854","19.13","0","SATNPRO1962","23.03","0.32258","5"],
    [30903,"HCEP03730560","2024-08-15 04:45:00","10.618","3.33756","24.836","1.766","7.46","0.628","3.81","0.12","0.2","29.7009","4.68522","19.18","0","SATNPRO1962","22.942","0.32136","5"],
    [30904,"HCEP03730560","2024-08-15 05:00:00","10.6262","3.33785","24.714","1.815","7.46","0.608","3.988","0.16","0.31","29.697","4.68454","19.7","0","SATNPRO1962","23.224","0.3253","5"],
    [30905,"HCEP03730560","2024-08-15 05:15:00","10.6153","3.33735","24.61","1.78","7.46","0.676","3.83","0.12","0.18","29.7011","4.68528","19.32","0","SATNPRO1962","23.016","0.3224","5"],
    [30906,"HCEP03730560","2024-08-15 05:30:00","10.6165","3.33734","24.514","1.688","7.45","0.558","3.51","0.13","0.12","29.7001","4.68511","18.32","0","SATNPRO1962","23.876","0.33448","5"],
    [30907,"HCEP03730560","2024-08-15 05:45:00","10.632","3.33796","24.437","1.809","7.47","0.576","3.32","0.11","0.13","29.6935","4.68393","19.65","0","SATNPRO1962","24.112","0.33774","5"],
    [30908,"HCEP03730560","2024-08-15 06:00:00","10.6142","3.33723","24.372","1.811","7.45","0.699","4.232","0.18","0.38","29.7008","4.68524","19.66","0","SATNPRO1962","22.666","0.31746","5"],
    [30909,"HCEP03730560","2024-08-15 06:15:00","10.6311","3.33786","24.328","1.804","7.47","0.66","2.849","0.24","0.27","29.6933","4.68391","19.59","0","SATNPRO1962","24.232","0.3394","5"],
    [30910,"HCEP03730560","2024-08-15 06:30:00","10.6333","3.33796","24.294","1.901","7.47","0.662","2.964","0.31","0.14","29.6925","4.68376","20.64","0","SATNPRO1962","24.224","0.3393","5"],
    [30911,"HCEP03730560","2024-08-15 06:45:00","10.6392","3.33812","24.284","1.972","7.47","0.519","2.516","0.1","0.13","29.6894","4.68322","21.41","0","SATNPRO1962","24.508","0.34326","5"],
    [30912,"HCEP03730560","2024-08-15 07:00:00","10.6379","3.33817","24.277","1.99","7.47","0.769","2.778","0.28","0.16","29.6909","4.68345","21.61","0","SATNPRO1962","24.528","0.34358","5"],
    [30913,"HCEP03730560","2024-08-15 07:15:00","10.6328","3.33782","24.288","1.931","7.47","0.695","2.919","0.24","0.15","29.6916","4.68363","20.97","0","SATNPRO1962","24.27","0.33992","5"],
    [30914,"HCEP03730560","2024-08-15 07:30:00","10.6395","3.3382","24.308","1.902","7.47","0.583","2.784","0.12","0.11","29.6899","4.68329","20.66","0","SATNPRO1962","23.924","0.33512","5"],
    [30915,"HCEP03730560","2024-08-15 07:45:00","10.6189","3.33737","24.356","1.829","7.46","0.744","3.99","0.13","0.75","29.6985","4.68483","19.86","0","SATNPRO1962","23.282","0.3261","5"],
    [30916,"HCEP03730560","2024-08-15 08:00:00","10.6114","3.33712","24.427","1.617","7.44","0.735","4.064","0.14","0.11","29.702","4.68547","17.55","0","SATNPRO1962","22.41","0.31388","5"],
    [30917,"HCEP03730560","2024-08-15 08:15:00","10.6097","3.33707","24.51","1.489","7.44","0.831","4.34","0.16","0.21","29.7029","4.68562","16.17","0","SATNPRO1962","21.992","0.30802","5"],
    [30918,"HCEP03730560","2024-08-15 08:30:00","10.6075","3.33699","24.608","1.424","7.43","1.089","4.268","0.24","0.1","29.7039","4.6858","15.46","0","SATNPRO1962","21.768","0.30492","5"],
    [30919,"HCEP03730560","2024-08-15 08:45:00","10.6087","3.33698","24.733","1.368","7.43","0.952","4.665","0.14","0.22","29.7028","4.68563","14.85","0","SATNPRO1962","21.874000000000002","0.30638","5"],
    [30920,"HCEP03730560","2024-08-15 09:00:00","10.6117","3.33697","24.854","1.342","7.42","0.944","4.511","0.22","0.25","29.7001","4.68521","14.57","0","SATNPRO1962","21.608","0.30266","5"],
    [30921,"HCEP03730560","2024-08-15 09:15:00","10.6152","3.33708","24.998","1.32","7.42","0.959","4.447","0.38","0.32","29.6983","4.68491","14.34","0","SATNPRO1962","21.89","0.30658","5"],
    [30922,"HCEP03730560","2024-08-15 09:30:00","10.6206","3.33716","25.12","1.328","7.42","0.835","4.274","0.16","0.19","29.6947","4.68431","14.42","0","SATNPRO1962","21.608","0.30266","5"],
    [30923,"HCEP03730560","2024-08-15 09:45:00","10.6239","3.33724","25.255","1.28","7.42","0.877","4.209","0.12","0.16","29.6928","4.684","13.9","0","SATNPRO1962","21.512","0.3013","5"],
    [30924,"HCEP03730560","2024-08-15 10:00:00","10.6281","3.33745","25.319","1.265","7.42","0.939","4.349","0.32","0.53","29.6914","4.68373","13.73","0","SATNPRO1962","21.701999999999998","0.30398","5"],
    [30925,"HCEP03730560","2024-08-15 10:15:00","10.6287","3.33753","25.467","1.313","7.42","0.788","3.707","0.15","0.12","29.6916","4.68376","14.25","0","SATNPRO1962","22.064","0.30904","5"],
    [30926,"HCEP03730560","2024-08-15 10:30:00","10.6222","3.33732","25.642","1.356","7.42","0.792","3.731","0.16","0.23","29.6948","4.68433","14.73","0","SATNPRO1962","22.174","0.3106","5"],
    [30927,"HCEP03730560","2024-08-15 10:45:00","10.6127","3.33711","25.798","1.407","7.43","1.066","4.389","0.45","0.27","29.7004","4.68529","15.27","0","SATNPRO1962","21.89","0.30662","5"],
    [30928,"HCEP03730560","2024-08-15 11:00:00","10.6088","3.33706","25.983","1.406","7.42","0.803","4.402","0.12","0.24","29.703","4.68573","15.26","0","SATNPRO1962","22.064","0.30906","5"],
    [30929,"HCEP03730560","2024-08-15 11:15:00","10.6103","3.33346","26.158","1.459","7.43","0.798","3.818","0.16","0.22","29.6661","4.68047","15.83","0","SATNPRO1962","22.881999999999998","0.32052","5"],
    [30930,"HCEP03730560","2024-08-15 11:30:00","10.6101","3.33728","26.32","1.575","7.44","0.797","3.553","0.25","0.29","29.7039","4.68586","17.1","0","SATNPRO1962","23.428","0.32816","5"],
    [30931,"HCEP03730560","2024-08-15 11:45:00","10.6091","3.33736","26.456","1.649","7.44","0.78","3.723","0.1","0.19","29.7054","4.6861","17.91","0","SATNPRO1962","22.898","0.3207","5"],
    [30932,"HCEP03730560","2024-08-15 12:00:00","10.6099","3.33734","26.592","1.645","7.44","0.761","4.023","0.1","0.27","29.7045","4.68597","17.85","0","SATNPRO1962","22.756","0.31874","5"],
    [30933,"HCEP03730560","2024-08-15 12:15:00","10.6141","3.33753","26.732","1.615","7.45","0.767","3.906","0.15","0.22","29.703","4.68569","17.53","0","SATNPRO1962","23.438","0.32824","5"],
    [30934,"HCEP03730560","2024-08-15 12:30:00","10.6171","3.33762","26.84","1.744","7.45","0.663","3.793","0.1","0.26","29.7013","4.68541","18.94","0","SATNPRO1962","23.778","0.33306","5"],
    [30935,"HCEP03730560","2024-08-15 12:45:00","10.6306","3.33799","26.954","1.876","7.47","0.659","2.694","0.12","0.16","29.694","4.68416","20.37","0","SATNPRO1962","24.914","0.34894","5"],
    [30936,"HCEP03730560","2024-08-15 13:00:00","10.6355","3.33824","27.054","2.067","7.48","0.544","2.435","0.09","0.15","29.6925","4.68387","22.45","0","SATNPRO1962","25.15","0.35228","5"],
    [30937,"HCEP03730560","2024-08-15 13:15:00","10.6405","3.3384","27.13","2.064","7.48","0.579","2.186","0.16","0.06","29.6899","4.68344","22.42","0","SATNPRO1962","24.92","0.34902","5"],
    [30938,"HCEP03730560","2024-08-15 13:30:00","10.6478","3.3388","27.201","2.033","7.48","0.505","2.296","0.06","0.2","29.6879","4.68303","22.08","0","SATNPRO1962","24.632","0.34504","5"],
    [30939,"HCEP03730560","2024-08-15 13:45:00","10.6484","3.33876","27.242","2.013","7.48","0.576","2.374","0.08","0.07","29.6871","4.68291","21.86","0","SATNPRO1962","24.46","0.34262","5"],
    [30940,"HCEP03730560","2024-08-15 14:00:00","10.6387","3.33827","27.296","1.918","7.47","0.577","3.256","0.09","0.22","29.69","4.68349","20.83","0","SATNPRO1962","23.702","0.33198","5"],
    [30941,"HCEP03730560","2024-08-15 14:15:00","10.6472","3.33873","27.333","1.847","7.47","0.6","2.678","0.08","0.09","29.6877","4.68302","20.06","0","SATNPRO1962","23.796","0.33328","5"],
    [30942,"HCEP03730560","2024-08-15 14:30:00","10.6451","3.33866","27.389","1.852","7.46","0.592","2.916","0.09","0.18","29.6886","4.68319","20.11","0","SATNPRO1962","23.674","0.33154","5"],
    [30943,"HCEP03730560","2024-08-15 14:45:00","10.6423","3.33846","27.375","1.773","7.46","0.667","3.448","0.07","0.39","29.689","4.68329","19.26","0","SATNPRO1962","23.02","0.32246","5"],
    [30944,"HCEP03730560","2024-08-15 15:00:00","10.6356","3.33807","27.463","1.62","7.45","0.647","4.049","0.05","0.63","29.6905","4.68362","17.6","0","SATNPRO1962","22.157999999999998","0.31038","5"],
    [30945,"HCEP03730560","2024-08-15 15:15:00","10.6272","3.33773","27.496","1.457","7.43","0.732","4.109","0.12","0.29","29.694","4.68425","15.82","0","SATNPRO1962","21.936","0.30728","5"],
    [30946,"HCEP03730560","2024-08-15 15:30:00","10.6281","3.33776","27.44","1.394","7.43","0.654","4.023","0.07","0.31","29.6936","4.68417","15.14","0","SATNPRO1962","21.934","0.30722","5"],
    [30947,"HCEP03730560","2024-08-15 15:45:00","10.625","3.33758","27.425","1.382","7.43","0.705","4.395","0.11","0.91","29.6943","4.68432","15.01","0","SATNPRO1962","21.956","0.30754","5"],
    [30948,"HCEP03730560","2024-08-15 16:00:00","10.6221","3.33757","27.406","1.381","7.43","0.668","3.78","0.12","0.25","29.6966","4.68469","14.99","0","SATNPRO1962","22.073999999999998","0.3092","5"],
    [30949,"HCEP03730560","2024-08-15 16:15:00","10.6175","3.33744","27.362","1.428","7.43","0.69","3.679","0.08","0.07","29.6991","4.68512","15.5","0","SATNPRO1962","22.178","0.31066","5"],
    [30950,"HCEP03730560","2024-08-15 16:30:00","10.6186","3.33752","27.309","1.489","7.43","0.598","3.504","0.06","0.07","29.6989","4.68508","16.17","0","SATNPRO1962","22.406","0.31386","5"],
    [30951,"HCEP03730560","2024-08-15 16:45:00","10.6169","3.33756","27.283","1.557","7.44","0.659","3.435","0.11","0.13","29.7007","4.68536","16.91","0","SATNPRO1962","22.932","0.32122","5"],
    [30952,"HCEP03730560","2024-08-15 17:00:00","10.6083","3.33749","27.273","1.618","7.44","0.773","4.678","0.08","0.47","29.707","4.68638","17.56","0","SATNPRO1962","22.68","0.31764","5"],
    [30953,"HCEP03730560","2024-08-15 17:15:00","10.6028","3.33738","27.242","1.629","7.44","0.926","4.45","0.23","0.26","29.7105","4.68696","17.68","0","SATNPRO1962","22.674","0.31756","5"],
    [30954,"HCEP03730560","2024-08-15 17:30:00","10.5988","3.3375","27.223","1.631","7.45","0.865","4.637","0.09","0.84","29.7149","4.68766","17.71","0","SATNPRO1962","23.016000000000002","0.32238","5"],
    [30955,"HCEP03730560","2024-08-15 17:45:00","10.5984","3.33777","27.165","1.729","7.46","0.802","4.036","0.07","0.15","29.718","4.68809","18.77","0","SATNPRO1962","23.244","0.32556","5"],
    [30956,"HCEP03730560","2024-08-15 18:00:00","10.6012","3.33787","27.152","1.847","7.46","0.703","3.657","0.07","0.15","29.7166","4.68786","20.05","0","SATNPRO1962","23.93","0.33516","5"],
    [30957,"HCEP03730560","2024-08-15 18:15:00","10.6056","3.33785","27.077","1.917","7.47","0.784","4.816","0.1","2.09","29.7129","4.68726","20.8","0","SATNPRO1962","23.876","0.33442","5"],
    [30958,"HCEP03730560","2024-08-15 18:30:00","10.6105","3.33782","27.029","1.937","7.47","0.629","3.654","0.08","0.89","29.7086","4.68657","21.03","0","SATNPRO1962","24.148","0.33824","5"],
    [30959,"HCEP03730560","2024-08-15 18:45:00","10.603","3.33794","26.978","1.939","7.47","0.777","4.648","0.08","0.66","29.7159","4.68772","21.05","0","SATNPRO1962","23.866","0.3343","5"],
    [30960,"HCEP03730560","2024-08-15 19:00:00","10.6046","3.33797","26.983","1.904","7.47","0.738","4.399","0.06","0.2","29.7149","4.68755","20.67","0","SATNPRO1962","23.788","0.33318","5"],
    [30961,"HCEP03730560","2024-08-15 19:15:00","10.6036","3.33799","26.957","1.907","7.47","0.759","4.31","0.07","0.33","29.716","4.68772","20.7","0","SATNPRO1962","23.72","0.33222","5"],
    [30962,"HCEP03730560","2024-08-15 19:30:00","10.6035","3.33804","26.905","1.909","7.47","0.733","4.369","0.07","0.3","29.7166","4.6878","20.73","0","SATNPRO1962","23.746","0.33258","5"],
    [30963,"HCEP03730560","2024-08-15 19:45:00","10.6047","3.33808","26.879","1.933","7.47","0.729","4.198","0.07","0.17","29.7159","4.68769","20.98","0","SATNPRO1962","23.872","0.3344","5"],
    [30964,"HCEP03730560","2024-08-15 20:00:00","10.6067","3.33813","26.894","1.951","7.47","0.692","4.147","0.07","0.33","29.7148","4.6875","21.18","0","SATNPRO1962","23.87","0.33428","5"],
    [30965,"HCEP03730560","2024-08-15 20:15:00","10.6108","3.33816","26.877","1.967","7.47","0.655","3.72","0.07","0.14","29.7118","4.687","21.35","0","SATNPRO1962","24.096","0.33752","5"],
    [30966,"HCEP03730560","2024-08-15 20:30:00","10.622","3.33819","26.909","1.981","7.47","0.661","3.538","0.08","0.19","29.703","4.68557","21.51","0","SATNPRO1962","24.035999999999998","0.33666","5"],
    [30967,"HCEP03730560","2024-08-15 20:45:00","10.6185","3.33816","26.894","1.954","7.47","0.64","3.456","0.14","0.16","29.7056","4.686","21.22","0","SATNPRO1962","24.136","0.33806","5"],
    [30968,"HCEP03730560","2024-08-15 21:00:00","10.635","3.33857","26.918","1.966","7.47","0.559","3.737","0.14","0.75","29.6961","4.68439","21.35","0","SATNPRO1962","24.47","0.34276","5"],
    [30969,"HCEP03730560","2024-08-15 21:15:00","10.6244","3.33821","26.919","1.957","7.47","0.611","3.694","0.08","0.5","29.7012","4.68529","21.25","0","SATNPRO1962","23.828","0.33376","5"],
    [30970,"HCEP03730560","2024-08-15 21:30:00","10.6228","3.33821","26.965","1.913","7.47","0.566","3.467","0.21","0.23","29.7025","4.6855","20.77","0","SATNPRO1962","23.986","0.33596","5"],
    [30971,"HCEP03730560","2024-08-15 21:45:00","10.6306","3.33836","26.977","1.916","7.47","0.608","3.355","0.15","0.35","29.6977","4.68468","20.81","0","SATNPRO1962","24.03","0.33664","5"],
    [30972,"HCEP03730560","2024-08-15 22:00:00","10.6292","3.33832","27.008","1.918","7.47","0.575","3.523","0.09","0.33","29.6984","4.68481","20.83","0","SATNPRO1962","24.042","0.33678","5"],
    [30973,"HCEP03730560","2024-08-15 22:15:00","10.6309","3.3383","27.022","1.917","7.47","0.603","3.673","0.17","0.75","29.6968","4.68456","20.81","0","SATNPRO1962","23.817999999999998","0.33362","5"],
    [30974,"HCEP03730560","2024-08-15 22:30:00","10.6284","3.33819","27.042","1.893","7.47","0.635","4.28","0.12","0.76","29.6976","4.68472","20.55","0","SATNPRO1962","23.842","0.33394","5"],
    [30975,"HCEP03730560","2024-08-15 22:45:00","10.6245","3.33799","27.069","1.822","7.46","0.76","5.235","0.12","1.24","29.699","4.68497","19.78","0","SATNPRO1962","23.644","0.33116","5"],
    [30976,"HCEP03730560","2024-08-15 23:00:00","10.6222","3.33788","27.109","1.771","7.46","0.73","4.975","0.15","0.95","29.6997","4.68512","19.23","0","SATNPRO1962","23.814","0.33358","5"],
    [30977,"HCEP03730560","2024-08-15 23:15:00","10.609","3.33749","27.126","1.659","7.45","0.836","5.272","0.12","0.75","29.7065","4.6863","18","0","SATNPRO1962","22.434","0.31422","5"],
    [30978,"HCEP03730560","2024-08-15 23:30:00","10.6117","3.3375","27.145","1.536","7.44","0.708","5.488","0.12","0.9","29.7045","4.68597","16.68","0","SATNPRO1962","22.554000000000002","0.3159","5"],
    [30979,"HCEP03730560","2024-08-15 23:45:00","10.6076","3.33737","27.146","1.492","7.44","0.734","5.573","0.1","0.96","29.7064","4.68631","16.2","0","SATNPRO1962","22.292","0.31222","5"],
    [30980,"HCEP03730560","2024-08-16 00:00:00","10.607","3.33731","27.149","1.45","7.43","0.841","5.267","0.31","1.03","29.7064","4.68632","15.74","0","SATNPRO1962","22.176","0.3106","5"],
    [30981,"HCEP03730560","2024-08-16 00:15:00","10.6064","3.33726","27.181","1.421","7.43","0.778","5.125","0.14","0.98","29.7063","4.68631","15.43","0","SATNPRO1962","22.04","0.30872","5"],
    [30982,"HCEP03730560","2024-08-16 00:30:00","10.6075","3.3372","27.161","1.392","7.43","0.681","4.707","0.11","0.57","29.7049","4.68609","15.11","0","SATNPRO1962","22.016","0.30832","5"],
    [30983,"HCEP03730560","2024-08-16 00:45:00","10.6092","3.33721","27.151","1.359","7.42","0.708","4.982","0.11","0.84","29.7037","4.68589","14.75","0","SATNPRO1962","21.732","0.30438","5"],
    [30984,"HCEP03730560","2024-08-16 01:00:00","10.6095","3.33718","27.121","1.335","7.42","0.704","5.298","0.11","0.91","29.7031","4.6858","14.49","0","SATNPRO1962","21.676","0.30362","5"],
    [30985,"HCEP03730560","2024-08-16 01:15:00","10.610900000000001","3.33719","27.078","1.312","7.42","0.726","5.067","0.13","1.13","29.7021","4.68563","14.24","0","SATNPRO1962","21.562","0.30198","5"],
    [30986,"HCEP03730560","2024-08-16 01:30:00","10.6123","3.33718","27.011","1.29","7.42","0.63","5.15","0.09","1.1","29.7009","4.68544","14","0","SATNPRO1962","21.490000000000002","0.301","5"],
    [30987,"HCEP03730560","2024-08-16 01:45:00","10.6147","3.33718","26.962","1.266","7.41","0.683","4.904","0.11","1","29.6989","4.68512","13.75","0","SATNPRO1962","21.404","0.29978","5"],
    [30988,"HCEP03730560","2024-08-16 02:00:00","10.6168","3.33725","26.905","1.243","7.41","0.612","4.763","0.08","0.86","29.6979","4.68494","13.5","0","SATNPRO1962","21.332","0.2988","5"],
    [30989,"HCEP03730560","2024-08-16 02:15:00","10.6172","3.33723","26.834","1.227","7.41","0.662","4.427","0.1","0.5","29.6975","4.68487","13.32","0","SATNPRO1962","21.28","0.29804","5"],
    [30990,"HCEP03730560","2024-08-16 02:30:00","10.6179","3.33723","26.711","1.212","7.41","0.606","4.016","0.18","0.16","29.6969","4.68477","13.16","0","SATNPRO1962","21.183999999999997","0.29674","5"],
    [30991,"HCEP03730560","2024-08-16 02:45:00","10.6187","3.33723","26.608","1.201","7.41","0.609","3.781","0.08","0.14","29.6963","4.68465","13.04","0","SATNPRO1962","21.184","0.29672","5"],
    [30992,"HCEP03730560","2024-08-16 03:00:00","10.6195","3.33723","26.469","1.194","7.41","0.662","3.808","0.1","0.11","29.6957","4.68456","12.96","0","SATNPRO1962","21.222","0.29726","5"],
    [30993,"HCEP03730560","2024-08-16 03:15:00","10.6189","3.33723","26.357","1.191","7.41","0.655","4.173","0.09","0.47","29.6962","4.68463","12.93","0","SATNPRO1962","21.164","0.29646","5"],
    [30994,"HCEP03730560","2024-08-16 03:30:00","10.619","3.33721","26.179","1.192","7.41","0.747","3.83","0.59","0.27","29.696","4.68458","12.94","0","SATNPRO1962","21.292","0.29822","5"],
    [30995,"HCEP03730560","2024-08-16 03:45:00","10.6188","3.3372","26.045","1.197","7.41","0.628","3.736","0.07","0.23","29.6961","4.68459","12.99","0","SATNPRO1962","21.244","0.29756","5"],
    [30996,"HCEP03730560","2024-08-16 04:00:00","10.6179","3.3372","25.869","1.197","7.41","0.584","3.904","0.08","0.13","29.6969","4.68471","13","0","SATNPRO1962","21.3","0.29834","5"],
    [30997,"HCEP03730560","2024-08-16 04:15:00","10.6161","3.33715","25.688","1.204","7.41","0.587","4.192","0.07","0.13","29.698","4.68489","13.08","0","SATNPRO1962","21.218","0.29718","5"],
    [30998,"HCEP03730560","2024-08-16 04:30:00","10.617","3.33717","25.522","1.206","7.41","0.613","4.36","0.14","0.41","29.6975","4.68479","13.09","0","SATNPRO1962","21.214","0.29714","5"],
    [30999,"HCEP03730560","2024-08-16 04:45:00","10.6228","3.33799","25.352","1.328","7.43","0.609","4.043","0.09","0.19","29.701","4.68519","14.42","0","SATNPRO1962","22.584","0.31634","5"],
    [31000,"HCEP03730560","2024-08-16 05:00:00","10.6178","3.3372","25.158","1.5","7.42","0.573","3.854","0.1","0.11","29.6974","4.68474","16.29","0","SATNPRO1962","21.701999999999998","0.304","5"],
    [31001,"HCEP03730560","2024-08-16 05:15:00","10.618","3.33725","24.995","1.288","7.41","0.656","3.993","0.36","0.14","29.6977","4.68477","13.99","0","SATNPRO1962","22.032","0.30864","5"],
    [31002,"HCEP03730560","2024-08-16 05:30:00","10.6184","3.33732","24.817","1.281","7.42","0.595","3.659","0.11","0.17","29.6981","4.68482","13.91","0","SATNPRO1962","21.828","0.30576","5"],
    [31003,"HCEP03730560","2024-08-16 05:45:00","10.6205","3.33756","24.663","1.361","7.42","0.691","3.253","0.2","0.27","29.6988","4.68488","14.78","0","SATNPRO1962","22.894","0.32066","5"],
    [31004,"HCEP03730560","2024-08-16 06:00:00","10.6222","3.33779","24.517","1.508","7.44","0.797","4.506","0.3","1.15","29.6998","4.68498","16.38","0","SATNPRO1962","23.512","0.3293","5"],
    [31005,"HCEP03730560","2024-08-16 06:15:00","10.6198","3.33747","24.376","1.538","7.43","0.679","3.411","0.15","0.23","29.6987","4.68486","16.7","0","SATNPRO1962","22.35","0.31304","5"],
    [31006,"HCEP03730560","2024-08-16 06:30:00","10.621","3.33771","24.259","1.532","7.44","0.831","3.332","0.4","0.33","29.7001","4.68503","16.63","0","SATNPRO1962","23.552","0.32988","5"],
    [31007,"HCEP03730560","2024-08-16 06:45:00","10.6199","3.33764","24.167","1.561","7.44","0.656","3.099","0.19","0.15","29.7003","4.68507","16.95","0","SATNPRO1962","23.322","0.32668","5"],
    [31008,"HCEP03730560","2024-08-16 07:00:00","10.6205","3.33788","24.092","1.608","7.44","0.934","3.749","0.19","0.82","29.7023","4.68534","17.46","0","SATNPRO1962","23.338","0.32688","5"],
    [31009,"HCEP03730560","2024-08-16 07:15:00","10.6187","3.33776","24.036","1.655","7.44","0.657","2.637","0.39","0.11","29.7025","4.68539","17.97","0","SATNPRO1962","22.686","0.31772","5"],
    [31010,"HCEP03730560","2024-08-16 07:30:00","10.6216","3.33767","24.025","1.596","7.44","0.659","3.02","0.14","0.23","29.6993","4.6849","17.33","0","SATNPRO1962","22.718","0.31822","5"],
    [31011,"HCEP03730560","2024-08-16 07:45:00","10.6238","3.33772","24.015","1.537","7.44","0.59","2.891","0.15","0.11","29.698","4.68467","16.69","0","SATNPRO1962","22.596","0.31654","5"],
    [31012,"HCEP03730560","2024-08-16 08:00:00","10.6268","3.33784","24.024","1.517","7.44","0.723","2.935","0.39","0.24","29.6968","4.68446","16.47","0","SATNPRO1962","22.594","0.31648","5"],
    [31013,"HCEP03730560","2024-08-16 08:15:00","10.6223","3.33753","24.05","1.467","7.43","0.709","3.063","0.2","0.24","29.6973","4.6846","15.93","0","SATNPRO1962","22.056","0.30892","5"],
    [31014,"HCEP03730560","2024-08-16 08:30:00","10.622","3.33758","24.104","1.432","7.43","0.857","3.098","0.82","0.33","29.698","4.68471","15.55","0","SATNPRO1962","22.598","0.31654","5"],
    [31015,"HCEP03730560","2024-08-16 08:45:00","10.622","3.33774","24.162","1.477","7.43","0.787","3.08","0.21","0.12","29.6996","4.68494","16.04","0","SATNPRO1962","22.654","0.3173","5"],
    [31016,"HCEP03730560","2024-08-16 09:00:00","10.6131","3.33758","24.243","1.539","7.44","0.718","3.306","0.24","0.14","29.7053","4.68589","16.71","0","SATNPRO1962","22.926","0.3211","5"],
    [31017,"HCEP03730560","2024-08-16 09:15:00","10.6114","3.33765","24.365","1.596","7.44","0.689","3.209","0.12","0.13","29.7073","4.68621","17.32","0","SATNPRO1962","23.3","0.32634","5"],
    [31018,"HCEP03730560","2024-08-16 09:30:00","10.6081","3.33776","24.464","1.672","7.45","0.718","3.227","0.2","0.14","29.711","4.68679","18.15","0","SATNPRO1962","23.46","0.32856","5"],
    [31019,"HCEP03730560","2024-08-16 09:45:00","10.606","3.33799","24.57","1.749","7.45","0.727","3.04","0.14","0.2","29.715","4.6874","18.99","0","SATNPRO1962","23.634","0.33102","5"],
    [31020,"HCEP03730560","2024-08-16 10:00:00","10.6069","3.33785","24.694","1.771","7.45","0.575","3.056","0.09","0.11","29.7128","4.68709","19.23","0","SATNPRO1962","23.336","0.32688","5"],
    [31021,"HCEP03730560","2024-08-16 10:15:00","10.6077","3.33767","24.865","1.7","7.45","0.719","3.663","0.11","0.28","29.7103","4.68673","18.46","0","SATNPRO1962","23.146","0.3242","5"],
    [31022,"HCEP03730560","2024-08-16 10:30:00","10.6119","3.33785","25.047","1.649","7.45","0.681","3.176","0.16","0.21","29.7086","4.68643","17.91","0","SATNPRO1962","23.24","0.32554","5"],
    [31023,"HCEP03730560","2024-08-16 10:45:00","10.6063","3.3379","25.155","1.672","7.45","0.662","3.187","0.12","0.3","29.7135","4.68723","18.16","0","SATNPRO1962","23.512","0.32936","5"],
    [31024,"HCEP03730560","2024-08-16 11:00:00","10.6029","3.33812","25.348","1.742","7.46","0.677","3.316","0.12","0.12","29.7185","4.688","18.91","0","SATNPRO1962","23.625999999999998","0.33094","5"],
    [31025,"HCEP03730560","2024-08-16 11:15:00","10.6022","3.33876","25.543","1.864","7.47","0.97","3.552","0.35","0.43","29.7252","4.68897","20.23","0","SATNPRO1962","24.062","0.33706","5"],
    [31026,"HCEP03730560","2024-08-16 11:30:00","10.599","3.33861","25.738","1.962","7.47","0.653","3.546","0.08","0.17","29.7262","4.68918","21.3","0","SATNPRO1962","23.988","0.336","5"],
    [31027,"HCEP03730560","2024-08-16 11:45:00","10.5988","3.33857","25.941","1.985","7.47","0.715","3.207","0.13","0.27","29.7259","4.68915","21.54","0","SATNPRO1962","24.304","0.34042","5"],
    [31028,"HCEP03730560","2024-08-16 12:00:00","10.6011","3.33871","26.129","2.018","7.48","0.659","3.162","0.1","0.55","29.7254","4.68905","21.9","0","SATNPRO1962","24.502000000000002","0.34316","5"],
    [31029,"HCEP03730560","2024-08-16 12:15:00","10.6009","3.3385","26.317","2.03","7.48","0.775","3.192","0.16","0.15","29.7234","4.68878","22.04","0","SATNPRO1962","24.218","0.33922","5"],
    [31030,"HCEP03730560","2024-08-16 12:30:00","10.6011","3.32095","26.485","1.997","7.48","0.715","3.052","0.15","0.56","29.5502","4.66412","21.65","0","SATNPRO1962","24.714000000000002","0.34612","5"],
    [31031,"HCEP03730560","2024-08-16 12:45:00","10.6031","3.33844","26.661","1.995","7.48","0.76","3.028","0.11","0.32","29.7209","4.68841","21.65","0","SATNPRO1962","24.062","0.337","5"],
    [31032,"HCEP03730560","2024-08-16 13:00:00","10.6047","3.33829","26.817","1.977","7.48","0.623","2.498","0.08","0.24","29.7181","4.68799","21.46","0","SATNPRO1962","24.13","0.338","5"],
    [31033,"HCEP03730560","2024-08-16 13:15:00","10.6074","3.33794","26.954","1.953","7.47","0.696","2.556","0.26","0.16","29.7124","4.68715","21.2","0","SATNPRO1962","23.732","0.33242","5"],
    [31034,"HCEP03730560","2024-08-16 13:30:00","10.605","3.3375","27.094","1.768","7.45","0.656","3.592","0.11","0.23","29.7099","4.68684","19.19","0","SATNPRO1962","23.062","0.32302","5"],
    [31035,"HCEP03730560","2024-08-16 13:45:00","10.6071","3.33754","27.208","1.6","7.45","0.863","3.476","0.54","0.12","29.7085","4.68662","17.37","0","SATNPRO1962","23.012","0.32238","5"],
    [31036,"HCEP03730560","2024-08-16 14:00:00","10.6073","3.33759","27.309","1.587","7.45","0.695","3.256","0.14","0.2","29.7089","4.68667","17.23","0","SATNPRO1962","23.362","0.32722","5"],
    [31037,"HCEP03730560","2024-08-16 14:15:00","10.6127","3.33369","27.371","1.671","7.45","0.692","2.774","0.18","0.18","29.666","4.68048","18.13","0","SATNPRO1962","23.858","0.33422","5"],
    [31038,"HCEP03730560","2024-08-16 14:30:00","10.6134","3.33797","27.428","1.805","7.46","0.585","2.316","0.15","0.2","29.7076","4.6864","19.6","0","SATNPRO1962","24.386","0.34156","5"],
    [31039,"HCEP03730560","2024-08-16 14:45:00","10.6184","3.33834","27.49","1.943","7.47","0.744","1.698","0.22","0.1","29.7071","4.68625","21.09","0","SATNPRO1962","25.736","0.3605","5"],
    [31040,"HCEP03730560","2024-08-16 15:00:00","10.6219","3.33852","27.519","2.109","7.48","0.729","1.736","0.2","0.23","29.7061","4.68606","22.9","0","SATNPRO1962","25.528000000000002","0.35758","5"],
    [31041,"HCEP03730560","2024-08-16 15:15:00","10.6363","3.33932","27.54","2.21","7.49","0.859","1.424","0.3","0.12","29.7022","4.68528","24.01","0","SATNPRO1962","26.080000000000002","0.3653","5"],
    [31042,"HCEP03730560","2024-08-16 15:30:00","10.6251","3.33864","27.543","2.28","7.5","0.755","1.976","0.19","0.21","29.7046","4.6858","24.76","0","SATNPRO1962","26.137999999999998","0.3661","5"],
    [31043,"HCEP03730560","2024-08-16 15:45:00","10.605","3.3377","27.544","2.027","7.47","0.745","3.218","0.12","0.22","29.7118","4.68713","22","0","SATNPRO1962","23.608","0.33068","5"],
    [31044,"HCEP03730560","2024-08-16 16:00:00","10.6018","3.33755","27.564","1.712","7.45","0.663","3.336","0.15","0.11","29.7128","4.68733","18.58","0","SATNPRO1962","23.242","0.32554","5"],
    [31045,"HCEP03730560","2024-08-16 16:15:00","10.6093","3.33792","27.554","1.687","7.46","0.742","2.718","0.19","0.09","29.7104","4.68687","18.32","0","SATNPRO1962","24.233999999999998","0.33942","5"],
    [31046,"HCEP03730560","2024-08-16 16:30:00","10.6221","3.33846","27.535","1.917","7.48","0.816","1.981","0.19","0.15","29.7053","4.68594","20.82","0","SATNPRO1962","25.674","0.35958","5"],
    [31047,"HCEP03730560","2024-08-16 16:45:00","10.6292","3.33865","27.5","2.171","7.49","0.85","1.895","0.21","0.1","29.7014","4.68527","23.57","0","SATNPRO1962","26.49","0.37102","5"],
    [31048,"HCEP03730560","2024-08-16 17:00:00","10.6209","3.33828","27.471","2.127","7.48","0.785","1.933","0.19","0.09","29.7046","4.68585","23.1","0","SATNPRO1962","25.648","0.35926","5"],
    [31049,"HCEP03730560","2024-08-16 17:15:00","10.6248","3.33836","27.44","1.964","7.47","0.807","1.993","0.19","0.13","29.7021","4.68544","21.32","0","SATNPRO1962","24.948","0.34948","5"],
    [31050,"HCEP03730560","2024-08-16 17:30:00","10.6043","3.33761","27.392","1.777","7.46","1.368","5.12","0.65","1.89","29.7115","4.68709","19.29","0","SATNPRO1962","23.483999999999998","0.32896","5"],
    [31051,"HCEP03730560","2024-08-16 17:45:00","10.6106","3.33777","27.341","1.651","7.45","0.687","2.489","0.21","0.16","29.708","4.68649","17.93","0","SATNPRO1962","24.126","0.33788","5"],
    [31052,"HCEP03730560","2024-08-16 18:00:00","10.6082","3.33784","27.283","1.661","7.45","0.825","3.592","0.23","0.2","29.7106","4.6869","18.03","0","SATNPRO1962","24.026","0.3365","5"],
    [31053,"HCEP03730560","2024-08-16 18:15:00","10.6057","3.33806","27.23","1.716","7.46","0.85","3.632","0.08","0.23","29.7148","4.68753","18.63","0","SATNPRO1962","24.246","0.33962","5"],
    [31054,"HCEP03730560","2024-08-16 18:30:00","10.6059","3.33802","27.159","1.784","7.46","0.781","3.917","0.12","0.29","29.7143","4.68746","19.36","0","SATNPRO1962","23.732","0.33244","5"],
    [31055,"HCEP03730560","2024-08-16 18:45:00","10.6082","3.3381","27.086","1.74","7.46","0.867","4.208","0.12","0.32","29.7132","4.68726","18.89","0","SATNPRO1962","23.376","0.32744","5"],
    [31056,"HCEP03730560","2024-08-16 19:00:00","10.6108","3.33817","27.016","1.749","7.46","0.794","4.144","0.11","0.27","29.7118","4.68702","18.98","0","SATNPRO1962","23.462","0.32864","5"],
    [31057,"HCEP03730560","2024-08-16 19:15:00","10.6125","3.33819","26.962","1.747","7.46","0.818","4.16","0.13","0.31","29.7107","4.68682","18.96","0","SATNPRO1962","23.266","0.32582","5"],
    [31058,"HCEP03730560","2024-08-16 19:30:00","10.6141","3.33822","26.91","1.738","7.46","0.722","4.173","0.1","0.33","29.7096","4.68665","18.87","0","SATNPRO1962","23.442","0.32834","5"],
    [31059,"HCEP03730560","2024-08-16 19:45:00","10.6144","3.33823","26.852","1.743","7.46","0.803","4.211","0.22","0.22","29.7096","4.68663","18.93","0","SATNPRO1962","23.278","0.32606","5"],
    [31060,"HCEP03730560","2024-08-16 20:00:00","10.6162","3.33827","26.805","1.753","7.46","0.739","4.167","0.11","0.38","29.7085","4.68645","19.04","0","SATNPRO1962","23.44","0.32832","5"],
    [31061,"HCEP03730560","2024-08-16 20:15:00","10.6175","3.33832","26.766","1.782","7.46","0.767","3.748","0.23","0.18","29.708","4.68635","19.35","0","SATNPRO1962","23.556","0.32996","5"],
    [31062,"HCEP03730560","2024-08-16 20:30:00","10.619","3.33834","26.746","1.805","7.46","0.646","3.72","0.11","0.15","29.707","4.68618","19.6","0","SATNPRO1962","23.376","0.32738","5"],
    [31063,"HCEP03730560","2024-08-16 20:45:00","10.6208","3.33838","26.74","1.828","7.46","0.698","3.518","0.13","0.11","29.7059","4.68599","19.85","0","SATNPRO1962","23.573999999999998","0.3302","5"],
    [31064,"HCEP03730560","2024-08-16 21:00:00","10.6202","3.33829","26.738","1.82","7.46","0.699","3.766","0.11","0.25","29.7054","4.68594","19.76","0","SATNPRO1962","23.492","0.32906","5"],
    [31065,"HCEP03730560","2024-08-16 21:15:00","10.6232","3.33842","26.768","1.824","7.46","0.737","3.725","0.11","0.41","29.7043","4.68574","19.8","0","SATNPRO1962","23.59","0.33044","5"],
    [31066,"HCEP03730560","2024-08-16 21:30:00","10.6228","3.33837","26.758","1.85","7.46","0.684","3.699","0.08","0.19","29.7041","4.68572","20.09","0","SATNPRO1962","23.614","0.3307","5"],
    [31067,"HCEP03730560","2024-08-16 21:45:00","10.6245","3.33846","26.771","1.859","7.47","0.7","3.447","0.09","0.16","29.7037","4.68563","20.18","0","SATNPRO1962","23.727999999999998","0.33234","5"],
    [31068,"HCEP03730560","2024-08-16 22:00:00","10.6253","3.33851","26.812","1.885","7.47","0.696","3.566","0.12","0.32","29.7035","4.68559","20.47","0","SATNPRO1962","23.924","0.33508","5"],
    [31069,"HCEP03730560","2024-08-16 22:15:00","10.6239","3.33843","26.888","1.883","7.47","0.699","3.464","0.07","0.3","29.7038","4.68565","20.44","0","SATNPRO1962","23.586","0.33034","5"],
    [31070,"HCEP03730560","2024-08-16 22:30:00","10.6216","3.33829","26.956","1.831","7.46","0.614","3.466","0.09","0.11","29.7043","4.68577","19.88","0","SATNPRO1962","23.372","0.3274","5"],
    [31071,"HCEP03730560","2024-08-16 22:45:00","10.6194","3.33819","27.011","1.767","7.46","0.67","3.526","0.11","0.21","29.705","4.68591","19.19","0","SATNPRO1962","23.308","0.32646","5"],
    [31072,"HCEP03730560","2024-08-16 23:00:00","10.6161","3.3381","27.056","1.717","7.45","0.675","3.744","0.17","0.17","29.7068","4.68621","18.65","0","SATNPRO1962","23.084","0.32332","5"],
    [31073,"HCEP03730560","2024-08-16 23:15:00","10.6193","3.33817","27.103","1.708","7.46","0.707","3.967","0.1","0.37","29.7049","4.68591","18.54","0","SATNPRO1962","23.122","0.32386","5"],
    [31074,"HCEP03730560","2024-08-16 23:30:00","10.6158","3.33809","27.099","1.727","7.45","0.669","3.882","0.08","0.3","29.707","4.68625","18.75","0","SATNPRO1962","23.11","0.32364","5"],
    [31075,"HCEP03730560","2024-08-16 23:45:00","10.6158","3.33737","27.131","1.718","7.45","0.756","3.717","0.08","0.14","29.6999","4.68524","18.65","0","SATNPRO1962","23.25","0.32566","5"],
    [31076,"HCEP03730560","2024-08-17 00:00:00","10.6144","3.33806","27.156","1.71","7.45","0.743","3.885","0.13","0.15","29.7078","4.68639","18.57","0","SATNPRO1962","23.072","0.32316","5"],
    [31077,"HCEP03730560","2024-08-17 00:15:00","10.6118","3.33801","27.121","1.688","7.45","0.761","3.833","0.14","0.13","29.7094","4.68666","18.33","0","SATNPRO1962","23.292","0.32624","5"],
    [31078,"HCEP03730560","2024-08-17 00:30:00","10.609","3.33798","27.142","1.668","7.45","0.729","3.967","0.13","0.15","29.7114","4.68699","18.11","0","SATNPRO1962","23.15","0.32426","5"],
    [31079,"HCEP03730560","2024-08-17 00:45:00","10.6056","3.33796","27.169","1.649","7.45","0.692","4.776","0.07","3.8","29.7139","4.6874","17.9","0","SATNPRO1962","23.204","0.32498","5"],
    [31080,"HCEP03730560","2024-08-17 01:00:00","10.6039","3.33794","27.183","1.642","7.45","0.657","3.834","0.17","0.14","29.7152","4.68761","17.82","0","SATNPRO1962","23.2","0.32496","5"],
    [31081,"HCEP03730560","2024-08-17 01:15:00","10.6027","3.33794","27.203","1.62","7.45","0.672","3.98","0.16","0.3","29.716","4.68776","17.59","0","SATNPRO1962","23.02","0.3224","5"],
    [31082,"HCEP03730560","2024-08-17 01:30:00","10.6003","3.33792","27.199","1.618","7.45","0.615","3.801","0.06","0.38","29.7178","4.68805","17.56","0","SATNPRO1962","23.176","0.32464","5"],
    [31083,"HCEP03730560","2024-08-17 01:45:00","10.5973","3.33788","27.184","1.597","7.44","0.713","4.057","0.12","0.18","29.7199","4.6884","17.34","0","SATNPRO1962","23.062","0.32298","5"],
    [31084,"HCEP03730560","2024-08-17 02:00:00","10.5965","3.33801","27.163","1.605","7.45","0.719","3.654","0.16","0.16","29.721800000000002","4.68867","17.42","0","SATNPRO1962","23.38","0.3275","5"],
    [31085,"HCEP03730560","2024-08-17 02:15:00","10.5953","3.33814","27.139","1.648","7.45","0.617","3.711","0.11","0.12","29.7241","4.68902","17.88","0","SATNPRO1962","23.332","0.32678","5"],
    [31086,"HCEP03730560","2024-08-17 02:30:00","10.5978","3.33819","27.087","1.711","7.45","0.624","3.989","0.16","0.22","29.7225","4.68875","18.57","0","SATNPRO1962","23.718","0.3322","5"],
    [31087,"HCEP03730560","2024-08-17 02:45:00","10.6028","3.33812","27.024","1.769","7.46","0.627","3.271","0.18","0.17","29.7178","4.688","19.2","0","SATNPRO1962","24.288","0.34024","5"],
    [31088,"HCEP03730560","2024-08-17 03:00:00","10.603","3.33814","26.953","1.795","7.46","0.794","2.619","0.37","0.32","29.7179","4.688","19.49","0","SATNPRO1962","24.400000000000002","0.3418","5"],
    [31089,"HCEP03730560","2024-08-17 03:15:00","10.6057","3.33817","26.864","1.819","7.46","0.644","2.146","0.2","0.24","29.7161","4.68769","19.75","0","SATNPRO1962","24.616","0.34474","5"],
    [31090,"HCEP03730560","2024-08-17 03:30:00","10.6166","3.33823","26.752","1.836","7.46","0.64","1.843","0.19","0.27","29.7079","4.68635","19.93","0","SATNPRO1962","24.714","0.34618","5"],
    [31091,"HCEP03730560","2024-08-17 03:45:00","10.614","3.33818","26.644","1.824","7.46","0.671","1.966","0.19","0.58","29.7094","4.68661","19.8","0","SATNPRO1962","24.59","0.34438","5"],
    [31092,"HCEP03730560","2024-08-17 04:00:00","10.6078","3.33656","26.493","1.815","7.46","0.553","2.186","0.18","0.19","29.6986","4.68515","19.7","0","SATNPRO1962","24.490000000000002","0.34302","5"],
    [31093,"HCEP03730560","2024-08-17 04:15:00","10.6045","3.33819","26.344","1.81","7.46","0.69","2.707","0.3","0.28","29.7174","4.68787","19.65","0","SATNPRO1962","24.298000000000002","0.34032","5"],
    [31094,"HCEP03730560","2024-08-17 04:30:00","10.6052","3.33802","26.17","1.795","7.46","0.581","2.337","0.21","0.11","29.7152","4.68754","19.48","0","SATNPRO1962","24.742","0.34658","5"],
    [31095,"HCEP03730560","2024-08-17 04:45:00","10.6077","3.33796","25.992","1.744","7.46","0.639","2.168","0.24","0.3","29.7127","4.68713","18.94","0","SATNPRO1962","24.206","0.33904","5"],
    [31096,"HCEP03730560","2024-08-17 05:00:00","10.6092","3.33789","25.799","1.711","7.46","0.587","2.207","0.2","0.1","29.7108","4.68683","18.58","0","SATNPRO1962","24.186","0.33878","5"],
    [31097,"HCEP03730560","2024-08-17 05:15:00","10.6092","3.33782","25.601","1.677","7.45","0.572","2.222","0.13","0.09","29.7103","4.68674","18.21","0","SATNPRO1962","23.998","0.33616","5"],
    [31098,"HCEP03730560","2024-08-17 05:30:00","10.6125","3.33788","25.39","1.652","7.45","0.602","2.417","0.21","0.22","29.7082","4.68638","17.94","0","SATNPRO1962","24.092","0.33746","5"],
    [31099,"HCEP03730560","2024-08-17 05:45:00","10.6083","3.33775","25.195","1.644","7.45","0.549","2.482","0.16","0.13","29.7105","4.68676","17.85","0","SATNPRO1962","23.727999999999998","0.33238","5"],
    [31100,"HCEP03730560","2024-08-17 06:00:00","10.6145","3.3379","24.992","1.639","7.45","0.66","2.369","0.53","0.2","29.707","4.68615","17.8","0","SATNPRO1962","23.964","0.33564","5"],
    [31101,"HCEP03730560","2024-08-17 06:15:00","10.6256","3.33823","24.798","1.738","7.46","0.838","1.939","0.45","0.15","29.7012","4.68515","18.88","0","SATNPRO1962","24.608","0.34472","5"],
    [31102,"HCEP03730560","2024-08-17 06:30:00","10.6219","3.33814","24.609","1.805","7.46","0.696","2.12","0.25","0.19","29.7035","4.68551","19.59","0","SATNPRO1962","23.974","0.33578","5"],
    [31103,"HCEP03730560","2024-08-17 06:45:00","10.619","3.33806","24.431","1.783","7.46","0.753","2.141","0.21","0.1","29.705","4.68578","19.36","0","SATNPRO1962","24.392","0.34166","5"],
    [31104,"HCEP03730560","2024-08-17 07:00:00","10.614","3.33786","24.267","1.717","7.45","0.622","2.989","0.13","0.18","29.7072","4.68616","18.64","0","SATNPRO1962","23.558","0.32998","5"],
    [31105,"HCEP03730560","2024-08-17 07:15:00","10.6114","3.33785","24.106","1.63","7.45","0.785","3.623","0.18","0.26","29.7093","4.68648","17.7","0","SATNPRO1962","23.12","0.32386","5"],
    [31106,"HCEP03730560","2024-08-17 07:30:00","10.6212","3.33823","23.982","1.676","7.46","0.618","2.446","0.09","0.35","29.7051","4.68572","18.2","0","SATNPRO1962","24.954","0.34952","5"],
    [31107,"HCEP03730560","2024-08-17 07:45:00","10.5951","3.33777","23.887","1.676","7.45","0.704","3.937","0.07","0.64","29.7219","4.68852","18.19","0","SATNPRO1962","22.696","0.31784","5"],
    [31108,"HCEP03730560","2024-08-17 08:00:00","10.5946","3.33692","23.809","1.519","7.44","0.673","3.76","0.12","0.25","29.7139","4.68739","16.49","0","SATNPRO1962","22.846","0.31998","5"],
    [31109,"HCEP03730560","2024-08-17 08:15:00","10.5926","3.33796","23.772","1.515","7.44","0.719","3.899","0.1","0.2","29.7259","4.68912","16.44","0","SATNPRO1962","22.84","0.3199","5"],
    [31110,"HCEP03730560","2024-08-17 08:30:00","10.5942","3.33835","23.751","1.573","7.45","0.724","3.813","0.15","0.16","29.7284","4.68945","17.07","0","SATNPRO1962","23.13","0.32398","5"],
    [31111,"HCEP03730560","2024-08-17 08:45:00","10.5952","3.33894","23.76","1.714","7.46","0.768","3.65","0.15","0.21","29.7334","4.69015","18.6","0","SATNPRO1962","23.772000000000002","0.33294","5"],
    [31112,"HCEP03730560","2024-08-17 09:00:00","10.5944","3.33931","23.79","1.866","7.47","0.769","3.455","0.18","0.14","29.7377","4.69077","20.26","0","SATNPRO1962","24.424","0.3421","5"],
    [31113,"HCEP03730560","2024-08-17 09:15:00","10.5912","3.33942","23.84","1.97","7.47","0.959","4.393","0.17","1","29.7414","4.69136","21.38","0","SATNPRO1962","24.274","0.33998","5"],
    [31114,"HCEP03730560","2024-08-17 09:30:00","10.5887","3.3397","23.916","1.971","7.48","0.931","4.519","0.12","0.2","29.7462","4.69208","21.39","0","SATNPRO1962","24.206","0.33904","5"],
    [31115,"HCEP03730560","2024-08-17 09:45:00","10.587","3.34018","24.004","1.995","7.48","1.015","4.294","0.19","0.24","29.7522","4.69297","21.65","0","SATNPRO1962","24.474","0.34278","5"],
    [31116,"HCEP03730560","2024-08-17 10:00:00","10.5863","3.34162","24.141","2.153","7.5","0.973","4.23","0.14","0.25","29.767","4.6951","23.37","0","SATNPRO1962","25.362000000000002","0.35522","5"],
    [31117,"HCEP03730560","2024-08-17 10:15:00","10.5872","3.34192","24.301","2.354","7.51","0.942","4.111","0.19","0.17","29.7692","4.6954","25.55","0","SATNPRO1962","25.466","0.3567","5"],
    [31118,"HCEP03730560","2024-08-17 10:30:00","10.5886","3.34226","24.455","2.487","7.52","0.729","3.488","0.09","0.13","29.7713","4.6957","27","0","SATNPRO1962","26.024","0.36448","5"],
    [31119,"HCEP03730560","2024-08-17 10:45:00","10.5891","3.34231","24.56","2.579","7.53","0.8","3.643","0.15","0.18","29.7713","4.69569","27.99","0","SATNPRO1962","25.89","0.36264","5"],
    [31120,"HCEP03730560","2024-08-17 11:00:00","10.5895","3.34251","24.722","2.627","7.53","0.982","4.003","0.4","0.47","29.7729","4.69592","28.51","0","SATNPRO1962","26.172","0.36656","5"],
    [31121,"HCEP03730560","2024-08-17 11:15:00","10.5881","3.34266","24.915","2.659","7.54","0.83","3.904","0.11","0.16","29.7755","4.69632","28.86","0","SATNPRO1962","25.896","0.36272","5"],
    [31122,"HCEP03730560","2024-08-17 11:30:00","10.5878","3.33809","25.088","2.652","7.54","1.167","4.196","0.55","0.54","29.7305","4.68993","28.78","0","SATNPRO1962","26.154","0.36636","5"],
    [31123,"HCEP03730560","2024-08-17 11:45:00","10.5878","3.33595","25.281","2.706","7.55","0.998","3.723","0.18","0.2","29.7093","4.68692","29.36","0","SATNPRO1962","26.512","0.37136","5"],
    [31124,"HCEP03730560","2024-08-17 12:00:00","10.5891","3.34362","25.448","2.795","7.55","0.873","3.653","0.12","0.22","29.7838","4.69752","30.34","0","SATNPRO1962","26.75","0.37468","5"],
    [31125,"HCEP03730560","2024-08-17 12:15:00","10.5877","3.34365","25.659","2.888","7.56","0.868","3.34","0.17","0.17","29.7852","4.69776","31.35","0","SATNPRO1962","26.636","0.37312","5"],
    [31126,"HCEP03730560","2024-08-17 12:30:00","10.588","3.34331","25.873","2.801","7.55","0.919","3.8","0.34","0.43","29.7816","4.69725","30.41","0","SATNPRO1962","26.47","0.37072","5"],
    [31127,"HCEP03730560","2024-08-17 12:45:00","10.5886","3.34342","26.088","2.77","7.55","0.816","3.411","0.15","0.13","29.7821","4.69733","30.08","0","SATNPRO1962","26.474","0.37084","5"],
    [31128,"HCEP03730560","2024-08-17 13:00:00","10.5887","3.34327","26.302","2.767","7.55","0.84","3.655","0.16","0.21","29.7804","4.6971","30.04","0","SATNPRO1962","26.182","0.36676","5"],
    [31129,"HCEP03730560","2024-08-17 13:15:00","10.5888","3.34315","26.51","2.727","7.55","0.88","3.564","0.2","0.19","29.779","4.6969","29.6","0","SATNPRO1962","26.188","0.36682","5"],
    [31130,"HCEP03730560","2024-08-17 13:30:00","10.5887","3.34303","26.691","2.689","7.54","0.754","3.565","0.13","0.12","29.7779","4.69675","29.2","0","SATNPRO1962","26.214000000000002","0.36716","5"],
    [31131,"HCEP03730560","2024-08-17 13:45:00","10.5884","3.34318","26.856","2.675","7.54","0.907","3.359","0.34","0.16","29.7795","4.697","29.04","0","SATNPRO1962","26.502","0.37124","5"],
    [31132,"HCEP03730560","2024-08-17 14:00:00","10.5885","3.34362","27.022","2.734","7.55","0.848","3.555","0.14","0.26","29.7837","4.6976","29.68","0","SATNPRO1962","26.638","0.3731","5"],
    [31133,"HCEP03730560","2024-08-17 14:15:00","10.599","3.34421","27.144","2.925","7.57","0.786","2.972","0.21","0.11","29.781","4.69705","31.76","0","SATNPRO1962","27.678","0.38772","5"],
    [31134,"HCEP03730560","2024-08-17 14:30:00","10.6033","3.34461","27.246","3.177","7.59","0.819","2.218","0.12","0.14","29.7814","4.69706","34.5","0","SATNPRO1962","28.204","0.39506","5"],
    [31135,"HCEP03730560","2024-08-17 14:45:00","10.6012","3.3445","27.37","3.246","7.59","0.815","2.459","0.12","0.12","29.782","4.69718","35.25","0","SATNPRO1962","27.656","0.38736","5"],
    [31136,"HCEP03730560","2024-08-17 15:00:00","10.6022","3.34425","27.479","3.228","7.59","0.725","2.06","0.09","0.07","29.7786","4.69669","35.05","0","SATNPRO1962","27.886","0.39056","5"],
    [31137,"HCEP03730560","2024-08-17 15:15:00","10.5998","3.34437","27.532","3.211","7.59","0.792","2.241","0.11","0.1","29.7817","4.69717","34.87","0","SATNPRO1962","27.78","0.38912","5"],
    [31138,"HCEP03730560","2024-08-17 15:30:00","10.5912","3.34437","27.638","3.132","7.58","0.804","3.413","0.12","0.11","29.7887","4.69831","34","0","SATNPRO1962","27.016000000000002","0.3784","5"],
    [31139,"HCEP03730560","2024-08-17 15:45:00","10.595","3.34447","27.612","3.049","7.58","0.759","2.357","0.1","0.13","29.7866","4.69795","33.1","0","SATNPRO1962","27.732","0.38842","5"],
    [31140,"HCEP03730560","2024-08-17 16:00:00","10.6154","3.25674","27.611","3.182","7.59","0.742","1.768","0.13","0.09","28.9064","4.5721","34.37","0","SATNPRO1962","28.324","0.3967","5"],
    [31141,"HCEP03730560","2024-08-17 16:15:00","10.607","3.31059","27.609","3.224","7.59","0.768","1.832","0.1","0.09","29.4429","4.64879","34.93","0","SATNPRO1962","28.494","0.39908","5"],
    [31142,"HCEP03730560","2024-08-17 16:30:00","10.5958","3.34432","27.618","3.166","7.58","0.865","2.728","0.38","0.09","29.7845","4.69763","34.37","0","SATNPRO1962","28.114","0.39382","5"],
    [31143,"HCEP03730560","2024-08-17 16:45:00","10.5905","3.34427","27.687","3.02","7.57","0.869","3.518","0.14","0.15","29.7882","4.69826","32.78","0","SATNPRO1962","26.994","0.37806","5"],
    [31144,"HCEP03730560","2024-08-17 17:00:00","10.5907","3.3442","27.653","2.914","7.57","0.798","3.286","0.13","0.14","29.7875","4.69815","31.63","0","SATNPRO1962","27.156","0.38042","5"],
    [31145,"HCEP03730560","2024-08-17 17:15:00","10.5923","3.30256","27.598","2.887","7.57","0.759","3.04","0.11","0.11","29.3755","4.63942","31.26","0","SATNPRO1962","27.162","0.38046","5"],
    [31146,"HCEP03730560","2024-08-17 17:30:00","10.5945","3.34366","27.608","2.85","7.56","0.733","3.415","0.08","0.11","29.779","4.69688","30.95","0","SATNPRO1962","26.814","0.37558","5"],
    [31147,"HCEP03730560","2024-08-17 17:45:00","10.5993","3.34382","27.53","2.857","7.56","0.845","2.738","0.14","0.09","29.7767","4.69646","31.03","0","SATNPRO1962","27.322","0.3827","5"],
    [31148,"HCEP03730560","2024-08-17 18:00:00","10.5984","3.34377","27.54","2.917","7.56","0.74","2.96","0.07","0.08","29.777","4.69653","31.68","0","SATNPRO1962","27.138","0.3801","5"],
    [31149,"HCEP03730560","2024-08-17 18:15:00","10.5994","3.34402","27.514","2.933","7.57","0.749","2.517","0.07","0.17","29.7786","4.69673","31.85","0","SATNPRO1962","27.414","0.38402","5"],
    [31150,"HCEP03730560","2024-08-17 18:30:00","10.598","3.34381","27.365","2.961","7.57","0.753","2.937","0.09","0.1","29.7778","4.69662","32.15","0","SATNPRO1962","27.148","0.38026","5"],
    [31151,"HCEP03730560","2024-08-17 18:45:00","10.5987","3.34402","27.361","2.939","7.57","0.772","2.774","0.13","0.14","29.7793","4.69684","31.91","0","SATNPRO1962","27.296","0.3823","5"],
    [31152,"HCEP03730560","2024-08-17 19:00:00","10.5972","3.344","27.274","2.974","7.57","0.704","2.778","0.11","0.11","29.7803","4.69699","32.29","0","SATNPRO1962","27.25","0.38168","5"],
    [31153,"HCEP03730560","2024-08-17 19:15:00","10.5996","3.34414","27.15","2.98","7.57","0.75","2.689","0.11","0.11","29.7798","4.69687","32.36","0","SATNPRO1962","27.34","0.38298","5"],
    [31154,"HCEP03730560","2024-08-17 19:30:00","10.5971","3.34401","27.109","3.003","7.57","0.655","2.817","0.19","0.15","29.7806","4.69702","32.61","0","SATNPRO1962","27.262","0.3818","5"],
    [31155,"HCEP03730560","2024-08-17 19:45:00","10.5957","3.34401","27.001","2.951","7.57","0.734","2.79","0.13","0.1","29.7817","4.69721","32.04","0","SATNPRO1962","27.178","0.38068","5"],
    [31156,"HCEP03730560","2024-08-17 20:00:00","10.5962","3.34414","26.943","2.948","7.57","0.695","2.774","0.12","0.09","29.7827","4.69733","32.01","0","SATNPRO1962","27.248","0.38168","5"],
    [31157,"HCEP03730560","2024-08-17 20:15:00","10.6001","3.3444","26.844","3.019","7.58","0.811","2.281","0.13","0.05","29.7821","4.69718","32.78","0","SATNPRO1962","27.67","0.38756","5"],
    [31158,"HCEP03730560","2024-08-17 20:30:00","10.5953","3.34432","26.799","3.058","7.57","0.716","2.536","0.15","0.11","29.7852","4.6977","33.21","0","SATNPRO1962","27.56","0.38604","5"],
    [31159,"HCEP03730560","2024-08-17 20:45:00","10.5927","3.34425","26.746","2.986","7.57","0.692","2.816","0.08","0.12","29.7867","4.69794","32.42","0","SATNPRO1962","27.164","0.38048","5"],
    [31160,"HCEP03730560","2024-08-17 21:00:00","10.5917","3.34437","26.711","2.952","7.57","0.692","2.781","0.13","0.08","29.7886","4.69823","32.05","0","SATNPRO1962","27.244","0.38162","5"],
    [31161,"HCEP03730560","2024-08-17 21:15:00","10.5911","3.34432","26.66","2.933","7.57","0.664","2.741","0.11","0.1","29.7888","4.69826","31.85","0","SATNPRO1962","27.182000000000002","0.38076","5"],
    [31162,"HCEP03730560","2024-08-17 21:30:00","10.591","3.34427","26.63","2.903","7.57","0.653","2.796","0.08","0.09","29.7883","4.6982","31.52","0","SATNPRO1962","27.048000000000002","0.37884","5"],
    [31163,"HCEP03730560","2024-08-17 21:45:00","10.5894","3.34447","26.593","2.892","7.57","0.693","2.918","0.07","0.09","29.7916","4.69869","31.4","0","SATNPRO1962","27.086","0.37936","5"],
    [31164,"HCEP03730560","2024-08-17 22:00:00","10.5891","3.34447","26.559","2.891","7.57","0.665","2.962","0.09","0.09","29.7918","4.69873","31.39","0","SATNPRO1962","27.016000000000002","0.3784","5"],
    [31165,"HCEP03730560","2024-08-17 22:15:00","10.5865","3.34469","26.63","2.861","7.56","0.711","3.154","0.08","0.14","29.7961","4.69937","31.06","0","SATNPRO1962","26.764","0.3749","5"],
    [31166,"HCEP03730560","2024-08-17 22:30:00","10.5849","3.34508","26.622","2.835","7.56","0.752","3.703","0.08","0.24","29.8013","4.70015","30.78","0","SATNPRO1962","26.586000000000002","0.3724","5"],
    [31167,"HCEP03730560","2024-08-17 22:45:00","10.5875","3.34491","26.713","2.836","7.56","0.867","3.667","0.12","0.16","29.7974","4.69955","30.79","0","SATNPRO1962","26.996","0.3781","5"],
    [31168,"HCEP03730560","2024-08-17 23:00:00","10.5868","3.34461","26.739","2.853","7.56","0.663","3.013","0.1","0.17","29.795","4.69923","30.97","0","SATNPRO1962","27.1","0.37954","5"],
    [31169,"HCEP03730560","2024-08-17 23:15:00","10.5875","3.34463","26.677","2.864","7.56","0.746","2.869","0.11","0.08","29.7946","4.69915","31.09","0","SATNPRO1962","27.032","0.37864","5"],
    [31170,"HCEP03730560","2024-08-17 23:30:00","10.5862","3.34229","26.773","2.863","7.56","0.727","3.029","0.06","0.11","29.7727","4.69606","31.08","0","SATNPRO1962","26.908","0.3769","5"],
    [31171,"HCEP03730560","2024-08-17 23:45:00","10.5853","3.34488","26.896","2.856","7.56","0.817","3.551","0.07","0.1","29.7989","4.69981","31.01","0","SATNPRO1962","26.806","0.37548","5"],
    [31172,"HCEP03730560","2024-08-18 00:00:00","10.5844","3.34515","26.956","2.871","7.56","0.742","3.126","0.08","0.12","29.8022","4.7003","31.17","0","SATNPRO1962","26.928","0.3772","5"],
    [31173,"HCEP03730560","2024-08-18 00:15:00","10.5843","3.34533","27.078","2.867","7.56","0.752","3.293","0.06","0.09","29.8041","4.70058","31.13","0","SATNPRO1962","26.864","0.3763","5"],
    [31174,"HCEP03730560","2024-08-18 00:30:00","10.5841","3.34562","27.101","2.842","7.56","0.799","3.964","0.08","0.34","29.8071","4.70101","30.86","0","SATNPRO1962","26.566","0.3721","5"],
    [31175,"HCEP03730560","2024-08-18 00:45:00","10.5855","3.34488","27.187","2.818","7.56","0.773","3.566","0.1","0.13","29.7987","4.69979","30.59","0","SATNPRO1962","26.668","0.37354","5"],
    [31176,"HCEP03730560","2024-08-18 01:00:00","10.5845","3.34513","27.219","2.835","7.56","0.748","3.203","0.1","0.09","29.8019","4.70027","30.78","0","SATNPRO1962","26.832","0.37582","5"],
    [31177,"HCEP03730560","2024-08-18 01:15:00","10.5842","3.34546","27.205","2.837","7.56","0.781","3.243","0.09","0.08","29.8053","4.70076","30.8","0","SATNPRO1962","26.672","0.37354","5"],
    [31178,"HCEP03730560","2024-08-18 01:30:00","10.5842","3.34548","27.375","2.816","7.56","0.723","3.24","0.13","0.09","29.8054","4.70079","30.57","0","SATNPRO1962","26.72","0.37424","5"],
    [31179,"HCEP03730560","2024-08-18 01:45:00","10.5858","3.34498","27.513","2.85","7.56","0.902","2.753","0.32","0.11","29.7992","4.69988","30.95","0","SATNPRO1962","27.112","0.37974","5"],
    [31180,"HCEP03730560","2024-08-18 02:00:00","10.5841","3.34536","27.568","2.86","7.56","0.61","3.056","0.11","0.17","29.8043","4.70064","31.05","0","SATNPRO1962","26.724","0.37432","5"],
    [31181,"HCEP03730560","2024-08-18 02:15:00","10.585","3.3452","27.542","2.831","7.56","0.721","2.978","0.22","0.21","29.802","4.7003","30.73","0","SATNPRO1962","26.958","0.37758","5"],
    [31182,"HCEP03730560","2024-08-18 02:30:00","10.5846","3.33179","27.514","2.816","7.56","0.781","3.087","0.17","0.12","29.67","4.6815","30.55","0","SATNPRO1962","26.72","0.37424","5"],
    [31183,"HCEP03730560","2024-08-18 02:45:00","10.5845","3.33828","27.585","2.798","7.56","0.743","3.075","0.23","0.13","29.7341","4.69064","30.36","0","SATNPRO1962","26.678","0.37368","5"],
    [31184,"HCEP03730560","2024-08-18 03:00:00","10.5856","3.33858","27.564","2.776","7.55","0.671","3.224","0.14","0.28","29.7362","4.69091","30.12","0","SATNPRO1962","26.566","0.3721","5"],
    [31185,"HCEP03730560","2024-08-18 03:15:00","10.5862","3.33925","27.508","2.715","7.55","0.711","3.729","0.11","0.14","29.7423","4.69177","29.46","0","SATNPRO1962","26.512","0.37136","5"],
    [31186,"HCEP03730560","2024-08-18 03:30:00","10.587","3.34273","27.388","2.663","7.55","0.71","3.515","0.12","0.19","29.7761","4.69656","28.91","0","SATNPRO1962","26.662","0.37346","5"],
    [31187,"HCEP03730560","2024-08-18 03:45:00","10.5873","3.3445","27.322","2.673","7.55","0.747","3.208","0.18","0.11","29.7933","4.69901","29.02","0","SATNPRO1962","26.486","0.37098","5"],
    [31188,"HCEP03730560","2024-08-18 04:00:00","10.588","3.34444","27.161","2.692","7.55","2.513","3.651","6.05","0.59","29.7923","4.69884","29.22","0","SATNPRO1962","26.554","0.3719","5"],
    [31189,"HCEP03730560","2024-08-18 04:15:00","10.5885","3.34448","27.049","2.711","7.55","0.68","3.046","0.14","0.13","29.7923","4.69883","29.43","0","SATNPRO1962","26.632","0.37302","5"],
    [31190,"HCEP03730560","2024-08-18 04:30:00","10.5885","3.34444","26.908","2.736","7.55","0.64","2.99","0.17","0.18","29.7919","4.69877","29.71","0","SATNPRO1962","27.176","0.38064","5"],
    [31191,"HCEP03730560","2024-08-18 04:45:00","10.5864","3.34451","26.695","2.681","7.54","0.73","3.902","0.14","0.25","29.7944","4.69914","29.11","0","SATNPRO1962","26.414","0.36996","5"],
    [31192,"HCEP03730560","2024-08-18 05:00:00","10.5857","3.34485","26.525","2.703","7.55","0.602","2.839","0.12","0.15","29.7984","4.69971","29.35","0","SATNPRO1962","27.108","0.37966","5"],
    [31193,"HCEP03730560","2024-08-18 05:15:00","10.5845","3.34499","26.332","2.757","7.55","0.817","3.467","0.25","0.27","29.8008","4.70006","29.94","0","SATNPRO1962","26.936","0.37726","5"],
    [31194,"HCEP03730560","2024-08-18 05:30:00","10.5838","3.34503","26.126","2.742","7.55","0.788","3.498","0.13","0.14","29.8019","4.70021","29.77","0","SATNPRO1962","26.496","0.37114","5"],
    [31195,"HCEP03730560","2024-08-18 05:45:00","10.5829","3.34511","25.909","2.673","7.54","0.909","4.279","0.23","0.32","29.8035","4.70045","29.02","0","SATNPRO1962","26.012","0.36434","5"],
    [31196,"HCEP03730560","2024-08-18 06:00:00","10.5832","3.34513","25.716","2.611","7.54","0.851","3.922","0.17","0.15","29.8035","4.70044","28.34","0","SATNPRO1962","26.112","0.36572","5"],
    [31197,"HCEP03730560","2024-08-18 06:15:00","10.5835","3.34504","25.537","2.598","7.54","0.799","3.867","0.11","0.16","29.8024","4.70027","28.21","0","SATNPRO1962","26.068","0.3651","5"],
    [31198,"HCEP03730560","2024-08-18 06:30:00","10.5836","3.34493","25.241","2.597","7.54","0.846","3.627","0.15","0.13","29.8014","4.7001","28.2","0","SATNPRO1962","26.178","0.36664","5"],
    [31199,"HCEP03730560","2024-08-18 06:45:00","10.5864","3.34461","25.042","2.685","7.55","0.669","2.759","0.08","0.08","29.7961","4.69929","29.15","0","SATNPRO1962","26.92","0.37706","5"],
    [31200,"HCEP03730560","2024-08-18 07:00:00","10.5891","3.3442","24.819","2.772","7.55","0.685","2.89","0.09","0.09","29.7899","4.69835","30.09","0","SATNPRO1962","26.782","0.37514","5"],
    [31201,"HCEP03730560","2024-08-18 07:15:00","10.6043","3.34422","24.613","2.875","7.57","0.748","1.95","0.09","0.09","29.7777","4.69637","31.22","0","SATNPRO1962","28.004","0.39226","5"],
    [31202,"HCEP03730560","2024-08-18 07:30:00","10.6095","3.34414","24.456","3.082","7.58","0.853","1.712","0.17","0.12","29.7728","4.69558","33.47","0","SATNPRO1962","28.14","0.39416","5"],
    [31203,"HCEP03730560","2024-08-18 07:45:00","10.5842","3.34502","24.198","2.985","7.56","0.994","3.955","0.12","0.26","29.8022","4.70015","32.41","0","SATNPRO1962","26.366","0.36928","5"],
    [31204,"HCEP03730560","2024-08-18 08:00:00","10.582","3.34532","24.062","2.66","7.55","0.979","3.76","0.17","0.12","29.8071","4.70087","28.87","0","SATNPRO1962","26.394000000000002","0.36968","5"],
    [31205,"HCEP03730560","2024-08-18 08:15:00","10.5811","3.34545","23.893","2.61","7.54","1.219","4.553","0.32","0.6","29.809","4.70115","28.34","0","SATNPRO1962","26.022","0.3645","5"],
    [31206,"HCEP03730560","2024-08-18 08:30:00","10.5815","3.34554","23.715","2.535","7.54","1.02","4.157","0.08","0.12","29.8097","4.70123","27.53","0","SATNPRO1962","25.976","0.36386","5"],
    [31207,"HCEP03730560","2024-08-18 08:45:00","10.5808","3.34572","23.652","2.628","7.54","1","3.891","0.11","0.14","29.8122","4.70159","28.53","0","SATNPRO1962","26.308","0.36848","5"],
    [31208,"HCEP03730560","2024-08-18 09:00:00","10.5808","3.3458","23.635","2.576","7.54","1.055","4.288","0.13","0.17","29.8128","4.70168","27.97","0","SATNPRO1962","25.732","0.36042","5"],
    [31209,"HCEP03730560","2024-08-18 09:15:00","10.5807","3.3457","23.643","2.534","7.54","0.945","3.831","0.12","0.13","29.812","4.70157","27.51","0","SATNPRO1962","25.852","0.36212","5"],
    [31210,"HCEP03730560","2024-08-18 09:30:00","10.5809","3.34559","23.615","2.541","7.54","0.917","4.039","0.12","0.13","29.8108","4.70139","27.59","0","SATNPRO1962","25.983999999999998","0.364","5"],
    [31211,"HCEP03730560","2024-08-18 09:45:00","10.5807","3.34557","23.671","2.545","7.54","0.897","3.857","0.09","0.1","29.8107","4.70138","27.63","0","SATNPRO1962","25.892","0.36266","5"],
    [31212,"HCEP03730560","2024-08-18 10:00:00","10.5816","3.34553","23.698","2.613","7.54","0.833","3.821","0.07","0.12","29.8096","4.70121","28.37","0","SATNPRO1962","26.338","0.3689","5"],
    [31213,"HCEP03730560","2024-08-18 10:15:00","10.5825","3.34569","23.779","2.82","7.56","0.838","3.471","0.09","0.12","29.8104","4.70131","30.61","0","SATNPRO1962","27.14","0.38014","5"],
    [31214,"HCEP03730560","2024-08-18 10:30:00","10.589","3.34543","23.929","3.033","7.58","0.948","3.721","0.34","0.38","29.8025","4.70009","32.93","0","SATNPRO1962","28.094","0.39352","5"],
    [31215,"HCEP03730560","2024-08-18 10:45:00","10.5853","3.34606","24.031","3.135","7.59","0.885","3.452","0.11","0.3","29.8117","4.70147","34.04","0","SATNPRO1962","27.8","0.38938","5"],
    [31216,"HCEP03730560","2024-08-18 11:00:00","10.5895","3.34597","24.192","3.241","7.6","0.827","3.131","0.11","0.38","29.8073","4.70079","35.19","0","SATNPRO1962","28.628","0.40102","5"],
    [31217,"HCEP03730560","2024-08-18 11:15:00","10.5885","3.34613","24.401","3.366","7.6","0.806","2.778","0.14","0.16","29.8095","4.70113","36.55","0","SATNPRO1962","28.58","0.40036","5"],
    [31218,"HCEP03730560","2024-08-18 11:30:00","10.5799","3.34629","24.544","3.1","7.57","0.926","3.821","0.11","0.16","29.8181","4.7025","33.66","0","SATNPRO1962","26.5","0.3712","5"],
    [31219,"HCEP03730560","2024-08-18 11:45:00","10.5789","3.34629","24.691","2.731","7.56","0.976","3.91","0.14","0.09","29.8189","4.70264","29.65","0","SATNPRO1962","26.080000000000002","0.3653","5"],
    [31220,"HCEP03730560","2024-08-18 12:00:00","10.5793","3.34626","24.851","2.644","7.55","0.989","3.829","0.16","0.17","29.8182","4.70254","28.7","0","SATNPRO1962","26.188","0.3668","5"],
    [31221,"HCEP03730560","2024-08-18 12:15:00","10.5798","3.34618","25.098","2.656","7.55","0.976","3.841","0.18","0.21","29.8169","4.70236","28.83","0","SATNPRO1962","26.216","0.36724","5"],
    [31222,"HCEP03730560","2024-08-18 12:30:00","10.5805","3.34609","25.255","2.672","7.55","0.91","3.776","0.14","0.2","29.8154","4.70214","29.01","0","SATNPRO1962","26.184","0.36672","5"],
    [31223,"HCEP03730560","2024-08-18 12:45:00","10.583","3.34624","25.485","2.777","7.56","0.95","3.143","0.17","0.14","29.8147","4.70202","30.15","0","SATNPRO1962","26.882","0.37652","5"],
    [31224,"HCEP03730560","2024-08-18 13:00:00","10.5846","3.34621","25.701","2.951","7.57","0.812","3.014","0.14","0.16","29.813","4.70176","32.04","0","SATNPRO1962","28.246000000000002","0.39562","5"],
    [31225,"HCEP03730560","2024-08-18 13:15:00","10.5932","3.34609","25.93","3.184","7.6","0.696","1.645","0.09","0.1","29.8047","4.70046","34.57","0","SATNPRO1962","29.052","0.40692","5"],
    [31226,"HCEP03730560","2024-08-18 13:30:00","10.5917","3.346","26.149","3.398","7.6","0.74","1.956","0.16","0.1","29.805","4.70054","36.89","0","SATNPRO1962","28.86","0.40422","5"],
    [31227,"HCEP03730560","2024-08-18 13:45:00","10.5875","3.3436","26.38","3.277","7.59","0.772","2.484","0.12","0.17","29.7846","4.69771","35.57","0","SATNPRO1962","28.024","0.39252","5"],
    [31228,"HCEP03730560","2024-08-18 14:00:00","10.5903","3.34546","26.575","3.109","7.59","0.658","2.058","0.11","0.09","29.8007","4.69996","33.76","0","SATNPRO1962","28.312","0.39654","5"],
    [31229,"HCEP03730560","2024-08-18 14:15:00","10.5855","3.34504","26.781","2.954","7.56","0.892","3.345","0.36","0.19","29.8003","4.7","32.07","0","SATNPRO1962","26.608","0.37266","5"],
    [31230,"HCEP03730560","2024-08-18 14:30:00","10.5835","3.34522","26.97","2.587","7.54","0.981","4.45","0.33","0.21","29.8037","4.70052","28.09","0","SATNPRO1962","25.637999999999998","0.3591","5"],
    [31231,"HCEP03730560","2024-08-18 14:45:00","10.5886","3.34458","27.123","2.474","7.54","0.777","3.321","0.1","0.12","29.7932","4.69895","26.86","0","SATNPRO1962","26.226","0.36736","5"],
    [31232,"HCEP03730560","2024-08-18 15:00:00","10.59","3.34446","27.271","2.523","7.54","0.769","3.344","0.13","0.1","29.7907","4.69859","27.39","0","SATNPRO1962","26.504","0.37124","5"],
    [31233,"HCEP03730560","2024-08-18 15:15:00","10.5935","3.34458","27.398","2.551","7.54","0.859","3.624","0.14","0.23","29.789","4.69829","27.69","0","SATNPRO1962","26.622","0.37286","5"],
    [31234,"HCEP03730560","2024-08-18 15:30:00","10.5952","3.34447","27.514","2.61","7.54","0.864","3.714","0.11","0.12","29.7865","4.69793","28.34","0","SATNPRO1962","26.8","0.37536","5"],
    [31235,"HCEP03730560","2024-08-18 15:45:00","10.5908","3.34471","27.63","2.544","7.53","0.932","4.113","0.12","0.18","29.7924","4.69884","27.62","0","SATNPRO1962","25.982","0.36386","5"],
    [31236,"HCEP03730560","2024-08-18 16:00:00","10.5901","3.34487","27.691","2.438","7.53","0.968","4.409","0.17","0.33","29.7945","4.69916","26.47","0","SATNPRO1962","25.546","0.35782","5"],
    [31237,"HCEP03730560","2024-08-18 16:15:00","10.5851","3.34535","27.751","2.388","7.52","0.995","4.562","0.16","0.41","29.8033","4.70049","25.93","0","SATNPRO1962","25.246","0.35366","5"],
    [31238,"HCEP03730560","2024-08-18 16:30:00","10.5895","3.34511","27.796","2.389","7.52","0.886","4.165","0.11","0.16","29.7974","4.69958","25.93","0","SATNPRO1962","25.554","0.35794","5"],
    [31239,"HCEP03730560","2024-08-18 16:45:00","10.5975","3.34478","27.792","2.515","7.53","0.922","3.777","0.14","0.37","29.7876","4.69805","27.31","0","SATNPRO1962","26.29","0.36826","5"],
    [31240,"HCEP03730560","2024-08-18 17:00:00","10.5895","3.34229","27.757","2.545","7.53","0.818","4.021","0.11","0.18","29.7695","4.69561","27.63","0","SATNPRO1962","25.818","0.36162","5"],
    [31241,"HCEP03730560","2024-08-18 17:15:00","10.5892","3.34325","27.754","2.457","7.53","0.85","3.668","0.15","0.16","29.7793","4.69701","26.67","0","SATNPRO1962","25.832","0.36178","5"],
    [31242,"HCEP03730560","2024-08-18 17:30:00","10.59","3.3454","27.732","2.482","7.53","0.773","3.6","0.13","0.11","29.7998","4.69992","26.95","0","SATNPRO1962","26.014","0.36436","5"],
    [31243,"HCEP03730560","2024-08-18 17:45:00","10.5908","3.32622","27.678","2.49","7.53","0.863","3.592","0.31","0.14","29.61","4.67287","27","0","SATNPRO1962","26.178","0.36666","5"],
    [31244,"HCEP03730560","2024-08-18 18:00:00","10.5993","3.33956","27.618","2.537","7.53","0.727","3.446","0.12","0.12","29.7347","4.69048","27.54","0","SATNPRO1962","26.916","0.37698","5"],
    [31245,"HCEP03730560","2024-08-18 18:15:00","10.5997","3.3449","27.539","2.634","7.54","0.936","4.075","0.24","0.41","29.7871","4.69793","28.61","0","SATNPRO1962","26.522000000000002","0.37146","5"],
    [31246,"HCEP03730560","2024-08-18 18:30:00","10.592","3.34705","27.468","2.648","7.54","0.811","4.204","0.1","0.27","29.8145","4.70196","28.75","0","SATNPRO1962","26.4","0.36978","5"],
    [31247,"HCEP03730560","2024-08-18 18:45:00","10.5968","3.34623","27.375","2.669","7.54","0.876","4.024","0.32","0.37","29.8026","4.70018","28.99","0","SATNPRO1962","26.656","0.37338","5"],
    [31248,"HCEP03730560","2024-08-18 19:00:00","10.6068","3.3452","27.273","2.806","7.56","0.738","3.635","0.09","0.34","29.784300000000002","4.69742","30.47","0","SATNPRO1962","27.962","0.39162","5"],
    [31249,"HCEP03730560","2024-08-18 19:15:00","10.5979","3.34749","27.187","2.869","7.56","0.831","4.08","0.07","0.21","29.8143","4.70181","31.15","0","SATNPRO1962","26.902","0.37678","5"],
    [31250,"HCEP03730560","2024-08-18 19:30:00","10.5947","3.34798","27.108","2.801","7.55","0.819","4.388","0.07","0.28","29.8218","4.70293","30.42","0","SATNPRO1962","26.772","0.37496","5"],
    [31251,"HCEP03730560","2024-08-18 19:45:00","10.5932","3.34793","27.015","2.761","7.55","0.813","4.318","0.09","0.23","29.8225","4.70305","29.99","0","SATNPRO1962","26.684","0.37376","5"],
    [31252,"HCEP03730560","2024-08-18 20:00:00","10.5925","3.34789","26.919","2.757","7.55","0.88","4.497","0.41","0.29","29.8227","4.70308","29.94","0","SATNPRO1962","26.68","0.3737","5"],
    [31253,"HCEP03730560","2024-08-18 20:15:00","10.5919","3.34769","26.83","2.713","7.55","0.897","4.634","0.1","0.41","29.8212","4.70288","29.46","0","SATNPRO1962","26.522","0.37144","5"],
    [31254,"HCEP03730560","2024-08-18 20:30:00","10.5927","3.34694","26.719","2.649","7.54","0.784","4.422","0.12","0.37","29.8133","4.70173","28.77","0","SATNPRO1962","26.342000000000002","0.36892","5"],
    [31255,"HCEP03730560","2024-08-18 20:45:00","10.594","3.34655","26.634","2.599","7.54","0.858","4.186","0.21","0.41","29.8083","4.70099","28.23","0","SATNPRO1962","26.312","0.36852","5"],
    [31256,"HCEP03730560","2024-08-18 21:00:00","10.5952","3.34624","26.585","2.557","7.53","0.773","4.727","0.11","0.34","29.8043","4.70041","27.77","0","SATNPRO1962","26.163999999999998","0.36646","5"],
    [31257,"HCEP03730560","2024-08-18 21:15:00","10.5963","3.34589","26.519","2.515","7.53","0.806","4.346","0.13","0.61","29.7999","4.69976","27.31","0","SATNPRO1962","26.212","0.36714","5"],
    [31258,"HCEP03730560","2024-08-18 21:30:00","10.5974","3.34549","26.452","2.487","7.53","0.703","4.046","0.12","0.26","29.7952","4.69907","27","0","SATNPRO1962","26.072","0.3652","5"],
    [31259,"HCEP03730560","2024-08-18 21:45:00","10.5985","3.3453","26.374","2.464","7.53","0.732","3.879","0.1","0.27","29.7924","4.69865","26.76","0","SATNPRO1962","25.99","0.36402","5"],
    [31260,"HCEP03730560","2024-08-18 22:00:00","10.5991","3.34509","26.346","2.453","7.52","0.735","3.954","0.18","1.43","29.7899","4.69828","26.63","0","SATNPRO1962","26.024","0.3645","5"],
    [31261,"HCEP03730560","2024-08-18 22:15:00","10.5993","3.34511","26.34","2.444","7.52","0.705","3.454","0.11","0.27","29.7899","4.69827","26.54","0","SATNPRO1962","26.226","0.36736","5"],
    [31262,"HCEP03730560","2024-08-18 22:30:00","10.5993","3.33588","26.363","2.446","7.52","0.68","3.436","0.14","0.22","29.6989","4.68532","26.55","0","SATNPRO1962","26.27","0.36796","5"],
    [31263,"HCEP03730560","2024-08-18 22:45:00","10.6","3.34511","26.397","2.454","7.52","0.704","3.31","0.11","0.11","29.7893","4.69819","26.65","0","SATNPRO1962","26.23","0.36738","5"],
    [31264,"HCEP03730560","2024-08-18 23:00:00","10.6006","3.34508","26.441","2.464","7.52","0.59","3.554","0.09","0.16","29.7885","4.69806","26.76","0","SATNPRO1962","26.208","0.36706","5"],
    [31265,"HCEP03730560","2024-08-18 23:15:00","10.601","3.33924","26.486","2.491","7.53","0.66","3.32","0.12","0.16","29.7306","4.68981","27.04","0","SATNPRO1962","26.372","0.3694","5"],
    [31266,"HCEP03730560","2024-08-18 23:30:00","10.6009","3.34494","26.544","2.498","7.52","0.602","3.125","0.08","0.21","29.787","4.69784","27.13","0","SATNPRO1962","26.302","0.36842","5"],
    [31267,"HCEP03730560","2024-08-18 23:45:00","10.6005","3.34539","26.666","2.481","7.53","0.72","3.381","0.16","0.47","29.7915","4.69851","26.95","0","SATNPRO1962","26.52","0.37144","5"],
    [31268,"HCEP03730560","2024-08-19 00:00:00","10.5988","3.34619","26.722","2.525","7.53","0.924","4.804","0.32","1.17","29.8009","4.69987","27.42","0","SATNPRO1962","27.004","0.37828","5"],
    [31269,"HCEP03730560","2024-08-19 00:15:00","10.5992","3.34584","26.821","2.578","7.53","0.789","3.546","0.37","0.24","29.797","4.69932","28","0","SATNPRO1962","26.605999999999998","0.37268","5"],
    [31270,"HCEP03730560","2024-08-19 00:30:00","10.5995","3.34512","26.922","2.522","7.53","0.629","3.285","0.11","0.18","29.7897","4.69827","27.38","0","SATNPRO1962","26.29","0.36822","5"],
    [31271,"HCEP03730560","2024-08-19 00:45:00","10.5999","3.34509","27.015","2.439","7.52","0.675","3.193","0.32","0.24","29.789","4.69818","26.48","0","SATNPRO1962","26.258","0.3678","5"],
    [31272,"HCEP03730560","2024-08-19 01:00:00","10.5982","3.3467","27.104","2.505","7.53","0.834","4.326","0.17","0.27","29.8062","4.70066","27.2","0","SATNPRO1962","26.658","0.37338","5"],
    [31273,"HCEP03730560","2024-08-19 01:15:00","10.5957","3.34714","27.198","2.558","7.53","0.924","4.534","0.32","0.41","29.8126","4.70161","27.77","0","SATNPRO1962","26.334","0.36884","5"],
    [31274,"HCEP03730560","2024-08-19 01:30:00","10.5952","3.34707","27.295","2.548","7.53","0.797","4.496","0.14","1.11","29.8122","4.70157","27.67","0","SATNPRO1962","26.522","0.37148","5"],
    [31275,"HCEP03730560","2024-08-19 01:45:00","10.5955","3.34712","27.391","2.544","7.53","0.814","4.432","0.09","0.27","29.8124","4.7016","27.63","0","SATNPRO1962","26.832","0.37582","5"],
    [31276,"HCEP03730560","2024-08-19 02:00:00","10.5951","3.34714","27.478","2.552","7.53","0.839","4.837","0.16","0.6","29.8129","4.70168","27.71","0","SATNPRO1962","27.242","0.38158","5"],
    [31277,"HCEP03730560","2024-08-19 02:15:00","10.5947","3.34716","27.501","2.54","7.53","0.891","4.484","0.38","0.21","29.8134","4.70177","27.58","0","SATNPRO1962","26.838","0.37592","5"],
    [31278,"HCEP03730560","2024-08-19 02:30:00","10.5945","3.34719","27.519","2.533","7.53","0.801","4.655","0.13","0.5","29.8139","4.70183","27.5","0","SATNPRO1962","26.632","0.37304","5"],
    [31279,"HCEP03730560","2024-08-19 02:45:00","10.5952","3.34717","27.491","2.557","7.53","0.915","4.631","0.48","0.57","29.8132","4.70173","27.77","0","SATNPRO1962","26.706","0.37402","5"],
    [31280,"HCEP03730560","2024-08-19 03:00:00","10.5972","3.34653","27.563","2.618","7.54","0.703","3.467","0.28","0.24","29.8052","4.70056","28.43","0","SATNPRO1962","27.018","0.37844","5"],
    [31281,"HCEP03730560","2024-08-19 03:15:00","10.5976","3.34631","27.558","2.642","7.54","0.772","3.882","0.1","0.2","29.8027","4.70019","28.69","0","SATNPRO1962","26.762","0.37486","5"],
    [31282,"HCEP03730560","2024-08-19 03:30:00","10.599","3.3454","27.575","2.573","7.53","0.707","3.59","0.21","0.39","29.7926","4.69874","27.94","0","SATNPRO1962","26.61","0.3727","5"],
    [31283,"HCEP03730560","2024-08-19 03:45:00","10.6","3.34472","27.569","2.493","7.53","0.686","3.477","0.12","0.43","29.785","4.69763","27.08","0","SATNPRO1962","26.552","0.37194","5"],
    [31284,"HCEP03730560","2024-08-19 04:00:00","10.5987","3.34528","27.509","2.468","7.53","0.781","3.97","0.29","0.18","29.7917","4.6986","26.8","0","SATNPRO1962","26.244","0.36758","5"],
    [31285,"HCEP03730560","2024-08-19 04:15:00","10.5967","3.34551","27.475","2.467","7.53","0.884","4.158","0.32","0.19","29.7955","4.69918","26.79","0","SATNPRO1962","26.22","0.36726","5"],
    [31286,"HCEP03730560","2024-08-19 04:30:00","10.5958","3.3454","27.374","2.442","7.52","0.775","4.081","0.08","0.16","29.7953","4.69916","26.52","0","SATNPRO1962","25.93","0.3632","5"],
    [31287,"HCEP03730560","2024-08-19 04:45:00","10.595","3.34524","27.275","2.419","7.52","0.846","4.077","0.12","0.17","29.7943","4.69903","26.27","0","SATNPRO1962","25.986","0.36394","5"],
    [31288,"HCEP03730560","2024-08-19 05:00:00","10.5949","3.34516","27.151","2.392","7.52","0.888","4.29","0.26","0.21","29.7937","4.69893","25.97","0","SATNPRO1962","25.972","0.36378","5"],
    [31289,"HCEP03730560","2024-08-19 05:15:00","10.5952","3.34504","27.014","2.365","7.52","3.96","42.224","3.52","33.24","29.7922","4.69871","25.68","0","SATNPRO1962","26.006","0.36424","5"],
    [31290,"HCEP03730560","2024-08-19 05:30:00","10.5954","3.34493","26.857","2.353","7.52","0.761","4.133","0.1","0.16","29.7911","4.69854","25.54","0","SATNPRO1962","26.084","0.36536","5"],
    [31291,"HCEP03730560","2024-08-19 05:45:00","10.5955","3.34483","26.675","2.344","7.51","0.935","4.211","0.18","0.25","29.7901","4.69839","25.45","0","SATNPRO1962","25.952","0.36348","5"],
    [31292,"HCEP03730560","2024-08-19 06:00:00","10.5955","3.34481","26.487","2.33","7.51","0.948","4.682","0.36","0.61","29.79","4.69836","25.3","0","SATNPRO1962","26.126","0.36594","5"],
    [31293,"HCEP03730560","2024-08-19 06:15:00","10.5957","3.34472","26.284","2.317","7.51","0.909","4.32","0.16","0.32","29.789","4.69821","25.16","0","SATNPRO1962","25.966","0.36376","5"],
    [31294,"HCEP03730560","2024-08-19 06:30:00","10.5957","3.34471","26.077","2.305","7.51","0.873","4.499","0.12","0.28","29.789","4.69819","25.03","0","SATNPRO1962","25.82","0.36162","5"],
    [31295,"HCEP03730560","2024-08-19 06:45:00","10.5966","3.34459","25.868","2.295","7.51","0.886","4.377","0.09","0.17","29.7871","4.6979","24.92","0","SATNPRO1962","25.938","0.36334","5"],
    [31296,"HCEP03730560","2024-08-19 07:00:00","10.5972","3.34447","25.642","2.301","7.51","0.846","4.047","0.11","0.15","29.7857","4.69767","24.98","0","SATNPRO1962","25.92","0.36306","5"],
    [31297,"HCEP03730560","2024-08-19 07:15:00","10.5985","3.34434","25.425","2.308","7.51","0.836","3.806","0.09","0.11","29.7834","4.69731","25.06","0","SATNPRO1962","25.894000000000002","0.36268","5"],
    [31298,"HCEP03730560","2024-08-19 07:30:00","10.5987","3.34432","25.199","2.311","7.51","0.805","3.825","0.11","0.11","29.7831","4.69725","25.09","0","SATNPRO1962","25.774","0.36102","5"],
    [31299,"HCEP03730560","2024-08-19 07:45:00","10.5982","3.34443","24.967","2.329","7.51","0.753","3.511","0.11","0.16","29.7846","4.69746","25.29","0","SATNPRO1962","25.91","0.36292","5"],
    [31300,"HCEP03730560","2024-08-19 08:00:00","10.5986","3.343","24.71","2.351","7.51","0.703","3.626","0.08","0.16","29.7703","4.69541","25.52","0","SATNPRO1962","25.838","0.3619","5"],
    [31301,"HCEP03730560","2024-08-19 08:15:00","10.6003","3.344","24.521","2.386","7.52","0.751","3.111","0.16","0.23","29.7789","4.69659","25.91","0","SATNPRO1962","26.302","0.36842","5"],
    [31302,"HCEP03730560","2024-08-19 08:30:00","10.5996","3.34397","24.312","2.423","7.52","0.622","3.225","0.06","0.22","29.7792","4.69663","26.31","0","SATNPRO1962","26.002","0.36424","5"],
    [31303,"HCEP03730560","2024-08-19 08:45:00","10.6003","3.3438","24.077","2.376","7.51","0.712","3.126","0.11","0.14","29.777","4.6963","25.8","0","SATNPRO1962","25.988","0.36402","5"],
    [31304,"HCEP03730560","2024-08-19 09:00:00","10.6019","3.34353","23.851","2.345","7.51","0.738","3.268","0.13","0.11","29.7732","4.69571","25.46","0","SATNPRO1962","25.82","0.36166","5"],
    [31305,"HCEP03730560","2024-08-19 09:15:00","10.6034","3.34381","23.704","2.335","7.51","0.8","3.66","0.1","0.2","29.7748","4.69592","25.35","0","SATNPRO1962","26.01","0.3643","5"],
    [31306,"HCEP03730560","2024-08-19 09:30:00","10.6055","3.34363","23.655","2.383","7.52","0.653","3.014","0.09","0.12","29.7713","4.69538","25.88","0","SATNPRO1962","26.476","0.37086","5"],
    [31307,"HCEP03730560","2024-08-19 09:45:00","10.6063","3.34353","23.61","2.424","7.52","0.625","2.63","0.06","0.08","29.7697","4.69513","26.32","0","SATNPRO1962","26.24","0.36756","5"],
    [31308,"HCEP03730560","2024-08-19 10:00:00","10.6039","3.34371","23.62","2.391","7.51","0.766","3.736","0.08","0.16","29.7735","4.69572","25.96","0","SATNPRO1962","25.754","0.3607","5"],
    [31309,"HCEP03730560","2024-08-19 10:15:00","10.6027","3.34379","23.664","2.329","7.51","0.764","3.528","0.08","0.11","29.7752","4.69598","25.29","0","SATNPRO1962","25.798000000000002","0.36134","5"],
    [31310,"HCEP03730560","2024-08-19 10:30:00","10.6027","3.34383","23.664","2.328","7.51","0.66","3.206","0.08","0.1","29.7756","4.69603","25.28","0","SATNPRO1962","25.774","0.36102","5"],
    [31311,"HCEP03730560","2024-08-19 10:45:00","10.6021","3.34389","23.717","2.298","7.51","0.743","3.261","0.09","0.11","29.7766","4.69619","24.95","0","SATNPRO1962","25.726","0.36034","5"],
    [31312,"HCEP03730560","2024-08-19 11:00:00","10.6078","3.34346","23.802","2.285","7.51","0.747","3.263","0.08","0.15","29.7677","4.69484","24.82","0","SATNPRO1962","25.9","0.36276","5"],
    [31313,"HCEP03730560","2024-08-19 11:15:00","10.6131","3.34334","23.896","2.284","7.51","0.84","3.598","0.09","0.12","29.7622","4.69397","24.8","0","SATNPRO1962","25.892","0.36268","5"],
    [31314,"HCEP03730560","2024-08-19 11:30:00","10.6286","3.3428","24.024","2.226","7.5","0.735","2.951","0.1","0.18","29.7442","4.69118","24.18","0","SATNPRO1962","25.498","0.35716","5"],
    [31315,"HCEP03730560","2024-08-19 11:45:00","10.6408","3.34275","24.185","2.151","7.49","0.828","2.657","0.13","0.2","29.7337","4.6895","23.37","0","SATNPRO1962","25.028","0.35056","5"],
    [31316,"HCEP03730560","2024-08-19 12:00:00","10.6429","3.34293","24.368","2.097","7.49","0.789","2.792","0.12","0.14","29.7338","4.68948","22.78","0","SATNPRO1962","24.896","0.34874","5"],
    [31317,"HCEP03730560","2024-08-19 12:15:00","10.6265","3.34334","24.573","2.177","7.5","0.827","2.784","0.23","0.19","29.751","4.69221","23.64","0","SATNPRO1962","25.76","0.3608","5"],
    [31318,"HCEP03730560","2024-08-19 12:30:00","10.6293","3.34339","24.782","2.254","7.5","0.814","2.863","0.19","0.26","29.7491","4.69191","24.48","0","SATNPRO1962","25.44","0.35632","5"],
    [31319,"HCEP03730560","2024-08-19 12:45:00","10.6436","3.34392","24.991","2.237","7.5","1.044","2.883","0.52","0.12","29.7427","4.69078","24.31","0","SATNPRO1962","25.254","0.35374","5"],
    [31320,"HCEP03730560","2024-08-19 13:00:00","10.6431","3.34394","25.186","2.199","7.5","0.817","2.968","0.15","0.1","29.7432","4.69086","23.89","0","SATNPRO1962","25.25","0.35372","5"],
    [31321,"HCEP03730560","2024-08-19 13:15:00","10.6341","3.3437","25.404","2.19","7.5","0.798","2.926","0.13","0.27","29.7481","4.69172","23.79","0","SATNPRO1962","25.174","0.35264","5"],
    [31322,"HCEP03730560","2024-08-19 13:30:00","10.6301","3.34319","25.623","2.19","7.5","0.896","2.879","0.31","0.1","29.7462","4.69153","23.79","0","SATNPRO1962","25.242","0.35358","5"],
    [31323,"HCEP03730560","2024-08-19 13:45:00","10.6144","3.34347","25.846","2.221","7.5","0.714","2.932","0.11","0.11","29.7616","4.69398","24.12","0","SATNPRO1962","25.724","0.36028","5"],
    [31324,"HCEP03730560","2024-08-19 14:00:00","10.6006","3.34402","26.096","2.187","7.49","0.908","4.347","0.13","0.17","29.7782","4.69657","23.75","0","SATNPRO1962","24.96","0.3496","5"],
    [31325,"HCEP03730560","2024-08-19 14:15:00","10.5978","3.34439","26.337","2.075","7.49","0.905","4.424","0.15","0.17","29.7841","4.69747","22.53","0","SATNPRO1962","24.666","0.34548","5"],
    [31326,"HCEP03730560","2024-08-19 14:30:00","10.5982","3.34451","26.549","2.035","7.49","0.87","4.578","0.11","0.35","29.7848","4.69758","22.1","0","SATNPRO1962","24.882","0.34848","5"],
    [31327,"HCEP03730560","2024-08-19 14:45:00","10.5978","3.34467","26.773","2.056","7.49","0.9","4.375","0.12","0.17","29.7866","4.69785","22.33","0","SATNPRO1962","24.914","0.34898","5"],
    [31328,"HCEP03730560","2024-08-19 15:00:00","10.5993","3.34455","26.974","2.078","7.49","0.718","3.769","0.09","0.13","29.7842","4.69749","22.56","0","SATNPRO1962","25.402","0.35582","5"],
    [31329,"HCEP03730560","2024-08-19 15:15:00","10.6012","3.33703","27.154","2.147","7.5","0.638","3.119","0.14","0.1","29.7084","4.68668","23.31","0","SATNPRO1962","23.542","0.32974","5"],
    [31330,"HCEP03730560","2024-08-19 15:30:00","10.5975","3.29625","27.305","2.172","7.49","0.721","3.84","0.09","0.1","29.3094","4.62989","23.51","0","SATNPRO1962","25.692","0.35986","5"],
    [31331,"HCEP03730560","2024-08-19 15:45:00","10.599","3.32405","27.433","2.133","7.49","0.989","4.267","0.15","0.22","29.582","4.66874","23.13","0","SATNPRO1962","25.442","0.35634","5"],
    [31332,"HCEP03730560","2024-08-19 16:00:00","10.5997","3.34577","27.598","2.126","7.49","0.861","4.077","0.12","0.16","29.7956","4.69915","23.08","0","SATNPRO1962","25.588","0.35842","5"],
    [31333,"HCEP03730560","2024-08-19 16:15:00","10.6016","3.34513","27.707","2.175","7.5","0.88","3.542","0.12","0.21","29.7877","4.69801","23.62","0","SATNPRO1962","25.874","0.36244","5"],
    [31334,"HCEP03730560","2024-08-19 16:30:00","10.6045","3.34483","27.753","2.21","7.5","0.795","3.302","0.12","0.17","29.7824","4.6972","24","0","SATNPRO1962","25.73","0.36038","5"],
    [31335,"HCEP03730560","2024-08-19 16:45:00","10.614","3.34399","27.807","2.199","7.5","0.715","2.616","0.15","0.11","29.7663","4.69477","23.88","0","SATNPRO1962","25.924","0.36308","5"],
    [31336,"HCEP03730560","2024-08-19 17:00:00","10.6196","3.34333","27.818","2.164","7.49","0.571","2.406","0.1","0.09","29.7552","4.6931","23.51","0","SATNPRO1962","25.61","0.35872","5"],
    [31337,"HCEP03730560","2024-08-19 17:15:00","10.6222","3.34318","27.819","2.121","7.49","0.583","2.23","0.12","0.14","29.7517","4.69255","23.03","0","SATNPRO1962","25.726","0.36032","5"],
    [31338,"HCEP03730560","2024-08-19 17:30:00","10.6162","3.34411","27.812","2.146","7.49","0.726","3.131","0.09","0.18","29.7657","4.69465","23.31","0","SATNPRO1962","25.642","0.35916","5"],
    [31339,"HCEP03730560","2024-08-19 17:45:00","10.6169","3.34393","27.793","2.155","7.49","0.769","2.897","0.17","0.21","29.7633","4.69429","23.41","0","SATNPRO1962","25.52","0.35744","5"],
    [31340,"HCEP03730560","2024-08-19 18:00:00","10.6302","3.34282","27.773","2.091","7.49","0.764","3.168","0.14","0.31","29.7416","4.69099","22.71","0","SATNPRO1962","25.25","0.3537","5"],
    [31341,"HCEP03730560","2024-08-19 18:15:00","10.6214","3.34242","27.739","2.062","7.49","0.733","2.458","0.18","0.28","29.7448","4.69158","22.4","0","SATNPRO1962","25.726","0.36034","5"],
    [31342,"HCEP03730560","2024-08-19 18:30:00","10.6068","3.34461","27.686","2.133","7.49","0.904","3.816","0.16","0.65","29.7784","4.69659","23.16","0","SATNPRO1962","25.712","0.36012","5"],
    [31343,"HCEP03730560","2024-08-19 18:45:00","10.6178","3.34202","27.613","2.1","7.49","0.671","2.381","0.16","0.15","29.7439","4.6915","22.81","0","SATNPRO1962","25.432","0.3562","5"],
    [31344,"HCEP03730560","2024-08-19 19:00:00","10.6099","3.1768","27.534","2.1","7.49","0.687","2.892","0.14","0.22","28.1267","4.46056","22.57","0","SATNPRO1962","25.628","0.35898","5"],
    [31345,"HCEP03730560","2024-08-19 19:15:00","10.6095","3.27619","27.445","2.118","7.49","0.94","2.955","0.33","0.22","29.1023","4.60016","22.9","0","SATNPRO1962","25.656","0.35938","5"],
    [31346,"HCEP03730560","2024-08-19 19:30:00","10.6105","3.34321","27.333","2.107","7.49","0.898","3.027","0.21","0.13","29.7617","4.69414","22.88","0","SATNPRO1962","25.524","0.35754","5"],
    [31347,"HCEP03730560","2024-08-19 19:45:00","10.6146","3.3428","27.229","2.089","7.49","0.747","2.446","0.15","0.15","29.7543","4.69301","22.69","0","SATNPRO1962","25.46","0.35662","5"],
    [31348,"HCEP03730560","2024-08-19 20:00:00","10.6152","3.34287","27.122","2.082","7.49","0.693","2.643","0.23","0.22","29.7546","4.69304","22.61","0","SATNPRO1962","25.474","0.3568","5"],
    [31349,"HCEP03730560","2024-08-19 20:15:00","10.6291","3.34239","27","2.049","7.48","0.781","2.291","0.23","0.14","29.7385","4.69053","22.26","0","SATNPRO1962","25.272000000000002","0.35394","5"],
    [31350,"HCEP03730560","2024-08-19 20:30:00","10.6215","3.34312","26.885","1.999","7.48","0.791","3.072","0.21","0.24","29.752","4.69255","21.71","0","SATNPRO1962","25.136","0.35204","5"],
    [31351,"HCEP03730560","2024-08-19 20:45:00","10.6106","3.34362","26.763","2.009","7.48","0.778","3.792","0.18","0.55","29.7658","4.69469","21.81","0","SATNPRO1962","25.028","0.35054","5"],
    [31352,"HCEP03730560","2024-08-19 21:00:00","10.6152","3.34356","26.635","2.012","7.48","0.861","3.84","0.19","0.48","29.7615","4.694","21.85","0","SATNPRO1962","25.054","0.35094","5"],
    [31353,"HCEP03730560","2024-08-19 21:15:00","10.6124","3.34362","26.505","2.01","7.48","1.162","4.389","0.48","0.3","29.7644","4.69445","21.83","0","SATNPRO1962","24.826","0.34772","5"],
    [31354,"HCEP03730560","2024-08-19 21:30:00","10.6111","3.3436","26.363","1.982","7.48","0.839","3.863","0.12","0.12","29.7654","4.69461","21.52","0","SATNPRO1962","24.816","0.34762","5"],
    [31355,"HCEP03730560","2024-08-19 21:45:00","10.611","3.34358","26.234","1.961","7.48","0.891","3.924","0.15","0.21","29.7654","4.69459","21.29","0","SATNPRO1962","24.872","0.34838","5"],
    [31356,"HCEP03730560","2024-08-19 22:00:00","10.6122","3.34356","26.12","1.962","7.48","0.867","4.002","0.16","0.32","29.7643","4.69441","21.31","0","SATNPRO1962","24.951999999999998","0.34952","5"],
    [31357,"HCEP03730560","2024-08-19 22:15:00","10.6228","3.34264","26.043","1.987","7.48","0.651","2.557","0.11","0.17","29.7465","4.69171","21.58","0","SATNPRO1962","25.509999999999998","0.35734","5"],
    [31358,"HCEP03730560","2024-08-19 22:30:00","10.6098","3.34341","25.998","2.007","7.48","0.752","3.883","0.12","0.16","29.7648","4.69451","21.79","0","SATNPRO1962","24.842","0.34796","5"],
    [31359,"HCEP03730560","2024-08-19 22:45:00","10.6089","3.34346","25.977","1.994","7.48","0.875","4.093","0.25","0.27","29.766","4.6947","21.66","0","SATNPRO1962","25.009999999999998","0.3503","5"],
    [31360,"HCEP03730560","2024-08-19 23:00:00","10.6093","3.34362","25.997","2.03","7.48","0.721","3.573","0.16","0.19","29.7672","4.69487","22.05","0","SATNPRO1962","25.26","0.35384","5"],
    [31361,"HCEP03730560","2024-08-19 23:15:00","10.6077","3.34367","26.03","2.042","7.49","0.823","3.858","0.19","0.28","29.7689","4.69514","22.18","0","SATNPRO1962","25.236","0.35348","5"],
    [31362,"HCEP03730560","2024-08-19 23:30:00","10.6074","3.34387","26.096","2.054","7.49","0.928","3.734","0.5","0.3","29.7712","4.69548","22.31","0","SATNPRO1962","25.212","0.3531","5"],
    [31363,"HCEP03730560","2024-08-19 23:45:00","10.6068","3.34402","26.162","2.065","7.49","0.841","3.878","0.21","0.38","29.7731","4.69576","22.42","0","SATNPRO1962","25.18","0.35266","5"],
    [31364,"HCEP03730560","2024-08-20 00:00:00","10.607","3.34412","26.251","2.084","7.49","0.787","3.767","0.16","0.15","29.7739","4.69588","22.64","0","SATNPRO1962","25.28","0.35406","5"],
    [31365,"HCEP03730560","2024-08-20 00:15:00","10.6069","3.34419","26.328","2.09","7.49","0.855","3.916","0.13","0.33","29.7747","4.69599","22.7","0","SATNPRO1962","25.252","0.3537","5"],
    [31366,"HCEP03730560","2024-08-20 00:30:00","10.6072","3.34424","26.408","2.097","7.49","0.846","4.033","0.16","0.29","29.7748","4.69601","22.77","0","SATNPRO1962","25.2","0.35298","5"],
    [31367,"HCEP03730560","2024-08-20 00:45:00","10.607","3.34427","26.465","2.097","7.49","0.996","4.282","0.21","0.26","29.7753","4.69609","22.78","0","SATNPRO1962","25.284","0.35416","5"],
    [31368,"HCEP03730560","2024-08-20 01:00:00","10.6076","3.34435","26.639","2.098","7.49","1.01","4.296","0.25","0.28","29.7756","4.69612","22.79","0","SATNPRO1962","25.258","0.35378","5"],
    [31369,"HCEP03730560","2024-08-20 01:15:00","10.608","3.34447","26.719","2.124","7.49","0.933","4.304","0.19","0.28","29.7764","4.69624","23.07","0","SATNPRO1962","25.124","0.35188","5"],
    [31370,"HCEP03730560","2024-08-20 01:30:00","10.6176","3.34599","26.812","2.224","7.51","0.919","3.387","0.2","0.17","29.7835","4.6971","24.16","0","SATNPRO1962","26.102","0.36562","5"],
    [31371,"HCEP03730560","2024-08-20 01:45:00","10.6226","3.34704","26.915","2.411","7.52","1.215","3.969","0.27","0.88","29.7898","4.69792","26.2","0","SATNPRO1962","26.334","0.36886","5"],
    [31372,"HCEP03730560","2024-08-20 02:00:00","10.6243","3.3476","26.965","2.519","7.53","1.306","3.613","0.45","0.22","29.7939","4.69848","27.37","0","SATNPRO1962","26.306","0.36848","5"],
    [31373,"HCEP03730560","2024-08-20 02:15:00","10.6225","3.34777","27.06","2.551","7.53","1.149","3.939","0.18","0.43","29.797","4.69895","27.72","0","SATNPRO1962","26.09","0.3654","5"],
    [31374,"HCEP03730560","2024-08-20 02:30:00","10.6204","3.34786","27.15","2.529","7.53","1.125","3.941","0.16","0.36","29.7995","4.69935","27.48","0","SATNPRO1962","26.108","0.36572","5"],
    [31375,"HCEP03730560","2024-08-20 02:45:00","10.6199","3.34833","27.255","2.525","7.53","1.031","3.667","0.18","0.3","29.8045","4.70008","27.43","0","SATNPRO1962","26.096","0.36556","5"],
    [31376,"HCEP03730560","2024-08-20 03:00:00","10.6193","3.34834","27.331","2.524","7.53","1.058","3.915","0.21","0.34","29.8052","4.70019","27.43","0","SATNPRO1962","26.05","0.36488","5"],
    [31377,"HCEP03730560","2024-08-20 03:15:00","10.6171","3.34782","27.435","2.485","7.53","0.973","3.691","0.18","0.2","29.8017","4.69973","26.99","0","SATNPRO1962","25.8","0.36138","5"],
    [31378,"HCEP03730560","2024-08-20 03:30:00","10.6154","3.34762","27.503","2.416","7.52","1.143","4.181","0.69","0.34","29.8011","4.69969","26.25","0","SATNPRO1962","25.648","0.35924","5"],
    [31379,"HCEP03730560","2024-08-20 03:45:00","10.6129","3.34749","27.561","2.351","7.52","1.107","4.084","0.38","0.35","29.8019","4.69983","25.54","0","SATNPRO1962","25.506","0.35728","5"],
    [31380,"HCEP03730560","2024-08-20 04:00:00","10.6125","3.34745","27.602","2.302","7.51","0.971","4.101","0.16","0.3","29.8017","4.69981","25.01","0","SATNPRO1962","25.434","0.35628","5"],
    [31381,"HCEP03730560","2024-08-20 04:15:00","10.6093","3.34694","27.619","2.24","7.51","1.06","4.393","0.28","1.08","29.7993","4.69953","24.33","0","SATNPRO1962","25.222","0.3533","5"],
    [31382,"HCEP03730560","2024-08-20 04:30:00","10.6075","3.34658","27.607","2.156","7.5","0.922","4.053","0.15","0.26","29.7972","4.69925","23.41","0","SATNPRO1962","24.942","0.34936","5"],
    [31383,"HCEP03730560","2024-08-20 04:45:00","10.6067","3.34632","27.585","2.095","7.5","0.904","3.947","0.17","0.2","29.7954","4.69901","22.75","0","SATNPRO1962","24.812","0.34756","5"],
    [31384,"HCEP03730560","2024-08-20 05:00:00","10.6063","3.34639","27.538","2.06","7.49","0.924","4.21","0.17","0.3","29.7964","4.69916","22.37","0","SATNPRO1962","24.872","0.34838","5"],
    [31385,"HCEP03730560","2024-08-20 05:15:00","10.6057","3.34636","27.477","2.036","7.49","1","4.312","0.2","0.41","29.7966","4.69919","22.11","0","SATNPRO1962","24.594","0.34446","5"],
    [31386,"HCEP03730560","2024-08-20 05:30:00","10.6068","3.34675","27.385","2.033","7.49","1.339","4.262","1.14","0.43","29.7996","4.69959","22.08","0","SATNPRO1962","24.75","0.34668","5"],
    [31387,"HCEP03730560","2024-08-20 05:45:00","10.6155","3.34859","27.301","2.17","7.51","1.06","4.005","0.14","0.26","29.8106","4.70102","23.58","0","SATNPRO1962","25.408","0.3559","5"],
    [31388,"HCEP03730560","2024-08-20 06:00:00","10.6223","3.3464","27.168","2.369","7.52","1.146","3.73","0.14","0.31","29.7836","4.69705","25.73","0","SATNPRO1962","25.972","0.36376","5"],
    [31389,"HCEP03730560","2024-08-20 06:15:00","10.6262","3.3473","27.008","2.529","7.53","1.214","3.495","0.57","0.23","29.7893","4.69781","27.47","0","SATNPRO1962","25.982","0.36394","5"],
    [31390,"HCEP03730560","2024-08-20 06:30:00","10.6233","3.35004","26.841","2.572","7.53","1.047","3.256","0.14","0.14","29.8188","4.70203","27.94","0","SATNPRO1962","26.09","0.36542","5"],
    [31391,"HCEP03730560","2024-08-20 06:45:00","10.6312","3.35123","26.649","2.635","7.54","1.151","3.558","0.14","0.26","29.8242","4.70266","28.64","0","SATNPRO1962","26.498","0.37116","5"],
    [31392,"HCEP03730560","2024-08-20 07:00:00","10.633","3.3514","26.45","2.749","7.55","1.13","3.626","0.12","0.29","29.8244","4.70266","29.88","0","SATNPRO1962","26.45","0.3705","5"],
    [31393,"HCEP03730560","2024-08-20 07:15:00","10.6293","3.35083","26.251","2.754","7.55","1.148","3.826","0.11","0.16","29.8219","4.70235","29.93","0","SATNPRO1962","26.332","0.36884","5"],
    [31394,"HCEP03730560","2024-08-20 07:30:00","10.6255","3.35011","26.088","2.678","7.54","1.172","4.015","0.16","0.29","29.818","4.70184","29.11","0","SATNPRO1962","26.134","0.36604","5"],
    [31395,"HCEP03730560","2024-08-20 07:45:00","10.6262","3.35019","25.862","2.641","7.54","1.251","3.944","0.22","0.24","29.8183","4.70187","28.7","0","SATNPRO1962","26.266000000000002","0.3679","5"],
    [31396,"HCEP03730560","2024-08-20 08:00:00","10.6248","3.34989","25.668","2.634","7.54","1.307","4.204","0.15","0.18","29.8165","4.70163","28.63","0","SATNPRO1962","26.156","0.36638","5"],
    [31397,"HCEP03730560","2024-08-20 08:15:00","10.6249","3.34972","25.458","2.616","7.54","1.209","3.817","0.15","0.27","29.8148","4.70136","28.42","0","SATNPRO1962","26.172","0.36658","5"],
    [31398,"HCEP03730560","2024-08-20 08:30:00","10.6259","3.34975","25.236","2.636","7.54","1.173","3.918","0.14","0.22","29.8144","4.70128","28.64","0","SATNPRO1962","26.352","0.3691","5"],
    [31399,"HCEP03730560","2024-08-20 08:45:00","10.6275","3.34987","24.995","2.651","7.54","1.176","3.663","0.17","0.18","29.8145","4.70125","28.81","0","SATNPRO1962","26.422","0.37008","5"],
    [31400,"HCEP03730560","2024-08-20 09:00:00","10.6317","3.35011","24.754","2.682","7.55","1.124","3.487","0.3","0.2","29.8135","4.70103","29.14","0","SATNPRO1962","26.656","0.37336","5"],
    [31401,"HCEP03730560","2024-08-20 09:15:00","10.6357","3.35033","24.43","2.767","7.55","1.079","3.593","0.08","0.18","29.8124","4.70079","30.08","0","SATNPRO1962","26.674","0.37364","5"],
    [31402,"HCEP03730560","2024-08-20 09:30:00","10.6392","3.35016","24.268","2.796","7.56","1.09","3.36","0.15","0.15","29.8081","4.70011","30.39","0","SATNPRO1962","26.812","0.37554","5"],
    [31403,"HCEP03730560","2024-08-20 09:45:00","10.6382","3.34991","24.143","2.812","7.56","1.223","3.353","0.19","0.2","29.8065","4.69989","30.56","0","SATNPRO1962","26.834","0.37588","5"],
    [31404,"HCEP03730560","2024-08-20 10:00:00","10.6348","3.34926","24.004","2.785","7.55","0.979","3.228","0.14","0.28","29.8028","4.69942","30.26","0","SATNPRO1962","26.682","0.37376","5"],
    [31405,"HCEP03730560","2024-08-20 10:15:00","10.6302","3.34865","23.912","2.721","7.55","1.086","3.519","0.15","0.28","29.8006","4.69917","29.56","0","SATNPRO1962","26.536","0.37168","5"],
    [31406,"HCEP03730560","2024-08-20 10:30:00","10.627","3.34819","23.72","2.619","7.54","1.098","3.667","0.1","0.18","29.7988","4.69896","28.45","0","SATNPRO1962","26.27","0.36794","5"],
    [31407,"HCEP03730560","2024-08-20 10:45:00","10.624","3.34774","23.742","2.545","7.54","1.125","3.589","0.2","0.47","29.7967","4.69871","27.65","0","SATNPRO1962","26.201999999999998","0.367","5"],
    [31408,"HCEP03730560","2024-08-20 11:00:00","10.6228","3.3474","23.734","2.484","7.53","0.993","3.694","0.09","0.25","29.7944","4.6984","26.99","0","SATNPRO1962","26.118","0.36584","5"],
    [31409,"HCEP03730560","2024-08-20 11:15:00","10.6228","3.34741","23.799","2.446","7.53","1.029","3.736","0.17","0.29","29.7945","4.69841","26.58","0","SATNPRO1962","26.038","0.36474","5"],
    [31410,"HCEP03730560","2024-08-20 11:30:00","10.6222","3.34716","23.846","2.423","7.52","0.992","3.887","0.1","0.13","29.7925","4.69813","26.32","0","SATNPRO1962","25.998","0.36412","5"],
    [31411,"HCEP03730560","2024-08-20 11:45:00","10.6231","3.34735","23.919","2.412","7.52","1.058","3.867","0.14","0.17","29.7935","4.69828","26.2","0","SATNPRO1962","25.936","0.36328","5"],
    [31412,"HCEP03730560","2024-08-20 12:00:00","10.6227","3.34717","24.028","2.409","7.52","0.962","3.761","0.1","0.12","29.7921","4.69809","26.17","0","SATNPRO1962","25.992","0.36412","5"],
    [31413,"HCEP03730560","2024-08-20 12:15:00","10.6244","3.34756","24.179","2.412","7.52","1","3.642","0.13","0.17","29.7945","4.69842","26.21","0","SATNPRO1962","26.044","0.36476","5"],
    [31414,"HCEP03730560","2024-08-20 12:30:00","10.6233","3.34732","24.361","2.414","7.52","0.912","3.599","0.11","0.16","29.7929","4.69821","26.23","0","SATNPRO1962","25.972","0.3638","5"],
    [31415,"HCEP03730560","2024-08-20 12:45:00","10.622","3.34691","24.529","2.384","7.52","0.882","3.731","0.1","0.2","29.7899","4.69781","25.9","0","SATNPRO1962","25.85","0.36206","5"],
    [31416,"HCEP03730560","2024-08-20 13:00:00","10.6234","3.34712","24.723","2.362","7.52","0.869","3.773","0.13","0.2","29.7908","4.69793","25.66","0","SATNPRO1962","25.855999999999998","0.36218","5"],
    [31417,"HCEP03730560","2024-08-20 13:15:00","10.6245","3.34726","24.934","2.363","7.52","0.919","3.715","0.15","0.17","29.7911","4.69797","25.68","0","SATNPRO1962","25.8","0.36136","5"],
    [31418,"HCEP03730560","2024-08-20 13:30:00","10.6245","3.34694","25.134","2.35","7.51","0.894","3.869","0.13","0.32","29.7879","4.69752","25.54","0","SATNPRO1962","25.672","0.35956","5"],
    [31419,"HCEP03730560","2024-08-20 13:45:00","10.6241","3.34703","25.35","2.333","7.51","0.849","3.845","0.12","0.25","29.7891","4.69771","25.34","0","SATNPRO1962","25.918","0.36302","5"],
    [31420,"HCEP03730560","2024-08-20 14:00:00","10.6293","3.34789","25.549","2.371","7.52","0.84","3.784","0.11","0.12","29.7932","4.69822","25.77","0","SATNPRO1962","25.992","0.36406","5"],
    [31421,"HCEP03730560","2024-08-20 14:15:00","10.6401","3.34941","25.786","2.478","7.53","1.008","3.882","0.11","0.28","29.7993","4.69893","26.93","0","SATNPRO1962","26.268","0.36792","5"],
    [31422,"HCEP03730560","2024-08-20 14:30:00","10.6401","3.34893","26.018","2.531","7.53","0.951","3.932","0.1","0.18","29.7945","4.69826","27.51","0","SATNPRO1962","26.036","0.36466","5"],
    [31423,"HCEP03730560","2024-08-20 14:45:00","10.6377","3.34828","26.26","2.466","7.52","0.961","3.86","0.15","0.24","29.7899","4.69766","26.8","0","SATNPRO1962","25.786","0.3612","5"],
    [31424,"HCEP03730560","2024-08-20 15:00:00","10.6355","3.34725","26.488","2.358","7.51","0.923","4.088","0.12","0.22","29.7814","4.69651","25.62","0","SATNPRO1962","25.477999999999998","0.35684","5"],
    [31425,"HCEP03730560","2024-08-20 15:15:00","10.6267","3.34609","26.704","2.169","7.5","0.909","4.214","0.1","0.17","29.7771","4.69604","23.56","0","SATNPRO1962","24.8","0.34736","5"],
    [31426,"HCEP03730560","2024-08-20 15:30:00","10.6222","3.34508","26.916","1.97","7.48","0.802","4.267","0.11","0.74","29.7708","4.69522","21.4","0","SATNPRO1962","24.684","0.34578","5"],
    [31427,"HCEP03730560","2024-08-20 15:45:00","10.6223","3.3448","27.114","1.848","7.47","0.828","4.004","0.08","0.25","29.7678","4.69481","20.07","0","SATNPRO1962","24.454","0.34254","5"],
    [31428,"HCEP03730560","2024-08-20 16:00:00","10.6244","3.34453","27.28","1.793","7.47","0.865","4.987","0.12","0.62","29.7634","4.69416","19.48","0","SATNPRO1962","24.438","0.34228","5"],
    [31429,"HCEP03730560","2024-08-20 16:15:00","10.6259","3.34424","27.439","1.759","7.46","0.933","4.13","0.12","0.32","29.7592","4.69355","19.1","0","SATNPRO1962","24.356","0.34116","5"],
    [31430,"HCEP03730560","2024-08-20 16:30:00","10.6278","3.34392","27.578","1.722","7.46","0.92","4.077","0.1","0.25","29.7545","4.69285","18.7","0","SATNPRO1962","24.232","0.33942","5"],
    [31431,"HCEP03730560","2024-08-20 16:45:00","10.6299","3.34353","27.686","1.679","7.46","1.032","4.003","0.15","0.27","29.7488","4.69202","18.24","0","SATNPRO1962","24.076","0.33724","5"],
    [31432,"HCEP03730560","2024-08-20 17:00:00","10.6313","3.34315","27.777","1.625","7.45","1.133","4.388","0.16","0.49","29.744","4.69131","17.65","0","SATNPRO1962","23.906","0.3348","5"],
    [31433,"HCEP03730560","2024-08-20 17:15:00","10.633","3.34279","27.833","1.566","7.45","1.202","4.057","0.16","0.41","29.739","4.69058","17.01","0","SATNPRO1962","23.694","0.33186","5"],
    [31434,"HCEP03730560","2024-08-20 17:30:00","10.6339","3.3426","27.892","1.517","7.44","1.099","4.08","0.14","0.25","29.7364","4.6902","16.48","0","SATNPRO1962","23.654","0.3313","5"],
    [31435,"HCEP03730560","2024-08-20 17:45:00","10.6342","3.34257","27.91","1.488","7.44","1.19","3.745","0.22","0.26","29.7358","4.6901","16.17","0","SATNPRO1962","23.555999999999997","0.32994","5"],
    [31436,"HCEP03730560","2024-08-20 18:00:00","10.6345","3.34248","27.933","1.466","7.44","1.064","3.874","0.11","0.3","29.7347","4.68994","15.93","0","SATNPRO1962","23.57","0.33012","5"],
    [31437,"HCEP03730560","2024-08-20 18:15:00","10.6353","3.33771","27.916","1.452","7.43","1.161","3.977","0.14","0.36","29.687","4.68314","15.77","0","SATNPRO1962","23","0.3222","5"],
    [31438,"HCEP03730560","2024-08-20 18:30:00","10.6363","3.33893","27.932","1.437","7.43","1.048","3.647","0.17","0.25","29.6983","4.68473","15.6","0","SATNPRO1962","23.604","0.33064","5"],
    [31439,"HCEP03730560","2024-08-20 18:45:00","10.6379","3.34222","27.784","1.431","7.43","0.935","3.474","0.1","0.26","29.7294","4.68914","15.54","0","SATNPRO1962","23.524","0.32946","5"],
    [31440,"HCEP03730560","2024-08-20 19:00:00","10.6407","3.34211","27.695","1.428","7.43","0.974","3.336","0.17","0.19","29.7262","4.68862","15.51","0","SATNPRO1962","23.446","0.3284","5"],
    [31441,"HCEP03730560","2024-08-20 19:15:00","10.642","3.34208","27.603","1.424","7.43","1.126","3.031","0.3","0.15","29.7248","4.6884","15.47","0","SATNPRO1962","23.514","0.32934","5"],
    [31442,"HCEP03730560","2024-08-20 19:30:00","10.6418","3.34214","27.525","1.425","7.43","0.954","3.279","0.22","0.61","29.7256","4.68851","15.48","0","SATNPRO1962","23.512","0.3293","5"],
    [31443,"HCEP03730560","2024-08-20 19:45:00","10.6431","3.34206","27.421","1.423","7.43","0.904","2.903","0.16","0.3","29.7238","4.68823","15.46","0","SATNPRO1962","23.5","0.32914","5"],
    [31444,"HCEP03730560","2024-08-20 20:00:00","10.6436","3.34196","27.336","1.425","7.43","0.81","3.055","0.15","0.43","29.7224","4.68802","15.48","0","SATNPRO1962","23.484","0.3289","5"],
    [31445,"HCEP03730560","2024-08-20 20:15:00","10.6447","3.34182","27.202","1.42","7.43","1.062","2.862","0.29","0.13","29.7202","4.68768","15.43","0","SATNPRO1962","23.252","0.32568","5"],
    [31446,"HCEP03730560","2024-08-20 20:30:00","10.6411","3.342","27.06","1.413","7.43","1.153","3.001","0.93","0.18","29.725","4.68841","15.35","0","SATNPRO1962","23.368","0.32728","5"],
    [31447,"HCEP03730560","2024-08-20 20:45:00","10.6404","3.34194","26.928","1.404","7.43","0.757","2.955","0.17","0.08","29.725","4.68842","15.26","0","SATNPRO1962","23.436","0.32826","5"],
    [31448,"HCEP03730560","2024-08-20 21:00:00","10.6387","3.34192","26.826","1.396","7.43","0.703","3.02","0.07","0.28","29.7262","4.68861","15.16","0","SATNPRO1962","23.298","0.32632","5"],
    [31449,"HCEP03730560","2024-08-20 21:15:00","10.6373","3.34208","26.675","1.394","7.43","0.715","2.961","0.17","0.1","29.729","4.68903","15.14","0","SATNPRO1962","23.282","0.32608","5"],
    [31450,"HCEP03730560","2024-08-20 21:30:00","10.637","3.34211","26.519","1.397","7.43","0.821","3.023","0.28","0.16","29.7295","4.68909","15.18","0","SATNPRO1962","23.54","0.32968","5"],
    [31451,"HCEP03730560","2024-08-20 21:45:00","10.6358","3.34218","26.351","1.401","7.43","0.887","3.328","0.2","0.31","29.7313","4.68936","15.22","0","SATNPRO1962","23.372","0.32736","5"],
    [31452,"HCEP03730560","2024-08-20 22:00:00","10.6367","3.34209","26.185","1.4","7.43","0.758","3.207","0.15","0.22","29.7298","4.68912","15.21","0","SATNPRO1962","23.323999999999998","0.32668","5"],
    [31453,"HCEP03730560","2024-08-20 22:15:00","10.6368","3.34211","26.03","1.396","7.43","1.01","3.124","0.38","0.16","29.73","4.68913","15.17","0","SATNPRO1962","23.404","0.32786","5"],
    [31454,"HCEP03730560","2024-08-20 22:30:00","10.638","3.342","25.889","1.386","7.43","0.886","2.932","0.18","0.08","29.728","4.68883","15.06","0","SATNPRO1962","23.388","0.32758","5"],
    [31455,"HCEP03730560","2024-08-20 22:45:00","10.6352","3.34225","25.751","1.383","7.43","0.812","3.234","0.16","0.11","29.7327","4.68953","15.02","0","SATNPRO1962","23.18","0.32466","5"],
    [31456,"HCEP03730560","2024-08-20 23:00:00","10.6309","3.34269","25.641","1.38","7.43","1.087","3.658","0.37","0.15","29.7406","4.69071","14.99","0","SATNPRO1962","23.2","0.32494","5"],
    [31457,"HCEP03730560","2024-08-20 23:15:00","10.6314","3.34324","25.561","1.391","7.43","1.063","4.018","0.22","0.19","29.7456","4.69142","15.11","0","SATNPRO1962","23.336","0.32686","5"],
    [31458,"HCEP03730560","2024-08-20 23:30:00","10.6318","3.34357","25.537","1.433","7.43","0.993","4.195","0.16","0.21","29.7486","4.69184","15.57","0","SATNPRO1962","23.624","0.33086","5"],
    [31459,"HCEP03730560","2024-08-20 23:45:00","10.6338","3.34407","25.54","1.488","7.44","1.07","4.259","0.18","0.26","29.7518","4.69227","16.17","0","SATNPRO1962","23.66","0.33138","5"],
    [31460,"HCEP03730560","2024-08-21 00:00:00","10.6383","3.34429","25.578","1.532","7.44","1.161","4.231","0.18","0.22","29.7504","4.692","16.64","0","SATNPRO1962","23.796","0.3333","5"],
    [31461,"HCEP03730560","2024-08-21 00:15:00","10.6403","3.34446","25.625","1.56","7.44","1.277","4.108","0.24","0.22","29.7504","4.69196","16.95","0","SATNPRO1962","23.742","0.33254","5"],
    [31462,"HCEP03730560","2024-08-21 00:30:00","10.639","3.3445","25.69","1.568","7.44","1.373","4.358","0.46","0.24","29.7518","4.69219","17.04","0","SATNPRO1962","23.756","0.33272","5"],
    [31463,"HCEP03730560","2024-08-21 00:45:00","10.6419","3.34476","25.8","1.576","7.44","1.297","4.07","0.18","0.25","29.752","4.69218","17.12","0","SATNPRO1962","23.792","0.33326","5"],
    [31464,"HCEP03730560","2024-08-21 01:00:00","10.6418","3.34488","25.895","1.59","7.44","1.716","4.379","0.55","0.38","29.7532","4.69236","17.27","0","SATNPRO1962","23.706","0.33208","5"],
    [31465,"HCEP03730560","2024-08-21 01:15:00","10.647","3.34529","26.008","1.61","7.45","1.697","4.495","0.34","0.46","29.753","4.69224","17.49","0","SATNPRO1962","23.662","0.3314","5"],
    [31466,"HCEP03730560","2024-08-21 01:30:00","10.6601","3.34599","26.122","1.678","7.45","1.885","4.351","0.72","0.39","29.7491","4.6915","18.24","0","SATNPRO1962","24.178","0.33864","5"],
    [31467,"HCEP03730560","2024-08-21 01:45:00","10.665","3.34633","26.244","1.758","7.46","1.689","4.224","0.21","0.27","29.7485","4.69134","19.11","0","SATNPRO1962","24.316","0.34058","5"],
    [31468,"HCEP03730560","2024-08-21 02:00:00","10.6642","3.34642","26.363","1.816","7.46","1.422","4.336","0.25","0.51","29.75","4.69158","19.74","0","SATNPRO1962","24.71","0.34612","5"],
    [31469,"HCEP03730560","2024-08-21 02:15:00","10.662","3.34645","26.499","1.838","7.46","1.56","4.367","0.19","0.24","29.752","4.69189","19.98","0","SATNPRO1962","24.382","0.3415","5"],
    [31470,"HCEP03730560","2024-08-21 02:30:00","10.6578","3.34644","26.63","1.829","7.46","1.651","4.583","0.21","0.32","29.7553","4.69244","19.88","0","SATNPRO1962","24.386","0.34156","5"],
    [31471,"HCEP03730560","2024-08-21 02:45:00","10.6551","3.34665","26.764","1.827","7.47","1.726","4.058","0.29","0.49","29.7595","4.69309","19.86","0","SATNPRO1962","24.466","0.3427","5"],
    [31472,"HCEP03730560","2024-08-21 03:00:00","10.6476","3.34685","26.892","1.85","7.47","1.709","4.247","0.22","0.26","29.7675","4.69435","20.1","0","SATNPRO1962","24.662","0.34542","5"],
    [31473,"HCEP03730560","2024-08-21 03:15:00","10.6453","3.34714","27.012","1.883","7.47","1.745","4.364","0.17","0.26","29.7722","4.69506","20.46","0","SATNPRO1962","24.702","0.346","5"],
    [31474,"HCEP03730560","2024-08-21 03:30:00","10.6444","3.3476","27.141","1.935","7.48","1.812","4.359","0.3","0.66","29.7773","4.69582","21.03","0","SATNPRO1962","24.936","0.3493","5"],
    [31475,"HCEP03730560","2024-08-21 03:45:00","10.6442","3.34782","27.262","1.999","7.48","1.476","3.947","0.13","0.32","29.7797","4.69616","21.73","0","SATNPRO1962","25.008","0.3503","5"],
    [31476,"HCEP03730560","2024-08-21 04:00:00","10.6441","3.3483","27.374","2.059","7.49","1.63","4.045","0.28","0.33","29.7844","4.69685","22.38","0","SATNPRO1962","25.178","0.35264","5"],
    [31477,"HCEP03730560","2024-08-21 04:15:00","10.6444","3.34845","27.467","2.11","7.49","1.539","4.16","0.26","0.43","29.7856","4.69701","22.94","0","SATNPRO1962","25.368000000000002","0.35536","5"],
    [31478,"HCEP03730560","2024-08-21 04:30:00","10.6454","3.34887","27.542","2.16","7.5","1.55","4.041","0.27","0.34","29.789","4.69748","23.48","0","SATNPRO1962","25.434","0.35626","5"],
    [31479,"HCEP03730560","2024-08-21 04:45:00","10.6459","3.34894","27.595","2.195","7.5","1.703","7.055","0.43","4.21","29.7892","4.69751","23.86","0","SATNPRO1962","25.574","0.3582","5"],
    [31480,"HCEP03730560","2024-08-21 05:00:00","10.6461","3.34918","27.628","2.227","7.5","1.438","4.212","0.24","0.69","29.7915","4.69783","24.2","0","SATNPRO1962","25.628","0.359","5"],
    [31481,"HCEP03730560","2024-08-21 05:15:00","10.6453","3.3492","27.634","2.248","7.5","1.496","3.748","0.4","0.21","29.7922","4.69795","24.44","0","SATNPRO1962","25.644","0.35916","5"],
    [31482,"HCEP03730560","2024-08-21 05:30:00","10.6454","3.34949","27.613","2.271","7.51","1.459","4.026","0.27","0.47","29.795","4.69835","24.69","0","SATNPRO1962","25.706","0.36006","5"],
    [31483,"HCEP03730560","2024-08-21 05:45:00","10.6449","3.34925","27.575","2.286","7.51","1.456","3.91","0.31","0.49","29.7931","4.69807","24.84","0","SATNPRO1962","25.642","0.35916","5"],
    [31484,"HCEP03730560","2024-08-21 06:00:00","10.6443","3.3478","27.512","2.27","7.5","0.773","2.815","0.3","0.17","29.7794","4.69613","24.68","0","SATNPRO1962","25.096","0.3515","5"],
    [31485,"HCEP03730560","2024-08-21 06:15:00","10.644","3.34904","27.434","2.238","7.51","1.357","3.203","0.32","0.17","29.7918","4.6979","24.32","0","SATNPRO1962","25.808","0.36152","5"],
    [31486,"HCEP03730560","2024-08-21 06:30:00","10.6426","3.34954","27.335","2.266","7.51","1.668","4.055","0.59","0.48","29.7979","4.69879","24.63","0","SATNPRO1962","25.580000000000002","0.35828","5"],
    [31487,"HCEP03730560","2024-08-21 06:45:00","10.6422","3.34938","27.212","2.263","7.51","1.491","3.635","0.24","0.25","29.7967","4.69861","24.59","0","SATNPRO1962","25.78","0.36108","5"],
    [31488,"HCEP03730560","2024-08-21 07:00:00","10.6425","3.34931","27.062","2.251","7.51","1.744","3.997","0.46","0.48","29.7958","4.69847","24.46","0","SATNPRO1962","25.582","0.35832","5"],
    [31489,"HCEP03730560","2024-08-21 07:15:00","10.6435","3.34923","26.894","2.235","7.5","1.858","4.863","0.51","1.1","29.7944","4.69824","24.3","0","SATNPRO1962","25.546","0.35784","5"],
    [31490,"HCEP03730560","2024-08-21 07:30:00","10.6437","3.3491","26.7","2.229","7.51","1.451","3.863","0.28","0.5","29.793","4.69803","24.23","0","SATNPRO1962","25.544","0.35778","5"],
    [31491,"HCEP03730560","2024-08-21 07:45:00","10.6445","3.34892","26.525","2.224","7.5","1.242","3.646","0.17","0.2","29.7906","4.69767","24.18","0","SATNPRO1962","25.56","0.358","5"],
    [31492,"HCEP03730560","2024-08-21 08:00:00","10.6443","3.34869","26.337","2.21","7.5","5.831","4.096","6.97","0.9","29.7885","4.69736","24.03","0","SATNPRO1962","25.518","0.35742","5"],
    [31493,"HCEP03730560","2024-08-21 08:15:00","10.6452","3.34848","26.14","2.183","7.5","4.544","3.807","6.83","0.69","29.7858","4.69696","23.72","0","SATNPRO1962","25.556","0.35794","5"],
    [31494,"HCEP03730560","2024-08-21 08:30:00","10.6445","3.34816","25.948","2.152","7.5","2.808","3.769","4.11","0.78","29.7833","4.6966","23.39","0","SATNPRO1962","25.34","0.35492","5"],
    [31495,"HCEP03730560","2024-08-21 08:45:00","10.6451","3.34813","25.758","2.115","7.49","1.825","4.813","2.33","3.15","29.7826","4.69647","22.99","0","SATNPRO1962","25.028","0.35054","5"],
    [31496,"HCEP03730560","2024-08-21 09:00:00","10.6457","3.34792","25.554","2.082","7.49","1.077","3.575","0.14","0.18","29.7802","4.69611","22.63","0","SATNPRO1962","25.062","0.35102","5"],
    [31497,"HCEP03730560","2024-08-21 09:15:00","10.6458","3.3477","25.392","2.037","7.49","1.24","3.571","0.16","0.15","29.778","4.6958","22.14","0","SATNPRO1962","24.994","0.35004","5"],
    [31498,"HCEP03730560","2024-08-21 09:30:00","10.6471","3.34723","25.158","1.982","7.48","1.193","3.726","0.12","0.45","29.7723","4.69495","21.54","0","SATNPRO1962","24.912","0.34892","5"],
    [31499,"HCEP03730560","2024-08-21 09:45:00","10.6515","3.34674","24.98","1.924","7.48","1.285","3.643","0.25","0.28","29.7641","4.69369","20.91","0","SATNPRO1962","24.756","0.34674","5"],
    [31500,"HCEP03730560","2024-08-21 10:00:00","10.6519","3.34698","24.743","1.906","7.48","1.365","4.013","0.3","0.4","29.7662","4.69398","20.72","0","SATNPRO1962","24.646","0.3452","5"],
    [31501,"HCEP03730560","2024-08-21 10:15:00","10.6547","3.34668","24.562","1.881","7.47","1.111","3.259","0.16","0.13","29.7609","4.69317","20.45","0","SATNPRO1962","24.355999999999998","0.34112","5"],
    [31502,"HCEP03730560","2024-08-21 10:30:00","10.6558","3.34671","24.38","1.849","7.47","1.379","3.882","0.18","0.33","29.7604","4.69308","20.1","0","SATNPRO1962","24.426","0.34216","5"],
    [31503,"HCEP03730560","2024-08-21 10:45:00","10.6588","3.34717","24.177","1.863","7.47","1.272","3.556","0.18","0.45","29.7625","4.69332","20.26","0","SATNPRO1962","24.482","0.3429","5"],
    [31504,"HCEP03730560","2024-08-21 11:00:00","10.6601","3.34739","24.1","1.92","7.48","1.225","3.531","0.12","0.2","29.7637","4.69346","20.87","0","SATNPRO1962","24.5","0.34314","5"],
    [31505,"HCEP03730560","2024-08-21 11:15:00","10.6602","3.34733","24.088","1.924","7.47","1.505","5.509","0.68","4.41","29.7632","4.69338","20.92","0","SATNPRO1962","24.446","0.34244","5"],
    [31506,"HCEP03730560","2024-08-21 11:30:00","10.6584","3.34714","24.072","1.889","7.47","1.14","3.487","0.18","0.12","29.7627","4.69334","20.53","0","SATNPRO1962","24.316","0.3406","5"],
    [31507,"HCEP03730560","2024-08-21 11:45:00","10.6577","3.347","24.03","1.859","7.47","1.153","3.428","0.17","0.08","29.7619","4.69323","20.21","0","SATNPRO1962","24.228","0.33936","5"],
    [31508,"HCEP03730560","2024-08-21 12:00:00","10.6565","3.34689","24.057","1.834","7.47","1.128","3.551","0.13","0.11","29.7618","4.69324","19.94","0","SATNPRO1962","24.22","0.33924","5"],
    [31509,"HCEP03730560","2024-08-21 12:15:00","10.6568","3.34677","24.16","1.81","7.47","1.244","3.558","0.52","0.14","29.7603","4.69303","19.68","0","SATNPRO1962","24.048","0.33684","5"],
    [31510,"HCEP03730560","2024-08-21 12:30:00","10.6575","3.34669","24.225","1.792","7.46","1.051","3.544","0.1","0.26","29.7589","4.69283","19.48","0","SATNPRO1962","24.068","0.33712","5"],
    [31511,"HCEP03730560","2024-08-21 12:45:00","10.6577","3.34663","24.387","1.783","7.46","1.056","3.433","0.14","0.15","29.7581","4.69271","19.38","0","SATNPRO1962","24.04","0.33674","5"],
    [31512,"HCEP03730560","2024-08-21 13:00:00","10.6581","3.34668","24.51","1.777","7.46","1.06","3.442","0.15","0.2","29.7582","4.69273","19.31","0","SATNPRO1962","24.076","0.33722","5"],
    [31513,"HCEP03730560","2024-08-21 13:15:00","10.6571","3.34676","24.689","1.776","7.46","1.063","3.644","0.13","0.81","29.7598","4.69298","19.31","0","SATNPRO1962","24.014","0.33634","5"],
    [31514,"HCEP03730560","2024-08-21 13:30:00","10.6573","3.34689","24.865","1.781","7.46","1.025","3.373","0.13","0.14","29.7609","4.69314","19.36","0","SATNPRO1962","24.168","0.33848","5"],
    [31515,"HCEP03730560","2024-08-21 13:45:00","10.6577","3.34698","25.08","1.795","7.46","0.993","3.25","0.13","0.15","29.7613","4.69321","19.51","0","SATNPRO1962","24.12","0.33784","5"],
    [31516,"HCEP03730560","2024-08-21 14:00:00","10.6575","3.34685","25.273","1.792","7.46","1.073","3.385","0.14","0.25","29.7601","4.69306","19.48","0","SATNPRO1962","24.082","0.3373","5"],
    [31517,"HCEP03730560","2024-08-21 14:15:00","10.6573","3.34676","25.459","1.775","7.46","1.118","3.396","0.17","0.2","29.7593","4.69296","19.29","0","SATNPRO1962","24.062","0.33708","5"],
    [31518,"HCEP03730560","2024-08-21 14:30:00","10.6575","3.34672","25.666","1.759","7.46","1.061","3.235","0.17","0.17","29.7586","4.69287","19.12","0","SATNPRO1962","24.084","0.33734","5"],
    [31519,"HCEP03730560","2024-08-21 14:45:00","10.6572","3.34685","25.879","1.76","7.46","1.068","3.168","0.19","0.31","29.7601","4.69309","19.13","0","SATNPRO1962","24.082","0.33732","5"],
    [31520,"HCEP03730560","2024-08-21 15:00:00","10.6565","3.34686","26.095","1.767","7.46","0.918","3.061","0.17","0.18","29.7607","4.6932","19.21","0","SATNPRO1962","24.204","0.33906","5"],
    [31521,"HCEP03730560","2024-08-21 15:15:00","10.6551","3.34691","26.323","1.767","7.46","1.094","3.217","0.2","0.2","29.7622","4.69345","19.21","0","SATNPRO1962","24.098","0.33754","5"],
    [31522,"HCEP03730560","2024-08-21 15:30:00","10.655","3.34685","26.543","1.764","7.46","0.968","3.301","0.17","0.24","29.7616","4.69338","19.17","0","SATNPRO1962","24.238","0.3395","5"],
    [31523,"HCEP03730560","2024-08-21 15:45:00","10.6541","3.34674","26.758","1.748","7.46","1.085","3.769","0.17","0.85","29.7612","4.69334","19","0","SATNPRO1962","23.976","0.33582","5"],
    [31524,"HCEP03730560","2024-08-21 16:00:00","10.6541","3.34675","26.975","1.714","7.46","1.011","3.568","0.11","0.19","29.7612","4.69335","18.63","0","SATNPRO1962","23.898","0.33472","5"],
    [31525,"HCEP03730560","2024-08-21 16:15:00","10.6554","3.34687","27.187","1.691","7.46","1.243","3.96","0.18","0.63","29.7613","4.69336","18.38","0","SATNPRO1962","23.748","0.33262","5"],
    [31526,"HCEP03730560","2024-08-21 16:30:00","10.6568","3.34693","27.357","1.681","7.45","1.113","3.754","0.08","0.19","29.7607","4.69326","18.27","0","SATNPRO1962","23.73","0.33238","5"],
    [31527,"HCEP03730560","2024-08-21 16:45:00","10.6591","3.347","27.522","1.676","7.45","1.268","3.765","0.15","0.15","29.7594","4.69305","18.22","0","SATNPRO1962","23.746","0.3326","5"],
    [31528,"HCEP03730560","2024-08-21 17:00:00","10.6657","3.34719","27.66","1.686","7.46","1.219","3.466","0.17","0.16","29.7558","4.69245","18.33","0","SATNPRO1962","23.796","0.33326","5"],
    [31529,"HCEP03730560","2024-08-21 17:15:00","10.6681","3.34724","27.79","1.711","7.46","1.237","3.616","0.16","0.35","29.7543","4.69221","18.6","0","SATNPRO1962","23.552","0.3299","5"],
    [31530,"HCEP03730560","2024-08-21 17:30:00","10.671","3.34749","27.89","1.727","7.46","1.398","3.476","0.24","0.17","29.7543","4.69217","18.78","0","SATNPRO1962","23.588","0.33038","5"],
    [31531,"HCEP03730560","2024-08-21 17:45:00","10.6753","3.34752","27.965","1.748","7.46","1.325","3.392","0.16","0.37","29.7512","4.69165","19.01","0","SATNPRO1962","23.694","0.33188","5"],
    [31532,"HCEP03730560","2024-08-21 18:00:00","10.676","3.34773","27.965","1.768","7.46","1.415","3.919","0.17","0.81","29.7527","4.69186","19.22","0","SATNPRO1962","23.662","0.33144","5"],
    [31533,"HCEP03730560","2024-08-21 18:15:00","10.6795","3.34813","27.958","1.788","7.46","1.449","3.684","0.18","0.13","29.7537","4.69195","19.44","0","SATNPRO1962","23.774","0.33298","5"],
    [31534,"HCEP03730560","2024-08-21 18:30:00","10.6818","3.34818","27.947","1.812","7.46","1.348","3.509","0.13","0.11","29.7524","4.69173","19.71","0","SATNPRO1962","23.854","0.3341","5"],
    [31535,"HCEP03730560","2024-08-21 18:45:00","10.6786","3.34799","27.944","1.807","7.46","1.395","3.615","0.14","0.34","29.7531","4.69187","19.65","0","SATNPRO1962","23.638","0.33114","5"],
    [31536,"HCEP03730560","2024-08-21 19:00:00","10.6768","3.34767","27.935","1.775","7.46","1.307","3.423","0.14","0.18","29.7514","4.69166","19.3","0","SATNPRO1962","23.576","0.33022","5"],
    [31537,"HCEP03730560","2024-08-21 19:15:00","10.6775","3.34821","27.915","1.767","7.46","1.39","3.42","0.24","0.16","29.7561","4.69232","19.22","0","SATNPRO1962","23.616","0.33078","5"],
    [31538,"HCEP03730560","2024-08-21 19:30:00","10.6795","3.348","27.775","1.782","7.46","1.248","3.469","0.22","0.09","29.7525","4.69177","19.37","0","SATNPRO1962","23.606","0.33068","5"],
    [31539,"HCEP03730560","2024-08-21 19:45:00","10.6799","3.34795","27.714","1.787","7.46","1.166","3.604","0.12","1","29.7517","4.69165","19.43","0","SATNPRO1962","23.701999999999998","0.33198","5"],
    [31540,"HCEP03730560","2024-08-21 20:00:00","10.6812","3.34778","27.612","1.79","7.46","1.089","3.372","0.12","0.69","29.749","4.69124","19.47","0","SATNPRO1962","23.764","0.33284","5"],
    [31541,"HCEP03730560","2024-08-21 20:15:00","10.6772","3.34713","27.567","1.768","7.46","1.063","2.979","0.16","0.19","29.7459","4.69085","19.22","0","SATNPRO1962","23.622","0.33088","5"],
    [31542,"HCEP03730560","2024-08-21 20:30:00","10.6712","3.34632","27.435","1.698","7.45","1.092","2.989","0.14","0.08","29.7429","4.69051","18.46","0","SATNPRO1962","23.444","0.32838","5"],
    [31543,"HCEP03730560","2024-08-21 20:45:00","10.6711","3.34638","27.263","1.644","7.45","1.115","3.001","0.26","0.08","29.7437","4.69061","17.88","0","SATNPRO1962","23.516000000000002","0.3294","5"],
    [31544,"HCEP03730560","2024-08-21 21:00:00","10.672","3.34657","27.125","1.644","7.45","1.03","3.089","0.14","0.11","29.7449","4.69076","17.87","0","SATNPRO1962","23.488","0.32898","5"],
    [31545,"HCEP03730560","2024-08-21 21:15:00","10.6725","3.34674","26.979","1.648","7.45","1.14","3.118","0.23","0.19","29.7461","4.69092","17.92","0","SATNPRO1962","23.45","0.3285","5"],
    [31546,"HCEP03730560","2024-08-21 21:30:00","10.6722","3.34673","26.818","1.642","7.45","1.137","3.256","0.26","0.13","29.7463","4.69094","17.86","0","SATNPRO1962","23.378","0.32746","5"],
    [31547,"HCEP03730560","2024-08-21 21:45:00","10.6693","3.34694","26.542","1.617","7.45","1.236","4.06","0.15","0.25","29.7509","4.69163","17.58","0","SATNPRO1962","23.23","0.32536","5"],
    [31548,"HCEP03730560","2024-08-21 22:00:00","10.6669","3.34691","26.395","1.569","7.44","1.462","4.546","0.21","0.69","29.7525","4.69189","17.06","0","SATNPRO1962","23.06","0.323","5"],
    [31549,"HCEP03730560","2024-08-21 22:15:00","10.6652","3.34674","26.25","1.505","7.44","1.525","4.604","0.3","0.15","29.7524","4.69189","16.36","0","SATNPRO1962","22.817999999999998","0.31962","5"],
    [31550,"HCEP03730560","2024-08-21 22:30:00","10.6641","3.34647","26.063","1.454","7.44","1.347","4.642","0.15","0.21","29.7507","4.69166","15.8","0","SATNPRO1962","22.736","0.31846","5"],
    [31551,"HCEP03730560","2024-08-21 22:45:00","10.6661","3.34639","25.871","1.423","7.43","1.403","4.319","0.12","0.17","29.7483","4.69127","15.47","0","SATNPRO1962","22.724","0.3183","5"],
    [31552,"HCEP03730560","2024-08-21 23:00:00","10.6675","3.34674","25.708","1.428","7.43","1.461","4.98","0.22","0.42","29.7507","4.69159","15.52","0","SATNPRO1962","22.73","0.31836","5"],
    [31553,"HCEP03730560","2024-08-21 23:15:00","10.6723","3.34677","25.56","1.465","7.44","1.347","4.112","0.3","0.3","29.7472","4.691","15.93","0","SATNPRO1962","22.968","0.3217","5"],
    [31554,"HCEP03730560","2024-08-21 23:30:00","10.6747","3.34674","25.434","1.519","7.44","1.429","4.181","0.24","0.43","29.745","4.69064","16.51","0","SATNPRO1962","23.016","0.32236","5"],
    [31555,"HCEP03730560","2024-08-21 23:45:00","10.6736","3.34642","25.349","1.544","7.44","1.305","3.801","0.24","0.28","29.7427","4.69032","16.78","0","SATNPRO1962","23.092","0.32342","5"],
    [31556,"HCEP03730560","2024-08-22 00:00:00","10.6742","3.34634","25.302","1.537","7.44","1.325","3.679","0.31","0.21","29.7415","4.69015","16.72","0","SATNPRO1962","23.058","0.32296","5"],
    [31557,"HCEP03730560","2024-08-22 00:15:00","10.6742","3.34606","25.296","1.526","7.44","1.225","3.575","0.28","0.2","29.7387","4.68975","16.59","0","SATNPRO1962","23.046","0.32278","5"],
    [31558,"HCEP03730560","2024-08-22 00:30:00","10.6742","3.34624","25.318","1.519","7.44","1.302","3.97","0.2","0.18","29.7405","4.69","16.52","0","SATNPRO1962","22.974","0.32178","5"],
    [31559,"HCEP03730560","2024-08-22 00:45:00","10.6743","3.34635","25.372","1.52","7.44","1.295","3.797","0.21","0.18","29.7414","4.69014","16.53","0","SATNPRO1962","22.983999999999998","0.32194","5"],
    [31560,"HCEP03730560","2024-08-22 01:00:00","10.6743","3.3472","25.454","1.537","7.44","1.509","4.411","0.17","0.21","29.7498","4.69134","16.72","0","SATNPRO1962","23.068","0.32312","5"],
    [31561,"HCEP03730560","2024-08-22 01:15:00","10.6721","3.34742","25.562","1.565","7.44","1.471","4.492","0.14","0.19","29.7537","4.69193","17.02","0","SATNPRO1962","23.106","0.32366","5"],
    [31562,"HCEP03730560","2024-08-22 01:30:00","10.6695","3.34721","25.557","1.543","7.44","1.543","4.763","0.2","0.26","29.7538","4.69198","16.77","0","SATNPRO1962","23.058","0.32294","5"],
    [31563,"HCEP03730560","2024-08-22 01:45:00","10.6696","3.34745","25.587","1.543","7.44","1.718","4.988","0.16","0.28","29.756","4.6923","16.78","0","SATNPRO1962","23.158","0.32436","5"],
    [31564,"HCEP03730560","2024-08-22 02:00:00","10.6701","3.34766","25.658","1.567","7.44","1.549","4.794","0.16","0.22","29.7577","4.69254","17.04","0","SATNPRO1962","23.332","0.3268","5"],
    [31565,"HCEP03730560","2024-08-22 02:15:00","10.6691","3.34756","25.73","1.579","7.44","1.668","5.009","0.18","0.31","29.7575","4.69252","17.17","0","SATNPRO1962","23.28","0.32606","5"],
    [31566,"HCEP03730560","2024-08-22 02:30:00","10.6682","3.34757","25.851","1.576","7.45","1.66","4.912","0.15","0.34","29.7583","4.69266","17.14","0","SATNPRO1962","23.346","0.32704","5"],
    [31567,"HCEP03730560","2024-08-22 02:45:00","10.665","3.34702","26.036","1.552","7.44","1.525","4.753","0.18","0.43","29.7554","4.6923","16.87","0","SATNPRO1962","23.332","0.3268","5"],
    [31568,"HCEP03730560","2024-08-22 03:00:00","10.6661","3.34695","26.173","1.511","7.44","1.426","4.853","0.22","0.83","29.7537","4.69206","16.43","0","SATNPRO1962","23.25","0.32566","5"],
    [31569,"HCEP03730560","2024-08-22 03:15:00","10.6743","3.34734","26.28","1.499","7.44","1.59","4.84","0.23","0.42","29.7508","4.69152","16.3","0","SATNPRO1962","23.156","0.32436","5"],
    [31570,"HCEP03730560","2024-08-22 03:30:00","10.6836","3.34793","26.405","1.533","7.44","1.513","4.57","0.13","0.29","29.7491","4.69113","16.67","0","SATNPRO1962","23.418","0.32804","5"],
    [31571,"HCEP03730560","2024-08-22 03:45:00","10.6884","3.34832","26.561","1.602","7.45","1.602","4.454","0.16","0.39","29.749","4.69105","17.43","0","SATNPRO1962","23.412000000000003","0.32792","5"],
    [31572,"HCEP03730560","2024-08-22 04:00:00","10.6912","3.34885","26.712","1.679","7.45","1.388","4.127","0.15","0.45","29.7518","4.69142","18.27","0","SATNPRO1962","23.796","0.33332","5"],
    [31573,"HCEP03730560","2024-08-22 04:15:00","10.6992","3.34948","26.828","1.75","7.46","1.61","4.618","0.13","0.55","29.7515","4.69125","19.04","0","SATNPRO1962","23.948","0.33544","5"],
    [31574,"HCEP03730560","2024-08-22 04:30:00","10.7033","3.35023","27.041","1.814","7.47","1.547","3.993","0.25","0.3","29.7554","4.69176","19.74","0","SATNPRO1962","24.006","0.33628","5"],
    [31575,"HCEP03730560","2024-08-22 04:45:00","10.7037","3.35039","27.248","1.872","7.47","1.824","4.265","0.44","0.6","29.7566","4.69194","20.37","0","SATNPRO1962","24.276","0.34002","5"],
    [31576,"HCEP03730560","2024-08-22 05:00:00","10.7039","3.35048","27.419","1.893","7.47","2.147","4.383","2.03","0.58","29.7572","4.69203","20.6","0","SATNPRO1962","24.194","0.33884","5"],
    [31577,"HCEP03730560","2024-08-22 05:15:00","10.7012","3.35037","27.511","1.888","7.47","1.802","4.455","0.33","0.78","29.7583","4.69224","20.55","0","SATNPRO1962","24","0.33616","5"],
    [31578,"HCEP03730560","2024-08-22 05:30:00","10.6965","3.35025","27.538","1.885","7.47","1.804","4.405","0.33","0.33","29.7609","4.69269","20.5","0","SATNPRO1962","24.114","0.33776","5"],
    [31579,"HCEP03730560","2024-08-22 05:45:00","10.6898","3.34976","27.566","1.869","7.47","1.676","3.94","0.27","0.41","29.7616","4.69289","20.34","0","SATNPRO1962","24.024","0.33654","5"],
    [31580,"HCEP03730560","2024-08-22 06:00:00","10.687","3.3495","27.617","1.836","7.47","1.647","3.648","0.47","0.31","29.7612","4.69288","19.97","0","SATNPRO1962","24.302","0.34036","5"],
    [31581,"HCEP03730560","2024-08-22 06:15:00","10.6836","3.34939","27.623","1.819","7.47","1.725","4.037","0.3","0.27","29.7629","4.69317","19.78","0","SATNPRO1962","24.038","0.3367","5"],
    [31582,"HCEP03730560","2024-08-22 06:30:00","10.6804","3.34927","27.609","1.814","7.47","1.726","4.817","0.4","0.45","29.7644","4.69343","19.73","0","SATNPRO1962","24.11","0.3377","5"],
    [31583,"HCEP03730560","2024-08-22 06:45:00","10.6777","3.34923","27.563","1.826","7.47","1.321","3.485","0.34","0.49","29.7661","4.69372","19.86","0","SATNPRO1962","24.346","0.34098","5"],
    [31584,"HCEP03730560","2024-08-22 07:00:00","10.6767","3.34914","27.485","1.825","7.47","1.408","3.505","0.36","0.21","29.7661","4.69373","19.85","0","SATNPRO1962","24.262","0.33982","5"],
    [31585,"HCEP03730560","2024-08-22 07:15:00","10.6744","3.34907","27.339","1.814","7.47","1.261","3.325","0.27","0.15","29.7674","4.69394","19.73","0","SATNPRO1962","24.262","0.33982","5"],
    [31586,"HCEP03730560","2024-08-22 07:30:00","10.6752","3.34905","27.204","1.804","7.47","1.514","3.699","0.3","0.26","29.7666","4.6938","19.62","0","SATNPRO1962","24.268","0.3399","5"],
    [31587,"HCEP03730560","2024-08-22 07:45:00","10.6766","3.34914","27.058","1.795","7.47","1.406","3.346","0.4","0.32","29.7664","4.69374","19.52","0","SATNPRO1962","24.218","0.33922","5"],
    [31588,"HCEP03730560","2024-08-22 08:00:00","10.678","3.34917","26.952","1.798","7.47","1.319","3.721","0.27","0.23","29.7655","4.6936","19.55","0","SATNPRO1962","24.33","0.34082","5"],
    [31589,"HCEP03730560","2024-08-22 08:15:00","10.6809","3.34924","26.779","1.798","7.47","1.378","3.381","0.22","0.27","29.764","4.69332","19.56","0","SATNPRO1962","24.146","0.33822","5"],
    [31590,"HCEP03730560","2024-08-22 08:30:00","10.6895","3.34979","26.616","1.818","7.47","1.476","3.572","0.34","0.26","29.7625","4.69296","19.78","0","SATNPRO1962","23.982","0.33592","5"],
    [31591,"HCEP03730560","2024-08-22 08:45:00","10.6911","3.34984","26.447","1.841","7.47","1.474","3.185","0.37","0.14","29.7617","4.69282","20.03","0","SATNPRO1962","24.346","0.341","5"],
    [31592,"HCEP03730560","2024-08-22 09:00:00","10.6973","3.35014","26.269","1.861","7.47","1.335","3.151","0.35","0.15","29.7598","4.69244","20.25","0","SATNPRO1962","24.266000000000002","0.33986","5"],
    [31593,"HCEP03730560","2024-08-22 09:15:00","10.6958","3.35005","26.088","1.878","7.47","1.3","3.619","0.26","0.46","29.7601","4.6925","20.43","0","SATNPRO1962","24.428","0.34214","5"],
    [31594,"HCEP03730560","2024-08-22 09:30:00","10.6922","3.34979","25.918","1.852","7.47","1.453","3.611","0.22","0.2","29.7605","4.69261","20.15","0","SATNPRO1962","24.146","0.33822","5"],
    [31595,"HCEP03730560","2024-08-22 09:45:00","10.6936","3.34965","25.732","1.829","7.47","1.368","3.305","0.25","0.2","29.7581","4.69222","19.9","0","SATNPRO1962","24.246","0.33964","5"],
    [31596,"HCEP03730560","2024-08-22 10:00:00","10.7001","3.35014","25.548","1.84","7.47","1.28","3.285","0.24","0.16","29.7577","4.69206","20.02","0","SATNPRO1962","24.2","0.33898","5"],
    [31597,"HCEP03730560","2024-08-22 10:15:00","10.6841","3.34908","25.408","1.806","7.46","1.302","3.684","0.16","0.17","29.7603","4.69267","19.65","0","SATNPRO1962","23.97","0.33576","5"],
    [31598,"HCEP03730560","2024-08-22 10:30:00","10.6803","3.34886","25.242","1.734","7.46","1.466","3.905","0.44","0.29","29.7613","4.69286","18.86","0","SATNPRO1962","23.792","0.33328","5"],
    [31599,"HCEP03730560","2024-08-22 10:45:00","10.6866","3.34889","25.132","1.698","7.46","1.449","3.973","0.2","0.22","29.7565","4.69208","18.46","0","SATNPRO1962","23.718","0.3322","5"],
    [31600,"HCEP03730560","2024-08-22 11:00:00","10.6831","3.34863","24.923","1.695","7.46","1.425","4.204","0.2","0.29","29.7569","4.69217","18.43","0","SATNPRO1962","23.698","0.33194","5"],
    [31601,"HCEP03730560","2024-08-22 11:15:00","10.6902","3.34887","24.765","1.676","7.46","1.406","3.92","0.21","0.33","29.7536","4.69159","18.23","0","SATNPRO1962","23.716","0.33218","5"],
    [31602,"HCEP03730560","2024-08-22 11:30:00","10.6899","3.34876","24.656","1.678","7.46","1.33","3.901","0.21","0.61","29.7528","4.69148","18.25","0","SATNPRO1962","23.696","0.33192","5"],
    [31603,"HCEP03730560","2024-08-22 11:45:00","10.6904","3.34857","24.555","1.659","7.45","1.53","3.947","0.34","0.36","29.7505","4.69114","18.04","0","SATNPRO1962","23.628","0.33096","5"],
    [31604,"HCEP03730560","2024-08-22 12:00:00","10.69","3.34844","24.506","1.627","7.45","1.358","4.115","0.18","0.83","29.7496","4.691","17.69","0","SATNPRO1962","23.466","0.32868","5"],
    [31605,"HCEP03730560","2024-08-22 12:15:00","10.6937","3.34851","24.481","1.602","7.45","1.453","3.97","0.27","0.45","29.7473","4.69061","17.42","0","SATNPRO1962","23.338","0.3269","5"],
    [31606,"HCEP03730560","2024-08-22 12:30:00","10.6905","3.34827","24.5","1.583","7.45","1.405","3.845","0.3","0.19","29.7475","4.6907","17.22","0","SATNPRO1962","23.342","0.32696","5"],
    [31607,"HCEP03730560","2024-08-22 12:45:00","10.6912","3.34823","24.545","1.573","7.45","1.493","3.888","0.4","0.34","29.7465","4.69055","17.11","0","SATNPRO1962","23.308","0.3265","5"],
    [31608,"HCEP03730560","2024-08-22 13:00:00","10.6862","3.34787","24.606","1.571","7.45","1.202","3.472","0.2","0.15","29.7471","4.69071","17.09","0","SATNPRO1962","23.368","0.32734","5"],
    [31609,"HCEP03730560","2024-08-22 13:15:00","10.6756","3.34736","24.728","1.534","7.44","1.362","3.82","0.26","0.35","29.7506","4.69138","16.68","0","SATNPRO1962","23.188","0.32478","5"],
    [31610,"HCEP03730560","2024-08-22 13:30:00","10.6727","3.34735","24.865","1.501","7.44","1.284","3.922","0.19","0.2","29.7528","4.69175","16.32","0","SATNPRO1962","23.032","0.3226","5"],
    [31611,"HCEP03730560","2024-08-22 13:45:00","10.6703","3.34752","25.02","1.49","7.44","1.287","3.944","0.17","0.24","29.7564","4.69231","16.2","0","SATNPRO1962","23.132","0.32398","5"],
    [31612,"HCEP03730560","2024-08-22 14:00:00","10.6692","3.34781","25.174","1.501","7.44","1.357","4.009","0.33","0.38","29.7601","4.69286","16.32","0","SATNPRO1962","23.296","0.32628","5"],
    [31613,"HCEP03730560","2024-08-22 14:15:00","10.6694","3.34815","25.35","1.536","7.44","1.469","4.081","0.27","0.32","29.7632","4.69331","16.7","0","SATNPRO1962","23.482","0.3289","5"],
    [31614,"HCEP03730560","2024-08-22 14:30:00","10.6695","3.34832","25.528","1.564","7.44","1.411","4.156","0.19","0.32","29.7647","4.69354","17.01","0","SATNPRO1962","23.504","0.32924","5"],
    [31615,"HCEP03730560","2024-08-22 14:45:00","10.6696","3.34854","25.631","1.592","7.45","1.325","4.018","0.19","0.4","29.7667","4.69382","17.31","0","SATNPRO1962","23.654","0.3313","5"],
    [31616,"HCEP03730560","2024-08-22 15:00:00","10.6702","3.34859","25.873","1.614","7.45","1.223","3.794","0.19","0.4","29.7667","4.69382","17.55","0","SATNPRO1962","23.65","0.3313","5"],
    [31617,"HCEP03730560","2024-08-22 15:15:00","10.6699","3.34853","26.049","1.626","7.45","1.271","3.72","0.26","0.29","29.7663","4.69378","17.68","0","SATNPRO1962","23.662","0.33138","5"],
    [31618,"HCEP03730560","2024-08-22 15:30:00","10.6689","3.34846","26.216","1.617","7.45","1.129","3.663","0.21","0.23","29.7663","4.69381","17.58","0","SATNPRO1962","23.646","0.3312","5"],
    [31619,"HCEP03730560","2024-08-22 15:45:00","10.669","3.34845","26.433","1.602","7.45","1.322","3.802","0.27","0.15","29.7661","4.69379","17.42","0","SATNPRO1962","23.734","0.33244","5"],
    [31620,"HCEP03730560","2024-08-22 16:00:00","10.6695","3.34848","26.608","1.585","7.45","1.47","4.033","0.76","0.24","29.7659","4.69376","17.24","0","SATNPRO1962","23.574","0.33018","5"],
    [31621,"HCEP03730560","2024-08-22 16:15:00","10.6725","3.34875","26.801","1.579","7.45","1.496","4.148","0.58","0.94","29.766","4.69374","17.17","0","SATNPRO1962","23.708","0.33208","5"],
    [31622,"HCEP03730560","2024-08-22 16:30:00","10.673400000000001","3.34889","27.011","1.599","7.45","1.301","3.614","0.23","0.14","29.7665","4.69382","17.39","0","SATNPRO1962","23.814","0.33358","5"],
    [31623,"HCEP03730560","2024-08-22 16:45:00","10.6774","3.34919","27.212","1.628","7.45","1.202","3.419","0.19","0.14","29.7662","4.69371","17.71","0","SATNPRO1962","23.81","0.33352","5"],
    [31624,"HCEP03730560","2024-08-22 17:00:00","10.6794","3.34927","27.377","1.651","7.45","1.295","3.518","0.23","0.21","29.7653","4.69357","17.96","0","SATNPRO1962","23.724","0.33232","5"],
    [31625,"HCEP03730560","2024-08-22 17:15:00","10.6808","3.34938","27.542","1.651","7.45","1.284","3.586","0.23","0.33","29.7651","4.69353","17.96","0","SATNPRO1962","23.68","0.33168","5"],
    [31626,"HCEP03730560","2024-08-22 17:30:00","10.6783","3.34912","27.689","1.639","7.45","1.148","3.817","0.24","0.47","29.7646","4.6935","17.83","0","SATNPRO1962","23.646","0.33118","5"],
    [31627,"HCEP03730560","2024-08-22 17:45:00","10.6846","3.3495","27.816","1.627","7.45","1.183","3.803","0.2","0.66","29.7631","4.6932","17.7","0","SATNPRO1962","23.628","0.33096","5"],
    [31628,"HCEP03730560","2024-08-22 18:00:00","10.698","3.35044","27.912","1.664","7.46","1.219","3.524","0.25","0.17","29.7614","4.69275","18.1","0","SATNPRO1962","23.762","0.33282","5"],
    [31629,"HCEP03730560","2024-08-22 18:15:00","10.7031","3.35078","27.971","1.707","7.46","1.354","3.608","0.33","0.32","29.7606","4.69256","18.57","0","SATNPRO1962","23.66","0.33142","5"],
    [31630,"HCEP03730560","2024-08-22 18:30:00","10.6939","3.34997","28.015","1.685","7.45","1.515","4.156","0.38","0.38","29.7601","4.69263","18.33","0","SATNPRO1962","23.46","0.32864","5"],
    [31631,"HCEP03730560","2024-08-22 18:45:00","10.6979","3.35026","28.047","1.625","7.45","1.336","3.803","0.22","0.3","29.7597","4.69252","17.67","0","SATNPRO1962","23.622","0.3309","5"],
    [31632,"HCEP03730560","2024-08-22 19:00:00","10.7909","3.35526","28.005","1.977","7.49","0.717","1.886","0.2","0.21","29.7332","4.6873","21.55","0","SATNPRO1962","25.186","0.35276","5"],
    [31633,"HCEP03730560","2024-08-22 19:15:00","10.8419","3.35708","27.971","2.402","7.51","0.805","1.801","0.17","0.1","29.7097","4.68317","26.21","0","SATNPRO1962","24.355999999999998","0.34114","5"],
    [31634,"HCEP03730560","2024-08-22 19:30:00","10.8176","3.35579","27.937","2.472","7.51","0.654","1.525","0.12","0.1","29.7169","4.68456","26.96","0","SATNPRO1962","24.612","0.34476","5"],
    [31635,"HCEP03730560","2024-08-22 19:45:00","10.7346","3.35233","27.87","2.263","7.49","0.926","2.796","0.27","0.12","29.7503","4.69059","24.64","0","SATNPRO1962","24.652","0.34532","5"],
    [31636,"HCEP03730560","2024-08-22 20:00:00","10.7725","3.35418","27.763","2.188","7.5","0.531","2.059","0.17","0.32","29.7377","4.68821","23.84","0","SATNPRO1962","25.02","0.35048","5"],
    [31637,"HCEP03730560","2024-08-22 20:15:00","10.7287","3.35203","27.652","2.133","7.49","0.851","2.428","0.17","0.09","29.7522","4.69095","23.22","0","SATNPRO1962","24.398","0.34174","5"],
    [31638,"HCEP03730560","2024-08-22 20:30:00","10.7117","3.35118","27.541","1.901","7.48","0.879","3.312","0.19","0.31","29.7577","4.69199","20.69","0","SATNPRO1962","23.964","0.3357","5"],
    [31639,"HCEP03730560","2024-08-22 20:45:00","10.7114","3.35124","27.415","1.796","7.47","0.836","3.017","0.16","0.1","29.7586","4.69212","19.54","0","SATNPRO1962","23.938","0.33526","5"],
    [31640,"HCEP03730560","2024-08-22 21:00:00","10.707","3.35097","27.263","1.774","7.47","0.708","2.982","0.13","0.09","29.7596","4.69231","19.3","0","SATNPRO1962","24.072","0.33716","5"],
    [31641,"HCEP03730560","2024-08-22 21:15:00","10.704","3.35077","27.112","1.754","7.47","0.808","2.96","0.36","0.19","29.7601","4.69243","19.09","0","SATNPRO1962","23.887999999999998","0.33458","5"],
    [31642,"HCEP03730560","2024-08-22 21:30:00","10.6992","3.35043","26.975","1.734","7.46","0.741","3.051","0.24","0.09","29.7608","4.69259","18.87","0","SATNPRO1962","23.866","0.33426","5"],
    [31643,"HCEP03730560","2024-08-22 21:45:00","10.6987","3.35046","26.821","1.71","7.46","0.89","3.02","0.25","0.15","29.7615","4.69269","18.61","0","SATNPRO1962","24.291999999999998","0.34024","5"],
    [31644,"HCEP03730560","2024-08-22 22:00:00","10.6807","3.34916","26.66","1.649","7.45","0.934","3.614","0.12","0.14","29.7634","4.69324","17.94","0","SATNPRO1962","23.64","0.33112","5"],
    [31645,"HCEP03730560","2024-08-22 22:15:00","10.6786","3.34901","26.497","1.536","7.45","1.079","3.966","0.14","0.16","29.7637","4.69331","16.71","0","SATNPRO1962","23.16","0.32444","5"],
    [31646,"HCEP03730560","2024-08-22 22:30:00","10.6781","3.34879","26.295","1.475","7.44","1.187","4.251","0.22","0.14","29.762","4.69306","16.04","0","SATNPRO1962","22.972","0.32176","5"],
    [31647,"HCEP03730560","2024-08-22 22:45:00","10.6811","3.34889","26.074","1.433","7.44","1.134","4.206","0.18","0.22","29.7607","4.69281","15.59","0","SATNPRO1962","22.908","0.32086","5"],
    [31648,"HCEP03730560","2024-08-22 23:00:00","10.6879","3.34932","25.868","1.457","7.44","1.106","3.86","0.33","0.27","29.7594","4.69251","15.84","0","SATNPRO1962","23.054000000000002","0.32292","5"],
    [31649,"HCEP03730560","2024-08-22 23:15:00","10.6932","3.34955","25.678","1.533","7.44","1.093","4.108","0.16","0.29","29.7574","4.69213","16.67","0","SATNPRO1962","23.284","0.32614","5"],
    [31650,"HCEP03730560","2024-08-22 23:30:00","10.6953","3.34967","25.468","1.527","7.44","1.102","4.063","0.22","0.27","29.757","4.69202","16.62","0","SATNPRO1962","23.252","0.32562","5"],
    [31651,"HCEP03730560","2024-08-22 23:45:00","10.6942","3.34944","25.285","1.541","7.44","1.005","4.046","0.11","0.18","29.7558","4.69186","16.77","0","SATNPRO1962","23.384","0.32754","5"],
    [31652,"HCEP03730560","2024-08-23 00:00:00","10.6954","3.3494","25.128","1.561","7.45","0.856","3.631","0.16","0.23","29.7544","4.69164","16.98","0","SATNPRO1962","23.274","0.326","5"],
    [31653,"HCEP03730560","2024-08-23 00:15:00","10.6943","3.34924","25.081","1.562","7.44","0.802","3.354","0.09","0.13","29.7538","4.69157","16.99","0","SATNPRO1962","23.352","0.32708","5"],
    [31654,"HCEP03730560","2024-08-23 00:30:00","10.6935","3.34914","24.969","1.556","7.44","0.85","3.453","0.12","0.13","29.7534","4.69152","16.93","0","SATNPRO1962","23.268","0.3259","5"],
    [31655,"HCEP03730560","2024-08-23 00:45:00","10.6959","3.34907","24.92","1.547","7.44","0.813","3.283","0.1","0.09","29.7509","4.69112","16.83","0","SATNPRO1962","23.28","0.32604","5"],
    [31656,"HCEP03730560","2024-08-23 01:00:00","10.6925","3.34894","24.92","1.544","7.44","0.78","3.291","0.14","0.12","29.7523","4.69138","16.8","0","SATNPRO1962","23.182","0.32472","5"],
    [31657,"HCEP03730560","2024-08-23 01:15:00","10.6942","3.34894","24.883","1.521","7.44","0.775","3.242","0.17","0.21","29.7509","4.69115","16.55","0","SATNPRO1962","23.386","0.32756","5"],
    [31658,"HCEP03730560","2024-08-23 01:30:00","10.6917","3.34883","24.938","1.512","7.44","0.695","3.329","0.11","0.17","29.7519","4.69133","16.45","0","SATNPRO1962","23.246","0.32558","5"],
    [31659,"HCEP03730560","2024-08-23 01:45:00","10.6863","3.34856","25.015","1.489","7.44","0.77","3.174","0.22","0.11","29.7536","4.69166","16.2","0","SATNPRO1962","23.096","0.3235","5"],
    [31660,"HCEP03730560","2024-08-23 02:00:00","10.6795","3.34842","25.064","1.451","7.44","0.931","3.939","0.13","0.16","29.7577","4.69235","15.78","0","SATNPRO1962","22.79","0.31918","5"],
    [31661,"HCEP03730560","2024-08-23 02:15:00","10.6824","3.3488","25.223","1.406","7.43","0.955","3.854","0.19","0.16","29.7591","4.69251","15.29","0","SATNPRO1962","22.824","0.31972","5"],
    [31662,"HCEP03730560","2024-08-23 02:30:00","10.6876","3.34924","25.248","1.433","7.44","0.937","4.06","0.15","0.16","29.7592","4.69245","15.59","0","SATNPRO1962","22.948","0.3214","5"],
    [31663,"HCEP03730560","2024-08-23 02:45:00","10.6874","3.34936","25.417","1.429","7.44","1.021","4.097","0.13","0.22","29.7605","4.69264","15.55","0","SATNPRO1962","22.886","0.32056","5"],
    [31664,"HCEP03730560","2024-08-23 03:00:00","10.6862","3.3494","25.42","1.448","7.44","1.093","4.385","0.23","1.06","29.7618","4.69285","15.75","0","SATNPRO1962","23.184","0.32476","5"],
    [31665,"HCEP03730560","2024-08-23 03:15:00","10.6884","3.3496","25.496","1.482","7.44","1.054","4.058","0.12","0.21","29.7619","4.69284","16.12","0","SATNPRO1962","23.14","0.32416","5"],
    [31666,"HCEP03730560","2024-08-23 03:30:00","10.6871","3.34979","25.772","1.509","7.44","1.136","4.152","0.15","0.24","29.7647","4.69327","16.41","0","SATNPRO1962","23.264","0.32584","5"],
    [31667,"HCEP03730560","2024-08-23 03:45:00","10.6901","3.34996","25.788","1.541","7.44","1.11","4.032","0.23","0.39","29.764","4.69313","16.77","0","SATNPRO1962","23.296","0.32628","5"],
    [31668,"HCEP03730560","2024-08-23 04:00:00","10.7024","3.35072","25.998","1.585","7.45","1.076","4.097","0.16","0.23","29.7614","4.69257","17.24","0","SATNPRO1962","23.253999999999998","0.3257","5"],
    [31669,"HCEP03730560","2024-08-23 04:15:00","10.7059","3.35093","26.104","1.605","7.45","1.162","4.354","0.13","0.28","29.7606","4.69241","17.47","0","SATNPRO1962","23.134","0.32404","5"],
    [31670,"HCEP03730560","2024-08-23 04:30:00","10.7118","3.35141","26.259","1.627","7.45","1.178","4.333","0.28","0.32","29.7605","4.69231","17.7","0","SATNPRO1962","23.311999999999998","0.32652","5"],
    [31671,"HCEP03730560","2024-08-23 04:45:00","10.7191","3.35217","26.392","1.685","7.46","1.125","4.123","0.18","0.25","29.7618","4.6924","18.34","0","SATNPRO1962","23.366","0.32728","5"],
    [31672,"HCEP03730560","2024-08-23 05:00:00","10.7182","3.35226","26.539","1.753","7.46","1.223","4.476","0.12","0.35","29.7635","4.69266","19.08","0","SATNPRO1962","23.468","0.3287","5"],
    [31673,"HCEP03730560","2024-08-23 05:15:00","10.7276","3.35286","26.678","1.828","7.47","1.371","4.471","0.26","1.05","29.7617","4.69225","19.9","0","SATNPRO1962","23.864","0.33422","5"],
    [31674,"HCEP03730560","2024-08-23 05:30:00","10.7371","3.35327","26.827","1.926","7.48","1.327","4.269","0.15","0.47","29.758","4.69159","20.97","0","SATNPRO1962","24.099999999999998","0.33752","5"],
    [31675,"HCEP03730560","2024-08-23 05:45:00","10.7433","3.35364","27.034","2.011","7.48","1.436","4.006","0.36","0.43","29.7565","4.69129","21.9","0","SATNPRO1962","24.116","0.3378","5"],
    [31676,"HCEP03730560","2024-08-23 06:00:00","10.7427","3.35369","27.21","2.053","7.48","1.532","3.986","0.38","0.48","29.7573","4.69143","22.35","0","SATNPRO1962","24.126","0.33794","5"],
    [31677,"HCEP03730560","2024-08-23 06:15:00","10.7415","3.35365","27.322","2.064","7.49","1.314","3.545","0.2","0.19","29.7579","4.69154","22.48","0","SATNPRO1962","24.434","0.3422","5"],
    [31678,"HCEP03730560","2024-08-23 06:30:00","10.7379","3.35351","27.473","2.063","7.49","1.435","3.773","0.45","0.57","29.7594","4.69181","22.46","0","SATNPRO1962","24.32","0.34066","5"],
    [31679,"HCEP03730560","2024-08-23 06:45:00","10.7327","3.3532","27.539","2.023","7.48","1.326","4.212","0.3","0.92","29.7605","4.69205","22.02","0","SATNPRO1962","24.124","0.3379","5"],
    [31680,"HCEP03730560","2024-08-23 07:00:00","10.7256","3.35285","27.554","1.947","7.48","1.329","4.321","0.23","0.37","29.7628","4.6925","21.19","0","SATNPRO1962","23.76","0.33276","5"],
    [31681,"HCEP03730560","2024-08-23 07:15:00","10.7149","3.35214","27.467","1.844","7.47","1.446","4.417","0.3","0.24","29.7645","4.69291","20.07","0","SATNPRO1962","23.502","0.32922","5"],
    [31682,"HCEP03730560","2024-08-23 07:30:00","10.7122","3.35201","27.43","1.751","7.46","1.662","4.689","1.9","1.69","29.7655","4.69308","19.05","0","SATNPRO1962","23.398","0.32776","5"],
    [31683,"HCEP03730560","2024-08-23 07:45:00","10.7111","3.35161","27.312","1.708","7.46","1.201","4.179","0.18","0.41","29.7625","4.69267","18.59","0","SATNPRO1962","23.23","0.32536","5"],
    [31684,"HCEP03730560","2024-08-23 08:00:00","10.7045","3.35109","27.264","1.643","7.45","1.301","4.564","0.26","0.37","29.7628","4.6928","17.88","0","SATNPRO1962","23.228","0.32536","5"],
    [31685,"HCEP03730560","2024-08-23 08:15:00","10.7021","3.35083","27.18","1.583","7.45","1.428","5.654","0.21","2.37","29.7623","4.69277","17.23","0","SATNPRO1962","23.22","0.32526","5"],
    [31686,"HCEP03730560","2024-08-23 08:30:00","10.7094","3.35118","27.069","1.588","7.45","1.186","6.396","0.22","3","29.7598","4.69229","17.28","0","SATNPRO1962","23.108","0.32366","5"],
    [31687,"HCEP03730560","2024-08-23 08:45:00","10.7133","3.35135","26.955","1.621","7.45","1.2","8.876","0.23","6.85","29.7584","4.69202","17.64","0","SATNPRO1962","23.274","0.32602","5"],
    [31688,"HCEP03730560","2024-08-23 09:00:00","10.7169","3.35153","26.881","1.624","7.45","1.352","13.205","0.18","2.62","29.7571","4.69179","17.68","0","SATNPRO1962","23.214000000000002","0.32512","5"],
    [31689,"HCEP03730560","2024-08-23 09:15:00","10.7234","3.35186","26.742","1.648","7.45","1.3","9.683","0.2","3.3","29.7552","4.6914","17.94","0","SATNPRO1962","23.29","0.32622","5"],
    [31690,"HCEP03730560","2024-08-23 09:30:00","10.7235","3.3518","26.597","1.671","7.45","1.081","5.111","0.19","1.39","29.7546","4.69131","18.19","0","SATNPRO1962","23.302","0.3264","5"],
    [31691,"HCEP03730560","2024-08-23 09:45:00","10.7224","3.35177","26.478","1.666","7.45","1.154","3.913","0.21","0.41","29.7553","4.69142","18.14","0","SATNPRO1962","23.18","0.32468","5"],
    [31692,"HCEP03730560","2024-08-23 10:00:00","10.7153","3.35138","26.349","1.639","7.45","1.085","3.828","0.33","0.18","29.7573","4.6918","17.84","0","SATNPRO1962","23.172","0.32458","5"],
    [31693,"HCEP03730560","2024-08-23 10:15:00","10.722","3.35169","26.214","1.626","7.45","1.005","3.602","0.15","0.14","29.7549","4.69136","17.7","0","SATNPRO1962","23.156","0.32434","5"],
    [31694,"HCEP03730560","2024-08-23 10:30:00","10.7282","3.35199","26.075","1.642","7.45","0.947","3.706","0.15","0.12","29.7528","4.69095","17.88","0","SATNPRO1962","23.154","0.3243","5"],
    [31695,"HCEP03730560","2024-08-23 10:45:00","10.7304","3.35203","25.954","1.647","7.45","1.034","3.808","0.15","0.13","29.7515","4.69073","17.94","0","SATNPRO1962","23.11","0.3237","5"],
    [31696,"HCEP03730560","2024-08-23 11:00:00","10.7372","3.35223","25.782","1.645","7.45","1.031","3.716","0.15","0.13","29.748","4.69011","17.91","0","SATNPRO1962","23.094","0.32346","5"],
    [31697,"HCEP03730560","2024-08-23 11:15:00","10.7323","3.35209","25.619","1.638","7.45","1.026","3.894","0.14","0.2","29.7507","4.69056","17.83","0","SATNPRO1962","23.076","0.32318","5"],
    [31698,"HCEP03730560","2024-08-23 11:30:00","10.7316","3.35207","25.465","1.633","7.45","1.05","3.769","0.15","0.12","29.7511","4.69063","17.78","0","SATNPRO1962","23.074","0.32324","5"],
    [31699,"HCEP03730560","2024-08-23 11:45:00","10.734","3.35221","25.329","1.641","7.45","1.022","3.786","0.18","0.16","29.7506","4.69051","17.86","0","SATNPRO1962","23.062","0.323","5"],
    [31700,"HCEP03730560","2024-08-23 12:00:00","10.7414","3.35246","25.214","1.648","7.45","0.972","3.608","0.19","0.3","29.7471","4.68988","17.95","0","SATNPRO1962","23.04","0.3227","5"],
    [31701,"HCEP03730560","2024-08-23 12:15:00","10.7331","3.35207","25.097","1.639","7.45","0.931","3.443","0.14","0.11","29.75","4.69042","17.85","0","SATNPRO1962","23.1","0.32358","5"],
    [31702,"HCEP03730560","2024-08-23 12:30:00","10.6979","3.35057","25.008","1.585","7.45","0.889","3.584","0.17","0.17","29.7639","4.69295","17.24","0","SATNPRO1962","23.27","0.3259","5"],
    [31703,"HCEP03730560","2024-08-23 12:45:00","10.6986","3.3507","24.969","1.516","7.45","0.972","3.619","0.17","0.14","29.7647","4.69304","16.49","0","SATNPRO1962","23.41","0.3279","5"],
    [31704,"HCEP03730560","2024-08-23 13:00:00","10.6949","3.35043","24.964","1.523","7.44","1.011","4.278","0.17","0.47","29.7651","4.69316","16.57","0","SATNPRO1962","22.701999999999998","0.318","5"],
    [31705,"HCEP03730560","2024-08-23 13:15:00","10.6906","3.35048","24.986","1.485","7.44","0.975","4.549","0.13","1.17","29.769","4.69378","16.15","0","SATNPRO1962","22.912","0.32094","5"],
    [31706,"HCEP03730560","2024-08-23 13:30:00","10.6899","3.3506","25.024","1.517","7.44","0.847","3.917","0.09","0.18","29.7707","4.69404","16.5","0","SATNPRO1962","23.032","0.32262","5"],
    [31707,"HCEP03730560","2024-08-23 13:45:00","10.6917","3.35054","25.081","1.525","7.44","0.963","3.902","0.23","0.12","29.7686","4.69371","16.59","0","SATNPRO1962","23.028","0.32254","5"],
    [31708,"HCEP03730560","2024-08-23 14:00:00","10.6947","3.3505","25.211","1.503","7.44","0.936","3.84","0.21","0.17","29.7658","4.69327","16.36","0","SATNPRO1962","22.81","0.31948","5"],
    [31709,"HCEP03730560","2024-08-23 14:15:00","10.6985","3.35057","25.312","1.472","7.44","0.917","3.817","0.14","0.27","29.7633","4.69287","16.02","0","SATNPRO1962","22.824","0.31972","5"],
    [31710,"HCEP03730560","2024-08-23 14:30:00","10.7404","3.35235","25.443","1.514","7.44","0.852","3.778","0.22","0.18","29.7467","4.68986","16.49","0","SATNPRO1962","22.796","0.3193","5"],
    [31711,"HCEP03730560","2024-08-23 14:45:00","10.7512","3.3528","25.582","1.573","7.45","1.044","3.864","0.2","0.28","29.7423","4.68907","17.13","0","SATNPRO1962","22.642","0.31714","5"],
    [31712,"HCEP03730560","2024-08-23 15:00:00","10.7422","3.35232","25.719","1.58","7.45","0.965","3.846","0.22","0.38","29.7449","4.68959","17.2","0","SATNPRO1962","22.538","0.3157","5"],
    [31713,"HCEP03730560","2024-08-23 15:15:00","10.7544","3.35342","25.845","1.569","7.45","1.057","4.179","0.2","0.38","29.7458","4.68953","17.09","0","SATNPRO1962","22.632","0.31704","5"],
    [31714,"HCEP03730560","2024-08-23 15:30:00","10.7302","3.35233","26.102","1.656","7.45","1.186","4.408","0.18","0.19","29.7546","4.69118","18.03","0","SATNPRO1962","22.656","0.3173","5"],
    [31715,"HCEP03730560","2024-08-23 15:45:00","10.6963","3.35092","26.291","1.537","7.44","0.865","4.157","0.09","0.34","29.7682","4.69366","16.72","0","SATNPRO1962","22.616","0.3168","5"],
    [31716,"HCEP03730560","2024-08-23 16:00:00","10.6876","3.35058","26.498","1.481","7.44","0.835","4.127","0.17","0.36","29.7718","4.69432","16.11","0","SATNPRO1962","22.946","0.3214","5"],
    [31717,"HCEP03730560","2024-08-23 16:15:00","10.6838","3.35065","26.646","1.475","7.44","1.04","4.363","0.22","0.31","29.7756","4.69492","16.05","0","SATNPRO1962","22.636","0.31704","5"],
    [31718,"HCEP03730560","2024-08-23 16:30:00","10.6823","3.35059","26.725","1.458","7.44","0.959","4.299","0.13","0.26","29.7762","4.69504","15.86","0","SATNPRO1962","22.986","0.32196","5"],
    [31719,"HCEP03730560","2024-08-23 16:45:00","10.685","3.35075","26.87","1.476","7.44","0.754","3.779","0.16","0.43","29.7755","4.69491","16.06","0","SATNPRO1962","23.344","0.32698","5"],
    [31720,"HCEP03730560","2024-08-23 17:00:00","10.6898","3.35122","27.056","1.553","7.45","0.81","3.757","0.18","0.2","29.7761","4.69493","16.9","0","SATNPRO1962","23.21","0.3251","5"],
    [31721,"HCEP03730560","2024-08-23 17:15:00","10.6901","3.35129","27.225","1.582","7.45","0.816","3.571","0.17","0.13","29.7765","4.69498","17.21","0","SATNPRO1962","23.498","0.32912","5"],
    [31722,"HCEP03730560","2024-08-23 17:30:00","10.6954","3.35162","27.397","1.588","7.45","0.866","3.754","0.1","0.15","29.7754","4.69475","17.27","0","SATNPRO1962","23.448","0.32842","5"],
    [31723,"HCEP03730560","2024-08-23 17:45:00","10.6966","3.35177","27.546","1.614","7.45","0.899","3.717","0.17","0.2","29.7758","4.6948","17.57","0","SATNPRO1962","23.44","0.32826","5"],
    [31724,"HCEP03730560","2024-08-23 18:00:00","10.7034","3.35211","27.674","1.631","7.45","1.027","4.03","0.29","0.5","29.7736","4.69439","17.75","0","SATNPRO1962","23.42","0.32804","5"],
    [31725,"HCEP03730560","2024-08-23 18:15:00","10.7158","3.35294","27.792","1.691","7.46","1.032","3.851","0.11","0.23","29.7716","4.69391","18.41","0","SATNPRO1962","23.612","0.33074","5"],
    [31726,"HCEP03730560","2024-08-23 18:30:00","10.7272","3.3534","27.887","1.811","7.47","1.023","3.592","0.18","0.31","29.7668","4.69306","19.72","0","SATNPRO1962","24.04","0.33672","5"],
    [31727,"HCEP03730560","2024-08-23 18:45:00","10.7312","3.35364","27.964","1.885","7.47","1.282","3.979","0.22","0.42","29.7659","4.69287","20.52","0","SATNPRO1962","23.964","0.33566","5"],
    [31728,"HCEP03730560","2024-08-23 19:00:00","10.738","3.35392","28.004","1.907","7.47","1.078","3.984","0.21","0.35","29.7631","4.69238","20.77","0","SATNPRO1962","23.992","0.33606","5"],
    [31729,"HCEP03730560","2024-08-23 19:15:00","10.734","3.35382","28.026","1.929","7.48","1.197","4.193","0.43","1.1","29.7654","4.69276","21","0","SATNPRO1962","23.954","0.33552","5"],
    [31730,"HCEP03730560","2024-08-23 19:30:00","10.7276","3.35364","28.013","1.925","7.48","1.042","3.477","0.2","0.26","29.7688","4.69335","20.96","0","SATNPRO1962","24.1","0.33758","5"],
    [31731,"HCEP03730560","2024-08-23 19:45:00","10.7239","3.35343","27.98","1.92","7.48","0.928","3.245","0.15","0.18","29.7697","4.69354","20.9","0","SATNPRO1962","24.152","0.3383","5"],
    [31732,"HCEP03730560","2024-08-23 20:00:00","10.7234","3.35346","27.925","1.9","7.48","0.952","3.382","0.2","0.2","29.7705","4.69365","20.68","0","SATNPRO1962","24.012","0.33636","5"],
    [31733,"HCEP03730560","2024-08-23 20:15:00","10.7231","3.35335","27.858","1.885","7.47","0.841","3.282","0.13","0.2","29.7697","4.69353","20.52","0","SATNPRO1962","24.016000000000002","0.33636","5"],
    [31734,"HCEP03730560","2024-08-23 20:30:00","10.7235","3.35336","27.768","1.885","7.47","0.829","3.407","0.13","0.24","29.7694","4.69349","20.52","0","SATNPRO1962","23.944","0.33538","5"],
    [31735,"HCEP03730560","2024-08-23 20:45:00","10.7241","3.35336","27.674","1.865","7.47","0.899","3.475","0.28","0.49","29.769","4.69341","20.3","0","SATNPRO1962","23.758","0.33278","5"],
    [31736,"HCEP03730560","2024-08-23 21:00:00","10.7244","3.35337","27.568","1.873","7.47","0.763","3.271","0.12","0.37","29.7689","4.69339","20.4","0","SATNPRO1962","24.01","0.3363","5"],
    [31737,"HCEP03730560","2024-08-23 21:15:00","10.7246","3.35335","27.441","1.883","7.47","0.737","3.009","0.15","0.17","29.7687","4.69334","20.5","0","SATNPRO1962","24.006","0.33624","5"],
    [31738,"HCEP03730560","2024-08-23 21:30:00","10.7252","3.35327","27.302","1.887","7.47","0.749","3.162","0.26","0.26","29.7674","4.69314","20.54","0","SATNPRO1962","23.95","0.33546","5"],
    [31739,"HCEP03730560","2024-08-23 21:45:00","10.7241","3.3533","27.187","1.914","7.48","0.651","2.996","0.1","0.2","29.7687","4.69334","20.84","0","SATNPRO1962","24.388","0.34162","5"],
    [31740,"HCEP03730560","2024-08-23 22:00:00","10.7193","3.35306","27.043","1.968","7.48","0.631","3.176","0.11","0.16","29.7702","4.69362","21.43","0","SATNPRO1962","24.462","0.34266","5"],
    [31741,"HCEP03730560","2024-08-23 22:15:00","10.7331","3.35371","26.832","1.967","7.48","0.647","2.937","0.16","0.16","29.7656","4.69273","21.42","0","SATNPRO1962","24.726","0.34632","5"],
    [31742,"HCEP03730560","2024-08-23 22:30:00","10.7241","3.35347","26.65","2.018","7.48","0.74","3.66","0.1","0.3","29.7705","4.69357","21.97","0","SATNPRO1962","24.396","0.3417","5"],
    [31743,"HCEP03730560","2024-08-23 22:45:00","10.7145","3.35236","26.454","1.86","7.47","0.814","3.703","0.2","0.14","29.7675","4.69327","20.25","0","SATNPRO1962","23.215999999999998","0.32518","5"],
    [31744,"HCEP03730560","2024-08-23 23:00:00","10.7114","3.3518","26.24","1.656","7.46","0.726","3.862","0.11","0.12","29.7645","4.69289","18.03","0","SATNPRO1962","23.218","0.3252","5"],
    [31745,"HCEP03730560","2024-08-23 23:15:00","10.725","3.35234","26.026","1.653","7.46","0.708","3.636","0.12","0.64","29.7589","4.69187","18","0","SATNPRO1962","23.596","0.3305","5"],
    [31746,"HCEP03730560","2024-08-23 23:30:00","10.721","3.35233","25.819","1.732","7.46","0.697","3.379","0.17","0.23","29.7621","4.69237","18.85","0","SATNPRO1962","23.884","0.33454","5"],
    [31747,"HCEP03730560","2024-08-23 23:45:00","10.7196","3.35222","25.588","1.704","7.46","0.758","3.608","0.21","0.19","29.7623","4.69241","18.55","0","SATNPRO1962","23.44","0.32832","5"],
    [31748,"HCEP03730560","2024-08-24 00:00:00","10.7514","3.35352","25.379","1.793","7.47","0.521","2.91","0.07","0.12","29.7493","4.69005","19.53","0","SATNPRO1962","24.052","0.3369","5"],
    [31749,"HCEP03730560","2024-08-24 00:15:00","10.7626","3.35384","25.177","1.999","7.48","0.587","2.945","0.1","0.16","29.7434","4.68903","21.78","0","SATNPRO1962","24.112","0.3377","5"],
    [31750,"HCEP03730560","2024-08-24 00:30:00","10.7302","3.35236","25.006","1.891","7.47","0.725","3.822","0.12","0.22","29.7553","4.69122","20.59","0","SATNPRO1962","23.12","0.32382","5"],
    [31751,"HCEP03730560","2024-08-24 00:45:00","10.7236","3.35197","24.827","1.652","7.46","0.81","4.077","0.21","0.4","29.7569","4.69154","17.99","0","SATNPRO1962","22.878","0.32042","5"],
    [31752,"HCEP03730560","2024-08-24 01:00:00","10.7122","3.35141","24.749","1.551","7.45","0.82","4.247","0.25","0.26","29.7607","4.69225","16.89","0","SATNPRO1962","22.822","0.31968","5"],
    [31753,"HCEP03730560","2024-08-24 01:15:00","10.7068","3.35113","24.707","1.486","7.44","0.73","4.057","0.06","0.11","29.7623","4.69256","16.17","0","SATNPRO1962","22.742","0.31856","5"],
    [31754,"HCEP03730560","2024-08-24 01:30:00","10.7041","3.35101","24.654","1.458","7.44","0.731","4.285","0.08","0.63","29.7634","4.69276","15.86","0","SATNPRO1962","22.836","0.31984","5"],
    [31755,"HCEP03730560","2024-08-24 01:45:00","10.7026","3.35092","24.632","1.443","7.44","0.761","3.99","0.08","0.09","29.7637","4.69283","15.71","0","SATNPRO1962","22.714","0.31812","5"],
    [31756,"HCEP03730560","2024-08-24 02:00:00","10.6994","3.35077","24.648","1.426","7.44","0.675","3.896","0.1","0.18","29.7648","4.69303","15.51","0","SATNPRO1962","22.637999999999998","0.31708","5"],
    [31757,"HCEP03730560","2024-08-24 02:15:00","10.6994","3.35071","24.659","1.417","7.43","0.753","3.841","0.12","0.24","29.7642","4.69295","15.42","0","SATNPRO1962","22.492","0.315","5"],
    [31758,"HCEP03730560","2024-08-24 02:30:00","10.7119","3.35135","24.63","1.426","7.44","0.672","3.849","0.11","0.11","29.7604","4.6922","15.52","0","SATNPRO1962","22.830000000000002","0.31976","5"],
    [31759,"HCEP03730560","2024-08-24 02:45:00","10.7061","3.35101","24.784","1.436","7.43","0.788","3.992","0.2","0.14","29.7617","4.69249","15.63","0","SATNPRO1962","22.482","0.31488","5"],
    [31760,"HCEP03730560","2024-08-24 03:00:00","10.7086","3.35112","24.843","1.427","7.43","0.69","3.914","0.11","0.09","29.7608","4.69232","15.53","0","SATNPRO1962","22.692","0.31778","5"],
    [31761,"HCEP03730560","2024-08-24 03:15:00","10.7116","3.35144","24.92","1.441","7.44","0.677","3.721","0.1","0.07","29.7614","4.69236","15.69","0","SATNPRO1962","22.8","0.31938","5"],
    [31762,"HCEP03730560","2024-08-24 03:30:00","10.7082","3.35118","25.009","1.462","7.44","0.62","3.786","0.1","0.1","29.7615","4.69244","15.91","0","SATNPRO1962","22.866","0.32026","5"],
    [31763,"HCEP03730560","2024-08-24 03:45:00","10.7163","3.35169","25.102","1.477","7.44","0.606","3.74","0.05","0.09","29.7599","4.6921","16.07","0","SATNPRO1962","22.742","0.31852","5"],
    [31764,"HCEP03730560","2024-08-24 04:00:00","10.6999","3.35089","25.236","1.473","7.44","0.608","3.732","0.08","0.13","29.7653","4.69313","16.03","0","SATNPRO1962","22.618","0.3168","5"],
    [31765,"HCEP03730560","2024-08-24 04:15:00","10.7007","3.35087","25.355","1.425","7.43","0.671","3.997","0.06","0.1","29.7645","4.69301","15.5","0","SATNPRO1962","22.58","0.31628","5"],
    [31766,"HCEP03730560","2024-08-24 04:30:00","10.7035","3.35106","25.553","1.413","7.43","0.657","4.146","0.06","0.18","29.764","4.6929","15.38","0","SATNPRO1962","22.694","0.31788","5"],
    [31767,"HCEP03730560","2024-08-24 04:45:00","10.7085","3.35129","25.615","1.436","7.43","0.732","3.936","0.12","0.16","29.7621","4.69256","15.62","0","SATNPRO1962","22.658","0.3174","5"],
    [31768,"HCEP03730560","2024-08-24 05:00:00","10.7043","3.35107","25.773","1.423","7.43","0.72","4.442","0.06","0.15","29.7634","4.69281","15.49","0","SATNPRO1962","22.464000000000002","0.31466","5"],
    [31769,"HCEP03730560","2024-08-24 05:15:00","10.7065","3.35117","25.888","1.394","7.43","0.78","4.214","0.1","0.14","29.7625","4.69267","15.17","0","SATNPRO1962","22.466","0.3147","5"],
    [31770,"HCEP03730560","2024-08-24 05:30:00","10.6997","3.35086","26.038","1.376","7.43","0.751","4.34","0.1","0.1","29.7649","4.69312","14.97","0","SATNPRO1962","22.37","0.31336","5"],
    [31771,"HCEP03730560","2024-08-24 05:45:00","10.7027","3.35097","26.233","1.368","7.43","0.714","3.919","0.1","0.15","29.7634","4.69287","14.89","0","SATNPRO1962","22.574","0.31618","5"],
    [31772,"HCEP03730560","2024-08-24 06:00:00","10.6967","3.35037","26.409","1.366","7.43","0.718","4.196","0.13","0.15","29.7624","4.69283","14.86","0","SATNPRO1962","22.286","0.31212","5"],
    [31773,"HCEP03730560","2024-08-24 06:15:00","10.7006","3.35029","26.533","1.319","7.42","0.665","4.024","0.06","0.09","29.7584","4.69221","14.35","0","SATNPRO1962","22.27","0.31192","5"],
    [31774,"HCEP03730560","2024-08-24 06:30:00","10.6939","3.34958","26.685","1.274","7.42","0.69","4.292","0.09","0.21","29.7567","4.69208","13.86","0","SATNPRO1962","21.87","0.30632","5"],
    [31775,"HCEP03730560","2024-08-24 06:45:00","10.6934","3.34938","26.83","1.208","7.41","0.78","4.17","0.11","0.13","29.7552","4.69187","13.14","0","SATNPRO1962","21.732","0.3044","5"],
    [31776,"HCEP03730560","2024-08-24 07:00:00","10.6933","3.34919","26.939","1.18","7.41","0.651","3.843","0.07","0.15","29.7533","4.69162","12.84","0","SATNPRO1962","21.918","0.30698","5"],
    [31777,"HCEP03730560","2024-08-24 07:15:00","10.6918","3.34894","27.021","1.172","7.41","0.64","3.79","0.08","0.22","29.7521","4.69147","12.75","0","SATNPRO1962","21.738","0.30446","5"],
    [31778,"HCEP03730560","2024-08-24 07:30:00","10.6915","3.34879","27.145","1.139","7.41","0.605","3.853","0.08","0.14","29.7507","4.69129","12.39","0","SATNPRO1962","21.508","0.30128","5"],
    [31779,"HCEP03730560","2024-08-24 07:45:00","10.6937","3.34863","27.163","1.11","7.41","0.677","3.954","0.11","0.14","29.7475","4.69079","12.07","0","SATNPRO1962","21.490000000000002","0.30104","5"],
    [31780,"HCEP03730560","2024-08-24 08:00:00","10.6933","3.34825","27.199","1.086","7.4","0.625","4.003","0.12","0.18","29.744","4.69031","11.82","0","SATNPRO1962","21.294","0.29828","5"],
    [31781,"HCEP03730560","2024-08-24 08:15:00","10.6982","3.34827","27.16","1.047","7.4","0.62","3.847","0.09","0.14","29.7402","4.68969","11.39","0","SATNPRO1962","21.292","0.29824","5"],
    [31782,"HCEP03730560","2024-08-24 08:30:00","10.6977","3.34818","27.154","1.038","7.4","0.609","4.022","0.06","0.13","29.7398","4.68963","11.29","0","SATNPRO1962","21.286","0.2981","5"],
    [31783,"HCEP03730560","2024-08-24 08:45:00","10.6976","3.34811","27.212","1.02","7.4","0.622","3.996","0.07","0.12","29.7391","4.68955","11.09","0","SATNPRO1962","21.118","0.29578","5"],
    [31784,"HCEP03730560","2024-08-24 09:00:00","10.6999","3.34804","27.111","1.001","7.4","0.598","4.13","0.08","0.11","29.7366","4.68915","10.88","0","SATNPRO1962","20.982","0.29384","5"],
    [31785,"HCEP03730560","2024-08-24 09:15:00","10.7013","3.34793","27.077","0.974","7.39","0.566","3.868","0.06","0.12","29.7344","4.6888","10.6","0","SATNPRO1962","20.828","0.29168","5"],
    [31786,"HCEP03730560","2024-08-24 09:30:00","10.7015","3.34784","27.044","0.955","7.39","0.55","4.009","0.07","0.14","29.7333","4.68865","10.39","0","SATNPRO1962","20.854","0.2921","5"],
    [31787,"HCEP03730560","2024-08-24 09:45:00","10.6992","3.34764","26.976","0.927","7.39","0.591","4.047","0.05","0.13","29.7333","4.68868","10.08","0","SATNPRO1962","20.696","0.28984","5"],
    [31788,"HCEP03730560","2024-08-24 10:00:00","10.7009","3.34769","26.949","0.902","7.39","0.527","4.045","0.05","0.1","29.7323","4.68851","9.81","0","SATNPRO1962","20.724","0.29024","5"],
    [31789,"HCEP03730560","2024-08-24 10:15:00","10.6995","3.34752","26.821","0.893","7.39","0.593","3.988","0.08","0.13","29.7319","4.68847","9.72","0","SATNPRO1962","20.688","0.28976","5"],
    [31790,"HCEP03730560","2024-08-24 10:30:00","10.7021","3.34761","26.716","0.895","7.39","0.546","4.027","0.09","0.26","29.7308","4.68826","9.74","0","SATNPRO1962","20.774","0.29096","5"],
    [31791,"HCEP03730560","2024-08-24 10:45:00","10.7023","3.34556","26.643","0.893","7.39","0.587","3.894","0.1","0.22","29.7104","4.68536","9.72","0","SATNPRO1962","20.684","0.2897","5"],
    [31792,"HCEP03730560","2024-08-24 11:00:00","10.703","3.34741","26.574","0.881","7.39","0.522","3.952","0.07","0.08","29.7281","4.68785","9.58","0","SATNPRO1962","20.65","0.28924","5"],
    [31793,"HCEP03730560","2024-08-24 11:15:00","10.7029","3.34718","26.412","0.853","7.38","0.551","4.005","0.05","0.12","29.726","4.68755","9.28","0","SATNPRO1962","20.247999999999998","0.28358","5"],
    [31794,"HCEP03730560","2024-08-24 11:30:00","10.7029","3.3469","26.343","0.81","7.38","0.469","4.105","0.04","0.13","29.7233","4.68716","8.82","0","SATNPRO1962","19.966","0.2797","5"],
    [31795,"HCEP03730560","2024-08-24 11:45:00","10.7043","3.34692","26.197","0.782","7.38","0.527","4.087","0.09","0.2","29.7223","4.68699","8.51","0","SATNPRO1962","19.912","0.27892","5"],
    [31796,"HCEP03730560","2024-08-24 12:00:00","10.705","3.34674","26.071","0.775","7.38","0.455","4.089","0.04","0.1","29.7201","4.68666","8.43","0","SATNPRO1962","19.886","0.27854","5"],
    [31797,"HCEP03730560","2024-08-24 12:15:00","10.7072","3.34654","26.005","0.752","7.38","0.54","4.041","0.16","0.1","29.7164","4.68609","8.18","0","SATNPRO1962","19.418","0.27198","5"],
    [31798,"HCEP03730560","2024-08-24 12:30:00","10.7084","3.34663","25.877","0.723","7.38","0.523","4.255","0.06","0.16","29.7163","4.68605","7.87","0","SATNPRO1962","19.448","0.27238","5"],
    [31799,"HCEP03730560","2024-08-24 12:45:00","10.7083","3.34663","25.748","0.728","7.37","0.539","4.091","0.11","0.2","29.7164","4.68607","7.92","0","SATNPRO1962","19.138","0.26808","5"],
    [31800,"HCEP03730560","2024-08-24 13:00:00","10.7123","3.34613","25.698","0.702","7.37","0.514","4.123","0.06","0.11","29.7083","4.68485","7.63","0","SATNPRO1962","18.924","0.26506","5"],
    [31801,"HCEP03730560","2024-08-24 13:15:00","10.7168","3.34618","25.557","0.677","7.37","0.583","4.058","0.13","0.17","29.7051","4.68431","7.37","0","SATNPRO1962","18.696","0.26188","5"],
    [31802,"HCEP03730560","2024-08-24 13:30:00","10.7171","3.34642","25.517","0.684","7.37","0.499","4.132","0.06","0.27","29.7073","4.68462","7.44","0","SATNPRO1962","19.060000000000002","0.26696","5"],
    [31803,"HCEP03730560","2024-08-24 13:45:00","10.713","3.34697","25.498","0.72","7.37","2.979","43.297","1.72","17.53","29.716","4.68592","7.84","0","SATNPRO1962","19.454","0.27248","5"],
    [31804,"HCEP03730560","2024-08-24 14:00:00","10.7176","3.34733","25.525","0.756","7.38","0.518","4.173","0.1","0.15","29.7159","4.68583","8.23","0","SATNPRO1962","19.544","0.27374","5"],
    [31805,"HCEP03730560","2024-08-24 14:15:00","10.7203","3.34769","25.574","0.783","7.38","0.524","4.088","0.07","0.12","29.7171","4.68597","8.52","0","SATNPRO1962","19.637999999999998","0.27504","5"],
    [31806,"HCEP03730560","2024-08-24 14:30:00","10.7196","3.34782","25.593","0.804","7.38","0.526","4.146","0.11","0.14","29.719","4.68625","8.75","0","SATNPRO1962","19.86","0.2782","5"],
    [31807,"HCEP03730560","2024-08-24 14:45:00","10.7189","3.3479","25.662","0.81","7.38","0.546","4.013","0.07","0.08","29.7203","4.68645","8.81","0","SATNPRO1962","19.882","0.27848","5"],
    [31808,"HCEP03730560","2024-08-24 15:00:00","10.7213","3.348","25.76","0.81","7.38","0.524","4.116","0.07","0.13","29.7193","4.68627","8.81","0","SATNPRO1962","19.776","0.27698","5"],
    [31809,"HCEP03730560","2024-08-24 15:15:00","10.7196","3.34788","25.874","0.822","7.38","0.563","4.054","0.08","0.1","29.7195","4.68634","8.94","0","SATNPRO1962","19.977999999999998","0.27984","5"],
    [31810,"HCEP03730560","2024-08-24 15:30:00","10.7215","3.34801","26.007","0.812","7.38","0.575","4.135","0.08","0.1","29.7191","4.68626","8.84","0","SATNPRO1962","19.726","0.27628","5"],
    [31811,"HCEP03730560","2024-08-24 15:45:00","10.724","3.34853","26.096","0.832","7.38","0.63","4.259","0.11","0.22","29.7222","4.68667","9.05","0","SATNPRO1962","19.91","0.2789","5"],
    [31812,"HCEP03730560","2024-08-24 16:00:00","10.7315","3.34923","26.235","0.881","7.39","0.603","4.202","0.08","0.15","29.7229","4.68666","9.59","0","SATNPRO1962","20.31","0.2845","5"],
    [31813,"HCEP03730560","2024-08-24 16:15:00","10.7252","3.34918","26.38","0.928","7.39","0.661","4.297","0.08","0.23","29.7275","4.68741","10.11","0","SATNPRO1962","20.368","0.2853","5"],
    [31814,"HCEP03730560","2024-08-24 16:30:00","10.7239","3.3492","26.548","0.934","7.39","0.639","4.325","0.09","0.17","29.7287","4.68762","10.17","0","SATNPRO1962","20.422","0.28604","5"],
    [31815,"HCEP03730560","2024-08-24 16:45:00","10.7274","3.34947","26.689","0.953","7.39","0.673","4.327","0.08","0.11","29.7285","4.68754","10.38","0","SATNPRO1962","20.466","0.28666","5"],
    [31816,"HCEP03730560","2024-08-24 17:00:00","10.7259","3.34946","26.784","0.969","7.39","0.717","4.497","0.18","0.11","29.7295","4.68772","10.54","0","SATNPRO1962","20.51","0.28726","5"],
    [31817,"HCEP03730560","2024-08-24 17:15:00","10.7253","3.34956","26.962","0.971","7.39","0.734","4.486","0.09","0.15","29.731","4.68794","10.56","0","SATNPRO1962","20.59","0.28838","5"],
    [31818,"HCEP03730560","2024-08-24 17:30:00","10.7291","3.35024","27.124","1.007","7.4","0.817","4.55","0.08","0.16","29.7345","4.68839","10.96","0","SATNPRO1962","20.758","0.29076","5"],
    [31819,"HCEP03730560","2024-08-24 17:45:00","10.7224","3.34955","27.242","1.049","7.4","0.704","3.983","0.09","0.18","29.7332","4.68831","11.42","0","SATNPRO1962","20.887999999999998","0.29258","5"],
    [31820,"HCEP03730560","2024-08-24 18:00:00","10.7139","3.34826","27.356","0.982","7.39","0.55","3.824","0.08","0.2","29.7273","4.68761","10.69","0","SATNPRO1962","20.470000000000002","0.28674","5"],
    [31821,"HCEP03730560","2024-08-24 18:15:00","10.7137","3.34869","27.583","0.924","7.39","0.545","3.679","0.07","0.1","29.7316","4.68824","10.06","0","SATNPRO1962","20.72","0.29022","5"],
    [31822,"HCEP03730560","2024-08-24 18:30:00","10.71","3.34865","27.731","0.936","7.39","0.521","3.841","0.05","0.37","29.7341","4.68867","10.18","0","SATNPRO1962","20.66","0.28936","5"],
    [31823,"HCEP03730560","2024-08-24 18:45:00","10.7114","3.34881","27.859","0.954","7.39","0.628","3.769","0.3","0.15","29.7345","4.68871","10.38","0","SATNPRO1962","20.84","0.29186","5"],
    [31824,"HCEP03730560","2024-08-24 19:00:00","10.7119","3.34883","27.941","0.96","7.39","0.568","3.882","0.07","0.17","29.7342","4.68867","10.45","0","SATNPRO1962","20.672","0.28952","5"],
    [31825,"HCEP03730560","2024-08-24 19:15:00","10.7137","3.34879","28.038","0.965","7.39","0.615","3.864","0.17","0.3","29.7324","4.68839","10.5","0","SATNPRO1962","20.864","0.29226","5"],
    [31826,"HCEP03730560","2024-08-24 19:30:00","10.718","3.34906","28.116","0.976","7.39","0.56","3.816","0.11","0.26","29.7315","4.6882","10.62","0","SATNPRO1962","20.882","0.29248","5"],
    [31827,"HCEP03730560","2024-08-24 19:45:00","10.7234","3.34957","28.039","1.005","7.4","0.681","3.845","0.12","0.19","29.7322","4.6882","10.94","0","SATNPRO1962","21.034","0.29462","5"],
    [31828,"HCEP03730560","2024-08-24 20:00:00","10.7396","3.35138","28.051","1.091","7.4","0.764","4.216","0.09","0.12","29.7368","4.68861","11.88","0","SATNPRO1962","21.354","0.29912","5"],
    [31829,"HCEP03730560","2024-08-24 20:15:00","10.7517","3.35249","28.005","1.217","7.41","0.865","4.213","0.22","0.25","29.7379","4.68858","13.25","0","SATNPRO1962","21.552","0.3019","5"],
    [31830,"HCEP03730560","2024-08-24 20:30:00","10.7668","3.35357","28.001","1.325","7.42","0.832","4.126","0.11","0.22","29.7363","4.68811","14.44","0","SATNPRO1962","21.688","0.30378","5"],
    [31831,"HCEP03730560","2024-08-24 20:45:00","10.7595","3.35246","27.921","1.37","7.42","0.772","3.697","0.15","0.17","29.7313","4.68751","14.92","0","SATNPRO1962","21.774","0.305","5"],
    [31832,"HCEP03730560","2024-08-24 21:00:00","10.7417","3.35063","27.79","1.275","7.42","0.604","3.586","0.11","0.23","29.7279","4.68729","13.89","0","SATNPRO1962","21.588","0.30238","5"],
    [31833,"HCEP03730560","2024-08-24 21:15:00","10.7538","3.35241","27.683","1.233","7.42","0.748","3.777","0.21","0.16","29.7355","4.68818","13.43","0","SATNPRO1962","21.432","0.3002","5"],
    [31834,"HCEP03730560","2024-08-24 21:30:00","10.7304","3.34939","27.58","1.219","7.41","0.673","3.59","0.18","0.21","29.7249","4.68703","13.27","0","SATNPRO1962","20.964","0.2936","5"],
    [31835,"HCEP03730560","2024-08-24 21:45:00","10.7502","3.35212","27.452","1.168","7.41","0.859","3.749","0.28","0.12","29.7357","4.68825","12.72","0","SATNPRO1962","21.616","0.30274","5"],
    [31836,"HCEP03730560","2024-08-24 22:00:00","10.7513","3.35227","27.304","1.262","7.42","0.728","3.854","0.15","0.13","29.7364","4.68832","13.75","0","SATNPRO1962","21.614","0.30276","5"],
    [31837,"HCEP03730560","2024-08-24 22:15:00","10.7557","3.35291","27.145","1.315","7.42","0.826","4.118","0.14","0.28","29.7391","4.68864","14.32","0","SATNPRO1962","21.696","0.30392","5"],
    [31838,"HCEP03730560","2024-08-24 22:30:00","10.7539","3.35281","26.985","1.349","7.42","0.753","3.981","0.13","0.23","29.7397","4.68874","14.69","0","SATNPRO1962","21.564","0.30198","5"],
    [31839,"HCEP03730560","2024-08-24 22:45:00","10.7518","3.3526","26.806","1.353","7.43","0.76","4.274","0.17","0.6","29.7394","4.68872","14.73","0","SATNPRO1962","21.592","0.30244","5"],
    [31840,"HCEP03730560","2024-08-24 23:00:00","10.7481","3.35234","26.653","1.332","7.42","0.737","4.037","0.11","0.18","29.7399","4.68883","14.51","0","SATNPRO1962","21.584","0.30234","5"],
    [31841,"HCEP03730560","2024-08-24 23:15:00","10.7513","3.35266","26.467","1.332","7.43","0.668","3.854","0.11","0.13","29.7404","4.68885","14.51","0","SATNPRO1962","21.65","0.30326","5"],
    [31842,"HCEP03730560","2024-08-24 23:30:00","10.7569","3.35319","26.264","1.368","7.43","0.938","3.998","0.69","0.15","29.7413","4.68887","14.9","0","SATNPRO1962","21.78","0.30508","5"],
    [31843,"HCEP03730560","2024-08-24 23:45:00","10.7596","3.3535","26.058","1.41","7.43","0.71","4.049","0.1","0.23","29.7422","4.68895","15.36","0","SATNPRO1962","21.878","0.30642","5"],
    [31844,"HCEP03730560","2024-08-25 00:00:00","10.7565","3.35309","25.847","1.426","7.43","0.605","3.798","0.07","0.17","29.7408","4.68878","15.53","0","SATNPRO1962","21.818","0.30564","5"],
    [31845,"HCEP03730560","2024-08-25 00:15:00","10.7528","3.35267","25.63","1.384","7.43","0.495","3.614","0.06","0.21","29.7397","4.68868","15.08","0","SATNPRO1962","21.76","0.30482","5"],
    [31846,"HCEP03730560","2024-08-25 00:30:00","10.739","3.35092","25.417","1.3","7.42","0.413","3.209","0.03","0.07","29.7338","4.68804","14.16","0","SATNPRO1962","21.512","0.30136","5"],
    [31847,"HCEP03730560","2024-08-25 00:45:00","10.7609","3.35339","25.222","1.326","7.43","0.639","3.624","0.14","0.22","29.7404","4.68862","14.45","0","SATNPRO1962","22.105999999999998","0.30964","5"],
    [31848,"HCEP03730560","2024-08-25 01:00:00","10.7444","3.351","25.018","1.337","7.42","0.426","3.247","0.11","0.19","29.7303","4.68744","14.56","0","SATNPRO1962","21.476","0.30078","5"],
    [31849,"HCEP03730560","2024-08-25 01:15:00","10.7316","3.34907","24.834","1.206","7.41","0.409","3.022","0.16","0.1","29.7219","4.68643","13.12","0","SATNPRO1962","21.27","0.29792","5"],
    [31850,"HCEP03730560","2024-08-25 01:30:00","10.7119","3.34677","24.683","1.002","7.4","0.407","2.964","0.07","0.03","29.7153","4.68578","10.9","0","SATNPRO1962","20.926","0.2931","5"],
    [31851,"HCEP03730560","2024-08-25 01:45:00","10.7037","3.34538","24.555","0.814","7.38","0.403","3.036","0.06","0.17","29.7084","4.68493","8.85","0","SATNPRO1962","19.708","0.27606","5"],
    [31852,"HCEP03730560","2024-08-25 02:00:00","10.7034","3.34537","24.461","0.721","7.38","0.478","3.12","0.36","0.4","29.7086","4.68495","7.84","0","SATNPRO1962","19.684","0.2757","5"],
    [31853,"HCEP03730560","2024-08-25 02:15:00","10.7042","3.34547","24.399","0.7","7.37","0.453","2.978","0.06","0.15","29.7089","4.68498","7.62","0","SATNPRO1962","19.684","0.27572","5"],
    [31854,"HCEP03730560","2024-08-25 02:30:00","10.7021","3.34528","24.364","0.69","7.37","0.356","2.713","0.02","0.05","29.7087","4.68499","7.51","0","SATNPRO1962","19.798000000000002","0.27734","5"],
    [31855,"HCEP03730560","2024-08-25 02:45:00","10.7025","3.34534","24.379","0.683","7.37","0.454","3.189","0.09","0.33","29.709","4.68502","7.43","0","SATNPRO1962","19.844","0.2779","5"],
    [31856,"HCEP03730560","2024-08-25 03:00:00","10.7353","3.35073","24.398","0.821","7.39","0.511","3.737","0.14","1.14","29.7353","4.68826","8.94","0","SATNPRO1962","20.904","0.2928","5"],
    [31857,"HCEP03730560","2024-08-25 03:15:00","10.7329","3.35124","24.415","1.152","7.4","0.573","3.769","0.14","0.17","29.7424","4.6893","12.54","0","SATNPRO1962","21.41","0.2999","5"],
    [31858,"HCEP03730560","2024-08-25 03:30:00","10.7487","3.3529","24.438","1.248","7.41","0.541","4.256","0.1","0.26","29.7458","4.68954","13.59","0","SATNPRO1962","21.574","0.30218","5"],
    [31859,"HCEP03730560","2024-08-25 03:45:00","10.7415","3.35205","24.498","1.315","7.42","0.617","4.255","0.08","0.14","29.7433","4.6893","14.32","0","SATNPRO1962","21.696","0.30392","5"],
    [31860,"HCEP03730560","2024-08-25 04:00:00","10.7407","3.35222","24.578","1.291","7.42","0.672","4.15","0.26","0.21","29.7456","4.68964","14.06","0","SATNPRO1962","21.672","0.30354","5"],
    [31861,"HCEP03730560","2024-08-25 04:15:00","10.735","3.35165","24.686","1.279","7.42","0.647","4.329","0.31","0.65","29.7445","4.68959","13.93","0","SATNPRO1962","21.604","0.30262","5"],
    [31862,"HCEP03730560","2024-08-25 04:30:00","10.737","3.35206","24.805","1.273","7.42","0.657","4.325","0.24","0.31","29.7468","4.68989","13.86","0","SATNPRO1962","21.746","0.30458","5"],
    [31863,"HCEP03730560","2024-08-25 04:45:00","10.74","3.35245","24.937","1.303","7.42","0.636","4.725","0.09","0.23","29.7482","4.69005","14.19","0","SATNPRO1962","21.732","0.30438","5"],
    [31864,"HCEP03730560","2024-08-25 05:00:00","10.7426","3.35284","25.054","1.34","7.42","0.638","4.602","0.15","0.28","29.75","4.69027","14.59","0","SATNPRO1962","21.856","0.30614","5"],
    [31865,"HCEP03730560","2024-08-25 05:15:00","10.7441","3.35325","25.181","1.382","7.43","0.576","4.232","0.06","0.29","29.7527","4.69064","15.05","0","SATNPRO1962","22.154","0.3103","5"],
    [31866,"HCEP03730560","2024-08-25 05:30:00","10.7464","3.3533","25.315","1.414","7.43","0.727","4.485","0.22","0.19","29.7513","4.69041","15.4","0","SATNPRO1962","21.944","0.30738","5"],
    [31867,"HCEP03730560","2024-08-25 05:45:00","10.7475","3.35334","25.453","1.413","7.43","0.646","4.595","0.14","0.45","29.7507","4.69032","15.39","0","SATNPRO1962","21.848","0.306","5"],
    [31868,"HCEP03730560","2024-08-25 06:00:00","10.7463","3.35307","25.608","1.404","7.43","0.508","4.02","0.09","0.29","29.749","4.69009","15.29","0","SATNPRO1962","21.972","0.30776","5"],
    [31869,"HCEP03730560","2024-08-25 06:15:00","10.7476","3.35292","25.771","1.376","7.43","0.558","4.833","0.07","1.5","29.7463","4.68971","14.98","0","SATNPRO1962","21.746000000000002","0.30462","5"],
    [31870,"HCEP03730560","2024-08-25 06:30:00","10.7487","3.35281","25.929","1.337","7.43","0.526","4.319","0.09","0.28","29.7443","4.68941","14.56","0","SATNPRO1962","21.642","0.30314","5"],
    [31871,"HCEP03730560","2024-08-25 06:45:00","10.7445","3.35223","26.062","1.289","7.42","0.514","4.178","0.06","0.2","29.7419","4.68915","14.04","0","SATNPRO1962","21.432","0.30018","5"],
    [31872,"HCEP03730560","2024-08-25 07:00:00","10.7404","3.35171","26.221","1.231","7.42","0.514","4.354","0.05","0.26","29.7401","4.68897","13.41","0","SATNPRO1962","21.16","0.2964","5"],
    [31873,"HCEP03730560","2024-08-25 07:15:00","10.737","3.35117","26.381","1.181","7.41","0.528","3.985","0.09","0.48","29.7375","4.68865","12.85","0","SATNPRO1962","21.036","0.29466","5"],
    [31874,"HCEP03730560","2024-08-25 07:30:00","10.7314","3.3504","26.526","1.119","7.41","0.618","3.992","0.43","0.26","29.7344","4.68831","12.18","0","SATNPRO1962","20.838","0.29186","5"],
    [31875,"HCEP03730560","2024-08-25 07:45:00","10.7319","3.35048","26.653","1.09","7.41","0.532","3.771","0.18","0.27","29.7348","4.68836","11.87","0","SATNPRO1962","20.912","0.2929","5"],
    [31876,"HCEP03730560","2024-08-25 08:00:00","10.7334","3.35069","26.783","1.101","7.41","0.527","4.038","0.15","0.7","29.7356","4.68847","11.98","0","SATNPRO1962","20.968","0.2937","5"],
    [31877,"HCEP03730560","2024-08-25 08:15:00","10.7253","3.34991","26.887","1.081","7.4","0.522","3.676","0.11","0.24","29.7344","4.68842","11.77","0","SATNPRO1962","20.637999999999998","0.28908","5"],
    [31878,"HCEP03730560","2024-08-25 08:30:00","10.7247","3.34977","26.971","1.042","7.4","0.456","3.6","0.07","0.15","29.7335","4.68831","11.34","0","SATNPRO1962","20.698","0.28992","5"],
    [31879,"HCEP03730560","2024-08-25 08:45:00","10.7202","3.34936","27.042","1.015","7.4","0.454","3.519","0.05","0.1","29.7331","4.68832","11.05","0","SATNPRO1962","20.502","0.28718","5"],
    [31880,"HCEP03730560","2024-08-25 09:00:00","10.7172","3.34932","27.087","0.988","7.4","0.461","3.718","0.05","0.17","29.7351","4.68866","10.76","0","SATNPRO1962","20.708","0.29","5"],
    [31881,"HCEP03730560","2024-08-25 09:15:00","10.7171","3.34975","27.122","1.013","7.4","0.484","3.703","0.13","0.17","29.7394","4.68928","11.03","0","SATNPRO1962","20.888","0.29258","5"],
    [31882,"HCEP03730560","2024-08-25 09:30:00","10.7177","3.35003","27.183","1.034","7.4","0.444","3.716","0.08","0.11","29.7417","4.6896","11.25","0","SATNPRO1962","20.918","0.293","5"],
    [31883,"HCEP03730560","2024-08-25 09:45:00","10.7189","3.35023","27.223","1.062","7.4","0.484","3.77","0.2","0.09","29.7427","4.68972","11.56","0","SATNPRO1962","20.892","0.29262","5"],
    [31884,"HCEP03730560","2024-08-25 10:00:00","10.7219","3.35062","27.305","1.072","7.4","0.441","3.887","0.05","0.19","29.744","4.68987","11.67","0","SATNPRO1962","20.842","0.29192","5"],
    [31885,"HCEP03730560","2024-08-25 10:15:00","10.7245","3.35091","27.278","1.086","7.4","0.488","3.85","0.09","0.12","29.7448","4.68993","11.82","0","SATNPRO1962","20.884","0.2925","5"],
    [31886,"HCEP03730560","2024-08-25 10:30:00","10.7257","3.35107","27.218","1.102","7.4","0.487","3.97","0.13","0.16","29.7454","4.69","11.99","0","SATNPRO1962","20.914","0.29294","5"],
    [31887,"HCEP03730560","2024-08-25 10:45:00","10.7293","3.35217","27.18","1.163","7.41","0.504","3.943","0.05","0.1","29.7533","4.69107","12.66","0","SATNPRO1962","21.516000000000002","0.30136","5"],
    [31888,"HCEP03730560","2024-08-25 11:00:00","10.7324","3.35292","27.14","1.325","7.42","0.588","3.967","0.21","0.26","29.7582","4.69171","14.43","0","SATNPRO1962","22.056","0.30898","5"],
    [31889,"HCEP03730560","2024-08-25 11:15:00","10.7381","3.35392","27.09","1.491","7.44","0.582","3.782","0.1","0.14","29.7634","4.69236","16.24","0","SATNPRO1962","22.616","0.31674","5"],
    [31890,"HCEP03730560","2024-08-25 11:30:00","10.7504","3.35587","27.002","1.7","7.45","0.479","3.574","0.04","0.17","29.7726","4.69348","18.52","0","SATNPRO1962","23.298000000000002","0.32632","5"],
    [31891,"HCEP03730560","2024-08-25 11:45:00","10.7527","3.35617","26.941","1.889","7.47","0.505","3.546","0.05","0.25","29.7737","4.69359","20.58","0","SATNPRO1962","23.544","0.32974","5"],
    [31892,"HCEP03730560","2024-08-25 12:00:00","10.7558","3.35673","26.919","1.945","7.47","0.51","3.546","0.11","0.19","29.7767","4.69397","21.19","0","SATNPRO1962","23.654","0.3313","5"],
    [31893,"HCEP03730560","2024-08-25 12:15:00","10.7591","3.35702","26.866","2.011","7.48","0.522","3.477","0.06","0.13","29.7769","4.69394","21.91","0","SATNPRO1962","23.856","0.33414","5"],
    [31894,"HCEP03730560","2024-08-25 12:30:00","10.7613","3.35738","26.792","2.061","7.49","0.489","3.117","0.07","0.14","29.7786","4.69415","22.46","0","SATNPRO1962","24.13","0.33798","5"],
    [31895,"HCEP03730560","2024-08-25 12:45:00","10.7636","3.35766","26.734","2.12","7.49","0.475","2.804","0.09","0.11","29.7796","4.69424","23.11","0","SATNPRO1962","24.226","0.3393","5"],
    [31896,"HCEP03730560","2024-08-25 13:00:00","10.7543","3.35588","26.664","2.049","7.48","0.451","2.811","0.1","0.33","29.7696","4.69297","22.32","0","SATNPRO1962","22.836000000000002","0.31982","5"],
    [31897,"HCEP03730560","2024-08-25 13:15:00","10.7531","3.35611","26.554","1.927","7.48","0.526","3.022","0.1","0.22","29.773","4.69346","20.99","0","SATNPRO1962","23.202","0.325","5"],
    [31898,"HCEP03730560","2024-08-25 13:30:00","10.7568","3.35651","26.479","1.948","7.48","0.446","2.923","0.07","0.25","29.7739","4.69353","21.23","0","SATNPRO1962","23.22","0.32522","5"],
    [31899,"HCEP03730560","2024-08-25 13:45:00","10.7464","3.35526","26.398","1.898","7.47","0.559","3.169","0.13","0.15","29.77","4.69314","20.68","0","SATNPRO1962","23.136","0.32408","5"],
    [31900,"HCEP03730560","2024-08-25 14:00:00","10.7474","3.35539","26.347","1.794","7.47","0.452","3.16","0.09","0.67","29.7706","4.6932","19.54","0","SATNPRO1962","23.336","0.32684","5"],
    [31901,"HCEP03730560","2024-08-25 14:15:00","10.7521","3.35596","26.302","1.833","7.47","0.504","2.868","0.11","0.2","29.7724","4.69337","19.97","0","SATNPRO1962","23.532","0.3296","5"],
    [31902,"HCEP03730560","2024-08-25 14:30:00","10.7531","3.3561","26.244","1.891","7.48","0.47","3.034","0.08","0.15","29.773","4.69344","20.6","0","SATNPRO1962","23.396","0.32768","5"],
    [31903,"HCEP03730560","2024-08-25 14:45:00","10.758","3.35698","26.242","1.946","7.48","0.49","3.147","0.13","0.22","29.7777","4.69403","21.2","0","SATNPRO1962","23.756","0.33272","5"],
    [31904,"HCEP03730560","2024-08-25 15:00:00","10.7661","3.35753","26.265","2.108","7.49","0.464","3.117","0.06","0.4","29.7764","4.69373","22.97","0","SATNPRO1962","24.29","0.3402","5"],
    [31905,"HCEP03730560","2024-08-25 15:15:00","10.7605","3.35755","26.196","2.11","7.49","0.525","3.452","0.08","0.22","29.7812","4.69449","22.99","0","SATNPRO1962","23.866","0.33424","5"],
    [31906,"HCEP03730560","2024-08-25 15:30:00","10.7552","3.35686","26.307","2","7.48","0.514","3.723","0.09","0.19","29.7787","4.69423","21.79","0","SATNPRO1962","23.336","0.32686","5"],
    [31907,"HCEP03730560","2024-08-25 15:45:00","10.7517","3.35593","26.396","1.906","7.48","0.51","3.693","0.09","0.77","29.7723","4.69338","20.77","0","SATNPRO1962","23.114","0.32376","5"],
    [31908,"HCEP03730560","2024-08-25 16:00:00","10.749","3.35552","26.486","1.802","7.47","0.525","3.924","0.1","0.14","29.7705","4.69317","19.63","0","SATNPRO1962","23.366","0.32728","5"],
    [31909,"HCEP03730560","2024-08-25 16:15:00","10.7457","3.35511","26.575","1.715","7.46","0.519","3.678","0.06","0.17","29.7691","4.69303","18.68","0","SATNPRO1962","22.696","0.31788","5"],
    [31910,"HCEP03730560","2024-08-25 16:30:00","10.7463","3.35481","26.656","1.678","7.46","0.521","3.908","0.07","0.22","29.7656","4.69253","18.27","0","SATNPRO1962","22.576","0.31624","5"],
    [31911,"HCEP03730560","2024-08-25 16:45:00","10.7407","3.35477","26.63","1.617","7.46","0.56","4.021","0.07","0.25","29.7698","4.69321","17.61","0","SATNPRO1962","22.428","0.31414","5"],
    [31912,"HCEP03730560","2024-08-25 17:00:00","10.7471","3.35613","26.618","1.696","7.46","0.63","4.585","0.08","0.4","29.778","4.69427","18.47","0","SATNPRO1962","23.12","0.32386","5"],
    [31913,"HCEP03730560","2024-08-25 17:15:00","10.7397","3.35587","26.638","1.754","7.46","0.612","4.518","0.05","0.28","29.7815","4.69488","19.1","0","SATNPRO1962","23.094","0.32352","5"],
    [31914,"HCEP03730560","2024-08-25 17:30:00","10.7291","3.35519","26.74","1.696","7.46","0.62","4.634","0.09","0.2","29.7834","4.69532","18.46","0","SATNPRO1962","22.912","0.32092","5"],
    [31915,"HCEP03730560","2024-08-25 17:45:00","10.7231","3.35508","26.831","1.628","7.46","0.638","4.463","0.07","0.3","29.7871","4.69595","17.72","0","SATNPRO1962","23.125999999999998","0.32392","5"],
    [31916,"HCEP03730560","2024-08-25 18:00:00","10.7202","3.35528","26.922","1.627","7.46","0.685","4.936","0.08","0.46","29.7914","4.69661","17.72","0","SATNPRO1962","23.306","0.32644","5"],
    [31917,"HCEP03730560","2024-08-25 18:15:00","10.7219","3.35592","27.018","1.675","7.46","0.618","4.296","0.04","0.3","29.7963","4.69729","18.24","0","SATNPRO1962","23.562","0.33004","5"],
    [31918,"HCEP03730560","2024-08-25 18:30:00","10.7216","3.35604","27.121","1.799","7.47","0.699","4.999","0.08","0.67","29.7977","4.6975","19.59","0","SATNPRO1962","23.702","0.33202","5"],
    [31919,"HCEP03730560","2024-08-25 18:45:00","10.7226","3.35622","27.217","1.834","7.47","0.793","5.322","0.07","0.44","29.7986","4.69762","19.97","0","SATNPRO1962","24.137999999999998","0.33808","5"],
    [31920,"HCEP03730560","2024-08-25 19:00:00","10.7236","3.35654","27.321","1.893","7.48","0.752","4.826","0.07","0.35","29.8009","4.69794","20.61","0","SATNPRO1962","24.238","0.33946","5"],
    [31921,"HCEP03730560","2024-08-25 19:15:00","10.7234","3.35647","27.422","1.92","7.48","0.788","4.801","0.08","0.3","29.8003","4.69786","20.91","0","SATNPRO1962","24.164","0.33848","5"],
    [31922,"HCEP03730560","2024-08-25 19:30:00","10.724","3.35629","27.508","1.909","7.48","0.807","4.838","0.21","0.34","29.798","4.69753","20.78","0","SATNPRO1962","24.004","0.33624","5"],
    [31923,"HCEP03730560","2024-08-25 19:45:00","10.7246","3.35625","27.579","1.878","7.48","0.701","4.999","0.05","0.53","29.7971","4.69739","20.45","0","SATNPRO1962","23.86","0.33418","5"],
    [31924,"HCEP03730560","2024-08-25 20:00:00","10.7254","3.35636","27.639","1.866","7.48","0.665","5.023","0.06","0.38","29.7975","4.69745","20.32","0","SATNPRO1962","23.952","0.33552","5"],
    [31925,"HCEP03730560","2024-08-25 20:15:00","10.7256","3.35668","27.68","1.888","7.48","0.705","4.86","0.09","0.39","29.8005","4.69786","20.56","0","SATNPRO1962","24.128","0.33796","5"],
    [31926,"HCEP03730560","2024-08-25 20:30:00","10.7288","3.35717","27.717","1.954","7.48","0.573","4.314","0.07","0.36","29.8027","4.69813","21.28","0","SATNPRO1962","24.584","0.34436","5"],
    [31927,"HCEP03730560","2024-08-25 20:45:00","10.7314","3.35758","27.739","2.038","7.49","0.536","3.847","0.05","0.22","29.8046","4.69836","22.2","0","SATNPRO1962","24.846","0.34806","5"],
    [31928,"HCEP03730560","2024-08-25 21:00:00","10.735","3.3579","27.727","2.113","7.5","0.458","3.635","0.06","0.47","29.8047","4.69833","23.02","0","SATNPRO1962","24.826","0.34776","5"],
    [31929,"HCEP03730560","2024-08-25 21:15:00","10.7364","3.35809","27.699","2.166","7.5","0.48","3.507","0.07","0.36","29.8056","4.69842","23.59","0","SATNPRO1962","24.974","0.3498","5"],
    [31930,"HCEP03730560","2024-08-25 21:30:00","10.7355","3.35829","27.66","2.195","7.5","0.532","3.68","0.17","0.52","29.8082","4.69881","23.91","0","SATNPRO1962","25.012","0.35036","5"],
    [31931,"HCEP03730560","2024-08-25 21:45:00","10.735900000000001","3.35852","27.608","2.232","7.51","0.449","3.32","0.04","0.2","29.8102","4.69909","24.31","0","SATNPRO1962","25.05","0.35088","5"],
    [31932,"HCEP03730560","2024-08-25 22:00:00","10.736","3.35882","27.526","2.264","7.51","0.452","3.473","0.06","0.17","29.8131","4.69948","24.66","0","SATNPRO1962","25.206","0.35302","5"],
    [31933,"HCEP03730560","2024-08-25 22:15:00","10.737","3.35916","27.43","2.302","7.51","0.452","3.229","0.06","0.37","29.8157","4.69983","25.08","0","SATNPRO1962","25.392","0.35566","5"],
    [31934,"HCEP03730560","2024-08-25 22:30:00","10.7347","3.3593","27.322","2.329","7.52","0.427","3.37","0.04","0.24","29.819","4.70033","25.37","0","SATNPRO1962","25.426","0.35614","5"],
    [31935,"HCEP03730560","2024-08-25 22:45:00","10.7325","3.35962","27.192","2.354","7.52","0.457","3.122","0.07","0.26","29.8239","4.70107","25.65","0","SATNPRO1962","25.612000000000002","0.35874","5"],
    [31936,"HCEP03730560","2024-08-25 23:00:00","10.7322","3.36011","27.052","2.393","7.52","0.449","3.475","0.06","0.2","29.8291","4.70179","26.07","0","SATNPRO1962","25.75","0.36066","5"],
    [31937,"HCEP03730560","2024-08-25 23:15:00","10.7368","3.36164","26.894","2.474","7.53","0.557","3.673","0.12","0.31","29.8404","4.70332","26.96","0","SATNPRO1962","26.026","0.36454","5"],
    [31938,"HCEP03730560","2024-08-25 23:30:00","10.7417","3.36311","26.729","2.611","7.54","0.466","3.33","0.11","0.17","29.851","4.70475","28.45","0","SATNPRO1962","26.324","0.3687","5"],
    [31939,"HCEP03730560","2024-08-25 23:45:00","10.7537","3.36542","26.55","2.767","7.56","0.422","2.746","0.06","0.16","29.864","4.7064","30.16","0","SATNPRO1962","26.848","0.37606","5"],
    [31940,"HCEP03730560","2024-08-26 00:00:00","10.7533","3.36631","26.362","2.911","7.57","0.408","2.629","0.15","0.66","29.8731","4.70769","31.74","0","SATNPRO1962","27.244","0.38164","5"],
    [31941,"HCEP03730560","2024-08-26 00:15:00","10.7524","3.36695","26.179","3","7.58","0.395","2.517","0.04","0.15","29.8803","4.70872","32.7","0","SATNPRO1962","27.458","0.38458","5"],
    [31942,"HCEP03730560","2024-08-26 00:30:00","10.753","3.3676","25.99","3.027","7.58","0.403","2.91","0.05","0.17","29.8862","4.70953","33","0","SATNPRO1962","27.276","0.38206","5"],
    [31943,"HCEP03730560","2024-08-26 00:45:00","10.7549","3.36781","25.82","3.023","7.58","0.491","3.348","0.06","0.25","29.8868","4.70958","32.96","0","SATNPRO1962","27.2","0.38096","5"],
    [31944,"HCEP03730560","2024-08-26 01:00:00","10.7557","3.3685","25.639","3.018","7.58","0.486","3.419","0.04","0.17","29.8931","4.71044","32.91","0","SATNPRO1962","27.346","0.38302","5"],
    [31945,"HCEP03730560","2024-08-26 01:15:00","10.7555","3.36862","25.409","3.018","7.58","0.509","3.309","0.15","0.32","29.8945","4.71064","32.91","0","SATNPRO1962","27.236","0.38148","5"],
    [31946,"HCEP03730560","2024-08-26 01:30:00","10.7549","3.36862","25.137","3.007","7.58","0.584","3.412","0.6","0.13","29.8951","4.71072","32.79","0","SATNPRO1962","27.22","0.3812","5"],
    [31947,"HCEP03730560","2024-08-26 01:45:00","10.7538","3.36835","24.912","2.995","7.58","0.537","3.645","0.13","0.2","29.8934","4.71048","32.65","0","SATNPRO1962","27.11","0.37972","5"],
    [31948,"HCEP03730560","2024-08-26 02:00:00","10.7526","3.36776","24.734","2.969","7.58","0.497","3.845","0.03","0.29","29.8886","4.70981","32.37","0","SATNPRO1962","27.004","0.37822","5"],
    [31949,"HCEP03730560","2024-08-26 02:15:00","10.7521","3.36717","24.595","2.938","7.58","0.543","3.667","0.07","0.25","29.8833","4.70905","32.03","0","SATNPRO1962","26.976","0.37786","5"],
    [31950,"HCEP03730560","2024-08-26 02:30:00","10.7515","3.36692","24.478","2.906","7.58","0.58","4.055","0.08","0.22","29.8814","4.70878","31.68","0","SATNPRO1962","26.81","0.3755","5"],
    [31951,"HCEP03730560","2024-08-26 02:45:00","10.7507","3.36632","24.388","2.873","7.57","0.601","3.971","0.1","0.33","29.8762","4.70806","31.31","0","SATNPRO1962","26.7","0.374","5"],
    [31952,"HCEP03730560","2024-08-26 03:00:00","10.7502","3.36593","24.319","2.842","7.57","0.57","3.929","0.09","0.25","29.8727","4.70756","30.98","0","SATNPRO1962","26.598","0.37252","5"],
    [31953,"HCEP03730560","2024-08-26 03:15:00","10.7498","3.36545","24.277","2.814","7.57","0.613","4.25","0.08","0.38","29.8683","4.70694","30.68","0","SATNPRO1962","26.544","0.37182","5"],
    [31954,"HCEP03730560","2024-08-26 03:30:00","10.7487","3.3649","24.251","2.786","7.57","0.52","4.072","0.05","0.27","29.8638","4.70632","30.36","0","SATNPRO1962","26.484","0.37096","5"],
    [31955,"HCEP03730560","2024-08-26 03:45:00","10.7486","3.36454","24.241","2.756","7.56","0.565","3.982","0.07","0.33","29.8604","4.70584","30.04","0","SATNPRO1962","26.376","0.36946","5"],
    [31956,"HCEP03730560","2024-08-26 04:00:00","10.7487","3.36458","24.258","2.738","7.56","0.524","3.842","0.11","0.3","29.8607","4.70587","29.84","0","SATNPRO1962","26.296","0.36832","5"],
    [31957,"HCEP03730560","2024-08-26 04:15:00","10.7489","3.36449","24.284","2.724","7.56","0.507","3.635","0.1","0.34","29.8597","4.70573","29.69","0","SATNPRO1962","26.554","0.37194","5"],
    [31958,"HCEP03730560","2024-08-26 04:30:00","10.7495","3.36427","24.32","2.722","7.56","0.515","3.768","0.13","0.36","29.857","4.70534","29.67","0","SATNPRO1962","26.413999999999998","0.36998","5"],
    [31959,"HCEP03730560","2024-08-26 04:45:00","10.7494","3.36429","24.378","2.719","7.56","0.516","3.32","0.1","0.21","29.8572","4.70538","29.64","0","SATNPRO1962","26.302","0.36842","5"],
    [31960,"HCEP03730560","2024-08-26 05:00:00","10.7496","3.36412","24.439","2.712","7.56","0.448","3.135","0.06","0.1","29.8554","4.70512","29.55","0","SATNPRO1962","26.256","0.36776","5"],
    [31961,"HCEP03730560","2024-08-26 05:15:00","10.7492","3.36402","24.547","2.71","7.56","0.467","3.16","0.07","0.15","29.8546","4.70502","29.54","0","SATNPRO1962","26.296","0.36832","5"],
    [31962,"HCEP03730560","2024-08-26 05:30:00","10.7495","3.36395","24.654","2.705","7.56","0.425","3.243","0.05","0.62","29.8537","4.70489","29.48","0","SATNPRO1962","26.323999999999998","0.36868","5"],
    [31963,"HCEP03730560","2024-08-26 05:45:00","10.7499","3.36378","24.769","2.699","7.56","0.471","3.315","0.06","0.32","29.8516","4.70459","29.42","0","SATNPRO1962","26.256","0.36778","5"],
    [31964,"HCEP03730560","2024-08-26 06:00:00","10.7507","3.3642","24.894","2.693","7.56","0.452","3.412","0.04","0.14","29.8551","4.70509","29.35","0","SATNPRO1962","26.238","0.36752","5"],
    [31965,"HCEP03730560","2024-08-26 06:15:00","10.7512","3.36439","25.01","2.683","7.55","0.541","3.843","0.1","0.58","29.8565","4.70528","29.25","0","SATNPRO1962","26.118","0.36582","5"],
    [31966,"HCEP03730560","2024-08-26 06:30:00","10.7508","3.36369","25.133","2.651","7.55","0.486","3.612","0.06","0.29","29.8499","4.70436","28.89","0","SATNPRO1962","25.962","0.36366","5"],
    [31967,"HCEP03730560","2024-08-26 06:45:00","10.7511","3.36331","25.248","2.594","7.55","0.564","3.872","0.05","0.19","29.8458","4.70377","28.27","0","SATNPRO1962","25.592","0.35842","5"],
    [31968,"HCEP03730560","2024-08-26 07:00:00","10.7505","3.36167","25.412","2.483","7.54","0.562","3.838","0.07","0.25","29.8301","4.70157","27.06","0","SATNPRO1962","24.908","0.34884","5"],
    [31969,"HCEP03730560","2024-08-26 07:15:00","10.7502","3.35974","25.566","2.292","7.52","0.553","4.174","0.03","0.21","29.8113","4.6989","24.97","0","SATNPRO1962","24.214000000000002","0.33918","5"],
    [31970,"HCEP03730560","2024-08-26 07:30:00","10.752","3.35867","25.723","2.103","7.51","0.615","4.36","0.08","0.21","29.7993","4.69717","22.92","0","SATNPRO1962","23.712","0.33216","5"],
    [31971,"HCEP03730560","2024-08-26 07:45:00","10.7566","3.35773","25.901","1.972","7.49","0.556","4.135","0.03","0.27","29.7863","4.69526","21.49","0","SATNPRO1962","23.358","0.32712","5"],
    [31972,"HCEP03730560","2024-08-26 08:00:00","10.7634","3.35764","26.075","1.916","7.49","0.566","4.245","0.08","0.29","29.7798","4.69424","20.88","0","SATNPRO1962","23.476","0.32884","5"],
    [31973,"HCEP03730560","2024-08-26 08:15:00","10.768","3.35786","26.266","1.933","7.49","0.567","3.99","0.07","0.23","29.7781","4.69393","21.07","0","SATNPRO1962","23.664","0.33146","5"],
    [31974,"HCEP03730560","2024-08-26 08:30:00","10.7706","3.35801","26.44","1.967","7.49","0.542","3.964","0.05","0.34","29.7774","4.6938","21.44","0","SATNPRO1962","23.642","0.33116","5"],
    [31975,"HCEP03730560","2024-08-26 08:45:00","10.774","3.35637","26.583","1.991","7.49","0.563","3.707","0.09","0.32","29.7585","4.69108","21.7","0","SATNPRO1962","23.676","0.33162","5"],
    [31976,"HCEP03730560","2024-08-26 09:00:00","10.7749","3.3582","26.703","2.008","7.49","0.533","3.516","0.1","0.27","29.7757","4.69351","21.89","0","SATNPRO1962","23.78","0.33306","5"],
    [31977,"HCEP03730560","2024-08-26 09:15:00","10.7767","3.3583","26.806","2.021","7.49","0.604","3.823","0.24","0.93","29.7751","4.69341","22.03","0","SATNPRO1962","23.784","0.33314","5"],
    [31978,"HCEP03730560","2024-08-26 09:30:00","10.7796","3.35841","26.898","2.035","7.49","0.501","3.334","0.11","0.21","29.7739","4.6932","22.18","0","SATNPRO1962","23.788","0.33314","5"],
    [31979,"HCEP03730560","2024-08-26 09:45:00","10.7803","3.35845","26.983","2.046","7.49","0.485","3.064","0.05","0.2","29.7737","4.69317","22.3","0","SATNPRO1962","23.73","0.3324","5"],
    [31980,"HCEP03730560","2024-08-26 10:00:00","10.7806","3.35846","27.054","2.05","7.49","0.549","3.127","0.18","0.28","29.7735","4.69313","22.35","0","SATNPRO1962","23.848","0.33398","5"],
    [31981,"HCEP03730560","2024-08-26 10:15:00","10.7821","3.35851","27.108","2.053","7.49","0.52","3.241","0.08","0.51","29.7727","4.693","22.38","0","SATNPRO1962","23.674","0.3316","5"],
    [31982,"HCEP03730560","2024-08-26 10:30:00","10.7819","3.35852","27.128","2.056","7.49","0.495","3.29","0.07","0.22","29.773","4.69304","22.41","0","SATNPRO1962","23.886","0.33458","5"],
    [31983,"HCEP03730560","2024-08-26 10:45:00","10.7814","3.35849","27.149","2.058","7.49","0.556","3.331","0.08","0.18","29.7731","4.69306","22.44","0","SATNPRO1962","23.93","0.33518","5"],
    [31984,"HCEP03730560","2024-08-26 11:00:00","10.7798","3.3585","27.177","2.055","7.49","0.466","2.981","0.08","0.21","29.7745","4.69329","22.41","0","SATNPRO1962","23.802","0.33338","5"],
    [31985,"HCEP03730560","2024-08-26 11:15:00","10.7791","3.35853","27.173","2.05","7.49","0.516","3.216","0.07","0.57","29.7753","4.69341","22.35","0","SATNPRO1962","23.772","0.3329","5"],
    [31986,"HCEP03730560","2024-08-26 11:30:00","10.7794","3.35855","27.212","2.047","7.49","0.487","2.952","0.08","0.14","29.7753","4.69342","22.31","0","SATNPRO1962","23.754","0.33274","5"],
    [31987,"HCEP03730560","2024-08-26 11:45:00","10.7789","3.35853","27.165","2.038","7.49","0.544","3.022","0.08","0.14","29.7755","4.69345","22.21","0","SATNPRO1962","23.74","0.3325","5"],
    [31988,"HCEP03730560","2024-08-26 12:00:00","10.7794","3.35855","27.143","2.035","7.49","0.415","2.773","0.04","0.09","29.7753","4.69342","22.19","0","SATNPRO1962","23.842","0.33394","5"],
    [31989,"HCEP03730560","2024-08-26 12:15:00","10.7789","3.35854","27.123","2.032","7.49","0.472","2.744","0.05","0.06","29.7756","4.69347","22.15","0","SATNPRO1962","23.708","0.33206","5"],
    [31990,"HCEP03730560","2024-08-26 12:30:00","10.7786","3.35851","27.104","2.019","7.49","0.511","3.008","0.18","0.19","29.7756","4.69347","22","0","SATNPRO1962","23.534","0.32966","5"],
    [31991,"HCEP03730560","2024-08-26 12:45:00","10.7777","3.35847","27.099","2.002","7.49","0.462","2.859","0.04","0.12","29.7759","4.69352","21.82","0","SATNPRO1962","23.68","0.33172","5"],
    [31992,"HCEP03730560","2024-08-26 13:00:00","10.7525","3.35971","27.067","1.946","7.48","0.599","4.684","0.16","0.57","29.8086","4.69857","21.2","0","SATNPRO1962","23.458","0.32856","5"],
    [31993,"HCEP03730560","2024-08-26 13:15:00","10.7524","3.36067","27.031","1.966","7.49","0.579","4.458","0.08","0.48","29.8182","4.69993","21.42","0","SATNPRO1962","24.168","0.3385","5"],
    [31994,"HCEP03730560","2024-08-26 13:30:00","10.7528","3.36132","26.976","2.067","7.5","0.563","4.458","0.07","0.26","29.8242","4.70078","22.52","0","SATNPRO1962","24.323999999999998","0.3407","5"],
    [31995,"HCEP03730560","2024-08-26 13:45:00","10.7524","3.36131","26.989","2.16","7.5","0.507","3.892","0.05","0.23","29.8245","4.70082","23.53","0","SATNPRO1962","24.442","0.34232","5"],
    [31996,"HCEP03730560","2024-08-26 14:00:00","10.7559","3.35864","27.012","2.077","7.49","0.474","4.147","0.08","0.25","29.7954","4.69663","22.64","0","SATNPRO1962","23.804","0.3334","5"],
    [31997,"HCEP03730560","2024-08-26 14:15:00","10.7548","3.35914","27.015","1.964","7.49","0.468","3.184","0.07","0.2","29.8012","4.69747","21.4","0","SATNPRO1962","24.134","0.33802","5"],
    [31998,"HCEP03730560","2024-08-26 14:30:00","10.7554","3.35873","26.974","1.981","7.49","0.416","3.193","0.09","0.31","29.7966","4.69681","21.59","0","SATNPRO1962","23.956","0.33556","5"],
    [31999,"HCEP03730560","2024-08-26 14:45:00","10.7573","3.35825","26.906","1.94","7.49","0.421","2.996","0.07","0.18","29.7904","4.69589","21.14","0","SATNPRO1962","23.672","0.33154","5"],
    [32000,"HCEP03730560","2024-08-26 15:00:00","10.7565","3.35812","26.861","1.911","7.48","0.395","3.2","0.07","0.47","29.7898","4.69582","20.83","0","SATNPRO1962","23.714","0.33218","5"],
    [32001,"HCEP03730560","2024-08-26 15:15:00","10.7553","3.35889","26.811","1.935","7.49","0.532","3.64","0.08","0.15","29.7984","4.69705","21.09","0","SATNPRO1962","24.178","0.33866","5"],
    [32002,"HCEP03730560","2024-08-26 15:30:00","10.7552","3.35954","26.711","2","7.49","0.501","3.907","0.11","1.06","29.8049","4.69798","21.79","0","SATNPRO1962","23.996","0.3361","5"],
    [32003,"HCEP03730560","2024-08-26 15:45:00","10.7537","3.36003","26.639","2.016","7.49","0.48","3.444","0.06","0.19","29.811","4.69887","21.97","0","SATNPRO1962","24.182","0.33866","5"],
    [32004,"HCEP03730560","2024-08-26 16:00:00","10.7536","3.3594","26.587","2.028","7.49","0.422","3.437","0.07","0.13","29.8049","4.69799","22.1","0","SATNPRO1962","24.052","0.3369","5"],
    [32005,"HCEP03730560","2024-08-26 16:15:00","10.7528","3.36059","26.562","2.046","7.49","0.479","3.462","0.09","0.17","29.8172","4.69976","22.29","0","SATNPRO1962","24.182","0.33874","5"],
    [32006,"HCEP03730560","2024-08-26 16:30:00","10.7531","3.36039","26.561","2.07","7.5","0.412","3.454","0.05","0.26","29.815","4.69943","22.56","0","SATNPRO1962","24.194","0.33888","5"],
    [32007,"HCEP03730560","2024-08-26 16:45:00","10.7523","3.3605","26.58","2.079","7.5","0.446","3.68","0.04","0.2","29.8167","4.6997","22.65","0","SATNPRO1962","24.252","0.33968","5"],
    [32008,"HCEP03730560","2024-08-26 17:00:00","10.7516","3.36084","26.678","2.092","7.5","0.429","3.867","0.05","0.27","29.8206","4.70026","22.79","0","SATNPRO1962","24.236","0.33946","5"],
    [32009,"HCEP03730560","2024-08-26 17:15:00","10.7519","3.36075","26.655","2.106","7.5","0.553","4.626","0.13","1.21","29.8195","4.7001","22.95","0","SATNPRO1962","24.386","0.34156","5"],
    [32010,"HCEP03730560","2024-08-26 17:30:00","10.7521","3.36122","26.699","2.137","7.5","0.482","4.346","0.07","0.48","29.824","4.70074","23.28","0","SATNPRO1962","29.573999999999998","0.41422","5"],
    [32011,"HCEP03730560","2024-08-26 17:45:00","10.7531","3.36116","26.688","2.161","7.5","0.473","3.899","0.05","0.24","29.8225","4.70051","23.55","0","SATNPRO1962","19.708","0.27604","5"],
    [32012,"HCEP03730560","2024-08-26 18:00:00","10.7518","3.36155","26.725","2.179","7.51","0.452","3.871","0.07","0.25","29.8274","4.70123","23.74","0","SATNPRO1962","26.286","0.36816","5"],
    [32013,"HCEP03730560","2024-08-26 18:15:00","10.7518","3.36095","26.777","2.188","7.51","0.509","4.175","0.07","0.23","29.8215","4.70039","23.84","0","SATNPRO1962","28.384","0.39758","5"],
    [32014,"HCEP03730560","2024-08-26 18:30:00","10.7508","3.36123","26.836","2.194","7.51","0.463","4.113","0.05","0.25","29.825","4.70091","23.91","0","SATNPRO1962","26.464","0.37068","5"],
    [32015,"HCEP03730560","2024-08-26 18:45:00","10.7498","3.3609","26.905","2.188","7.51","0.552","3.976","0.08","0.21","29.8226","4.70059","23.84","0","SATNPRO1962","25.468","0.35676","5"],
    [32016,"HCEP03730560","2024-08-26 19:00:00","10.7481","3.36098","26.966","2.156","7.5","0.631","5.735","0.08","2.16","29.8247","4.70091","23.49","0","SATNPRO1962","25.572","0.35818","5"],
    [32017,"HCEP03730560","2024-08-26 19:15:00","10.7483","3.36096","27.031","2.132","7.5","0.683","5.41","0.08","0.89","29.8244","4.70087","23.23","0","SATNPRO1962","25.45","0.35644","5"],
    [32018,"HCEP03730560","2024-08-26 19:30:00","10.7481","3.36091","27.101","2.114","7.5","0.61","4.954","0.07","0.39","29.824","4.70082","23.03","0","SATNPRO1962","25.148","0.35226","5"],
    [32019,"HCEP03730560","2024-08-26 19:45:00","10.7509","3.36071","27.155","2.109","7.5","0.525","4.028","0.09","0.25","29.8197","4.70018","22.98","0","SATNPRO1962","25.208","0.35308","5"],
    [32020,"HCEP03730560","2024-08-26 20:00:00","10.7571","3.36043","27.206","2.114","7.5","0.437","3.793","0.04","0.23","29.8119","4.69897","23.04","0","SATNPRO1962","25.158","0.35238","5"],
    [32021,"HCEP03730560","2024-08-26 20:15:00","10.7587","3.36026","27.262","2.076","7.5","0.489","3.9","0.05","0.18","29.809","4.69853","22.62","0","SATNPRO1962","24.604","0.34464","5"],
    [32022,"HCEP03730560","2024-08-26 20:30:00","10.7588","3.36025","27.312","2.014","7.49","0.471","4.152","0.06","0.3","29.8087","4.69849","21.95","0","SATNPRO1962","24.508","0.34328","5"],
    [32023,"HCEP03730560","2024-08-26 20:45:00","10.7609","3.36003","27.349","1.966","7.49","0.505","4.308","0.05","0.27","29.8048","4.69792","21.43","0","SATNPRO1962","24.116","0.33782","5"],
    [32024,"HCEP03730560","2024-08-26 21:00:00","10.7614","3.35977","27.378","1.922","7.49","0.524","4.593","0.06","0.19","29.8019","4.69749","20.95","0","SATNPRO1962","24.262","0.33986","5"],
    [32025,"HCEP03730560","2024-08-26 21:15:00","10.7621","3.35957","27.387","1.882","7.48","0.568","4.409","0.2","0.18","29.7992","4.6971","20.51","0","SATNPRO1962","23.93","0.33516","5"],
    [32026,"HCEP03730560","2024-08-26 21:30:00","10.7621","3.35947","27.381","1.858","7.48","0.546","4.62","0.14","0.27","29.7983","4.69696","20.25","0","SATNPRO1962","24.01","0.33632","5"],
    [32027,"HCEP03730560","2024-08-26 21:45:00","10.7592","3.3595","27.382","1.857","7.48","0.518","4.589","0.05","0.19","29.8009","4.69738","20.24","0","SATNPRO1962","23.81","0.3335","5"],
    [32028,"HCEP03730560","2024-08-26 22:00:00","10.7576","3.3596","27.384","1.861","7.48","0.489","4.495","0.09","0.4","29.8033","4.69774","20.28","0","SATNPRO1962","24.024","0.33652","5"],
    [32029,"HCEP03730560","2024-08-26 22:15:00","10.7555","3.35977","27.358","1.877","7.48","0.525","4.411","0.07","0.16","29.8067","4.69827","20.45","0","SATNPRO1962","24.142","0.33814","5"],
    [32030,"HCEP03730560","2024-08-26 22:30:00","10.7544","3.36037","27.317","1.941","7.49","0.452","4.242","0.06","0.19","29.8135","4.69924","21.15","0","SATNPRO1962","24.49","0.34304","5"],
    [32031,"HCEP03730560","2024-08-26 22:45:00","10.7542","3.36133","27.266","2.058","7.5","0.427","3.632","0.04","0.13","29.8231","4.70061","22.43","0","SATNPRO1962","25.184","0.35276","5"],
    [32032,"HCEP03730560","2024-08-26 23:00:00","10.7542","3.36174","27.211","2.17","7.5","0.435","3.751","0.09","0.19","29.8272","4.70119","23.65","0","SATNPRO1962","25.196","0.35294","5"],
    [32033,"HCEP03730560","2024-08-26 23:15:00","10.7535","3.36231","27.151","2.235","7.51","0.445","3.701","0.06","0.24","29.8333","4.70206","24.36","0","SATNPRO1962","25.192","0.35286","5"],
    [32034,"HCEP03730560","2024-08-26 23:30:00","10.7531","3.36262","27.05","2.295","7.51","0.422","4.255","0.07","1.91","29.8367","4.70255","25.02","0","SATNPRO1962","25.564","0.35806","5"],
    [32035,"HCEP03730560","2024-08-26 23:45:00","10.7535","3.35779","26.94","2.332","7.52","0.482","3.611","0.23","0.21","29.789","4.69575","25.41","0","SATNPRO1962","25.466","0.35668","5"],
    [32036,"HCEP03730560","2024-08-27 00:00:00","10.7532","3.36299","26.811","2.357","7.52","0.36","3.388","0.03","0.16","29.8404","4.70306","25.69","0","SATNPRO1962","25.964","0.3637","5"],
    [32037,"HCEP03730560","2024-08-27 00:15:00","10.7534","3.36308","26.74","2.375","7.52","0.383","3.324","0.02","0.15","29.8411","4.70315","25.89","0","SATNPRO1962","25.832","0.36182","5"],
    [32038,"HCEP03730560","2024-08-27 00:30:00","10.7535","3.36312","26.627","2.387","7.53","0.37","3.489","0.04","0.21","29.8415","4.7032","26.02","0","SATNPRO1962","25.73","0.36042","5"],
    [32039,"HCEP03730560","2024-08-27 00:45:00","10.7542","3.36317","26.444","2.392","7.53","0.409","3.345","0.07","0.16","29.8416","4.70319","26.07","0","SATNPRO1962","25.782","0.3611","5"],
    [32040,"HCEP03730560","2024-08-27 01:00:00","10.7541","3.36314","26.254","2.383","7.53","0.388","3.457","0.09","0.29","29.8414","4.70316","25.97","0","SATNPRO1962","25.586","0.35836","5"],
    [32041,"HCEP03730560","2024-08-27 01:15:00","10.7538","3.36316","26.155","2.386","7.53","0.385","3.328","0.04","0.15","29.8418","4.70321","26.01","0","SATNPRO1962","25.695999999999998","0.35992","5"],
    [32042,"HCEP03730560","2024-08-27 01:30:00","10.7542","3.36323","25.975","2.398","7.53","0.361","3.352","0.03","0.28","29.8422","4.70326","26.14","0","SATNPRO1962","25.637999999999998","0.3591","5"],
    [32043,"HCEP03730560","2024-08-27 01:45:00","10.754","3.36325","25.772","2.404","7.53","0.41","3.477","0.04","0.16","29.8427","4.70333","26.2","0","SATNPRO1962","25.584","0.35836","5"],
    [32044,"HCEP03730560","2024-08-27 02:00:00","10.754","3.36335","25.595","2.389","7.53","0.399","3.707","0.03","0.16","29.8438","4.70346","26.04","0","SATNPRO1962","25.486","0.35698","5"],
    [32045,"HCEP03730560","2024-08-27 02:15:00","10.7536","3.3634","25.432","2.388","7.53","0.411","3.583","0.04","0.15","29.8447","4.70358","26.03","0","SATNPRO1962","25.492","0.35706","5"],
    [32046,"HCEP03730560","2024-08-27 02:30:00","10.7532","3.36352","25.294","2.397","7.53","0.382","3.472","0.06","0.48","29.8462","4.70381","26.13","0","SATNPRO1962","25.59","0.35842","5"],
    [32047,"HCEP03730560","2024-08-27 02:45:00","10.7531","3.36353","25.175","2.391","7.53","0.452","3.847","0.06","0.16","29.8464","4.70382","26.06","0","SATNPRO1962","25.46","0.3566","5"],
    [32048,"HCEP03730560","2024-08-27 03:00:00","10.7554","3.36378","24.823","2.426","7.53","0.384","3.579","0.03","0.08","29.8472","4.70389","26.44","0","SATNPRO1962","25.642","0.35916","5"],
    [32049,"HCEP03730560","2024-08-27 03:15:00","10.755","3.36378","24.692","2.424","7.53","0.437","3.54","0.11","0.08","29.8475","4.70393","26.42","0","SATNPRO1962","25.57","0.35816","5"],
    [32050,"HCEP03730560","2024-08-27 03:30:00","10.7535","3.3636","24.569","2.382","7.53","0.441","3.965","0.07","0.11","29.847","4.70386","25.96","0","SATNPRO1962","25.18","0.35266","5"],
    [32051,"HCEP03730560","2024-08-27 03:45:00","10.7542","3.36389","24.478","2.375","7.53","0.4","3.341","0.02","0.11","29.8494","4.7042","25.88","0","SATNPRO1962","25.714","0.36016","5"],
    [32052,"HCEP03730560","2024-08-27 04:00:00","10.759","3.36453","24.377","2.457","7.53","0.323","2.911","0.02","0.11","29.8518","4.70446","26.79","0","SATNPRO1962","26.008","0.3643","5"],
    [32053,"HCEP03730560","2024-08-27 04:15:00","10.762","3.36498","24.369","2.519","7.54","0.352","2.807","0.03","0.1","29.8537","4.70468","27.47","0","SATNPRO1962","26.098","0.36554","5"],
    [32054,"HCEP03730560","2024-08-27 04:30:00","10.7663","3.36534","24.298","2.56","7.54","0.318","2.835","0.02","0.06","29.8538","4.70462","27.91","0","SATNPRO1962","26.518","0.37138","5"],
    [32055,"HCEP03730560","2024-08-27 04:45:00","10.769","3.36559","24.27","2.598","7.55","0.331","2.64","0.02","0.08","29.8541","4.70462","28.32","0","SATNPRO1962","26.472","0.37078","5"],
    [32056,"HCEP03730560","2024-08-27 05:00:00","10.7651","3.36523","24.295","2.603","7.55","0.351","3.069","0.03","0.13","29.8537","4.70462","28.38","0","SATNPRO1962","26.220000000000002","0.36724","5"],
    [32057,"HCEP03730560","2024-08-27 05:15:00","10.7638","3.36501","24.291","2.564","7.54","0.392","3.163","0.03","0.09","29.8526","4.70448","27.95","0","SATNPRO1962","26.162","0.36644","5"],
    [32058,"HCEP03730560","2024-08-27 05:30:00","10.7613","3.36352","24.301","2.535","7.54","0.376","3.364","0.03","0.08","29.84","4.70274","27.63","0","SATNPRO1962","25.994","0.3641","5"],
    [32059,"HCEP03730560","2024-08-27 05:45:00","10.7577","3.3643","24.325","2.494","7.54","0.447","3.597","0.06","0.16","29.8506","4.70431","27.19","0","SATNPRO1962","25.791999999999998","0.36126","5"],
    [32060,"HCEP03730560","2024-08-27 06:00:00","10.7569","3.36431","24.433","2.469","7.54","0.411","3.658","0.04","0.1","29.8513","4.70442","26.91","0","SATNPRO1962","25.766","0.3609","5"],
    [32061,"HCEP03730560","2024-08-27 06:15:00","10.7552","3.36438","24.509","2.459","7.54","0.466","3.688","0.05","0.13","29.8534","4.70474","26.8","0","SATNPRO1962","25.688","0.3598","5"],
    [32062,"HCEP03730560","2024-08-27 06:30:00","10.7554","3.36462","24.638","2.451","7.54","0.457","4.122","0.03","0.12","29.8555","4.70506","26.71","0","SATNPRO1962","25.592","0.35846","5"],
    [32063,"HCEP03730560","2024-08-27 06:45:00","10.7556","3.36475","24.718","2.467","7.54","0.463","3.874","0.03","0.1","29.8566","4.70521","26.89","0","SATNPRO1962","25.727999999999998","0.36038","5"],
    [32064,"HCEP03730560","2024-08-27 07:00:00","10.7551","3.36467","24.853","2.472","7.54","0.486","4.133","0.06","0.13","29.8561","4.70516","26.94","0","SATNPRO1962","25.758","0.3608","5"],
    [32065,"HCEP03730560","2024-08-27 07:15:00","10.7538","3.3645","24.972","2.457","7.53","0.513","4.187","0.04","0.11","29.8554","4.70508","26.78","0","SATNPRO1962","25.584","0.35838","5"],
    [32066,"HCEP03730560","2024-08-27 07:30:00","10.7517","3.36416","25.088","2.409","7.53","0.509","4.487","0.04","0.1","29.8538","4.70489","26.25","0","SATNPRO1962","25.288","0.35416","5"],
    [32067,"HCEP03730560","2024-08-27 07:45:00","10.751","3.36399","25.24","2.373","7.53","0.548","4.68","0.06","0.15","29.8527","4.70475","25.86","0","SATNPRO1962","25.314","0.35456","5"],
    [32068,"HCEP03730560","2024-08-27 08:00:00","10.7498","3.36455","25.435","2.421","7.53","0.458","4.277","0.04","0.19","29.859","4.70568","26.39","0","SATNPRO1962","25.742","0.36054","5"],
    [32069,"HCEP03730560","2024-08-27 08:15:00","10.7504","3.36424","25.608","2.439","7.53","0.484","6.262","0.05","1.75","29.8554","4.70517","26.59","0","SATNPRO1962","25.558","0.35798","5"],
    [32070,"HCEP03730560","2024-08-27 08:30:00","10.751","3.36384","25.687","2.408","7.53","0.533","4.981","0.04","0.27","29.851","4.70454","26.24","0","SATNPRO1962","25.39","0.35562","5"],
    [32071,"HCEP03730560","2024-08-27 08:45:00","10.7516","3.36358","25.826","2.377","7.53","0.504","3.875","0.04","0.2","29.8479","4.7041","25.91","0","SATNPRO1962","25.424","0.35608","5"],
    [32072,"HCEP03730560","2024-08-27 09:00:00","10.7522","3.3636","26.026","2.357","7.53","0.495","4.153","0.05","0.18","29.8475","4.70404","25.69","0","SATNPRO1962","25.233999999999998","0.35346","5"],
    [32073,"HCEP03730560","2024-08-27 09:15:00","10.7538","3.36391","26.239","2.339","7.53","0.607","4.574","0.05","0.18","29.8492","4.70427","25.49","0","SATNPRO1962","25.236","0.35344","5"],
    [32074,"HCEP03730560","2024-08-27 09:30:00","10.7549","3.36446","26.34","2.353","7.53","0.574","4.446","0.11","0.15","29.8537","4.7049","25.65","0","SATNPRO1962","25.48","0.3569","5"],
    [32075,"HCEP03730560","2024-08-27 09:45:00","10.7553","3.36487","26.492","2.4","7.53","0.511","3.882","0.04","0.14","29.8573","4.70542","26.17","0","SATNPRO1962","25.716","0.3602","5"],
    [32076,"HCEP03730560","2024-08-27 10:00:00","10.7573","3.36529","26.636","2.459","7.53","0.484","3.996","0.05","0.14","29.8597","4.70574","26.8","0","SATNPRO1962","25.698","0.35994","5"],
    [32077,"HCEP03730560","2024-08-27 10:15:00","10.7592","3.36547","26.761","2.495","7.54","0.498","3.877","0.06","0.55","29.8599","4.70574","27.2","0","SATNPRO1962","25.93","0.36322","5"],
    [32078,"HCEP03730560","2024-08-27 10:30:00","10.7615","3.36558","26.889","2.499","7.54","0.464","3.593","0.07","0.14","29.8591","4.70559","27.24","0","SATNPRO1962","25.86","0.36224","5"],
    [32079,"HCEP03730560","2024-08-27 10:45:00","10.7643","3.36562","26.993","2.513","7.54","0.465","3.497","0.04","0.11","29.8572","4.70529","27.4","0","SATNPRO1962","25.816","0.36162","5"],
    [32080,"HCEP03730560","2024-08-27 11:00:00","10.7646","3.36545","27.079","2.504","7.54","0.484","3.865","0.04","0.19","29.8553","4.70501","27.3","0","SATNPRO1962","25.668","0.35954","5"],
    [32081,"HCEP03730560","2024-08-27 11:15:00","10.7662","3.36526","27.177","2.485","7.54","0.499","3.986","0.03","0.17","29.852","4.70452","27.09","0","SATNPRO1962","25.472","0.3568","5"],
    [32082,"HCEP03730560","2024-08-27 11:30:00","10.7682","3.36526","27.225","2.471","7.54","0.477","3.989","0.04","0.13","29.8503","4.70426","26.94","0","SATNPRO1962","25.503999999999998","0.35724","5"],
    [32083,"HCEP03730560","2024-08-27 11:45:00","10.7819","3.36617","27.314","2.521","7.54","0.426","3.256","0.04","0.2","29.848","4.70373","27.49","0","SATNPRO1962","26.174","0.36662","5"],
    [32084,"HCEP03730560","2024-08-27 12:00:00","10.8424","3.37411","27.29","2.938","7.58","0.319","2.041","0.04","0.15","29.8768","4.70688","32.1","0","SATNPRO1962","26.98","0.3779","5"],
    [32085,"HCEP03730560","2024-08-27 12:15:00","10.8261","3.37035","27.319","3.149","7.58","0.392","2.535","0.04","0.11","29.8531","4.70376","34.38","0","SATNPRO1962","26.358","0.3692","5"],
    [32086,"HCEP03730560","2024-08-27 12:30:00","10.8119","3.36839","27.352","2.902","7.57","0.382","2.868","0.03","0.08","29.8454","4.70289","31.67","0","SATNPRO1962","26.114","0.36578","5"],
    [32087,"HCEP03730560","2024-08-27 12:45:00","10.7884","3.36556","27.375","2.698","7.56","0.425","3.313","0.06","0.15","29.8368","4.70203","29.43","0","SATNPRO1962","25.668","0.3595","5"],
    [32088,"HCEP03730560","2024-08-27 13:00:00","10.7869","3.36599","27.394","2.568","7.55","0.44","3.5","0.07","0.08","29.8422","4.70282","28.01","0","SATNPRO1962","25.637999999999998","0.3591","5"],
    [32089,"HCEP03730560","2024-08-27 13:15:00","10.7841","3.36468","27.466","2.529","7.54","0.461","2.917","0.31","0.19","29.8317","4.70137","27.58","0","SATNPRO1962","25.572","0.3582","5"],
    [32090,"HCEP03730560","2024-08-27 13:30:00","10.7825","3.36441","27.422","2.488","7.54","0.375","2.963","0.04","0.07","29.8302","4.70119","27.13","0","SATNPRO1962","25.584","0.35834","5"],
    [32091,"HCEP03730560","2024-08-27 13:45:00","10.7789","3.36396","27.38","2.439","7.53","0.429","4.684","0.05","2.3","29.8288","4.70104","26.6","0","SATNPRO1962","25.45","0.35648","5"],
    [32092,"HCEP03730560","2024-08-27 14:00:00","10.7776","3.36399","27.362","2.42","7.53","0.433","4.158","0.1","1.23","29.8302","4.70126","26.39","0","SATNPRO1962","25.33","0.35482","5"],
    [32093,"HCEP03730560","2024-08-27 14:15:00","10.7698","3.36295","27.319","2.309","7.52","0.448","4.104","0.03","0.82","29.8263","4.70083","25.17","0","SATNPRO1962","24.96","0.3496","5"],
    [32094,"HCEP03730560","2024-08-27 14:30:00","10.7653","3.36215","27.32","2.179","7.51","0.5","4.296","0.11","0.35","29.8221","4.7003","23.75","0","SATNPRO1962","24.608","0.34464","5"],
    [32095,"HCEP03730560","2024-08-27 14:45:00","10.7784","3.36122","27.239","2.118","7.51","0.448","4.965","0.04","1.49","29.8023","4.69728","23.1","0","SATNPRO1962","24.49","0.34304","5"],
    [32096,"HCEP03730560","2024-08-27 15:00:00","10.7731","3.36364","27.228","2.208","7.51","0.503","5.69","0.05","1.77","29.8305","4.70136","24.08","0","SATNPRO1962","24.828","0.34774","5"],
    [32097,"HCEP03730560","2024-08-27 15:15:00","10.7744","3.36593","27.148","2.317","7.52","0.573","5.632","0.11","1.14","29.8519","4.70439","25.26","0","SATNPRO1962","25.308","0.3545","5"],
    [32098,"HCEP03730560","2024-08-27 15:30:00","10.7743","3.36708","27.106","2.401","7.53","0.62","5.888","0.06","0.97","29.8633","4.70601","26.18","0","SATNPRO1962","25.266","0.35388","5"],
    [32099,"HCEP03730560","2024-08-27 15:45:00","10.7822","3.36828","27.074","2.521","7.54","0.45","4.676","0.05","1.73","29.8686","4.70664","27.5","0","SATNPRO1962","25.99","0.364","5"],
    [32100,"HCEP03730560","2024-08-27 16:00:00","10.7856","3.36861","27.086","2.619","7.55","0.44","3.914","0.04","0.34","29.8691","4.70666","28.56","0","SATNPRO1962","26.012","0.36432","5"],
    [32101,"HCEP03730560","2024-08-27 16:15:00","10.7939","3.36976","27.002","2.673","7.55","0.505","4.233","0.04","0.39","29.8736","4.70716","29.17","0","SATNPRO1962","26.227999999999998","0.36736","5"],
    [32102,"HCEP03730560","2024-08-27 16:30:00","10.7939","3.37019","26.963","2.701","7.56","0.537","4.753","0.05","0.57","29.8779","4.70776","29.47","0","SATNPRO1962","26.212","0.36712","5"],
    [32103,"HCEP03730560","2024-08-27 16:45:00","10.7982","3.37075","27.016","2.728","7.56","0.512","4.593","0.05","0.66","29.8799","4.70799","29.77","0","SATNPRO1962","26.422","0.37008","5"],
    [32104,"HCEP03730560","2024-08-27 17:00:00","10.8001","3.37093","26.854","2.769","7.56","0.445","3.728","0.04","0.16","29.8801","4.70798","30.22","0","SATNPRO1962","26.28","0.3681","5"],
    [32105,"HCEP03730560","2024-08-27 17:15:00","10.8028","3.37097","26.902","2.792","7.57","0.485","3.749","0.03","0.11","29.8784","4.70769","30.47","0","SATNPRO1962","26.396","0.36976","5"],
    [32106,"HCEP03730560","2024-08-27 17:30:00","10.8051","3.37035","26.888","2.799","7.57","0.442","3.594","0.04","0.29","29.8704","4.70652","30.54","0","SATNPRO1962","26.492","0.37106","5"],
    [32107,"HCEP03730560","2024-08-27 17:45:00","10.7998","3.36998","26.845","2.804","7.57","0.494","3.75","0.04","0.17","29.8711","4.70671","30.6","0","SATNPRO1962","26.398","0.3697","5"],
    [32108,"HCEP03730560","2024-08-27 18:00:00","10.7986","3.37078","26.798","2.765","7.57","0.455","4.043","0.03","0.3","29.8799","4.70797","30.17","0","SATNPRO1962","26.364","0.36924","5"],
    [32109,"HCEP03730560","2024-08-27 18:15:00","10.8014","3.37068","26.946","2.779","7.57","0.411","3.33","0.03","0.32","29.8766","4.70747","30.33","0","SATNPRO1962","26.5","0.3712","5"],
    [32110,"HCEP03730560","2024-08-27 18:30:00","10.7992","3.37059","26.887","2.795","7.57","0.393","3.434","0.04","0.23","29.8776","4.70764","30.5","0","SATNPRO1962","26.33","0.36878","5"],
    [32111,"HCEP03730560","2024-08-27 18:45:00","10.7978","3.37057","26.966","2.758","7.56","0.492","3.828","0.06","0.24","29.8785","4.70779","30.1","0","SATNPRO1962","26.136","0.36602","5"],
    [32112,"HCEP03730560","2024-08-27 19:00:00","10.7969","3.37047","26.877","2.726","7.56","0.494","4.614","0.04","0.68","29.8782","4.70776","29.74","0","SATNPRO1962","26.15","0.36628","5"],
    [32113,"HCEP03730560","2024-08-27 19:15:00","10.7968","3.37046","26.947","2.708","7.56","0.522","4.702","0.06","0.93","29.8782","4.70777","29.55","0","SATNPRO1962","26.202","0.36698","5"],
    [32114,"HCEP03730560","2024-08-27 19:30:00","10.7972","3.37035","26.927","2.702","7.56","0.464","4.714","0.03","1.01","29.8768","4.70756","29.48","0","SATNPRO1962","26.17","0.36654","5"],
    [32115,"HCEP03730560","2024-08-27 19:45:00","10.8008","3.37011","26.891","2.717","7.56","0.458","3.719","0.03","0.25","29.8715","4.70675","29.65","0","SATNPRO1962","26.15","0.36632","5"],
    [32116,"HCEP03730560","2024-08-27 20:00:00","10.8011","3.36981","26.989","2.711","7.56","0.411","3.569","0.03","0.13","29.8683","4.7063","29.58","0","SATNPRO1962","25.9","0.36282","5"],
    [32117,"HCEP03730560","2024-08-27 20:15:00","10.8091","3.36757","26.995","2.63","7.55","0.446","3.645","0.04","0.37","29.8398","4.70211","28.7","0","SATNPRO1962","25.158","0.35238","5"],
    [32118,"HCEP03730560","2024-08-27 20:30:00","10.8113","3.3673","27.006","2.54","7.55","0.461","3.686","0.04","0.1","29.8354","4.70145","27.72","0","SATNPRO1962","25.416","0.356","5"],
    [32119,"HCEP03730560","2024-08-27 20:45:00","10.8056","3.36918","27.102","2.553","7.55","0.501","3.938","0.14","0.21","29.8585","4.70483","27.86","0","SATNPRO1962","25.78","0.36106","5"],
    [32120,"HCEP03730560","2024-08-27 21:00:00","10.8446","3.36553","27.143","2.58","7.55","0.49","3.897","0.05","0.21","29.7908","4.69461","28.17","0","SATNPRO1962","25.092","0.35148","5"],
    [32121,"HCEP03730560","2024-08-27 21:15:00","10.7992","3.37002","27.165","2.584","7.55","0.543","4.01","0.05","0.15","29.8718","4.70683","28.2","0","SATNPRO1962","25.928","0.36316","5"],
    [32122,"HCEP03730560","2024-08-27 21:30:00","10.7985","3.37009","27.201","2.626","7.55","0.494","3.823","0.07","0.12","29.8731","4.70703","28.65","0","SATNPRO1962","25.932","0.3633","5"],
    [32123,"HCEP03730560","2024-08-27 21:45:00","10.8008","3.36975","27.228","2.633","7.55","0.474","3.529","0.07","0.2","29.8679","4.70625","28.73","0","SATNPRO1962","25.69","0.35982","5"],
    [32124,"HCEP03730560","2024-08-27 22:00:00","10.8029","3.36942","27.249","2.628","7.55","0.428","3.403","0.07","0.23","29.8629","4.70551","28.68","0","SATNPRO1962","25.472","0.35676","5"],
    [32125,"HCEP03730560","2024-08-27 22:15:00","10.8058","3.36811","27.225","2.589","7.55","0.424","3.162","0.06","0.09","29.8477","4.70331","28.25","0","SATNPRO1962","25.506","0.35726","5"],
    [32126,"HCEP03730560","2024-08-27 22:30:00","10.8017","3.3696","27.22","2.582","7.55","0.39","3.388","0.03","0.15","29.8657","4.70593","28.17","0","SATNPRO1962","25.768","0.36092","5"],
    [32127,"HCEP03730560","2024-08-27 22:45:00","10.7963","3.37001","27.125","2.59","7.55","0.602","4.295","0.11","0.87","29.8742","4.70721","28.26","0","SATNPRO1962","25.708","0.36008","5"],
    [32128,"HCEP03730560","2024-08-27 23:00:00","10.7971","3.37008","27.113","2.584","7.55","0.466","3.522","0.09","0.17","29.8742","4.7072","28.19","0","SATNPRO1962","25.828","0.36176","5"],
    [32129,"HCEP03730560","2024-08-27 23:15:00","10.7957","3.37015","27.083","2.59","7.55","0.534","4.418","0.07","0.78","29.876","4.70747","28.26","0","SATNPRO1962","25.69","0.35984","5"],
    [32130,"HCEP03730560","2024-08-27 23:30:00","10.7966","3.37017","27.046","2.587","7.55","0.466","3.756","0.07","0.21","29.8756","4.7074","28.23","0","SATNPRO1962","25.64","0.35912","5"],
    [32131,"HCEP03730560","2024-08-27 23:45:00","10.7969","3.37017","27.001","2.598","7.55","0.427","3.662","0.04","0.16","29.8753","4.70735","28.34","0","SATNPRO1962","25.644000000000002","0.35918","5"],
    [32132,"HCEP03730560","2024-08-28 00:00:00","10.7966","3.37015","26.943","2.587","7.55","0.55","4.004","0.14","0.14","29.8754","4.70737","28.23","0","SATNPRO1962","25.618","0.3588","5"],
    [32133,"HCEP03730560","2024-08-28 00:15:00","10.7963","3.37008","26.871","2.566","7.55","0.526","3.949","0.09","0.28","29.8749","4.7073","28","0","SATNPRO1962","25.848","0.36206","5"],
    [32134,"HCEP03730560","2024-08-28 00:30:00","10.796","3.37006","26.786","2.549","7.55","0.438","3.885","0.07","0.2","29.875","4.70731","27.82","0","SATNPRO1962","25.456","0.35654","5"],
    [32135,"HCEP03730560","2024-08-28 00:45:00","10.7961","3.37001","26.694","2.537","7.55","0.502","3.861","0.1","0.17","29.8745","4.70724","27.68","0","SATNPRO1962","25.378","0.35546","5"],
    [32136,"HCEP03730560","2024-08-28 01:00:00","10.7955","3.36996","26.584","2.529","7.55","0.432","3.817","0.07","0.2","29.8745","4.70723","27.6","0","SATNPRO1962","25.36","0.3552","5"],
    [32137,"HCEP03730560","2024-08-28 01:15:00","10.7957","3.36992","26.459","2.531","7.54","0.483","4.038","0.07","0.13","29.874","4.70716","27.62","0","SATNPRO1962","25.654","0.35934","5"],
    [32138,"HCEP03730560","2024-08-28 01:30:00","10.7955","3.36991","26.336","2.522","7.54","0.546","4","0.15","0.22","29.8741","4.70717","27.51","0","SATNPRO1962","25.676000000000002","0.35962","5"],
    [32139,"HCEP03730560","2024-08-28 01:45:00","10.7957","3.36987","26.197","2.512","7.54","0.519","4.005","0.11","0.2","29.8736","4.70709","27.41","0","SATNPRO1962","25.682","0.35974","5"],
    [32140,"HCEP03730560","2024-08-28 02:00:00","10.7962","3.36984","26.05","2.511","7.54","0.523","3.826","0.13","0.13","29.873","4.70699","27.39","0","SATNPRO1962","25.852","0.36214","5"],
    [32141,"HCEP03730560","2024-08-28 02:15:00","10.7959","3.36978","25.884","2.501","7.54","0.484","3.952","0.05","0.16","29.8726","4.70693","27.29","0","SATNPRO1962","25.438","0.35628","5"],
    [32142,"HCEP03730560","2024-08-28 02:30:00","10.7955","3.36975","25.731","2.485","7.54","0.517","4.191","0.1","0.21","29.8728","4.70694","27.12","0","SATNPRO1962","25.276","0.35404","5"],
    [32143,"HCEP03730560","2024-08-28 02:45:00","10.7951","3.36969","25.577","2.473","7.54","0.502","4.079","0.08","0.18","29.8726","4.70692","26.98","0","SATNPRO1962","25.304","0.35444","5"],
    [32144,"HCEP03730560","2024-08-28 03:00:00","10.7951","3.36964","25.411","2.467","7.54","0.634","4.697","0.17","0.34","29.8721","4.70684","26.91","0","SATNPRO1962","25.330000000000002","0.35484","5"],
    [32145,"HCEP03730560","2024-08-28 03:15:00","10.7953","3.36959","25.244","2.467","7.54","0.508","4.505","0.06","0.24","29.8716","4.70675","26.91","0","SATNPRO1962","25.497999999999998","0.35718","5"],
    [32146,"HCEP03730560","2024-08-28 03:30:00","10.7944","3.36952","25.081","2.48","7.54","0.475","4.371","0.09","0.41","29.8717","4.70677","27.06","0","SATNPRO1962","25.398","0.35572","5"],
    [32147,"HCEP03730560","2024-08-28 03:45:00","10.7948","3.36947","24.93","2.455","7.54","0.869","5.613","0.05","0.19","29.8709","4.70665","26.78","0","SATNPRO1962","25.384","0.35554","5"],
    [32148,"HCEP03730560","2024-08-28 04:00:00","10.7947","3.36941","24.784","2.46","7.54","0.951","5.436","0.09","0.4","29.8704","4.70657","26.84","0","SATNPRO1962","25.317999999999998","0.35462","5"],
    [32149,"HCEP03730560","2024-08-28 04:15:00","10.7953","3.36938","24.656","2.466","7.54","0.462","3.952","0.09","0.38","29.8698","4.70646","26.91","0","SATNPRO1962","25.4","0.3558","5"],
    [32150,"HCEP03730560","2024-08-28 04:30:00","10.7961","3.36932","24.533","2.498","7.54","0.904","4.986","0.14","0.74","29.8686","4.70627","27.25","0","SATNPRO1962","25.658","0.35938","5"],
    [32151,"HCEP03730560","2024-08-28 04:45:00","10.7826","3.36455","24.432","2.463","7.53","0.353","4.894","0.06","1.13","29.8327","4.70138","26.86","0","SATNPRO1962","25.37","0.35534","5"],
    [32152,"HCEP03730560","2024-08-28 05:00:00","10.7782","3.36417","24.336","2.345","7.53","0.278","3.334","0.03","0.31","29.8326","4.70143","25.57","0","SATNPRO1962","25.194","0.3529","5"],
    [32153,"HCEP03730560","2024-08-28 05:15:00","10.7973","3.3676","24.278","2.421","7.54","0.387","3.884","0.03","0.21","29.8508","4.70371","26.42","0","SATNPRO1962","25.884","0.36252","5"],
    [32154,"HCEP03730560","2024-08-28 05:30:00","10.7861","3.3666","24.237","2.486","7.54","0.489","4.548","0.05","0.17","29.8501","4.70378","27.11","0","SATNPRO1962","25.332","0.35478","5"],
    [32155,"HCEP03730560","2024-08-28 05:45:00","10.7909","3.36747","24.218","2.415","7.53","0.484","3.839","0.08","0.17","29.8547","4.70436","26.34","0","SATNPRO1962","25.036","0.35068","5"],
    [32156,"HCEP03730560","2024-08-28 06:00:00","10.7881","3.36703","24.22","2.364","7.53","0.408","3.581","0.06","0.16","29.8527","4.70412","25.78","0","SATNPRO1962","25.074","0.35122","5"],
    [32157,"HCEP03730560","2024-08-28 06:15:00","10.7887","3.36707","24.237","2.318","7.53","0.495","4.103","0.07","0.23","29.8526","4.70409","25.29","0","SATNPRO1962","24.62","0.34484","5"],
    [32158,"HCEP03730560","2024-08-28 06:30:00","10.7803","3.36561","24.245","2.267","7.52","0.395","3.449","0.08","0.48","29.8451","4.70316","24.73","0","SATNPRO1962","24.81","0.3475","5"],
    [32159,"HCEP03730560","2024-08-28 06:45:00","10.7712","3.36439","24.291","2.213","7.52","0.336","2.96","0.04","0.36","29.8405","4.70265","24.13","0","SATNPRO1962","24.486","0.34298","5"],
    [32160,"HCEP03730560","2024-08-28 07:00:00","10.765","3.36246","24.349","2.085","7.51","0.27","2.733","0.02","0.04","29.8266","4.70078","22.73","0","SATNPRO1962","24.194","0.33888","5"],
    [32161,"HCEP03730560","2024-08-28 07:15:00","10.7652","3.3625","24.433","1.994","7.5","0.307","2.769","0.05","0.06","29.8268","4.7008","21.74","0","SATNPRO1962","24.18","0.33864","5"],
    [32162,"HCEP03730560","2024-08-28 07:30:00","10.7653","3.36288","24.529","1.986","7.5","0.278","2.914","0.03","0.13","29.8304","4.70132","21.65","0","SATNPRO1962","24.364","0.3413","5"],
    [32163,"HCEP03730560","2024-08-28 07:45:00","10.7696","3.36415","24.641","2.034","7.5","0.367","3.101","0.09","0.09","29.8393","4.70252","22.18","0","SATNPRO1962","24.718","0.34622","5"],
    [32164,"HCEP03730560","2024-08-28 08:00:00","10.7774","3.36583","24.729","2.108","7.51","0.36","3.672","0.06","0.32","29.8494","4.70385","22.99","0","SATNPRO1962","24.636","0.34506","5"],
    [32165,"HCEP03730560","2024-08-28 08:15:00","10.7794","3.36646","24.826","2.163","7.51","0.411","4.341","0.07","1.86","29.8539","4.70447","23.59","0","SATNPRO1962","24.6","0.34456","5"],
    [32166,"HCEP03730560","2024-08-28 08:30:00","10.7801","3.36673","24.959","2.195","7.51","0.442","3.913","0.09","0.25","29.856","4.70476","23.94","0","SATNPRO1962","24.774","0.34704","5"],
    [32167,"HCEP03730560","2024-08-28 08:45:00","10.7846","3.36565","25.151","2.198","7.51","0.429","4.296","0.03","0.3","29.8416","4.70265","23.97","0","SATNPRO1962","24.698","0.34596","5"],
    [32168,"HCEP03730560","2024-08-28 09:00:00","10.8097","3.32321","25.285","2.024","7.51","0.411","4.046","0.05","0.5","29.4047","4.64009","22.02","0","SATNPRO1962","23.966","0.33566","5"],
    [32169,"HCEP03730560","2024-08-28 09:15:00","10.8053","3.32523","25.443","2.011","7.5","0.511","4.742","0.04","0.14","29.4281","4.64349","21.88","0","SATNPRO1962","23.878","0.33446","5"],
    [32170,"HCEP03730560","2024-08-28 09:30:00","10.7814","3.35242","25.603","2.024","7.5","0.54","4.772","0.11","0.33","29.714","4.68458","22.05","0","SATNPRO1962","24.192","0.33884","5"],
    [32171,"HCEP03730560","2024-08-28 09:45:00","10.7734","3.35005","25.787","2.017","7.5","0.59","4.805","0.22","0.72","29.6972","4.68232","21.98","0","SATNPRO1962","23.922","0.33506","5"],
    [32172,"HCEP03730560","2024-08-28 10:00:00","10.7696","3.34945","25.964","1.914","7.49","0.456","4.692","0.12","0.82","29.6943","4.68198","20.85","0","SATNPRO1962","23.3","0.32638","5"],
    [32173,"HCEP03730560","2024-08-28 10:15:00","10.7689","3.34555","26.136","1.782","7.48","0.471","4.561","0.18","0.99","29.6566","4.67663","19.4","0","SATNPRO1962","20.902","0.29274","5"],
    [32174,"HCEP03730560","2024-08-28 10:30:00","10.7698","3.34666","26.298","1.692","7.47","0.647","30.029","0.34","10.39","29.6666","4.67805","18.42","0","SATNPRO1962","12.01","0.1682","5"],
    [32175,"HCEP03730560","2024-08-28 10:45:00","10.7711","3.34868","26.458","1.63","7.47","0.447","8.74","0.11","5.94","29.6853","4.68071","17.75","0","SATNPRO1962","22.89","0.32062","5"],
    [32176,"HCEP03730560","2024-08-28 11:00:00","10.7728","3.36087","26.623","1.577","7.46","0.405","5.95","0.08","2.4","29.8036","4.69751","17.19","0","SATNPRO1962","22.34","0.31292","5"],
    [32177,"HCEP03730560","2024-08-28 11:15:00","10.7763","3.36038","26.752","1.534","7.46","0.648","19.263","0.24","12.39","29.796","4.69638","16.73","0","SATNPRO1962","23.698","0.33192","5"],
    [32178,"HCEP03730560","2024-08-28 11:30:00","10.7793","3.36004","26.868","1.492","7.46","0.404","10.347","0.1","7.1","29.7901","4.69551","16.27","0","SATNPRO1962","22.45","0.31446","5"],
    [32179,"HCEP03730560","2024-08-28 11:45:00","10.7779","3.3601","26.992","1.473","7.45","0.375","3.721","0.04","0.28","29.7918","4.69578","16.06","0","SATNPRO1962","22.392","0.31364","5"],
    [32180,"HCEP03730560","2024-08-28 12:00:00","10.7766","3.34717","27.085","1.493","7.45","0.349","3.748","0.04","0.42","29.6658","4.67788","16.26","0","SATNPRO1962","23.082","0.3233","5"],
    [32181,"HCEP03730560","2024-08-28 12:15:00","10.7784","3.35683","27.178","1.503","7.45","0.658","9.486","0.32","7.06","29.7592","4.69114","16.38","0","SATNPRO1962","23.126","0.3239","5"],
    [32182,"HCEP03730560","2024-08-28 12:30:00","10.7774","3.35722","27.265","1.521","7.46","0.409","5.743","0.11","4.76","29.7638","4.69182","16.57","0","SATNPRO1962","23.922","0.33506","5"],
    [32183,"HCEP03730560","2024-08-28 12:45:00","10.7786","3.35759","27.329","1.532","7.46","0.552","14.057","0.16","9.75","29.7665","4.69218","16.7","0","SATNPRO1962","23.168","0.32452","5"],
    [32184,"HCEP03730560","2024-08-28 13:00:00","10.7789","3.35757","27.36","1.531","7.46","0.444","6.635","0.19","6.35","29.766","4.69212","16.69","0","SATNPRO1962","22.864","0.32026","5"],
    [32185,"HCEP03730560","2024-08-28 13:15:00","10.7789","3.35749","27.401","1.511","7.45","0.47","10.841","0.14","7.81","29.7652","4.692","16.47","0","SATNPRO1962","22.602","0.31658","5"],
    [32186,"HCEP03730560","2024-08-28 13:30:00","10.7791","3.36007","27.424","1.484","7.45","0.322","3.388","0.02","0.12","29.7903","4.69557","16.18","0","SATNPRO1962","22.474","0.31478","5"],
    [32187,"HCEP03730560","2024-08-28 13:45:00","10.7799","3.35996","27.434","1.463","7.45","0.353","4.396","0.05","3.4","29.7886","4.69531","15.95","0","SATNPRO1962","22.494","0.31504","5"],
    [32188,"HCEP03730560","2024-08-28 14:00:00","10.7801","3.36004","27.45","1.455","7.45","0.307","3.29","0.03","0.3","29.7892","4.6954","15.86","0","SATNPRO1962","22.336000000000002","0.31284","5"],
    [32189,"HCEP03730560","2024-08-28 14:15:00","10.7801","3.35997","27.451","1.45","7.45","0.352","4.358","0.04","1.75","29.7886","4.69531","15.81","0","SATNPRO1962","22.422","0.31404","5"],
    [32190,"HCEP03730560","2024-08-28 14:30:00","10.7811","3.35989","27.481","1.442","7.45","0.298","3.171","0.01","0.09","29.787","4.69507","15.72","0","SATNPRO1962","22.234","0.3114","5"],
    [32191,"HCEP03730560","2024-08-28 14:45:00","10.7838","3.35968","27.484","1.434","7.45","0.326","2.98","0.03","0.15","29.7826","4.6944","15.63","0","SATNPRO1962","22.128","0.3099","5"],
    [32192,"HCEP03730560","2024-08-28 15:00:00","10.7851","3.35952","27.463","1.422","7.45","0.297","2.959","0.03","0.21","29.7801","4.69402","15.5","0","SATNPRO1962","22.202","0.31096","5"],
    [32193,"HCEP03730560","2024-08-28 15:15:00","10.7867","3.35943","27.44","1.409","7.45","0.348","3.603","0.1","3.85","29.7779","4.69368","15.36","0","SATNPRO1962","22.312","0.31246","5"],
    [32194,"HCEP03730560","2024-08-28 15:30:00","10.7869","3.3594","27.399","1.4","7.44","0.305","3.365","0.05","1.68","29.7775","4.69362","15.26","0","SATNPRO1962","22.024","0.30846","5"],
    [32195,"HCEP03730560","2024-08-28 15:45:00","10.7877","3.35936","27.362","1.397","7.44","0.325","2.916","0.04","0.21","29.7764","4.69345","15.23","0","SATNPRO1962","21.916","0.307","5"],
    [32196,"HCEP03730560","2024-08-28 16:00:00","10.7894","3.3594","27.303","1.397","7.44","0.336","3.104","0.23","0.67","29.7754","4.69328","15.23","0","SATNPRO1962","22.416","0.31396","5"],
    [32197,"HCEP03730560","2024-08-28 16:15:00","10.7878","3.35951","27.258","1.392","7.44","0.353","3.447","0.07","0.49","29.7778","4.69365","15.18","0","SATNPRO1962","21.774","0.30498","5"],
    [32198,"HCEP03730560","2024-08-28 16:30:00","10.7884","3.35997","27.19","1.4","7.44","0.307","3.227","0.03","0.29","29.7819","4.69422","15.26","0","SATNPRO1962","21.908","0.30686","5"],
    [32199,"HCEP03730560","2024-08-28 16:45:00","10.7923","3.36045","27.119","1.422","7.45","0.345","3.234","0.04","0.36","29.7835","4.69438","15.5","0","SATNPRO1962","21.858","0.30616","5"],
    [32200,"HCEP03730560","2024-08-28 17:00:00","10.7871","3.36047","27.064","1.442","7.45","0.311","3.358","0.03","0.41","29.788","4.69509","15.72","0","SATNPRO1962","21.986","0.30796","5"],
    [32201,"HCEP03730560","2024-08-28 17:15:00","10.7925","3.36052","27.004","1.451","7.45","0.329","2.829","0.06","0.09","29.784","4.69444","15.82","0","SATNPRO1962","22.404","0.31382","5"],
    [32202,"HCEP03730560","2024-08-28 17:30:00","10.7943","3.36103","26.996","1.502","7.45","0.311","2.913","0.05","0.19","29.7876","4.69492","16.38","0","SATNPRO1962","22.19","0.31082","5"],
    [32203,"HCEP03730560","2024-08-28 17:45:00","10.8344","3.36381","27.018","1.621","7.46","0.411","3.153","0.07","0.18","29.7823","4.69355","17.69","0","SATNPRO1962","22.512","0.31534","5"],
    [32204,"HCEP03730560","2024-08-28 18:00:00","10.8264","3.36367","26.991","1.734","7.47","0.398","3.981","0.04","0.28","29.7874","4.6944","18.92","0","SATNPRO1962","22.646","0.31722","5"],
    [32205,"HCEP03730560","2024-08-28 18:15:00","10.8163","3.36322","26.835","1.72","7.47","0.464","4.42","0.06","0.25","29.7913","4.69509","18.76","0","SATNPRO1962","22.214000000000002","0.31116","5"],
    [32206,"HCEP03730560","2024-08-28 18:30:00","10.8097","3.36283","26.871","1.677","7.46","0.407","4.068","0.06","0.18","29.7928","4.69542","18.29","0","SATNPRO1962","22.374","0.3134","5"],
    [32207,"HCEP03730560","2024-08-28 18:45:00","10.8056","3.36242","26.832","1.641","7.46","0.417","3.874","0.05","0.27","29.792","4.69537","17.9","0","SATNPRO1962","22.13","0.30994","5"],
    [32208,"HCEP03730560","2024-08-28 19:00:00","10.7917","3.36124","26.723","1.577","7.46","0.353","3.66","0.05","0.17","29.7918","4.69555","17.2","0","SATNPRO1962","21.75","0.30464","5"],
    [32209,"HCEP03730560","2024-08-28 19:15:00","10.7899","3.36096","26.663","1.506","7.45","0.377","3.584","0.05","0.16","29.7906","4.6954","16.43","0","SATNPRO1962","21.696","0.30392","5"],
    [32210,"HCEP03730560","2024-08-28 19:30:00","10.7888","3.36116","26.647","1.487","7.45","0.355","3.588","0.05","0.15","29.7935","4.69582","16.21","0","SATNPRO1962","21.876","0.30646","5"],
    [32211,"HCEP03730560","2024-08-28 19:45:00","10.7849","3.3609","26.644","1.481","7.45","0.378","3.858","0.04","0.52","29.7942","4.69599","16.15","0","SATNPRO1962","21.71","0.30404","5"],
    [32212,"HCEP03730560","2024-08-28 20:00:00","10.7861","3.36112","26.669","1.465","7.45","0.379","3.86","0.07","0.17","29.7952","4.69611","15.98","0","SATNPRO1962","21.904","0.3068","5"],
    [32213,"HCEP03730560","2024-08-28 20:15:00","10.7859","3.36104","26.702","1.478","7.45","0.364","3.751","0.05","0.25","29.7947","4.69604","16.12","0","SATNPRO1962","21.932","0.30716","5"],
    [32214,"HCEP03730560","2024-08-28 20:30:00","10.7844","3.36064","26.723","1.462","7.45","0.332","3.872","0.03","0.13","29.792","4.69568","15.94","0","SATNPRO1962","21.72","0.30422","5"],
    [32215,"HCEP03730560","2024-08-28 20:45:00","10.7827","3.3605","26.73","1.432","7.45","0.387","4.155","0.04","0.23","29.792","4.69571","15.61","0","SATNPRO1962","21.594","0.30244","5"],
    [32216,"HCEP03730560","2024-08-28 21:00:00","10.7861","3.35991","26.727","1.403","7.45","0.328","3.882","0.03","0.35","29.7833","4.69442","15.3","0","SATNPRO1962","21.758","0.30474","5"],
    [32217,"HCEP03730560","2024-08-28 21:15:00","10.7857","3.35997","26.741","1.39","7.44","0.361","3.815","0.05","0.25","29.7842","4.69456","15.15","0","SATNPRO1962","21.47","0.30072","5"],
    [32218,"HCEP03730560","2024-08-28 21:30:00","10.7872","3.36002","26.767","1.378","7.44","0.347","4.027","0.06","0.19","29.7836","4.69445","15.02","0","SATNPRO1962","21.422","0.30004","5"],
    [32219,"HCEP03730560","2024-08-28 21:45:00","10.7902","3.36006","26.795","1.37","7.44","0.367","3.927","0.04","0.2","29.7815","4.69412","14.94","0","SATNPRO1962","21.364","0.29924","5"],
    [32220,"HCEP03730560","2024-08-28 22:00:00","10.7941","3.36026","26.827","1.392","7.44","0.359","4.311","0.04","0.26","29.7803","4.69388","15.18","0","SATNPRO1962","21.584","0.30234","5"],
    [32221,"HCEP03730560","2024-08-28 22:15:00","10.8005","3.36052","26.862","1.432","7.45","0.36","3.748","0.04","0.36","29.7776","4.6934","15.62","0","SATNPRO1962","21.908","0.30688","5"],
    [32222,"HCEP03730560","2024-08-28 22:30:00","10.8111","3.36107","26.89","1.512","7.45","0.324","3.305","0.06","0.17","29.7744","4.69278","16.49","0","SATNPRO1962","22.028","0.3085","5"],
    [32223,"HCEP03730560","2024-08-28 22:45:00","10.8094","3.36094","26.913","1.564","7.45","0.335","3.282","0.03","0.12","29.7745","4.69282","17.05","0","SATNPRO1962","22.080000000000002","0.3093","5"],
    [32224,"HCEP03730560","2024-08-28 23:00:00","10.8055","3.36073","26.942","1.563","7.45","0.315","3.61","0.02","0.34","29.7757","4.69305","17.04","0","SATNPRO1962","22.142","0.31014","5"],
    [32225,"HCEP03730560","2024-08-28 23:15:00","10.8023","3.36096","26.953","1.557","7.45","0.346","3.328","0.05","0.15","29.7804","4.69377","16.98","0","SATNPRO1962","22.176","0.31056","5"],
    [32226,"HCEP03730560","2024-08-28 23:30:00","10.8003","3.36111","26.973","1.562","7.45","0.306","3.361","0.04","0.23","29.7835","4.69425","17.03","0","SATNPRO1962","22.444","0.31436","5"],
    [32227,"HCEP03730560","2024-08-28 23:45:00","10.7985","3.36156","26.985","1.564","7.45","0.749","17.462","0.67","24.03","29.7895","4.69512","17.06","0","SATNPRO1962","22.244","0.31156","5"],
    [32228,"HCEP03730560","2024-08-29 00:00:00","10.8457","3.37564","26.99","1.836","7.49","0.438","5.383","0.03","0.31","29.8892","4.70857","20.05","0","SATNPRO1962","24.598","0.34454","5"],
    [32229,"HCEP03730560","2024-08-29 00:15:00","10.8578","3.37943","26.981","2.317","7.52","0.403","4.448","0.05","0.31","29.9165","4.71226","25.32","0","SATNPRO1962","25.580000000000002","0.35826","5"],
    [32230,"HCEP03730560","2024-08-29 00:30:00","10.8628","3.38151","26.961","2.561","7.54","0.391","4.589","0.06","0.63","29.9328","4.71451","27.99","0","SATNPRO1962","25.784","0.36112","5"],
    [32231,"HCEP03730560","2024-08-29 00:45:00","10.866","3.38247","26.931","2.697","7.55","0.398","4.054","0.06","0.27","29.9397","4.71542","29.48","0","SATNPRO1962","26.076","0.36528","5"],
    [32232,"HCEP03730560","2024-08-29 01:00:00","10.8698","3.38194","26.891","2.788","7.56","0.337","3.51","0.04","0.39","29.9314","4.71419","30.48","0","SATNPRO1962","26.314","0.36856","5"],
    [32233,"HCEP03730560","2024-08-29 01:15:00","10.8711","3.3827","26.838","2.85","7.57","0.372","3.679","0.06","0.23","29.9378","4.71508","31.16","0","SATNPRO1962","26.224","0.36734","5"],
    [32234,"HCEP03730560","2024-08-29 01:30:00","10.869","3.38272","26.775","2.865","7.57","0.339","3.823","0.03","0.2","29.9398","4.71539","31.33","0","SATNPRO1962","26.174","0.36664","5"],
    [32235,"HCEP03730560","2024-08-29 01:45:00","10.8703","3.38259","26.697","2.867","7.57","0.376","3.789","0.03","0.2","29.9375","4.71503","31.35","0","SATNPRO1962","26.112","0.36574","5"],
    [32236,"HCEP03730560","2024-08-29 02:00:00","10.8699","3.38338","26.605","2.877","7.58","0.35","4.245","0.03","0.23","29.9455","4.71618","31.46","0","SATNPRO1962","26.262","0.36786","5"],
    [32237,"HCEP03730560","2024-08-29 02:15:00","10.8726","3.38424","26.503","2.892","7.58","0.403","4.399","0.04","0.22","29.9518","4.71703","31.62","0","SATNPRO1962","26.366","0.36932","5"],
    [32238,"HCEP03730560","2024-08-29 02:30:00","10.8742","3.38524","26.389","2.922","7.58","0.366","4.266","0.05","0.22","29.9603","4.7182","31.95","0","SATNPRO1962","26.516","0.37138","5"],
    [32239,"HCEP03730560","2024-08-29 02:45:00","10.8761","3.38618","26.259","2.959","7.59","0.39","4.345","0.02","0.26","29.9681","4.71927","32.36","0","SATNPRO1962","26.472","0.37076","5"],
    [32240,"HCEP03730560","2024-08-29 03:00:00","10.8767","3.38679","26.141","2.993","7.59","0.365","4.159","0.03","0.23","29.9736","4.72004","32.74","0","SATNPRO1962","26.924","0.37714","5"],
    [32241,"HCEP03730560","2024-08-29 03:15:00","10.8771","3.38735","25.994","3.025","7.6","0.387","3.826","0.05","0.3","29.9789","4.72077","33.09","0","SATNPRO1962","27.04","0.37874","5"],
    [32242,"HCEP03730560","2024-08-29 03:30:00","10.8784","3.38783","25.832","3.06","7.6","0.335","3.636","0.03","0.19","29.9826","4.72128","33.47","0","SATNPRO1962","27.122","0.37988","5"],
    [32243,"HCEP03730560","2024-08-29 03:45:00","10.878","3.38804","25.666","3.067","7.6","0.401","4.146","0.04","0.23","29.985","4.72161","33.55","0","SATNPRO1962","26.964","0.37768","5"],
    [32244,"HCEP03730560","2024-08-29 04:00:00","10.8795","3.38851","25.505","3.074","7.6","0.336","3.562","0.03","0.21","29.9884","4.72206","33.63","0","SATNPRO1962","27.042","0.3788","5"],
    [32245,"HCEP03730560","2024-08-29 04:15:00","10.8794","3.38855","25.334","3.09","7.6","0.372","3.631","0.03","0.18","29.989","4.72213","33.8","0","SATNPRO1962","26.974","0.37782","5"],
    [32246,"HCEP03730560","2024-08-29 04:30:00","10.8794","3.38858","25.178","3.091","7.6","0.386","4.118","0.06","0.27","29.9894","4.72219","33.81","0","SATNPRO1962","26.99","0.37802","5"],
    [32247,"HCEP03730560","2024-08-29 04:45:00","10.8791","3.38857","24.993","3.084","7.6","0.38","3.861","0.03","0.21","29.9895","4.7222","33.74","0","SATNPRO1962","27.048000000000002","0.37888","5"],
    [32248,"HCEP03730560","2024-08-29 05:00:00","10.8788","3.38858","24.868","3.077","7.6","0.336","3.566","0.04","0.22","29.99","4.72226","33.66","0","SATNPRO1962","27.082","0.37936","5"],
    [32249,"HCEP03730560","2024-08-29 05:15:00","10.8786","3.38861","24.733","3.07","7.6","0.432","4.426","0.05","0.46","29.9906","4.72234","33.58","0","SATNPRO1962","26.919999999999998","0.37704","5"],
    [32250,"HCEP03730560","2024-08-29 05:30:00","10.8788","3.38871","24.59","3.059","7.6","0.439","4.622","0.05","0.33","29.9914","4.72244","33.46","0","SATNPRO1962","26.952","0.37752","5"],
    [32251,"HCEP03730560","2024-08-29 05:45:00","10.8794","3.38889","24.475","3.058","7.6","0.408","4.158","0.04","0.28","29.9927","4.72262","33.45","0","SATNPRO1962","26.952","0.3775","5"],
    [32252,"HCEP03730560","2024-08-29 06:00:00","10.8789","3.38878","24.369","3.052","7.6","0.418","4.022","0.07","0.1","29.9921","4.72253","33.39","0","SATNPRO1962","27.052","0.37894","5"],
    [32253,"HCEP03730560","2024-08-29 06:15:00","10.8786","3.38873","24.288","3.045","7.6","0.478","4.058","0.14","0.32","29.9919","4.7225","33.31","0","SATNPRO1962","26.896","0.37674","5"],
    [32254,"HCEP03730560","2024-08-29 06:30:00","10.8788","3.38875","24.231","3.041","7.6","0.397","4.257","0.04","0.24","29.9919","4.7225","33.26","0","SATNPRO1962","27","0.37818","5"],
    [32255,"HCEP03730560","2024-08-29 06:45:00","10.8785","3.38872","24.194","3.041","7.6","0.426","3.884","0.07","0.41","29.9919","4.7225","33.27","0","SATNPRO1962","27.378","0.38342","5"],
    [32256,"HCEP03730560","2024-08-29 07:00:00","10.8787","3.3887","24.188","3.037","7.6","0.424","3.802","0.04","0.14","29.9915","4.72244","33.22","0","SATNPRO1962","27.150000000000002","0.38028","5"],
    [32257,"HCEP03730560","2024-08-29 07:15:00","10.878","3.38858","24.213","3.036","7.6","0.382","3.629","0.05","0.24","29.991","4.72237","33.21","0","SATNPRO1962","26.862000000000002","0.37626","5"],
    [32258,"HCEP03730560","2024-08-29 07:30:00","10.8776","3.38842","24.241","3.032","7.6","0.433","3.838","0.07","0.28","29.9897","4.7222","33.17","0","SATNPRO1962","26.84","0.37596","5"],
    [32259,"HCEP03730560","2024-08-29 07:45:00","10.8777","3.38843","24.276","3.035","7.6","0.427","3.778","0.08","0.12","29.9896","4.72218","33.2","0","SATNPRO1962","26.914","0.37702","5"],
    [32260,"HCEP03730560","2024-08-29 08:00:00","10.8762","3.38814","24.337","3.012","7.6","0.48","4.563","0.06","0.17","29.988","4.72199","32.94","0","SATNPRO1962","26.722","0.37426","5"],
    [32261,"HCEP03730560","2024-08-29 08:15:00","10.8766","3.3882","24.422","2.979","7.6","0.491","4.925","0.04","0.43","29.9882","4.72201","32.58","0","SATNPRO1962","26.688","0.3738","5"],
    [32262,"HCEP03730560","2024-08-29 08:30:00","10.8763","3.38809","24.502","2.998","7.6","0.383","4.055","0.05","0.2","29.9874","4.72191","32.79","0","SATNPRO1962","26.88","0.3765","5"],
    [32263,"HCEP03730560","2024-08-29 08:45:00","10.8768","3.38804","24.579","2.994","7.6","0.411","3.775","0.05","0.18","29.9864","4.72177","32.75","0","SATNPRO1962","27.046","0.37884","5"],
    [32264,"HCEP03730560","2024-08-29 09:00:00","10.8766","3.38784","24.623","3.022","7.6","0.471","3.616","0.42","0.13","29.9847","4.72152","33.05","0","SATNPRO1962","27.102","0.37962","5"],
    [32265,"HCEP03730560","2024-08-29 09:15:00","10.8752","3.38759","24.761","3.014","7.6","0.412","3.954","0.04","0.2","29.9833","4.72135","32.97","0","SATNPRO1962","26.874","0.37644","5"],
    [32266,"HCEP03730560","2024-08-29 09:30:00","10.8733","3.38644","24.93","2.998","7.6","0.319","3.285","0.05","0.22","29.9735","4.72","32.79","0","SATNPRO1962","26.753999999999998","0.37474","5"],
    [32267,"HCEP03730560","2024-08-29 09:45:00","10.8732","3.38637","25.071","2.992","7.6","0.428","4.541","0.06","0.75","29.9728","4.71992","32.72","0","SATNPRO1962","26.964","0.3777","5"],
    [32268,"HCEP03730560","2024-08-29 10:00:00","10.8706","3.3861","25.216","2.943","7.59","0.4","4.196","0.08","0.28","29.9722","4.71988","32.19","0","SATNPRO1962","26.268","0.36794","5"],
    [32269,"HCEP03730560","2024-08-29 10:15:00","10.8735","3.38741","25.379","2.901","7.59","0.513","4.948","0.06","0.19","29.9826","4.72133","31.72","0","SATNPRO1962","26.504","0.37122","5"],
    [32270,"HCEP03730560","2024-08-29 10:30:00","10.8748","3.38779","25.546","2.898","7.59","0.504","4.472","0.08","0.22","29.9853","4.72169","31.7","0","SATNPRO1962","26.726","0.37434","5"],
    [32271,"HCEP03730560","2024-08-29 10:45:00","10.8754","3.38802","25.719","2.917","7.59","0.539","5.253","0.09","0.34","29.9869","4.72192","31.91","0","SATNPRO1962","26.62","0.37284","5"],
    [32272,"HCEP03730560","2024-08-29 11:00:00","10.8765","3.38845","25.902","2.926","7.59","0.429","4.369","0.07","0.31","29.9902","4.72238","32.01","0","SATNPRO1962","26.354","0.36914","5"],
    [32273,"HCEP03730560","2024-08-29 11:15:00","10.875","3.38343","26.104","2.953","7.59","0.352","3.489","0.04","0.16","29.9421","4.71558","32.29","0","SATNPRO1962","26.99","0.37806","5"],
    [32274,"HCEP03730560","2024-08-29 11:30:00","10.8483","3.37883","26.301","2.842","7.58","0.303","2.994","0.08","0.22","29.9186","4.71267","31.05","0","SATNPRO1962","25.656","0.3593","5"],
    [32275,"HCEP03730560","2024-08-29 11:45:00","10.8573","3.3816","26.466","2.722","7.58","0.312","2.996","0.06","0.21","29.9384","4.71535","29.75","0","SATNPRO1962","26.288","0.3682","5"],
    [32276,"HCEP03730560","2024-08-29 12:00:00","10.876","3.38783","26.629","2.835","7.59","0.452","4.659","0.05","1.38","29.9843","4.72159","31.01","0","SATNPRO1962","26.664","0.3735","5"],
    [32277,"HCEP03730560","2024-08-29 12:15:00","10.8841","3.39163","26.76","2.968","7.59","0.462","4.249","0.04","0.2","30.0148","4.72581","32.48","0","SATNPRO1962","26.848","0.37602","5"],
    [32278,"HCEP03730560","2024-08-29 12:30:00","10.8825","3.39082","26.9","3.007","7.6","0.416","3.985","0.04","0.21","30.0082","4.7249","32.9","0","SATNPRO1962","26.986","0.37798","5"],
    [32279,"HCEP03730560","2024-08-29 12:45:00","10.8858","3.39274","27.035","2.983","7.6","0.542","4.921","0.05","0.21","30.0242","4.72714","32.64","0","SATNPRO1962","26.49","0.37104","5"],
    [32280,"HCEP03730560","2024-08-29 13:00:00","10.8794","3.38936","27.159","2.958","7.6","0.367","3.629","0.04","0.16","29.9963","4.72327","32.36","0","SATNPRO1962","26.704","0.37404","5"],
    [32281,"HCEP03730560","2024-08-29 13:15:00","10.8839","3.39177","27.251","2.964","7.6","0.511","4.204","0.06","0.16","30.0161","4.72602","32.44","0","SATNPRO1962","26.778","0.37508","5"],
    [32282,"HCEP03730560","2024-08-29 13:30:00","10.8867","3.393","27.338","2.971","7.6","0.464","4.021","0.15","0.2","30.0259","4.72738","32.51","0","SATNPRO1962","26.738","0.37454","5"],
    [32283,"HCEP03730560","2024-08-29 13:45:00","10.8851","3.39199","27.396","2.983","7.6","0.494","5.084","0.05","0.37","30.0173","4.72618","32.64","0","SATNPRO1962","26.746","0.37464","5"],
    [32284,"HCEP03730560","2024-08-29 14:00:00","10.8878","3.39368","27.45","2.992","7.6","0.424","4.236","0.04","0.11","30.0316","4.72818","32.75","0","SATNPRO1962","26.836000000000002","0.37588","5"],
    [32285,"HCEP03730560","2024-08-29 14:15:00","10.8862","3.39262","27.482","2.994","7.6","0.431","3.803","0.04","0.17","30.0225","4.72691","32.77","0","SATNPRO1962","26.804000000000002","0.37544","5"],
    [32286,"HCEP03730560","2024-08-29 14:30:00","10.8887","3.39393","27.503","2.998","7.6","0.447","4.174","0.05","0.1","30.0333","4.72841","32.81","0","SATNPRO1962","26.848","0.37604","5"],
    [32287,"HCEP03730560","2024-08-29 14:45:00","10.8896","3.39421","27.535","3.008","7.6","0.44","3.923","0.05","0.17","30.0353","4.72868","32.92","0","SATNPRO1962","27.12","0.37984","5"],
    [32288,"HCEP03730560","2024-08-29 15:00:00","10.8918","3.39459","27.522","3.048","7.61","0.406","3.695","0.04","0.14","30.0372","4.72892","33.37","0","SATNPRO1962","27.242","0.3816","5"],
    [32289,"HCEP03730560","2024-08-29 15:15:00","10.891","3.39482","27.517","3.066","7.61","0.484","4.202","0.05","0.14","30.0402","4.72935","33.55","0","SATNPRO1962","26.836","0.37586","5"],
    [32290,"HCEP03730560","2024-08-29 15:30:00","10.891","3.39478","27.522","3.026","7.61","0.42","4.163","0.04","0.12","30.0397","4.72928","33.13","0","SATNPRO1962","27.044","0.37882","5"],
    [32291,"HCEP03730560","2024-08-29 15:45:00","10.8901","3.39413","27.497","3.046","7.61","0.414","3.751","0.04","0.19","30.0341","4.7285","33.33","0","SATNPRO1962","27.204","0.38106","5"],
    [32292,"HCEP03730560","2024-08-29 16:00:00","10.8896","3.39404","27.489","3.062","7.61","0.402","3.902","0.04","0.27","30.0337","4.72844","33.52","0","SATNPRO1962","27.224","0.38134","5"],
    [32293,"HCEP03730560","2024-08-29 16:15:00","10.8887","3.39377","27.488","3.037","7.61","0.438","3.944","0.04","0.74","30.0318","4.72819","33.23","0","SATNPRO1962","27.046","0.37884","5"],
    [32294,"HCEP03730560","2024-08-29 16:30:00","10.8865","3.393","27.369","3.02","7.6","0.434","3.973","0.07","0.33","30.0261","4.7274","33.04","0","SATNPRO1962","27.386","0.38354","5"],
    [32295,"HCEP03730560","2024-08-29 16:45:00","10.8864","3.39286","27.31","2.997","7.6","0.411","4.294","0.03","1.47","30.0248","4.72723","32.8","0","SATNPRO1962","26.884","0.37652","5"],
    [32296,"HCEP03730560","2024-08-29 17:00:00","10.8858","3.39319","27.438","2.978","7.6","0.4","4.179","0.04","0.3","30.0285","4.72776","32.59","0","SATNPRO1962","26.966","0.37768","5"],
    [32297,"HCEP03730560","2024-08-29 17:15:00","10.8851","3.393","27.356","2.952","7.6","0.429","4.243","0.04","0.82","30.0272","4.72759","32.3","0","SATNPRO1962","26.788","0.37522","5"],
    [32298,"HCEP03730560","2024-08-29 17:30:00","10.8836","3.39192","27.23","2.938","7.6","0.388","3.861","0.04","0.17","30.0179","4.72628","32.15","0","SATNPRO1962","26.858","0.37622","5"],
    [32299,"HCEP03730560","2024-08-29 17:45:00","10.8824","3.39154","27.115","2.94","7.6","0.399","3.884","0.04","0.31","30.0152","4.72591","32.17","0","SATNPRO1962","26.798","0.37536","5"],
    [32300,"HCEP03730560","2024-08-29 18:00:00","10.8812","3.39126","27.042","2.917","7.59","0.41","4.323","0.05","0.42","30.0135","4.72568","31.91","0","SATNPRO1962","26.43","0.3702","5"],
    [32301,"HCEP03730560","2024-08-29 18:15:00","10.8793","3.39061","26.95","2.875","7.59","0.436","4.337","0.03","0.21","30.0086","4.72502","31.45","0","SATNPRO1962","26.5","0.3712","5"],
    [32302,"HCEP03730560","2024-08-29 18:30:00","10.8774","3.38994","26.87","2.83","7.59","0.429","4.456","0.05","0.13","30.0038","4.72435","30.96","0","SATNPRO1962","26.306","0.36842","5"],
    [32303,"HCEP03730560","2024-08-29 18:45:00","10.8747","3.38863","26.788","2.796","7.58","0.422","4.215","0.05","0.16","29.9931","4.72287","30.58","0","SATNPRO1962","26.372","0.3694","5"],
    [32304,"HCEP03730560","2024-08-29 19:00:00","10.8669","3.38602","26.709","2.746","7.58","0.355","4.086","0.04","0.23","29.974","4.72027","30.02","0","SATNPRO1962","26.164","0.3665","5"],
    [32305,"HCEP03730560","2024-08-29 19:15:00","10.8639","3.38554","26.637","2.698","7.57","0.372","4.243","0.03","0.43","29.9716","4.71998","29.5","0","SATNPRO1962","26.08","0.36532","5"],
    [32306,"HCEP03730560","2024-08-29 19:30:00","10.8665","3.38569","26.569","2.676","7.57","0.325","4.06","0.02","0.15","29.971","4.71985","29.27","0","SATNPRO1962","25.988","0.364","5"],
    [32307,"HCEP03730560","2024-08-29 19:45:00","10.8536","3.38126","26.53","2.624","7.56","0.313","3.53","0.02","0.27","29.9381","4.71537","28.68","0","SATNPRO1962","24.484","0.3429","5"],
    [32308,"HCEP03730560","2024-08-29 20:00:00","10.8735","3.38859","26.494","2.588","7.57","0.467","5.647","0.03","0.26","29.9938","4.72297","28.31","0","SATNPRO1962","25.59","0.3584","5"],
    [32309,"HCEP03730560","2024-08-29 20:15:00","10.8782","3.39088","26.466","2.652","7.57","0.557","5.9","0.08","0.27","30.0125","4.72555","29.02","0","SATNPRO1962","25.714","0.3602","5"],
    [32310,"HCEP03730560","2024-08-29 20:30:00","10.8796","3.39134","26.449","2.683","7.57","0.501","5.647","0.07","0.25","30.0158","4.726","29.35","0","SATNPRO1962","25.944","0.36338","5"],
    [32311,"HCEP03730560","2024-08-29 20:45:00","10.8804","3.39166","26.45","2.706","7.57","0.514","5.584","0.05","0.45","30.0182","4.72633","29.61","0","SATNPRO1962","25.962","0.36368","5"],
    [32312,"HCEP03730560","2024-08-29 21:00:00","10.8799","3.39152","26.469","2.717","7.58","0.457","5.365","0.05","0.22","30.0173","4.72622","29.73","0","SATNPRO1962","25.77","0.36096","5"],
    [32313,"HCEP03730560","2024-08-29 21:15:00","10.8751","3.38963","26.501","2.7","7.57","0.445","4.858","0.07","0.24","30.0026","4.72421","29.54","0","SATNPRO1962","25.604","0.35864","5"],
    [32314,"HCEP03730560","2024-08-29 21:30:00","10.8768","3.39044","26.527","2.69","7.57","0.397","4.806","0.05","0.18","30.0092","4.72511","29.42","0","SATNPRO1962","25.694","0.35986","5"],
    [32315,"HCEP03730560","2024-08-29 21:45:00","10.8772","3.39059","26.562","2.691","7.57","0.446","4.911","0.06","0.36","30.0103","4.72527","29.44","0","SATNPRO1962","25.808","0.36144","5"],
    [32316,"HCEP03730560","2024-08-29 22:00:00","10.8766","3.39024","26.601","2.69","7.57","0.437","4.83","0.09","0.3","30.0073","4.72485","29.42","0","SATNPRO1962","25.913999999999998","0.363","5"],
    [32317,"HCEP03730560","2024-08-29 22:15:00","10.8749","3.38942","26.651","2.697","7.57","0.355","4.13","0.04","0.21","30.0008","4.72395","29.5","0","SATNPRO1962","26.038","0.36468","5"],
    [32318,"HCEP03730560","2024-08-29 22:30:00","10.8748","3.38948","26.681","2.698","7.57","0.361","4.508","0.05","0.19","30.0014","4.72404","29.51","0","SATNPRO1962","25.666","0.35948","5"],
    [32319,"HCEP03730560","2024-08-29 22:45:00","10.8741","3.38928","26.712","2.675","7.57","0.383","4.567","0.03","0.25","30","4.72386","29.26","0","SATNPRO1962","25.599999999999998","0.35858","5"],
    [32320,"HCEP03730560","2024-08-29 23:00:00","10.8726","3.38888","26.743","2.645","7.57","0.379","4.949","0.06","0.24","29.9973","4.7235","28.93","0","SATNPRO1962","25.44","0.35634","5"],
    [32321,"HCEP03730560","2024-08-29 23:15:00","10.8702","3.38802","26.779","2.609","7.57","0.408","5.076","0.06","0.29","29.9908","4.72261","28.53","0","SATNPRO1962","25.402","0.3558","5"],
    [32322,"HCEP03730560","2024-08-29 23:30:00","10.8669","3.38632","26.827","2.612","7.57","0.336","4.392","0.05","0.16","29.9768","4.72068","28.57","0","SATNPRO1962","25.418","0.35602","5"],
    [32323,"HCEP03730560","2024-08-29 23:45:00","10.8664","3.38653","26.865","2.602","7.56","0.399","4.864","0.04","0.37","29.9793","4.72104","28.45","0","SATNPRO1962","25.54","0.3577","5"],
    [32324,"HCEP03730560","2024-08-30 00:00:00","10.8649","3.38577","26.907","2.57","7.56","0.356","4.62","0.05","0.16","29.973","4.72018","28.1","0","SATNPRO1962","25.464","0.35668","5"],
    [32325,"HCEP03730560","2024-08-30 00:15:00","10.8643","3.38431","26.944","2.624","7.57","0.359","4.062","0.06","0.17","29.9591","4.71821","28.69","0","SATNPRO1962","26.416","0.36998","5"],
    [32326,"HCEP03730560","2024-08-30 00:30:00","10.8643","3.38487","26.976","2.655","7.56","0.361","4.87","0.03","0.23","29.9646","4.719","29.03","0","SATNPRO1962","25.318","0.3546","5"],
    [32327,"HCEP03730560","2024-08-30 00:45:00","10.8655","3.38546","27","2.605","7.56","0.409","5.026","0.04","0.2","29.9694","4.71965","28.48","0","SATNPRO1962","25.31","0.3545","5"],
    [32328,"HCEP03730560","2024-08-30 01:00:00","10.867","3.38589","27.005","2.596","7.56","0.339","4.766","0.02","0.35","29.9724","4.72007","28.38","0","SATNPRO1962","25.434","0.35624","5"],
    [32329,"HCEP03730560","2024-08-30 01:15:00","10.8669","3.38576","27.017","2.604","7.56","0.374","4.661","0.04","0.2","29.9713","4.71991","28.48","0","SATNPRO1962","25.346","0.35502","5"],
    [32330,"HCEP03730560","2024-08-30 01:30:00","10.8672","3.38578","27.019","2.602","7.56","0.37","4.84","0.08","0.32","29.9712","4.71988","28.45","0","SATNPRO1962","25.472","0.35676","5"],
    [32331,"HCEP03730560","2024-08-30 01:45:00","10.8706","3.38659","26.995","2.633","7.56","0.355","4.359","0.04","0.26","29.9763","4.72057","28.79","0","SATNPRO1962","25.804","0.36144","5"],
    [32332,"HCEP03730560","2024-08-30 02:00:00","10.8789","3.38862","26.965","2.71","7.57","0.357","3.993","0.11","0.27","29.9895","4.7223","29.65","0","SATNPRO1962","26.404","0.3698","5"],
    [32333,"HCEP03730560","2024-08-30 02:15:00","10.8824","3.38977","26.914","2.812","7.58","0.366","4.71","0.03","0.43","29.9979","4.72345","30.76","0","SATNPRO1962","26.302","0.36838","5"],
    [32334,"HCEP03730560","2024-08-30 02:30:00","10.8943","3.3925","26.857","2.913","7.59","0.375","4.489","0.05","0.29","30.015","4.72568","31.88","0","SATNPRO1962","26.916","0.37702","5"],
    [32335,"HCEP03730560","2024-08-30 02:45:00","10.8941","3.39322","26.786","3.005","7.6","0.405","4.555","0.11","0.38","30.0222","4.72671","32.89","0","SATNPRO1962","26.9","0.3768","5"],
    [32336,"HCEP03730560","2024-08-30 03:00:00","10.9007","3.39549","26.691","3.044","7.6","0.377","4.585","0.04","0.26","30.0392","4.72901","33.32","0","SATNPRO1962","27.158","0.38044","5"],
    [32337,"HCEP03730560","2024-08-30 03:15:00","10.9064","3.39744","26.578","3.097","7.61","0.38","4.49","0.03","0.23","30.0537","4.73097","33.91","0","SATNPRO1962","27.317999999999998","0.38266","5"],
    [32338,"HCEP03730560","2024-08-30 03:30:00","10.9155","3.39929","26.46","3.169","7.62","0.349","3.775","0.04","0.21","30.0644","4.73235","34.71","0","SATNPRO1962","27.816","0.38964","5"],
    [32339,"HCEP03730560","2024-08-30 03:45:00","10.9209","3.4003","26.328","3.252","7.62","0.353","3.41","0.03","0.18","30.0699","4.73303","35.62","0","SATNPRO1962","27.976","0.3918","5"],
    [32340,"HCEP03730560","2024-08-30 04:00:00","10.9285","3.40117","26.18","3.338","7.63","0.338","3.098","0.13","0.29","30.0722","4.73324","36.57","0","SATNPRO1962","28.386","0.39756","5"],
    [32341,"HCEP03730560","2024-08-30 04:15:00","10.928","3.4007","26.019","3.391","7.64","0.324","3.243","0.04","1.53","30.0681","4.73266","37.15","0","SATNPRO1962","28.28","0.39614","5"],
    [32342,"HCEP03730560","2024-08-30 04:30:00","10.9235","3.3994","25.852","3.38","7.63","0.317","3.23","0.04","0.16","30.0592","4.73145","37.03","0","SATNPRO1962","28.068","0.39314","5"],
    [32343,"HCEP03730560","2024-08-30 04:45:00","10.9279","3.40072","25.678","3.38","7.64","0.354","3.077","0.06","0.21","30.0685","4.73269","37.04","0","SATNPRO1962","28.05","0.3929","5"],
    [32344,"HCEP03730560","2024-08-30 05:00:00","10.927","3.40057","25.503","3.385","7.64","0.315","3.266","0.04","0.23","30.0679","4.73261","37.09","0","SATNPRO1962","28.132","0.39406","5"],
    [32345,"HCEP03730560","2024-08-30 05:15:00","10.9261","3.4005","25.331","3.371","7.64","0.509","3.553","0.38","0.19","30.068","4.73263","36.93","0","SATNPRO1962","28.064","0.39308","5"],
    [32346,"HCEP03730560","2024-08-30 05:30:00","10.926","3.40041","25.159","3.359","7.64","0.317","3.247","0.03","0.22","30.0672","4.73251","36.79","0","SATNPRO1962","28.082","0.39334","5"],
    [32347,"HCEP03730560","2024-08-30 05:45:00","10.9257","3.40033","24.998","3.348","7.64","0.383","3.136","0.05","0.19","30.0668","4.73245","36.68","0","SATNPRO1962","28.052","0.39294","5"],
    [32348,"HCEP03730560","2024-08-30 06:00:00","10.9258","3.4003","24.844","3.352","7.64","0.353","3.353","0.04","0.2","30.0665","4.7324","36.72","0","SATNPRO1962","28.02","0.39248","5"],
    [32349,"HCEP03730560","2024-08-30 06:15:00","10.9259","3.40034","24.69","3.348","7.64","0.405","3.443","0.05","0.28","30.0668","4.73243","36.68","0","SATNPRO1962","28.18","0.39472","5"],
    [32350,"HCEP03730560","2024-08-30 06:30:00","10.9255","3.40036","24.534","3.348","7.64","0.317","3.136","0.04","0.08","30.0675","4.73252","36.68","0","SATNPRO1962","27.972","0.39176","5"],
    [32351,"HCEP03730560","2024-08-30 06:45:00","10.926","3.40036","24.41","3.345","7.64","0.369","3.556","0.04","0.25","30.067","4.73244","36.65","0","SATNPRO1962","27.96","0.39162","5"],
    [32352,"HCEP03730560","2024-08-30 07:00:00","10.9261","3.40037","24.296","3.328","7.64","0.389","4.561","0.05","0.69","30.0671","4.73244","36.46","0","SATNPRO1962","28.08","0.39336","5"],
    [32353,"HCEP03730560","2024-08-30 07:15:00","10.9256","3.40029","24.198","3.331","7.64","0.381","3.646","0.04","0.18","30.0668","4.7324","36.49","0","SATNPRO1962","27.886","0.39058","5"],
    [32354,"HCEP03730560","2024-08-30 07:30:00","10.9257","3.40035","24.141","3.333","7.64","0.326","3.384","0.03","0.09","30.0673","4.73247","36.51","0","SATNPRO1962","28.002","0.39222","5"],
    [32355,"HCEP03730560","2024-08-30 07:45:00","10.9252","3.40036","24.109","3.33","7.64","0.424","3.732","0.06","0.31","30.0679","4.73256","36.48","0","SATNPRO1962","27.881999999999998","0.39052","5"],
    [32356,"HCEP03730560","2024-08-30 08:00:00","10.9251","3.4005","24.09","3.323","7.64","0.374","3.419","0.03","0.28","30.0693","4.73276","36.4","0","SATNPRO1962","28.046","0.39286","5"],
    [32357,"HCEP03730560","2024-08-30 08:15:00","10.9246","3.40054","24.095","3.322","7.64","0.467","3.712","0.04","0.16","30.0701","4.73288","36.39","0","SATNPRO1962","27.964","0.3917","5"],
    [32358,"HCEP03730560","2024-08-30 08:30:00","10.9237","3.40052","24.127","3.303","7.63","0.419","3.718","0.05","0.17","30.0706","4.73297","36.18","0","SATNPRO1962","27.916","0.39102","5"],
    [32359,"HCEP03730560","2024-08-30 08:45:00","10.9233","3.4005","24.182","3.281","7.63","0.418","3.863","0.03","0.23","30.0707","4.733","35.95","0","SATNPRO1962","27.919999999999998","0.39106","5"],
    [32360,"HCEP03730560","2024-08-30 09:00:00","10.9231","3.40055","24.244","3.268","7.63","0.392","3.765","0.06","0.23","30.0713","4.73309","35.8","0","SATNPRO1962","27.738","0.3885","5"],
    [32361,"HCEP03730560","2024-08-30 09:15:00","10.9224","3.40063","24.319","3.255","7.63","0.5","4.382","0.04","0.47","30.0726","4.73329","35.66","0","SATNPRO1962","27.796","0.38936","5"],
    [32362,"HCEP03730560","2024-08-30 09:30:00","10.9224","3.40076","24.417","3.239","7.63","0.428","4.01","0.08","0.25","30.074","4.73349","35.48","0","SATNPRO1962","27.657999999999998","0.38742","5"],
    [32363,"HCEP03730560","2024-08-30 09:45:00","10.9222","3.40084","24.558","3.225","7.63","0.473","3.998","0.09","0.59","30.0749","4.73363","35.33","0","SATNPRO1962","27.626","0.38698","5"],
    [32364,"HCEP03730560","2024-08-30 10:00:00","10.9222","3.40112","24.707","3.225","7.63","0.421","4.206","0.06","0.26","30.0775","4.73401","35.33","0","SATNPRO1962","27.684","0.38776","5"],
    [32365,"HCEP03730560","2024-08-30 10:15:00","10.9216","3.40114","24.825","3.214","7.63","0.484","4.397","0.05","0.17","30.0782","4.73412","35.21","0","SATNPRO1962","27.678","0.3877","5"],
    [32366,"HCEP03730560","2024-08-30 10:30:00","10.9211","3.39476","24.893","3.204","7.63","0.397","4.165","0.04","0.28","30.016","4.7253","35.08","0","SATNPRO1962","27.62","0.3869","5"],
    [32367,"HCEP03730560","2024-08-30 10:45:00","10.9209","3.40128","25.055","3.191","7.62","0.494","4.502","0.05","0.25","30.0801","4.73441","34.96","0","SATNPRO1962","27.522000000000002","0.38548","5"],
    [32368,"HCEP03730560","2024-08-30 11:00:00","10.9209","3.40134","25.224","3.18","7.62","0.434","4.089","0.05","0.19","30.0805","4.73449","34.83","0","SATNPRO1962","27.506","0.38526","5"],
    [32369,"HCEP03730560","2024-08-30 11:15:00","10.9206","3.40146","25.396","3.182","7.62","0.548","4.695","0.09","1.27","30.0819","4.73469","34.86","0","SATNPRO1962","27.752","0.38872","5"],
    [32370,"HCEP03730560","2024-08-30 11:30:00","10.9211","3.40134","25.623","3.191","7.62","0.434","4.089","0.07","0.24","30.0802","4.73446","34.96","0","SATNPRO1962","27.724","0.38834","5"],
    [32371,"HCEP03730560","2024-08-30 11:45:00","10.9215","3.40132","25.808","3.196","7.63","0.433","4.03","0.06","0.37","30.0796","4.73438","35.01","0","SATNPRO1962","27.69","0.3879","5"],
    [32372,"HCEP03730560","2024-08-30 12:00:00","10.9218","3.40142","26.016","3.208","7.63","0.456","7.384","0.07","1.81","30.0802","4.73447","35.14","0","SATNPRO1962","27.724","0.38828","5"],
    [32373,"HCEP03730560","2024-08-30 12:15:00","10.9213","3.40139","26.195","3.224","7.63","0.408","3.588","0.05","0.16","30.0803","4.7345","35.32","0","SATNPRO1962","27.588","0.38642","5"],
    [32374,"HCEP03730560","2024-08-30 12:30:00","10.9218","3.4014","26.368","3.216","7.63","0.374","3.399","0.06","0.16","30.08","4.73446","35.23","0","SATNPRO1962","27.678","0.38768","5"],
    [32375,"HCEP03730560","2024-08-30 12:45:00","10.9212","3.40139","26.542","3.211","7.63","0.431","3.692","0.04","0.11","30.0802","4.73451","35.17","0","SATNPRO1962","27.57","0.38618","5"],
    [32376,"HCEP03730560","2024-08-30 13:00:00","10.9206","3.40183","26.706","3.185","7.62","0.455","3.846","0.1","0.17","30.085","4.73521","34.9","0","SATNPRO1962","27.55","0.38588","5"],
    [32377,"HCEP03730560","2024-08-30 13:15:00","10.9209","3.40238","26.861","3.182","7.63","0.405","3.323","0.04","0.12","30.0901","4.73593","34.86","0","SATNPRO1962","27.66","0.38738","5"],
    [32378,"HCEP03730560","2024-08-30 13:30:00","10.9212","3.40253","27.018","3.179","7.62","0.388","3.711","0.04","0.33","30.0912","4.7361","34.82","0","SATNPRO1962","27.756","0.38876","5"],
    [32379,"HCEP03730560","2024-08-30 13:45:00","10.9209","3.40222","27.14","3.159","7.62","0.478","4.253","0.05","0.22","30.0884","4.73571","34.61","0","SATNPRO1962","27.486","0.38498","5"],
    [32380,"HCEP03730560","2024-08-30 14:00:00","10.9215","3.40232","27.259","3.148","7.62","0.438","4.198","0.06","0.17","30.0888","4.73576","34.49","0","SATNPRO1962","27.686","0.38778","5"],
    [32381,"HCEP03730560","2024-08-30 14:15:00","10.9208","3.40245","27.356","3.15","7.62","0.457","4.076","0.04","0.25","30.0906","4.73604","34.51","0","SATNPRO1962","27.65","0.3873","5"],
    [32382,"HCEP03730560","2024-08-30 14:30:00","10.9213","3.40235","27.425","3.153","7.62","0.429","4.101","0.06","0.32","30.0892","4.73583","34.54","0","SATNPRO1962","27.602","0.38664","5"],
    [32383,"HCEP03730560","2024-08-30 14:45:00","10.9209","3.40249","27.498","3.161","7.62","0.456","3.952","0.07","0.13","30.0908","4.73608","34.64","0","SATNPRO1962","27.66","0.38742","5"],
    [32384,"HCEP03730560","2024-08-30 15:00:00","10.9211","3.40241","27.555","3.142","7.62","0.447","4.128","0.05","0.24","30.0899","4.73594","34.42","0","SATNPRO1962","27.792","0.3893","5"],
    [32385,"HCEP03730560","2024-08-30 15:15:00","10.9216","3.40241","27.551","3.153","7.62","0.428","3.744","0.05","0.17","30.0895","4.73588","34.54","0","SATNPRO1962","27.906","0.39088","5"],
    [32386,"HCEP03730560","2024-08-30 15:30:00","10.9225","3.40188","27.547","3.179","7.62","0.399","3.627","0.06","0.11","30.0837","4.73503","34.83","0","SATNPRO1962","27.82","0.38968","5"],
    [32387,"HCEP03730560","2024-08-30 15:45:00","10.922","3.40184","27.552","3.178","7.62","0.429","3.81","0.03","0.15","30.0836","4.73504","34.82","0","SATNPRO1962","27.706","0.38806","5"],
    [32388,"HCEP03730560","2024-08-30 16:00:00","10.9222","3.40182","27.551","3.16","7.62","0.442","4.125","0.05","0.2","30.0833","4.73499","34.62","0","SATNPRO1962","27.574","0.38622","5"],
    [32389,"HCEP03730560","2024-08-30 16:15:00","10.9228","3.40164","27.529","3.166","7.62","0.416","3.691","0.04","0.18","30.081","4.73465","34.68","0","SATNPRO1962","27.562","0.38604","5"],
    [32390,"HCEP03730560","2024-08-30 16:30:00","10.9231","3.40145","27.496","3.173","7.62","0.406","3.921","0.04","0.17","30.0789","4.73435","34.77","0","SATNPRO1962","27.504","0.3852","5"],
    [32391,"HCEP03730560","2024-08-30 16:45:00","10.9226","3.4014","27.455","3.167","7.62","0.432","3.957","0.05","0.16","30.0789","4.73435","34.7","0","SATNPRO1962","27.669999999999998","0.38758","5"],
    [32392,"HCEP03730560","2024-08-30 17:00:00","10.9233","3.40106","27.414","3.184","7.62","0.4","4.163","0.06","0.47","30.0749","4.73378","34.88","0","SATNPRO1962","27.808","0.3895","5"],
    [32393,"HCEP03730560","2024-08-30 17:15:00","10.9227","3.40093","27.357","3.19","7.62","0.414","4.016","0.03","0.15","30.0742","4.73368","34.95","0","SATNPRO1962","27.504","0.38522","5"],
    [32394,"HCEP03730560","2024-08-30 17:30:00","10.921","3.40065","27.29","3.171","7.62","0.397","4.357","0.03","0.19","30.0729","4.73351","34.74","0","SATNPRO1962","27.204","0.38104","5"],
    [32395,"HCEP03730560","2024-08-30 17:45:00","10.9081","3.3972","27.228","3.111","7.62","0.359","3.468","0.02","0.11","30.0496","4.7304","34.07","0","SATNPRO1962","27.05","0.37888","5"],
    [32396,"HCEP03730560","2024-08-30 18:00:00","10.9115","3.398","27.21","3.064","7.61","0.377","3.883","0.03","0.23","30.0547","4.73107","33.56","0","SATNPRO1962","26.988","0.37802","5"],
    [32397,"HCEP03730560","2024-08-30 18:15:00","10.9094","3.39768","27.147","3.054","7.61","0.416","4.083","0.04","0.17","30.0533","4.73091","33.44","0","SATNPRO1962","26.954","0.37754","5"],
    [32398,"HCEP03730560","2024-08-30 18:30:00","10.9093","3.39757","27.208","3.029","7.61","0.371","3.934","0.04","0.29","30.0523","4.73076","33.17","0","SATNPRO1962","26.83","0.37578","5"],
    [32399,"HCEP03730560","2024-08-30 18:45:00","10.9075","3.39743","27.15","3.028","7.61","0.436","3.848","0.07","0.24","30.0524","4.73081","33.16","0","SATNPRO1962","26.926000000000002","0.37716","5"],
    [32400,"HCEP03730560","2024-08-30 19:00:00","10.9111","3.39838","27.055","3.045","7.61","0.352","4.125","0.03","0.29","30.0588","4.73165","33.34","0","SATNPRO1962","27.302","0.38246","5"],
    [32401,"HCEP03730560","2024-08-30 19:15:00","10.9132","3.39887","26.986","3.069","7.61","0.38","3.642","0.05","0.22","30.0619","4.73206","33.61","0","SATNPRO1962","27.316","0.3826","5"],
    [32402,"HCEP03730560","2024-08-30 19:30:00","10.9123","3.39877","26.874","3.084","7.61","0.367","3.792","0.03","0.2","30.0618","4.73205","33.77","0","SATNPRO1962","27.288","0.38224","5"],
    [32403,"HCEP03730560","2024-08-30 19:45:00","10.9173","3.4001","26.791","3.102","7.62","0.387","3.645","0.04","0.22","30.0708","4.73324","33.97","0","SATNPRO1962","27.514","0.38536","5"],
    [32404,"HCEP03730560","2024-08-30 20:00:00","10.9182","3.40165","26.709","3.1","7.61","0.445","4.529","0.09","0.51","30.0852","4.73527","33.96","0","SATNPRO1962","27.344","0.383","5"],
    [32405,"HCEP03730560","2024-08-30 20:15:00","10.9177","3.40177","26.632","3.064","7.61","0.425","4.223","0.05","0.23","30.0869","4.73551","33.56","0","SATNPRO1962","27.086","0.37938","5"],
    [32406,"HCEP03730560","2024-08-30 20:30:00","10.916","3.40162","26.562","3.026","7.61","0.412","4.388","0.06","0.22","30.0867","4.73551","33.15","0","SATNPRO1962","26.896","0.3767","5"],
    [32407,"HCEP03730560","2024-08-30 20:45:00","10.9139","3.39862","26.508","2.989","7.61","0.482","4.481","0.07","0.4","30.0591","4.73163","32.73","0","SATNPRO1962","26.786","0.3752","5"],
    [32408,"HCEP03730560","2024-08-30 21:00:00","10.9116","3.40117","26.475","2.945","7.6","0.431","4.413","0.07","0.31","30.086","4.73548","32.25","0","SATNPRO1962","26.846","0.37604","5"],
    [32409,"HCEP03730560","2024-08-30 21:15:00","10.9109","3.40111","26.452","2.924","7.6","0.436","4.314","0.07","0.27","30.0861","4.73549","32.02","0","SATNPRO1962","26.662","0.37346","5"],
    [32410,"HCEP03730560","2024-08-30 21:30:00","10.9112","3.40128","26.454","2.905","7.6","0.419","4.571","0.09","0.73","30.0874","4.73569","31.82","0","SATNPRO1962","26.488","0.37102","5"],
    [32411,"HCEP03730560","2024-08-30 21:45:00","10.9106","3.40135","26.464","2.888","7.6","0.524","4.681","0.1","0.22","30.0886","4.73586","31.63","0","SATNPRO1962","26.568","0.37218","5"],
    [32412,"HCEP03730560","2024-08-30 22:00:00","10.9098","3.40122","26.495","2.877","7.6","0.424","4.494","0.07","0.19","30.088","4.73579","31.51","0","SATNPRO1962","26.682","0.3737","5"],
    [32413,"HCEP03730560","2024-08-30 22:15:00","10.9095","3.40127","26.533","2.874","7.6","0.43","4.434","0.06","0.35","30.0886","4.73589","31.48","0","SATNPRO1962","26.522","0.37148","5"],
    [32414,"HCEP03730560","2024-08-30 22:30:00","10.9083","3.40094","26.554","2.88","7.6","0.358","3.958","0.04","0.17","30.0864","4.73559","31.54","0","SATNPRO1962","26.624","0.37292","5"],
    [32415,"HCEP03730560","2024-08-30 22:45:00","10.908","3.401","26.613","2.882","7.6","0.406","4.033","0.1","0.2","30.0873","4.73572","31.57","0","SATNPRO1962","26.52","0.37144","5"],
    [32416,"HCEP03730560","2024-08-30 23:00:00","10.9091","3.40137","26.635","2.865","7.6","0.423","4.4","0.07","0.19","30.0899","4.73608","31.38","0","SATNPRO1962","26.574","0.3722","5"],
    [32417,"HCEP03730560","2024-08-30 23:15:00","10.9075","3.40089","26.664","2.868","7.6","0.34","3.785","0.03","0.25","30.0865","4.73562","31.41","0","SATNPRO1962","26.646","0.3732","5"],
    [32418,"HCEP03730560","2024-08-30 23:30:00","10.9075","3.40081","26.726","2.884","7.6","0.328","3.977","0.05","0.17","30.0857","4.73551","31.59","0","SATNPRO1962","26.762","0.37484","5"],
    [32419,"HCEP03730560","2024-08-30 23:45:00","10.9081","3.40088","26.809","2.897","7.6","0.359","3.7","0.08","0.22","30.0859","4.73553","31.73","0","SATNPRO1962","26.848","0.37606","5"],
    [32420,"HCEP03730560","2024-08-31 00:00:00","10.9092","3.40084","26.859","2.921","7.6","0.311","3.65","0.12","0.17","30.0846","4.73533","31.99","0","SATNPRO1962","27.004","0.37828","5"],
    [32421,"HCEP03730560","2024-08-31 00:15:00","10.917","3.40093","26.872","3.023","7.61","0.263","2.635","0.01","0.13","30.0791","4.73444","33.12","0","SATNPRO1962","27.914","0.39098","5"],
    [32422,"HCEP03730560","2024-08-31 00:30:00","10.9143","3.40111","26.911","3.11","7.61","0.263","3.169","0.05","0.22","30.083","4.73503","34.07","0","SATNPRO1962","27.906000000000002","0.39086","5"],
    [32423,"HCEP03730560","2024-08-31 00:45:00","10.9128","3.40132","26.974","3.062","7.61","0.3","3.15","0.05","0.09","30.0863","4.73553","33.54","0","SATNPRO1962","27.13","0.37998","5"],
    [32424,"HCEP03730560","2024-08-31 01:00:00","10.9136","3.40208","27.03","2.976","7.6","0.374","4.218","0.06","0.09","30.093","4.73647","32.6","0","SATNPRO1962","26.738","0.3745","5"],
    [32425,"HCEP03730560","2024-08-31 01:15:00","10.9152","3.40227","27.082","2.892","7.6","0.459","4.68","0.08","0.15","30.0936","4.73653","31.68","0","SATNPRO1962","26.758","0.37482","5"],
    [32426,"HCEP03730560","2024-08-31 01:30:00","10.9158","3.40228","27.122","2.874","7.6","0.403","4.483","0.1","0.29","30.0932","4.73647","31.49","0","SATNPRO1962","26.8","0.37536","5"],
    [32427,"HCEP03730560","2024-08-31 01:45:00","10.9167","3.40232","27.149","2.875","7.6","0.395","4.36","0.06","0.14","30.0927","4.73639","31.49","0","SATNPRO1962","26.748","0.37466","5"],
    [32428,"HCEP03730560","2024-08-31 02:00:00","10.9169","3.40219","27.161","2.88","7.6","0.365","4.454","0.05","0.2","30.0914","4.7362","31.55","0","SATNPRO1962","26.736","0.3745","5"],
    [32429,"HCEP03730560","2024-08-31 02:15:00","10.9177","3.40207","27.171","2.884","7.6","0.436","4.296","0.14","0.26","30.0895","4.73592","31.6","0","SATNPRO1962","26.668","0.37352","5"],
    [32430,"HCEP03730560","2024-08-31 02:30:00","10.9165","3.40134","27.167","2.881","7.6","0.434","4.752","0.07","0.34","30.0833","4.73506","31.55","0","SATNPRO1962","26.552","0.37192","5"],
    [32431,"HCEP03730560","2024-08-31 02:45:00","10.915","3.40036","27.146","2.849","7.59","0.492","4.845","0.16","0.23","30.0751","4.73391","31.21","0","SATNPRO1962","26.524","0.37148","5"],
    [32432,"HCEP03730560","2024-08-31 03:00:00","10.9131","3.39947","27.102","2.817","7.59","0.463","5.002","0.08","0.29","30.0678","4.73291","30.85","0","SATNPRO1962","26.386","0.3696","5"],
    [32433,"HCEP03730560","2024-08-31 03:15:00","10.9105","3.39859","27.057","2.776","7.59","0.523","5.405","0.07","0.28","30.0614","4.73203","30.4","0","SATNPRO1962","26.15","0.36626","5"],
    [32434,"HCEP03730560","2024-08-31 03:30:00","10.9092","3.39804","27.005","2.734","7.58","0.498","5.97","0.07","0.75","30.057","4.73143","29.93","0","SATNPRO1962","25.822","0.36172","5"],
    [32435,"HCEP03730560","2024-08-31 03:45:00","10.9066","3.39677","26.915","2.699","7.58","0.466","5.103","0.09","0.28","30.0468","4.73001","29.55","0","SATNPRO1962","26.058","0.36494","5"],
    [32436,"HCEP03730560","2024-08-31 04:00:00","10.9055","3.39602","26.812","2.671","7.58","0.46","5.282","0.08","0.76","30.0403","4.7291","29.24","0","SATNPRO1962","25.726","0.3603","5"],
    [32437,"HCEP03730560","2024-08-31 04:15:00","10.9052","3.39582","26.699","2.658","7.58","0.44","4.828","0.09","0.2","30.0387","4.72887","29.1","0","SATNPRO1962","25.854","0.36214","5"],
    [32438,"HCEP03730560","2024-08-31 04:30:00","10.9079","3.39588","26.571","2.671","7.58","0.405","4.787","0.08","0.24","30.0371","4.7286","29.25","0","SATNPRO1962","26.041999999999998","0.36476","5"],
    [32439,"HCEP03730560","2024-08-31 04:45:00","10.9079","3.39577","26.432","2.699","7.58","0.432","4.903","0.05","0.29","30.036","4.72844","29.55","0","SATNPRO1962","26.068","0.36512","5"],
    [32440,"HCEP03730560","2024-08-31 05:00:00","10.9084","3.39598","26.263","2.705","7.58","0.375","4.909","0.04","0.23","30.0378","4.72867","29.62","0","SATNPRO1962","26.188","0.3668","5"],
    [32441,"HCEP03730560","2024-08-31 05:15:00","10.9095","3.39611","26.091","2.708","7.58","0.412","4.619","0.07","0.33","30.0383","4.72872","29.65","0","SATNPRO1962","26.08","0.36528","5"],
    [32442,"HCEP03730560","2024-08-31 05:30:00","10.9122","3.39607","25.917","2.757","7.58","0.365","4.714","0.05","0.24","30.0357","4.72829","30.19","0","SATNPRO1962","26.384","0.36956","5"],
    [32443,"HCEP03730560","2024-08-31 05:45:00","10.9177","3.39615","25.738","2.865","7.59","0.39","3.894","0.1","0.23","30.0321","4.72769","31.38","0","SATNPRO1962","27.466","0.38466","5"],
    [32444,"HCEP03730560","2024-08-31 06:00:00","10.9138","3.39646","25.549","2.922","7.59","0.356","4.159","0.07","0.2","30.0383","4.72862","32","0","SATNPRO1962","26.964","0.3777","5"],
    [32445,"HCEP03730560","2024-08-31 06:15:00","10.9165","3.39648","25.352","2.896","7.59","0.465","3.849","0.16","0.2","30.0365","4.7283","31.71","0","SATNPRO1962","27.228","0.38134","5"],
    [32446,"HCEP03730560","2024-08-31 06:30:00","10.912","3.39612","25.177","2.88","7.59","0.395","4.198","0.08","0.23","30.0367","4.72839","31.53","0","SATNPRO1962","26.518","0.37144","5"],
    [32447,"HCEP03730560","2024-08-31 06:45:00","10.9093","3.39535","24.996","2.785","7.58","0.429","4.458","0.06","0.16","30.0314","4.72768","30.5","0","SATNPRO1962","26.03","0.36458","5"],
    [32448,"HCEP03730560","2024-08-31 07:00:00","10.9159","3.39603","24.821","2.812","7.59","0.4","4.024","0.12","0.24","30.0328","4.72776","30.79","0","SATNPRO1962","26.736","0.3745","5"],
    [32449,"HCEP03730560","2024-08-31 07:15:00","10.9116","3.39569","24.672","2.878","7.59","0.376","3.941","0.04","0.15","30.033","4.72785","31.51","0","SATNPRO1962","26.436","0.37032","5"],
    [32450,"HCEP03730560","2024-08-31 07:30:00","10.9178","3.39706","24.518","2.886","7.59","0.327","3.598","0.04","0.18","30.0414","4.72893","31.61","0","SATNPRO1962","26.698","0.37392","5"],
    [32451,"HCEP03730560","2024-08-31 07:45:00","10.9164","3.39719","24.366","2.948","7.6","0.424","4.028","0.08","0.29","30.0439","4.7293","32.28","0","SATNPRO1962","26.222","0.3673","5"],
    [32452,"HCEP03730560","2024-08-31 08:00:00","10.9098","3.39669","24.273","2.849","7.59","0.484","5.501","0.04","0.29","30.0444","4.72947","31.2","0","SATNPRO1962","25.806","0.3615","5"],
    [32453,"HCEP03730560","2024-08-31 08:15:00","10.9093","3.39677","24.194","2.687","7.58","0.555","5.399","0.08","0.28","30.0456","4.72965","29.42","0","SATNPRO1962","25.738","0.36052","5"],
    [32454,"HCEP03730560","2024-08-31 08:30:00","10.9143","3.39742","24.138","2.706","7.58","0.39","4.423","0.05","0.25","30.048","4.72991","29.64","0","SATNPRO1962","26.326","0.36874","5"],
    [32455,"HCEP03730560","2024-08-31 08:45:00","10.9147","3.39756","24.116","2.791","7.59","0.457","4.463","0.1","0.27","30.049","4.73004","30.56","0","SATNPRO1962","26.296","0.36832","5"],
    [32456,"HCEP03730560","2024-08-31 09:00:00","10.9216","3.39843","24.121","2.921","7.6","0.345","3.166","0.12","0.14","30.0519","4.73035","31.99","0","SATNPRO1962","26.254","0.36774","5"],
    [32457,"HCEP03730560","2024-08-31 09:15:00","10.9229","3.39856","24.13","3.046","7.61","0.385","3.685","0.05","0.21","30.052","4.73035","33.36","0","SATNPRO1962","27.556","0.38596","5"],
    [32458,"HCEP03730560","2024-08-31 09:30:00","10.9191","3.3981","24.155","3.069","7.6","0.335","3.607","0.04","0.21","30.0507","4.73022","33.62","0","SATNPRO1962","27.262","0.38184","5"],
    [32459,"HCEP03730560","2024-08-31 09:45:00","10.9238","3.39866","24.19","3.059","7.61","0.346","2.807","0.04","0.11","30.0523","4.73037","33.5","0","SATNPRO1962","27.616","0.38678","5"],
    [32460,"HCEP03730560","2024-08-31 10:00:00","10.9204","3.39834","24.278","3.084","7.61","0.353","3.873","0.07","0.2","30.0519","4.73037","33.78","0","SATNPRO1962","27.132","0.38006","5"],
    [32461,"HCEP03730560","2024-08-31 10:15:00","10.9176","3.39809","24.402","2.915","7.6","0.404","4.377","0.04","0.2","30.0517","4.7304","31.92","0","SATNPRO1962","26.218","0.36716","5"],
    [32462,"HCEP03730560","2024-08-31 10:30:00","10.9202","3.39828","24.525","2.906","7.6","0.369","4.116","0.05","0.16","30.0514","4.73032","31.83","0","SATNPRO1962","26.47","0.37072","5"],
    [32463,"HCEP03730560","2024-08-31 10:45:00","10.9257","3.39865","24.658","3.032","7.61","0.335","3.073","0.03","0.08","30.0505","4.73011","33.21","0","SATNPRO1962","27.492","0.38506","5"],
    [32464,"HCEP03730560","2024-08-31 11:00:00","10.9155","3.39796","24.792","3","7.6","0.411","4.695","0.04","0.18","30.052","4.73049","32.86","0","SATNPRO1962","26.044","0.36482","5"],
    [32465,"HCEP03730560","2024-08-31 11:15:00","10.9162","3.39809","24.912","2.769","7.59","0.471","4.76","0.04","0.14","30.0526","4.73057","30.32","0","SATNPRO1962","26.102","0.36558","5"],
    [32466,"HCEP03730560","2024-08-31 11:30:00","10.9204","3.39844","25.091","2.8","7.59","0.438","4.309","0.07","0.22","30.0526","4.73052","30.67","0","SATNPRO1962","26.502","0.3712","5"],
    [32467,"HCEP03730560","2024-08-31 11:45:00","10.9267","3.39872","25.268","3.029","7.61","0.312","2.775","0.04","0.08","30.05","4.73007","33.18","0","SATNPRO1962","27.952","0.39154","5"],
    [32468,"HCEP03730560","2024-08-31 12:00:00","10.9265","3.39863","25.476","3.222","7.62","0.32","3.187","0.04","0.15","30.0493","4.72997","35.3","0","SATNPRO1962","28.07","0.39316","5"],
    [32469,"HCEP03730560","2024-08-31 12:15:00","10.9272","3.39854","25.636","3.255","7.62","0.316","2.945","0.03","0.13","30.0478","4.72977","35.65","0","SATNPRO1962","28.12","0.39388","5"],
    [32470,"HCEP03730560","2024-08-31 12:30:00","10.9272","3.39847","25.825","3.282","7.62","0.283","2.784","0.04","0.19","30.047","4.72967","35.95","0","SATNPRO1962","28.07","0.39316","5"],
    [32471,"HCEP03730560","2024-08-31 12:45:00","10.9265","3.39845","26.045","3.251","7.62","0.351","3.165","0.04","0.12","30.0473","4.72973","35.62","0","SATNPRO1962","27.86","0.39022","5"],
    [32472,"HCEP03730560","2024-08-31 13:00:00","10.9235","3.39812","26.234","3.18","7.62","0.324","3.29","0.03","0.08","30.0465","4.72967","34.83","0","SATNPRO1962","27.528","0.3856","5"],
    [32473,"HCEP03730560","2024-08-31 13:15:00","10.9269","3.39674","26.421","3.189","7.63","0.281","1.686","0.02","0.05","30.03","4.72729","34.93","0","SATNPRO1962","28.554000000000002","0.39996","5"],
    [32474,"HCEP03730560","2024-08-31 13:30:00","10.9229","3.39501","26.604","3.37","7.63","0.247","1.699","0.02","0.07","30.0162","4.7254","36.9","0","SATNPRO1962","28.541999999999998","0.39976","5"],
    [32475,"HCEP03730560","2024-08-31 13:45:00","10.9248","3.39721","26.811","3.321","7.63","0.322","2.792","0.04","0.09","30.0362","4.72822","36.37","0","SATNPRO1962","27.776","0.38906","5"],
    [32476,"HCEP03730560","2024-08-31 14:00:00","10.9249","3.39676","26.944","3.251","7.63","0.319","2.988","0.04","0.14","30.0317","4.72759","35.61","0","SATNPRO1962","27.406","0.38382","5"],
    [32477,"HCEP03730560","2024-08-31 14:15:00","10.923400000000001","3.3975","27.088","3.224","7.62","0.357","2.953","0.06","0.12","30.0401","4.72881","35.31","0","SATNPRO1962","28.024","0.39254","5"],
    [32478,"HCEP03730560","2024-08-31 14:30:00","10.9203","3.39775","27.218","3.03","7.61","0.363","3.585","0.05","0.11","30.045","4.72956","33.19","0","SATNPRO1962","26.7","0.37398","5"],
    [32479,"HCEP03730560","2024-08-31 14:45:00","10.9213","3.39815","27.335","2.947","7.6","0.363","3.378","0.06","0.14","30.0482","4.73","32.28","0","SATNPRO1962","27.18","0.3807","5"],
    [32480,"HCEP03730560","2024-08-31 15:00:00","10.9179","3.39831","27.435","2.889","7.6","0.351","3.752","0.04","0.14","30.0524","4.73066","31.64","0","SATNPRO1962","26.41","0.36992","5"],
    [32481,"HCEP03730560","2024-08-31 15:15:00","10.9152","3.39868","27.504","2.778","7.59","0.477","4.291","0.08","0.35","30.0582","4.73153","30.42","0","SATNPRO1962","25.996","0.36412","5"],
    [32482,"HCEP03730560","2024-08-31 15:30:00","10.9167","3.39884","27.555","2.743","7.59","0.419","4.158","0.09","0.27","30.0586","4.73156","30.04","0","SATNPRO1962","26.3","0.36836","5"],
    [32483,"HCEP03730560","2024-08-31 15:45:00","10.9185","3.3987","27.609","2.807","7.59","0.402","3.734","0.07","0.22","30.0556","4.73112","30.75","0","SATNPRO1962","26.582","0.37234","5"],
    [32484,"HCEP03730560","2024-08-31 16:00:00","10.9149","3.39824","27.611","2.806","7.59","0.439","4.546","0.05","0.21","30.0542","4.73097","30.73","0","SATNPRO1962","26.352","0.3691","5"],
    [32485,"HCEP03730560","2024-08-31 16:15:00","10.916","3.39806","27.599","2.724","7.58","0.512","4.42","0.14","0.31","30.0514","4.73056","29.83","0","SATNPRO1962","26.078","0.3653","5"],
    [32486,"HCEP03730560","2024-08-31 16:30:00","10.9192","3.39752","27.624","2.8","7.59","0.387","3.978","0.04","0.13","30.0436","4.7294","30.67","0","SATNPRO1962","26.926","0.37716","5"],
    [32487,"HCEP03730560","2024-08-31 16:45:00","10.9217","3.39707","27.587","2.931","7.6","0.341","3.008","0.03","0.1","30.0371","4.72844","32.11","0","SATNPRO1962","27.238","0.3815","5"],
    [32488,"HCEP03730560","2024-08-31 17:00:00","10.9217","3.39675","27.566","3.018","7.6","0.305","2.778","0.03","0.14","30.0339","4.72799","33.05","0","SATNPRO1962","27.456","0.38452","5"],
    [32489,"HCEP03730560","2024-08-31 17:15:00","10.922","3.39648","27.554","3.056","7.6","0.316","2.711","0.03","0.11","30.031","4.72757","33.47","0","SATNPRO1962","27.454","0.38452","5"],
    [32490,"HCEP03730560","2024-08-31 17:30:00","10.9193","3.39603","27.482","3.04","7.6","0.323","3.352","0.04","0.79","30.0289","4.7273","33.29","0","SATNPRO1962","27.172","0.38056","5"],
    [32491,"HCEP03730560","2024-08-31 17:45:00","10.9129","3.39609","27.445","2.905","7.59","0.479","4.532","0.12","0.31","30.0347","4.72823","31.81","0","SATNPRO1962","26.21","0.36714","5"],
    [32492,"HCEP03730560","2024-08-31 18:00:00","10.9096","3.39602","27.412","2.709","7.58","0.482","5.116","0.08","0.34","30.0368","4.72857","29.66","0","SATNPRO1962","25.106","0.35166","5"],
    [32493,"HCEP03730560","2024-08-31 18:15:00","10.9128","3.39505","27.357","2.674","7.58","0.429","4.346","0.07","0.25","30.0246","4.72679","29.28","0","SATNPRO1962","26.328","0.36878","5"],
    [32494,"HCEP03730560","2024-08-31 18:30:00","10.9109","3.39518","27.224","2.752","7.58","0.368","4.308","0.04","0.16","30.0275","4.72723","30.13","0","SATNPRO1962","26.44","0.37034","5"],
    [32495,"HCEP03730560","2024-08-31 18:45:00","10.9067","3.39636","27.145","2.656","7.57","0.432","4.539","0.07","0.2","30.0425","4.72942","29.08","0","SATNPRO1962","25.286","0.35418","5"],
    [32496,"HCEP03730560","2024-08-31 19:00:00","10.9042","3.39671","27.057","2.539","7.57","0.46","4.96","0.1","0.23","30.0481","4.73025","27.8","0","SATNPRO1962","25.226","0.35334","5"],
    [32497,"HCEP03730560","2024-08-31 19:15:00","10.9035","3.39662","27.019","2.485","7.56","0.479","5.033","0.08","0.19","30.0478","4.73021","27.21","0","SATNPRO1962","25.304","0.35442","5"],
    [32498,"HCEP03730560","2024-08-31 19:30:00","10.9006","3.39531","26.928","2.501","7.56","0.397","4.419","0.07","0.28","30.0373","4.72876","27.38","0","SATNPRO1962","25.664","0.35946","5"],
    [32499,"HCEP03730560","2024-08-31 19:45:00","10.9015","3.39571","26.836","2.537","7.56","0.425","4.364","0.06","0.23","30.0406","4.7292","27.78","0","SATNPRO1962","25.67","0.35954","5"],
    [32500,"HCEP03730560","2024-08-31 20:00:00","10.9049","3.39696","26.692","2.566","7.56","0.572","4.701","0.34","0.29","30.0501","4.7305","28.09","0","SATNPRO1962","25.732","0.36042","5"],
    [32501,"HCEP03730560","2024-08-31 20:15:00","10.9072","3.39773","26.605","2.56","7.56","0.504","4.997","0.1","0.3","30.0558","4.73126","28.03","0","SATNPRO1962","25.694","0.35988","5"],
    [32502,"HCEP03730560","2024-08-31 20:30:00","10.9107","3.39897","26.537","2.603","7.57","0.431","4.296","0.08","0.35","30.0651","4.73253","28.5","0","SATNPRO1962","26.364","0.36924","5"],
    [32503,"HCEP03730560","2024-08-31 20:45:00","10.9117","3.39944","26.431","2.68","7.57","0.527","4.07","0.12","0.27","30.069","4.73305","29.35","0","SATNPRO1962","26.15","0.3663","5"],
    [32504,"HCEP03730560","2024-08-31 21:00:00","10.9101","3.39933","26.322","2.683","7.57","0.404","4.193","0.07","0.13","30.0692","4.73311","29.39","0","SATNPRO1962","26.174","0.3666","5"],
    [32505,"HCEP03730560","2024-08-31 21:15:00","10.9087","3.39903","26.28","2.647","7.57","0.432","4.442","0.08","0.23","30.0674","4.73288","28.99","0","SATNPRO1962","26.03","0.36462","5"],
    [32506,"HCEP03730560","2024-08-31 21:30:00","10.9075","3.39867","26.238","2.615","7.57","0.387","4.137","0.11","0.34","30.0649","4.73254","28.63","0","SATNPRO1962","25.944","0.36338","5"],
    [32507,"HCEP03730560","2024-08-31 21:45:00","10.906","3.3977","26.21","2.622","7.57","0.421","3.596","0.13","0.19","30.0567","4.73138","28.71","0","SATNPRO1962","26.216","0.3672","5"],
    [32508,"HCEP03730560","2024-08-31 22:00:00","10.9073","3.39684","26.217","2.632","7.57","0.286","3.644","0.02","0.4","30.0472","4.73002","28.82","0","SATNPRO1962","26.132","0.36604","5"],
    [32509,"HCEP03730560","2024-08-31 22:15:00","10.9054","3.3972","26.239","2.572","7.57","0.459","3.35","0.15","0.14","30.0522","4.73076","28.16","0","SATNPRO1962","26.164","0.36648","5"],
    [32510,"HCEP03730560","2024-08-31 22:30:00","10.9044","3.39695","26.272","2.655","7.58","0.267","3.132","0.04","0.08","30.0506","4.73055","29.07","0","SATNPRO1962","26.412","0.36992","5"],
    [32511,"HCEP03730560","2024-08-31 22:45:00","10.9035","3.39672","26.33","2.677","7.58","0.332","3.404","0.07","0.17","30.0491","4.73035","29.31","0","SATNPRO1962","26.366","0.3693","5"],
    [32512,"HCEP03730560","2024-08-31 23:00:00","10.9026","3.39644","26.379","2.679","7.57","0.304","3.377","0.07","0.24","30.047","4.73007","29.33","0","SATNPRO1962","26.288","0.36822","5"],
    [32513,"HCEP03730560","2024-08-31 23:15:00","10.8987","3.39498","26.44","2.685","7.58","0.298","3.186","0.03","0.19","30.0359","4.72856","29.39","0","SATNPRO1962","26.322","0.3687","5"],
    [32514,"HCEP03730560","2024-08-31 23:30:00","10.895","3.39356","26.506","2.689","7.57","0.28","2.759","0.06","0.05","30.025","4.72707","29.43","0","SATNPRO1962","26.258","0.36778","5"],
    [32515,"HCEP03730560","2024-08-31 23:45:00","10.8882","3.3922","26.577","2.624","7.57","0.334","3.097","0.07","0.11","30.0171","4.72605","28.72","0","SATNPRO1962","25.902","0.36282","5"],
    [32516,"HCEP03730560","2024-09-01 00:00:00","10.8855","3.39128","26.651","2.536","7.56","0.362","3.339","0.41","0.3","30.0103","4.72514","27.74","0","SATNPRO1962","25.478","0.3569","5"],
    [32517,"HCEP03730560","2024-09-01 00:15:00","10.8851","3.39109","26.729","2.48","7.56","0.316","3.194","0.04","0.24","30.0087","4.72493","27.13","0","SATNPRO1962","25.52","0.35738","5"],
    [32518,"HCEP03730560","2024-09-01 00:30:00","10.9084","3.39929","26.814","2.502","7.56","0.437","4.338","0.14","0.36","30.07","4.73327","27.4","0","SATNPRO1962","25.892","0.36268","5"],
    [32519,"HCEP03730560","2024-09-01 00:45:00","10.9103","3.39969","26.888","2.558","7.57","0.418","4.636","0.05","0.55","30.0724","4.73358","28.01","0","SATNPRO1962","25.854","0.36214","5"],
    [32520,"HCEP03730560","2024-09-01 01:00:00","10.9088","3.39898","26.954","2.587","7.57","0.406","5.378","0.06","2.55","30.0666","4.73279","28.34","0","SATNPRO1962","25.968","0.36374","5"],
    [32521,"HCEP03730560","2024-09-01 01:15:00","10.9107","3.39967","27.049","2.583","7.57","0.48","4.979","0.07","0.35","30.0718","4.73351","28.29","0","SATNPRO1962","25.716","0.3602","5"],
    [32522,"HCEP03730560","2024-09-01 01:30:00","10.9105","3.39956","27.102","2.562","7.57","0.469","5","0.08","0.19","30.0709","4.73338","28.06","0","SATNPRO1962","25.706","0.36004","5"],
    [32523,"HCEP03730560","2024-09-01 01:45:00","10.9108","3.3995","27.147","2.564","7.57","0.475","5.291","0.07","0.53","30.07","4.73326","28.08","0","SATNPRO1962","25.7","0.36","5"],
    [32524,"HCEP03730560","2024-09-01 02:00:00","10.9112","3.39942","27.129","2.569","7.57","0.431","4.881","0.07","0.18","30.0689","4.73309","28.14","0","SATNPRO1962","25.932","0.36322","5"],
    [32525,"HCEP03730560","2024-09-01 02:15:00","10.9121","3.3994","27.205","2.577","7.57","0.492","4.713","0.09","0.21","30.0679","4.73294","28.22","0","SATNPRO1962","25.79","0.36126","5"],
    [32526,"HCEP03730560","2024-09-01 02:30:00","10.9118","3.39929","27.248","2.56","7.56","0.464","5.267","0.09","0.52","30.0671","4.73283","28.04","0","SATNPRO1962","25.61","0.35872","5"],
    [32527,"HCEP03730560","2024-09-01 02:45:00","10.9112","3.39902","27.278","2.53","7.56","0.482","4.732","0.09","0.19","30.0649","4.73253","27.71","0","SATNPRO1962","25.52","0.35744","5"],
    [32528,"HCEP03730560","2024-09-01 03:00:00","10.9097","3.39855","27.294","2.488","7.56","0.53","4.826","0.16","0.23","30.0616","4.73209","27.24","0","SATNPRO1962","25.284","0.35414","5"],
    [32529,"HCEP03730560","2024-09-01 03:15:00","10.9082","3.39778","27.297","2.438","7.55","0.441","5.011","0.07","0.4","30.0552","4.73121","26.69","0","SATNPRO1962","25.176000000000002","0.35258","5"],
    [32530,"HCEP03730560","2024-09-01 03:30:00","10.9084","3.39701","27.282","2.415","7.55","0.445","4.818","0.1","0.26","30.0475","4.73011","26.45","0","SATNPRO1962","25.434","0.35624","5"],
    [32531,"HCEP03730560","2024-09-01 03:45:00","10.9088","3.39663","27.25","2.431","7.55","0.542","4.802","0.14","0.21","30.0435","4.72953","26.62","0","SATNPRO1962","25.554","0.35794","5"],
    [32532,"HCEP03730560","2024-09-01 04:00:00","10.9112","3.39558","27.202","2.504","7.56","0.446","4.471","0.13","0.31","30.0312","4.72775","27.42","0","SATNPRO1962","26.272","0.36798","5"],
    [32533,"HCEP03730560","2024-09-01 04:15:00","10.9129","3.39533","27.132","2.598","7.56","0.414","4.26","0.08","0.23","30.0275","4.72718","28.44","0","SATNPRO1962","26.058","0.36496","5"],
    [32534,"HCEP03730560","2024-09-01 04:30:00","10.9138","3.39521","27.041","2.645","7.57","0.421","4.225","0.07","0.17","30.0255","4.72689","28.97","0","SATNPRO1962","26.064","0.36508","5"],
    [32535,"HCEP03730560","2024-09-01 04:45:00","10.9162","3.39498","26.936","2.711","7.57","0.491","4.556","0.2","0.23","30.0213","4.72624","29.69","0","SATNPRO1962","26.632","0.37306","5"],
    [32536,"HCEP03730560","2024-09-01 05:00:00","10.9183","3.39462","26.81","2.816","7.58","0.39","3.712","0.06","0.11","30.0161","4.72547","30.83","0","SATNPRO1962","27.452","0.38448","5"],
    [32537,"HCEP03730560","2024-09-01 05:15:00","10.9196","3.39444","26.67","2.906","7.59","0.447","3.649","0.13","0.24","30.0134","4.72506","31.82","0","SATNPRO1962","27.148","0.38022","5"],
    [32538,"HCEP03730560","2024-09-01 05:30:00","10.9211","3.39425","26.517","2.956","7.59","0.452","3.502","0.15","0.17","30.0103","4.72458","32.37","0","SATNPRO1962","27.394000000000002","0.38374","5"],
    [32539,"HCEP03730560","2024-09-01 05:45:00","10.9212","3.39421","26.378","2.974","7.59","0.421","3.683","0.06","0.16","30.0099","4.72452","32.57","0","SATNPRO1962","27.032","0.3786","5"],
    [32540,"HCEP03730560","2024-09-01 06:00:00","10.9227","3.39409","26.197","2.975","7.59","0.412","3.571","0.08","0.26","30.0076","4.72416","32.58","0","SATNPRO1962","27.002","0.3782","5"],
    [32541,"HCEP03730560","2024-09-01 06:15:00","10.9241","3.39391","26.006","3","7.6","0.438","3.143","0.08","0.2","30.0048","4.72372","32.86","0","SATNPRO1962","27.034","0.37866","5"],
    [32542,"HCEP03730560","2024-09-01 06:30:00","10.9244","3.39377","25.813","3.01","7.6","0.357","3.022","0.05","0.22","30.0033","4.72349","32.96","0","SATNPRO1962","27.054","0.37892","5"],
    [32543,"HCEP03730560","2024-09-01 06:45:00","10.9251","3.39362","25.628","2.993","7.6","0.379","2.757","0.06","0.14","30.0012","4.72319","32.78","0","SATNPRO1962","26.966","0.37772","5"],
    [32544,"HCEP03730560","2024-09-01 07:00:00","10.9232","3.39381","25.426","2.988","7.6","0.435","4.359","0.1","0.3","30.0047","4.7237","32.73","0","SATNPRO1962","26.864","0.37624","5"],
    [32545,"HCEP03730560","2024-09-01 07:15:00","10.9225","3.39283","25.241","2.953","7.59","0.418","3.072","0.09","0.12","29.9958","4.72243","32.34","0","SATNPRO1962","26.624","0.37294","5"],
    [32546,"HCEP03730560","2024-09-01 07:30:00","10.9211","3.39408","25.053","2.914","7.59","0.444","3.513","0.1","0.22","30.0093","4.72436","31.91","0","SATNPRO1962","26.63","0.373","5"],
    [32547,"HCEP03730560","2024-09-01 07:45:00","10.9211","3.3941","24.87","2.9","7.59","0.516","3.923","0.13","0.16","30.0095","4.72438","31.75","0","SATNPRO1962","26.676","0.37366","5"],
    [32548,"HCEP03730560","2024-09-01 08:00:00","10.92","3.39414","24.687","2.882","7.59","0.485","4.023","0.09","0.26","30.0109","4.72458","31.56","0","SATNPRO1962","26.588","0.37242","5"],
    [32549,"HCEP03730560","2024-09-01 08:15:00","10.9198","3.39423","24.529","2.875","7.59","0.527","3.788","0.14","0.2","30.012","4.72474","31.48","0","SATNPRO1962","26.544","0.3718","5"],
    [32550,"HCEP03730560","2024-09-01 08:30:00","10.9178","3.39437","24.416","2.839","7.59","0.502","3.899","0.12","0.12","30.0151","4.7252","31.09","0","SATNPRO1962","26.355999999999998","0.36914","5"],
    [32551,"HCEP03730560","2024-09-01 08:45:00","10.9181","3.39466","24.278","2.793","7.58","0.504","3.591","0.12","0.15","30.0177","4.72556","30.59","0","SATNPRO1962","26.39","0.36962","5"],
    [32552,"HCEP03730560","2024-09-01 09:00:00","10.9168","3.39474","24.232","2.761","7.58","0.486","3.974","0.08","0.12","30.0196","4.72583","30.23","0","SATNPRO1962","26.178","0.36668","5"],
    [32553,"HCEP03730560","2024-09-01 09:15:00","10.9168","3.39484","24.183","2.724","7.58","0.418","3.62","0.06","0.11","30.0206","4.72598","29.83","0","SATNPRO1962","25.982","0.36394","5"],
    [32554,"HCEP03730560","2024-09-01 09:30:00","10.9155","3.39462","24.162","2.689","7.57","0.396","3.628","0.05","0.1","30.0195","4.72584","29.45","0","SATNPRO1962","25.85","0.36206","5"],
    [32555,"HCEP03730560","2024-09-01 09:45:00","10.9158","3.3949","24.167","2.67","7.57","0.519","4.234","0.09","0.1","30.022","4.7262","29.23","0","SATNPRO1962","25.812","0.36154","5"],
    [32556,"HCEP03730560","2024-09-01 10:00:00","10.9155","3.39497","24.226","2.649","7.57","0.459","4.456","0.05","0.33","30.0229","4.72633","29.01","0","SATNPRO1962","25.934","0.36322","5"],
    [32557,"HCEP03730560","2024-09-01 10:15:00","10.9102","3.39457","24.257","2.589","7.56","0.464","4.297","0.05","0.11","30.0233","4.72647","28.35","0","SATNPRO1962","25.168","0.35256","5"],
    [32558,"HCEP03730560","2024-09-01 10:30:00","10.9081","3.39422","24.318","2.473","7.56","0.452","4.303","0.09","0.18","30.0216","4.72627","27.07","0","SATNPRO1962","24.816","0.34754","5"],
    [32559,"HCEP03730560","2024-09-01 10:45:00","10.9153","3.39318","24.398","2.496","7.56","0.429","3.763","0.06","0.12","30.0055","4.72386","27.32","0","SATNPRO1962","25.84","0.36194","5"],
    [32560,"HCEP03730560","2024-09-01 11:00:00","10.917","3.39315","24.532","2.61","7.57","0.446","3.95","0.1","0.2","30.0037","4.7236","28.58","0","SATNPRO1962","26.028","0.3646","5"],
    [32561,"HCEP03730560","2024-09-01 11:15:00","10.9109","3.39414","24.651","2.587","7.56","0.555","4.665","0.1","0.31","30.0184","4.72578","28.32","0","SATNPRO1962","25.2","0.35294","5"],
    [32562,"HCEP03730560","2024-09-01 11:30:00","10.9161","3.39328","24.817","2.545","7.57","0.473","3.888","0.19","0.12","30.0056","4.7239","27.86","0","SATNPRO1962","25.808","0.3615","5"],
    [32563,"HCEP03730560","2024-09-01 11:45:00","10.908","3.3945","25.006","2.509","7.55","0.569","4.956","0.12","0.25","30.0241","4.72666","27.47","0","SATNPRO1962","24.522000000000002","0.34346","5"],
    [32564,"HCEP03730560","2024-09-01 12:00:00","10.907","3.39452","25.176","2.326","7.54","0.613","5.282","0.17","0.29","30.0251","4.72682","25.47","0","SATNPRO1962","24.25","0.33966","5"],
    [32565,"HCEP03730560","2024-09-01 12:15:00","10.9052","3.3942","25.352","2.237","7.54","0.581","5.313","0.21","0.23","30.0234","4.72662","24.49","0","SATNPRO1962","24.134","0.33802","5"],
    [32566,"HCEP03730560","2024-09-01 12:30:00","10.9052","3.39427","25.498","2.186","7.53","0.567","5.351","0.17","0.3","30.0239","4.72671","23.93","0","SATNPRO1962","23.918","0.33502","5"],
    [32567,"HCEP03730560","2024-09-01 12:45:00","10.9041","3.39337","25.66","2.155","7.53","0.516","4.86","0.09","0.12","30.016","4.7256","23.59","0","SATNPRO1962","23.896","0.3347","5"],
    [32568,"HCEP03730560","2024-09-01 13:00:00","10.9071","3.39364","25.793","2.18","7.53","0.524","4.969","0.1","0.24","30.0161","4.72558","23.87","0","SATNPRO1962","24.588","0.34442","5"],
    [32569,"HCEP03730560","2024-09-01 13:15:00","10.9107","3.39364","25.994","2.289","7.54","0.527","4.747","0.05","0.13","30.0131","4.72511","25.06","0","SATNPRO1962","25.018","0.3504","5"],
    [32570,"HCEP03730560","2024-09-01 13:30:00","10.9136","3.39379","26.228","2.443","7.55","0.457","4.166","0.05","0.08","30.0121","4.72494","26.75","0","SATNPRO1962","25.67","0.35954","5"],
    [32571,"HCEP03730560","2024-09-01 13:45:00","10.91","3.39392","26.4","2.466","7.55","0.559","4.845","0.06","0.15","30.0162","4.72559","26.99","0","SATNPRO1962","24.632","0.34504","5"],
    [32572,"HCEP03730560","2024-09-01 14:00:00","10.9075","3.39346","26.606","2.33","7.54","0.441","4.518","0.07","0.11","30.0137","4.72528","25.5","0","SATNPRO1962","24.464","0.34266","5"],
    [32573,"HCEP03730560","2024-09-01 14:15:00","10.9178","3.39401","26.861","2.448","7.56","0.489","3.97","0.12","0.07","30.0106","4.72469","26.81","0","SATNPRO1962","25.874","0.3624","5"],
    [32574,"HCEP03730560","2024-09-01 14:30:00","10.899","3.39277","27.03","2.442","7.54","0.505","4.662","0.09","0.12","30.0137","4.72544","26.73","0","SATNPRO1962","23.474","0.32876","5"],
    [32575,"HCEP03730560","2024-09-01 14:45:00","10.8966","3.39296","27.134","2.063","7.52","0.599","4.938","0.08","0.15","30.0175","4.72602","22.58","0","SATNPRO1962","23.23","0.3254","5"],
    [32576,"HCEP03730560","2024-09-01 15:00:00","10.8984","3.3937","27.285","1.96","7.52","0.579","5.242","0.08","0.24","30.0232","4.72681","21.45","0","SATNPRO1962","23.174","0.32462","5"],
    [32577,"HCEP03730560","2024-09-01 15:15:00","10.8992","3.39376","27.427","1.963","7.52","0.624","5.191","0.09","0.18","30.0231","4.7268","21.49","0","SATNPRO1962","23.262","0.32584","5"],
    [32578,"HCEP03730560","2024-09-01 15:30:00","10.8998","3.39389","27.59","1.972","7.51","0.574","4.943","0.1","0.23","30.0239","4.7269","21.58","0","SATNPRO1962","23.268","0.32592","5"],
    [32579,"HCEP03730560","2024-09-01 15:45:00","10.8996","3.3939","27.611","1.981","7.51","0.594","4.843","0.08","0.08","30.0241","4.72694","21.69","0","SATNPRO1962","23.294","0.32628","5"],
    [32580,"HCEP03730560","2024-09-01 16:00:00","10.8979","3.39386","27.67","1.983","7.51","0.695","4.911","0.27","0.3","30.0251","4.72711","21.71","0","SATNPRO1962","23.272","0.32596","5"],
    [32581,"HCEP03730560","2024-09-01 16:15:00","10.8986","3.39398","27.651","1.982","7.51","0.553","4.745","0.08","0.16","30.0257","4.72718","21.7","0","SATNPRO1962","23.362000000000002","0.32724","5"],
    [32582,"HCEP03730560","2024-09-01 16:30:00","10.8979","3.39384","27.687","2.001","7.51","0.522","4.752","0.07","0.15","30.0248","4.72707","21.91","0","SATNPRO1962","23.426000000000002","0.32812","5"],
    [32583,"HCEP03730560","2024-09-01 16:45:00","10.8998","3.39398","27.694","2.015","7.51","0.552","4.908","0.08","0.13","30.0247","4.72702","22.06","0","SATNPRO1962","23.49","0.329","5"],
    [32584,"HCEP03730560","2024-09-01 17:00:00","10.9021","3.39435","27.659","2.047","7.52","0.5","4.65","0.07","0.16","30.0264","4.72722","22.41","0","SATNPRO1962","23.676","0.3316","5"],
    [32585,"HCEP03730560","2024-09-01 17:15:00","10.9031","3.39461","27.654","2.073","7.52","0.618","5.179","0.08","0.19","30.0282","4.72746","22.7","0","SATNPRO1962","23.67","0.33154","5"],
    [32586,"HCEP03730560","2024-09-01 17:30:00","10.9065","3.39538","27.633","2.095","7.52","0.592","5.201","0.09","0.15","30.0329","4.72809","22.94","0","SATNPRO1962","23.864","0.33426","5"],
    [32587,"HCEP03730560","2024-09-01 17:45:00","10.9083","3.39597","27.595","2.178","7.53","0.471","4.659","0.05","0.09","30.0372","4.72866","23.85","0","SATNPRO1962","24.52","0.34344","5"],
    [32588,"HCEP03730560","2024-09-01 18:00:00","10.9085","3.39599","27.523","2.248","7.53","0.467","4.776","0.06","0.2","30.0373","4.72867","24.61","0","SATNPRO1962","24.528","0.34356","5"],
    [32589,"HCEP03730560","2024-09-01 18:15:00","10.9091","3.39597","27.472","2.277","7.54","0.453","4.365","0.06","0.17","30.0367","4.72857","24.93","0","SATNPRO1962","24.682","0.34572","5"],
    [32590,"HCEP03730560","2024-09-01 18:30:00","10.9084","3.39538","27.414","2.303","7.54","0.458","4.19","0.09","0.14","30.0315","4.72783","25.22","0","SATNPRO1962","24.632","0.345","5"],
    [32591,"HCEP03730560","2024-09-01 18:45:00","10.9088","3.39537","27.307","2.293","7.54","0.519","4.484","0.1","0.18","30.0311","4.72777","25.11","0","SATNPRO1962","24.708","0.34608","5"],
    [32592,"HCEP03730560","2024-09-01 19:00:00","10.9096","3.39526","27.221","2.279","7.54","0.528","4.632","0.08","0.39","30.0294","4.72751","24.95","0","SATNPRO1962","24.812","0.34752","5"],
    [32593,"HCEP03730560","2024-09-01 19:15:00","10.9132","3.39475","27.14","2.344","7.54","0.561","4.516","0.11","0.23","30.0215","4.72632","25.66","0","SATNPRO1962","25.268","0.35392","5"],
    [32594,"HCEP03730560","2024-09-01 19:30:00","10.9139","3.39369","27.073","2.483","7.55","0.545","4.146","0.23","0.35","30.0105","4.72476","27.18","0","SATNPRO1962","25.548","0.35784","5"],
    [32595,"HCEP03730560","2024-09-01 19:45:00","10.9119","3.39337","26.948","2.52","7.55","0.43","3.099","0.08","0.1","30.0091","4.72458","27.59","0","SATNPRO1962","25.43","0.35622","5"],
    [32596,"HCEP03730560","2024-09-01 20:00:00","10.9162","3.39404","26.882","2.571","7.56","0.398","3.034","0.1","0.06","30.0121","4.72494","28.15","0","SATNPRO1962","25.754","0.36072","5"],
    [32597,"HCEP03730560","2024-09-01 20:15:00","10.9169","3.39444","26.846","2.642","7.56","0.548","3.81","0.09","0.27","30.0155","4.7254","28.93","0","SATNPRO1962","25.988","0.36402","5"],
    [32598,"HCEP03730560","2024-09-01 20:30:00","10.9132","3.39476","26.724","2.585","7.56","0.653","4.197","0.14","0.13","30.0218","4.72635","28.3","0","SATNPRO1962","25.178","0.35266","5"],
    [32599,"HCEP03730560","2024-09-01 20:45:00","10.912","3.39512","26.613","2.449","7.55","0.764","4.496","0.12","0.13","30.0263","4.727","26.82","0","SATNPRO1962","25.124","0.35192","5"],
    [32600,"HCEP03730560","2024-09-01 21:00:00","10.9148","3.39401","26.44","2.479","7.56","0.546","3.552","0.08","0.13","30.0132","4.72509","27.14","0","SATNPRO1962","25.81","0.36152","5"],
    [32601,"HCEP03730560","2024-09-01 21:15:00","10.9124","3.39484","26.347","2.514","7.55","0.686","4.3","0.12","0.37","30.0232","4.72655","27.53","0","SATNPRO1962","25.066","0.35108","5"],
    [32602,"HCEP03730560","2024-09-01 21:30:00","10.9107","3.39564","26.264","2.401","7.55","0.672","4.648","0.12","0.19","30.0327","4.7279","26.29","0","SATNPRO1962","24.884","0.34852","5"],
    [32603,"HCEP03730560","2024-09-01 21:45:00","10.9099","3.39645","26.121","2.317","7.54","0.899","4.905","0.23","0.37","30.0412","4.72913","25.37","0","SATNPRO1962","24.646","0.34518","5"],
    [32604,"HCEP03730560","2024-09-01 22:00:00","10.9085","3.39675","26.057","2.277","7.54","0.964","5.132","0.25","0.35","30.0454","4.72973","24.93","0","SATNPRO1962","24.529999999999998","0.3436","5"],
    [32605,"HCEP03730560","2024-09-01 22:15:00","10.9083","3.39715","26.062","2.262","7.54","0.887","4.66","0.24","0.37","30.0494","4.73031","24.76","0","SATNPRO1962","24.738","0.34652","5"],
    [32606,"HCEP03730560","2024-09-01 22:30:00","10.9085","3.39694","26.085","2.263","7.54","1.005","4.413","0.5","0.5","30.0472","4.72999","24.78","0","SATNPRO1962","24.778000000000002","0.34706","5"],
    [32607,"HCEP03730560","2024-09-01 22:45:00","10.9084","3.39728","26.114","2.264","7.54","0.872","4.482","0.21","0.35","30.0506","4.73047","24.79","0","SATNPRO1962","24.714000000000002","0.34614","5"],
    [32608,"HCEP03730560","2024-09-01 23:00:00","10.9088","3.3973","26.127","2.256","7.54","0.925","4.276","0.3","0.22","30.0505","4.73047","24.7","0","SATNPRO1962","24.772","0.34698","5"],
    [32609,"HCEP03730560","2024-09-01 23:15:00","10.9087","3.39733","26.142","2.257","7.54","0.806","4.108","0.18","0.16","30.0508","4.73051","24.72","0","SATNPRO1962","24.688","0.3458","5"],
    [32610,"HCEP03730560","2024-09-01 23:30:00","10.9089","3.39756","26.203","2.266","7.54","0.864","3.939","0.26","0.13","30.0529","4.73081","24.81","0","SATNPRO1962","24.8","0.3474","5"],
    [32611,"HCEP03730560","2024-09-01 23:45:00","10.909","3.39777","26.29","2.27","7.54","0.714","4.042","0.21","0.23","30.0549","4.73109","24.86","0","SATNPRO1962","24.811999999999998","0.34754","5"],
    [32612,"HCEP03730560","2024-09-02 00:00:00","10.9091","3.39797","26.313","2.265","7.54","0.977","4.457","0.19","0.19","30.0568","4.73136","24.8","0","SATNPRO1962","24.84","0.34792","5"],
    [32613,"HCEP03730560","2024-09-02 00:15:00","10.909","3.39818","26.383","2.263","7.54","0.901","4.354","0.13","0.23","30.0589","4.73166","24.78","0","SATNPRO1962","24.802","0.34744","5"],
    [32614,"HCEP03730560","2024-09-02 00:30:00","10.9085","3.39824","26.469","2.26","7.54","0.834","4.28","0.18","0.44","30.0598","4.73181","24.75","0","SATNPRO1962","24.701999999999998","0.34602","5"],
    [32615,"HCEP03730560","2024-09-02 00:45:00","10.9078","3.39807","26.57","2.26","7.54","0.866","3.973","0.16","0.14","30.0586","4.73166","24.75","0","SATNPRO1962","24.816","0.3476","5"],
    [32616,"HCEP03730560","2024-09-02 01:00:00","10.907","3.39814","26.646","2.25","7.54","0.997","4.201","0.18","0.18","30.0599","4.73185","24.64","0","SATNPRO1962","24.646","0.3452","5"],
    [32617,"HCEP03730560","2024-09-02 01:15:00","10.9069","3.39786","26.72","2.244","7.54","0.777","3.69","0.15","0.15","30.0573","4.73149","24.57","0","SATNPRO1962","24.914","0.349","5"],
    [32618,"HCEP03730560","2024-09-02 01:30:00","10.9076","3.39784","26.803","2.27","7.54","0.654","3.691","0.13","0.14","30.0565","4.73137","24.86","0","SATNPRO1962","24.87","0.34838","5"],
    [32619,"HCEP03730560","2024-09-02 01:45:00","10.909","3.39752","26.898","2.292","7.54","0.819","3.732","0.2","0.19","30.0522","4.73074","25.09","0","SATNPRO1962","25.018","0.3504","5"],
    [32620,"HCEP03730560","2024-09-02 02:00:00","10.9091","3.39801","26.994","2.315","7.54","0.602","3.461","0.19","0.14","30.0569","4.73141","25.35","0","SATNPRO1962","25.09","0.35146","5"],
    [32621,"HCEP03730560","2024-09-02 02:15:00","10.9097","3.39795","27.051","2.319","7.54","0.703","3.662","0.18","0.13","30.0558","4.73125","25.39","0","SATNPRO1962","25.044","0.3508","5"],
    [32622,"HCEP03730560","2024-09-02 02:30:00","10.9091","3.39826","27.11","2.295","7.54","0.887","4.498","0.2","0.25","30.0592","4.73175","25.13","0","SATNPRO1962","24.972","0.34978","5"],
    [32623,"HCEP03730560","2024-09-02 02:45:00","10.9095","3.39827","27.179","2.272","7.54","0.831","4.494","0.11","0.22","30.059","4.73172","24.88","0","SATNPRO1962","24.84","0.34796","5"],
    [32624,"HCEP03730560","2024-09-02 03:00:00","10.9095","3.39826","27.256","2.278","7.54","0.927","4.642","0.1","0.22","30.0589","4.7317","24.94","0","SATNPRO1962","24.886","0.34856","5"],
    [32625,"HCEP03730560","2024-09-02 03:15:00","10.9098","3.39819","27.324","2.292","7.54","0.851","4.442","0.14","0.12","30.0579","4.73156","25.1","0","SATNPRO1962","25.098","0.35154","5"],
    [32626,"HCEP03730560","2024-09-02 03:30:00","10.9114","3.39783","27.364","2.352","7.54","0.717","3.9","0.09","0.19","30.053","4.73085","25.75","0","SATNPRO1962","25.644000000000002","0.35918","5"],
    [32627,"HCEP03730560","2024-09-02 03:45:00","10.9113","3.39773","27.379","2.404","7.55","0.778","3.859","0.17","0.16","30.0522","4.73073","26.33","0","SATNPRO1962","25.422","0.35608","5"],
    [32628,"HCEP03730560","2024-09-02 04:00:00","10.9128","3.39729","27.355","2.403","7.55","0.702","3.889","0.11","0.22","30.0467","4.72992","26.31","0","SATNPRO1962","25.306","0.35444","5"],
    [32629,"HCEP03730560","2024-09-02 04:15:00","10.9114","3.39702","27.333","2.372","7.54","0.826","4.243","0.12","0.13","30.0451","4.72972","25.98","0","SATNPRO1962","24.864","0.34824","5"],
    [32630,"HCEP03730560","2024-09-02 04:30:00","10.9106","3.3968","27.29","2.298","7.54","0.975","4.809","0.18","0.28","30.0436","4.72952","25.16","0","SATNPRO1962","24.528","0.34354","5"],
    [32631,"HCEP03730560","2024-09-02 04:45:00","10.9107","3.39653","27.239","2.258","7.54","0.868","4.722","0.11","0.31","30.041","4.72914","24.73","0","SATNPRO1962","24.448","0.34242","5"],
    [32632,"HCEP03730560","2024-09-02 05:00:00","10.9107","3.39634","27.168","2.239","7.54","1.017","4.638","0.28","0.3","30.0391","4.72888","24.51","0","SATNPRO1962","24.558","0.34396","5"],
    [32633,"HCEP03730560","2024-09-02 05:15:00","10.9107","3.39625","27.07","2.236","7.53","0.885","4.262","0.25","0.23","30.0383","4.72875","24.48","0","SATNPRO1962","24.468","0.3427","5"],
    [32634,"HCEP03730560","2024-09-02 05:30:00","10.9103","3.39613","26.954","2.244","7.53","0.815","4.398","0.22","0.21","30.0374","4.72863","24.57","0","SATNPRO1962","24.556","0.3439","5"],
    [32635,"HCEP03730560","2024-09-02 05:45:00","10.9091","3.39606","26.84","2.237","7.53","0.962","4.231","0.24","0.28","30.0378","4.72869","24.49","0","SATNPRO1962","24.576","0.34422","5"],
    [32636,"HCEP03730560","2024-09-02 06:00:00","10.9074","3.39574","26.691","2.206","7.53","0.77","4.114","0.17","0.17","30.036","4.72846","24.15","0","SATNPRO1962","22.95","0.32146","5"],
    [32637,"HCEP03730560","2024-09-02 06:15:00","10.9044","3.39507","26.552","2.138","7.53","0.877","4.178","0.23","0.39","30.032","4.72793","23.41","0","SATNPRO1962","23.88","0.33452","5"],
    [32638,"HCEP03730560","2024-09-02 06:30:00","10.9055","3.39514","26.402","2.084","7.52","0.847","4.061","0.25","0.18","30.0319","4.72788","22.81","0","SATNPRO1962","23.785999999999998","0.33312","5"],
    [32639,"HCEP03730560","2024-09-02 06:45:00","10.9041","3.39475","26.235","2.052","7.52","0.812","4.509","0.2","0.15","30.0293","4.72753","22.46","0","SATNPRO1962","23.56","0.33","5"],
    [32640,"HCEP03730560","2024-09-02 07:00:00","10.9046","3.39499","26.05","2.031","7.52","0.746","4.509","0.2","0.12","30.0314","4.7278","22.23","0","SATNPRO1962","23.624000000000002","0.33092","5"],
    [32641,"HCEP03730560","2024-09-02 07:15:00","10.9052","3.39516","25.842","2.048","7.52","0.847","4.341","0.24","0.29","30.0326","4.72796","22.42","0","SATNPRO1962","23.926000000000002","0.33516","5"],
    [32642,"HCEP03730560","2024-09-02 07:30:00","10.9021","3.39467","25.648","2.04","7.52","0.746","4.212","0.17","0.28","30.0304","4.72768","22.33","0","SATNPRO1962","23.576","0.33022","5"],
    [32643,"HCEP03730560","2024-09-02 07:45:00","10.9001","3.39455","25.453","2","7.51","0.72","3.764","0.18","0.18","30.0309","4.72777","21.9","0","SATNPRO1962","23.766000000000002","0.33286","5"],
    [32644,"HCEP03730560","2024-09-02 08:00:00","10.9048","3.39585","25.279","2.029","7.52","0.998","4.046","0.84","0.15","30.0399","4.72897","22.21","0","SATNPRO1962","24.012","0.33634","5"],
    [32645,"HCEP03730560","2024-09-02 08:15:00","10.9042","3.39587","25.104","2.081","7.52","1.046","4.388","0.3","0.39","30.0407","4.72908","22.78","0","SATNPRO1962","24.13","0.33796","5"],
    [32646,"HCEP03730560","2024-09-02 08:30:00","10.9028","3.39547","24.932","2.069","7.52","0.995","4.021","0.68","0.26","30.0379","4.7287","22.65","0","SATNPRO1962","23.962","0.33562","5"],
    [32647,"HCEP03730560","2024-09-02 08:45:00","10.9026","3.39561","24.761","2.054","7.52","0.716","3.78","0.21","0.19","30.0395","4.72892","22.49","0","SATNPRO1962","23.916","0.33496","5"],
    [32648,"HCEP03730560","2024-09-02 09:00:00","10.9052","3.39564","24.606","2.116","7.52","0.607","3.395","0.18","0.08","30.0378","4.72862","23.16","0","SATNPRO1962","24.83","0.34778","5"],
    [32649,"HCEP03730560","2024-09-02 09:15:00","10.9044","3.39618","24.47","2.137","7.52","0.876","4.295","0.15","0.19","30.0437","4.72947","23.4","0","SATNPRO1962","24.054","0.3369","5"],
    [32650,"HCEP03730560","2024-09-02 09:30:00","10.9143","3.39487","24.361","2.277","7.54","0.538","2.646","0.12","0.14","30.0228","4.72634","24.93","0","SATNPRO1962","26.02","0.3645","5"],
    [32651,"HCEP03730560","2024-09-02 09:45:00","10.925","3.39595","24.301","2.638","7.57","0.736","1.949","0.43","0.07","30.0247","4.72645","28.89","0","SATNPRO1962","27.6","0.38658","5"],
    [32652,"HCEP03730560","2024-09-02 10:00:00","10.9076","3.39569","24.295","2.685","7.55","0.614","3.404","0.12","0.22","30.0364","4.72837","29.4","0","SATNPRO1962","24.774","0.34698","5"],
    [32653,"HCEP03730560","2024-09-02 10:15:00","10.908","3.39581","24.307","2.375","7.54","0.658","3.302","0.12","0.17","30.0373","4.72849","26","0","SATNPRO1962","24.916","0.34898","5"],
    [32654,"HCEP03730560","2024-09-02 10:30:00","10.9032","3.39569","24.34","2.208","7.53","1.022","4.912","0.16","0.2","30.0399","4.72894","24.17","0","SATNPRO1962","23.728","0.3323","5"],
    [32655,"HCEP03730560","2024-09-02 10:45:00","10.9046","3.39563","24.385","2.058","7.52","1.197","4.341","0.87","0.28","30.0382","4.72868","22.54","0","SATNPRO1962","24.074","0.33716","5"],
    [32656,"HCEP03730560","2024-09-02 11:00:00","10.9037","3.39623","24.438","2.064","7.52","0.974","4.446","0.23","0.31","30.0449","4.72964","22.59","0","SATNPRO1962","23.85","0.33408","5"],
    [32657,"HCEP03730560","2024-09-02 11:15:00","10.9049","3.39718","24.533","2.094","7.53","0.884","4.655","0.13","0.26","30.0531","4.7308","22.93","0","SATNPRO1962","24.154","0.33832","5"],
    [32658,"HCEP03730560","2024-09-02 11:30:00","10.9043","3.39725","24.645","2.113","7.52","0.97","4.975","0.2","0.19","30.0543","4.73098","23.13","0","SATNPRO1962","24.118","0.3378","5"],
    [32659,"HCEP03730560","2024-09-02 11:45:00","10.9049","3.39748","24.753","2.108","7.53","0.779","4.675","0.16","0.57","30.056","4.73122","23.08","0","SATNPRO1962","24.8","0.34736","5"],
    [32660,"HCEP03730560","2024-09-02 12:00:00","10.9046","3.39747","24.894","2.117","7.52","0.897","4.672","0.24","0.22","30.056","4.73124","23.18","0","SATNPRO1962","24.714","0.34616","5"],
    [32661,"HCEP03730560","2024-09-02 12:15:00","10.9065","3.39752","25.043","2.136","7.53","0.756","4.087","0.16","0.22","30.0549","4.73106","23.39","0","SATNPRO1962","25.342","0.35496","5"],
    [32662,"HCEP03730560","2024-09-02 12:30:00","10.9042","3.39714","25.23","2.197","7.53","0.706","4.318","0.15","0.15","30.053","4.73084","24.05","0","SATNPRO1962","24.55","0.34384","5"],
    [32663,"HCEP03730560","2024-09-02 12:45:00","10.9014","3.39637","25.425","2.089","7.52","0.966","5.595","0.2","0.23","30.0476","4.73013","22.87","0","SATNPRO1962","23.728","0.33234","5"],
    [32664,"HCEP03730560","2024-09-02 13:00:00","10.9006","3.39616","25.601","2.007","7.52","0.866","5.252","0.15","0.31","30.0462","4.72995","21.97","0","SATNPRO1962","23.95","0.3355","5"],
    [32665,"HCEP03730560","2024-09-02 13:15:00","10.9022","3.39628","25.675","2.028","7.52","0.681","4.431","0.09","0.16","30.046","4.7299","22.2","0","SATNPRO1962","24.348","0.341","5"],
    [32666,"HCEP03730560","2024-09-02 13:30:00","10.9021","3.39626","25.851","2.134","7.53","0.873","4.464","0.25","0.2","30.0459","4.72989","23.37","0","SATNPRO1962","24.742","0.34656","5"],
    [32667,"HCEP03730560","2024-09-02 13:45:00","10.9026","3.3959","26.143","2.177","7.53","0.787","4.494","0.16","0.19","30.0418","4.72932","23.84","0","SATNPRO1962","24.958000000000002","0.34956","5"],
    [32668,"HCEP03730560","2024-09-02 14:00:00","10.9023","3.39551","26.375","2.224","7.53","0.715","4.511","0.14","0.19","30.0381","4.72882","24.34","0","SATNPRO1962","25.248","0.35364","5"],
    [32669,"HCEP03730560","2024-09-02 14:15:00","10.9001","3.3949","26.578","2.231","7.53","0.891","4.474","0.25","0.18","30.0338","4.72825","24.42","0","SATNPRO1962","25.054","0.35092","5"],
    [32670,"HCEP03730560","2024-09-02 14:30:00","10.8994","3.39179","26.67","2.27","7.54","0.628","3.452","0.18","0.17","30.0039","4.72402","24.84","0","SATNPRO1962","25.362000000000002","0.35526","5"],
    [32671,"HCEP03730560","2024-09-02 14:45:00","10.8978","3.39328","26.924","2.217","7.52","0.985","4.573","0.2","0.19","30.0198","4.72631","24.26","0","SATNPRO1962","23.736","0.33248","5"],
    [32672,"HCEP03730560","2024-09-02 15:00:00","10.9065","3.39195","27.036","2.114","7.53","1.978","3.648","3.55","0.63","29.9995","4.7233","23.14","0","SATNPRO1962","25.088","0.35144","5"],
    [32673,"HCEP03730560","2024-09-02 15:15:00","10.9035","3.39241","27.147","2.144","7.52","1.047","3.845","0.4","0.14","30.0065","4.72435","23.47","0","SATNPRO1962","23.738","0.33246","5"],
    [32674,"HCEP03730560","2024-09-02 15:30:00","10.9037","3.39226","27.29","2.034","7.52","0.783","3.948","0.17","0.21","30.0048","4.72411","22.27","0","SATNPRO1962","23.718","0.33218","5"],
    [32675,"HCEP03730560","2024-09-02 15:45:00","10.8969","3.39387","27.415","1.956","7.51","1.185","5.324","0.19","1.08","30.026","4.72724","21.41","0","SATNPRO1962","23.637999999999998","0.33104","5"],
    [32676,"HCEP03730560","2024-09-02 16:00:00","10.8992","3.39503","27.509","1.958","7.51","1.174","5.01","0.25","1.03","30.0355","4.72856","21.44","0","SATNPRO1962","24.426","0.34214","5"],
    [32677,"HCEP03730560","2024-09-02 16:15:00","10.8982","3.39472","27.593","2.024","7.51","0.973","4.904","0.17","0.98","30.0333","4.72827","22.15","0","SATNPRO1962","24.08","0.33726","5"],
    [32678,"HCEP03730560","2024-09-02 16:30:00","10.8977","3.3945","27.648","1.974","7.51","0.841","4.645","0.21","0.54","30.0315","4.72802","21.61","0","SATNPRO1962","23.858","0.3342","5"],
    [32679,"HCEP03730560","2024-09-02 16:45:00","10.8974","3.39449","27.675","1.932","7.51","0.835","4.422","0.19","0.22","30.0317","4.72805","21.14","0","SATNPRO1962","23.762","0.3328","5"],
    [32680,"HCEP03730560","2024-09-02 17:00:00","10.8979","3.3933","27.689","1.89","7.5","0.738","4.521","0.12","0.54","30.0195","4.72632","20.69","0","SATNPRO1962","23.146","0.32418","5"],
    [32681,"HCEP03730560","2024-09-02 17:15:00","10.8986","3.39437","27.697","1.854","7.5","1.077","5.193","0.2","0.54","30.0295","4.72772","20.29","0","SATNPRO1962","23.488","0.329","5"],
    [32682,"HCEP03730560","2024-09-02 17:30:00","10.8995","3.39478","27.674","1.864","7.5","1.037","5.131","0.28","1.26","30.0327","4.72817","20.4","0","SATNPRO1962","23.432","0.32822","5"],
    [32683,"HCEP03730560","2024-09-02 17:45:00","10.9009","3.3933","27.661","1.881","7.5","0.983","4.27","0.13","0.13","30.017","4.72591","20.59","0","SATNPRO1962","23.41","0.32792","5"],
    [32684,"HCEP03730560","2024-09-02 18:00:00","10.9009","3.3933","27.642","1.889","7.5","0.874","4.235","0.12","0.33","30.017","4.72591","20.68","0","SATNPRO1962","23.45","0.32846","5"],
    [32685,"HCEP03730560","2024-09-02 18:15:00","10.901","3.39506","27.618","1.902","7.5","1.042","4.356","0.15","0.21","30.034300000000002","4.72837","20.82","0","SATNPRO1962","23.476","0.3288","5"],
    [32686,"HCEP03730560","2024-09-02 18:30:00","10.9018","3.39565","27.587","1.896","7.5","1.212","4.812","0.29","0.49","30.0395","4.72909","20.75","0","SATNPRO1962","23.578","0.33024","5"],
    [32687,"HCEP03730560","2024-09-02 18:45:00","10.9022","3.39575","27.383","1.916","7.51","1.068","4.445","0.2","0.16","30.0403","4.72918","20.98","0","SATNPRO1962","23.64","0.33118","5"],
    [32688,"HCEP03730560","2024-09-02 19:00:00","10.9024","3.39557","27.293","1.929","7.51","0.935","4.459","0.12","0.19","30.0382","4.72888","21.11","0","SATNPRO1962","23.637999999999998","0.33112","5"],
    [32689,"HCEP03730560","2024-09-02 19:15:00","10.9035","3.39663","27.262","1.947","7.51","1.099","4.504","0.14","0.27","30.0478","4.73022","21.32","0","SATNPRO1962","23.936","0.33528","5"],
    [32690,"HCEP03730560","2024-09-02 19:30:00","10.9042","3.39642","27.132","1.97","7.51","1.156","4.366","0.5","0.27","30.0452","4.72984","21.57","0","SATNPRO1962","23.798","0.33334","5"],
    [32691,"HCEP03730560","2024-09-02 19:45:00","10.9037","3.39611","27.057","1.974","7.51","1.023","4.186","0.13","0.16","30.0427","4.72948","21.61","0","SATNPRO1962","23.718","0.33224","5"],
    [32692,"HCEP03730560","2024-09-02 20:00:00","10.9027","3.39515","26.949","1.965","7.51","0.927","3.903","0.16","0.11","30.034","4.72826","21.51","0","SATNPRO1962","23.554","0.32994","5"],
    [32693,"HCEP03730560","2024-09-02 20:15:00","10.9034","3.39562","26.826","1.948","7.51","1.115","4.123","0.14","0.17","30.0382","4.72883","21.33","0","SATNPRO1962","23.648","0.33122","5"],
    [32694,"HCEP03730560","2024-09-02 20:30:00","10.9037","3.3952","26.754","1.945","7.51","0.916","4.032","0.15","0.16","30.0337","4.72819","21.3","0","SATNPRO1962","23.61","0.3307","5"],
    [32695,"HCEP03730560","2024-09-02 20:45:00","10.9041","3.3951","26.645","1.959","7.51","0.873","3.893","0.15","0.21","30.0326","4.72802","21.45","0","SATNPRO1962","24.296","0.34028","5"],
    [32696,"HCEP03730560","2024-09-02 21:00:00","10.9046","3.39648","26.513","1.978","7.51","1.13","4.588","0.15","0.36","30.0457","4.72987","21.66","0","SATNPRO1962","24.678","0.34564","5"],
    [32697,"HCEP03730560","2024-09-02 21:15:00","10.9053","3.3965","26.355","1.987","7.51","1.117","4.374","0.13","0.18","30.0454","4.7298","21.76","0","SATNPRO1962","24.156","0.33832","5"],
    [32698,"HCEP03730560","2024-09-02 21:30:00","10.906","3.39653","26.17","2.045","7.52","1.103","4.511","0.14","0.58","30.0452","4.72975","22.39","0","SATNPRO1962","24.36","0.34124","5"],
    [32699,"HCEP03730560","2024-09-02 21:45:00","10.9085","3.39646","26.018","2.141","7.52","0.894","3.8","0.09","0.48","30.0426","4.72933","23.44","0","SATNPRO1962","24.9","0.34876","5"],
    [32700,"HCEP03730560","2024-09-02 22:00:00","10.9072","3.3966","25.892","2.202","7.53","0.804","4.056","0.11","0.44","30.045","4.72969","24.11","0","SATNPRO1962","24.744","0.3466","5"],
    [32701,"HCEP03730560","2024-09-02 22:15:00","10.9034","3.3961","25.795","2.14","7.52","0.823","3.892","0.12","0.19","30.0432","4.72949","23.43","0","SATNPRO1962","24.102","0.33758","5"],
    [32702,"HCEP03730560","2024-09-02 22:30:00","10.9016","3.39579","25.687","2.037","7.52","0.8","3.91","0.15","0.19","30.0417","4.7293","22.3","0","SATNPRO1962","24.072","0.33716","5"],
    [32703,"HCEP03730560","2024-09-02 22:45:00","10.901","3.39569","25.62","1.986","7.51","0.98","3.956","0.28","0.32","30.0412","4.72924","21.75","0","SATNPRO1962","23.978","0.33586","5"],
    [32704,"HCEP03730560","2024-09-02 23:00:00","10.901","3.39563","25.659","1.966","7.51","1.006","3.872","0.41","0.24","30.0406","4.72915","21.52","0","SATNPRO1962","23.814","0.33358","5"],
    [32705,"HCEP03730560","2024-09-02 23:15:00","10.9012","3.39561","25.709","1.963","7.51","0.97","3.781","0.16","0.16","30.0403","4.7291","21.49","0","SATNPRO1962","24.02","0.33644","5"],
    [32706,"HCEP03730560","2024-09-02 23:30:00","10.9009","3.39555","25.815","1.953","7.51","0.915","3.811","0.19","0.19","30.0399","4.72906","21.38","0","SATNPRO1962","23.928","0.33514","5"],
    [32707,"HCEP03730560","2024-09-02 23:45:00","10.9009","3.39561","25.875","1.946","7.51","0.897","3.866","0.12","0.14","30.0405","4.72914","21.3","0","SATNPRO1962","23.898","0.33472","5"],
    [32708,"HCEP03730560","2024-09-03 00:00:00","10.9007","3.39568","25.976","1.932","7.51","0.884","3.895","0.1","0.35","30.0412","4.72926","21.15","0","SATNPRO1962","23.758","0.33274","5"],
    [32709,"HCEP03730560","2024-09-03 00:15:00","10.9003","3.39569","26.088","1.917","7.51","0.888","3.769","0.17","0.16","30.0417","4.72933","20.99","0","SATNPRO1962","23.753999999999998","0.33268","5"],
    [32710,"HCEP03730560","2024-09-03 00:30:00","10.8995","3.39572","26.164","1.912","7.51","1.049","3.974","0.18","0.24","30.0426","4.72948","20.93","0","SATNPRO1962","23.764","0.33288","5"],
    [32711,"HCEP03730560","2024-09-03 00:45:00","10.8989","3.39566","26.256","1.889","7.5","1.019","3.931","0.23","0.22","30.0424","4.72947","20.67","0","SATNPRO1962","23.622","0.33086","5"],
    [32712,"HCEP03730560","2024-09-03 01:00:00","10.8984","3.39552","26.339","1.862","7.5","1.07","4.087","0.31","0.54","30.0414","4.72934","20.38","0","SATNPRO1962","23.472","0.32878","5"],
    [32713,"HCEP03730560","2024-09-03 01:15:00","10.8982","3.38878","26.429","1.848","7.5","1.12","3.959","0.24","0.24","29.9755","4.71999","20.22","0","SATNPRO1962","23.53","0.32958","5"],
    [32714,"HCEP03730560","2024-09-03 01:30:00","10.8988","3.38231","26.529","1.85","7.5","1.41","4.048","0.49","0.29","29.9115","4.71089","20.24","0","SATNPRO1962","24.254","0.33972","5"],
    [32715,"HCEP03730560","2024-09-03 01:45:00","10.9003","3.3933","26.634","1.885","7.5","1.236","4.141","0.47","0.53","30.0179","4.72599","20.63","0","SATNPRO1962","23.732","0.3324","5"],
    [32716,"HCEP03730560","2024-09-03 02:00:00","10.9023","3.39248","26.708","1.937","7.51","1.404","4.263","0.32","0.27","30.0083","4.7246","21.2","0","SATNPRO1962","24.012","0.33632","5"],
    [32717,"HCEP03730560","2024-09-03 02:15:00","10.9039","3.39363","26.832","1.984","7.51","1.387","4.063","0.36","0.26","30.0182","4.72599","21.71","0","SATNPRO1962","24.09","0.33744","5"],
    [32718,"HCEP03730560","2024-09-03 02:30:00","10.9048","3.39397","26.923","2.032","7.51","1.763","4.217","0.48","0.38","30.0208","4.72634","22.24","0","SATNPRO1962","24.334","0.34088","5"],
    [32719,"HCEP03730560","2024-09-03 02:45:00","10.9053","3.39657","27.04","2.047","7.51","1.467","4.478","0.3","0.7","30.0459","4.72991","22.41","0","SATNPRO1962","24.384","0.34156","5"],
    [32720,"HCEP03730560","2024-09-03 03:00:00","10.9062","3.39655","27.14","2.062","7.52","1.216","5.074","0.34","2.12","30.0449","4.72976","22.58","0","SATNPRO1962","24.434","0.34224","5"],
    [32721,"HCEP03730560","2024-09-03 03:15:00","10.9059","3.39626","27.242","2.054","7.52","1.312","4.541","0.13","0.22","30.0422","4.72939","22.49","0","SATNPRO1962","24.19","0.33882","5"],
    [32722,"HCEP03730560","2024-09-03 03:30:00","10.9044","3.39572","27.325","2.014","7.51","1.375","4.362","0.48","0.28","30.038","4.72883","22.05","0","SATNPRO1962","23.848","0.33402","5"],
    [32723,"HCEP03730560","2024-09-03 03:45:00","10.9035","3.39533","27.425","1.95","7.51","1.434","4.66","0.34","0.49","30.0349","4.72841","21.35","0","SATNPRO1962","23.632","0.331","5"],
    [32724,"HCEP03730560","2024-09-03 04:00:00","10.9037","3.39515","27.469","1.91","7.51","1.336","4.288","0.37","0.21","30.033","4.72812","20.91","0","SATNPRO1962","23.596","0.3305","5"],
    [32725,"HCEP03730560","2024-09-03 04:15:00","10.9044","3.39497","27.427","1.907","7.51","1.154","4.048","0.27","0.28","30.0307","4.72779","20.87","0","SATNPRO1962","23.692","0.33184","5"],
    [32726,"HCEP03730560","2024-09-03 04:30:00","10.9046","3.39498","27.416","1.919","7.51","1.403","4.158","0.39","0.23","30.0307","4.72778","21.01","0","SATNPRO1962","23.786","0.33314","5"],
    [32727,"HCEP03730560","2024-09-03 04:45:00","10.9053","3.39478","27.402","1.929","7.51","1.241","3.849","0.32","0.1","30.0282","4.72742","21.12","0","SATNPRO1962","23.727999999999998","0.33236","5"],
    [32728,"HCEP03730560","2024-09-03 05:00:00","10.9048","3.39455","27.369","1.932","7.51","1.108","4.28","0.33","0.26","30.0263","4.72715","21.15","0","SATNPRO1962","23.692","0.33182","5"],
    [32729,"HCEP03730560","2024-09-03 05:15:00","10.9043","3.3944","27.324","1.918","7.5","1.086","4.223","0.23","0.23","30.0252","4.72701","21","0","SATNPRO1962","23.628","0.33098","5"],
    [32730,"HCEP03730560","2024-09-03 05:30:00","10.9034","3.39422","27.259","1.902","7.5","0.954","4.212","0.21","0.39","30.0242","4.72688","20.82","0","SATNPRO1962","23.576","0.3302","5"],
    [32731,"HCEP03730560","2024-09-03 05:45:00","10.9031","3.39407","27.183","1.902","7.5","0.998","4.008","0.19","0.14","30.0231","4.72671","20.82","0","SATNPRO1962","23.802","0.33344","5"],
    [32732,"HCEP03730560","2024-09-03 06:00:00","10.9036","3.39394","27.075","1.923","7.5","0.794","3.911","0.15","0.18","30.0214","4.72646","21.06","0","SATNPRO1962","23.87","0.33434","5"],
    [32733,"HCEP03730560","2024-09-03 06:15:00","10.9037","3.39387","26.895","1.932","7.5","1.31","4.249","0.57","0.25","30.0207","4.72635","21.15","0","SATNPRO1962","23.638","0.33108","5"],
    [32734,"HCEP03730560","2024-09-03 06:30:00","10.9052","3.39373","26.774","1.918","7.5","1.22","4.057","0.36","0.09","30.0182","4.72596","21","0","SATNPRO1962","24.492","0.34306","5"],
    [32735,"HCEP03730560","2024-09-03 06:45:00","10.9062","3.39365","26.625","1.922","7.5","1.205","3.911","0.28","0.11","30.0166","4.72572","21.04","0","SATNPRO1962","23.654","0.3313","5"],
    [32736,"HCEP03730560","2024-09-03 07:00:00","10.9073","3.39328","26.461","1.944","7.51","0.997","4.098","0.27","0.2","30.0122","4.72506","21.28","0","SATNPRO1962","23.4","0.32774","5"],
    [32737,"HCEP03730560","2024-09-03 07:15:00","10.9092","3.39276","26.302","2.005","7.51","1.531","3.873","0.42","0.24","30.0055","4.72407","21.95","0","SATNPRO1962","24.058","0.33696","5"],
    [32738,"HCEP03730560","2024-09-03 07:30:00","10.9092","3.39281","26.136","2.05","7.51","1.312","3.772","0.46","0.11","30.0061","4.72415","22.44","0","SATNPRO1962","24.244","0.33954","5"],
    [32739,"HCEP03730560","2024-09-03 07:45:00","10.9079","3.39323","25.956","2.025","7.51","1.498","4.459","0.93","0.24","30.0114","4.72491","22.17","0","SATNPRO1962","23.826","0.33374","5"],
    [32740,"HCEP03730560","2024-09-03 08:00:00","10.9062","3.39371","25.786","1.96","7.51","1.27","4.547","0.24","0.26","30.0175","4.72579","21.46","0","SATNPRO1962","23.628","0.33098","5"],
    [32741,"HCEP03730560","2024-09-03 08:15:00","10.9062","3.39364","25.669","1.922","7.51","1.228","4.051","0.23","0.27","30.0169","4.7257","21.04","0","SATNPRO1962","23.648","0.33122","5"],
    [32742,"HCEP03730560","2024-09-03 08:30:00","10.906","3.39403","25.474","1.911","7.5","1.197","4.105","0.2","0.23","30.021","4.72628","20.92","0","SATNPRO1962","23.534","0.32962","5"],
    [32743,"HCEP03730560","2024-09-03 08:45:00","10.9057","3.39422","25.295","1.892","7.5","1.62","4.24","1.13","0.35","30.0231","4.72658","20.71","0","SATNPRO1962","23.628","0.33094","5"],
    [32744,"HCEP03730560","2024-09-03 09:00:00","10.9048","3.3942","25.114","1.885","7.5","1.388","4.49","0.43","0.57","30.0238","4.72667","20.63","0","SATNPRO1962","23.64","0.33108","5"],
    [32745,"HCEP03730560","2024-09-03 09:15:00","10.9039","3.39368","24.95","1.884","7.5","1.46","4.398","0.3","0.22","30.0194","4.72606","20.62","0","SATNPRO1962","23.738","0.3325","5"],
    [32746,"HCEP03730560","2024-09-03 09:30:00","10.9033","3.39388","24.812","1.868","7.5","1.312","4.245","0.24","0.16","30.022","4.72642","20.44","0","SATNPRO1962","23.762","0.33282","5"],
    [32747,"HCEP03730560","2024-09-03 09:45:00","10.9041","3.39393","24.671","1.902","7.5","1.25","4.18","0.18","0.38","30.0218","4.72638","20.82","0","SATNPRO1962","23.986","0.33598","5"],
    [32748,"HCEP03730560","2024-09-03 10:00:00","10.9037","3.39395","24.569","1.898","7.5","1.43","4.145","0.26","0.27","30.0224","4.72646","20.78","0","SATNPRO1962","23.98","0.3359","5"],
    [32749,"HCEP03730560","2024-09-03 10:15:00","10.9044","3.39427","24.496","1.894","7.5","1.463","4.047","0.2","0.19","30.025","4.72681","20.74","0","SATNPRO1962","23.946","0.33538","5"],
    [32750,"HCEP03730560","2024-09-03 10:30:00","10.9038","3.39425","24.457","1.897","7.5","1.686","4.521","0.32","0.17","30.0254","4.72687","20.77","0","SATNPRO1962","23.488","0.329","5"],
    [32751,"HCEP03730560","2024-09-03 10:45:00","10.9036","3.39421","24.463","1.87","7.5","1.464","4.335","0.26","0.16","30.0251","4.72684","20.47","0","SATNPRO1962","23.668","0.3315","5"],
    [32752,"HCEP03730560","2024-09-03 11:00:00","10.9041","3.39422","24.481","1.861","7.5","1.343","4.324","0.2","0.21","30.0248","4.72679","20.38","0","SATNPRO1962","23.622","0.33088","5"],
    [32753,"HCEP03730560","2024-09-03 11:15:00","10.9042","3.39413","24.528","1.859","7.5","1.237","3.991","0.2","0.14","30.0238","4.72664","20.35","0","SATNPRO1962","23.654","0.3313","5"],
    [32754,"HCEP03730560","2024-09-03 11:30:00","10.9035","3.39405","24.572","1.857","7.5","1.318","4.458","0.27","0.38","30.0236","4.72664","20.33","0","SATNPRO1962","23.842","0.33398","5"],
    [32755,"HCEP03730560","2024-09-03 11:45:00","10.9023","3.39414","24.669","1.838","7.5","1.581","4.421","0.32","0.32","30.0253","4.7269","20.12","0","SATNPRO1962","23.574","0.33018","5"],
    [32756,"HCEP03730560","2024-09-03 12:00:00","10.9027","3.39438","24.783","1.856","7.5","1.647","4.396","0.29","0.3","30.0274","4.72719","20.31","0","SATNPRO1962","23.908","0.33486","5"],
    [32757,"HCEP03730560","2024-09-03 12:15:00","10.9025","3.39439","24.913","1.89","7.5","1.654","4.285","0.43","0.23","30.0276","4.72723","20.69","0","SATNPRO1962","23.796","0.33328","5"],
    [32758,"HCEP03730560","2024-09-03 12:30:00","10.902","3.39419","25.053","1.865","7.5","1.823","5.137","0.27","0.49","30.026","4.72703","20.42","0","SATNPRO1962","23.76","0.3328","5"],
    [32759,"HCEP03730560","2024-09-03 12:45:00","10.9029","3.39443","25.213","1.882","7.5","1.768","5.052","0.27","0.47","30.0275","4.72724","20.6","0","SATNPRO1962","24.25","0.3396","5"],
    [32760,"HCEP03730560","2024-09-03 13:00:00","10.9052","3.39497","25.359","1.969","7.51","1.742","4.859","0.43","0.35","30.0309","4.72769","21.56","0","SATNPRO1962","24.48","0.34288","5"],
    [32761,"HCEP03730560","2024-09-03 13:15:00","10.9047","3.39495","25.527","2.034","7.51","1.746","4.877","0.46","0.33","30.031","4.72773","22.26","0","SATNPRO1962","24.6","0.34458","5"],
    [32762,"HCEP03730560","2024-09-03 13:30:00","10.9052","3.39481","25.691","2.038","7.51","1.457","4.374","0.26","0.21","30.0292","4.72746","22.31","0","SATNPRO1962","24.605999999999998","0.34462","5"],
    [32763,"HCEP03730560","2024-09-03 13:45:00","10.9034","3.39462","25.864","2.041","7.51","1.789","5.305","0.26","0.37","30.0287","4.72744","22.35","0","SATNPRO1962","24.346","0.341","5"],
    [32764,"HCEP03730560","2024-09-03 14:00:00","10.9035","3.39452","26.046","2.002","7.51","1.868","4.869","0.69","0.44","30.0275","4.72727","21.92","0","SATNPRO1962","24.278000000000002","0.34006","5"],
    [32765,"HCEP03730560","2024-09-03 14:15:00","10.9043","3.39434","26.223","2.004","7.51","1.72","4.64","0.48","0.21","30.0251","4.72693","21.94","0","SATNPRO1962","24.284","0.3401","5"],
    [32766,"HCEP03730560","2024-09-03 14:30:00","10.903","3.39379","26.372","2.006","7.51","1.575","4.779","0.21","0.22","30.0207","4.72633","21.96","0","SATNPRO1962","23.894","0.3347","5"],
    [32767,"HCEP03730560","2024-09-03 14:45:00","10.9025","3.39311","26.509","1.936","7.51","1.624","4.917","0.24","0.52","30.0144","4.72545","21.19","0","SATNPRO1962","23.7","0.33198","5"],
    [32768,"HCEP03730560","2024-09-03 15:00:00","10.9019","3.39229","26.665","1.863","7.5","1.889","4.909","0.49","0.46","30.0068","4.7244","20.4","0","SATNPRO1962","23.262","0.32582","5"],
    [32769,"HCEP03730560","2024-09-03 15:15:00","10.9017","3.39216","26.867","1.793","7.49","2.217","5.083","0.52","0.7","30.0056","4.72423","19.62","0","SATNPRO1962","23.338","0.32688","5"],
    [32770,"HCEP03730560","2024-09-03 15:30:00","10.9015","3.39237","27.034","1.773","7.49","1.583","4.406","0.39","0.19","30.0078","4.72455","19.4","0","SATNPRO1962","23.182","0.32472","5"],
    [32771,"HCEP03730560","2024-09-03 15:45:00","10.9033","3.39257","27.172","1.806","7.5","1.545","3.901","0.66","0.23","30.0082","4.72459","19.77","0","SATNPRO1962","23.483999999999998","0.32894","5"],
    [32772,"HCEP03730560","2024-09-03 16:00:00","10.9024","3.39252","27.303","1.848","7.49","1.449","4.115","0.34","0.33","30.0084","4.72465","20.22","0","SATNPRO1962","23.362000000000002","0.32722","5"],
    [32773,"HCEP03730560","2024-09-03 16:15:00","10.9024","3.39245","27.424","1.823","7.49","1.634","4.259","0.38","0.26","30.0077","4.72455","19.96","0","SATNPRO1962","23.364","0.32722","5"],
    [32774,"HCEP03730560","2024-09-03 16:30:00","10.9026","3.3924","27.522","1.812","7.49","1.345","4.02","0.27","0.23","30.007","4.72445","19.83","0","SATNPRO1962","23.306","0.32648","5"],
    [32775,"HCEP03730560","2024-09-03 16:45:00","10.902","3.39291","27.601","1.808","7.49","2.24","4.422","0.62","0.3","30.0124","4.72524","19.79","0","SATNPRO1962","23.474","0.32878","5"],
    [32776,"HCEP03730560","2024-09-03 17:00:00","10.9019","3.39353","27.636","1.811","7.49","2.227","4.961","0.44","0.56","30.0186","4.72612","19.82","0","SATNPRO1962","23.742","0.33254","5"],
    [32777,"HCEP03730560","2024-09-03 17:15:00","10.9033","3.39419","27.648","1.859","7.5","2.321","5.1","0.43","0.66","30.0239","4.72686","20.35","0","SATNPRO1962","24.138","0.33806","5"],
    [32778,"HCEP03730560","2024-09-03 17:30:00","10.904","3.3945","27.644","1.923","7.5","1.995","4.323","0.33","0.35","30.0263","4.72719","21.05","0","SATNPRO1962","24.276","0.33998","5"],
    [32779,"HCEP03730560","2024-09-03 17:45:00","10.9039","3.39445","27.649","1.941","7.5","2.083","4.329","0.35","0.28","30.0259","4.72713","21.25","0","SATNPRO1962","24.142","0.33812","5"],
    [32780,"HCEP03730560","2024-09-03 18:00:00","10.9028","3.39433","27.655","1.896","7.5","2.233","4.549","0.38","0.33","30.0257","4.72711","20.75","0","SATNPRO1962","23.798","0.33332","5"],
    [32781,"HCEP03730560","2024-09-03 18:15:00","10.9036","3.39368","27.647","1.828","7.5","1.85","4.309","0.26","0.28","30.0186","4.72609","20.01","0","SATNPRO1962","23.562","0.33004","5"],
    [32782,"HCEP03730560","2024-09-03 18:30:00","10.9026","3.39371","27.583","1.77","7.49","2.385","4.489","0.82","0.49","30.0198","4.72628","19.37","0","SATNPRO1962","23.296","0.32632","5"],
    [32783,"HCEP03730560","2024-09-03 18:45:00","10.9046","3.39344","27.509","1.764","7.49","1.767","4.004","0.34","0.21","30.0154","4.72562","19.31","0","SATNPRO1962","23.752","0.3327","5"],
    [32784,"HCEP03730560","2024-09-03 19:00:00","10.912","3.3924","27.398","1.852","7.5","1.932","3.886","0.81","0.26","29.9993","4.72322","20.28","0","SATNPRO1962","24.206","0.33904","5"],
    [32785,"HCEP03730560","2024-09-03 19:15:00","10.9113","3.39258","27.32","1.956","7.5","1.398","3.595","0.67","0.2","30.0017","4.72355","21.41","0","SATNPRO1962","23.932000000000002","0.3352","5"],
    [32786,"HCEP03730560","2024-09-03 19:30:00","10.9088","3.39292","27.241","1.935","7.5","1.278","3.691","0.27","0.4","30.0072","4.72437","21.18","0","SATNPRO1962","23.946","0.33536","5"],
    [32787,"HCEP03730560","2024-09-03 19:45:00","10.9077","3.39325","27.184","1.9","7.5","1.412","3.648","0.29","0.25","30.0112","4.72496","20.8","0","SATNPRO1962","23.71","0.33206","5"],
    [32788,"HCEP03730560","2024-09-03 20:00:00","10.904","3.39399","27.104","1.836","7.5","1.541","4.02","0.25","0.4","30.0216","4.72648","20.1","0","SATNPRO1962","23.632","0.331","5"],
    [32789,"HCEP03730560","2024-09-03 20:15:00","10.904","3.39431","26.995","1.789","7.49","1.429","3.864","0.29","0.34","30.0247","4.72692","19.58","0","SATNPRO1962","23.733999999999998","0.33244","5"],
    [32790,"HCEP03730560","2024-09-03 20:30:00","10.9037","3.39489","26.873","1.811","7.5","1.591","4.008","0.54","0.35","30.0307","4.72777","19.82","0","SATNPRO1962","23.958000000000002","0.33558","5"],
    [32791,"HCEP03730560","2024-09-03 20:45:00","10.9039","3.39507","26.729","1.84","7.5","1.771","4.158","0.69","0.31","30.0323","4.72799","20.15","0","SATNPRO1962","24.186","0.33878","5"],
    [32792,"HCEP03730560","2024-09-03 21:00:00","10.9035","3.39554","26.557","1.863","7.5","1.579","4.234","0.21","0.42","30.0374","4.7287","20.39","0","SATNPRO1962","24.22","0.33924","5"],
    [32793,"HCEP03730560","2024-09-03 21:15:00","10.904","3.39567","26.427","1.883","7.5","1.828","4.042","0.32","0.38","30.0383","4.72882","20.62","0","SATNPRO1962","24.158","0.33838","5"],
    [32794,"HCEP03730560","2024-09-03 21:30:00","10.9026","3.39578","26.288","1.863","7.5","1.792","4.279","0.34","0.36","30.0405","4.72915","20.39","0","SATNPRO1962","24.144","0.3382","5"],
    [32795,"HCEP03730560","2024-09-03 21:45:00","10.9028","3.39565","26.164","1.84","7.5","1.723","4.349","0.27","0.7","30.0392","4.72895","20.15","0","SATNPRO1962","23.928","0.33512","5"],
    [32796,"HCEP03730560","2024-09-03 22:00:00","10.9016","3.39545","26.01","1.83","7.5","1.77","4.414","0.33","0.75","30.0382","4.72882","20.03","0","SATNPRO1962","23.966","0.3357","5"],
    [32797,"HCEP03730560","2024-09-03 22:15:00","10.9012","3.39523","25.845","1.8","7.5","1.53","3.979","0.25","0.45","30.0365","4.72857","19.7","0","SATNPRO1962","23.904","0.33482","5"],
    [32798,"HCEP03730560","2024-09-03 22:30:00","10.8998","3.39495","25.691","1.777","7.49","1.252","3.832","0.12","0.25","30.035","4.72837","19.46","0","SATNPRO1962","23.82","0.33364","5"],
    [32799,"HCEP03730560","2024-09-03 22:45:00","10.8987","3.39476","25.517","1.757","7.49","1.433","3.848","0.26","0.66","30.034","4.72824","19.24","0","SATNPRO1962","23.558","0.32998","5"],
    [32800,"HCEP03730560","2024-09-03 23:00:00","10.898","3.39459","25.443","1.725","7.49","1.642","3.778","0.74","0.41","30.033","4.7281","18.88","0","SATNPRO1962","23.656","0.33132","5"],
    [32801,"HCEP03730560","2024-09-03 23:15:00","10.8978","3.39439","25.392","1.708","7.49","1.017","3.429","0.23","0.09","30.0313","4.72786","18.69","0","SATNPRO1962","23.556","0.32998","5"],
    [32802,"HCEP03730560","2024-09-03 23:30:00","10.8975","3.39433","25.39","1.698","7.49","0.899","3.427","0.2","0.1","30.0309","4.72782","18.59","0","SATNPRO1962","23.644","0.33116","5"],
    [32803,"HCEP03730560","2024-09-03 23:45:00","10.8976","3.39441","25.42","1.686","7.49","1.142","3.391","0.28","0.13","30.0316","4.72791","18.46","0","SATNPRO1962","23.65","0.33132","5"],
    [32804,"HCEP03730560","2024-09-04 00:00:00","10.8975","3.39434","25.464","1.678","7.48","0.973","3.312","0.23","0.23","30.0309","4.72782","18.36","0","SATNPRO1962","23.826","0.3337","5"],
    [32805,"HCEP03730560","2024-09-04 00:15:00","10.8972","3.39428","25.535","1.671","7.48","0.853","3.461","0.25","0.39","30.0307","4.72779","18.29","0","SATNPRO1962","23.57","0.33012","5"],
    [32806,"HCEP03730560","2024-09-04 00:30:00","10.8969","3.39421","25.615","1.665","7.48","1.173","3.358","0.38","0.33","30.0301","4.72772","18.23","0","SATNPRO1962","23.468","0.32872","5"],
    [32807,"HCEP03730560","2024-09-04 00:45:00","10.8967","3.39419","25.712","1.66","7.48","1.01","3.597","0.24","0.49","30.03","4.72772","18.17","0","SATNPRO1962","23.388","0.3276","5"],
    [32808,"HCEP03730560","2024-09-04 01:00:00","10.8957","3.39413","25.836","1.63","7.48","1.342","3.474","0.26","0.13","30.0302","4.72776","17.84","0","SATNPRO1962","23.25","0.32562","5"],
    [32809,"HCEP03730560","2024-09-04 01:15:00","10.8955","3.39405","25.941","1.626","7.48","1.384","3.873","0.21","0.43","30.0296","4.72769","17.79","0","SATNPRO1962","23.27","0.32594","5"],
    [32810,"HCEP03730560","2024-09-04 01:30:00","10.8953","3.39413","26.042","1.602","7.48","1.701","3.833","0.65","0.44","30.0305","4.72782","17.54","0","SATNPRO1962","23.174","0.3246","5"],
    [32811,"HCEP03730560","2024-09-04 01:45:00","10.8948","3.39407","26.206","1.587","7.48","1.376","3.76","0.18","0.21","30.0302","4.7278","17.38","0","SATNPRO1962","23.024","0.32246","5"],
    [32812,"HCEP03730560","2024-09-04 02:00:00","10.8938","3.39397","26.25","1.569","7.48","1.587","3.972","0.25","0.24","30.0301","4.7278","17.17","0","SATNPRO1962","22.94","0.32134","5"],
    [32813,"HCEP03730560","2024-09-04 02:15:00","10.8952","3.39413","26.337","1.564","7.48","1.722","3.83","0.24","0.18","30.0304","4.72783","17.12","0","SATNPRO1962","23.086","0.32334","5"],
    [32814,"HCEP03730560","2024-09-04 02:30:00","10.8958","3.3943","26.476","1.584","7.48","1.746","4.121","0.28","0.41","30.0315","4.72798","17.34","0","SATNPRO1962","23.178","0.32466","5"],
    [32815,"HCEP03730560","2024-09-04 02:45:00","10.8979","3.39472","26.587","1.62","7.48","1.793","4.149","0.26","0.63","30.0339","4.72829","17.74","0","SATNPRO1962","23.444","0.32838","5"],
    [32816,"HCEP03730560","2024-09-04 03:00:00","10.9006","3.39515","26.691","1.694","7.48","1.961","4.047","0.42","0.28","30.0359","4.72855","18.55","0","SATNPRO1962","23.94","0.33532","5"],
    [32817,"HCEP03730560","2024-09-04 03:15:00","10.9023","3.39531","26.825","1.76","7.49","2.178","4.031","0.38","0.24","30.036","4.72854","19.26","0","SATNPRO1962","24.066","0.33704","5"],
    [32818,"HCEP03730560","2024-09-04 03:30:00","10.9026","3.39502","26.958","1.787","7.49","2.264","4.302","0.44","0.4","30.0329","4.7281","19.56","0","SATNPRO1962","24.002","0.33618","5"],
    [32819,"HCEP03730560","2024-09-04 03:45:00","10.9029","3.39467","27.046","1.77","7.49","2.471","4.923","0.38","1.05","30.0292","4.72758","19.38","0","SATNPRO1962","23.684","0.33174","5"],
    [32820,"HCEP03730560","2024-09-04 04:00:00","10.9028","3.39441","27.14","1.749","7.49","2.107","4.131","0.33","0.31","30.0266","4.72722","19.15","0","SATNPRO1962","23.788","0.3332","5"],
    [32821,"HCEP03730560","2024-09-04 04:15:00","10.9025","3.39425","27.228","1.729","7.49","2.523","4.281","0.33","0.28","30.0253","4.72703","18.92","0","SATNPRO1962","23.496","0.32906","5"],
    [32822,"HCEP03730560","2024-09-04 04:30:00","10.9025","3.39402","27.307","1.708","7.48","2.47","4.427","0.48","0.4","30.023","4.72672","18.7","0","SATNPRO1962","23.637999999999998","0.3311","5"],
    [32823,"HCEP03730560","2024-09-04 04:45:00","10.9023","3.3936","27.289","1.68","7.48","2.513","4.313","0.52","0.22","30.0191","4.72617","18.39","0","SATNPRO1962","23.392","0.32764","5"],
    [32824,"HCEP03730560","2024-09-04 05:00:00","10.9021","3.3933","27.328","1.654","7.48","2.186","4.248","0.55","0.45","30.0163","4.72577","18.1","0","SATNPRO1962","23.298","0.32632","5"],
    [32825,"HCEP03730560","2024-09-04 05:15:00","10.9019","3.39306","27.341","1.645","7.48","2.275","4.438","0.41","0.77","30.014","4.72546","18.01","0","SATNPRO1962","23.36","0.32718","5"],
    [32826,"HCEP03730560","2024-09-04 05:30:00","10.9015","3.39283","27.332","1.661","7.48","1.909","4.14","0.44","0.4","30.0121","4.72519","18.18","0","SATNPRO1962","23.45","0.32848","5"],
    [32827,"HCEP03730560","2024-09-04 05:45:00","10.9016","3.39243","27.304","1.671","7.48","1.573","4.144","0.38","0.42","30.0081","4.72461","18.29","0","SATNPRO1962","23.352","0.3271","5"],
    [32828,"HCEP03730560","2024-09-04 06:00:00","10.9028","3.39205","27.249","1.682","7.48","1.468","4.346","0.3","0.64","30.0034","4.72393","18.41","0","SATNPRO1962","23.708","0.33208","5"],
    [32829,"HCEP03730560","2024-09-04 06:15:00","10.9026","3.39173","27.186","1.677","7.48","1.579","4.343","0.33","0.31","30.0005","4.72352","18.35","0","SATNPRO1962","23.122","0.32386","5"],
    [32830,"HCEP03730560","2024-09-04 06:30:00","10.906","3.39109","27.108","1.673","7.48","1.475","4.22","0.34","0.63","29.9914","4.72217","18.31","0","SATNPRO1962","23.291999999999998","0.32626","5"],
    [32831,"HCEP03730560","2024-09-04 06:45:00","10.9092","3.39011","27.014","1.699","7.48","1.3","4.47","0.3","1.56","29.9793","4.72039","18.6","0","SATNPRO1962","23.572","0.33014","5"],
    [32832,"HCEP03730560","2024-09-04 07:00:00","10.9128","3.39005","26.895","1.76","7.49","1.414","3.626","0.29","0.19","29.9758","4.71984","19.27","0","SATNPRO1962","23.364","0.32728","5"],
    [32833,"HCEP03730560","2024-09-04 07:15:00","10.9098","3.39056","26.753","1.802","7.49","1.435","3.798","0.26","0.22","29.9834","4.72094","19.73","0","SATNPRO1962","23.846","0.33398","5"],
    [32834,"HCEP03730560","2024-09-04 07:30:00","10.9073","3.39072","26.615","1.739","7.48","1.628","4.047","0.58","0.29","29.987","4.72149","19.03","0","SATNPRO1962","23.276","0.326","5"],
    [32835,"HCEP03730560","2024-09-04 07:45:00","10.9072","3.39064","26.475","1.698","7.48","1.52","3.935","0.26","0.2","29.9864","4.7214","18.58","0","SATNPRO1962","23.354","0.32712","5"],
    [32836,"HCEP03730560","2024-09-04 08:00:00","10.9177","3.39004","26.327","1.826","7.49","1.353","3.935","0.29","0.17","29.9719","4.71918","19.99","0","SATNPRO1962","25.163999999999998","0.35252","5"],
    [32837,"HCEP03730560","2024-09-04 08:15:00","10.9053","3.39084","26.167","1.822","7.48","1.532","4.152","0.3","0.24","29.99","4.72193","19.94","0","SATNPRO1962","23.008","0.32228","5"],
    [32838,"HCEP03730560","2024-09-04 08:30:00","10.9044","3.39087","26.002","1.669","7.48","1.457","4.405","0.31","0.85","29.9911","4.72208","18.26","0","SATNPRO1962","22.958","0.32156","5"],
    [32839,"HCEP03730560","2024-09-04 08:45:00","10.9034","3.3909","25.88","1.625","7.48","1.507","4.206","0.27","0.28","29.9923","4.72226","17.79","0","SATNPRO1962","22.858","0.32016","5"],
    [32840,"HCEP03730560","2024-09-04 09:00:00","10.9016","3.39151","25.719","1.612","7.47","1.741","4.344","0.27","0.26","29.9997","4.72334","17.65","0","SATNPRO1962","23.084","0.32336","5"],
    [32841,"HCEP03730560","2024-09-04 09:15:00","10.8997","3.39234","25.555","1.614","7.48","1.774","4.455","0.59","0.45","30.0095","4.72474","17.67","0","SATNPRO1962","23.218","0.3252","5"],
    [32842,"HCEP03730560","2024-09-04 09:30:00","10.8991","3.39283","25.37","1.615","7.48","1.552","4.223","0.24","0.32","30.0149","4.72551","17.67","0","SATNPRO1962","23.246","0.3256","5"],
    [32843,"HCEP03730560","2024-09-04 09:45:00","10.8989","3.39312","25.187","1.62","7.48","1.669","4.3","0.35","0.31","30.0179","4.72594","17.73","0","SATNPRO1962","23.2","0.32498","5"],
    [32844,"HCEP03730560","2024-09-04 10:00:00","10.8987","3.39288","25.041","1.63","7.48","1.411","3.904","0.27","0.53","30.0158","4.72563","17.84","0","SATNPRO1962","23.572","0.33014","5"],
    [32845,"HCEP03730560","2024-09-04 10:15:00","10.8995","3.39338","24.908","1.657","7.48","1.461","4.2","0.21","0.23","30.0201","4.72622","18.14","0","SATNPRO1962","23.442","0.32838","5"],
    [32846,"HCEP03730560","2024-09-04 10:30:00","10.8998","3.39366","24.817","1.686","7.48","1.587","4.068","0.31","0.38","30.0227","4.72658","18.46","0","SATNPRO1962","23.574","0.3302","5"],
    [32847,"HCEP03730560","2024-09-04 10:45:00","10.9001","3.39393","24.736","1.699","7.48","1.426","3.973","0.2","0.25","30.0251","4.72691","18.59","0","SATNPRO1962","23.83","0.33374","5"],
    [32848,"HCEP03730560","2024-09-04 11:00:00","10.8992","3.39384","24.707","1.695","7.48","1.51","4.098","0.25","0.16","30.0249","4.7269","18.56","0","SATNPRO1962","23.692","0.33184","5"],
    [32849,"HCEP03730560","2024-09-04 11:15:00","10.9003","3.39404","24.671","1.708","7.48","1.326","3.674","0.15","0.15","30.026","4.72703","18.7","0","SATNPRO1962","23.788","0.33316","5"],
    [32850,"HCEP03730560","2024-09-04 11:30:00","10.8999","3.39405","24.656","1.745","7.49","1.363","3.69","0.42","0.15","30.0265","4.72711","19.1","0","SATNPRO1962","23.922","0.33508","5"],
    [32851,"HCEP03730560","2024-09-04 11:45:00","10.9004","3.39421","24.723","1.753","7.49","1.187","3.896","0.15","0.17","30.0276","4.72726","19.19","0","SATNPRO1962","24.066","0.3371","5"],
    [32852,"HCEP03730560","2024-09-04 12:00:00","10.9001","3.39407","24.766","1.761","7.49","1.302","4.374","0.16","0.33","30.0264","4.7271","19.28","0","SATNPRO1962","23.836000000000002","0.33388","5"],
    [32853,"HCEP03730560","2024-09-04 12:15:00","10.9006","3.3941","24.819","1.753","7.49","1.307","3.849","0.18","0.19","30.0263","4.72708","19.19","0","SATNPRO1962","23.804","0.33342","5"],
    [32854,"HCEP03730560","2024-09-04 12:30:00","10.8994","3.39388","24.912","1.739","7.49","1.174","3.964","0.09","0.1","30.0251","4.72693","19.04","0","SATNPRO1962","23.642","0.33116","5"],
    [32855,"HCEP03730560","2024-09-04 12:45:00","10.9019","3.39429","25.008","1.739","7.49","1.125","3.646","0.15","0.12","30.0271","4.72718","19.04","0","SATNPRO1962","24.224","0.33926","5"],
    [32856,"HCEP03730560","2024-09-04 13:00:00","10.9002","3.3941","25.171","1.785","7.49","1.411","4.375","0.27","0.29","30.0265","4.72713","19.54","0","SATNPRO1962","23.644","0.33114","5"],
    [32857,"HCEP03730560","2024-09-04 13:15:00","10.9034","3.3945","25.336","1.757","7.49","1.271","3.953","0.39","0.18","30.0278","4.72727","19.23","0","SATNPRO1962","24.05","0.3369","5"],
    [32858,"HCEP03730560","2024-09-04 13:30:00","10.9103","3.39537","25.5","1.874","7.5","1.26","3.975","0.23","0.16","30.0306","4.72758","20.52","0","SATNPRO1962","24.694","0.34586","5"],
    [32859,"HCEP03730560","2024-09-04 13:45:00","10.9116","3.39531","25.635","1.956","7.5","1.057","3.739","0.15","0.17","30.0289","4.72732","21.42","0","SATNPRO1962","24.71","0.34606","5"],
    [32860,"HCEP03730560","2024-09-04 14:00:00","10.9059","3.39483","25.768","1.926","7.5","1.11","4.181","0.14","0.13","30.0288","4.7274","21.08","0","SATNPRO1962","24.298","0.34034","5"],
    [32861,"HCEP03730560","2024-09-04 14:15:00","10.9047","3.39474","25.949","1.858","7.5","1.091","3.96","0.16","0.12","30.0288","4.72743","20.34","0","SATNPRO1962","24.252","0.33968","5"],
    [32862,"HCEP03730560","2024-09-04 14:30:00","10.9054","3.39464","26.129","1.844","7.5","1.033","4.117","0.12","0.24","30.0272","4.7272","20.19","0","SATNPRO1962","24.176","0.33862","5"],
    [32863,"HCEP03730560","2024-09-04 14:45:00","10.9046","3.39452","26.283","1.824","7.5","1.12","4.145","0.19","0.23","30.0265","4.72713","19.97","0","SATNPRO1962","24.192","0.33888","5"],
    [32864,"HCEP03730560","2024-09-04 15:00:00","10.9029","3.39414","26.474","1.793","7.49","1.138","4.218","0.18","0.21","30.0242","4.72683","19.63","0","SATNPRO1962","23.844","0.33398","5"],
    [32865,"HCEP03730560","2024-09-04 15:15:00","10.903","3.39395","26.654","1.746","7.49","1.224","4.427","0.24","0.37","30.0222","4.72656","19.11","0","SATNPRO1962","23.766000000000002","0.3329","5"],
    [32866,"HCEP03730560","2024-09-04 15:30:00","10.9065","3.39373","26.827","1.779","7.49","1.259","6.261","0.8","2.67","30.017","4.72578","19.47","0","SATNPRO1962","24.014","0.33638","5"],
    [32867,"HCEP03730560","2024-09-04 15:45:00","10.8993","3.39325","27.009","1.716","7.49","1.069","4.75","0.29","2.46","30.0182","4.72607","18.79","0","SATNPRO1962","23.46","0.3286","5"],
    [32868,"HCEP03730560","2024-09-04 16:00:00","10.8966","3.39252","27.128","1.621","7.48","1.032","4.141","0.17","0.17","30.0131","4.7254","17.75","0","SATNPRO1962","22.93","0.32118","5"],
    [32869,"HCEP03730560","2024-09-04 16:15:00","10.8984","3.39218","27.265","1.526","7.47","0.985","3.885","0.19","0.15","30.0083","4.72469","16.71","0","SATNPRO1962","22.934","0.32124","5"],
    [32870,"HCEP03730560","2024-09-04 16:30:00","10.8978","3.39195","27.428","1.523","7.47","1.095","4.119","0.23","0.42","30.0065","4.72446","16.67","0","SATNPRO1962","22.74","0.31854","5"],
    [32871,"HCEP03730560","2024-09-04 16:45:00","10.8982","3.39178","27.453","1.502","7.47","1.008","4.074","0.13","0.23","30.0046","4.72417","16.44","0","SATNPRO1962","22.57","0.31614","5"],
    [32872,"HCEP03730560","2024-09-04 17:00:00","10.8988","3.39161","27.583","1.495","7.47","1.111","3.793","0.19","0.14","30.0023","4.72386","16.36","0","SATNPRO1962","22.656","0.31732","5"],
    [32873,"HCEP03730560","2024-09-04 17:15:00","10.8985","3.39165","27.616","1.489","7.46","1.127","4.035","0.17","0.13","30.0029","4.72395","16.3","0","SATNPRO1962","22.492","0.315","5"],
    [32874,"HCEP03730560","2024-09-04 17:30:00","10.8976","3.39172","27.683","1.466","7.46","1.076","4.048","0.25","0.13","30.0043","4.72416","16.05","0","SATNPRO1962","22.534","0.31562","5"],
    [32875,"HCEP03730560","2024-09-04 17:45:00","10.8979","3.39184","27.662","1.457","7.46","1.05","4.962","0.19","1.31","30.0052","4.72428","15.94","0","SATNPRO1962","22.544","0.31576","5"],
    [32876,"HCEP03730560","2024-09-04 18:00:00","10.8979","3.39184","27.674","1.461","7.46","1.047","3.959","0.32","0.22","30.0053","4.72429","15.99","0","SATNPRO1962","22.616","0.31676","5"],
    [32877,"HCEP03730560","2024-09-04 18:15:00","10.8988","3.3917","27.647","1.469","7.46","1.053","3.741","0.21","0.19","30.0032","4.72398","16.08","0","SATNPRO1962","22.77","0.31896","5"],
    [32878,"HCEP03730560","2024-09-04 18:30:00","10.8988","3.39172","27.6","1.487","7.46","0.919","3.745","0.18","0.12","30.0033","4.724","16.28","0","SATNPRO1962","22.744","0.31858","5"],
    [32879,"HCEP03730560","2024-09-04 18:45:00","10.9026","3.39099","27.618","1.497","7.46","1.198","3.725","0.21","0.29","29.9931","4.72249","16.39","0","SATNPRO1962","22.634","0.31704","5"],
    [32880,"HCEP03730560","2024-09-04 19:00:00","10.901","3.39132","27.561","1.501","7.46","1.257","3.674","0.89","0.14","29.9977","4.72316","16.43","0","SATNPRO1962","22.878","0.32046","5"],
    [32881,"HCEP03730560","2024-09-04 19:15:00","10.8995","3.39169","27.483","1.516","7.46","1.053","3.5","0.27","0.13","30.0026","4.72388","16.59","0","SATNPRO1962","22.936","0.32126","5"],
    [32882,"HCEP03730560","2024-09-04 19:30:00","10.8992","3.39181","27.369","1.532","7.47","0.751","3.333","0.17","0.12","30.004","4.72408","16.77","0","SATNPRO1962","23.016000000000002","0.3224","5"],
    [32883,"HCEP03730560","2024-09-04 19:45:00","10.8992","3.39186","27.244","1.539","7.47","0.759","3.368","0.16","0.12","30.0046","4.72415","16.85","0","SATNPRO1962","23.078","0.32324","5"],
    [32884,"HCEP03730560","2024-09-04 20:00:00","10.8986","3.3922","27.173","1.545","7.47","0.823","3.455","0.15","0.18","30.0084","4.7247","16.9","0","SATNPRO1962","23.003999999999998","0.3222","5"],
    [32885,"HCEP03730560","2024-09-04 20:15:00","10.8999","3.39289","27.057","1.546","7.47","1.154","4.001","0.61","0.5","30.0142","4.7255","16.92","0","SATNPRO1962","23.22","0.3252","5"],
    [32886,"HCEP03730560","2024-09-04 20:30:00","10.9022","3.39339","26.957","1.55","7.47","1.103","4.235","0.35","0.36","30.0173","4.72589","16.96","0","SATNPRO1962","23.146","0.32422","5"],
    [32887,"HCEP03730560","2024-09-04 20:45:00","10.9048","3.39387","26.822","1.621","7.47","1.122","3.971","0.19","0.2","30.0198","4.7262","17.75","0","SATNPRO1962","23.448","0.32846","5"],
    [32888,"HCEP03730560","2024-09-04 21:00:00","10.9099","3.39449","26.691","1.689","7.48","1.092","3.949","0.2","0.54","30.0217","4.72639","18.49","0","SATNPRO1962","23.876","0.33442","5"],
    [32889,"HCEP03730560","2024-09-04 21:15:00","10.9126","3.39438","26.551","1.781","7.49","1.365","3.558","1.42","0.26","30.0186","4.72589","19.49","0","SATNPRO1962","24.246","0.33962","5"],
    [32890,"HCEP03730560","2024-09-04 21:30:00","10.9097","3.39464","26.4","1.796","7.49","1.253","3.78","0.41","0.24","30.0236","4.72664","19.67","0","SATNPRO1962","24.042","0.33674","5"],
    [32891,"HCEP03730560","2024-09-04 21:45:00","10.911","3.39491","26.244","1.768","7.49","1.416","3.914","0.56","0.44","30.0252","4.72684","19.35","0","SATNPRO1962","24.018","0.33638","5"],
    [32892,"HCEP03730560","2024-09-04 22:00:00","10.9116","3.39522","26.085","1.801","7.49","1.079","3.791","0.19","0.44","30.0278","4.72719","19.72","0","SATNPRO1962","24.34","0.34092","5"],
    [32893,"HCEP03730560","2024-09-04 22:15:00","10.9095","3.39514","25.914","1.866","7.49","1.445","3.855","0.42","0.24","30.0288","4.72736","20.43","0","SATNPRO1962","24.428","0.34218","5"],
    [32894,"HCEP03730560","2024-09-04 22:30:00","10.907","3.39521","25.755","1.858","7.49","1.198","3.604","0.24","0.16","30.0315","4.72777","20.34","0","SATNPRO1962","24.546","0.34384","5"],
    [32895,"HCEP03730560","2024-09-04 22:45:00","10.9066","3.39505","25.611","1.856","7.5","1.173","3.519","0.2","0.24","30.0305","4.72762","20.32","0","SATNPRO1962","24.558","0.344","5"],
    [32896,"HCEP03730560","2024-09-04 23:00:00","10.906","3.39515","25.473","1.857","7.5","1.103","4.086","0.32","0.68","30.0319","4.72782","20.33","0","SATNPRO1962","24.45","0.34248","5"],
    [32897,"HCEP03730560","2024-09-04 23:15:00","10.9047","3.39473","25.37","1.84","7.49","1.162","3.573","0.35","0.22","30.0289","4.72742","20.14","0","SATNPRO1962","24.328","0.34072","5"],
    [32898,"HCEP03730560","2024-09-04 23:30:00","10.9038","3.39483","25.231","1.772","7.49","1.223","3.774","0.38","0.25","30.0307","4.72767","19.4","0","SATNPRO1962","24.058","0.337","5"],
    [32899,"HCEP03730560","2024-09-04 23:45:00","10.9032","3.39483","25.228","1.733","7.49","1.202","4.056","0.23","0.59","30.0312","4.72776","18.98","0","SATNPRO1962","23.968","0.33572","5"],
    [32900,"HCEP03730560","2024-09-05 00:00:00","10.9025","3.39481","25.245","1.699","7.49","1.137","3.504","0.28","0.13","30.0316","4.72782","18.6","0","SATNPRO1962","23.978","0.33584","5"],
    [32901,"HCEP03730560","2024-09-05 00:15:00","10.9021","3.39492","25.23","1.675","7.48","1.321","3.815","0.39","0.39","30.033","4.72803","18.34","0","SATNPRO1962","23.97","0.33576","5"],
    [32902,"HCEP03730560","2024-09-05 00:30:00","10.9019","3.39498","25.281","1.662","7.48","1.255","3.68","0.66","0.19","30.0337","4.72813","18.19","0","SATNPRO1962","23.458000000000002","0.32854","5"],
    [32903,"HCEP03730560","2024-09-05 00:45:00","10.9016","3.39507","25.342","1.643","7.48","1.169","3.692","0.38","0.21","30.0348","4.72829","17.99","0","SATNPRO1962","23.86","0.3342","5"],
    [32904,"HCEP03730560","2024-09-05 01:00:00","10.9008","3.3951","25.421","1.616","7.48","1.347","3.784","0.34","0.18","30.0358","4.72846","17.69","0","SATNPRO1962","23.612","0.3307","5"],
    [32905,"HCEP03730560","2024-09-05 01:15:00","10.9003","3.39492","25.517","1.594","7.48","1.369","3.343","0.34","0.06","30.034300000000002","4.72826","17.45","0","SATNPRO1962","23.462","0.3286","5"],
    [32906,"HCEP03730560","2024-09-05 01:30:00","10.9001","3.39491","25.612","1.582","7.48","1.528","3.493","0.55","0.17","30.034300000000002","4.72827","17.31","0","SATNPRO1962","23.445999999999998","0.3284","5"],
    [32907,"HCEP03730560","2024-09-05 01:45:00","10.9002","3.39475","25.715","1.574","7.48","1.24","3.152","0.28","0.08","30.0327","4.72804","17.23","0","SATNPRO1962","23.648","0.33124","5"],
    [32908,"HCEP03730560","2024-09-05 02:00:00","10.8999","3.39478","25.817","1.575","7.47","0.946","3.163","0.14","0.21","30.0332","4.72812","17.24","0","SATNPRO1962","23.6","0.33056","5"],
    [32909,"HCEP03730560","2024-09-05 02:15:00","10.9003","3.39466","25.939","1.566","7.47","0.987","3.174","0.21","0.07","30.0316","4.7279","17.15","0","SATNPRO1962","23.862","0.33426","5"],
    [32910,"HCEP03730560","2024-09-05 02:30:00","10.8994","3.39479","26.064","1.558","7.47","1.107","3.045","0.15","0.07","30.0336","4.7282","17.05","0","SATNPRO1962","23.542","0.32972","5"],
    [32911,"HCEP03730560","2024-09-05 02:45:00","10.9002","3.39459","26.189","1.555","7.47","0.957","2.963","0.19","0.18","30.0309","4.72781","17.03","0","SATNPRO1962","23.002","0.32218","5"],
    [32912,"HCEP03730560","2024-09-05 03:00:00","10.9004","3.39452","26.317","1.578","7.47","1.013","3.418","0.41","0.18","30.0301","4.7277","17.27","0","SATNPRO1962","23.976","0.33584","5"],
    [32913,"HCEP03730560","2024-09-05 03:15:00","10.8996","3.39489","26.442","1.583","7.47","1.159","3.443","0.29","0.16","30.0342","4.7283","17.33","0","SATNPRO1962","23.81","0.3335","5"],
    [32914,"HCEP03730560","2024-09-05 03:30:00","10.9002","3.39495","26.575","1.556","7.47","1.102","3.464","0.43","0.29","30.034300000000002","4.72831","17.04","0","SATNPRO1962","23.512","0.32934","5"],
    [32915,"HCEP03730560","2024-09-05 03:45:00","10.9011","3.39523","26.713","1.559","7.47","1.086","3.705","0.24","0.12","30.0363","4.72859","17.07","0","SATNPRO1962","23.468","0.3287","5"],
    [32916,"HCEP03730560","2024-09-05 04:00:00","10.9022","3.39537","26.851","1.583","7.48","1.135","3.712","0.22","0.14","30.0367","4.72864","17.33","0","SATNPRO1962","23.748","0.33264","5"],
    [32917,"HCEP03730560","2024-09-05 04:15:00","10.9033","3.39535","26.979","1.626","7.48","1.334","3.868","0.26","0.19","30.0356","4.72847","17.81","0","SATNPRO1962","23.822","0.33366","5"],
    [32918,"HCEP03730560","2024-09-05 04:30:00","10.9046","3.39534","27.102","1.646","7.48","1.394","3.752","0.35","0.2","30.034300000000002","4.72828","18.02","0","SATNPRO1962","23.844","0.33396","5"],
    [32919,"HCEP03730560","2024-09-05 04:45:00","10.9068","3.39539","27.224","1.686","7.48","1.493","4.094","0.3","0.27","30.0329","4.72806","18.46","0","SATNPRO1962","24.102","0.33758","5"],
    [32920,"HCEP03730560","2024-09-05 05:00:00","10.9074","3.39526","27.24","1.713","7.48","1.664","4.167","0.34","0.9","30.0312","4.7278","18.76","0","SATNPRO1962","24.018","0.33636","5"],
    [32921,"HCEP03730560","2024-09-05 05:15:00","10.907","3.39481","27.321","1.708","7.48","1.642","3.851","0.32","0.31","30.0271","4.72722","18.7","0","SATNPRO1962","24.138","0.33808","5"],
    [32922,"HCEP03730560","2024-09-05 05:30:00","10.9057","3.39453","27.414","1.693","7.48","1.634","3.973","0.34","0.28","30.0254","4.72702","18.54","0","SATNPRO1962","24.016000000000002","0.33642","5"],
    [32923,"HCEP03730560","2024-09-05 05:45:00","10.9047","3.39427","27.444","1.662","7.48","1.805","3.468","0.37","0.18","30.0236","4.72678","18.19","0","SATNPRO1962","23.91","0.33494","5"],
    [32924,"HCEP03730560","2024-09-05 06:00:00","10.9049","3.39425","27.41","1.642","7.48","1.575","3.775","0.25","0.4","30.0232","4.72672","17.98","0","SATNPRO1962","23.830000000000002","0.33376","5"],
    [32925,"HCEP03730560","2024-09-05 06:15:00","10.9053","3.39427","27.39","1.632","7.48","2.236","3.472","1.07","0.14","30.0232","4.7267","17.87","0","SATNPRO1962","23.964","0.33568","5"],
    [32926,"HCEP03730560","2024-09-05 06:30:00","10.906","3.39431","27.35","1.635","7.48","2.009","3.737","0.65","0.36","30.023","4.72666","17.9","0","SATNPRO1962","23.88","0.33446","5"],
    [32927,"HCEP03730560","2024-09-05 06:45:00","10.9066","3.39438","27.287","1.645","7.48","1.942","3.381","0.71","0.13","30.0231","4.72667","18.01","0","SATNPRO1962","23.996","0.33612","5"],
    [32928,"HCEP03730560","2024-09-05 07:00:00","10.9077","3.39433","27.21","1.659","7.48","1.341","3.442","0.24","0.24","30.0218","4.72646","18.16","0","SATNPRO1962","24.026","0.3365","5"],
    [32929,"HCEP03730560","2024-09-05 07:15:00","10.9092","3.39461","27.102","1.678","7.48","1.78","3.322","0.54","0.22","30.0234","4.72665","18.37","0","SATNPRO1962","24.122","0.33786","5"],
    [32930,"HCEP03730560","2024-09-05 07:30:00","10.91","3.39479","26.984","1.698","7.48","1.485","3.287","0.42","0.15","30.0246","4.72681","18.59","0","SATNPRO1962","24.168","0.33846","5"],
    [32931,"HCEP03730560","2024-09-05 07:45:00","10.9111","3.39488","26.855","1.716","7.48","1.25","3.152","0.24","0.14","30.0246","4.72679","18.79","0","SATNPRO1962","24.304000000000002","0.34044","5"],
    [32932,"HCEP03730560","2024-09-05 08:00:00","10.9123","3.39498","26.728","1.733","7.48","1.578","4.406","0.22","0.93","30.0247","4.72677","18.97","0","SATNPRO1962","24.442","0.34232","5"],
    [32933,"HCEP03730560","2024-09-05 08:15:00","10.9117","3.39507","26.614","1.737","7.48","1.31","3.629","0.32","0.47","30.026","4.72696","19.02","0","SATNPRO1962","24.202","0.339","5"],
    [32934,"HCEP03730560","2024-09-05 08:30:00","10.9113","3.39504","26.477","1.724","7.48","1.254","3.242","0.3","0.17","30.0261","4.72698","18.87","0","SATNPRO1962","24.292","0.34026","5"],
    [32935,"HCEP03730560","2024-09-05 08:45:00","10.9132","3.39515","26.333","1.723","7.48","1.281","3.105","0.23","0.2","30.0256","4.72687","18.87","0","SATNPRO1962","24.47","0.34272","5"],
    [32936,"HCEP03730560","2024-09-05 09:00:00","10.9141","3.39533","26.17","1.743","7.49","1.563","3.183","0.33","0.1","30.0269","4.72702","19.09","0","SATNPRO1962","24.286","0.34018","5"],
    [32937,"HCEP03730560","2024-09-05 09:15:00","10.9138","3.3955","26.036","1.752","7.49","1.492","3.287","0.26","0.5","30.0288","4.72729","19.18","0","SATNPRO1962","24.35","0.34106","5"],
    [32938,"HCEP03730560","2024-09-05 09:30:00","10.9126","3.39554","25.89","1.74","7.49","1.501","3.302","0.19","0.14","30.0302","4.72751","19.06","0","SATNPRO1962","24.592","0.3445","5"],
    [32939,"HCEP03730560","2024-09-05 09:45:00","10.9111","3.39557","25.759","1.727","7.48","1.463","3.236","0.19","0.14","30.0318","4.72774","18.91","0","SATNPRO1962","24.372","0.34138","5"],
    [32940,"HCEP03730560","2024-09-05 10:00:00","10.9105","3.39564","25.582","1.713","7.48","1.485","3.538","0.26","0.19","30.033","4.72792","18.76","0","SATNPRO1962","24.064","0.33706","5"],
    [32941,"HCEP03730560","2024-09-05 10:15:00","10.9062","3.39523","25.436","1.65","7.48","1.613","3.616","0.26","0.13","30.0326","4.72792","18.07","0","SATNPRO1962","23.684","0.33174","5"],
    [32942,"HCEP03730560","2024-09-05 10:30:00","10.9047","3.39145","25.294","1.606","7.48","1.71","3.721","0.61","0.25","29.9968","4.72286","17.58","0","SATNPRO1962","23.586000000000002","0.33042","5"],
    [32943,"HCEP03730560","2024-09-05 10:45:00","10.906","3.39521","25.165","1.585","7.48","1.501","3.373","0.19","0.15","30.0327","4.72792","17.35","0","SATNPRO1962","23.802","0.33344","5"],
    [32944,"HCEP03730560","2024-09-05 11:00:00","10.9063","3.39507","25.064","1.606","7.48","1.674","3.376","0.41","0.16","30.031","4.72767","17.58","0","SATNPRO1962","23.824","0.33366","5"],
    [32945,"HCEP03730560","2024-09-05 11:15:00","10.9075","3.39521","25.017","1.617","7.48","1.417","3.332","0.3","0.17","30.0315","4.72771","17.7","0","SATNPRO1962","24.026","0.33656","5"],
    [32946,"HCEP03730560","2024-09-05 11:30:00","10.9062","3.39495","24.958","1.612","7.48","1.441","3.33","0.24","0.14","30.0301","4.72753","17.65","0","SATNPRO1962","23.774","0.333","5"],
    [32947,"HCEP03730560","2024-09-05 11:45:00","10.9105","3.39218","24.959","1.646","7.48","1.21","2.984","0.22","0.13","29.9994","4.72311","18.02","0","SATNPRO1962","24.304000000000002","0.34044","5"],
    [32948,"HCEP03730560","2024-09-05 12:00:00","10.9121","3.39223","24.967","1.715","7.48","1.052","2.788","0.22","0.08","29.9985","4.72296","18.77","0","SATNPRO1962","24.592","0.34446","5"],
    [32949,"HCEP03730560","2024-09-05 12:15:00","10.9104","3.39221","24.988","1.731","7.48","1.165","3.017","0.18","0.1","29.9997","4.72316","18.95","0","SATNPRO1962","24.176","0.3386","5"],
    [32950,"HCEP03730560","2024-09-05 12:30:00","10.912","3.39387","25.028","1.715","7.48","1.184","4.582","0.2","1.37","30.0147","4.72526","18.78","0","SATNPRO1962","24.172","0.33858","5"],
    [32951,"HCEP03730560","2024-09-05 12:45:00","10.9108","3.39374","25.091","1.706","7.48","1.453","3.436","0.23","0.66","30.0144","4.72524","18.68","0","SATNPRO1962","24.188","0.33876","5"],
    [32952,"HCEP03730560","2024-09-05 13:00:00","10.9075","3.39431","25.172","1.641","7.48","1.588","3.352","0.31","0.19","30.0226","4.72647","17.97","0","SATNPRO1962","23.93","0.33516","5"],
    [32953,"HCEP03730560","2024-09-05 13:15:00","10.9089","3.39429","25.283","1.592","7.47","1.512","3.12","0.35","0.22","30.0212","4.72625","17.43","0","SATNPRO1962","23.996","0.3361","5"],
    [32954,"HCEP03730560","2024-09-05 13:30:00","10.9107","3.39448","25.399","1.611","7.48","1.555","3.407","0.27","0.6","30.0215","4.72628","17.64","0","SATNPRO1962","24","0.33618","5"],
    [32955,"HCEP03730560","2024-09-05 13:45:00","10.9129","3.39465","25.48","1.648","7.48","1.375","3.134","0.16","0.12","30.0214","4.72623","18.04","0","SATNPRO1962","24.264","0.33986","5"],
    [32956,"HCEP03730560","2024-09-05 14:00:00","10.9117","3.39446","25.645","1.662","7.48","1.6","3.363","0.22","0.11","30.0205","4.72613","18.2","0","SATNPRO1962","23.664","0.33148","5"],
    [32957,"HCEP03730560","2024-09-05 14:15:00","10.9108","3.39438","25.772","1.609","7.47","1.702","3.579","0.29","0.16","30.0203","4.72613","17.62","0","SATNPRO1962","23.54","0.32972","5"],
    [32958,"HCEP03730560","2024-09-05 14:30:00","10.9114","3.39442","25.947","1.573","7.47","1.687","3.697","0.23","0.14","30.0202","4.7261","17.22","0","SATNPRO1962","24.1","0.33758","5"],
    [32959,"HCEP03730560","2024-09-05 14:45:00","10.9121","3.39441","26.021","1.566","7.47","1.772","3.763","0.28","0.21","30.0195","4.726","17.15","0","SATNPRO1962","23.594","0.33048","5"],
    [32960,"HCEP03730560","2024-09-05 15:00:00","10.9126","3.39444","26.181","1.559","7.47","1.432","3.61","0.15","0.08","30.0193","4.72597","17.07","0","SATNPRO1962","23.53","0.32958","5"],
    [32961,"HCEP03730560","2024-09-05 15:15:00","10.9164","3.39467","26.363","1.585","7.47","1.509","3.464","0.32","0.16","30.0184","4.72579","17.36","0","SATNPRO1962","24.082","0.33732","5"],
    [32962,"HCEP03730560","2024-09-05 15:30:00","10.9188","3.39472","26.537","1.673","7.48","1.209","3.377","0.19","0.12","30.0168","4.72555","18.32","0","SATNPRO1962","24.184","0.33874","5"],
    [32963,"HCEP03730560","2024-09-05 15:45:00","10.9185","3.39447","26.718","1.686","7.48","1.319","3.512","0.32","0.16","30.0145","4.72524","18.46","0","SATNPRO1962","24.038","0.33668","5"],
    [32964,"HCEP03730560","2024-09-05 16:00:00","10.9153","3.39395","26.889","1.655","7.48","1.296","3.758","0.24","0.16","30.012","4.72493","18.12","0","SATNPRO1962","23.726","0.33234","5"],
    [32965,"HCEP03730560","2024-09-05 16:15:00","10.912","3.39333","26.98","1.575","7.47","1.32","3.841","0.25","0.18","30.0086","4.72451","17.25","0","SATNPRO1962","22.894000000000002","0.32064","5"],
    [32966,"HCEP03730560","2024-09-05 16:30:00","10.9121","3.3931","27.199","1.516","7.47","1.216","3.92","0.14","0.19","30.0062","4.72418","16.6","0","SATNPRO1962","23.426000000000002","0.3281","5"],
    [32967,"HCEP03730560","2024-09-05 16:45:00","10.9107","3.39289","27.287","1.493","7.46","1.201","3.832","0.16","0.15","30.0052","4.72407","16.34","0","SATNPRO1962","22.842","0.31992","5"],
    [32968,"HCEP03730560","2024-09-05 17:00:00","10.9097","3.39276","27.398","1.449","7.46","1.357","3.857","0.32","0.14","30.0048","4.72402","15.87","0","SATNPRO1962","23","0.3222","5"],
    [32969,"HCEP03730560","2024-09-05 17:15:00","10.9079","3.3926","27.507","1.413","7.46","1.411","3.926","0.25","0.34","30.0046","4.72403","15.47","0","SATNPRO1962","22.712","0.31812","5"],
    [32970,"HCEP03730560","2024-09-05 17:30:00","10.9074","3.39249","27.575","1.379","7.45","1.465","3.608","0.64","0.2","30.0039","4.72394","15.09","0","SATNPRO1962","22.782","0.3191","5"],
    [32971,"HCEP03730560","2024-09-05 17:45:00","10.9078","3.39249","27.779","1.365","7.45","1.339","3.456","0.23","0.09","30.0034","4.72389","14.94","0","SATNPRO1962","22.77","0.31892","5"],
    [32972,"HCEP03730560","2024-09-05 18:00:00","10.9082","3.3925","27.743","1.369","7.45","1.088","3.841","0.32","0.43","30.0033","4.72385","14.99","0","SATNPRO1962","22.836","0.31986","5"],
    [32973,"HCEP03730560","2024-09-05 18:15:00","10.9084","3.39248","27.651","1.369","7.45","1.122","3.433","0.21","0.11","30.003","4.7238","14.99","0","SATNPRO1962","22.806","0.31948","5"],
    [32974,"HCEP03730560","2024-09-05 18:30:00","10.9086","3.39248","27.646","1.374","7.45","1.165","3.689","0.16","0.11","30.0028","4.72378","15.04","0","SATNPRO1962","22.792","0.31926","5"],
    [32975,"HCEP03730560","2024-09-05 18:45:00","10.9097","3.39252","27.612","1.387","7.45","1.004","3.373","0.22","0.13","30.0023","4.72368","15.18","0","SATNPRO1962","23.076","0.3232","5"],
    [32976,"HCEP03730560","2024-09-05 19:00:00","10.9102","3.39252","27.626","1.404","7.45","1.023","3.291","0.2","0.15","30.0018","4.72361","15.37","0","SATNPRO1962","23.056","0.32296","5"],
    [32977,"HCEP03730560","2024-09-05 19:15:00","10.9099","3.39252","27.545","1.408","7.45","0.969","3.304","0.16","0.14","30.0022","4.72366","15.41","0","SATNPRO1962","23.038","0.3227","5"],
    [32978,"HCEP03730560","2024-09-05 19:30:00","10.9105","3.39255","27.481","1.411","7.45","0.942","3.206","0.2","0.14","30.002","4.72362","15.44","0","SATNPRO1962","23.362","0.32724","5"],
    [32979,"HCEP03730560","2024-09-05 19:45:00","10.9117","3.39256","27.398","1.424","7.46","0.874","3.119","0.22","0.19","30.0012","4.72348","15.59","0","SATNPRO1962","23.078","0.3232","5"],
    [32980,"HCEP03730560","2024-09-05 20:00:00","10.9124","3.39258","27.291","1.442","7.46","1.083","3.078","0.29","0.11","30.0008","4.72341","15.79","0","SATNPRO1962","23.104","0.32358","5"],
    [32981,"HCEP03730560","2024-09-05 20:15:00","10.9129","3.3926","27.197","1.454","7.46","1.044","3.29","0.28","0.16","30.0006","4.72338","15.92","0","SATNPRO1962","23.032","0.32264","5"],
    [32982,"HCEP03730560","2024-09-05 20:30:00","10.9125","3.39263","27.069","1.459","7.46","1.134","3.262","0.32","0.17","30.0012","4.72346","15.97","0","SATNPRO1962","23.102","0.32358","5"],
    [32983,"HCEP03730560","2024-09-05 20:45:00","10.9126","3.39269","26.934","1.457","7.46","0.972","3.204","0.24","0.26","30.0018","4.72354","15.95","0","SATNPRO1962","23.032","0.32262","5"],
    [32984,"HCEP03730560","2024-09-05 21:00:00","10.9131","3.39286","26.815","1.468","7.46","0.961","3.325","0.21","0.37","30.0032","4.72371","16.07","0","SATNPRO1962","23.056","0.32294","5"],
    [32985,"HCEP03730560","2024-09-05 21:15:00","10.9122","3.39303","26.679","1.469","7.46","1.095","3.328","0.2","0.11","30.0056","4.72406","16.08","0","SATNPRO1962","23.066","0.32304","5"],
    [32986,"HCEP03730560","2024-09-05 21:30:00","10.9128","3.39318","26.538","1.454","7.46","1.375","3.663","0.3","0.29","30.0066","4.72419","15.92","0","SATNPRO1962","23.148","0.32424","5"],
    [32987,"HCEP03730560","2024-09-05 21:45:00","10.9145","3.39343","26.369","1.448","7.46","1.417","3.545","0.47","0.17","30.0078","4.72432","15.86","0","SATNPRO1962","23.2","0.32498","5"],
    [32988,"HCEP03730560","2024-09-05 22:00:00","10.9155","3.39349","26.185","1.492","7.46","1.361","3.57","0.17","0.4","30.0076","4.72427","16.34","0","SATNPRO1962","23.21","0.3251","5"],
    [32989,"HCEP03730560","2024-09-05 22:15:00","10.9162","3.39303","26.011","1.524","7.46","1.375","3.534","0.29","0.26","30.0026","4.72354","16.69","0","SATNPRO1962","23.53","0.32956","5"],
    [32990,"HCEP03730560","2024-09-05 22:30:00","10.9144","3.39336","25.836","1.533","7.46","1.369","3.511","0.41","0.24","30.0074","4.72423","16.79","0","SATNPRO1962","23.306","0.32648","5"],
    [32991,"HCEP03730560","2024-09-05 22:45:00","10.9119","3.39317","25.613","1.492","7.46","1.423","3.65","0.3","0.39","30.0077","4.72431","16.34","0","SATNPRO1962","23.222","0.32528","5"],
    [32992,"HCEP03730560","2024-09-05 23:00:00","10.9107","3.39321","25.456","1.448","7.46","1.246","3.468","0.24","0.19","30.0091","4.72451","15.85","0","SATNPRO1962","23.13","0.324","5"],
    [32993,"HCEP03730560","2024-09-05 23:15:00","10.9095","3.39328","25.343","1.417","7.46","2.065","3.431","0.89","0.2","30.0108","4.72477","15.51","0","SATNPRO1962","23.176000000000002","0.32456","5"],
    [32994,"HCEP03730560","2024-09-05 23:30:00","10.9094","3.39342","25.238","1.412","7.46","1.471","3.956","0.35","0.74","30.0122","4.72497","15.46","0","SATNPRO1962","23.252000000000002","0.32566","5"],
    [32995,"HCEP03730560","2024-09-05 23:45:00","10.9095","3.39365","25.156","1.417","7.46","1.372","3.309","0.27","0.14","30.0144","4.72527","15.51","0","SATNPRO1962","23.378","0.32746","5"],
    [32996,"HCEP03730560","2024-09-06 00:00:00","10.9095","3.39383","25.096","1.419","7.46","1.267","3.285","0.32","0.1","30.0164","4.72554","15.54","0","SATNPRO1962","23.368000000000002","0.3273","5"],
    [32997,"HCEP03730560","2024-09-06 00:15:00","10.9107","3.39409","25.075","1.431","7.46","1.445","3.184","0.3","0.21","30.0179","4.72574","15.67","0","SATNPRO1962","23.701999999999998","0.33196","5"],
    [32998,"HCEP03730560","2024-09-06 00:30:00","10.9141","3.39443","25.092","1.494","7.46","0.932","2.975","0.19","0.1","30.0184","4.72576","16.35","0","SATNPRO1962","24.1","0.33752","5"],
    [32999,"HCEP03730560","2024-09-06 00:45:00","10.912","3.39437","25.117","1.526","7.46","1.196","3.142","0.46","0.2","30.0196","4.72596","16.71","0","SATNPRO1962","23.742","0.33258","5"],
    [33000,"HCEP03730560","2024-09-06 01:00:00","10.9129","3.39468","25.157","1.516","7.46","1.1","3.068","0.25","0.09","30.0218","4.72627","16.6","0","SATNPRO1962","23.66","0.3314","5"],
    [33001,"HCEP03730560","2024-09-06 01:15:00","10.9128","3.39487","25.219","1.532","7.47","0.983","3.289","0.29","0.72","30.0238","4.72656","16.77","0","SATNPRO1962","23.828","0.33376","5"],
    [33002,"HCEP03730560","2024-09-06 01:30:00","10.9109","3.39481","25.289","1.529","7.46","0.801","3.021","0.15","0.25","30.0247","4.72672","16.75","0","SATNPRO1962","23.658","0.33136","5"],
    [33003,"HCEP03730560","2024-09-06 01:45:00","10.9105","3.39491","25.38","1.5","7.46","1.166","3.323","0.27","0.29","30.0259","4.7269","16.43","0","SATNPRO1962","23.67","0.33154","5"],
    [33004,"HCEP03730560","2024-09-06 02:00:00","10.9105","3.39501","25.474","1.494","7.46","1.084","3.355","0.34","0.08","30.0268","4.72704","16.35","0","SATNPRO1962","23.514","0.32934","5"],
    [33005,"HCEP03730560","2024-09-06 02:15:00","10.9103","3.39515","25.575","1.485","7.46","1.236","3.767","0.3","0.52","30.0283","4.72726","16.26","0","SATNPRO1962","23.636","0.33106","5"],
    [33006,"HCEP03730560","2024-09-06 02:30:00","10.9123","3.39526","25.689","1.495","7.46","0.837","2.972","0.1","0.11","30.0278","4.72716","16.37","0","SATNPRO1962","23.79","0.33322","5"],
    [33007,"HCEP03730560","2024-09-06 02:45:00","10.91","3.3951","25.799","1.482","7.46","1.329","3.49","0.42","0.24","30.028","4.72723","16.23","0","SATNPRO1962","23.221999999999998","0.32528","5"],
    [33008,"HCEP03730560","2024-09-06 03:00:00","10.9119","3.39524","25.92","1.453","7.46","1.263","3.248","0.32","0.13","30.0279","4.72719","15.91","0","SATNPRO1962","23.482","0.3289","5"],
    [33009,"HCEP03730560","2024-09-06 03:15:00","10.9124","3.39533","26.042","1.456","7.46","1.146","3.431","0.15","0.12","30.0282","4.72724","15.94","0","SATNPRO1962","23.456","0.32852","5"],
    [33010,"HCEP03730560","2024-09-06 03:30:00","10.9128","3.39538","26.176","1.449","7.46","1.203","3.424","0.23","0.11","30.0284","4.72726","15.86","0","SATNPRO1962","23.338","0.32688","5"],
    [33011,"HCEP03730560","2024-09-06 03:45:00","10.914","3.39553","26.308","1.456","7.46","1.351","3.414","0.28","0.07","30.0288","4.72731","15.94","0","SATNPRO1962","23.55","0.32988","5"],
    [33012,"HCEP03730560","2024-09-06 04:00:00","10.9156","3.39584","26.451","1.491","7.46","0.983","3.456","0.19","0.08","30.0305","4.72754","16.33","0","SATNPRO1962","23.448","0.32842","5"],
    [33013,"HCEP03730560","2024-09-06 04:15:00","10.9164","3.39596","26.598","1.52","7.46","1.162","3.668","0.46","0.23","30.0309","4.72759","16.65","0","SATNPRO1962","23.712","0.3321","5"],
    [33014,"HCEP03730560","2024-09-06 04:30:00","10.9169","3.39596","26.74","1.547","7.47","1.279","3.883","0.47","0.21","30.0304","4.72752","16.94","0","SATNPRO1962","23.718","0.33218","5"],
    [33015,"HCEP03730560","2024-09-06 04:45:00","10.9174","3.39582","26.885","1.549","7.47","1.254","4.254","0.29","1.29","30.0287","4.72727","16.96","0","SATNPRO1962","23.868","0.33434","5"],
    [33016,"HCEP03730560","2024-09-06 05:00:00","10.9207","3.39616","27.008","1.573","7.47","1.043","3.488","0.28","0.16","30.0292","4.7273","17.23","0","SATNPRO1962","24.122","0.33788","5"],
    [33017,"HCEP03730560","2024-09-06 05:15:00","10.921","3.39597","27.135","1.622","7.47","1.372","3.716","0.58","0.16","30.027","4.72699","17.76","0","SATNPRO1962","24.23","0.3394","5"],
    [33018,"HCEP03730560","2024-09-06 05:30:00","10.9209","3.39584","27.109","1.622","7.47","1.5","4.108","0.6","0.27","30.0258","4.72683","17.76","0","SATNPRO1962","24.080000000000002","0.33728","5"],
    [33019,"HCEP03730560","2024-09-06 05:45:00","10.9189","3.3954","27.218","1.601","7.47","0.993","3.546","0.19","0.28","30.0232","4.72648","17.53","0","SATNPRO1962","23.714","0.33214","5"],
    [33020,"HCEP03730560","2024-09-06 06:00:00","10.9237","3.39535","27.296","1.663","7.48","1.923","3.158","1.95","0.4","30.0187","4.72578","18.21","0","SATNPRO1962","24.796","0.3473","5"],
    [33021,"HCEP03730560","2024-09-06 06:15:00","10.9241","3.3952","27.377","1.76","7.48","0.64","2.717","0.11","0.07","30.0168","4.72552","19.28","0","SATNPRO1962","24.818","0.34766","5"],
    [33022,"HCEP03730560","2024-09-06 06:30:00","10.9207","3.39515","27.435","1.759","7.48","1.098","3.124","0.54","0.23","30.0191","4.72589","19.26","0","SATNPRO1962","24.752","0.3467","5"],
    [33023,"HCEP03730560","2024-09-06 06:45:00","10.9145","3.39427","27.402","1.625","7.47","1.011","3.347","0.26","0.27","30.0155","4.72548","17.8","0","SATNPRO1962","24.052","0.33686","5"],
    [33024,"HCEP03730560","2024-09-06 07:00:00","10.9137","3.39374","27.352","1.494","7.46","1.006","3.091","0.32","0.19","30.0111","4.72486","16.36","0","SATNPRO1962","23.472","0.32874","5"],
    [33025,"HCEP03730560","2024-09-06 07:15:00","10.9147","3.39343","27.303","1.456","7.46","1.186","3.406","0.45","0.36","30.0073","4.72429","15.94","0","SATNPRO1962","23.44","0.32832","5"],
    [33026,"HCEP03730560","2024-09-06 07:30:00","10.9114","3.39339","27.284","1.387","7.45","1.534","3.604","0.35","0.24","30.0095","4.72467","15.19","0","SATNPRO1962","22.866","0.3203","5"],
    [33027,"HCEP03730560","2024-09-06 07:45:00","10.9126","3.39309","27.204","1.336","7.45","1.295","3.322","0.25","0.13","30.0057","4.7241","14.62","0","SATNPRO1962","22.902","0.32078","5"],
    [33028,"HCEP03730560","2024-09-06 08:00:00","10.9144","3.39297","27.108","1.35","7.45","1.081","3.106","0.25","0.11","30.0031","4.72369","14.78","0","SATNPRO1962","23.072","0.32316","5"],
    [33029,"HCEP03730560","2024-09-06 08:15:00","10.9121","3.39283","27.02","1.341","7.45","1.484","3.415","0.43","0.18","30.0036","4.7238","14.68","0","SATNPRO1962","22.650000000000002","0.31728","5"],
    [33030,"HCEP03730560","2024-09-06 08:30:00","10.9129","3.39263","26.932","1.307","7.45","1.272","3.471","0.32","0.19","30.001","4.72341","14.31","0","SATNPRO1962","22.836","0.31988","5"],
    [33031,"HCEP03730560","2024-09-06 08:45:00","10.9116","3.39283","26.829","1.298","7.44","1.492","3.539","0.32","0.22","30.0041","4.72386","14.21","0","SATNPRO1962","22.568","0.31608","5"],
    [33032,"HCEP03730560","2024-09-06 09:00:00","10.9135","3.39246","26.684","1.278","7.44","1.467","3.444","0.25","0.2","29.9989","4.72309","13.99","0","SATNPRO1962","22.584","0.31634","5"],
    [33033,"HCEP03730560","2024-09-06 09:15:00","10.911","3.39319","26.574","1.271","7.44","1.659","3.34","0.87","0.12","30.0082","4.72445","13.92","0","SATNPRO1962","22.506","0.31524","5"],
    [33034,"HCEP03730560","2024-09-06 09:30:00","10.911","3.3932","26.482","1.252","7.44","1.449","3.507","0.45","0.28","30.0083","4.72446","13.71","0","SATNPRO1962","22.61","0.31668","5"],
    [33035,"HCEP03730560","2024-09-06 09:45:00","10.9103","3.39355","26.37","1.25","7.44","1.4","3.353","0.38","0.11","30.0124","4.72504","13.68","0","SATNPRO1962","22.552","0.31592","5"],
    [33036,"HCEP03730560","2024-09-06 10:00:00","10.9107","3.39347","26.251","1.253","7.44","1.522","3.493","0.93","0.17","30.0113","4.72487","13.72","0","SATNPRO1962","22.683999999999997","0.31776","5"],
    [33037,"HCEP03730560","2024-09-06 10:15:00","10.91","3.39365","26.114","1.257","7.44","1.39","3.47","0.28","0.19","30.0136","4.72521","13.76","0","SATNPRO1962","22.724","0.31826","5"],
    [33038,"HCEP03730560","2024-09-06 10:30:00","10.911","3.3934","25.977","1.267","7.44","1.202","3.167","0.28","0.09","30.0106","4.72474","13.87","0","SATNPRO1962","22.724","0.3183","5"],
    [33039,"HCEP03730560","2024-09-06 10:45:00","10.9101","3.39356","25.829","1.273","7.44","1.157","3.245","0.11","0.2","30.0129","4.72508","13.93","0","SATNPRO1962","22.764","0.31884","5"],
    [33040,"HCEP03730560","2024-09-06 11:00:00","10.9092","3.394","25.714","1.274","7.44","1.113","3.217","0.19","0.1","30.018","4.72581","13.95","0","SATNPRO1962","22.96","0.32156","5"],
    [33041,"HCEP03730560","2024-09-06 11:15:00","10.9088","3.39401","25.597","1.277","7.44","1.225","3.404","0.23","0.15","30.0184","4.72588","13.98","0","SATNPRO1962","22.97","0.32172","5"],
    [33042,"HCEP03730560","2024-09-06 11:30:00","10.9069","3.39433","25.499","1.264","7.44","1.228","3.387","0.17","0.18","30.0232","4.72657","13.84","0","SATNPRO1962","23.01","0.32228","5"],
    [33043,"HCEP03730560","2024-09-06 11:45:00","10.9054","3.39441","25.38","1.25","7.44","1.495","3.448","0.25","0.2","30.0252","4.72688","13.68","0","SATNPRO1962","22.582","0.31628","5"],
    [33044,"HCEP03730560","2024-09-06 12:00:00","10.9051","3.39439","25.291","1.219","7.44","1.407","3.378","0.18","0.14","30.0253","4.72689","13.35","0","SATNPRO1962","22.598","0.31654","5"],
    [33045,"HCEP03730560","2024-09-06 12:15:00","10.9059","3.39432","25.281","1.226","7.44","1.684","3.308","0.41","0.18","30.024","4.72669","13.43","0","SATNPRO1962","22.874000000000002","0.3204","5"],
    [33046,"HCEP03730560","2024-09-06 12:30:00","10.9043","3.39435","25.288","1.229","7.44","1.449","3.319","0.35","0.24","30.0255","4.72693","13.45","0","SATNPRO1962","22.624000000000002","0.31686","5"],
    [33047,"HCEP03730560","2024-09-06 12:45:00","10.9041","3.39434","25.336","1.197","7.44","1.301","3.227","0.26","0.16","30.0256","4.72696","13.1","0","SATNPRO1962","22.598","0.31654","5"],
    [33048,"HCEP03730560","2024-09-06 13:00:00","10.904","3.39433","25.362","1.192","7.44","1.245","3.253","0.18","0.14","30.0256","4.72695","13.05","0","SATNPRO1962","22.844","0.32","5"],
    [33049,"HCEP03730560","2024-09-06 13:15:00","10.9048","3.39431","25.421","1.214","7.44","1.217","3.152","0.29","0.13","30.0247","4.72681","13.29","0","SATNPRO1962","22.419999999999998","0.31406","5"],
    [33050,"HCEP03730560","2024-09-06 13:30:00","10.9035","3.39427","25.496","1.207","7.44","1.165","3.323","0.16","0.32","30.0253","4.72693","13.22","0","SATNPRO1962","22.654","0.3173","5"],
    [33051,"HCEP03730560","2024-09-06 13:45:00","10.9034","3.39427","25.594","1.18","7.44","1.392","3.21","0.35","0.38","30.0254","4.72694","12.92","0","SATNPRO1962","22.608","0.31664","5"],
    [33052,"HCEP03730560","2024-09-06 14:00:00","10.9036","3.39434","25.685","1.164","7.44","1.31","3.3","0.25","0.11","30.0259","4.72702","12.74","0","SATNPRO1962","22.494","0.31506","5"],
    [33053,"HCEP03730560","2024-09-06 14:15:00","10.9042","3.39443","25.812","1.166","7.43","1.34","3.36","0.22","0.12","30.0262","4.72707","12.76","0","SATNPRO1962","22.518","0.3154","5"],
    [33054,"HCEP03730560","2024-09-06 14:30:00","10.9047","3.39449","25.912","1.162","7.43","1.302","3.419","0.36","0.12","30.0264","4.72709","12.72","0","SATNPRO1962","22.464","0.31466","5"],
    [33055,"HCEP03730560","2024-09-06 14:45:00","10.9053","3.39373","26.067","1.163","7.43","1.257","3.352","0.26","0.25","30.0184","4.72595","12.73","0","SATNPRO1962","22.496","0.31512","5"],
    [33056,"HCEP03730560","2024-09-06 15:00:00","10.9062","3.39459","26.196","1.167","7.43","1.187","3.6","0.19","0.16","30.0261","4.72704","12.78","0","SATNPRO1962","22.532","0.31564","5"],
    [33057,"HCEP03730560","2024-09-06 15:15:00","10.9063","3.39459","26.339","1.167","7.44","1.26","3.569","0.26","0.11","30.0259","4.72701","12.78","0","SATNPRO1962","22.52","0.31548","5"],
    [33058,"HCEP03730560","2024-09-06 15:30:00","10.9067","3.39183","26.492","1.169","7.44","1.301","3.847","0.25","0.29","29.9984","4.72311","12.79","0","SATNPRO1962","22.644","0.31716","5"],
    [33059,"HCEP03730560","2024-09-06 15:45:00","10.9084","3.39457","26.671","1.184","7.44","1.081","3.496","0.16","0.19","30.0238","4.72671","12.97","0","SATNPRO1962","22.82","0.31964","5"],
    [33060,"HCEP03730560","2024-09-06 16:00:00","10.911","3.39462","26.812","1.247","7.44","0.91","3.375","0.21","0.41","30.0222","4.72644","13.66","0","SATNPRO1962","23.56","0.33","5"],
    [33061,"HCEP03730560","2024-09-06 16:15:00","10.9104","3.39464","26.957","1.307","7.44","1.315","3.493","0.78","0.23","30.0228","4.72655","14.31","0","SATNPRO1962","23.48","0.32886","5"],
    [33062,"HCEP03730560","2024-09-06 16:30:00","10.9131","3.39466","27.102","1.298","7.45","1.136","3.606","0.61","0.2","30.0206","4.72621","14.22","0","SATNPRO1962","23.556","0.32996","5"],
    [33063,"HCEP03730560","2024-09-06 16:45:00","10.918","3.39478","27.234","1.445","7.46","1.045","3.184","1.43","0.16","30.0178","4.72574","15.82","0","SATNPRO1962","24.456","0.34256","5"],
    [33064,"HCEP03730560","2024-09-06 17:00:00","10.9138","3.3947","27.385","1.445","7.45","0.96","3.852","0.17","0.19","30.0203","4.72617","15.82","0","SATNPRO1962","23.5","0.32916","5"],
    [33065,"HCEP03730560","2024-09-06 17:15:00","10.916","3.39466","27.46","1.346","7.45","0.874","3.517","0.41","0.14","30.0181","4.72582","14.73","0","SATNPRO1962","23.594","0.33048","5"],
    [33066,"HCEP03730560","2024-09-06 17:30:00","10.9141","3.39438","27.554","1.338","7.45","1.119","3.57","0.24","0.26","30.0169","4.72569","14.65","0","SATNPRO1962","23.078","0.32324","5"],
    [33067,"HCEP03730560","2024-09-06 17:45:00","10.9138","3.38891","27.663","1.289","7.44","0.839","3.239","0.16","0.13","29.9635","4.71812","14.1","0","SATNPRO1962","22.9","0.32074","5"],
    [33068,"HCEP03730560","2024-09-06 18:00:00","10.9124","3.39369","27.667","1.242","7.44","0.891","3.471","0.22","0.2","30.0115","4.72496","13.59","0","SATNPRO1962","22.47","0.31472","5"],
    [33069,"HCEP03730560","2024-09-06 18:15:00","10.9124","3.39342","27.735","1.199","7.44","0.901","3.566","0.25","0.46","30.0088","4.72458","13.13","0","SATNPRO1962","22.448","0.31438","5"],
    [33070,"HCEP03730560","2024-09-06 18:30:00","10.9136","3.39331","27.725","1.207","7.44","0.658","3.243","0.11","0.14","30.0068","4.72427","13.21","0","SATNPRO1962","22.740000000000002","0.31852","5"],
    [33071,"HCEP03730560","2024-09-06 18:45:00","10.9162","3.39323","27.699","1.258","7.44","0.688","4.177","0.12","4.72","30.0039","4.72382","13.77","0","SATNPRO1962","23.256","0.32574","5"],
    [33072,"HCEP03730560","2024-09-06 19:00:00","10.9152","3.39316","27.681","1.298","7.44","0.778","3.054","0.21","0.11","30.0041","4.72386","14.21","0","SATNPRO1962","23","0.32222","5"],
    [33073,"HCEP03730560","2024-09-06 19:15:00","10.9122","3.39316","27.625","1.235","7.44","1.063","5.258","0.37","2.12","30.0065","4.72424","13.52","0","SATNPRO1962","22.008","0.30824","5"],
    [33074,"HCEP03730560","2024-09-06 19:30:00","10.9117","3.39337","27.567","1.162","7.43","0.961","3.694","0.23","0.11","30.009","4.7246","12.72","0","SATNPRO1962","21.846","0.30602","5"],
    [33075,"HCEP03730560","2024-09-06 19:45:00","10.9112","3.39359","27.472","1.123","7.43","1.117","3.85","0.46","0.2","30.0115","4.72497","12.3","0","SATNPRO1962","21.824","0.30568","5"],
    [33076,"HCEP03730560","2024-09-06 20:00:00","10.9113","3.39356","27.344","1.107","7.43","0.823","3.74","0.24","0.11","30.0113","4.72492","12.12","0","SATNPRO1962","22.138","0.31008","5"],
    [33077,"HCEP03730560","2024-09-06 20:15:00","10.912","3.39324","27.232","1.118","7.43","0.815","3.327","0.17","0.12","30.0076","4.72439","12.24","0","SATNPRO1962","21.974","0.30776","5"],
    [33078,"HCEP03730560","2024-09-06 20:30:00","10.9113","3.39339","27.147","1.122","7.43","1.281","3.379","1","0.14","30.0097","4.72468","12.28","0","SATNPRO1962","22.056","0.30894","5"],
    [33079,"HCEP03730560","2024-09-06 20:45:00","10.9116","3.39297","27.041","1.115","7.43","0.772","3.302","0.19","0.09","30.0054","4.72406","12.21","0","SATNPRO1962","21.986","0.30794","5"],
    [33080,"HCEP03730560","2024-09-06 21:00:00","10.9115","3.39297","26.9","1.119","7.43","0.686","3.343","0.15","0.08","30.0055","4.72408","12.25","0","SATNPRO1962","21.962","0.30764","5"],
    [33081,"HCEP03730560","2024-09-06 21:15:00","10.912","3.39288","26.745","1.12","7.43","0.689","3.267","0.12","0.12","30.0043","4.72389","12.26","0","SATNPRO1962","21.974","0.3078","5"],
    [33082,"HCEP03730560","2024-09-06 21:30:00","10.912","3.39294","26.622","1.124","7.43","0.757","3.51","0.37","0.11","30.0049","4.72397","12.3","0","SATNPRO1962","22.233999999999998","0.31138","5"],
    [33083,"HCEP03730560","2024-09-06 21:45:00","10.9129","3.39281","26.45","1.133","7.43","0.886","3.42","0.55","0.19","30.003","4.72367","12.4","0","SATNPRO1962","22.176000000000002","0.31062","5"],
    [33084,"HCEP03730560","2024-09-06 22:00:00","10.9135","3.39281","26.291","1.149","7.43","0.642","3.447","0.2","0.17","30.0026","4.72359","12.58","0","SATNPRO1962","22.788","0.31916","5"],
    [33085,"HCEP03730560","2024-09-06 22:15:00","10.9138","3.39286","26.125","1.164","7.43","0.56","3.153","0.12","0.1","30.0028","4.72361","12.75","0","SATNPRO1962","22.404","0.31382","5"],
    [33086,"HCEP03730560","2024-09-06 22:30:00","10.9124","3.39302","25.951","1.172","7.43","0.7","3.317","0.09","0.13","30.0056","4.72402","12.83","0","SATNPRO1962","22.32","0.31258","5"],
    [33087,"HCEP03730560","2024-09-06 22:45:00","10.9122","3.39311","25.776","1.157","7.43","1.014","6.125","0.48","7.37","30.0067","4.72417","12.66","0","SATNPRO1962","22.328","0.31272","5"],
    [33088,"HCEP03730560","2024-09-06 23:00:00","10.912","3.39323","25.618","1.157","7.43","0.691","3.196","0.18","0.13","30.0081","4.72437","12.67","0","SATNPRO1962","22.374","0.3134","5"],
    [33089,"HCEP03730560","2024-09-06 23:15:00","10.911","3.39354","25.448","1.152","7.43","0.863","3.383","0.21","0.22","30.0121","4.72493","12.61","0","SATNPRO1962","22.334","0.31282","5"],
    [33090,"HCEP03730560","2024-09-06 23:30:00","10.9118","3.39376","25.305","1.17","7.43","0.734","3.332","0.18","0.11","30.0136","4.72513","12.81","0","SATNPRO1962","22.48","0.31486","5"],
    [33091,"HCEP03730560","2024-09-06 23:45:00","10.9119","3.3938","25.178","1.181","7.43","0.756","3.187","0.18","0.09","30.014","4.72518","12.93","0","SATNPRO1962","22.718","0.3182","5"],
    [33092,"HCEP03730560","2024-09-07 00:00:00","10.9101","3.39365","25.076","1.192","7.43","0.846","3.501","0.29","0.3","30.014","4.7252","13.05","0","SATNPRO1962","22.336","0.31286","5"],
    [33093,"HCEP03730560","2024-09-07 00:15:00","10.9077","3.39349","24.982","1.127","7.43","0.795","3.338","0.12","0.13","30.0145","4.7253","12.34","0","SATNPRO1962","21.983999999999998","0.30796","5"],
    [33094,"HCEP03730560","2024-09-07 00:30:00","10.9095","3.39338","24.945","1.09","7.43","0.797","3.377","0.16","0.16","30.0119","4.7249","11.93","0","SATNPRO1962","22.264","0.31182","5"],
    [33095,"HCEP03730560","2024-09-07 00:45:00","10.9075","3.39342","24.919","1.098","7.43","0.769","3.091","0.14","0.11","30.0139","4.72521","12.02","0","SATNPRO1962","22.364","0.31326","5"],
    [33096,"HCEP03730560","2024-09-07 01:00:00","10.9109","3.39355","24.972","1.142","7.43","0.75","3.167","0.14","0.12","30.0125","4.72496","12.5","0","SATNPRO1962","22.89","0.32062","5"],
    [33097,"HCEP03730560","2024-09-07 01:15:00","10.9098","3.39353","25.001","1.168","7.43","0.823","3.126","0.32","0.12","30.0132","4.72508","12.79","0","SATNPRO1962","22.654","0.3173","5"],
    [33098,"HCEP03730560","2024-09-07 01:30:00","10.9095","3.39345","25.026","1.143","7.43","0.796","3.336","0.15","0.39","30.0126","4.72501","12.51","0","SATNPRO1962","22.11","0.30968","5"],
    [33099,"HCEP03730560","2024-09-07 01:45:00","10.9095","3.39343","25.08","1.117","7.43","0.963","2.998","0.17","0.09","30.0125","4.72499","12.23","0","SATNPRO1962","22.516","0.3154","5"],
    [33100,"HCEP03730560","2024-09-07 02:00:00","10.9092","3.39359","25.153","1.105","7.43","0.649","3.243","0.16","0.19","30.0141","4.72523","12.09","0","SATNPRO1962","22.445999999999998","0.31438","5"],
    [33101,"HCEP03730560","2024-09-07 02:15:00","10.9096","3.3936","25.231","1.102","7.43","0.768","2.999","0.2","0.03","30.014","4.72521","12.06","0","SATNPRO1962","22.34","0.31292","5"],
    [33102,"HCEP03730560","2024-09-07 02:30:00","10.9096","3.39374","25.322","1.107","7.43","0.872","3.239","0.38","0.08","30.0153","4.7254","12.12","0","SATNPRO1962","22.332","0.3128","5"],
    [33103,"HCEP03730560","2024-09-07 02:45:00","10.9098","3.39394","25.421","1.114","7.43","0.831","3.275","0.34","0.14","30.017","4.72564","12.2","0","SATNPRO1962","22.346","0.31304","5"],
    [33104,"HCEP03730560","2024-09-07 03:00:00","10.9109","3.39419","25.528","1.13","7.43","0.789","3.33","0.19","0.09","30.0186","4.72586","12.37","0","SATNPRO1962","22.422","0.31412","5"],
    [33105,"HCEP03730560","2024-09-07 03:15:00","10.911","3.39434","25.647","1.161","7.43","0.835","3.193","0.27","0.07","30.0198","4.72605","12.71","0","SATNPRO1962","22.426","0.3141","5"],
    [33106,"HCEP03730560","2024-09-07 03:30:00","10.9117","3.39447","25.765","1.152","7.43","0.552","3.293","0.08","0.13","30.0206","4.72614","12.61","0","SATNPRO1962","22.432","0.31414","5"],
    [33107,"HCEP03730560","2024-09-07 03:45:00","10.9125","3.39478","25.886","1.152","7.43","0.648","3.535","0.17","0.16","30.0228","4.72646","12.61","0","SATNPRO1962","22.336","0.31288","5"],
    [33108,"HCEP03730560","2024-09-07 04:00:00","10.9126","3.39479","26.027","1.165","7.43","0.912","3.969","0.22","0.3","30.0228","4.72646","12.76","0","SATNPRO1962","22.674","0.31764","5"],
    [33109,"HCEP03730560","2024-09-07 04:15:00","10.9139","3.39488","26.16","1.182","7.43","1.03","3.863","0.65","0.25","30.0226","4.72642","12.95","0","SATNPRO1962","22.666","0.31742","5"],
    [33110,"HCEP03730560","2024-09-07 04:30:00","10.9139","3.39496","26.299","1.204","7.43","0.778","3.744","0.23","0.14","30.0233","4.72654","13.18","0","SATNPRO1962","22.64","0.31712","5"],
    [33111,"HCEP03730560","2024-09-07 04:45:00","10.9151","3.39509","26.454","1.208","7.44","0.751","3.889","0.23","0.27","30.0235","4.72655","13.23","0","SATNPRO1962","22.762","0.31884","5"],
    [33112,"HCEP03730560","2024-09-07 05:00:00","10.9159","3.39489","26.605","1.265","7.44","0.668","3.861","0.2","0.35","30.0208","4.72616","13.85","0","SATNPRO1962","23.044","0.32274","5"],
    [33113,"HCEP03730560","2024-09-07 05:15:00","10.9159","3.39475","26.708","1.309","7.44","0.662","3.632","0.25","0.25","30.0194","4.72596","14.34","0","SATNPRO1962","23.098","0.3235","5"],
    [33114,"HCEP03730560","2024-09-07 05:30:00","10.915","3.39466","26.809","1.328","7.45","0.543","3.304","0.16","0.13","30.0192","4.72595","14.54","0","SATNPRO1962","23.508","0.32932","5"],
    [33115,"HCEP03730560","2024-09-07 05:45:00","10.914","3.39454","26.907","1.3","7.44","0.717","4.184","0.33","0.86","30.0188","4.72593","14.24","0","SATNPRO1962","22.766000000000002","0.31888","5"],
    [33116,"HCEP03730560","2024-09-07 06:00:00","10.9137","3.39439","26.965","1.249","7.44","1.163","26.011","0.66","17.84","30.0176","4.72576","13.68","0","SATNPRO1962","22.616","0.31674","5"],
    [33117,"HCEP03730560","2024-09-07 06:15:00","10.9129","3.39424","27.116","1.207","7.44","0.593","3.485","0.18","0.19","30.0168","4.72566","13.21","0","SATNPRO1962","22.438","0.3143","5"],
    [33118,"HCEP03730560","2024-09-07 06:30:00","10.9129","3.39422","27.147","1.176","7.43","0.669","4.265","0.13","0.26","30.0166","4.72564","12.87","0","SATNPRO1962","22.156","0.31032","5"],
    [33119,"HCEP03730560","2024-09-07 06:45:00","10.9118","3.39399","27.181","1.134","7.43","1.127","4.763","0.6","1.09","30.0151","4.72545","12.42","0","SATNPRO1962","21.96","0.30756","5"],
    [33120,"HCEP03730560","2024-09-07 07:00:00","10.9107","3.3937","27.212","1.065","7.42","1.094","4.648","0.64","0.38","30.0132","4.72519","11.66","0","SATNPRO1962","21.44","0.3003","5"],
    [33121,"HCEP03730560","2024-09-07 07:15:00","10.91","3.3934","27.177","1.002","7.42","0.77","3.875","0.4","0.31","30.0108","4.72487","10.97","0","SATNPRO1962","21.45","0.30042","5"],
    [33122,"HCEP03730560","2024-09-07 07:30:00","10.9106","3.39319","27.165","0.991","7.42","0.627","3.617","0.18","0.14","30.0083","4.7245","10.85","0","SATNPRO1962","21.564","0.30204","5"],
    [33123,"HCEP03730560","2024-09-07 07:45:00","10.9107","3.39332","27.225","0.994","7.42","0.718","3.701","0.14","0.15","30.0094","4.72466","10.88","0","SATNPRO1962","21.742","0.30456","5"],
    [33124,"HCEP03730560","2024-09-07 08:00:00","10.9123","3.39297","27.213","1.014","7.42","0.775","3.403","0.46","0.14","30.0047","4.72397","11.11","0","SATNPRO1962","21.944","0.30734","5"],
    [33125,"HCEP03730560","2024-09-07 08:15:00","10.9135","3.39268","27.193","1.05","7.42","0.552","3.337","0.09","0.09","30.0009","4.7234","11.49","0","SATNPRO1962","21.946","0.30736","5"],
    [33126,"HCEP03730560","2024-09-07 08:30:00","10.9132","3.39262","27.105","1.047","7.42","0.794","3.636","0.3","0.31","30.0006","4.72336","11.47","0","SATNPRO1962","21.912","0.30688","5"],
    [33127,"HCEP03730560","2024-09-07 08:45:00","10.9149","3.39261","27.06","1.06","7.42","0.778","3.564","0.26","0.26","29.9992","4.72313","11.61","0","SATNPRO1962","22.066","0.30904","5"],
    [33128,"HCEP03730560","2024-09-07 09:00:00","10.9149","3.39239","27.009","1.064","7.42","0.65","3.481","0.12","0.13","29.997","4.72282","11.64","0","SATNPRO1962","21.864","0.30624","5"],
    [33129,"HCEP03730560","2024-09-07 09:15:00","10.9164","3.39194","26.92","1.074","7.42","0.764","3.429","0.21","0.14","29.9913","4.72198","11.76","0","SATNPRO1962","22.096","0.30946","5"],
    [33130,"HCEP03730560","2024-09-07 09:30:00","10.9179","3.39189","26.804","1.085","7.42","0.606","3.317","0.15","0.13","29.9897","4.72173","11.88","0","SATNPRO1962","22.112000000000002","0.30974","5"],
    [33131,"HCEP03730560","2024-09-07 09:45:00","10.915","3.39238","26.714","1.079","7.42","1.043","5.822","0.2","2.57","29.997","4.7228","11.81","0","SATNPRO1962","21.884","0.30654","5"],
    [33132,"HCEP03730560","2024-09-07 10:00:00","10.9105","3.39154","26.629","1.02","7.42","1.621","22.733","0.68","18.79","29.9924","4.72221","11.16","0","SATNPRO1962","21.466","0.30066","5"],
    [33133,"HCEP03730560","2024-09-07 10:15:00","10.9103","3.39368","26.514","0.991","7.42","1.787","41.579","0.54","23.34","30.0137","4.72523","10.85","0","SATNPRO1962","21.694","0.30382","5"],
    [33134,"HCEP03730560","2024-09-07 10:30:00","10.9109","3.39375","26.42","1.002","7.42","1.442","6.944","0.36","2.36","30.0139","4.72524","10.97","0","SATNPRO1962","21.84","0.3059","5"],
    [33135,"HCEP03730560","2024-09-07 10:45:00","10.9111","3.39391","26.322","1.033","7.42","0.613","3.401","0.12","0.1","30.0153","4.72543","11.31","0","SATNPRO1962","22.096","0.3095","5"],
    [33136,"HCEP03730560","2024-09-07 11:00:00","10.9103","3.39403","26.246","1.046","7.42","0.865","3.492","0.33","0.14","30.0171","4.7257","11.45","0","SATNPRO1962","22.080000000000002","0.30928","5"],
    [33137,"HCEP03730560","2024-09-07 11:15:00","10.9101","3.39397","26.177","1.037","7.42","0.724","3.355","0.2","0.11","30.0168","4.72565","11.35","0","SATNPRO1962","22.054","0.30892","5"],
    [33138,"HCEP03730560","2024-09-07 11:30:00","10.9097","3.39397","26.082","1.036","7.42","0.763","3.404","0.33","0.15","30.0171","4.7257","11.34","0","SATNPRO1962","21.968","0.30768","5"],
    [33139,"HCEP03730560","2024-09-07 11:45:00","10.9088","3.39394","25.987","1.023","7.42","0.725","3.576","0.1","0.2","30.0177","4.72579","11.2","0","SATNPRO1962","21.71","0.30406","5"],
    [33140,"HCEP03730560","2024-09-07 12:00:00","10.9077","3.39393","25.87","0.996","7.42","0.829","3.515","0.18","0.29","30.0184","4.72591","10.91","0","SATNPRO1962","21.766000000000002","0.30486","5"],
    [33141,"HCEP03730560","2024-09-07 12:15:00","10.9077","3.39377","25.792","0.977","7.42","0.868","3.359","0.41","0.17","30.0169","4.72569","10.69","0","SATNPRO1962","21.808","0.30544","5"],
    [33142,"HCEP03730560","2024-09-07 12:30:00","10.9083","3.39311","25.696","0.98","7.42","0.922","5.043","0.43","3.08","30.01","4.72469","10.73","0","SATNPRO1962","21.766","0.30484","5"],
    [33143,"HCEP03730560","2024-09-07 12:45:00","10.9086","3.39331","25.654","0.998","7.42","0.897","3.766","0.3","0.25","30.0117","4.72493","10.92","0","SATNPRO1962","21.872","0.30632","5"],
    [33144,"HCEP03730560","2024-09-07 13:00:00","10.9085","3.39397","25.625","1.014","7.42","0.959","5.496","0.4","4.81","30.0182","4.72586","11.1","0","SATNPRO1962","22.032","0.3086","5"],
    [33145,"HCEP03730560","2024-09-07 13:15:00","10.9094","3.39425","25.617","1.034","7.42","1.023","3.611","0.31","0.36","30.0203","4.72614","11.32","0","SATNPRO1962","22.208","0.31106","5"],
    [33146,"HCEP03730560","2024-09-07 13:30:00","10.9091","3.3943","25.623","1.05","7.42","0.949","3.607","0.23","0.2","30.021","4.72623","11.49","0","SATNPRO1962","22.218","0.3112","5"],
    [33147,"HCEP03730560","2024-09-07 13:45:00","10.9097","3.39445","25.662","1.069","7.42","0.86","3.427","0.19","0.39","30.022","4.72638","11.71","0","SATNPRO1962","22.326","0.31272","5"],
    [33148,"HCEP03730560","2024-09-07 14:00:00","10.9105","3.39464","25.744","1.099","7.42","0.839","3.268","0.18","0.13","30.0231","4.72653","12.03","0","SATNPRO1962","22.524","0.31548","5"],
    [33149,"HCEP03730560","2024-09-07 14:15:00","10.9114","3.39472","25.871","1.125","7.43","0.726","3.2","0.12","0.19","30.0231","4.72652","12.31","0","SATNPRO1962","22.64","0.31712","5"],
    [33150,"HCEP03730560","2024-09-07 14:30:00","10.9111","3.39472","25.966","1.138","7.43","0.735","3.266","0.19","0.21","30.0233","4.72656","12.46","0","SATNPRO1962","22.748","0.31862","5"],
    [33151,"HCEP03730560","2024-09-07 14:45:00","10.9117","3.39478","26.036","1.141","7.43","0.762","3.36","0.23","0.34","30.0233","4.72655","12.49","0","SATNPRO1962","23.048","0.3228","5"],
    [33152,"HCEP03730560","2024-09-07 15:00:00","10.9109","3.3947","26.112","1.128","7.43","0.785","3.319","0.25","0.15","30.0233","4.72656","12.35","0","SATNPRO1962","22.418","0.314","5"],
    [33153,"HCEP03730560","2024-09-07 15:15:00","10.9109","3.39472","26.249","1.113","7.43","0.712","3.307","0.12","0.11","30.0235","4.7266","12.19","0","SATNPRO1962","22.47","0.31472","5"],
    [33154,"HCEP03730560","2024-09-07 15:30:00","10.9105","3.39473","26.343","1.101","7.43","0.691","3.362","0.16","0.1","30.0238","4.72666","12.05","0","SATNPRO1962","22.376","0.31342","5"],
    [33155,"HCEP03730560","2024-09-07 15:45:00","10.9109","3.39479","26.488","1.084","7.43","0.7","3.461","0.14","0.11","30.024","4.72669","11.87","0","SATNPRO1962","22.278","0.31204","5"],
    [33156,"HCEP03730560","2024-09-07 16:00:00","10.9109","3.39483","26.643","1.084","7.43","0.689","3.401","0.14","0.13","30.0244","4.72675","11.86","0","SATNPRO1962","22.316","0.31256","5"],
    [33157,"HCEP03730560","2024-09-07 16:15:00","10.9105","3.39482","26.766","1.067","7.42","0.634","3.684","0.14","0.94","30.0245","4.72678","11.69","0","SATNPRO1962","22.368","0.31328","5"],
    [33158,"HCEP03730560","2024-09-07 16:30:00","10.9101","3.39478","26.886","1.053","7.42","0.706","3.551","0.1","0.06","30.0245","4.72678","11.52","0","SATNPRO1962","22.052","0.30888","5"],
    [33159,"HCEP03730560","2024-09-07 16:45:00","10.9105","3.39489","27.027","1.024","7.42","0.793","3.545","0.19","0.34","30.0251","4.72688","11.21","0","SATNPRO1962","22.298","0.31232","5"],
    [33160,"HCEP03730560","2024-09-07 17:00:00","10.9102","3.39483","27.147","1.029","7.42","0.843","3.665","0.43","0.21","30.0246","4.72682","11.27","0","SATNPRO1962","21.990000000000002","0.30802","5"],
    [33161,"HCEP03730560","2024-09-07 17:15:00","10.9107","3.39485","27.262","1.012","7.42","0.742","3.773","0.16","0.14","30.0244","4.72679","11.08","0","SATNPRO1962","21.756","0.30478","5"],
    [33162,"HCEP03730560","2024-09-07 17:30:00","10.9109","3.39488","27.368","1.008","7.42","0.788","3.907","0.21","0.17","30.0245","4.72681","11.03","0","SATNPRO1962","21.872","0.30638","5"],
    [33163,"HCEP03730560","2024-09-07 17:45:00","10.9112","3.39477","27.457","1.008","7.42","0.837","4.82","0.3","1.67","30.0232","4.72662","11.04","0","SATNPRO1962","21.61","0.30268","5"],
    [33164,"HCEP03730560","2024-09-07 18:00:00","10.9112","3.3947","27.554","0.999","7.42","0.71","4.15","0.19","0.19","30.0224","4.72651","10.94","0","SATNPRO1962","21.766000000000002","0.30488","5"],
    [33165,"HCEP03730560","2024-09-07 18:15:00","10.9112","3.39442","27.615","0.986","7.42","0.768","5.841","0.21","6.67","30.0196","4.72612","10.79","0","SATNPRO1962","21.57","0.30212","5"],
    [33166,"HCEP03730560","2024-09-07 18:30:00","10.9108","3.39447","27.652","0.976","7.42","0.798","13.746","0.25","11.52","30.0204","4.72625","10.68","0","SATNPRO1962","21.624000000000002","0.3029","5"],
    [33167,"HCEP03730560","2024-09-07 18:45:00","10.9107","3.39409","27.675","0.966","7.41","0.713","6.828","0.35","4.94","30.0168","4.72574","10.58","0","SATNPRO1962","21.604","0.30258","5"],
    [33168,"HCEP03730560","2024-09-07 19:00:00","10.9105","3.3943","27.696","0.96","7.41","0.828","11.036","0.42","6.44","30.019","4.72606","10.51","0","SATNPRO1962","21.502","0.30116","5"],
    [33169,"HCEP03730560","2024-09-07 19:15:00","10.9103","3.39421","27.681","0.951","7.41","0.495","3.856","0.1","0.15","30.0183","4.72595","10.41","0","SATNPRO1962","21.302","0.29836","5"],
    [33170,"HCEP03730560","2024-09-07 19:30:00","10.9099","3.39417","27.646","0.944","7.41","0.635","4.835","0.11","1.67","30.0183","4.72595","10.34","0","SATNPRO1962","21.286","0.29814","5"],
    [33171,"HCEP03730560","2024-09-07 19:45:00","10.9097","3.39419","27.598","0.94","7.41","0.643","19.316","0.18","17.38","30.0187","4.72602","10.29","0","SATNPRO1962","21.27","0.29792","5"],
    [33172,"HCEP03730560","2024-09-07 20:00:00","10.91","3.39427","27.55","0.947","7.41","0.678","6.702","0.19","2.57","30.0192","4.72608","10.37","0","SATNPRO1962","21.36","0.2992","5"],
    [33173,"HCEP03730560","2024-09-07 20:15:00","10.9105","3.39433","27.474","0.954","7.41","0.573","3.617","0.17","0.09","30.0195","4.72611","10.44","0","SATNPRO1962","21.586","0.30236","5"],
    [33174,"HCEP03730560","2024-09-07 20:30:00","10.9105","3.39434","27.39","0.966","7.41","1.311","9.542","0.37","3.69","30.0195","4.72611","10.58","0","SATNPRO1962","21.538","0.3017","5"],
    [33175,"HCEP03730560","2024-09-07 20:45:00","10.9113","3.39447","27.29","0.993","7.42","0.887","8.75","0.32","2.77","30.0201","4.72618","10.88","0","SATNPRO1962","21.784","0.30512","5"],
    [33176,"HCEP03730560","2024-09-07 21:00:00","10.9134","3.39465","27.153","1.045","7.42","0.418","3.428","0.08","0.11","30.0203","4.72616","11.44","0","SATNPRO1962","22.364","0.31326","5"],
    [33177,"HCEP03730560","2024-09-07 21:15:00","10.9153","3.39482","27.004","1.125","7.43","0.429","3.473","0.12","0.31","30.0205","4.72615","12.32","0","SATNPRO1962","23.142","0.32414","5"],
    [33178,"HCEP03730560","2024-09-07 21:30:00","10.9124","3.39459","26.836","1.135","7.43","0.387","3.3","0.06","0.18","30.0207","4.72621","12.43","0","SATNPRO1962","22.898","0.3207","5"],
    [33179,"HCEP03730560","2024-09-07 21:45:00","10.9156","3.39488","26.583","1.145","7.43","0.549","4.586","0.09","1.65","30.021","4.72619","12.54","0","SATNPRO1962","23.33","0.32678","5"],
    [33180,"HCEP03730560","2024-09-07 22:00:00","10.9141","3.39472","26.437","1.166","7.43","0.601","5.015","0.28","2.91","30.0207","4.72616","12.76","0","SATNPRO1962","22.778000000000002","0.31904","5"],
    [33181,"HCEP03730560","2024-09-07 22:15:00","10.9146","3.39481","26.301","1.145","7.43","0.482","3.168","0.14","0.11","30.0212","4.72622","12.54","0","SATNPRO1962","22.858","0.32012","5"],
    [33182,"HCEP03730560","2024-09-07 22:30:00","10.9159","3.39491","26.122","1.166","7.43","0.496","3.636","0.25","1.64","30.0213","4.7262","12.76","0","SATNPRO1962","22.854","0.32018","5"],
    [33183,"HCEP03730560","2024-09-07 22:45:00","10.916","3.39506","25.951","1.172","7.43","0.493","6.024","0.16","2.02","30.0227","4.72639","12.84","0","SATNPRO1962","22.804000000000002","0.31944","5"],
    [33184,"HCEP03730560","2024-09-07 23:00:00","10.9113","3.39448","25.796","1.116","7.43","0.478","3.681","0.13","0.2","30.0209","4.72619","12.22","0","SATNPRO1962","22.14","0.31012","5"],
    [33185,"HCEP03730560","2024-09-07 23:15:00","10.9156","3.39505","25.609","1.093","7.43","0.557","3.219","0.38","0.22","30.023","4.72642","11.97","0","SATNPRO1962","23.268","0.3259","5"],
    [33186,"HCEP03730560","2024-09-07 23:30:00","10.914","3.39482","25.438","1.122","7.43","0.484","3.981","0.13","0.82","30.0222","4.72632","12.29","0","SATNPRO1962","22.278000000000002","0.31204","5"],
    [33187,"HCEP03730560","2024-09-07 23:45:00","10.9159","3.39514","25.276","1.114","7.43","0.465","3.367","0.24","0.16","30.0238","4.72651","12.2","0","SATNPRO1962","22.724","0.31828","5"],
    [33188,"HCEP03730560","2024-09-08 00:00:00","10.9178","3.39542","25.118","1.186","7.43","0.369","4.335","0.07","1.48","30.0251","4.72665","12.99","0","SATNPRO1962","23.36","0.3272","5"],
    [33189,"HCEP03730560","2024-09-08 00:15:00","10.9163","3.39524","24.99","1.193","7.43","0.436","3.294","0.18","0.17","30.0246","4.7266","13.07","0","SATNPRO1962","22.742","0.31852","5"],
    [33190,"HCEP03730560","2024-09-08 00:30:00","10.9173","3.39536","24.876","1.182","7.43","0.33","3.336","0.07","0.11","30.025","4.72664","12.95","0","SATNPRO1962","23.046","0.3228","5"],
    [33191,"HCEP03730560","2024-09-08 00:45:00","10.9153","3.39522","24.8","1.175","7.43","0.474","3.485","0.17","0.25","30.0253","4.7267","12.86","0","SATNPRO1962","22.708","0.31806","5"],
    [33192,"HCEP03730560","2024-09-08 01:00:00","10.9156","3.39533","24.753","1.144","7.43","0.487","4.056","0.14","0.69","30.0262","4.72683","12.53","0","SATNPRO1962","22.642","0.31716","5"],
    [33193,"HCEP03730560","2024-09-08 01:15:00","10.9139","3.39509","24.743","1.125","7.43","0.387","3.694","0.05","1.15","30.0252","4.72671","12.32","0","SATNPRO1962","22.358","0.31318","5"],
    [33194,"HCEP03730560","2024-09-08 01:30:00","10.9138","3.39505","24.734","1.096","7.43","0.337","4.345","0.07","1.97","30.0248","4.72666","12","0","SATNPRO1962","22.514","0.3153","5"],
    [33195,"HCEP03730560","2024-09-08 01:45:00","10.9139","3.39497","24.77","1.09","7.43","0.412","6.511","0.17","9.52","30.024","4.72654","11.93","0","SATNPRO1962","22.64","0.31708","5"],
    [33196,"HCEP03730560","2024-09-08 02:00:00","10.9135","3.39488","24.807","1.089","7.43","0.441","7.802","0.21","8.48","30.0234","4.72646","11.92","0","SATNPRO1962","22.56","0.31598","5"],
    [33197,"HCEP03730560","2024-09-08 02:15:00","10.9186","3.39516","24.846","1.146","7.43","0.499","4.901","0.37","2.71","30.022","4.72619","12.54","0","SATNPRO1962","24.562","0.34404","5"],
    [33198,"HCEP03730560","2024-09-08 02:30:00","10.9221","3.39482","24.904","1.247","7.44","0.584","3.056","0.31","0.36","30.0158","4.72525","13.65","0","SATNPRO1962","24.182","0.33874","5"],
    [33199,"HCEP03730560","2024-09-08 02:45:00","10.919","3.39487","24.989","1.275","7.44","0.893","4.205","0.36","0.8","30.0188","4.72574","13.96","0","SATNPRO1962","23.79","0.33326","5"],
    [33200,"HCEP03730560","2024-09-08 03:00:00","10.9124","3.39461","25.08","1.179","7.43","0.51","3.672","0.33","0.43","30.0215","4.72623","12.91","0","SATNPRO1962","22.608","0.31664","5"],
    [33201,"HCEP03730560","2024-09-08 03:15:00","10.9115","3.39455","25.175","1.091","7.43","0.403","3.791","0.06","0.21","30.0217","4.72627","11.95","0","SATNPRO1962","22.602","0.3166","5"],
    [33202,"HCEP03730560","2024-09-08 03:30:00","10.9109","3.39451","25.284","1.036","7.42","0.494","3.851","0.22","0.14","30.0218","4.7263","11.34","0","SATNPRO1962","22.116","0.30978","5"],
    [33203,"HCEP03730560","2024-09-08 03:45:00","10.9113","3.3942","25.409","1.002","7.42","0.719","3.942","1.53","0.18","30.0183","4.72581","10.97","0","SATNPRO1962","22.11","0.30966","5"],
    [33204,"HCEP03730560","2024-09-08 04:00:00","10.9115","3.39431","25.536","1.029","7.42","0.392","3.315","0.1","0.17","30.0191","4.72593","11.27","0","SATNPRO1962","22.002","0.30814","5"],
    [33205,"HCEP03730560","2024-09-08 04:15:00","10.9087","3.39406","25.666","0.994","7.42","0.405","3.653","0.07","0.17","30.019","4.72596","10.89","0","SATNPRO1962","21.44","0.30034","5"],
    [33206,"HCEP03730560","2024-09-08 04:30:00","10.9074","3.3936","25.79","0.927","7.41","0.367","3.714","0.09","0.14","30.0155","4.72549","10.15","0","SATNPRO1962","21.073999999999998","0.29518","5"],
    [33207,"HCEP03730560","2024-09-08 04:45:00","10.9075","3.39372","25.914","0.863","7.41","0.413","3.78","0.09","0.15","30.0165","4.72564","9.45","0","SATNPRO1962","20.798","0.2913","5"],
    [33208,"HCEP03730560","2024-09-08 05:00:00","10.9088","3.39376","26.05","0.858","7.41","0.407","3.769","0.13","0.13","30.0159","4.72554","9.4","0","SATNPRO1962","20.654","0.28928","5"],
    [33209,"HCEP03730560","2024-09-08 05:15:00","10.9106","3.39397","26.198","0.883","7.41","0.564","3.687","0.43","0.17","30.0164","4.72559","9.67","0","SATNPRO1962","21.582","0.3023","5"],
    [33210,"HCEP03730560","2024-09-08 05:30:00","10.9143","3.39441","26.335","0.909","7.41","0.438","4.035","0.17","0.34","30.0175","4.72571","9.96","0","SATNPRO1962","21.444","0.30032","5"],
    [33211,"HCEP03730560","2024-09-08 05:45:00","10.9167","3.39453","26.446","0.979","7.41","1.007","5.212","0.81","1.68","30.0167","4.72556","10.72","0","SATNPRO1962","22.338","0.31288","5"],
    [33212,"HCEP03730560","2024-09-08 06:00:00","10.9159","3.39419","26.629","0.982","7.41","0.462","4.449","0.19","0.47","30.014","4.72519","10.75","0","SATNPRO1962","21.31","0.29848","5"],
    [33213,"HCEP03730560","2024-09-08 06:15:00","10.9161","3.39405","26.74","0.948","7.41","0.757","4.901","0.6","1.04","30.0123","4.72496","10.38","0","SATNPRO1962","20.71","0.29006","5"],
    [33214,"HCEP03730560","2024-09-08 06:30:00","10.9164","3.39421","26.883","0.927","7.41","0.424","4.484","0.09","0.39","30.0136","4.72515","10.15","0","SATNPRO1962","20.878","0.29242","5"],
    [33215,"HCEP03730560","2024-09-08 06:45:00","10.9147","3.39416","27.052","0.923","7.41","0.415","3.626","0.13","0.11","30.0145","4.72531","10.11","0","SATNPRO1962","20.976","0.29382","5"],
    [33216,"HCEP03730560","2024-09-08 07:00:00","10.9159","3.39439","27.086","0.93","7.41","0.394","3.61","0.19","0.11","30.0158","4.72548","10.18","0","SATNPRO1962","21.168","0.29648","5"],
    [33217,"HCEP03730560","2024-09-08 07:15:00","10.9152","3.39435","27.125","0.951","7.41","0.674","4.039","0.52","0.5","30.016","4.72551","10.41","0","SATNPRO1962","21.276","0.29798","5"],
    [33218,"HCEP03730560","2024-09-08 07:30:00","10.9147","3.39431","27.164","0.954","7.41","0.439","3.827","0.17","0.27","30.0159","4.72552","10.45","0","SATNPRO1962","21.362","0.29918","5"],
    [33219,"HCEP03730560","2024-09-08 07:45:00","10.9117","3.3941","27.195","0.936","7.41","0.689","15.678","0.53","15.54","30.0163","4.72562","10.24","0","SATNPRO1962","21.118","0.29576","5"],
    [33220,"HCEP03730560","2024-09-08 08:00:00","10.9075","3.39382","27.202","0.879","7.4","0.895","17.634","0.95","12.47","30.017","4.72578","9.62","0","SATNPRO1962","20.612","0.28872","5"],
    [33221,"HCEP03730560","2024-09-08 08:15:00","10.9075","3.39402","27.196","0.838","7.4","0.635","12.322","0.41","12.25","30.019","4.72606","9.17","0","SATNPRO1962","20.838","0.29188","5"],
    [33222,"HCEP03730560","2024-09-08 08:30:00","10.909","3.39421","27.223","0.848","7.4","0.527","10.648","0.29","13.5","30.0196","4.72613","9.29","0","SATNPRO1962","21.222","0.2973","5"],
    [33223,"HCEP03730560","2024-09-08 08:45:00","10.9089","3.39427","27.188","0.863","7.4","0.49","3.742","0.15","0.23","30.0203","4.72623","9.45","0","SATNPRO1962","21.355999999999998","0.29914","5"],
    [33224,"HCEP03730560","2024-09-08 09:00:00","10.911","3.39459","27.116","0.884","7.41","0.558","4.473","0.22","0.72","30.0218","4.7264","9.68","0","SATNPRO1962","21.291999999999998","0.29824","5"],
    [33225,"HCEP03730560","2024-09-08 09:15:00","10.9156","3.39513","27.107","0.94","7.41","0.424","3.75","0.06","0.14","30.0232","4.72654","10.29","0","SATNPRO1962","21.88","0.30646","5"],
    [33226,"HCEP03730560","2024-09-08 09:30:00","10.9197","3.39571","27.043","1.051","7.42","0.411","3.836","0.07","1.43","30.0256","4.7268","11.51","0","SATNPRO1962","22.855999999999998","0.32014","5"],
    [33227,"HCEP03730560","2024-09-08 09:45:00","10.9352","3.39725","26.979","1.32","7.44","0.555","3.171","0.67","0.23","30.028","4.72691","14.46","0","SATNPRO1962","25.706","0.36002","5"],
    [33228,"HCEP03730560","2024-09-08 10:00:00","10.9335","3.39699","26.928","1.563","7.46","0.402","3.108","0.09","0.42","30.0269","4.72677","17.12","0","SATNPRO1962","26.178","0.36668","5"],
    [33229,"HCEP03730560","2024-09-08 10:15:00","10.9213","3.39571","26.876","1.413","7.44","0.492","5.104","0.14","3.11","30.0243","4.72659","15.47","0","SATNPRO1962","23.074","0.3232","5"],
    [33230,"HCEP03730560","2024-09-08 10:30:00","10.9186","3.39538","26.795","1.23","7.44","0.435","3.763","0.1","0.27","30.0234","4.7265","13.47","0","SATNPRO1962","22.628","0.31694","5"],
    [33231,"HCEP03730560","2024-09-08 10:45:00","10.918","3.39535","26.703","1.151","7.43","0.592","5.016","0.2","2.63","30.0236","4.72653","12.6","0","SATNPRO1962","22.752","0.31864","5"],
    [33232,"HCEP03730560","2024-09-08 11:00:00","10.9182","3.39516","26.603","1.142","7.43","0.608","3.7","0.61","0.39","30.0216","4.72624","12.5","0","SATNPRO1962","23.144000000000002","0.32416","5"],
    [33233,"HCEP03730560","2024-09-08 11:15:00","10.918","3.39509","26.562","1.132","7.43","0.468","3.864","0.08","0.25","30.0211","4.72617","12.39","0","SATNPRO1962","23.174","0.3246","5"],
    [33234,"HCEP03730560","2024-09-08 11:30:00","10.9179","3.39486","26.415","1.137","7.43","0.433","3.55","0.05","0.15","30.0189","4.72585","12.46","0","SATNPRO1962","23.088","0.3234","5"],
    [33235,"HCEP03730560","2024-09-08 11:45:00","10.9179","3.39462","26.292","1.145","7.43","0.475","3.139","0.11","0.07","30.0167","4.72553","12.54","0","SATNPRO1962","23.014","0.32232","5"],
    [33236,"HCEP03730560","2024-09-08 12:00:00","10.9191","3.39512","26.247","1.144","7.43","0.437","3.341","0.05","0.08","30.0206","4.72607","12.52","0","SATNPRO1962","22.958","0.32156","5"],
    [33237,"HCEP03730560","2024-09-08 12:15:00","10.9198","3.3954","26.199","1.157","7.43","0.508","3.603","0.07","0.12","30.0229","4.72637","12.67","0","SATNPRO1962","22.826","0.31966","5"],
    [33238,"HCEP03730560","2024-09-08 12:30:00","10.9208","3.39569","26.138","1.159","7.43","0.453","3.547","0.08","0.1","30.0248","4.72663","12.7","0","SATNPRO1962","22.896","0.32068","5"],
    [33239,"HCEP03730560","2024-09-08 12:45:00","10.9216","3.39595","26.09","1.168","7.43","0.496","3.703","0.09","0.1","30.0268","4.7269","12.79","0","SATNPRO1962","22.954","0.3215","5"],
    [33240,"HCEP03730560","2024-09-08 13:00:00","10.9233","3.39631","26.036","1.184","7.43","0.474","3.666","0.1","0.08","30.0289","4.72717","12.97","0","SATNPRO1962","23.195999999999998","0.32486","5"],
    [33241,"HCEP03730560","2024-09-08 13:15:00","10.9241","3.39631","26.015","1.218","7.44","0.52","3.751","0.14","0.23","30.0283","4.72706","13.34","0","SATNPRO1962","23.144000000000002","0.32414","5"],
    [33242,"HCEP03730560","2024-09-08 13:30:00","10.9244","3.39643","25.969","1.237","7.44","0.491","3.76","0.08","0.1","30.0292","4.72719","13.55","0","SATNPRO1962","23.236","0.32548","5"],
    [33243,"HCEP03730560","2024-09-08 13:45:00","10.9262","3.39681","25.901","1.241","7.44","0.506","4.025","0.07","0.11","30.0315","4.72748","13.6","0","SATNPRO1962","23.24","0.3255","5"],
    [33244,"HCEP03730560","2024-09-08 14:00:00","10.9265","3.397","25.969","1.225","7.44","0.471","4.077","0.07","0.1","30.0331","4.7277","13.42","0","SATNPRO1962","22.912","0.3209","5"],
    [33245,"HCEP03730560","2024-09-08 14:15:00","10.9192","3.39586","25.998","1.17","7.43","0.523","3.607","0.1","0.09","30.0279","4.72708","12.81","0","SATNPRO1962","22.656","0.31736","5"],
    [33246,"HCEP03730560","2024-09-08 14:30:00","10.918","3.39578","26.03","1.112","7.43","0.47","3.536","0.12","0.08","30.0281","4.72713","12.18","0","SATNPRO1962","22.58","0.3163","5"],
    [33247,"HCEP03730560","2024-09-08 14:45:00","10.9166","3.39558","26.083","1.083","7.43","0.473","3.461","0.08","0.13","30.0272","4.72704","11.86","0","SATNPRO1962","22.61","0.31668","5"],
    [33248,"HCEP03730560","2024-09-08 15:00:00","10.9171","3.39573","26.137","1.063","7.43","0.45","3.604","0.07","0.06","30.0283","4.72718","11.64","0","SATNPRO1962","22.514","0.31534","5"],
    [33249,"HCEP03730560","2024-09-08 15:15:00","10.9181","3.39594","26.26","1.052","7.42","0.487","3.777","0.06","0.17","30.0294","4.72733","11.52","0","SATNPRO1962","22.352","0.31308","5"],
    [33250,"HCEP03730560","2024-09-08 15:30:00","10.92","3.39629","26.334","1.048","7.42","0.439","3.879","0.06","0.06","30.0313","4.72757","11.47","0","SATNPRO1962","22.392","0.31362","5"],
    [33251,"HCEP03730560","2024-09-08 15:45:00","10.9202","3.39636","26.433","1.046","7.42","0.485","3.723","0.09","0.09","30.0318","4.72765","11.46","0","SATNPRO1962","22.27","0.31192","5"],
    [33252,"HCEP03730560","2024-09-08 16:00:00","10.9203","3.39639","26.559","1.041","7.42","0.472","3.77","0.08","0.16","30.032","4.72767","11.4","0","SATNPRO1962","22.204","0.31102","5"],
    [33253,"HCEP03730560","2024-09-08 16:15:00","10.9196","3.39629","26.685","1.038","7.42","0.462","3.584","0.1","0.09","30.0316","4.72764","11.37","0","SATNPRO1962","22.332","0.3128","5"],
    [33254,"HCEP03730560","2024-09-08 16:30:00","10.9208","3.39654","26.768","1.038","7.42","0.409","3.747","0.1","0.11","30.033","4.72782","11.37","0","SATNPRO1962","22.186","0.31074","5"],
    [33255,"HCEP03730560","2024-09-08 16:45:00","10.9272","3.39745","26.905","1.066","7.43","0.506","4.071","0.12","0.18","30.0366","4.72825","11.68","0","SATNPRO1962","22.488","0.31496","5"],
    [33256,"HCEP03730560","2024-09-08 17:00:00","10.9348","3.39858","27.006","1.125","7.43","0.534","4.461","0.1","0.22","30.0414","4.72881","12.33","0","SATNPRO1962","22.855999999999998","0.32012","5"],
    [33257,"HCEP03730560","2024-09-08 17:15:00","10.9347","3.39848","27.104","1.175","7.43","0.482","4.241","0.11","0.31","30.0404","4.72868","12.88","0","SATNPRO1962","22.986","0.32196","5"],
    [33258,"HCEP03730560","2024-09-08 17:30:00","10.9386","3.399","27.188","1.221","7.44","0.488","4.269","0.1","0.18","30.0423","4.72889","13.38","0","SATNPRO1962","23.396","0.32772","5"],
    [33259,"HCEP03730560","2024-09-08 17:45:00","10.9411","3.39933","27.262","1.279","7.44","0.546","4.472","0.17","0.3","30.0435","4.72904","14.02","0","SATNPRO1962","23.535999999999998","0.32966","5"],
    [33260,"HCEP03730560","2024-09-08 18:00:00","10.9436","3.39973","27.28","1.322","7.45","0.525","4.255","0.09","0.18","30.0453","4.72925","14.49","0","SATNPRO1962","23.944","0.33538","5"],
    [33261,"HCEP03730560","2024-09-08 18:15:00","10.9451","3.39992","27.366","1.363","7.45","0.532","4.289","0.1","0.44","30.046","4.72933","14.94","0","SATNPRO1962","24.286","0.34016","5"],
    [33262,"HCEP03730560","2024-09-08 18:30:00","10.9441","3.39971","27.408","1.401","7.45","0.514","4.242","0.12","0.52","30.0447","4.72917","15.36","0","SATNPRO1962","24.104","0.33764","5"],
    [33263,"HCEP03730560","2024-09-08 18:45:00","10.9442","3.39708","27.445","1.427","7.46","0.577","4.243","0.18","0.69","30.0188","4.72548","15.63","0","SATNPRO1962","24.432000000000002","0.34218","5"],
    [33264,"HCEP03730560","2024-09-08 19:00:00","10.9433","3.39968","27.404","1.427","7.46","0.488","4.084","0.08","0.43","30.0451","4.72923","15.64","0","SATNPRO1962","24.14","0.33814","5"],
    [33265,"HCEP03730560","2024-09-08 19:15:00","10.9425","3.39947","27.434","1.427","7.46","0.524","3.769","0.09","0.1","30.0437","4.72905","15.64","0","SATNPRO1962","24.1","0.3376","5"],
    [33266,"HCEP03730560","2024-09-08 19:30:00","10.9391","3.39905","27.449","1.407","7.46","0.49","3.873","0.13","0.18","30.0423","4.72891","15.42","0","SATNPRO1962","23.876","0.33442","5"],
    [33267,"HCEP03730560","2024-09-08 19:45:00","10.938","3.39878","27.432","1.36","7.45","0.483","3.973","0.09","0.19","30.0405","4.72866","14.9","0","SATNPRO1962","23.664","0.33146","5"],
    [33268,"HCEP03730560","2024-09-08 20:00:00","10.9369","3.3986","27.406","1.328","7.45","0.485","4.036","0.1","0.21","30.0397","4.72856","14.55","0","SATNPRO1962","23.456","0.32854","5"],
    [33269,"HCEP03730560","2024-09-08 20:15:00","10.9357","3.39829","27.372","1.315","7.45","0.51","3.994","0.14","0.16","30.0376","4.72829","14.4","0","SATNPRO1962","23.544","0.32978","5"],
    [33270,"HCEP03730560","2024-09-08 20:30:00","10.9339","3.39798","27.342","1.303","7.45","0.549","4.011","0.14","0.16","30.0361","4.7281","14.27","0","SATNPRO1962","23.486","0.32896","5"],
    [33271,"HCEP03730560","2024-09-08 20:45:00","10.9328","3.39768","27.276","1.296","7.45","0.586","3.974","0.17","0.28","30.0341","4.72783","14.19","0","SATNPRO1962","23.53","0.32962","5"],
    [33272,"HCEP03730560","2024-09-08 21:00:00","10.9309","3.39735","27.184","1.296","7.45","0.468","3.681","0.08","0.11","30.0324","4.72761","14.2","0","SATNPRO1962","23.514","0.32938","5"],
    [33273,"HCEP03730560","2024-09-08 21:15:00","10.9282","3.397","27.098","1.267","7.44","0.492","3.683","0.11","0.13","30.0314","4.7275","13.88","0","SATNPRO1962","23.358","0.32718","5"],
    [33274,"HCEP03730560","2024-09-08 21:30:00","10.9259","3.39674","26.984","1.193","7.44","0.43","3.845","0.08","0.1","30.0306","4.72742","13.07","0","SATNPRO1962","22.804","0.31942","5"],
    [33275,"HCEP03730560","2024-09-08 21:45:00","10.9247","3.3965","26.845","1.126","7.43","0.453","3.835","0.09","0.18","30.0293","4.72725","12.34","0","SATNPRO1962","22.474","0.31478","5"],
    [33276,"HCEP03730560","2024-09-08 22:00:00","10.9229","3.39619","26.706","1.083","7.43","0.455","3.873","0.08","0.13","30.0278","4.72705","11.86","0","SATNPRO1962","22.21","0.31112","5"],
    [33277,"HCEP03730560","2024-09-08 22:15:00","10.9221","3.39602","26.587","1.046","7.42","0.453","3.861","0.09","0.13","30.0268","4.72692","11.45","0","SATNPRO1962","22.182000000000002","0.3107","5"],
    [33278,"HCEP03730560","2024-09-08 22:30:00","10.9213","3.39593","26.44","1.019","7.42","0.464","4.013","0.09","0.13","30.0267","4.7269","11.16","0","SATNPRO1962","22.006","0.30826","5"],
    [33279,"HCEP03730560","2024-09-08 22:45:00","10.9213","3.39588","26.263","0.996","7.42","0.483","4.087","0.1","0.16","30.0263","4.72684","10.91","0","SATNPRO1962","22.022","0.30846","5"],
    [33280,"HCEP03730560","2024-09-08 23:00:00","10.9213","3.39593","26.105","0.979","7.42","0.412","4.085","0.13","0.12","30.0268","4.7269","10.72","0","SATNPRO1962","21.98","0.30786","5"],
    [33281,"HCEP03730560","2024-09-08 23:15:00","10.922","3.39602","25.918","0.974","7.42","0.428","4.126","0.07","0.46","30.0272","4.72694","10.67","0","SATNPRO1962","22.02","0.30846","5"],
    [33282,"HCEP03730560","2024-09-08 23:30:00","10.923","3.39621","25.761","0.975","7.42","0.402","4.008","0.08","0.15","30.0283","4.72707","10.68","0","SATNPRO1962","21.956","0.30752","5"],
    [33283,"HCEP03730560","2024-09-08 23:45:00","10.9238","3.39633","25.585","0.986","7.42","0.486","4.099","0.13","0.17","30.0289","4.72713","10.8","0","SATNPRO1962","22.012","0.30832","5"],
    [33284,"HCEP03730560","2024-09-09 00:00:00","10.9253","3.39663","25.402","1.01","7.42","0.419","4.046","0.09","0.31","30.0306","4.72734","11.06","0","SATNPRO1962","22.268","0.31188","5"],
    [33285,"HCEP03730560","2024-09-09 00:15:00","10.9272","3.39696","25.233","1.042","7.42","0.443","3.919","0.13","0.26","30.0324","4.72756","11.41","0","SATNPRO1962","22.778","0.31904","5"],
    [33286,"HCEP03730560","2024-09-09 00:30:00","10.933","3.39773","25.092","1.128","7.43","0.382","3.577","0.09","0.13","30.0353","4.72787","12.35","0","SATNPRO1962","23.544","0.32978","5"],
    [33287,"HCEP03730560","2024-09-09 00:45:00","10.936","3.39813","24.991","1.222","7.44","0.411","3.901","0.06","0.13","30.0368","4.72804","13.38","0","SATNPRO1962","23.567999999999998","0.33012","5"],
    [33288,"HCEP03730560","2024-09-09 01:00:00","10.9427","3.39903","24.875","1.316","7.45","0.348","3.688","0.05","0.13","30.0402","4.7284","14.42","0","SATNPRO1962","24.596","0.3445","5"],
    [33289,"HCEP03730560","2024-09-09 01:15:00","10.9426","3.39909","24.802","1.375","7.45","0.386","3.755","0.04","0.08","30.0409","4.7285","15.07","0","SATNPRO1962","24.126","0.33792","5"],
    [33290,"HCEP03730560","2024-09-09 01:30:00","10.9557","3.4005","24.743","1.498","7.46","0.397","3.109","0.08","0.08","30.044","4.72874","16.41","0","SATNPRO1962","26.18","0.3667","5"],
    [33291,"HCEP03730560","2024-09-09 01:45:00","10.9525","3.40033","24.731","1.649","7.47","0.383","3.331","0.07","0.1","30.0449","4.72892","18.07","0","SATNPRO1962","25.66","0.35942","5"],
    [33292,"HCEP03730560","2024-09-09 02:00:00","10.9517","3.40005","24.716","1.605","7.47","0.353","3.094","0.07","0.13","30.0429","4.72864","17.59","0","SATNPRO1962","25.86","0.3622","5"],
    [33293,"HCEP03730560","2024-09-09 02:15:00","10.9479","3.39964","24.711","1.552","7.47","0.348","3.105","0.07","0.1","30.0419","4.72856","17.01","0","SATNPRO1962","24.446","0.34242","5"],
    [33294,"HCEP03730560","2024-09-09 02:30:00","10.9444","3.39901","24.729","1.473","7.46","0.339","3.518","0.04","0.17","30.0387","4.72815","16.14","0","SATNPRO1962","24.644","0.34518","5"],
    [33295,"HCEP03730560","2024-09-09 02:45:00","10.9426","3.39888","24.761","1.409","7.46","0.347","3.391","0.08","0.08","30.0388","4.7282","15.44","0","SATNPRO1962","24.113999999999997","0.33776","5"],
    [33296,"HCEP03730560","2024-09-09 03:00:00","10.9451","3.39932","24.809","1.376","7.46","0.345","3.581","0.07","0.11","30.0411","4.72849","15.08","0","SATNPRO1962","24.276","0.34006","5"],
    [33297,"HCEP03730560","2024-09-09 03:15:00","10.9367","3.3981","24.859","1.323","7.45","0.437","3.991","0.29","0.2","30.036","4.7279","14.5","0","SATNPRO1962","23.422","0.32808","5"],
    [33298,"HCEP03730560","2024-09-09 03:30:00","10.9396","3.3985","24.927","1.27","7.45","0.352","3.971","0.16","0.12","30.0375","4.72807","13.92","0","SATNPRO1962","23.868","0.3343","5"],
    [33299,"HCEP03730560","2024-09-09 03:45:00","10.9431","3.39889","25.031","1.289","7.45","0.372","4.078","0.06","0.14","30.0385","4.72816","14.12","0","SATNPRO1962","23.98","0.33586","5"],
    [33300,"HCEP03730560","2024-09-09 04:00:00","10.9456","3.39946","25.132","1.306","7.45","0.414","4.241","0.2","0.23","30.0419","4.72861","14.31","0","SATNPRO1962","24.016","0.33638","5"],
    [33301,"HCEP03730560","2024-09-09 04:15:00","10.9464","3.39958","25.242","1.304","7.45","0.377","4.321","0.07","0.15","30.0424","4.72867","14.29","0","SATNPRO1962","24.15","0.33828","5"],
    [33302,"HCEP03730560","2024-09-09 04:30:00","10.9484","3.39986","25.354","1.306","7.45","0.471","4.607","0.21","0.3","30.0435","4.72881","14.31","0","SATNPRO1962","24.062","0.33698","5"],
    [33303,"HCEP03730560","2024-09-09 04:45:00","10.9484","3.3999","25.467","1.298","7.45","0.425","4.489","0.13","0.35","30.0439","4.72887","14.23","0","SATNPRO1962","23.976","0.33582","5"],
    [33304,"HCEP03730560","2024-09-09 05:00:00","10.9491","3.40005","25.585","1.286","7.45","0.529","4.448","0.18","0.19","30.0446","4.72898","14.09","0","SATNPRO1962","23.956","0.33554","5"],
    [33305,"HCEP03730560","2024-09-09 05:15:00","10.9523","3.4004","25.722","1.292","7.45","0.457","4.546","0.13","0.23","30.0454","4.72904","14.16","0","SATNPRO1962","24.02","0.33644","5"],
    [33306,"HCEP03730560","2024-09-09 05:30:00","10.9595","3.40122","25.857","1.359","7.45","0.436","4.172","0.14","0.18","30.0475","4.72923","14.9","0","SATNPRO1962","24.85","0.34806","5"],
    [33307,"HCEP03730560","2024-09-09 05:45:00","10.956","3.40071","26.003","1.411","7.45","0.455","4.45","0.09","0.29","30.0453","4.72899","15.46","0","SATNPRO1962","24.254","0.33972","5"],
    [33308,"HCEP03730560","2024-09-09 06:00:00","10.951","3.39989","26.205","1.347","7.45","0.425","4.444","0.12","0.26","30.0413","4.72851","14.76","0","SATNPRO1962","23.816","0.33358","5"],
    [33309,"HCEP03730560","2024-09-09 06:15:00","10.9523","3.3997","26.262","1.324","7.45","0.517","4.424","0.15","0.17","30.0384","4.72807","14.51","0","SATNPRO1962","24.18","0.33866","5"],
    [33310,"HCEP03730560","2024-09-09 06:30:00","10.9501","3.39931","26.354","1.35","7.45","0.505","4.487","0.19","0.14","30.0363","4.72782","14.79","0","SATNPRO1962","23.77","0.33294","5"],
    [33311,"HCEP03730560","2024-09-09 06:45:00","10.9517","3.39934","26.478","1.349","7.45","0.666","4.354","0.18","0.19","30.0352","4.72765","14.79","0","SATNPRO1962","24.914","0.34896","5"],
    [33312,"HCEP03730560","2024-09-09 07:00:00","10.9485","3.39878","26.611","1.409","7.45","0.61","4.027","0.21","0.33","30.0322","4.72728","15.44","0","SATNPRO1962","24.554","0.34394","5"],
    [33313,"HCEP03730560","2024-09-09 07:15:00","10.9399","3.398","26.699","1.334","7.45","0.691","5.049","0.14","1.12","30.0317","4.72734","14.61","0","SATNPRO1962","23.508","0.32924","5"],
    [33314,"HCEP03730560","2024-09-09 07:30:00","10.938","3.39795","26.813","1.221","7.44","0.778","4.698","0.32","0.43","30.0326","4.72751","13.37","0","SATNPRO1962","23.144","0.32414","5"],
    [33315,"HCEP03730560","2024-09-09 07:45:00","10.9387","3.39816","26.875","1.178","7.44","0.877","4.546","0.69","0.25","30.0341","4.72772","12.9","0","SATNPRO1962","23.164","0.32446","5"],
    [33316,"HCEP03730560","2024-09-09 08:00:00","10.9401","3.39845","26.942","1.187","7.44","0.599","4.422","0.14","0.28","30.0359","4.72794","13.01","0","SATNPRO1962","23.554","0.3299","5"],
    [33317,"HCEP03730560","2024-09-09 08:15:00","10.9422","3.39878","26.991","1.215","7.44","0.662","4.536","0.22","0.45","30.0373","4.72812","13.31","0","SATNPRO1962","23.818","0.33358","5"],
    [33318,"HCEP03730560","2024-09-09 08:30:00","10.9442","3.39906","27.025","1.244","7.44","0.745","4.671","0.56","0.55","30.0384","4.72824","13.63","0","SATNPRO1962","23.85","0.33404","5"],
    [33319,"HCEP03730560","2024-09-09 08:45:00","10.949","3.39945","27.053","1.304","7.45","0.598","4.401","0.12","1.01","30.0383","4.72816","14.29","0","SATNPRO1962","24.598","0.34452","5"],
    [33320,"HCEP03730560","2024-09-09 09:00:00","10.9573","3.40026","27.05","1.44","7.46","0.636","3.723","0.16","0.25","30.0395","4.7282","15.78","0","SATNPRO1962","24.904","0.3488","5"],
    [33321,"HCEP03730560","2024-09-09 09:15:00","10.9653","3.40106","27.05","1.575","7.47","0.603","3.442","0.17","0.11","30.0407","4.72824","17.27","0","SATNPRO1962","25.64","0.35914","5"],
    [33322,"HCEP03730560","2024-09-09 09:30:00","10.9663","3.40119","27.06","1.667","7.47","0.646","3.508","0.19","0.3","30.0412","4.72831","18.28","0","SATNPRO1962","25.804","0.36144","5"],
    [33323,"HCEP03730560","2024-09-09 09:45:00","10.9661","3.40114","27.178","1.682","7.47","0.669","3.667","0.16","0.28","30.0408","4.72826","18.44","0","SATNPRO1962","25.652","0.35926","5"],
    [33324,"HCEP03730560","2024-09-09 10:00:00","10.9623","3.40069","27.154","1.673","7.47","0.658","3.765","0.25","0.59","30.0395","4.72814","18.34","0","SATNPRO1962","25.372","0.3554","5"],
    [33325,"HCEP03730560","2024-09-09 10:15:00","10.9596","3.40055","27.111","1.639","7.47","0.754","3.614","0.18","0.17","30.0403","4.72829","17.97","0","SATNPRO1962","25.37","0.35538","5"],
    [33326,"HCEP03730560","2024-09-09 10:30:00","10.9583","3.4004","27.063","1.615","7.47","0.589","3.533","0.14","0.26","30.04","4.72826","17.7","0","SATNPRO1962","25.240000000000002","0.35352","5"],
    [33327,"HCEP03730560","2024-09-09 10:45:00","10.9657","3.40134","27.039","1.628","7.47","0.579","3.619","0.17","0.24","30.0431","4.72858","17.85","0","SATNPRO1962","25.708","0.36014","5"],
    [33328,"HCEP03730560","2024-09-09 11:00:00","10.9707","3.40207","27.004","1.663","7.48","0.559","3.686","0.12","0.16","30.0462","4.72895","18.23","0","SATNPRO1962","25.46","0.35662","5"],
    [33329,"HCEP03730560","2024-09-09 11:15:00","10.9686","3.40189","26.931","1.654","7.48","0.575","3.808","0.1","0.15","30.0462","4.72898","18.14","0","SATNPRO1962","25.28","0.35406","5"],
    [33330,"HCEP03730560","2024-09-09 11:30:00","10.9648","3.40153","26.879","1.605","7.47","0.6","3.927","0.16","0.58","30.0458","4.72897","17.6","0","SATNPRO1962","24.95","0.34946","5"],
    [33331,"HCEP03730560","2024-09-09 11:45:00","10.9628","3.40131","26.822","1.562","7.47","0.628","3.981","0.27","0.2","30.0453","4.72892","17.13","0","SATNPRO1962","24.79","0.34724","5"],
    [33332,"HCEP03730560","2024-09-09 12:00:00","10.9589","3.40086","26.743","1.515","7.47","0.684","3.936","0.5","0.22","30.0441","4.72881","16.6","0","SATNPRO1962","24.458","0.3426","5"],
    [33333,"HCEP03730560","2024-09-09 12:15:00","10.9536","3.40019","26.691","1.459","7.46","0.544","3.995","0.13","0.35","30.0419","4.72858","15.99","0","SATNPRO1962","24.298","0.34034","5"],
    [33334,"HCEP03730560","2024-09-09 12:30:00","10.9548","3.40048","26.617","1.412","7.46","0.535","4.114","0.1","0.24","30.0438","4.72883","15.47","0","SATNPRO1962","24.218","0.3392","5"],
    [33335,"HCEP03730560","2024-09-09 12:45:00","10.9557","3.40059","26.521","1.394","7.46","0.646","4.07","0.22","0.2","30.0443","4.72887","15.28","0","SATNPRO1962","24.116","0.33778","5"],
    [33336,"HCEP03730560","2024-09-09 13:00:00","10.959","3.40102","26.437","1.398","7.46","0.553","3.987","0.13","0.17","30.0457","4.72902","15.32","0","SATNPRO1962","24.302","0.3404","5"],
    [33337,"HCEP03730560","2024-09-09 13:15:00","10.9661","3.40199","26.383","1.431","7.46","0.612","4.263","0.13","0.19","30.0494","4.72944","15.68","0","SATNPRO1962","24.408","0.34184","5"],
    [33338,"HCEP03730560","2024-09-09 13:30:00","10.9681","3.40219","26.322","1.474","7.46","0.546","3.994","0.1","0.17","30.0498","4.72945","16.16","0","SATNPRO1962","24.51","0.34334","5"],
    [33339,"HCEP03730560","2024-09-09 13:45:00","10.9635","3.40131","26.276","1.497","7.46","0.638","3.903","0.22","0.53","30.0449","4.72883","16.42","0","SATNPRO1962","24.864","0.34826","5"],
    [33340,"HCEP03730560","2024-09-09 14:00:00","10.9554","3.40026","26.254","1.474","7.46","0.503","3.531","0.08","0.2","30.0413","4.72845","16.16","0","SATNPRO1962","24.448","0.34244","5"],
    [33341,"HCEP03730560","2024-09-09 14:15:00","10.9557","3.40041","26.244","1.411","7.46","0.573","3.51","0.18","0.21","30.0425","4.72861","15.47","0","SATNPRO1962","24.178","0.33862","5"],
    [33342,"HCEP03730560","2024-09-09 14:30:00","10.9516","3.39988","26.246","1.353","7.45","0.502","3.604","0.15","0.34","30.0406","4.72841","14.83","0","SATNPRO1962","23.94","0.33534","5"],
    [33343,"HCEP03730560","2024-09-09 14:45:00","10.9474","3.39937","26.257","1.292","7.45","0.529","3.59","0.14","0.13","30.0391","4.72825","14.16","0","SATNPRO1962","23.52","0.32944","5"],
    [33344,"HCEP03730560","2024-09-09 15:00:00","10.941","3.39844","26.278","1.221","7.44","0.558","3.507","0.14","0.26","30.0352","4.7278","13.38","0","SATNPRO1962","23.208","0.32508","5"],
    [33345,"HCEP03730560","2024-09-09 15:15:00","10.9367","3.39771","26.311","1.142","7.44","0.484","3.471","0.11","0.12","30.0316","4.72735","12.51","0","SATNPRO1962","23.23","0.3254","5"],
    [33346,"HCEP03730560","2024-09-09 15:30:00","10.9271","3.3961","26.37","1.044","7.43","0.434","3.56","0.08","0.45","30.0236","4.72638","11.43","0","SATNPRO1962","22.218","0.31124","5"],
    [33347,"HCEP03730560","2024-09-09 15:45:00","10.9237","3.39563","26.412","0.957","7.42","0.579","3.517","0.15","0.18","30.0218","4.72618","10.48","0","SATNPRO1962","22.166","0.3105","5"],
    [33348,"HCEP03730560","2024-09-09 16:00:00","10.9193","3.39486","26.486","0.897","7.41","0.515","3.374","0.12","0.21","30.0178","4.72568","9.82","0","SATNPRO1962","21.892","0.30664","5"],
    [33349,"HCEP03730560","2024-09-09 16:15:00","10.9168","3.39447","26.535","0.868","7.41","0.612","3.882","0.16","1.57","30.016","4.72546","9.5","0","SATNPRO1962","21.794","0.30526","5"],
    [33350,"HCEP03730560","2024-09-09 16:30:00","10.9152","3.39407","26.596","0.847","7.41","0.807","3.213","0.48","0.16","30.0134","4.72512","9.28","0","SATNPRO1962","21.852","0.3061","5"],
    [33351,"HCEP03730560","2024-09-09 16:45:00","10.9121","3.39348","26.672","0.832","7.4","0.511","3.071","0.12","0.1","30.0102","4.72471","9.11","0","SATNPRO1962","21.778","0.30504","5"],
    [33352,"HCEP03730560","2024-09-09 17:00:00","10.9109","3.39331","26.74","0.82","7.4","0.439","3.159","0.11","0.19","30.0095","4.72463","8.97","0","SATNPRO1962","21.72","0.30422","5"],
    [33353,"HCEP03730560","2024-09-09 17:15:00","10.9135","3.39385","26.833","0.81","7.4","0.457","2.997","0.12","0.13","30.0125","4.72504","8.87","0","SATNPRO1962","21.176000000000002","0.29666","5"],
    [33354,"HCEP03730560","2024-09-09 17:30:00","10.9127","3.39362","26.935","0.805","7.4","0.534","3.066","0.14","0.12","30.0109","4.72482","8.81","0","SATNPRO1962","21.712","0.30414","5"],
    [33355,"HCEP03730560","2024-09-09 17:45:00","10.9139","3.38632","27.094","0.802","7.4","0.635","3.192","0.29","0.07","29.9383","4.7145","8.78","0","SATNPRO1962","21.638","0.30306","5"],
    [33356,"HCEP03730560","2024-09-09 18:00:00","10.9125","3.39361","27.201","0.805","7.4","0.439","3.39","0.08","0.29","30.0108","4.72483","8.81","0","SATNPRO1962","21.64","0.3031","5"],
    [33357,"HCEP03730560","2024-09-09 18:15:00","10.914","3.3937","27.266","0.805","7.4","0.56","3.349","0.23","0.15","30.0104","4.72476","8.82","0","SATNPRO1962","21.768","0.30492","5"],
    [33358,"HCEP03730560","2024-09-09 18:30:00","10.9277","3.39618","27.326","0.831","7.4","0.591","3.969","0.21","0.35","30.0236","4.72641","9.11","0","SATNPRO1962","21.608","0.30264","5"],
    [33359,"HCEP03730560","2024-09-09 18:45:00","10.925","3.3958","27.399","0.848","7.4","0.627","3.919","0.16","0.43","30.022","4.72624","9.29","0","SATNPRO1962","21.736","0.30444","5"],
    [33360,"HCEP03730560","2024-09-09 19:00:00","10.9325","3.39704","27.444","0.861","7.41","0.67","3.989","0.19","0.31","30.028","4.72698","9.43","0","SATNPRO1962","21.892","0.30666","5"],
    [33361,"HCEP03730560","2024-09-09 19:15:00","10.9355","3.39718","27.51","0.909","7.41","0.614","4.056","0.16","0.29","30.0269","4.72677","9.96","0","SATNPRO1962","21.986","0.30796","5"],
    [33362,"HCEP03730560","2024-09-09 19:30:00","10.9343","3.39693","27.502","0.943","7.41","0.622","4.035","0.18","0.41","30.0254","4.72658","10.33","0","SATNPRO1962","22.324","0.3127","5"],
    [33363,"HCEP03730560","2024-09-09 19:45:00","10.9356","3.39714","27.515","0.958","7.41","0.576","3.896","0.12","0.19","30.0265","4.72671","10.5","0","SATNPRO1962","22.43","0.31416","5"],
    [33364,"HCEP03730560","2024-09-09 20:00:00","10.927","3.39579","27.513","0.968","7.41","0.476","3.628","0.22","0.14","30.0202","4.72596","10.61","0","SATNPRO1962","22.416","0.31394","5"],
    [33365,"HCEP03730560","2024-09-09 20:15:00","10.938","3.39747","27.502","0.989","7.42","0.608","3.885","0.15","0.19","30.0276","4.72684","10.83","0","SATNPRO1962","22.824","0.31966","5"],
    [33366,"HCEP03730560","2024-09-09 20:30:00","10.9478","3.39919","27.477","1.076","7.42","0.63","3.811","0.25","0.2","30.0366","4.72795","11.8","0","SATNPRO1962","23.669999999999998","0.33152","5"],
    [33367,"HCEP03730560","2024-09-09 20:45:00","10.9554","3.40028","27.446","1.197","7.43","0.571","3.81","0.16","0.25","30.041","4.72846","13.12","0","SATNPRO1962","24.105999999999998","0.33764","5"],
    [33368,"HCEP03730560","2024-09-09 21:00:00","10.9575","3.40052","27.367","1.289","7.44","0.518","3.732","0.14","0.12","30.0417","4.72853","14.13","0","SATNPRO1962","24.344","0.34098","5"],
    [33369,"HCEP03730560","2024-09-09 21:15:00","10.9602","3.40098","27.206","1.342","7.45","0.563","3.92","0.1","0.21","30.0441","4.72882","14.71","0","SATNPRO1962","24.474","0.34278","5"],
    [33370,"HCEP03730560","2024-09-09 21:30:00","10.9775","3.4035","27.098","1.379","7.45","0.614","4.65","0.13","0.33","30.0546","4.73004","15.13","0","SATNPRO1962","24.366","0.3413","5"],
    [33371,"HCEP03730560","2024-09-09 21:45:00","10.986","3.40478","27.007","1.433","7.46","0.574","4.326","0.2","0.36","30.0602","4.7307","15.71","0","SATNPRO1962","24.868000000000002","0.34834","5"],
    [33372,"HCEP03730560","2024-09-09 22:00:00","10.9907","3.40535","26.902","1.49","7.46","0.553","4.598","0.13","0.36","30.062","4.73087","16.35","0","SATNPRO1962","24.942","0.34938","5"],
    [33373,"HCEP03730560","2024-09-09 22:15:00","10.989","3.40521","26.786","1.508","7.46","0.641","4.698","0.18","0.53","30.062","4.7309","16.55","0","SATNPRO1962","24.518","0.34342","5"],
    [33374,"HCEP03730560","2024-09-09 22:30:00","10.9851","3.40461","26.667","1.497","7.46","0.539","4.526","0.12","0.17","30.0594","4.73058","16.42","0","SATNPRO1962","24.616","0.34478","5"],
    [33375,"HCEP03730560","2024-09-09 22:45:00","10.9876","3.40503","26.528","1.504","7.47","0.563","4.548","0.11","0.15","30.0615","4.73083","16.5","0","SATNPRO1962","24.75","0.34664","5"],
    [33376,"HCEP03730560","2024-09-09 23:00:00","10.9868","3.40497","26.39","1.524","7.47","0.569","4.864","0.15","0.65","30.0616","4.73085","16.72","0","SATNPRO1962","25.01","0.3503","5"],
    [33377,"HCEP03730560","2024-09-09 23:15:00","10.9853","3.4047","26.242","1.527","7.47","0.555","4.652","0.13","0.19","30.0603","4.73068","16.75","0","SATNPRO1962","24.983999999999998","0.34994","5"],
    [33378,"HCEP03730560","2024-09-09 23:30:00","10.9825","3.40428","26.083","1.522","7.47","0.446","4.304","0.11","0.15","30.0585","4.73046","16.7","0","SATNPRO1962","25.032","0.35058","5"],
    [33379,"HCEP03730560","2024-09-09 23:45:00","10.9808","3.40405","25.916","1.513","7.47","0.478","4.493","0.08","0.56","30.0578","4.73037","16.59","0","SATNPRO1962","25.056","0.35098","5"],
    [33380,"HCEP03730560","2024-09-10 00:00:00","10.9782","3.4036","25.753","1.507","7.47","0.461","4.056","0.15","0.2","30.0556","4.73009","16.52","0","SATNPRO1962","25.226","0.35334","5"],
    [33381,"HCEP03730560","2024-09-10 00:15:00","10.977","3.40339","25.591","1.505","7.47","0.484","4.011","0.18","0.2","30.0545","4.72995","16.51","0","SATNPRO1962","25.2","0.35294","5"],
    [33382,"HCEP03730560","2024-09-10 00:30:00","10.9706","3.40241","25.427","1.498","7.47","0.509","3.807","0.47","0.24","30.0503","4.72943","16.42","0","SATNPRO1962","25.298000000000002","0.35434","5"],
    [33383,"HCEP03730560","2024-09-10 00:45:00","10.9758","3.40314","25.274","1.498","7.47","0.486","3.913","0.13","0.15","30.0532","4.72977","16.42","0","SATNPRO1962","25.308","0.35448","5"],
    [33384,"HCEP03730560","2024-09-10 01:00:00","10.9784","3.40345","25.137","1.525","7.47","0.48","3.862","0.17","0.2","30.0542","4.72985","16.73","0","SATNPRO1962","25.631999999999998","0.35902","5"],
    [33385,"HCEP03730560","2024-09-10 01:15:00","10.9803","3.40376","25.012","1.542","7.47","0.439","4.03","0.08","0.1","30.0557","4.73004","16.92","0","SATNPRO1962","25.326","0.35476","5"],
    [33386,"HCEP03730560","2024-09-10 01:30:00","10.9796","3.40368","24.901","1.52","7.47","0.487","4.406","0.14","0.48","30.0555","4.73001","16.67","0","SATNPRO1962","25.137999999999998","0.3521","5"],
    [33387,"HCEP03730560","2024-09-10 01:45:00","10.9772","3.4034","24.797","1.478","7.46","0.518","4.376","0.11","0.19","30.0548","4.72995","16.21","0","SATNPRO1962","24.994","0.35004","5"],
    [33388,"HCEP03730560","2024-09-10 02:00:00","10.9767","3.40334","24.709","1.439","7.46","0.575","4.266","0.24","0.18","30.0547","4.72993","15.78","0","SATNPRO1962","25.006","0.35026","5"],
    [33389,"HCEP03730560","2024-09-10 02:15:00","10.9797","3.40377","24.652","1.438","7.46","0.492","4.028","0.12","0.3","30.0564","4.73012","15.78","0","SATNPRO1962","25.128","0.35198","5"],
    [33390,"HCEP03730560","2024-09-10 02:30:00","10.9802","3.40376","24.612","1.465","7.46","0.641","4.449","0.33","0.43","30.0559","4.73004","16.07","0","SATNPRO1962","24.944","0.34934","5"],
    [33391,"HCEP03730560","2024-09-10 02:45:00","10.9801","3.40376","24.58","1.457","7.46","0.534","4.477","0.12","0.26","30.056","4.73006","15.98","0","SATNPRO1962","25.008","0.3503","5"],
    [33392,"HCEP03730560","2024-09-10 03:00:00","10.9793","3.40363","24.609","1.446","7.46","0.637","4.239","0.3","0.2","30.0554","4.72999","15.85","0","SATNPRO1962","25","0.35016","5"],
    [33393,"HCEP03730560","2024-09-10 03:15:00","10.979","3.40348","24.692","1.449","7.46","0.643","4.3","0.23","0.33","30.0542","4.72982","15.89","0","SATNPRO1962","25.244","0.35356","5"],
    [33394,"HCEP03730560","2024-09-10 03:30:00","10.9761","3.40311","24.739","1.438","7.46","0.607","4.267","0.13","0.13","30.0528","4.72967","15.77","0","SATNPRO1962","24.794","0.34728","5"],
    [33395,"HCEP03730560","2024-09-10 03:45:00","10.9729","3.4027","24.763","1.383","7.46","0.563","4.233","0.1","0.13","30.0515","4.72954","15.16","0","SATNPRO1962","24.483999999999998","0.34294","5"],
    [33396,"HCEP03730560","2024-09-10 04:00:00","10.9711","3.40247","24.805","1.324","7.45","0.56","4.361","0.11","0.36","30.0506","4.72944","14.52","0","SATNPRO1962","24.285999999999998","0.34014","5"],
    [33397,"HCEP03730560","2024-09-10 04:15:00","10.9722","3.40253","24.888","1.29","7.45","0.587","4.439","0.11","0.28","30.0503","4.72938","14.15","0","SATNPRO1962","24.372","0.34136","5"],
    [33398,"HCEP03730560","2024-09-10 04:30:00","10.9735","3.40268","24.983","1.296","7.45","0.59","4.269","0.14","0.21","30.0506","4.72942","14.21","0","SATNPRO1962","24.428","0.34214","5"],
    [33399,"HCEP03730560","2024-09-10 04:45:00","10.9745","3.40281","25.081","1.305","7.45","0.646","4.523","0.09","0.23","30.0511","4.72947","14.31","0","SATNPRO1962","24.422","0.34206","5"],
    [33400,"HCEP03730560","2024-09-10 05:00:00","10.9754","3.40295","25.18","1.303","7.45","0.936","4.54","1.05","0.18","30.0517","4.72955","14.29","0","SATNPRO1962","24.21","0.33908","5"],
    [33401,"HCEP03730560","2024-09-10 05:15:00","10.9805","3.40373","25.291","1.313","7.45","0.9","4.654","0.46","0.18","30.0551","4.72997","14.4","0","SATNPRO1962","24.516000000000002","0.34338","5"],
    [33402,"HCEP03730560","2024-09-10 05:30:00","10.9898","3.40494","25.403","1.381","7.46","0.732","4.326","0.21","0.19","30.0593","4.73042","15.15","0","SATNPRO1962","25.483999999999998","0.35692","5"],
    [33403,"HCEP03730560","2024-09-10 05:45:00","10.9979","3.40557","25.526","1.571","7.47","0.701","3.739","0.29","0.33","30.0588","4.73023","17.23","0","SATNPRO1962","27.168","0.38052","5"],
    [33404,"HCEP03730560","2024-09-10 06:00:00","11.0002","3.40586","25.649","1.746","7.48","0.725","3.896","0.22","0.14","30.0598","4.73035","19.15","0","SATNPRO1962","27.862000000000002","0.39024","5"],
    [33405,"HCEP03730560","2024-09-10 06:15:00","10.9994","3.40585","25.78","1.783","7.49","0.706","3.956","0.18","0.16","30.0602","4.73042","19.56","0","SATNPRO1962","27.208000000000002","0.38112","5"],
    [33406,"HCEP03730560","2024-09-10 06:30:00","10.9984","3.40578","25.913","1.752","7.48","0.746","3.946","0.16","0.34","30.0603","4.73046","19.22","0","SATNPRO1962","26.002","0.36422","5"],
    [33407,"HCEP03730560","2024-09-10 06:45:00","10.9925","3.40516","26.062","1.653","7.48","0.874","4.372","0.23","0.57","30.059","4.73038","18.13","0","SATNPRO1962","25.258","0.3538","5"],
    [33408,"HCEP03730560","2024-09-10 07:00:00","10.9909","3.40498","26.214","1.527","7.47","0.697","4.548","0.15","0.32","30.0585","4.73033","16.75","0","SATNPRO1962","24.954","0.34948","5"],
    [33409,"HCEP03730560","2024-09-10 07:15:00","10.9911","3.40491","26.329","1.486","7.47","0.821","4.731","0.33","0.36","30.0576","4.73021","16.3","0","SATNPRO1962","25.368","0.35534","5"],
    [33410,"HCEP03730560","2024-09-10 07:30:00","10.9882","3.40461","26.491","1.48","7.47","0.577","4.315","0.14","0.22","30.057","4.73018","16.23","0","SATNPRO1962","24.84","0.34794","5"],
    [33411,"HCEP03730560","2024-09-10 07:45:00","10.9829","3.40383","26.603","1.392","7.46","0.829","4.362","0.3","0.2","30.0537","4.72979","15.27","0","SATNPRO1962","24.394","0.34166","5"],
    [33412,"HCEP03730560","2024-09-10 08:00:00","10.9781","3.40312","26.68","1.309","7.45","0.582","4.231","0.19","0.14","30.0506","4.72943","14.35","0","SATNPRO1962","24.244","0.33958","5"],
    [33413,"HCEP03730560","2024-09-10 08:15:00","10.9757","3.40264","26.807","1.24","7.45","0.639","4.68","0.09","0.21","30.0478","4.72908","13.6","0","SATNPRO1962","23.792","0.33326","5"],
    [33414,"HCEP03730560","2024-09-10 08:30:00","10.976","3.40273","26.934","1.191","7.44","0.674","4.254","0.17","0.12","30.0484","4.72917","13.06","0","SATNPRO1962","23.566","0.33006","5"],
    [33415,"HCEP03730560","2024-09-10 08:45:00","10.9754","3.4026","27.049","1.176","7.44","0.602","4.229","0.21","0.19","30.0475","4.72906","12.89","0","SATNPRO1962","23.728","0.33234","5"],
    [33416,"HCEP03730560","2024-09-10 09:00:00","10.9753","3.4026","27.083","1.161","7.44","0.639","4.321","0.18","0.27","30.0476","4.72908","12.73","0","SATNPRO1962","23.622","0.33088","5"],
    [33417,"HCEP03730560","2024-09-10 09:15:00","10.9766","3.40289","27.12","1.167","7.44","0.731","4.373","0.17","0.21","30.0494","4.72931","12.8","0","SATNPRO1962","23.718","0.33222","5"],
    [33418,"HCEP03730560","2024-09-10 09:30:00","10.9786","3.40319","27.176","1.187","7.44","0.591","4.332","0.11","0.13","30.0507","4.72947","13.02","0","SATNPRO1962","23.828","0.33382","5"],
    [33419,"HCEP03730560","2024-09-10 09:45:00","10.979","3.4032","27.217","1.201","7.44","0.646","4.063","0.22","0.12","30.0504","4.72943","13.17","0","SATNPRO1962","23.96","0.33564","5"],
    [33420,"HCEP03730560","2024-09-10 10:00:00","10.9822","3.40378","27.233","1.222","7.44","0.64","4.348","0.14","0.19","30.0535","4.72981","13.4","0","SATNPRO1962","23.998","0.3361","5"],
    [33421,"HCEP03730560","2024-09-10 10:15:00","10.9935","3.40478","27.239","1.291","7.45","0.718","4.311","0.15","0.29","30.054","4.72972","14.16","0","SATNPRO1962","24.532","0.3436","5"],
    [33422,"HCEP03730560","2024-09-10 10:30:00","11.0024","3.40607","27.237","1.403","7.46","0.844","4.291","0.48","0.19","30.0594","4.73035","15.4","0","SATNPRO1962","25.032","0.35062","5"],
    [33423,"HCEP03730560","2024-09-10 10:45:00","11.0065","3.40664","27.245","1.486","7.46","0.858","4.51","0.31","0.87","30.0615","4.73059","16.31","0","SATNPRO1962","25.516000000000002","0.3574","5"],
    [33424,"HCEP03730560","2024-09-10 11:00:00","11.0149","3.40821","27.24","1.551","7.47","0.676","4.111","0.23","0.27","30.07","4.73166","17.02","0","SATNPRO1962","25.814","0.36156","5"],
    [33425,"HCEP03730560","2024-09-10 11:15:00","11.0135","3.40807","27.21","1.585","7.47","0.689","4.261","0.17","0.19","30.0699","4.73167","17.4","0","SATNPRO1962","25.62","0.35886","5"],
    [33426,"HCEP03730560","2024-09-10 11:30:00","11.0175","3.40856","27.2","1.596","7.47","0.638","4.311","0.19","0.13","30.0713","4.7318","17.52","0","SATNPRO1962","25.791999999999998","0.36122","5"],
    [33427,"HCEP03730560","2024-09-10 11:45:00","11.0161","3.40837","27.188","1.61","7.48","0.686","4.284","0.15","0.29","30.0707","4.73173","17.68","0","SATNPRO1962","25.756","0.36074","5"],
    [33428,"HCEP03730560","2024-09-10 12:00:00","11.016","3.40836","27.144","1.615","7.48","0.643","4.327","0.19","0.3","30.0707","4.73174","17.73","0","SATNPRO1962","25.83","0.3618","5"],
    [33429,"HCEP03730560","2024-09-10 12:15:00","11.0115","3.40779","27.108","1.616","7.48","0.736","4.316","0.19","0.16","30.0688","4.73154","17.74","0","SATNPRO1962","25.652","0.35928","5"],
    [33430,"HCEP03730560","2024-09-10 12:30:00","11.0112","3.4077","27.055","1.607","7.48","0.78","3.971","0.19","0.28","30.0682","4.73144","17.64","0","SATNPRO1962","25.724","0.36032","5"],
    [33431,"HCEP03730560","2024-09-10 12:45:00","11.0079","3.40731","26.993","1.602","7.48","0.652","4.01","0.13","0.16","30.0671","4.73133","17.58","0","SATNPRO1962","25.746","0.36056","5"],
    [33432,"HCEP03730560","2024-09-10 13:00:00","11.0125","3.40777","26.979","1.617","7.48","0.684","3.72","0.17","0.14","30.0678","4.73137","17.75","0","SATNPRO1962","26.016000000000002","0.3644","5"],
    [33433,"HCEP03730560","2024-09-10 13:15:00","11.01","3.40752","26.936","1.647","7.48","0.729","3.839","0.12","0.13","30.0674","4.73135","18.08","0","SATNPRO1962","25.978","0.36386","5"],
    [33434,"HCEP03730560","2024-09-10 13:30:00","11.0076","3.40726","26.918","1.642","7.48","0.816","3.951","0.17","0.14","30.0669","4.73131","18.02","0","SATNPRO1962","25.904","0.36282","5"],
    [33435,"HCEP03730560","2024-09-10 13:45:00","11.011","3.40774","26.873","1.651","7.48","0.835","3.925","0.17","0.17","30.0688","4.73153","18.12","0","SATNPRO1962","26.224","0.36726","5"],
    [33436,"HCEP03730560","2024-09-10 14:00:00","11.0126","3.40728","26.867","1.689","7.48","0.756","3.648","0.53","0.13","30.063","4.73068","18.54","0","SATNPRO1962","26.352","0.36906","5"],
    [33437,"HCEP03730560","2024-09-10 14:15:00","11.0114","3.40695","26.822","1.708","7.49","0.787","3.694","0.23","0.12","30.0608","4.73038","18.74","0","SATNPRO1962","26.304","0.36842","5"],
    [33438,"HCEP03730560","2024-09-10 14:30:00","11.0088","3.40666","26.764","1.713","7.49","0.63","3.595","0.11","0.13","30.06","4.73031","18.8","0","SATNPRO1962","26.382","0.36948","5"],
    [33439,"HCEP03730560","2024-09-10 14:45:00","11.0056","3.40622","26.778","1.712","7.49","0.688","3.446","0.1","0.12","30.0584","4.73012","18.79","0","SATNPRO1962","26.334","0.36886","5"],
    [33440,"HCEP03730560","2024-09-10 15:00:00","11.0063","3.40634","26.754","1.699","7.49","0.702","3.569","0.14","0.12","30.059","4.7302","18.64","0","SATNPRO1962","26.240000000000002","0.36758","5"],
    [33441,"HCEP03730560","2024-09-10 15:15:00","11.0057","3.40636","26.775","1.67","7.48","0.795","3.734","0.17","0.17","30.0597","4.73031","18.33","0","SATNPRO1962","26.116","0.3658","5"],
    [33442,"HCEP03730560","2024-09-10 15:30:00","11.0021","3.4058","26.743","1.646","7.48","0.771","3.688","0.16","0.23","30.0572","4.73001","18.06","0","SATNPRO1962","25.91","0.36292","5"],
    [33443,"HCEP03730560","2024-09-10 15:45:00","11.0002","3.40558","26.76","1.625","7.48","0.747","3.695","0.14","0.21","30.0565","4.72995","17.83","0","SATNPRO1962","25.786","0.36118","5"],
    [33444,"HCEP03730560","2024-09-10 16:00:00","10.9995","3.40605","26.762","1.599","7.48","0.697","3.797","0.13","0.15","30.0617","4.73069","17.54","0","SATNPRO1962","25.726","0.36034","5"],
    [33445,"HCEP03730560","2024-09-10 16:15:00","11.003","3.40661","26.789","1.589","7.48","0.714","3.734","0.12","0.21","30.0644","4.73101","17.44","0","SATNPRO1962","25.79","0.36122","5"],
    [33446,"HCEP03730560","2024-09-10 16:30:00","11.0052","3.40689","26.815","1.608","7.48","0.659","3.744","0.11","0.16","30.0652","4.73111","17.65","0","SATNPRO1962","25.996","0.3641","5"],
    [33447,"HCEP03730560","2024-09-10 16:45:00","11.0069","3.40714","26.862","1.632","7.48","0.714","3.791","0.18","0.15","30.0662","4.73123","17.92","0","SATNPRO1962","26.106","0.36564","5"],
    [33448,"HCEP03730560","2024-09-10 17:00:00","11.0097","3.40753","26.872","1.657","7.48","0.695","3.818","0.09","0.3","30.0678","4.73141","18.19","0","SATNPRO1962","26.094","0.3655","5"],
    [33449,"HCEP03730560","2024-09-10 17:15:00","11.0139","3.40803","26.918","1.688","7.48","0.676","3.735","0.1","0.12","30.0693","4.73155","18.52","0","SATNPRO1962","26.314","0.3686","5"],
    [33450,"HCEP03730560","2024-09-10 17:30:00","11.0182","3.40863","26.948","1.715","7.49","0.721","3.947","0.26","0.15","30.0716","4.73182","18.83","0","SATNPRO1962","26.310000000000002","0.3685","5"],
    [33451,"HCEP03730560","2024-09-10 17:45:00","11.0215","3.40906","27.025","1.721","7.49","0.736","3.9","0.13","0.29","30.0731","4.73198","18.9","0","SATNPRO1962","26.13","0.366","5"],
    [33452,"HCEP03730560","2024-09-10 18:00:00","11.023","3.40936","27.062","1.695","7.48","0.701","4.032","0.18","0.2","30.0747","4.7322","18.6","0","SATNPRO1962","25.712","0.36014","5"],
    [33453,"HCEP03730560","2024-09-10 18:15:00","11.0305","3.41033","27.109","1.665","7.48","0.665","4.091","0.16","0.2","30.0781","4.73256","18.28","0","SATNPRO1962","25.902","0.3628","5"],
    [33454,"HCEP03730560","2024-09-10 18:30:00","11.0287","3.41006","27.088","1.701","7.49","0.683","3.862","0.16","0.15","30.0769","4.73242","18.68","0","SATNPRO1962","26.224","0.3673","5"],
    [33455,"HCEP03730560","2024-09-10 18:45:00","11.0347","3.41089","27.089","1.741","7.49","0.653","4.007","0.08","0.12","30.0802","4.7328","19.12","0","SATNPRO1962","26.118","0.36584","5"],
    [33456,"HCEP03730560","2024-09-10 19:00:00","11.0316","3.41045","27.162","1.758","7.49","0.605","3.808","0.11","0.09","30.0784","4.73258","19.31","0","SATNPRO1962","26.276","0.36806","5"],
    [33457,"HCEP03730560","2024-09-10 19:15:00","11.0483","3.41314","27.102","1.753","7.49","0.74","4.64","0.08","0.14","30.091","4.73411","19.26","0","SATNPRO1962","25.368","0.35532","5"],
    [33458,"HCEP03730560","2024-09-10 19:30:00","11.0565","3.41457","27.154","1.726","7.49","0.755","4.89","0.12","0.17","30.0982","4.73502","18.97","0","SATNPRO1962","24.767999999999997","0.34696","5"],
    [33459,"HCEP03730560","2024-09-10 19:45:00","11.0559","3.41441","27.191","1.7","7.49","0.83","5.013","0.1","0.19","30.0972","4.73489","18.68","0","SATNPRO1962","25.018","0.35042","5"],
    [33460,"HCEP03730560","2024-09-10 20:00:00","11.0634","3.41553","27.208","1.74","7.49","0.763","4.76","0.14","0.33","30.102","4.73545","19.12","0","SATNPRO1962","25.52","0.35752","5"],
    [33461,"HCEP03730560","2024-09-10 20:15:00","11.0695","3.41658","27.209","1.816","7.5","0.725","4.398","0.23","0.15","30.1072","4.73611","19.97","0","SATNPRO1962","25.532","0.3576","5"],
    [33462,"HCEP03730560","2024-09-10 20:30:00","11.0726","3.41689","27.199","1.865","7.5","0.842","4.72","0.16","0.3","30.1077","4.73612","20.5","0","SATNPRO1962","25.75","0.3607","5"],
    [33463,"HCEP03730560","2024-09-10 20:45:00","11.0473","3.4126","27.204","1.853","7.5","0.702","3.991","0.26","0.15","30.0865","4.7335","20.35","0","SATNPRO1962","26.026","0.36452","5"],
    [33464,"HCEP03730560","2024-09-10 21:00:00","11.0544","3.41381","27.207","1.799","7.5","0.6","4.082","0.15","0.16","30.0925","4.73425","19.77","0","SATNPRO1962","25.919999999999998","0.36304","5"],
    [33465,"HCEP03730560","2024-09-10 21:15:00","11.0522","3.41339","27.193","1.789","7.5","0.539","3.731","0.12","0.08","30.0902","4.73395","19.65","0","SATNPRO1962","25.882","0.3625","5"],
    [33466,"HCEP03730560","2024-09-10 21:30:00","11.058","3.41436","27.141","1.794","7.5","0.524","4.073","0.15","0.1","30.095","4.73454","19.72","0","SATNPRO1962","25.732000000000003","0.36042","5"],
    [33467,"HCEP03730560","2024-09-10 21:45:00","11.0543","3.41372","27.08","1.783","7.5","0.463","3.512","0.1","0.1","30.0918","4.73414","19.59","0","SATNPRO1962","25.956","0.36354","5"],
    [33468,"HCEP03730560","2024-09-10 22:00:00","11.0539","3.41366","27.04","1.777","7.5","0.391","3.555","0.07","0.07","30.0915","4.7341","19.53","0","SATNPRO1962","26.146","0.3662","5"],
    [33469,"HCEP03730560","2024-09-10 22:15:00","11.0443","3.41207","26.953","1.779","7.5","0.357","3.332","0.05","0.08","30.0839","4.73317","19.54","0","SATNPRO1962","26.182","0.3667","5"],
    [33470,"HCEP03730560","2024-09-10 22:30:00","11.0651","3.41556","26.857","1.798","7.5","0.486","3.957","0.17","0.17","30.101","4.73527","19.76","0","SATNPRO1962","25.77","0.36098","5"],
    [33471,"HCEP03730560","2024-09-10 22:45:00","11.0527","3.41355","26.752","1.794","7.5","0.41","3.71","0.06","0.03","30.0915","4.7341","19.71","0","SATNPRO1962","25.766","0.36088","5"],
    [33472,"HCEP03730560","2024-09-10 23:00:00","11.049","3.41317","26.63","1.751","7.49","0.343","3.839","0.05","0.19","30.0909","4.73407","19.24","0","SATNPRO1962","24.828","0.3478","5"],
    [33473,"HCEP03730560","2024-09-10 23:15:00","11.0388","3.41165","26.508","1.708","7.49","0.527","3.802","0.27","0.1","30.0844","4.7333","18.76","0","SATNPRO1962","25.573999999999998","0.3582","5"],
    [33474,"HCEP03730560","2024-09-10 23:30:00","11.0341","3.41102","26.386","1.674","7.49","0.354","3.498","0.04","0.04","30.0822","4.73305","18.39","0","SATNPRO1962","25.722","0.36026","5"],
    [33475,"HCEP03730560","2024-09-10 23:45:00","11.0275","3.41005","26.25","1.629","7.48","0.501","3.55","0.04","0.04","30.0782","4.73257","17.89","0","SATNPRO1962","25.466","0.35668","5"],
    [33476,"HCEP03730560","2024-09-11 00:00:00","11.0246","3.40956","26.109","1.598","7.48","0.846","3.894","0.9","0.15","30.0757","4.73226","17.54","0","SATNPRO1962","25.432","0.3562","5"],
    [33477,"HCEP03730560","2024-09-11 00:15:00","11.0213","3.40915","25.967","1.583","7.48","0.483","3.835","0.1","0.19","30.0745","4.73212","17.38","0","SATNPRO1962","25.084","0.35136","5"],
    [33478,"HCEP03730560","2024-09-11 00:30:00","11.019","3.40887","25.816","1.568","7.48","0.519","3.697","0.12","0.05","30.0738","4.73205","17.22","0","SATNPRO1962","25.118","0.35184","5"],
    [33479,"HCEP03730560","2024-09-11 00:45:00","11.0177","3.40856","25.656","1.585","7.48","0.596","4.482","0.12","0.32","30.0718","4.73179","17.4","0","SATNPRO1962","25.992","0.36404","5"],
    [33480,"HCEP03730560","2024-09-11 01:00:00","11.0172","3.40843","25.548","1.654","7.48","0.442","3.59","0.09","0.14","30.071","4.73167","18.16","0","SATNPRO1962","26.194","0.36688","5"],
    [33481,"HCEP03730560","2024-09-11 01:15:00","11.017","3.40842","25.389","1.695","7.48","0.484","3.662","0.08","0.15","30.0711","4.73169","18.61","0","SATNPRO1962","26.21","0.36714","5"],
    [33482,"HCEP03730560","2024-09-11 01:30:00","11.0168","3.40849","25.286","1.671","7.48","0.48","3.771","0.09","0.1","30.0719","4.73179","18.35","0","SATNPRO1962","25.91","0.36294","5"],
    [33483,"HCEP03730560","2024-09-11 01:45:00","11.0164","3.40835","25.137","1.641","7.48","0.458","3.641","0.07","0.1","30.071","4.73166","18.01","0","SATNPRO1962","26.032","0.3646","5"],
    [33484,"HCEP03730560","2024-09-11 02:00:00","11.0145","3.40795","25.009","1.654","7.48","0.465","3.624","0.07","0.1","30.0687","4.73136","18.16","0","SATNPRO1962","26.03","0.36456","5"],
    [33485,"HCEP03730560","2024-09-11 02:15:00","11.0166","3.40843","24.918","1.629","7.48","0.519","3.73","0.07","0.1","30.0718","4.73175","17.88","0","SATNPRO1962","25.418","0.35602","5"],
    [33486,"HCEP03730560","2024-09-11 02:30:00","11.0314","3.41072","24.808","1.579","7.48","0.63","4.26","0.13","0.38","30.0821","4.73298","17.34","0","SATNPRO1962","25.186","0.35274","5"],
    [33487,"HCEP03730560","2024-09-11 02:45:00","11.0188","3.40871","24.764","1.57","7.48","0.475","3.567","0.11","0.1","30.0727","4.73185","17.24","0","SATNPRO1962","25.856","0.36212","5"],
    [33488,"HCEP03730560","2024-09-11 03:00:00","11.0157","3.40831","24.712","1.6","7.48","0.443","3.323","0.15","0.1","30.0713","4.73169","17.56","0","SATNPRO1962","26.712","0.37414","5"],
    [33489,"HCEP03730560","2024-09-11 03:15:00","11.0149","3.40811","24.653","1.646","7.48","0.422","3.251","0.08","0.09","30.0702","4.73154","18.07","0","SATNPRO1962","26.488","0.371","5"],
    [33490,"HCEP03730560","2024-09-11 03:30:00","11.0155","3.40814","24.595","1.682","7.48","0.506","3.345","0.41","0.08","30.07","4.7315","18.46","0","SATNPRO1962","26.51","0.37136","5"],
    [33491,"HCEP03730560","2024-09-11 03:45:00","11.0145","3.40803","24.658","1.68","7.48","0.441","3.479","0.08","0.11","30.0696","4.73147","18.45","0","SATNPRO1962","26.242","0.3676","5"],
    [33492,"HCEP03730560","2024-09-11 04:00:00","11.0135","3.40794","24.659","1.65","7.48","0.459","3.254","0.19","0.21","30.0696","4.73148","18.11","0","SATNPRO1962","26.612","0.37276","5"],
    [33493,"HCEP03730560","2024-09-11 04:15:00","11.0128","3.40779","24.69","1.645","7.48","0.433","3.025","0.09","0.09","30.0687","4.73136","18.05","0","SATNPRO1962","26.418","0.37004","5"],
    [33494,"HCEP03730560","2024-09-11 04:30:00","11.0126","3.40774","24.705","1.626","7.48","0.424","3.055","0.11","0.17","30.0683","4.73132","17.85","0","SATNPRO1962","26.256","0.36776","5"],
    [33495,"HCEP03730560","2024-09-11 04:45:00","11.0115","3.40762","24.768","1.623","7.48","0.447","3.113","0.12","0.1","30.068","4.73129","17.82","0","SATNPRO1962","26.196","0.36694","5"],
    [33496,"HCEP03730560","2024-09-11 05:00:00","11.0255","3.40966","24.801","1.544","7.47","0.577","3.879","0.22","0.19","30.0766","4.73229","16.96","0","SATNPRO1962","24.972","0.34974","5"],
    [33497,"HCEP03730560","2024-09-11 05:15:00","11.0177","3.40862","24.839","1.471","7.47","0.444","3.406","0.1","0.09","30.0728","4.73187","16.14","0","SATNPRO1962","25.592","0.35846","5"],
    [33498,"HCEP03730560","2024-09-11 05:30:00","11.0087","3.40698","24.972","1.524","7.47","0.497","3.005","0.33","0.07","30.0639","4.73077","16.72","0","SATNPRO1962","26.092","0.36546","5"],
    [33499,"HCEP03730560","2024-09-11 05:45:00","11.0003","3.40584","25.053","1.534","7.47","0.412","3.065","0.12","0.17","30.0597","4.7303","16.83","0","SATNPRO1962","25.662","0.3594","5"],
    [33500,"HCEP03730560","2024-09-11 06:00:00","11.0105","3.40742","25.171","1.538","7.47","0.46","3.085","0.17","0.17","30.0668","4.73115","16.88","0","SATNPRO1962","26.082","0.3653","5"],
    [33501,"HCEP03730560","2024-09-11 06:15:00","11.0213","3.40893","25.273","1.572","7.48","0.447","3.186","0.13","0.16","30.0726","4.73182","17.26","0","SATNPRO1962","26.148","0.3663","5"],
    [33502,"HCEP03730560","2024-09-11 06:30:00","11.0202","3.40881","25.403","1.564","7.47","0.593","3.375","0.18","0.26","30.0724","4.73181","17.17","0","SATNPRO1962","25.772","0.36098","5"],
    [33503,"HCEP03730560","2024-09-11 06:45:00","11.0368","3.41162","25.51","1.481","7.47","0.651","4.411","0.39","0.2","30.0862","4.73352","16.26","0","SATNPRO1962","24.4","0.34178","5"],
    [33504,"HCEP03730560","2024-09-11 07:00:00","11.0262","3.40989","25.604","1.404","7.46","0.58","4.465","0.18","0.25","30.0779","4.73251","15.42","0","SATNPRO1962","24.562","0.34402","5"],
    [33505,"HCEP03730560","2024-09-11 07:15:00","11.011","3.40782","25.746","1.328","7.46","0.524","4","0.26","0.35","30.07","4.73164","14.57","0","SATNPRO1962","24.334","0.34084","5"],
    [33506,"HCEP03730560","2024-09-11 07:30:00","11.0012","3.40567","25.893","1.251","7.45","0.488","3.827","0.25","0.27","30.0569","4.72994","13.73","0","SATNPRO1962","24.098","0.33756","5"],
    [33507,"HCEP03730560","2024-09-11 07:45:00","10.9926","3.40507","25.849","1.204","7.45","0.575","3.68","0.29","0.75","30.0581","4.73024","13.21","0","SATNPRO1962","24.436","0.3423","5"],
    [33508,"HCEP03730560","2024-09-11 08:00:00","10.983","3.40348","25.996","1.184","7.44","0.429","3.196","0.12","0.13","30.0503","4.72929","12.98","0","SATNPRO1962","24.096","0.33752","5"],
    [33509,"HCEP03730560","2024-09-11 08:15:00","10.985","3.40379","26.208","1.148","7.44","0.467","3.112","0.13","0.09","30.0516","4.72945","12.59","0","SATNPRO1962","24.178","0.33864","5"],
    [33510,"HCEP03730560","2024-09-11 08:30:00","10.9873","3.40428","26.263","1.147","7.44","0.469","3.019","0.16","0.17","30.0546","4.72984","12.58","0","SATNPRO1962","24.218","0.33922","5"],
    [33511,"HCEP03730560","2024-09-11 08:45:00","10.9964","3.40559","26.394","1.176","7.44","0.458","3.14","0.09","0.15","30.0599","4.73046","12.9","0","SATNPRO1962","24.258","0.33978","5"],
    [33512,"HCEP03730560","2024-09-11 09:00:00","11.0001","3.40628","26.526","1.186","7.44","0.454","3.724","0.08","0.17","30.0636","4.73093","13.01","0","SATNPRO1962","23.552","0.32988","5"],
    [33513,"HCEP03730560","2024-09-11 09:15:00","10.9978","3.40594","26.631","1.151","7.44","0.526","3.717","0.18","0.27","30.0621","4.73077","12.63","0","SATNPRO1962","23.766","0.33284","5"],
    [33514,"HCEP03730560","2024-09-11 09:30:00","10.997","3.40596","26.73","1.13","7.43","0.531","3.775","0.15","0.28","30.0628","4.73089","12.4","0","SATNPRO1962","23.436","0.32826","5"],
    [33515,"HCEP03730560","2024-09-11 09:45:00","10.9943","3.40562","26.813","1.099","7.43","0.499","4.247","0.12","1.49","30.0617","4.73078","12.05","0","SATNPRO1962","23.216","0.32518","5"],
    [33516,"HCEP03730560","2024-09-11 10:00:00","10.9907","3.40496","26.894","1.072","7.43","0.381","3.681","0.08","0.09","30.0582","4.73033","11.76","0","SATNPRO1962","23.312","0.32654","5"],
    [33517,"HCEP03730560","2024-09-11 10:15:00","10.9879","3.40447","26.959","1.031","7.43","0.404","3.752","0.09","0.14","30.0557","4.73003","11.31","0","SATNPRO1962","23.042","0.32272","5"],
    [33518,"HCEP03730560","2024-09-11 10:30:00","10.9853","3.40398","27.01","0.994","7.42","0.647","3.947","0.57","0.38","30.053","4.72969","10.9","0","SATNPRO1962","22.868000000000002","0.32026","5"],
    [33519,"HCEP03730560","2024-09-11 10:45:00","10.985900000000001","3.40401","27.046","0.995","7.42","0.41","3.404","0.12","0.11","30.0528","4.72965","10.91","0","SATNPRO1962","23.482","0.3289","5"],
    [33520,"HCEP03730560","2024-09-11 11:00:00","10.9921","3.40492","27.077","1.049","7.43","0.418","3.373","0.15","0.1","30.0566","4.7301","11.51","0","SATNPRO1962","23.59","0.33044","5"],
    [33521,"HCEP03730560","2024-09-11 11:15:00","10.9959","3.40545","27.104","1.097","7.43","0.574","3.358","0.51","0.32","30.0586","4.73032","12.03","0","SATNPRO1962","24.132","0.33804","5"],
    [33522,"HCEP03730560","2024-09-11 11:30:00","11.0034","3.40625","27.126","1.126","7.43","0.445","3.195","0.21","0.13","30.0603","4.73046","12.36","0","SATNPRO1962","24.188000000000002","0.33878","5"],
    [33523,"HCEP03730560","2024-09-11 11:45:00","11.0049","3.40632","27.139","1.183","7.44","0.352","3.159","0.06","0.08","30.0598","4.73036","12.98","0","SATNPRO1962","24.554","0.34388","5"],
    [33524,"HCEP03730560","2024-09-11 12:00:00","11.0054","3.4062","27.153","1.221","7.44","0.344","3.345","0.07","0.11","30.0582","4.73012","13.4","0","SATNPRO1962","24.746","0.34662","5"],
    [33525,"HCEP03730560","2024-09-11 12:15:00","11.0135","3.40749","27.161","1.26","7.44","0.394","3.548","0.11","0.22","30.0642","4.73085","13.83","0","SATNPRO1962","24.714","0.34616","5"],
    [33526,"HCEP03730560","2024-09-11 12:30:00","11.0147","3.40768","27.159","1.302","7.45","0.371","3.411","0.08","0.14","30.0651","4.73096","14.29","0","SATNPRO1962","24.951999999999998","0.3495","5"],
    [33527,"HCEP03730560","2024-09-11 12:45:00","11.0125","3.40752","27.152","1.292","7.45","0.427","3.701","0.11","0.32","30.0654","4.73104","14.18","0","SATNPRO1962","24.502","0.3432","5"],
    [33528,"HCEP03730560","2024-09-11 13:00:00","11.0063","3.40704","27.137","1.239","7.44","0.378","3.436","0.07","0.14","30.0657","4.73117","13.6","0","SATNPRO1962","24.08","0.33726","5"],
    [33529,"HCEP03730560","2024-09-11 13:15:00","11.0036","3.40686","27.122","1.198","7.44","0.422","3.618","0.11","0.24","30.0661","4.73127","13.15","0","SATNPRO1962","24.31","0.34054","5"],
    [33530,"HCEP03730560","2024-09-11 13:30:00","11.0103","3.4078","27.094","1.221","7.44","0.389","3.417","0.11","0.22","30.07","4.73171","13.41","0","SATNPRO1962","24.488","0.34296","5"],
    [33531,"HCEP03730560","2024-09-11 13:45:00","11.0165","3.4085","27.072","1.233","7.44","0.521","3.024","0.32","0.46","30.0716","4.73185","13.53","0","SATNPRO1962","24.96","0.34958","5"],
    [33532,"HCEP03730560","2024-09-11 14:00:00","11.0146","3.40824","27.048","1.287","7.45","0.373","2.746","0.09","0.1","30.0707","4.73175","14.13","0","SATNPRO1962","25.64","0.3591","5"],
    [33533,"HCEP03730560","2024-09-11 14:15:00","11.0194","3.40902","27.01","1.411","7.46","0.525","3.698","0.12","0.23","30.0744","4.73221","15.49","0","SATNPRO1962","24.978","0.34984","5"],
    [33534,"HCEP03730560","2024-09-11 14:30:00","11.0305","3.41079","26.972","1.462","7.46","0.516","3.674","0.13","0.36","30.0826","4.73319","16.05","0","SATNPRO1962","25.404","0.35582","5"],
    [33535,"HCEP03730560","2024-09-11 14:45:00","11.0388","3.41175","26.929","1.518","7.47","0.637","3.689","0.45","0.19","30.0853","4.73345","16.67","0","SATNPRO1962","25.712","0.36014","5"],
    [33536,"HCEP03730560","2024-09-11 15:00:00","11.0423","3.4122","26.901","1.577","7.47","0.652","4.154","0.14","0.41","30.0869","4.73361","17.32","0","SATNPRO1962","25.704","0.36008","5"],
    [33537,"HCEP03730560","2024-09-11 15:15:00","11.0467","3.41264","26.855","1.614","7.48","0.636","3.644","0.11","0.14","30.0875","4.73363","17.73","0","SATNPRO1962","25.652","0.35932","5"],
    [33538,"HCEP03730560","2024-09-11 15:30:00","11.0572","3.41411","26.811","1.667","7.48","0.682","3.68","0.14","0.28","30.0933","4.7343","18.32","0","SATNPRO1962","26.166","0.36648","5"],
    [33539,"HCEP03730560","2024-09-11 15:45:00","11.0632","3.41482","26.783","1.774","7.49","0.702","3.645","0.16","0.19","30.0954","4.7345","19.49","0","SATNPRO1962","25.918","0.36298","5"],
    [33540,"HCEP03730560","2024-09-11 16:00:00","11.0582","3.41419","26.773","1.801","7.49","0.661","3.758","0.12","0.37","30.0933","4.73428","19.79","0","SATNPRO1962","25.772","0.361","5"],
    [33541,"HCEP03730560","2024-09-11 16:15:00","11.0529","3.41338","26.764","1.754","7.49","0.636","3.584","0.16","0.16","30.0897","4.73385","19.27","0","SATNPRO1962","25.706","0.36006","5"],
    [33542,"HCEP03730560","2024-09-11 16:30:00","11.0487","3.41269","26.755","1.728","7.49","0.594","3.516","0.15","0.19","30.0864","4.73344","18.98","0","SATNPRO1962","26.029999999999998","0.3646","5"],
    [33543,"HCEP03730560","2024-09-11 16:45:00","11.0458","3.41226","26.745","1.718","7.49","0.547","3.482","0.1","0.14","30.0846","4.73324","18.87","0","SATNPRO1962","26.056","0.36496","5"],
    [33544,"HCEP03730560","2024-09-11 17:00:00","11.0458","3.41234","26.74","1.689","7.48","0.529","3.748","0.13","0.55","30.0854","4.73334","18.55","0","SATNPRO1962","25.74","0.3605","5"],
    [33545,"HCEP03730560","2024-09-11 17:15:00","11.0431","3.41196","26.738","1.665","7.48","0.504","3.447","0.11","0.12","30.0839","4.73317","18.28","0","SATNPRO1962","25.618","0.35884","5"],
    [33546,"HCEP03730560","2024-09-11 17:30:00","11.0426","3.41189","26.734","1.638","7.48","0.527","3.603","0.09","0.29","30.0836","4.73313","17.99","0","SATNPRO1962","25.47","0.35676","5"],
    [33547,"HCEP03730560","2024-09-11 17:45:00","11.0385","3.41126","26.757","1.618","7.48","0.487","3.529","0.09","0.18","30.0808","4.73281","17.77","0","SATNPRO1962","25.448","0.35646","5"],
    [33548,"HCEP03730560","2024-09-11 18:00:00","11.0379","3.41124","26.773","1.599","7.48","0.485","3.564","0.19","0.2","30.081","4.73284","17.56","0","SATNPRO1962","25.246","0.3536","5"],
    [33549,"HCEP03730560","2024-09-11 18:15:00","11.0351","3.41079","26.788","1.575","7.48","0.464","3.508","0.08","0.18","30.079","4.7326","17.3","0","SATNPRO1962","25.298000000000002","0.35434","5"],
    [33550,"HCEP03730560","2024-09-11 18:30:00","11.0333","3.41052","26.804","1.559","7.47","0.376","3.39","0.06","0.15","30.0778","4.73246","17.12","0","SATNPRO1962","25.174","0.35264","5"],
    [33551,"HCEP03730560","2024-09-11 18:45:00","11.0314","3.4102","26.854","1.545","7.47","0.491","3.37","0.12","0.21","30.0762","4.73226","16.97","0","SATNPRO1962","25.224","0.3533","5"],
    [33552,"HCEP03730560","2024-09-11 19:00:00","11.0299","3.41004","26.961","1.528","7.47","0.462","3.401","0.19","0.24","30.0758","4.73223","16.78","0","SATNPRO1962","25.272000000000002","0.35398","5"],
    [33553,"HCEP03730560","2024-09-11 19:15:00","11.0266","3.40962","26.934","1.506","7.47","0.411","3.59","0.06","0.24","30.0744","4.73208","16.53","0","SATNPRO1962","24.974","0.34982","5"],
    [33554,"HCEP03730560","2024-09-11 19:30:00","11.0244","3.40926","26.971","1.474","7.47","0.382","3.324","0.07","0.21","30.0727","4.73188","16.19","0","SATNPRO1962","24.736","0.3465","5"],
    [33555,"HCEP03730560","2024-09-11 19:45:00","11.0221","3.40898","26.994","1.439","7.46","0.493","3.332","0.18","0.16","30.0718","4.73178","15.8","0","SATNPRO1962","24.766","0.34684","5"],
    [33556,"HCEP03730560","2024-09-11 20:00:00","11.0185","3.40849","27.042","1.41","7.46","0.342","3.281","0.08","0.12","30.0699","4.73157","15.48","0","SATNPRO1962","24.412","0.34194","5"],
    [33557,"HCEP03730560","2024-09-11 20:15:00","11.0179","3.40837","27.07","1.384","7.46","0.369","3.306","0.05","0.29","30.0693","4.7315","15.19","0","SATNPRO1962","24.49","0.34304","5"],
    [33558,"HCEP03730560","2024-09-11 20:30:00","11.0184","3.4085","27.114","1.373","7.46","0.353","3.192","0.09","0.06","30.0701","4.73161","15.07","0","SATNPRO1962","24.356","0.34116","5"],
    [33559,"HCEP03730560","2024-09-11 20:45:00","11.0193","3.4086","27.135","1.366","7.46","0.471","3.337","0.16","0.19","30.0703","4.73163","15","0","SATNPRO1962","24.708000000000002","0.34604","5"],
    [33560,"HCEP03730560","2024-09-11 21:00:00","11.0177","3.40837","27.133","1.351","7.45","0.327","4.092","0.05","1.23","30.0694","4.73152","14.83","0","SATNPRO1962","24.272","0.33998","5"],
    [33561,"HCEP03730560","2024-09-11 21:15:00","11.0132","3.40771","27.128","1.332","7.45","0.401","3.356","0.17","0.05","30.0666","4.7312","14.62","0","SATNPRO1962","24.26","0.3398","5"],
    [33562,"HCEP03730560","2024-09-11 21:30:00","11.013","3.40773","27.106","1.308","7.45","0.318","3.672","0.09","0.31","30.067","4.73125","14.36","0","SATNPRO1962","24.206","0.33906","5"],
    [33563,"HCEP03730560","2024-09-11 21:45:00","11.0041","3.40641","27.079","1.289","7.45","0.531","3.024","0.28","0.04","30.0614","4.73059","14.14","0","SATNPRO1962","24.316","0.34064","5"],
    [33564,"HCEP03730560","2024-09-11 22:00:00","10.9983","3.40555","27.051","1.27","7.45","0.331","3.151","0.11","0.12","30.0578","4.73017","13.93","0","SATNPRO1962","24.192","0.33888","5"],
    [33565,"HCEP03730560","2024-09-11 22:15:00","11.0019","3.40607","27.029","1.263","7.45","1","3.576","2.36","1.3","30.0598","4.7304","13.86","0","SATNPRO1962","24.274","0.33998","5"],
    [33566,"HCEP03730560","2024-09-11 22:30:00","11.0047","3.40647","26.985","1.285","7.45","0.322","3.204","0.11","0.08","30.0615","4.73059","14.1","0","SATNPRO1962","24.598","0.34458","5"],
    [33567,"HCEP03730560","2024-09-11 22:45:00","11.0058","3.40655","26.936","1.315","7.45","0.314","2.937","0.04","0.11","30.0614","4.73056","14.43","0","SATNPRO1962","24.784","0.3471","5"],
    [33568,"HCEP03730560","2024-09-11 23:00:00","11.0094","3.40707","26.834","1.356","7.45","0.275","2.962","0.03","0.06","30.0635","4.7308","14.88","0","SATNPRO1962","24.944","0.3494","5"],
    [33569,"HCEP03730560","2024-09-11 23:15:00","11.0147","3.40776","26.752","1.409","7.46","0.376","2.974","0.11","0.11","30.0661","4.73107","15.47","0","SATNPRO1962","24.838","0.3479","5"],
    [33570,"HCEP03730560","2024-09-11 23:30:00","11.0202","3.40863","26.676","1.445","7.46","0.363","3.259","0.29","0.22","30.0701","4.73156","15.87","0","SATNPRO1962","25.138","0.3521","5"],
    [33571,"HCEP03730560","2024-09-11 23:45:00","11.0276","3.40967","26.587","1.459","7.46","0.319","3.249","0.04","0.2","30.0742","4.73203","16.02","0","SATNPRO1962","25.142","0.35216","5"],
    [33572,"HCEP03730560","2024-09-12 00:00:00","11.0343","3.41066","26.48","1.485","7.46","0.301","3.223","0.04","0.12","30.0785","4.73252","16.31","0","SATNPRO1962","25.074","0.3512","5"],
    [33573,"HCEP03730560","2024-09-12 00:15:00","11.0386","3.41124","26.37","1.525","7.47","0.439","3.237","0.18","0.09","30.0806","4.73276","16.75","0","SATNPRO1962","25.418","0.35598","5"],
    [33574,"HCEP03730560","2024-09-12 00:30:00","11.0439","3.41209","26.243","1.553","7.47","0.329","3.472","0.04","0.07","30.0847","4.73324","17.06","0","SATNPRO1962","25.254","0.35372","5"],
    [33575,"HCEP03730560","2024-09-12 00:45:00","11.0474","3.41262","26.118","1.555","7.47","0.45","3.777","0.14","0.1","30.087","4.73351","17.09","0","SATNPRO1962","25.296","0.35434","5"],
    [33576,"HCEP03730560","2024-09-12 01:00:00","11.0486","3.41289","25.989","1.559","7.47","0.402","3.864","0.07","0.24","30.0887","4.73373","17.12","0","SATNPRO1962","25.008","0.35026","5"],
    [33577,"HCEP03730560","2024-09-12 01:15:00","11.0503","3.41304","25.863","1.574","7.47","0.483","3.844","0.14","0.12","30.0889","4.73372","17.3","0","SATNPRO1962","25.334","0.3548","5"],
    [33578,"HCEP03730560","2024-09-12 01:30:00","11.05","3.41301","25.726","1.613","7.48","0.357","3.568","0.07","0.11","30.0889","4.73371","17.72","0","SATNPRO1962","25.718","0.3602","5"],
    [33579,"HCEP03730560","2024-09-12 01:45:00","11.0496","3.41282","25.595","1.651","7.48","0.396","3.463","0.08","0.16","30.0873","4.7335","18.14","0","SATNPRO1962","25.806","0.36144","5"],
    [33580,"HCEP03730560","2024-09-12 02:00:00","11.049","3.41282","25.458","1.665","7.48","0.404","3.539","0.11","0.11","30.0879","4.73357","18.3","0","SATNPRO1962","25.846","0.362","5"],
    [33581,"HCEP03730560","2024-09-12 02:15:00","11.0422","3.4117","25.322","1.633","7.48","0.393","3.362","0.1","0.11","30.0826","4.73292","17.93","0","SATNPRO1962","25.766","0.3609","5"],
    [33582,"HCEP03730560","2024-09-12 02:30:00","11.0391","3.41139","25.188","1.585","7.48","0.381","3.723","0.1","0.13","30.0822","4.73291","17.41","0","SATNPRO1962","25.538","0.3577","5"],
    [33583,"HCEP03730560","2024-09-12 02:45:00","11.035","3.41087","25.066","1.539","7.47","0.442","3.795","0.14","0.35","30.0805","4.73271","16.9","0","SATNPRO1962","25.381999999999998","0.3555","5"],
    [33584,"HCEP03730560","2024-09-12 03:00:00","11.0353","3.41094","24.954","1.501","7.47","0.42","3.874","0.12","0.17","30.081","4.73278","16.48","0","SATNPRO1962","25.45","0.35646","5"],
    [33585,"HCEP03730560","2024-09-12 03:15:00","11.0352","3.4109","24.861","1.481","7.47","0.49","4.173","0.13","0.38","30.0807","4.73274","16.26","0","SATNPRO1962","24.814","0.34756","5"],
    [33586,"HCEP03730560","2024-09-12 03:30:00","11.0337","3.41072","24.776","1.459","7.47","0.434","4.07","0.1","0.17","30.0802","4.73269","16.02","0","SATNPRO1962","25.156","0.35238","5"],
    [33587,"HCEP03730560","2024-09-12 03:45:00","11.0314","3.41036","24.699","1.434","7.46","0.423","4.124","0.09","0.29","30.0786","4.73248","15.75","0","SATNPRO1962","25.068","0.35116","5"],
    [33588,"HCEP03730560","2024-09-12 04:00:00","11.0294","3.41011","24.635","1.404","7.46","0.419","4.088","0.07","0.17","30.0778","4.7324","15.42","0","SATNPRO1962","25.09","0.35144","5"],
    [33589,"HCEP03730560","2024-09-12 04:15:00","11.0238","3.4094","24.555","1.367","7.46","0.441","3.932","0.08","0.13","30.0755","4.73215","15.01","0","SATNPRO1962","24.696","0.3459","5"],
    [33590,"HCEP03730560","2024-09-12 04:30:00","11.0187","3.40864","24.504","1.31","7.45","0.537","4.765","0.12","0.52","30.0722","4.73176","14.38","0","SATNPRO1962","24.57","0.34416","5"],
    [33591,"HCEP03730560","2024-09-12 04:45:00","11.0125","3.40763","24.464","1.247","7.45","0.511","4.426","0.1","0.33","30.0675","4.73118","13.69","0","SATNPRO1962","24.256","0.33972","5"],
    [33592,"HCEP03730560","2024-09-12 05:00:00","11.0096","3.40739","24.442","1.197","7.44","0.391","3.76","0.06","0.12","30.0674","4.73121","13.14","0","SATNPRO1962","24.188","0.3388","5"],
    [33593,"HCEP03730560","2024-09-12 05:15:00","11.0112","3.40756","24.499","1.167","7.44","0.438","3.597","0.08","0.09","30.0678","4.73125","12.8","0","SATNPRO1962","24.006","0.33624","5"],
    [33594,"HCEP03730560","2024-09-12 05:30:00","11.0084","3.40707","24.523","1.148","7.44","0.434","3.545","0.07","0.13","30.0654","4.73095","12.6","0","SATNPRO1962","24.072","0.33716","5"],
    [33595,"HCEP03730560","2024-09-12 05:45:00","11.0069","3.40669","24.554","1.132","7.44","0.473","3.509","0.18","0.16","30.0628","4.73061","12.43","0","SATNPRO1962","23.928","0.33516","5"],
    [33596,"HCEP03730560","2024-09-12 06:00:00","11.0082","3.40692","24.629","1.117","7.43","0.405","3.535","0.08","0.14","30.0639","4.73075","12.26","0","SATNPRO1962","23.888","0.33458","5"],
    [33597,"HCEP03730560","2024-09-12 06:15:00","11.0092","3.40704","24.688","1.11","7.43","0.495","3.604","0.18","0.19","30.0643","4.73079","12.18","0","SATNPRO1962","23.994","0.3361","5"],
    [33598,"HCEP03730560","2024-09-12 06:30:00","11.0105","3.40723","24.79","1.111","7.43","0.481","3.606","0.34","0.18","30.065","4.73088","12.2","0","SATNPRO1962","23.884","0.33454","5"],
    [33599,"HCEP03730560","2024-09-12 06:45:00","11.0124","3.40765","24.879","1.116","7.43","0.391","3.473","0.06","0.15","30.0676","4.73122","12.25","0","SATNPRO1962","23.958000000000002","0.33558","5"],
    [33600,"HCEP03730560","2024-09-12 07:00:00","11.0136","3.40791","24.97","1.119","7.43","0.391","3.546","0.08","0.13","30.0691","4.73142","12.28","0","SATNPRO1962","23.988","0.33598","5"],
    [33601,"HCEP03730560","2024-09-12 07:15:00","11.0128","3.40767","25.059","1.115","7.43","0.38","3.284","0.07","0.13","30.0673","4.73119","12.23","0","SATNPRO1962","23.914","0.33496","5"],
    [33602,"HCEP03730560","2024-09-12 07:30:00","11.011","3.40718","25.225","1.1","7.43","0.37","3.45","0.09","0.2","30.064","4.73076","12.07","0","SATNPRO1962","23.624","0.33092","5"],
    [33603,"HCEP03730560","2024-09-12 07:45:00","11.0105","3.40689","25.363","1.078","7.43","0.37","3.453","0.07","0.21","30.0615","4.73042","11.83","0","SATNPRO1962","23.634","0.33104","5"],
    [33604,"HCEP03730560","2024-09-12 08:00:00","11.0103","3.4066","25.43","1.061","7.43","0.451","3.787","0.21","0.24","30.0588","4.73003","11.64","0","SATNPRO1962","23.486","0.32894","5"],
    [33605,"HCEP03730560","2024-09-12 08:15:00","11.0124","3.40666","25.551","1.07","7.43","0.402","3.484","0.09","0.13","30.0576","4.72985","11.74","0","SATNPRO1962","23.868","0.3343","5"],
    [33606,"HCEP03730560","2024-09-12 08:30:00","11.0248","3.40782","25.7","1.145","7.43","0.46","3.863","0.13","0.14","30.0588","4.72983","12.56","0","SATNPRO1962","23.91","0.3349","5"],
    [33607,"HCEP03730560","2024-09-12 08:45:00","11.0412","3.40967","25.831","1.324","7.45","0.525","4.259","0.07","0.27","30.0634","4.73024","14.54","0","SATNPRO1962","24.512","0.34334","5"],
    [33608,"HCEP03730560","2024-09-12 09:00:00","11.0503","3.41068","25.985","1.529","7.46","0.525","4.144","0.11","0.15","30.0657","4.73044","16.79","0","SATNPRO1962","25.312","0.35456","5"],
    [33609,"HCEP03730560","2024-09-12 09:15:00","11.0339","3.40884","26.115","1.504","7.46","0.534","3.999","0.22","0.14","30.0611","4.73004","16.51","0","SATNPRO1962","25.164","0.35246","5"],
    [33610,"HCEP03730560","2024-09-12 09:30:00","11.0149","3.40691","26.252","1.269","7.44","0.534","4.388","0.28","0.72","30.0577","4.72986","13.92","0","SATNPRO1962","23.37","0.32734","5"],
    [33611,"HCEP03730560","2024-09-12 09:45:00","11.0127","3.4067","26.378","1.107","7.43","0.507","3.649","0.26","0.14","30.0574","4.72986","12.15","0","SATNPRO1962","23.516","0.3294","5"],
    [33612,"HCEP03730560","2024-09-12 10:00:00","11.0105","3.40664","26.512","1.056","7.43","0.355","3.342","0.06","0.07","30.0586","4.73007","11.59","0","SATNPRO1962","23.568","0.3301","5"],
    [33613,"HCEP03730560","2024-09-12 10:15:00","11.0101","3.40661","26.627","1.05","7.43","0.35","3.264","0.05","0.06","30.0586","4.73008","11.53","0","SATNPRO1962","23.529999999999998","0.32958","5"],
    [33614,"HCEP03730560","2024-09-12 10:30:00","11.0099","3.40658","26.705","1.053","7.43","0.462","3.587","0.15","0.2","30.0584","4.73006","11.56","0","SATNPRO1962","23.638","0.33106","5"],
    [33615,"HCEP03730560","2024-09-12 10:45:00","11.0091","3.40638","26.815","1.063","7.43","0.365","3.005","0.06","0.07","30.0571","4.72989","11.67","0","SATNPRO1962","23.988","0.33596","5"],
    [33616,"HCEP03730560","2024-09-12 11:00:00","11.0087","3.40643","26.912","1.075","7.43","0.317","2.967","0.06","0.12","30.0579","4.73002","11.8","0","SATNPRO1962","24.233999999999998","0.33946","5"],
    [33617,"HCEP03730560","2024-09-12 11:15:00","11.0085","3.40644","27.002","1.088","7.43","0.396","3.26","0.08","0.1","30.058","4.73004","11.94","0","SATNPRO1962","24.31","0.3405","5"],
    [33618,"HCEP03730560","2024-09-12 11:30:00","11.0072","3.40625","27.072","1.106","7.43","0.337","3.176","0.06","0.12","30.0572","4.72995","12.13","0","SATNPRO1962","24.234","0.3394","5"],
    [33619,"HCEP03730560","2024-09-12 11:45:00","11.0068","3.40615","27.127","1.113","7.43","0.421","3.073","0.11","0.1","30.0566","4.72988","12.22","0","SATNPRO1962","24.222","0.33928","5"],
    [33620,"HCEP03730560","2024-09-12 12:00:00","11.0037","3.40564","27.166","1.121","7.43","0.408","2.898","0.2","0.07","30.054","4.72956","12.3","0","SATNPRO1962","24.52","0.34348","5"],
    [33621,"HCEP03730560","2024-09-12 12:15:00","11.0031","3.40542","27.207","1.167","7.44","0.37","2.865","0.07","0.18","30.0524","4.72934","12.8","0","SATNPRO1962","24.926","0.34916","5"],
    [33622,"HCEP03730560","2024-09-12 12:30:00","11.005","3.40551","27.234","1.195","7.44","0.43","2.917","0.15","0.11","30.0517","4.72921","13.11","0","SATNPRO1962","24.966","0.3497","5"],
    [33623,"HCEP03730560","2024-09-12 12:45:00","11.0085","3.40593","27.265","1.161","7.43","0.534","3.501","0.31","0.2","30.0529","4.72933","12.74","0","SATNPRO1962","24.138","0.3381","5"],
    [33624,"HCEP03730560","2024-09-12 13:00:00","11.0073","3.40607","27.28","1.093","7.43","0.559","4.092","0.13","0.28","30.0553","4.72969","12","0","SATNPRO1962","23.46","0.32856","5"],
    [33625,"HCEP03730560","2024-09-12 13:15:00","11.0068","3.40617","27.288","1.032","7.42","0.438","3.378","0.09","0.08","30.0567","4.7299","11.32","0","SATNPRO1962","23.248","0.32564","5"],
    [33626,"HCEP03730560","2024-09-12 13:30:00","11.0063","3.40613","27.294","1.007","7.42","0.381","3.352","0.1","0.2","30.0567","4.7299","11.05","0","SATNPRO1962","23.22","0.32526","5"],
    [33627,"HCEP03730560","2024-09-12 13:45:00","11.0062","3.40618","27.293","0.998","7.42","0.448","3.38","0.11","0.16","30.0573","4.73","10.95","0","SATNPRO1962","23.428","0.32818","5"],
    [33628,"HCEP03730560","2024-09-12 14:00:00","11.005","3.40574","27.295","1.009","7.42","0.461","3.379","0.15","0.3","30.054","4.72954","11.07","0","SATNPRO1962","23.902","0.3348","5"],
    [33629,"HCEP03730560","2024-09-12 14:15:00","11.0064","3.40655","27.275","1.022","7.42","0.672","3.415","0.9","0.41","30.0607","4.73048","11.22","0","SATNPRO1962","23.492","0.32904","5"],
    [33630,"HCEP03730560","2024-09-12 14:30:00","11.0074","3.40681","27.252","1.005","7.42","0.497","3.491","0.15","0.35","30.0625","4.73071","11.03","0","SATNPRO1962","23.534","0.3296","5"],
    [33631,"HCEP03730560","2024-09-12 14:45:00","11.0086","3.40699","27.22","1.03","7.42","0.492","3.521","0.16","0.28","30.0633","4.7308","11.3","0","SATNPRO1962","23.574","0.33016","5"],
    [33632,"HCEP03730560","2024-09-12 15:00:00","11.0094","3.40715","27.188","1.063","7.43","0.452","3.386","0.13","0.12","30.0642","4.73092","11.67","0","SATNPRO1962","23.748","0.3326","5"],
    [33633,"HCEP03730560","2024-09-12 15:15:00","11.009","3.40718","27.153","1.062","7.43","0.532","3.643","0.28","0.19","30.0648","4.73101","11.66","0","SATNPRO1962","23.544","0.32972","5"],
    [33634,"HCEP03730560","2024-09-12 15:30:00","11.0099","3.40731","27.113","1.069","7.43","0.411","3.483","0.09","0.15","30.0654","4.73107","11.73","0","SATNPRO1962","24.242","0.33952","5"],
    [33635,"HCEP03730560","2024-09-12 15:45:00","11.0115","3.40745","27.064","1.092","7.43","0.447","3.721","0.08","0.34","30.0655","4.73106","11.99","0","SATNPRO1962","24.122","0.33788","5"],
    [33636,"HCEP03730560","2024-09-12 16:00:00","11.0126","3.40766","27.035","1.117","7.43","0.411","3.723","0.06","0.2","30.0666","4.73121","12.26","0","SATNPRO1962","24.164","0.3385","5"],
    [33637,"HCEP03730560","2024-09-12 16:15:00","11.0183","3.40849","26.983","1.176","7.44","0.484","3.635","0.13","0.44","30.0701","4.73161","12.91","0","SATNPRO1962","24.706","0.34606","5"],
    [33638,"HCEP03730560","2024-09-12 16:30:00","11.0277","3.40979","26.943","1.27","7.44","0.427","3.478","0.07","0.18","30.0752","4.73218","13.95","0","SATNPRO1962","25.046","0.3508","5"],
    [33639,"HCEP03730560","2024-09-12 16:45:00","11.0317","3.41027","26.889","1.366","7.45","0.394","3.477","0.07","0.27","30.0766","4.73232","15","0","SATNPRO1962","25.554","0.35794","5"],
    [33640,"HCEP03730560","2024-09-12 17:00:00","11.0321","3.41035","26.847","1.412","7.45","0.419","3.5","0.09","0.15","30.0771","4.73238","15.5","0","SATNPRO1962","25.374","0.3554","5"],
    [33641,"HCEP03730560","2024-09-12 17:15:00","11.0327","3.41043","26.826","1.428","7.46","0.397","3.181","0.06","0.09","30.0773","4.7324","15.68","0","SATNPRO1962","25.472","0.35678","5"],
    [33642,"HCEP03730560","2024-09-12 17:30:00","11.0332","3.4105","26.906","1.434","7.46","0.394","3.295","0.12","0.12","30.0776","4.73244","15.75","0","SATNPRO1962","25.304","0.35442","5"],
    [33643,"HCEP03730560","2024-09-12 17:45:00","11.0307","3.41008","26.837","1.414","7.46","0.573","3.564","0.33","0.73","30.0756","4.73219","15.52","0","SATNPRO1962","25.436","0.35626","5"],
    [33644,"HCEP03730560","2024-09-12 18:00:00","11.0309","3.41016","26.885","1.408","7.46","0.405","3.477","0.12","0.13","30.0762","4.73227","15.46","0","SATNPRO1962","25.122","0.35188","5"],
    [33645,"HCEP03730560","2024-09-12 18:15:00","11.0289","3.40991","26.844","1.383","7.46","0.477","3.48","0.15","0.11","30.0754","4.73219","15.19","0","SATNPRO1962","24.898","0.34872","5"],
    [33646,"HCEP03730560","2024-09-12 18:30:00","11.0258","3.4095","26.763","1.347","7.45","0.492","3.914","0.14","0.28","30.074","4.73203","14.79","0","SATNPRO1962","24.736","0.34644","5"],
    [33647,"HCEP03730560","2024-09-12 18:45:00","11.0236","3.40922","26.78","1.297","7.45","0.487","3.886","0.13","0.61","30.073","4.73192","14.24","0","SATNPRO1962","24.458000000000002","0.34258","5"],
    [33648,"HCEP03730560","2024-09-12 19:00:00","11.0247","3.4094","26.753","1.246","7.45","0.491","3.922","0.08","0.19","30.0739","4.73204","13.68","0","SATNPRO1962","24.386","0.34158","5"],
    [33649,"HCEP03730560","2024-09-12 19:15:00","11.028","3.40993","26.758","1.224","7.44","0.508","3.866","0.08","0.14","30.0764","4.73234","13.44","0","SATNPRO1962","24.27","0.33994","5"],
    [33650,"HCEP03730560","2024-09-12 19:30:00","11.0317","3.41039","26.749","1.239","7.45","0.79","3.723","0.88","0.15","30.0778","4.73249","13.61","0","SATNPRO1962","24.426000000000002","0.34214","5"],
    [33651,"HCEP03730560","2024-09-12 19:45:00","11.0203","3.40861","26.763","1.251","7.45","0.463","3.432","0.14","0.23","30.0698","4.73152","13.74","0","SATNPRO1962","24.822","0.34766","5"],
    [33652,"HCEP03730560","2024-09-12 20:00:00","11.0214","3.40879","26.771","1.258","7.45","0.98","3.254","1.12","0.11","30.0706","4.73162","13.82","0","SATNPRO1962","24.884","0.34854","5"],
    [33653,"HCEP03730560","2024-09-12 20:15:00","11.0232","3.4089","26.789","1.28","7.45","0.392","3.215","0.1","0.18","30.0702","4.73154","14.06","0","SATNPRO1962","25.004","0.3502","5"],
    [33654,"HCEP03730560","2024-09-12 20:30:00","11.0244","3.40917","26.752","1.287","7.45","0.504","4.072","0.08","0.24","30.0719","4.73176","14.13","0","SATNPRO1962","24.836000000000002","0.34788","5"],
    [33655,"HCEP03730560","2024-09-12 20:45:00","11.025","3.40914","26.785","1.283","7.45","0.494","3.681","0.09","0.19","30.0711","4.73163","14.08","0","SATNPRO1962","25.044","0.35078","5"],
    [33656,"HCEP03730560","2024-09-12 21:00:00","11.0168","3.40739","26.804","1.351","7.45","0.418","3.015","0.08","0.1","30.0606","4.73027","14.83","0","SATNPRO1962","26.364","0.36934","5"],
    [33657,"HCEP03730560","2024-09-12 21:15:00","11.0142","3.40715","26.824","1.423","7.46","0.485","2.816","0.12","0.14","30.0605","4.73029","15.61","0","SATNPRO1962","26.008","0.3643","5"],
    [33658,"HCEP03730560","2024-09-12 21:30:00","11.0197","3.40812","26.836","1.354","7.45","0.415","3.27","0.09","0.29","30.0654","4.73091","14.86","0","SATNPRO1962","25.298000000000002","0.35432","5"],
    [33659,"HCEP03730560","2024-09-12 21:45:00","11.0213","3.40841","26.853","1.282","7.45","0.539","3.292","0.14","0.14","30.0669","4.7311","14.08","0","SATNPRO1962","24.928","0.3491","5"],
    [33660,"HCEP03730560","2024-09-12 22:00:00","11.0213","3.40813","26.85","1.264","7.45","0.402","3.084","0.07","0.13","30.0642","4.73071","13.88","0","SATNPRO1962","25.138","0.35208","5"],
    [33661,"HCEP03730560","2024-09-12 22:15:00","11.0237","3.40865","26.873","1.245","7.44","0.513","3.28","0.16","0.12","30.0673","4.73112","13.67","0","SATNPRO1962","24.52","0.34346","5"],
    [33662,"HCEP03730560","2024-09-12 22:30:00","11.0231","3.40858","26.869","1.199","7.44","0.516","3.273","0.29","0.11","30.0671","4.7311","13.16","0","SATNPRO1962","24.414","0.3419","5"],
    [33663,"HCEP03730560","2024-09-12 22:45:00","11.0221","3.40843","26.873","1.161","7.44","0.478","3.451","0.14","0.15","30.0664","4.73102","12.74","0","SATNPRO1962","24.086","0.33734","5"],
    [33664,"HCEP03730560","2024-09-12 23:00:00","11.0204","3.40821","26.851","1.121","7.43","0.423","3.412","0.09","0.23","30.0657","4.73095","12.3","0","SATNPRO1962","23.852","0.33406","5"],
    [33665,"HCEP03730560","2024-09-12 23:15:00","11.0183","3.40793","26.827","1.081","7.43","0.451","3.462","0.07","0.11","30.0646","4.73082","11.87","0","SATNPRO1962","23.772","0.33298","5"],
    [33666,"HCEP03730560","2024-09-12 23:30:00","11.0165","3.40767","26.794","1.055","7.43","0.405","3.339","0.11","0.08","30.0636","4.73071","11.58","0","SATNPRO1962","23.698","0.33194","5"],
    [33667,"HCEP03730560","2024-09-12 23:45:00","11.0156","3.40745","26.774","1.032","7.43","0.468","3.4","0.09","0.1","30.0622","4.73051","11.33","0","SATNPRO1962","23.66","0.3314","5"],
    [33668,"HCEP03730560","2024-09-13 00:00:00","11.0165","3.40747","26.728","1.016","7.43","0.487","3.655","0.19","0.39","30.0617","4.73043","11.15","0","SATNPRO1962","23.692","0.33186","5"],
    [33669,"HCEP03730560","2024-09-13 00:15:00","11.0172","3.40737","26.676","1.021","7.43","0.494","3.421","0.14","0.2","30.0601","4.73019","11.2","0","SATNPRO1962","23.778","0.33306","5"],
    [33670,"HCEP03730560","2024-09-13 00:30:00","11.0182","3.40735","26.61","1.041","7.43","0.434","3.493","0.11","0.16","30.0593","4.73005","11.43","0","SATNPRO1962","23.716","0.3322","5"],
    [33671,"HCEP03730560","2024-09-13 00:45:00","11.0223","3.40771","26.534","1.042","7.43","0.477","3.732","0.14","0.26","30.0594","4.73001","11.44","0","SATNPRO1962","23.704","0.332","5"],
    [33672,"HCEP03730560","2024-09-13 01:00:00","11.0281","3.4084","26.449","1.059","7.43","0.501","3.919","0.15","0.23","30.0614","4.73019","11.62","0","SATNPRO1962","23.41","0.32788","5"],
    [33673,"HCEP03730560","2024-09-13 01:15:00","11.0317","3.40874","26.356","1.1","7.43","0.437","3.798","0.08","0.12","30.0619","4.7302","12.08","0","SATNPRO1962","23.936","0.3353","5"],
    [33674,"HCEP03730560","2024-09-13 01:30:00","11.0349","3.40914","26.256","1.155","7.43","0.394","3.776","0.11","0.17","30.0632","4.73033","12.69","0","SATNPRO1962","24.394000000000002","0.3417","5"],
    [33675,"HCEP03730560","2024-09-13 01:45:00","11.0396","3.40966","26.143","1.207","7.44","0.43","4.048","0.13","0.41","30.0645","4.73043","13.26","0","SATNPRO1962","24.218","0.33922","5"],
    [33676,"HCEP03730560","2024-09-13 02:00:00","11.0455","3.41027","26.014","1.289","7.45","0.37","3.823","0.05","0.2","30.0657","4.73051","14.16","0","SATNPRO1962","24.756","0.34676","5"],
    [33677,"HCEP03730560","2024-09-13 02:15:00","11.047","3.4105","25.885","1.367","7.45","0.378","3.743","0.07","0.18","30.0668","4.73064","15.02","0","SATNPRO1962","24.83","0.34778","5"],
    [33678,"HCEP03730560","2024-09-13 02:30:00","11.0485","3.41068","25.754","1.399","7.45","0.356","3.893","0.06","0.16","30.0673","4.73068","15.36","0","SATNPRO1962","24.77","0.34696","5"],
    [33679,"HCEP03730560","2024-09-13 02:45:00","11.0492","3.41077","25.617","1.412","7.46","0.439","4.016","0.11","0.22","30.0676","4.73071","15.51","0","SATNPRO1962","24.69","0.34578","5"],
    [33680,"HCEP03730560","2024-09-13 03:00:00","11.0489","3.4108","25.479","1.407","7.46","0.401","4.11","0.09","0.22","30.0682","4.73079","15.46","0","SATNPRO1962","24.89","0.34864","5"],
    [33681,"HCEP03730560","2024-09-13 03:15:00","11.0461","3.41049","25.35","1.369","7.45","0.367","4.117","0.05","0.22","30.0675","4.73073","15.04","0","SATNPRO1962","24.254","0.33972","5"],
    [33682,"HCEP03730560","2024-09-13 03:30:00","11.0431","3.41016","25.202","1.299","7.45","0.413","4.191","0.19","0.15","30.0669","4.73068","14.27","0","SATNPRO1962","23.994","0.33606","5"],
    [33683,"HCEP03730560","2024-09-13 03:45:00","11.041","3.40998","25.053","1.234","7.44","0.359","4.168","0.05","0.16","30.0668","4.73068","13.56","0","SATNPRO1962","23.968","0.33568","5"],
    [33684,"HCEP03730560","2024-09-13 04:00:00","11.0406","3.40993","24.923","1.192","7.44","0.387","4.22","0.13","0.2","30.0668","4.73068","13.09","0","SATNPRO1962","23.622","0.33084","5"],
    [33685,"HCEP03730560","2024-09-13 04:15:00","11.0429","3.41034","24.807","1.192","7.44","0.358","3.882","0.06","0.17","30.0689","4.73094","13.09","0","SATNPRO1962","24.262","0.33984","5"],
    [33686,"HCEP03730560","2024-09-13 04:30:00","11.0458","3.41076","24.693","1.225","7.44","0.346","3.759","0.05","0.08","30.0707","4.73114","13.46","0","SATNPRO1962","24.194","0.33886","5"],
    [33687,"HCEP03730560","2024-09-13 04:45:00","11.0493","3.41125","24.605","1.264","7.45","0.404","3.842","0.08","0.16","30.0727","4.73137","13.88","0","SATNPRO1962","24.36","0.3412","5"],
    [33688,"HCEP03730560","2024-09-13 05:00:00","11.0497","3.41129","24.538","1.291","7.45","0.435","4.009","0.41","0.11","30.0728","4.73137","14.18","0","SATNPRO1962","24.57","0.34416","5"],
    [33689,"HCEP03730560","2024-09-13 05:15:00","11.0514","3.41155","24.483","1.296","7.45","0.519","4.012","0.21","0.19","30.0739","4.73151","14.24","0","SATNPRO1962","24.266","0.33986","5"],
    [33690,"HCEP03730560","2024-09-13 05:30:00","11.0535","3.41185","24.435","1.301","7.45","0.454","6.247","0.2","3.89","30.0752","4.73165","14.29","0","SATNPRO1962","24.168","0.3385","5"],
    [33691,"HCEP03730560","2024-09-13 05:45:00","11.0561","3.41227","24.409","1.308","7.45","0.406","4.103","0.1","0.14","30.0772","4.73189","14.37","0","SATNPRO1962","24.366","0.34132","5"],
    [33692,"HCEP03730560","2024-09-13 06:00:00","11.0565","3.41239","24.394","1.312","7.45","0.426","4.106","0.16","0.15","30.078","4.732","14.42","0","SATNPRO1962","24.11","0.33768","5"],
    [33693,"HCEP03730560","2024-09-13 06:15:00","11.0646","3.41345","24.39","1.349","7.45","0.44","4.235","0.11","0.39","30.0818","4.73242","14.82","0","SATNPRO1962","24.642","0.34514","5"],
    [33694,"HCEP03730560","2024-09-13 06:30:00","11.0667","3.41377","24.397","1.422","7.46","0.459","4.15","0.17","0.23","30.0832","4.73257","15.63","0","SATNPRO1962","24.71","0.34612","5"],
    [33695,"HCEP03730560","2024-09-13 06:45:00","11.0706","3.41426","24.415","1.466","7.46","0.546","4.165","0.2","0.47","30.0848","4.73275","16.12","0","SATNPRO1962","24.678","0.34564","5"],
    [33696,"HCEP03730560","2024-09-13 07:00:00","11.0712","3.4144","24.448","1.493","7.47","0.461","4.099","0.13","0.26","30.0856","4.73286","16.41","0","SATNPRO1962","24.695999999999998","0.3459","5"],
    [33697,"HCEP03730560","2024-09-13 07:15:00","11.0727","3.41467","24.507","1.49","7.47","0.565","4.483","0.23","0.35","30.087","4.73303","16.38","0","SATNPRO1962","24.508","0.34332","5"],
    [33698,"HCEP03730560","2024-09-13 07:30:00","11.0755","3.41509","24.583","1.481","7.47","0.671","4.943","0.34","0.51","30.0888","4.73325","16.28","0","SATNPRO1962","24.166","0.33846","5"],
    [33699,"HCEP03730560","2024-09-13 07:45:00","11.0805","3.41579","24.682","1.486","7.47","0.526","4.814","0.16","0.29","30.0915","4.73356","16.33","0","SATNPRO1962","24.49","0.34302","5"],
    [33700,"HCEP03730560","2024-09-13 08:00:00","11.0847","3.41642","24.784","1.511","7.47","0.507","5.276","0.12","0.5","30.0942","4.73389","16.61","0","SATNPRO1962","24.148","0.33824","5"],
    [33701,"HCEP03730560","2024-09-13 08:15:00","11.0862","3.41656","24.889","1.545","7.47","0.444","5.239","0.05","0.42","30.0943","4.73389","16.98","0","SATNPRO1962","24.024","0.33648","5"],
    [33702,"HCEP03730560","2024-09-13 08:30:00","11.0883","3.41702","25.016","1.568","7.47","0.647","5.182","0.18","0.33","30.097","4.73425","17.25","0","SATNPRO1962","24.264","0.33984","5"],
    [33703,"HCEP03730560","2024-09-13 08:45:00","11.1062","3.41932","25.164","1.649","7.48","0.613","5.338","0.22","0.43","30.1048","4.73508","18.14","0","SATNPRO1962","24.832","0.3478","5"],
    [33704,"HCEP03730560","2024-09-13 09:00:00","11.109","3.41994","25.314","1.78","7.49","0.671","5.396","0.2","0.29","30.1084","4.73557","19.59","0","SATNPRO1962","25.136","0.35206","5"],
    [33705,"HCEP03730560","2024-09-13 09:15:00","11.1127","3.41993","25.41","1.84","7.5","0.627","5.8","0.11","0.33","30.1054","4.73509","20.24","0","SATNPRO1962","25.196","0.3529","5"],
    [33706,"HCEP03730560","2024-09-13 09:30:00","11.1127","3.42066","25.481","1.848","7.5","0.551","5.277","0.15","0.28","30.1125","4.7361","20.34","0","SATNPRO1962","25.102","0.35156","5"],
    [33707,"HCEP03730560","2024-09-13 09:45:00","11.1128","3.42065","25.76","1.833","7.5","0.668","6.629","0.15","0.75","30.1122","4.73607","20.16","0","SATNPRO1962","24.968","0.34978","5"],
    [33708,"HCEP03730560","2024-09-13 10:00:00","11.1173","3.42135","25.943","1.865","7.5","0.554","4.91","0.11","0.15","30.1152","4.73645","20.52","0","SATNPRO1962","25.502","0.3572","5"],
    [33709,"HCEP03730560","2024-09-13 10:15:00","11.1164","3.42128","26.078","1.881","7.5","0.671","5.637","0.19","0.18","30.1152","4.73646","20.7","0","SATNPRO1962","25.22","0.35328","5"],
    [33710,"HCEP03730560","2024-09-13 10:30:00","11.1166","3.42132","26.218","1.873","7.5","0.545","5.088","0.24","0.27","30.1154","4.7365","20.61","0","SATNPRO1962","25.248","0.35362","5"],
    [33711,"HCEP03730560","2024-09-13 10:45:00","11.123","3.42215","26.449","1.892","7.51","0.518","4.932","0.08","0.28","30.1181","4.7368","20.82","0","SATNPRO1962","25.564","0.35808","5"],
    [33712,"HCEP03730560","2024-09-13 11:00:00","11.1207","3.42182","26.543","1.914","7.51","0.494","4.935","0.08","0.16","30.1167","4.73664","21.06","0","SATNPRO1962","25.28","0.3541","5"],
    [33713,"HCEP03730560","2024-09-13 11:15:00","11.1173","3.42137","26.734","1.906","7.51","0.479","4.8","0.06","0.13","30.115","4.73646","20.97","0","SATNPRO1962","25.328","0.35478","5"],
    [33714,"HCEP03730560","2024-09-13 11:30:00","11.1147","3.42097","26.769","1.874","7.51","0.599","4.982","0.15","0.13","30.1133","4.73626","20.62","0","SATNPRO1962","25.156","0.35236","5"],
    [33715,"HCEP03730560","2024-09-13 11:45:00","11.113","3.42062","26.879","1.853","7.5","0.476","4.863","0.07","0.19","30.1112","4.73599","20.39","0","SATNPRO1962","25.148","0.35228","5"],
    [33716,"HCEP03730560","2024-09-13 12:00:00","11.113","3.42067","26.991","1.849","7.5","0.546","4.835","0.17","0.21","30.1117","4.73607","20.35","0","SATNPRO1962","25.048000000000002","0.35084","5"],
    [33717,"HCEP03730560","2024-09-13 12:15:00","11.1116","3.42035","27.11","1.85","7.5","0.521","4.637","0.12","0.16","30.1097","4.73581","20.35","0","SATNPRO1962","25.374","0.35538","5"],
    [33718,"HCEP03730560","2024-09-13 12:30:00","11.1057","3.4193","27.194","1.835","7.5","0.43","4.595","0.09","0.2","30.1043","4.73513","20.18","0","SATNPRO1962","25.014","0.35036","5"],
    [33719,"HCEP03730560","2024-09-13 12:45:00","11.101","3.4182","27.262","1.788","7.5","0.525","4.775","0.12","0.22","30.0972","4.73421","19.67","0","SATNPRO1962","24.728","0.34634","5"],
    [33720,"HCEP03730560","2024-09-13 13:00:00","11.0959","3.41807","27.371","1.719","7.49","0.473","4.986","0.18","0.21","30.1001","4.73471","18.9","0","SATNPRO1962","24.48","0.34286","5"],
    [33721,"HCEP03730560","2024-09-13 13:15:00","11.0933","3.41778","27.374","1.654","7.49","0.386","4.736","0.04","0.19","30.0994","4.73464","18.19","0","SATNPRO1962","24.388","0.34162","5"],
    [33722,"HCEP03730560","2024-09-13 13:30:00","11.0907","3.41746","27.403","1.605","7.48","0.431","4.514","0.13","0.18","30.0984","4.73455","17.65","0","SATNPRO1962","24.302","0.34038","5"],
    [33723,"HCEP03730560","2024-09-13 13:45:00","11.0862","3.41676","27.436","1.553","7.48","0.448","4.889","0.11","0.19","30.0952","4.73416","17.08","0","SATNPRO1962","23.984","0.33594","5"],
    [33724,"HCEP03730560","2024-09-13 14:00:00","11.0901","3.41746","27.431","1.517","7.48","0.413","4.955","0.12","0.33","30.0988","4.73461","16.68","0","SATNPRO1962","23.986","0.33594","5"],
    [33725,"HCEP03730560","2024-09-13 14:15:00","11.0934","3.41825","27.461","1.519","7.48","0.49","4.707","0.18","0.46","30.1039","4.73528","16.71","0","SATNPRO1962","24.086000000000002","0.33732","5"],
    [33726,"HCEP03730560","2024-09-13 14:30:00","11.0925","3.41786","27.463","1.536","7.48","0.374","4.452","0.1","0.22","30.1009","4.73487","16.9","0","SATNPRO1962","23.988","0.33598","5"],
    [33727,"HCEP03730560","2024-09-13 14:45:00","11.0898","3.41739","27.459","1.547","7.48","0.501","4.532","0.18","0.21","30.0984","4.73456","17.02","0","SATNPRO1962","24.233999999999998","0.33944","5"],
    [33728,"HCEP03730560","2024-09-13 15:00:00","11.0917","3.4179","27.436","1.553","7.48","0.417","4.493","0.09","0.21","30.1019","4.73503","17.08","0","SATNPRO1962","24.137999999999998","0.33808","5"],
    [33729,"HCEP03730560","2024-09-13 15:15:00","11.0854","3.41693","27.414","1.552","7.48","0.453","4.554","0.08","0.27","30.0975","4.7345","17.07","0","SATNPRO1962","24.076","0.33724","5"],
    [33730,"HCEP03730560","2024-09-13 15:30:00","11.0897","3.41763","27.385","1.536","7.47","0.449","4.566","0.15","0.75","30.1009","4.73491","16.9","0","SATNPRO1962","24.152","0.3383","5"],
    [33731,"HCEP03730560","2024-09-13 15:45:00","11.0847","3.41691","27.347","1.542","7.47","0.458","4.212","0.14","0.23","30.098","4.73458","16.96","0","SATNPRO1962","24.106","0.33764","5"],
    [33732,"HCEP03730560","2024-09-13 16:00:00","11.0832","3.41655","27.308","1.533","7.47","0.421","3.981","0.1","0.15","30.0957","4.73427","16.85","0","SATNPRO1962","24.34","0.3409","5"],
    [33733,"HCEP03730560","2024-09-13 16:15:00","11.083","3.41629","27.256","1.544","7.47","0.431","4.194","0.07","0.26","30.0934","4.73394","16.97","0","SATNPRO1962","24.654","0.34532","5"],
    [33734,"HCEP03730560","2024-09-13 16:30:00","11.0837","3.41632","27.186","1.588","7.48","0.433","3.981","0.13","0.15","30.0931","4.73389","17.46","0","SATNPRO1962","24.958000000000002","0.3496","5"],
    [33735,"HCEP03730560","2024-09-13 16:45:00","11.0851","3.41655","27.14","1.638","7.48","0.517","4.356","0.15","0.69","30.0942","4.73401","18.01","0","SATNPRO1962","25.148","0.35224","5"],
    [33736,"HCEP03730560","2024-09-13 17:00:00","11.0877","3.4169","27.07","1.669","7.48","0.464","4.198","0.13","0.19","30.0956","4.73417","18.36","0","SATNPRO1962","25.276","0.35404","5"],
    [33737,"HCEP03730560","2024-09-13 17:15:00","11.0897","3.41714","27.003","1.7","7.49","0.473","4.056","0.12","0.24","30.0963","4.73424","18.7","0","SATNPRO1962","25.286","0.35422","5"],
    [33738,"HCEP03730560","2024-09-13 17:30:00","11.0905","3.41714","26.936","1.76","7.49","0.44","4.02","0.1","0.29","30.0956","4.73412","19.35","0","SATNPRO1962","25.646","0.3592","5"],
    [33739,"HCEP03730560","2024-09-13 17:45:00","11.0892","3.41697","26.883","1.824","7.5","0.567","7.183","0.13","1.66","30.0951","4.73406","20.05","0","SATNPRO1962","25.586","0.3584","5"],
    [33740,"HCEP03730560","2024-09-13 18:00:00","11.0895","3.41694","26.816","1.858","7.5","0.525","4.333","0.22","0.75","30.0945","4.73398","20.43","0","SATNPRO1962","25.78","0.36108","5"],
    [33741,"HCEP03730560","2024-09-13 18:15:00","11.0914","3.41734","26.74","1.89","7.5","0.459","4.277","0.16","0.77","30.0969","4.73429","20.78","0","SATNPRO1962","25.924","0.36308","5"],
    [33742,"HCEP03730560","2024-09-13 18:30:00","11.0956","3.41786","26.696","1.947","7.51","0.524","3.641","0.15","0.14","30.0986","4.73445","21.41","0","SATNPRO1962","26.09","0.36542","5"],
    [33743,"HCEP03730560","2024-09-13 18:45:00","11.0954","3.41789","26.643","2.011","7.51","0.474","7.882","0.16","2.67","30.099","4.73452","22.11","0","SATNPRO1962","26.394","0.3697","5"],
    [33744,"HCEP03730560","2024-09-13 19:00:00","11.0889","3.41698","26.606","2.023","7.51","0.438","3.982","0.15","1.25","30.0955","4.73412","22.25","0","SATNPRO1962","26.336","0.3689","5"],
    [33745,"HCEP03730560","2024-09-13 19:15:00","11.0881","3.41687","26.574","2.018","7.51","0.371","4.481","0.07","1.62","30.0951","4.73406","22.19","0","SATNPRO1962","26.294","0.3683","5"],
    [33746,"HCEP03730560","2024-09-13 19:30:00","11.0878","3.41688","26.554","2.029","7.51","0.363","3.551","0.08","0.42","30.0955","4.73412","22.31","0","SATNPRO1962","26.25","0.36766","5"],
    [33747,"HCEP03730560","2024-09-13 19:45:00","11.087","3.41693","26.6","1.998","7.51","0.493","3.713","0.23","0.16","30.0966","4.7343","21.97","0","SATNPRO1962","25.674","0.35962","5"],
    [33748,"HCEP03730560","2024-09-13 20:00:00","11.0733","3.4149","26.582","1.911","7.51","0.381","3.192","0.1","0.27","30.088","4.73328","21.01","0","SATNPRO1962","26.078","0.36528","5"],
    [33749,"HCEP03730560","2024-09-13 20:15:00","11.0699","3.41455","26.576","1.821","7.5","0.421","3.303","0.08","0.2","30.0873","4.73324","20.01","0","SATNPRO1962","25.824","0.3617","5"],
    [33750,"HCEP03730560","2024-09-13 20:30:00","11.0667","3.4141","26.612","1.75","7.49","0.341","3.074","0.12","0.07","30.0855","4.73304","19.23","0","SATNPRO1962","25.71","0.36014","5"],
    [33751,"HCEP03730560","2024-09-13 20:45:00","11.0668","3.41418","26.632","1.697","7.49","0.419","3.367","0.1","0.08","30.0862","4.73313","18.65","0","SATNPRO1962","25.502","0.35722","5"],
    [33752,"HCEP03730560","2024-09-13 21:00:00","11.0659","3.41412","26.644","1.65","7.49","0.385","3.935","0.05","0.17","30.0864","4.73317","18.13","0","SATNPRO1962","25.274","0.35398","5"],
    [33753,"HCEP03730560","2024-09-13 21:15:00","11.065","3.41395","26.653","1.612","7.48","0.527","4.335","0.16","0.95","30.0854","4.73305","17.72","0","SATNPRO1962","25.204","0.35302","5"],
    [33754,"HCEP03730560","2024-09-13 21:30:00","11.0654","3.41413","26.677","1.572","7.48","0.44","3.833","0.11","0.17","30.0868","4.73324","17.27","0","SATNPRO1962","24.998","0.35012","5"],
    [33755,"HCEP03730560","2024-09-13 21:45:00","11.0652","3.41415","26.724","1.525","7.47","0.539","3.951","0.1","0.25","30.0872","4.7333","16.76","0","SATNPRO1962","24.724","0.3463","5"],
    [33756,"HCEP03730560","2024-09-13 22:00:00","11.0619","3.41372","26.753","1.472","7.47","0.505","4.682","0.06","0.27","30.0857","4.73314","16.17","0","SATNPRO1962","24.488","0.34298","5"],
    [33757,"HCEP03730560","2024-09-13 22:15:00","11.0592","3.41319","26.866","1.421","7.47","0.504","4.263","0.06","0.16","30.0826","4.73276","15.61","0","SATNPRO1962","24.366","0.3413","5"],
    [33758,"HCEP03730560","2024-09-13 22:30:00","11.0496","3.41226","26.851","1.357","7.46","0.465","3.971","0.08","0.26","30.0814","4.73273","14.91","0","SATNPRO1962","24.394000000000002","0.3417","5"],
    [33759,"HCEP03730560","2024-09-13 22:45:00","11.0382","3.41049","26.887","1.298","7.46","0.434","3.805","0.1","0.11","30.0734","4.73177","14.25","0","SATNPRO1962","24.402","0.34182","5"],
    [33760,"HCEP03730560","2024-09-13 23:00:00","11.0418","3.41096","26.951","1.266","7.45","0.421","3.805","0.06","0.18","30.0751","4.73195","13.91","0","SATNPRO1962","24.38","0.34146","5"],
    [33761,"HCEP03730560","2024-09-13 23:15:00","11.0384","3.41049","26.959","1.248","7.45","0.434","3.627","0.07","0.08","30.0733","4.73175","13.7","0","SATNPRO1962","24.494","0.3431","5"],
    [33762,"HCEP03730560","2024-09-13 23:30:00","11.0352","3.41005","26.99","1.243","7.45","0.374","3.437","0.06","0.12","30.0715","4.73155","13.65","0","SATNPRO1962","24.522","0.34346","5"],
    [33763,"HCEP03730560","2024-09-13 23:45:00","11.0352","3.41007","27.006","1.246","7.45","0.399","3.495","0.06","0.1","30.0717","4.73157","13.68","0","SATNPRO1962","24.59","0.34444","5"],
    [33764,"HCEP03730560","2024-09-14 00:00:00","11.037","3.41032","27.062","1.239","7.45","0.403","3.518","0.09","0.22","30.0727","4.73169","13.61","0","SATNPRO1962","24.582","0.34432","5"],
    [33765,"HCEP03730560","2024-09-14 00:15:00","11.0371","3.41031","27.06","1.229","7.45","0.39","3.567","0.05","0.2","30.0725","4.73166","13.5","0","SATNPRO1962","24.56","0.34396","5"],
    [33766,"HCEP03730560","2024-09-14 00:30:00","11.041","3.41089","27.069","1.221","7.44","0.414","3.718","0.12","0.12","30.075","4.73197","13.41","0","SATNPRO1962","24.018","0.33644","5"],
    [33767,"HCEP03730560","2024-09-14 00:45:00","11.0452","3.41142","27.027","1.214","7.44","0.477","3.919","0.13","0.27","30.0768","4.73215","13.34","0","SATNPRO1962","24.168","0.3385","5"],
    [33768,"HCEP03730560","2024-09-14 01:00:00","11.0458","3.41157","26.998","1.223","7.44","0.377","3.937","0.18","0.38","30.0778","4.73227","13.43","0","SATNPRO1962","24.233999999999998","0.33942","5"],
    [33769,"HCEP03730560","2024-09-14 01:15:00","11.051","3.41227","26.965","1.25","7.45","0.379","3.741","0.06","0.09","30.0803","4.73256","13.73","0","SATNPRO1962","24.154","0.33834","5"],
    [33770,"HCEP03730560","2024-09-14 01:30:00","11.0513","3.41249","26.877","1.282","7.45","0.355","3.789","0.07","0.14","30.0822","4.73282","14.08","0","SATNPRO1962","24.43","0.34218","5"],
    [33771,"HCEP03730560","2024-09-14 01:45:00","11.0602","3.41381","26.785","1.309","7.45","0.366","3.945","0.05","0.14","30.088","4.7335","14.38","0","SATNPRO1962","24.182000000000002","0.33874","5"],
    [33772,"HCEP03730560","2024-09-14 02:00:00","11.067","3.41455","26.629","1.364","7.46","0.437","4.123","0.12","0.2","30.0897","4.73362","15","0","SATNPRO1962","24.236","0.33948","5"],
    [33773,"HCEP03730560","2024-09-14 02:15:00","11.0613","3.41376","26.539","1.394","7.46","0.378","3.792","0.09","0.32","30.0866","4.73327","15.32","0","SATNPRO1962","24.568","0.34414","5"],
    [33774,"HCEP03730560","2024-09-14 02:30:00","11.0604","3.41355","26.432","1.42","7.46","0.323","3.557","0.05","0.12","30.0854","4.73311","15.61","0","SATNPRO1962","24.864","0.34828","5"],
    [33775,"HCEP03730560","2024-09-14 02:45:00","11.0642","3.41393","26.317","1.468","7.46","0.337","3.34","0.05","0.09","30.086","4.73313","16.13","0","SATNPRO1962","25.16","0.35236","5"],
    [33776,"HCEP03730560","2024-09-14 03:00:00","11.0745","3.41512","26.191","1.538","7.47","0.322","3.246","0.05","0.08","30.0893","4.73343","16.91","0","SATNPRO1962","25.348","0.35504","5"],
    [33777,"HCEP03730560","2024-09-14 03:15:00","11.0788","3.41593","26.044","1.628","7.48","0.322","3.262","0.07","0.14","30.0938","4.73399","17.89","0","SATNPRO1962","25.358","0.3552","5"],
    [33778,"HCEP03730560","2024-09-14 03:30:00","11.0877","3.41725","25.882","1.67","7.48","0.644","4.02","0.55","0.25","30.0994","4.73465","18.36","0","SATNPRO1962","25.076","0.3512","5"],
    [33779,"HCEP03730560","2024-09-14 03:45:00","11.091","3.41769","25.736","1.699","7.48","0.465","4.093","0.15","0.15","30.101","4.73482","18.68","0","SATNPRO1962","25.062","0.35104","5"],
    [33780,"HCEP03730560","2024-09-14 04:00:00","11.0916","3.41773","25.582","1.713","7.48","0.425","3.967","0.11","0.12","30.1011","4.7348","18.84","0","SATNPRO1962","25.044","0.35072","5"],
    [33781,"HCEP03730560","2024-09-14 04:15:00","11.0929","3.41782","25.413","1.717","7.49","0.419","4.174","0.18","0.15","30.1009","4.73475","18.89","0","SATNPRO1962","25.169999999999998","0.35256","5"],
    [33782,"HCEP03730560","2024-09-14 04:30:00","11.0931","3.41786","25.25","1.737","7.49","0.348","4.057","0.05","0.19","30.1012","4.73478","19.11","0","SATNPRO1962","25.19","0.3528","5"],
    [33783,"HCEP03730560","2024-09-14 04:45:00","11.0927","3.41773","25.091","1.74","7.49","0.397","4.075","0.12","0.15","30.1004","4.73467","19.14","0","SATNPRO1962","25.156","0.35242","5"],
    [33784,"HCEP03730560","2024-09-14 05:00:00","11.0934","3.41781","24.938","1.731","7.49","0.505","4.483","0.17","0.14","30.1005","4.73467","19.04","0","SATNPRO1962","25.386","0.35558","5"],
    [33785,"HCEP03730560","2024-09-14 05:15:00","11.0914","3.41759","24.789","1.719","7.49","0.453","4.323","0.08","0.26","30.1002","4.73464","18.9","0","SATNPRO1962","25.106","0.35166","5"],
    [33786,"HCEP03730560","2024-09-14 05:30:00","11.0914","3.41756","24.641","1.726","7.49","0.429","4.602","0.08","0.45","30.0999","4.7346","18.98","0","SATNPRO1962","25.122","0.3519","5"],
    [33787,"HCEP03730560","2024-09-14 05:45:00","11.0905","3.41745","24.514","1.732","7.49","0.442","4.176","0.1","0.2","30.0996","4.73456","19.05","0","SATNPRO1962","25.13","0.352","5"],
    [33788,"HCEP03730560","2024-09-14 06:00:00","11.0904","3.41743","24.399","1.727","7.49","0.46","4.67","0.08","0.25","30.0995","4.73454","18.99","0","SATNPRO1962","25.084","0.35134","5"],
    [33789,"HCEP03730560","2024-09-14 06:15:00","11.0904","3.41734","24.312","1.714","7.49","0.45","4.214","0.08","0.28","30.0987","4.73442","18.85","0","SATNPRO1962","25.02","0.35042","5"],
    [33790,"HCEP03730560","2024-09-14 06:30:00","11.0902","3.41734","24.251","1.701","7.49","0.429","4.222","0.05","0.25","30.0988","4.73443","18.71","0","SATNPRO1962","24.938","0.3493","5"],
    [33791,"HCEP03730560","2024-09-14 06:45:00","11.0894","3.41722","24.199","1.686","7.49","0.425","4.011","0.05","0.13","30.0983","4.73437","18.54","0","SATNPRO1962","25.174","0.35262","5"],
    [33792,"HCEP03730560","2024-09-14 07:00:00","11.0764","3.41495","24.173","1.692","7.49","0.482","3.858","0.08","0.37","30.0868","4.73294","18.6","0","SATNPRO1962","25.904","0.36284","5"],
    [33793,"HCEP03730560","2024-09-14 07:15:00","11.0897","3.41728","24.171","1.685","7.49","0.526","4.117","0.07","0.12","30.0988","4.73443","18.53","0","SATNPRO1962","24.504","0.34322","5"],
    [33794,"HCEP03730560","2024-09-14 07:30:00","11.0899","3.41731","24.179","1.658","7.48","0.441","4.257","0.1","0.18","30.0988","4.73444","18.24","0","SATNPRO1962","24.71","0.34612","5"],
    [33795,"HCEP03730560","2024-09-14 07:45:00","11.0897","3.4173","24.17","1.635","7.48","0.527","4.955","0.09","0.32","30.0989","4.73445","17.97","0","SATNPRO1962","24.484","0.34294","5"],
    [33796,"HCEP03730560","2024-09-14 08:00:00","11.0905","3.41745","24.223","1.596","7.48","0.457","4.193","0.14","0.12","30.0998","4.73456","17.55","0","SATNPRO1962","24.412","0.34194","5"],
    [33797,"HCEP03730560","2024-09-14 08:15:00","11.0925","3.41776","24.312","1.575","7.48","0.467","4.221","0.08","0.18","30.1012","4.73473","17.32","0","SATNPRO1962","24.45","0.34246","5"],
    [33798,"HCEP03730560","2024-09-14 08:30:00","11.0942","3.41811","24.37","1.56","7.48","0.561","6.421","0.09","1.25","30.1031","4.73499","17.16","0","SATNPRO1962","24.192","0.33886","5"],
    [33799,"HCEP03730560","2024-09-14 08:45:00","11.0954","3.41836","24.535","1.537","7.48","0.544","4.385","0.14","0.12","30.1045","4.73517","16.91","0","SATNPRO1962","24.34","0.34092","5"],
    [33800,"HCEP03730560","2024-09-14 09:00:00","11.0908","3.41758","24.674","1.552","7.48","0.532","4.203","0.14","0.14","30.1006","4.73471","17.07","0","SATNPRO1962","25.116","0.35182","5"],
    [33801,"HCEP03730560","2024-09-14 09:15:00","11.0798","3.41563","24.781","1.585","7.48","0.476","3.157","0.18","0.11","30.0905","4.73344","17.43","0","SATNPRO1962","25.46","0.35664","5"],
    [33802,"HCEP03730560","2024-09-14 09:30:00","11.0881","3.41664","24.95","1.591","7.48","0.515","4.146","0.16","0.11","30.0935","4.73375","17.5","0","SATNPRO1962","25.276","0.35402","5"],
    [33803,"HCEP03730560","2024-09-14 09:45:00","11.0947","3.4184","25.069","1.556","7.47","0.49","4.291","0.07","0.11","30.1053","4.73532","17.11","0","SATNPRO1962","24.148","0.33822","5"],
    [33804,"HCEP03730560","2024-09-14 10:00:00","11.0969","3.41876","25.208","1.472","7.47","0.518","4.673","0.08","0.18","30.107","4.73554","16.19","0","SATNPRO1962","23.656","0.33132","5"],
    [33805,"HCEP03730560","2024-09-14 10:15:00","11.0956","3.41849","25.416","1.401","7.47","0.51","4.6","0.06","0.17","30.1052","4.73532","15.41","0","SATNPRO1962","23.451999999999998","0.32848","5"],
    [33806,"HCEP03730560","2024-09-14 10:30:00","11.0951","3.41851","25.583","1.395","7.46","0.481","4.427","0.08","0.16","30.1058","4.73542","15.34","0","SATNPRO1962","23.532","0.32958","5"],
    [33807,"HCEP03730560","2024-09-14 10:45:00","11.0936","3.41822","25.722","1.374","7.46","0.602","4.851","0.14","0.25","30.1041","4.73522","15.11","0","SATNPRO1962","23.444","0.3284","5"],
    [33808,"HCEP03730560","2024-09-14 11:00:00","11.0905","3.41759","25.853","1.365","7.46","0.49","4.512","0.11","0.15","30.1005","4.73475","15.01","0","SATNPRO1962","23.712","0.3321","5"],
    [33809,"HCEP03730560","2024-09-14 11:15:00","11.0896","3.41747","26.052","1.375","7.46","0.483","4.352","0.08","0.11","30.0999","4.7347","15.12","0","SATNPRO1962","23.616","0.33078","5"],
    [33810,"HCEP03730560","2024-09-14 11:30:00","11.0906","3.41765","26.255","1.366","7.46","0.469","4.27","0.09","0.16","30.1008","4.73482","15.02","0","SATNPRO1962","23.61","0.33074","5"],
    [33811,"HCEP03730560","2024-09-14 11:45:00","11.0923","3.41788","26.399","1.384","7.46","0.442","4.042","0.08","0.46","30.1016","4.73491","15.22","0","SATNPRO1962","23.962","0.3356","5"],
    [33812,"HCEP03730560","2024-09-14 12:00:00","11.0951","3.41844","26.587","1.402","7.46","0.408","4","0.07","0.2","30.1047","4.73533","15.41","0","SATNPRO1962","23.732","0.3324","5"],
    [33813,"HCEP03730560","2024-09-14 12:15:00","11.0974","3.41881","26.736","1.422","7.46","0.481","4.257","0.14","0.15","30.1064","4.73554","15.64","0","SATNPRO1962","23.862","0.33424","5"],
    [33814,"HCEP03730560","2024-09-14 12:30:00","11.0983","3.41895","26.876","1.443","7.46","0.491","4.187","0.16","0.15","30.107","4.73562","15.87","0","SATNPRO1962","23.914","0.33498","5"],
    [33815,"HCEP03730560","2024-09-14 12:45:00","11.0974","3.41888","27.019","1.454","7.47","0.545","4.461","0.2","0.18","30.1069","4.73563","15.99","0","SATNPRO1962","23.642","0.33114","5"],
    [33816,"HCEP03730560","2024-09-14 13:00:00","11.0957","3.41864","27.132","1.433","7.46","0.42","4.208","0.09","0.17","30.1059","4.73552","15.76","0","SATNPRO1962","23.812","0.33354","5"],
    [33817,"HCEP03730560","2024-09-14 13:15:00","11.0955","3.41858","27.245","1.431","7.46","0.476","4.179","0.13","0.3","30.1055","4.73546","15.74","0","SATNPRO1962","23.922","0.33506","5"],
    [33818,"HCEP03730560","2024-09-14 13:30:00","11.0947","3.41841","27.332","1.46","7.47","0.519","4.341","0.15","0.2","30.1044","4.73533","16.06","0","SATNPRO1962","24.142","0.33812","5"],
    [33819,"HCEP03730560","2024-09-14 13:45:00","11.0934","3.41817","27.403","1.489","7.47","0.49","4.188","0.09","0.19","30.1031","4.73517","16.38","0","SATNPRO1962","24.116","0.33778","5"],
    [33820,"HCEP03730560","2024-09-14 14:00:00","11.0922","3.41788","27.46","1.535","7.47","0.445","4.04","0.09","0.24","30.1013","4.73493","16.88","0","SATNPRO1962","25.078","0.35124","5"],
    [33821,"HCEP03730560","2024-09-14 14:15:00","11.0889","3.4174","27.513","1.564","7.47","0.479","4.123","0.13","0.24","30.0993","4.7347","17.2","0","SATNPRO1962","24.672","0.34562","5"],
    [33822,"HCEP03730560","2024-09-14 14:30:00","11.0862","3.417","27.523","1.518","7.47","0.445","4.13","0.09","0.14","30.0976","4.7345","16.7","0","SATNPRO1962","24.39","0.34162","5"],
    [33823,"HCEP03730560","2024-09-14 14:45:00","11.0839","3.41661","27.551","1.463","7.47","0.508","4.342","0.13","0.38","30.0956","4.73426","16.08","0","SATNPRO1962","24.1","0.33754","5"],
    [33824,"HCEP03730560","2024-09-14 15:00:00","11.0833","3.41645","27.556","1.466","7.47","0.368","3.941","0.03","0.2","30.0946","4.73412","16.11","0","SATNPRO1962","24.91","0.3489","5"],
    [33825,"HCEP03730560","2024-09-14 15:15:00","11.0804","3.41605","27.567","1.48","7.47","0.496","4.353","0.12","0.33","30.0929","4.73393","16.27","0","SATNPRO1962","24.08","0.33728","5"],
    [33826,"HCEP03730560","2024-09-14 15:30:00","11.0766","3.41538","27.561","1.419","7.46","0.499","4.24","0.15","0.22","30.0896","4.73352","15.6","0","SATNPRO1962","24.11","0.33774","5"],
    [33827,"HCEP03730560","2024-09-14 15:45:00","11.0711","3.41462","27.552","1.371","7.46","0.465","4.333","0.07","0.14","30.0866","4.73318","15.07","0","SATNPRO1962","24.232","0.33942","5"],
    [33828,"HCEP03730560","2024-09-14 16:00:00","11.0565","3.4127","27.555","1.313","7.46","0.457","3.916","0.11","0.18","30.0798","4.73243","14.43","0","SATNPRO1962","24.242","0.33956","5"],
    [33829,"HCEP03730560","2024-09-14 16:15:00","11.0561","3.4126","27.546","1.297","7.45","0.574","3.395","0.66","0.32","30.0792","4.73235","14.25","0","SATNPRO1962","25.024","0.35054","5"],
    [33830,"HCEP03730560","2024-09-14 16:30:00","11.0543","3.41244","27.447","1.294","7.45","0.421","3.55","0.07","0.16","30.0791","4.73236","14.21","0","SATNPRO1962","24.652","0.34526","5"],
    [33831,"HCEP03730560","2024-09-14 16:45:00","11.0366","3.40987","27.41","1.273","7.45","0.453","3.045","0.17","0.12","30.0685","4.73112","13.98","0","SATNPRO1962","24.812","0.34754","5"],
    [33832,"HCEP03730560","2024-09-14 17:00:00","11.0418","3.4106","27.412","1.254","7.45","0.455","3.273","0.1","0.14","30.0713","4.73145","13.77","0","SATNPRO1962","24.616","0.34486","5"],
    [33833,"HCEP03730560","2024-09-14 17:15:00","11.0457","3.41118","27.44","1.249","7.45","0.512","3.323","0.34","0.24","30.0738","4.73174","13.72","0","SATNPRO1962","24.654","0.3453","5"],
    [33834,"HCEP03730560","2024-09-14 17:30:00","11.048","3.41161","27.287","1.26","7.45","0.444","3.535","0.13","0.19","30.0762","4.73203","13.84","0","SATNPRO1962","24.578","0.34426","5"],
    [33835,"HCEP03730560","2024-09-14 17:45:00","11.0507","3.41193","27.129","1.274","7.45","0.43","3.56","0.05","0.13","30.0772","4.73213","13.99","0","SATNPRO1962","24.518","0.3434","5"],
    [33836,"HCEP03730560","2024-09-14 18:00:00","11.0492","3.41168","27.079","1.272","7.45","0.402","3.436","0.05","0.09","30.076","4.73197","13.97","0","SATNPRO1962","24.536","0.3437","5"],
    [33837,"HCEP03730560","2024-09-14 18:15:00","11.0518","3.41214","27.086","1.263","7.45","0.431","3.637","0.04","0.24","30.0784","4.73228","13.88","0","SATNPRO1962","24.412","0.34194","5"],
    [33838,"HCEP03730560","2024-09-14 18:30:00","11.0522","3.41222","26.984","1.257","7.45","0.402","3.559","0.06","0.16","30.0789","4.73233","13.81","0","SATNPRO1962","24.264","0.33988","5"],
    [33839,"HCEP03730560","2024-09-14 18:45:00","11.0527","3.41232","26.861","1.243","7.45","0.464","3.847","0.18","0.18","30.0795","4.7324","13.65","0","SATNPRO1962","24.064","0.33704","5"],
    [33840,"HCEP03730560","2024-09-14 19:00:00","11.051","3.41211","26.789","1.211","7.44","0.41","3.805","0.09","0.18","30.0788","4.73234","13.3","0","SATNPRO1962","23.914","0.33494","5"],
    [33841,"HCEP03730560","2024-09-14 19:15:00","11.0488","3.41176","26.653","1.18","7.44","0.421","3.839","0.04","0.09","30.0774","4.73215","12.96","0","SATNPRO1962","23.89","0.33462","5"],
    [33842,"HCEP03730560","2024-09-14 19:30:00","11.0437","3.41103","26.564","1.152","7.44","0.374","3.834","0.04","0.15","30.0743","4.73179","12.65","0","SATNPRO1962","23.756","0.3327","5"],
    [33843,"HCEP03730560","2024-09-14 19:45:00","11.0446","3.41098","26.515","1.133","7.44","0.423","3.851","0.1","0.24","30.0732","4.73162","12.45","0","SATNPRO1962","23.834","0.33382","5"],
    [33844,"HCEP03730560","2024-09-14 20:00:00","11.0437","3.41096","26.443","1.12","7.44","0.353","3.702","0.04","0.09","30.0737","4.7317","12.31","0","SATNPRO1962","23.708","0.33206","5"],
    [33845,"HCEP03730560","2024-09-14 20:15:00","11.0435","3.41096","26.365","1.112","7.44","0.369","3.595","0.06","0.18","30.0738","4.73171","12.21","0","SATNPRO1962","23.704","0.33204","5"],
    [33846,"HCEP03730560","2024-09-14 20:30:00","11.0457","3.41133","26.398","1.112","7.44","0.36","3.659","0.05","0.11","30.0757","4.73195","12.21","0","SATNPRO1962","23.598","0.33056","5"],
    [33847,"HCEP03730560","2024-09-14 20:45:00","11.0499","3.41208","26.321","1.097","7.43","0.371","3.776","0.03","0.11","30.0797","4.73245","12.05","0","SATNPRO1962","23.06","0.32298","5"],
    [33848,"HCEP03730560","2024-09-14 21:00:00","11.0489","3.41203","26.342","1.062","7.43","0.378","3.944","0.03","0.16","30.0799","4.73249","11.67","0","SATNPRO1962","22.97","0.32172","5"],
    [33849,"HCEP03730560","2024-09-14 21:15:00","11.0541","3.41279","26.443","1.041","7.43","0.446","4.267","0.04","0.19","30.0831","4.73288","11.44","0","SATNPRO1962","22.728","0.31832","5"],
    [33850,"HCEP03730560","2024-09-14 21:30:00","11.0588","3.41359","26.451","1.032","7.43","0.405","4.234","0.03","0.15","30.0871","4.73337","11.33","0","SATNPRO1962","22.414","0.31394","5"],
    [33851,"HCEP03730560","2024-09-14 21:45:00","11.0596","3.4138","26.438","1.009","7.43","0.448","4.473","0.04","0.37","30.0885","4.73356","11.09","0","SATNPRO1962","22.22","0.31122","5"],
    [33852,"HCEP03730560","2024-09-14 22:00:00","11.0472","3.41189","26.536","0.973","7.42","0.382","4.19","0.04","0.44","30.0799","4.73253","10.69","0","SATNPRO1962","22.334","0.3128","5"],
    [33853,"HCEP03730560","2024-09-14 22:15:00","11.0418","3.41092","26.53","0.951","7.42","0.383","3.868","0.05","0.11","30.0749","4.7319","10.44","0","SATNPRO1962","22.372","0.31338","5"],
    [33854,"HCEP03730560","2024-09-14 22:30:00","11.0461","3.41175","26.569","0.946","7.42","0.366","3.971","0.04","0.14","30.0794","4.73248","10.39","0","SATNPRO1962","22.564","0.31602","5"],
    [33855,"HCEP03730560","2024-09-14 22:45:00","11.0531","3.41296","26.62","0.953","7.42","0.434","4.191","0.16","0.16","30.0856","4.73325","10.47","0","SATNPRO1962","22.166","0.31046","5"],
    [33856,"HCEP03730560","2024-09-14 23:00:00","11.0679","3.4153","26.657","0.972","7.42","0.45","4.544","0.11","0.13","30.0962","4.73454","10.69","0","SATNPRO1962","22.096","0.30948","5"],
    [33857,"HCEP03730560","2024-09-14 23:15:00","11.0732","3.41605","26.738","1.006","7.43","0.437","4.622","0.06","0.12","30.0993","4.73489","11.06","0","SATNPRO1962","22.252","0.31168","5"],
    [33858,"HCEP03730560","2024-09-14 23:30:00","11.0707","3.41558","26.779","1.039","7.43","0.422","4.304","0.11","0.15","30.0966","4.73456","11.42","0","SATNPRO1962","22.541999999999998","0.31574","5"],
    [33859,"HCEP03730560","2024-09-14 23:45:00","11.0605","3.41448","26.822","1.044","7.43","0.409","4.1","0.05","0.09","30.0942","4.73437","11.47","0","SATNPRO1962","22.776","0.31902","5"],
    [33860,"HCEP03730560","2024-09-15 00:00:00","11.0689","3.41498","26.889","1.06","7.43","0.388","4.647","0.04","1.45","30.0923","4.73398","11.65","0","SATNPRO1962","22.87","0.32034","5"],
    [33861,"HCEP03730560","2024-09-15 00:15:00","11.0707","3.41508","26.926","1.082","7.43","0.397","4.053","0.06","0.12","30.0916","4.73386","11.9","0","SATNPRO1962","22.87","0.3203","5"],
    [33862,"HCEP03730560","2024-09-15 00:30:00","11.0861","3.41778","26.974","1.124","7.44","0.43","4.748","0.09","0.19","30.1055","4.7356","12.36","0","SATNPRO1962","23.12","0.32384","5"],
    [33863,"HCEP03730560","2024-09-15 00:45:00","11.0961","3.41919","27.007","1.226","7.44","0.413","4.657","0.04","0.21","30.111","4.73623","13.49","0","SATNPRO1962","23.53","0.32962","5"],
    [33864,"HCEP03730560","2024-09-15 01:00:00","11.0959","3.41904","27.022","1.324","7.45","0.388","4.319","0.05","0.08","30.1097","4.73605","14.56","0","SATNPRO1962","23.806","0.33346","5"],
    [33865,"HCEP03730560","2024-09-15 01:15:00","11.0905","3.41801","27.037","1.359","7.45","0.428","4.336","0.07","0.31","30.1041","4.73534","14.95","0","SATNPRO1962","23.936","0.33526","5"],
    [33866,"HCEP03730560","2024-09-15 01:30:00","11.0892","3.41764","27.049","1.341","7.45","0.409","4.587","0.08","0.62","30.1016","4.73499","14.75","0","SATNPRO1962","23.742","0.33252","5"],
    [33867,"HCEP03730560","2024-09-15 01:45:00","11.0846","3.41691","27.033","1.302","7.45","0.421","4.055","0.07","0.12","30.0982","4.73459","14.31","0","SATNPRO1962","23.458","0.32856","5"],
    [33868,"HCEP03730560","2024-09-15 02:00:00","11.0856","3.417","27.016","1.265","7.45","0.433","4.032","0.1","0.16","30.0983","4.73458","13.9","0","SATNPRO1962","23.638","0.33112","5"],
    [33869,"HCEP03730560","2024-09-15 02:15:00","11.0863","3.41701","26.966","1.27","7.45","0.455","3.96","0.07","0.15","30.0978","4.7345","13.97","0","SATNPRO1962","23.6","0.33054","5"],
    [33870,"HCEP03730560","2024-09-15 02:30:00","11.0851","3.4168","26.919","1.262","7.45","0.465","3.851","0.07","0.19","30.096800000000002","4.73437","13.88","0","SATNPRO1962","23.582","0.33032","5"],
    [33871,"HCEP03730560","2024-09-15 02:45:00","11.0869","3.417","26.835","1.251","7.45","0.513","3.847","0.09","0.15","30.0973","4.73441","13.76","0","SATNPRO1962","23.506","0.32926","5"],
    [33872,"HCEP03730560","2024-09-15 03:00:00","11.0864","3.41678","26.747","1.25","7.45","0.52","3.795","0.18","0.26","30.0955","4.73416","13.75","0","SATNPRO1962","23.542","0.32976","5"],
    [33873,"HCEP03730560","2024-09-15 03:15:00","11.0851","3.41653","26.647","1.23","7.45","0.542","4.025","0.12","0.31","30.0942","4.73399","13.52","0","SATNPRO1962","23.19","0.32478","5"],
    [33874,"HCEP03730560","2024-09-15 03:30:00","11.0852","3.41641","26.535","1.204","7.44","0.501","4.215","0.09","0.12","30.093","4.73381","13.24","0","SATNPRO1962","23.138","0.32408","5"],
    [33875,"HCEP03730560","2024-09-15 03:45:00","11.0863","3.41644","26.41","1.206","7.44","0.686","4.401","0.24","0.24","30.0924","4.73371","13.26","0","SATNPRO1962","23.172","0.3246","5"],
    [33876,"HCEP03730560","2024-09-15 04:00:00","11.0877","3.41658","26.258","1.248","7.45","0.487","3.983","0.08","0.2","30.0927","4.73372","13.72","0","SATNPRO1962","23.522","0.32946","5"],
    [33877,"HCEP03730560","2024-09-15 04:15:00","11.0894","3.41668","26.105","1.293","7.45","0.681","4.064","0.18","0.22","30.0923","4.73362","14.22","0","SATNPRO1962","23.688","0.3318","5"],
    [33878,"HCEP03730560","2024-09-15 04:30:00","11.0899","3.4167","25.926","1.33","7.45","0.544","4.06","0.14","0.22","30.0922","4.73359","14.62","0","SATNPRO1962","23.802","0.33336","5"],
    [33879,"HCEP03730560","2024-09-15 04:45:00","11.09","3.41663","25.749","1.346","7.45","0.538","4.355","0.15","0.63","30.0916","4.73349","14.81","0","SATNPRO1962","23.832","0.3338","5"],
    [33880,"HCEP03730560","2024-09-15 05:00:00","11.09","3.41659","25.57","1.345","7.45","0.567","4.195","0.11","0.25","30.0912","4.73343","14.79","0","SATNPRO1962","23.934","0.33524","5"],
    [33881,"HCEP03730560","2024-09-15 05:15:00","11.0888","3.41646","25.376","1.344","7.45","0.583","4.092","0.11","0.23","30.0909","4.7334","14.78","0","SATNPRO1962","23.726","0.33232","5"],
    [33882,"HCEP03730560","2024-09-15 05:30:00","11.0888","3.41641","25.202","1.333","7.45","0.542","3.984","0.16","0.12","30.0906","4.73334","14.65","0","SATNPRO1962","23.962","0.33562","5"],
    [33883,"HCEP03730560","2024-09-15 05:45:00","11.0891","3.41645","25.023","1.332","7.45","0.538","3.99","0.14","0.27","30.0908","4.73335","14.64","0","SATNPRO1962","23.95","0.33544","5"],
    [33884,"HCEP03730560","2024-09-15 06:00:00","11.0883","3.41639","24.847","1.329","7.45","0.487","3.904","0.08","0.13","30.091","4.73338","14.61","0","SATNPRO1962","23.826","0.3337","5"],
    [33885,"HCEP03730560","2024-09-15 06:15:00","11.088","3.41636","24.734","1.314","7.45","0.582","4.04","0.13","0.18","30.091","4.73338","14.45","0","SATNPRO1962","23.704","0.332","5"],
    [33886,"HCEP03730560","2024-09-15 06:30:00","11.0878","3.41635","24.578","1.305","7.45","0.655","4.092","0.23","0.17","30.0911","4.73339","14.35","0","SATNPRO1962","23.61","0.3307","5"],
    [33887,"HCEP03730560","2024-09-15 06:45:00","11.088","3.41639","24.419","1.297","7.45","0.524","3.781","0.11","0.22","30.0914","4.73342","14.26","0","SATNPRO1962","23.672","0.3316","5"],
    [33888,"HCEP03730560","2024-09-15 07:00:00","11.089","3.41654","24.283","1.302","7.45","0.511","3.614","0.13","0.18","30.092","4.73348","14.31","0","SATNPRO1962","23.704","0.33202","5"],
    [33889,"HCEP03730560","2024-09-15 07:15:00","11.0887","3.41653","24.164","1.314","7.45","0.502","3.694","0.12","0.15","30.0922","4.73351","14.44","0","SATNPRO1962","23.848","0.33402","5"],
    [33890,"HCEP03730560","2024-09-15 07:30:00","11.0888","3.41639","24.086","1.341","7.45","0.57","3.415","0.18","0.16","30.0908","4.73331","14.75","0","SATNPRO1962","24.286","0.3402","5"],
    [33891,"HCEP03730560","2024-09-15 07:45:00","11.0917","3.41684","24.023","1.393","7.46","0.608","3.537","0.33","0.15","30.0929","4.73356","15.32","0","SATNPRO1962","24.292","0.34022","5"],
    [33892,"HCEP03730560","2024-09-15 08:00:00","11.0907","3.41688","23.985","1.392","7.46","0.534","3.852","0.11","0.21","30.0941","4.73374","15.31","0","SATNPRO1962","23.908","0.33484","5"],
    [33893,"HCEP03730560","2024-09-15 08:15:00","11.0911","3.41693","23.963","1.341","7.45","0.498","3.548","0.06","0.08","30.0943","4.73376","14.75","0","SATNPRO1962","23.82","0.33362","5"],
    [33894,"HCEP03730560","2024-09-15 08:30:00","11.0881","3.41677","24.014","1.28","7.45","0.557","4.318","0.12","0.15","30.0951","4.73392","14.08","0","SATNPRO1962","23.476","0.3288","5"],
    [33895,"HCEP03730560","2024-09-15 08:45:00","11.0858","3.41672","24.031","1.177","7.44","0.597","4.171","0.11","0.11","30.0965","4.73416","12.94","0","SATNPRO1962","22.157999999999998","0.31036","5"],
    [33896,"HCEP03730560","2024-09-15 09:00:00","11.0878","3.4172","24.116","1.105","7.44","0.51","4.068","0.08","0.11","30.0995","4.73456","12.15","0","SATNPRO1962","22.452","0.31448","5"],
    [33897,"HCEP03730560","2024-09-15 09:15:00","11.0918","3.41781","24.18","1.133","7.44","0.456","3.976","0.08","0.12","30.1022","4.73489","12.45","0","SATNPRO1962","22.95","0.32144","5"],
    [33898,"HCEP03730560","2024-09-15 09:30:00","11.0926","3.41799","24.276","1.166","7.44","0.512","4.063","0.13","0.13","30.1033","4.73503","12.82","0","SATNPRO1962","22.876","0.3204","5"],
    [33899,"HCEP03730560","2024-09-15 09:45:00","11.0946","3.41812","24.4","1.187","7.44","0.451","3.764","0.1","0.14","30.1029","4.73495","13.06","0","SATNPRO1962","23.374","0.32738","5"],
    [33900,"HCEP03730560","2024-09-15 10:00:00","11.0949","3.41817","24.568","1.217","7.44","0.45","3.56","0.07","0.1","30.103","4.73498","13.39","0","SATNPRO1962","23.472","0.32878","5"],
    [33901,"HCEP03730560","2024-09-15 10:15:00","11.0963","3.41857","24.713","1.221","7.44","0.465","3.866","0.14","0.16","30.1058","4.73535","13.43","0","SATNPRO1962","23.032","0.32264","5"],
    [33902,"HCEP03730560","2024-09-15 10:30:00","11.1","3.41945","24.868","1.191","7.44","0.375","4.012","0.05","0.19","30.1112","4.73608","13.1","0","SATNPRO1962","22.726","0.31832","5"],
    [33903,"HCEP03730560","2024-09-15 10:45:00","11.1047","3.42032","25.042","1.184","7.44","0.411","4.069","0.07","0.16","30.1158","4.73666","13.02","0","SATNPRO1962","23.058","0.32294","5"],
    [33904,"HCEP03730560","2024-09-15 11:00:00","11.1074","3.42036","25.221","1.273","7.45","0.357","3.178","0.09","0.15","30.1139","4.73637","14.01","0","SATNPRO1962","24.414","0.34196","5"],
    [33905,"HCEP03730560","2024-09-15 11:15:00","11.1038","3.41985","25.411","1.37","7.46","0.398","3.321","0.08","0.13","30.1119","4.73614","15.07","0","SATNPRO1962","24.272","0.33998","5"],
    [33906,"HCEP03730560","2024-09-15 11:30:00","11.1009","3.41966","25.589","1.342","7.45","0.401","3.78","0.08","0.17","30.1123","4.73626","14.77","0","SATNPRO1962","23.57","0.33016","5"],
    [33907,"HCEP03730560","2024-09-15 11:45:00","11.0977","3.41912","25.766","1.292","7.45","0.452","3.692","0.2","0.1","30.1095","4.73591","14.21","0","SATNPRO1962","23.44","0.32832","5"],
    [33908,"HCEP03730560","2024-09-15 12:00:00","11.0935","3.41847","25.961","1.27","7.45","0.452","3.943","0.1","0.12","30.1065","4.73556","13.97","0","SATNPRO1962","23.432","0.32824","5"],
    [33909,"HCEP03730560","2024-09-15 12:15:00","11.0909","3.41805","26.172","1.251","7.45","0.428","3.87","0.07","0.11","30.1045","4.73533","13.76","0","SATNPRO1962","23.23","0.32536","5"],
    [33910,"HCEP03730560","2024-09-15 12:30:00","11.0872","3.41748","26.391","1.243","7.45","0.459","3.839","0.13","0.17","30.1018","4.73503","13.66","0","SATNPRO1962","23.454","0.3285","5"],
    [33911,"HCEP03730560","2024-09-15 12:45:00","11.0858","3.41712","26.593","1.267","7.45","0.413","3.628","0.08","0.19","30.0994","4.73471","13.93","0","SATNPRO1962","24.074","0.33722","5"],
    [33912,"HCEP03730560","2024-09-15 13:00:00","11.0842","3.41681","26.781","1.298","7.45","0.398","3.46","0.09","0.13","30.0976","4.73449","14.27","0","SATNPRO1962","24.336","0.34086","5"],
    [33913,"HCEP03730560","2024-09-15 13:15:00","11.075","3.41543","26.937","1.33","7.45","0.418","3.144","0.1","0.1","30.0917","4.7338","14.62","0","SATNPRO1962","24.722","0.34628","5"],
    [33914,"HCEP03730560","2024-09-15 13:30:00","11.0692","3.41477","27.081","1.323","7.45","0.35","3.117","0.08","0.13","30.0898","4.73364","14.54","0","SATNPRO1962","24.588","0.34446","5"],
    [33915,"HCEP03730560","2024-09-15 13:45:00","11.0743","3.41553","27.219","1.28","7.45","0.433","3.491","0.09","0.11","30.093","4.73401","14.07","0","SATNPRO1962","24.234","0.33944","5"],
    [33916,"HCEP03730560","2024-09-15 14:00:00","11.072","3.41521","27.336","1.241","7.45","0.343","3.985","0.06","0.16","30.0918","4.73389","13.64","0","SATNPRO1962","23.928","0.33518","5"],
    [33917,"HCEP03730560","2024-09-15 14:15:00","11.0677","3.41463","27.442","1.207","7.44","0.451","4.098","0.09","0.2","30.0895","4.73363","13.26","0","SATNPRO1962","23.892","0.33464","5"],
    [33918,"HCEP03730560","2024-09-15 14:30:00","11.0611","3.41356","27.521","1.189","7.44","0.385","3.71","0.09","0.64","30.0845","4.73303","13.07","0","SATNPRO1962","24.19","0.33886","5"],
    [33919,"HCEP03730560","2024-09-15 14:45:00","11.0597","3.41336","27.581","1.177","7.44","0.389","3.691","0.07","0.1","30.0837","4.73294","12.94","0","SATNPRO1962","24.086","0.33738","5"],
    [33920,"HCEP03730560","2024-09-15 15:00:00","11.0633","3.41403","27.597","1.161","7.44","0.425","4.268","0.1","0.31","30.0872","4.73338","12.75","0","SATNPRO1962","23.774","0.33302","5"],
    [33921,"HCEP03730560","2024-09-15 15:15:00","11.0594","3.41344","27.618","1.129","7.44","0.402","3.546","0.09","0.29","30.0847","4.73308","12.4","0","SATNPRO1962","23.66","0.33142","5"],
    [33922,"HCEP03730560","2024-09-15 15:30:00","11.0632","3.41421","27.62","1.09","7.43","0.401","3.697","0.1","0.27","30.089","4.73365","11.98","0","SATNPRO1962","23.164","0.32446","5"],
    [33923,"HCEP03730560","2024-09-15 15:45:00","11.0572","3.41333","27.615","1.052","7.43","0.42","3.377","0.13","0.16","30.0855","4.73323","11.56","0","SATNPRO1962","23.128","0.32396","5"],
    [33924,"HCEP03730560","2024-09-15 16:00:00","11.0596","3.41372","27.636","1.015","7.43","0.455","4","0.13","0.28","30.0873","4.73345","11.15","0","SATNPRO1962","22.558","0.31594","5"],
    [33925,"HCEP03730560","2024-09-15 16:15:00","11.0622","3.41434","27.594","0.966","7.42","0.44","3.934","0.07","0.17","30.0912","4.73397","10.61","0","SATNPRO1962","22.169999999999998","0.31056","5"],
    [33926,"HCEP03730560","2024-09-15 16:30:00","11.0548","3.41315","27.564","0.925","7.42","0.439","4.045","0.06","0.22","30.0855","4.73327","10.16","0","SATNPRO1962","22.136","0.31","5"],
    [33927,"HCEP03730560","2024-09-15 16:45:00","11.0532","3.41287","27.478","0.898","7.42","0.422","3.617","0.06","0.13","30.0842","4.7331","9.86","0","SATNPRO1962","21.93","0.30716","5"],
    [33928,"HCEP03730560","2024-09-15 17:00:00","11.0479","3.41212","27.423","0.87","7.41","0.386","3.609","0.11","0.2","30.0812","4.73276","9.56","0","SATNPRO1962","21.712","0.3041","5"],
    [33929,"HCEP03730560","2024-09-15 17:15:00","11.0379","3.41058","27.397","0.834","7.41","0.385","3.479","0.06","0.2","30.0743","4.73193","9.16","0","SATNPRO1962","21.616","0.30282","5"],
    [33930,"HCEP03730560","2024-09-15 17:30:00","11.0337","3.41007","27.352","0.792","7.41","0.327","3.354","0.04","0.11","30.0728","4.73178","8.7","0","SATNPRO1962","21.612000000000002","0.30272","5"],
    [33931,"HCEP03730560","2024-09-15 17:45:00","11.0325","3.40978","27.311","0.765","7.4","0.386","3.583","0.06","0.25","30.071","4.73153","8.4","0","SATNPRO1962","21.51","0.30128","5"],
    [33932,"HCEP03730560","2024-09-15 18:00:00","11.027","3.40898","27.158","0.73","7.4","0.31","3.293","0.03","0.06","30.0678","4.73115","8.01","0","SATNPRO1962","21.516000000000002","0.30134","5"],
    [33933,"HCEP03730560","2024-09-15 18:15:00","11.0253","3.40868","27.065","0.707","7.4","0.337","3.438","0.04","0.22","30.0663","4.73096","7.77","0","SATNPRO1962","21.27","0.29792","5"],
    [33934,"HCEP03730560","2024-09-15 18:30:00","11.0216","3.40811","26.936","0.689","7.4","0.315","3.316","0.07","0.2","30.0637","4.73065","7.57","0","SATNPRO1962","21.474","0.30076","5"],
    [33935,"HCEP03730560","2024-09-15 18:45:00","11.0185","3.40763","26.863","0.684","7.4","0.359","3.512","0.09","0.77","30.0616","4.73039","7.51","0","SATNPRO1962","21.526","0.30152","5"],
    [33936,"HCEP03730560","2024-09-15 19:00:00","11.0153","3.4069","26.808","0.681","7.39","0.405","3.619","0.1","0.39","30.0571","4.7298","7.47","0","SATNPRO1962","21.61","0.30266","5"],
    [33937,"HCEP03730560","2024-09-15 19:15:00","11.0147","3.40688","26.704","0.679","7.39","0.523","3.171","0.57","0.19","30.0574","4.72985","7.45","0","SATNPRO1962","21.554000000000002","0.3019","5"],
    [33938,"HCEP03730560","2024-09-15 19:30:00","11.0148","3.40683","26.581","0.678","7.39","0.338","3.166","0.07","0.14","30.0568","4.72975","7.45","0","SATNPRO1962","21.406","0.29978","5"],
    [33939,"HCEP03730560","2024-09-15 19:45:00","11.0156","3.40699","26.455","0.682","7.39","0.327","3.097","0.03","0.12","30.0579","4.72988","7.48","0","SATNPRO1962","21.51","0.3013","5"],
    [33940,"HCEP03730560","2024-09-15 20:00:00","11.0169","3.40716","26.352","0.687","7.39","0.338","3.218","0.1","0.14","30.0585","4.72994","7.54","0","SATNPRO1962","21.48","0.30084","5"],
    [33941,"HCEP03730560","2024-09-15 20:15:00","11.0221","3.40805","26.246","0.692","7.39","0.308","3.165","0.04","0.14","30.063","4.73049","7.6","0","SATNPRO1962","21.408","0.29986","5"],
    [33942,"HCEP03730560","2024-09-15 20:30:00","11.0282","3.40897","26.121","0.688","7.39","0.325","3.633","0.04","0.3","30.067","4.73097","7.56","0","SATNPRO1962","21.15","0.29628","5"],
    [33943,"HCEP03730560","2024-09-15 20:45:00","11.0249","3.40847","26.032","0.683","7.39","0.313","3.333","0.03","0.11","30.0649","4.73072","7.49","0","SATNPRO1962","21.168","0.2965","5"],
    [33944,"HCEP03730560","2024-09-15 21:00:00","11.0186","3.40753","26.033","0.677","7.39","0.367","3.515","0.06","0.2","30.0608","4.73023","7.43","0","SATNPRO1962","21.227999999999998","0.29732","5"],
    [33945,"HCEP03730560","2024-09-15 21:15:00","11.0169","3.4071","26.021","0.66","7.39","0.365","3.277","0.11","0.16","30.058","4.72986","7.24","0","SATNPRO1962","20.742","0.29054","5"],
    [33946,"HCEP03730560","2024-09-15 21:30:00","11.0149","3.40685","26.051","0.651","7.39","0.285","3.163","0.06","0.09","30.0573","4.72978","7.14","0","SATNPRO1962","21.128","0.29592","5"],
    [33947,"HCEP03730560","2024-09-15 21:45:00","11.0216","3.40789","26.082","0.649","7.39","0.33","3.275","0.04","0.14","30.0619","4.73034","7.12","0","SATNPRO1962","21.322","0.29862","5"],
    [33948,"HCEP03730560","2024-09-15 22:00:00","11.0251","3.40835","26.095","0.66","7.39","0.356","3.281","0.18","0.15","30.0635","4.73052","7.25","0","SATNPRO1962","21.498","0.3011","5"],
    [33949,"HCEP03730560","2024-09-15 22:15:00","11.0295","3.40901","26.184","0.674","7.39","0.334","3.328","0.05","0.12","30.0663","4.73085","7.41","0","SATNPRO1962","20.976","0.29378","5"],
    [33950,"HCEP03730560","2024-09-15 22:30:00","11.0305","3.40912","26.235","0.692","7.39","0.31","3.401","0.04","0.13","30.0666","4.73088","7.59","0","SATNPRO1962","20.938","0.29326","5"],
    [33951,"HCEP03730560","2024-09-15 22:45:00","11.0322","3.40947","26.322","0.707","7.39","0.321","3.315","0.03","0.08","30.0685","4.73113","7.76","0","SATNPRO1962","21.09","0.29542","5"],
    [33952,"HCEP03730560","2024-09-15 23:00:00","11.0329","3.40947","26.413","0.719","7.4","0.348","3.577","0.11","0.12","30.0679","4.73105","7.89","0","SATNPRO1962","22.156","0.3103","5"],
    [33953,"HCEP03730560","2024-09-15 23:15:00","11.034","3.40968","26.5","0.723","7.4","0.365","3.403","0.08","0.04","30.0691","4.73119","7.94","0","SATNPRO1962","21.176","0.29662","5"],
    [33954,"HCEP03730560","2024-09-15 23:30:00","11.0363","3.40992","26.59","0.716","7.4","0.306","3.483","0.03","0.13","30.0696","4.73124","7.86","0","SATNPRO1962","21.04","0.29472","5"],
    [33955,"HCEP03730560","2024-09-15 23:45:00","11.0379","3.41032","26.674","0.716","7.4","0.342","3.375","0.04","0.07","30.0722","4.73158","7.87","0","SATNPRO1962","21.176000000000002","0.2966","5"],
    [33956,"HCEP03730560","2024-09-16 00:00:00","11.0508","3.41243","26.773","0.729","7.4","0.352","3.846","0.12","0.34","30.0821","4.7328","8.01","0","SATNPRO1962","21.03","0.29454","5"],
    [33957,"HCEP03730560","2024-09-16 00:15:00","11.0708","3.41563","26.87","0.754","7.4","0.397","4.164","0.07","0.24","30.0971","4.73463","8.29","0","SATNPRO1962","20.818","0.29158","5"],
    [33958,"HCEP03730560","2024-09-16 00:30:00","11.0764","3.41651","26.95","0.798","7.4","0.362","3.915","0.04","0.19","30.1009","4.7351","8.77","0","SATNPRO1962","21.524","0.30152","5"],
    [33959,"HCEP03730560","2024-09-16 00:45:00","11.0804","3.41706","27.019","0.849","7.41","0.395","4.014","0.08","0.1","30.1031","4.73534","9.33","0","SATNPRO1962","21.506","0.30122","5"],
    [33960,"HCEP03730560","2024-09-16 01:00:00","11.0817","3.41713","27.056","0.889","7.41","0.416","4.311","0.13","0.27","30.1027","4.73528","9.77","0","SATNPRO1962","21.88","0.30648","5"],
    [33961,"HCEP03730560","2024-09-16 01:15:00","11.0802","3.4169","27.132","0.923","7.41","0.375","4.197","0.04","0.2","30.1016","4.73515","10.15","0","SATNPRO1962","22.04","0.30874","5"],
    [33962,"HCEP03730560","2024-09-16 01:30:00","11.0715","3.41549","27.201","0.954","7.42","0.341","3.61","0.12","0.16","30.095","4.73434","10.49","0","SATNPRO1962","22.956","0.32152","5"],
    [33963,"HCEP03730560","2024-09-16 01:45:00","11.0598","3.41323","27.217","0.981","7.42","0.371","3.425","0.07","0.15","30.0824","4.73273","10.78","0","SATNPRO1962","23.136","0.32406","5"],
    [33964,"HCEP03730560","2024-09-16 02:00:00","11.0897","3.41824","27.261","1.003","7.42","0.409","3.863","0.22","0.17","30.1069","4.73575","11.03","0","SATNPRO1962","22.650000000000002","0.3172","5"],
    [33965,"HCEP03730560","2024-09-16 02:15:00","11.1041","3.42059","27.292","1.074","7.43","0.384","3.929","0.06","0.18","30.1181","4.73712","11.81","0","SATNPRO1962","22.924","0.32106","5"],
    [33966,"HCEP03730560","2024-09-16 02:30:00","11.1063","3.42095","27.295","1.119","7.43","0.416","4.343","0.13","0.33","30.1197","4.73732","12.31","0","SATNPRO1962","22.64","0.31716","5"],
    [33967,"HCEP03730560","2024-09-16 02:45:00","11.1104","3.42153","27.281","1.142","7.44","0.394","4.194","0.05","0.18","30.1221","4.73759","12.56","0","SATNPRO1962","23.028000000000002","0.32252","5"],
    [33968,"HCEP03730560","2024-09-16 03:00:00","11.11","3.42135","27.248","1.185","7.44","0.432","3.967","0.18","0.14","30.1206","4.73739","13.04","0","SATNPRO1962","23.842","0.33392","5"],
    [33969,"HCEP03730560","2024-09-16 03:15:00","11.1122","3.42155","27.196","1.216","7.44","0.439","4.073","0.15","0.14","30.1209","4.73739","13.38","0","SATNPRO1962","23.4","0.32772","5"],
    [33970,"HCEP03730560","2024-09-16 03:30:00","11.1129","3.42177","27.131","1.227","7.44","0.376","4.186","0.07","0.27","30.1224","4.73759","13.5","0","SATNPRO1962","23.53","0.32958","5"],
    [33971,"HCEP03730560","2024-09-16 03:45:00","11.113","3.38637","27.037","1.192","7.44","0.426","4.224","0.09","0.18","29.7771","4.68858","13.09","0","SATNPRO1962","23.186","0.32482","5"],
    [33972,"HCEP03730560","2024-09-16 04:00:00","11.1152","3.42213","26.931","1.166","7.44","0.445","4.08","0.2","0.2","30.1242","4.7378","12.83","0","SATNPRO1962","23.394","0.32768","5"],
    [33973,"HCEP03730560","2024-09-16 04:15:00","11.117","3.42247","26.803","1.181","7.44","0.442","4.21","0.12","0.3","30.1261","4.73803","12.99","0","SATNPRO1962","23.506","0.32924","5"],
    [33974,"HCEP03730560","2024-09-16 04:30:00","11.1194","3.42294","26.658","1.17","7.44","0.414","4.563","0.1","0.25","30.1288","4.73838","12.88","0","SATNPRO1962","23.75","0.3326","5"],
    [33975,"HCEP03730560","2024-09-16 04:45:00","11.1314","3.42483","26.499","1.213","7.45","0.386","4.126","0.09","0.27","30.1374","4.73941","13.36","0","SATNPRO1962","23.818","0.33364","5"],
    [33976,"HCEP03730560","2024-09-16 05:00:00","11.1372","3.42582","26.327","1.307","7.45","0.523","4.471","0.28","0.37","30.1425","4.74003","14.39","0","SATNPRO1962","23.878","0.33444","5"],
    [33977,"HCEP03730560","2024-09-16 05:15:00","11.1407","3.42632","26.15","1.352","7.46","0.461","4.456","0.19","0.32","30.1445","4.74025","14.89","0","SATNPRO1962","23.939999999999998","0.3353","5"],
    [33978,"HCEP03730560","2024-09-16 05:30:00","11.1422","3.42659","25.962","1.374","7.46","0.374","4.212","0.15","0.15","30.146","4.74044","15.13","0","SATNPRO1962","24.184","0.33874","5"],
    [33979,"HCEP03730560","2024-09-16 05:45:00","11.1425","3.42672","25.753","1.38","7.46","0.395","4.481","0.06","0.2","30.1471","4.74057","15.2","0","SATNPRO1962","24.072","0.33716","5"],
    [33980,"HCEP03730560","2024-09-16 06:00:00","11.1453","3.42707","25.545","1.388","7.46","0.345","4.445","0.07","0.23","30.1483","4.74069","15.28","0","SATNPRO1962","24.354","0.3411","5"],
    [33981,"HCEP03730560","2024-09-16 06:15:00","11.148","3.42756","25.351","1.416","7.47","0.415","4.753","0.06","0.21","30.151","4.74101","15.6","0","SATNPRO1962","24.482","0.34294","5"],
    [33982,"HCEP03730560","2024-09-16 06:30:00","11.1563","3.42887","25.137","1.49","7.47","0.43","5.044","0.1","0.47","30.1569","4.74172","16.42","0","SATNPRO1962","25.096","0.35152","5"],
    [33983,"HCEP03730560","2024-09-16 06:45:00","11.1572","3.42893","24.936","1.552","7.48","0.459","4.494","0.23","0.13","30.1569","4.7417","17.09","0","SATNPRO1962","24.992","0.35004","5"],
    [33984,"HCEP03730560","2024-09-16 07:00:00","11.1287","3.42325","24.737","1.617","7.48","0.456","2.626","0.56","0.1","30.1249","4.73757","17.8","0","SATNPRO1962","26.292","0.36824","5"],
    [33985,"HCEP03730560","2024-09-16 07:15:00","11.1551","3.42768","24.553","1.766","7.49","0.354","3.466","0.07","0.15","30.1466","4.74025","19.45","0","SATNPRO1962","26.706","0.37408","5"],
    [33986,"HCEP03730560","2024-09-16 07:30:00","11.1306","3.42196","24.367","1.983","7.51","0.389","2.127","0.14","0.19","30.1109","4.73554","21.83","0","SATNPRO1962","28.476","0.39888","5"],
    [33987,"HCEP03730560","2024-09-16 07:45:00","11.1646","3.43011","24.213","2.018","7.51","0.525","4.91","0.12","0.23","30.1626","4.74236","22.23","0","SATNPRO1962","25.586000000000002","0.35832","5"],
    [33988,"HCEP03730560","2024-09-16 08:00:00","11.1705","3.43062","24.099","1.853","7.5","0.517","4.675","0.1","0.41","30.1628","4.74229","20.42","0","SATNPRO1962","26.396","0.3697","5"],
    [33989,"HCEP03730560","2024-09-16 08:15:00","11.1753","3.43163","24.045","1.871","7.51","0.653","4.475","0.15","0.23","30.1688","4.74305","20.63","0","SATNPRO1962","26.44","0.37034","5"],
    [33990,"HCEP03730560","2024-09-16 08:30:00","11.1761","3.43172","23.982","1.889","7.51","0.605","4.556","0.12","0.22","30.1691","4.74308","20.82","0","SATNPRO1962","26.392","0.36968","5"],
    [33991,"HCEP03730560","2024-09-16 08:45:00","11.1857","3.43277","23.967","1.971","7.52","0.495","3.861","0.11","0.2","30.1715","4.74328","21.73","0","SATNPRO1962","27.9","0.3908","5"],
    [33992,"HCEP03730560","2024-09-16 09:00:00","11.1847","3.43269","23.96","2.2","7.53","0.529","3.71","0.12","0.18","30.1715","4.7433","24.25","0","SATNPRO1962","28.316","0.3966","5"],
    [33993,"HCEP03730560","2024-09-16 09:15:00","11.1812","3.43232","23.984","2.067","7.52","0.62","4.415","0.14","0.2","30.1707","4.74324","22.78","0","SATNPRO1962","26.608","0.37266","5"],
    [33994,"HCEP03730560","2024-09-16 09:30:00","11.1836","3.43272","24.034","2.021","7.52","0.666","4.422","0.13","0.13","30.1726","4.74347","22.28","0","SATNPRO1962","26.57","0.37214","5"],
    [33995,"HCEP03730560","2024-09-16 09:45:00","11.1857","3.43301","24.122","2.037","7.52","0.686","4.845","0.11","0.25","30.1737","4.7436","22.45","0","SATNPRO1962","26.804","0.37544","5"],
    [33996,"HCEP03730560","2024-09-16 10:00:00","11.1863","3.43318","24.227","2.045","7.53","0.666","4.711","0.12","0.28","30.1747","4.74375","22.54","0","SATNPRO1962","26.846","0.37602","5"],
    [33997,"HCEP03730560","2024-09-16 10:15:00","11.1928","3.43411","24.336","2.07","7.53","0.687","4.797","0.12","0.25","30.1785","4.74418","22.82","0","SATNPRO1962","27.288","0.3822","5"],
    [33998,"HCEP03730560","2024-09-16 10:30:00","11.1998","3.43502","24.46","2.172","7.54","0.611","4.736","0.09","0.27","30.1817","4.74454","23.95","0","SATNPRO1962","27.572","0.38618","5"],
    [33999,"HCEP03730560","2024-09-16 10:45:00","11.2036","3.43541","24.628","2.296","7.54","0.709","4.784","0.09","0.29","30.1822","4.74456","25.33","0","SATNPRO1962","27.88","0.39048","5"],
    [34000,"HCEP03730560","2024-09-16 11:00:00","11.2053","3.43582","24.815","2.346","7.55","0.633","4.523","0.05","0.12","30.1847","4.74491","25.88","0","SATNPRO1962","27.896","0.39076","5"],
    [34001,"HCEP03730560","2024-09-16 11:15:00","11.205","3.43573","25.028","2.373","7.55","0.71","4.834","0.08","0.19","30.184","4.74483","26.17","0","SATNPRO1962","28.232","0.39544","5"],
    [34002,"HCEP03730560","2024-09-16 11:30:00","11.2033","3.43553","25.167","2.355","7.55","0.739","4.735","0.1","0.15","30.1834","4.74476","25.98","0","SATNPRO1962","28.068","0.39314","5"],
    [34003,"HCEP03730560","2024-09-16 11:45:00","11.2046","3.43565","25.366","2.356","7.55","0.675","4.49","0.08","0.2","30.1835","4.74477","25.98","0","SATNPRO1962","28.174","0.3946","5"],
    [34004,"HCEP03730560","2024-09-16 12:00:00","11.2039","3.43526","25.519","2.376","7.55","0.62","4.184","0.09","0.17","30.1802","4.74433","26.21","0","SATNPRO1962","28.102","0.39364","5"],
    [34005,"HCEP03730560","2024-09-16 12:15:00","11.203","3.43449","25.705","2.437","7.56","0.638","3.52","0.22","0.18","30.1734","4.74339","26.87","0","SATNPRO1962","29.082","0.40734","5"],
    [34006,"HCEP03730560","2024-09-16 12:30:00","11.2019","3.43493","25.903","2.435","7.56","0.732","3.747","0.38","0.33","30.1785","4.74414","26.85","0","SATNPRO1962","28.041999999999998","0.39276","5"],
    [34007,"HCEP03730560","2024-09-16 12:45:00","11.1989","3.43447","26.106","2.353","7.55","0.687","3.52","0.34","0.11","30.1763","4.74389","25.95","0","SATNPRO1962","27.916","0.391","5"],
    [34008,"HCEP03730560","2024-09-16 13:00:00","11.1989","3.43431","26.342","2.351","7.55","0.669","3.533","0.34","0.31","30.1746","4.74366","25.93","0","SATNPRO1962","27.652","0.38732","5"],
    [34009,"HCEP03730560","2024-09-16 13:15:00","11.1943","3.43342","26.565","2.298","7.55","0.651","3.802","0.1","0.12","30.1697","4.74304","25.34","0","SATNPRO1962","27.522","0.38546","5"],
    [34010,"HCEP03730560","2024-09-16 13:30:00","11.1958","3.43394","26.759","2.257","7.55","0.562","3.322","0.13","0.33","30.1735","4.74356","24.88","0","SATNPRO1962","28.288","0.3962","5"],
    [34011,"HCEP03730560","2024-09-16 13:45:00","11.1953","3.43196","26.938","2.263","7.55","0.677","3.612","0.18","0.15","30.1545","4.7409","24.95","0","SATNPRO1962","27.784","0.38914","5"],
    [34012,"HCEP03730560","2024-09-16 14:00:00","11.1977","3.4342","27.136","2.276","7.55","0.673","3.434","0.28","0.12","30.1742","4.74367","25.1","0","SATNPRO1962","28.02","0.39246","5"],
    [34013,"HCEP03730560","2024-09-16 14:15:00","11.1981","3.4343","27.269","2.327","7.55","0.523","3.149","0.12","0.1","30.1749","4.74376","25.66","0","SATNPRO1962","28.066","0.3931","5"],
    [34014,"HCEP03730560","2024-09-16 14:30:00","11.1972","3.43425","27.4","2.31","7.55","0.507","3.135","0.11","0.12","30.1751","4.7438","25.47","0","SATNPRO1962","27.992","0.39206","5"],
    [34015,"HCEP03730560","2024-09-16 14:45:00","11.198","3.4344","27.508","2.292","7.55","0.509","3.099","0.1","0.13","30.1759","4.74392","25.27","0","SATNPRO1962","27.914","0.39098","5"],
    [34016,"HCEP03730560","2024-09-16 15:00:00","11.1986","3.43449","27.605","2.293","7.55","0.508","3.245","0.09","0.12","30.1762","4.74395","25.29","0","SATNPRO1962","28.093999999999998","0.3935","5"],
    [34017,"HCEP03730560","2024-09-16 15:15:00","11.1994","3.43459","27.709","2.295","7.55","0.522","3.228","0.1","0.21","30.1764","4.74399","25.31","0","SATNPRO1962","28.258","0.39576","5"],
    [34018,"HCEP03730560","2024-09-16 15:30:00","11.1981","3.43438","27.697","2.304","7.55","0.562","3.378","0.13","0.12","30.1755","4.74386","25.41","0","SATNPRO1962","27.938","0.39132","5"],
    [34019,"HCEP03730560","2024-09-16 15:45:00","11.2001","3.43453","27.718","2.314","7.55","0.602","3.299","0.2","0.16","30.1753","4.74381","25.52","0","SATNPRO1962","28.4","0.39776","5"],
    [34020,"HCEP03730560","2024-09-16 16:00:00","11.2003","3.43456","27.706","2.343","7.55","0.564","3.309","0.2","0.25","30.1754","4.74383","25.83","0","SATNPRO1962","28.156","0.39434","5"],
    [34021,"HCEP03730560","2024-09-16 16:15:00","11.1876","3.43144","27.681","2.413","7.56","0.36","1.875","0.06","0.05","30.1555","4.74119","26.6","0","SATNPRO1962","29.45","0.41248","5"],
    [34022,"HCEP03730560","2024-09-16 16:30:00","11.2024","3.43476","27.647","2.476","7.56","0.558","3.103","0.11","0.11","30.1757","4.74383","27.31","0","SATNPRO1962","28.541999999999998","0.39978","5"],
    [34023,"HCEP03730560","2024-09-16 16:45:00","11.2025","3.43465","27.621","2.434","7.56","0.608","3.397","0.13","0.25","30.1745","4.74366","26.84","0","SATNPRO1962","28.598","0.40056","5"],
    [34024,"HCEP03730560","2024-09-16 17:00:00","11.2015","3.4349","27.596","2.397","7.56","0.711","3.377","0.3","0.17","30.1778","4.74414","26.43","0","SATNPRO1962","27.946","0.39144","5"],
    [34025,"HCEP03730560","2024-09-16 17:15:00","11.2033","3.43513","27.46","2.371","7.56","0.909","3.322","1.53","0.19","30.1786","4.74422","26.15","0","SATNPRO1962","28.126","0.39396","5"],
    [34026,"HCEP03730560","2024-09-16 17:30:00","11.2018","3.43504","27.373","2.351","7.55","0.74","3.609","0.27","0.19","30.179","4.74429","25.93","0","SATNPRO1962","27.978","0.39188","5"],
    [34027,"HCEP03730560","2024-09-16 17:45:00","11.202","3.43501","27.289","2.323","7.55","0.687","3.502","0.19","0.18","30.1786","4.74422","25.62","0","SATNPRO1962","27.858","0.3902","5"],
    [34028,"HCEP03730560","2024-09-16 18:00:00","11.1976","3.43448","27.259","2.28","7.55","0.644","3.863","0.15","0.25","30.1771","4.74408","25.14","0","SATNPRO1962","27.252","0.3817","5"],
    [34029,"HCEP03730560","2024-09-16 18:15:00","11.1967","3.43437","27.171","2.212","7.55","0.722","3.857","0.19","0.21","30.1768","4.74404","24.4","0","SATNPRO1962","27.438","0.38434","5"],
    [34030,"HCEP03730560","2024-09-16 18:30:00","11.1964","3.43438","27.03","2.203","7.54","0.671","4.111","0.11","0.44","30.1771","4.74409","24.3","0","SATNPRO1962","27.372","0.38338","5"],
    [34031,"HCEP03730560","2024-09-16 18:45:00","11.1975","3.43457","26.895","2.203","7.54","0.669","4.09","0.11","0.27","30.1782","4.74422","24.3","0","SATNPRO1962","27.464","0.38468","5"],
    [34032,"HCEP03730560","2024-09-16 19:00:00","11.1987","3.43475","26.77","2.218","7.54","0.726","4.182","0.18","0.43","30.179","4.7443","24.46","0","SATNPRO1962","27.6","0.38656","5"],
    [34033,"HCEP03730560","2024-09-16 19:15:00","11.1992","3.43483","26.634","2.234","7.54","0.639","4.051","0.1","0.27","30.1793","4.74434","24.64","0","SATNPRO1962","27.642","0.38722","5"],
    [34034,"HCEP03730560","2024-09-16 19:30:00","11.2023","3.43528","26.476","2.256","7.55","0.758","4.112","0.32","0.62","30.1812","4.74455","24.88","0","SATNPRO1962","27.701999999999998","0.38802","5"],
    [34035,"HCEP03730560","2024-09-16 19:45:00","11.2045","3.43567","26.318","2.283","7.55","0.681","4.093","0.11","0.23","30.1834","4.74481","25.18","0","SATNPRO1962","27.688","0.3878","5"],
    [34036,"HCEP03730560","2024-09-16 20:00:00","11.2001","3.43512","26.162","2.264","7.55","0.622","4.268","0.2","0.22","30.1817","4.74463","24.97","0","SATNPRO1962","27.396","0.38372","5"],
    [34037,"HCEP03730560","2024-09-16 20:15:00","11.2023","3.43538","26.002","2.242","7.55","0.652","4.382","0.18","0.53","30.1825","4.7447","24.73","0","SATNPRO1962","27.654","0.3874","5"],
    [34038,"HCEP03730560","2024-09-16 20:30:00","11.2043","3.43579","25.846","2.258","7.55","0.596","4.392","0.06","0.26","30.185","4.74501","24.91","0","SATNPRO1962","27.688","0.38784","5"],
    [34039,"HCEP03730560","2024-09-16 20:45:00","11.2056","3.43601","25.714","2.267","7.55","0.579","4.16","0.08","0.24","30.186","4.74514","25.01","0","SATNPRO1962","27.708000000000002","0.38808","5"],
    [34040,"HCEP03730560","2024-09-16 21:00:00","11.2063","3.43612","25.611","2.279","7.55","0.597","4.485","0.17","0.87","30.1865","4.7452","25.14","0","SATNPRO1962","27.508","0.3853","5"],
    [34041,"HCEP03730560","2024-09-16 21:15:00","11.2061","3.43614","25.533","2.283","7.55","0.599","4.042","0.12","0.76","30.1869","4.74525","25.18","0","SATNPRO1962","27.682","0.38772","5"],
    [34042,"HCEP03730560","2024-09-16 21:30:00","11.2058","3.43608","25.508","2.279","7.55","0.574","3.866","0.12","0.2","30.1866","4.74521","25.13","0","SATNPRO1962","27.62","0.38684","5"],
    [34043,"HCEP03730560","2024-09-16 21:45:00","11.2055","3.43603","25.509","2.275","7.55","0.597","3.925","0.23","0.2","30.1864","4.74518","25.09","0","SATNPRO1962","27.548","0.38586","5"],
    [34044,"HCEP03730560","2024-09-16 22:00:00","11.2048","3.43584","25.534","2.27","7.55","0.527","4.107","0.17","0.33","30.1851","4.74501","25.04","0","SATNPRO1962","27.664","0.3875","5"],
    [34045,"HCEP03730560","2024-09-16 22:15:00","11.2038","3.43579","25.57","2.268","7.55","0.559","3.505","0.13","0.12","30.1854","4.74506","25.02","0","SATNPRO1962","27.754","0.38868","5"],
    [34046,"HCEP03730560","2024-09-16 22:30:00","11.2037","3.43572","25.628","2.27","7.55","0.409","3.321","0.08","0.34","30.1848","4.74499","25.03","0","SATNPRO1962","27.812","0.38956","5"],
    [34047,"HCEP03730560","2024-09-16 22:45:00","11.2006","3.43513","25.709","2.268","7.55","0.462","3.05","0.11","0.06","30.1815","4.74458","25.02","0","SATNPRO1962","27.626","0.38698","5"],
    [34048,"HCEP03730560","2024-09-16 23:00:00","11.2019","3.43517","25.796","2.267","7.55","0.426","3.117","0.09","0.06","30.1809","4.74447","25","0","SATNPRO1962","27.824","0.3897","5"],
    [34049,"HCEP03730560","2024-09-16 23:15:00","11.2043","3.4359","25.896","2.265","7.55","0.488","3.301","0.13","0.21","30.186","4.74516","24.98","0","SATNPRO1962","27.76","0.38884","5"],
    [34050,"HCEP03730560","2024-09-16 23:30:00","11.2027","3.43546","25.995","2.266","7.55","0.414","3.189","0.09","0.21","30.183","4.74477","24.99","0","SATNPRO1962","27.971999999999998","0.39178","5"],
    [34051,"HCEP03730560","2024-09-16 23:45:00","11.2065","3.4364","26.111","2.267","7.55","0.552","3.441","0.16","0.14","30.1889","4.74556","25.01","0","SATNPRO1962","27.726","0.38836","5"],
    [34052,"HCEP03730560","2024-09-17 00:00:00","11.2084","3.43672","26.228","2.247","7.55","0.607","3.933","0.15","0.22","30.1904","4.74575","24.79","0","SATNPRO1962","27.64","0.38716","5"],
    [34053,"HCEP03730560","2024-09-17 00:15:00","11.2095","3.43693","26.376","2.246","7.55","0.629","4.173","0.21","0.36","30.1916","4.7459","24.77","0","SATNPRO1962","27.578","0.3863","5"],
    [34054,"HCEP03730560","2024-09-17 00:30:00","11.2104","3.43707","26.602","2.241","7.55","0.481","3.959","0.08","0.14","30.1921","4.74598","24.72","0","SATNPRO1962","27.504","0.38522","5"],
    [34055,"HCEP03730560","2024-09-17 00:45:00","11.2114","3.43722","26.754","2.244","7.55","0.494","3.791","0.08","0.16","30.1926","4.74604","24.76","0","SATNPRO1962","27.534","0.38566","5"],
    [34056,"HCEP03730560","2024-09-17 01:00:00","11.2123","3.43735","26.889","2.252","7.55","0.481","3.921","0.07","0.18","30.1932","4.74612","24.84","0","SATNPRO1962","27.602","0.3866","5"],
    [34057,"HCEP03730560","2024-09-17 01:15:00","11.2116","3.43729","27.018","2.245","7.55","0.593","4.058","0.13","0.17","30.193","4.74611","24.76","0","SATNPRO1962","27.526","0.38558","5"],
    [34058,"HCEP03730560","2024-09-17 01:30:00","11.2131","3.43743","27.009","2.242","7.55","0.59","4.29","0.14","0.28","30.1932","4.74612","24.74","0","SATNPRO1962","27.604","0.38668","5"],
    [34059,"HCEP03730560","2024-09-17 01:45:00","11.2132","3.43745","27.094","2.253","7.55","0.605","4.13","0.15","0.11","30.1932","4.74612","24.85","0","SATNPRO1962","27.598","0.38654","5"],
    [34060,"HCEP03730560","2024-09-17 02:00:00","11.2133","3.43749","27.264","2.253","7.55","0.547","3.983","0.08","0.12","30.1934","4.74616","24.85","0","SATNPRO1962","27.65","0.38728","5"],
    [34061,"HCEP03730560","2024-09-17 02:15:00","11.214","3.43755","27.455","2.247","7.55","0.57","3.956","0.09","0.15","30.1934","4.74616","24.79","0","SATNPRO1962","27.596","0.38652","5"],
    [34062,"HCEP03730560","2024-09-17 02:30:00","11.2144","3.43757","27.519","2.246","7.55","0.572","3.776","0.13","0.18","30.1933","4.74614","24.77","0","SATNPRO1962","27.47","0.3848","5"],
    [34063,"HCEP03730560","2024-09-17 02:45:00","11.2143","3.43755","27.568","2.254","7.55","0.545","3.717","0.09","0.17","30.1931","4.74612","24.87","0","SATNPRO1962","27.62","0.38682","5"],
    [34064,"HCEP03730560","2024-09-17 03:00:00","11.2124","3.43717","27.562","2.261","7.55","0.466","3.727","0.06","0.16","30.191","4.74584","24.94","0","SATNPRO1962","27.798","0.38932","5"],
    [34065,"HCEP03730560","2024-09-17 03:15:00","11.2126","3.43725","27.601","2.263","7.55","0.469","3.839","0.09","0.22","30.1916","4.74593","24.96","0","SATNPRO1962","27.474","0.38482","5"],
    [34066,"HCEP03730560","2024-09-17 03:30:00","11.201","3.43533","27.563","2.229","7.54","0.407","3.402","0.08","0.11","30.1824","4.74479","24.58","0","SATNPRO1962","27.732","0.38844","5"],
    [34067,"HCEP03730560","2024-09-17 03:45:00","11.1836","3.4321","27.518","2.147","7.54","0.355","2.938","0.08","0.12","30.1652","4.74262","23.66","0","SATNPRO1962","27.358","0.38322","5"],
    [34068,"HCEP03730560","2024-09-17 04:00:00","11.1956","3.43458","27.461","2.093","7.53","0.392","3.267","0.18","0.16","30.1795","4.74447","23.08","0","SATNPRO1962","27.392","0.38366","5"],
    [34069,"HCEP03730560","2024-09-17 04:15:00","11.2041","3.43586","27.397","2.158","7.54","0.433","3.305","0.07","0.06","30.1851","4.74512","23.8","0","SATNPRO1962","27.378","0.38348","5"],
    [34070,"HCEP03730560","2024-09-17 04:30:00","11.2","3.43515","27.298","2.175","7.54","0.379","3.559","0.04","0.11","30.1816","4.74469","23.98","0","SATNPRO1962","27.428","0.38416","5"],
    [34071,"HCEP03730560","2024-09-17 04:45:00","11.1995","3.43509","27.191","2.16","7.54","0.384","3.348","0.06","0.06","30.1814","4.74466","23.82","0","SATNPRO1962","27.268","0.38194","5"],
    [34072,"HCEP03730560","2024-09-17 05:00:00","11.1983","3.43481","27.055","2.132","7.54","0.295","3.193","0.03","0.05","30.1798","4.74444","23.51","0","SATNPRO1962","27.204","0.381","5"],
    [34073,"HCEP03730560","2024-09-17 05:15:00","11.1978","3.43485","26.905","2.118","7.53","0.363","3.136","0.05","0.05","30.1807","4.74457","23.36","0","SATNPRO1962","27.252","0.38172","5"],
    [34074,"HCEP03730560","2024-09-17 05:30:00","11.1972","3.43476","26.738","2.098","7.53","0.329","3.379","0.04","0.04","30.1803","4.74451","23.14","0","SATNPRO1962","27.11","0.37972","5"],
    [34075,"HCEP03730560","2024-09-17 05:45:00","11.187","3.43297","26.564","2.067","7.53","0.318","2.929","0.03","0.07","30.1713","4.74338","22.79","0","SATNPRO1962","27.080000000000002","0.3793","5"],
    [34076,"HCEP03730560","2024-09-17 06:00:00","11.1857","3.43294","26.381","2.031","7.53","0.293","2.926","0.03","0.11","30.1721","4.74351","22.39","0","SATNPRO1962","27.114","0.37978","5"],
    [34077,"HCEP03730560","2024-09-17 06:15:00","11.1767","3.43126","26.188","1.991","7.52","0.298","2.702","0.05","0.09","30.1631","4.74235","21.94","0","SATNPRO1962","26.698","0.37396","5"],
    [34078,"HCEP03730560","2024-09-17 06:30:00","11.1726","3.43069","25.986","1.928","7.52","0.278","2.846","0.07","0.14","30.1611","4.74211","21.25","0","SATNPRO1962","26.7","0.374","5"],
    [34079,"HCEP03730560","2024-09-17 06:45:00","11.1601","3.42831","25.785","1.857","7.51","0.362","2.764","0.1","0.12","30.1482","4.74046","20.46","0","SATNPRO1962","26.22","0.36726","5"],
    [34080,"HCEP03730560","2024-09-17 07:00:00","11.1711","3.43041","25.572","1.826","7.51","0.392","3.048","0.17","0.25","30.1597","4.74192","20.12","0","SATNPRO1962","26.528","0.37154","5"],
    [34081,"HCEP03730560","2024-09-17 07:15:00","11.1866","3.43298","25.354","1.919","7.52","0.455","3.335","0.26","0.15","30.1721","4.74344","21.16","0","SATNPRO1962","27.296","0.3823","5"],
    [34082,"HCEP03730560","2024-09-17 07:30:00","11.1894","3.43341","25.143","2.014","7.52","0.705","3.577","1.53","0.2","30.1741","4.74367","22.2","0","SATNPRO1962","27.12","0.37986","5"],
    [34083,"HCEP03730560","2024-09-17 07:45:00","11.1906","3.43364","24.93","2.048","7.52","0.392","3.568","0.08","0.18","30.1756","4.74384","22.58","0","SATNPRO1962","27.12","0.37984","5"],
    [34084,"HCEP03730560","2024-09-17 08:00:00","11.1928","3.43382","24.73","2.067","7.53","0.444","3.557","0.18","0.17","30.1755","4.74379","22.79","0","SATNPRO1962","27.322","0.38264","5"],
    [34085,"HCEP03730560","2024-09-17 08:15:00","11.1926","3.43404","24.534","2.089","7.53","0.43","3.433","0.19","0.17","30.178","4.74412","23.03","0","SATNPRO1962","26.736","0.37452","5"],
    [34086,"HCEP03730560","2024-09-17 08:30:00","11.2004","3.43536","24.356","2.097","7.53","0.495","3.82","0.11","0.23","30.1844","4.74492","23.13","0","SATNPRO1962","27.232","0.38144","5"],
    [34087,"HCEP03730560","2024-09-17 08:45:00","11.2004","3.43528","24.249","2.1","7.53","0.491","3.805","0.08","0.18","30.1837","4.74481","23.16","0","SATNPRO1962","27.048000000000002","0.37882","5"],
    [34088,"HCEP03730560","2024-09-17 09:00:00","11.1978","3.43493","24.165","2.09","7.53","0.484","3.98","0.04","0.12","30.1824","4.74466","23.04","0","SATNPRO1962","26.61","0.37268","5"],
    [34089,"HCEP03730560","2024-09-17 09:15:00","11.1935","3.43401","24.073","2.056","7.53","0.407","3.211","0.04","0.11","30.1771","4.74396","22.67","0","SATNPRO1962","26.98","0.3779","5"],
    [34090,"HCEP03730560","2024-09-17 09:30:00","11.1933","3.43408","24.051","2.035","7.53","0.398","3.301","0.04","0.07","30.1779","4.74408","22.44","0","SATNPRO1962","27.14","0.38014","5"],
    [34091,"HCEP03730560","2024-09-17 09:45:00","11.1939","3.43424","24.054","2.043","7.53","0.432","3.31","0.07","0.08","30.179","4.74422","22.52","0","SATNPRO1962","27.14","0.38016","5"],
    [34092,"HCEP03730560","2024-09-17 10:00:00","11.1856","3.43301","24.084","2.014","7.52","0.436","3.407","0.06","0.15","30.1738","4.74361","22.2","0","SATNPRO1962","26.854","0.37614","5"],
    [34093,"HCEP03730560","2024-09-17 10:15:00","11.1876","3.43329","24.097","1.951","7.52","0.482","3.501","0.05","0.12","30.1749","4.74374","21.51","0","SATNPRO1962","26.544","0.3718","5"],
    [34094,"HCEP03730560","2024-09-17 10:30:00","11.1808","3.43205","24.167","1.896","7.51","0.492","3.772","0.11","0.13","30.1683","4.74292","20.9","0","SATNPRO1962","26.374","0.36942","5"],
    [34095,"HCEP03730560","2024-09-17 10:45:00","11.1818","3.43232","24.326","1.848","7.51","0.46","3.658","0.07","0.21","30.1701","4.74316","20.37","0","SATNPRO1962","26.492","0.37102","5"],
    [34096,"HCEP03730560","2024-09-17 11:00:00","11.1889","3.43353","24.475","1.841","7.51","0.502","4.072","0.04","0.11","30.176","4.7439","20.3","0","SATNPRO1962","26.282","0.36814","5"],
    [34097,"HCEP03730560","2024-09-17 11:15:00","11.1969","3.4349","24.66","1.859","7.51","0.616","4.637","0.05","0.11","30.1828","4.74475","20.5","0","SATNPRO1962","26.22","0.36724","5"],
    [34098,"HCEP03730560","2024-09-17 11:30:00","11.2008","3.43548","24.793","1.883","7.51","0.662","4.513","0.07","0.13","30.1851","4.74502","20.77","0","SATNPRO1962","26.580000000000002","0.37232","5"],
    [34099,"HCEP03730560","2024-09-17 11:45:00","11.2009","3.4355","25.064","1.918","7.51","0.642","4.447","0.09","0.15","30.1851","4.74504","21.16","0","SATNPRO1962","26.574","0.37224","5"],
    [34100,"HCEP03730560","2024-09-17 12:00:00","11.201","3.4355","25.164","1.926","7.52","0.731","4.709","0.19","0.14","30.185","4.74503","21.24","0","SATNPRO1962","26.654","0.37334","5"],
    [34101,"HCEP03730560","2024-09-17 12:15:00","11.2025","3.43555","25.324","1.924","7.52","0.643","4.218","0.07","0.18","30.1842","4.7449","21.22","0","SATNPRO1962","26.913999999999998","0.37698","5"],
    [34102,"HCEP03730560","2024-09-17 12:30:00","11.1994","3.43517","25.546","1.94","7.52","0.644","4.512","0.08","0.16","30.1829","4.74478","21.4","0","SATNPRO1962","26.55","0.37192","5"],
    [34103,"HCEP03730560","2024-09-17 12:45:00","11.1985","3.43498","25.676","1.886","7.51","0.651","4.552","0.09","0.12","30.1818","4.74464","20.8","0","SATNPRO1962","26.404","0.36982","5"],
    [34104,"HCEP03730560","2024-09-17 13:00:00","11.1961","3.43453","25.941","1.878","7.51","0.662","4.69","0.24","0.17","30.1793","4.74433","20.7","0","SATNPRO1962","26.322","0.36864","5"],
    [34105,"HCEP03730560","2024-09-17 13:15:00","11.1923","3.43392","26.108","1.835","7.51","0.702","4.777","0.12","0.16","30.1764","4.744","20.23","0","SATNPRO1962","26.22","0.36726","5"],
    [34106,"HCEP03730560","2024-09-17 13:30:00","11.1884","3.43334","26.335","1.795","7.51","0.601","4.347","0.1","0.22","30.1739","4.74371","19.79","0","SATNPRO1962","26.236","0.36748","5"],
    [34107,"HCEP03730560","2024-09-17 13:45:00","11.1776","3.43179","26.527","1.718","7.5","0.612","4.707","0.09","0.22","30.1675","4.74299","18.94","0","SATNPRO1962","25.224","0.35328","5"],
    [34108,"HCEP03730560","2024-09-17 14:00:00","11.1671","3.43023","26.722","1.547","7.49","0.62","4.605","0.09","0.18","30.1608","4.74219","17.05","0","SATNPRO1962","24.604","0.34466","5"],
    [34109,"HCEP03730560","2024-09-17 14:15:00","11.162","3.42942","26.949","1.471","7.48","0.634","4.477","0.19","0.16","30.157","4.74175","16.21","0","SATNPRO1962","24.628","0.34496","5"],
    [34110,"HCEP03730560","2024-09-17 14:30:00","11.1552","3.42831","27.134","1.441","7.48","0.501","4.134","0.07","0.19","30.1517","4.74111","15.87","0","SATNPRO1962","24.616","0.34478","5"],
    [34111,"HCEP03730560","2024-09-17 14:45:00","11.1474","3.42678","27.305","1.423","7.47","0.49","3.813","0.07","0.13","30.143","4.74001","15.67","0","SATNPRO1962","24.736","0.34646","5"],
    [34112,"HCEP03730560","2024-09-17 15:00:00","11.1377","3.42529","27.499","1.409","7.47","0.427","3.485","0.07","0.07","30.1363","4.73922","15.51","0","SATNPRO1962","24.796","0.3473","5"],
    [34113,"HCEP03730560","2024-09-17 15:15:00","11.1327","3.42422","27.629","1.433","7.47","0.491","3.45","0.19","0.09","30.1299","4.73839","15.78","0","SATNPRO1962","25.099999999999998","0.35156","5"],
    [34114,"HCEP03730560","2024-09-17 15:30:00","11.1387","3.42551","27.721","1.421","7.47","0.43","3.559","0.11","0.1","30.1375","4.73939","15.64","0","SATNPRO1962","24.41","0.34192","5"],
    [34115,"HCEP03730560","2024-09-17 15:45:00","11.1281","3.42373","27.787","1.31","7.46","0.464","3.394","0.1","0.08","30.1289","4.73832","14.42","0","SATNPRO1962","24.098","0.33752","5"],
    [34116,"HCEP03730560","2024-09-17 16:00:00","11.1217","3.42263","27.829","1.224","7.45","0.437","3.409","0.08","0.08","30.1234","4.73764","13.47","0","SATNPRO1962","23.598","0.33052","5"],
    [34117,"HCEP03730560","2024-09-17 16:15:00","11.131","3.42434","27.835","1.151","7.45","0.593","4.026","0.16","0.13","30.1324","4.73878","12.67","0","SATNPRO1962","23.264","0.32588","5"],
    [34118,"HCEP03730560","2024-09-17 16:30:00","11.1368","3.42533","27.831","1.147","7.44","0.47","3.902","0.08","0.21","30.1373","4.73939","12.63","0","SATNPRO1962","23.214","0.32514","5"],
    [34119,"HCEP03730560","2024-09-17 16:45:00","11.129","3.42399","27.797","1.134","7.44","0.659","4.454","0.4","0.53","30.1306","4.73855","12.49","0","SATNPRO1962","23.07","0.32314","5"],
    [34120,"HCEP03730560","2024-09-17 17:00:00","11.1302","3.42438","27.756","1.115","7.44","0.506","3.739","0.13","0.15","30.1336","4.73895","12.27","0","SATNPRO1962","23.08","0.32326","5"],
    [34121,"HCEP03730560","2024-09-17 17:15:00","11.1366","3.42544","27.679","1.125","7.44","0.521","3.792","0.09","0.14","30.1387","4.73957","12.39","0","SATNPRO1962","23.169999999999998","0.32448","5"],
    [34122,"HCEP03730560","2024-09-17 17:30:00","11.1393","3.42572","27.611","1.133","7.44","0.517","4.073","0.1","0.34","30.1392","4.73961","12.48","0","SATNPRO1962","23.134","0.32402","5"],
    [34123,"HCEP03730560","2024-09-17 17:45:00","11.1393","3.42587","27.537","1.14","7.44","0.566","3.846","0.18","0.18","30.1407","4.73981","12.55","0","SATNPRO1962","23.242","0.32558","5"],
    [34124,"HCEP03730560","2024-09-17 18:00:00","11.1239","3.42333","27.421","1.123","7.44","0.478","3.78","0.12","0.2","30.1285","4.73831","12.36","0","SATNPRO1962","23.306","0.32644","5"],
    [34125,"HCEP03730560","2024-09-17 18:15:00","11.1403","3.42602","27.295","1.126","7.44","0.559","3.809","0.25","0.13","30.1415","4.7399","12.4","0","SATNPRO1962","23.496","0.3291","5"],
    [34126,"HCEP03730560","2024-09-17 18:30:00","11.1196","3.42205","27.167","1.156","7.44","0.454","3.501","0.1","0.17","30.1197","4.73712","12.72","0","SATNPRO1962","23.482","0.32892","5"],
    [34127,"HCEP03730560","2024-09-17 18:45:00","11.1662","3.4302","27.026","1.239","7.45","0.572","4.171","0.12","0.24","30.1611","4.74227","13.65","0","SATNPRO1962","24.704","0.34606","5"],
    [34128,"HCEP03730560","2024-09-17 19:00:00","11.1777","3.43172","26.934","1.49","7.47","0.574","3.965","0.2","0.23","30.1666","4.74287","16.43","0","SATNPRO1962","25.282","0.35412","5"],
    [34129,"HCEP03730560","2024-09-17 19:15:00","11.1834","3.43265","26.775","1.638","7.48","0.534","3.891","0.1","0.15","30.171","4.7434","18.06","0","SATNPRO1962","25.674","0.3596","5"],
    [34130,"HCEP03730560","2024-09-17 19:30:00","11.1747","3.43102","26.624","1.681","7.48","0.511","3.765","0.12","0.22","30.1623","4.7423","18.52","0","SATNPRO1962","25.666","0.3595","5"],
    [34131,"HCEP03730560","2024-09-17 19:45:00","11.1784","3.43188","26.468","1.669","7.49","0.548","3.829","0.14","0.16","30.1677","4.74299","18.39","0","SATNPRO1962","25.792","0.36124","5"],
    [34132,"HCEP03730560","2024-09-17 20:00:00","11.1808","3.43218","26.314","1.691","7.49","0.513","3.719","0.16","0.19","30.1688","4.74311","18.64","0","SATNPRO1962","25.91","0.36294","5"],
    [34133,"HCEP03730560","2024-09-17 20:15:00","11.1854","3.43271","26.159","1.723","7.49","0.527","3.752","0.12","0.28","30.1702","4.74323","18.99","0","SATNPRO1962","26.154","0.36634","5"],
    [34134,"HCEP03730560","2024-09-17 20:30:00","11.1946","3.43417","26.045","1.839","7.5","0.515","3.788","0.11","0.16","30.177","4.74404","20.28","0","SATNPRO1962","26.712","0.37414","5"],
    [34135,"HCEP03730560","2024-09-17 20:45:00","11.1859","3.43313","25.886","1.867","7.5","0.561","4.139","0.07","0.17","30.174","4.74374","20.58","0","SATNPRO1962","26.066","0.36512","5"],
    [34136,"HCEP03730560","2024-09-17 21:00:00","11.1778","3.43199","25.648","1.752","7.5","0.501","4.079","0.11","0.25","30.1696","4.74322","19.32","0","SATNPRO1962","25.612","0.35872","5"],
    [34137,"HCEP03730560","2024-09-17 21:15:00","11.1602","3.42915","25.483","1.624","7.49","0.5","3.813","0.1","0.3","30.1565","4.74162","17.89","0","SATNPRO1962","25.11","0.35172","5"],
    [34138,"HCEP03730560","2024-09-17 21:30:00","11.1434","3.42682","25.282","1.484","7.48","0.424","4.04","0.06","0.56","30.1475","4.74059","16.34","0","SATNPRO1962","24.712","0.34612","5"],
    [34139,"HCEP03730560","2024-09-17 21:45:00","11.1369","3.42553","25.102","1.407","7.47","0.48","3.781","0.1","0.18","30.1402","4.73965","15.5","0","SATNPRO1962","24.556","0.34394","5"],
    [34140,"HCEP03730560","2024-09-17 22:00:00","11.1303","3.42437","25.027","1.35","7.47","0.5","3.915","0.08","0.28","30.1345","4.73893","14.86","0","SATNPRO1962","24.214","0.33912","5"],
    [34141,"HCEP03730560","2024-09-17 22:15:00","11.1181","3.4221","25.005","1.285","7.46","0.491","3.811","0.14","0.59","30.1223","4.73738","14.15","0","SATNPRO1962","24.072","0.33714","5"],
    [34142,"HCEP03730560","2024-09-17 22:30:00","11.1082","3.42065","25.038","1.197","7.45","0.452","3.519","0.16","0.41","30.1161","4.73665","13.17","0","SATNPRO1962","24.018","0.33642","5"],
    [34143,"HCEP03730560","2024-09-17 22:45:00","11.0988","3.41908","25.093","1.118","7.44","0.423","3.412","0.08","0.32","30.1086","4.73573","12.3","0","SATNPRO1962","23.516","0.32938","5"],
    [34144,"HCEP03730560","2024-09-17 23:00:00","11.0854","3.41704","25.144","1.024","7.43","0.352","3.374","0.08","0.48","30.0995","4.73466","11.26","0","SATNPRO1962","23.128","0.32394","5"],
    [34145,"HCEP03730560","2024-09-17 23:15:00","11.0723","3.41495","25.221","0.911","7.42","0.378","3.075","0.05","0.19","30.0898","4.73348","10.02","0","SATNPRO1962","22.422","0.31408","5"],
    [34146,"HCEP03730560","2024-09-17 23:30:00","11.0645","3.41369","25.328","0.812","7.42","0.364","3.066","0.07","0.21","30.0839","4.73277","8.93","0","SATNPRO1962","22.118","0.30978","5"],
    [34147,"HCEP03730560","2024-09-17 23:45:00","11.0577","3.41262","25.441","0.744","7.41","0.411","3.093","0.12","0.35","30.0789","4.73216","8.18","0","SATNPRO1962","21.814","0.30554","5"],
    [34148,"HCEP03730560","2024-09-18 00:00:00","11.0531","3.41189","25.561","0.699","7.4","0.308","3.039","0.07","0.27","30.0754","4.73175","7.68","0","SATNPRO1962","21.742","0.30454","5"],
    [34149,"HCEP03730560","2024-09-18 00:15:00","11.0569","3.41256","25.692","0.684","7.4","0.37","3.145","0.07","0.64","30.0788","4.73217","7.52","0","SATNPRO1962","21.832","0.3058","5"],
    [34150,"HCEP03730560","2024-09-18 00:30:00","11.0602","3.41306","25.813","0.694","7.4","0.345","2.945","0.1","0.11","30.081","4.73245","7.63","0","SATNPRO1962","21.858","0.3062","5"],
    [34151,"HCEP03730560","2024-09-18 00:45:00","11.0709","3.41478","25.969","0.731","7.4","0.351","3.103","0.1","0.31","30.089","4.73343","8.03","0","SATNPRO1962","22.272000000000002","0.31194","5"],
    [34152,"HCEP03730560","2024-09-18 01:00:00","11.0752","3.4155","26.138","0.786","7.41","0.315","3.075","0.04","0.17","30.0924","4.73386","8.64","0","SATNPRO1962","22.669999999999998","0.31754","5"],
    [34153,"HCEP03730560","2024-09-18 01:15:00","11.0787","3.41606","26.347","0.819","7.41","0.333","2.944","0.05","0.15","30.095","4.73418","9.01","0","SATNPRO1962","22.596","0.3165","5"],
    [34154,"HCEP03730560","2024-09-18 01:30:00","11.0829","3.41669","26.539","0.823","7.41","0.324","3.032","0.06","0.12","30.0977","4.73451","9.05","0","SATNPRO1962","22.534","0.3156","5"],
    [34155,"HCEP03730560","2024-09-18 01:45:00","11.0905","3.4176","26.67","0.855","7.41","0.343","3.137","0.04","0.15","30.1002","4.73476","9.4","0","SATNPRO1962","22.664","0.31744","5"],
    [34156,"HCEP03730560","2024-09-18 02:00:00","11.0962","3.41884","26.729","0.88","7.41","0.356","3.337","0.05","0.32","30.1077","4.73574","9.68","0","SATNPRO1962","22.898","0.3207","5"],
    [34157,"HCEP03730560","2024-09-18 02:15:00","11.0988","3.4195","26.893","0.9","7.42","0.361","3.327","0.09","0.14","30.1119","4.73631","9.9","0","SATNPRO1962","22.842","0.31996","5"],
    [34158,"HCEP03730560","2024-09-18 02:30:00","11.1025","3.42007","27.075","0.913","7.42","0.357","3.301","0.06","0.12","30.1144","4.73662","10.04","0","SATNPRO1962","22.71","0.31804","5"],
    [34159,"HCEP03730560","2024-09-18 02:45:00","11.1038","3.42015","27.202","0.922","7.42","0.348","3.324","0.04","0.21","30.114","4.73655","10.14","0","SATNPRO1962","22.898","0.32072","5"],
    [34160,"HCEP03730560","2024-09-18 03:00:00","11.1045","3.42026","27.317","0.929","7.42","0.346","3.382","0.06","0.1","30.1146","4.73662","10.22","0","SATNPRO1962","22.614","0.31674","5"],
    [34161,"HCEP03730560","2024-09-18 03:15:00","11.1058","3.42051","27.416","0.94","7.42","0.391","3.471","0.04","0.2","30.1158","4.73679","10.34","0","SATNPRO1962","22.822","0.31966","5"],
    [34162,"HCEP03730560","2024-09-18 03:30:00","11.1059","3.42054","27.524","0.944","7.42","0.448","4.395","0.05","0.54","30.116","4.73682","10.39","0","SATNPRO1962","22.706","0.31804","5"],
    [34163,"HCEP03730560","2024-09-18 03:45:00","11.1016","3.42013","27.578","0.94","7.42","0.364","3.261","0.05","0.09","30.1156","4.73682","10.34","0","SATNPRO1962","22.556","0.31596","5"],
    [34164,"HCEP03730560","2024-09-18 04:00:00","11.0883","3.41809","27.651","0.887","7.42","0.356","3.105","0.22","0.09","30.1064","4.73573","9.76","0","SATNPRO1962","21.45","0.30048","5"],
    [34165,"HCEP03730560","2024-09-18 04:15:00","11.0674","3.41487","27.674","0.808","7.41","0.355","3.219","0.05","0.1","30.092","4.734","8.88","0","SATNPRO1962","21.194","0.29684","5"],
    [34166,"HCEP03730560","2024-09-18 04:30:00","11.0375","3.40945","27.642","0.684","7.4","0.334","3.032","0.07","0.14","30.0636","4.73043","7.51","0","SATNPRO1962","21.116","0.29574","5"],
    [34167,"HCEP03730560","2024-09-18 04:45:00","11.047","3.41116","27.591","0.591","7.39","0.311","2.879","0.03","0.08","30.0725","4.73154","6.49","0","SATNPRO1962","21.16","0.29638","5"],
    [34168,"HCEP03730560","2024-09-18 05:00:00","11.0712","3.41525","27.528","0.648","7.4","0.341","3.386","0.07","0.22","30.0927","4.73404","7.12","0","SATNPRO1962","22.218","0.31118","5"],
    [34169,"HCEP03730560","2024-09-18 05:15:00","11.0963","3.41911","27.494","0.79","7.41","0.332","3.034","0.04","0.26","30.11","4.7361","8.69","0","SATNPRO1962","22.546","0.31582","5"],
    [34170,"HCEP03730560","2024-09-18 05:30:00","11.0687","3.4144","27.385","0.838","7.41","0.3","2.923","0.03","0.23","30.0865","4.73319","9.21","0","SATNPRO1962","22.246000000000002","0.31158","5"],
    [34171,"HCEP03730560","2024-09-18 05:45:00","11.0551","3.41229","27.255","0.74","7.4","0.308","2.724","0.02","0.08","30.0771","4.73205","8.13","0","SATNPRO1962","22.064","0.30902","5"],
    [34172,"HCEP03730560","2024-09-18 06:00:00","11.1143","3.42226","27.078","0.809","7.41","0.525","3.825","0.27","0.29","30.1261","4.7381","8.9","0","SATNPRO1962","23.346","0.32696","5"],
    [34173,"HCEP03730560","2024-09-18 06:15:00","11.1031","3.42019","26.923","0.955","7.42","0.349","3.29","0.03","0.14","30.1151","4.73669","10.51","0","SATNPRO1962","23.502","0.3292","5"],
    [34174,"HCEP03730560","2024-09-18 06:30:00","11.0824","3.41595","26.757","0.913","7.41","0.346","3.395","0.06","0.69","30.0907","4.73354","10.04","0","SATNPRO1962","22.462","0.3146","5"],
    [34175,"HCEP03730560","2024-09-18 06:45:00","11.0953","3.4188","26.573","0.882","7.41","0.472","3.228","0.1","0.25","30.1081","4.7358","9.7","0","SATNPRO1962","23.148","0.32422","5"],
    [34176,"HCEP03730560","2024-09-18 07:00:00","11.1006","3.41972","26.395","0.944","7.42","0.366","3.3","0.06","0.35","30.1127","4.73637","10.38","0","SATNPRO1962","23.204","0.32504","5"],
    [34177,"HCEP03730560","2024-09-18 07:15:00","11.0812","3.41622","26.216","0.926","7.42","0.384","2.852","0.09","0.15","30.0945","4.73407","10.18","0","SATNPRO1962","23.07","0.32312","5"],
    [34178,"HCEP03730560","2024-09-18 07:30:00","11.1056","3.42045","26.036","0.91","7.42","0.362","3.401","0.09","0.65","30.116","4.73673","10.01","0","SATNPRO1962","23.56","0.32996","5"],
    [34179,"HCEP03730560","2024-09-18 07:45:00","11.1008","3.42001","25.843","0.986","7.42","0.332","2.989","0.03","0.29","30.1156","4.73675","10.84","0","SATNPRO1962","23.073999999999998","0.32318","5"],
    [34180,"HCEP03730560","2024-09-18 08:00:00","11.0865","3.41731","25.669","0.967","7.42","0.325","2.999","0.07","0.24","30.1011","4.73489","10.63","0","SATNPRO1962","23.099999999999998","0.32356","5"],
    [34181,"HCEP03730560","2024-09-18 08:15:00","11.0826","3.41672","25.475","0.9","7.42","0.353","2.969","0.07","0.2","30.0986","4.73459","9.89","0","SATNPRO1962","23.048000000000002","0.3228","5"],
    [34182,"HCEP03730560","2024-09-18 08:30:00","11.0684","3.41428","25.267","0.832","7.41","0.327","2.769","0.1","0.06","30.0864","4.73306","9.15","0","SATNPRO1962","22.21","0.31106","5"],
    [34183,"HCEP03730560","2024-09-18 08:45:00","11.0413","3.40992","25.062","0.71","7.4","0.345","2.708","0.07","0.06","30.0661","4.73058","7.8","0","SATNPRO1962","21.468","0.3007","5"],
    [34184,"HCEP03730560","2024-09-18 09:00:00","11.0421","3.41009","24.875","0.612","7.39","0.363","2.796","0.1","0.08","30.0672","4.73071","6.73","0","SATNPRO1962","21.368000000000002","0.29924","5"],
    [34185,"HCEP03730560","2024-09-18 09:15:00","11.0278","3.40791","24.697","0.562","7.39","0.38","2.888","0.12","0.51","30.0576","4.72956","6.17","0","SATNPRO1962","21.104","0.2956","5"],
    [34186,"HCEP03730560","2024-09-18 09:30:00","11.032","3.40831","24.547","0.533","7.38","0.354","2.787","0.1","0.18","30.0581","4.72956","5.85","0","SATNPRO1962","21.201999999999998","0.29694","5"],
    [34187,"HCEP03730560","2024-09-18 09:45:00","11.0305","3.40771","24.418","0.531","7.38","0.356","3.035","0.05","0.59","30.0536","4.72893","5.83","0","SATNPRO1962","21.13","0.296","5"],
    [34188,"HCEP03730560","2024-09-18 10:00:00","11.0221","3.40637","24.367","0.513","7.38","0.389","3.42","0.06","0.51","30.0474","4.72818","5.63","0","SATNPRO1962","20.766000000000002","0.29088","5"],
    [34189,"HCEP03730560","2024-09-18 10:15:00","11.0462","3.41141","24.348","0.539","7.38","0.47","3.209","0.13","0.26","30.0769","4.732","5.92","0","SATNPRO1962","22.258","0.31176","5"],
    [34190,"HCEP03730560","2024-09-18 10:30:00","11.0646","3.41422","24.34","0.64","7.39","0.368","3.016","0.05","0.21","30.0893","4.73348","7.03","0","SATNPRO1962","22.146","0.31022","5"],
    [34191,"HCEP03730560","2024-09-18 10:45:00","11.0415","3.40993","24.398","0.665","7.39","0.43","2.671","0.12","0.13","30.0663","4.73057","7.31","0","SATNPRO1962","21.848","0.306","5"],
    [34192,"HCEP03730560","2024-09-18 11:00:00","11.1018","3.41932","24.447","0.727","7.4","0.397","3.244","0.04","0.09","30.1087","4.73566","7.99","0","SATNPRO1962","23.174","0.3246","5"],
    [34193,"HCEP03730560","2024-09-18 11:15:00","11.1128","3.42061","24.5","0.939","7.41","0.466","3.277","0.07","0.08","30.1123","4.73601","10.33","0","SATNPRO1962","22.96","0.3216","5"],
    [34194,"HCEP03730560","2024-09-18 11:30:00","11.0985","3.41779","24.661","0.988","7.42","0.399","3.086","0.1","0.34","30.0964","4.73398","10.87","0","SATNPRO1962","22.9","0.32078","5"],
    [34195,"HCEP03730560","2024-09-18 11:45:00","11.0355","3.40875","24.806","0.851","7.41","0.401","2.627","0.08","0.1","30.0594","4.72971","9.35","0","SATNPRO1962","20.412","0.28594","5"],
    [34196,"HCEP03730560","2024-09-18 12:00:00","11.0233","3.40637","24.975","0.6","7.39","0.41","2.717","0.15","0.23","30.046","4.728","6.59","0","SATNPRO1962","20.716","0.29018","5"],
    [34197,"HCEP03730560","2024-09-18 12:15:00","11.09","3.4177","25.166","0.674","7.4","0.641","3.424","0.5","0.33","30.1022","4.73496","7.41","0","SATNPRO1962","22.092","0.30944","5"],
    [34198,"HCEP03730560","2024-09-18 12:30:00","11.0908","3.41822","25.373","0.774","7.4","0.415","3.192","0.06","0.08","30.1065","4.73557","8.51","0","SATNPRO1962","21.93","0.30718","5"],
    [34199,"HCEP03730560","2024-09-18 12:45:00","11.0814","3.41696","25.567","0.766","7.4","0.43","3.293","0.08","0.1","30.1019","4.73508","8.42","0","SATNPRO1962","21.642","0.30312","5"],
    [34200,"HCEP03730560","2024-09-18 13:00:00","11.0902","3.41746","25.749","0.757","7.4","0.422","3.449","0.08","0.28","30.0994","4.7346","8.33","0","SATNPRO1962","21.98","0.30788","5"],
    [34201,"HCEP03730560","2024-09-18 13:15:00","11.0876","3.41759","25.88","0.768","7.4","0.441","3.554","0.07","0.17","30.1029","4.73514","8.44","0","SATNPRO1962","21.986","0.30794","5"],
    [34202,"HCEP03730560","2024-09-18 13:30:00","11.0903","3.41801","26.136","0.788","7.41","0.387","3.53","0.06","0.17","30.1047","4.73536","8.67","0","SATNPRO1962","22.272","0.31192","5"],
    [34203,"HCEP03730560","2024-09-18 13:45:00","11.0933","3.41843","26.255","0.803","7.41","0.432","3.805","0.04","0.23","30.1062","4.73554","8.83","0","SATNPRO1962","22.242","0.3115","5"],
    [34204,"HCEP03730560","2024-09-18 14:00:00","11.1063","3.4204","26.482","0.839","7.41","0.427","3.772","0.04","0.11","30.1147","4.73657","9.23","0","SATNPRO1962","22.468","0.31474","5"],
    [34205,"HCEP03730560","2024-09-18 14:15:00","11.0971","3.41888","26.688","0.86","7.41","0.549","3.739","0.15","0.38","30.1073","4.73567","9.46","0","SATNPRO1962","22.346","0.31302","5"],
    [34206,"HCEP03730560","2024-09-18 14:30:00","11.0955","3.41852","26.94","0.843","7.41","0.41","3.381","0.07","0.1","30.105","4.73538","9.27","0","SATNPRO1962","22.566","0.31608","5"],
    [34207,"HCEP03730560","2024-09-18 14:45:00","11.1125","3.42094","27.195","0.877","7.41","0.508","3.695","0.23","0.22","30.1146","4.7365","9.65","0","SATNPRO1962","22.884","0.32056","5"],
    [34208,"HCEP03730560","2024-09-18 15:00:00","11.109","3.42002","27.301","0.915","7.42","0.495","3.675","0.1","0.4","30.1085","4.73569","10.06","0","SATNPRO1962","22.632","0.31702","5"],
    [34209,"HCEP03730560","2024-09-18 15:15:00","11.106","3.41926","27.531","0.894","7.41","0.631","3.599","0.39","0.14","30.1035","4.73504","9.84","0","SATNPRO1962","22.448","0.31446","5"],
    [34210,"HCEP03730560","2024-09-18 15:30:00","11.0959","3.41755","27.736","0.859","7.41","0.44","3.402","0.07","0.16","30.0949","4.73399","9.44","0","SATNPRO1962","22.63","0.31696","5"],
    [34211,"HCEP03730560","2024-09-18 15:45:00","11.0978","3.41804","27.903","0.853","7.41","0.471","3.256","0.19","0.18","30.098","4.73441","9.38","0","SATNPRO1962","22.914","0.32092","5"],
    [34212,"HCEP03730560","2024-09-18 16:00:00","11.095","3.41742","27.979","0.86","7.41","0.421","3.089","0.14","0.18","30.0943","4.73393","9.46","0","SATNPRO1962","22.838","0.3199","5"],
    [34213,"HCEP03730560","2024-09-18 16:15:00","11.0939","3.41725","28.103","0.854","7.41","0.392","2.997","0.07","0.12","30.0935","4.73383","9.4","0","SATNPRO1962","22.79","0.31922","5"],
    [34214,"HCEP03730560","2024-09-18 16:30:00","11.0931","3.41707","28.103","0.85","7.41","0.36","2.936","0.13","0.11","30.0923","4.73369","9.34","0","SATNPRO1962","22.85","0.32008","5"],
    [34215,"HCEP03730560","2024-09-18 16:45:00","11.0923","3.41687","28.061","0.857","7.41","0.331","2.815","0.04","0.09","30.091","4.73351","9.43","0","SATNPRO1962","22.84","0.31992","5"],
    [34216,"HCEP03730560","2024-09-18 17:00:00","11.0922","3.41683","28.01","0.858","7.41","0.354","2.846","0.1","0.1","30.0909","4.73348","9.44","0","SATNPRO1962","22.922","0.32106","5"],
    [34217,"HCEP03730560","2024-09-18 17:15:00","11.0905","3.41636","27.968","0.858","7.41","0.362","2.699","0.08","0.06","30.0876","4.73305","9.43","0","SATNPRO1962","23.068","0.3231","5"],
    [34218,"HCEP03730560","2024-09-18 17:30:00","11.0945","3.41706","27.895","0.856","7.41","0.34","2.829","0.07","0.16","30.0912","4.73349","9.42","0","SATNPRO1962","22.858","0.32018","5"],
    [34219,"HCEP03730560","2024-09-18 17:45:00","11.0967","3.41747","27.82","0.821","7.41","0.502","3.024","0.18","0.14","30.0934","4.73377","9.03","0","SATNPRO1962","22.09","0.30938","5"],
    [34220,"HCEP03730560","2024-09-18 18:00:00","11.0961","3.41736","27.736","0.772","7.4","0.455","3.076","0.21","0.1","30.0928","4.73369","8.49","0","SATNPRO1962","21.946","0.3074","5"],
    [34221,"HCEP03730560","2024-09-18 18:15:00","11.0958","3.41725","27.624","0.746","7.4","0.337","3.169","0.04","0.19","30.0921","4.73358","8.2","0","SATNPRO1962","21.686","0.30374","5"],
    [34222,"HCEP03730560","2024-09-18 18:30:00","11.0957","3.41714","27.493","0.727","7.4","0.365","2.94","0.11","0.13","30.0912","4.73345","8","0","SATNPRO1962","21.708","0.30406","5"],
    [34223,"HCEP03730560","2024-09-18 18:45:00","11.0953","3.41705","27.353","0.714","7.4","0.354","2.78","0.05","0.27","30.0906","4.73337","7.85","0","SATNPRO1962","21.704","0.30402","5"],
    [34224,"HCEP03730560","2024-09-18 19:00:00","11.0951","3.41689","27.212","0.706","7.4","0.555","2.932","0.19","0.18","30.0894","4.73318","7.77","0","SATNPRO1962","21.704","0.30398","5"],
    [34225,"HCEP03730560","2024-09-18 19:15:00","11.0942","3.41646","27.056","0.701","7.4","0.41","3.092","0.08","0.17","30.0859","4.7327","7.71","0","SATNPRO1962","21.574","0.30212","5"],
    [34226,"HCEP03730560","2024-09-18 19:30:00","11.0942","3.41643","26.899","0.699","7.39","0.308","3.001","0.04","0.1","30.0857","4.73266","7.68","0","SATNPRO1962","21.892","0.30662","5"],
    [34227,"HCEP03730560","2024-09-18 19:45:00","11.0917","3.41604","26.717","0.717","7.4","0.395","3.088","0.08","0.55","30.084","4.73244","7.88","0","SATNPRO1962","22.38","0.3135","5"],
    [34228,"HCEP03730560","2024-09-18 20:00:00","11.0914","3.41607","26.546","0.746","7.4","0.318","2.791","0.06","0.1","30.0846","4.73253","8.21","0","SATNPRO1962","22.426","0.31412","5"],
    [34229,"HCEP03730560","2024-09-18 20:15:00","11.0923","3.41623","26.365","0.755","7.4","0.362","2.877","0.09","0.06","30.0854","4.73262","8.3","0","SATNPRO1962","22.276","0.31206","5"],
    [34230,"HCEP03730560","2024-09-18 20:30:00","11.0942","3.41654","26.173","0.734","7.4","0.348","3.225","0.12","0.07","30.0871","4.73281","8.07","0","SATNPRO1962","21.698","0.3039","5"],
    [34231,"HCEP03730560","2024-09-18 20:45:00","11.0947","3.41687","25.975","0.713","7.4","0.367","3.205","0.09","0.1","30.09","4.73321","7.85","0","SATNPRO1962","21.616","0.30276","5"],
    [34232,"HCEP03730560","2024-09-18 21:00:00","11.0944","3.41677","25.774","0.704","7.4","0.345","3.162","0.08","0.1","30.0892","4.7331","7.74","0","SATNPRO1962","21.692","0.30384","5"],
    [34233,"HCEP03730560","2024-09-18 21:15:00","11.0945","3.4171","25.575","0.703","7.39","0.372","3.29","0.05","0.25","30.0926","4.73355","7.73","0","SATNPRO1962","21.71","0.30408","5"],
    [34234,"HCEP03730560","2024-09-18 21:30:00","11.0951","3.41727","25.374","0.709","7.4","0.491","3.322","0.32","0.1","30.0938","4.73371","7.8","0","SATNPRO1962","21.439999999999998","0.30028","5"],
    [34235,"HCEP03730560","2024-09-18 21:45:00","11.0944","3.41705","25.177","0.724","7.4","0.489","3.38","0.31","0.35","30.0922","4.73348","7.96","0","SATNPRO1962","21.782","0.30512","5"],
    [34236,"HCEP03730560","2024-09-18 22:00:00","11.0929","3.41694","25.072","0.752","7.4","0.4","3.267","0.06","0.24","30.0925","4.73354","8.27","0","SATNPRO1962","21.944","0.30736","5"],
    [34237,"HCEP03730560","2024-09-18 22:15:00","11.0899","3.41626","24.943","0.77","7.4","0.475","3.102","0.09","0.11","30.0883","4.73298","8.47","0","SATNPRO1962","22.228","0.31136","5"],
    [34238,"HCEP03730560","2024-09-18 22:30:00","11.09","3.41634","24.803","0.779","7.4","0.487","3.152","0.12","0.17","30.0891","4.73308","8.57","0","SATNPRO1962","22.104","0.3096","5"],
    [34239,"HCEP03730560","2024-09-18 22:45:00","11.0926","3.41645","24.77","0.788","7.4","0.463","3.022","0.11","0.23","30.0881","4.7329","8.67","0","SATNPRO1962","22.366","0.31326","5"],
    [34240,"HCEP03730560","2024-09-18 23:00:00","11.0908","3.41643","24.766","0.818","7.4","0.423","2.959","0.13","0.06","30.0894","4.73311","9","0","SATNPRO1962","22.314","0.31254","5"],
    [34241,"HCEP03730560","2024-09-18 23:15:00","11.0902","3.41629","24.773","0.808","7.4","0.443","2.931","0.09","0.15","30.0884","4.73298","8.88","0","SATNPRO1962","22.134","0.31004","5"],
    [34242,"HCEP03730560","2024-09-18 23:30:00","11.0901","3.41637","24.807","0.788","7.4","0.401","3.092","0.16","0.11","30.0893","4.73311","8.67","0","SATNPRO1962","21.996","0.30812","5"],
    [34243,"HCEP03730560","2024-09-18 23:45:00","11.0889","3.41624","24.798","0.773","7.4","0.533","2.973","0.25","0.25","30.089","4.73309","8.5","0","SATNPRO1962","22.114","0.30976","5"],
    [34244,"HCEP03730560","2024-09-19 00:00:00","11.0905","3.41659","24.842","0.767","7.4","0.395","2.987","0.13","0.13","30.0911","4.73336","8.43","0","SATNPRO1962","22.06","0.309","5"],
    [34245,"HCEP03730560","2024-09-19 00:15:00","11.089","3.41666","24.967","0.765","7.4","0.418","2.918","0.12","0.06","30.093","4.73367","8.42","0","SATNPRO1962","22.078","0.3092","5"],
    [34246,"HCEP03730560","2024-09-19 00:30:00","11.0873","3.4166","25.16","0.772","7.4","0.421","2.999","0.17","0.12","30.0937","4.7338","8.48","0","SATNPRO1962","22.16","0.31038","5"],
    [34247,"HCEP03730560","2024-09-19 00:45:00","11.086","3.41651","25.337","0.776","7.4","0.401","2.893","0.08","0.09","30.0938","4.73384","8.53","0","SATNPRO1962","22.112","0.3097","5"],
    [34248,"HCEP03730560","2024-09-19 01:00:00","11.0945","3.41775","25.517","0.793","7.4","0.459","3.002","0.19","0.07","30.0988","4.73444","8.73","0","SATNPRO1962","22.354","0.31308","5"],
    [34249,"HCEP03730560","2024-09-19 01:15:00","11.0974","3.4182","25.708","0.833","7.41","0.489","3.099","0.2","0.11","30.1009","4.7347","9.16","0","SATNPRO1962","22.46","0.3146","5"],
    [34250,"HCEP03730560","2024-09-19 01:30:00","11.1004","3.41855","25.876","0.851","7.41","0.382","3.105","0.09","0.13","30.1017","4.73478","9.36","0","SATNPRO1962","22.63","0.31698","5"],
    [34251,"HCEP03730560","2024-09-19 01:45:00","11.1064","3.41933","26.055","0.888","7.41","0.421","3.089","0.08","0.12","30.1043","4.73507","9.77","0","SATNPRO1962","22.956","0.32152","5"],
    [34252,"HCEP03730560","2024-09-19 02:00:00","11.111","3.41998","26.224","0.943","7.42","0.442","3.271","0.15","0.1","30.1069","4.73537","10.37","0","SATNPRO1962","23.044","0.32276","5"],
    [34253,"HCEP03730560","2024-09-19 02:15:00","11.1139","3.42045","26.396","0.974","7.42","0.444","3.383","0.17","0.12","30.1091","4.73565","10.71","0","SATNPRO1962","23.112000000000002","0.32374","5"],
    [34254,"HCEP03730560","2024-09-19 02:30:00","11.1186","3.42134","26.56","1.002","7.42","0.375","3.446","0.06","0.21","30.1138","4.73626","11.03","0","SATNPRO1962","23.272","0.32596","5"],
    [34255,"HCEP03730560","2024-09-19 02:45:00","11.1208","3.42154","26.738","1.048","7.43","0.407","3.529","0.06","0.15","30.1139","4.73625","11.54","0","SATNPRO1962","23.240000000000002","0.32548","5"],
    [34256,"HCEP03730560","2024-09-19 03:00:00","11.1203","3.42169","26.909","1.047","7.43","0.394","3.723","0.08","0.12","30.1157","4.73652","11.52","0","SATNPRO1962","23.198","0.32492","5"],
    [34257,"HCEP03730560","2024-09-19 03:15:00","11.118","3.42153","27.003","1.023","7.43","0.431","3.605","0.09","0.17","30.116","4.73661","11.26","0","SATNPRO1962","23.248","0.3256","5"],
    [34258,"HCEP03730560","2024-09-19 03:30:00","11.1151","3.42126","27.161","0.992","7.42","0.427","3.696","0.1","0.23","30.1156","4.7366","10.92","0","SATNPRO1962","22.826","0.31966","5"],
    [34259,"HCEP03730560","2024-09-19 03:45:00","11.1125","3.42106","27.253","0.945","7.42","0.474","3.885","0.17","0.64","30.1158","4.73667","10.4","0","SATNPRO1962","22.694","0.3179","5"],
    [34260,"HCEP03730560","2024-09-19 04:00:00","11.1118","3.42102","27.398","0.907","7.42","0.43","3.744","0.17","0.2","30.1159","4.73671","9.98","0","SATNPRO1962","22.554","0.3159","5"],
    [34261,"HCEP03730560","2024-09-19 04:15:00","11.1101","3.42076","27.557","0.887","7.42","0.467","3.826","0.14","0.39","30.1147","4.73657","9.76","0","SATNPRO1962","22.554","0.31592","5"],
    [34262,"HCEP03730560","2024-09-19 04:30:00","11.1092","3.42066","27.669","0.873","7.41","0.489","3.698","0.31","0.19","30.1144","4.73655","9.6","0","SATNPRO1962","22.544","0.31578","5"],
    [34263,"HCEP03730560","2024-09-19 04:45:00","11.1091","3.42074","27.764","0.859","7.41","0.438","3.671","0.08","0.17","30.1153","4.73667","9.45","0","SATNPRO1962","22.366","0.31324","5"],
    [34264,"HCEP03730560","2024-09-19 05:00:00","11.1083","3.42067","27.806","0.844","7.41","0.554","3.738","0.62","0.2","30.1152","4.73668","9.28","0","SATNPRO1962","22.3","0.31232","5"],
    [34265,"HCEP03730560","2024-09-19 05:15:00","11.1074","3.42051","27.741","0.829","7.41","0.465","3.723","0.05","0.31","30.1144","4.73658","9.13","0","SATNPRO1962","22.342000000000002","0.31296","5"],
    [34266,"HCEP03730560","2024-09-19 05:30:00","11.1061","3.42024","27.66","0.814","7.41","0.396","3.591","0.06","0.21","30.1129","4.73637","8.95","0","SATNPRO1962","22.274","0.31196","5"],
    [34267,"HCEP03730560","2024-09-19 05:45:00","11.0988","3.41858","27.613","0.812","7.41","0.393","3.032","0.08","0.2","30.1027","4.73504","8.93","0","SATNPRO1962","22.53","0.31558","5"],
    [34268,"HCEP03730560","2024-09-19 06:00:00","11.0918","3.41718","27.522","0.799","7.41","0.32","2.843","0.05","0.23","30.0947","4.73401","8.79","0","SATNPRO1962","22.426","0.3141","5"],
    [34269,"HCEP03730560","2024-09-19 06:15:00","11.097","3.41825","27.437","0.799","7.41","0.357","2.871","0.06","0.14","30.101","4.73481","8.78","0","SATNPRO1962","22.642","0.31712","5"],
    [34270,"HCEP03730560","2024-09-19 06:30:00","11.0999","3.41857","27.318","0.795","7.41","0.316","2.832","0.05","0.08","30.1017","4.73487","8.74","0","SATNPRO1962","22.31","0.31248","5"],
    [34271,"HCEP03730560","2024-09-19 06:45:00","11.0972","3.41795","27.194","0.752","7.4","0.324","2.948","0.02","0.06","30.098","4.73437","8.27","0","SATNPRO1962","21.902","0.30678","5"],
    [34272,"HCEP03730560","2024-09-19 07:00:00","11.0972","3.41786","27.054","0.716","7.4","0.385","3.097","0.19","0.12","30.0972","4.73425","7.87","0","SATNPRO1962","21.752","0.30468","5"],
    [34273,"HCEP03730560","2024-09-19 07:15:00","11.0963","3.41753","26.928","0.706","7.4","0.348","3.047","0.05","0.12","30.0947","4.73391","7.76","0","SATNPRO1962","21.744","0.30454","5"],
    [34274,"HCEP03730560","2024-09-19 07:30:00","11.0969","3.41724","26.803","0.697","7.4","0.773","3.371","1.3","1.34","30.0915","4.73343","7.67","0","SATNPRO1962","21.858","0.30616","5"],
    [34275,"HCEP03730560","2024-09-19 07:45:00","11.0972","3.41741","26.663","0.697","7.4","0.361","2.907","0.16","0.08","30.0929","4.73363","7.67","0","SATNPRO1962","21.88","0.30644","5"],
    [34276,"HCEP03730560","2024-09-19 08:00:00","11.0978","3.41762","26.508","0.706","7.4","0.405","2.913","0.58","0.07","30.0945","4.73384","7.76","0","SATNPRO1962","22.12","0.30984","5"],
    [34277,"HCEP03730560","2024-09-19 08:15:00","11.0972","3.41769","26.349","0.723","7.4","0.346","2.875","0.1","0.07","30.0958","4.73402","7.95","0","SATNPRO1962","22.25","0.31164","5"],
    [34278,"NA","2024-09-19 08:30:00",null,null,null,null,null,null,null,null,null,null,null,null,null,"SATNPRO1962","21.8","0.30534","5"],
    [34279,"HCEP03730560","2024-09-19 08:30:01","11.0981","3.41793","26.161","0.726","7.4","0.285","3.022","0.05","0.14","30.0974","4.73423","7.99","0","NA",null,null,null],
    [34280,"HCEP03730560","2024-09-19 08:45:00","11.1024","3.41952","25.973","0.729","7.4","0.336","3.351","0.06","0.1","30.1095","4.73586","8.02","0","SATNPRO1962","21.78","0.30504","5"],
    [34281,"HCEP03730560","2024-09-19 09:00:00","11.1037","3.41987","25.802","0.741","7.4","0.385","3.549","0.14","0.17","30.1119","4.73617","8.15","0","SATNPRO1962","21.608","0.30266","5"],
    [34282,"HCEP03730560","2024-09-19 09:15:00","11.1042","3.41987","25.618","0.731","7.4","0.415","3.551","0.06","0.14","30.1117","4.73612","8.05","0","SATNPRO1962","21.574","0.30218","5"],
    [34283,"HCEP03730560","2024-09-19 09:30:00","11.1036","3.41981","25.435","0.73","7.4","0.416","3.569","0.15","0.24","30.1116","4.73611","8.03","0","SATNPRO1962","21.518","0.3014","5"],
    [34284,"HCEP03730560","2024-09-19 09:45:00","11.1022","3.4196","25.261","0.742","7.4","0.421","3.412","0.15","0.12","30.1107","4.73599","8.16","0","SATNPRO1962","21.582","0.30228","5"],
    [34285,"HCEP03730560","2024-09-19 10:00:00","11.1013","3.41942","25.097","0.717","7.4","0.374","3.597","0.07","0.23","30.1098","4.73587","7.89","0","SATNPRO1962","21.716","0.30416","5"],
    [34286,"HCEP03730560","2024-09-19 10:15:00","11.1013","3.41939","24.945","0.721","7.4","0.41","3.481","0.14","0.13","30.1096","4.73583","7.93","0","SATNPRO1962","21.476","0.30082","5"],
    [34287,"HCEP03730560","2024-09-19 10:30:00","11.102","3.41946","24.846","0.718","7.4","0.444","3.436","0.27","0.1","30.1097","4.73583","7.9","0","SATNPRO1962","21.462","0.30062","5"],
    [34288,"HCEP03730560","2024-09-19 10:45:00","11.103","3.41959","24.839","0.731","7.4","0.383","3.552","0.05","0.11","30.1101","4.73588","8.04","0","SATNPRO1962","21.742","0.30454","5"],
    [34289,"HCEP03730560","2024-09-19 11:00:00","11.1053","3.41976","24.798","0.763","7.4","0.372","3.441","0.07","0.08","30.1099","4.7358","8.4","0","SATNPRO1962","22.018","0.3084","5"],
    [34290,"HCEP03730560","2024-09-19 11:15:00","11.1074","3.42002","24.805","0.779","7.4","0.939","3.596","2.02","0.23","30.1108","4.7359","8.57","0","SATNPRO1962","22.066","0.30906","5"],
    [34291,"HCEP03730560","2024-09-19 11:30:00","11.1075","3.42011","24.832","0.799","7.4","0.344","3.407","0.04","0.16","30.1115","4.736","8.79","0","SATNPRO1962","21.926","0.3071","5"],
    [34292,"HCEP03730560","2024-09-19 11:45:00","11.108","3.42023","24.901","0.792","7.4","0.398","3.761","0.08","0.24","30.1122","4.7361","8.72","0","SATNPRO1962","21.964","0.30764","5"],
    [34293,"HCEP03730560","2024-09-19 12:00:00","11.1083","3.42032","24.994","0.784","7.4","0.445","3.688","0.13","0.12","30.1128","4.73619","8.63","0","SATNPRO1962","21.836","0.30584","5"],
    [34294,"HCEP03730560","2024-09-19 12:15:00","11.1099","3.42054","25.109","0.786","7.4","0.462","3.528","0.1","0.1","30.1137","4.7363","8.64","0","SATNPRO1962","22.14","0.31006","5"],
    [34295,"HCEP03730560","2024-09-19 12:30:00","11.1119","3.42083","25.246","0.809","7.41","0.417","3.818","0.08","0.23","30.1148","4.73643","8.9","0","SATNPRO1962","22.104","0.30958","5"],
    [34296,"HCEP03730560","2024-09-19 12:45:00","11.118","3.42171","25.397","0.839","7.41","0.472","3.744","0.12","0.12","30.1184","4.73685","9.23","0","SATNPRO1962","22.27","0.3119","5"],
    [34297,"HCEP03730560","2024-09-19 13:00:00","11.1284","3.42305","25.547","0.917","7.42","0.438","3.744","0.11","0.23","30.1229","4.73734","10.09","0","SATNPRO1962","22.91","0.3209","5"],
    [34298,"HCEP03730560","2024-09-19 13:15:00","11.1433","3.42495","25.739","1.022","7.42","0.493","4.072","0.09","0.29","30.1292","4.73802","11.25","0","SATNPRO1962","23.56","0.33","5"],
    [34299,"HCEP03730560","2024-09-19 13:30:00","11.1485","3.42558","25.902","1.156","7.43","0.475","3.774","0.16","0.31","30.131","4.73821","12.73","0","SATNPRO1962","23.886","0.33458","5"],
    [34300,"HCEP03730560","2024-09-19 13:45:00","11.1512","3.42593","26.14","1.211","7.44","0.478","3.72","0.08","0.17","30.1321","4.73834","13.34","0","SATNPRO1962","24.112","0.33772","5"],
    [34301,"HCEP03730560","2024-09-19 14:00:00","11.1509","3.42604","26.307","1.204","7.44","0.511","3.933","0.11","0.15","30.1333","4.73853","13.26","0","SATNPRO1962","24.128","0.33792","5"],
    [34302,"HCEP03730560","2024-09-19 14:15:00","11.1604","3.42693","26.496","1.225","7.45","0.543","3.853","0.17","0.13","30.1342","4.73851","13.49","0","SATNPRO1962","24.302","0.3404","5"],
    [34303,"HCEP03730560","2024-09-19 14:30:00","11.1602","3.42711","26.716","1.294","7.45","0.522","3.794","0.11","0.11","30.1361","4.73879","14.26","0","SATNPRO1962","24.534","0.34364","5"],
    [34304,"HCEP03730560","2024-09-19 14:45:00","11.1591","3.42729","26.909","1.301","7.45","0.597","4.3","0.28","0.23","30.1385","4.73917","14.33","0","SATNPRO1962","24.376","0.34144","5"],
    [34305,"HCEP03730560","2024-09-19 15:00:00","11.1747","3.42933","27.124","1.348","7.46","0.529","4.034","0.09","0.17","30.1457","4.73996","14.85","0","SATNPRO1962","25.142","0.35214","5"],
    [34306,"HCEP03730560","2024-09-19 15:15:00","11.1818","3.4292","27.321","1.574","7.47","0.524","3.846","0.1","0.2","30.1385","4.73885","17.35","0","SATNPRO1962","26","0.36414","5"],
    [34307,"HCEP03730560","2024-09-19 15:30:00","11.1818","3.42943","27.415","1.549","7.47","0.559","4.138","0.17","0.33","30.1407","4.73916","17.08","0","SATNPRO1962","25.636","0.35906","5"],
    [34308,"HCEP03730560","2024-09-19 15:45:00","11.1729","3.42874","27.488","1.572","7.47","0.587","4.477","0.07","0.25","30.1412","4.73937","17.33","0","SATNPRO1962","25.422","0.3561","5"],
    [34309,"HCEP03730560","2024-09-19 16:00:00","11.172","3.42862","27.648","1.516","7.47","0.575","4.223","0.11","0.1","30.1407","4.73932","16.7","0","SATNPRO1962","25.208","0.35306","5"],
    [34310,"HCEP03730560","2024-09-19 16:15:00","11.17","3.42842","27.768","1.489","7.47","0.593","4.157","0.11","0.09","30.1403","4.73931","16.41","0","SATNPRO1962","25.282","0.3541","5"],
    [34311,"HCEP03730560","2024-09-19 16:30:00","11.1725","3.42867","27.901","1.487","7.47","0.549","3.875","0.08","0.06","30.1406","4.73932","16.38","0","SATNPRO1962","25.57","0.35818","5"],
    [34312,"HCEP03730560","2024-09-19 16:45:00","11.1693","3.42834","28.005","1.494","7.47","0.549","4.056","0.08","0.17","30.14","4.73929","16.46","0","SATNPRO1962","25.28","0.35406","5"],
    [34313,"HCEP03730560","2024-09-19 17:00:00","11.1703","3.42844","28.023","1.48","7.47","0.518","3.957","0.05","0.12","30.1402","4.7393","16.3","0","SATNPRO1962","25.306","0.3545","5"],
    [34314,"HCEP03730560","2024-09-19 17:15:00","11.1676","3.42808","28.047","1.475","7.47","0.54","3.996","0.07","0.11","30.1389","4.73916","16.25","0","SATNPRO1962","25.252","0.35368","5"],
    [34315,"HCEP03730560","2024-09-19 17:30:00","11.1691","3.42825","28.043","1.451","7.47","0.492","3.868","0.07","0.12","30.1394","4.7392","15.99","0","SATNPRO1962","25.31","0.3545","5"],
    [34316,"HCEP03730560","2024-09-19 17:45:00","11.1723","3.4286","27.99","1.478","7.47","0.527","3.659","0.13","0.08","30.1401","4.73926","16.28","0","SATNPRO1962","25.522","0.35742","5"],
    [34317,"HCEP03730560","2024-09-19 18:00:00","11.1733","3.42873","27.953","1.514","7.47","0.525","3.534","0.09","0.09","30.1406","4.73931","16.68","0","SATNPRO1962","25.578","0.35826","5"],
    [34318,"HCEP03730560","2024-09-19 18:15:00","11.1763","3.42892","27.884","1.539","7.47","0.496","3.449","0.05","0.12","30.14","4.73917","16.96","0","SATNPRO1962","25.656000000000002","0.35936","5"],
    [34319,"HCEP03730560","2024-09-19 18:30:00","11.1688","3.42817","27.784","1.523","7.47","0.46","3.446","0.07","0.06","30.1389","4.73913","16.78","0","SATNPRO1962","25.278","0.35408","5"],
    [34320,"HCEP03730560","2024-09-19 18:45:00","11.1708","3.42828","27.668","1.467","7.47","0.481","3.303","0.1","0.08","30.1383","4.73901","16.16","0","SATNPRO1962","25.426","0.35616","5"],
    [34321,"HCEP03730560","2024-09-19 19:00:00","11.1824","3.42951","27.522","1.565","7.48","0.486","3.156","0.08","0.11","30.141","4.7392","17.25","0","SATNPRO1962","26.276","0.36806","5"],
    [34322,"HCEP03730560","2024-09-19 19:15:00","11.2135","3.4324","27.387","1.75","7.49","0.473","2.887","0.08","0.07","30.1437","4.73912","19.3","0","SATNPRO1962","26.852","0.3761","5"],
    [34323,"HCEP03730560","2024-09-19 19:30:00","11.2047","3.4315","27.241","1.923","7.5","0.444","3.053","0.07","0.07","30.1422","4.73902","21.21","0","SATNPRO1962","26.764","0.3749","5"],
    [34324,"HCEP03730560","2024-09-19 19:45:00","11.1933","3.43022","27.078","1.848","7.5","0.508","2.929","0.11","0.12","30.1391","4.73875","20.37","0","SATNPRO1962","26.342","0.36896","5"],
    [34325,"HCEP03730560","2024-09-19 20:00:00","11.1637","3.42707","26.921","1.696","7.49","0.447","3.323","0.04","0.1","30.1327","4.73828","18.69","0","SATNPRO1962","25.058","0.35094","5"],
    [34326,"HCEP03730560","2024-09-19 20:15:00","11.1432","3.42477","26.746","1.373","7.47","0.534","3.715","0.16","0.21","30.1271","4.73778","15.12","0","SATNPRO1962","23.996","0.3361","5"],
    [34327,"HCEP03730560","2024-09-19 20:30:00","11.1376","3.42412","26.548","1.169","7.45","0.46","3.65","0.12","0.1","30.1255","4.73762","12.87","0","SATNPRO1962","23.504","0.3292","5"],
    [34328,"HCEP03730560","2024-09-19 20:45:00","11.1272","3.42302","26.342","1.078","7.44","0.448","3.426","0.07","0.1","30.1232","4.73745","11.86","0","SATNPRO1962","22.97","0.32174","5"],
    [34329,"HCEP03730560","2024-09-19 21:00:00","11.1323","3.4234","26.116","1.013","7.44","0.439","3.455","0.1","0.06","30.1229","4.73731","11.15","0","SATNPRO1962","23.11","0.32372","5"],
    [34330,"HCEP03730560","2024-09-19 21:15:00","11.1385","3.42419","25.921","1.038","7.44","0.458","3.429","0.05","0.09","30.1255","4.73758","11.43","0","SATNPRO1962","23.554","0.3299","5"],
    [34331,"HCEP03730560","2024-09-19 21:30:00","11.1167","3.42134","25.696","0.989","7.43","0.454","3.407","0.21","0.12","30.1157","4.7365","10.88","0","SATNPRO1962","22.352","0.31308","5"],
    [34332,"HCEP03730560","2024-09-19 21:45:00","11.1283","3.4225","25.451","0.943","7.43","0.46","3.336","0.13","0.11","30.1176","4.73659","10.38","0","SATNPRO1962","22.578","0.31624","5"],
    [34333,"HCEP03730560","2024-09-19 22:00:00","11.1231","3.42225","25.239","1.022","7.43","0.399","3.23","0.09","0.06","30.1195","4.73692","11.25","0","SATNPRO1962","22.836","0.31984","5"],
    [34334,"HCEP03730560","2024-09-19 22:15:00","11.1281","3.42276","24.989","0.973","7.43","0.382","3.052","0.04","0.05","30.1205","4.73698","10.71","0","SATNPRO1962","23.218","0.3252","5"],
    [34335,"HCEP03730560","2024-09-19 22:30:00","11.1584","3.42634","24.782","1.185","7.44","0.392","2.829","0.04","0.05","30.1308","4.73796","13.05","0","SATNPRO1962","24.928","0.34918","5"],
    [34336,"HCEP03730560","2024-09-19 22:45:00","11.1926","3.43004","24.601","1.529","7.47","0.457","2.703","0.08","0.05","30.1389","4.7386","16.85","0","SATNPRO1962","26.418","0.37","5"],
    [34337,"HCEP03730560","2024-09-19 23:00:00","11.1837","3.4294","24.499","1.707","7.48","0.451","3.3","0.05","0.08","30.14","4.73888","18.82","0","SATNPRO1962","25.688","0.35984","5"],
    [34338,"HCEP03730560","2024-09-19 23:15:00","11.1793","3.42912","24.403","1.543","7.47","0.523","3.741","0.07","0.06","30.1409","4.73906","17","0","SATNPRO1962","24.898","0.34874","5"],
    [34339,"HCEP03730560","2024-09-19 23:30:00","11.1863","3.42966","24.383","1.541","7.48","0.49","3.52","0.06","0.08","30.1405","4.73889","16.99","0","SATNPRO1962","25.746","0.36062","5"],
    [34340,"HCEP03730560","2024-09-19 23:45:00","11.1847","3.42968","24.429","1.56","7.48","0.502","3.608","0.05","0.09","30.1419","4.73913","17.19","0","SATNPRO1962","25.476","0.35682","5"],
    [34341,"HCEP03730560","2024-09-20 00:00:00","11.1942","3.43066","24.408","1.606","7.48","0.517","3.257","0.12","0.09","30.1437","4.73924","17.7","0","SATNPRO1962","26.032","0.3646","5"],
    [34342,"HCEP03730560","2024-09-20 00:15:00","11.1909","3.43044","24.459","1.693","7.49","0.506","3.266","0.07","0.09","30.1442","4.73936","18.66","0","SATNPRO1962","26.052","0.36488","5"],
    [34343,"HCEP03730560","2024-09-20 00:30:00","11.1874","3.43008","24.53","1.65","7.48","0.543","3.482","0.12","0.09","30.1436","4.73933","18.18","0","SATNPRO1962","25.752","0.36068","5"],
    [34344,"HCEP03730560","2024-09-20 00:45:00","11.1817","3.4295","24.594","1.584","7.48","0.516","3.729","0.05","0.07","30.1426","4.73928","17.46","0","SATNPRO1962","25.086","0.35138","5"],
    [34345,"HCEP03730560","2024-09-20 01:00:00","11.1876","3.43016","24.724","1.564","7.48","0.55","3.874","0.08","0.21","30.1441","4.73941","17.24","0","SATNPRO1962","25.464","0.35664","5"],
    [34346,"HCEP03730560","2024-09-20 01:15:00","11.1905","3.43045","24.807","1.631","7.48","0.547","3.552","0.06","0.19","30.1445","4.73943","17.98","0","SATNPRO1962","26.11","0.36572","5"],
    [34347,"HCEP03730560","2024-09-20 01:30:00","11.1947","3.43063","24.878","1.701","7.49","0.547","3.685","0.07","0.37","30.1428","4.73913","18.76","0","SATNPRO1962","26.042","0.3648","5"],
    [34348,"HCEP03730560","2024-09-20 01:45:00","11.2079","3.43199","25.094","1.765","7.5","0.545","3.371","0.08","0.19","30.1452","4.73929","19.46","0","SATNPRO1962","26.990000000000002","0.37804","5"],
    [34349,"HCEP03730560","2024-09-20 02:00:00","11.2087","3.43182","25.266","1.891","7.51","0.622","3.41","0.39","0.39","30.1428","4.73894","20.86","0","SATNPRO1962","27.476","0.38486","5"],
    [34350,"HCEP03730560","2024-09-20 02:15:00","11.195","3.43057","25.516","1.899","7.5","0.584","3.593","0.11","0.35","30.1417","4.73901","20.93","0","SATNPRO1962","26.44","0.37038","5"],
    [34351,"HCEP03730560","2024-09-20 02:30:00","11.1938","3.43059","25.672","1.751","7.5","0.677","3.944","0.15","0.27","30.1429","4.73919","19.3","0","SATNPRO1962","25.844","0.362","5"],
    [34352,"HCEP03730560","2024-09-20 02:45:00","11.1891","3.43003","25.861","1.686","7.49","0.764","4.163","0.14","0.33","30.1411","4.73903","18.58","0","SATNPRO1962","25.971999999999998","0.3638","5"],
    [34353,"HCEP03730560","2024-09-20 03:00:00","11.1845","3.42949","26.043","1.649","7.49","0.503","4.05","0.09","0.37","30.1396","4.73889","18.17","0","SATNPRO1962","25.66","0.35942","5"],
    [34354,"HCEP03730560","2024-09-20 03:15:00","11.1742","3.42803","26.223","1.565","7.48","0.505","3.738","0.09","0.19","30.1337","4.73822","17.24","0","SATNPRO1962","24.966","0.34968","5"],
    [34355,"HCEP03730560","2024-09-20 03:30:00","11.1824","3.42848","26.4","1.501","7.48","0.565","3.507","0.17","0.29","30.1313","4.73777","16.54","0","SATNPRO1962","25.814","0.36158","5"],
    [34356,"HCEP03730560","2024-09-20 03:45:00","11.1738","3.42741","26.602","1.496","7.47","0.54","3.59","0.07","0.16","30.1279","4.73742","16.48","0","SATNPRO1962","24.858","0.34818","5"],
    [34357,"HCEP03730560","2024-09-20 04:00:00","11.1513","3.42503","26.793","1.36","7.46","0.514","3.572","0.09","0.12","30.1229","4.73707","14.97","0","SATNPRO1962","23.502","0.32922","5"],
    [34358,"HCEP03730560","2024-09-20 04:15:00","11.123","3.42199","26.991","1.08","7.44","0.534","3.742","0.28","0.13","30.1164","4.73658","11.88","0","SATNPRO1962","22.104","0.30956","5"],
    [34359,"HCEP03730560","2024-09-20 04:30:00","11.1181","3.42121","27.121","0.839","7.42","0.418","3.542","0.11","0.13","30.1128","4.73615","9.24","0","SATNPRO1962","21.576","0.3022","5"],
    [34360,"HCEP03730560","2024-09-20 04:45:00","11.1159","3.42069","27.321","0.756","7.41","0.426","3.572","0.06","0.1","30.1094","4.73571","8.31","0","SATNPRO1962","21.458000000000002","0.30056","5"],
    [34361,"HCEP03730560","2024-09-20 05:00:00","11.1082","3.4199","27.304","0.685","7.4","0.353","3.6","0.06","0.34","30.108","4.73563","7.54","0","SATNPRO1962","20.53","0.28758","5"],
    [34362,"HCEP03730560","2024-09-20 05:15:00","11.1043","3.41898","27.388","0.605","7.4","0.355","3.187","0.06","0.08","30.1022","4.73487","6.65","0","SATNPRO1962","20.534","0.28762","5"],
    [34363,"HCEP03730560","2024-09-20 05:30:00","11.1026","3.41866","27.495","0.571","7.39","0.399","3.235","0.09","0.08","30.1004","4.73465","6.28","0","SATNPRO1962","20.45","0.28642","5"],
    [34364,"HCEP03730560","2024-09-20 05:45:00","11.1021","3.41857","27.625","0.538","7.39","0.369","3.396","0.09","0.21","30.0999","4.73459","5.91","0","SATNPRO1962","20.39","0.2856","5"],
    [34365,"HCEP03730560","2024-09-20 06:00:00","11.1013","3.41843","27.641","0.555","7.39","0.48","3.516","0.29","0.21","30.0991","4.7345","6.11","0","SATNPRO1962","20.666","0.28946","5"],
    [34366,"HCEP03730560","2024-09-20 06:15:00","11.1047","3.41913","27.688","0.597","7.39","0.433","3.444","0.09","0.28","30.1032","4.73502","6.56","0","SATNPRO1962","20.294","0.28424","5"],
    [34367,"HCEP03730560","2024-09-20 06:30:00","11.1271","3.42176","27.678","0.72","7.4","0.579","3.434","0.65","0.17","30.1105","4.73573","7.92","0","SATNPRO1962","21.544","0.30178","5"],
    [34368,"HCEP03730560","2024-09-20 06:45:00","11.1379","3.42311","27.647","0.88","7.41","0.539","3.579","0.12","0.2","30.1149","4.73619","9.69","0","SATNPRO1962","22.808","0.31946","5"],
    [34369,"HCEP03730560","2024-09-20 07:00:00","11.1638","3.42612","27.561","1.071","7.42","0.626","3.373","0.23","0.15","30.1231","4.73695","11.79","0","SATNPRO1962","23.14","0.32416","5"],
    [34370,"HCEP03730560","2024-09-20 07:15:00","11.1962","3.4296","27.486","1.43","7.45","0.71","3.523","0.2","0.41","30.1306","4.73752","15.76","0","SATNPRO1962","25.212","0.35316","5"],
    [34371,"HCEP03730560","2024-09-20 07:30:00","11.2053","3.43072","27.397","1.718","7.47","0.678","3.19","0.2","0.28","30.1341","4.73787","18.94","0","SATNPRO1962","26.9","0.3768","5"],
    [34372,"HCEP03730560","2024-09-20 07:45:00","11.2006","3.43012","27.295","1.859","7.49","0.633","2.918","0.11","0.27","30.1321","4.73765","20.49","0","SATNPRO1962","27.232","0.38146","5"],
    [34373,"HCEP03730560","2024-09-20 08:00:00","11.195","3.42948","27.171","1.887","7.49","0.6","2.946","0.11","0.21","30.1305","4.73751","20.8","0","SATNPRO1962","27.902","0.3908","5"],
    [34374,"HCEP03730560","2024-09-20 08:15:00","11.1903","3.42895","27.034","1.88","7.5","0.656","2.902","0.24","0.18","30.1292","4.73739","20.73","0","SATNPRO1962","27.192","0.38088","5"],
    [34375,"HCEP03730560","2024-09-20 08:30:00","11.1889","3.42873","26.894","1.855","7.5","0.644","2.894","0.29","0.21","30.1282","4.73726","20.45","0","SATNPRO1962","27.314","0.38254","5"],
    [34376,"HCEP03730560","2024-09-20 08:45:00","11.1908","3.42828","26.851","1.861","7.5","0.683","2.818","0.2","0.15","30.1223","4.7364","20.51","0","SATNPRO1962","27.28","0.38214","5"],
    [34377,"HCEP03730560","2024-09-20 09:00:00","11.1958","3.42845","26.724","1.9","7.5","0.623","2.75","0.11","0.17","30.1199","4.73598","20.94","0","SATNPRO1962","27.71","0.38808","5"],
    [34378,"HCEP03730560","2024-09-20 09:15:00","11.1938","3.42849","26.581","1.921","7.51","0.712","2.949","0.2","0.11","30.1221","4.73631","21.18","0","SATNPRO1962","27.422","0.3841","5"],
    [34379,"HCEP03730560","2024-09-20 09:30:00","11.194","3.42872","26.427","1.902","7.51","0.686","2.938","0.17","0.15","30.1242","4.73659","20.96","0","SATNPRO1962","27.343999999999998","0.383","5"],
    [34380,"HCEP03730560","2024-09-20 09:45:00","11.194","3.42899","26.285","1.881","7.5","0.712","3.097","0.12","0.15","30.1269","4.73697","20.73","0","SATNPRO1962","27.304","0.38242","5"],
    [34381,"HCEP03730560","2024-09-20 10:00:00","11.1974","3.4296","26.101","1.851","7.5","0.69","3.103","0.2","0.27","30.13","4.73735","20.4","0","SATNPRO1962","27.204","0.38104","5"],
    [34382,"HCEP03730560","2024-09-20 10:15:00","11.1973","3.42962","25.972","1.845","7.5","0.704","3.043","0.11","0.14","30.1304","4.73739","20.34","0","SATNPRO1962","26.844","0.376","5"],
    [34383,"HCEP03730560","2024-09-20 10:30:00","11.2017","3.43027","25.824","1.826","7.5","0.692","3.268","0.15","0.2","30.1333","4.73773","20.13","0","SATNPRO1962","26.798","0.37534","5"],
    [34384,"HCEP03730560","2024-09-20 10:45:00","11.2088","3.43132","25.698","1.86","7.5","0.696","3.195","0.16","0.19","30.1377","4.73824","20.52","0","SATNPRO1962","27","0.37822","5"],
    [34385,"HCEP03730560","2024-09-20 11:00:00","11.2112","3.43185","25.521","1.89","7.51","0.692","3.375","0.15","0.25","30.141","4.73867","20.84","0","SATNPRO1962","27.044","0.37878","5"],
    [34386,"HCEP03730560","2024-09-20 11:15:00","11.2129","3.43226","25.402","1.902","7.51","0.768","3.476","0.36","0.34","30.1436","4.739","20.98","0","SATNPRO1962","27.084","0.37938","5"],
    [34387,"HCEP03730560","2024-09-20 11:30:00","11.2137","3.43247","25.295","1.902","7.51","0.685","3.276","0.4","0.13","30.1452","4.7392","20.98","0","SATNPRO1962","27.122","0.37988","5"],
    [34388,"HCEP03730560","2024-09-20 11:45:00","11.2088","3.43185","25.218","1.888","7.51","0.629","3.369","0.25","0.17","30.143","4.73896","20.82","0","SATNPRO1962","26.824","0.37574","5"],
    [34389,"HCEP03730560","2024-09-20 12:00:00","11.2059","3.43149","25.173","1.852","7.51","0.575","3.536","0.11","0.19","30.1419","4.73885","20.42","0","SATNPRO1962","26.584","0.37232","5"],
    [34390,"HCEP03730560","2024-09-20 12:15:00","11.1978","3.43049","25.225","1.782","7.5","0.631","3.393","0.19","0.11","30.1388","4.73853","19.64","0","SATNPRO1962","26.036","0.36468","5"],
    [34391,"HCEP03730560","2024-09-20 12:30:00","11.1895","3.42939","25.273","1.681","7.49","0.536","3.519","0.12","0.13","30.1348","4.7381","18.53","0","SATNPRO1962","25.714","0.36016","5"],
    [34392,"HCEP03730560","2024-09-20 12:45:00","11.1826","3.42854","25.333","1.572","7.48","0.472","3.421","0.06","0.22","30.1322","4.73783","17.33","0","SATNPRO1962","25.32","0.35466","5"],
    [34393,"HCEP03730560","2024-09-20 13:00:00","11.1768","3.42775","25.431","1.488","7.48","0.465","3.475","0.06","0.1","30.1291","4.73749","16.4","0","SATNPRO1962","24.924","0.3491","5"],
    [34394,"HCEP03730560","2024-09-20 13:15:00","11.175","3.42751","25.567","1.434","7.47","0.506","3.544","0.07","0.09","30.1282","4.7374","15.8","0","SATNPRO1962","24.92","0.34906","5"],
    [34395,"HCEP03730560","2024-09-20 13:30:00","11.1736","3.4272","25.675","1.405","7.47","0.442","3.244","0.1","0.1","30.1263","4.73715","15.48","0","SATNPRO1962","24.908","0.3489","5"],
    [34396,"HCEP03730560","2024-09-20 13:45:00","11.1728","3.42701","25.825","1.394","7.47","0.489","3.487","0.09","0.21","30.1251","4.737","15.36","0","SATNPRO1962","24.956","0.34954","5"],
    [34397,"HCEP03730560","2024-09-20 14:00:00","11.1725","3.4269","25.969","1.399","7.47","0.951","3.026","1.42","0.32","30.1242","4.73688","15.42","0","SATNPRO1962","24.942","0.34934","5"],
    [34398,"HCEP03730560","2024-09-20 14:15:00","11.1714","3.42665","26.119","1.402","7.47","1.141","2.967","1.91","0.21","30.1226","4.73668","15.44","0","SATNPRO1962","24.93","0.34912","5"],
    [34399,"HCEP03730560","2024-09-20 14:30:00","11.1687","3.42619","26.281","1.402","7.46","0.421","3.066","0.08","0.23","30.1203","4.7364","15.44","0","SATNPRO1962","25.036","0.35072","5"],
    [34400,"HCEP03730560","2024-09-20 14:45:00","11.1687","3.4262","26.445","1.396","7.46","0.508","3.204","0.26","0.94","30.1203","4.73641","15.38","0","SATNPRO1962","25.216","0.35322","5"],
    [34401,"HCEP03730560","2024-09-20 15:00:00","11.1674","3.42598","26.622","1.387","7.46","0.383","2.856","0.07","0.08","30.1192","4.73629","15.28","0","SATNPRO1962","24.994","0.3501","5"],
    [34402,"HCEP03730560","2024-09-20 15:15:00","11.1655","3.42567","26.791","1.38","7.46","0.458","2.831","0.12","0.08","30.1176","4.7361","15.2","0","SATNPRO1962","24.99","0.35004","5"],
    [34403,"HCEP03730560","2024-09-20 15:30:00","11.1676","3.42609","26.952","1.369","7.46","0.401","3.102","0.09","0.19","30.1199","4.73641","15.08","0","SATNPRO1962","24.95","0.34948","5"],
    [34404,"HCEP03730560","2024-09-20 15:45:00","11.1675","3.42606","27.126","1.364","7.46","0.437","3.085","0.07","0.18","30.1196","4.73637","15.02","0","SATNPRO1962","24.962","0.34962","5"],
    [34405,"HCEP03730560","2024-09-20 16:00:00","11.1669","3.42596","27.288","1.336","7.46","0.434","3.087","0.11","0.09","30.1191","4.73632","14.72","0","SATNPRO1962","24.77","0.34692","5"],
    [34406,"HCEP03730560","2024-09-20 16:15:00","11.1643","3.42551","27.449","1.314","7.46","0.509","3.105","0.11","0.17","30.1167","4.73603","14.48","0","SATNPRO1962","24.674","0.34558","5"],
    [34407,"HCEP03730560","2024-09-20 16:30:00","11.1611","3.42512","27.602","1.296","7.46","0.539","3.121","0.68","0.28","30.1155","4.73592","14.27","0","SATNPRO1962","24.282","0.34012","5"],
    [34408,"HCEP03730560","2024-09-20 16:45:00","11.1586","3.42483","27.74","1.257","7.45","0.437","3.124","0.1","0.09","30.1146","4.73583","13.84","0","SATNPRO1962","24.334","0.34084","5"],
    [34409,"HCEP03730560","2024-09-20 17:00:00","11.1587","3.42491","27.866","1.217","7.45","0.402","3.317","0.07","0.19","30.1153","4.73594","13.41","0","SATNPRO1962","23.982","0.33592","5"],
    [34410,"HCEP03730560","2024-09-20 17:15:00","11.1619","3.42543","27.976","1.183","7.45","0.487","3.368","0.2","0.09","30.1177","4.73624","13.03","0","SATNPRO1962","23.548","0.32984","5"],
    [34411,"HCEP03730560","2024-09-20 17:30:00","11.1592","3.42497","28.061","1.163","7.44","0.526","3.309","0.43","0.09","30.1154","4.73596","12.81","0","SATNPRO1962","23.87","0.33434","5"],
    [34412,"HCEP03730560","2024-09-20 17:45:00","11.1572","3.42473","28.152","1.17","7.44","0.406","3.12","0.07","0.08","30.1147","4.73588","12.89","0","SATNPRO1962","23.706","0.33202","5"],
    [34413,"HCEP03730560","2024-09-20 18:00:00","11.1573","3.42467","28.109","1.166","7.44","0.42","3.248","0.1","0.12","30.1141","4.7358","12.84","0","SATNPRO1962","24.124","0.3379","5"],
    [34414,"HCEP03730560","2024-09-20 18:15:00","11.1583","3.42485","28.095","1.174","7.44","0.418","3.272","0.08","0.14","30.115","4.73591","12.92","0","SATNPRO1962","23.936","0.33526","5"],
    [34415,"HCEP03730560","2024-09-20 18:30:00","11.1616","3.42537","28.093","1.175","7.44","0.407","3.507","0.09","0.65","30.1174","4.73621","12.94","0","SATNPRO1962","23.806","0.3334","5"],
    [34416,"HCEP03730560","2024-09-20 18:45:00","11.1638","3.42574","28.075","1.17","7.44","0.393","3.264","0.09","0.12","30.1191","4.73642","12.89","0","SATNPRO1962","23.714","0.33214","5"],
    [34417,"HCEP03730560","2024-09-20 19:00:00","11.1675","3.42648","27.991","1.169","7.44","0.373","3.218","0.06","0.12","30.1234","4.73696","12.88","0","SATNPRO1962","23.669999999999998","0.33154","5"],
    [34418,"HCEP03730560","2024-09-20 19:15:00","11.1687","3.42654","27.813","1.177","7.44","0.43","3.488","0.08","0.12","30.123","4.73688","12.97","0","SATNPRO1962","23.894","0.33468","5"],
    [34419,"HCEP03730560","2024-09-20 19:30:00","11.1718","3.42708","27.675","1.198","7.45","0.401","3.377","0.04","0.17","30.1259","4.73723","13.2","0","SATNPRO1962","24.148","0.33822","5"],
    [34420,"HCEP03730560","2024-09-20 19:45:00","11.1709","3.42687","27.515","1.226","7.45","0.349","3.107","0.06","0.12","30.1247","4.73706","13.5","0","SATNPRO1962","24.291999999999998","0.3402","5"],
    [34421,"HCEP03730560","2024-09-20 20:00:00","11.1755","3.4276","27.345","1.265","7.45","0.348","3.269","0.05","0.2","30.128","4.73746","13.94","0","SATNPRO1962","24.674","0.3456","5"],
    [34422,"HCEP03730560","2024-09-20 20:15:00","11.1721","3.42679","27.174","1.309","7.45","0.386","3.067","0.14","0.19","30.123","4.73679","14.43","0","SATNPRO1962","24.898","0.34876","5"],
    [34423,"HCEP03730560","2024-09-20 20:30:00","11.1782","3.42789","26.981","1.352","7.46","0.283","3.141","0.03","0.2","30.1288","4.73751","14.9","0","SATNPRO1962","25.178","0.35266","5"],
    [34424,"HCEP03730560","2024-09-20 20:45:00","11.1761","3.42733","26.779","1.389","7.46","0.364","2.886","0.07","0.06","30.1251","4.737","15.31","0","SATNPRO1962","25.226","0.35338","5"],
    [34425,"HCEP03730560","2024-09-20 21:00:00","11.1736","3.42702","26.568","1.402","7.46","0.352","2.809","0.09","0.07","30.1242","4.7369","15.44","0","SATNPRO1962","25.266000000000002","0.35394","5"],
    [34426,"HCEP03730560","2024-09-20 21:15:00","11.1741","3.42706","26.334","1.411","7.46","0.29","2.758","0.02","0.04","30.1243","4.7369","15.55","0","SATNPRO1962","25.558","0.35798","5"],
    [34427,"HCEP03730560","2024-09-20 21:30:00","11.173400000000001","3.42696","26.105","1.413","7.46","0.278","2.712","0.06","0.04","30.124","4.73684","15.57","0","SATNPRO1962","25.567999999999998","0.35812","5"],
    [34428,"HCEP03730560","2024-09-20 21:45:00","11.1704","3.42639","25.868","1.399","7.46","0.371","2.765","0.08","0.12","30.121","4.73645","15.41","0","SATNPRO1962","25.216","0.35318","5"],
    [34429,"HCEP03730560","2024-09-20 22:00:00","11.1713","3.42657","25.588","1.391","7.46","0.331","2.833","0.12","0.08","30.1221","4.73658","15.33","0","SATNPRO1962","25.332","0.35482","5"],
    [34430,"HCEP03730560","2024-09-20 22:15:00","11.1733","3.427","25.346","1.402","7.46","0.331","2.91","0.06","0.09","30.1247","4.73692","15.45","0","SATNPRO1962","25.308","0.35452","5"],
    [34431,"HCEP03730560","2024-09-20 22:30:00","11.1722","3.42677","25.087","1.403","7.46","0.475","2.94","0.75","0.11","30.1235","4.73674","15.46","0","SATNPRO1962","25.236","0.3535","5"],
    [34432,"HCEP03730560","2024-09-20 22:45:00","11.1757","3.4276","24.84","1.35","7.46","0.357","3.482","0.04","0.11","30.1288","4.73743","14.87","0","SATNPRO1962","24.894","0.3487","5"],
    [34433,"HCEP03730560","2024-09-20 23:00:00","11.1719","3.42704","24.617","1.261","7.45","0.367","3.502","0.23","0.12","30.1266","4.73717","13.89","0","SATNPRO1962","24.37","0.34132","5"],
    [34434,"HCEP03730560","2024-09-20 23:15:00","11.1669","3.42626","24.421","1.209","7.45","0.41","3.909","0.16","0.55","30.1232","4.73673","13.32","0","SATNPRO1962","23.529999999999998","0.32958","5"],
    [34435,"HCEP03730560","2024-09-20 23:30:00","11.158","3.42475","24.284","1.135","7.44","0.37","3.69","0.08","0.41","30.1158","4.73582","12.5","0","SATNPRO1962","23.228","0.32536","5"],
    [34436,"HCEP03730560","2024-09-20 23:45:00","11.1483","3.42343","24.176","1.078","7.44","0.369","3.414","0.05","0.14","30.1108","4.73525","11.87","0","SATNPRO1962","23.416","0.32798","5"],
    [34437,"HCEP03730560","2024-09-21 00:00:00","11.1453","3.42292","24.115","1.039","7.43","0.398","3.541","0.33","0.37","30.1084","4.73495","11.44","0","SATNPRO1962","23.254","0.32572","5"],
    [34438,"HCEP03730560","2024-09-21 00:15:00","11.1409","3.42224","24.079","1.015","7.43","1.442","3.491","3.95","0.6","30.1054","4.73459","11.17","0","SATNPRO1962","23.44","0.32834","5"],
    [34439,"HCEP03730560","2024-09-21 00:30:00","11.1388","3.42202","24.099","1.01","7.43","0.37","3.627","0.08","0.38","30.1049","4.73456","11.12","0","SATNPRO1962","23.498","0.32914","5"],
    [34440,"HCEP03730560","2024-09-21 00:45:00","11.1411","3.42242","24.117","1.006","7.43","0.404","3.734","0.1","0.08","30.107","4.73481","11.07","0","SATNPRO1962","23.436","0.32826","5"],
    [34441,"HCEP03730560","2024-09-21 01:00:00","11.1346","3.42131","24.158","1.005","7.43","0.324","2.992","0.06","0.08","30.1014","4.73412","11.06","0","SATNPRO1962","23.536","0.3297","5"],
    [34442,"HCEP03730560","2024-09-21 01:15:00","11.135","3.42141","24.2","1.005","7.43","0.303","3.016","0.02","0.14","30.1021","4.73421","11.06","0","SATNPRO1962","23.646","0.33116","5"],
    [34443,"HCEP03730560","2024-09-21 01:30:00","11.1345","3.42129","24.275","1.004","7.43","0.282","2.909","0.05","0.12","30.1012","4.73411","11.05","0","SATNPRO1962","23.791999999999998","0.33326","5"],
    [34444,"HCEP03730560","2024-09-21 01:45:00","11.1349","3.42144","24.408","1.01","7.43","0.36","2.833","0.16","0.14","30.1023","4.73425","11.11","0","SATNPRO1962","23.748","0.33262","5"],
    [34445,"HCEP03730560","2024-09-21 02:00:00","11.1346","3.42135","24.554","1.009","7.43","0.306","2.937","0.04","0.07","30.1017","4.73418","11.1","0","SATNPRO1962","23.698","0.33192","5"],
    [34446,"HCEP03730560","2024-09-21 02:15:00","11.1491","3.42389","24.747","0.99","7.42","0.41","3.873","0.17","0.16","30.1144","4.73578","10.9","0","SATNPRO1962","23.06","0.32302","5"],
    [34447,"HCEP03730560","2024-09-21 02:30:00","11.1493","3.42419","24.929","0.967","7.42","0.463","3.921","0.56","0.63","30.1171","4.73618","10.65","0","SATNPRO1962","22.738","0.3185","5"],
    [34448,"HCEP03730560","2024-09-21 02:45:00","11.1465","3.42355","25.126","0.94","7.42","0.415","3.872","0.09","0.12","30.1131","4.73566","10.35","0","SATNPRO1962","22.582","0.3163","5"],
    [34449,"HCEP03730560","2024-09-21 03:00:00","11.1557","3.42481","25.309","0.939","7.42","0.474","4.251","0.21","0.34","30.1178","4.7362","10.34","0","SATNPRO1962","22.47","0.31474","5"],
    [34450,"HCEP03730560","2024-09-21 03:15:00","11.157","3.42511","25.484","0.938","7.42","0.501","4.099","0.21","0.13","30.1196","4.73644","10.33","0","SATNPRO1962","22.498","0.31514","5"],
    [34451,"HCEP03730560","2024-09-21 03:30:00","11.1637","3.42604","25.672","0.956","7.42","0.397","4.25","0.1","0.22","30.1231","4.73685","10.54","0","SATNPRO1962","22.52","0.31546","5"],
    [34452,"HCEP03730560","2024-09-21 03:45:00","11.1671","3.42654","25.861","0.994","7.43","0.453","4.21","0.13","0.24","30.1252","4.7371","10.95","0","SATNPRO1962","23.052","0.32284","5"],
    [34453,"HCEP03730560","2024-09-21 04:00:00","11.1738","3.42741","26.037","1.071","7.43","0.416","4.015","0.11","0.15","30.1281","4.73742","11.8","0","SATNPRO1962","23.788","0.33314","5"],
    [34454,"HCEP03730560","2024-09-21 04:15:00","11.1801","3.42823","26.187","1.183","7.44","0.387","3.849","0.11","0.19","30.1308","4.73772","13.03","0","SATNPRO1962","24.726","0.34634","5"],
    [34455,"HCEP03730560","2024-09-21 04:30:00","11.1856","3.42891","26.373","1.302","7.45","0.49","3.67","0.38","0.15","30.1329","4.73795","14.34","0","SATNPRO1962","25.136","0.35206","5"],
    [34456,"HCEP03730560","2024-09-21 04:45:00","11.1958","3.43024","26.57","1.401","7.46","0.429","3.733","0.14","0.13","30.1375","4.73845","15.44","0","SATNPRO1962","25.483999999999998","0.35696","5"],
    [34457,"HCEP03730560","2024-09-21 05:00:00","11.1994","3.43041","26.671","1.507","7.47","0.394","3.65","0.08","0.29","30.1362","4.73822","16.62","0","SATNPRO1962","25.942","0.3634","5"],
    [34458,"HCEP03730560","2024-09-21 05:15:00","11.1969","3.43004","26.862","1.553","7.47","0.419","3.838","0.09","0.22","30.1346","4.73804","17.12","0","SATNPRO1962","25.81","0.3615","5"],
    [34459,"HCEP03730560","2024-09-21 05:30:00","11.1964","3.42984","27.046","1.545","7.47","0.689","3.75","0.79","0.17","30.1329","4.73783","17.03","0","SATNPRO1962","25.732","0.36042","5"],
    [34460,"HCEP03730560","2024-09-21 05:45:00","11.1948","3.42953","27.159","1.544","7.47","0.484","3.412","0.22","0.06","30.1311","4.7376","17.02","0","SATNPRO1962","25.922","0.36312","5"],
    [34461,"HCEP03730560","2024-09-21 06:00:00","11.1954","3.42974","27.266","1.545","7.47","0.404","3.7","0.09","0.17","30.1326","4.73781","17.03","0","SATNPRO1962","25.696","0.35992","5"],
    [34462,"HCEP03730560","2024-09-21 06:15:00","11.1952","3.42961","27.344","1.54","7.47","0.387","3.535","0.09","0.17","30.1315","4.73766","16.98","0","SATNPRO1962","25.598","0.35852","5"],
    [34463,"HCEP03730560","2024-09-21 06:30:00","11.1956","3.42972","27.41","1.533","7.47","0.415","4.03","0.07","0.26","30.1322","4.73775","16.9","0","SATNPRO1962","25.454","0.35654","5"],
    [34464,"HCEP03730560","2024-09-21 06:45:00","11.1947","3.4295","27.457","1.514","7.47","0.43","3.64","0.06","0.16","30.1308","4.73758","16.69","0","SATNPRO1962","25.612","0.35876","5"],
    [34465,"HCEP03730560","2024-09-21 07:00:00","11.1942","3.42946","27.471","1.508","7.47","0.573","3.759","0.51","0.41","30.1308","4.73758","16.62","0","SATNPRO1962","25.598","0.35856","5"],
    [34466,"HCEP03730560","2024-09-21 07:15:00","11.1935","3.42921","27.468","1.502","7.47","0.418","3.373","0.1","0.29","30.129","4.73733","16.56","0","SATNPRO1962","25.62","0.35886","5"],
    [34467,"HCEP03730560","2024-09-21 07:30:00","11.1928","3.42909","27.439","1.507","7.47","0.412","3.416","0.1","0.36","30.1284","4.73725","16.61","0","SATNPRO1962","25.736","0.36048","5"],
    [34468,"HCEP03730560","2024-09-21 07:45:00","11.1923","3.42902","27.491","1.508","7.47","0.372","3.274","0.07","0.26","30.1281","4.73723","16.62","0","SATNPRO1962","25.726","0.36032","5"],
    [34469,"HCEP03730560","2024-09-21 08:00:00","11.1919","3.42884","27.526","1.512","7.47","0.339","3.193","0.06","0.26","30.1266","4.73702","16.66","0","SATNPRO1962","25.916","0.36298","5"],
    [34470,"HCEP03730560","2024-09-21 08:15:00","11.1895","3.42845","27.479","1.507","7.47","0.33","3.123","0.06","0.17","30.1248","4.7368","16.61","0","SATNPRO1962","25.618","0.35882","5"],
    [34471,"HCEP03730560","2024-09-21 08:30:00","11.1876","3.42821","27.462","1.484","7.47","0.268","2.945","0.01","0.11","30.124","4.73672","16.36","0","SATNPRO1962","25.334","0.35488","5"],
    [34472,"HCEP03730560","2024-09-21 08:45:00","11.1857","3.42793","27.332","1.472","7.47","0.354","3.019","0.07","0.16","30.1229","4.73658","16.22","0","SATNPRO1962","25.56","0.35802","5"],
    [34473,"HCEP03730560","2024-09-21 09:00:00","11.179","3.42689","27.207","1.436","7.47","0.383","3.013","0.18","0.09","30.1183","4.73602","15.83","0","SATNPRO1962","26.076","0.36524","5"],
    [34474,"HCEP03730560","2024-09-21 09:15:00","11.1834","3.42742","27.116","1.408","7.46","0.344","2.944","0.07","0.18","30.12","4.73619","15.52","0","SATNPRO1962","25.908","0.36288","5"],
    [34475,"HCEP03730560","2024-09-21 09:30:00","11.1843","3.4276","27.024","1.45","7.47","0.419","2.879","0.13","0.13","30.121","4.73631","15.98","0","SATNPRO1962","26.046","0.3648","5"],
    [34476,"HCEP03730560","2024-09-21 09:45:00","11.1857","3.4279","26.926","1.467","7.47","0.368","2.751","0.1","0.08","30.1227","4.73653","16.17","0","SATNPRO1962","25.912","0.36298","5"],
    [34477,"HCEP03730560","2024-09-21 10:00:00","11.1871","3.42814","26.86","1.493","7.47","0.401","2.796","0.14","0.06","30.124","4.73669","16.46","0","SATNPRO1962","25.812","0.36158","5"],
    [34478,"HCEP03730560","2024-09-21 10:15:00","11.1867","3.4282","26.764","1.51","7.47","0.403","2.825","0.09","0.11","30.1249","4.73681","16.64","0","SATNPRO1962","25.976","0.36384","5"],
    [34479,"HCEP03730560","2024-09-21 10:30:00","11.1872","3.42808","26.661","1.515","7.47","0.364","2.737","0.12","0.14","30.1234","4.73659","16.7","0","SATNPRO1962","25.902","0.36284","5"],
    [34480,"HCEP03730560","2024-09-21 10:45:00","11.1805","3.42714","26.555","1.502","7.47","0.39","2.657","0.12","0.09","30.1198","4.73618","16.55","0","SATNPRO1962","25.722","0.36028","5"],
    [34481,"HCEP03730560","2024-09-21 11:00:00","11.1822","3.42756","26.408","1.483","7.47","0.318","2.725","0.06","0.08","30.1225","4.73653","16.34","0","SATNPRO1962","25.762","0.36082","5"],
    [34482,"HCEP03730560","2024-09-21 11:15:00","11.1839","3.42757","26.275","1.5","7.47","0.374","2.722","0.06","0.07","30.1213","4.73632","16.53","0","SATNPRO1962","25.812","0.36158","5"],
    [34483,"HCEP03730560","2024-09-21 11:30:00","11.1855","3.42773","26.153","1.495","7.47","0.382","2.748","0.19","0.07","30.1215","4.73632","16.48","0","SATNPRO1962","26.01","0.36434","5"],
    [34484,"HCEP03730560","2024-09-21 11:45:00","11.182","3.42738","26.047","1.478","7.47","0.396","2.815","0.08","0.1","30.1211","4.7363","16.28","0","SATNPRO1962","25.742","0.3606","5"],
    [34485,"HCEP03730560","2024-09-21 12:00:00","11.1858","3.42824","25.945","1.425","7.47","0.451","3.484","0.13","0.27","30.1264","4.737","15.71","0","SATNPRO1962","24.96","0.34962","5"],
    [34486,"HCEP03730560","2024-09-21 12:15:00","11.1862","3.42832","25.833","1.38","7.46","0.46","3.443","0.09","0.16","30.1269","4.73706","15.21","0","SATNPRO1962","25.156000000000002","0.35232","5"],
    [34487,"HCEP03730560","2024-09-21 12:30:00","11.1819","3.42754","25.778","1.388","7.46","0.411","3.116","0.09","0.14","30.1228","4.73653","15.29","0","SATNPRO1962","25.712","0.36014","5"],
    [34488,"HCEP03730560","2024-09-21 12:45:00","11.1818","3.42782","25.753","1.394","7.46","0.661","3.03","0.68","0.09","30.1256","4.73694","15.36","0","SATNPRO1962","25.33","0.35478","5"],
    [34489,"HCEP03730560","2024-09-21 13:00:00","11.1785","3.4274","25.673","1.37","7.46","0.345","3.017","0.04","0.19","30.1243","4.73679","15.09","0","SATNPRO1962","25.354","0.35516","5"],
    [34490,"HCEP03730560","2024-09-21 13:15:00","11.1715","3.42648","25.746","1.34","7.46","0.379","2.693","0.14","0.06","30.121","4.73643","14.76","0","SATNPRO1962","24.972","0.34978","5"],
    [34491,"HCEP03730560","2024-09-21 13:30:00","11.1698","3.42634","25.789","1.291","7.46","0.34","2.769","0.09","0.07","30.121","4.73646","14.22","0","SATNPRO1962","24.866","0.3483","5"],
    [34492,"HCEP03730560","2024-09-21 13:45:00","11.1724","3.4267","25.844","1.271","7.45","0.374","3.027","0.07","0.15","30.1224","4.73662","14","0","SATNPRO1962","24.798","0.34738","5"],
    [34493,"HCEP03730560","2024-09-21 14:00:00","11.175","3.42715","25.936","1.264","7.45","0.501","2.975","0.41","0.09","30.1245","4.73689","13.92","0","SATNPRO1962","24.82","0.34762","5"],
    [34494,"HCEP03730560","2024-09-21 14:15:00","11.1735","3.42701","26.049","1.257","7.45","0.355","3.033","0.07","0.11","30.1244","4.73691","13.85","0","SATNPRO1962","24.582","0.34428","5"],
    [34495,"HCEP03730560","2024-09-21 14:30:00","11.175","3.42737","26.162","1.233","7.45","0.399","3.308","0.15","0.14","30.1266","4.7372","13.59","0","SATNPRO1962","24.166","0.3385","5"],
    [34496,"HCEP03730560","2024-09-21 14:45:00","11.1665","3.42618","26.291","1.162","7.44","0.388","3.44","0.07","0.09","30.122","4.73669","12.8","0","SATNPRO1962","23.506","0.32924","5"],
    [34497,"HCEP03730560","2024-09-21 15:00:00","11.159","3.42512","26.465","1.047","7.44","0.351","3.409","0.04","0.08","30.1177","4.73619","11.54","0","SATNPRO1962","23.137999999999998","0.32414","5"],
    [34498,"HCEP03730560","2024-09-21 15:15:00","11.1629","3.42573","26.618","0.996","7.43","0.39","3.491","0.06","0.09","30.1204","4.73653","10.97","0","SATNPRO1962","22.962","0.32156","5"],
    [34499,"HCEP03730560","2024-09-21 15:30:00","11.1638","3.42577","26.787","0.973","7.43","0.395","3.573","0.1","0.12","30.12","4.73646","10.72","0","SATNPRO1962","22.884","0.32052","5"],
    [34500,"HCEP03730560","2024-09-21 15:45:00","11.1581","3.42539","26.975","0.944","7.43","0.409","3.555","0.07","0.14","30.1208","4.73667","10.4","0","SATNPRO1962","23.009999999999998","0.3223","5"],
    [34501,"HCEP03730560","2024-09-21 16:00:00","11.1696","3.42684","27.117","0.997","7.43","0.41","3.744","0.09","0.2","30.1255","4.73718","10.99","0","SATNPRO1962","23.11","0.32368","5"],
    [34502,"HCEP03730560","2024-09-21 16:15:00","11.1687","3.42678","27.285","1.005","7.43","0.429","4.679","0.08","0.97","30.1256","4.73722","11.08","0","SATNPRO1962","23.054","0.32288","5"],
    [34503,"HCEP03730560","2024-09-21 16:30:00","11.1696","3.4269","27.441","0.993","7.43","0.363","3.802","0.04","0.14","30.1259","4.73726","10.94","0","SATNPRO1962","22.78","0.31906","5"],
    [34504,"HCEP03730560","2024-09-21 16:45:00","11.17","3.42691","27.605","0.974","7.43","0.524","3.899","0.16","0.12","30.1257","4.73723","10.73","0","SATNPRO1962","22.824","0.31972","5"],
    [34505,"HCEP03730560","2024-09-21 17:00:00","11.1735","3.4274","27.727","0.983","7.43","0.467","3.89","0.14","0.13","30.1275","4.73744","10.83","0","SATNPRO1962","23.044","0.32278","5"],
    [34506,"HCEP03730560","2024-09-21 17:15:00","11.1775","3.42795","27.828","1.029","7.43","0.463","4.001","0.1","0.43","30.1296","4.73769","11.34","0","SATNPRO1962","23.324","0.32672","5"],
    [34507,"HCEP03730560","2024-09-21 17:30:00","11.1803","3.42836","27.92","1.069","7.43","0.432","3.988","0.11","0.17","30.1313","4.73788","11.78","0","SATNPRO1962","23.758","0.3328","5"],
    [34508,"HCEP03730560","2024-09-21 17:45:00","11.1824","3.42866","27.823","1.11","7.44","0.446","4.139","0.07","0.33","30.1325","4.73802","12.23","0","SATNPRO1962","23.69","0.33182","5"],
    [34509,"HCEP03730560","2024-09-21 18:00:00","11.1847","3.42895","27.952","1.14","7.44","0.412","3.963","0.09","0.12","30.1335","4.73812","12.57","0","SATNPRO1962","23.862","0.3342","5"],
    [34510,"HCEP03730560","2024-09-21 18:15:00","11.1874","3.42933","27.933","1.179","7.44","0.395","3.937","0.05","0.2","30.1349","4.7383","13","0","SATNPRO1962","24.268","0.3399","5"],
    [34511,"HCEP03730560","2024-09-21 18:30:00","11.1884","3.42944","27.908","1.226","7.45","0.374","3.866","0.06","0.16","30.1352","4.73831","13.51","0","SATNPRO1962","24.398","0.34172","5"],
    [34512,"HCEP03730560","2024-09-21 18:45:00","11.1893","3.4295","27.881","1.248","7.45","0.373","3.794","0.06","0.22","30.1351","4.73828","13.75","0","SATNPRO1962","24.528","0.34352","5"],
    [34513,"HCEP03730560","2024-09-21 19:00:00","11.1904","3.42957","27.849","1.274","7.45","0.318","3.562","0.05","0.12","30.1348","4.73822","14.04","0","SATNPRO1962","24.78","0.34706","5"],
    [34514,"HCEP03730560","2024-09-21 19:15:00","11.1911","3.42941","27.813","1.348","7.46","0.393","3.476","0.11","0.38","30.1327","4.73792","14.86","0","SATNPRO1962","25.232","0.35342","5"],
    [34515,"HCEP03730560","2024-09-21 19:30:00","11.1914","3.42958","27.745","1.375","7.46","0.347","3.292","0.05","0.15","30.1341","4.73811","15.16","0","SATNPRO1962","25.137999999999998","0.35214","5"],
    [34516,"HCEP03730560","2024-09-21 19:45:00","11.191","3.42957","27.647","1.363","7.46","0.39","3.334","0.14","0.19","30.1345","4.73816","15.02","0","SATNPRO1962","25.016000000000002","0.35038","5"],
    [34517,"HCEP03730560","2024-09-21 20:00:00","11.1906","3.42954","27.527","1.335","7.46","0.326","3.741","0.1","0.17","30.1345","4.73816","14.72","0","SATNPRO1962","24.868000000000002","0.34832","5"],
    [34518,"HCEP03730560","2024-09-21 20:15:00","11.1902","3.42952","27.398","1.307","7.45","1.546","3.877","2.71","0.39","30.1347","4.73819","14.4","0","SATNPRO1962","24.785999999999998","0.34722","5"],
    [34519,"HCEP03730560","2024-09-21 20:30:00","11.1903","3.42954","27.244","1.292","7.45","0.311","3.76","0.04","0.09","30.1349","4.7382","14.24","0","SATNPRO1962","24.485999999999997","0.34298","5"],
    [34520,"HCEP03730560","2024-09-21 20:45:00","11.1908","3.42959","27.071","1.285","7.45","0.35","3.815","0.03","0.15","30.135","4.73821","14.16","0","SATNPRO1962","24.494","0.34306","5"],
    [34521,"HCEP03730560","2024-09-21 21:00:00","11.1905","3.42958","26.881","1.284","7.45","0.987","3.726","2.27","0.24","30.1353","4.73823","14.16","0","SATNPRO1962","24.562","0.34404","5"],
    [34522,"HCEP03730560","2024-09-21 21:15:00","11.1909","3.42966","26.683","1.282","7.45","0.348","3.739","0.05","0.13","30.1357","4.73829","14.13","0","SATNPRO1962","24.444","0.34242","5"],
    [34523,"HCEP03730560","2024-09-21 21:30:00","11.1913","3.42979","26.492","1.283","7.45","0.314","3.918","0.04","0.22","30.1368","4.73842","14.14","0","SATNPRO1962","24.554","0.34392","5"],
    [34524,"HCEP03730560","2024-09-21 21:45:00","11.1914","3.42984","26.28","1.275","7.45","0.372","4.052","0.09","0.17","30.1373","4.73847","14.05","0","SATNPRO1962","24.586","0.34438","5"],
    [34525,"HCEP03730560","2024-09-21 22:00:00","11.1909","3.42996","26.063","1.255","7.45","0.319","4.076","0.04","0.29","30.139","4.73871","13.83","0","SATNPRO1962","24.496000000000002","0.34304","5"],
    [34526,"HCEP03730560","2024-09-21 22:15:00","11.1902","3.43035","25.829","1.196","7.45","0.373","4.582","0.06","0.22","30.1434","4.73934","13.19","0","SATNPRO1962","23.468","0.3287","5"],
    [34527,"HCEP03730560","2024-09-21 22:30:00","11.193","3.43123","25.593","1.122","7.44","0.359","4.385","0.08","0.27","30.1498","4.74018","12.36","0","SATNPRO1962","23.524","0.32948","5"],
    [34528,"HCEP03730560","2024-09-21 22:45:00","11.2047","3.43293","25.352","1.143","7.45","0.354","4.041","0.04","0.16","30.1569","4.741","12.61","0","SATNPRO1962","24.274","0.33998","5"],
    [34529,"HCEP03730560","2024-09-21 23:00:00","11.2175","3.43463","25.116","1.261","7.45","0.357","3.988","0.09","0.18","30.1631","4.74168","13.91","0","SATNPRO1962","25.052","0.35092","5"],
    [34530,"HCEP03730560","2024-09-21 23:15:00","11.229","3.43615","24.879","1.421","7.47","0.346","3.842","0.03","0.16","30.1686","4.74227","15.67","0","SATNPRO1962","25.734","0.36042","5"],
    [34531,"HCEP03730560","2024-09-21 23:30:00","11.2339","3.43672","24.646","1.548","7.47","0.393","3.773","0.16","0.12","30.1702","4.74242","17.08","0","SATNPRO1962","26.094","0.3655","5"],
    [34532,"HCEP03730560","2024-09-21 23:45:00","11.2405","3.43762","24.445","1.623","7.48","0.406","4","0.09","0.15","30.1737","4.74279","17.91","0","SATNPRO1962","26.349999999999998","0.36906","5"],
    [34533,"HCEP03730560","2024-09-22 00:00:00","11.2441","3.43801","24.278","1.701","7.49","0.402","3.823","0.14","0.15","30.1746","4.74285","18.77","0","SATNPRO1962","26.644","0.37316","5"],
    [34534,"HCEP03730560","2024-09-22 00:15:00","11.2526","3.43906","24.14","1.783","7.5","0.365","3.587","0.07","0.14","30.1779","4.74319","19.68","0","SATNPRO1962","27.330000000000002","0.38278","5"],
    [34535,"HCEP03730560","2024-09-22 00:30:00","11.2528","3.43915","24.047","1.852","7.5","0.391","3.888","0.08","0.22","30.1786","4.74329","20.44","0","SATNPRO1962","26.894000000000002","0.37672","5"],
    [34536,"HCEP03730560","2024-09-22 00:45:00","11.255","3.43941","23.967","1.868","7.5","0.36","3.706","0.04","0.2","30.1794","4.74336","20.62","0","SATNPRO1962","27.356","0.38314","5"],
    [34537,"HCEP03730560","2024-09-22 01:00:00","11.2569","3.43969","23.923","1.898","7.51","0.315","3.588","0.04","0.23","30.1806","4.7435","20.95","0","SATNPRO1962","27.494","0.3851","5"],
    [34538,"HCEP03730560","2024-09-22 01:15:00","11.2608","3.44022","23.917","1.928","7.51","0.385","3.7","0.14","0.17","30.1825","4.74372","21.29","0","SATNPRO1962","27.52","0.38548","5"],
    [34539,"HCEP03730560","2024-09-22 01:30:00","11.2621","3.4405","23.924","1.952","7.51","0.407","3.768","0.23","0.2","30.1842","4.74394","21.56","0","SATNPRO1962","27.502","0.3852","5"],
    [34540,"HCEP03730560","2024-09-22 01:45:00","11.2639","3.44072","23.945","1.968","7.52","0.392","3.958","0.12","0.21","30.1849","4.74401","21.73","0","SATNPRO1962","27.561999999999998","0.38608","5"],
    [34541,"HCEP03730560","2024-09-22 02:00:00","11.2632","3.44057","23.993","1.987","7.52","0.353","3.968","0.04","0.11","30.184","4.74389","21.95","0","SATNPRO1962","27.534","0.38568","5"],
    [34542,"HCEP03730560","2024-09-22 02:15:00","11.2682","3.44106","24.067","2.012","7.52","0.357","3.483","0.09","0.14","30.1846","4.74391","22.23","0","SATNPRO1962","28.402","0.39786","5"],
    [34543,"HCEP03730560","2024-09-22 02:30:00","11.271","3.44151","24.195","2.066","7.53","0.311","3.251","0.04","0.15","30.1867","4.74417","22.81","0","SATNPRO1962","27.914","0.39098","5"],
    [34544,"HCEP03730560","2024-09-22 02:45:00","11.2788","3.44242","24.35","2.146","7.53","0.357","2.927","0.05","0.14","30.189","4.74439","23.7","0","SATNPRO1962","28.812","0.40354","5"],
    [34545,"HCEP03730560","2024-09-22 03:00:00","11.267","3.44112","24.536","2.152","7.53","0.353","3.829","0.05","0.13","30.186","4.74415","23.77","0","SATNPRO1962","27.608","0.38668","5"],
    [34546,"HCEP03730560","2024-09-22 03:15:00","11.2612","3.44054","24.704","2.028","7.52","0.409","4.007","0.07","0.16","30.1849","4.7441","22.39","0","SATNPRO1962","27.36","0.38322","5"],
    [34547,"HCEP03730560","2024-09-22 03:30:00","11.2603","3.44042","24.897","1.946","7.52","0.37","3.947","0.08","0.27","30.1845","4.74406","21.49","0","SATNPRO1962","27.246","0.38164","5"],
    [34548,"HCEP03730560","2024-09-22 03:45:00","11.2642","3.44075","25.077","1.936","7.52","0.391","3.966","0.07","0.17","30.1844","4.744","21.38","0","SATNPRO1962","27.279999999999998","0.3821","5"],
    [34549,"HCEP03730560","2024-09-22 04:00:00","11.2695","3.44155","25.26","1.977","7.52","0.377","3.646","0.09","0.14","30.1879","4.74442","21.84","0","SATNPRO1962","27.772","0.389","5"],
    [34550,"HCEP03730560","2024-09-22 04:15:00","11.266","3.44118","25.431","2.003","7.52","0.412","3.932","0.09","0.14","30.187","4.74436","22.12","0","SATNPRO1962","27.624","0.38694","5"],
    [34551,"HCEP03730560","2024-09-22 04:30:00","11.2616","3.44066","25.602","1.951","7.52","0.357","3.924","0.05","0.19","30.1856","4.74423","21.55","0","SATNPRO1962","27.148","0.38026","5"],
    [34552,"HCEP03730560","2024-09-22 04:45:00","11.2611","3.44061","25.782","1.915","7.52","0.381","3.788","0.05","0.1","30.1854","4.74422","21.15","0","SATNPRO1962","27.134","0.38006","5"],
    [34553,"HCEP03730560","2024-09-22 05:00:00","11.2552","3.43983","25.914","1.884","7.51","0.344","4.135","0.05","0.53","30.1825","4.74391","20.8","0","SATNPRO1962","27.092","0.37948","5"],
    [34554,"HCEP03730560","2024-09-22 05:15:00","11.2558","3.43898","26.068","1.837","7.51","0.342","3.758","0.03","0.17","30.1737","4.74266","20.28","0","SATNPRO1962","26.768","0.37492","5"],
    [34555,"HCEP03730560","2024-09-22 05:30:00","11.2476","3.43868","26.307","1.799","7.51","0.385","3.687","0.18","0.19","30.1774","4.74332","19.86","0","SATNPRO1962","26.892","0.37664","5"],
    [34556,"HCEP03730560","2024-09-22 05:45:00","11.2411","3.43792","26.594","1.704","7.5","0.33","3.656","0.03","0.11","30.1753","4.74313","18.8","0","SATNPRO1962","26.06","0.365","5"],
    [34557,"HCEP03730560","2024-09-22 06:00:00","11.2575","3.43885","26.731","1.716","7.5","0.368","3.43","0.12","0.14","30.1708","4.74226","18.95","0","SATNPRO1962","27.356","0.3832","5"],
    [34558,"HCEP03730560","2024-09-22 06:15:00","11.2646","3.44071","26.818","1.855","7.51","0.491","3.61","0.46","0.14","30.183","4.74389","20.49","0","SATNPRO1962","27.436","0.38426","5"],
    [34559,"HCEP03730560","2024-09-22 06:30:00","11.2601","3.4403","26.971","1.918","7.51","0.379","3.814","0.07","0.42","30.1827","4.74392","21.18","0","SATNPRO1962","27.116","0.37982","5"],
    [34560,"HCEP03730560","2024-09-22 06:45:00","11.2618","3.44054","27.072","1.908","7.51","0.401","3.744","0.06","0.15","30.1836","4.74403","21.07","0","SATNPRO1962","27.444","0.3844","5"],
    [34561,"HCEP03730560","2024-09-22 07:00:00","11.2634","3.44062","27.183","1.93","7.52","0.369","3.199","0.09","0.17","30.183","4.74393","21.31","0","SATNPRO1962","28.25","0.39566","5"],
    [34562,"HCEP03730560","2024-09-22 07:15:00","11.2627","3.43973","27.267","1.949","7.52","0.4","3.532","0.07","0.14","30.1749","4.74279","21.52","0","SATNPRO1962","27.516000000000002","0.3854","5"],
    [34563,"HCEP03730560","2024-09-22 07:30:00","11.267","3.44118","27.335","1.953","7.52","0.364","3.641","0.04","0.16","30.1854","4.74422","21.57","0","SATNPRO1962","27.616","0.38682","5"],
    [34564,"HCEP03730560","2024-09-22 07:45:00","11.2692","3.44159","27.379","1.975","7.52","0.518","3.563","0.5","0.08","30.1876","4.7445","21.81","0","SATNPRO1962","27.766000000000002","0.38894","5"],
    [34565,"HCEP03730560","2024-09-22 08:00:00","11.2706","3.44167","27.404","1.999","7.52","0.6","7.462","0.28","4.41","30.1873","4.74444","22.08","0","SATNPRO1962","28","0.39218","5"],
    [34566,"HCEP03730560","2024-09-22 08:15:00","11.2707","3.44175","27.41","2.016","7.52","0.393","3.513","0.06","0.2","30.1879","4.74452","22.26","0","SATNPRO1962","28.238","0.39554","5"],
    [34567,"HCEP03730560","2024-09-22 08:30:00","11.2709","3.44171","27.415","2.02","7.52","0.437","3.851","0.15","0.62","30.1874","4.74446","22.32","0","SATNPRO1962","27.990000000000002","0.39204","5"],
    [34568,"HCEP03730560","2024-09-22 08:45:00","11.2679","3.43989","27.485","2.01","7.52","0.449","3.36","0.24","0.14","30.1721","4.74233","22.2","0","SATNPRO1962","27.508","0.38526","5"],
    [34569,"HCEP03730560","2024-09-22 09:00:00","11.2581","3.44004","27.425","1.925","7.52","0.357","3.312","0.08","0.19","30.1816","4.74382","21.26","0","SATNPRO1962","27.63","0.38698","5"],
    [34570,"HCEP03730560","2024-09-22 09:15:00","11.2509","3.43903","27.47","1.85","7.51","0.418","4.003","0.06","0.32","30.1776","4.74336","20.42","0","SATNPRO1962","27.058","0.379","5"],
    [34571,"HCEP03730560","2024-09-22 09:30:00","11.2447","3.43786","27.398","1.777","7.51","0.317","3.149","0.08","0.35","30.1713","4.74256","19.62","0","SATNPRO1962","26.498","0.37116","5"],
    [34572,"HCEP03730560","2024-09-22 09:45:00","11.2369","3.43703","27.369","1.709","7.5","0.363","3.199","0.05","0.11","30.1697","4.74245","18.87","0","SATNPRO1962","24.746","0.34662","5"],
    [34573,"HCEP03730560","2024-09-22 10:00:00","11.1958","3.42955","27.302","1.558","7.49","0.326","3.205","0.05","0.13","30.1304","4.73749","17.18","0","SATNPRO1962","25.682","0.3597","5"],
    [34574,"HCEP03730560","2024-09-22 10:15:00","11.2271","3.43546","27.222","1.478","7.48","0.34","3.047","0.05","0.09","30.1625","4.74156","16.3","0","SATNPRO1962","26.56","0.37202","5"],
    [34575,"HCEP03730560","2024-09-22 10:30:00","11.2233","3.43458","27.173","1.545","7.48","0.321","3.081","0.05","0.11","30.157","4.74084","17.05","0","SATNPRO1962","26.308","0.36852","5"],
    [34576,"HCEP03730560","2024-09-22 10:45:00","11.2252","3.43455","27.15","1.549","7.48","0.46","3.004","0.29","0.12","30.1552","4.74055","17.09","0","SATNPRO1962","26.464","0.37066","5"],
    [34577,"HCEP03730560","2024-09-22 11:00:00","11.2664","3.44126","27.067","1.667","7.49","0.444","3.69","0.17","0.2","30.1868","4.74441","18.41","0","SATNPRO1962","27.36","0.38318","5"],
    [34578,"HCEP03730560","2024-09-22 11:15:00","11.2643","3.44089","26.951","1.837","7.5","0.395","3.366","0.06","0.1","30.185","4.74419","20.29","0","SATNPRO1962","27.387999999999998","0.38362","5"],
    [34579,"HCEP03730560","2024-09-22 11:30:00","11.2662","3.4412","26.825","1.871","7.51","0.362","3.563","0.06","0.17","30.1865","4.74437","20.66","0","SATNPRO1962","27.21","0.38118","5"],
    [34580,"HCEP03730560","2024-09-22 11:45:00","11.2694","3.44169","26.63","1.902","7.51","0.399","3.556","0.06","0.26","30.1887","4.74462","21.01","0","SATNPRO1962","27.574","0.38624","5"],
    [34581,"HCEP03730560","2024-09-22 12:00:00","11.2713","3.44198","26.524","1.944","7.51","0.395","3.478","0.08","0.15","30.19","4.74477","21.48","0","SATNPRO1962","27.862","0.3903","5"],
    [34582,"HCEP03730560","2024-09-22 12:15:00","11.2721","3.4421","26.43","1.969","7.52","0.427","3.42","0.06","0.19","30.1906","4.74483","21.75","0","SATNPRO1962","27.855999999999998","0.39016","5"],
    [34583,"HCEP03730560","2024-09-22 12:30:00","11.2715","3.4421","26.345","1.967","7.52","0.415","3.474","0.09","0.16","30.1911","4.74491","21.73","0","SATNPRO1962","27.704","0.38804","5"],
    [34584,"HCEP03730560","2024-09-22 12:45:00","11.2713","3.44207","26.275","1.955","7.52","0.464","3.486","0.12","0.15","30.191","4.74489","21.6","0","SATNPRO1962","27.756","0.38876","5"],
    [34585,"HCEP03730560","2024-09-22 13:00:00","11.2714","3.44181","26.216","1.959","7.52","0.493","3.765","0.19","0.24","30.1885","4.74453","21.64","0","SATNPRO1962","27.724","0.38836","5"],
    [34586,"HCEP03730560","2024-09-22 13:15:00","11.2625","3.44035","26.169","1.939","7.52","0.461","3.403","0.11","0.12","30.1815","4.74367","21.41","0","SATNPRO1962","27.419999999999998","0.38404","5"],
    [34587,"HCEP03730560","2024-09-22 13:30:00","11.2403","3.43689","26.131","1.811","7.51","0.423","3.459","0.11","0.23","30.166","4.7418","19.99","0","SATNPRO1962","25.956","0.36356","5"],
    [34588,"HCEP03730560","2024-09-22 13:45:00","11.2415","3.43727","26.115","1.693","7.5","0.379","3.337","0.05","0.21","30.1688","4.74218","18.69","0","SATNPRO1962","26.003999999999998","0.3642","5"],
    [34589,"HCEP03730560","2024-09-22 14:00:00","11.2441","3.43766","26.154","1.674","7.5","0.385","3.334","0.07","0.18","30.1704","4.74238","18.48","0","SATNPRO1962","26.426","0.37014","5"],
    [34590,"HCEP03730560","2024-09-22 14:15:00","11.2562","3.43954","26.169","1.72","7.5","0.371","3.375","0.07","0.07","30.1788","4.74338","18.99","0","SATNPRO1962","26.722","0.37428","5"],
    [34591,"HCEP03730560","2024-09-22 14:30:00","11.2516","3.4388","26.218","1.762","7.5","0.371","3.26","0.06","0.14","30.1753","4.74295","19.46","0","SATNPRO1962","26.928","0.37718","5"],
    [34592,"HCEP03730560","2024-09-22 14:45:00","11.2515","3.43886","26.265","1.753","7.5","0.453","3.241","0.15","0.21","30.176","4.74306","19.35","0","SATNPRO1962","26.818","0.37564","5"],
    [34593,"HCEP03730560","2024-09-22 15:00:00","11.2464","3.43797","26.338","1.729","7.5","0.443","3.734","0.23","0.46","30.1714","4.7425","19.09","0","SATNPRO1962","26.558","0.37198","5"],
    [34594,"HCEP03730560","2024-09-22 15:15:00","11.2405","3.43718","26.416","1.661","7.49","0.444","3.69","0.27","1.16","30.1685","4.74217","18.33","0","SATNPRO1962","26.32","0.36866","5"],
    [34595,"HCEP03730560","2024-09-22 15:30:00","11.227","3.43517","26.509","1.568","7.49","0.321","3.331","0.04","0.19","30.16","4.74118","17.3","0","SATNPRO1962","25.432","0.35624","5"],
    [34596,"HCEP03730560","2024-09-22 15:45:00","11.2194","3.434","26.599","1.45","7.48","0.342","3.426","0.05","0.27","30.1548","4.74055","16","0","SATNPRO1962","25.233999999999998","0.35344","5"],
    [34597,"HCEP03730560","2024-09-22 16:00:00","11.2212","3.43442","26.736","1.389","7.47","0.345","3.512","0.07","0.14","30.1574","4.7409","15.33","0","SATNPRO1962","25.194","0.35288","5"],
    [34598,"HCEP03730560","2024-09-22 16:15:00","11.2296","3.43551","26.839","1.393","7.47","0.358","3.539","0.07","0.19","30.161","4.7413","15.37","0","SATNPRO1962","25.128","0.35196","5"],
    [34599,"HCEP03730560","2024-09-22 16:30:00","11.2474","3.43847","27.018","1.48","7.48","0.377","4.065","0.05","0.18","30.1753","4.74306","16.34","0","SATNPRO1962","26.073999999999998","0.36522","5"],
    [34600,"HCEP03730560","2024-09-22 16:45:00","11.2505","3.4388","27.158","1.586","7.48","0.444","3.797","0.13","0.3","30.1758","4.7431","17.51","0","SATNPRO1962","26.172","0.36656","5"],
    [34601,"HCEP03730560","2024-09-22 17:00:00","11.2465","3.4383","27.291","1.623","7.49","0.381","3.554","0.09","0.16","30.1743","4.74295","17.92","0","SATNPRO1962","25.812","0.36154","5"],
    [34602,"HCEP03730560","2024-09-22 17:15:00","11.2616","3.44045","27.39","1.666","7.49","0.412","3.855","0.05","0.2","30.1828","4.74394","18.4","0","SATNPRO1962","27.02","0.37842","5"],
    [34603,"HCEP03730560","2024-09-22 17:30:00","11.2679","3.44154","27.485","1.76","7.5","0.405","4.041","0.05","0.16","30.1881","4.7446","19.44","0","SATNPRO1962","27.206","0.38106","5"],
    [34604,"HCEP03730560","2024-09-22 17:45:00","11.2692","3.44175","27.56","1.808","7.5","0.439","3.901","0.12","0.16","30.1892","4.74473","19.97","0","SATNPRO1962","27.066","0.3791","5"],
    [34605,"HCEP03730560","2024-09-22 18:00:00","11.2693","3.4418","27.673","1.843","7.51","0.445","4.129","0.13","0.77","30.1894","4.74478","20.36","0","SATNPRO1962","27.218","0.38122","5"],
    [34606,"HCEP03730560","2024-09-22 18:15:00","11.2702","3.44194","27.755","1.859","7.51","0.419","3.872","0.11","0.19","30.1901","4.74486","20.53","0","SATNPRO1962","27.296","0.38234","5"],
    [34607,"HCEP03730560","2024-09-22 18:30:00","11.2701","3.44197","27.809","1.873","7.51","0.372","3.879","0.09","0.16","30.1904","4.74491","20.68","0","SATNPRO1962","27.36","0.38326","5"],
    [34608,"HCEP03730560","2024-09-22 18:45:00","11.2697","3.44188","27.804","1.861","7.51","0.414","3.77","0.11","0.23","30.1898","4.74483","20.56","0","SATNPRO1962","27.504","0.38522","5"],
    [34609,"HCEP03730560","2024-09-22 19:00:00","11.2695","3.44184","27.768","1.859","7.51","0.389","3.612","0.28","0.07","30.1896","4.74481","20.53","0","SATNPRO1962","27.278","0.3821","5"],
    [34610,"HCEP03730560","2024-09-22 19:15:00","11.2687","3.44176","27.703","1.85","7.51","0.371","3.746","0.08","0.29","30.1896","4.74481","20.44","0","SATNPRO1962","27.22","0.38128","5"],
    [34611,"HCEP03730560","2024-09-22 19:30:00","11.2683","3.44168","27.604","1.836","7.51","0.383","3.827","0.15","0.19","30.1892","4.74476","20.28","0","SATNPRO1962","27.158","0.3804","5"],
    [34612,"HCEP03730560","2024-09-22 19:45:00","11.2643","3.44105","27.572","1.819","7.51","0.344","3.6","0.07","0.12","30.1863","4.7444","20.09","0","SATNPRO1962","26.968","0.37774","5"],
    [34613,"HCEP03730560","2024-09-22 20:00:00","11.2648","3.44116","27.518","1.797","7.51","0.297","3.823","0.04","0.22","30.187","4.74449","19.85","0","SATNPRO1962","26.828","0.3758","5"],
    [34614,"HCEP03730560","2024-09-22 20:15:00","11.2604","3.44047","27.462","1.771","7.5","0.316","3.583","0.04","0.2","30.1839","4.74411","19.56","0","SATNPRO1962","26.646","0.37324","5"],
    [34615,"HCEP03730560","2024-09-22 20:30:00","11.2552","3.43972","27.388","1.729","7.5","0.317","3.769","0.05","0.14","30.1809","4.74376","19.09","0","SATNPRO1962","26.514","0.37138","5"],
    [34616,"HCEP03730560","2024-09-22 20:45:00","11.2539","3.43956","27.279","1.686","7.5","0.322","3.678","0.05","0.12","30.1804","4.74371","18.62","0","SATNPRO1962","26.32","0.36864","5"],
    [34617,"HCEP03730560","2024-09-22 21:00:00","11.2483","3.43865","27.145","1.646","7.49","0.315","3.659","0.11","0.15","30.1762","4.74318","18.17","0","SATNPRO1962","26.236","0.36752","5"],
    [34618,"HCEP03730560","2024-09-22 21:15:00","11.2497","3.43896","27.007","1.61","7.49","0.324","3.931","0.04","0.28","30.1781","4.74343","17.78","0","SATNPRO1962","25.996","0.36414","5"],
    [34619,"HCEP03730560","2024-09-22 21:30:00","11.2451","3.43832","26.85","1.574","7.49","0.28","3.56","0.03","0.11","30.1757","4.74315","17.37","0","SATNPRO1962","25.824","0.36168","5"],
    [34620,"HCEP03730560","2024-09-22 21:45:00","11.2419","3.43787","26.68","1.53","7.48","0.326","3.792","0.05","0.13","30.174","4.74295","16.89","0","SATNPRO1962","25.312","0.35454","5"],
    [34621,"HCEP03730560","2024-09-22 22:00:00","11.2352","3.43687","26.502","1.482","7.48","0.295","3.793","0.02","0.24","30.1699","4.74245","16.36","0","SATNPRO1962","25.066","0.3511","5"],
    [34622,"HCEP03730560","2024-09-22 22:15:00","11.2238","3.43524","26.305","1.402","7.47","0.321","3.55","0.05","0.18","30.1634","4.74169","15.47","0","SATNPRO1962","24.63","0.34496","5"],
    [34623,"HCEP03730560","2024-09-22 22:30:00","11.2184","3.43442","26.104","1.311","7.46","0.319","3.803","0.06","0.25","30.1599","4.74127","14.46","0","SATNPRO1962","24.07","0.33712","5"],
    [34624,"HCEP03730560","2024-09-22 22:45:00","11.2123","3.4333","25.882","1.247","7.46","0.403","3.821","0.19","0.26","30.1541","4.74052","13.75","0","SATNPRO1962","24.17","0.3385","5"],
    [34625,"HCEP03730560","2024-09-22 23:00:00","11.2076","3.43243","25.664","1.202","7.45","0.301","3.341","0.05","0.13","30.1496","4.73994","13.26","0","SATNPRO1962","24.878","0.34848","5"],
    [34626,"HCEP03730560","2024-09-22 23:15:00","11.2052","3.43228","25.447","1.152","7.45","0.316","3.487","0.05","0.07","30.1501","4.74003","12.7","0","SATNPRO1962","24.396","0.34174","5"],
    [34627,"HCEP03730560","2024-09-22 23:30:00","11.2036","3.43187","25.243","1.121","7.45","0.3","3.509","0.05","0.11","30.1476","4.73969","12.37","0","SATNPRO1962","23.8","0.33338","5"],
    [34628,"HCEP03730560","2024-09-22 23:45:00","11.2045","3.43166","25.032","1.144","7.45","0.292","3.218","0.03","0.17","30.1448","4.73927","12.62","0","SATNPRO1962","24.39","0.34164","5"],
    [34629,"HCEP03730560","2024-09-23 00:00:00","11.2011","3.43118","24.819","1.176","7.45","0.263","3.184","0.03","0.11","30.1429","4.73904","12.96","0","SATNPRO1962","23.962","0.33562","5"],
    [34630,"HCEP03730560","2024-09-23 00:15:00","11.2013","3.43143","24.626","1.157","7.44","0.331","3.431","0.08","0.13","30.1454","4.73938","12.75","0","SATNPRO1962","24.38","0.34152","5"],
    [34631,"HCEP03730560","2024-09-23 00:30:00","11.2043","3.43183","24.441","1.137","7.44","0.308","3.543","0.07","0.07","30.1469","4.73954","12.53","0","SATNPRO1962","24.214000000000002","0.33918","5"],
    [34632,"HCEP03730560","2024-09-23 00:45:00","11.2047","3.43223","24.275","1.13","7.44","0.321","3.701","0.06","0.14","30.1505","4.74003","12.46","0","SATNPRO1962","23.768","0.3329","5"],
    [34633,"HCEP03730560","2024-09-23 01:00:00","11.2112","3.43316","24.131","1.123","7.44","0.296","3.876","0.05","0.13","30.1543","4.74046","12.38","0","SATNPRO1962","24.806","0.34746","5"],
    [34634,"HCEP03730560","2024-09-23 01:15:00","11.2196","3.43404","24.019","1.189","7.45","0.299","3.935","0.03","0.77","30.156","4.74058","13.12","0","SATNPRO1962","24.912","0.34896","5"],
    [34635,"HCEP03730560","2024-09-23 01:30:00","11.2209","3.43443","23.946","1.245","7.45","0.299","3.732","0.05","0.16","30.1588","4.74096","13.73","0","SATNPRO1962","24.342000000000002","0.34096","5"],
    [34636,"HCEP03730560","2024-09-23 01:45:00","11.2202","3.43452","23.905","1.261","7.45","0.355","3.771","0.15","0.12","30.1603","4.74117","13.91","0","SATNPRO1962","24.33","0.3408","5"],
    [34637,"HCEP03730560","2024-09-23 02:00:00","11.2206","3.43466","23.891","1.236","7.45","0.288","4.091","0.02","0.16","30.1613","4.7413","13.64","0","SATNPRO1962","24.18","0.33868","5"],
    [34638,"HCEP03730560","2024-09-23 02:15:00","11.2219","3.43493","23.883","1.212","7.45","0.327","3.955","0.03","0.08","30.1628","4.7415","13.37","0","SATNPRO1962","23.924","0.33506","5"],
    [34639,"HCEP03730560","2024-09-23 02:30:00","11.2265","3.43541","23.893","1.218","7.45","0.339","4.043","0.07","0.15","30.1638","4.74157","13.44","0","SATNPRO1962","23.882","0.33452","5"],
    [34640,"HCEP03730560","2024-09-23 02:45:00","11.2251","3.43525","23.944","1.242","7.45","0.359","3.906","0.12","0.13","30.1633","4.74153","13.7","0","SATNPRO1962","24.586","0.34436","5"],
    [34641,"HCEP03730560","2024-09-23 03:00:00","11.2236","3.43502","24.018","1.237","7.45","0.29","3.974","0.04","0.14","30.1623","4.74141","13.65","0","SATNPRO1962","24.644","0.3452","5"],
    [34642,"HCEP03730560","2024-09-23 03:15:00","11.2236","3.4349","24.108","1.23","7.45","0.39","4.267","0.1","0.45","30.1611","4.74124","13.57","0","SATNPRO1962","24.36","0.34122","5"],
    [34643,"HCEP03730560","2024-09-23 03:30:00","11.2231","3.43495","24.22","1.207","7.45","0.331","4.003","0.06","0.14","30.162","4.74138","13.31","0","SATNPRO1962","23.856","0.33412","5"],
    [34644,"HCEP03730560","2024-09-23 03:45:00","11.2298","3.43584","24.351","1.183","7.45","0.386","4.277","0.07","0.13","30.1651","4.74173","13.06","0","SATNPRO1962","23.66","0.3314","5"],
    [34645,"HCEP03730560","2024-09-23 04:00:00","11.254","3.43918","24.503","1.295","7.46","0.386","3.948","0.23","0.27","30.1777","4.74317","14.29","0","SATNPRO1962","26.092","0.36548","5"],
    [34646,"HCEP03730560","2024-09-23 04:15:00","11.2639","3.44027","24.684","1.559","7.48","0.365","3.831","0.05","0.14","30.1802","4.74338","17.22","0","SATNPRO1962","26.964","0.37762","5"],
    [34647,"HCEP03730560","2024-09-23 04:30:00","11.2699","3.44082","24.865","1.7","7.49","0.42","3.791","0.27","0.25","30.1806","4.74335","18.78","0","SATNPRO1962","26.768","0.37492","5"],
    [34648,"HCEP03730560","2024-09-23 04:45:00","11.2665","3.44055","25.033","1.769","7.49","0.397","3.895","0.1","0.2","30.1807","4.74343","19.53","0","SATNPRO1962","26.76","0.3748","5"],
    [34649,"HCEP03730560","2024-09-23 05:00:00","11.2646","3.44033","25.208","1.748","7.49","0.344","3.849","0.08","0.13","30.1801","4.74338","19.31","0","SATNPRO1962","26.522000000000002","0.37146","5"],
    [34650,"HCEP03730560","2024-09-23 05:15:00","11.2597","3.43974","25.39","1.694","7.49","0.395","4.275","0.14","0.17","30.1781","4.74319","18.7","0","SATNPRO1962","25.954","0.36354","5"],
    [34651,"HCEP03730560","2024-09-23 05:30:00","11.2512","3.43869","25.673","1.584","7.48","0.358","4.583","0.05","0.13","30.1749","4.74287","17.49","0","SATNPRO1962","25.13","0.352","5"],
    [34652,"HCEP03730560","2024-09-23 05:45:00","11.2543","3.43924","25.869","1.512","7.48","0.365","4.396","0.04","0.15","30.1775","4.74321","16.7","0","SATNPRO1962","25.912","0.36296","5"],
    [34653,"HCEP03730560","2024-09-23 06:00:00","11.2544","3.43925","25.901","1.551","7.48","0.418","4.393","0.21","0.18","30.1776","4.74322","17.12","0","SATNPRO1962","25.718","0.3602","5"],
    [34654,"HCEP03730560","2024-09-23 06:15:00","11.2464","3.43804","26.116","1.529","7.48","0.39","4.546","0.06","0.76","30.1722","4.7426","16.88","0","SATNPRO1962","25.01","0.35028","5"],
    [34655,"HCEP03730560","2024-09-23 06:30:00","11.2419","3.43743","26.306","1.448","7.47","0.339","4.088","0.1","0.21","30.1699","4.74234","15.98","0","SATNPRO1962","24.99","0.35","5"],
    [34656,"HCEP03730560","2024-09-23 06:45:00","11.236","3.43664","26.495","1.377","7.47","0.361","4.7","0.03","0.76","30.1669","4.74202","15.2","0","SATNPRO1962","24.538","0.34368","5"],
    [34657,"HCEP03730560","2024-09-23 07:00:00","11.234","3.43634","26.667","1.311","7.46","0.402","4.767","0.09","0.26","30.1656","4.74187","14.46","0","SATNPRO1962","23.876","0.33446","5"],
    [34658,"HCEP03730560","2024-09-23 07:15:00","11.2406","3.43723","26.808","1.302","7.46","0.372","4.18","0.05","0.34","30.1689","4.74224","14.37","0","SATNPRO1962","24.554","0.3439","5"],
    [34659,"HCEP03730560","2024-09-23 07:30:00","11.2516","3.43869","26.977","1.391","7.47","0.386","4.548","0.07","0.31","30.1739","4.7428","15.35","0","SATNPRO1962","25.704","0.36006","5"],
    [34660,"HCEP03730560","2024-09-23 07:45:00","11.2601","3.43972","27.079","1.527","7.48","0.411","4.038","0.12","0.22","30.1771","4.74313","16.86","0","SATNPRO1962","26.294","0.36828","5"],
    [34661,"HCEP03730560","2024-09-23 08:00:00","11.2637","3.44016","27.167","1.636","7.48","0.346","3.622","0.05","0.17","30.1782","4.74325","18.07","0","SATNPRO1962","26.832","0.37584","5"],
    [34662,"HCEP03730560","2024-09-23 08:15:00","11.2646","3.44026","27.254","1.695","7.49","0.398","3.881","0.04","0.22","30.1785","4.74327","18.71","0","SATNPRO1962","26.78","0.3751","5"],
    [34663,"HCEP03730560","2024-09-23 08:30:00","11.2728","3.44071","27.313","1.773","7.5","0.337","3.13","0.06","0.13","30.1762","4.74282","19.59","0","SATNPRO1962","27.782","0.38918","5"],
    [34664,"HCEP03730560","2024-09-23 08:45:00","11.2737","3.4409","27.357","1.88","7.5","0.381","3.246","0.05","0.13","30.1772","4.74296","20.76","0","SATNPRO1962","27.36","0.38324","5"],
    [34665,"HCEP03730560","2024-09-23 09:00:00","11.27","3.44075","27.377","1.862","7.5","0.372","3.704","0.04","0.2","30.1788","4.74325","20.57","0","SATNPRO1962","27.138","0.38014","5"],
    [34666,"HCEP03730560","2024-09-23 09:15:00","11.2696","3.4408","27.395","1.807","7.5","0.408","3.732","0.07","0.16","30.1796","4.74337","19.96","0","SATNPRO1962","27.092000000000002","0.37946","5"],
    [34667,"HCEP03730560","2024-09-23 09:30:00","11.2696","3.44084","27.395","1.784","7.5","0.365","3.586","0.04","0.13","30.18","4.74343","19.7","0","SATNPRO1962","27.056","0.37896","5"],
    [34668,"HCEP03730560","2024-09-23 09:45:00","11.2711","3.4409","27.397","1.795","7.5","0.4","3.562","0.05","0.19","30.1793","4.7433","19.82","0","SATNPRO1962","27.306","0.38246","5"],
    [34669,"HCEP03730560","2024-09-23 10:00:00","11.27","3.44081","27.38","1.815","7.5","0.37","3.412","0.05","0.09","30.1794","4.74333","20.05","0","SATNPRO1962","27.105999999999998","0.37966","5"],
    [34670,"HCEP03730560","2024-09-23 10:15:00","11.2703","3.44085","27.384","1.789","7.5","0.41","3.65","0.08","0.15","30.1796","4.74335","19.76","0","SATNPRO1962","26.983999999999998","0.37796","5"],
    [34671,"HCEP03730560","2024-09-23 10:30:00","11.2718","3.4409","27.365","1.802","7.5","0.369","3.268","0.06","0.5","30.1787","4.74321","19.9","0","SATNPRO1962","27.342","0.38296","5"],
    [34672,"HCEP03730560","2024-09-23 10:45:00","11.2744","3.4409","27.311","1.872","7.51","0.366","3","0.05","0.09","30.1767","4.74288","20.67","0","SATNPRO1962","28.562","0.40014","5"],
    [34673,"HCEP03730560","2024-09-23 11:00:00","11.2724","3.44069","27.262","1.923","7.51","0.369","3.047","0.1","0.08","30.1763","4.74285","21.24","0","SATNPRO1962","27.848","0.39004","5"],
    [34674,"HCEP03730560","2024-09-23 11:15:00","11.2705","3.44052","27.239","1.886","7.51","0.382","3.161","0.06","0.11","30.1762","4.74286","20.83","0","SATNPRO1962","27.62","0.38686","5"],
    [34675,"HCEP03730560","2024-09-23 11:30:00","11.269","3.44022","27.202","1.859","7.51","0.351","3.071","0.05","0.09","30.1745","4.74265","20.53","0","SATNPRO1962","27.244","0.38158","5"],
    [34676,"HCEP03730560","2024-09-23 11:45:00","11.2651","3.44005","27.133","1.816","7.51","0.379","3.314","0.05","0.1","30.1762","4.74293","20.05","0","SATNPRO1962","26.882","0.37652","5"],
    [34677,"HCEP03730560","2024-09-23 12:00:00","11.2648","3.44016","27.063","1.726","7.5","0.373","3.567","0.04","0.15","30.1775","4.74312","19.06","0","SATNPRO1962","26.514","0.37134","5"],
    [34678,"HCEP03730560","2024-09-23 12:15:00","11.2655","3.44044","27","1.684","7.5","0.405","3.618","0.05","0.11","30.1797","4.74341","18.59","0","SATNPRO1962","26.442","0.37036","5"],
    [34679,"HCEP03730560","2024-09-23 12:30:00","11.2564","3.43946","26.918","1.646","7.49","0.392","3.888","0.07","0.18","30.1775","4.74324","18.17","0","SATNPRO1962","26.3","0.36838","5"],
    [34680,"HCEP03730560","2024-09-23 12:45:00","11.2662","3.43939","26.873","1.647","7.49","0.43","3.647","0.08","0.14","30.1688","4.74186","18.18","0","SATNPRO1962","26.702","0.374","5"],
    [34681,"HCEP03730560","2024-09-23 13:00:00","11.2692","3.44107","26.845","1.699","7.5","0.396","3.747","0.06","0.08","30.1827","4.74378","18.76","0","SATNPRO1962","26.756","0.37474","5"],
    [34682,"HCEP03730560","2024-09-23 13:15:00","11.2721","3.44158","26.749","1.715","7.5","0.422","3.913","0.04","0.22","30.1854","4.74411","18.94","0","SATNPRO1962","26.965999999999998","0.37768","5"],
    [34683,"HCEP03730560","2024-09-23 13:30:00","11.2707","3.44141","26.681","1.708","7.5","0.449","3.854","0.09","0.08","30.1849","4.74406","18.87","0","SATNPRO1962","26.564","0.37208","5"],
    [34684,"HCEP03730560","2024-09-23 13:45:00","11.2672","3.44104","26.589","1.665","7.5","0.397","3.888","0.03","0.13","30.1842","4.74401","18.38","0","SATNPRO1962","26.294","0.36828","5"],
    [34685,"HCEP03730560","2024-09-23 14:00:00","11.2659","3.4409","26.542","1.626","7.49","0.457","3.993","0.2","0.28","30.1839","4.74398","17.96","0","SATNPRO1962","26.228","0.36738","5"],
    [34686,"HCEP03730560","2024-09-23 14:15:00","11.261","3.44022","26.484","1.593","7.49","0.476","3.713","0.27","0.15","30.1814","4.7437","17.6","0","SATNPRO1962","25.886","0.36258","5"],
    [34687,"HCEP03730560","2024-09-23 14:30:00","11.2558","3.43949","26.429","1.54","7.49","0.37","3.639","0.07","0.17","30.1785","4.74336","17.01","0","SATNPRO1962","25.764","0.36084","5"],
    [34688,"HCEP03730560","2024-09-23 14:45:00","11.2526","3.43892","26.427","1.506","7.48","0.422","3.736","0.16","0.14","30.1756","4.74299","16.63","0","SATNPRO1962","25.71","0.36014","5"],
    [34689,"HCEP03730560","2024-09-23 15:00:00","11.2494","3.43841","26.432","1.475","7.48","0.343","3.683","0.03","0.22","30.1733","4.74272","16.28","0","SATNPRO1962","25.581999999999997","0.35832","5"],
    [34690,"HCEP03730560","2024-09-23 15:15:00","11.2459","3.43787","26.445","1.443","7.48","0.432","3.743","0.13","0.38","30.1708","4.74242","15.92","0","SATNPRO1962","25.386","0.35558","5"],
    [34691,"HCEP03730560","2024-09-23 15:30:00","11.2415","3.43714","26.47","1.4","7.47","0.361","3.633","0.06","0.17","30.1673","4.74199","15.45","0","SATNPRO1962","25.38","0.3555","5"],
    [34692,"HCEP03730560","2024-09-23 15:45:00","11.2351","3.43588","26.512","1.364","7.47","0.366","3.577","0.06","0.23","30.1603","4.74109","15.05","0","SATNPRO1962","25.266","0.35388","5"],
    [34693,"HCEP03730560","2024-09-23 16:00:00","11.2337","3.43578","26.556","1.33","7.47","0.33","3.557","0.04","0.18","30.1604","4.74113","14.68","0","SATNPRO1962","24.948","0.34944","5"],
    [34694,"HCEP03730560","2024-09-23 16:15:00","11.2301","3.43517","26.759","1.308","7.46","0.353","3.525","0.04","0.19","30.1574","4.74077","14.43","0","SATNPRO1962","25.1","0.35156","5"],
    [34695,"HCEP03730560","2024-09-23 16:30:00","11.2288","3.43488","26.782","1.284","7.46","0.323","3.325","0.08","0.13","30.1556","4.74054","14.16","0","SATNPRO1962","25.006","0.35026","5"],
    [34696,"HCEP03730560","2024-09-23 16:45:00","11.2317","3.43559","26.862","1.274","7.46","0.332","3.364","0.05","0.35","30.1601","4.74114","14.06","0","SATNPRO1962","24.968","0.3497","5"],
    [34697,"HCEP03730560","2024-09-23 17:00:00","11.2315","3.43539","26.967","1.279","7.46","0.304","3.414","0.04","0.27","30.1582","4.74088","14.11","0","SATNPRO1962","24.913999999999998","0.34896","5"],
    [34698,"HCEP03730560","2024-09-23 17:15:00","11.2323","3.43555","27.025","1.278","7.46","0.355","3.339","0.1","0.1","30.1592","4.74101","14.11","0","SATNPRO1962","24.962","0.34962","5"],
    [34699,"HCEP03730560","2024-09-23 17:30:00","11.2329","3.43575","27.103","1.267","7.46","0.339","3.575","0.06","0.14","30.1605","4.74119","13.98","0","SATNPRO1962","24.934","0.3492","5"],
    [34700,"HCEP03730560","2024-09-23 17:45:00","11.2328","3.4357","27.164","1.255","7.46","0.447","3.898","0.39","0.17","30.1601","4.74114","13.84","0","SATNPRO1962","24.644000000000002","0.3452","5"],
    [34701,"HCEP03730560","2024-09-23 18:00:00","11.2337","3.43603","27.231","1.241","7.46","0.355","4.095","0.07","0.38","30.1626","4.74148","13.7","0","SATNPRO1962","24.364","0.34124","5"],
    [34702,"HCEP03730560","2024-09-23 18:15:00","11.2329","3.43582","27.294","1.208","7.45","0.373","3.988","0.05","0.13","30.1613","4.74131","13.33","0","SATNPRO1962","24.156","0.33836","5"],
    [34703,"HCEP03730560","2024-09-23 18:30:00","11.232","3.43571","27.338","1.198","7.45","0.344","4.079","0.04","0.11","30.1609","4.74127","13.22","0","SATNPRO1962","24.172","0.33854","5"],
    [34704,"HCEP03730560","2024-09-23 18:45:00","11.2312","3.4356","27.384","1.182","7.45","0.364","3.931","0.08","0.18","30.1605","4.74122","13.04","0","SATNPRO1962","23.986","0.33598","5"],
    [34705,"HCEP03730560","2024-09-23 19:00:00","11.2322","3.43576","27.414","1.173","7.45","0.394","4.137","0.18","0.15","30.1611","4.74131","12.94","0","SATNPRO1962","24.204","0.33898","5"],
    [34706,"HCEP03730560","2024-09-23 19:15:00","11.2335","3.43592","27.437","1.173","7.45","0.354","4.193","0.04","0.85","30.1617","4.74137","12.95","0","SATNPRO1962","24.18","0.3387","5"],
    [34707,"HCEP03730560","2024-09-23 19:30:00","11.2356","3.43625","27.455","1.184","7.45","0.304","3.834","0.03","0.1","30.1631","4.74153","13.06","0","SATNPRO1962","24.352","0.34112","5"],
    [34708,"HCEP03730560","2024-09-23 19:45:00","11.2383","3.43667","27.473","1.206","7.45","0.331","3.826","0.05","0.13","30.165","4.74176","13.31","0","SATNPRO1962","24.44","0.34234","5"],
    [34709,"HCEP03730560","2024-09-23 20:00:00","11.2405","3.43703","27.48","1.232","7.45","0.298","3.704","0.04","0.12","30.1666","4.74196","13.6","0","SATNPRO1962","24.538","0.3437","5"],
    [34710,"HCEP03730560","2024-09-23 20:15:00","11.2425","3.43736","27.479","1.259","7.46","0.318","3.589","0.03","0.07","30.1682","4.74216","13.9","0","SATNPRO1962","24.766","0.34688","5"],
    [34711,"HCEP03730560","2024-09-23 20:30:00","11.2453","3.43776","27.458","1.284","7.46","0.29","3.654","0.03","0.08","30.1698","4.74235","14.17","0","SATNPRO1962","24.88","0.3485","5"],
    [34712,"HCEP03730560","2024-09-23 20:45:00","11.2455","3.43772","27.375","1.306","7.46","0.317","3.633","0.03","0.11","30.1694","4.74228","14.41","0","SATNPRO1962","25.012","0.35036","5"],
    [34713,"HCEP03730560","2024-09-23 21:00:00","11.2482","3.43809","27.268","1.33","7.46","0.304","3.671","0.07","0.08","30.1709","4.74244","14.68","0","SATNPRO1962","25.096","0.35152","5"],
    [34714,"HCEP03730560","2024-09-23 21:15:00","11.2492","3.43822","27.164","1.355","7.46","0.311","3.356","0.04","0.04","30.1713","4.74248","14.95","0","SATNPRO1962","25.39","0.3556","5"],
    [34715,"HCEP03730560","2024-09-23 21:30:00","11.2544","3.43912","27.086","1.379","7.47","0.291","4.048","0.04","0.52","30.1758","4.74303","15.23","0","SATNPRO1962","25.466","0.35666","5"],
    [34716,"HCEP03730560","2024-09-23 21:45:00","11.2587","3.43966","26.993","1.404","7.47","0.312","3.935","0.04","0.1","30.1776","4.74322","15.5","0","SATNPRO1962","25.5","0.35712","5"],
    [34717,"HCEP03730560","2024-09-23 22:00:00","11.2606","3.43997","26.878","1.432","7.47","0.298","3.9","0.06","0.14","30.1792","4.74341","15.81","0","SATNPRO1962","25.39","0.35564","5"],
    [34718,"HCEP03730560","2024-09-23 22:15:00","11.2629","3.44025","26.743","1.455","7.47","0.361","4.009","0.23","0.12","30.1801","4.74349","16.07","0","SATNPRO1962","25.182","0.35272","5"],
    [34719,"HCEP03730560","2024-09-23 22:30:00","11.2637","3.44034","26.59","1.477","7.48","0.278","3.74","0.04","0.11","30.1803","4.74351","16.31","0","SATNPRO1962","25.772","0.36096","5"],
    [34720,"HCEP03730560","2024-09-23 22:45:00","11.2638","3.44035","26.425","1.484","7.48","0.328","4.134","0.03","0.12","30.1803","4.7435","16.39","0","SATNPRO1962","25.9","0.3628","5"],
    [34721,"HCEP03730560","2024-09-23 23:00:00","11.2641","3.44034","26.258","1.489","7.48","0.275","3.935","0.03","0.22","30.1801","4.74345","16.44","0","SATNPRO1962","25.938","0.3633","5"],
    [34722,"HCEP03730560","2024-09-23 23:15:00","11.2637","3.44026","26.079","1.499","7.48","0.313","3.944","0.03","0.14","30.1797","4.74339","16.55","0","SATNPRO1962","26.076","0.36524","5"],
    [34723,"HCEP03730560","2024-09-23 23:30:00","11.2659","3.4403","25.892","1.543","7.48","0.289","3.412","0.06","0.12","30.1784","4.74316","17.05","0","SATNPRO1962","26.502","0.37122","5"],
    [34724,"HCEP03730560","2024-09-23 23:45:00","11.2655","3.44025","25.707","1.585","7.48","0.317","3.519","0.08","0.09","30.1782","4.74314","17.51","0","SATNPRO1962","26.408","0.36992","5"],
    [34725,"HCEP03730560","2024-09-24 00:00:00","11.266","3.44024","25.507","1.598","7.49","0.27","3.321","0.08","0.08","30.1779","4.74307","17.65","0","SATNPRO1962","26.278","0.36808","5"],
    [34726,"HCEP03730560","2024-09-24 00:15:00","11.2665","3.44016","25.31","1.624","7.49","0.264","3.226","0.04","0.09","30.1768","4.74289","17.93","0","SATNPRO1962","26.698","0.37396","5"],
    [34727,"HCEP03730560","2024-09-24 00:30:00","11.2657","3.44005","25.126","1.641","7.49","0.248","3.348","0.04","0.24","30.1764","4.74284","18.12","0","SATNPRO1962","26.692","0.3739","5"],
    [34728,"HCEP03730560","2024-09-24 00:45:00","11.2659","3.43997","24.94","1.641","7.49","0.234","2.91","0.01","0.09","30.1755","4.7427","18.12","0","SATNPRO1962","26.652","0.37328","5"],
    [34729,"HCEP03730560","2024-09-24 01:00:00","11.2658","3.44001","24.772","1.629","7.49","0.283","3.194","0.06","0.11","30.176","4.74277","17.99","0","SATNPRO1962","26.594","0.37248","5"],
    [34730,"HCEP03730560","2024-09-24 01:15:00","11.265","3.43996","24.619","1.605","7.49","0.469","3.674","0.5","0.23","30.1763","4.74281","17.72","0","SATNPRO1962","26.244","0.36758","5"],
    [34731,"HCEP03730560","2024-09-24 01:30:00","11.2625","3.4398","24.473","1.582","7.48","0.322","3.858","0.12","0.39","30.1768","4.74291","17.47","0","SATNPRO1962","25.836000000000002","0.36188","5"],
    [34732,"HCEP03730560","2024-09-24 01:45:00","11.2621","3.4397","24.347","1.547","7.48","0.296","3.561","0.04","0.16","30.1763","4.74284","17.09","0","SATNPRO1962","26.144","0.36622","5"],
    [34733,"HCEP03730560","2024-09-24 02:00:00","11.2617","3.43959","24.24","1.54","7.48","0.264","3.516","0.03","0.11","30.1756","4.74274","17","0","SATNPRO1962","25.924","0.36312","5"],
    [34734,"HCEP03730560","2024-09-24 02:15:00","11.2617","3.43953","24.152","1.548","7.48","0.283","3.429","0.03","0.11","30.1749","4.74264","17.09","0","SATNPRO1962","26.132","0.366","5"],
    [34735,"HCEP03730560","2024-09-24 02:30:00","11.2602","3.4393","24.098","1.542","7.48","0.256","3.477","0.03","0.09","30.174","4.74252","17.03","0","SATNPRO1962","26.156","0.36636","5"],
    [34736,"HCEP03730560","2024-09-24 02:45:00","11.2585","3.43903","24.061","1.524","7.48","0.361","3.742","0.1","0.12","30.1727","4.74237","16.83","0","SATNPRO1962","25.688","0.3598","5"],
    [34737,"HCEP03730560","2024-09-24 03:00:00","11.2573","3.43898","24.045","1.492","7.48","0.424","3.948","0.49","0.36","30.1733","4.74247","16.48","0","SATNPRO1962","25.93","0.36318","5"],
    [34738,"HCEP03730560","2024-09-24 03:15:00","11.256","3.4387","24.053","1.473","7.48","0.362","3.428","0.27","0.1","30.1716","4.74224","16.26","0","SATNPRO1962","26.048","0.36484","5"],
    [34739,"HCEP03730560","2024-09-24 03:30:00","11.2593","3.43915","24.091","1.485","7.48","0.276","3.807","0.02","0.12","30.1734","4.74245","16.39","0","SATNPRO1962","25.622","0.35888","5"],
    [34740,"HCEP03730560","2024-09-24 03:45:00","11.2589","3.43928","24.168","1.461","7.48","0.389","4.248","0.16","0.19","30.1748","4.74267","16.13","0","SATNPRO1962","25.078","0.35126","5"],
    [34741,"HCEP03730560","2024-09-24 04:00:00","11.2598","3.43947","24.216","1.428","7.47","0.354","4.275","0.13","0.22","30.1759","4.74281","15.76","0","SATNPRO1962","25.208000000000002","0.35308","5"],
    [34742,"HCEP03730560","2024-09-24 04:15:00","11.2634","3.43992","24.298","1.435","7.47","0.341","4.315","0.04","0.16","30.1774","4.74297","15.85","0","SATNPRO1962","25.428","0.35616","5"],
    [34743,"HCEP03730560","2024-09-24 04:30:00","11.2656","3.44036","24.39","1.446","7.47","0.381","4.245","0.13","0.19","30.1797","4.74328","15.97","0","SATNPRO1962","25.714","0.36014","5"],
    [34744,"HCEP03730560","2024-09-24 04:45:00","11.2688","3.44084","24.513","1.468","7.48","0.363","4.442","0.08","0.14","30.1818","4.74353","16.22","0","SATNPRO1962","25.5","0.3572","5"],
    [34745,"HCEP03730560","2024-09-24 05:00:00","11.269","3.44088","24.662","1.487","7.48","0.333","4.446","0.05","0.21","30.182","4.74357","16.43","0","SATNPRO1962","25.726","0.36032","5"],
    [34746,"HCEP03730560","2024-09-24 05:15:00","11.2695","3.44078","24.806","1.493","7.48","0.357","4.076","0.07","0.12","30.1806","4.74336","16.49","0","SATNPRO1962","26.028","0.36456","5"],
    [34747,"HCEP03730560","2024-09-24 05:30:00","11.2694","3.44093","24.956","1.503","7.48","0.35","4.357","0.07","0.1","30.182","4.74357","16.6","0","SATNPRO1962","25.490000000000002","0.35706","5"],
    [34748,"HCEP03730560","2024-09-24 05:45:00","11.2691","3.44102","25.104","1.494","7.48","0.383","4.641","0.08","0.16","30.1831","4.74374","16.5","0","SATNPRO1962","25.458000000000002","0.35656","5"],
    [34749,"HCEP03730560","2024-09-24 06:00:00","11.2699","3.44103","25.251","1.485","7.48","0.404","4.668","0.18","0.2","30.1825","4.74365","16.41","0","SATNPRO1962","25.658","0.35934","5"],
    [34750,"HCEP03730560","2024-09-24 06:15:00","11.2745","3.44119","25.412","1.526","7.48","0.342","4.323","0.04","0.26","30.1802","4.74327","16.85","0","SATNPRO1962","26.496","0.37114","5"],
    [34751,"HCEP03730560","2024-09-24 06:30:00","11.2745","3.44115","25.491","1.638","7.49","0.359","4.365","0.07","1.12","30.1797","4.74321","18.09","0","SATNPRO1962","26.408","0.3699","5"],
    [34752,"HCEP03730560","2024-09-24 06:45:00","11.2731","3.44102","25.673","1.656","7.49","0.36","3.964","0.07","0.34","30.1796","4.74322","18.29","0","SATNPRO1962","26.782","0.37516","5"],
    [34753,"HCEP03730560","2024-09-24 07:00:00","11.2728","3.44091","25.912","1.645","7.49","0.327","3.832","0.08","0.22","30.1786","4.74309","18.17","0","SATNPRO1962","26.61","0.3727","5"],
    [34754,"HCEP03730560","2024-09-24 07:15:00","11.2727","3.44041","26.169","1.663","7.49","0.288","3.513","0.02","0.07","30.1737","4.74242","18.36","0","SATNPRO1962","27.119999999999997","0.37984","5"],
    [34755,"HCEP03730560","2024-09-24 07:30:00","11.2684","3.4404","26.345","1.683","7.49","0.307","3.814","0.06","0.21","30.1771","4.74298","18.58","0","SATNPRO1962","26.698","0.37398","5"],
    [34756,"HCEP03730560","2024-09-24 07:45:00","11.2689","3.44027","26.519","1.608","7.49","0.329","3.782","0.03","0.16","30.1754","4.74273","17.76","0","SATNPRO1962","25.483999999999998","0.35692","5"],
    [34757,"HCEP03730560","2024-09-24 08:00:00","11.2612","3.43935","26.674","1.555","7.48","0.298","3.953","0.06","1.3","30.1726","4.74246","17.17","0","SATNPRO1962","25.828","0.36178","5"],
    [34758,"HCEP03730560","2024-09-24 08:15:00","11.2622","3.43942","26.869","1.518","7.48","0.332","3.793","0.06","0.22","30.1724","4.74242","16.76","0","SATNPRO1962","25.81","0.36152","5"],
    [34759,"HCEP03730560","2024-09-24 08:30:00","11.2594","3.43928","26.972","1.469","7.48","0.332","4.23","0.04","0.28","30.1734","4.74261","16.22","0","SATNPRO1962","25.396","0.35574","5"],
    [34760,"HCEP03730560","2024-09-24 08:45:00","11.2614","3.43957","26.919","1.432","7.48","0.389","5.217","0.05","0.52","30.1745","4.74274","15.82","0","SATNPRO1962","25.572","0.35818","5"],
    [34761,"HCEP03730560","2024-09-24 09:00:00","11.2677","3.44038","27.04","1.472","7.48","0.309","3.76","0.03","0.11","30.1772","4.74304","16.26","0","SATNPRO1962","26.16","0.36642","5"],
    [34762,"HCEP03730560","2024-09-24 09:15:00","11.2716","3.44088","27.157","1.545","7.48","0.334","3.656","0.03","0.1","30.1788","4.74321","17.07","0","SATNPRO1962","26.272000000000002","0.36798","5"],
    [34763,"HCEP03730560","2024-09-24 09:30:00","11.2875","3.44243","27.204","1.62","7.49","0.319","3.153","0.05","0.08","30.1809","4.74327","17.9","0","SATNPRO1962","27.034","0.37866","5"],
    [34764,"HCEP03730560","2024-09-24 09:45:00","11.2849","3.4425","27.301","1.666","7.49","0.372","3.496","0.07","0.18","30.1837","4.74371","18.4","0","SATNPRO1962","26.47","0.3708","5"],
    [34765,"HCEP03730560","2024-09-24 10:00:00","11.2881","3.4429","27.36","1.669","7.49","0.34","3.431","0.09","0.1","30.1849","4.74384","18.45","0","SATNPRO1962","26.919999999999998","0.37708","5"],
    [34766,"HCEP03730560","2024-09-24 10:15:00","11.2852","3.44252","27.367","1.669","7.49","0.371","3.732","0.05","0.12","30.1836","4.7437","18.44","0","SATNPRO1962","26.176000000000002","0.36666","5"],
    [34767,"HCEP03730560","2024-09-24 10:30:00","11.2843","3.44245","27.416","1.642","7.49","0.364","3.36","0.13","0.08","30.1836","4.74372","18.14","0","SATNPRO1962","27.028","0.37854","5"],
    [34768,"HCEP03730560","2024-09-24 10:45:00","11.2857","3.44253","27.411","1.663","7.49","0.415","3.385","0.14","0.14","30.1833","4.74365","18.37","0","SATNPRO1962","26.978","0.3779","5"],
    [34769,"HCEP03730560","2024-09-24 11:00:00","11.2881","3.44276","27.415","1.687","7.49","0.341","3.293","0.08","0.12","30.1836","4.74366","18.65","0","SATNPRO1962","27.108","0.3797","5"],
    [34770,"HCEP03730560","2024-09-24 11:15:00","11.2882","3.44282","27.432","1.699","7.5","0.373","3.915","0.05","0.38","30.1841","4.74372","18.77","0","SATNPRO1962","26.166","0.3665","5"],
    [34771,"HCEP03730560","2024-09-24 11:30:00","11.283","3.44207","27.463","1.684","7.49","0.313","3.314","0.05","0.08","30.181","4.74336","18.6","0","SATNPRO1962","26.733999999999998","0.37444","5"],
    [34772,"HCEP03730560","2024-09-24 11:45:00","11.2798","3.44173","27.468","1.645","7.49","0.352","3.581","0.08","0.33","30.1802","4.7433","18.18","0","SATNPRO1962","26.746","0.3746","5"],
    [34773,"HCEP03730560","2024-09-24 12:00:00","11.2739","3.44112","27.441","1.576","7.49","0.322","3.795","0.03","0.11","30.1792","4.74324","17.41","0","SATNPRO1962","25.966","0.36368","5"],
    [34774,"HCEP03730560","2024-09-24 12:15:00","11.2711","3.44078","27.44","1.51","7.48","0.338","3.708","0.03","0.16","30.1782","4.74314","16.67","0","SATNPRO1962","26.056","0.36498","5"],
    [34775,"HCEP03730560","2024-09-24 12:30:00","11.2703","3.44065","27.484","1.467","7.48","0.327","4.21","0.04","0.45","30.1775","4.74306","16.21","0","SATNPRO1962","25.754","0.36074","5"],
    [34776,"HCEP03730560","2024-09-24 12:45:00","11.2697","3.44061","27.439","1.455","7.48","0.37","3.944","0.05","0.23","30.1776","4.74308","16.07","0","SATNPRO1962","26.578","0.37228","5"],
    [34777,"HCEP03730560","2024-09-24 13:00:00","11.269","3.44052","27.421","1.456","7.48","0.352","3.811","0.1","0.18","30.1773","4.74305","16.08","0","SATNPRO1962","25.734","0.36042","5"],
    [34778,"HCEP03730560","2024-09-24 13:15:00","11.267","3.44016","27.381","1.442","7.48","0.351","3.767","0.05","0.25","30.1755","4.74282","15.92","0","SATNPRO1962","25.772","0.36104","5"],
    [34779,"HCEP03730560","2024-09-24 13:30:00","11.2678","3.44033","27.342","1.425","7.47","0.336","3.808","0.07","0.1","30.1766","4.74296","15.73","0","SATNPRO1962","25.412","0.35594","5"],
    [34780,"HCEP03730560","2024-09-24 13:45:00","11.2619","3.43942","27.273","1.402","7.47","0.385","3.803","0.24","0.13","30.1726","4.74248","15.48","0","SATNPRO1962","25.652","0.35924","5"],
    [34781,"HCEP03730560","2024-09-24 14:00:00","11.2633","3.43958","27.211","1.409","7.47","0.358","3.848","0.04","0.16","30.1729","4.7425","15.56","0","SATNPRO1962","25.414","0.35594","5"],
    [34782,"HCEP03730560","2024-09-24 14:15:00","11.261","3.43925","27.148","1.391","7.47","0.378","3.676","0.09","0.15","30.1717","4.74236","15.36","0","SATNPRO1962","25.448","0.35644","5"],
    [34783,"HCEP03730560","2024-09-24 14:30:00","11.26","3.43944","27.089","1.364","7.47","0.471","3.702","0.82","0.2","30.1743","4.74275","15.06","0","SATNPRO1962","25.358","0.35518","5"],
    [34784,"HCEP03730560","2024-09-24 14:45:00","11.259","3.43903","27.018","1.32","7.47","0.377","3.848","0.1","0.22","30.1712","4.74231","14.57","0","SATNPRO1962","25.122","0.35186","5"],
    [34785,"HCEP03730560","2024-09-24 15:00:00","11.2584","3.43894","26.949","1.316","7.47","0.485","3.96","0.63","0.36","30.1709","4.74227","14.53","0","SATNPRO1962","25.282","0.35408","5"],
    [34786,"HCEP03730560","2024-09-24 15:15:00","11.2578","3.43892","26.818","1.322","7.46","0.419","3.885","0.15","0.17","30.1712","4.74231","14.59","0","SATNPRO1962","24.986","0.34996","5"],
    [34787,"HCEP03730560","2024-09-24 15:30:00","11.2582","3.43906","26.701","1.325","7.46","0.368","3.936","0.06","0.24","30.1723","4.74247","14.63","0","SATNPRO1962","25.148","0.35224","5"],
    [34788,"HCEP03730560","2024-09-24 15:45:00","11.2578","3.43909","26.664","1.318","7.46","0.416","3.88","0.18","0.28","30.1729","4.74256","14.56","0","SATNPRO1962","24.933999999999997","0.34924","5"],
    [34789,"HCEP03730560","2024-09-24 16:00:00","11.257","3.43907","26.633","1.307","7.46","0.357","3.981","0.06","0.22","30.1734","4.74263","14.43","0","SATNPRO1962","24.87","0.34834","5"],
    [34790,"HCEP03730560","2024-09-24 16:15:00","11.2564","3.43905","26.716","1.283","7.46","0.358","3.881","0.05","0.1","30.1736","4.74267","14.16","0","SATNPRO1962","24.718","0.34622","5"],
    [34791,"HCEP03730560","2024-09-24 16:30:00","11.2537","3.43875","26.713","1.247","7.46","0.328","3.866","0.04","0.11","30.1729","4.74261","13.76","0","SATNPRO1962","24.478","0.34282","5"],
    [34792,"HCEP03730560","2024-09-24 16:45:00","11.2517","3.43846","26.773","1.203","7.46","0.332","3.983","0.03","0.21","30.1717","4.74248","13.28","0","SATNPRO1962","24.296","0.34032","5"],
    [34793,"HCEP03730560","2024-09-24 17:00:00","11.2496","3.43823","26.767","1.164","7.45","0.337","4.016","0.11","0.15","30.1712","4.74244","12.85","0","SATNPRO1962","24.072","0.33718","5"],
    [34794,"HCEP03730560","2024-09-24 17:15:00","11.2477","3.4379","26.821","1.133","7.45","0.324","3.829","0.04","0.13","30.1695","4.74223","12.51","0","SATNPRO1962","24.074","0.33718","5"],
    [34795,"HCEP03730560","2024-09-24 17:30:00","11.2457","3.43766","26.856","1.105","7.45","0.284","3.628","0.04","0.09","30.1689","4.74217","12.2","0","SATNPRO1962","24.198","0.3389","5"],
    [34796,"HCEP03730560","2024-09-24 17:45:00","11.2417","3.43709","26.91","1.077","7.45","0.331","3.861","0.04","0.13","30.1666","4.74191","11.89","0","SATNPRO1962","23.704","0.33198","5"],
    [34797,"HCEP03730560","2024-09-24 18:00:00","11.244","3.43747","26.933","1.054","7.44","0.309","3.916","0.06","0.09","30.1683","4.74211","11.64","0","SATNPRO1962","23.81","0.33348","5"],
    [34798,"HCEP03730560","2024-09-24 18:15:00","11.2434","3.43724","26.955","1.046","7.44","0.331","3.963","0.03","0.16","30.1665","4.74188","11.55","0","SATNPRO1962","23.657999999999998","0.33138","5"],
    [34799,"HCEP03730560","2024-09-24 18:30:00","11.2437","3.4376","26.988","1.027","7.44","0.296","4.019","0.03","0.21","30.1698","4.74235","11.34","0","SATNPRO1962","23.488","0.32896","5"],
    [34800,"HCEP03730560","2024-09-24 18:45:00","11.2431","3.43731","27.027","1.013","7.44","0.34","4.251","0.06","0.38","30.1675","4.74202","11.18","0","SATNPRO1962","23.306","0.32642","5"],
    [34801,"HCEP03730560","2024-09-24 19:00:00","11.2399","3.43684","27.064","0.994","7.44","0.317","4.228","0.08","0.15","30.1655","4.74179","10.97","0","SATNPRO1962","23.206","0.32504","5"],
    [34802,"HCEP03730560","2024-09-24 19:15:00","11.2401","3.43676","27.097","0.979","7.44","0.344","4.349","0.05","0.18","30.1645","4.74165","10.8","0","SATNPRO1962","23.096","0.3235","5"],
    [34803,"HCEP03730560","2024-09-24 19:30:00","11.242","3.43708","27.121","0.967","7.43","0.328","4.427","0.06","0.11","30.1661","4.74185","10.68","0","SATNPRO1962","23.002","0.32222","5"],
    [34804,"HCEP03730560","2024-09-24 19:45:00","11.2384","3.43642","27.137","0.954","7.43","0.335","4.258","0.04","0.23","30.1625","4.7414","10.53","0","SATNPRO1962","22.919999999999998","0.32102","5"],
    [34805,"HCEP03730560","2024-09-24 20:00:00","11.2317","3.43553","27.091","0.932","7.43","0.306","4.137","0.03","0.16","30.1595","4.74106","10.28","0","SATNPRO1962","22.704","0.318","5"],
    [34806,"HCEP03730560","2024-09-24 20:15:00","11.2265","3.43456","27.055","0.908","7.43","0.328","3.876","0.05","0.08","30.1542","4.74039","10.02","0","SATNPRO1962","22.605999999999998","0.31662","5"],
    [34807,"HCEP03730560","2024-09-24 20:30:00","11.2212","3.43383","27.02","0.885","7.43","0.321","3.962","0.07","0.28","30.1515","4.74008","9.76","0","SATNPRO1962","23.118000000000002","0.32376","5"],
    [34808,"HCEP03730560","2024-09-24 20:45:00","11.2238","3.43422","27.037","0.895","7.43","0.321","3.886","0.04","0.12","30.1532","4.74028","9.88","0","SATNPRO1962","23.276","0.32606","5"],
    [34809,"HCEP03730560","2024-09-24 21:00:00","11.2305","3.43529","27.024","0.902","7.43","0.313","4.244","0.03","0.21","30.1581","4.74088","9.96","0","SATNPRO1962","23.008","0.32228","5"],
    [34810,"HCEP03730560","2024-09-24 21:15:00","11.2371","3.43634","27.006","0.921","7.43","0.347","4.161","0.05","0.12","30.1629","4.74147","10.16","0","SATNPRO1962","23.04","0.32268","5"],
    [34811,"HCEP03730560","2024-09-24 21:30:00","11.2457","3.43753","27","0.973","7.43","0.305","4.2","0.03","0.15","30.1674","4.74197","10.74","0","SATNPRO1962","23.674","0.3316","5"],
    [34812,"HCEP03730560","2024-09-24 21:45:00","11.2586","3.43951","26.965","1.032","7.44","0.338","4.446","0.04","0.13","30.1762","4.74302","11.39","0","SATNPRO1962","23.648","0.3312","5"],
    [34813,"HCEP03730560","2024-09-24 22:00:00","11.2625","3.44009","26.922","1.093","7.44","0.357","4.431","0.36","0.19","30.1787","4.74331","12.07","0","SATNPRO1962","23.786","0.33316","5"],
    [34814,"HCEP03730560","2024-09-24 22:15:00","11.2665","3.44062","26.877","1.137","7.44","0.314","4.262","0.03","0.14","30.1806","4.74352","12.56","0","SATNPRO1962","24.169999999999998","0.33854","5"],
    [34815,"HCEP03730560","2024-09-24 22:30:00","11.2643","3.44024","26.801","1.173","7.45","0.305","4.177","0.04","0.14","30.1788","4.74329","12.96","0","SATNPRO1962","24.494","0.34308","5"],
    [34816,"HCEP03730560","2024-09-24 22:45:00","11.2664","3.44051","26.724","1.199","7.45","0.331","4.035","0.06","0.13","30.1796","4.74338","13.25","0","SATNPRO1962","24.626","0.34494","5"],
    [34817,"HCEP03730560","2024-09-24 23:00:00","11.2721","3.4413","26.638","1.235","7.45","0.356","4.156","0.31","0.09","30.1827","4.74372","13.65","0","SATNPRO1962","24.61","0.34468","5"],
    [34818,"HCEP03730560","2024-09-24 23:15:00","11.273","3.4414","26.531","1.269","7.46","0.322","4.177","0.04","0.16","30.183","4.74375","14.02","0","SATNPRO1962","24.798","0.34734","5"],
    [34819,"HCEP03730560","2024-09-24 23:30:00","11.2745","3.44156","26.419","1.299","7.46","0.309","4.032","0.09","0.11","30.1834","4.74377","14.35","0","SATNPRO1962","25.028","0.35056","5"],
    [34820,"HCEP03730560","2024-09-24 23:45:00","11.2748","3.44146","26.291","1.325","7.46","0.423","4.372","0.25","0.28","30.1822","4.7436","14.64","0","SATNPRO1962","24.977999999999998","0.34986","5"],
    [34821,"HCEP03730560","2024-09-25 00:00:00","11.2744","3.44131","26.195","1.347","7.46","0.329","4.464","0.07","0.14","30.1812","4.74345","14.88","0","SATNPRO1962","25.074","0.3512","5"],
    [34822,"HCEP03730560","2024-09-25 00:15:00","11.2741","3.44116","26.044","1.351","7.46","0.353","4.348","0.06","0.14","30.18","4.74327","14.92","0","SATNPRO1962","25.088","0.35142","5"],
    [34823,"HCEP03730560","2024-09-25 00:30:00","11.2749","3.44129","25.889","1.364","7.47","0.317","4.356","0.1","0.21","30.1806","4.74335","15.07","0","SATNPRO1962","25.163999999999998","0.35244","5"],
    [34824,"HCEP03730560","2024-09-25 00:45:00","11.2763","3.44136","25.745","1.384","7.47","0.324","4.194","0.02","0.14","30.1803","4.74326","15.28","0","SATNPRO1962","25.244","0.35362","5"],
    [34825,"HCEP03730560","2024-09-25 01:00:00","11.2781","3.4416","25.591","1.405","7.47","0.297","4.315","0.02","0.15","30.1812","4.74337","15.52","0","SATNPRO1962","25.18","0.3527","5"],
    [34826,"HCEP03730560","2024-09-25 01:15:00","11.2811","3.44207","25.436","1.421","7.47","0.354","4.214","0.11","0.18","30.1833","4.74361","15.69","0","SATNPRO1962","25.382","0.3555","5"],
    [34827,"HCEP03730560","2024-09-25 01:30:00","11.2829","3.4425","25.295","1.437","7.47","0.309","4.122","0.05","0.16","30.1861","4.74397","15.88","0","SATNPRO1962","25.496","0.35708","5"],
    [34828,"HCEP03730560","2024-09-25 01:45:00","11.2835","3.4426","25.144","1.437","7.47","0.325","4.157","0.03","0.12","30.1866","4.74403","15.87","0","SATNPRO1962","25.631999999999998","0.35902","5"],
    [34829,"HCEP03730560","2024-09-25 02:00:00","11.2849","3.44282","24.999","1.436","7.47","0.314","4.073","0.05","0.14","30.1877","4.74415","15.87","0","SATNPRO1962","25.548000000000002","0.35788","5"],
    [34830,"HCEP03730560","2024-09-25 02:15:00","11.2844","3.44282","24.868","1.444","7.47","0.314","4.116","0.03","0.14","30.1882","4.74422","15.96","0","SATNPRO1962","25.646","0.3592","5"],
    [34831,"HCEP03730560","2024-09-25 02:30:00","11.2833","3.44268","24.722","1.447","7.47","0.297","3.957","0.03","0.15","30.1877","4.74416","15.98","0","SATNPRO1962","25.824","0.36172","5"],
    [34832,"HCEP03730560","2024-09-25 02:45:00","11.28","3.44237","24.605","1.447","7.47","0.343","3.808","0.07","0.22","30.1875","4.74418","15.98","0","SATNPRO1962","25.794","0.3613","5"],
    [34833,"HCEP03730560","2024-09-25 03:00:00","11.2785","3.44225","24.511","1.433","7.47","0.291","3.723","0.03","0.09","30.1876","4.7442","15.83","0","SATNPRO1962","26.076","0.36524","5"],
    [34834,"HCEP03730560","2024-09-25 03:15:00","11.2782","3.4424","24.416","1.451","7.47","0.342","3.675","0.04","0.23","30.1893","4.74444","16.03","0","SATNPRO1962","26.38","0.3695","5"],
    [34835,"HCEP03730560","2024-09-25 03:30:00","11.2809","3.44267","24.349","1.485","7.48","0.303","3.537","0.05","0.14","30.1898","4.74447","16.4","0","SATNPRO1962","26.34","0.36894","5"],
    [34836,"HCEP03730560","2024-09-25 03:45:00","11.2822","3.4429","24.3","1.495","7.48","0.393","3.749","0.28","0.12","30.191","4.74461","16.52","0","SATNPRO1962","26.096","0.36552","5"],
    [34837,"HCEP03730560","2024-09-25 04:00:00","11.2856","3.44348","24.252","1.507","7.48","0.33","3.592","0.07","0.14","30.1939","4.74498","16.66","0","SATNPRO1962","26.308","0.36852","5"],
    [34838,"HCEP03730560","2024-09-25 04:15:00","11.2863","3.44356","24.238","1.525","7.48","0.392","4.351","0.11","0.65","30.194","4.74498","16.85","0","SATNPRO1962","26.612","0.37274","5"],
    [34839,"HCEP03730560","2024-09-25 04:30:00","11.2889","3.44397","24.262","1.514","7.48","0.345","4.031","0.1","0.2","30.1959","4.74522","16.73","0","SATNPRO1962","26.346","0.369","5"],
    [34840,"HCEP03730560","2024-09-25 04:45:00","11.2891","3.44415","24.278","1.503","7.48","0.394","4.418","0.1","0.14","30.1975","4.74544","16.61","0","SATNPRO1962","26.105999999999998","0.36566","5"],
    [34841,"HCEP03730560","2024-09-25 05:00:00","11.2933","3.44505","24.309","1.481","7.48","0.304","4.259","0.03","0.11","30.2028","4.74612","16.37","0","SATNPRO1962","26.082","0.36534","5"],
    [34842,"HCEP03730560","2024-09-25 05:15:00","11.2977","3.44607","24.4","1.471","7.48","0.374","4.624","0.06","0.15","30.2091","4.74696","16.26","0","SATNPRO1962","25.768","0.3609","5"],
    [34843,"HCEP03730560","2024-09-25 05:30:00","11.298400000000001","3.44641","24.471","1.45","7.48","0.327","4.639","0.03","0.12","30.2118","4.74734","16.02","0","SATNPRO1962","25.614","0.35874","5"],
    [34844,"HCEP03730560","2024-09-25 05:45:00","11.2993","3.44667","24.551","1.43","7.48","0.389","4.698","0.14","0.13","30.2135","4.74757","15.81","0","SATNPRO1962","25.55","0.35788","5"],
    [34845,"HCEP03730560","2024-09-25 06:00:00","11.298400000000001","3.4466","24.644","1.427","7.48","0.314","4.443","0.02","0.08","30.2135","4.74759","15.78","0","SATNPRO1962","25.62","0.35884","5"],
    [34846,"HCEP03730560","2024-09-25 06:15:00","11.3","3.44707","24.736","1.431","7.48","0.382","4.78","0.05","0.21","30.2168","4.74803","15.82","0","SATNPRO1962","25.413999999999998","0.35592","5"],
    [34847,"HCEP03730560","2024-09-25 06:30:00","11.3","3.44713","24.858","1.448","7.48","0.326","4.477","0.03","0.13","30.2173","4.74811","16","0","SATNPRO1962","25.672","0.3596","5"],
    [34848,"HCEP03730560","2024-09-25 06:45:00","11.2981","3.44663","25.021","1.44","7.48","0.323","4.287","0.02","0.14","30.214","4.74768","15.92","0","SATNPRO1962","25.652","0.3593","5"],
    [34849,"HCEP03730560","2024-09-25 07:00:00","11.3","3.44696","25.176","1.485","7.48","0.339","3.996","0.1","0.09","30.2155","4.74787","16.42","0","SATNPRO1962","26.298000000000002","0.36834","5"],
    [34850,"HCEP03730560","2024-09-25 07:15:00","11.3014","3.44744","25.301","1.475","7.48","0.347","4.344","0.03","0.12","30.219","4.74836","16.31","0","SATNPRO1962","25.650000000000002","0.35926","5"],
    [34851,"HCEP03730560","2024-09-25 07:30:00","11.3009","3.4476","25.438","1.417","7.48","0.304","4.503","0.02","0.07","30.2209","4.74864","15.66","0","SATNPRO1962","25.326","0.35474","5"],
    [34852,"HCEP03730560","2024-09-25 07:45:00","11.298400000000001","3.44755","25.641","1.38","7.48","0.322","4.192","0.02","0.09","30.2224","4.7489","15.25","0","SATNPRO1962","25.488","0.35702","5"],
    [34853,"HCEP03730560","2024-09-25 08:00:00","11.2971","3.44752","25.807","1.343","7.47","0.303","4.402","0.03","0.12","30.2231","4.74903","14.84","0","SATNPRO1962","24.95","0.3495","5"],
    [34854,"HCEP03730560","2024-09-25 08:15:00","11.284","3.44578","25.984","1.255","7.47","0.32","4.377","0.04","0.18","30.2168","4.74834","13.86","0","SATNPRO1962","23.812","0.33354","5"],
    [34855,"HCEP03730560","2024-09-25 08:30:00","11.2491","3.44153","26.162","0.981","7.45","0.286","4.392","0.03","0.17","30.204","4.74705","10.84","0","SATNPRO1962","22.162","0.3104","5"],
    [34856,"HCEP03730560","2024-09-25 08:45:00","11.2672","3.44343","26.373","0.846","7.44","0.332","4.906","0.04","0.26","30.2076","4.7473","9.34","0","SATNPRO1962","22.414","0.31396","5"],
    [34857,"HCEP03730560","2024-09-25 09:00:00","11.2369","3.43952","26.423","0.816","7.43","0.317","4.577","0.05","0.21","30.1942","4.74587","9.01","0","SATNPRO1962","21.248","0.29762","5"],
    [34858,"HCEP03730560","2024-09-25 09:15:00","11.2328","3.43896","26.608","0.702","7.42","0.316","4.072","0.04","0.12","30.1921","4.74564","7.75","0","SATNPRO1962","21.174","0.29654","5"],
    [34859,"HCEP03730560","2024-09-25 09:30:00","11.2322","3.4388","26.844","0.675","7.42","0.323","4.242","0.04","0.09","30.1909","4.7455","7.45","0","SATNPRO1962","21.776","0.30502","5"],
    [34860,"HCEP03730560","2024-09-25 09:45:00","11.2321","3.43876","26.98","0.676","7.41","0.323","4.122","0.03","0.13","30.1906","4.74546","7.46","0","SATNPRO1962","21.394","0.2997","5"],
    [34861,"HCEP03730560","2024-09-25 10:00:00","11.2339","3.43913","27.036","0.675","7.41","0.275","4.199","0.02","0.11","30.1928","4.74574","7.45","0","SATNPRO1962","21.89","0.3066","5"],
    [34862,"HCEP03730560","2024-09-25 10:15:00","11.2539","3.4418","27.107","0.708","7.41","0.413","4.37","0.09","0.26","30.2023","4.7468","7.82","0","SATNPRO1962","22.224","0.3113","5"],
    [34863,"HCEP03730560","2024-09-25 10:30:00","11.2788","3.44562","27.217","0.841","7.42","0.327","4.567","0.06","0.2","30.219","4.7488","9.3","0","SATNPRO1962","23.822","0.33366","5"],
    [34864,"HCEP03730560","2024-09-25 10:45:00","11.3259","3.45378","27.294","1.147","7.45","0.358","4.657","0.05","0.54","30.2598","4.75389","12.69","0","SATNPRO1962","26.593999999999998","0.37256","5"],
    [34865,"HCEP03730560","2024-09-25 11:00:00","11.3435","3.45659","27.376","1.501","7.47","0.294","4.563","0.04","0.83","30.2726","4.75544","16.61","0","SATNPRO1962","27.268","0.38194","5"],
    [34866,"HCEP03730560","2024-09-25 11:15:00","11.3531","3.45835","27.388","1.655","7.49","0.322","4.474","0.02","0.21","30.2819","4.75661","18.32","0","SATNPRO1962","27.398","0.38374","5"],
    [34867,"HCEP03730560","2024-09-25 11:30:00","11.3629","3.45973","27.431","1.74","7.5","0.275","3.97","0.03","0.18","30.2872","4.75722","19.27","0","SATNPRO1962","27.812","0.38956","5"],
    [34868,"HCEP03730560","2024-09-25 11:45:00","11.3695","3.46058","27.457","1.822","7.51","0.293","3.815","0.03","0.34","30.29","4.75752","20.18","0","SATNPRO1962","28.116","0.39382","5"],
    [34869,"HCEP03730560","2024-09-25 12:00:00","11.3781","3.46121","27.542","1.907","7.51","0.257","3.425","0.01","0.16","30.2891","4.75727","21.12","0","SATNPRO1962","28.598","0.40056","5"],
    [34870,"HCEP03730560","2024-09-25 12:15:00","11.3741","3.46043","27.606","1.976","7.52","0.27","3.113","0.02","0.23","30.2847","4.75671","21.89","0","SATNPRO1962","28.26","0.3958","5"],
    [34871,"HCEP03730560","2024-09-25 12:30:00","11.3427","3.45646","27.612","1.911","7.52","0.249","3.019","0.02","0.2","30.272","4.75537","21.15","0","SATNPRO1962","27.776","0.38908","5"],
    [34872,"HCEP03730560","2024-09-25 12:45:00","11.3341","3.45456","27.575","1.794","7.51","0.282","3.176","0.03","0.25","30.2605","4.75387","19.85","0","SATNPRO1962","27.56","0.38598","5"],
    [34873,"HCEP03730560","2024-09-25 13:00:00","11.3137","3.45118","27.527","1.678","7.5","0.282","3.421","0.09","0.14","30.2444","4.7519","18.56","0","SATNPRO1962","26.656","0.37336","5"],
    [34874,"HCEP03730560","2024-09-25 13:15:00","11.3642","3.45921","27.488","1.708","7.51","0.268","2.856","0.03","0.11","30.2811","4.75634","18.92","0","SATNPRO1962","28.512","0.3994","5"],
    [34875,"HCEP03730560","2024-09-25 13:30:00","11.3492","3.45672","27.45","1.863","7.52","0.264","3.081","0.06","1","30.2692","4.75487","20.63","0","SATNPRO1962","28.306","0.39648","5"],
    [34876,"HCEP03730560","2024-09-25 13:45:00","11.3777","3.46116","27.406","1.903","7.52","0.302","3.596","0.03","0.12","30.289","4.75726","21.09","0","SATNPRO1962","27.638","0.38712","5"],
    [34877,"HCEP03730560","2024-09-25 14:00:00","11.3822","3.46131","27.368","1.993","7.53","0.312","3.769","0.05","0.19","30.2868","4.75687","22.08","0","SATNPRO1962","28.502","0.3992","5"],
    [34878,"HCEP03730560","2024-09-25 14:15:00","11.3788","3.46084","27.341","2.066","7.53","0.335","3.659","0.08","0.15","30.2849","4.75666","22.89","0","SATNPRO1962","28.848","0.40406","5"],
    [34879,"HCEP03730560","2024-09-25 14:30:00","11.3678","3.45862","27.292","2.074","7.53","0.28","2.981","0.03","0.22","30.2725","4.75506","22.96","0","SATNPRO1962","28.75","0.4027","5"],
    [34880,"HCEP03730560","2024-09-25 14:45:00","11.3004","3.4486","27.261","1.867","7.52","0.303","3.359","0.05","0.1","30.2303","4.75008","20.65","0","SATNPRO1962","26.404","0.3698","5"],
    [34881,"HCEP03730560","2024-09-25 15:00:00","11.3014","3.44865","27.168","1.525","7.5","0.293","3.177","0.08","0.14","30.2301","4.75003","16.86","0","SATNPRO1962","26.548","0.37188","5"],
    [34882,"HCEP03730560","2024-09-25 15:15:00","11.2952","3.44713","27.119","1.482","7.49","0.335","3.22","0.16","0.22","30.2204","4.74874","16.38","0","SATNPRO1962","26.004","0.36424","5"],
    [34883,"HCEP03730560","2024-09-25 15:30:00","11.293","3.44662","27.085","1.442","7.49","0.263","3.159","0.05","0.09","30.2172","4.74833","15.94","0","SATNPRO1962","26.226","0.36736","5"],
    [34884,"HCEP03730560","2024-09-25 15:45:00","11.3152","3.44981","27.009","1.506","7.49","0.33","3.699","0.05","0.43","30.2301","4.74982","16.66","0","SATNPRO1962","26.868","0.37634","5"],
    [34885,"HCEP03730560","2024-09-25 16:00:00","11.2978","3.44752","26.923","1.555","7.49","0.26","3.015","0.05","0.14","30.2221","4.74893","17.19","0","SATNPRO1962","26.718","0.37422","5"],
    [34886,"HCEP03730560","2024-09-25 16:15:00","11.3301","3.45314","26.893","1.606","7.5","0.298","2.971","0.06","0.35","30.2503","4.75245","17.77","0","SATNPRO1962","27.918","0.39106","5"],
    [34887,"HCEP03730560","2024-09-25 16:30:00","11.336","3.45371","26.883","1.821","7.51","0.24","2.55","0.02","0.08","30.251","4.75246","20.15","0","SATNPRO1962","28.288","0.3962","5"],
    [34888,"HCEP03730560","2024-09-25 16:45:00","11.2904","3.44499","26.829","1.739","7.5","0.286","2.784","0.04","0.06","30.2036","4.74642","19.22","0","SATNPRO1962","26.568","0.3721","5"],
    [34889,"HCEP03730560","2024-09-25 17:00:00","11.2998","3.44764","26.697","1.513","7.49","0.26","2.799","0.02","0.07","30.2217","4.74884","16.73","0","SATNPRO1962","26.99","0.37798","5"],
    [34890,"HCEP03730560","2024-09-25 17:15:00","11.3218","3.45087","26.729","1.63","7.5","0.307","2.374","0.05","0.07","30.235","4.75041","18.03","0","SATNPRO1962","27.924","0.39112","5"],
    [34891,"HCEP03730560","2024-09-25 17:30:00","11.3601","3.45832","26.752","1.82","7.51","0.305","3.455","0.03","0.13","30.2761","4.75565","20.15","0","SATNPRO1962","27.404","0.38384","5"],
    [34892,"HCEP03730560","2024-09-25 17:45:00","11.3589","3.45707","26.731","1.815","7.51","0.338","4.065","0.04","0.94","30.265","4.75409","20.09","0","SATNPRO1962","27.785999999999998","0.38918","5"],
    [34893,"HCEP03730560","2024-09-25 18:00:00","11.3335","3.4515","26.614","1.843","7.51","0.336","3.674","0.07","0.5","30.2317","4.74975","20.39","0","SATNPRO1962","28.268","0.39594","5"],
    [34894,"HCEP03730560","2024-09-25 18:15:00","11.3615","3.45898","26.652","1.82","7.51","0.349","4.256","0.02","0.16","30.2814","4.75638","20.15","0","SATNPRO1962","26.738","0.37448","5"],
    [34895,"HCEP03730560","2024-09-25 18:30:00","11.3634","3.45943","26.604","1.714","7.51","0.331","4.438","0.03","0.12","30.2842","4.75675","18.98","0","SATNPRO1962","26.504","0.37126","5"],
    [34896,"HCEP03730560","2024-09-25 18:45:00","11.3614","3.45904","26.601","1.667","7.51","0.347","4.26","0.02","0.09","30.2821","4.75648","18.47","0","SATNPRO1962","26.451999999999998","0.3705","5"],
    [34897,"HCEP03730560","2024-09-25 19:00:00","11.3597","3.45863","26.65","1.668","7.51","0.32","4.227","0.02","0.17","30.2795","4.75614","18.47","0","SATNPRO1962","26.672","0.37364","5"],
    [34898,"HCEP03730560","2024-09-25 19:15:00","11.3606","3.45868","26.699","1.679","7.51","0.367","4.832","0.03","0.74","30.2792","4.75609","18.59","0","SATNPRO1962","26.642","0.37318","5"],
    [34899,"HCEP03730560","2024-09-25 19:30:00","11.3584","3.45785","26.673","1.693","7.51","0.332","4.5","0.03","0.44","30.273","4.75523","18.74","0","SATNPRO1962","26.634","0.37304","5"],
    [34900,"HCEP03730560","2024-09-25 19:45:00","11.3527","3.4564","26.702","1.747","7.51","0.363","3.908","0.05","0.37","30.2636","4.75398","19.34","0","SATNPRO1962","27.712","0.38812","5"],
    [34901,"HCEP03730560","2024-09-25 20:00:00","11.3619","3.45866","26.774","1.807","7.51","0.345","4.592","0.03","0.27","30.2779","4.75588","20.01","0","SATNPRO1962","27.208","0.3811","5"],
    [34902,"HCEP03730560","2024-09-25 20:15:00","11.3629","3.4578","26.742","1.828","7.52","0.353","4.201","0.06","3.48","30.2687","4.75456","20.24","0","SATNPRO1962","29.148","0.40824","5"],
    [34903,"HCEP03730560","2024-09-25 20:30:00","11.3573","3.45658","26.755","1.92","7.52","0.324","4.497","0.04","1.19","30.2615","4.75362","21.25","0","SATNPRO1962","28.234","0.39544","5"],
    [34904,"HCEP03730560","2024-09-25 20:45:00","11.3326","3.4534","26.793","1.876","7.52","0.319","3.574","0.02","0.14","30.2508","4.75248","20.76","0","SATNPRO1962","28.294","0.39634","5"],
    [34905,"HCEP03730560","2024-09-25 21:00:00","11.3455","3.45616","26.81","1.818","7.52","0.301","3.952","0.03","0.09","30.267","4.75459","20.13","0","SATNPRO1962","27.47","0.38476","5"],
    [34906,"HCEP03730560","2024-09-25 21:15:00","11.3505","3.45719","26.823","1.758","7.51","0.373","4.385","0.09","0.34","30.2729","4.75535","19.46","0","SATNPRO1962","27.166","0.38048","5"],
    [34907,"HCEP03730560","2024-09-25 21:30:00","11.3496","3.4571","26.878","1.729","7.51","0.301","4.333","0.01","0.22","30.2728","4.75534","19.14","0","SATNPRO1962","27.184","0.38074","5"],
    [34908,"HCEP03730560","2024-09-25 21:45:00","11.3538","3.45789","26.858","1.716","7.51","0.334","4.724","0.03","0.26","30.277","4.75588","19","0","SATNPRO1962","26.740000000000002","0.37454","5"],
    [34909,"HCEP03730560","2024-09-25 22:00:00","11.3579","3.45864","26.86","1.696","7.51","0.35","4.973","0.05","0.22","30.2809","4.75638","18.78","0","SATNPRO1962","26.35","0.3691","5"],
    [34910,"HCEP03730560","2024-09-25 22:15:00","11.3531","3.45778","26.846","1.665","7.51","0.378","4.957","0.07","0.3","30.2766","4.75584","18.43","0","SATNPRO1962","26.413999999999998","0.36996","5"],
    [34911,"HCEP03730560","2024-09-25 22:30:00","11.3435","3.45635","26.843","1.625","7.5","0.308","4.432","0.02","0.12","30.2706","4.75512","17.98","0","SATNPRO1962","26.368","0.3693","5"],
    [34912,"HCEP03730560","2024-09-25 22:45:00","11.3373","3.45539","26.836","1.569","7.5","0.381","4.887","0.05","0.22","30.2662","4.7546","17.36","0","SATNPRO1962","26.096","0.36554","5"],
    [34913,"HCEP03730560","2024-09-25 23:00:00","11.3315","3.45459","26.817","1.521","7.49","0.331","4.556","0.05","0.13","30.2632","4.75426","16.83","0","SATNPRO1962","26.009999999999998","0.3643","5"],
    [34914,"HCEP03730560","2024-09-25 23:15:00","11.3342","3.45501","26.768","1.495","7.49","0.344","4.646","0.03","0.21","30.2651","4.75448","16.55","0","SATNPRO1962","25.956","0.36358","5"],
    [34915,"HCEP03730560","2024-09-25 23:30:00","11.3375","3.4557","26.741","1.493","7.49","0.333","4.795","0.03","0.16","30.2692","4.75501","16.52","0","SATNPRO1962","25.982","0.36392","5"],
    [34916,"HCEP03730560","2024-09-25 23:45:00","11.34","3.45604","26.673","1.497","7.49","0.363","5.003","0.03","0.14","30.2705","4.75515","16.57","0","SATNPRO1962","25.882","0.36252","5"],
    [34917,"HCEP03730560","2024-09-26 00:00:00","11.3401","3.45614","26.619","1.491","7.49","0.349","4.979","0.04","0.24","30.2714","4.75527","16.5","0","SATNPRO1962","26.028000000000002","0.36458","5"],
    [34918,"HCEP03730560","2024-09-26 00:15:00","11.3384","3.45602","26.538","1.477","7.49","0.334","4.751","0.02","0.17","30.2716","4.75532","16.34","0","SATNPRO1962","25.872","0.36238","5"],
    [34919,"HCEP03730560","2024-09-26 00:30:00","11.3387","3.45614","26.463","1.458","7.49","0.345","4.785","0.08","0.19","30.2726","4.75546","16.14","0","SATNPRO1962","25.766","0.36088","5"],
    [34920,"HCEP03730560","2024-09-26 00:45:00","11.3385","3.45618","26.373","1.446","7.49","0.363","4.811","0.04","0.12","30.2731","4.75553","16.01","0","SATNPRO1962","25.63","0.35898","5"],
    [34921,"HCEP03730560","2024-09-26 01:00:00","11.338","3.4561","26.271","1.438","7.48","0.299","4.515","0.03","0.09","30.2728","4.75549","15.92","0","SATNPRO1962","25.588","0.35842","5"],
    [34922,"HCEP03730560","2024-09-26 01:15:00","11.3378","3.45604","26.148","1.428","7.48","0.334","4.565","0.06","0.15","30.2724","4.75543","15.8","0","SATNPRO1962","25.696","0.3599","5"],
    [34923,"HCEP03730560","2024-09-26 01:30:00","11.3376","3.45602","26.02","1.421","7.48","0.291","4.453","0.02","0.2","30.2725","4.75544","15.73","0","SATNPRO1962","25.744","0.36066","5"],
    [34924,"HCEP03730560","2024-09-26 01:45:00","11.3363","3.45592","25.881","1.408","7.48","0.307","4.384","0.03","0.17","30.2726","4.75547","15.59","0","SATNPRO1962","25.592000000000002","0.35848","5"],
    [34925,"HCEP03730560","2024-09-26 02:00:00","11.336","3.45578","25.765","1.399","7.48","0.293","4.363","0.02","0.13","30.2715","4.75531","15.49","0","SATNPRO1962","25.7","0.35996","5"],
    [34926,"HCEP03730560","2024-09-26 02:15:00","11.3354","3.45566","25.641","1.391","7.48","0.314","4.472","0.02","0.1","30.2709","4.75523","15.4","0","SATNPRO1962","25.336","0.35486","5"],
    [34927,"HCEP03730560","2024-09-26 02:30:00","11.335","3.45557","25.495","1.385","7.48","0.281","4.287","0.02","0.09","30.2704","4.75515","15.33","0","SATNPRO1962","25.336000000000002","0.35484","5"],
    [34928,"HCEP03730560","2024-09-26 02:45:00","11.3344","3.45542","25.355","1.386","7.48","0.298","4.221","0.02","0.14","30.2695","4.75502","15.34","0","SATNPRO1962","24.902","0.34882","5"],
    [34929,"HCEP03730560","2024-09-26 03:00:00","11.3336","3.45523","25.211","1.39","7.48","0.287","4.332","0.02","0.13","30.2685","4.75488","15.39","0","SATNPRO1962","25.664","0.35948","5"],
    [34930,"HCEP03730560","2024-09-26 03:15:00","11.332","3.45504","25.075","1.385","7.48","0.319","4.511","0.02","0.14","30.2679","4.75482","15.33","0","SATNPRO1962","25.484","0.35694","5"],
    [34931,"HCEP03730560","2024-09-26 03:30:00","11.3311","3.45481","24.952","1.373","7.48","0.301","4.258","0.03","0.14","30.2664","4.75461","15.2","0","SATNPRO1962","25.36","0.35518","5"],
    [34932,"HCEP03730560","2024-09-26 03:45:00","11.3301","3.45471","24.889","1.364","7.48","0.328","4.734","0.02","0.13","30.2664","4.75462","15.09","0","SATNPRO1962","25.244","0.3536","5"],
    [34933,"HCEP03730560","2024-09-26 04:00:00","11.3276","3.4543","24.778","1.354","7.48","0.28","4.473","0.02","0.18","30.2644","4.75437","14.98","0","SATNPRO1962","25.3","0.35434","5"],
    [34934,"HCEP03730560","2024-09-26 04:15:00","11.3244","3.45377","24.682","1.335","7.47","0.302","4.298","0.02","0.14","30.2619","4.75405","14.77","0","SATNPRO1962","24.994","0.3501","5"],
    [34935,"HCEP03730560","2024-09-26 04:30:00","11.324","3.45374","24.607","1.296","7.47","0.312","4.473","0.05","0.18","30.2621","4.75408","14.34","0","SATNPRO1962","24.866","0.34828","5"],
    [34936,"HCEP03730560","2024-09-26 04:45:00","11.3213","3.45321","24.546","1.263","7.47","0.333","4.628","0.02","0.15","30.2591","4.7537","13.97","0","SATNPRO1962","24.6","0.34456","5"],
    [34937,"HCEP03730560","2024-09-26 05:00:00","11.3158","3.45217","24.487","1.249","7.47","0.292","4.284","0.02","0.14","30.2535","4.75299","13.82","0","SATNPRO1962","25.326","0.35476","5"],
    [34938,"HCEP03730560","2024-09-26 05:15:00","11.3115","3.45128","24.451","1.27","7.47","0.291","3.879","0.02","0.07","30.2484","4.75233","14.04","0","SATNPRO1962","25.36","0.3552","5"],
    [34939,"HCEP03730560","2024-09-26 05:30:00","11.3129","3.45174","24.47","1.253","7.47","0.307","4.405","0.03","0.11","30.2517","4.75277","13.85","0","SATNPRO1962","24.554000000000002","0.34392","5"],
    [34940,"HCEP03730560","2024-09-26 05:45:00","11.3128","3.45177","24.474","1.202","7.46","0.305","4.364","0.01","0.09","30.2521","4.75283","13.29","0","SATNPRO1962","24.564","0.34408","5"],
    [34941,"HCEP03730560","2024-09-26 06:00:00","11.3128","3.45188","24.5","1.173","7.46","0.281","4.489","0.02","0.15","30.2532","4.75298","12.98","0","SATNPRO1962","24.346","0.34098","5"],
    [34942,"HCEP03730560","2024-09-26 06:15:00","11.3152","3.45235","24.546","1.166","7.46","0.335","4.43","0.03","0.18","30.2558","4.75332","12.9","0","SATNPRO1962","24.38","0.3415","5"],
    [34943,"HCEP03730560","2024-09-26 06:30:00","11.3184","3.45292","24.597","1.172","7.46","0.285","4.161","0.03","0.11","30.2587","4.75368","12.96","0","SATNPRO1962","24.648","0.3452","5"],
    [34944,"HCEP03730560","2024-09-26 06:45:00","11.3231","3.45369","24.684","1.205","7.46","0.298","4.278","0.01","0.11","30.2622","4.75412","13.33","0","SATNPRO1962","24.672","0.34558","5"],
    [34945,"HCEP03730560","2024-09-26 07:00:00","11.3459","3.45729","24.782","1.266","7.47","0.302","4.867","0.02","0.15","30.2784","4.75608","14.01","0","SATNPRO1962","24.938","0.34926","5"],
    [34946,"HCEP03730560","2024-09-26 07:15:00","11.335","3.45574","24.885","1.284","7.47","0.295","4.421","0.01","0.16","30.2723","4.75539","14.21","0","SATNPRO1962","24.578","0.34426","5"],
    [34947,"HCEP03730560","2024-09-26 07:30:00","11.3403","3.45657","24.985","1.287","7.47","0.278","4.365","0.02","0.12","30.276","4.75583","14.25","0","SATNPRO1962","25.252","0.3537","5"],
    [34948,"HCEP03730560","2024-09-26 07:45:00","11.3394","3.45622","25.086","1.364","7.47","0.301","4.291","0.02","0.1","30.2733","4.75547","15.1","0","SATNPRO1962","24.834","0.34784","5"],
    [34949,"HCEP03730560","2024-09-26 08:00:00","11.3316","3.45519","25.219","1.325","7.47","0.286","4.32","0.03","0.12","30.2696","4.75507","14.66","0","SATNPRO1962","24.78","0.3471","5"],
    [34950,"HCEP03730560","2024-09-26 08:15:00","11.3331","3.45561","25.346","1.277","7.47","0.292","4.134","0.01","0.14","30.2724","4.75545","14.13","0","SATNPRO1962","24.966","0.3497","5"],
    [34951,"HCEP03730560","2024-09-26 08:30:00","11.3392","3.45635","25.524","1.327","7.47","0.271","3.927","0.03","0.09","30.2746","4.75568","14.68","0","SATNPRO1962","25.284","0.35412","5"],
    [34952,"HCEP03730560","2024-09-26 08:45:00","11.331","3.45503","25.662","1.336","7.47","0.297","4.13","0.02","0.13","30.2684","4.75493","14.78","0","SATNPRO1962","24.674","0.34558","5"],
    [34953,"HCEP03730560","2024-09-26 09:00:00","11.3312","3.4551","25.712","1.26","7.47","0.28","4.317","0.02","0.12","30.2689","4.75501","13.95","0","SATNPRO1962","24.712","0.34612","5"],
    [34954,"HCEP03730560","2024-09-26 09:15:00","11.3253","3.45402","25.887","1.252","7.47","0.311","4.265","0.02","0.1","30.2632","4.75429","13.85","0","SATNPRO1962","24.756","0.34676","5"],
    [34955,"HCEP03730560","2024-09-26 09:30:00","11.3168","3.45262","26.074","1.235","7.47","0.276","3.967","0.03","0.08","30.2564","4.75347","13.66","0","SATNPRO1962","24.534","0.34362","5"],
    [34956,"HCEP03730560","2024-09-26 09:45:00","11.3159","3.45245","26.227","1.197","7.46","0.309","4.197","0.02","0.1","30.2555","4.75336","13.24","0","SATNPRO1962","24.32","0.34064","5"],
    [34957,"HCEP03730560","2024-09-26 10:00:00","11.3141","3.45242","26.391","1.156","7.46","0.299","4.415","0.02","0.12","30.2565","4.75355","12.79","0","SATNPRO1962","24.212","0.33916","5"],
    [34958,"HCEP03730560","2024-09-26 10:15:00","11.3217","3.45342","26.535","1.159","7.46","0.339","4.735","0.03","0.22","30.2601","4.75394","12.82","0","SATNPRO1962","24.174","0.3386","5"],
    [34959,"HCEP03730560","2024-09-26 10:30:00","11.3222","3.45349","26.671","1.17","7.46","0.314","4.581","0.02","0.25","30.2602","4.75396","12.94","0","SATNPRO1962","24.294","0.34028","5"],
    [34960,"HCEP03730560","2024-09-26 10:45:00","11.3219","3.45341","26.817","1.178","7.46","0.356","4.757","0.04","0.22","30.2596","4.75389","13.03","0","SATNPRO1962","24.57","0.34414","5"],
    [34961,"HCEP03730560","2024-09-26 11:00:00","11.3236","3.45359","26.968","1.194","7.46","0.349","4.65","0.04","0.13","30.26","4.75392","13.2","0","SATNPRO1962","24.61","0.34472","5"],
    [34962,"HCEP03730560","2024-09-26 11:15:00","11.3304","3.45473","27.052","1.231","7.46","0.363","4.534","0.03","0.11","30.2654","4.7546","13.62","0","SATNPRO1962","25.03","0.35058","5"],
    [34963,"HCEP03730560","2024-09-26 11:30:00","11.3409","3.45643","27.19","1.316","7.47","0.39","5.199","0.03","0.35","30.2734","4.75558","14.56","0","SATNPRO1962","25.474","0.35682","5"],
    [34964,"HCEP03730560","2024-09-26 11:45:00","11.3359","3.45566","27.283","1.362","7.48","0.376","4.819","0.03","0.18","30.2699","4.75516","15.07","0","SATNPRO1962","25.48","0.35688","5"],
    [34965,"HCEP03730560","2024-09-26 12:00:00","11.3425","3.45666","27.365","1.37","7.48","0.356","4.752","0.02","0.14","30.2741","4.75567","15.17","0","SATNPRO1962","25.578","0.35828","5"],
    [34966,"HCEP03730560","2024-09-26 12:15:00","11.3446","3.45687","27.418","1.405","7.48","0.368","4.537","0.04","0.31","30.2744","4.75568","15.55","0","SATNPRO1962","25.786","0.36118","5"],
    [34967,"HCEP03730560","2024-09-26 12:30:00","11.344","3.45675","27.453","1.426","7.48","0.35","4.403","0.03","0.18","30.2738","4.7556","15.79","0","SATNPRO1962","25.892","0.36262","5"],
    [34968,"HCEP03730560","2024-09-26 12:45:00","11.3475","3.45704","27.498","1.444","7.48","0.377","4.443","0.04","0.21","30.2737","4.75554","15.98","0","SATNPRO1962","25.992","0.36406","5"],
    [34969,"HCEP03730560","2024-09-26 13:00:00","11.3484","3.45706","27.534","1.471","7.49","0.345","4.441","0.1","0.18","30.2732","4.75546","16.28","0","SATNPRO1962","26.11","0.36572","5"],
    [34970,"HCEP03730560","2024-09-26 13:15:00","11.3409","3.45577","27.54","1.473","7.49","0.348","4.407","0.02","0.2","30.2667","4.75466","16.3","0","SATNPRO1962","25.996000000000002","0.36408","5"],
    [34971,"HCEP03730560","2024-09-26 13:30:00","11.3361","3.45462","27.553","1.46","7.49","0.336","4.237","0.04","0.19","30.2595","4.75371","16.15","0","SATNPRO1962","26.204","0.36704","5"],
    [34972,"HCEP03730560","2024-09-26 13:45:00","11.3358","3.45424","27.55","1.475","7.49","0.345","4.03","0.03","0.18","30.256","4.75321","16.32","0","SATNPRO1962","26.168","0.3665","5"],
    [34973,"HCEP03730560","2024-09-26 14:00:00","11.3282","3.45264","27.55","1.481","7.49","0.31","4.089","0.03","0.15","30.2468","4.75202","16.38","0","SATNPRO1962","26.201999999999998","0.36702","5"],
    [34974,"HCEP03730560","2024-09-26 14:15:00","11.3279","3.4524","27.532","1.474","7.48","0.342","4.238","0.02","0.14","30.2447","4.75172","16.31","0","SATNPRO1962","26.322","0.36868","5"],
    [34975,"HCEP03730560","2024-09-26 14:30:00","11.3177","3.45055","27.494","1.466","7.48","0.334","4.137","0.04","0.15","30.235","4.7505","16.21","0","SATNPRO1962","26.108","0.3657","5"],
    [34976,"HCEP03730560","2024-09-26 14:45:00","11.3151","3.45009","27.475","1.421","7.48","0.368","3.991","0.1","0.15","30.2327","4.75021","15.71","0","SATNPRO1962","25.974","0.36378","5"],
    [34977,"HCEP03730560","2024-09-26 15:00:00","11.3106","3.4494","27.45","1.396","7.48","0.33","3.989","0.03","0.17","30.2296","4.74985","15.43","0","SATNPRO1962","25.958000000000002","0.3636","5"],
    [34978,"HCEP03730560","2024-09-26 15:15:00","11.3212","3.45113","27.39","1.398","7.48","0.355","3.949","0.04","0.15","30.2378","4.75085","15.46","0","SATNPRO1962","26.25","0.36766","5"],
    [34979,"HCEP03730560","2024-09-26 15:30:00","11.3271","3.45167","27.336","1.483","7.48","0.348","4.059","0.06","0.47","30.2383","4.75082","16.4","0","SATNPRO1962","26.796","0.37532","5"],
    [34980,"HCEP03730560","2024-09-26 15:45:00","11.3319","3.4522","27.275","1.565","7.49","0.378","4.03","0.05","0.15","30.2395","4.75091","17.32","0","SATNPRO1962","27.01","0.37832","5"],
    [34981,"HCEP03730560","2024-09-26 16:00:00","11.3314","3.45168","27.234","1.632","7.49","0.349","3.736","0.09","0.23","30.2349","4.75027","18.05","0","SATNPRO1962","27.166","0.3805","5"],
    [34982,"HCEP03730560","2024-09-26 16:15:00","11.3352","3.45204","27.171","1.673","7.5","0.362","3.992","0.03","0.35","30.2353","4.75026","18.51","0","SATNPRO1962","27.258","0.38182","5"],
    [34983,"HCEP03730560","2024-09-26 16:30:00","11.3318","3.45149","27.076","1.69","7.5","0.334","3.881","0.03","0.16","30.2328","4.74995","18.69","0","SATNPRO1962","27.221999999999998","0.38132","5"],
    [34984,"HCEP03730560","2024-09-26 16:45:00","11.3252","3.45031","27.006","1.654","7.5","0.36","4.071","0.03","0.17","30.2268","4.74921","18.3","0","SATNPRO1962","26.978","0.37786","5"],
    [34985,"HCEP03730560","2024-09-26 17:00:00","11.3172","3.44895","26.924","1.601","7.49","0.34","3.892","0.04","0.21","30.2201","4.74837","17.7","0","SATNPRO1962","26.826","0.37578","5"],
    [34986,"HCEP03730560","2024-09-26 17:15:00","11.3112","3.44791","26.856","1.546","7.49","0.384","4.191","0.05","0.34","30.2149","4.74772","17.09","0","SATNPRO1962","26.55","0.37188","5"],
    [34987,"HCEP03730560","2024-09-26 17:30:00","11.3049","3.44704","26.783","1.48","7.48","0.332","4.053","0.03","0.23","30.2117","4.74735","16.37","0","SATNPRO1962","26.016","0.3644","5"],
    [34988,"HCEP03730560","2024-09-26 17:45:00","11.298400000000001","3.44622","26.703","1.395","7.48","0.351","3.922","0.03","0.18","30.209","4.74707","15.42","0","SATNPRO1962","25.646","0.35918","5"],
    [34989,"HCEP03730560","2024-09-26 18:00:00","11.2876","3.44444","26.631","1.306","7.47","0.371","4.042","0.05","0.15","30.2006","4.74603","14.43","0","SATNPRO1962","25.131999999999998","0.352","5"],
    [34990,"HCEP03730560","2024-09-26 18:15:00","11.276","3.44249","26.553","1.204","7.46","0.373","4.25","0.06","0.18","30.1911","4.74485","13.3","0","SATNPRO1962","24.61","0.34472","5"],
    [34991,"HCEP03730560","2024-09-26 18:30:00","11.2634","3.44038","26.562","1.094","7.46","0.344","4.185","0.03","0.18","30.1809","4.74359","12.08","0","SATNPRO1962","23.958000000000002","0.33556","5"],
    [34992,"HCEP03730560","2024-09-26 18:45:00","11.2531","3.43861","26.478","0.991","7.45","0.365","4.159","0.02","0.19","30.1722","4.7425","10.94","0","SATNPRO1962","23.483999999999998","0.32894","5"],
    [34993,"HCEP03730560","2024-09-26 19:00:00","11.2459","3.43727","26.537","0.906","7.44","0.341","4.123","0.04","0.18","30.165","4.7416","10","0","SATNPRO1962","23.064","0.32302","5"],
    [34994,"HCEP03730560","2024-09-26 19:15:00","11.2348","3.43532","26.485","0.831","7.43","0.339","3.799","0.02","0.22","30.1551","4.74036","9.17","0","SATNPRO1962","22.362","0.31322","5"],
    [34995,"HCEP03730560","2024-09-26 19:30:00","11.2316","3.43486","26.467","0.771","7.43","0.322","3.869","0.03","0.12","30.1532","4.74014","8.51","0","SATNPRO1962","22.162","0.31042","5"],
    [34996,"HCEP03730560","2024-09-26 19:45:00","11.2295","3.43449","26.492","0.748","7.42","0.341","3.891","0.02","0.13","30.1513","4.7399","8.25","0","SATNPRO1962","22.108","0.30966","5"],
    [34997,"HCEP03730560","2024-09-26 20:00:00","11.2305","3.43457","26.497","0.732","7.42","0.311","3.735","0.02","0.14","30.1513","4.73989","8.08","0","SATNPRO1962","22.094","0.30946","5"],
    [34998,"HCEP03730560","2024-09-26 20:15:00","11.2303","3.43453","26.549","0.737","7.42","0.338","3.812","0.02","0.17","30.1511","4.73987","8.13","0","SATNPRO1962","22.098","0.30948","5"],
    [34999,"HCEP03730560","2024-09-26 20:30:00","11.2282","3.4342","26.515","0.72","7.42","0.31","3.711","0.03","0.1","30.1495","4.73967","7.94","0","SATNPRO1962","21.956","0.30754","5"],
    [35000,"HCEP03730560","2024-09-26 20:45:00","11.226","3.43377","26.618","0.702","7.41","0.322","3.577","0.02","0.08","30.1472","4.73938","7.74","0","SATNPRO1962","21.844","0.30598","5"],
    [35001,"HCEP03730560","2024-09-26 21:00:00","11.2215","3.43306","26.6","0.685","7.41","0.307","3.524","0.04","0.38","30.1439","4.73898","7.56","0","SATNPRO1962","21.48","0.30088","5"],
    [35002,"HCEP03730560","2024-09-26 21:15:00","11.2177","3.43241","26.732","0.636","7.41","0.316","3.42","0.02","0.1","30.1407","4.73858","7.01","0","SATNPRO1962","21.288","0.29816","5"],
    [35003,"HCEP03730560","2024-09-26 21:30:00","11.2143","3.43192","26.642","0.611","7.4","0.29","3.404","0.02","0.1","30.1387","4.73835","6.74","0","SATNPRO1962","21.048","0.2948","5"],
    [35004,"HCEP03730560","2024-09-26 21:45:00","11.2149","3.43207","26.719","0.585","7.4","0.321","3.418","0.03","0.23","30.1396","4.73847","6.45","0","SATNPRO1962","21.034","0.29464","5"],
    [35005,"HCEP03730560","2024-09-26 22:00:00","11.219","3.43269","26.699","0.59","7.4","0.284","3.353","0.02","0.08","30.1423","4.73879","6.51","0","SATNPRO1962","21.330000000000002","0.29872","5"],
    [35006,"HCEP03730560","2024-09-26 22:15:00","11.2325","3.43474","26.691","0.628","7.41","0.317","3.615","0.04","0.47","30.1513","4.73987","6.93","0","SATNPRO1962","21.898","0.30672","5"],
    [35007,"HCEP03730560","2024-09-26 22:30:00","11.2492","3.43775","26.872","0.726","7.41","0.295","3.619","0.04","0.13","30.1668","4.74183","8.01","0","SATNPRO1962","22.754","0.31868","5"],
    [35008,"HCEP03730560","2024-09-26 22:45:00","11.2577","3.43896","26.926","0.819","7.42","0.324","3.756","0.02","0.12","30.1717","4.74239","9.04","0","SATNPRO1962","23.164","0.3245","5"],
    [35009,"HCEP03730560","2024-09-26 23:00:00","11.2629","3.44025","26.912","0.907","7.42","0.295","3.714","0.02","0.19","30.18","4.74349","10.02","0","SATNPRO1962","23.674","0.3316","5"],
    [35010,"HCEP03730560","2024-09-26 23:15:00","11.273","3.44196","26.926","1","7.43","0.322","3.767","0.03","0.13","30.1883","4.74452","11.05","0","SATNPRO1962","24.21","0.33908","5"],
    [35011,"HCEP03730560","2024-09-26 23:30:00","11.2815","3.44348","26.989","1.084","7.44","0.344","3.931","0.07","0.18","30.1962","4.74551","11.98","0","SATNPRO1962","24.764","0.34688","5"],
    [35012,"HCEP03730560","2024-09-26 23:45:00","11.2885","3.44468","26.992","1.159","7.45","0.366","3.971","0.04","0.13","30.202","4.74624","12.8","0","SATNPRO1962","25.348","0.35504","5"],
    [35013,"HCEP03730560","2024-09-27 00:00:00","11.2891","3.445","27.002","1.209","7.45","0.317","3.929","0.03","0.15","30.2047","4.7466","13.36","0","SATNPRO1962","25.228","0.35336","5"],
    [35014,"HCEP03730560","2024-09-27 00:15:00","11.325","3.44937","27.086","1.231","7.46","0.339","4.124","0.03","0.18","30.2177","4.74793","13.61","0","SATNPRO1962","25.776","0.36104","5"],
    [35015,"HCEP03730560","2024-09-27 00:30:00","11.3352","3.45081","27.029","1.313","7.46","0.402","4.52","0.06","0.41","30.2234","4.74858","14.53","0","SATNPRO1962","26.274","0.36802","5"],
    [35016,"HCEP03730560","2024-09-27 00:45:00","11.3417","3.4515","27.048","1.35","7.47","0.433","4.587","0.09","0.3","30.2248","4.74868","14.93","0","SATNPRO1962","26.41","0.36992","5"],
    [35017,"HCEP03730560","2024-09-27 01:00:00","11.3437","3.45117","26.993","1.369","7.47","0.413","4.986","0.04","0.68","30.22","4.74797","15.14","0","SATNPRO1962","26.274","0.36802","5"],
    [35018,"HCEP03730560","2024-09-27 01:15:00","11.3461","3.45132","26.911","1.361","7.47","0.474","4.978","0.04","0.23","30.2195","4.74785","15.06","0","SATNPRO1962","26.35","0.36906","5"],
    [35019,"HCEP03730560","2024-09-27 01:30:00","11.3582","3.45256","26.867","1.397","7.47","0.491","4.908","0.06","0.2","30.2217","4.74798","15.46","0","SATNPRO1962","26.444","0.37038","5"],
    [35020,"HCEP03730560","2024-09-27 01:45:00","11.3647","3.45377","26.841","1.442","7.48","0.546","5.323","0.06","0.19","30.2281","4.74879","15.97","0","SATNPRO1962","26.712","0.37418","5"],
    [35021,"HCEP03730560","2024-09-27 02:00:00","11.3735","3.45563","26.733","1.494","7.48","0.526","4.884","0.11","0.24","30.2389","4.75019","16.54","0","SATNPRO1962","26.974","0.3778","5"],
    [35022,"HCEP03730560","2024-09-27 02:15:00","11.3771","3.45657","26.598","1.567","7.49","0.489","5.064","0.05","0.23","30.2453","4.75103","17.36","0","SATNPRO1962","27.304","0.38244","5"],
    [35023,"HCEP03730560","2024-09-27 02:30:00","11.377","3.45662","26.467","1.612","7.49","0.439","4.951","0.04","0.18","30.2459","4.75111","17.85","0","SATNPRO1962","27.296","0.38232","5"],
    [35024,"HCEP03730560","2024-09-27 02:45:00","11.378","3.4569","26.342","1.613","7.49","0.467","5.055","0.05","0.18","30.2478","4.75136","17.86","0","SATNPRO1962","27.282","0.38212","5"],
    [35025,"HCEP03730560","2024-09-27 03:00:00","11.3792","3.45715","26.236","1.612","7.49","0.43","5.01","0.05","0.17","30.2493","4.75154","17.85","0","SATNPRO1962","27.214","0.3812","5"],
    [35026,"HCEP03730560","2024-09-27 03:15:00","11.3787","3.4571","26.076","1.607","7.49","0.452","4.808","0.05","0.28","30.2493","4.75154","17.79","0","SATNPRO1962","27.252","0.38168","5"],
    [35027,"HCEP03730560","2024-09-27 03:30:00","11.3781","3.45698","25.732","1.599","7.49","0.418","4.419","0.07","0.11","30.2488","4.75146","17.71","0","SATNPRO1962","27.296","0.38234","5"],
    [35028,"HCEP03730560","2024-09-27 03:45:00","11.3774","3.45687","25.581","1.606","7.49","0.476","4.291","0.16","0.25","30.2483","4.7514","17.79","0","SATNPRO1962","27.43","0.3842","5"],
    [35029,"HCEP03730560","2024-09-27 04:00:00","11.3764","3.45668","25.429","1.604","7.49","0.391","4.182","0.04","0.15","30.2474","4.75127","17.76","0","SATNPRO1962","27.242","0.38158","5"],
    [35030,"HCEP03730560","2024-09-27 04:15:00","11.3735","3.45622","25.292","1.591","7.49","0.442","4.315","0.06","0.16","30.2453","4.75102","17.61","0","SATNPRO1962","27.034000000000002","0.37868","5"],
    [35031,"HCEP03730560","2024-09-27 04:30:00","11.372","3.45594","25.16","1.566","7.49","0.462","4.476","0.08","0.28","30.2439","4.75082","17.35","0","SATNPRO1962","27.018","0.3784","5"],
    [35032,"HCEP03730560","2024-09-27 04:45:00","11.3685","3.45472","25.002","1.542","7.49","0.511","4.383","0.14","0.52","30.235","4.74961","17.08","0","SATNPRO1962","26.904","0.37682","5"],
    [35033,"HCEP03730560","2024-09-27 05:00:00","11.3647","3.45392","24.965","1.51","7.49","0.582","4.438","0.42","0.41","30.2303","4.749","16.72","0","SATNPRO1962","26.588","0.3724","5"],
    [35034,"HCEP03730560","2024-09-27 05:15:00","11.3603","3.45288","24.885","1.468","7.48","0.498","4.609","0.07","0.21","30.2239","4.74815","16.25","0","SATNPRO1962","26.38","0.36946","5"],
    [35035,"HCEP03730560","2024-09-27 05:30:00","11.3634","3.45236","24.781","1.445","7.48","0.53","4.463","0.17","0.29","30.2163","4.74702","15.99","0","SATNPRO1962","26.502","0.37118","5"],
    [35036,"HCEP03730560","2024-09-27 05:45:00","11.3625","3.45171","24.697","1.448","7.48","0.528","4.6","0.08","0.18","30.2107","4.74625","16.03","0","SATNPRO1962","26.142","0.36616","5"],
    [35037,"HCEP03730560","2024-09-27 06:00:00","11.3613","3.45083","24.629","1.432","7.48","0.742","4.755","1.18","0.62","30.2032","4.74519","15.84","0","SATNPRO1962","26.096","0.36546","5"],
    [35038,"HCEP03730560","2024-09-27 06:15:00","11.3539","3.44886","24.599","1.406","7.48","1.233","4.89","2.5","0.6","30.1901","4.74345","15.55","0","SATNPRO1962","25.646","0.35922","5"],
    [35039,"HCEP03730560","2024-09-27 06:30:00","11.3372","3.44574","24.554","1.324","7.47","0.589","4.639","0.19","0.58","30.1736","4.74135","14.65","0","SATNPRO1962","25","0.3502","5"],
    [35040,"HCEP03730560","2024-09-27 06:45:00","11.3318","3.44297","24.542","1.237","7.46","0.575","4.047","0.18","0.17","30.151","4.73823","13.68","0","SATNPRO1962","24.206","0.3391","5"],
    [35041,"HCEP03730560","2024-09-27 07:00:00","11.3408","3.43924","24.546","1.209","7.46","0.613","3.541","0.26","0.09","30.1075","4.73193","13.37","0","SATNPRO1962","24.21","0.3391","5"],
    [35042,"HCEP03730560","2024-09-27 07:15:00","11.3299","3.43976","24.558","1.23","7.46","0.538","4.034","0.05","0.3","30.1215","4.73407","13.6","0","SATNPRO1962","23.986","0.33596","5"],
    [35043,"HCEP03730560","2024-09-27 07:30:00","11.3292","3.44044","24.612","1.186","7.45","0.604","4.216","0.14","0.21","30.1285","4.73509","13.11","0","SATNPRO1962","23.846","0.334","5"],
    [35044,"HCEP03730560","2024-09-27 07:45:00","11.3271","3.44132","24.679","1.157","7.45","0.616","4.065","0.12","0.14","30.1387","4.73657","12.79","0","SATNPRO1962","23.990000000000002","0.33602","5"],
    [35045,"HCEP03730560","2024-09-27 08:00:00","11.3244","3.44074","24.757","1.137","7.45","0.536","4.135","0.08","0.15","30.1352","4.73612","12.57","0","SATNPRO1962","23.92","0.33504","5"],
    [35046,"HCEP03730560","2024-09-27 08:15:00","11.3194","3.4413","24.841","1.111","7.45","0.672","4.266","0.14","0.22","30.1448","4.73754","12.29","0","SATNPRO1962","23.744","0.33256","5"],
    [35047,"HCEP03730560","2024-09-27 08:30:00","11.3183","3.44175","24.938","1.088","7.45","0.524","4.162","0.09","0.3","30.15","4.73831","12.03","0","SATNPRO1962","23.912","0.33492","5"],
    [35048,"HCEP03730560","2024-09-27 08:45:00","11.3265","3.44331","25.051","1.109","7.45","0.516","3.999","0.06","0.19","30.1584","4.73938","12.26","0","SATNPRO1962","24.47","0.34276","5"],
    [35049,"HCEP03730560","2024-09-27 09:00:00","11.3256","3.44293","25.181","1.151","7.45","0.485","3.939","0.07","0.15","30.1555","4.73899","12.72","0","SATNPRO1962","24.456","0.3425","5"],
    [35050,"HCEP03730560","2024-09-27 09:15:00","11.3166","3.44151","25.358","1.138","7.45","0.56","3.868","0.11","0.16","30.1489","4.73821","12.58","0","SATNPRO1962","24.106","0.33764","5"],
    [35051,"HCEP03730560","2024-09-27 09:30:00","11.3075","3.44057","25.49","1.087","7.44","0.485","3.71","0.08","0.27","30.1472","4.7381","12.02","0","SATNPRO1962","23.956","0.33554","5"],
    [35052,"HCEP03730560","2024-09-27 09:45:00","11.2902","3.43939","25.656","1.04","7.44","0.449","3.821","0.06","0.4","30.1498","4.73873","11.49","0","SATNPRO1962","23.574","0.3302","5"],
    [35053,"HCEP03730560","2024-09-27 10:00:00","11.265","3.43793","25.787","0.903","7.43","0.397","3.605","0.06","0.15","30.1562","4.74002","9.97","0","SATNPRO1962","22.778","0.31906","5"],
    [35054,"HCEP03730560","2024-09-27 10:15:00","11.2437","3.43592","25.935","0.764","7.42","0.396","3.667","0.05","0.14","30.1539","4.74003","8.43","0","SATNPRO1962","21.974","0.30778","5"],
    [35055,"HCEP03730560","2024-09-27 10:30:00","11.2413","3.43507","26.116","0.693","7.41","0.413","3.659","0.06","0.14","30.1475","4.73917","7.65","0","SATNPRO1962","21.722","0.30426","5"],
    [35056,"HCEP03730560","2024-09-27 10:45:00","11.2451","3.4351","26.301","0.682","7.41","0.442","3.677","0.05","0.22","30.1446","4.7387","7.53","0","SATNPRO1962","21.762","0.30482","5"],
    [35057,"HCEP03730560","2024-09-27 11:00:00","11.2426","3.43424","26.52","0.665","7.41","0.449","3.686","0.07","0.24","30.1382","4.73784","7.34","0","SATNPRO1962","21.53","0.30158","5"],
    [35058,"HCEP03730560","2024-09-27 11:15:00","11.2395","3.43393","26.686","0.644","7.41","0.479","3.642","0.1","0.35","30.1377","4.73783","7.11","0","SATNPRO1962","21.464","0.30066","5"],
    [35059,"HCEP03730560","2024-09-27 11:30:00","11.2393","3.43339","26.85","0.629","7.4","0.466","3.616","0.1","0.32","30.1325","4.7371","6.94","0","SATNPRO1962","21.298000000000002","0.29836","5"],
    [35060,"HCEP03730560","2024-09-27 11:45:00","11.2397","3.43276","27.045","0.61","7.4","0.501","3.504","0.11","0.15","30.126","4.73619","6.73","0","SATNPRO1962","21.124000000000002","0.29584","5"],
    [35061,"HCEP03730560","2024-09-27 12:00:00","11.2438","3.43261","27.153","0.61","7.4","0.5","3.39","0.09","0.1","30.1211","4.73544","6.73","0","SATNPRO1962","21.008","0.29424","5"],
    [35062,"HCEP03730560","2024-09-27 12:15:00","11.2484","3.43263","27.292","0.616","7.4","0.568","3.572","0.1","0.16","30.1175","4.73488","6.79","0","SATNPRO1962","21.062","0.29498","5"],
    [35063,"HCEP03730560","2024-09-27 12:30:00","11.2582","3.43282","27.397","0.642","7.4","0.536","3.588","0.06","0.15","30.1113","4.73385","7.08","0","SATNPRO1962","21.122","0.29586","5"],
    [35064,"HCEP03730560","2024-09-27 12:45:00","11.2683","3.43359","27.504","0.673","7.4","0.617","3.732","0.11","0.28","30.1105","4.7336","7.43","0","SATNPRO1962","21.496","0.30104","5"],
    [35065,"HCEP03730560","2024-09-27 13:00:00","11.2787","3.43406","27.587","0.709","7.41","0.631","3.803","0.11","0.26","30.1066","4.73289","7.83","0","SATNPRO1962","21.626","0.30292","5"],
    [35066,"HCEP03730560","2024-09-27 13:15:00","11.2881","3.43365","27.679","0.751","7.41","0.695","3.705","0.15","0.26","30.0949","4.7311","8.29","0","SATNPRO1962","21.512","0.30134","5"],
    [35067,"HCEP03730560","2024-09-27 13:30:00","11.2696","3.43194","27.758","0.741","7.41","0.629","3.844","0.09","0.25","30.0934","4.73116","8.18","0","SATNPRO1962","20.695999999999998","0.28986","5"],
    [35068,"HCEP03730560","2024-09-27 13:45:00","11.2289","3.42758","27.774","0.611","7.4","0.671","3.812","0.14","0.18","30.0841","4.73045","6.74","0","SATNPRO1962","18.93","0.26512","5"],
    [35069,"HCEP03730560","2024-09-27 14:00:00","11.2123","3.42561","27.772","0.44","7.39","0.702","3.645","0.13","0.11","30.0784","4.7299","4.85","0","SATNPRO1962","18.166","0.25448","5"],
    [35070,"HCEP03730560","2024-09-27 14:15:00","11.2134","3.4257","27.784","0.384","7.38","0.749","3.773","0.1","0.13","30.0784","4.72988","4.24","0","SATNPRO1962","18.096","0.25348","5"],
    [35071,"HCEP03730560","2024-09-27 14:30:00","11.2341","3.42803","27.788","0.412","7.38","0.729","3.845","0.13","0.22","30.0841","4.73039","4.54","0","SATNPRO1962","19.088","0.26732","5"],
    [35072,"HCEP03730560","2024-09-27 14:45:00","11.2744","3.43223","27.784","0.525","7.39","0.93","3.866","0.21","0.22","30.0922","4.73092","5.8","0","SATNPRO1962","20.86","0.29214","5"],
    [35073,"HCEP03730560","2024-09-27 15:00:00","11.2843","3.43318","27.761","0.665","7.4","1.033","3.876","0.23","0.18","30.0933","4.73093","7.35","0","SATNPRO1962","21.186","0.29674","5"],
    [35074,"HCEP03730560","2024-09-27 15:15:00","11.3289","3.4344","27.723","0.778","7.41","1.071","3.908","0.16","0.28","30.0688","4.7268","8.59","0","SATNPRO1962","21.798000000000002","0.3053","5"],
    [35075,"HCEP03730560","2024-09-27 15:30:00","11.313","3.43442","27.674","0.864","7.41","1.126","4.358","0.14","0.42","30.0821","4.72891","9.55","0","SATNPRO1962","21.69","0.30382","5"],
    [35076,"HCEP03730560","2024-09-27 15:45:00","11.3394","3.43818","27.638","0.896","7.42","1.502","5.391","0.16","0.6","30.0971","4.73065","9.91","0","SATNPRO1962","22.548000000000002","0.31584","5"],
    [35077,"HCEP03730560","2024-09-27 16:00:00","11.3857","3.44623","27.586","1.103","7.44","1.372","5.55","0.19","0.4","30.1374","4.73568","12.21","0","SATNPRO1962","25.137999999999998","0.35208","5"],
    [35078,"HCEP03730560","2024-09-27 16:15:00","11.3576","3.44546","27.528","1.286","7.45","0.993","4.91","0.14","0.33","30.153","4.7383","14.22","0","SATNPRO1962","24.976","0.3498","5"],
    [35079,"HCEP03730560","2024-09-27 16:30:00","11.3362","3.44394","27.451","1.194","7.44","0.762","4.434","0.13","0.22","30.1558","4.739","13.21","0","SATNPRO1962","24.35","0.34108","5"],
    [35080,"HCEP03730560","2024-09-27 16:45:00","11.3236","3.44262","27.37","1.096","7.44","0.71","4.127","0.08","0.16","30.1532","4.73882","12.11","0","SATNPRO1962","23.81","0.33354","5"],
    [35081,"HCEP03730560","2024-09-27 17:00:00","11.3136","3.44168","27.276","1.026","7.44","0.692","4.293","0.12","0.25","30.1523","4.73883","11.34","0","SATNPRO1962","23.624000000000002","0.3309","5"],
    [35082,"HCEP03730560","2024-09-27 17:15:00","11.3038","3.44047","27.181","0.958","7.43","0.606","4.05","0.09","0.26","30.1485","4.73844","10.58","0","SATNPRO1962","23.07","0.32314","5"],
    [35083,"HCEP03730560","2024-09-27 17:30:00","11.2946","3.43892","27.088","0.892","7.43","0.551","3.985","0.13","0.35","30.1411","4.73752","9.85","0","SATNPRO1962","22.54","0.31572","5"],
    [35084,"HCEP03730560","2024-09-27 17:45:00","11.2855","3.4379","26.996","0.825","7.42","0.491","4.011","0.06","1.27","30.1385","4.73729","9.11","0","SATNPRO1962","22.026","0.3085","5"],
    [35085,"HCEP03730560","2024-09-27 18:00:00","11.2784","3.43677","26.877","0.775","7.42","0.453","3.668","0.08","0.24","30.1334","4.73666","8.56","0","SATNPRO1962","21.588","0.3024","5"],
    [35086,"HCEP03730560","2024-09-27 18:15:00","11.2785","3.43648","26.778","0.754","7.42","0.483","3.697","0.13","0.2","30.1305","4.73624","8.33","0","SATNPRO1962","21.306","0.29844","5"],
    [35087,"HCEP03730560","2024-09-27 18:30:00","11.2902","3.43743","26.68","0.797","7.42","0.513","4.306","0.05","0.47","30.1304","4.73604","8.81","0","SATNPRO1962","21.938","0.3073","5"],
    [35088,"HCEP03730560","2024-09-27 18:45:00","11.3119","3.43987","26.603","0.953","7.43","0.536","3.679","0.08","0.15","30.1364","4.73657","10.54","0","SATNPRO1962","22.466","0.31466","5"],
    [35089,"HCEP03730560","2024-09-27 19:00:00","11.35","3.44519","26.506","1.208","7.44","0.596","3.987","0.1","0.29","30.1569","4.7389","13.36","0","SATNPRO1962","24.832","0.34782","5"],
    [35090,"HCEP03730560","2024-09-27 19:15:00","11.3633","3.44775","26.429","1.517","7.46","0.565","3.68","0.11","0.33","30.171","4.7407","16.79","0","SATNPRO1962","25.516","0.35738","5"],
    [35091,"HCEP03730560","2024-09-27 19:30:00","11.367","3.44918","26.365","1.66","7.48","0.493","3.488","0.08","0.16","30.1819","4.74218","18.37","0","SATNPRO1962","25.79","0.36124","5"],
    [35092,"HCEP03730560","2024-09-27 19:45:00","11.3687","3.44985","26.326","1.718","7.48","0.477","3.386","0.04","0.21","30.187","4.74289","19.02","0","SATNPRO1962","25.956","0.3636","5"],
    [35093,"HCEP03730560","2024-09-27 20:00:00","11.3683","3.44969","26.289","1.739","7.49","0.493","3.671","0.05","0.17","30.1858","4.74271","19.25","0","SATNPRO1962","25.826","0.36172","5"],
    [35094,"HCEP03730560","2024-09-27 20:15:00","11.3741","3.45053","26.268","1.76","7.49","0.548","3.582","0.07","0.18","30.1892","4.74312","19.49","0","SATNPRO1962","26.356","0.36916","5"],
    [35095,"HCEP03730560","2024-09-27 20:30:00","11.372","3.45047","26.26","1.798","7.5","0.481","3.488","0.09","0.13","30.1903","4.7433","19.9","0","SATNPRO1962","26.164","0.36644","5"],
    [35096,"HCEP03730560","2024-09-27 20:45:00","11.3673","3.44963","26.28","1.759","7.5","0.442","3.508","0.07","0.16","30.186","4.74276","19.47","0","SATNPRO1962","25.646","0.35924","5"],
    [35097,"HCEP03730560","2024-09-27 21:00:00","11.3646","3.44889","26.301","1.692","7.49","0.426","3.538","0.07","0.17","30.1811","4.7421","18.72","0","SATNPRO1962","25.376","0.35544","5"],
    [35098,"HCEP03730560","2024-09-27 21:15:00","11.3642","3.44854","26.327","1.639","7.49","0.504","3.628","0.07","0.13","30.178","4.74167","18.13","0","SATNPRO1962","25.242","0.35356","5"],
    [35099,"HCEP03730560","2024-09-27 21:30:00","11.3611","3.44899","26.36","1.569","7.49","0.545","3.503","0.1","0.18","30.1849","4.74269","17.36","0","SATNPRO1962","24.942","0.34936","5"],
    [35100,"HCEP03730560","2024-09-27 21:45:00","11.3715","3.45105","26.398","1.52","7.48","0.565","3.531","0.07","0.55","30.1964","4.74417","16.82","0","SATNPRO1962","25.442","0.3564","5"],
    [35101,"HCEP03730560","2024-09-27 22:00:00","11.3779","3.45212","26.431","1.584","7.49","0.535","3.351","0.09","0.15","30.2015","4.74481","17.54","0","SATNPRO1962","25.916","0.363","5"],
    [35102,"HCEP03730560","2024-09-27 22:15:00","11.382","3.45289","26.475","1.644","7.49","0.556","3.552","0.06","0.23","30.2056","4.74533","18.21","0","SATNPRO1962","26.032","0.36462","5"],
    [35103,"HCEP03730560","2024-09-27 22:30:00","11.3781","3.45299","26.513","1.638","7.49","0.557","3.985","0.06","0.2","30.2097","4.74598","18.13","0","SATNPRO1962","26.064","0.36504","5"],
    [35104,"HCEP03730560","2024-09-27 22:45:00","11.3861","3.45451","26.555","1.62","7.49","0.704","4.691","0.11","0.45","30.2179","4.74701","17.94","0","SATNPRO1962","26.788","0.37526","5"],
    [35105,"HCEP03730560","2024-09-27 23:00:00","11.3927","3.45659","26.602","1.681","7.5","0.645","3.968","0.1","0.26","30.2327","4.74902","18.62","0","SATNPRO1962","27.354","0.38316","5"],
    [35106,"HCEP03730560","2024-09-27 23:15:00","11.3925","3.45624","26.665","1.726","7.5","0.731","4.448","0.1","0.21","30.2294","4.74855","19.12","0","SATNPRO1962","27.348","0.38308","5"],
    [35107,"HCEP03730560","2024-09-27 23:30:00","11.3923","3.45665","26.705","1.73","7.5","0.802","4.068","0.19","0.26","30.2336","4.74916","19.16","0","SATNPRO1962","27.316","0.3826","5"],
    [35108,"HCEP03730560","2024-09-27 23:45:00","11.392","3.45661","26.748","1.738","7.5","0.878","4.136","0.2","0.34","30.2335","4.74915","19.25","0","SATNPRO1962","27.464","0.38466","5"],
    [35109,"HCEP03730560","2024-09-28 00:00:00","11.3929","3.45697","26.783","1.743","7.5","0.797","4.104","0.17","0.33","30.2362","4.74951","19.31","0","SATNPRO1962","27.51","0.38534","5"],
    [35110,"HCEP03730560","2024-09-28 00:15:00","11.3921","3.45691","26.84","1.749","7.5","1.066","4.72","0.11","0.35","30.2362","4.74953","19.38","0","SATNPRO1962","27.38","0.38352","5"],
    [35111,"HCEP03730560","2024-09-28 00:30:00","11.3928","3.45717","26.879","1.744","7.5","1.014","4.623","0.11","0.41","30.238","4.74979","19.31","0","SATNPRO1962","27.24","0.38154","5"],
    [35112,"HCEP03730560","2024-09-28 00:45:00","11.3983","3.45864","26.907","1.762","7.51","0.687","4.237","0.1","0.73","30.2478","4.7511","19.53","0","SATNPRO1962","27.272000000000002","0.382","5"],
    [35113,"HCEP03730560","2024-09-28 01:00:00","11.4045","3.46016","26.931","1.797","7.51","0.647","3.805","0.13","0.19","30.2576","4.75238","19.92","0","SATNPRO1962","27.626","0.38694","5"],
    [35114,"HCEP03730560","2024-09-28 01:15:00","11.4068","3.46068","26.944","1.825","7.51","0.644","4.166","0.09","0.29","30.2607","4.75279","20.22","0","SATNPRO1962","27.544","0.38578","5"],
    [35115,"HCEP03730560","2024-09-28 01:30:00","11.4053","3.46027","26.944","1.831","7.51","0.677","4.238","0.1","0.26","30.258","4.75243","20.29","0","SATNPRO1962","27.698","0.38796","5"],
    [35116,"HCEP03730560","2024-09-28 01:45:00","11.4006","3.45921","26.931","1.825","7.51","0.791","4.24","0.14","0.26","30.2515","4.75158","20.22","0","SATNPRO1962","27.498","0.38516","5"],
    [35117,"HCEP03730560","2024-09-28 02:00:00","11.4035","3.45978","26.918","1.827","7.51","0.752","3.992","0.12","0.18","30.2546","4.75198","20.25","0","SATNPRO1962","27.44","0.38434","5"],
    [35118,"HCEP03730560","2024-09-28 02:15:00","11.4034","3.45977","26.886","1.844","7.51","0.823","3.984","0.24","0.35","30.2546","4.75198","20.44","0","SATNPRO1962","27.604","0.38662","5"],
    [35119,"HCEP03730560","2024-09-28 02:30:00","11.4002","3.459","26.835","1.844","7.51","0.754","3.859","0.18","0.21","30.2498","4.75135","20.43","0","SATNPRO1962","27.348","0.38304","5"],
    [35120,"HCEP03730560","2024-09-28 02:45:00","11.3985","3.45871","26.772","1.829","7.51","0.636","3.904","0.11","0.22","30.2484","4.75117","20.26","0","SATNPRO1962","27.606","0.38668","5"],
    [35121,"HCEP03730560","2024-09-28 03:00:00","11.3982","3.45852","26.686","1.818","7.51","0.663","4.066","0.14","0.61","30.2468","4.75094","20.14","0","SATNPRO1962","27.582","0.38636","5"],
    [35122,"HCEP03730560","2024-09-28 03:15:00","11.4001","3.45897","26.598","1.817","7.51","0.606","3.83","0.08","0.15","30.2497","4.75132","20.14","0","SATNPRO1962","27.424","0.38414","5"],
    [35123,"HCEP03730560","2024-09-28 03:30:00","11.4016","3.45923","26.499","1.83","7.51","0.677","3.955","0.3","0.3","30.2511","4.75148","20.28","0","SATNPRO1962","27.472","0.38478","5"],
    [35124,"HCEP03730560","2024-09-28 03:45:00","11.4035","3.45959","26.39","1.848","7.51","0.557","3.705","0.1","0.26","30.2531","4.75173","20.48","0","SATNPRO1962","27.536","0.3857","5"],
    [35125,"HCEP03730560","2024-09-28 04:00:00","11.4073","3.46044","26.266","1.86","7.52","0.844","3.742","0.63","0.22","30.2582","4.7524","20.62","0","SATNPRO1962","27.592","0.38648","5"],
    [35126,"HCEP03730560","2024-09-28 04:15:00","11.4122","3.46146","26.134","1.888","7.52","0.686","3.809","0.35","0.34","30.2642","4.75316","20.93","0","SATNPRO1962","27.71","0.38812","5"],
    [35127,"HCEP03730560","2024-09-28 04:30:00","11.4137","3.46174","25.991","1.911","7.52","0.67","3.744","0.35","0.24","30.2658","4.75336","21.19","0","SATNPRO1962","27.676","0.38768","5"],
    [35128,"HCEP03730560","2024-09-28 04:45:00","11.4161","3.46228","25.85","1.923","7.52","0.657","3.879","0.18","0.22","30.269","4.75377","21.31","0","SATNPRO1962","27.554","0.38592","5"],
    [35129,"HCEP03730560","2024-09-28 05:00:00","11.4206","3.46308","25.705","1.927","7.52","0.748","4.023","0.43","0.29","30.2732","4.75429","21.36","0","SATNPRO1962","27.573999999999998","0.3862","5"],
    [35130,"HCEP03730560","2024-09-28 05:15:00","11.4277","3.46464","25.56","1.947","7.53","0.553","3.714","0.3","0.25","30.2826","4.75551","21.6","0","SATNPRO1962","27.892","0.39068","5"],
    [35131,"HCEP03730560","2024-09-28 05:30:00","11.4304","3.46526","25.405","1.992","7.53","0.546","3.876","0.1","0.22","30.2864","4.756","22.09","0","SATNPRO1962","27.986","0.39204","5"],
    [35132,"HCEP03730560","2024-09-28 05:45:00","11.4324","3.46578","25.232","1.996","7.53","0.803","4.083","0.34","0.18","30.2899","4.75645","22.14","0","SATNPRO1962","27.942","0.39136","5"],
    [35133,"HCEP03730560","2024-09-28 06:00:00","11.4358","3.46647","25.097","1.991","7.53","0.631","4.376","0.15","0.38","30.2938","4.75696","22.08","0","SATNPRO1962","27.984","0.39196","5"],
    [35134,"HCEP03730560","2024-09-28 06:15:00","11.4418","3.46767","25.001","2.003","7.53","1","4.107","0.84","0.25","30.3006","4.75782","22.22","0","SATNPRO1962","28.01","0.39232","5"],
    [35135,"HCEP03730560","2024-09-28 06:30:00","11.4451","3.46823","24.886","2.029","7.53","0.592","3.883","0.28","0.29","30.3034","4.75816","22.51","0","SATNPRO1962","28.194","0.3949","5"],
    [35136,"HCEP03730560","2024-09-28 06:45:00","11.4506","3.46899","24.786","2.067","7.54","0.674","4.315","0.23","0.91","30.3062","4.75848","22.94","0","SATNPRO1962","28.23","0.39542","5"],
    [35137,"HCEP03730560","2024-09-28 07:00:00","11.4479","3.46874","24.706","2.078","7.54","0.661","4.25","0.29","0.94","30.306","4.75848","23.05","0","SATNPRO1962","28.11","0.3937","5"],
    [35138,"HCEP03730560","2024-09-28 07:15:00","11.4503","3.46904","24.647","2.069","7.54","0.586","3.842","0.15","0.29","30.307","4.75858","22.95","0","SATNPRO1962","28.124","0.39388","5"],
    [35139,"HCEP03730560","2024-09-28 07:30:00","11.4496","3.46904","24.614","2.068","7.54","0.522","3.657","0.11","0.13","30.3077","4.75869","22.95","0","SATNPRO1962","28.194","0.3949","5"],
    [35140,"HCEP03730560","2024-09-28 07:45:00","11.4511","3.46917","24.594","2.061","7.54","0.512","3.272","0.12","0.11","30.3076","4.75865","22.87","0","SATNPRO1962","28.024","0.3925","5"],
    [35141,"HCEP03730560","2024-09-28 08:00:00","11.4543","3.46989","24.601","2.067","7.54","0.532","3.939","0.13","0.12","30.312","4.75923","22.94","0","SATNPRO1962","27.86","0.39024","5"],
    [35142,"HCEP03730560","2024-09-28 08:15:00","11.4568","3.47041","24.633","2.074","7.54","0.687","5.077","0.08","0.49","30.315","4.75962","23.02","0","SATNPRO1962","28.064","0.39308","5"],
    [35143,"HCEP03730560","2024-09-28 08:30:00","11.4611","3.4711","24.68","2.097","7.54","0.478","3.754","0.09","0.29","30.3181","4.76","23.28","0","SATNPRO1962","28.116","0.3938","5"],
    [35144,"HCEP03730560","2024-09-28 08:45:00","11.4638","3.47152","24.745","2.129","7.55","0.559","3.582","0.18","0.16","30.32","4.76023","23.63","0","SATNPRO1962","28.226","0.3954","5"],
    [35145,"HCEP03730560","2024-09-28 09:00:00","11.4679","3.47224","24.845","2.159","7.55","0.472","3.485","0.09","0.13","30.3236","4.76068","23.97","0","SATNPRO1962","28.322","0.39672","5"],
    [35146,"HCEP03730560","2024-09-28 09:15:00","11.4689","3.47239","24.968","2.18","7.55","0.697","4.914","0.1","0.34","30.3242","4.76076","24.2","0","SATNPRO1962","28.134","0.39404","5"],
    [35147,"HCEP03730560","2024-09-28 09:30:00","11.468","3.47236","25.106","2.169","7.55","0.564","4.224","0.06","0.19","30.3245","4.76082","24.08","0","SATNPRO1962","28.258","0.3958","5"],
    [35148,"HCEP03730560","2024-09-28 09:45:00","11.4682","3.47224","25.206","2.169","7.55","0.519","3.612","0.07","0.13","30.3232","4.76065","24.08","0","SATNPRO1962","28.22","0.3953","5"],
    [35149,"HCEP03730560","2024-09-28 10:00:00","11.4565","3.47011","25.343","2.163","7.55","0.686","3.519","0.36","0.36","30.3121","4.75925","24","0","SATNPRO1962","28.082","0.39332","5"],
    [35150,"HCEP03730560","2024-09-28 10:15:00","11.4556","3.47009","25.502","2.127","7.55","0.579","3.653","0.11","0.3","30.3125","4.75934","23.61","0","SATNPRO1962","28.16","0.39442","5"],
    [35151,"HCEP03730560","2024-09-28 10:30:00","11.4507","3.4689","25.651","2.109","7.55","0.48","3.246","0.08","0.15","30.305","4.75834","23.41","0","SATNPRO1962","28.202","0.395","5"],
    [35152,"HCEP03730560","2024-09-28 10:45:00","11.4482","3.46847","25.801","2.101","7.54","0.612","3.525","0.15","0.26","30.3028","4.75809","23.32","0","SATNPRO1962","28.268","0.39592","5"],
    [35153,"HCEP03730560","2024-09-28 11:00:00","11.4448","3.46788","25.957","2.068","7.54","0.523","3.506","0.09","0.4","30.2998","4.75771","22.95","0","SATNPRO1962","28.098","0.39358","5"],
    [35154,"HCEP03730560","2024-09-28 11:15:00","11.4431","3.46756","25.948","2.048","7.54","0.475","3.134","0.1","0.11","30.298","4.75749","22.72","0","SATNPRO1962","28.216","0.39522","5"],
    [35155,"HCEP03730560","2024-09-28 11:30:00","11.4623","3.46827","26.131","2.156","7.55","0.454","2.575","0.14","0.09","30.2891","4.75596","23.93","0","SATNPRO1962","28.708000000000002","0.4021","5"],
    [35156,"HCEP03730560","2024-09-28 11:45:00","11.4446","3.46764","26.424","2.272","7.55","0.46","3.015","0.06","0.06","30.2975","4.75741","25.2","0","SATNPRO1962","28.12","0.39384","5"],
    [35157,"HCEP03730560","2024-09-28 12:00:00","11.4435","3.46775","26.578","2.101","7.54","0.533","3.188","0.33","0.14","30.2994","4.75771","23.31","0","SATNPRO1962","28.068","0.39314","5"],
    [35158,"HCEP03730560","2024-09-28 12:15:00","11.447","3.46845","26.809","2.049","7.54","0.519","3.429","0.16","0.16","30.3032","4.75822","22.73","0","SATNPRO1962","28.054000000000002","0.39296","5"],
    [35159,"HCEP03730560","2024-09-28 12:30:00","11.4461","3.46821","26.991","2.039","7.54","0.579","3.508","0.23","0.39","30.3014","4.75799","22.62","0","SATNPRO1962","28.016","0.39242","5"],
    [35160,"HCEP03730560","2024-09-28 12:45:00","11.4513","3.46961","27.128","2.033","7.54","0.521","3.428","0.07","0.12","30.3108","4.75924","22.56","0","SATNPRO1962","27.748","0.38866","5"],
    [35161,"HCEP03730560","2024-09-28 13:00:00","11.4532","3.4702","27.266","1.994","7.54","0.517","3.647","0.08","0.11","30.3149","4.75981","22.13","0","SATNPRO1962","27.51","0.3853","5"],
    [35162,"HCEP03730560","2024-09-28 13:15:00","11.4525","3.46996","27.384","1.96","7.53","0.531","3.562","0.14","0.22","30.313","4.75956","21.75","0","SATNPRO1962","27.53","0.38564","5"],
    [35163,"HCEP03730560","2024-09-28 13:30:00","11.4534","3.47022","27.503","1.953","7.53","0.536","3.815","0.06","0.17","30.3148","4.7598","21.68","0","SATNPRO1962","27.408","0.38388","5"],
    [35164,"HCEP03730560","2024-09-28 13:45:00","11.4568","3.47108","27.595","1.931","7.53","0.547","3.865","0.08","0.22","30.3203","4.76054","21.43","0","SATNPRO1962","27.426000000000002","0.38412","5"],
    [35165,"HCEP03730560","2024-09-28 14:00:00","11.4555","3.47072","27.683","1.929","7.53","0.544","3.722","0.1","0.44","30.3178","4.76021","21.41","0","SATNPRO1962","27.364","0.38326","5"],
    [35166,"HCEP03730560","2024-09-28 14:15:00","11.4556","3.47095","27.749","1.929","7.53","0.673","3.627","0.43","0.16","30.32","4.76051","21.41","0","SATNPRO1962","27.368000000000002","0.38334","5"],
    [35167,"HCEP03730560","2024-09-28 14:30:00","11.4536","3.47029","27.8","1.937","7.53","0.539","3.504","0.22","0.15","30.3153","4.75988","21.5","0","SATNPRO1962","27.346","0.38304","5"],
    [35168,"HCEP03730560","2024-09-28 14:45:00","11.4537","3.47026","27.829","1.946","7.53","0.582","3.694","0.18","0.22","30.3148","4.75982","21.6","0","SATNPRO1962","27.556","0.38598","5"],
    [35169,"HCEP03730560","2024-09-28 15:00:00","11.4525","3.47027","27.813","1.937","7.53","0.527","3.596","0.11","0.18","30.3159","4.75999","21.49","0","SATNPRO1962","27.266","0.3819","5"],
    [35170,"HCEP03730560","2024-09-28 15:15:00","11.4523","3.47028","27.82","1.917","7.53","0.525","3.681","0.11","0.21","30.3162","4.76004","21.28","0","SATNPRO1962","27.204","0.38106","5"],
    [35171,"HCEP03730560","2024-09-28 15:30:00","11.4491","3.46934","27.805","1.91","7.53","0.515","3.353","0.32","0.2","30.3097","4.75916","21.19","0","SATNPRO1962","27.454","0.38454","5"],
    [35172,"HCEP03730560","2024-09-28 15:45:00","11.45","3.4698","27.787","1.919","7.53","0.475","3.532","0.09","0.11","30.3134","4.75967","21.29","0","SATNPRO1962","27.1","0.37956","5"],
    [35173,"HCEP03730560","2024-09-28 16:00:00","11.4491","3.4696","27.742","1.898","7.53","0.463","3.429","0.11","0.11","30.3122","4.75951","21.06","0","SATNPRO1962","27.022","0.37844","5"],
    [35174,"HCEP03730560","2024-09-28 16:15:00","11.4468","3.46899","27.674","1.901","7.53","0.455","3.446","0.1","0.22","30.3082","4.75897","21.09","0","SATNPRO1962","27.284","0.38218","5"],
    [35175,"HCEP03730560","2024-09-28 16:30:00","11.4444","3.46843","27.565","1.913","7.53","0.731","3.673","0.7","0.23","30.3049","4.75853","21.23","0","SATNPRO1962","27.288","0.38218","5"],
    [35176,"HCEP03730560","2024-09-28 16:45:00","11.4425","3.46759","27.502","1.935","7.53","0.638","3.536","0.28","0.21","30.2983","4.75762","21.46","0","SATNPRO1962","27.602","0.38658","5"],
    [35177,"HCEP03730560","2024-09-28 17:00:00","11.4433","3.46819","27.41","1.941","7.53","0.44","3.422","0.05","0.14","30.3034","4.75833","21.53","0","SATNPRO1962","27.598","0.38656","5"],
    [35178,"HCEP03730560","2024-09-28 17:15:00","11.4414","3.46694","27.323","1.943","7.53","0.596","3.66","0.1","0.28","30.293","4.75688","21.56","0","SATNPRO1962","27.732","0.38844","5"],
    [35179,"HCEP03730560","2024-09-28 17:30:00","11.437","3.46591","27.227","2.008","7.53","0.43","3.041","0.07","0.31","30.2866","4.75603","22.27","0","SATNPRO1962","27.54","0.38572","5"],
    [35180,"HCEP03730560","2024-09-28 17:45:00","11.4428","3.46711","27.115","2.037","7.54","0.473","2.851","0.17","0.18","30.2935","4.75692","22.6","0","SATNPRO1962","27.868000000000002","0.39034","5"],
    [35181,"HCEP03730560","2024-09-28 18:00:00","11.4389","3.46614","27","2.075","7.54","0.34","2.692","0.05","0.08","30.2873","4.75609","23.02","0","SATNPRO1962","28.034","0.39266","5"],
    [35182,"HCEP03730560","2024-09-28 18:15:00","11.4409","3.46652","26.887","2.083","7.54","0.361","2.693","0.05","0.1","30.2894","4.75636","23.11","0","SATNPRO1962","28.09","0.39344","5"],
    [35183,"HCEP03730560","2024-09-28 18:30:00","11.4367","3.46542","26.773","2.094","7.54","0.345","2.584","0.05","0.15","30.2823","4.7554","23.22","0","SATNPRO1962","28.004","0.39224","5"],
    [35184,"HCEP03730560","2024-09-28 18:45:00","11.4417","3.46653","26.669","2.094","7.54","0.477","2.698","0.18","0.08","30.289","4.75627","23.23","0","SATNPRO1962","28.004","0.39228","5"],
    [35185,"HCEP03730560","2024-09-28 19:00:00","11.4352","3.46469","26.542","2.103","7.54","0.286","2.673","0.05","0.16","30.2765","4.75459","23.33","0","SATNPRO1962","28.304","0.39644","5"],
    [35186,"HCEP03730560","2024-09-28 19:15:00","11.4411","3.46628","26.428","2.1","7.54","0.4","2.71","0.07","0.09","30.2872","4.75601","23.3","0","SATNPRO1962","27.919999999999998","0.39108","5"],
    [35187,"HCEP03730560","2024-09-28 19:30:00","11.4407","3.46611","26.325","2.109","7.54","0.374","2.877","0.08","0.09","30.2859","4.75583","23.39","0","SATNPRO1962","27.91","0.39094","5"],
    [35188,"HCEP03730560","2024-09-28 19:45:00","11.4416","3.46687","26.214","2.078","7.54","0.384","3.045","0.03","0.09","30.2925","4.75674","23.06","0","SATNPRO1962","27.36","0.38322","5"],
    [35189,"HCEP03730560","2024-09-28 20:00:00","11.4413","3.46685","26.139","2.006","7.54","0.337","3.085","0.03","0.16","30.2925","4.75675","22.25","0","SATNPRO1962","27.12","0.37984","5"],
    [35190,"HCEP03730560","2024-09-28 20:15:00","11.4409","3.46628","26.063","2.014","7.54","0.353","2.873","0.04","0.05","30.2874","4.75602","22.34","0","SATNPRO1962","27.534","0.3857","5"],
    [35191,"HCEP03730560","2024-09-28 20:30:00","11.4409","3.46577","26.018","2.082","7.54","0.4","2.713","0.17","0.13","30.2825","4.75533","23.09","0","SATNPRO1962","27.712","0.38816","5"],
    [35192,"HCEP03730560","2024-09-28 20:45:00","11.4386","3.46554","25.985","2.114","7.54","0.341","2.745","0.03","0.11","30.2822","4.75532","23.45","0","SATNPRO1962","27.662","0.38748","5"],
    [35193,"HCEP03730560","2024-09-28 21:00:00","11.4346","3.46443","26.002","2.076","7.54","0.319","2.789","0.03","0.08","30.2747","4.75431","23.02","0","SATNPRO1962","27.724","0.38832","5"],
    [35194,"HCEP03730560","2024-09-28 21:15:00","11.4378","3.46606","26.031","1.994","7.53","0.396","3.486","0.04","0.14","30.2879","4.75613","22.12","0","SATNPRO1962","26.87","0.37636","5"],
    [35195,"HCEP03730560","2024-09-28 21:30:00","11.4382","3.46642","26.076","1.925","7.53","0.37","3.578","0.03","0.11","30.2911","4.75658","21.35","0","SATNPRO1962","26.806","0.37546","5"],
    [35196,"HCEP03730560","2024-09-28 21:45:00","11.4382","3.46648","26.103","1.877","7.53","0.398","3.67","0.04","0.13","30.2916","4.75667","20.82","0","SATNPRO1962","26.718","0.37426","5"],
    [35197,"HCEP03730560","2024-09-28 22:00:00","11.4382","3.46682","26.149","1.844","7.52","0.386","3.942","0.04","0.11","30.2948","4.75712","20.46","0","SATNPRO1962","25.924","0.3631","5"],
    [35198,"HCEP03730560","2024-09-28 22:15:00","11.4383","3.46693","26.208","1.795","7.52","0.381","3.56","0.03","0.12","30.2958","4.75726","19.91","0","SATNPRO1962","26.378","0.36946","5"],
    [35199,"HCEP03730560","2024-09-28 22:30:00","11.4384","3.46726","26.238","1.755","7.52","0.416","4.074","0.04","0.15","30.2989","4.7577","19.47","0","SATNPRO1962","25.886","0.36258","5"],
    [35200,"HCEP03730560","2024-09-28 22:45:00","11.4385","3.46765","26.305","1.673","7.51","0.415","4.102","0.02","0.12","30.3025","4.75822","18.55","0","SATNPRO1962","25.534","0.35766","5"],
    [35201,"HCEP03730560","2024-09-28 23:00:00","11.4421","3.46826","26.401","1.63","7.51","0.393","3.906","0.03","0.16","30.3055","4.75859","18.08","0","SATNPRO1962","26.080000000000002","0.36528","5"],
    [35202,"HCEP03730560","2024-09-28 23:15:00","11.4438","3.46823","26.458","1.689","7.51","0.517","4.002","0.44","1.44","30.3038","4.75832","18.74","0","SATNPRO1962","26.536","0.3717","5"],
    [35203,"HCEP03730560","2024-09-28 23:30:00","11.4449","3.46816","26.546","1.766","7.51","0.386","3.704","0.11","0.11","30.3021","4.75808","19.59","0","SATNPRO1962","26.518","0.37144","5"],
    [35204,"HCEP03730560","2024-09-28 23:45:00","11.4447","3.46781","26.615","1.841","7.52","0.393","3.128","0.08","0.12","30.299","4.75764","20.42","0","SATNPRO1962","26.978","0.3779","5"],
    [35205,"HCEP03730560","2024-09-29 00:00:00","11.4428","3.4671","26.725","1.939","7.52","0.392","3.16","0.07","0.12","30.2936","4.75691","21.52","0","SATNPRO1962","27.546","0.38582","5"],
    [35206,"HCEP03730560","2024-09-29 00:15:00","11.44","3.46639","26.75","2.011","7.53","0.396","3.201","0.04","0.16","30.289","4.7563","22.3","0","SATNPRO1962","27.93","0.3912","5"],
    [35207,"HCEP03730560","2024-09-29 00:30:00","11.4388","3.46656","26.849","1.998","7.53","0.411","3.446","0.04","0.14","30.2915","4.75669","22.16","0","SATNPRO1962","26.876","0.37644","5"],
    [35208,"HCEP03730560","2024-09-29 00:45:00","11.4421","3.46838","26.908","1.85","7.52","0.489","4.46","0.05","0.09","30.3065","4.75875","20.52","0","SATNPRO1962","25.752","0.3607","5"],
    [35209,"HCEP03730560","2024-09-29 01:00:00","11.4426","3.46886","26.967","1.66","7.51","0.494","4.848","0.05","0.16","30.3107","4.75934","18.42","0","SATNPRO1962","25.68","0.3597","5"],
    [35210,"HCEP03730560","2024-09-29 01:15:00","11.4466","3.46957","27.052","1.599","7.51","0.577","4.809","0.07","0.14","30.3143","4.7598","17.74","0","SATNPRO1962","25.552","0.35786","5"],
    [35211,"HCEP03730560","2024-09-29 01:30:00","11.4489","3.47004","27.105","1.614","7.5","0.564","5.072","0.05","0.2","30.3169","4.76014","17.91","0","SATNPRO1962","25.794","0.36128","5"],
    [35212,"HCEP03730560","2024-09-29 01:45:00","11.4528","3.47064","27.166","1.642","7.51","0.575","4.848","0.04","0.17","30.3195","4.76046","18.22","0","SATNPRO1962","26.236","0.36744","5"],
    [35213,"HCEP03730560","2024-09-29 02:00:00","11.4553","3.47091","27.19","1.71","7.51","0.64","4.97","0.15","0.28","30.32","4.76049","18.97","0","SATNPRO1962","26.348","0.36904","5"],
    [35214,"HCEP03730560","2024-09-29 02:15:00","11.4586","3.47135","27.191","1.77","7.51","0.609","4.6","0.07","0.22","30.3217","4.76068","19.65","0","SATNPRO1962","26.78","0.37508","5"],
    [35215,"HCEP03730560","2024-09-29 02:30:00","11.4606","3.47165","27.182","1.827","7.52","0.591","4.677","0.07","0.17","30.323","4.76083","20.28","0","SATNPRO1962","26.856","0.37614","5"],
    [35216,"HCEP03730560","2024-09-29 02:45:00","11.4625","3.47207","27.167","1.851","7.52","0.598","4.769","0.08","0.32","30.3255","4.76116","20.54","0","SATNPRO1962","27.062","0.37904","5"],
    [35217,"HCEP03730560","2024-09-29 03:00:00","11.4622","3.47203","27.14","1.861","7.52","0.546","4.633","0.09","0.23","30.3253","4.76114","20.66","0","SATNPRO1962","26.966","0.37774","5"],
    [35218,"HCEP03730560","2024-09-29 03:15:00","11.4622","3.47207","27.098","1.855","7.52","0.577","4.836","0.05","0.27","30.3257","4.76119","20.59","0","SATNPRO1962","27.044","0.37874","5"],
    [35219,"HCEP03730560","2024-09-29 03:30:00","11.4738","3.47453","27.026","1.862","7.52","0.619","5.391","0.1","0.6","30.34","4.76304","20.67","0","SATNPRO1962","27.078","0.37924","5"],
    [35220,"HCEP03730560","2024-09-29 03:45:00","11.4973","3.47845","26.949","1.958","7.53","0.527","4.579","0.05","0.19","30.3588","4.76535","21.76","0","SATNPRO1962","28.01","0.3923","5"],
    [35221,"HCEP03730560","2024-09-29 04:00:00","11.5035","3.47949","26.851","2.107","7.54","0.488","4.697","0.05","0.25","30.3638","4.76596","23.41","0","SATNPRO1962","28.38","0.39752","5"],
    [35222,"HCEP03730560","2024-09-29 04:15:00","11.5174","3.48133","26.749","2.2","7.55","0.595","5.019","0.11","0.51","30.3703","4.76668","24.46","0","SATNPRO1962","28.884","0.40456","5"],
    [35223,"HCEP03730560","2024-09-29 04:30:00","11.5262","3.48268","26.633","2.316","7.56","0.404","3.88","0.04","0.24","30.3762","4.76737","25.75","0","SATNPRO1962","28.888","0.40464","5"],
    [35224,"HCEP03730560","2024-09-29 04:45:00","11.5241","3.48239","26.511","2.356","7.56","0.46","4.345","0.03","0.18","30.3751","4.76724","26.2","0","SATNPRO1962","28.626","0.40094","5"],
    [35225,"HCEP03730560","2024-09-29 05:00:00","11.5231","3.48227","26.392","2.324","7.56","0.461","4.608","0.11","0.34","30.3748","4.76721","25.84","0","SATNPRO1962","28.56","0.39996","5"],
    [35226,"HCEP03730560","2024-09-29 05:15:00","11.5226","3.48216","26.243","2.289","7.56","0.526","5.201","0.09","0.25","30.3742","4.76712","25.45","0","SATNPRO1962","28.302","0.39638","5"],
    [35227,"HCEP03730560","2024-09-29 05:30:00","11.54","3.485","26.089","2.303","7.56","0.426","4.542","0.04","0.19","30.3875","4.76874","25.62","0","SATNPRO1962","28.434","0.39824","5"],
    [35228,"HCEP03730560","2024-09-29 05:45:00","11.5515","3.48677","25.93","2.412","7.57","0.487","4.721","0.04","0.13","30.3953","4.76966","26.84","0","SATNPRO1962","28.54","0.39976","5"],
    [35229,"HCEP03730560","2024-09-29 06:00:00","11.5599","3.48794","25.802","2.491","7.58","0.46","4.57","0.07","0.19","30.3998","4.77017","27.72","0","SATNPRO1962","28.686","0.40176","5"],
    [35230,"HCEP03730560","2024-09-29 06:15:00","11.5609","3.48807","25.644","2.543","7.58","0.542","5.453","0.04","0.28","30.4003","4.77022","28.31","0","SATNPRO1962","28.444","0.39846","5"],
    [35231,"HCEP03730560","2024-09-29 06:30:00","11.5623","3.48825","25.486","2.547","7.59","0.535","5.438","0.06","0.24","30.4009","4.77028","28.34","0","SATNPRO1962","28.482","0.39898","5"],
    [35232,"HCEP03730560","2024-09-29 06:45:00","11.5639","3.4885","25.351","2.548","7.59","0.528","5.164","0.04","0.16","30.4021","4.77042","28.36","0","SATNPRO1962","28.314","0.39654","5"],
    [35233,"HCEP03730560","2024-09-29 07:00:00","11.5641","3.48856","25.199","2.547","7.59","0.587","5.892","0.07","0.38","30.4026","4.77048","28.35","0","SATNPRO1962","28.346","0.39706","5"],
    [35234,"HCEP03730560","2024-09-29 07:15:00","11.5663","3.48903","25.08","2.545","7.59","0.63","5.813","0.06","0.18","30.4054","4.77083","28.32","0","SATNPRO1962","28.346","0.39702","5"],
    [35235,"HCEP03730560","2024-09-29 07:30:00","11.5732","3.49017","24.957","2.559","7.59","0.635","6.017","0.06","0.2","30.4107","4.77148","28.48","0","SATNPRO1962","28.274","0.39598","5"],
    [35236,"HCEP03730560","2024-09-29 07:45:00","11.5808","3.49141","24.864","2.602","7.59","0.636","5.488","0.08","0.2","30.4166","4.7722","28.97","0","SATNPRO1962","28.494","0.39914","5"],
    [35237,"HCEP03730560","2024-09-29 08:00:00","11.5854","3.49231","24.795","2.654","7.6","0.645","5.708","0.06","0.21","30.4215","4.77282","29.56","0","SATNPRO1962","28.387999999999998","0.39766","5"],
    [35238,"HCEP03730560","2024-09-29 08:15:00","11.5921","3.4935","24.768","2.693","7.6","0.611","4.471","0.05","0.11","30.4275","4.77357","30","0","SATNPRO1962","28.496","0.39914","5"],
    [35239,"HCEP03730560","2024-09-29 08:30:00","11.594","3.49375","24.727","2.743","7.61","0.55","3.953","0.15","0.16","30.4284","4.77367","30.55","0","SATNPRO1962","28.818","0.40366","5"],
    [35240,"HCEP03730560","2024-09-29 08:45:00","11.5922","3.49353","24.722","2.754","7.61","0.62","4.81","0.06","0.27","30.4277","4.7736","30.67","0","SATNPRO1962","28.616","0.40082","5"],
    [35241,"HCEP03730560","2024-09-29 09:00:00","11.591","3.49363","24.75","2.719","7.61","0.637","5.263","0.07","0.22","30.4297","4.77389","30.28","0","SATNPRO1962","28.186","0.39478","5"],
    [35242,"HCEP03730560","2024-09-29 09:15:00","11.5948","3.49419","24.774","2.702","7.61","0.651","5.277","0.08","0.17","30.432","4.77416","30.1","0","SATNPRO1962","28.45","0.39848","5"],
    [35243,"HCEP03730560","2024-09-29 09:30:00","11.5933","3.49405","24.848","2.696","7.61","0.653","5.719","0.07","0.38","30.4319","4.77417","30.03","0","SATNPRO1962","28.186","0.39478","5"],
    [35244,"HCEP03730560","2024-09-29 09:45:00","11.599","3.4952","24.923","2.68","7.61","0.61","5.241","0.05","0.29","30.4383","4.775","29.86","0","SATNPRO1962","28.19","0.39488","5"],
    [35245,"HCEP03730560","2024-09-29 10:00:00","11.6026","3.49575","25.016","2.703","7.61","0.559","5.081","0.05","0.13","30.4406","4.77528","30.11","0","SATNPRO1962","28.27","0.39594","5"],
    [35246,"HCEP03730560","2024-09-29 10:15:00","11.6069","3.49649","25.17","2.718","7.61","0.578","4.863","0.05","0.13","30.4442","4.77573","30.28","0","SATNPRO1962","28.228","0.39538","5"],
    [35247,"HCEP03730560","2024-09-29 10:30:00","11.6075","3.49664","25.262","2.73","7.61","0.552","5.008","0.06","0.23","30.445","4.77584","30.43","0","SATNPRO1962","28.294","0.3963","5"],
    [35248,"HCEP03730560","2024-09-29 10:45:00","11.609","3.4969","25.43","2.723","7.61","0.596","5.117","0.05","0.14","30.4463","4.77601","30.34","0","SATNPRO1962","28.178","0.39472","5"],
    [35249,"HCEP03730560","2024-09-29 11:00:00","11.6139","3.49777","25.562","2.729","7.61","0.515","4.768","0.05","0.18","30.4506","4.77656","30.42","0","SATNPRO1962","28.138","0.39412","5"],
    [35250,"HCEP03730560","2024-09-29 11:15:00","11.615","3.49799","25.73","2.747","7.61","0.548","4.894","0.04","0.22","30.4517","4.77671","30.62","0","SATNPRO1962","28.262","0.39586","5"],
    [35251,"HCEP03730560","2024-09-29 11:30:00","11.6199","3.49878","25.867","2.758","7.61","0.482","4.159","0.06","0.13","30.4554","4.77716","30.74","0","SATNPRO1962","28.412","0.39798","5"],
    [35252,"HCEP03730560","2024-09-29 11:45:00","11.6209","3.49892","26.025","2.781","7.62","0.528","4.738","0.04","0.18","30.4559","4.77723","31","0","SATNPRO1962","28.322","0.39672","5"],
    [35253,"HCEP03730560","2024-09-29 12:00:00","11.6224","3.49915","26.049","2.785","7.62","0.489","4.701","0.03","0.13","30.4567","4.77733","31.05","0","SATNPRO1962","28.355999999999998","0.39716","5"],
    [35254,"HCEP03730560","2024-09-29 12:15:00","11.6231","3.49901","26.272","2.804","7.62","0.487","4.193","0.03","0.11","30.4547","4.77705","31.26","0","SATNPRO1962","28.458","0.39864","5"],
    [35255,"HCEP03730560","2024-09-29 12:30:00","11.6203","3.49857","26.401","2.821","7.62","0.504","4.855","0.04","0.14","30.4528","4.77683","31.45","0","SATNPRO1962","28.352","0.39716","5"],
    [35256,"HCEP03730560","2024-09-29 12:45:00","11.6195","3.49846","26.604","2.786","7.62","0.501","4.515","0.02","0.07","30.4522","4.77677","31.05","0","SATNPRO1962","28.4","0.39784","5"],
    [35257,"HCEP03730560","2024-09-29 13:00:00","11.6176","3.49809","26.748","2.778","7.62","0.528","5.13","0.04","0.12","30.4502","4.77651","30.97","0","SATNPRO1962","28.414","0.39798","5"],
    [35258,"HCEP03730560","2024-09-29 13:15:00","11.6159","3.49774","26.929","2.765","7.62","0.544","5.185","0.03","0.15","30.4481","4.77626","30.82","0","SATNPRO1962","28.378","0.39748","5"],
    [35259,"HCEP03730560","2024-09-29 13:30:00","11.6134","3.49717","27.091","2.771","7.62","0.54","4.92","0.08","0.1","30.4445","4.7758","30.88","0","SATNPRO1962","28.416","0.39798","5"],
    [35260,"HCEP03730560","2024-09-29 13:45:00","11.6107","3.49663","27.188","2.777","7.62","0.545","4.807","0.05","0.22","30.4415","4.77542","30.94","0","SATNPRO1962","28.368","0.39736","5"],
    [35261,"HCEP03730560","2024-09-29 14:00:00","11.6053","3.49556","27.375","2.78","7.62","0.542","5.135","0.03","0.22","30.4356","4.77466","30.97","0","SATNPRO1962","28.362","0.39728","5"],
    [35262,"HCEP03730560","2024-09-29 14:15:00","11.601","3.49483","27.521","2.769","7.61","0.592","5.131","0.05","0.17","30.432","4.77423","30.85","0","SATNPRO1962","28.316000000000003","0.39664","5"],
    [35263,"HCEP03730560","2024-09-29 14:30:00","11.5965","3.49362","27.533","2.78","7.62","0.489","4.259","0.04","0.14","30.4239","4.77315","30.96","0","SATNPRO1962","28.72","0.40224","5"],
    [35264,"HCEP03730560","2024-09-29 14:45:00","11.5964","3.49374","27.606","2.809","7.62","0.519","4.187","0.03","0.14","30.4252","4.77333","31.29","0","SATNPRO1962","28.536","0.39972","5"],
    [35265,"HCEP03730560","2024-09-29 15:00:00","11.5974","3.4939","27.697","2.786","7.62","0.462","4.191","0.03","0.11","30.426","4.77344","31.03","0","SATNPRO1962","28.544","0.39978","5"],
    [35266,"HCEP03730560","2024-09-29 15:15:00","11.6009","3.49489","27.628","2.767","7.61","0.529","4.649","0.03","0.13","30.4326","4.77432","30.83","0","SATNPRO1962","28.344","0.397","5"],
    [35267,"HCEP03730560","2024-09-29 15:30:00","11.6028","3.49542","27.643","2.729","7.61","0.512","4.654","0.04","0.19","30.4362","4.7748","30.41","0","SATNPRO1962","28.201999999999998","0.39504","5"],
    [35268,"HCEP03730560","2024-09-29 15:45:00","11.6047","3.49578","27.661","2.717","7.61","0.553","4.736","0.08","0.1","30.4381","4.77504","30.27","0","SATNPRO1962","28.244","0.39558","5"],
    [35269,"HCEP03730560","2024-09-29 16:00:00","11.6072","3.4963","27.658","2.699","7.61","0.548","5.271","0.03","0.23","30.441","4.77542","30.08","0","SATNPRO1962","28.188","0.39482","5"],
    [35270,"HCEP03730560","2024-09-29 16:15:00","11.6021","3.49531","27.609","2.699","7.61","0.507","4.488","0.02","0.11","30.4357","4.77474","30.07","0","SATNPRO1962","28.285999999999998","0.39618","5"],
    [35271,"HCEP03730560","2024-09-29 16:30:00","11.5986","3.49477","27.536","2.681","7.61","0.513","4.563","0.06","0.16","30.4334","4.77446","29.87","0","SATNPRO1962","28.046","0.39284","5"],
    [35272,"HCEP03730560","2024-09-29 16:45:00","11.5854","3.49188","27.478","2.686","7.61","0.484","4.276","0.03","0.18","30.4163","4.77222","29.92","0","SATNPRO1962","28.418","0.39806","5"],
    [35273,"HCEP03730560","2024-09-29 17:00:00","11.5759","3.49015","27.436","2.695","7.61","0.414","3.591","0.03","0.09","30.4074","4.7711","30.01","0","SATNPRO1962","28.288","0.39624","5"],
    [35274,"HCEP03730560","2024-09-29 17:15:00","11.5702","3.48887","27.358","2.655","7.6","0.467","3.875","0.04","0.17","30.3997","4.7701","29.55","0","SATNPRO1962","28.338","0.39694","5"],
    [35275,"HCEP03730560","2024-09-29 17:30:00","11.5765","3.48999","27.206","2.655","7.61","0.486","4.796","0.05","0.17","30.4055","4.77082","29.56","0","SATNPRO1962","28.528","0.39958","5"],
    [35276,"HCEP03730560","2024-09-29 17:45:00","11.583","3.49092","27.149","2.737","7.61","0.487","4.26","0.04","0.12","30.4091","4.77123","30.47","0","SATNPRO1962","28.672","0.40162","5"],
    [35277,"HCEP03730560","2024-09-29 18:00:00","11.5811","3.49014","27.053","2.811","7.62","0.363","2.854","0.03","0.08","30.4031","4.77041","31.29","0","SATNPRO1962","29.17","0.4086","5"],
    [35278,"HCEP03730560","2024-09-29 18:15:00","11.5706","3.4884","26.932","2.85","7.61","0.353","2.413","0.03","0.09","30.395","4.76941","31.73","0","SATNPRO1962","28.78","0.4031","5"],
    [35279,"HCEP03730560","2024-09-29 18:30:00","11.5779","3.48938","26.819","2.841","7.62","0.304","2.181","0.04","0.05","30.3985","4.76979","31.62","0","SATNPRO1962","29.292","0.41028","5"],
    [35280,"HCEP03730560","2024-09-29 18:45:00","11.5992","3.49508","26.696","2.794","7.61","0.516","5.019","0.04","0.15","30.4362","4.7748","31.13","0","SATNPRO1962","27.728","0.38832","5"],
    [35281,"HCEP03730560","2024-09-29 19:00:00","11.609","3.49685","26.585","2.629","7.61","0.557","5.764","0.08","0.28","30.4453","4.77594","29.29","0","SATNPRO1962","27.63","0.38704","5"],
    [35282,"HCEP03730560","2024-09-29 19:15:00","11.6108","3.4971","26.478","2.633","7.61","0.54","5.547","0.05","0.27","30.4463","4.77605","29.34","0","SATNPRO1962","27.68","0.38768","5"],
    [35283,"HCEP03730560","2024-09-29 19:30:00","11.6165","3.49817","26.338","2.667","7.61","0.517","5.211","0.11","0.27","30.452","4.77676","29.73","0","SATNPRO1962","27.798","0.38938","5"],
    [35284,"HCEP03730560","2024-09-29 19:45:00","11.6089","3.49666","26.168","2.723","7.61","0.473","4.572","0.04","0.17","30.4437","4.77569","30.34","0","SATNPRO1962","28.276","0.39602","5"],
    [35285,"HCEP03730560","2024-09-29 20:00:00","11.6111","3.4969","26.001","2.741","7.61","0.437","4.199","0.04","0.19","30.4443","4.77574","30.54","0","SATNPRO1962","28.194","0.3949","5"],
    [35286,"HCEP03730560","2024-09-29 20:15:00","11.6032","3.49586","25.891","2.765","7.61","0.43","3.863","0.05","0.26","30.4408","4.77535","30.81","0","SATNPRO1962","28.692","0.40188","5"],
    [35287,"HCEP03730560","2024-09-29 20:30:00","11.6053","3.49587","25.822","2.78","7.61","0.396","4.271","0.03","0.29","30.4392","4.77509","30.98","0","SATNPRO1962","28.476","0.39884","5"],
    [35288,"HCEP03730560","2024-09-29 20:45:00","11.5904","3.49234","25.731","2.752","7.61","0.362","3.482","0.04","0.22","30.4173","4.77221","30.65","0","SATNPRO1962","28.672","0.4016","5"],
    [35289,"HCEP03730560","2024-09-29 21:00:00","11.589","3.49268","25.704","2.745","7.61","0.369","4.038","0.03","0.13","30.4218","4.77286","30.58","0","SATNPRO1962","28.574","0.40024","5"],
    [35290,"HCEP03730560","2024-09-29 21:15:00","11.5779","3.49098","25.674","2.672","7.61","0.399","4.107","0.03","0.16","30.4145","4.77199","29.76","0","SATNPRO1962","28.408","0.39792","5"],
    [35291,"HCEP03730560","2024-09-29 21:30:00","11.5693","3.48985","25.691","2.54","7.6","0.381","4.405","0.02","0.11","30.4106","4.77157","28.28","0","SATNPRO1962","27.83","0.3898","5"],
    [35292,"HCEP03730560","2024-09-29 21:45:00","11.5739","3.49072","25.684","2.447","7.59","0.424","4.684","0.03","0.17","30.4153","4.77215","27.24","0","SATNPRO1962","27.766","0.38894","5"],
    [35293,"HCEP03730560","2024-09-29 22:00:00","11.5802","3.4919","25.668","2.45","7.59","0.4","4.587","0.03","0.22","30.4215","4.77294","27.28","0","SATNPRO1962","27.728","0.38838","5"],
    [35294,"HCEP03730560","2024-09-29 22:15:00","11.5934","3.4944","25.675","2.479","7.59","0.447","5.078","0.04","0.2","30.4349","4.77464","27.62","0","SATNPRO1962","27.726","0.38834","5"],
    [35295,"HCEP03730560","2024-09-29 22:30:00","11.6103","3.49749","25.732","2.533","7.59","0.399","4.518","0.04","0.14","30.4507","4.77664","28.22","0","SATNPRO1962","27.572","0.38618","5"],
    [35296,"HCEP03730560","2024-09-29 22:45:00","11.6098","3.49745","25.755","2.557","7.6","0.394","4.254","0.03","0.23","30.4508","4.77666","28.49","0","SATNPRO1962","27.52","0.3855","5"],
    [35297,"HCEP03730560","2024-09-29 23:00:00","11.604","3.49638","25.835","2.55","7.59","0.375","4.187","0.05","0.26","30.4452","4.77595","28.41","0","SATNPRO1962","27.54","0.38574","5"],
    [35298,"HCEP03730560","2024-09-29 23:15:00","11.6031","3.49623","25.949","2.529","7.59","0.401","4.278","0.04","0.17","30.4444","4.77586","28.18","0","SATNPRO1962","27.477999999999998","0.38488","5"],
    [35299,"HCEP03730560","2024-09-29 23:30:00","11.6003","3.49559","26.009","2.509","7.59","0.371","4.247","0.02","0.13","30.4405","4.77536","27.95","0","SATNPRO1962","27.392","0.38366","5"],
    [35300,"HCEP03730560","2024-09-29 23:45:00","11.597","3.49496","26.121","2.483","7.59","0.403","4.139","0.02","0.14","30.4371","4.77493","27.66","0","SATNPRO1962","27.19","0.38082","5"],
    [35301,"HCEP03730560","2024-09-30 00:00:00","11.5927","3.49422","26.195","2.457","7.59","0.387","4.173","0.02","0.18","30.4335","4.77449","27.37","0","SATNPRO1962","27.188","0.38082","5"],
    [35302,"HCEP03730560","2024-09-30 00:15:00","11.5905","3.49372","26.301","2.442","7.59","0.418","4.087","0.04","0.14","30.4304","4.77409","27.2","0","SATNPRO1962","27.387999999999998","0.38364","5"],
    [35303,"HCEP03730560","2024-09-30 00:30:00","11.5886","3.4934","26.382","2.436","7.59","0.376","4.044","0.05","0.13","30.4288","4.77389","27.13","0","SATNPRO1962","27.334","0.38286","5"],
    [35304,"HCEP03730560","2024-09-30 00:45:00","11.5868","3.49306","26.488","2.425","7.58","0.376","3.912","0.02","0.1","30.4269","4.77366","27.01","0","SATNPRO1962","27.318","0.38268","5"],
    [35305,"HCEP03730560","2024-09-30 01:00:00","11.5836","3.49242","26.629","2.421","7.58","0.357","3.83","0.03","0.11","30.4233","4.7732","26.97","0","SATNPRO1962","27.477999999999998","0.38486","5"],
    [35306,"HCEP03730560","2024-09-30 01:15:00","11.5821","3.49219","26.762","2.423","7.58","0.402","3.88","0.05","0.23","30.4222","4.77308","26.98","0","SATNPRO1962","27.418","0.38406","5"],
    [35307,"HCEP03730560","2024-09-30 01:30:00","11.5792","3.49157","26.869","2.423","7.58","0.407","3.485","0.13","0.19","30.4186","4.77262","26.97","0","SATNPRO1962","27.274","0.38202","5"],
    [35308,"HCEP03730560","2024-09-30 01:45:00","11.5767","3.49107","26.958","2.429","7.58","0.422","3.464","0.27","0.34","30.4158","4.77226","27.05","0","SATNPRO1962","27.512","0.38536","5"],
    [35309,"HCEP03730560","2024-09-30 02:00:00","11.5745","3.49069","27.049","2.431","7.58","0.339","3.253","0.05","0.12","30.4139","4.77203","27.06","0","SATNPRO1962","28.006","0.39224","5"],
    [35310,"HCEP03730560","2024-09-30 02:15:00","11.5735","3.49045","27.139","2.43","7.58","0.352","3.3","0.07","0.17","30.4124","4.77183","27.05","0","SATNPRO1962","27.808","0.38952","5"],
    [35311,"HCEP03730560","2024-09-30 02:30:00","11.5724","3.49022","27.196","2.423","7.58","0.361","3.488","0.13","0.29","30.411","4.77166","26.98","0","SATNPRO1962","27.742","0.38854","5"],
    [35312,"HCEP03730560","2024-09-30 02:45:00","11.572","3.49018","27.251","2.413","7.58","0.367","3.539","0.05","0.13","30.4109","4.77165","26.86","0","SATNPRO1962","27.718","0.38826","5"],
    [35313,"HCEP03730560","2024-09-30 03:00:00","11.5714","3.49021","27.292","2.396","7.58","0.383","3.809","0.09","0.21","30.4117","4.77177","26.68","0","SATNPRO1962","27.446","0.38444","5"],
    [35314,"HCEP03730560","2024-09-30 03:15:00","11.5705","3.49007","27.254","2.382","7.58","0.378","3.83","0.04","0.19","30.4111","4.7717","26.51","0","SATNPRO1962","27.637999999999998","0.38712","5"],
    [35315,"HCEP03730560","2024-09-30 03:30:00","11.5704","3.49014","27.237","2.362","7.58","0.38","4.166","0.06","0.34","30.4118","4.7718","26.3","0","SATNPRO1962","27.546","0.38584","5"],
    [35316,"HCEP03730560","2024-09-30 03:45:00","11.5705","3.4902","27.24","2.337","7.57","0.401","4.252","0.06","0.25","30.4123","4.77187","26.01","0","SATNPRO1962","27.330000000000002","0.3828","5"],
    [35317,"HCEP03730560","2024-09-30 04:00:00","11.571","3.49025","27.193","2.325","7.57","0.382","4.47","0.04","0.22","30.4125","4.77189","25.89","0","SATNPRO1962","27.464","0.38472","5"],
    [35318,"HCEP03730560","2024-09-30 04:15:00","11.5705","3.4902","27.141","2.316","7.57","0.374","4.069","0.06","0.13","30.4124","4.77187","25.78","0","SATNPRO1962","27.442","0.38434","5"],
    [35319,"HCEP03730560","2024-09-30 04:30:00","11.5707","3.49023","26.942","2.332","7.57","0.372","4.147","0.07","0.25","30.4126","4.77189","25.96","0","SATNPRO1962","27.596","0.3865","5"],
    [35320,"HCEP03730560","2024-09-30 04:45:00","11.5697","3.4901","26.894","2.34","7.57","0.423","4.136","0.09","0.4","30.4122","4.77184","26.05","0","SATNPRO1962","27.37","0.38336","5"],
    [35321,"HCEP03730560","2024-09-30 05:00:00","11.5686","3.48987","26.828","2.334","7.57","0.442","4.169","0.19","0.19","30.4109","4.77168","25.99","0","SATNPRO1962","27.622","0.38688","5"],
    [35322,"HCEP03730560","2024-09-30 05:15:00","11.5676","3.4897","26.7","2.326","7.57","0.394","4.24","0.04","0.2","30.4102","4.77158","25.89","0","SATNPRO1962","27.446","0.38444","5"],
    [35323,"HCEP03730560","2024-09-30 05:30:00","11.5652","3.48925","26.564","2.292","7.57","0.371","4.382","0.03","0.22","30.4077","4.77126","25.52","0","SATNPRO1962","27.442","0.38436","5"],
    [35324,"HCEP03730560","2024-09-30 05:45:00","11.563","3.48877","26.39","2.293","7.57","0.405","4.388","0.05","0.26","30.405","4.7709","25.52","0","SATNPRO1962","27.508","0.38528","5"],
    [35325,"HCEP03730560","2024-09-30 06:00:00","11.5594","3.48807","26.21","2.317","7.57","0.344","4.129","0.02","0.48","30.4013","4.77042","25.78","0","SATNPRO1962","27.586","0.3864","5"],
    [35326,"HCEP03730560","2024-09-30 06:15:00","11.5592","3.48794","26.156","2.324","7.57","0.387","4.122","0.04","0.22","30.4002","4.77026","25.87","0","SATNPRO1962","27.554","0.386","5"],
    [35327,"HCEP03730560","2024-09-30 06:30:00","11.5567","3.4874","25.966","2.301","7.57","0.373","4.215","0.03","0.14","30.3971","4.76984","25.61","0","SATNPRO1962","27.264","0.3819","5"],
    [35328,"HCEP03730560","2024-09-30 06:45:00","11.5536","3.48693","25.75","2.267","7.57","0.388","4.222","0.04","0.2","30.3952","4.76962","25.22","0","SATNPRO1962","27.364","0.3833","5"],
    [35329,"HCEP03730560","2024-09-30 07:00:00","11.5515","3.4866","25.63","2.256","7.57","0.378","4.12","0.03","0.13","30.3938","4.76944","25.11","0","SATNPRO1962","27.242","0.38162","5"],
    [35330,"HCEP03730560","2024-09-30 07:15:00","11.5467","3.48582","25.464","2.235","7.56","0.411","4.257","0.05","0.18","30.3903","4.769","24.86","0","SATNPRO1962","27.29","0.38226","5"],
    [35331,"HCEP03730560","2024-09-30 07:30:00","11.5474","3.48594","25.323","2.202","7.56","0.395","4.205","0.04","0.16","30.3908","4.76906","24.5","0","SATNPRO1962","27.152","0.38028","5"],
    [35332,"HCEP03730560","2024-09-30 07:45:00","11.5342","3.48312","25.151","2.145","7.56","0.408","4.153","0.05","0.15","30.3744","4.76692","23.85","0","SATNPRO1962","27.062","0.37908","5"],
    [35333,"HCEP03730560","2024-09-30 08:00:00","11.5277","3.48226","25.03","2.077","7.55","0.418","4.571","0.04","0.32","30.3716","4.76661","23.1","0","SATNPRO1962","26.916","0.37702","5"],
    [35334,"HCEP03730560","2024-09-30 08:15:00","11.5154","3.48032","24.895","2.032","7.55","0.448","4.419","0.07","0.22","30.3629","4.76556","22.58","0","SATNPRO1962","27.082","0.37934","5"],
    [35335,"HCEP03730560","2024-09-30 08:30:00","11.507","3.47799","24.761","2.001","7.54","0.39","4.004","0.05","0.31","30.3473","4.76347","22.23","0","SATNPRO1962","27.244","0.3816","5"],
    [35336,"HCEP03730560","2024-09-30 08:45:00","11.5018","3.47702","24.694","1.987","7.54","0.439","3.833","0.11","0.22","30.3421","4.7628","22.07","0","SATNPRO1962","27.317999999999998","0.38264","5"],
    [35337,"HCEP03730560","2024-09-30 09:00:00","11.4975","3.47611","24.655","1.962","7.54","0.419","4.067","0.07","0.28","30.3369","4.76213","21.8","0","SATNPRO1962","27.118","0.37986","5"],
    [35338,"HCEP03730560","2024-09-30 09:15:00","11.494","3.47527","24.65","1.935","7.54","0.411","3.917","0.03","0.31","30.3316","4.76143","21.5","0","SATNPRO1962","27.19","0.38082","5"],
    [35339,"HCEP03730560","2024-09-30 09:30:00","11.4888","3.47419","24.658","1.903","7.53","0.391","3.725","0.05","0.2","30.3254","4.76062","21.13","0","SATNPRO1962","27.048000000000002","0.37886","5"],
    [35340,"HCEP03730560","2024-09-30 09:45:00","11.4869","3.47387","24.712","1.851","7.53","0.471","4.261","0.08","0.17","30.3239","4.76043","20.56","0","SATNPRO1962","26.884","0.37658","5"],
    [35341,"HCEP03730560","2024-09-30 10:00:00","11.4845","3.47346","24.797","1.825","7.53","0.418","3.991","0.04","0.17","30.3218","4.76018","20.26","0","SATNPRO1962","26.884","0.37652","5"],
    [35342,"HCEP03730560","2024-09-30 10:15:00","11.4838","3.4733","24.888","1.799","7.52","0.43","3.797","0.03","0.16","30.3208","4.76006","19.98","0","SATNPRO1962","26.7","0.37398","5"],
    [35343,"HCEP03730560","2024-09-30 10:30:00","11.4819","3.47296","24.994","1.782","7.52","0.394","3.753","0.05","0.31","30.3191","4.75985","19.79","0","SATNPRO1962","26.792","0.37532","5"],
    [35344,"HCEP03730560","2024-09-30 10:45:00","11.482","3.47304","25.099","1.76","7.52","0.439","3.725","0.06","0.29","30.3197","4.75994","19.55","0","SATNPRO1962","26.876","0.37644","5"],
    [35345,"HCEP03730560","2024-09-30 11:00:00","11.4819","3.47298","25.224","1.751","7.52","0.383","3.571","0.04","0.21","30.3192","4.75987","19.45","0","SATNPRO1962","26.77","0.37498","5"],
    [35346,"HCEP03730560","2024-09-30 11:15:00","11.4829","3.47323","25.354","1.748","7.52","0.449","3.685","0.09","0.19","30.3206","4.76007","19.41","0","SATNPRO1962","26.77","0.37498","5"],
    [35347,"HCEP03730560","2024-09-30 11:30:00","11.4865","3.47386","25.49","1.762","7.52","0.425","3.819","0.06","0.25","30.3238","4.76047","19.56","0","SATNPRO1962","26.652","0.3733","5"],
    [35348,"HCEP03730560","2024-09-30 11:45:00","11.4905","3.47465","25.65","1.782","7.52","0.422","3.725","0.06","0.5","30.3281","4.76104","19.79","0","SATNPRO1962","27.05","0.37888","5"],
    [35349,"HCEP03730560","2024-09-30 12:00:00","11.4939","3.4753","25.807","1.815","7.52","0.391","3.555","0.06","0.13","30.3316","4.76149","20.16","0","SATNPRO1962","26.791999999999998","0.37528","5"],
    [35350,"HCEP03730560","2024-09-30 12:15:00","11.4976","3.47611","25.969","1.834","7.52","0.446","3.999","0.05","0.15","30.3363","4.76211","20.38","0","SATNPRO1962","26.65","0.3733","5"],
    [35351,"HCEP03730560","2024-09-30 12:30:00","11.5101","3.47881","26.122","1.83","7.52","0.458","5.069","0.04","0.38","30.3522","4.76418","20.34","0","SATNPRO1962","26.44","0.3703","5"],
    [35352,"HCEP03730560","2024-09-30 12:45:00","11.5167","3.48009","26.302","1.889","7.53","0.438","4.405","0.03","0.37","30.3591","4.76507","21","0","SATNPRO1962","26.61","0.37272","5"],
    [35353,"HCEP03730560","2024-09-30 13:00:00","11.5202","3.48088","26.478","1.911","7.53","0.415","4.38","0.03","0.16","30.3637","4.76568","21.24","0","SATNPRO1962","26.674","0.37362","5"],
    [35354,"HCEP03730560","2024-09-30 13:15:00","11.5247","3.48159","26.658","1.944","7.53","0.465","4.107","0.12","0.25","30.3668","4.76607","21.62","0","SATNPRO1962","26.862","0.37624","5"],
    [35355,"HCEP03730560","2024-09-30 13:30:00","11.5273","3.48198","26.781","2.002","7.54","0.366","3.443","0.05","0.13","30.3684","4.76627","22.26","0","SATNPRO1962","27.006","0.37824","5"],
    [35356,"HCEP03730560","2024-09-30 13:45:00","11.5312","3.48295","26.939","2.012","7.54","0.444","4.198","0.05","0.17","30.3746","4.7671","22.38","0","SATNPRO1962","26.718","0.37424","5"],
    [35357,"HCEP03730560","2024-09-30 14:00:00","11.5337","3.48345","27.078","1.988","7.54","0.427","4.807","0.03","0.17","30.3773","4.76744","22.11","0","SATNPRO1962","26.544","0.3718","5"],
    [35358,"HCEP03730560","2024-09-30 14:15:00","11.5351","3.4837","27.202","1.971","7.54","0.467","4.524","0.07","0.19","30.3785","4.7676","21.92","0","SATNPRO1962","26.509999999999998","0.37128","5"],
    [35359,"HCEP03730560","2024-09-30 14:30:00","11.5339","3.4834","27.325","1.967","7.53","0.407","4.52","0.06","0.21","30.3766","4.76735","21.87","0","SATNPRO1962","26.51","0.3713","5"],
    [35360,"HCEP03730560","2024-09-30 14:45:00","11.536","3.48359","27.442","1.963","7.53","0.492","4.285","0.1","0.16","30.3767","4.76734","21.83","0","SATNPRO1962","26.672","0.37362","5"],
    [35361,"HCEP03730560","2024-09-30 15:00:00","11.5384","3.48413","27.531","1.973","7.54","0.426","4.36","0.05","0.17","30.3799","4.76777","21.94","0","SATNPRO1962","26.714","0.37418","5"],
    [35362,"HCEP03730560","2024-09-30 15:15:00","11.537","3.48344","27.581","1.979","7.54","0.461","4.059","0.1","0.11","30.3743","4.767","22.01","0","SATNPRO1962","26.658","0.37338","5"],
    [35363,"HCEP03730560","2024-09-30 15:30:00","11.5066","3.47639","27.616","1.969","7.53","0.446","3.244","0.16","0.24","30.331","4.76131","21.88","0","SATNPRO1962","26.916","0.377","5"],
    [35364,"HCEP03730560","2024-09-30 15:45:00","11.5172","3.479","27.606","1.948","7.53","0.395","3.44","0.06","0.2","30.3476","4.76352","21.65","0","SATNPRO1962","26.914","0.377","5"],
    [35365,"HCEP03730560","2024-09-30 16:00:00","11.5071","3.47524","27.598","1.959","7.53","0.393","3.18","0.08","0.4","30.3195","4.75968","21.76","0","SATNPRO1962","26.908","0.37686","5"],
    [35366,"HCEP03730560","2024-09-30 16:15:00","11.5241","3.47733","27.573","1.995","7.53","0.465","3.62","0.07","0.16","30.3257","4.76031","22.18","0","SATNPRO1962","26.828","0.37576","5"],
    [35367,"HCEP03730560","2024-09-30 16:30:00","11.5213","3.47642","27.528","2.055","7.54","0.398","3.25","0.08","0.12","30.3193","4.75945","22.84","0","SATNPRO1962","27.08","0.37928","5"],
    [35368,"HCEP03730560","2024-09-30 16:45:00","11.5248","3.47716","27.477","2.159","7.55","0.383","3.247","0.03","0.19","30.3236","4.76","24","0","SATNPRO1962","27.412","0.38396","5"],
    [35369,"HCEP03730560","2024-09-30 17:00:00","11.5214","3.47597","27.409","2.295","7.56","0.322","2.868","0.04","0.09","30.3149","4.75882","25.5","0","SATNPRO1962","27.546","0.38582","5"],
    [35370,"HCEP03730560","2024-09-30 17:15:00","11.5184","3.47536","27.44","2.334","7.56","0.386","3.205","0.05","0.07","30.3115","4.75837","25.94","0","SATNPRO1962","27.498","0.38516","5"],
    [35371,"HCEP03730560","2024-09-30 17:30:00","11.5162","3.47437","27.344","2.345","7.56","0.374","3.068","0.04","0.09","30.3037","4.7573","26.05","0","SATNPRO1962","27.714","0.38812","5"],
    [35372,"HCEP03730560","2024-09-30 17:45:00","11.5143","3.47358","27.324","2.383","7.56","0.407","2.922","0.04","0.09","30.2977","4.75648","26.48","0","SATNPRO1962","27.926","0.39118","5"],
    [35373,"HCEP03730560","2024-09-30 18:00:00","11.5206","3.47567","27.208","2.373","7.56","0.407","3.78","0.03","0.09","30.3127","4.75851","26.37","0","SATNPRO1962","27.262","0.38186","5"],
    [35374,"HCEP03730560","2024-09-30 18:15:00","11.5215","3.47617","27.079","2.295","7.56","0.443","3.763","0.03","0.09","30.3169","4.75908","25.51","0","SATNPRO1962","27.096","0.37952","5"],
    [35375,"HCEP03730560","2024-09-30 18:30:00","11.526","3.47796","26.966","2.216","7.55","0.425","3.815","0.06","0.09","30.3306","4.76095","24.63","0","SATNPRO1962","26.8","0.37538","5"],
    [35376,"HCEP03730560","2024-09-30 18:45:00","11.5349","3.48145","26.85","2.07","7.55","0.486","5.304","0.06","0.2","30.357","4.76455","23.02","0","SATNPRO1962","25.646","0.3592","5"],
    [35377,"HCEP03730560","2024-09-30 19:00:00","11.5305","3.47989","26.728","1.987","7.54","0.449","5.292","0.06","0.24","30.3457","4.763","22.09","0","SATNPRO1962","26.474","0.37078","5"],
    [35378,"HCEP03730560","2024-09-30 19:15:00","11.5334","3.48226","26.602","1.981","7.54","0.463","5.496","0.03","0.17","30.3662","4.76586","22.03","0","SATNPRO1962","25.932000000000002","0.36322","5"],
    [35379,"HCEP03730560","2024-09-30 19:30:00","11.5324","3.48213","26.439","1.903","7.53","0.407","4.662","0.05","0.14","30.3659","4.76581","21.16","0","SATNPRO1962","26.09","0.36546","5"],
    [35380,"HCEP03730560","2024-09-30 19:45:00","11.5323","3.48127","26.28","1.934","7.54","0.483","4.623","0.12","0.26","30.3577","4.76464","21.5","0","SATNPRO1962","26.216","0.36716","5"],
    [35381,"HCEP03730560","2024-09-30 20:00:00","11.5312","3.48198","26.114","1.96","7.54","0.423","4.358","0.09","0.15","30.3656","4.76577","21.8","0","SATNPRO1962","26.386","0.36956","5"],
    [35382,"HCEP03730560","2024-09-30 20:15:00","11.5315","3.48133","25.966","1.95","7.54","0.384","4.107","0.07","0.1","30.359","4.76483","21.68","0","SATNPRO1962","26.614","0.37278","5"],
    [35383,"HCEP03730560","2024-09-30 20:30:00","11.53","3.48166","25.811","1.96","7.53","0.318","4.031","0.03","0.22","30.3635","4.76547","21.8","0","SATNPRO1962","26.616","0.37282","5"],
    [35384,"HCEP03730560","2024-09-30 20:45:00","11.53","3.48105","25.684","1.959","7.54","0.315","3.377","0.02","0.07","30.3576","4.76464","21.79","0","SATNPRO1962","26.68","0.37366","5"],
    [35385,"HCEP03730560","2024-09-30 21:00:00","11.5299","3.48103","25.568","1.983","7.54","0.334","3.922","0.07","0.09","30.3576","4.76464","22.05","0","SATNPRO1962","26.626","0.37294","5"],
    [35386,"HCEP03730560","2024-09-30 21:15:00","11.5293","3.48026","25.471","2.008","7.54","0.329","3.509","0.05","0.08","30.3507","4.76366","22.33","0","SATNPRO1962","26.932","0.37722","5"],
    [35387,"HCEP03730560","2024-09-30 21:30:00","11.5291","3.48081","25.414","2.052","7.54","0.331","3.683","0.06","0.21","30.3562","4.76444","22.82","0","SATNPRO1962","27.168","0.38052","5"],
    [35388,"HCEP03730560","2024-09-30 21:45:00","11.5295","3.48045","25.394","2.022","7.54","0.327","3.523","0.03","0.16","30.3524","4.76389","22.49","0","SATNPRO1962","26.654","0.37332","5"],
    [35389,"HCEP03730560","2024-09-30 22:00:00","11.5307","3.48115","25.403","2.009","7.54","0.382","4.349","0.12","0.18","30.3582","4.76469","22.34","0","SATNPRO1962","26.122","0.3659","5"],
    [35390,"HCEP03730560","2024-09-30 22:15:00","11.5315","3.48118","25.434","1.968","7.54","0.387","3.952","0.05","0.12","30.3578","4.76463","21.88","0","SATNPRO1962","26.248","0.36766","5"],
    [35391,"HCEP03730560","2024-09-30 22:30:00","11.5314","3.48097","25.472","1.971","7.54","0.46","4.566","0.26","0.13","30.3558","4.76435","21.92","0","SATNPRO1962","26.23","0.36738","5"],
    [35392,"HCEP03730560","2024-09-30 22:45:00","11.5315","3.48034","25.515","1.989","7.54","0.402","4.485","0.08","0.22","30.3497","4.76348","22.12","0","SATNPRO1962","26.042","0.36476","5"],
    [35393,"HCEP03730560","2024-09-30 23:00:00","11.5323","3.4806","25.575","2.033","7.54","0.438","5.415","0.07","0.2","30.3515","4.76373","22.61","0","SATNPRO1962","26.198","0.36692","5"],
    [35394,"HCEP03730560","2024-09-30 23:15:00","11.5333","3.48116","25.698","1.95","7.53","0.45","6.01","0.07","0.27","30.3561","4.76437","21.68","0","SATNPRO1962","25.898","0.36274","5"],
    [35395,"HCEP03730560","2024-09-30 23:30:00","11.5349","3.4814","25.813","1.9","7.53","0.391","5.69","0.03","0.28","30.357","4.76449","21.13","0","SATNPRO1962","25.708000000000002","0.36008","5"],
    [35396,"HCEP03730560","2024-09-30 23:45:00","11.5355","3.48116","25.917","1.977","7.54","0.422","5.579","0.08","0.35","30.3541","4.76408","21.98","0","SATNPRO1962","26.516000000000002","0.37138","5"],
    [35397,"HCEP03730560","2024-10-01 00:00:00","11.536","3.48135","26.014","2.069","7.54","0.384","4.785","0.06","0.54","30.3555","4.76427","23.01","0","SATNPRO1962","26.662","0.37346","5"],
    [35398,"HCEP03730560","2024-10-01 00:15:00","11.536","3.48056","26.114","2.084","7.54","0.396","4.706","0.06","0.34","30.3479","4.76319","23.17","0","SATNPRO1962","27.032","0.37856","5"],
    [35399,"HCEP03730560","2024-10-01 00:30:00","11.5379","3.48112","26.234","2.198","7.55","0.41","4.828","0.09","0.27","30.3517","4.76372","24.44","0","SATNPRO1962","26.932","0.37718","5"],
    [35400,"HCEP03730560","2024-10-01 00:45:00","11.5402","3.48134","26.37","2.246","7.55","0.378","4.08","0.05","0.2","30.3519","4.76372","24.97","0","SATNPRO1962","27.342","0.38296","5"],
    [35401,"HCEP03730560","2024-10-01 01:00:00","11.5414","3.48141","26.511","2.292","7.56","0.392","4.755","0.06","0.28","30.3515","4.76365","25.48","0","SATNPRO1962","27.182","0.3807","5"],
    [35402,"HCEP03730560","2024-10-01 01:15:00","11.5419","3.48153","26.63","2.328","7.56","0.382","4.331","0.07","0.41","30.3522","4.76375","25.89","0","SATNPRO1962","27.182","0.38074","5"],
    [35403,"HCEP03730560","2024-10-01 01:30:00","11.5432","3.4824","26.739","2.319","7.56","0.347","4.803","0.03","0.2","30.3595","4.76476","25.79","0","SATNPRO1962","26.836","0.37588","5"],
    [35404,"HCEP03730560","2024-10-01 01:45:00","11.543","3.4824","26.842","2.236","7.56","0.422","5.018","0.13","0.27","30.3597","4.76481","24.87","0","SATNPRO1962","26.734","0.37446","5"],
    [35405,"HCEP03730560","2024-10-01 02:00:00","11.5424","3.48234","26.946","2.228","7.56","0.366","5.031","0.06","0.25","30.3595","4.76479","24.78","0","SATNPRO1962","26.782","0.37514","5"],
    [35406,"HCEP03730560","2024-10-01 02:15:00","11.5417","3.48223","27.064","2.228","7.56","0.38","5.527","0.03","0.29","30.359","4.76473","24.78","0","SATNPRO1962","26.942","0.37738","5"],
    [35407,"HCEP03730560","2024-10-01 02:30:00","11.5417","3.48222","27.1","2.233","7.56","0.343","5.287","0.03","0.25","30.3588","4.76472","24.84","0","SATNPRO1962","27","0.37816","5"],
    [35408,"HCEP03730560","2024-10-01 02:45:00","11.5426","3.48247","27.201","2.216","7.56","0.374","5.062","0.07","0.32","30.3605","4.76494","24.65","0","SATNPRO1962","26.878","0.37646","5"],
    [35409,"HCEP03730560","2024-10-01 03:00:00","11.5442","3.48302","27.286","2.206","7.56","0.363","4.882","0.06","0.26","30.3645","4.7655","24.53","0","SATNPRO1962","26.862000000000002","0.3762","5"],
    [35410,"HCEP03730560","2024-10-01 03:15:00","11.5466","3.48367","27.325","2.203","7.56","0.333","4.726","0.03","0.29","30.3688","4.76607","24.51","0","SATNPRO1962","26.708000000000002","0.37412","5"],
    [35411,"HCEP03730560","2024-10-01 03:30:00","11.5493","3.48435","27.341","2.211","7.56","0.314","4.598","0.05","0.29","30.3731","4.76664","24.6","0","SATNPRO1962","26.918","0.37704","5"],
    [35412,"HCEP03730560","2024-10-01 03:45:00","11.5507","3.48472","27.361","2.217","7.56","0.325","4.613","0.03","0.37","30.3755","4.76696","24.66","0","SATNPRO1962","27.066","0.37908","5"],
    [35413,"HCEP03730560","2024-10-01 04:00:00","11.5507","3.48483","27.363","2.195","7.56","0.327","5.024","0.04","0.51","30.3766","4.76712","24.42","0","SATNPRO1962","26.824","0.37574","5"],
    [35414,"HCEP03730560","2024-10-01 04:15:00","11.5531","3.48547","27.345","2.18","7.56","0.333","4.776","0.02","0.36","30.3808","4.76767","24.25","0","SATNPRO1962","27","0.37822","5"],
    [35415,"HCEP03730560","2024-10-01 04:30:00","11.5537","3.48566","27.285","2.165","7.56","0.322","5.339","0.03","1.66","30.3822","4.76786","24.09","0","SATNPRO1962","26.746000000000002","0.37462","5"],
    [35416,"HCEP03730560","2024-10-01 04:45:00","11.5534","3.48563","27.212","2.143","7.55","0.352","4.458","0.05","0.22","30.3822","4.76786","23.84","0","SATNPRO1962","26.624","0.37292","5"],
    [35417,"HCEP03730560","2024-10-01 05:00:00","11.5534","3.48569","27.12","2.137","7.55","0.324","4.437","0.05","0.2","30.3828","4.76794","23.78","0","SATNPRO1962","26.928","0.37722","5"],
    [35418,"HCEP03730560","2024-10-01 05:15:00","11.5513","3.4852","27.034","2.123","7.55","0.313","4.166","0.02","0.07","30.3799","4.76755","23.62","0","SATNPRO1962","26.592","0.37248","5"],
    [35419,"HCEP03730560","2024-10-01 05:30:00","11.5481","3.48427","26.955","2.106","7.55","0.328","4.643","0.05","0.18","30.3735","4.76669","23.43","0","SATNPRO1962","26.636","0.37312","5"],
    [35420,"HCEP03730560","2024-10-01 05:45:00","11.5469","3.48387","26.848","2.111","7.55","0.35","4.497","0.07","0.15","30.3707","4.7663","23.48","0","SATNPRO1962","27.362","0.38324","5"],
    [35421,"HCEP03730560","2024-10-01 06:00:00","11.5451","3.48329","26.742","2.133","7.55","0.344","4.578","0.05","0.24","30.3665","4.76573","23.72","0","SATNPRO1962","27.444","0.38442","5"],
    [35422,"HCEP03730560","2024-10-01 06:15:00","11.543","3.48275","26.616","2.148","7.55","0.334","4.328","0.04","0.16","30.3632","4.76529","23.89","0","SATNPRO1962","27.372","0.38336","5"],
    [35423,"HCEP03730560","2024-10-01 06:30:00","11.5419","3.48248","26.48","2.142","7.55","0.377","4.973","0.06","0.28","30.3614","4.76504","23.83","0","SATNPRO1962","26.782","0.37512","5"],
    [35424,"HCEP03730560","2024-10-01 06:45:00","11.5417","3.48242","26.36","2.137","7.55","0.369","4.562","0.05","0.23","30.3611","4.76499","23.77","0","SATNPRO1962","26.946","0.37742","5"],
    [35425,"HCEP03730560","2024-10-01 07:00:00","11.5413","3.48229","26.226","2.132","7.55","0.351","4.968","0.03","0.25","30.3602","4.76487","23.71","0","SATNPRO1962","26.918","0.37704","5"],
    [35426,"HCEP03730560","2024-10-01 07:15:00","11.5414","3.48239","26.08","2.123","7.55","0.37","4.718","0.04","0.17","30.3612","4.765","23.61","0","SATNPRO1962","26.6","0.3726","5"],
    [35427,"HCEP03730560","2024-10-01 07:30:00","11.5418","3.48251","25.932","2.106","7.55","0.345","4.502","0.05","0.12","30.362","4.7651","23.42","0","SATNPRO1962","26.83","0.37582","5"],
    [35428,"HCEP03730560","2024-10-01 07:45:00","11.5417","3.48248","25.778","2.105","7.55","0.387","4.765","0.1","0.25","30.3619","4.76508","23.41","0","SATNPRO1962","27.616","0.38686","5"],
    [35429,"HCEP03730560","2024-10-01 08:00:00","11.54","3.48194","25.622","2.129","7.55","0.333","4.381","0.04","0.2","30.3581","4.76455","23.68","0","SATNPRO1962","27.256","0.38182","5"],
    [35430,"HCEP03730560","2024-10-01 08:15:00","11.5388","3.48169","25.475","2.154","7.55","0.342","4.242","0.02","0.21","30.3567","4.76437","23.95","0","SATNPRO1962","27.208000000000002","0.38112","5"],
    [35431,"HCEP03730560","2024-10-01 08:30:00","11.541","3.48236","25.322","2.145","7.55","0.386","4.637","0.16","0.2","30.3615","4.76501","23.86","0","SATNPRO1962","26.958000000000002","0.3776","5"],
    [35432,"HCEP03730560","2024-10-01 08:45:00","11.5412","3.48234","25.209","2.118","7.55","0.385","4.99","0.03","0.21","30.3612","4.76495","23.56","0","SATNPRO1962","26.945999999999998","0.3774","5"],
    [35433,"HCEP03730560","2024-10-01 09:00:00","11.5419","3.48263","25.066","2.101","7.55","0.364","4.448","0.12","0.3","30.3635","4.76526","23.37","0","SATNPRO1962","26.72","0.37426","5"],
    [35434,"HCEP03730560","2024-10-01 09:15:00","11.5424","3.48291","25.009","2.076","7.55","0.376","4.755","0.03","0.17","30.3657","4.76557","23.09","0","SATNPRO1962","26.56","0.372","5"],
    [35435,"HCEP03730560","2024-10-01 09:30:00","11.5435","3.48321","24.916","2.039","7.54","0.379","5.679","0.02","0.17","30.3678","4.76583","22.68","0","SATNPRO1962","26.47","0.37078","5"],
    [35436,"HCEP03730560","2024-10-01 09:45:00","11.5459","3.48388","24.925","2.031","7.54","0.378","5.226","0.02","0.17","30.3724","4.76645","22.59","0","SATNPRO1962","26.332","0.36882","5"],
    [35437,"HCEP03730560","2024-10-01 10:00:00","11.5468","3.48428","24.956","2.021","7.54","0.344","5.034","0.02","0.16","30.3755","4.76688","22.48","0","SATNPRO1962","26.416","0.37002","5"],
    [35438,"HCEP03730560","2024-10-01 10:15:00","11.5492","3.48504","25.002","1.978","7.54","0.374","5.043","0.04","0.14","30.3808","4.7676","22","0","SATNPRO1962","26.204","0.36704","5"],
    [35439,"HCEP03730560","2024-10-01 10:30:00","11.5529","3.48607","25.072","1.977","7.54","0.339","4.833","0.03","0.34","30.3877","4.76852","22","0","SATNPRO1962","26.37","0.36936","5"],
    [35440,"HCEP03730560","2024-10-01 10:45:00","11.5572","3.48697","25.137","2.006","7.54","0.382","4.501","0.08","0.13","30.3929","4.7692","22.33","0","SATNPRO1962","26.64","0.37316","5"],
    [35441,"HCEP03730560","2024-10-01 11:00:00","11.5579","3.48715","25.235","2.044","7.54","0.334","4.402","0.03","0.2","30.394","4.76935","22.75","0","SATNPRO1962","26.826","0.37576","5"],
    [35442,"HCEP03730560","2024-10-01 11:15:00","11.5593","3.48732","25.32","2.098","7.55","0.349","4.131","0.03","0.13","30.3944","4.7694","23.34","0","SATNPRO1962","27.13","0.38","5"],
    [35443,"HCEP03730560","2024-10-01 11:30:00","11.5602","3.48761","25.445","2.133","7.55","0.341","4.4","0.06","0.25","30.3964","4.76967","23.74","0","SATNPRO1962","26.856","0.37616","5"],
    [35444,"HCEP03730560","2024-10-01 11:45:00","11.5639","3.48831","25.585","2.119","7.55","0.37","4.767","0.03","0.17","30.4002","4.77016","23.59","0","SATNPRO1962","26.9","0.37682","5"],
    [35445,"HCEP03730560","2024-10-01 12:00:00","11.5678","3.4891","25.734","2.103","7.55","0.359","4.987","0.03","0.23","30.4045","4.77072","23.41","0","SATNPRO1962","26.830000000000002","0.3758","5"],
    [35446,"HCEP03730560","2024-10-01 12:15:00","11.5717","3.4898","25.856","2.123","7.55","0.4","5.07","0.07","0.27","30.408","4.77117","23.63","0","SATNPRO1962","26.73","0.37444","5"],
    [35447,"HCEP03730560","2024-10-01 12:30:00","11.5795","3.49096","26.035","2.151","7.56","0.341","4.938","0.02","0.38","30.4129","4.77175","23.95","0","SATNPRO1962","26.95","0.37746","5"],
    [35448,"HCEP03730560","2024-10-01 12:45:00","11.5794","3.49113","26.192","2.193","7.56","0.382","5.199","0.03","0.21","30.4144","4.77198","24.42","0","SATNPRO1962","26.932","0.37722","5"],
    [35449,"HCEP03730560","2024-10-01 13:00:00","11.5828","3.49172","26.329","2.185","7.56","0.345","5.036","0.03","0.25","30.4174","4.77236","24.33","0","SATNPRO1962","27","0.37818","5"],
    [35450,"HCEP03730560","2024-10-01 13:15:00","11.5849","3.49203","26.527","2.193","7.56","0.463","5.399","0.16","0.2","30.4186","4.77251","24.43","0","SATNPRO1962","26.982","0.37794","5"],
    [35451,"HCEP03730560","2024-10-01 13:30:00","11.5882","3.49241","26.664","2.208","7.56","0.361","5.134","0.05","0.65","30.4194","4.77259","24.59","0","SATNPRO1962","27.096","0.3795","5"],
    [35452,"HCEP03730560","2024-10-01 13:45:00","11.5943","3.49311","26.817","2.252","7.56","0.392","5.393","0.05","0.31","30.4211","4.77274","25.09","0","SATNPRO1962","27.2","0.38102","5"],
    [35453,"HCEP03730560","2024-10-01 14:00:00","11.5958","3.49343","26.888","2.308","7.57","0.327","4.937","0.02","0.22","30.423","4.77299","25.71","0","SATNPRO1962","27.34","0.38292","5"],
    [35454,"HCEP03730560","2024-10-01 14:15:00","11.5957","3.49339","26.987","2.342","7.57","0.379","5.126","0.13","0.25","30.4227","4.77296","26.08","0","SATNPRO1962","27.184","0.38076","5"],
    [35455,"HCEP03730560","2024-10-01 14:30:00","11.5932","3.49311","27.169","2.323","7.57","0.336","5.137","0.03","0.27","30.4219","4.7729","25.87","0","SATNPRO1962","27.334","0.38288","5"],
    [35456,"HCEP03730560","2024-10-01 14:45:00","11.5931","3.4931","27.347","2.308","7.57","0.377","5.176","0.06","0.54","30.4218","4.77288","25.71","0","SATNPRO1962","27.1","0.3796","5"],
    [35457,"HCEP03730560","2024-10-01 15:00:00","11.5906","3.49271","27.374","2.292","7.57","0.354","5.331","0.04","0.34","30.4201","4.77269","25.53","0","SATNPRO1962","27.172","0.3806","5"],
    [35458,"HCEP03730560","2024-10-01 15:15:00","11.5936","3.49311","27.467","2.265","7.57","0.346","5.014","0.03","0.82","30.4215","4.77284","25.22","0","SATNPRO1962","27.12","0.37984","5"],
    [35459,"HCEP03730560","2024-10-01 15:30:00","11.5921","3.49293","27.562","2.289","7.57","0.334","5.109","0.04","0.26","30.4209","4.77279","25.49","0","SATNPRO1962","27.358","0.38318","5"],
    [35460,"HCEP03730560","2024-10-01 15:45:00","11.589","3.49243","27.603","2.266","7.57","0.354","5.142","0.02","0.28","30.4187","4.77252","25.23","0","SATNPRO1962","27.078","0.37926","5"],
    [35461,"HCEP03730560","2024-10-01 16:00:00","11.587","3.49206","27.628","2.251","7.57","0.328","4.752","0.02","0.23","30.4167","4.77227","25.06","0","SATNPRO1962","27.282","0.38214","5"],
    [35462,"HCEP03730560","2024-10-01 16:15:00","11.5848","3.49173","27.666","2.233","7.57","0.362","4.594","0.09","0.21","30.4153","4.77211","24.87","0","SATNPRO1962","27.05","0.37888","5"],
    [35463,"HCEP03730560","2024-10-01 16:30:00","11.5825","3.49135","27.704","2.218","7.56","0.311","4.442","0.02","0.14","30.4134","4.77188","24.7","0","SATNPRO1962","27.27","0.38198","5"],
    [35464,"HCEP03730560","2024-10-01 16:45:00","11.5793","3.49084","27.724","2.206","7.56","0.353","4.603","0.04","0.24","30.4112","4.77161","24.56","0","SATNPRO1962","27.14","0.38014","5"],
    [35465,"HCEP03730560","2024-10-01 17:00:00","11.5757","3.49015","27.668","2.179","7.56","0.324","4.472","0.03","0.2","30.4075","4.77114","24.26","0","SATNPRO1962","27.156","0.38036","5"],
    [35466,"HCEP03730560","2024-10-01 17:15:00","11.572","3.48938","27.605","2.178","7.56","0.332","4.078","0.03","0.16","30.4031","4.77056","24.25","0","SATNPRO1962","27.074","0.37922","5"],
    [35467,"HCEP03730560","2024-10-01 17:30:00","11.5731","3.4893","27.513","2.185","7.56","0.304","3.694","0.03","0.12","30.4014","4.77031","24.32","0","SATNPRO1962","27.488","0.38504","5"],
    [35468,"HCEP03730560","2024-10-01 17:45:00","11.5753","3.48936","27.418","2.257","7.56","0.288","3.068","0.03","0.19","30.4003","4.77011","25.12","0","SATNPRO1962","27.748","0.38868","5"],
    [35469,"HCEP03730560","2024-10-01 18:00:00","11.5741","3.4888","27.292","2.322","7.57","0.267","2.938","0.03","0.1","30.3958","4.76949","25.85","0","SATNPRO1962","27.748","0.38864","5"],
    [35470,"HCEP03730560","2024-10-01 18:15:00","11.5734","3.48859","27.149","2.369","7.57","0.283","2.926","0.03","0.16","30.3945","4.7693","26.37","0","SATNPRO1962","28.112","0.39374","5"],
    [35471,"HCEP03730560","2024-10-01 18:30:00","11.5727","3.48831","27.024","2.392","7.57","0.249","2.748","0.03","0.16","30.3924","4.76901","26.63","0","SATNPRO1962","28.114","0.39378","5"],
    [35472,"HCEP03730560","2024-10-01 18:45:00","11.5724","3.48798","26.896","2.408","7.57","0.263","2.682","0.02","0.15","30.3894","4.76859","26.8","0","SATNPRO1962","28.15","0.39428","5"],
    [35473,"HCEP03730560","2024-10-01 19:00:00","11.5729","3.48769","26.775","2.446","7.58","0.247","2.372","0.03","0.04","30.3863","4.76813","27.23","0","SATNPRO1962","28.334","0.39684","5"],
    [35474,"HCEP03730560","2024-10-01 19:15:00","11.5743","3.48766","26.628","2.502","7.58","0.272","2.324","0.03","0.06","30.385","4.76792","27.85","0","SATNPRO1962","28.438","0.39832","5"],
    [35475,"HCEP03730560","2024-10-01 19:30:00","11.5746","3.48763","26.489","2.548","7.59","0.246","2.35","0.02","0.06","30.3845","4.76783","28.36","0","SATNPRO1962","28.448","0.39848","5"],
    [35476,"HCEP03730560","2024-10-01 19:45:00","11.5769","3.48773","26.306","2.58","7.59","0.291","2.614","0.08","0.09","30.3836","4.76767","28.72","0","SATNPRO1962","28.376","0.39748","5"],
    [35477,"HCEP03730560","2024-10-01 20:00:00","11.582","3.4878","26.162","2.661","7.6","0.247","2.567","0.01","0.09","30.3802","4.76711","29.63","0","SATNPRO1962","28.602","0.4006","5"],
    [35478,"HCEP03730560","2024-10-01 20:15:00","11.5766","3.48769","25.985","2.679","7.59","0.284","3.08","0.02","0.09","30.3836","4.76766","29.82","0","SATNPRO1962","28.24","0.39554","5"],
    [35479,"HCEP03730560","2024-10-01 20:30:00","11.5791","3.48775","25.816","2.591","7.59","0.262","3.169","0.02","0.11","30.3822","4.76741","28.84","0","SATNPRO1962","28.282","0.39612","5"],
    [35480,"HCEP03730560","2024-10-01 20:45:00","11.5826","3.48762","25.675","2.639","7.6","0.281","2.779","0.02","0.09","30.3781","4.76678","29.38","0","SATNPRO1962","28.846","0.40404","5"],
    [35481,"HCEP03730560","2024-10-01 21:00:00","11.5781","3.48741","25.522","2.713","7.6","0.312","3.407","0.08","0.31","30.3798","4.76707","30.21","0","SATNPRO1962","28.252","0.39572","5"],
    [35482,"HCEP03730560","2024-10-01 21:15:00","11.5779","3.48709","25.392","2.658","7.6","0.284","2.94","0.02","0.16","30.377","4.76667","29.59","0","SATNPRO1962","28.752","0.4027","5"],
    [35483,"HCEP03730560","2024-10-01 21:30:00","11.5674","3.48728","25.269","2.513","7.59","0.349","5.2","0.03","0.22","30.3874","4.76828","27.96","0","SATNPRO1962","26.727999999999998","0.37436","5"],
    [35484,"HCEP03730560","2024-10-01 21:45:00","11.5669","3.48756","25.197","2.259","7.57","0.333","4.461","0.02","0.12","30.3906","4.76875","25.15","0","SATNPRO1962","26.66","0.3734","5"],
    [35485,"HCEP03730560","2024-10-01 22:00:00","11.5685","3.48834","25.125","2.153","7.56","0.322","4.577","0.03","0.23","30.3968","4.7696","23.96","0","SATNPRO1962","26.602","0.37258","5"],
    [35486,"HCEP03730560","2024-10-01 22:15:00","11.5696","3.48836","25.107","2.118","7.56","0.325","4.268","0.05","0.19","30.3962","4.76948","23.57","0","SATNPRO1962","26.862","0.37626","5"],
    [35487,"HCEP03730560","2024-10-01 22:30:00","11.571","3.48842","25.105","2.155","7.56","0.31","4.552","0.02","0.18","30.3956","4.76938","23.98","0","SATNPRO1962","26.98","0.37788","5"],
    [35488,"HCEP03730560","2024-10-01 22:45:00","11.5721","3.489","25.163","2.165","7.56","0.32","4.548","0.02","0.35","30.4002","4.77002","24.1","0","SATNPRO1962","26.806","0.37548","5"],
    [35489,"HCEP03730560","2024-10-01 23:00:00","11.5744","3.48955","25.239","2.141","7.56","0.282","4.058","0.02","0.17","30.4037","4.77048","23.83","0","SATNPRO1962","26.858","0.37622","5"],
    [35490,"HCEP03730560","2024-10-01 23:15:00","11.5756","3.48972","25.225","2.171","7.56","0.281","3.674","0.01","0.12","30.4043","4.77056","24.17","0","SATNPRO1962","26.992","0.37808","5"],
    [35491,"HCEP03730560","2024-10-01 23:30:00","11.579","3.49036","25.313","2.188","7.56","0.271","3.976","0.02","0.15","30.4076","4.77098","24.36","0","SATNPRO1962","26.936","0.37732","5"],
    [35492,"HCEP03730560","2024-10-01 23:45:00","11.5797","3.49029","25.381","2.215","7.56","0.292","3.965","0.01","0.11","30.4065","4.77081","24.66","0","SATNPRO1962","27.004","0.37826","5"],
    [35493,"HCEP03730560","2024-10-02 00:00:00","11.5814","3.49069","25.556","2.23","7.56","0.271","4.055","0.01","0.1","30.4089","4.77113","24.83","0","SATNPRO1962","27.226","0.3813","5"],
    [35494,"HCEP03730560","2024-10-02 00:15:00","11.581","3.49048","25.631","2.25","7.56","0.279","3.561","0.02","0.11","30.4071","4.77089","25.05","0","SATNPRO1962","27.362","0.38326","5"],
    [35495,"HCEP03730560","2024-10-02 00:30:00","11.5817","3.49086","25.756","2.231","7.56","0.283","4.434","0.02","0.09","30.4102","4.77132","24.84","0","SATNPRO1962","26.598","0.37254","5"],
    [35496,"HCEP03730560","2024-10-02 00:45:00","11.5831","3.49145","25.854","2.122","7.56","0.319","4.844","0.01","0.08","30.4147","4.77194","23.63","0","SATNPRO1962","26.142","0.36614","5"],
    [35497,"HCEP03730560","2024-10-02 01:00:00","11.5845","3.49173","25.911","2.051","7.55","0.302","5.149","0.01","0.15","30.4161","4.77213","22.84","0","SATNPRO1962","26.266","0.36788","5"],
    [35498,"HCEP03730560","2024-10-02 01:15:00","11.5865","3.49203","26.048","2.044","7.55","0.32","5.147","0.01","0.17","30.4175","4.7723","22.77","0","SATNPRO1962","26.34","0.36896","5"],
    [35499,"HCEP03730560","2024-10-02 01:30:00","11.5892","3.49242","26.227","2.083","7.55","0.295","5.016","0.01","0.18","30.4189","4.77247","23.2","0","SATNPRO1962","26.452","0.37048","5"],
    [35500,"HCEP03730560","2024-10-02 01:45:00","11.5898","3.49249","26.342","2.114","7.55","0.321","5.1","0.02","0.15","30.419","4.77249","23.55","0","SATNPRO1962","26.384","0.36956","5"],
    [35501,"HCEP03730560","2024-10-02 02:00:00","11.5899","3.49249","26.489","2.112","7.55","0.313","5.345","0.04","0.23","30.4189","4.77248","23.53","0","SATNPRO1962","26.474","0.37084","5"],
    [35502,"HCEP03730560","2024-10-02 02:15:00","11.5915","3.49268","26.584","2.116","7.55","0.317","5.088","0.02","0.19","30.4194","4.77253","23.57","0","SATNPRO1962","26.556","0.37198","5"],
    [35503,"HCEP03730560","2024-10-02 02:30:00","11.5921","3.49254","26.731","2.157","7.56","0.279","4.457","0.01","0.18","30.4175","4.77226","24.02","0","SATNPRO1962","26.872","0.37642","5"],
    [35504,"HCEP03730560","2024-10-02 02:45:00","11.5913","3.49243","26.903","2.184","7.56","0.317","4.687","0.03","0.12","30.417","4.77221","24.33","0","SATNPRO1962","26.928","0.37718","5"],
    [35505,"HCEP03730560","2024-10-02 03:00:00","11.5881","3.49171","27.006","2.19","7.56","0.278","4.338","0.02","0.1","30.4127","4.77166","24.39","0","SATNPRO1962","27.236","0.3815","5"],
    [35506,"HCEP03730560","2024-10-02 03:15:00","11.583","3.49065","27.116","2.227","7.56","0.293","4.02","0.03","0.19","30.4066","4.77087","24.8","0","SATNPRO1962","27.456","0.3846","5"],
    [35507,"HCEP03730560","2024-10-02 03:30:00","11.5817","3.49088","27.205","2.204","7.56","0.302","4.65","0.02","0.15","30.4098","4.77135","24.54","0","SATNPRO1962","26.992","0.3781","5"],
    [35508,"HCEP03730560","2024-10-02 03:45:00","11.5792","3.49055","27.281","2.118","7.56","0.322","4.622","0.03","0.17","30.4085","4.77121","23.59","0","SATNPRO1962","26.828","0.3758","5"],
    [35509,"HCEP03730560","2024-10-02 04:00:00","11.5752","3.48982","27.32","2.08","7.55","0.279","4.29","0.02","0.11","30.4048","4.77074","23.16","0","SATNPRO1962","26.7","0.37398","5"],
    [35510,"HCEP03730560","2024-10-02 04:15:00","11.5721","3.48902","27.335","2.095","7.55","0.307","4.001","0.03","0.14","30.3996","4.77005","23.32","0","SATNPRO1962","27.464","0.38466","5"],
    [35511,"HCEP03730560","2024-10-02 04:30:00","11.5692","3.48856","27.355","2.111","7.55","0.286","4.302","0.02","0.15","30.3975","4.7698","23.49","0","SATNPRO1962","26.66","0.37342","5"],
    [35512,"HCEP03730560","2024-10-02 04:45:00","11.5674","3.48816","27.335","2.096","7.55","0.297","3.983","0.02","0.14","30.3952","4.7695","23.33","0","SATNPRO1962","27.012","0.37834","5"],
    [35513,"HCEP03730560","2024-10-02 05:00:00","11.5663","3.48781","27.286","2.112","7.55","0.268","3.732","0.03","0.13","30.3927","4.76917","23.5","0","SATNPRO1962","27.288","0.38224","5"],
    [35514,"HCEP03730560","2024-10-02 05:15:00","11.5694","3.48856","27.248","2.118","7.55","0.315","4.698","0.01","0.23","30.3975","4.76979","23.57","0","SATNPRO1962","26.904","0.37682","5"],
    [35515,"HCEP03730560","2024-10-02 05:30:00","11.5723","3.48916","27.185","2.091","7.55","0.314","4.776","0.04","0.23","30.4009","4.77022","23.27","0","SATNPRO1962","26.712","0.37412","5"],
    [35516,"HCEP03730560","2024-10-02 05:45:00","11.5788","3.49028","27.098","2.089","7.55","0.33","4.876","0.03","0.34","30.4064","4.7709","23.25","0","SATNPRO1962","27.03","0.37856","5"],
    [35517,"HCEP03730560","2024-10-02 06:00:00","11.5854","3.49133","27.004","2.127","7.55","0.317","4.659","0.05","0.15","30.4112","4.77148","23.69","0","SATNPRO1962","26.98","0.3779","5"],
    [35518,"HCEP03730560","2024-10-02 06:15:00","11.5851","3.49127","26.904","2.167","7.56","0.358","4.673","0.09","0.27","30.4109","4.77143","24.13","0","SATNPRO1962","27.044","0.3788","5"],
    [35519,"HCEP03730560","2024-10-02 06:30:00","11.5862","3.49162","26.806","2.174","7.56","0.302","4.692","0.04","0.33","30.4133","4.77176","24.21","0","SATNPRO1962","26.902","0.37678","5"],
    [35520,"HCEP03730560","2024-10-02 06:45:00","11.5816","3.49088","26.697","2.173","7.56","0.336","4.711","0.03","0.22","30.4101","4.77137","24.19","0","SATNPRO1962","27.13","0.37996","5"],
    [35521,"HCEP03730560","2024-10-02 07:00:00","11.5878","3.49171","26.587","2.169","7.56","0.307","4.536","0.03","0.2","30.4131","4.77169","24.15","0","SATNPRO1962","27.126","0.37992","5"],
    [35522,"HCEP03730560","2024-10-02 07:15:00","11.5882","3.49167","26.471","2.179","7.56","0.317","4.576","0.02","0.33","30.4123","4.77158","24.26","0","SATNPRO1962","27.156","0.38036","5"],
    [35523,"HCEP03730560","2024-10-02 07:30:00","11.596","3.49287","26.332","2.21","7.56","0.293","4.603","0.02","0.36","30.4176","4.77219","24.62","0","SATNPRO1962","27.258","0.3818","5"],
    [35524,"HCEP03730560","2024-10-02 07:45:00","11.6003","3.49359","26.22","2.258","7.56","0.327","4.5","0.02","0.23","30.4211","4.77263","25.16","0","SATNPRO1962","27.152","0.3803","5"],
    [35525,"HCEP03730560","2024-10-02 08:00:00","11.5997","3.4935","26.074","2.261","7.56","0.32","4.927","0.03","0.28","30.4208","4.77258","25.19","0","SATNPRO1962","27.018","0.37846","5"],
    [35526,"HCEP03730560","2024-10-02 08:15:00","11.6004","3.4934","25.925","2.286","7.57","0.326","4.07","0.05","0.16","30.4193","4.77236","25.46","0","SATNPRO1962","27.542","0.3858","5"],
    [35527,"HCEP03730560","2024-10-02 08:30:00","11.5972","3.49283","25.78","2.302","7.57","0.306","4.295","0.02","0.21","30.4165","4.772","25.64","0","SATNPRO1962","27.348","0.38302","5"],
    [35528,"HCEP03730560","2024-10-02 08:45:00","11.5963","3.49284","25.642","2.291","7.57","0.328","4.442","0.02","0.27","30.4174","4.77212","25.52","0","SATNPRO1962","27.194","0.38088","5"],
    [35529,"HCEP03730560","2024-10-02 09:00:00","11.5952","3.49274","25.494","2.237","7.57","0.337","4.38","0.07","0.15","30.4174","4.77214","24.92","0","SATNPRO1962","26.964","0.37768","5"],
    [35530,"HCEP03730560","2024-10-02 09:15:00","11.5922","3.49232","25.411","2.202","7.56","0.356","5.01","0.03","0.31","30.4158","4.77194","24.53","0","SATNPRO1962","26.732","0.37442","5"],
    [35531,"HCEP03730560","2024-10-02 09:30:00","11.59","3.49195","25.298","2.159","7.56","0.301","4.54","0.01","0.23","30.4141","4.77173","24.04","0","SATNPRO1962","26.701999999999998","0.37402","5"],
    [35532,"HCEP03730560","2024-10-02 09:45:00","11.587","3.49151","25.208","2.133","7.56","0.344","4.723","0.02","0.18","30.4123","4.77151","23.75","0","SATNPRO1962","26.53","0.37156","5"],
    [35533,"HCEP03730560","2024-10-02 10:00:00","11.5839","3.49107","25.176","2.095","7.55","0.31","4.585","0.03","0.08","30.4107","4.77133","23.33","0","SATNPRO1962","26.444","0.37038","5"],
    [35534,"HCEP03730560","2024-10-02 10:15:00","11.5819","3.49074","25.107","2.055","7.55","0.332","4.616","0.02","0.09","30.4091","4.77113","22.88","0","SATNPRO1962","26.39","0.36966","5"],
    [35535,"HCEP03730560","2024-10-02 10:30:00","11.5817","3.49063","25.129","2.048","7.55","0.301","4.395","0.01","0.09","30.4082","4.77101","22.81","0","SATNPRO1962","26.404","0.36984","5"],
    [35536,"HCEP03730560","2024-10-02 10:45:00","11.5783","3.49017","25.172","2.029","7.55","0.338","4.642","0.03","0.2","30.4065","4.77082","22.59","0","SATNPRO1962","26.304","0.36846","5"],
    [35537,"HCEP03730560","2024-10-02 11:00:00","11.5748","3.48955","25.246","1.988","7.54","0.291","4.283","0.01","0.08","30.4033","4.77042","22.13","0","SATNPRO1962","26.28","0.3681","5"],
    [35538,"HCEP03730560","2024-10-02 11:15:00","11.5736","3.48906","25.322","2.001","7.55","0.312","4.049","0.02","0.08","30.3996","4.76992","22.27","0","SATNPRO1962","26.558","0.372","5"],
    [35539,"HCEP03730560","2024-10-02 11:30:00","11.5764","3.48916","25.385","2.105","7.55","0.274","3.449","0.02","0.11","30.3982","4.76968","23.43","0","SATNPRO1962","27.294","0.38226","5"],
    [35540,"HCEP03730560","2024-10-02 11:45:00","11.5777","3.4893","25.504","2.218","7.56","0.276","3.047","0.01","0.07","30.3985","4.76971","24.69","0","SATNPRO1962","27.56","0.38602","5"],
    [35541,"HCEP03730560","2024-10-02 12:00:00","11.5764","3.48902","25.589","2.272","7.56","0.25","3.015","0.02","0.09","30.3967","4.76949","25.29","0","SATNPRO1962","27.744","0.3886","5"],
    [35542,"HCEP03730560","2024-10-02 12:15:00","11.577","3.48897","25.693","2.268","7.56","0.28","3.142","0.02","0.09","30.3958","4.76935","25.25","0","SATNPRO1962","27.69","0.38782","5"],
    [35543,"HCEP03730560","2024-10-02 12:30:00","11.5732","3.48855","25.841","2.278","7.56","0.268","3.185","0.03","0.08","30.3948","4.76928","25.36","0","SATNPRO1962","27.502","0.38518","5"],
    [35544,"HCEP03730560","2024-10-02 12:45:00","11.5746","3.48853","25.927","2.261","7.56","0.272","2.864","0.03","0.05","30.3934","4.76906","25.16","0","SATNPRO1962","27.834","0.38988","5"],
    [35545,"HCEP03730560","2024-10-02 13:00:00","11.5734","3.48824","26.077","2.296","7.56","0.246","2.89","0.01","0.04","30.3915","4.76882","25.55","0","SATNPRO1962","27.898","0.39076","5"],
    [35546,"HCEP03730560","2024-10-02 13:15:00","11.5724","3.48804","26.209","2.302","7.57","0.274","2.917","0.02","0.15","30.3903","4.76867","25.63","0","SATNPRO1962","27.882","0.39054","5"],
    [35547,"HCEP03730560","2024-10-02 13:30:00","11.5681","3.48742","26.416","2.305","7.57","0.253","2.754","0.02","0.06","30.3877","4.76838","25.65","0","SATNPRO1962","28","0.39218","5"],
    [35548,"HCEP03730560","2024-10-02 13:45:00","11.5652","3.48686","26.579","2.293","7.57","0.283","2.768","0.03","0.14","30.3847","4.76801","25.52","0","SATNPRO1962","27.918","0.39102","5"],
    [35549,"HCEP03730560","2024-10-02 14:00:00","11.5657","3.48705","26.733","2.259","7.56","0.257","2.877","0.03","0.16","30.386","4.76819","25.14","0","SATNPRO1962","27.762","0.38888","5"],
    [35550,"HCEP03730560","2024-10-02 14:15:00","11.5681","3.48714","26.891","2.272","7.57","0.274","2.628","0.04","0.14","30.3849","4.76801","25.29","0","SATNPRO1962","28.178","0.3947","5"],
    [35551,"HCEP03730560","2024-10-02 14:30:00","11.5657","3.48642","26.997","2.368","7.57","0.296","3.067","0.02","0.09","30.3798","4.76734","26.35","0","SATNPRO1962","27.844","0.38998","5"],
    [35552,"HCEP03730560","2024-10-02 14:45:00","11.5732","3.48707","27.137","2.416","7.58","0.273","2.235","0.03","0.08","30.3799","4.76725","26.89","0","SATNPRO1962","28.992","0.40612","5"],
    [35553,"HCEP03730560","2024-10-02 15:00:00","11.5627","3.48583","27.178","2.499","7.58","0.291","2.964","0.05","0.08","30.3766","4.76692","27.81","0","SATNPRO1962","28.068","0.39314","5"],
    [35554,"HCEP03730560","2024-10-02 15:15:00","11.5587","3.48538","27.395","2.321","7.57","0.297","3.241","0.02","0.12","30.3754","4.76683","25.83","0","SATNPRO1962","27.446","0.38442","5"],
    [35555,"HCEP03730560","2024-10-02 15:30:00","11.5624","3.48636","27.424","2.182","7.56","0.307","3.903","0.03","0.13","30.3818","4.76768","24.28","0","SATNPRO1962","27.466","0.38468","5"],
    [35556,"HCEP03730560","2024-10-02 15:45:00","11.5568","3.48552","27.489","2.114","7.55","0.343","4.382","0.04","0.19","30.3783","4.76727","23.52","0","SATNPRO1962","26.75","0.37468","5"],
    [35557,"HCEP03730560","2024-10-02 16:00:00","11.5534","3.48502","27.669","2","7.55","0.324","4.537","0.02","0.13","30.3762","4.76703","22.25","0","SATNPRO1962","26.26","0.3678","5"],
    [35558,"HCEP03730560","2024-10-02 16:15:00","11.5532","3.48491","27.599","1.933","7.54","0.338","4.396","0.02","0.16","30.3753","4.7669","21.51","0","SATNPRO1962","26.49","0.37106","5"],
    [35559,"HCEP03730560","2024-10-02 16:30:00","11.5546","3.48515","27.642","1.94","7.54","0.315","4.218","0.04","0.07","30.3764","4.76705","21.59","0","SATNPRO1962","26.604","0.37264","5"],
    [35560,"HCEP03730560","2024-10-02 16:45:00","11.5555","3.48536","27.668","1.945","7.54","0.335","4.518","0.02","0.14","30.3776","4.76721","21.64","0","SATNPRO1962","26.422","0.37008","5"],
    [35561,"HCEP03730560","2024-10-02 17:00:00","11.5581","3.48585","27.645","1.956","7.54","0.309","4.515","0.02","0.1","30.3803","4.76755","21.76","0","SATNPRO1962","26.631999999999998","0.37304","5"],
    [35562,"HCEP03730560","2024-10-02 17:15:00","11.5649","3.48669","27.593","2.03","7.54","0.326","4.381","0.02","0.11","30.3829","4.76781","22.6","0","SATNPRO1962","27.256","0.38174","5"],
    [35563,"HCEP03730560","2024-10-02 17:30:00","11.5758","3.48937","27.54","2.096","7.54","0.346","5.637","0.02","0.29","30.3999","4.77005","23.34","0","SATNPRO1962","26.222","0.36732","5"],
    [35564,"HCEP03730560","2024-10-02 17:45:00","11.5835","3.49105","27.464","1.982","7.54","0.348","5.408","0.02","0.23","30.4098","4.77135","22.07","0","SATNPRO1962","25.578","0.35822","5"],
    [35565,"HCEP03730560","2024-10-02 18:00:00","11.5922","3.49267","27.404","1.933","7.54","0.31","5.14","0.04","1.16","30.4184","4.77242","21.53","0","SATNPRO1962","25.68","0.35968","5"],
    [35566,"HCEP03730560","2024-10-02 18:15:00","11.5924","3.49273","27.299","1.965","7.54","0.332","5.221","0.02","0.22","30.4189","4.77248","21.89","0","SATNPRO1962","25.806","0.36144","5"],
    [35567,"HCEP03730560","2024-10-02 18:30:00","11.5939","3.49292","27.163","1.949","7.54","0.307","5.132","0.02","0.7","30.4195","4.77255","21.71","0","SATNPRO1962","25.782","0.36112","5"],
    [35568,"HCEP03730560","2024-10-02 18:45:00","11.604","3.49472","27.034","1.957","7.54","0.325","4.837","0.02","0.14","30.4287","4.77369","21.81","0","SATNPRO1962","25.87","0.36238","5"],
    [35569,"HCEP03730560","2024-10-02 19:00:00","11.6114","3.4959","26.904","2.017","7.54","0.296","4.947","0.02","0.15","30.434","4.77433","22.48","0","SATNPRO1962","26.24","0.36754","5"],
    [35570,"HCEP03730560","2024-10-02 19:15:00","11.6102","3.49569","26.783","2.095","7.55","0.316","4.736","0.02","0.21","30.433","4.7742","23.34","0","SATNPRO1962","26.38","0.36948","5"],
    [35571,"HCEP03730560","2024-10-02 19:30:00","11.6079","3.49501","26.648","2.148","7.55","0.276","4.245","0.03","0.16","30.4284","4.77357","23.93","0","SATNPRO1962","26.886","0.37656","5"],
    [35572,"HCEP03730560","2024-10-02 19:45:00","11.5965","3.4927","26.497","2.182","7.56","0.292","4.354","0.02","0.25","30.4155","4.77191","24.3","0","SATNPRO1962","26.945999999999998","0.37744","5"],
    [35573,"HCEP03730560","2024-10-02 20:00:00","11.5995","3.49324","26.325","2.197","7.56","0.299","4.389","0.1","0.15","30.4184","4.77226","24.47","0","SATNPRO1962","26.816","0.37558","5"],
    [35574,"HCEP03730560","2024-10-02 20:15:00","11.5959","3.49282","26.173","2.173","7.56","0.292","4.003","0.03","0.13","30.4173","4.77215","24.21","0","SATNPRO1962","26.644000000000002","0.3732","5"],
    [35575,"HCEP03730560","2024-10-02 20:30:00","11.5952","3.49246","25.997","2.16","7.56","0.274","4.169","0.03","0.16","30.4144","4.77174","24.06","0","SATNPRO1962","26.988","0.37802","5"],
    [35576,"HCEP03730560","2024-10-02 20:45:00","11.5938","3.4924","25.824","2.189","7.56","0.292","4.209","0.02","0.17","30.4151","4.77185","24.38","0","SATNPRO1962","26.892","0.37664","5"],
    [35577,"HCEP03730560","2024-10-02 21:00:00","11.5911","3.49098","25.654","2.202","7.56","0.258","3.667","0.02","0.16","30.4036","4.77026","24.52","0","SATNPRO1962","27.192","0.38086","5"],
    [35578,"HCEP03730560","2024-10-02 21:15:00","11.5869","3.49107","25.487","2.219","7.56","0.287","3.929","0.02","0.19","30.408","4.77093","24.71","0","SATNPRO1962","27.048000000000002","0.37884","5"],
    [35579,"HCEP03730560","2024-10-02 21:30:00","11.5782","3.48878","25.35","2.153","7.56","0.263","4.101","0.02","0.26","30.3931","4.76893","23.97","0","SATNPRO1962","26.71","0.37412","5"],
    [35580,"HCEP03730560","2024-10-02 21:45:00","11.5832","3.49058","25.171","2.067","7.55","0.296","4.163","0.02","0.15","30.4065","4.77074","23.01","0","SATNPRO1962","26.42","0.37006","5"],
    [35581,"HCEP03730560","2024-10-02 22:00:00","11.5904","3.49181","25.037","2.069","7.55","0.276","4.354","0.04","0.17","30.4124","4.77148","23.04","0","SATNPRO1962","26.652","0.37328","5"],
    [35582,"HCEP03730560","2024-10-02 22:15:00","11.6063","3.49489","24.938","2.09","7.55","0.312","4.571","0.04","0.2","30.4293","4.77362","23.28","0","SATNPRO1962","26.344","0.36898","5"],
    [35583,"HCEP03730560","2024-10-02 22:30:00","11.6084","3.49511","24.86","2.106","7.55","0.275","4.27","0.03","0.11","30.4297","4.77365","23.47","0","SATNPRO1962","26.006","0.36424","5"],
    [35584,"HCEP03730560","2024-10-02 22:45:00","11.6098","3.49534","24.826","2.102","7.55","0.319","4.594","0.03","0.29","30.4308","4.77378","23.42","0","SATNPRO1962","26.164","0.36648","5"],
    [35585,"HCEP03730560","2024-10-02 23:00:00","11.6075","3.49487","24.839","2.096","7.55","0.277","4.226","0.02","0.19","30.4281","4.77343","23.35","0","SATNPRO1962","26.368000000000002","0.36938","5"],
    [35586,"HCEP03730560","2024-10-02 23:15:00","11.6042","3.49402","24.821","2.112","7.55","0.284","3.939","0.03","0.1","30.4226","4.7727","23.53","0","SATNPRO1962","26.652","0.37332","5"],
    [35587,"HCEP03730560","2024-10-02 23:30:00","11.6031","3.4939","24.871","2.128","7.55","0.271","4.179","0.04","0.22","30.4224","4.77269","23.71","0","SATNPRO1962","26.46","0.37058","5"],
    [35588,"HCEP03730560","2024-10-02 23:45:00","11.6009","3.49339","24.94","2.128","7.55","0.276","3.747","0.02","0.22","30.4192","4.77228","23.71","0","SATNPRO1962","26.492","0.37108","5"],
    [35589,"HCEP03730560","2024-10-03 00:00:00","11.5996","3.49316","25.03","2.129","7.55","0.269","3.749","0.03","0.1","30.4179","4.77212","23.72","0","SATNPRO1962","26.558","0.37198","5"],
    [35590,"HCEP03730560","2024-10-03 00:15:00","11.5993","3.49313","25.14","2.123","7.55","0.268","3.508","0.02","0.05","30.4179","4.77212","23.65","0","SATNPRO1962","26.49","0.37104","5"],
    [35591,"HCEP03730560","2024-10-03 00:30:00","11.5979","3.49284","25.257","2.118","7.55","0.246","3.701","0.03","0.09","30.4162","4.77191","23.59","0","SATNPRO1962","26.488","0.37102","5"],
    [35592,"HCEP03730560","2024-10-03 00:45:00","11.6","3.49326","25.382","2.114","7.55","0.258","3.811","0.02","0.19","30.4185","4.77222","23.55","0","SATNPRO1962","26.592","0.37246","5"],
    [35593,"HCEP03730560","2024-10-03 01:00:00","11.5999","3.49324","25.501","2.11","7.55","0.259","3.794","0.03","0.14","30.4183","4.7722","23.5","0","SATNPRO1962","26.29","0.36822","5"],
    [35594,"HCEP03730560","2024-10-03 01:15:00","11.6005","3.49333","25.635","2.103","7.55","0.256","3.641","0.02","0.11","30.4187","4.77225","23.43","0","SATNPRO1962","26.396","0.36972","5"],
    [35595,"HCEP03730560","2024-10-03 01:30:00","11.5994","3.49311","25.766","2.099","7.55","0.24","3.862","0.01","0.37","30.4174","4.77209","23.38","0","SATNPRO1962","26.414","0.36996","5"],
    [35596,"HCEP03730560","2024-10-03 01:45:00","11.5975","3.49274","25.92","2.1","7.55","0.27","3.568","0.03","0.18","30.4153","4.77183","23.4","0","SATNPRO1962","26.259999999999998","0.3678","5"],
    [35597,"HCEP03730560","2024-10-03 02:00:00","11.5965","3.49252","26.062","2.096","7.55","0.229","3.791","0.01","0.08","30.414","4.77166","23.34","0","SATNPRO1962","26.242","0.36752","5"],
    [35598,"HCEP03730560","2024-10-03 02:15:00","11.5948","3.49209","26.2","2.101","7.55","0.272","3.563","0.03","0.11","30.4112","4.7713","23.4","0","SATNPRO1962","26.454","0.37056","5"],
    [35599,"HCEP03730560","2024-10-03 02:30:00","11.5941","3.49189","26.341","2.101","7.55","0.25","3.832","0.02","0.04","30.4098","4.77112","23.4","0","SATNPRO1962","26.072","0.3652","5"],
    [35600,"HCEP03730560","2024-10-03 02:45:00","11.5948","3.4922","26.455","2.089","7.55","0.276","3.59","0.02","0.08","30.4121","4.77145","23.26","0","SATNPRO1962","26.52","0.37142","5"],
    [35601,"HCEP03730560","2024-10-03 03:00:00","11.5936","3.4919","26.611","2.06","7.55","0.244","3.766","0.02","0.17","30.4102","4.7712","22.95","0","SATNPRO1962","25.952","0.36352","5"],
    [35602,"HCEP03730560","2024-10-03 03:15:00","11.5918","3.49153","26.766","2.051","7.55","0.284","4.134","0.01","0.14","30.408","4.77093","22.85","0","SATNPRO1962","26.314","0.36856","5"],
    [35603,"HCEP03730560","2024-10-03 03:30:00","11.59","3.49114","26.91","2.047","7.55","0.26","4.342","0.01","0.22","30.4057","4.77063","22.8","0","SATNPRO1962","26.424","0.37008","5"],
    [35604,"HCEP03730560","2024-10-03 03:45:00","11.586","3.49029","27.036","2.061","7.55","0.319","3.939","0.12","0.16","30.4006","4.76998","22.95","0","SATNPRO1962","26.59","0.37244","5"],
    [35605,"HCEP03730560","2024-10-03 04:00:00","11.5847","3.49","27.124","2.078","7.55","0.276","4.538","0.01","0.22","30.3988","4.76975","23.14","0","SATNPRO1962","26.336000000000002","0.3689","5"],
    [35606,"HCEP03730560","2024-10-03 04:15:00","11.5821","3.48956","27.197","2.069","7.55","0.298","4.106","0.03","0.15","30.3967","4.76949","23.04","0","SATNPRO1962","26.201999999999998","0.36698","5"],
    [35607,"HCEP03730560","2024-10-03 04:30:00","11.5804","3.48923","27.253","2.058","7.55","0.293","4.357","0.04","0.19","30.3949","4.76927","22.91","0","SATNPRO1962","26.236","0.36748","5"],
    [35608,"HCEP03730560","2024-10-03 04:45:00","11.5798","3.48915","27.296","2.035","7.55","0.321","4.822","0.02","0.49","30.3946","4.76923","22.65","0","SATNPRO1962","26.148","0.36628","5"],
    [35609,"HCEP03730560","2024-10-03 05:00:00","11.5783","3.48888","27.32","2.017","7.54","0.288","4.347","0.03","0.17","30.3932","4.76906","22.45","0","SATNPRO1962","25.992","0.36406","5"],
    [35610,"HCEP03730560","2024-10-03 05:15:00","11.5763","3.48836","27.303","2.019","7.54","0.317","4.339","0.04","0.36","30.3899","4.76861","22.48","0","SATNPRO1962","26.014","0.36434","5"],
    [35611,"HCEP03730560","2024-10-03 05:30:00","11.5758","3.48836","27.27","2.036","7.54","0.302","4.551","0.08","0.34","30.3902","4.76867","22.66","0","SATNPRO1962","26.118000000000002","0.36584","5"],
    [35612,"HCEP03730560","2024-10-03 05:45:00","11.575","3.48838","27.221","2.014","7.54","0.302","4.31","0.02","0.17","30.3911","4.7688","22.42","0","SATNPRO1962","25.964","0.36366","5"],
    [35613,"HCEP03730560","2024-10-03 06:00:00","11.5749","3.48828","27.176","1.988","7.54","0.292","4.731","0.02","0.39","30.3902","4.76868","22.13","0","SATNPRO1962","25.86","0.36224","5"],
    [35614,"HCEP03730560","2024-10-03 06:15:00","11.574","3.48812","27.107","1.978","7.54","0.312","4.622","0.03","0.36","30.3894","4.76858","22.02","0","SATNPRO1962","25.834","0.36186","5"],
    [35615,"HCEP03730560","2024-10-03 06:30:00","11.5733","3.48785","27.029","1.979","7.54","0.286","4.422","0.05","0.37","30.3874","4.76829","22.02","0","SATNPRO1962","25.966","0.36372","5"],
    [35616,"HCEP03730560","2024-10-03 06:45:00","11.572","3.48751","26.954","1.988","7.54","0.331","4.735","0.04","0.36","30.3853","4.76801","22.13","0","SATNPRO1962","26.046","0.3648","5"],
    [35617,"HCEP03730560","2024-10-03 07:00:00","11.5701","3.48727","26.911","1.978","7.54","0.294","4.485","0.03","0.31","30.3845","4.76792","22.02","0","SATNPRO1962","26.354","0.36916","5"],
    [35618,"HCEP03730560","2024-10-03 07:15:00","11.5693","3.48709","26.781","1.959","7.54","0.305","4.232","0.04","0.26","30.3834","4.76778","21.8","0","SATNPRO1962","25.862","0.36228","5"],
    [35619,"HCEP03730560","2024-10-03 07:30:00","11.5671","3.48674","26.648","1.943","7.54","0.279","4.303","0.02","0.22","30.3819","4.76758","21.63","0","SATNPRO1962","25.796","0.3613","5"],
    [35620,"HCEP03730560","2024-10-03 07:45:00","11.5652","3.48637","26.6","1.91","7.54","0.327","4.633","0.04","0.26","30.38","4.76734","21.26","0","SATNPRO1962","25.588","0.3584","5"],
    [35621,"HCEP03730560","2024-10-03 08:00:00","11.5635","3.48615","26.504","1.865","7.53","0.287","4.57","0.02","0.18","30.3792","4.76725","20.75","0","SATNPRO1962","25.346","0.35498","5"],
    [35622,"HCEP03730560","2024-10-03 08:15:00","11.561","3.48568","26.333","1.827","7.53","0.324","4.649","0.03","0.47","30.3768","4.76693","20.32","0","SATNPRO1962","25.126","0.35188","5"],
    [35623,"HCEP03730560","2024-10-03 08:30:00","11.5591","3.48527","26.186","1.786","7.53","0.287","4.184","0.02","0.13","30.3745","4.76662","19.87","0","SATNPRO1962","25.094","0.3515","5"],
    [35624,"HCEP03730560","2024-10-03 08:45:00","11.5572","3.48498","26.052","1.752","7.52","0.313","4.582","0.02","0.29","30.3733","4.76647","19.49","0","SATNPRO1962","24.858","0.34816","5"],
    [35625,"HCEP03730560","2024-10-03 09:00:00","11.5544","3.48449","25.928","1.718","7.52","0.296","4.466","0.03","0.26","30.3709","4.76617","19.12","0","SATNPRO1962","24.816","0.34756","5"],
    [35626,"HCEP03730560","2024-10-03 09:15:00","11.5507","3.4837","25.787","1.689","7.52","0.309","4.375","0.02","0.21","30.3663","4.76558","18.79","0","SATNPRO1962","24.830000000000002","0.3478","5"],
    [35627,"HCEP03730560","2024-10-03 09:30:00","11.5478","3.48309","25.716","1.651","7.52","0.283","4.188","0.03","0.19","30.3629","4.76512","18.36","0","SATNPRO1962","24.546","0.34386","5"],
    [35628,"HCEP03730560","2024-10-03 09:45:00","11.5455","3.48266","25.545","1.637","7.51","0.324","4.193","0.03","0.22","30.3606","4.76482","18.21","0","SATNPRO1962","24.806","0.34746","5"],
    [35629,"HCEP03730560","2024-10-03 10:00:00","11.5437","3.48229","25.425","1.629","7.51","0.294","4.091","0.03","0.19","30.3586","4.76456","18.12","0","SATNPRO1962","24.876","0.34848","5"],
    [35630,"HCEP03730560","2024-10-03 10:15:00","11.5436","3.48225","25.337","1.617","7.51","0.303","3.983","0.03","0.19","30.3583","4.76452","17.98","0","SATNPRO1962","24.696","0.34586","5"],
    [35631,"HCEP03730560","2024-10-03 10:30:00","11.5431","3.48214","25.284","1.61","7.51","0.29","4.057","0.03","0.25","30.3576","4.76443","17.91","0","SATNPRO1962","24.864","0.34826","5"],
    [35632,"HCEP03730560","2024-10-03 10:45:00","11.5424","3.48199","25.257","1.598","7.51","0.276","3.761","0.01","0.2","30.3567","4.76431","17.78","0","SATNPRO1962","24.701999999999998","0.34602","5"],
    [35633,"HCEP03730560","2024-10-03 11:00:00","11.5411","3.48172","25.259","1.591","7.51","0.243","3.484","0.01","0.07","30.3553","4.76412","17.7","0","SATNPRO1962","24.720000000000002","0.34624","5"],
    [35634,"HCEP03730560","2024-10-03 11:15:00","11.541","3.48173","25.3","1.588","7.51","0.284","3.47","0.01","0.12","30.3554","4.76414","17.66","0","SATNPRO1962","24.744","0.34654","5"],
    [35635,"HCEP03730560","2024-10-03 11:30:00","11.5397","3.48149","25.348","1.586","7.51","0.266","3.397","0.02","0.3","30.3541","4.76399","17.64","0","SATNPRO1962","24.844","0.34798","5"],
    [35636,"HCEP03730560","2024-10-03 11:45:00","11.5379","3.48124","25.423","1.58","7.51","0.29","3.649","0.02","0.12","30.3532","4.76388","17.57","0","SATNPRO1962","24.746","0.34658","5"],
    [35637,"HCEP03730560","2024-10-03 12:00:00","11.5373","3.48112","25.505","1.569","7.5","0.265","4.235","0.03","0.22","30.3524","4.76379","17.45","0","SATNPRO1962","24.786","0.34716","5"],
    [35638,"HCEP03730560","2024-10-03 12:15:00","11.5347","3.48063","25.607","1.559","7.5","0.316","4.397","0.03","0.46","30.3497","4.76345","17.34","0","SATNPRO1962","24.928","0.34918","5"],
    [35639,"HCEP03730560","2024-10-03 12:30:00","11.5365","3.48101","25.717","1.555","7.5","0.29","3.568","0.06","0.18","30.3519","4.76374","17.3","0","SATNPRO1962","24.822","0.34766","5"],
    [35640,"HCEP03730560","2024-10-03 12:45:00","11.5428","3.48233","25.828","1.538","7.5","0.364","4.775","0.03","0.29","30.3595","4.76472","17.11","0","SATNPRO1962","24.35","0.34102","5"],
    [35641,"HCEP03730560","2024-10-03 13:00:00","11.5389","3.48144","25.948","1.536","7.5","0.264","3.459","0.02","0.12","30.3541","4.76402","17.08","0","SATNPRO1962","24.978","0.34982","5"],
    [35642,"HCEP03730560","2024-10-03 13:15:00","11.5397","3.48161","26.067","1.566","7.5","0.313","3.634","0.1","0.34","30.355","4.76415","17.42","0","SATNPRO1962","24.892","0.34866","5"],
    [35643,"HCEP03730560","2024-10-03 13:30:00","11.54","3.48167","26.188","1.576","7.5","0.3","3.457","0.05","0.21","30.3553","4.76419","17.52","0","SATNPRO1962","24.9","0.34878","5"],
    [35644,"HCEP03730560","2024-10-03 13:45:00","11.5413","3.48188","26.347","1.59","7.51","0.315","3.577","0.05","0.27","30.3562","4.76431","17.69","0","SATNPRO1962","25.014","0.35038","5"],
    [35645,"HCEP03730560","2024-10-03 14:00:00","11.5441","3.4824","26.496","1.605","7.51","0.328","3.693","0.14","0.22","30.3589","4.76466","17.85","0","SATNPRO1962","24.914","0.34896","5"],
    [35646,"HCEP03730560","2024-10-03 14:15:00","11.5458","3.48273","26.673","1.612","7.51","0.371","4.747","0.05","0.27","30.3606","4.76489","17.93","0","SATNPRO1962","24.818","0.34764","5"],
    [35647,"HCEP03730560","2024-10-03 14:30:00","11.5504","3.48353","26.828","1.64","7.51","0.365","4.327","0.13","0.25","30.3645","4.76537","18.24","0","SATNPRO1962","24.998","0.35016","5"],
    [35648,"HCEP03730560","2024-10-03 14:45:00","11.5544","3.48455","26.97","1.647","7.51","0.395","5.118","0.04","0.18","30.3711","4.76626","18.32","0","SATNPRO1962","24.53","0.3436","5"],
    [35649,"HCEP03730560","2024-10-03 15:00:00","11.5573","3.48515","27.134","1.592","7.51","0.384","5.649","0.05","0.37","30.3744","4.76669","17.71","0","SATNPRO1962","24.686","0.34578","5"],
    [35650,"HCEP03730560","2024-10-03 15:15:00","11.5627","3.48628","27.259","1.583","7.51","0.463","6.83","0.17","0.52","30.3809","4.76754","17.62","0","SATNPRO1962","24.346","0.34102","5"],
    [35651,"HCEP03730560","2024-10-03 15:30:00","11.5667","3.48713","27.367","1.601","7.51","0.391","5.937","0.03","0.19","30.3858","4.76819","17.82","0","SATNPRO1962","24.156","0.33836","5"],
    [35652,"HCEP03730560","2024-10-03 15:45:00","11.5665","3.4874","27.485","1.584","7.5","0.408","6.162","0.05","0.43","30.3885","4.76858","17.63","0","SATNPRO1962","23.82","0.33366","5"],
    [35653,"HCEP03730560","2024-10-03 16:00:00","11.5558","3.48517","27.59","1.51","7.5","0.481","5.946","0.58","0.22","30.3757","4.76692","16.8","0","SATNPRO1962","23.59","0.33042","5"],
    [35654,"HCEP03730560","2024-10-03 16:15:00","11.5435","3.48312","27.654","1.413","7.49","0.389","6.192","0.04","0.37","30.3658","4.76571","15.71","0","SATNPRO1962","23.2","0.32496","5"],
    [35655,"HCEP03730560","2024-10-03 16:30:00","11.5391","3.48196","27.65","1.321","7.49","0.374","6.248","0.04","0.29","30.3583","4.76471","14.69","0","SATNPRO1962","22.814","0.31958","5"],
    [35656,"HCEP03730560","2024-10-03 16:45:00","11.5385","3.48163","27.669","1.296","7.48","0.378","6.107","0.04","0.26","30.3555","4.76432","14.41","0","SATNPRO1962","23.178","0.32462","5"],
    [35657,"HCEP03730560","2024-10-03 17:00:00","11.5381","3.48156","27.653","1.305","7.48","0.372","6.436","0.04","0.35","30.3553","4.7643","14.51","0","SATNPRO1962","22.892","0.32062","5"],
    [35658,"HCEP03730560","2024-10-03 17:15:00","11.5372","3.48197","27.651","1.295","7.48","0.366","5.5","0.05","0.16","30.3599","4.76496","14.4","0","SATNPRO1962","23.156","0.32434","5"],
    [35659,"HCEP03730560","2024-10-03 17:30:00","11.5414","3.4828","27.616","1.329","7.48","0.368","6.029","0.05","0.25","30.3644","4.76554","14.78","0","SATNPRO1962","23.466","0.32866","5"],
    [35660,"HCEP03730560","2024-10-03 17:45:00","11.5502","3.48467","27.532","1.348","7.48","0.443","7.316","0.07","0.51","30.3754","4.76697","15","0","SATNPRO1962","23.484","0.3289","5"],
    [35661,"HCEP03730560","2024-10-03 18:00:00","11.5565","3.48594","27.446","1.385","7.48","0.392","6.622","0.09","0.42","30.3826","4.76788","15.41","0","SATNPRO1962","23.938","0.33532","5"],
    [35662,"HCEP03730560","2024-10-03 18:15:00","11.5601","3.48668","27.343","1.413","7.49","0.338","5.679","0.03","0.25","30.3868","4.76842","15.73","0","SATNPRO1962","23.814","0.33358","5"],
    [35663,"HCEP03730560","2024-10-03 18:30:00","11.563","3.48723","27.232","1.444","7.49","0.298","5.075","0.02","0.13","30.3897","4.76879","16.07","0","SATNPRO1962","24.028000000000002","0.3365","5"],
    [35664,"HCEP03730560","2024-10-03 18:45:00","11.5676","3.48782","27.115","1.502","7.49","0.306","4.733","0.02","0.24","30.3918","4.769","16.72","0","SATNPRO1962","24.228","0.3394","5"],
    [35665,"HCEP03730560","2024-10-03 19:00:00","11.5708","3.48798","26.983","1.598","7.5","0.404","4.091","0.37","0.12","30.3908","4.7688","17.79","0","SATNPRO1962","25.1","0.35158","5"],
    [35666,"HCEP03730560","2024-10-03 19:15:00","11.5708","3.48768","26.836","1.695","7.51","0.278","4.068","0.02","0.07","30.388","4.7684","18.86","0","SATNPRO1962","25.364","0.35526","5"],
    [35667,"HCEP03730560","2024-10-03 19:30:00","11.5703","3.48799","26.56","1.733","7.51","0.328","5.538","0.03","0.73","30.3914","4.76888","19.29","0","SATNPRO1962","25.404","0.35586","5"],
    [35668,"HCEP03730560","2024-10-03 19:45:00","11.5696","3.48736","26.441","1.74","7.51","0.357","5.246","0.04","0.52","30.386","4.76812","19.36","0","SATNPRO1962","25.541999999999998","0.35774","5"],
    [35669,"HCEP03730560","2024-10-03 20:00:00","11.5676","3.48669","26.276","1.794","7.52","0.268","4.193","0.03","0.71","30.3812","4.76746","19.96","0","SATNPRO1962","25.668","0.3595","5"],
    [35670,"HCEP03730560","2024-10-03 20:15:00","11.5699","3.48757","26.135","1.8","7.52","0.284","4.008","0.02","0.15","30.3879","4.76837","20.04","0","SATNPRO1962","25.492","0.35706","5"],
    [35671,"HCEP03730560","2024-10-03 20:30:00","11.563","3.48581","25.979","1.789","7.52","0.24","3.503","0.02","0.19","30.3766","4.76685","19.9","0","SATNPRO1962","25.538","0.35772","5"],
    [35672,"HCEP03730560","2024-10-03 20:45:00","11.561","3.48552","25.81","1.791","7.52","0.263","3.413","0.02","0.08","30.3754","4.76671","19.93","0","SATNPRO1962","25.67","0.35956","5"],
    [35673,"HCEP03730560","2024-10-03 21:00:00","11.5633","3.48615","25.622","1.787","7.52","0.227","3.54","0.01","0.1","30.3798","4.76729","19.89","0","SATNPRO1962","25.676000000000002","0.35964","5"],
    [35674,"HCEP03730560","2024-10-03 21:15:00","11.5652","3.4864","25.429","1.793","7.52","0.249","3.404","0.02","0.08","30.3807","4.76738","19.95","0","SATNPRO1962","25.62","0.35888","5"],
    [35675,"HCEP03730560","2024-10-03 21:30:00","11.5674","3.48682","25.247","1.798","7.52","0.24","3.523","0.03","0.11","30.3831","4.76767","20.01","0","SATNPRO1962","25.66","0.3594","5"],
    [35676,"HCEP03730560","2024-10-03 21:45:00","11.5679","3.48704","25.083","1.79","7.52","0.269","3.981","0.03","0.11","30.3847","4.76789","19.92","0","SATNPRO1962","25.178","0.35262","5"],
    [35677,"HCEP03730560","2024-10-03 22:00:00","11.5698","3.48769","24.939","1.761","7.52","0.26","4.178","0.02","0.23","30.3896","4.76854","19.6","0","SATNPRO1962","25.164","0.35242","5"],
    [35678,"HCEP03730560","2024-10-03 22:15:00","11.5704","3.4879","24.804","1.707","7.52","0.29","4.628","0.03","0.15","30.3912","4.76874","19","0","SATNPRO1962","24.922","0.34906","5"],
    [35679,"HCEP03730560","2024-10-03 22:30:00","11.5697","3.48762","24.698","1.697","7.51","0.263","4.092","0.02","0.08","30.389","4.76845","18.89","0","SATNPRO1962","25.276","0.35404","5"],
    [35680,"HCEP03730560","2024-10-03 22:45:00","11.5696","3.4876","24.617","1.701","7.51","0.293","4.326","0.06","0.15","30.389","4.76844","18.94","0","SATNPRO1962","24.922","0.3491","5"],
    [35681,"HCEP03730560","2024-10-03 23:00:00","11.5703","3.48795","24.576","1.694","7.51","0.296","4.365","0.09","0.15","30.3918","4.76883","18.86","0","SATNPRO1962","25.07","0.35114","5"],
    [35682,"HCEP03730560","2024-10-03 23:15:00","11.5689","3.4874","24.591","1.675","7.51","0.285","3.976","0.02","0.14","30.3877","4.76826","18.64","0","SATNPRO1962","25.524","0.35756","5"],
    [35683,"HCEP03730560","2024-10-03 23:30:00","11.5671","3.48693","24.628","1.7","7.51","0.28","4.469","0.06","0.23","30.3846","4.76785","18.92","0","SATNPRO1962","25.008","0.35028","5"],
    [35684,"HCEP03730560","2024-10-03 23:45:00","11.571","3.48834","24.651","1.674","7.51","0.343","5.642","0.07","0.24","30.395","4.76927","18.63","0","SATNPRO1962","24.400000000000002","0.34178","5"],
    [35685,"HCEP03730560","2024-10-04 00:00:00","11.5565","3.48455","24.723","1.653","7.51","0.228","3.193","0.02","0.14","30.3702","4.76597","18.39","0","SATNPRO1962","25.552","0.35792","5"],
    [35686,"HCEP03730560","2024-10-04 00:15:00","11.5492","3.48313","24.801","1.719","7.52","0.244","3.057","0.01","0.09","30.3624","4.76499","19.12","0","SATNPRO1962","25.82","0.36166","5"],
    [35687,"HCEP03730560","2024-10-04 00:30:00","11.5574","3.4848","24.933","1.73","7.52","0.246","3.845","0.03","0.13","30.3718","4.76621","19.25","0","SATNPRO1962","25.259999999999998","0.35382","5"],
    [35688,"HCEP03730560","2024-10-04 00:45:00","11.551","3.48333","25.056","1.71","7.52","0.268","4.082","0.01","0.1","30.3628","4.76503","19.02","0","SATNPRO1962","25.522","0.35748","5"],
    [35689,"HCEP03730560","2024-10-04 01:00:00","11.5667","3.48726","25.179","1.69","7.51","0.303","5.224","0.04","0.18","30.3878","4.76835","18.81","0","SATNPRO1962","25.082","0.35132","5"],
    [35690,"HCEP03730560","2024-10-04 01:15:00","11.5703","3.4882","25.313","1.568","7.51","0.327","5.603","0.03","0.26","30.3939","4.76916","17.45","0","SATNPRO1962","24.174","0.33866","5"],
    [35691,"HCEP03730560","2024-10-04 01:30:00","11.5699","3.48798","25.441","1.54","7.5","0.306","5.803","0.02","0.23","30.3921","4.76892","17.15","0","SATNPRO1962","24.118","0.33782","5"],
    [35692,"HCEP03730560","2024-10-04 01:45:00","11.5647","3.48694","25.58","1.553","7.5","0.317","5.655","0.03","0.28","30.3862","4.76817","17.28","0","SATNPRO1962","24.79","0.34724","5"],
    [35693,"HCEP03730560","2024-10-04 02:00:00","11.562","3.48637","25.759","1.585","7.51","0.291","5.456","0.02","0.15","30.3829","4.76776","17.64","0","SATNPRO1962","24.894","0.34868","5"],
    [35694,"HCEP03730560","2024-10-04 02:15:00","11.5677","3.48741","25.89","1.594","7.51","0.331","5.871","0.03","0.25","30.3882","4.76842","17.74","0","SATNPRO1962","24.134","0.33802","5"],
    [35695,"HCEP03730560","2024-10-04 02:30:00","11.5707","3.48807","25.982","1.571","7.5","0.302","5.698","0.02","0.21","30.3921","4.76894","17.49","0","SATNPRO1962","24.419999999999998","0.34202","5"],
    [35696,"HCEP03730560","2024-10-04 02:45:00","11.5755","3.48919","26.233","1.563","7.5","0.322","6.15","0.01","0.31","30.3989","4.76985","17.4","0","SATNPRO1962","23.98","0.33588","5"],
    [35697,"HCEP03730560","2024-10-04 03:00:00","11.5799","3.48941","26.411","1.569","7.51","0.333","5.721","0.08","0.34","30.3974","4.76958","17.46","0","SATNPRO1962","24.582","0.3443","5"],
    [35698,"HCEP03730560","2024-10-04 03:15:00","11.5805","3.48975","26.559","1.616","7.51","0.329","5.646","0.04","0.21","30.4002","4.76997","17.99","0","SATNPRO1962","24.342","0.34094","5"],
    [35699,"HCEP03730560","2024-10-04 03:30:00","11.5796","3.48984","26.68","1.586","7.51","0.329","6.453","0.04","0.31","30.4017","4.77021","17.65","0","SATNPRO1962","24.212","0.33914","5"],
    [35700,"HCEP03730560","2024-10-04 03:45:00","11.5803","3.48986","26.811","1.577","7.5","0.323","5.889","0.02","0.22","30.4012","4.77014","17.56","0","SATNPRO1962","24.196","0.3389","5"],
    [35701,"HCEP03730560","2024-10-04 04:00:00","11.5782","3.48956","26.95","1.565","7.5","0.296","5.836","0.02","0.15","30.4","4.77","17.42","0","SATNPRO1962","24.198","0.33894","5"],
    [35702,"HCEP03730560","2024-10-04 04:15:00","11.5784","3.48945","27.12","1.578","7.5","0.311","5.34","0.02","0.25","30.3987","4.76983","17.57","0","SATNPRO1962","24.558","0.344","5"],
    [35703,"HCEP03730560","2024-10-04 04:30:00","11.5778","3.48948","27.246","1.584","7.5","0.297","5.308","0.04","0.13","30.3994","4.76994","17.64","0","SATNPRO1962","24.096","0.33748","5"],
    [35704,"HCEP03730560","2024-10-04 04:45:00","11.5798","3.48981","27.367","1.581","7.5","0.292","5.131","0.02","0.19","30.4009","4.77013","17.6","0","SATNPRO1962","24.522000000000002","0.34348","5"],
    [35705,"HCEP03730560","2024-10-04 05:00:00","11.5795","3.48995","27.421","1.599","7.51","0.289","5.275","0.06","0.24","30.4025","4.77036","17.81","0","SATNPRO1962","24.35","0.34108","5"],
    [35706,"HCEP03730560","2024-10-04 05:15:00","11.5822","3.49028","27.493","1.558","7.5","0.312","5.761","0.03","0.19","30.4035","4.77047","17.35","0","SATNPRO1962","24.152","0.33832","5"],
    [35707,"HCEP03730560","2024-10-04 05:30:00","11.5818","3.49026","27.498","1.554","7.5","0.278","5.434","0.01","0.2","30.4036","4.77049","17.31","0","SATNPRO1962","24.112","0.3377","5"],
    [35708,"HCEP03730560","2024-10-04 05:45:00","11.5797","3.49015","27.56","1.528","7.5","0.335","5.64","0.04","0.37","30.4043","4.77062","17.02","0","SATNPRO1962","23.67","0.33154","5"],
    [35709,"HCEP03730560","2024-10-04 06:00:00","11.5804","3.49022","27.54","1.492","7.5","0.289","5.485","0.02","0.2","30.4043","4.77061","16.61","0","SATNPRO1962","23.838","0.33386","5"],
    [35710,"HCEP03730560","2024-10-04 06:15:00","11.5803","3.49016","27.496","1.487","7.5","0.315","5.567","0.02","0.22","30.4039","4.77055","16.55","0","SATNPRO1962","23.874","0.3344","5"],
    [35711,"HCEP03730560","2024-10-04 06:30:00","11.5835","3.49022","27.463","1.517","7.5","0.293","5.297","0.04","0.19","30.4018","4.77021","16.89","0","SATNPRO1962","24.312","0.34052","5"],
    [35712,"HCEP03730560","2024-10-04 06:45:00","11.5804","3.49004","27.377","1.572","7.5","0.325","5.554","0.02","0.27","30.4026","4.77036","17.5","0","SATNPRO1962","23.976","0.3358","5"],
    [35713,"HCEP03730560","2024-10-04 07:00:00","11.5826","3.49015","27.318","1.547","7.5","0.297","5.336","0.03","0.19","30.4019","4.77023","17.23","0","SATNPRO1962","24.352","0.3411","5"],
    [35714,"HCEP03730560","2024-10-04 07:15:00","11.5812","3.49003","27.164","1.573","7.5","0.316","5.603","0.02","0.16","30.4019","4.77024","17.51","0","SATNPRO1962","24.248","0.33962","5"],
    [35715,"HCEP03730560","2024-10-04 07:30:00","11.5806","3.48995","27.081","1.564","7.5","0.286","5.268","0.04","0.37","30.4017","4.77021","17.42","0","SATNPRO1962","24.32","0.34064","5"],
    [35716,"HCEP03730560","2024-10-04 07:45:00","11.5813","3.48993","26.97","1.576","7.5","0.298","4.954","0.02","0.15","30.401","4.7701","17.55","0","SATNPRO1962","24.386","0.34158","5"],
    [35717,"HCEP03730560","2024-10-04 08:00:00","11.5811","3.48981","26.949","1.608","7.51","0.291","4.553","0.03","0.09","30.4","4.76996","17.9","0","SATNPRO1962","24.524","0.34346","5"],
    [35718,"HCEP03730560","2024-10-04 08:15:00","11.5815","3.48966","26.826","1.637","7.51","0.3","4.427","0.02","0.19","30.3983","4.7697","18.23","0","SATNPRO1962","24.922","0.34906","5"],
    [35719,"HCEP03730560","2024-10-04 08:30:00","11.5814","3.48928","26.698","1.728","7.51","0.284","4.447","0.04","0.11","30.3948","4.7692","19.23","0","SATNPRO1962","24.926000000000002","0.34916","5"],
    [35720,"HCEP03730560","2024-10-04 08:45:00","11.5845","3.48966","26.603","1.798","7.52","0.298","3.899","0.03","0.17","30.3959","4.76931","20.02","0","SATNPRO1962","25.732","0.3604","5"],
    [35721,"HCEP03730560","2024-10-04 09:00:00","11.5897","3.49002","26.542","1.942","7.53","0.273","3.447","0.03","0.13","30.3952","4.76913","21.62","0","SATNPRO1962","26.474","0.3708","5"],
    [35722,"HCEP03730560","2024-10-04 09:15:00","11.5867","3.48961","26.408","2.026","7.53","0.28","3.313","0.02","0.14","30.3938","4.76896","22.56","0","SATNPRO1962","26.445999999999998","0.37046","5"],
    [35723,"HCEP03730560","2024-10-04 09:30:00","11.5782","3.48829","26.301","1.971","7.53","0.288","3.949","0.02","0.2","30.388","4.76827","21.94","0","SATNPRO1962","25.432","0.35624","5"],
    [35724,"HCEP03730560","2024-10-04 09:45:00","11.5777","3.48839","26.207","1.839","7.53","0.289","3.626","0.02","0.09","30.3894","4.76847","20.47","0","SATNPRO1962","26.058","0.36502","5"],
    [35725,"HCEP03730560","2024-10-04 10:00:00","11.5807","3.48886","26.085","1.865","7.53","0.277","3.765","0.02","0.18","30.3915","4.76872","20.76","0","SATNPRO1962","25.764","0.36086","5"],
    [35726,"HCEP03730560","2024-10-04 10:15:00","11.5897","3.49012","25.872","1.913","7.53","0.3","3.253","0.05","0.23","30.3964","4.76926","21.31","0","SATNPRO1962","27.038","0.3787","5"],
    [35727,"HCEP03730560","2024-10-04 10:30:00","11.592","3.49047","25.907","2.042","7.54","0.258","3.317","0.02","0.25","30.3979","4.76944","22.74","0","SATNPRO1962","26.708000000000002","0.37408","5"],
    [35728,"HCEP03730560","2024-10-04 10:45:00","11.591","3.49033","25.759","2.075","7.54","0.299","3.219","0.06","0.12","30.3974","4.76938","23.11","0","SATNPRO1962","26.63","0.37302","5"],
    [35729,"HCEP03730560","2024-10-04 11:00:00","11.5922","3.49055","25.735","2.068","7.54","0.279","3.39","0.05","0.13","30.3985","4.76952","23.03","0","SATNPRO1962","26.702","0.37402","5"],
    [35730,"HCEP03730560","2024-10-04 11:15:00","11.5909","3.49044","25.669","2.033","7.54","0.305","3.788","0.03","0.17","30.3986","4.76955","22.64","0","SATNPRO1962","26.451999999999998","0.37052","5"],
    [35731,"HCEP03730560","2024-10-04 11:30:00","11.5929","3.49064","25.548","2.02","7.54","0.334","3.348","0.16","0.1","30.3989","4.76955","22.5","0","SATNPRO1962","26.692","0.37392","5"],
    [35732,"HCEP03730560","2024-10-04 11:45:00","11.5927","3.49069","25.516","2.059","7.54","0.338","3.564","0.13","0.16","30.3996","4.76965","22.93","0","SATNPRO1962","26.39","0.36964","5"],
    [35733,"HCEP03730560","2024-10-04 12:00:00","11.592","3.49064","25.596","2.025","7.54","0.3","3.697","0.03","0.12","30.3996","4.76967","22.55","0","SATNPRO1962","26.122","0.3659","5"],
    [35734,"HCEP03730560","2024-10-04 12:15:00","11.592","3.49079","25.641","1.973","7.54","0.315","3.956","0.03","0.16","30.401","4.76987","21.97","0","SATNPRO1962","25.858","0.36222","5"],
    [35735,"HCEP03730560","2024-10-04 12:30:00","11.5918","3.49081","25.697","1.916","7.54","0.29","4.109","0.02","0.16","30.4014","4.76994","21.33","0","SATNPRO1962","25.786","0.3612","5"],
    [35736,"HCEP03730560","2024-10-04 12:45:00","11.5936","3.49101","25.795","1.918","7.54","0.326","3.932","0.04","0.14","30.4018","4.76997","21.36","0","SATNPRO1962","25.896","0.3627","5"],
    [35737,"HCEP03730560","2024-10-04 13:00:00","11.5932","3.49101","25.899","1.951","7.54","0.281","3.994","0.01","0.09","30.4021","4.77002","21.73","0","SATNPRO1962","25.694","0.35986","5"],
    [35738,"HCEP03730560","2024-10-04 13:15:00","11.5943","3.49131","26.028","1.916","7.53","0.337","4.451","0.03","0.14","30.4041","4.77029","21.33","0","SATNPRO1962","25.338","0.3549","5"],
    [35739,"HCEP03730560","2024-10-04 13:30:00","11.5923","3.49106","26.129","1.871","7.53","0.292","4.269","0.02","0.13","30.4032","4.7702","20.84","0","SATNPRO1962","25.244","0.3536","5"],
    [35740,"HCEP03730560","2024-10-04 13:45:00","11.5971","3.49161","26.29","1.875","7.53","0.32","4.001","0.03","0.15","30.4045","4.77033","20.88","0","SATNPRO1962","25.906","0.36284","5"],
    [35741,"HCEP03730560","2024-10-04 14:00:00","11.5883","3.49063","26.369","1.898","7.53","0.296","4.376","0.02","0.17","30.4023","4.77015","21.14","0","SATNPRO1962","24.686","0.3458","5"],
    [35742,"HCEP03730560","2024-10-04 14:15:00","11.5825","3.49006","26.501","1.683","7.52","0.354","5.356","0.03","0.16","30.4014","4.77011","18.74","0","SATNPRO1962","23.8","0.33336","5"],
    [35743,"HCEP03730560","2024-10-04 14:30:00","11.5902","3.49111","26.635","1.607","7.52","0.337","5.392","0.02","0.16","30.4052","4.77055","17.89","0","SATNPRO1962","24.676000000000002","0.34564","5"],
    [35744,"HCEP03730560","2024-10-04 14:45:00","11.5935","3.49159","26.79","1.747","7.52","0.352","5.147","0.02","0.11","30.4071","4.77077","19.46","0","SATNPRO1962","25.349999999999998","0.35508","5"],
    [35745,"HCEP03730560","2024-10-04 15:00:00","11.6003","3.49262","26.956","1.842","7.53","0.343","4.807","0.03","0.16","30.4115","4.77131","20.52","0","SATNPRO1962","25.69","0.3598","5"],
    [35746,"HCEP03730560","2024-10-04 15:15:00","11.5995","3.49251","27.09","1.907","7.53","0.381","4.975","0.06","0.19","30.411","4.77126","21.25","0","SATNPRO1962","25.838","0.3619","5"],
    [35747,"HCEP03730560","2024-10-04 15:30:00","11.5996","3.49264","27.2","1.91","7.53","0.333","4.879","0.03","0.14","30.4121","4.77141","21.28","0","SATNPRO1962","25.794","0.36132","5"],
    [35748,"HCEP03730560","2024-10-04 15:45:00","11.5986","3.49252","27.343","1.888","7.53","0.365","5.052","0.03","0.16","30.4118","4.77139","21.03","0","SATNPRO1962","25.584","0.35838","5"],
    [35749,"HCEP03730560","2024-10-04 16:00:00","11.5969","3.49231","27.465","1.843","7.53","0.358","5.342","0.07","0.48","30.411","4.77132","20.52","0","SATNPRO1962","25.632","0.35898","5"],
    [35750,"HCEP03730560","2024-10-04 16:15:00","11.5966","3.4923","27.552","1.804","7.53","0.36","5.386","0.05","0.33","30.4111","4.77133","20.09","0","SATNPRO1962","25.532","0.3576","5"],
    [35751,"HCEP03730560","2024-10-04 16:30:00","11.5969","3.49239","27.6","1.78","7.52","0.377","5.129","0.25","0.33","30.4117","4.77143","19.83","0","SATNPRO1962","25.294","0.35426","5"],
    [35752,"HCEP03730560","2024-10-04 16:45:00","11.5965","3.49248","27.584","1.746","7.52","0.329","4.97","0.03","0.21","30.4129","4.7716","19.44","0","SATNPRO1962","25.24","0.35356","5"],
    [35753,"HCEP03730560","2024-10-04 17:00:00","11.5966","3.49258","27.644","1.72","7.52","0.333","5.493","0.05","0.68","30.4138","4.77173","19.16","0","SATNPRO1962","25.12","0.35184","5"],
    [35754,"HCEP03730560","2024-10-04 17:15:00","11.597","3.49268","27.645","1.705","7.52","0.324","4.998","0.03","0.31","30.4145","4.77182","18.99","0","SATNPRO1962","24.942","0.34936","5"],
    [35755,"HCEP03730560","2024-10-04 17:30:00","11.5974","3.49277","27.654","1.705","7.52","0.284","4.537","0.03","0.15","30.415","4.77189","18.99","0","SATNPRO1962","25.052","0.3509","5"],
    [35756,"HCEP03730560","2024-10-04 17:45:00","11.5974","3.49282","27.54","1.699","7.52","0.297","4.866","0.03","0.19","30.4156","4.77196","18.92","0","SATNPRO1962","25.28","0.35406","5"],
    [35757,"HCEP03730560","2024-10-04 18:00:00","11.5954","3.49238","27.545","1.693","7.52","0.318","6.012","0.01","0.36","30.413","4.77162","18.86","0","SATNPRO1962","24.87","0.34836","5"],
    [35758,"HCEP03730560","2024-10-04 18:15:00","11.5943","3.49225","27.466","1.669","7.51","0.363","5.767","0.11","0.2","30.4126","4.77158","18.59","0","SATNPRO1962","24.779999999999998","0.3471","5"],
    [35759,"HCEP03730560","2024-10-04 18:30:00","11.5949","3.49235","27.365","1.663","7.51","0.291","4.549","0.02","0.08","30.4131","4.77164","18.52","0","SATNPRO1962","24.998","0.35016","5"],
    [35760,"HCEP03730560","2024-10-04 18:45:00","11.5926","3.49198","27.258","1.655","7.51","0.314","5.135","0.01","0.12","30.4114","4.77142","18.43","0","SATNPRO1962","24.592","0.3444","5"],
    [35761,"HCEP03730560","2024-10-04 19:00:00","11.5909","3.49159","27.153","1.63","7.51","0.293","4.991","0.02","0.24","30.4091","4.77112","18.16","0","SATNPRO1962","24.608","0.34464","5"],
    [35762,"HCEP03730560","2024-10-04 19:15:00","11.5883","3.49114","27","1.612","7.51","0.298","4.757","0.02","0.55","30.4069","4.77083","17.95","0","SATNPRO1962","24.65","0.34526","5"],
    [35763,"HCEP03730560","2024-10-04 19:30:00","11.5868","3.49083","26.839","1.597","7.51","0.32","5.609","0.03","0.15","30.4053","4.77061","17.79","0","SATNPRO1962","24.458000000000002","0.34252","5"],
    [35764,"HCEP03730560","2024-10-04 19:45:00","11.5854","3.49044","26.681","1.6","7.51","0.344","5.412","0.04","0.13","30.4026","4.77025","17.82","0","SATNPRO1962","24.674","0.34564","5"],
    [35765,"HCEP03730560","2024-10-04 20:00:00","11.5847","3.49026","26.521","1.63","7.51","0.295","5.175","0.03","0.15","30.4016","4.7701","18.15","0","SATNPRO1962","24.504","0.34324","5"],
    [35766,"HCEP03730560","2024-10-04 20:15:00","11.585","3.49013","26.317","1.636","7.51","0.324","4.637","0.04","0.12","30.4001","4.76989","18.22","0","SATNPRO1962","24.876","0.34842","5"],
    [35767,"HCEP03730560","2024-10-04 20:30:00","11.5854","3.49018","26.161","1.681","7.51","0.295","4.289","0.03","0.17","30.4005","4.76992","18.72","0","SATNPRO1962","25.074","0.3512","5"],
    [35768,"HCEP03730560","2024-10-04 20:45:00","11.585","3.49002","25.996","1.698","7.51","0.295","4.301","0.02","0.12","30.3993","4.76975","18.9","0","SATNPRO1962","25.036","0.35068","5"],
    [35769,"HCEP03730560","2024-10-04 21:00:00","11.5854","3.49005","25.827","1.712","7.51","0.289","3.846","0.05","0.1","30.3992","4.76973","19.07","0","SATNPRO1962","25.3","0.3544","5"],
    [35770,"HCEP03730560","2024-10-04 21:15:00","11.5859","3.49009","25.626","1.734","7.52","0.299","4.18","0.04","0.07","30.3993","4.76972","19.31","0","SATNPRO1962","25.198","0.35296","5"],
    [35771,"HCEP03730560","2024-10-04 21:30:00","11.5854","3.49013","25.45","1.726","7.51","0.335","3.918","0.16","0.09","30.4002","4.76984","19.22","0","SATNPRO1962","25.258","0.35376","5"],
    [35772,"HCEP03730560","2024-10-04 21:45:00","11.5854","3.49029","25.264","1.692","7.51","0.35","4.611","0.06","0.14","30.4018","4.77006","18.84","0","SATNPRO1962","24.754","0.34674","5"],
    [35773,"HCEP03730560","2024-10-04 22:00:00","11.5858","3.49054","25.081","1.633","7.51","0.336","4.979","0.07","0.14","30.404","4.77035","18.18","0","SATNPRO1962","24.158","0.33836","5"],
    [35774,"HCEP03730560","2024-10-04 22:15:00","11.5872","3.49071","24.912","1.59","7.51","0.316","4.536","0.04","0.2","30.4045","4.77039","17.71","0","SATNPRO1962","24.62","0.34484","5"],
    [35775,"HCEP03730560","2024-10-04 22:30:00","11.5909","3.49099","24.757","1.66","7.51","0.311","3.987","0.12","0.08","30.4043","4.77031","18.49","0","SATNPRO1962","25.648","0.35922","5"],
    [35776,"HCEP03730560","2024-10-04 22:45:00","11.5901","3.49123","24.631","1.725","7.51","0.31","4.481","0.03","0.15","30.4073","4.77073","19.21","0","SATNPRO1962","24.913999999999998","0.34896","5"],
    [35777,"HCEP03730560","2024-10-04 23:00:00","11.5946","3.49201","24.543","1.691","7.51","0.312","4.557","0.06","0.19","30.4112","4.77122","18.84","0","SATNPRO1962","25.376","0.35544","5"],
    [35778,"HCEP03730560","2024-10-04 23:15:00","11.5945","3.49205","24.493","1.663","7.51","0.328","4.541","0.04","0.13","30.4116","4.77128","18.52","0","SATNPRO1962","24.69","0.3458","5"],
    [35779,"HCEP03730560","2024-10-04 23:30:00","11.5965","3.49236","24.491","1.655","7.51","0.3","4.457","0.05","0.16","30.413","4.77143","18.44","0","SATNPRO1962","25.048","0.35082","5"],
    [35780,"HCEP03730560","2024-10-04 23:45:00","11.5974","3.49251","24.472","1.664","7.51","0.305","4.141","0.03","0.14","30.4138","4.77153","18.54","0","SATNPRO1962","25.166","0.3525","5"],
    [35781,"HCEP03730560","2024-10-05 00:00:00","11.5974","3.49248","24.5","1.682","7.51","0.257","3.97","0.03","0.12","30.4134","4.77149","18.73","0","SATNPRO1962","25.476","0.35684","5"],
    [35782,"HCEP03730560","2024-10-05 00:15:00","11.5974","3.49253","24.535","1.71","7.51","0.297","4.338","0.03","0.13","30.4139","4.77156","19.05","0","SATNPRO1962","25.38","0.3555","5"],
    [35783,"HCEP03730560","2024-10-05 00:30:00","11.5974","3.49238","24.591","1.725","7.51","0.274","4.132","0.03","0.2","30.4125","4.77136","19.21","0","SATNPRO1962","25.764","0.3609","5"],
    [35784,"HCEP03730560","2024-10-05 00:45:00","11.5928","3.49127","24.665","1.798","7.52","0.249","2.85","0.01","0.04","30.4054","4.77043","20.02","0","SATNPRO1962","27.118","0.37982","5"],
    [35785,"HCEP03730560","2024-10-05 01:00:00","11.5971","3.49243","24.763","1.833","7.52","0.284","3.884","0.06","0.09","30.413","4.77145","20.42","0","SATNPRO1962","25.334","0.35482","5"],
    [35786,"HCEP03730560","2024-10-05 01:15:00","11.597","3.49233","24.895","1.766","7.52","0.275","3.905","0.03","0.1","30.4122","4.77134","19.67","0","SATNPRO1962","25.584","0.35834","5"],
    [35787,"HCEP03730560","2024-10-05 01:30:00","11.5958","3.49209","25.025","1.733","7.52","0.347","3.936","0.13","0.12","30.4107","4.77116","19.3","0","SATNPRO1962","25.204","0.353","5"],
    [35788,"HCEP03730560","2024-10-05 01:45:00","11.597","3.4925","25.165","1.72","7.52","0.283","4.03","0.05","0.11","30.4138","4.77158","19.15","0","SATNPRO1962","25.256","0.35376","5"],
    [35789,"HCEP03730560","2024-10-05 02:00:00","11.5961","3.49222","25.317","1.711","7.52","0.426","4.027","0.65","0.11","30.4116","4.77129","19.06","0","SATNPRO1962","25.376","0.35546","5"],
    [35790,"HCEP03730560","2024-10-05 02:15:00","11.5967","3.49256","25.462","1.705","7.51","0.301","3.98","0.04","0.11","30.4144","4.77168","18.99","0","SATNPRO1962","25.166","0.3525","5"],
    [35791,"HCEP03730560","2024-10-05 02:30:00","11.5975","3.49262","25.605","1.704","7.52","0.285","4.031","0.07","0.29","30.4143","4.77167","18.99","0","SATNPRO1962","25.381999999999998","0.35554","5"],
    [35792,"HCEP03730560","2024-10-05 02:45:00","11.597","3.4925","25.768","1.717","7.52","0.283","3.713","0.04","0.12","30.4135","4.77157","19.12","0","SATNPRO1962","25.294","0.35432","5"],
    [35793,"HCEP03730560","2024-10-05 03:00:00","11.5965","3.49251","25.914","1.715","7.52","0.355","3.984","0.1","0.22","30.4139","4.77164","19.1","0","SATNPRO1962","25.272","0.35396","5"],
    [35794,"HCEP03730560","2024-10-05 03:15:00","11.5923","3.49133","26.071","1.729","7.52","0.283","3.53","0.04","0.13","30.4058","4.77057","19.26","0","SATNPRO1962","25.772","0.361","5"],
    [35795,"HCEP03730560","2024-10-05 03:30:00","11.5938","3.49165","26.238","1.776","7.52","0.223","3.159","0.01","0.05","30.4077","4.77082","19.78","0","SATNPRO1962","25.919999999999998","0.36302","5"],
    [35796,"HCEP03730560","2024-10-05 03:45:00","11.5967","3.49225","26.418","1.798","7.52","0.258","3.379","0.02","0.08","30.411","4.77126","20.03","0","SATNPRO1962","25.776","0.36104","5"],
    [35797,"HCEP03730560","2024-10-05 04:00:00","11.5988","3.49309","26.601","1.783","7.52","0.66","4.224","1.03","0.3","30.4174","4.77215","19.86","0","SATNPRO1962","25.188","0.35278","5"],
    [35798,"HCEP03730560","2024-10-05 04:15:00","11.5994","3.49316","26.777","1.685","7.51","0.384","4.34","0.23","0.17","30.4174","4.77215","18.76","0","SATNPRO1962","24.82","0.34764","5"],
    [35799,"HCEP03730560","2024-10-05 04:30:00","11.5969","3.49275","26.912","1.651","7.51","0.285","4.893","0.02","0.21","30.4155","4.77191","18.39","0","SATNPRO1962","24.53","0.34356","5"],
    [35800,"HCEP03730560","2024-10-05 04:45:00","11.5958","3.49231","27.049","1.63","7.51","0.321","4.856","0.02","0.2","30.4121","4.77146","18.16","0","SATNPRO1962","24.843999999999998","0.348","5"],
    [35801,"HCEP03730560","2024-10-05 05:00:00","11.5965","3.49238","27.155","1.644","7.51","0.309","4.483","0.05","0.17","30.4121","4.77146","18.31","0","SATNPRO1962","25.108","0.3517","5"],
    [35802,"HCEP03730560","2024-10-05 05:15:00","11.6007","3.49314","27.185","1.691","7.51","0.32","4.341","0.07","0.14","30.4161","4.77197","18.84","0","SATNPRO1962","25.362000000000002","0.35518","5"],
    [35803,"HCEP03730560","2024-10-05 05:30:00","11.6035","3.49365","27.271","1.736","7.52","0.31","4.564","0.08","0.18","30.4186","4.77228","19.34","0","SATNPRO1962","25.378","0.35548","5"],
    [35804,"HCEP03730560","2024-10-05 05:45:00","11.6014","3.49319","27.312","1.752","7.52","0.352","5.03","0.05","0.24","30.4159","4.77194","19.51","0","SATNPRO1962","25.316","0.35458","5"],
    [35805,"HCEP03730560","2024-10-05 06:00:00","11.6002","3.49289","27.35","1.76","7.52","0.336","4.754","0.09","0.2","30.414","4.77169","19.6","0","SATNPRO1962","25.622","0.35888","5"],
    [35806,"HCEP03730560","2024-10-05 06:15:00","11.5996","3.49272","27.381","1.778","7.52","0.319","4.871","0.03","0.32","30.4128","4.77153","19.8","0","SATNPRO1962","25.994","0.36412","5"],
    [35807,"HCEP03730560","2024-10-05 06:30:00","11.5978","3.4922","27.376","1.82","7.52","0.337","4.7","0.07","0.78","30.409300000000002","4.77105","20.27","0","SATNPRO1962","26.226","0.36732","5"],
    [35808,"HCEP03730560","2024-10-05 06:45:00","11.5985","3.49238","27.402","1.859","7.52","0.348","4.945","0.04","0.46","30.4104","4.7712","20.7","0","SATNPRO1962","26.254","0.36772","5"],
    [35809,"HCEP03730560","2024-10-05 07:00:00","11.6001","3.49258","27.36","1.893","7.53","0.288","3.711","0.05","0.16","30.4111","4.77127","21.09","0","SATNPRO1962","26.492","0.37108","5"],
    [35810,"HCEP03730560","2024-10-05 07:15:00","11.6054","3.49351","27.407","1.935","7.53","0.295","3.678","0.03","0.28","30.4156","4.77184","21.55","0","SATNPRO1962","26.464000000000002","0.37068","5"],
    [35811,"HCEP03730560","2024-10-05 07:30:00","11.6092","3.49403","27.385","1.987","7.54","0.299","4.253","0.03","1.37","30.4177","4.77208","22.14","0","SATNPRO1962","26.752","0.3747","5"],
    [35812,"HCEP03730560","2024-10-05 07:45:00","11.6118","3.49438","27.311","2.036","7.54","0.304","3.612","0.04","0.16","30.4188","4.7722","22.69","0","SATNPRO1962","27.082","0.37936","5"],
    [35813,"HCEP03730560","2024-10-05 08:00:00","11.6151","3.49509","27.215","2.056","7.54","0.32","4.014","0.11","0.37","30.4231","4.77275","22.91","0","SATNPRO1962","26.84","0.37592","5"],
    [35814,"HCEP03730560","2024-10-05 08:15:00","11.6157","3.4951","27.204","2.038","7.54","0.316","4.052","0.03","0.27","30.4227","4.77269","22.71","0","SATNPRO1962","26.826","0.37574","5"],
    [35815,"HCEP03730560","2024-10-05 08:30:00","11.6168","3.49528","27.115","2.048","7.54","0.279","4.009","0.02","0.24","30.4236","4.77278","22.83","0","SATNPRO1962","26.61","0.3727","5"],
    [35816,"HCEP03730560","2024-10-05 08:45:00","11.6172","3.49533","27.048","2.04","7.54","0.293","3.928","0.02","0.15","30.4237","4.7728","22.73","0","SATNPRO1962","26.562","0.37204","5"],
    [35817,"HCEP03730560","2024-10-05 09:00:00","11.6174","3.4954","26.983","2.035","7.54","0.287","3.853","0.07","0.19","30.4243","4.77287","22.68","0","SATNPRO1962","26.502","0.37122","5"],
    [35818,"HCEP03730560","2024-10-05 09:15:00","11.6177","3.49545","26.897","2.026","7.54","0.285","3.713","0.02","0.19","30.4245","4.7729","22.58","0","SATNPRO1962","26.562","0.37206","5"],
    [35819,"HCEP03730560","2024-10-05 09:30:00","11.6183","3.49546","26.813","2.024","7.54","0.281","3.898","0.03","0.34","30.4242","4.77284","22.56","0","SATNPRO1962","26.734","0.37444","5"],
    [35820,"HCEP03730560","2024-10-05 09:45:00","11.6186","3.49545","26.688","2.033","7.54","0.309","4.104","0.02","0.27","30.4239","4.77278","22.66","0","SATNPRO1962","26.338","0.3689","5"],
    [35821,"HCEP03730560","2024-10-05 10:00:00","11.6157","3.49486","26.555","2.02","7.54","0.287","3.846","0.03","0.19","30.4206","4.77235","22.51","0","SATNPRO1962","26.288","0.36824","5"],
    [35822,"HCEP03730560","2024-10-05 10:15:00","11.6089","3.49343","26.486","1.996","7.54","0.308","3.769","0.07","0.25","30.4125","4.77129","22.24","0","SATNPRO1962","26.164","0.36644","5"],
    [35823,"HCEP03730560","2024-10-05 10:30:00","11.5972","3.49107","26.37","1.944","7.54","0.259","3.536","0.03","0.29","30.3993","4.76959","21.66","0","SATNPRO1962","26.178","0.36668","5"],
    [35824,"HCEP03730560","2024-10-05 10:45:00","11.5987","3.49131","26.233","1.934","7.54","0.299","3.802","0.04","0.41","30.4004","4.76973","21.55","0","SATNPRO1962","26.064","0.36506","5"],
    [35825,"HCEP03730560","2024-10-05 11:00:00","11.5994","3.49154","26.147","1.941","7.54","0.372","5.899","0.13","6.09","30.4021","4.76994","21.62","0","SATNPRO1962","26.244","0.36762","5"],
    [35826,"HCEP03730560","2024-10-05 11:15:00","11.6028","3.49222","26.04","1.96","7.54","0.311","3.571","0.05","0.14","30.4059","4.77043","21.83","0","SATNPRO1962","26.398","0.36974","5"],
    [35827,"HCEP03730560","2024-10-05 11:30:00","11.5952","3.4906","26.003","1.959","7.54","1.913","22.834","2.93","29.69","30.3965","4.76921","21.82","0","SATNPRO1962","26.318","0.36862","5"],
    [35828,"HCEP03730560","2024-10-05 11:45:00","11.5966","3.49096","25.944","1.95","7.54","0.326","3.65","0.05","0.64","30.3989","4.76952","21.71","0","SATNPRO1962","26.378","0.36946","5"],
    [35829,"HCEP03730560","2024-10-05 12:00:00","11.6021","3.49209","25.888","1.947","7.54","0.3","3.569","0.06","0.31","30.4053","4.77034","21.69","0","SATNPRO1962","26.342","0.36894","5"],
    [35830,"HCEP03730560","2024-10-05 12:15:00","11.6044","3.49286","25.906","1.944","7.54","0.334","3.994","0.06","0.31","30.4109","4.7711","21.65","0","SATNPRO1962","26.258","0.36776","5"],
    [35831,"HCEP03730560","2024-10-05 12:30:00","11.602","3.49231","25.928","1.926","7.53","0.306","3.693","0.05","0.36","30.4075","4.77066","21.46","0","SATNPRO1962","26.378","0.36946","5"],
    [35832,"HCEP03730560","2024-10-05 12:45:00","11.6035","3.49254","25.965","1.926","7.53","0.337","3.74","0.05","0.21","30.4084","4.77077","21.46","0","SATNPRO1962","26.338","0.36888","5"],
    [35833,"HCEP03730560","2024-10-05 13:00:00","11.6049","3.49286","26.102","1.923","7.53","0.3","3.999","0.03","0.22","30.4103","4.77103","21.42","0","SATNPRO1962","26.126","0.36596","5"],
    [35834,"HCEP03730560","2024-10-05 13:15:00","11.604","3.49264","26.187","1.914","7.53","0.377","4.264","0.14","0.96","30.4089","4.77085","21.32","0","SATNPRO1962","26.082","0.36534","5"],
    [35835,"HCEP03730560","2024-10-05 13:30:00","11.6037","3.49281","26.294","1.898","7.53","0.307","4.376","0.03","0.14","30.4108","4.77112","21.14","0","SATNPRO1962","26.084","0.36536","5"],
    [35836,"HCEP03730560","2024-10-05 13:45:00","11.6042","3.49294","26.386","1.867","7.53","0.385","4.449","0.09","0.14","30.4116","4.77123","20.8","0","SATNPRO1962","25.812","0.36152","5"],
    [35837,"HCEP03730560","2024-10-05 14:00:00","11.6056","3.4932","26.485","1.868","7.53","0.329","4.553","0.04","0.19","30.4129","4.7714","20.81","0","SATNPRO1962","25.97","0.36374","5"],
    [35838,"HCEP03730560","2024-10-05 14:15:00","11.6073","3.49344","26.581","1.874","7.53","0.378","4.731","0.1","0.21","30.4138","4.77151","20.88","0","SATNPRO1962","25.862000000000002","0.36224","5"],
    [35839,"HCEP03730560","2024-10-05 14:30:00","11.6079","3.49354","26.686","1.876","7.53","0.341","5.122","0.04","0.32","30.4142","4.77156","20.91","0","SATNPRO1962","25.644000000000002","0.3592","5"],
    [35840,"HCEP03730560","2024-10-05 14:45:00","11.6095","3.49375","26.788","1.872","7.53","0.385","5.808","0.06","1.21","30.4149","4.77165","20.86","0","SATNPRO1962","25.518","0.35742","5"],
    [35841,"HCEP03730560","2024-10-05 15:00:00","11.6113","3.49413","26.888","1.868","7.53","0.329","5.012","0.03","0.57","30.417","4.77192","20.81","0","SATNPRO1962","25.509999999999998","0.35732","5"],
    [35842,"HCEP03730560","2024-10-05 15:15:00","11.6135","3.4945","26.995","1.877","7.53","0.352","5.02","0.03","0.3","30.4187","4.77214","20.92","0","SATNPRO1962","25.855999999999998","0.36216","5"],
    [35843,"HCEP03730560","2024-10-05 15:30:00","11.6145","3.49475","27.038","1.909","7.53","0.343","5.031","0.04","0.21","30.4204","4.77236","21.27","0","SATNPRO1962","26.168","0.3665","5"],
    [35844,"HCEP03730560","2024-10-05 15:45:00","11.6147","3.49487","27.098","1.931","7.54","0.395","5.145","0.07","0.41","30.4213","4.77249","21.52","0","SATNPRO1962","26.448","0.37048","5"],
    [35845,"HCEP03730560","2024-10-05 16:00:00","11.6153","3.49504","27.079","1.955","7.54","0.402","5.114","0.06","0.27","30.4225","4.77265","21.78","0","SATNPRO1962","26.22","0.36726","5"],
    [35846,"HCEP03730560","2024-10-05 16:15:00","11.6146","3.49503","27.177","1.948","7.54","0.367","5.175","0.04","0.44","30.4229","4.77273","21.7","0","SATNPRO1962","25.642","0.35916","5"],
    [35847,"HCEP03730560","2024-10-05 16:30:00","11.6107","3.4944","27.236","1.913","7.53","0.381","5.064","0.09","0.36","30.4199","4.77237","21.31","0","SATNPRO1962","26.002","0.36418","5"],
    [35848,"HCEP03730560","2024-10-05 16:45:00","11.6093","3.4943","27.281","1.871","7.53","0.344","5.014","0.03","0.3","30.4203","4.77243","20.85","0","SATNPRO1962","25.988","0.36402","5"],
    [35849,"HCEP03730560","2024-10-05 17:00:00","11.6059","3.4939","27.338","1.818","7.53","0.354","5.107","0.07","0.44","30.4191","4.77233","20.25","0","SATNPRO1962","25.508","0.35732","5"],
    [35850,"HCEP03730560","2024-10-05 17:15:00","11.6029","3.4935","27.377","1.754","7.52","0.388","5.335","0.12","0.24","30.4176","4.77216","19.54","0","SATNPRO1962","25.294","0.35428","5"],
    [35851,"HCEP03730560","2024-10-05 17:30:00","11.5965","3.49232","27.405","1.697","7.52","0.322","5.162","0.04","0.37","30.4114","4.77138","18.91","0","SATNPRO1962","25.346","0.355","5"],
    [35852,"HCEP03730560","2024-10-05 17:45:00","11.5917","3.4914","27.41","1.65","7.51","0.358","4.541","0.09","0.25","30.4065","4.77075","18.37","0","SATNPRO1962","25.092","0.35142","5"],
    [35853,"HCEP03730560","2024-10-05 18:00:00","11.5865","3.49045","27.396","1.605","7.51","0.33","4.638","0.1","0.19","30.4017","4.77015","17.87","0","SATNPRO1962","25.162","0.35242","5"],
    [35854,"HCEP03730560","2024-10-05 18:15:00","11.5827","3.48975","27.366","1.575","7.51","0.367","4.703","0.06","0.25","30.398","4.76968","17.53","0","SATNPRO1962","25.046","0.3508","5"],
    [35855,"HCEP03730560","2024-10-05 18:30:00","11.5786","3.48893","27.318","1.557","7.5","0.35","4.631","0.1","0.44","30.3934","4.76908","17.33","0","SATNPRO1962","25.214","0.3532","5"],
    [35856,"HCEP03730560","2024-10-05 18:45:00","11.575","3.48828","27.259","1.519","7.5","0.354","4.549","0.06","0.23","30.3901","4.76866","16.9","0","SATNPRO1962","24.738","0.34654","5"],
    [35857,"HCEP03730560","2024-10-05 19:00:00","11.5717","3.48769","27.179","1.484","7.5","1.9","27.064","2.5","29.61","30.3871","4.76828","16.51","0","SATNPRO1962","24.544","0.34382","5"],
    [35858,"HCEP03730560","2024-10-05 19:15:00","11.5694","3.48728","27.082","1.457","7.49","0.327","4.281","0.03","0.19","30.3851","4.76803","16.22","0","SATNPRO1962","24.25","0.33966","5"],
    [35859,"HCEP03730560","2024-10-05 19:30:00","11.5671","3.4869","26.969","1.423","7.49","0.312","4.44","0.04","0.1","30.3834","4.76781","15.84","0","SATNPRO1962","24.142","0.33812","5"],
    [35860,"HCEP03730560","2024-10-05 19:45:00","11.5667","3.48679","26.838","1.398","7.49","0.346","4.336","0.05","0.27","30.3827","4.76771","15.55","0","SATNPRO1962","24.59","0.34442","5"],
    [35861,"HCEP03730560","2024-10-05 20:00:00","11.5663","3.48675","26.697","1.395","7.49","0.349","4.062","0.12","0.11","30.3827","4.76771","15.53","0","SATNPRO1962","23.802","0.33336","5"],
    [35862,"HCEP03730560","2024-10-05 20:15:00","11.5668","3.48674","26.54","1.385","7.49","0.318","4.272","0.02","0.19","30.3822","4.76763","15.41","0","SATNPRO1962","23.904","0.33484","5"],
    [35863,"HCEP03730560","2024-10-05 20:30:00","11.5666","3.4867","26.374","1.404","7.49","0.309","4.196","0.03","0.13","30.3821","4.76761","15.62","0","SATNPRO1962","25.206","0.35306","5"],
    [35864,"HCEP03730560","2024-10-05 20:45:00","11.5667","3.48672","26.198","1.42","7.49","0.324","4.175","0.04","0.19","30.3822","4.76761","15.81","0","SATNPRO1962","24.554","0.34392","5"],
    [35865,"HCEP03730560","2024-10-05 21:00:00","11.5693","3.48696","26.018","1.452","7.49","0.279","3.806","0.04","0.13","30.3826","4.76761","16.16","0","SATNPRO1962","24.502","0.34326","5"],
    [35866,"HCEP03730560","2024-10-05 21:15:00","11.573","3.48734","25.831","1.533","7.49","0.303","3.651","0.08","0.14","30.3832","4.76763","17.06","0","SATNPRO1962","26.308","0.3685","5"],
    [35867,"HCEP03730560","2024-10-05 21:30:00","11.5857","3.48859","25.636","1.737","7.51","0.269","2.599","0.04","0.08","30.3851","4.76771","19.34","0","SATNPRO1962","27.674","0.3876","5"],
    [35868,"HCEP03730560","2024-10-05 21:45:00","11.5869","3.4888","25.442","1.987","7.52","0.328","2.822","0.1","0.22","30.3862","4.76784","22.12","0","SATNPRO1962","27.49","0.38504","5"],
    [35869,"HCEP03730560","2024-10-05 22:00:00","11.593","3.4895","25.241","2.088","7.53","0.299","2.673","0.09","0.16","30.3879","4.76798","23.25","0","SATNPRO1962","28.21","0.39514","5"],
    [35870,"HCEP03730560","2024-10-05 22:15:00","11.5784","3.48812","25.048","1.988","7.53","0.332","3.805","0.07","0.12","30.3866","4.768","22.13","0","SATNPRO1962","24.892","0.34866","5"],
    [35871,"HCEP03730560","2024-10-05 22:30:00","11.5729","3.48766","24.869","1.669","7.51","0.321","4.688","0.05","0.43","30.3867","4.76809","18.58","0","SATNPRO1962","23.976","0.3358","5"],
    [35872,"HCEP03730560","2024-10-05 22:45:00","11.5726","3.48771","24.777","1.491","7.5","0.291","4.055","0.02","0.12","30.3876","4.7682","16.59","0","SATNPRO1962","24.584","0.34434","5"],
    [35873,"HCEP03730560","2024-10-05 23:00:00","11.5726","3.4877","24.638","1.431","7.49","0.283","4.353","0.05","0.12","30.3875","4.76819","15.92","0","SATNPRO1962","24.418","0.342","5"],
    [35874,"HCEP03730560","2024-10-05 23:15:00","11.5717","3.48764","24.531","1.403","7.49","0.305","3.982","0.05","0.15","30.3877","4.76822","15.62","0","SATNPRO1962","23.962","0.33564","5"],
    [35875,"HCEP03730560","2024-10-05 23:30:00","11.5721","3.48768","24.448","1.388","7.49","0.272","3.932","0.06","0.09","30.3878","4.76823","15.45","0","SATNPRO1962","24.118","0.33782","5"],
    [35876,"HCEP03730560","2024-10-05 23:45:00","11.5727","3.48783","24.394","1.386","7.49","0.261","3.641","0.02","0.07","30.3888","4.76835","15.43","0","SATNPRO1962","24.142","0.33816","5"],
    [35877,"HCEP03730560","2024-10-06 00:00:00","11.5733","3.48801","24.38","1.389","7.49","0.251","3.877","0.03","0.1","30.3901","4.76852","15.46","0","SATNPRO1962","23.896","0.33468","5"],
    [35878,"HCEP03730560","2024-10-06 00:15:00","11.5779","3.48867","24.374","1.416","7.49","0.311","3.488","0.08","0.11","30.3927","4.76883","15.77","0","SATNPRO1962","24.558","0.344","5"],
    [35879,"HCEP03730560","2024-10-06 00:30:00","11.5798","3.48901","24.399","1.47","7.49","0.284","3.834","0.04","0.25","30.3944","4.76905","16.37","0","SATNPRO1962","24.796","0.34734","5"],
    [35880,"HCEP03730560","2024-10-06 00:45:00","11.5771","3.48875","24.443","1.452","7.49","0.293","4.052","0.02","0.08","30.394","4.76903","16.17","0","SATNPRO1962","24.407999999999998","0.34188","5"],
    [35881,"HCEP03730560","2024-10-06 01:00:00","11.5782","3.48894","24.502","1.401","7.49","0.295","3.966","0.05","0.12","30.395","4.76915","15.6","0","SATNPRO1962","24.076","0.33722","5"],
    [35882,"HCEP03730560","2024-10-06 01:15:00","11.5782","3.48898","24.583","1.401","7.49","0.341","4.312","0.08","0.16","30.3952","4.76919","15.59","0","SATNPRO1962","23.996","0.3361","5"],
    [35883,"HCEP03730560","2024-10-06 01:30:00","11.58","3.48914","24.692","1.401","7.49","0.301","4.227","0.05","0.12","30.3954","4.7692","15.6","0","SATNPRO1962","23.88","0.3345","5"],
    [35884,"HCEP03730560","2024-10-06 01:45:00","11.5811","3.48954","24.806","1.401","7.49","0.32","4.556","0.05","0.16","30.3983","4.7696","15.6","0","SATNPRO1962","24.134","0.33804","5"],
    [35885,"HCEP03730560","2024-10-06 02:00:00","11.5854","3.49027","24.946","1.419","7.49","0.34","4.549","0.06","0.23","30.4017","4.77003","15.8","0","SATNPRO1962","24.498","0.34308","5"],
    [35886,"HCEP03730560","2024-10-06 02:15:00","11.586","3.49053","25.095","1.439","7.49","0.348","4.55","0.1","0.24","30.4037","4.77031","16.03","0","SATNPRO1962","24.356","0.34118","5"],
    [35887,"HCEP03730560","2024-10-06 02:30:00","11.5898","3.49112","25.238","1.443","7.49","0.306","4.52","0.04","0.2","30.4062","4.77062","16.07","0","SATNPRO1962","24.396","0.34172","5"],
    [35888,"HCEP03730560","2024-10-06 02:45:00","11.59","3.49126","25.396","1.443","7.49","0.317","4.656","0.02","0.15","30.4074","4.77079","16.07","0","SATNPRO1962","23.958","0.33558","5"],
    [35889,"HCEP03730560","2024-10-06 03:00:00","11.5954","3.4922","25.563","1.469","7.49","0.292","4.374","0.02","0.23","30.4119","4.77136","16.36","0","SATNPRO1962","24.38","0.34152","5"],
    [35890,"HCEP03730560","2024-10-06 03:15:00","11.5965","3.4923","25.714","1.516","7.5","0.302","4.408","0.02","0.17","30.412","4.77136","16.88","0","SATNPRO1962","24.854","0.34812","5"],
    [35891,"HCEP03730560","2024-10-06 03:30:00","11.5965","3.49227","25.786","1.53","7.5","0.289","4.329","0.04","0.14","30.4116","4.77131","17.05","0","SATNPRO1962","24.828","0.34778","5"],
    [35892,"HCEP03730560","2024-10-06 03:45:00","11.5948","3.49208","25.943","1.536","7.5","0.3","4.491","0.05","0.17","30.4111","4.77127","17.11","0","SATNPRO1962","24.392","0.3417","5"],
    [35893,"HCEP03730560","2024-10-06 04:00:00","11.5966","3.49233","26.104","1.532","7.5","0.398","12.804","0.35","0.19","30.4119","4.77138","17.06","0","SATNPRO1962","24.61","0.34472","5"],
    [35894,"HCEP03730560","2024-10-06 04:15:00","11.5935","3.49198","26.293","1.518","7.5","0.288","5.282","0.01","0.17","30.4111","4.77131","16.91","0","SATNPRO1962","24.676000000000002","0.34562","5"],
    [35895,"HCEP03730560","2024-10-06 04:30:00","11.5947","3.49208","26.467","1.488","7.49","0.243","4.078","0.01","0.08","30.411","4.7713","16.57","0","SATNPRO1962","24.71","0.34606","5"],
    [35896,"HCEP03730560","2024-10-06 04:45:00","11.5945","3.49207","26.643","1.466","7.49","0.274","4.172","0.03","0.27","30.411","4.77131","16.33","0","SATNPRO1962","24.194","0.33886","5"],
    [35897,"HCEP03730560","2024-10-06 05:00:00","11.5909","3.49154","26.803","1.439","7.49","0.29","4.68","0.05","0.17","30.4088","4.77106","16.02","0","SATNPRO1962","24.244","0.33962","5"],
    [35898,"HCEP03730560","2024-10-06 05:15:00","11.5917","3.49164","26.943","1.43","7.49","0.308","4.212","0.06","0.11","30.409","4.77108","15.93","0","SATNPRO1962","24.516","0.3434","5"],
    [35899,"HCEP03730560","2024-10-06 05:30:00","11.5931","3.49181","27.08","1.456","7.49","0.269","4.144","0.03","0.16","30.4095","4.77113","16.21","0","SATNPRO1962","24.606","0.34466","5"],
    [35900,"HCEP03730560","2024-10-06 05:45:00","11.5915","3.49152","27.194","1.467","7.49","0.29","4.474","0.01","0.22","30.408","4.77095","16.34","0","SATNPRO1962","24.444","0.34242","5"],
    [35901,"HCEP03730560","2024-10-06 06:00:00","11.5923","3.49169","27.3","1.469","7.49","0.357","4.195","0.43","0.18","30.4089","4.77107","16.36","0","SATNPRO1962","24.534","0.34362","5"],
    [35902,"HCEP03730560","2024-10-06 06:15:00","11.5927","3.49166","27.375","1.491","7.49","9.175","274.512","3.12","122.34","30.4082","4.77098","16.6","0","SATNPRO1962","24.71","0.34612","5"],
    [35903,"HCEP03730560","2024-10-06 06:30:00","11.5915","3.49145","27.42","1.501","7.5","0.262","3.997","0.03","0.17","30.4072","4.77085","16.71","0","SATNPRO1962","24.758","0.34678","5"],
    [35904,"HCEP03730560","2024-10-06 06:45:00","11.5915","3.49149","27.434","1.496","7.49","0.349","4.407","0.07","0.32","30.4076","4.77091","16.66","0","SATNPRO1962","24.644000000000002","0.34516","5"],
    [35905,"HCEP03730560","2024-10-06 07:00:00","11.5934","3.49174","27.454","1.5","7.49","0.264","4.001","0.03","0.18","30.4084","4.771","16.7","0","SATNPRO1962","24.932","0.3492","5"],
    [35906,"HCEP03730560","2024-10-06 07:15:00","11.596","3.49209","27.455","1.529","7.5","0.333","4.167","0.04","0.55","30.4096","4.77113","17.03","0","SATNPRO1962","24.91","0.34892","5"],
    [35907,"HCEP03730560","2024-10-06 07:30:00","11.5967","3.49214","27.439","1.564","7.5","0.336","3.972","0.12","0.19","30.4095","4.7711","17.43","0","SATNPRO1962","24.96","0.34962","5"],
    [35908,"HCEP03730560","2024-10-06 07:45:00","11.5966","3.4922","27.414","1.574","7.5","0.292","4.333","0.02","0.19","30.4102","4.77121","17.53","0","SATNPRO1962","24.85","0.34806","5"],
    [35909,"HCEP03730560","2024-10-06 08:00:00","11.599","3.4925","27.389","1.575","7.5","0.404","4.323","0.42","0.34","30.4112","4.77131","17.55","0","SATNPRO1962","25.024","0.35056","5"],
    [35910,"HCEP03730560","2024-10-06 08:15:00","11.6005","3.49289","27.349","1.591","7.5","0.325","4.796","0.04","0.39","30.4138","4.77165","17.72","0","SATNPRO1962","24.966","0.34968","5"],
    [35911,"HCEP03730560","2024-10-06 08:30:00","11.6019","3.49306","27.296","1.577","7.5","0.33","4.523","0.09","0.22","30.4142","4.77169","17.56","0","SATNPRO1962","24.868","0.3483","5"],
    [35912,"HCEP03730560","2024-10-06 08:45:00","11.6019","3.49306","27.241","1.566","7.5","0.342","5.012","0.03","0.35","30.4142","4.77169","17.44","0","SATNPRO1962","24.522","0.34346","5"],
    [35913,"HCEP03730560","2024-10-06 09:00:00","11.6016","3.49289","27.179","1.549","7.5","0.337","4.583","0.07","0.22","30.4129","4.7715","17.25","0","SATNPRO1962","24.868","0.34836","5"],
    [35914,"HCEP03730560","2024-10-06 09:15:00","11.5995","3.49242","27.109","1.582","7.5","0.342","4.336","0.07","0.23","30.4101","4.77113","17.62","0","SATNPRO1962","25.23","0.3534","5"],
    [35915,"HCEP03730560","2024-10-06 09:30:00","11.6024","3.4926","27.039","1.655","7.51","0.302","3.986","0.05","0.57","30.4095","4.771","18.44","0","SATNPRO1962","26.116","0.36578","5"],
    [35916,"HCEP03730560","2024-10-06 09:45:00","11.6036","3.49289","26.953","1.718","7.51","0.396","3.953","0.11","0.23","30.4114","4.77125","19.13","0","SATNPRO1962","25.562","0.35804","5"],
    [35917,"HCEP03730560","2024-10-06 10:00:00","11.6061","3.49327","26.866","1.723","7.51","0.352","4.411","0.04","0.27","30.413","4.77143","19.2","0","SATNPRO1962","25.466","0.3567","5"],
    [35918,"HCEP03730560","2024-10-06 10:15:00","11.6082","3.49356","26.786","1.741","7.51","0.392","4.816","0.03","0.26","30.414","4.77154","19.39","0","SATNPRO1962","25.674","0.35964","5"],
    [35919,"HCEP03730560","2024-10-06 10:30:00","11.6104","3.49382","26.694","1.756","7.52","0.369","4.388","0.05","0.21","30.4148","4.77162","19.56","0","SATNPRO1962","25.844","0.362","5"],
    [35920,"HCEP03730560","2024-10-06 10:45:00","11.6131","3.49408","26.598","1.793","7.52","0.411","3.998","0.07","0.17","30.4152","4.77163","19.98","0","SATNPRO1962","25.868","0.36234","5"],
    [35921,"HCEP03730560","2024-10-06 11:00:00","11.6122","3.49395","26.506","1.824","7.52","0.397","4.137","0.09","0.23","30.4147","4.77157","20.32","0","SATNPRO1962","25.772","0.36096","5"],
    [35922,"HCEP03730560","2024-10-06 11:15:00","11.6132","3.49406","26.41","1.819","7.52","0.369","4.236","0.04","0.33","30.415","4.77158","20.27","0","SATNPRO1962","25.864","0.36222","5"],
    [35923,"HCEP03730560","2024-10-06 11:30:00","11.6144","3.49415","26.315","1.835","7.52","0.347","3.997","0.11","0.19","30.4149","4.77156","20.45","0","SATNPRO1962","26.058","0.36502","5"],
    [35924,"HCEP03730560","2024-10-06 11:45:00","11.6136","3.494","26.237","1.859","7.53","0.379","4.267","0.06","0.22","30.4142","4.77145","20.72","0","SATNPRO1962","26.028000000000002","0.36456","5"],
    [35925,"HCEP03730560","2024-10-06 12:00:00","11.6118","3.49372","26.166","1.86","7.53","0.348","4.171","0.09","0.29","30.4129","4.7713","20.72","0","SATNPRO1962","26.064","0.36508","5"],
    [35926,"HCEP03730560","2024-10-06 12:15:00","11.6098","3.49333","26.104","1.855","7.53","0.349","3.912","0.08","0.19","30.4108","4.77103","20.67","0","SATNPRO1962","26.14","0.36614","5"],
    [35927,"HCEP03730560","2024-10-06 12:30:00","11.6077","3.49305","26.074","1.82","7.52","0.298","4.089","0.04","0.21","30.4099","4.77092","20.28","0","SATNPRO1962","25.994","0.3641","5"],
    [35928,"HCEP03730560","2024-10-06 12:45:00","11.605","3.49254","26.081","1.791","7.52","0.333","3.994","0.04","0.15","30.4072","4.77059","19.95","0","SATNPRO1962","26.072","0.3652","5"],
    [35929,"HCEP03730560","2024-10-06 13:00:00","11.6041","3.49238","26.095","1.773","7.52","0.32","3.965","0.08","0.18","30.4064","4.77048","19.75","0","SATNPRO1962","25.996","0.36414","5"],
    [35930,"HCEP03730560","2024-10-06 13:15:00","11.6024","3.49214","26.127","1.753","7.52","0.346","4.436","0.06","0.78","30.4054","4.77037","19.53","0","SATNPRO1962","25.886","0.36258","5"],
    [35931,"HCEP03730560","2024-10-06 13:30:00","11.6015","3.49199","26.193","1.75","7.52","0.298","3.902","0.05","0.26","30.4047","4.77029","19.49","0","SATNPRO1962","25.946","0.36342","5"],
    [35932,"HCEP03730560","2024-10-06 13:45:00","11.602","3.4921","26.226","1.751","7.52","0.347","3.961","0.09","0.31","30.4053","4.77037","19.51","0","SATNPRO1962","25.976","0.36384","5"],
    [35933,"HCEP03730560","2024-10-06 14:00:00","11.6018","3.49202","26.283","1.749","7.52","0.306","3.649","0.06","0.15","30.4047","4.77028","19.48","0","SATNPRO1962","25.932","0.3632","5"],
    [35934,"HCEP03730560","2024-10-06 14:15:00","11.6014","3.49194","26.359","1.753","7.52","0.33","3.55","0.04","0.3","30.4042","4.77023","19.53","0","SATNPRO1962","25.976","0.36388","5"],
    [35935,"HCEP03730560","2024-10-06 14:30:00","11.6003","3.49166","26.431","1.762","7.52","0.324","3.389","0.07","0.19","30.4024","4.77","19.62","0","SATNPRO1962","25.936","0.36328","5"],
    [35936,"HCEP03730560","2024-10-06 14:45:00","11.6003","3.4917","26.591","1.75","7.52","0.341","3.552","0.04","0.09","30.4027","4.77005","19.49","0","SATNPRO1962","25.791999999999998","0.36126","5"],
    [35937,"HCEP03730560","2024-10-06 15:00:00","11.6018","3.49203","26.651","1.739","7.52","0.322","3.673","0.04","0.18","30.4046","4.7703","19.37","0","SATNPRO1962","25.884","0.36254","5"],
    [35938,"HCEP03730560","2024-10-06 15:15:00","11.6045","3.49251","26.742","1.741","7.52","0.341","3.939","0.03","0.18","30.407","4.7706","19.39","0","SATNPRO1962","25.832","0.36184","5"],
    [35939,"HCEP03730560","2024-10-06 15:30:00","11.6066","3.49285","26.808","1.746","7.52","0.35","4.267","0.04","0.24","30.4086","4.77079","19.45","0","SATNPRO1962","25.95","0.36348","5"],
    [35940,"HCEP03730560","2024-10-06 15:45:00","11.6079","3.49307","26.907","1.755","7.52","0.344","3.982","0.05","0.15","30.4096","4.77092","19.55","0","SATNPRO1962","25.846","0.36204","5"],
    [35941,"HCEP03730560","2024-10-06 16:00:00","11.6084","3.49317","27.058","1.755","7.52","0.322","4.186","0.05","0.17","30.4101","4.771","19.56","0","SATNPRO1962","25.76","0.3608","5"],
    [35942,"HCEP03730560","2024-10-06 16:15:00","11.6085","3.49317","27.135","1.753","7.52","0.308","3.98","0.02","0.12","30.41","4.77098","19.53","0","SATNPRO1962","25.75","0.36066","5"],
    [35943,"HCEP03730560","2024-10-06 16:30:00","11.6091","3.49334","27.254","1.746","7.52","0.35","4.174","0.06","0.31","30.4111","4.77113","19.46","0","SATNPRO1962","25.724","0.3603","5"],
    [35944,"HCEP03730560","2024-10-06 16:45:00","11.6104","3.49359","27.34","1.747","7.52","0.345","4.103","0.06","0.13","30.4124","4.77132","19.47","0","SATNPRO1962","25.598","0.35854","5"],
    [35945,"HCEP03730560","2024-10-06 17:00:00","11.6117","3.4938","27.377","1.736","7.52","0.326","4.373","0.05","0.19","30.4133","4.77142","19.34","0","SATNPRO1962","25.477999999999998","0.35688","5"],
    [35946,"HCEP03730560","2024-10-06 17:15:00","11.6132","3.49413","27.445","1.721","7.52","0.39","4.612","0.08","0.26","30.4153","4.77168","19.17","0","SATNPRO1962","25.354","0.35512","5"],
    [35947,"HCEP03730560","2024-10-06 17:30:00","11.6152","3.4945","27.486","1.725","7.52","0.381","4.631","0.12","0.59","30.4171","4.77192","19.23","0","SATNPRO1962","25.478","0.35688","5"],
    [35948,"HCEP03730560","2024-10-06 17:45:00","11.6166","3.49468","27.52","1.733","7.52","0.39","4.634","0.06","0.25","30.4177","4.77198","19.31","0","SATNPRO1962","25.38","0.3555","5"],
    [35949,"HCEP03730560","2024-10-06 18:00:00","11.619","3.49505","27.515","1.735","7.52","0.385","5.354","0.05","0.36","30.4194","4.77219","19.33","0","SATNPRO1962","25.451999999999998","0.3565","5"],
    [35950,"HCEP03730560","2024-10-06 18:15:00","11.62","3.49529","27.517","1.737","7.52","0.337","4.995","0.04","0.18","30.4209","4.77239","19.36","0","SATNPRO1962","25.466","0.3567","5"],
    [35951,"HCEP03730560","2024-10-06 18:30:00","11.6228","3.49573","27.469","1.742","7.52","0.337","4.352","0.06","0.16","30.4228","4.77261","19.41","0","SATNPRO1962","25.64","0.35914","5"],
    [35952,"HCEP03730560","2024-10-06 18:45:00","11.6256","3.49624","27.429","1.763","7.52","0.364","5.371","0.04","0.22","30.4255","4.77295","19.65","0","SATNPRO1962","25.818","0.36162","5"],
    [35953,"HCEP03730560","2024-10-06 19:00:00","11.6296","3.49685","27.389","1.794","7.52","0.314","3.993","0.08","0.12","30.4281","4.77326","20","0","SATNPRO1962","25.862000000000002","0.36222","5"],
    [35954,"HCEP03730560","2024-10-06 19:15:00","11.6325","3.49728","27.263","1.835","7.53","0.386","3.766","0.08","0.12","30.4299","4.77347","20.46","0","SATNPRO1962","26.198","0.36696","5"],
    [35955,"HCEP03730560","2024-10-06 19:30:00","11.6346","3.4977","27.089","1.885","7.53","0.334","3.908","0.06","0.17","30.4323","4.77377","21.02","0","SATNPRO1962","26.608","0.3727","5"],
    [35956,"HCEP03730560","2024-10-06 19:45:00","11.636","3.49791","26.99","1.908","7.53","0.401","4.106","0.15","0.53","30.4332","4.77386","21.27","0","SATNPRO1962","26.588","0.37244","5"],
    [35957,"HCEP03730560","2024-10-06 20:00:00","11.6378","3.4983","26.885","1.936","7.53","0.32","4.248","0.06","0.42","30.4355","4.77416","21.59","0","SATNPRO1962","26.446","0.37042","5"],
    [35958,"HCEP03730560","2024-10-06 20:15:00","11.6386","3.49829","26.756","1.95","7.54","0.366","3.862","0.11","0.18","30.4349","4.77404","21.74","0","SATNPRO1962","26.64","0.37314","5"],
    [35959,"HCEP03730560","2024-10-06 20:30:00","11.6392","3.49844","26.616","1.976","7.54","0.385","4.035","0.11","0.25","30.4359","4.77418","22.03","0","SATNPRO1962","26.646","0.3732","5"],
    [35960,"HCEP03730560","2024-10-06 20:45:00","11.6385","3.49835","26.453","1.974","7.54","0.343","4.09","0.06","0.26","30.4356","4.77414","22.01","0","SATNPRO1962","26.854","0.37614","5"],
    [35961,"HCEP03730560","2024-10-06 21:00:00","11.6367","3.49797","26.284","1.965","7.54","0.331","3.96","0.05","0.25","30.4336","4.77387","21.91","0","SATNPRO1962","26.666","0.37348","5"],
    [35962,"HCEP03730560","2024-10-06 21:15:00","11.633","3.49753","26.104","1.934","7.54","0.336","4.337","0.05","0.1","30.4324","4.77375","21.56","0","SATNPRO1962","26.436","0.37024","5"],
    [35963,"HCEP03730560","2024-10-06 21:30:00","11.6323","3.49735","25.915","1.881","7.53","0.423","4.288","0.32","0.26","30.4313","4.77359","20.97","0","SATNPRO1962","26.080000000000002","0.36526","5"],
    [35964,"HCEP03730560","2024-10-06 21:45:00","11.631","3.49717","25.726","1.883","7.53","0.324","3.917","0.07","0.17","30.4307","4.77351","21","0","SATNPRO1962","26.05","0.3649","5"],
    [35965,"HCEP03730560","2024-10-06 22:00:00","11.631","3.4972","25.529","1.871","7.53","0.258","3.823","0.02","0.07","30.4311","4.77356","20.86","0","SATNPRO1962","26.068","0.3651","5"],
    [35966,"HCEP03730560","2024-10-06 22:15:00","11.6315","3.49728","25.331","1.852","7.53","0.331","4.015","0.07","0.13","30.4315","4.7736","20.65","0","SATNPRO1962","25.804","0.3614","5"],
    [35967,"HCEP03730560","2024-10-06 22:30:00","11.6337","3.49759","25.146","1.863","7.53","0.288","4.375","0.03","0.23","30.4328","4.77373","20.77","0","SATNPRO1962","25.86","0.36218","5"],
    [35968,"HCEP03730560","2024-10-06 22:45:00","11.6386","3.4983","24.983","1.901","7.53","0.317","3.854","0.04","0.12","30.4356","4.77405","21.19","0","SATNPRO1962","26.544","0.37178","5"],
    [35969,"HCEP03730560","2024-10-06 23:00:00","11.6428","3.49892","24.804","1.947","7.54","0.307","3.663","0.07","0.14","30.4383","4.77437","21.71","0","SATNPRO1962","26.91","0.37688","5"],
    [35970,"HCEP03730560","2024-10-06 23:15:00","11.6437","3.49899","24.652","1.987","7.54","0.305","3.577","0.05","0.1","30.4383","4.77434","22.16","0","SATNPRO1962","26.546","0.3718","5"],
    [35971,"HCEP03730560","2024-10-06 23:30:00","11.6399","3.49853","24.504","1.983","7.54","0.323","3.875","0.08","0.19","30.437","4.77421","22.12","0","SATNPRO1962","26.306","0.36848","5"],
    [35972,"HCEP03730560","2024-10-06 23:45:00","11.6405","3.49866","24.391","1.959","7.54","0.315","3.594","0.08","0.11","30.4378","4.77431","21.84","0","SATNPRO1962","26.744","0.3746","5"],
    [35973,"HCEP03730560","2024-10-07 00:00:00","11.641","3.49873","24.298","1.956","7.54","0.325","4.253","0.05","0.49","30.4381","4.77433","21.81","0","SATNPRO1962","26.904","0.37682","5"],
    [35974,"HCEP03730560","2024-10-07 00:15:00","11.6459","3.49941","24.247","1.989","7.54","0.369","3.626","0.11","0.17","30.4407","4.77463","22.18","0","SATNPRO1962","26.798","0.37534","5"],
    [35975,"HCEP03730560","2024-10-07 00:30:00","11.6407","3.49879","24.33","2","7.54","0.355","3.825","0.19","0.1","30.4389","4.77445","22.3","0","SATNPRO1962","26.34","0.36892","5"],
    [35976,"HCEP03730560","2024-10-07 00:45:00","11.6418","3.49899","24.325","1.958","7.54","0.399","21.69","0.2","27.32","30.44","4.77459","21.84","0","SATNPRO1962","26.642","0.37314","5"],
    [35977,"HCEP03730560","2024-10-07 01:00:00","11.6411","3.49885","24.345","1.943","7.54","0.324","4.163","0.18","0.13","30.4392","4.77449","21.67","0","SATNPRO1962","26.392","0.36966","5"],
    [35978,"HCEP03730560","2024-10-07 01:15:00","11.6386","3.4986","24.392","1.896","7.53","0.344","4.708","0.04","0.26","30.4388","4.77447","21.14","0","SATNPRO1962","25.872","0.36234","5"],
    [35979,"HCEP03730560","2024-10-07 01:30:00","11.6401","3.49884","24.448","1.85","7.53","0.334","4.396","0.07","0.18","30.4399","4.77461","20.63","0","SATNPRO1962","25.902","0.3628","5"],
    [35980,"HCEP03730560","2024-10-07 01:45:00","11.6428","3.49916","24.515","1.854","7.53","0.365","4.087","0.08","0.12","30.4407","4.77469","20.68","0","SATNPRO1962","26.488","0.37098","5"],
    [35981,"HCEP03730560","2024-10-07 02:00:00","11.6418","3.49896","24.611","1.884","7.53","0.301","4.101","0.04","0.17","30.4396","4.77455","21.01","0","SATNPRO1962","26.419999999999998","0.37008","5"],
    [35982,"HCEP03730560","2024-10-07 02:15:00","11.64","3.49879","24.718","1.888","7.53","0.333","4.5","0.04","0.18","30.4394","4.77456","21.05","0","SATNPRO1962","25.968","0.3637","5"],
    [35983,"HCEP03730560","2024-10-07 02:30:00","11.6376","3.49854","24.844","1.835","7.53","0.33","4.802","0.07","0.2","30.4389","4.77452","20.46","0","SATNPRO1962","25.858","0.36218","5"],
    [35984,"HCEP03730560","2024-10-07 02:45:00","11.6406","3.49897","24.978","1.81","7.53","0.34","5.028","0.06","0.23","30.4406","4.77473","20.18","0","SATNPRO1962","25.742","0.36058","5"],
    [35985,"HCEP03730560","2024-10-07 03:00:00","11.6409","3.49894","25.126","1.83","7.53","0.308","4.769","0.03","0.25","30.4398","4.77463","20.41","0","SATNPRO1962","26.073999999999998","0.36524","5"],
    [35986,"HCEP03730560","2024-10-07 03:15:00","11.6394","3.49875","25.293","1.839","7.53","0.35","4.969","0.03","0.32","30.4392","4.77457","20.51","0","SATNPRO1962","26.028000000000002","0.36454","5"],
    [35987,"HCEP03730560","2024-10-07 03:30:00","11.6398","3.49887","25.46","1.827","7.53","0.348","5.107","0.07","0.22","30.44","4.77468","20.37","0","SATNPRO1962","25.842","0.36196","5"],
    [35988,"HCEP03730560","2024-10-07 03:45:00","11.6418","3.49911","25.62","1.834","7.53","0.376","4.657","0.06","0.2","30.4406","4.77475","20.45","0","SATNPRO1962","25.856","0.36212","5"],
    [35989,"HCEP03730560","2024-10-07 04:00:00","11.6451","3.49951","25.779","1.886","7.53","0.305","4.06","0.03","0.12","30.4417","4.77486","21.03","0","SATNPRO1962","26.434","0.37028","5"],
    [35990,"HCEP03730560","2024-10-07 04:15:00","11.647","3.49986","25.947","1.93","7.53","0.331","4.284","0.06","0.15","30.4435","4.7751","21.53","0","SATNPRO1962","26.416","0.37","5"],
    [35991,"HCEP03730560","2024-10-07 04:30:00","11.6468","3.49973","26.058","1.951","7.54","0.301","4.323","0.05","0.24","30.4424","4.77495","21.76","0","SATNPRO1962","26.396","0.36968","5"],
    [35992,"HCEP03730560","2024-10-07 04:45:00","11.6444","3.49942","26.238","1.943","7.54","0.313","4.486","0.05","0.26","30.4412","4.77483","21.66","0","SATNPRO1962","26.424","0.37012","5"],
    [35993,"HCEP03730560","2024-10-07 05:00:00","11.6437","3.49932","26.422","1.913","7.53","0.278","4.204","0.02","0.12","30.4408","4.77479","21.34","0","SATNPRO1962","26.286","0.36816","5"],
    [35994,"HCEP03730560","2024-10-07 05:15:00","11.6442","3.49929","26.606","1.905","7.53","0.291","4.14","0.03","0.08","30.44","4.77469","21.24","0","SATNPRO1962","26.42","0.37006","5"],
    [35995,"HCEP03730560","2024-10-07 05:30:00","11.6432","3.49923","26.797","1.926","7.53","0.356","4.046","0.12","0.09","30.4402","4.77473","21.47","0","SATNPRO1962","26.81","0.3755","5"],
    [35996,"HCEP03730560","2024-10-07 05:45:00","11.6417","3.49916","26.986","1.907","7.53","0.336","4.569","0.06","0.18","30.4407","4.77484","21.26","0","SATNPRO1962","26.052","0.3649","5"],
    [35997,"HCEP03730560","2024-10-07 06:00:00","11.6484","3.50016","27.129","1.908","7.53","0.336","5.479","0.04","0.51","30.4447","4.77532","21.28","0","SATNPRO1962","26.274","0.36804","5"],
    [35998,"HCEP03730560","2024-10-07 06:15:00","11.6524","3.50074","27.268","1.959","7.54","0.343","4.764","0.03","0.31","30.447","4.7756","21.85","0","SATNPRO1962","26.454","0.37056","5"],
    [35999,"HCEP03730560","2024-10-07 06:30:00","11.6553","3.50114","27.36","1.997","7.54","0.323","5.162","0.03","0.33","30.4485","4.77576","22.28","0","SATNPRO1962","26.62","0.37288","5"],
    [36000,"HCEP03730560","2024-10-07 06:45:00","11.6589","3.5016","27.437","2.045","7.55","0.337","4.683","0.04","0.6","30.4499","4.77591","22.81","0","SATNPRO1962","26.823999999999998","0.37572","5"],
    [36001,"HCEP03730560","2024-10-07 07:00:00","11.6586","3.50164","27.529","2.072","7.55","0.337","4.953","0.04","0.25","30.4505","4.77601","23.12","0","SATNPRO1962","26.716","0.3742","5"],
    [36002,"HCEP03730560","2024-10-07 07:15:00","11.6764","3.50315","27.542","2.216","7.56","0.346","3.297","0.07","0.26","30.4505","4.77576","24.74","0","SATNPRO1962","28.532","0.39964","5"],
    [36003,"HCEP03730560","2024-10-07 07:30:00","11.6639","3.50229","27.523","2.381","7.56","0.312","4.266","0.04","0.23","30.4524","4.77621","26.57","0","SATNPRO1962","28.238","0.39554","5"],
    [36004,"HCEP03730560","2024-10-07 07:45:00","11.6632","3.50228","27.499","2.203","7.56","0.375","4.322","0.09","0.29","30.4529","4.77629","24.58","0","SATNPRO1962","26.88","0.37652","5"],
    [36005,"HCEP03730560","2024-10-07 08:00:00","11.6631","3.50234","27.502","2.123","7.55","0.337","4.36","0.06","0.27","30.4536","4.77638","23.69","0","SATNPRO1962","26.992","0.37808","5"],
    [36006,"HCEP03730560","2024-10-07 08:15:00","11.6624","3.50225","27.455","2.077","7.55","0.403","4.881","0.16","0.32","30.4534","4.77636","23.17","0","SATNPRO1962","26.632","0.373","5"],
    [36007,"HCEP03730560","2024-10-07 08:30:00","11.6622","3.50223","27.47","2.054","7.55","0.341","4.315","0.04","0.22","30.4533","4.77635","22.92","0","SATNPRO1962","26.986","0.37802","5"],
    [36008,"HCEP03730560","2024-10-07 08:45:00","11.663","3.50233","27.464","2.052","7.55","0.381","4.588","0.05","0.4","30.4536","4.77638","22.89","0","SATNPRO1962","26.946","0.37744","5"],
    [36009,"HCEP03730560","2024-10-07 09:00:00","11.6623","3.50213","27.452","2.057","7.55","0.354","4.423","0.05","0.29","30.4522","4.77619","22.94","0","SATNPRO1962","26.881999999999998","0.37654","5"],
    [36010,"HCEP03730560","2024-10-07 09:15:00","11.662","3.50196","27.387","2.073","7.55","0.386","4.351","0.16","0.24","30.4509","4.77601","23.13","0","SATNPRO1962","26.776","0.37504","5"],
    [36011,"HCEP03730560","2024-10-07 09:30:00","11.6626","3.50195","27.268","2.094","7.55","0.311","4.059","0.04","0.26","30.4504","4.77593","23.36","0","SATNPRO1962","27.508","0.38528","5"],
    [36012,"HCEP03730560","2024-10-07 09:45:00","11.6623","3.50179","27.211","2.124","7.55","0.339","3.984","0.06","0.36","30.449","4.77573","23.69","0","SATNPRO1962","27.368","0.38336","5"],
    [36013,"HCEP03730560","2024-10-07 10:00:00","11.6615","3.5017","27.152","2.131","7.55","0.308","3.949","0.06","0.23","30.4488","4.77571","23.78","0","SATNPRO1962","27.182","0.3807","5"],
    [36014,"HCEP03730560","2024-10-07 10:15:00","11.6622","3.50182","27.091","2.13","7.55","0.333","3.938","0.06","0.16","30.4494","4.77579","23.76","0","SATNPRO1962","27.142","0.38014","5"],
    [36015,"HCEP03730560","2024-10-07 10:30:00","11.6616","3.50175","27.026","2.128","7.55","0.387","3.971","0.35","0.23","30.4493","4.77576","23.74","0","SATNPRO1962","27.152","0.38028","5"],
    [36016,"HCEP03730560","2024-10-07 10:45:00","11.6628","3.50188","26.949","2.129","7.55","0.342","3.728","0.1","0.19","30.4497","4.7758","23.76","0","SATNPRO1962","27.14","0.38016","5"],
    [36017,"HCEP03730560","2024-10-07 11:00:00","11.6632","3.50209","26.879","2.123","7.55","0.315","3.983","0.04","0.17","30.4514","4.77603","23.69","0","SATNPRO1962","26.77","0.37494","5"],
    [36018,"HCEP03730560","2024-10-07 11:15:00","11.6633","3.50225","26.799","2.071","7.55","0.344","4.55","0.03","0.3","30.4529","4.77624","23.11","0","SATNPRO1962","26.512","0.37136","5"],
    [36019,"HCEP03730560","2024-10-07 11:30:00","11.6645","3.50237","26.717","2.046","7.55","0.377","4.555","0.07","0.35","30.453","4.77623","22.83","0","SATNPRO1962","26.698","0.37398","5"],
    [36020,"HCEP03730560","2024-10-07 11:45:00","11.6639","3.50239","26.63","2.05","7.55","0.363","4.767","0.04","0.57","30.4537","4.77634","22.88","0","SATNPRO1962","26.618","0.37282","5"],
    [36021,"HCEP03730560","2024-10-07 12:00:00","11.6626","3.50214","26.556","2.024","7.55","0.34","4.581","0.07","0.2","30.4524","4.77617","22.58","0","SATNPRO1962","26.468","0.37076","5"],
    [36022,"HCEP03730560","2024-10-07 12:15:00","11.6604","3.5017","26.478","2.003","7.55","0.339","4.405","0.03","0.24","30.45","4.77585","22.34","0","SATNPRO1962","26.355999999999998","0.36916","5"],
    [36023,"HCEP03730560","2024-10-07 12:30:00","11.6584","3.50146","26.418","1.986","7.54","0.328","4.664","0.03","0.51","30.4494","4.77579","22.15","0","SATNPRO1962","26.284","0.36816","5"],
    [36024,"HCEP03730560","2024-10-07 12:45:00","11.6571","3.50124","26.371","1.957","7.54","0.333","4.436","0.03","0.18","30.4484","4.77567","21.83","0","SATNPRO1962","26.31","0.36852","5"],
    [36025,"HCEP03730560","2024-10-07 13:00:00","11.6557","3.50113","26.351","1.928","7.54","0.358","5.074","0.04","0.83","30.4484","4.77569","21.51","0","SATNPRO1962","26.282","0.36814","5"],
    [36026,"HCEP03730560","2024-10-07 13:15:00","11.6564","3.50124","26.326","1.914","7.54","0.341","4.318","0.04","0.11","30.4489","4.77576","21.35","0","SATNPRO1962","26.114","0.36578","5"],
    [36027,"HCEP03730560","2024-10-07 13:30:00","11.6553","3.50107","26.32","1.901","7.54","0.323","4.291","0.1","0.24","30.4482","4.77566","21.2","0","SATNPRO1962","26.174","0.3666","5"],
    [36028,"HCEP03730560","2024-10-07 13:45:00","11.6558","3.50114","26.344","1.89","7.54","0.317","4.239","0.03","0.28","30.4485","4.7757","21.08","0","SATNPRO1962","25.992","0.3641","5"],
    [36029,"HCEP03730560","2024-10-07 14:00:00","11.6555","3.5012","26.37","1.874","7.54","0.303","4.315","0.03","0.23","30.4493","4.77582","20.91","0","SATNPRO1962","25.97","0.36378","5"],
    [36030,"HCEP03730560","2024-10-07 14:15:00","11.6547","3.50109","26.401","1.847","7.53","0.341","4.174","0.07","0.19","30.4488","4.77576","20.61","0","SATNPRO1962","25.892","0.36262","5"],
    [36031,"HCEP03730560","2024-10-07 14:30:00","11.6555","3.50129","26.452","1.847","7.53","0.323","4.366","0.04","0.24","30.4501","4.77594","20.61","0","SATNPRO1962","25.992","0.36406","5"],
    [36032,"HCEP03730560","2024-10-07 14:45:00","11.6545","3.50102","26.534","1.852","7.53","0.317","3.919","0.03","0.13","30.4483","4.77571","20.66","0","SATNPRO1962","26.078","0.36524","5"],
    [36033,"HCEP03730560","2024-10-07 15:00:00","11.6563","3.50144","26.64","1.855","7.53","0.293","3.919","0.03","0.12","30.4508","4.77604","20.69","0","SATNPRO1962","25.86","0.36222","5"],
    [36034,"HCEP03730560","2024-10-07 15:15:00","11.6612","3.50227","26.787","1.849","7.53","0.362","4.549","0.07","0.25","30.4547","4.77653","20.63","0","SATNPRO1962","25.54","0.35772","5"],
    [36035,"HCEP03730560","2024-10-07 15:30:00","11.6593","3.50208","26.833","1.835","7.53","0.341","4.866","0.05","0.45","30.4545","4.77652","20.48","0","SATNPRO1962","25.594","0.35846","5"],
    [36036,"HCEP03730560","2024-10-07 15:45:00","11.6589","3.50203","26.909","1.825","7.53","0.506","5.261","0.47","0.24","30.4543","4.77652","20.36","0","SATNPRO1962","25.701999999999998","0.35998","5"],
    [36037,"HCEP03730560","2024-10-07 16:00:00","11.6601","3.50209","26.954","1.825","7.53","0.358","4.879","0.06","0.19","30.4539","4.77644","20.36","0","SATNPRO1962","25.744","0.3606","5"],
    [36038,"HCEP03730560","2024-10-07 16:15:00","11.6639","3.50283","27.05","1.83","7.53","0.357","4.856","0.03","0.17","30.4578","4.77694","20.42","0","SATNPRO1962","25.64","0.35914","5"],
    [36039,"HCEP03730560","2024-10-07 16:30:00","11.6652","3.50305","27.12","1.828","7.53","0.354","4.992","0.03","0.19","30.4588","4.77707","20.4","0","SATNPRO1962","25.662","0.35942","5"],
    [36040,"HCEP03730560","2024-10-07 16:45:00","11.666","3.50319","27.178","1.829","7.53","0.395","5.692","0.06","0.3","30.4595","4.77716","20.41","0","SATNPRO1962","25.726","0.36032","5"],
    [36041,"HCEP03730560","2024-10-07 17:00:00","11.6669","3.50327","27.236","1.84","7.53","0.338","4.689","0.03","0.12","30.4595","4.77715","20.53","0","SATNPRO1962","25.766","0.36086","5"],
    [36042,"HCEP03730560","2024-10-07 17:15:00","11.668","3.50345","27.291","1.861","7.53","0.375","5.322","0.04","0.22","30.4604","4.77727","20.77","0","SATNPRO1962","26.008","0.3643","5"],
    [36043,"HCEP03730560","2024-10-07 17:30:00","11.6697","3.50376","27.307","1.88","7.53","0.314","4.851","0.02","0.2","30.4619","4.77746","20.98","0","SATNPRO1962","26.134","0.36606","5"],
    [36044,"HCEP03730560","2024-10-07 17:45:00","11.6712","3.504","27.336","1.9","7.54","0.352","5.266","0.07","0.15","30.463","4.77759","21.2","0","SATNPRO1962","26.02","0.36446","5"],
    [36045,"HCEP03730560","2024-10-07 18:00:00","11.6712","3.50411","27.342","1.901","7.54","0.341","4.931","0.05","0.19","30.4641","4.77775","21.22","0","SATNPRO1962","26.236","0.36746","5"],
    [36046,"HCEP03730560","2024-10-07 18:15:00","11.6717","3.50419","27.37","1.897","7.54","0.39","5.062","0.08","0.29","30.4644","4.77778","21.17","0","SATNPRO1962","26.146","0.3662","5"],
    [36047,"HCEP03730560","2024-10-07 18:30:00","11.6716","3.50417","27.363","1.901","7.54","0.345","5.047","0.03","0.25","30.4644","4.77777","21.21","0","SATNPRO1962","26.1","0.3656","5"],
    [36048,"HCEP03730560","2024-10-07 18:45:00","11.6711","3.50406","27.227","1.912","7.54","0.385","5.012","0.06","0.31","30.4637","4.77768","21.34","0","SATNPRO1962","26.338","0.36892","5"],
    [36049,"HCEP03730560","2024-10-07 19:00:00","11.6702","3.50392","27.208","1.918","7.54","0.37","5.742","0.06","0.32","30.4631","4.7776","21.4","0","SATNPRO1962","26.126","0.36594","5"],
    [36050,"HCEP03730560","2024-10-07 19:15:00","11.6695","3.50376","27.183","1.91","7.54","0.387","5.469","0.05","0.22","30.4622","4.77748","21.32","0","SATNPRO1962","26.204","0.36704","5"],
    [36051,"HCEP03730560","2024-10-07 19:30:00","11.6692","3.50365","27.141","1.913","7.54","0.352","5.247","0.06","0.27","30.4614","4.77737","21.35","0","SATNPRO1962","26.104","0.36568","5"],
    [36052,"HCEP03730560","2024-10-07 19:45:00","11.6683","3.5035","27.092","1.915","7.54","0.364","5","0.08","0.23","30.4606","4.77728","21.37","0","SATNPRO1962","26.304","0.36842","5"],
    [36053,"HCEP03730560","2024-10-07 20:00:00","11.6691","3.5036","27.024","1.934","7.54","0.327","5.043","0.04","0.65","30.461","4.77732","21.58","0","SATNPRO1962","26.738","0.37452","5"],
    [36054,"HCEP03730560","2024-10-07 20:15:00","11.6693","3.50355","26.942","1.959","7.54","0.733","23.532","0.61","24.79","30.4604","4.77723","21.86","0","SATNPRO1962","26.496","0.37114","5"],
    [36055,"HCEP03730560","2024-10-07 20:30:00","11.6682","3.50345","26.835","1.959","7.54","0.364","5.127","0.09","0.22","30.4604","4.77724","21.86","0","SATNPRO1962","26.676","0.37364","5"],
    [36056,"HCEP03730560","2024-10-07 20:45:00","11.6693","3.5036","26.713","1.962","7.54","0.357","4.994","0.04","0.2","30.4609","4.77729","21.89","0","SATNPRO1962","26.502","0.37122","5"],
    [36057,"HCEP03730560","2024-10-07 21:00:00","11.6709","3.50371","26.584","1.999","7.54","0.321","4.442","0.05","0.2","30.4608","4.77723","22.31","0","SATNPRO1962","27.172","0.3806","5"],
    [36058,"HCEP03730560","2024-10-07 21:15:00","11.6729","3.50282","26.432","2.136","7.55","0.331","2.661","0.07","0.1","30.4507","4.77577","23.84","0","SATNPRO1962","28.506","0.39928","5"],
    [36059,"HCEP03730560","2024-10-07 21:30:00","11.6713","3.50371","26.27","2.216","7.56","0.316","3.998","0.04","0.13","30.4605","4.77718","24.73","0","SATNPRO1962","27.196","0.38092","5"],
    [36060,"HCEP03730560","2024-10-07 21:45:00","11.6693","3.50376","26.109","2.083","7.55","0.341","4.585","0.04","0.28","30.4627","4.77751","23.24","0","SATNPRO1962","26.818","0.37564","5"],
    [36061,"HCEP03730560","2024-10-07 22:00:00","11.6711","3.50386","25.94","2.026","7.55","0.262","3.749","0.02","0.14","30.4624","4.77742","22.61","0","SATNPRO1962","26.742","0.37454","5"],
    [36062,"HCEP03730560","2024-10-07 22:15:00","11.674","3.504","25.753","2.079","7.55","0.263","2.996","0.03","0.22","30.4614","4.77723","23.2","0","SATNPRO1962","28.022","0.3925","5"],
    [36063,"HCEP03730560","2024-10-07 22:30:00","11.6755","3.50319","25.572","2.191","7.56","0.28","2.879","0.1","0.17","30.4523","4.77592","24.45","0","SATNPRO1962","28.594","0.4005","5"],
    [36064,"HCEP03730560","2024-10-07 22:45:00","11.6744","3.50329","25.38","2.272","7.56","0.27","2.649","0.04","0.15","30.4543","4.77621","25.36","0","SATNPRO1962","28.336","0.39692","5"],
    [36065,"HCEP03730560","2024-10-07 23:00:00","11.6745","3.5032","25.209","2.308","7.56","0.246","2.595","0.03","0.04","30.4534","4.77606","25.75","0","SATNPRO1962","28.336","0.39688","5"],
    [36066,"HCEP03730560","2024-10-07 23:15:00","11.6744","3.50364","25.032","2.31","7.57","0.33","2.832","0.08","0.06","30.4578","4.77668","25.78","0","SATNPRO1962","27.768","0.38894","5"],
    [36067,"HCEP03730560","2024-10-07 23:30:00","11.6741","3.50341","24.876","2.274","7.57","0.272","2.918","0.03","0.1","30.4559","4.77641","25.37","0","SATNPRO1962","28.144","0.39418","5"],
    [36068,"HCEP03730560","2024-10-07 23:45:00","11.6712","3.50309","24.725","2.25","7.56","0.3","2.866","0.04","0.03","30.4552","4.77635","25.11","0","SATNPRO1962","27.376","0.38344","5"],
    [36069,"HCEP03730560","2024-10-08 00:00:00","11.6716","3.50292","24.58","2.225","7.56","0.291","2.875","0.09","0.12","30.4534","4.77607","24.83","0","SATNPRO1962","26.808","0.37552","5"],
    [36070,"HCEP03730560","2024-10-08 00:15:00","11.671","3.50303","24.483","2.213","7.56","0.312","3.692","0.09","0.12","30.455","4.77629","24.69","0","SATNPRO1962","27.233999999999998","0.38144","5"],
    [36071,"HCEP03730560","2024-10-08 00:30:00","11.67","3.50293","24.448","2.216","7.56","0.234","3.054","0.02","0.11","30.4548","4.77629","24.73","0","SATNPRO1962","28.276","0.39604","5"],
    [36072,"HCEP03730560","2024-10-08 00:45:00","11.6702","3.50262","24.389","2.216","7.56","0.336","2.813","0.16","0.06","30.4517","4.77584","24.73","0","SATNPRO1962","28.322","0.39666","5"],
    [36073,"HCEP03730560","2024-10-08 01:00:00","11.6675","3.50188","24.367","2.284","7.57","0.221","2.304","0.01","0.03","30.4468","4.77518","25.49","0","SATNPRO1962","28.532","0.39966","5"],
    [36074,"HCEP03730560","2024-10-08 01:15:00","11.6678","3.50189","24.345","2.321","7.57","0.288","2.559","0.03","0.03","30.4467","4.77516","25.9","0","SATNPRO1962","28.522","0.39948","5"],
    [36075,"HCEP03730560","2024-10-08 01:30:00","11.6688","3.5021","24.359","2.34","7.57","0.252","2.493","0.03","0.07","30.4479","4.77532","26.11","0","SATNPRO1962","28.642","0.4012","5"],
    [36076,"HCEP03730560","2024-10-08 01:45:00","11.6703","3.5025","24.369","2.337","7.57","0.288","2.579","0.05","0.06","30.4505","4.77567","26.07","0","SATNPRO1962","28.516","0.39942","5"],
    [36077,"HCEP03730560","2024-10-08 02:00:00","11.6712","3.50259","24.386","2.327","7.57","0.31","2.923","0.13","0.27","30.4505","4.77566","25.97","0","SATNPRO1962","28.424","0.39814","5"],
    [36078,"HCEP03730560","2024-10-08 02:15:00","11.6707","3.50242","24.435","2.333","7.57","0.419","2.958","0.17","0.27","30.4494","4.7755","26.04","0","SATNPRO1962","28.614","0.40078","5"],
    [36079,"HCEP03730560","2024-10-08 02:30:00","11.6622","3.50189","24.529","2.235","7.56","0.436","4.367","0.5","0.27","30.4512","4.77589","24.94","0","SATNPRO1962","26.752","0.3747","5"],
    [36080,"HCEP03730560","2024-10-08 02:45:00","11.6616","3.50177","24.612","2.055","7.55","0.357","4.262","0.1","0.17","30.4505","4.7758","22.93","0","SATNPRO1962","26.9","0.3768","5"],
    [36081,"HCEP03730560","2024-10-08 03:00:00","11.6594","3.50155","24.718","2.001","7.55","0.295","4.267","0.03","0.11","30.4501","4.77578","22.32","0","SATNPRO1962","26.876","0.37646","5"],
    [36082,"HCEP03730560","2024-10-08 03:15:00","11.661","3.50177","24.841","1.965","7.55","0.351","3.851","0.09","0.15","30.4508","4.77588","21.92","0","SATNPRO1962","26.826","0.37578","5"],
    [36083,"HCEP03730560","2024-10-08 03:30:00","11.6612","3.50192","24.967","1.975","7.55","0.401","4.155","0.26","0.22","30.4521","4.77606","22.04","0","SATNPRO1962","26.951999999999998","0.37746","5"],
    [36084,"HCEP03730560","2024-10-08 03:45:00","11.6623","3.50224","25.108","1.949","7.54","0.527","4.103","0.53","0.23","30.4542","4.77635","21.74","0","SATNPRO1962","26.678","0.37366","5"],
    [36085,"HCEP03730560","2024-10-08 04:00:00","11.6612","3.50222","25.269","1.928","7.54","0.29","4.281","0.04","0.15","30.4548","4.77646","21.51","0","SATNPRO1962","26.256","0.3678","5"],
    [36086,"HCEP03730560","2024-10-08 04:15:00","11.6597","3.50205","25.42","1.879","7.54","0.332","4.26","0.05","0.18","30.4544","4.77644","20.96","0","SATNPRO1962","26.264","0.36786","5"],
    [36087,"HCEP03730560","2024-10-08 04:30:00","11.6572","3.50177","25.595","1.831","7.53","0.308","4.445","0.06","0.23","30.4536","4.77637","20.43","0","SATNPRO1962","26.052","0.36488","5"],
    [36088,"HCEP03730560","2024-10-08 04:45:00","11.6574","3.50178","25.76","1.798","7.53","0.449","4.625","0.41","0.22","30.4536","4.77636","20.05","0","SATNPRO1962","25.990000000000002","0.364","5"],
    [36089,"HCEP03730560","2024-10-08 05:00:00","11.6544","3.50131","25.939","1.756","7.53","0.354","4.86","0.12","0.23","30.4514","4.77612","19.59","0","SATNPRO1962","25.444","0.35638","5"],
    [36090,"HCEP03730560","2024-10-08 05:15:00","11.6515","3.5008","26.095","1.704","7.52","0.345","4.912","0.02","0.29","30.4488","4.7758","19.01","0","SATNPRO1962","25.418","0.35598","5"],
    [36091,"HCEP03730560","2024-10-08 05:30:00","11.6464","3.49989","26.178","1.67","7.52","0.348","4.637","0.08","0.22","30.4442","4.77522","18.62","0","SATNPRO1962","25.104","0.35164","5"],
    [36092,"HCEP03730560","2024-10-08 05:45:00","11.6395","3.49883","26.347","1.619","7.51","0.33","4.487","0.02","0.14","30.4395","4.77466","18.05","0","SATNPRO1962","24.99","0.35004","5"],
    [36093,"HCEP03730560","2024-10-08 06:00:00","11.6342","3.49808","26.536","1.568","7.51","0.359","4.549","0.1","0.22","30.4366","4.77434","17.48","0","SATNPRO1962","24.47","0.34272","5"],
    [36094,"HCEP03730560","2024-10-08 06:15:00","11.6307","3.49765","26.723","1.521","7.51","0.363","4.59","0.07","0.53","30.4352","4.77421","16.95","0","SATNPRO1962","24.768","0.34694","5"],
    [36095,"HCEP03730560","2024-10-08 06:30:00","11.6324","3.49794","26.873","1.519","7.5","0.32","3.98","0.06","0.28","30.4366","4.77439","16.94","0","SATNPRO1962","24.79","0.34726","5"],
    [36096,"HCEP03730560","2024-10-08 06:45:00","11.6371","3.4986","26.924","1.527","7.5","0.362","5.009","0.05","0.44","30.439","4.77466","17.03","0","SATNPRO1962","24.822","0.34768","5"],
    [36097,"HCEP03730560","2024-10-08 07:00:00","11.6402","3.49906","27.035","1.544","7.5","0.366","5.336","0.03","0.24","30.4409","4.77489","17.21","0","SATNPRO1962","25.022","0.35044","5"],
    [36098,"HCEP03730560","2024-10-08 07:15:00","11.6427","3.49939","27.138","1.571","7.51","0.387","5.019","0.04","0.29","30.442","4.77502","17.52","0","SATNPRO1962","24.982","0.34994","5"],
    [36099,"HCEP03730560","2024-10-08 07:30:00","11.6418","3.49928","27.224","1.6","7.51","0.305","3.999","0.04","0.18","30.4416","4.77498","17.84","0","SATNPRO1962","25.44","0.35634","5"],
    [36100,"HCEP03730560","2024-10-08 07:45:00","11.6458","3.49984","27.296","1.621","7.51","0.359","4.5","0.04","0.37","30.4438","4.77523","18.08","0","SATNPRO1962","25.176000000000002","0.35264","5"],
    [36101,"HCEP03730560","2024-10-08 08:00:00","11.6474","3.49996","27.379","1.636","7.51","0.352","4.687","0.03","0.28","30.4435","4.77518","18.25","0","SATNPRO1962","25.291999999999998","0.35428","5"],
    [36102,"HCEP03730560","2024-10-08 08:15:00","11.6466","3.49975","27.349","1.665","7.51","0.5","4.289","0.4","0.23","30.4421","4.77499","18.57","0","SATNPRO1962","25.488","0.35702","5"],
    [36103,"HCEP03730560","2024-10-08 08:30:00","11.6479","3.49983","27.463","1.695","7.51","0.357","4.392","0.04","0.25","30.4418","4.77494","18.9","0","SATNPRO1962","25.472","0.35678","5"],
    [36104,"HCEP03730560","2024-10-08 08:45:00","11.6469","3.49965","27.506","1.695","7.51","0.364","4.361","0.03","0.25","30.4409","4.77483","18.91","0","SATNPRO1962","25.512","0.35734","5"],
    [36105,"HCEP03730560","2024-10-08 09:00:00","11.6477","3.49983","27.493","1.684","7.51","0.382","4.802","0.04","0.21","30.442","4.77496","18.78","0","SATNPRO1962","25.6","0.35856","5"],
    [36106,"HCEP03730560","2024-10-08 09:15:00","11.645","3.49924","27.44","1.679","7.51","0.354","4.243","0.03","0.18","30.4386","4.77451","18.73","0","SATNPRO1962","25.588","0.35842","5"],
    [36107,"HCEP03730560","2024-10-08 09:30:00","11.6462","3.4993","27.403","1.711","7.52","0.337","3.903","0.06","0.24","30.4382","4.77444","19.08","0","SATNPRO1962","25.806","0.36144","5"],
    [36108,"HCEP03730560","2024-10-08 09:45:00","11.651","3.49967","27.38","1.79","7.52","0.352","3.466","0.04","0.2","30.4377","4.77431","19.96","0","SATNPRO1962","26.46","0.37064","5"],
    [36109,"HCEP03730560","2024-10-08 10:00:00","11.6676","3.50114","27.361","2.016","7.54","0.295","2.311","0.06","0.11","30.4384","4.77416","22.49","0","SATNPRO1962","28.802","0.40342","5"],
    [36110,"HCEP03730560","2024-10-08 10:15:00","11.6564","3.5004","27.312","2.192","7.54","0.355","3.758","0.04","0.19","30.4405","4.77462","24.45","0","SATNPRO1962","26.862","0.37626","5"],
    [36111,"HCEP03730560","2024-10-08 10:30:00","11.6556","3.50081","27.298","1.952","7.53","0.395","5.061","0.04","0.18","30.4451","4.77528","21.78","0","SATNPRO1962","26.419999999999998","0.37008","5"],
    [36112,"HCEP03730560","2024-10-08 10:45:00","11.6546","3.50023","27.253","1.861","7.53","0.382","3.856","0.06","0.12","30.4403","4.77462","20.76","0","SATNPRO1962","26.716","0.37418","5"],
    [36113,"HCEP03730560","2024-10-08 11:00:00","11.6537","3.49999","27.183","1.89","7.53","0.349","4.207","0.03","0.13","30.4387","4.77439","21.08","0","SATNPRO1962","26.528","0.37156","5"],
    [36114,"HCEP03730560","2024-10-08 11:15:00","11.655","3.50058","27.174","1.87","7.53","0.401","4.745","0.04","0.16","30.4434","4.77504","20.86","0","SATNPRO1962","26.04","0.36472","5"],
    [36115,"HCEP03730560","2024-10-08 11:30:00","11.6544","3.50027","27.08","1.824","7.53","0.392","4.629","0.05","0.21","30.4409","4.77469","20.34","0","SATNPRO1962","26.356","0.36916","5"],
    [36116,"HCEP03730560","2024-10-08 11:45:00","11.6576","3.50104","26.971","1.842","7.53","0.411","4.702","0.03","0.23","30.4458","4.77533","20.54","0","SATNPRO1962","26.196","0.36692","5"],
    [36117,"HCEP03730560","2024-10-08 12:00:00","11.6604","3.50152","26.912","1.837","7.53","0.385","4.774","0.04","0.25","30.4482","4.77562","20.49","0","SATNPRO1962","26.524","0.37152","5"],
    [36118,"HCEP03730560","2024-10-08 12:15:00","11.6629","3.50197","26.873","1.879","7.53","0.423","4.744","0.04","0.13","30.4505","4.77591","20.96","0","SATNPRO1962","26.726","0.37436","5"],
    [36119,"HCEP03730560","2024-10-08 12:30:00","11.663","3.50215","26.799","1.915","7.53","0.442","4.797","0.11","0.2","30.4522","4.77614","21.37","0","SATNPRO1962","26.698","0.37398","5"],
    [36120,"HCEP03730560","2024-10-08 12:45:00","11.6644","3.50265","26.729","1.89","7.53","0.421","4.948","0.04","0.21","30.4558","4.77663","21.09","0","SATNPRO1962","26.468","0.37076","5"],
    [36121,"HCEP03730560","2024-10-08 13:00:00","11.6659","3.50308","26.674","1.866","7.53","0.399","4.849","0.08","0.26","30.4588","4.77704","20.82","0","SATNPRO1962","26.628","0.37298","5"],
    [36122,"HCEP03730560","2024-10-08 13:15:00","11.6659","3.50302","26.637","1.847","7.53","0.392","4.682","0.05","0.29","30.4583","4.77695","20.61","0","SATNPRO1962","26.488","0.37098","5"],
    [36123,"HCEP03730560","2024-10-08 13:30:00","11.6654","3.50278","26.569","1.846","7.53","0.345","4.466","0.04","0.29","30.4563","4.77668","20.6","0","SATNPRO1962","26.37","0.36938","5"],
    [36124,"HCEP03730560","2024-10-08 13:45:00","11.6665","3.50296","26.537","1.843","7.53","0.402","5.007","0.06","0.47","30.4572","4.77678","20.56","0","SATNPRO1962","25.992","0.36406","5"],
    [36125,"HCEP03730560","2024-10-08 14:00:00","11.6659","3.50272","26.54","1.813","7.53","0.347","4.712","0.04","0.29","30.4553","4.77653","20.23","0","SATNPRO1962","25.976","0.36386","5"],
    [36126,"HCEP03730560","2024-10-08 14:15:00","11.6638","3.50232","26.53","1.788","7.53","0.403","5.252","0.08","0.45","30.4533","4.77627","19.94","0","SATNPRO1962","25.892","0.36266","5"],
    [36127,"HCEP03730560","2024-10-08 14:30:00","11.6607","3.50181","26.544","1.756","7.53","0.367","5.182","0.07","0.51","30.4509","4.77598","19.59","0","SATNPRO1962","25.674","0.35964","5"],
    [36128,"HCEP03730560","2024-10-08 14:45:00","11.6579","3.50134","26.553","1.727","7.52","0.355","4.62","0.05","0.29","30.4486","4.7757","19.27","0","SATNPRO1962","25.56","0.35802","5"],
    [36129,"HCEP03730560","2024-10-08 15:00:00","11.6539","3.50071","26.583","1.696","7.52","0.339","4.513","0.08","0.34","30.4457","4.77535","18.92","0","SATNPRO1962","25.369999999999997","0.35532","5"],
    [36130,"HCEP03730560","2024-10-08 15:15:00","11.65","3.5001","26.624","1.656","7.52","0.356","4.602","0.04","0.46","30.443","4.77503","18.47","0","SATNPRO1962","25.244","0.35358","5"],
    [36131,"HCEP03730560","2024-10-08 15:30:00","11.6485","3.49997","26.757","1.614","7.51","0.325","4.578","0.04","0.22","30.443","4.77505","18","0","SATNPRO1962","25.102","0.35158","5"],
    [36132,"HCEP03730560","2024-10-08 15:45:00","11.6421","3.49892","26.795","1.572","7.51","0.316","4.144","0.04","0.2","30.4381","4.77446","17.52","0","SATNPRO1962","24.916","0.34896","5"],
    [36133,"HCEP03730560","2024-10-08 16:00:00","11.6428","3.49906","26.849","1.542","7.51","0.285","3.799","0.03","0.12","30.4388","4.77455","17.2","0","SATNPRO1962","24.736","0.3465","5"],
    [36134,"HCEP03730560","2024-10-08 16:15:00","11.6409","3.49873","26.914","1.522","7.5","0.306","4.16","0.02","0.23","30.4372","4.77435","16.97","0","SATNPRO1962","24.758","0.3468","5"],
    [36135,"HCEP03730560","2024-10-08 16:30:00","11.6426","3.49902","26.982","1.514","7.5","0.355","4.476","0.2","0.32","30.4386","4.77453","16.88","0","SATNPRO1962","24.89","0.34862","5"],
    [36136,"HCEP03730560","2024-10-08 16:45:00","11.6429","3.49912","26.995","1.508","7.5","0.345","4.324","0.08","0.2","30.4393","4.77463","16.82","0","SATNPRO1962","24.656","0.34536","5"],
    [36137,"HCEP03730560","2024-10-08 17:00:00","11.6466","3.49974","27.059","1.508","7.5","0.323","4.687","0.03","0.34","30.4422","4.77499","16.82","0","SATNPRO1962","24.786","0.34718","5"],
    [36138,"HCEP03730560","2024-10-08 17:15:00","11.652","3.50068","27.091","1.519","7.5","0.376","5.144","0.06","0.24","30.4468","4.77556","16.94","0","SATNPRO1962","24.664","0.34546","5"],
    [36139,"HCEP03730560","2024-10-08 17:30:00","11.6486","3.50007","27.048","1.516","7.5","0.365","5.098","0.13","0.2","30.4438","4.77518","16.91","0","SATNPRO1962","24.524","0.3435","5"],
    [36140,"HCEP03730560","2024-10-08 17:45:00","11.6453","3.49948","27.114","1.49","7.5","0.335","4.813","0.02","0.35","30.4407","4.7748","16.62","0","SATNPRO1962","24.568","0.3441","5"],
    [36141,"HCEP03730560","2024-10-08 18:00:00","11.6464","3.49963","27.089","1.488","7.5","0.289","4.331","0.02","0.15","30.4413","4.77486","16.6","0","SATNPRO1962","24.704","0.34604","5"],
    [36142,"HCEP03730560","2024-10-08 18:15:00","11.6446","3.49935","27.107","1.499","7.5","0.316","4.171","0.03","0.13","30.44","4.77471","16.72","0","SATNPRO1962","24.674","0.34558","5"],
    [36143,"HCEP03730560","2024-10-08 18:30:00","11.6466","3.49976","27.169","1.517","7.5","0.301","4.217","0.02","0.12","30.4424","4.77502","16.91","0","SATNPRO1962","24.916","0.34898","5"],
    [36144,"HCEP03730560","2024-10-08 18:45:00","11.6463","3.49963","27.149","1.535","7.5","0.312","4.184","0.04","0.15","30.4414","4.77488","17.12","0","SATNPRO1962","24.912","0.34892","5"],
    [36145,"HCEP03730560","2024-10-08 19:00:00","11.6537","3.50101","27.189","1.543","7.5","0.277","4.275","0.02","0.15","30.4486","4.77579","17.21","0","SATNPRO1962","24.792","0.34728","5"],
    [36146,"HCEP03730560","2024-10-08 19:15:00","11.6585","3.50182","27.162","1.559","7.5","0.304","4.48","0.02","0.12","30.4525","4.77627","17.39","0","SATNPRO1962","24.919999999999998","0.34906","5"],
    [36147,"HCEP03730560","2024-10-08 19:30:00","11.6582","3.50168","27.124","1.587","7.51","0.281","3.75","0.05","0.09","30.4513","4.77611","17.71","0","SATNPRO1962","25.114","0.35176","5"],
    [36148,"HCEP03730560","2024-10-08 19:45:00","11.6639","3.50281","27.095","1.616","7.51","0.323","4.648","0.04","0.19","30.4576","4.77692","18.03","0","SATNPRO1962","25.099999999999998","0.3516","5"],
    [36149,"HCEP03730560","2024-10-08 20:00:00","11.6635","3.50253","27.071","1.639","7.51","0.282","4.124","0.04","0.26","30.4553","4.77659","18.28","0","SATNPRO1962","25.548","0.35788","5"],
    [36150,"HCEP03730560","2024-10-08 20:15:00","11.6656","3.50311","27.02","1.685","7.51","0.309","4.352","0.03","0.17","30.4592","4.77711","18.8","0","SATNPRO1962","25.696","0.3599","5"],
    [36151,"HCEP03730560","2024-10-08 20:30:00","11.6653","3.5031","26.963","1.677","7.51","0.329","4.887","0.04","0.56","30.4593","4.77713","18.71","0","SATNPRO1962","25.264","0.35384","5"],
    [36152,"HCEP03730560","2024-10-08 20:45:00","11.6653","3.50308","26.903","1.673","7.51","0.325","4.59","0.03","0.24","30.4592","4.77711","18.66","0","SATNPRO1962","25.61","0.35868","5"],
    [36153,"HCEP03730560","2024-10-08 21:00:00","11.6637","3.50281","26.815","1.687","7.52","0.317","4.771","0.04","0.55","30.4579","4.77694","18.82","0","SATNPRO1962","25.734","0.36044","5"],
    [36154,"HCEP03730560","2024-10-08 21:15:00","11.6626","3.50256","26.685","1.694","7.52","0.344","4.851","0.05","0.33","30.4564","4.77674","18.9","0","SATNPRO1962","25.99","0.36402","5"],
    [36155,"HCEP03730560","2024-10-08 21:30:00","11.6616","3.50205","26.571","1.726","7.52","0.3","4.301","0.05","0.11","30.4524","4.77618","19.25","0","SATNPRO1962","26.348","0.36906","5"],
    [36156,"HCEP03730560","2024-10-08 21:45:00","11.6601","3.50172","26.444","1.781","7.52","0.316","4.4","0.02","0.16","30.4505","4.77592","19.87","0","SATNPRO1962","26.233999999999998","0.36742","5"],
    [36157,"HCEP03730560","2024-10-08 22:00:00","11.659","3.50157","26.3","1.788","7.52","0.284","4.129","0.02","0.09","30.45","4.77587","19.95","0","SATNPRO1962","26.17","0.36654","5"],
    [36158,"HCEP03730560","2024-10-08 22:15:00","11.658","3.50136","26.157","1.774","7.52","0.335","4.135","0.06","0.09","30.4489","4.77571","19.79","0","SATNPRO1962","26.076","0.3652","5"],
    [36159,"HCEP03730560","2024-10-08 22:30:00","11.6568","3.50115","25.993","1.764","7.52","0.285","4.052","0.02","0.18","30.4479","4.77558","19.68","0","SATNPRO1962","26.195999999999998","0.36694","5"],
    [36160,"HCEP03730560","2024-10-08 22:45:00","11.6566","3.50111","25.83","1.76","7.52","0.328","4.479","0.04","0.21","30.4477","4.77555","19.63","0","SATNPRO1962","26.194","0.36688","5"],
    [36161,"HCEP03730560","2024-10-08 23:00:00","11.6547","3.50075","25.676","1.741","7.52","0.286","3.951","0.03","0.09","30.4458","4.7753","19.42","0","SATNPRO1962","26.042","0.36476","5"],
    [36162,"HCEP03730560","2024-10-08 23:15:00","11.6552","3.50082","25.508","1.735","7.52","0.331","4.241","0.06","0.14","30.4461","4.77533","19.35","0","SATNPRO1962","25.887999999999998","0.36256","5"],
    [36163,"HCEP03730560","2024-10-08 23:30:00","11.6553","3.50085","25.338","1.71","7.52","0.319","4.516","0.04","0.08","30.4464","4.77536","19.07","0","SATNPRO1962","25.714","0.36016","5"],
    [36164,"HCEP03730560","2024-10-08 23:45:00","11.6546","3.50075","25.176","1.698","7.52","0.334","4.519","0.03","0.06","30.4461","4.77532","18.94","0","SATNPRO1962","25.812","0.36156","5"],
    [36165,"HCEP03730560","2024-10-09 00:00:00","11.6551","3.50095","25.034","1.684","7.51","0.296","4.738","0.02","0.09","30.4476","4.77552","18.78","0","SATNPRO1962","25.544","0.3578","5"],
    [36166,"HCEP03730560","2024-10-09 00:15:00","11.6546","3.5008","24.89","1.661","7.51","0.32","4.652","0.02","0.13","30.4467","4.77539","18.53","0","SATNPRO1962","25.712","0.36016","5"],
    [36167,"HCEP03730560","2024-10-09 00:30:00","11.6538","3.50056","24.774","1.663","7.51","0.302","4.608","0.03","0.09","30.4451","4.77516","18.55","0","SATNPRO1962","25.626","0.35888","5"],
    [36168,"HCEP03730560","2024-10-09 00:45:00","11.6503","3.49978","24.665","1.66","7.51","0.318","4.602","0.03","0.14","30.4405","4.77456","18.51","0","SATNPRO1962","25.546","0.35778","5"],
    [36169,"HCEP03730560","2024-10-09 01:00:00","11.6474","3.49933","24.579","1.638","7.51","0.336","5.463","0.03","0.1","30.4386","4.77432","18.27","0","SATNPRO1962","25.22","0.35326","5"],
    [36170,"HCEP03730560","2024-10-09 01:15:00","11.6466","3.4992","24.5","1.593","7.51","0.35","5.777","0.02","0.19","30.438","4.77424","17.77","0","SATNPRO1962","25.04","0.35068","5"],
    [36171,"HCEP03730560","2024-10-09 01:30:00","11.6453","3.49887","24.439","1.576","7.51","0.305","5.195","0.03","0.17","30.4359","4.77397","17.57","0","SATNPRO1962","25.19","0.35282","5"],
    [36172,"HCEP03730560","2024-10-09 01:45:00","11.6454","3.49899","24.402","1.589","7.51","0.332","5.273","0.02","0.14","30.437","4.77411","17.72","0","SATNPRO1962","25.144","0.35218","5"],
    [36173,"HCEP03730560","2024-10-09 02:00:00","11.6458","3.49904","24.384","1.578","7.51","0.303","5.04","0.02","0.16","30.4371","4.77413","17.6","0","SATNPRO1962","25.128","0.35192","5"],
    [36174,"HCEP03730560","2024-10-09 02:15:00","11.6478","3.49946","24.388","1.585","7.51","0.328","4.891","0.02","0.12","30.4395","4.77444","17.68","0","SATNPRO1962","25.296","0.35432","5"],
    [36175,"HCEP03730560","2024-10-09 02:30:00","11.6474","3.49933","24.405","1.599","7.51","0.294","4.649","0.03","0.15","30.4387","4.77432","17.83","0","SATNPRO1962","25.298000000000002","0.35436","5"],
    [36176,"HCEP03730560","2024-10-09 02:45:00","11.646","3.49893","24.444","1.62","7.51","0.333","4.35","0.03","0.21","30.4359","4.77396","18.07","0","SATNPRO1962","25.518","0.35742","5"],
    [36177,"HCEP03730560","2024-10-09 03:00:00","11.6467","3.49907","24.493","1.669","7.51","0.293","4.421","0.02","0.12","30.4367","4.77406","18.61","0","SATNPRO1962","25.486","0.35696","5"],
    [36178,"HCEP03730560","2024-10-09 03:15:00","11.646","3.49902","24.513","1.636","7.51","0.335","4.39","0.04","0.11","30.4367","4.77407","18.24","0","SATNPRO1962","25.288","0.3542","5"],
    [36179,"HCEP03730560","2024-10-09 03:30:00","11.6453","3.49909","24.642","1.599","7.51","0.324","4.817","0.06","0.14","30.4379","4.77426","17.84","0","SATNPRO1962","25.118","0.35184","5"],
    [36180,"HCEP03730560","2024-10-09 03:45:00","11.6453","3.49908","24.697","1.575","7.51","0.33","5.002","0.02","0.1","30.4379","4.77426","17.56","0","SATNPRO1962","24.962","0.34964","5"],
    [36181,"HCEP03730560","2024-10-09 04:00:00","11.645","3.49904","24.814","1.559","7.51","0.309","4.678","0.03","0.26","30.4376","4.77424","17.39","0","SATNPRO1962","25.198","0.3529","5"],
    [36182,"HCEP03730560","2024-10-09 04:15:00","11.6414","3.49862","24.929","1.543","7.5","0.351","5.231","0.05","0.24","30.4365","4.77413","17.21","0","SATNPRO1962","24.65","0.3453","5"],
    [36183,"HCEP03730560","2024-10-09 04:30:00","11.6377","3.49819","25.023","1.437","7.5","0.332","5.237","0.03","0.17","30.4353","4.77403","16.02","0","SATNPRO1962","24.096","0.3375","5"],
    [36184,"HCEP03730560","2024-10-09 04:45:00","11.6347","3.49783","25.2","1.345","7.49","0.341","5.4","0.02","0.29","30.4343","4.77393","15","0","SATNPRO1962","23.492","0.32904","5"],
    [36185,"HCEP03730560","2024-10-09 05:00:00","11.631","3.49745","25.297","1.256","7.48","0.318","5.125","0.02","0.18","30.4336","4.7739","14","0","SATNPRO1962","23.099999999999998","0.32354","5"],
    [36186,"HCEP03730560","2024-10-09 05:15:00","11.6242","3.49659","25.439","1.156","7.48","0.345","5.252","0.06","0.65","30.4308","4.77361","12.88","0","SATNPRO1962","22.284","0.31214","5"],
    [36187,"HCEP03730560","2024-10-09 05:30:00","11.6138","3.49553","25.585","0.987","7.46","0.315","4.971","0.02","0.18","30.429","4.77352","10.99","0","SATNPRO1962","20.676000000000002","0.28958","5"],
    [36188,"HCEP03730560","2024-10-09 05:45:00","11.6062","3.49518","25.726","0.773","7.45","0.343","4.299","0.05","0.09","30.4318","4.77403","8.61","0","SATNPRO1962","20.078","0.2812","5"],
    [36189,"HCEP03730560","2024-10-09 06:00:00","11.6092","3.49573","25.916","0.664","7.44","0.319","4.183","0.06","0.1","30.4346","4.77439","7.4","0","SATNPRO1962","20.91","0.29294","5"],
    [36190,"HCEP03730560","2024-10-09 06:15:00","11.6165","3.49679","26.212","0.733","7.44","0.328","4.445","0.1","0.47","30.4387","4.77488","8.17","0","SATNPRO1962","22.292","0.31224","5"],
    [36191,"HCEP03730560","2024-10-09 06:30:00","11.6163","3.49647","26.34","0.881","7.44","0.264","3.852","0.01","0.09","30.4357","4.77447","9.82","0","SATNPRO1962","22.724","0.3183","5"],
    [36192,"HCEP03730560","2024-10-09 06:45:00","11.6137","3.49605","26.492","0.907","7.45","0.304","3.98","0.03","0.12","30.4338","4.77424","10.11","0","SATNPRO1962","22.422","0.3141","5"],
    [36193,"HCEP03730560","2024-10-09 07:00:00","11.6085","3.49542","26.549","0.831","7.44","0.302","4.14","0.03","0.19","30.432","4.77406","9.26","0","SATNPRO1962","21.064","0.29502","5"],
    [36194,"HCEP03730560","2024-10-09 07:15:00","11.607","3.49519","26.695","0.733","7.43","0.322","3.955","0.05","0.11","30.4309","4.77394","8.16","0","SATNPRO1962","21.18","0.29664","5"],
    [36195,"HCEP03730560","2024-10-09 07:30:00","11.6071","3.49513","26.806","0.699","7.43","0.297","3.946","0.06","0.25","30.4302","4.77384","7.78","0","SATNPRO1962","20.926","0.2931","5"],
    [36196,"HCEP03730560","2024-10-09 07:45:00","11.6076","3.49516","26.914","0.7","7.43","0.312","3.965","0.04","0.21","30.4301","4.77382","7.8","0","SATNPRO1962","21.009999999999998","0.29428","5"],
    [36197,"HCEP03730560","2024-10-09 08:00:00","11.6111","3.49555","27.022","0.732","7.43","0.307","3.795","0.05","0.16","30.4308","4.77389","8.16","0","SATNPRO1962","21.446","0.30036","5"],
    [36198,"HCEP03730560","2024-10-09 08:15:00","11.6122","3.49556","27.105","0.828","7.43","0.355","3.924","0.31","0.12","30.43","4.77376","9.23","0","SATNPRO1962","21.62","0.30282","5"],
    [36199,"HCEP03730560","2024-10-09 08:30:00","11.6124","3.49555","27.188","0.816","7.43","0.299","4.219","0.03","0.3","30.4297","4.77371","9.1","0","SATNPRO1962","21.356","0.29914","5"],
    [36200,"HCEP03730560","2024-10-09 08:45:00","11.6123","3.49558","27.254","0.808","7.43","0.295","4.007","0.02","0.19","30.43","4.77377","9","0","SATNPRO1962","21.416","0.29996","5"],
    [36201,"HCEP03730560","2024-10-09 09:00:00","11.6138","3.49573","27.288","0.799","7.43","0.279","3.981","0.04","0.12","30.4303","4.77379","8.91","0","SATNPRO1962","21.291999999999998","0.29824","5"],
    [36202,"HCEP03730560","2024-10-09 09:15:00","11.6167","3.49598","27.316","0.816","7.43","0.325","4.24","0.07","0.15","30.4303","4.77375","9.1","0","SATNPRO1962","21.474","0.30078","5"],
    [36203,"HCEP03730560","2024-10-09 09:30:00","11.6231","3.49674","27.346","0.873","7.44","0.293","4.435","0.06","0.14","30.4324","4.77396","9.73","0","SATNPRO1962","21.926","0.3071","5"],
    [36204,"HCEP03730560","2024-10-09 09:45:00","11.6218","3.49641","27.375","0.939","7.44","0.325","4.121","0.07","0.16","30.4303","4.77368","10.46","0","SATNPRO1962","22.44","0.31434","5"],
    [36205,"HCEP03730560","2024-10-09 10:00:00","11.629","3.49756","27.405","0.982","7.45","0.337","5.48","0.04","0.43","30.4354","4.7743","10.95","0","SATNPRO1962","22.666","0.31748","5"],
    [36206,"HCEP03730560","2024-10-09 10:15:00","11.624","3.49634","27.385","1.038","7.45","0.316","4.101","0.06","0.09","30.4278","4.77329","11.57","0","SATNPRO1962","22.804000000000002","0.31942","5"],
    [36207,"HCEP03730560","2024-10-09 10:30:00","11.6239","3.49613","27.393","1.057","7.45","0.292","3.997","0.06","0.14","30.4258","4.77302","11.78","0","SATNPRO1962","22.838","0.3199","5"],
    [36208,"HCEP03730560","2024-10-09 10:45:00","11.6277","3.49669","27.375","1.109","7.46","0.3","3.911","0.04","0.15","30.4281","4.77328","12.36","0","SATNPRO1962","23.286","0.32616","5"],
    [36209,"HCEP03730560","2024-10-09 11:00:00","11.6393","3.49789","27.345","1.223","7.47","0.304","3.908","0.04","0.12","30.4303","4.77342","13.64","0","SATNPRO1962","24.73","0.34638","5"],
    [36210,"HCEP03730560","2024-10-09 11:15:00","11.6428","3.49815","27.319","1.404","7.48","0.327","3.86","0.05","0.15","30.4299","4.77332","15.66","0","SATNPRO1962","25.006","0.35024","5"],
    [36211,"HCEP03730560","2024-10-09 11:30:00","11.6463","3.49838","27.285","1.523","7.49","0.35","3.931","0.15","0.31","30.4292","4.77317","16.98","0","SATNPRO1962","25.578","0.35826","5"],
    [36212,"HCEP03730560","2024-10-09 11:45:00","11.6495","3.49901","27.246","1.603","7.5","0.337","4.231","0.14","0.19","30.4327","4.77362","17.88","0","SATNPRO1962","25.336","0.35484","5"],
    [36213,"HCEP03730560","2024-10-09 12:00:00","11.653","3.49941","27.21","1.645","7.5","0.353","4.176","0.14","0.14","30.4337","4.7737","18.35","0","SATNPRO1962","25.562","0.35804","5"],
    [36214,"HCEP03730560","2024-10-09 12:15:00","11.6541","3.49956","27.167","1.694","7.51","0.374","4.402","0.06","0.16","30.4343","4.77377","18.9","0","SATNPRO1962","26.006","0.36422","5"],
    [36215,"HCEP03730560","2024-10-09 12:30:00","11.6535","3.49951","27.104","1.711","7.51","0.337","4.578","0.06","0.16","30.4343","4.77377","19.08","0","SATNPRO1962","25.887999999999998","0.36262","5"],
    [36216,"HCEP03730560","2024-10-09 12:45:00","11.6526","3.49943","27.057","1.702","7.51","0.38","4.413","0.09","0.51","30.4344","4.77379","18.99","0","SATNPRO1962","25.714","0.3602","5"],
    [36217,"HCEP03730560","2024-10-09 13:00:00","11.6595","3.50089","27.016","1.692","7.51","0.368","5.078","0.05","0.2","30.4427","4.77487","18.88","0","SATNPRO1962","25.738","0.36056","5"],
    [36218,"HCEP03730560","2024-10-09 13:15:00","11.6668","3.50223","26.948","1.696","7.51","0.438","5.931","0.12","0.39","30.4497","4.77575","18.92","0","SATNPRO1962","25.692","0.35986","5"],
    [36219,"HCEP03730560","2024-10-09 13:30:00","11.6689","3.50305","26.899","1.675","7.51","0.354","5.262","0.04","0.39","30.456","4.7766","18.69","0","SATNPRO1962","25.352","0.35512","5"],
    [36220,"HCEP03730560","2024-10-09 13:45:00","11.6692","3.50315","26.876","1.633","7.51","0.359","4.946","0.03","0.27","30.4566","4.77669","18.22","0","SATNPRO1962","25.33","0.35476","5"],
    [36221,"HCEP03730560","2024-10-09 14:00:00","11.668","3.50299","26.812","1.616","7.51","0.352","5.17","0.04","0.32","30.4561","4.77662","18.03","0","SATNPRO1962","25.35","0.35504","5"],
    [36222,"HCEP03730560","2024-10-09 14:15:00","11.6665","3.50262","26.765","1.616","7.51","0.369","4.59","0.06","0.18","30.4537","4.77631","18.03","0","SATNPRO1962","25.376","0.35544","5"],
    [36223,"HCEP03730560","2024-10-09 14:30:00","11.6654","3.5023","26.725","1.63","7.51","0.371","4.793","0.07","0.26","30.4516","4.77603","18.19","0","SATNPRO1962","25.544","0.35776","5"],
    [36224,"HCEP03730560","2024-10-09 14:45:00","11.6609","3.5014","26.695","1.637","7.51","0.368","4.646","0.03","0.26","30.4466","4.77538","18.27","0","SATNPRO1962","25.71","0.36016","5"],
    [36225,"HCEP03730560","2024-10-09 15:00:00","11.6541","3.50025","26.693","1.633","7.51","0.366","4.613","0.06","0.32","30.4412","4.77471","18.21","0","SATNPRO1962","25.536","0.3577","5"],
    [36226,"HCEP03730560","2024-10-09 15:15:00","11.6457","3.49898","26.67","1.587","7.51","0.392","4.674","0.06","0.37","30.4357","4.77406","17.7","0","SATNPRO1962","25.43","0.3562","5"],
    [36227,"HCEP03730560","2024-10-09 15:30:00","11.6405","3.49818","26.676","1.52","7.5","0.338","4.496","0.04","0.18","30.4323","4.77365","16.95","0","SATNPRO1962","25.07","0.35112","5"],
    [36228,"HCEP03730560","2024-10-09 15:45:00","11.635","3.49723","26.678","1.455","7.5","0.401","4.778","0.05","0.2","30.4277","4.77308","16.22","0","SATNPRO1962","24.862","0.34822","5"],
    [36229,"HCEP03730560","2024-10-09 16:00:00","11.6306","3.49649","26.697","1.39","7.49","0.395","4.725","0.09","0.24","30.424","4.77263","15.49","0","SATNPRO1962","24.65","0.34528","5"],
    [36230,"HCEP03730560","2024-10-09 16:15:00","11.628","3.49608","26.711","1.338","7.49","0.36","4.398","0.04","0.34","30.4222","4.77241","14.91","0","SATNPRO1962","24.448","0.34242","5"],
    [36231,"HCEP03730560","2024-10-09 16:30:00","11.6243","3.4954","26.734","1.295","7.49","0.336","4.263","0.04","0.52","30.4187","4.77196","14.43","0","SATNPRO1962","24.326","0.34068","5"],
    [36232,"HCEP03730560","2024-10-09 16:45:00","11.6216","3.49492","26.755","1.259","7.48","0.374","5.114","0.07","1.59","30.4163","4.77167","14.03","0","SATNPRO1962","24.072","0.33718","5"],
    [36233,"HCEP03730560","2024-10-09 17:00:00","11.6194","3.49442","26.783","1.229","7.48","0.288","3.941","0.04","0.18","30.4133","4.77127","13.7","0","SATNPRO1962","24.108","0.33768","5"],
    [36234,"HCEP03730560","2024-10-09 17:15:00","11.6156","3.49373","26.832","1.206","7.48","0.29","3.813","0.03","0.15","30.4097","4.77083","13.44","0","SATNPRO1962","23.884","0.33452","5"],
    [36235,"HCEP03730560","2024-10-09 17:30:00","11.6141","3.49338","26.878","1.184","7.47","0.269","3.729","0.04","0.25","30.4076","4.77055","13.19","0","SATNPRO1962","23.972","0.33576","5"],
    [36236,"HCEP03730560","2024-10-09 17:45:00","11.6124","3.49301","26.929","1.169","7.47","0.287","3.651","0.02","0.1","30.4053","4.77026","13.03","0","SATNPRO1962","23.89","0.33464","5"],
    [36237,"HCEP03730560","2024-10-09 18:00:00","11.6115","3.49282","26.98","1.154","7.47","0.317","3.932","0.04","0.2","30.4042","4.77011","12.86","0","SATNPRO1962","23.746000000000002","0.3326","5"],
    [36238,"HCEP03730560","2024-10-09 18:15:00","11.6105","3.49258","27.02","1.141","7.47","0.349","3.74","0.09","0.14","30.4027","4.76992","12.71","0","SATNPRO1962","24.064","0.33706","5"],
    [36239,"HCEP03730560","2024-10-09 18:30:00","11.6093","3.49232","26.977","1.137","7.47","0.314","3.518","0.12","0.07","30.4012","4.76973","12.67","0","SATNPRO1962","24.124000000000002","0.33792","5"],
    [36240,"HCEP03730560","2024-10-09 18:45:00","11.6088","3.49226","27.036","1.132","7.47","0.358","3.872","0.07","0.15","30.401","4.76971","12.61","0","SATNPRO1962","23.762","0.33282","5"],
    [36241,"HCEP03730560","2024-10-09 19:00:00","11.6088","3.49225","27.056","1.125","7.47","0.3","3.704","0.05","0.36","30.4009","4.7697","12.53","0","SATNPRO1962","23.774","0.33302","5"],
    [36242,"HCEP03730560","2024-10-09 19:15:00","11.6084","3.4922","27.059","1.119","7.47","0.329","3.658","0.09","0.14","30.4008","4.76968","12.46","0","SATNPRO1962","23.756","0.33276","5"],
    [36243,"HCEP03730560","2024-10-09 19:30:00","11.6086","3.49222","27.118","1.111","7.47","0.341","3.86","0.13","0.19","30.4007","4.76966","12.38","0","SATNPRO1962","23.588","0.33038","5"],
    [36244,"HCEP03730560","2024-10-09 19:45:00","11.6089","3.49225","27.154","1.104","7.46","0.299","3.614","0.03","0.21","30.4008","4.76968","12.3","0","SATNPRO1962","23.436","0.32824","5"],
    [36245,"HCEP03730560","2024-10-09 20:00:00","11.609","3.49228","27.196","1.101","7.46","0.287","3.542","0.03","0.12","30.4009","4.7697","12.27","0","SATNPRO1962","23.561999999999998","0.33","5"],
    [36246,"HCEP03730560","2024-10-09 20:15:00","11.609","3.49229","27.175","1.107","7.46","0.317","3.625","0.04","0.13","30.401","4.76971","12.33","0","SATNPRO1962","23.436","0.32826","5"],
    [36247,"HCEP03730560","2024-10-09 20:30:00","11.6092","3.49235","27.107","1.112","7.46","0.302","3.519","0.06","0.11","30.4015","4.76978","12.39","0","SATNPRO1962","23.752","0.3327","5"],
    [36248,"HCEP03730560","2024-10-09 20:45:00","11.6113","3.49289","27.081","1.117","7.46","0.36","4.716","0.05","0.4","30.4049","4.77023","12.44","0","SATNPRO1962","23.61","0.3307","5"],
    [36249,"HCEP03730560","2024-10-09 21:00:00","11.6179","3.49387","26.988","1.136","7.47","0.311","4.24","0.03","0.22","30.4091","4.77072","12.66","0","SATNPRO1962","23.933999999999997","0.33522","5"],
    [36250,"HCEP03730560","2024-10-09 21:15:00","11.6299","3.49603","26.913","1.183","7.47","0.354","4.96","0.03","0.23","30.4201","4.7721","13.19","0","SATNPRO1962","23.912","0.33496","5"],
    [36251,"HCEP03730560","2024-10-09 21:30:00","11.6355","3.49711","26.833","1.239","7.47","0.302","4.899","0.02","0.15","30.4259","4.77283","13.82","0","SATNPRO1962","24.169999999999998","0.33854","5"],
    [36252,"HCEP03730560","2024-10-09 21:45:00","11.6378","3.49763","26.759","1.268","7.48","0.436","5.145","0.19","0.38","30.4292","4.77326","14.14","0","SATNPRO1962","23.73","0.3324","5"],
    [36253,"HCEP03730560","2024-10-09 22:00:00","11.6461","3.49919","26.669","1.281","7.48","0.305","5.146","0.02","0.36","30.4374","4.77429","14.28","0","SATNPRO1962","24.088","0.3374","5"],
    [36254,"HCEP03730560","2024-10-09 22:15:00","11.6486","3.49959","26.561","1.305","7.48","0.351","4.688","0.08","0.2","30.4393","4.77453","14.55","0","SATNPRO1962","24.42","0.34206","5"],
    [36255,"HCEP03730560","2024-10-09 22:30:00","11.6486","3.49951","26.437","1.334","7.48","0.328","4.934","0.04","0.22","30.4386","4.77441","14.88","0","SATNPRO1962","24.108","0.33764","5"],
    [36256,"HCEP03730560","2024-10-09 22:45:00","11.6514","3.50005","26.283","1.369","7.49","0.373","4.537","0.13","0.56","30.4416","4.77478","15.27","0","SATNPRO1962","24.744","0.34658","5"],
    [36257,"HCEP03730560","2024-10-09 23:00:00","11.657","3.50095","26.145","1.415","7.49","0.292","4.403","0.04","0.19","30.4457","4.77528","15.79","0","SATNPRO1962","25.206","0.35302","5"],
    [36258,"HCEP03730560","2024-10-09 23:15:00","11.6579","3.50104","26.007","1.467","7.49","0.309","4.208","0.04","0.35","30.4458","4.77528","16.37","0","SATNPRO1962","25.222","0.35326","5"],
    [36259,"HCEP03730560","2024-10-09 23:30:00","11.6569","3.50071","25.861","1.526","7.5","0.273","3.734","0.05","0.14","30.4435","4.77496","17.02","0","SATNPRO1962","25.766","0.36088","5"],
    [36260,"HCEP03730560","2024-10-09 23:45:00","11.6585","3.50108","25.725","1.561","7.5","0.313","4.155","0.04","0.43","30.4459","4.77526","17.42","0","SATNPRO1962","25.422","0.3561","5"],
    [36261,"HCEP03730560","2024-10-10 00:00:00","11.6611","3.50149","25.58","1.567","7.5","0.313","4.52","0.1","0.23","30.4478","4.77549","17.48","0","SATNPRO1962","25.46","0.35662","5"],
    [36262,"HCEP03730560","2024-10-10 00:15:00","11.6631","3.50187","25.432","1.565","7.5","0.366","4.398","0.14","0.21","30.4498","4.77573","17.46","0","SATNPRO1962","25.386","0.35558","5"],
    [36263,"HCEP03730560","2024-10-10 00:30:00","11.6643","3.50216","25.293","1.561","7.5","0.291","4.206","0.06","0.16","30.4518","4.77599","17.41","0","SATNPRO1962","25.21","0.3531","5"],
    [36264,"HCEP03730560","2024-10-10 00:45:00","11.6661","3.50256","25.165","1.54","7.5","0.313","4.548","0.04","0.32","30.4542","4.77629","17.19","0","SATNPRO1962","24.748","0.34666","5"],
    [36265,"HCEP03730560","2024-10-10 01:00:00","11.6685","3.50309","25.043","1.507","7.5","0.3","4.715","0.03","0.23","30.4573","4.7767","16.82","0","SATNPRO1962","24.448","0.34246","5"],
    [36266,"HCEP03730560","2024-10-10 01:15:00","11.6698","3.50336","24.926","1.481","7.5","0.318","4.786","0.04","0.22","30.459","4.7769","16.52","0","SATNPRO1962","24.582","0.3443","5"],
    [36267,"HCEP03730560","2024-10-10 01:30:00","11.67","3.50353","24.815","1.462","7.5","0.296","4.955","0.03","0.19","30.4605","4.77712","16.31","0","SATNPRO1962","24.366","0.34124","5"],
    [36268,"HCEP03730560","2024-10-10 01:45:00","11.6715","3.5038","24.714","1.442","7.5","0.354","5.391","0.06","0.29","30.4619","4.77728","16.09","0","SATNPRO1962","24.34","0.34092","5"],
    [36269,"HCEP03730560","2024-10-10 02:00:00","11.673","3.5041","24.63","1.442","7.5","0.321","5.435","0.03","0.19","30.4636","4.77749","16.09","0","SATNPRO1962","24.314","0.34052","5"],
    [36270,"HCEP03730560","2024-10-10 02:15:00","11.674","3.50437","24.547","1.447","7.5","0.365","5.339","0.09","0.21","30.4654","4.77773","16.15","0","SATNPRO1962","24.48","0.34288","5"],
    [36271,"HCEP03730560","2024-10-10 02:30:00","11.6767","3.50476","24.481","1.46","7.5","0.299","4.94","0.03","0.17","30.4669","4.77791","16.3","0","SATNPRO1962","24.486","0.34294","5"],
    [36272,"HCEP03730560","2024-10-10 02:45:00","11.6772","3.50495","24.457","1.485","7.5","0.329","5.02","0.06","0.21","30.4683","4.77809","16.58","0","SATNPRO1962","24.605999999999998","0.34466","5"],
    [36273,"HCEP03730560","2024-10-10 03:00:00","11.6785","3.50516","24.445","1.504","7.5","0.3","4.697","0.06","0.23","30.4694","4.77822","16.78","0","SATNPRO1962","24.814","0.34758","5"],
    [36274,"HCEP03730560","2024-10-10 03:15:00","11.6769","3.50502","24.453","1.51","7.5","0.313","4.797","0.04","0.15","30.4693","4.77823","16.86","0","SATNPRO1962","24.823999999999998","0.3477","5"],
    [36275,"HCEP03730560","2024-10-10 03:30:00","11.6773","3.50507","24.464","1.501","7.5","0.274","4.532","0.04","0.15","30.4694","4.77825","16.75","0","SATNPRO1962","24.78","0.34706","5"],
    [36276,"HCEP03730560","2024-10-10 03:45:00","11.6726","3.50454","24.485","1.483","7.5","0.301","4.463","0.02","0.19","30.4682","4.77814","16.55","0","SATNPRO1962","24.394000000000002","0.34166","5"],
    [36277,"HCEP03730560","2024-10-10 04:00:00","11.6688","3.50404","24.527","1.418","7.5","0.286","4.636","0.03","0.19","30.4666","4.77797","15.82","0","SATNPRO1962","23.998","0.33612","5"],
    [36278,"HCEP03730560","2024-10-10 04:15:00","11.6626","3.50332","24.593","1.337","7.49","0.411","5.239","0.38","1.13","30.4646","4.77779","14.92","0","SATNPRO1962","23.468","0.32874","5"],
    [36279,"HCEP03730560","2024-10-10 04:30:00","11.6572","3.50256","24.675","1.247","7.48","0.347","4.82","0.11","0.31","30.4617","4.77745","13.91","0","SATNPRO1962","23.166","0.32448","5"],
    [36280,"HCEP03730560","2024-10-10 04:45:00","11.6543","3.50222","24.741","1.175","7.48","0.302","4.646","0.03","0.79","30.4607","4.77736","13.11","0","SATNPRO1962","22.898","0.32074","5"],
    [36281,"HCEP03730560","2024-10-10 05:00:00","11.6538","3.50216","24.837","1.124","7.47","0.286","4.519","0.06","0.23","30.4605","4.77735","12.54","0","SATNPRO1962","23.002","0.32216","5"],
    [36282,"HCEP03730560","2024-10-10 05:15:00","11.6575","3.50215","24.969","1.16","7.47","0.306","4.2","0.04","0.27","30.4573","4.77685","12.95","0","SATNPRO1962","22.338","0.3129","5"],
    [36283,"HCEP03730560","2024-10-10 05:30:00","11.6574","3.50165","25.103","1.279","7.48","0.285","3.845","0.06","0.1","30.4526","4.77619","14.26","0","SATNPRO1962","23.444","0.32834","5"],
    [36284,"HCEP03730560","2024-10-10 05:45:00","11.6458","3.50086","25.228","1.298","7.48","0.311","4.187","0.07","0.17","30.4544","4.77662","14.48","0","SATNPRO1962","22.226","0.31134","5"],
    [36285,"HCEP03730560","2024-10-10 06:00:00","11.6453","3.50103","25.348","1.07","7.47","0.322","4.829","0.06","0.5","30.4563","4.77691","11.93","0","SATNPRO1962","22.188","0.31078","5"],
    [36286,"HCEP03730560","2024-10-10 06:15:00","11.6496","3.5016","25.491","1.013","7.46","0.328","4.521","0.05","0.19","30.4583","4.77713","11.3","0","SATNPRO1962","22.488","0.315","5"],
    [36287,"HCEP03730560","2024-10-10 06:30:00","11.6569","3.50289","25.638","1.075","7.47","0.29","4.37","0.05","0.16","30.4647","4.77794","11.99","0","SATNPRO1962","23.294","0.32626","5"],
    [36288,"HCEP03730560","2024-10-10 06:45:00","11.6588","3.50336","25.804","1.128","7.47","0.301","4.281","0.03","0.15","30.4676","4.77833","12.58","0","SATNPRO1962","23.588","0.33038","5"],
    [36289,"HCEP03730560","2024-10-10 07:00:00","11.6569","3.50324","25.969","1.141","7.47","0.294","4.792","0.04","0.58","30.4679","4.77841","12.73","0","SATNPRO1962","23.498","0.32916","5"],
    [36290,"HCEP03730560","2024-10-10 07:15:00","11.6553","3.5031","26.204","1.11","7.47","0.304","4.187","0.07","0.2","30.4678","4.77843","12.39","0","SATNPRO1962","23.392","0.32766","5"],
    [36291,"HCEP03730560","2024-10-10 07:30:00","11.6546","3.50301","26.312","1.081","7.46","0.278","4.591","0.03","0.33","30.4675","4.77841","12.06","0","SATNPRO1962","23.201999999999998","0.32496","5"],
    [36292,"HCEP03730560","2024-10-10 07:45:00","11.6508","3.50245","26.444","1.061","7.46","0.323","4.112","0.08","0.43","30.4651","4.77813","11.83","0","SATNPRO1962","22.9","0.32072","5"],
    [36293,"HCEP03730560","2024-10-10 08:00:00","11.6381","3.50062","26.576","0.963","7.46","0.284","4.364","0.02","0.47","30.4579","4.7773","10.74","0","SATNPRO1962","21.556","0.3019","5"],
    [36294,"HCEP03730560","2024-10-10 08:15:00","11.6395","3.50077","26.718","0.867","7.45","0.307","4.311","0.02","0.24","30.4581","4.77732","9.67","0","SATNPRO1962","22.21","0.31112","5"],
    [36295,"HCEP03730560","2024-10-10 08:30:00","11.6408","3.50084","26.851","0.891","7.45","0.279","4.367","0.03","0.16","30.4577","4.77724","9.94","0","SATNPRO1962","22.544","0.31576","5"],
    [36296,"HCEP03730560","2024-10-10 08:45:00","11.6395","3.50077","27.012","0.895","7.45","0.307","4.478","0.03","0.22","30.4579","4.77731","9.98","0","SATNPRO1962","21.944","0.30738","5"],
    [36297,"HCEP03730560","2024-10-10 09:00:00","11.6465","3.50186","27.195","0.895","7.45","0.291","4.208","0.04","0.17","30.4627","4.77789","9.98","0","SATNPRO1962","22.342","0.31296","5"],
    [36298,"HCEP03730560","2024-10-10 09:15:00","11.6544","3.50315","27.321","0.973","7.45","0.318","4.931","0.03","0.23","30.4686","4.77861","10.85","0","SATNPRO1962","23.454","0.32852","5"],
    [36299,"HCEP03730560","2024-10-10 09:30:00","11.6652","3.50462","27.365","1.131","7.47","0.297","4.35","0.03","0.18","30.4739","4.77922","12.62","0","SATNPRO1962","25.078","0.35122","5"],
    [36300,"HCEP03730560","2024-10-10 09:45:00","11.668","3.50502","27.43","1.299","7.48","0.313","3.941","0.05","0.14","30.4754","4.77939","14.5","0","SATNPRO1962","25.272","0.35398","5"],
    [36301,"HCEP03730560","2024-10-10 10:00:00","11.6697","3.50535","27.474","1.35","7.48","0.31","4.354","0.04","0.15","30.4772","4.77962","15.07","0","SATNPRO1962","25.318","0.35462","5"],
    [36302,"HCEP03730560","2024-10-10 10:15:00","11.673","3.50596","27.567","1.364","7.48","0.323","4.687","0.03","0.48","30.4804","4.78004","15.22","0","SATNPRO1962","24.738","0.3465","5"],
    [36303,"HCEP03730560","2024-10-10 10:30:00","11.6751","3.50635","27.596","1.361","7.48","0.298","4.199","0.04","0.11","30.4824","4.78029","15.19","0","SATNPRO1962","24.874","0.3484","5"],
    [36304,"HCEP03730560","2024-10-10 10:45:00","11.6785","3.50695","27.622","1.36","7.49","0.33","4.734","0.03","0.28","30.4854","4.78066","15.18","0","SATNPRO1962","24.654","0.34532","5"],
    [36305,"HCEP03730560","2024-10-10 11:00:00","11.6788","3.50696","27.641","1.356","7.49","0.322","4.595","0.08","0.21","30.4853","4.78065","15.14","0","SATNPRO1962","24.812","0.34752","5"],
    [36306,"HCEP03730560","2024-10-10 11:15:00","11.6849","3.50797","27.646","1.375","7.49","0.311","4.489","0.02","0.12","30.49","4.78122","15.35","0","SATNPRO1962","25.018","0.35044","5"],
    [36307,"HCEP03730560","2024-10-10 11:30:00","11.6846","3.50792","27.51","1.392","7.49","0.315","5.081","0.03","0.23","30.4898","4.78119","15.54","0","SATNPRO1962","25.098","0.35152","5"],
    [36308,"HCEP03730560","2024-10-10 11:45:00","11.6835","3.50771","27.584","1.399","7.49","0.315","4.608","0.03","0.3","30.4887","4.78106","15.62","0","SATNPRO1962","25.134","0.35202","5"],
    [36309,"HCEP03730560","2024-10-10 12:00:00","11.6884","3.50862","27.581","1.42","7.49","0.321","4.883","0.03","0.22","30.4934","4.78165","15.85","0","SATNPRO1962","25.322","0.35464","5"],
    [36310,"HCEP03730560","2024-10-10 12:15:00","11.6896","3.50885","27.595","1.445","7.49","0.378","5.322","0.04","0.24","30.4946","4.7818","16.13","0","SATNPRO1962","25.006","0.35028","5"],
    [36311,"HCEP03730560","2024-10-10 12:30:00","11.691","3.50904","27.466","1.453","7.5","0.347","5.292","0.05","0.15","30.4954","4.78188","16.23","0","SATNPRO1962","25.182000000000002","0.35272","5"],
    [36312,"HCEP03730560","2024-10-10 12:45:00","11.6846","3.50796","27.455","1.454","7.5","0.341","4.944","0.04","0.21","30.4901","4.78123","16.24","0","SATNPRO1962","24.972","0.34978","5"],
    [36313,"HCEP03730560","2024-10-10 13:00:00","11.6772","3.50659","27.418","1.408","7.49","0.308","4.609","0.02","0.23","30.4831","4.78034","15.72","0","SATNPRO1962","25.016","0.3504","5"],
    [36314,"HCEP03730560","2024-10-10 13:15:00","11.6752","3.5061","27.411","1.373","7.49","0.311","4.274","0.02","0.12","30.48","4.77994","15.33","0","SATNPRO1962","25.034000000000002","0.35066","5"],
    [36315,"HCEP03730560","2024-10-10 13:30:00","11.6762","3.50647","27.397","1.353","7.49","0.269","4.222","0.01","0.13","30.4827","4.7803","15.11","0","SATNPRO1962","25.248","0.35364","5"],
    [36316,"HCEP03730560","2024-10-10 13:45:00","11.6816","3.50742","27.344","1.374","7.49","0.332","4.452","0.04","0.11","30.4875","4.7809","15.34","0","SATNPRO1962","25.138","0.35208","5"],
    [36317,"HCEP03730560","2024-10-10 14:00:00","11.6934","3.50928","27.301","1.46","7.5","0.276","3.809","0.03","0.15","30.4958","4.78189","16.3","0","SATNPRO1962","26.27","0.36798","5"],
    [36318,"HCEP03730560","2024-10-10 14:15:00","11.6853","3.50796","27.25","1.529","7.5","0.337","4.297","0.08","0.4","30.4896","4.78114","17.07","0","SATNPRO1962","25.054000000000002","0.35094","5"],
    [36319,"HCEP03730560","2024-10-10 14:30:00","11.6802","3.50701","27.185","1.467","7.5","0.328","4.287","0.07","0.16","30.4847","4.78052","16.37","0","SATNPRO1962","25.326","0.35472","5"],
    [36320,"HCEP03730560","2024-10-10 14:45:00","11.6848","3.50772","27.152","1.432","7.5","0.308","3.764","0.04","0.09","30.4878","4.78089","15.99","0","SATNPRO1962","25.458","0.35658","5"],
    [36321,"HCEP03730560","2024-10-10 15:00:00","11.6906","3.50876","27.109","1.473","7.5","0.263","3.409","0.05","0.07","30.4931","4.78155","16.45","0","SATNPRO1962","25.836000000000002","0.36188","5"],
    [36322,"HCEP03730560","2024-10-10 15:15:00","11.6779","3.50652","27.056","1.48","7.5","0.357","4.003","0.07","0.12","30.4819","4.78015","16.52","0","SATNPRO1962","25.11","0.35172","5"],
    [36323,"HCEP03730560","2024-10-10 15:30:00","11.6786","3.50664","26.924","1.41","7.49","0.297","4.016","0.03","0.11","30.4826","4.78023","15.74","0","SATNPRO1962","25.03","0.3506","5"],
    [36324,"HCEP03730560","2024-10-10 15:45:00","11.6791","3.50677","26.857","1.395","7.49","0.29","3.799","0.03","0.11","30.4834","4.78033","15.57","0","SATNPRO1962","25.108","0.35166","5"],
    [36325,"HCEP03730560","2024-10-10 16:00:00","11.6885","3.50857","26.972","1.422","7.5","0.303","3.816","0.06","0.2","30.493","4.78156","15.88","0","SATNPRO1962","25.192","0.35286","5"],
    [36326,"HCEP03730560","2024-10-10 16:15:00","11.6858","3.5076","26.91","1.473","7.5","0.308","3.753","0.05","0.19","30.486","4.7806","16.45","0","SATNPRO1962","25.648","0.35926","5"],
    [36327,"HCEP03730560","2024-10-10 16:30:00","11.6874","3.50817","26.883","1.474","7.5","0.279","3.56","0.05","0.13","30.4901","4.78116","16.46","0","SATNPRO1962","25.752","0.36072","5"],
    [36328,"HCEP03730560","2024-10-10 16:45:00","11.6835","3.50748","26.83","1.476","7.5","0.319","3.781","0.04","0.1","30.4867","4.78074","16.48","0","SATNPRO1962","25.524","0.3575","5"],
    [36329,"HCEP03730560","2024-10-10 17:00:00","11.678","3.50666","26.733","1.438","7.5","0.299","3.761","0.03","0.09","30.4834","4.78034","16.05","0","SATNPRO1962","25.156","0.35234","5"],
    [36330,"HCEP03730560","2024-10-10 17:15:00","11.6922","3.50975","26.809","1.408","7.49","0.357","4.76","0.04","0.25","30.5015","4.7827","15.72","0","SATNPRO1962","24.268","0.33992","5"],
    [36331,"HCEP03730560","2024-10-10 17:30:00","11.7018","3.51094","26.845","1.453","7.5","0.298","3.826","0.02","0.11","30.5051","4.78306","16.22","0","SATNPRO1962","26.086","0.36536","5"],
    [36332,"HCEP03730560","2024-10-10 17:45:00","11.7015","3.51105","26.832","1.591","7.51","0.321","3.611","0.03","0.1","30.5064","4.78325","17.78","0","SATNPRO1962","25.794","0.36128","5"],
    [36333,"HCEP03730560","2024-10-10 18:00:00","11.6978","3.51085","26.87","1.543","7.5","0.338","4.48","0.05","0.11","30.5075","4.78346","17.23","0","SATNPRO1962","25.169999999999998","0.35256","5"],
    [36334,"HCEP03730560","2024-10-10 18:15:00","11.6976","3.51095","26.878","1.441","7.5","0.343","4.749","0.03","0.15","30.5086","4.78362","16.1","0","SATNPRO1962","24.812","0.34752","5"],
    [36335,"HCEP03730560","2024-10-10 18:30:00","11.7011","3.51158","26.89","1.414","7.5","0.317","4.764","0.03","0.13","30.5118","4.78403","15.79","0","SATNPRO1962","25.052","0.3509","5"],
    [36336,"HCEP03730560","2024-10-10 18:45:00","11.7015","3.51171","26.916","1.424","7.5","0.322","4.841","0.02","0.18","30.5126","4.78414","15.91","0","SATNPRO1962","24.828","0.3478","5"],
    [36337,"HCEP03730560","2024-10-10 19:00:00","11.7061","3.5125","26.922","1.441","7.5","0.3","4.708","0.04","0.25","30.5165","4.78463","16.1","0","SATNPRO1962","25.414","0.35594","5"],
    [36338,"HCEP03730560","2024-10-10 19:15:00","11.7115","3.51375","26.921","1.508","7.5","0.344","5.595","0.03","0.49","30.5241","4.78562","16.85","0","SATNPRO1962","25.89","0.36262","5"],
    [36339,"HCEP03730560","2024-10-10 19:30:00","11.7181","3.51424","26.93","1.624","7.51","0.336","4.322","0.15","0.17","30.5234","4.78543","18.15","0","SATNPRO1962","26.254","0.36774","5"],
    [36340,"HCEP03730560","2024-10-10 19:45:00","11.7172","3.51427","26.943","1.69","7.52","0.329","4.484","0.05","0.18","30.5245","4.78559","18.88","0","SATNPRO1962","26.22","0.36726","5"],
    [36341,"HCEP03730560","2024-10-10 20:00:00","11.7154","3.51395","26.97","1.685","7.52","0.341","4.485","0.09","0.12","30.5229","4.78539","18.83","0","SATNPRO1962","26.076","0.36522","5"],
    [36342,"HCEP03730560","2024-10-10 20:15:00","11.7113","3.51331","26.981","1.661","7.52","0.332","4.914","0.03","0.25","30.5201","4.78506","18.56","0","SATNPRO1962","25.844","0.36198","5"],
    [36343,"HCEP03730560","2024-10-10 20:30:00","11.7074","3.51251","26.951","1.607","7.51","0.292","4.269","0.03","0.18","30.5155","4.78447","17.95","0","SATNPRO1962","26.024","0.36452","5"],
    [36344,"HCEP03730560","2024-10-10 20:45:00","11.7005","3.51148","26.931","1.554","7.51","0.361","4.884","0.15","0.21","30.5113","4.78397","17.36","0","SATNPRO1962","25.174","0.35258","5"],
    [36345,"HCEP03730560","2024-10-10 21:00:00","11.698","3.51112","26.9","1.457","7.5","0.345","5.403","0.11","0.21","30.5099","4.7838","16.27","0","SATNPRO1962","24.866","0.34824","5"],
    [36346,"HCEP03730560","2024-10-10 21:15:00","11.6996","3.51159","26.888","1.393","7.5","0.382","6.124","0.06","0.34","30.5131","4.78423","15.56","0","SATNPRO1962","24.77","0.34696","5"],
    [36347,"HCEP03730560","2024-10-10 21:30:00","11.709","3.51332","26.859","1.397","7.5","0.315","5.373","0.03","0.27","30.5221","4.78536","15.6","0","SATNPRO1962","25.16","0.35238","5"],
    [36348,"HCEP03730560","2024-10-10 21:45:00","11.7128","3.51405","26.818","1.458","7.5","0.344","4.882","0.09","0.16","30.526","4.78586","16.29","0","SATNPRO1962","25.674","0.3596","5"],
    [36349,"HCEP03730560","2024-10-10 22:00:00","11.7168","3.51463","26.78","1.519","7.51","0.334","5.269","0.09","0.45","30.5284","4.78614","16.98","0","SATNPRO1962","25.614","0.35878","5"],
    [36350,"HCEP03730560","2024-10-10 22:15:00","11.73","3.51679","26.734","1.623","7.51","0.327","5.133","0.03","0.46","30.5383","4.78735","18.14","0","SATNPRO1962","26.375999999999998","0.36942","5"],
    [36351,"HCEP03730560","2024-10-10 22:30:00","11.7421","3.51842","26.677","1.793","7.53","0.297","4.325","0.07","0.34","30.5442","4.788","20.05","0","SATNPRO1962","27.366","0.38326","5"],
    [36352,"HCEP03730560","2024-10-10 22:45:00","11.7478","3.51908","26.609","1.964","7.54","0.298","4.235","0.02","0.18","30.5458","4.78815","21.97","0","SATNPRO1962","27.468","0.3847","5"],
    [36353,"HCEP03730560","2024-10-10 23:00:00","11.7516","3.51951","26.525","2.071","7.55","0.284","4.519","0.03","0.31","30.5469","4.78824","23.17","0","SATNPRO1962","27.35","0.38304","5"],
    [36354,"HCEP03730560","2024-10-10 23:15:00","11.7565","3.52008","26.447","2.155","7.55","0.278","3.881","0.02","0.16","30.5484","4.78838","24.11","0","SATNPRO1962","27.756","0.38874","5"],
    [36355,"HCEP03730560","2024-10-10 23:30:00","11.7566","3.52004","26.353","2.223","7.56","0.278","4.526","0.02","0.23","30.5479","4.7883","24.87","0","SATNPRO1962","27.546","0.38584","5"],
    [36356,"HCEP03730560","2024-10-10 23:45:00","11.7585","3.52031","26.254","2.251","7.56","0.319","4.103","0.08","0.13","30.5491","4.78844","25.19","0","SATNPRO1962","27.594","0.38648","5"],
    [36357,"HCEP03730560","2024-10-11 00:00:00","11.7593","3.52036","26.139","2.287","7.57","0.267","3.899","0.03","0.13","30.5489","4.78839","25.58","0","SATNPRO1962","27.702","0.38802","5"],
    [36358,"HCEP03730560","2024-10-11 00:15:00","11.7586","3.5202","25.958","2.309","7.57","0.303","4.047","0.05","0.22","30.5479","4.78826","25.83","0","SATNPRO1962","27.78","0.3891","5"],
    [36359,"HCEP03730560","2024-10-11 00:30:00","11.7611","3.52048","25.836","2.33","7.57","0.239","3.606","0.01","0.14","30.5487","4.78832","26.07","0","SATNPRO1962","28.076","0.39328","5"],
    [36360,"HCEP03730560","2024-10-11 00:45:00","11.7583","3.52002","25.708","2.352","7.57","0.288","4.285","0.02","0.21","30.5467","4.78807","26.31","0","SATNPRO1962","27.580000000000002","0.38634","5"],
    [36361,"HCEP03730560","2024-10-11 01:00:00","11.7597","3.5202","25.595","2.343","7.58","0.27","4.024","0.03","0.21","30.5472","4.78812","26.21","0","SATNPRO1962","27.916","0.39102","5"],
    [36362,"HCEP03730560","2024-10-11 01:15:00","11.7592","3.52004","25.476","2.359","7.58","0.281","3.781","0.05","0.18","30.5461","4.78797","26.39","0","SATNPRO1962","27.76","0.38886","5"],
    [36363,"HCEP03730560","2024-10-11 01:30:00","11.7593","3.51994","25.348","2.371","7.58","0.29","3.706","0.11","0.15","30.5452","4.78782","26.52","0","SATNPRO1962","27.706","0.38806","5"],
    [36364,"HCEP03730560","2024-10-11 01:45:00","11.7576","3.5197","25.221","2.372","7.58","0.284","4.025","0.03","0.25","30.5443","4.78772","26.53","0","SATNPRO1962","27.66","0.38746","5"],
    [36365,"HCEP03730560","2024-10-11 02:00:00","11.7569","3.51958","25.104","2.354","7.58","0.258","4.264","0.02","0.22","30.5438","4.78765","26.33","0","SATNPRO1962","27.688","0.38784","5"],
    [36366,"HCEP03730560","2024-10-11 02:15:00","11.7549","3.51932","24.989","2.323","7.58","0.303","4.669","0.02","0.17","30.5429","4.78754","25.99","0","SATNPRO1962","27.488","0.385","5"],
    [36367,"HCEP03730560","2024-10-11 02:30:00","11.7592","3.51985","24.918","2.326","7.58","0.25","3.793","0.02","0.12","30.5446","4.78772","26.02","0","SATNPRO1962","28.162","0.39448","5"],
    [36368,"HCEP03730560","2024-10-11 02:45:00","11.7614","3.52001","24.827","2.408","7.58","0.276","4.049","0.02","0.28","30.5443","4.78764","26.94","0","SATNPRO1962","28.268","0.39596","5"],
    [36369,"HCEP03730560","2024-10-11 03:00:00","11.7659","3.52036","24.764","2.503","7.59","0.249","3.573","0.03","0.1","30.544","4.78753","28.01","0","SATNPRO1962","28.806","0.40344","5"],
    [36370,"HCEP03730560","2024-10-11 03:15:00","11.7617","3.51993","24.689","2.553","7.59","0.32","4.057","0.11","0.15","30.5434","4.7875","28.56","0","SATNPRO1962","28.524","0.39954","5"],
    [36371,"HCEP03730560","2024-10-11 03:30:00","11.7607","3.51984","24.623","2.484","7.59","1.559","4.544","2.88","1.44","30.5434","4.78751","27.79","0","SATNPRO1962","27.956","0.39154","5"],
    [36372,"HCEP03730560","2024-10-11 03:45:00","11.7687","3.52041","24.579","2.525","7.59","0.259","3.033","0.04","0.51","30.5423","4.78724","28.25","0","SATNPRO1962","28.82","0.40364","5"],
    [36373,"HCEP03730560","2024-10-11 04:00:00","11.7586","3.51956","24.559","2.56","7.59","3.353","41.48","2.55","12.73","30.5423","4.78739","28.63","0","SATNPRO1962","27.944","0.39138","5"],
    [36374,"HCEP03730560","2024-10-11 04:15:00","11.7586","3.51955","24.538","2.446","7.59","0.451","4.046","0.51","0.5","30.5423","4.78738","27.36","0","SATNPRO1962","28.016","0.39242","5"],
    [36375,"HCEP03730560","2024-10-11 04:30:00","11.7612","3.51968","24.554","2.453","7.59","0.293","3.965","0.06","0.15","30.5415","4.78723","27.44","0","SATNPRO1962","28.264","0.3959","5"],
    [36376,"HCEP03730560","2024-10-11 04:45:00","11.7543","3.51927","24.57","2.404","7.59","0.305","4.784","0.03","0.2","30.5431","4.78756","26.89","0","SATNPRO1962","27.31","0.38252","5"],
    [36377,"HCEP03730560","2024-10-11 05:00:00","11.7557","3.51979","24.605","2.288","7.58","0.327","4.914","0.19","0.19","30.547","4.78809","25.59","0","SATNPRO1962","28.042","0.39276","5"],
    [36378,"HCEP03730560","2024-10-11 05:15:00","11.7522","3.51924","24.657","2.249","7.58","0.337","5.585","0.03","0.44","30.5445","4.78779","25.16","0","SATNPRO1962","27.48","0.38494","5"],
    [36379,"HCEP03730560","2024-10-11 05:30:00","11.7524","3.51927","24.712","2.191","7.57","0.322","5.417","0.08","0.74","30.5446","4.7878","24.5","0","SATNPRO1962","27.434","0.38422","5"],
    [36380,"HCEP03730560","2024-10-11 05:45:00","11.7508","3.51884","24.788","2.174","7.57","0.325","5.461","0.04","0.24","30.5418","4.78744","24.31","0","SATNPRO1962","27.21","0.3811","5"],
    [36381,"HCEP03730560","2024-10-11 06:00:00","11.7508","3.51869","24.885","2.166","7.57","0.302","5.333","0.02","0.28","30.5404","4.78724","24.22","0","SATNPRO1962","27.32","0.38266","5"],
    [36382,"HCEP03730560","2024-10-11 06:15:00","11.7525","3.51861","24.999","2.247","7.57","0.312","4.632","0.05","0.25","30.5381","4.7869","25.13","0","SATNPRO1962","27.854","0.39014","5"],
    [36383,"HCEP03730560","2024-10-11 06:30:00","11.7512","3.51841","25.096","2.301","7.58","0.319","5.696","0.06","0.85","30.5372","4.7868","25.74","0","SATNPRO1962","27.378","0.38344","5"],
    [36384,"HCEP03730560","2024-10-11 06:45:00","11.7508","3.51831","25.245","2.267","7.57","0.336","5.269","0.05","0.34","30.5365","4.78671","25.35","0","SATNPRO1962","27.086000000000002","0.37938","5"],
    [36385,"HCEP03730560","2024-10-11 07:00:00","11.7507","3.51831","25.308","2.242","7.57","0.316","5.127","0.04","0.17","30.5365","4.78672","25.08","0","SATNPRO1962","26.966","0.3777","5"],
    [36386,"HCEP03730560","2024-10-11 07:15:00","11.7532","3.51845","25.506","2.265","7.57","0.389","6.204","0.06","1","30.5358","4.7866","25.34","0","SATNPRO1962","27.5","0.38522","5"],
    [36387,"HCEP03730560","2024-10-11 07:30:00","11.7545","3.51853","25.664","2.34","7.58","0.311","4.945","0.04","0.16","30.5354","4.78653","26.17","0","SATNPRO1962","27.580000000000002","0.38628","5"],
    [36388,"HCEP03730560","2024-10-11 07:45:00","11.7549","3.51853","25.758","2.363","7.58","0.31","4.264","0.04","0.24","30.5351","4.78648","26.43","0","SATNPRO1962","27.634","0.3871","5"],
    [36389,"HCEP03730560","2024-10-11 08:00:00","11.7532","3.51841","25.937","2.366","7.58","0.286","3.94","0.03","0.19","30.5352","4.78653","26.46","0","SATNPRO1962","27.306","0.38244","5"],
    [36390,"HCEP03730560","2024-10-11 08:15:00","11.7507","3.51824","26.094","2.32","7.58","0.333","4.369","0.09","0.2","30.5356","4.78663","25.95","0","SATNPRO1962","27.42","0.3841","5"],
    [36391,"HCEP03730560","2024-10-11 08:30:00","11.7531","3.51898","26.238","2.245","7.57","0.293","4.914","0.03","0.25","30.5407","4.78733","25.11","0","SATNPRO1962","27.144000000000002","0.3802","5"],
    [36392,"HCEP03730560","2024-10-11 08:45:00","11.7517","3.51882","26.384","2.26","7.57","0.314","4.757","0.03","0.27","30.5402","4.78729","25.28","0","SATNPRO1962","27.092","0.37944","5"],
    [36393,"HCEP03730560","2024-10-11 09:00:00","11.7537","3.51922","26.535","2.239","7.57","0.308","5.22","0.04","0.26","30.5423","4.78757","25.04","0","SATNPRO1962","27.05","0.37892","5"],
    [36394,"HCEP03730560","2024-10-11 09:15:00","11.75","3.51865","26.67","2.203","7.57","0.35","5.485","0.04","0.35","30.5399","4.78728","24.64","0","SATNPRO1962","27.204","0.38102","5"],
    [36395,"HCEP03730560","2024-10-11 09:30:00","11.7543","3.51981","26.81","2.159","7.57","0.319","4.875","0.03","0.23","30.5474","4.78829","24.15","0","SATNPRO1962","27.322","0.38272","5"],
    [36396,"HCEP03730560","2024-10-11 09:45:00","11.7665","3.5212","26.939","2.216","7.57","0.394","4.892","0.16","0.22","30.5508","4.7886","24.79","0","SATNPRO1962","27.212","0.38116","5"],
    [36397,"HCEP03730560","2024-10-11 10:00:00","11.7683","3.52165","27.068","2.317","7.58","0.316","4.464","0.05","0.18","30.5535","4.78897","25.92","0","SATNPRO1962","27.458000000000002","0.38458","5"],
    [36398,"HCEP03730560","2024-10-11 10:15:00","11.7741","3.52211","27.17","2.429","7.59","0.316","4.1","0.09","0.18","30.5532","4.78885","27.18","0","SATNPRO1962","27.806","0.38946","5"],
    [36399,"HCEP03730560","2024-10-11 10:30:00","11.7581","3.51998","27.239","2.419","7.58","0.311","4.94","0.03","0.23","30.5458","4.78804","27.06","0","SATNPRO1962","27.032","0.37864","5"],
    [36400,"HCEP03730560","2024-10-11 10:45:00","11.7663","3.52102","27.314","2.3","7.58","0.314","4.428","0.02","0.14","30.5491","4.78838","25.73","0","SATNPRO1962","27.142","0.38014","5"],
    [36401,"HCEP03730560","2024-10-11 11:00:00","11.7701","3.52162","27.392","2.377","7.58","0.307","4.431","0.03","0.37","30.5517","4.7887","26.6","0","SATNPRO1962","27.574","0.38622","5"],
    [36402,"HCEP03730560","2024-10-11 11:15:00","11.7724","3.52184","27.475","2.441","7.59","0.32","3.884","0.04","0.21","30.5518","4.78869","27.31","0","SATNPRO1962","27.766","0.38892","5"],
    [36403,"HCEP03730560","2024-10-11 11:30:00","11.7624","3.52052","27.496","2.422","7.59","0.268","4.084","0.02","0.1","30.5474","4.78821","27.09","0","SATNPRO1962","27.538","0.38574","5"],
    [36404,"HCEP03730560","2024-10-11 11:45:00","11.7654","3.52102","27.48","2.333","7.58","0.31","4.554","0.04","0.33","30.5497","4.78849","26.1","0","SATNPRO1962","27.152","0.38032","5"],
    [36405,"HCEP03730560","2024-10-11 12:00:00","11.7635","3.52072","27.506","2.322","7.58","0.302","4.233","0.04","0.2","30.5484","4.78833","25.98","0","SATNPRO1962","27.442","0.38438","5"],
    [36406,"HCEP03730560","2024-10-11 12:15:00","11.7645","3.52066","27.525","2.34","7.58","0.312","4.421","0.03","0.11","30.547","4.78812","26.18","0","SATNPRO1962","27.384","0.38356","5"],
    [36407,"HCEP03730560","2024-10-11 12:30:00","11.7563","3.51948","27.539","2.314","7.58","0.297","4.496","0.04","0.2","30.5423","4.78758","25.88","0","SATNPRO1962","27.118","0.3798","5"],
    [36408,"HCEP03730560","2024-10-11 12:45:00","11.7598","3.51977","27.543","2.24","7.57","0.344","4.307","0.11","0.17","30.5422","4.78752","25.06","0","SATNPRO1962","27.296","0.38234","5"],
    [36409,"HCEP03730560","2024-10-11 13:00:00","11.7581","3.51957","27.528","2.252","7.57","0.285","4.423","0.02","0.34","30.5418","4.78748","25.19","0","SATNPRO1962","27.12","0.37982","5"],
    [36410,"HCEP03730560","2024-10-11 13:15:00","11.7588","3.5197","27.501","2.256","7.57","0.316","4.404","0.03","0.14","30.5424","4.78756","25.24","0","SATNPRO1962","27.192","0.38088","5"],
    [36411,"HCEP03730560","2024-10-11 13:30:00","11.7567","3.51948","27.477","2.237","7.57","0.292","4.347","0.03","0.13","30.542","4.78753","25.03","0","SATNPRO1962","26.82","0.37564","5"],
    [36412,"HCEP03730560","2024-10-11 13:45:00","11.7643","3.52046","27.436","2.259","7.57","0.301","3.443","0.07","0.09","30.5453","4.78788","25.28","0","SATNPRO1962","28.078","0.39328","5"],
    [36413,"HCEP03730560","2024-10-11 14:00:00","11.7722","3.52141","27.402","2.403","7.58","0.265","3.211","0.03","0.09","30.5479","4.78814","26.89","0","SATNPRO1962","28.242","0.39558","5"],
    [36414,"HCEP03730560","2024-10-11 14:15:00","11.7715","3.52137","27.358","2.502","7.59","0.318","3.371","0.13","0.09","30.5481","4.78817","28","0","SATNPRO1962","27.664","0.3875","5"],
    [36415,"HCEP03730560","2024-10-11 14:30:00","11.7758","3.52207","27.313","2.527","7.59","0.28","3.043","0.04","0.15","30.5513","4.78857","28.28","0","SATNPRO1962","28.268","0.39596","5"],
    [36416,"HCEP03730560","2024-10-11 14:45:00","11.7757","3.52214","27.252","2.554","7.6","0.296","3.101","0.06","0.13","30.5522","4.78868","28.59","0","SATNPRO1962","28.43","0.39822","5"],
    [36417,"HCEP03730560","2024-10-11 15:00:00","11.7774","3.5225","27.205","2.56","7.6","0.28","3.098","0.07","0.11","30.5542","4.78895","28.65","0","SATNPRO1962","28.338","0.39694","5"],
    [36418,"HCEP03730560","2024-10-11 15:15:00","11.7793","3.52286","27.147","2.584","7.6","0.311","2.939","0.05","0.09","30.5561","4.78918","28.92","0","SATNPRO1962","28.252","0.39572","5"],
    [36419,"HCEP03730560","2024-10-11 15:30:00","11.7791","3.52305","27.09","2.584","7.6","0.266","3.24","0.02","0.24","30.5582","4.78948","28.92","0","SATNPRO1962","28.128","0.394","5"],
    [36420,"HCEP03730560","2024-10-11 15:45:00","11.7809","3.52346","27.012","2.562","7.6","0.295","3.143","0.03","0.1","30.5607","4.78979","28.68","0","SATNPRO1962","28.192","0.39484","5"],
    [36421,"HCEP03730560","2024-10-11 16:00:00","11.7805","3.5236","26.925","2.553","7.6","0.295","3.456","0.12","0.29","30.5625","4.79005","28.58","0","SATNPRO1962","28.112","0.39374","5"],
    [36422,"HCEP03730560","2024-10-11 16:15:00","11.7769","3.5235","26.855","2.481","7.59","0.329","4.642","0.03","0.5","30.5644","4.79037","27.77","0","SATNPRO1962","28.128","0.394","5"],
    [36423,"HCEP03730560","2024-10-11 16:30:00","11.7816","3.52427","26.867","2.404","7.59","0.283","3.695","0.03","0.26","30.5679","4.7908","26.91","0","SATNPRO1962","27.852","0.39012","5"],
    [36424,"HCEP03730560","2024-10-11 16:45:00","11.7786","3.52402","26.788","2.388","7.59","0.351","4.561","0.05","0.16","30.568","4.79085","26.72","0","SATNPRO1962","27.04","0.37874","5"],
    [36425,"HCEP03730560","2024-10-11 17:00:00","11.7776","3.52385","26.726","2.319","7.58","0.292","4.397","0.02","0.21","30.5672","4.79075","25.95","0","SATNPRO1962","26.806","0.37544","5"],
    [36426,"HCEP03730560","2024-10-11 17:15:00","11.774","3.52311","26.705","2.287","7.58","0.324","4.53","0.05","0.25","30.5631","4.79022","25.6","0","SATNPRO1962","26.758","0.37478","5"],
    [36427,"HCEP03730560","2024-10-11 17:30:00","11.773","3.52304","26.698","2.27","7.58","0.282","4.385","0.03","0.19","30.5632","4.79025","25.4","0","SATNPRO1962","26.818","0.37562","5"],
    [36428,"HCEP03730560","2024-10-11 17:45:00","11.7733","3.52304","26.655","2.231","7.58","0.296","4.205","0.03","0.19","30.563","4.79021","24.97","0","SATNPRO1962","26.736","0.37448","5"],
    [36429,"HCEP03730560","2024-10-11 18:00:00","11.7742","3.52309","26.653","2.23","7.57","0.25","3.888","0.02","0.08","30.5628","4.79016","24.96","0","SATNPRO1962","26.738","0.37452","5"],
    [36430,"HCEP03730560","2024-10-11 18:15:00","11.7744","3.52304","26.643","2.261","7.58","0.265","3.655","0.02","0.15","30.562","4.79006","25.3","0","SATNPRO1962","26.882","0.37654","5"],
    [36431,"HCEP03730560","2024-10-11 18:30:00","11.7757","3.52336","26.63","2.281","7.58","0.306","4.039","0.03","0.14","30.5642","4.79034","25.53","0","SATNPRO1962","27.072","0.37918","5"],
    [36432,"HCEP03730560","2024-10-11 18:45:00","11.7793","3.52428","26.634","2.291","7.58","0.382","4.183","0.12","0.14","30.57","4.79112","25.65","0","SATNPRO1962","27.112000000000002","0.37976","5"],
    [36433,"HCEP03730560","2024-10-11 19:00:00","11.7793","3.52416","26.638","2.318","7.58","0.31","4.141","0.05","0.2","30.5689","4.79097","25.94","0","SATNPRO1962","27.072","0.37918","5"],
    [36434,"HCEP03730560","2024-10-11 19:15:00","11.7809","3.52428","26.659","2.351","7.58","0.285","3.944","0.02","0.15","30.5687","4.79091","26.32","0","SATNPRO1962","27.338","0.3829","5"],
    [36435,"HCEP03730560","2024-10-11 19:30:00","11.7813","3.52416","26.662","2.384","7.59","0.261","3.431","0.02","0.08","30.5673","4.7907","26.68","0","SATNPRO1962","27.592000000000002","0.38648","5"],
    [36436,"HCEP03730560","2024-10-11 19:45:00","11.7829","3.5244","26.681","2.435","7.59","0.298","3.416","0.04","0.09","30.5683","4.79082","27.25","0","SATNPRO1962","27.898","0.39076","5"],
    [36437,"HCEP03730560","2024-10-11 20:00:00","11.7828","3.5244","26.7","2.451","7.59","0.306","4.295","0.03","0.22","30.5683","4.79084","27.44","0","SATNPRO1962","27.48","0.38492","5"],
    [36438,"HCEP03730560","2024-10-11 20:15:00","11.7836","3.52469","26.714","2.438","7.59","0.287","3.695","0.03","0.16","30.5704","4.79111","27.29","0","SATNPRO1962","27.606","0.38666","5"],
    [36439,"HCEP03730560","2024-10-11 20:30:00","11.7828","3.52475","26.736","2.4","7.59","0.431","4.864","0.09","0.22","30.5717","4.79131","26.86","0","SATNPRO1962","27.344","0.38302","5"],
    [36440,"HCEP03730560","2024-10-11 20:45:00","11.7823","3.52469","26.769","2.355","7.59","0.358","5.045","0.07","0.18","30.5715","4.79129","26.37","0","SATNPRO1962","27.198","0.38094","5"],
    [36441,"HCEP03730560","2024-10-11 21:00:00","11.7811","3.52455","26.791","2.318","7.58","0.332","5.201","0.07","0.26","30.5711","4.79125","25.95","0","SATNPRO1962","27.169999999999998","0.3806","5"],
    [36442,"HCEP03730560","2024-10-11 21:15:00","11.7804","3.52452","26.811","2.268","7.58","0.39","5.14","0.08","0.26","30.5714","4.79131","25.39","0","SATNPRO1962","26.326","0.3687","5"],
    [36443,"HCEP03730560","2024-10-11 21:30:00","11.7796","3.52444","26.816","2.228","7.58","0.346","5.273","0.05","0.16","30.5712","4.7913","24.94","0","SATNPRO1962","26.216","0.3672","5"],
    [36444,"HCEP03730560","2024-10-11 21:45:00","11.7791","3.52431","26.828","2.197","7.57","0.316","4.959","0.01","0.12","30.5703","4.79118","24.59","0","SATNPRO1962","26.874","0.37646","5"],
    [36445,"HCEP03730560","2024-10-11 22:00:00","11.778","3.52412","26.829","2.185","7.57","0.312","4.948","0.02","0.14","30.5694","4.79106","24.45","0","SATNPRO1962","26.228","0.36734","5"],
    [36446,"HCEP03730560","2024-10-11 22:15:00","11.7776","3.52372","26.84","2.204","7.57","0.317","4.647","0.05","0.17","30.5659","4.79057","24.67","0","SATNPRO1962","27.018","0.37844","5"],
    [36447,"HCEP03730560","2024-10-11 22:30:00","11.7763","3.52333","26.851","2.246","7.58","0.296","5.068","0.03","0.27","30.5633","4.79023","25.13","0","SATNPRO1962","27.066","0.37912","5"],
    [36448,"HCEP03730560","2024-10-11 22:45:00","11.7754","3.52317","26.84","2.263","7.58","0.352","5.961","0.03","0.27","30.5625","4.79013","25.32","0","SATNPRO1962","26.686","0.37376","5"],
    [36449,"HCEP03730560","2024-10-11 23:00:00","11.7745","3.5231","26.743","2.237","7.57","0.321","5.41","0.05","0.43","30.5625","4.79013","25.03","0","SATNPRO1962","26.664","0.37348","5"],
    [36450,"HCEP03730560","2024-10-11 23:15:00","11.7733","3.52306","26.698","2.196","7.57","0.34","5.376","0.03","0.13","30.5632","4.79024","24.57","0","SATNPRO1962","26.088","0.36538","5"],
    [36451,"HCEP03730560","2024-10-11 23:30:00","11.7729","3.52299","26.653","2.151","7.57","0.293","5.615","0.01","0.19","30.5629","4.7902","24.08","0","SATNPRO1962","25.778000000000002","0.3611","5"],
    [36452,"HCEP03730560","2024-10-11 23:45:00","11.7723","3.52293","26.563","2.133","7.57","0.302","5.47","0.03","0.33","30.5628","4.79019","23.87","0","SATNPRO1962","25.812","0.36154","5"],
    [36453,"HCEP03730560","2024-10-12 00:00:00","11.7716","3.52272","26.527","2.136","7.57","0.32","5.42","0.03","0.26","30.5614","4.79","23.9","0","SATNPRO1962","26.094","0.3655","5"],
    [36454,"HCEP03730560","2024-10-12 00:15:00","11.771","3.52251","26.467","2.121","7.56","0.325","5.306","0.03","0.51","30.5599","4.7898","23.73","0","SATNPRO1962","26.062","0.36506","5"],
    [36455,"HCEP03730560","2024-10-12 00:30:00","11.7702","3.52232","26.392","2.128","7.56","0.33","5.507","0.11","1.22","30.5587","4.78964","23.81","0","SATNPRO1962","25.86","0.36224","5"],
    [36456,"HCEP03730560","2024-10-12 00:45:00","11.7693","3.52207","26.314","2.135","7.56","0.296","4.937","0.02","0.18","30.5571","4.78942","23.89","0","SATNPRO1962","26.026","0.36456","5"],
    [36457,"HCEP03730560","2024-10-12 01:00:00","11.7699","3.52198","26.224","2.179","7.57","0.265","4.149","0.04","0.12","30.5557","4.78921","24.38","0","SATNPRO1962","27.364","0.38324","5"],
    [36458,"HCEP03730560","2024-10-12 01:15:00","11.7689","3.52148","26.132","2.252","7.57","0.262","3.655","0.02","0.1","30.5518","4.78867","25.2","0","SATNPRO1962","27.154","0.38032","5"],
    [36459,"HCEP03730560","2024-10-12 01:30:00","11.767","3.52092","26.03","2.305","7.58","0.218","3.153","0.01","0.06","30.548","4.78815","25.79","0","SATNPRO1962","27.482","0.38492","5"],
    [36460,"HCEP03730560","2024-10-12 01:45:00","11.7668","3.52071","25.915","2.336","7.58","0.264","3.689","0.02","0.06","30.5462","4.7879","26.13","0","SATNPRO1962","27.626","0.38696","5"],
    [36461,"HCEP03730560","2024-10-12 02:00:00","11.7726","3.52102","25.781","2.395","7.58","0.279","3.962","0.07","0.23","30.5445","4.78756","26.79","0","SATNPRO1962","27.994","0.3921","5"],
    [36462,"HCEP03730560","2024-10-12 02:15:00","11.7688","3.52052","25.652","2.486","7.59","0.275","3.457","0.03","0.21","30.5429","4.78738","27.82","0","SATNPRO1962","27.712","0.38814","5"],
    [36463,"HCEP03730560","2024-10-12 02:30:00","11.7701","3.52051","25.524","2.491","7.59","0.243","3.233","0.03","0.06","30.5418","4.7872","27.88","0","SATNPRO1962","27.504","0.3852","5"],
    [36464,"HCEP03730560","2024-10-12 02:45:00","11.7761","3.52097","25.389","2.551","7.6","0.241","2.62","0.02","0.13","30.5413","4.78704","28.55","0","SATNPRO1962","28.218","0.39526","5"],
    [36465,"HCEP03730560","2024-10-12 03:00:00","11.776","3.52087","25.275","2.659","7.6","0.213","2.771","0.02","0.08","30.5404","4.78691","29.76","0","SATNPRO1962","28.32","0.39668","5"],
    [36466,"HCEP03730560","2024-10-12 03:15:00","11.7773","3.52089","25.146","2.705","7.61","0.281","2.845","0.05","0.21","30.5397","4.78678","30.27","0","SATNPRO1962","28.572","0.4002","5"],
    [36467,"HCEP03730560","2024-10-12 03:30:00","11.7782","3.52089","25.025","2.748","7.61","0.244","2.464","0.06","0.06","30.5389","4.78666","30.75","0","SATNPRO1962","28.424","0.39812","5"],
    [36468,"HCEP03730560","2024-10-12 03:45:00","11.7758","3.52071","24.985","2.769","7.61","0.256","2.77","0.03","0.08","30.5392","4.78672","30.98","0","SATNPRO1962","28.432000000000002","0.39824","5"],
    [36469,"HCEP03730560","2024-10-12 04:00:00","11.7618","3.51979","24.873","2.574","7.6","0.298","5.511","0.04","0.33","30.5418","4.78729","28.8","0","SATNPRO1962","26.834","0.37586","5"],
    [36470,"HCEP03730560","2024-10-12 04:15:00","11.7596","3.51988","24.772","2.223","7.58","0.307","5.215","0.02","0.28","30.5446","4.7877","24.87","0","SATNPRO1962","25.376","0.35548","5"],
    [36471,"HCEP03730560","2024-10-12 04:30:00","11.7598","3.5198","24.683","2.051","7.57","0.282","5.088","0.02","0.21","30.5437","4.78757","22.95","0","SATNPRO1962","25.626","0.35892","5"],
    [36472,"HCEP03730560","2024-10-12 04:45:00","11.7588","3.51954","24.628","2.001","7.56","0.339","5.941","0.04","0.24","30.542","4.78734","22.38","0","SATNPRO1962","25.304","0.35444","5"],
    [36473,"HCEP03730560","2024-10-12 05:00:00","11.7581","3.51931","24.581","2.003","7.56","0.317","5.277","0.11","0.19","30.5404","4.78713","22.4","0","SATNPRO1962","26.102","0.3656","5"],
    [36474,"HCEP03730560","2024-10-12 05:15:00","11.7661","3.51976","24.573","2.128","7.57","0.307","3.638","0.08","0.24","30.5381","4.78668","23.81","0","SATNPRO1962","28.31","0.39652","5"],
    [36475,"HCEP03730560","2024-10-12 05:30:00","11.7554","3.51914","24.559","2.205","7.57","0.302","5.683","0.03","0.17","30.541","4.78725","24.66","0","SATNPRO1962","24.866","0.3483","5"],
    [36476,"HCEP03730560","2024-10-12 05:45:00","11.7556","3.51885","24.571","2","7.55","0.323","5.03","0.07","0.19","30.538","4.78682","22.37","0","SATNPRO1962","25.866","0.36228","5"],
    [36477,"HCEP03730560","2024-10-12 06:00:00","11.7571","3.519","24.605","2.011","7.55","0.276","4.859","0.02","0.18","30.5381","4.78682","22.5","0","SATNPRO1962","26.32","0.36868","5"],
    [36478,"HCEP03730560","2024-10-12 06:15:00","11.7538","3.51871","24.63","2.016","7.55","0.308","5.26","0.04","0.25","30.538","4.78685","22.54","0","SATNPRO1962","24.988","0.35002","5"],
    [36479,"HCEP03730560","2024-10-12 06:30:00","11.7527","3.51903","24.688","1.903","7.54","0.307","5.279","0.07","0.18","30.5421","4.78745","21.28","0","SATNPRO1962","24.942","0.34934","5"],
    [36480,"HCEP03730560","2024-10-12 06:45:00","11.7543","3.51927","24.759","1.834","7.54","0.32","5.346","0.02","0.3","30.543","4.78755","20.51","0","SATNPRO1962","24.997999999999998","0.35008","5"],
    [36481,"HCEP03730560","2024-10-12 07:00:00","11.7543","3.51921","24.846","1.827","7.54","0.303","5.52","0.04","0.24","30.5425","4.78749","20.43","0","SATNPRO1962","24.558","0.34402","5"],
    [36482,"HCEP03730560","2024-10-12 07:15:00","11.7577","3.52017","24.933","1.819","7.54","0.318","5.658","0.04","0.19","30.5489","4.78835","20.35","0","SATNPRO1962","24.59","0.34444","5"],
    [36483,"HCEP03730560","2024-10-12 07:30:00","11.759","3.52035","25.042","1.818","7.54","0.307","5.915","0.03","0.22","30.5495","4.78842","20.34","0","SATNPRO1962","24.642","0.34514","5"],
    [36484,"HCEP03730560","2024-10-12 07:45:00","11.7567","3.52001","25.154","1.802","7.54","0.367","6.189","0.1","0.21","30.548","4.78825","20.16","0","SATNPRO1962","24.348","0.34102","5"],
    [36485,"HCEP03730560","2024-10-12 08:00:00","11.7599","3.52037","25.303","1.803","7.54","0.309","5.085","0.04","0.31","30.5488","4.78833","20.17","0","SATNPRO1962","25.740000000000002","0.36058","5"],
    [36486,"HCEP03730560","2024-10-12 08:15:00","11.7644","3.52109","25.451","1.91","7.54","0.33","5.386","0.06","0.19","30.552","4.78873","21.37","0","SATNPRO1962","25.426","0.35614","5"],
    [36487,"HCEP03730560","2024-10-12 08:30:00","11.7678","3.52148","25.561","2.009","7.55","0.316","5.264","0.06","0.2","30.553","4.78881","22.48","0","SATNPRO1962","24.71","0.34606","5"],
    [36488,"HCEP03730560","2024-10-12 08:45:00","11.7744","3.52211","25.715","2.11","7.56","0.291","4.491","0.02","0.15","30.5534","4.7888","23.61","0","SATNPRO1962","26.704","0.37402","5"],
    [36489,"HCEP03730560","2024-10-12 09:00:00","11.7872","3.52337","25.872","2.399","7.58","0.255","3.093","0.04","0.18","30.5551","4.78885","26.85","0","SATNPRO1962","28.294","0.39632","5"],
    [36490,"HCEP03730560","2024-10-12 09:15:00","11.776","3.52177","26.049","2.657","7.59","0.29","3.604","0.03","0.1","30.5488","4.78814","29.74","0","SATNPRO1962","27.288","0.38222","5"],
    [36491,"HCEP03730560","2024-10-12 09:30:00","11.7697","3.52132","26.263","2.455","7.58","0.29","4.549","0.03","0.12","30.5496","4.78836","27.47","0","SATNPRO1962","25.85","0.36208","5"],
    [36492,"HCEP03730560","2024-10-12 09:45:00","11.7719","3.52153","26.357","2.286","7.58","0.491","4.226","0.54","0.41","30.5498","4.78836","25.57","0","SATNPRO1962","26.6","0.37256","5"],
    [36493,"HCEP03730560","2024-10-12 10:00:00","11.7695","3.52113","26.539","2.311","7.58","0.304","4.357","0.04","0.24","30.5478","4.78811","25.86","0","SATNPRO1962","26.37","0.3694","5"],
    [36494,"HCEP03730560","2024-10-12 10:15:00","11.7659","3.52079","26.701","2.259","7.57","0.317","4.928","0.02","0.12","30.5474","4.78812","25.27","0","SATNPRO1962","25.694","0.35988","5"],
    [36495,"HCEP03730560","2024-10-12 10:30:00","11.7675","3.52118","26.786","2.169","7.57","0.304","4.731","0.07","0.28","30.5499","4.78845","24.26","0","SATNPRO1962","25.728","0.36038","5"],
    [36496,"HCEP03730560","2024-10-12 10:45:00","11.765","3.52099","26.996","2.152","7.57","0.333","5.036","0.03","0.21","30.5499","4.78851","24.08","0","SATNPRO1962","25.656","0.3594","5"],
    [36497,"HCEP03730560","2024-10-12 11:00:00","11.7628","3.52053","27.119","2.114","7.56","0.298","4.959","0.05","0.21","30.5472","4.78816","23.65","0","SATNPRO1962","25.588","0.35838","5"],
    [36498,"HCEP03730560","2024-10-12 11:15:00","11.7607","3.52026","27.282","2.054","7.56","0.345","4.847","0.1","0.15","30.5463","4.78807","22.98","0","SATNPRO1962","25.164","0.35248","5"],
    [36499,"HCEP03730560","2024-10-12 11:30:00","11.7538","3.51926","27.396","1.974","7.55","0.293","4.999","0.02","0.14","30.5424","4.78762","22.08","0","SATNPRO1962","24.696","0.3459","5"],
    [36500,"HCEP03730560","2024-10-12 11:45:00","11.7521","3.51897","27.521","1.883","7.55","0.312","4.872","0.03","0.2","30.5409","4.78745","21.06","0","SATNPRO1962","24.868","0.34834","5"],
    [36501,"HCEP03730560","2024-10-12 12:00:00","11.7537","3.51916","27.625","1.852","7.54","0.268","4.532","0.01","0.13","30.5414","4.78749","20.71","0","SATNPRO1962","25.14","0.3521","5"],
    [36502,"HCEP03730560","2024-10-12 12:15:00","11.7536","3.5192","27.684","1.847","7.54","0.292","4.69","0.02","0.13","30.5418","4.78756","20.66","0","SATNPRO1962","24.898","0.34874","5"],
    [36503,"HCEP03730560","2024-10-12 12:30:00","11.7582","3.51984","27.727","1.879","7.54","0.279","4.679","0.02","0.21","30.5442","4.78783","21.02","0","SATNPRO1962","25.376","0.35542","5"],
    [36504,"HCEP03730560","2024-10-12 12:45:00","11.7641","3.52068","27.756","1.974","7.55","0.312","4.614","0.03","0.17","30.5474","4.7882","22.08","0","SATNPRO1962","26.19","0.36684","5"],
    [36505,"HCEP03730560","2024-10-12 13:00:00","11.7639","3.52051","27.78","2.061","7.55","0.306","4.995","0.03","0.2","30.5459","4.788","23.05","0","SATNPRO1962","25.432","0.35624","5"],
    [36506,"HCEP03730560","2024-10-12 13:15:00","11.7644","3.52063","27.812","2.067","7.55","0.322","4.473","0.03","0.22","30.5467","4.78811","23.12","0","SATNPRO1962","25.474","0.35678","5"],
    [36507,"HCEP03730560","2024-10-12 13:30:00","11.7672","3.52108","27.788","2.092","7.56","0.293","4.461","0.03","0.2","30.5488","4.78836","23.41","0","SATNPRO1962","25.716","0.3602","5"],
    [36508,"HCEP03730560","2024-10-12 13:45:00","11.7692","3.52135","27.762","2.131","7.56","0.329","4.882","0.02","0.18","30.5496","4.78845","23.84","0","SATNPRO1962","25.704","0.36004","5"],
    [36509,"HCEP03730560","2024-10-12 14:00:00","11.7678","3.52106","27.8","2.153","7.56","0.298","4.775","0.03","0.23","30.548","4.78823","24.09","0","SATNPRO1962","25.574","0.35822","5"],
    [36510,"HCEP03730560","2024-10-12 14:15:00","11.7646","3.52054","27.776","2.116","7.56","0.322","4.517","0.02","0.26","30.5456","4.78795","23.67","0","SATNPRO1962","24.8","0.34738","5"],
    [36511,"HCEP03730560","2024-10-12 14:30:00","11.7675","3.52118","27.725","2.067","7.56","0.308","4.669","0.03","0.28","30.5495","4.78845","23.12","0","SATNPRO1962","25.168","0.35252","5"],
    [36512,"HCEP03730560","2024-10-12 14:45:00","11.7691","3.52137","27.613","2.104","7.56","0.316","4.621","0.02","0.17","30.5501","4.7885","23.54","0","SATNPRO1962","25.374","0.3554","5"],
    [36513,"HCEP03730560","2024-10-12 15:00:00","11.773","3.52188","27.392","2.17","7.56","0.302","4.409","0.03","0.21","30.5517","4.78867","24.29","0","SATNPRO1962","26.052","0.36488","5"],
    [36514,"HCEP03730560","2024-10-12 15:15:00","11.7746","3.52197","27.334","2.268","7.57","0.313","3.932","0.05","0.26","30.5514","4.78859","25.38","0","SATNPRO1962","26.404","0.36984","5"],
    [36515,"HCEP03730560","2024-10-12 15:30:00","11.7766","3.52195","27.26","2.364","7.58","0.263","3.405","0.02","0.08","30.5496","4.78831","26.46","0","SATNPRO1962","26.73","0.37438","5"],
    [36516,"HCEP03730560","2024-10-12 15:45:00","11.7728","3.52188","27.232","2.367","7.58","0.331","4.457","0.02","0.18","30.552","4.7887","26.48","0","SATNPRO1962","26.004","0.36426","5"],
    [36517,"HCEP03730560","2024-10-12 16:00:00","11.7738","3.52193","27.137","2.243","7.57","0.31","4.498","0.04","0.59","30.5517","4.78863","25.1","0","SATNPRO1962","26.422","0.37004","5"],
    [36518,"HCEP03730560","2024-10-12 16:15:00","11.7746","3.52193","27.003","2.269","7.57","0.344","4.278","0.04","0.2","30.5511","4.78854","25.39","0","SATNPRO1962","26.194","0.3669","5"],
    [36519,"HCEP03730560","2024-10-12 16:30:00","11.7776","3.52232","26.916","2.318","7.58","0.307","4.078","0.05","0.16","30.5524","4.78866","25.94","0","SATNPRO1962","26.434","0.3703","5"],
    [36520,"HCEP03730560","2024-10-12 16:45:00","11.7785","3.52236","26.827","2.405","7.58","0.447","4.332","0.39","0.22","30.5521","4.78861","26.91","0","SATNPRO1962","26.566","0.37216","5"],
    [36521,"HCEP03730560","2024-10-12 17:00:00","11.7786","3.52231","26.776","2.402","7.58","0.309","4.502","0.03","0.22","30.5516","4.78854","26.89","0","SATNPRO1962","26.374","0.36938","5"],
    [36522,"HCEP03730560","2024-10-12 17:15:00","11.7767","3.5222","26.665","2.367","7.58","0.322","4.458","0.03","0.14","30.5521","4.78863","26.48","0","SATNPRO1962","26.212","0.3672","5"],
    [36523,"HCEP03730560","2024-10-12 17:30:00","11.7798","3.5226","26.591","2.327","7.58","0.303","4.56","0.02","0.2","30.5535","4.78877","26.04","0","SATNPRO1962","26.416","0.37002","5"],
    [36524,"HCEP03730560","2024-10-12 17:45:00","11.7806","3.52299","26.492","2.37","7.58","0.349","5.299","0.04","0.44","30.5566","4.7892","26.53","0","SATNPRO1962","26.1","0.36556","5"],
    [36525,"HCEP03730560","2024-10-12 18:00:00","11.7813","3.52312","26.406","2.342","7.58","0.31","5.151","0.02","0.23","30.5573","4.78928","26.21","0","SATNPRO1962","26.214","0.36718","5"],
    [36526,"HCEP03730560","2024-10-12 18:15:00","11.7838","3.52383","26.351","2.349","7.58","0.339","5.267","0.05","0.32","30.5621","4.78992","26.29","0","SATNPRO1962","26.25","0.36772","5"],
    [36527,"HCEP03730560","2024-10-12 18:30:00","11.7855","3.52424","26.279","2.355","7.58","0.321","5.883","0.02","0.39","30.5647","4.79026","26.37","0","SATNPRO1962","26.244","0.3676","5"],
    [36528,"HCEP03730560","2024-10-12 18:45:00","11.7889","3.52494","26.223","2.359","7.58","0.344","5.175","0.04","0.27","30.5687","4.79077","26.4","0","SATNPRO1962","26.13","0.366","5"],
    [36529,"HCEP03730560","2024-10-12 19:00:00","11.7912","3.5253","26.194","2.385","7.59","0.303","4.749","0.04","0.23","30.5703","4.79097","26.71","0","SATNPRO1962","26.434","0.37026","5"],
    [36530,"HCEP03730560","2024-10-12 19:15:00","11.7933","3.52579","26.17","2.415","7.59","0.341","5.107","0.05","0.25","30.5733","4.79135","27.04","0","SATNPRO1962","26.502","0.37122","5"],
    [36531,"HCEP03730560","2024-10-12 19:30:00","11.7954","3.52624","26.18","2.437","7.59","0.293","4.835","0.02","0.24","30.5758","4.79168","27.28","0","SATNPRO1962","26.446","0.37044","5"],
    [36532,"HCEP03730560","2024-10-12 19:45:00","11.7969","3.52648","26.195","2.444","7.59","0.312","4.847","0.02","0.23","30.5769","4.79181","27.37","0","SATNPRO1962","26.62","0.37284","5"],
    [36533,"HCEP03730560","2024-10-12 20:00:00","11.7978","3.52673","26.235","2.451","7.59","0.285","4.808","0.02","0.25","30.5786","4.79204","27.45","0","SATNPRO1962","26.631999999999998","0.37306","5"],
    [36534,"HCEP03730560","2024-10-12 20:15:00","11.7977","3.52689","26.263","2.437","7.59","0.334","5.407","0.03","0.5","30.5803","4.79228","27.29","0","SATNPRO1962","26.458","0.3706","5"],
    [36535,"HCEP03730560","2024-10-12 20:30:00","11.7982","3.52712","26.267","2.404","7.59","0.374","7.07","0.07","1.1","30.582","4.79251","26.92","0","SATNPRO1962","26.356","0.36914","5"],
    [36536,"HCEP03730560","2024-10-12 20:45:00","11.7983","3.52718","26.317","2.388","7.59","0.321","5.175","0.03","0.29","30.5825","4.79259","26.74","0","SATNPRO1962","26.718","0.3742","5"],
    [36537,"HCEP03730560","2024-10-12 21:00:00","11.798400000000001","3.52723","26.373","2.377","7.59","0.277","4.595","0.02","0.23","30.5828","4.79264","26.62","0","SATNPRO1962","26.618","0.3728","5"],
    [36538,"HCEP03730560","2024-10-12 21:15:00","11.7988","3.52733","26.445","2.37","7.59","0.363","4.188","0.31","0.13","30.5834","4.79272","26.54","0","SATNPRO1962","26.256","0.36776","5"],
    [36539,"HCEP03730560","2024-10-12 21:30:00","11.7986","3.52741","26.547","2.366","7.59","0.263","4.115","0.02","0.11","30.5844","4.79287","26.5","0","SATNPRO1962","26.292","0.36826","5"],
    [36540,"HCEP03730560","2024-10-12 21:45:00","11.7987","3.5274","26.613","2.35","7.59","0.274","4.235","0.02","0.16","30.5841","4.79283","26.32","0","SATNPRO1962","26.208","0.36706","5"],
    [36541,"HCEP03730560","2024-10-12 22:00:00","11.7986","3.52739","26.679","2.35","7.59","0.262","4.026","0.02","0.07","30.584","4.79283","26.32","0","SATNPRO1962","26.218","0.36724","5"],
    [36542,"HCEP03730560","2024-10-12 22:15:00","11.7978","3.52738","26.73","2.341","7.58","0.271","4.006","0.02","0.11","30.5846","4.79292","26.22","0","SATNPRO1962","26.048000000000002","0.36484","5"],
    [36543,"HCEP03730560","2024-10-12 22:30:00","11.7978","3.52741","26.777","2.311","7.58","0.833","24.572","0.81","26.02","30.585","4.79297","25.88","0","SATNPRO1962","25.884","0.36256","5"],
    [36544,"HCEP03730560","2024-10-12 22:45:00","11.7972","3.52735","26.82","2.285","7.58","0.291","4.222","0.05","0.4","30.5848","4.79296","25.58","0","SATNPRO1962","25.782","0.36112","5"],
    [36545,"HCEP03730560","2024-10-12 23:00:00","11.797","3.52729","26.863","2.271","7.58","0.244","4.181","0.01","0.12","30.5844","4.79291","25.43","0","SATNPRO1962","26.078","0.36528","5"],
    [36546,"HCEP03730560","2024-10-12 23:15:00","11.7956","3.52707","26.897","2.253","7.58","0.311","4.525","0.03","0.15","30.5833","4.79278","25.23","0","SATNPRO1962","25.57","0.35812","5"],
    [36547,"HCEP03730560","2024-10-12 23:30:00","11.7951","3.52715","26.931","2.22","7.58","0.281","4.695","0.03","0.12","30.5845","4.79296","24.86","0","SATNPRO1962","25.774","0.36102","5"],
    [36548,"HCEP03730560","2024-10-12 23:45:00","11.7963","3.52731","26.956","2.212","7.57","0.286","4.327","0.02","0.26","30.5851","4.79302","24.77","0","SATNPRO1962","26.03","0.36456","5"],
    [36549,"HCEP03730560","2024-10-13 00:00:00","11.7941","3.52703","26.963","2.211","7.57","0.29","5.642","0.02","0.07","30.5842","4.79293","24.76","0","SATNPRO1962","25.95","0.36346","5"],
    [36550,"HCEP03730560","2024-10-13 00:15:00","11.796","3.52728","26.969","2.213","7.58","0.276","4.623","0.01","0.15","30.5851","4.79303","24.78","0","SATNPRO1962","26.162","0.36642","5"],
    [36551,"HCEP03730560","2024-10-13 00:30:00","11.7949","3.52712","26.948","2.233","7.58","0.264","5.183","0.01","0.11","30.5844","4.79294","25.01","0","SATNPRO1962","25.882","0.36252","5"],
    [36552,"HCEP03730560","2024-10-13 00:45:00","11.7938","3.5268","26.903","2.207","7.57","0.32","5.194","0.07","0.16","30.5822","4.79265","24.71","0","SATNPRO1962","25.512","0.35734","5"],
    [36553,"HCEP03730560","2024-10-13 01:00:00","11.7951","3.52697","26.798","2.201","7.57","0.266","4.836","0.01","0.17","30.5829","4.79272","24.64","0","SATNPRO1962","26.124","0.36592","5"],
    [36554,"HCEP03730560","2024-10-13 01:15:00","11.7939","3.52693","26.768","2.211","7.57","0.284","4.725","0.01","0.14","30.5835","4.79282","24.75","0","SATNPRO1962","25.966","0.36374","5"],
    [36555,"HCEP03730560","2024-10-13 01:30:00","11.7945","3.52684","26.718","2.195","7.57","0.294","5.021","0.03","0.21","30.5822","4.79262","24.58","0","SATNPRO1962","25.924","0.3631","5"],
    [36556,"HCEP03730560","2024-10-13 01:45:00","11.7943","3.52678","26.639","2.211","7.57","0.303","4.712","0.03","0.1","30.5818","4.79256","24.76","0","SATNPRO1962","25.94","0.36334","5"],
    [36557,"HCEP03730560","2024-10-13 02:00:00","11.7961","3.52693","26.552","2.211","7.57","0.279","4.675","0.02","0.15","30.5818","4.79254","24.76","0","SATNPRO1962","26.2","0.36698","5"],
    [36558,"HCEP03730560","2024-10-13 02:15:00","11.7957","3.52689","26.453","2.22","7.57","0.284","4.308","0.02","0.13","30.5817","4.79252","24.86","0","SATNPRO1962","26.24","0.3675","5"],
    [36559,"HCEP03730560","2024-10-13 02:30:00","11.7966","3.52684","26.353","2.254","7.57","0.256","4.132","0.02","0.11","30.5806","4.79235","25.24","0","SATNPRO1962","26.596","0.37252","5"],
    [36560,"HCEP03730560","2024-10-13 02:45:00","11.7968","3.5268","26.234","2.31","7.58","0.33","5.491","0.02","0.42","30.58","4.79226","25.87","0","SATNPRO1962","26.634","0.37302","5"],
    [36561,"HCEP03730560","2024-10-13 03:00:00","11.7964","3.52695","26.133","2.327","7.58","0.283","5.71","0.02","0.18","30.5819","4.79253","26.06","0","SATNPRO1962","26.05","0.36484","5"],
    [36562,"HCEP03730560","2024-10-13 03:15:00","11.7966","3.52684","25.951","2.323","7.58","0.283","4.957","0.01","0.15","30.5807","4.79235","26.01","0","SATNPRO1962","26.482","0.37094","5"],
    [36563,"HCEP03730560","2024-10-13 03:30:00","11.7959","3.52663","25.791","2.342","7.58","0.271","5.187","0.01","0.15","30.5793","4.79215","26.23","0","SATNPRO1962","26.172","0.36656","5"],
    [36564,"HCEP03730560","2024-10-13 03:45:00","11.795","3.52665","25.645","2.335","7.58","0.284","5.183","0.01","0.13","30.5803","4.79229","26.15","0","SATNPRO1962","26.064","0.36506","5"],
    [36565,"HCEP03730560","2024-10-13 04:00:00","11.7949","3.5266","25.566","2.292","7.58","0.267","5.936","0.01","0.33","30.5799","4.79224","25.67","0","SATNPRO1962","26.072","0.36518","5"],
    [36566,"HCEP03730560","2024-10-13 04:15:00","11.7943","3.52679","25.376","2.267","7.58","0.284","5.977","0.02","0.19","30.5823","4.79257","25.39","0","SATNPRO1962","26.009999999999998","0.36434","5"],
    [36567,"HCEP03730560","2024-10-13 04:30:00","11.7942","3.52686","25.256","2.211","7.58","0.258","6.14","0.01","0.35","30.5832","4.79269","24.76","0","SATNPRO1962","26.004","0.36424","5"],
    [36568,"HCEP03730560","2024-10-13 04:45:00","11.794","3.5268","25.154","2.192","7.57","0.278","4.798","0.02","0.19","30.5828","4.79263","24.54","0","SATNPRO1962","25.836","0.36184","5"],
    [36569,"HCEP03730560","2024-10-13 05:00:00","11.7936","3.52668","24.997","2.187","7.57","0.272","4.566","0.03","0.19","30.582","4.79252","24.49","0","SATNPRO1962","25.503999999999998","0.35724","5"],
    [36570,"HCEP03730560","2024-10-13 05:15:00","11.7949","3.5268","24.849","2.179","7.57","0.271","4.662","0.01","0.12","30.5821","4.7925","24.4","0","SATNPRO1962","26.24","0.36752","5"],
    [36571,"HCEP03730560","2024-10-13 05:30:00","11.7962","3.52666","24.752","2.258","7.58","0.226","3.322","0.02","0.09","30.5797","4.79215","25.28","0","SATNPRO1962","26.882","0.37656","5"],
    [36572,"HCEP03730560","2024-10-13 05:45:00","11.7965","3.52667","24.682","2.347","7.58","0.26","3.603","0.01","0.15","30.5797","4.79213","26.28","0","SATNPRO1962","26.476","0.37084","5"],
    [36573,"HCEP03730560","2024-10-13 06:00:00","11.7964","3.52648","24.614","2.383","7.58","0.233","3.519","0.02","0.21","30.578","4.79189","26.68","0","SATNPRO1962","26.752","0.37472","5"],
    [36574,"HCEP03730560","2024-10-13 06:15:00","11.7961","3.52493","24.555","2.405","7.59","0.274","3.684","0.03","0.25","30.5634","4.78982","26.92","0","SATNPRO1962","26.836","0.3759","5"],
    [36575,"HCEP03730560","2024-10-13 06:30:00","11.7962","3.52657","24.534","2.404","7.59","0.283","4.382","0.03","0.21","30.579","4.79203","26.92","0","SATNPRO1962","26.572","0.37216","5"],
    [36576,"HCEP03730560","2024-10-13 06:45:00","11.7963","3.52652","24.518","2.383","7.59","0.283","4.097","0.02","0.28","30.5785","4.79195","26.69","0","SATNPRO1962","26.55","0.37188","5"],
    [36577,"HCEP03730560","2024-10-13 07:00:00","11.7941","3.52597","24.531","2.39","7.59","0.29","4.512","0.05","2.2","30.575","4.79149","26.76","0","SATNPRO1962","26.804","0.3754","5"],
    [36578,"HCEP03730560","2024-10-13 07:15:00","11.7939","3.52599","24.568","2.405","7.59","0.286","3.948","0.02","0.21","30.5754","4.79155","26.93","0","SATNPRO1962","26.648","0.37324","5"],
    [36579,"HCEP03730560","2024-10-13 07:30:00","11.7939","3.5261","24.621","2.39","7.59","0.275","4.396","0.03","0.37","30.5764","4.7917","26.76","0","SATNPRO1962","26.666","0.3735","5"],
    [36580,"HCEP03730560","2024-10-13 07:45:00","11.7932","3.52596","24.696","2.364","7.59","0.29","4.373","0.03","0.5","30.5755","4.79159","26.47","0","SATNPRO1962","26.34","0.36896","5"],
    [36581,"HCEP03730560","2024-10-13 08:00:00","11.792","3.52595","24.795","2.313","7.58","0.264","4.607","0.01","0.15","30.5764","4.79174","25.9","0","SATNPRO1962","25.79","0.36122","5"],
    [36582,"HCEP03730560","2024-10-13 08:15:00","11.7905","3.52538","24.92","2.286","7.58","0.324","4.102","0.06","0.11","30.5722","4.79117","25.6","0","SATNPRO1962","26.246","0.36758","5"],
    [36583,"HCEP03730560","2024-10-13 08:30:00","11.7893","3.52504","25.05","2.315","7.58","0.286","3.893","0.07","0.2","30.5698","4.79086","25.92","0","SATNPRO1962","26.068","0.3651","5"],
    [36584,"HCEP03730560","2024-10-13 08:45:00","11.7886","3.5249","25.176","2.306","7.58","0.313","4.318","0.04","0.23","30.5689","4.79075","25.81","0","SATNPRO1962","25.802","0.3614","5"],
    [36585,"HCEP03730560","2024-10-13 09:00:00","11.7874","3.52551","25.307","2.22","7.57","0.358","6.23","0.04","0.21","30.5758","4.79174","24.85","0","SATNPRO1962","24.604","0.34462","5"],
    [36586,"HCEP03730560","2024-10-13 09:15:00","11.7862","3.52517","25.478","2.05","7.57","0.362","5.895","0.04","0.28","30.5735","4.79144","22.95","0","SATNPRO1962","25.59","0.35846","5"],
    [36587,"HCEP03730560","2024-10-13 09:30:00","11.7862","3.52448","25.618","2.116","7.57","0.289","4.298","0.03","0.22","30.5667","4.7905","23.68","0","SATNPRO1962","26.524","0.37154","5"],
    [36588,"HCEP03730560","2024-10-13 09:45:00","11.7857","3.52424","25.739","2.26","7.58","0.288","4.116","0.02","0.17","30.5648","4.79024","25.3","0","SATNPRO1962","26.592","0.37246","5"],
    [36589,"HCEP03730560","2024-10-13 10:00:00","11.7837","3.52381","25.962","2.287","7.58","0.293","4.569","0.04","0.42","30.5621","4.7899","25.6","0","SATNPRO1962","26.52","0.37148","5"],
    [36590,"HCEP03730560","2024-10-13 10:15:00","11.7835","3.52369","26.087","2.288","7.58","0.308","4.335","0.04","0.47","30.5611","4.78977","25.62","0","SATNPRO1962","26.712","0.37414","5"],
    [36591,"HCEP03730560","2024-10-13 10:30:00","11.7805","3.5236","26.299","2.252","7.57","0.33","4.772","0.11","0.17","30.5626","4.79004","25.21","0","SATNPRO1962","25.928","0.36314","5"],
    [36592,"HCEP03730560","2024-10-13 10:45:00","11.783","3.5221","26.415","2.256","7.58","0.302","4.08","0.03","0.6","30.5461","4.78767","25.25","0","SATNPRO1962","27.578","0.38626","5"],
    [36593,"HCEP03730560","2024-10-13 11:00:00","11.7818","3.52224","26.59","2.511","7.59","0.276","3.336","0.02","0.1","30.5483","4.78801","28.1","0","SATNPRO1962","27.19","0.38082","5"],
    [36594,"HCEP03730560","2024-10-13 11:15:00","11.7715","3.52191","26.794","2.328","7.58","0.336","5.054","0.02","0.11","30.5536","4.78892","26.05","0","SATNPRO1962","24.066000000000003","0.3371","5"],
    [36595,"HCEP03730560","2024-10-13 11:30:00","11.7681","3.52112","27.004","1.956","7.56","0.324","5.002","0.03","0.18","30.5486","4.78827","21.89","0","SATNPRO1962","25.486","0.35696","5"],
    [36596,"HCEP03730560","2024-10-13 11:45:00","11.7816","3.52141","27.105","2.171","7.57","0.287","3.323","0.03","0.15","30.5403","4.78692","24.3","0","SATNPRO1962","28.118","0.39382","5"],
    [36597,"HCEP03730560","2024-10-13 12:00:00","11.7842","3.52136","27.298","2.702","7.6","0.247","2.201","0.05","0.06","30.5377","4.78652","30.24","0","SATNPRO1962","28.716","0.40222","5"],
    [36598,"HCEP03730560","2024-10-13 12:15:00","11.7842","3.52128","27.381","2.902","7.61","0.281","2.542","0.03","0.1","30.5368","4.78639","32.47","0","SATNPRO1962","28.498","0.39916","5"],
    [36599,"HCEP03730560","2024-10-13 12:30:00","11.7858","3.5206","27.453","3.006","7.62","0.273","2.621","0.06","0.14","30.529","4.78528","33.64","0","SATNPRO1962","29.214","0.40916","5"],
    [36600,"HCEP03730560","2024-10-13 12:45:00","11.7837","3.52015","27.545","3.128","7.63","0.263","1.849","0.05","0.14","30.5263","4.78493","35.01","0","SATNPRO1962","29.174","0.40862","5"],
    [36601,"HCEP03730560","2024-10-13 13:00:00","11.7814","3.51975","27.619","3.117","7.64","0.215","1.766","0.03","0.04","30.5243","4.78468","34.88","0","SATNPRO1962","29.326","0.41074","5"],
    [36602,"HCEP03730560","2024-10-13 13:15:00","11.7808","3.51962","27.659","3.091","7.64","0.247","1.77","0.03","0.07","30.5235","4.78459","34.59","0","SATNPRO1962","29.126","0.40798","5"],
    [36603,"HCEP03730560","2024-10-13 13:30:00","11.7768","3.52134","27.691","2.902","7.63","0.296","3.85","0.04","0.26","30.5433","4.78745","32.47","0","SATNPRO1962","25.906","0.36286","5"],
    [36604,"HCEP03730560","2024-10-13 13:45:00","11.7707","3.52226","27.708","2.293","7.59","0.364","5.484","0.07","0.16","30.5572","4.78949","25.65","0","SATNPRO1962","23.546","0.32982","5"],
    [36605,"HCEP03730560","2024-10-13 14:00:00","11.769","3.52144","27.712","1.835","7.57","0.296","4.744","0.03","0.16","30.5508","4.7886","20.53","0","SATNPRO1962","24.376","0.34144","5"],
    [36606,"HCEP03730560","2024-10-13 14:15:00","11.7705","3.52177","27.711","1.835","7.56","0.334","5.013","0.04","0.2","30.5527","4.78885","20.53","0","SATNPRO1962","23.948","0.33544","5"],
    [36607,"HCEP03730560","2024-10-13 14:30:00","11.7693","3.52144","27.693","1.847","7.55","0.305","4.762","0.03","0.3","30.5505","4.78856","20.66","0","SATNPRO1962","24.186","0.3388","5"],
    [36608,"HCEP03730560","2024-10-13 14:45:00","11.7695","3.52132","27.664","1.878","7.55","0.308","4.519","0.05","0.13","30.5492","4.78837","21.02","0","SATNPRO1962","24.486","0.34298","5"],
    [36609,"HCEP03730560","2024-10-13 15:00:00","11.7719","3.5216","27.621","1.908","7.55","0.289","4.371","0.04","0.51","30.5499","4.78844","21.35","0","SATNPRO1962","25.01","0.3503","5"],
    [36610,"HCEP03730560","2024-10-13 15:15:00","11.7751","3.52223","27.567","2.015","7.56","0.331","3.97","0.06","0.8","30.5533","4.78887","22.55","0","SATNPRO1962","25.832","0.36178","5"],
    [36611,"HCEP03730560","2024-10-13 15:30:00","11.782","3.5227","27.499","2.159","7.57","0.255","2.863","0.04","0.19","30.5523","4.78862","24.16","0","SATNPRO1962","27.576","0.38624","5"],
    [36612,"HCEP03730560","2024-10-13 15:45:00","11.7833","3.52267","27.417","2.459","7.58","0.303","2.814","0.08","0.21","30.551","4.78841","27.52","0","SATNPRO1962","27.806","0.38948","5"],
    [36613,"HCEP03730560","2024-10-13 16:00:00","11.7776","3.52261","27.337","2.413","7.58","0.277","3.845","0.05","0.22","30.5551","4.78907","27.01","0","SATNPRO1962","26.586","0.37238","5"],
    [36614,"HCEP03730560","2024-10-13 16:15:00","11.7748","3.52267","27.244","2.114","7.57","0.338","4.808","0.04","0.18","30.5581","4.78953","23.66","0","SATNPRO1962","24.919999999999998","0.34906","5"],
    [36615,"HCEP03730560","2024-10-13 16:30:00","11.7759","3.52288","27.137","1.943","7.56","0.307","4.786","0.03","0.14","30.5591","4.78966","21.74","0","SATNPRO1962","25.12","0.35184","5"],
    [36616,"HCEP03730560","2024-10-13 16:45:00","11.7832","3.52473","27.027","1.929","7.55","0.422","5.315","0.33","0.19","30.571","4.79122","21.6","0","SATNPRO1962","24.638","0.3451","5"],
    [36617,"HCEP03730560","2024-10-13 17:00:00","11.7861","3.52545","26.959","1.925","7.55","0.312","5.578","0.03","0.25","30.5756","4.79183","21.55","0","SATNPRO1962","24.45","0.34244","5"],
    [36618,"HCEP03730560","2024-10-13 17:15:00","11.7919","3.5262","26.851","1.976","7.55","0.355","5.434","0.06","0.67","30.5781","4.7921","22.12","0","SATNPRO1962","25.806","0.36144","5"],
    [36619,"HCEP03730560","2024-10-13 17:30:00","11.7891","3.52576","26.744","2.17","7.56","0.271","3.94","0.02","0.33","30.5762","4.79185","24.3","0","SATNPRO1962","26.938","0.3773","5"],
    [36620,"HCEP03730560","2024-10-13 17:45:00","11.7883","3.52555","26.677","2.2","7.57","0.396","9.665","0.18","11.25","30.5748","4.79167","24.63","0","SATNPRO1962","26.694","0.3739","5"],
    [36621,"HCEP03730560","2024-10-13 18:00:00","11.7861","3.52535","26.561","2.123","7.56","0.287","4.814","0.03","0.32","30.5748","4.79169","23.77","0","SATNPRO1962","26.4","0.36982","5"],
    [36622,"HCEP03730560","2024-10-13 18:15:00","11.7838","3.52509","26.406","2.046","7.56","0.328","5.375","0.02","0.32","30.5742","4.79163","22.9","0","SATNPRO1962","26.114","0.36578","5"],
    [36623,"HCEP03730560","2024-10-13 18:30:00","11.7843","3.52499","26.262","1.977","7.56","0.303","4.952","0.04","0.28","30.5729","4.79143","22.14","0","SATNPRO1962","25.99","0.364","5"],
    [36624,"HCEP03730560","2024-10-13 18:45:00","11.7837","3.52484","26.129","2.051","7.56","0.38","4.835","0.3","0.25","30.572","4.79131","22.96","0","SATNPRO1962","26.163999999999998","0.36648","5"],
    [36625,"HCEP03730560","2024-10-13 19:00:00","11.7795","3.52384","26.023","2.035","7.56","0.358","4.191","0.24","0.16","30.5659","4.7905","22.78","0","SATNPRO1962","26.212","0.36718","5"],
    [36626,"HCEP03730560","2024-10-13 19:15:00","11.7771","3.52363","25.954","2.017","7.55","0.282","4.336","0.03","0.19","30.5658","4.79052","22.58","0","SATNPRO1962","25.984","0.36392","5"],
    [36627,"HCEP03730560","2024-10-13 19:30:00","11.7775","3.52376","25.888","1.972","7.55","0.279","4.208","0.07","0.26","30.5668","4.79064","22.07","0","SATNPRO1962","25.622","0.35886","5"],
    [36628,"HCEP03730560","2024-10-13 19:45:00","11.7767","3.5235","25.854","1.943","7.55","0.284","3.68","0.02","0.14","30.565","4.7904","21.74","0","SATNPRO1962","26.016","0.36438","5"],
    [36629,"HCEP03730560","2024-10-13 20:00:00","11.7768","3.52368","25.83","1.933","7.55","0.236","3.774","0.01","0.04","30.5667","4.79064","21.64","0","SATNPRO1962","25.576","0.35824","5"],
    [36630,"HCEP03730560","2024-10-13 20:15:00","11.7769","3.52362","25.841","1.904","7.55","0.283","3.896","0.04","0.11","30.5659","4.79053","21.31","0","SATNPRO1962","25.992","0.36412","5"],
    [36631,"HCEP03730560","2024-10-13 20:30:00","11.7769","3.52365","25.874","1.903","7.55","0.237","4.066","0.02","0.09","30.5663","4.79058","21.3","0","SATNPRO1962","26.022000000000002","0.36448","5"],
    [36632,"HCEP03730560","2024-10-13 20:45:00","11.7776","3.52389","25.911","1.899","7.54","0.27","4.182","0.02","0.18","30.5679","4.79081","21.25","0","SATNPRO1962","25.594","0.35848","5"],
    [36633,"HCEP03730560","2024-10-13 21:00:00","11.7776","3.52386","25.95","1.894","7.54","0.238","3.959","0.02","0.09","30.5676","4.79076","21.2","0","SATNPRO1962","25.586","0.3584","5"],
    [36634,"HCEP03730560","2024-10-13 21:15:00","11.7776","3.52396","26.012","1.886","7.54","0.286","3.849","0.03","0.1","30.5686","4.7909","21.11","0","SATNPRO1962","25.436","0.35628","5"],
    [36635,"HCEP03730560","2024-10-13 21:30:00","11.7772","3.52391","26.1","1.869","7.54","0.248","4.208","0.02","0.12","30.5684","4.79089","20.92","0","SATNPRO1962","25.276","0.35406","5"],
    [36636,"HCEP03730560","2024-10-13 21:45:00","11.7774","3.52396","26.172","1.855","7.54","0.296","4.449","0.05","0.24","30.5687","4.79093","20.76","0","SATNPRO1962","25.12","0.35184","5"],
    [36637,"HCEP03730560","2024-10-13 22:00:00","11.7775","3.52402","26.241","1.84","7.54","0.266","4.421","0.04","0.19","30.5691","4.791","20.6","0","SATNPRO1962","24.766","0.3469","5"],
    [36638,"HCEP03730560","2024-10-13 22:15:00","11.7782","3.52413","26.313","1.839","7.54","0.272","4.548","0.01","0.18","30.5697","4.79106","20.58","0","SATNPRO1962","25.112","0.35176","5"],
    [36639,"HCEP03730560","2024-10-13 22:30:00","11.7787","3.5242","26.394","1.843","7.54","0.34","4.418","0.14","0.17","30.5699","4.7911","20.63","0","SATNPRO1962","25.354","0.3551","5"],
    [36640,"HCEP03730560","2024-10-13 22:45:00","11.7778","3.52413","26.479","1.832","7.54","0.281","4.314","0.02","0.08","30.5699","4.79111","20.51","0","SATNPRO1962","24.902","0.34882","5"],
    [36641,"HCEP03730560","2024-10-13 23:00:00","11.7762","3.52385","26.557","1.805","7.54","0.247","4.508","0.02","0.13","30.5685","4.79094","20.21","0","SATNPRO1962","24.848","0.34804","5"],
    [36642,"HCEP03730560","2024-10-13 23:15:00","11.7748","3.52363","26.631","1.767","7.53","0.285","4.654","0.04","0.18","30.5675","4.79083","19.77","0","SATNPRO1962","24.668","0.34548","5"],
    [36643,"HCEP03730560","2024-10-13 23:30:00","11.7737","3.52346","26.72","1.732","7.53","0.242","4.278","0.01","0.15","30.5667","4.79073","19.38","0","SATNPRO1962","24.764","0.34686","5"],
    [36644,"HCEP03730560","2024-10-13 23:45:00","11.7737","3.52333","26.803","1.728","7.53","0.296","4.438","0.04","0.15","30.5653","4.79055","19.34","0","SATNPRO1962","24.778","0.34704","5"],
    [36645,"HCEP03730560","2024-10-14 00:00:00","11.7754","3.52343","26.883","1.756","7.53","0.269","4.009","0.06","0.08","30.565","4.79048","19.65","0","SATNPRO1962","24.914","0.349","5"],
    [36646,"HCEP03730560","2024-10-14 00:15:00","11.7759","3.52348","26.96","1.834","7.54","0.301","4.269","0.06","0.1","30.565","4.79048","20.52","0","SATNPRO1962","25.566","0.35812","5"],
    [36647,"HCEP03730560","2024-10-14 00:30:00","11.7846","3.52399","27.023","1.942","7.55","0.268","3.896","0.07","0.1","30.5627","4.79003","21.74","0","SATNPRO1962","27.316","0.38258","5"],
    [36648,"HCEP03730560","2024-10-14 00:45:00","11.7772","3.52367","27.071","2.09","7.55","0.286","4.124","0.03","0.13","30.5656","4.79055","23.39","0","SATNPRO1962","25.29","0.35422","5"],
    [36649,"HCEP03730560","2024-10-14 01:00:00","11.7758","3.52392","27.104","1.905","7.54","2.828","247.23","0.61","99.94","30.5693","4.79109","21.32","0","SATNPRO1962","24.637999999999998","0.34508","5"],
    [36650,"HCEP03730560","2024-10-14 01:15:00","11.7789","3.52405","27.125","1.84","7.54","0.296","4.045","0.06","0.13","30.568","4.79087","20.6","0","SATNPRO1962","25.618","0.35882","5"],
    [36651,"HCEP03730560","2024-10-14 01:30:00","11.7794","3.52448","27.123","1.87","7.54","0.299","5.503","0.03","0.27","30.5717","4.79138","20.93","0","SATNPRO1962","25.19","0.3528","5"],
    [36652,"HCEP03730560","2024-10-14 01:45:00","11.7815","3.52465","27.126","1.852","7.54","0.346","6.074","0.08","0.52","30.5716","4.79133","20.73","0","SATNPRO1962","25.59","0.35844","5"],
    [36653,"HCEP03730560","2024-10-14 02:00:00","11.783","3.52478","27.095","1.891","7.54","0.31","5.186","0.06","0.28","30.5716","4.79132","21.17","0","SATNPRO1962","25.656","0.35938","5"],
    [36654,"HCEP03730560","2024-10-14 02:15:00","11.7841","3.52482","27.001","1.959","7.55","0.295","4.021","0.06","0.17","30.5712","4.79123","21.93","0","SATNPRO1962","26.264","0.36784","5"],
    [36655,"HCEP03730560","2024-10-14 02:30:00","11.7856","3.52482","26.986","2.04","7.55","0.257","3.65","0.02","0.1","30.5699","4.79104","22.84","0","SATNPRO1962","26.69","0.37384","5"],
    [36656,"HCEP03730560","2024-10-14 02:45:00","11.7881","3.52455","26.914","2.158","7.56","0.262","3.256","0.02","0.08","30.5653","4.79034","24.15","0","SATNPRO1962","27.108","0.37968","5"],
    [36657,"HCEP03730560","2024-10-14 03:00:00","11.7867","3.52481","26.828","2.236","7.56","0.247","3.827","0.02","0.14","30.5689","4.79086","25.03","0","SATNPRO1962","26.51","0.37132","5"],
    [36658,"HCEP03730560","2024-10-14 03:15:00","11.7866","3.52472","26.724","2.185","7.56","0.296","4.373","0.02","0.19","30.5683","4.79077","24.46","0","SATNPRO1962","26.342","0.36896","5"],
    [36659,"HCEP03730560","2024-10-14 03:30:00","11.7873","3.5245","26.596","2.212","7.57","0.239","3.331","0.02","0.06","30.5656","4.79038","24.76","0","SATNPRO1962","26.878","0.37648","5"],
    [36660,"HCEP03730560","2024-10-14 03:45:00","11.7874","3.52405","26.481","2.285","7.57","0.265","3.045","0.03","0.07","30.5612","4.78975","25.58","0","SATNPRO1962","26.970000000000002","0.37778","5"],
    [36661,"HCEP03730560","2024-10-14 04:00:00","11.7873","3.5242","26.351","2.338","7.58","0.283","3.244","0.07","0.12","30.5628","4.78996","26.17","0","SATNPRO1962","26.89","0.37666","5"],
    [36662,"HCEP03730560","2024-10-14 04:15:00","11.7868","3.52391","26.187","2.355","7.58","0.284","3.647","0.03","0.17","30.5604","4.78963","26.37","0","SATNPRO1962","27.254","0.38172","5"],
    [36663,"HCEP03730560","2024-10-14 04:30:00","11.7864","3.52378","26.045","2.384","7.58","0.277","3.485","0.04","0.32","30.5597","4.78952","26.69","0","SATNPRO1962","27.08","0.37928","5"],
    [36664,"HCEP03730560","2024-10-14 04:45:00","11.786","3.52381","25.888","2.385","7.58","4.989","45.382","5.05","30.07","30.5603","4.78961","26.7","0","SATNPRO1962","27.144","0.3802","5"],
    [36665,"HCEP03730560","2024-10-14 05:00:00","11.786","3.52387","25.746","2.371","7.58","0.405","9.782","0.39","12.78","30.5609","4.78969","26.54","0","SATNPRO1962","27.054","0.37892","5"],
    [36666,"HCEP03730560","2024-10-14 05:15:00","11.7855","3.52371","25.578","2.367","7.58","0.265","3.07","0.03","0.08","30.5598","4.78954","26.49","0","SATNPRO1962","27.146","0.38024","5"],
    [36667,"HCEP03730560","2024-10-14 05:30:00","11.784","3.52315","25.443","2.382","7.58","0.269","3.368","0.03","0.11","30.5558","4.78897","26.66","0","SATNPRO1962","27.088","0.3794","5"],
    [36668,"HCEP03730560","2024-10-14 05:45:00","11.7851","3.52363","25.288","2.426","7.59","0.32","3.454","0.1","0.16","30.5596","4.78949","27.15","0","SATNPRO1962","26.93","0.3772","5"],
    [36669,"HCEP03730560","2024-10-14 06:00:00","11.7844","3.52332","25.119","2.424","7.59","0.377","4.874","0.07","0.65","30.5572","4.78915","27.13","0","SATNPRO1962","27.548","0.38586","5"],
    [36670,"HCEP03730560","2024-10-14 06:15:00","11.7836","3.52326","24.985","2.424","7.59","0.356","5.478","0.05","0.54","30.5573","4.78917","27.13","0","SATNPRO1962","27.358","0.3832","5"],
    [36671,"HCEP03730560","2024-10-14 06:30:00","11.7839","3.52354","24.834","2.376","7.58","0.303","4.077","0.03","0.19","30.5598","4.78952","26.59","0","SATNPRO1962","27.196","0.3809","5"],
    [36672,"HCEP03730560","2024-10-14 06:45:00","11.783","3.52387","24.729","2.281","7.58","0.329","4.638","0.02","0.28","30.5639","4.79009","25.53","0","SATNPRO1962","26.362","0.36926","5"],
    [36673,"HCEP03730560","2024-10-14 07:00:00","11.7832","3.52362","24.671","2.168","7.57","0.293","3.683","0.03","0.2","30.5612","4.78971","24.27","0","SATNPRO1962","26.945999999999998","0.37742","5"],
    [36674,"HCEP03730560","2024-10-14 07:15:00","11.7827","3.52355","24.631","2.229","7.57","0.308","4.014","0.03","0.14","30.561","4.78969","24.95","0","SATNPRO1962","26.854","0.37612","5"],
    [36675,"HCEP03730560","2024-10-14 07:30:00","11.7826","3.52336","24.598","2.239","7.57","0.318","3.815","0.07","0.1","30.5593","4.78944","25.06","0","SATNPRO1962","27.137999999999998","0.38006","5"],
    [36676,"HCEP03730560","2024-10-14 07:45:00","11.7809","3.52347","24.608","2.22","7.57","0.355","5.476","0.04","0.31","30.5617","4.78981","24.85","0","SATNPRO1962","26.608","0.37268","5"],
    [36677,"HCEP03730560","2024-10-14 08:00:00","11.7818","3.52307","24.594","2.224","7.57","0.292","3.417","0.04","0.1","30.5571","4.78915","24.89","0","SATNPRO1962","27.544","0.38578","5"],
    [36678,"HCEP03730560","2024-10-14 08:15:00","11.7815","3.52303","24.667","2.354","7.58","0.364","4.232","0.09","0.21","30.557","4.78914","26.35","0","SATNPRO1962","27.216","0.3812","5"],
    [36679,"HCEP03730560","2024-10-14 08:30:00","11.7819","3.52312","24.692","2.306","7.58","0.31","4.248","0.03","0.33","30.5575","4.7892","25.81","0","SATNPRO1962","26.916","0.37696","5"],
    [36680,"HCEP03730560","2024-10-14 08:45:00","11.7822","3.52336","24.793","2.296","7.58","0.401","4.695","0.12","0.26","30.5595","4.78948","25.7","0","SATNPRO1962","26.426","0.37016","5"],
    [36681,"HCEP03730560","2024-10-14 09:00:00","11.7822","3.52388","24.882","2.122","7.57","0.333","5.216","0.04","0.24","30.5645","4.79019","23.76","0","SATNPRO1962","25.55","0.35786","5"],
    [36682,"HCEP03730560","2024-10-14 09:15:00","11.7833","3.52399","25.015","2.082","7.57","0.35","4.671","0.03","0.2","30.5646","4.79021","23.3","0","SATNPRO1962","25.942","0.3634","5"],
    [36683,"HCEP03730560","2024-10-14 09:30:00","11.7842","3.52403","25.201","2.155","7.57","0.322","3.768","0.05","0.19","30.5642","4.79014","24.12","0","SATNPRO1962","26.542","0.37176","5"],
    [36684,"HCEP03730560","2024-10-14 09:45:00","11.7851","3.52413","25.312","2.23","7.57","0.326","3.666","0.06","0.12","30.5643","4.79016","24.96","0","SATNPRO1962","26.678","0.37368","5"],
    [36685,"HCEP03730560","2024-10-14 10:00:00","11.7862","3.52427","25.463","2.25","7.57","0.331","3.38","0.16","0.1","30.5647","4.79021","25.19","0","SATNPRO1962","26.928","0.3772","5"],
    [36686,"HCEP03730560","2024-10-14 10:15:00","11.7867","3.52417","25.706","2.284","7.58","0.33","3.257","0.08","0.17","30.5633","4.79001","25.56","0","SATNPRO1962","27.041999999999998","0.37874","5"],
    [36687,"HCEP03730560","2024-10-14 10:30:00","11.7867","3.52422","25.859","2.311","7.58","0.292","3.566","0.02","0.16","30.5636","4.79007","25.87","0","SATNPRO1962","26.956","0.37758","5"],
    [36688,"HCEP03730560","2024-10-14 10:45:00","11.7874","3.52408","26.041","2.321","7.58","0.29","2.976","0.03","0.09","30.5617","4.7898","25.98","0","SATNPRO1962","27.328","0.38278","5"],
    [36689,"HCEP03730560","2024-10-14 11:00:00","11.7876","3.52376","26.14","2.385","7.58","0.288","2.942","0.03","0.08","30.5584","4.78933","26.7","0","SATNPRO1962","27.338","0.38294","5"],
    [36690,"HCEP03730560","2024-10-14 11:15:00","11.7856","3.52407","26.295","2.396","7.58","0.309","3.318","0.03","0.08","30.5629","4.79001","26.83","0","SATNPRO1962","26.49","0.37104","5"],
    [36691,"HCEP03730560","2024-10-14 11:30:00","11.785","3.52408","26.524","2.24","7.58","0.303","3.616","0.04","0.09","30.5635","4.79011","25.07","0","SATNPRO1962","26.238","0.3675","5"],
    [36692,"HCEP03730560","2024-10-14 11:45:00","11.7835","3.5241","26.67","2.155","7.57","0.308","3.906","0.02","0.14","30.5648","4.79032","24.12","0","SATNPRO1962","25.704","0.36006","5"],
    [36693,"HCEP03730560","2024-10-14 12:00:00","11.7789","3.52407","26.874","1.958","7.56","0.325","4.919","0.03","0.12","30.5682","4.79089","21.91","0","SATNPRO1962","24.674","0.34558","5"],
    [36694,"HCEP03730560","2024-10-14 12:15:00","11.7784","3.52414","27.051","1.782","7.54","0.345","5.132","0.03","0.12","30.5693","4.79105","19.94","0","SATNPRO1962","24.636","0.34508","5"],
    [36695,"HCEP03730560","2024-10-14 12:30:00","11.7822","3.52434","27.226","1.83","7.55","0.305","4.867","0.02","0.16","30.568","4.79083","20.48","0","SATNPRO1962","25.618","0.35884","5"],
    [36696,"HCEP03730560","2024-10-14 12:45:00","11.7783","3.52415","27.386","1.887","7.54","0.337","5.128","0.03","0.19","30.5693","4.79107","21.12","0","SATNPRO1962","24.512","0.34332","5"],
    [36697,"HCEP03730560","2024-10-14 13:00:00","11.7789","3.52422","27.528","1.751","7.54","0.38","4.546","0.17","0.17","30.5694","4.79109","19.59","0","SATNPRO1962","25.058","0.35102","5"],
    [36698,"HCEP03730560","2024-10-14 13:15:00","11.782","3.52436","27.648","1.83","7.54","0.322","3.986","0.03","0.17","30.5682","4.79087","20.49","0","SATNPRO1962","26.074","0.36522","5"],
    [36699,"HCEP03730560","2024-10-14 13:30:00","11.7772","3.52399","27.748","1.868","7.54","0.35","4.775","0.07","0.14","30.5685","4.791","20.91","0","SATNPRO1962","24.438","0.34234","5"],
    [36700,"HCEP03730560","2024-10-14 13:45:00","11.7784","3.52404","27.806","1.744","7.53","0.376","4.822","0.1","0.19","30.568","4.79092","19.52","0","SATNPRO1962","24.676","0.34564","5"],
    [36701,"HCEP03730560","2024-10-14 14:00:00","11.7796","3.52415","27.857","1.765","7.53","1.185","12.182","0.89","9.82","30.568","4.79089","19.76","0","SATNPRO1962","24.818","0.34762","5"],
    [36702,"HCEP03730560","2024-10-14 14:15:00","11.7781","3.52399","27.877","1.806","7.53","0.357","5.839","0.02","0.19","30.5677","4.79088","20.21","0","SATNPRO1962","24.348","0.34104","5"],
    [36703,"HCEP03730560","2024-10-14 14:30:00","11.7786","3.52386","27.883","1.826","7.53","0.344","5.661","0.06","0.61","30.566","4.79064","20.44","0","SATNPRO1962","24.394","0.34168","5"],
    [36704,"HCEP03730560","2024-10-14 14:45:00","11.7814","3.52408","27.865","1.846","7.54","0.337","4.484","0.04","0.36","30.5659","4.79058","20.66","0","SATNPRO1962","25.874","0.36244","5"],
    [36705,"HCEP03730560","2024-10-14 15:00:00","11.7793","3.52381","27.836","1.89","7.54","0.297","4.176","0.03","0.12","30.5651","4.79049","21.15","0","SATNPRO1962","25.146","0.35224","5"],
    [36706,"HCEP03730560","2024-10-14 15:15:00","11.7832","3.52413","27.796","1.912","7.54","0.31","3.702","0.03","0.18","30.565","4.79042","21.4","0","SATNPRO1962","26.57","0.37216","5"],
    [36707,"HCEP03730560","2024-10-14 15:30:00","11.7799","3.52397","27.728","2.059","7.55","0.345","4.204","0.08","0.31","30.5661","4.79061","23.05","0","SATNPRO1962","25.73","0.3604","5"],
    [36708,"HCEP03730560","2024-10-14 15:45:00","11.7782","3.52378","27.654","1.938","7.54","0.323","4.182","0.06","0.22","30.5657","4.79059","21.69","0","SATNPRO1962","25.36","0.35522","5"],
    [36709,"HCEP03730560","2024-10-14 16:00:00","11.774","3.52296","27.565","1.855","7.54","0.321","4.457","0.06","0.33","30.5613","4.79002","20.76","0","SATNPRO1962","25.044","0.35078","5"],
    [36710,"HCEP03730560","2024-10-14 16:15:00","11.7713","3.52269","27.456","1.774","7.53","0.322","4.316","0.04","0.17","30.5609","4.78999","19.86","0","SATNPRO1962","24.842","0.34794","5"],
    [36711,"HCEP03730560","2024-10-14 16:30:00","11.7692","3.52237","27.342","1.694","7.53","0.317","4.391","0.05","0.19","30.5596","4.78983","18.95","0","SATNPRO1962","24.786","0.34714","5"],
    [36712,"HCEP03730560","2024-10-14 16:45:00","11.767","3.52189","27.225","1.68","7.53","0.371","4.44","0.15","0.31","30.5569","4.78947","18.8","0","SATNPRO1962","24.994","0.35006","5"],
    [36713,"HCEP03730560","2024-10-14 17:00:00","11.7621","3.5207","27.098","1.705","7.53","0.333","3.755","0.21","0.25","30.5495","4.78848","19.07","0","SATNPRO1962","25.176","0.35266","5"],
    [36714,"HCEP03730560","2024-10-14 17:15:00","11.7608","3.52063","27.024","1.676","7.52","0.355","4.792","0.1","0.21","30.5499","4.78856","18.75","0","SATNPRO1962","25.032","0.35064","5"],
    [36715,"HCEP03730560","2024-10-14 17:30:00","11.7601","3.52051","26.843","1.635","7.52","0.339","4.801","0.06","0.57","30.5494","4.78849","18.29","0","SATNPRO1962","24.94","0.3493","5"],
    [36716,"HCEP03730560","2024-10-14 17:45:00","11.7587","3.52017","26.792","1.621","7.52","0.345","4.924","0.05","0.18","30.5473","4.78821","18.14","0","SATNPRO1962","24.98","0.3499","5"],
    [36717,"HCEP03730560","2024-10-14 18:00:00","11.7579","3.52009","26.823","1.605","7.52","0.323","5.088","0.05","0.21","30.5472","4.78822","17.95","0","SATNPRO1962","24.868","0.3483","5"],
    [36718,"HCEP03730560","2024-10-14 18:15:00","11.7517","3.51905","26.696","1.566","7.52","0.332","4.719","0.06","0.19","30.5422","4.78759","17.51","0","SATNPRO1962","24.826","0.34768","5"],
    [36719,"HCEP03730560","2024-10-14 18:30:00","11.754","3.51949","26.526","1.51","7.51","0.292","5.032","0.04","0.23","30.5447","4.7879","16.89","0","SATNPRO1962","24.518","0.34344","5"],
    [36720,"HCEP03730560","2024-10-14 18:45:00","11.7516","3.51908","26.33","1.467","7.51","0.319","4.986","0.02","0.23","30.5428","4.78765","16.41","0","SATNPRO1962","24.274","0.34006","5"],
    [36721,"HCEP03730560","2024-10-14 19:00:00","11.7484","3.51868","26.143","1.407","7.5","0.294","4.951","0.04","0.15","30.5417","4.78753","15.73","0","SATNPRO1962","24.048","0.33684","5"],
    [36722,"HCEP03730560","2024-10-14 19:15:00","11.7509","3.51913","25.962","1.366","7.5","0.315","5.051","0.02","0.18","30.544","4.78781","15.28","0","SATNPRO1962","23.782","0.3331","5"],
    [36723,"HCEP03730560","2024-10-14 19:30:00","11.7504","3.51926","25.819","1.327","7.5","0.294","4.693","0.04","0.29","30.5457","4.78805","14.84","0","SATNPRO1962","23.518","0.32942","5"],
    [36724,"HCEP03730560","2024-10-14 19:45:00","11.7401","3.5172","25.681","1.27","7.49","0.327","4.581","0.04","0.18","30.5345","4.7866","14.2","0","SATNPRO1962","23.244","0.32556","5"],
    [36725,"HCEP03730560","2024-10-14 20:00:00","11.7409","3.51755","25.572","1.202","7.49","0.309","4.711","0.03","0.24","30.5371","4.78696","13.44","0","SATNPRO1962","23.304","0.3264","5"],
    [36726,"HCEP03730560","2024-10-14 20:15:00","11.7444","3.51814","25.484","1.201","7.49","0.34","4.592","0.07","0.17","30.54","4.78732","13.43","0","SATNPRO1962","23.23","0.32538","5"],
    [36727,"HCEP03730560","2024-10-14 20:30:00","11.7453","3.51829","25.446","1.212","7.49","0.294","4.445","0.05","0.27","30.5407","4.78739","13.55","0","SATNPRO1962","23.306","0.32644","5"],
    [36728,"HCEP03730560","2024-10-14 20:45:00","11.7434","3.51784","25.41","1.22","7.49","0.327","4.29","0.03","0.16","30.538","4.78704","13.64","0","SATNPRO1962","23.368","0.3273","5"],
    [36729,"HCEP03730560","2024-10-14 21:00:00","11.7421","3.51762","25.445","1.216","7.48","0.306","4.31","0.03","0.25","30.537","4.78691","13.6","0","SATNPRO1962","23.432","0.32824","5"],
    [36730,"HCEP03730560","2024-10-14 21:15:00","11.7413","3.5175","25.489","1.202","7.48","0.352","4.428","0.06","0.11","30.5364","4.78685","13.44","0","SATNPRO1962","23.326","0.32672","5"],
    [36731,"HCEP03730560","2024-10-14 21:30:00","11.7412","3.51755","25.563","1.194","7.48","0.346","4.611","0.07","0.16","30.5369","4.78693","13.35","0","SATNPRO1962","23.352","0.3271","5"],
    [36732,"HCEP03730560","2024-10-14 21:45:00","11.7384","3.51696","25.676","1.188","7.48","0.314","4.418","0.05","0.33","30.5335","4.7865","13.28","0","SATNPRO1962","23.396","0.3277","5"],
    [36733,"HCEP03730560","2024-10-14 22:00:00","11.741","3.51751","25.725","1.178","7.48","0.289","4.171","0.03","0.18","30.5367","4.78691","13.17","0","SATNPRO1962","23.314","0.32652","5"],
    [36734,"HCEP03730560","2024-10-14 22:15:00","11.7409","3.51746","25.818","1.175","7.48","0.353","4.644","0.16","1.89","30.5362","4.78685","13.13","0","SATNPRO1962","23.328","0.32674","5"],
    [36735,"HCEP03730560","2024-10-14 22:30:00","11.7413","3.51756","25.894","1.174","7.48","0.294","4.652","0.04","0.21","30.5368","4.78693","13.13","0","SATNPRO1962","23.31","0.3265","5"],
    [36736,"HCEP03730560","2024-10-14 22:45:00","11.7409","3.51748","25.954","1.176","7.48","0.313","4.362","0.04","0.12","30.5363","4.78687","13.15","0","SATNPRO1962","23.387999999999998","0.32758","5"],
    [36737,"HCEP03730560","2024-10-14 23:00:00","11.7416","3.51762","26.114","1.176","7.48","0.267","4.248","0.02","0.11","30.5371","4.78697","13.15","0","SATNPRO1962","23.184","0.3247","5"],
    [36738,"HCEP03730560","2024-10-14 23:15:00","11.7431","3.51797","26.192","1.177","7.48","0.317","5.229","0.02","0.25","30.5391","4.78725","13.17","0","SATNPRO1962","23.21","0.32506","5"],
    [36739,"HCEP03730560","2024-10-14 23:30:00","11.7441","3.51815","26.357","1.184","7.48","0.291","4.488","0.03","0.14","30.5399","4.78736","13.24","0","SATNPRO1962","23.292","0.32622","5"],
    [36740,"HCEP03730560","2024-10-14 23:45:00","11.7443","3.51819","26.483","1.184","7.48","0.305","4.53","0.02","0.19","30.5402","4.7874","13.24","0","SATNPRO1962","23.218","0.32522","5"],
    [36741,"HCEP03730560","2024-10-15 00:00:00","11.7449","3.51826","26.567","1.192","7.48","0.274","4.143","0.02","0.14","30.5403","4.7874","13.33","0","SATNPRO1962","23.294","0.32626","5"],
    [36742,"HCEP03730560","2024-10-15 00:15:00","11.7462","3.5186","26.755","1.195","7.48","0.33","4.735","0.05","0.28","30.5425","4.78771","13.37","0","SATNPRO1962","22.788","0.31916","5"],
    [36743,"HCEP03730560","2024-10-15 00:30:00","11.747","3.51878","26.894","1.191","7.48","0.37","4.705","0.38","0.14","30.5435","4.78785","13.31","0","SATNPRO1962","22.976","0.32184","5"],
    [36744,"HCEP03730560","2024-10-15 00:45:00","11.7476","3.5187","27.03","1.197","7.48","0.345","4.036","0.11","0.19","30.5422","4.78766","13.39","0","SATNPRO1962","23.36","0.32724","5"],
    [36745,"HCEP03730560","2024-10-15 01:00:00","11.7458","3.5185","27.152","1.252","7.48","0.31","4.062","0.05","0.13","30.5417","4.78763","14.01","0","SATNPRO1962","23.488","0.329","5"],
    [36746,"HCEP03730560","2024-10-15 01:15:00","11.744","3.51806","27.221","1.258","7.48","0.523","4.423","0.22","0.55","30.5388","4.78725","14.07","0","SATNPRO1962","23.742","0.33258","5"],
    [36747,"HCEP03730560","2024-10-15 01:30:00","11.7367","3.51664","27.345","1.243","7.48","0.325","4.182","0.15","0.12","30.5312","4.78628","13.9","0","SATNPRO1962","23.544","0.3298","5"],
    [36748,"HCEP03730560","2024-10-15 01:45:00","11.7371","3.51675","27.43","1.201","7.48","0.307","3.274","0.07","0.1","30.5319","4.78638","13.43","0","SATNPRO1962","23.782","0.3331","5"],
    [36749,"HCEP03730560","2024-10-15 02:00:00","11.7399","3.5173","27.473","1.182","7.48","0.266","4.006","0.03","0.11","30.5348","4.78675","13.22","0","SATNPRO1962","23.332","0.3268","5"],
    [36750,"HCEP03730560","2024-10-15 02:15:00","11.7393","3.51728","27.461","1.176","7.48","0.315","4.022","0.04","0.06","30.5351","4.78681","13.15","0","SATNPRO1962","23.348","0.32702","5"],
    [36751,"HCEP03730560","2024-10-15 02:30:00","11.7371","3.51678","27.442","1.179","7.48","0.258","3.964","0.02","0.04","30.5322","4.78642","13.18","0","SATNPRO1962","23.232","0.32542","5"],
    [36752,"HCEP03730560","2024-10-15 02:45:00","11.736","3.51649","27.452","1.183","7.48","0.328","3.117","0.05","0.04","30.5303","4.78617","13.22","0","SATNPRO1962","23.668","0.33154","5"],
    [36753,"HCEP03730560","2024-10-15 03:00:00","11.7434","3.51818","27.436","1.176","7.48","0.312","4.876","0.11","0.1","30.5404","4.78749","13.15","0","SATNPRO1962","23.406000000000002","0.32786","5"],
    [36754,"HCEP03730560","2024-10-15 03:15:00","11.7402","3.51746","27.342","1.155","7.48","0.327","3.928","0.06","0.21","30.5361","4.78693","12.91","0","SATNPRO1962","23.518","0.3294","5"],
    [36755,"HCEP03730560","2024-10-15 03:30:00","11.7409","3.51763","27.268","1.157","7.48","0.354","3.925","0.19","0.06","30.5373","4.78708","12.94","0","SATNPRO1962","23.198","0.32494","5"],
    [36756,"HCEP03730560","2024-10-15 03:45:00","11.7416","3.51775","27.163","1.145","7.47","0.293","4.032","0.05","0.1","30.5379","4.78715","12.81","0","SATNPRO1962","23.240000000000002","0.32554","5"],
    [36757,"HCEP03730560","2024-10-15 04:00:00","11.7415","3.5177","27.06","1.137","7.47","0.252","3.771","0.01","0.05","30.5376","4.7871","12.71","0","SATNPRO1962","23.454","0.32848","5"],
    [36758,"HCEP03730560","2024-10-15 04:15:00","11.741","3.51756","26.943","1.147","7.48","0.31","3.644","0.05","0.11","30.5366","4.78696","12.83","0","SATNPRO1962","23.306","0.32646","5"],
    [36759,"HCEP03730560","2024-10-15 04:30:00","11.7405","3.51752","26.81","1.155","7.47","0.273","4.037","0.04","0.07","30.5368","4.78699","12.91","0","SATNPRO1962","23.688","0.33178","5"],
    [36760,"HCEP03730560","2024-10-15 04:45:00","11.74","3.51723","26.671","1.164","7.48","0.275","3.789","0.03","0.08","30.5344","4.78665","13.01","0","SATNPRO1962","23.624","0.33092","5"],
    [36761,"HCEP03730560","2024-10-15 05:00:00","11.7403","3.51731","26.517","1.173","7.48","0.316","3.645","0.12","0.12","30.535","4.78672","13.12","0","SATNPRO1962","23.806","0.33342","5"],
    [36762,"HCEP03730560","2024-10-15 05:15:00","11.7383","3.51693","26.372","1.169","7.48","0.547","3.545","0.44","0.17","30.533","4.78646","13.07","0","SATNPRO1962","22.148","0.31022","5"],
    [36763,"HCEP03730560","2024-10-15 05:30:00","11.7374","3.5167","26.219","1.178","7.48","0.382","3.38","0.14","0.18","30.5316","4.78627","13.17","0","SATNPRO1962","23.534","0.32968","5"],
    [36764,"HCEP03730560","2024-10-15 05:45:00","11.7164","3.51304","26.067","1.13","7.47","0.367","3.404","0.12","0.1","30.5136","4.78401","12.63","0","SATNPRO1962","23.238","0.3255","5"],
    [36765,"HCEP03730560","2024-10-15 06:00:00","11.6959","3.50817","25.9","1.033","7.47","0.494","3.562","0.12","0.12","30.4835","4.78006","11.54","0","SATNPRO1962","23.802","0.33342","5"],
    [36766,"HCEP03730560","2024-10-15 06:15:00","11.696","3.50858","25.765","0.973","7.46","0.554","3.432","0.25","0.14","30.4875","4.7806","10.86","0","SATNPRO1962","23.054000000000002","0.32288","5"],
    [36767,"HCEP03730560","2024-10-15 06:30:00","11.7313","3.51538","25.592","0.932","7.46","0.637","3.888","0.43","0.18","30.5241","4.78527","10.41","0","SATNPRO1962","22.812","0.31954","5"],
    [36768,"HCEP03730560","2024-10-15 06:45:00","11.7199","3.51345","25.421","0.999","7.46","0.836","3.831","0.64","0.37","30.515","4.78412","11.16","0","SATNPRO1962","22.56","0.316","5"],
    [36769,"HCEP03730560","2024-10-15 07:00:00","11.7053","3.51069","25.265","0.933","7.46","0.568","3.907","0.17","0.19","30.5004","4.78227","10.42","0","SATNPRO1962","22.216","0.31118","5"],
    [36770,"HCEP03730560","2024-10-15 07:15:00","11.7142","3.51262","25.094","0.871","7.45","0.561","3.698","0.16","0.12","30.5118","4.78374","9.74","0","SATNPRO1962","22.220000000000002","0.31122","5"],
    [36771,"HCEP03730560","2024-10-15 07:30:00","11.7125","3.51213","24.959","0.892","7.45","0.538","3.766","0.15","0.27","30.5085","4.78329","9.97","0","SATNPRO1962","22.308","0.31242","5"],
    [36772,"HCEP03730560","2024-10-15 07:45:00","11.7191","3.51345","24.853","0.908","7.45","1.958","4.21","3.91","0.4","30.5158","4.78422","10.15","0","SATNPRO1962","22.35","0.31308","5"],
    [36773,"HCEP03730560","2024-10-15 08:00:00","11.7228","3.51425","24.785","0.927","7.45","0.437","4.113","0.07","0.28","30.5205","4.78484","10.36","0","SATNPRO1962","22.448","0.31442","5"],
    [36774,"HCEP03730560","2024-10-15 08:15:00","11.7278","3.51531","24.717","0.933","7.45","0.476","4.099","0.31","0.15","30.5267","4.78563","10.43","0","SATNPRO1962","22.014","0.30836","5"],
    [36775,"HCEP03730560","2024-10-15 08:30:00","11.7291","3.5155","24.722","0.935","7.45","0.526","4.273","0.42","0.28","30.5275","4.78573","10.45","0","SATNPRO1962","22.11","0.30972","5"],
    [36776,"HCEP03730560","2024-10-15 08:45:00","11.7272","3.51502","24.733","0.945","7.46","0.427","4.074","0.19","0.3","30.5244","4.78531","10.56","0","SATNPRO1962","22.494","0.31506","5"],
    [36777,"HCEP03730560","2024-10-15 09:00:00","11.7242","3.51448","24.776","0.96","7.46","0.483","4.424","0.17","0.24","30.5216","4.78497","10.73","0","SATNPRO1962","22.462","0.3146","5"],
    [36778,"HCEP03730560","2024-10-15 09:15:00","11.7214","3.51373","24.843","0.971","7.46","0.454","4.277","0.12","0.29","30.5167","4.78431","10.85","0","SATNPRO1962","22.658","0.31734","5"],
    [36779,"HCEP03730560","2024-10-15 09:30:00","11.7118","3.5115","24.937","0.985","7.46","0.684","3.252","1.57","0.11","30.503","4.78252","11.01","0","SATNPRO1962","23.212","0.32512","5"],
    [36780,"HCEP03730560","2024-10-15 09:45:00","11.7059","3.51024","25.032","1.013","7.46","0.384","3.37","0.08","0.23","30.4956","4.78157","11.31","0","SATNPRO1962","23.474","0.3288","5"],
    [36781,"HCEP03730560","2024-10-15 10:00:00","11.7021","3.50911","25.178","1.05","7.46","0.583","3.417","0.49","0.27","30.4878","4.78053","11.72","0","SATNPRO1962","24.128","0.33798","5"],
    [36782,"HCEP03730560","2024-10-15 10:15:00","11.7059","3.50991","25.341","1.089","7.46","0.521","3.716","0.31","0.19","30.4923","4.78112","12.17","0","SATNPRO1962","23.798000000000002","0.33334","5"],
    [36783,"HCEP03730560","2024-10-15 10:30:00","11.7098","3.51189","25.503","1.1","7.46","0.442","3.763","0.18","0.12","30.5081","4.78331","12.29","0","SATNPRO1962","24.164","0.33846","5"],
    [36784,"HCEP03730560","2024-10-15 10:45:00","11.7285","3.51547","25.689","1.046","7.46","0.593","6.856","0.39","3.76","30.5273","4.78576","11.7","0","SATNPRO1962","22.244","0.31156","5"],
    [36785,"HCEP03730560","2024-10-15 11:00:00","11.7295","3.51574","25.865","0.982","7.46","0.479","4.786","0.11","0.27","30.529","4.78599","10.97","0","SATNPRO1962","22.404","0.3138","5"],
    [36786,"HCEP03730560","2024-10-15 11:15:00","11.7268","3.51518","26.05","0.96","7.46","0.527","4.507","0.12","0.2","30.5257","4.78557","10.73","0","SATNPRO1962","22.38","0.31346","5"],
    [36787,"HCEP03730560","2024-10-15 11:30:00","11.7259","3.51501","26.262","0.938","7.45","0.48","4.991","0.08","0.43","30.5247","4.78546","10.49","0","SATNPRO1962","22.164","0.31046","5"],
    [36788,"HCEP03730560","2024-10-15 11:45:00","11.7261","3.51506","26.426","0.919","7.45","0.532","5.133","0.14","0.26","30.525","4.78551","10.27","0","SATNPRO1962","22.156","0.31036","5"],
    [36789,"HCEP03730560","2024-10-15 12:00:00","11.7278","3.51543","26.622","0.916","7.45","0.491","4.957","0.11","0.35","30.5271","4.7858","10.23","0","SATNPRO1962","22.25","0.31164","5"],
    [36790,"HCEP03730560","2024-10-15 12:15:00","11.7297","3.5158","26.809","0.94","7.45","0.512","4.945","0.12","0.23","30.529","4.78604","10.51","0","SATNPRO1962","22.244","0.31158","5"],
    [36791,"HCEP03730560","2024-10-15 12:30:00","11.7314","3.51611","26.977","0.941","7.45","0.426","4.624","0.09","0.33","30.5306","4.78626","10.52","0","SATNPRO1962","22.41","0.31384","5"],
    [36792,"HCEP03730560","2024-10-15 12:45:00","11.7294","3.51562","27.129","0.954","7.45","0.415","4.763","0.07","0.93","30.5274","4.78584","10.66","0","SATNPRO1962","22.892","0.32066","5"],
    [36793,"HCEP03730560","2024-10-15 13:00:00","11.7274","3.51517","27.293","0.975","7.46","0.476","4.352","0.27","0.28","30.5247","4.78549","10.89","0","SATNPRO1962","23.052","0.32286","5"],
    [36794,"HCEP03730560","2024-10-15 13:15:00","11.7279","3.51518","27.492","0.989","7.46","0.491","4.646","0.23","0.25","30.5243","4.78544","11.05","0","SATNPRO1962","22.912","0.32088","5"],
    [36795,"HCEP03730560","2024-10-15 13:30:00","11.7278","3.51507","27.686","0.971","7.46","0.377","4.819","0.05","0.14","30.5232","4.7853","10.85","0","SATNPRO1962","22.608","0.3167","5"],
    [36796,"HCEP03730560","2024-10-15 13:45:00","11.7295","3.51536","27.838","0.956","7.45","0.42","5.011","0.08","0.25","30.5246","4.78548","10.68","0","SATNPRO1962","22.532","0.31566","5"],
    [36797,"HCEP03730560","2024-10-15 14:00:00","11.7298","3.51555","27.987","0.961","7.46","0.372","4.656","0.08","0.2","30.5261","4.78569","10.75","0","SATNPRO1962","22.648","0.31724","5"],
    [36798,"HCEP03730560","2024-10-15 14:15:00","11.7307","3.51578","28.089","0.974","7.46","0.405","4.579","0.13","0.18","30.5275","4.78589","10.88","0","SATNPRO1962","22.82","0.31964","5"],
    [36799,"HCEP03730560","2024-10-15 14:30:00","11.7307","3.51574","28.119","0.986","7.46","0.352","4.34","0.06","0.25","30.5271","4.78584","11.03","0","SATNPRO1962","23.142","0.32418","5"],
    [36800,"HCEP03730560","2024-10-15 14:45:00","11.7307","3.51574","28.086","1.007","7.46","0.393","4.316","0.07","0.17","30.5271","4.78583","11.26","0","SATNPRO1962","23.284000000000002","0.32614","5"],
    [36801,"HCEP03730560","2024-10-15 15:00:00","11.7316","3.51588","28.04","1.016","7.46","0.393","4.474","0.18","0.71","30.5277","4.7859","11.35","0","SATNPRO1962","22.992","0.32202","5"],
    [36802,"HCEP03730560","2024-10-15 15:15:00","11.7325","3.51598","27.977","1.019","7.46","0.391","4.788","0.07","0.41","30.528","4.78592","11.39","0","SATNPRO1962","23.276","0.32604","5"],
    [36803,"HCEP03730560","2024-10-15 15:30:00","11.7328","3.51603","27.935","1.026","7.46","0.36","4.616","0.09","0.47","30.5283","4.78596","11.47","0","SATNPRO1962","23.148","0.32422","5"],
    [36804,"HCEP03730560","2024-10-15 15:45:00","11.7325","3.51592","27.85","1.034","7.46","0.475","4.456","0.16","0.54","30.5275","4.78584","11.56","0","SATNPRO1962","23.316","0.3266","5"],
    [36805,"HCEP03730560","2024-10-15 16:00:00","11.732","3.51586","27.769","1.059","7.46","0.373","4.105","0.16","0.12","30.5273","4.78582","11.83","0","SATNPRO1962","23.464","0.32866","5"],
    [36806,"HCEP03730560","2024-10-15 16:15:00","11.7328","3.51596","27.652","1.07","7.46","0.343","4.207","0.05","0.14","30.5276","4.78585","11.96","0","SATNPRO1962","23.413999999999998","0.32798","5"],
    [36807,"HCEP03730560","2024-10-15 16:30:00","11.7328","3.516","27.54","1.061","7.46","0.348","4.458","0.06","0.37","30.5281","4.78592","11.86","0","SATNPRO1962","23.246","0.3256","5"],
    [36808,"HCEP03730560","2024-10-15 16:45:00","11.733","3.51605","27.407","1.053","7.46","0.363","4.406","0.09","0.17","30.5285","4.78596","11.78","0","SATNPRO1962","23.202","0.32496","5"],
    [36809,"HCEP03730560","2024-10-15 17:00:00","11.7329","3.51608","27.273","1.038","7.46","0.302","4.143","0.04","0.29","30.5289","4.78601","11.61","0","SATNPRO1962","22.992","0.32202","5"],
    [36810,"HCEP03730560","2024-10-15 17:15:00","11.7333","3.51614","27.14","1.032","7.46","0.335","4.294","0.05","0.27","30.5292","4.78603","11.53","0","SATNPRO1962","23.124","0.32386","5"],
    [36811,"HCEP03730560","2024-10-15 17:30:00","11.7337","3.51618","27.004","1.035","7.46","0.32","3.994","0.11","0.14","30.5294","4.78605","11.57","0","SATNPRO1962","22.684","0.31772","5"],
    [36812,"HCEP03730560","2024-10-15 17:45:00","11.7352","3.5163","26.874","1.049","7.46","0.289","3.99","0.02","0.09","30.5293","4.78601","11.73","0","SATNPRO1962","23.222","0.32528","5"],
    [36813,"HCEP03730560","2024-10-15 18:00:00","11.7357","3.51633","26.714","1.072","7.46","0.279","3.995","0.04","0.11","30.5292","4.78598","11.99","0","SATNPRO1962","23.548","0.32982","5"],
    [36814,"HCEP03730560","2024-10-15 18:15:00","11.735900000000001","3.51634","26.538","1.097","7.47","0.306","3.798","0.04","0.11","30.5292","4.78597","12.27","0","SATNPRO1962","24.498","0.34316","5"],
    [36815,"HCEP03730560","2024-10-15 18:30:00","11.7358","3.51623","26.357","1.116","7.47","0.295","4.219","0.04","0.25","30.5283","4.78584","12.48","0","SATNPRO1962","23.672","0.33158","5"],
    [36816,"HCEP03730560","2024-10-15 18:45:00","11.7356","3.51618","26.175","1.134","7.47","0.279","3.935","0.03","0.15","30.5281","4.7858","12.68","0","SATNPRO1962","24.218","0.33922","5"],
    [36817,"HCEP03730560","2024-10-15 19:00:00","11.7364","3.51634","25.989","1.15","7.47","0.308","4.261","0.07","0.18","30.5291","4.78591","12.86","0","SATNPRO1962","23.76","0.33282","5"],
    [36818,"HCEP03730560","2024-10-15 19:15:00","11.7369","3.51599","25.867","1.204","7.47","0.353","3.551","0.19","0.12","30.5253","4.78536","13.46","0","SATNPRO1962","24.944","0.34938","5"],
    [36819,"HCEP03730560","2024-10-15 19:30:00","11.739","3.51625","25.677","1.323","7.48","0.367","3.841","0.06","0.18","30.5262","4.78545","14.8","0","SATNPRO1962","24.832","0.34778","5"],
    [36820,"HCEP03730560","2024-10-15 19:45:00","11.7345","3.5157","25.505","1.285","7.48","0.322","3.724","0.04","0.13","30.5246","4.78528","14.37","0","SATNPRO1962","23.886","0.33456","5"],
    [36821,"HCEP03730560","2024-10-15 20:00:00","11.7355","3.51585","25.346","1.242","7.48","0.381","4.104","0.12","0.27","30.5253","4.78536","13.89","0","SATNPRO1962","23.828","0.33376","5"],
    [36822,"HCEP03730560","2024-10-15 20:15:00","11.7357","3.51586","25.224","1.238","7.48","0.371","4.322","0.05","0.16","30.5252","4.78533","13.84","0","SATNPRO1962","24.067999999999998","0.33712","5"],
    [36823,"HCEP03730560","2024-10-15 20:30:00","11.7343","3.51569","25.108","1.227","7.48","0.328","3.833","0.04","0.11","30.5248","4.78529","13.71","0","SATNPRO1962","23.826","0.33372","5"],
    [36824,"HCEP03730560","2024-10-15 20:45:00","11.7354","3.51568","25.008","1.249","7.48","0.436","3.719","0.23","0.12","30.5239","4.78514","13.97","0","SATNPRO1962","24.488","0.34298","5"],
    [36825,"HCEP03730560","2024-10-15 21:00:00","11.7341","3.51516","24.968","1.284","7.48","0.389","4.037","0.07","0.15","30.52","4.7846","14.36","0","SATNPRO1962","25.108","0.35172","5"],
    [36826,"HCEP03730560","2024-10-15 21:15:00","11.732","3.51525","24.962","1.279","7.48","0.375","4.506","0.04","0.19","30.5225","4.78499","14.3","0","SATNPRO1962","23.83","0.33376","5"],
    [36827,"HCEP03730560","2024-10-15 21:30:00","11.7314","3.51511","24.976","1.191","7.48","0.456","4.33","0.41","0.21","30.5217","4.78488","13.31","0","SATNPRO1962","24.074","0.33716","5"],
    [36828,"HCEP03730560","2024-10-15 21:45:00","11.7275","3.51415","25.034","1.18","7.48","0.354","3.631","0.08","0.11","30.5156","4.78409","13.19","0","SATNPRO1962","24.342","0.34098","5"],
    [36829,"HCEP03730560","2024-10-15 22:00:00","11.7322","3.5153","25.108","1.213","7.48","0.365","4.185","0.08","0.18","30.5228","4.78504","13.56","0","SATNPRO1962","24.026","0.33658","5"],
    [36830,"HCEP03730560","2024-10-15 22:15:00","11.7363","3.51579","25.195","1.214","7.48","0.433","3.941","0.13","0.17","30.5241","4.78517","13.57","0","SATNPRO1962","24.426000000000002","0.3421","5"],
    [36831,"HCEP03730560","2024-10-15 22:30:00","11.7413","3.51666","25.302","1.273","7.48","0.415","4.596","0.25","0.3","30.5283","4.7857","14.23","0","SATNPRO1962","24.182","0.33874","5"],
    [36832,"HCEP03730560","2024-10-15 22:45:00","11.7421","3.51699","25.445","1.266","7.48","0.391","4.575","0.07","0.25","30.5308","4.78604","14.15","0","SATNPRO1962","23.496","0.3291","5"],
    [36833,"HCEP03730560","2024-10-15 23:00:00","11.7573","3.51897","25.564","1.343","7.49","0.378","5.009","0.05","0.17","30.5374","4.78677","15.02","0","SATNPRO1962","25.036","0.35066","5"],
    [36834,"HCEP03730560","2024-10-15 23:15:00","11.7846","3.52285","25.704","1.707","7.51","0.456","5.517","0.13","0.37","30.5523","4.78849","19.1","0","SATNPRO1962","27.298","0.38234","5"],
    [36835,"HCEP03730560","2024-10-15 23:30:00","11.7917","3.52403","25.768","2.072","7.53","0.41","5.565","0.1","0.39","30.5578","4.78916","23.19","0","SATNPRO1962","27.558","0.386","5"],
    [36836,"HCEP03730560","2024-10-15 23:45:00","11.7958","3.52469","25.937","2.207","7.55","0.394","5.212","0.05","0.21","30.5606","4.78952","24.71","0","SATNPRO1962","27.728","0.38836","5"],
    [36837,"HCEP03730560","2024-10-16 00:00:00","11.7945","3.52464","26.045","2.276","7.56","0.428","5.178","0.1","0.2","30.5613","4.78963","25.48","0","SATNPRO1962","27.428","0.38418","5"],
    [36838,"HCEP03730560","2024-10-16 00:15:00","11.7919","3.52417","26.208","2.243","7.56","0.442","5.323","0.08","0.2","30.5588","4.78933","25.12","0","SATNPRO1962","27.346","0.383","5"],
    [36839,"HCEP03730560","2024-10-16 00:30:00","11.795","3.52484","26.324","2.219","7.56","0.445","5.619","0.1","0.27","30.5626","4.78983","24.85","0","SATNPRO1962","27.248","0.38168","5"],
    [36840,"HCEP03730560","2024-10-16 00:45:00","11.8003","3.52583","26.446","2.254","7.57","0.408","5.774","0.04","0.37","30.5677","4.79048","25.24","0","SATNPRO1962","27.648","0.38726","5"],
    [36841,"HCEP03730560","2024-10-16 01:00:00","11.8057","3.52651","26.639","2.329","7.57","0.355","4.695","0.05","0.45","30.5698","4.79071","26.08","0","SATNPRO1962","27.978","0.39186","5"],
    [36842,"HCEP03730560","2024-10-16 01:15:00","11.8069","3.52673","26.807","2.374","7.58","0.401","5.505","0.08","0.22","30.5708","4.79085","26.59","0","SATNPRO1962","27.828","0.38978","5"],
    [36843,"HCEP03730560","2024-10-16 01:30:00","11.8099","3.52719","26.982","2.396","7.58","0.327","4.907","0.03","0.23","30.5728","4.79109","26.84","0","SATNPRO1962","28.056","0.39296","5"],
    [36844,"HCEP03730560","2024-10-16 01:45:00","11.8113","3.52736","27.188","2.434","7.58","0.361","4.819","0.04","0.25","30.5732","4.79114","27.27","0","SATNPRO1962","28.014","0.3924","5"],
    [36845,"HCEP03730560","2024-10-16 02:00:00","11.8139","3.52771","27.351","2.46","7.59","0.311","4.518","0.03","0.17","30.5743","4.79128","27.55","0","SATNPRO1962","28.186","0.3948","5"],
    [36846,"HCEP03730560","2024-10-16 02:15:00","11.8145","3.52778","27.448","2.486","7.59","0.335","4.466","0.04","0.15","30.5745","4.7913","27.85","0","SATNPRO1962","28.25","0.39566","5"],
    [36847,"HCEP03730560","2024-10-16 02:30:00","11.8122","3.52745","27.576","2.485","7.59","0.327","4.987","0.03","0.34","30.5731","4.79114","27.83","0","SATNPRO1962","28.24","0.39558","5"],
    [36848,"HCEP03730560","2024-10-16 02:45:00","11.8126","3.52747","27.652","2.469","7.59","0.351","4.656","0.04","0.14","30.5729","4.79111","27.66","0","SATNPRO1962","28.067999999999998","0.39312","5"],
    [36849,"HCEP03730560","2024-10-16 03:00:00","11.813","3.52753","27.681","2.468","7.59","0.329","4.729","0.04","0.15","30.5732","4.79115","27.65","0","SATNPRO1962","28.092","0.39348","5"],
    [36850,"HCEP03730560","2024-10-16 03:15:00","11.8147","3.52775","27.646","2.48","7.59","0.334","4.76","0.03","0.14","30.5739","4.79122","27.78","0","SATNPRO1962","28.18","0.3947","5"],
    [36851,"HCEP03730560","2024-10-16 03:30:00","11.8139","3.52762","27.698","2.484","7.59","0.312","5.633","0.03","0.26","30.5734","4.79116","27.82","0","SATNPRO1962","28.188","0.39484","5"],
    [36852,"HCEP03730560","2024-10-16 03:45:00","11.8119","3.52736","27.708","2.474","7.59","0.381","6.363","0.05","0.68","30.5724","4.79106","27.71","0","SATNPRO1962","28.202","0.395","5"],
    [36853,"HCEP03730560","2024-10-16 04:00:00","11.8139","3.52762","27.686","2.468","7.59","0.325","3.701","0.07","0.19","30.5734","4.79116","27.65","0","SATNPRO1962","28.266","0.39594","5"],
    [36854,"HCEP03730560","2024-10-16 04:15:00","11.8123","3.52741","27.613","2.464","7.59","0.333","3.813","0.06","0.16","30.5726","4.79106","27.6","0","SATNPRO1962","28.334","0.3969","5"],
    [36855,"HCEP03730560","2024-10-16 04:30:00","11.8184","3.52816","27.518","2.498","7.59","0.328","3.249","0.19","0.11","30.575","4.79131","27.98","0","SATNPRO1962","28.632","0.40102","5"],
    [36856,"HCEP03730560","2024-10-16 04:45:00","11.8157","3.52775","27.417","2.562","7.6","0.337","3.419","0.15","0.08","30.5732","4.79109","28.7","0","SATNPRO1962","28.506","0.39928","5"],
    [36857,"HCEP03730560","2024-10-16 05:00:00","11.8203","3.52821","27.282","2.581","7.6","0.235","3.016","0.03","0.09","30.5739","4.79112","28.92","0","SATNPRO1962","28.73","0.40242","5"],
    [36858,"HCEP03730560","2024-10-16 05:15:00","11.7857","3.52291","27.112","2.427","7.59","0.341","4.5","0.04","0.21","30.5514","4.78842","27.17","0","SATNPRO1962","26.534","0.37166","5"],
    [36859,"HCEP03730560","2024-10-16 05:30:00","11.7798","3.52181","26.964","2.087","7.57","0.282","3.67","0.03","0.22","30.5458","4.7877","23.36","0","SATNPRO1962","26.732","0.37442","5"],
    [36860,"HCEP03730560","2024-10-16 05:45:00","11.7786","3.52145","26.831","2.02","7.56","0.282","3.085","0.02","0.1","30.5433","4.78737","22.6","0","SATNPRO1962","27.078","0.3793","5"],
    [36861,"HCEP03730560","2024-10-16 06:00:00","11.7847","3.52212","26.705","2.028","7.56","0.306","3.126","0.09","0.25","30.5448","4.78748","22.7","0","SATNPRO1962","27.02","0.37846","5"],
    [36862,"HCEP03730560","2024-10-16 06:15:00","11.7829","3.52199","26.551","2.091","7.56","0.29","3.347","0.04","0.19","30.545","4.78754","23.4","0","SATNPRO1962","27.244","0.38164","5"],
    [36863,"HCEP03730560","2024-10-16 06:30:00","11.774","3.52107","26.415","2.021","7.55","0.312","3.429","0.08","0.17","30.5435","4.78744","22.61","0","SATNPRO1962","26.566","0.37208","5"],
    [36864,"HCEP03730560","2024-10-16 06:45:00","11.7892","3.52359","26.245","1.971","7.55","0.332","3.169","0.06","0.1","30.5554","4.78889","22.07","0","SATNPRO1962","26.65","0.37326","5"],
    [36865,"HCEP03730560","2024-10-16 07:00:00","11.8238","3.52761","26.041","2.279","7.57","0.38","2.416","0.15","0.15","30.5658","4.78985","25.53","0","SATNPRO1962","28.866","0.4043","5"],
    [36866,"HCEP03730560","2024-10-16 07:15:00","11.8235","3.52801","25.886","2.667","7.59","0.345","2.791","0.08","0.13","30.5699","4.79043","29.88","0","SATNPRO1962","28.742","0.40258","5"],
    [36867,"HCEP03730560","2024-10-16 07:30:00","11.8215","3.5281","25.673","2.687","7.6","0.426","2.762","0.25","0.12","30.5725","4.79081","30.11","0","SATNPRO1962","28.692","0.40188","5"],
    [36868,"HCEP03730560","2024-10-16 07:45:00","11.8174","3.52794","25.492","2.629","7.6","0.43","3.509","0.13","0.18","30.5744","4.79113","29.46","0","SATNPRO1962","28.492","0.3991","5"],
    [36869,"HCEP03730560","2024-10-16 08:00:00","11.8156","3.52783","25.35","2.553","7.6","0.357","3.333","0.06","0.25","30.5749","4.79122","28.59","0","SATNPRO1962","28.424","0.39814","5"],
    [36870,"HCEP03730560","2024-10-16 08:15:00","11.8103","3.52734","25.154","2.483","7.59","0.349","3.623","0.08","0.25","30.5745","4.79123","27.81","0","SATNPRO1962","27.92","0.39108","5"],
    [36871,"HCEP03730560","2024-10-16 08:30:00","11.8101","3.5271","25.001","2.435","7.59","0.426","4.093","0.12","0.21","30.5725","4.79094","27.27","0","SATNPRO1962","27.784","0.38916","5"],
    [36872,"HCEP03730560","2024-10-16 08:45:00","11.808","3.52691","24.898","2.396","7.59","0.442","3.937","0.12","0.32","30.5724","4.79094","26.83","0","SATNPRO1962","28.086","0.39338","5"],
    [36873,"HCEP03730560","2024-10-16 09:00:00","11.8096","3.52705","24.853","2.367","7.59","0.495","4.246","0.16","0.21","30.5725","4.79094","26.51","0","SATNPRO1962","27.736","0.3885","5"],
    [36874,"HCEP03730560","2024-10-16 09:15:00","11.8096","3.52705","24.854","2.376","7.59","0.441","3.985","0.1","0.17","30.5725","4.79093","26.61","0","SATNPRO1962","27.864","0.3903","5"],
    [36875,"HCEP03730560","2024-10-16 09:30:00","11.8074","3.52678","24.88","2.365","7.58","0.458","4.16","0.21","0.24","30.5717","4.79086","26.49","0","SATNPRO1962","28.114","0.3938","5"],
    [36876,"HCEP03730560","2024-10-16 09:45:00","11.8034","3.52607","24.93","2.32","7.58","0.51","4.403","0.14","0.23","30.5681","4.79041","25.98","0","SATNPRO1962","27.572","0.3862","5"],
    [36877,"HCEP03730560","2024-10-16 10:00:00","11.7998","3.52549","25.01","2.261","7.58","0.311","4.513","0.04","0.43","30.5655","4.7901","25.32","0","SATNPRO1962","27.567999999999998","0.38612","5"],
    [36878,"HCEP03730560","2024-10-16 10:15:00","11.8027","3.52601","25.11","2.217","7.57","0.471","4.136","0.12","0.19","30.568","4.79042","24.83","0","SATNPRO1962","27.33","0.38278","5"],
    [36879,"HCEP03730560","2024-10-16 10:30:00","11.8073","3.52675","25.245","2.254","7.58","0.501","5.209","0.08","0.23","30.5713","4.79083","25.24","0","SATNPRO1962","27.848","0.39006","5"],
    [36880,"HCEP03730560","2024-10-16 10:45:00","11.8106","3.52739","25.419","2.321","7.58","0.426","4.276","0.06","0.1","30.5747","4.79127","26","0","SATNPRO1962","28.04","0.39276","5"],
    [36881,"HCEP03730560","2024-10-16 11:00:00","11.812","3.52762","25.659","2.352","7.58","0.421","4.537","0.06","0.26","30.5756","4.79139","26.35","0","SATNPRO1962","27.686","0.38778","5"],
    [36882,"HCEP03730560","2024-10-16 11:15:00","11.8135","3.52784","25.842","2.343","7.58","0.478","4.503","0.1","0.35","30.5765","4.7915","26.25","0","SATNPRO1962","27.664","0.38744","5"],
    [36883,"HCEP03730560","2024-10-16 11:30:00","11.8149","3.52805","25.909","2.348","7.58","0.453","4.855","0.08","0.14","30.5773","4.7916","26.3","0","SATNPRO1962","27.614","0.38678","5"],
    [36884,"HCEP03730560","2024-10-16 11:45:00","11.8158","3.52821","26.12","2.371","7.58","0.419","4.458","0.05","0.19","30.5781","4.79172","26.56","0","SATNPRO1962","27.71","0.38814","5"],
    [36885,"HCEP03730560","2024-10-16 12:00:00","11.816","3.52826","26.331","2.38","7.59","0.402","4.577","0.04","0.27","30.5783","4.79175","26.67","0","SATNPRO1962","27.74","0.38848","5"],
    [36886,"HCEP03730560","2024-10-16 12:15:00","11.818","3.52857","26.548","2.37","7.59","0.455","4.78","0.11","0.39","30.5796","4.79191","26.55","0","SATNPRO1962","27.82","0.38968","5"],
    [36887,"HCEP03730560","2024-10-16 12:30:00","11.8177","3.52853","26.719","2.394","7.59","0.459","4.939","0.1","0.26","30.5794","4.7919","26.82","0","SATNPRO1962","27.838","0.38992","5"],
    [36888,"HCEP03730560","2024-10-16 12:45:00","11.8176","3.52853","26.862","2.384","7.59","0.423","4.557","0.06","0.38","30.5794","4.7919","26.7","0","SATNPRO1962","27.849999999999998","0.39004","5"],
    [36889,"HCEP03730560","2024-10-16 13:00:00","11.8155","3.52832","27.042","2.37","7.59","0.45","4.746","0.08","0.39","30.579","4.79189","26.55","0","SATNPRO1962","27.594","0.3865","5"],
    [36890,"HCEP03730564","2024-10-16 13:45:00","11.9588","3.54264","27.453","3.272857142857143","7.52","4.916","8497.221","0.01","0","30.5988","4.79269","36.84","4","SATNPRO1963","21.988","0.308","5"],
    [36891,"HCEP03730564","2024-10-16 14:00:00","11.8671","3.53341","27.619","2.711428571428571","7.54","6.497","8507.413","0.02","0","30.5853","4.79209","30.42","4","SATNPRO1963","22.196","0.31088","5"],
    [36892,"HCEP03730564","2024-10-16 14:15:00","11.8359","3.5307","27.779","2.611428571428572","7.55","6.537","8509.249","0.02","0","30.5849","4.79248","29.27","4","SATNPRO1963","22.21","0.31106","5"],
    [36893,"HCEP03730564","2024-10-16 14:30:00","11.8192","3.52966","27.915","2.55","7.56","6.578","8511.607","0.02","0","30.5885","4.79323","28.58","4","SATNPRO1963","22.43","0.31418","5"],
    [36894,"HCEP03730564","2024-10-16 14:45:00","11.8144","3.52926","28.012","2.498571428571429","7.56","6.58","8512.573","0.02","3.07","30.5885","4.79331","28","4","SATNPRO1963","22.63","0.31698","5"],
    [36895,"HCEP03730564","2024-10-16 15:00:00","11.812","3.52905","28.079","2.468571428571428","7.57","6.561","8512.573","0.02","0","30.5885","4.79334","27.67","4","SATNPRO1963","22.516000000000002","0.31532","5"],
    [36896,"HCEP03730564","2024-10-16 15:15:00","11.8114","3.52898","28.111","2.458571428571429","7.57","6.558","8512.912","0.02","0","30.5883","4.79332","27.55","4","SATNPRO1963","22.704","0.318","5"],
    [36897,"HCEP03730564","2024-10-16 15:30:00","11.8116","3.52902","28.119","2.448571428571428","7.57","6.558","8513.747","0.02","5.74","30.5885","4.79334","27.43","4","SATNPRO1963","22.4","0.3137","5"],
    [36898,"HCEP03730564","2024-10-16 15:45:00","11.812","3.52901","28.099","2.447142857142858","7.57","6.554","8513.747","0.02","5.74","30.5881","4.79329","27.42","4","SATNPRO1963","22.736","0.31846","5"],
    [36899,"HCEP03730564","2024-10-16 16:00:00","11.8128","3.52907","28.054","2.462857142857143","7.58","6.552","8514.166","0.02","6.51","30.588","4.79326","27.6","4","SATNPRO1963","22.844","0.31994","5"],
    [36900,"HCEP03730564","2024-10-16 16:15:00","11.8139","3.52913","27.982","2.488571428571428","7.58","6.554","8514.531","0.01","8.68","30.5878","4.79321","27.89","0","SATNPRO1963","23.002","0.32222","5"],
    [36901,"HCEP03730564","2024-10-16 16:30:00","11.8147","3.52924","27.897","2.511428571428572","7.58","6.524","8513.277","0.01","5.31","30.5881","4.79324","28.14","0","SATNPRO1963","22.796","0.3193","5"],
    [36902,"HCEP03730564","2024-10-16 16:45:00","11.815","3.52924","27.777","2.52","7.59","6.177","8504.454","0.02","0","30.588","4.79321","28.25","0","SATNPRO1963","23.106","0.32366","5"],
    [36903,"HCEP03730564","2024-10-16 17:00:00","11.8162","3.5293","27.657","2.528571428571428","7.58","6.243","8349.062","0.02","49.14","30.5876","4.79313","28.34","0","SATNPRO1963","23.192","0.32484","5"],
    [36904,"HCEP03730564","2024-10-16 17:15:00","11.8171","3.52936","27.54","2.547142857142857","7.59","6.234","8258.229","0.02","41.45","30.5875","4.7931","28.54","0","SATNPRO1963","22.97","0.32174","5"],
    [36905,"HCEP03730564","2024-10-16 17:30:00","11.8205","3.52964","27.379","2.597142857142857","7.59","6.172","8124.382","0.03","35.72","30.5875","4.79304","29.11","0","SATNPRO1963","23.494","0.32908","5"],
    [36906,"HCEP03730564","2024-10-16 17:45:00","11.8227","3.52978","27.24","2.678571428571429","7.59","6.25","8431.822","0.01","14.56","30.587","4.79294","30.03","0","SATNPRO1963","23.82","0.33362","5"],
    [36907,"HCEP03730564","2024-10-16 18:00:00","11.8241","3.52983","27.08","2.731428571428571","7.6","6.255","8427.063","0.01","13.72","30.5865","4.79283","30.62","0","SATNPRO1963","23.92","0.33506","5"],
    [36908,"HCEP03730564","2024-10-16 18:15:00","11.8173","3.52852","26.909","2.745714285714286","7.61","6.249","8380.639","0.01","12.27","30.5795","4.79193","30.77","0","SATNPRO1963","23.887999999999998","0.33458","5"],
    [36909,"HCEP03730564","2024-10-16 18:30:00","11.8204","3.52919","26.716","2.734285714285714","7.61","6.252","8408.35","0.01","17.49","30.5834","4.79243","30.64","0","SATNPRO1963","23.726","0.3323","5"],
    [36910,"HCEP03730564","2024-10-16 18:45:00","11.8225","3.52947","26.492","2.734285714285714","7.6","6.225","8230.01","0.01","18.28","30.5845","4.79254","30.64","0","SATNPRO1963","23.932000000000002","0.33524","5"],
    [36911,"HCEP03730564","2024-10-16 19:00:00","11.8162","3.52906","26.279","2.654285714285714","7.6","6.217","8284.934","0.01","22.55","30.5858","4.79281","29.75","0","SATNPRO1963","22.858","0.32016","5"],
    [36912,"HCEP03730564","2024-10-16 19:15:00","11.82","3.5293","26.063","2.615714285714286","7.6","6.235","8364.279","0.01","22.86","30.5851","4.79264","29.31","0","SATNPRO1963","23.812","0.33352","5"],
    [36913,"HCEP03730564","2024-10-16 19:30:00","11.8223","3.52941","25.815","2.674285714285714","7.6","6.051","8071.482","0.02","8.68","30.5844","4.79249","29.97","0","SATNPRO1963","24.252","0.3397","5"],
    [36914,"HCEP03730564","2024-10-16 19:45:00","11.8155","3.52881","25.598","2.624285714285714","7.6","6.043","8104.747","0.02","24.74","30.5843","4.79256","29.4","0","SATNPRO1963","23.188000000000002","0.32482","5"],
    [36915,"HCEP03730564","2024-10-16 20:00:00","11.8139","3.52858","25.384","2.527142857142857","7.6","5.992","8077.209","0.03","27.7","30.5835","4.79246","28.32","0","SATNPRO1963","23.396","0.32768","5"],
    [36916,"HCEP03730564","2024-10-16 20:15:00","11.8168","3.52867","25.137","2.521428571428571","7.59","5.735","7994.188","0.07","21.26","30.5821","4.7922","28.25","0","SATNPRO1963","23.62","0.33086","5"],
    [36917,"HCEP03730564","2024-10-16 20:30:00","11.8146","3.52829","24.899","2.558571428571429","7.59","5.531","8000.075","0.1","23.97","30.5803","4.79196","28.66","0","SATNPRO1963","23.718","0.33224","5"],
    [36918,"HCEP03730564","2024-10-16 20:45:00","11.8141","3.52789","24.708","2.577142857142857","7.59","5.434","7997.108","0.1","18.79","30.577","4.79151","28.88","0","SATNPRO1963","23.892","0.33466","5"],
    [36919,"HCEP03730564","2024-10-16 21:00:00","11.8107","3.52733","24.541","2.574285714285714","7.59","5.529","8029.024","0.09","12.27","30.5744","4.79117","28.85","0","SATNPRO1963","23.544","0.32976","5"],
    [36920,"HCEP03730564","2024-10-16 21:15:00","11.8032","3.52655","24.44","2.484285714285714","7.58","5.559","8048.242","0.06","10.41","30.5731","4.79109","27.83","0","SATNPRO1963","22.672","0.31752","5"],
    [36921,"HCEP03730564","2024-10-16 21:30:00","11.8028","3.52662","24.37","2.368571428571428","7.58","5.565","8035.896","0.04","7.52","30.5741","4.79124","26.53","0","SATNPRO1963","23.092","0.32346","5"],
    [36922,"HCEP03730564","2024-10-16 21:45:00","11.8054","3.52701","24.325","2.36","7.58","5.449","8028.439","0.05","4.34","30.5757","4.79143","26.44","0","SATNPRO1963","23.274","0.32596","5"],
    [36923,"HCEP03730564","2024-10-16 22:00:00","11.8075","3.52724","24.331","2.372857142857143","7.58","5.013","8129.565","0.15","59.18","30.5762","4.79146","26.59","0","SATNPRO1963","22.79","0.31922","5"],
    [36924,"HCEP03730564","2024-10-16 22:15:00","11.8099","3.52747","24.364","2.42","7.58","5.096","8193.329","0.14","42.63","30.5765","4.79147","27.12","0","SATNPRO1963","23.41","0.32788","5"],
    [36925,"HCEP03730564","2024-10-16 22:30:00","11.8126","3.52811","24.472","2.462857142857143","7.58","5.649","8057.937","0.06","20.81","30.5804","4.79199","27.59","0","SATNPRO1963","23.1","0.32352","5"],
    [36926,"HCEP03730564","2024-10-16 22:45:00","11.8165","3.52878","24.522","2.471428571428572","7.58","5.651","8068.859","0.08","18.15","30.5836","4.79239","27.7","0","SATNPRO1963","23.272","0.32598","5"],
    [36927,"HCEP03730564","2024-10-16 23:00:00","11.8159","3.52883","24.622","2.507142857142857","7.58","5.668","8052.036","0.08","13.2","30.5845","4.79253","28.09","0","SATNPRO1963","23.374","0.32742","5"],
    [36928,"HCEP03730564","2024-10-16 23:15:00","11.8109","3.52846","24.736","2.427142857142858","7.57","5.672","8015.948","0.05","7.82","30.5851","4.7927","27.19","0","SATNPRO1963","22.554000000000002","0.31592","5"],
    [36929,"HCEP03730564","2024-10-16 23:30:00","11.8083","3.52828","24.904","2.264285714285714","7.56","5.605","8069.24","0.11","4.85","30.5853","4.79277","25.37","0","SATNPRO1963","21.908","0.30684","5"],
    [36930,"HCEP03730564","2024-10-16 23:45:00","11.8071","3.52815","25.077","2.194285714285714","7.56","5.611","8098.488","0.06","7.82","30.585","4.79276","24.59","0","SATNPRO1963","21.76","0.30478","5"],
    [36931,"HCEP03730564","2024-10-17 00:00:00","11.8054","3.52798","25.287","2.14","7.56","5.648","8117.764","0.06","15.19","30.5847","4.79275","23.98","0","SATNPRO1963","21.406000000000002","0.2998","5"],
    [36932,"HCEP03730564","2024-10-17 00:15:00","11.8035","3.52783","25.434","2.101428571428571","7.55","5.974","8099.609","0.13","55.36","30.5847","4.79278","23.55","0","SATNPRO1963","21.478","0.30082","5"],
    [36933,"HCEP03730564","2024-10-17 00:30:00","11.8034","3.52779","25.606","2.088571428571428","7.55","5.99","8224.189","0.06","85.81","30.5844","4.79275","23.4","4","SATNPRO1963","21.634","0.30298","5"],
    [36934,"HCEP03730564","2024-10-17 00:45:00","11.8043","3.52786","25.774","2.101428571428571","7.55","5.976","8082.98","0.03","106.34","30.5843","4.79273","23.55","4","SATNPRO1963","21.696","0.30386","5"],
    [36935,"HCEP03730564","2024-10-17 01:00:00","11.8054","3.52791","25.983","2.127142857142857","7.55","5.989","8036.876","0.02","62.47","30.5837","4.79264","23.83","0","SATNPRO1963","21.864","0.30626","5"],
    [36936,"HCEP03730564","2024-10-17 01:15:00","11.8061","3.52799","26.167","2.157142857142857","7.55","6.03","8084.723","0.01","39.54","30.5839","4.79267","24.17","0","SATNPRO1963","21.986","0.3079","5"],
    [36937,"HCEP03730564","2024-10-17 01:30:00","11.8066","3.52803","26.365","2.178571428571428","7.55","6.132","8203.584","0.02","57.41","30.5838","4.79265","24.4","0","SATNPRO1963","21.964","0.30764","5"],
    [36938,"HCEP03730564","2024-10-17 01:45:00","11.8053","3.52795","26.561","2.161428571428572","7.55","6.141","8221.628","0.01","52.17","30.584","4.79271","24.22","0","SATNPRO1963","21.81","0.30548","5"],
    [36939,"HCEP03730564","2024-10-17 02:00:00","11.8041","3.52786","26.751","2.13","7.55","6.146","8276.754","0.01","40.13","30.584","4.79275","23.86","0","SATNPRO1963","21.7","0.30398","5"],
    [36940,"HCEP03730564","2024-10-17 02:15:00","11.8047","3.52793","26.923","2.114285714285714","7.55","6.118","8141.3","0.01","51.67","30.5842","4.79278","23.69","0","SATNPRO1963","21.594","0.30248","5"],
    [36941,"HCEP03730564","2024-10-17 02:30:00","11.8036","3.52791","27.102","2.087142857142857","7.54","6.117","8347.708","0.02","62.55","30.5849","4.79289","23.39","0","SATNPRO1963","21.6","0.30256","5"],
    [36942,"HCEP03730564","2024-10-17 02:45:00","11.8039","3.52802","27.267","2.051428571428572","7.54","6.1","8371.598","0.01","91.18","30.5856","4.793","22.98","0","SATNPRO1963","21.504","0.30118","5"],
    [36943,"HCEP03730564","2024-10-17 03:00:00","11.8042","3.52817","27.352","2.075714285714286","7.54","6.07","8399.806","0.02","65.53","30.5867","4.79316","23.25","0","SATNPRO1963","21.816","0.30558","5"],
    [36944,"HCEP03730564","2024-10-17 03:15:00","11.8045","3.52816","27.468","2.074285714285714","7.55","6.105","8452.368","0.02","22.13","30.5863","4.7931","23.24","0","SATNPRO1963","21.754","0.3047","5"],
    [36945,"HCEP03730564","2024-10-17 03:30:00","11.8056","3.52828","27.547","2.081428571428571","7.54","6.158","8474.301","0.03","6.51","30.5866","4.79314","23.33","0","SATNPRO1963","21.744","0.30458","5"],
    [36946,"HCEP03730564","2024-10-17 03:45:00","11.807","3.52842","27.596","2.162857142857143","7.55","6.2","8486.63","0.02","3.07","30.5868","4.79314","24.23","0","SATNPRO1963","21.964","0.30766","5"],
    [36947,"HCEP03730564","2024-10-17 04:00:00","11.8096","3.5286","27.615","2.211428571428572","7.55","6.121","8477.24","0.03","0","30.5863","4.79305","24.77","0","SATNPRO1963","22.442","0.31438","5"],
    [36948,"HCEP03730564","2024-10-17 04:15:00","11.8118","3.52886","27.647","2.248571428571429","7.56","6.091","8479.548","0.02","3.76","30.587","4.79311","25.19","0","SATNPRO1963","22.387999999999998","0.3136","5"],
    [36949,"HCEP03730564","2024-10-17 04:30:00","11.8144","3.5291","27.611","2.284285714285714","7.56","6.073","8476.401","0.02","2.17","30.5872","4.7931","25.59","0","SATNPRO1963","22.448","0.31442","5"],
    [36950,"HCEP03730564","2024-10-17 04:45:00","11.8168","3.52914","27.57","2.365714285714286","7.56","6.092","8480.073","0.02","4.85","30.5856","4.79283","26.52","0","SATNPRO1963","23.184","0.32472","5"],
    [36951,"HCEP03730564","2024-10-17 05:00:00","11.8164","3.52893","27.491","2.44","7.56","6.094","8472.858","0.02","3.07","30.5839","4.7926","27.34","0","SATNPRO1963","22.89","0.32062","5"],
    [36952,"HCEP03730564","2024-10-17 05:15:00","11.8118","3.52842","27.45","2.41","7.56","5.919","8209.64","0.02","57.73","30.5828","4.79251","27.01","0","SATNPRO1963","22.972","0.32172","5"],
    [36953,"HCEP03730564","2024-10-17 05:30:00","11.8047","3.52765","27.366","2.311428571428572","7.56","5.899","8081.736","0.01","88.3","30.5813","4.79239","25.89","0","SATNPRO1963","22.41","0.31388","5"],
    [36954,"HCEP03730564","2024-10-17 05:45:00","11.7973","3.52673","27.274","2.162857142857143","7.55","3.908","8585.923","0.01","4.34","30.5786","4.79211","24.24","0","SATNPRO1963","21.546","0.3018","5"],
    [36955,"HCEP03730564","2024-10-17 06:00:00","11.7901","3.52567","27.235","2.048571428571428","7.54","6.223","8495.725","0.01","3.76","30.5743","4.7916","22.94","0","SATNPRO1963","21.796","0.30528","5"],
    [36956,"HCEP03730564","2024-10-17 06:15:00","11.7976","3.5268","27.153","2.004285714285714","7.53","6.251","7086.983","0.01","14.56","30.579","4.79216","22.45","0","SATNPRO1963","21.77","0.30492","5"],
    [36957,"HCEP03730564","2024-10-17 06:30:00","11.8052","3.52809","27.039","2.055714285714286","7.53","6.143","6930.453","0.02","12.84","30.5852","4.79292","23.04","0","SATNPRO1963","22.264","0.31186","5"],
    [36958,"HCEP03730564","2024-10-17 06:45:00","11.8077","3.5285","26.938","2.117142857142857","7.54","6.117","6910.044","0.01","6.51","30.5871","4.79315","23.72","0","SATNPRO1963","22.394","0.31366","5"],
    [36959,"HCEP03730564","2024-10-17 07:00:00","11.809","3.52878","26.822","2.147142857142857","7.54","6.072","6887.173","0.01","7.52","30.5888","4.79336","24.05","0","SATNPRO1963","22.408","0.31384","5"],
    [36960,"HCEP03730564","2024-10-17 07:15:00","11.8088","3.52886","26.696","2.152857142857143","7.54","6.03","6866.201","0.02","11.88","30.5899","4.79351","24.13","0","SATNPRO1963","22.394","0.31364","5"],
    [36961,"HCEP03730564","2024-10-17 07:30:00","11.808","3.52881","26.552","2.134285714285714","7.54","5.988","6838.95","0.01","9.46","30.59","4.79353","23.91","0","SATNPRO1963","22.276","0.31206","5"],
    [36962,"HCEP03730564","2024-10-17 07:45:00","11.8048","3.52842","26.441","2.111428571428572","7.54","5.977","6856.612","0.02","15.5","30.589","4.79342","23.66","0","SATNPRO1963","22.204","0.311","5"],
    [36963,"HCEP03730564","2024-10-17 08:00:00","11.8034","3.52826","26.311","2.081428571428571","7.54","6.102","7005.224","0.02","27.45","30.5887","4.79339","23.31","0","SATNPRO1963","22.004","0.30822","5"],
    [36964,"HCEP03730564","2024-10-17 08:15:00","11.8021","3.52805","26.135","2.048571428571428","7.54","6.06","6977.377","0.01","21.59","30.5877","4.79327","22.94","0","SATNPRO1963","22.126","0.3099","5"],
    [36965,"HCEP03730564","2024-10-17 08:30:00","11.8001","3.52768","25.974","2.028571428571428","7.53","5.988","6904.272","0.02","15.19","30.586","4.79304","22.72","0","SATNPRO1963","21.884","0.30654","5"],
    [36966,"HCEP03730564","2024-10-17 08:45:00","11.7978","3.52737","25.794","2","7.53","5.927","6861.515","0.02","15.34","30.5849","4.79291","22.41","0","SATNPRO1963","21.926000000000002","0.30708","5"],
    [36967,"HCEP03730564","2024-10-17 09:00:00","11.7933","3.52647","25.626","1.962857142857143","7.52","5.825","6800.197","0.02","10.41","30.58","4.79228","21.98","0","SATNPRO1963","21.726","0.30432","5"],
    [36968,"HCEP03730564","2024-10-17 09:15:00","11.7906","3.52592","25.473","1.917142857142857","7.52","5.693","6763.517","0.02","6.14","30.577","4.79188","21.47","0","SATNPRO1963","21.544","0.3017","5"],
    [36969,"HCEP03730564","2024-10-17 09:30:00","11.7872","3.52521","25.35","1.877142857142857","7.52","5.444","6799.708","0.01","6.51","30.573","4.79136","21.02","0","SATNPRO1963","21.522000000000002","0.30142","5"],
    [36970,"HCEP03730564","2024-10-17 09:45:00","11.7822","3.52433","25.29","1.838571428571428","7.52","6.512","8515.975","0.02","0","30.5687","4.79081","20.58","0","SATNPRO1963","21.34","0.29894","5"],
    [36971,"HCEP03730564","2024-10-17 10:00:00","11.7778","3.52357","25.268","1.795714285714286","7.51","5.622","6720.982","0.05","17.76","30.5649","4.79034","20.1","4","SATNPRO1963","21.604","0.30262","5"],
    [36972,"HCEP03730564","2024-10-17 10:15:00","11.7791","3.52373","25.279","1.778571428571429","7.51","5.169","6848.673","0.03","8.95","30.5654","4.7904","19.91","0","SATNPRO1963","21.37","0.29934","5"],
    [36973,"HCEP03730564","2024-10-17 10:30:00","11.7776","3.52343","25.326","1.772857142857143","7.51","4.891","7006.768","0.01","7.2","30.5637","4.79018","19.85","0","SATNPRO1963","21.458","0.30054","5"],
    [36974,"HCEP03730564","2024-10-17 10:45:00","11.7784","3.52353","25.411","1.767142857142857","7.51","5.132","6924.463","0.02","9.94","30.5641","4.79022","19.79","0","SATNPRO1963","21.482","0.30088","5"],
    [36975,"HCEP03730564","2024-10-17 11:00:00","11.7793","3.52369","25.5","1.778571428571429","7.5","6.475","8506.415","0.02","6.14","30.5648","4.79032","19.91","0","SATNPRO1963","21.522","0.30146","5"],
    [36976,"HCEP03730564","2024-10-17 11:15:00","11.7821","3.52411","25.633","1.798571428571428","7.51","5.489","6643.035","0.03","11.06","30.5664","4.79051","20.14","4","SATNPRO1963","21.48","0.30086","5"],
    [36977,"HCEP03730564","2024-10-17 11:30:00","11.7855","3.52482","25.787","1.815714285714286","7.51","5.489","6629.604","0.02","11.27","30.5705","4.79105","20.34","0","SATNPRO1963","21.508","0.30126","5"],
    [36978,"HCEP03730564","2024-10-17 11:45:00","11.7869","3.52507","25.91","1.824285714285714","7.51","5.408","6642.979","0.03","3.07","30.5717","4.7912","20.42","0","SATNPRO1963","21.888","0.30656","5"],
    [36979,"HCEP03730564","2024-10-17 12:00:00","11.7877","3.52526","26.045","1.818571428571428","7.51","5.303","6711.214","0.04","6.51","30.5728","4.79136","20.36","0","SATNPRO1963","21.388","0.29962","5"],
    [36980,"HCEP03730564","2024-10-17 12:15:00","11.7895","3.52567","26.144","1.822857142857143","7.51","6.625","8498.921","0.03","8.95","30.5752","4.79167","20.42","0","SATNPRO1963","21.472","0.30076","5"],
    [36981,"HCEP03730564","2024-10-17 12:30:00","11.7918","3.52621","26.298","1.837142857142857","7.51","5.644","6631.092","0.05","19.77","30.5785","4.79211","20.58","4","SATNPRO1963","21.524","0.3015","5"],
    [36982,"HCEP03730564","2024-10-17 12:45:00","11.7946","3.52674","26.423","1.867142857142857","7.51","5.711","6635.225","0.04","16.95","30.5812","4.79246","20.91","0","SATNPRO1963","21.632","0.30298","5"],
    [36983,"HCEP03730564","2024-10-17 13:00:00","11.7968","3.52711","26.587","1.911428571428572","7.51","5.776","6643.492","0.03","9.94","30.5829","4.79269","21.41","0","SATNPRO1963","21.842","0.30594","5"],
    [36984,"HCEP03730564","2024-10-17 13:15:00","11.7987","3.52733","26.758","1.947142857142857","7.52","5.969","6715.013","0.06","40.71","30.5833","4.79273","21.81","0","SATNPRO1963","22.028","0.30854","5"],
    [36985,"HCEP03730564","2024-10-17 13:30:00","11.7997","3.52751","26.912","1.955714285714286","7.52","6.453","8505.498","0.04","6.51","30.5842","4.79285","21.92","0","SATNPRO1963","21.984","0.3079","5"],
    [36986,"HCEP03730564","2024-10-17 13:45:00","11.7975","3.52711","27.086","1.948571428571429","7.52","5.812","6696.857","0.06","21.15","30.5821","4.79258","21.83","4","SATNPRO1963","21.502","0.30118","5"],
    [36987,"HCEP03730564","2024-10-17 14:00:00","11.7887","3.52557","27.281","1.864285714285714","7.52","5.439","6699.967","0.03","10.63","30.5745","4.79165","20.88","0","SATNPRO1963","21.18","0.29666","5"],
    [36988,"HCEP03730564","2024-10-17 14:15:00","11.7887","3.52543","27.476","1.804285714285714","7.51","5.892","6685.416","0.02","9.46","30.5731","4.79146","20.2","0","SATNPRO1963","21.134","0.296","5"],
    [36989,"HCEP03730564","2024-10-17 14:30:00","11.7971","3.52667","27.642","1.905714285714286","7.5","6.338","8504.373","0.04","4.34","30.578","4.79204","21.35","0","SATNPRO1963","21.428","0.30014","5"],
    [36990,"HCEP03730564","2024-10-17 14:45:00","11.7989","3.52687","27.795","1.985714285714286","7.51","6.165","6856.207","0.03","26.4","30.5784","4.79209","22.24","4","SATNPRO1963","21.774","0.30502","5"],
    [36991,"HCEP03730564","2024-10-17 15:00:00","11.7998","3.52699","27.934","2.018571428571429","7.52","6.314","7092.244","0.02","31.37","30.5788","4.79213","22.62","0","SATNPRO1963","21.98","0.30786","5"],
    [36992,"HCEP03730564","2024-10-17 15:15:00","11.7998","3.52696","28.033","2.018571428571429","7.52","6.46","7537.757","0.02","23.47","30.5784","4.79209","22.61","0","SATNPRO1963","21.92","0.30704","5"],
    [36993,"HCEP03730564","2024-10-17 15:30:00","11.7996","3.52689","28.111","2.027142857142857","7.52","6.345","7589.282","0.02","18.02","30.578","4.79203","22.71","0","SATNPRO1963","21.918000000000003","0.30702","5"],
    [36994,"HCEP03730564","2024-10-17 15:45:00","11.798400000000001","3.52674","28.175","2.028571428571428","7.52","6.414","8213.3","0.13","184.04","30.5775","4.79198","22.73","0","SATNPRO1963","21.878","0.30642","5"],
    [36995,"HCEP03730564","2024-10-17 16:00:00","11.7971","3.52649","28.199","2.028571428571428","7.52","6.424","8350.553","0.01","25.58","30.576","4.7918","22.72","4","SATNPRO1963","22.112","0.3097","5"],
    [36996,"HCEP03730564","2024-10-17 16:15:00","11.7976","3.52644","28.17","2.035714285714286","7.52","6.379","8312.993","0.01","8.68","30.5751","4.79167","22.81","0","SATNPRO1963","22.122","0.30988","5"],
    [36997,"HCEP03730564","2024-10-17 16:30:00","11.7977","3.52627","28.149","2.054285714285714","7.52","5.958","8090.11","0.01","12.08","30.5734","4.79142","23.01","0","SATNPRO1963","22.006","0.30826","5"],
    [36998,"HCEP03730564","2024-10-17 16:45:00","11.7971","3.52611","28.102","2.065714285714286","7.52","6.114","8259.143","0.21","131.18","30.5724","4.79128","23.13","0","SATNPRO1963","22.238","0.31152","5"],
    [36999,"HCEP03730564","2024-10-17 17:00:00","11.7976","3.52593","28.022","2.094285714285714","7.52","6.205","8457.869","0.02","4.34","30.5703","4.79098","23.46","4","SATNPRO1963","22.116","0.30982","5"],
    [37000,"HCEP03730564","2024-10-17 17:15:00","11.7965","3.5257","27.909","2.08","7.53","6.3","8477.163","0.02","0","30.5691","4.79081","23.3","0","SATNPRO1963","22.228","0.31136","5"],
    [37001,"HCEP03730564","2024-10-17 17:30:00","11.7917","3.52498","27.763","2.037142857142857","7.52","6.279","8472.701","0.01","3.07","30.5662","4.79046","22.82","0","SATNPRO1963","21.512","0.30132","5"],
    [37002,"HCEP03730564","2024-10-17 17:45:00","11.7879","3.52448","27.608","1.964285714285714","7.52","6.322","8486.158","0.02","5.74","30.5644","4.79026","22","0","SATNPRO1963","21.16","0.29636","5"],
    [37003,"HCEP03730564","2024-10-17 18:00:00","11.7839","3.52387","27.438","1.902857142857143","7.52","6.456","8503.534","0.02","3.76","30.562","4.78996","21.31","0","SATNPRO1963","21.196","0.29692","5"],
    [37004,"HCEP03730564","2024-10-17 18:15:00","11.7761","3.52289","27.267","1.807142857142857","7.51","6.403","8505.135","0.02","0","30.5591","4.78965","20.23","4","SATNPRO1963","20.426","0.2861","5"],
    [37005,"HCEP03730564","2024-10-17 18:30:00","11.7674","3.52185","27.09","1.662857142857143","7.5","6.438","8507.308","0.01","2.17","30.5562","4.78936","18.61","0","SATNPRO1963","19.552","0.2739","5"],
    [37006,"HCEP03730564","2024-10-17 18:45:00","11.7594","3.52091","26.885","1.507142857142857","7.49","6.427","8506.969","0.01","0","30.5538","4.78913","16.87","0","SATNPRO1963","19.488","0.27296","5"],
    [37007,"HCEP03730564","2024-10-17 19:00:00","11.7595","3.5209","26.678","1.392857142857143","7.47","6.512","8509.354","0.01","0","30.5538","4.78911","15.58","0","SATNPRO1963","19.246","0.26956","5"],
    [37008,"HCEP03730564","2024-10-17 19:15:00","11.7597","3.52096","26.456","1.381428571428572","7.47","6.422","8508.276","0.02","4.85","30.5542","4.78915","15.45","4","SATNPRO1963","19.274","0.26994","5"],
    [37009,"HCEP03730564","2024-10-17 19:30:00","11.7641","3.5214","26.233","1.395714285714286","7.47","6.425","8507.047","0.01","0","30.555","4.78919","15.62","0","SATNPRO1963","19.584","0.2743","5"],
    [37010,"HCEP03730564","2024-10-17 19:45:00","11.7716","3.52227","25.999","1.478571428571428","7.48","6.285","8493.473","0.01","3.07","30.5572","4.78938","16.54","0","SATNPRO1963","20.116","0.28178","5"],
    [37011,"HCEP03730564","2024-10-17 20:00:00","11.7804","3.52332","25.76","1.6","7.48","6.318","8495.751","0.02","3.76","30.5603","4.78968","17.91","0","SATNPRO1963","20.954","0.29348","5"],
    [37012,"HCEP03730564","2024-10-17 20:15:00","11.784","3.52386","25.487","1.712857142857143","7.49","6.133","8476.087","0.02","0","30.5626","4.78993","19.18","4","SATNPRO1963","21.05","0.29482","5"],
    [37013,"HCEP03730564","2024-10-17 20:30:00","11.7876","3.52426","25.233","1.784285714285714","7.49","6.068","8459.208","0.03","4.85","30.5636","4.79002","19.97","0","SATNPRO1963","21.14","0.29612","5"],
    [37014,"HCEP03730564","2024-10-17 20:45:00","11.7916","3.52481","24.969","1.857142857142857","7.5","5.827","8243.609","0.02","29.35","30.5657","4.79024","20.79","0","SATNPRO1963","21.628","0.30296","5"],
    [37015,"HCEP03730564","2024-10-17 21:00:00","11.7947","3.52523","24.616","1.927142857142857","7.5","4.883","5726.54","0.35","605.14","30.5673","4.7904","21.58","0","SATNPRO1963","22.184","0.31074","5"],
    [37016,"HCEP03730564","2024-10-17 21:15:00","11.7969","3.52558","24.352","1.98","7.51","5.134","6506.802","0.02","7.82","30.569","4.7906","22.18","4","SATNPRO1963","22.174","0.3106","5"],
    [37017,"HCEP03730564","2024-10-17 21:30:00","11.7997","3.526","24.159","2.03","7.51","4.687","6398.493","0.01","8.68","30.5708","4.7908","22.74","0","SATNPRO1963","22.426","0.31412","5"],
    [37018,"HCEP03730564","2024-10-17 21:45:00","11.8003","3.52608","24.013","2.06","7.52","4.752","6577.647","0.01","14.72","30.5711","4.79083","23.07","0","SATNPRO1963","21.844","0.30598","5"],
    [37019,"HCEP03730564","2024-10-17 22:00:00","11.8023","3.52645","23.918","2.067142857142857","7.52","6.614","8470.491","0.01","14.23","30.5731","4.79108","23.15","0","SATNPRO1963","22.656","0.31736","5"],
    [37020,"HCEP03730564","2024-10-17 22:15:00","11.8026","3.52661","23.868","2.085714285714286","7.52","4.727","8531.205","0.01","6.14","30.5744","4.79126","23.36","4","SATNPRO1963","22.314","0.31256","5"],
    [37021,"HCEP03730564","2024-10-17 22:30:00","11.8024","3.52664","23.952","2.075714285714286","7.53","4.79","6595.513","0.01","79.66","30.5748","4.79132","23.26","0","SATNPRO1963","22.044","0.30874","5"],
    [37022,"HCEP03730564","2024-10-17 22:45:00","11.8022","3.52671","24.003","2.058571428571429","7.53","5.238","6229.056","0.07","45.87","30.5757","4.79144","23.05","0","SATNPRO1963","22.268","0.31188","5"],
    [37023,"HCEP03730564","2024-10-17 23:00:00","11.8023","3.52672","23.985","2.044285714285714","7.53","5.09","6101.625","0.04","33.12","30.5756","4.79143","22.9","0","SATNPRO1963","22.164","0.31044","5"],
    [37024,"HCEP03730564","2024-10-17 23:15:00","11.8015","3.52668","24.014","2.037142857142857","7.53","6.586","8314.732","0.04","158.44","30.5759","4.79149","22.82","0","SATNPRO1963","22.294","0.31224","5"],
    [37025,"HCEP03730564","2024-10-17 23:30:00","11.8013","3.52662","24.131","2.021428571428571","7.53","5.244","6410.735","0.09","15.65","30.5755","4.79144","22.65","4","SATNPRO1963","22.042","0.30876","5"],
    [37026,"HCEP03730564","2024-10-17 23:45:00","11.8004","3.52657","24.296","2.007142857142857","7.53","5.209","6329.396","0.07","121.14","30.5757","4.79149","22.48","0","SATNPRO1963","22.104","0.30962","5"],
    [37027,"HCEP03730564","2024-10-18 00:00:00","11.7994","3.52648","24.466","1.985714285714286","7.53","5.262","6409.568","0.09","192.8","30.5755","4.79149","22.24","0","SATNPRO1963","21.932","0.30722","5"],
    [37028,"HCEP03730564","2024-10-18 00:15:00","11.7989","3.52642","24.63","1.955714285714286","7.52","5.471","7066.763","0.3","571.64","30.5753","4.79147","21.91","0","SATNPRO1963","21.778","0.305","5"],
    [37029,"HCEP03730564","2024-10-18 00:30:00","11.801","3.52672","24.809","1.955714285714286","7.52","5.516","6893.624","0.1","306.27","30.5764","4.79161","21.92","4","SATNPRO1963","21.802","0.30538","5"],
    [37030,"HCEP03730564","2024-10-18 00:45:00","11.8023","3.52701","25.067","1.972857142857143","7.52","5.598","7022.071","0.12","369.8","30.578","4.79183","22.11","0","SATNPRO1963","21.968","0.30768","5"],
    [37031,"HCEP03730564","2024-10-18 01:00:00","11.8029","3.52712","25.213","1.991428571428571","7.52","5.682","7276.377","0.06","163.28","30.5786","4.79191","22.31","0","SATNPRO1963","22.064","0.30902","5"],
    [37032,"HCEP03730564","2024-10-18 01:15:00","11.8025","3.52702","25.431","2","7.52","5.711","7306.889","0.04","192.07","30.5778","4.79182","22.41","0","SATNPRO1963","21.976","0.3078","5"],
    [37033,"HCEP03730564","2024-10-18 01:30:00","11.8024","3.52699","25.655","1.998571428571429","7.52","5.738","7748.893","0.28","542.39","30.5775","4.79178","22.39","0","SATNPRO1963","21.944","0.30734","5"],
    [37034,"HCEP03730564","2024-10-18 01:45:00","11.8017","3.52686","25.85","1.998571428571429","7.52","5.818","8035.287","0.14","255.12","30.5768","4.79171","22.39","4","SATNPRO1963","21.87","0.30632","5"],
    [37035,"HCEP03730564","2024-10-18 02:00:00","11.8018","3.52681","26.029","2.007142857142857","7.52","5.865","8090.153","0.04","101.45","30.5762","4.79163","22.48","0","SATNPRO1963","22.166","0.31046","5"],
    [37036,"HCEP03730564","2024-10-18 02:15:00","11.8018","3.52684","26.264","2.014285714285714","7.52","6.138","8464.064","0.03","7.82","30.5763","4.79167","22.56","0","SATNPRO1963","22.532","0.3156","5"],
    [37037,"HCEP03730564","2024-10-18 02:30:00","11.8024","3.52695","26.506","2.038571428571429","7.52","6.288","8483.535","0.02","5.74","30.5768","4.79173","22.83","0","SATNPRO1963","22.39","0.31358","5"],
    [37038,"HCEP03730564","2024-10-18 02:45:00","11.8016","3.52692","26.684","2.017142857142857","7.52","6.185","8470.654","0.03","3.07","30.5772","4.79181","22.6","4","SATNPRO1963","22.03","0.30858","5"],
    [37039,"HCEP03730564","2024-10-18 03:00:00","11.8038","3.52728","26.881","2.004285714285714","7.52","6.012","8327.49","0.05","82.51","30.5786","4.792","22.46","0","SATNPRO1963","22.46","0.3146","5"],
    [37040,"HCEP03730564","2024-10-18 03:15:00","11.8032","3.52729","27.103","2.007142857142857","7.52","6.282","8486.604","0.01","4.34","30.5793","4.79211","22.49","0","SATNPRO1963","22.066","0.30904","5"],
    [37041,"HCEP03730564","2024-10-18 03:30:00","11.8017","3.52707","27.249","1.96","7.52","6.349","8490.144","0.02","3.07","30.5783","4.79201","21.96","0","SATNPRO1963","21.791999999999998","0.3052","5"],
    [37042,"HCEP03730564","2024-10-18 03:45:00","11.7996","3.52679","27.411","1.905714285714286","7.51","6.205","8467.321","0.03","5.74","30.5772","4.79188","21.35","4","SATNPRO1963","21.616","0.30272","5"],
    [37043,"HCEP03730564","2024-10-18 04:00:00","11.7981","3.5266","27.526","1.871428571428571","7.52","6.125","8346.138","0.04","57.65","30.5765","4.79182","20.96","0","SATNPRO1963","21.464000000000002","0.3006","5"],
    [37044,"HCEP03730564","2024-10-18 04:15:00","11.7971","3.52644","27.617","1.858571428571428","7.52","6.102","8282.444","0.04","83.05","30.5758","4.79173","20.82","0","SATNPRO1963","21.622","0.30284","5"],
    [37045,"HCEP03730564","2024-10-18 04:30:00","11.7973","3.52649","27.704","1.872857142857143","7.51","6.025","8084.069","0.13","222.35","30.576","4.79177","20.98","0","SATNPRO1963","21.874","0.3064","5"],
    [37046,"HCEP03730564","2024-10-18 04:45:00","11.7966","3.5264","27.805","1.87","7.51","6.146","8263.636","0.05","115.63","30.5758","4.79175","20.94","4","SATNPRO1963","21.508","0.30122","5"],
    [37047,"HCEP03730564","2024-10-18 05:00:00","11.7964","3.52627","27.799","1.865714285714286","7.51","6.084","7974.962","0.11","200.46","30.5746","4.79159","20.9","0","SATNPRO1963","21.538","0.30166","5"],
    [37048,"HCEP03730564","2024-10-18 05:15:00","11.7956","3.52605","27.775","1.885714285714286","7.51","6.198","8098.868","0.11","139.83","30.5732","4.79139","21.13","0","SATNPRO1963","22.018","0.30836","5"],
    [37049,"HCEP03730564","2024-10-18 05:30:00","11.7937","3.52577","27.779","1.884285714285714","7.51","5.626","7183.64","0.43","753.64","30.5721","4.79126","21.11","0","SATNPRO1963","21.71","0.3041","5"],
    [37050,"HCEP03730564","2024-10-18 05:45:00","11.7915","3.5255","27.718","1.847142857142857","7.5","6.119","7996.805","0.23","245.49","30.5713","4.79118","20.69","4","SATNPRO1963","21.625999999999998","0.30292","5"],
    [37051,"HCEP03730564","2024-10-18 06:00:00","11.7904","3.52535","27.663","1.824285714285714","7.5","5.923","7958.395","0.08","216.89","30.5708","4.79113","20.43","0","SATNPRO1963","21.74","0.30452","5"],
    [37052,"HCEP03730564","2024-10-18 06:15:00","11.7881","3.525","27.619","1.824285714285714","7.5","5.933","7952.636","0.12","260.22","30.5693","4.79095","20.43","0","SATNPRO1963","22.01","0.30826","5"],
    [37053,"HCEP03730564","2024-10-18 06:30:00","11.7793","3.52357","27.531","1.787142857142857","7.49","6.03","8099.244","0.23","443.54","30.5628","4.79015","20.02","0","SATNPRO1963","21.948","0.30746","5"],
    [37054,"HCEP03730564","2024-10-18 06:45:00","11.7726","3.52254","27.415","1.68","7.49","6.049","8163.545","0.11","222.91","30.5584","4.78962","18.8","4","SATNPRO1963","21.31","0.29848","5"],
    [37055,"HCEP03730564","2024-10-18 07:00:00","11.772","3.52235","27.364","1.607142857142857","7.48","5.865","7901.401","0.14","310.84","30.5572","4.78945","18","0","SATNPRO1963","21.272000000000002","0.29792","5"],
    [37056,"HCEP03730564","2024-10-18 07:15:00","11.7815","3.52401","27.243","1.642857142857143","7.48","5.885","7784.848","0.13","242.69","30.5654","4.79046","18.39","0","SATNPRO1963","21.53","0.30156","5"],
    [37057,"HCEP03730564","2024-10-18 07:30:00","11.784","3.52451","27.186","1.71","7.49","5.169","6333.174","0.57","1097.02","30.5682","4.79082","19.15","0","SATNPRO1963","21.608","0.30266","5"],
    [37058,"HCEP03730564","2024-10-18 07:45:00","11.7826","3.52421","27.036","1.717142857142857","7.49","6.227","7860.094","0.26","314.46","30.5665","4.7906","19.23","4","SATNPRO1963","21.662","0.30344","5"],
    [37059,"HCEP03730564","2024-10-18 08:00:00","11.782","3.52414","26.961","1.687142857142857","7.49","5.871","7130.688","0.09","408.05","30.5664","4.79058","18.89","0","SATNPRO1963","21.254","0.29768","5"],
    [37060,"HCEP03730564","2024-10-18 08:15:00","11.7827","3.52433","26.799","1.652857142857143","7.48","5.954","7345.444","0.07","362.8","30.5676","4.79074","18.51","0","SATNPRO1963","21.188","0.29676","5"],
    [37061,"HCEP03730564","2024-10-18 08:30:00","11.7825","3.52436","26.694","1.614285714285714","7.49","5.908","7415.576","0.25","498.94","30.5681","4.79081","18.07","0","SATNPRO1963","20.812","0.29152","5"],
    [37062,"HCEP03730564","2024-10-18 08:45:00","11.7806","3.52404","26.589","1.572857142857143","7.48","6.385","7850.148","0.05","174.57","30.5667","4.79063","17.61","4","SATNPRO1963","20.994","0.29408","5"],
    [37063,"HCEP03730564","2024-10-18 09:00:00","11.7754","3.52338","26.421","1.524285714285714","7.47","6.048","7771.299","0.05","125.49","30.5647","4.79041","17.06","0","SATNPRO1963","20.68","0.28964","5"],
    [37064,"HCEP03730564","2024-10-18 09:15:00","11.7696","3.52214","26.246","1.461428571428571","7.47","5.962","7133.455","0.04","175.43","30.5576","4.78948","16.36","0","SATNPRO1963","20.752","0.29062","5"],
    [37065,"HCEP03730564","2024-10-18 09:30:00","11.7655","3.52149","26.128","1.42","7.46","5.91","6943.661","0.04","116.4","30.5547","4.78912","15.89","0","SATNPRO1963","20.692","0.2898","5"],
    [37066,"HCEP03730564","2024-10-18 09:45:00","11.7615","3.52083","26.028","1.387142857142857","7.46","6.062","7731.929","0.14","259.88","30.5517","4.78875","15.53","0","SATNPRO1963","20.472","0.28672","5"],
    [37067,"HCEP03730564","2024-10-18 10:00:00","11.7605","3.52071","25.937","1.352857142857143","7.46","6.204","8471.114","0.05","22.55","30.5513","4.78871","15.14","4","SATNPRO1963","20.586","0.28836","5"],
    [37068,"HCEP03730564","2024-10-18 10:15:00","11.7587","3.52031","25.9","1.325714285714286","7.46","6.189","8452.29","0.04","21.59","30.549","4.78841","14.83","0","SATNPRO1963","20.36","0.28516","5"],
    [37069,"HCEP03730564","2024-10-18 10:30:00","11.7563","3.51996","25.879","1.288571428571429","7.45","6.155","8472.963","0.02","6.86","30.5476","4.78824","14.42","0","SATNPRO1963","19.942","0.27932","5"],
    [37070,"HCEP03730564","2024-10-18 10:45:00","11.7541","3.51958","25.915","1.242857142857143","7.45","6.374","8494.309","0.04","11.88","30.5458","4.78802","13.9","0","SATNPRO1963","19.852","0.27804","5"],
    [37071,"HCEP03730564","2024-10-18 11:00:00","11.7529","3.51939","25.807","1.212857142857143","7.44","6.326","8500.337","0.05","8.4","30.545","4.78791","13.57","4","SATNPRO1963","19.668","0.27546","5"],
    [37072,"HCEP03730564","2024-10-18 11:15:00","11.7511","3.51905","25.861","1.19","7.44","6.318","8494.782","0.02","7.2","30.5431","4.78768","13.31","0","SATNPRO1963","19.802","0.27736","5"],
    [37073,"HCEP03730564","2024-10-18 11:30:00","11.7477","3.51852","25.978","1.164285714285714","7.44","6.249","8486.495","0.03","11.48","30.5408","4.7874","13.02","0","SATNPRO1963","19.588","0.27438","5"],
    [37074,"HCEP03730564","2024-10-18 11:45:00","11.7431","3.51764","25.99","1.105714285714286","7.44","6.37","8499.628","0.06","10.85","30.5361","4.78681","12.36","0","SATNPRO1963","19.387999999999998","0.27154","5"],
    [37075,"HCEP03730564","2024-10-18 12:00:00","11.7395","3.51715","26.181","1.062857142857143","7.43","6.214","8482.083","0.17","38.26","30.534300000000002","4.78661","11.89","4","SATNPRO1963","19.268","0.26982","5"],
    [37076,"HCEP03730564","2024-10-18 12:15:00","11.738","3.5168","26.23","1.041428571428571","7.43","6.293","8496.853","0.06","5.31","30.5321","4.78633","11.65","0","SATNPRO1963","19.212","0.26908","5"],
    [37077,"HCEP03730564","2024-10-18 12:30:00","11.7367","3.51663","26.348","1.017142857142857","7.43","6.218","8477.445","0.07","35.79","30.5314","4.78626","11.37","0","SATNPRO1963","19.092","0.26742","5"],
    [37078,"HCEP03730564","2024-10-18 12:45:00","11.7375","3.51681","26.483","1.007142857142857","7.42","6.358","8487.435","0.08","50.47","30.5325","4.78641","11.26","0","SATNPRO1963","19.178","0.26862","5"],
    [37079,"HCEP03730564","2024-10-18 13:00:00","11.7387","3.517","26.641","1.018571428571428","7.42","6.323","8492.034","0.07","30.07","30.5332","4.7865","11.39","4","SATNPRO1963","19.096","0.26748","5"],
    [37080,"HCEP03730564","2024-10-18 13:15:00","11.7428","3.51771","26.749","1.062857142857143","7.43","6.333","8483.067","0.07","44.84","30.5367","4.78694","11.88","0","SATNPRO1963","19.456","0.2725","5"],
    [37081,"HCEP03730564","2024-10-18 13:30:00","11.7431","3.51774","26.868","1.08","7.42","6.323","8487.168","0.06","22.13","30.5367","4.78695","12.08","0","SATNPRO1963","19.476","0.27276","5"],
    [37082,"HCEP03730564","2024-10-18 13:45:00","11.7407","3.5174","26.996","1.094285714285714","7.42","6.083","8113.091","0.34","574.28","30.5353","4.78679","12.24","0","SATNPRO1963","19.608","0.27464","5"],
    [37083,"HCEP03730564","2024-10-18 14:00:00","11.7452","3.51807","27.286","1.121428571428571","7.43","6.215","8408.16","0.13","135.52","30.5379","4.78711","12.54","4","SATNPRO1963","19.754","0.2767","5"],
    [37084,"HCEP03730564","2024-10-18 14:15:00","11.7447","3.51802","27.372","1.141428571428572","7.43","6.093","8272.091","0.18","291.47","30.5378","4.78711","12.77","0","SATNPRO1963","19.98","0.27986","5"],
    [37085,"HCEP03730564","2024-10-18 14:30:00","11.7517","3.51916","27.577","1.174285714285714","7.43","6.151","8354.999","0.15","233.98","30.543","4.78774","13.14","0","SATNPRO1963","20.198","0.2829","5"],
    [37086,"HCEP03730564","2024-10-18 14:45:00","11.7542","3.5196","27.671","1.192857142857143","7.43","6.121","8186.573","0.28","439.4","30.5452","4.78802","13.35","0","SATNPRO1963","20.064","0.28106","5"],
    [37087,"HCEP03730564","2024-10-18 15:00:00","11.7551","3.51974","27.768","1.194285714285714","7.43","6.161","8292.043","0.16","282.16","30.5457","4.78809","13.36","4","SATNPRO1963","20.064","0.281","5"],
    [37088,"HCEP03730564","2024-10-18 15:15:00","11.7559","3.51985","27.926","1.2","7.44","6.205","8327.482","0.17","237.15","30.546","4.78814","13.43","0","SATNPRO1963","19.817999999999998","0.27758","5"],
    [37089,"HCEP03730564","2024-10-18 15:30:00","11.7563","3.51993","28.066","1.202857142857143","7.44","6.178","8267.755","0.18","328.44","30.5464","4.7882","13.47","0","SATNPRO1963","20.032","0.28062","5"],
    [37090,"HCEP03730564","2024-10-18 15:45:00","11.7556","3.51941","28.099","1.215714285714286","7.44","6.338","8448.747","0.1","105.94","30.5421","4.78759","13.6","0","SATNPRO1963","20.284","0.2841","5"],
    [37091,"HCEP03730564","2024-10-18 16:00:00","11.7545","3.51923","28.195","1.228571428571429","7.44","6.228","8363.186","0.16","224.41","30.5411","4.78748","13.74","4","SATNPRO1963","19.918","0.279","5"],
    [37092,"HCEP03730564","2024-10-18 16:15:00","11.7534","3.51901","28.23","1.202857142857143","7.44","6.211","8377.603","0.15","222.75","30.5399","4.78733","13.45","0","SATNPRO1963","19.982","0.2799","5"],
    [37093,"HCEP03730564","2024-10-18 16:30:00","11.7535","3.51888","28.341","1.197142857142857","7.44","6.304","8375.436","0.16","253.78","30.5386","4.78714","13.39","0","SATNPRO1963","19.858","0.27816","5"],
    [37094,"HCEP03730564","2024-10-18 16:45:00","11.7528","3.51875","28.247","1.188571428571429","7.44","6.302","8371.045","0.19","304.11","30.5379","4.78705","13.29","0","SATNPRO1963","19.694","0.27584","5"],
    [37095,"HCEP03730564","2024-10-18 17:00:00","11.7451","3.51695","28.183","1.167142857142857","7.43","6.203","8326.192","0.16","222.69","30.527","4.78561","13.05","4","SATNPRO1963","19.724","0.2763","5"],
    [37096,"HCEP03730564","2024-10-18 17:15:00","11.7392","3.51517","28.137","1.145714285714286","7.43","6.263","8388.63","0.12","123.07","30.5146","4.78395","12.81","0","SATNPRO1963","19.732","0.2764","5"],
    [37097,"HCEP03730564","2024-10-18 17:30:00","11.739","3.51526","28.116","1.13","7.43","6.272","8402.174","0.15","184.54","30.5157","4.7841","12.64","0","SATNPRO1963","19.746000000000002","0.27658","5"],
    [37098,"HCEP03730564","2024-10-18 17:45:00","11.7401","3.51551","28.004","1.134285714285714","7.43","6.182","8220.083","0.29","460.02","30.5173","4.78431","12.68","0","SATNPRO1963","19.880000000000003","0.27842","5"],
    [37099,"HCEP03730564","2024-10-18 18:00:00","11.74","3.51557","27.87","1.141428571428572","7.43","6.269","8121.706","0.22","297.69","30.5179","4.78439","12.77","4","SATNPRO1963","19.912","0.27888","5"],
    [37100,"HCEP03730564","2024-10-18 18:15:00","11.7352","3.51409","27.716","1.131428571428572","7.42","6.236","8311.485","0.18","307.86","30.5077","4.78301","12.65","0","SATNPRO1963","19.948","0.27942","5"],
    [37101,"HCEP03730564","2024-10-18 18:30:00","11.7385","3.51511","27.554","1.14","7.43","6.15","8187.554","0.18","374.17","30.5149","4.78396","12.74","0","SATNPRO1963","19.826","0.27772","5"],
    [37102,"HCEP03730564","2024-10-18 18:45:00","11.7438","3.5166","27.405","1.14","7.43","6.307","8312.134","0.34","577.53","30.5249","4.78529","12.75","0","SATNPRO1963","19.646","0.27518","5"],
    [37103,"HCEP03730564","2024-10-18 19:00:00","11.7211","3.509","27.21","1.112857142857143","7.42","6.143","8129.125","0.18","320.05","30.4704","4.77791","12.43","4","SATNPRO1963","20.256","0.28372","5"],
    [37104,"HCEP03730564","2024-10-18 19:15:00","11.7344","3.514","27.016","1.061428571428571","7.42","6.267","8433.128","0.1","93.35","30.5077","4.78298","11.86","0","SATNPRO1963","19.056","0.26696","5"],
    [37105,"HCEP03730564","2024-10-18 19:30:00","11.7326","3.51297","26.807","1.05","7.42","6.222","8453.513","0.09","88.86","30.4994","4.78182","11.75","0","SATNPRO1963","19.502","0.27316","5"],
    [37106,"HCEP03730564","2024-10-18 19:45:00","11.7241","3.50955","26.64","1.068571428571428","7.42","6.392","8472.995","0.08","101.96","30.4734","4.77826","11.94","0","SATNPRO1963","20.938","0.29326","5"],
    [37107,"HCEP03730564","2024-10-18 20:00:00","11.7277","3.50965","26.362","1.082857142857143","7.42","6.369","8501.357","0.04","11.68","30.4715","4.77793","12.1","4","SATNPRO1963","19.92","0.279","5"],
    [37108,"HCEP03730564","2024-10-18 20:15:00","11.728","3.50818","26.154","1.064285714285714","7.42","6.372","8498.845","0.04","6.51","30.4573","4.77589","11.9","0","SATNPRO1963","19.785999999999998","0.27712","5"],
    [37109,"HCEP03730564","2024-10-18 20:30:00","11.7234","3.50905","25.984","1.021428571428571","7.42","6.359","8503.299","0.03","0","30.4694","4.77767","11.41","0","SATNPRO1963","19.678","0.27564","5"],
    [37110,"HCEP03730564","2024-10-18 20:45:00","11.7156","3.50674","25.607","0.987142857142857","7.41","6.374","8473.345","0.09","120.46","30.4537","4.77554","11.03","0","SATNPRO1963","19.158","0.26836","5"],
    [37111,"HCEP03730564","2024-10-18 21:00:00","11.7147","3.50614","25.448","0.947142857142857","7.4","6.258","8444.943","0.09","131.2","30.4488","4.77485","10.58","4","SATNPRO1963","19.436","0.2722","5"],
    [37112,"HCEP03730564","2024-10-18 21:15:00","11.7218","3.50633","25.158","1.001428571428571","7.41","6.265","8462.954","0.07","61.1","30.4448","4.77417","11.19","0","SATNPRO1963","19.436","0.27226","5"],
    [37113,"HCEP03730564","2024-10-18 21:30:00","11.7126","3.50573","24.918","0.974285714285714","7.41","6.172","8447.628","0.06","45.62","30.4467","4.77456","10.88","0","SATNPRO1963","18.704","0.26198","5"],
    [37114,"HCEP03730564","2024-10-18 21:45:00","11.7207","3.50673","24.68","0.915714285714286","7.41","6.131","8360.923","0.14","182.56","30.4498","4.77487","10.23","0","SATNPRO1963","18.872","0.26434","5"],
    [37115,"HCEP03730564","2024-10-18 22:00:00","11.7293","3.50523","24.49","0.955714285714286","7.41","6.057","8313.984","0.13","202.57","30.4285","4.77172","10.68","4","SATNPRO1963","18.657999999999998","0.26136","5"],
    [37116,"HCEP03730564","2024-10-18 22:15:00","11.7412","3.49917","24.362","1.027142857142857","7.42","5.915","7729.885","0.19","337.48","30.3604","4.76192","11.48","0","SATNPRO1963","18.692","0.26182","5"],
    [37117,"HCEP03730564","2024-10-18 22:30:00","11.7323","3.50063","24.216","1.071428571428571","7.42","5.89","7668.416","0.23","417.77","30.3817","4.76505","11.97","0","SATNPRO1963","19.436","0.27222","5"],
    [37118,"HCEP03730564","2024-10-18 22:45:00","11.7268","3.5057","24.118","1.004285714285714","7.42","5.728","7607.741","0.25","397.33","30.4351","4.77268","11.23","4","SATNPRO1963","18.57","0.26004","5"],
    [37119,"HCEP03730564","2024-10-18 23:00:00","11.7139","3.50781","23.905","0.894285714285714","7.41","5.331","6821.961","0.31","487.57","30.4661","4.77722","10","0","SATNPRO1963","17.956","0.2515","5"],
    [37120,"HCEP03730564","2024-10-18 23:15:00","11.701","3.50655","23.842","0.742857142857143","7.4","5.573","8369.4","0.03","71.34","30.4645","4.77718","8.29","0","SATNPRO1963","16.812","0.23548","5"],
    [37121,"HCEP03730564","2024-10-18 23:30:00","11.7029","3.50746","23.887","0.667142857142857","7.39","5.813","8490.432","0.06","4.34","30.471800000000002","4.77818","7.46","0","SATNPRO1963","16.92","0.237","5"],
    [37122,"HCEP03730564","2024-10-18 23:45:00","11.7075","3.50791","23.874","0.668571428571429","7.39","5.919","8489.906","0.13","6.51","30.4723","4.77819","7.46","4","SATNPRO1963","16.958","0.2375","5"],
    [37123,"HCEP03730564","2024-10-19 00:00:00","11.7072","3.50798","23.971","0.661428571428572","7.39","5.879","8481.541","0.09","6.51","30.4732","4.77833","7.39","0","SATNPRO1963","16.922","0.23702","5"],
    [37124,"HCEP03730564","2024-10-19 00:15:00","11.7079","3.50736","24.144","0.658571428571429","7.39","6.131","8478.918","0.06","34.03","30.4665","4.77738","7.36","0","SATNPRO1963","17.048000000000002","0.23882","5"],
    [37125,"HCEP03730564","2024-10-19 00:30:00","11.7109","3.50717","24.236","0.67","7.39","6.293","8498.188","0.04","7.82","30.4623","4.77675","7.48","0","SATNPRO1963","17.018","0.23836","5"],
    [37126,"HCEP03730564","2024-10-19 00:45:00","11.7154","3.50659","24.4","0.697142857142857","7.39","6.286","8503.09","0.04","3.07","30.4529","4.77536","7.8","4","SATNPRO1963","17.066","0.239","5"],
    [37127,"HCEP03730564","2024-10-19 01:00:00","11.7308","3.50127","24.606","0.761428571428572","7.39","6.317","8499.527","0.03","0","30.3889","4.76611","8.51","0","SATNPRO1963","17.282","0.24202","5"],
    [37128,"HCEP03730564","2024-10-19 01:15:00","11.7966","3.48655","24.807","1.062857142857143","7.41","6.332","8497.09","0.03","3.07","30.1937","4.73759","11.88","0","SATNPRO1963","16.518","0.23134","5"],
    [37129,"HCEP03730564","2024-10-19 01:30:00","11.7886","3.48328","24.897","1.345714285714286","7.43","6.199","8498.713","0.17","7.2","30.1687","4.73418","15.02","0","SATNPRO1963","16.54","0.23168","5"],
    [37130,"HCEP03730564","2024-10-19 01:45:00","11.7109","3.50292","25.067","0.848571428571428","7.41","5.834","8453.98","0.13","97.91","30.421","4.77096","9.48","4","SATNPRO1963","15.706","0.21996","5"],
    [37131,"HCEP03730564","2024-10-19 02:00:00","11.6909","3.50154","25.369","0.517142857142857","7.38","5.791","8429.199","0.11","131.45","30.4239","4.77167","5.77","0","SATNPRO1963","14.596","0.20444","5"],
    [37132,"HCEP03730564","2024-10-19 02:15:00","11.6826","3.5016","25.454","0.457142857142857","7.37","5.892","8480.938","0.1","5.31","30.4313","4.77284","5.1","0","SATNPRO1963","14.572000000000001","0.20408","5"],
    [37133,"HCEP03730564","2024-10-19 02:30:00","11.6781","3.50192","25.695","0.412857142857143","7.36","5.776","8468.023","0.12","50.14","30.438","4.77386","4.61","4","SATNPRO1963","14.402000000000001","0.2017","5"],
    [37134,"HCEP03730564","2024-10-19 02:45:00","11.6778","3.50087","25.873","0.42","7.36","5.759","8446.801","0.09","78.23","30.428","4.77247","4.69","0","SATNPRO1963","14.196","0.19882","5"],
    [37135,"HCEP03730564","2024-10-19 03:00:00","11.6763","3.49995","26.062","0.412857142857143","7.36","5.748","8439.818","0.07","90.69","30.4203","4.77141","4.61","0","SATNPRO1963","14.114","0.19772","5"],
    [37136,"HCEP03730564","2024-10-19 03:15:00","11.6753","3.49735","26.36","0.42","7.36","6.416","8486.854","0.04","62.25","30.3959","4.76799","4.69","0","SATNPRO1963","13.824","0.19366","5"],
    [37137,"HCEP03730564","2024-10-19 03:30:00","11.6722","3.49424","26.567","0.414285714285714","7.36","6.376","8495.956","0.02","14.88","30.3683","4.76415","4.62","4","SATNPRO1963","13.105","0.18355","2"],
    [37138,"HCEP03730564","2024-10-19 03:45:00","11.6715","3.49223","26.849","0.411428571428571","7.35","6.373","8498.056","0.02","10.85","30.3495","4.76151","4.58","0","SATNPRO1963","12.856","0.18008","5"],
    [37139,"HCEP03730564","2024-10-19 04:00:00","11.6744","3.49113","26.965","0.415714285714286","7.35","6.298","8496.825","0.08","9.94","30.3364","4.75963","4.63","0","SATNPRO1963","12.79","0.1791","2"],
    [37140,"HCEP03730564","2024-10-19 04:15:00","11.6905","3.48899","27.208","0.465714285714286","7.36","6.371","8442.305","0.08","151.64","30.3025","4.75462","5.19","0","SATNPRO1963","13.164","0.18438","5"],
    [37141,"HCEP03730564","2024-10-19 04:30:00","11.7048","3.48664","27.319","0.567142857142857","7.36","5.753","8447.701","0.24","67.02","30.2682","4.74956","6.34","4","SATNPRO1963","13.635000000000002","0.19095","2"],
    [37142,"HCEP03730564","2024-10-19 04:45:00","11.6959","3.4891","27.467","0.525714285714286","7.36","6.032","8491.977","0.17","8.12","30.2991","4.75407","5.86","0","SATNPRO1963","12.778","0.17898","5"],
    [37143,"HCEP03730564","2024-10-19 05:00:00","11.6872","3.49017","27.59","0.474285714285714","7.36","5.909","8485.419","0.17","13.2","30.3164","4.75665","5.29","0","SATNPRO1963","12.55","0.17576","5"],
    [37144,"HCEP03730564","2024-10-19 05:15:00","11.6859","3.49006","27.684","0.435714285714286","7.36","6.047","8496.146","0.12","6.51","30.3164","4.75668","4.86","0","SATNPRO1963","12.558","0.1759","5"],
    [37145,"HCEP03730564","2024-10-19 05:30:00","11.6927","3.48788","27.784","0.451428571428571","7.36","6.184","8486.384","0.1","20.24","30.2898","4.75282","5.04","4","SATNPRO1963","12.346","0.17294","5"],
    [37146,"HCEP03730564","2024-10-19 05:45:00","11.6985","3.48575","27.715","0.481428571428572","7.36","5.566","8092.814","0.33","395.17","30.2647","4.74918","5.38","0","SATNPRO1963","12.066","0.169","5"],
    [37147,"HCEP03730564","2024-10-19 06:00:00","11.7024","3.4859","27.797","0.481428571428572","7.36","5.854","8435.056","0.18","68.58","30.2629","4.74888","5.37","0","SATNPRO1963","12.248","0.17154","5"],
    [37148,"HCEP03730564","2024-10-19 06:15:00","11.7176","3.4833","27.824","0.547142857142857","7.37","5.932","8390.621","0.21","281.65","30.2254","4.74336","6.11","0","SATNPRO1963","12.028","0.16842","5"],
    [37149,"HCEP03730564","2024-10-19 06:30:00","11.7906","3.47253","27.805","0.824285714285714","7.38","5.898","8456.885","0.19","79.4","30.0628","4.71932","9.21","4","SATNPRO1963","12.592","0.17636","5"],
    [37150,"HCEP03730564","2024-10-19 06:45:00","11.7531","3.47769","27.867","0.892857142857143","7.39","6.165","8431.388","0.13","163.3","30.1426","4.73114","9.96","0","SATNPRO1963","11.934","0.16716","5"],
    [37151,"HCEP03730564","2024-10-19 07:00:00","11.7621","3.47355","27.842","0.777142857142857","7.38","6.247","8481.937","0.08","57.9","30.0955","4.72435","8.67","0","SATNPRO1963","11.676","0.16352","5"],
    [37152,"HCEP03730564","2024-10-19 07:15:00","11.7988","3.46786","27.811","0.935714285714286","7.38","6.198","8481.24","0.09","40.3","30.0112","4.71192","10.45","4","SATNPRO1963","11.725999999999999","0.16426","5"],
    [37153,"HCEP03730564","2024-10-19 07:30:00","11.838","3.46504","27.822","1.085714285714286","7.39","6.311","8493.779","0.05","17.49","29.9526","4.70308","12.13","0","SATNPRO1963","11.248","0.15752","5"],
    [37154,"HCEP03730564","2024-10-19 07:45:00","11.8501","3.46403","27.786","1.128571428571429","7.39","6.308","8499.526","0.03","3.07","29.9333","4.70017","12.6","0","SATNPRO1963","10.974","0.1537","5"],
    [37155,"HCEP03730564","2024-10-19 08:00:00","11.8588","3.46246","27.692","1.175714285714286","7.4","6.29","8500.915","0.08","4.85","29.9112","4.69691","13.13","0","SATNPRO1963","10.77","0.15088","5"],
    [37156,"HCEP03730564","2024-10-19 08:15:00","11.859","3.46158","27.678","1.177142857142857","7.4","6.277","8498.085","0.07","4.34","29.9027","4.69571","13.15","4","SATNPRO1963","10.75","0.15054","5"],
    [37157,"HCEP03730564","2024-10-19 08:30:00","11.8388","3.46321","27.555","1.095714285714286","7.4","6.277","8496.434","0.06","6.14","29.9346","4.7005","12.24","0","SATNPRO1963","10.988","0.15392","5"],
    [37158,"HCEP03730564","2024-10-19 08:45:00","11.8199","3.46536","27.486","1.137142857142857","7.4","6.305","8499.5","0.08","3.07","29.9704","4.70582","12.69","0","SATNPRO1963","11.602","0.16248","5"],
    [37159,"HCEP03730564","2024-10-19 09:00:00","11.8161","3.47028","27.315","1.284285714285714","7.41","6.332","8501.648","0.04","3.07","30.0208","4.713","14.34","4","SATNPRO1963","13.082","0.18322","5"],
    [37160,"HCEP03730564","2024-10-19 09:15:00","11.8757","3.45662","27.16","1.642857142857143","7.44","6.39","8465.371","0.03","17.89","29.842","4.68686","18.35","0","SATNPRO1963","14.232000000000001","0.19934","5"],
    [37161,"HCEP03730564","2024-10-19 09:30:00","11.8264","3.47064","27.096","1.837142857142857","7.47","6.412","8482.563","0.02","48.13","30.016","4.71217","20.51","0","SATNPRO1963","13.89","0.19458","5"],
    [37162,"HCEP03730564","2024-10-19 09:45:00","11.8399","3.4675","26.961","1.688571428571429","7.46","6.393","8472.827","0.03","11.88","29.9751","4.70618","18.85","0","SATNPRO1963","14.363999999999999","0.20116","5"],
    [37163,"HCEP03730564","2024-10-19 10:00:00","11.8292","3.47092","26.902","1.621428571428571","7.46","6.387","8492.974","0.02","6.51","30.0165","4.71219","18.11","0","SATNPRO1963","14.464","0.2026","5"],
    [37164,"HCEP03730564","2024-10-19 10:15:00","11.8087","3.47373","26.846","1.407142857142857","7.44","6.405","8504.426","0.01","3.76","30.06","4.71862","15.71","0","SATNPRO1963","14.186","0.1987","5"],
    [37165,"HCEP03730564","2024-10-19 10:30:00","11.8141","3.47363","26.701","1.421428571428572","7.44","6.362","8502.566","0.02","0","30.0548","4.71781","15.88","0","SATNPRO1963","14.158","0.19832","5"],
    [37166,"HCEP03730564","2024-10-19 10:45:00","11.8117","3.47425","26.587","1.375714285714286","7.43","6.375","8501.413","0.01","0","30.0627","4.71895","15.37","0","SATNPRO1963","14.484","0.20284","5"],
    [37167,"HCEP03730564","2024-10-19 11:00:00","11.8067","3.47508","26.487","1.324285714285714","7.43","6.411","8505.08","0.01","3.76","30.0747","4.72072","14.79","0","SATNPRO1963","14.566","0.20402","5"],
    [37168,"HCEP03730564","2024-10-19 11:15:00","11.8001","3.47538","26.415","1.285714285714286","7.42","6.35","8500.574","0.02","3.76","30.0829","4.72197","14.36","4","SATNPRO1963","14.354","0.20108","5"],
    [37169,"HCEP03730564","2024-10-19 11:30:00","11.7923","3.47576","26.337","1.242857142857143","7.42","6.375","8495.464","0.01","5.31","30.0929","4.72349","13.88","0","SATNPRO1963","13.958","0.19552","5"],
    [37170,"HCEP03730564","2024-10-19 11:45:00","11.7868","3.47741","26.38","1.191428571428572","7.42","6.356","8501.728","0.02","0","30.1133","4.72644","13.3","0","SATNPRO1963","14","0.19612","5"],
    [37171,"HCEP03730564","2024-10-19 12:00:00","11.8039","3.4762","26.381","1.27","7.42","6.395","8504.896","0.02","2.17","30.0877","4.72259","14.19","0","SATNPRO1963","14.722","0.20618","5"],
    [37172,"HCEP03730564","2024-10-19 12:15:00","11.8008","3.47692","26.43","1.36","7.43","6.348","8502.278","0.02","0","30.0972","4.72397","15.19","4","SATNPRO1963","14.752","0.20662","5"],
    [37173,"HCEP03730564","2024-10-19 12:30:00","11.8151","3.47185","26.454","1.34","7.42","6.359","8501.309","0.02","0","30.0369","4.71525","14.96","0","SATNPRO1963","13.868","0.19426","5"],
    [37174,"HCEP03730564","2024-10-19 12:45:00","11.7844","3.47675","26.55","1.074285714285714","7.41","6.35","8502.146","0.02","0","30.1087","4.72584","12","0","SATNPRO1963","13.132","0.18396","5"],
    [37175,"HCEP03730564","2024-10-19 13:00:00","11.7962","3.47092","26.665","0.89","7.39","6.401","8504.896","0.02","5.74","30.0431","4.7164","9.93","0","SATNPRO1963","11.664","0.16338","5"],
    [37176,"HCEP03730564","2024-10-19 13:15:00","11.7945","3.47272","26.776","0.904285714285714","7.38","6.34","8501.44","0.02","0","30.0618","4.71907","10.1","4","SATNPRO1963","12","0.16806","5"],
    [37177,"HCEP03730564","2024-10-19 13:30:00","11.7953","3.47233","26.868","0.934285714285714","7.38","6.349","8501.23","0.02","0","30.0574","4.71844","10.43","0","SATNPRO1963","12.088","0.16932","5"],
    [37178,"HCEP03730564","2024-10-19 13:45:00","11.8144","3.46947","26.964","1.001428571428571","7.39","6.389","8504.399","0.02","3.07","30.0145","4.71212","11.18","0","SATNPRO1963","11.628","0.16288","5"],
    [37179,"HCEP03730564","2024-10-19 14:00:00","11.8175","3.47061","27.024","1.067142857142857","7.39","6.35","8497.481","0.02","6.14","30.0229","4.71326","11.92","4","SATNPRO1963","11.714","0.16408","5"],
    [37180,"HCEP03730564","2024-10-19 14:15:00","11.817","3.47148","27.132","1.247142857142857","7.4","6.354","8494.86","0.01","7.2","30.0316","4.7145","13.93","0","SATNPRO1963","12.116","0.16974","5"],
    [37181,"HCEP03730564","2024-10-19 14:30:00","11.8277","3.46923","27.223","1.158571428571429","7.4","6.389","8499.185","0.01","7.2","30.0013","4.71008","12.95","0","SATNPRO1963","12.198","0.17084","5"],
    [37182,"HCEP03730564","2024-10-19 14:45:00","11.8397","3.46901","27.345","1.252857142857143","7.4","6.329","8489.197","0.02","9.21","29.9896","4.70826","13.99","0","SATNPRO1963","12.488","0.17492","5"],
    [37183,"HCEP03730564","2024-10-19 15:00:00","11.8367","3.46842","27.46","1.262857142857143","7.41","6.329","8487.128","0.01","4.85","29.9862","4.70783","14.11","0","SATNPRO1963","12.734","0.17838","5"],
    [37184,"HCEP03730564","2024-10-19 15:15:00","11.8354","3.46628","27.577","1.205714285714286","7.41","6.315","8472.197","0.03","36.44","29.9667","4.70509","13.46","0","SATNPRO1963","12.994","0.182","5"],
    [37185,"HCEP03730564","2024-10-19 15:30:00","11.8275","3.4702","27.71","1.255714285714286","7.41","6.291","8489.931","0.02","8.95","30.0106","4.71142","14.03","4","SATNPRO1963","13.778","0.193","5"],
    [37186,"HCEP03730564","2024-10-19 15:45:00","11.8223","3.4696","27.819","1.27","7.41","6.318","8491.165","0.01","4.85","30.009","4.71128","14.19","0","SATNPRO1963","13.092","0.1834","5"],
    [37187,"HCEP03730564","2024-10-19 16:00:00","11.8451","3.46462","27.935","1.285714285714286","7.41","6.323","8489.198","0.01","5.31","29.9429","4.7016","14.35","0","SATNPRO1963","13.506","0.1892","5"],
    [37188,"HCEP03730564","2024-10-19 16:15:00","11.8421","3.46479","28.033","1.358571428571428","7.41","6.371","8502.173","0.01","0","29.9469","4.70222","15.18","0","SATNPRO1963","13.398","0.18766","5"],
    [37189,"HCEP03730564","2024-10-19 16:30:00","11.8333","3.46662","28.112","1.284285714285714","7.41","6.336","8500.47","0.02","0","29.9715","4.70583","14.35","0","SATNPRO1963","13.12","0.18378","5"],
    [37190,"HCEP03730564","2024-10-19 16:45:00","11.835","3.46684","28.157","1.295714285714286","7.41","6.33","8500.811","0.01","0","29.9721","4.70589","14.48","0","SATNPRO1963","13.32","0.18652","5"],
    [37191,"HCEP03730564","2024-10-19 17:00:00","11.8389","3.46702","28.188","1.357142857142857","7.42","6.346","8503.797","0.02","0","29.9707","4.70565","15.16","0","SATNPRO1963","13.756","0.19268","5"],
    [37192,"HCEP03730564","2024-10-19 17:15:00","11.8317","3.46611","28.201","1.321428571428572","7.41","6.302","8501.255","0.02","3.76","29.9679","4.70534","14.75","4","SATNPRO1963","13.564","0.18998","5"],
    [37193,"HCEP03730564","2024-10-19 17:30:00","11.8186","3.46852","28.195","1.27","7.41","6.304","8499.895","0.01","0","30.0015","4.71029","14.17","0","SATNPRO1963","13.506","0.1892","5"],
    [37194,"HCEP03730564","2024-10-19 17:45:00","11.8395","3.46593","28.165","1.398571428571429","7.42","6.31","8500.471","0.01","0","29.9599","4.7041","15.62","0","SATNPRO1963","14.31","0.20044","5"],
    [37195,"HCEP03730564","2024-10-19 18:00:00","11.8225","3.47086","28.101","1.838571428571428","7.45","6.357","8503.509","0.01","3.07","30.0208","4.71295","20.53","0","SATNPRO1963","15.168000000000001","0.21244","5"],
    [37196,"HCEP03730564","2024-10-19 18:15:00","11.8161","3.47338","28.034","1.844285714285714","7.46","6.288","8500.521","0.02","5.31","30.0502","4.7172","20.59","0","SATNPRO1963","15.76","0.22076","5"],
    [37197,"HCEP03730564","2024-10-19 18:30:00","11.8052","3.47583","27.926","1.701428571428572","7.45","6.292","8500.103","0.01","4.85","30.0826","4.72193","19","0","SATNPRO1963","15.646","0.2191","5"],
    [37198,"HCEP03730564","2024-10-19 18:45:00","11.8024","3.47781","27.79","1.731428571428571","7.45","6.354","8503.744","0.02","3.76","30.1039","4.72498","19.34","0","SATNPRO1963","15.959999999999999","0.22356","5"],
    [37199,"HCEP03730564","2024-10-19 19:00:00","11.8007","3.47824","27.64","1.725714285714286","7.45","6.323","8501.677","0.02","0","30.1094","4.72578","19.28","4","SATNPRO1963","16.11","0.22566","5"],
    [37200,"HCEP03730564","2024-10-19 19:15:00","11.7979","3.47867","27.479","1.665714285714286","7.45","6.318","8500.811","0.01","2.17","30.116","4.72673","18.6","0","SATNPRO1963","15.986","0.2239","5"],
    [37201,"HCEP03730564","2024-10-19 19:30:00","11.796","3.47882","27.291","1.65","7.45","6.351","8503.744","0.01","3.76","30.119","4.72718","18.43","0","SATNPRO1963","16.156","0.22626","5"],
    [37202,"HCEP03730564","2024-10-19 19:45:00","11.7962","3.47895","27.089","1.642857142857143","7.45","6.308","8500.863","0.02","0","30.1201","4.72732","18.35","0","SATNPRO1963","16.116","0.22574","5"],
    [37203,"HCEP03730564","2024-10-19 20:00:00","11.7968","3.47894","26.868","1.645714285714286","7.45","6.32","8501.153","0.01","0","30.1197","4.72724","18.38","0","SATNPRO1963","16.306","0.2284","5"],
    [37204,"HCEP03730564","2024-10-19 20:15:00","11.7988","3.47875","26.638","1.695714285714286","7.45","6.346","8503.822","0.01","5.74","30.1163","4.72671","18.93","0","SATNPRO1963","16.224","0.22724","5"],
    [37205,"HCEP03730564","2024-10-19 20:30:00","11.802","3.47839","26.408","1.737142857142857","7.45","6.32","8502.043","0.01","0","30.1103","4.72582","19.41","0","SATNPRO1963","16.34","0.2289","5"],
    [37206,"HCEP03730564","2024-10-19 20:45:00","11.8017","3.4783","26.177","1.741428571428572","7.45","6.307","8499.921","0.01","0","30.1099","4.72574","19.45","0","SATNPRO1963","16.206","0.22698","5"],
    [37207,"HCEP03730564","2024-10-19 21:00:00","11.801","3.47845","25.941","1.744285714285714","7.45","6.231","8500.522","0.02","0","30.1119","4.72602","19.48","0","SATNPRO1963","16.19","0.2268","5"],
    [37208,"HCEP03730564","2024-10-19 21:15:00","11.8029","3.47834","25.681","1.744285714285714","7.46","6.299","8499.134","0.02","4.85","30.1094","4.72564","19.48","0","SATNPRO1963","16.188","0.22674","5"],
    [37209,"HCEP03730564","2024-10-19 21:30:00","11.802","3.47837","25.421","1.75","7.46","6.312","8500.653","0.01","0","30.1105","4.72579","19.55","0","SATNPRO1963","16.284","0.2281","5"],
    [37210,"HCEP03730564","2024-10-19 21:45:00","11.7998","3.47885","25.161","1.73","7.46","6.339","8503.221","0.01","0","30.1171","4.72673","19.32","0","SATNPRO1963","16.218","0.2272","5"],
    [37211,"HCEP03730564","2024-10-19 22:00:00","11.8011","3.47914","24.906","1.724285714285714","7.46","6.318","8496.276","0.01","2.17","30.1189","4.72696","19.26","0","SATNPRO1963","16.87","0.23626","5"],
    [37212,"HCEP03730564","2024-10-19 22:15:00","11.793","3.48009","24.667","1.674285714285714","7.45","6.322","8496.958","0.01","0","30.1345","4.72927","18.7","0","SATNPRO1963","16.238","0.22746","5"],
    [37213,"HCEP03730564","2024-10-19 22:30:00","11.7921","3.48064","24.461","1.614285714285714","7.45","6.349","8503.824","0.02","0","30.1407","4.73015","18.03","0","SATNPRO1963","16.316","0.22856","5"],
    [37214,"HCEP03730564","2024-10-19 22:45:00","11.789","3.4813","24.262","1.6","7.45","6.307","8499.396","0.02","3.07","30.1496","4.73144","17.87","0","SATNPRO1963","16.419999999999998","0.22998","5"],
    [37215,"HCEP03730564","2024-10-19 23:00:00","11.7868","3.48146","24.042","1.565714285714286","7.45","5.948","8256.292","0.01","23.57","30.153","4.73193","17.49","0","SATNPRO1963","16.094","0.22544","5"],
    [37216,"HCEP03730564","2024-10-19 23:15:00","11.7817","3.48078","23.874","1.474285714285714","7.44","6.19","8387.091","0.08","61.87","30.1507","4.73168","16.47","0","SATNPRO1963","15.516","0.21734","5"],
    [37217,"HCEP03730564","2024-10-19 23:30:00","11.7782","3.48005","23.807","1.317142857142857","7.43","5.978","8338.065","0.03","40.48","30.1465","4.73112","14.71","0","SATNPRO1963","15.184000000000001","0.2127","5"],
    [37218,"HCEP03730564","2024-10-19 23:45:00","11.7769","3.47931","23.783","1.231428571428572","7.42","6.183","8472.36","0.01","0","30.1405","4.73029","13.75","0","SATNPRO1963","14.758000000000001","0.20672","5"],
    [37219,"HCEP03730564","2024-10-20 00:00:00","11.7756","3.47948","23.751","1.191428571428572","7.42","6.313","8488.989","0.02","2.17","30.1432","4.7307","13.31","0","SATNPRO1963","14.608","0.2046","5"],
    [37220,"HCEP03730564","2024-10-20 00:15:00","11.773","3.47936","23.749","1.145714285714286","7.41","6.278","8484.454","0.02","0","30.1442","4.73086","12.8","0","SATNPRO1963","14.172","0.19852","5"],
    [37221,"HCEP03730564","2024-10-20 00:30:00","11.7754","3.47854","23.801","1.118571428571428","7.41","6.313","8499.422","0.01","0","30.1343","4.72944","12.5","0","SATNPRO1963","14.244","0.19956","5"],
    [37222,"HCEP03730564","2024-10-20 00:45:00","11.7746","3.47824","23.874","1.107142857142857","7.41","6.376","8505.003","0.01","0","30.1321","4.72914","12.37","0","SATNPRO1963","14.252","0.19962","5"],
    [37223,"HCEP03730564","2024-10-20 01:00:00","11.7776","3.47812","23.954","1.091428571428571","7.41","6.341","8502.748","0.01","4.34","30.1285","4.72859","12.19","0","SATNPRO1963","14.238","0.19944","5"],
    [37224,"HCEP03730564","2024-10-20 01:15:00","11.7973","3.475","24.066","1.151428571428572","7.41","6.33","8502.017","0.01","0","30.0825","4.72181","12.86","0","SATNPRO1963","13.64","0.19108","5"],
    [37225,"HCEP03730564","2024-10-20 01:30:00","11.8402","3.46727","24.218","1.454285714285714","7.43","6.373","8505.343","0.01","0","29.9736","4.70582","16.25","0","SATNPRO1963","13.656","0.19126","5"],
    [37226,"HCEP03730564","2024-10-20 01:45:00","11.8279","3.46891","24.392","1.395714285714286","7.43","6.329","8502.645","0.01","0","29.9992","4.70962","15.58","0","SATNPRO1963","13.608","0.19062","5"],
    [37227,"HCEP03730564","2024-10-20 02:00:00","11.7938","3.47465","24.597","1.138571428571429","7.42","6.321","8502.121","0.01","0","30.0818","4.7218","12.71","0","SATNPRO1963","13.274000000000001","0.18594","5"],
    [37228,"HCEP03730564","2024-10-20 02:15:00","11.8471","3.46642","24.793","1.212857142857143","7.42","6.364","8504.372","0.01","4.34","29.9598","4.7038","13.54","0","SATNPRO1963","13.22","0.1852","5"],
    [37229,"HCEP03730564","2024-10-20 02:30:00","11.879","3.45916","24.983","1.592857142857143","7.43","6.326","8500.915","0.02","2.17","29.8645","4.68988","17.79","0","SATNPRO1963","13.436","0.1882","5"],
    [37230,"HCEP03730564","2024-10-20 02:45:00","11.9111","3.4548","25.175","1.915714285714286","7.45","6.317","8499.424","0.01","0","29.7969","4.67988","21.4","0","SATNPRO1963","13.228","0.18532","5"],
    [37231,"HCEP03730564","2024-10-20 03:00:00","11.9447","3.44777","25.373","2.154285714285714","7.46","6.355","8502.802","0.01","0","29.7029","4.66612","24.07","0","SATNPRO1963","13.422","0.18798","5"],
    [37232,"HCEP03730564","2024-10-20 03:15:00","11.9153","3.45268","25.573","2.312857142857143","7.48","6.321","8502.07","0.02","0","29.7732","4.67649","25.84","0","SATNPRO1963","13.446","0.18832","5"],
    [37233,"HCEP03730564","2024-10-20 03:30:00","11.8976","3.45531","25.771","2.041428571428571","7.48","6.314","8500.836","0.01","3.76","29.8124","4.6823","22.8","0","SATNPRO1963","13.504","0.18912","5"],
    [37234,"HCEP03730564","2024-10-20 03:45:00","11.8025","3.47105","25.984","1.391428571428572","7.46","6.353","8502.227","0.01","0","30.0396","4.71579","15.53","0","SATNPRO1963","13.262","0.18576","5"],
    [37235,"HCEP03730564","2024-10-20 04:00:00","11.7825","3.47647","26.197","0.998571428571429","7.42","6.309","8491.872","0.02","5.31","30.1078","4.72572","11.15","0","SATNPRO1963","13.658","0.19132","5"],
    [37236,"HCEP03730564","2024-10-20 04:15:00","11.779","3.47688","26.485","0.99","7.42","6.3","8490.587","0.01","3.07","30.1144","4.72671","11.05","0","SATNPRO1963","13.85","0.19398","5"],
    [37237,"HCEP03730564","2024-10-20 04:30:00","11.7906","3.47449","26.705","1.044285714285714","7.41","6.345","8499.869","0.01","0","30.082","4.72199","11.66","0","SATNPRO1963","13.75","0.1926","5"],
    [37238,"HCEP03730564","2024-10-20 04:45:00","11.7878","3.47511","26.911","1.111428571428571","7.41","6.294","8500.286","0.02","0","30.0901","4.72319","12.41","0","SATNPRO1963","13.888","0.1945","5"],
    [37239,"HCEP03730564","2024-10-20 05:00:00","11.8312","3.46788","27.088","1.225714285714286","7.4","6.301","8483.378","0.01","3.76","29.9856","4.7078","13.68","0","SATNPRO1963","13.472","0.18874","5"],
    [37240,"HCEP03730564","2024-10-20 05:15:00","11.8707","3.46077","27.248","1.371428571428571","7.41","6.339","8487.47","0.01","4.34","29.8857","4.69312","15.32","0","SATNPRO1963","12.378","0.17336","5"],
    [37241,"HCEP03730564","2024-10-20 05:30:00","11.8606","3.46306","27.402","1.438571428571428","7.41","6.29","8476.847","0.02","4.85","29.9156","4.69751","16.07","0","SATNPRO1963","12.674","0.17752","5"],
    [37242,"HCEP03730564","2024-10-20 05:45:00","11.8795","3.45951","27.54","1.452857142857143","7.42","6.288","8475.72","0.01","0","29.8665","4.6903","16.23","0","SATNPRO1963","12.406","0.17374","5"],
    [37243,"HCEP03730564","2024-10-20 06:00:00","11.8863","3.45859","27.669","1.451428571428572","7.42","6.336","8489.302","0.01","9.46","29.8521","4.68818","16.22","0","SATNPRO1963","11.738","0.16442","5"],
    [37244,"HCEP03730564","2024-10-20 06:15:00","11.9197","3.45303","27.771","1.485714285714286","7.42","6.296","8481.963","0.02","0","29.7721","4.6764","16.6","0","SATNPRO1963","11.202","0.1569","5"],
    [37245,"HCEP03730564","2024-10-20 06:30:00","11.9128","3.4538","27.836","1.595714285714286","7.43","6.305","8450.802","0.01","6.51","29.785","4.67832","17.83","0","SATNPRO1963","11.31","0.15846","5"],
    [37246,"HCEP03730564","2024-10-20 06:45:00","11.8918","3.4578","27.864","1.501428571428571","7.43","6.286","8366.855","0.04","107.38","29.8401","4.68641","16.78","0","SATNPRO1963","11.552","0.1618","5"],
    [37247,"HCEP03730564","2024-10-20 07:00:00","11.9239","3.45335","27.869","1.507142857142857","7.42","6.291","8295.786","0.04","121.93","29.7719","4.67631","16.84","0","SATNPRO1963","10.959999999999999","0.15348","5"],
    [37248,"HCEP03730564","2024-10-20 07:15:00","11.942","3.45006","27.913","1.697142857142857","7.43","6.264","8494.258","0.02","5.74","29.7259","4.66956","18.96","0","SATNPRO1963","11.184","0.15668","5"],
    [37249,"HCEP03730564","2024-10-20 07:30:00","11.939","3.44911","27.933","1.797142857142857","7.45","6.287","8478.223","0.03","24.26","29.7193","4.66866","20.07","0","SATNPRO1963","11.304","0.15834","5"],
    [37250,"HCEP03730564","2024-10-20 07:45:00","11.9109","3.45439","27.984","1.602857142857143","7.43","6.278","8477.158","0.01","11.06","29.7921","4.67935","17.91","0","SATNPRO1963","11.146","0.1561","5"],
    [37251,"HCEP03730564","2024-10-20 08:00:00","11.9159","3.45431","27.988","1.427142857142857","7.42","6.286","8470.042","0.02","19.16","29.7873","4.67861","15.94","0","SATNPRO1963","10.35","0.14498","5"],
    [37252,"HCEP03730564","2024-10-20 08:15:00","11.9035","3.45521","27.948","1.42","7.42","6.329","8461.893","0.02","28.79","29.8059","4.68141","15.87","0","SATNPRO1963","11.267999999999999","0.15786","5"],
    [37253,"HCEP03730564","2024-10-20 08:30:00","11.926","3.44581","27.853","1.878571428571429","7.45","6.318","8453.561","0.03","34.24","29.6981","4.66584","20.99","0","SATNPRO1963","12.556","0.17592","5"],
    [37254,"HCEP03730564","2024-10-20 08:45:00","11.8719","3.45797","27.789","1.791428571428571","7.46","6.317","8478.865","0.02","7.52","29.8576","4.68916","20.01","0","SATNPRO1963","12.782","0.17902","5"],
    [37255,"HCEP03730564","2024-10-20 09:00:00","11.8561","3.46335","27.745","1.81","7.46","6.326","8418.806","0.04","151.76","29.9219","4.69848","20.22","0","SATNPRO1963","14.472","0.20272","5"],
    [37256,"HCEP03730564","2024-10-20 09:15:00","11.8348","3.46974","27.681","1.804285714285714","7.46","6.287","8493.524","0.02","4.85","30.0003","4.70986","20.16","0","SATNPRO1963","15.225999999999999","0.21328","5"],
    [37257,"HCEP03730564","2024-10-20 09:30:00","11.8245","3.47322","27.622","1.741428571428572","7.46","6.293","8491.847","0.02","4.85","30.0421","4.71591","19.44","0","SATNPRO1963","15.49","0.21696","5"],
    [37258,"HCEP03730564","2024-10-20 09:45:00","11.8215","3.4749","27.543","1.738571428571429","7.45","6.326","8472.921","0.03","72.16","30.0606","4.71858","19.43","0","SATNPRO1963","15.632","0.219","5"],
    [37259,"HCEP03730564","2024-10-20 10:00:00","11.8231","3.47475","27.453","1.758571428571429","7.46","6.288","8494.205","0.02","7.52","30.058","4.71817","19.64","0","SATNPRO1963","15.806000000000001","0.22136","5"],
    [37260,"HCEP03730564","2024-10-20 10:15:00","11.8222","3.47654","27.365","1.791428571428571","7.46","6.283","8495.751","0.02","6.51","30.0759","4.72072","20.01","0","SATNPRO1963","16.442","0.23032","5"],
    [37261,"HCEP03730564","2024-10-20 10:30:00","11.8224","3.48027","27.294","1.915714285714286","7.47","6.306","8495.042","0.03","11.68","30.1115","4.72575","21.4","0","SATNPRO1963","17.08","0.23922","5"],
    [37262,"HCEP03730564","2024-10-20 10:45:00","11.8242","3.4796","27.22","1.934285714285714","7.47","6.263","8497.192","0.02","7.2","30.1037","4.72461","21.62","0","SATNPRO1963","17.146","0.24014","5"],
    [37263,"HCEP03730564","2024-10-20 11:00:00","11.8271","3.47888","27.107","1.984285714285714","7.48","6.281","8495.7","0.02","3.76","30.0945","4.72326","22.17","0","SATNPRO1963","17.016","0.23836","5"],
    [37264,"HCEP03730564","2024-10-20 11:15:00","11.8293","3.47405","26.99","1.848571428571429","7.47","6.317","8396.84","0.06","294.4","30.0463","4.71641","20.65","0","SATNPRO1963","15.496","0.21706","5"],
    [37265,"HCEP03730564","2024-10-20 11:30:00","11.8528","3.46805","26.89","1.925714285714286","7.47","6.314","8486.629","0.03","6.86","29.97","4.70528","21.51","0","SATNPRO1963","14.962","0.20956","5"],
    [37266,"HCEP03730564","2024-10-20 11:45:00","11.8449","3.46846","26.802","1.73","7.46","6.304","8490.115","0.02","6.86","29.9803","4.70684","19.33","0","SATNPRO1963","14.272","0.1999","5"],
    [37267,"HCEP03730564","2024-10-20 12:00:00","11.8459","3.47077","26.739","1.927142857142857","7.47","6.306","8461.402","0.02","111.04","30.0017","4.70985","21.53","0","SATNPRO1963","15.444","0.21634","5"],
    [37268,"HCEP03730564","2024-10-20 12:15:00","11.8435","3.47269","26.698","2.01","7.48","6.261","8494.231","0.03","6.51","30.022","4.71276","22.46","0","SATNPRO1963","16.076","0.22518","5"],
    [37269,"HCEP03730564","2024-10-20 12:30:00","11.8339","3.47564","26.654","2","7.48","6.274","8494.231","0.02","4.85","30.0581","4.71799","22.35","0","SATNPRO1963","16.464","0.23058","5"],
    [37270,"HCEP03730564","2024-10-20 12:45:00","11.8352","3.47773","26.65","2.082857142857143","7.49","6.321","8497.271","0.02","6.86","30.077","4.72066","23.28","0","SATNPRO1963","16.830000000000002","0.23576","5"],
    [37271,"HCEP03730564","2024-10-20 13:00:00","11.8331","3.47913","26.65","2.077142857142857","7.49","6.287","8494.205","0.02","6.86","30.0922","4.72283","23.21","0","SATNPRO1963","17.064","0.23902","5"],
    [37272,"HCEP03730564","2024-10-20 13:15:00","11.8307","3.4803","26.699","2.034285714285714","7.49","6.269","8496.8","0.02","6.86","30.1054","4.72473","22.73","0","SATNPRO1963","17.178","0.24064","5"],
    [37273,"HCEP03730564","2024-10-20 13:30:00","11.8307","3.48123","26.751","2.051428571428572","7.49","6.307","8454.196","0.03","136.34","30.1143","4.726","22.92","0","SATNPRO1963","17.384","0.24348","5"],
    [37274,"HCEP03730564","2024-10-20 13:45:00","11.8301","3.48136","26.808","2.075714285714286","7.49","6.252","8492.108","0.03","5.31","30.116","4.72625","23.2","0","SATNPRO1963","17.516000000000002","0.24538","5"],
    [37275,"HCEP03730564","2024-10-20 14:00:00","11.8312","3.48128","26.867","2.091428571428572","7.49","6.265","8490.09","0.02","4.85","30.1143","4.726","23.38","0","SATNPRO1963","17.588","0.24632","5"],
    [37276,"HCEP03730564","2024-10-20 14:15:00","11.8322","3.48084","26.926","2.118571428571429","7.5","6.298","8291.175","0.05","301.91","30.1092","4.72526","23.67","0","SATNPRO1963","17.52","0.2454","5"],
    [37277,"HCEP03730564","2024-10-20 14:30:00","11.8331","3.4804","27.019","2.125714285714286","7.5","6.272","8491.897","0.02","6.14","30.1042","4.72455","23.76","0","SATNPRO1963","17.366","0.24326","5"],
    [37278,"HCEP03730564","2024-10-20 14:45:00","11.8339","3.47999","27.106","2.125714285714286","7.49","6.27","8490.535","0.02","4.34","30.0996","4.7239","23.76","0","SATNPRO1963","17.334","0.24278","5"],
    [37279,"HCEP03730564","2024-10-20 15:00:00","11.8348","3.47956","27.207","2.128571428571429","7.49","6.278","8487.912","0.03","48.28","30.0947","4.72319","23.8","0","SATNPRO1963","17.43","0.24414","5"],
    [37280,"HCEP03730564","2024-10-20 15:15:00","11.8369","3.47885","27.272","2.147142857142857","7.5","6.179","8490.221","0.03","5.74","30.0862","4.72196","24","0","SATNPRO1963","17.416","0.24394","5"],
    [37281,"HCEP03730564","2024-10-20 15:30:00","11.8384","3.47827","27.343","2.201428571428572","7.5","6.195","8491.741","0.02","4.85","30.0794","4.72098","24.61","0","SATNPRO1963","17.573999999999998","0.24616","5"],
    [37282,"HCEP03730564","2024-10-20 15:45:00","11.8406","3.4779","27.435","2.195714285714286","7.5","6.209","8493.864","0.03","5.31","30.074","4.7202","24.53","0","SATNPRO1963","17.408","0.24384","5"],
    [37283,"HCEP03730564","2024-10-20 16:00:00","11.8381","3.47864","27.539","2.171428571428572","7.5","6.181","8486.264","0.01","0","30.0831","4.72152","24.28","0","SATNPRO1963","17.28","0.24202","5"],
    [37284,"HCEP03730564","2024-10-20 16:15:00","11.8391","3.47876","27.617","2.222857142857143","7.5","6.193","8486.367","0.02","3.07","30.0834","4.72156","24.84","0","SATNPRO1963","17.466","0.24466","5"],
    [37285,"HCEP03730564","2024-10-20 16:30:00","11.8407","3.4787","27.726","2.274285714285714","7.5","6.255","8499.998","0.01","0","30.0815","4.72127","25.43","0","SATNPRO1963","17.658","0.24732","5"],
    [37286,"HCEP03730564","2024-10-20 16:45:00","11.8403","3.47922","27.849","2.27","7.51","6.222","8497.038","0.01","0","30.0867","4.72203","25.37","0","SATNPRO1963","17.81","0.24944","5"],
    [37287,"HCEP03730564","2024-10-20 17:00:00","11.8353","3.48075","27.866","2.215714285714286","7.51","6.241","8494.757","0.01","2.17","30.1055","4.72475","24.77","0","SATNPRO1963","17.76","0.24878","5"],
    [37288,"HCEP03730564","2024-10-20 17:15:00","11.8391","3.48208","27.936","2.225714285714286","7.5","6.222","8497.142","0.02","5.74","30.1152","4.72607","24.88","0","SATNPRO1963","18.352","0.25706","5"],
    [37289,"HCEP03730564","2024-10-20 17:30:00","11.8414","3.48555","28.005","2.302857142857143","7.51","6.219","8490.195","0.01","3.76","30.1465","4.73048","25.75","0","SATNPRO1963","18.882","0.26448","5"],
    [37290,"HCEP03730564","2024-10-20 17:45:00","11.8429","3.49005","28.041","2.262857142857143","7.51","6.206","8488.936","0.01","5.74","30.1885","4.73639","25.3","0","SATNPRO1963","19.762","0.2768","5"],
    [37291,"HCEP03730564","2024-10-20 18:00:00","11.8437","3.49344","28.035","2.281428571428572","7.51","6.231","8498.426","0.01","4.85","30.2204","4.74088","25.53","0","SATNPRO1963","19.944","0.27938","5"],
    [37292,"HCEP03730564","2024-10-20 18:15:00","11.8441","3.49747","27.999","2.282857142857143","7.52","6.23","8497.09","0.02","0","30.2588","4.74631","25.54","0","SATNPRO1963","20.396","0.28566","5"],
    [37293,"HCEP03730564","2024-10-20 18:30:00","11.8548","3.50687","27.951","2.4","7.53","6.238","8496.646","0.01","0","30.3404","4.75769","26.87","0","SATNPRO1963","21.62","0.30284","5"],
    [37294,"HCEP03730564","2024-10-20 18:45:00","11.8581","3.51036","27.879","2.551428571428572","7.54","6.276","8498.504","0.01","4.85","30.3713","4.762","28.57","0","SATNPRO1963","21.848","0.306","5"],
    [37295,"HCEP03730564","2024-10-20 19:00:00","11.8578","3.51128","27.825","2.561428571428571","7.54","6.258","8495.491","0.01","2.17","30.3803","4.76328","28.7","0","SATNPRO1963","21.912","0.3069","5"],
    [37296,"HCEP03730564","2024-10-20 19:15:00","11.8579","3.51138","27.728","2.551428571428572","7.54","6.27","8490.432","0.01","0","30.3813","4.76341","28.58","0","SATNPRO1963","21.578","0.30222","5"],
    [37297,"HCEP03730564","2024-10-20 19:30:00","11.8573","3.51031","27.647","2.545714285714286","7.54","6.281","8495.594","0.01","5.74","30.3715","4.76203","28.51","0","SATNPRO1963","21.606","0.30266","5"],
    [37298,"HCEP03730564","2024-10-20 19:45:00","11.8566","3.50971","27.53","2.534285714285714","7.54","6.266","8485.03","0.01","4.85","30.3663","4.7613","28.38","0","SATNPRO1963","21.56","0.30198","5"],
    [37299,"HCEP03730564","2024-10-20 20:00:00","11.8503","3.50325","27.37","2.481428571428572","7.54","6.27","8481.436","0.01","2.17","30.3095","4.75335","27.77","0","SATNPRO1963","20.997999999999998","0.2941","5"],
    [37300,"HCEP03730564","2024-10-20 20:15:00","11.8467","3.4995","27.194","2.38","7.52","6.297","8488.596","0.01","7.52","30.2765","4.74874","26.64","0","SATNPRO1963","20.318","0.2846","5"],
    [37301,"HCEP03730564","2024-10-20 20:30:00","11.8448","3.49033","27.002","2.317142857142857","7.52","6.248","8477.476","0.01","0","30.1901","4.73653","25.92","0","SATNPRO1963","19.528","0.2735","5"],
    [37302,"HCEP03730564","2024-10-20 20:45:00","11.8446","3.49435","26.808","2.281428571428572","7.51","6.252","8478.656","0.01","6.14","30.2289","4.74202","25.52","0","SATNPRO1963","19.946","0.27934","5"],
    [37303,"HCEP03730564","2024-10-20 21:00:00","11.8463","3.49897","26.582","2.264285714285714","7.51","6.243","8492.397","0.02","5.31","30.2719","4.74806","25.33","0","SATNPRO1963","20.458","0.28656","5"],
    [37304,"HCEP03730564","2024-10-20 21:15:00","11.849","3.50155","26.327","2.268571428571429","7.52","6.222","8472.359","0.02","2.17","30.2946","4.75121","25.39","0","SATNPRO1963","20.802","0.29138","5"],
    [37305,"HCEP03730564","2024-10-20 21:30:00","11.8469","3.49962","26.079","2.275714285714286","7.52","6.084","8261.81","0.02","40.59","30.2779","4.74887","25.47","0","SATNPRO1963","20.486","0.28696","5"],
    [37306,"HCEP03730564","2024-10-20 21:45:00","11.8442","3.49742","25.784","2.25","7.51","6.276","8476.61","0.01","5.74","30.2591","4.74623","25.18","0","SATNPRO1963","20.164","0.28242","5"],
    [37307,"HCEP03730564","2024-10-20 22:00:00","11.8426","3.49592","25.394","2.214285714285714","7.51","6.321","8442.552","0","6.14","30.2461","4.7444","24.77","0","SATNPRO1963","20.128","0.2819","5"],
    [37308,"HCEP03730564","2024-10-20 22:15:00","11.8397","3.49347","25.132","2.17","7.51","6.34","8461.598","0.01","0","30.225","4.74144","24.28","0","SATNPRO1963","19.308","0.27038","5"],
    [37309,"HCEP03730564","2024-10-20 22:30:00","11.836","3.48801","24.86","2.078571428571429","7.5","6.324","8457.605","0","8.68","30.1758","4.73452","23.25","0","SATNPRO1963","18.61","0.26066","5"],
    [37310,"HCEP03730564","2024-10-20 22:45:00","11.835","3.48611","24.603","2.027142857142857","7.5","6.354","8229.749","0.01","52.48","30.1584","4.73206","22.67","0","SATNPRO1963","17.91","0.25086","5"],
    [37311,"HCEP03730564","2024-10-20 23:00:00","11.8353","3.48274","24.389","1.995714285714286","7.49","6.351","8262.611","0.01","7.2","30.1259","4.72745","22.31","0","SATNPRO1963","17.678","0.24764","5"],
    [37312,"HCEP03730564","2024-10-20 23:15:00","11.8345","3.48238","24.222","1.994285714285714","7.49","6.302","8486.576","0.01","5.31","30.1232","4.72707","22.29","0","SATNPRO1963","17.398","0.24368","5"],
    [37313,"HCEP03730564","2024-10-20 23:30:00","11.834","3.48254","24.094","1.985714285714286","7.48","6.26","8467.268","0.01","4.85","30.1251","4.72734","22.2","0","SATNPRO1963","17.41","0.24388","5"],
    [37314,"HCEP03730564","2024-10-20 23:45:00","11.8344","3.48348","23.936","2.004285714285714","7.49","6.232","8441.238","0.01","6.14","30.1339","4.72856","22.4","0","SATNPRO1963","17.874000000000002","0.25038","5"],
    [37315,"HCEP03730564","2024-10-21 00:00:00","11.8374","3.48265","23.835","2.04","7.49","6.314","8482.04","0.01","5.31","30.1236","4.72705","22.8","0","SATNPRO1963","17.636","0.247","5"],
    [37316,"HCEP03730564","2024-10-21 00:15:00","11.8373","3.48311","23.756","2.065714285714286","7.49","6.227","8111.398","0.02","54.85","30.1281","4.72769","23.09","0","SATNPRO1963","17.662","0.2474","5"],
    [37317,"HCEP03730564","2024-10-21 00:30:00","11.8383","3.48316","23.695","2.082857142857143","7.5","6.273","8027.021","0.01","40.94","30.1278","4.72763","23.28","0","SATNPRO1963","17.97","0.25168","5"],
    [37318,"HCEP03730564","2024-10-21 00:45:00","11.8384","3.48376","23.647","2.104285714285714","7.49","6.279","8371.757","0.02","58.87","30.1335","4.72844","23.52","0","SATNPRO1963","17.902","0.25076","5"],
    [37319,"HCEP03730564","2024-10-21 01:00:00","11.8388","3.48331","23.58","2.105714285714286","7.49","4.436","6099.162","0.03","95.94","30.1288","4.72777","23.54","0","SATNPRO1963","17.672","0.24752","5"],
    [37320,"HCEP03730564","2024-10-21 01:15:00","11.8376","3.48356","23.765","2.08","7.49","5.682","8469.448","0.01","0","30.1321","4.72826","23.26","0","SATNPRO1963","17.834","0.24982","5"],
    [37321,"HCEP03730564","2024-10-21 01:30:00","11.8385","3.48226","23.81","2.061428571428571","7.49","5.852","8482.276","0.01","0","30.119","4.72639","23.05","0","SATNPRO1963","17.516000000000002","0.24532","5"],
    [37322,"HCEP03730564","2024-10-21 01:45:00","11.8373","3.48248","23.899","2.025714285714286","7.49","5.675","8469.842","0.03","0","30.122","4.72683","22.64","0","SATNPRO1963","17.378","0.2434","5"],
    [37323,"HCEP03730564","2024-10-21 02:00:00","11.8378","3.48258","24.047","2.025714285714286","7.49","5.684","8469.896","0.01","0","30.1226","4.72692","22.64","0","SATNPRO1963","17.522","0.24544","5"],
    [37324,"HCEP03730564","2024-10-21 02:15:00","11.8401","3.48219","24.176","2.061428571428571","7.49","5.852","8482.302","0.01","0","30.1168","4.72608","23.05","0","SATNPRO1963","17.62","0.24682","5"],
    [37325,"HCEP03730564","2024-10-21 02:30:00","11.8416","3.48185","24.324","2.118571428571429","7.49","5.725","8462.099","0.02","0","30.1123","4.72543","23.68","0","SATNPRO1963","17.704","0.24798","5"],
    [37326,"HCEP03730564","2024-10-21 02:45:00","11.8432","3.48133","24.466","2.145714285714286","7.5","5.649","8461.888","0.01","0","30.106","4.72452","23.99","0","SATNPRO1963","17.598","0.2465","5"],
    [37327,"HCEP03730564","2024-10-21 03:00:00","11.8448","3.48053","24.643","2.158571428571428","7.5","5.828","8479.417","0.02","5.31","30.0969","4.72323","24.14","0","SATNPRO1963","17.362000000000002","0.24318","5"],
    [37328,"HCEP03730564","2024-10-21 03:15:00","11.8455","3.47931","24.812","2.128571428571429","7.49","5.724","8469.292","0.04","0","30.0846","4.72148","23.79","0","SATNPRO1963","17.098","0.2395","5"],
    [37329,"HCEP03730564","2024-10-21 03:30:00","11.8455","3.47855","25.053","2.085714285714286","7.49","5.707","8470.863","0.02","0","30.0772","4.72046","23.32","0","SATNPRO1963","17.114","0.2397","5"],
    [37330,"HCEP03730564","2024-10-21 03:45:00","11.8469","3.47757","25.221","2.045714285714286","7.49","5.855","8480.548","0.02","0","30.0667","4.71895","22.87","0","SATNPRO1963","16.7","0.23392","5"],
    [37331,"HCEP03730564","2024-10-21 04:00:00","11.8475","3.4768","25.434","2.018571428571429","7.48","5.812","8477.816","0.05","2.17","30.0587","4.71783","22.56","0","SATNPRO1963","16.66","0.2334","5"],
    [37332,"HCEP03730564","2024-10-21 04:15:00","11.8513","3.47521","25.626","2.005714285714286","7.49","5.751","8477.316","0.01","5.31","30.0403","4.71518","22.41","0","SATNPRO1963","16.338","0.2288","5"],
    [37333,"HCEP03730564","2024-10-21 04:30:00","11.8535","3.47453","25.842","2.028571428571428","7.49","5.878","8481.777","0.02","0","30.0319","4.71398","22.68","0","SATNPRO1963","16.32","0.22858","5"],
    [37334,"HCEP03730564","2024-10-21 04:45:00","11.8584","3.47246","26.102","2.04","7.48","5.892","8478.893","0.03","4.85","30.008","4.71054","22.8","0","SATNPRO1963","15.77","0.22086","5"],
    [37335,"HCEP03730564","2024-10-21 05:00:00","11.8638","3.47039","26.324","2.041428571428571","7.48","5.721","8478.813","0.02","6.51","29.9837","4.70704","22.81","0","SATNPRO1963","15.39","0.21554","5"],
    [37336,"HCEP03730564","2024-10-21 05:15:00","11.8668","3.46962","26.517","2.061428571428571","7.48","5.903","8480.889","0.02","0","29.9739","4.70562","23.04","0","SATNPRO1963","15.186","0.21268","5"],
    [37337,"HCEP03730564","2024-10-21 05:30:00","11.8742","3.46752","26.706","2.101428571428571","7.49","5.808","8475.875","0.04","3.07","29.9477","4.70183","23.48","0","SATNPRO1963","15.258","0.21374","5"],
    [37338,"HCEP03730564","2024-10-21 05:45:00","11.8757","3.46647","26.907","2.107142857142857","7.49","5.738","8475.402","0.01","0","29.9364","4.70021","23.55","0","SATNPRO1963","14.92","0.20898","5"],
    [37339,"HCEP03730564","2024-10-21 06:00:00","11.8804","3.46571","27.065","2.1","7.49","5.942","8481.019","0.03","0","29.9253","4.69859","23.47","0","SATNPRO1963","14.932","0.20912","5"],
    [37340,"HCEP03730564","2024-10-21 06:15:00","11.8871","3.463","27.2","2.108571428571428","7.49","5.808","8460.812","0.02","0","29.8938","4.69404","23.56","0","SATNPRO1963","14.542","0.20368","5"],
    [37341,"HCEP03730564","2024-10-21 06:30:00","11.8981","3.45987","27.345","2.148571428571429","7.49","5.675","8459.681","0.02","5.31","29.8551","4.68841","24.01","0","SATNPRO1963","13.968","0.19566","5"],
    [37342,"HCEP03730564","2024-10-21 06:45:00","11.9046","3.45794","27.483","2.158571428571428","7.49","6.017","8474.146","0.02","0","29.8313","4.68497","24.12","0","SATNPRO1963","14.048","0.19678","5"],
    [37343,"HCEP03730564","2024-10-21 07:00:00","11.9022","3.45821","27.696","2.172857142857143","7.49","5.841","8471.651","0.03","0","29.8357","4.68564","24.28","0","SATNPRO1963","14.012","0.19626","5"],
    [37344,"HCEP03730564","2024-10-21 07:15:00","11.886","3.46333","27.792","2.135714285714286","7.49","5.591","8469.501","0.01","0","29.8977","4.69464","23.87","0","SATNPRO1963","14.694","0.20578","5"],
    [37345,"HCEP03730564","2024-10-21 07:30:00","11.8809","3.46514","27.856","2.114285714285714","7.48","5.886","8479.996","0.01","0","29.9191","4.69774","23.63","0","SATNPRO1963","14.782","0.2071","5"],
    [37346,"HCEP03730564","2024-10-21 07:45:00","11.8674","3.4688","27.876","1.994285714285714","7.48","5.83","8469.866","0.03","0","29.9649","4.70442","22.29","0","SATNPRO1963","15.404","0.21578","5"],
    [37347,"HCEP03730564","2024-10-21 08:00:00","11.8611","3.4713","27.901","1.952857142857143","7.48","5.787","8470.209","0.01","0","29.994","4.70862","21.82","0","SATNPRO1963","15.782","0.22108","5"],
    [37348,"HCEP03730564","2024-10-21 08:15:00","11.8584","3.47287","27.914","1.984285714285714","7.48","5.829","8481.699","0.03","0","30.0112","4.71109","22.17","0","SATNPRO1963","15.954","0.22344","5"],
    [37349,"HCEP03730564","2024-10-21 08:30:00","11.8554","3.47452","27.929","1.967142857142857","7.48","5.913","8476.429","0.01","0","30.0295","4.71373","21.98","0","SATNPRO1963","16.134","0.226","5"],
    [37350,"HCEP03730564","2024-10-21 08:45:00","11.8565","3.47414","27.908","1.985714285714286","7.48","5.735","8476.245","0.03","0","30.0249","4.71306","22.2","0","SATNPRO1963","16.346","0.22896","5"],
    [37351,"HCEP03730564","2024-10-21 09:00:00","11.8595","3.47372","27.924","2.024285714285714","7.48","5.772","8476.139","0.01","0","30.0185","4.71211","22.63","0","SATNPRO1963","16.322","0.22862","5"],
    [37352,"HCEP03730564","2024-10-21 09:15:00","11.8594","3.47396","27.907","2.041428571428571","7.48","5.889","8467.661","0.02","3.07","30.0209","4.71246","22.81","0","SATNPRO1963","16.137999999999998","0.22604","5"],
    [37353,"HCEP03730564","2024-10-21 09:30:00","11.859","3.4746","27.807","2.042857142857143","7.48","5.795","8461.387","0.01","2.17","30.0274","4.71337","22.84","0","SATNPRO1963","16.276","0.22796","5"],
    [37354,"HCEP03730564","2024-10-21 09:45:00","11.8584","3.47496","27.757","2.047142857142857","7.48","5.429","8455.451","0.05","8.95","30.0313","4.71393","22.88","0","SATNPRO1963","16.738","0.2345","5"],
    [37355,"HCEP03730564","2024-10-21 10:00:00","11.8631","3.47496","27.702","2.064285714285714","7.48","5.738","8460.862","0.01","3.07","30.0276","4.71334","23.07","0","SATNPRO1963","16.466","0.23058","5"],
    [37356,"HCEP03730564","2024-10-21 10:15:00","11.8657","3.47402","27.58","2.08","7.49","5.747","8460.496","0.01","0","30.0165","4.71173","23.24","0","SATNPRO1963","16.212","0.2271","5"],
    [37357,"HCEP03730564","2024-10-21 10:30:00","11.8642","3.47467","27.559","2.057142857142857","7.49","6.133","8468.974","0.01","5.31","30.024","4.7128","23","0","SATNPRO1963","16.342","0.2289","5"],
    [37358,"HCEP03730564","2024-10-21 10:45:00","11.8631","3.47484","27.542","2.054285714285714","7.49","5.818","8463.33","0.01","4.85","30.0265","4.71317","22.95","0","SATNPRO1963","16.314","0.22852","5"],
    [37359,"HCEP03730564","2024-10-21 11:00:00","11.8627","3.47503","27.49","2.054285714285714","7.48","5.587","8464.879","0.02","5.74","30.0286","4.71347","22.97","0","SATNPRO1963","16.272","0.22794","5"],
    [37360,"HCEP03730564","2024-10-21 11:15:00","11.8659","3.47391","27.392","2.068571428571428","7.48","6.081","8463.462","0.04","5.31","30.0154","4.71155","23.12","0","SATNPRO1963","16.184","0.22672","5"],
    [37361,"HCEP03730564","2024-10-21 11:30:00","11.8799","3.47305","27.306","2.194285714285714","7.49","5.777","8427.909","0.01","3.76","29.996","4.7086","24.53","0","SATNPRO1963","16.264","0.22778","5"],
    [37362,"HCEP03730564","2024-10-21 11:45:00","11.8836","3.47317","27.138","2.388571428571428","7.5","5.785","8425.174","0.01","0","29.9941","4.70829","26.7","0","SATNPRO1963","16.546","0.2318","5"],
    [37363,"HCEP03730564","2024-10-21 12:00:00","11.8893","3.4733","27.058","2.492857142857143","7.52","6.029","8462.281","0.01","0","29.9908","4.70773","27.87","0","SATNPRO1963","16.88","0.2364","5"],
    [37364,"HCEP03730564","2024-10-21 12:15:00","11.8901","3.47364","26.995","2.568571428571428","7.53","6.06","8460.941","0","2.17","29.9934","4.70808","28.72","0","SATNPRO1963","16.992","0.23798","5"],
    [37365,"HCEP03730564","2024-10-21 12:30:00","11.8913","3.47515","26.898","2.668571428571429","7.53","5.578","6515.592","0.01","4.34","30.007","4.70998","29.85","0","SATNPRO1963","17.466","0.24464","5"],
    [37366,"HCEP03730564","2024-10-21 12:45:00","11.891","3.47585","26.848","2.741428571428572","7.53","6.011","8472.122","0.03","6.51","30.014","4.71098","30.66","0","SATNPRO1963","17.334","0.2428","5"],
    [37367,"HCEP03730564","2024-10-21 13:00:00","11.887","3.47662","26.827","2.695714285714286","7.54","5.89","8473.936","0.01","0","30.0246","4.71253","30.14","0","SATNPRO1963","17.38","0.24344","5"],
    [37368,"HCEP03730564","2024-10-21 13:15:00","11.8802","3.47751","26.794","2.598571428571429","7.53","5.879","8473.675","0.01","0","30.0385","4.7146","29.05","0","SATNPRO1963","17.242","0.24152","5"],
    [37369,"HCEP03730564","2024-10-21 13:30:00","11.8774","3.4801","26.768","2.512857142857143","7.53","5.966","8473.962","0.02","0","30.0657","4.71847","28.1","0","SATNPRO1963","17.772000000000002","0.24894","5"],
    [37370,"HCEP03730564","2024-10-21 13:45:00","11.8735","3.47881","26.73","2.471428571428572","7.52","5.864","8473.438","0.01","0","30.0565","4.71723","27.64","0","SATNPRO1963","17.3","0.2423","5"],
    [37371,"HCEP03730564","2024-10-21 14:00:00","11.8718","3.47883","26.71","2.355714285714286","7.51","5.594","8474.354","0.01","0","30.0581","4.71747","26.34","0","SATNPRO1963","17.408","0.24382","5"],
    [37372,"HCEP03730564","2024-10-21 14:15:00","11.8839","3.48153","26.722","2.624285714285714","7.53","5.63","8477.843","0.01","3.07","30.0741","4.71958","29.36","0","SATNPRO1963","18.182000000000002","0.25466","5"],
    [37373,"HCEP03730564","2024-10-21 14:30:00","11.8791","3.4808","26.739","2.607142857142857","7.53","5.802","8472.438","0.02","4.85","30.071","4.7192","29.16","0","SATNPRO1963","18.02","0.25238","5"],
    [37374,"HCEP03730564","2024-10-21 14:45:00","11.8813","3.48141","26.77","2.65","7.53","5.654","8472.412","0.01","4.85","30.0751","4.71975","29.65","0","SATNPRO1963","18.118","0.2538","5"],
    [37375,"HCEP03730564","2024-10-21 15:00:00","11.8774","3.48146","26.834","2.641428571428572","7.54","5.878","8475.168","0.01","0","30.0786","4.72031","29.54","0","SATNPRO1963","18.174","0.25454","5"],
    [37376,"HCEP03730564","2024-10-21 15:15:00","11.8675","3.48168","26.907","2.488571428571428","7.53","5.85","8471.781","0.02","4.34","30.0888","4.72189","27.84","0","SATNPRO1963","17.712","0.24808","5"],
    [37377,"HCEP03730564","2024-10-21 15:30:00","11.8514","3.48477","26.972","2.085714285714286","7.5","5.811","8471.757","0.01","0","30.1313","4.72813","23.32","0","SATNPRO1963","17.785999999999998","0.24908","5"],
    [37378,"HCEP03730564","2024-10-21 15:45:00","11.8731","3.4947","27.05","2.212857142857143","7.51","5.926","8477.371","0.02","0","30.209","4.73881","24.76","0","SATNPRO1963","20.004","0.28016","5"],
    [37379,"HCEP03730564","2024-10-21 16:00:00","11.8806","3.50356","27.112","2.584285714285714","7.54","5.863","8473.385","0.01","0","30.2879","4.74986","28.94","0","SATNPRO1963","20.832","0.29178","5"],
    [37380,"HCEP03730564","2024-10-21 16:15:00","11.8835","3.51588","27.16","2.707142857142857","7.55","5.793","8473.963","0.01","0","30.4038","4.7662","30.34","0","SATNPRO1963","22.132","0.30996","5"],
    [37381,"HCEP03730564","2024-10-21 16:30:00","11.8825","3.51642","27.211","2.73","7.56","5.866","8477.633","0.01","3.07","30.4097","4.76706","30.61","0","SATNPRO1963","22.096","0.30948","5"],
    [37382,"HCEP03730564","2024-10-21 16:45:00","11.8833","3.51954","27.267","2.715714285714286","7.56","5.871","8475.142","0.02","0","30.439","4.77119","30.45","0","SATNPRO1963","22.328","0.31272","5"],
    [37383,"HCEP03730564","2024-10-21 17:00:00","11.8831","3.52097","27.324","2.718571428571429","7.56","5.827","8474.982","0.01","0","30.4529","4.77316","30.49","0","SATNPRO1963","22.5","0.31514","5"],
    [37384,"HCEP03730564","2024-10-21 17:15:00","11.8841","3.52301","27.368","2.757142857142857","7.56","5.813","8478.131","0.01","4.85","30.4717","4.77579","30.92","0","SATNPRO1963","22.804","0.3194","5"],
    [37385,"HCEP03730564","2024-10-21 17:30:00","11.8844","3.52407","27.432","2.758571428571429","7.57","5.84","8474.826","0.02","0","30.4815","4.77717","30.94","0","SATNPRO1963","22.886","0.32054","5"],
    [37386,"HCEP03730564","2024-10-21 17:45:00","11.8854","3.52473","27.473","2.767142857142857","7.57","5.796","8475.931","0.01","0","30.487","4.77795","31.04","0","SATNPRO1963","22.87","0.32032","5"],
    [37387,"HCEP03730564","2024-10-21 18:00:00","11.885","3.52434","27.512","2.752857142857143","7.57","5.849","8477.397","0.01","0","30.4836","4.77747","30.87","0","SATNPRO1963","23.068","0.32312","5"],
    [37388,"HCEP03730564","2024-10-21 18:15:00","11.8858","3.52543","27.549","2.755714285714286","7.57","5.862","8476.087","0.01","0","30.4935","4.77885","30.92","0","SATNPRO1963","23.256","0.32574","5"],
    [37389,"HCEP03730564","2024-10-21 18:30:00","11.8857","3.52474","27.572","2.78","7.57","5.853","8475.614","0.01","0","30.4869","4.77793","31.18","0","SATNPRO1963","23.172","0.32456","5"],
    [37390,"HCEP03730564","2024-10-21 18:45:00","11.8861","3.52578","27.597","2.76","7.57","5.89","8478.707","0.01","7.2","30.4965","4.77929","30.96","0","SATNPRO1963","23.206","0.32502","5"],
    [37391,"HCEP03730564","2024-10-21 19:00:00","11.8871","3.52666","27.587","2.798571428571429","7.58","5.893","8474.775","0.01","0","30.5041","4.78034","31.4","0","SATNPRO1963","23.274","0.326","5"],
    [37392,"HCEP03730564","2024-10-21 19:15:00","11.8869","3.52635","27.567","2.808571428571429","7.57","5.892","8474.093","0.01","0","30.5013","4.77994","31.5","0","SATNPRO1963","23.236","0.32546","5"],
    [37393,"HCEP03730564","2024-10-21 19:30:00","11.8868","3.52631","27.519","2.802857142857143","7.57","5.911","8473.594","0.01","0","30.501","4.77991","31.43","0","SATNPRO1963","23.798","0.33334","5"],
    [37394,"HCEP03730564","2024-10-21 19:45:00","11.8868","3.52622","27.464","2.791428571428571","7.58","5.899","8473.517","0.01","0","30.5002","4.77979","31.32","0","SATNPRO1963","23.446","0.3284","5"],
    [37395,"HCEP03730564","2024-10-21 20:00:00","11.8865","3.52602","27.389","2.778571428571429","7.57","5.891","8473.807","0.01","0","30.4985","4.77954","31.16","0","SATNPRO1963","23.208","0.32508","5"],
    [37396,"HCEP03730564","2024-10-21 20:15:00","11.886","3.52597","27.312","2.751428571428571","7.57","5.916","8477.084","0.01","0","30.4984","4.77954","30.86","0","SATNPRO1963","23.414","0.328","5"],
    [37397,"HCEP03730564","2024-10-21 20:30:00","11.8862","3.52576","27.195","2.728571428571429","7.57","5.895","8472.857","0.02","6.14","30.4964","4.77924","30.61","0","SATNPRO1963","23.142","0.32412","5"],
    [37398,"HCEP03730564","2024-10-21 20:45:00","11.8858","3.52513","27.061","2.707142857142857","7.57","5.882","8473.173","0.01","3.07","30.4906","4.77843","30.36","0","SATNPRO1963","22.858","0.32014","5"],
    [37399,"HCEP03730564","2024-10-21 21:00:00","11.8857","3.52389","26.908","2.7","7.57","5.908","8475.115","0.01","0","30.479","4.77677","30.28","0","SATNPRO1963","23.07","0.32312","5"],
    [37400,"HCEP03730564","2024-10-21 21:15:00","11.8856","3.52336","26.746","2.691428571428571","7.56","5.893","8473.727","0.01","0","30.474","4.77606","30.19","0","SATNPRO1963","22.988","0.32198","5"],
    [37401,"HCEP03730564","2024-10-21 21:30:00","11.8856","3.52507","26.564","2.697142857142857","7.56","5.866","8474.486","0.01","0","30.4905","4.77838","30.25","0","SATNPRO1963","23.132","0.32404","5"],
    [37402,"HCEP03730564","2024-10-21 21:45:00","11.8856","3.52542","26.376","2.704285714285714","7.56","5.914","8474.54","0.01","0","30.494","4.77886","30.33","0","SATNPRO1963","23.174","0.32458","5"],
    [37403,"HCEP03730564","2024-10-21 22:00:00","11.8856","3.52554","26.177","2.712857142857143","7.56","5.907","8475.272","0.01","0","30.4952","4.77902","30.43","0","SATNPRO1963","23.062","0.323","5"],
    [37404,"HCEP03730564","2024-10-21 22:15:00","11.8859","3.52623","25.967","2.721428571428572","7.56","5.861","8475.402","0.01","3.07","30.5017","4.77992","30.52","0","SATNPRO1963","23.302","0.32638","5"],
    [37405,"HCEP03730564","2024-10-21 22:30:00","11.8858","3.52923","25.751","2.694285714285714","7.56","5.868","8476.112","0.01","0","30.5306","4.784","30.22","0","SATNPRO1963","23.172","0.32458","5"],
    [37406,"HCEP03730564","2024-10-21 22:45:00","11.8859","3.52986","25.528","2.661428571428572","7.56","5.846","8475.403","0.02","0","30.5367","4.78484","29.86","0","SATNPRO1963","23.212","0.32516","5"],
    [37407,"HCEP03730564","2024-10-21 23:00:00","11.8867","3.53051","25.32","2.668571428571429","7.56","5.725","8474.878","0.01","0","30.5424","4.78562","29.94","0","SATNPRO1963","23.328","0.32676","5"],
    [37408,"HCEP03730564","2024-10-21 23:15:00","11.8869","3.53082","25.107","2.668571428571429","7.56","5.683","8476.112","0.01","0","30.5452","4.78601","29.94","0","SATNPRO1963","23.445999999999998","0.32842","5"],
    [37409,"HCEP03730564","2024-10-21 23:30:00","11.8875","3.53141","24.905","2.662857142857143","7.56","5.762","8472.307","0.02","5.31","30.5505","4.78673","29.89","0","SATNPRO1963","23.182","0.3247","5"],
    [37410,"HCEP03730564","2024-10-21 23:45:00","11.8888","3.53195","24.716","2.677142857142858","7.56","5.625","8470.941","0.01","2.17","30.5547","4.78729","30.04","0","SATNPRO1963","23.483999999999998","0.3289","5"],
    [37411,"HCEP03730564","2024-10-22 00:00:00","11.8891","3.53257","24.533","2.69","7.56","5.601","8470.787","0.02","0","30.5605","4.7881","30.19","0","SATNPRO1963","23.464000000000002","0.32866","5"],
    [37412,"HCEP03730564","2024-10-22 00:15:00","11.8896","3.53313","24.382","2.694285714285714","7.56","5.745","8474.198","0.03","0","30.5655","4.7888","30.24","0","SATNPRO1963","23.514","0.32934","5"],
    [37413,"HCEP03730564","2024-10-22 00:30:00","11.8898","3.53343","24.24","2.702857142857143","7.56","5.501","8473.516","0.01","0","30.5682","4.78916","30.34","0","SATNPRO1963","23.432","0.3282","5"],
    [37414,"HCEP03730564","2024-10-22 00:45:00","11.8898","3.53355","24.123","2.702857142857143","7.57","5.692","8476.717","0.02","0","30.5694","4.78932","30.34","0","SATNPRO1963","23.45","0.32848","5"],
    [37415,"HCEP03730564","2024-10-22 01:00:00","11.89","3.53362","24.036","2.69","7.57","5.56","8465.484","0.05","0","30.57","4.7894","30.19","0","SATNPRO1963","23.386","0.32756","5"],
    [37416,"HCEP03730564","2024-10-22 01:15:00","11.8888","3.53367","23.964","2.661428571428572","7.57","5.382","8440.523","0.04","14.56","30.5714","4.78962","29.87","0","SATNPRO1963","23.218","0.3252","5"],
    [37417,"HCEP03730564","2024-10-22 01:30:00","11.8884","3.53387","23.912","2.634285714285714","7.57","5.962","8465.931","0.02","2.17","30.5737","4.78994","29.56","0","SATNPRO1963","23.34","0.32694","5"],
    [37418,"HCEP03730564","2024-10-22 01:45:00","11.8889","3.53447","23.898","2.622857142857143","7.56","5.848","8469.815","0.01","0","30.5791","4.79069","29.44","0","SATNPRO1963","23.23","0.32536","5"],
    [37419,"HCEP03730564","2024-10-22 02:00:00","11.8891","3.53469","23.912","2.621428571428571","7.56","5.751","8470.707","0.01","0","30.5811","4.79097","29.42","0","SATNPRO1963","23.32","0.32662","5"],
    [37420,"HCEP03730564","2024-10-22 02:15:00","11.889","3.53488","23.972","2.622857142857143","7.56","5.943","8471.022","0.01","0","30.5829","4.79124","29.44","0","SATNPRO1963","23.471999999999998","0.32874","5"],
    [37421,"HCEP03730564","2024-10-22 02:30:00","11.8892","3.53533","24.063","2.627142857142857","7.57","5.741","8459.654","0.04","3.76","30.587","4.79181","29.49","0","SATNPRO1963","23.552","0.3299","5"],
    [37422,"HCEP03730564","2024-10-22 02:45:00","11.8901","3.53567","24.154","2.641428571428572","7.57","5.433","8458.343","0.02","2.17","30.5895","4.79216","29.65","0","SATNPRO1963","23.748","0.33264","5"],
    [37423,"HCEP03730564","2024-10-22 03:00:00","11.8883","3.53569","24.277","2.615714285714286","7.57","5.783","8472.832","0.03","5.31","30.5911","4.79243","29.36","0","SATNPRO1963","23.376","0.3274","5"],
    [37424,"HCEP03730564","2024-10-22 03:15:00","11.8883","3.53561","24.402","2.555714285714286","7.56","5.728","8453.745","0.06","4.34","30.5903","4.79232","28.68","0","SATNPRO1963","23.064","0.32308","5"],
    [37425,"HCEP03730564","2024-10-22 03:30:00","11.8876","3.53558","24.653","2.531428571428572","7.56","5.701","8453.928","0.04","3.07","30.5906","4.79238","28.41","0","SATNPRO1963","23.208000000000002","0.32502","5"],
    [37426,"HCEP03730564","2024-10-22 03:45:00","11.8876","3.53595","24.845","2.557142857142857","7.55","5.848","8474.436","0.01","0","30.594","4.79288","28.7","0","SATNPRO1963","23.126","0.32394","5"],
    [37427,"HCEP03730564","2024-10-22 04:00:00","11.8903","3.53647","25.03","2.604285714285714","7.55","5.87","8471.126","0.01","2.17","30.5967","4.79322","29.23","0","SATNPRO1963","23.684","0.33172","5"],
    [37428,"HCEP03730564","2024-10-22 04:15:00","11.892","3.53853","25.195","2.675714285714286","7.55","5.854","8471.941","0.01","0","30.615","4.79579","30.04","0","SATNPRO1963","23.812","0.33352","5"],
    [37429,"HCEP03730564","2024-10-22 04:30:00","11.8909","3.53885","25.383","2.614285714285714","7.56","5.878","8474.462","0.01","0","30.6189","4.79636","29.35","0","SATNPRO1963","23.232","0.3254","5"],
    [37430,"HCEP03730564","2024-10-22 04:45:00","11.8911","3.53888","25.573","2.57","7.56","5.888","8471.652","0.01","0","30.619","4.79639","28.85","0","SATNPRO1963","23.296","0.32632","5"],
    [37431,"HCEP03730564","2024-10-22 05:00:00","11.8907","3.53859","25.752","2.595714285714286","7.56","5.887","8471.677","0.01","3.07","30.6164","4.79604","29.13","0","SATNPRO1963","23.396","0.32766","5"],
    [37432,"HCEP03730564","2024-10-22 05:15:00","11.8911","3.53821","25.957","2.591428571428572","7.56","5.918","8474.435","0.01","0","30.6124","4.79548","29.09","0","SATNPRO1963","23.36","0.32716","5"],
    [37433,"HCEP03730564","2024-10-22 05:30:00","11.8907","3.53742","26.172","2.602857142857143","7.56","5.889","8471.045","0.01","5.31","30.605","4.79446","29.21","0","SATNPRO1963","23.348","0.32704","5"],
    [37434,"HCEP03730564","2024-10-22 05:45:00","11.8898","3.53636","26.378","2.58","7.56","5.893","8471.544","0.01","3.07","30.5955","4.79314","28.96","0","SATNPRO1963","23.194","0.3249","5"],
    [37435,"HCEP03730564","2024-10-22 06:00:00","11.8896","3.53526","26.576","2.575714285714286","7.56","5.905","8473.936","0.01","0","30.5851","4.79168","28.91","0","SATNPRO1963","23.084","0.32334","5"],
    [37436,"HCEP03730564","2024-10-22 06:15:00","11.8882","3.53374","26.762","2.567142857142857","7.55","5.877","8470.522","0.01","0","30.5714","4.78978","28.81","0","SATNPRO1963","22.956","0.32156","5"],
    [37437,"HCEP03730564","2024-10-22 06:30:00","11.8867","3.52163","26.937","2.615714285714286","7.56","5.875","8471.202","0.01","4.85","30.4563","4.77357","29.33","0","SATNPRO1963","22.656","0.3173","5"],
    [37438,"HCEP03730564","2024-10-22 06:45:00","11.8863","3.53012","27.102","2.615714285714286","7.55","5.886","8474.646","0.01","0","30.5382","4.78514","29.34","0","SATNPRO1963","22.79","0.31924","5"],
    [37439,"HCEP03730564","2024-10-22 07:00:00","11.8865","3.52752","27.253","2.545714285714286","7.55","5.851","8467.978","0.01","4.85","30.513","4.78158","28.55","0","SATNPRO1963","22.768","0.31894","5"],
    [37440,"HCEP03730564","2024-10-22 07:15:00","11.8873","3.5301","27.394","2.574285714285714","7.55","5.842","8468.267","0.01","3.07","30.537","4.78498","28.88","0","SATNPRO1963","22.768","0.31888","5"],
    [37441,"HCEP03730564","2024-10-22 07:30:00","11.8881","3.53527","27.522","2.52","7.55","5.872","8474.014","0.01","0","30.586","4.79188","28.28","0","SATNPRO1963","23.002","0.3222","5"],
    [37442,"HCEP03730564","2024-10-22 07:45:00","11.8884","3.53646","27.628","2.484285714285714","7.55","5.862","8470.575","0.01","0","30.5971","4.79346","27.89","0","SATNPRO1963","23.066000000000003","0.32312","5"],
    [37443,"HCEP03730564","2024-10-22 08:00:00","11.8885","3.53663","27.726","2.474285714285714","7.54","5.857","8470.967","0.01","3.07","30.5987","4.79368","27.78","0","SATNPRO1963","23.192","0.32484","5"],
    [37444,"HCEP03730564","2024-10-22 08:15:00","11.8888","3.53571","27.782","2.505714285714286","7.55","5.879","8474.435","0.01","0","30.5896","4.79239","28.13","0","SATNPRO1963","23.206","0.32506","5"],
    [37445,"HCEP03730564","2024-10-22 08:30:00","11.8882","3.53533","27.837","2.497142857142857","7.55","5.849","8469.763","0.02","0","30.5864","4.79195","28.03","0","SATNPRO1963","23.02","0.32242","5"],
    [37446,"HCEP03730564","2024-10-22 08:45:00","11.8884","3.53501","27.879","2.484285714285714","7.55","5.84","8471.046","0.01","3.07","30.5832","4.7915","27.88","0","SATNPRO1963","23.064","0.32304","5"],
    [37447,"HCEP03730564","2024-10-22 09:00:00","11.8884","3.53505","27.907","2.485714285714286","7.55","5.841","8474.014","0.01","0","30.5835","4.79154","27.9","0","SATNPRO1963","22.818","0.31962","5"],
    [37448,"HCEP03730564","2024-10-22 09:15:00","11.8883","3.53456","27.928","2.491428571428572","7.55","5.852","8469.501","0.01","0","30.5789","4.7909","27.97","0","SATNPRO1963","23.054","0.32292","5"],
    [37449,"HCEP03730564","2024-10-22 09:30:00","11.8883","3.53443","27.954","2.494285714285714","7.55","5.849","8469.975","0.01","0","30.5776","4.79072","27.99","0","SATNPRO1963","23.266000000000002","0.32588","5"],
    [37450,"HCEP03730564","2024-10-22 09:45:00","11.8881","3.53397","27.957","2.494285714285714","7.54","5.87","8472.753","0.01","3.76","30.5733","4.79012","27.99","0","SATNPRO1963","23.01","0.32228","5"],
    [37451,"HCEP03730564","2024-10-22 10:00:00","11.8879","3.53354","27.956","2.487142857142858","7.55","5.846","8468.264","0.01","7.2","30.5694","4.78957","27.91","0","SATNPRO1963","23.116","0.32382","5"],
    [37452,"HCEP03730564","2024-10-22 10:15:00","11.8879","3.53318","27.932","2.475714285714286","7.55","5.848","8469.501","0.01","0","30.566","4.78908","27.78","0","SATNPRO1963","23.054","0.3229","5"],
    [37453,"HCEP03730564","2024-10-22 10:30:00","11.8876","3.53269","27.891","2.478571428571429","7.54","5.866","8470.917","0.01","0","30.5615","4.78845","27.82","0","SATNPRO1963","22.983999999999998","0.32196","5"],
    [37454,"HCEP03730564","2024-10-22 10:45:00","11.8875","3.53234","27.855","2.475714285714286","7.54","5.81","8466.35","0.01","0","30.5583","4.788","27.78","0","SATNPRO1963","23.067999999999998","0.32312","5"],
    [37455,"HCEP03730564","2024-10-22 11:00:00","11.8873","3.53223","27.803","2.471428571428572","7.54","5.8","8468.058","0.01","0","30.5574","4.78787","27.73","0","SATNPRO1963","22.808","0.31942","5"],
    [37456,"HCEP03730564","2024-10-22 11:15:00","11.8871","3.53239","27.749","2.452857142857143","7.54","5.778","8472.018","0.01","5.31","30.5591","4.78811","27.52","0","SATNPRO1963","22.898","0.32076","5"],
    [37457,"HCEP03730564","2024-10-22 11:30:00","11.8873","3.53255","27.673","2.445714285714286","7.54","5.794","8459.47","0.01","6.51","30.5605","4.7883","27.44","0","SATNPRO1963","22.82","0.31968","5"],
    [37458,"HCEP03730564","2024-10-22 11:45:00","11.8876","3.53265","27.59","2.441428571428572","7.54","5.72","8459.998","0.01","0","30.5612","4.7884","27.39","0","SATNPRO1963","22.932","0.32122","5"],
    [37459,"HCEP03730564","2024-10-22 12:00:00","11.8873","3.53293","27.512","2.414285714285714","7.54","5.749","8469.446","0.02","3.07","30.5642","4.78882","27.09","0","SATNPRO1963","23.024","0.32248","5"],
    [37460,"HCEP03730564","2024-10-22 12:15:00","11.887","3.53292","27.431","2.384285714285714","7.54","5.782","8457.317","0.02","5.74","30.5644","4.78884","26.75","0","SATNPRO1963","23.064","0.32306","5"],
    [37461,"HCEP03730564","2024-10-22 12:30:00","11.8871","3.53278","27.344","2.384285714285714","7.54","5.654","8458.188","0.02","0","30.563","4.78864","26.76","0","SATNPRO1963","22.884","0.3205","5"],
    [37462,"HCEP03730564","2024-10-22 12:45:00","11.887","3.53285","27.248","2.388571428571428","7.53","5.842","8470.13","0.01","0","30.5637","4.78874","26.8","0","SATNPRO1963","22.63","0.31694","5"],
    [37463,"HCEP03730564","2024-10-22 13:00:00","11.8869","3.53281","27.162","2.375714285714286","7.54","5.765","8464.249","0.03","5.31","30.5636","4.78871","26.67","0","SATNPRO1963","22.498","0.31512","5"],
    [37464,"HCEP03730564","2024-10-22 13:15:00","11.8871","3.53276","27.082","2.374285714285714","7.53","5.673","8463.803","0.01","4.85","30.5629","4.78861","26.65","0","SATNPRO1963","22.688","0.31776","5"],
    [37465,"HCEP03730564","2024-10-22 13:30:00","11.8867","3.53276","26.989","2.365714285714286","7.53","5.86","8469.499","0.01","3.07","30.5633","4.78866","26.54","0","SATNPRO1963","22.59","0.3164","5"],
    [37466,"HCEP03730564","2024-10-22 13:45:00","11.8866","3.53292","26.921","2.345714285714286","7.53","5.76","8443.446","0.02","2.17","30.5649","4.78889","26.32","0","SATNPRO1963","22.688","0.31778","5"],
    [37467,"HCEP03730564","2024-10-22 14:00:00","11.8872","3.53284","26.85","2.352857142857143","7.53","5.602","8443.473","0.01","0","30.5637","4.78871","26.4","0","SATNPRO1963","22.676","0.3176","5"],
    [37468,"HCEP03730564","2024-10-22 14:15:00","11.8877","3.53222","26.804","2.4","7.53","6.094","8456.845","0.02","6.86","30.5573","4.7878","26.93","0","SATNPRO1963","22.964","0.32166","5"],
    [37469,"HCEP03730564","2024-10-22 14:30:00","11.887","3.53147","26.774","2.428571428571428","7.53","5.686","8441.264","0.01","4.85","30.5507","4.78687","27.26","0","SATNPRO1963","22.881999999999998","0.3205","5"],
    [37470,"HCEP03730564","2024-10-22 14:45:00","11.8859","3.52988","26.767","2.392857142857143","7.54","5.759","8445.573","0.01","7.82","30.5364","4.78487","26.84","0","SATNPRO1963","22.626","0.31692","5"],
    [37471,"HCEP03730564","2024-10-22 15:00:00","11.8838","3.52742","26.73","2.308571428571429","7.53","5.908","8456.976","0.01","4.34","30.5144","4.7818","25.89","0","SATNPRO1963","21.84","0.3059","5"],
    [37472,"HCEP03730564","2024-10-22 15:15:00","11.8823","3.52521","26.725","2.221428571428572","7.53","5.775","8409.146","0.01","7.2","30.4945","4.77901","24.91","0","SATNPRO1963","21.282","0.29808","5"],
    [37473,"HCEP03730564","2024-10-22 15:30:00","11.8816","3.52436","26.714","2.151428571428572","7.52","5.721","8413.833","0.01","0","30.4869","4.77794","24.13","0","SATNPRO1963","21.236","0.29748","5"],
    [37474,"HCEP03730564","2024-10-22 15:45:00","11.8805","3.51924","26.71","2.107142857142857","7.51","6.049","8460.73","0.01","3.76","30.4387","4.77115","23.63","0","SATNPRO1963","20.412","0.28592","5"],
    [37475,"HCEP03730564","2024-10-22 16:00:00","11.8808","3.5222","26.789","2.071428571428572","7.51","5.785","8457.869","0.01","5.31","30.4667","4.77511","23.22","0","SATNPRO1963","20.702","0.28996","5"],
    [37476,"HCEP03730564","2024-10-22 16:15:00","11.8805","3.52094","26.836","2.041428571428571","7.51","5.697","8458.815","0.01","0","30.4549","4.77344","22.89","0","SATNPRO1963","20.438","0.28624","5"],
    [37477,"HCEP03730564","2024-10-22 16:30:00","11.8805","3.51775","26.866","2.011428571428572","7.51","5.828","8467.817","0.01","4.85","30.4243","4.76913","22.54","0","SATNPRO1963","20.282","0.2841","5"],
    [37478,"HCEP03730564","2024-10-22 16:45:00","11.8827","3.51517","26.901","1.998571428571429","7.5","5.788","8451.329","0.01","4.34","30.3976","4.76533","22.4","0","SATNPRO1963","20.048","0.28078","5"],
    [37479,"HCEP03730564","2024-10-22 17:00:00","11.8835","3.51519","26.958","2.032857142857143","7.5","5.748","8450.989","0.01","0","30.3971","4.76525","22.79","0","SATNPRO1963","19.936","0.27922","5"],
    [37480,"HCEP03730564","2024-10-22 17:15:00","11.8842","3.51443","27.005","2.054285714285714","7.5","5.803","8468.842","0.01","6.51","30.3893","4.76414","23.03","0","SATNPRO1963","19.962","0.2796","5"],
    [37481,"HCEP03730564","2024-10-22 17:30:00","11.8865","3.51233","27.051","2.108571428571428","7.51","5.737","8459.549","0.01","4.85","30.3673","4.761","23.63","0","SATNPRO1963","20.378","0.28544","5"],
    [37482,"HCEP03730564","2024-10-22 17:45:00","11.8883","3.51166","27.085","2.195714285714286","7.51","5.737","8460.47","0.01","0","30.3594","4.75986","24.61","0","SATNPRO1963","20.298","0.28432","5"],
    [37483,"HCEP03730564","2024-10-22 18:00:00","11.8884","3.51212","27.131","2.24","7.52","5.787","8472.28","0.01","5.31","30.3637","4.76046","25.1","0","SATNPRO1963","20.65","0.2892","5"],
    [37484,"HCEP03730564","2024-10-22 18:15:00","11.8896","3.51413","27.172","2.308571428571429","7.52","5.761","8459.05","0.02","4.34","30.3819","4.76303","25.88","0","SATNPRO1963","20.976","0.2938","5"],
    [37485,"HCEP03730564","2024-10-22 18:30:00","11.889","3.51524","27.223","2.348571428571428","7.53","5.769","8460.548","0.01","0","30.3931","4.76462","26.33","0","SATNPRO1963","20.994","0.29406","5"],
    [37486,"HCEP03730564","2024-10-22 18:45:00","11.8841","3.51877","27.266","2.315714285714286","7.52","5.799","8473.304","0.01","4.34","30.4309","4.77004","25.96","0","SATNPRO1963","21.306","0.2984","5"],
    [37487,"HCEP03730564","2024-10-22 19:00:00","11.8837","3.52124","27.281","2.294285714285714","7.52","5.787","8462.855","0.02","8.95","30.4549","4.77343","25.73","0","SATNPRO1963","21.254","0.29766","5"],
    [37488,"HCEP03730564","2024-10-22 19:15:00","11.8838","3.52353","27.302","2.307142857142857","7.52","5.793","8464.694","0.01","6.51","30.4769","4.77653","25.88","0","SATNPRO1963","21.302","0.29838","5"],
    [37489,"HCEP03730564","2024-10-22 19:30:00","11.8837","3.52406","27.319","2.294285714285714","7.52","5.821","8472.753","0.01","3.76","30.482","4.77726","25.73","0","SATNPRO1963","21.464","0.30066","5"],
    [37490,"HCEP03730564","2024-10-22 19:45:00","11.8843","3.52504","27.317","2.32","7.52","5.8","8464.88","0.02","0","30.491","4.77851","26.02","0","SATNPRO1963","21.762","0.3048","5"],
    [37491,"HCEP03730564","2024-10-22 20:00:00","11.8845","3.52664","27.297","2.322857142857143","7.52","5.809","8466.22","0.01","0","30.5061","4.78065","26.06","0","SATNPRO1963","22.125999999999998","0.30992","5"],
    [37492,"HCEP03730564","2024-10-22 20:15:00","11.8847","3.52751","27.27","2.364285714285714","7.53","5.823","8471.939","0.02","5.31","30.5143","4.7818","26.52","0","SATNPRO1963","22.2","0.31094","5"],
    [37493,"HCEP03730564","2024-10-22 20:30:00","11.885","3.5266","27.225","2.435714285714286","7.53","5.786","8452.381","0.01","2.17","30.5054","4.78053","27.32","0","SATNPRO1963","22.504","0.3152","5"],
    [37494,"HCEP03730564","2024-10-22 20:45:00","11.8852","3.5258","27.171","2.55","7.54","5.789","8451.801","0.01","3.76","30.4976","4.77942","28.61","0","SATNPRO1963","23.23","0.32536","5"],
    [37495,"HCEP03730564","2024-10-22 21:00:00","11.8843","3.52581","27.108","2.627142857142857","7.55","5.813","8470.864","0.01","0","30.4985","4.77956","29.46","0","SATNPRO1963","23.12","0.32386","5"],
    [37496,"HCEP03730564","2024-10-22 21:15:00","11.8839","3.52634","27.02","2.614285714285714","7.55","5.796","8466.006","0.02","4.85","30.5039","4.78032","29.32","0","SATNPRO1963","23.328","0.32678","5"],
    [37497,"HCEP03730564","2024-10-22 21:30:00","11.8838","3.52607","26.924","2.61","7.55","5.808","8468.082","0.01","4.34","30.5014","4.77997","29.27","0","SATNPRO1963","23.554","0.32994","5"],
    [37498,"HCEP03730564","2024-10-22 21:45:00","11.884","3.5266","26.809","2.6","7.55","5.82","8470.682","0.01","0","30.5064","4.78066","29.16","0","SATNPRO1963","23.148","0.32418","5"],
    [37499,"HCEP03730564","2024-10-22 22:00:00","11.8842","3.5264","26.673","2.548571428571428","7.55","5.804","8465.612","0.02","6.51","30.5043","4.78036","28.59","0","SATNPRO1963","23.06","0.323","5"],
    [37500,"HCEP03730564","2024-10-22 22:15:00","11.884","3.52645","26.526","2.541428571428571","7.55","5.815","8467.819","0.01","3.07","30.5051","4.78047","28.51","0","SATNPRO1963","23.522","0.32946","5"],
    [37501,"HCEP03730564","2024-10-22 22:30:00","11.8836","3.5264","26.37","2.547142857142857","7.55","5.817","8470.551","0.01","0","30.505","4.78045","28.58","0","SATNPRO1963","23.694","0.33188","5"],
    [37502,"HCEP03730564","2024-10-22 22:45:00","11.8831","3.52627","26.201","2.61","7.55","5.808","8465.901","0.02","8.68","30.5042","4.78033","29.28","0","SATNPRO1963","23.602","0.33058","5"],
    [37503,"HCEP03730564","2024-10-22 23:00:00","11.8831","3.5262","26.02","2.645714285714286","7.55","5.812","8468.058","0.01","0","30.5036","4.78025","29.67","0","SATNPRO1963","23.592","0.33044","5"],
    [37504,"HCEP03730564","2024-10-22 23:15:00","11.8827","3.52612","25.814","2.658571428571429","7.55","5.77","8471.492","0.01","3.07","30.5032","4.78018","29.81","0","SATNPRO1963","23.312","0.32654","5"],
    [37505,"HCEP03730564","2024-10-22 23:30:00","11.8824","3.52598","25.609","2.677142857142858","7.56","5.7","8465.168","0.02","5.31","30.5023","4.78004","30.02","0","SATNPRO1963","24.014","0.33634","5"],
    [37506,"HCEP03730564","2024-10-22 23:45:00","11.8814","3.52576","25.388","2.697142857142857","7.56","5.392","8462.91","0.01","0","30.501","4.77986","30.26","0","SATNPRO1963","23.928","0.33516","5"],
    [37507,"HCEP03730564","2024-10-23 00:00:00","11.8787","3.52514","25.181","2.727142857142857","7.56","5.957","8468.158","0.01","6.51","30.4973","4.77936","30.58","0","SATNPRO1963","24.212","0.33916","5"],
    [37508,"HCEP03730564","2024-10-23 00:15:00","11.8796","3.52537","24.991","2.724285714285714","7.56","5.734","8457.371","0.03","2.17","30.4989","4.77957","30.56","0","SATNPRO1963","23.806","0.33348","5"],
    [37509,"HCEP03730564","2024-10-23 00:30:00","11.8798","3.52554","24.855","2.71","7.56","5.53","8457.687","0.01","0","30.5005","4.77978","30.4","0","SATNPRO1963","23.746","0.33258","5"],
    [37510,"HCEP03730564","2024-10-23 00:45:00","11.8799","3.52575","24.723","2.682857142857143","7.56","5.696","8467.504","0.01","0","30.5024","4.78005","30.08","0","SATNPRO1963","23.588","0.3304","5"],
    [37511,"HCEP03730564","2024-10-23 01:00:00","11.88","3.52586","24.597","2.654285714285714","7.55","5.721","8454.928","0.02","0","30.5035","4.78019","29.77","0","SATNPRO1963","23.634","0.33104","5"],
    [37512,"HCEP03730564","2024-10-23 01:15:00","11.8806","3.52608","24.463","2.622857142857143","7.55","5.559","8456.53","0.02","3.07","30.505","4.78039","29.42","0","SATNPRO1963","23.212","0.32516","5"],
    [37513,"HCEP03730564","2024-10-23 01:30:00","11.881","3.52617","24.338","2.577142857142857","7.55","5.7","8468.763","0.01","6.86","30.5057","4.78047","28.9","0","SATNPRO1963","23.034","0.32262","5"],
    [37514,"HCEP03730564","2024-10-23 01:45:00","11.8807","3.52625","24.267","2.547142857142857","7.55","5.721","8455.005","0.02","3.76","30.5067","4.78062","28.57","0","SATNPRO1963","23.072","0.32318","5"],
    [37515,"HCEP03730564","2024-10-23 02:00:00","11.8806","3.52624","24.239","2.491428571428572","7.55","5.665","8456.479","0.01","3.07","30.5067","4.78062","27.94","0","SATNPRO1963","22.764","0.31886","5"],
    [37516,"HCEP03730564","2024-10-23 02:15:00","11.8808","3.52638","24.227","2.437142857142857","7.54","5.735","8468.054","0.02","5.74","30.5079","4.78078","27.34","0","SATNPRO1963","22.924","0.32104","5"],
    [37517,"HCEP03730564","2024-10-23 02:30:00","11.8806","3.52642","24.244","2.44","7.54","5.754","8462.621","0.02","7.52","30.5085","4.78086","27.37","0","SATNPRO1963","22.94","0.32134","5"],
    [37518,"HCEP03730564","2024-10-23 02:45:00","11.8806","3.52654","24.286","2.427142857142858","7.54","5.75","8464.563","0.02","5.31","30.5096","4.78102","27.23","0","SATNPRO1963","22.814","0.31958","5"],
    [37519,"HCEP03730564","2024-10-23 03:00:00","11.8803","3.5269","24.332","2.42","7.54","5.826","8468.028","0.01","6.14","30.5133","4.78155","27.15","0","SATNPRO1963","22.669999999999998","0.31748","5"],
    [37520,"HCEP03730564","2024-10-23 03:15:00","11.8802","3.52772","24.381","2.445714285714286","7.54","5.819","8466.929","0.01","2.17","30.5213","4.78268","27.43","0","SATNPRO1963","23.314","0.32654","5"],
    [37521,"HCEP03730564","2024-10-23 03:30:00","11.8802","3.5282","24.437","2.477142857142857","7.54","5.822","8469.209","0.01","6.51","30.5258","4.78333","27.79","0","SATNPRO1963","23.21","0.3251","5"],
    [37522,"HCEP03730564","2024-10-23 03:45:00","11.8803","3.5285","24.52","2.461428571428572","7.54","5.815","8470.785","0.01","0","30.5286","4.78372","27.61","0","SATNPRO1963","23.404","0.3278","5"],
    [37523,"HCEP03730564","2024-10-23 04:00:00","11.8799","3.52841","24.612","2.402857142857143","7.53","5.817","8465.849","0.02","5.31","30.528","4.78365","26.96","0","SATNPRO1963","22.796","0.3193","5"],
    [37524,"HCEP03730564","2024-10-23 04:15:00","11.8801","3.52789","24.713","2.36","7.53","5.822","8468.527","0.01","6.86","30.5228","4.78292","26.48","0","SATNPRO1963","22.522","0.31544","5"],
    [37525,"HCEP03730564","2024-10-23 04:30:00","11.8807","3.52776","24.845","2.391428571428572","7.53","5.834","8470.394","0.02","0","30.521","4.78267","26.82","0","SATNPRO1963","22.638","0.31706","5"],
    [37526,"HCEP03730564","2024-10-23 04:45:00","11.8813","3.52818","24.988","2.398571428571429","7.53","5.809","8463.647","0.01","0","30.5245","4.78316","26.9","0","SATNPRO1963","22.642","0.31716","5"],
    [37527,"HCEP03730564","2024-10-23 05:00:00","11.8814","3.52868","25.124","2.365714285714286","7.53","5.81","8465.853","0.01","0","30.5291","4.78381","26.53","0","SATNPRO1963","22.24","0.3115","5"],
    [37528,"HCEP03730564","2024-10-23 05:15:00","11.8822","3.5292","25.275","2.334285714285714","7.53","5.817","8469.026","0.01","4.85","30.5334","4.78442","26.18","0","SATNPRO1963","22.558","0.31592","5"],
    [37529,"HCEP03730564","2024-10-23 05:30:00","11.8822","3.52915","25.457","2.311428571428572","7.53","5.796","8462.728","0.01","0","30.5329","4.78436","25.93","0","SATNPRO1963","22.408","0.31386","5"],
    [37530,"HCEP03730564","2024-10-23 05:45:00","11.8824","3.5291","25.637","2.285714285714286","7.53","5.803","8463.881","0.01","6.14","30.5321","4.78425","25.65","0","SATNPRO1963","22.238","0.31148","5"],
    [37531,"HCEP03730564","2024-10-23 06:00:00","11.8829","3.52903","25.814","2.254285714285714","7.53","5.809","8470.604","0.01","0","30.531","4.78409","25.29","0","SATNPRO1963","22.256","0.31172","5"],
    [37532,"HCEP03730564","2024-10-23 06:15:00","11.8827","3.52903","25.996","2.232857142857143","7.53","5.805","8466.77","0.01","0","30.5311","4.78412","25.05","0","SATNPRO1963","22.056","0.30892","5"],
    [37533,"HCEP03730564","2024-10-23 06:30:00","11.8833","3.52897","26.206","2.22","7.52","5.81","8467.136","0.01","2.17","30.53","4.78397","24.91","0","SATNPRO1963","22.06","0.30904","5"],
    [37534,"HCEP03730564","2024-10-23 06:45:00","11.8834","3.52891","26.39","2.228571428571429","7.52","5.793","8470.655","0.01","0","30.5292","4.78387","25","0","SATNPRO1963","21.876","0.30644","5"],
    [37535,"HCEP03730564","2024-10-23 07:00:00","11.8839","3.52875","26.565","2.228571428571429","7.52","5.803","8467.109","0.01","3.76","30.5272","4.78359","25","0","SATNPRO1963","21.996","0.30812","5"],
    [37536,"HCEP03730564","2024-10-23 07:15:00","11.8835","3.52865","26.744","2.227142857142857","7.52","5.798","8467.661","0.01","3.07","30.5265","4.7835","24.99","0","SATNPRO1963","22.15","0.31022","5"],
    [37537,"HCEP03730564","2024-10-23 07:30:00","11.8835","3.52734","26.902","2.205714285714286","7.51","5.766","8471.283","0.01","0","30.5139","4.78173","24.73","0","SATNPRO1963","21.744","0.30456","5"],
    [37538,"HCEP03730564","2024-10-23 07:45:00","11.8837","3.52761","27.078","2.181428571428572","7.52","5.747","8464.171","0.02","0","30.5162","4.78207","24.48","0","SATNPRO1963","22.026","0.30848","5"],
    [37539,"HCEP03730564","2024-10-23 08:00:00","11.8834","3.5283","27.225","2.165714285714286","7.52","5.696","8466.22","0.01","0","30.5231","4.78305","24.29","0","SATNPRO1963","21.894","0.30666","5"],
    [37540,"HCEP03730564","2024-10-23 08:15:00","11.8831","3.52876","27.354","2.161428571428572","7.52","5.669","8466.771","0.02","0","30.5276","4.7837","24.25","0","SATNPRO1963","21.724","0.30428","5"],
    [37541,"HCEP03730564","2024-10-23 08:30:00","11.8831","3.52899","27.485","2.161428571428572","7.51","5.731","8459.549","0.01","4.34","30.5298","4.78402","24.24","0","SATNPRO1963","21.786","0.30518","5"],
    [37542,"HCEP03730564","2024-10-23 08:45:00","11.8833","3.52909","27.592","2.157142857142857","7.51","5.62","8460.443","0.01","0","30.5305","4.78413","24.19","0","SATNPRO1963","21.74","0.3045","5"],
    [37543,"HCEP03730564","2024-10-23 09:00:00","11.884","3.52888","27.686","2.154285714285714","7.51","5.736","8465.142","0.01","5.31","30.528","4.78376","24.17","0","SATNPRO1963","22.262","0.31182","5"],
    [37544,"HCEP03730564","2024-10-23 09:15:00","11.8837","3.52902","27.757","2.155714285714286","7.51","5.716","8456.609","0.02","2.17","30.5294","4.78397","24.18","0","SATNPRO1963","21.71","0.30414","5"],
    [37545,"HCEP03730564","2024-10-23 09:30:00","11.8839","3.52912","27.813","2.148571428571429","7.51","5.628","8457.556","0.01","0","30.5303","4.7841","24.11","0","SATNPRO1963","21.904","0.3068","5"],
    [37546,"HCEP03730564","2024-10-23 09:45:00","11.8841","3.52898","27.851","2.151428571428572","7.51","5.97","8467.006","0.02","0","30.5288","4.78388","24.13","0","SATNPRO1963","22.38","0.31344","5"],
    [37547,"HCEP03730564","2024-10-23 10:00:00","11.8839","3.52895","27.853","2.164285714285714","7.51","5.676","8438.269","0.01","5.74","30.5286","4.78386","24.27","0","SATNPRO1963","21.842","0.30596","5"],
    [37548,"HCEP03730564","2024-10-23 10:15:00","11.8829","3.52967","27.888","2.152857142857143","7.51","5.732","8442.185","0.01","4.85","30.5363","4.78496","24.15","0","SATNPRO1963","21.912","0.30694","5"],
    [37549,"HCEP03730564","2024-10-23 10:30:00","11.8821","3.52982","27.908","2.108571428571428","7.51","5.901","8452.668","0.01","3.07","30.5385","4.78528","23.66","0","SATNPRO1963","21.586","0.30238","5"],
    [37550,"HCEP03730564","2024-10-23 10:45:00","11.8837","3.52843","27.915","2.121428571428571","7.51","5.709","8441.186","0.01","0","30.5238","4.78319","23.81","0","SATNPRO1963","22.026","0.30852","5"],
    [37551,"HCEP03730564","2024-10-23 11:00:00","11.8833","3.52828","27.914","2.178571428571428","7.51","5.74","8442.344","0.01","2.17","30.5227","4.78303","24.44","0","SATNPRO1963","22.054","0.3089","5"],
    [37552,"HCEP03730564","2024-10-23 11:15:00","11.8815","3.5296","27.877","2.154285714285714","7.52","5.725","8458.817","0.01","0","30.5368","4.78505","24.16","0","SATNPRO1963","21.522","0.30148","5"],
    [37553,"HCEP03730564","2024-10-23 11:30:00","11.8812","3.52963","27.853","2.087142857142857","7.52","5.707","8433.952","0.02","12.27","30.5373","4.78513","23.41","0","SATNPRO1963","21.6","0.30256","5"],
    [37554,"HCEP03730564","2024-10-23 11:45:00","11.8806","3.5296","27.848","2.085714285714286","7.51","5.72","8439.137","0.01","0","30.5375","4.78516","23.39","0","SATNPRO1963","21.742","0.30452","5"],
    [37555,"HCEP03730564","2024-10-23 12:00:00","11.8803","3.52954","27.807","2.077142857142857","7.5","5.744","8460.258","0.01","4.34","30.5372","4.78512","23.29","0","SATNPRO1963","21.5","0.30112","5"],
    [37556,"HCEP03730564","2024-10-23 12:15:00","11.8796","3.52954","27.757","2.075714285714286","7.5","5.743","8453.562","0.01","0","30.5378","4.78522","23.28","0","SATNPRO1963","21.69","0.30384","5"],
    [37557,"HCEP03730564","2024-10-23 12:30:00","11.8799","3.52949","27.706","2.091428571428572","7.5","5.751","8454.533","0.01","0","30.5372","4.78512","23.47","0","SATNPRO1963","21.650000000000002","0.30326","5"],
    [37558,"HCEP03730564","2024-10-23 12:45:00","11.8792","3.52959","27.646","2.107142857142857","7.51","5.753","8463.726","0.01","0","30.5387","4.78533","23.64","0","SATNPRO1963","22.036","0.30866","5"],
    [37559,"HCEP03730564","2024-10-23 13:00:00","11.8794","3.52962","27.589","2.1","7.5","5.702","8425.674","0.02","4.85","30.5388","4.78535","23.55","0","SATNPRO1963","22.422","0.31406","5"],
    [37560,"HCEP03730564","2024-10-23 13:15:00","11.8789","3.52947","27.525","2.117142857142857","7.51","5.709","8427.12","0.01","0","30.5378","4.78522","23.76","0","SATNPRO1963","21.808","0.30546","5"],
    [37561,"HCEP03730564","2024-10-23 13:30:00","11.8791","3.5293","27.459","2.107142857142857","7.51","5.706","8467.582","0.01","3.07","30.5361","4.78496","23.63","0","SATNPRO1963","21.662","0.30344","5"],
    [37562,"HCEP03730564","2024-10-23 13:45:00","11.8787","3.52898","27.38","2.088571428571428","7.51","5.742","8458.025","0.02","6.14","30.5333","4.78457","23.43","0","SATNPRO1963","21.7","0.30392","5"],
    [37563,"HCEP03730564","2024-10-23 14:00:00","11.8784","3.52851","27.303","2.078571428571429","7.51","5.752","8460.076","0.01","0","30.5292","4.78398","23.32","0","SATNPRO1963","21.624","0.30286","5"],
    [37564,"HCEP03730564","2024-10-23 14:15:00","11.879","3.5281","27.223","2.102857142857143","7.51","5.772","8462.255","0.02","0","30.5247","4.78335","23.58","0","SATNPRO1963","22.07","0.30916","5"],
    [37565,"HCEP03730564","2024-10-23 14:30:00","11.8789","3.52766","27.148","2.131428571428572","7.51","5.747","8460.205","0.02","4.34","30.5206","4.78276","23.91","0","SATNPRO1963","22.032","0.30858","5"],
    [37566,"HCEP03730564","2024-10-23 14:45:00","11.8783","3.52728","27.076","2.128571428571429","7.51","5.757","8460.521","0.01","0","30.5175","4.78233","23.88","0","SATNPRO1963","21.882","0.30648","5"],
    [37567,"HCEP03730564","2024-10-23 15:00:00","11.878","3.52687","27.01","2.092857142857143","7.5","5.786","8467.896","0.01","6.51","30.5138","4.78181","23.47","0","SATNPRO1963","21.428","0.30016","5"],
    [37568,"HCEP03730564","2024-10-23 15:15:00","11.8778","3.52644","26.949","2.051428571428572","7.5","5.738","8458.971","0.02","6.14","30.5098","4.78124","23.01","0","SATNPRO1963","21.63","0.30298","5"],
    [37569,"HCEP03730564","2024-10-23 15:30:00","11.8774","3.52621","26.894","2.017142857142857","7.5","5.753","8460.13","0.01","0","30.508","4.78099","22.62","0","SATNPRO1963","21.076","0.2952","5"],
    [37570,"HCEP03730564","2024-10-23 15:45:00","11.8778","3.52573","26.854","1.988571428571428","7.5","5.779","8468.237","0.01","6.51","30.5032","4.7803","22.31","0","SATNPRO1963","21.42","0.30004","5"],
    [37571,"HCEP03730564","2024-10-23 16:00:00","11.8782","3.52514","26.816","2","7.5","5.726","8455.006","0.01","0","30.4971","4.77944","22.42","0","SATNPRO1963","21.198","0.29692","5"],
    [37572,"HCEP03730564","2024-10-23 16:15:00","11.8784","3.52493","26.797","2.04","7.5","5.735","8456.74","0.01","5.31","30.495","4.77913","22.87","0","SATNPRO1963","21.35","0.29904","5"],
    [37573,"HCEP03730564","2024-10-23 16:30:00","11.8787","3.52469","26.795","2.094285714285714","7.5","5.759","8466.612","0.01","0","30.4924","4.77876","23.49","0","SATNPRO1963","21.656","0.30334","5"],
    [37574,"HCEP03730564","2024-10-23 16:45:00","11.878","3.52476","26.789","2.138571428571429","7.5","5.726","8456.794","0.01","0","30.4936","4.77895","23.99","0","SATNPRO1963","21.67","0.30354","5"],
    [37575,"HCEP03730564","2024-10-23 17:00:00","11.8781","3.52426","26.794","2.147142857142857","7.5","5.742","8459.024","0.01","3.76","30.4887","4.77825","24.09","0","SATNPRO1963","21.944","0.30734","5"],
    [37576,"HCEP03730564","2024-10-23 17:15:00","11.8774","3.52439","26.794","2.145714285714286","7.5","5.672","8465.168","0.01","5.31","30.4906","4.77853","24.06","0","SATNPRO1963","21.637999999999998","0.30308","5"],
    [37577,"HCEP03730564","2024-10-23 17:30:00","11.8771","3.5247","26.805","2.157142857142857","7.5","5.711","8445.15","0.04","14.23","30.4938","4.77898","24.19","0","SATNPRO1963","21.89","0.30658","5"],
    [37578,"HCEP03730564","2024-10-23 17:45:00","11.8772","3.52495","26.839","2.174285714285714","7.51","5.736","8451.146","0.01","0","30.4961","4.7793","24.38","0","SATNPRO1963","21.802","0.30538","5"],
    [37579,"HCEP03730564","2024-10-23 18:00:00","11.8782","3.5255","26.869","2.2","7.51","5.761","8465.851","0.02","2.17","30.5006","4.77993","24.67","0","SATNPRO1963","22.052","0.3089","5"],
    [37580,"HCEP03730564","2024-10-23 18:15:00","11.8805","3.52597","26.88","2.244285714285714","7.51","5.751","8460.049","0.01","0","30.5032","4.78026","25.17","0","SATNPRO1963","21.876","0.30644","5"],
    [37581,"HCEP03730564","2024-10-23 18:30:00","11.8809","3.52598","26.896","2.284285714285714","7.52","5.758","8460.051","0.01","0","30.503","4.78023","25.63","0","SATNPRO1963","22.124","0.30986","5"],
    [37582,"HCEP03730564","2024-10-23 18:45:00","11.8829","3.52612","26.91","2.344285714285714","7.52","5.764","8465.615","0.01","0","30.5026","4.78015","26.3","0","SATNPRO1963","22.23","0.31136","5"],
    [37583,"HCEP03730564","2024-10-23 19:00:00","11.8818","3.52581","26.93","2.337142857142857","7.52","5.725","8458.472","0.01","6.51","30.5006","4.77988","26.21","0","SATNPRO1963","22.23","0.31136","5"],
    [37584,"HCEP03730564","2024-10-23 19:15:00","11.8824","3.52562","26.944","2.335714285714286","7.52","5.738","8459.997","0.01","0","30.4983","4.77955","26.19","0","SATNPRO1963","22.038","0.30868","5"],
    [37585,"HCEP03730564","2024-10-23 19:30:00","11.8843","3.52593","26.963","2.36","7.52","5.719","8464.932","0.01","6.51","30.4997","4.77972","26.47","0","SATNPRO1963","22.44","0.31434","5"],
    [37586,"HCEP03730564","2024-10-23 19:45:00","11.8889","3.52737","26.979","2.52","7.52","5.738","8457.29","0.02","7.2","30.5097","4.78108","28.26","0","SATNPRO1963","22.862","0.3202","5"],
    [37587,"HCEP03730564","2024-10-23 20:00:00","11.8909","3.52835","27.003","2.624285714285714","7.53","5.751","8459.785","0.01","4.85","30.5174","4.78214","29.44","0","SATNPRO1963","23.204","0.32496","5"],
    [37588,"HCEP03730564","2024-10-23 20:15:00","11.8885","3.53004","27.019","2.615714285714286","7.54","5.77","8466.298","0.01","0","30.5357","4.78475","29.36","0","SATNPRO1963","23.33","0.32674","5"],
    [37589,"HCEP03730564","2024-10-23 20:30:00","11.8876","3.53081","27.024","2.582857142857143","7.54","5.733","8454.033","0.02","5.31","30.5438","4.78591","28.98","0","SATNPRO1963","23.612","0.33076","5"],
    [37590,"HCEP03730564","2024-10-23 20:45:00","11.8859","3.5311","27.014","2.55","7.54","5.744","8455.083","0.01","4.34","30.5479","4.78651","28.62","0","SATNPRO1963","23.362000000000002","0.32724","5"],
    [37591,"HCEP03730564","2024-10-23 21:00:00","11.8847","3.53119","27.001","2.514285714285714","7.54","5.737","8457.845","0.01","3.07","30.5498","4.78679","28.22","0","SATNPRO1963","23.506","0.32924","5"],
    [37592,"HCEP03730564","2024-10-23 21:15:00","11.884","3.53135","26.984","2.474285714285714","7.53","5.735","8459.573","0.06","9.21","30.5519","4.7871","27.76","0","SATNPRO1963","23.408","0.32788","5"],
    [37593,"HCEP03730564","2024-10-23 21:30:00","11.8836","3.53127","26.964","2.452857142857143","7.53","5.744","8460.389","0.02","5.74","30.5515","4.78705","27.52","0","SATNPRO1963","23.48","0.32884","5"],
    [37594,"HCEP03730564","2024-10-23 21:45:00","11.8833","3.53118","26.932","2.442857142857143","7.53","5.76","8464.327","0.01","6.14","30.5509","4.78696","27.41","0","SATNPRO1963","23.36","0.3272","5"],
    [37595,"HCEP03730564","2024-10-23 22:00:00","11.8835","3.53132","26.879","2.45","7.53","5.686","8456.268","0.02","4.34","30.5521","4.78713","27.49","0","SATNPRO1963","23.402","0.3278","5"],
    [37596,"HCEP03730564","2024-10-23 22:15:00","11.8834","3.53135","26.803","2.464285714285714","7.53","5.699","8458.292","0.01","0","30.5525","4.78718","27.64","0","SATNPRO1963","23.51","0.32932","5"],
    [37597,"HCEP03730564","2024-10-23 22:30:00","11.8836","3.53112","26.721","2.467142857142858","7.53","5.756","8462.386","0.01","0","30.5501","4.78684","27.68","0","SATNPRO1963","23.324","0.3267","5"],
    [37598,"HCEP03730564","2024-10-23 22:45:00","11.8841","3.53114","26.625","2.474285714285714","7.53","5.73","8456.846","0.02","3.07","30.55","4.7868","27.77","0","SATNPRO1963","23.596","0.3305","5"],
    [37599,"HCEP03730564","2024-10-23 23:00:00","11.8843","3.53125","26.526","2.461428571428572","7.53","5.74","8457.66","0.01","0","30.5509","4.78693","27.62","0","SATNPRO1963","23.302","0.32638","5"],
    [37600,"HCEP03730564","2024-10-23 23:15:00","11.8856","3.53159","26.412","2.46","7.54","5.736","8460.835","0.01","4.85","30.5531","4.78722","27.61","0","SATNPRO1963","23.46","0.3286","5"],
    [37601,"HCEP03730564","2024-10-23 23:30:00","11.8864","3.53177","26.285","2.492857142857143","7.54","5.729","8453.165","0.02","11.27","30.5543","4.78736","27.97","0","SATNPRO1963","23.58","0.33026","5"],
    [37602,"HCEP03730564","2024-10-23 23:45:00","11.8863","3.53184","26.162","2.495714285714286","7.54","5.743","8457.635","0.01","0","30.5551","4.78746","28.01","0","SATNPRO1963","23.328","0.32676","5"],
    [37603,"HCEP03730564","2024-10-24 00:00:00","11.8867","3.53204","26.021","2.478571428571429","7.53","5.736","8462.833","0.01","0","30.5567","4.78769","27.81","0","SATNPRO1963","23.252","0.32568","5"],
    [37604,"HCEP03730564","2024-10-24 00:15:00","11.8877","3.53231","25.871","2.477142857142857","7.54","5.744","8458.498","0.02","5.74","30.5586","4.78793","27.8","0","SATNPRO1963","23.346","0.327","5"],
    [37605,"HCEP03730564","2024-10-24 00:30:00","11.8924","3.53398","25.723","2.502857142857143","7.54","5.749","8459.892","0.01","0","30.5708","4.78958","28.1","0","SATNPRO1963","23.454","0.32852","5"],
    [37606,"HCEP03730564","2024-10-24 00:45:00","11.8971","3.53509","25.52","2.575714285714286","7.54","5.712","8461.467","0.07","0","30.5777","4.79048","28.91","0","SATNPRO1963","23.768","0.33292","5"],
    [37607,"HCEP03730564","2024-10-24 01:00:00","11.8983","3.53527","25.36","2.622857142857143","7.55","5.682","8455.928","0.03","0","30.5785","4.79056","29.45","0","SATNPRO1963","24.704","0.34602","5"],
    [37608,"HCEP03730564","2024-10-24 01:15:00","11.8966","3.53497","25.215","2.611428571428572","7.55","5.476","8455.979","0.01","0","30.577","4.79037","29.32","0","SATNPRO1963","23.46","0.32858","5"],
    [37609,"HCEP03730564","2024-10-24 01:30:00","11.8962","3.53491","25.076","2.6","7.55","5.711","8457.37","0.01","4.34","30.5769","4.79035","29.18","0","SATNPRO1963","23.784000000000002","0.33312","5"],
    [37610,"HCEP03730564","2024-10-24 01:45:00","11.8949","3.53471","24.945","2.594285714285714","7.55","5.564","8447.572","0.03","4.85","30.5761","4.79024","29.11","0","SATNPRO1963","23.576","0.33026","5"],
    [37611,"HCEP03730564","2024-10-24 02:00:00","11.8953","3.53503","24.831","2.577142857142857","7.55","5.426","8448.202","0.01","5.31","30.5789","4.79062","28.93","0","SATNPRO1963","23.162","0.3244","5"],
    [37612,"HCEP03730564","2024-10-24 02:15:00","11.8964","3.53545","24.726","2.577142857142857","7.55","5.719","8449.752","0.01","6.86","30.582","4.79105","28.93","0","SATNPRO1963","23.732","0.3324","5"],
    [37613,"HCEP03730564","2024-10-24 02:30:00","11.8944","3.53484","24.616","2.584285714285714","7.55","5.652","8443.364","0.03","9.21","30.5779","4.79049","29","0","SATNPRO1963","23.502","0.32916","5"],
    [37614,"HCEP03730564","2024-10-24 02:45:00","11.8907","3.53368","24.557","2.55","7.55","5.54","8444.969","0.01","7.52","30.5698","4.7894","28.62","0","SATNPRO1963","23.252000000000002","0.3257","5"],
    [37615,"HCEP03730564","2024-10-24 03:00:00","11.8877","3.53273","24.513","2.488571428571428","7.54","5.693","8450.751","0.02","4.34","30.5631","4.78848","27.92","0","SATNPRO1963","23.186","0.3247","5"],
    [37616,"HCEP03730564","2024-10-24 03:15:00","11.8837","3.53131","24.481","2.432857142857143","7.53","5.681","8439.161","0.02","5.74","30.5527","4.78708","27.3","0","SATNPRO1963","22.978","0.32186","5"],
    [37617,"HCEP03730564","2024-10-24 03:30:00","11.8835","3.53135","24.48","2.364285714285714","7.53","5.636","8440.713","0.01","0","30.5533","4.78716","26.52","0","SATNPRO1963","22.996","0.3221","5"],
    [37618,"HCEP03730564","2024-10-24 03:45:00","11.8833","3.5314","24.496","2.342857142857143","7.53","5.669","8460.704","0.01","3.76","30.554","4.78727","26.29","0","SATNPRO1963","22.91","0.32094","5"],
    [37619,"HCEP03730564","2024-10-24 04:00:00","11.8835","3.53152","24.531","2.371428571428571","7.52","5.687","8450.173","0.01","5.31","30.5549","4.7874","26.6","0","SATNPRO1963","23.244","0.3256","5"],
    [37620,"HCEP03730564","2024-10-24 04:15:00","11.8832","3.53137","24.579","2.36","7.53","5.683","8451.591","0.01","4.34","30.5537","4.78723","26.48","0","SATNPRO1963","23.238","0.32548","5"],
    [37621,"HCEP03730564","2024-10-24 04:30:00","11.8825","3.53111","24.618","2.357142857142857","7.52","5.709","8462.071","0.01","0","30.5518","4.78697","26.45","0","SATNPRO1963","23.222","0.32528","5"],
    [37622,"HCEP03730564","2024-10-24 04:45:00","11.8824","3.53113","24.686","2.362857142857143","7.52","5.713","8456.108","0.01","7.2","30.5521","4.78701","26.5","0","SATNPRO1963","23.25","0.32566","5"],
    [37623,"HCEP03730564","2024-10-24 05:00:00","11.8825","3.53115","24.769","2.361428571428572","7.52","5.718","8458.239","0.01","0","30.5521","4.78702","26.5","0","SATNPRO1963","22.966","0.3217","5"],
    [37624,"HCEP03730564","2024-10-24 05:15:00","11.8871","3.533","24.873","2.36","7.52","5.741","8459.891","0.01","4.34","30.5661","4.78894","26.48","0","SATNPRO1963","22.8","0.31934","5"],
    [37625,"HCEP03730564","2024-10-24 05:30:00","11.8886","3.53354","24.977","2.401428571428572","7.53","5.71","8457.136","0.02","2.17","30.57","4.78948","26.94","0","SATNPRO1963","23.13","0.32398","5"],
    [37626,"HCEP03730564","2024-10-24 05:45:00","11.8899","3.53402","25.089","2.435714285714286","7.53","5.71","8458.317","0.01","0","30.5735","4.78995","27.34","0","SATNPRO1963","23.088","0.32338","5"],
    [37627,"HCEP03730564","2024-10-24 06:00:00","11.8852","3.53226","25.211","2.367142857142857","7.52","5.744","8462.255","0.01","0","30.5604","4.78819","26.57","0","SATNPRO1963","22.928","0.32114","5"],
    [37628,"HCEP03730564","2024-10-24 06:15:00","11.8885","3.5339","25.397","2.347142857142857","7.53","5.725","8455.742","0.02","7.2","30.5734","4.78998","26.34","0","SATNPRO1963","22.772","0.31892","5"],
    [37629,"HCEP03730564","2024-10-24 06:30:00","11.889","3.53399","25.539","2.327142857142857","7.53","5.729","8457.369","0.01","5.74","30.5738","4.79004","26.12","0","SATNPRO1963","22.212","0.31112","5"],
    [37630,"HCEP03730564","2024-10-24 06:45:00","11.8875","3.53362","25.683","2.304285714285714","7.53","5.744","8460.993","0.01","4.34","30.5714","4.78972","25.86","0","SATNPRO1963","22.294","0.31228","5"],
    [37631,"HCEP03730564","2024-10-24 07:00:00","11.8873","3.53389","25.865","2.294285714285714","7.52","5.706","8448.565","0.03","13.02","30.574","4.79011","25.75","0","SATNPRO1963","22.586","0.31636","5"],
    [37632,"HCEP03730564","2024-10-24 07:15:00","11.8839","3.53212","26.036","2.262857142857143","7.52","5.725","8454.191","0.01","0","30.5597","4.78815","25.39","0","SATNPRO1963","22.168","0.31046","5"],
    [37633,"HCEP03730564","2024-10-24 07:30:00","11.8817","3.53097","26.203","2.2","7.51","5.709","8459.419","0.01","3.07","30.5505","4.78689","24.68","0","SATNPRO1963","22.128","0.30994","5"],
    [37634,"HCEP03730564","2024-10-24 07:45:00","11.8814","3.5305","26.393","2.178571428571428","7.51","5.713","8454.588","0.02","2.17","30.5461","4.78628","24.44","0","SATNPRO1963","22.401999999999997","0.31376","5"],
    [37635,"HCEP03730564","2024-10-24 08:00:00","11.8824","3.52985","26.574","2.225714285714286","7.51","5.728","8457.396","0.01","5.74","30.539","4.78527","24.97","0","SATNPRO1963","22.374","0.31338","5"],
    [37636,"HCEP03730564","2024-10-24 08:15:00","11.8831","3.53006","26.731","2.27","7.51","5.743","8461.467","0.01","0","30.5403","4.78546","25.47","0","SATNPRO1963","22.608","0.31666","5"],
    [37637,"HCEP03730564","2024-10-24 08:30:00","11.8836","3.5301","26.885","2.292857142857143","7.52","5.714","8456.556","0.02","6.51","30.5403","4.78546","25.72","0","SATNPRO1963","22.668","0.31752","5"],
    [37638,"HCEP03730564","2024-10-24 08:45:00","11.8845","3.53015","27.054","2.327142857142857","7.52","5.728","8458.317","0.01","0","30.54","4.78541","26.11","0","SATNPRO1963","22.746","0.31858","5"],
    [37639,"HCEP03730564","2024-10-24 09:00:00","11.8837","3.52986","27.198","2.297142857142857","7.52","5.731","8460.494","0.01","4.85","30.5377","4.78511","25.78","0","SATNPRO1963","22.552","0.31588","5"],
    [37640,"HCEP03730564","2024-10-24 09:15:00","11.882","3.52952","27.327","2.217142857142857","7.51","5.694","8451.404","0.02","12.84","30.5358","4.78488","24.87","0","SATNPRO1963","22.326","0.31272","5"],
    [37641,"HCEP03730564","2024-10-24 09:30:00","11.882","3.52902","27.446","2.191428571428572","7.51","5.712","8456.583","0.01","3.76","30.531","4.7842","24.58","0","SATNPRO1963","22.164","0.31046","5"],
    [37642,"HCEP03730564","2024-10-24 09:45:00","11.8816","3.5289","27.553","2.181428571428572","7.51","5.73","8458.686","0","0","30.5302","4.78409","24.47","0","SATNPRO1963","22.362","0.31322","5"],
    [37643,"HCEP03730564","2024-10-24 10:00:00","11.8816","3.52864","27.644","2.164285714285714","7.5","5.687","8450.199","0.02","4.34","30.5277","4.78375","24.27","0","SATNPRO1963","21.992","0.30802","5"],
    [37644,"HCEP03730564","2024-10-24 10:15:00","11.8817","3.52843","27.714","2.155714285714286","7.51","5.716","8452.35","0.01","7.52","30.5255","4.78345","24.18","0","SATNPRO1963","22.124","0.30988","5"],
    [37645,"HCEP03730564","2024-10-24 10:30:00","11.8815","3.52818","27.766","2.145714285714286","7.5","5.712","8459.89","0.01","5.31","30.5232","4.78313","24.06","0","SATNPRO1963","22.01","0.30826","5"],
    [37646,"HCEP03730564","2024-10-24 10:45:00","11.8807","3.52817","27.807","2.104285714285714","7.5","5.684","8449.988","0.02","6.14","30.5238","4.78322","23.61","0","SATNPRO1963","21.962","0.30766","5"],
    [37647,"HCEP03730564","2024-10-24 11:00:00","11.8804","3.52809","27.838","2.07","7.5","5.703","8452.063","0.01","6.14","30.5232","4.78315","23.22","0","SATNPRO1963","21.686","0.30376","5"],
    [37648,"HCEP03730564","2024-10-24 11:15:00","11.8799","3.52793","27.861","2.037142857142857","7.49","5.718","8459.157","0.01","0","30.5222","4.78301","22.85","0","SATNPRO1963","21.794","0.30526","5"],
    [37649,"HCEP03730564","2024-10-24 11:30:00","11.8798","3.52777","27.872","2","7.49","5.688","8448.937","0.02","9.21","30.5206","4.78279","22.44","0","SATNPRO1963","21.512","0.3013","5"],
    [37650,"HCEP03730564","2024-10-24 11:45:00","11.8802","3.5275","27.873","1.988571428571428","7.49","5.708","8453.142","0.01","0","30.5177","4.78238","22.31","0","SATNPRO1963","21.572","0.30212","5"],
    [37651,"HCEP03730564","2024-10-24 12:00:00","11.8808","3.52674","27.863","1.987142857142857","7.49","5.72","8458.187","0.01","0","30.51","4.78127","22.3","0","SATNPRO1963","21.71","0.30408","5"],
    [37652,"HCEP03730564","2024-10-24 12:15:00","11.8808","3.52672","27.839","2.025714285714286","7.49","5.68","8446.652","0.01","5.74","30.5097","4.78124","22.73","0","SATNPRO1963","21.66","0.3034","5"],
    [37653,"HCEP03730564","2024-10-24 12:30:00","11.8804","3.52661","27.805","2.024285714285714","7.49","5.694","8450.146","0.01","6.86","30.5091","4.78115","22.7","0","SATNPRO1963","21.594","0.30246","5"],
    [37654,"HCEP03730564","2024-10-24 12:45:00","11.8806","3.52635","27.754","2.028571428571428","7.49","5.694","8458.658","0.01","0","30.5064","4.78076","22.75","0","SATNPRO1963","21.676","0.3036","5"],
    [37655,"HCEP03730564","2024-10-24 13:00:00","11.8805","3.52618","27.709","2.025714285714286","7.49","5.673","8446.518","0.02","10.63","30.505","4.78056","22.72","0","SATNPRO1963","21.616","0.30276","5"],
    [37656,"HCEP03730564","2024-10-24 13:15:00","11.8803","3.52628","27.662","2.017142857142857","7.49","5.34","8446.311","0.03","6.86","30.506","4.78071","22.63","0","SATNPRO1963","21.644000000000002","0.30318","5"],
    [37657,"HCEP03730564","2024-10-24 13:30:00","11.8802","3.52638","27.605","2","7.49","5.509","8450.962","0.02","3.76","30.5071","4.78086","22.43","0","SATNPRO1963","21.54","0.30172","5"],
    [37658,"HCEP03730564","2024-10-24 13:45:00","11.8805","3.5264","27.537","1.99","7.49","5.649","8406.615","0","13.02","30.5071","4.78086","22.33","0","SATNPRO1963","21.508","0.30124","5"],
    [37659,"HCEP03730564","2024-10-24 14:00:00","11.8803","3.52628","27.475","1.991428571428571","7.49","5.639","8416.254","0.01","0","30.5062","4.78072","22.33","0","SATNPRO1963","21.498","0.3011","5"],
    [37660,"HCEP03730564","2024-10-24 14:15:00","11.8805","3.52615","27.4","1.997142857142857","7.49","5.737","8443.396","0.01","2.17","30.5048","4.78052","22.4","0","SATNPRO1963","21.888","0.30658","5"],
    [37661,"HCEP03730564","2024-10-24 14:30:00","11.8799","3.52578","27.315","2","7.49","5.608","8393.424","0.01","6.51","30.5017","4.78009","22.43","0","SATNPRO1963","21.496","0.30108","5"],
    [37662,"HCEP03730564","2024-10-24 14:45:00","11.8797","3.52532","27.227","1.995714285714286","7.49","5.651","8400.825","0","0","30.4974","4.77948","22.38","0","SATNPRO1963","21.418","0.3","5"],
    [37663,"HCEP03730564","2024-10-24 15:00:00","11.8798","3.52506","27.124","1.985714285714286","7.49","5.832","8458.896","0.01","0","30.4949","4.77912","22.27","0","SATNPRO1963","21.186","0.29678","5"],
    [37664,"HCEP03730564","2024-10-24 15:15:00","11.8798","3.52488","27.038","1.981428571428572","7.49","5.708","8443.313","0.02","9.21","30.4932","4.77887","22.22","0","SATNPRO1963","21.434","0.30022","5"],
    [37665,"HCEP03730564","2024-10-24 15:30:00","11.8798","3.52462","26.954","1.984285714285714","7.48","5.76","8456.609","0.01","3.76","30.4908","4.77853","22.26","0","SATNPRO1963","21.28","0.29808","5"],
    [37666,"HCEP03730564","2024-10-24 15:45:00","11.8796","3.52494","26.895","1.957142857142857","7.49","5.624","8455.846","0.02","3.76","30.494","4.77898","21.95","0","SATNPRO1963","20.916","0.29296","5"],
    [37667,"HCEP03730564","2024-10-24 16:00:00","11.8787","3.52548","26.829","1.874285714285714","7.49","5.634","8431.354","0","0","30.5","4.77984","21.02","0","SATNPRO1963","20.6","0.2886","5"],
    [37668,"HCEP03730564","2024-10-24 16:15:00","11.8784","3.52566","26.767","1.767142857142857","7.48","5.653","8433.485","0.01","0","30.502","4.78012","19.82","0","SATNPRO1963","20.118000000000002","0.28178","5"],
    [37669,"HCEP03730564","2024-10-24 16:30:00","11.8787","3.52588","26.658","1.721428571428572","7.48","5.688","8451.435","0.01","0","30.5039","4.78037","19.31","0","SATNPRO1963","20.208000000000002","0.28308","5"],
    [37670,"HCEP03730564","2024-10-24 16:45:00","11.8788","3.52607","26.601","1.697142857142857","7.47","5.648","8428.83","0.01","0","30.5056","4.78061","19.03","0","SATNPRO1963","20.042","0.28072","5"],
    [37671,"HCEP03730564","2024-10-24 17:00:00","11.8789","3.52622","26.55","1.694285714285714","7.47","5.65","8431.406","0.01","3.07","30.5069","4.7808","19.01","0","SATNPRO1963","20.122","0.28184","5"],
    [37672,"HCEP03730564","2024-10-24 17:15:00","11.879","3.52643","26.512","1.715714285714286","7.47","5.699","8456.319","0.01","2.17","30.5089","4.78108","19.24","0","SATNPRO1963","20.608","0.28866","5"],
    [37673,"HCEP03730564","2024-10-24 17:30:00","11.8795","3.52657","26.46","1.767142857142857","7.47","5.649","8440.66","0.02","8.4","30.51","4.78121","19.81","0","SATNPRO1963","20.93","0.2932","5"],
    [37674,"HCEP03730564","2024-10-24 17:45:00","11.8792","3.52675","26.445","1.795714285714286","7.48","5.655","8444.419","0.01","4.85","30.5119","4.78149","20.14","0","SATNPRO1963","20.686","0.28974","5"],
    [37675,"HCEP03730564","2024-10-24 18:00:00","11.8797","3.5269","26.431","1.815714285714286","7.48","5.695","8458.764","0.01","0","30.513","4.78163","20.37","0","SATNPRO1963","21.184","0.29674","5"],
    [37676,"HCEP03730564","2024-10-24 18:15:00","11.8802","3.52721","26.44","1.835714285714286","7.48","5.67","8448.987","0.02","10.85","30.5155","4.78198","20.6","0","SATNPRO1963","21.169999999999998","0.2965","5"],
    [37677,"HCEP03730564","2024-10-24 18:30:00","11.8804","3.52753","26.449","1.888571428571429","7.49","5.68","8452.271","0.01","7.2","30.5184","4.78239","21.19","0","SATNPRO1963","21.342","0.29896","5"],
    [37678,"HCEP03730564","2024-10-24 18:45:00","11.8808","3.52786","26.466","1.891428571428572","7.49","5.71","8458.816","0.01","0","30.5213","4.78279","21.22","0","SATNPRO1963","21.132","0.29594","5"],
    [37679,"HCEP03730564","2024-10-24 19:00:00","11.8814","3.52912","26.484","1.862857142857143","7.49","5.658","8445.703","0.03","12.08","30.5329","4.78442","20.89","0","SATNPRO1963","20.816","0.29158","5"],
    [37680,"HCEP03730564","2024-10-24 19:15:00","11.8825","3.53016","26.504","1.864285714285714","7.48","5.675","8450.647","0.01","0","30.5419","4.78567","20.91","0","SATNPRO1963","21.214","0.29712","5"],
    [37681,"HCEP03730564","2024-10-24 19:30:00","11.8831","3.53039","26.518","1.89","7.48","5.701","8457.766","0.01","3.07","30.5437","4.78593","21.2","0","SATNPRO1963","21.016000000000002","0.2944","5"],
    [37682,"HCEP03730564","2024-10-24 19:45:00","11.8831","3.53051","26.531","1.905714285714286","7.48","5.678","8448.938","0.02","6.86","30.5448","4.78608","21.39","0","SATNPRO1963","21.278","0.29802","5"],
    [37683,"HCEP03730564","2024-10-24 20:00:00","11.8827","3.53028","26.56","1.9","7.49","5.686","8450.568","0.01","0","30.5428","4.78581","21.31","0","SATNPRO1963","21.556","0.30192","5"],
    [37684,"HCEP03730564","2024-10-24 20:15:00","11.8833","3.5304","26.591","1.918571428571429","7.49","5.695","8457.188","0.01","2.17","30.5435","4.7859","21.52","0","SATNPRO1963","21.342000000000002","0.29894","5"],
    [37685,"HCEP03730564","2024-10-24 20:30:00","11.8841","3.5311","26.619","1.941428571428572","7.48","5.667","8447.623","0.02","7.82","30.5495","4.78674","21.78","0","SATNPRO1963","21.544","0.3018","5"],
    [37686,"HCEP03730564","2024-10-24 20:45:00","11.8862","3.53219","26.659","1.985714285714286","7.49","5.68","8449.49","0.01","5.31","30.5583","4.78796","22.29","0","SATNPRO1963","21.636","0.30304","5"],
    [37687,"HCEP03730564","2024-10-24 21:00:00","11.8901","3.5339","26.684","2.055714285714286","7.49","5.693","8456.24","0.01","0","30.5715","4.78977","23.07","0","SATNPRO1963","22.16","0.31038","5"],
    [37688,"HCEP03730564","2024-10-24 21:15:00","11.8911","3.53431","26.712","2.141428571428572","7.49","5.66","8449.78","0.01","0","30.5746","4.79019","24.03","0","SATNPRO1963","21.968","0.30764","5"],
    [37689,"HCEP03730564","2024-10-24 21:30:00","11.8916","3.53441","26.733","2.148571428571429","7.5","5.671","8451.381","0.01","4.34","30.5752","4.79027","24.11","0","SATNPRO1963","22.144","0.31014","5"],
    [37690,"HCEP03730564","2024-10-24 21:45:00","11.8926","3.53474","26.758","2.152857142857143","7.5","5.682","8457.056","0.01","3.76","30.5776","4.79059","24.17","0","SATNPRO1963","22.084","0.3093","5"],
    [37691,"HCEP03730564","2024-10-24 22:00:00","11.893","3.53504","26.768","2.171428571428572","7.5","5.612","8447.44","0.02","8.12","30.5801","4.79094","24.38","0","SATNPRO1963","22.38","0.31346","5"],
    [37692,"HCEP03730564","2024-10-24 22:15:00","11.8936","3.5352","26.771","2.177142857142857","7.5","5.626","8449.595","0.01","5.74","30.5812","4.79108","24.43","0","SATNPRO1963","22.366","0.31326","5"],
    [37693,"HCEP03730564","2024-10-24 22:30:00","11.8936","3.53534","26.77","2.191428571428572","7.5","5.683","8458.081","0.01","2.17","30.5825","4.79127","24.59","0","SATNPRO1963","22.396","0.3137","5"],
    [37694,"HCEP03730564","2024-10-24 22:45:00","11.8941","3.53548","26.747","2.181428571428572","7.51","5.658","8451.906","0.02","4.34","30.5834","4.79139","24.49","0","SATNPRO1963","22.4","0.31378","5"],
    [37695,"HCEP03730564","2024-10-24 23:00:00","11.894","3.53556","26.716","2.187142857142857","7.5","5.672","8451.486","0.01","3.76","30.5843","4.79152","24.56","0","SATNPRO1963","22.268","0.31188","5"],
    [37696,"HCEP03730564","2024-10-24 23:15:00","11.8941","3.53569","26.688","2.197142857142857","7.5","5.692","8456.635","0.01","4.34","30.5855","4.79168","24.66","0","SATNPRO1963","22.316","0.3126","5"],
    [37697,"HCEP03730564","2024-10-24 23:30:00","11.8942","3.53585","26.637","2.198571428571428","7.51","5.664","8450.67","0.02","7.52","30.587","4.79188","24.69","0","SATNPRO1963","22.068","0.30916","5"],
    [37698,"HCEP03730564","2024-10-24 23:45:00","11.8948","3.53611","26.575","2.204285714285714","7.51","5.68","8451.854","0.01","4.85","30.589","4.79215","24.75","0","SATNPRO1963","22.094","0.30946","5"],
    [37699,"HCEP03730564","2024-10-25 00:00:00","11.8949","3.53623","26.525","2.202857142857143","7.51","5.685","8457.477","0.01","3.76","30.5901","4.79231","24.73","0","SATNPRO1963","22.132","0.30998","5"],
    [37700,"HCEP03730564","2024-10-25 00:15:00","11.8948","3.53631","26.438","2.191428571428572","7.51","5.659","8449.699","0.02","7.2","30.5909","4.79243","24.61","0","SATNPRO1963","22.16","0.3104","5"],
    [37701,"HCEP03730564","2024-10-25 00:30:00","11.8952","3.53657","26.343","2.185714285714286","7.51","5.679","8451.854","0.01","4.85","30.5931","4.79272","24.54","0","SATNPRO1963","22.178","0.31064","5"],
    [37702,"HCEP03730564","2024-10-25 00:45:00","11.8955","3.53684","26.264","2.184285714285714","7.51","5.707","8453.771","0.01","3.07","30.5955","4.79305","24.52","0","SATNPRO1963","22.264","0.31184","5"],
    [37703,"HCEP03730564","2024-10-25 01:00:00","11.8964","3.53743","26.146","2.171428571428572","7.51","5.671","8451.406","0.01","5.74","30.6005","4.79373","24.38","0","SATNPRO1963","23.53","0.32962","5"],
    [37704,"HCEP03730564","2024-10-25 01:15:00","11.8993","3.53834","26.032","2.19","7.51","5.33","8449.517","0.01","5.31","30.6069","4.79459","24.59","0","SATNPRO1963","22.428","0.31414","5"],
    [37705,"HCEP03730564","2024-10-25 01:30:00","11.9008","3.53895","25.936","2.23","7.51","5.455","8452.063","0.01","4.34","30.6115","4.79521","25.04","0","SATNPRO1963","22.556","0.31592","5"],
    [37706,"HCEP03730564","2024-10-25 01:45:00","11.9012","3.53906","25.823","2.248571428571429","7.52","5.631","8432.193","0.01","6.51","30.6123","4.79532","25.25","0","SATNPRO1963","22.634","0.31704","5"],
    [37707,"HCEP03730564","2024-10-25 02:00:00","11.9014","3.53915","25.677","2.251428571428572","7.51","5.367","8429.566","0.01","0","30.613","4.79541","25.28","0","SATNPRO1963","22.226","0.3113","5"],
    [37708,"HCEP03730564","2024-10-25 02:15:00","11.9023","3.53959","25.52","2.258571428571428","7.51","5.723","8443.972","0.01","5.74","30.6167","4.7959","25.36","0","SATNPRO1963","22.354","0.3131","5"],
    [37709,"HCEP03730564","2024-10-25 02:30:00","11.9029","3.53971","25.423","2.267142857142857","7.51","5.619","8432.956","0.02","9.94","30.6174","4.79598","25.46","0","SATNPRO1963","22.474","0.31478","5"],
    [37710,"HCEP03730564","2024-10-25 02:45:00","11.903","3.53977","25.308","2.272857142857143","7.52","5.42","8437.4","0.01","6.51","30.6178","4.79604","25.52","0","SATNPRO1963","22.284","0.31212","5"],
    [37711,"HCEP03730564","2024-10-25 03:00:00","11.9029","3.53974","25.194","2.277142857142857","7.52","5.749","8437.9","0.01","3.76","30.6177","4.79602","25.56","0","SATNPRO1963","22.404","0.3138","5"],
    [37712,"HCEP03730564","2024-10-25 03:15:00","11.9036","3.53999","25.092","2.297142857142857","7.52","5.615","8373.731","0.01","9.46","30.6196","4.79627","25.79","0","SATNPRO1963","22.832","0.31982","5"],
    [37713,"HCEP03730564","2024-10-25 03:30:00","11.9054","3.54049","24.975","2.338571428571428","7.53","5.474","8371.57","0.01","4.34","30.623","4.79671","26.27","0","SATNPRO1963","22.988","0.32202","5"],
    [37714,"HCEP03730564","2024-10-25 03:45:00","11.9033","3.54025","24.916","2.335714285714286","7.53","5.696","8413.246","0.01","17.36","30.6224","4.79665","26.23","0","SATNPRO1963","22.218","0.3112","5"],
    [37715,"HCEP03730564","2024-10-25 04:00:00","11.9037","3.54048","24.88","2.275714285714286","7.52","5.581","8386.334","0.02","7.2","30.6243","4.79692","25.55","0","SATNPRO1963","22.37","0.31332","5"],
    [37716,"HCEP03730564","2024-10-25 04:15:00","11.9046","3.54112","24.888","2.302857142857143","7.52","5.589","8392.291","0.01","2.17","30.6297","4.79766","25.86","0","SATNPRO1963","22.64","0.31714","5"],
    [37717,"HCEP03730564","2024-10-25 04:30:00","11.9046","3.54105","24.849","2.347142857142857","7.52","5.631","8448.991","0.02","3.07","30.629","4.79757","26.36","0","SATNPRO1963","22.936","0.32124","5"],
    [37718,"HCEP03730564","2024-10-25 04:45:00","11.9044","3.54127","24.801","2.351428571428571","7.53","5.615","8428.507","0.03","16.95","30.6314","4.7979","26.41","0","SATNPRO1963","22.95","0.32148","5"],
    [37719,"HCEP03730564","2024-10-25 05:00:00","11.9044","3.54145","24.815","2.341428571428572","7.53","5.596","8434.667","0.01","3.07","30.6331","4.79815","26.3","0","SATNPRO1963","23.06","0.323","5"],
    [37720,"HCEP03730564","2024-10-25 05:15:00","11.904","3.54148","24.838","2.325714285714286","7.52","5.622","8450.488","0.01","3.76","30.6337","4.79823","26.12","0","SATNPRO1963","22.852","0.32006","5"],
    [37721,"HCEP03730564","2024-10-25 05:30:00","11.9035","3.54147","24.865","2.307142857142857","7.52","5.631","8438.524","0.02","17.49","30.634","4.79829","25.91","0","SATNPRO1963","22.99","0.32202","5"],
    [37722,"HCEP03730564","2024-10-25 05:45:00","11.9031","3.54136","24.905","2.292857142857143","7.52","5.633","8445.021","0.01","8.12","30.6332","4.79818","25.75","0","SATNPRO1963","22.606","0.3166","5"],
    [37723,"HCEP03730564","2024-10-25 06:00:00","11.9025","3.54127","24.99","2.284285714285714","7.52","5.657","8453.298","0.01","3.76","30.6327","4.79813","25.66","0","SATNPRO1963","22.592","0.31642","5"],
    [37724,"HCEP03730564","2024-10-25 06:15:00","11.9025","3.5415","25.085","2.272857142857143","7.52","5.642","8445.705","0.02","9.46","30.635","4.79846","25.52","0","SATNPRO1963","22.592","0.3164","5"],
    [37725,"HCEP03730564","2024-10-25 06:30:00","11.9037","3.54192","25.175","2.27","7.52","5.648","8447.207","0","0","30.638","4.79887","25.5","0","SATNPRO1963","22.742","0.31858","5"],
    [37726,"HCEP03730564","2024-10-25 06:45:00","11.9037","3.54226","25.271","2.284285714285714","7.52","5.657","8451.093","0.01","3.07","30.6412","4.79933","25.66","0","SATNPRO1963","22.93","0.32116","5"],
    [37727,"HCEP03730564","2024-10-25 07:00:00","11.9041","3.54245","25.376","2.308571428571429","7.51","5.622","8440.896","0.02","7.52","30.6427","4.79954","25.92","0","SATNPRO1963","23.048000000000002","0.32284","5"],
    [37728,"HCEP03730564","2024-10-25 07:15:00","11.9046","3.54241","25.504","2.335714285714286","7.52","5.636","8443.473","0.01","0","30.6419","4.79942","26.23","0","SATNPRO1963","23.17","0.32452","5"],
    [37729,"HCEP03730564","2024-10-25 07:30:00","11.9049","3.54241","25.641","2.374285714285714","7.52","5.653","8453.456","0.01","0","30.6416","4.79938","26.66","0","SATNPRO1963","23.308","0.32646","5"],
    [37730,"HCEP03730564","2024-10-25 07:45:00","11.9043","3.54246","25.769","2.371428571428571","7.52","5.626","8445.497","0.02","5.31","30.6425","4.79953","26.63","0","SATNPRO1963","23.002","0.3222","5"],
    [37731,"HCEP03730564","2024-10-25 08:00:00","11.9041","3.54245","25.969","2.337142857142857","7.52","5.64","8446.603","0.01","0","30.6424","4.79954","26.25","0","SATNPRO1963","23.016","0.32236","5"],
    [37732,"HCEP03730564","2024-10-25 08:15:00","11.9037","3.54235","26.121","2.32","7.52","5.652","8451.776","0.01","0","30.6418","4.79946","26.06","0","SATNPRO1963","23.041999999999998","0.32274","5"],
    [37733,"HCEP03730564","2024-10-25 08:30:00","11.9036","3.5423","26.267","2.31","7.52","5.631","8440.579","0.02","11.27","30.6413","4.79939","25.94","0","SATNPRO1963","22.912","0.32092","5"],
    [37734,"HCEP03730564","2024-10-25 08:45:00","11.9037","3.54228","26.416","2.307142857142857","7.52","5.64","8443.025","0.01","2.17","30.6409","4.79935","25.91","0","SATNPRO1963","22.92","0.32102","5"],
    [37735,"HCEP03730564","2024-10-25 09:00:00","11.9037","3.54224","26.589","2.29","7.52","5.632","8451.565","0.01","2.17","30.6405","4.79931","25.72","0","SATNPRO1963","22.586","0.31634","5"],
    [37736,"HCEP03730564","2024-10-25 09:15:00","11.9029","3.5424","26.792","2.252857142857143","7.52","5.609","8445.049","0.02","8.68","30.6426","4.79962","25.31","0","SATNPRO1963","22.62","0.31682","5"],
    [37737,"HCEP03730564","2024-10-25 09:30:00","11.9036","3.54242","26.952","2.251428571428572","7.51","5.625","8446.55","0.01","3.07","30.6422","4.79956","25.28","0","SATNPRO1963","23.006","0.3222","5"],
    [37738,"HCEP03730564","2024-10-25 09:45:00","11.9037","3.54246","27.119","2.298571428571428","7.51","5.643","8452.064","0.01","2.17","30.6424","4.7996","25.81","0","SATNPRO1963","22.932000000000002","0.32122","5"],
    [37739,"HCEP03730564","2024-10-25 10:00:00","11.9038","3.54243","27.244","2.301428571428572","7.51","5.615","8439.633","0.02","11.06","30.642","4.79955","25.84","0","SATNPRO1963","22.972","0.32174","5"],
    [37740,"HCEP03730564","2024-10-25 10:15:00","11.9041","3.5424","27.352","2.311428571428572","7.51","5.629","8442.369","0.01","4.34","30.6414","4.79947","25.96","0","SATNPRO1963","23.096","0.32352","5"],
    [37741,"HCEP03730564","2024-10-25 10:30:00","11.9038","3.54238","27.495","2.305714285714286","7.52","5.641","8449.018","0.01","4.34","30.6415","4.79949","25.89","0","SATNPRO1963","22.954","0.32154","5"],
    [37742,"HCEP03730564","2024-10-25 10:45:00","11.9037","3.54258","27.608","2.268571428571429","7.51","5.608","8435.157","0.02","19.29","30.6433","4.79976","25.48","0","SATNPRO1963","22.838","0.3199","5"],
    [37743,"HCEP03730564","2024-10-25 11:00:00","11.9044","3.54244","27.706","2.384285714285714","7.51","5.622","8439.819","0.01","0","30.6414","4.79949","26.78","0","SATNPRO1963","23.164","0.32444","5"],
    [37744,"HCEP03730564","2024-10-25 11:15:00","11.9044","3.54245","27.773","2.32","7.51","5.626","8449.201","0.01","5.31","30.6415","4.79949","26.05","0","SATNPRO1963","22.994","0.32206","5"],
    [37745,"HCEP03730564","2024-10-25 11:30:00","11.9028","3.54218","27.753","2.252857142857143","7.52","5.592","8420.016","0.02","5.31","30.6402","4.79933","25.3","0","SATNPRO1963","22.606","0.3166","5"],
    [37746,"HCEP03730564","2024-10-25 11:45:00","11.9025","3.54206","27.795","2.232857142857143","7.52","5.617","8421.754","0","0","30.6393","4.79922","25.07","0","SATNPRO1963","22.118","0.30976","5"],
    [37747,"HCEP03730564","2024-10-25 12:00:00","11.9058","3.54277","27.833","2.25","7.52","5.638","8448.938","0.01","4.34","30.6434","4.79976","25.27","0","SATNPRO1963","23.112","0.32372","5"],
    [37748,"HCEP03730564","2024-10-25 12:15:00","11.9064","3.54292","27.847","2.342857142857143","7.52","5.636","8438.189","0.01","4.85","30.6443","4.79987","26.32","0","SATNPRO1963","23.368000000000002","0.3273","5"],
    [37749,"HCEP03730564","2024-10-25 12:30:00","11.9071","3.54311","27.866","2.375714285714286","7.52","5.638","8441.423","0.01","4.34","30.6455","4.80003","26.68","0","SATNPRO1963","23.386","0.32756","5"],
    [37750,"HCEP03730564","2024-10-25 12:45:00","11.9058","3.54289","27.859","2.37","7.52","5.669","8447.889","0.01","2.17","30.6445","4.79991","26.62","0","SATNPRO1963","22.698","0.31794","5"],
    [37751,"HCEP03730564","2024-10-25 13:00:00","11.9033","3.5428","27.85","2.247142857142857","7.52","5.656","8443.943","0.01","9.46","30.6458","4.80012","25.24","0","SATNPRO1963","22.338","0.31288","5"],
    [37752,"HCEP03730564","2024-10-25 13:15:00","11.9042","3.54296","27.832","2.177142857142857","7.51","5.664","8446.575","0.01","3.07","30.6464","4.8002","24.45","0","SATNPRO1963","22.695999999999998","0.3179","5"],
    [37753,"HCEP03730564","2024-10-25 13:30:00","11.9044","3.54295","27.789","2.207142857142857","7.51","5.67","8448.021","0.02","0","30.6462","4.80017","24.79","0","SATNPRO1963","22.444","0.31434","5"],
    [37754,"HCEP03730564","2024-10-25 13:45:00","11.9048","3.54304","27.743","2.217142857142857","7.51","5.626","8441.159","0.02","8.12","30.6469","4.80025","24.9","0","SATNPRO1963","22.928","0.32116","5"],
    [37755,"HCEP03730564","2024-10-25 14:00:00","11.9047","3.54312","27.703","2.228571428571429","7.51","5.425","8441.054","0.01","4.34","30.6477","4.80036","25.04","0","SATNPRO1963","22.962","0.32162","5"],
    [37756,"HCEP03730564","2024-10-25 14:15:00","11.9053","3.54287","27.646","2.247142857142857","7.51","5.502","8448.86","0.06","3.07","30.6448","4.79994","25.24","0","SATNPRO1963","23.356","0.32714","5"],
    [37757,"HCEP03730564","2024-10-25 14:30:00","11.9048","3.54285","27.583","2.288571428571429","7.51","5.615","8440.16","0.02","8.68","30.6451","4.8","25.7","0","SATNPRO1963","23.17","0.32452","5"],
    [37758,"HCEP03730564","2024-10-25 14:45:00","11.9042","3.54247","27.476","2.277142857142857","7.51","5.068","8233.747","0.02","23.87","30.6419","4.79954","25.58","0","SATNPRO1963","23.012","0.32234","5"],
    [37759,"HCEP03730564","2024-10-25 15:00:00","11.9039","3.54249","27.404","2.268571428571429","7.51","5.336","8441.894","0.11","8.95","30.6425","4.79962","25.48","0","SATNPRO1963","22.864","0.32024","5"],
    [37760,"HCEP03730564","2024-10-25 15:15:00","11.9042","3.54259","27.339","2.252857142857143","7.51","5.58","8402.931","0.02","9.21","30.6431","4.79971","25.31","0","SATNPRO1963","22.736","0.31842","5"],
    [37761,"HCEP03730564","2024-10-25 15:30:00","11.9039","3.54258","27.247","2.251428571428572","7.51","5.285","8395.532","0.02","2.17","30.6433","4.79973","25.29","0","SATNPRO1963","22.919999999999998","0.321","5"],
    [37762,"HCEP03730564","2024-10-25 15:45:00","11.9034","3.54188","27.155","2.234285714285714","7.51","5.334","8435.272","0.06","0","30.6371","4.79886","25.09","0","SATNPRO1963","22.6","0.3166","5"],
    [37763,"HCEP03730564","2024-10-25 16:00:00","11.9035","3.54204","27.062","2.232857142857143","7.51","5.573","8423.567","0.01","3.76","30.6385","4.79905","25.08","0","SATNPRO1963","22.944","0.32138","5"],
    [37764,"HCEP03730564","2024-10-25 16:15:00","11.9026","3.54261","26.97","2.168571428571429","7.51","5.547","8427.2","0.01","0","30.6448","4.79995","24.36","0","SATNPRO1963","21.9","0.30672","5"],
    [37765,"HCEP03730564","2024-10-25 16:30:00","11.9048","3.54332","26.844","2.128571428571429","7.5","5.7","8432.38","0.01","0","30.6499","4.80062","23.91","0","SATNPRO1963","22.322","0.31264","5"],
    [37766,"HCEP03730564","2024-10-25 16:45:00","11.9045","3.5433","26.747","2.16","7.5","5.646","8406.326","0.02","11.48","30.65","4.80063","24.26","0","SATNPRO1963","22.336","0.31286","5"],
    [37767,"HCEP03730564","2024-10-25 17:00:00","11.9054","3.5434","26.651","2.177142857142857","7.5","5.669","8411.121","0.01","3.76","30.6503","4.80066","24.45","0","SATNPRO1963","22.676000000000002","0.31758","5"],
    [37768,"HCEP03730564","2024-10-25 17:15:00","11.9039","3.54295","26.563","2.187142857142857","7.5","5.681","8445.942","0.01","6.14","30.6472","4.80024","24.57","0","SATNPRO1963","22.218","0.31122","5"],
    [37769,"HCEP03730564","2024-10-25 17:30:00","11.9017","3.54238","26.469","2.105714285714286","7.5","5.635","8429.96","0.01","0","30.6435","4.79975","23.65","0","SATNPRO1963","22.054","0.30896","5"],
    [37770,"HCEP03730564","2024-10-25 17:45:00","11.9021","3.54219","26.386","2.085714285714286","7.5","5.652","8431.512","0.01","2.17","30.6414","4.79944","23.43","0","SATNPRO1963","22.388","0.31358","5"],
    [37771,"HCEP03730564","2024-10-25 18:00:00","11.9021","3.54154","26.288","2.13","7.5","5.71","8440.502","0.01","4.85","30.6352","4.79856","23.92","0","SATNPRO1963","22.284","0.31212","5"],
    [37772,"HCEP03730564","2024-10-25 18:15:00","11.9006","3.54125","26.224","2.104285714285714","7.5","5.666","8429.355","0.02","0","30.6338","4.79837","23.63","0","SATNPRO1963","21.544","0.30178","5"],
    [37773,"HCEP03730564","2024-10-25 18:30:00","11.8995","3.54055","26.207","2.024285714285714","7.49","5.649","8428.752","0.01","0","30.6278","4.79755","22.73","0","SATNPRO1963","21.494","0.30104","5"],
    [37774,"HCEP03730564","2024-10-25 18:45:00","11.8981","3.54029","26.19","1.954285714285714","7.49","5.693","8446.915","0.01","5.74","30.6265","4.79739","21.95","0","SATNPRO1963","20.846","0.29196","5"],
    [37775,"HCEP03730564","2024-10-25 19:00:00","11.8976","3.54043","26.18","1.861428571428571","7.48","5.635","8438.241","0.02","7.2","30.6283","4.79764","20.9","0","SATNPRO1963","20.518","0.28736","5"],
    [37776,"HCEP03730564","2024-10-25 19:15:00","11.8964","3.53992","26.181","1.784285714285714","7.48","5.644","8439.608","0.01","2.17","30.6244","4.79711","20.04","0","SATNPRO1963","20.036","0.28068","5"],
    [37777,"HCEP03730564","2024-10-25 19:30:00","11.8975","3.54025","26.205","1.764285714285714","7.48","5.667","8447.125","0.01","5.31","30.6267","4.79741","19.82","0","SATNPRO1963","20.636","0.28906","5"],
    [37778,"HCEP03730564","2024-10-25 19:45:00","11.898","3.54","26.226","1.831428571428571","7.47","5.607","8423.382","0.01","6.86","30.6239","4.79701","20.56","0","SATNPRO1963","21.168","0.2965","5"],
    [37779,"HCEP03730564","2024-10-25 20:00:00","11.8995","3.54012","26.242","1.902857142857143","7.48","5.616","8426.252","0.01","3.76","30.6238","4.79698","21.37","0","SATNPRO1963","21.348","0.29902","5"],
    [37780,"HCEP03730564","2024-10-25 20:15:00","11.901","3.54016","26.267","1.994285714285714","7.48","5.656","8440.738","0.01","5.74","30.6228","4.79683","22.39","0","SATNPRO1963","21.844","0.30598","5"],
    [37781,"HCEP03730564","2024-10-25 20:30:00","11.9018","3.5399","26.301","2.045714285714286","7.48","5.602","8396.716","0.01","8.12","30.6197","4.79638","22.96","0","SATNPRO1963","21.71","0.30412","5"],
    [37782,"HCEP03730564","2024-10-25 20:45:00","11.9017","3.53989","26.352","2.08","7.49","5.61","8396.688","0.01","6.86","30.6197","4.79638","23.36","0","SATNPRO1963","22.17","0.31052","5"],
    [37783,"HCEP03730564","2024-10-25 21:00:00","11.9012","3.54011","26.406","2.051428571428572","7.49","5.63","8437.585","0.01","5.31","30.6221","4.79673","23.03","0","SATNPRO1963","21.348","0.299","5"],
    [37784,"HCEP03730564","2024-10-25 21:15:00","11.9007","3.54034","26.432","1.962857142857143","7.48","5.585","8420.121","0.01","6.51","30.6248","4.79711","22.04","0","SATNPRO1963","20.734","0.2904","5"],
    [37785,"HCEP03730564","2024-10-25 21:30:00","11.9017","3.54087","26.418","1.927142857142857","7.48","5.608","8422.806","0.01","0","30.6291","4.79771","21.64","0","SATNPRO1963","20.772","0.29096","5"],
    [37786,"HCEP03730564","2024-10-25 21:45:00","11.9027","3.54159","26.461","1.934285714285714","7.48","5.61","8434.458","0.01","0","30.6352","4.79856","21.73","0","SATNPRO1963","20.57","0.28808","5"],
    [37787,"HCEP03730564","2024-10-25 22:00:00","11.9045","3.54264","26.512","1.964285714285714","7.49","5.594","8425.779","0.01","0","30.6437","4.79974","22.06","0","SATNPRO1963","20.726","0.2903","5"],
    [37788,"HCEP03730564","2024-10-25 22:15:00","11.9057","3.54324","26.586","1.988571428571428","7.49","5.595","8426.937","0.01","0","30.6484","4.80039","22.34","0","SATNPRO1963","20.938","0.2933","5"],
    [37789,"HCEP03730564","2024-10-25 22:30:00","11.907","3.54368","26.625","2.03","7.49","5.593","8438.767","0.01","7.82","30.6516","4.80083","22.8","0","SATNPRO1963","21.37","0.29934","5"],
    [37790,"HCEP03730564","2024-10-25 22:45:00","11.9092","3.54427","26.652","2.087142857142857","7.49","5.579","8431.302","0.01","5.31","30.6554","4.80134","23.45","0","SATNPRO1963","21.85","0.30604","5"],
    [37791,"HCEP03730564","2024-10-25 23:00:00","11.9094","3.5444","26.794","2.128571428571429","7.5","5.574","8432.169","0.01","2.17","30.6566","4.8015","23.91","0","SATNPRO1963","21.666","0.30346","5"],
    [37792,"HCEP03730564","2024-10-25 23:15:00","11.91","3.54462","26.782","2.127142857142857","7.5","5.583","8437.584","0.01","6.14","30.6582","4.80172","23.89","0","SATNPRO1963","21.631999999999998","0.303","5"],
    [37793,"HCEP03730564","2024-10-25 23:30:00","11.9094","3.54438","26.801","2.111428571428572","7.5","5.525","8368.874","0.02","17.89","30.6563","4.80146","23.71","0","SATNPRO1963","21.39","0.29962","5"],
    [37794,"HCEP03730564","2024-10-25 23:45:00","11.9107","3.54474","26.847","2.134285714285714","7.5","5.537","8387.494","0.01","5.74","30.6586","4.80178","23.98","0","SATNPRO1963","21.7","0.30392","5"],
    [37795,"HCEP03730564","2024-10-26 00:00:00","11.9123","3.54535","26.919","2.212857142857143","7.51","5.557","8436.112","0.01","4.85","30.6631","4.80239","24.86","0","SATNPRO1963","22.036","0.30864","5"],
    [37796,"HCEP03730564","2024-10-26 00:15:00","11.9128","3.54584","26.919","2.218571428571428","7.51","5.533","8409.463","0.01","3.76","30.6675","4.803","24.93","0","SATNPRO1963","21.98","0.30784","5"],
    [37797,"HCEP03730564","2024-10-26 00:30:00","11.9136","3.54615","26.896","2.24","7.51","5.536","8418.936","0.01","5.74","30.6698","4.80331","25.17","0","SATNPRO1963","22.194","0.31084","5"],
    [37798,"HCEP03730564","2024-10-26 00:45:00","11.9132","3.54616","26.856","2.244285714285714","7.51","5.563","8434.615","0.01","0","30.6702","4.80337","25.22","0","SATNPRO1963","22.282","0.3121","5"],
    [37799,"HCEP03730564","2024-10-26 01:00:00","11.9143","3.54628","26.799","2.267142857142857","7.51","5.531","8409.092","0.01","9.21","30.6705","4.8034","25.48","0","SATNPRO1963","22.278","0.31206","5"],
    [37800,"HCEP03730564","2024-10-26 01:15:00","11.9152","3.54649","26.747","2.264285714285714","7.52","5.552","8408.646","0.01","4.85","30.6718","4.80356","25.44","0","SATNPRO1963","22.55","0.31584","5"],
    [37801,"HCEP03730564","2024-10-26 01:30:00","11.9153","3.54659","26.668","2.277142857142857","7.52","5.595","8435.929","0.01","3.07","30.6728","4.8037","25.58","0","SATNPRO1963","22.62","0.31682","5"],
    [37802,"HCEP03730564","2024-10-26 01:45:00","11.9166","3.5468","26.566","2.332857142857143","7.52","5.577","8421.066","0.01","8.95","30.6737","4.8038","26.21","0","SATNPRO1963","22.84","0.31992","5"],
    [37803,"HCEP03730564","2024-10-26 02:00:00","11.9148","3.54632","26.512","2.288571428571429","7.52","5.584","8424.12","0.01","4.85","30.6706","4.80338","25.71","0","SATNPRO1963","22.372","0.31336","5"],
    [37804,"HCEP03730564","2024-10-26 02:15:00","11.9136","3.54616","26.447","2.254285714285714","7.51","5.549","8433.351","0.02","4.85","30.6701","4.80332","25.33","0","SATNPRO1963","22.214","0.31116","5"],
    [37805,"HCEP03730564","2024-10-26 02:30:00","11.9124","3.54578","26.403","2.201428571428572","7.51","5.544","8413.773","0.02","15.65","30.6674","4.80297","24.73","0","SATNPRO1963","21.9","0.30674","5"],
    [37806,"HCEP03730564","2024-10-26 02:45:00","11.9109","3.54528","26.321","2.152857142857143","7.51","5.536","8418.437","0.01","5.74","30.6639","4.80248","24.19","0","SATNPRO1963","21.894000000000002","0.30668","5"],
    [37807,"HCEP03730564","2024-10-26 03:00:00","11.9079","3.54386","26.275","2.072857142857143","7.5","5.568","8433.169","0.01","0","30.6527","4.80095","23.29","0","SATNPRO1963","21.468","0.30068","5"],
    [37808,"HCEP03730564","2024-10-26 03:15:00","11.9058","3.54322","26.12","1.995714285714286","7.5","5.517","8419.909","0.01","6.51","30.6483","4.80035","22.41","0","SATNPRO1963","20.8","0.2913","5"],
    [37809,"HCEP03730564","2024-10-26 03:30:00","11.9031","3.54157","26.012","1.924285714285714","7.49","5.53","8416.911","0.01","0","30.6348","4.79847","21.6","0","SATNPRO1963","20.656","0.2893","5"],
    [37810,"HCEP03730564","2024-10-26 03:45:00","11.9018","3.54095","25.866","1.905714285714286","7.49","5.581","8437.794","0.01","6.86","30.63","4.7978","21.4","0","SATNPRO1963","20.59","0.28842","5"],
    [37811,"HCEP03730564","2024-10-26 04:00:00","11.9016","3.54044","25.801","1.934285714285714","7.49","5.589","8426.906","0.01","11.68","30.6253","4.79715","21.72","0","SATNPRO1963","21.118","0.29582","5"],
    [37812,"HCEP03730564","2024-10-26 04:15:00","11.9021","3.54001","25.716","2.022857142857143","7.49","5.594","8430.039","0.01","0","30.6207","4.79648","22.71","0","SATNPRO1963","21.622","0.30284","5"],
    [37813,"HCEP03730564","2024-10-26 04:30:00","11.9037","3.53988","25.65","2.11","7.5","5.594","8436.349","0.01","5.31","30.6182","4.79611","23.69","0","SATNPRO1963","22.184","0.31074","5"],
    [37814,"HCEP03730564","2024-10-26 04:45:00","11.9039","3.5401","25.57","2.195714285714286","7.5","5.571","8424.381","0.01","11.88","30.6202","4.79637","24.65","0","SATNPRO1963","22.33","0.31276","5"],
    [37815,"HCEP03730564","2024-10-26 05:00:00","11.9027","3.54042","25.481","2.19","7.5","5.577","8429.33","0.01","0","30.6243","4.79697","24.6","0","SATNPRO1963","22.392","0.31364","5"],
    [37816,"HCEP03730564","2024-10-26 05:15:00","11.9023","3.54116","25.41","2.127142857142857","7.5","5.58","8436.849","0.01","5.74","30.6317","4.79801","23.88","0","SATNPRO1963","22.202","0.31102","5"],
    [37817,"HCEP03730564","2024-10-26 05:30:00","11.9033","3.54193","25.361","2.098571428571429","7.5","5.547","8383.643","0.01","14.39","30.6383","4.79893","23.57","0","SATNPRO1963","21.874","0.30638","5"],
    [37818,"HCEP03730564","2024-10-26 05:45:00","11.9035","3.54221","25.347","2.091428571428572","7.5","5.555","8386.941","0.01","5.74","30.6408","4.79928","23.49","0","SATNPRO1963","22.014","0.30834","5"],
    [37819,"HCEP03730564","2024-10-26 06:00:00","11.905","3.5424","25.342","2.144285714285714","7.5","5.557","8433.535","0.01","4.34","30.6415","4.79936","24.09","0","SATNPRO1963","22.588","0.31634","5"],
    [37820,"HCEP03730564","2024-10-26 06:15:00","11.905","3.54262","25.346","2.19","7.5","5.543","8413.959","0.01","13.72","30.6435","4.79964","24.6","0","SATNPRO1963","22.674","0.31756","5"],
    [37821,"HCEP03730564","2024-10-26 06:30:00","11.9043","3.54245","25.339","2.17","7.51","5.557","8420.332","0.01","3.76","30.6425","4.7995","24.37","0","SATNPRO1963","22.490000000000002","0.31496","5"],
    [37822,"HCEP03730564","2024-10-26 06:45:00","11.9039","3.54182","25.346","2.144285714285714","7.5","5.572","8433.193","0.01","3.76","30.6369","4.79872","24.08","0","SATNPRO1963","22.55","0.31582","5"],
    [37823,"HCEP03730564","2024-10-26 07:00:00","11.9031","3.54143","25.402","2.141428571428572","7.5","5.539","8411.169","0.02","14.23","30.6337","4.79829","24.06","0","SATNPRO1963","22.784","0.31914","5"],
    [37824,"HCEP03730564","2024-10-26 07:15:00","11.9026","3.54082","25.482","2.148571428571429","7.5","5.55","8419.963","0.01","6.51","30.6282","4.79752","24.13","0","SATNPRO1963","22.574","0.31618","5"],
    [37825,"HCEP03730564","2024-10-26 07:30:00","11.9019","3.54059","25.555","2.148571428571429","7.5","5.533","8433.036","0.01","2.17","30.6265","4.7973","24.12","0","SATNPRO1963","22.832","0.31984","5"],
    [37826,"HCEP03730564","2024-10-26 07:45:00","11.9016","3.5403","25.623","2.131428571428572","7.5","5.546","8407.035","0.02","16.81","30.624","4.79694","23.94","0","SATNPRO1963","22.81","0.3195","5"],
    [37827,"HCEP03730564","2024-10-26 08:00:00","11.9013","3.53977","25.739","2.14","7.5","5.553","8416.938","0.01","0","30.6191","4.79627","24.03","0","SATNPRO1963","22.779999999999998","0.31906","5"],
    [37828,"HCEP03730564","2024-10-26 08:15:00","11.8998","3.53879","25.867","2.158571428571428","7.5","5.539","8423.568","0.01","0","30.6109","4.79513","24.23","0","SATNPRO1963","22.718","0.31822","5"],
    [37829,"HCEP03730564","2024-10-26 08:30:00","11.8981","3.53784","25.989","2.128571428571429","7.5","5.517","8412.608","0.02","23.37","30.6031","4.79406","23.89","0","SATNPRO1963","22.426","0.3141","5"],
    [37830,"HCEP03730564","2024-10-26 08:45:00","11.896","3.53686","26.119","2.074285714285714","7.5","5.531","8421.229","0.01","0","30.5953","4.793","23.29","0","SATNPRO1963","22.078","0.30926","5"],
    [37831,"HCEP03730564","2024-10-26 09:00:00","11.8941","3.53589","26.246","2.025714285714286","7.49","5.532","8428.199","0.01","0","30.5876","4.79195","22.75","0","SATNPRO1963","22.038","0.30866","5"],
    [37832,"HCEP03730564","2024-10-26 09:15:00","11.8934","3.53547","26.36","1.994285714285714","7.49","5.516","8406.697","0.01","9.21","30.5841","4.79147","22.38","0","SATNPRO1963","22.004","0.3082","5"],
    [37833,"HCEP03730564","2024-10-26 09:30:00","11.8924","3.53496","26.473","1.97","7.49","5.532","8415.57","0.01","2.17","30.58","4.79091","22.11","0","SATNPRO1963","21.744","0.30454","5"],
    [37834,"HCEP03730564","2024-10-26 09:45:00","11.8922","3.53502","26.621","1.954285714285714","7.48","5.545","8431.723","0.01","0","30.5806","4.79101","21.93","0","SATNPRO1963","21.854","0.30608","5"],
    [37835,"HCEP03730564","2024-10-26 10:00:00","11.8924","3.53502","26.761","1.945714285714286","7.48","5.518","8408.025","0.02","27.1","30.5804","4.79099","21.84","0","SATNPRO1963","21.604","0.30256","5"],
    [37836,"HCEP03730564","2024-10-26 10:15:00","11.8922","3.53505","26.883","1.935714285714286","7.48","5.541","8419.621","0.01","6.51","30.5808","4.79105","21.73","0","SATNPRO1963","21.472","0.30076","5"],
    [37837,"HCEP03730564","2024-10-26 10:30:00","11.8926","3.53531","27.019","1.932857142857143","7.48","5.538","8428.356","0.01","0","30.5829","4.79136","21.69","0","SATNPRO1963","21.486","0.301","5"],
    [37838,"HCEP03730564","2024-10-26 10:45:00","11.8936","3.53584","27.155","1.95","7.48","5.537","8418.376","0.02","20.24","30.5871","4.79194","21.89","0","SATNPRO1963","21.785999999999998","0.30516","5"],
    [37839,"HCEP03730564","2024-10-26 11:00:00","11.894","3.53599","27.282","1.944285714285714","7.48","5.548","8421.911","0.01","0","30.5882","4.79209","21.82","0","SATNPRO1963","21.516000000000002","0.3014","5"],
    [37840,"HCEP03730564","2024-10-26 11:15:00","11.8934","3.53571","27.398","1.931428571428572","7.48","5.568","8431.591","0.01","0","30.5859","4.79179","21.68","0","SATNPRO1963","21.754","0.30468","5"],
    [37841,"HCEP03730564","2024-10-26 11:30:00","11.8921","3.53522","27.501","1.917142857142857","7.48","5.566","8411.138","0.02","20.58","30.5823","4.7913","21.53","0","SATNPRO1963","21.492","0.30104","5"],
    [37842,"HCEP03730564","2024-10-26 11:45:00","11.8909","3.53452","27.605","1.901428571428572","7.48","5.574","8415.333","0.01","3.07","30.5764","4.7905","21.35","0","SATNPRO1963","21.562","0.302","5"],
    [37843,"HCEP03730564","2024-10-26 12:00:00","11.8935","3.5355","27.686","1.908571428571429","7.48","5.609","8437.321","0.01","6.86","30.5837","4.79149","21.43","0","SATNPRO1963","21.901999999999997","0.30676","5"],
    [37844,"HCEP03730564","2024-10-26 12:15:00","11.8947","3.53607","27.742","1.938571428571429","7.48","5.568","8418.04","0.02","12.08","30.5882","4.79211","21.76","0","SATNPRO1963","22.092","0.30946","5"],
    [37845,"HCEP03730564","2024-10-26 12:30:00","11.8936","3.53523","27.783","1.97","7.48","5.556","8424.043","0.01","0","30.581","4.79111","22.11","0","SATNPRO1963","22.034","0.3086","5"],
    [37846,"HCEP03730564","2024-10-26 12:45:00","11.8882","3.53238","27.763","1.921428571428572","7.48","5.441","8428.408","0.08","0","30.558","4.78795","21.56","0","SATNPRO1963","21.22","0.29724","5"],
    [37847,"HCEP03730564","2024-10-26 13:00:00","11.886","3.53132","27.789","1.808571428571429","7.47","5.588","8407.746","0.02","15.8","30.5498","4.78681","20.29","0","SATNPRO1963","20.932000000000002","0.29316","5"],
    [37848,"HCEP03730564","2024-10-26 13:15:00","11.8888","3.53273","27.802","1.78","7.46","5.58","8410.516","0.01","3.07","30.5609","4.78834","19.98","0","SATNPRO1963","21.364","0.29924","5"],
    [37849,"HCEP03730564","2024-10-26 13:30:00","11.8878","3.53233","27.805","1.797142857142857","7.46","5.582","8381.955","0.02","15.5","30.5579","4.78793","20.17","0","SATNPRO1963","20.772","0.29096","5"],
    [37850,"HCEP03730564","2024-10-26 13:45:00","11.8884","3.53268","27.798","1.767142857142857","7.46","5.543","8353.624","0.02","15.34","30.5608","4.78834","19.83","0","SATNPRO1963","20.75","0.29068","5"],
    [37851,"HCEP03730564","2024-10-26 14:00:00","11.8853","3.53053","27.79","1.744285714285714","7.46","5.53","8353.339","0.01","2.17","30.5426","4.78582","19.57","0","SATNPRO1963","20.88","0.29244","5"],
    [37852,"HCEP03730564","2024-10-26 14:15:00","11.8862","3.53095","27.778","1.74","7.46","5.545","8415.334","0.01","0","30.5459","4.78627","19.52","0","SATNPRO1963","20.982","0.29386","5"],
    [37853,"HCEP03730564","2024-10-26 14:30:00","11.8847","3.52983","27.732","1.752857142857143","7.46","5.512","8389.839","0.01","8.4","30.5365","4.78495","19.66","0","SATNPRO1963","20.78","0.29106","5"],
    [37854,"HCEP03730564","2024-10-26 14:45:00","11.885","3.53038","27.672","1.751428571428571","7.46","5.513","8385.203","0.01","0","30.5416","4.78566","19.65","0","SATNPRO1963","20.944","0.29336","5"],
    [37855,"HCEP03730564","2024-10-26 15:00:00","11.8854","3.53064","27.595","1.811428571428571","7.46","5.506","8418.568","0.01","4.85","30.5437","4.78595","20.33","0","SATNPRO1963","21.228","0.29732","5"],
    [37856,"HCEP03730564","2024-10-26 15:15:00","11.8887","3.53251","27.539","1.812857142857143","7.46","5.502","8368.403","0.01","10.85","30.559","4.78807","20.34","0","SATNPRO1963","21.42","0.30006","5"],
    [37857,"HCEP03730564","2024-10-26 15:30:00","11.8934","3.53231","27.446","1.882857142857143","7.47","5.505","8368.985","0.01","5.31","30.5533","4.78718","21.13","0","SATNPRO1963","21.17","0.29656","5"],
    [37858,"HCEP03730564","2024-10-26 15:45:00","11.8944","3.5339","27.362","1.902857142857143","7.48","5.43","8383.063","0.02","13.55","30.5677","4.78921","21.35","0","SATNPRO1963","21.330000000000002","0.29878","5"],
    [37859,"HCEP03730564","2024-10-26 16:00:00","11.8943","3.53506","27.254","1.892857142857143","7.48","5.5","8390.497","0.01","9.7","30.5791","4.7908","21.25","0","SATNPRO1963","21.076","0.2952","5"],
    [37860,"HCEP03730564","2024-10-26 16:15:00","11.8955","3.53553","27.143","1.862857142857143","7.48","5.519","8402.589","0.01","5.74","30.5827","4.79129","20.92","0","SATNPRO1963","21.222","0.29726","5"],
    [37861,"HCEP03730564","2024-10-26 16:30:00","11.8955","3.536","27.037","1.854285714285714","7.48","5.547","8417.176","0.01","0","30.5872","4.79192","20.82","0","SATNPRO1963","21.176","0.29662","5"],
    [37862,"HCEP03730564","2024-10-26 16:45:00","11.8959","3.53562","26.926","1.851428571428571","7.48","5.506","8404.697","0.01","3.76","30.5832","4.79135","20.79","0","SATNPRO1963","21.142","0.29614","5"],
    [37863,"HCEP03730564","2024-10-26 17:00:00","11.8961","3.5356","26.824","1.857142857142857","7.48","5.519","8402.854","0.01","5.31","30.5829","4.79129","20.85","0","SATNPRO1963","21.318","0.29858","5"],
    [37864,"HCEP03730564","2024-10-26 17:15:00","11.896","3.53533","26.695","1.855714285714286","7.47","5.548","8418.41","0.01","4.85","30.5805","4.79095","20.82","0","SATNPRO1963","21.094","0.29544","5"],
    [37865,"HCEP03730564","2024-10-26 17:30:00","11.8951","3.53517","26.595","1.831428571428571","7.47","5.51","8395.688","0.01","7.52","30.5797","4.79084","20.55","0","SATNPRO1963","21.064","0.29502","5"],
    [37866,"HCEP03730564","2024-10-26 17:45:00","11.8953","3.53408","26.454","1.831428571428571","7.47","5.541","8402.036","0.01","5.74","30.5691","4.78934","20.56","0","SATNPRO1963","21.080000000000002","0.29526","5"],
    [37867,"HCEP03730564","2024-10-26 18:00:00","11.895","3.53272","26.332","1.854285714285714","7.47","5.545","8409.962","0.01","7.2","30.5563","4.78753","20.81","0","SATNPRO1963","20.996","0.29408","5"],
    [37868,"HCEP03730564","2024-10-26 18:15:00","11.8948","3.5318","26.242","1.871428571428571","7.47","5.522","8396.636","0.01","9.7","30.5477","4.78631","21","0","SATNPRO1963","21.056","0.2949","5"],
    [37869,"HCEP03730564","2024-10-26 18:30:00","11.8951","3.53017","26.152","1.904285714285714","7.47","5.537","8401.089","0.01","3.07","30.5319","4.78407","21.36","0","SATNPRO1963","21.246","0.29756","5"],
    [37870,"HCEP03730564","2024-10-26 18:45:00","11.8949","3.52975","26.096","1.934285714285714","7.47","5.544","8399.429","0.01","8.12","30.528","4.78352","21.71","0","SATNPRO1963","21.07","0.29512","5"],
    [37871,"HCEP03730564","2024-10-26 19:00:00","11.8955","3.53022","26.031","1.941428571428572","7.47","5.503","8392.896","0.01","3.07","30.5321","4.78408","21.79","0","SATNPRO1963","20.95","0.29344","5"],
    [37872,"HCEP03730564","2024-10-26 19:15:00","11.8959","3.52878","25.99","1.97","7.48","5.528","8396.269","0.01","4.34","30.5179","4.78207","22.11","0","SATNPRO1963","21.12","0.29582","5"],
    [37873,"HCEP03730564","2024-10-26 19:30:00","11.8962","3.52918","25.984","2.001428571428571","7.48","5.544","8427.146","0.01","3.76","30.5216","4.78259","22.46","0","SATNPRO1963","21.14","0.29614","5"],
    [37874,"HCEP03730564","2024-10-26 19:45:00","11.8966","3.52969","25.978","2.007142857142857","7.48","5.527","8372.881","0.01","19.04","30.526","4.78322","22.52","0","SATNPRO1963","21.166","0.29644","5"],
    [37875,"HCEP03730564","2024-10-26 20:00:00","11.8966","3.52942","26.006","2.002857142857143","7.48","5.536","8361.968","0.01","4.34","30.5234","4.78284","22.47","0","SATNPRO1963","21.064","0.29504","5"],
    [37876,"HCEP03730564","2024-10-26 20:15:00","11.8974","3.52989","26.033","2.015714285714286","7.48","5.568","8415.385","0.02","5.31","30.5273","4.78339","22.62","0","SATNPRO1963","21.41","0.29988","5"],
    [37877,"HCEP03730564","2024-10-26 20:30:00","11.8975","3.52874","26.011","2.06","7.48","5.599","8411.646","0.03","8.12","30.5162","4.78182","23.12","0","SATNPRO1963","21.432","0.3002","5"],
    [37878,"HCEP03730564","2024-10-26 20:45:00","11.8978","3.52826","26.083","2.082857142857143","7.49","5.602","8408.094","0.02","3.76","30.5113","4.78112","23.36","0","SATNPRO1963","21.346","0.29902","5"],
    [37879,"HCEP03730564","2024-10-26 21:00:00","11.8974","3.52941","26.126","2.068571428571428","7.48","5.605","8429.041","0.01","0","30.5227","4.78274","23.22","0","SATNPRO1963","21.232","0.29738","5"],
    [37880,"HCEP03730564","2024-10-26 21:15:00","11.897","3.53061","26.183","2.014285714285714","7.48","5.576","8376.685","0.02","10.41","30.5345","4.78442","22.6","0","SATNPRO1963","21.108","0.29562","5"],
    [37881,"HCEP03730564","2024-10-26 21:30:00","11.8975","3.53","26.241","1.995714285714286","7.48","5.636","8395.106","0.03","12.65","30.5282","4.78352","22.39","0","SATNPRO1963","21.004","0.2942","5"],
    [37882,"HCEP03730564","2024-10-26 21:45:00","11.8968","3.532","26.252","1.982857142857143","7.48","5.692","8449.064","0.07","13.72","30.5479","4.78632","22.25","0","SATNPRO1963","20.784","0.29112","5"],
    [37883,"HCEP03730564","2024-10-26 22:00:00","11.8971","3.53125","26.359","1.984285714285714","7.48","5.588","8405.668","0.03","11.48","30.5405","4.78527","22.27","0","SATNPRO1963","21.174","0.29658","5"],
    [37884,"HCEP03730564","2024-10-26 22:15:00","11.8964","3.533","26.375","1.93","7.48","5.636","8420.964","0.02","5.31","30.5578","4.78773","21.66","0","SATNPRO1963","20.978","0.29384","5"],
    [37885,"HCEP03730564","2024-10-26 22:30:00","11.8958","3.53318","26.434","1.874285714285714","7.47","5.731","8445.913","0.02","13.2","30.56","4.78805","21.03","0","SATNPRO1963","20.784","0.29112","5"],
    [37886,"HCEP03730564","2024-10-26 22:45:00","11.8947","3.53212","26.548","1.855714285714286","7.47","5.607","8402.301","0.01","4.34","30.5507","4.78676","20.82","0","SATNPRO1963","21.072","0.29514","5"],
    [37887,"HCEP03730564","2024-10-26 23:00:00","11.8951","3.53325","26.597","1.847142857142857","7.47","5.703","8435.243","0.01","7.52","30.5612","4.78824","20.74","0","SATNPRO1963","20.604","0.2886","5"],
    [37888,"HCEP03730564","2024-10-26 23:15:00","11.8945","3.53312","26.683","1.794285714285714","7.47","5.692","8429.984","0.01","8.95","30.5605","4.78814","20.14","0","SATNPRO1963","20.31","0.28448","5"],
    [37889,"HCEP03730564","2024-10-26 23:30:00","11.8941","3.53272","26.764","1.758571428571429","7.46","5.564","8407.329","0.01","6.86","30.5569","4.78764","19.73","0","SATNPRO1963","20.698","0.2899","5"],
    [37890,"HCEP03730564","2024-10-26 23:45:00","11.8931","3.5319","26.825","1.751428571428571","7.46","5.586","8404.618","0.01","5.31","30.5498","4.78667","19.65","0","SATNPRO1963","20.342","0.28496","5"],
    [37891,"HCEP03730564","2024-10-27 00:00:00","11.8932","3.53142","26.871","1.754285714285714","7.46","5.617","8404.485","0.01","7.52","30.545","4.78599","19.68","0","SATNPRO1963","20.348","0.285","5"],
    [37892,"HCEP03730564","2024-10-27 00:15:00","11.8925","3.53111","26.887","1.747142857142857","7.46","5.562","8366.98","0.01","8.4","30.5427","4.78567","19.61","0","SATNPRO1963","20.384","0.2855","5"],
    [37893,"HCEP03730564","2024-10-27 00:30:00","11.8922","3.53041","26.92","1.748571428571429","7.46","5.636","8389.182","0.01","6.86","30.5362","4.78476","19.62","0","SATNPRO1963","20.222","0.28326","5"],
    [37894,"HCEP03730564","2024-10-27 00:45:00","11.8919","3.52996","26.956","1.752857142857143","7.46","5.604","8423.095","0.02","3.07","30.5321","4.78419","19.67","0","SATNPRO1963","20.332","0.28482","5"],
    [37895,"HCEP03730564","2024-10-27 01:00:00","11.8907","3.52976","26.982","1.738571428571429","7.46","5.593","8407.908","0.02","6.51","30.5311","4.78407","19.51","0","SATNPRO1963","20.252","0.28366","5"],
    [37896,"HCEP03730564","2024-10-27 01:15:00","11.8911","3.52974","26.972","1.735714285714286","7.45","5.635","8417.175","0.01","3.07","30.5307","4.78401","19.48","0","SATNPRO1963","20.512","0.28736","5"],
    [37897,"HCEP03730564","2024-10-27 01:30:00","11.892","3.52999","26.987","1.751428571428571","7.46","5.609","8375.545","0.02","18.41","30.5323","4.78422","19.66","0","SATNPRO1963","20.384","0.28552","5"],
    [37898,"HCEP03730564","2024-10-27 01:45:00","11.8918","3.52986","27.005","1.745714285714286","7.47","5.54","8372.493","0.01","8.95","30.5312","4.78407","19.59","0","SATNPRO1963","20.264","0.28386","5"],
    [37899,"HCEP03730564","2024-10-27 02:00:00","11.8906","3.52954","26.976","1.688571428571429","7.47","5.542","8373.153","0.01","0","30.5291","4.78379","18.94","0","SATNPRO1963","19.882","0.27846","5"],
    [37900,"HCEP03730564","2024-10-27 02:15:00","11.8897","3.52992","26.934","1.631428571428571","7.45","5.524","8356.03","0.01","8.68","30.5335","4.78442","18.3","0","SATNPRO1963","19.906","0.27882","5"],
    [37901,"HCEP03730564","2024-10-27 02:30:00","11.8876","3.52918","26.856","1.58","7.45","5.508","8366.98","0.01","6.86","30.5282","4.78369","17.73","0","SATNPRO1963","19.374","0.27136","5"],
    [37902,"HCEP03730564","2024-10-27 02:45:00","11.8863","3.52853","26.773","1.511428571428572","7.45","5.541","8370.225","0.01","8.12","30.523","4.78298","16.96","0","SATNPRO1963","19.256","0.2697","5"],
    [37903,"HCEP03730564","2024-10-27 03:00:00","11.8873","3.52822","26.696","1.575714285714286","7.45","5.452","8402.327","0.01","5.74","30.5193","4.78244","17.68","0","SATNPRO1963","19.712","0.27608","5"],
    [37904,"HCEP03730564","2024-10-27 03:15:00","11.8882","3.52844","26.611","1.614285714285714","7.45","5.596","8433.903","0.02","5.74","30.5207","4.78261","18.11","0","SATNPRO1963","19.868000000000002","0.27826","5"],
    [37905,"HCEP03730564","2024-10-27 03:30:00","11.8873","3.52942","26.529","1.614285714285714","7.45","5.631","8441.396","0.01","3.76","30.5308","4.78405","18.12","0","SATNPRO1963","19.898","0.27876","5"],
    [37906,"HCEP03730564","2024-10-27 03:45:00","11.8866","3.52977","26.415","1.614285714285714","7.45","5.636","8435.768","0.03","12.27","30.5349","4.78463","18.11","0","SATNPRO1963","19.878","0.2784","5"],
    [37907,"HCEP03730564","2024-10-27 04:00:00","11.8855","3.5296","26.322","1.587142857142857","7.44","5.56","8420.173","0.01","6.86","30.5342","4.78454","17.81","0","SATNPRO1963","19.77","0.2769","5"],
    [37908,"HCEP03730564","2024-10-27 04:15:00","11.8836","3.52893","26.206","1.507142857142857","7.44","5.688","8450.804","0.01","3.07","30.5293","4.78387","16.91","0","SATNPRO1963","19.228","0.26932","5"],
    [37909,"HCEP03730564","2024-10-27 04:30:00","11.8818","3.52767","26.058","1.422857142857143","7.43","5.66","8443.156","0.02","7.82","30.5188","4.78241","15.96","0","SATNPRO1963","18.934","0.2652","5"],
    [37910,"HCEP03730564","2024-10-27 04:45:00","11.8806","3.5259","25.955","1.367142857142857","7.43","5.705","8443.446","0","5.74","30.5028","4.78016","15.34","0","SATNPRO1963","18.426","0.25808","5"],
    [37911,"HCEP03730564","2024-10-27 05:00:00","11.8799","3.5241","25.789","1.35","7.43","5.779","8396.345","0.01","13.2","30.4862","4.77782","15.14","0","SATNPRO1963","18.356","0.25714","5"],
    [37912,"HCEP03730564","2024-10-27 05:15:00","11.8796","3.52322","25.705","1.324285714285714","7.42","5.737","8458.788","0.04","4.34","30.4779","4.77665","14.85","0","SATNPRO1963","18.154","0.25428","5"],
    [37913,"HCEP03730564","2024-10-27 05:30:00","11.8791","3.52273","25.584","1.292857142857143","7.43","5.729","8445.864","0.03","4.34","30.4737","4.77605","14.5","0","SATNPRO1963","17.712","0.24804","5"],
    [37914,"HCEP03730564","2024-10-27 05:45:00","11.8785","3.52201","25.522","1.255714285714286","7.42","5.745","8414.885","0.01","4.34","30.4673","4.77515","14.09","0","SATNPRO1963","17.44","0.24428","5"],
    [37915,"HCEP03730564","2024-10-27 06:00:00","11.8786","3.52119","25.449","1.218571428571429","7.42","5.598","8422.146","0.02","7.2","30.4594","4.77403","13.67","0","SATNPRO1963","17.088","0.23934","5"],
    [37916,"HCEP03730564","2024-10-27 06:15:00","11.8781","3.52074","25.402","1.191428571428572","7.42","5.571","8405.775","0.01","5.74","30.4555","4.77348","13.37","0","SATNPRO1963","17.128","0.2399","5"],
    [37917,"HCEP03730564","2024-10-27 06:30:00","11.878","3.52038","25.343","1.175714285714286","7.41","5.592","8409.725","0.02","4.85","30.4521","4.773","13.18","0","SATNPRO1963","16.998","0.23808","5"],
    [37918,"HCEP03730564","2024-10-27 06:45:00","11.8776","3.52042","25.324","1.162857142857143","7.41","5.528","8417.306","0.03","5.31","30.4529","4.77311","13.03","0","SATNPRO1963","17.09","0.23934","5"],
    [37919,"HCEP03730564","2024-10-27 07:00:00","11.8781","3.52072","25.312","1.165714285714286","7.41","5.515","8346.153","0.02","14.23","30.4554","4.77346","13.07","0","SATNPRO1963","17.198","0.24088","5"],
    [37920,"HCEP03730564","2024-10-27 07:15:00","11.8782","3.52097","25.317","1.182857142857143","7.42","5.541","8346.265","0.01","0","30.4576","4.77378","13.26","0","SATNPRO1963","17.506","0.24518","5"],
    [37921,"HCEP03730564","2024-10-27 07:30:00","11.8785","3.52115","25.365","1.198571428571429","7.41","5.546","8416.674","0.02","6.14","30.4591","4.77399","13.44","0","SATNPRO1963","17.564","0.24602","5"],
    [37922,"HCEP03730564","2024-10-27 07:45:00","11.8784","3.52124","25.404","1.198571428571429","7.41","5.492","8381.193","0.02","7.52","30.4601","4.77412","13.45","0","SATNPRO1963","17.448","0.2444","5"],
    [37923,"HCEP03730564","2024-10-27 08:00:00","11.8778","3.52122","25.471","1.184285714285714","7.41","5.507","8380.035","0.02","5.31","30.4603","4.77417","13.27","0","SATNPRO1963","17.246","0.24154","5"],
    [37924,"HCEP03730564","2024-10-27 08:15:00","11.8781","3.52124","25.505","1.168571428571429","7.41","5.591","8406.854","0.02","8.4","30.4603","4.77417","13.1","0","SATNPRO1963","17.174","0.24054","5"],
    [37925,"HCEP03730564","2024-10-27 08:30:00","11.878","3.52136","25.615","1.164285714285714","7.41","5.548","8393.845","0.02","7.82","30.4614","4.77433","13.05","0","SATNPRO1963","17.118","0.23982","5"],
    [37926,"HCEP03730564","2024-10-27 08:45:00","11.8786","3.52138","25.746","1.167142857142857","7.41","5.544","8397.427","0.03","6.14","30.4612","4.77429","13.09","0","SATNPRO1963","17.272000000000002","0.24192","5"],
    [37927,"HCEP03730564","2024-10-27 09:00:00","11.8782","3.52172","25.797","1.184285714285714","7.41","5.568","8388.387","0.02","13.55","30.4647","4.7748","13.28","0","SATNPRO1963","17.516000000000002","0.24534","5"],
    [37928,"HCEP03730564","2024-10-27 09:15:00","11.8789","3.52202","25.915","1.195714285714286","7.41","5.535","8394.003","0.03","6.51","30.467","4.77512","13.42","0","SATNPRO1963","17.598","0.24648","5"],
    [37929,"HCEP03730564","2024-10-27 09:30:00","11.8793","3.52247","26.011","1.214285714285714","7.41","5.606","8407.275","0.02","8.12","30.4709","4.77567","13.61","0","SATNPRO1963","17.718","0.24812","5"],
    [37930,"HCEP03730564","2024-10-27 09:45:00","11.8806","3.52344","26.158","1.25","7.41","5.573","8391.393","0.02","12.84","30.4791","4.77682","14.01","0","SATNPRO1963","18.18","0.25462","5"],
    [37931,"HCEP03730564","2024-10-27 10:00:00","11.8808","3.52422","26.326","1.291428571428572","7.41","5.521","8404.958","0.01","8.4","30.4864","4.77786","14.49","0","SATNPRO1963","18.452","0.25846","5"],
    [37932,"HCEP03730564","2024-10-27 10:15:00","11.8815","3.52474","26.473","1.318571428571429","7.41","5.542","8402.748","0.02","3.76","30.4907","4.77846","14.79","0","SATNPRO1963","18.498","0.25912","5"],
    [37933,"HCEP03730564","2024-10-27 10:30:00","11.881","3.52519","26.602","1.32","7.42","5.538","8406.696","0.02","8.12","30.4953","4.77913","14.81","0","SATNPRO1963","18.528","0.25954","5"],
    [37934,"HCEP03730564","2024-10-27 10:45:00","11.8811","3.52565","26.756","1.3","7.42","5.493","8389.682","0.01","5.74","30.4997","4.77975","14.59","0","SATNPRO1963","18.276","0.256","5"],
    [37935,"HCEP03730564","2024-10-27 11:00:00","11.8825","3.52635","26.886","1.32","7.42","5.511","8392.632","0.02","7.2","30.5051","4.78051","14.8","0","SATNPRO1963","18.608","0.26062","5"],
    [37936,"HCEP03730564","2024-10-27 11:15:00","11.8841","3.52659","26.997","1.375714285714286","7.42","5.455","8414.806","0.02","6.51","30.5062","4.78065","15.44","0","SATNPRO1963","19.212","0.2691","5"],
    [37937,"HCEP03730564","2024-10-27 11:30:00","11.8856","3.52683","27.162","1.442857142857143","7.43","5.47","8388.866","0.03","3.07","30.5071","4.78076","16.19","0","SATNPRO1963","19.416","0.27196","5"],
    [37938,"HCEP03730564","2024-10-27 11:45:00","11.8882","3.52847","27.313","1.501428571428571","7.43","5.464","8380.563","0.01","2.17","30.5207","4.78265","16.84","0","SATNPRO1963","19.466","0.27264","5"],
    [37939,"HCEP03730564","2024-10-27 12:00:00","11.8884","3.52963","27.44","1.52","7.43","5.527","8419.095","0.03","5.74","30.5316","4.78419","17.05","0","SATNPRO1963","19.65","0.27524","5"],
    [37940,"HCEP03730564","2024-10-27 12:15:00","11.8885","3.52995","27.545","1.527142857142857","7.44","5.506","8395.134","0.02","9.94","30.5346","4.78462","17.14","0","SATNPRO1963","19.592","0.27442","5"],
    [37941,"HCEP03730564","2024-10-27 12:30:00","11.889","3.5306","27.595","1.532857142857143","7.44","5.645","8444.444","0.03","6.51","30.5404","4.78544","17.19","0","SATNPRO1963","19.823999999999998","0.27766","5"],
    [37942,"HCEP03730564","2024-10-27 12:45:00","11.8888","3.53128","27.689","1.527142857142857","7.44","5.348","8401.663","0.03","14.23","30.547","4.78638","17.14","0","SATNPRO1963","19.776","0.27698","5"],
    [37943,"HCEP03730564","2024-10-27 13:00:00","11.8888","3.53185","27.746","1.52","7.44","5.601","8426.957","0.04","15.03","30.5525","4.78716","17.06","0","SATNPRO1963","20.009999999999998","0.28026","5"],
    [37944,"HCEP03730564","2024-10-27 13:15:00","11.8895","3.53207","27.823","1.531428571428572","7.44","5.496","8368.73","0.05","28.87","30.554","4.78736","17.19","0","SATNPRO1963","19.76","0.27674","5"],
    [37945,"HCEP03730564","2024-10-27 13:30:00","11.8909","3.53276","27.867","1.508571428571429","7.44","5.482","8397.633","0.05","37.89","30.5594","4.78811","16.92","0","SATNPRO1963","19.402","0.27176","5"],
    [37946,"HCEP03730564","2024-10-27 13:45:00","11.8926","3.53325","27.915","1.492857142857143","7.43","5.462","8363.128","0.01","8.4","30.5628","4.78857","16.76","0","SATNPRO1963","19.41","0.27188","5"],
    [37947,"HCEP03730564","2024-10-27 14:00:00","11.8932","3.53345","27.94","1.517142857142857","7.44","5.455","8358.459","0.02","6.14","30.5642","4.78876","17.03","0","SATNPRO1963","19.792","0.27722","5"],
    [37948,"HCEP03730564","2024-10-27 14:15:00","11.8923","3.53291","27.931","1.561428571428571","7.44","5.456","8408.698","0.02","5.31","30.5598","4.78814","17.52","0","SATNPRO1963","20.308","0.28446","5"],
    [37949,"HCEP03730564","2024-10-27 14:30:00","11.8918","3.53167","27.934","1.638571428571429","7.44","5.448","8382.646","0.01","6.51","30.5483","4.78653","18.38","0","SATNPRO1963","20.47","0.28672","5"],
    [37950,"HCEP03730564","2024-10-27 14:45:00","11.8936","3.53384","27.881","1.594285714285714","7.45","5.461","8384.78","0.02","3.76","30.5677","4.78924","17.89","0","SATNPRO1963","19.74","0.27648","5"],
    [37951,"HCEP03730564","2024-10-27 15:00:00","11.8957","3.53451","27.852","1.535714285714286","7.44","5.377","8281.062","0.01","27.45","30.5724","4.78987","17.23","0","SATNPRO1963","19.382","0.2715","5"],
    [37952,"HCEP03730564","2024-10-27 15:15:00","11.8951","3.53434","27.789","1.525714285714286","7.44","5.394","8355.212","0.01","6.14","30.5713","4.78972","17.12","0","SATNPRO1963","19.509999999999998","0.27326","5"],
    [37953,"HCEP03730564","2024-10-27 15:30:00","11.8953","3.53417","27.709","1.522857142857143","7.44","5.42","8351.147","0.01","0","30.5695","4.78946","17.08","0","SATNPRO1963","19.316","0.27058","5"],
    [37954,"HCEP03730564","2024-10-27 15:45:00","11.8962","3.53392","27.621","1.552857142857143","7.44","5.41","8404.435","0.01","0","30.5663","4.78899","17.43","0","SATNPRO1963","19.614","0.27474","5"],
    [37955,"HCEP03730564","2024-10-27 16:00:00","11.8963","3.53368","27.537","1.565714285714286","7.44","5.452","8370.09","0.02","13.72","30.564","4.78866","17.57","0","SATNPRO1963","19.564","0.27402","5"],
    [37956,"HCEP03730564","2024-10-27 16:15:00","11.897","3.5338","27.446","1.581428571428571","7.44","5.481","8369.962","0.01","6.14","30.5646","4.78873","17.76","0","SATNPRO1963","19.618","0.27478","5"],
    [37957,"HCEP03730564","2024-10-27 16:30:00","11.8966","3.53367","27.344","1.615714285714286","7.44","5.495","8389.629","0.02","6.51","30.5637","4.78861","18.13","0","SATNPRO1963","20.094","0.28148","5"],
    [37958,"HCEP03730564","2024-10-27 16:45:00","11.8966","3.53382","27.24","1.624285714285714","7.45","5.564","8431.958","0.01","5.31","30.5652","4.78881","18.23","0","SATNPRO1963","19.87","0.27828","5"],
    [37959,"HCEP03730564","2024-10-27 17:00:00","11.8968","3.53503","27.126","1.628571428571429","7.45","5.592","8438.821","0.01","0","30.5767","4.79043","18.28","0","SATNPRO1963","20.137999999999998","0.28208","5"],
    [37960,"HCEP03730564","2024-10-27 17:15:00","11.9007","3.53674","26.991","1.7","7.46","5.646","8450.173","0.04","6.86","30.59","4.79224","19.09","0","SATNPRO1963","21.092","0.29544","5"],
    [37961,"HCEP03730564","2024-10-27 17:30:00","11.8993","3.53711","26.838","1.747142857142857","7.46","5.669","8410.226","0.01","5.74","30.5948","4.79293","19.61","0","SATNPRO1963","20.472","0.28676","5"],
    [37962,"HCEP03730564","2024-10-27 17:45:00","11.9029","3.53866","26.669","1.76","7.47","5.705","8303.814","0.01","6.86","30.6068","4.79456","19.76","0","SATNPRO1963","21.644000000000002","0.30314","5"],
    [37963,"HCEP03730564","2024-10-27 18:00:00","11.9113","3.54202","26.496","1.958571428571429","7.47","5.222","8360.122","0.01","6.14","30.6322","4.79801","22","0","SATNPRO1963","22.872","0.32036","5"],
    [37964,"HCEP03730564","2024-10-27 18:15:00","11.9119","3.54252","26.345","2.145714285714286","7.48","5.547","8328.455","0.01","10.63","30.6366","4.79862","24.11","0","SATNPRO1963","22.602","0.31658","5"],
    [37965,"HCEP03730564","2024-10-27 18:30:00","11.9129","3.54341","26.196","2.198571428571428","7.49","5.566","8330.599","0.01","2.17","30.6444","4.79969","24.69","0","SATNPRO1963","22.708","0.31806","5"],
    [37966,"HCEP03730564","2024-10-27 18:45:00","11.9142","3.54405","26.048","2.221428571428572","7.5","5.107","8327.394","0.01","19.29","30.6494","4.80038","24.95","0","SATNPRO1963","23.03","0.32262","5"],
    [37967,"HCEP03730564","2024-10-27 19:00:00","11.9146","3.54453","25.92","2.234285714285714","7.5","5.522","8406.51","0.01","13.55","30.6538","4.80098","25.11","0","SATNPRO1963","22.58","0.31624","5"],
    [37968,"HCEP03730564","2024-10-27 19:15:00","11.9157","3.54508","25.817","2.24","7.51","5.526","8412.806","0.01","3.07","30.6582","4.80159","25.16","0","SATNPRO1963","22.758","0.31876","5"],
    [37969,"HCEP03730564","2024-10-27 19:30:00","11.9174","3.54591","25.723","2.272857142857143","7.51","5.008","8321.584","0.01","11.27","30.6648","4.80249","25.54","0","SATNPRO1963","23.022","0.32246","5"],
    [37970,"HCEP03730564","2024-10-27 19:45:00","11.9203","3.54674","25.635","2.338571428571428","7.52","5.514","8177.135","0.02","23.67","30.6704","4.80323","26.29","0","SATNPRO1963","23.59","0.33044","5"],
    [37971,"HCEP03730564","2024-10-27 20:00:00","11.9201","3.54702","25.616","2.387142857142858","7.52","5.354","7831.266","0.19","778.08","30.6732","4.80363","26.82","0","SATNPRO1963","23.282","0.3261","5"],
    [37972,"HCEP03730564","2024-10-27 20:15:00","11.9193","3.54721","25.628","2.381428571428572","7.52","5.393","8378.688","0.05","12.08","30.6757","4.804","26.77","0","SATNPRO1963","23.228","0.32534","5"],
    [37973,"HCEP03730564","2024-10-27 20:30:00","11.919","3.54737","25.648","2.351428571428571","7.52","5.43","8292.221","0.01","12.65","30.6775","4.80425","26.42","0","SATNPRO1963","22.88","0.32048","5"],
    [37974,"HCEP03730564","2024-10-27 20:45:00","11.9182","3.54772","25.72","2.312857142857143","7.51","5.285","8292.674","0.02","4.85","30.6816","4.80484","25.99","0","SATNPRO1963","22.702","0.318","5"],
    [37975,"HCEP03730564","2024-10-27 21:00:00","11.9216","3.55025","25.758","2.292857142857143","7.51","5.527","8371.887","0.02","7.2","30.703","4.80782","25.77","0","SATNPRO1963","22.85","0.32008","5"],
    [37976,"HCEP03730564","2024-10-27 21:15:00","11.9237","3.55111","25.781","2.358571428571428","7.51","5.46","8354.646","0.01","23.67","30.7096","4.80872","26.51","0","SATNPRO1963","23.152","0.32428","5"],
    [37977,"HCEP03730564","2024-10-27 21:30:00","11.9243","3.55167","25.819","2.405714285714286","7.52","5.455","8356.954","0.01","4.34","30.7144","4.8094","27.04","0","SATNPRO1963","23.216","0.32518","5"],
    [37978,"HCEP03730564","2024-10-27 21:45:00","11.9268","3.55301","25.876","2.435714285714286","7.52","5.576","8391.788","0.02","8.68","30.7251","4.81087","27.39","0","SATNPRO1963","23.291999999999998","0.32624","5"],
    [37979,"HCEP03730564","2024-10-27 22:00:00","11.9287","3.55426","25.942","2.49","7.52","5.499","8380.927","0.02","15.94","30.7357","4.81234","28","0","SATNPRO1963","23.444","0.32838","5"],
    [37980,"HCEP03730564","2024-10-27 22:15:00","11.9291","3.55464","25.987","2.514285714285714","7.53","5.536","8387.387","0.04","10.85","30.7389","4.81279","28.27","0","SATNPRO1963","23.298000000000002","0.32634","5"],
    [37981,"HCEP03730564","2024-10-27 22:30:00","11.9295","3.5549","26.092","2.527142857142857","7.53","5.509","8385.255","0.02","6.14","30.7411","4.81309","28.41","0","SATNPRO1963","23.758","0.33278","5"],
    [37982,"HCEP03730564","2024-10-27 22:45:00","11.9296","3.55499","26.189","2.538571428571429","7.53","5.457","8356.577","0.01","19.29","30.7418","4.8132","28.55","0","SATNPRO1963","23.774","0.333","5"],
    [37983,"HCEP03730564","2024-10-27 23:00:00","11.93","3.55509","26.231","2.547142857142857","7.53","5.497","8357.377","0.02","3.07","30.7424","4.81329","28.65","0","SATNPRO1963","23.742","0.33252","5"],
    [37984,"HCEP03730564","2024-10-27 23:15:00","11.9303","3.55519","26.276","2.547142857142857","7.53","5.509","8335.535","0.02","15.03","30.7431","4.81338","28.64","0","SATNPRO1963","23.674","0.33152","5"],
    [37985,"HCEP03730564","2024-10-27 23:30:00","11.9308","3.55536","26.383","2.551428571428572","7.53","5.497","8352.307","0.02","11.88","30.7443","4.81354","28.69","0","SATNPRO1963","23.508","0.32926","5"],
    [37986,"HCEP03730564","2024-10-27 23:45:00","11.931","3.55539","26.463","2.565714285714286","7.54","5.489","8345.524","0.01","2.17","30.7444","4.81356","28.85","0","SATNPRO1963","23.79","0.3332","5"],
    [37987,"HCEP03730564","2024-10-28 00:00:00","11.9302","3.55503","26.522","2.578571428571429","7.53","5.475","8371.226","0.01","8.12","30.7415","4.81317","29","0","SATNPRO1963","23.62","0.33084","5"],
    [37988,"HCEP03730564","2024-10-28 00:15:00","11.93","3.55492","26.607","2.557142857142857","7.53","5.498","8357.323","0.01","6.86","30.7407","4.81306","28.75","0","SATNPRO1963","23.476","0.32886","5"],
    [37989,"HCEP03730564","2024-10-28 00:30:00","11.9302","3.55526","26.722","2.53","7.54","5.494","8355.794","0.01","4.34","30.7436","4.81348","28.45","0","SATNPRO1963","23.64","0.33108","5"],
    [37990,"HCEP03730564","2024-10-28 00:45:00","11.93","3.55512","26.805","2.534285714285714","7.54","5.52","8359.089","0.01","13.55","30.7424","4.81331","28.5","0","SATNPRO1963","23.454","0.32846","5"],
    [37991,"HCEP03730564","2024-10-28 01:00:00","11.9282","3.55452","26.877","2.51","7.53","5.429","8321.505","0.01","10.41","30.7382","4.81275","28.22","0","SATNPRO1963","23.292","0.32624","5"],
    [37992,"HCEP03730564","2024-10-28 01:15:00","11.9289","3.55456","26.944","2.484285714285714","7.53","5.482","8325.103","0.01","0","30.738","4.81271","27.93","0","SATNPRO1963","23.652","0.3313","5"],
    [37993,"HCEP03730564","2024-10-28 01:30:00","11.9278","3.55418","27.004","2.481428571428572","7.53","5.466","8349.034","0.01","9.7","30.7351","4.81233","27.9","0","SATNPRO1963","23.152","0.3243","5"],
    [37994,"HCEP03730564","2024-10-28 01:45:00","11.9278","3.55435","27.037","2.454285714285714","7.52","5.469","8332.183","0.01","11.06","30.7368","4.81257","27.59","0","SATNPRO1963","23.3","0.32636","5"],
    [37995,"HCEP03730564","2024-10-28 02:00:00","11.9273","3.55394","27.054","2.448571428571428","7.52","5.492","8339.979","0.01","0","30.7332","4.81207","27.54","0","SATNPRO1963","23.114","0.32376","5"],
    [37996,"HCEP03730564","2024-10-28 02:15:00","11.9285","3.55426","27.057","2.518571428571429","7.52","5.477","8355.37","0.01","9.94","30.7353","4.81235","28.32","0","SATNPRO1963","23.894","0.33468","5"],
    [37997,"HCEP03730564","2024-10-28 02:30:00","11.9283","3.55141","27.045","2.605714285714286","7.53","5.446","8347.503","0.01","11.27","30.7081","4.80851","29.3","0","SATNPRO1963","24.332","0.34082","5"],
    [37998,"HCEP03730564","2024-10-28 02:45:00","11.9245","3.55094","27.05","2.575714285714286","7.53","5.496","8352.758","0.01","3.76","30.7067","4.80838","28.95","0","SATNPRO1963","23.029999999999998","0.32256","5"],
    [37999,"HCEP03730564","2024-10-28 03:00:00","11.9201","3.54865","27.014","2.421428571428572","7.52","5.556","8336.037","0.01","14.06","30.6884","4.80584","27.21","0","SATNPRO1963","23.054","0.32292","5"],
    [38000,"HCEP03730564","2024-10-28 03:15:00","11.9222","3.54809","26.964","2.388571428571428","7.52","5.543","8349.082","0.02","16.81","30.6813","4.80482","26.85","0","SATNPRO1963","23.726","0.33234","5"],
    [38001,"HCEP03730564","2024-10-28 03:30:00","11.9239","3.55061","26.912","2.437142857142857","7.52","5.557","8340.083","0.02","7.52","30.7042","4.80802","27.4","0","SATNPRO1963","23.483999999999998","0.32892","5"],
    [38002,"HCEP03730564","2024-10-28 03:45:00","11.9233","3.55065","26.849","2.398571428571429","7.52","5.531","8355.288","0.02","15.34","30.705","4.80814","26.97","0","SATNPRO1963","23.048","0.32282","5"],
    [38003,"HCEP03730564","2024-10-28 04:00:00","11.9227","3.54982","26.779","2.378571428571429","7.52","5.516","8294.28","0.01","20.58","30.6976","4.80709","26.74","0","SATNPRO1963","23.172","0.3246","5"],
    [38004,"HCEP03730564","2024-10-28 04:15:00","11.9232","3.55029","26.689","2.378571428571429","7.52","5.575","8321.953","0.01","12.08","30.7017","4.80766","26.74","0","SATNPRO1963","23.098","0.32354","5"],
    [38005,"HCEP03730564","2024-10-28 04:30:00","11.9226","3.5495","26.607","2.381428571428572","7.52","5.618","8368.018","0.02","29.03","30.6946","4.80667","26.76","0","SATNPRO1963","23.49","0.32898","5"],
    [38006,"HCEP03730564","2024-10-28 04:45:00","11.9235","3.55036","26.518","2.387142857142858","7.52","5.591","8396.762","0.01","17.76","30.7023","4.80773","26.84","0","SATNPRO1963","23.192","0.32488","5"],
    [38007,"HCEP03730564","2024-10-28 05:00:00","11.9244","3.55112","26.434","2.395714285714286","7.52","5.613","8422.989","0.01","0","30.7088","4.80864","26.93","0","SATNPRO1963","23.274","0.32596","5"],
    [38008,"HCEP03730564","2024-10-28 05:15:00","11.924","3.55062","26.335","2.407142857142858","7.52","5.664","8419.729","0.02","32.18","30.7044","4.80801","27.06","0","SATNPRO1963","23.36","0.32722","5"],
    [38009,"HCEP03730564","2024-10-28 05:30:00","11.9245","3.55124","26.217","2.408571428571428","7.52","5.62","7961.927","0.04","59.7","30.71","4.80878","27.08","0","SATNPRO1963","23.834","0.33382","5"],
    [38010,"HCEP03730564","2024-10-28 05:45:00","11.9259","3.55238","26.115","2.412857142857143","7.52","5.658","7973.388","0.01","13.38","30.7198","4.81014","27.13","0","SATNPRO1963","23.208000000000002","0.32508","5"],
    [38011,"HCEP03730564","2024-10-28 06:00:00","11.9268","3.55294","26.019","2.421428571428572","7.53","5.635","8422.636","0.06","21.48","30.7245","4.81079","27.22","0","SATNPRO1963","23.232","0.32536","5"],
    [38012,"HCEP03730564","2024-10-28 06:15:00","11.9275","3.55407","25.925","2.421428571428572","7.52","5.532","8354.364","0.02","13.89","30.7348","4.81224","27.23","0","SATNPRO1963","22.886","0.32052","5"],
    [38013,"HCEP03730564","2024-10-28 06:30:00","11.9276","3.55482","25.831","2.39","7.52","5.607","8217.374","0.01","17.49","30.7419","4.81322","26.87","0","SATNPRO1963","22.587999999999997","0.3164","5"],
    [38014,"HCEP03730564","2024-10-28 06:45:00","11.928","3.55553","25.732","2.348571428571428","7.52","5.075","8310.552","0.01","19.77","30.7485","4.81414","26.4","0","SATNPRO1963","22.734","0.31844","5"],
    [38015,"HCEP03730564","2024-10-28 07:00:00","11.9287","3.55593","25.636","2.348571428571428","7.51","5.542","8180.738","0.02","36.31","30.7518","4.81459","26.41","0","SATNPRO1963","22.866","0.32026","5"],
    [38016,"HCEP03730564","2024-10-28 07:15:00","11.9293","3.55627","25.557","2.36","7.51","5.595","8123.099","0.01","0","30.7546","4.81498","26.54","0","SATNPRO1963","22.988","0.322","5"],
    [38017,"HCEP03730564","2024-10-28 07:30:00","11.9294","3.55634","25.501","2.384285714285714","7.51","5.164","8221.035","0.02","19.41","30.7552","4.81506","26.81","0","SATNPRO1963","23.002","0.32218","5"],
    [38018,"HCEP03730564","2024-10-28 07:45:00","11.9295","3.55639","25.482","2.402857142857143","7.51","5.613","8078.578","0.02","18.79","30.7555","4.8151","27.02","0","SATNPRO1963","23.278","0.32606","5"],
    [38019,"HCEP03730564","2024-10-28 08:00:00","11.93","3.55643","25.455","2.398571428571429","7.52","5.658","7970.362","0.01","8.12","30.7556","4.8151","26.98","0","SATNPRO1963","23.024","0.32248","5"],
    [38020,"HCEP03730564","2024-10-28 08:15:00","11.9301","3.55643","25.462","2.425714285714286","7.52","5.091","8176.157","0.01","15.8","30.7555","4.81508","27.28","0","SATNPRO1963","23.446","0.32842","5"],
    [38021,"HCEP03730564","2024-10-28 08:30:00","11.9306","3.55649","25.503","2.435714285714286","7.52","5.627","7942.21","0.02","88.06","30.7556","4.8151","27.39","0","SATNPRO1963","23.378","0.3274","5"],
    [38022,"HCEP03730564","2024-10-28 08:45:00","11.9308","3.55666","25.537","2.45","7.52","5.631","8052.162","0.01","26.04","30.7571","4.81531","27.55","0","SATNPRO1963","23.291999999999998","0.32622","5"],
    [38023,"HCEP03730564","2024-10-28 09:00:00","11.9309","3.55676","25.571","2.447142857142858","7.52","5.111","8176.237","0.02","11.48","30.758","4.81543","27.53","0","SATNPRO1963","23.526","0.3295","5"],
    [38024,"HCEP03730564","2024-10-28 09:15:00","11.9311","3.55672","25.64","2.445714285714286","7.53","5.563","7827.129","0.01","29.19","30.7574","4.81535","27.5","0","SATNPRO1963","23.568","0.33008","5"],
    [38025,"HCEP03730564","2024-10-28 09:30:00","11.9308","3.55657","25.76","2.421428571428572","7.52","5.55","7970.254","0.01","12.84","30.7561","4.81518","27.23","0","SATNPRO1963","23.502","0.32916","5"],
    [38026,"HCEP03730564","2024-10-28 09:45:00","11.9306","3.55644","25.854","2.404285714285714","7.52","5.23","8319.037","0.05","42.3","30.7551","4.81504","27.03","0","SATNPRO1963","23.168","0.3245","5"],
    [38027,"HCEP03730564","2024-10-28 10:00:00","11.9302","3.55615","25.963","2.392857142857143","7.51","5.556","8357.346","0.02","15.03","30.7525","4.81469","26.91","0","SATNPRO1963","23.306","0.32642","5"],
    [38028,"HCEP03730564","2024-10-28 10:15:00","11.9298","3.55605","26.046","2.331428571428571","7.52","5.555","8352.098","0.01","3.76","30.7518","4.8146","26.22","0","SATNPRO1963","23.018","0.32246","5"],
    [38029,"HCEP03730564","2024-10-28 10:30:00","11.9296","3.55609","26.162","2.352857142857143","7.51","5.252","8200.314","0.01","26.4","30.7523","4.81468","26.46","0","SATNPRO1963","23.118","0.3238","5"],
    [38030,"HCEP03730564","2024-10-28 10:45:00","11.9291","3.55578","26.306","2.337142857142857","7.52","5.437","8060.331","0.05","50.84","30.7497","4.81433","26.28","0","SATNPRO1963","22.888","0.32062","5"],
    [38031,"HCEP03730564","2024-10-28 11:00:00","11.9278","3.55488","26.444","2.305714285714286","7.51","5.408","8017.882","0.04","35.19","30.7421","4.81328","25.92","0","SATNPRO1963","22.736","0.31844","5"],
    [38032,"HCEP03730564","2024-10-28 11:15:00","11.9262","3.55399","26.579","2.262857142857143","7.51","5.067","8151.196","0.02","15.34","30.7348","4.81229","25.44","0","SATNPRO1963","22.7","0.31796","5"],
    [38033,"HCEP03730564","2024-10-28 11:30:00","11.9255","3.55303","26.732","2.261428571428572","7.51","5.459","8036.182","0.03","24.36","30.7261","4.81107","25.42","0","SATNPRO1963","22.664","0.31744","5"],
    [38034,"HCEP03730564","2024-10-28 11:45:00","11.9239","3.55151","26.879","2.224285714285714","7.51","5.392","7957.958","0.01","7.52","30.7127","4.80922","25.01","0","SATNPRO1963","22.534","0.3156","5"],
    [38035,"HCEP03730564","2024-10-28 12:00:00","11.921","3.54909","27.083","2.192857142857143","7.5","5.163","8260.228","0.04","36.18","30.6919","4.80634","24.65","0","SATNPRO1963","22.524","0.31544","5"],
    [38036,"HCEP03730564","2024-10-28 12:15:00","11.9203","3.54922","27.26","2.165714285714286","7.49","5.342","8087.406","0.02","25.86","30.6936","4.80659","24.34","0","SATNPRO1963","22.286","0.31214","5"],
    [38037,"HCEP03730564","2024-10-28 12:30:00","11.9197","3.54886","27.4","2.114285714285714","7.5","5.383","8097.476","0.01","2.17","30.6905","4.80618","23.76","0","SATNPRO1963","22.418","0.31398","5"],
    [38038,"HCEP03730564","2024-10-28 12:45:00","11.9198","3.54882","27.56","2.1","7.49","5.325","8253.012","0.02","14.39","30.6901","4.80613","23.6","0","SATNPRO1963","22.388","0.31358","5"],
    [38039,"HCEP03730564","2024-10-28 13:00:00","11.9198","3.54865","27.691","2.11","7.49","5.368","8149.959","0.01","30.69","30.6884","4.80589","23.72","0","SATNPRO1963","22.412","0.31392","5"],
    [38040,"HCEP03730564","2024-10-28 13:15:00","11.9184","3.54833","27.765","2.09","7.49","5.389","8155.088","0.01","0","30.6864","4.80563","23.49","0","SATNPRO1963","22.346","0.31298","5"],
    [38041,"HCEP03730564","2024-10-28 13:30:00","11.9178","3.54805","27.807","2.042857142857143","7.49","5.481","8342.031","0.02","18.54","30.6842","4.80534","22.96","0","SATNPRO1963","22.041999999999998","0.30876","5"],
    [38042,"HCEP03730564","2024-10-28 13:45:00","11.9175","3.54771","27.853","2.001428571428571","7.49","5.491","8315.34","0.02","19.53","30.6812","4.80492","22.49","0","SATNPRO1963","21.808","0.3055","5"],
    [38043,"HCEP03730564","2024-10-28 14:00:00","11.9171","3.54768","27.886","1.975714285714286","7.49","5.56","8379.901","0.01","11.06","30.6812","4.80493","22.2","0","SATNPRO1963","21.836","0.30584","5"],
    [38044,"HCEP03730564","2024-10-28 14:15:00","11.9184","3.54798","27.921","1.997142857142857","7.49","5.423","8321.922","0.02","20.35","30.683","4.80517","22.44","0","SATNPRO1963","22.082","0.30932","5"],
    [38045,"HCEP03730564","2024-10-28 14:30:00","11.9214","3.54918","27.942","2.055714285714286","7.49","5.482","8367.838","0.03","25.49","30.692","4.8064","23.11","0","SATNPRO1963","22.669999999999998","0.3175","5"],
    [38046,"HCEP03730564","2024-10-28 14:45:00","11.9247","3.55045","27.935","2.144285714285714","7.49","5.509","8397.796","0.01","7.82","30.7016","4.8077","24.11","0","SATNPRO1963","22.914","0.32094","5"],
    [38047,"HCEP03730564","2024-10-28 15:00:00","11.926","3.55166","27.951","2.257142857142857","7.5","5.391","8314.207","0.01","13.55","30.712","4.80915","25.37","0","SATNPRO1963","23.54","0.3297","5"],
    [38048,"HCEP03730564","2024-10-28 15:15:00","11.9272","3.55248","27.919","2.32","7.5","5.387","8158.227","0.01","38.88","30.719","4.81011","26.08","0","SATNPRO1963","23.504","0.32924","5"],
    [38049,"HCEP03730564","2024-10-28 15:30:00","11.9273","3.55299","27.881","2.337142857142857","7.51","5.369","8145.396","0.01","4.85","30.7239","4.8108","26.27","0","SATNPRO1963","23.41","0.32796","5"],
    [38050,"HCEP03730564","2024-10-28 15:45:00","11.9281","3.55377","27.825","2.341428571428572","7.51","5.309","8278.348","0.01","9.46","30.7307","4.81174","26.33","0","SATNPRO1963","23.522000000000002","0.32946","5"],
    [38051,"HCEP03730564","2024-10-28 16:00:00","11.9304","3.55495","27.748","2.361428571428572","7.51","5.335","8176.895","0.01","24.36","30.7401","4.81304","26.55","0","SATNPRO1963","23.964","0.33566","5"],
    [38052,"HCEP03730564","2024-10-28 16:15:00","11.9323","3.55631","27.656","2.412857142857143","7.52","5.341","8169.643","0.01","0","30.7516","4.81463","27.14","0","SATNPRO1963","23.918","0.33502","5"],
    [38053,"HCEP03730564","2024-10-28 16:30:00","11.9327","3.55718","27.561","2.465714285714286","7.52","5.306","8291.085","0.01","6.14","30.7597","4.81575","27.73","0","SATNPRO1963","23.95","0.33544","5"],
    [38054,"HCEP03730564","2024-10-28 16:45:00","11.9335","3.55816","27.447","2.461428571428572","7.53","5.324","8168.856","0.01","28.29","30.7685","4.81698","27.68","0","SATNPRO1963","23.854","0.33412","5"],
    [38055,"HCEP03730564","2024-10-28 17:00:00","11.934","3.5586","27.322","2.478571428571429","7.53","5.346","8172.545","0.01","0","30.7724","4.81751","27.87","0","SATNPRO1963","23.972","0.33578","5"],
    [38056,"HCEP03730564","2024-10-28 17:15:00","11.9334","3.55874","27.205","2.46","7.52","5.302","8241.369","0.01","13.2","30.7743","4.81779","27.67","0","SATNPRO1963","23.52","0.32942","5"],
    [38057,"HCEP03730564","2024-10-28 17:30:00","11.9322","3.55822","27.068","2.414285714285714","7.52","5.32","8197.428","0.01","10.41","30.7703","4.81723","27.16","0","SATNPRO1963","23.13","0.32398","5"],
    [38058,"HCEP03730564","2024-10-28 17:45:00","11.9317","3.55837","26.919","2.362857142857143","7.52","5.35","8204.42","0.01","0","30.7722","4.8175","26.58","0","SATNPRO1963","23.02","0.32244","5"],
    [38059,"HCEP03730564","2024-10-28 18:00:00","11.9331","3.55921","26.768","2.351428571428571","7.52","5.374","8279.91","0.01","9.7","30.7792","4.81846","26.44","0","SATNPRO1963","23.438","0.32832","5"],
    [38060,"HCEP03730564","2024-10-28 18:15:00","11.9327","3.55893","26.581","2.378571428571429","7.51","5.434","8267.458","0.01","12.27","30.7769","4.81813","26.76","0","SATNPRO1963","23.276","0.326","5"],
    [38061,"HCEP03730564","2024-10-28 18:30:00","11.9323","3.55862","26.403","2.382857142857143","7.51","5.499","8343.49","0.01","4.85","30.7743","4.81776","26.8","0","SATNPRO1963","23.314","0.32658","5"],
    [38062,"HCEP03730564","2024-10-28 18:45:00","11.9317","3.55796","26.227","2.372857142857143","7.51","5.467","8357.321","0.01","11.06","30.7685","4.81695","26.69","0","SATNPRO1963","23.266000000000002","0.3259","5"],
    [38063,"HCEP03730564","2024-10-28 19:00:00","11.9312","3.55769","26.064","2.351428571428571","7.51","5.489","8426.226","0.01","0","30.7665","4.81666","26.44","0","SATNPRO1963","22.988","0.32196","5"],
    [38064,"HCEP03730564","2024-10-28 19:15:00","11.9312","3.55766","25.9","2.335714285714286","7.51","5.513","8430.802","0.01","0","30.7662","4.81661","26.27","0","SATNPRO1963","23.238","0.32548","5"],
    [38065,"HCEP03730564","2024-10-28 19:30:00","11.9312","3.55761","25.734","2.324285714285714","7.52","5.486","8399.54","0.04","31.37","30.7659","4.81655","26.14","0","SATNPRO1963","23.002","0.32218","5"],
    [38066,"HCEP03730564","2024-10-28 19:45:00","11.9314","3.55778","25.592","2.315714285714286","7.52","5.527","8403.484","0.01","7.52","30.7673","4.81674","26.04","0","SATNPRO1963","23.102","0.32358","5"],
    [38067,"HCEP03730564","2024-10-28 20:00:00","11.9312","3.55776","25.468","2.312857142857143","7.52","5.582","8270.772","0.01","5.74","30.7673","4.81673","26.02","0","SATNPRO1963","23.292","0.32628","5"],
    [38068,"HCEP03730564","2024-10-28 20:15:00","11.9317","3.55784","25.38","2.317142857142857","7.51","5.502","8385.937","0.02","13.72","30.7678","4.81679","26.06","0","SATNPRO1963","23.516000000000002","0.32936","5"],
    [38069,"HCEP03730564","2024-10-28 20:30:00","11.932","3.55831","25.318","2.324285714285714","7.52","5.528","8116.275","0","5.74","30.772","4.81738","26.14","0","SATNPRO1963","23.168","0.3245","5"],
    [38070,"HCEP03730564","2024-10-28 20:45:00","11.9321","3.55876","25.283","2.325714285714286","7.52","5.599","7754.227","0.01","0","30.7763","4.81797","26.16","0","SATNPRO1963","23.304000000000002","0.3264","5"],
    [38071,"HCEP03730564","2024-10-28 21:00:00","11.9328","3.56","25.285","2.328571428571428","7.52","5.468","8064.366","0.02","28.95","30.7876","4.81957","26.19","0","SATNPRO1963","23.744","0.33258","5"],
    [38072,"HCEP03730564","2024-10-28 21:15:00","11.9337","3.56072","25.299","2.322857142857143","7.52","5.515","8200.509","0.01","14.56","30.7938","4.82042","26.14","0","SATNPRO1963","23.68","0.3317","5"],
    [38073,"HCEP03730564","2024-10-28 21:30:00","11.9338","3.56067","25.331","2.328571428571428","7.52","5.585","7773.237","0.01","13.38","30.7932","4.82034","26.2","0","SATNPRO1963","23.462","0.32866","5"],
    [38074,"HCEP03730564","2024-10-28 21:45:00","11.9338","3.56057","25.372","2.328571428571428","7.52","5.361","7102.771","0.08","418.29","30.7922","4.8202","26.2","0","SATNPRO1963","23.206","0.32504","5"],
    [38075,"HCEP03730564","2024-10-28 22:00:00","11.9336","3.5603","25.425","2.322857142857143","7.52","5.526","8110.031","0.01","17.89","30.7897","4.81986","26.14","0","SATNPRO1963","23.233999999999998","0.32542","5"],
    [38076,"HCEP03730564","2024-10-28 22:15:00","11.9335","3.55994","25.482","2.322857142857143","7.52","5.529","7078.438","0.03","322.58","30.7864","4.81939","26.12","0","SATNPRO1963","23.38","0.32746","5"],
    [38077,"HCEP03730564","2024-10-28 22:30:00","11.9328","3.55941","25.549","2.317142857142857","7.51","4.836","6166.519","0.06","171.8","30.7818","4.81877","26.06","0","SATNPRO1963","23.36","0.32718","5"],
    [38078,"HCEP03730564","2024-10-28 22:45:00","11.9327","3.55878","25.62","2.317142857142857","7.51","5.498","8046.312","0.27","473.11","30.7758","4.81792","26.06","0","SATNPRO1963","23.398","0.32776","5"],
    [38079,"HCEP03730564","2024-10-28 23:00:00","11.932","3.55842","25.715","2.308571428571429","7.51","5.569","8066.274","0.01","8.95","30.7729","4.81753","25.96","0","SATNPRO1963","23.138","0.32408","5"],
    [38080,"HCEP03730564","2024-10-28 23:15:00","11.9314","3.55807","25.853","2.295714285714286","7.51","5.297","8231.925","0.01","8.12","30.77","4.81713","25.82","0","SATNPRO1963","23.258","0.32574","5"],
    [38081,"HCEP03730564","2024-10-28 23:30:00","11.9317","3.55791","25.96","2.287142857142857","7.51","5.264","8040.014","0.02","6.86","30.7682","4.81689","25.72","0","SATNPRO1963","23.304","0.32642","5"],
    [38082,"HCEP03730564","2024-10-28 23:45:00","11.9316","3.5583","26.08","2.278571428571428","7.52","5.264","8026.22","0.01","0","30.7719","4.81741","25.63","0","SATNPRO1963","23.088","0.32338","5"],
    [38083,"HCEP03730564","2024-10-29 00:00:00","11.9319","3.55856","26.178","2.275714285714286","7.51","5.296","8191.262","0.01","8.4","30.7741","4.81772","25.6","0","SATNPRO1963","23.576","0.33024","5"],
    [38084,"HCEP03730564","2024-10-29 00:15:00","11.9333","3.56035","26.28","2.294285714285714","7.51","5.252","8087.653","0.01","16.38","30.7901","4.81997","25.81","0","SATNPRO1963","23.446","0.32842","5"],
    [38085,"HCEP03730564","2024-10-29 00:30:00","11.9335","3.56081","26.399","2.315714285714286","7.51","5.264","8094.487","0.01","4.34","30.7943","4.82056","26.05","0","SATNPRO1963","23.534","0.3296","5"],
    [38086,"HCEP03730564","2024-10-29 00:45:00","11.9333","3.56079","26.504","2.344285714285714","7.52","5.316","8209.254","0.01","5.31","30.7944","4.82058","26.38","0","SATNPRO1963","23.358","0.32718","5"],
    [38087,"HCEP03730564","2024-10-29 01:00:00","11.9331","3.56019","26.598","2.362857142857143","7.51","5.284","8108.062","0.01","11.27","30.7886","4.81978","26.59","0","SATNPRO1963","23.29","0.3262","5"],
    [38088,"HCEP03730564","2024-10-29 01:15:00","11.9328","3.56004","26.721","2.347142857142857","7.52","5.296","8107.21","0.01","0","30.7874","4.81962","26.41","0","SATNPRO1963","23.106","0.32364","5"],
    [38089,"HCEP03730564","2024-10-29 01:30:00","11.9327","3.55977","26.833","2.321428571428572","7.52","5.348","8172.303","0.01","7.52","30.7848","4.81926","26.11","0","SATNPRO1963","22.98","0.32188","5"],
    [38090,"HCEP03730564","2024-10-29 01:45:00","11.9326","3.55975","26.951","2.294285714285714","7.52","5.278","8076.647","0.01","28.95","30.7847","4.81925","25.81","0","SATNPRO1963","23.078","0.32324","5"],
    [38091,"HCEP03730564","2024-10-29 02:00:00","11.9327","3.55962","27.031","2.292857142857143","7.51","5.31","8095.634","0.01","4.34","30.7834","4.81906","25.8","0","SATNPRO1963","23.002","0.32218","5"],
    [38092,"HCEP03730564","2024-10-29 02:15:00","11.9327","3.55894","27.1","2.301428571428572","7.51","5.354","8205.718","0.01","9.46","30.7768","4.81815","25.88","0","SATNPRO1963","23.116","0.32376","5"],
    [38093,"HCEP03730564","2024-10-29 02:30:00","11.932","3.55859","27.152","2.31","7.51","5.312","8098.725","0.01","16.09","30.774","4.81776","25.98","0","SATNPRO1963","23.816","0.3336","5"],
    [38094,"HCEP03730564","2024-10-29 02:45:00","11.932","3.55817","27.193","2.301428571428572","7.51","5.324","8102.677","0.01","0","30.7699","4.81718","25.88","0","SATNPRO1963","23.092","0.32342","5"],
    [38095,"HCEP03730564","2024-10-29 03:00:00","11.9316","3.55793","27.214","2.295714285714286","7.51","5.458","8226.061","0.01","6.86","30.768","4.81692","25.82","0","SATNPRO1963","23.256","0.32574","5"],
    [38096,"HCEP03730564","2024-10-29 03:15:00","11.9322","3.55868","27.202","2.294285714285714","7.51","5.344","8207.605","0","8.95","30.7746","4.81785","25.8","0","SATNPRO1963","23.44","0.32832","5"],
    [38097,"HCEP03730564","2024-10-29 03:30:00","11.9325","3.55904","27.208","2.287142857142857","7.51","5.31","8202.933","0.01","0","30.7778","4.8183","25.72","0","SATNPRO1963","23.508","0.32926","5"],
    [38098,"HCEP03730564","2024-10-29 03:45:00","11.9316","3.55847","27.173","2.281428571428572","7.51","5.379","8234.684","0.01","12.08","30.7731","4.81764","25.66","0","SATNPRO1963","23.18","0.32466","5"],
    [38099,"HCEP03730564","2024-10-29 04:00:00","11.9321","3.55851","27.125","2.274285714285714","7.51","5.336","8170.461","0.01","17.89","30.7732","4.81764","25.58","0","SATNPRO1963","23.224","0.32528","5"],
    [38100,"HCEP03730564","2024-10-29 04:15:00","11.9328","3.5592","27.074","2.274285714285714","7.51","5.332","8168.523","0.01","7.82","30.7792","4.81848","25.59","0","SATNPRO1963","23.102","0.32358","5"],
    [38101,"HCEP03730564","2024-10-29 04:30:00","11.9323","3.5595","27.012","2.268571428571429","7.51","5.37","8172.649","0.01","6.86","30.7825","4.81895","25.52","0","SATNPRO1963","22.598","0.3165","5"],
    [38102,"HCEP03730564","2024-10-29 04:45:00","11.9325","3.55899","26.946","2.262857142857143","7.51","5.314","8003.317","0.01","17.49","30.7775","4.81823","25.45","0","SATNPRO1963","23.3","0.32634","5"],
    [38103,"HCEP03730564","2024-10-29 05:00:00","11.9329","3.55908","26.878","2.264285714285714","7.52","5.312","8002.277","0.01","2.17","30.7781","4.81832","25.46","0","SATNPRO1963","23.412","0.32794","5"],
    [38104,"HCEP03730564","2024-10-29 05:15:00","11.9321","3.55895","26.807","2.261428571428572","7.51","5.346","8134.421","0.01","7.2","30.7775","4.81823","25.44","0","SATNPRO1963","23.394","0.32768","5"],
    [38105,"HCEP03730564","2024-10-29 05:30:00","11.9323","3.559","26.715","2.272857142857143","7.51","5.287","8037.165","0.02","30.76","30.7778","4.81827","25.57","0","SATNPRO1963","23.102","0.32356","5"],
    [38106,"HCEP03730564","2024-10-29 05:45:00","11.9321","3.5594","26.638","2.271428571428572","7.52","5.293","8036.994","0.01","0","30.7819","4.81884","25.54","0","SATNPRO1963","23.064","0.32308","5"],
    [38107,"HCEP03730564","2024-10-29 06:00:00","11.9319","3.55941","26.544","2.234285714285714","7.52","5.332","8206.279","0.01","3.07","30.7822","4.81889","25.13","0","SATNPRO1963","22.752","0.31872","5"],
    [38108,"HCEP03730564","2024-10-29 06:15:00","11.9316","3.5592","26.44","2.222857142857143","7.51","5.302","8043.183","0.01","26.04","30.7804","4.81863","24.99","0","SATNPRO1963","22.986","0.3219","5"],
    [38109,"HCEP03730564","2024-10-29 06:30:00","11.9314","3.55898","26.348","2.214285714285714","7.51","5.304","8047.042","0.01","4.34","30.7786","4.81837","24.9","0","SATNPRO1963","22.674","0.31752","5"],
    [38110,"HCEP03730564","2024-10-29 06:45:00","11.9311","3.55891","26.241","2.198571428571428","7.51","5.347","8170.413","0.01","8.95","30.7782","4.81832","24.73","0","SATNPRO1963","22.948","0.32144","5"],
    [38111,"HCEP03730564","2024-10-29 07:00:00","11.9314","3.55878","26.133","2.197142857142857","7.51","5.281","7986.116","0.02","37.33","30.7767","4.81809","24.7","0","SATNPRO1963","22.798000000000002","0.31932","5"],
    [38112,"HCEP03730564","2024-10-29 07:15:00","11.9313","3.55882","26.014","2.197142857142857","7.51","5.306","7991.866","0.01","3.76","30.7772","4.81816","24.71","0","SATNPRO1963","22.746","0.3186","5"],
    [38113,"HCEP03730564","2024-10-29 07:30:00","11.9317","3.55874","25.9","2.185714285714286","7.51","5.393","8199.286","0.01","10.41","30.7762","4.81801","24.58","0","SATNPRO1963","23.068","0.3231","5"],
    [38114,"HCEP03730564","2024-10-29 07:45:00","11.9317","3.55869","25.802","2.218571428571428","7.51","5.413","8100.514","0.02","14.39","30.7757","4.81793","24.95","0","SATNPRO1963","23.174","0.3246","5"],
    [38115,"HCEP03730564","2024-10-29 08:00:00","11.9306","3.5591","25.713","2.201428571428572","7.51","5.431","7959.19","0.01","10.63","30.7805","4.81862","24.75","0","SATNPRO1963","22.354","0.31312","5"],
    [38116,"HCEP03730564","2024-10-29 08:15:00","11.9314","3.55921","25.632","2.158571428571428","7.5","5.496","8251.795","0.04","36.69","30.781","4.81867","24.28","0","SATNPRO1963","22.662","0.3174","5"],
    [38117,"HCEP03730564","2024-10-29 08:30:00","11.931","3.56018","25.591","2.155714285714286","7.5","5.498","8331.07","0.01","14.56","30.7907","4.82004","24.25","0","SATNPRO1963","22.368000000000002","0.3133","5"],
    [38118,"HCEP03730564","2024-10-29 08:45:00","11.9315","3.56038","25.592","2.157142857142857","7.49","5.425","8209.999","0.01","0","30.7922","4.82025","24.26","0","SATNPRO1963","22.604","0.31664","5"],
    [38119,"HCEP03730564","2024-10-29 09:00:00","11.9309","3.5606","25.648","2.167142857142857","7.49","5.377","8282.294","0.01","8.95","30.7948","4.82063","24.38","0","SATNPRO1963","22.498","0.3151","5"],
    [38120,"HCEP03730564","2024-10-29 09:15:00","11.9312","3.5603","25.677","2.157142857142857","7.49","5.31","8165.808","0.02","15.03","30.7917","4.82018","24.26","0","SATNPRO1963","22.636","0.31708","5"],
    [38121,"HCEP03730564","2024-10-29 09:30:00","11.931","3.559","25.705","2.187142857142857","7.5","5.316","8166.609","0.01","4.85","30.7793","4.81844","24.6","0","SATNPRO1963","22.954","0.32152","5"],
    [38122,"HCEP03730564","2024-10-29 09:45:00","11.9306","3.55954","25.773","2.165714285714286","7.5","5.377","8256.275","0.01","6.86","30.7849","4.81924","24.36","0","SATNPRO1963","22.566","0.31608","5"],
    [38123,"HCEP03730564","2024-10-29 10:00:00","11.9298","3.55905","25.86","2.108571428571428","7.5","5.31","8110.885","0.01","15.5","30.7807","4.81867","23.71","0","SATNPRO1963","22.452","0.31446","5"],
    [38124,"HCEP03730564","2024-10-29 10:15:00","11.9289","3.55847","25.989","2.057142857142857","7.5","5.318","8115.715","0.01","2.17","30.7759","4.818","23.13","0","SATNPRO1963","22.432","0.3142","5"],
    [38125,"HCEP03730564","2024-10-29 10:30:00","11.9281","3.55716","26.092","2.052857142857143","7.49","5.329","8160.782","0.01","9.21","30.7639","4.81633","23.08","0","SATNPRO1963","22.323999999999998","0.31268","5"],
    [38126,"HCEP03730564","2024-10-29 10:45:00","11.9278","3.55599","26.177","2.051428571428572","7.49","5.281","8073.128","0.01","24.06","30.7529","4.81479","23.08","0","SATNPRO1963","22.414","0.31398","5"],
    [38127,"HCEP03730564","2024-10-29 11:00:00","11.9271","3.55502","26.252","2.035714285714286","7.48","5.303","8076.261","0.01","4.85","30.7441","4.81356","22.89","0","SATNPRO1963","22.47","0.31476","5"],
    [38128,"HCEP03730564","2024-10-29 11:15:00","11.9258","3.55427","26.44","2.027142857142857","7.48","5.327","8157.8","0.01","8.68","30.7379","4.81272","22.78","0","SATNPRO1963","22.244","0.31156","5"],
    [38129,"HCEP03730564","2024-10-29 11:30:00","11.9247","3.55372","26.593","1.978571428571429","7.48","5.264","8010.909","0.02","26.66","30.7335","4.81213","22.25","0","SATNPRO1963","22.154","0.31028","5"],
    [38130,"HCEP03730564","2024-10-29 11:45:00","11.9244","3.55325","26.707","1.95","7.48","5.295","8028.038","0.01","0","30.7291","4.81151","21.92","0","SATNPRO1963","22.034000000000002","0.3086","5"],
    [38131,"HCEP03730564","2024-10-29 12:00:00","11.924","3.5527","26.807","1.947142857142857","7.48","5.342","8132.742","0.01","11.27","30.7242","4.81083","21.9","0","SATNPRO1963","22.316","0.31258","5"],
    [38132,"HCEP03730564","2024-10-29 12:15:00","11.9241","3.55264","26.955","1.957142857142857","7.47","5.259","8035.193","0.02","25.49","30.7234","4.81073","21.99","0","SATNPRO1963","22.355999999999998","0.31314","5"],
    [38133,"HCEP03730564","2024-10-29 12:30:00","11.9245","3.55282","27.09","1.978571428571429","7.47","5.284","8050.33","0.01","0","30.7248","4.81093","22.24","0","SATNPRO1963","22.242","0.31154","5"],
    [38134,"HCEP03730564","2024-10-29 12:45:00","11.9255","3.55321","27.243","2.01","7.47","5.307","8136.74","0.01","6.86","30.7277","4.81133","22.59","0","SATNPRO1963","22.61","0.31672","5"],
    [38135,"HCEP03730564","2024-10-29 13:00:00","11.9284","3.55407","27.383","2.072857142857143","7.48","5.234","7971.043","0.03","34.31","30.7334","4.81211","23.31","0","SATNPRO1963","23.158","0.3244","5"],
    [38136,"HCEP03730564","2024-10-29 13:15:00","11.9302","3.55466","27.515","2.188571428571429","7.49","5.243","7980.622","0.01","0","30.7376","4.81267","24.61","0","SATNPRO1963","23.666","0.3315","5"],
    [38137,"HCEP03730564","2024-10-29 13:30:00","11.9291","3.55448","27.607","2.252857142857143","7.49","5.327","8148.003","0.01","10.18","30.7367","4.81258","25.33","0","SATNPRO1963","23.378","0.3274","5"],
    [38138,"HCEP03730564","2024-10-29 13:45:00","11.9306","3.55502","27.703","2.227142857142857","7.49","5.264","7976.867","0.01","18.54","30.7407","4.81312","25.04","0","SATNPRO1963","23.558","0.32996","5"],
    [38139,"HCEP03730564","2024-10-29 14:00:00","11.9306","3.55522","27.769","2.264285714285714","7.5","5.282","7986.19","0","3.76","30.7425","4.81337","25.46","0","SATNPRO1963","24.396","0.34172","5"],
    [38140,"HCEP03730564","2024-10-29 14:15:00","11.9321","3.5556","27.819","2.288571428571429","7.5","5.311","8130.132","0.01","7.82","30.745","4.8137","25.74","0","SATNPRO1963","24.056","0.33696","5"],
    [38141,"HCEP03730564","2024-10-29 14:30:00","11.9318","3.55555","27.852","2.32","7.5","5.264","7983.726","0.02","12.27","30.7447","4.81367","26.09","0","SATNPRO1963","23.784","0.33312","5"],
    [38142,"HCEP03730564","2024-10-29 14:45:00","11.9319","3.55557","27.867","2.315714285714286","7.51","5.268","7982.307","0.01","5.74","30.7448","4.81368","26.04","0","SATNPRO1963","23.938","0.3353","5"],
    [38143,"HCEP03730564","2024-10-29 15:00:00","11.9316","3.55555","27.848","2.312857142857143","7.51","5.301","8042.072","0.01","5.31","30.7449","4.8137","26.01","0","SATNPRO1963","23.89","0.33464","5"],
    [38144,"HCEP03730564","2024-10-29 15:15:00","11.9313","3.55538","27.837","2.301428571428572","7.51","5.249","7953.071","0.02","26.66","30.7435","4.81351","25.88","0","SATNPRO1963","23.982","0.33592","5"],
    [38145,"HCEP03730564","2024-10-29 15:30:00","11.9315","3.5553","27.778","2.287142857142857","7.51","5.264","7955.547","0.01","0","30.7426","4.81337","25.72","0","SATNPRO1963","23.906","0.33484","5"],
    [38146,"HCEP03730564","2024-10-29 15:45:00","11.9317","3.55534","27.749","2.288571428571429","7.5","5.307","8112.436","0.01","8.12","30.7428","4.81341","25.73","0","SATNPRO1963","23.986","0.33596","5"],
    [38147,"HCEP03730564","2024-10-29 16:00:00","11.932","3.55543","27.698","2.3","7.5","5.227","7972.717","0.02","17.36","30.7434","4.81348","25.87","0","SATNPRO1963","24.274","0.33998","5"],
    [38148,"HCEP03730564","2024-10-29 16:15:00","11.9319","3.55538","27.644","2.302857142857143","7.51","5.235","7986.966","0.01","4.34","30.7431","4.81343","25.89","0","SATNPRO1963","23.598","0.3305","5"],
    [38149,"HCEP03730564","2024-10-29 16:30:00","11.9316","3.55529","27.555","2.29","7.5","5.302","8030.122","0.01","9.94","30.7425","4.81335","25.76","0","SATNPRO1963","24.104","0.33764","5"],
    [38150,"HCEP03730564","2024-10-29 16:45:00","11.931","3.55511","27.444","2.275714285714286","7.5","5.26","7886.736","0.01","18.15","30.7413","4.81318","25.59","0","SATNPRO1963","23.704","0.33202","5"],
    [38151,"HCEP03730564","2024-10-29 17:00:00","11.9309","3.55502","27.318","2.261428571428572","7.5","5.28","7896.327","0.01","0","30.7405","4.81307","25.42","0","SATNPRO1963","23.75","0.33268","5"],
    [38152,"HCEP03730564","2024-10-29 17:15:00","11.9304","3.55475","27.176","2.254285714285714","7.5","5.326","8102.703","0.02","7.82","30.7384","4.81276","25.35","0","SATNPRO1963","23.7","0.33198","5"],
    [38153,"HCEP03730564","2024-10-29 17:30:00","11.9304","3.5547","27.015","2.248571428571429","7.5","5.294","7923.53","0.01","18.15","30.7379","4.81269","25.29","0","SATNPRO1963","23.666","0.33146","5"],
    [38154,"HCEP03730564","2024-10-29 17:45:00","11.9295","3.55439","26.817","2.234285714285714","7.51","5.28","7911.892","0.01","0","30.7358","4.8124","25.13","0","SATNPRO1963","23.606","0.33064","5"],
    [38155,"HCEP03730564","2024-10-29 18:00:00","11.9296","3.55386","26.649","2.232857142857143","7.5","5.29","7988.947","0.01","6.14","30.7308","4.81167","25.1","0","SATNPRO1963","23.808","0.33348","5"],
    [38156,"HCEP03730564","2024-10-29 18:15:00","11.9295","3.55448","26.453","2.238571428571428","7.51","5.279","7854.506","0.01","6.14","30.7369","4.81252","25.17","0","SATNPRO1963","23.47","0.32874","5"],
    [38157,"HCEP03730564","2024-10-29 18:30:00","11.9285","3.55358","26.276","2.185714285714286","7.5","5.28","7847.893","0.01","4.34","30.7291","4.81144","24.57","0","SATNPRO1963","23.548000000000002","0.32978","5"],
    [38158,"HCEP03730564","2024-10-29 18:45:00","11.9284","3.55383","26.107","2.171428571428572","7.5","5.273","8059.302","0.02","11.27","30.7317","4.81178","24.42","0","SATNPRO1963","23.426","0.32812","5"],
    [38159,"HCEP03730564","2024-10-29 19:00:00","11.9289","3.55383","25.926","2.182857142857143","7.5","5.243","7992.749","0.01","9.21","30.7313","4.81172","24.55","0","SATNPRO1963","23.364","0.32726","5"],
    [38160,"HCEP03730564","2024-10-29 19:15:00","11.9283","3.5535","25.731","2.207142857142857","7.5","5.255","7996.952","0.01","2.17","30.7287","4.81135","24.81","0","SATNPRO1963","23.54","0.32972","5"],
    [38161,"HCEP03730564","2024-10-29 19:30:00","11.9267","3.55301","25.547","2.174285714285714","7.5","5.295","8004.979","0.01","10.18","30.7254","4.81089","24.44","0","SATNPRO1963","23.19","0.3248","5"],
    [38162,"HCEP03730564","2024-10-29 19:45:00","11.9264","3.55331","25.403","2.11","7.49","5.279","7863.663","0.01","20.58","30.7286","4.81134","23.72","0","SATNPRO1963","22.876","0.32044","5"],
    [38163,"HCEP03730564","2024-10-29 20:00:00","11.9262","3.55331","25.29","2.065714285714286","7.49","5.279","7854.909","0","3.07","30.7289","4.81138","23.23","0","SATNPRO1963","22.516","0.31538","5"],
    [38164,"HCEP03730564","2024-10-29 20:15:00","11.9254","3.55372","25.175","2.015714285714286","7.49","5.305","8057.97","0.01","5.31","30.7334","4.81202","22.66","0","SATNPRO1963","22.374","0.31336","5"],
    [38165,"HCEP03730564","2024-10-29 20:30:00","11.9259","3.55494","25.052","1.967142857142857","7.48","5.268","7965.35","0.01","18.02","30.7448","4.81361","22.13","0","SATNPRO1963","22.49","0.315","5"],
    [38166,"HCEP03730564","2024-10-29 20:45:00","11.9266","3.55549","24.964","1.957142857142857","7.48","5.26","7967.229","0.01","6.14","30.7496","4.81428","22.01","0","SATNPRO1963","22.478","0.31482","5"],
    [38167,"HCEP03730564","2024-10-29 21:00:00","11.9273","3.55597","24.937","1.974285714285714","7.48","5.285","8086.936","0.01","8.68","30.7536","4.81482","22.19","0","SATNPRO1963","22.698","0.31794","5"],
    [38168,"HCEP03730564","2024-10-29 21:15:00","11.9272","3.55608","24.958","1.99","7.48","5.217","7935.597","0.01","19.16","30.7547","4.81498","22.38","0","SATNPRO1963","22.692","0.31788","5"],
    [38169,"HCEP03730564","2024-10-29 21:30:00","11.9272","3.55621","24.987","1.991428571428571","7.48","5.244","7948.125","0.01","0","30.7559","4.81516","22.39","0","SATNPRO1963","22.498","0.31514","5"],
    [38170,"HCEP03730564","2024-10-29 21:45:00","11.9277","3.55622","25.014","2.005714285714286","7.48","5.275","8092.379","0.01","7.82","30.7557","4.81512","22.55","0","SATNPRO1963","22.676","0.31766","5"],
    [38171,"HCEP03730564","2024-10-29 22:00:00","11.9284","3.55635","25.053","2.017142857142857","7.48","5.221","8015.623","0.02","18.41","30.7563","4.8152","22.68","0","SATNPRO1963","22.692","0.31784","5"],
    [38172,"HCEP03730564","2024-10-29 22:15:00","11.928","3.55627","25.109","2.025714285714286","7.48","5.251","8018.892","0.01","3.07","30.7558","4.81514","22.78","0","SATNPRO1963","22.698","0.31794","5"],
    [38173,"HCEP03730564","2024-10-29 22:30:00","11.9279","3.55619","25.193","2.035714285714286","7.48","5.271","8098.142","0.01","8.68","30.7551","4.81505","22.9","0","SATNPRO1963","22.884","0.32052","5"],
    [38174,"HCEP03730564","2024-10-29 22:45:00","11.9281","3.55605","25.283","2.044285714285714","7.48","5.189","7970.251","0.02","17.76","30.7535","4.81483","22.98","0","SATNPRO1963","22.950000000000003","0.32142","5"],
    [38175,"HCEP03730564","2024-10-29 23:00:00","11.9277","3.55593","25.369","2.044285714285714","7.48","5.201","7974.623","0","0","30.7527","4.81472","22.99","0","SATNPRO1963","22.682","0.31772","5"],
    [38176,"HCEP03730564","2024-10-29 23:15:00","11.9284","3.55652","25.49","2.025714285714286","7.48","5.223","8049.313","0.01","7.52","30.7577","4.81542","22.78","0","SATNPRO1963","22.652","0.31728","5"],
    [38177,"HCEP03730564","2024-10-29 23:30:00","11.9289","3.55714","25.634","2.098571428571429","7.49","5.187","7898.052","0.02","37.27","30.7632","4.8162","23.6","0","SATNPRO1963","23.202","0.32496","5"],
    [38178,"HCEP03730564","2024-10-29 23:45:00","11.929","3.55513","25.75","2.177142857142857","7.49","5.199","7898.579","0.01","4.34","30.7438","4.81347","24.48","0","SATNPRO1963","24.048","0.33682","5"],
    [38179,"HCEP03730564","2024-10-30 00:00:00","11.9289","3.55734","25.9","2.18","7.5","5.217","8024.158","0.01","8.4","30.765","4.81646","24.52","0","SATNPRO1963","23.434","0.32826","5"],
    [38180,"HCEP03730564","2024-10-30 00:15:00","11.9282","3.55668","26.06","2.122857142857143","7.5","5.194","8036.901","0.01","28.29","30.7592","4.81567","23.88","0","SATNPRO1963","23.13","0.32398","5"],
    [38181,"HCEP03730564","2024-10-30 00:30:00","11.9277","3.55607","26.209","2.102857142857143","7.5","5.201","8040.548","0.01","2.17","30.7537","4.81491","23.65","0","SATNPRO1963","23.18","0.3247","5"],
    [38182,"HCEP03730564","2024-10-30 00:45:00","11.927","3.55514","26.342","2.091428571428572","7.5","5.214","8058.179","0.01","17.89","30.7454","4.81375","23.52","0","SATNPRO1963","22.924","0.32112","5"],
    [38183,"HCEP03730564","2024-10-30 01:00:00","11.9268","3.55482","26.5","2.078571428571429","7.49","5.214","8072.788","0.01","13.02","30.7423","4.81333","23.37","0","SATNPRO1963","22.766000000000002","0.31886","5"],
    [38184,"HCEP03730564","2024-10-30 01:15:00","11.9268","3.55498","26.649","2.077142857142857","7.49","5.22","8069.8","0.01","3.76","30.7438","4.81355","23.35","0","SATNPRO1963","22.77","0.31894","5"],
    [38185,"HCEP03730564","2024-10-30 01:30:00","11.9271","3.55526","26.799","2.072857142857143","7.49","5.235","8119.972","0.01","21.04","30.7462","4.81389","23.31","0","SATNPRO1963","22.932","0.32118","5"],
    [38186,"HCEP03730564","2024-10-30 01:45:00","11.927","3.55549","26.951","2.062857142857143","7.49","5.181","8082.043","0.01","25.3","30.7484","4.81422","23.19","0","SATNPRO1963","22.701999999999998","0.31804","5"],
    [38187,"HCEP03730564","2024-10-30 02:00:00","11.9268","3.55526","27.076","2.058571428571429","7.49","5.193","8086.376","0","4.34","30.7464","4.81394","23.15","0","SATNPRO1963","22.682","0.31768","5"],
    [38188,"HCEP03730564","2024-10-30 02:15:00","11.9245","3.5526","27.187","2.038571428571429","7.49","5.211","8130.024","0.01","13.38","30.7226","4.81062","22.91","0","SATNPRO1963","22.684","0.31776","5"],
    [38189,"HCEP03730564","2024-10-30 02:30:00","11.9266","3.55528","27.288","2.041428571428571","7.49","5.201","8106.964","0.01","16.95","30.7466","4.81398","22.96","0","SATNPRO1963","22.826","0.31974","5"],
    [38190,"HCEP03730564","2024-10-30 02:45:00","11.9262","3.55453","27.379","2.032857142857143","7.49","5.209","8114.889","0","2.17","30.7397","4.81302","22.86","0","SATNPRO1963","22.748","0.31864","5"],
    [38191,"HCEP03730564","2024-10-30 03:00:00","11.926","3.55476","27.455","2.014285714285714","7.49","5.227","8153.142","0.01","10.18","30.7421","4.81336","22.65","0","SATNPRO1963","22.612","0.31674","5"],
    [38192,"HCEP03730564","2024-10-30 03:15:00","11.9265","3.55526","27.511","2.008571428571428","7.49","5.183","8036.843","0.01","31.82","30.7464","4.81396","22.58","0","SATNPRO1963","22.466","0.31468","5"],
    [38193,"HCEP03730564","2024-10-30 03:30:00","11.9267","3.5551","27.554","2.021428571428571","7.49","5.187","8023.009","0.01","4.34","30.7447","4.81373","22.73","0","SATNPRO1963","22.542","0.31572","5"],
    [38194,"HCEP03730564","2024-10-30 03:45:00","11.9266","3.55534","27.549","2.027142857142857","7.49","5.177","8131.277","0.02","11.68","30.7471","4.81407","22.79","0","SATNPRO1963","22.624","0.3169","5"],
    [38195,"HCEP03730564","2024-10-30 04:00:00","11.9268","3.55503","27.554","2.054285714285714","7.49","5.198","8059.833","0.01","18.02","30.7439","4.81361","23.1","0","SATNPRO1963","22.834","0.31982","5"],
    [38196,"HCEP03730564","2024-10-30 04:15:00","11.927","3.55516","27.522","2.068571428571428","7.49","5.211","8054.817","0.01","0","30.745","4.81376","23.25","0","SATNPRO1963","23.072","0.32316","5"],
    [38197,"HCEP03730564","2024-10-30 04:30:00","11.9273","3.55561","27.496","2.052857142857143","7.49","5.234","8139.936","0.01","5.74","30.7491","4.81434","23.08","0","SATNPRO1963","23.108","0.32368","5"],
    [38198,"HCEP03730564","2024-10-30 04:45:00","11.9274","3.55575","27.443","2.048571428571428","7.49","5.191","8046.978","0.01","25.67","30.7503","4.81451","23.04","0","SATNPRO1963","22.73","0.31842","5"],
    [38199,"HCEP03730564","2024-10-30 05:00:00","11.9264","3.55502","27.396","2.044285714285714","7.48","5.215","8053.909","0.01","0","30.7442","4.81366","22.99","0","SATNPRO1963","22.784","0.31914","5"],
    [38200,"HCEP03730564","2024-10-30 05:15:00","11.9272","3.55561","27.324","2.037142857142857","7.48","5.243","8096.86","0.01","11.88","30.7492","4.81435","22.91","0","SATNPRO1963","22.872","0.32036","5"],
    [38201,"HCEP03730564","2024-10-30 05:30:00","11.9274","3.55617","27.251","2.021428571428571","7.49","5.22","8043.769","0.01","28.21","30.7545","4.81509","22.73","0","SATNPRO1963","22.852","0.3201","5"],
    [38202,"HCEP03730564","2024-10-30 05:45:00","11.9278","3.55629","27.147","2.03","7.48","5.279","8062.858","0.01","0","30.7554","4.8152","22.82","0","SATNPRO1963","22.886","0.32058","5"],
    [38203,"HCEP03730564","2024-10-30 06:00:00","11.9233","3.55295","27.031","1.994285714285714","7.48","5.311","8142.733","0.01","6.51","30.7271","4.81126","22.41","0","SATNPRO1963","22.14","0.31012","5"],
    [38204,"HCEP03730564","2024-10-30 06:15:00","11.923","3.55264","26.984","1.917142857142857","7.48","5.26","8019.121","0.01","25.4","30.7243","4.81087","21.55","0","SATNPRO1963","22.106","0.30964","5"],
    [38205,"HCEP03730564","2024-10-30 06:30:00","11.9163","3.54486","26.923","1.885714285714286","7.48","5.276","8008.245","0.01","2.17","30.6552","4.80121","21.19","0","SATNPRO1963","22.733999999999998","0.31842","5"],
    [38206,"HCEP03730564","2024-10-30 06:45:00","11.9246","3.55389","26.884","1.974285714285714","7.47","5.307","8128.107","0.02","8.12","30.7351","4.81237","22.2","0","SATNPRO1963","22.55","0.31584","5"],
    [38207,"HCEP03730564","2024-10-30 07:00:00","11.9254","3.55546","26.751","1.925714285714286","7.48","5.239","8096.63","0.03","34.1","30.7495","4.81437","21.66","0","SATNPRO1963","22.298","0.3123","5"],
    [38208,"HCEP03730564","2024-10-30 07:15:00","11.9251","3.55545","26.649","1.897142857142857","7.48","5.264","8113.263","0.01","0","30.7497","4.81441","21.32","0","SATNPRO1963","22.226","0.3113","5"],
    [38209,"HCEP03730564","2024-10-30 07:30:00","11.9254","3.55507","26.559","1.891428571428572","7.47","5.274","8154.926","0.01","7.52","30.7459","4.81385","21.27","0","SATNPRO1963","22.176000000000002","0.31058","5"],
    [38210,"HCEP03730564","2024-10-30 07:45:00","11.925","3.55481","26.462","1.904285714285714","7.47","5.193","8081.605","0.03","36.11","30.7437","4.81356","21.41","0","SATNPRO1963","22.17","0.31048","5"],
    [38211,"HCEP03730564","2024-10-30 08:00:00","11.9251","3.55487","26.365","1.904285714285714","7.47","5.223","8095.128","0.01","0","30.7443","4.81362","21.42","0","SATNPRO1963","22.284","0.31216","5"],
    [38212,"HCEP03730564","2024-10-30 08:15:00","11.9253","3.55478","26.256","1.915714285714286","7.47","5.267","8143.318","0.01","8.68","30.7433","4.81347","21.54","0","SATNPRO1963","22.488","0.31498","5"],
    [38213,"HCEP03730564","2024-10-30 08:30:00","11.9258","3.55505","26.153","1.941428571428572","7.47","5.227","8060.313","0.01","18.92","30.7455","4.81378","21.83","0","SATNPRO1963","22.738","0.31846","5"],
    [38214,"HCEP03730564","2024-10-30 08:45:00","11.9257","3.55497","26.082","1.958571428571429","7.47","5.231","8056.579","0.01","4.34","30.7448","4.81367","22.02","0","SATNPRO1963","22.608","0.31668","5"],
    [38215,"HCEP03730564","2024-10-30 09:00:00","11.9257","3.55504","26.017","1.962857142857143","7.47","5.279","8126.27","0.02","5.74","30.7456","4.81378","22.08","0","SATNPRO1963","22.75","0.31868","5"],
    [38216,"HCEP03730564","2024-10-30 09:15:00","11.9244","3.55411","25.966","1.95","7.48","5.25","8056.82","0.01","8.68","30.7377","4.81269","21.92","0","SATNPRO1963","22.324","0.3127","5"],
    [38217,"HCEP03730564","2024-10-30 09:30:00","11.9244","3.55402","25.975","1.904285714285714","7.48","5.278","8062.377","0.01","2.17","30.7369","4.81257","21.41","0","SATNPRO1963","21.962","0.30762","5"],
    [38218,"HCEP03730564","2024-10-30 09:45:00","11.9244","3.55383","25.98","1.9","7.47","5.301","8098.142","0.01","7.2","30.735","4.81231","21.37","0","SATNPRO1963","22.374","0.31338","5"],
    [38219,"HCEP03730564","2024-10-30 10:00:00","11.9229","3.55112","25.998","1.972857142857143","7.46","5.193","7975.892","0.03","32.26","30.7102","4.80884","22.18","0","SATNPRO1963","23.024","0.32252","5"],
    [38220,"HCEP03730564","2024-10-30 10:15:00","11.9228","3.55183","26.028","1.981428571428572","7.47","5.223","7974.515","0.01","2.17","30.717","4.8098","22.28","0","SATNPRO1963","22.316","0.31258","5"],
    [38221,"HCEP03730564","2024-10-30 10:30:00","11.9161","3.54729","26.088","1.841428571428571","7.47","5.27","8096.994","0.01","8.95","30.679","4.80453","20.69","0","SATNPRO1963","21.394000000000002","0.29968","5"],
    [38222,"HCEP03730564","2024-10-30 10:45:00","11.9168","3.54801","26.15","1.675714285714286","7.46","5.156","7955.479","0.03","32.76","30.6853","4.80541","18.83","0","SATNPRO1963","21.41","0.29992","5"],
    [38223,"HCEP03730564","2024-10-30 11:00:00","11.9158","3.54752","26.269","1.632857142857143","7.46","5.172","7953.858","0.01","4.34","30.6814","4.80488","18.36","0","SATNPRO1963","20.894","0.2926","5"],
    [38224,"HCEP03730564","2024-10-30 11:15:00","11.9128","3.54366","26.349","1.61","7.45","5.165","8068.907","0.01","27.27","30.6468","4.80005","18.08","0","SATNPRO1963","21.04","0.29468","5"],
    [38225,"HCEP03730564","2024-10-30 11:30:00","11.9107","3.54208","26.44","1.59","7.45","5.19","7995.547","0.01","28.95","30.6332","4.79816","17.87","0","SATNPRO1963","20.438","0.2863","5"],
    [38226,"HCEP03730564","2024-10-30 11:45:00","11.9098","3.54052","26.55","1.565714285714286","7.44","5.204","8005.569","0.01","3.07","30.619","4.79618","17.58","0","SATNPRO1963","21.296","0.29828","5"],
    [38227,"HCEP03730564","2024-10-30 12:00:00","11.9088","3.53928","26.628","1.575714285714286","7.45","5.234","8117.023","0.01","0","30.6079","4.79463","17.7","0","SATNPRO1963","20.474","0.28682","5"],
    [38228,"HCEP03730564","2024-10-30 12:15:00","11.9081","3.53723","26.752","1.57","7.45","5.131","8057.187","0.01","22.44","30.5888","4.79195","17.63","0","SATNPRO1963","20.832","0.2918","5"],
    [38229,"HCEP03730564","2024-10-30 12:30:00","11.9086","3.53654","26.868","1.597142857142857","7.45","5.149","8064.353","0.01","3.76","30.5816","4.79094","17.93","0","SATNPRO1963","20.518","0.28738","5"],
    [38230,"HCEP03730564","2024-10-30 12:45:00","11.9089","3.5356","27.002","1.63","7.45","5.227","8087.95","0.01","7.82","30.5723","4.78963","18.3","0","SATNPRO1963","20.898","0.2927","5"],
    [38231,"HCEP03730564","2024-10-30 13:00:00","11.9113","3.53493","27.148","1.708571428571429","7.45","5.152","8033.134","0.02","24.64","30.5638","4.7884","19.19","0","SATNPRO1963","21.242","0.29754","5"],
    [38232,"HCEP03730564","2024-10-30 13:15:00","11.9111","3.53508","27.283","1.792857142857143","7.45","5.174","8029.027","0.01","0","30.5654","4.78863","20.13","0","SATNPRO1963","21.542","0.30174","5"],
    [38233,"HCEP03730564","2024-10-30 13:30:00","11.9108","3.53632","27.388","1.777142857142857","7.45","5.167","8016.146","0.01","33.33","30.5776","4.79036","19.96","0","SATNPRO1963","21.288","0.2982","5"],
    [38234,"HCEP03730564","2024-10-30 13:45:00","11.9119","3.53686","27.483","1.74","7.45","5.145","8017.935","0.02","37.89","30.5818","4.79095","19.54","0","SATNPRO1963","21.334","0.29882","5"],
    [38235,"HCEP03730564","2024-10-30 14:00:00","11.9086","3.54149","27.583","1.555714285714286","7.45","5.17","8024.669","0.01","0","30.6288","4.79764","17.47","0","SATNPRO1963","19.348","0.27098","5"],
    [38236,"HCEP03730564","2024-10-30 14:15:00","11.9102","3.54137","27.689","1.408571428571429","7.43","5.204","8063.228","0.01","12.65","30.6264","4.79728","15.82","0","SATNPRO1963","19.734","0.2764","5"],
    [38237,"HCEP03730564","2024-10-30 14:30:00","11.91","3.54281","27.78","1.434285714285714","7.43","5.138","8013.208","0.03","30.22","30.6403","4.79925","16.11","0","SATNPRO1963","19.582","0.27424","5"],
    [38238,"HCEP03730564","2024-10-30 14:45:00","11.9105","3.54312","27.835","1.401428571428572","7.43","5.185","8029.588","0.01","0","30.6429","4.79962","15.75","0","SATNPRO1963","20.022000000000002","0.28046","5"],
    [38239,"HCEP03730564","2024-10-30 15:00:00","11.9111","3.54316","27.87","1.434285714285714","7.42","5.216","8063.31","0.01","10.63","30.6427","4.79958","16.1","0","SATNPRO1963","20.456","0.28654","5"],
    [38240,"HCEP03730564","2024-10-30 15:15:00","11.9124","3.5442","27.878","1.471428571428572","7.43","5.17","8023.436","0.01","11.48","30.6516","4.80082","16.52","0","SATNPRO1963","20.66","0.28934","5"],
    [38241,"HCEP03730564","2024-10-30 15:30:00","11.9132","3.54459","27.85","1.52","7.43","5.176","8018.435","0.02","6.86","30.6548","4.80125","17.08","0","SATNPRO1963","21.006","0.29422","5"],
    [38242,"HCEP03730564","2024-10-30 15:45:00","11.9144","3.5454","27.839","1.597142857142857","7.43","5.226","8076.927","0.03","10.85","30.6615","4.80218","17.95","0","SATNPRO1963","21.174","0.2966","5"],
    [38243,"HCEP03730564","2024-10-30 16:00:00","11.9139","3.54547","27.827","1.614285714285714","7.44","5.181","8020.949","0.02","10.41","30.6626","4.80235","18.14","0","SATNPRO1963","21.169999999999998","0.29654","5"],
    [38244,"HCEP03730564","2024-10-30 16:15:00","11.9141","3.54574","27.729","1.614285714285714","7.44","5.214","8025.524","0.01","0","30.6651","4.80269","18.14","0","SATNPRO1963","20.868","0.29228","5"],
    [38245,"HCEP03730564","2024-10-30 16:30:00","11.9142","3.54635","27.653","1.567142857142857","7.44","5.271","8088.825","0.04","19.53","30.6709","4.8035","17.6","0","SATNPRO1963","20.674","0.28958","5"],
    [38246,"HCEP03730564","2024-10-30 16:45:00","11.9168","3.54822","27.552","1.584285714285714","7.44","4.895","6980.826","0.32","724.61","30.6867","4.80569","17.81","0","SATNPRO1963","21.174","0.29658","5"],
    [38247,"HCEP03730564","2024-10-30 17:00:00","11.9173","3.54861","27.438","1.622857142857143","7.44","5.163","8075.646","0.01","4.85","30.6902","4.80616","18.24","0","SATNPRO1963","21.368000000000002","0.2993","5"],
    [38248,"HCEP03730564","2024-10-30 17:15:00","11.9173","3.54839","27.334","1.64","7.44","5.087","8067.904","0.01","6.86","30.6881","4.80586","18.42","0","SATNPRO1963","21.162","0.29644","5"],
    [38249,"HCEP03730564","2024-10-30 17:30:00","11.9157","3.54641","27.176","1.648571428571429","7.44","5.08","7829.048","0.01","8.68","30.6705","4.80339","18.53","0","SATNPRO1963","21.352","0.29906","5"],
    [38250,"HCEP03730564","2024-10-30 17:45:00","11.9145","3.54405","27.036","1.667142857142857","7.45","5.084","7823.536","0.01","3.76","30.6489","4.80036","18.74","0","SATNPRO1963","21.594","0.30246","5"],
    [38251,"HCEP03730564","2024-10-30 18:00:00","11.9138","3.5431","26.879","1.701428571428572","7.45","4.894","7902.438","0.02","23.67","30.6404","4.79916","19.12","0","SATNPRO1963","21.696","0.3039","5"],
    [38252,"HCEP03730564","2024-10-30 18:15:00","11.9141","3.54325","26.729","1.715714285714286","7.45","4.996","7480.191","0.01","20.47","30.6416","4.79932","19.28","0","SATNPRO1963","21.608","0.30266","5"],
    [38253,"HCEP03730564","2024-10-30 18:30:00","11.9142","3.54314","26.571","1.692857142857143","7.45","5.005","7478.409","0.01","0","30.6406","4.79917","19.01","0","SATNPRO1963","21.498","0.3011","5"],
    [38254,"HCEP03730564","2024-10-30 18:45:00","11.9157","3.54412","26.314","1.715714285714286","7.45","4.637","7946.381","0.02","8.68","30.6488","4.80029","19.27","0","SATNPRO1963","21.962","0.30764","5"],
    [38255,"HCEP03730564","2024-10-30 19:00:00","11.9177","3.54762","26.108","1.755714285714286","7.45","5.031","7687.237","0.02","10.18","30.6809","4.80477","19.72","0","SATNPRO1963","21.560000000000002","0.302","5"],
    [38256,"HCEP03730564","2024-10-30 19:15:00","11.9175","3.54685","25.936","1.731428571428571","7.45","5.031","7685.053","0.01","0","30.6736","4.80375","19.46","0","SATNPRO1963","21.398","0.29972","5"],
    [38257,"HCEP03730564","2024-10-30 19:30:00","11.917","3.54569","25.776","1.731428571428571","7.45","4.861","7827.029","0.03","16.81","30.663","4.80225","19.45","0","SATNPRO1963","21.576","0.3022","5"],
    [38258,"HCEP03730564","2024-10-30 19:45:00","11.917","3.54516","25.596","1.728571428571429","7.45","5.035","7379.834","0.02","47.93","30.658","4.80153","19.43","0","SATNPRO1963","21.586","0.30234","5"],
    [38259,"HCEP03730564","2024-10-30 20:00:00","11.9163","3.54377","25.388","1.731428571428571","7.45","5.056","7398.995","0.01","2.17","30.6453","4.79974","19.46","0","SATNPRO1963","21.456","0.30054","5"],
    [38260,"HCEP03730564","2024-10-30 20:15:00","11.9161","3.54277","25.188","1.745714285714286","7.45","4.766","7858.051","0.01","13.38","30.636","4.79842","19.61","0","SATNPRO1963","21.740000000000002","0.30448","5"],
    [38261,"HCEP03730564","2024-10-30 20:30:00","11.9155","3.54259","25.022","1.77","7.46","5.022","7390.68","0.01","14.88","30.6348","4.79825","19.88","0","SATNPRO1963","21.782","0.3051","5"],
    [38262,"HCEP03730564","2024-10-30 20:45:00","11.9152","3.54246","24.862","1.755714285714286","7.46","5.114","7401.162","0.01","5.74","30.6338","4.7981","19.72","0","SATNPRO1963","21.638","0.30312","5"],
    [38263,"HCEP03730564","2024-10-30 21:00:00","11.9145","3.54251","24.757","1.721428571428572","7.45","4.768","7847.92","0.01","9.94","30.6349","4.79826","19.33","0","SATNPRO1963","21.526","0.3015","5"],
    [38264,"HCEP03730564","2024-10-30 21:15:00","11.9143","3.54277","24.704","1.681428571428572","7.45","5.005","7466.573","0.01","36.69","30.6377","4.79865","18.89","0","SATNPRO1963","21.080000000000002","0.29526","5"],
    [38265,"HCEP03730564","2024-10-30 21:30:00","11.9142","3.54294","24.689","1.64","7.45","5.005","7464.087","0.01","4.85","30.6393","4.79888","18.43","0","SATNPRO1963","20.686","0.28978","5"],
    [38266,"HCEP03730564","2024-10-30 21:45:00","11.914","3.54304","24.71","1.607142857142857","7.44","5.029","7802.471","0.01","7.52","30.6405","4.79905","18.06","0","SATNPRO1963","20.716","0.29016","5"],
    [38267,"HCEP03730564","2024-10-30 22:00:00","11.9134","3.54313","24.727","1.582857142857143","7.45","5.039","7656.422","0.01","6.14","30.6418","4.79924","17.78","0","SATNPRO1963","20.748","0.29066","5"],
    [38268,"HCEP03730564","2024-10-30 22:15:00","11.9132","3.54307","24.74","1.547142857142857","7.45","5.059","7672.292","0.01","0","30.6413","4.79918","17.37","0","SATNPRO1963","20.442","0.28634","5"],
    [38269,"HCEP03730564","2024-10-30 22:30:00","11.9126","3.54286","24.801","1.511428571428572","7.44","5.069","7850.931","0.01","7.2","30.6399","4.79899","16.98","0","SATNPRO1963","20.056","0.2809","5"],
    [38270,"HCEP03730564","2024-10-30 22:45:00","11.9124","3.54262","24.877","1.477142857142857","7.44","5.029","7643.057","0.01","19.65","30.6377","4.79869","16.59","0","SATNPRO1963","19.79","0.27722","5"],
    [38271,"HCEP03730564","2024-10-30 23:00:00","11.9117","3.54237","25.001","1.442857142857143","7.43","5.051","7638.472","0.01","0","30.6358","4.79844","16.22","0","SATNPRO1963","19.692","0.27582","5"],
    [38272,"HCEP03730564","2024-10-30 23:15:00","11.9113","3.54199","25.092","1.414285714285714","7.43","5.074","7845.339","0.01","10.41","30.6325","4.79798","15.88","0","SATNPRO1963","19.504","0.27318","5"],
    [38273,"HCEP03730564","2024-10-30 23:30:00","11.9109","3.5414","25.192","1.385714285714286","7.42","5.04","7746.918","0.01","24.83","30.6271","4.79724","15.57","0","SATNPRO1963","19.304","0.2704","5"],
    [38274,"HCEP03730564","2024-10-30 23:45:00","11.91","3.54086","25.295","1.357142857142857","7.42","5.052","7752.15","0.01","4.34","30.6226","4.79662","15.23","0","SATNPRO1963","18.882","0.26448","5"],
    [38275,"HCEP03730564","2024-10-31 00:00:00","11.9095","3.54061","25.458","1.317142857142857","7.42","5.05","7852.248","0.02","9.46","30.6205","4.79634","14.8","0","SATNPRO1963","18.712","0.26208","5"],
    [38276,"HCEP03730564","2024-10-31 00:15:00","11.909","3.54035","25.632","1.294285714285714","7.42","5.078","7731.883","0.01","22.13","30.6184","4.79605","14.53","0","SATNPRO1963","18.714","0.26214","5"],
    [38277,"HCEP03730564","2024-10-31 00:30:00","11.9089","3.54011","25.776","1.28","7.42","5.084","7714.555","0.01","4.85","30.6161","4.79573","14.37","0","SATNPRO1963","18.486","0.25894","5"],
    [38278,"HCEP03730564","2024-10-31 00:45:00","11.9087","3.5398","25.908","1.277142857142857","7.42","5.108","7908.697","0.01","8.95","30.6133","4.79535","14.34","0","SATNPRO1963","18.662","0.26138","5"],
    [38279,"HCEP03730564","2024-10-31 01:00:00","11.909","3.5398","26.065","1.297142857142857","7.42","5.024","7705.834","0.01","33.68","30.613","4.79532","14.57","0","SATNPRO1963","18.698","0.2619","5"],
    [38280,"HCEP03730564","2024-10-31 01:15:00","11.909","3.54","26.235","1.315714285714286","7.42","5.042","7706.71","0.01","0","30.6147","4.79557","14.77","0","SATNPRO1963","18.948","0.26536","5"],
    [38281,"HCEP03730564","2024-10-31 01:30:00","11.9097","3.53991","26.383","1.34","7.42","5.066","7783.898","0.01","13.2","30.6133","4.79537","15.05","0","SATNPRO1963","19.413999999999998","0.2719","5"],
    [38282,"HCEP03730564","2024-10-31 01:45:00","11.9095","3.53947","26.562","1.368571428571428","7.42","5.066","7751.341","0.01","14.06","30.6092","4.7948","15.38","0","SATNPRO1963","19.43","0.27214","5"],
    [38283,"HCEP03730564","2024-10-31 02:00:00","11.9096","3.5395","26.725","1.371428571428571","7.43","5.076","7746.225","0.01","0","30.6094","4.79483","15.39","0","SATNPRO1963","19.349999999999998","0.27102","5"],
    [38284,"HCEP03730564","2024-10-31 02:15:00","11.9097","3.53938","26.884","1.384285714285714","7.43","5.079","7852.892","0.01","9.94","30.608","4.79465","15.55","0","SATNPRO1963","19.334","0.2708","5"],
    [38285,"HCEP03730564","2024-10-31 02:30:00","11.9098","3.53965","27.051","1.381428571428572","7.43","5.085","7685.267","0.01","9.94","30.6104","4.79499","15.51","0","SATNPRO1963","19.352","0.27108","5"],
    [38286,"HCEP03730564","2024-10-31 02:45:00","11.9096","3.53928","27.2","1.377142857142857","7.43","5.108","7681.789","0.01","2.17","30.607","4.79452","15.46","0","SATNPRO1963","19.426000000000002","0.27206","5"],
    [38287,"HCEP03730564","2024-10-31 03:00:00","11.9084","3.53763","27.308","1.357142857142857","7.43","5.086","7755.678","0.01","8.68","30.592","4.79244","15.24","0","SATNPRO1963","19.112000000000002","0.26768","5"],
    [38288,"HCEP03730564","2024-10-31 03:15:00","11.908","3.53666","27.416","1.334285714285714","7.42","5.092","7653.907","0.01","23.97","30.5831","4.79118","14.98","0","SATNPRO1963","18.86","0.2642","5"],
    [38289,"HCEP03730564","2024-10-31 03:30:00","11.9081","3.53727","27.504","1.308571428571429","7.42","5.107","7663.926","0.01","0","30.5887","4.79199","14.7","0","SATNPRO1963","19.126","0.26786","5"],
    [38290,"HCEP03730564","2024-10-31 03:45:00","11.9089","3.53769","27.567","1.318571428571429","7.42","5.084","7783.253","0.01","9.7","30.5922","4.79246","14.81","0","SATNPRO1963","19.052","0.26686","5"],
    [38291,"HCEP03730564","2024-10-31 04:00:00","11.9098","3.53949","27.592","1.347142857142857","7.42","5.087","7625.752","0.01","7.82","30.6087","4.79478","15.13","0","SATNPRO1963","19.408","0.27184","5"],
    [38292,"HCEP03730564","2024-10-31 04:15:00","11.9096","3.54037","27.619","1.332857142857143","7.43","5.122","7632.612","0.01","0","30.6173","4.796","14.97","0","SATNPRO1963","19.486","0.2729","5"],
    [38293,"HCEP03730564","2024-10-31 04:30:00","11.9105","3.5409","27.612","1.348571428571428","7.42","5.037","7758.073","0.04","19.16","30.6216","4.7966","15.14","0","SATNPRO1963","19.392","0.27164","5"],
    [38294,"HCEP03730564","2024-10-31 04:45:00","11.9143","3.53941","27.609","1.415714285714286","7.42","5.058","7454.284","0.01","33.96","30.6042","4.79409","15.9","0","SATNPRO1963","20.29","0.2842","5"],
    [38295,"HCEP03730564","2024-10-31 05:00:00","11.9153","3.53864","27.514","1.485714285714286","7.43","5.073","7461.245","0.01","5.31","30.5961","4.79292","16.69","0","SATNPRO1963","20.118","0.28178","5"],
    [38296,"HCEP03730564","2024-10-31 05:15:00","11.9156","3.53765","27.403","1.518571428571428","7.43","4.858","7796.415","0.01","12.65","30.5863","4.79153","17.05","0","SATNPRO1963","19.874","0.27834","5"],
    [38297,"HCEP03730564","2024-10-31 05:30:00","11.9212","3.53093","27.401","1.571428571428572","7.45","4.949","7585.245","0.02","83.13","30.5173","4.78171","17.64","0","SATNPRO1963","19.836000000000002","0.27786","5"],
    [38298,"HCEP03730564","2024-10-31 05:45:00","11.9217","3.52986","27.332","1.702857142857143","7.45","4.958","7603.685","0.01","3.76","30.5066","4.78019","19.11","0","SATNPRO1963","19.846","0.27798","5"],
    [38299,"HCEP03730564","2024-10-31 06:00:00","11.9221","3.53047","27.246","1.744285714285714","7.45","4.689","7715.12","0.02","13.02","30.5122","4.78097","19.59","0","SATNPRO1963","20.288","0.28418","5"],
    [38300,"HCEP03730564","2024-10-31 06:15:00","11.9212","3.53134","27.164","1.732857142857143","7.44","5.009","7461.366","0.02","62.62","30.5213","4.78226","19.46","0","SATNPRO1963","20.506","0.28726","5"],
    [38301,"HCEP03730564","2024-10-31 06:30:00","11.9262","3.5292","27.046","1.847142857142857","7.44","5.013","7465.956","0.01","3.76","30.4967","4.77871","20.73","0","SATNPRO1963","21.006","0.29422","5"],
    [38302,"HCEP03730564","2024-10-31 06:45:00","11.9274","3.52893","26.948","2.027142857142857","7.45","4.979","7786.456","0.01","13.55","30.4932","4.77819","22.76","0","SATNPRO1963","21.35","0.29906","5"],
    [38303,"HCEP03730564","2024-10-31 07:00:00","11.9251","3.53093","26.857","2.062857142857143","7.46","5.005","7583.689","0.02","19.41","30.5142","4.7812","23.16","0","SATNPRO1963","21.212","0.29712","5"],
    [38304,"HCEP03730564","2024-10-31 07:15:00","11.9205","3.53466","26.805","1.872857142857143","7.46","5.011","7578.098","0.01","0","30.5539","4.78685","21.03","0","SATNPRO1963","20.506","0.28722","5"],
    [38305,"HCEP03730564","2024-10-31 07:30:00","11.9173","3.53652","26.755","1.675714285714286","7.44","4.986","7770.599","0.01","10.18","30.5743","4.78978","18.83","0","SATNPRO1963","20.454","0.2865","5"],
    [38306,"HCEP03730564","2024-10-31 07:45:00","11.9173","3.53296","26.726","1.665714285714286","7.44","5.012","7441.35","0.01","14.56","30.5402","4.78496","18.7","0","SATNPRO1963","19.922","0.27902","5"],
    [38307,"HCEP03730564","2024-10-31 08:00:00","11.917","3.53181","26.657","1.64","7.44","5.019","7431.548","0.01","0","30.5295","4.78345","18.41","0","SATNPRO1963","19.732","0.27636","5"],
    [38308,"HCEP03730564","2024-10-31 08:15:00","11.9138","3.52952","26.591","1.547142857142857","7.44","4.954","7665.758","0.02","16.95","30.5102","4.78077","17.36","0","SATNPRO1963","19.104","0.26756","5"],
    [38309,"HCEP03730564","2024-10-31 08:30:00","11.9128","3.52787","26.505","1.49","7.43","4.999","7429.296","0.01","24.74","30.4951","4.77865","16.72","0","SATNPRO1963","19.12","0.2678","5"],
    [38310,"HCEP03730564","2024-10-31 08:45:00","11.9127","3.52777","26.408","1.471428571428572","7.43","5.019","7410.452","0.01","0","30.4943","4.77853","16.51","0","SATNPRO1963","19.132","0.26796","5"],
    [38311,"HCEP03730564","2024-10-31 09:00:00","11.9126","3.52671","26.314","1.471428571428572","7.43","4.913","7757.563","0.02","17.49","30.4842","4.7771","16.52","0","SATNPRO1963","19.096","0.26746","5"],
    [38312,"HCEP03730564","2024-10-31 09:15:00","11.9131","3.52603","26.226","1.51","7.43","5.019","7501.624","0.01","8.12","30.4773","4.77612","16.94","0","SATNPRO1963","19.116","0.26776","5"],
    [38313,"HCEP03730564","2024-10-31 09:30:00","11.9166","3.5279","26.149","1.602857142857143","7.44","5.042","7495.078","0.01","0","30.4924","4.7782","17.99","0","SATNPRO1963","20.098","0.28152","5"],
    [38314,"HCEP03730564","2024-10-31 09:45:00","11.9174","3.52844","26.095","1.674285714285714","7.44","4.992","7742.963","0.01","11.27","30.497","4.77882","18.8","0","SATNPRO1963","20.248","0.28362","5"],
    [38315,"HCEP03730564","2024-10-31 10:00:00","11.9201","3.52959","26.064","1.757142857142857","7.45","5.006","7507.839","0.02","31.82","30.5058","4.78004","19.72","0","SATNPRO1963","20.602","0.28858","5"],
    [38316,"HCEP03730564","2024-10-31 10:15:00","11.9202","3.53115","26.078","1.81","7.45","5.029","7526.403","0.01","0","30.5207","4.78214","20.33","0","SATNPRO1963","20.876","0.2924","5"],
    [38317,"HCEP03730564","2024-10-31 10:30:00","11.9189","3.53273","26.089","1.792857142857143","7.45","4.98","7711.832","0.01","10.18","30.5369","4.78444","20.13","0","SATNPRO1963","20.784","0.29112","5"],
    [38318,"HCEP03730564","2024-10-31 10:45:00","11.9187","3.53349","26.15","1.765714285714286","7.45","5.009","7568.744","0.01","13.89","30.5443","4.7855","19.82","0","SATNPRO1963","20.986","0.29394","5"],
    [38319,"HCEP03730564","2024-10-31 11:00:00","11.9186","3.53388","26.205","1.762857142857143","7.45","5.016","7545.226","0.01","0","30.5482","4.78605","19.8","0","SATNPRO1963","21.086","0.29536","5"],
    [38320,"HCEP03730564","2024-10-31 11:15:00","11.9187","3.53415","26.283","1.755714285714286","7.45","5.008","7680.466","0.01","10.63","30.5507","4.7864","19.72","0","SATNPRO1963","20.95","0.29342","5"],
    [38321,"HCEP03730564","2024-10-31 11:30:00","11.9187","3.53496","26.348","1.761428571428572","7.45","4.989","7481.192","0.02","16.52","30.5584","4.7875","19.79","0","SATNPRO1963","21.128","0.29598","5"],
    [38322,"HCEP03730564","2024-10-31 11:45:00","11.9184","3.53545","26.445","1.762857142857143","7.45","4.997","7475.918","0.01","0","30.5633","4.78819","19.79","0","SATNPRO1963","21.195999999999998","0.29688","5"],
    [38323,"HCEP03730564","2024-10-31 12:00:00","11.9186","3.53569","26.542","1.765714285714286","7.45","4.991","7634.554","0.01","14.06","30.5654","4.78849","19.82","0","SATNPRO1963","21.146","0.29618","5"],
    [38324,"HCEP03730564","2024-10-31 12:15:00","11.9184","3.5361","26.648","1.774285714285714","7.45","5.003","7379.87","0.01","24.26","30.5695","4.78908","19.92","0","SATNPRO1963","21.29","0.2982","5"],
    [38325,"HCEP03730564","2024-10-31 12:30:00","11.9185","3.53668","26.755","1.754285714285714","7.46","5.017","7374.265","0.01","0","30.5749","4.78985","19.69","0","SATNPRO1963","21.355999999999998","0.29912","5"],
    [38326,"HCEP03730564","2024-10-31 12:45:00","11.9197","3.53767","26.865","1.768571428571429","7.46","4.949","7623.998","0.01","9.21","30.5834","4.79104","19.87","0","SATNPRO1963","21.778","0.30504","5"],
    [38327,"HCEP03730564","2024-10-31 13:00:00","11.9235","3.53964","26.991","1.875714285714286","7.46","5.005","7281.762","0.01","42.24","30.5991","4.7932","21.07","0","SATNPRO1963","22.712","0.31812","5"],
    [38328,"HCEP03730564","2024-10-31 13:15:00","11.9243","3.53998","27.134","2.028571428571428","7.47","5.033","7275.313","0.01","6.14","30.6017","4.79357","22.78","0","SATNPRO1963","22.908","0.32084","5"],
    [38329,"HCEP03730564","2024-10-31 13:30:00","11.9248","3.5401","27.239","2.077142857142857","7.47","4.989","7537.706","0.01","12.65","30.6024","4.79366","23.33","0","SATNPRO1963","22.701999999999998","0.318","5"],
    [38330,"HCEP03730564","2024-10-31 13:45:00","11.9248","3.54031","27.362","2.097142857142857","7.47","5.031","7474.451","0.01","25.49","30.6044","4.79395","23.56","0","SATNPRO1963","22.968","0.32166","5"],
    [38331,"HCEP03730564","2024-10-31 14:00:00","11.9246","3.54043","27.487","2.107142857142857","7.47","5.037","7469.99","0.01","0","30.6056","4.79414","23.68","0","SATNPRO1963","22.806","0.31942","5"],
    [38332,"HCEP03730564","2024-10-31 14:15:00","11.9251","3.54061","27.549","2.108571428571428","7.47","4.951","7668.621","0.02","11.88","30.6069","4.79432","23.68","0","SATNPRO1963","22.814","0.31954","5"],
    [38333,"HCEP03730564","2024-10-31 14:30:00","11.9251","3.54077","27.647","2.107142857142857","7.47","5.013","7371.768","0.01","18.41","30.6084","4.79453","23.68","0","SATNPRO1963","22.89","0.3206","5"],
    [38334,"HCEP03730564","2024-10-31 14:45:00","11.9254","3.54091","27.72","2.124285714285715","7.48","5.032","7347.06","0.01","2.17","30.6094","4.79467","23.86","0","SATNPRO1963","22.772","0.31896","5"],
    [38335,"HCEP03730564","2024-10-31 15:00:00","11.9258","3.54102","27.731","2.134285714285714","7.48","4.982","7490.338","0.01","13.72","30.6101","4.79477","23.98","0","SATNPRO1963","22.928","0.32114","5"],
    [38336,"HCEP03730564","2024-10-31 15:15:00","11.926","3.5411","27.743","2.144285714285714","7.49","4.937","7090.588","0.02","20.81","30.6108","4.79486","24.08","0","SATNPRO1963","22.976","0.32188","5"],
    [38337,"HCEP03730564","2024-10-31 15:30:00","11.9262","3.54112","27.752","2.148571428571429","7.49","4.94","7070.142","0.01","3.07","30.6108","4.79485","24.14","0","SATNPRO1963","23.098","0.32352","5"],
    [38338,"HCEP03730564","2024-10-31 15:45:00","11.9264","3.54109","27.79","2.154285714285714","7.49","4.778","7636.795","0.02","21.26","30.6103","4.79479","24.2","0","SATNPRO1963","22.938","0.32132","5"],
    [38339,"HCEP03730564","2024-10-31 16:00:00","11.9253","3.54078","27.745","2.148571428571429","7.49","4.97","7212.923","0.01","44.68","30.6083","4.79452","24.14","0","SATNPRO1963","22.78","0.31908","5"],
    [38340,"HCEP03730564","2024-10-31 16:15:00","11.9241","3.54043","27.688","2.097142857142857","7.48","4.978","7230.443","0.01","0","30.6059","4.7942","23.55","0","SATNPRO1963","22.426","0.31412","5"],
    [38341,"HCEP03730564","2024-10-31 16:30:00","11.9228","3.54009","27.596","2.025714285714286","7.48","4.772","7697.94","0.02","22.55","30.6038","4.79391","22.75","0","SATNPRO1963","22.317999999999998","0.31262","5"],
    [38342,"HCEP03730564","2024-10-31 16:45:00","11.9214","3.53979","27.583","1.952857142857143","7.47","4.937","7106.404","0.01","49.95","30.602","4.79368","21.94","0","SATNPRO1963","22.072","0.30916","5"],
    [38343,"HCEP03730564","2024-10-31 17:00:00","11.9201","3.53943","27.54","1.885714285714286","7.47","4.94","7110.984","0.01","4.34","30.5996","4.79336","21.18","0","SATNPRO1963","21.872","0.30636","5"],
    [38344,"HCEP03730564","2024-10-31 17:15:00","11.9195","3.53895","27.456","1.82","7.46","4.864","7601.36","0.01","20.92","30.5956","4.79279","20.44","0","SATNPRO1963","21.428","0.30014","5"],
    [38345,"HCEP03730564","2024-10-31 17:30:00","11.9181","3.53844","27.325","1.757142857142857","7.46","4.982","7260.13","0.01","26.13","30.5919","4.79228","19.73","0","SATNPRO1963","21.148","0.29622","5"],
    [38346,"HCEP03730564","2024-10-31 17:45:00","11.9166","3.53756","27.148","1.687142857142857","7.46","4.989","7252.079","0.01","3.07","30.5848","4.79129","18.94","0","SATNPRO1963","20.747999999999998","0.29062","5"],
    [38347,"HCEP03730564","2024-10-31 18:00:00","11.9147","3.53608","26.935","1.594285714285714","7.45","4.822","7621.043","0.02","36.89","30.5722","4.78953","17.9","0","SATNPRO1963","19.928","0.27914","5"],
    [38348,"HCEP03730564","2024-10-31 18:15:00","11.9123","3.53441","26.723","1.482857142857143","7.45","4.874","7382.361","0.01","28.79","30.5582","4.78757","16.65","0","SATNPRO1963","19.454","0.27246","5"],
    [38349,"HCEP03730564","2024-10-31 18:30:00","11.9115","3.534","26.54","1.404285714285714","7.43","4.88","7384.965","0.01","0","30.5551","4.78714","15.76","0","SATNPRO1963","19.444","0.27232","5"],
    [38350,"HCEP03730564","2024-10-31 18:45:00","11.9113","3.53394","26.357","1.38","7.43","4.757","7662.575","0.01","12.84","30.5547","4.78708","15.49","0","SATNPRO1963","19.494","0.273","5"],
    [38351,"HCEP03730564","2024-10-31 19:00:00","11.9117","3.53336","26.178","1.375714285714286","7.43","4.927","7216.341","0.01","31.59","30.5489","4.78624","15.44","0","SATNPRO1963","19.352","0.27106","5"],
    [38352,"HCEP03730564","2024-10-31 19:15:00","11.9117","3.53258","25.962","1.387142857142857","7.43","4.933","7227.217","0.01","0","30.5414","4.78517","15.57","0","SATNPRO1963","19.216","0.26916","5"],
    [38353,"HCEP03730564","2024-10-31 19:30:00","11.9117","3.53176","25.769","1.374285714285714","7.42","4.708","7612.016","0.03","45.15","30.5336","4.78406","15.42","0","SATNPRO1963","18.884","0.26452","5"],
    [38354,"HCEP03730564","2024-10-31 19:45:00","11.912","3.53064","25.587","1.372857142857143","7.42","4.956","6909.729","0.01","48.03","30.5228","4.78252","15.4","0","SATNPRO1963","18.817999999999998","0.26358","5"],
    [38355,"HCEP03730564","2024-10-31 20:00:00","11.9123","3.53014","25.409","1.382857142857143","7.42","4.958","6888.853","0","3.76","30.5178","4.7818","15.52","0","SATNPRO1963","18.932","0.26518","5"],
    [38356,"HCEP03730564","2024-10-31 20:15:00","11.9121","3.52962","25.24","1.375714285714286","7.42","4.902","7224.422","0.01","21.7","30.513","4.78112","15.44","0","SATNPRO1963","18.792","0.26324","5"],
    [38357,"HCEP03730564","2024-10-31 20:30:00","11.9115","3.52927","25.086","1.352857142857143","7.42","4.931","6854.811","0.01","64.55","30.5102","4.78073","15.19","0","SATNPRO1963","18.512","0.2593","5"],
    [38358,"HCEP03730564","2024-10-31 20:45:00","11.9111","3.52893","24.926","1.318571428571429","7.42","4.948","6814.141","0.01","6.14","30.5074","4.78032","14.8","0","SATNPRO1963","18.15","0.25422","5"],
    [38359,"HCEP03730564","2024-10-31 21:00:00","11.9105","3.52883","24.793","1.295714285714286","7.41","4.975","7640.603","0.01","10.41","30.5068","4.78024","14.54","0","SATNPRO1963","18.196","0.25488","5"],
    [38360,"HCEP03730564","2024-10-31 21:15:00","11.9101","3.52849","24.678","1.27","7.41","4.969","7545.439","0.01","14.72","30.5041","4.77985","14.25","0","SATNPRO1963","18.114","0.2537","5"],
    [38361,"HCEP03730564","2024-10-31 21:30:00","11.9098","3.52846","24.588","1.252857142857143","7.41","4.978","7531.974","0.01","2.17","30.5041","4.77985","14.06","0","SATNPRO1963","17.918","0.25098","5"],
    [38362,"HCEP03730564","2024-10-31 21:45:00","11.9098","3.52834","24.55","1.245714285714286","7.41","4.996","7761.094","0.01","6.14","30.5029","4.77968","13.98","0","SATNPRO1963","17.816","0.24956","5"],
    [38363,"HCEP03730564","2024-10-31 22:00:00","11.9101","3.52803","24.549","1.24","7.41","4.925","7627.776","0.01","17.09","30.4997","4.77922","13.92","0","SATNPRO1963","17.997999999999998","0.25208","5"],
    [38364,"HCEP03730564","2024-10-31 22:15:00","11.9096","3.52805","24.57","1.237142857142857","7.41","4.93","7616.57","0.01","3.07","30.5002","4.77931","13.88","0","SATNPRO1963","18.046","0.25276","5"],
    [38365,"HCEP03730564","2024-10-31 22:30:00","11.9099","3.52804","24.571","1.235714285714286","7.41","5.011","7835.985","0.01","9.7","30.4999","4.77927","13.87","0","SATNPRO1963","18.108","0.25362","5"],
    [38366,"HCEP03730564","2024-10-31 22:45:00","11.9103","3.5279","24.628","1.251428571428572","7.41","4.921","7513.467","0","28.04","30.4982","4.77901","14.04","0","SATNPRO1963","17.994","0.25206","5"],
    [38367,"HCEP03730564","2024-10-31 23:00:00","11.9102","3.52821","24.704","1.267142857142857","7.41","4.925","7477.732","0.01","0","30.5013","4.77946","14.22","0","SATNPRO1963","18.252","0.25564","5"],
    [38368,"HCEP03730564","2024-10-31 23:15:00","11.9107","3.52856","24.781","1.278571428571429","7.41","5.021","7778.193","0.01","9.21","30.5041","4.77985","14.34","0","SATNPRO1963","18.29","0.25616","5"],
    [38369,"HCEP03730564","2024-10-31 23:30:00","11.9114","3.52845","24.88","1.294285714285714","7.41","4.983","7550.788","0.01","32.62","30.5025","4.77962","14.52","0","SATNPRO1963","18.368","0.25722","5"],
    [38370,"HCEP03730564","2024-10-31 23:45:00","11.9115","3.52855","24.994","1.304285714285714","7.41","4.986","7515.12","0.01","6.86","30.5033","4.77974","14.64","0","SATNPRO1963","18.502","0.25918","5"],
    [38371,"HCEP03730564","2024-11-01 00:00:00","11.9117","3.5285","25.183","1.317142857142857","7.41","4.973","7761.229","0.01","6.14","30.5026","4.77965","14.78","0","SATNPRO1963","18.616","0.26074","5"],
    [38372,"HCEP03730564","2024-11-01 00:15:00","11.9115","3.52838","25.311","1.317142857142857","7.41","4.993","7700.505","0.01","16.67","30.5016","4.77951","14.78","0","SATNPRO1963","18.51","0.25928","5"],
    [38373,"HCEP03730564","2024-11-01 00:30:00","11.9123","3.52817","25.448","1.32","7.41","4.997","7697.811","0.01","0","30.4988","4.77912","14.82","0","SATNPRO1963","18.542","0.2597","5"],
    [38374,"HCEP03730564","2024-11-01 00:45:00","11.9136","3.52781","25.576","1.371428571428571","7.42","4.999","7664.545","0.01","13.72","30.4942","4.77846","15.39","0","SATNPRO1963","18.826","0.2637","5"],
    [38375,"HCEP03730564","2024-11-01 01:00:00","11.9115","3.52747","25.699","1.328571428571429","7.42","5.001","7689.908","0.01","4.85","30.4927","4.77828","14.9","0","SATNPRO1963","18.18","0.25464","5"],
    [38376,"HCEP03730564","2024-11-01 01:15:00","11.9123","3.52652","25.871","1.278571428571429","7.42","5.003","7683.894","0.01","0","30.4828","4.77688","14.34","0","SATNPRO1963","17.904","0.25074","5"],
    [38377,"HCEP03730564","2024-11-01 01:30:00","11.9107","3.52661","26.044","1.237142857142857","7.42","5.013","7761.039","0.01","12.27","30.485","4.77722","13.88","0","SATNPRO1963","17.626","0.24692","5"],
    [38378,"HCEP03730564","2024-11-01 01:45:00","11.9128","3.52467","26.208","1.285714285714286","7.41","5.003","7611.294","0.01","35.65","30.4646","4.77433","14.42","0","SATNPRO1963","17.634","0.247","5"],
    [38379,"HCEP03730564","2024-11-01 02:00:00","11.9169","3.52051","26.387","1.38","7.42","5.008","7613.68","0.01","2.17","30.4212","4.76815","15.49","0","SATNPRO1963","17.78","0.24904","5"],
    [38380,"HCEP03730564","2024-11-01 02:15:00","11.9145","3.5212","26.572","1.331428571428572","7.42","5.033","7807.394","0.01","10.85","30.4297","4.76939","14.93","0","SATNPRO1963","17.456","0.24446","5"],
    [38381,"HCEP03730564","2024-11-01 02:30:00","11.9134","3.52232","26.787","1.294285714285714","7.42","4.994","7696.541","0.01","12.84","30.4413","4.77106","14.52","0","SATNPRO1963","17.19","0.24078","5"],
    [38382,"HCEP03730564","2024-11-01 02:45:00","11.9117","3.52325","26.998","1.218571428571429","7.42","4.991","7692.228","0.01","2.17","30.4515","4.77254","13.68","0","SATNPRO1963","17.258","0.24172","5"],
    [38383,"HCEP03730564","2024-11-01 03:00:00","11.9101","3.52446","27.186","1.181428571428572","7.41","5.034","7812.318","0.01","7.52","30.4644","4.77439","13.25","0","SATNPRO1963","16.951999999999998","0.23746","5"],
    [38384,"HCEP03730564","2024-11-01 03:15:00","11.9102","3.52414","27.365","1.168571428571429","7.41","4.995","7712.938","0.01","9.94","30.4611","4.77394","13.11","0","SATNPRO1963","16.939999999999998","0.23724","5"],
    [38385,"HCEP03730564","2024-11-01 03:30:00","11.9104","3.52386","27.522","1.16","7.41","5.003","7694.305","0.01","3.07","30.4582","4.77353","13.02","0","SATNPRO1963","17.046","0.23872","5"],
    [38386,"HCEP03730564","2024-11-01 03:45:00","11.9103","3.52359","27.63","1.161428571428572","7.4","5.004","7795.15","0.01","9.46","30.4557","4.77318","13.04","0","SATNPRO1963","16.958000000000002","0.2375","5"],
    [38387,"HCEP03730564","2024-11-01 04:00:00","11.9109","3.52299","27.733","1.175714285714286","7.4","4.951","7666.326","0.01","12.65","30.4494","4.77229","13.19","0","SATNPRO1963","17.044","0.23874","5"],
    [38388,"HCEP03730564","2024-11-01 04:15:00","11.9119","3.52139","27.816","1.197142857142857","7.4","4.965","7658.07","0.01","0","30.4332","4.77","13.43","0","SATNPRO1963","17.07","0.2391","5"],
    [38389,"HCEP03730564","2024-11-01 04:30:00","11.9113","3.52063","27.893","1.19","7.4","4.992","7850.366","0.01","9.21","30.4263","4.76904","13.35","0","SATNPRO1963","16.616","0.23272","5"],
    [38390,"HCEP03730564","2024-11-01 04:45:00","11.9105","3.52075","27.913","1.132857142857143","7.4","4.956","7693.088","0.01","18.67","30.4282","4.76931","12.71","0","SATNPRO1963","16.528","0.2315","5"],
    [38391,"HCEP03730564","2024-11-01 05:00:00","11.9098","3.52124","27.881","1.112857142857143","7.4","4.965","7686.401","0.01","0","30.4335","4.77006","12.49","0","SATNPRO1963","16.618","0.23276","5"],
    [38392,"HCEP03730564","2024-11-01 05:15:00","11.913","3.52796","27.93","1.275714285714286","7.41","5.027","7868.021","0.01","8.4","30.4952","4.77874","14.31","0","SATNPRO1963","18.418","0.25798","5"],
    [38393,"HCEP03730564","2024-11-01 05:30:00","11.9157","3.53017","27.908","1.361428571428571","7.41","4.988","7652.091","0.01","38.14","30.5143","4.7814","15.29","0","SATNPRO1963","19.34","0.27092","5"],
    [38394,"HCEP03730564","2024-11-01 05:45:00","11.9174","3.53113","27.908","1.544285714285714","7.43","4.993","7629.806","0.01","0","30.522","4.78247","17.34","0","SATNPRO1963","19.904","0.27882","5"],
    [38395,"HCEP03730564","2024-11-01 06:00:00","11.9173","3.53147","27.876","1.547142857142857","7.43","5.033","7864.983","0.01","11.06","30.5255","4.78295","17.37","0","SATNPRO1963","19.631999999999998","0.27504","5"],
    [38396,"HCEP03730564","2024-11-01 06:15:00","11.9171","3.53096","27.795","1.504285714285714","7.43","4.985","7744.981","0.01","18.92","30.5208","4.78229","16.89","0","SATNPRO1963","19.724","0.27626","5"],
    [38397,"HCEP03730564","2024-11-01 06:30:00","11.9154","3.52844","27.716","1.444285714285714","7.43","5.001","7728.116","0.01","0","30.498","4.77909","16.22","0","SATNPRO1963","19.189999999999998","0.26882","5"],
    [38398,"HCEP03730564","2024-11-01 06:45:00","11.9157","3.52908","27.591","1.431428571428572","7.42","5.06","7810.432","0.02","17.22","30.504","4.77992","16.07","0","SATNPRO1963","19.07","0.2671","5"],
    [38399,"HCEP03730564","2024-11-01 07:00:00","11.9176","3.52641","27.366","1.47","7.42","4.965","7498.728","0.01","16.67","30.4768","4.77605","16.5","0","SATNPRO1963","19.006","0.26622","5"],
    [38400,"HCEP03730564","2024-11-01 07:15:00","11.9191","3.52716","27.253","1.525714285714286","7.43","4.972","7486.876","0.01","0","30.4829","4.77688","17.12","0","SATNPRO1963","19.362","0.27118","5"],
    [38401,"HCEP03730564","2024-11-01 07:30:00","11.9177","3.52727","27.174","1.565714285714286","7.43","4.901","7714.554","0.01","9.46","30.4851","4.7772","17.57","0","SATNPRO1963","19.382","0.27148","5"],
    [38402,"HCEP03730564","2024-11-01 07:45:00","11.9221","3.52751","27.147","1.662857142857143","7.43","4.907","6947.75","0.02","42.63","30.4838","4.77697","18.67","0","SATNPRO1963","19.91","0.27886","5"],
    [38403,"HCEP03730564","2024-11-01 08:00:00","11.9218","3.52833","27.097","1.795714285714286","7.44","4.924","6929.694","0.01","7.52","30.492","4.77812","20.16","0","SATNPRO1963","20.28","0.28404","5"],
    [38404,"HCEP03730564","2024-11-01 08:15:00","11.9222","3.52832","27.033","1.827142857142857","7.45","4.864","7577.366","0.01","11.27","30.4915","4.77804","20.5","0","SATNPRO1963","20.137999999999998","0.28206","5"],
    [38405,"HCEP03730564","2024-11-01 08:30:00","11.9228","3.52838","26.953","1.845714285714286","7.45","4.91","7189.603","0.01","25.67","30.4917","4.77806","20.71","0","SATNPRO1963","20.428","0.28608","5"],
    [38406,"HCEP03730564","2024-11-01 08:45:00","11.9226","3.52747","26.861","1.832857142857143","7.45","4.921","7163.516","0.01","4.34","30.4832","4.77685","20.57","0","SATNPRO1963","20.233999999999998","0.28344","5"],
    [38407,"HCEP03730564","2024-11-01 09:00:00","11.9224","3.52539","26.771","1.812857142857143","7.45","4.932","7685.214","0.01","8.68","30.4635","4.77406","20.34","0","SATNPRO1963","20.144","0.28214","5"],
    [38408,"HCEP03730564","2024-11-01 09:15:00","11.9226","3.52384","26.683","1.79","7.45","4.914","7453.228","0.02","33.68","30.4484","4.77193","20.08","0","SATNPRO1963","20.006","0.28022","5"],
    [38409,"HCEP03730564","2024-11-01 09:30:00","11.919","3.52662","26.602","1.698571428571429","7.45","4.913","7421.393","0.01","3.07","30.478","4.77616","19.06","0","SATNPRO1963","19.326","0.2707","5"],
    [38410,"HCEP03730564","2024-11-01 09:45:00","11.9197","3.52608","26.513","1.572857142857143","7.44","4.916","7590.175","0.01","9.7","30.4724","4.77535","17.65","0","SATNPRO1963","19.573999999999998","0.27412","5"],
    [38411,"HCEP03730564","2024-11-01 10:00:00","11.919","3.5271","26.436","1.581428571428571","7.44","4.928","7449.06","0.01","25.86","30.4827","4.77681","17.75","0","SATNPRO1963","19.616","0.27472","5"],
    [38412,"HCEP03730564","2024-11-01 10:15:00","11.9177","3.52975","26.376","1.53","7.44","4.941","7455.994","0.01","5.31","30.5093","4.78057","17.17","0","SATNPRO1963","19.418","0.272","5"],
    [38413,"HCEP03730564","2024-11-01 10:30:00","11.9166","3.53352","26.316","1.468571428571429","7.43","4.957","7632.233","0.01","9.21","30.5463","4.78582","16.49","0","SATNPRO1963","19.996","0.2801","5"],
    [38414,"HCEP03730564","2024-11-01 10:45:00","11.9172","3.53474","26.308","1.517142857142857","7.44","4.941","7535.406","0.01","16.95","30.5575","4.78739","17.03","0","SATNPRO1963","20.498","0.28712","5"],
    [38415,"HCEP03730564","2024-11-01 11:00:00","11.9181","3.53585","26.372","1.538571428571428","7.44","4.943","7529.296","0.01","3.07","30.5674","4.78877","17.28","0","SATNPRO1963","20.594","0.28844","5"],
    [38416,"HCEP03730564","2024-11-01 11:15:00","11.9178","3.53602","26.432","1.567142857142857","7.44","4.995","7698.862","0.01","6.86","30.5693","4.78905","17.6","0","SATNPRO1963","20.632","0.28896","5"],
    [38417,"HCEP03730564","2024-11-01 11:30:00","11.9173","3.53593","26.461","1.545714285714286","7.44","4.948","7615.814","0.01","4.85","30.5688","4.78899","17.35","0","SATNPRO1963","20.25","0.28366","5"],
    [38418,"HCEP03730564","2024-11-01 11:45:00","11.9166","3.53589","26.509","1.51","7.44","4.968","7613.086","0.01","5.31","30.569","4.78902","16.96","0","SATNPRO1963","20.316","0.28458","5"],
    [38419,"HCEP03730564","2024-11-01 12:00:00","11.9174","3.53615","26.592","1.504285714285714","7.43","4.987","7704.657","0.01","16.81","30.5709","4.78928","16.9","0","SATNPRO1963","20.414","0.28596","5"],
    [38420,"HCEP03730564","2024-11-01 12:15:00","11.9171","3.53626","26.655","1.511428571428572","7.43","4.954","7635.879","0.01","6.86","30.572","4.78945","16.97","0","SATNPRO1963","20.406","0.28582","5"],
    [38421,"HCEP03730564","2024-11-01 12:30:00","11.9174","3.53661","26.73","1.522857142857143","7.44","4.974","7624.483","0.01","4.34","30.5751","4.78989","17.1","0","SATNPRO1963","20.466","0.28666","5"],
    [38422,"HCEP03730564","2024-11-01 12:45:00","11.918","3.53727","26.798","1.554285714285714","7.43","5.054","7754.063","0.01","7.52","30.581","4.79071","17.45","0","SATNPRO1963","20.912","0.29292","5"],
    [38423,"HCEP03730564","2024-11-01 13:00:00","11.9209","3.53927","26.912","1.654285714285714","7.43","4.94","7669.485","0.01","6.86","30.5977","4.79304","18.58","0","SATNPRO1963","21.882","0.30652","5"],
    [38424,"HCEP03730564","2024-11-01 13:15:00","11.9235","3.54089","27.01","1.821428571428571","7.45","4.959","7661.497","0.01","2.17","30.6111","4.7949","20.46","0","SATNPRO1963","22.44","0.3143","5"],
    [38425,"HCEP03730564","2024-11-01 13:30:00","11.9246","3.54227","27.121","1.948571428571429","7.45","5.032","7743.987","0.01","8.95","30.6234","4.79663","21.89","0","SATNPRO1963","22.626","0.3169","5"],
    [38426,"HCEP03730564","2024-11-01 13:45:00","11.9256","3.54306","27.207","2.067142857142857","7.46","4.986","7691.847","0.01","15.94","30.6301","4.79756","23.23","0","SATNPRO1963","23.108","0.32364","5"],
    [38427,"HCEP03730564","2024-11-01 14:00:00","11.9272","3.54459","27.306","2.17","7.47","4.982","7672.697","0.01","0","30.6435","4.79943","24.38","0","SATNPRO1963","23.436","0.32826","5"],
    [38428,"HCEP03730564","2024-11-01 14:15:00","11.9281","3.54627","27.396","2.301428571428572","7.48","5.033","7780.669","0.01","10.63","30.6588","4.80158","25.87","0","SATNPRO1963","23.784","0.33316","5"],
    [38429,"HCEP03730564","2024-11-01 14:30:00","11.9272","3.54625","27.457","2.384285714285714","7.49","4.987","7712.264","0.01","5.31","30.6594","4.80168","26.8","0","SATNPRO1963","23.772","0.33298","5"],
    [38430,"HCEP03730564","2024-11-01 14:45:00","11.9277","3.54642","27.522","2.384285714285714","7.51","4.986","7697.999","0.01","4.85","30.6606","4.80184","26.8","0","SATNPRO1963","23.762","0.33284","5"],
    [38431,"HCEP03730564","2024-11-01 15:00:00","11.9277","3.54654","27.581","2.397142857142857","7.51","5.005","7699.587","0.01","17.89","30.6617","4.80201","26.93","0","SATNPRO1963","23.828","0.33374","5"],
    [38432,"HCEP03730564","2024-11-01 15:15:00","11.9274","3.54609","27.641","2.405714285714286","7.51","4.969","7620.268","0.01","19.29","30.6576","4.80144","27.03","0","SATNPRO1963","23.644","0.33118","5"],
    [38433,"HCEP03730564","2024-11-01 15:30:00","11.9274","3.54616","27.716","2.382857142857143","7.51","4.988","7605.901","0.01","0","30.6582","4.80153","26.78","0","SATNPRO1963","23.696","0.3319","5"],
    [38434,"HCEP03730564","2024-11-01 15:45:00","11.9275","3.54616","27.708","2.388571428571428","7.51","5.024","7704.656","0.02","19.89","30.6582","4.80152","26.84","0","SATNPRO1963","23.720000000000002","0.33226","5"],
    [38435,"HCEP03730564","2024-11-01 16:00:00","11.9274","3.54615","27.683","2.397142857142857","7.5","5.034","7679.142","0.01","85.43","30.6581","4.80151","26.94","0","SATNPRO1963","23.682","0.33172","5"],
    [38436,"HCEP03730564","2024-11-01 16:15:00","11.9273","3.54535","27.633","2.401428571428572","7.5","5.041","7681.492","0.01","6.86","30.6505","4.80043","26.98","0","SATNPRO1963","23.718","0.33222","5"],
    [38437,"HCEP03730564","2024-11-01 16:30:00","11.9268","3.54453","27.603","2.361428571428572","7.51","5.088","7806.453","0.02","9.21","30.6431","4.7994","26.53","0","SATNPRO1963","23.368","0.32732","5"],
    [38438,"HCEP03730564","2024-11-01 16:45:00","11.9275","3.5441","27.56","2.332857142857143","7.5","4.989","7635.289","0.09","95.99","30.6385","4.79873","26.22","0","SATNPRO1963","23.426000000000002","0.3281","5"],
    [38439,"HCEP03730564","2024-11-01 17:00:00","11.9265","3.54296","27.494","2.315714285714286","7.5","4.907","7696.893","0.01","4.34","30.6283","4.79732","26.02","0","SATNPRO1963","22.982","0.32192","5"],
    [38440,"HCEP03730564","2024-11-01 17:15:00","11.9251","3.54149","27.423","2.221428571428572","7.5","4.79","7624.075","0.01","22.23","30.6154","4.79551","24.95","0","SATNPRO1963","22.5","0.31516","5"],
    [38441,"HCEP03730564","2024-11-01 17:30:00","11.9243","3.5411","27.353","2.115714285714286","7.49","4.844","7402.813","0.01","12.84","30.6123","4.79507","23.78","0","SATNPRO1963","22.398","0.31374","5"],
    [38442,"HCEP03730564","2024-11-01 17:45:00","11.9241","3.54076","27.24","2.058571428571429","7.49","4.852","7392.359","0","2.17","30.6093","4.79465","23.12","0","SATNPRO1963","22.34","0.3129","5"],
    [38443,"HCEP03730564","2024-11-01 18:00:00","11.9237","3.54019","27.133","2.017142857142857","7.48","4.668","7624.226","0.02","45.25","30.6041","4.79392","22.66","0","SATNPRO1963","22.044","0.30876","5"],
    [38444,"HCEP03730564","2024-11-01 18:15:00","11.9237","3.53993","26.998","1.992857142857143","7.47","4.832","6978.334","0.01","51.3","30.6018","4.79358","22.39","0","SATNPRO1963","22.18","0.31064","5"],
    [38445,"HCEP03730564","2024-11-01 18:30:00","11.9241","3.53969","26.835","1.982857142857143","7.48","4.837","6974.395","0.01","3.76","30.5992","4.7932","22.28","0","SATNPRO1963","22.186","0.31074","5"],
    [38446,"HCEP03730564","2024-11-01 18:45:00","11.9239","3.53926","26.674","1.992857142857143","7.48","4.619","7510.301","0.02","34.78","30.5953","4.79264","22.39","0","SATNPRO1963","22.238","0.31148","5"],
    [38447,"HCEP03730564","2024-11-01 19:00:00","11.9239","3.53896","26.603","1.991428571428571","7.47","4.848","6885.423","0.04","93.55","30.5924","4.79224","22.37","0","SATNPRO1963","21.954","0.30754","5"],
    [38448,"HCEP03730564","2024-11-01 19:15:00","11.923400000000001","3.53888","26.395","1.991428571428571","7.47","4.733","6804.121","0.01","7.2","30.5921","4.79219","22.37","0","SATNPRO1963","22.192","0.3108","5"],
    [38449,"HCEP03730564","2024-11-01 19:30:00","11.9233","3.53863","26.132","1.977142857142857","7.47","4.529","7558.055","0.03","44.57","30.5899","4.79186","22.21","0","SATNPRO1963","21.864","0.30622","5"],
    [38450,"HCEP03730564","2024-11-01 19:45:00","11.9235","3.53802","25.931","1.965714285714286","7.47","4.784","6934.307","0","43.07","30.584","4.79101","22.09","0","SATNPRO1963","21.59","0.30242","5"],
    [38451,"HCEP03730564","2024-11-01 20:00:00","11.9237","3.53685","25.727","1.954285714285714","7.48","4.794","6907.038","0.01","0","30.5727","4.78941","21.94","0","SATNPRO1963","21.726","0.30432","5"],
    [38452,"HCEP03730564","2024-11-01 20:15:00","11.9236","3.53552","25.562","1.94","7.47","4.546","7294.964","0.03","41.11","30.5601","4.78762","21.78","0","SATNPRO1963","21.39","0.29958","5"],
    [38453,"HCEP03730564","2024-11-01 20:30:00","11.9235","3.53437","25.409","1.922857142857143","7.46","5.029","6348.952","0.03","224.81","30.5492","4.78608","21.59","0","SATNPRO1963","21.535999999999998","0.30162","5"],
    [38454,"HCEP03730564","2024-11-01 20:45:00","11.9235","3.53343","25.242","1.905714285714286","7.46","4.868","6348.999","0.01","4.85","30.5402","4.7848","21.41","0","SATNPRO1963","21.21","0.29708","5"],
    [38455,"HCEP03730564","2024-11-01 21:00:00","11.9237","3.53298","25.068","1.895714285714286","7.46","4.638","7012.165","0.03","50.98","30.5358","4.78416","21.28","0","SATNPRO1963","21.302","0.29838","5"],
    [38456,"HCEP03730564","2024-11-01 21:15:00","11.9238","3.53298","24.898","1.885714285714286","7.46","4.839","6534.423","0.01","24.45","30.5358","4.78415","21.17","0","SATNPRO1963","21.704","0.30398","5"],
    [38457,"HCEP03730564","2024-11-01 21:30:00","11.9237","3.53303","24.727","1.877142857142857","7.46","4.84","6528.78","0.01","3.76","30.5364","4.78423","21.08","0","SATNPRO1963","21.876","0.30642","5"],
    [38458,"HCEP03730564","2024-11-01 21:45:00","11.9235","3.53356","24.575","1.884285714285714","7.46","4.534","7436.854","0.02","12.46","30.5417","4.78497","21.17","0","SATNPRO1963","21.316","0.29854","5"],
    [38459,"HCEP03730564","2024-11-01 22:00:00","11.9235","3.5345","24.455","1.89","7.46","4.729","6441.227","0.02","49.1","30.5508","4.78625","21.23","0","SATNPRO1963","21.586000000000002","0.30236","5"],
    [38460,"HCEP03730564","2024-11-01 22:15:00","11.9233","3.53514","24.363","1.89","7.46","4.738","6450.408","0.01","3.07","30.5571","4.78713","21.23","0","SATNPRO1963","21.4","0.29976","5"],
    [38461,"HCEP03730564","2024-11-01 22:30:00","11.923400000000001","3.53562","24.31","1.892857142857143","7.46","4.55","7264.897","0.03","81.71","30.5617","4.78778","21.25","0","SATNPRO1963","21.544","0.30174","5"],
    [38462,"HCEP03730564","2024-11-01 22:45:00","11.9237","3.53512","24.288","1.891428571428572","7.47","4.746","6544.922","0.02","63.11","30.5566","4.78706","21.24","0","SATNPRO1963","21.472","0.30074","5"],
    [38463,"HCEP03730564","2024-11-01 23:00:00","11.9238","3.53461","24.287","1.887142857142857","7.48","4.76","6559.481","0","3.76","30.5517","4.78636","21.19","0","SATNPRO1963","21.483999999999998","0.30092","5"],
    [38464,"HCEP03730564","2024-11-01 23:15:00","11.9237","3.5353","24.325","1.888571428571429","7.46","4.504","7364.074","0.03","32.11","30.5584","4.78731","21.21","0","SATNPRO1963","21.364","0.29924","5"],
    [38465,"HCEP03730564","2024-11-01 23:30:00","11.9233","3.53593","24.463","1.9","7.46","4.795","6504.951","0.02","30.53","30.5647","4.78821","21.34","0","SATNPRO1963","21.774","0.30498","5"],
    [38466,"HCEP03730564","2024-11-01 23:45:00","11.9231","3.53686","24.548","1.885714285714286","7.46","4.805","6501.116","0.01","3.07","30.5738","4.7895","21.17","0","SATNPRO1963","21.68","0.30366","5"],
    [38467,"HCEP03730564","2024-11-02 00:00:00","11.9233","3.53683","24.68","1.877142857142857","7.46","4.685","6964.26","0.03","52.66","30.5732","4.78942","21.08","0","SATNPRO1963","21.72","0.30424","5"],
    [38468,"HCEP03730564","2024-11-02 00:15:00","11.9228","3.53712","24.801","1.875714285714286","7.46","4.813","6447.51","0.03","76.62","30.5764","4.78989","21.06","0","SATNPRO1963","21.676","0.3036","5"],
    [38469,"HCEP03730564","2024-11-02 00:30:00","11.9235","3.53661","24.929","1.881428571428572","7.46","4.836","6479.743","0.01","3.07","30.5708","4.7891","21.13","0","SATNPRO1963","21.75","0.30464","5"],
    [38470,"HCEP03730564","2024-11-02 00:45:00","11.9238","3.5364","25.096","1.901428571428572","7.45","4.813","7153.644","0.01","20.24","30.5685","4.78878","21.35","0","SATNPRO1963","21.722","0.30426","5"],
    [38471,"HCEP03730564","2024-11-02 01:00:00","11.9229","3.53671","25.268","1.901428571428572","7.46","4.821","6648.965","0.01","49.91","30.5721","4.78931","21.35","0","SATNPRO1963","21.822","0.30564","5"],
    [38472,"HCEP03730564","2024-11-02 01:15:00","11.9237","3.53659","25.409","1.902857142857143","7.46","4.841","6640.817","0.01","3.76","30.5703","4.78905","21.37","0","SATNPRO1963","21.56","0.302","5"],
    [38473,"HCEP03730564","2024-11-02 01:30:00","11.9237","3.53669","25.579","1.9","7.46","4.908","7472.803","0.01","11.48","30.5713","4.7892","21.33","0","SATNPRO1963","21.662","0.30342","5"],
    [38474,"HCEP03730564","2024-11-02 01:45:00","11.9237","3.5364","25.742","1.891428571428572","7.46","4.885","7402.704","0.01","20.58","30.5683","4.78879","21.25","0","SATNPRO1963","21.672","0.30358","5"],
    [38475,"HCEP03730564","2024-11-02 02:00:00","11.9231","3.53651","25.958","1.898571428571429","7.45","4.895","7387.24","0.01","0","30.5697","4.78901","21.33","0","SATNPRO1963","21.338","0.29884","5"],
    [38476,"HCEP03730564","2024-11-02 02:15:00","11.9214","3.53638","26.168","1.857142857142857","7.46","4.896","7644.061","0.01","7.82","30.5699","4.78906","20.86","0","SATNPRO1963","21.2","0.29692","5"],
    [38477,"HCEP03730564","2024-11-02 02:30:00","11.9194","3.53488","26.347","1.724285714285714","7.45","4.861","7385.53","0.02","28.7","30.5571","4.7873","19.36","0","SATNPRO1963","20.248","0.2836","5"],
    [38478,"HCEP03730564","2024-11-02 02:45:00","11.9199","3.5353","26.519","1.605714285714286","7.44","4.875","7377.517","0.01","0","30.5605","4.78779","18.03","0","SATNPRO1963","20.666","0.28948","5"],
    [38479,"HCEP03730564","2024-11-02 03:00:00","11.9208","3.5361","26.719","1.621428571428571","7.44","4.935","7682.76","0.01","6.86","30.5675","4.78876","18.21","0","SATNPRO1963","20.89","0.29262","5"],
    [38480,"HCEP03730564","2024-11-02 03:15:00","11.9211","3.53548","26.938","1.674285714285714","7.43","4.839","7493.871","0.03","52.35","30.5612","4.78788","18.8","0","SATNPRO1963","20.982","0.2939","5"],
    [38481,"HCEP03730564","2024-11-02 03:30:00","11.9218","3.53614","27.148","1.712857142857143","7.43","4.856","7508.793","0.01","0","30.5669","4.7887","19.24","0","SATNPRO1963","21.218","0.2972","5"],
    [38482,"HCEP03730564","2024-11-02 03:45:00","11.9214","3.53668","27.308","1.754285714285714","7.44","4.962","7687.967","0.01","4.34","30.5723","4.78947","19.7","0","SATNPRO1963","21.014","0.29432","5"],
    [38483,"HCEP03730564","2024-11-02 04:00:00","11.9213","3.53673","27.422","1.752857142857143","7.44","4.849","7557.525","0.02","14.56","30.5728","4.78955","19.68","0","SATNPRO1963","21.108","0.29558","5"],
    [38484,"HCEP03730564","2024-11-02 04:15:00","11.9212","3.53673","27.52","1.748571428571429","7.44","4.861","7553.607","0.01","0","30.5729","4.78957","19.63","0","SATNPRO1963","20.896","0.2927","5"],
    [38485,"HCEP03730564","2024-11-02 04:30:00","11.921","3.53683","27.605","1.732857142857143","7.44","5.007","7656.339","0.01","18.15","30.5739","4.78972","19.45","0","SATNPRO1963","20.946","0.2934","5"],
    [38486,"HCEP03730564","2024-11-02 04:45:00","11.9207","3.53682","27.671","1.711428571428571","7.44","4.973","7643.695","0.01","42.02","30.5741","4.78975","19.22","0","SATNPRO1963","20.796","0.29132","5"],
    [38487,"HCEP03730564","2024-11-02 05:00:00","11.9206","3.53684","27.727","1.69","7.44","4.988","7650.7","0.01","3.07","30.5744","4.7898","18.98","0","SATNPRO1963","20.618","0.2888","5"],
    [38488,"HCEP03730564","2024-11-02 05:15:00","11.9205","3.5368","27.767","1.674285714285714","7.44","5.029","7714.689","0.01","8.95","30.574","4.78975","18.8","0","SATNPRO1963","20.034","0.28062","5"],
    [38489,"HCEP03730564","2024-11-02 05:30:00","11.9206","3.53701","27.797","1.671428571428571","7.44","4.895","7503.454","0.01","37.77","30.5759","4.79002","18.77","0","SATNPRO1963","20.77","0.29092","5"],
    [38490,"HCEP03730564","2024-11-02 05:45:00","11.9211","3.53719","27.777","1.681428571428572","7.44","4.875","7471.966","0.01","0","30.5773","4.7902","18.88","0","SATNPRO1963","21.052","0.29486","5"],
    [38491,"HCEP03730564","2024-11-02 06:00:00","11.9216","3.53727","27.766","1.712857142857143","7.44","4.827","7586.877","0.01","19.65","30.5776","4.79024","19.24","0","SATNPRO1963","21.202","0.29694","5"],
    [38492,"HCEP03730564","2024-11-02 06:15:00","11.9227","3.53531","27.797","1.742857142857143","7.44","4.878","7442.207","0.01","39.12","30.558","4.78746","19.58","0","SATNPRO1963","21.202","0.29698","5"],
    [38493,"HCEP03730564","2024-11-02 06:30:00","11.9231","3.53375","27.783","1.767142857142857","7.45","4.882","7421.664","0.01","3.07","30.5426","4.78527","19.84","0","SATNPRO1963","21.274","0.29796","5"],
    [38494,"HCEP03730564","2024-11-02 06:45:00","11.9224","3.53461","27.776","1.761428571428572","7.44","4.869","7577.664","0.01","11.48","30.5514","4.78654","19.77","0","SATNPRO1963","20.922","0.29308","5"],
    [38495,"HCEP03730564","2024-11-02 07:00:00","11.9216","3.53609","27.721","1.745714285714286","7.45","4.867","7438.992","0.01","19.77","30.5663","4.78864","19.61","0","SATNPRO1963","21.2","0.29694","5"],
    [38496,"HCEP03730564","2024-11-02 07:15:00","11.923400000000001","3.53437","27.674","1.8","7.44","4.868","7413.078","0.01","4.85","30.5484","4.78609","20.22","0","SATNPRO1963","21.576","0.3022","5"],
    [38497,"HCEP03730564","2024-11-02 07:30:00","11.9233","3.53434","27.584","1.867142857142857","7.44","4.873","7611.222","0.01","8.68","30.5482","4.78606","20.96","0","SATNPRO1963","21.366","0.29928","5"],
    [38498,"HCEP03730564","2024-11-02 07:45:00","11.9224","3.53631","27.5","1.817142857142857","7.44","4.858","7381.078","0.01","45.62","30.5678","4.78883","20.41","0","SATNPRO1963","21.318","0.29858","5"],
    [38499,"HCEP03730564","2024-11-02 08:00:00","11.9222","3.53565","27.439","1.778571428571429","7.44","4.861","7352.072","0.01","4.34","30.5617","4.78797","19.97","0","SATNPRO1963","21.212","0.29714","5"],
    [38500,"HCEP03730564","2024-11-02 08:15:00","11.9216","3.536","27.38","1.777142857142857","7.45","4.886","7593.662","0.01","6.14","30.5657","4.78853","19.95","0","SATNPRO1963","21.066","0.29506","5"],
    [38501,"HCEP03730564","2024-11-02 08:30:00","11.922","3.53583","27.302","1.765714285714286","7.45","4.859","7494.965","0.01","16.52","30.5637","4.78825","19.83","0","SATNPRO1963","21.282","0.29812","5"],
    [38502,"HCEP03730564","2024-11-02 08:45:00","11.9227","3.53543","27.227","1.792857142857143","7.45","4.863","7481.084","0.01","5.74","30.5593","4.78762","20.13","0","SATNPRO1963","21.334","0.29882","5"],
    [38503,"HCEP03730564","2024-11-02 09:00:00","11.9225","3.53604","27.124","1.795714285714286","7.45","4.85","7594.445","0.01","6.14","30.5654","4.78847","20.16","0","SATNPRO1963","21.398","0.29968","5"],
    [38504,"HCEP03730564","2024-11-02 09:15:00","11.9236","3.53679","27.032","1.852857142857143","7.45","4.814","7320.133","0.02","61.98","30.5717","4.78933","20.81","0","SATNPRO1963","22.034","0.30864","5"],
    [38505,"HCEP03730564","2024-11-02 09:30:00","11.9255","3.53775","26.932","1.974285714285714","7.45","4.818","7280.898","0.01","4.34","30.5793","4.79038","22.17","0","SATNPRO1963","22.274","0.31198","5"],
    [38506,"HCEP03730564","2024-11-02 09:45:00","11.9257","3.53773","26.843","2.062857142857143","7.46","4.84","7613.599","0.01","7.52","30.579","4.79033","23.18","0","SATNPRO1963","22.682","0.31768","5"],
    [38507,"HCEP03730564","2024-11-02 10:00:00","11.9251","3.53742","26.751","2.031428571428572","7.46","4.86","7372.053","0.01","56.5","30.5766","4.78999","22.82","0","SATNPRO1963","22.038","0.30868","5"],
    [38508,"HCEP03730564","2024-11-02 10:15:00","11.9251","3.53773","26.668","2.001428571428571","7.46","4.86","7334.104","0.01","6.51","30.5796","4.79041","22.48","0","SATNPRO1963","22.274","0.312","5"],
    [38509,"HCEP03730564","2024-11-02 10:30:00","11.9256","3.53802","26.596","2.042857142857143","7.46","4.855","7638.876","0.01","6.86","30.582","4.79074","22.94","0","SATNPRO1963","22.502","0.31512","5"],
    [38510,"HCEP03730564","2024-11-02 10:45:00","11.9266","3.53851","26.535","2.111428571428572","7.47","4.841","7352.448","0.01","29.19","30.5859","4.79128","23.71","0","SATNPRO1963","22.678","0.31766","5"],
    [38511,"HCEP03730564","2024-11-02 11:00:00","11.927","3.53861","26.498","2.142857142857143","7.47","4.839","7321.695","0.01","0","30.5865","4.79135","24.06","0","SATNPRO1963","22.721999999999998","0.31826","5"],
    [38512,"HCEP03730564","2024-11-02 11:15:00","11.9273","3.53903","26.48","2.162857142857143","7.48","4.877","7650.755","0.01","6.14","30.5903","4.79189","24.29","0","SATNPRO1963","22.902","0.32078","5"],
    [38513,"HCEP03730564","2024-11-02 11:30:00","11.9273","3.53927","26.496","2.181428571428572","7.48","4.853","7493.909","0.01","18.41","30.5926","4.79221","24.5","0","SATNPRO1963","22.79","0.3192","5"],
    [38514,"HCEP03730564","2024-11-02 11:45:00","11.9271","3.53936","26.511","2.174285714285714","7.48","4.857","7470.342","0.01","0","30.5937","4.79236","24.43","0","SATNPRO1963","22.942","0.32134","5"],
    [38515,"HCEP03730564","2024-11-02 12:00:00","11.9272","3.53977","26.546","2.158571428571428","7.49","4.824","7602.307","0.01","8.4","30.5976","4.79291","24.24","0","SATNPRO1963","22.838","0.31986","5"],
    [38516,"HCEP03730564","2024-11-02 12:15:00","11.9241","3.54019","26.577","2.104285714285714","7.48","4.831","7396.172","0.01","39.12","30.6041","4.79388","23.63","0","SATNPRO1963","21.712","0.3041","5"],
    [38517,"HCEP03730564","2024-11-02 12:30:00","11.9228","3.54332","26.619","1.947142857142857","7.47","4.83","7344.216","0.01","0","30.6352","4.79829","21.88","0","SATNPRO1963","22.404","0.31382","5"],
    [38518,"HCEP03730564","2024-11-02 12:45:00","11.9242","3.54619","26.686","2.032857142857143","7.47","4.858","7626.346","0.01","9.21","30.6616","4.80199","22.85","0","SATNPRO1963","22.92","0.32104","5"],
    [38519,"HCEP03730564","2024-11-02 13:00:00","11.9252","3.54769","26.757","2.132857142857143","7.48","4.838","7476.701","0.01","11.27","30.6751","4.80389","23.97","0","SATNPRO1963","23.204","0.325","5"],
    [38520,"HCEP03730564","2024-11-02 13:15:00","11.9257","3.54879","26.847","2.215714285714286","7.48","4.842","7458.7","0.01","6.14","30.6852","4.80531","24.91","0","SATNPRO1963","23.400000000000002","0.32774","5"],
    [38521,"HCEP03730564","2024-11-02 13:30:00","11.9256","3.54899","26.933","2.237142857142857","7.49","4.902","7546.872","0.01","17.63","30.6872","4.80559","25.14","0","SATNPRO1963","23.42","0.32806","5"],
    [38522,"HCEP03730564","2024-11-02 13:45:00","11.9264","3.54936","27.014","2.245714285714286","7.49","4.838","7332.877","0.01","48.28","30.69","4.80599","25.25","0","SATNPRO1963","23.704","0.332","5"],
    [38523,"HCEP03730564","2024-11-02 14:00:00","11.9275","3.55004","27.098","2.325714285714286","7.49","4.847","7300.96","0","0","30.6956","4.80677","26.14","0","SATNPRO1963","24.067999999999998","0.3371","5"],
    [38524,"HCEP03730564","2024-11-02 14:15:00","11.9273","3.55021","27.201","2.37","7.49","4.906","7507.3","0.01","25.12","30.6973","4.80702","26.64","0","SATNPRO1963","24.012","0.33636","5"],
    [38525,"HCEP03730564","2024-11-02 14:30:00","11.928","3.5508","27.283","2.39","7.49","4.864","7409.963","0.01","13.02","30.7024","4.80774","26.86","0","SATNPRO1963","24.282","0.34008","5"],
    [38526,"HCEP03730564","2024-11-02 14:45:00","11.9278","3.55061","27.342","2.418571428571429","7.49","4.902","7404.06","0.01","6.14","30.7007","4.8075","27.19","0","SATNPRO1963","24.216","0.33916","5"],
    [38527,"HCEP03730564","2024-11-02 15:00:00","11.9277","3.5506","27.426","2.391428571428572","7.5","4.93","7560.338","0.01","6.14","30.7007","4.8075","26.88","0","SATNPRO1963","24.18","0.33864","5"],
    [38528,"HCEP03730564","2024-11-02 15:15:00","11.9285","3.55101","27.49","2.387142857142858","7.5","4.841","7377.755","0.01","21.91","30.704","4.80796","26.84","0","SATNPRO1963","24.546","0.34378","5"],
    [38529,"HCEP03730564","2024-11-02 15:30:00","11.9282","3.55103","27.562","2.404285714285714","7.5","4.847","7366.24","0","7.2","30.7044","4.80803","27.03","0","SATNPRO1963","24.268","0.33992","5"],
    [38530,"HCEP03730564","2024-11-02 15:45:00","11.9281","3.5512","27.593","2.395714285714286","7.5","4.92","7572.881","0.02","8.95","30.706","4.80825","26.94","0","SATNPRO1963","24.31","0.34052","5"],
    [38531,"HCEP03730564","2024-11-02 16:00:00","11.9286","3.55122","27.619","2.394285714285714","7.5","4.962","7507.277","0.01","74.47","30.7058","4.80822","26.91","0","SATNPRO1963","24.196","0.3389","5"],
    [38532,"HCEP03730564","2024-11-02 16:15:00","11.9279","3.55097","27.64","2.384285714285714","7.5","4.979","7530.188","0.01","3.07","30.704","4.80798","26.8","0","SATNPRO1963","23.828","0.33376","5"],
    [38533,"HCEP03730564","2024-11-02 16:30:00","11.9281","3.55091","27.645","2.38","7.5","5.022","7628.398","0.01","10.85","30.7032","4.80786","26.76","0","SATNPRO1963","24.156","0.3383","5"],
    [38534,"HCEP03730564","2024-11-02 16:45:00","11.9281","3.5508","27.638","2.392857142857143","7.5","4.978","7372.719","0.01","71.54","30.7021","4.80771","26.9","0","SATNPRO1963","23.886","0.33458","5"],
    [38535,"HCEP03730564","2024-11-02 17:00:00","11.9283","3.55078","27.62","2.4","7.5","4.924","7346.167","0.01","0","30.7019","4.80767","26.98","0","SATNPRO1963","23.946","0.33538","5"],
    [38536,"HCEP03730564","2024-11-02 17:15:00","11.9282","3.551","27.577","2.407142857142858","7.5","4.932","7603.469","0.01","5.31","30.704","4.80797","27.05","0","SATNPRO1963","24.14","0.3381","5"],
    [38537,"HCEP03730564","2024-11-02 17:30:00","11.9279","3.55106","27.465","2.397142857142857","7.5","4.817","7378.638","0.02","60.4","30.705","4.8081","26.95","0","SATNPRO1963","24.304","0.3404","5"],
    [38538,"HCEP03730564","2024-11-02 17:45:00","11.9276","3.55086","27.365","2.378571428571429","7.51","4.844","7416.789","0.01","4.85","30.7033","4.80787","26.74","0","SATNPRO1963","23.878","0.33446","5"],
    [38539,"HCEP03730564","2024-11-02 18:00:00","11.9276","3.55085","27.251","2.351428571428571","7.51","4.956","7579.016","0.01","9.46","30.7032","4.80785","26.44","0","SATNPRO1963","23.948","0.33544","5"],
    [38540,"HCEP03730564","2024-11-02 18:15:00","11.9278","3.55071","27.138","2.364285714285714","7.5","4.973","7439.253","0.03","41.91","30.7018","4.80764","26.59","0","SATNPRO1963","24.036","0.33664","5"],
    [38541,"HCEP03730564","2024-11-02 18:30:00","11.9281","3.55085","27.011","2.378571428571429","7.5","5.024","7504.708","0","4.85","30.703","4.8078","26.74","0","SATNPRO1963","23.951999999999998","0.33546","5"],
    [38542,"HCEP03730564","2024-11-02 18:45:00","11.9272","3.55032","26.879","2.381428571428572","7.5","4.974","7570.413","0.02","33.33","30.6986","4.80718","26.77","0","SATNPRO1963","23.726","0.33232","5"],
    [38543,"HCEP03730564","2024-11-02 19:00:00","11.9266","3.54983","26.733","2.345714285714286","7.5","4.909","7506.167","0.01","12.46","30.6945","4.8066","26.37","0","SATNPRO1963","23.686","0.33176","5"],
    [38544,"HCEP03730564","2024-11-02 19:15:00","11.9275","3.54921","26.564","2.32","7.5","4.934","7513.122","0.01","3.76","30.6879","4.80564","26.07","0","SATNPRO1963","23.792","0.33324","5"],
    [38545,"HCEP03730564","2024-11-02 19:30:00","11.9268","3.54812","26.291","2.328571428571428","7.49","4.668","7391.979","0.01","15.94","30.6781","4.80426","26.17","0","SATNPRO1963","23.578","0.33024","5"],
    [38546,"HCEP03730564","2024-11-02 19:45:00","11.9268","3.5471","26.097","2.285714285714286","7.49","4.746","6555.632","0.01","69.23","30.6684","4.80289","25.69","0","SATNPRO1963","23.212","0.32516","5"],
    [38547,"HCEP03730564","2024-11-02 20:00:00","11.927","3.54589","25.914","2.258571428571428","7.49","4.755","6540.944","0.01","3.76","30.6566","4.80121","25.38","0","SATNPRO1963","23.258","0.32574","5"],
    [38548,"HCEP03730564","2024-11-02 20:15:00","11.927","3.54522","25.741","2.244285714285714","7.48","4.405","7195.298","0.03","45.93","30.6503","4.80031","25.22","0","SATNPRO1963","23.426000000000002","0.32812","5"],
    [38549,"HCEP03730564","2024-11-02 20:30:00","11.9273","3.54451","25.545","2.225714285714286","7.48","4.728","6668.419","0.02","35.98","30.6433","4.79931","25.01","0","SATNPRO1963","23.296","0.32626","5"],
    [38550,"HCEP03730564","2024-11-02 20:45:00","11.9272","3.54281","25.336","2.205714285714286","7.49","4.771","6672.979","0.01","7.52","30.6272","4.79703","24.79","0","SATNPRO1963","23.404","0.32784","5"],
    [38551,"HCEP03730564","2024-11-02 21:00:00","11.927","3.5419","25.165","2.177142857142857","7.48","4.424","7192.667","0.01","43.67","30.6186","4.79581","24.47","0","SATNPRO1963","23.136","0.32406","5"],
    [38552,"HCEP03730564","2024-11-02 21:15:00","11.9272","3.54095","24.985","2.155714285714286","7.48","4.651","6379.78","0.02","52.53","30.6094","4.79449","24.22","0","SATNPRO1963","23.026","0.32254","5"],
    [38553,"HCEP03730564","2024-11-02 21:30:00","11.9268","3.54064","24.797","2.145714285714286","7.48","4.585","6353.326","0","0","30.6069","4.79414","24.11","0","SATNPRO1963","22.87","0.32034","5"],
    [38554,"HCEP03730564","2024-11-02 21:45:00","11.927","3.54043","24.594","2.134285714285714","7.47","4.189","6991.611","0.02","14.88","30.6048","4.79383","23.97","0","SATNPRO1963","22.87","0.32034","5"],
    [38555,"HCEP03730564","2024-11-02 22:00:00","11.9273","3.54028","24.432","2.128571428571429","7.47","4.694","6044.497","0.01","36.37","30.6032","4.79358","23.92","0","SATNPRO1963","22.912","0.32088","5"],
    [38556,"HCEP03730564","2024-11-02 22:15:00","11.9276","3.53998","24.281","2.14","7.47","4.694","6044.824","0.01","2.66","30.6001","4.79313","24.04","0","SATNPRO1963","22.994","0.32208","5"],
    [38557,"HCEP03730564","2024-11-02 22:30:00","11.9283","3.5395","24.171","2.154285714285714","7.48","4.351","6913.382","0.02","36.11","30.5949","4.79239","24.2","0","SATNPRO1963","22.976","0.32186","5"],
    [38558,"HCEP03730564","2024-11-02 22:45:00","11.9281","3.53826","24.122","2.157142857142857","7.49","4.897","5653.001","0.07","293","30.5833","4.79075","24.23","0","SATNPRO1963","22.938","0.3213","5"],
    [38559,"HCEP03730564","2024-11-02 23:00:00","11.928","3.53748","24.114","2.12","7.49","4.7","5725.368","0.01","2.66","30.5759","4.7897","23.81","0","SATNPRO1963","23.344","0.32696","5"],
    [38560,"HCEP03730564","2024-11-02 23:15:00","11.9279","3.53781","24.156","2.1","7.48","4.433","6128.565","0.03","39.57","30.579","4.79015","23.59","0","SATNPRO1963","22.974","0.32182","5"],
    [38561,"HCEP03730564","2024-11-02 23:30:00","11.928","3.53807","24.204","2.105714285714286","7.48","4.68","5759.045","0.01","36.63","30.5815","4.7905","23.65","0","SATNPRO1963","22.72","0.31826","5"],
    [38562,"HCEP03730564","2024-11-02 23:45:00","11.9277","3.53806","24.276","2.101428571428571","7.48","4.683","5741.738","0.01","4.6","30.5815","4.79052","23.61","0","SATNPRO1963","23.042","0.32276","5"],
    [38563,"HCEP03730564","2024-11-03 00:00:00","11.9276","3.53825","24.351","2.1","7.47","4.596","6508.421","0.01","9.94","30.5835","4.7908","23.58","0","SATNPRO1963","22.682","0.31768","5"],
    [38564,"HCEP03730564","2024-11-03 00:15:00","11.9278","3.53841","24.442","2.1","7.47","4.758","5817.633","0.02","69.2","30.5848","4.79099","23.59","0","SATNPRO1963","22.788","0.31922","5"],
    [38565,"HCEP03730564","2024-11-03 00:30:00","11.9274","3.53812","24.58","2.082857142857143","7.47","4.761","5824.219","0.01","3.07","30.5822","4.79064","23.4","0","SATNPRO1963","22.738","0.31852","5"],
    [38566,"HCEP03730564","2024-11-03 00:45:00","11.9271","3.53799","24.651","2.062857142857143","7.47","4.678","6587.582","0.01","17.76","30.5812","4.7905","23.17","0","SATNPRO1963","22.62","0.31684","5"],
    [38567,"HCEP03730564","2024-11-03 01:00:00","11.9272","3.5381","24.822","2.051428571428572","7.47","4.698","6229.038","0.01","49.81","30.5821","4.79064","23.05","0","SATNPRO1963","22.486","0.315","5"],
    [38568,"HCEP03730564","2024-11-03 01:15:00","11.9273","3.53839","24.987","2.055714285714286","7.47","4.716","6239.128","0.01","0","30.5848","4.79102","23.1","0","SATNPRO1963","22.678","0.31764","5"],
    [38569,"HCEP03730564","2024-11-03 01:30:00","11.923400000000001","3.5402","25.158","1.992857142857143","7.47","4.711","6861.11","0.01","26.57","30.6053","4.79398","22.39","0","SATNPRO1963","21.4","0.29974","5"],
    [38570,"HCEP03730564","2024-11-03 01:45:00","11.9226","3.54156","25.319","1.83","7.47","4.744","6340.701","0.02","48.42","30.6189","4.79592","20.56","0","SATNPRO1963","21.572","0.30218","5"],
    [38571,"HCEP03730564","2024-11-03 02:00:00","11.9224","3.54196","25.483","1.8","7.46","4.761","6352.842","0","0","30.6229","4.7965","20.22","0","SATNPRO1963","21.574","0.30218","5"],
    [38572,"HCEP03730564","2024-11-03 02:15:00","11.921","3.54122","25.67","1.755714285714286","7.46","4.733","6853.281","0.01","26.31","30.6169","4.79568","19.72","0","SATNPRO1963","21.146","0.2962","5"],
    [38573,"HCEP03730564","2024-11-03 02:30:00","11.9201","3.54094","25.851","1.662857142857143","7.44","4.735","6471.642","0.01","57.61","30.6148","4.79541","18.68","0","SATNPRO1963","20.776","0.29098","5"],
    [38574,"HCEP03730564","2024-11-03 02:45:00","11.9206","3.54063","26.043","1.627142857142857","7.43","4.745","6476.187","0.01","2.17","30.6114","4.79493","18.27","0","SATNPRO1963","20.568","0.28808","5"],
    [38575,"HCEP03730564","2024-11-03 03:00:00","11.9207","3.54056","26.222","1.614285714285714","7.44","4.728","6773.372","0.01","23.37","30.6106","4.79483","18.13","0","SATNPRO1963","20.96","0.29362","5"],
    [38576,"HCEP03730564","2024-11-03 03:15:00","11.9214","3.54067","26.448","1.64","7.45","4.747","6157.034","0.03","48.52","30.611","4.79488","18.43","0","SATNPRO1963","21.098","0.29548","5"],
    [38577,"HCEP03730564","2024-11-03 03:30:00","11.9217","3.5408","26.648","1.675714285714286","7.45","4.761","6167.478","0","4.06","30.6119","4.79502","18.83","0","SATNPRO1963","21.194","0.29686","5"],
    [38578,"HCEP03730564","2024-11-03 03:45:00","11.9222","3.54099","26.84","1.704285714285714","7.44","4.712","6621.393","0.01","14.72","30.6132","4.79521","19.15","0","SATNPRO1963","21.27","0.29788","5"],
    [38579,"HCEP03730564","2024-11-03 04:00:00","11.9225","3.54107","27.024","1.722857142857143","7.44","4.681","6035.648","0.01","46.86","30.6136","4.79527","19.35","0","SATNPRO1963","21.349999999999998","0.29906","5"],
    [38580,"HCEP03730564","2024-11-03 04:15:00","11.9235","3.54033","27.178","1.757142857142857","7.44","4.698","6059.875","0","3.43","30.6057","4.79414","19.73","0","SATNPRO1963","21.494","0.30108","5"],
    [38581,"HCEP03730564","2024-11-03 04:30:00","11.9254","3.53964","27.31","1.804285714285714","7.44","4.665","6777.188","0.02","22.65","30.5975","4.79297","20.27","0","SATNPRO1963","21.602","0.30258","5"],
    [38582,"HCEP03730564","2024-11-03 04:45:00","11.9237","3.54053","27.455","1.818571428571428","7.45","4.686","6241.345","0.02","70.31","30.6074","4.79439","20.42","0","SATNPRO1963","21.508","0.30128","5"],
    [38583,"HCEP03730564","2024-11-03 05:00:00","11.9267","3.53864","27.563","1.84","7.45","4.684","6243.415","0.01","4.85","30.5867","4.79144","20.68","0","SATNPRO1963","22.5","0.3152","5"],
    [38584,"HCEP03730564","2024-11-03 05:15:00","11.927","3.53747","27.643","1.93","7.45","4.335","6533.532","0.04","23.27","30.5752","4.78981","21.67","0","SATNPRO1963","22.34","0.3129","5"],
    [38585,"HCEP03730564","2024-11-03 05:30:00","11.9262","3.53693","27.689","1.944285714285714","7.45","4.636","5791.247","0.02","39.77","30.5706","4.78919","21.84","0","SATNPRO1963","22.022","0.30846","5"],
    [38586,"HCEP03730564","2024-11-03 05:45:00","11.9244","3.53987","27.75","1.898571428571429","7.45","4.643","5786.834","0.01","2.66","30.6003","4.79341","21.32","0","SATNPRO1963","21.53","0.30154","5"],
    [38587,"HCEP03730564","2024-11-03 06:00:00","11.9251","3.53903","27.764","1.865714285714286","7.45","4.308","6394.819","0.04","32.26","30.5917","4.79219","20.96","0","SATNPRO1963","21.701999999999998","0.304","5"],
    [38588,"HCEP03730564","2024-11-03 06:15:00","11.9243","3.54073","27.775","1.858571428571428","7.45","4.643","5648.085","0.02","34.34","30.6086","4.79458","20.87","0","SATNPRO1963","21.734","0.30442","5"],
    [38589,"HCEP03730564","2024-11-03 06:30:00","11.9245","3.5411","27.771","1.827142857142857","7.45","4.654","5649.554","0.01","3.07","30.612","4.79505","20.53","0","SATNPRO1963","21.986","0.30794","5"],
    [38590,"HCEP03730564","2024-11-03 06:45:00","11.9266","3.5391","27.768","1.872857142857143","7.45","4.413","6470.214","0.03","75.69","30.591","4.79207","21.04","0","SATNPRO1963","22.372","0.31336","5"],
    [38591,"HCEP03730564","2024-11-03 07:00:00","11.9271","3.53831","27.74","1.942857142857143","7.46","4.647","5693.089","0.02","24.36","30.5831","4.79094","21.82","0","SATNPRO1963","22.612","0.31672","5"],
    [38592,"HCEP03730564","2024-11-03 07:15:00","11.927","3.53906","27.751","1.982857142857143","7.48","4.659","5682.911","0","2.17","30.5904","4.79197","22.27","0","SATNPRO1963","22.562","0.316","5"],
    [38593,"HCEP03730564","2024-11-03 07:30:00","11.9262","3.5396","27.738","1.985714285714286","7.47","4.628","6721.519","0.02","56.71","30.5962","4.7928","22.31","0","SATNPRO1963","22.184","0.31074","5"],
    [38594,"HCEP03730564","2024-11-03 07:45:00","11.9251","3.54137","27.698","1.932857142857143","7.46","4.643","6159.396","0.01","35.22","30.6142","4.79535","21.72","0","SATNPRO1963","22.088","0.30934","5"],
    [38595,"HCEP03730564","2024-11-03 08:00:00","11.9252","3.54034","27.661","1.92","7.46","4.661","6166.274","0","3.07","30.6042","4.79393","21.57","0","SATNPRO1963","22.062","0.30904","5"],
    [38596,"HCEP03730564","2024-11-03 08:15:00","11.9249","3.5411","27.613","1.911428571428572","7.46","4.623","6369.857","0.01","15.65","30.6118","4.79501","21.48","0","SATNPRO1963","21.822","0.30566","5"],
    [38597,"HCEP03730564","2024-11-03 08:30:00","11.9241","3.54131","27.563","1.881428571428572","7.45","4.676","6026.616","0.01","57.98","30.6145","4.7954","21.13","0","SATNPRO1963","21.85","0.30606","5"],
    [38598,"HCEP03730564","2024-11-03 08:45:00","11.924","3.53866","27.508","1.847142857142857","7.45","4.675","6018.732","0.01","3.76","30.5891","4.79182","20.75","0","SATNPRO1963","21.294","0.29824","5"],
    [38599,"HCEP03730564","2024-11-03 09:00:00","11.9242","3.54201","27.439","1.837142857142857","7.45","4.658","6445.079","0.01","12.27","30.6212","4.79633","20.64","0","SATNPRO1963","21.882","0.30648","5"],
    [38600,"HCEP03730564","2024-11-03 09:15:00","11.9235","3.54302","27.359","1.852857142857143","7.45","4.651","6159.591","0.02","43.72","30.6314","4.79778","20.82","0","SATNPRO1963","21.956","0.30752","5"],
    [38601,"HCEP03730564","2024-11-03 09:30:00","11.9241","3.5428","27.284","1.847142857142857","7.46","4.658","6118.343","0.01","4.06","30.6289","4.79741","20.75","0","SATNPRO1963","22.114","0.30974","5"],
    [38602,"HCEP03730564","2024-11-03 09:45:00","11.9244","3.54209","27.202","1.86","7.45","4.668","6514.193","0.01","16.52","30.6218","4.79641","20.89","0","SATNPRO1963","22.116","0.30978","5"],
    [38603,"HCEP03730564","2024-11-03 10:00:00","11.9241","3.54235","27.114","1.881428571428572","7.45","4.698","6154.97","0.01","13.72","30.6246","4.7968","21.14","0","SATNPRO1963","21.98","0.30786","5"],
    [38604,"HCEP03730564","2024-11-03 10:15:00","11.9252","3.54216","27.025","1.9","7.46","4.7","6139.388","0.01","4.34","30.6219","4.7964","21.34","0","SATNPRO1963","22.436","0.31426","5"],
    [38605,"HCEP03730564","2024-11-03 10:30:00","11.9246","3.54258","26.943","1.925714285714286","7.45","4.67","6432.509","0.01","22.02","30.6265","4.79705","21.64","0","SATNPRO1963","22.39","0.31358","5"],
    [38606,"HCEP03730564","2024-11-03 10:45:00","11.9248","3.54314","26.859","1.925714285714286","7.46","4.706","6213.557","0.01","20.58","30.6317","4.79778","21.63","0","SATNPRO1963","22.398","0.31368","5"],
    [38607,"HCEP03730564","2024-11-03 11:00:00","11.9266","3.54383","26.773","2.018571428571429","7.46","4.709","6178.308","0.01","3.76","30.6369","4.79849","22.68","0","SATNPRO1963","23.032","0.3226","5"],
    [38608,"HCEP03730564","2024-11-03 11:15:00","11.9262","3.54458","26.705","2.105714285714286","7.46","4.696","6677.333","0.01","18.15","30.6445","4.79955","23.66","0","SATNPRO1963","22.844","0.31998","5"],
    [38609,"HCEP03730564","2024-11-03 11:30:00","11.9266","3.54516","26.645","2.111428571428572","7.47","4.713","6350.296","0.02","23.37","30.6497","4.80028","23.73","0","SATNPRO1963","23.088","0.3234","5"],
    [38610,"HCEP03730564","2024-11-03 11:45:00","11.9264","3.54516","26.602","2.11","7.47","4.719","6336.75","0.01","3.76","30.6499","4.80032","23.71","0","SATNPRO1963","23.034","0.3226","5"],
    [38611,"HCEP03730564","2024-11-03 12:00:00","11.9262","3.54541","26.58","2.091428571428572","7.47","4.697","6832.829","0.01","14.72","30.6524","4.80066","23.51","0","SATNPRO1963","23.076","0.32324","5"],
    [38612,"HCEP03730564","2024-11-03 12:15:00","11.9243","3.54608","26.579","2.047142857142857","7.47","4.72","6522.327","0.01","45.1","30.6605","4.80183","23.01","0","SATNPRO1963","22.596","0.3165","5"],
    [38613,"HCEP03730564","2024-11-03 12:30:00","11.9244","3.54701","26.592","1.981428571428572","7.47","4.733","6525.84","0.01","3.76","30.6693","4.80307","22.27","0","SATNPRO1963","22.6","0.31652","5"],
    [38614,"HCEP03730564","2024-11-03 12:45:00","11.9244","3.54783","26.632","1.982857142857143","7.47","4.739","6883.652","0.01","7.52","30.6771","4.80418","22.29","0","SATNPRO1963","22.942","0.32134","5"],
    [38615,"HCEP03730564","2024-11-03 13:00:00","11.9249","3.5488","26.677","2.012857142857143","7.47","4.747","6448.026","0.01","36.63","30.686","4.80543","22.62","0","SATNPRO1963","23.098","0.3235","5"],
    [38616,"HCEP03730564","2024-11-03 13:15:00","11.926","3.55012","26.73","2.077142857142857","7.47","4.754","6447.5","0.01","3.07","30.6978","4.80708","23.35","0","SATNPRO1963","23.554","0.32988","5"],
    [38617,"HCEP03730564","2024-11-03 13:30:00","11.9259","3.5505","26.786","2.15","7.47","4.768","6874.654","0.01","19.41","30.7015","4.8076","24.16","0","SATNPRO1963","23.284","0.32612","5"],
    [38618,"HCEP03730564","2024-11-03 13:45:00","11.926","3.55071","26.853","2.157142857142857","7.48","4.745","6532.101","0.01","21.7","30.7034","4.80787","24.25","0","SATNPRO1963","23.686","0.33174","5"],
    [38619,"HCEP03730564","2024-11-03 14:00:00","11.926","3.55074","26.917","2.18","7.49","4.74","6504.16","0.01","5.74","30.7037","4.80792","24.51","0","SATNPRO1963","23.462","0.3286","5"],
    [38620,"HCEP03730564","2024-11-03 14:15:00","11.926","3.55117","26.968","2.205714285714286","7.48","4.752","6700.886","0.01","20.12","30.7077","4.80849","24.8","0","SATNPRO1963","23.884","0.33452","5"],
    [38621,"HCEP03730564","2024-11-03 14:30:00","11.9259","3.55107","27.052","2.205714285714286","7.49","4.719","6389.091","0.01","35.79","30.7068","4.80837","24.79","0","SATNPRO1963","23.52","0.32946","5"],
    [38622,"HCEP03730564","2024-11-03 14:45:00","11.9264","3.55149","27.12","2.234285714285714","7.48","4.725","6368.859","0.01","3.07","30.7104","4.80887","25.12","0","SATNPRO1963","23.782","0.33314","5"],
    [38623,"HCEP03730564","2024-11-03 15:00:00","11.9264","3.55179","27.179","2.242857142857143","7.48","4.698","6587.474","0.01","18.28","30.7133","4.80929","25.21","0","SATNPRO1963","23.78","0.3331","5"],
    [38624,"HCEP03730564","2024-11-03 15:15:00","11.9266","3.55242","27.241","2.26","7.48","4.687","6387.861","0.02","41.28","30.7192","4.81012","25.41","0","SATNPRO1963","24.064","0.33702","5"],
    [38625,"HCEP03730564","2024-11-03 15:30:00","11.927","3.55289","27.269","2.291428571428572","7.48","4.686","6368.348","0.01","4.34","30.7234","4.8107","25.77","0","SATNPRO1963","24.342","0.341","5"],
    [38626,"HCEP03730564","2024-11-03 15:45:00","11.9271","3.55325","27.323","2.327142857142857","7.49","4.708","6497.101","0.01","15.19","30.7267","4.81116","26.16","0","SATNPRO1963","24.31","0.34052","5"],
    [38627,"HCEP03730564","2024-11-03 16:00:00","11.9273","3.55419","27.35","2.372857142857143","7.49","4.674","6168.963","0.01","31.78","30.7355","4.81241","26.68","0","SATNPRO1963","24.452","0.34248","5"],
    [38628,"HCEP03730564","2024-11-03 16:15:00","11.9289","3.5549","27.392","2.474285714285714","7.5","4.678","6168.44","0.01","3.43","30.741","4.81316","27.82","0","SATNPRO1963","25.05","0.35084","5"],
    [38629,"HCEP03730564","2024-11-03 16:30:00","11.9295","3.55488","27.435","2.598571428571429","7.5","4.698","6553.709","0","18.28","30.7403","4.81307","29.22","0","SATNPRO1963","25.198","0.35292","5"],
    [38630,"HCEP03730564","2024-11-03 16:45:00","11.93","3.55458","27.464","2.62","7.51","4.693","6342.646","0.02","33.82","30.7371","4.8126","29.45","0","SATNPRO1963","25.142","0.3522","5"],
    [38631,"HCEP03730564","2024-11-03 17:00:00","11.9297","3.55428","27.511","2.63","7.51","4.699","6335.999","0.01","0","30.7343","4.81222","29.58","0","SATNPRO1963","25.078","0.35122","5"],
    [38632,"HCEP03730564","2024-11-03 17:15:00","11.9298","3.55409","27.507","2.62","7.52","4.698","6659.169","0.01","17.76","30.7324","4.81194","29.46","0","SATNPRO1963","25.082","0.35136","5"],
    [38633,"HCEP03730564","2024-11-03 17:30:00","11.9297","3.55399","27.505","2.615714285714286","7.52","4.66","6169.386","0.01","27.36","30.7316","4.81183","29.41","0","SATNPRO1963","25.004","0.35022","5"],
    [38634,"HCEP03730564","2024-11-03 17:45:00","11.9301","3.55411","27.464","2.61","7.52","4.663","6142.514","0.01","4.34","30.7324","4.81194","29.35","0","SATNPRO1963","25.13","0.35202","5"],
    [38635,"HCEP03730564","2024-11-03 18:00:00","11.9302","3.55431","27.424","2.628571428571429","7.52","4.709","6821.942","0.01","16.52","30.7342","4.81219","29.55","0","SATNPRO1963","25.144","0.35218","5"],
    [38636,"HCEP03730564","2024-11-03 18:15:00","11.9302","3.5546","27.353","2.635714285714286","7.52","4.648","6387.144","0.01","16.67","30.7371","4.81259","29.64","0","SATNPRO1963","25.09","0.35142","5"],
    [38637,"HCEP03730564","2024-11-03 18:30:00","11.9296","3.55502","27.282","2.65","7.51","4.665","6375.581","0.01","0","30.7416","4.81324","29.8","0","SATNPRO1963","25.06","0.35104","5"],
    [38638,"HCEP03730564","2024-11-03 18:45:00","11.9287","3.55528","27.19","2.641428571428572","7.51","4.709","6792.862","0.01","13.02","30.7448","4.8137","29.7","0","SATNPRO1963","24.932000000000002","0.34924","5"],
    [38639,"HCEP03730564","2024-11-03 19:00:00","11.9283","3.5556","27.086","2.611428571428572","7.51","4.697","6361.347","0.01","34.03","30.7484","4.8142","29.36","0","SATNPRO1963","24.664","0.34546","5"],
    [38640,"HCEP03730564","2024-11-03 19:15:00","11.928","3.5562","26.963","2.594285714285714","7.51","4.705","6354.4","0.01","2.17","30.7544","4.81504","29.17","0","SATNPRO1963","24.64","0.34514","5"],
    [38641,"HCEP03730564","2024-11-03 19:30:00","11.927","3.55622","26.828","2.582857142857143","7.51","4.72","6610.049","0.01","23.97","30.7555","4.81521","29.05","0","SATNPRO1963","24.726","0.34638","5"],
    [38642,"HCEP03730564","2024-11-03 19:45:00","11.927","3.55646","26.678","2.551428571428572","7.51","4.652","6353.995","0.01","44.68","30.7578","4.81552","28.69","0","SATNPRO1963","24.694","0.34584","5"],
    [38643,"HCEP03730564","2024-11-03 20:00:00","11.9269","3.55507","26.492","2.532857142857143","7.51","4.67","6363.108","0.01","0","30.7447","4.81367","28.47","0","SATNPRO1963","24.332","0.3408","5"],
    [38644,"HCEP03730564","2024-11-03 20:15:00","11.9266","3.55412","26.301","2.444285714285714","7.5","4.685","6716.546","0.01","20.12","30.7358","4.81241","27.48","0","SATNPRO1963","24.092","0.33744","5"],
    [38645,"HCEP03730564","2024-11-03 20:30:00","11.9266","3.55366","26.095","2.374285714285714","7.5","4.632","6250.865","0.01","43.23","30.7315","4.81179","26.7","0","SATNPRO1963","24.176","0.33864","5"],
    [38646,"HCEP03730564","2024-11-03 20:45:00","11.927","3.55373","25.896","2.365714285714286","7.5","4.649","6261.398","0.01","4.85","30.7319","4.81183","26.6","0","SATNPRO1963","24.424","0.34206","5"],
    [38647,"HCEP03730564","2024-11-03 21:00:00","11.9266","3.5537","25.677","2.385714285714286","7.5","4.67","6675.197","0.01","14.06","30.7321","4.81184","26.82","0","SATNPRO1963","24.244","0.33954","5"],
    [38648,"HCEP03730564","2024-11-03 21:15:00","11.9269","3.55304","25.439","2.385714285714286","7.5","4.649","6177.902","0.01","56.16","30.7256","4.81092","26.81","0","SATNPRO1963","24.42","0.34208","5"],
    [38649,"HCEP03730564","2024-11-03 21:30:00","11.9266","3.55303","25.145","2.374285714285714","7.5","4.652","6179.004","0.01","2.17","30.7258","4.81093","26.69","0","SATNPRO1963","24.156","0.33836","5"],
    [38650,"HCEP03730564","2024-11-03 21:45:00","11.9267","3.55252","24.878","2.367142857142857","7.5","4.545","6334.93","0.01","24.36","30.721","4.81024","26.6","0","SATNPRO1963","23.998","0.33614","5"],
    [38651,"HCEP03730564","2024-11-03 22:00:00","11.927","3.55205","24.648","2.36","7.5","4.672","5854.247","0.01","32.91","30.7163","4.80956","26.53","0","SATNPRO1963","23.97","0.33574","5"],
    [38652,"HCEP03730564","2024-11-03 22:15:00","11.9272","3.55141","24.447","2.342857142857143","7.5","4.676","5831.617","0.01","3.76","30.7101","4.80866","26.33","0","SATNPRO1963","23.906","0.33482","5"],
    [38653,"HCEP03730564","2024-11-03 22:30:00","11.9267","3.55021","24.273","2.281428571428572","7.5","4.403","6054.744","0.03","26.93","30.699","4.80711","25.64","0","SATNPRO1963","23.696","0.3319","5"],
    [38654,"HCEP03730564","2024-11-03 22:45:00","11.9272","3.54895","24.146","2.227142857142857","7.51","4.638","5612.479","0.02","34.55","30.6865","4.80533","25.04","0","SATNPRO1963","23.756","0.33278","5"],
    [38655,"HCEP03730564","2024-11-03 23:00:00","11.9272","3.54816","24.064","2.204285714285714","7.51","4.645","5606.405","0.01","3.07","30.679","4.80426","24.77","0","SATNPRO1963","23.752","0.33272","5"],
    [38656,"HCEP03730564","2024-11-03 23:15:00","11.927","3.54825","23.993","2.2","7.5","4.62","6386.018","0.02","21.7","30.6801","4.80441","24.73","0","SATNPRO1963","23.878","0.33444","5"],
    [38657,"HCEP03730564","2024-11-03 23:30:00","11.9274","3.54818","23.959","2.204285714285714","7.49","4.643","5869.958","0.02","59.88","30.679","4.80426","24.77","0","SATNPRO1963","24.074","0.3372","5"],
    [38658,"HCEP03730564","2024-11-03 23:45:00","11.9275","3.54833","23.945","2.217142857142857","7.49","4.651","5869.464","0.01","4.06","30.6804","4.80445","24.93","0","SATNPRO1963","23.864","0.33428","5"],
    [38659,"HCEP03730564","2024-11-04 00:00:00","11.9275","3.54827","23.983","2.218571428571428","7.49","4.575","6497.019","0.01","15.8","30.6799","4.80438","24.94","0","SATNPRO1963","23.94","0.3353","5"],
    [38660,"HCEP03730564","2024-11-04 00:15:00","11.9275","3.54841","24.041","2.224285714285714","7.49","4.629","5604.816","0.01","50.72","30.6812","4.80456","25.01","0","SATNPRO1963","23.878","0.33444","5"],
    [38661,"HCEP03730564","2024-11-04 00:30:00","11.9274","3.54839","24.165","2.231428571428572","7.49","4.633","5603.735","0.01","3.76","30.681","4.80455","25.09","0","SATNPRO1963","23.68","0.33166","5"],
    [38662,"HCEP03730564","2024-11-04 00:45:00","11.9277","3.54847","24.237","2.244285714285714","7.49","4.564","6305.552","0.01","9.7","30.6815","4.80462","25.22","0","SATNPRO1963","23.938","0.33528","5"],
    [38663,"HCEP03730564","2024-11-04 01:00:00","11.9279","3.54829","24.365","2.254285714285714","7.49","4.6","5815.752","0.01","26.84","30.6795","4.80434","25.34","0","SATNPRO1963","23.858","0.33418","5"],
    [38664,"HCEP03730564","2024-11-04 01:15:00","11.9279","3.54805","24.481","2.265714285714286","7.49","4.612","5800.081","0.01","2.66","30.6772","4.80403","25.46","0","SATNPRO1963","23.86","0.33418","5"],
    [38665,"HCEP03730564","2024-11-04 01:30:00","11.9281","3.54752","24.64","2.281428571428572","7.49","4.581","6326.01","0.01","15.65","30.6718","4.80327","25.63","0","SATNPRO1963","23.848","0.334","5"],
    [38666,"HCEP03730564","2024-11-04 01:45:00","11.9284","3.54685","24.738","2.284285714285714","7.49","4.65","5883.378","0.02","68.24","30.6651","4.80233","25.67","0","SATNPRO1963","23.726","0.33234","5"],
    [38667,"HCEP03730564","2024-11-04 02:00:00","11.9287","3.54633","24.933","2.27","7.49","4.658","5874.759","0","2.17","30.6599","4.80159","25.52","0","SATNPRO1963","23.734","0.33244","5"],
    [38668,"HCEP03730564","2024-11-04 02:15:00","11.929","3.54561","25.043","2.274285714285714","7.49","4.613","6238.789","0","26.13","30.6527","4.80058","25.56","0","SATNPRO1963","23.698","0.33194","5"],
    [38669,"HCEP03730564","2024-11-04 02:30:00","11.9293","3.54426","25.214","2.262857142857143","7.49","4.634","5935.239","0.01","38.57","30.6394","4.79872","25.42","0","SATNPRO1963","23.626","0.33094","5"],
    [38670,"HCEP03730564","2024-11-04 02:45:00","11.929","3.54322","25.432","2.23","7.49","4.646","5921.685","0.01","3.07","30.6296","4.79735","25.05","0","SATNPRO1963","23.323999999999998","0.3267","5"],
    [38671,"HCEP03730564","2024-11-04 03:00:00","11.9288","3.54209","25.617","2.161428571428572","7.49","4.636","6356.981","0.01","10.18","30.6188","4.79584","24.29","0","SATNPRO1963","23.034","0.3226","5"],
    [38672,"HCEP03730564","2024-11-04 03:15:00","11.9281","3.54075","25.847","2.091428571428572","7.48","4.608","5515.565","0.01","27.53","30.6064","4.7941","23.49","0","SATNPRO1963","22.436","0.31428","5"],
    [38673,"HCEP03730564","2024-11-04 03:30:00","11.9277","3.53973","26.066","2.041428571428571","7.47","4.605","5487.528","0.01","2.66","30.5969","4.79279","22.94","0","SATNPRO1963","22.376","0.3134","5"],
    [38674,"HCEP03730564","2024-11-04 03:45:00","11.9277","3.53861","26.296","1.995714285714286","7.47","4.673","6468.752","0.01","11.06","30.5861","4.79127","22.42","0","SATNPRO1963","22.274","0.31202","5"],
    [38675,"HCEP03730564","2024-11-04 04:00:00","11.9277","3.53761","26.549","1.962857142857143","7.47","4.674","6049.01","0.01","16.31","30.5764","4.78992","22.05","0","SATNPRO1963","22.082","0.3093","5"],
    [38676,"HCEP03730564","2024-11-04 04:15:00","11.9273","3.5362","26.807","1.9","7.47","4.679","6036.993","0.01","4.06","30.5631","4.78806","21.33","0","SATNPRO1963","21.438","0.3003","5"],
    [38677,"HCEP03730564","2024-11-04 04:30:00","11.9267","3.53497","26.973","1.84","7.47","4.577","6198.994","0.01","21.48","30.5517","4.78647","20.66","0","SATNPRO1963","21.288","0.29816","5"],
    [38678,"HCEP03730564","2024-11-04 04:45:00","11.9267","3.5341","27.164","1.805714285714286","7.46","4.676","6106.313","0.01","21.59","30.5433","4.78529","20.27","0","SATNPRO1963","21.166","0.29648","5"],
    [38679,"HCEP03730564","2024-11-04 05:00:00","11.9264","3.53356","27.322","1.782857142857143","7.46","4.682","6079.069","0.01","2.17","30.5382","4.78459","20.02","0","SATNPRO1963","20.862000000000002","0.2922","5"],
    [38680,"HCEP03730564","2024-11-04 05:15:00","11.9266","3.53416","27.507","1.79","7.45","4.64","6203.733","0.01","23.27","30.5438","4.78539","20.1","0","SATNPRO1963","20.976","0.29378","5"],
    [38681,"HCEP03730564","2024-11-04 05:30:00","11.9275","3.53683","27.631","1.867142857142857","7.46","4.664","5983.442","0.01","16.38","30.5686","4.78888","20.97","0","SATNPRO1963","21.742","0.30452","5"],
    [38682,"HCEP03730564","2024-11-04 05:45:00","11.9273","3.53802","27.761","1.898571428571429","7.46","4.665","5972.279","0.01","4.06","30.5802","4.79053","21.33","0","SATNPRO1963","21.812","0.30552","5"],
    [38683,"HCEP03730564","2024-11-04 06:00:00","11.9272","3.53852","27.826","1.905714285714286","7.46","4.603","6387.091","0.01","16.67","30.585","4.79122","21.41","0","SATNPRO1963","21.892","0.3066","5"],
    [38684,"HCEP03730564","2024-11-04 06:15:00","11.9275","3.53901","27.848","1.905714285714286","7.46","4.653","5967.419","0.01","12.18","30.5895","4.79184","21.41","0","SATNPRO1963","21.924","0.30706","5"],
    [38685,"HCEP03730564","2024-11-04 06:30:00","11.9273","3.5396","27.89","1.915714285714286","7.46","4.654","5949.36","0.01","3.43","30.5952","4.79265","21.52","0","SATNPRO1963","22.18","0.31068","5"],
    [38686,"HCEP03730564","2024-11-04 06:45:00","11.9275","3.54001","27.97","1.94","7.46","4.632","6326.04","0.01","22.02","30.599","4.79319","21.79","0","SATNPRO1963","22.364","0.31326","5"],
    [38687,"HCEP03730564","2024-11-04 07:00:00","11.928","3.54039","27.971","1.981428571428572","7.46","4.624","6027.734","0.01","19.29","30.6022","4.79364","22.26","0","SATNPRO1963","22.483999999999998","0.3149","5"],
    [38688,"HCEP03730564","2024-11-04 07:15:00","11.9273","3.54247","28.063","2.002857142857143","7.47","4.636","6015.459","0.01","0","30.6228","4.79655","22.5","0","SATNPRO1963","22.62","0.31684","5"],
    [38689,"HCEP03730564","2024-11-04 07:30:00","11.9275","3.54193","28.018","2.01","7.46","4.644","6393.6","0.01","18.41","30.6174","4.79579","22.59","0","SATNPRO1963","22.638","0.3171","5"],
    [38690,"HCEP03730564","2024-11-04 07:45:00","11.9275","3.54187","28.026","2.017142857142857","7.47","4.627","6102.353","0.01","41.45","30.6168","4.79571","22.66","0","SATNPRO1963","22.634","0.31708","5"],
    [38691,"HCEP03730564","2024-11-04 08:00:00","11.9274","3.54231","28.006","2.028571428571428","7.47","4.627","6059.796","0.01","3.43","30.6211","4.79631","22.79","0","SATNPRO1963","22.682000000000002","0.31772","5"],
    [38692,"HCEP03730564","2024-11-04 08:15:00","11.9273","3.54255","27.948","2.011428571428572","7.47","4.634","6291.335","0.01","23.47","30.6236","4.79666","22.6","0","SATNPRO1963","22.814","0.31952","5"],
    [38693,"HCEP03730564","2024-11-04 08:30:00","11.9264","3.54371","27.993","1.988571428571428","7.47","4.645","5986.327","0.01","32.58","30.6355","4.79835","22.35","0","SATNPRO1963","22.728","0.31834","5"],
    [38694,"HCEP03730564","2024-11-04 08:45:00","11.9259","3.54413","28.044","1.96","7.47","4.648","5953.848","0.01","0","30.6398","4.79897","22.03","0","SATNPRO1963","22.696","0.31784","5"],
    [38695,"HCEP03730564","2024-11-04 09:00:00","11.9258","3.54397","27.766","1.937142857142857","7.46","4.649","6175.105","0.02","21.86","30.6385","4.79877","21.77","0","SATNPRO1963","22.512","0.3153","5"],
    [38696,"HCEP03730564","2024-11-04 09:15:00","11.9254","3.54329","27.631","1.91","7.47","4.621","6047.869","0.01","23.92","30.6323","4.79789","21.45","0","SATNPRO1963","22.474","0.31478","5"],
    [38697,"HCEP03730564","2024-11-04 09:30:00","11.9247","3.54361","27.574","1.851428571428571","7.47","4.622","6022.937","0.01","5.09","30.636","4.79843","20.8","0","SATNPRO1963","22.202","0.31102","5"],
    [38698,"HCEP03730564","2024-11-04 09:45:00","11.9237","3.54411","27.577","1.801428571428571","7.46","4.661","6502.409","0.01","11.27","30.6416","4.79923","20.24","0","SATNPRO1963","22.184","0.31072","5"],
    [38699,"HCEP03730564","2024-11-04 10:00:00","11.9238","3.54427","27.488","1.777142857142857","7.46","4.632","6236.479","0.01","18.41","30.6431","4.79943","19.96","0","SATNPRO1963","21.984","0.3079","5"],
    [38700,"HCEP03730564","2024-11-04 10:15:00","11.9237","3.5444","27.468","1.767142857142857","7.45","4.634","6216.657","0.01","0","30.6445","4.79963","19.86","0","SATNPRO1963","22.316","0.31258","5"],
    [38701,"HCEP03730564","2024-11-04 10:30:00","11.9237","3.54461","27.38","1.762857142857143","7.45","4.634","6601.217","0.01","19.41","30.6465","4.79992","19.81","0","SATNPRO1963","22.186","0.31072","5"],
    [38702,"HCEP03730564","2024-11-04 10:45:00","11.9239","3.54479","27.294","1.771428571428571","7.45","4.639","6378.763","0.01","28.37","30.6481","4.80013","19.9","0","SATNPRO1963","22.29","0.31226","5"],
    [38703,"HCEP03730564","2024-11-04 11:00:00","11.9235","3.54508","27.279","1.794285714285714","7.45","4.633","6349.859","0.01","4.85","30.6512","4.80057","20.16","0","SATNPRO1963","22.198","0.3109","5"],
    [38704,"HCEP03730564","2024-11-04 11:15:00","11.9236","3.54552","27.231","1.825714285714286","7.45","4.609","6716.789","0.01","13.55","30.6553","4.80115","20.52","0","SATNPRO1963","22.28","0.31208","5"],
    [38705,"HCEP03730564","2024-11-04 11:30:00","11.9244","3.54562","27.229","1.874285714285714","7.45","4.639","6297.693","0.01","21.7","30.6557","4.80118","21.06","0","SATNPRO1963","22.490000000000002","0.315","5"],
    [38706,"HCEP03730564","2024-11-04 11:45:00","11.9246","3.5454","27.176","1.895714285714286","7.46","4.649","6284.997","0.01","3.76","30.6535","4.80087","21.3","0","SATNPRO1963","22.45","0.3145","5"],
    [38707,"HCEP03730564","2024-11-04 12:00:00","11.9243","3.5454","27.142","1.895714285714286","7.46","4.66","6605.429","0.01","12.08","30.6536","4.80089","21.3","0","SATNPRO1963","22.53","0.31556","5"],
    [38708,"HCEP03730564","2024-11-04 12:15:00","11.9243","3.54493","27.113","1.894285714285714","7.46","4.647","6473.763","0.01","10.41","30.6492","4.80027","21.28","0","SATNPRO1963","22.524","0.3155","5"],
    [38709,"HCEP03730564","2024-11-04 12:30:00","11.9266","3.53635","27.129","1.882857142857143","7.46","4.66","6471.095","0.01","3.07","30.565","4.78835","21.15","0","SATNPRO1963","21.496","0.30108","5"],
    [38710,"HCEP03730564","2024-11-04 12:45:00","11.9251","3.54225","27.161","1.89","7.46","4.699","6618.151","0.01","18.28","30.6227","4.79653","21.23","0","SATNPRO1963","22.256","0.31178","5"],
    [38711,"HCEP03730564","2024-11-04 13:00:00","11.9246","3.54426","27.161","1.895714285714286","7.46","4.7","6628.668","0.01","36.89","30.6425","4.79932","21.29","0","SATNPRO1963","22.552","0.3159","5"],
    [38712,"HCEP03730564","2024-11-04 13:15:00","11.9247","3.54447","27.208","1.901428571428572","7.47","4.706","6650.463","0.01","3.76","30.6444","4.79959","21.37","0","SATNPRO1963","22.518","0.31542","5"],
    [38713,"HCEP03730564","2024-11-04 13:30:00","11.9252","3.54122","27.219","1.904285714285714","7.46","4.701","6504.109","0.01","19.29","30.6128","4.79512","21.4","0","SATNPRO1963","22.694","0.31792","5"],
    [38714,"HCEP03730564","2024-11-04 13:45:00","11.9252","3.54137","27.28","1.901428571428572","7.46","4.681","6487.964","0.01","18.28","30.6142","4.79532","21.36","0","SATNPRO1963","22.404","0.31382","5"],
    [38715,"HCEP03730564","2024-11-04 14:00:00","11.9266","3.53353","27.303","1.884285714285714","7.46","4.688","6486.857","0.01","4.34","30.5379","4.78454","21.15","0","SATNPRO1963","21.788","0.30516","5"],
    [38716,"HCEP03730564","2024-11-04 14:15:00","11.9252","3.54078","27.408","1.882857142857143","7.46","4.685","6593.386","0.01","13.89","30.6084","4.79452","21.15","0","SATNPRO1963","22.468","0.3147","5"],
    [38717,"HCEP03730564","2024-11-04 14:30:00","11.9252","3.54395","27.449","1.902857142857143","7.46","4.67","6212.642","0.01","9.46","30.6389","4.79882","21.39","0","SATNPRO1963","22.556","0.3159","5"],
    [38718,"HCEP03730564","2024-11-04 14:45:00","11.9248","3.54552","27.471","1.927142857142857","7.46","4.678","6205.198","0.01","4.34","30.6543","4.801","21.65","0","SATNPRO1963","22.772","0.31894","5"],
    [38719,"HCEP03730564","2024-11-04 15:00:00","11.9256","3.54592","27.483","1.984285714285714","7.46","4.681","6346.584","0.01","12.84","30.6574","4.80143","22.29","0","SATNPRO1963","22.98","0.32184","5"],
    [38720,"HCEP03730564","2024-11-04 15:15:00","11.9254","3.54646","27.513","1.998571428571429","7.46","4.695","6609.021","0.01","8.4","30.6629","4.8022","22.46","0","SATNPRO1963","23.124","0.32386","5"],
    [38721,"HCEP03730564","2024-11-04 15:30:00","11.9255","3.54681","27.557","2.001428571428571","7.47","4.694","6589.901","0.01","4.34","30.6661","4.80266","22.49","0","SATNPRO1963","23.208","0.32508","5"],
    [38722,"HCEP03730564","2024-11-04 15:45:00","11.9255","3.54717","27.627","2.007142857142857","7.47","4.699","6541.513","0.01","11.68","30.6695","4.80315","22.56","0","SATNPRO1963","22.992","0.32204","5"],
    [38723,"HCEP03730564","2024-11-04 16:00:00","11.9254","3.54732","27.616","2.005714285714286","7.47","4.703","6564.852","0.01","9.46","30.671","4.80336","22.53","0","SATNPRO1963","23.394","0.32768","5"],
    [38724,"HCEP03730564","2024-11-04 16:15:00","11.9252","3.54753","27.666","2.001428571428571","7.47","4.705","6545.72","0","3.76","30.6732","4.80367","22.49","0","SATNPRO1963","23.068","0.32312","5"],
    [38725,"HCEP03730564","2024-11-04 16:30:00","11.9249","3.54763","27.67","1.992857142857143","7.47","4.713","6433.1","0.01","16.52","30.6744","4.80385","22.4","0","SATNPRO1963","23.232","0.32536","5"],
    [38726,"HCEP03730564","2024-11-04 16:45:00","11.9245","3.55165","27.705","2.142857142857143","7.48","4.706","6365.967","0.01","31.22","30.7133","4.80934","24.09","0","SATNPRO1963","23.528","0.32954","5"],
    [38727,"HCEP03730564","2024-11-04 17:00:00","11.9247","3.55101","27.67","2.117142857142857","7.48","4.709","6340.187","0.01","4.34","30.707","4.80845","23.79","0","SATNPRO1963","23.248","0.32564","5"],
    [38728,"HCEP03730564","2024-11-04 17:15:00","11.9249","3.55014","27.727","2.107142857142857","7.48","4.695","6623.88","0.01","18.54","30.6984","4.80724","23.69","0","SATNPRO1963","23.374000000000002","0.32738","5"],
    [38729,"HCEP03730564","2024-11-04 17:30:00","11.9247","3.55213","27.697","2.157142857142857","7.48","4.678","6441.632","0.01","14.56","30.7178","4.80998","24.25","0","SATNPRO1963","23.582","0.33026","5"],
    [38730,"HCEP03730564","2024-11-04 17:45:00","11.925","3.55149","27.683","2.151428571428572","7.48","4.682","6419.129","0.01","0","30.7114","4.80907","24.18","0","SATNPRO1963","23.72","0.3322","5"],
    [38731,"HCEP03730564","2024-11-04 18:00:00","11.9247","3.55038","27.65","2.134285714285714","7.48","4.65","6691.34","0.01","18.15","30.701","4.80759","23.99","0","SATNPRO1963","23.284","0.32614","5"],
    [38732,"HCEP03730564","2024-11-04 18:15:00","11.9252","3.54874","27.574","2.047142857142857","7.47","4.664","6489.148","0.01","8.95","30.6848","4.80531","23.01","0","SATNPRO1963","23.137999999999998","0.32406","5"],
    [38733,"HCEP03730564","2024-11-04 18:30:00","11.9254","3.54793","27.52","2.025714285714286","7.47","4.669","6478.074","0.01","0","30.6769","4.80418","22.77","0","SATNPRO1963","23.376","0.32744","5"],
    [38734,"HCEP03730564","2024-11-04 18:45:00","11.9253","3.54762","27.471","2.017142857142857","7.47","4.603","6685.986","0.01","20.47","30.674","4.80378","22.67","0","SATNPRO1963","22.98","0.32186","5"],
    [38735,"HCEP03730564","2024-11-04 19:00:00","11.9254","3.547","27.41","2.014285714285714","7.47","4.666","6473.453","0.01","38.63","30.668","4.80292","22.64","0","SATNPRO1963","23.29","0.32622","5"],
    [38736,"HCEP03730564","2024-11-04 19:15:00","11.9264","3.54482","27.259","2.008571428571428","7.47","4.667","6438.184","0.01","5.31","30.6464","4.79986","22.57","0","SATNPRO1963","23.27","0.3259","5"],
    [38737,"HCEP03730564","2024-11-04 19:30:00","11.9259","3.54454","27.101","1.998571428571429","7.46","4.563","6777.701","0.01","15.03","30.6442","4.79953","22.46","0","SATNPRO1963","23.156","0.32434","5"],
    [38738,"HCEP03730564","2024-11-04 19:45:00","11.9275","3.54023","26.952","1.981428571428572","7.46","4.662","6486.429","0.01","16.38","30.6015","4.79349","22.26","0","SATNPRO1963","22.788","0.31918","5"],
    [38739,"HCEP03730564","2024-11-04 20:00:00","11.9263","3.54119","26.791","1.957142857142857","7.46","4.664","6461.748","0.01","4.34","30.6118","4.79494","21.98","0","SATNPRO1963","22.468","0.31472","5"],
    [38740,"HCEP03730564","2024-11-04 20:15:00","11.9262","3.54071","26.631","1.927142857142857","7.46","4.624","6886.118","0.01","14.56","30.6073","4.7943","21.65","0","SATNPRO1963","22.512","0.31532","5"],
    [38741,"HCEP03730564","2024-11-04 20:30:00","11.9272","3.53825","26.444","1.941428571428572","7.46","4.658","6657.466","0.01","12.65","30.5829","4.79084","21.81","0","SATNPRO1963","22.586","0.31636","5"],
    [38742,"HCEP03730564","2024-11-04 20:45:00","11.9267","3.53947","26.237","1.922857142857143","7.46","4.665","6646.14","0","3.07","30.5951","4.79256","21.61","0","SATNPRO1963","22.47","0.31472","5"],
    [38743,"HCEP03730564","2024-11-04 21:00:00","11.9268","3.53879","26.027","1.914285714285714","7.46","4.674","6904.788","0.01","17.49","30.5887","4.79164","21.51","0","SATNPRO1963","22.468","0.31468","5"],
    [38744,"HCEP03730564","2024-11-04 21:15:00","11.9267","3.53853","25.823","1.915714285714286","7.46","4.661","6678.852","0.01","32.4","30.5863","4.79129","21.52","0","SATNPRO1963","22.296","0.31232","5"],
    [38745,"HCEP03730564","2024-11-04 21:30:00","11.9266","3.54051","25.63","1.94","7.46","4.67","6652.22","0.01","3.07","30.6055","4.79399","21.79","0","SATNPRO1963","22.573999999999998","0.31618","5"],
    [38746,"HCEP03730564","2024-11-04 21:45:00","11.9262","3.5416","25.436","1.932857142857143","7.46","4.671","6911.182","0.01","16.81","30.6164","4.79552","21.71","0","SATNPRO1963","22.634","0.31704","5"],
    [38747,"HCEP03730564","2024-11-04 22:00:00","11.926","3.5425","25.246","1.931428571428572","7.46","4.667","6422.852","0.01","30.45","30.6252","4.79676","21.7","0","SATNPRO1963","22.454","0.3145","5"],
    [38748,"HCEP03730564","2024-11-04 22:15:00","11.9255","3.54395","25.056","1.911428571428572","7.46","4.674","6421.469","0.01","2.17","30.6396","4.79879","21.48","0","SATNPRO1963","22.608","0.31664","5"],
    [38749,"HCEP03730564","2024-11-04 22:30:00","11.9254","3.54452","24.876","1.938571428571429","7.46","4.606","6775.995","0.01","16.67","30.6452","4.79956","21.79","0","SATNPRO1963","22.752","0.31868","5"],
    [38750,"HCEP03730564","2024-11-04 22:45:00","11.9251","3.54519","24.728","1.935714285714286","7.46","4.668","6612.451","0.01","14.23","30.652","4.80052","21.76","0","SATNPRO1963","22.498","0.31512","5"],
    [38751,"HCEP03730564","2024-11-04 23:00:00","11.925","3.54585","24.581","1.921428571428572","7.46","4.671","6588.578","0.01","3.76","30.6584","4.80142","21.59","0","SATNPRO1963","22.488","0.315","5"],
    [38752,"HCEP03730564","2024-11-04 23:15:00","11.9249","3.5461","24.44","1.918571428571429","7.46","4.628","6894.355","0","14.23","30.661","4.80178","21.56","0","SATNPRO1963","22.508","0.31528","5"],
    [38753,"HCEP03730564","2024-11-04 23:30:00","11.9248","3.54611","24.313","1.91","7.46","4.664","6644.064","0.01","26.93","30.6612","4.8018","21.46","0","SATNPRO1963","22.49","0.31498","5"],
    [38754,"HCEP03730564","2024-11-04 23:45:00","11.925","3.54609","24.207","1.911428571428572","7.46","4.666","6603.888","0.01","5.31","30.6609","4.80174","21.49","0","SATNPRO1963","22.534","0.31566","5"],
    [38755,"HCEP03730564","2024-11-05 00:00:00","11.9251","3.54566","24.149","1.901428571428572","7.46","4.639","6964.446","0.01","12.27","30.6568","4.80116","21.36","0","SATNPRO1963","22.74","0.31848","5"],
    [38756,"HCEP03730564","2024-11-05 00:15:00","11.9254","3.54514","24.197","1.894285714285714","7.46","4.667","6761.355","0.01","22.44","30.6515","4.80042","21.29","0","SATNPRO1963","22.642","0.31716","5"],
    [38757,"HCEP03730564","2024-11-05 00:30:00","11.9249","3.54487","24.22","1.887142857142857","7.46","4.668","6726.636","0.01","0","30.6493","4.80011","21.21","0","SATNPRO1963","22.47","0.31472","5"],
    [38758,"HCEP03730564","2024-11-05 00:45:00","11.9249","3.54457","24.337","1.875714285714286","7.45","4.656","7022.658","0.01","13.72","30.6463","4.7997","21.07","0","SATNPRO1963","22.338","0.31288","5"],
    [38759,"HCEP03730564","2024-11-05 01:00:00","11.925","3.54456","24.373","1.867142857142857","7.46","4.661","6857.234","0.01","12.84","30.6462","4.79968","20.97","0","SATNPRO1963","22.16","0.31042","5"],
    [38760,"HCEP03730564","2024-11-05 01:15:00","11.9251","3.5434","24.418","1.848571428571429","7.45","4.666","6833.804","0.01","4.85","30.6349","4.79809","20.77","0","SATNPRO1963","22.352","0.31308","5"],
    [38761,"HCEP03730564","2024-11-05 01:30:00","11.9247","3.54593","24.505","1.87","7.45","4.674","7030.304","0","18.92","30.6596","4.80158","21.02","0","SATNPRO1963","22.296","0.3123","5"],
    [38762,"HCEP03730564","2024-11-05 01:45:00","11.9247","3.54699","24.633","1.93","7.45","4.648","6795.868","0.01","10.63","30.6696","4.803","21.68","0","SATNPRO1963","22.758","0.31874","5"],
    [38763,"HCEP03730564","2024-11-05 02:00:00","11.9253","3.54725","24.763","2.007142857142857","7.46","4.651","6787.609","0.01","0","30.6715","4.80327","22.56","0","SATNPRO1963","23.066","0.32312","5"],
    [38764,"HCEP03730564","2024-11-05 02:15:00","11.9253","3.54676","24.952","2.034285714285714","7.46","4.66","6953.981","0.01","19.16","30.6668","4.80261","22.86","0","SATNPRO1963","23.018","0.3224","5"],
    [38765,"HCEP03730564","2024-11-05 02:30:00","11.9257","3.54631","25.089","2.008571428571428","7.46","4.665","6880.376","0.01","36.82","30.6621","4.80196","22.58","0","SATNPRO1963","22.796","0.31926","5"],
    [38766,"HCEP03730564","2024-11-05 02:45:00","11.9251","3.54564","25.26","1.977142857142857","7.46","4.667","6871.024","0.01","5.31","30.6561","4.80112","22.22","0","SATNPRO1963","22.748","0.31862","5"],
    [38767,"HCEP03730564","2024-11-05 03:00:00","11.9251","3.5449","25.352","1.945714285714286","7.46","4.655","6977.675","0.01","15.65","30.6489","4.80012","21.86","0","SATNPRO1963","22.492","0.31504","5"],
    [38768,"HCEP03730564","2024-11-05 03:15:00","11.9251","3.54415","25.497","1.937142857142857","7.46","4.641","6632.014","0.01","30.61","30.6417","4.79911","21.77","0","SATNPRO1963","22.686","0.31774","5"],
    [38769,"HCEP03730564","2024-11-05 03:30:00","11.9252","3.54218","25.709","1.894285714285714","7.45","4.642","6612.505","0.01","2.17","30.6226","4.79643","21.29","0","SATNPRO1963","22.294","0.31228","5"],
    [38770,"HCEP03730564","2024-11-05 03:45:00","11.925","3.54108","25.911","1.861428571428571","7.45","4.577","6880.752","0.01","15.03","30.6122","4.79497","20.91","0","SATNPRO1963","22.246","0.31156","5"],
    [38771,"HCEP03730564","2024-11-05 04:00:00","11.9252","3.53948","26.111","1.835714285714286","7.45","4.61","6643.037","0.01","24.93","30.5965","4.79277","20.63","0","SATNPRO1963","22.131999999999998","0.31002","5"],
    [38772,"HCEP03730564","2024-11-05 04:15:00","11.9233","3.53498","26.332","1.834285714285714","7.45","4.622","6625.28","0.01","5.74","30.5549","4.78693","20.6","0","SATNPRO1963","21.884","0.30652","5"],
    [38773,"HCEP03730564","2024-11-05 04:30:00","11.9201","3.53024","26.503","1.934285714285714","7.45","4.609","6938.097","0.01","12.08","30.512","4.78093","21.72","0","SATNPRO1963","22.034","0.30862","5"],
    [38774,"HCEP03730564","2024-11-05 04:45:00","11.9178","3.52827","26.725","1.95","7.46","4.626","6654.413","0.01","20.7","30.4948","4.77854","21.88","0","SATNPRO1963","21.798","0.3053","5"],
    [38775,"HCEP03730564","2024-11-05 05:00:00","11.9174","3.52659","26.901","1.952857142857143","7.45","4.629","6629.226","0.01","3.07","30.479","4.77633","21.92","0","SATNPRO1963","21.772","0.30496","5"],
    [38776,"HCEP03730564","2024-11-05 05:15:00","11.9172","3.52533","27.05","1.955714285714286","7.46","4.615","6906.033","0.01","16.67","30.467","4.77465","21.94","0","SATNPRO1963","21.652","0.30328","5"],
    [38777,"HCEP03730564","2024-11-05 05:30:00","11.9194","3.52877","27.273","1.925714285714286","7.45","4.623","6582.267","0.01","27.1","30.4981","4.77902","21.62","0","SATNPRO1963","21.572","0.30216","5"],
    [38778,"HCEP03730564","2024-11-05 05:45:00","11.9204","3.53071","27.462","1.87","7.45","4.626","6581.047","0.01","0","30.5158","4.78152","20.99","0","SATNPRO1963","21.736","0.3045","5"],
    [38779,"HCEP03730564","2024-11-05 06:00:00","11.9211","3.5319","27.663","1.832857142857143","7.45","4.594","6781.848","0.01","38.39","30.5266","4.78304","20.58","0","SATNPRO1963","21.752","0.30468","5"],
    [38780,"HCEP03730564","2024-11-05 06:15:00","11.9219","3.53255","27.783","1.802857142857143","7.45","4.617","6629.612","0.01","34.65","30.5321","4.78381","20.24","0","SATNPRO1963","21.744","0.30458","5"],
    [38781,"HCEP03730564","2024-11-05 06:30:00","11.9221","3.53278","27.894","1.771428571428571","7.45","4.615","6613.18","0.01","2.17","30.5341","4.78409","19.89","0","SATNPRO1963","21.286","0.29814","5"],
    [38782,"HCEP03730564","2024-11-05 06:45:00","11.9245","3.53595","27.988","1.728571428571429","7.45","4.575","6857.047","0.01","24.26","30.5626","4.78809","19.41","0","SATNPRO1963","21.408","0.29982","5"],
    [38783,"HCEP03730564","2024-11-05 07:00:00","11.9247","3.53679","28.044","1.7","7.44","4.603","6489.951","0.01","49.53","30.5705","4.7892","19.09","0","SATNPRO1963","21.392","0.29964","5"],
    [38784,"HCEP03730564","2024-11-05 07:15:00","11.9247","3.53713","28.064","1.7","7.44","4.612","6464.521","0","3.07","30.5736","4.78965","19.09","0","SATNPRO1963","21.456","0.30052","5"],
    [38785,"HCEP03730564","2024-11-05 07:30:00","11.9251","3.5373","28.023","1.697142857142857","7.43","4.531","6822.836","0.01","21.48","30.5749","4.78982","19.06","0","SATNPRO1963","21.586","0.30234","5"],
    [38786,"HCEP03730564","2024-11-05 07:45:00","11.9251","3.53746","27.995","1.702857142857143","7.43","4.603","6449.848","0.01","23.57","30.5765","4.79005","19.12","0","SATNPRO1963","21.614","0.3028","5"],
    [38787,"HCEP03730564","2024-11-05 08:00:00","11.9249","3.53752","28.009","1.714285714285714","7.43","4.613","6436.327","0.01","4.34","30.5773","4.79016","19.25","0","SATNPRO1963","21.638","0.30308","5"],
    [38788,"HCEP03730564","2024-11-05 08:15:00","11.9247","3.53779","27.97","1.724285714285714","7.43","4.537","6833.371","0.01","13.55","30.58","4.79055","19.37","0","SATNPRO1963","21.744","0.30456","5"],
    [38789,"HCEP03730564","2024-11-05 08:30:00","11.9227","3.53829","27.952","1.757142857142857","7.44","4.591","6492.734","0.01","16.67","30.5865","4.79149","19.73","0","SATNPRO1963","22.233999999999998","0.31142","5"],
    [38790,"HCEP03730564","2024-11-05 08:45:00","11.9245","3.53995","27.944","1.807142857142857","7.44","4.593","6480.929","0.01","0","30.6009","4.7935","20.3","0","SATNPRO1963","22.548000000000002","0.3158","5"],
    [38791,"HCEP03730564","2024-11-05 09:00:00","11.9246","3.54166","27.953","1.858571428571428","7.44","4.514","6721.634","0.01","25.76","30.6172","4.7958","20.89","0","SATNPRO1963","22.828","0.31974","5"],
    [38792,"HCEP03730564","2024-11-05 09:15:00","11.9244","3.54144","27.934","1.932857142857143","7.44","4.585","6463.367","0.01","17.09","30.6153","4.79553","21.71","0","SATNPRO1963","22.742","0.31856","5"],
    [38793,"HCEP03730564","2024-11-05 09:30:00","11.9242","3.5411","27.88","1.964285714285714","7.45","4.588","6442.465","0.01","3.76","30.6123","4.7951","22.07","0","SATNPRO1963","22.736","0.31848","5"],
    [38794,"HCEP03730564","2024-11-05 09:45:00","11.9245","3.54075","27.826","1.975714285714286","7.45","4.558","6733.916","0.01","25.67","30.6086","4.79457","22.2","0","SATNPRO1963","22.822","0.31964","5"],
    [38795,"HCEP03730564","2024-11-05 10:00:00","11.9243","3.54066","27.771","1.988571428571428","7.45","4.595","6464.826","0.01","28.21","30.608","4.7945","22.33","0","SATNPRO1963","22.82","0.31964","5"],
    [38796,"HCEP03730564","2024-11-05 10:15:00","11.9245","3.54083","27.715","1.994285714285714","7.45","4.597","6436.435","0.01","3.76","30.6095","4.79469","22.4","0","SATNPRO1963","22.804","0.31942","5"],
    [38797,"HCEP03730564","2024-11-05 10:30:00","11.9245","3.54117","27.645","1.992857142857143","7.45","4.535","6721.174","0.01","24.93","30.6127","4.79514","22.39","0","SATNPRO1963","22.822","0.31968","5"],
    [38798,"HCEP03730564","2024-11-05 10:45:00","11.9258","3.54467","27.563","2.058571428571429","7.45","4.573","6483.845","0.01","24.64","30.6452","4.79971","23.13","0","SATNPRO1963","24","0.33616","5"],
    [38799,"HCEP03730564","2024-11-05 11:00:00","11.9254","3.54584","27.479","2.178571428571428","7.46","4.585","6469.343","0","3.76","30.6569","4.80135","24.48","0","SATNPRO1963","24.29","0.34022","5"],
    [38800,"HCEP03730564","2024-11-05 11:15:00","11.9251","3.54634","27.407","2.272857142857143","7.47","4.536","6737.648","0.01","19.29","30.662","4.80208","25.54","0","SATNPRO1963","24.228","0.33934","5"],
    [38801,"HCEP03730564","2024-11-05 11:30:00","11.9252","3.54613","27.347","2.314285714285714","7.47","4.558","6349.663","0.01","39.24","30.6599","4.80178","26.01","0","SATNPRO1963","24.338","0.34088","5"],
    [38802,"HCEP03730564","2024-11-05 11:45:00","11.9251","3.54594","27.277","2.34","7.47","4.562","6324.719","0.01","0","30.6582","4.80153","26.29","0","SATNPRO1963","24.312","0.34056","5"],
    [38803,"HCEP03730564","2024-11-05 12:00:00","11.9251","3.54591","27.209","2.342857142857143","7.48","4.504","6684.204","0.01","29.35","30.6579","4.80149","26.32","0","SATNPRO1963","24.452","0.3425","5"],
    [38804,"HCEP03730564","2024-11-05 12:15:00","11.925","3.54584","27.133","2.341428571428572","7.48","4.587","6343.689","0.01","25.21","30.6574","4.80141","26.31","0","SATNPRO1963","24.44","0.34232","5"],
    [38805,"HCEP03730564","2024-11-05 12:30:00","11.925","3.54564","27.048","2.328571428571428","7.49","4.59","6319.778","0","3.07","30.6555","4.80114","26.17","0","SATNPRO1963","24.216","0.33922","5"],
    [38806,"HCEP03730564","2024-11-05 12:45:00","11.9251","3.54541","26.98","2.288571428571429","7.49","4.512","6653.276","0.01","11.06","30.6532","4.80081","25.72","0","SATNPRO1963","24.23","0.3394","5"],
    [38807,"HCEP03730564","2024-11-05 13:00:00","11.925","3.54534","26.932","2.26","7.48","4.587","6326.104","0.01","37.89","30.6526","4.80073","25.4","0","SATNPRO1963","24.118","0.33782","5"],
    [38808,"HCEP03730564","2024-11-05 13:15:00","11.9256","3.54717","26.902","2.235714285714286","7.47","4.589","6289.128","0","4.34","30.6696","4.80312","25.13","0","SATNPRO1963","24.308","0.34046","5"],
    [38809,"HCEP03730564","2024-11-05 13:30:00","11.9248","3.54916","26.892","2.3","7.47","4.502","6628.883","0.01","33.19","30.6895","4.80594","25.86","0","SATNPRO1963","24.442","0.34238","5"],
    [38810,"HCEP03730564","2024-11-05 13:45:00","11.9226","3.55362","26.866","2.401428571428572","7.48","4.519","6245.634","0.01","42.19","30.7341","4.81226","27.01","0","SATNPRO1963","24.836","0.34788","5"],
    [38811,"HCEP03730564","2024-11-05 14:00:00","11.9222","3.55521","26.853","2.445714285714286","7.49","4.527","6219.281","0.01","3.76","30.7498","4.81447","27.5","0","SATNPRO1963","24.994","0.35008","5"],
    [38812,"HCEP03730564","2024-11-05 14:15:00","11.9224","3.55646","26.82","2.451428571428572","7.49","4.443","6598.95","0.01","19.89","30.7616","4.81613","27.56","0","SATNPRO1963","25.002","0.35018","5"],
    [38813,"HCEP03730564","2024-11-05 14:30:00","11.9224","3.55712","26.817","2.451428571428572","7.49","4.536","6223.389","0.01","30.38","30.7679","4.81702","27.57","0","SATNPRO1963","25.084","0.35132","5"],
    [38814,"HCEP03730564","2024-11-05 14:45:00","11.922","3.55777","26.834","2.457142857142857","7.5","4.543","6197.892","0.01","3.07","30.7745","4.81796","27.63","0","SATNPRO1963","25.064","0.35106","5"],
    [38815,"HCEP03730564","2024-11-05 15:00:00","11.9219","3.55808","26.859","2.491428571428572","7.49","4.453","6602.541","0.01","19.89","30.7775","4.81838","28.01","0","SATNPRO1963","25.318","0.35464","5"],
    [38816,"HCEP03730564","2024-11-05 15:15:00","11.9218","3.55856","26.933","2.485714285714286","7.5","4.566","6310.171","0.01","18.15","30.7821","4.81904","27.96","0","SATNPRO1963","24.994","0.35008","5"],
    [38817,"HCEP03730564","2024-11-05 15:30:00","11.9217","3.55933","26.982","2.497142857142857","7.5","4.569","6295.943","0.01","3.76","30.7897","4.8201","28.08","0","SATNPRO1963","25.102","0.3516","5"],
    [38818,"HCEP03730564","2024-11-05 15:45:00","11.922","3.56081","27.017","2.558571428571429","7.5","4.518","6544.311","0.01","51.35","30.8036","4.82206","28.78","0","SATNPRO1963","25.5","0.35716","5"],
    [38819,"HCEP03730564","2024-11-05 16:00:00","11.9203","3.5616","27.044","2.57","7.5","4.541","6384.699","0.01","17.36","30.8126","4.82337","28.9","0","SATNPRO1963","25.439999999999998","0.35636","5"],
    [38820,"HCEP03730564","2024-11-05 16:15:00","11.9193","3.56225","27.082","2.57","7.51","4.547","6372.569","0","3.07","30.8197","4.82438","28.9","0","SATNPRO1963","25.6","0.35856","5"],
    [38821,"HCEP03730564","2024-11-05 16:30:00","11.9187","3.5624","27.163","2.552857142857143","7.5","4.494","6636.36","0.01","17.89","30.8216","4.82466","28.71","0","SATNPRO1963","25.318","0.3546","5"],
    [38822,"HCEP03730564","2024-11-05 16:45:00","11.9186","3.5624","27.219","2.562857142857143","7.5","4.555","6335.279","0.01","21.26","30.8217","4.82467","28.83","0","SATNPRO1963","25.682","0.35968","5"],
    [38823,"HCEP03730564","2024-11-05 17:00:00","11.9176","3.56257","27.27","2.581428571428571","7.5","4.567","6327.35","0.01","4.85","30.824","4.82502","29.04","0","SATNPRO1963","25.572","0.3582","5"],
    [38824,"HCEP03730564","2024-11-05 17:15:00","11.9178","3.56302","27.321","2.572857142857143","7.51","4.501","6638.767","0.01","24.74","30.8282","4.82562","28.93","0","SATNPRO1963","25.392","0.35568","5"],
    [38825,"HCEP03730564","2024-11-05 17:30:00","11.9174","3.56379","27.346","2.61","7.51","4.535","6326.309","0.01","22.76","30.8359","4.8267","29.36","0","SATNPRO1963","25.742","0.36056","5"],
    [38826,"HCEP03730564","2024-11-05 17:45:00","11.9172","3.56401","27.372","2.61","7.51","4.542","6302.626","0.01","2.17","30.8382","4.82703","29.36","0","SATNPRO1963","25.696","0.35992","5"],
    [38827,"HCEP03730564","2024-11-05 18:00:00","11.9174","3.56498","27.376","2.707142857142857","7.52","4.497","6597.544","0.01","15.34","30.8473","4.82832","30.45","0","SATNPRO1963","25.494","0.35706","5"],
    [38828,"HCEP03730564","2024-11-05 18:15:00","11.9179","3.56472","27.376","2.695714285714286","7.52","4.541","6288.054","0.01","45.2","30.8444","4.8279","30.32","0","SATNPRO1963","25.454","0.35656","5"],
    [38829,"HCEP03730564","2024-11-05 18:30:00","11.9184","3.56509","27.367","2.702857142857143","7.52","4.54","6255.208","0.01","0","30.8476","4.82834","30.4","0","SATNPRO1963","25.514","0.35744","5"],
    [38830,"HCEP03730564","2024-11-05 18:45:00","11.9175","3.56476","27.346","2.724285714285714","7.52","4.479","6583.208","0.01","16.67","30.8452","4.82801","30.65","0","SATNPRO1963","25.568","0.3581","5"],
    [38831,"HCEP03730564","2024-11-05 19:00:00","11.9176","3.56472","27.317","2.692857142857143","7.52","4.538","6340.313","0.01","39.54","30.8448","4.82795","30.28","0","SATNPRO1963","25.472","0.35678","5"],
    [38832,"HCEP03730564","2024-11-05 19:15:00","11.9174","3.56491","27.282","2.688571428571429","7.52","4.542","6309.362","0.01","3.07","30.8467","4.82822","30.25","0","SATNPRO1963","25.374","0.35546","5"],
    [38833,"HCEP03730564","2024-11-05 19:30:00","11.9168","3.56467","27.226","2.677142857142858","7.52","4.506","6598.407","0.01","10.63","30.8449","4.82798","30.11","0","SATNPRO1963","25.56","0.358","5"],
    [38834,"HCEP03730564","2024-11-05 19:45:00","11.9163","3.56455","27.159","2.651428571428572","7.52","4.537","6329.299","0.01","37.39","30.8442","4.82788","29.83","0","SATNPRO1963","25.454","0.3565","5"],
    [38835,"HCEP03730564","2024-11-05 20:00:00","11.9162","3.56484","27.067","2.62","7.52","4.543","6296.291","0.01","5.31","30.8471","4.82829","29.47","0","SATNPRO1963","25.516","0.35736","5"],
    [38836,"HCEP03730564","2024-11-05 20:15:00","11.9165","3.56493","26.971","2.617142857142857","7.52","4.468","6565.292","0.01","34.31","30.8478","4.82838","29.44","0","SATNPRO1963","25.482","0.3569","5"],
    [38837,"HCEP03730564","2024-11-05 20:30:00","11.9172","3.5655","26.85","2.644285714285714","7.52","4.53","6339.466","0","15.5","30.8527","4.82905","29.75","0","SATNPRO1963","25.524","0.3575","5"],
    [38838,"HCEP03730564","2024-11-05 20:45:00","11.9178","3.566","26.712","2.707142857142857","7.52","4.536","6325.148","0","0","30.8571","4.82966","30.46","0","SATNPRO1963","25.408","0.35592","5"],
    [38839,"HCEP03730564","2024-11-05 21:00:00","11.918","3.56608","26.561","2.76","7.52","4.494","6560.085","0.01","36.82","30.8578","4.82973","31.05","0","SATNPRO1963","25.573999999999998","0.3582","5"],
    [38840,"HCEP03730564","2024-11-05 21:15:00","11.9167","3.56452","26.39","2.747142857142857","7.52","4.524","6277.757","0.01","49.05","30.8439","4.82778","30.91","0","SATNPRO1963","25.602","0.35862","5"],
    [38841,"HCEP03730564","2024-11-05 21:30:00","11.9182","3.56598","26.209","2.717142857142857","7.52","4.528","6239.772","0.01","0","30.8568","4.82957","30.57","0","SATNPRO1963","25.628","0.35898","5"],
    [38842,"HCEP03730564","2024-11-05 21:45:00","11.9183","3.56606","26.01","2.795714285714286","7.52","4.465","6582.7","0.01","28.29","30.8576","4.82967","31.45","0","SATNPRO1963","25.19","0.35284","5"],
    [38843,"HCEP03730564","2024-11-05 22:00:00","11.918","3.5665","25.815","2.814285714285714","7.53","4.527","6286.231","0.01","46.39","30.8621","4.8303","31.66","0","SATNPRO1963","25.124","0.3519","5"],
    [38844,"HCEP03730564","2024-11-05 22:15:00","11.9184","3.56671","25.617","2.847142857142857","7.53","4.529","6248.776","0.01","2.17","30.8638","4.83053","32.03","0","SATNPRO1963","25.304","0.35442","5"],
    [38845,"HCEP03730564","2024-11-05 22:30:00","11.9176","3.56647","25.441","2.85","7.54","4.481","6539.383","0.01","16.81","30.8623","4.83032","32.07","0","SATNPRO1963","25.08","0.35132","5"],
    [38846,"HCEP03730564","2024-11-05 22:45:00","11.9167","3.56668","25.25","2.822857142857143","7.53","4.513","6255.282","0.01","40.94","30.8651","4.83071","31.75","0","SATNPRO1963","25.338","0.35492","5"],
    [38847,"HCEP03730564","2024-11-05 23:00:00","11.9156","3.56679","25.057","2.82","7.53","4.519","6226.297","0.01","3.07","30.8672","4.83101","31.73","0","SATNPRO1963","25.096","0.35148","5"],
    [38848,"HCEP03730564","2024-11-05 23:15:00","11.9145","3.56681","24.876","2.821428571428572","7.53","4.453","6537.98","0.01","19.04","30.8683","4.83117","31.73","0","SATNPRO1963","25.246","0.35364","5"],
    [38849,"HCEP03730564","2024-11-05 23:30:00","11.9134","3.56681","24.701","2.807142857142857","7.53","4.488","6248.031","0.01","23.97","30.8692","4.83131","31.58","0","SATNPRO1963","25.242","0.35352","5"],
    [38850,"HCEP03730564","2024-11-05 23:45:00","11.9129","3.56676","24.538","2.8","7.53","4.495","6224.635","0.01","5.74","30.8693","4.83131","31.49","0","SATNPRO1963","25.29","0.35422","5"],
    [38851,"HCEP03730564","2024-11-06 00:00:00","11.9123","3.56677","24.407","2.798571428571429","7.53","4.459","6545.964","0.01","16.95","30.87","4.83142","31.48","0","SATNPRO1963","25.156","0.35232","5"],
    [38852,"HCEP03730564","2024-11-06 00:15:00","11.9122","3.56667","24.311","2.791428571428571","7.53","4.486","6238.474","0.01","34.78","30.8691","4.83129","31.39","0","SATNPRO1963","25.092","0.35144","5"],
    [38853,"HCEP03730564","2024-11-06 00:30:00","11.912","3.5665","24.232","2.748571428571429","7.53","4.485","6212.882","0","0","30.8677","4.83108","30.91","0","SATNPRO1963","25.01","0.35032","5"],
    [38854,"HCEP03730564","2024-11-06 00:45:00","11.9117","3.56643","24.174","2.711428571428571","7.54","4.441","6490.634","0","18.79","30.8673","4.83104","30.5","0","SATNPRO1963","25.009999999999998","0.35032","5"],
    [38855,"HCEP03730564","2024-11-06 01:00:00","11.912","3.56622","24.205","2.712857142857143","7.53","4.506","6251.296","0","13.2","30.865","4.83071","30.52","0","SATNPRO1963","24.964","0.34968","5"],
    [38856,"HCEP03730564","2024-11-06 01:15:00","11.9131","3.56558","24.28","2.698571428571429","7.52","4.515","6237.869","0.01","3.07","30.8579","4.82969","30.35","0","SATNPRO1963","25.14","0.35214","5"],
    [38857,"HCEP03730564","2024-11-06 01:30:00","11.9155","3.56516","24.314","2.702857142857143","7.53","4.482","6619.28","0.02","52.97","30.8519","4.82882","30.4","0","SATNPRO1963","24.798000000000002","0.34736","5"],
    [38858,"HCEP03730564","2024-11-06 01:45:00","11.9184","3.56477","24.354","2.772857142857143","7.53","4.545","6434.929","0","8.68","30.8458","4.82792","31.19","0","SATNPRO1963","25.296","0.35436","5"],
    [38859,"HCEP03730564","2024-11-06 02:00:00","11.9187","3.56454","24.345","2.872857142857143","7.53","4.549","6420.878","0.01","0","30.8432","4.82755","32.32","0","SATNPRO1963","25.330000000000002","0.35474","5"],
    [38860,"HCEP03730564","2024-11-06 02:15:00","11.9203","3.56327","24.403","2.854285714285714","7.53","4.524","6610.778","0.01","19.16","30.8297","4.82562","32.11","0","SATNPRO1963","25.464","0.35668","5"],
    [38861,"HCEP03730564","2024-11-06 02:30:00","11.9199","3.56298","24.547","2.822857142857143","7.53","4.537","6361.854","0.01","28.79","30.8272","4.82528","31.75","0","SATNPRO1963","25.196","0.35292","5"],
    [38862,"HCEP03730564","2024-11-06 02:45:00","11.9206","3.56232","24.641","2.787142857142857","7.52","4.547","6365.903","0","0","30.8202","4.8243","31.34","0","SATNPRO1963","25.136","0.35208","5"],
    [38863,"HCEP03730564","2024-11-06 03:00:00","11.921","3.56199","24.805","2.768571428571429","7.52","4.477","6577.162","0.01","22.76","30.8167","4.8238","31.14","0","SATNPRO1963","25.244","0.35358","5"],
    [38864,"HCEP03730564","2024-11-06 03:15:00","11.921","3.56147","24.995","2.747142857142857","7.52","4.513","6380.234","0.01","16.38","30.8116","4.82309","30.9","0","SATNPRO1963","25.248","0.35362","5"],
    [38865,"HCEP03730564","2024-11-06 03:30:00","11.922","3.56045","25.115","2.704285714285714","7.52","4.523","6361.79","0.01","3.76","30.8009","4.82158","30.41","0","SATNPRO1963","25.272000000000002","0.35398","5"],
    [38866,"HCEP03730564","2024-11-06 03:45:00","11.9229","3.55928","25.282","2.655714285714286","7.52","4.505","6574.386","0.01","29.83","30.7888","4.81987","29.87","0","SATNPRO1963","25.082","0.35134","5"],
    [38867,"HCEP03730564","2024-11-06 04:00:00","11.9235","3.55837","25.449","2.611428571428572","7.51","4.504","6410.303","0.01","9.7","30.7796","4.81857","29.37","0","SATNPRO1963","24.884","0.34852","5"],
    [38868,"HCEP03730564","2024-11-06 04:15:00","11.9239","3.55751","25.63","2.558571428571429","7.51","4.506","6407.1","0.01","4.85","30.7709","4.81735","28.77","0","SATNPRO1963","24.82","0.34764","5"],
    [38869,"HCEP03730564","2024-11-06 04:30:00","11.9246","3.556","25.802","2.511428571428572","7.5","4.511","6596.981","0.01","25.4","30.7558","4.81522","28.23","0","SATNPRO1963","24.806","0.34746","5"],
    [38870,"HCEP03730564","2024-11-06 04:45:00","11.9248","3.55413","25.974","2.434285714285714","7.5","4.542","6397.336","0","14.56","30.7376","4.81266","27.37","0","SATNPRO1963","24.302","0.3404","5"],
    [38871,"HCEP03730564","2024-11-06 05:00:00","11.925","3.55193","26.201","2.355714285714286","7.49","4.544","6371.386","0","4.34","30.7162","4.80965","26.48","0","SATNPRO1963","24.326","0.34072","5"],
    [38872,"HCEP03730564","2024-11-06 05:15:00","11.9254","3.55088","26.385","2.314285714285714","7.49","4.522","6587.075","0.01","29.59","30.7057","4.80818","26.02","0","SATNPRO1963","24.39","0.34166","5"],
    [38873,"HCEP03730564","2024-11-06 05:30:00","11.926","3.54933","26.589","2.287142857142857","7.49","4.535","6398.951","0","8.68","30.6902","4.806","25.71","0","SATNPRO1963","24.308","0.34048","5"],
    [38874,"HCEP03730564","2024-11-06 05:45:00","11.9266","3.54756","26.774","2.262857142857143","7.49","4.545","6381.576","0.01","3.76","30.6726","4.80352","25.44","0","SATNPRO1963","23.946","0.3354","5"],
    [38875,"HCEP03730564","2024-11-06 06:00:00","11.927","3.54683","26.914","2.262857142857143","7.49","4.503","6536.686","0.01","20.12","30.6653","4.80249","25.43","0","SATNPRO1963","24.114","0.33776","5"],
    [38876,"HCEP03730564","2024-11-06 06:15:00","11.9275","3.54597","27.101","2.252857142857143","7.48","4.521","6381.604","0","9.21","30.6566","4.80127","25.32","0","SATNPRO1963","24.054","0.33688","5"],
    [38877,"HCEP03730564","2024-11-06 06:30:00","11.9273","3.54528","27.255","2.23","7.48","4.526","6358.485","0","3.76","30.65","4.80035","25.07","0","SATNPRO1963","24.052","0.33688","5"],
    [38878,"HCEP03730564","2024-11-06 06:45:00","11.927","3.54511","27.383","2.217142857142857","7.47","4.47","6498.045","0.01","20.7","30.6487","4.80017","24.91","0","SATNPRO1963","23.872","0.33436","5"],
    [38879,"HCEP03730564","2024-11-06 07:00:00","11.927","3.54525","27.522","2.195714285714286","7.48","4.491","6230.798","0.01","9.94","30.6499","4.80035","24.67","0","SATNPRO1963","24.062","0.33704","5"],
    [38880,"HCEP03730564","2024-11-06 07:15:00","11.927","3.54639","27.629","2.197142857142857","7.48","4.493","6229.591","0.01","4.85","30.6608","4.8019","24.7","0","SATNPRO1963","23.872","0.33438","5"],
    [38881,"HCEP03730564","2024-11-06 07:30:00","11.9268","3.5473","27.723","2.185714285714286","7.48","4.417","6380.491","0.01","40.94","30.6697","4.80315","24.56","0","SATNPRO1963","23.84","0.3339","5"],
    [38882,"HCEP03730564","2024-11-06 07:45:00","11.9257","3.5484","27.864","2.204285714285714","7.47","4.493","6114.932","0.01","18.98","30.6811","4.80479","24.77","0","SATNPRO1963","23.984","0.33594","5"],
    [38883,"HCEP03730564","2024-11-06 08:00:00","11.9229","3.55424","27.959","2.218571428571428","7.47","4.498","6097.579","0","3.07","30.7394","4.81306","24.95","0","SATNPRO1963","24.204","0.339","5"],
    [38884,"HCEP03730564","2024-11-06 08:15:00","11.9231","3.55529","28.027","2.288571428571429","7.47","4.397","6446.375","0.01","24.26","30.7493","4.81445","25.73","0","SATNPRO1963","24.486","0.34296","5"],
    [38885,"HCEP03730564","2024-11-06 08:30:00","11.9226","3.5558","28.135","2.341428571428572","7.47","4.49","6025.66","0.01","22.44","30.7546","4.81522","26.32","0","SATNPRO1963","24.248","0.33962","5"],
    [38886,"HCEP03730564","2024-11-06 08:45:00","11.922","3.55646","27.916","2.368571428571428","7.48","4.496","5999.257","0.01","5.53","30.7615","4.81618","26.63","0","SATNPRO1963","24.082","0.3373","5"],
    [38887,"HCEP03730564","2024-11-06 09:00:00","11.9218","3.55696","27.872","2.38","7.49","4.407","6263.175","0.01","24.26","30.7665","4.81689","26.77","0","SATNPRO1963","24.244","0.33956","5"],
    [38888,"HCEP03730564","2024-11-06 09:15:00","11.9214","3.55752","27.803","2.41","7.49","4.447","5879.789","0.01","38.97","30.7722","4.81769","27.09","0","SATNPRO1963","24.158","0.33836","5"],
    [38889,"HCEP03730564","2024-11-06 09:30:00","11.9213","3.55783","27.772","2.428571428571428","7.49","4.451","5869.466","0","0","30.7753","4.81813","27.32","0","SATNPRO1963","24.132","0.33802","5"],
    [38890,"HCEP03730564","2024-11-06 09:45:00","11.9214","3.55754","27.723","2.45","7.49","4.377","6339.169","0.01","13.89","30.7725","4.81773","27.56","0","SATNPRO1963","24.832","0.34784","5"],
    [38891,"HCEP03730564","2024-11-06 10:00:00","11.9211","3.55765","27.659","2.438571428571429","7.49","4.472","6006.819","0.01","20.58","30.7738","4.81791","27.43","0","SATNPRO1963","24.33","0.34076","5"],
    [38892,"HCEP03730564","2024-11-06 10:15:00","11.9212","3.55713","27.618","2.418571428571429","7.5","4.466","5995.775","0.01","3.76","30.7687","4.81719","27.2","0","SATNPRO1963","24.486","0.34294","5"],
    [38893,"HCEP03730564","2024-11-06 10:30:00","11.9215","3.5575","27.614","2.398571428571429","7.5","4.409","6294.361","0.01","9.21","30.772","4.81765","26.98","0","SATNPRO1963","24.554","0.3439","5"],
    [38894,"HCEP03730564","2024-11-06 10:45:00","11.9211","3.55744","27.596","2.41","7.5","4.446","5961.153","0.01","14.31","30.7717","4.81762","27.1","0","SATNPRO1963","24.55","0.34388","5"],
    [38895,"HCEP03730564","2024-11-06 11:00:00","11.9211","3.55801","27.545","2.415714285714286","7.5","4.452","5945.776","0.01","2.66","30.7772","4.81839","27.16","0","SATNPRO1963","24.646","0.34524","5"],
    [38896,"HCEP03730564","2024-11-06 11:15:00","11.9208","3.5582","27.467","2.425714285714286","7.5","4.384","6379.403","0.02","21.48","30.7794","4.81869","27.28","0","SATNPRO1963","24.744","0.34656","5"],
    [38897,"HCEP03730564","2024-11-06 11:30:00","11.9207","3.55847","27.411","2.435714285714286","7.5","4.472","6087.312","0.01","16.02","30.7821","4.81908","27.39","0","SATNPRO1963","24.686","0.34578","5"],
    [38898,"HCEP03730564","2024-11-06 11:45:00","11.9204","3.55882","27.337","2.44","7.5","4.477","6067.951","0.01","4.85","30.7857","4.81959","27.43","0","SATNPRO1963","24.72","0.34628","5"],
    [38899,"HCEP03730564","2024-11-06 12:00:00","11.9204","3.55883","27.274","2.435714285714286","7.5","4.409","6414.422","0.01","18.15","30.7859","4.8196","27.39","0","SATNPRO1963","24.506","0.34324","5"],
    [38900,"HCEP03730564","2024-11-06 12:15:00","11.9204","3.55871","27.19","2.444285714285714","7.49","4.477","6104.6","0.01","11.17","30.7847","4.81943","27.49","0","SATNPRO1963","24.862","0.34822","5"],
    [38901,"HCEP03730564","2024-11-06 12:30:00","11.9206","3.5582","27.137","2.448571428571428","7.49","4.479","6084.641","0.01","4.06","30.7797","4.81873","27.53","0","SATNPRO1963","24.854","0.34818","5"],
    [38902,"HCEP03730564","2024-11-06 12:45:00","11.9215","3.55663","27.064","2.458571428571429","7.49","4.432","6351.287","0.02","17.09","30.7639","4.81648","27.64","0","SATNPRO1963","24.812","0.3475","5"],
    [38903,"HCEP03730564","2024-11-06 13:00:00","11.9212","3.55724","27.012","2.472857142857143","7.49","4.483","6063.985","0.01","19.95","30.77","4.81734","27.8","0","SATNPRO1963","24.936","0.34928","5"],
    [38904,"HCEP03730564","2024-11-06 13:15:00","11.9209","3.55745","26.961","2.47","7.5","4.489","6042.693","0.01","0","30.7723","4.81766","27.78","0","SATNPRO1963","24.868","0.34832","5"],
    [38905,"HCEP03730564","2024-11-06 13:30:00","11.921","3.55765","26.901","2.484285714285714","7.49","4.399","6356.713","0.01","13.38","30.7741","4.81792","27.94","0","SATNPRO1963","24.802","0.34738","5"],
    [38906,"HCEP03730564","2024-11-06 13:45:00","11.9204","3.55812","26.878","2.508571428571428","7.5","4.465","5994.022","0.01","7.36","30.7792","4.81864","28.2","0","SATNPRO1963","25.048","0.35086","5"],
    [38907,"HCEP03730564","2024-11-06 14:00:00","11.9194","3.55838","26.836","2.557142857142857","7.5","4.466","5985.489","0.01","0","30.7825","4.81912","28.75","0","SATNPRO1963","24.85","0.34806","5"],
    [38908,"HCEP03730564","2024-11-06 14:15:00","11.9187","3.55936","26.838","2.61","7.5","4.396","6289.054","0.01","20.47","30.7925","4.82054","29.36","0","SATNPRO1963","24.926","0.34912","5"],
    [38909,"HCEP03730564","2024-11-06 14:30:00","11.9188","3.55908","26.838","2.734285714285714","7.5","4.464","6053.75","0.01","14.06","30.7897","4.82014","30.74","0","SATNPRO1963","25.006","0.3503","5"],
    [38910,"HCEP03730564","2024-11-06 14:45:00","11.9185","3.55927","26.842","2.728571428571429","7.51","4.471","6030.842","0.01","4.85","30.7918","4.82045","30.68","0","SATNPRO1963","25.084","0.35134","5"],
    [38911,"HCEP03730564","2024-11-06 15:00:00","11.9188","3.55922","26.855","2.75","7.52","4.403","6351.021","0.02","22.13","30.791","4.82033","30.92","0","SATNPRO1963","24.982","0.34992","5"],
    [38912,"HCEP03730564","2024-11-06 15:15:00","11.9194","3.55934","26.874","2.701428571428572","7.52","4.453","6059","0.01","17.89","30.7917","4.82042","30.37","0","SATNPRO1963","25.01","0.35032","5"],
    [38913,"HCEP03730564","2024-11-06 15:30:00","11.9193","3.55964","26.897","2.641428571428572","7.52","4.462","6042.266","0","4.06","30.7947","4.82084","29.7","0","SATNPRO1963","25.092000000000002","0.3515","5"],
    [38914,"HCEP03730564","2024-11-06 15:45:00","11.919","3.55981","26.928","2.555714285714286","7.51","4.412","6282.208","0.01","11.27","30.7965","4.82111","28.75","0","SATNPRO1963","24.99","0.35002","5"],
    [38915,"HCEP03730564","2024-11-06 16:00:00","11.9199","3.55921","26.97","2.521428571428571","7.51","4.443","6024.111","0.01","15.8","30.79","4.82018","28.35","0","SATNPRO1963","25.252","0.35372","5"],
    [38916,"HCEP03730564","2024-11-06 16:15:00","11.9199","3.55912","26.98","2.562857142857143","7.5","4.445","6007.212","0.01","3.07","30.7891","4.82005","28.82","0","SATNPRO1963","25.204","0.35302","5"],
    [38917,"HCEP03730564","2024-11-06 16:30:00","11.9198","3.55901","27.028","2.527142857142857","7.5","4.378","6348.762","0.02","17.89","30.7881","4.81992","28.41","0","SATNPRO1963","24.814","0.34758","5"],
    [38918,"HCEP03730564","2024-11-06 16:45:00","11.9191","3.55893","27.066","2.478571428571429","7.49","4.429","6010.807","0.01","15.34","30.7879","4.8199","27.88","0","SATNPRO1963","24.844","0.34798","5"],
    [38919,"HCEP03730564","2024-11-06 17:00:00","11.9187","3.55871","27.088","2.401428571428572","7.5","4.44","5997.477","0.01","4.06","30.7861","4.81966","27","0","SATNPRO1963","24.814","0.34756","5"],
    [38920,"HCEP03730564","2024-11-06 17:15:00","11.9186","3.55816","27.126","2.345714285714286","7.49","4.387","6294.31","0.02","15.65","30.781","4.81893","26.38","0","SATNPRO1963","24.798000000000002","0.34732","5"],
    [38921,"HCEP03730564","2024-11-06 17:30:00","11.9184","3.5579","27.155","2.32","7.49","4.444","5914.265","0.01","15.8","30.7786","4.8186","26.09","0","SATNPRO1963","24.642","0.34516","5"],
    [38922,"HCEP03730564","2024-11-06 17:45:00","11.9182","3.55766","27.184","2.305714285714286","7.49","4.454","5897.774","0.01","2.17","30.7764","4.8183","25.93","0","SATNPRO1963","24.594","0.34448","5"],
    [38923,"HCEP03730564","2024-11-06 18:00:00","11.918","3.55755","27.206","2.304285714285714","7.49","4.381","6263.174","0.01","20.7","30.7755","4.81818","25.91","0","SATNPRO1963","24.848000000000003","0.34806","5"],
    [38924,"HCEP03730564","2024-11-06 18:15:00","11.9176","3.55738","27.216","2.29","7.48","4.451","5980.89","0.01","14.8","30.7742","4.818","25.75","0","SATNPRO1963","24.736","0.34648","5"],
    [38925,"HCEP03730564","2024-11-06 18:30:00","11.917","3.5573","27.224","2.29","7.48","4.457","5959.688","0.01","4.34","30.7739","4.81796","25.75","0","SATNPRO1963","24.572","0.34418","5"],
    [38926,"HCEP03730564","2024-11-06 18:45:00","11.917","3.55764","27.244","2.284285714285714","7.48","4.382","6243.851","0.02","22.02","30.7773","4.81844","25.69","0","SATNPRO1963","24.98","0.34988","5"],
    [38927,"HCEP03730564","2024-11-06 19:00:00","11.9168","3.55793","27.235","2.254285714285714","7.48","4.439","5887.234","0.01","16.02","30.7801","4.81884","25.35","0","SATNPRO1963","24.516","0.3434","5"],
    [38928,"HCEP03730564","2024-11-06 19:15:00","11.9167","3.55842","27.189","2.247142857142857","7.48","4.445","5871.477","0","3.43","30.7849","4.81952","25.28","0","SATNPRO1963","24.676000000000002","0.3456","5"],
    [38929,"HCEP03730564","2024-11-06 19:30:00","11.9168","3.5589","27.146","2.242857142857143","7.48","4.364","6271.834","0.01","19.29","30.7896","4.82017","25.21","0","SATNPRO1963","24.538","0.34368","5"],
    [38930,"HCEP03730564","2024-11-06 19:45:00","11.9164","3.56005","27.096","2.242857142857143","7.48","4.433","5906.178","0.01","13.64","30.8009","4.82178","25.21","0","SATNPRO1963","24.419999999999998","0.34204","5"],
    [38931,"HCEP03730564","2024-11-06 20:00:00","11.9163","3.56052","27.043","2.268571428571429","7.48","4.438","5896.157","0.01","4.6","30.8056","4.82243","25.51","0","SATNPRO1963","24.724","0.34634","5"],
    [38932,"HCEP03730564","2024-11-06 20:15:00","11.9165","3.56093","26.96","2.295714285714286","7.47","4.373","6224.296","0.02","23.47","30.8094","4.82296","25.82","0","SATNPRO1963","24.722","0.34628","5"],
    [38933,"HCEP03730564","2024-11-06 20:30:00","11.9166","3.56102","26.863","2.307142857142857","7.47","4.389","5828.558","0.02","19.1","30.8102","4.82306","25.95","0","SATNPRO1963","24.622","0.34488","5"],
    [38934,"HCEP03730564","2024-11-06 20:45:00","11.9166","3.56142","26.748","2.317142857142857","7.48","4.394","5815.078","0.01","4.34","30.8141","4.82361","26.06","0","SATNPRO1963","24.66","0.3454","5"],
    [38935,"HCEP03730564","2024-11-06 21:00:00","11.9162","3.56189","26.636","2.355714285714286","7.47","4.324","6231.31","0.01","17.09","30.819","4.8243","26.5","0","SATNPRO1963","24.804","0.34742","5"],
    [38936,"HCEP03730564","2024-11-06 21:15:00","11.9159","3.56193","26.53","2.391428571428572","7.48","4.41","5831.515","0.01","14.15","30.8196","4.82438","26.9","0","SATNPRO1963","24.69","0.34586","5"],
    [38937,"HCEP03730564","2024-11-06 21:30:00","11.9159","3.56208","26.403","2.41","7.48","4.417","5830.612","0","4.06","30.8211","4.82459","27.1","0","SATNPRO1963","24.882","0.3485","5"],
    [38938,"HCEP03730564","2024-11-06 21:45:00","11.9158","3.5621","26.262","2.431428571428572","7.48","4.357","6225.447","0.02","23.77","30.8215","4.82463","27.34","0","SATNPRO1963","24.768","0.34692","5"],
    [38939,"HCEP03730564","2024-11-06 22:00:00","11.9157","3.56209","26.095","2.448571428571428","7.48","4.412","5841.056","0.01","11.38","30.8215","4.82463","27.54","0","SATNPRO1963","24.968","0.3497","5"],
    [38940,"HCEP03730564","2024-11-06 22:15:00","11.9156","3.56203","25.923","2.461428571428572","7.48","4.417","5830.137","0","3.76","30.8211","4.82456","27.69","0","SATNPRO1963","24.722","0.3463","5"],
    [38941,"HCEP03730564","2024-11-06 22:30:00","11.9153","3.56197","25.75","2.45","7.49","4.381","6215.273","0.02","25.3","30.8208","4.82451","27.56","0","SATNPRO1963","24.75","0.34666","5"],
    [38942,"HCEP03730564","2024-11-06 22:45:00","11.9159","3.56163","25.61","2.428571428571428","7.49","4.415","5895.343","0.01","18.98","30.8171","4.82398","27.31","0","SATNPRO1963","24.786","0.34718","5"],
    [38943,"HCEP03730564","2024-11-06 23:00:00","11.916","3.56136","25.454","2.421428571428572","7.49","4.423","5884.954","0.01","1.53","30.8145","4.8236","27.23","0","SATNPRO1963","24.796","0.34732","5"],
    [38944,"HCEP03730564","2024-11-06 23:15:00","11.9161","3.56087","25.291","2.432857142857143","7.48","4.377","6235.623","0.02","18.28","30.8098","4.82293","27.36","0","SATNPRO1963","24.573999999999998","0.34424","5"],
    [38945,"HCEP03730564","2024-11-06 23:30:00","11.9163","3.56063","25.13","2.48","7.49","4.448","5899.778","0.01","29.87","30.8074","4.82258","27.89","0","SATNPRO1963","24.834","0.34782","5"],
    [38946,"HCEP03730564","2024-11-06 23:45:00","11.9155","3.56066","24.951","2.558571428571429","7.49","4.451","5876.294","0.01","3.07","30.8083","4.82271","28.78","0","SATNPRO1963","24.64","0.34508","5"],
    [38947,"HCEP03730564","2024-11-07 00:00:00","11.9148","3.56073","24.764","2.624285714285714","7.5","4.376","6265.19","0.02","27.19","30.8097","4.8229","29.51","0","SATNPRO1963","24.712","0.34612","5"],
    [38948,"HCEP03730564","2024-11-07 00:15:00","11.9137","3.56086","24.604","2.645714285714286","7.51","4.434","5910.083","0.01","25.4","30.8119","4.82323","29.75","0","SATNPRO1963","24.598","0.34454","5"],
    [38949,"HCEP03730564","2024-11-07 00:30:00","11.9128","3.56128","24.452","2.66","7.51","4.439","5891.283","0.01","3.76","30.8168","4.82392","29.92","0","SATNPRO1963","24.652","0.34532","5"],
    [38950,"HCEP03730564","2024-11-07 00:45:00","11.912","3.5616","24.343","2.68","7.51","4.346","6205.656","0.01","13.02","30.8206","4.82445","30.14","0","SATNPRO1963","24.632","0.34502","5"],
    [38951,"HCEP03730564","2024-11-07 01:00:00","11.9113","3.56165","24.243","2.712857142857143","7.51","4.401","5894.023","0.01","25.12","30.8216","4.82461","30.5","0","SATNPRO1963","24.823999999999998","0.3477","5"],
    [38952,"HCEP03730564","2024-11-07 01:15:00","11.9117","3.56158","24.176","2.732857142857143","7.51","4.406","5879.075","0","3.76","30.8206","4.82445","30.73","0","SATNPRO1963","24.668","0.34552","5"],
    [38953,"HCEP03730564","2024-11-07 01:30:00","11.9109","3.56175","24.144","2.735714285714286","7.51","4.341","6226.167","0.01","17.36","30.8229","4.82479","30.77","0","SATNPRO1963","25.05","0.3509","5"],
    [38954,"HCEP03730564","2024-11-07 01:45:00","11.9107","3.56177","24.183","2.76","7.51","4.411","5876.011","0.01","22.34","30.8232","4.82484","31.04","0","SATNPRO1963","24.854","0.34814","5"],
    [38955,"HCEP03730564","2024-11-07 02:00:00","11.9108","3.56175","24.199","2.74","7.52","4.415","5854.33","0","1.53","30.823","4.8248","30.82","0","SATNPRO1963","25.044","0.35076","5"],
    [38956,"HCEP03730564","2024-11-07 02:15:00","11.911","3.56161","24.278","2.725714285714286","7.52","4.381","6174.357","0.01","21.64","30.8215","4.82459","30.66","0","SATNPRO1963","24.93","0.3492","5"],
    [38957,"HCEP03730564","2024-11-07 02:30:00","11.9109","3.56162","24.355","2.73","7.52","4.421","5935.883","0.01","20.18","30.8216","4.82462","30.7","0","SATNPRO1963","24.7","0.34594","5"],
    [38958,"HCEP03730564","2024-11-07 02:45:00","11.9112","3.56157","24.431","2.727142857142857","7.52","4.426","5916.408","0.01","4.06","30.8208","4.82451","30.67","0","SATNPRO1963","24.928","0.34918","5"],
    [38959,"HCEP03730564","2024-11-07 03:00:00","11.9111","3.56152","24.513","2.742857142857143","7.51","4.376","6177.939","0.01","17.83","30.8204","4.82445","30.84","0","SATNPRO1963","24.75","0.34664","5"],
    [38960,"HCEP03730564","2024-11-07 03:15:00","11.9115","3.56138","24.626","2.74","7.52","4.424","5887.269","0.01","26.66","30.8187","4.82422","30.81","0","SATNPRO1963","24.944","0.34938","5"],
    [38961,"HCEP03730564","2024-11-07 03:30:00","11.9115","3.56132","24.743","2.745714285714286","7.52","4.425","5860.546","0.01","3.43","30.8181","4.82413","30.87","0","SATNPRO1963","24.898","0.34872","5"],
    [38962,"HCEP03730564","2024-11-07 03:45:00","11.9118","3.56122","24.866","2.742857142857143","7.52","4.377","6109.303","0.01","25.44","30.8169","4.82396","30.85","0","SATNPRO1963","25.19","0.35282","5"],
    [38963,"HCEP03730564","2024-11-07 04:00:00","11.912","3.56115","24.97","2.742857142857143","7.51","4.414","5933.385","0.01","10.52","30.8159","4.82383","30.84","0","SATNPRO1963","24.81","0.34752","5"],
    [38964,"HCEP03730564","2024-11-07 04:15:00","11.9125","3.56102","25.145","2.737142857142857","7.52","4.418","5913.333","0.01","3.07","30.8142","4.82359","30.77","0","SATNPRO1963","24.638","0.34514","5"],
    [38965,"HCEP03730564","2024-11-07 04:30:00","11.9128","3.56093","25.303","2.742857142857143","7.51","4.374","6141.349","0.02","26.71","30.8131","4.82344","30.84","0","SATNPRO1963","24.944","0.34938","5"],
    [38966,"HCEP03730564","2024-11-07 04:45:00","11.9129","3.56083","25.44","2.742857142857143","7.51","4.421","5869.417","0.01","18.15","30.812","4.82329","30.84","0","SATNPRO1963","25.79","0.36124","5"],
    [38967,"HCEP03730564","2024-11-07 05:00:00","11.9131","3.56066","25.605","2.724285714285714","7.51","4.424","5848.142","0.01","0","30.8101","4.82303","30.64","0","SATNPRO1963","26.332","0.36878","5"],
    [38968,"HCEP03730564","2024-11-07 05:15:00","11.9136","3.56053","25.777","2.707142857142857","7.52","4.361","6138.016","0.01","33.37","30.8084","4.82279","30.44","0","SATNPRO1963","24.514","0.34336","5"],
    [38969,"HCEP03730564","2024-11-07 05:30:00","11.9142","3.56022","25.964","2.692857142857143","7.52","4.415","5790.186","0","9.46","30.8048","4.82229","30.28","0","SATNPRO1963","24.796","0.34734","5"],
    [38970,"HCEP03730564","2024-11-07 05:45:00","11.9137","3.56025","26.164","2.69","7.52","4.423","5770.405","0.01","0","30.8055","4.8224","30.24","0","SATNPRO1963","25.548000000000002","0.35782","5"],
    [38971,"HCEP03730564","2024-11-07 06:00:00","11.9145","3.55998","26.359","2.665714285714286","7.52","4.363","6104.35","0.01","35.55","30.8021","4.82192","29.98","0","SATNPRO1963","24.842","0.34796","5"],
    [38972,"HCEP03730564","2024-11-07 06:15:00","11.915","3.55969","26.539","2.642857142857143","7.51","4.398","5799.662","0","12.18","30.7989","4.82147","29.72","0","SATNPRO1963","24.97","0.34976","5"],
    [38973,"HCEP03730564","2024-11-07 06:30:00","11.9152","3.55956","26.711","2.61","7.51","4.404","5787.574","0.01","0","30.7973","4.82126","29.36","0","SATNPRO1963","24.524","0.34352","5"],
    [38974,"HCEP03730564","2024-11-07 06:45:00","11.916","3.5592","26.874","2.582857142857143","7.51","4.341","6105.778","0.01","19.16","30.7931","4.82067","29.05","0","SATNPRO1963","24.65","0.34526","5"],
    [38975,"HCEP03730564","2024-11-07 07:00:00","11.9157","3.55923","27.01","2.558571428571429","7.51","4.393","5668.158","0.01","12.08","30.7937","4.82077","28.78","0","SATNPRO1963","24.802","0.34742","5"],
    [38976,"HCEP03730564","2024-11-07 07:15:00","11.9165","3.55866","27.154","2.532857142857143","7.51","4.397","5655.455","0.01","2.66","30.7874","4.81987","28.48","0","SATNPRO1963","25.105999999999998","0.35166","5"],
    [38977,"HCEP03730564","2024-11-07 07:30:00","11.9167","3.55876","27.283","2.515714285714286","7.5","4.293","6069.238","0.01","21.64","30.7882","4.81998","28.28","0","SATNPRO1963","24.682","0.34572","5"],
    [38978,"HCEP03730564","2024-11-07 07:45:00","11.9166","3.55847","27.393","2.512857142857143","7.5","4.404","5626.728","0.01","13.72","30.7855","4.81962","28.26","0","SATNPRO1963","24.724","0.34626","5"],
    [38979,"HCEP03730564","2024-11-07 08:00:00","11.9164","3.55861","27.474","2.515714285714286","7.49","4.408","5610.279","0.01","1.53","30.7869","4.81982","28.28","0","SATNPRO1963","24.558","0.34398","5"],
    [38980,"HCEP03730564","2024-11-07 08:15:00","11.9157","3.55923","27.554","2.527142857142857","7.5","4.296","5964.498","0.01","41.43","30.7934","4.82075","28.42","0","SATNPRO1963","24.758","0.3468","5"],
    [38981,"HCEP03730564","2024-11-07 08:30:00","11.914","3.55971","27.619","2.528571428571428","7.5","4.387","5549.952","0.01","14.06","30.7994","4.82162","28.44","0","SATNPRO1963","24.506","0.34322","5"],
    [38982,"HCEP03730564","2024-11-07 08:45:00","11.9136","3.5598","27.655","2.52","7.5","4.391","5537.344","0.01","2.17","30.8006","4.8218","28.34","0","SATNPRO1963","24.476","0.34284","5"],
    [38983,"HCEP03730564","2024-11-07 09:00:00","11.9143","3.55984","27.698","2.521428571428571","7.5","4.279","5895.213","0.01","44.6","30.8005","4.82177","28.35","0","SATNPRO1963","24.45","0.34246","5"],
    [38984,"HCEP03730564","2024-11-07 09:15:00","11.9144","3.55988","27.79","2.542857142857143","7.5","4.362","5414.135","0.01","15.8","30.8007","4.82181","28.6","0","SATNPRO1963","24.526","0.34354","5"],
    [38985,"HCEP03730564","2024-11-07 09:30:00","11.9142","3.55998","27.813","2.567142857142857","7.5","4.362","5405.55","0","3.43","30.8017","4.82196","28.87","0","SATNPRO1963","24.67","0.34556","5"],
    [38986,"HCEP03730564","2024-11-07 09:45:00","11.9145","3.55995","27.823","2.607142857142857","7.49","4.244","5972.555","0.02","26.49","30.8013","4.82189","29.31","0","SATNPRO1963","24.65","0.34528","5"],
    [38987,"HCEP03730564","2024-11-07 10:00:00","11.9132","3.56017","27.826","2.58","7.51","4.356","5498.125","0","13.2","30.8044","4.82234","29.01","0","SATNPRO1963","24.654","0.34528","5"],
    [38988,"HCEP03730564","2024-11-07 10:15:00","11.9126","3.56027","27.827","2.524285714285714","7.51","4.365","5488.698","0.01","4.06","30.8059","4.82256","28.38","0","SATNPRO1963","24.546","0.3438","5"],
    [38989,"HCEP03730564","2024-11-07 10:30:00","11.9123","3.56036","27.812","2.497142857142857","7.5","4.26","5924.906","0.01","26.17","30.807","4.82274","28.09","0","SATNPRO1963","24.204","0.339","5"],
    [38990,"HCEP03730564","2024-11-07 10:45:00","11.9124","3.5604","27.792","2.501428571428571","7.5","4.344","5543.425","0.01","9.33","30.8073","4.82277","28.13","0","SATNPRO1963","24.128","0.33796","5"],
    [38991,"HCEP03730564","2024-11-07 11:00:00","11.9123","3.5605","27.766","2.51","7.5","4.352","5536.666","0.01","1.53","30.8083","4.82291","28.23","0","SATNPRO1963","24.169999999999998","0.33854","5"],
    [38992,"HCEP03730564","2024-11-07 11:15:00","11.912","3.56054","27.738","2.527142857142857","7.49","4.261","5925.597","0.01","27.57","30.809","4.82302","28.41","0","SATNPRO1963","24.408","0.34186","5"],
    [38993,"HCEP03730564","2024-11-07 11:30:00","11.9119","3.56054","27.674","2.525714285714286","7.5","4.354","5470.704","0.01","12.56","30.8091","4.82303","28.4","0","SATNPRO1963","24.456","0.34254","5"],
    [38994,"HCEP03730564","2024-11-07 11:45:00","11.9121","3.56059","27.631","2.518571428571429","7.5","4.367","5477.408","0.01","4.85","30.8095","4.82307","28.31","0","SATNPRO1963","24.54","0.34372","5"],
    [38995,"HCEP03730564","2024-11-07 12:00:00","11.9117","3.56061","27.58","2.54","7.49","4.2","5823.43","0.01","16.45","30.81","4.82314","28.56","0","SATNPRO1963","24.4","0.34174","5"],
    [38996,"HCEP03730564","2024-11-07 12:15:00","11.9116","3.56064","27.517","2.534285714285714","7.49","4.347","5357.604","0.01","15.34","30.8104","4.8232","28.5","0","SATNPRO1963","24.598","0.34452","5"],
    [38997,"HCEP03730564","2024-11-07 12:30:00","11.9114","3.56064","27.457","2.53","7.5","4.347","5349.717","0.01","3.07","30.8106","4.82323","28.44","0","SATNPRO1963","24.288","0.34018","5"],
    [38998,"HCEP03730564","2024-11-07 12:45:00","11.9115","3.56068","27.377","2.515714285714286","7.5","4.237","5827.951","0.01","19.77","30.8109","4.82327","28.29","0","SATNPRO1963","24.058","0.33694","5"],
    [38999,"HCEP03730564","2024-11-07 13:00:00","11.9113","3.56071","27.297","2.497142857142857","7.5","4.355","5462.959","0.01","16.09","30.8114","4.82334","28.08","0","SATNPRO1963","24.276","0.34004","5"],
    [39000,"HCEP03730564","2024-11-07 13:15:00","11.9114","3.56078","27.235","2.498571428571429","7.5","4.365","5449.21","0.01","1.53","30.812","4.82342","28.09","0","SATNPRO1963","24.244","0.33958","5"],
    [39001,"HCEP03730564","2024-11-07 13:30:00","11.9112","3.56078","27.165","2.502857142857143","7.5","4.232","5936.108","0.02","32.47","30.8122","4.82343","28.15","0","SATNPRO1963","24.298000000000002","0.34034","5"],
    [39002,"HCEP03730564","2024-11-07 13:45:00","11.9115","3.56074","27.111","2.52","7.5","4.356","5427.597","0.01","19.53","30.8115","4.82334","28.33","0","SATNPRO1963","24.382","0.34154","5"],
    [39003,"HCEP03730564","2024-11-07 14:00:00","11.9114","3.56066","27.04","2.512857142857143","7.5","4.373","5431.194","0","2.17","30.811","4.82326","28.25","0","SATNPRO1963","24.316","0.34062","5"],
    [39004,"HCEP03730564","2024-11-07 14:15:00","11.9119","3.56061","26.977","2.512857142857143","7.5","4.255","5796.775","0.01","32.33","30.8101","4.82313","28.26","0","SATNPRO1963","24.562","0.34402","5"],
    [39005,"HCEP03730564","2024-11-07 14:30:00","11.9119","3.56061","26.923","2.512857142857143","7.5","4.352","5325.256","0.02","21.91","30.8101","4.82313","28.26","0","SATNPRO1963","24.74","0.34656","5"],
    [39006,"HCEP03730564","2024-11-07 14:45:00","11.9119","3.56058","26.861","2.51","7.5","4.362","5310.159","0","1.53","30.8099","4.82308","28.23","0","SATNPRO1963","24.472","0.34278","5"],
    [39007,"HCEP03730564","2024-11-07 15:00:00","11.9117","3.56059","26.836","2.501428571428571","7.5","4.22","5796.72","0.01","30.07","30.81","4.82311","28.13","0","SATNPRO1963","24.874","0.34838","5"],
    [39008,"HCEP03730564","2024-11-07 15:15:00","11.9121","3.56052","26.81","2.504285714285714","7.5","4.367","5327.492","0.01","13.64","30.8092","4.82298","28.15","0","SATNPRO1963","24.532","0.34358","5"],
    [39009,"HCEP03730564","2024-11-07 15:30:00","11.9122","3.56032","26.799","2.494285714285714","7.5","4.375","5319.75","0","0","30.8071","4.82269","28.04","0","SATNPRO1963","24.398","0.34174","5"],
    [39010,"HCEP03730564","2024-11-07 15:45:00","11.9126","3.56009","26.789","2.482857142857143","7.49","4.22","5808.2","0.01","26.97","30.8045","4.82232","27.91","0","SATNPRO1963","24.65","0.34524","5"],
    [39011,"HCEP03730564","2024-11-07 16:00:00","11.9126","3.55993","26.775","2.474285714285714","7.49","4.353","5328.859","0","11.98","30.8031","4.82211","27.82","0","SATNPRO1963","24.464000000000002","0.34262","5"],
    [39012,"HCEP03730564","2024-11-07 16:15:00","11.9131","3.55959","26.791","2.48","7.49","4.358","5316.939","0","2.17","30.7993","4.82158","27.88","0","SATNPRO1963","24.576","0.34422","5"],
    [39013,"HCEP03730564","2024-11-07 16:30:00","11.9134","3.55952","26.806","2.488571428571428","7.49","4.24","5749.763","0.01","28.99","30.7985","4.82146","27.98","0","SATNPRO1963","24.164","0.33846","5"],
    [39014,"HCEP03730564","2024-11-07 16:45:00","11.9134","3.55938","26.822","2.455714285714286","7.49","4.341","5326.831","0.01","22.65","30.7971","4.82126","27.61","0","SATNPRO1963","24.214000000000002","0.33914","5"],
    [39015,"HCEP03730564","2024-11-07 17:00:00","11.9136","3.55933","26.844","2.452857142857143","7.49","4.354","5319.493","0.01","0","30.7964","4.82116","27.58","0","SATNPRO1963","24.484","0.34292","5"],
    [39016,"HCEP03730564","2024-11-07 17:15:00","11.9138","3.5592","26.864","2.454285714285714","7.49","4.237","5658.236","0","35.82","30.795","4.82096","27.6","0","SATNPRO1963","24.372","0.34136","5"],
    [39017,"HCEP03730564","2024-11-07 17:30:00","11.9142","3.55918","26.881","2.45","7.49","4.335","5290.609","0.01","13.55","30.7945","4.82089","27.55","0","SATNPRO1963","24.288","0.34018","5"],
    [39018,"HCEP03730564","2024-11-07 17:45:00","11.9138","3.55917","26.908","2.44","7.49","4.346","5276.011","0.01","2.17","30.7946","4.82091","27.43","0","SATNPRO1963","24.258","0.33978","5"],
    [39019,"HCEP03730564","2024-11-07 18:00:00","11.9145","3.5591","26.923","2.448571428571428","7.49","4.213","5674.6","0.01","23.92","30.7934","4.82072","27.53","0","SATNPRO1963","24.564","0.34408","5"],
    [39020,"HCEP03730564","2024-11-07 18:15:00","11.9147","3.55895","26.937","2.458571428571429","7.49","4.333","5240.731","0.01","15.27","30.7919","4.82051","27.64","0","SATNPRO1963","24.342","0.34096","5"],
    [39021,"HCEP03730564","2024-11-07 18:30:00","11.9147","3.55888","26.955","2.44","7.49","4.34","5226.61","0.01","3.76","30.7911","4.82041","27.44","0","SATNPRO1963","24.227999999999998","0.33938","5"],
    [39022,"HCEP03730564","2024-11-07 18:45:00","11.9153","3.55873","26.97","2.427142857142858","7.49","4.23","5677.865","0.01","32.76","30.7892","4.82014","27.29","0","SATNPRO1963","23.986","0.33592","5"],
    [39023,"HCEP03730564","2024-11-07 19:00:00","11.9156","3.55858","26.979","2.448571428571428","7.49","4.334","5335.136","0.01","17.83","30.7875","4.81989","27.53","0","SATNPRO1963","24.65","0.34522","5"],
    [39024,"HCEP03730564","2024-11-07 19:15:00","11.915","3.55851","26.978","2.44","7.49","4.345","5329.268","0.01","5.09","30.7873","4.81986","27.43","0","SATNPRO1963","24.584","0.34434","5"],
    [39025,"HCEP03730564","2024-11-07 19:30:00","11.9149","3.55854","26.977","2.401428571428572","7.49","4.218","5693.257","0.01","32.33","30.7877","4.81992","27.01","0","SATNPRO1963","24.35","0.34106","5"],
    [39026,"HCEP03730564","2024-11-07 19:45:00","11.9153","3.55865","26.977","2.39","7.49","4.325","5263.523","0.02","20.24","30.7884","4.82002","26.88","0","SATNPRO1963","24.68","0.3457","5"],
    [39027,"HCEP03730564","2024-11-07 20:00:00","11.9151","3.55869","26.969","2.394285714285714","7.49","4.333","5245.603","0.01","3.43","30.789","4.82011","26.92","0","SATNPRO1963","24.444","0.34238","5"],
    [39028,"HCEP03730564","2024-11-07 20:15:00","11.915","3.55873","26.942","2.391428571428572","7.48","4.19","5612.159","0.01","46.49","30.7895","4.82017","26.89","0","SATNPRO1963","24.488","0.34302","5"],
    [39029,"HCEP03730564","2024-11-07 20:30:00","11.9153","3.55878","26.902","2.398571428571429","7.48","4.313","5188.823","0.01","16.88","30.7897","4.82019","26.96","0","SATNPRO1963","24.404","0.34182","5"],
    [39030,"HCEP03730564","2024-11-07 20:45:00","11.9151","3.55878","26.841","2.388571428571428","7.49","4.314","5175.766","0.01","3.43","30.7899","4.82023","26.86","0","SATNPRO1963","24.06","0.33702","5"],
    [39031,"HCEP03730564","2024-11-07 21:00:00","11.9155","3.55876","26.793","2.384285714285714","7.48","4.163","5589.789","0","32.87","30.7894","4.82014","26.8","0","SATNPRO1963","24.562","0.34404","5"],
    [39032,"HCEP03730564","2024-11-07 21:15:00","11.9157","3.55871","26.702","2.382857142857143","7.48","4.31","5023.965","0.01","13.11","30.7888","4.82005","26.8","0","SATNPRO1963","24.578","0.34422","5"],
    [39033,"HCEP03730564","2024-11-07 21:30:00","11.9157","3.55861","26.601","2.37","7.49","4.313","5017.022","0","3.07","30.7878","4.8199","26.65","0","SATNPRO1963","24.718","0.34624","5"],
    [39034,"HCEP03730564","2024-11-07 21:45:00","11.9155","3.55846","26.52","2.352857142857143","7.49","4.149","5600.781","0.01","34.58","30.7866","4.81973","26.46","0","SATNPRO1963","24.186","0.33876","5"],
    [39035,"HCEP03730564","2024-11-07 22:00:00","11.9155","3.55827","26.431","2.34","7.48","4.289","5099.076","0.01","13.98","30.7848","4.81948","26.32","0","SATNPRO1963","24.434","0.3422","5"],
    [39036,"HCEP03730564","2024-11-07 22:15:00","11.9153","3.55802","26.304","2.327142857142857","7.48","4.294","5088.867","0.01","3.07","30.7826","4.81916","26.17","0","SATNPRO1963","24.098","0.3375","5"],
    [39037,"HCEP03730564","2024-11-07 22:30:00","11.9153","3.55777","26.15","2.321428571428572","7.48","4.147","5635.153","0.01","29.23","30.7803","4.81882","26.1","0","SATNPRO1963","24.398","0.34176","5"],
    [39038,"HCEP03730564","2024-11-07 22:45:00","11.915","3.55766","26.036","2.318571428571428","7.47","4.302","5162.588","0.01","20.7","30.7796","4.81872","26.08","0","SATNPRO1963","23.956","0.33558","5"],
    [39039,"HCEP03730564","2024-11-07 23:00:00","11.9144","3.5573","25.933","2.305714285714286","7.47","4.307","5153.149","0.01","0","30.7766","4.81831","25.92","0","SATNPRO1963","23.62","0.33082","5"],
    [39040,"HCEP03730564","2024-11-07 23:15:00","11.915","3.55721","25.805","2.302857142857143","7.48","4.178","5598.177","0.01","25.72","30.7753","4.81811","25.89","0","SATNPRO1963","23.748","0.33262","5"],
    [39041,"HCEP03730564","2024-11-07 23:30:00","11.9161","3.55737","25.645","2.358571428571428","7.48","4.283","5172.676","0","11.79","30.7759","4.81818","26.52","0","SATNPRO1963","24.256","0.33976","5"],
    [39042,"HCEP03730564","2024-11-07 23:45:00","11.917","3.55779","25.457","2.468571428571428","7.48","4.296","5168.557","0.01","0","30.7794","4.81863","27.76","0","SATNPRO1963","24.516000000000002","0.3434","5"],
    [39043,"HCEP03730564","2024-11-08 00:00:00","11.9165","3.55793","25.294","2.535714285714286","7.48","4.196","5458.533","0.01","45.12","30.7811","4.81888","28.51","0","SATNPRO1963","24.842000000000002","0.34794","5"],
    [39044,"HCEP03730564","2024-11-08 00:15:00","11.9166","3.55808","25.154","2.552857142857143","7.48","4.3","5142.333","0.01","17.43","30.7826","4.81908","28.7","0","SATNPRO1963","24.946","0.34942","5"],
    [39045,"HCEP03730564","2024-11-08 00:30:00","11.9161","3.55838","24.959","2.584285714285714","7.49","4.31","5135.052","0.01","2.66","30.7859","4.81955","29.05","0","SATNPRO1963","24.616","0.3448","5"],
    [39046,"HCEP03730564","2024-11-08 00:45:00","11.9159","3.55872","24.798","2.567142857142857","7.49","4.157","5537.073","0.01","43.8","30.7895","4.82005","28.87","0","SATNPRO1963","24.47","0.34274","5"],
    [39047,"HCEP03730564","2024-11-08 01:00:00","11.9151","3.55893","24.665","2.544285714285714","7.49","4.282","5090.247","0.01","13.46","30.7922","4.82043","28.61","0","SATNPRO1963","24.446","0.3424","5"],
    [39048,"HCEP03730564","2024-11-08 01:15:00","11.9145","3.55908","24.539","2.524285714285714","7.51","4.291","5079.89","0.01","4.34","30.7942","4.82071","28.38","0","SATNPRO1963","24.496","0.3431","5"],
    [39049,"HCEP03730564","2024-11-08 01:30:00","11.9145","3.55913","24.435","2.5","7.5","4.173","5434.146","0.02","27.74","30.7947","4.82077","28.12","0","SATNPRO1963","24.246","0.3396","5"],
    [39050,"HCEP03730564","2024-11-08 01:45:00","11.9142","3.55917","24.36","2.498571428571429","7.5","4.298","4999.319","0.01","17.83","30.7954","4.82088","28.1","0","SATNPRO1963","24.266","0.3399","5"],
    [39051,"HCEP03730564","2024-11-08 02:00:00","11.914","3.55906","24.316","2.491428571428572","7.5","4.31","4985.281","0","3.43","30.7946","4.82076","28.01","0","SATNPRO1963","24.154","0.33834","5"],
    [39052,"HCEP03730564","2024-11-08 02:15:00","11.9139","3.55899","24.302","2.494285714285714","7.49","4.174","5445.289","0.01","33.19","30.7939","4.82066","28.04","0","SATNPRO1963","24.336000000000002","0.34086","5"],
    [39053,"HCEP03730564","2024-11-08 02:30:00","11.9141","3.55891","24.323","2.478571428571429","7.49","4.294","5028.281","0.01","21.37","30.793","4.82054","27.87","0","SATNPRO1963","24.901999999999997","0.34878","5"],
    [39054,"HCEP03730564","2024-11-08 02:45:00","11.914","3.5588","24.315","2.465714285714286","7.49","4.295","5006.064","0.01","0","30.792","4.82039","27.72","0","SATNPRO1963","24.188","0.3388","5"],
    [39055,"HCEP03730564","2024-11-08 03:00:00","11.9138","3.55876","24.319","2.468571428571428","7.48","4.156","5505.408","0.01","28.99","30.7918","4.82037","27.75","0","SATNPRO1963","25.689999999999998","0.35984","5"],
    [39056,"HCEP03730564","2024-11-08 03:15:00","11.9134","3.55867","24.36","2.44","7.49","4.302","5112.901","0.01","11.06","30.7912","4.8203","27.43","0","SATNPRO1963","24.384","0.34156","5"],
    [39057,"HCEP03730564","2024-11-08 03:30:00","11.9129","3.55872","24.437","2.424285714285714","7.48","4.308","5106.124","0.01","2.17","30.7921","4.82043","27.27","0","SATNPRO1963","24.214","0.33916","5"],
    [39058,"HCEP03730564","2024-11-08 03:45:00","11.9128","3.55879","24.518","2.394285714285714","7.48","4.155","5553.008","0.01","18.09","30.7927","4.82053","26.92","0","SATNPRO1963","24.03","0.33658","5"],
    [39059,"HCEP03730564","2024-11-08 04:00:00","11.9124","3.55888","24.604","2.384285714285714","7.48","4.297","5072.016","0.01","14.39","30.794","4.82072","26.81","0","SATNPRO1963","24.06","0.337","5"],
    [39060,"HCEP03730564","2024-11-08 04:15:00","11.9119","3.55893","24.735","2.375714285714286","7.48","4.308","5068.531","0.01","3.76","30.7948","4.82084","26.71","0","SATNPRO1963","23.92","0.33504","5"],
    [39061,"HCEP03730564","2024-11-08 04:30:00","11.9113","3.55907","24.857","2.342857142857143","7.48","4.167","5575.562","0.03","28.74","30.7966","4.82112","26.35","0","SATNPRO1963","23.774","0.333","5"],
    [39062,"HCEP03730564","2024-11-08 04:45:00","11.9115","3.55913","24.971","2.332857142857143","7.47","4.313","5175.781","0.01","22.02","30.797","4.82117","26.23","0","SATNPRO1963","23.868","0.3343","5"],
    [39063,"HCEP03730564","2024-11-08 05:00:00","11.9117","3.55908","25.103","2.331428571428571","7.48","4.317","5152.971","0","0","30.7963","4.82108","26.21","0","SATNPRO1963","23.938","0.33528","5"],
    [39064,"HCEP03730564","2024-11-08 05:15:00","11.9117","3.55918","25.282","2.34","7.47","4.167","5601.201","0.02","36.4","30.7972","4.82121","26.31","0","SATNPRO1963","23.900000000000002","0.33476","5"],
    [39065,"HCEP03730564","2024-11-08 05:30:00","11.9115","3.55919","25.421","2.32","7.47","4.286","5255.766","0.01","24.4","30.7973","4.82124","26.09","0","SATNPRO1963","23.826","0.33374","5"],
    [39066,"HCEP03730564","2024-11-08 05:45:00","11.9119","3.55917","25.604","2.315714285714286","7.48","4.293","5240.596","0.01","4.85","30.7968","4.82118","26.04","0","SATNPRO1963","23.738","0.3325","5"],
    [39067,"HCEP03730564","2024-11-08 06:00:00","11.9119","3.55908","25.755","2.318571428571428","7.47","4.172","5515.954","0.01","41.88","30.7958","4.82104","26.07","0","SATNPRO1963","24.136","0.33804","5"],
    [39068,"HCEP03730564","2024-11-08 06:15:00","11.9124","3.55885","25.935","2.305714285714286","7.47","4.263","5190.567","0.01","19.29","30.7932","4.82067","25.92","0","SATNPRO1963","23.814","0.33356","5"],
    [39069,"HCEP03730564","2024-11-08 06:30:00","11.9123","3.55881","26.126","2.282857142857143","7.47","4.275","5178.427","0","2.17","30.7927","4.82062","25.66","0","SATNPRO1963","24.062","0.33706","5"],
    [39070,"HCEP03730564","2024-11-08 06:45:00","11.9128","3.55858","26.306","2.262857142857143","7.47","4.135","5602.571","0.01","25.35","30.7901","4.82026","25.44","0","SATNPRO1963","23.932","0.3352","5"],
    [39071,"HCEP03730564","2024-11-08 07:00:00","11.913","3.55807","26.488","2.244285714285714","7.47","4.288","5171.054","0.01","24.79","30.785","4.81954","25.24","0","SATNPRO1963","23.814","0.33356","5"],
    [39072,"HCEP03730564","2024-11-08 07:15:00","11.9128","3.55829","26.658","2.225714285714286","7.47","4.302","5182.672","0.01","3.76","30.7871","4.81985","25.03","0","SATNPRO1963","23.714","0.33218","5"],
    [39073,"HCEP03730564","2024-11-08 07:30:00","11.9135","3.55775","26.804","2.204285714285714","7.47","4.172","5581.521","0.01","28","30.7813","4.81904","24.78","0","SATNPRO1963","23.786","0.33318","5"],
    [39074,"HCEP03730564","2024-11-08 07:45:00","11.9136","3.55761","26.968","2.18","7.47","4.294","5210.139","0.01","22.5","30.7799","4.81884","24.52","0","SATNPRO1963","23.492","0.32904","5"],
    [39075,"HCEP03730564","2024-11-08 08:00:00","11.914","3.55739","27.12","2.157142857142857","7.47","4.306","5209.919","0.01","0","30.7773","4.81848","24.25","0","SATNPRO1963","23.54","0.32974","5"],
    [39076,"HCEP03730564","2024-11-08 08:15:00","11.9142","3.55706","27.258","2.135714285714286","7.46","4.198","5674.478","0.01","32.51","30.774","4.81802","24.01","0","SATNPRO1963","23.424","0.3281","5"],
    [39077,"HCEP03730564","2024-11-08 08:30:00","11.9145","3.55652","27.381","2.101428571428571","7.46","4.304","5237.392","0.01","12.74","30.7685","4.81724","23.63","0","SATNPRO1963","23.406","0.3278","5"],
    [39078,"HCEP03730564","2024-11-08 08:45:00","11.9145","3.5563","27.49","2.077142857142857","7.45","4.306","5215.993","0.01","3.43","30.7663","4.81694","23.35","0","SATNPRO1963","23.338","0.3269","5"],
    [39079,"HCEP03730564","2024-11-08 09:00:00","11.9153","3.55558","27.574","2.058571428571429","7.45","4.156","5553.075","0.01","45.82","30.7586","4.81585","23.14","0","SATNPRO1963","23.355999999999998","0.32714","5"],
    [39080,"HCEP03730564","2024-11-08 09:15:00","11.916","3.5547","27.644","2.044285714285714","7.44","4.226","5024.715","0.02","23.87","30.7496","4.81458","22.98","0","SATNPRO1963","23.286","0.32614","5"],
    [39081,"HCEP03730564","2024-11-08 09:30:00","11.9162","3.55465","27.725","2.031428571428572","7.45","4.232","5022.391","0.01","2.66","30.749","4.81449","22.83","0","SATNPRO1963","23.323999999999998","0.32666","5"],
    [39082,"HCEP03730564","2024-11-08 09:45:00","11.9163","3.55491","27.78","2.014285714285714","7.45","4.081","5493.091","0.01","43.18","30.7514","4.81483","22.64","0","SATNPRO1963","23.52","0.32942","5"],
    [39083,"HCEP03730564","2024-11-08 10:00:00","11.9154","3.55516","27.798","1.994285714285714","7.45","4.254","5034.662","0.01","14.8","30.7544","4.81527","22.42","0","SATNPRO1963","23.086","0.32338","5"],
    [39084,"HCEP03730564","2024-11-08 10:15:00","11.9153","3.5552","27.798","1.987142857142857","7.45","4.255","5025.962","0.01","2.17","30.7549","4.81534","22.34","0","SATNPRO1963","23.122","0.32384","5"],
    [39085,"HCEP03730564","2024-11-08 10:30:00","11.9148","3.55548","27.795","1.99","7.44","4.003","5412.381","0.01","24.74","30.7581","4.81579","22.37","0","SATNPRO1963","23.072","0.32316","5"],
    [39086,"HCEP03730564","2024-11-08 10:45:00","11.9153","3.5551","27.861","1.994285714285714","7.45","4.248","4687.573","0.01","16.95","30.7539","4.81521","22.41","0","SATNPRO1963","23.082","0.3233","5"],
    [39087,"HCEP03730564","2024-11-08 11:00:00","11.916","3.55435","27.872","1.99","7.45","4.257","4674.071","0.01","3.43","30.7462","4.81411","22.38","0","SATNPRO1963","23.504","0.32924","5"],
    [39088,"HCEP03730564","2024-11-08 11:15:00","11.9159","3.55452","27.845","1.995714285714286","7.45","4.115","5394.032","0.01","19.65","30.7478","4.81434","22.44","0","SATNPRO1963","23.36","0.3272","5"],
    [39089,"HCEP03730564","2024-11-08 11:30:00","11.9149","3.55484","27.816","1.992857142857143","7.45","4.245","4684.914","0.01","23.52","30.7519","4.81492","22.4","0","SATNPRO1963","23.176","0.32462","5"],
    [39090,"HCEP03730564","2024-11-08 11:45:00","11.9154","3.55438","27.795","1.987142857142857","7.45","4.248","4671.108","0","0","30.747","4.81422","22.34","0","SATNPRO1963","23.616","0.33078","5"],
    [39091,"HCEP03730564","2024-11-08 12:00:00","11.9145","3.55485","27.748","1.975714285714286","7.45","4.038","5358.963","0.01","28.17","30.7523","4.81498","22.21","0","SATNPRO1963","23.152","0.32436","5"],
    [39092,"HCEP03730564","2024-11-08 12:15:00","11.9139","3.55537","27.688","1.958571428571429","7.45","4.231","4834.136","0.02","28.66","30.7578","4.81576","22.01","0","SATNPRO1963","23.028","0.32256","5"],
    [39093,"HCEP03730564","2024-11-08 12:30:00","11.9147","3.55493","27.642","1.965714285714286","7.45","4.242","4839.432","0.01","0","30.7529","4.81505","22.09","0","SATNPRO1963","23.048","0.32276","5"],
    [39094,"HCEP03730564","2024-11-08 12:45:00","11.9156","3.55446","27.575","1.991428571428571","7.44","3.983","5468.079","0.01","14.72","30.7477","4.8143","22.38","0","SATNPRO1963","23.242","0.32554","5"],
    [39095,"HCEP03730564","2024-11-08 13:00:00","11.9143","3.55569","27.507","2.001428571428571","7.45","4.203","4752.31","0.01","10.63","30.7606","4.81614","22.5","0","SATNPRO1963","23.131999999999998","0.32398","5"],
    [39096,"HCEP03730564","2024-11-08 13:15:00","11.9151","3.55509","27.436","1.991428571428571","7.45","4.2","4744.183","0","2.66","30.7541","4.81522","22.38","0","SATNPRO1963","23.366","0.32728","5"],
    [39097,"HCEP03730564","2024-11-08 13:30:00","11.9127","3.55667","27.356","1.982857142857143","7.45","4.043","5394.11","0.02","37.61","30.7714","4.81768","22.3","0","SATNPRO1963","23.02","0.3224","5"],
    [39098,"HCEP03730564","2024-11-08 13:45:00","11.9141","3.55624","27.276","1.948571428571429","7.45","4.238","4694.601","0.02","19.04","30.7661","4.81691","21.9","0","SATNPRO1963","23.122","0.32384","5"],
    [39099,"HCEP03730564","2024-11-08 14:00:00","11.9126","3.55694","27.202","1.97","7.45","4.245","4698.05","0","4.06","30.7741","4.81805","22.15","0","SATNPRO1963","23.098","0.32354","5"],
    [39100,"HCEP03730564","2024-11-08 14:15:00","11.912","3.55742","27.13","1.948571428571429","7.45","3.983","5418.165","0.01","26.26","30.7793","4.81878","21.91","0","SATNPRO1963","22.672","0.31754","5"],
    [39101,"HCEP03730564","2024-11-08 14:30:00","11.9129","3.55745","27.053","1.97","7.45","4.242","4764.625","0.03","32.04","30.7788","4.81871","22.15","0","SATNPRO1963","23.23","0.32538","5"],
    [39102,"HCEP03730564","2024-11-08 14:45:00","11.9128","3.55761","26.975","2.014285714285714","7.45","4.253","4765.134","0.01","1.53","30.7805","4.81894","22.64","0","SATNPRO1963","23.702","0.33196","5"],
    [39103,"HCEP03730564","2024-11-08 15:00:00","11.9128","3.55776","26.9","2.03","7.46","4.023","5474.736","0.01","16.16","30.782","4.81915","22.82","0","SATNPRO1963","23.064","0.32302","5"],
    [39104,"HCEP03730564","2024-11-08 15:15:00","11.9119","3.55792","26.83","2.03","7.45","4.24","4790.758","0.02","29.87","30.784300000000002","4.81948","22.82","0","SATNPRO1963","23.106","0.32364","5"],
    [39105,"HCEP03730564","2024-11-08 15:30:00","11.9117","3.55798","26.773","2.001428571428571","7.45","4.241","4796.708","0.01","3.76","30.7851","4.81959","22.51","0","SATNPRO1963","23.122","0.32388","5"],
    [39106,"HCEP03730564","2024-11-08 15:45:00","11.9115","3.558","26.712","2.015714285714286","7.45","4.067","5405.154","0.01","26.97","30.7854","4.81964","22.67","0","SATNPRO1963","23.244","0.3256","5"],
    [39107,"HCEP03730564","2024-11-08 16:00:00","11.9114","3.55801","26.662","2.011428571428572","7.45","4.203","4847.307","0.02","24.11","30.7856","4.81966","22.62","0","SATNPRO1963","23.746000000000002","0.33258","5"],
    [39108,"HCEP03730564","2024-11-08 16:15:00","11.9117","3.55808","26.616","2.015714285714286","7.45","4.198","4840.584","0.01","0","30.7861","4.81972","22.66","0","SATNPRO1963","23.188","0.32478","5"],
    [39109,"HCEP03730564","2024-11-08 16:30:00","11.9112","3.5581","26.606","2.035714285714286","7.45","4.02","5373.872","0.01","19.53","30.7866","4.81981","22.89","0","SATNPRO1963","23.064","0.32302","5"],
    [39110,"HCEP03730564","2024-11-08 16:45:00","11.9114","3.55816","26.593","2.027142857142857","7.45","4.248","4675.151","0.01","21.75","30.7871","4.81987","22.79","0","SATNPRO1963","23.228","0.32536","5"],
    [39111,"HCEP03730564","2024-11-08 17:00:00","11.9114","3.55821","26.583","2.057142857142857","7.45","4.253","4674.813","0.01","2.66","30.7876","4.81993","23.13","0","SATNPRO1963","23.43","0.32816","5"],
    [39112,"HCEP03730564","2024-11-08 17:15:00","11.9115","3.55819","26.593","2.07","7.45","4.045","5360.682","0.01","17.22","30.7873","4.81989","23.27","0","SATNPRO1963","23.498","0.3291","5"],
    [39113,"HCEP03730564","2024-11-08 17:30:00","11.9112","3.55814","26.61","2.078571428571429","7.45","4.243","4748.88","0.01","27.7","30.7871","4.81987","23.37","0","SATNPRO1963","23.394","0.32766","5"],
    [39114,"HCEP03730564","2024-11-08 17:45:00","11.9113","3.55808","26.624","2.061428571428571","7.45","4.25","4756.63","0.01","1.53","30.7863","4.81976","23.18","0","SATNPRO1963","23.372","0.3274","5"],
    [39115,"HCEP03730564","2024-11-08 18:00:00","11.9117","3.55791","26.628","2.071428571428572","7.45","4.02","5397.914","0","15.72","30.7844","4.81948","23.29","0","SATNPRO1963","23.471999999999998","0.32876","5"],
    [39116,"HCEP03730564","2024-11-08 18:15:00","11.9119","3.55765","26.647","2.072857142857143","7.45","4.245","4751.728","0.02","22.86","30.7818","4.81912","23.31","0","SATNPRO1963","23.646","0.33116","5"],
    [39117,"HCEP03730564","2024-11-08 18:30:00","11.9112","3.55744","26.656","2.06","7.45","4.25","4747.361","0.01","3.43","30.7803","4.81891","23.15","0","SATNPRO1963","23.206","0.32504","5"],
    [39118,"HCEP03730564","2024-11-08 18:45:00","11.9116","3.55717","26.661","2.028571428571428","7.45","4.054","5275.85","0","26.66","30.7774","4.8185","22.81","0","SATNPRO1963","22.876","0.32038","5"],
    [39119,"HCEP03730564","2024-11-08 19:00:00","11.9123","3.55706","26.711","2.022857142857143","7.45","4.231","4656.557","0.01","16.74","30.7758","4.81826","22.75","0","SATNPRO1963","22.948","0.32144","5"],
    [39120,"HCEP03730564","2024-11-08 19:15:00","11.9127","3.55698","26.707","2.047142857142857","7.45","4.233","4655.734","0.01","1.53","30.7747","4.8181","23.02","0","SATNPRO1963","23.46","0.32858","5"],
    [39121,"HCEP03730564","2024-11-08 19:30:00","11.9129","3.55704","26.739","2.081428571428571","7.45","4.048","5304.369","0.01","19.47","30.775","4.81815","23.4","0","SATNPRO1963","23.22","0.32518","5"],
    [39122,"HCEP03730564","2024-11-08 19:45:00","11.913","3.55698","26.753","2.098571428571429","7.46","4.224","4724.802","0.02","25.26","30.7744","4.81807","23.59","0","SATNPRO1963","23.334","0.32684","5"],
    [39123,"HCEP03730564","2024-11-08 20:00:00","11.9133","3.55708","26.769","2.11","7.47","4.225","4723.167","0.01","2.17","30.7751","4.81815","23.72","0","SATNPRO1963","23.58","0.3303","5"],
    [39124,"HCEP03730564","2024-11-08 20:15:00","11.9137","3.55724","26.795","2.144285714285714","7.45","4.03","5303.756","0.01","24.69","30.7763","4.81832","24.1","0","SATNPRO1963","23.652","0.33126","5"],
    [39125,"HCEP03730564","2024-11-08 20:30:00","11.9135","3.55722","26.803","2.172857142857143","7.45","4.231","4658.677","0.02","14.64","30.7762","4.81831","24.43","0","SATNPRO1963","23.794","0.3333","5"],
    [39126,"HCEP03730564","2024-11-08 20:45:00","11.9145","3.55746","26.791","2.192857142857143","7.45","4.233","4653.514","0.01","3.76","30.7777","4.81851","24.66","0","SATNPRO1963","24.064","0.33704","5"],
    [39127,"HCEP03730564","2024-11-08 21:00:00","11.9136","3.55737","26.795","2.23","7.46","4.037","5335.706","0.01","20.41","30.7776","4.8185","25.07","0","SATNPRO1963","23.684","0.3317","5"],
    [39128,"HCEP03730564","2024-11-08 21:15:00","11.9135","3.55752","26.782","2.202857142857143","7.46","4.219","4662.357","0.01","30.99","30.7791","4.81872","24.77","0","SATNPRO1963","23.746","0.33264","5"],
    [39129,"HCEP03730564","2024-11-08 21:30:00","11.9132","3.55763","26.758","2.197142857142857","7.46","4.227","4662.765","0.01","2.17","30.7805","4.81892","24.7","0","SATNPRO1963","23.928","0.33516","5"],
    [39130,"HCEP03730564","2024-11-08 21:45:00","11.9132","3.55771","26.743","2.202857142857143","7.45","4.024","5287.101","0","30.14","30.7812","4.81902","24.77","0","SATNPRO1963","24.09","0.33742","5"],
    [39131,"HCEP03730564","2024-11-08 22:00:00","11.9135","3.558","26.713","2.242857142857143","7.45","4.222","4698.96","0.01","22.13","30.7838","4.81938","25.22","0","SATNPRO1963","23.952","0.33546","5"],
    [39132,"HCEP03730564","2024-11-08 22:15:00","11.913","3.55805","26.651","2.247142857142857","7.45","4.226","4700.625","0","1.53","30.7846","4.8195","25.27","0","SATNPRO1963","23.638","0.33106","5"],
    [39133,"HCEP03730564","2024-11-08 22:30:00","11.9128","3.55801","26.586","2.222857142857143","7.45","4.03","5271.919","0.01","29.15","30.7844","4.81947","24.99","0","SATNPRO1963","23.688000000000002","0.33176","5"],
    [39134,"HCEP03730564","2024-11-08 22:45:00","11.9128","3.55805","26.474","2.194285714285714","7.46","4.213","4632.358","0.02","13.81","30.7849","4.81952","24.66","0","SATNPRO1963","23.754","0.33272","5"],
    [39135,"HCEP03730564","2024-11-08 23:00:00","11.9127","3.55813","26.335","2.19","7.46","4.216","4631.071","0.01","1.53","30.7858","4.81965","24.62","0","SATNPRO1963","23.554","0.3299","5"],
    [39136,"HCEP03730564","2024-11-08 23:15:00","11.9123","3.55815","26.233","2.187142857142857","7.46","4.006","5302.618","0","20.18","30.7864","4.81974","24.59","0","SATNPRO1963","23.509999999999998","0.32934","5"],
    [39137,"HCEP03730564","2024-11-08 23:30:00","11.9121","3.55805","26.133","2.172857142857143","7.45","4.22","4558.411","0.02","15.8","30.7856","4.81963","24.44","0","SATNPRO1963","23.776","0.333","5"],
    [39138,"HCEP03730564","2024-11-08 23:45:00","11.9121","3.55808","26.065","2.155714285714286","7.46","4.223","4558.258","0.01","2.66","30.786","4.81967","24.24","0","SATNPRO1963","24.262","0.33986","5"],
    [39139,"HCEP03730564","2024-11-09 00:00:00","11.9124","3.55815","25.939","2.155714285714286","7.45","3.947","5228.076","0.01","32.44","30.7865","4.81973","24.23","0","SATNPRO1963","23.644","0.3312","5"],
    [39140,"HCEP03730564","2024-11-09 00:15:00","11.914","3.55886","25.805","2.274285714285714","7.45","4.208","4602.505","0.02","26.71","30.792","4.82048","25.57","0","SATNPRO1963","24.654","0.34532","5"],
    [39141,"HCEP03730564","2024-11-09 00:30:00","11.9141","3.55926","25.653","2.537142857142857","7.47","4.216","4612.623","0.01","3.43","30.7958","4.821","28.53","0","SATNPRO1963","25.244","0.3536","5"],
    [39142,"HCEP03730564","2024-11-09 00:45:00","11.913","3.55935","25.521","2.571428571428572","7.49","4.007","5276.433","0.01","19.77","30.7976","4.82126","28.91","0","SATNPRO1963","25.208000000000002","0.35304","5"],
    [39143,"HCEP03730564","2024-11-09 01:00:00","11.9127","3.55963","25.377","2.595714285714286","7.49","4.204","4544.591","0.01","10.06","30.8006","4.82169","29.18","0","SATNPRO1963","25.386","0.35554","5"],
    [39144,"HCEP03730564","2024-11-09 01:15:00","11.9121","3.55974","25.253","2.621428571428571","7.49","4.205","4539.455","0.01","2.17","30.8022","4.82192","29.48","0","SATNPRO1963","25.196","0.3529","5"],
    [39145,"HCEP03730564","2024-11-09 01:30:00","11.9126","3.55942","25.132","2.645714285714286","7.49","4","5248.568","0","20.06","30.7988","4.82142","29.75","0","SATNPRO1963","25.384","0.35552","5"],
    [39146,"HCEP03730564","2024-11-09 01:45:00","11.9124","3.5593","25.04","2.657142857142858","7.49","4.204","4532.071","0.01","20.12","30.7978","4.82127","29.88","0","SATNPRO1963","25.038","0.35068","5"],
    [39147,"HCEP03730564","2024-11-09 02:00:00","11.9112","3.55962","24.908","2.657142857142858","7.49","4.205","4534.3","0.01","2.66","30.802","4.82187","29.88","0","SATNPRO1963","24.944","0.34938","5"],
    [39148,"HCEP03730564","2024-11-09 02:15:00","11.9117","3.55958","24.811","2.6","7.5","3.953","5187.751","0.01","19.53","30.8012","4.82175","29.24","0","SATNPRO1963","25.094","0.35148","5"],
    [39149,"HCEP03730564","2024-11-09 02:30:00","11.9117","3.5596","24.702","2.587142857142857","7.49","4.192","4627.272","0.02","19.77","30.8014","4.82178","29.09","0","SATNPRO1963","24.862","0.34822","5"],
    [39150,"HCEP03730564","2024-11-09 02:45:00","11.9121","3.5593","24.628","2.572857142857143","7.49","4.193","4628.831","0.01","0","30.7983","4.82133","28.93","0","SATNPRO1963","24.535999999999998","0.34368","5"],
    [39151,"HCEP03730564","2024-11-09 03:00:00","11.912","3.55934","24.561","2.531428571428572","7.48","3.986","5221.332","0.01","14.56","30.7987","4.82139","28.46","0","SATNPRO1963","24.832","0.34784","5"],
    [39152,"HCEP03730564","2024-11-09 03:15:00","11.912","3.55893","24.506","2.505714285714286","7.48","4.2","4644.303","0.02","13.72","30.7948","4.82084","28.17","0","SATNPRO1963","24.648","0.34522","5"],
    [39153,"HCEP03730564","2024-11-09 03:30:00","11.9125","3.5588","24.492","2.457142857142857","7.49","4.204","4640.55","0.01","3.43","30.7931","4.82059","27.62","0","SATNPRO1963","24.432","0.3422","5"],
    [39154,"HCEP03730564","2024-11-09 03:45:00","11.913","3.55828","24.498","2.424285714285714","7.49","4.045","5205.786","0.01","25.07","30.7878","4.81982","27.26","0","SATNPRO1963","24.402","0.34182","5"],
    [39155,"HCEP03730564","2024-11-09 04:00:00","11.9132","3.5582","24.528","2.382857142857143","7.48","4.213","4599.393","0.01","16.6","30.7867","4.81968","26.79","0","SATNPRO1963","24.036","0.33666","5"],
    [39156,"HCEP03730564","2024-11-09 04:15:00","11.9134","3.55786","24.56","2.348571428571428","7.48","4.213","4596.903","0.01","3.43","30.7834","4.8192","26.41","0","SATNPRO1963","24.124","0.33792","5"],
    [39157,"HCEP03730564","2024-11-09 04:30:00","11.9129","3.5578","24.62","2.307142857142857","7.47","4.025","5217.339","0.01","22.65","30.7832","4.81918","25.95","0","SATNPRO1963","24.06","0.33704","5"],
    [39158,"HCEP03730564","2024-11-09 04:45:00","11.9134","3.55752","24.707","2.271428571428572","7.47","4.205","4818.948","0.01","14.47","30.7801","4.81875","25.53","0","SATNPRO1963","23.798000000000002","0.33332","5"],
    [39159,"HCEP03730564","2024-11-09 05:00:00","11.913","3.55762","24.811","2.24","7.47","4.206","4812.5","0.01","0","30.7813","4.81894","25.18","0","SATNPRO1963","23.788","0.3332","5"],
    [39160,"HCEP03730564","2024-11-09 05:15:00","11.9134","3.5575","24.917","2.224285714285714","7.47","4.023","5291.417","0.01","23.52","30.7798","4.81871","25.01","0","SATNPRO1963","23.698","0.33192","5"],
    [39161,"HCEP03730564","2024-11-09 05:30:00","11.9129","3.55722","25.01","2.202857142857143","7.46","4.193","4771.654","0.01","27.79","30.7774","4.81839","24.77","0","SATNPRO1963","23.672","0.33158","5"],
    [39162,"HCEP03730564","2024-11-09 05:45:00","11.9129","3.557","25.123","2.165714285714286","7.46","4.205","4775.757","0.01","3.07","30.7752","4.81809","24.34","0","SATNPRO1963","23.642","0.3312","5"],
    [39163,"HCEP03730564","2024-11-09 06:00:00","11.9127","3.55685","25.248","2.127142857142857","7.45","4.026","5336.036","0.01","13.98","30.774","4.81792","23.91","0","SATNPRO1963","23.36","0.32718","5"],
    [39164,"HCEP03730564","2024-11-09 06:15:00","11.9124","3.55671","25.378","2.082857142857143","7.45","4.2","4812.641","0.01","21.81","30.7728","4.81777","23.42","0","SATNPRO1963","23.392","0.32766","5"],
    [39165,"HCEP03730564","2024-11-09 06:30:00","11.9124","3.55647","25.533","2.04","7.45","4.204","4816.792","0.01","3.07","30.7704","4.81744","22.94","0","SATNPRO1963","22.962","0.32164","5"],
    [39166,"HCEP03730564","2024-11-09 06:45:00","11.9123","3.55632","25.701","2","7.44","4.038","5292.859","0.02","23.32","30.769","4.81726","22.49","0","SATNPRO1963","22.994","0.32204","5"],
    [39167,"HCEP03730564","2024-11-09 07:00:00","11.9125","3.5561","25.886","1.97","7.44","4.179","4811.498","0.01","24.55","30.7667","4.81694","22.14","0","SATNPRO1963","22.932000000000002","0.32124","5"],
    [39168,"HCEP03730564","2024-11-09 07:15:00","11.9124","3.55591","26.054","1.945714285714286","7.44","4.184","4815.194","0.01","3.07","30.7649","4.81669","21.87","0","SATNPRO1963","22.864","0.32026","5"],
    [39169,"HCEP03730564","2024-11-09 07:30:00","11.9123","3.55571","26.231","1.921428571428572","7.43","4.005","5309.447","0","18.35","30.763","4.81643","21.59","0","SATNPRO1963","22.966","0.32168","5"],
    [39170,"HCEP03730564","2024-11-09 07:45:00","11.9126","3.55551","26.399","1.894285714285714","7.44","4.2","4738.701","0.02","28.87","30.7608","4.81613","21.29","0","SATNPRO1963","22.862","0.32026","5"],
    [39171,"HCEP03730564","2024-11-09 08:00:00","11.9125","3.55533","26.585","1.868571428571429","7.44","4.203","4750.169","0.01","2.17","30.759","4.81589","21","0","SATNPRO1963","22.816","0.31958","5"],
    [39172,"HCEP03730564","2024-11-09 08:15:00","11.9126","3.55526","26.77","1.845714285714286","7.43","3.99","5320.538","0.01","23.01","30.7582","4.81579","20.76","0","SATNPRO1963","22.706","0.31802","5"],
    [39173,"HCEP03730564","2024-11-09 08:30:00","11.9123","3.55502","26.93","1.818571428571428","7.43","4.171","4738.739","0.01","21.97","30.7561","4.8155","20.45","0","SATNPRO1963","22.456","0.31448","5"],
    [39174,"HCEP03730564","2024-11-09 08:45:00","11.9123","3.55479","27.066","1.782857142857143","7.43","4.174","4739.813","0.01","1.53","30.7538","4.81518","20.05","0","SATNPRO1963","22.428","0.31412","5"],
    [39175,"HCEP03730564","2024-11-09 09:00:00","11.9121","3.55451","27.204","1.744285714285714","7.43","3.97","5285.307","0.01","14.47","30.7512","4.81483","19.61","0","SATNPRO1963","21.978","0.3078","5"],
    [39176,"HCEP03730564","2024-11-09 09:15:00","11.9128","3.55379","27.329","1.712857142857143","7.42","4.181","4486.415","0.02","34.27","30.7436","4.81376","19.26","0","SATNPRO1963","22.23","0.31138","5"],
    [39177,"HCEP03730564","2024-11-09 09:30:00","11.9123","3.55403","27.484","1.697142857142857","7.42","4.188","4493.907","0.01","2.66","30.7464","4.81416","19.08","0","SATNPRO1963","22.024","0.30852","5"],
    [39178,"HCEP03730564","2024-11-09 09:45:00","11.9122","3.55441","27.602","1.678571428571429","7.42","3.906","5218.673","0.01","21.09","30.75","4.81468","18.87","0","SATNPRO1963","21.948","0.30742","5"],
    [39179,"HCEP03730564","2024-11-09 10:00:00","11.9119","3.55484","27.678","1.684285714285714","7.42","4.149","4394.724","0.01","20.7","30.7543","4.81529","18.93","0","SATNPRO1963","22.11","0.30968","5"],
    [39180,"HCEP03730564","2024-11-09 10:15:00","11.9118","3.55516","27.733","1.708571428571429","7.42","4.149","4393.426","0.01","2.17","30.7575","4.81575","19.2","0","SATNPRO1963","22.198","0.31096","5"],
    [39181,"HCEP03730564","2024-11-09 10:30:00","11.9118","3.55557","27.785","1.731428571428571","7.42","3.828","5191.97","0.01","15.19","30.7614","4.81631","19.47","0","SATNPRO1963","22.418","0.314","5"],
    [39182,"HCEP03730564","2024-11-09 10:45:00","11.9119","3.55601","27.841","1.771428571428571","7.42","4.142","4340.275","0.02","13.55","30.7656","4.81689","19.91","0","SATNPRO1963","22.686","0.31778","5"],
    [39183,"HCEP03730564","2024-11-09 11:00:00","11.9117","3.55651","27.835","1.818571428571428","7.43","4.149","4333.69","0.01","2.17","30.7704","4.81758","20.44","0","SATNPRO1963","23.008","0.32224","5"],
    [39184,"HCEP03730564","2024-11-09 11:15:00","11.9115","3.55688","27.828","1.865714285714286","7.43","3.906","5088.228","0.01","40.1","30.7742","4.81812","20.98","0","SATNPRO1963","23.43","0.32812","5"],
    [39185,"HCEP03730564","2024-11-09 11:30:00","11.9116","3.5572","27.851","1.904285714285714","7.43","4.169","4381.233","0.02","12.46","30.7772","4.81854","21.4","0","SATNPRO1963","23.034","0.32262","5"],
    [39186,"HCEP03730564","2024-11-09 11:45:00","11.9115","3.55761","27.87","1.941428571428572","7.43","4.169","4374.433","0.01","3.43","30.7812","4.81911","21.83","0","SATNPRO1963","23.294","0.32628","5"],
    [39187,"HCEP03730564","2024-11-09 12:00:00","11.9114","3.55789","27.866","2.001428571428571","7.44","3.928","5132.063","0","26.93","30.784","4.8195","22.5","0","SATNPRO1963","23.296","0.3263","5"],
    [39188,"HCEP03730564","2024-11-09 12:15:00","11.9111","3.55834","27.877","2.094285714285714","7.43","4.155","4382.127","0.01","27.49","30.7885","4.82015","23.55","0","SATNPRO1963","23.402","0.32782","5"],
    [39189,"HCEP03730564","2024-11-09 12:30:00","11.911","3.55861","27.837","2.135714285714286","7.44","4.163","4382.094","0.01","1.53","30.7913","4.82053","24.01","0","SATNPRO1963","23.404","0.3278","5"],
    [39190,"HCEP03730564","2024-11-09 12:45:00","11.9111","3.55881","27.791","2.16","7.45","3.896","5137.175","0","15.11","30.7931","4.82078","24.29","0","SATNPRO1963","23.772000000000002","0.33298","5"],
    [39191,"HCEP03730564","2024-11-09 13:00:00","11.9113","3.55886","27.739","2.181428571428572","7.45","4.147","4253.174","0.02","14.84","30.7935","4.82083","24.52","0","SATNPRO1963","23.945999999999998","0.3354","5"],
    [39192,"HCEP03730564","2024-11-09 13:15:00","11.9117","3.5588","27.677","2.201428571428572","7.45","4.153","4247.143","0","2.17","30.7926","4.8207","24.76","0","SATNPRO1963","23.768","0.33292","5"],
    [39193,"HCEP03730564","2024-11-09 13:30:00","11.9112","3.55868","27.605","2.214285714285714","7.45","3.88","5062.991","0.01","26.93","30.7919","4.8206","24.9","0","SATNPRO1963","23.802","0.33338","5"],
    [39194,"HCEP03730564","2024-11-09 13:45:00","11.9112","3.55874","27.513","2.212857142857143","7.45","4.166","4445.981","0.02","38.02","30.7925","4.82068","24.88","0","SATNPRO1963","23.98","0.33588","5"],
    [39195,"HCEP03730564","2024-11-09 14:00:00","11.9112","3.55874","27.438","2.234285714285714","7.45","4.169","4440.541","0.01","0","30.7925","4.82068","25.12","0","SATNPRO1963","24.02","0.33642","5"],
    [39196,"HCEP03730564","2024-11-09 14:15:00","11.9115","3.55863","27.353","2.244285714285714","7.45","3.903","5076.931","0.01","22.55","30.7913","4.8205","25.23","0","SATNPRO1963","24.152","0.3383","5"],
    [39197,"HCEP03730564","2024-11-09 14:30:00","11.9113","3.55854","27.269","2.248571428571429","7.46","4.149","4534.678","0.01","37.99","30.7906","4.8204","25.28","0","SATNPRO1963","23.844","0.33402","5"],
    [39198,"HCEP03730564","2024-11-09 14:45:00","11.9112","3.55858","27.181","2.255714285714286","7.45","4.151","4533.031","0.01","2.17","30.7911","4.82046","25.36","0","SATNPRO1963","24.442","0.34234","5"],
    [39199,"HCEP03730564","2024-11-09 15:00:00","11.9113","3.55856","27.091","2.267142857142857","7.46","3.873","5060.307","0.02","12.27","30.7909","4.82043","25.5","0","SATNPRO1963","24.09","0.3374","5"],
    [39200,"HCEP03730564","2024-11-09 15:15:00","11.9111","3.55859","26.992","2.274285714285714","7.46","4.12","4516.844","0.01","51.53","30.7913","4.82049","25.57","0","SATNPRO1963","24.14","0.33812","5"],
    [39201,"HCEP03730564","2024-11-09 15:30:00","11.9111","3.55855","26.901","2.281428571428572","7.46","4.122","4515.538","0.01","1.53","30.7909","4.82043","25.65","0","SATNPRO1963","24.332","0.34082","5"],
    [39202,"HCEP03730564","2024-11-09 15:45:00","11.9111","3.55854","26.809","2.275714285714286","7.46","3.934","5124.101","0.01","22.29","30.791","4.82043","25.58","0","SATNPRO1963","24.224","0.3393","5"],
    [39203,"HCEP03730564","2024-11-09 16:00:00","11.911","3.55851","26.703","2.267142857142857","7.46","4.149","4528.724","0.01","30.61","30.7907","4.82039","25.49","0","SATNPRO1963","24.413999999999998","0.34196","5"],
    [39204,"HCEP03730564","2024-11-09 16:15:00","11.9109","3.55862","26.608","2.268571428571429","7.46","4.15","4522.805","0","0","30.7919","4.82055","25.5","0","SATNPRO1963","24.394","0.34172","5"],
    [39205,"HCEP03730564","2024-11-09 16:30:00","11.9104","3.55878","26.521","2.268571428571429","7.46","3.857","5223.205","0.01","15.57","30.7939","4.82084","25.5","0","SATNPRO1963","24.18","0.33868","5"],
    [39206,"HCEP03730564","2024-11-09 16:45:00","11.9102","3.55882","26.453","2.265714285714286","7.46","4.104","4415.813","0.01","8.81","30.7945","4.82092","25.47","0","SATNPRO1963","24.168","0.33852","5"],
    [39207,"HCEP03730564","2024-11-09 17:00:00","11.9102","3.5589","26.392","2.261428571428572","7.46","4.106","4407.908","0","2.66","30.7952","4.82102","25.43","0","SATNPRO1963","24.138","0.33808","5"],
    [39208,"HCEP03730564","2024-11-09 17:15:00","11.9102","3.559","26.338","2.252857142857143","7.46","3.874","5139.576","0.03","17.02","30.7963","4.82117","25.34","0","SATNPRO1963","24.132","0.33802","5"],
    [39209,"HCEP03730564","2024-11-09 17:30:00","11.9103","3.55904","26.304","2.24","7.47","4.099","4353.532","0.01","11.79","30.7966","4.8212","25.19","0","SATNPRO1963","24.362","0.34124","5"],
    [39210,"HCEP03730564","2024-11-09 17:45:00","11.9101","3.55898","26.281","2.254285714285714","7.47","4.094","4347.135","0.01","1.08","30.7962","4.82115","25.34","0","SATNPRO1963","24.154","0.33832","5"],
    [39211,"HCEP03730564","2024-11-09 18:00:00","11.9105","3.55899","26.281","2.258571428571428","7.46","3.827","5071.156","0.01","44.28","30.7959","4.82111","25.39","0","SATNPRO1963","24.258","0.33976","5"],
    [39212,"HCEP03730564","2024-11-09 18:15:00","11.9108","3.55914","26.286","2.282857142857143","7.46","4.099","4319.026","0.02","14.88","30.7971","4.82127","25.67","0","SATNPRO1963","24.31","0.34048","5"],
    [39213,"HCEP03730564","2024-11-09 18:30:00","11.9103","3.55923","26.276","2.325714285714286","7.46","4.1","4316.453","0.01","4.97","30.7984","4.82146","26.15","0","SATNPRO1963","24.516","0.3434","5"],
    [39214,"HCEP03730564","2024-11-09 18:45:00","11.9105","3.5594","26.296","2.33","7.46","3.839","5072","0","21.64","30.7999","4.82166","26.19","0","SATNPRO1963","24.392","0.34166","5"],
    [39215,"HCEP03730564","2024-11-09 19:00:00","11.9101","3.55948","26.311","2.344285714285714","7.46","4.134","4269.062","0.02","8.47","30.801","4.82183","26.35","0","SATNPRO1963","24.686","0.34576","5"],
    [39216,"HCEP03730564","2024-11-09 19:15:00","11.9098","3.55967","26.321","2.357142857142857","7.46","4.136","4260.525","0.01","1.08","30.803","4.82212","26.51","0","SATNPRO1963","24.674","0.34556","5"],
    [39217,"HCEP03730564","2024-11-09 19:30:00","11.9095","3.55977","26.347","2.37","7.46","3.824","5080.359","0.01","19.47","30.8042","4.82229","26.65","0","SATNPRO1963","24.59","0.34442","5"],
    [39218,"HCEP03730564","2024-11-09 19:45:00","11.9092","3.55985","26.373","2.368571428571428","7.46","4.131","4206.442","0.03","13.68","30.8053","4.82245","26.64","0","SATNPRO1963","24.568","0.34412","5"],
    [39219,"HCEP03730564","2024-11-09 20:00:00","11.9092","3.55987","26.394","2.362857142857143","7.46","4.138","4205.794","0.01","2.87","30.8054","4.82247","26.57","0","SATNPRO1963","24.738","0.3465","5"],
    [39220,"HCEP03730564","2024-11-09 20:15:00","11.909","3.55996","26.42","2.345714285714286","7.47","3.77","5025.435","0.01","12.65","30.8064","4.82262","26.38","0","SATNPRO1963","24.646","0.3452","5"],
    [39221,"HCEP03730564","2024-11-09 20:30:00","11.909","3.55998","26.453","2.328571428571428","7.46","4.114","4126.332","0.03","14.19","30.8066","4.82264","26.19","0","SATNPRO1963","24.514","0.34336","5"],
    [39222,"HCEP03730564","2024-11-09 20:45:00","11.9085","3.56003","26.487","2.295714285714286","7.46","4.118","4120.068","0.01","1.88","30.8075","4.82278","25.81","0","SATNPRO1963","24.582","0.3443","5"],
    [39223,"HCEP03730564","2024-11-09 21:00:00","11.9088","3.55993","26.527","2.272857142857143","7.46","3.784","4947.815","0.01","11.68","30.8062","4.82259","25.55","0","SATNPRO1963","24.648","0.34526","5"],
    [39224,"HCEP03730564","2024-11-09 21:15:00","11.9082","3.56008","26.551","2.255714285714286","7.46","4.087","4058.907","0.02","25.51","30.8082","4.82288","25.36","0","SATNPRO1963","24.282","0.34016","5"],
    [39225,"HCEP03730564","2024-11-09 21:30:00","11.9079","3.56017","26.573","2.228571428571429","7.46","4.089","4052.174","0.01","2.66","30.8094","4.82305","25.05","0","SATNPRO1963","24.256","0.3397","5"],
    [39226,"HCEP03730564","2024-11-09 21:45:00","11.9065","3.56054","26.612","2.211428571428572","7.46","3.741","4955.764","0.01","21.43","30.814","4.82373","24.86","0","SATNPRO1963","24.334","0.34088","5"],
    [39227,"HCEP03730564","2024-11-09 22:00:00","11.9046","3.5614","26.639","2.224285714285714","7.46","4.127","4077.899","0.02","20.15","30.8238","4.82514","25.02","0","SATNPRO1963","24.264","0.33984","5"],
    [39228,"HCEP03730564","2024-11-09 22:15:00","11.904","3.56154","26.652","2.264285714285714","7.46","4.131","4060.929","0.01","2.66","30.8257","4.82542","25.46","0","SATNPRO1963","24.382","0.34152","5"],
    [39229,"HCEP03730564","2024-11-09 22:30:00","11.9029","3.56181","26.657","2.27","7.46","3.853","4896.305","0.01","34.24","30.8292","4.82592","25.52","0","SATNPRO1963","24.68","0.34568","5"],
    [39230,"HCEP03730564","2024-11-09 22:45:00","11.9045","3.56144","26.671","2.272857142857143","7.46","4.13","4234.248","0.01","37.44","30.8242","4.8252","25.56","0","SATNPRO1963","24.688","0.34584","5"],
    [39231,"HCEP03730564","2024-11-09 23:00:00","11.903","3.56189","26.655","2.26","7.47","4.132","4227.979","0.01","0","30.8299","4.82602","25.41","0","SATNPRO1963","24.282","0.34012","5"],
    [39232,"HCEP03730564","2024-11-09 23:15:00","11.9023","3.56206","26.638","2.261428571428572","7.47","3.844","4937.315","0.01","16.52","30.8321","4.82634","25.43","0","SATNPRO1963","24.376","0.3414","5"],
    [39233,"HCEP03730564","2024-11-09 23:30:00","11.9019","3.56225","26.588","2.287142857142857","7.47","4.109","4119.493","0.02","15.87","30.8343","4.82665","25.71","0","SATNPRO1963","24.442","0.34236","5"],
    [39234,"HCEP03730564","2024-11-09 23:45:00","11.9023","3.56215","26.498","2.307142857142857","7.46","4.115","4109.568","0","3.07","30.833","4.82646","25.93","0","SATNPRO1963","24.362","0.34122","5"],
    [39235,"HCEP03730564","2024-11-10 00:00:00","11.9027","3.5621","26.447","2.295714285714286","7.46","3.812","4892.789","0.01","19.1","30.8322","4.82634","25.81","0","SATNPRO1963","24.526","0.34352","5"],
    [39236,"HCEP03730564","2024-11-10 00:15:00","11.9021","3.56241","26.359","2.328571428571428","7.46","4.112","4052.498","0.02","20.56","30.8357","4.82684","26.19","0","SATNPRO1963","24.844","0.34796","5"],
    [39237,"HCEP03730564","2024-11-10 00:30:00","11.9011","3.56251","26.337","2.374285714285714","7.47","4.113","4045.175","0","2.66","30.8375","4.82711","26.69","0","SATNPRO1963","24.564","0.34404","5"],
    [39238,"HCEP03730564","2024-11-10 00:45:00","11.9004","3.56295","26.239","2.384285714285714","7.47","3.818","4902.547","0.01","8.26","30.8424","4.8278","26.81","0","SATNPRO1963","24.848","0.34802","5"],
    [39239,"HCEP03730564","2024-11-10 01:00:00","11.8998","3.56315","26.16","2.46","7.47","4.115","4141.036","0.02","32.94","30.8448","4.82814","27.67","0","SATNPRO1963","24.637999999999998","0.3451","5"],
    [39240,"HCEP03730564","2024-11-10 01:15:00","11.8994","3.56344","26.038","2.508571428571428","7.47","4.118","4134.509","0","0","30.8479","4.82858","28.2","0","SATNPRO1963","24.76","0.3468","5"],
    [39241,"HCEP03730564","2024-11-10 01:30:00","11.8997","3.56357","25.907","2.555714285714286","7.48","3.802","4960.08","0.01","23.42","30.849","4.82873","28.74","0","SATNPRO1963","24.998","0.35018","5"],
    [39242,"HCEP03730564","2024-11-10 01:45:00","11.9003","3.56332","25.776","2.588571428571428","7.48","4.096","4278.326","0.02","15.23","30.8461","4.8283","29.1","0","SATNPRO1963","25.056","0.35096","5"],
    [39243,"HCEP03730564","2024-11-10 02:00:00","11.9006","3.56301","25.655","2.557142857142857","7.48","4.098","4262.67","0.01","1.08","30.843","4.82785","28.76","0","SATNPRO1963","24.823999999999998","0.34772","5"],
    [39244,"HCEP03730564","2024-11-10 02:15:00","11.9008","3.56278","25.539","2.517142857142857","7.48","3.816","4916.855","0.02","15.42","30.8406","4.82751","28.3","0","SATNPRO1963","24.736","0.34646","5"],
    [39245,"HCEP03730564","2024-11-10 02:30:00","11.9012","3.56252","25.402","2.488571428571428","7.49","4.133","4203.128","0.03","16.98","30.8379","4.82711","27.98","0","SATNPRO1963","24.752000000000002","0.34668","5"],
    [39246,"HCEP03730564","2024-11-10 02:45:00","11.9017","3.56239","25.282","2.482857142857143","7.48","4.139","4191.273","0.01","1.88","30.8363","4.82687","27.92","0","SATNPRO1963","24.8","0.34736","5"],
    [39247,"HCEP03730564","2024-11-10 03:00:00","11.9012","3.56252","25.15","2.501428571428571","7.49","3.886","4928.005","0.01","20.76","30.8379","4.8271","28.12","0","SATNPRO1963","24.934","0.34928","5"],
    [39248,"HCEP03730564","2024-11-10 03:15:00","11.9006","3.56265","25.017","2.518571428571429","7.49","4.11","4224.586","0.02","24.11","30.8398","4.82736","28.33","0","SATNPRO1963","24.849999999999998","0.34808","5"],
    [39249,"HCEP03730564","2024-11-10 03:30:00","11.9005","3.56276","24.938","2.53","7.49","4.113","4216.844","0","1.08","30.8409","4.82752","28.44","0","SATNPRO1963","24.952","0.34948","5"],
    [39250,"HCEP03730564","2024-11-10 03:45:00","11.9005","3.56287","24.862","2.535714285714286","7.49","3.815","4981.056","0.01","23.57","30.842","4.82767","28.52","0","SATNPRO1963","24.968","0.3497","5"],
    [39251,"HCEP03730564","2024-11-10 04:00:00","11.9004","3.56293","24.79","2.54","7.5","3.997","4143.464","0.01","13.33","30.8427","4.82776","28.57","0","SATNPRO1963","25.078","0.35126","5"],
    [39252,"HCEP03730564","2024-11-10 04:15:00","11.9004","3.56296","24.772","2.535714285714286","7.49","3.995","4132.532","0.01","1.08","30.843","4.82781","28.51","0","SATNPRO1963","25.182","0.35274","5"],
    [39253,"HCEP03730564","2024-11-10 04:30:00","11.8999","3.56304","24.729","2.531428571428572","7.49","3.774","4847.033","0.02","37.14","30.8443","4.82799","28.47","0","SATNPRO1963","24.754","0.34672","5"],
    [39254,"HCEP03730564","2024-11-10 04:45:00","11.8999","3.56303","24.7","2.522857142857143","7.49","4.053","4165.866","0","11.33","30.8441","4.82797","28.38","0","SATNPRO1963","25.336","0.35488","5"],
    [39255,"HCEP03730564","2024-11-10 05:00:00","11.8991","3.56316","24.728","2.518571428571429","7.49","4.056","4152.577","0.01","3.07","30.8461","4.82825","28.32","0","SATNPRO1963","24.778","0.34706","5"],
    [39256,"HCEP03730564","2024-11-10 05:15:00","11.8987","3.56324","24.761","2.512857142857143","7.48","3.795","4915.179","0.01","21.86","30.8472","4.82841","28.25","0","SATNPRO1963","24.966","0.3497","5"],
    [39257,"HCEP03730564","2024-11-10 05:30:00","11.8985","3.5633","24.817","2.5","7.48","4.101","4079.809","0.02","14.8","30.8479","4.82852","28.11","0","SATNPRO1963","24.828","0.34774","5"],
    [39258,"HCEP03730564","2024-11-10 05:45:00","11.8983","3.56332","24.888","2.487142857142858","7.48","4.105","4070.769","0","2.43","30.8482","4.82857","27.96","0","SATNPRO1963","24.858","0.34812","5"],
    [39259,"HCEP03730564","2024-11-10 06:00:00","11.8991","3.56311","24.983","2.472857142857143","7.49","3.812","4894.171","0.01","19.41","30.8455","4.82819","27.81","0","SATNPRO1963","24.84","0.3479","5"],
    [39260,"HCEP03730564","2024-11-10 06:15:00","11.8984","3.56326","25.075","2.461428571428572","7.48","4.078","4254.463","0.01","16.77","30.8475","4.82848","27.67","0","SATNPRO1963","24.596","0.3445","5"],
    [39261,"HCEP03730564","2024-11-10 06:30:00","11.8984","3.56326","25.172","2.467142857142858","7.48","4.079","4235.392","0.01","2.66","30.8474","4.82847","27.74","0","SATNPRO1963","24.844","0.348","5"],
    [39262,"HCEP03730564","2024-11-10 06:45:00","11.8981","3.56343","25.273","2.48","7.48","3.876","4935.281","0.01","20.41","30.8493","4.82875","27.88","0","SATNPRO1963","24.88","0.34848","5"],
    [39263,"HCEP03730564","2024-11-10 07:00:00","11.8977","3.56348","25.408","2.472857142857143","7.48","4.097","4365.674","0.01","33.93","30.85","4.82886","27.8","0","SATNPRO1963","24.892","0.34866","5"],
    [39264,"HCEP03730564","2024-11-10 07:15:00","11.8979","3.56347","25.539","2.462857142857143","7.48","4.096","4366.369","0.01","2.66","30.8497","4.82883","27.69","0","SATNPRO1963","24.574","0.34418","5"],
    [39265,"HCEP03730564","2024-11-10 07:30:00","11.8975","3.5635","25.676","2.452857142857143","7.48","3.834","4917.154","0.02","11.68","30.8503","4.82892","27.58","0","SATNPRO1963","24.8","0.34738","5"],
    [39266,"HCEP03730564","2024-11-10 07:45:00","11.8976","3.5635","25.808","2.451428571428572","7.47","4.086","4191.029","0.02","42.31","30.8501","4.82891","27.56","0","SATNPRO1963","24.804000000000002","0.34746","5"],
    [39267,"HCEP03730564","2024-11-10 08:00:00","11.8975","3.56353","25.966","2.457142857142857","7.47","4.081","4179.634","0.01","1.88","30.8504","4.82896","27.64","0","SATNPRO1963","24.846","0.348","5"],
    [39268,"HCEP03730564","2024-11-10 08:15:00","11.8975","3.56354","26.125","2.47","7.47","3.773","4779.601","0.02","15.72","30.8505","4.82898","27.77","0","SATNPRO1963","24.592","0.34446","5"],
    [39269,"HCEP03730564","2024-11-10 08:30:00","11.8978","3.56355","26.298","2.47","7.47","4.069","4002.529","0.01","10.29","30.8503","4.82895","27.77","0","SATNPRO1963","24.608","0.34468","5"],
    [39270,"HCEP03730564","2024-11-10 08:45:00","11.898","3.56353","26.5","2.482857142857143","7.48","4.071","3990.181","0.01","2.87","30.8498","4.82889","27.93","0","SATNPRO1963","24.69","0.3458","5"],
    [39271,"HCEP03730564","2024-11-10 09:00:00","11.8987","3.56333","26.699","2.51","7.48","3.848","4719.976","0.01","14.15","30.8472","4.82853","28.22","0","SATNPRO1963","25.036","0.35068","5"],
    [39272,"HCEP03730564","2024-11-10 09:15:00","11.8976","3.56354","26.884","2.48","7.48","4.099","4074.56","0.02","22.6","30.85","4.82895","27.88","0","SATNPRO1963","24.38","0.3415","5"],
    [39273,"HCEP03730564","2024-11-10 09:30:00","11.8974","3.56351","27.054","2.431428571428572","7.48","4.103","4061.7","0","2.17","30.8499","4.82894","27.33","0","SATNPRO1963","24.23","0.33938","5"],
    [39274,"HCEP03730564","2024-11-10 09:45:00","11.8974","3.56349","27.21","2.417142857142857","7.48","3.816","4732.305","0","18.28","30.8496","4.82891","27.18","0","SATNPRO1963","24.642","0.34512","5"],
    [39275,"HCEP03730564","2024-11-10 10:00:00","11.8976","3.56352","27.354","2.414285714285714","7.47","4.087","4055.573","0.01","17.29","30.8497","4.82893","27.15","0","SATNPRO1963","24.296","0.34034","5"],
    [39276,"HCEP03730564","2024-11-10 10:15:00","11.8979","3.56356","27.484","2.434285714285714","7.47","4.086","4046.061","0.01","2.66","30.8498","4.82894","27.37","0","SATNPRO1963","24.654","0.3453","5"],
    [39277,"HCEP03730564","2024-11-10 10:30:00","11.8974","3.56356","27.625","2.435714285714286","7.47","3.807","4719.998","0.02","11.38","30.8501","4.82901","27.38","0","SATNPRO1963","24.408","0.34188","5"],
    [39278,"HCEP03730564","2024-11-10 10:45:00","11.8972","3.56355","27.766","2.398571428571429","7.47","4.034","4022.211","0.01","7.82","30.8502","4.82903","26.98","0","SATNPRO1963","24.53","0.34362","5"],
    [39279,"HCEP03730564","2024-11-10 11:00:00","11.8972","3.56359","27.869","2.392857142857143","7.47","4.028","4015.743","0","1.88","30.8505","4.82908","26.91","0","SATNPRO1963","24.758","0.34678","5"],
    [39280,"HCEP03730564","2024-11-10 11:15:00","11.8976","3.56364","27.923","2.411428571428572","7.47","3.724","4789.61","0.01","12.93","30.8507","4.8291","27.12","0","SATNPRO1963","24.733999999999998","0.34644","5"],
    [39281,"HCEP03730564","2024-11-10 11:30:00","11.8989","3.56347","27.956","2.448571428571428","7.46","4.078","3819.706","0.01","26.49","30.848","4.8287","27.54","0","SATNPRO1963","24.688","0.3458","5"],
    [39282,"HCEP03730564","2024-11-10 11:45:00","11.8973","3.56356","27.972","2.438571428571429","7.47","4.082","3811.254","0.01","1.88","30.8501","4.82903","27.41","0","SATNPRO1963","24.316","0.34058","5"],
    [39283,"HCEP03730564","2024-11-10 12:00:00","11.8969","3.56349","27.997","2.38","7.47","3.772","4641.737","0","10.52","30.8498","4.82899","26.76","0","SATNPRO1963","24.256","0.33974","5"],
    [39284,"HCEP03730564","2024-11-10 12:15:00","11.8974","3.56357","28.018","2.348571428571428","7.47","4.081","3868.007","0.01","21.48","30.8501","4.82903","26.4","0","SATNPRO1963","24.546","0.34382","5"],
    [39285,"HCEP03730564","2024-11-10 12:30:00","11.8983","3.56361","28.013","2.414285714285714","7.47","4.082","3858.882","0.01","0","30.8497","4.82895","27.16","0","SATNPRO1963","25.094","0.35152","5"],
    [39286,"HCEP03730564","2024-11-10 12:45:00","11.8973","3.56352","28.004","2.445714285714286","7.47","3.749","4592.884","0.01","11.58","30.8497","4.82898","27.49","0","SATNPRO1963","24.41","0.3419","5"],
    [39287,"HCEP03730564","2024-11-10 13:00:00","11.897","3.56341","27.968","2.364285714285714","7.47","4.073","3904.345","0.01","13.2","30.8489","4.82886","26.59","0","SATNPRO1963","24.328","0.34074","5"],
    [39288,"HCEP03730564","2024-11-10 13:15:00","11.897","3.56325","27.925","2.32","7.48","4.072","3892.054","0.01","2.87","30.8473","4.82864","26.08","0","SATNPRO1963","23.914","0.33496","5"],
    [39289,"HCEP03730564","2024-11-10 13:30:00","11.8971","3.56318","27.884","2.26","7.48","3.712","4686.729","0.01","12.65","30.8466","4.82853","25.41","0","SATNPRO1963","23.7","0.33198","5"],
    [39290,"HCEP03730564","2024-11-10 13:45:00","11.8981","3.56332","27.825","2.278571428571428","7.47","4.049","3953.983","0.01","33.84","30.8472","4.82859","25.63","0","SATNPRO1963","24.682","0.3457","5"],
    [39291,"HCEP03730564","2024-11-10 14:00:00","11.8983","3.56322","27.75","2.368571428571428","7.47","4.05","3951.127","0","1.53","30.8461","4.82844","26.63","0","SATNPRO1963","24.625999999999998","0.34494","5"],
    [39292,"HCEP03730564","2024-11-10 14:15:00","11.8978","3.56311","27.655","2.355714285714286","7.47","3.783","4631.938","0.01","12.56","30.8455","4.82835","26.48","0","SATNPRO1963","24.446","0.34238","5"],
    [39293,"HCEP03730564","2024-11-10 14:30:00","11.8981","3.56303","27.573","2.327142857142857","7.47","4.046","3914.087","0.01","12.93","30.8445","4.8282","26.17","0","SATNPRO1963","24.192","0.33886","5"],
    [39294,"HCEP03730564","2024-11-10 14:45:00","11.8987","3.56289","27.47","2.318571428571428","7.47","4.05","3910.056","0.01","1.88","30.8427","4.82794","26.07","0","SATNPRO1963","24.478","0.34286","5"],
    [39295,"HCEP03730564","2024-11-10 15:00:00","11.8975","3.56288","27.352","2.294285714285714","7.48","3.781","4672.322","0.02","10.41","30.8436","4.82807","25.8","0","SATNPRO1963","23.596","0.33052","5"],
    [39296,"HCEP03730564","2024-11-10 15:15:00","11.8975","3.56286","27.26","2.217142857142857","7.47","4.08","3973.819","0.01","16.77","30.8435","4.82805","24.93","0","SATNPRO1963","23.798","0.33336","5"],
    [39297,"HCEP03730564","2024-11-10 15:30:00","11.8974","3.56285","27.14","2.212857142857143","7.48","4.074","3970.587","0","1.88","30.8435","4.82805","24.88","0","SATNPRO1963","23.918","0.33502","5"],
    [39298,"HCEP03730564","2024-11-10 15:45:00","11.8982","3.56282","27.014","2.23","7.47","3.756","4742.15","0.02","10.85","30.8426","4.8279","25.07","0","SATNPRO1963","24.05","0.33686","5"],
    [39299,"HCEP03730564","2024-11-10 16:00:00","11.8985","3.56271","26.875","2.252857142857143","7.47","4.055","4014.171","0.01","24.72","30.8414","4.82772","25.34","0","SATNPRO1963","24.006","0.33624","5"],
    [39300,"HCEP03730564","2024-11-10 16:15:00","11.8984","3.5627","26.77","2.255714285714286","7.47","4.06","4014.162","0.01","3.07","30.8414","4.82771","25.36","0","SATNPRO1963","24.31","0.34046","5"],
    [39301,"HCEP03730564","2024-11-10 16:30:00","11.8983","3.56262","26.607","2.251428571428572","7.47","3.69","4885.326","0.01","9.33","30.8408","4.82762","25.32","0","SATNPRO1963","24.106","0.33766","5"],
    [39302,"HCEP03730564","2024-11-10 16:45:00","11.8987","3.56257","26.478","2.237142857142857","7.47","4.003","4051.14","0.01","18.15","30.84","4.8275","25.16","0","SATNPRO1963","24.28","0.34006","5"],
    [39303,"HCEP03730564","2024-11-10 17:00:00","11.8991","3.56249","26.359","2.227142857142857","7.47","4.012","4044.103","0","0","30.839","4.82734","25.05","0","SATNPRO1963","24.06","0.33702","5"],
    [39304,"HCEP03730564","2024-11-10 17:15:00","11.8984","3.5625","26.241","2.22","7.47","3.699","4866.974","0.01","13.38","30.8397","4.82744","24.96","0","SATNPRO1963","23.882","0.33456","5"],
    [39305,"HCEP03730564","2024-11-10 17:30:00","11.8985","3.56244","26.152","2.201428571428572","7.47","3.99","4096.294","0.01","9.88","30.839","4.82735","24.75","0","SATNPRO1963","23.776","0.33306","5"],
    [39306,"HCEP03730564","2024-11-10 17:45:00","11.8982","3.56241","26.066","2.187142857142857","7.46","3.989","4088.227","0","3.43","30.839","4.82735","24.58","0","SATNPRO1963","24.036","0.33668","5"],
    [39307,"HCEP03730564","2024-11-10 18:00:00","11.8983","3.56235","25.99","2.164285714285714","7.46","3.706","4859.315","0","19.35","30.8384","4.82725","24.33","0","SATNPRO1963","23.836","0.33384","5"],
    [39308,"HCEP03730564","2024-11-10 18:15:00","11.8984","3.56228","25.949","2.144285714285714","7.46","4.009","3988.987","0.01","15.61","30.8377","4.82715","24.12","0","SATNPRO1963","23.65","0.33128","5"],
    [39309,"HCEP03730564","2024-11-10 18:30:00","11.8985","3.56224","25.93","2.128571428571429","7.45","4.006","3985.173","0.01","4.06","30.8372","4.82707","23.93","0","SATNPRO1963","23.716","0.3322","5"],
    [39310,"HCEP03730564","2024-11-10 18:45:00","11.8985","3.5622","25.92","2.115714285714286","7.45","3.674","4770.367","0.01","16.52","30.8369","4.82703","23.79","0","SATNPRO1963","23.698","0.33198","5"],
    [39311,"HCEP03730564","2024-11-10 19:00:00","11.8984","3.56215","25.926","2.098571428571429","7.45","3.999","3913.967","0.01","8.61","30.8364","4.82696","23.6","0","SATNPRO1963","23.494","0.32906","5"],
    [39312,"HCEP03730564","2024-11-10 19:15:00","11.8986","3.5622","25.933","2.084285714285714","7.46","3.998","3906.494","0.01","2.87","30.8368","4.82701","23.43","0","SATNPRO1963","23.704","0.33202","5"],
    [39313,"HCEP03730564","2024-11-10 19:30:00","11.8989","3.56226","25.961","2.094285714285714","7.45","3.696","4724.092","0.01","15.72","30.837","4.82705","23.55","0","SATNPRO1963","23.762","0.33284","5"],
    [39314,"HCEP03730564","2024-11-10 19:45:00","11.8987","3.56222","25.991","2.105714285714286","7.45","3.988","3981.449","0.01","9.58","30.8368","4.82702","23.68","0","SATNPRO1963","23.686","0.3318","5"],
    [39315,"HCEP03730564","2024-11-10 20:00:00","11.8985","3.56225","26.023","2.08","7.45","3.987","3976.766","0","2.43","30.8373","4.82709","23.39","0","SATNPRO1963","23.554","0.32992","5"],
    [39316,"HCEP03730564","2024-11-10 20:15:00","11.899","3.56241","26.039","2.09","7.44","3.708","4755.123","0","17.15","30.8384","4.82724","23.49","0","SATNPRO1963","23.868","0.33432","5"],
    [39317,"HCEP03730564","2024-11-10 20:30:00","11.8988","3.56231","26.075","2.127142857142857","7.44","4.036","3927.415","0.02","15.87","30.8376","4.82713","23.92","0","SATNPRO1963","23.726","0.33228","5"],
    [39318,"HCEP03730564","2024-11-10 20:45:00","11.8995","3.56231","26.112","2.104285714285714","7.45","4.041","3921.509","0.01","0","30.837","4.82704","23.65","0","SATNPRO1963","23.53","0.32962","5"],
    [39319,"HCEP03730564","2024-11-10 21:00:00","11.8994","3.5619","26.207","2.12","7.44","3.655","4687.023","0.01","9.33","30.8331","4.8265","23.83","0","SATNPRO1963","23.614","0.33076","5"],
    [39320,"HCEP03730564","2024-11-10 21:15:00","11.9004","3.56135","26.294","2.097142857142857","7.45","4.081","3923.66","0.01","44.61","30.8269","4.82562","23.57","0","SATNPRO1963","23.246","0.3256","5"],
    [39321,"HCEP03730564","2024-11-10 21:30:00","11.9018","3.56079","26.371","2.015714285714286","7.45","4.082","3909.114","0.01","1.53","30.8205","4.82469","22.66","0","SATNPRO1963","23.232","0.32542","5"],
    [39322,"HCEP03730564","2024-11-10 21:45:00","11.9035","3.56027","26.433","1.982857142857143","7.44","3.745","4667.805","0.01","12.37","30.814","4.82376","22.3","0","SATNPRO1963","23.650000000000002","0.33126","5"],
    [39323,"HCEP03730564","2024-11-10 22:00:00","11.9038","3.56023","26.516","1.99","7.43","4.055","3787.073","0.02","15.03","30.8133","4.82367","22.37","0","SATNPRO1963","23.248","0.32562","5"],
    [39324,"HCEP03730564","2024-11-10 22:15:00","11.9031","3.5602","26.556","1.95","7.44","4.06","3776.916","0.01","1.88","30.8136","4.82371","21.92","0","SATNPRO1963","23.084","0.32332","5"],
    [39325,"HCEP03730564","2024-11-10 22:30:00","11.9031","3.56023","26.609","1.924285714285714","7.44","3.736","4628.103","0.01","16.81","30.8138","4.82376","21.64","0","SATNPRO1963","23.21","0.32508","5"],
    [39326,"HCEP03730564","2024-11-10 22:45:00","11.9031","3.5602","26.687","1.938571428571429","7.42","4.036","3713.558","0.01","11.01","30.8135","4.82371","21.8","0","SATNPRO1963","23.334","0.32686","5"],
    [39327,"HCEP03730564","2024-11-10 23:00:00","11.9029","3.56039","26.744","1.957142857142857","7.43","4.043","3709.396","0.01","2.66","30.8155","4.824","22","0","SATNPRO1963","23.068","0.32312","5"],
    [39328,"HCEP03730564","2024-11-10 23:15:00","11.9034","3.5603","26.812","1.967142857142857","7.43","3.693","4459.604","0.01","14.06","30.8142","4.82382","22.12","0","SATNPRO1963","23.612","0.3307","5"],
    [39329,"HCEP03730564","2024-11-10 23:30:00","11.9008","3.56102","26.867","1.984285714285714","7.43","4.07","3818.964","0.01","6.86","30.8232","4.82512","22.31","0","SATNPRO1963","23.142","0.32414","5"],
    [39330,"HCEP03730564","2024-11-10 23:45:00","11.9015","3.56105","26.89","2.005714285714286","7.44","4.073","3812.004","0.01","1.88","30.8229","4.82508","22.56","0","SATNPRO1963","23.254","0.3257","5"],
    [39331,"HCEP03730564","2024-11-11 00:00:00","11.8987","3.56199","26.906","2.05","7.44","3.807","4479.099","0.01","8.68","30.8342","4.82671","23.05","0","SATNPRO1963","23.266","0.3259","5"],
    [39332,"HCEP03730564","2024-11-11 00:15:00","11.9001","3.56188","26.878","2.095714285714286","7.44","4.03","3841.505","0.02","27.6","30.8321","4.82638","23.57","0","SATNPRO1963","23.548","0.32984","5"],
    [39333,"HCEP03730564","2024-11-11 00:30:00","11.8984","3.56226","26.844","2.097142857142857","7.45","4.016","3819.257","0.01","2.87","30.8371","4.82712","23.59","0","SATNPRO1963","23.572","0.33018","5"],
    [39334,"HCEP03730564","2024-11-11 00:45:00","11.898","3.56225","26.769","2.071428571428572","7.44","3.778","4497.373","0.02","15.72","30.8374","4.82715","23.29","0","SATNPRO1963","23.233999999999998","0.32544","5"],
    [39335,"HCEP03730564","2024-11-11 01:00:00","11.8982","3.56232","26.721","2.067142857142857","7.45","4.093","4046.052","0.02","40.08","30.8379","4.82723","23.24","0","SATNPRO1963","23.644","0.33114","5"],
    [39336,"HCEP03730564","2024-11-11 01:15:00","11.8978","3.56242","26.685","2.087142857142857","7.45","4.089","4032.73","0.01","0","30.8392","4.82742","23.46","0","SATNPRO1963","23.488","0.329","5"],
    [39337,"HCEP03730564","2024-11-11 01:30:00","11.8987","3.5623","26.609","2.132857142857143","7.45","3.86","4611.623","0.01","13.2","30.8374","4.82714","23.99","0","SATNPRO1963","23.752","0.33266","5"],
    [39338,"HCEP03730564","2024-11-11 01:45:00","11.8993","3.56213","26.523","2.142857142857143","7.45","4.051","3963.647","0","19.92","30.8353","4.82683","24.1","0","SATNPRO1963","24.034","0.33666","5"],
    [39339,"HCEP03730564","2024-11-11 02:00:00","11.8988","3.56235","26.408","2.158571428571428","7.44","4.053","3954.429","0","1.53","30.8378","4.82719","24.27","0","SATNPRO1963","23.898","0.33478","5"],
    [39340,"HCEP03730564","2024-11-11 02:15:00","11.901","3.56199","26.283","2.181428571428572","7.46","3.856","4419.054","0.01","10.41","30.8326","4.82642","24.53","0","SATNPRO1963","24.316","0.34058","5"],
    [39341,"HCEP03730564","2024-11-11 02:30:00","11.9018","3.56188","26.166","2.234285714285714","7.46","4.092","3796.38","0.01","19.95","30.831","4.82617","25.12","0","SATNPRO1963","24.274","0.34002","5"],
    [39342,"HCEP03730564","2024-11-11 02:45:00","11.9027","3.5614","26.07","2.251428571428572","7.46","4.094","3786.404","0.01","3.76","30.8257","4.8254","25.32","0","SATNPRO1963","24.402","0.3418","5"],
    [39343,"HCEP03730564","2024-11-11 03:00:00","11.9039","3.56107","26.006","2.27","7.46","3.8","4408.665","0.01","13.38","30.8215","4.82479","25.52","0","SATNPRO1963","24.474","0.34282","5"],
    [39344,"HCEP03730564","2024-11-11 03:15:00","11.9031","3.5611","25.877","2.28","7.46","4.046","3638.886","0.03","19.26","30.8225","4.82493","25.63","0","SATNPRO1963","24.122","0.33784","5"],
    [39345,"HCEP03730564","2024-11-11 03:30:00","11.9039","3.56064","25.801","2.262857142857143","7.46","4.052","3621.609","0.01","3.07","30.8174","4.82421","25.44","0","SATNPRO1963","24.29","0.34022","5"],
    [39346,"HCEP03730564","2024-11-11 03:45:00","11.905","3.56023","25.712","2.261428571428572","7.45","3.754","4409.896","0.01","12.18","30.8127","4.82352","25.42","0","SATNPRO1963","24.34","0.3409","5"],
    [39347,"HCEP03730564","2024-11-11 04:00:00","11.9055","3.55999","25.616","2.245714285714286","7.46","4.111","3754.033","0.01","16.74","30.8099","4.82312","25.26","0","SATNPRO1963","24.336","0.3409","5"],
    [39348,"HCEP03730564","2024-11-11 04:15:00","11.906","3.55976","25.528","2.22","7.45","4.108","3746.886","0","2.17","30.8073","4.82273","24.96","0","SATNPRO1963","24.266","0.33986","5"],
    [39349,"HCEP03730564","2024-11-11 04:30:00","11.906","3.55966","25.416","2.208571428571429","7.46","3.747","4533.061","0.01","11.68","30.8065","4.82261","24.83","0","SATNPRO1963","24.468","0.34272","5"],
    [39350,"HCEP03730564","2024-11-11 04:45:00","11.906","3.55961","25.376","2.202857142857143","7.45","4.033","3875.59","0.01","25.23","30.8059","4.82253","24.77","0","SATNPRO1963","24.214000000000002","0.33916","5"],
    [39351,"HCEP03730564","2024-11-11 05:00:00","11.9064","3.55954","25.337","2.204285714285714","7.45","4.036","3860.825","0.01","1.08","30.805","4.82239","24.78","0","SATNPRO1963","24.44","0.3423","5"],
    [39352,"HCEP03730564","2024-11-11 05:15:00","11.9063","3.55952","25.257","2.194285714285714","7.45","3.744","4545.499","0.01","15.5","30.8049","4.82237","24.68","0","SATNPRO1963","24.27","0.33996","5"],
    [39353,"HCEP03730564","2024-11-11 05:30:00","11.906","3.55947","25.209","2.17","7.45","4.024","3830.666","0.01","10.06","30.8047","4.82235","24.39","0","SATNPRO1963","24.246","0.33962","5"],
    [39354,"HCEP03730564","2024-11-11 05:45:00","11.906","3.55947","25.1","2.135714285714286","7.44","4.022","3826.858","0","2.43","30.8047","4.82234","24.02","0","SATNPRO1963","24.004","0.33622","5"],
    [39355,"HCEP03730564","2024-11-11 06:00:00","11.9057","3.55946","25.076","2.115714285714286","7.44","3.699","4685.464","0.01","8.12","30.8049","4.82237","23.78","0","SATNPRO1963","24.114","0.33778","5"],
    [39356,"HCEP03730564","2024-11-11 06:15:00","11.9061","3.55947","25.096","2.11","7.44","4.047","3960.794","0.02","15.19","30.8046","4.82232","23.73","0","SATNPRO1963","24.036","0.33664","5"],
    [39357,"HCEP03730564","2024-11-11 06:30:00","11.9058","3.55952","25.159","2.124285714285715","7.44","4.051","3958.981","0.01","0","30.8054","4.82245","23.89","0","SATNPRO1963","24.17","0.3385","5"],
    [39358,"HCEP03730564","2024-11-11 06:45:00","11.906","3.55953","25.185","2.137142857142857","7.44","3.752","4577.213","0.01","11.27","30.8053","4.82243","24.02","0","SATNPRO1963","24.184","0.33872","5"],
    [39359,"HCEP03730564","2024-11-11 07:00:00","11.9061","3.55955","25.298","2.145714285714286","7.44","4.107","3902.574","0.01","23.97","30.8053","4.82244","24.13","0","SATNPRO1963","24.176000000000002","0.33864","5"],
    [39360,"HCEP03730564","2024-11-11 07:15:00","11.906","3.55958","25.294","2.162857142857143","7.45","4.107","3900.959","0.01","2.17","30.8057","4.8225","24.31","0","SATNPRO1963","24.418","0.34202","5"],
    [39361,"HCEP03730564","2024-11-11 07:30:00","11.9047","3.55965","25.471","2.165714285714286","7.44","3.799","4536.404","0.01","9.46","30.8074","4.82276","24.36","0","SATNPRO1963","24.01","0.3363","5"],
    [39362,"HCEP03730564","2024-11-11 07:45:00","11.9046","3.55974","25.619","2.14","7.44","4.025","3868.45","0.01","14.39","30.8083","4.82289","24.06","0","SATNPRO1963","24.062","0.33706","5"],
    [39363,"HCEP03730564","2024-11-11 08:00:00","11.9031","3.55996","25.812","2.115714285714286","7.44","4.028","3864.116","0.01","2.17","30.8116","4.82339","23.79","0","SATNPRO1963","23.648","0.33118","5"],
    [39364,"HCEP03730564","2024-11-11 08:15:00","11.9028","3.56016","25.902","2.09","7.43","3.718","4584.127","0","12.08","30.8137","4.8237","23.5","0","SATNPRO1963","23.756","0.33274","5"],
    [39365,"HCEP03730564","2024-11-11 08:30:00","11.9021","3.56041","26.003","2.092857142857143","7.43","4.063","3865.272","0.02","15.27","30.8166","4.82413","23.53","0","SATNPRO1963","23.814","0.33358","5"],
    [39366,"HCEP03730564","2024-11-11 08:45:00","11.9023","3.56061","26.198","2.087142857142857","7.44","4.07","3874.574","0.01","6.69","30.8183","4.82438","23.47","0","SATNPRO1963","23.832","0.33378","5"],
    [39367,"HCEP03730564","2024-11-11 09:00:00","11.9029","3.5605","26.305","2.108571428571428","7.44","3.702","4561.028","0.01","12.56","30.8167","4.82415","23.71","0","SATNPRO1963","23.998","0.33614","5"],
    [39368,"HCEP03730564","2024-11-11 09:15:00","11.9033","3.56035","26.509","2.118571428571429","7.44","4.056","3736.999","0.01","10.74","30.8149","4.82389","23.82","0","SATNPRO1963","24.078","0.33724","5"],
    [39369,"HCEP03730564","2024-11-11 09:30:00","11.9037","3.55992","26.667","2.102857142857143","7.44","4.06","3736.699","0.01","1.08","30.8104","4.82326","23.65","0","SATNPRO1963","23.988","0.336","5"],
    [39370,"HCEP03730564","2024-11-11 09:45:00","11.9032","3.56005","26.756","2.08","7.44","3.688","4457.513","0.01","9.82","30.8119","4.82349","23.38","0","SATNPRO1963","24.262","0.3398","5"],
    [39371,"HCEP03730564","2024-11-11 10:00:00","11.9033","3.56027","26.888","2.085714285714286","7.44","4.06","3724.587","0.02","19.35","30.8139","4.82378","23.45","0","SATNPRO1963","24.014","0.33638","5"],
    [39372,"HCEP03730564","2024-11-11 10:15:00","11.9027","3.56059","27.025","2.091428571428572","7.44","4.063","3723.328","0","2.43","30.8174","4.82429","23.51","0","SATNPRO1963","24.06","0.33696","5"],
    [39373,"HCEP03730564","2024-11-11 10:30:00","11.9024","3.56081","27.255","2.101428571428571","7.44","3.688","4539.653","0.01","10.63","30.8197","4.82463","23.63","0","SATNPRO1963","24.068","0.33714","5"],
    [39374,"HCEP03730564","2024-11-11 10:45:00","11.902","3.56095","27.423","2.108571428571428","7.43","4.048","3808.698","0.01","25.26","30.8213","4.82487","23.7","0","SATNPRO1963","24.21","0.33908","5"],
    [39375,"HCEP03730564","2024-11-11 11:00:00","11.9014","3.56123","27.643","2.11","7.44","4.051","3798.945","0.01","2.43","30.8244","4.82533","23.73","0","SATNPRO1963","23.93","0.3352","5"],
    [39376,"HCEP03730564","2024-11-11 11:15:00","11.9009","3.56145","27.705","2.114285714285714","7.44","3.784","4492.596","0.01","9.58","30.8269","4.82569","23.76","0","SATNPRO1963","24.12","0.33788","5"],
    [39377,"HCEP03730564","2024-11-11 11:30:00","11.9012","3.56134","27.82","2.122857142857143","7.44","4.071","3795.09","0.02","21.45","30.8255","4.8255","23.86","0","SATNPRO1963","23.748","0.33266","5"],
    [39378,"HCEP03730564","2024-11-11 11:45:00","11.9016","3.5612","27.992","2.124285714285715","7.44","4.076","3783.458","0","3.76","30.8239","4.82527","23.88","0","SATNPRO1963","24.216","0.33916","5"],
    [39379,"HCEP03730564","2024-11-11 12:00:00","11.9017","3.56112","28.037","2.111428571428572","7.45","3.691","4537.724","0.01","10.85","30.8229","4.82514","23.74","0","SATNPRO1963","23.951999999999998","0.33548","5"],
    [39380,"HCEP03730564","2024-11-11 12:15:00","11.9019","3.56093","28.07","2.104285714285714","7.44","4.04","3655.229","0.02","14.47","30.821","4.82487","23.67","0","SATNPRO1963","23.862","0.33422","5"],
    [39381,"HCEP03730564","2024-11-11 12:30:00","11.9022","3.56057","28.042","2.071428571428572","7.45","4.044","3648.952","0.01","3.07","30.8173","4.82434","23.28","0","SATNPRO1963","24.034","0.33664","5"],
    [39382,"HCEP03730564","2024-11-11 12:45:00","11.9027","3.56018","28.074","2.042857142857143","7.44","3.66","4511.766","0.01","13.2","30.8132","4.82375","22.97","0","SATNPRO1963","23.906","0.33486","5"],
    [39383,"HCEP03730564","2024-11-11 13:00:00","11.9027","3.56011","28.081","2.035714285714286","7.44","4.003","3756.085","0.01","15.46","30.8124","4.82364","22.89","0","SATNPRO1963","23.868","0.33432","5"],
    [39384,"HCEP03730564","2024-11-11 13:15:00","11.9027","3.56018","28.066","2.028571428571428","7.44","4.003","3746.413","0.01","1.08","30.8131","4.82373","22.8","0","SATNPRO1963","24.31","0.34052","5"],
    [39385,"HCEP03730564","2024-11-11 13:30:00","11.9032","3.5601","28.03","2.028571428571428","7.44","3.627","4494.399","0.01","11.98","30.812","4.82357","22.81","0","SATNPRO1963","24.01","0.33634","5"],
    [39386,"HCEP03730564","2024-11-11 13:45:00","11.9036","3.5599","27.986","2.031428571428572","7.44","4.007","3637.509","0.01","7.03","30.8097","4.82324","22.84","0","SATNPRO1963","23.94","0.33536","5"],
    [39387,"HCEP03730564","2024-11-11 14:00:00","11.9041","3.55938","27.927","2.022857142857143","7.43","4.008","3633.123","0.01","2.43","30.8044","4.82248","22.74","0","SATNPRO1963","23.904","0.33482","5"],
    [39388,"HCEP03730564","2024-11-11 14:15:00","11.9044","3.55929","27.866","2.008571428571428","7.43","3.609","4549.43","0.01","10.96","30.8033","4.82232","22.58","0","SATNPRO1963","23.982","0.33592","5"],
    [39389,"HCEP03730564","2024-11-11 14:30:00","11.9042","3.5593","27.801","1.995714285714286","7.43","4.022","3706.897","0.02","25.7","30.8035","4.82234","22.43","0","SATNPRO1963","23.822","0.33368","5"],
    [39390,"HCEP03730564","2024-11-11 14:45:00","11.9044","3.55918","27.735","1.99","7.44","4.027","3691.744","0","3.43","30.8022","4.82215","22.37","0","SATNPRO1963","23.822","0.33364","5"],
    [39391,"HCEP03730564","2024-11-11 15:00:00","11.9048","3.55893","27.651","1.99","7.43","3.731","4441.562","0.01","9.08","30.7996","4.82178","22.38","0","SATNPRO1963","23.816","0.33352","5"],
    [39392,"HCEP03730564","2024-11-11 15:15:00","11.9046","3.55829","27.545","1.987142857142857","7.43","4.033","3586.512","0.02","8.26","30.7936","4.82093","22.33","0","SATNPRO1963","23.672","0.33156","5"],
    [39393,"HCEP03730564","2024-11-11 15:30:00","11.9047","3.55816","27.435","1.974285714285714","7.43","4.038","3579.833","0.01","1.88","30.7923","4.82074","22.2","0","SATNPRO1963","23.732","0.3324","5"],
    [39394,"HCEP03730564","2024-11-11 15:45:00","11.9048","3.55808","27.305","1.968571428571428","7.42","3.722","4425.779","0.01","12.08","30.7916","4.82063","22.13","0","SATNPRO1963","23.8","0.3334","5"],
    [39395,"HCEP03730564","2024-11-11 16:00:00","11.9046","3.55796","27.165","1.961428571428572","7.42","4.043","3888.86","0.01","33.63","30.7905","4.82048","22.05","0","SATNPRO1963","23.896","0.3347","5"],
    [39396,"HCEP03730564","2024-11-11 16:15:00","11.9046","3.55787","27.009","1.954285714285714","7.42","4.042","3883.297","0.01","3.76","30.7898","4.82037","21.97","0","SATNPRO1963","23.374","0.32738","5"],
    [39397,"HCEP03730564","2024-11-11 16:30:00","11.9046","3.55799","26.846","1.95","7.42","3.803","4567.757","0.02","12.18","30.791","4.82053","21.92","0","SATNPRO1963","23.742","0.33254","5"],
    [39398,"HCEP03730564","2024-11-11 16:45:00","11.9048","3.55802","26.677","1.948571428571429","7.42","4.027","3916.018","0","23.77","30.7911","4.82054","21.9","0","SATNPRO1963","23.732","0.3324","5"],
    [39399,"HCEP03730564","2024-11-11 17:00:00","11.9048","3.55791","26.513","1.948571428571429","7.42","4.026","3911.251","0","2.17","30.7902","4.8204","21.9","0","SATNPRO1963","23.646","0.3312","5"],
    [39400,"HCEP03730564","2024-11-11 17:15:00","11.9048","3.55788","26.343","1.942857142857143","7.43","3.772","4585.281","0.01","13.2","30.79","4.82036","21.84","0","SATNPRO1963","23.764","0.33288","5"],
    [39401,"HCEP03730564","2024-11-11 17:30:00","11.9049","3.55784","26.162","1.935714285714286","7.43","4.053","3861.312","0.01","23.52","30.7895","4.82028","21.76","0","SATNPRO1963","23.598","0.33052","5"],
    [39402,"HCEP03730564","2024-11-11 17:45:00","11.9049","3.55799","26.002","1.931428571428572","7.43","4.049","3861.053","0.01","2.17","30.7911","4.82048","21.71","0","SATNPRO1963","23.68","0.3317","5"],
    [39403,"HCEP03730564","2024-11-11 18:00:00","11.9047","3.55795","25.846","1.932857142857143","7.42","3.75","4525.202","0.01","11.88","30.7909","4.82045","21.73","0","SATNPRO1963","23.572","0.33016","5"],
    [39404,"HCEP03730564","2024-11-11 18:15:00","11.9047","3.558","25.71","1.925714285714286","7.43","4.059","3759.681","0.02","18.09","30.7914","4.82052","21.65","0","SATNPRO1963","23.676000000000002","0.3316","5"],
    [39405,"HCEP03730564","2024-11-11 18:30:00","11.9046","3.55784","25.593","1.91","7.42","4.064","3748.195","0.01","1.08","30.79","4.82032","21.47","0","SATNPRO1963","23.516000000000002","0.32936","5"],
    [39406,"HCEP03730564","2024-11-11 18:45:00","11.904","3.55795","25.507","1.885714285714286","7.42","3.794","4406.899","0.01","10.29","30.7916","4.82055","21.2","0","SATNPRO1963","23.198","0.32498","5"],
    [39407,"HCEP03730564","2024-11-11 19:00:00","11.904","3.55785","25.44","1.825714285714286","7.43","4.063","3723.474","0.01","13.89","30.7906","4.82041","20.52","0","SATNPRO1963","22.928","0.32118","5"],
    [39408,"HCEP03730564","2024-11-11 19:15:00","11.902","3.55862","25.408","1.81","7.42","4.067","3716.179","0","2.17","30.7998","4.82172","20.34","0","SATNPRO1963","22.614","0.31676","5"],
    [39409,"HCEP03730564","2024-11-11 19:30:00","11.904","3.55864","25.398","1.837142857142857","7.42","3.738","4574.771","0.01","18.98","30.7983","4.82149","20.65","0","SATNPRO1963","23.536","0.32968","5"],
    [39410,"HCEP03730564","2024-11-11 19:45:00","11.9022","3.55921","25.414","1.887142857142857","7.41","4.042","3953.052","0.01","12.37","30.8052","4.82249","21.22","0","SATNPRO1963","23.252","0.32568","5"],
    [39411,"HCEP03730564","2024-11-11 20:00:00","11.9021","3.5594","25.426","1.891428571428572","7.43","4.044","3943.42","0.01","0","30.8071","4.82275","21.26","0","SATNPRO1963","23.678","0.33166","5"],
    [39412,"HCEP03730564","2024-11-11 20:15:00","11.9016","3.55964","25.457","1.897142857142857","7.42","3.803","4590.307","0.01","9.94","30.8099","4.82315","21.33","0","SATNPRO1963","23.396","0.32772","5"],
    [39413,"HCEP03730564","2024-11-11 20:30:00","11.9015","3.55964","25.523","1.902857142857143","7.42","4.029","3981.528","0.01","26.66","30.8099","4.82316","21.4","0","SATNPRO1963","23.492","0.32904","5"],
    [39414,"HCEP03730564","2024-11-11 20:45:00","11.9012","3.55961","25.599","1.902857142857143","7.42","4.027","3974.313","0","3.43","30.8098","4.82316","21.39","0","SATNPRO1963","23.244","0.32556","5"],
    [39415,"HCEP03730564","2024-11-11 21:00:00","11.9014","3.55953","25.668","1.874285714285714","7.42","3.745","4522.736","0.01","10.41","30.8089","4.82303","21.08","0","SATNPRO1963","23.088","0.32342","5"],
    [39416,"HCEP03730564","2024-11-11 21:15:00","11.9012","3.5593","25.734","1.84","7.42","4.024","3855.529","0.01","10.57","30.8068","4.82274","20.69","0","SATNPRO1963","23.102","0.32358","5"],
    [39417,"HCEP03730564","2024-11-11 21:30:00","11.9014","3.55918","25.816","1.821428571428571","7.41","4.026","3851.527","0","2.17","30.8055","4.82257","20.48","0","SATNPRO1963","23.352","0.32708","5"],
    [39418,"HCEP03730564","2024-11-11 21:45:00","11.9016","3.55915","25.906","1.821428571428571","7.41","3.72","4532.426","0.01","11.06","30.805","4.8225","20.47","0","SATNPRO1963","23.44","0.3283","5"],
    [39419,"HCEP03730564","2024-11-11 22:00:00","11.9015","3.55905","26.005","1.82","7.41","4.038","3762.469","0.01","9.7","30.8041","4.82237","20.46","0","SATNPRO1963","23.09","0.32344","5"],
    [39420,"HCEP03730564","2024-11-11 22:15:00","11.9018","3.5589","26.073","1.818571428571428","7.41","4.04","3757.855","0.01","0","30.8023","4.82211","20.45","0","SATNPRO1963","23.268","0.3259","5"],
    [39421,"HCEP03730564","2024-11-11 22:30:00","11.9018","3.55873","26.131","1.798571428571428","7.43","3.731","4556.425","0.01","10.41","30.8007","4.8219","20.22","0","SATNPRO1963","23.056","0.32298","5"],
    [39422,"HCEP03730564","2024-11-11 22:45:00","11.9025","3.55819","26.208","1.782857142857143","7.42","4.02","3718.074","0.01","11.74","30.7949","4.82107","20.04","0","SATNPRO1963","23.096","0.32348","5"],
    [39423,"HCEP03730564","2024-11-11 23:00:00","11.9027","3.55742","26.316","1.778571428571429","7.42","4.018","3717.212","0.01","3.25","30.7873","4.82","20","0","SATNPRO1963","23.14","0.32412","5"],
    [39424,"HCEP03730564","2024-11-11 23:15:00","11.9031","3.55634","26.403","1.755714285714286","7.41","3.699","4444.86","0.01","12.56","30.7765","4.81848","19.73","0","SATNPRO1963","23.194","0.32488","5"],
    [39425,"HCEP03730564","2024-11-11 23:30:00","11.9033","3.55656","26.498","1.738571428571429","7.41","3.968","3697.432","0.01","17.19","30.7784","4.81876","19.55","0","SATNPRO1963","23.152","0.3243","5"],
    [39426,"HCEP03730564","2024-11-11 23:45:00","11.9031","3.55591","26.623","1.76","7.41","3.967","3701.002","0.01","2.43","30.7723","4.8179","19.79","0","SATNPRO1963","23.02","0.32246","5"],
    [39427,"HCEP03730564","2024-11-12 00:00:00","11.9037","3.55525","26.687","1.755714285714286","7.41","3.685","4445.297","0.01","13.29","30.7654","4.81693","19.73","0","SATNPRO1963","23.336","0.32688","5"],
    [39428,"HCEP03730564","2024-11-12 00:15:00","11.9052","3.55498","26.779","1.725714285714286","7.41","4.022","3687.992","0.01","23.74","30.7616","4.81637","19.39","0","SATNPRO1963","23.122","0.32392","5"],
    [39429,"HCEP03730564","2024-11-12 00:30:00","11.906","3.55477","26.867","1.677142857142857","7.41","4.025","3685.63","0","2.66","30.7589","4.81599","18.86","0","SATNPRO1963","22.946","0.3214","5"],
    [39430,"HCEP03730564","2024-11-12 00:45:00","11.9065","3.55463","26.895","1.651428571428571","7.4","3.744","4251.026","0.01","9.58","30.7571","4.81572","18.57","0","SATNPRO1963","22.654","0.31732","5"],
    [39431,"HCEP03730564","2024-11-12 01:00:00","11.9066","3.55489","26.928","1.641428571428572","7.39","4.052","3692.084","0.01","9.33","30.7595","4.81606","18.44","0","SATNPRO1963","22.896","0.32068","5"],
    [39432,"HCEP03730564","2024-11-12 01:15:00","11.9065","3.55495","26.948","1.645714285714286","7.39","4.053","3688.293","0.01","3.91","30.7602","4.81616","18.5","0","SATNPRO1963","22.858","0.32014","5"],
    [39433,"HCEP03730564","2024-11-12 01:30:00","11.906","3.55525","26.979","1.655714285714286","7.39","3.731","4445.777","0.01","8.26","30.7634","4.81663","18.61","0","SATNPRO1963","22.804","0.31938","5"],
    [39434,"HCEP03730564","2024-11-12 01:45:00","11.9066","3.55517","27.012","1.66","7.39","4.042","3724.286","0.01","15.23","30.7622","4.81645","18.67","0","SATNPRO1963","22.844","0.31996","5"],
    [39435,"HCEP03730564","2024-11-12 02:00:00","11.9067","3.55499","26.995","1.644285714285714","7.39","4.042","3716.719","0.01","2.17","30.7603","4.81618","18.48","0","SATNPRO1963","22.806","0.31942","5"],
    [39436,"HCEP03730564","2024-11-12 02:15:00","11.9069","3.55465","26.97","1.632857142857143","7.39","3.789","4390.729","0.01","9.82","30.7569","4.8157","18.35","0","SATNPRO1963","22.588","0.31642","5"],
    [39437,"HCEP03730564","2024-11-12 02:30:00","11.9065","3.55393","26.962","1.621428571428571","7.39","4.034","3739.211","0.01","13.98","30.7503","4.81477","18.23","0","SATNPRO1963","22.648","0.31718","5"],
    [39438,"HCEP03730564","2024-11-12 02:45:00","11.9063","3.5532","26.968","1.615714285714286","7.38","4.032","3732.375","0","1.88","30.7435","4.81381","18.17","0","SATNPRO1963","22.982","0.32192","5"],
    [39439,"HCEP03730564","2024-11-12 03:00:00","11.9066","3.55286","26.937","1.61","7.38","3.731","4380.533","0.01","10.96","30.7399","4.81331","18.09","0","SATNPRO1963","22.836","0.3198","5"],
    [39440,"HCEP03730564","2024-11-12 03:15:00","11.9065","3.55258","26.867","1.6","7.38","4.036","3676.495","0.01","16.88","30.7374","4.81295","17.99","0","SATNPRO1963","22.732","0.31838","5"],
    [39441,"HCEP03730564","2024-11-12 03:30:00","11.9064","3.55244","26.75","1.592857142857143","7.39","4.038","3672.32","0.01","2.87","30.7361","4.81276","17.9","0","SATNPRO1963","22.81","0.3195","5"],
    [39442,"HCEP03730564","2024-11-12 03:45:00","11.9058","3.55227","26.686","1.577142857142857","7.39","3.785","4331.919","0.01","10.23","30.735","4.81261","17.73","0","SATNPRO1963","23.105999999999998","0.32366","5"],
    [39443,"HCEP03730564","2024-11-12 04:00:00","11.9059","3.55218","26.576","1.564285714285714","7.39","4.04","3682.88","0.02","5.84","30.7342","4.81248","17.58","0","SATNPRO1963","22.762","0.31878","5"],
    [39444,"HCEP03730564","2024-11-12 04:15:00","11.9056","3.5522","26.462","1.558571428571428","7.4","4.046","3678.648","0.01","2.66","30.7346","4.81254","17.51","0","SATNPRO1963","22.81","0.31948","5"],
    [39445,"HCEP03730564","2024-11-12 04:30:00","11.9057","3.55223","26.342","1.564285714285714","7.39","3.734","4435.99","0.01","8.81","30.7349","4.81257","17.59","0","SATNPRO1963","22.738","0.31846","5"],
    [39446,"HCEP03730564","2024-11-12 04:45:00","11.9056","3.55221","26.236","1.567142857142857","7.39","3.978","3750.002","0.01","6.86","30.7348","4.81256","17.61","0","SATNPRO1963","22.625999999999998","0.31692","5"],
    [39447,"HCEP03730564","2024-11-12 05:00:00","11.9058","3.55211","26.123","1.561428571428571","7.39","3.978","3746.526","0","1.88","30.7338","4.81241","17.55","0","SATNPRO1963","22.676","0.3176","5"],
    [39448,"HCEP03730564","2024-11-12 05:15:00","11.9058","3.55199","26","1.562857142857143","7.39","3.708","4428.438","0.01","10.41","30.7326","4.81223","17.57","0","SATNPRO1963","22.618","0.31682","5"],
    [39449,"HCEP03730564","2024-11-12 05:30:00","11.9056","3.55193","25.907","1.554285714285714","7.39","4.029","3795.771","0.01","7.9","30.7323","4.81218","17.47","0","SATNPRO1963","22.508","0.31522","5"],
    [39450,"HCEP03730564","2024-11-12 05:45:00","11.9053","3.55186","25.809","1.52","7.4","4.029","3791.186","0","3.76","30.7319","4.81213","17.08","0","SATNPRO1963","22.182","0.3107","5"],
    [39451,"HCEP03730564","2024-11-12 06:00:00","11.9056","3.55221","25.701","1.508571428571429","7.39","3.77","4374.075","0.01","8.26","30.735","4.81256","16.96","0","SATNPRO1963","22.398","0.31374","5"],
    [39452,"HCEP03730564","2024-11-12 06:15:00","11.9057","3.5525","25.602","1.52","7.38","4.045","3712.661","0.02","23.52","30.7378","4.81294","17.07","0","SATNPRO1963","22.322","0.31268","5"],
    [39453,"HCEP03730564","2024-11-12 06:30:00","11.9058","3.55275","25.529","1.534285714285714","7.38","4.046","3697.886","0.01","1.53","30.7401","4.81326","17.24","0","SATNPRO1963","22.214","0.31116","5"],
    [39454,"HCEP03730564","2024-11-12 06:45:00","11.9061","3.55291","25.461","1.538571428571428","7.38","3.759","4357.713","0.01","9.01","30.7414","4.81343","17.29","0","SATNPRO1963","22.484","0.31492","5"],
    [39455,"HCEP03730564","2024-11-12 07:00:00","11.9058","3.55321","25.416","1.538571428571428","7.38","4.036","3769.009","0.02","31.42","30.7447","4.8139","17.3","0","SATNPRO1963","22.33","0.31278","5"],
    [39456,"HCEP03730564","2024-11-12 07:15:00","11.9055","3.55345","25.399","1.544285714285714","7.38","4.037","3767.301","0.01","2.87","30.7472","4.81426","17.35","0","SATNPRO1963","22.48","0.31488","5"],
    [39457,"HCEP03730564","2024-11-12 07:30:00","11.9054","3.55355","25.401","1.545714285714286","7.38","3.765","4385.066","0.01","13.46","30.7482","4.8144","17.38","0","SATNPRO1963","22.578","0.31624","5"],
    [39458,"HCEP03730564","2024-11-12 07:45:00","11.905","3.55292","25.421","1.532857142857143","7.39","3.989","3805.918","0.01","7.75","30.7425","4.8136","17.23","0","SATNPRO1963","22.654","0.31732","5"],
    [39459,"HCEP03730564","2024-11-12 08:00:00","11.9046","3.55232","25.462","1.531428571428572","7.39","3.986","3806.596","0","1.08","30.7371","4.81285","17.21","0","SATNPRO1963","22.71","0.3181","5"],
    [39460,"HCEP03730564","2024-11-12 08:15:00","11.9033","3.55228","25.511","1.558571428571428","7.38","3.708","4463.845","0.01","8.81","30.7377","4.81296","17.52","0","SATNPRO1963","22.96","0.3216","5"],
    [39461,"HCEP03730564","2024-11-12 08:30:00","11.9019","3.55389","25.685","1.58","7.38","4.007","3680.966","0.01","15.27","30.7543","4.81533","17.76","0","SATNPRO1963","22.938","0.3213","5"],
    [39462,"HCEP03730564","2024-11-12 08:45:00","11.9016","3.55402","25.897","1.602857142857143","7.41","4.005","3675.629","0.01","2.43","30.7557","4.81554","18.02","0","SATNPRO1963","22.552","0.31584","5"],
    [39463,"HCEP03730564","2024-11-12 09:00:00","11.9014","3.55406","26.024","1.571428571428572","7.39","3.712","4377.373","0.01","6.86","30.7562","4.81562","17.66","0","SATNPRO1963","22.466","0.3147","5"],
    [39464,"HCEP03730564","2024-11-12 09:15:00","11.9012","3.55428","26.144","1.548571428571429","7.4","4.016","3633.103","0.01","6.69","30.7584","4.81594","17.4","0","SATNPRO1963","22.584","0.31634","5"],
    [39465,"HCEP03730564","2024-11-12 09:30:00","11.9011","3.55428","26.286","1.524285714285714","7.38","4.016","3635.704","0","2.17","30.7585","4.81596","17.14","0","SATNPRO1963","22.57","0.31612","5"],
    [39466,"HCEP03730564","2024-11-12 09:45:00","11.9009","3.55425","26.421","1.522857142857143","7.38","3.656","4334.296","0.01","11.58","30.7583","4.81594","17.11","0","SATNPRO1963","22.508","0.31526","5"],
    [39467,"HCEP03730564","2024-11-12 10:00:00","11.901","3.55449","26.569","1.502857142857143","7.38","4.013","3660.913","0.01","10.06","30.7604","4.81625","16.89","0","SATNPRO1963","22.474","0.31478","5"],
    [39468,"HCEP03730564","2024-11-12 10:15:00","11.9009","3.55484","26.709","1.505714285714286","7.37","4.017","3657.76","0","2.17","30.7638","4.81673","16.92","0","SATNPRO1963","22.514","0.31532","5"],
    [39469,"HCEP03730564","2024-11-12 10:30:00","11.9007","3.55506","26.868","1.515714285714286","7.38","3.733","4299.295","0.01","7.44","30.766","4.81706","17.04","0","SATNPRO1963","22.348","0.313","5"],
    [39470,"HCEP03730564","2024-11-12 10:45:00","11.9008","3.55519","27.032","1.517142857142857","7.38","3.996","3661.677","0.01","14.35","30.7671","4.81723","17.05","0","SATNPRO1963","22.306","0.31242","5"],
    [39471,"HCEP03730564","2024-11-12 11:00:00","11.9008","3.55538","27.198","1.51","7.38","3.994","3647.437","0.01","2.17","30.7689","4.81749","16.97","0","SATNPRO1963","22.296","0.3123","5"],
    [39472,"HCEP03730564","2024-11-12 11:15:00","11.9007","3.5555","27.356","1.497142857142857","7.37","3.789","4245.689","0.01","22.47","30.77","4.81765","16.83","0","SATNPRO1963","22.272","0.31192","5"],
    [39473,"HCEP03730564","2024-11-12 11:30:00","11.9008","3.55543","27.517","1.49","7.37","4.049","3713.645","0","9.58","30.7692","4.81755","16.75","0","SATNPRO1963","22.154","0.3103","5"],
    [39474,"HCEP03730564","2024-11-12 11:45:00","11.9006","3.55531","27.656","1.478571428571428","7.38","4.052","3705.512","0.01","1.08","30.7682","4.81741","16.61","0","SATNPRO1963","22.188","0.31074","5"],
    [39475,"HCEP03730564","2024-11-12 12:00:00","11.9002","3.55521","27.799","1.465714285714286","7.37","3.734","4274.861","0.01","10.96","30.7676","4.81734","16.47","0","SATNPRO1963","21.886","0.30656","5"],
    [39476,"HCEP03730564","2024-11-12 12:15:00","11.9004","3.55534","27.912","1.451428571428572","7.37","4.037","3653.224","0.01","14.72","30.7686","4.81748","16.31","0","SATNPRO1963","21.632","0.30298","5"],
    [39477,"HCEP03730564","2024-11-12 12:30:00","11.9001","3.55534","28.011","1.431428571428572","7.37","4.037","3657.359","0.01","2.43","30.7687","4.81752","16.09","0","SATNPRO1963","21.468","0.30066","5"],
    [39478,"HCEP03730564","2024-11-12 12:45:00","11.8998","3.55511","28.087","1.388571428571429","7.37","3.751","4299.801","0.01","11.38","30.7667","4.81724","15.6","0","SATNPRO1963","21.56","0.30198","5"],
    [39479,"HCEP03730564","2024-11-12 13:00:00","11.9002","3.55518","28.141","1.371428571428571","7.37","4.005","3676.745","0.01","18.7","30.767","4.81728","15.41","0","SATNPRO1963","21.764","0.30486","5"],
    [39480,"HCEP03730564","2024-11-12 13:15:00","11.8998","3.55519","28.176","1.374285714285714","7.37","4.009","3670.063","0","1.88","30.7675","4.81736","15.44","0","SATNPRO1963","21.37","0.29932","5"],
    [39481,"HCEP03730564","2024-11-12 13:30:00","11.8991","3.55519","28.175","1.344285714285714","7.37","3.768","4291.55","0.01","9.64","30.7681","4.81745","15.11","0","SATNPRO1963","21.024","0.2945","5"],
    [39482,"HCEP03730564","2024-11-12 13:45:00","11.899","3.55543","28.183","1.308571428571429","7.37","4.037","3642.434","0.01","12.13","30.7705","4.81779","14.7","0","SATNPRO1963","21.202","0.29698","5"],
    [39483,"HCEP03730564","2024-11-12 14:00:00","11.8993","3.55556","28.143","1.307142857142857","7.37","4.036","3639.486","0.01","2.66","30.7715","4.81793","14.69","0","SATNPRO1963","20.99","0.29398","5"],
    [39484,"HCEP03730564","2024-11-12 14:15:00","11.8987","3.5557","28.12","1.31","7.37","3.74","4307.358","0.01","8.47","30.7733","4.81818","14.73","0","SATNPRO1963","21.06","0.29498","5"],
    [39485,"HCEP03730564","2024-11-12 14:30:00","11.8985","3.55589","28.057","1.297142857142857","7.36","3.974","3680.644","0.01","9.21","30.7754","4.81848","14.58","0","SATNPRO1963","21.044","0.29478","5"],
    [39486,"HCEP03730564","2024-11-12 14:45:00","11.8981","3.55604","27.983","1.294285714285714","7.37","3.976","3682.161","0.01","0","30.7771","4.81872","14.55","0","SATNPRO1963","20.976","0.2938","5"],
    [39487,"HCEP03730564","2024-11-12 15:00:00","11.8982","3.5562","27.878","1.284285714285714","7.37","3.686","4381.325","0.01","7.52","30.7786","4.81893","14.44","0","SATNPRO1963","20.926","0.2931","5"],
    [39488,"HCEP03730564","2024-11-12 15:15:00","11.8979","3.55636","27.749","1.277142857142857","7.37","4.043","3606.964","0.01","26.57","30.7805","4.81919","14.36","0","SATNPRO1963","21.052","0.29486","5"],
    [39489,"HCEP03730564","2024-11-12 15:30:00","11.8979","3.5565","27.635","1.28","7.37","4.044","3602.332","0.01","2.66","30.7819","4.81938","14.39","0","SATNPRO1963","21.108","0.29562","5"],
    [39490,"HCEP03730564","2024-11-12 15:45:00","11.8978","3.55669","27.495","1.285714285714286","7.36","3.701","4349.375","0","11.74","30.7838","4.81965","14.45","0","SATNPRO1963","21.052","0.29486","5"],
    [39491,"HCEP03730564","2024-11-12 16:00:00","11.8978","3.55686","27.334","1.288571428571429","7.36","3.991","3717.13","0.02","11.63","30.7855","4.81988","14.48","0","SATNPRO1963","21.172","0.29658","5"],
    [39492,"HCEP03730564","2024-11-12 16:15:00","11.8976","3.55707","27.175","1.314285714285714","7.36","3.991","3708.947","0.01","2.66","30.7878","4.82019","14.77","0","SATNPRO1963","21.362000000000002","0.29924","5"],
    [39493,"HCEP03730564","2024-11-12 16:30:00","11.8978","3.55719","27.002","1.338571428571429","7.36","3.781","4223.919","0.01","6.95","30.7889","4.82034","15.05","0","SATNPRO1963","21.296","0.29832","5"],
    [39494,"HCEP03730564","2024-11-12 16:45:00","11.8983","3.55717","26.822","1.357142857142857","7.36","3.878","3829.792","0.01","18.44","30.7883","4.82023","15.25","0","SATNPRO1963","21.406","0.29984","5"],
    [39495,"HCEP03730564","2024-11-12 17:00:00","11.899","3.55714","26.644","1.402857142857143","7.37","3.877","3816.414","0.01","2.43","30.7875","4.82011","15.76","0","SATNPRO1963","22.733999999999998","0.31842","5"],
    [39496,"HCEP03730564","2024-11-12 17:15:00","11.8972","3.55701","26.444","1.36","7.37","3.718","4353.702","0.01","12.93","30.7878","4.82017","15.29","0","SATNPRO1963","20.902","0.29276","5"],
    [39497,"HCEP03730564","2024-11-12 17:30:00","11.8969","3.55699","26.248","1.28","7.37","4.051","3840.792","0.02","14.76","30.788","4.82018","14.39","0","SATNPRO1963","20.812","0.29152","5"],
    [39498,"HCEP03730564","2024-11-12 17:45:00","11.8965","3.5569","26.051","1.268571428571429","7.36","4.05","3834.557","0","1.88","30.7875","4.82011","14.25","0","SATNPRO1963","20.844","0.2919","5"],
    [39499,"HCEP03730564","2024-11-12 18:00:00","11.8965","3.55685","25.859","1.242857142857143","7.36","3.746","4523.795","0.01","19.22","30.7871","4.82004","13.96","0","SATNPRO1963","20.648","0.28918","5"],
    [39500,"HCEP03730564","2024-11-12 18:15:00","11.8962","3.55685","25.674","1.231428571428572","7.36","4.002","3855.527","0.01","8.61","30.7873","4.82006","13.83","0","SATNPRO1963","20.733999999999998","0.2904","5"],
    [39501,"HCEP03730564","2024-11-12 18:30:00","11.8961","3.55701","25.488","1.234285714285714","7.36","4","3854.655","0.01","2.43","30.7891","4.8203","13.88","0","SATNPRO1963","20.654","0.28932","5"],
    [39502,"HCEP03730564","2024-11-12 18:45:00","11.8962","3.55722","25.318","1.24","7.36","3.78","4476.353","0.01","9.08","30.7912","4.82058","13.94","0","SATNPRO1963","20.808","0.29146","5"],
    [39503,"HCEP03730564","2024-11-12 19:00:00","11.8963","3.55749","25.177","1.26","7.36","4.037","3845.876","0.01","13.68","30.7937","4.82093","14.17","0","SATNPRO1963","20.817999999999998","0.29156","5"],
    [39504,"HCEP03730564","2024-11-12 19:15:00","11.8971","3.55776","25.059","1.307142857142857","7.36","4.036","3839.479","0.01","2.43","30.7956","4.82119","14.69","0","SATNPRO1963","21.158","0.29632","5"],
    [39505,"HCEP03730564","2024-11-12 19:30:00","11.8981","3.5578","24.991","1.375714285714286","7.36","3.867","4362.96","0.01","13.11","30.7952","4.82111","15.47","0","SATNPRO1963","21.796","0.3053","5"],
    [39506,"HCEP03730564","2024-11-12 19:45:00","11.8977","3.55806","24.941","1.417142857142857","7.37","4.016","3931.783","0.02","10.23","30.7981","4.82152","15.94","0","SATNPRO1963","21.344","0.29896","5"],
    [39507,"HCEP03730564","2024-11-12 20:00:00","11.8975","3.55815","24.95","1.432857142857143","7.37","4.019","3926.757","0.01","2.43","30.7992","4.82167","16.11","0","SATNPRO1963","21.416","0.29994","5"],
    [39508,"HCEP03730564","2024-11-12 20:15:00","11.8976","3.55835","24.944","1.451428571428572","7.37","3.787","4478.445","0.01","12.27","30.801","4.82193","16.32","0","SATNPRO1963","21.806","0.3054","5"],
    [39509,"HCEP03730564","2024-11-12 20:30:00","11.8978","3.55844","24.975","1.472857142857143","7.37","3.967","3871.213","0.01","9.82","30.8017","4.82202","16.56","0","SATNPRO1963","21.612000000000002","0.3027","5"],
    [39510,"HCEP03730564","2024-11-12 20:45:00","11.898","3.55848","25.03","1.491428571428572","7.37","3.963","3864.597","0.01","1.53","30.8019","4.82206","16.76","0","SATNPRO1963","21.764","0.30482","5"],
    [39511,"HCEP03730564","2024-11-12 21:00:00","11.898","3.5583","25.05","1.497142857142857","7.37","3.764","4467.341","0","9.08","30.8002","4.82182","16.83","0","SATNPRO1963","21.61","0.3027","5"],
    [39512,"HCEP03730564","2024-11-12 21:15:00","11.8981","3.55815","25.134","1.477142857142857","7.37","4.005","3856.985","0.01","28.27","30.7986","4.8216","16.61","0","SATNPRO1963","21.752","0.30466","5"],
    [39513,"HCEP03730564","2024-11-12 21:30:00","11.8985","3.55807","25.211","1.48","7.37","4.004","3848.993","0.01","2.17","30.7975","4.82143","16.64","0","SATNPRO1963","21.82","0.30564","5"],
    [39514,"HCEP03730564","2024-11-12 21:45:00","11.8972","3.55769","25.322","1.43","7.37","3.789","4397.941","0.01","9.58","30.7949","4.82109","16.07","0","SATNPRO1963","21.688","0.30382","5"],
    [39515,"HCEP03730564","2024-11-12 22:00:00","11.8974","3.55715","25.42","1.418571428571429","7.37","3.983","4008.92","0","13.81","30.7894","4.82033","15.94","0","SATNPRO1963","21.38","0.29942","5"],
    [39516,"HCEP03730564","2024-11-12 22:15:00","11.8994","3.55681","25.586","1.505714285714286","7.38","3.988","4000.295","0.01","3.43","30.7845","4.81961","16.92","0","SATNPRO1963","21.912","0.30694","5"],
    [39517,"HCEP03730564","2024-11-12 22:30:00","11.9003","3.55655","25.713","1.638571428571429","7.39","3.829","4485.688","0.01","9.46","30.7811","4.81913","18.41","0","SATNPRO1963","22.712","0.31814","5"],
    [39518,"HCEP03730564","2024-11-12 22:45:00","11.9018","3.55644","25.824","1.732857142857143","7.39","4.023","3940.678","0","7.52","30.7787","4.81878","19.48","0","SATNPRO1963","22.832","0.31982","5"],
    [39519,"HCEP03730564","2024-11-12 23:00:00","11.9012","3.55475","25.927","1.654285714285714","7.4","4.026","3938.991","0","2.17","30.763","4.81658","18.6","0","SATNPRO1963","22.308","0.31242","5"],
    [39520,"HCEP03730564","2024-11-12 23:15:00","11.9016","3.55348","26.051","1.488571428571429","7.38","3.886","4371.234","0.01","10.18","30.7504","4.8148","16.73","0","SATNPRO1963","22.156000000000002","0.31036","5"],
    [39521,"HCEP03730564","2024-11-12 23:30:00","11.9017","3.55259","26.193","1.465714285714286","7.38","4.05","3851.99","0.01","11.53","30.7417","4.81358","16.47","0","SATNPRO1963","22.154","0.31032","5"],
    [39522,"HCEP03730564","2024-11-12 23:45:00","11.9016","3.5531","26.348","1.452857142857143","7.38","4.062","3842.011","0","2.17","30.7466","4.81429","16.33","0","SATNPRO1963","21.919999999999998","0.307","5"],
    [39523,"HCEP03730564","2024-11-13 00:00:00","11.902","3.55226","26.518","1.445714285714286","7.38","3.792","4524.935","0.01","13.38","30.7382","4.81311","16.25","0","SATNPRO1963","22.080000000000002","0.30928","5"],
    [39524,"HCEP03730564","2024-11-13 00:15:00","11.9028","3.55125","26.679","1.478571428571428","7.38","3.968","3965.995","0.01","14.47","30.7277","4.81162","16.62","0","SATNPRO1963","22.408","0.31386","5"],
    [39525,"HCEP03730564","2024-11-13 00:30:00","11.9041","3.5519","26.86","1.63","7.39","3.975","3963.533","0","3.43","30.7329","4.81234","18.32","0","SATNPRO1963","22.93","0.3212","5"],
    [39526,"HCEP03730564","2024-11-13 00:45:00","11.9042","3.55011","26.996","1.587142857142857","7.39","3.739","4518.786","0.01","11.27","30.7156","4.8099","17.83","0","SATNPRO1963","22.5","0.31512","5"],
    [39527,"HCEP03730564","2024-11-13 01:00:00","11.9044","3.55009","27.125","1.534285714285714","7.39","4.042","4028.563","0.01","7.44","30.7151","4.80984","17.24","0","SATNPRO1963","22.376","0.3134","5"],
    [39528,"HCEP03730564","2024-11-13 01:15:00","11.9038","3.55076","27.193","1.491428571428572","7.39","4.048","4026.909","0.01","3.07","30.7221","4.81084","16.76","0","SATNPRO1963","22.324","0.31268","5"],
    [39529,"HCEP03730564","2024-11-13 01:30:00","11.9031","3.55017","27.26","1.418571428571429","7.38","3.891","4231.88","0.01","10","30.7169","4.81012","15.95","0","SATNPRO1963","22.068","0.3091","5"],
    [39530,"HCEP03730564","2024-11-13 01:45:00","11.903","3.54898","27.388","1.4","7.37","4.082","3954.297","0.01","10.74","30.7055","4.80853","15.74","0","SATNPRO1963","22.238","0.31148","5"],
    [39531,"HCEP03730564","2024-11-13 02:00:00","11.9027","3.54914","27.486","1.39","7.37","4.08","3935.281","0.01","1.08","30.7073","4.80878","15.61","0","SATNPRO1963","21.954","0.30748","5"],
    [39532,"HCEP03730564","2024-11-13 02:15:00","11.9023","3.54943","27.517","1.378571428571429","7.37","3.948","4157.959","0.01","10.79","30.7104","4.80923","15.48","0","SATNPRO1963","21.942","0.30734","5"],
    [39533,"HCEP03730564","2024-11-13 02:30:00","11.9021","3.54951","27.537","1.372857142857143","7.37","4.055","3767.308","0.01","11.17","30.7112","4.80935","15.42","0","SATNPRO1963","21.966","0.3077","5"],
    [39534,"HCEP03730564","2024-11-13 02:45:00","11.9016","3.54949","27.556","1.361428571428571","7.37","4.057","3756.297","0","2.17","30.7115","4.8094","15.3","0","SATNPRO1963","22.146","0.31014","5"],
    [39535,"HCEP03730564","2024-11-13 03:00:00","11.9014","3.54953","27.526","1.345714285714286","7.37","3.857","4188.726","0.01","13.51","30.7121","4.80948","15.12","0","SATNPRO1963","22.108","0.3097","5"],
    [39536,"HCEP03730564","2024-11-13 03:15:00","11.9015","3.54953","27.542","1.335714285714286","7.37","3.986","3819.723","0.01","13.94","30.7119","4.80946","15.01","0","SATNPRO1963","22.066","0.30912","5"],
    [39537,"HCEP03730564","2024-11-13 03:30:00","11.9018","3.54946","27.503","1.334285714285714","7.37","3.988","3812.072","0","2.17","30.7111","4.80934","14.99","0","SATNPRO1963","21.994","0.30808","5"],
    [39538,"HCEP03730564","2024-11-13 03:45:00","11.9016","3.54957","27.446","1.331428571428572","7.37","3.793","4289.568","0","10","30.7124","4.80951","14.97","0","SATNPRO1963","22","0.30814","5"],
    [39539,"HCEP03730564","2024-11-13 04:00:00","11.9016","3.5495","27.399","1.328571428571429","7.36","4.036","3707.257","0.01","17.22","30.7117","4.80942","14.93","0","SATNPRO1963","22.105999999999998","0.30964","5"],
    [39540,"HCEP03730564","2024-11-13 04:15:00","11.9015","3.54934","27.274","1.335714285714286","7.37","4.038","3698.917","0.01","0","30.7102","4.80921","15","0","SATNPRO1963","21.868","0.3063","5"],
    [39541,"HCEP03730564","2024-11-13 04:30:00","11.9008","3.54845","27.171","1.34","7.36","3.758","4239.392","0.01","11.22","30.7023","4.80809","15.06","0","SATNPRO1963","22.032","0.3086","5"],
    [39542,"HCEP03730564","2024-11-13 04:45:00","11.9004","3.5482","27.057","1.337142857142857","7.36","3.996","3726.089","0.01","16.84","30.7002","4.8078","15.02","0","SATNPRO1963","21.698","0.30392","5"],
    [39543,"HCEP03730564","2024-11-13 05:00:00","11.8999","3.54724","26.932","1.327142857142857","7.37","3.994","3719.483","0.01","2.87","30.6915","4.80657","14.91","0","SATNPRO1963","21.596","0.3025","5"],
    [39544,"HCEP03730564","2024-11-13 05:15:00","11.9005","3.54648","26.917","1.362857142857143","7.37","3.748","4216.729","0.01","10.57","30.6837","4.80547","15.31","0","SATNPRO1963","22.02","0.3084","5"],
    [39545,"HCEP03730564","2024-11-13 05:30:00","11.9007","3.54726","26.81","1.365714285714286","7.37","3.998","3675.661","0.01","13.11","30.6911","4.80649","15.34","0","SATNPRO1963","22.04","0.30872","5"],
    [39546,"HCEP03730564","2024-11-13 05:45:00","11.9013","3.54751","26.691","1.371428571428571","7.37","3.999","3667.047","0.01","2.43","30.6931","4.80676","15.4","0","SATNPRO1963","22.028","0.30858","5"],
    [39547,"HCEP03730564","2024-11-13 06:00:00","11.9012","3.54776","26.586","1.368571428571428","7.36","3.779","4209.494","0.01","8.47","30.6956","4.80711","15.38","0","SATNPRO1963","22.126","0.3099","5"],
    [39548,"HCEP03730564","2024-11-13 06:15:00","11.9016","3.54784","26.471","1.374285714285714","7.36","3.987","3725.922","0.01","11.33","30.6961","4.80717","15.44","0","SATNPRO1963","22.384","0.3135","5"],
    [39549,"HCEP03730564","2024-11-13 06:30:00","11.9016","3.54789","26.406","1.411428571428572","7.37","3.987","3729.403","0","1.88","30.6966","4.80723","15.85","0","SATNPRO1963","22.234","0.31144","5"],
    [39550,"HCEP03730564","2024-11-13 06:45:00","11.9014","3.54908","26.313","1.412857142857143","7.36","3.749","4310.238","0.01","15.3","30.7082","4.80887","15.87","0","SATNPRO1963","22.012","0.30832","5"],
    [39551,"HCEP03730564","2024-11-13 07:00:00","11.9002","3.54857","26.203","1.42","7.37","4.003","3699.419","0.01","12.65","30.7043","4.80832","15.95","0","SATNPRO1963","22.26","0.31178","5"],
    [39552,"HCEP03730564","2024-11-13 07:15:00","11.9006","3.54996","26.15","1.504285714285714","7.37","4.007","3690.96","0.01","2.87","30.7174","4.81016","16.9","0","SATNPRO1963","22.548","0.3158","5"],
    [39553,"HCEP03730564","2024-11-13 07:30:00","11.9012","3.55168","26.034","1.531428571428572","7.37","3.835","4195.548","0.01","16.77","30.7334","4.81241","17.21","0","SATNPRO1963","22.516000000000002","0.31538","5"],
    [39554,"HCEP03730564","2024-11-13 07:45:00","11.9011","3.55229","25.964","1.532857142857143","7.37","4.034","3673.131","0.01","10.29","30.7394","4.81326","17.23","0","SATNPRO1963","22.476","0.31484","5"],
    [39555,"HCEP03730564","2024-11-13 08:00:00","11.9008","3.55281","25.894","1.512857142857143","7.37","4.039","3661.331","0.01","2.43","30.7446","4.81399","17","0","SATNPRO1963","22.372","0.31334","5"],
    [39556,"HCEP03730564","2024-11-13 08:15:00","11.9009","3.55276","25.919","1.49","7.37","3.796","4234.999","0.01","15.53","30.7441","4.81391","16.74","0","SATNPRO1963","22.366","0.31326","5"],
    [39557,"HCEP03730564","2024-11-13 08:30:00","11.9007","3.55262","25.966","1.455714285714286","7.37","4.026","3666.724","0.01","13.64","30.743","4.81376","16.36","0","SATNPRO1963","22.286","0.31214","5"],
    [39558,"HCEP03730564","2024-11-13 08:45:00","11.9003","3.55199","25.963","1.417142857142857","7.37","4.03","3662","0.01","2.17","30.7372","4.81295","15.93","0","SATNPRO1963","22.288","0.31218","5"],
    [39559,"HCEP03730564","2024-11-13 09:00:00","11.9014","3.55052","26.076","1.394285714285714","7.37","3.814","4170.444","0.01","7.82","30.7222","4.81082","15.67","0","SATNPRO1963","22.402","0.31378","5"],
    [39560,"HCEP03730564","2024-11-13 09:15:00","11.9015","3.55032","26.163","1.421428571428572","7.36","4.014","3638.634","0.02","15.94","30.7201","4.81054","15.98","0","SATNPRO1963","22.87","0.3203","5"],
    [39561,"HCEP03730564","2024-11-13 09:30:00","11.9012","3.55086","26.24","1.452857142857143","7.37","4.018","3634.658","0.01","1.53","30.7256","4.81132","16.33","0","SATNPRO1963","22.746","0.31862","5"],
    [39562,"HCEP03730564","2024-11-13 09:45:00","11.9011","3.55109","26.384","1.447142857142857","7.37","3.776","4211.153","0.01","7.59","30.7277","4.81163","16.26","0","SATNPRO1963","22.622","0.31688","5"],
    [39563,"HCEP03730564","2024-11-13 10:00:00","11.9012","3.55136","26.523","1.45","7.37","4.039","3860.606","0.03","46.75","30.7302","4.81198","16.3","0","SATNPRO1963","22.74","0.31848","5"],
    [39564,"HCEP03730564","2024-11-13 10:15:00","11.9012","3.5511","26.64","1.458571428571428","7.36","4.042","3852.76","0.01","2.17","30.7277","4.81163","16.39","0","SATNPRO1963","22.774","0.31896","5"],
    [39565,"HCEP03730564","2024-11-13 10:30:00","11.9012","3.5506","26.764","1.471428571428572","7.36","3.781","4251.646","0.01","11.06","30.7228","4.81095","16.54","0","SATNPRO1963","22.762","0.31882","5"],
    [39566,"HCEP03730564","2024-11-13 10:45:00","11.9016","3.55002","26.877","1.48","7.37","3.998","3716.165","0.01","11.93","30.7168","4.81011","16.62","0","SATNPRO1963","22.994","0.32208","5"],
    [39567,"HCEP03730564","2024-11-13 11:00:00","11.9016","3.55041","27.038","1.475714285714286","7.37","3.999","3715.168","0.01","1.88","30.7205","4.81065","16.58","0","SATNPRO1963","22.704","0.31798","5"],
    [39568,"HCEP03730564","2024-11-13 11:15:00","11.9015","3.55073","27.221","1.461428571428571","7.37","3.753","4239.534","0.01","9.14","30.7237","4.8111","16.42","0","SATNPRO1963","22.798","0.31936","5"],
    [39569,"HCEP03730564","2024-11-13 11:30:00","11.9011","3.55125","27.328","1.457142857142857","7.36","4.021","3678.067","0.01","19.53","30.7289","4.81185","16.38","0","SATNPRO1963","22.732","0.31838","5"],
    [39570,"HCEP03730564","2024-11-13 11:45:00","11.9013","3.55101","27.438","1.447142857142857","7.36","4.025","3665.908","0","2.17","30.7264","4.8115","16.26","0","SATNPRO1963","22.678","0.31764","5"],
    [39571,"HCEP03730564","2024-11-13 12:00:00","11.9012","3.55137","27.611","1.458571428571428","7.35","3.811","4176.877","0.01","13.02","30.7299","4.812","16.38","0","SATNPRO1963","22.682","0.31772","5"],
    [39572,"HCEP03730564","2024-11-13 12:15:00","11.9002","3.55237","27.71","1.428571428571429","7.35","4.027","3585.798","0.01","17.86","30.7402","4.81348","16.06","0","SATNPRO1963","22.338","0.31288","5"],
    [39573,"HCEP03730564","2024-11-13 12:30:00","11.8997","3.55203","27.864","1.372857142857143","7.36","4.027","3580.517","0","2.17","30.7374","4.81309","15.43","0","SATNPRO1963","22.028","0.30856","5"],
    [39574,"HCEP03730564","2024-11-13 12:45:00","11.8997","3.5525","27.976","1.34","7.35","3.817","4051.412","0.01","13.24","30.7418","4.81372","15.06","0","SATNPRO1963","22.026","0.30852","5"],
    [39575,"HCEP03730564","2024-11-13 13:00:00","11.9001","3.55239","28.068","1.347142857142857","7.35","4.026","3603.601","0.01","9.76","30.7404","4.81352","15.14","0","SATNPRO1963","22.056","0.30892","5"],
    [39576,"HCEP03730564","2024-11-13 13:15:00","11.8999","3.55262","28.169","1.361428571428571","7.35","4.026","3596.198","0","3.25","30.7428","4.81386","15.29","0","SATNPRO1963","22.036","0.30864","5"],
    [39577,"HCEP03730564","2024-11-13 13:30:00","11.8999","3.55261","28.248","1.364285714285714","7.36","3.808","4067.665","0.01","10.35","30.7426","4.81385","15.32","0","SATNPRO1963","21.81","0.30546","5"],
    [39578,"HCEP03730564","2024-11-13 13:45:00","11.9","3.55245","28.311","1.357142857142857","7.36","3.995","3568.706","0.01","37.96","30.741","4.81362","15.25","0","SATNPRO1963","21.914","0.30694","5"],
    [39579,"HCEP03730564","2024-11-13 14:00:00","11.9004","3.552","28.29","1.371428571428571","7.37","3.995","3555.768","0.01","1.08","30.7362","4.81295","15.41","0","SATNPRO1963","22.236","0.31148","5"],
    [39580,"HCEP03730564","2024-11-13 14:15:00","11.9004","3.55191","28.322","1.401428571428572","7.36","3.767","4127.479","0.01","10.18","30.7354","4.81283","15.75","0","SATNPRO1963","22.508","0.31528","5"],
    [39581,"HCEP03730564","2024-11-13 14:30:00","11.9008","3.55166","28.29","1.4","7.36","3.977","3506.077","0.01","12.08","30.7327","4.81243","15.73","0","SATNPRO1963","22.312","0.31252","5"],
    [39582,"HCEP03730564","2024-11-13 14:45:00","11.9008","3.55144","28.211","1.412857142857143","7.36","3.98","3499.705","0.01","0","30.7306","4.81214","15.88","0","SATNPRO1963","22.102","0.30958","5"],
    [39583,"HCEP03730564","2024-11-13 15:00:00","11.9008","3.54931","28.168","1.441428571428571","7.36","3.714","4019.026","0.01","9.46","30.7101","4.80925","16.19","0","SATNPRO1963","22.488","0.315","5"],
    [39584,"HCEP03730564","2024-11-13 15:15:00","11.9008","3.55033","28.149","1.451428571428572","7.36","4.024","3430.472","0.01","10.79","30.72","4.81064","16.31","0","SATNPRO1963","22.324","0.31266","5"],
    [39585,"HCEP03730564","2024-11-13 15:30:00","11.9008","3.55011","28.094","1.445714285714286","7.36","4.024","3422.866","0","2.66","30.7179","4.81034","16.25","0","SATNPRO1963","22.282","0.3121","5"],
    [39586,"HCEP03730564","2024-11-13 15:45:00","11.9005","3.54975","28.042","1.444285714285714","7.36","3.734","4016.888","0.01","11.06","30.7147","4.80989","16.23","0","SATNPRO1963","22.224","0.31128","5"],
    [39587,"HCEP03730564","2024-11-13 16:00:00","11.9004","3.54955","27.943","1.431428571428572","7.36","3.965","3427.182","0.01","12.27","30.713","4.80964","16.08","0","SATNPRO1963","22.158","0.31032","5"],
    [39588,"HCEP03730564","2024-11-13 16:15:00","11.9001","3.54926","27.805","1.401428571428572","7.36","3.963","3423.039","0.01","2.66","30.7104","4.80928","15.74","0","SATNPRO1963","22.21","0.31108","5"],
    [39589,"HCEP03730564","2024-11-13 16:30:00","11.9001","3.54872","27.65","1.355714285714286","7.36","3.7","4053.672","0.01","9.58","30.7053","4.80855","15.23","0","SATNPRO1963","21.88","0.30644","5"],
    [39590,"HCEP03730564","2024-11-13 16:45:00","11.8995","3.54824","27.463","1.318571428571429","7.35","3.987","3467.777","0.01","12.74","30.7013","4.80798","14.81","0","SATNPRO1963","22.006","0.30822","5"],
    [39591,"HCEP03730564","2024-11-13 17:00:00","11.8991","3.5478","27.246","1.298571428571429","7.35","3.992","3465.721","0.01","1.53","30.6974","4.80743","14.59","0","SATNPRO1963","21.772000000000002","0.30496","5"],
    [39592,"HCEP03730564","2024-11-13 17:15:00","11.8993","3.54797","27.044","1.294285714285714","7.35","3.645","4204.471","0.01","10.85","30.699","4.80764","14.54","0","SATNPRO1963","21.79","0.30524","5"],
    [39593,"HCEP03730564","2024-11-13 17:30:00","11.8994","3.54842","26.832","1.291428571428572","7.35","3.973","3532.842","0.01","12.97","30.7033","4.80823","14.52","0","SATNPRO1963","21.806","0.30546","5"],
    [39594,"HCEP03730564","2024-11-13 17:45:00","11.8996","3.54861","26.621","1.3","7.35","3.978","3522.189","0","1.88","30.7051","4.80847","14.61","0","SATNPRO1963","21.972","0.30774","5"],
    [39595,"HCEP03730564","2024-11-13 18:00:00","11.8993","3.54894","26.405","1.311428571428572","7.35","3.77","4039.561","0.01","10.12","30.7085","4.80895","14.74","0","SATNPRO1963","21.992","0.30808","5"],
    [39596,"HCEP03730564","2024-11-13 18:15:00","11.8995","3.54886","26.187","1.314285714285714","7.35","4.022","3674.715","0.01","8.19","30.7076","4.80881","14.77","0","SATNPRO1963","21.936","0.30724","5"],
    [39597,"HCEP03730564","2024-11-13 18:30:00","11.8995","3.54891","25.973","1.317142857142857","7.35","4.022","3671.337","0.01","2.66","30.7083","4.80889","14.8","0","SATNPRO1963","22.188","0.31076","5"],
    [39598,"HCEP03730564","2024-11-13 18:45:00","11.8997","3.54883","25.745","1.337142857142857","7.35","3.9","4136.166","0.01","13.42","30.7075","4.80876","15.02","0","SATNPRO1963","22.096","0.3095","5"],
    [39599,"HCEP03730564","2024-11-13 19:00:00","11.8997","3.54914","25.525","1.342857142857143","7.35","4.041","3761.223","0.01","5.64","30.7105","4.80917","15.09","0","SATNPRO1963","21.962","0.30762","5"],
    [39600,"HCEP03730564","2024-11-13 19:15:00","11.8993","3.54931","25.32","1.327142857142857","7.36","4.04","3753.25","0.01","1.53","30.7126","4.80946","14.92","0","SATNPRO1963","22.12","0.30984","5"],
    [39601,"HCEP03730564","2024-11-13 19:30:00","11.8991","3.54945","25.134","1.315714285714286","7.35","3.792","4407.701","0","14.15","30.7141","4.80967","14.78","0","SATNPRO1963","21.808","0.3055","5"],
    [39602,"HCEP03730564","2024-11-13 19:45:00","11.899","3.54963","24.977","1.302857142857143","7.35","4.022","3796.133","0","21.06","30.716","4.80993","14.64","0","SATNPRO1963","21.642","0.30316","5"],
    [39603,"HCEP03730564","2024-11-13 20:00:00","11.8996","3.54916","24.836","1.302857142857143","7.35","4.029","3787.99","0","3.6","30.711","4.80921","14.64","0","SATNPRO1963","22.13","0.30998","5"],
    [39604,"HCEP03730564","2024-11-13 20:15:00","11.8997","3.54927","24.723","1.327142857142857","7.34","3.85","4206.768","0.01","8.75","30.712","4.80934","14.92","0","SATNPRO1963","22.236","0.31146","5"],
    [39605,"HCEP03730564","2024-11-13 20:30:00","11.8995","3.54919","24.662","1.34","7.34","4.042","3843.614","0.01","11.17","30.7114","4.80926","15.06","0","SATNPRO1963","22.308","0.31244","5"],
    [39606,"HCEP03730564","2024-11-13 20:45:00","11.8995","3.54951","24.626","1.337142857142857","7.34","4.046","3829.75","0.01","1.08","30.7146","4.8097","15.03","0","SATNPRO1963","22.196","0.3109","5"],
    [39607,"HCEP03730564","2024-11-13 21:00:00","11.8993","3.5496","24.608","1.312857142857143","7.35","3.847","4268.801","0.01","9.14","30.7156","4.80985","14.76","0","SATNPRO1963","21.754","0.30472","5"],
    [39608,"HCEP03730564","2024-11-13 21:15:00","11.8995","3.54896","24.621","1.297142857142857","7.35","4.003","3629.76","0.01","25.49","30.7092","4.80894","14.57","0","SATNPRO1963","22.374","0.31342","5"],
    [39609,"HCEP03730564","2024-11-13 21:30:00","11.8996","3.54862","24.651","1.317142857142857","7.34","4.004","3619.926","0.01","8.12","30.7059","4.80848","14.8","0","SATNPRO1963","22.304","0.31242","5"],
    [39610,"HCEP03730564","2024-11-13 21:45:00","11.8992","3.54784","24.72","1.328571428571429","7.35","3.783","4251.509","0.01","28.17","30.6987","4.80747","14.92","0","SATNPRO1963","22.008","0.30824","5"],
    [39611,"HCEP03730564","2024-11-13 22:00:00","11.8986","3.54805","24.775","1.32","7.35","4.016","3528.195","0.02","71.45","30.7012","4.80784","14.83","0","SATNPRO1963","21.764","0.30484","5"],
    [39612,"HCEP03730564","2024-11-13 22:15:00","11.8983","3.54799","24.849","1.285714285714286","7.36","4.034","3585.379","0.01","1.88","30.7009","4.80781","14.44","0","SATNPRO1963","21.724","0.30428","5"],
    [39613,"HCEP03730564","2024-11-13 22:30:00","11.8953","3.54319","24.986","1.322857142857143","7.34","3.821","4303.574","0.01","22.52","30.6572","4.80169","14.86","0","SATNPRO1963","21.91","0.30692","5"],
    [39614,"HCEP03730564","2024-11-13 22:45:00","11.893","3.54043","25.11","1.321428571428572","7.35","3.993","3653.446","0.02","49.14","30.6325","4.79824","14.84","0","SATNPRO1963","21.888","0.30658","5"],
    [39615,"HCEP03730564","2024-11-13 23:00:00","11.8913","3.53629","25.253","1.402857142857143","7.36","4.01","3641.424","0","2.43","30.5941","4.79285","15.74","0","SATNPRO1963","22.236","0.31144","5"],
    [39616,"HCEP03730564","2024-11-13 23:15:00","11.8867","3.53076","25.394","1.445714285714286","7.35","3.785","4135.92","0.04","82.93","30.5447","4.78595","16.22","0","SATNPRO1963","22.186","0.31076","5"],
    [39617,"HCEP03730564","2024-11-13 23:30:00","11.8689","3.51819","25.457","1.478571428571428","7.35","4.035","3646.887","0.01","21.89","30.4385","4.77121","16.58","0","SATNPRO1963","21.966","0.30766","5"],
    [39618,"HCEP03730564","2024-11-13 23:45:00","11.8514","3.49888","25.585","1.585714285714286","7.35","4.05","3648.373","0","2.17","30.2673","4.74728","17.75","0","SATNPRO1963","21.994","0.30808","5"],
    [39619,"HCEP03730564","2024-11-14 00:00:00","11.8403","3.48816","25.752","1.755714285714286","7.35","3.808","4170.729","0.01","23.94","30.1734","4.73417","19.64","0","SATNPRO1963","22.16","0.3104","5"],
    [39620,"HCEP03730564","2024-11-14 00:15:00","11.8512","3.49985","25.978","1.794285714285714","7.37","3.964","3624.406","0.01","18.09","30.2766","4.74861","20.08","0","SATNPRO1963","21.451999999999998","0.30048","5"],
    [39621,"HCEP03730564","2024-11-14 00:30:00","11.8767","3.52384","26.153","1.6","7.37","3.987","3623.787","0","1.08","30.4861","4.77786","17.94","0","SATNPRO1963","21.532","0.30156","5"],
    [39622,"HCEP03730564","2024-11-14 00:45:00","11.8876","3.53459","26.302","1.421428571428572","7.35","3.765","4016.958","0.02","32.06","30.5804","4.79102","15.96","0","SATNPRO1963","21.536","0.30166","5"],
    [39623,"HCEP03730564","2024-11-14 01:00:00","11.8899","3.53792","26.449","1.3","7.35","4.028","3485.134","0.03","64.09","30.6104","4.79524","14.6","0","SATNPRO1963","21.148","0.29626","5"],
    [39624,"HCEP03730564","2024-11-14 01:15:00","11.8886","3.53688","26.662","1.24","7.35","4.048","3528.793","0.01","2.66","30.6013","4.79399","13.91","0","SATNPRO1963","21.202","0.29696","5"],
    [39625,"HCEP03730564","2024-11-14 01:30:00","11.8895","3.53773","26.866","1.234285714285714","7.34","3.811","4023.642","0.01","16.91","30.6087","4.79504","13.85","0","SATNPRO1963","21.288","0.29816","5"],
    [39626,"HCEP03730564","2024-11-14 01:45:00","11.8899","3.5383","27.136","1.214285714285714","7.35","4.027","3639.017","0.02","55.91","30.6138","4.79576","13.63","0","SATNPRO1963","21.274","0.29798","5"],
    [39627,"HCEP03730564","2024-11-14 02:00:00","11.8882","3.53683","27.22","1.204285714285714","7.35","4.033","3649.666","0","1.08","30.6011","4.79399","13.52","0","SATNPRO1963","21.094","0.29544","5"],
    [39628,"HCEP03730564","2024-11-14 02:15:00","11.888","3.53649","27.485","1.21","7.34","3.788","4120.791","0.02","19.19","30.5978","4.79355","13.58","0","SATNPRO1963","21.226","0.29736","5"],
    [39629,"HCEP03730564","2024-11-14 02:30:00","11.8875","3.53589","27.562","1.207142857142857","7.34","3.985","3781.692","0.02","59.69","30.5925","4.79281","13.55","0","SATNPRO1963","21.054","0.29492","5"],
    [39630,"HCEP03730564","2024-11-14 02:45:00","11.8872","3.53575","27.644","1.21","7.34","3.999","3745.376","0.01","2.66","30.5914","4.79266","13.59","0","SATNPRO1963","21.216","0.29716","5"],
    [39631,"HCEP03730564","2024-11-14 03:00:00","11.8859","3.53473","27.72","1.217142857142857","7.34","3.82","4140.108","0.03","52.95","30.5825","4.79143","13.67","0","SATNPRO1963","21.286","0.2981","5"],
    [39632,"HCEP03730564","2024-11-14 03:15:00","11.8869","3.53562","27.753","1.217142857142857","7.34","3.97","3658.638","0.01","43.79","30.5902","4.7925","13.66","0","SATNPRO1963","21.278","0.29806","5"],
    [39633,"HCEP03730564","2024-11-14 03:30:00","11.8873","3.53601","27.785","1.197142857142857","7.34","3.975","3694.522","0","3.07","30.5937","4.79299","13.44","0","SATNPRO1963","21.25","0.29764","5"],
    [39634,"HCEP03730564","2024-11-14 03:45:00","11.8869","3.53586","27.769","1.185714285714286","7.34","3.703","4108.797","0.02","23.24","30.5925","4.79284","13.31","0","SATNPRO1963","21.188","0.29674","5"],
    [39635,"HCEP03730564","2024-11-14 04:00:00","11.8869","3.5356","27.716","1.191428571428572","7.34","3.989","3745.479","0.02","24.64","30.59","4.79248","13.38","0","SATNPRO1963","21.21","0.2971","5"],
    [39636,"HCEP03730564","2024-11-14 04:15:00","11.888","3.53688","27.681","1.182857142857143","7.34","3.987","3729.066","0","1.08","30.6015","4.79408","13.28","0","SATNPRO1963","21.236","0.29744","5"],
    [39637,"HCEP03730564","2024-11-14 04:30:00","11.8881","3.53717","27.621","1.168571428571429","7.33","3.862","3898.331","0.02","38.34","30.6042","4.79445","13.11","0","SATNPRO1963","20.968","0.2937","5"],
    [39638,"HCEP03730564","2024-11-14 04:45:00","11.8884","3.5373","27.552","1.16","7.34","4","3566.148","0.03","37.17","30.6052","4.79459","13.03","0","SATNPRO1963","21.112000000000002","0.2957","5"],
    [39639,"HCEP03730564","2024-11-14 05:00:00","11.8854","3.53448","27.475","1.168571428571429","7.34","3.987","3561.518","0","2.66","30.5806","4.79115","13.12","0","SATNPRO1963","21.028000000000002","0.29454","5"],
    [39640,"HCEP03730564","2024-11-14 05:15:00","11.8795","3.52781","27.369","1.241428571428572","7.34","3.788","3921.304","0.01","21.56","30.5214","4.78288","13.92","0","SATNPRO1963","21.074","0.29518","5"],
    [39641,"HCEP03730564","2024-11-14 05:30:00","11.8768","3.52541","27.265","1.291428571428572","7.33","3.982","3308.935","0.03","15.46","30.5006","4.77997","14.48","0","SATNPRO1963","21.082","0.29532","5"],
    [39642,"HCEP03730564","2024-11-14 05:45:00","11.8727","3.52131","27.156","1.328571428571429","7.35","3.991","3333.125","0.01","2.43","30.4648","4.77497","14.9","0","SATNPRO1963","21.298000000000002","0.29832","5"],
    [39643,"HCEP03730564","2024-11-14 06:00:00","11.8656","3.51477","27.029","1.431428571428572","7.34","3.7","3918.586","0.02","20.61","30.4077","4.767","16.04","0","SATNPRO1963","21.720000000000002","0.30426","5"],
    [39644,"HCEP03730564","2024-11-14 06:15:00","11.8633","3.51392","26.937","1.568571428571429","7.35","3.942","3386.726","0.03","36.81","30.4015","4.76615","17.57","0","SATNPRO1963","21.712","0.30414","5"],
    [39645,"HCEP03730564","2024-11-14 06:30:00","11.867","3.51681","26.856","1.612857142857143","7.36","3.96","3394.407","0.01","0","30.4263","4.76959","18.07","0","SATNPRO1963","21.808","0.30544","5"],
    [39646,"HCEP03730564","2024-11-14 06:45:00","11.8628","3.51573","26.792","1.73","7.36","3.702","3951.354","0.02","45.51","30.4193","4.76867","19.38","0","SATNPRO1963","22.306","0.31242","5"],
    [39647,"HCEP03730564","2024-11-14 07:00:00","11.8678","3.51803","26.714","1.78","7.37","3.949","3359.011","0.02","20.95","30.4374","4.77114","19.95","0","SATNPRO1963","22.182000000000002","0.31072","5"],
    [39648,"HCEP03730564","2024-11-14 07:15:00","11.8698","3.51946","26.657","1.882857142857143","7.37","3.956","3366.575","0.01","2.66","30.4495","4.77282","21.11","0","SATNPRO1963","22.798000000000002","0.31932","5"],
    [39649,"HCEP03730564","2024-11-14 07:30:00","11.8672","3.51918","26.572","2.022857142857143","7.38","3.675","3900.749","0.02","18.92","30.449","4.77278","22.67","0","SATNPRO1963","23.326","0.32672","5"],
    [39650,"HCEP03730564","2024-11-14 07:45:00","11.8664","3.52042","26.479","2.164285714285714","7.39","3.975","3384.651","0.02","17.86","30.4615","4.77456","24.26","0","SATNPRO1963","23.650000000000002","0.33128","5"],
    [39651,"HCEP03730564","2024-11-14 08:00:00","11.8667","3.52196","26.401","2.282857142857143","7.4","3.979","3392.381","0","2.87","30.4762","4.77662","25.59","0","SATNPRO1963","23.962","0.33564","5"],
    [39652,"HCEP03730564","2024-11-14 08:15:00","11.8702","3.52442","26.324","2.288571428571429","7.4","3.698","3969.65","0.02","15.07","30.497","4.7795","25.66","0","SATNPRO1963","23.904","0.3348","5"],
    [39653,"HCEP03730564","2024-11-14 08:30:00","11.8778","3.52865","26.261","2.164285714285714","7.4","3.962","3548.274","0.01","23.67","30.5313","4.78424","24.28","0","SATNPRO1963","23.858","0.33416","5"],
    [39654,"HCEP03730564","2024-11-14 08:45:00","11.8802","3.53114","26.214","2.12","7.4","3.968","3552.156","0","2.43","30.5533","4.78731","23.79","0","SATNPRO1963","24.003999999999998","0.33624","5"],
    [39655,"HCEP03730564","2024-11-14 09:00:00","11.8797","3.53263","26.175","2.198571428571428","7.4","3.717","4129.921","0.02","22.47","30.568","4.78939","24.67","0","SATNPRO1963","23.878","0.33442","5"],
    [39656,"HCEP03730564","2024-11-14 09:15:00","11.8784","3.53277","26.181","2.225714285714286","7.41","3.964","3558.191","0.01","18.98","30.5705","4.78975","24.98","0","SATNPRO1963","24.086","0.33738","5"],
    [39657,"HCEP03730564","2024-11-14 09:30:00","11.8791","3.53303","26.222","2.244285714285714","7.41","3.977","3572.656","0","2.17","30.5724","4.79002","25.18","0","SATNPRO1963","24.314","0.34054","5"],
    [39658,"HCEP03730564","2024-11-14 09:45:00","11.8786","3.53233","26.274","2.197142857142857","7.41","3.824","3867.224","0.03","39.73","30.5661","4.78914","24.65","0","SATNPRO1963","24.104","0.3376","5"],
    [39659,"HCEP03730564","2024-11-14 10:00:00","11.8767","3.53168","26.306","2.198571428571428","7.41","3.921","3307.732","0.03","25.63","30.5614","4.7885","24.66","0","SATNPRO1963","24.086","0.33738","5"],
    [39660,"HCEP03730564","2024-11-14 10:15:00","11.8747","3.53124","26.408","2.228571428571429","7.41","3.931","3314.222","0","0","30.5587","4.78816","25","0","SATNPRO1963","24.464","0.34268","5"],
    [39661,"HCEP03730564","2024-11-14 10:30:00","11.8704","3.5306","26.518","2.311428571428572","7.42","3.638","3867.952","0.03","16.98","30.5561","4.78785","25.93","0","SATNPRO1963","23.986","0.33596","5"],
    [39662,"HCEP03730564","2024-11-14 10:45:00","11.8674","3.53018","26.691","2.432857142857143","7.42","3.907","3317.335","0.01","18.41","30.5544","4.78767","27.3","0","SATNPRO1963","24.464","0.34268","5"],
    [39663,"HCEP03730564","2024-11-14 11:00:00","11.8637","3.53048","26.777","2.561428571428571","7.43","3.93","3321.833","0","3.07","30.5603","4.78856","28.73","0","SATNPRO1963","24.722","0.34628","5"],
    [39664,"HCEP03730564","2024-11-14 11:15:00","11.8614","3.53221","26.879","2.734285714285714","7.44","3.61","3827.268","0.03","20.35","30.5787","4.7912","30.66","0","SATNPRO1963","24.764","0.34688","5"],
    [39665,"HCEP03730564","2024-11-14 11:30:00","11.86","3.53234","27.002","2.874285714285715","7.45","3.868","3257.324","0.02","10.18","30.5812","4.79157","32.24","0","SATNPRO1963","24.744","0.34658","5"],
    [39666,"HCEP03730564","2024-11-14 11:45:00","11.8592","3.53159","27.199","2.931428571428572","7.46","3.884","3263.509","0","2.43","30.5744","4.79064","32.87","0","SATNPRO1963","24.69","0.34582","5"],
    [39667,"HCEP03730564","2024-11-14 12:00:00","11.8623","3.53296","27.353","2.91","7.46","3.622","3798.765","0.02","5.31","30.5851","4.79211","32.64","0","SATNPRO1963","24.272","0.33996","5"],
    [39668,"HCEP03730564","2024-11-14 12:15:00","11.8628","3.53459","27.466","2.885714285714286","7.46","3.948","3276.366","0.01","19.89","30.6003","4.79425","32.37","0","SATNPRO1963","24.602","0.34458","5"],
    [39669,"HCEP03730564","2024-11-14 12:30:00","11.8637","3.5347","27.615","2.911428571428571","7.46","3.963","3294.457","0.01","1.08","30.6005","4.79428","32.67","0","SATNPRO1963","24.538","0.3437","5"],
    [39670,"HCEP03730564","2024-11-14 12:45:00","11.8675","3.53457","27.748","2.838571428571429","7.46","3.743","3767.44","0.02","21.56","30.5961","4.79361","31.85","0","SATNPRO1963","24.302","0.34038","5"],
    [39671,"HCEP03730564","2024-11-14 13:00:00","11.8765","3.53694","27.854","2.57","7.45","3.932","3236.081","0.02","30.99","30.6115","4.79566","28.84","0","SATNPRO1963","23.875999999999998","0.33446","5"],
    [39672,"HCEP03730564","2024-11-14 13:15:00","11.8729","3.53782","27.982","2.43","7.44","3.948","3269.159","0.01","2.43","30.6228","4.79732","27.27","0","SATNPRO1963","24.22","0.33926","5"],
    [39673,"HCEP03730564","2024-11-14 13:30:00","11.8696","3.53805","28.094","2.662857142857143","7.45","3.598","3967.205","0.02","27.98","30.6277","4.79805","29.88","0","SATNPRO1963","24.272","0.34","5"],
    [39674,"HCEP03730564","2024-11-14 13:45:00","11.8687","3.53796","28.216","2.757142857142857","7.45","3.852","3323.582","0.02","34.8","30.6275","4.79805","30.93","0","SATNPRO1963","24.378","0.34142","5"],
    [39675,"HCEP03730564","2024-11-14 14:00:00","11.8684","3.53779","28.288","2.79","7.46","3.862","3327.892","0.01","3.76","30.6261","4.79787","31.31","0","SATNPRO1963","24.346","0.34096","5"],
    [39676,"HCEP03730564","2024-11-14 14:15:00","11.8682","3.53755","28.358","2.788571428571429","7.46","3.65","3813.979","0.02","18.67","30.6239","4.79756","31.3","0","SATNPRO1963","24.466","0.34268","5"],
    [39677,"HCEP03730564","2024-11-14 14:30:00","11.8696","3.53749","28.408","2.745714285714286","7.46","3.829","3331.371","0.02","16.63","30.6222","4.7973","30.81","0","SATNPRO1963","24.348","0.34106","5"],
    [39678,"HCEP03730564","2024-11-14 14:45:00","11.8727","3.53732","28.457","2.66","7.46","3.841","3332.933","0","2.66","30.6179","4.79666","29.86","0","SATNPRO1963","24.15","0.33826","5"],
    [39679,"HCEP03730564","2024-11-14 15:00:00","11.8735","3.537","28.448","2.535714285714286","7.45","3.585","3770.524","0.03","24.74","30.6143","4.79613","28.45","0","SATNPRO1963","23.86","0.33418","5"],
    [39680,"HCEP03730564","2024-11-14 15:15:00","11.8746","3.53662","28.454","2.442857142857143","7.44","3.88","3163.127","0.02","11.06","30.6097","4.79547","27.41","0","SATNPRO1963","23.892","0.33468","5"],
    [39681,"HCEP03730564","2024-11-14 15:30:00","11.8756","3.53621","28.402","2.365714285714286","7.44","3.877","3165.18","0","0","30.6049","4.79478","26.55","0","SATNPRO1963","23.976","0.3358","5"],
    [39682,"HCEP03730564","2024-11-14 15:45:00","11.8763","3.53577","28.336","2.302857142857143","7.43","3.643","3736.803","0.02","25.35","30.6001","4.79409","25.85","0","SATNPRO1963","23.664","0.33146","5"],
    [39683,"HCEP03730564","2024-11-14 16:00:00","11.8767","3.53535","28.228","2.254285714285714","7.42","3.821","3329.948","0.03","19.44","30.5959","4.79348","25.3","0","SATNPRO1963","23.622","0.33088","5"],
    [39684,"HCEP03730564","2024-11-14 16:15:00","11.8775","3.53501","28.096","2.201428571428572","7.42","3.836","3348.866","0.01","2.43","30.592","4.79291","24.71","0","SATNPRO1963","23.412","0.32794","5"],
    [39685,"HCEP03730564","2024-11-14 16:30:00","11.8777","3.53516","27.958","2.17","7.41","3.674","3651.893","0.02","26.84","30.5933","4.79308","24.35","0","SATNPRO1963","23.558","0.32998","5"],
    [39686,"HCEP03730564","2024-11-14 16:45:00","11.878","3.53513","27.793","2.144285714285714","7.41","3.833","3295.454","0.02","47.85","30.5929","4.79301","24.06","0","SATNPRO1963","23.462","0.32864","5"],
    [39687,"HCEP03730564","2024-11-14 17:00:00","11.8785","3.53505","27.605","2.095714285714286","7.41","3.875","3309.728","0.01","2.43","30.5917","4.79283","23.52","0","SATNPRO1963","23.364","0.3272","5"],
    [39688,"HCEP03730564","2024-11-14 17:15:00","11.8789","3.53483","27.393","2.045714285714286","7.41","3.645","3747.392","0.02","23.69","30.5894","4.79249","22.96","0","SATNPRO1963","23.226","0.32532","5"],
    [39689,"HCEP03730564","2024-11-14 17:30:00","11.8793","3.53471","27.196","2.005714285714286","7.41","3.88","3197.5","0.01","19.13","30.5879","4.79226","22.5","0","SATNPRO1963","23.134","0.32404","5"],
    [39690,"HCEP03730564","2024-11-14 17:45:00","11.8792","3.53466","26.975","1.974285714285714","7.41","3.909","3228.137","0.01","2.66","30.5876","4.79221","22.16","0","SATNPRO1963","23.195999999999998","0.32494","5"],
    [39691,"HCEP03730564","2024-11-14 18:00:00","11.8793","3.53452","26.751","1.945714285714286","7.4","3.845","3714.821","0.02","45.62","30.5863","4.79201","21.83","0","SATNPRO1963","23.108","0.32366","5"],
    [39692,"HCEP03730564","2024-11-14 18:15:00","11.8791","3.53406","26.517","1.908571428571429","7.4","3.911","3227.8","0.02","29.01","30.5821","4.79141","21.42","0","SATNPRO1963","22.896","0.32072","5"],
    [39693,"HCEP03730564","2024-11-14 18:30:00","11.8792","3.53335","26.281","1.852857142857143","7.4","3.922","3243.364","0.01","1.88","30.5753","4.79043","20.8","0","SATNPRO1963","22.814","0.31958","5"],
    [39694,"HCEP03730564","2024-11-14 18:45:00","11.8778","3.53323","26.04","1.822857142857143","7.39","3.706","3824.128","0.03","28.5","30.5755","4.79046","20.45","0","SATNPRO1963","22.458","0.31454","5"],
    [39695,"HCEP03730564","2024-11-14 19:00:00","11.8751","3.53155","25.79","1.811428571428571","7.39","3.91","3332.484","0.03","34.55","30.5616","4.78853","20.32","0","SATNPRO1963","22.392","0.31364","5"],
    [39696,"HCEP03730564","2024-11-14 19:15:00","11.8755","3.53131","25.539","1.797142857142857","7.39","3.939","3354.715","0.01","1.53","30.5591","4.78815","20.15","0","SATNPRO1963","22.368","0.3133","5"],
    [39697,"HCEP03730564","2024-11-14 19:30:00","11.8752","3.53168","25.287","1.782857142857143","7.38","3.694","3852.905","0.03","23.17","30.563","4.78869","20","0","SATNPRO1963","22.312","0.31254","5"],
    [39698,"HCEP03730564","2024-11-14 19:45:00","11.8743","3.53356","25.057","1.811428571428571","7.38","3.915","3296.069","0.03","29.39","30.5819","4.79136","20.32","0","SATNPRO1963","22.53","0.31556","5"],
    [39699,"HCEP03730564","2024-11-14 20:00:00","11.8726","3.53258","24.841","1.892857142857143","7.39","3.94","3309.408","0","1.88","30.574","4.79025","21.24","0","SATNPRO1963","22.624","0.31688","5"],
    [39700,"HCEP03730564","2024-11-14 20:15:00","11.8713","3.53215","24.656","1.938571428571429","7.39","3.705","3819.332","0.04","36.11","30.571","4.78984","21.75","0","SATNPRO1963","22.79","0.31926","5"],
    [39701,"HCEP03730564","2024-11-14 20:30:00","11.8708","3.53308","24.491","2.014285714285714","7.39","3.883","3322.112","0.02","30.72","30.5804","4.79116","22.61","0","SATNPRO1963","22.75","0.31866","5"],
    [39702,"HCEP03730564","2024-11-14 20:45:00","11.8692","3.53622","24.355","2.218571428571428","7.4","3.897","3339.773","0","0","30.612","4.79564","24.9","0","SATNPRO1963","23.524","0.32952","5"],
    [39703,"HCEP03730564","2024-11-14 21:00:00","11.8695","3.53636","24.251","2.338571428571428","7.41","3.668","3821.71","0.03","27.04","30.613","4.79578","26.23","0","SATNPRO1963","23.274","0.326","5"],
    [39704,"HCEP03730564","2024-11-14 21:15:00","11.8696","3.53646","24.164","2.374285714285714","7.42","3.869","3251.29","0.03","28","30.6139","4.79589","26.65","0","SATNPRO1963","23.276","0.32604","5"],
    [39705,"HCEP03730564","2024-11-14 21:30:00","11.8762","3.53427","24.102","2.171428571428572","7.41","3.888","3286.113","0","0","30.5875","4.79207","24.36","0","SATNPRO1963","23.142","0.32414","5"],
    [39706,"HCEP03730564","2024-11-14 21:45:00","11.8732","3.53575","24.068","2.097142857142857","7.4","3.63","3770.783","0.02","20.24","30.6041","4.79446","23.53","0","SATNPRO1963","23.124","0.3239","5"],
    [39707,"HCEP03730564","2024-11-14 22:00:00","11.8736","3.53578","24.097","2.165714285714286","7.41","3.924","3269.95","0.02","26.17","30.6042","4.79447","24.3","0","SATNPRO1963","23.23","0.32536","5"],
    [39708,"HCEP03730564","2024-11-14 22:15:00","11.8731","3.5357","24.142","2.194285714285714","7.41","3.948","3276.89","0.01","0","30.6037","4.79441","24.63","0","SATNPRO1963","23.496","0.32908","5"],
    [39709,"HCEP03730564","2024-11-14 22:30:00","11.8724","3.53527","24.247","2.214285714285714","7.41","3.688","3746.775","0.02","6.04","30.6002","4.79393","24.84","0","SATNPRO1963","23.294","0.32622","5"],
    [39710,"HCEP03730564","2024-11-14 22:45:00","11.8435","3.52221","24.337","2.37","7.42","3.893","3231.819","0.01","16.91","30.4984","4.77996","26.56","0","SATNPRO1963","23.608","0.33064","5"],
    [39711,"HCEP03730564","2024-11-14 23:00:00","11.8265","3.51181","24.495","2.774285714285714","7.43","3.902","3243.786","0","1.88","30.4123","4.76806","31.06","0","SATNPRO1963","24.47","0.34274","5"],
    [39712,"HCEP03730564","2024-11-14 23:15:00","11.8232","3.50933","24.775","3.091428571428572","7.45","3.649","3818.851","0.03","21.75","30.391","4.76511","34.61","0","SATNPRO1963","24.306","0.34042","5"],
    [39713,"HCEP03730564","2024-11-14 23:30:00","11.8377","3.51765","24.806","2.854285714285714","7.46","3.901","3379.137","0.01","42.02","30.4591","4.77452","31.98","0","SATNPRO1963","23.766000000000002","0.33288","5"],
    [39714,"HCEP03730564","2024-11-14 23:45:00","11.8352","3.51407","24.994","2.915714285714286","7.46","3.925","3405.362","0","2.43","30.4266","4.76998","32.65","0","SATNPRO1963","23.732","0.33242","5"],
    [39715,"HCEP03730564","2024-11-15 00:00:00","11.8446","3.51872","25.188","2.757142857142857","7.46","3.691","3866.496","0.02","29.01","30.4636","4.77509","30.89","0","SATNPRO1963","23.642","0.33112","5"],
    [39716,"HCEP03730564","2024-11-15 00:15:00","11.8539","3.52025","25.303","2.441428571428572","7.44","3.849","3383.276","0.03","39.49","30.4706","4.77596","27.36","0","SATNPRO1963","23.128","0.32394","5"],
    [39717,"HCEP03730564","2024-11-15 00:30:00","11.8645","3.52644","25.451","2.138571428571429","7.42","3.875","3394.385","0","0","30.5214","4.78298","23.99","0","SATNPRO1963","22.822","0.31968","5"],
    [39718,"HCEP03730564","2024-11-15 00:45:00","11.864","3.52201","25.64","1.997142857142857","7.4","3.698","3758.431","0.02","23.94","30.4791","4.77703","22.38","0","SATNPRO1963","23.036","0.32268","5"],
    [39719,"HCEP03730564","2024-11-15 01:00:00","11.8634","3.52196","25.91","1.962857142857143","7.38","3.911","3207","0.01","13.85","30.4791","4.77704","22","0","SATNPRO1963","22.908","0.32082","5"],
    [39720,"HCEP03730564","2024-11-15 01:15:00","11.8628","3.52123","26.137","1.958571428571429","7.38","3.926","3228.01","0","1.53","30.4724","4.77613","21.95","0","SATNPRO1963","22.913999999999998","0.32096","5"],
    [39721,"HCEP03730564","2024-11-15 01:30:00","11.8598","3.51897","26.321","1.97","7.38","3.737","3734.888","0.03","41.68","30.4531","4.77345","22.08","0","SATNPRO1963","22.906","0.32086","5"],
    [39722,"HCEP03730564","2024-11-15 01:45:00","11.8588","3.51815","26.648","1.98","7.38","3.914","3172.138","0.02","15.07","30.4458","4.77246","22.19","0","SATNPRO1963","22.842","0.31996","5"],
    [39723,"HCEP03730564","2024-11-15 02:00:00","11.8591","3.51812","26.877","1.967142857142857","7.38","3.925","3168.848","0.01","0","30.4453","4.77239","22.05","0","SATNPRO1963","22.578","0.31626","5"],
    [39724,"HCEP03730564","2024-11-15 02:15:00","11.8586","3.5179","27.084","1.96","7.38","3.635","3680.669","0.03","12.7","30.4434","4.77214","21.97","0","SATNPRO1963","23.01","0.3223","5"],
    [39725,"HCEP03730564","2024-11-15 02:30:00","11.8595","3.51869","27.271","1.948571428571429","7.38","3.888","3069.851","0.02","13.4","30.4503","4.77311","21.84","0","SATNPRO1963","22.742","0.31854","5"],
    [39726,"HCEP03730564","2024-11-15 02:45:00","11.8619","3.52072","27.464","1.878571428571429","7.38","3.901","3074.293","0","2.17","30.4678","4.77556","21.06","0","SATNPRO1963","22.064","0.30906","5"],
    [39727,"HCEP03730564","2024-11-15 03:00:00","11.8634","3.52239","27.645","1.77","7.37","3.646","3644.455","0.03","6.33","30.4825","4.77762","19.83","0","SATNPRO1963","21.862","0.30622","5"],
    [39728,"HCEP03730564","2024-11-15 03:15:00","11.8653","3.52431","27.764","1.722857142857143","7.37","3.86","3036.328","0.02","15.51","30.4993","4.77998","19.31","0","SATNPRO1963","21.974","0.30778","5"],
    [39729,"HCEP03730564","2024-11-15 03:30:00","11.8678","3.52699","27.87","1.738571428571429","7.37","3.878","3043.458","0","0.77","30.5229","4.78329","19.5","0","SATNPRO1963","22.212","0.3111","5"],
    [39730,"HCEP03730564","2024-11-15 03:45:00","11.8682","3.52783","27.923","1.784285714285714","7.37","3.569","3598.069","0.03","14.1","30.5307","4.78438","20.01","0","SATNPRO1963","22.352","0.31308","5"],
    [39731,"HCEP03730564","2024-11-15 04:00:00","11.8677","3.52741","27.935","1.824285714285714","7.37","3.872","2995.353","0.02","14.45","30.5271","4.78388","20.46","0","SATNPRO1963","22.516","0.31542","5"],
    [39732,"HCEP03730564","2024-11-15 04:15:00","11.8664","3.5262","27.938","1.834285714285714","7.37","3.879","3004.465","0.01","2.43","30.5165","4.7824","20.57","0","SATNPRO1963","22.29","0.31222","5"],
    [39733,"HCEP03730564","2024-11-15 04:30:00","11.8658","3.52558","27.946","1.831428571428571","7.36","3.587","3617.569","0.03","19.13","30.5111","4.78165","20.54","0","SATNPRO1963","22.323999999999998","0.31266","5"],
    [39734,"HCEP03730564","2024-11-15 04:45:00","11.8647","3.52436","27.943","1.82","7.36","3.883","2981.141","0.03","22.92","30.5002","4.78012","20.4","0","SATNPRO1963","22.162","0.31044","5"],
    [39735,"HCEP03730564","2024-11-15 05:00:00","11.8644","3.52437","27.916","1.805714285714286","7.36","3.895","2979.117","0","4.67","30.5006","4.78018","20.24","0","SATNPRO1963","22.178","0.31066","5"],
    [39736,"HCEP03730564","2024-11-15 05:15:00","11.8625","3.52225","27.895","1.804285714285714","7.36","3.604","3562.595","0.03","17.79","30.4818","4.77755","20.23","0","SATNPRO1963","22.224","0.31128","5"],
    [39737,"HCEP03730564","2024-11-15 05:30:00","11.8628","3.52223","27.859","1.808571428571429","7.36","3.871","2964.588","0.02","12.65","30.4814","4.77749","20.28","0","SATNPRO1963","22.166","0.31048","5"],
    [39738,"HCEP03730564","2024-11-15 05:45:00","11.8668","3.5279","27.784","1.804285714285714","7.37","3.885","2971.255","0.01","2.17","30.5325","4.78465","20.23","0","SATNPRO1963","21.962","0.30766","5"],
    [39739,"HCEP03730564","2024-11-15 06:00:00","11.8676","3.52826","27.71","1.81","7.37","3.588","3478.658","0.02","18.38","30.5354","4.78505","20.3","0","SATNPRO1963","22.176","0.31064","5"],
    [39740,"HCEP03730564","2024-11-15 06:15:00","11.8648","3.52645","27.631","1.848571428571429","7.37","3.866","2898.653","0.03","9.49","30.5203","4.78295","20.73","0","SATNPRO1963","22.692","0.31786","5"],
    [39741,"HCEP03730564","2024-11-15 06:30:00","11.8619","3.52515","27.551","1.921428571428572","7.38","3.876","2903.074","0.01","2.17","30.5103","4.78157","21.54","0","SATNPRO1963","22.624","0.31692","5"],
    [39742,"HCEP03730564","2024-11-15 06:45:00","11.8599","3.52463","27.407","2.018571428571429","7.38","3.61","3445.733","0.04","10","30.507","4.78112","22.64","0","SATNPRO1963","22.752","0.31868","5"],
    [39743,"HCEP03730564","2024-11-15 07:00:00","11.8625","3.52556","27.287","2.071428571428572","7.38","3.877","2920.126","0.02","21.89","30.5138","4.78204","23.22","0","SATNPRO1963","22.874","0.32038","5"],
    [39744,"HCEP03730564","2024-11-15 07:15:00","11.8634","3.52726","27.175","2.084285714285714","7.39","3.886","2927.757","0.01","2.03","30.5295","4.78423","23.37","0","SATNPRO1963","22.66","0.3174","5"],
    [39745,"HCEP03730564","2024-11-15 07:30:00","11.8601","3.5267","27.082","2.221428571428572","7.39","3.645","3475.006","0.03","10.96","30.5268","4.7839","24.91","0","SATNPRO1963","23.344","0.32694","5"],
    [39746,"HCEP03730564","2024-11-15 07:45:00","11.8595","3.52752","27.034","2.281428571428572","7.4","3.873","3013.697","0.03","17.54","30.5352","4.78509","25.59","0","SATNPRO1963","23.258","0.32576","5"],
    [39747,"HCEP03730564","2024-11-15 08:00:00","11.8562","3.52675","26.953","2.315714285714286","7.4","3.88","3021.181","0","1.72","30.5306","4.78449","25.97","0","SATNPRO1963","23.34","0.32698","5"],
    [39748,"HCEP03730564","2024-11-15 08:15:00","11.8588","3.52789","26.861","2.372857142857143","7.41","3.623","3569.527","0.03","20.95","30.5395","4.78569","26.6","0","SATNPRO1963","22.972","0.32178","5"],
    [39749,"HCEP03730564","2024-11-15 08:30:00","11.8629","3.52972","26.765","2.301428571428572","7.41","3.854","3099.635","0.02","24.06","30.5537","4.78764","25.81","0","SATNPRO1963","23.092","0.3234","5"],
    [39750,"HCEP03730564","2024-11-15 08:45:00","11.8631","3.53053","26.67","2.282857142857143","7.41","3.865","3106.378","0.01","1.88","30.5613","4.7887","25.6","0","SATNPRO1963","23.178","0.32462","5"],
    [39751,"HCEP03730564","2024-11-15 09:00:00","11.8643","3.53069","26.595","2.261428571428572","7.41","3.618","3656.982","0.03","20.33","30.5619","4.78877","25.37","0","SATNPRO1963","23.244","0.32558","5"],
    [39752,"HCEP03730564","2024-11-15 09:15:00","11.8645","3.5301","26.517","2.238571428571428","7.4","3.895","3110.148","0.02","12.23","30.5561","4.78794","25.1","0","SATNPRO1963","23.291999999999998","0.32626","5"],
    [39753,"HCEP03730564","2024-11-15 09:30:00","11.863","3.53084","26.452","2.264285714285714","7.41","3.901","3115.882","0","0","30.5644","4.78913","25.4","0","SATNPRO1963","23.282","0.32612","5"],
    [39754,"HCEP03730564","2024-11-15 09:45:00","11.8624","3.5311","26.41","2.338571428571428","7.41","3.641","3625.666","0.03","14.88","30.5674","4.78956","26.24","0","SATNPRO1963","23.194","0.3249","5"],
    [39755,"HCEP03730564","2024-11-15 10:00:00","11.8627","3.53152","26.394","2.364285714285714","7.41","3.889","3123.87","0.02","17.36","30.5713","4.7901","26.52","0","SATNPRO1963","23.292","0.32624","5"],
    [39756,"HCEP03730564","2024-11-15 10:15:00","11.86","3.53201","26.391","2.42","7.42","3.9","3139.892","0","1.08","30.5783","4.79112","27.14","0","SATNPRO1963","23.58","0.33028","5"],
    [39757,"HCEP03730564","2024-11-15 10:30:00","11.8567","3.5326","26.412","2.602857142857143","7.42","3.663","3629.265","0.03","13.85","30.5866","4.79235","29.19","0","SATNPRO1963","24.134","0.33808","5"],
    [39758,"HCEP03730564","2024-11-15 10:45:00","11.8535","3.53353","26.468","2.768571428571429","7.43","3.864","3052.206","0.03","21.08","30.5981","4.79402","31.05","0","SATNPRO1963","24.05","0.33686","5"],
    [39759,"HCEP03730564","2024-11-15 11:00:00","11.8586","3.53927","26.536","2.945714285714286","7.45","3.878","3068.053","0","1.08","30.6491","4.80114","33.05","0","SATNPRO1963","24.212","0.33916","5"],
    [39760,"HCEP03730564","2024-11-15 11:15:00","11.8621","3.54256","26.619","3.1","7.46","3.639","3521.257","0.03","13.29","30.6778","4.80515","34.79","0","SATNPRO1963","24.722","0.34626","5"],
    [39761,"HCEP03730564","2024-11-15 11:30:00","11.8607","3.54228","26.746","3.114285714285715","7.47","3.877","2994.509","0.01","17.66","30.6762","4.80495","34.96","0","SATNPRO1963","24.222","0.3393","5"],
    [39762,"HCEP03730564","2024-11-15 11:45:00","11.8634","3.54352","26.86","3.13","7.47","3.887","3000.934","0.01","1.08","30.6859","4.80629","35.13","0","SATNPRO1963","24.628","0.34494","5"],
    [39763,"HCEP03730564","2024-11-15 12:00:00","11.8641","3.54339","26.975","3.198571428571428","7.47","3.609","3496.784","0.03","12.23","30.684","4.80602","35.9","0","SATNPRO1963","24.632","0.34502","5"],
    [39764,"HCEP03730564","2024-11-15 12:15:00","11.8635","3.54329","27.095","3.16","7.47","3.855","3027.804","0.02","16.51","30.6835","4.80596","35.47","0","SATNPRO1963","24.592","0.34448","5"],
    [39765,"HCEP03730564","2024-11-15 12:30:00","11.8637","3.54307","27.227","3.141428571428572","7.47","3.869","3027.558","0.01","2.17","30.6811","4.80563","35.26","0","SATNPRO1963","24.538","0.34368","5"],
    [39766,"HCEP03730564","2024-11-15 12:45:00","11.8649","3.54305","27.33","3.144285714285715","7.48","3.584","3581.052","0.04","20.33","30.68","4.80546","35.29","0","SATNPRO1963","24.424","0.34206","5"],
    [39767,"HCEP03730564","2024-11-15 13:00:00","11.8656","3.54291","27.456","3.15","7.48","3.835","2965.827","0.01","16.22","30.678","4.80518","35.35","0","SATNPRO1963","24.53","0.34356","5"],
    [39768,"HCEP03730564","2024-11-15 13:15:00","11.8681","3.54332","27.623","3.134285714285714","7.48","3.841","2968.691","0","1.33","30.6797","4.8054","35.18","0","SATNPRO1963","24.494","0.34306","5"],
    [39769,"HCEP03730564","2024-11-15 13:30:00","11.8767","3.54495","27.738","3.147142857142857","7.48","3.544","3541.339","0.04","9.7","30.6883","4.80649","35.34","0","SATNPRO1963","24.7","0.34596","5"],
    [39770,"HCEP03730564","2024-11-15 13:45:00","11.877","3.54505","27.855","3.157142857142857","7.48","3.796","2974.64","0.02","11.76","30.689","4.80659","35.45","0","SATNPRO1963","24.93","0.34918","5"],
    [39771,"HCEP03730564","2024-11-15 14:00:00","11.8778","3.54515","27.985","3.144285714285715","7.48","3.808","2980.39","0","1.88","30.6892","4.80662","35.31","0","SATNPRO1963","24.868000000000002","0.34834","5"],
    [39772,"HCEP03730564","2024-11-15 14:15:00","11.8787","3.54509","28.099","3.117142857142857","7.49","3.532","3523.776","0.03","11.38","30.6879","4.80642","35","0","SATNPRO1963","24.696","0.34594","5"],
    [39773,"HCEP03730564","2024-11-15 14:30:00","11.8793","3.545","28.191","3.112857142857142","7.49","3.822","2934.281","0.02","8.3","30.6865","4.80623","34.96","0","SATNPRO1963","24.826","0.34776","5"],
    [39774,"HCEP03730564","2024-11-15 14:45:00","11.8793","3.54538","28.265","3.118571428571428","7.5","3.834","2935.038","0.01","1.33","30.6901","4.80674","35.03","0","SATNPRO1963","24.637999999999998","0.34508","5"],
    [39775,"HCEP03730564","2024-11-15 15:00:00","11.8793","3.54572","28.315","3.09","7.49","3.551","3432.835","0.02","12.32","30.6933","4.8072","34.7","0","SATNPRO1963","24.406","0.34188","5"],
    [39776,"HCEP03730564","2024-11-15 15:15:00","11.8795","3.5461","28.339","3.102857142857143","7.49","3.803","2863.433","0.02","14.97","30.6968","4.80769","34.85","0","SATNPRO1963","24.758","0.3468","5"],
    [39777,"HCEP03730564","2024-11-15 15:30:00","11.8791","3.54624","28.318","3.104285714285714","7.49","3.808","2862.64","0","2.17","30.6985","4.80793","34.86","0","SATNPRO1963","24.53","0.3436","5"],
    [39778,"HCEP03730564","2024-11-15 15:45:00","11.8792","3.54625","28.257","3.101428571428571","7.49","3.541","3377.304","0.03","11.93","30.6985","4.80793","34.83","0","SATNPRO1963","24.832","0.34782","5"],
    [39779,"HCEP03730564","2024-11-15 16:00:00","11.878","3.54636","28.206","3.1","7.49","3.837","2833.99","0.02","11.48","30.7006","4.80823","34.8","0","SATNPRO1963","24.578","0.34424","5"],
    [39780,"HCEP03730564","2024-11-15 16:15:00","11.876","3.5464","28.138","3.081428571428571","7.49","3.853","2845.268","0","0","30.7026","4.80854","34.61","0","SATNPRO1963","24.424","0.34214","5"],
    [39781,"HCEP03730564","2024-11-15 16:30:00","11.8743","3.54653","28.008","3.052857142857143","7.49","3.568","3365.397","0.02","6.23","30.7054","4.80895","34.28","0","SATNPRO1963","24.668","0.3455","5"],
    [39782,"HCEP03730564","2024-11-15 16:45:00","11.874","3.54674","27.906","3.048571428571428","7.48","3.835","2789.817","0.03","8.23","30.7077","4.80927","34.24","0","SATNPRO1963","24.374","0.34142","5"],
    [39783,"HCEP03730564","2024-11-15 17:00:00","11.8761","3.54742","27.862","3.078571428571428","7.49","3.849","2796.976","0","1.33","30.7126","4.80993","34.57","0","SATNPRO1963","24.63","0.34492","5"],
    [39784,"HCEP03730564","2024-11-15 17:15:00","11.874","3.54682","27.714","3.055714285714286","7.5","3.589","3357.996","0.03","5.2","30.7086","4.80938","34.32","0","SATNPRO1963","24.386","0.3416","5"],
    [39785,"HCEP03730564","2024-11-15 17:30:00","11.8705","3.54597","27.579","3.071428571428571","7.48","3.839","2869.993","0.02","13.44","30.7033","4.80869","34.49","0","SATNPRO1963","24.32","0.34066","5"],
    [39786,"HCEP03730564","2024-11-15 17:45:00","11.8694","3.54572","27.213","3.084285714285714","7.48","3.849","2882.613","0","1.33","30.7019","4.80848","34.63","0","SATNPRO1963","24.428","0.34216","5"],
    [39787,"HCEP03730564","2024-11-15 18:00:00","11.8696","3.54599","26.998","3.082857142857143","7.49","3.588","3441.542","0.03","5.74","30.7044","4.80882","34.61","0","SATNPRO1963","24.368","0.3413","5"],
    [39788,"HCEP03730564","2024-11-15 18:15:00","11.8704","3.54646","26.819","3.074285714285715","7.48","3.856","2840.099","0.02","8.4","30.7084","4.80936","34.51","0","SATNPRO1963","24.594","0.34448","5"],
    [39789,"HCEP03730564","2024-11-15 18:30:00","11.8716","3.54668","26.576","3.081428571428571","7.48","3.867","2836.68","0.01","1.88","30.7096","4.8095","34.6","0","SATNPRO1963","24.548000000000002","0.34388","5"],
    [39790,"HCEP03730564","2024-11-15 18:45:00","11.8731","3.54678","26.349","3.08","7.47","3.577","3407.158","0.03","7.44","30.7094","4.80944","34.59","0","SATNPRO1963","24.55","0.34386","5"],
    [39791,"HCEP03730564","2024-11-15 19:00:00","11.8744","3.54577","26.121","3.055714285714286","7.47","3.842","2855.23","0.02","13.79","30.6988","4.80791","34.3","0","SATNPRO1963","24.726","0.34634","5"],
    [39792,"HCEP03730564","2024-11-15 19:15:00","11.8721","3.54448","25.897","3.007142857142857","7.47","3.856","2852.424","0","2.17","30.6883","4.80645","33.75","0","SATNPRO1963","24.442","0.34236","5"],
    [39793,"HCEP03730564","2024-11-15 19:30:00","11.8684","3.54186","25.66","2.948571428571429","7.47","3.592","3407.437","0.04","19.07","30.6663","4.80339","33.1","0","SATNPRO1963","24.108","0.33766","5"],
    [39794,"HCEP03730564","2024-11-15 19:45:00","11.8622","3.53669","25.389","2.874285714285715","7.46","3.839","2915.044","0.02","16.38","30.6218","4.79718","32.25","0","SATNPRO1963","23.894000000000002","0.33466","5"],
    [39795,"HCEP03730564","2024-11-15 20:00:00","11.8605","3.53404","25.108","2.762857142857143","7.45","3.853","2916.903","0.01","1.08","30.5978","4.7938","30.99","0","SATNPRO1963","23.972","0.33576","5"],
    [39796,"HCEP03730564","2024-11-15 20:15:00","11.8619","3.53415","24.851","2.652857142857143","7.44","3.591","3462.316","0.03","12.97","30.5978","4.79378","29.76","0","SATNPRO1963","23.852","0.33404","5"],
    [39797,"HCEP03730564","2024-11-15 20:30:00","11.8618","3.53439","24.549","2.605714285714286","7.44","3.81","2905.669","0.02","15.09","30.6003","4.79411","29.23","0","SATNPRO1963","23.896","0.33468","5"],
    [39798,"HCEP03730564","2024-11-15 20:45:00","11.8618","3.53446","24.241","2.61","7.43","3.825","2917.626","0.01","6.33","30.6011","4.7942","29.28","0","SATNPRO1963","24.17","0.33852","5"],
    [39799,"HCEP03730564","2024-11-15 21:00:00","11.8618","3.53471","24.006","2.618571428571429","7.43","3.591","3432.027","0.03","7.44","30.6036","4.79454","29.37","0","SATNPRO1963","23.852","0.33408","5"],
    [39800,"HCEP03730564","2024-11-15 21:15:00","11.8618","3.53422","23.83","2.635714285714286","7.43","3.834","2884.67","0.02","10.49","30.599","4.79388","29.57","0","SATNPRO1963","24.142","0.33816","5"],
    [39801,"HCEP03730564","2024-11-15 21:30:00","11.8615","3.53378","23.836","2.615714285714286","7.43","3.839","2881.28","0","1.88","30.5951","4.79333","29.34","0","SATNPRO1963","23.843999999999998","0.334","5"],
    [39802,"HCEP03730564","2024-11-15 21:45:00","11.8614","3.53353","23.611","2.592857142857143","7.43","3.579","3433.501","0.03","8.88","30.5928","4.793","29.09","0","SATNPRO1963","23.990000000000002","0.336","5"],
    [39803,"HCEP03730564","2024-11-15 22:00:00","11.8615","3.53296","23.668","2.564285714285714","7.43","3.886","2984.526","0.02","18.99","30.5872","4.79221","28.77","0","SATNPRO1963","23.764","0.33286","5"],
    [39804,"HCEP03730564","2024-11-15 22:15:00","11.8603","3.53178","23.66","2.531428571428572","7.43","3.894","2988.262","0","1.53","30.5769","4.79077","28.4","0","SATNPRO1963","24.15","0.33826","5"],
    [39805,"HCEP03730564","2024-11-15 22:30:00","11.8589","3.53014","23.667","2.491428571428572","7.43","3.688","3602.267","0.03","19.32","30.5622","4.78872","27.94","0","SATNPRO1963","23.572","0.3302","5"],
    [39806,"HCEP03730564","2024-11-15 22:45:00","11.8581","3.52836","23.716","2.43","7.42","3.871","3133.914","0.02","22.37","30.5457","4.78641","27.25","0","SATNPRO1963","23.632","0.33104","5"],
    [39807,"HCEP03730564","2024-11-15 23:00:00","11.8574","3.5274","23.773","2.371428571428571","7.42","3.881","3126.643","0","1.08","30.537","4.7852","26.59","0","SATNPRO1963","23.072","0.32318","5"],
    [39808,"HCEP03730564","2024-11-15 23:15:00","11.8573","3.52632","23.887","2.305714285714286","7.41","3.642","3651.728","0.03","13.59","30.5267","4.78374","25.85","0","SATNPRO1963","22.974","0.32182","5"],
    [39809,"HCEP03730564","2024-11-15 23:30:00","11.8561","3.52524","24.059","2.252857142857143","7.41","3.909","3138.638","0.02","26.71","30.5173","4.78244","25.25","0","SATNPRO1963","23.11","0.32368","5"],
    [39810,"HCEP03730564","2024-11-15 23:45:00","11.8552","3.5244","24.224","2.217142857142857","7.41","3.921","3152.918","0.01","3.43","30.5098","4.78141","24.86","0","SATNPRO1963","22.778","0.31904","5"],
    [39811,"HCEP03730564","2024-11-16 00:00:00","11.8547","3.52357","24.411","2.19","7.41","3.669","3581.497","0.03","11.01","30.5022","4.78035","24.55","0","SATNPRO1963","22.906","0.32084","5"],
    [39812,"HCEP03730564","2024-11-16 00:15:00","11.8539","3.52246","24.636","2.154285714285714","7.4","3.854","3125.015","0.01","19.5","30.4921","4.77895","24.15","0","SATNPRO1963","22.398","0.31374","5"],
    [39813,"HCEP03730564","2024-11-16 00:30:00","11.8537","3.52205","24.81","2.111428571428572","7.4","3.874","3128.817","0.01","3.07","30.4883","4.77842","23.66","0","SATNPRO1963","22.436","0.31426","5"],
    [39814,"HCEP03730564","2024-11-16 00:45:00","11.8537","3.52163","25.033","2.078571428571429","7.39","3.66","3549.51","0.04","16.31","30.4841","4.77785","23.3","0","SATNPRO1963","22.42","0.31404","5"],
    [39815,"HCEP03730564","2024-11-16 01:00:00","11.8537","3.52219","25.222","2.072857142857143","7.39","3.869","3015.181","0.03","17.53","30.4894","4.77861","23.24","0","SATNPRO1963","22.49","0.31502","5"],
    [39816,"HCEP03730564","2024-11-16 01:15:00","11.8526","3.52047","25.419","2.054285714285714","7.4","3.887","3023.014","0.01","1.88","30.4738","4.77642","23.02","0","SATNPRO1963","22.342","0.31292","5"],
    [39817,"HCEP03730564","2024-11-16 01:30:00","11.8511","3.51818","25.652","1.977142857142857","7.39","3.654","3503.569","0.02","15.38","30.453","4.77352","22.15","0","SATNPRO1963","22.174","0.31056","5"],
    [39818,"HCEP03730564","2024-11-16 01:45:00","11.8503","3.51706","25.915","1.915714285714286","7.39","3.829","3099.433","0.03","37.41","30.4427","4.77209","21.47","0","SATNPRO1963","21.846","0.306","5"],
    [39819,"HCEP03730564","2024-11-16 02:00:00","11.8506","3.51731","26.186","1.885714285714286","7.39","3.856","3112.719","0","2.17","30.4447","4.77239","21.13","0","SATNPRO1963","21.756","0.3047","5"],
    [39820,"HCEP03730564","2024-11-16 02:15:00","11.8516","3.51872","26.457","1.907142857142857","7.38","3.589","3539.503","0.02","15.72","30.4573","4.77417","21.36","0","SATNPRO1963","21.951999999999998","0.30744","5"],
    [39821,"HCEP03730564","2024-11-16 02:30:00","11.8532","3.52148","26.707","1.971428571428571","7.38","3.861","3064.142","0.02","18.7","30.4824","4.77771","22.09","0","SATNPRO1963","22.221999999999998","0.31122","5"],
    [39822,"HCEP03730564","2024-11-16 02:45:00","11.8535","3.52253","26.997","2.032857142857143","7.39","3.872","3063.458","0.01","2.17","30.4923","4.77911","22.79","0","SATNPRO1963","22.422","0.31408","5"],
    [39823,"HCEP03730564","2024-11-16 03:00:00","11.8552","3.52508","27.209","2.094285714285714","7.39","3.625","3549.163","0.03","18.67","30.5152","4.78234","23.48","0","SATNPRO1963","22.714000000000002","0.31814","5"],
    [39824,"HCEP03730564","2024-11-16 03:15:00","11.8569","3.52745","27.408","2.2","7.39","3.805","3015.5","0.02","15.05","30.5365","4.78533","24.67","0","SATNPRO1963","23.276","0.326","5"],
    [39825,"HCEP03730564","2024-11-16 03:30:00","11.8581","3.52915","27.614","2.262857142857143","7.4","3.827","3022.484","0.01","2.43","30.5518","4.78749","25.38","0","SATNPRO1963","23.272000000000002","0.32594","5"],
    [39826,"HCEP03730564","2024-11-16 03:45:00","11.8578","3.52967","27.773","2.311428571428572","7.4","3.63","3458.27","0.03","33.56","30.557","4.78823","25.92","0","SATNPRO1963","23.291999999999998","0.32622","5"],
    [39827,"HCEP03730564","2024-11-16 04:00:00","11.8561","3.52878","27.995","2.391428571428572","7.41","3.829","2921.298","0.02","24.63","30.5497","4.78724","26.82","0","SATNPRO1963","23.304","0.3264","5"],
    [39828,"HCEP03730564","2024-11-16 04:15:00","11.8576","3.52697","28.159","2.585714285714286","7.42","3.842","2930.765","0","0","30.5311","4.7846","28.99","0","SATNPRO1963","23.966","0.33572","5"],
    [39829,"HCEP03730564","2024-11-16 04:30:00","11.8587","3.528","28.216","2.802857142857143","7.43","3.566","3500.463","0.03","16.09","30.54","4.78585","31.42","0","SATNPRO1963","23.636","0.33108","5"],
    [39830,"HCEP03730564","2024-11-16 04:45:00","11.8599","3.52862","27.951","2.851428571428571","7.44","3.834","2895.427","0.03","32.39","30.5451","4.78653","31.98","0","SATNPRO1963","23.992","0.33604","5"],
    [39831,"HCEP03730564","2024-11-16 05:00:00","11.8603","3.52909","27.892","2.898571428571429","7.45","3.846","2911.743","0","1.08","30.5493","4.78712","32.51","0","SATNPRO1963","23.736","0.33246","5"],
    [39832,"HCEP03730564","2024-11-16 05:15:00","11.8615","3.53034","27.876","2.882857142857143","7.46","3.623","3407.555","0.02","12.88","30.5604","4.78867","32.34","0","SATNPRO1963","23.708","0.33208","5"],
    [39833,"HCEP03730564","2024-11-16 05:30:00","11.8583","3.52892","27.925","2.915714285714286","7.46","3.845","2946.303","0.01","13.64","30.5493","4.78715","32.7","0","SATNPRO1963","24.07","0.3371","5"],
    [39834,"HCEP03730564","2024-11-16 05:45:00","11.8569","3.52914","27.984","2.837142857142857","7.45","3.855","2945.544","0","0","30.5525","4.78762","31.81","0","SATNPRO1963","23.772000000000002","0.33296","5"],
    [39835,"HCEP03730564","2024-11-16 06:00:00","11.8596","3.53154","28.023","2.674285714285714","7.44","3.635","3470.546","0.02","14.39","30.5734","4.79053","29.99","0","SATNPRO1963","23.698","0.33192","5"],
    [39836,"HCEP03730564","2024-11-16 06:15:00","11.8571","3.529","28.016","2.707142857142857","7.44","3.79","2936.802","0.03","33.82","30.551","4.7874","30.35","0","SATNPRO1963","23.698","0.33192","5"],
    [39837,"HCEP03730564","2024-11-16 06:30:00","11.8574","3.52929","28.012","2.775714285714286","7.44","3.803","2942.367","0","2.03","30.5535","4.78776","31.12","0","SATNPRO1963","23.990000000000002","0.33602","5"],
    [39838,"HCEP03730564","2024-11-16 06:45:00","11.8569","3.52764","27.985","2.824285714285714","7.44","3.547","3526.24","0.01","35.14","30.5382","4.7856","31.67","0","SATNPRO1963","23.972","0.33578","5"],
    [39839,"HCEP03730564","2024-11-16 07:00:00","11.8558","3.5267","27.896","2.827142857142857","7.44","3.796","2965.213","0.02","20.31","30.53","4.78446","31.69","0","SATNPRO1963","23.823999999999998","0.33368","5"],
    [39840,"HCEP03730564","2024-11-16 07:15:00","11.8532","3.52439","27.863","2.572857142857143","7.43","3.809","2989.681","0","0","30.5099","4.78166","28.84","0","SATNPRO1963","23.636","0.33104","5"],
    [39841,"HCEP03730564","2024-11-16 07:30:00","11.8548","3.5258","27.821","2.555714285714286","7.43","3.527","3517.072","0.02","13.29","30.5222","4.78336","28.65","0","SATNPRO1963","23.834","0.33384","5"],
    [39842,"HCEP03730564","2024-11-16 07:45:00","11.8562","3.52766","27.732","2.597142857142857","7.43","3.786","3058.681","0.01","22.33","30.5391","4.78572","29.13","0","SATNPRO1963","23.982","0.33592","5"],
    [39843,"HCEP03730564","2024-11-16 08:00:00","11.8578","3.52932","27.679","2.664285714285714","7.43","3.791","3074.088","0.01","1.72","30.5536","4.78775","29.87","0","SATNPRO1963","24.03","0.33656","5"],
    [39844,"HCEP03730564","2024-11-16 08:15:00","11.8579","3.52961","27.597","2.684285714285714","7.43","3.645","3405.46","0.03","22.26","30.5564","4.78814","30.1","0","SATNPRO1963","24.154","0.3383","5"],
    [39845,"HCEP03730564","2024-11-16 08:30:00","11.8582","3.53048","27.509","2.687142857142857","7.43","3.734","3210.551","0","28.7","30.5645","4.78927","30.13","0","SATNPRO1963","23.976","0.3358","5"],
    [39846,"HCEP03730564","2024-11-16 08:45:00","11.859","3.53122","27.42","2.688571428571429","7.43","3.736","3223.91","0.01","0","30.571","4.79017","30.16","0","SATNPRO1963","23.958000000000002","0.3356","5"],
    [39847,"HCEP03730564","2024-11-16 09:00:00","11.8596","3.53184","27.322","2.677142857142858","7.43","3.455","3714.484","0.02","24.5","30.5765","4.79094","30.03","0","SATNPRO1963","23.914","0.33496","5"],
    [39848,"HCEP03730564","2024-11-16 09:15:00","11.8603","3.53251","27.23","2.674285714285714","7.44","3.799","3109.987","0.01","14.15","30.5825","4.79176","30","0","SATNPRO1963","23.796","0.33332","5"],
    [39849,"HCEP03730564","2024-11-16 09:30:00","11.8606","3.53298","27.126","2.672857142857143","7.44","3.814","3127.057","0.01","2.17","30.5867","4.79235","29.99","0","SATNPRO1963","24.008","0.33628","5"],
    [39850,"HCEP03730564","2024-11-16 09:45:00","11.8619","3.53409","27.023","2.678571428571429","7.44","3.592","3599.741","0.02","26.88","30.5964","4.79369","30.05","0","SATNPRO1963","23.876","0.33442","5"],
    [39851,"HCEP03730564","2024-11-16 10:00:00","11.8637","3.5354","26.945","2.715714285714286","7.44","3.798","3039.801","0.01","22.69","30.6075","4.79523","30.46","0","SATNPRO1963","24.218","0.3392","5"],
    [39852,"HCEP03730564","2024-11-16 10:15:00","11.8653","3.53614","26.867","2.758571428571429","7.44","3.8","3046.504","0.01","2.3","30.6133","4.79602","30.95","0","SATNPRO1963","24.38","0.34152","5"],
    [39853,"HCEP03730564","2024-11-16 10:30:00","11.8652","3.53645","26.807","2.777142857142857","7.44","3.616","3520.549","0.04","37.79","30.6164","4.79646","31.15","0","SATNPRO1963","24.24","0.33952","5"],
    [39854,"HCEP03730564","2024-11-16 10:45:00","11.8652","3.53641","26.763","2.768571428571429","7.44","3.82","2922.582","0.02","13.11","30.6161","4.79641","31.07","0","SATNPRO1963","24.118","0.33778","5"],
    [39855,"HCEP03730564","2024-11-16 11:00:00","11.8653","3.53659","26.774","2.764285714285714","7.44","3.824","2936.122","0.01","1.08","30.6177","4.79663","31.02","0","SATNPRO1963","24.03","0.33658","5"],
    [39856,"HCEP03730564","2024-11-16 11:15:00","11.8651","3.53648","26.768","2.767142857142857","7.44","3.568","3443.573","0.02","15.34","30.6168","4.79651","31.05","0","SATNPRO1963","24.496000000000002","0.3431","5"],
    [39857,"HCEP03730564","2024-11-16 11:30:00","11.8649","3.53609","26.801","2.77","7.44","3.82","2938.293","0.01","16.77","30.6132","4.796","31.07","0","SATNPRO1963","24.194","0.3389","5"],
    [39858,"HCEP03730564","2024-11-16 11:45:00","11.8647","3.53604","26.861","2.757142857142857","7.45","3.831","2945.101","0.01","2.3","30.6129","4.79597","30.93","0","SATNPRO1963","24.276","0.34004","5"],
    [39859,"HCEP03730564","2024-11-16 12:00:00","11.8637","3.53544","26.916","2.767142857142857","7.44","3.604","3471.345","0.01","10.96","30.6079","4.79529","31.04","0","SATNPRO1963","24.12","0.33786","5"],
    [39860,"HCEP03730564","2024-11-16 12:15:00","11.8631","3.53503","27.017","2.735714285714286","7.44","3.824","2920.09","0.01","7.71","30.6044","4.7948","30.69","0","SATNPRO1963","24.136","0.33808","5"],
    [39861,"HCEP03730564","2024-11-16 12:30:00","11.8626","3.53491","27.086","2.697142857142857","7.44","3.827","2912.802","0.01","2.43","30.6037","4.79471","30.26","0","SATNPRO1963","23.836000000000002","0.33384","5"],
    [39862,"HCEP03730564","2024-11-16 12:45:00","11.8632","3.53491","27.205","2.68","7.44","3.607","3294.333","0.03","7.2","30.6031","4.79463","30.07","0","SATNPRO1963","23.844","0.33396","5"],
    [39863,"HCEP03730564","2024-11-16 13:00:00","11.860900000000001","3.5334","27.343","2.667142857142857","7.44","3.753","2905.161","0.02","10.77","30.5904","4.79288","29.92","0","SATNPRO1963","24.054","0.3369","5"],
    [39864,"HCEP03730564","2024-11-16 13:15:00","11.8603","3.53288","27.416","2.661428571428572","7.44","3.77","2891.071","0.01","0","30.5858","4.79225","29.85","0","SATNPRO1963","23.970000000000002","0.33572","5"],
    [39865,"HCEP03730564","2024-11-16 13:30:00","11.8599","3.53236","27.56","2.687142857142857","7.43","3.61","3240.461","0.01","8.61","30.5812","4.7916","30.15","0","SATNPRO1963","23.876","0.33444","5"],
    [39866,"HCEP03730564","2024-11-16 13:45:00","11.8623","3.53437","27.63","2.677142857142858","7.44","3.743","2767.966","0.01","19.75","30.5985","4.79401","30.04","0","SATNPRO1963","24.056","0.33692","5"],
    [39867,"HCEP03730564","2024-11-16 14:00:00","11.8614","3.53361","27.795","2.678571428571429","7.44","3.755","2775.3","0","1.88","30.5919","4.7931","30.05","0","SATNPRO1963","23.89","0.3346","5"],
    [39868,"HCEP03730564","2024-11-16 14:15:00","11.8646","3.53621","27.863","2.741428571428572","7.44","3.646","3320.873","0.02","24.52","30.6142","4.79622","30.76","0","SATNPRO1963","24.186","0.33878","5"],
    [39869,"HCEP03730564","2024-11-16 14:30:00","11.8643","3.5357","27.954","2.738571428571429","7.45","3.796","2943.4","0.01","9.55","30.6095","4.79556","30.73","0","SATNPRO1963","24.266","0.33986","5"],
    [39870,"HCEP03730564","2024-11-16 14:45:00","11.864","3.53591","27.988","2.74","7.45","3.801","2935.499","0.01","1.08","30.6117","4.79588","30.74","0","SATNPRO1963","24.16","0.33842","5"],
    [39871,"HCEP03730564","2024-11-16 15:00:00","11.8633","3.5351","28.036","2.754285714285714","7.45","3.659","3132.93","0.01","11.06","30.6046","4.79488","30.89","0","SATNPRO1963","24.244","0.33956","5"],
    [39872,"HCEP03730564","2024-11-16 15:15:00","11.8634","3.5344","28.069","2.717142857142857","7.45","3.83","2888.837","0.02","13.68","30.5977","4.79391","30.48","0","SATNPRO1963","24.37","0.34132","5"],
    [39873,"HCEP03730564","2024-11-16 15:30:00","11.8636","3.53418","28.145","2.722857142857143","7.47","3.832","2891.729","0.01","2.17","30.5954","4.79359","30.54","0","SATNPRO1963","24.404","0.3418","5"],
    [39874,"HCEP03730564","2024-11-16 15:45:00","11.8631","3.53342","28.145","2.731428571428571","7.45","3.608","3242.149","0.01","10.96","30.5885","4.79263","30.65","0","SATNPRO1963","24.258","0.3398","5"],
    [39875,"HCEP03730564","2024-11-16 16:00:00","11.8624","3.53288","28.163","2.707142857142857","7.45","3.797","2814.875","0.01","10.18","30.5839","4.79199","30.37","0","SATNPRO1963","23.976","0.33582","5"],
    [39876,"HCEP03730564","2024-11-16 16:15:00","11.8617","3.53263","28.116","2.677142857142858","7.45","3.799","2822.849","0","2.54","30.5821","4.79174","30.03","0","SATNPRO1963","24.028","0.33654","5"],
    [39877,"HCEP03730564","2024-11-16 16:30:00","11.8617","3.53251","28.115","2.658571428571429","7.45","3.839","3726.151","0.01","14.19","30.5809","4.79157","29.82","0","SATNPRO1963","24.03","0.33656","5"],
    [39878,"HCEP03730564","2024-11-16 16:45:00","11.8626","3.53315","27.957","2.657142857142858","7.45","3.911","3376.737","0.01","5.31","30.5864","4.79232","29.81","0","SATNPRO1963","23.95","0.33548","5"],
    [39879,"HCEP03730564","2024-11-16 17:00:00","11.859","3.53026","27.911","2.61","7.45","3.912","3370.978","0.01","1.08","30.5617","4.78888","29.27","0","SATNPRO1963","23.528","0.32954","5"],
    [39880,"HCEP03730564","2024-11-16 17:15:00","11.8564","3.52761","27.934","2.528571428571428","7.44","3.823","3615.374","0.01","7.52","30.5383","4.78562","28.35","0","SATNPRO1963","23.35","0.32704","5"],
    [39881,"HCEP03730564","2024-11-16 17:30:00","11.8537","3.52469","27.783","2.528571428571428","7.44","3.922","3387.884","0.01","7.44","30.5125","4.782","28.34","0","SATNPRO1963","23.64","0.33112","5"],
    [39882,"HCEP03730564","2024-11-16 17:45:00","11.8517","3.52279","27.585","2.522857142857143","7.44","3.928","3381.919","0","1.08","30.4959","4.77968","28.28","0","SATNPRO1963","23.462","0.32864","5"],
    [39883,"HCEP03730564","2024-11-16 18:00:00","11.8452","3.51726","27.39","2.571428571428572","7.44","3.726","3694.508","0.01","11.93","30.4482","4.77302","28.81","0","SATNPRO1963","23.594","0.33048","5"],
    [39884,"HCEP03730564","2024-11-16 18:15:00","11.8424","3.51516","27.137","2.605714285714286","7.44","3.912","3879.185","0.01","25.12","30.4303","4.77053","29.2","0","SATNPRO1963","23.486","0.32896","5"],
    [39885,"HCEP03730564","2024-11-16 18:30:00","11.8407","3.51397","26.937","2.57","7.44","3.917","3883.892","0.01","2.87","30.4204","4.76914","28.78","0","SATNPRO1963","23.274","0.32598","5"],
    [39886,"HCEP03730564","2024-11-16 18:45:00","11.8408","3.51358","26.862","2.508571428571428","7.43","3.884","4117.582","0.01","10.23","30.4166","4.76859","28.09","0","SATNPRO1963","22.998","0.32214","5"],
    [39887,"HCEP03730564","2024-11-16 19:00:00","11.8365","3.51019","26.592","2.494285714285714","7.43","3.934","3730.313","0.01","12.46","30.3877","4.76456","27.92","0","SATNPRO1963","23.094","0.32346","5"],
    [39888,"HCEP03730564","2024-11-16 19:15:00","11.833","3.50756","26.328","2.481428571428572","7.44","3.937","3724.205","0","1.53","30.3653","4.76143","27.79","0","SATNPRO1963","23.104","0.32358","5"],
    [39889,"HCEP03730564","2024-11-16 19:30:00","11.8283","3.50396","26.131","2.445714285714286","7.43","3.906","3865.676","0.01","8.95","30.3347","4.75715","27.38","0","SATNPRO1963","22.726","0.31834","5"],
    [39890,"HCEP03730564","2024-11-16 19:45:00","11.828","3.50368","25.898","2.422857142857143","7.43","3.958","3684.321","0.01","14.1","30.3323","4.75681","27.11","0","SATNPRO1963","22.774","0.31898","5"],
    [39891,"HCEP03730564","2024-11-16 20:00:00","11.8317","3.50606","25.666","2.354285714285714","7.42","3.958","3672.275","0.01","2.43","30.3523","4.75957","26.35","0","SATNPRO1963","22.534","0.31568","5"],
    [39892,"HCEP03730564","2024-11-16 20:15:00","11.8342","3.50741","25.418","2.288571428571429","7.42","3.799","3828.113","0.01","7.11","30.3634","4.76109","25.62","0","SATNPRO1963","22.312","0.31248","5"],
    [39893,"HCEP03730564","2024-11-16 20:30:00","11.8329","3.50612","25.14","2.251428571428572","7.41","3.935","3521.894","0.01","22.81","30.3521","4.7595","25.2","0","SATNPRO1963","22.374","0.31338","5"],
    [39894,"HCEP03730564","2024-11-16 20:45:00","11.8305","3.50412","24.887","2.227142857142857","7.41","3.937","3522.649","0","1.88","30.335","4.7571","24.93","0","SATNPRO1963","21.93","0.30716","5"],
    [39895,"HCEP03730564","2024-11-16 21:00:00","11.8281","3.50241","24.642","2.195714285714286","7.41","3.757","3839.964","0.01","10","30.3206","4.75508","24.57","0","SATNPRO1963","22.016000000000002","0.3084","5"],
    [39896,"HCEP03730564","2024-11-16 21:15:00","11.8245","3.49949","24.394","2.177142857142857","7.41","3.906","3342.943","0.01","8.47","30.2955","4.75157","24.35","0","SATNPRO1963","21.956","0.30754","5"],
    [39897,"HCEP03730564","2024-11-16 21:30:00","11.8199","3.49537","24.138","2.185714285714286","7.4","3.915","3339.58","0","0","30.2598","4.74658","24.45","0","SATNPRO1963","21.854","0.3061","5"],
    [39898,"HCEP03730564","2024-11-16 21:45:00","11.8157","3.49357","23.929","2.215714285714286","7.4","3.749","3727.452","0.01","10.96","30.246","4.74468","24.77","0","SATNPRO1963","21.958000000000002","0.30762","5"],
    [39899,"HCEP03730564","2024-11-16 22:00:00","11.8141","3.49246","23.778","2.224285714285714","7.4","3.856","3250.201","0.01","4.6","30.2367","4.74338","24.87","0","SATNPRO1963","22.018","0.3084","5"],
    [39900,"HCEP03730564","2024-11-16 22:15:00","11.8188","3.49556","23.659","2.245714285714286","7.4","3.859","3249.988","0","1.53","30.2628","4.74699","25.11","0","SATNPRO1963","22.06","0.30898","5"],
    [39901,"HCEP03730564","2024-11-16 22:30:00","11.8222","3.49829","23.565","2.277142857142857","7.4","3.702","3671.386","0.01","8.4","30.2862","4.75025","25.47","0","SATNPRO1963","22.5","0.3152","5"],
    [39902,"HCEP03730564","2024-11-16 22:45:00","11.8264","3.50284","23.569","2.294285714285714","7.4","3.844","3161.704","0.01","17.59","30.3265","4.75588","25.67","0","SATNPRO1963","22.178","0.31062","5"],
    [39903,"HCEP03730564","2024-11-16 23:00:00","11.8292","3.50632","23.636","2.357142857142857","7.41","3.851","3154.541","0","0","30.3576","4.76024","26.39","0","SATNPRO1963","22.866","0.32028","5"],
    [39904,"HCEP03730564","2024-11-16 23:15:00","11.8271","3.50521","23.607","2.522857142857143","7.42","3.625","3634.484","0.01","8.75","30.3486","4.759","28.23","0","SATNPRO1963","23.086000000000002","0.32336","5"],
    [39905,"HCEP03730564","2024-11-16 23:30:00","11.8305","3.50716","23.723","2.554285714285714","7.42","3.889","3059.796","0.01","9.94","30.3646","4.76122","28.6","0","SATNPRO1963","22.744","0.31856","5"],
    [39906,"HCEP03730564","2024-11-16 23:45:00","11.8295","3.50682","23.786","2.538571428571429","7.42","3.898","3061.141","0","1.53","30.3621","4.76089","28.41","0","SATNPRO1963","22.822","0.31962","5"],
    [39907,"HCEP03730564","2024-11-17 00:00:00","11.8284","3.50639","23.895","2.532857142857143","7.42","3.695","3556.013","0.01","7.52","30.3588","4.76045","28.35","0","SATNPRO1963","22.68","0.3177","5"],
    [39908,"HCEP03730564","2024-11-17 00:15:00","11.8158","3.49825","24.043","2.585714285714286","7.42","3.881","3100.738","0.01","13.94","30.2908","4.75102","28.93","0","SATNPRO1963","23.244","0.32556","5"],
    [39909,"HCEP03730564","2024-11-17 00:30:00","11.7403","3.44852","24.239","2.88","7.44","3.887","3096.331","0","0","29.874","4.69311","32.08","0","SATNPRO1963","23.44","0.32832","5"],
    [39910,"HCEP03730564","2024-11-17 00:45:00","11.7462","3.45476","24.444","3.241428571428572","7.44","3.637","3611.293","0.01","9.58","29.9291","4.70083","36.12","0","SATNPRO1963","23.168","0.3245","5"],
    [39911,"HCEP03730564","2024-11-17 01:00:00","11.7751","3.47006","24.65","3.272857142857143","7.45","3.889","3071.454","0.02","14","30.0528","4.71795","36.53","0","SATNPRO1963","23.454","0.3285","5"],
    [39912,"HCEP03730564","2024-11-17 01:15:00","11.7831","3.47318","24.826","3.241428571428572","7.45","3.889","3067.417","0","2.03","30.0762","4.72116","36.18","0","SATNPRO1963","23.396","0.3277","5"],
    [39913,"HCEP03730564","2024-11-17 01:30:00","11.7569","3.46247","25.075","3.205714285714286","7.44","3.645","3575.637","0.01","3.43","29.9943","4.70995","35.75","0","SATNPRO1963","23.724","0.33228","5"],
    [39914,"HCEP03730564","2024-11-17 01:45:00","11.6947","3.42133","25.243","3.464285714285714","7.45","3.882","3013.883","0.02","9.04","29.6489","4.66188","38.5","0","SATNPRO1963","23.066","0.32306","5"],
    [39915,"HCEP03730564","2024-11-17 02:00:00","11.6584","3.40036","25.425","3.675714285714286","7.46","3.885","3014.12","0","0","29.4763","4.63791","40.77","0","SATNPRO1963","23.092","0.32346","5"],
    [39916,"HCEP03730564","2024-11-17 02:15:00","11.7041","3.42479","25.666","3.702857142857143","7.45","3.643","3509.354","0.02","8.12","29.6745","4.66541","41.17","0","SATNPRO1963","23.268","0.32594","5"],
    [39917,"HCEP03730564","2024-11-17 02:30:00","11.7236","3.43288","25.978","3.48","7.45","3.883","2962.33","0.01","13.09","29.7364","4.67394","38.72","0","SATNPRO1963","22.678","0.31766","5"],
    [39918,"HCEP03730564","2024-11-17 02:45:00","11.6662","3.40126","26.212","3.37","7.45","3.886","2965.22","0","0","29.4784","4.63815","37.39","0","SATNPRO1963","22.824","0.31972","5"],
    [39919,"HCEP03730564","2024-11-17 03:00:00","11.727","3.43303","26.432","3.241428571428572","7.44","3.658","3498.878","0.01","9.14","29.7351","4.67372","36.05","0","SATNPRO1963","21.774","0.305","5"],
    [39920,"HCEP03730564","2024-11-17 03:15:00","11.7313","3.43625","26.641","2.931428571428572","7.42","3.861","2984.008","0.02","14.39","29.7624","4.67755","32.62","0","SATNPRO1963","21.854","0.3061","5"],
    [39921,"HCEP03730564","2024-11-17 03:30:00","11.7096","3.42232","26.879","2.978571428571429","7.42","3.865","2979.561","0.01","0","29.6459","4.66134","33.11","0","SATNPRO1963","21.764","0.30484","5"],
    [39922,"HCEP03730564","2024-11-17 03:45:00","11.6554","3.38895","27.076","3.272857142857143","7.43","3.648","3523.177","0.01","4.73","29.3683","4.62271","36.28","0","SATNPRO1963","21.858","0.30616","5"],
    [39923,"HCEP03730564","2024-11-17 04:00:00","11.5566","3.32806","27.286","3.59","7.44","3.858","3016.42","0.02","16.15","28.861","4.55194","39.58","0","SATNPRO1963","21.18","0.29666","5"],
    [39924,"HCEP03730564","2024-11-17 04:15:00","11.4873","3.29358","27.411","4.131428571428572","7.47","3.861","3024.806","0","2.97","28.5834","4.51333","45.4","0","SATNPRO1963","21.8","0.30532","5"],
    [39925,"HCEP03730564","2024-11-17 04:30:00","11.4384","3.26726","27.553","4.478571428571429","7.49","3.648","3536.435","0.01","3.76","28.3681","4.48327","49.1","0","SATNPRO1963","20.714","0.2901","5"],
    [39926,"HCEP03730564","2024-11-17 04:45:00","11.3131","3.20168","27.707","4.702857142857143","7.51","3.882","3110.476","0.01","11.22","27.8328","4.40844","51.25","0","SATNPRO1963","19.91","0.2789","5"],
    [39927,"HCEP03730564","2024-11-17 05:00:00","11.6701","3.40373","27.825","3.902857142857143","7.48","3.883","3109.536","0","1.53","29.4984","4.64102","43.29","0","SATNPRO1963","22.182","0.3107","5"],
    [39928,"HCEP03730564","2024-11-17 05:15:00","11.7356","3.43825","27.931","2.931428571428572","7.45","3.693","3510.327","0.02","14.19","29.7777","4.67973","32.62","0","SATNPRO1963","21.598","0.30254","5"],
    [39929,"HCEP03730564","2024-11-17 05:30:00","11.7501","3.44727","28.03","2.584285714285714","7.42","3.871","3069.27","0.01","9.14","29.8527","4.69015","28.79","0","SATNPRO1963","21.362000000000002","0.29918","5"],
    [39930,"HCEP03730564","2024-11-17 05:45:00","11.7472","3.44521","28.079","2.538571428571429","7.41","3.874","3064.894","0","1.33","29.8352","4.68772","28.28","0","SATNPRO1963","21.028","0.29452","5"],
    [39931,"HCEP03730564","2024-11-17 06:00:00","11.7341","3.43899","28.128","2.597142857142857","7.41","3.701","3525.812","0.01","7.2","29.7859","4.68092","28.91","0","SATNPRO1963","21.352","0.2991","5"],
    [39932,"HCEP03730564","2024-11-17 06:15:00","11.7332","3.44135","28.149","2.741428571428572","7.4","3.864","3038.774","0.01","13.55","29.8093","4.68426","30.52","0","SATNPRO1963","21.666","0.30346","5"],
    [39933,"HCEP03730564","2024-11-17 06:30:00","11.7477","3.44769","28.151","2.594285714285714","7.4","3.872","3039.372","0","1.72","29.8585","4.69103","28.9","0","SATNPRO1963","20.948","0.29342","5"],
    [39934,"HCEP03730564","2024-11-17 06:45:00","11.7518","3.44931","28.177","2.461428571428572","7.39","3.681","3536.353","0.01","10.9","29.8708","4.69271","27.42","0","SATNPRO1963","21.107999999999997","0.29566","5"],
    [39935,"HCEP03730564","2024-11-17 07:00:00","11.7821","3.47583","28.141","2.771428571428571","7.4","3.864","3102.631","0.01","11.06","30.1012","4.7249","30.93","0","SATNPRO1963","22.926","0.32112","5"],
    [39936,"HCEP03730564","2024-11-17 07:15:00","11.8028","3.48921","28.113","2.795714285714286","7.41","3.87","3100.867","0.01","1.88","30.2129","4.74041","31.25","0","SATNPRO1963","23.152","0.32426","5"],
    [39937,"HCEP03730564","2024-11-17 07:30:00","11.8082","3.49306","28.066","2.74","7.41","3.701","3562.82","0.01","4.73","30.2456","4.74495","30.64","0","SATNPRO1963","23.158","0.32438","5"],
    [39938,"HCEP03730564","2024-11-17 07:45:00","11.8101","3.49431","28.019","2.762857142857143","7.42","3.875","3096.485","0.02","19.98","30.2561","4.74641","30.89","0","SATNPRO1963","23.32","0.32662","5"],
    [39939,"HCEP03730564","2024-11-17 08:00:00","11.8097","3.49453","27.941","2.797142857142857","7.42","3.878","3097.444","0","2.43","30.2585","4.74674","31.28","0","SATNPRO1963","23.414","0.32798","5"],
    [39940,"HCEP03730564","2024-11-17 08:15:00","11.8093","3.49482","27.872","2.878571428571429","7.42","3.664","3540.067","0.01","11.33","30.2617","4.7472","32.19","0","SATNPRO1963","23.426","0.3281","5"],
    [39941,"HCEP03730564","2024-11-17 08:30:00","11.8092","3.4955","27.805","2.941428571428572","7.43","3.856","3184.685","0.01","27.49","30.2683","4.74813","32.89","0","SATNPRO1963","23.416","0.328","5"],
    [39942,"HCEP03730564","2024-11-17 08:45:00","11.8099","3.49574","27.712","2.975714285714286","7.43","3.858","3186.927","0","0","30.2701","4.74837","33.27","0","SATNPRO1963","23.528000000000002","0.32954","5"],
    [39943,"HCEP03730564","2024-11-17 09:00:00","11.8096","3.49596","27.636","2.998571428571429","7.43","3.631","3628.632","0.01","5.42","30.2725","4.74871","33.53","0","SATNPRO1963","23.57","0.33014","5"],
    [39944,"HCEP03730564","2024-11-17 09:15:00","11.8096","3.4974","27.555","3.127142857142857","7.44","3.857","3181.658","0.02","15.46","30.2863","4.75066","34.97","0","SATNPRO1963","23.834","0.33382","5"],
    [39945,"HCEP03730564","2024-11-17 09:30:00","11.8103","3.49867","27.474","3.227142857142857","7.45","3.863","3186.154","0.01","2.43","30.298","4.75229","36.1","0","SATNPRO1963","23.855999999999998","0.33416","5"],
    [39946,"HCEP03730564","2024-11-17 09:45:00","11.8145","3.50405","27.377","3.348571428571428","7.45","3.69","3619.97","0.01","8.75","30.3463","4.75906","37.47","0","SATNPRO1963","23.91","0.3349","5"],
    [39947,"HCEP03730564","2024-11-17 10:00:00","11.8231","3.51143","27.283","3.398571428571429","7.46","3.831","3210.258","0.01","16.84","30.4103","4.76798","38.05","0","SATNPRO1963","23.954","0.3355","5"],
    [39948,"HCEP03730564","2024-11-17 10:15:00","11.8262","3.51562","27.18","3.49","7.47","3.838","3206.147","0.01","3.25","30.448","4.77326","39.09","0","SATNPRO1963","24.132","0.33802","5"],
    [39949,"HCEP03730564","2024-11-17 10:30:00","11.8274","3.51705","27.084","3.502857142857143","7.47","3.649","3569.221","0.01","10.79","30.4608","4.77504","39.23","0","SATNPRO1963","24.216","0.33918","5"],
    [39950,"HCEP03730564","2024-11-17 10:45:00","11.8282","3.51758","26.977","3.498571428571428","7.47","3.849","3167.315","0.01","11.68","30.4653","4.77565","39.18","0","SATNPRO1963","24.116","0.3378","5"],
    [39951,"HCEP03730564","2024-11-17 11:00:00","11.8274","3.51607","26.885","3.441428571428571","7.47","3.853","3165.325","0.01","0","30.4515","4.77371","38.55","0","SATNPRO1963","24.058","0.33696","5"],
    [39952,"HCEP03730564","2024-11-17 11:15:00","11.8364","3.51882","26.807","3.24","7.46","3.655","3606.547","0.01","7.2","30.4706","4.77628","36.29","0","SATNPRO1963","24.034","0.33664","5"],
    [39953,"HCEP03730564","2024-11-17 11:30:00","11.8404","3.5214","26.764","3.19","7.45","3.837","3091.683","0.01","10.74","30.4922","4.77927","35.75","0","SATNPRO1963","24.158","0.33842","5"],
    [39954,"HCEP03730564","2024-11-17 11:45:00","11.838","3.52148","26.737","3.241428571428572","7.46","3.839","3088.092","0","0.77","30.4948","4.77967","36.31","0","SATNPRO1963","24.214","0.33918","5"],
    [39955,"HCEP03730564","2024-11-17 12:00:00","11.8448","3.52543","26.723","3.23","7.45","3.619","3616.623","0.01","12.08","30.5273","4.78416","36.21","0","SATNPRO1963","24.062","0.337","5"],
    [39956,"HCEP03730564","2024-11-17 12:15:00","11.8463","3.52636","26.74","3.215714285714286","7.46","3.808","3069.173","0.02","12.7","30.535","4.78522","36.04","0","SATNPRO1963","24.382","0.34154","5"],
    [39957,"HCEP03730564","2024-11-17 12:30:00","11.8476","3.52744","26.783","3.212857142857143","7.46","3.815","3074.417","0","2.17","30.5443","4.78653","36.02","0","SATNPRO1963","24.4","0.34172","5"],
    [39958,"HCEP03730564","2024-11-17 12:45:00","11.8507","3.52932","26.848","3.182857142857143","7.47","3.662","3450.331","0.02","5.31","30.5599","4.78868","35.68","0","SATNPRO1963","24.29","0.34018","5"],
    [39959,"HCEP03730564","2024-11-17 13:00:00","11.8528","3.53056","26.921","3.164285714285714","7.46","3.847","3090.409","0.01","12.51","30.57","4.79009","35.49","0","SATNPRO1963","24.244","0.33956","5"],
    [39960,"HCEP03730564","2024-11-17 13:15:00","11.858","3.53303","26.979","3.141428571428572","7.46","3.848","3088.771","0.01","2.03","30.5894","4.79276","35.24","0","SATNPRO1963","24.5","0.34314","5"],
    [39961,"HCEP03730564","2024-11-17 13:30:00","11.860900000000001","3.53485","27.074","3.13","7.47","3.651","3443.149","0.01","8.12","30.6045","4.79485","35.11","0","SATNPRO1963","24.322","0.3407","5"],
    [39962,"HCEP03730564","2024-11-17 13:45:00","11.8622","3.5359","27.225","3.144285714285715","7.47","3.824","2970.937","0.01","7.63","30.6134","4.7961","35.28","0","SATNPRO1963","24.502","0.3432","5"],
    [39963,"HCEP03730564","2024-11-17 14:00:00","11.862","3.5358","27.362","3.151428571428571","7.47","3.833","2967.783","0.01","1.08","30.6127","4.796","35.35","0","SATNPRO1963","24.344","0.34102","5"],
    [39964,"HCEP03730564","2024-11-17 14:15:00","11.8618","3.53569","27.436","3.137142857142858","7.46","3.628","3345.507","0.01","4.34","30.6116","4.79587","35.19","0","SATNPRO1963","24.372","0.34142","5"],
    [39965,"HCEP03730564","2024-11-17 14:30:00","11.8617","3.53564","27.493","3.124285714285714","7.46","3.816","2888.171","0.01","9.67","30.6113","4.79582","35.05","0","SATNPRO1963","24.422","0.34208","5"],
    [39966,"HCEP03730564","2024-11-17 14:45:00","11.862","3.53601","27.609","3.118571428571428","7.47","3.82","2889.14","0","2.43","30.6144","4.79627","35","0","SATNPRO1963","24.594","0.34444","5"],
    [39967,"HCEP03730564","2024-11-17 15:00:00","11.8633","3.53664","27.659","3.124285714285714","7.47","3.585","3333.854","0.01","7.03","30.6195","4.79697","35.05","0","SATNPRO1963","24.446","0.3424","5"],
    [39968,"HCEP03730564","2024-11-17 15:15:00","11.8637","3.53717","27.72","3.135714285714286","7.47","3.789","2793.653","0.02","8.85","30.6242","4.79763","35.18","0","SATNPRO1963","24.554000000000002","0.34396","5"],
    [39969,"HCEP03730564","2024-11-17 15:30:00","11.8652","3.53818","27.816","3.134285714285714","7.47","3.794","2794.235","0.01","1.72","30.6326","4.7988","35.17","0","SATNPRO1963","24.32","0.34068","5"],
    [39970,"HCEP03730564","2024-11-17 15:45:00","11.8668","3.53886","27.884","3.122857142857143","7.47","3.537","3308.242","0.01","8.33","30.6378","4.79952","35.05","0","SATNPRO1963","24.218","0.33918","5"],
    [39971,"HCEP03730564","2024-11-17 16:00:00","11.8687","3.53955","27.922","3.122857142857143","7.47","3.805","2791.247","0.01","8.23","30.6429","4.80021","35.04","0","SATNPRO1963","24.466","0.34268","5"],
    [39972,"HCEP03730564","2024-11-17 16:15:00","11.8689","3.53976","28.011","3.122857142857143","7.47","3.809","2787.877","0","1.53","30.6447","4.80046","35.05","0","SATNPRO1963","24.388","0.34158","5"],
    [39973,"HCEP03730564","2024-11-17 16:30:00","11.8686","3.53939","28.08","3.118571428571428","7.47","3.544","3293.185","0.01","5.42","30.6414","4.8","35.01","0","SATNPRO1963","24.486","0.34298","5"],
    [39974,"HCEP03730564","2024-11-17 16:45:00","11.8672","3.53888","28.15","3.115714285714286","7.46","3.798","2731.48","0.02","9.36","30.6376","4.7995","34.97","0","SATNPRO1963","24.27","0.33996","5"],
    [39975,"HCEP03730564","2024-11-17 17:00:00","11.8662","3.53856","28.172","3.108571428571429","7.47","3.804","2736.602","0.01","0.77","30.6354","4.7992","34.88","0","SATNPRO1963","24.392","0.34164","5"],
    [39976,"HCEP03730564","2024-11-17 17:15:00","11.8654","3.53819","28.166","3.09","7.46","3.56","3202.984","0.02","6.78","30.6325","4.79879","34.67","0","SATNPRO1963","24.401999999999997","0.3418","5"],
    [39977,"HCEP03730564","2024-11-17 17:30:00","11.8642","3.53766","28.104","3.085714285714286","7.46","3.781","2746.557","0.02","11.09","30.6284","4.79823","34.62","0","SATNPRO1963","24.02","0.33646","5"],
    [39978,"HCEP03730564","2024-11-17 17:45:00","11.8622","3.53651","28.068","3.075714285714286","7.46","3.789","2746.624","0.01","0","30.6189","4.79692","34.51","0","SATNPRO1963","24.328","0.34076","5"],
    [39979,"HCEP03730564","2024-11-17 18:00:00","11.8601","3.53538","28.02","3.071428571428571","7.46","3.504","3322.499","0.01","8.19","30.6099","4.79567","34.45","0","SATNPRO1963","24.134","0.33806","5"],
    [39980,"HCEP03730564","2024-11-17 18:15:00","11.8572","3.53404","27.976","3.075714285714286","7.46","3.801","2726.098","0.02","5.42","30.5994","4.79424","34.5","0","SATNPRO1963","24.222","0.33926","5"],
    [39981,"HCEP03730564","2024-11-17 18:30:00","11.8556","3.53316","27.817","3.081428571428571","7.46","3.81","2729.17","0","1.53","30.5923","4.79325","34.56","0","SATNPRO1963","24","0.33622","5"],
    [39982,"HCEP03730564","2024-11-17 18:45:00","11.8526","3.53172","27.695","3.087142857142857","7.46","3.578","3279.668","0.02","6.42","30.581","4.79169","34.62","0","SATNPRO1963","24.026","0.33652","5"],
    [39983,"HCEP03730564","2024-11-17 19:00:00","11.8488","3.52974","27.539","3.107142857142857","7.48","3.788","2791.498","0.01","6.95","30.5651","4.78949","34.84","0","SATNPRO1963","24.084","0.33734","5"],
    [39984,"HCEP03730564","2024-11-17 19:15:00","11.8468","3.52845","27.318","3.124285714285714","7.46","3.788","2789.695","0.01","1.72","30.5545","4.788","35.03","0","SATNPRO1963","24.094","0.33746","5"],
    [39985,"HCEP03730564","2024-11-17 19:30:00","11.8461","3.52775","27.095","3.131428571428572","7.46","3.546","3382.679","0.02","10.29","30.5484","4.78715","35.11","0","SATNPRO1963","23.964","0.33562","5"],
    [39986,"HCEP03730564","2024-11-17 19:45:00","11.8482","3.52921","26.852","3.117142857142857","7.46","3.756","2886.042","0.01","8.95","30.5608","4.78885","34.95","0","SATNPRO1963","24.1","0.3376","5"],
    [39987,"HCEP03730564","2024-11-17 20:00:00","11.8487","3.52942","26.574","3.087142857142857","7.47","3.761","2887.726","0","1.72","30.5625","4.78907","34.61","0","SATNPRO1963","23.954","0.33552","5"],
    [39988,"HCEP03730564","2024-11-17 20:15:00","11.8459","3.52742","26.306","3.064285714285714","7.46","3.526","3445.107","0.01","11.98","30.5457","4.78673","34.35","0","SATNPRO1963","23.652","0.3313","5"],
    [39989,"HCEP03730564","2024-11-17 20:30:00","11.842","3.52365","26","3.041428571428571","7.45","3.775","2816.011","0.02","8.01","30.5128","4.78212","34.09","0","SATNPRO1963","23.759999999999998","0.33282","5"],
    [39990,"HCEP03730564","2024-11-17 20:45:00","11.8348","3.51681","25.709","3.021428571428572","7.46","3.782","2816.97","0.01","0","30.453","4.77375","33.85","0","SATNPRO1963","23.852","0.33406","5"],
    [39991,"HCEP03730564","2024-11-17 21:00:00","11.8318","3.51457","25.4","3.015714285714286","7.45","3.536","3422.869","0.01","7.59","30.4341","4.77111","33.77","0","SATNPRO1963","23.69","0.33182","5"],
    [39992,"HCEP03730564","2024-11-17 21:15:00","11.8292","3.51226","25.133","3.011428571428572","7.45","3.783","2822.502","0.01","9.3","30.4141","4.76831","33.73","0","SATNPRO1963","23.814","0.33356","5"],
    [39993,"HCEP03730564","2024-11-17 21:30:00","11.8275","3.51083","24.876","3.01","7.45","3.786","2819.151","0.01","2.03","30.4019","4.76659","33.7","0","SATNPRO1963","23.744","0.33256","5"],
    [39994,"HCEP03730564","2024-11-17 21:45:00","11.8261","3.50936","24.613","3","7.45","3.499","3424.912","0.01","13.89","30.389","4.76478","33.58","0","SATNPRO1963","23.814","0.33354","5"],
    [39995,"HCEP03730564","2024-11-17 22:00:00","11.8248","3.5083","24.355","2.985714285714286","7.45","3.778","2825.134","0.01","3.84","30.3799","4.7635","33.43","0","SATNPRO1963","24.092000000000002","0.33746","5"],
    [39996,"HCEP03730564","2024-11-17 22:15:00","11.824","3.50778","24.115","2.968571428571428","7.45","3.783","2826.964","0.01","1.53","30.3757","4.7629","33.23","0","SATNPRO1963","23.95","0.33544","5"],
    [39997,"HCEP03730564","2024-11-17 22:30:00","11.8262","3.50916","23.902","2.971428571428572","7.45","3.573","3288.832","0.01","7.03","30.3872","4.76448","33.26","0","SATNPRO1963","24.358","0.3412","5"],
    [39998,"HCEP03730564","2024-11-17 22:45:00","11.8384","3.51815","23.734","2.945714285714286","7.45","3.788","2785.266","0.01","9.61","30.4638","4.77512","32.99","0","SATNPRO1963","23.451999999999998","0.3285","5"],
    [39999,"HCEP03730564","2024-11-17 23:00:00","11.8509","3.52932","23.562","2.93","7.46","3.788","2781.214","0.01","0","30.5609","4.78865","32.85","0","SATNPRO1963","23.654","0.33132","5"],
    [40000,"HCEP03730564","2024-11-17 23:15:00","11.8581","3.53422","23.504","2.912857142857143","7.46","3.51","3313.971","0.01","8.26","30.6021","4.79436","32.67","0","SATNPRO1963","23.708000000000002","0.33206","5"],
    [40001,"HCEP03730564","2024-11-17 23:30:00","11.8636","3.53761","23.479","2.935714285714286","7.46","3.783","2871.829","0.01","7.52","30.6302","4.79825","32.94","0","SATNPRO1963","23.756","0.33274","5"],
    [40002,"HCEP03730564","2024-11-17 23:45:00","11.8648","3.53897","23.502","2.952857142857143","7.46","3.784","2874.564","0.01","1.72","30.6423","4.79993","33.14","0","SATNPRO1963","23.828","0.33376","5"],
    [40003,"HCEP03730564","2024-11-18 00:00:00","11.8488","3.5277","23.5","2.972857142857143","7.46","3.545","3303.581","0.01","7.44","30.5471","4.78673","33.33","0","SATNPRO1963","23.87","0.33432","5"],
    [40004,"HCEP03730564","2024-11-18 00:15:00","11.8576","3.53427","23.647","3","7.46","3.775","2750.301","0.01","10.52","30.6029","4.79449","33.65","0","SATNPRO1963","23.727999999999998","0.33236","5"],
    [40005,"HCEP03730564","2024-11-18 00:30:00","11.8484","3.52896","23.684","2.961428571428571","7.47","3.783","2750.543","0.01","2.17","30.5595","4.78849","33.21","0","SATNPRO1963","23.652","0.33124","5"],
    [40006,"HCEP03730564","2024-11-18 00:45:00","11.8431","3.52564","23.753","3.028571428571429","7.46","3.555","3238.391","0.01","4.06","30.5319","4.78467","33.96","0","SATNPRO1963","23.974","0.33582","5"],
    [40007,"HCEP03730564","2024-11-18 01:00:00","11.8367","3.52075","23.733","3.022857142857143","7.46","3.758","2643.665","0.02","6.33","30.4901","4.77886","33.87","0","SATNPRO1963","23.484","0.32894","5"],
    [40008,"HCEP03730564","2024-11-18 01:15:00","11.8293","3.51282","23.896","2.985714285714286","7.46","3.764","2646.44","0","4.06","30.4199","4.76906","33.43","0","SATNPRO1963","23.436","0.32826","5"],
    [40009,"HCEP03730564","2024-11-18 01:30:00","11.8284","3.5136","24.026","2.957142857142857","7.46","3.494","3192.557","0.01","6.86","30.428","4.77022","33.11","0","SATNPRO1963","23.483999999999998","0.32892","5"],
    [40010,"HCEP03730564","2024-11-18 01:45:00","11.8218","3.50624","24.251","2.92","7.46","3.767","2667.005","0.02","8.91","30.3627","4.7611","32.68","0","SATNPRO1963","23.428","0.32816","5"],
    [40011,"HCEP03730564","2024-11-18 02:00:00","11.8139","3.50246","24.609","2.908571428571429","7.45","3.769","2665.239","0","0.77","30.3326","4.75698","32.55","0","SATNPRO1963","23.184","0.32472","5"],
    [40012,"HCEP03730564","2024-11-18 02:15:00","11.8055","3.49442","24.842","2.897142857142857","7.45","3.494","3298.539","0.02","17.99","30.2621","4.74715","32.39","0","SATNPRO1963","23.35","0.32706","5"],
    [40013,"HCEP03730564","2024-11-18 02:30:00","11.7927","3.48667","25.02","2.872857142857143","7.43","3.759","2747.112","0.03","15.67","30.198","4.73827","32.1","0","SATNPRO1963","22.939999999999998","0.32128","5"],
    [40014,"HCEP03730564","2024-11-18 02:45:00","11.7867","3.4814","25.345","2.85","7.43","3.764","2752.875","0","1.53","30.152","4.73187","31.83","0","SATNPRO1963","22.872","0.32032","5"],
    [40015,"HCEP03730564","2024-11-18 03:00:00","11.7858","3.48174","25.58","2.847142857142857","7.43","3.48","3408.76","0.01","11.12","30.1559","4.73245","31.8","0","SATNPRO1963","22.996000000000002","0.32208","5"],
    [40016,"HCEP03730564","2024-11-18 03:15:00","11.7973","3.48892","25.834","2.824285714285714","7.43","3.759","2873.228","0.01","13.27","30.2155","4.74072","31.56","0","SATNPRO1963","22.978","0.32188","5"],
    [40017,"HCEP03730564","2024-11-18 03:30:00","11.7988","3.49008","26.115","2.811428571428571","7.43","3.757","2876.232","0","1.53","30.2253","4.74211","31.43","0","SATNPRO1963","22.87","0.32038","5"],
    [40018,"HCEP03730564","2024-11-18 03:45:00","11.7978","3.48956","26.373","2.802857142857143","7.43","3.525","3398.731","0.01","13.46","30.221","4.74153","31.32","0","SATNPRO1963","23.068","0.32308","5"],
    [40019,"HCEP03730564","2024-11-18 04:00:00","11.8005","3.49139","26.671","2.797142857142857","7.42","3.774","2873.277","0.01","7.94","30.2363","4.74368","31.27","0","SATNPRO1963","23.132","0.324","5"],
    [40020,"HCEP03730564","2024-11-18 04:15:00","11.8041","3.49341","26.904","2.797142857142857","7.43","3.781","2869.065","0.01","1.08","30.2527","4.74595","31.28","0","SATNPRO1963","22.986","0.32192","5"],
    [40021,"HCEP03730564","2024-11-18 04:30:00","11.8156","3.50164","27.14","2.794285714285714","7.42","3.582","3322.265","0.01","9.01","30.3223","4.75565","31.27","0","SATNPRO1963","23.06","0.32296","5"],
    [40022,"HCEP03730564","2024-11-18 04:45:00","11.8203","3.505","27.358","2.784285714285714","7.42","3.776","2855.196","0.02","15.98","30.3507","4.75959","31.16","0","SATNPRO1963","23.11","0.32368","5"],
    [40023,"HCEP03730564","2024-11-18 05:00:00","11.8252","3.50864","27.507","2.782857142857143","7.43","3.781","2852.878","0.01","2.54","30.3817","4.76392","31.15","0","SATNPRO1963","23.1","0.32354","5"],
    [40024,"HCEP03730564","2024-11-18 05:15:00","11.836","3.51781","27.657","2.798571428571429","7.43","3.539","3347.459","0.01","9.33","30.4609","4.77497","31.35","0","SATNPRO1963","23.372","0.32736","5"],
    [40025,"HCEP03730564","2024-11-18 05:30:00","11.8396","3.52171","27.779","2.851428571428571","7.43","3.782","2926.21","0.01","13.74","30.4954","4.77978","31.95","0","SATNPRO1963","24.154","0.33832","5"],
    [40026,"HCEP03730564","2024-11-18 05:45:00","11.8436","3.52429","27.884","2.917142857142857","7.44","3.785","2924.21","0.01","1.88","30.5168","4.78277","32.69","0","SATNPRO1963","23.258","0.32578","5"],
    [40027,"HCEP03730564","2024-11-18 06:00:00","11.8503","3.52946","27.977","2.897142857142857","7.44","3.586","3367.977","0.01","10","30.561","4.78891","32.49","0","SATNPRO1963","23.658","0.33142","5"],
    [40028,"HCEP03730564","2024-11-18 06:15:00","11.8585","3.53535","28.083","2.918571428571429","7.45","3.778","2937.816","0.02","35.69","30.6108","4.79584","32.74","0","SATNPRO1963","23.752","0.33268","5"],
    [40029,"HCEP03730564","2024-11-18 06:30:00","11.8556","3.53319","28.076","2.944285714285714","7.45","3.79","2938.591","0.01","2.3","30.5925","4.79328","33.03","0","SATNPRO1963","23.744","0.33256","5"],
    [40030,"HCEP03730564","2024-11-18 06:45:00","11.8507","3.52968","28.066","2.952857142857143","7.45","3.599","3288.621","0.01","7.28","30.5628","4.78916","33.11","0","SATNPRO1963","23.84","0.33394","5"],
    [40031,"HCEP03730564","2024-11-18 07:00:00","11.8489","3.52833","28.033","2.961428571428571","7.45","3.761","2797.946","0.02","18.36","30.5513","4.78756","33.2","0","SATNPRO1963","23.884","0.33454","5"],
    [40032,"HCEP03730564","2024-11-18 07:15:00","11.8482","3.52768","28.043","2.957142857142857","7.46","3.765","2792.865","0","1.88","30.5456","4.78677","33.15","0","SATNPRO1963","23.982","0.3359","5"],
    [40033,"HCEP03730564","2024-11-18 07:30:00","11.8478","3.52761","28.124","2.972857142857143","7.45","3.566","3133.257","0.01","7.59","30.5452","4.78672","33.32","0","SATNPRO1963","23.983999999999998","0.33592","5"],
    [40034,"HCEP03730564","2024-11-18 07:45:00","11.8454","3.52587","28.144","2.97","7.45","3.756","2703.728","0.01","7.71","30.5305","4.78468","33.3","0","SATNPRO1963","23.904","0.3348","5"],
    [40035,"HCEP03730564","2024-11-18 08:00:00","11.8423","3.52362","28.09","2.992857142857143","7.45","3.76","2702.491","0","2.03","30.5115","4.78204","33.54","0","SATNPRO1963","23.862000000000002","0.33422","5"],
    [40036,"HCEP03730564","2024-11-18 08:15:00","11.8473","3.527","28.032","2.997142857142857","7.45","3.496","3267.668","0.01","12.84","30.5399","4.78597","33.59","0","SATNPRO1963","23.994","0.33608","5"],
    [40037,"HCEP03730564","2024-11-18 08:30:00","11.8514","3.52949","28.013","3.027142857142858","7.44","3.737","2739.981","0.01","22.6","30.5603","4.7888","33.94","0","SATNPRO1963","24.128","0.33796","5"],
    [40038,"HCEP03730564","2024-11-18 08:45:00","11.8503","3.52908","27.963","3.034285714285715","7.45","3.737","2740.476","0.01","1.53","30.5574","4.7884","34.02","0","SATNPRO1963","24.06","0.337","5"],
    [40039,"HCEP03730564","2024-11-18 09:00:00","11.8522","3.53027","27.939","3.007142857142857","7.44","3.547","3186.724","0.01","9.14","30.5672","4.78976","33.72","0","SATNPRO1963","23.944","0.33536","5"],
    [40040,"HCEP03730564","2024-11-18 09:15:00","11.8525","3.5308","27.855","2.988571428571429","7.45","3.771","2761.602","0.01","14.1","30.5722","4.79045","33.52","0","SATNPRO1963","23.986","0.33598","5"],
    [40041,"HCEP03730564","2024-11-18 09:30:00","11.8586","3.5346","27.787","2.982857142857143","7.45","3.772","2748.758","0.01","2.17","30.6037","4.79481","33.46","0","SATNPRO1963","23.81","0.33348","5"],
    [40042,"HCEP03730564","2024-11-18 09:45:00","11.8602","3.53635","27.714","3","7.45","3.68","3182.253","0.01","19.47","30.6192","4.79697","33.66","0","SATNPRO1963","23.9","0.33476","5"],
    [40043,"HCEP03730564","2024-11-18 10:00:00","11.8619","3.53743","27.655","3.002857142857143","7.45","3.764","2902.495","0.01","15.09","30.6283","4.79822","33.69","0","SATNPRO1963","24.062","0.33702","5"],
    [40044,"HCEP03730564","2024-11-18 10:15:00","11.8619","3.53772","27.567","3.011428571428572","7.45","3.771","2892.207","0.01","1.08","30.631","4.79861","33.8","0","SATNPRO1963","23.81","0.33352","5"],
    [40045,"HCEP03730564","2024-11-18 10:30:00","11.8622","3.53781","27.49","3.007142857142857","7.45","3.612","3196.196","0.01","4.06","30.6317","4.79869","33.74","0","SATNPRO1963","24.006","0.33624","5"],
    [40046,"HCEP03730564","2024-11-18 10:45:00","11.8624","3.53791","27.398","3.002857142857143","7.45","3.749","2791.805","0.01","13.81","30.6326","4.79881","33.69","0","SATNPRO1963","24","0.33614","5"],
    [40047,"HCEP03730564","2024-11-18 11:00:00","11.8622","3.53784","27.317","3","7.45","3.751","2785.101","0.01","0","30.6321","4.79874","33.66","0","SATNPRO1963","23.936","0.33528","5"],
    [40048,"HCEP03730564","2024-11-18 11:15:00","11.8632","3.53838","27.217","3.005714285714286","7.44","3.564","3299.585","0.01","9.08","30.6365","4.79934","33.72","0","SATNPRO1963","23.982","0.33594","5"],
    [40049,"HCEP03730564","2024-11-18 11:30:00","11.8635","3.53851","27.115","3.01","7.44","3.733","2824.819","0.01","5.31","30.6375","4.79947","33.77","0","SATNPRO1963","24.226","0.3393","5"],
    [40050,"HCEP03730564","2024-11-18 11:45:00","11.8636","3.53862","27.04","3.012857142857143","7.45","3.74","2821.708","0.01","2.54","30.6385","4.79961","33.8","0","SATNPRO1963","24.214","0.33912","5"],
    [40051,"HCEP03730564","2024-11-18 12:00:00","11.8641","3.5388","26.966","3.005714285714286","7.44","3.548","3336.166","0.01","10.52","30.6399","4.7998","33.73","0","SATNPRO1963","23.907999999999998","0.33486","5"],
    [40052,"HCEP03730564","2024-11-18 12:15:00","11.8643","3.53933","26.932","2.984285714285714","7.44","3.759","2800.236","0.01","9.67","30.6448","4.80049","33.48","0","SATNPRO1963","23.934","0.33522","5"],
    [40053,"HCEP03730564","2024-11-18 12:30:00","11.8642","3.53933","26.9","2.961428571428571","7.45","3.765","2800.698","0","1.72","30.6449","4.8005","33.23","0","SATNPRO1963","23.951999999999998","0.3355","5"],
    [40054,"HCEP03730564","2024-11-18 12:45:00","11.866","3.53994","26.878","2.965714285714286","7.45","3.567","3268.274","0.01","7.11","30.6493","4.80109","33.28","0","SATNPRO1963","24.244","0.33954","5"],
    [40055,"HCEP03730564","2024-11-18 13:00:00","11.8687","3.54199","26.866","3.005714285714286","7.47","3.762","2880.056","0.02","17.99","30.6668","4.80352","33.74","0","SATNPRO1963","24.428","0.34216","5"],
    [40056,"HCEP03730564","2024-11-18 13:15:00","11.8707","3.54359","26.875","3.041428571428571","7.46","3.767","2879.015","0.01","1.72","30.6805","4.80543","34.15","0","SATNPRO1963","24.562","0.34404","5"],
    [40057,"HCEP03730564","2024-11-18 13:30:00","11.8715","3.5444","26.906","3.074285714285715","7.46","3.586","3211.857","0.01","8.4","30.6877","4.80643","34.52","0","SATNPRO1963","24.756","0.34676","5"],
    [40058,"HCEP03730564","2024-11-18 13:45:00","11.8725","3.54536","26.938","3.097142857142857","7.46","3.74","2785.38","0.01","7.32","30.696","4.80759","34.77","0","SATNPRO1963","24.688","0.34582","5"],
    [40059,"HCEP03730564","2024-11-18 14:00:00","11.8732","3.54613","26.984","3.082857142857143","7.46","3.738","2779.632","0.01","1.53","30.7028","4.80854","34.61","0","SATNPRO1963","24.605999999999998","0.34464","5"],
    [40060,"HCEP03730564","2024-11-18 14:15:00","11.874","3.5468","27.037","3.081428571428571","7.46","3.534","3232.623","0.01","7.75","30.7086","4.80935","34.59","0","SATNPRO1963","24.556","0.34394","5"],
    [40061,"HCEP03730564","2024-11-18 14:30:00","11.8744","3.54727","27.1","3.072857142857142","7.46","3.761","2762.478","0.02","14.21","30.7127","4.80993","34.51","0","SATNPRO1963","24.776","0.34702","5"],
    [40062,"HCEP03730564","2024-11-18 14:45:00","11.8748","3.54759","27.171","3.07","7.46","3.764","2756.955","0","2.03","30.7154","4.81031","34.47","0","SATNPRO1963","24.91","0.34892","5"],
    [40063,"HCEP03730564","2024-11-18 15:00:00","11.8748","3.54779","27.242","3.06","7.45","3.521","3203.531","0.01","8.61","30.7174","4.81059","34.37","0","SATNPRO1963","24.894","0.3487","5"],
    [40064,"HCEP03730564","2024-11-18 15:15:00","11.8748","3.54777","27.306","3.058571428571429","7.45","3.744","2760.603","0.02","10.74","30.7172","4.81057","34.34","0","SATNPRO1963","24.776","0.34702","5"],
    [40065,"HCEP03730564","2024-11-18 15:30:00","11.8748","3.54763","27.374","3.045714285714286","7.46","3.749","2764.251","0","2.54","30.7158","4.81038","34.21","0","SATNPRO1963","24.816","0.34756","5"],
    [40066,"HCEP03730564","2024-11-18 15:45:00","11.8746","3.54754","27.451","3.05","7.46","3.508","3221.788","0.01","5.42","30.7151","4.81028","34.25","0","SATNPRO1963","24.854","0.3481","5"],
    [40067,"HCEP03730564","2024-11-18 16:00:00","11.8746","3.54746","27.516","3.051428571428572","7.45","3.741","2677.558","0.02","4.41","30.7143","4.81017","34.27","0","SATNPRO1963","24.812","0.34754","5"],
    [40068,"HCEP03730564","2024-11-18 16:15:00","11.8748","3.54788","27.58","3.048571428571428","7.46","3.745","2675.01","0.01","2.43","30.7181","4.81071","34.24","0","SATNPRO1963","24.746","0.34658","5"],
    [40069,"HCEP03730564","2024-11-18 16:30:00","11.8753","3.54877","27.628","3.027142857142858","7.46","3.505","3109.746","0.01","6.14","30.7262","4.81185","34","0","SATNPRO1963","24.804000000000002","0.34742","5"],
    [40070,"HCEP03730564","2024-11-18 16:45:00","11.8753","3.54893","27.618","3.02","7.46","3.744","2629.99","0.02","9.58","30.7277","4.81207","33.92","0","SATNPRO1963","24.962","0.3496","5"],
    [40071,"HCEP03730564","2024-11-18 17:00:00","11.8748","3.54857","27.639","3.018571428571429","7.46","3.75","2631.766","0","2.3","30.7247","4.81164","33.91","0","SATNPRO1963","24.662","0.34542","5"],
    [40072,"HCEP03730564","2024-11-18 17:15:00","11.8746","3.54843","27.644","3.028571428571429","7.46","3.499","3124.163","0.01","7.82","30.7236","4.81149","34.02","0","SATNPRO1963","24.758","0.34678","5"],
    [40073,"HCEP03730564","2024-11-18 17:30:00","11.8742","3.54812","27.659","3.034285714285715","7.46","3.756","2720.132","0.01","7.36","30.7209","4.81111","34.07","0","SATNPRO1963","24.726","0.34636","5"],
    [40074,"HCEP03730564","2024-11-18 17:45:00","11.874","3.54788","27.644","3.025714285714286","7.46","3.763","2721.556","0","1.72","30.7188","4.81082","33.98","0","SATNPRO1963","24.61","0.34472","5"],
    [40075,"HCEP03730564","2024-11-18 18:00:00","11.8739","3.54766","27.561","3.031428571428571","7.46","3.509","3118.579","0.01","10.9","30.7168","4.81053","34.04","0","SATNPRO1963","24.637999999999998","0.3451","5"],
    [40076,"HCEP03730564","2024-11-18 18:15:00","11.8734","3.54742","27.538","3.015714285714286","7.46","3.733","2593.691","0.02","4.91","30.7149","4.81027","33.86","0","SATNPRO1963","24.881999999999998","0.3485","5"],
    [40077,"HCEP03730564","2024-11-18 18:30:00","11.8731","3.54709","27.536","2.997142857142857","7.46","3.732","2592.277","0.01","2.3","30.7119","4.80985","33.66","0","SATNPRO1963","24.656","0.34534","5"],
    [40078,"HCEP03730564","2024-11-18 18:45:00","11.8728","3.54679","27.443","2.997142857142857","7.46","3.486","3059.055","0.01","7.28","30.7093","4.8095","33.66","0","SATNPRO1963","24.774","0.347","5"],
    [40079,"HCEP03730564","2024-11-18 19:00:00","11.8722","3.54639","27.345","2.998571428571429","7.45","3.708","2581.43","0.02","7.32","30.706","4.80903","33.67","0","SATNPRO1963","24.792","0.34726","5"],
    [40080,"HCEP03730564","2024-11-18 19:15:00","11.8715","3.54577","27.239","2.981428571428572","7.45","3.711","2586.594","0","1.33","30.7007","4.80828","33.48","0","SATNPRO1963","24.616","0.34476","5"],
    [40081,"HCEP03730564","2024-11-18 19:30:00","11.8705","3.54492","27.235","2.968571428571428","7.45","3.506","3101.474","0.01","10.63","30.6933","4.80726","33.32","0","SATNPRO1963","24.542","0.34372","5"],
    [40082,"HCEP03730564","2024-11-18 19:45:00","11.8696","3.54446","27.169","2.952857142857143","7.45","3.754","2610.388","0.01","14.91","30.6896","4.80675","33.15","0","SATNPRO1963","24.652","0.34534","5"],
    [40083,"HCEP03730564","2024-11-18 20:00:00","11.8691","3.54378","26.978","2.95","7.45","3.756","2612.464","0","1.88","30.6837","4.80591","33.12","0","SATNPRO1963","24.64","0.3451","5"],
    [40084,"HCEP03730564","2024-11-18 20:15:00","11.8669","3.54223","26.767","2.948571428571429","7.44","3.527","3140.463","0.01","12.46","30.6707","4.80408","33.1","0","SATNPRO1963","24.310000000000002","0.34052","5"],
    [40085,"HCEP03730564","2024-11-18 20:30:00","11.8632","3.53951","26.661","2.935714285714286","7.44","3.722","2681.661","0.01","7.44","30.6476","4.80088","32.94","0","SATNPRO1963","24.474","0.3428","5"],
    [40086,"HCEP03730564","2024-11-18 20:45:00","11.8603","3.53729","26.462","2.922857142857143","7.44","3.728","2677.959","0","0","30.6287","4.79824","32.79","0","SATNPRO1963","24.274","0.34","5"],
    [40087,"HCEP03730564","2024-11-18 21:00:00","11.8584","3.53585","26.23","2.915714285714286","7.44","3.562","3108.839","0.02","7.59","30.6165","4.79654","32.71","0","SATNPRO1963","24.349999999999998","0.34104","5"],
    [40088,"HCEP03730564","2024-11-18 21:15:00","11.8573","3.53501","25.95","2.901428571428572","7.44","3.765","2655.772","0.01","13.85","30.6094","4.79554","32.54","0","SATNPRO1963","24.338","0.34092","5"],
    [40089,"HCEP03730564","2024-11-18 21:30:00","11.8551","3.53293","25.503","2.898571428571429","7.44","3.77","2654.972","0","1.53","30.5914","4.793","32.51","0","SATNPRO1963","24.14","0.33812","5"],
    [40090,"HCEP03730564","2024-11-18 21:45:00","11.8534","3.53182","25.15","2.905714285714286","7.44","3.546","3150.696","0.01","6.42","30.5823","4.79172","32.59","0","SATNPRO1963","24.53","0.34358","5"],
    [40091,"HCEP03730564","2024-11-18 22:00:00","11.8515","3.5303","24.777","2.907142857142858","7.44","3.749","2681.556","0.01","12.42","30.5694","4.7899","32.59","0","SATNPRO1963","24.334","0.3408","5"],
    [40092,"HCEP03730564","2024-11-18 22:15:00","11.8473","3.52718","24.652","2.901428571428572","7.44","3.751","2679.778","0.01","1.33","30.5429","4.78621","32.52","0","SATNPRO1963","24.094","0.33748","5"],
    [40093,"HCEP03730564","2024-11-18 22:30:00","11.8425","3.52397","24.249","2.902857142857143","7.44","3.538","3018.783","0.01","7.2","30.516","4.78247","32.54","0","SATNPRO1963","23.918","0.335","5"],
    [40094,"HCEP03730564","2024-11-18 22:45:00","11.8399","3.52207","24.03","2.892857142857143","7.44","3.666","2565.352","0.01","4.67","30.5001","4.78024","32.41","0","SATNPRO1963","24.072","0.33716","5"],
    [40095,"HCEP03730564","2024-11-18 23:00:00","11.8374","3.52046","23.888","2.862857142857143","7.44","3.669","2569.059","0","1.33","30.4867","4.77837","32.08","0","SATNPRO1963","24.05","0.33686","5"],
    [40096,"HCEP03730564","2024-11-18 23:15:00","11.8369","3.52027","23.784","2.854285714285714","7.44","3.432","3030.537","0.01","5.2","30.4853","4.77818","31.99","0","SATNPRO1963","23.746","0.3326","5"],
    [40097,"HCEP03730564","2024-11-18 23:30:00","11.8367","3.52004","23.671","2.845714285714286","7.44","3.669","2445.393","0.01","4.97","30.4834","4.7779","31.88","0","SATNPRO1963","23.83","0.33374","5"],
    [40098,"HCEP03730564","2024-11-18 23:45:00","11.8367","3.51999","23.619","2.845714285714286","7.44","3.672","2444.641","0","1.33","30.4828","4.77782","31.89","0","SATNPRO1963","24.022000000000002","0.33648","5"],
    [40099,"HCEP03730564","2024-11-19 00:00:00","11.8367","3.52005","23.592","2.837142857142857","7.43","3.434","3004.652","0.01","6.9","30.4834","4.7779","31.8","0","SATNPRO1963","23.916","0.335","5"],
    [40100,"HCEP03730564","2024-11-19 00:15:00","11.8362","3.51989","23.615","2.834285714285714","7.43","3.701","2475.376","0.01","4.27","30.4823","4.77776","31.76","0","SATNPRO1963","23.902","0.33478","5"],
    [40101,"HCEP03730564","2024-11-19 00:30:00","11.836","3.51972","23.719","2.828571428571429","7.43","3.705","2473.52","0","1.33","30.4808","4.77756","31.69","0","SATNPRO1963","23.869999999999997","0.33436","5"],
    [40102,"HCEP03730564","2024-11-19 00:45:00","11.821","3.51096","23.769","2.842857142857143","7.43","3.477","3018.845","0.01","8.37","30.4088","4.76761","31.82","0","SATNPRO1963","23.544","0.3298","5"],
    [40103,"HCEP03730564","2024-11-19 01:00:00","11.825","3.51397","23.834","2.865714285714286","7.43","3.721","2549.074","0.01","8.68","30.4344","4.77117","32.09","0","SATNPRO1963","23.71","0.3321","5"],
    [40104,"HCEP03730564","2024-11-19 01:15:00","11.8226","3.51283","23.908","2.86","7.43","3.718","2550.952","0","0","30.4254","4.76993","32.03","0","SATNPRO1963","23.578","0.33032","5"],
    [40105,"HCEP03730564","2024-11-19 01:30:00","11.824","3.51337","24.005","2.875714285714285","7.43","3.461","3076.972","0.01","9.36","30.4294","4.77048","32.2","0","SATNPRO1963","23.844","0.33394","5"],
    [40106,"HCEP03730564","2024-11-19 01:45:00","11.826","3.51432","24.137","2.874285714285715","7.44","3.668","2648.423","0.02","15.93","30.4369","4.77151","32.18","0","SATNPRO1963","23.868000000000002","0.3343","5"],
    [40107,"HCEP03730564","2024-11-19 02:00:00","11.8264","3.51459","24.294","2.858571428571428","7.44","3.674","2643.394","0","0.77","30.4391","4.77184","32.02","0","SATNPRO1963","23.538","0.32968","5"],
    [40108,"HCEP03730564","2024-11-19 02:15:00","11.8335","3.51845","24.454","2.825714285714286","7.43","3.502","3182.147","0.01","8.68","30.4704","4.77616","31.66","0","SATNPRO1963","23.64","0.33108","5"],
    [40109,"HCEP03730564","2024-11-19 02:30:00","11.8335","3.51837","24.623","2.808571428571429","7.43","3.719","2712.412","0.01","5.42","30.4696","4.77605","31.46","0","SATNPRO1963","23.706","0.33206","5"],
    [40110,"HCEP03730564","2024-11-19 02:45:00","11.8335","3.51858","24.823","2.808571428571429","7.44","3.721","2715.437","0","1.88","30.4715","4.77633","31.46","0","SATNPRO1963","23.678","0.33164","5"],
    [40111,"HCEP03730564","2024-11-19 03:00:00","11.7997","3.50128","25.027","2.898571428571429","7.43","3.549","3141.021","0.01","10.9","30.3327","4.75722","32.41","0","SATNPRO1963","23.792","0.33326","5"],
    [40112,"HCEP03730564","2024-11-19 03:15:00","11.7465","3.4684","25.222","3.018571428571429","7.43","3.754","2750.18","0.01","21.94","30.0597","4.71937","33.66","0","SATNPRO1963","23.312","0.32652","5"],
    [40113,"HCEP03730564","2024-11-19 03:30:00","11.758","3.47954","25.404","3.148571428571429","7.43","3.757","2744.489","0","1.33","30.1574","4.73304","35.15","0","SATNPRO1963","23.189999999999998","0.3248","5"],
    [40114,"HCEP03730564","2024-11-19 03:45:00","11.7693","3.48365","25.594","3.07","7.43","3.727","2975.158","0.01","23.37","30.1877","4.73717","34.28","0","SATNPRO1963","23.342","0.32694","5"],
    [40115,"HCEP03730564","2024-11-19 04:00:00","11.8082","3.50481","25.804","2.885714285714286","7.44","3.773","2663.412","0.01","7.63","30.3594","4.76091","32.28","0","SATNPRO1963","23.14","0.32414","5"],
    [40116,"HCEP03730564","2024-11-19 04:15:00","11.8039","3.50066","26.041","2.854285714285714","7.43","3.779","2658.405","0.01","1.88","30.3229","4.75582","31.92","0","SATNPRO1963","23.112","0.32374","5"],
    [40117,"HCEP03730564","2024-11-19 04:30:00","11.8083","3.50123","26.272","2.828571428571429","7.43","3.445","3109.384","0.01","12.7","30.3247","4.75603","31.64","0","SATNPRO1963","23.236","0.32546","5"],
    [40118,"HCEP03730564","2024-11-19 04:45:00","11.8122","3.50421","26.567","2.805714285714286","7.43","3.727","2712.743","0.01","8.37","30.35","4.75957","31.39","0","SATNPRO1963","23.382","0.3275","5"],
    [40119,"HCEP03730564","2024-11-19 05:00:00","11.805","3.50012","26.865","2.814285714285714","7.43","3.726","2706.61","0","1.33","30.3165","4.75496","31.48","0","SATNPRO1963","23.18","0.32466","5"],
    [40120,"HCEP03730564","2024-11-19 05:15:00","11.8039","3.50135","27.111","2.82","7.43","3.577","3016.788","0.01","7.63","30.3291","4.75677","31.55","0","SATNPRO1963","23.16","0.32438","5"],
    [40121,"HCEP03730564","2024-11-19 05:30:00","11.8028","3.50081","27.337","2.855714285714286","7.43","3.693","2656.751","0.01","7.44","30.3247","4.75617","31.94","0","SATNPRO1963","23.246","0.32556","5"],
    [40122,"HCEP03730564","2024-11-19 05:45:00","11.8098","3.50466","27.549","2.834285714285714","7.44","3.691","2655.296","0.01","1.33","30.356","4.7605","31.72","0","SATNPRO1963","23.318","0.3266","5"],
    [40123,"HCEP03730564","2024-11-19 06:00:00","11.8092","3.50428","27.746","2.818571428571429","7.43","3.492","2983.125","0.02","7.67","30.3527","4.76005","31.54","0","SATNPRO1963","23.242","0.32554","5"],
    [40124,"HCEP03730564","2024-11-19 06:15:00","11.8138","3.50786","27.955","2.817142857142857","7.43","3.683","2613.868","0.02","6.55","30.3833","4.76433","31.53","0","SATNPRO1963","23.26","0.3258","5"],
    [40125,"HCEP03730564","2024-11-19 06:30:00","11.8167","3.50994","28.098","2.81","7.43","3.696","2617.647","0.01","1.88","30.4008","4.76677","31.45","0","SATNPRO1963","23.418","0.32798","5"],
    [40126,"HCEP03730564","2024-11-19 06:45:00","11.8173","3.51017","28.18","2.804285714285714","7.45","3.493","3121.351","0.02","10.18","30.4025","4.76701","31.39","0","SATNPRO1963","23.156","0.32432","5"],
    [40127,"HCEP03730564","2024-11-19 07:00:00","11.8184","3.51126","28.269","2.791428571428571","7.43","3.745","2589.771","0.01","12.95","30.4121","4.76835","31.24","0","SATNPRO1963","23.268","0.3259","5"],
    [40128,"HCEP03730564","2024-11-19 07:15:00","11.8174","3.51026","28.283","2.78","7.44","3.751","2586.18","0","0.77","30.4033","4.76712","31.11","0","SATNPRO1963","23.294","0.32628","5"],
    [40129,"HCEP03730564","2024-11-19 07:30:00","11.8165","3.50965","28.362","2.774285714285714","7.43","3.524","3100.481","0.01","8.05","30.3981","4.76641","31.05","0","SATNPRO1963","23.212","0.3251","5"],
    [40130,"HCEP03730564","2024-11-19 07:45:00","11.8144","3.50816","28.388","2.774285714285714","7.43","3.737","2593.342","0.01","10.52","30.3856","4.76467","31.05","0","SATNPRO1963","23.106","0.32366","5"],
    [40131,"HCEP03730564","2024-11-19 08:00:00","11.8182","3.51054","28.394","2.762857142857143","7.43","3.739","2593.331","0.01","2.03","30.4053","4.76739","30.93","0","SATNPRO1963","23.366","0.3273","5"],
    [40132,"HCEP03730564","2024-11-19 08:15:00","11.8163","3.50871","28.425","2.761428571428572","7.42","3.545","2998.401","0.01","6.86","30.3892","4.76516","30.9","0","SATNPRO1963","23.358","0.32718","5"],
    [40133,"HCEP03730564","2024-11-19 08:30:00","11.8114","3.50485","28.475","2.77","7.42","3.725","2607.262","0.01","11.61","30.3561","4.76056","31","0","SATNPRO1963","23.402","0.32774","5"],
    [40134,"HCEP03730564","2024-11-19 08:45:00","11.8067","3.50018","28.5","2.825714285714286","7.43","3.726","2601.643","0","1.53","30.3151","4.75482","31.61","0","SATNPRO1963","23.856","0.33412","5"],
    [40135,"HCEP03730564","2024-11-19 09:00:00","11.8092","3.50157","28.485","2.907142857142858","7.43","3.483","3165.874","0.01","8.81","30.3264","4.75639","32.53","0","SATNPRO1963","23.672","0.33158","5"],
    [40136,"HCEP03730564","2024-11-19 09:15:00","11.822","3.5103","28.412","2.918571428571429","7.43","3.721","2572.604","0.02","4.2","30.3999","4.76658","32.67","0","SATNPRO1963","24.104","0.33762","5"],
    [40137,"HCEP03730564","2024-11-19 09:30:00","11.8305","3.51574","28.355","2.924285714285714","7.43","3.722","2568.684","0","1.33","30.4452","4.77286","32.75","0","SATNPRO1963","24.352","0.3411","5"],
    [40138,"HCEP03730564","2024-11-19 09:45:00","11.8321","3.51696","28.232","2.935714285714286","7.43","3.464","3039.723","0.01","7.24","30.4557","4.77431","32.88","0","SATNPRO1963","24.292","0.34024","5"],
    [40139,"HCEP03730564","2024-11-19 10:00:00","11.8332","3.5177","28.085","2.94","7.44","3.738","2634.665","0.01","11.86","30.462","4.77518","32.93","0","SATNPRO1963","24.402","0.34178","5"],
    [40140,"HCEP03730564","2024-11-19 10:15:00","11.8343","3.51833","27.85","2.971428571428572","7.45","3.739","2636.284","0.01","1.88","30.4672","4.77589","33.29","0","SATNPRO1963","24.512","0.34332","5"],
    [40141,"HCEP03730564","2024-11-19 10:30:00","11.8382","3.52198","27.768","2.938571428571429","7.45","3.535","3057.438","0.01","7.82","30.4991","4.78034","32.93","0","SATNPRO1963","23.874000000000002","0.3344","5"],
    [40142,"HCEP03730564","2024-11-19 10:45:00","11.8383","3.52245","27.668","2.83","7.45","3.702","2583.238","0.01","10.15","30.5036","4.78096","31.71","0","SATNPRO1963","23.638","0.33106","5"],
    [40143,"HCEP03730564","2024-11-19 11:00:00","11.8407","3.52405","27.545","2.814285714285714","7.45","3.703","2577.237","0.01","1.08","30.5171","4.78283","31.54","0","SATNPRO1963","23.838","0.33392","5"],
    [40144,"HCEP03730564","2024-11-19 11:15:00","11.8437","3.52602","27.453","2.808571428571429","7.44","3.479","3074.4","0.01","6.82","30.5336","4.78511","31.49","0","SATNPRO1963","23.916","0.335","5"],
    [40145,"HCEP03730564","2024-11-19 11:30:00","11.845","3.52659","27.365","2.821428571428572","7.44","3.689","2557.532","0.02","6.55","30.538","4.78571","31.62","0","SATNPRO1963","23.932000000000002","0.33522","5"],
    [40146,"HCEP03730564","2024-11-19 11:45:00","11.8467","3.52774","27.32","2.828571428571429","7.45","3.694","2558.276","0.01","2.17","30.5478","4.78706","31.7","0","SATNPRO1963","24.06","0.33702","5"],
    [40147,"HCEP03730564","2024-11-19 12:00:00","11.8471","3.52845","27.243","2.804285714285714","7.45","3.468","2957.912","0.01","19.26","30.5543","4.78797","31.44","0","SATNPRO1963","23.904","0.33482","5"],
    [40148,"HCEP03730564","2024-11-19 12:15:00","11.8478","3.52904","27.152","2.79","7.45","3.646","2516.576","0","7.11","30.5593","4.78866","31.29","0","SATNPRO1963","23.882","0.33454","5"],
    [40149,"HCEP03730564","2024-11-19 12:30:00","11.848","3.52935","27.085","2.767142857142857","7.45","3.645","2516.72","0","1.72","30.5622","4.78907","31.03","0","SATNPRO1963","23.830000000000002","0.33376","5"],
    [40150,"HCEP03730564","2024-11-19 12:45:00","11.8486","3.52983","27.003","2.76","7.44","3.372","3038.946","0.01","5.89","30.5663","4.78964","30.94","0","SATNPRO1963","23.732","0.33242","5"],
    [40151,"HCEP03730564","2024-11-19 13:00:00","11.8495","3.53036","26.937","2.754285714285714","7.44","3.68","2454.098","0.01","9.4","30.5707","4.79024","30.88","0","SATNPRO1963","23.856","0.33412","5"],
    [40152,"HCEP03730564","2024-11-19 13:15:00","11.8504","3.53088","26.916","2.787142857142857","7.45","3.683","2453.247","0","0.77","30.575","4.79083","31.25","0","SATNPRO1963","24.168","0.33852","5"],
    [40153,"HCEP03730564","2024-11-19 13:30:00","11.8515","3.53132","26.869","2.81","7.44","3.434","2906.751","0.01","5.94","30.5783","4.79128","31.51","0","SATNPRO1963","24.324","0.34066","5"],
    [40154,"HCEP03730564","2024-11-19 13:45:00","11.8531","3.53256","26.881","2.828571428571429","7.44","3.655","2440.574","0.02","3.91","30.5889","4.79275","31.72","0","SATNPRO1963","24.316","0.34058","5"],
    [40155,"HCEP03730564","2024-11-19 14:00:00","11.8547","3.53359","26.889","2.867142857142857","7.44","3.662","2438.275","0.01","0","30.5975","4.79394","32.16","0","SATNPRO1963","24.248","0.33962","5"],
    [40156,"HCEP03730564","2024-11-19 14:15:00","11.8548","3.53369","26.909","2.887142857142857","7.44","3.362","2958.858","0.01","10.71","30.5984","4.79407","32.39","0","SATNPRO1963","24.386","0.34154","5"],
    [40157,"HCEP03730564","2024-11-19 14:30:00","11.8565","3.53501","26.948","2.897142857142857","7.44","3.613","2406.416","0.02","6.28","30.6096","4.79563","32.49","0","SATNPRO1963","24.648","0.34524","5"],
    [40158,"HCEP03730564","2024-11-19 14:45:00","11.8569","3.53543","26.965","2.921428571428571","7.44","3.616","2410.431","0.01","1.88","30.6133","4.79615","32.77","0","SATNPRO1963","24.418","0.342","5"],
    [40159,"HCEP03730564","2024-11-19 15:00:00","11.8579","3.53631","27.01","2.922857142857143","7.44","3.413","2896.239","0.01","8.61","30.621","4.79722","32.79","0","SATNPRO1963","24.536","0.34364","5"],
    [40160,"HCEP03730564","2024-11-19 15:15:00","11.8588","3.53694","27.042","2.922857142857143","7.44","3.649","2383.862","0.02","5.69","30.6263","4.79796","32.8","0","SATNPRO1963","24.312","0.34054","5"],
    [40161,"HCEP03730564","2024-11-19 15:30:00","11.8595","3.53765","27.081","2.964285714285714","7.45","3.659","2386.866","0.01","1.53","30.6325","4.79883","33.26","0","SATNPRO1963","24.454","0.3425","5"],
    [40162,"HCEP03730564","2024-11-19 15:45:00","11.8594","3.53776","27.137","2.947142857142858","7.45","3.472","2909.507","0.01","4.73","30.6337","4.799","33.07","0","SATNPRO1963","24.35","0.34108","5"],
    [40163,"HCEP03730564","2024-11-19 16:00:00","11.8603","3.53833","27.185","2.957142857142857","7.45","3.695","2497.913","0.01","9.79","30.6383","4.79964","33.18","0","SATNPRO1963","24.526","0.34356","5"],
    [40164,"HCEP03730564","2024-11-19 16:15:00","11.8601","3.5385","27.231","2.932857142857143","7.45","3.7","2496.538","0.01","2.3","30.6401","4.7999","32.92","0","SATNPRO1963","24.438","0.34228","5"],
    [40165,"HCEP03730564","2024-11-19 16:30:00","11.8604","3.53838","27.269","2.96","7.45","3.489","2892.172","0","7.86","30.6388","4.7997","33.22","0","SATNPRO1963","24.47","0.34274","5"],
    [40166,"HCEP03730564","2024-11-19 16:45:00","11.8603","3.53849","27.293","2.935714285714286","7.45","3.722","2638.91","0.01","5.84","30.6399","4.79987","32.95","0","SATNPRO1963","24.42","0.34206","5"],
    [40167,"HCEP03730564","2024-11-19 17:00:00","11.860900000000001","3.53889","27.343","2.932857142857143","7.45","3.726","2642.539","0","0","30.6432","4.80033","32.92","0","SATNPRO1963","24.406","0.34184","5"],
    [40168,"HCEP03730564","2024-11-19 17:15:00","11.8603","3.53878","27.377","2.947142857142858","7.45","3.516","3054.636","0.01","11.48","30.6426","4.80025","33.06","0","SATNPRO1963","24.59","0.34442","5"],
    [40169,"HCEP03730564","2024-11-19 17:30:00","11.8605","3.53873","27.403","2.931428571428572","7.45","3.741","2713.299","0.01","15.44","30.642","4.80016","32.89","0","SATNPRO1963","24.364","0.34126","5"],
    [40170,"HCEP03730564","2024-11-19 17:45:00","11.8602","3.53853","27.39","2.934285714285714","7.45","3.74","2709.249","0","3.16","30.6403","4.79993","32.93","0","SATNPRO1963","24.604","0.34462","5"],
    [40171,"HCEP03730564","2024-11-19 18:00:00","11.8594","3.53802","27.4","2.917142857142857","7.45","3.54","3070.77","0.01","10.29","30.6361","4.79936","32.72","0","SATNPRO1963","24.35","0.34112","5"],
    [40172,"HCEP03730564","2024-11-19 18:15:00","11.8584","3.53726","27.372","2.912857142857143","7.44","3.708","2726.655","0","14","30.6296","4.79845","32.68","0","SATNPRO1963","24.228","0.33936","5"],
    [40173,"HCEP03730564","2024-11-19 18:30:00","11.8573","3.53632","27.344","2.904285714285714","7.45","3.716","2727.449","0","1.53","30.6214","4.79731","32.58","0","SATNPRO1963","24.568","0.34408","5"],
    [40174,"HCEP03730564","2024-11-19 18:45:00","11.8564","3.53532","27.339","2.871428571428571","7.45","3.576","3088.679","0.01","11.79","30.6125","4.79606","32.21","0","SATNPRO1963","24.266000000000002","0.33988","5"],
    [40175,"HCEP03730564","2024-11-19 19:00:00","11.8554","3.53405","27.312","2.877142857142857","7.45","3.74","2698.843","0.01","7.94","30.6012","4.79448","32.27","0","SATNPRO1963","24.232","0.3394","5"],
    [40176,"HCEP03730564","2024-11-19 19:15:00","11.8548","3.53332","27.263","2.898571428571429","7.46","3.74","2690.921","0.01","1.88","30.5946","4.79356","32.51","0","SATNPRO1963","24.554","0.34392","5"],
    [40177,"HCEP03730564","2024-11-19 19:30:00","11.8531","3.5323","27.22","2.9","7.45","3.676","2900.482","0.01","4.85","30.5863","4.79241","32.52","0","SATNPRO1963","24.424","0.34208","5"],
    [40178,"HCEP03730564","2024-11-19 19:45:00","11.8522","3.53125","27.08","2.877142857142857","7.46","3.729","2551.537","0.01","7.63","30.577","4.79109","32.27","0","SATNPRO1963","24.308","0.3405","5"],
    [40179,"HCEP03730564","2024-11-19 20:00:00","11.8507","3.53022","26.979","2.867142857142857","7.46","3.729","2542.894","0","0.77","30.5684","4.7899","32.16","0","SATNPRO1963","24.472","0.34272","5"],
    [40180,"HCEP03730564","2024-11-19 20:15:00","11.8502","3.52987","26.805","2.865714285714286","7.46","3.622","2861.064","0.01","10.41","30.5655","4.78948","32.13","0","SATNPRO1963","24.274","0.33998","5"],
    [40181,"HCEP03730564","2024-11-19 20:30:00","11.8488","3.52888","26.655","2.848571428571429","7.45","3.704","2623.768","0.01","6.51","30.5572","4.78832","31.94","0","SATNPRO1963","24.144000000000002","0.3382","5"],
    [40182,"HCEP03730564","2024-11-19 20:45:00","11.842","3.52425","26.476","2.847142857142857","7.45","3.699","2619.388","0.01","1.88","30.5184","4.78293","31.92","0","SATNPRO1963","24.368","0.34132","5"],
    [40183,"HCEP03730564","2024-11-19 21:00:00","11.8419","3.52397","26.332","2.854285714285714","7.44","3.542","2944.948","0.01","9.24","30.5158","4.78255","32","0","SATNPRO1963","24.28","0.34004","5"],
    [40184,"HCEP03730564","2024-11-19 21:15:00","11.841","3.523","26.146","2.854285714285714","7.44","3.688","2512.465","0.01","8.15","30.5072","4.78135","31.99","0","SATNPRO1963","24.22","0.33922","5"],
    [40185,"HCEP03730564","2024-11-19 21:30:00","11.8404","3.52264","25.92","2.857142857142857","7.44","3.687","2507.7","0","1.33","30.5044","4.78095","32.01","0","SATNPRO1963","24.3","0.34034","5"],
    [40186,"HCEP03730564","2024-11-19 21:45:00","11.8419","3.52372","25.727","2.857142857142857","7.44","3.499","2902.684","0.01","10.03","30.5137","4.78222","32.02","0","SATNPRO1963","24.326","0.34074","5"],
    [40187,"HCEP03730564","2024-11-19 22:00:00","11.8425","3.52421","25.512","2.855714285714286","7.44","3.686","2556.772","0.01","21.89","30.5179","4.7828","32.01","0","SATNPRO1963","24.374","0.34136","5"],
    [40188,"HCEP03730564","2024-11-19 22:15:00","11.8416","3.52386","25.327","2.848571428571429","7.44","3.684","2545.298","0","1.72","30.5154","4.78244","31.92","0","SATNPRO1963","24.282","0.3401","5"],
    [40189,"HCEP03730564","2024-11-19 22:30:00","11.841","3.52369","25.145","2.834285714285714","7.44","3.499","2899.447","0.01","6.82","30.5143","4.78229","31.77","0","SATNPRO1963","24.24","0.33956","5"],
    [40190,"HCEP03730564","2024-11-19 22:45:00","11.8405","3.52335","24.98","2.817142857142857","7.44","3.697","2489.161","0.01","4.54","30.5115","4.7819","31.57","0","SATNPRO1963","24.256","0.33972","5"],
    [40191,"HCEP03730564","2024-11-19 23:00:00","11.84","3.52311","24.899","2.815714285714286","7.44","3.698","2483.376","0.01","1.88","30.5096","4.78164","31.56","0","SATNPRO1963","24.236","0.33944","5"],
    [40192,"HCEP03730564","2024-11-19 23:15:00","11.8403","3.52303","24.783","2.832857142857143","7.43","3.475","2928.606","0","9.33","30.5087","4.78149","31.74","0","SATNPRO1963","24.214","0.33916","5"],
    [40193,"HCEP03730564","2024-11-19 23:30:00","11.8403","3.52325","24.642","2.822857142857143","7.43","3.683","2603.998","0.01","27.62","30.5109","4.7818","31.64","0","SATNPRO1963","24.198","0.3389","5"],
    [40194,"HCEP03730564","2024-11-19 23:45:00","11.8405","3.52323","24.52","2.815714285714286","7.43","3.682","2601.021","0","2.17","30.5106","4.78175","31.55","0","SATNPRO1963","24.291999999999998","0.34024","5"],
    [40195,"HCEP03730564","2024-11-20 00:00:00","11.8411","3.52347","24.42","2.811428571428571","7.43","3.498","3058.44","0","7.67","30.5124","4.78198","31.5","0","SATNPRO1963","24.246","0.33962","5"],
    [40196,"HCEP03730564","2024-11-20 00:15:00","11.8407","3.52337","24.357","2.804285714285714","7.43","3.66","2610.973","0.01","14.37","30.5118","4.7819","31.42","0","SATNPRO1963","24.268","0.33996","5"],
    [40197,"HCEP03730564","2024-11-20 00:30:00","11.8407","3.52312","24.345","2.8","7.43","3.66","2608.666","0","1.53","30.5093","4.78155","31.38","0","SATNPRO1963","24.224","0.33928","5"],
    [40198,"HCEP03730564","2024-11-20 00:45:00","11.8422","3.52405","24.322","2.778571428571429","7.42","3.476","3024.973","0","6.37","30.5171","4.78262","31.15","0","SATNPRO1963","23.994","0.33608","5"],
    [40199,"HCEP03730564","2024-11-20 01:00:00","11.8424","3.52446","24.315","2.772857142857143","7.42","3.654","2608.065","0.01","15.11","30.5209","4.78316","31.08","0","SATNPRO1963","24.262","0.33984","5"],
    [40200,"HCEP03730564","2024-11-20 01:15:00","11.8431","3.52489","24.297","2.772857142857143","7.42","3.659","2603.699","0.01","2.66","30.5244","4.78364","31.08","0","SATNPRO1963","24.06","0.33698","5"],
    [40201,"HCEP03730564","2024-11-20 01:30:00","11.8437","3.52542","24.412","2.778571428571429","7.43","3.492","2913.145","0.01","5.69","30.529","4.78429","31.15","0","SATNPRO1963","24.398","0.34174","5"],
    [40202,"HCEP03730564","2024-11-20 01:45:00","11.8441","3.52553","24.512","2.775714285714286","7.43","3.67","2498.74","0.01","6.46","30.5296","4.78438","31.11","0","SATNPRO1963","24.176","0.33864","5"],
    [40203,"HCEP03730564","2024-11-20 02:00:00","11.8435","3.52519","24.548","2.768571428571429","7.43","3.671","2496.002","0","1.88","30.5269","4.78401","31.03","0","SATNPRO1963","24.126","0.33794","5"],
    [40204,"HCEP03730564","2024-11-20 02:15:00","11.843","3.5249","24.604","2.758571428571429","7.42","3.432","3012.66","0.01","8.51","30.5245","4.78368","30.91","0","SATNPRO1963","23.898","0.3347","5"],
    [40205,"HCEP03730564","2024-11-20 02:30:00","11.8435","3.52546","24.694","2.741428571428572","7.43","3.663","2599.141","0.01","8.33","30.5295","4.78437","30.73","0","SATNPRO1963","24.024","0.33652","5"],
    [40206,"HCEP03730564","2024-11-20 02:45:00","11.8429","3.52539","24.788","2.734285714285714","7.42","3.66","2595.987","0.01","2.43","30.5292","4.78435","30.65","0","SATNPRO1963","23.858","0.33416","5"],
    [40207,"HCEP03730564","2024-11-20 03:00:00","11.8407","3.52521","24.92","2.702857142857143","7.42","3.49","3014.413","0.01","11.17","30.5292","4.78439","30.3","0","SATNPRO1963","23.494","0.32908","5"],
    [40208,"HCEP03730564","2024-11-20 03:15:00","11.8397","3.52531","25.076","2.652857142857143","7.42","3.682","2771.129","0.01","6.04","30.531","4.78466","29.74","0","SATNPRO1963","23.51","0.32928","5"],
    [40209,"HCEP03730564","2024-11-20 03:30:00","11.8337","3.52198","25.244","2.668571428571429","7.42","3.679","2763.628","0","1.72","30.5038","4.78092","29.9","0","SATNPRO1963","23.580000000000002","0.33024","5"],
    [40210,"HCEP03730564","2024-11-20 03:45:00","11.7873","3.49475","25.442","2.788571428571429","7.41","3.534","3004.512","0.01","9.08","30.2799","4.74995","31.16","0","SATNPRO1963","23.541999999999998","0.32972","5"],
    [40211,"HCEP03730564","2024-11-20 04:00:00","11.7834","3.49183","25.599","2.915714285714286","7.41","3.703","2653.629","0.01","10.35","30.2549","4.74648","32.58","0","SATNPRO1963","23.573999999999998","0.3302","5"],
    [40212,"HCEP03730564","2024-11-20 04:15:00","11.7949","3.50247","25.766","2.851428571428571","7.41","3.706","2643.261","0","1.08","30.3477","4.75945","31.89","0","SATNPRO1963","23.674","0.3316","5"],
    [40213,"HCEP03730564","2024-11-20 04:30:00","11.8265","3.51768","25.999","2.724285714285714","7.41","3.628","2989.886","0.01","5.58","30.4681","4.77602","30.51","0","SATNPRO1963","23.078","0.32326","5"],
    [40214,"HCEP03730564","2024-11-20 04:45:00","11.8327","3.52017","26.229","2.672857142857143","7.42","3.745","2897.117","0.01","8.98","30.4868","4.77859","29.95","0","SATNPRO1963","23.51","0.3293","5"],
    [40215,"HCEP03730564","2024-11-20 05:00:00","11.8348","3.52056","26.427","2.691428571428571","7.42","3.753","2889.458","0","2.3","30.4888","4.77886","30.16","0","SATNPRO1963","23.474","0.32878","5"],
    [40216,"HCEP03730564","2024-11-20 05:15:00","11.8268","3.51579","26.658","2.71","7.42","3.637","3021.082","0.01","6.09","30.4494","4.77342","30.35","0","SATNPRO1963","23.476","0.3288","5"],
    [40217,"HCEP03730564","2024-11-20 05:30:00","11.8191","3.51127","26.797","2.742857142857143","7.42","3.729","2757.081","0.01","9.79","30.4122","4.76827","30.7","0","SATNPRO1963","23.528","0.32952","5"],
    [40218,"HCEP03730564","2024-11-20 05:45:00","11.8118","3.50617","26.994","2.784285714285714","7.42","3.733","2748.428","0","0","30.369","4.76229","31.15","0","SATNPRO1963","23.682","0.33166","5"],
    [40219,"HCEP03730564","2024-11-20 06:00:00","11.812","3.50591","27.151","2.788571428571429","7.42","3.551","3066.181","0.01","14.66","30.3664","4.76192","31.2","0","SATNPRO1963","23.592","0.33046","5"],
    [40220,"HCEP03730564","2024-11-20 06:15:00","11.8033","3.50156","27.333","2.768571428571429","7.41","3.702","2657.309","0.01","10.41","30.3315","4.75712","30.97","0","SATNPRO1963","23.588","0.3304","5"],
    [40221,"HCEP03730564","2024-11-20 06:30:00","11.7996","3.4983","27.589","2.747142857142857","7.41","3.703","2654.553","0.01","1.08","30.3031","4.75317","30.73","0","SATNPRO1963","23.35","0.32708","5"],
    [40222,"HCEP03730564","2024-11-20 06:45:00","11.7964","3.4963","27.716","2.732857142857143","7.41","3.543","3014.421","0.01","14.51","30.2865","4.75088","30.56","0","SATNPRO1963","23.073999999999998","0.32318","5"],
    [40223,"HCEP03730564","2024-11-20 07:00:00","11.7982","3.49753","27.875","2.714285714285714","7.41","3.7","2704.245","0.01","15.19","30.2967","4.75231","30.35","0","SATNPRO1963","23.08","0.32328","5"],
    [40224,"HCEP03730564","2024-11-20 07:15:00","11.8041","3.50092","27.983","2.7","7.41","3.699","2697.934","0.01","0","30.3245","4.75616","30.2","0","SATNPRO1963","23.09","0.32344","5"],
    [40225,"HCEP03730564","2024-11-20 07:30:00","11.8067","3.50251","28.14","2.661428571428572","7.4","3.495","3032.509","0","14.37","30.3376","4.75798","29.78","0","SATNPRO1963","23.194","0.32488","5"],
    [40226,"HCEP03730564","2024-11-20 07:45:00","11.807","3.50283","28.224","2.632857142857143","7.41","3.696","2641.884","0.01","11.46","30.3404","4.75838","29.45","0","SATNPRO1963","22.858","0.32014","5"],
    [40227,"HCEP03730564","2024-11-20 08:00:00","11.8062","3.50222","28.302","2.62","7.41","3.696","2631.993","0.01","1.88","30.3352","4.75766","29.3","0","SATNPRO1963","22.862000000000002","0.32024","5"],
    [40228,"HCEP03730564","2024-11-20 08:15:00","11.8056","3.50166","28.37","2.607142857142857","7.4","3.56","2937.973","0","6.95","30.3302","4.75696","29.16","0","SATNPRO1963","22.998","0.32214","5"],
    [40229,"HCEP03730564","2024-11-20 08:30:00","11.8052","3.50148","28.419","2.591428571428572","7.4","3.666","2615.305","0.01","6.33","30.3288","4.75678","28.99","0","SATNPRO1963","22.804000000000002","0.3194","5"],
    [40230,"HCEP03730564","2024-11-20 08:45:00","11.8046","3.50117","28.472","2.592857142857143","7.4","3.667","2603.586","0.01","1.88","30.3263","4.75644","29.01","0","SATNPRO1963","22.802","0.31934","5"],
    [40231,"HCEP03730564","2024-11-20 09:00:00","11.8053","3.50177","28.533","2.588571428571428","7.4","3.475","3105.082","0","7.59","30.3314","4.75715","28.96","0","SATNPRO1963","22.948","0.32144","5"],
    [40232,"HCEP03730564","2024-11-20 09:15:00","11.8067","3.50275","28.597","2.602857142857143","7.41","3.655","2750.777","0.01","14.99","30.3397","4.7583","29.11","0","SATNPRO1963","22.952","0.32148","5"],
    [40233,"HCEP03730564","2024-11-20 09:30:00","11.8062","3.50235","28.622","2.602857142857143","7.41","3.659","2746.119","0","1.33","30.3363","4.75784","29.12","0","SATNPRO1963","22.934","0.3212","5"],
    [40234,"HCEP03730564","2024-11-20 09:45:00","11.803","3.5003","28.519","2.634285714285714","7.41","3.524","3073.187","0.01","5.37","30.3192","4.75546","29.46","0","SATNPRO1963","23.124","0.32386","5"],
    [40235,"HCEP03730564","2024-11-20 10:00:00","11.797","3.49771","28.487","2.658571428571429","7.41","3.702","2628.639","0.01","6.55","30.2992","4.75271","29.72","0","SATNPRO1963","23.038","0.3227","5"],
    [40236,"HCEP03730564","2024-11-20 10:15:00","11.8011","3.50135","28.336","2.677142857142858","7.41","3.698","2618.764","0.01","1.08","30.3309","4.75712","29.94","0","SATNPRO1963","22.946","0.32138","5"],
    [40237,"HCEP03730564","2024-11-20 10:30:00","11.8103","3.50898","28.154","2.632857142857143","7.41","3.506","2907.794","0","9.73","30.3968","4.7663","29.47","0","SATNPRO1963","22.69","0.3178","5"],
    [40238,"HCEP03730564","2024-11-20 10:45:00","11.8194","3.5146","28.086","2.572857142857143","7.41","3.641","2474.219","0.01","19.32","30.4434","4.77275","28.8","0","SATNPRO1963","22.556","0.31598","5"],
    [40239,"HCEP03730564","2024-11-20 11:00:00","11.8273","3.51858","27.963","2.531428571428572","7.42","3.639","2470.967","0","2.17","30.4753","4.77713","28.36","0","SATNPRO1963","22.874","0.3204","5"],
    [40240,"HCEP03730564","2024-11-20 11:15:00","11.8343","3.52226","27.903","2.518571428571429","7.41","3.319","3003.335","0.01","9.04","30.5049","4.78122","28.23","0","SATNPRO1963","23.01","0.32232","5"],
    [40241,"HCEP03730564","2024-11-20 11:30:00","11.8331","3.52113","27.787","2.555714285714286","7.41","3.6","2470.766","0.01","4.41","30.4951","4.77984","28.63","0","SATNPRO1963","23.238","0.32546","5"],
    [40242,"HCEP03730564","2024-11-20 11:45:00","11.8342","3.52218","27.686","2.584285714285714","7.41","3.599","2472.766","0","1.72","30.5044","4.78113","28.95","0","SATNPRO1963","23.052","0.32286","5"],
    [40243,"HCEP03730564","2024-11-20 12:00:00","11.8356","3.52295","27.636","2.611428571428572","7.41","3.355","2882.933","0","6.04","30.5107","4.782","29.26","0","SATNPRO1963","23.392","0.32762","5"],
    [40244,"HCEP03730564","2024-11-20 12:15:00","11.8386","3.52424","27.538","2.622857142857143","7.41","3.57","2390.171","0.01","6.37","30.5206","4.78335","29.39","0","SATNPRO1963","23.304","0.32638","5"],
    [40245,"HCEP03730564","2024-11-20 12:30:00","11.8405","3.52559","27.435","2.607142857142857","7.42","3.566","2392.637","0.01","2.17","30.5321","4.78494","29.23","0","SATNPRO1963","23.226","0.32534","5"],
    [40246,"HCEP03730564","2024-11-20 12:45:00","11.8416","3.52647","27.355","2.612857142857143","7.41","3.287","2931.348","0.01","5.79","30.5397","4.78599","29.29","0","SATNPRO1963","23.402","0.32774","5"],
    [40247,"HCEP03730564","2024-11-20 13:00:00","11.8439","3.52795","27.269","2.615714285714286","7.41","3.566","2447.449","0.01","17.53","30.552","4.78769","29.33","0","SATNPRO1963","23.362","0.3272","5"],
    [40248,"HCEP03730564","2024-11-20 13:15:00","11.8437","3.52785","27.185","2.618571428571429","7.41","3.565","2448.823","0.01","1.72","30.5513","4.7876","29.35","0","SATNPRO1963","23.608","0.33068","5"],
    [40249,"HCEP03730564","2024-11-20 13:30:00","11.8439","3.52808","27.114","2.597142857142857","7.4","3.249","3015.77","0","6.42","30.5533","4.78787","29.11","0","SATNPRO1963","23.386","0.32756","5"],
    [40250,"HCEP03730564","2024-11-20 13:45:00","11.8448","3.5286","27.028","2.584285714285714","7.4","3.585","2540.7","0","8.19","30.5576","4.78846","28.97","0","SATNPRO1963","23.456","0.32856","5"],
    [40251,"HCEP03730564","2024-11-20 14:00:00","11.8452","3.52906","26.977","2.595714285714286","7.41","3.585","2547.425","0","0.77","30.5617","4.78903","29.09","0","SATNPRO1963","23.35","0.32708","5"],
    [40252,"HCEP03730564","2024-11-20 14:15:00","11.8463","3.52963","26.934","2.591428571428572","7.41","3.284","3067.461","0","7.32","30.5663","4.78966","29.06","0","SATNPRO1963","23.554","0.32992","5"],
    [40253,"HCEP03730564","2024-11-20 14:30:00","11.8472","3.52999","26.909","2.595714285714286","7.4","3.579","2508.21","0.01","9.7","30.5691","4.79004","29.11","0","SATNPRO1963","23.644000000000002","0.3312","5"],
    [40254,"HCEP03730564","2024-11-20 14:45:00","11.8474","3.53002","26.864","2.605714285714286","7.4","3.585","2510.847","0","1.72","30.5692","4.79005","29.22","0","SATNPRO1963","23.676","0.3316","5"],
    [40255,"HCEP03730564","2024-11-20 15:00:00","11.8476","3.53006","26.873","2.604285714285714","7.4","3.472","2909.849","0.01","8.51","30.5695","4.79009","29.21","0","SATNPRO1963","23.772","0.33296","5"],
    [40256,"HCEP03730564","2024-11-20 15:15:00","11.8463","3.52929","26.89","2.598571428571429","7.4","3.581","2469.965","0.02","8.78","30.5631","4.7892","29.14","0","SATNPRO1963","23.402","0.3278","5"],
    [40257,"HCEP03730564","2024-11-20 15:30:00","11.8453","3.52869","26.931","2.595714285714286","7.41","3.586","2465.591","0","1.33","30.5582","4.78852","29.1","0","SATNPRO1963","23.732","0.3324","5"],
    [40258,"HCEP03730564","2024-11-20 15:45:00","11.8439","3.52781","26.948","2.592857142857143","7.4","3.339","3043.155","0","6.46","30.5509","4.78752","29.06","0","SATNPRO1963","23.54","0.32974","5"],
    [40259,"HCEP03730564","2024-11-20 16:00:00","11.8423","3.52689","26.99","2.591428571428572","7.41","3.598","2487.688","0.01","5.2","30.5433","4.78647","29.05","0","SATNPRO1963","23.462","0.32864","5"],
    [40260,"HCEP03730564","2024-11-20 16:15:00","11.8413","3.52633","27.043","2.585714285714286","7.41","3.598","2486.028","0","0.77","30.5387","4.78584","28.98","0","SATNPRO1963","23.567999999999998","0.33004","5"],
    [40261,"HCEP03730564","2024-11-20 16:30:00","11.8403","3.52563","27.119","2.582857142857143","7.41","3.354","2987.052","0.01","7.56","30.5328","4.78502","28.95","0","SATNPRO1963","23.47","0.32872","5"],
    [40262,"HCEP03730564","2024-11-20 16:45:00","11.8395","3.52514","27.197","2.578571428571429","7.41","3.594","2517.151","0.01","15.29","30.5287","4.78446","28.89","0","SATNPRO1963","23.488","0.32896","5"],
    [40263,"HCEP03730564","2024-11-20 17:00:00","11.8393","3.52501","27.206","2.558571428571429","7.41","3.593","2512.921","0","1.53","30.5276","4.78431","28.68","0","SATNPRO1963","23.258","0.32572","5"],
    [40264,"HCEP03730564","2024-11-20 17:15:00","11.8374","3.52421","27.251","2.541428571428571","7.41","3.386","3028.032","0.01","7.97","30.5215","4.78347","28.48","0","SATNPRO1963","23.502","0.32922","5"],
    [40265,"HCEP03730564","2024-11-20 17:30:00","11.8368","3.52371","27.24","2.537142857142857","7.41","3.626","2481.491","0.01","10.18","30.5171","4.78287","28.44","0","SATNPRO1963","23.264","0.32588","5"],
    [40266,"HCEP03730564","2024-11-20 17:45:00","11.8372","3.52342","27.29","2.534285714285714","7.41","3.625","2480.965","0","1.53","30.514","4.78243","28.4","0","SATNPRO1963","23.38","0.3275","5"],
    [40267,"HCEP03730564","2024-11-20 18:00:00","11.839","3.52422","27.299","2.57","7.4","3.361","3022.772","0.01","5.48","30.5202","4.78328","28.81","0","SATNPRO1963","23.732","0.33238","5"],
    [40268,"HCEP03730564","2024-11-20 18:15:00","11.8405","3.52501","27.307","2.61","7.4","3.626","2418.433","0.01","6.28","30.5265","4.78414","29.26","0","SATNPRO1963","23.706","0.33204","5"],
    [40269,"HCEP03730564","2024-11-20 18:30:00","11.8387","3.52372","27.222","2.655714285714286","7.4","3.625","2417.721","0","1.53","30.5156","4.78263","29.76","0","SATNPRO1963","24.02","0.33642","5"],
    [40270,"HCEP03730564","2024-11-20 18:45:00","11.8385","3.52373","27.2","2.677142857142858","7.4","3.368","2944.422","0.01","7.24","30.5159","4.78267","30","0","SATNPRO1963","23.874","0.3344","5"],
    [40271,"HCEP03730564","2024-11-20 19:00:00","11.8378","3.52376","27.183","2.657142857142858","7.4","3.616","2371.556","0.01","4.41","30.5168","4.7828","29.77","0","SATNPRO1963","23.742","0.33252","5"],
    [40272,"HCEP03730564","2024-11-20 19:15:00","11.8386","3.52422","27.223","2.641428571428572","7.41","3.616","2369.364","0.01","1.33","30.5206","4.78333","29.6","0","SATNPRO1963","23.722","0.33228","5"],
    [40273,"HCEP03730564","2024-11-20 19:30:00","11.8432","3.52728","27.268","2.654285714285714","7.41","3.343","2815.481","0.01","8.51","30.5462","4.78688","29.75","0","SATNPRO1963","24.034","0.33662","5"],
    [40274,"HCEP03730564","2024-11-20 19:45:00","11.841","3.52568","27.262","2.681428571428572","7.41","3.638","2358.208","0.01","12.03","30.5327","4.785","30.05","0","SATNPRO1963","23.976","0.33584","5"],
    [40275,"HCEP03730564","2024-11-20 20:00:00","11.8393","3.5244","27.246","2.665714285714286","7.41","3.639","2354.058","0","1.33","30.5217","4.78348","29.88","0","SATNPRO1963","23.84","0.33392","5"],
    [40276,"HCEP03730564","2024-11-20 20:15:00","11.835","3.52171","27.206","2.65","7.41","3.431","2726.238","0","8.85","30.4994","4.78039","29.69","0","SATNPRO1963","23.632","0.331","5"],
    [40277,"HCEP03730564","2024-11-20 20:30:00","11.8322","3.5197","27.167","2.65","7.41","3.647","2339.511","0","9.52","30.4824","4.77803","29.68","0","SATNPRO1963","23.796","0.33326","5"],
    [40278,"HCEP03730564","2024-11-20 20:45:00","11.8284","3.51723","27.084","2.655714285714286","7.41","3.647","2329.242","0","1.08","30.4618","4.77516","29.75","0","SATNPRO1963","23.77","0.33294","5"],
    [40279,"HCEP03730564","2024-11-20 21:00:00","11.8239","3.51442","26.994","2.642857142857143","7.4","3.418","2812.69","0.01","6.9","30.4384","4.77192","29.6","0","SATNPRO1963","23.584","0.33038","5"],
    [40280,"HCEP03730564","2024-11-20 21:15:00","11.8184","3.51104","26.897","2.62","7.4","3.653","2378.185","0.01","11.91","30.4105","4.76806","29.34","0","SATNPRO1963","23.438","0.32826","5"],
    [40281,"HCEP03730564","2024-11-20 21:30:00","11.8136","3.50808","26.797","2.587142857142857","7.4","3.653","2370.818","0.01","0.77","30.386","4.76466","28.96","0","SATNPRO1963","23.082","0.3233","5"],
    [40282,"HCEP03730564","2024-11-20 21:45:00","11.8112","3.50679","26.663","2.562857142857143","7.4","3.475","2725.445","0.01","8.08","30.3756","4.76321","28.68","0","SATNPRO1963","23.072","0.32314","5"],
    [40283,"HCEP03730564","2024-11-20 22:00:00","11.8099","3.50592","26.533","2.551428571428572","7.4","3.645","2432.017","0.01","9.21","30.3684","4.7622","28.54","0","SATNPRO1963","22.872","0.32036","5"],
    [40284,"HCEP03730564","2024-11-20 22:15:00","11.8085","3.50523","26.4","2.541428571428571","7.4","3.648","2426.767","0","1.53","30.363","4.76144","28.44","0","SATNPRO1963","23","0.32214","5"],
    [40285,"HCEP03730564","2024-11-20 22:30:00","11.8075","3.50463","26.242","2.534285714285714","7.4","3.448","2871.132","0","5.79","30.358","4.76076","28.36","0","SATNPRO1963","22.636","0.31706","5"],
    [40286,"HCEP03730564","2024-11-20 22:45:00","11.806","3.50398","26.074","2.53","7.4","3.641","2412.863","0.01","5.15","30.3531","4.76008","28.3","0","SATNPRO1963","23.146","0.32418","5"],
    [40287,"HCEP03730564","2024-11-20 23:00:00","11.8062","3.5039","25.893","2.522857142857143","7.4","3.644","2412.969","0","1.33","30.3522","4.75993","28.23","0","SATNPRO1963","23.512","0.32932","5"],
    [40288,"HCEP03730564","2024-11-20 23:15:00","11.8065","3.50404","25.701","2.52","7.4","3.424","2841.974","0.01","7.56","30.3534","4.76008","28.19","0","SATNPRO1963","23.148","0.32424","5"],
    [40289,"HCEP03730564","2024-11-20 23:30:00","11.8065","3.50417","25.524","2.514285714285714","7.39","3.624","2402.127","0.01","6.28","30.3547","4.76025","28.12","0","SATNPRO1963","22.898","0.32076","5"],
    [40290,"HCEP03730564","2024-11-20 23:45:00","11.8067","3.50451","25.34","2.517142857142857","7.4","3.628","2399.302","0","1.08","30.3578","4.76069","28.16","0","SATNPRO1963","23.032","0.32262","5"],
    [40291,"HCEP03730564","2024-11-21 00:00:00","11.8089","3.50546","25.155","2.52","7.39","3.389","2829.194","0","7.9","30.3653","4.76171","28.19","0","SATNPRO1963","22.892","0.3206","5"],
    [40292,"HCEP03730564","2024-11-21 00:15:00","11.811","3.50656","24.995","2.507142857142857","7.4","3.632","2367.605","0.01","3.43","30.3742","4.76292","28.05","0","SATNPRO1963","22.82","0.31962","5"],
    [40293,"HCEP03730564","2024-11-21 00:30:00","11.8137","3.50833","24.836","2.502857142857143","7.39","3.631","2363.174","0","1.08","30.389","4.76497","28.01","0","SATNPRO1963","22.876","0.3204","5"],
    [40294,"HCEP03730564","2024-11-21 00:45:00","11.8161","3.51015","24.707","2.528571428571428","7.39","3.427","2781.591","0.01","8.71","30.4046","4.76713","28.31","0","SATNPRO1963","23.094","0.32346","5"],
    [40295,"HCEP03730564","2024-11-21 01:00:00","11.8199","3.51292","24.608","2.554285714285714","7.39","3.624","2324.944","0.01","6.73","30.4282","4.77041","28.6","0","SATNPRO1963","23.216","0.3252","5"],
    [40296,"HCEP03730564","2024-11-21 01:15:00","11.8231","3.51497","24.542","2.575714285714286","7.4","3.626","2319.096","0","0.77","30.4454","4.77279","28.84","0","SATNPRO1963","23.252","0.32568","5"],
    [40297,"HCEP03730564","2024-11-21 01:30:00","11.8239","3.51588","24.489","2.57","7.4","3.397","2768.5","0.01","6.51","30.4535","4.77392","28.78","0","SATNPRO1963","23.196","0.32492","5"],
    [40298,"HCEP03730564","2024-11-21 01:45:00","11.8248","3.51681","24.466","2.571428571428572","7.4","3.638","2343.027","0.01","10.49","30.4617","4.77506","28.79","0","SATNPRO1963","23.312","0.32652","5"],
    [40299,"HCEP03730564","2024-11-21 02:00:00","11.8251","3.51719","24.482","2.572857142857143","7.41","3.637","2341.606","0","0","30.4651","4.77554","28.81","0","SATNPRO1963","23.366","0.32728","5"],
    [40300,"HCEP03730564","2024-11-21 02:15:00","11.8246","3.51701","24.49","2.56","7.4","3.415","2819.078","0","7.79","30.4638","4.77535","28.68","0","SATNPRO1963","23.426000000000002","0.3281","5"],
    [40301,"HCEP03730564","2024-11-21 02:30:00","11.8234","3.51631","24.502","2.548571428571428","7.4","3.628","2397.968","0.01","5.2","30.458","4.77456","28.54","0","SATNPRO1963","23.166","0.32446","5"],
    [40302,"HCEP03730564","2024-11-21 02:45:00","11.8192","3.51406","24.508","2.541428571428571","7.39","3.629","2394.244","0","1.72","30.4398","4.77205","28.45","0","SATNPRO1963","23.483999999999998","0.32892","5"],
    [40303,"HCEP03730564","2024-11-21 03:00:00","11.8077","3.50731","24.598","2.55","7.39","3.426","2776.511","0.01","5.42","30.3844","4.76438","28.53","0","SATNPRO1963","23.188","0.32476","5"],
    [40304,"HCEP03730564","2024-11-21 03:15:00","11.8036","3.50514","24.716","2.578571428571429","7.39","3.63","2363.354","0.01","2.97","30.3667","4.76195","28.85","0","SATNPRO1963","23.28","0.3261","5"],
    [40305,"HCEP03730564","2024-11-21 03:30:00","11.8029","3.50442","24.877","2.591428571428572","7.4","3.63","2362.995","0","1.08","30.3603","4.76107","29","0","SATNPRO1963","23.124","0.32392","5"],
    [40306,"HCEP03730564","2024-11-21 03:45:00","11.8106","3.50863","25.003","2.587142857142857","7.39","3.384","2753.693","0","5.74","30.3944","4.76578","28.95","0","SATNPRO1963","23.152","0.32428","5"],
    [40307,"HCEP03730564","2024-11-21 04:00:00","11.818","3.51293","25.143","2.555714285714286","7.39","3.585","2321.641","0.01","7.86","30.4297","4.77067","28.61","0","SATNPRO1963","23.22","0.32522","5"],
    [40308,"HCEP03730564","2024-11-21 04:15:00","11.8173","3.51332","25.279","2.535714285714286","7.39","3.587","2315.885","0","1.53","30.4339","4.77128","28.38","0","SATNPRO1963","23.294","0.32628","5"],
    [40309,"HCEP03730564","2024-11-21 04:30:00","11.8237","3.51621","25.425","2.528571428571428","7.39","3.347","2816.011","0.01","7.9","30.4565","4.77438","28.31","0","SATNPRO1963","23.400000000000002","0.32776","5"],
    [40310,"HCEP03730564","2024-11-21 04:45:00","11.8243","3.51645","25.575","2.51","7.39","3.632","2371.181","0.01","5.42","30.4582","4.77463","28.1","0","SATNPRO1963","23.37","0.32732","5"],
    [40311,"HCEP03730564","2024-11-21 05:00:00","11.8252","3.51684","25.697","2.504285714285714","7.4","3.632","2366.349","0","0","30.4612","4.77505","28.04","0","SATNPRO1963","23.306","0.3265","5"],
    [40312,"HCEP03730564","2024-11-21 05:15:00","11.8251","3.51701","25.899","2.501428571428571","7.4","3.39","2803.237","0.01","11.04","30.4628","4.77529","28.02","0","SATNPRO1963","23.41","0.3279","5"],
    [40313,"HCEP03730564","2024-11-21 05:30:00","11.8235","3.51629","26.077","2.505714285714286","7.4","3.61","2351.738","0.01","7.4","30.4572","4.77453","28.06","0","SATNPRO1963","23.264","0.32586","5"],
    [40314,"HCEP03730564","2024-11-21 05:45:00","11.8235","3.51624","26.256","2.508571428571428","7.4","3.611","2341.463","0.01","2.03","30.4566","4.77446","28.1","0","SATNPRO1963","23.184","0.32476","5"],
    [40315,"HCEP03730564","2024-11-21 06:00:00","11.8235","3.5164","26.467","2.48","7.4","3.439","2639.925","0.01","10.38","30.4581","4.77467","27.77","0","SATNPRO1963","23.114","0.32372","5"],
    [40316,"HCEP03730564","2024-11-21 06:15:00","11.824","3.51647","26.719","2.474285714285714","7.4","3.54","2345.135","0.01","11.14","30.4582","4.77469","27.71","0","SATNPRO1963","23.266","0.32588","5"],
    [40317,"HCEP03730564","2024-11-21 06:30:00","11.8217","3.51504","26.957","2.494285714285714","7.39","3.537","2339.073","0","1.72","30.4462","4.77305","27.94","0","SATNPRO1963","23.29","0.3262","5"],
    [40318,"HCEP03730564","2024-11-21 06:45:00","11.8254","3.51706","27.155","2.512857142857143","7.39","3.334","2760.168","0.01","6.95","30.4626","4.77532","28.14","0","SATNPRO1963","23.176000000000002","0.32458","5"],
    [40319,"HCEP03730564","2024-11-21 07:00:00","11.8263","3.5175","27.343","2.48","7.39","3.617","2308.702","0.01","10.06","30.466","4.7758","27.78","0","SATNPRO1963","23.21","0.3251","5"],
    [40320,"HCEP03730564","2024-11-21 07:15:00","11.8268","3.51793","27.506","2.471428571428572","7.39","3.618","2302.463","0.01","1.53","30.4697","4.77632","27.68","0","SATNPRO1963","23.080000000000002","0.32328","5"],
    [40321,"HCEP03730564","2024-11-21 07:30:00","11.8276","3.5183","27.697","2.47","7.39","3.352","2794.865","0","7.28","30.4725","4.77671","27.67","0","SATNPRO1963","23.28","0.3261","5"],
    [40322,"HCEP03730564","2024-11-21 07:45:00","11.828","3.51857","27.831","2.455714285714286","7.4","3.623","2386.528","0.01","6.14","30.4747","4.77704","27.51","0","SATNPRO1963","23.086","0.32332","5"],
    [40323,"HCEP03730564","2024-11-21 08:00:00","11.8285","3.51887","27.999","2.451428571428572","7.4","3.624","2377.378","0","1.72","30.4771","4.77737","27.45","0","SATNPRO1963","23.19","0.3248","5"],
    [40324,"HCEP03730564","2024-11-21 08:15:00","11.8286","3.51894","28.116","2.458571428571429","7.4","3.445","2729.235","0.01","8.98","30.4776","4.77745","27.54","0","SATNPRO1963","23.312","0.32656","5"],
    [40325,"HCEP03730564","2024-11-21 08:30:00","11.8293","3.51927","28.244","2.465714285714286","7.39","3.616","2388.066","0.01","9.24","30.4802","4.77781","27.62","0","SATNPRO1963","23.184","0.32472","5"],
    [40326,"HCEP03730564","2024-11-21 08:45:00","11.8308","3.5197","28.335","2.46","7.39","3.613","2383.713","0.01","1.88","30.4831","4.7782","27.55","0","SATNPRO1963","23.378","0.32746","5"],
    [40327,"HCEP03730564","2024-11-21 09:00:00","11.8317","3.52043","28.396","2.49","7.39","3.421","2756.356","0","6.42","30.4893","4.77908","27.9","0","SATNPRO1963","23.558","0.32998","5"],
    [40328,"HCEP03730564","2024-11-21 09:15:00","11.8327","3.52096","28.453","2.5","7.39","3.586","2329.522","0","10.88","30.4936","4.77966","28.01","0","SATNPRO1963","23.458000000000002","0.32856","5"],
    [40329,"HCEP03730564","2024-11-21 09:30:00","11.8341","3.52177","28.49","2.502857142857143","7.39","3.585","2324.371","0","1.72","30.5002","4.78058","28.04","0","SATNPRO1963","23.528","0.32952","5"],
    [40330,"HCEP03730564","2024-11-21 09:45:00","11.8352","3.52239","28.507","2.52","7.39","3.385","2740.29","0.01","9.04","30.5053","4.78129","28.24","0","SATNPRO1963","23.804","0.3334","5"],
    [40331,"HCEP03730564","2024-11-21 10:00:00","11.8353","3.52234","28.484","2.522857142857143","7.39","3.545","2266.888","0.01","7.11","30.5047","4.7812","28.27","0","SATNPRO1963","23.48","0.32888","5"],
    [40332,"HCEP03730564","2024-11-21 10:15:00","11.8356","3.5226","28.441","2.501428571428571","7.39","3.544","2265.445","0","1.72","30.507","4.78152","28.03","0","SATNPRO1963","23.6","0.33056","5"],
    [40333,"HCEP03730564","2024-11-21 10:30:00","11.8369","3.52334","28.41","2.487142857142858","7.38","3.358","2670.921","0.01","6.42","30.513","4.78235","27.87","0","SATNPRO1963","23.626","0.33092","5"],
    [40334,"HCEP03730564","2024-11-21 10:45:00","11.8379","3.52386","28.326","2.485714285714286","7.38","3.6","2245.464","0.01","4.41","30.5172","4.78293","27.86","0","SATNPRO1963","23.482","0.3289","5"],
    [40335,"HCEP03730564","2024-11-21 11:00:00","11.8396","3.52501","28.26","2.488571428571428","7.39","3.602","2243.544","0","0","30.527","4.78427","27.89","0","SATNPRO1963","23.524","0.3295","5"],
    [40336,"HCEP03730564","2024-11-21 11:15:00","11.8408","3.52594","28.152","2.544285714285714","7.39","3.343","2760.636","0.01","7.86","30.5349","4.78537","28.51","0","SATNPRO1963","23.936","0.33528","5"],
    [40337,"HCEP03730564","2024-11-21 11:30:00","11.8408","3.52602","28.064","2.551428571428572","7.39","3.588","2258.587","0.01","6.99","30.5358","4.78549","28.59","0","SATNPRO1963","23.768","0.33288","5"],
    [40338,"HCEP03730564","2024-11-21 11:45:00","11.8421","3.52717","27.981","2.584285714285714","7.4","3.588","2260.138","0","1.53","30.5458","4.78688","28.96","0","SATNPRO1963","24.073999999999998","0.33722","5"],
    [40339,"HCEP03730564","2024-11-21 12:00:00","11.8427","3.52767","27.916","2.59","7.39","3.394","2643.073","0.01","5.74","30.55","4.78747","29.04","0","SATNPRO1963","23.792","0.33324","5"],
    [40340,"HCEP03730564","2024-11-21 12:15:00","11.8433","3.52819","27.841","2.601428571428571","7.4","3.621","2312.341","0.01","12.77","30.5546","4.7881","29.17","0","SATNPRO1963","24.004","0.33622","5"],
    [40341,"HCEP03730564","2024-11-21 12:30:00","11.8449","3.52956","27.758","2.657142857142858","7.41","3.62","2310.197","0","0","30.5665","4.78976","29.78","0","SATNPRO1963","24.378","0.34146","5"],
    [40342,"HCEP03730564","2024-11-21 12:45:00","11.846","3.53071","27.657","2.714285714285714","7.41","3.335","2832.423","0","6.23","30.5767","4.79118","30.44","0","SATNPRO1963","24.642","0.34516","5"],
    [40343,"HCEP03730564","2024-11-21 13:00:00","11.8465","3.53134","27.566","2.79","7.41","3.615","2402.292","0.01","8.08","30.5824","4.79197","31.28","0","SATNPRO1963","24.286","0.34014","5"],
    [40344,"HCEP03730564","2024-11-21 13:15:00","11.852","3.53631","27.495","2.661428571428572","7.4","3.619","2392.981","0","1.72","30.6257","4.79799","29.86","0","SATNPRO1963","23.798000000000002","0.33336","5"],
    [40345,"HCEP03730564","2024-11-21 13:30:00","11.8532","3.53744","27.4","2.578571428571429","7.4","3.43","2744.065","0.01","5.53","30.6356","4.79937","28.93","0","SATNPRO1963","23.698","0.33192","5"],
    [40346,"HCEP03730564","2024-11-21 13:45:00","11.8549","3.53864","27.298","2.628571428571429","7.4","3.628","2373.729","0.01","13.11","30.6458","4.80077","29.49","0","SATNPRO1963","24.19","0.33886","5"],
    [40347,"HCEP03730564","2024-11-21 14:00:00","11.8563","3.53996","27.22","2.707142857142857","7.4","3.629","2369.759","0","0","30.6574","4.80239","30.38","0","SATNPRO1963","24.55","0.34388","5"],
    [40348,"HCEP03730564","2024-11-21 14:15:00","11.8571","3.54082","27.142","2.807142857142857","7.4","3.446","2718.181","0.01","7.07","30.6649","4.80343","31.5","0","SATNPRO1963","24.816","0.34762","5"],
    [40349,"HCEP03730564","2024-11-21 14:30:00","11.8585","3.54219","27.059","2.864285714285714","7.41","3.602","2387.001","0.01","8.98","30.677","4.80512","32.14","0","SATNPRO1963","24.802","0.34744","5"],
    [40350,"HCEP03730564","2024-11-21 14:45:00","11.8594","3.54297","26.981","2.902857142857143","7.41","3.602","2385.317","0","0","30.6838","4.80606","32.57","0","SATNPRO1963","25.126","0.35194","5"],
    [40351,"HCEP03730564","2024-11-21 15:00:00","11.86","3.54361","26.905","2.917142857142857","7.42","3.402","2736.528","0.01","6.9","30.6895","4.80685","32.74","0","SATNPRO1963","24.812","0.34754","5"],
    [40352,"HCEP03730564","2024-11-21 15:15:00","11.86","3.54412","26.838","2.92","7.42","3.611","2313.936","0.01","3.43","30.6944","4.80753","32.77","0","SATNPRO1963","25.032","0.35062","5"],
    [40353,"HCEP03730564","2024-11-21 15:30:00","11.8615","3.5454","26.786","2.945714285714286","7.43","3.612","2312.517","0.01","0.77","30.7055","4.80908","33.07","0","SATNPRO1963","25.098","0.35152","5"],
    [40354,"HCEP03730564","2024-11-21 15:45:00","11.8619","3.54596","26.75","2.984285714285714","7.43","3.365","2782.353","0","8.85","30.7106","4.80979","33.5","0","SATNPRO1963","24.884","0.34856","5"],
    [40355,"HCEP03730564","2024-11-21 16:00:00","11.8621","3.54618","26.73","2.998571428571429","7.43","3.623","2331.328","0.01","6.14","30.7126","4.81006","33.67","0","SATNPRO1963","25.258","0.3538","5"],
    [40356,"HCEP03730564","2024-11-21 16:15:00","11.8622","3.5465","26.716","2.995714285714286","7.43","3.623","2322.825","0","2.03","30.7155","4.81047","33.63","0","SATNPRO1963","25.194","0.35292","5"],
    [40357,"HCEP03730564","2024-11-21 16:30:00","11.862","3.54634","26.722","3.001428571428571","7.43","3.401","2744.59","0","6.37","30.7142","4.81029","33.7","0","SATNPRO1963","25.206","0.35302","5"],
    [40358,"HCEP03730564","2024-11-21 16:45:00","11.8622","3.54648","26.735","2.988571428571429","7.43","3.618","2305.019","0.01","8.98","30.7154","4.81046","33.55","0","SATNPRO1963","24.96","0.34962","5"],
    [40359,"HCEP03730564","2024-11-21 17:00:00","11.8624","3.54678","26.762","2.987142857142858","7.43","3.62","2303.33","0.01","1.53","30.7181","4.81084","33.54","0","SATNPRO1963","25.227999999999998","0.35332","5"],
    [40360,"HCEP03730564","2024-11-21 17:15:00","11.8624","3.54698","26.78","2.99","7.43","3.397","2768.053","0.01","7.86","30.72","4.81111","33.57","0","SATNPRO1963","25.078","0.35124","5"],
    [40361,"HCEP03730564","2024-11-21 17:30:00","11.863","3.54715","26.803","2.972857142857143","7.43","3.617","2301.653","0.01","4.97","30.7211","4.81126","33.37","0","SATNPRO1963","25.026","0.35052","5"],
    [40362,"HCEP03730564","2024-11-21 17:45:00","11.8626","3.547","26.834","2.977142857142857","7.43","3.618","2300.059","0.01","2.17","30.72","4.81111","33.42","0","SATNPRO1963","25.009999999999998","0.35034","5"],
    [40363,"HCEP03730564","2024-11-21 18:00:00","11.8627","3.54688","26.823","2.984285714285714","7.43","3.362","2696.094","0","8.95","30.7187","4.81093","33.51","0","SATNPRO1963","25.064","0.35106","5"],
    [40364,"HCEP03730564","2024-11-21 18:15:00","11.8623","3.54662","26.824","2.987142857142858","7.43","3.602","2245.866","0.01","4.79","30.7166","4.81063","33.53","0","SATNPRO1963","24.776","0.34704","5"],
    [40365,"HCEP03730564","2024-11-21 18:30:00","11.8619","3.54604","26.845","2.967142857142857","7.43","3.602","2239.344","0","1.72","30.7114","4.80991","33.31","0","SATNPRO1963","24.922","0.34908","5"],
    [40366,"HCEP03730564","2024-11-21 18:45:00","11.8621","3.54628","26.825","2.957142857142857","7.43","3.372","2689.411","0","8.68","30.7135","4.8102","33.2","0","SATNPRO1963","24.874","0.3484","5"],
    [40367,"HCEP03730564","2024-11-21 19:00:00","11.8618","3.54648","26.821","2.988571428571429","7.43","3.641","2372.917","0.01","11.61","30.7157","4.81051","33.56","0","SATNPRO1963","24.86","0.3482","5"],
    [40368,"HCEP03730564","2024-11-21 19:15:00","11.8617","3.54614","26.843","2.99","7.44","3.638","2367.299","0","1.72","30.7125","4.81007","33.57","0","SATNPRO1963","24.994","0.35008","5"],
    [40369,"HCEP03730564","2024-11-21 19:30:00","11.8617","3.54595","26.857","2.982857142857143","7.43","3.436","2724.034","0","8.19","30.7107","4.80981","33.49","0","SATNPRO1963","24.922","0.3491","5"],
    [40370,"HCEP03730564","2024-11-21 19:45:00","11.8615","3.54562","26.895","2.97","7.43","3.599","2368.196","0.01","12.27","30.7076","4.80937","33.34","0","SATNPRO1963","24.812","0.34752","5"],
    [40371,"HCEP03730564","2024-11-21 20:00:00","11.862","3.54645","26.89","2.925714285714286","7.43","3.598","2359.089","0","1.88","30.7152","4.81045","32.85","0","SATNPRO1963","24.934","0.34924","5"],
    [40372,"HCEP03730564","2024-11-21 20:15:00","11.862","3.54659","26.885","2.898571428571429","7.42","3.444","2702.533","0","6.04","30.7165","4.81062","32.53","0","SATNPRO1963","25.006","0.35024","5"],
    [40373,"HCEP03730564","2024-11-21 20:30:00","11.8619","3.54643","26.88","2.872857142857143","7.42","3.607","2390.876","0.01","7.44","30.7151","4.81043","32.24","0","SATNPRO1963","24.86","0.34824","5"],
    [40374,"HCEP03730564","2024-11-21 20:45:00","11.862","3.54639","26.868","2.867142857142857","7.42","3.608","2384.903","0.01","0.77","30.7147","4.81037","32.19","0","SATNPRO1963","24.886","0.34858","5"],
    [40375,"HCEP03730564","2024-11-21 21:00:00","11.8615","3.5461","26.849","2.854285714285714","7.41","3.451","2728.598","0","9.4","30.7122","4.81003","32.05","0","SATNPRO1963","24.568","0.3441","5"],
    [40376,"HCEP03730564","2024-11-21 21:15:00","11.8615","3.54605","26.806","2.858571428571428","7.41","3.61","2411.276","0.01","10","30.7118","4.80997","32.09","0","SATNPRO1963","24.806","0.34746","5"],
    [40377,"HCEP03730564","2024-11-21 21:30:00","11.861","3.54587","26.751","2.867142857142857","7.41","3.613","2404.185","0.01","0","30.7105","4.80978","32.18","0","SATNPRO1963","24.887999999999998","0.34862","5"],
    [40378,"HCEP03730564","2024-11-21 21:45:00","11.8605","3.54562","26.712","2.864285714285714","7.41","3.467","2754.005","0","7.07","30.7085","4.80951","32.15","0","SATNPRO1963","24.836","0.34788","5"],
    [40379,"HCEP03730564","2024-11-21 22:00:00","11.859","3.54407","26.646","2.845714285714286","7.41","3.613","2376.148","0.01","10","30.6948","4.8076","31.94","0","SATNPRO1963","24.792","0.34728","5"],
    [40380,"HCEP03730564","2024-11-21 22:15:00","11.855","3.5391","26.541","2.808571428571429","7.41","3.617","2367.21","0","0","30.6504","4.80138","31.52","0","SATNPRO1963","24.778","0.34704","5"],
    [40381,"HCEP03730564","2024-11-21 22:30:00","11.8537","3.53777","26.369","2.782857142857143","7.41","3.439","2688.933","0","9.91","30.6388","4.79975","31.22","0","SATNPRO1963","24.658","0.34538","5"],
    [40382,"HCEP03730564","2024-11-21 22:45:00","11.8534","3.53752","26.234","2.78","7.42","3.592","2270.485","0.01","7.71","30.6366","4.79944","31.18","0","SATNPRO1963","24.668","0.34552","5"],
    [40383,"HCEP03730564","2024-11-21 23:00:00","11.8524","3.53643","26.134","2.775714285714286","7.42","3.595","2265.516","0","1.53","30.627","4.7981","31.15","0","SATNPRO1963","24.6","0.34454","5"],
    [40384,"HCEP03730564","2024-11-21 23:15:00","11.8516","3.53595","26.055","2.774285714285714","7.41","3.367","2799.153","0.01","15.68","30.6232","4.79756","31.12","0","SATNPRO1963","24.326","0.34068","5"],
    [40385,"HCEP03730564","2024-11-21 23:30:00","11.8503","3.5351","25.951","2.762857142857143","7.41","3.588","2376.574","0.01","7.07","30.616","4.79657","30.99","0","SATNPRO1963","24.352","0.34108","5"],
    [40386,"HCEP03730564","2024-11-21 23:45:00","11.8492","3.53427","25.829","2.747142857142857","7.41","3.591","2373.657","0","0","30.609","4.79558","30.81","0","SATNPRO1963","24.572","0.34414","5"],
    [40387,"HCEP03730564","2024-11-22 00:00:00","11.8488","3.53386","25.738","2.738571428571429","7.41","3.334","2787.999","0","6.99","30.6054","4.79508","30.72","0","SATNPRO1963","24.648","0.34524","5"],
    [40388,"HCEP03730564","2024-11-22 00:15:00","11.8485","3.53354","25.651","2.738571428571429","7.41","3.544","2327.892","0.01","4.06","30.6027","4.79469","30.71","0","SATNPRO1963","24.561999999999998","0.34406","5"],
    [40389,"HCEP03730564","2024-11-22 00:30:00","11.8474","3.53261","25.507","2.737142857142857","7.41","3.544","2321.937","0","2.03","30.5947","4.79357","30.7","0","SATNPRO1963","24.46","0.34262","5"],
    [40390,"HCEP03730564","2024-11-22 00:45:00","11.8466","3.53207","25.391","2.738571428571429","7.41","3.334","2759.626","0.01","9.04","30.5902","4.79294","30.72","0","SATNPRO1963","24.914","0.34894","5"],
    [40391,"HCEP03730564","2024-11-22 01:00:00","11.8469","3.5322","25.277","2.735714285714286","7.41","3.567","2359.255","0.01","14.56","30.5912","4.79308","30.67","0","SATNPRO1963","24.57","0.34414","5"],
    [40392,"HCEP03730564","2024-11-22 01:15:00","11.8466","3.53215","25.174","2.73","7.41","3.568","2357.172","0.01","1.72","30.591","4.79305","30.61","0","SATNPRO1963","24.524","0.3435","5"],
    [40393,"HCEP03730564","2024-11-22 01:30:00","11.8483","3.53355","25.091","2.722857142857143","7.41","3.289","2883.93","0","7.86","30.6031","4.79472","30.54","0","SATNPRO1963","24.78","0.34708","5"],
    [40394,"HCEP03730564","2024-11-22 01:45:00","11.8492","3.53459","25.025","2.708571428571429","7.41","3.522","2305.994","0.01","10.12","30.6125","4.79603","30.39","0","SATNPRO1963","24.472","0.34274","5"],
    [40395,"HCEP03730564","2024-11-22 02:00:00","11.8497","3.53489","24.932","2.704285714285714","7.41","3.523","2305.912","0.01","1.88","30.615","4.79637","30.33","0","SATNPRO1963","24.518","0.34346","5"],
    [40396,"HCEP03730564","2024-11-22 02:15:00","11.8501","3.53543","24.871","2.702857142857143","7.41","3.348","2747.171","0.01","6.33","30.6198","4.79703","30.32","0","SATNPRO1963","24.444","0.3424","5"],
    [40397,"HCEP03730564","2024-11-22 02:30:00","11.852","3.53671","24.844","2.691428571428571","7.41","3.58","2271.994","0.01","7.71","30.6306","4.79853","30.19","0","SATNPRO1963","24.498","0.3431","5"],
    [40398,"HCEP03730564","2024-11-22 02:45:00","11.8526","3.53747","24.786","2.685714285714286","7.41","3.579","2271.707","0","0.77","30.6374","4.79948","30.13","0","SATNPRO1963","24.434","0.34224","5"],
    [40399,"HCEP03730564","2024-11-22 03:00:00","11.8531","3.53811","24.765","2.682857142857143","7.41","3.353","2768.712","0.01","4.47","30.6431","4.80028","30.1","0","SATNPRO1963","24.382","0.34152","5"],
    [40400,"HCEP03730564","2024-11-22 03:15:00","11.8535","3.5385","24.754","2.682857142857143","7.41","3.585","2316.706","0.01","6.73","30.6466","4.80077","30.1","0","SATNPRO1963","24.72","0.34624","5"],
    [40401,"HCEP03730564","2024-11-22 03:30:00","11.8535","3.53863","24.75","2.677142857142858","7.41","3.584","2317.198","0","1.72","30.6479","4.80095","30.04","0","SATNPRO1963","24.556","0.34392","5"],
    [40402,"HCEP03730564","2024-11-22 03:45:00","11.8544","3.53963","24.847","2.681428571428572","7.41","3.348","2901.785","0","9.55","30.6567","4.80218","30.09","0","SATNPRO1963","24.55","0.34388","5"],
    [40403,"HCEP03730564","2024-11-22 04:00:00","11.855","3.54044","24.909","2.684285714285714","7.41","3.588","2433.539","0.01","3.76","30.6639","4.80319","30.12","0","SATNPRO1963","24.468","0.34274","5"],
    [40404,"HCEP03730564","2024-11-22 04:15:00","11.856","3.54105","24.993","2.685714285714286","7.41","3.589","2435.14","0.01","1.72","30.669","4.80391","30.14","0","SATNPRO1963","24.394000000000002","0.3417","5"],
    [40405,"HCEP03730564","2024-11-22 04:30:00","11.8562","3.54162","25.068","2.695714285714286","7.41","3.41","2881.679","0","3.6","30.6742","4.80464","30.25","0","SATNPRO1963","24.922","0.34908","5"],
    [40406,"HCEP03730564","2024-11-22 04:45:00","11.8568","3.54229","25.183","2.705714285714286","7.4","3.594","2471.832","0","4.85","30.6801","4.80547","30.36","0","SATNPRO1963","24.688","0.34578","5"],
    [40407,"HCEP03730564","2024-11-22 05:00:00","11.8567","3.54216","25.308","2.702857142857143","7.4","3.595","2467.242","0","1.33","30.6789","4.80531","30.34","0","SATNPRO1963","24.562","0.344","5"],
    [40408,"HCEP03730564","2024-11-22 05:15:00","11.8584","3.54455","25.447","2.707142857142857","7.41","3.42","2881.801","0","6.23","30.7004","4.80833","30.39","0","SATNPRO1963","24.849999999999998","0.34806","5"],
    [40409,"HCEP03730564","2024-11-22 05:30:00","11.8587","3.54495","25.603","2.738571428571429","7.41","3.588","2457.624","0.01","5.64","30.704","4.80884","30.73","0","SATNPRO1963","24.636","0.34506","5"],
    [40410,"HCEP03730564","2024-11-22 05:45:00","11.8592","3.54528","25.726","2.724285714285714","7.41","3.589","2453.321","0","0","30.7067","4.80922","30.59","0","SATNPRO1963","24.696","0.34592","5"],
    [40411,"HCEP03730564","2024-11-22 06:00:00","11.8595","3.54535","25.893","2.724285714285714","7.41","3.356","2904.299","0.01","8.81","30.7071","4.80928","30.58","0","SATNPRO1963","24.558","0.344","5"],
    [40412,"HCEP03730564","2024-11-22 06:15:00","11.8594","3.54521","26.08","2.718571428571429","7.41","3.585","2446.376","0","13.83","30.7057","4.8091","30.52","0","SATNPRO1963","24.534","0.34364","5"],
    [40413,"HCEP03730564","2024-11-22 06:30:00","11.859","3.54474","26.269","2.7","7.41","3.588","2441.703","0","2.3","30.7015","4.80851","30.31","0","SATNPRO1963","24.522","0.34344","5"],
    [40414,"HCEP03730564","2024-11-22 06:45:00","11.8582","3.54326","26.416","2.682857142857143","7.41","3.403","2834.278","0","7.52","30.6878","4.80661","30.11","0","SATNPRO1963","24.689999999999998","0.34582","5"],
    [40415,"HCEP03730564","2024-11-22 07:00:00","11.8577","3.5428","26.583","2.685714285714286","7.41","3.583","2358.34","0.01","5.84","30.6837","4.80605","30.15","0","SATNPRO1963","24.706","0.34606","5"],
    [40416,"HCEP03730564","2024-11-22 07:15:00","11.8573","3.54248","26.775","2.688571428571429","7.41","3.584","2354.344","0","1.72","30.681","4.80568","30.18","0","SATNPRO1963","24.594","0.34444","5"],
    [40417,"HCEP03730564","2024-11-22 07:30:00","11.8567","3.54204","26.977","2.688571428571429","7.41","3.372","2757.037","0","6.64","30.6771","4.80515","30.18","0","SATNPRO1963","24.456","0.34254","5"],
    [40418,"HCEP03730564","2024-11-22 07:45:00","11.8562","3.54157","27.14","2.672857142857143","7.41","3.575","2358.733","0.01","5.26","30.673","4.80458","29.99","0","SATNPRO1963","24.488","0.34304","5"],
    [40419,"HCEP03730564","2024-11-22 08:00:00","11.8556","3.54112","27.317","2.665714285714286","7.41","3.577","2357.566","0.01","1.72","30.669","4.80405","29.91","0","SATNPRO1963","24.368","0.3413","5"],
    [40420,"HCEP03730564","2024-11-22 08:15:00","11.8554","3.5409","27.505","2.674285714285714","7.41","3.32","2754.255","0","5.03","30.667","4.80377","30.02","0","SATNPRO1963","24.27","0.33994","5"],
    [40421,"HCEP03730564","2024-11-22 08:30:00","11.8543","3.54038","27.652","2.654285714285714","7.41","3.569","2274.483","0.01","3.91","30.6629","4.80321","29.78","0","SATNPRO1963","24.080000000000002","0.3373","5"],
    [40422,"HCEP03730564","2024-11-22 08:45:00","11.8528","3.5391","27.724","2.621428571428571","7.41","3.566","2271.286","0.01","0.77","30.6517","4.80166","29.42","0","SATNPRO1963","24.14","0.33814","5"],
    [40423,"HCEP03730564","2024-11-22 09:00:00","11.8516","3.53814","27.837","2.605714285714286","7.41","3.317","2725.134","0.01","7.03","30.6435","4.80052","29.24","0","SATNPRO1963","24.024","0.33652","5"],
    [40424,"HCEP03730564","2024-11-22 09:15:00","11.8509","3.5373","27.959","2.59","7.43","3.554","2259.27","0.01","7.82","30.6359","4.79948","29.06","0","SATNPRO1963","24.114","0.33772","5"],
    [40425,"HCEP03730564","2024-11-22 09:30:00","11.8513","3.53731","28.044","2.572857142857143","7.42","3.553","2259.701","0","1.08","30.6356","4.79944","28.86","0","SATNPRO1963","24.114","0.33774","5"],
    [40426,"HCEP03730564","2024-11-22 09:45:00","11.8517","3.53748","28.097","2.588571428571428","7.43","3.219","2822.38","0.01","6.46","30.6369","4.79961","29.04","0","SATNPRO1963","24.194","0.33884","5"],
    [40427,"HCEP03730564","2024-11-22 10:00:00","11.8527","3.53796","28.1","2.617142857142857","7.42","3.459","2379.628","0.01","4.34","30.6408","4.80014","29.36","0","SATNPRO1963","24.092","0.33746","5"],
    [40428,"HCEP03730564","2024-11-22 10:15:00","11.8533","3.53831","28.101","2.631428571428572","7.41","3.455","2379.032","0","1.88","30.6435","4.80052","29.53","0","SATNPRO1963","24.32","0.34064","5"],
    [40429,"HCEP03730564","2024-11-22 10:30:00","11.8554","3.53944","28.133","2.675714285714286","7.41","3.248","2782.487","0.01","7.32","30.6528","4.8018","30.02","0","SATNPRO1963","24.564","0.3441","5"],
    [40430,"HCEP03730564","2024-11-22 10:45:00","11.8559","3.53993","28.163","2.751428571428571","7.41","3.507","2249.721","0.01","4.6","30.657","4.8024","30.88","0","SATNPRO1963","24.16","0.33842","5"],
    [40431,"HCEP03730564","2024-11-22 11:00:00","11.8573","3.54061","28.151","2.784285714285714","7.42","3.504","2249.738","0","1.33","30.6624","4.80314","31.24","0","SATNPRO1963","24.448","0.34244","5"],
    [40432,"HCEP03730564","2024-11-22 11:15:00","11.858","3.54127","28.15","2.847142857142857","7.42","3.244","2784.086","0","2.97","30.6682","4.80394","31.96","0","SATNPRO1963","24.576","0.34424","5"],
    [40433,"HCEP03730564","2024-11-22 11:30:00","11.8573","3.54092","28.148","2.881428571428571","7.42","3.539","2277.196","0.01","9.17","30.6654","4.80355","32.34","0","SATNPRO1963","24.458","0.34254","5"],
    [40434,"HCEP03730564","2024-11-22 11:45:00","11.8569","3.54077","28.107","2.842857142857143","7.43","3.539","2270.443","0","1.08","30.6643","4.80341","31.9","0","SATNPRO1963","24.434","0.34226","5"],
    [40435,"HCEP03730564","2024-11-22 12:00:00","11.8572","3.54104","28.064","2.845714285714286","7.42","3.287","2757.335","0.01","11.17","30.6667","4.80373","31.94","0","SATNPRO1963","24.504","0.34322","5"],
    [40436,"HCEP03730564","2024-11-22 12:15:00","11.8574","3.5415","28.001","2.855714285714286","7.43","3.545","2258.657","0.01","14.19","30.6709","4.80433","32.04","0","SATNPRO1963","24.498","0.34316","5"],
    [40437,"HCEP03730564","2024-11-22 12:30:00","11.858","3.54193","27.935","2.861428571428572","7.43","3.543","2263.344","0","0.77","30.6746","4.80484","32.12","0","SATNPRO1963","24.486","0.34296","5"],
    [40438,"HCEP03730564","2024-11-22 12:45:00","11.8588","3.54257","27.877","2.878571428571429","7.43","3.269","2782.392","0.01","8.47","30.6801","4.80559","32.31","0","SATNPRO1963","24.802","0.3474","5"],
    [40439,"HCEP03730564","2024-11-22 13:00:00","11.8598","3.54324","27.809","2.911428571428571","7.43","3.52","2255.889","0.01","3.68","30.6858","4.80638","32.67","0","SATNPRO1963","24.782","0.34708","5"],
    [40440,"HCEP03730564","2024-11-22 13:15:00","11.8603","3.54375","27.73","2.92","7.43","3.519","2254.559","0.01","1.72","30.6903","4.807","32.78","0","SATNPRO1963","24.87","0.34834","5"],
    [40441,"HCEP03730564","2024-11-22 13:30:00","11.8608","3.54447","27.648","2.922857142857143","7.43","3.278","2757.602","0.01","7.56","30.6969","4.80792","32.81","0","SATNPRO1963","24.982","0.3499","5"],
    [40442,"HCEP03730564","2024-11-22 13:45:00","11.860900000000001","3.54489","27.565","2.928571428571428","7.43","3.511","2236.335","0.01","4.85","30.7008","4.80847","32.87","0","SATNPRO1963","24.976","0.34986","5"],
    [40443,"HCEP03730564","2024-11-22 14:00:00","11.8611","3.54516","27.463","2.921428571428571","7.43","3.509","2230.037","0.01","1.72","30.7032","4.8088","32.79","0","SATNPRO1963","24.759999999999998","0.3468","5"],
    [40444,"HCEP03730564","2024-11-22 14:15:00","11.8613","3.54559","27.378","2.915714285714286","7.43","3.317","2681.542","0.02","14.66","30.7072","4.80936","32.73","0","SATNPRO1963","24.856","0.34816","5"],
    [40445,"HCEP03730564","2024-11-22 14:30:00","11.860900000000001","3.54565","27.282","2.905714285714286","7.43","3.457","2272.238","0.02","6.33","30.7083","4.80951","32.62","0","SATNPRO1963","24.689999999999998","0.34584","5"],
    [40446,"HCEP03730564","2024-11-22 14:45:00","11.8615","3.54596","27.194","2.884285714285714","7.43","3.447","2270.759","0.01","1.33","30.7107","4.80983","32.38","0","SATNPRO1963","24.722","0.34628","5"],
    [40447,"HCEP03730564","2024-11-22 15:00:00","11.8614","3.54612","27.093","2.892857142857143","7.42","3.264","2630.915","0.01","5.89","30.7124","4.81007","32.48","0","SATNPRO1963","24.782","0.34712","5"],
    [40448,"HCEP03730564","2024-11-22 15:15:00","11.8615","3.54626","27.002","2.894285714285714","7.42","3.492","2185.749","0.01","7.36","30.7137","4.81025","32.49","0","SATNPRO1963","24.484","0.34292","5"],
    [40449,"HCEP03730564","2024-11-22 15:30:00","11.8613","3.54638","26.921","2.88","7.43","3.487","2188.218","0.01","1.08","30.7151","4.81045","32.34","0","SATNPRO1963","24.584","0.3443","5"],
    [40450,"HCEP03730564","2024-11-22 15:45:00","11.8615","3.54653","26.829","2.861428571428572","7.42","3.17","2731.44","0","8.68","30.7164","4.81062","32.13","0","SATNPRO1963","24.774","0.34702","5"],
    [40451,"HCEP03730564","2024-11-22 16:00:00","11.8613","3.54698","26.742","2.86","7.42","3.506","2283.769","0.01","6.82","30.7209","4.81125","32.12","0","SATNPRO1963","24.544","0.3438","5"],
    [40452,"HCEP03730564","2024-11-22 16:15:00","11.8616","3.54766","26.676","2.862857142857143","7.43","3.505","2284.134","0","1.53","30.7272","4.81213","32.15","0","SATNPRO1963","24.876","0.34844","5"],
    [40453,"HCEP03730564","2024-11-22 16:30:00","11.8614","3.54782","26.625","2.877142857142857","7.42","3.271","2755.422","0.01","4.97","30.729","4.81238","32.31","0","SATNPRO1963","24.638","0.34512","5"],
    [40454,"HCEP03730564","2024-11-22 16:45:00","11.8616","3.54792","26.591","2.852857142857143","7.42","3.524","2238.021","0.01","12.23","30.7298","4.81249","32.03","0","SATNPRO1963","24.456","0.34256","5"],
    [40455,"HCEP03730564","2024-11-22 17:00:00","11.8614","3.54794","26.578","2.825714285714286","7.43","3.524","2238.857","0.01","1.33","30.7301","4.81254","31.72","0","SATNPRO1963","24.51","0.3433","5"],
    [40456,"HCEP03730564","2024-11-22 17:15:00","11.8613","3.54834","26.572","2.795714285714286","7.43","3.28","2637.413","0","9.11","30.734","4.81309","31.39","0","SATNPRO1963","24.204","0.339","5"],
    [40457,"HCEP03730564","2024-11-22 17:30:00","11.862","3.549","26.577","2.805714285714286","7.42","3.538","2218.119","0.01","5.03","30.7398","4.8139","31.51","0","SATNPRO1963","24.62","0.34482","5"],
    [40458,"HCEP03730564","2024-11-22 17:45:00","11.8619","3.54937","26.6","2.845714285714286","7.43","3.536","2216.921","0.01","2.03","30.7435","4.81442","31.95","0","SATNPRO1963","24.724","0.3463","5"],
    [40459,"HCEP03730564","2024-11-22 18:00:00","11.8618","3.54948","26.62","2.84","7.43","3.259","2639.594","0.01","5.31","30.7446","4.81458","31.89","0","SATNPRO1963","24.924","0.34912","5"],
    [40460,"HCEP03730564","2024-11-22 18:15:00","11.8615","3.54915","26.624","2.815714285714286","7.43","3.541","2215.898","0.01","11.81","30.7417","4.81418","31.62","0","SATNPRO1963","24.376","0.34144","5"],
    [40461,"HCEP03730564","2024-11-22 18:30:00","11.8618","3.54953","26.681","2.794285714285714","7.44","3.537","2215.311","0.01","2.17","30.7451","4.81465","31.38","0","SATNPRO1963","24.538","0.34366","5"],
    [40462,"HCEP03730564","2024-11-22 18:45:00","11.8615","3.54929","26.685","2.811428571428571","7.44","3.322","2623.976","0.01","6.82","30.743","4.81435","31.56","0","SATNPRO1963","24.266","0.3399","5"],
    [40463,"HCEP03730564","2024-11-22 19:00:00","11.8613","3.54913","26.706","2.798571428571429","7.42","3.558","2183.974","0.01","3.95","30.7417","4.81418","31.43","0","SATNPRO1963","24.294","0.34028","5"],
    [40464,"HCEP03730564","2024-11-22 19:15:00","11.8611","3.54912","26.732","2.781428571428572","7.43","3.555","2181.07","0","0.94","30.7417","4.81418","31.23","0","SATNPRO1963","24.628","0.34496","5"],
    [40465,"HCEP03730564","2024-11-22 19:30:00","11.8614","3.54912","26.755","2.771428571428571","7.43","3.33","2578.708","0.01","8.78","30.7414","4.81414","31.12","0","SATNPRO1963","24.422","0.34204","5"],
    [40466,"HCEP03730564","2024-11-22 19:45:00","11.8618","3.54925","26.808","2.794285714285714","7.42","3.577","2242.485","0.01","5.84","30.7423","4.81427","31.37","0","SATNPRO1963","24.578","0.34428","5"],
    [40467,"HCEP03730564","2024-11-22 20:00:00","11.8617","3.5489","26.83","2.834285714285714","7.42","3.574","2233.619","0.01","1.72","30.739","4.8138","31.83","0","SATNPRO1963","24.802","0.3474","5"],
    [40468,"HCEP03730564","2024-11-22 20:15:00","11.8617","3.54837","26.816","2.842857142857143","7.42","3.447","2517.039","0.01","6.28","30.7339","4.81309","31.91","0","SATNPRO1963","24.69","0.34584","5"],
    [40469,"HCEP03730564","2024-11-22 20:30:00","11.8615","3.54792","26.83","2.821428571428572","7.42","3.596","2227.922","0.01","6.42","30.7298","4.81251","31.67","0","SATNPRO1963","24.428","0.3422","5"],
    [40470,"HCEP03730564","2024-11-22 20:45:00","11.860900000000001","3.54716","26.881","2.801428571428572","7.42","3.596","2226.546","0.01","2.03","30.7229","4.81155","31.45","0","SATNPRO1963","24.306","0.34046","5"],
    [40471,"HCEP03730564","2024-11-22 21:00:00","11.8608","3.5465","26.886","2.785714285714286","7.42","3.435","2509.799","0.01","8.4","30.7166","4.81066","31.27","0","SATNPRO1963","24.196","0.3389","5"],
    [40472,"HCEP03730564","2024-11-22 21:15:00","11.8607","3.54614","26.861","2.787142857142857","7.42","3.603","2183.75","0.01","4.02","30.7132","4.81018","31.29","0","SATNPRO1963","24.332","0.34082","5"],
    [40473,"HCEP03730564","2024-11-22 21:30:00","11.8607","3.54637","26.812","2.785714285714286","7.42","3.602","2178.169","0","1.88","30.7155","4.8105","31.27","0","SATNPRO1963","24.292","0.34028","5"],
    [40474,"HCEP03730564","2024-11-22 21:45:00","11.8592","3.54609","26.796","2.718571428571429","7.42","3.388","2429.704","0.01","8.65","30.7141","4.81033","30.52","0","SATNPRO1963","24.002","0.3362","5"],
    [40475,"HCEP03730564","2024-11-22 22:00:00","11.8585","3.54521","26.785","2.67","7.41","3.568","2092.003","0.01","5.61","30.7062","4.80922","29.97","0","SATNPRO1963","24.236","0.33946","5"],
    [40476,"HCEP03730564","2024-11-22 22:15:00","11.8577","3.54434","26.774","2.681428571428572","7.41","3.567","2084.455","0.01","1.33","30.6985","4.80814","30.1","0","SATNPRO1963","24.376","0.34142","5"],
    [40477,"HCEP03730564","2024-11-22 22:30:00","11.8567","3.54326","26.752","2.654285714285714","7.41","3.346","2407.825","0.01","13.68","30.6889","4.8068","29.78","0","SATNPRO1963","24.328","0.34078","5"],
    [40478,"HCEP03730564","2024-11-22 22:45:00","11.8549","3.54148","26.685","2.627142857142857","7.41","3.558","2162.529","0.01","8.73","30.6733","4.80462","29.48","0","SATNPRO1963","24.078","0.33724","5"],
    [40479,"HCEP03730564","2024-11-22 23:00:00","11.853","3.53976","26.634","2.642857142857143","7.41","3.558","2154.479","0","0","30.6584","4.80254","29.65","0","SATNPRO1963","24.744","0.34662","5"],
    [40480,"HCEP03730564","2024-11-22 23:15:00","11.8497","3.53725","26.55","2.655714285714286","7.41","3.409","2286.201","0","7.79","30.637","4.79957","29.79","0","SATNPRO1963","24.556","0.34394","5"],
    [40481,"HCEP03730564","2024-11-22 23:30:00","11.849","3.53641","26.462","2.632857142857143","7.41","3.546","2158.645","0.01","12.96","30.6295","4.79852","29.53","0","SATNPRO1963","24.502","0.34322","5"],
    [40482,"HCEP03730564","2024-11-22 23:45:00","11.8488","3.53602","26.384","2.628571428571429","7.41","3.55","2150.916","0.01","1.63","30.626","4.79802","29.48","0","SATNPRO1963","24.586","0.3444","5"],
    [40483,"HCEP03730564","2024-11-23 00:00:00","11.8486","3.53572","26.303","2.632857142857143","7.41","3.389","2696.088","0.01","14.76","30.6233","4.79764","29.53","0","SATNPRO1963","24.67","0.34558","5"],
    [40484,"HCEP03730564","2024-11-23 00:15:00","11.8458","3.53406","26.279","2.585714285714286","7.4","3.561","2334.679","0.01","8.37","30.6096","4.79574","29","0","SATNPRO1963","24.48","0.34288","5"],
    [40485,"HCEP03730564","2024-11-23 00:30:00","11.8403","3.53102","26.181","2.5","7.4","3.561","2334.155","0","1.08","30.5849","4.79232","28.03","0","SATNPRO1963","23.922","0.33506","5"],
    [40486,"HCEP03730564","2024-11-23 00:45:00","11.8327","3.52659","26.099","2.441428571428572","7.4","3.354","2652.54","0","9.24","30.5485","4.7873","27.36","0","SATNPRO1963","23.954","0.33554","5"],
    [40487,"HCEP03730564","2024-11-23 01:00:00","11.8296","3.52387","26.008","2.438571428571429","7.4","3.514","2319.5","0.01","10.9","30.5251","4.78402","27.32","0","SATNPRO1963","23.628","0.33098","5"],
    [40488,"HCEP03730564","2024-11-23 01:15:00","11.8278","3.52277","25.954","2.422857142857143","7.39","3.51","2317.074","0","0","30.5159","4.78275","27.15","0","SATNPRO1963","23.89","0.33462","5"],
    [40489,"HCEP03730564","2024-11-23 01:30:00","11.8261","3.5212","25.884","2.407142857142858","7.39","3.309","2717.719","0.01","7.63","30.5023","4.78085","26.97","0","SATNPRO1963","23.342","0.32696","5"],
    [40490,"HCEP03730564","2024-11-23 01:45:00","11.8225","3.51915","25.783","2.397142857142857","7.38","3.532","2237.595","0.01","9.24","30.4855","4.77852","26.85","0","SATNPRO1963","23.432","0.3282","5"],
    [40491,"HCEP03730564","2024-11-23 02:00:00","11.8205","3.51786","25.714","2.384285714285714","7.38","3.534","2233.879","0","1.53","30.4748","4.77704","26.71","0","SATNPRO1963","23.522","0.32946","5"],
    [40492,"HCEP03730564","2024-11-23 02:15:00","11.8178","3.51628","25.669","2.36","7.37","3.34","2634.637","0","7.07","30.4619","4.77525","26.43","0","SATNPRO1963","23.192","0.32482","5"],
    [40493,"HCEP03730564","2024-11-23 02:30:00","11.8169","3.51561","25.581","2.338571428571428","7.37","3.566","2149.656","0.01","2.77","30.4562","4.77446","26.18","0","SATNPRO1963","23.128","0.32392","5"],
    [40494,"HCEP03730564","2024-11-23 02:45:00","11.8163","3.51529","25.5","2.328571428571428","7.37","3.566","2145.637","0.01","1.63","30.4536","4.77408","26.07","0","SATNPRO1963","23.206","0.32504","5"],
    [40495,"HCEP03730564","2024-11-23 03:00:00","11.8156","3.51485","25.456","2.317142857142857","7.37","3.332","2627.537","0.01","4.73","30.4501","4.7736","25.95","0","SATNPRO1963","23.102","0.32358","5"],
    [40496,"HCEP03730564","2024-11-23 03:15:00","11.8156","3.51474","25.415","2.308571428571429","7.37","3.556","2206.666","0.01","4.67","30.4489","4.77344","25.85","0","SATNPRO1963","23.246","0.3256","5"],
    [40497,"HCEP03730564","2024-11-23 03:30:00","11.8161","3.51506","25.373","2.305714285714286","7.37","3.555","2200.586","0","1.33","30.4516","4.7738","25.82","0","SATNPRO1963","23.152","0.32426","5"],
    [40498,"HCEP03730564","2024-11-23 03:45:00","11.8172","3.51563","25.331","2.304285714285714","7.36","3.32","2684.055","0","5.48","30.4562","4.77444","25.8","0","SATNPRO1963","23.198","0.32496","5"],
    [40499,"HCEP03730564","2024-11-23 04:00:00","11.8178","3.51626","25.338","2.3","7.36","3.543","2202.489","0.01","6.78","30.4617","4.77521","25.76","0","SATNPRO1963","23.342","0.32694","5"],
    [40500,"HCEP03730564","2024-11-23 04:15:00","11.8191","3.51726","25.366","2.312857142857143","7.37","3.544","2198.292","0.01","0","30.4703","4.7764","25.9","0","SATNPRO1963","23.312","0.3265","5"],
    [40501,"HCEP03730564","2024-11-23 04:30:00","11.8217","3.51927","25.388","2.328571428571428","7.36","3.324","2657.284","0","6.69","30.4876","4.7788","26.09","0","SATNPRO1963","23.58","0.33028","5"],
    [40502,"HCEP03730564","2024-11-23 04:45:00","11.8205","3.5201","25.422","2.347142857142857","7.36","3.548","2220.441","0.01","5.03","30.4965","4.78009","26.29","0","SATNPRO1963","23.55","0.32988","5"],
    [40503,"HCEP03730564","2024-11-23 05:00:00","11.8208","3.52128","25.446","2.365714285714286","7.36","3.547","2217.371","0","1.72","30.5075","4.78164","26.5","0","SATNPRO1963","23.508","0.32926","5"],
    [40504,"HCEP03730564","2024-11-23 05:15:00","11.8191","3.52074","25.538","2.382857142857143","7.36","3.326","2653.134","0","10.69","30.5038","4.78114","26.68","0","SATNPRO1963","23.59","0.33042","5"],
    [40505,"HCEP03730564","2024-11-23 05:30:00","11.8222","3.52255","25.613","2.405714285714286","7.36","3.553","2229.99","0.01","5.94","30.5185","4.78318","26.95","0","SATNPRO1963","23.794","0.33328","5"],
    [40506,"HCEP03730564","2024-11-23 05:45:00","11.8275","3.52507","25.766","2.421428571428572","7.37","3.555","2224.897","0","0.77","30.5384","4.78592","27.14","0","SATNPRO1963","23.766000000000002","0.33286","5"],
    [40507,"HCEP03730564","2024-11-23 06:00:00","11.8268","3.52511","25.836","2.425714285714286","7.37","3.366","2634.39","0","6.69","30.5393","4.78606","27.18","0","SATNPRO1963","24.144000000000002","0.3382","5"],
    [40508,"HCEP03730564","2024-11-23 06:15:00","11.8279","3.52596","25.793","2.425714285714286","7.37","3.53","2237.225","0.01","6.33","30.5466","4.78708","27.19","0","SATNPRO1963","23.548000000000002","0.32982","5"],
    [40509,"HCEP03730564","2024-11-23 06:30:00","11.8277","3.5268","25.855","2.45","7.38","3.529","2233.063","0.01","0","30.5548","4.78824","27.46","0","SATNPRO1963","23.538","0.32968","5"],
    [40510,"HCEP03730564","2024-11-23 06:45:00","11.8282","3.52727","26.027","2.448571428571428","7.38","3.334","2609.766","0","6.78","30.5589","4.78882","27.44","0","SATNPRO1963","23.695999999999998","0.33192","5"],
    [40511,"HCEP03730564","2024-11-23 07:00:00","11.8303","3.52834","26.164","2.435714285714286","7.37","3.521","2186.672","0.01","3.52","30.5674","4.78999","27.3","0","SATNPRO1963","23.402","0.32776","5"],
    [40512,"HCEP03730564","2024-11-23 07:15:00","11.8316","3.52898","26.309","2.427142857142858","7.38","3.518","2187.444","0","1.08","30.5724","4.7907","27.2","0","SATNPRO1963","23.695999999999998","0.33192","5"],
    [40513,"HCEP03730564","2024-11-23 07:30:00","11.8312","3.52904","26.534","2.434285714285714","7.37","3.319","2548.491","0","5.09","30.5732","4.79083","27.29","0","SATNPRO1963","23.342","0.32692","5"],
    [40514,"HCEP03730564","2024-11-23 07:45:00","11.8325","3.52964","26.718","2.442857142857143","7.37","3.538","2153.713","0.01","4.67","30.5779","4.79148","27.39","0","SATNPRO1963","23.472","0.32874","5"],
    [40515,"HCEP03730564","2024-11-23 08:00:00","11.8326","3.52961","26.831","2.455714285714286","7.38","3.538","2148.565","0","1.63","30.5774","4.79141","27.53","0","SATNPRO1963","23.744","0.33256","5"],
    [40516,"HCEP03730564","2024-11-23 08:15:00","11.8335","3.52956","26.82","2.484285714285714","7.39","3.321","2502.823","0","6.6","30.5762","4.79124","27.85","0","SATNPRO1963","23.716","0.33218","5"],
    [40517,"HCEP03730564","2024-11-23 08:30:00","11.8335","3.52949","26.989","2.468571428571428","7.39","3.535","2083.436","0.01","4.37","30.5754","4.79113","27.68","0","SATNPRO1963","23.596","0.3305","5"],
    [40518,"HCEP03730564","2024-11-23 08:45:00","11.8325","3.52908","27.224","2.47","7.39","3.537","2080.538","0","1.33","30.5723","4.79072","27.69","0","SATNPRO1963","23.778","0.33304","5"],
    [40519,"HCEP03730564","2024-11-23 09:00:00","11.8334","3.52901","27.381","2.484285714285714","7.38","3.287","2466.125","0.01","4.27","30.5708","4.7905","27.84","0","SATNPRO1963","24.014","0.3363","5"],
    [40520,"HCEP03730564","2024-11-23 09:15:00","11.8356","3.53033","27.516","2.478571428571429","7.38","3.524","2053.7","0.01","6.04","30.5816","4.792","27.78","0","SATNPRO1963","23.82","0.33366","5"],
    [40521,"HCEP03730564","2024-11-23 09:30:00","11.8385","3.53078","27.644","2.481428571428572","7.38","3.523","2051.121","0.01","1.44","30.5835","4.79224","27.82","0","SATNPRO1963","24.106","0.33764","5"],
    [40522,"HCEP03730564","2024-11-23 09:45:00","11.8397","3.53149","27.74","2.47","7.38","3.285","2419.796","0","7.79","30.5893","4.79305","27.7","0","SATNPRO1963","24.192","0.33886","5"],
    [40523,"HCEP03730564","2024-11-23 10:00:00","11.8416","3.53259","27.783","2.477142857142857","7.38","3.509","2099.939","0.01","9.54","30.5983","4.79429","27.77","0","SATNPRO1963","24.138","0.33808","5"],
    [40524,"HCEP03730564","2024-11-23 10:15:00","11.8428","3.53355","27.879","2.452857142857143","7.38","3.507","2096.247","0","2.3","30.6066","4.79545","27.5","0","SATNPRO1963","23.892","0.33464","5"],
    [40525,"HCEP03730564","2024-11-23 10:30:00","11.8431","3.53366","27.937","2.441428571428572","7.37","3.361","2412.881","0","5.26","30.6074","4.79556","27.37","0","SATNPRO1963","24.04","0.3367","5"],
    [40526,"HCEP03730564","2024-11-23 10:45:00","11.8433","3.53373","28.011","2.442857142857143","7.38","3.538","2083.127","0","9.52","30.6078","4.79562","27.39","0","SATNPRO1963","23.884","0.33456","5"],
    [40527,"HCEP03730564","2024-11-23 11:00:00","11.8414","3.53261","28.087","2.432857142857143","7.38","3.538","2078.631","0","1.53","30.5986","4.79435","27.28","0","SATNPRO1963","23.82","0.33362","5"],
    [40528,"HCEP03730564","2024-11-23 11:15:00","11.8399","3.5313","28.118","2.434285714285714","7.4","3.321","2426.9","0.01","7.16","30.5872","4.79277","27.29","0","SATNPRO1963","23.848","0.33402","5"],
    [40529,"HCEP03730564","2024-11-23 11:30:00","11.8404","3.5317","28.14","2.455714285714286","7.37","3.533","2115.152","0.01","7.86","30.5906","4.79324","27.53","0","SATNPRO1963","24.308","0.34048","5"],
    [40530,"HCEP03730564","2024-11-23 11:45:00","11.8405","3.53219","28.164","2.47","7.37","3.531","2115.347","0.01","0.54","30.5953","4.7939","27.7","0","SATNPRO1963","24.2","0.33898","5"],
    [40531,"HCEP03730564","2024-11-23 12:00:00","11.8425","3.53321","28.156","2.477142857142857","7.37","3.282","2559.608","0","6.09","30.6034","4.79502","27.78","0","SATNPRO1963","24.23","0.3394","5"],
    [40532,"HCEP03730564","2024-11-23 12:15:00","11.8434","3.53433","28.139","2.49","7.37","3.51","2201.297","0.01","5.53","30.6134","4.79642","27.92","0","SATNPRO1963","24.168","0.33854","5"],
    [40533,"HCEP03730564","2024-11-23 12:30:00","11.8439","3.53464","28.108","2.542857142857143","7.38","3.508","2200.12","0","0","30.616","4.79677","28.51","0","SATNPRO1963","24.186","0.33876","5"],
    [40534,"HCEP03730564","2024-11-23 12:45:00","11.8442","3.53508","28.065","2.558571428571429","7.38","3.367","2484.34","0.01","7.56","30.62","4.79733","28.69","0","SATNPRO1963","24.464","0.34262","5"],
    [40535,"HCEP03730564","2024-11-23 13:00:00","11.8446","3.53527","28.011","2.584285714285714","7.38","3.552","2120.886","0.01","10.32","30.6215","4.79754","28.98","0","SATNPRO1963","24.16","0.3384","5"],
    [40536,"HCEP03730564","2024-11-23 13:15:00","11.8448","3.53504","27.949","2.614285714285714","7.38","3.553","2114.841","0","0.94","30.6192","4.79721","29.32","0","SATNPRO1963","24.678","0.34564","5"],
    [40537,"HCEP03730564","2024-11-23 13:30:00","11.8452","3.53559","27.876","2.614285714285714","7.41","3.433","2429.392","0.01","6.9","30.6242","4.7979","29.33","0","SATNPRO1963","24.322","0.34068","5"],
    [40538,"HCEP03730564","2024-11-23 13:45:00","11.8449","3.53549","27.795","2.598571428571429","7.39","3.566","2223.374","0.01","5.89","30.6235","4.7978","29.14","0","SATNPRO1963","24.224","0.33926","5"],
    [40539,"HCEP03730564","2024-11-23 14:00:00","11.8438","3.53448","27.718","2.59","7.39","3.563","2219.121","0.01","2.3","30.6148","4.79658","29.04","0","SATNPRO1963","24.448","0.34244","5"],
    [40540,"HCEP03730564","2024-11-23 14:15:00","11.8431","3.53399","27.634","2.57","7.38","3.377","2592.317","0","5.79","30.6106","4.79599","28.83","0","SATNPRO1963","24.204","0.33906","5"],
    [40541,"HCEP03730564","2024-11-23 14:30:00","11.8422","3.53328","27.539","2.55","7.38","3.535","2274.712","0.01","5.03","30.6046","4.79516","28.6","0","SATNPRO1963","24.354","0.3411","5"],
    [40542,"HCEP03730564","2024-11-23 14:45:00","11.841","3.53254","27.435","2.554285714285714","7.38","3.536","2273.866","0.01","1.72","30.5986","4.79431","28.64","0","SATNPRO1963","24.368000000000002","0.34128","5"],
    [40543,"HCEP03730564","2024-11-23 15:00:00","11.8404","3.53219","27.317","2.564285714285714","7.38","3.378","2660.489","0","6.86","30.5957","4.79391","28.75","0","SATNPRO1963","24.192","0.33884","5"],
    [40544,"HCEP03730564","2024-11-23 15:15:00","11.8386","3.531","27.202","2.608571428571428","7.38","3.544","2364.987","0.01","3.84","30.5858","4.79253","29.25","0","SATNPRO1963","24.652","0.34528","5"],
    [40545,"HCEP03730564","2024-11-23 15:30:00","11.8373","3.53009","27.075","2.714285714285714","7.39","3.543","2360.916","0","1.33","30.5781","4.79146","30.43","0","SATNPRO1963","24.87","0.34834","5"],
    [40546,"HCEP03730564","2024-11-23 15:45:00","11.8368","3.52961","26.948","2.782857142857143","7.39","3.398","2695.632","0.01","7.48","30.5739","4.79087","31.2","0","SATNPRO1963","24.844","0.34802","5"],
    [40547,"HCEP03730564","2024-11-23 16:00:00","11.8369","3.52992","26.817","2.751428571428571","7.39","3.547","2373.373","0.01","5.99","30.5769","4.79129","30.84","0","SATNPRO1963","24.782","0.3471","5"],
    [40548,"HCEP03730564","2024-11-23 16:15:00","11.8374","3.53022","26.692","2.715714285714286","7.39","3.547","2367.084","0","0.77","30.5794","4.79163","30.45","0","SATNPRO1963","24.678","0.34564","5"],
    [40549,"HCEP03730564","2024-11-23 16:30:00","11.8378","3.53026","26.577","2.711428571428571","7.39","3.413","2628.316","0","6.28","30.5796","4.79163","30.39","0","SATNPRO1963","24.768","0.34694","5"],
    [40550,"HCEP03730564","2024-11-23 16:45:00","11.8418","3.53395","26.473","2.635714285714286","7.39","3.545","2353.042","0.01","5.64","30.6118","4.79612","29.56","0","SATNPRO1963","24.082","0.3373","5"],
    [40551,"HCEP03730564","2024-11-23 17:00:00","11.8431","3.53499","26.382","2.452857142857143","7.39","3.543","2343.782","0","2.3","30.6207","4.79735","27.5","0","SATNPRO1963","23.722","0.33224","5"],
    [40552,"HCEP03730564","2024-11-23 17:15:00","11.8477","3.53836","26.304","2.427142857142858","7.39","3.397","2734.166","0","6.42","30.6493","4.80132","27.23","0","SATNPRO1963","23.844","0.33398","5"],
    [40553,"HCEP03730564","2024-11-23 17:30:00","11.8486","3.53915","26.241","2.467142857142858","7.39","3.517","2340.038","0.01","4.47","30.6563","4.80229","27.68","0","SATNPRO1963","23.9","0.33476","5"],
    [40554,"HCEP03730564","2024-11-23 17:45:00","11.8483","3.53897","26.191","2.472857142857143","7.39","3.514","2336.008","0.01","0","30.6548","4.80208","27.75","0","SATNPRO1963","24.259999999999998","0.33982","5"],
    [40555,"HCEP03730564","2024-11-23 18:00:00","11.8494","3.53957","26.124","2.508571428571428","7.38","3.324","2676.394","0.01","7.44","30.6598","4.80276","28.15","0","SATNPRO1963","24.104","0.3376","5"],
    [40556,"HCEP03730564","2024-11-23 18:15:00","11.85","3.54004","26.096","2.5","7.39","3.512","2326.149","0.01","3.84","30.6637","4.80331","28.05","0","SATNPRO1963","24.204","0.33904","5"],
    [40557,"HCEP03730564","2024-11-23 18:30:00","11.8503","3.53987","26.091","2.511428571428572","7.39","3.512","2323.66","0","0.77","30.6619","4.80305","28.17","0","SATNPRO1963","24.178","0.33862","5"],
    [40558,"HCEP03730564","2024-11-23 18:45:00","11.8494","3.53912","26.077","2.507142857142857","7.39","3.342","2707.944","0","7.16","30.6554","4.80214","28.13","0","SATNPRO1963","23.996","0.3361","5"],
    [40559,"HCEP03730564","2024-11-23 19:00:00","11.8488","3.53846","26.032","2.502857142857143","7.39","3.462","2352.185","0.01","7.16","30.6496","4.80132","28.08","0","SATNPRO1963","23.98","0.33588","5"],
    [40560,"HCEP03730564","2024-11-23 19:15:00","11.8489","3.53857","25.965","2.485714285714286","7.39","3.46","2350.768","0","0","30.6506","4.80146","27.89","0","SATNPRO1963","24.034","0.33668","5"],
    [40561,"HCEP03730564","2024-11-23 19:30:00","11.847","3.53767","25.982","2.491428571428572","7.4","3.288","2702.263","0","5.69","30.6435","4.80049","27.96","0","SATNPRO1963","24.368","0.3413","5"],
    [40562,"HCEP03730564","2024-11-23 19:45:00","11.846","3.53781","26.042","2.612857142857143","7.4","3.477","2208.083","0.01","5.48","30.6456","4.80081","29.31","0","SATNPRO1963","24.874000000000002","0.34842","5"],
    [40563,"HCEP03730564","2024-11-23 20:00:00","11.8476","3.53928","26.068","2.74","7.4","3.479","2204.521","0.01","1.88","30.6585","4.8026","30.73","0","SATNPRO1963","25.09","0.3514","5"],
    [40564,"HCEP03730564","2024-11-23 20:15:00","11.8482","3.53984","26.105","2.777142857142857","7.4","3.267","2601.082","0","7.36","30.6633","4.80327","31.16","0","SATNPRO1963","24.9","0.34874","5"],
    [40565,"HCEP03730564","2024-11-23 20:30:00","11.8484","3.54022","26.082","2.771428571428571","7.4","3.483","2203.079","0.01","7.9","30.6668","4.80377","31.1","0","SATNPRO1963","24.855999999999998","0.34816","5"],
    [40566,"HCEP03730564","2024-11-23 20:45:00","11.8488","3.54043","26.088","2.77","7.41","3.481","2200.707","0.01","1.53","30.6685","4.804","31.08","0","SATNPRO1963","24.79","0.34722","5"],
    [40567,"HCEP03730564","2024-11-23 21:00:00","11.8485","3.53985","26.123","2.78","7.41","3.312","2500.976","0","7.36","30.6631","4.80325","31.18","0","SATNPRO1963","24.792","0.34728","5"],
    [40568,"HCEP03730564","2024-11-23 21:15:00","11.8484","3.53974","26.156","2.787142857142857","7.41","3.515","2195.232","0.01","8.3","30.6621","4.80311","31.26","0","SATNPRO1963","24.7","0.346","5"],
    [40569,"HCEP03730564","2024-11-23 21:30:00","11.8479","3.53959","26.205","2.784285714285714","7.41","3.515","2192.107","0","1.33","30.6611","4.80298","31.23","0","SATNPRO1963","24.972","0.34978","5"],
    [40570,"HCEP03730564","2024-11-23 21:45:00","11.8465","3.53787","26.23","2.795714285714286","7.41","3.418","2393.708","0.01","6.64","30.6457","4.80082","31.37","0","SATNPRO1963","25.024","0.35054","5"],
    [40571,"HCEP03730564","2024-11-23 22:00:00","11.8435","3.5358","26.349","2.77","7.41","3.508","2056.589","0","3.64","30.6282","4.7984","31.07","0","SATNPRO1963","24.756","0.34674","5"],
    [40572,"HCEP03730564","2024-11-23 22:15:00","11.8401","3.53316","26.397","2.697142857142857","7.41","3.51","2051.354","0","1.44","30.6056","4.79527","30.24","0","SATNPRO1963","24.448","0.34246","5"],
    [40573,"HCEP03730564","2024-11-23 22:30:00","11.8367","3.53086","26.485","2.624285714285714","7.4","3.342","2334.086","0.01","5.15","30.5863","4.79259","29.42","0","SATNPRO1963","24.632","0.34504","5"],
    [40574,"HCEP03730564","2024-11-23 22:45:00","11.8354","3.52948","26.489","2.608571428571428","7.4","3.484","1983.974","0.01","5.79","30.5741","4.79089","29.24","0","SATNPRO1963","24.556","0.344","5"],
    [40575,"HCEP03730564","2024-11-23 23:00:00","11.8368","3.53048","26.451","2.617142857142857","7.4","3.484","1977.358","0","0.54","30.5825","4.79205","29.34","0","SATNPRO1963","24.494","0.34314","5"],
    [40576,"HCEP03730564","2024-11-23 23:15:00","11.8354","3.52983","26.467","2.598571428571429","7.39","3.266","2332.238","0.01","7.07","30.5774","4.79135","29.13","0","SATNPRO1963","24.444","0.34238","5"],
    [40577,"HCEP03730564","2024-11-23 23:30:00","11.8307","3.5273","26.415","2.56","7.39","3.455","1935.115","0","3.25","30.5569","4.78853","28.7","0","SATNPRO1963","24.264","0.33992","5"],
    [40578,"HCEP03730564","2024-11-23 23:45:00","11.8301","3.52695","26.434","2.531428571428572","7.39","3.451","1932.896","0","0.94","30.554","4.78813","28.37","0","SATNPRO1963","24.154","0.33834","5"],
    [40579,"HCEP03730564","2024-11-24 00:00:00","11.8287","3.52627","26.449","2.507142857142857","7.4","3.232","2337.972","0","6.73","30.5487","4.78739","28.09","0","SATNPRO1963","24.122","0.33788","5"],
    [40580,"HCEP03730564","2024-11-24 00:15:00","11.8269","3.52525","26.477","2.487142857142858","7.4","3.476","1946.247","0.01","7.3","30.5403","4.78623","27.87","0","SATNPRO1963","24.354","0.34116","5"],
    [40581,"HCEP03730564","2024-11-24 00:30:00","11.825","3.52395","26.496","2.46","7.39","3.478","1942.549","0.01","1.08","30.5294","4.78472","27.56","0","SATNPRO1963","23.954","0.3355","5"],
    [40582,"HCEP03730564","2024-11-24 00:45:00","11.8241","3.52337","26.529","2.435714285714286","7.38","3.299","2266.431","0","6.46","30.5245","4.78405","27.3","0","SATNPRO1963","23.906","0.33488","5"],
    [40583,"HCEP03730564","2024-11-24 01:00:00","11.8221","3.52243","26.518","2.414285714285714","7.38","3.488","2007.996","0.01","2.97","30.5171","4.78304","27.05","0","SATNPRO1963","23.913999999999998","0.33498","5"],
    [40584,"HCEP03730564","2024-11-24 01:15:00","11.8212","3.52191","26.516","2.397142857142857","7.38","3.486","2003.615","0.01","1.08","30.5128","4.78244","26.86","0","SATNPRO1963","23.91","0.33492","5"],
    [40585,"HCEP03730564","2024-11-24 01:30:00","11.8214","3.52214","26.508","2.391428571428572","7.37","3.296","2306.289","0","6.55","30.5149","4.78273","26.8","0","SATNPRO1963","23.902","0.33482","5"],
    [40586,"HCEP03730564","2024-11-24 01:45:00","11.8227","3.52268","26.469","2.4","7.37","3.464","2004.246","0.01","7.65","30.5191","4.7833","26.88","0","SATNPRO1963","23.902","0.33476","5"],
    [40587,"HCEP03730564","2024-11-24 02:00:00","11.824","3.52347","26.46","2.408571428571428","7.37","3.461","1997.786","0","0.77","30.5257","4.78421","26.98","0","SATNPRO1963","23.892","0.33466","5"],
    [40588,"HCEP03730564","2024-11-24 02:15:00","11.8248","3.52397","26.414","2.41","7.37","3.263","2340.433","0.01","6.23","30.5298","4.78479","27.01","0","SATNPRO1963","24.224","0.33928","5"],
    [40589,"HCEP03730564","2024-11-24 02:30:00","11.8256","3.52459","26.379","2.431428571428572","7.37","3.491","1987.805","0.01","5.03","30.5352","4.78553","27.24","0","SATNPRO1963","24.036","0.33668","5"],
    [40590,"HCEP03730564","2024-11-24 02:45:00","11.8265","3.52529","26.326","2.448571428571428","7.37","3.488","1984.426","0","1.21","30.5411","4.78634","27.43","0","SATNPRO1963","24.096","0.33748","5"],
    [40591,"HCEP03730564","2024-11-24 03:00:00","11.8272","3.52583","26.294","2.468571428571428","7.37","3.273","2340.809","0","7.52","30.5458","4.787","27.66","0","SATNPRO1963","24.124","0.33792","5"],
    [40592,"HCEP03730564","2024-11-24 03:15:00","11.828","3.52627","26.173","2.485714285714286","7.37","3.455","1987.331","0.01","3.95","30.5494","4.78748","27.86","0","SATNPRO1963","24.156","0.33836","5"],
    [40593,"HCEP03730564","2024-11-24 03:30:00","11.829","3.52681","26.011","2.485714285714286","7.37","3.455","1985.453","0","1.33","30.5539","4.7881","27.86","0","SATNPRO1963","24.288","0.3402","5"],
    [40594,"HCEP03730564","2024-11-24 03:45:00","11.8298","3.5275","25.875","2.507142857142857","7.38","3.196","2386.298","0","8.85","30.5598","4.78892","28.09","0","SATNPRO1963","24.238","0.3395","5"],
    [40595,"HCEP03730564","2024-11-24 04:00:00","11.8316","3.52852","25.788","2.532857142857143","7.38","3.437","1999.192","0.01","10.74","30.5682","4.79007","28.4","0","SATNPRO1963","24.134","0.338","5"],
    [40596,"HCEP03730564","2024-11-24 04:15:00","11.8332","3.52947","25.734","2.561428571428571","7.38","3.434","1995.741","0.01","0.94","30.5761","4.79116","28.72","0","SATNPRO1963","24.574","0.34418","5"],
    [40597,"HCEP03730564","2024-11-24 04:30:00","11.8341","3.53012","25.658","2.57","7.38","3.223","2361.906","0.01","7.32","30.5816","4.79192","28.81","0","SATNPRO1963","24.57","0.34416","5"],
    [40598,"HCEP03730564","2024-11-24 04:45:00","11.8348","3.53048","25.601","2.575714285714286","7.38","3.444","1992.819","0.01","5.53","30.5845","4.79231","28.87","0","SATNPRO1963","24.496","0.34306","5"],
    [40599,"HCEP03730564","2024-11-24 05:00:00","11.8352","3.53091","25.571","2.587142857142857","7.38","3.441","1988.749","0.01","1.08","30.5883","4.79285","29.01","0","SATNPRO1963","24.53","0.3436","5"],
    [40600,"HCEP03730564","2024-11-24 05:15:00","11.8361","3.53148","25.587","2.6","7.38","3.172","2421.958","0","7.71","30.5931","4.79351","29.15","0","SATNPRO1963","24.452","0.34246","5"],
    [40601,"HCEP03730564","2024-11-24 05:30:00","11.8376","3.53266","25.616","2.601428571428571","7.38","3.433","2023.686","0.01","6.4","30.6032","4.79492","29.17","0","SATNPRO1963","24.362000000000002","0.34122","5"],
    [40602,"HCEP03730564","2024-11-24 05:45:00","11.8399","3.53404","25.636","2.622857142857143","7.38","3.433","2022.561","0.01","0.94","30.6145","4.79648","29.4","0","SATNPRO1963","24.77","0.3469","5"],
    [40603,"HCEP03730564","2024-11-24 06:00:00","11.8405","3.53469","25.678","2.634285714285714","7.38","3.217","2416.785","0","8.4","30.6203","4.79729","29.54","0","SATNPRO1963","24.542","0.34378","5"],
    [40604,"HCEP03730564","2024-11-24 06:15:00","11.8414","3.5355","25.707","2.645714285714286","7.38","3.468","2028.98","0.01","6.28","30.6272","4.79826","29.68","0","SATNPRO1963","24.708","0.34606","5"],
    [40605,"HCEP03730564","2024-11-24 06:30:00","11.8419","3.53585","25.83","2.617142857142857","7.39","3.466","2022.297","0","1.21","30.6303","4.79869","29.36","0","SATNPRO1963","24.285999999999998","0.3401","5"],
    [40606,"HCEP03730564","2024-11-24 06:45:00","11.8444","3.53721","25.914","2.602857142857143","7.38","3.231","2475.821","0","7.48","30.6412","4.80019","29.19","0","SATNPRO1963","24.548000000000002","0.34386","5"],
    [40607,"HCEP03730564","2024-11-24 07:00:00","11.8456","3.53797","25.993","2.594285714285714","7.38","3.446","2107.609","0.01","5.84","30.6475","4.80107","29.11","0","SATNPRO1963","24.538","0.34366","5"],
    [40608,"HCEP03730564","2024-11-24 07:15:00","11.8457","3.53819","26.099","2.592857142857143","7.38","3.442","2105.263","0.01","1.63","30.6495","4.80136","29.09","0","SATNPRO1963","24.482","0.34288","5"],
    [40609,"HCEP03730564","2024-11-24 07:30:00","11.8462","3.53839","26.225","2.595714285714286","7.38","3.254","2456.966","0.01","6.18","30.651","4.80157","29.12","0","SATNPRO1963","24.616","0.34482","5"],
    [40610,"HCEP03730564","2024-11-24 07:45:00","11.8465","3.53862","26.4","2.592857142857143","7.38","3.458","2065.294","0.01","3.68","30.6529","4.80184","29.09","0","SATNPRO1963","24.64","0.3451","5"],
    [40611,"HCEP03730564","2024-11-24 08:00:00","11.8469","3.53866","26.555","2.598571428571429","7.38","3.456","2062.927","0","1.88","30.6528","4.80184","29.15","0","SATNPRO1963","24.604","0.3446","5"],
    [40612,"HCEP03730564","2024-11-24 08:15:00","11.8473","3.5389","26.709","2.594285714285714","7.38","3.241","2463.817","0","6.9","30.6547","4.80211","29.1","0","SATNPRO1963","24.684","0.34574","5"],
    [40613,"HCEP03730564","2024-11-24 08:30:00","11.8477","3.53887","26.853","2.577142857142857","7.38","3.42","2072.659","0.01","9.49","30.6541","4.80202","28.92","0","SATNPRO1963","24.808","0.34748","5"],
    [40614,"HCEP03730564","2024-11-24 08:45:00","11.8475","3.53884","26.978","2.574285714285714","7.38","3.417","2064.909","0","2.1","30.6539","4.80201","28.89","0","SATNPRO1963","24.572","0.34416","5"],
    [40615,"HCEP03730564","2024-11-24 09:00:00","11.8473","3.5388","27.1","2.564285714285714","7.37","3.212","2473.46","0.01","11.81","30.6536","4.80198","28.77","0","SATNPRO1963","24.47","0.34278","5"],
    [40616,"HCEP03730564","2024-11-24 09:15:00","11.8469","3.53855","27.215","2.577142857142857","7.37","3.447","2091.031","0.01","6.18","30.6516","4.8017","28.92","0","SATNPRO1963","24.69","0.3458","5"],
    [40617,"HCEP03730564","2024-11-24 09:30:00","11.8472","3.53884","27.34","2.578571428571429","7.38","3.444","2087.102","0.01","1.88","30.654","4.80205","28.93","0","SATNPRO1963","24.456","0.34256","5"],
    [40618,"HCEP03730564","2024-11-24 09:45:00","11.8475","3.53918","27.475","2.577142857142857","7.38","3.296","2415.676","0","6.82","30.657","4.80247","28.91","0","SATNPRO1963","24.688","0.34576","5"],
    [40619,"HCEP03730564","2024-11-24 10:00:00","11.8476","3.53925","27.606","2.575714285714286","7.38","3.395","2138.816","0.01","10.45","30.6576","4.80256","28.89","0","SATNPRO1963","24.556","0.34394","5"],
    [40620,"HCEP03730564","2024-11-24 10:15:00","11.8473","3.53917","27.71","2.567142857142857","7.38","3.395","2137.071","0.01","1.33","30.6569","4.80247","28.8","0","SATNPRO1963","24.558","0.34398","5"],
    [40621,"HCEP03730564","2024-11-24 10:30:00","11.8475","3.53927","27.811","2.562857142857143","7.37","3.234","2477.787","0","6.51","30.6577","4.80259","28.76","0","SATNPRO1963","24.818","0.34758","5"],
    [40622,"HCEP03730564","2024-11-24 10:45:00","11.8471","3.53922","27.894","2.587142857142857","7.37","3.452","2081.444","0.01","4.06","30.6575","4.80258","29.02","0","SATNPRO1963","24.344","0.341","5"],
    [40623,"HCEP03730564","2024-11-24 11:00:00","11.8458","3.54117","27.97","2.634285714285714","7.38","3.451","2080.404","0","1.72","30.6773","4.80539","29.55","0","SATNPRO1963","24.742","0.34656","5"],
    [40624,"HCEP03730564","2024-11-24 11:15:00","11.846","3.5408","28.019","2.788571428571429","7.38","3.296","2386.875","0","9.14","30.6736","4.80487","31.28","0","SATNPRO1963","24.992","0.35004","5"],
    [40625,"HCEP03730564","2024-11-24 11:30:00","11.8461","3.5407","28.047","2.77","7.38","3.437","2034.166","0.01","6.8","30.6725","4.80471","31.07","0","SATNPRO1963","24.976","0.34984","5"],
    [40626,"HCEP03730564","2024-11-24 11:45:00","11.846","3.54095","28.07","2.75","7.39","3.436","2028.629","0.01","0.77","30.675","4.80507","30.85","0","SATNPRO1963","24.791999999999998","0.34724","5"],
    [40627,"HCEP03730564","2024-11-24 12:00:00","11.8453","3.54101","28.082","2.808571428571429","7.39","3.238","2355","0","10.23","30.6762","4.80524","31.51","0","SATNPRO1963","24.758","0.34678","5"],
    [40628,"HCEP03730564","2024-11-24 12:15:00","11.8452","3.5411","28.099","2.827142857142857","7.39","3.455","2095.737","0","9.35","30.6772","4.80539","31.72","0","SATNPRO1963","25.022","0.35046","5"],
    [40629,"HCEP03730564","2024-11-24 12:30:00","11.845","3.54146","28.089","2.868571428571429","7.39","3.455","2087.437","0","1.96","30.6808","4.8059","32.19","0","SATNPRO1963","25.072","0.35114","5"],
    [40630,"HCEP03730564","2024-11-24 12:45:00","11.8461","3.53989","28.081","2.804285714285714","7.38","3.322","2303.828","0.01","5.26","30.6647","4.80362","31.47","0","SATNPRO1963","24.896","0.3487","5"],
    [40631,"HCEP03730564","2024-11-24 13:00:00","11.8459","3.53907","28.054","2.701428571428572","7.38","3.46","2025.259","0.01","9.63","30.657","4.80253","30.31","0","SATNPRO1963","24.728","0.3464","5"],
    [40632,"HCEP03730564","2024-11-24 13:15:00","11.8456","3.53902","28.007","2.654285714285714","7.38","3.461","2018.099","0","1.33","30.6568","4.8025","29.77","0","SATNPRO1963","24.686","0.34576","5"],
    [40633,"HCEP03730564","2024-11-24 13:30:00","11.8449","3.54166","27.957","2.702857142857143","7.38","3.226","2358.43","0","6.51","30.6828","4.80617","30.33","0","SATNPRO1963","24.666","0.34546","5"],
    [40634,"HCEP03730564","2024-11-24 13:45:00","11.8452","3.54209","27.896","2.79","7.39","3.434","2023.387","0.01","4.44","30.6867","4.80672","31.3","0","SATNPRO1963","24.556","0.34396","5"],
    [40635,"HCEP03730564","2024-11-24 14:00:00","11.8445","3.54153","27.828","2.8","7.4","3.432","2016.355","0.01","1.88","30.6819","4.80604","31.42","0","SATNPRO1963","24.672","0.34558","5"],
    [40636,"HCEP03730564","2024-11-24 14:15:00","11.8458","3.54312","27.746","2.805714285714286","7.4","3.231","2422.323","0","8.23","30.6961","4.80803","31.49","0","SATNPRO1963","24.62","0.34484","5"],
    [40637,"HCEP03730564","2024-11-24 14:30:00","11.8467","3.54415","27.671","2.817142857142857","7.4","3.442","2072.443","0","14.84","30.7053","4.80931","31.61","0","SATNPRO1963","24.594","0.34446","5"],
    [40638,"HCEP03730564","2024-11-24 14:45:00","11.8467","3.54441","27.58","2.822857142857143","7.41","3.446","2061.428","0","1.53","30.7078","4.80966","31.68","0","SATNPRO1963","24.68","0.34566","5"],
    [40639,"HCEP03730564","2024-11-24 15:00:00","11.8473","3.54506","27.463","2.835714285714286","7.41","3.255","2409.115","0","7.11","30.7137","4.81048","31.82","0","SATNPRO1963","24.584","0.34434","5"],
    [40640,"HCEP03730564","2024-11-24 15:15:00","11.8473","3.54515","27.343","2.844285714285714","7.4","3.444","2002.815","0.01","4.34","30.7146","4.8106","31.92","0","SATNPRO1963","24.724","0.34632","5"],
    [40641,"HCEP03730564","2024-11-24 15:30:00","11.8476","3.54513","27.211","2.861428571428572","7.4","3.444","1999.619","0.01","1.08","30.7143","4.81054","32.12","0","SATNPRO1963","24.93","0.3492","5"],
    [40642,"HCEP03730564","2024-11-24 15:45:00","11.8473","3.5438","27.072","2.898571428571429","7.4","3.255","2346.804","0","5.94","30.7017","4.80876","32.54","0","SATNPRO1963","25.232","0.3534","5"],
    [40643,"HCEP03730564","2024-11-24 16:00:00","11.8478","3.54513","26.925","2.92","7.4","3.438","1978.437","0.01","5.97","30.7142","4.8105","32.76","0","SATNPRO1963","25.056","0.35096","5"],
    [40644,"HCEP03730564","2024-11-24 16:15:00","11.8482","3.54515","26.781","2.894285714285714","7.42","3.438","1973.39","0.01","1.44","30.714","4.81047","32.48","0","SATNPRO1963","25.032","0.35056","5"],
    [40645,"HCEP03730564","2024-11-24 16:30:00","11.8482","3.54527","26.638","2.864285714285714","7.4","3.207","2396.743","0","7.75","30.7153","4.81065","32.15","0","SATNPRO1963","24.88","0.34848","5"],
    [40646,"HCEP03730564","2024-11-24 16:45:00","11.8482","3.54527","26.494","2.84","7.41","3.45","2045.22","0.01","5.37","30.7154","4.81065","31.88","0","SATNPRO1963","24.604","0.34464","5"],
    [40647,"HCEP03730564","2024-11-24 17:00:00","11.8482","3.54536","26.377","2.82","7.42","3.45","2041.721","0","0","30.7162","4.81076","31.65","0","SATNPRO1963","24.642","0.3451","5"],
    [40648,"HCEP03730564","2024-11-24 17:15:00","11.8482","3.54565","26.239","2.818571428571429","7.42","3.269","2388.602","0","6.69","30.7192","4.81117","31.64","0","SATNPRO1963","24.982","0.34994","5"],
    [40649,"HCEP03730564","2024-11-24 17:30:00","11.8482","3.54601","26.091","2.827142857142857","7.41","3.471","2020.657","0.01","6.86","30.7226","4.81163","31.73","0","SATNPRO1963","24.924","0.3491","5"],
    [40650,"HCEP03730564","2024-11-24 17:45:00","11.8483","3.54625","25.974","2.83","7.41","3.471","2016.536","0","1.63","30.7249","4.81196","31.77","0","SATNPRO1963","24.736","0.34642","5"],
    [40651,"HCEP03730564","2024-11-24 18:00:00","11.8485","3.54646","25.897","2.807142857142857","7.41","3.234","2438.607","0","6.82","30.7268","4.81221","31.51","0","SATNPRO1963","24.496000000000002","0.3431","5"],
    [40652,"HCEP03730564","2024-11-24 18:15:00","11.8484","3.54671","25.839","2.8","7.4","3.451","2027.97","0.01","3.84","30.7293","4.81256","31.42","0","SATNPRO1963","24.398","0.34172","5"],
    [40653,"HCEP03730564","2024-11-24 18:30:00","11.8484","3.54655","25.793","2.788571428571429","7.41","3.45","2026.995","0","0.54","30.7278","4.81235","31.3","0","SATNPRO1963","24.292","0.34022","5"],
    [40654,"HCEP03730564","2024-11-24 18:45:00","11.8484","3.5467","25.775","2.775714285714286","7.41","3.246","2424.065","0","7.67","30.7292","4.81255","31.16","0","SATNPRO1963","24.49","0.34306","5"],
    [40655,"HCEP03730564","2024-11-24 19:00:00","11.8488","3.54716","25.77","2.775714285714286","7.4","3.451","2042.884","0.01","5.87","30.7333","4.81313","31.16","0","SATNPRO1963","24.64","0.34516","5"],
    [40656,"HCEP03730564","2024-11-24 19:15:00","11.8484","3.54725","25.767","2.781428571428572","7.42","3.45","2038.641","0","2.24","30.7345","4.8133","31.22","0","SATNPRO1963","24.406","0.3419","5"],
    [40657,"HCEP03730564","2024-11-24 19:30:00","11.8486","3.5472","25.768","2.768571428571429","7.4","3.241","2439.36","0.01","9.61","30.734","4.81322","31.07","0","SATNPRO1963","24.424","0.34208","5"],
    [40658,"HCEP03730564","2024-11-24 19:45:00","11.8486","3.54682","25.774","2.755714285714286","7.4","3.449","2060.483","0.01","4.97","30.7302","4.81268","30.93","0","SATNPRO1963","24.392","0.34168","5"],
    [40659,"HCEP03730564","2024-11-24 20:00:00","11.8482","3.54632","25.812","2.737142857142857","7.41","3.447","2056.055","0","1.08","30.7258","4.81207","30.72","0","SATNPRO1963","24.21","0.33912","5"],
    [40660,"HCEP03730564","2024-11-24 20:15:00","11.8482","3.5458","25.849","2.751428571428571","7.4","3.303","2361.171","0","6.64","30.7207","4.81136","30.88","0","SATNPRO1963","24.625999999999998","0.34492","5"],
    [40661,"HCEP03730564","2024-11-24 20:30:00","11.8482","3.545","25.879","2.81","7.4","3.47","2065.216","0.01","7.34","30.713","4.81028","31.53","0","SATNPRO1963","25.322","0.35468","5"],
    [40662,"HCEP03730564","2024-11-24 20:45:00","11.8473","3.54363","25.904","2.895714285714286","7.4","3.473","2056.621","0","1.08","30.7006","4.80853","32.5","0","SATNPRO1963","25.134","0.35204","5"],
    [40663,"HCEP03730564","2024-11-24 21:00:00","11.8468","3.5426","25.944","2.832857142857143","7.39","3.284","2409.332","0","6.42","30.691","4.8072","31.78","0","SATNPRO1963","24.676","0.34564","5"],
    [40664,"HCEP03730564","2024-11-24 21:15:00","11.8492","3.54398","25.976","2.758571428571429","7.39","3.44","2122.585","0.01","5.99","30.7024","4.80876","30.96","0","SATNPRO1963","24.542","0.34376","5"],
    [40665,"HCEP03730564","2024-11-24 21:30:00","11.8491","3.54413","26.027","2.687142857142857","7.39","3.439","2116.732","0.01","0.54","30.7038","4.80898","30.15","0","SATNPRO1963","24.706","0.34604","5"],
    [40666,"HCEP03730564","2024-11-24 21:45:00","11.8481","3.5435","26.077","2.675714285714286","7.39","3.263","2430.866","0","6.99","30.6986","4.80825","30.03","0","SATNPRO1963","24.916","0.349","5"],
    [40667,"HCEP03730564","2024-11-24 22:00:00","11.8474","3.54242","26.136","2.698571428571429","7.39","3.463","2020.802","0.01","5.09","30.6887","4.80687","30.28","0","SATNPRO1963","24.744","0.34658","5"],
    [40668,"HCEP03730564","2024-11-24 22:15:00","11.8474","3.54313","26.186","2.73","7.4","3.461","2014.531","0","0.94","30.6956","4.80785","30.64","0","SATNPRO1963","24.866","0.3483","5"],
    [40669,"HCEP03730564","2024-11-24 22:30:00","11.8465","3.54196","26.267","2.741428571428572","7.39","3.283","2372.69","0","6.28","30.685","4.80637","30.76","0","SATNPRO1963","24.928","0.3492","5"],
    [40670,"HCEP03730564","2024-11-24 22:45:00","11.8463","3.54178","26.332","2.744285714285714","7.39","3.46","2011.974","0.01","6.71","30.6833","4.80614","30.79","0","SATNPRO1963","24.896","0.34874","5"],
    [40671,"HCEP03730564","2024-11-24 23:00:00","11.8462","3.54136","26.368","2.76","7.39","3.461","2007.358","0","5.45","30.6795","4.8056","30.97","0","SATNPRO1963","24.912","0.34894","5"],
    [40672,"HCEP03730564","2024-11-24 23:15:00","11.8461","3.54151","26.452","2.777142857142857","7.39","3.263","2353.315","0.01","8.47","30.6809","4.80581","31.17","0","SATNPRO1963","24.952","0.34948","5"],
    [40673,"HCEP03730564","2024-11-24 23:30:00","11.8465","3.54201","26.57","2.777142857142857","7.4","3.481","2028.516","0.01","5.09","30.6854","4.80644","31.15","0","SATNPRO1963","25.056","0.35098","5"],
    [40674,"HCEP03730564","2024-11-24 23:45:00","11.8462","3.54176","26.666","2.761428571428572","7.4","3.481","2026.748","0","1.21","30.6832","4.80614","30.98","0","SATNPRO1963","24.742","0.34656","5"],
    [40675,"HCEP03730564","2024-11-25 00:00:00","11.8456","3.54145","26.724","2.74","7.39","3.325","2369.512","0.01","6.55","30.6807","4.80579","30.74","0","SATNPRO1963","24.818","0.3476","5"],
    [40676,"HCEP03730564","2024-11-25 00:15:00","11.8448","3.54122","26.756","2.737142857142857","7.39","3.474","2071.349","0.01","4.97","30.6792","4.8056","30.71","0","SATNPRO1963","24.764","0.34686","5"],
    [40677,"HCEP03730564","2024-11-25 00:30:00","11.8446","3.54127","26.796","2.745714285714286","7.39","3.476","2062.96","0","1.72","30.6797","4.80568","30.8","0","SATNPRO1963","24.912","0.34898","5"],
    [40678,"HCEP03730564","2024-11-25 00:45:00","11.8446","3.54125","26.828","2.737142857142857","7.39","3.311","2427.447","0","8.33","30.6795","4.80565","30.7","0","SATNPRO1963","25.108","0.3517","5"],
    [40679,"HCEP03730564","2024-11-25 01:00:00","11.8448","3.54156","26.846","2.754285714285714","7.39","3.488","2095.546","0.01","5.84","30.6824","4.80606","30.9","0","SATNPRO1963","24.875999999999998","0.34846","5"],
    [40680,"HCEP03730564","2024-11-25 01:15:00","11.8451","3.54183","26.84","2.764285714285714","7.39","3.49","2087.773","0.01","1.72","30.6847","4.80638","31.01","0","SATNPRO1963","24.59","0.34442","5"],
    [40681,"HCEP03730564","2024-11-25 01:30:00","11.8455","3.54214","26.831","2.758571428571429","7.4","3.336","2361.083","0","7.63","30.6874","4.80675","30.95","0","SATNPRO1963","24.828","0.34774","5"],
    [40682,"HCEP03730564","2024-11-25 01:45:00","11.8455","3.54208","26.821","2.751428571428571","7.4","3.492","2072.77","0.01","5.99","30.6868","4.80666","30.87","0","SATNPRO1963","24.908","0.34884","5"],
    [40683,"HCEP03730564","2024-11-25 02:00:00","11.8458","3.54241","26.813","2.732857142857143","7.4","3.492","2065.942","0","2.03","30.6897","4.80707","30.67","0","SATNPRO1963","25.074","0.35122","5"],
    [40684,"HCEP03730564","2024-11-25 02:15:00","11.846","3.54291","26.793","2.707142857142857","7.4","3.298","2433.999","0","7.59","30.6944","4.80773","30.38","0","SATNPRO1963","24.558","0.34398","5"],
    [40685,"HCEP03730564","2024-11-25 02:30:00","11.846","3.54412","26.76","2.678571428571429","7.4","3.453","2044.026","0.01","4.6","30.706","4.80937","30.06","0","SATNPRO1963","24.264","0.33984","5"],
    [40686,"HCEP03730564","2024-11-25 02:45:00","11.8457","3.54438","26.73","2.668571428571429","7.4","3.452","2036.739","0","1.88","30.7088","4.80976","29.94","0","SATNPRO1963","24.484","0.34294","5"],
    [40687,"HCEP03730564","2024-11-25 03:00:00","11.8457","3.5444","26.706","2.677142857142858","7.4","3.276","2367.47","0","9.43","30.709","4.80979","30.04","0","SATNPRO1963","24.676","0.34564","5"],
    [40688,"HCEP03730564","2024-11-25 03:15:00","11.845","3.54452","26.672","2.682857142857143","7.4","3.46","2064.112","0.01","4.85","30.7107","4.81004","30.1","0","SATNPRO1963","24.419999999999998","0.34204","5"],
    [40689,"HCEP03730564","2024-11-25 03:30:00","11.8454","3.54523","26.594","2.69","7.4","3.459","2059.781","0","1.88","30.7173","4.81095","30.19","0","SATNPRO1963","24.444","0.34238","5"],
    [40690,"HCEP03730564","2024-11-25 03:45:00","11.8452","3.54505","26.546","2.707142857142857","7.4","3.239","2459.898","0","7.52","30.7156","4.81072","30.38","0","SATNPRO1963","24.482","0.34296","5"],
    [40691,"HCEP03730564","2024-11-25 04:00:00","11.8458","3.54537","26.398","2.731428571428571","7.4","3.457","2029.768","0.01","2.49","30.7183","4.81109","30.65","0","SATNPRO1963","24.406","0.34184","5"],
    [40692,"HCEP03730564","2024-11-25 04:15:00","11.8465","3.54616","26.305","2.771428571428571","7.4","3.456","2026.995","0","0.94","30.7253","4.81206","31.11","0","SATNPRO1963","24.544","0.34374","5"],
    [40693,"HCEP03730564","2024-11-25 04:30:00","11.8469","3.54744","26.25","2.824285714285714","7.4","3.264","2337.973","0","7.03","30.7374","4.81376","31.7","0","SATNPRO1963","24.396","0.34168","5"],
    [40694,"HCEP03730564","2024-11-25 04:45:00","11.8465","3.54923","26.174","2.867142857142857","7.4","3.47","1948.823","0","3.99","30.755","4.81624","32.19","0","SATNPRO1963","24.445999999999998","0.34242","5"],
    [40695,"HCEP03730564","2024-11-25 05:00:00","11.8461","3.55021","26.135","2.944285714285714","7.41","3.47","1944.999","0","1.72","30.7648","4.81763","33.06","0","SATNPRO1963","24.496","0.3431","5"],
    [40696,"HCEP03730564","2024-11-25 05:15:00","11.846","3.55085","26.098","2.988571428571429","7.41","3.283","2306.361","0","7.4","30.7711","4.81851","33.55","0","SATNPRO1963","24.642","0.34516","5"],
    [40697,"HCEP03730564","2024-11-25 05:30:00","11.8458","3.5511","26.072","2.994285714285715","7.41","3.463","2014.11","0.01","7.09","30.7737","4.81888","33.62","0","SATNPRO1963","24.486","0.34294","5"],
    [40698,"HCEP03730564","2024-11-25 05:45:00","11.8458","3.55129","26.057","3.02","7.41","3.463","2008.996","0","0","30.7754","4.81913","33.9","0","SATNPRO1963","24.698","0.34596","5"],
    [40699,"HCEP03730564","2024-11-25 06:00:00","11.8466","3.55118","26.036","3.031428571428571","7.41","3.32","2321.64","0","6.9","30.7737","4.81887","34.03","0","SATNPRO1963","24.788","0.34718","5"],
    [40700,"HCEP03730564","2024-11-25 06:15:00","11.8467","3.55129","26.023","3.022857142857143","7.41","3.488","2052.585","0.01","3.76","30.7748","4.81901","33.94","0","SATNPRO1963","24.842","0.34798","5"],
    [40701,"HCEP03730564","2024-11-25 06:30:00","11.8467","3.55119","26.021","3.011428571428572","7.42","3.489","2046.492","0.01","1.53","30.7737","4.81887","33.81","0","SATNPRO1963","24.790000000000003","0.34722","5"],
    [40702,"HCEP03730564","2024-11-25 06:45:00","11.8474","3.55134","26.021","3.005714285714286","7.42","3.314","2354.957","0","6.55","30.7746","4.81898","33.74","0","SATNPRO1963","24.766","0.34692","5"],
    [40703,"HCEP03730564","2024-11-25 07:00:00","11.848","3.5512","26.046","3.007142857142857","7.41","3.479","2074.441","0.01","6.37","30.7728","4.81872","33.76","0","SATNPRO1963","24.736","0.34644","5"],
    [40704,"HCEP03730564","2024-11-25 07:15:00","11.8482","3.55108","26.073","3.001428571428571","7.42","3.481","2067.626","0.01","2.1","30.7714","4.81852","33.7","0","SATNPRO1963","24.726","0.34632","5"],
    [40705,"HCEP03730564","2024-11-25 07:30:00","11.8489","3.55045","26.11","2.994285714285715","7.42","3.256","2432.816","0","8.88","30.7648","4.81758","33.62","0","SATNPRO1963","24.712","0.34614","5"],
    [40706,"HCEP03730564","2024-11-25 07:45:00","11.8487","3.55011","26.182","2.994285714285715","7.42","3.452","2146.406","0.01","4.97","30.7617","4.81715","33.62","0","SATNPRO1963","24.876","0.34846","5"],
    [40707,"HCEP03730564","2024-11-25 08:00:00","11.8485","3.54911","26.267","2.985714285714286","7.42","3.45","2138.412","0.01","1.08","30.7522","4.81582","33.51","0","SATNPRO1963","24.716","0.3462","5"],
    [40708,"HCEP03730564","2024-11-25 08:15:00","11.848","3.54838","26.36","2.961428571428571","7.41","3.292","2410.205","0","8.95","30.7455","4.81489","33.25","0","SATNPRO1963","24.804000000000002","0.3474","5"],
    [40709,"HCEP03730564","2024-11-25 08:30:00","11.8481","3.54801","26.458","2.935714285714286","7.41","3.443","2107.559","0.01","5.72","30.7419","4.81438","32.96","0","SATNPRO1963","24.644000000000002","0.34516","5"],
    [40710,"HCEP03730564","2024-11-25 08:45:00","11.8488","3.54772","26.559","2.855714285714286","7.42","3.444","2099.879","0.01","0.94","30.7384","4.81389","32.05","0","SATNPRO1963","24.636","0.34506","5"],
    [40711,"HCEP03730564","2024-11-25 09:00:00","11.8494","3.54736","26.677","2.794285714285714","7.41","3.268","2409.169","0","7.28","30.7344","4.81332","31.36","0","SATNPRO1963","24.446","0.34236","5"],
    [40712,"HCEP03730564","2024-11-25 09:15:00","11.8496","3.54707","26.807","2.747142857142857","7.41","3.418","2072.787","0.01","6.28","30.7314","4.8129","30.83","0","SATNPRO1963","24.418","0.34204","5"],
    [40713,"HCEP03730564","2024-11-25 09:30:00","11.8499","3.5468","26.935","2.724285714285714","7.41","3.416","2067.876","0","1.44","30.7285","4.81249","30.57","0","SATNPRO1963","24.502","0.34322","5"],
    [40714,"HCEP03730564","2024-11-25 09:45:00","11.8497","3.54671","27.038","2.701428571428572","7.4","3.214","2390.568","0","6.9","30.7277","4.81239","30.33","0","SATNPRO1963","24.45","0.34248","5"],
    [40715,"HCEP03730564","2024-11-25 10:00:00","11.8497","3.54661","27.151","2.677142857142858","7.4","3.414","1980.26","0.01","6.16","30.7267","4.81226","30.05","0","SATNPRO1963","24.574","0.34418","5"],
    [40716,"HCEP03730564","2024-11-25 10:15:00","11.8499","3.54667","27.298","2.658571428571429","7.4","3.413","1974.984","0.01","1.21","30.7271","4.81232","29.84","0","SATNPRO1963","24.924","0.3491","5"],
    [40717,"HCEP03730564","2024-11-25 10:30:00","11.8497","3.5471","27.422","2.65","7.4","3.2","2338.259","0","7.16","30.7314","4.81293","29.75","0","SATNPRO1963","24.684","0.34574","5"],
    [40718,"HCEP03730564","2024-11-25 10:45:00","11.8494","3.54796","27.539","2.672857142857143","7.4","3.433","2052.971","0.01","6.93","30.7399","4.81415","30.01","0","SATNPRO1963","24.376","0.34138","5"],
    [40719,"HCEP03730564","2024-11-25 11:00:00","11.8492","3.54847","27.647","2.714285714285714","7.41","3.43","2046.924","0.01","1.53","30.7449","4.81486","30.47","0","SATNPRO1963","24.194","0.33892","5"],
    [40720,"HCEP03730564","2024-11-25 11:15:00","11.8488","3.5487","27.744","2.747142857142857","7.41","3.196","2482.589","0","6.95","30.7473","4.81521","30.85","0","SATNPRO1963","24.362","0.34126","5"],
    [40721,"HCEP03730564","2024-11-25 11:30:00","11.8487","3.54907","27.833","2.754285714285714","7.41","3.396","2082.616","0.01","4.57","30.751","4.81573","30.93","0","SATNPRO1963","24.414","0.34196","5"],
    [40722,"HCEP03730564","2024-11-25 11:45:00","11.8484","3.54942","27.91","2.774285714285714","7.41","3.393","2074.068","0.01","1.88","30.7546","4.81625","31.14","0","SATNPRO1963","24.086","0.33738","5"],
    [40723,"HCEP03730564","2024-11-25 12:00:00","11.8482","3.54975","27.971","2.798571428571429","7.41","3.217","2373.157","0","5.64","30.7579","4.81673","31.42","0","SATNPRO1963","24.291999999999998","0.34026","5"],
    [40724,"HCEP03730564","2024-11-25 12:15:00","11.8479","3.55009","28.006","2.822857142857143","7.41","3.413","2003.322","0.01","3.3","30.7614","4.81722","31.69","0","SATNPRO1963","24.48","0.34292","5"],
    [40725,"HCEP03730564","2024-11-25 12:30:00","11.8478","3.55055","28.013","2.854285714285714","7.41","3.411","1998.604","0","1.08","30.7658","4.81785","32.04","0","SATNPRO1963","24.55","0.34382","5"],
    [40726,"HCEP03730564","2024-11-25 12:45:00","11.8475","3.55091","28.067","2.887142857142857","7.41","3.229","2324.303","0","5.64","30.7696","4.81838","32.41","0","SATNPRO1963","24.794","0.34728","5"],
    [40727,"HCEP03730564","2024-11-25 13:00:00","11.8478","3.55092","28.087","2.897142857142857","7.41","3.423","1966.719","0.01","3.8","30.7694","4.81836","32.52","0","SATNPRO1963","24.724","0.34632","5"],
    [40728,"HCEP03730564","2024-11-25 13:15:00","11.8478","3.55083","28.067","2.925714285714286","7.41","3.421","1961.902","0","2.1","30.7686","4.81825","32.84","0","SATNPRO1963","24.676000000000002","0.34564","5"],
    [40729,"HCEP03730564","2024-11-25 13:30:00","11.8477","3.55082","28.025","2.958571428571429","7.41","3.223","2306.555","0.01","7.11","30.7686","4.81825","33.22","0","SATNPRO1963","24.759999999999998","0.34676","5"],
    [40730,"HCEP03730564","2024-11-25 13:45:00","11.8469","3.55131","27.974","2.972857142857143","7.41","3.417","1983.515","0","4.27","30.7739","4.819","33.38","0","SATNPRO1963","24.614","0.34474","5"],
    [40731,"HCEP03730564","2024-11-25 14:00:00","11.8471","3.55136","27.925","2.985714285714286","7.41","3.417","1977.895","0","1.63","30.7742","4.81904","33.52","0","SATNPRO1963","24.504","0.34324","5"],
    [40732,"HCEP03730564","2024-11-25 14:15:00","11.8467","3.55147","27.862","2.967142857142857","7.41","3.248","2314.879","0","6.28","30.7757","4.81925","33.32","0","SATNPRO1963","24.544","0.34378","5"],
    [40733,"HCEP03730564","2024-11-25 14:30:00","11.8465","3.55161","27.779","2.947142857142858","7.41","3.428","1951.179","0.01","3.07","30.7773","4.81947","33.08","0","SATNPRO1963","24.482","0.34292","5"],
    [40734,"HCEP03730564","2024-11-25 14:45:00","11.8469","3.55158","27.683","2.951428571428571","7.42","3.428","1949.741","0","1.63","30.7766","4.81936","33.13","0","SATNPRO1963","24.556","0.34394","5"],
    [40735,"HCEP03730564","2024-11-25 15:00:00","11.8473","3.55143","27.585","2.942857142857143","7.41","3.231","2321.34","0","8.08","30.775","4.81913","33.05","0","SATNPRO1963","24.676000000000002","0.34564","5"],
    [40736,"HCEP03730564","2024-11-25 15:15:00","11.8476","3.55144","27.485","2.915714285714286","7.41","3.441","1962.087","0.01","6.93","30.7748","4.81909","32.73","0","SATNPRO1963","24.468","0.34272","5"],
    [40737,"HCEP03730564","2024-11-25 15:30:00","11.8477","3.55149","27.377","2.898571428571429","7.42","3.44","1956.14","0.01","1.44","30.7753","4.81915","32.54","0","SATNPRO1963","24.738","0.34654","5"],
    [40738,"HCEP03730564","2024-11-25 15:45:00","11.8478","3.5516","27.243","2.884285714285714","7.42","3.212","2312.472","0","8.47","30.7763","4.81929","32.39","0","SATNPRO1963","24.490000000000002","0.34302","5"],
    [40739,"HCEP03730564","2024-11-25 16:00:00","11.848","3.5518","27.103","2.884285714285714","7.41","3.425","1949.34","0.01","4.13","30.7781","4.81953","32.38","0","SATNPRO1963","24.624","0.34486","5"],
    [40740,"HCEP03730564","2024-11-25 16:15:00","11.8479","3.5519","26.942","2.882857142857143","7.42","3.424","1947.45","0","1.08","30.7792","4.81968","32.37","0","SATNPRO1963","24.76","0.34686","5"],
    [40741,"HCEP03730564","2024-11-25 16:30:00","11.8481","3.5521","26.777","2.878571428571429","7.41","3.183","2285.865","0","7.28","30.7811","4.81993","32.32","0","SATNPRO1963","24.462","0.3426","5"],
    [40742,"HCEP03730564","2024-11-25 16:45:00","11.8481","3.55237","26.617","2.881428571428571","7.41","3.417","1890.217","0.01","5.12","30.7837","4.82028","32.36","0","SATNPRO1963","24.605999999999998","0.34468","5"],
    [40743,"HCEP03730564","2024-11-25 17:00:00","11.8483","3.55247","26.447","2.885714285714286","7.41","3.417","1888.263","0.01","0.94","30.7846","4.8204","32.41","0","SATNPRO1963","24.534","0.34366","5"],
    [40744,"HCEP03730564","2024-11-25 17:15:00","11.8482","3.55237","26.283","2.881428571428571","7.41","3.187","2269.552","0","5.37","30.7838","4.82028","32.35","0","SATNPRO1963","25.05","0.3509","5"],
    [40745,"HCEP03730564","2024-11-25 17:30:00","11.8482","3.55244","26.116","2.86","7.41","3.421","1875","0.01","3.43","30.7844","4.82036","32.12","0","SATNPRO1963","24.468","0.34272","5"],
    [40746,"HCEP03730564","2024-11-25 17:45:00","11.8484","3.5525","25.963","2.858571428571428","7.41","3.423","1870.12","0","1.72","30.785","4.82043","32.09","0","SATNPRO1963","24.528","0.34356","5"],
    [40747,"HCEP03730564","2024-11-25 18:00:00","11.8484","3.55236","25.849","2.855714285714286","7.41","3.182","2234.075","0","5.99","30.7836","4.82023","32.07","0","SATNPRO1963","24.4","0.34174","5"],
    [40748,"HCEP03730564","2024-11-25 18:15:00","11.848","3.55234","25.735","2.844285714285714","7.41","3.427","1851.28","0.01","5.82","30.7838","4.82025","31.94","0","SATNPRO1963","27.381999999999998","0.38354","5"],
    [40749,"HCEP03730564","2024-11-25 18:30:00","11.8481","3.55229","25.63","2.84","7.41","3.428","1844.898","0","0","30.7833","4.82018","31.88","0","SATNPRO1963","24.364","0.34124","5"],
    [40750,"HCEP03730564","2024-11-25 18:45:00","11.8478","3.55225","25.535","2.85","7.41","3.208","2191.613","0","6.69","30.7832","4.82016","32","0","SATNPRO1963","24.404","0.34182","5"],
    [40751,"HCEP03730564","2024-11-25 19:00:00","11.8479","3.55222","25.449","2.854285714285714","7.4","3.407","1831.976","0.01","3.43","30.7829","4.82011","32.05","0","SATNPRO1963","24.498","0.34314","5"],
    [40752,"HCEP03730564","2024-11-25 19:15:00","11.8479","3.55229","25.383","2.864285714285714","7.41","3.404","1828.905","0.01","0.54","30.7836","4.82021","32.16","0","SATNPRO1963","24.618","0.34482","5"],
    [40753,"HCEP03730564","2024-11-25 19:30:00","11.8475","3.55217","25.347","2.862857142857143","7.4","3.171","2174.573","0.01","6.02","30.7828","4.8201","32.15","0","SATNPRO1963","24.358","0.3412","5"],
    [40754,"HCEP03730564","2024-11-25 19:45:00","11.8473","3.55212","25.338","2.85","7.4","3.419","1828.55","0.01","4.76","30.7825","4.82005","32","0","SATNPRO1963","24.378","0.34142","5"],
    [40755,"HCEP03730564","2024-11-25 20:00:00","11.8471","3.55192","25.39","2.831428571428571","7.41","3.419","1825.292","0","1.08","30.7807","4.81982","31.78","0","SATNPRO1963","24.088","0.33738","5"],
    [40756,"HCEP03730564","2024-11-25 20:15:00","11.8482","3.55158","25.414","2.824285714285714","7.41","3.2","2172.414","0","6.18","30.7765","4.8192","31.72","0","SATNPRO1963","24.676","0.34562","5"],
    [40757,"HCEP03730564","2024-11-25 20:30:00","11.8481","3.55129","25.436","2.854285714285714","7.4","3.425","1876.897","0.01","3.95","30.7738","4.81883","32.05","0","SATNPRO1963","24.606","0.34464","5"],
    [40758,"HCEP03730564","2024-11-25 20:45:00","11.8481","3.55144","25.471","2.868571428571429","7.4","3.425","1873.135","0","1.21","30.7752","4.81902","32.21","0","SATNPRO1963","24.631999999999998","0.345","5"],
    [40759,"HCEP03730564","2024-11-25 21:00:00","11.8478","3.55175","25.517","2.844285714285714","7.4","3.21","2242.938","0","6.33","30.7785","4.81949","31.94","0","SATNPRO1963","24.346","0.341","5"],
    [40760,"HCEP03730564","2024-11-25 21:15:00","11.8479","3.55188","25.587","2.797142857142857","7.41","3.422","1941.408","0.01","4.1","30.7795","4.81964","31.41","0","SATNPRO1963","24.714","0.34616","5"],
    [40761,"HCEP03730564","2024-11-25 21:30:00","11.848","3.55198","25.652","2.785714285714286","7.41","3.423","1934.985","0.01","0.77","30.7804","4.81977","31.28","0","SATNPRO1963","24.522","0.34348","5"],
    [40762,"HCEP03730564","2024-11-25 21:45:00","11.8482","3.55199","25.721","2.792857142857143","7.41","3.242","2261.14","0","5.48","30.7803","4.81975","31.36","0","SATNPRO1963","24.384","0.34154","5"],
    [40763,"HCEP03730564","2024-11-25 22:00:00","11.8485","3.55154","25.796","2.818571428571429","7.41","3.424","1972.175","0.01","4.76","30.7758","4.81912","31.65","0","SATNPRO1963","24.818","0.34762","5"],
    [40764,"HCEP03730564","2024-11-25 22:15:00","11.8486","3.55149","25.875","2.858571428571428","7.41","3.423","1966.912","0","0","30.7751","4.81902","32.09","0","SATNPRO1963","25.112000000000002","0.35172","5"],
    [40765,"HCEP03730564","2024-11-25 22:30:00","11.8485","3.55195","25.964","2.891428571428572","7.41","3.229","2317.151","0.01","7.48","30.7796","4.81967","32.47","0","SATNPRO1963","24.413999999999998","0.34194","5"],
    [40766,"HCEP03730564","2024-11-25 22:45:00","11.8484","3.55201","26.06","2.845714285714286","7.41","3.427","1996.498","0.01","6.16","30.7802","4.81976","31.95","0","SATNPRO1963","24.334","0.34082","5"],
    [40767,"HCEP03730564","2024-11-25 23:00:00","11.8482","3.55207","26.157","2.815714285714286","7.41","3.426","1994.58","0","1.63","30.781","4.81987","31.61","0","SATNPRO1963","24.122","0.33788","5"],
    [40768,"HCEP03730564","2024-11-25 23:15:00","11.8482","3.55201","26.275","2.791428571428571","7.41","3.242","2345.556","0","7.32","30.7803","4.81978","31.34","0","SATNPRO1963","24.518","0.3434","5"],
    [40769,"HCEP03730564","2024-11-25 23:30:00","11.848","3.55208","26.378","2.76","7.4","3.431","2039.189","0.01","4.7","30.7811","4.81991","30.99","0","SATNPRO1963","24.018","0.3364","5"],
    [40770,"HCEP03730564","2024-11-25 23:45:00","11.8482","3.55233","26.49","2.748571428571429","7.41","3.43","2033.119","0","1.44","30.7833","4.82022","30.87","0","SATNPRO1963","24.216","0.3392","5"],
    [40771,"HCEP03730564","2024-11-26 00:00:00","11.8484","3.55251","26.604","2.742857142857143","7.4","3.245","2389.249","0","5.09","30.7849","4.82045","30.8","0","SATNPRO1963","24.276","0.34002","5"],
    [40772,"HCEP03730564","2024-11-26 00:15:00","11.8482","3.55236","26.716","2.741428571428572","7.4","3.427","1997.609","0.01","5.03","30.7835","4.82027","30.79","0","SATNPRO1963","24.314","0.34056","5"],
    [40773,"HCEP03730564","2024-11-26 00:30:00","11.8484","3.55244","26.818","2.757142857142857","7.4","3.426","1993.567","0","0.94","30.784","4.82034","30.96","0","SATNPRO1963","24.102","0.3376","5"],
    [40774,"HCEP03730564","2024-11-26 00:45:00","11.8485","3.55268","26.908","2.751428571428571","7.4","3.235","2380.692","0","5.79","30.7863","4.82066","30.9","0","SATNPRO1963","24.378","0.34146","5"],
    [40775,"HCEP03730564","2024-11-26 01:00:00","11.8486","3.55293","26.989","2.754285714285714","7.4","3.423","1993.78","0.01","2.71","30.7885","4.82098","30.92","0","SATNPRO1963","24.692","0.34582","5"],
    [40776,"HCEP03730564","2024-11-26 01:15:00","11.8492","3.55316","27.052","2.75","7.4","3.424","1988.847","0","1.33","30.7903","4.82123","30.88","0","SATNPRO1963","24.464000000000002","0.34266","5"],
    [40777,"HCEP03730564","2024-11-26 01:30:00","11.849","3.5533","27.097","2.758571428571429","7.4","3.231","2332.235","0","5.15","30.7917","4.82143","30.98","0","SATNPRO1963","24.25","0.33966","5"],
    [40778,"HCEP03730564","2024-11-26 01:45:00","11.8494","3.55326","27.133","2.757142857142857","7.4","3.438","1988.293","0.01","3.16","30.791","4.82132","30.96","0","SATNPRO1963","24.504","0.34324","5"],
    [40779,"HCEP03730564","2024-11-26 02:00:00","11.8494","3.55338","27.154","2.777142857142857","7.4","3.437","1983.644","0.01","0.77","30.7922","4.8215","31.18","0","SATNPRO1963","24.488","0.34296","5"],
    [40780,"HCEP03730564","2024-11-26 02:15:00","11.8493","3.55344","27.152","2.778571428571429","7.4","3.246","2336.652","0","5.31","30.7928","4.82158","31.21","0","SATNPRO1963","24.534","0.34364","5"],
    [40781,"HCEP03730564","2024-11-26 02:30:00","11.8492","3.55344","27.155","2.772857142857143","7.4","3.424","1972.742","0.01","3.68","30.7929","4.8216","31.14","0","SATNPRO1963","24.824","0.34768","5"],
    [40782,"HCEP03730564","2024-11-26 02:45:00","11.8491","3.55344","27.133","2.772857142857143","7.4","3.422","1971.148","0","1.44","30.793","4.82161","31.13","0","SATNPRO1963","24.626","0.34492","5"],
    [40783,"HCEP03730564","2024-11-26 03:00:00","11.8488","3.55336","27.113","2.768571428571429","7.4","3.178","2340.95","0","6.37","30.7924","4.82154","31.09","0","SATNPRO1963","24.624","0.34488","5"],
    [40784,"HCEP03730564","2024-11-26 03:15:00","11.8485","3.55324","27.089","2.76","7.4","3.408","1911.021","0.01","4.31","30.7916","4.82142","30.99","0","SATNPRO1963","24.698","0.34594","5"],
    [40785,"HCEP03730564","2024-11-26 03:30:00","11.8479","3.55325","27.059","2.735714285714286","7.42","3.408","1910.794","0","1.44","30.7922","4.82151","30.71","0","SATNPRO1963","24.174","0.3386","5"],
    [40786,"HCEP03730564","2024-11-26 03:45:00","11.848","3.55319","27.019","2.725714285714286","7.4","3.168","2303.883","0","7.11","30.7915","4.82142","30.61","0","SATNPRO1963","24.316","0.34058","5"],
    [40787,"HCEP03730564","2024-11-26 04:00:00","11.8475","3.55311","26.981","2.735714285714286","7.4","3.42","1872.412","0.01","5.17","30.7911","4.82137","30.72","0","SATNPRO1963","24.236","0.33942","5"],
    [40788,"HCEP03730564","2024-11-26 04:15:00","11.8475","3.55283","26.924","2.731428571428571","7.4","3.419","1869.49","0","0.94","30.7885","4.82098","30.67","0","SATNPRO1963","24.064","0.33708","5"],
    [40789,"HCEP03730564","2024-11-26 04:30:00","11.8475","3.55178","26.865","2.734285714285714","7.4","3.198","2260.213","0","6.14","30.7784","4.81956","30.7","0","SATNPRO1963","24.1","0.33756","5"],
    [40790,"HCEP03730564","2024-11-26 04:45:00","11.8463","3.55244","26.822","2.75","7.4","3.42","1904.543","0.01","3.02","30.7858","4.82062","30.87","0","SATNPRO1963","23.868","0.33432","5"],
    [40791,"HCEP03730564","2024-11-26 05:00:00","11.8458","3.55237","26.77","2.715714285714286","7.41","3.418","1900.179","0","0","30.7856","4.82059","30.49","0","SATNPRO1963","23.744","0.33258","5"],
    [40792,"HCEP03730564","2024-11-26 05:15:00","11.8455","3.55235","26.716","2.708571428571429","7.4","3.188","2238.598","0.01","4.47","30.7856","4.8206","30.42","0","SATNPRO1963","23.616","0.33078","5"],
    [40793,"HCEP03730564","2024-11-26 05:30:00","11.8448","3.55247","26.663","2.715714285714286","7.4","3.408","1893.836","0.01","3.84","30.7873","4.82085","30.49","0","SATNPRO1963","23.802","0.33338","5"],
    [40794,"HCEP03730564","2024-11-26 05:45:00","11.8451","3.55242","26.612","2.717142857142857","7.41","3.409","1891.008","0","1.21","30.7867","4.82075","30.51","0","SATNPRO1963","23.434","0.32824","5"],
    [40795,"HCEP03730564","2024-11-26 06:00:00","11.8453","3.55205","26.556","2.718571428571429","7.39","3.206","2228.913","0","6.73","30.783","4.82023","30.53","0","SATNPRO1963","23.838","0.33388","5"],
    [40796,"HCEP03730564","2024-11-26 06:15:00","11.8452","3.55188","26.492","2.712857142857143","7.4","3.429","1917.989","0.01","4.06","30.7814","4.82","30.45","0","SATNPRO1963","23.72","0.33224","5"],
    [40797,"HCEP03730564","2024-11-26 06:30:00","11.8458","3.55179","26.412","2.711428571428571","7.4","3.429","1915.875","0","0","30.7801","4.8198","30.43","0","SATNPRO1963","24.04","0.33674","5"],
    [40798,"HCEP03730564","2024-11-26 06:45:00","11.845","3.5518","26.356","2.695714285714286","7.41","3.255","2294.819","0","5.37","30.7809","4.81992","30.27","0","SATNPRO1963","23.662","0.33142","5"],
    [40799,"HCEP03730564","2024-11-26 07:00:00","11.8456","3.55176","26.307","2.691428571428571","7.42","3.448","1957.114","0.01","5.23","30.78","4.81979","30.22","0","SATNPRO1963","24.028","0.33654","5"],
    [40800,"HCEP03730564","2024-11-26 07:15:00","11.8453","3.55166","26.268","2.691428571428571","7.4","3.448","1949.967","0","1.88","30.7794","4.8197","30.22","0","SATNPRO1963","23.8","0.33336","5"],
    [40801,"HCEP03730564","2024-11-26 07:30:00","11.8458","3.55172","26.24","2.714285714285714","7.41","3.255","2313.389","0","5.89","30.7795","4.81971","30.48","0","SATNPRO1963","24.312","0.34056","5"],
    [40802,"HCEP03730564","2024-11-26 07:45:00","11.8458","3.55161","26.233","2.754285714285714","7.41","3.46","2002.504","0.01","4.7","30.7785","4.81957","30.92","0","SATNPRO1963","24.36","0.3412","5"],
    [40803,"HCEP03730564","2024-11-26 08:00:00","11.8453","3.55156","26.249","2.734285714285714","7.41","3.459","1997.132","0","0.94","30.7784","4.81956","30.7","0","SATNPRO1963","23.94","0.3353","5"],
    [40804,"HCEP03730564","2024-11-26 08:15:00","11.8455","3.55173","26.279","2.728571428571429","7.41","3.294","2323.929","0","4.6","30.7798","4.81976","30.64","0","SATNPRO1963","23.98","0.33592","5"],
    [40805,"HCEP03730564","2024-11-26 08:30:00","11.8458","3.55164","26.317","2.754285714285714","7.4","3.458","1993.291","0.01","4.27","30.7788","4.81961","30.92","0","SATNPRO1963","23.98","0.33588","5"],
    [40806,"HCEP03730564","2024-11-26 08:45:00","11.846","3.55163","26.355","2.738571428571429","7.41","3.459","1986.22","0","1.44","30.7784","4.81956","30.75","0","SATNPRO1963","24.61","0.3447","5"],
    [40807,"HCEP03730564","2024-11-26 09:00:00","11.8455","3.55156","26.41","2.751428571428571","7.41","3.293","2282.87","0","5.48","30.7781","4.81953","30.89","0","SATNPRO1963","24.506","0.34322","5"],
    [40808,"HCEP03730564","2024-11-26 09:15:00","11.8456","3.55149","26.463","2.747142857142857","7.42","3.445","2021.032","0.01","4.17","30.7773","4.81942","30.84","0","SATNPRO1963","24.044","0.33678","5"],
    [40809,"HCEP03730564","2024-11-26 09:30:00","11.8458","3.55169","26.524","2.757142857142857","7.41","3.446","2016.339","0","1.53","30.7791","4.81967","30.96","0","SATNPRO1963","24.128","0.33798","5"],
    [40810,"HCEP03730564","2024-11-26 09:45:00","11.8458","3.55164","26.597","2.84","7.41","3.27","2302.874","0.01","5.84","30.7786","4.8196","31.89","0","SATNPRO1963","24.208","0.33906","5"],
    [40811,"HCEP03730564","2024-11-26 10:00:00","11.8454","3.55184","26.677","2.84","7.41","3.432","1996.479","0.01","3.99","30.7808","4.81992","31.88","0","SATNPRO1963","24.334","0.34082","5"],
    [40812,"HCEP03730564","2024-11-26 10:15:00","11.8461","3.55191","26.767","2.901428571428572","7.41","3.432","1989.484","0","1.21","30.7809","4.81994","32.58","0","SATNPRO1963","24.69","0.34584","5"],
    [40813,"HCEP03730564","2024-11-26 10:30:00","11.8463","3.55181","26.863","2.907142857142858","7.41","3.25","2256.544","0","8.85","30.7797","4.81976","32.63","0","SATNPRO1963","24.752","0.3467","5"],
    [40814,"HCEP03730564","2024-11-26 10:45:00","11.8462","3.55156","26.966","2.88","7.41","3.419","1972.872","0.01","3.56","30.7774","4.81944","32.33","0","SATNPRO1963","25.048","0.35084","5"],
    [40815,"HCEP03730564","2024-11-26 11:00:00","11.8464","3.55134","27.269","2.838571428571429","7.41","3.417","1966.961","0","0","30.7749","4.81911","31.87","0","SATNPRO1963","24.174","0.3386","5"],
    [40816,"HCEP03730564","2024-11-26 11:15:00","11.8463","3.55124","27.391","2.807142857142857","7.4","3.187","2277.103","0","6.69","30.774","4.81899","31.51","0","SATNPRO1963","24.322","0.34066","5"],
    [40817,"HCEP03730564","2024-11-26 11:30:00","11.8464","3.55115","27.491","2.794285714285714","7.4","3.415","1908.849","0.01","3.39","30.7731","4.81886","31.36","0","SATNPRO1963","23.956","0.33552","5"],
    [40818,"HCEP03730564","2024-11-26 11:45:00","11.8467","3.55101","27.589","2.717142857142857","7.4","3.414","1904.686","0","1.08","30.7714","4.81862","30.5","0","SATNPRO1963","23.854","0.33412","5"],
    [40819,"HCEP03730564","2024-11-26 12:00:00","11.8468","3.5509","27.672","2.641428571428572","7.39","3.205","2226.411","0","5.69","30.7702","4.81846","29.65","0","SATNPRO1963","23.462","0.32866","5"],
    [40820,"HCEP03730564","2024-11-26 12:15:00","11.8469","3.55085","27.787","2.577142857142857","7.38","3.394","1862","0.01","8.26","30.7697","4.81839","28.94","0","SATNPRO1963","23.598","0.33056","5"],
    [40821,"HCEP03730564","2024-11-26 12:30:00","11.8465","3.55103","27.868","2.552857142857143","7.38","3.393","1857.163","0.01","1.33","30.7717","4.81868","28.66","0","SATNPRO1963","23.814","0.33358","5"],
    [40822,"HCEP03730564","2024-11-26 12:45:00","11.8465","3.55134","27.909","2.615714285714286","7.38","3.171","2218.136","0","4.73","30.7746","4.81909","29.36","0","SATNPRO1963","24.118","0.33782","5"],
    [40823,"HCEP03730564","2024-11-26 13:00:00","11.8463","3.55201","27.935","2.717142857142857","7.38","3.396","1842.224","0.01","4.54","30.7812","4.82003","30.51","0","SATNPRO1963","24.282","0.34014","5"],
    [40824,"HCEP03730564","2024-11-26 13:15:00","11.8463","3.55251","27.95","2.781428571428572","7.39","3.396","1838.703","0.01","1.21","30.7859","4.8207","31.24","0","SATNPRO1963","24.798","0.34736","5"],
    [40825,"HCEP03730564","2024-11-26 13:30:00","11.8463","3.55304","27.96","2.811428571428571","7.39","3.177","2195.383","0","5.53","30.7911","4.82144","31.56","0","SATNPRO1963","24.346","0.341","5"],
    [40826,"HCEP03730564","2024-11-26 13:45:00","11.8471","3.55345","27.957","2.832857142857143","7.4","3.392","1810.049","0.01","5.64","30.7945","4.8219","31.8","0","SATNPRO1963","24.556","0.34396","5"],
    [40827,"HCEP03730564","2024-11-26 14:00:00","11.8476","3.55382","27.946","2.835714285714286","7.4","3.391","1806.669","0.01","1.44","30.7976","4.82233","31.84","0","SATNPRO1963","24.522000000000002","0.34346","5"],
    [40828,"HCEP03730564","2024-11-26 14:15:00","11.8479","3.55397","27.893","2.837142857142857","7.4","3.132","2172.158","0","7.3","30.7988","4.82248","31.86","0","SATNPRO1963","24.817999999999998","0.3476","5"],
    [40829,"HCEP03730564","2024-11-26 14:30:00","11.8475","3.55396","27.83","2.818571428571429","7.4","3.37","1748.045","0.01","7.82","30.799","4.82252","31.66","0","SATNPRO1963","24.622","0.34488","5"],
    [40830,"HCEP03730564","2024-11-26 14:45:00","11.8477","3.554","27.749","2.8","7.4","3.369","1741.828","0.01","1.33","30.7993","4.82256","31.44","0","SATNPRO1963","24.38","0.3415","5"],
    [40831,"HCEP03730564","2024-11-26 15:00:00","11.8474","3.55403","27.645","2.807142857142857","7.4","3.107","2124.248","0","8.63","30.7998","4.82263","31.52","0","SATNPRO1963","24.532","0.34364","5"],
    [40832,"HCEP03730564","2024-11-26 15:15:00","11.8474","3.55396","27.54","2.805714285714286","7.4","3.404","1765.984","0.01","2.24","30.7992","4.82254","31.5","0","SATNPRO1963","24.468","0.3427","5"],
    [40833,"HCEP03730564","2024-11-26 15:30:00","11.8469","3.55386","27.438","2.815714285714286","7.4","3.402","1765.708","0","1.21","30.7987","4.82247","31.61","0","SATNPRO1963","24.436","0.34228","5"],
    [40834,"HCEP03730564","2024-11-26 15:45:00","11.8473","3.55384","27.304","2.842857142857143","7.4","3.148","2118.933","0","6.04","30.7983","4.82239","31.92","0","SATNPRO1963","24.580000000000002","0.3443","5"],
    [40835,"HCEP03730564","2024-11-26 16:00:00","11.8467","3.55365","27.151","2.86","7.39","3.362","1731.814","0.01","6.73","30.797","4.82221","32.11","0","SATNPRO1963","24.668","0.34552","5"],
    [40836,"HCEP03730564","2024-11-26 16:15:00","11.8462","3.55323","26.965","2.864285714285714","7.4","3.359","1726.266","0.01","0.77","30.7934","4.8217","32.17","0","SATNPRO1963","24.518","0.34342","5"],
    [40837,"HCEP03730564","2024-11-26 16:30:00","11.8463","3.55308","26.78","2.872857142857143","7.4","3.161","2070.833","0","5.23","30.7919","4.82148","32.25","0","SATNPRO1963","24.592","0.34444","5"],
    [40838,"HCEP03730564","2024-11-26 16:45:00","11.8464","3.55278","26.68","2.861428571428572","7.4","3.4","1751.548","0.01","2.97","30.789","4.82107","32.13","0","SATNPRO1963","24.562","0.34402","5"],
    [40839,"HCEP03730564","2024-11-26 17:00:00","11.8461","3.55286","26.547","2.885714285714286","7.4","3.401","1749.236","0.01","0.77","30.79","4.82121","32.39","0","SATNPRO1963","24.7","0.34596","5"],
    [40840,"HCEP03730564","2024-11-26 17:15:00","11.846","3.5527","26.403","2.894285714285714","7.41","3.161","2084.679","0.01","7.07","30.7887","4.82101","32.49","0","SATNPRO1963","24.532","0.34362","5"],
    [40841,"HCEP03730564","2024-11-26 17:30:00","11.8462","3.55242","26.233","2.875714285714285","7.4","3.395","1755.414","0.01","3.47","30.7859","4.8206","32.28","0","SATNPRO1963","24.636","0.34506","5"],
    [40842,"HCEP03730564","2024-11-26 17:45:00","11.8463","3.55227","26.041","2.9","7.41","3.395","1751.197","0","0.94","30.7845","4.82039","32.56","0","SATNPRO1963","24.624","0.34492","5"],
    [40843,"HCEP03730564","2024-11-26 18:00:00","11.8465","3.55248","25.851","2.912857142857143","7.4","3.165","2107.068","0","4.24","30.7864","4.82064","32.7","0","SATNPRO1963","24.718","0.34624","5"],
    [40844,"HCEP03730564","2024-11-26 18:15:00","11.8467","3.55283","25.623","2.907142857142858","7.4","3.364","1747.129","0.01","5.34","30.7897","4.82109","32.64","0","SATNPRO1963","24.682","0.3457","5"],
    [40845,"HCEP03730564","2024-11-26 18:30:00","11.8461","3.55286","25.434","2.891428571428572","7.43","3.365","1745.849","0","0","30.7905","4.8212","32.47","0","SATNPRO1963","24.86","0.3482","5"],
    [40846,"HCEP03730564","2024-11-26 18:45:00","11.8466","3.55281","25.288","2.875714285714285","7.41","3.117","2083.406","0","6.49","30.7897","4.82109","32.28","0","SATNPRO1963","24.454","0.34254","5"],
    [40847,"HCEP03730564","2024-11-26 19:00:00","11.8463","3.55265","25.169","2.852857142857143","7.4","3.371","1778.247","0.01","3.84","30.7884","4.8209","32.04","0","SATNPRO1963","24.822","0.34766","5"],
    [40848,"HCEP03730564","2024-11-26 19:15:00","11.8461","3.55261","25.078","2.838571428571429","7.4","3.368","1774.796","0","0.94","30.7883","4.82087","31.87","0","SATNPRO1963","24.416","0.34198","5"],
    [40849,"HCEP03730564","2024-11-26 19:30:00","11.8464","3.55254","25.009","2.825714285714286","7.4","3.131","2156.002","0","7.01","30.7874","4.82074","31.73","0","SATNPRO1963","24.472","0.3428","5"],
    [40850,"HCEP03730564","2024-11-26 19:45:00","11.8463","3.55266","24.969","2.8","7.4","3.382","1758.569","0.01","4.34","30.7887","4.82092","31.43","0","SATNPRO1963","24.438","0.34234","5"],
    [40851,"HCEP03730564","2024-11-26 20:00:00","11.8469","3.55259","24.953","2.791428571428571","7.4","3.38","1755.717","0","0","30.7875","4.82075","31.34","0","SATNPRO1963","24.562","0.34402","5"],
    [40852,"HCEP03730564","2024-11-26 20:15:00","11.8467","3.55261","24.959","2.767142857142857","7.4","3.141","2061.831","0","5.17","30.7879","4.8208","31.07","0","SATNPRO1963","24.45","0.34244","5"],
    [40853,"HCEP03730564","2024-11-26 20:30:00","11.8466","3.55269","24.977","2.765714285714286","7.4","3.364","1720.739","0.01","4.7","30.7887","4.82092","31.05","0","SATNPRO1963","24.664","0.34548","5"],
    [40854,"HCEP03730564","2024-11-26 20:45:00","11.8466","3.55227","24.994","2.767142857142857","7.4","3.362","1717.469","0","1.08","30.7846","4.82034","31.07","0","SATNPRO1963","24.41","0.34192","5"],
    [40855,"HCEP03730564","2024-11-26 21:00:00","11.8467","3.55252","25.05","2.76","7.39","3.134","2130.271","0","5.89","30.7869","4.82068","31","0","SATNPRO1963","24.67","0.34554","5"],
    [40856,"HCEP03730564","2024-11-26 21:15:00","11.8468","3.55252","25.134","2.754285714285714","7.39","3.388","1765.239","0.01","5.66","30.7868","4.82066","30.92","0","SATNPRO1963","24.314","0.34058","5"],
    [40857,"HCEP03730564","2024-11-26 21:30:00","11.8467","3.55233","25.211","2.742857142857143","7.39","3.387","1760.655","0.01","0.54","30.785","4.82041","30.8","0","SATNPRO1963","24.566","0.34404","5"],
    [40858,"HCEP03730564","2024-11-26 21:45:00","11.8466","3.55212","25.295","2.721428571428572","7.39","3.137","2162.831","0","5.56","30.7831","4.82015","30.55","0","SATNPRO1963","24.568","0.34414","5"],
    [40859,"HCEP03730564","2024-11-26 22:00:00","11.8469","3.55201","25.395","2.697142857142857","7.39","3.361","1755.893","0.01","7.3","30.7817","4.81996","30.28","0","SATNPRO1963","24.25","0.33966","5"],
    [40860,"HCEP03730564","2024-11-26 22:15:00","11.8473","3.55183","25.449","2.668571428571429","7.39","3.363","1751.075","0","1.08","30.7797","4.81967","29.97","0","SATNPRO1963","24.156000000000002","0.33838","5"],
    [40861,"HCEP03730564","2024-11-26 22:30:00","11.8468","3.55181","25.639","2.63","7.39","3.118","2142.937","0","6.23","30.7798","4.8197","29.53","0","SATNPRO1963","24.342","0.34098","5"],
    [40862,"HCEP03730564","2024-11-26 22:45:00","11.847","3.55165","25.746","2.592857142857143","7.39","3.335","1735.485","0.01","4.63","30.778","4.81946","29.11","0","SATNPRO1963","24.304","0.3404","5"],
    [40863,"HCEP03730564","2024-11-26 23:00:00","11.8467","3.55151","25.87","2.565714285714286","7.39","3.333","1730.841","0","0.54","30.7769","4.8193","28.8","0","SATNPRO1963","24.256","0.33974","5"],
    [40864,"HCEP03730564","2024-11-26 23:15:00","11.8467","3.55142","25.996","2.554285714285714","7.39","3.123","2132.256","0","5.99","30.776","4.81918","28.68","0","SATNPRO1963","24.146","0.3382","5"],
    [40865,"HCEP03730564","2024-11-26 23:30:00","11.8469","3.55144","26.117","2.54","7.39","3.347","1769.549","0.01","5.26","30.776","4.81919","28.52","0","SATNPRO1963","23.944","0.33538","5"],
    [40866,"HCEP03730564","2024-11-26 23:45:00","11.847","3.55142","26.252","2.531428571428572","7.39","3.346","1764.7","0.01","0.54","30.7756","4.81914","28.41","0","SATNPRO1963","23.886","0.33456","5"],
    [40867,"HCEP03730564","2024-11-27 00:00:00","11.8468","3.55137","26.398","2.532857142857143","7.38","3.167","2024.595","0","7.5","30.7753","4.81911","28.44","0","SATNPRO1963","24.13","0.33806","5"],
    [40868,"HCEP03730564","2024-11-27 00:15:00","11.8467","3.55137","26.551","2.531428571428572","7.38","3.372","1732.839","0.01","4.54","30.7753","4.81912","28.43","0","SATNPRO1963","24.246","0.33964","5"],
    [40869,"HCEP03730564","2024-11-27 00:30:00","11.8467","3.55123","26.695","2.522857142857143","7.38","3.371","1727.986","0","1.44","30.7739","4.81893","28.33","0","SATNPRO1963","24.198","0.3389","5"],
    [40870,"HCEP03730564","2024-11-27 00:45:00","11.8469","3.55092","26.822","2.517142857142857","7.38","3.173","2096.721","0.01","5.26","30.7707","4.81849","28.26","0","SATNPRO1963","24.387999999999998","0.3416","5"],
    [40871,"HCEP03730564","2024-11-27 01:00:00","11.8469","3.5508","26.93","2.524285714285714","7.37","3.365","1803.687","0.01","4.57","30.7694","4.81831","28.34","0","SATNPRO1963","24.366","0.34132","5"],
    [40872,"HCEP03730564","2024-11-27 01:15:00","11.847","3.55067","27.047","2.528571428571428","7.37","3.365","1797.645","0","1.08","30.7681","4.81813","28.39","0","SATNPRO1963","24.494","0.34308","5"],
    [40873,"HCEP03730564","2024-11-27 01:30:00","11.8469","3.55056","27.141","2.532857142857143","7.37","3.105","2131.376","0","7.59","30.7671","4.81799","28.43","0","SATNPRO1963","24.458","0.34256","5"],
    [40874,"HCEP03730564","2024-11-27 01:45:00","11.8473","3.5506","27.226","2.535714285714286","7.37","3.349","1753.38","0.01","7.13","30.7671","4.81799","28.47","0","SATNPRO1963","24.458","0.34258","5"],
    [40875,"HCEP03730564","2024-11-27 02:00:00","11.8471","3.5506","27.29","2.53","7.37","3.349","1749.905","0.01","0.77","30.7672","4.81801","28.4","0","SATNPRO1963","24.208","0.3391","5"],
    [40876,"HCEP03730564","2024-11-27 02:15:00","11.8467","3.55054","27.318","2.517142857142857","7.37","3.11","2082.602","0","6.44","30.7669","4.81798","28.26","0","SATNPRO1963","24.3","0.34036","5"],
    [40877,"HCEP03730564","2024-11-27 02:30:00","11.8469","3.55065","27.369","2.51","7.36","3.345","1716.658","0.01","3.16","30.7678","4.81811","28.18","0","SATNPRO1963","23.876","0.33444","5"],
    [40878,"HCEP03730564","2024-11-27 02:45:00","11.8471","3.55064","27.386","2.511428571428572","7.36","3.343","1713.5","0.01","0","30.7676","4.81808","28.19","0","SATNPRO1963","24.296","0.3403","5"],
    [40879,"HCEP03730564","2024-11-27 03:00:00","11.8473","3.5507","27.384","2.525714285714286","7.36","3.11","2039.983","0","4.17","30.7681","4.81814","28.35","0","SATNPRO1963","24.534","0.34366","5"],
    [40880,"HCEP03730564","2024-11-27 03:15:00","11.8469","3.55088","27.369","2.525714285714286","7.36","3.361","1702.614","0.01","2.66","30.77","4.81842","28.35","0","SATNPRO1963","23.98","0.3359","5"],
    [40881,"HCEP03730564","2024-11-27 03:30:00","11.8473","3.55084","27.34","2.508571428571428","7.36","3.359","1699.007","0","0.94","30.7694","4.81832","28.17","0","SATNPRO1963","24.07","0.33714","5"],
    [40882,"HCEP03730564","2024-11-27 03:45:00","11.8466","3.55094","27.337","2.51","7.36","3.093","2087.256","0","5.09","30.7709","4.81854","28.17","0","SATNPRO1963","24.206","0.33908","5"],
    [40883,"HCEP03730564","2024-11-27 04:00:00","11.8468","3.55095","27.287","2.528571428571428","7.36","3.348","1739.074","0.01","4.91","30.7708","4.81853","28.39","0","SATNPRO1963","23.8","0.33338","5"],
    [40884,"HCEP03730564","2024-11-27 04:15:00","11.8465","3.55085","27.244","2.51","7.36","3.345","1736.723","0.01","0.77","30.7701","4.81843","28.17","0","SATNPRO1963","23.904","0.33482","5"],
    [40885,"HCEP03730564","2024-11-27 04:30:00","11.8463","3.55091","27.188","2.538571428571429","7.36","3.082","2115.621","0","5.09","30.7709","4.81854","28.49","0","SATNPRO1963","23.99","0.336","5"],
    [40886,"HCEP03730564","2024-11-27 04:45:00","11.8452","3.55111","27.158","2.472857142857143","7.36","3.333","1731.779","0.01","3.8","30.7738","4.81896","27.76","0","SATNPRO1963","23.728","0.33232","5"],
    [40887,"HCEP03730564","2024-11-27 05:00:00","11.8451","3.55115","27.111","2.445714285714286","7.37","3.334","1729.813","0","0","30.7743","4.81903","27.46","0","SATNPRO1963","23.494","0.3291","5"],
    [40888,"HCEP03730564","2024-11-27 05:15:00","11.8456","3.55108","27.079","2.444285714285714","7.36","3.109","2111.25","0","5.34","30.7732","4.81886","27.44","0","SATNPRO1963","24.163999999999998","0.33846","5"],
    [40889,"HCEP03730564","2024-11-27 05:30:00","11.8454","3.55124","27.044","2.458571428571429","7.36","3.342","1770.526","0.01","3.43","30.7749","4.81911","27.6","0","SATNPRO1963","23.832","0.3338","5"],
    [40890,"HCEP03730564","2024-11-27 05:45:00","11.8461","3.55156","26.992","2.458571428571429","7.37","3.341","1767.756","0","0","30.7774","4.81945","27.6","0","SATNPRO1963","23.924","0.33512","5"],
    [40891,"HCEP03730564","2024-11-27 06:00:00","11.8458","3.55198","26.926","2.482857142857143","7.37","3.118","2122.21","0","4.06","30.7818","4.82007","27.88","0","SATNPRO1963","23.77","0.33292","5"],
    [40892,"HCEP03730564","2024-11-27 06:15:00","11.8459","3.55214","26.856","2.482857142857143","7.37","3.363","1742.939","0.01","5.12","30.7832","4.82027","27.88","0","SATNPRO1963","24.028","0.33658","5"],
    [40893,"HCEP03730564","2024-11-27 06:30:00","11.8461","3.55216","26.787","2.518571428571429","7.37","3.364","1739.237","0","1.08","30.7832","4.82026","28.27","0","SATNPRO1963","24.4","0.34174","5"],
    [40894,"HCEP03730564","2024-11-27 06:45:00","11.846","3.55222","26.722","2.547142857142857","7.37","3.12","2147.478","0","4.54","30.7839","4.82035","28.6","0","SATNPRO1963","23.706","0.33206","5"],
    [40895,"HCEP03730564","2024-11-27 07:00:00","11.8458","3.55227","26.658","2.534285714285714","7.37","3.349","1797.801","0.01","3.43","30.7846","4.82046","28.45","0","SATNPRO1963","24.058","0.33696","5"],
    [40896,"HCEP03730564","2024-11-27 07:15:00","11.8458","3.55232","26.595","2.542857142857143","7.37","3.348","1796.025","0","0","30.7851","4.82052","28.56","0","SATNPRO1963","24.156","0.33836","5"],
    [40897,"HCEP03730564","2024-11-27 07:30:00","11.8454","3.55239","26.53","2.535714285714286","7.37","3.114","2163.942","0","5.82","30.7862","4.82068","28.47","0","SATNPRO1963","23.808","0.33348","5"],
    [40898,"HCEP03730564","2024-11-27 07:45:00","11.8453","3.55257","26.469","2.562857142857143","7.37","3.362","1805.464","0.01","3.64","30.7881","4.82093","28.78","0","SATNPRO1963","23.978","0.33584","5"],
    [40899,"HCEP03730564","2024-11-27 08:00:00","11.8455","3.55249","26.438","2.597142857142857","7.37","3.363","1804.473","0","1.08","30.7871","4.8208","29.17","0","SATNPRO1963","24.01","0.33632","5"],
    [40900,"HCEP03730564","2024-11-27 08:15:00","11.8453","3.55242","26.418","2.608571428571428","7.37","3.119","2126.131","0","10.15","30.7866","4.82073","29.29","0","SATNPRO1963","24.23","0.33936","5"],
    [40901,"HCEP03730564","2024-11-27 08:30:00","11.8456","3.55236","26.422","2.64","7.37","3.353","1808.714","0.01","3.34","30.7858","4.82061","29.64","0","SATNPRO1963","24.468","0.34272","5"],
    [40902,"HCEP03730564","2024-11-27 08:45:00","11.8454","3.55206","26.43","2.655714285714286","7.38","3.354","1806.855","0","1.21","30.7831","4.82023","29.82","0","SATNPRO1963","24.074","0.33718","5"],
    [40903,"HCEP03730564","2024-11-27 09:00:00","11.8454","3.55185","26.489","2.615714285714286","7.37","3.139","2160.848","0","4.73","30.781","4.81994","29.37","0","SATNPRO1963","23.878","0.33446","5"],
    [40904,"HCEP03730564","2024-11-27 09:15:00","11.8452","3.55163","26.533","2.61","7.37","3.371","1819.855","0.01","6.6","30.779","4.81965","29.3","0","SATNPRO1963","23.896","0.3347","5"],
    [40905,"HCEP03730564","2024-11-27 09:30:00","11.8452","3.55148","26.576","2.617142857142857","7.38","3.369","1817.582","0","0.94","30.7776","4.81947","29.38","0","SATNPRO1963","23.892","0.33466","5"],
    [40906,"HCEP03730564","2024-11-27 09:45:00","11.8452","3.55141","26.646","2.615714285714286","7.37","3.135","2200.624","0","4.97","30.7768","4.81936","29.37","0","SATNPRO1963","23.974","0.33578","5"],
    [40907,"HCEP03730564","2024-11-27 10:00:00","11.8451","3.55127","26.733","2.602857142857143","7.37","3.364","1833.241","0.01","4.41","30.7755","4.81919","29.22","0","SATNPRO1963","24.254","0.33972","5"],
    [40908,"HCEP03730564","2024-11-27 10:15:00","11.8452","3.55125","26.8","2.588571428571428","7.37","3.364","1830.26","0","1.33","30.7752","4.81914","29.06","0","SATNPRO1963","24.41","0.34188","5"],
    [40909,"HCEP03730564","2024-11-27 10:30:00","11.8453","3.55129","26.882","2.58","7.37","3.143","2206.008","0","4.27","30.7755","4.81919","28.97","0","SATNPRO1963","24.036","0.33666","5"],
    [40910,"HCEP03730564","2024-11-27 10:45:00","11.8448","3.55126","26.974","2.568571428571428","7.37","3.371","1844.288","0","3.25","30.7757","4.81922","28.84","0","SATNPRO1963","23.742","0.33252","5"],
    [40911,"HCEP03730564","2024-11-27 11:00:00","11.8446","3.55125","27.062","2.525714285714286","7.37","3.37","1843.269","0","1.08","30.7756","4.81922","28.36","0","SATNPRO1963","23.788","0.3332","5"],
    [40912,"HCEP03730564","2024-11-27 11:15:00","11.8448","3.55127","27.16","2.502857142857143","7.37","3.109","2259.634","0","5.69","30.7756","4.81922","28.09","0","SATNPRO1963","23.636","0.33106","5"],
    [40913,"HCEP03730564","2024-11-27 11:30:00","11.8447","3.55136","27.264","2.484285714285714","7.37","3.346","1865.74","0.01","3.72","30.7765","4.81936","27.88","0","SATNPRO1963","23.448","0.32842","5"],
    [40914,"HCEP03730564","2024-11-27 11:45:00","11.8449","3.55148","27.362","2.487142857142858","7.37","3.345","1862.274","0.01","0.77","30.7775","4.8195","27.93","0","SATNPRO1963","23.624","0.33088","5"],
    [40915,"HCEP03730564","2024-11-27 12:00:00","11.845","3.55151","27.455","2.482857142857143","7.37","3.15","2222.921","0","4.85","30.7777","4.81953","27.87","0","SATNPRO1963","23.564","0.33008","5"],
    [40916,"HCEP03730564","2024-11-27 12:15:00","11.8452","3.55181","27.532","2.474285714285714","7.37","3.355","1826.803","0.01","3.21","30.7804","4.81992","27.78","0","SATNPRO1963","23.496","0.32912","5"],
    [40917,"HCEP03730564","2024-11-27 12:30:00","11.8451","3.55183","27.621","2.477142857142857","7.37","3.358","1822.974","0","0.54","30.7806","4.81994","27.81","0","SATNPRO1963","23.766","0.33288","5"],
    [40918,"HCEP03730564","2024-11-27 12:45:00","11.8454","3.55195","27.685","2.47","7.37","3.139","2181.176","0","5.66","30.7814","4.82006","27.74","0","SATNPRO1963","23.644000000000002","0.33116","5"],
    [40919,"HCEP03730564","2024-11-27 13:00:00","11.8458","3.55217","27.757","2.472857142857143","7.37","3.341","1816.395","0.01","7.71","30.7832","4.82032","27.76","0","SATNPRO1963","23.626","0.33088","5"],
    [40920,"HCEP03730564","2024-11-27 13:15:00","11.8458","3.55223","27.805","2.477142857142857","7.36","3.34","1813.176","0","0","30.7838","4.8204","27.82","0","SATNPRO1963","23.746","0.33264","5"],
    [40921,"HCEP03730564","2024-11-27 13:30:00","11.8454","3.55225","27.841","2.472857142857143","7.36","3.061","2257.517","0","5.2","30.784300000000002","4.82047","27.76","0","SATNPRO1963","24.084","0.33734","5"],
    [40922,"HCEP03730564","2024-11-27 13:45:00","11.8463","3.55244","27.85","2.465714285714286","7.36","3.329","1776.805","0.01","3.34","30.7854","4.82063","27.68","0","SATNPRO1963","23.872","0.33436","5"],
    [40923,"HCEP03730564","2024-11-27 14:00:00","11.8462","3.55254","27.848","2.474285714285714","7.36","3.329","1774.811","0","0.54","30.7864","4.82076","27.78","0","SATNPRO1963","23.978","0.3358","5"],
    [40924,"HCEP03730564","2024-11-27 14:15:00","11.8461","3.55248","27.829","2.481428571428572","7.36","3.096","2184.938","0","5.69","30.7859","4.82069","27.87","0","SATNPRO1963","23.776","0.333","5"],
    [40925,"HCEP03730564","2024-11-27 14:30:00","11.8458","3.55251","27.803","2.477142857142857","7.36","3.341","1774.125","0.01","4.54","30.7864","4.82077","27.81","0","SATNPRO1963","23.788","0.33322","5"],
    [40926,"HCEP03730564","2024-11-27 14:45:00","11.846","3.55254","27.771","2.487142857142858","7.36","3.337","1773.677","0","0.94","30.7867","4.82081","27.93","0","SATNPRO1963","24.222","0.33928","5"],
    [40927,"HCEP03730564","2024-11-27 15:00:00","11.8458","3.55247","27.693","2.498571428571429","7.36","3.088","2153.969","0","4.7","30.7862","4.82073","28.05","0","SATNPRO1963","24.214","0.33918","5"],
    [40928,"HCEP03730564","2024-11-27 15:15:00","11.8456","3.55229","27.615","2.498571428571429","7.36","3.318","1739.406","0.01","4.13","30.7846","4.8205","28.05","0","SATNPRO1963","23.896","0.33468","5"],
    [40929,"HCEP03730564","2024-11-27 15:30:00","11.8451","3.55208","27.532","2.482857142857143","7.36","3.317","1738.313","0","0.54","30.7831","4.82029","27.87","0","SATNPRO1963","23.752","0.3327","5"],
    [40930,"HCEP03730564","2024-11-27 15:45:00","11.8448","3.55176","27.437","2.461428571428572","7.36","3.043","2151.279","0.01","7.05","30.7803","4.81989","27.64","0","SATNPRO1963","23.672","0.33156","5"],
    [40931,"HCEP03730564","2024-11-27 16:00:00","11.8456","3.55181","27.326","2.468571428571428","7.36","3.317","1716.478","0.01","3.21","30.7801","4.81985","27.71","0","SATNPRO1963","24.446","0.34242","5"],
    [40932,"HCEP03730564","2024-11-27 16:15:00","11.8457","3.55173","27.19","2.524285714285714","7.36","3.314","1716.04","0.01","0.77","30.7793","4.81973","28.34","0","SATNPRO1963","24.438","0.3423","5"],
    [40933,"HCEP03730564","2024-11-27 16:30:00","11.8455","3.55151","27.033","2.548571428571428","7.36","3.064","2106.564","0","5.34","30.7774","4.81946","28.61","0","SATNPRO1963","24.3","0.34036","5"],
    [40934,"HCEP03730564","2024-11-27 16:45:00","11.8456","3.55137","26.852","2.551428571428572","7.36","3.327","1740.754","0.01","3.68","30.7761","4.81926","28.64","0","SATNPRO1963","24.189999999999998","0.33884","5"],
    [40935,"HCEP03730564","2024-11-27 17:00:00","11.8457","3.55141","26.633","2.562857142857143","7.37","3.326","1738.555","0","0.77","30.7764","4.8193","28.77","0","SATNPRO1963","24.15","0.3383","5"],
    [40936,"HCEP03730564","2024-11-27 17:15:00","11.8462","3.55184","26.428","2.598571428571429","7.36","3.066","2101.647","0","5.31","30.7802","4.81982","29.18","0","SATNPRO1963","24.678","0.34564","5"],
    [40937,"HCEP03730564","2024-11-27 17:30:00","11.8462","3.5523","26.254","2.644285714285714","7.37","3.337","1723.418","0.01","3.21","30.7848","4.82045","29.68","0","SATNPRO1963","24.654","0.3453","5"],
    [40938,"HCEP03730564","2024-11-27 17:45:00","11.846","3.55265","26.023","2.674285714285714","7.37","3.337","1722.678","0","0","30.7884","4.82094","30.02","0","SATNPRO1963","24.582","0.34434","5"],
    [40939,"HCEP03730564","2024-11-27 18:00:00","11.8463","3.55298","25.837","2.682857142857143","7.37","3.076","2088.077","0","4.41","30.7914","4.82135","30.12","0","SATNPRO1963","24.814","0.3476","5"],
    [40940,"HCEP03730564","2024-11-27 18:15:00","11.846","3.55298","25.658","2.69","7.37","3.309","1719.759","0.01","4.2","30.7918","4.8214","30.21","0","SATNPRO1963","24.85","0.34806","5"],
    [40941,"HCEP03730564","2024-11-27 18:30:00","11.8458","3.55292","25.468","2.678571428571429","7.37","3.308","1717.258","0","1.08","30.7913","4.82133","30.07","0","SATNPRO1963","24.64","0.34514","5"],
    [40942,"HCEP03730564","2024-11-27 18:45:00","11.8458","3.55284","25.271","2.664285714285714","7.37","3.035","2107.374","0","5.97","30.7907","4.82123","29.91","0","SATNPRO1963","24.554000000000002","0.34396","5"],
    [40943,"HCEP03730564","2024-11-27 19:00:00","11.8458","3.55273","25.101","2.648571428571429","7.36","3.306","1714.001","0.01","5.92","30.7897","4.82108","29.73","0","SATNPRO1963","24.544","0.3438","5"],
    [40944,"HCEP03730564","2024-11-27 19:15:00","11.8456","3.55269","24.94","2.627142857142857","7.36","3.304","1710.752","0.01","1.08","30.7895","4.82105","29.5","0","SATNPRO1963","24.47","0.34276","5"],
    [40945,"HCEP03730564","2024-11-27 19:30:00","11.8456","3.55257","24.809","2.612857142857143","7.36","3.032","2085.681","0","5.03","30.7884","4.82089","29.34","0","SATNPRO1963","24.454","0.34252","5"],
    [40946,"HCEP03730564","2024-11-27 19:45:00","11.8458","3.55244","24.709","2.585714285714286","7.36","3.313","1683.531","0.01","4.57","30.787","4.82068","29.03","0","SATNPRO1963","24.32","0.34062","5"],
    [40947,"HCEP03730564","2024-11-27 20:00:00","11.8456","3.55215","24.648","2.552857142857143","7.36","3.311","1682.129","0","0.77","30.7844","4.82031","28.67","0","SATNPRO1963","24.154","0.33828","5"],
    [40948,"HCEP03730564","2024-11-27 20:15:00","11.8458","3.55183","24.62","2.52","7.36","3.043","2051.905","0","4.85","30.7813","4.81987","28.29","0","SATNPRO1963","24.002000000000002","0.33622","5"],
    [40949,"HCEP03730564","2024-11-27 20:30:00","11.8454","3.55138","24.612","2.488571428571428","7.36","3.317","1676.071","0.01","2.66","30.7772","4.8193","27.94","0","SATNPRO1963","23.95","0.33546","5"],
    [40950,"HCEP03730564","2024-11-27 20:45:00","11.8454","3.55114","24.611","2.467142857142858","7.36","3.315","1672.851","0.01","0.54","30.7748","4.81896","27.69","0","SATNPRO1963","23.65","0.3313","5"],
    [40951,"HCEP03730564","2024-11-27 21:00:00","11.8454","3.55113","24.636","2.447142857142858","7.36","3.041","2063.512","0.01","4.76","30.7748","4.81896","27.48","0","SATNPRO1963","23.067999999999998","0.32308","5"],
    [40952,"HCEP03730564","2024-11-27 21:15:00","11.8454","3.55124","24.673","2.424285714285714","7.36","3.307","1690.396","0.01","4.7","30.7758","4.8191","27.22","0","SATNPRO1963","24.028","0.33654","5"],
    [40953,"HCEP03730564","2024-11-27 21:30:00","11.8451","3.55134","24.798","2.417142857142857","7.36","3.307","1689.23","0.01","0.77","30.777","4.81928","27.13","0","SATNPRO1963","24.014","0.33634","5"],
    [40954,"HCEP03730564","2024-11-27 21:45:00","11.8454","3.55141","24.881","2.411428571428572","7.35","3.015","2109.022","0.01","3.68","30.7774","4.81934","27.08","0","SATNPRO1963","24.154","0.33828","5"],
    [40955,"HCEP03730564","2024-11-27 22:00:00","11.8455","3.5515","25.001","2.41","7.35","3.313","1705.028","0.01","4.54","30.7781","4.81945","27.06","0","SATNPRO1963","24.156","0.33838","5"],
    [40956,"HCEP03730564","2024-11-27 22:15:00","11.8454","3.55152","25.104","2.41","7.35","3.312","1702.898","0.01","0","30.7784","4.8195","27.05","0","SATNPRO1963","24.137999999999998","0.33812","5"],
    [40957,"HCEP03730564","2024-11-27 22:30:00","11.8456","3.5514","25.204","2.405714285714286","7.35","3.037","2153.013","0.01","3.68","30.777","4.8193","27.01","0","SATNPRO1963","24.47","0.34276","5"],
    [40958,"HCEP03730564","2024-11-27 22:45:00","11.8456","3.55118","25.331","2.41","7.35","3.317","1748.158","0.01","2.36","30.7749","4.81901","27.06","0","SATNPRO1963","24.07","0.33716","5"],
    [40959,"HCEP03730564","2024-11-27 23:00:00","11.8456","3.55073","25.469","2.407142857142858","7.35","3.317","1748.02","0","0","30.7704","4.81838","27.03","0","SATNPRO1963","24.198","0.33894","5"],
    [40960,"HCEP03730564","2024-11-27 23:15:00","11.8456","3.5506","25.581","2.388571428571428","7.35","3.052","2191.749","0","5.53","30.7692","4.81822","26.82","0","SATNPRO1963","24.034","0.33666","5"],
    [40961,"HCEP03730564","2024-11-27 23:30:00","11.8451","3.55044","25.703","2.394285714285714","7.35","3.308","1782.222","0.01","4.13","30.768","4.81807","26.88","0","SATNPRO1963","23.876","0.3344","5"],
    [40962,"HCEP03730564","2024-11-27 23:45:00","11.8449","3.55038","25.844","2.392857142857143","7.35","3.309","1779.457","0","0","30.7675","4.81801","26.86","0","SATNPRO1963","23.776","0.333","5"],
    [40963,"HCEP03730564","2024-11-28 00:00:00","11.8449","3.5503","26.013","2.365714285714286","7.35","3.053","2215.139","0.01","3.99","30.7667","4.8179","26.56","0","SATNPRO1963","23.826","0.33372","5"],
    [40964,"HCEP03730564","2024-11-28 00:15:00","11.8451","3.55021","26.183","2.364285714285714","7.34","3.324","1779.538","0.01","5.37","30.7655","4.81775","26.54","0","SATNPRO1963","23.73","0.33236","5"],
    [40965,"HCEP03730564","2024-11-28 00:30:00","11.8453","3.55011","26.369","2.362857142857143","7.35","3.323","1775.179","0","0.94","30.7643","4.81758","26.53","0","SATNPRO1963","24.046","0.33682","5"],
    [40966,"HCEP03730564","2024-11-28 00:45:00","11.8452","3.55003","26.541","2.371428571428571","7.35","3.089","2222.384","0","4.97","30.7637","4.8175","26.62","0","SATNPRO1963","24.218","0.33922","5"],
    [40967,"HCEP03730564","2024-11-28 01:00:00","11.8449","3.54996","26.702","2.371428571428571","7.35","3.349","1821.234","0.01","2.97","30.7631","4.81744","26.62","0","SATNPRO1963","24.258","0.33982","5"],
    [40968,"HCEP03730564","2024-11-28 01:15:00","11.8452","3.54985","26.849","2.361428571428572","7.35","3.352","1817.442","0.01","0.94","30.7618","4.81725","26.51","0","SATNPRO1963","24.302","0.3404","5"],
    [40969,"HCEP03730564","2024-11-28 01:30:00","11.8452","3.54975","26.999","2.355714285714286","7.34","3.099","2235.328","0","6.23","30.7608","4.81712","26.45","0","SATNPRO1963","24.032","0.33656","5"],
    [40970,"HCEP03730564","2024-11-28 01:45:00","11.8452","3.54969","27.134","2.347142857142857","7.34","3.331","1826.166","0.01","4.41","30.7601","4.81703","26.35","0","SATNPRO1963","24.088","0.3374","5"],
    [40971,"HCEP03730564","2024-11-28 02:00:00","11.8451","3.54959","27.251","2.31","7.35","3.33","1822.709","0","1.08","30.7592","4.81691","25.93","0","SATNPRO1963","23.702","0.332","5"],
    [40972,"HCEP03730564","2024-11-28 02:15:00","11.8454","3.54937","27.357","2.295714285714286","7.35","3.069","2192.247","0","4.91","30.7568","4.81657","25.77","0","SATNPRO1963","23.814","0.33356","5"],
    [40973,"HCEP03730564","2024-11-28 02:30:00","11.845","3.54923","27.438","2.281428571428572","7.35","3.306","1804.413","0.01","4.02","30.7557","4.81643","25.61","0","SATNPRO1963","23.754","0.33272","5"],
    [40974,"HCEP03730564","2024-11-28 02:45:00","11.8448","3.549","27.49","2.274285714285714","7.34","3.304","1799.929","0","0.94","30.7536","4.81614","25.53","0","SATNPRO1963","23.476","0.3288","5"],
    [40975,"HCEP03730564","2024-11-28 03:00:00","11.8446","3.54897","27.546","2.27","7.34","3.064","2135.411","0","5.66","30.7535","4.81614","25.49","0","SATNPRO1963","23.57","0.33014","5"],
    [40976,"HCEP03730564","2024-11-28 03:15:00","11.845","3.54883","27.594","2.257142857142857","7.34","3.289","1735.998","0.01","3.02","30.7518","4.81589","25.33","0","SATNPRO1963","23.64","0.3311","5"],
    [40977,"HCEP03730564","2024-11-28 03:30:00","11.845","3.54879","27.625","2.258571428571428","7.34","3.286","1733.153","0","0.77","30.7514","4.81584","25.35","0","SATNPRO1963","23.832","0.33382","5"],
    [40978,"HCEP03730564","2024-11-28 03:45:00","11.8448","3.54882","27.619","2.254285714285714","7.33","3.041","2135.256","0","4.63","30.7519","4.81591","25.3","0","SATNPRO1963","23.758","0.3328","5"],
    [40979,"HCEP03730564","2024-11-28 04:00:00","11.8453","3.54887","27.64","2.245714285714286","7.33","3.309","1711.819","0.01","2.49","30.7519","4.81591","25.22","0","SATNPRO1963","23.916","0.33504","5"],
    [40980,"HCEP03730564","2024-11-28 04:15:00","11.8446","3.54919","27.618","2.228571428571429","7.34","3.308","1710.902","0.01","1.33","30.7556","4.81643","25.01","0","SATNPRO1963","23.446","0.32838","5"],
    [40981,"HCEP03730564","2024-11-28 04:30:00","11.8448","3.54935","27.574","2.227142857142857","7.33","3.054","2124.802","0","5.87","30.757","4.81663","25","0","SATNPRO1963","23.574","0.3302","5"],
    [40982,"HCEP03730564","2024-11-28 04:45:00","11.8444","3.54958","27.563","2.208571428571429","7.34","3.304","1713.084","0.01","5.42","30.7595","4.81698","24.8","0","SATNPRO1963","23.114","0.32378","5"],
    [40983,"HCEP03730564","2024-11-28 05:00:00","11.8445","3.54969","27.504","2.197142857142857","7.34","3.302","1709.762","0","0.77","30.7606","4.81712","24.66","0","SATNPRO1963","23.436","0.32824","5"],
    [40984,"HCEP03730564","2024-11-28 05:15:00","11.8442","3.54981","27.467","2.198571428571428","7.34","3.041","2146.695","0","5.06","30.7619","4.81732","24.68","0","SATNPRO1963","23.226","0.32534","5"],
    [40985,"HCEP03730564","2024-11-28 05:30:00","11.8445","3.54982","27.398","2.212857142857143","7.34","3.293","1726.242","0.01","6.58","30.7619","4.8173","24.85","0","SATNPRO1963","23.628","0.33094","5"],
    [40986,"HCEP03730564","2024-11-28 05:45:00","11.8442","3.54975","27.345","2.24","7.34","3.292","1724.592","0","1.08","30.7615","4.81725","25.14","0","SATNPRO1963","23.538","0.32966","5"],
    [40987,"HCEP03730564","2024-11-28 06:00:00","11.8444","3.54999","27.313","2.275714285714286","7.34","3.066","2141.303","0","4.6","30.7635","4.81753","25.55","0","SATNPRO1963","23.678","0.33166","5"],
    [40988,"HCEP03730564","2024-11-28 06:15:00","11.8442","3.55009","27.255","2.262857142857143","7.34","3.317","1786.325","0.01","4.02","30.7647","4.8177","25.41","0","SATNPRO1963","23.663999999999998","0.33144","5"],
    [40989,"HCEP03730564","2024-11-28 06:30:00","11.8445","3.55026","27.186","2.272857142857143","7.34","3.317","1781.79","0","1.33","30.7661","4.81789","25.52","0","SATNPRO1963","23.612000000000002","0.33072","5"],
    [40990,"HCEP03730564","2024-11-28 06:45:00","11.8444","3.55066","27.12","2.264285714285714","7.34","3.094","2188.553","0","8.58","30.7701","4.81845","25.41","0","SATNPRO1963","23.206","0.32506","5"],
    [40991,"HCEP03730564","2024-11-28 07:00:00","11.8444","3.55105","27.048","2.264285714285714","7.34","3.329","1854.384","0","3.25","30.774","4.81899","25.42","0","SATNPRO1963","23.612000000000002","0.33072","5"],
    [40992,"HCEP03730564","2024-11-28 07:15:00","11.8443","3.55121","26.971","2.284285714285714","7.34","3.328","1853.865","0","1.21","30.7755","4.81921","25.64","0","SATNPRO1963","23.548000000000002","0.3298","5"],
    [40993,"HCEP03730564","2024-11-28 07:30:00","11.8443","3.55134","26.899","2.28","7.34","3.094","2229.137","0.01","5.26","30.7768","4.81938","25.6","0","SATNPRO1963","23.47","0.32876","5"],
    [40994,"HCEP03730564","2024-11-28 07:45:00","11.8444","3.55151","26.832","2.29","7.34","3.336","1863.853","0.01","6.11","30.7784","4.8196","25.72","0","SATNPRO1963","23.55","0.32984","5"],
    [40995,"HCEP03730564","2024-11-28 08:00:00","11.8447","3.55156","26.764","2.318571428571428","7.34","3.337","1862.305","0","1.08","30.7787","4.81964","26.03","0","SATNPRO1963","23.968","0.33572","5"],
    [40996,"HCEP03730564","2024-11-28 08:15:00","11.8446","3.55161","26.71","2.341428571428572","7.35","3.137","2252.099","0","5.99","30.7792","4.81971","26.28","0","SATNPRO1963","23.89","0.33462","5"],
    [40997,"HCEP03730564","2024-11-28 08:30:00","11.8447","3.55164","26.663","2.33","7.35","3.348","1881.326","0.01","3.95","30.7795","4.81975","26.16","0","SATNPRO1963","23.84","0.33392","5"],
    [40998,"HCEP03730564","2024-11-28 08:45:00","11.8447","3.55167","26.626","2.318571428571428","7.36","3.347","1877.954","0","0","30.7798","4.81978","26.03","0","SATNPRO1963","23.676","0.3316","5"],
    [40999,"HCEP03730564","2024-11-28 09:00:00","11.8448","3.55174","26.6","2.317142857142857","7.36","3.132","2269.446","0","5.53","30.7804","4.81987","26.02","0","SATNPRO1963","23.817999999999998","0.33358","5"],
    [41000,"HCEP03730564","2024-11-28 09:15:00","11.8447","3.55175","26.589","2.338571428571428","7.35","3.331","1865.444","0.01","5.87","30.7806","4.81989","26.26","0","SATNPRO1963","23.904","0.3348","5"],
    [41001,"HCEP03730564","2024-11-28 09:30:00","11.8446","3.55176","26.589","2.347142857142857","7.36","3.331","1862.164","0","1.08","30.7807","4.81991","26.35","0","SATNPRO1963","24.12","0.33786","5"],
    [41002,"HCEP03730564","2024-11-28 09:45:00","11.8448","3.55169","26.603","2.372857142857143","7.35","3.131","2203.35","0.01","4.73","30.7799","4.8198","26.65","0","SATNPRO1963","24.294","0.34032","5"],
    [41003,"HCEP03730564","2024-11-28 10:00:00","11.8448","3.55161","26.654","2.401428571428572","7.35","3.331","1815.074","0.01","6.46","30.7791","4.81969","26.95","0","SATNPRO1963","24.164","0.33846","5"],
    [41004,"HCEP03730564","2024-11-28 10:15:00","11.8448","3.55153","26.696","2.401428571428572","7.35","3.331","1813.734","0","0","30.7782","4.81957","26.95","0","SATNPRO1963","24.326","0.34074","5"],
    [41005,"HCEP03730564","2024-11-28 10:30:00","11.8445","3.5515","26.747","2.422857142857143","7.34","3.107","2204.437","0","4.2","30.7783","4.81958","27.2","0","SATNPRO1963","24.174","0.3386","5"],
    [41006,"HCEP03730564","2024-11-28 10:45:00","11.8445","3.55152","26.815","2.431428571428572","7.34","3.313","1788.188","0.01","5.42","30.7784","4.8196","27.3","0","SATNPRO1963","24.316","0.34064","5"],
    [41007,"HCEP03730564","2024-11-28 11:00:00","11.8442","3.55157","26.887","2.435714285714286","7.35","3.312","1783.541","0.01","0.94","30.7791","4.81971","27.35","0","SATNPRO1963","24.2","0.33896","5"],
    [41008,"HCEP03730564","2024-11-28 11:15:00","11.8443","3.55168","26.974","2.435714285714286","7.35","3.057","2177.692","0","5.06","30.78","4.81984","27.35","0","SATNPRO1963","24.33","0.3408","5"],
    [41009,"HCEP03730564","2024-11-28 11:30:00","11.8437","3.55176","27.051","2.472857142857143","7.35","3.315","1800.876","0.01","5.56","30.7813","4.82003","27.77","0","SATNPRO1963","24.648","0.34524","5"],
    [41010,"HCEP03730564","2024-11-28 11:45:00","11.8437","3.55173","27.128","2.505714285714286","7.35","3.313","1797.074","0.01","0.94","30.7809","4.81999","28.12","0","SATNPRO1963","24.436","0.3423","5"],
    [41011,"HCEP03730564","2024-11-28 12:00:00","11.8438","3.55168","27.2","2.51","7.35","3.053","2231.43","0","4.41","30.7804","4.81991","28.18","0","SATNPRO1963","24.408","0.34192","5"],
    [41012,"HCEP03730564","2024-11-28 12:15:00","11.8441","3.55157","27.279","2.494285714285714","7.35","3.307","1776.316","0.01","5.03","30.7791","4.81973","28.01","0","SATNPRO1963","24.374","0.3414","5"],
    [41013,"HCEP03730564","2024-11-28 12:30:00","11.8442","3.55146","27.36","2.465714285714286","7.36","3.303","1772.789","0","1.33","30.7779","4.81956","27.68","0","SATNPRO1963","24.154","0.33832","5"],
    [41014,"HCEP03730564","2024-11-28 12:45:00","11.8441","3.55137","27.443","2.437142857142857","7.35","3.059","2165.31","0","6.04","30.777","4.81945","27.36","0","SATNPRO1963","24.088","0.33742","5"],
    [41015,"HCEP03730564","2024-11-28 13:00:00","11.8443","3.55127","27.514","2.428571428571428","7.35","3.315","1795.765","0.01","4.02","30.7759","4.81929","27.27","0","SATNPRO1963","24.33","0.3408","5"],
    [41016,"HCEP03730564","2024-11-28 13:15:00","11.8444","3.55114","27.586","2.447142857142858","7.35","3.312","1795.454","0.01","0.94","30.7745","4.8191","27.48","0","SATNPRO1963","24.514","0.34336","5"],
    [41017,"HCEP03730564","2024-11-28 13:30:00","11.8443","3.55102","27.638","2.424285714285714","7.35","3.062","2176.114","0","5.17","30.7734","4.81895","27.22","0","SATNPRO1963","24.206","0.33906","5"],
    [41018,"HCEP03730564","2024-11-28 13:45:00","11.844","3.55095","27.677","2.395714285714286","7.35","3.302","1747.856","0.01","4.13","30.7731","4.81891","26.89","0","SATNPRO1963","23.916","0.33498","5"],
    [41019,"HCEP03730564","2024-11-28 14:00:00","11.8442","3.55094","27.703","2.375714285714286","7.35","3.303","1748.051","0","0.54","30.7727","4.81885","26.68","0","SATNPRO1963","23.916","0.33498","5"],
    [41020,"HCEP03730564","2024-11-28 14:15:00","11.844","3.55095","27.727","2.362857142857143","7.34","3.039","2105.47","0","5.84","30.773","4.8189","26.52","0","SATNPRO1963","23.958000000000002","0.33556","5"],
    [41021,"HCEP03730564","2024-11-28 14:30:00","11.8441","3.55104","27.728","2.351428571428571","7.34","3.305","1738.545","0.01","5.56","30.7737","4.819","26.4","0","SATNPRO1963","24.122","0.33784","5"],
    [41022,"HCEP03730564","2024-11-28 14:45:00","11.8444","3.5511","27.733","2.344285714285714","7.35","3.303","1733.395","0","1.08","30.7741","4.81905","26.32","0","SATNPRO1963","23.886","0.33458","5"],
    [41023,"HCEP03730564","2024-11-28 15:00:00","11.8444","3.55112","27.718","2.338571428571428","7.34","3.05","2119.048","0.01","3.52","30.7744","4.81908","26.26","0","SATNPRO1963","23.942","0.33532","5"],
    [41024,"HCEP03730564","2024-11-28 15:15:00","11.8441","3.55105","27.672","2.332857142857143","7.34","3.29","1715.5","0.01","3.56","30.7739","4.81902","26.19","0","SATNPRO1963","23.912","0.33492","5"],
    [41025,"HCEP03730564","2024-11-28 15:30:00","11.8442","3.55105","27.594","2.325714285714286","7.34","3.288","1713.065","0","0.54","30.7738","4.81901","26.11","0","SATNPRO1963","24.052","0.33688","5"],
    [41026,"HCEP03730564","2024-11-28 15:45:00","11.8446","3.55106","27.498","2.322857142857143","7.34","3.035","2124.737","0","7.82","30.7737","4.81897","26.08","0","SATNPRO1963","23.96","0.33558","5"],
    [41027,"HCEP03730564","2024-11-28 16:00:00","11.8444","3.55104","27.39","2.317142857142857","7.34","3.295","1688.978","0.01","2.66","30.7737","4.81897","26.01","0","SATNPRO1963","24.116","0.33778","5"],
    [41028,"HCEP03730564","2024-11-28 16:15:00","11.8441","3.55105","27.302","2.318571428571428","7.34","3.295","1689.066","0","0.54","30.774","4.81902","26.04","0","SATNPRO1963","24.132","0.338","5"],
    [41029,"HCEP03730564","2024-11-28 16:30:00","11.844","3.55108","27.171","2.32","7.34","3.04","2081.545","0","5.12","30.7745","4.81908","26.05","0","SATNPRO1963","23.974","0.3358","5"],
    [41030,"HCEP03730564","2024-11-28 16:45:00","11.8439","3.551","27.038","2.327142857142857","7.33","3.303","1660.413","0.01","2.87","30.7739","4.81899","26.13","0","SATNPRO1963","24.086","0.3374","5"],
    [41031,"HCEP03730564","2024-11-28 17:00:00","11.8436","3.55099","26.879","2.322857142857143","7.34","3.301","1659.541","0","0.94","30.774","4.819","26.07","0","SATNPRO1963","24.304","0.34044","5"],
    [41032,"HCEP03730564","2024-11-28 17:15:00","11.8437","3.55104","26.71","2.321428571428572","7.34","3.04","2071.349","0","4.6","30.7746","4.81907","26.06","0","SATNPRO1963","24.232","0.33942","5"],
    [41033,"HCEP03730564","2024-11-28 17:30:00","11.8434","3.55105","26.526","2.328571428571428","7.34","3.305","1686.241","0.01","5.58","30.7749","4.81911","26.14","0","SATNPRO1963","23.762","0.33284","5"],
    [41034,"HCEP03730564","2024-11-28 17:45:00","11.843","3.55136","26.345","2.354285714285714","7.35","3.304","1682.129","0.01","0.94","30.7783","4.81959","26.43","0","SATNPRO1963","24.18","0.33868","5"],
    [41035,"HCEP03730564","2024-11-28 18:00:00","11.8425","3.55208","26.145","2.431428571428572","7.35","3.046","2098.872","0.01","5.45","30.7857","4.82063","27.3","0","SATNPRO1963","24.573999999999998","0.3442","5"],
    [41036,"HCEP03730564","2024-11-28 18:15:00","11.8424","3.55233","25.95","2.524285714285714","7.35","3.281","1693.812","0.01","4.7","30.7883","4.82099","28.35","0","SATNPRO1963","24.848","0.34804","5"],
    [41037,"HCEP03730564","2024-11-28 18:30:00","11.8422","3.55256","25.718","2.585714285714286","7.36","3.277","1688.738","0","0.77","30.7908","4.82133","29.02","0","SATNPRO1963","25.024","0.35052","5"],
    [41038,"HCEP03730564","2024-11-28 18:45:00","11.8418","3.5527","25.5","2.624285714285714","7.36","3.054","2043.911","0","5.77","30.7926","4.82157","29.46","0","SATNPRO1963","24.952","0.34948","5"],
    [41039,"HCEP03730564","2024-11-28 19:00:00","11.8416","3.55274","25.316","2.64","7.36","3.31","1706.239","0.01","2.43","30.7932","4.82164","29.64","0","SATNPRO1963","25.014","0.35036","5"],
    [41040,"HCEP03730564","2024-11-28 19:15:00","11.8415","3.55276","25.118","2.641428571428572","7.36","3.308","1705.294","0.01","0","30.7935","4.82168","29.66","0","SATNPRO1963","24.75","0.34664","5"],
    [41041,"HCEP03730564","2024-11-28 19:30:00","11.8414","3.55264","24.934","2.64","7.36","3.071","2052.155","0","6.16","30.7926","4.82154","29.64","0","SATNPRO1963","24.742","0.34654","5"],
    [41042,"HCEP03730564","2024-11-28 19:45:00","11.8415","3.55255","24.775","2.63","7.36","3.297","1677.051","0.01","3.52","30.7916","4.82139","29.53","0","SATNPRO1963","24.65","0.34528","5"],
    [41043,"HCEP03730564","2024-11-28 20:00:00","11.8412","3.5525","24.634","2.62","7.37","3.297","1674.987","0","0","30.7914","4.82136","29.42","0","SATNPRO1963","24.816","0.34762","5"],
    [41044,"HCEP03730564","2024-11-28 20:15:00","11.8415","3.55244","24.519","2.625714285714286","7.36","3.055","2053.931","0","4.82","30.7907","4.82125","29.47","0","SATNPRO1963","24.864","0.34826","5"],
    [41045,"HCEP03730564","2024-11-28 20:30:00","11.8416","3.55228","24.431","2.628571428571429","7.36","3.314","1654.988","0.01","4.82","30.7892","4.82103","29.51","0","SATNPRO1963","24.822","0.34766","5"],
    [41046,"HCEP03730564","2024-11-28 20:45:00","11.8429","3.55149","24.392","2.611428571428572","7.36","3.315","1651.966","0.01","1.53","30.7805","4.81978","29.31","0","SATNPRO1963","24.866","0.34828","5"],
    [41047,"HCEP03730564","2024-11-28 21:00:00","11.8428","3.55148","24.39","2.577142857142857","7.36","3.034","2061.013","0","3.52","30.7804","4.81977","28.94","0","SATNPRO1963","24.928","0.34914","5"],
    [41048,"HCEP03730564","2024-11-28 21:15:00","11.8418","3.55224","24.403","2.578571428571429","7.36","3.285","1672.29","0.01","3.21","30.7886","4.82094","28.94","0","SATNPRO1963","24.666","0.34548","5"],
    [41049,"HCEP03730564","2024-11-28 21:30:00","11.8414","3.55244","24.429","2.591428571428572","7.37","3.283","1668.985","0","0.77","30.7908","4.82126","29.1","0","SATNPRO1963","24.886","0.34856","5"],
    [41050,"HCEP03730564","2024-11-28 21:45:00","11.841","3.55252","24.537","2.601428571428571","7.38","3.022","2064.246","0","5.45","30.7918","4.82141","29.2","0","SATNPRO1963","24.912","0.34894","5"],
    [41051,"HCEP03730564","2024-11-28 22:00:00","11.8416","3.55259","24.581","2.608571428571428","7.37","3.289","1675.583","0.01","4.37","30.7919","4.82143","29.28","0","SATNPRO1963","24.844","0.34796","5"],
    [41052,"HCEP03730564","2024-11-28 22:15:00","11.8415","3.55254","24.649","2.604285714285714","7.38","3.289","1672.125","0.01","0.94","30.7916","4.82139","29.23","0","SATNPRO1963","24.662","0.34542","5"],
    [41053,"HCEP03730564","2024-11-28 22:30:00","11.8416","3.55243","24.753","2.548571428571428","7.38","3.077","2142.714","0","3.72","30.7904","4.82122","28.61","0","SATNPRO1963","24.546","0.34382","5"],
    [41054,"HCEP03730564","2024-11-28 22:45:00","11.8418","3.55242","24.896","2.504285714285714","7.37","3.313","1772.378","0.01","4.1","30.7901","4.82119","28.11","0","SATNPRO1963","24.682","0.34572","5"],
    [41055,"HCEP03730564","2024-11-28 23:00:00","11.8416","3.55246","25.032","2.465714285714286","7.38","3.311","1769.27","0.01","0","30.7906","4.82126","27.68","0","SATNPRO1963","24.302","0.3404","5"],
    [41056,"HCEP03730564","2024-11-28 23:15:00","11.8416","3.55236","25.151","2.437142857142857","7.37","3.078","2190.405","0","4.13","30.7895","4.82112","27.36","0","SATNPRO1963","24.44","0.34232","5"],
    [41057,"HCEP03730564","2024-11-28 23:30:00","11.842","3.5522","25.293","2.392857142857143","7.37","3.316","1828.422","0.01","2.82","30.7877","4.82087","26.87","0","SATNPRO1963","24.136","0.33806","5"],
    [41058,"HCEP03730564","2024-11-28 23:45:00","11.8427","3.55185","25.447","2.345714285714286","7.37","3.313","1824.856","0","0.77","30.7836","4.82029","26.34","0","SATNPRO1963","23.926","0.33516","5"],
    [41059,"HCEP03730564","2024-11-29 00:00:00","11.843","3.55154","25.613","2.305714285714286","7.36","3.133","2240.342","0","6.18","30.7803","4.81983","25.88","0","SATNPRO1963","23.858","0.33414","5"],
    [41060,"HCEP03730564","2024-11-29 00:15:00","11.8435","3.55142","25.787","2.27","7.36","3.313","1919.572","0.01","3.87","30.7788","4.81961","25.48","0","SATNPRO1963","23.942","0.33536","5"],
    [41061,"HCEP03730564","2024-11-29 00:30:00","11.8431","3.55143","25.973","2.252857142857143","7.36","3.312","1914.276","0.01","1.44","30.779","4.81966","25.29","0","SATNPRO1963","23.836","0.33386","5"],
    [41062,"HCEP03730564","2024-11-29 00:45:00","11.8432","3.5512","26.143","2.235714285714286","7.35","3.149","2303.405","0.01","6.14","30.7767","4.81935","25.1","0","SATNPRO1963","23.84","0.33394","5"],
    [41063,"HCEP03730564","2024-11-29 01:00:00","11.8434","3.55126","26.328","2.222857142857143","7.35","3.335","1903.035","0.01","6.69","30.777","4.8194","24.96","0","SATNPRO1963","23.748","0.33264","5"],
    [41064,"HCEP03730564","2024-11-29 01:15:00","11.8433","3.5512","26.505","2.207142857142857","7.35","3.335","1897.14","0","1.53","30.7764","4.81932","24.77","0","SATNPRO1963","23.624","0.33092","5"],
    [41065,"HCEP03730564","2024-11-29 01:30:00","11.8431","3.55126","26.683","2.191428571428572","7.35","3.145","2256.591","0","5.89","30.7771","4.81943","24.6","0","SATNPRO1963","24.072","0.33716","5"],
    [41066,"HCEP03730564","2024-11-29 01:45:00","11.8433","3.55127","26.862","2.181428571428572","7.35","3.323","1887.252","0","5.34","30.7771","4.81943","24.49","0","SATNPRO1963","23.404","0.32778","5"],
    [41067,"HCEP03730564","2024-11-29 02:00:00","11.8431","3.55097","27.027","2.165714285714286","7.35","3.325","1880.612","0","0.94","30.7743","4.81905","24.32","0","SATNPRO1963","23.296","0.32626","5"],
    [41068,"HCEP03730564","2024-11-29 02:15:00","11.8431","3.55064","27.186","2.144285714285714","7.34","3.122","2270.924","0","7.67","30.771","4.8186","24.07","0","SATNPRO1963","23.218","0.3252","5"],
    [41069,"HCEP03730564","2024-11-29 02:30:00","11.8432","3.55044","27.319","2.12","7.34","3.322","1883.873","0.01","2.36","30.7689","4.81831","23.8","0","SATNPRO1963","23.402","0.32778","5"],
    [41070,"HCEP03730564","2024-11-29 02:45:00","11.8431","3.55029","27.428","2.104285714285714","7.34","3.321","1880.944","0","0.94","30.7676","4.81813","23.61","0","SATNPRO1963","23.846","0.33404","5"],
    [41071,"HCEP03730564","2024-11-29 03:00:00","11.8431","3.55005","27.528","2.1","7.33","3.099","2246.948","0","5.84","30.7651","4.81779","23.57","0","SATNPRO1963","23.49","0.32904","5"],
    [41072,"HCEP03730564","2024-11-29 03:15:00","11.843","3.54999","27.625","2.101428571428571","7.33","3.312","1849.977","0.01","4.67","30.7646","4.81772","23.59","0","SATNPRO1963","23.418","0.32802","5"],
    [41073,"HCEP03730564","2024-11-29 03:30:00","11.8429","3.54987","27.698","2.094285714285714","7.33","3.311","1847.168","0.01","1.21","30.7635","4.81757","23.51","0","SATNPRO1963","23.41","0.32788","5"],
    [41074,"HCEP03730564","2024-11-29 03:45:00","11.8432","3.54976","27.735","2.092857142857143","7.33","3.101","2180.112","0","6.23","30.7622","4.81739","23.49","0","SATNPRO1963","23.68","0.33168","5"],
    [41075,"HCEP03730564","2024-11-29 04:00:00","11.8428","3.54974","27.737","2.1","7.33","3.298","1774.752","0","4.2","30.7623","4.81741","23.57","0","SATNPRO1963","23.18","0.32468","5"],
    [41076,"HCEP03730564","2024-11-29 04:15:00","11.843","3.54978","27.77","2.1","7.33","3.297","1769.56","0","0","30.7625","4.81744","23.57","0","SATNPRO1963","23.3","0.32638","5"],
    [41077,"HCEP03730564","2024-11-29 04:30:00","11.8431","3.54994","27.762","2.101428571428571","7.32","3.041","2144.091","0","3.21","30.764","4.81764","23.59","0","SATNPRO1963","23.524","0.32952","5"],
    [41078,"HCEP03730564","2024-11-29 04:45:00","11.8432","3.54987","27.749","2.131428571428572","7.32","3.299","1762.783","0","6.88","30.7633","4.81754","23.92","0","SATNPRO1963","23.824","0.33368","5"],
    [41079,"HCEP03730564","2024-11-29 05:00:00","11.8433","3.55001","27.699","2.148571428571429","7.32","3.297","1761.799","0","1.44","30.7645","4.81771","24.12","0","SATNPRO1963","23.678","0.33164","5"],
    [41080,"HCEP03730564","2024-11-29 05:15:00","11.8435","3.5503","27.728","2.147142857142857","7.32","3.061","2189.596","0.01","3.99","30.7671","4.81808","24.1","0","SATNPRO1963","24.016","0.33638","5"],
    [41081,"HCEP03730564","2024-11-29 05:30:00","11.8419","3.55119","27.682","2.171428571428572","7.33","3.299","1778.476","0.01","2.77","30.7771","4.8195","24.38","0","SATNPRO1963","23.3","0.32638","5"],
    [41082,"HCEP03730564","2024-11-29 05:45:00","11.8419","3.55154","27.599","2.165714285714286","7.33","3.3","1776.159","0","1.63","30.7804","4.81997","24.31","0","SATNPRO1963","23.472","0.32876","5"],
    [41083,"HCEP03730564","2024-11-29 06:00:00","11.8414","3.55188","27.571","2.182857142857143","7.34","3.076","2134.103","0","4.54","30.7842","4.82051","24.5","0","SATNPRO1963","23.392","0.32766","5"],
    [41084,"HCEP03730564","2024-11-29 06:15:00","11.8414","3.55201","27.539","2.225714285714286","7.34","3.289","1804.907","0.01","3.64","30.7854","4.82068","24.98","0","SATNPRO1963","23.556","0.32996","5"],
    [41085,"HCEP03730564","2024-11-29 06:30:00","11.8414","3.55202","27.488","2.258571428571428","7.35","3.286","1802.726","0","1.08","30.7856","4.8207","25.36","0","SATNPRO1963","23.733999999999998","0.33244","5"],
    [41086,"HCEP03730564","2024-11-29 06:45:00","11.8415","3.55207","27.437","2.278571428571428","7.34","3.053","2238.912","0","5.42","30.7859","4.82074","25.59","0","SATNPRO1963","23.798","0.33336","5"],
    [41087,"HCEP03730564","2024-11-29 07:00:00","11.8415","3.55205","27.381","2.275714285714286","7.34","3.289","1866.503","0.01","7.73","30.7858","4.82071","25.55","0","SATNPRO1963","23.832","0.33378","5"],
    [41088,"HCEP03730564","2024-11-29 07:15:00","11.841","3.55216","27.311","2.278571428571428","7.35","3.289","1865.234","0.01","1.33","30.7872","4.82093","25.58","0","SATNPRO1963","23.978","0.33586","5"],
    [41089,"HCEP03730564","2024-11-29 07:30:00","11.841","3.55224","27.227","2.287142857142857","7.35","3.119","2178.206","0","4.85","30.788","4.82103","25.68","0","SATNPRO1963","23.622","0.33086","5"],
    [41090,"HCEP03730564","2024-11-29 07:45:00","11.8404","3.55266","27.139","2.311428571428572","7.34","3.276","1778.772","0.01","6.53","30.7926","4.82169","25.95","0","SATNPRO1963","23.93","0.33514","5"],
    [41091,"HCEP03730564","2024-11-29 08:00:00","11.8399","3.55281","27.064","2.364285714285714","7.35","3.277","1773.295","0","0.54","30.7946","4.82196","26.55","0","SATNPRO1963","24.1","0.33762","5"],
    [41092,"HCEP03730564","2024-11-29 08:15:00","11.84","3.55287","26.994","2.387142857142858","7.34","3.043","2155.046","0","6.28","30.7951","4.82203","26.81","0","SATNPRO1963","24.060000000000002","0.33702","5"],
    [41093,"HCEP03730564","2024-11-29 08:30:00","11.8397","3.5529","26.928","2.405714285714286","7.34","3.261","1768.399","0.01","3.25","30.7956","4.8221","27","0","SATNPRO1963","24.194","0.3389","5"],
    [41094,"HCEP03730564","2024-11-29 08:45:00","11.8399","3.55287","26.867","2.395714285714286","7.35","3.257","1765.341","0","1.33","30.7952","4.82204","26.9","0","SATNPRO1963","24.308","0.34046","5"],
    [41095,"HCEP03730564","2024-11-29 09:00:00","11.8401","3.55267","26.812","2.39","7.35","3.034","2148.262","0","5.53","30.7932","4.82175","26.84","0","SATNPRO1963","24.528","0.34358","5"],
    [41096,"HCEP03730564","2024-11-29 09:15:00","11.8401","3.55264","26.763","2.407142857142858","7.35","3.284","1785.403","0.01","4.27","30.7929","4.8217","27.02","0","SATNPRO1963","24.36","0.34122","5"],
    [41097,"HCEP03730564","2024-11-29 09:30:00","11.8401","3.55259","26.728","2.408571428571428","7.35","3.285","1781.99","0","0.94","30.7924","4.82163","27.04","0","SATNPRO1963","24.418","0.34202","5"],
    [41098,"HCEP03730564","2024-11-29 09:45:00","11.8403","3.55257","26.713","2.421428571428572","7.35","3.038","2171.625","0","5.66","30.7921","4.82158","27.19","0","SATNPRO1963","24.708","0.34608","5"],
    [41099,"HCEP03730564","2024-11-29 10:00:00","11.8401","3.55254","26.711","2.421428571428572","7.35","3.267","1784.099","0.01","5.92","30.792","4.82158","27.18","0","SATNPRO1963","24.574","0.34418","5"],
    [41100,"HCEP03730564","2024-11-29 10:15:00","11.8399","3.55253","26.723","2.401428571428572","7.35","3.265","1781.898","0","0.94","30.792","4.82158","26.96","0","SATNPRO1963","24.28","0.34008","5"],
    [41101,"HCEP03730564","2024-11-29 10:30:00","11.8401","3.55265","26.755","2.392857142857143","7.35","3.021","2185.558","0","6.09","30.793","4.82172","26.86","0","SATNPRO1963","24.026","0.33648","5"],
    [41102,"HCEP03730564","2024-11-29 10:45:00","11.8401","3.55257","26.792","2.385714285714286","7.35","3.275","1803.716","0","3.16","30.7921","4.8216","26.78","0","SATNPRO1963","24.036","0.33668","5"],
    [41103,"HCEP03730564","2024-11-29 11:00:00","11.84","3.55242","26.84","2.414285714285714","7.35","3.273","1800.717","0","0","30.7908","4.82142","27.1","0","SATNPRO1963","24.626","0.34494","5"],
    [41104,"HCEP03730564","2024-11-29 11:15:00","11.8399","3.55252","26.899","2.442857142857143","7.35","3.027","2142.492","0","3.3","30.7918","4.82156","27.42","0","SATNPRO1963","24.342","0.34096","5"],
    [41105,"HCEP03730564","2024-11-29 11:30:00","11.8401","3.55243","26.964","2.42","7.35","3.27","1805.82","0.01","3.6","30.7907","4.82141","27.16","0","SATNPRO1963","24.316","0.34064","5"],
    [41106,"HCEP03730564","2024-11-29 11:45:00","11.8403","3.55224","27.025","2.461428571428572","7.35","3.269","1804.89","0","0.54","30.7887","4.82112","27.63","0","SATNPRO1963","24.868000000000002","0.3483","5"],
    [41107,"HCEP03730564","2024-11-29 12:00:00","11.84","3.55234","27.094","2.498571428571429","7.35","3.075","2183.854","0","4.34","30.79","4.82131","28.05","0","SATNPRO1963","24.3","0.34036","5"],
    [41108,"HCEP03730564","2024-11-29 12:15:00","11.8402","3.55207","27.166","2.471428571428572","7.35","3.297","1821.111","0.01","4.41","30.7871","4.82091","27.75","0","SATNPRO1963","24.486","0.34294","5"],
    [41109,"HCEP03730564","2024-11-29 12:30:00","11.8403","3.55206","27.266","2.504285714285714","7.36","3.296","1818.001","0","1.21","30.7869","4.82089","28.11","0","SATNPRO1963","24.838","0.34794","5"],
    [41110,"HCEP03730564","2024-11-29 12:45:00","11.8403","3.55185","27.342","2.497142857142857","7.35","3.091","2111.283","0","4.76","30.7848","4.8206","28.03","0","SATNPRO1963","24.758","0.34674","5"],
    [41111,"HCEP03730564","2024-11-29 13:00:00","11.8405","3.55195","27.404","2.501428571428571","7.35","3.277","1739.013","0.01","4.94","30.7856","4.82071","28.09","0","SATNPRO1963","24.186","0.3388","5"],
    [41112,"HCEP03730564","2024-11-29 13:15:00","11.8405","3.55177","27.476","2.437142857142857","7.35","3.276","1734.393","0","0.94","30.7839","4.82048","27.35","0","SATNPRO1963","24.418","0.34206","5"],
    [41113,"HCEP03730564","2024-11-29 13:30:00","11.8406","3.55168","27.539","2.411428571428572","7.35","3.057","2113.509","0","3.68","30.7829","4.82033","27.08","0","SATNPRO1963","24.326","0.3407","5"],
    [41114,"HCEP03730564","2024-11-29 13:45:00","11.8405","3.55144","27.587","2.352857142857143","7.35","3.306","1754.045","0.01","4.2","30.7807","4.82002","26.41","0","SATNPRO1963","24.156","0.33832","5"],
    [41115,"HCEP03730564","2024-11-29 14:00:00","11.8406","3.55139","27.625","2.315714285714286","7.35","3.304","1749.221","0","0.77","30.7801","4.81994","26","0","SATNPRO1963","24.14","0.33812","5"],
    [41116,"HCEP03730564","2024-11-29 14:15:00","11.841","3.55131","27.667","2.302857142857143","7.34","3.057","2116.299","0","7.07","30.779","4.81979","25.86","0","SATNPRO1963","24.242","0.33954","5"],
    [41117,"HCEP03730564","2024-11-29 14:30:00","11.8409","3.55137","27.708","2.32","7.35","3.262","1704.942","0.01","7.22","30.7796","4.81988","26.04","0","SATNPRO1963","24.512","0.34332","5"],
    [41118,"HCEP03730564","2024-11-29 14:45:00","11.841","3.55149","27.696","2.335714285714286","7.35","3.262","1701.999","0.01","0.54","30.7806","4.82002","26.22","0","SATNPRO1963","24.116","0.33778","5"],
    [41119,"HCEP03730564","2024-11-29 15:00:00","11.8412","3.55161","27.675","2.332857142857143","7.34","3.035","2140.419","0.01","4.57","30.7817","4.82016","26.18","0","SATNPRO1963","24.506","0.34328","5"],
    [41120,"HCEP03730564","2024-11-29 15:15:00","11.8408","3.55159","27.672","2.347142857142857","7.34","3.247","1734.455","0.01","3.3","30.7819","4.82019","26.35","0","SATNPRO1963","24.416","0.342","5"],
    [41121,"HCEP03730564","2024-11-29 15:30:00","11.8408","3.55153","27.632","2.345714285714286","7.34","3.241","1730.418","0","0","30.7812","4.8201","26.34","0","SATNPRO1963","24.394000000000002","0.34164","5"],
    [41122,"HCEP03730564","2024-11-29 15:45:00","11.8407","3.55148","27.572","2.335714285714286","7.34","2.995","2201.692","0","4.6","30.7809","4.82006","26.22","0","SATNPRO1963","24.078","0.33724","5"],
    [41123,"HCEP03730564","2024-11-29 16:00:00","11.8408","3.55138","27.503","2.327142857142857","7.34","3.244","1755.399","0.01","3.47","30.7798","4.8199","26.13","0","SATNPRO1963","24.242","0.3396","5"],
    [41124,"HCEP03730564","2024-11-29 16:15:00","11.8408","3.55102","27.448","2.308571428571429","7.34","3.242","1751.425","0","1.21","30.7765","4.81942","25.92","0","SATNPRO1963","24.112","0.33774","5"],
    [41125,"HCEP03730564","2024-11-29 16:30:00","11.8404","3.55109","27.356","2.282857142857143","7.34","3.043","2096.302","0","5.74","30.7774","4.81955","25.63","0","SATNPRO1963","24.002","0.33618","5"],
    [41126,"HCEP03730564","2024-11-29 16:45:00","11.8402","3.55129","27.253","2.3","7.34","3.273","1679.633","0.01","3.07","30.7796","4.81986","25.81","0","SATNPRO1963","24.136","0.33806","5"],
    [41127,"HCEP03730564","2024-11-29 17:00:00","11.84","3.55129","27.143","2.337142857142857","7.34","3.271","1675.447","0","0.77","30.7798","4.81988","26.24","0","SATNPRO1963","24.078","0.33728","5"],
    [41128,"HCEP03730564","2024-11-29 17:15:00","11.8403","3.55129","26.94","2.324285714285714","7.34","3.01","2061.647","0","4.88","30.7796","4.81984","26.1","0","SATNPRO1963","23.838","0.33386","5"],
    [41129,"HCEP03730564","2024-11-29 17:30:00","11.8401","3.55136","26.741","2.33","7.34","3.241","1686.283","0.01","4.34","30.7805","4.81996","26.15","0","SATNPRO1963","24.136","0.33804","5"],
    [41130,"HCEP03730564","2024-11-29 17:45:00","11.8397","3.55159","26.549","2.357142857142857","7.35","3.239","1684.688","0","1.08","30.7831","4.82032","26.46","0","SATNPRO1963","24.446","0.34238","5"],
    [41131,"HCEP03730564","2024-11-29 18:00:00","11.8395","3.5518","26.316","2.45","7.34","2.973","2093.532","0","6.42","30.7854","4.82064","27.5","0","SATNPRO1963","24.726","0.34636","5"],
    [41132,"HCEP03730564","2024-11-29 18:15:00","11.8394","3.55191","26.027","2.522857142857143","7.35","3.244","1648.167","0.01","7.97","30.7867","4.82081","28.33","0","SATNPRO1963","24.96","0.3496","5"],
    [41133,"HCEP03730564","2024-11-29 18:30:00","11.8382","3.55241","25.797","2.62","7.35","3.244","1647.981","0","0.94","30.7926","4.82164","29.41","0","SATNPRO1963","25.16","0.35238","5"],
    [41134,"HCEP03730564","2024-11-29 18:45:00","11.8373","3.55225","25.594","2.752857142857143","7.36","3.085","2043.977","0.01","5.26","30.7918","4.82153","30.9","0","SATNPRO1963","25.23","0.35338","5"],
    [41135,"HCEP03730564","2024-11-29 19:00:00","11.8378","3.55245","25.417","2.755714285714286","7.36","3.207","1664.775","0.01","5.82","30.7934","4.82174","30.94","0","SATNPRO1963","25.156","0.35232","5"],
    [41136,"HCEP03730564","2024-11-29 19:15:00","11.8376","3.55241","25.23","2.717142857142857","7.36","3.208","1660.958","0","1.33","30.7933","4.82172","30.51","0","SATNPRO1963","25.106","0.35166","5"],
    [41137,"HCEP03730564","2024-11-29 19:30:00","11.8375","3.55253","25.042","2.692857142857143","7.36","3.036","2005.011","0","4.44","30.7946","4.82189","30.23","0","SATNPRO1963","25.014","0.35034","5"],
    [41138,"HCEP03730564","2024-11-29 19:45:00","11.8378","3.55257","24.845","2.672857142857143","7.35","3.267","1716.162","0.01","3.02","30.7949","4.82192","30.01","0","SATNPRO1963","24.922","0.34908","5"],
    [41139,"HCEP03730564","2024-11-29 20:00:00","11.838","3.5525","24.66","2.654285714285714","7.36","3.266","1714.326","0.01","1.21","30.7941","4.82179","29.8","0","SATNPRO1963","24.898","0.34876","5"],
    [41140,"HCEP03730564","2024-11-29 20:15:00","11.8384","3.55235","24.493","2.628571428571429","7.36","2.997","2149.082","0.01","7.09","30.7923","4.82152","29.5","0","SATNPRO1963","24.916","0.34898","5"],
    [41141,"HCEP03730564","2024-11-29 20:30:00","11.8389","3.5517","24.349","2.584285714285714","7.35","3.255","1765.71","0.01","4.24","30.7858","4.82059","29.01","0","SATNPRO1963","24.556","0.34394","5"],
    [41142,"HCEP03730564","2024-11-29 20:45:00","11.8395","3.55144","24.258","2.544285714285714","7.35","3.255","1764.012","0","1.08","30.7828","4.82015","28.56","0","SATNPRO1963","24.502","0.3432","5"],
    [41143,"HCEP03730564","2024-11-29 21:00:00","11.8401","3.55105","24.209","2.524285714285714","7.35","3.051","2124.834","0","5.45","30.7785","4.81954","28.34","0","SATNPRO1963","24.71","0.34612","5"],
    [41144,"HCEP03730564","2024-11-29 21:15:00","11.8401","3.55113","24.188","2.504285714285714","7.34","3.257","1765.52","0","8.33","30.7793","4.81965","28.11","0","SATNPRO1963","24.444","0.34238","5"],
    [41145,"HCEP03730564","2024-11-29 21:30:00","11.8405","3.55116","24.2","2.438571428571429","7.34","3.255","1762.165","0","0.54","30.7793","4.81965","27.38","0","SATNPRO1963","24.448","0.34242","5"],
    [41146,"HCEP03730564","2024-11-29 21:45:00","11.8403","3.55083","24.207","2.352857142857143","7.33","3.031","2265.258","0","6.28","30.7762","4.81921","26.41","0","SATNPRO1963","24.355999999999998","0.3412","5"],
    [41147,"HCEP03730564","2024-11-29 22:00:00","11.8405","3.55042","24.23","2.264285714285714","7.33","3.262","1863.775","0.01","6.11","30.7722","4.81864","25.42","0","SATNPRO1963","24.182","0.3387","5"],
    [41148,"HCEP03730564","2024-11-29 22:15:00","11.8406","3.54997","24.27","2.212857142857143","7.32","3.262","1863.297","0","0.77","30.7677","4.81801","24.83","0","SATNPRO1963","23.934","0.33526","5"],
    [41149,"HCEP03730564","2024-11-29 22:30:00","11.841","3.54919","24.335","2.174285714285714","7.32","3.055","2288.31","0","4.47","30.7599","4.81691","24.4","0","SATNPRO1963","23.966","0.3357","5"],
    [41150,"HCEP03730564","2024-11-29 22:45:00","11.8412","3.54902","24.441","2.15","7.31","3.262","1918.228","0","3.68","30.7581","4.81666","24.13","0","SATNPRO1963","24.078","0.33724","5"],
    [41151,"HCEP03730564","2024-11-29 23:00:00","11.841","3.54896","24.558","2.104285714285714","7.31","3.261","1912.902","0.01","1.33","30.7575","4.81658","23.62","0","SATNPRO1963","23.922","0.33504","5"],
    [41152,"HCEP03730564","2024-11-29 23:15:00","11.8414","3.54879","24.68","2.065714285714286","7.3","3.082","2294.2","0","5.15","30.7555","4.8163","23.19","0","SATNPRO1963","23.846","0.334","5"],
    [41153,"HCEP03730564","2024-11-29 23:30:00","11.8416","3.54856","24.843","2.037142857142857","7.3","3.291","1957.29","0","3.02","30.7531","4.81597","22.87","0","SATNPRO1963","23.734","0.33244","5"],
    [41154,"HCEP03730564","2024-11-29 23:45:00","11.8419","3.54808","25.009","2.017142857142857","7.31","3.292","1952.794","0","1.88","30.7482","4.81527","22.64","0","SATNPRO1963","23.919999999999998","0.33504","5"],
    [41155,"HCEP03730564","2024-11-30 00:00:00","11.8416","3.54772","25.179","2.015714285714286","7.3","3.207","2266.243","0","8.71","30.7449","4.81482","22.62","0","SATNPRO1963","23.754","0.3327","5"],
    [41156,"HCEP03730564","2024-11-30 00:15:00","11.8416","3.54737","25.363","2.031428571428572","7.3","3.319","2051.256","0.01","4.02","30.7414","4.81435","22.8","0","SATNPRO1963","23.724","0.33232","5"],
    [41157,"HCEP03730564","2024-11-30 00:30:00","11.8415","3.5472","25.526","2.027142857142857","7.3","3.317","2042.615","0","0","30.7399","4.81414","22.75","0","SATNPRO1963","23.822","0.33364","5"],
    [41158,"HCEP03730564","2024-11-30 00:45:00","11.8414","3.54701","25.7","2.007142857142857","7.3","3.182","2320.876","0","6.55","30.7381","4.81389","22.53","0","SATNPRO1963","23.740000000000002","0.33252","5"],
    [41159,"HCEP03730564","2024-11-30 01:00:00","11.8413","3.54678","25.886","1.984285714285714","7.3","3.306","2061.933","0","6.67","30.7359","4.8136","22.28","0","SATNPRO1963","23.492","0.32904","5"],
    [41160,"HCEP03730564","2024-11-30 01:15:00","11.8414","3.54664","26.093","1.967142857142857","7.3","3.308","2058.716","0.01","1.08","30.7343","4.81338","22.07","0","SATNPRO1963","23.598","0.33048","5"],
    [41161,"HCEP03730564","2024-11-30 01:30:00","11.8415","3.54646","26.28","1.952857142857143","7.29","3.136","2338.917","0.01","6.42","30.7325","4.81314","21.92","0","SATNPRO1963","23.624","0.3309","5"],
    [41162,"HCEP03730564","2024-11-30 01:45:00","11.8414","3.54616","26.494","1.958571428571429","7.29","3.304","2117.174","0.01","4.82","30.7295","4.81274","21.97","0","SATNPRO1963","23.782","0.33308","5"],
    [41163,"HCEP03730564","2024-11-30 02:00:00","11.8411","3.54587","26.688","1.96","7.29","3.304","2110.892","0.01","1.63","30.7269","4.81238","21.99","0","SATNPRO1963","23.714","0.33212","5"],
    [41164,"HCEP03730564","2024-11-30 02:15:00","11.8415","3.54555","26.881","1.96","7.29","3.154","2414.367","0","4.97","30.7234","4.81189","21.99","0","SATNPRO1963","23.732","0.33242","5"],
    [41165,"HCEP03730564","2024-11-30 02:30:00","11.8413","3.54538","27.077","1.954285714285714","7.29","3.297","2179.029","0","4.13","30.7219","4.8117","21.93","0","SATNPRO1963","23.612","0.33074","5"],
    [41166,"HCEP03730564","2024-11-30 02:45:00","11.8414","3.5453","27.239","1.945714285714286","7.29","3.298","2172.101","0","0","30.7209","4.81156","21.83","0","SATNPRO1963","23.928","0.33514","5"],
    [41167,"HCEP03730564","2024-11-30 03:00:00","11.8414","3.54522","27.385","1.935714285714286","7.29","3.164","2330.98","0.01","10.06","30.7201","4.81146","21.73","0","SATNPRO1963","23.598","0.33058","5"],
    [41168,"HCEP03730564","2024-11-30 03:15:00","11.8413","3.54512","27.518","1.934285714285714","7.29","3.283","2015.273","0.01","4.27","30.7192","4.81134","21.7","0","SATNPRO1963","23.866","0.33432","5"],
    [41169,"HCEP03730564","2024-11-30 03:30:00","11.8412","3.54516","27.637","1.938571428571429","7.29","3.282","2009.061","0","0","30.7196","4.81141","21.75","0","SATNPRO1963","23.928","0.33518","5"],
    [41170,"HCEP03730564","2024-11-30 03:45:00","11.8413","3.54528","27.777","1.934285714285714","7.29","3.094","2299.817","0.01","6.23","30.7206","4.81155","21.7","0","SATNPRO1963","23.626","0.33098","5"],
    [41171,"HCEP03730564","2024-11-30 04:00:00","11.8413","3.54532","27.875","1.931428571428572","7.29","3.261","1927.844","0.01","6.86","30.721","4.81161","21.68","0","SATNPRO1963","23.652","0.3313","5"],
    [41172,"HCEP03730564","2024-11-30 04:15:00","11.8416","3.54535","27.952","1.932857142857143","7.29","3.261","1921.155","0","0.54","30.7211","4.81162","21.69","0","SATNPRO1963","23.512","0.32932","5"],
    [41173,"HCEP03730564","2024-11-30 04:30:00","11.8411","3.54546","27.93","1.928571428571429","7.29","3.057","2218.139","0.01","6.51","30.7225","4.81183","21.64","0","SATNPRO1963","23.374","0.32742","5"],
    [41174,"HCEP03730564","2024-11-30 04:45:00","11.8412","3.54555","27.781","1.94","7.29","3.264","1916.168","0","6.11","30.7234","4.81194","21.76","0","SATNPRO1963","23.694","0.33188","5"],
    [41175,"HCEP03730564","2024-11-30 05:00:00","11.8412","3.5456","27.827","1.962857142857143","7.29","3.265","1910.395","0.01","1.08","30.7237","4.812","22.03","0","SATNPRO1963","23.914","0.33496","5"],
    [41176,"HCEP03730564","2024-11-30 05:15:00","11.8412","3.54574","27.845","1.978571428571429","7.29","3.09","2263.836","0.01","3.6","30.7251","4.81219","22.2","0","SATNPRO1963","23.808","0.33344","5"],
    [41177,"HCEP03730564","2024-11-30 05:30:00","11.8412","3.54604","27.882","2.004285714285714","7.29","3.277","1959.427","0","3.91","30.728","4.8126","22.49","0","SATNPRO1963","24.1","0.33756","5"],
    [41178,"HCEP03730564","2024-11-30 05:45:00","11.8413","3.54604","27.863","2.014285714285714","7.29","3.278","1951.76","0","1.21","30.728","4.81259","22.61","0","SATNPRO1963","24.062","0.33704","5"],
    [41179,"HCEP03730564","2024-11-30 06:00:00","11.8412","3.54608","27.861","2.012857142857143","7.29","3.07","2277.63","0","5.74","30.7284","4.81265","22.59","0","SATNPRO1963","23.992","0.33604","5"],
    [41180,"HCEP03730564","2024-11-30 06:15:00","11.8412","3.54616","27.851","2","7.29","3.28","2000.31","0.01","5.31","30.7291","4.81275","22.44","0","SATNPRO1963","23.712","0.33214","5"],
    [41181,"HCEP03730564","2024-11-30 06:30:00","11.8411","3.54637","27.813","1.987142857142857","7.29","3.279","1993.845","0","0.77","30.7313","4.81306","22.31","0","SATNPRO1963","23.964","0.33564","5"],
    [41182,"HCEP03730564","2024-11-30 06:45:00","11.8409","3.54691","27.766","1.972857142857143","7.29","3.087","2303.579","0.01","3.91","30.7367","4.81382","22.14","0","SATNPRO1963","23.616","0.33078","5"],
    [41183,"HCEP03730564","2024-11-30 07:00:00","11.8408","3.54731","27.704","1.97","7.29","3.249","2002.669","0","5.15","30.7407","4.81438","22.11","0","SATNPRO1963","23.758","0.33278","5"],
    [41184,"HCEP03730564","2024-11-30 07:15:00","11.8408","3.54801","27.658","1.968571428571428","7.29","3.249","1996.657","0","0.77","30.7474","4.81533","22.09","0","SATNPRO1963","23.544","0.32976","5"],
    [41185,"HCEP03730564","2024-11-30 07:30:00","11.8401","3.54903","27.587","2.034285714285714","7.3","3.08","2297.203","0.01","7.07","30.7578","4.8168","22.83","0","SATNPRO1963","23.85","0.33408","5"],
    [41186,"HCEP03730564","2024-11-30 07:45:00","11.8399","3.54943","27.507","2.142857142857143","7.3","3.257","2000.896","0.01","10.93","30.7619","4.81737","24.05","0","SATNPRO1963","23.928","0.3352","5"],
    [41187,"HCEP03730564","2024-11-30 08:00:00","11.84","3.54964","27.437","2.221428571428572","7.3","3.259","1994.302","0","1.33","30.7638","4.81764","24.93","0","SATNPRO1963","24","0.33616","5"],
    [41188,"HCEP03730564","2024-11-30 08:15:00","11.8398","3.5496","27.36","2.248571428571429","7.3","3.134","2189.89","0","5.03","30.7636","4.81761","25.24","0","SATNPRO1963","24.258","0.3398","5"],
    [41189,"HCEP03730564","2024-11-30 08:30:00","11.8405","3.54975","27.284","2.258571428571428","7.3","3.246","1958.475","0.01","6.23","30.7646","4.81774","25.35","0","SATNPRO1963","24.366","0.34128","5"],
    [41190,"HCEP03730564","2024-11-30 08:45:00","11.84","3.5497","27.222","2.307142857142857","7.31","3.245","1951.017","0","1.8","30.7645","4.81772","25.9","0","SATNPRO1963","24.44","0.34232","5"],
    [41191,"HCEP03730564","2024-11-30 09:00:00","11.8393","3.54975","27.145","2.4","7.31","3.068","2320.928","0","5.2","30.7656","4.81788","26.95","0","SATNPRO1963","24.714000000000002","0.34612","5"],
    [41192,"HCEP03730564","2024-11-30 09:15:00","11.8388","3.54979","27.07","2.462857142857143","7.31","3.255","2001.063","0","4.73","30.7664","4.818","27.64","0","SATNPRO1963","24.718","0.34622","5"],
    [41193,"HCEP03730564","2024-11-30 09:30:00","11.8379","3.54948","27","2.431428571428572","7.32","3.257","1993.273","0","0.94","30.7642","4.81771","27.29","0","SATNPRO1963","24.21","0.33912","5"],
    [41194,"HCEP03730564","2024-11-30 09:45:00","11.8364","3.54926","26.942","2.255714285714286","7.31","3.105","2348.178","0","4.67","30.7633","4.8176","25.33","0","SATNPRO1963","23.944","0.33538","5"],
    [41195,"HCEP03730564","2024-11-30 10:00:00","11.8361","3.54935","26.89","2.197142857142857","7.3","3.243","2090.759","0.01","3.8","30.7645","4.81777","24.67","0","SATNPRO1963","23.823999999999998","0.33366","5"],
    [41196,"HCEP03730564","2024-11-30 10:15:00","11.8365","3.54947","26.85","2.234285714285714","7.3","3.241","2082.915","0","0.77","30.7652","4.81786","25.07","0","SATNPRO1963","24.124","0.3379","5"],
    [41197,"HCEP03730564","2024-11-30 10:30:00","11.8368","3.54955","26.823","2.264285714285714","7.3","3.103","2302.345","0","7.2","30.7659","4.81795","25.41","0","SATNPRO1963","24.348","0.341","5"],
    [41198,"HCEP03730564","2024-11-30 10:45:00","11.8368","3.54961","26.819","2.287142857142857","7.3","3.26","1936.985","0.01","6.46","30.7664","4.81802","25.68","0","SATNPRO1963","24.23","0.3394","5"],
    [41199,"HCEP03730564","2024-11-30 11:00:00","11.8372","3.54967","26.846","2.315714285714286","7.31","3.26","1928.143","0","1.08","30.7667","4.81806","26","0","SATNPRO1963","24.388","0.34158","5"],
    [41200,"HCEP03730564","2024-11-30 11:15:00","11.8373","3.5497","26.893","2.325714285714286","7.3","3.082","2239.819","0","5.99","30.7669","4.81808","26.1","0","SATNPRO1963","24.388","0.34158","5"],
    [41201,"HCEP03730564","2024-11-30 11:30:00","11.8376","3.54974","26.948","2.325714285714286","7.3","3.234","1813.674","0.01","4.1","30.7669","4.81808","26.11","0","SATNPRO1963","24.490000000000002","0.34298","5"],
    [41202,"HCEP03730564","2024-11-30 11:45:00","11.8375","3.54975","27.001","2.32","7.31","3.233","1808.48","0","1.63","30.7671","4.81812","26.03","0","SATNPRO1963","24.322","0.34066","5"],
    [41203,"HCEP03730564","2024-11-30 12:00:00","11.8373","3.54978","27.047","2.327142857142857","7.31","2.99","2173.22","0","6.88","30.7675","4.81818","26.12","0","SATNPRO1963","24.286","0.3402","5"],
    [41204,"HCEP03730564","2024-11-30 12:15:00","11.8376","3.54981","27.11","2.331428571428571","7.31","3.205","1784.866","0.01","4.79","30.7676","4.81819","26.16","0","SATNPRO1963","24.462","0.34262","5"],
    [41205,"HCEP03730564","2024-11-30 12:30:00","11.8373","3.54984","27.177","2.324285714285714","7.31","3.203","1779.365","0","0","30.768","4.81826","26.09","0","SATNPRO1963","24.332","0.34082","5"],
    [41206,"HCEP03730564","2024-11-30 12:45:00","11.8373","3.54991","27.236","2.305714285714286","7.31","2.952","2121.274","0","10.25","30.7687","4.81836","25.88","0","SATNPRO1963","24.232","0.33942","5"],
    [41207,"HCEP03730564","2024-11-30 13:00:00","11.8374","3.54992","27.297","2.298571428571428","7.31","3.19","1731.19","0.01","4.1","30.7688","4.81837","25.81","0","SATNPRO1963","24.278","0.34006","5"],
    [41208,"HCEP03730564","2024-11-30 13:15:00","11.8374","3.54999","27.356","2.295714285714286","7.31","3.189","1727.428","0","1.33","30.7693","4.81845","25.76","0","SATNPRO1963","24.1","0.33758","5"],
    [41209,"HCEP03730564","2024-11-30 13:30:00","11.8375","3.55002","27.41","2.294285714285714","7.31","2.957","2062.949","0","6.78","30.7696","4.81849","25.75","0","SATNPRO1963","24.12","0.33786","5"],
    [41210,"HCEP03730564","2024-11-30 13:45:00","11.8373","3.55003","27.46","2.292857142857143","7.31","3.211","1711.669","0.01","3.16","30.7698","4.81853","25.73","0","SATNPRO1963","24.098","0.33752","5"],
    [41211,"HCEP03730564","2024-11-30 14:00:00","11.8378","3.55014","27.494","2.307142857142857","7.32","3.209","1707.392","0","0","30.7704","4.81861","25.89","0","SATNPRO1963","24.2","0.33894","5"],
    [41212,"HCEP03730564","2024-11-30 14:15:00","11.8377","3.55023","27.555","2.344285714285714","7.31","3.004","2049.498","0","5.23","30.7714","4.81875","26.31","0","SATNPRO1963","24.502","0.34322","5"],
    [41213,"HCEP03730564","2024-11-30 14:30:00","11.838","3.5504","27.608","2.384285714285714","7.32","3.222","1657.494","0.01","4.27","30.7727","4.81893","26.77","0","SATNPRO1963","24.488","0.34298","5"],
    [41214,"HCEP03730564","2024-11-30 14:45:00","11.8379","3.55045","27.637","2.431428571428572","7.32","3.221","1655.074","0","1.21","30.7733","4.81902","27.29","0","SATNPRO1963","24.712","0.3461","5"],
    [41215,"HCEP03730564","2024-11-30 15:00:00","11.8381","3.55043","27.644","2.435714285714286","7.32","2.993","2047.392","0","5.82","30.7729","4.81896","27.34","0","SATNPRO1963","24.508","0.34328","5"],
    [41216,"HCEP03730564","2024-11-30 15:15:00","11.8384","3.5505","27.664","2.428571428571428","7.32","3.195","1666.516","0.01","3.8","30.7733","4.81902","27.27","0","SATNPRO1963","24.578","0.34428","5"],
    [41217,"HCEP03730564","2024-11-30 15:30:00","11.8382","3.55052","27.663","2.438571428571429","7.32","3.196","1662.686","0","1.63","30.7737","4.81907","27.37","0","SATNPRO1963","24.918","0.34902","5"],
    [41218,"HCEP03730564","2024-11-30 15:45:00","11.8384","3.55054","27.647","2.447142857142858","7.32","2.942","2005.423","0","5.89","30.7737","4.81907","27.47","0","SATNPRO1963","24.658","0.34536","5"],
    [41219,"HCEP03730564","2024-11-30 16:00:00","11.8386","3.55062","27.613","2.46","7.32","3.205","1645.557","0.01","2.77","30.7744","4.81916","27.62","0","SATNPRO1963","24.876","0.34842","5"],
    [41220,"HCEP03730564","2024-11-30 16:15:00","11.8384","3.5506","27.565","2.474285714285714","7.32","3.205","1643.501","0","1.33","30.7743","4.81916","27.78","0","SATNPRO1963","25.182","0.3527","5"],
    [41221,"HCEP03730564","2024-11-30 16:30:00","11.8382","3.55059","27.505","2.48","7.32","2.97","1979.706","0","5.87","30.7744","4.81916","27.84","0","SATNPRO1963","24.948","0.3494","5"],
    [41222,"HCEP03730564","2024-11-30 16:45:00","11.8384","3.5506","27.44","2.475714285714286","7.32","3.195","1618.474","0.01","4.54","30.7744","4.81916","27.8","0","SATNPRO1963","25.002","0.3502","5"],
    [41223,"HCEP03730564","2024-11-30 17:00:00","11.8381","3.55051","27.34","2.481428571428572","7.32","3.192","1613.92","0","0","30.7738","4.81907","27.86","0","SATNPRO1963","24.872","0.34836","5"],
    [41224,"HCEP03730564","2024-11-30 17:15:00","11.8382","3.55034","27.204","2.452857142857143","7.33","2.945","1989.426","0","7.63","30.7721","4.81883","27.53","0","SATNPRO1963","24.82","0.34764","5"],
    [41225,"HCEP03730564","2024-11-30 17:30:00","11.8378","3.55026","27.071","2.447142857142858","7.34","3.188","1632.506","0.01","5.89","30.7718","4.81878","27.46","0","SATNPRO1963","24.708","0.34606","5"],
    [41226,"HCEP03730564","2024-11-30 17:45:00","11.8372","3.55039","26.925","2.458571428571429","7.34","3.187","1626.921","0","0.94","30.7736","4.81904","27.6","0","SATNPRO1963","24.93","0.3492","5"],
    [41227,"HCEP03730564","2024-11-30 18:00:00","11.8374","3.55016","26.768","2.464285714285714","7.34","2.944","2000.818","0","5.4","30.7713","4.8187","27.66","0","SATNPRO1963","24.544","0.34376","5"],
    [41228,"HCEP03730564","2024-11-30 18:15:00","11.8375","3.55","26.594","2.418571428571429","7.34","3.169","1611.589","0.01","6.44","30.7697","4.81846","27.15","0","SATNPRO1963","24.502","0.34322","5"],
    [41229,"HCEP03730564","2024-11-30 18:30:00","11.8377","3.54977","26.4","2.355714285714286","7.34","3.167","1609.406","0","0.94","30.7673","4.81812","26.44","0","SATNPRO1963","24.264","0.33986","5"],
    [41230,"HCEP03730564","2024-11-30 18:45:00","11.8376","3.54968","26.204","2.331428571428571","7.33","2.906","2024.705","0","3.21","30.7667","4.81801","26.16","0","SATNPRO1963","24.494","0.34306","5"],
    [41231,"HCEP03730564","2024-11-30 19:00:00","11.8374","3.54952","26.005","2.307142857142857","7.32","3.175","1673.669","0.01","3.76","30.7653","4.81782","25.9","0","SATNPRO1963","24.416","0.34198","5"],
    [41232,"HCEP03730564","2024-11-30 19:15:00","11.8372","3.54937","25.786","2.274285714285714","7.32","3.173","1672.436","0","1.08","30.7642","4.81765","25.53","0","SATNPRO1963","24.194","0.3389","5"],
    [41233,"HCEP03730564","2024-11-30 19:30:00","11.8373","3.54927","25.548","2.241428571428572","7.32","2.96","2094.436","0","4.63","30.7633","4.8175","25.16","0","SATNPRO1963","24.104","0.33758","5"],
    [41234,"HCEP03730564","2024-11-30 19:45:00","11.8378","3.54938","25.316","2.244285714285714","7.31","3.211","1710.529","0","2.92","30.764","4.81758","25.2","0","SATNPRO1963","24.454","0.34252","5"],
    [41235,"HCEP03730564","2024-11-30 20:00:00","11.8361","3.54923","25.096","2.327142857142857","7.32","3.208","1707.497","0","0","30.7641","4.8176","26.11","0","SATNPRO1963","24.576","0.34426","5"],
    [41236,"HCEP03730564","2024-11-30 20:15:00","11.8347","3.54913","24.886","2.494285714285714","7.32","2.96","2109.647","0","5.17","30.7642","4.81764","27.99","0","SATNPRO1963","24.864","0.34828","5"],
    [41237,"HCEP03730564","2024-11-30 20:30:00","11.834","3.54907","24.692","2.637142857142858","7.33","3.204","1735.438","0.01","2.92","30.7643","4.81765","29.59","0","SATNPRO1963","25.044","0.35078","5"],
    [41238,"HCEP03730564","2024-11-30 20:45:00","11.8342","3.54887","24.511","2.678571428571429","7.34","3.202","1731.687","0","0.77","30.7623","4.81736","30.06","0","SATNPRO1963","24.986","0.34994","5"],
    [41239,"HCEP03730564","2024-11-30 21:00:00","11.8347","3.54828","24.356","2.642857142857143","7.33","2.976","2108.247","0","3.84","30.7563","4.81649","29.66","0","SATNPRO1963","24.913999999999998","0.34898","5"],
    [41240,"HCEP03730564","2024-11-30 21:15:00","11.8354","3.54757","24.23","2.557142857142857","7.33","3.2","1712.765","0","2.92","30.749","4.81544","28.69","0","SATNPRO1963","24.804","0.34744","5"],
    [41241,"HCEP03730564","2024-11-30 21:30:00","11.8353","3.54701","24.146","2.49","7.33","3.199","1709.207","0","0.54","30.7437","4.81469","27.94","0","SATNPRO1963","24.786","0.3472","5"],
    [41242,"HCEP03730564","2024-11-30 21:45:00","11.8357","3.54666","24.088","2.455714285714286","7.33","2.98","2063.178","0","3.99","30.74","4.81416","27.56","0","SATNPRO1963","24.754","0.34672","5"],
    [41243,"HCEP03730564","2024-11-30 22:00:00","11.8356","3.54687","24.064","2.46","7.32","3.202","1712.811","0.01","3.12","30.7421","4.81445","27.61","0","SATNPRO1963","24.792","0.34728","5"],
    [41244,"HCEP03730564","2024-11-30 22:15:00","11.8354","3.54702","24.06","2.452857142857143","7.33","3.2","1709.852","0","0","30.7437","4.81468","27.53","0","SATNPRO1963","24.862","0.34826","5"],
    [41245,"HCEP03730564","2024-11-30 22:30:00","11.8353","3.54709","24.063","2.467142857142858","7.32","2.972","2130.339","0","5.15","30.7445","4.8148","27.69","0","SATNPRO1963","24.846","0.34796","5"],
    [41246,"HCEP03730564","2024-11-30 22:45:00","11.8354","3.5473","24.124","2.491428571428572","7.32","3.228","1778.661","0.01","3.76","30.7465","4.81508","27.97","0","SATNPRO1963","24.786","0.34716","5"],
    [41247,"HCEP03730564","2024-11-30 23:00:00","11.8354","3.54729","24.232","2.524285714285714","7.33","3.226","1774.122","0.01","1.08","30.7462","4.81505","28.33","0","SATNPRO1963","24.662","0.34544","5"],
    [41248,"HCEP03730564","2024-11-30 23:15:00","11.8355","3.54717","24.344","2.532857142857143","7.33","3.043","2173.388","0","4.37","30.745","4.81488","28.43","0","SATNPRO1963","24.61","0.34472","5"],
    [41249,"HCEP03730564","2024-11-30 23:30:00","11.8356","3.54697","24.445","2.522857142857143","7.33","3.232","1883.811","0","2.87","30.7429","4.8146","28.32","0","SATNPRO1963","24.796","0.3473","5"],
    [41250,"HCEP03730564","2024-11-30 23:45:00","11.8357","3.54692","24.554","2.488571428571428","7.33","3.233","1883.984","0","0.94","30.7422","4.8145","27.93","0","SATNPRO1963","24.672","0.34554","5"],
    [41251,"HCEP03730564","2024-12-01 00:00:00","11.8362","3.54692","24.707","2.412857142857143","7.32","3.067","2237.866","0","4.6","30.7418","4.81444","27.07","0","SATNPRO1963","24.548","0.34384","5"],
    [41252,"HCEP03730564","2024-12-01 00:15:00","11.8369","3.54682","24.885","2.328571428571428","7.32","3.226","1913.08","0.01","4.47","30.7402","4.81421","26.13","0","SATNPRO1963","24.53","0.3436","5"],
    [41253,"HCEP03730564","2024-12-01 00:30:00","11.8371","3.54668","25.048","2.252857142857143","7.31","3.229","1907.284","0","0","30.7387","4.81401","25.28","0","SATNPRO1963","24.182","0.33872","5"],
    [41254,"HCEP03730564","2024-12-01 00:45:00","11.837","3.54651","25.209","2.205714285714286","7.31","3.053","2235.847","0","4.34","30.737","4.81379","24.75","0","SATNPRO1963","24.34","0.34096","5"],
    [41255,"HCEP03730564","2024-12-01 01:00:00","11.8369","3.54616","25.327","2.207142857142857","7.31","3.214","1913.975","0.01","4.02","30.7337","4.81333","24.77","0","SATNPRO1963","24.278","0.34006","5"],
    [41256,"HCEP03730564","2024-12-01 01:15:00","11.8373","3.54582","25.518","2.224285714285714","7.31","3.215","1910.954","0","1.08","30.7301","4.81282","24.97","0","SATNPRO1963","24.422","0.34204","5"],
    [41257,"HCEP03730564","2024-12-01 01:30:00","11.8372","3.5456","25.72","2.19","7.31","3.039","2229.171","0","5.09","30.7279","4.81252","24.57","0","SATNPRO1963","24.238","0.3395","5"],
    [41258,"HCEP03730564","2024-12-01 01:45:00","11.8372","3.54527","25.944","2.142857142857143","7.3","3.201","1881.183","0.01","4.27","30.7247","4.81208","24.04","0","SATNPRO1963","24.122","0.33786","5"],
    [41259,"HCEP03730564","2024-12-01 02:00:00","11.8369","3.54486","26.185","2.115714285714286","7.3","3.199","1874.888","0","0","30.7209","4.81157","23.74","0","SATNPRO1963","24.178","0.33866","5"],
    [41260,"HCEP03730564","2024-12-01 02:15:00","11.8366","3.54463","26.383","2.092857142857143","7.3","2.976","2192.643","0.01","4.85","30.7188","4.81129","23.48","0","SATNPRO1963","23.983999999999998","0.33596","5"],
    [41261,"HCEP03730564","2024-12-01 02:30:00","11.8365","3.54433","26.59","2.068571428571428","7.3","3.183","1825.278","0.01","3.84","30.716","4.8109","23.2","0","SATNPRO1963","24.032","0.33668","5"],
    [41262,"HCEP03730564","2024-12-01 02:45:00","11.8363","3.54415","26.805","2.04","7.3","3.181","1822.087","0.01","1.21","30.7143","4.81068","22.89","0","SATNPRO1963","24.024","0.3365","5"],
    [41263,"HCEP03730564","2024-12-01 03:00:00","11.8367","3.54412","26.985","2.018571428571429","7.29","2.995","2128.256","0","6.26","30.7135","4.81057","22.65","0","SATNPRO1963","24.264","0.33988","5"],
    [41264,"HCEP03730564","2024-12-01 03:15:00","11.8367","3.54412","27.143","2.008571428571428","7.29","3.201","1732.248","0.01","4.02","30.7135","4.81057","22.54","0","SATNPRO1963","23.992","0.33604","5"],
    [41265,"HCEP03730564","2024-12-01 03:30:00","11.8367","3.54413","27.293","2.011428571428572","7.3","3.198","1724.351","0","0.94","30.7136","4.8106","22.57","0","SATNPRO1963","23.938","0.33526","5"],
    [41266,"HCEP03730564","2024-12-01 03:45:00","11.8365","3.54417","27.431","2.02","7.29","2.958","2067.113","0.01","5.29","30.7141","4.81068","22.66","0","SATNPRO1963","23.9","0.33474","5"],
    [41267,"HCEP03730564","2024-12-01 04:00:00","11.8365","3.54419","27.559","2.032857142857143","7.29","3.182","1679.262","0.01","3.3","30.7142","4.8107","22.81","0","SATNPRO1963","24.166","0.33848","5"],
    [41268,"HCEP03730564","2024-12-01 04:15:00","11.8364","3.54427","27.681","2.051428571428572","7.3","3.178","1676.574","0.01","1.08","30.715","4.81082","23.01","0","SATNPRO1963","24.044","0.33678","5"],
    [41269,"HCEP03730564","2024-12-01 04:30:00","11.8363","3.54455","27.742","2.081428571428571","7.3","2.933","2026.816","0","4.73","30.7178","4.81122","23.36","0","SATNPRO1963","23.944","0.33536","5"],
    [41270,"HCEP03730564","2024-12-01 04:45:00","11.8365","3.54482","27.775","2.118571428571429","7.3","3.194","1624.837","0.01","2.97","30.7202","4.81155","23.77","0","SATNPRO1963","24.188","0.33878","5"],
    [41271,"HCEP03730564","2024-12-01 05:00:00","11.8365","3.54511","27.853","2.185714285714286","7.3","3.191","1620.508","0","0.77","30.7229","4.81195","24.53","0","SATNPRO1963","24.39","0.3416","5"],
    [41272,"HCEP03730564","2024-12-01 05:15:00","11.8363","3.54539","27.874","2.248571428571429","7.3","2.939","2040.829","0","4.94","30.7258","4.81236","25.24","0","SATNPRO1963","24.54","0.34374","5"],
    [41273,"HCEP03730564","2024-12-01 05:30:00","11.836","3.54548","27.91","2.298571428571428","7.31","3.185","1660.576","0.01","3.52","30.7269","4.81252","25.8","0","SATNPRO1963","24.692","0.34586","5"],
    [41274,"HCEP03730564","2024-12-01 05:45:00","11.8356","3.54547","27.966","2.365714285714286","7.31","3.185","1656.282","0.01","0.54","30.7271","4.81256","26.54","0","SATNPRO1963","24.662","0.34542","5"],
    [41275,"HCEP03730564","2024-12-01 06:00:00","11.8348","3.5454","28.018","2.462857142857143","7.32","2.973","2063.227","0","2.77","30.727","4.81256","27.63","0","SATNPRO1963","24.826","0.34774","5"],
    [41276,"HCEP03730564","2024-12-01 06:15:00","11.831","3.54588","28.031","2.605714285714286","7.32","3.191","1740.299","0.01","3.52","30.7349","4.81372","29.23","0","SATNPRO1963","25.002","0.35022","5"],
    [41277,"HCEP03730564","2024-12-01 06:30:00","11.8314","3.54596","28.015","2.724285714285714","7.33","3.195","1739.146","0","1.08","30.7353","4.81377","30.57","0","SATNPRO1963","25.07","0.35116","5"],
    [41278,"HCEP03730564","2024-12-01 06:45:00","11.8328","3.54599","28.001","2.694285714285714","7.33","3.028","2038.278","0","3.43","30.7344","4.81363","30.24","0","SATNPRO1963","24.922","0.34906","5"],
    [41279,"HCEP03730564","2024-12-01 07:00:00","11.8342","3.54597","27.977","2.614285714285714","7.33","3.207","1743.954","0","4.27","30.7331","4.81342","29.33","0","SATNPRO1963","24.676000000000002","0.34564","5"],
    [41280,"HCEP03730564","2024-12-01 07:15:00","11.8347","3.54621","27.935","2.535714285714286","7.33","3.207","1738.692","0","0.94","30.735","4.81368","28.45","0","SATNPRO1963","24.822","0.34768","5"],
    [41281,"HCEP03730564","2024-12-01 07:30:00","11.8348","3.54624","27.884","2.534285714285714","7.33","3.05","2067.029","0","4.97","30.7352","4.81371","28.44","0","SATNPRO1963","25.01","0.35034","5"],
    [41282,"HCEP03730564","2024-12-01 07:45:00","11.8344","3.54631","27.824","2.547142857142857","7.33","3.223","1802.652","0.01","4.6","30.7362","4.81385","28.59","0","SATNPRO1963","25.148","0.35226","5"],
    [41283,"HCEP03730564","2024-12-01 08:00:00","11.8346","3.54636","27.768","2.558571428571429","7.33","3.222","1799.311","0.01","1.44","30.7366","4.8139","28.71","0","SATNPRO1963","24.854","0.34814","5"],
    [41284,"HCEP03730564","2024-12-01 08:15:00","11.8344","3.54643","27.703","2.56","7.33","3.065","2132.033","0","3.99","30.7374","4.81402","28.72","0","SATNPRO1963","25.156","0.35236","5"],
    [41285,"HCEP03730564","2024-12-01 08:30:00","11.8344","3.54653","27.638","2.561428571428571","7.33","3.218","1814.217","0.01","3.52","30.7384","4.81415","28.74","0","SATNPRO1963","25.242","0.35356","5"],
    [41286,"HCEP03730564","2024-12-01 08:45:00","11.8339","3.54685","27.562","2.554285714285714","7.33","3.217","1806.066","0","0.54","30.742","4.81466","28.67","0","SATNPRO1963","25.092","0.35144","5"],
    [41287,"HCEP03730564","2024-12-01 09:00:00","11.834","3.54675","27.483","2.56","7.33","3.111","2039.454","0","4.85","30.7409","4.8145","28.73","0","SATNPRO1963","25.398","0.35572","5"],
    [41288,"HCEP03730564","2024-12-01 09:15:00","11.834","3.54696","27.408","2.52","7.33","3.227","1793.499","0.01","4.44","30.7429","4.81478","28.28","0","SATNPRO1963","24.842","0.34796","5"],
    [41289,"HCEP03730564","2024-12-01 09:30:00","11.835","3.54763","27.331","2.385714285714286","7.33","3.229","1783.679","0.01","0.54","30.7486","4.81556","26.78","0","SATNPRO1963","24.152","0.3383","5"],
    [41290,"HCEP03730564","2024-12-01 09:45:00","11.8354","3.54782","27.251","2.185714285714286","7.32","3.056","2079.268","0.01","3.91","30.7502","4.81578","24.52","0","SATNPRO1963","24.39","0.34158","5"],
    [41291,"HCEP03730564","2024-12-01 10:00:00","11.8354","3.54805","27.184","2.122857142857143","7.31","3.221","1834.087","0.01","6.4","30.7525","4.8161","23.83","0","SATNPRO1963","24.169999999999998","0.33854","5"],
    [41292,"HCEP03730564","2024-12-01 10:15:00","11.8356","3.54815","27.11","2.09","7.31","3.221","1828.375","0","0.94","30.7532","4.8162","23.46","0","SATNPRO1963","24.162","0.33844","5"],
    [41293,"HCEP03730564","2024-12-01 10:30:00","11.8352","3.54815","27.057","2.114285714285714","7.3","3.06","2078.783","0","3.95","30.7536","4.81625","23.73","0","SATNPRO1963","24.163999999999998","0.33842","5"],
    [41294,"HCEP03730564","2024-12-01 10:45:00","11.8353","3.54817","27.016","2.128571428571429","7.3","3.212","1785.311","0","4.94","30.7537","4.81627","23.89","0","SATNPRO1963","24.472","0.3428","5"],
    [41295,"HCEP03730564","2024-12-01 11:00:00","11.8356","3.54824","26.984","2.142857142857143","7.28","3.213","1780.807","0","1.44","30.7542","4.81633","24.04","0","SATNPRO1963","24.288","0.3402","5"],
    [41296,"HCEP03730564","2024-12-01 11:15:00","11.8354","3.54831","26.964","2.144285714285714","7.28","3.034","2112.498","0","4.82","30.755","4.81644","24.06","0","SATNPRO1963","24.124","0.33792","5"],
    [41297,"HCEP03730564","2024-12-01 11:30:00","11.8353","3.54833","26.957","2.145714285714286","7.29","3.196","1711.594","0.01","3.25","30.7553","4.81648","24.08","0","SATNPRO1963","24.148","0.33822","5"],
    [41298,"HCEP03730564","2024-12-01 11:45:00","11.8352","3.54807","26.963","2.172857142857143","7.29","3.197","1706.777","0","0","30.7529","4.81615","24.39","0","SATNPRO1963","24.436","0.34226","5"],
    [41299,"HCEP03730564","2024-12-01 12:00:00","11.8348","3.54801","26.98","2.258571428571428","7.29","2.971","2038.132","0","5.56","30.7526","4.81611","25.35","0","SATNPRO1963","24.794","0.34726","5"],
    [41300,"HCEP03730564","2024-12-01 12:15:00","11.835","3.54795","27.007","2.254285714285714","7.29","3.193","1712.164","0","2.03","30.7518","4.81599","25.3","0","SATNPRO1963","24.567999999999998","0.34412","5"],
    [41301,"HCEP03730564","2024-12-01 12:30:00","11.835","3.5482","27.058","2.245714285714286","7.3","3.191","1708.802","0","0.77","30.7542","4.81634","25.21","0","SATNPRO1963","24.334","0.34088","5"],
    [41302,"HCEP03730564","2024-12-01 12:45:00","11.8352","3.5483","27.108","2.167142857142857","7.3","2.946","2038.677","0","4.88","30.7551","4.81646","24.32","0","SATNPRO1963","24.036","0.33664","5"],
    [41303,"HCEP03730564","2024-12-01 13:00:00","11.8354","3.54837","27.174","2.121428571428571","7.3","3.181","1681.507","0.01","3.95","30.7555","4.81652","23.81","0","SATNPRO1963","24.264","0.33984","5"],
    [41304,"HCEP03730564","2024-12-01 13:15:00","11.8352","3.54839","27.234","2.107142857142857","7.3","3.179","1675.654","0.01","0.77","30.7558","4.81657","23.66","0","SATNPRO1963","24.13","0.33802","5"],
    [41305,"HCEP03730564","2024-12-01 13:30:00","11.8352","3.54838","27.285","2.102857142857143","7.3","2.971","1995.727","0","4.41","30.7557","4.81657","23.6","0","SATNPRO1963","24.362","0.34124","5"],
    [41306,"HCEP03730564","2024-12-01 13:45:00","11.8354","3.54844","27.341","2.107142857142857","7.3","3.174","1645.396","0.01","3.21","30.7562","4.81663","23.65","0","SATNPRO1963","24.238","0.33948","5"],
    [41307,"HCEP03730564","2024-12-01 14:00:00","11.8356","3.54848","27.395","2.097142857142857","7.3","3.172","1641.36","0","0.77","30.7563","4.81664","23.53","0","SATNPRO1963","24.16","0.33842","5"],
    [41308,"HCEP03730564","2024-12-01 14:15:00","11.835","3.54839","27.447","2.087142857142857","7.29","2.95","1961.874","0","5.53","30.7558","4.81659","23.42","0","SATNPRO1963","24.246","0.3396","5"],
    [41309,"HCEP03730564","2024-12-01 14:30:00","11.8354","3.54863","27.484","2.065714285714286","7.29","3.151","1595.533","0.01","3.07","30.7579","4.81687","23.18","0","SATNPRO1963","24.002","0.3362","5"],
    [41310,"HCEP03730564","2024-12-01 14:45:00","11.8353","3.54867","27.528","2.045714285714286","7.29","3.15","1593.756","0","0.77","30.7583","4.81694","22.97","0","SATNPRO1963","23.94","0.33534","5"],
    [41311,"HCEP03730564","2024-12-01 15:00:00","11.8356","3.54878","27.555","2.032857142857143","7.29","2.896","1969.122","0","4.63","30.7592","4.81706","22.81","0","SATNPRO1963","24.004","0.33624","5"],
    [41312,"HCEP03730564","2024-12-01 15:15:00","11.8354","3.54875","27.584","2.025714285714286","7.29","3.156","1578.238","0.01","3.91","30.759","4.81703","22.74","0","SATNPRO1963","23.708","0.33206","5"],
    [41313,"HCEP03730564","2024-12-01 15:30:00","11.8325","3.54882","27.612","2.071428571428572","7.3","3.155","1576.099","0","0.77","30.762","4.8175","23.25","0","SATNPRO1963","24.252","0.33968","5"],
    [41314,"HCEP03730564","2024-12-01 15:45:00","11.8308","3.54896","27.617","2.241428571428572","7.3","2.917","1932.677","0","6.95","30.7647","4.81791","25.16","0","SATNPRO1963","24.59","0.34448","5"],
    [41315,"HCEP03730564","2024-12-01 16:00:00","11.8334","3.5488","27.622","2.301428571428572","7.31","3.141","1570.892","0.01","5.89","30.7611","4.81737","25.84","0","SATNPRO1963","24.29","0.34022","5"],
    [41316,"HCEP03730564","2024-12-01 16:15:00","11.8254","3.54977","27.607","2.355714285714286","7.31","3.139","1566.612","0","0.77","30.7771","4.81973","26.44","0","SATNPRO1963","25.432","0.35624","5"],
    [41317,"HCEP03730564","2024-12-01 16:30:00","11.8234","3.54994","27.594","2.757142857142857","7.33","2.928","1881.899","0","6.16","30.7804","4.82023","30.94","0","SATNPRO1963","25.445999999999998","0.35646","5"],
    [41318,"HCEP03730564","2024-12-01 16:45:00","11.8234","3.54996","27.545","2.957142857142857","7.34","3.15","1558.099","0.01","3.8","30.7806","4.82025","33.18","0","SATNPRO1963","25.356","0.35516","5"],
    [41319,"HCEP03730564","2024-12-01 17:00:00","11.8227","3.55009","27.473","3.022857142857143","7.35","3.148","1553.557","0","0.94","30.7825","4.82053","33.93","0","SATNPRO1963","25.436","0.3563","5"],
    [41320,"HCEP03730564","2024-12-01 17:15:00","11.8221","3.55027","27.398","3.065714285714286","7.36","2.934","1868.435","0","3.95","30.7847","4.82084","34.41","0","SATNPRO1963","25.169999999999998","0.35254","5"],
    [41321,"HCEP03730564","2024-12-01 17:30:00","11.8211","3.5505","27.308","3.091428571428572","7.36","3.183","1548.785","0.01","2.71","30.7878","4.82129","34.7","0","SATNPRO1963","25.298000000000002","0.3543","5"],
    [41322,"HCEP03730564","2024-12-01 17:45:00","11.8218","3.5504","27.199","3.118571428571428","7.36","3.18","1544.856","0.01","1.21","30.7863","4.82106","34.99","0","SATNPRO1963","25.476","0.35682","5"],
    [41323,"HCEP03730564","2024-12-01 18:00:00","11.8223","3.55013","27.07","3.115714285714286","7.36","2.925","1899.497","0","4.37","30.7833","4.82063","34.96","0","SATNPRO1963","25.398","0.35576","5"],
    [41324,"HCEP03730564","2024-12-01 18:15:00","11.8229","3.55","26.925","3.095714285714286","7.36","3.168","1565.616","0.01","4.85","30.7816","4.82036","34.74","0","SATNPRO1963","25.156","0.35232","5"],
    [41325,"HCEP03730564","2024-12-01 18:30:00","11.8239","3.54979","26.751","3.047142857142857","7.37","3.169","1561.217","0","0.54","30.7789","4.81996","34.19","0","SATNPRO1963","25.188","0.3528","5"],
    [41326,"HCEP03730564","2024-12-01 18:45:00","11.8249","3.54948","26.549","3.018571428571429","7.36","2.918","1894.792","0.01","5.45","30.7751","4.8194","33.87","0","SATNPRO1963","25.178","0.35268","5"],
    [41327,"HCEP03730564","2024-12-01 19:00:00","11.8267","3.54904","26.351","2.964285714285714","7.36","3.167","1542.661","0.01","3.16","30.7694","4.81856","33.27","0","SATNPRO1963","25.032","0.35064","5"],
    [41328,"HCEP03730564","2024-12-01 19:15:00","11.8265","3.54904","26.12","2.894285714285714","7.36","3.168","1539.871","0","1.08","30.7697","4.8186","32.48","0","SATNPRO1963","25.05","0.35086","5"],
    [41329,"HCEP03730564","2024-12-01 19:30:00","11.8278","3.54869","25.881","2.858571428571428","7.35","2.914","1878.338","0","5.69","30.7653","4.81794","32.08","0","SATNPRO1963","24.791999999999998","0.34726","5"],
    [41330,"HCEP03730564","2024-12-01 19:45:00","11.8301","3.5483","25.639","2.752857142857143","7.35","3.165","1548.247","0.01","3.3","30.7598","4.81712","30.89","0","SATNPRO1963","24.746","0.3466","5"],
    [41331,"HCEP03730564","2024-12-01 20:00:00","11.8314","3.54791","25.376","2.59","7.34","3.165","1544.246","0","1.21","30.7551","4.81642","29.06","0","SATNPRO1963","24.47","0.34274","5"],
    [41332,"HCEP03730564","2024-12-01 20:15:00","11.8327","3.5475","25.131","2.457142857142857","7.33","2.902","1905.086","0","4.24","30.7502","4.8157","27.58","0","SATNPRO1963","24.822","0.34766","5"],
    [41333,"HCEP03730564","2024-12-01 20:30:00","11.8329","3.54722","24.919","2.395714285714286","7.32","3.141","1537.528","0.01","4.67","30.7474","4.81529","26.89","0","SATNPRO1963","24.502","0.34318","5"],
    [41334,"HCEP03730564","2024-12-01 20:45:00","11.8331","3.54703","24.703","2.352857142857143","7.32","3.139","1532.722","0.01","1.08","30.7454","4.815","26.4","0","SATNPRO1963","24.86","0.3482","5"],
    [41335,"HCEP03730564","2024-12-01 21:00:00","11.8335","3.54683","24.484","2.331428571428571","7.32","2.931","1846.763","0","4.02","30.7433","4.81468","26.16","0","SATNPRO1963","24.478","0.34282","5"],
    [41336,"HCEP03730564","2024-12-01 21:15:00","11.833","3.54628","24.296","2.324285714285714","7.32","3.152","1547.21","0.01","2.43","30.7384","4.81399","26.09","0","SATNPRO1963","24.736","0.34648","5"],
    [41337,"HCEP03730564","2024-12-01 21:30:00","11.8325","3.54578","24.193","2.355714285714286","7.32","3.15","1546.174","0","1.44","30.7341","4.81339","26.43","0","SATNPRO1963","24.848","0.34802","5"],
    [41338,"HCEP03730564","2024-12-01 21:45:00","11.8318","3.54529","24.089","2.395714285714286","7.31","2.901","1901.406","0","3.43","30.73","4.81281","26.88","0","SATNPRO1963","24.95","0.34948","5"],
    [41339,"HCEP03730564","2024-12-01 22:00:00","11.8318","3.5454","24.015","2.4","7.31","3.151","1591.826","0.01","3.07","30.7311","4.81296","26.93","0","SATNPRO1963","24.785999999999998","0.34718","5"],
    [41340,"HCEP03730564","2024-12-01 22:15:00","11.8318","3.54553","23.946","2.388571428571428","7.32","3.152","1589.188","0","0.54","30.7324","4.81314","26.8","0","SATNPRO1963","24.798000000000002","0.34736","5"],
    [41341,"HCEP03730564","2024-12-01 22:30:00","11.8317","3.54555","23.913","2.375714285714286","7.31","2.917","1946.436","0","4.54","30.7327","4.81318","26.66","0","SATNPRO1963","24.786","0.3472","5"],
    [41342,"HCEP03730564","2024-12-01 22:45:00","11.8322","3.54565","23.922","2.372857142857143","7.31","3.155","1587.148","0.01","5.42","30.7333","4.81325","26.62","0","SATNPRO1963","24.828","0.34774","5"],
    [41343,"HCEP03730564","2024-12-01 23:00:00","11.8321","3.5457","23.937","2.365714285714286","7.32","3.155","1580.244","0","1.08","30.7338","4.81334","26.54","0","SATNPRO1963","24.516000000000002","0.34342","5"],
    [41344,"HCEP03730564","2024-12-01 23:15:00","11.832","3.54564","23.948","2.361428571428572","7.31","2.958","1941.859","0","4.31","30.7333","4.81327","26.49","0","SATNPRO1963","24.648","0.3452","5"],
    [41345,"HCEP03730564","2024-12-01 23:30:00","11.8318","3.54562","24.042","2.377142857142857","7.31","3.182","1648.659","0.01","3.68","30.7332","4.81326","26.67","0","SATNPRO1963","24.84","0.34792","5"],
    [41346,"HCEP03730564","2024-12-01 23:45:00","11.8314","3.54565","24.11","2.4","7.32","3.183","1644.367","0","1.33","30.7338","4.81334","26.92","0","SATNPRO1963","24.904","0.34882","5"],
    [41347,"HCEP03730564","2024-12-02 00:00:00","11.8309","3.54555","24.246","2.44","7.31","2.984","2042.151","0","2.54","30.7332","4.81328","27.37","0","SATNPRO1963","24.944","0.3494","5"],
    [41348,"HCEP03730564","2024-12-02 00:15:00","11.8295","3.54526","24.423","2.508571428571428","7.32","3.179","1718.839","0.01","2.6","30.7315","4.81307","28.15","0","SATNPRO1963","25.13","0.35198","5"],
    [41349,"HCEP03730564","2024-12-02 00:30:00","11.8291","3.54522","24.608","2.567142857142857","7.32","3.181","1711.503","0.01","1.08","30.7314","4.81306","28.81","0","SATNPRO1963","24.948","0.34942","5"],
    [41350,"HCEP03730564","2024-12-02 00:45:00","11.8291","3.54515","24.763","2.584285714285714","7.32","3.003","2078.448","0","3.95","30.7306","4.81297","29","0","SATNPRO1963","24.886","0.3486","5"],
    [41351,"HCEP03730564","2024-12-02 01:00:00","11.8291","3.54498","24.941","2.581428571428571","7.32","3.177","1767.068","0.01","2.71","30.729","4.81275","28.96","0","SATNPRO1963","24.81","0.3475","5"],
    [41352,"HCEP03730564","2024-12-02 01:15:00","11.8301","3.54501","25.119","2.544285714285714","7.33","3.178","1763.279","0.01","1.33","30.7283","4.81265","28.54","0","SATNPRO1963","24.85","0.34806","5"],
    [41353,"HCEP03730564","2024-12-02 01:30:00","11.8309","3.54508","25.303","2.45","7.32","2.994","2120.773","0","3.95","30.7283","4.81265","27.48","0","SATNPRO1963","24.758","0.34674","5"],
    [41354,"HCEP03730564","2024-12-02 01:45:00","11.8314","3.5451","25.488","2.372857142857143","7.32","3.175","1811.859","0.01","2.82","30.728","4.8126","26.62","0","SATNPRO1963","24.582","0.34428","5"],
    [41355,"HCEP03730564","2024-12-02 02:00:00","11.8317","3.54507","25.694","2.304285714285714","7.32","3.176","1805.014","0.01","0.77","30.7274","4.81253","25.86","0","SATNPRO1963","24.374","0.34138","5"],
    [41356,"HCEP03730564","2024-12-02 02:15:00","11.8322","3.54505","25.894","2.247142857142857","7.31","3.013","2112.161","0","5.42","30.7267","4.81243","25.21","0","SATNPRO1963","24.512","0.34332","5"],
    [41357,"HCEP03730564","2024-12-02 02:30:00","11.8325","3.54499","26.1","2.207142857142857","7.31","3.174","1848.408","0.01","4.1","30.7257","4.8123","24.77","0","SATNPRO1963","24.413999999999998","0.34194","5"],
    [41358,"HCEP03730564","2024-12-02 02:45:00","11.8327","3.54492","26.327","2.18","7.31","3.173","1842.972","0","0.54","30.7248","4.81219","24.46","0","SATNPRO1963","24.534","0.34364","5"],
    [41359,"HCEP03730564","2024-12-02 03:00:00","11.8332","3.54485","26.547","2.15","7.3","2.996","2126.627","0","3.99","30.7237","4.81203","24.12","0","SATNPRO1963","24.16","0.3384","5"],
    [41360,"HCEP03730564","2024-12-02 03:15:00","11.8334","3.54478","26.761","2.135714285714286","7.3","3.173","1800.44","0","3.39","30.7228","4.81191","23.96","0","SATNPRO1963","24.63","0.34498","5"],
    [41361,"HCEP03730564","2024-12-02 03:30:00","11.8337","3.54471","26.953","2.112857142857143","7.31","3.173","1793.096","0","1.08","30.721800000000002","4.81179","23.71","0","SATNPRO1963","24.176000000000002","0.3386","5"],
    [41362,"HCEP03730564","2024-12-02 03:45:00","11.8334","3.54465","27.12","2.1","7.3","2.966","2086.922","0","5.94","30.7214","4.81173","23.56","0","SATNPRO1963","24.65","0.3453","5"],
    [41363,"HCEP03730564","2024-12-02 04:00:00","11.8337","3.54459","27.287","2.084285714285714","7.3","3.156","1731.401","0","3.56","30.7205","4.81161","23.39","0","SATNPRO1963","24.276","0.34002","5"],
    [41364,"HCEP03730564","2024-12-02 04:15:00","11.8339","3.54454","27.435","2.077142857142857","7.3","3.156","1725.814","0","1.08","30.7198","4.81152","23.31","0","SATNPRO1963","24.378","0.34148","5"],
    [41365,"HCEP03730564","2024-12-02 04:30:00","11.8337","3.54449","27.57","2.067142857142857","7.3","2.945","2039.19","0","5.12","30.7194","4.81147","23.2","0","SATNPRO1963","24.062","0.337","5"],
    [41366,"HCEP03730564","2024-12-02 04:45:00","11.8335","3.54447","27.714","2.06","7.3","3.14","1681.745","0.01","3.64","30.7193","4.81147","23.11","0","SATNPRO1963","24.386","0.34158","5"],
    [41367,"HCEP03730564","2024-12-02 05:00:00","11.8333","3.54443","27.834","2.052857142857143","7.3","3.14","1677.91","0","1.33","30.719","4.81144","23.04","0","SATNPRO1963","24.476","0.34282","5"],
    [41368,"HCEP03730564","2024-12-02 05:15:00","11.833","3.54444","27.929","2.061428571428571","7.3","2.925","2016.063","0","5.53","30.7193","4.8115","23.12","0","SATNPRO1963","24.112000000000002","0.33774","5"],
    [41369,"HCEP03730564","2024-12-02 05:30:00","11.8325","3.54449","27.997","2.074285714285714","7.3","3.134","1628.791","0.01","2.82","30.7203","4.81164","23.28","0","SATNPRO1963","24.146","0.33822","5"],
    [41370,"HCEP03730564","2024-12-02 05:45:00","11.8319","3.54446","28.017","2.098571428571429","7.3","3.133","1625.404","0","1.44","30.7204","4.81168","23.54","0","SATNPRO1963","24.354","0.34112","5"],
    [41371,"HCEP03730564","2024-12-02 06:00:00","11.831","3.54435","27.98","2.142857142857143","7.3","2.88","1938.189","0.01","5.4","30.7201","4.81163","24.05","0","SATNPRO1963","24.286","0.3402","5"],
    [41372,"HCEP03730564","2024-12-02 06:15:00","11.8301","3.54429","27.96","2.23","7.3","3.125","1583.205","0.01","3.43","30.7203","4.81168","25.01","0","SATNPRO1963","24.656","0.34536","5"],
    [41373,"HCEP03730564","2024-12-02 06:30:00","11.8288","3.54424","27.97","2.314285714285714","7.31","3.124","1580.374","0","1.08","30.7208","4.81177","25.97","0","SATNPRO1963","25.084","0.35138","5"],
    [41374,"HCEP03730564","2024-12-02 06:45:00","11.8278","3.54424","27.983","2.422857142857143","7.32","2.932","1888.361","0","4.91","30.7216","4.8119","27.19","0","SATNPRO1963","25.242","0.35354","5"],
    [41375,"HCEP03730564","2024-12-02 07:00:00","11.8264","3.54441","28.002","2.522857142857143","7.32","3.156","1561.219","0.01","2.97","30.7245","4.81232","28.3","0","SATNPRO1963","24.98","0.3499","5"],
    [41376,"HCEP03730564","2024-12-02 07:15:00","11.8238","3.54514","28.009","2.611428571428572","7.33","3.157","1557.086","0","0.77","30.7337","4.81365","29.3","0","SATNPRO1963","25.432","0.35624","5"],
    [41377,"HCEP03730564","2024-12-02 07:30:00","11.8232","3.54522","28.008","2.707142857142857","7.33","2.901","1934.732","0","5.45","30.7349","4.81384","30.37","0","SATNPRO1963","25.086","0.3514","5"],
    [41378,"HCEP03730564","2024-12-02 07:45:00","11.8236","3.54496","27.984","2.742857142857143","7.34","3.125","1599.03","0.01","5.03","30.7321","4.81343","30.76","0","SATNPRO1963","25.442","0.35638","5"],
    [41379,"HCEP03730564","2024-12-02 08:00:00","11.8273","3.54476","27.956","2.732857142857143","7.34","3.126","1591.464","0","0","30.7272","4.81269","30.66","0","SATNPRO1963","25.152","0.3523","5"],
    [41380,"HCEP03730564","2024-12-02 08:15:00","11.828","3.54485","27.911","2.645714285714286","7.34","3.015","1808.051","0.01","5.64","30.7274","4.81271","29.68","0","SATNPRO1963","25.154","0.35234","5"],
    [41381,"HCEP03730564","2024-12-02 08:30:00","11.8287","3.5449","27.854","2.618571428571429","7.34","3.169","1595.513","0","8.15","30.7274","4.81269","29.38","0","SATNPRO1963","25.266000000000002","0.35388","5"],
    [41382,"HCEP03730564","2024-12-02 08:45:00","11.829","3.54495","27.791","2.592857142857143","7.34","3.169","1588.641","0","0","30.7276","4.81272","29.09","0","SATNPRO1963","24.924","0.3491","5"],
    [41383,"HCEP03730564","2024-12-02 09:00:00","11.8295","3.54495","27.718","2.542857142857143","7.33","3.021","1815.225","0","3.99","30.7272","4.81264","28.54","0","SATNPRO1963","24.704","0.34606","5"],
    [41384,"HCEP03730564","2024-12-02 09:15:00","11.8297","3.54503","27.64","2.482857142857143","7.33","3.171","1611.007","0.01","5.69","30.7279","4.81273","27.86","0","SATNPRO1963","24.656","0.34536","5"],
    [41385,"HCEP03730564","2024-12-02 09:30:00","11.8314","3.54618","27.55","2.315714285714286","7.32","3.169","1605.435","0","1.33","30.7376","4.81408","25.99","0","SATNPRO1963","24.142","0.33814","5"],
    [41386,"HCEP03730564","2024-12-02 09:45:00","11.8314","3.5464","27.473","2.054285714285714","7.31","3.021","1849.43","0","6.11","30.7396","4.81436","23.05","0","SATNPRO1963","24.018","0.33638","5"],
    [41387,"HCEP03730564","2024-12-02 10:00:00","11.8318","3.5466","27.389","1.995714285714286","7.3","3.137","1545.506","0.01","8.58","30.7414","4.8146","22.4","0","SATNPRO1963","23.956","0.33554","5"],
    [41388,"HCEP03730564","2024-12-02 10:15:00","11.8315","3.54667","27.32","1.99","7.3","3.137","1540.777","0","0.38","30.7423","4.81473","22.33","0","SATNPRO1963","24.080000000000002","0.33726","5"],
    [41389,"HCEP03730564","2024-12-02 10:30:00","11.8318","3.5468","27.247","2.002857142857143","7.3","2.938","1853.305","0","6.04","30.7434","4.81487","22.47","0","SATNPRO1963","24.022","0.33646","5"],
    [41390,"HCEP03730564","2024-12-02 10:45:00","11.832","3.54697","27.177","2.011428571428572","7.3","3.146","1546.772","0","3.8","30.7449","4.81508","22.56","0","SATNPRO1963","23.76","0.33278","5"],
    [41391,"HCEP03730564","2024-12-02 11:00:00","11.8321","3.54723","27.107","2.007142857142857","7.3","3.146","1541.202","0","0.66","30.7473","4.81541","22.53","0","SATNPRO1963","24.12","0.33782","5"],
    [41392,"HCEP03730564","2024-12-02 11:15:00","11.8318","3.54738","27.051","2.004285714285714","7.29","2.949","1857.435","0","5.79","30.749","4.81565","22.5","0","SATNPRO1963","24.352","0.34108","5"],
    [41393,"HCEP03730564","2024-12-02 11:30:00","11.8318","3.54739","27.009","2.01","7.29","3.157","1551.143","0","2.82","30.7492","4.81567","22.55","0","SATNPRO1963","24.226","0.33934","5"],
    [41394,"HCEP03730564","2024-12-02 11:45:00","11.832","3.54744","26.987","2.012857142857143","7.3","3.155","1545.763","0","0.94","30.7495","4.81571","22.59","0","SATNPRO1963","24.29","0.34026","5"],
    [41395,"HCEP03730564","2024-12-02 12:00:00","11.8318","3.54754","26.977","2.012857142857143","7.29","2.95","1803.505","0","6.62","30.7506","4.81587","22.58","0","SATNPRO1963","24.25","0.33966","5"],
    [41396,"HCEP03730564","2024-12-02 12:15:00","11.8314","3.54763","26.97","2.01","7.29","3.156","1497.275","0.01","4.52","30.7517","4.81604","22.55","0","SATNPRO1963","24.026","0.3365","5"],
    [41397,"HCEP03730564","2024-12-02 12:30:00","11.8313","3.54767","26.986","2.012857142857143","7.3","3.155","1491.749","0","0.94","30.7522","4.81611","22.58","0","SATNPRO1963","24.212","0.3391","5"],
    [41398,"HCEP03730564","2024-12-02 12:45:00","11.8312","3.54779","27.013","2.028571428571428","7.29","2.91","1859.226","0","5.23","30.7534","4.81628","22.77","0","SATNPRO1963","24.406","0.34184","5"],
    [41399,"HCEP03730564","2024-12-02 13:00:00","11.831","3.54782","27.049","2.035714285714286","7.29","3.144","1504.999","0.01","2.54","30.7539","4.81635","22.84","0","SATNPRO1963","23.892","0.3347","5"],
    [41400,"HCEP03730564","2024-12-02 13:15:00","11.8302","3.54775","27.086","2.055714285714286","7.3","3.142","1500.797","0","0","30.7538","4.81635","23.07","0","SATNPRO1963","24.226","0.33934","5"],
    [41401,"HCEP03730564","2024-12-02 13:30:00","11.83","3.54773","27.131","2.108571428571428","7.3","2.969","1738.912","0","7.54","30.7538","4.81635","23.66","0","SATNPRO1963","24.118","0.33784","5"],
    [41402,"HCEP03730564","2024-12-02 13:45:00","11.8273","3.54766","27.19","2.175714285714286","7.3","3.164","1521.179","0.01","3.58","30.7554","4.81662","24.41","0","SATNPRO1963","24.494","0.34306","5"],
    [41403,"HCEP03730564","2024-12-02 14:00:00","11.8263","3.54778","27.254","2.37","7.31","3.163","1515.268","0","0.77","30.7572","4.8169","26.6","0","SATNPRO1963","24.696","0.3459","5"],
    [41404,"HCEP03730564","2024-12-02 14:15:00","11.8246","3.54825","27.316","2.545714285714286","7.31","2.982","1728.625","0","5.56","30.7632","4.81777","28.56","0","SATNPRO1963","24.796","0.34734","5"],
    [41405,"HCEP03730564","2024-12-02 14:30:00","11.8244","3.54834","27.381","2.622857142857143","7.32","3.16","1515.761","0.01","3.89","30.7642","4.81793","29.44","0","SATNPRO1963","24.962","0.34964","5"],
    [41406,"HCEP03730564","2024-12-02 14:45:00","11.8237","3.54847","27.435","2.624285714285714","7.33","3.16","1510.436","0","0.94","30.766","4.81818","29.44","0","SATNPRO1963","24.994","0.35008","5"],
    [41407,"HCEP03730564","2024-12-02 15:00:00","11.8236","3.54864","27.478","2.632857142857143","7.33","2.959","1760.614","0","5.03","30.7677","4.81843","29.55","0","SATNPRO1963","24.868","0.34828","5"],
    [41408,"HCEP03730564","2024-12-02 15:15:00","11.8234","3.54866","27.52","2.651428571428572","7.33","3.133","1488.897","0.01","7.22","30.7681","4.81849","29.75","0","SATNPRO1963","25.03","0.35058","5"],
    [41409,"HCEP03730564","2024-12-02 15:30:00","11.8229","3.54876","27.559","2.648571428571429","7.33","3.133","1482.51","0","1.08","30.7694","4.81868","29.72","0","SATNPRO1963","24.57","0.34416","5"],
    [41410,"HCEP03730564","2024-12-02 15:45:00","11.8224","3.54881","27.593","2.671428571428572","7.33","2.926","1742.62","0","4.94","30.7703","4.81882","29.98","0","SATNPRO1963","24.782","0.3471","5"],
    [41411,"HCEP03730564","2024-12-02 16:00:00","11.8225","3.54884","27.62","2.687142857142857","7.33","3.114","1461.782","0.01","3.7","30.7705","4.81885","30.15","0","SATNPRO1963","25.35","0.35508","5"],
    [41412,"HCEP03730564","2024-12-02 16:15:00","11.8227","3.54884","27.621","2.695714285714286","7.33","3.113","1457.661","0","0.86","30.7703","4.81882","30.24","0","SATNPRO1963","24.95","0.34946","5"],
    [41413,"HCEP03730564","2024-12-02 16:30:00","11.8231","3.54888","27.623","2.684285714285714","7.33","2.87","1737.028","0","4.37","30.7703","4.81881","30.12","0","SATNPRO1963","24.75","0.34668","5"],
    [41414,"HCEP03730564","2024-12-02 16:45:00","11.8227","3.5489","27.618","2.677142857142858","7.33","3.129","1450.807","0.01","6.53","30.7709","4.8189","30.04","0","SATNPRO1963","25.284","0.35416","5"],
    [41415,"HCEP03730564","2024-12-02 17:00:00","11.8227","3.54893","27.593","2.684285714285714","7.33","3.129","1444.76","0","0.94","30.7713","4.81895","30.13","0","SATNPRO1963","25.078","0.35126","5"],
    [41416,"HCEP03730564","2024-12-02 17:15:00","11.8225","3.54891","27.558","2.688571428571429","7.33","2.911","1721.7","0","3.12","30.7712","4.81894","30.16","0","SATNPRO1963","25.3","0.35436","5"],
    [41417,"HCEP03730564","2024-12-02 17:30:00","11.8216","3.54901","27.507","2.702857142857143","7.33","3.129","1457.062","0.01","4.84","30.773","4.81921","30.32","0","SATNPRO1963","24.976","0.34982","5"],
    [41418,"HCEP03730564","2024-12-02 17:45:00","11.8209","3.54906","27.439","2.751428571428571","7.34","3.128","1451.346","0","0.77","30.774","4.81935","30.88","0","SATNPRO1963","25.322","0.35468","5"],
    [41419,"HCEP03730564","2024-12-02 18:00:00","11.8209","3.54905","27.36","2.781428571428572","7.34","2.922","1727.885","0","5.2","30.7739","4.81934","31.21","0","SATNPRO1963","25.060000000000002","0.35102","5"],
    [41420,"HCEP03730564","2024-12-02 18:15:00","11.8205","3.54908","27.249","2.771428571428571","7.34","3.141","1467.007","0.01","2.97","30.7746","4.81944","31.1","0","SATNPRO1963","25.25","0.35368","5"],
    [41421,"HCEP03730564","2024-12-02 18:30:00","11.8197","3.54918","27.114","2.791428571428571","7.34","3.14","1464.047","0","0.54","30.7763","4.81967","31.33","0","SATNPRO1963","25.516000000000002","0.35742","5"],
    [41422,"HCEP03730564","2024-12-02 18:45:00","11.8189","3.5492","26.954","2.841428571428572","7.34","2.939","1729.243","0","4.7","30.7772","4.81981","31.88","0","SATNPRO1963","25.05","0.35088","5"],
    [41423,"HCEP03730564","2024-12-02 19:00:00","11.8184","3.54929","26.798","2.871428571428571","7.34","3.147","1463.416","0.01","2.68","30.7785","4.81999","32.22","0","SATNPRO1963","25.292","0.35428","5"],
    [41424,"HCEP03730564","2024-12-02 19:15:00","11.8184","3.54931","26.626","2.881428571428571","7.34","3.146","1461.23","0","1.27","30.7788","4.82002","32.33","0","SATNPRO1963","25.387999999999998","0.35558","5"],
    [41425,"HCEP03730564","2024-12-02 19:30:00","11.8186","3.54926","26.417","2.862857142857143","7.34","2.933","1763.711","0","5.2","30.7783","4.81993","32.12","0","SATNPRO1963","25.11","0.35168","5"],
    [41426,"HCEP03730564","2024-12-02 19:45:00","11.819","3.54921","26.217","2.834285714285714","7.34","3.127","1454.867","0.01","3.19","30.7776","4.81982","31.8","0","SATNPRO1963","24.8","0.34732","5"],
    [41427,"HCEP03730564","2024-12-02 20:00:00","11.8191","3.54918","26.01","2.805714285714286","7.35","3.125","1449.404","0","0.38","30.7773","4.81976","31.49","0","SATNPRO1963","25.26","0.35378","5"],
    [41428,"HCEP03730564","2024-12-02 20:15:00","11.8203","3.54895","25.819","2.795714285714286","7.34","2.899","1711.865","0","3.6","30.7741","4.81929","31.37","0","SATNPRO1963","25.306","0.35448","5"],
    [41429,"HCEP03730564","2024-12-02 20:30:00","11.821","3.54866","25.58","2.771428571428571","7.35","3.13","1437.321","0.01","3.19","30.7708","4.8188","31.09","0","SATNPRO1963","25.258","0.35378","5"],
    [41430,"HCEP03730564","2024-12-02 20:45:00","11.821","3.54828","25.352","2.738571428571429","7.35","3.13","1433.81","0","0.66","30.7672","4.81828","30.73","0","SATNPRO1963","25.07","0.35118","5"],
    [41431,"HCEP03730564","2024-12-02 21:00:00","11.822","3.54799","25.129","2.724285714285714","7.34","2.905","1735.728","0","5.12","30.7637","4.81776","30.57","0","SATNPRO1963","25.158","0.35234","5"],
    [41432,"HCEP03730564","2024-12-02 21:15:00","11.822","3.54752","24.914","2.707142857142857","7.34","3.114","1476.385","0.01","3.43","30.7593","4.81712","30.37","0","SATNPRO1963","24.842","0.34796","5"],
    [41433,"HCEP03730564","2024-12-02 21:30:00","11.8226","3.54719","24.703","2.668571428571429","7.34","3.113","1470.187","0","0.54","30.7556","4.81659","29.94","0","SATNPRO1963","24.708000000000002","0.34608","5"],
    [41434,"HCEP03730564","2024-12-02 21:45:00","11.8247","3.54691","24.505","2.587142857142857","7.33","2.915","1766.613","0","5.37","30.7513","4.81594","29.02","0","SATNPRO1963","24.52","0.34344","5"],
    [41435,"HCEP03730564","2024-12-02 22:00:00","11.8269","3.54672","24.304","2.447142857142858","7.32","3.138","1468.978","0.01","3.99","30.7478","4.8154","27.46","0","SATNPRO1963","24.57","0.34414","5"],
    [41436,"HCEP03730564","2024-12-02 22:15:00","11.828","3.54649","24.113","2.31","7.32","3.138","1462.728","0","0","30.7447","4.81494","25.91","0","SATNPRO1963","24.683999999999997","0.34576","5"],
    [41437,"HCEP03730564","2024-12-02 22:30:00","11.8284","3.54622","23.963","2.214285714285714","7.31","2.907","1755.127","0","5.17","30.7418","4.81451","24.85","0","SATNPRO1963","24.382","0.34156","5"],
    [41438,"HCEP03730564","2024-12-02 22:45:00","11.8282","3.54588","23.864","2.172857142857143","7.3","3.117","1453.141","0.01","3.12","30.7388","4.81409","24.38","0","SATNPRO1963","24.296","0.3403","5"],
    [41439,"HCEP03730564","2024-12-02 23:00:00","11.828","3.54575","23.824","2.178571428571428","7.3","3.117","1449.855","0","0.54","30.7377","4.81393","24.44","0","SATNPRO1963","23.876","0.33446","5"],
    [41440,"HCEP03730564","2024-12-02 23:15:00","11.8274","3.54543","23.8","2.185714285714286","7.3","2.877","1721.928","0","4.85","30.7351","4.81357","24.53","0","SATNPRO1963","24.346","0.34098","5"],
    [41441,"HCEP03730564","2024-12-02 23:30:00","11.8274","3.54539","23.808","2.21","7.3","3.127","1439.362","0","2.57","30.7348","4.81352","24.8","0","SATNPRO1963","24.326","0.34074","5"],
    [41442,"HCEP03730564","2024-12-02 23:45:00","11.8267","3.54523","23.852","2.235714285714286","7.3","3.125","1436.162","0","1.15","30.7338","4.8134","25.09","0","SATNPRO1963","24.498","0.34312","5"],
    [41443,"HCEP03730564","2024-12-03 00:00:00","11.8262","3.54516","23.901","2.272857142857143","7.3","2.909","1700.041","0","3.8","30.7335","4.81337","25.51","0","SATNPRO1963","24.488","0.34298","5"],
    [41444,"HCEP03730564","2024-12-03 00:15:00","11.8252","3.54498","23.999","2.37","7.3","3.135","1473.61","0.01","3.78","30.7325","4.81325","26.58","0","SATNPRO1963","25.413999999999998","0.35598","5"],
    [41445,"HCEP03730564","2024-12-03 00:30:00","11.8233","3.54454","24.089","2.452857142857143","7.31","3.138","1471.925","0","0.38","30.7298","4.8129","27.51","0","SATNPRO1963","25.13","0.35196","5"],
    [41446,"HCEP03730564","2024-12-03 00:45:00","11.8232","3.54453","24.258","2.564285714285714","7.32","2.94","1759.393","0","4.76","30.7298","4.8129","28.77","0","SATNPRO1963","25.204","0.35302","5"],
    [41447,"HCEP03730564","2024-12-03 01:00:00","11.8227","3.54437","24.397","2.605714285714286","7.32","3.145","1500.005","0.01","3.66","30.7286","4.81276","29.23","0","SATNPRO1963","25.126","0.35196","5"],
    [41448,"HCEP03730564","2024-12-03 01:15:00","11.8226","3.5444","24.596","2.617142857142857","7.33","3.142","1494.349","0","1.01","30.7288","4.8128","29.37","0","SATNPRO1963","24.924","0.34914","5"],
    [41449,"HCEP03730564","2024-12-03 01:30:00","11.8229","3.54435","24.793","2.631428571428572","7.33","2.979","1803.098","0","3.43","30.7281","4.8127","29.52","0","SATNPRO1963","25.288","0.35422","5"],
    [41450,"HCEP03730564","2024-12-03 01:45:00","11.8232","3.54436","24.959","2.661428571428572","7.33","3.151","1528.397","0.01","3.97","30.7279","4.81267","29.86","0","SATNPRO1963","24.971999999999998","0.34974","5"],
    [41451,"HCEP03730564","2024-12-03 02:00:00","11.8227","3.54451","25.148","2.65","7.33","3.152","1522.61","0","0.77","30.7296","4.81294","29.73","0","SATNPRO1963","25.34","0.35492","5"],
    [41452,"HCEP03730564","2024-12-03 02:15:00","11.8227","3.54459","25.343","2.631428571428572","7.33","2.976","1776.407","0","4.41","30.7303","4.81305","29.52","0","SATNPRO1963","24.832","0.34786","5"],
    [41453,"HCEP03730564","2024-12-03 02:30:00","11.8229","3.54449","25.548","2.622857142857143","7.33","3.137","1547.466","0.01","3.34","30.7291","4.81289","29.42","0","SATNPRO1963","24.772000000000002","0.347","5"],
    [41454,"HCEP03730564","2024-12-03 02:45:00","11.8229","3.54434","25.774","2.622857142857143","7.34","3.137","1541.428","0","0.77","30.7276","4.81268","29.43","0","SATNPRO1963","25.078","0.35128","5"],
    [41455,"HCEP03730564","2024-12-03 03:00:00","11.8224","3.54424","25.989","2.647142857142857","7.33","2.986","1797.23","0","3.3","30.7269","4.81261","29.69","0","SATNPRO1963","25.142","0.35214","5"],
    [41456,"HCEP03730564","2024-12-03 03:15:00","11.8223","3.5441","26.194","2.664285714285714","7.33","3.164","1628.283","0","5.09","30.7256","4.81244","29.88","0","SATNPRO1963","24.876","0.34846","5"],
    [41457,"HCEP03730564","2024-12-03 03:30:00","11.822","3.54389","26.406","2.69","7.33","3.166","1620.625","0","1.08","30.7237","4.81219","30.18","0","SATNPRO1963","25.01","0.35032","5"],
    [41458,"HCEP03730564","2024-12-03 03:45:00","11.822","3.54375","26.621","2.691428571428571","7.33","3.045","1840.112","0","4.37","30.7223","4.81199","30.2","0","SATNPRO1963","25.06","0.351","5"],
    [41459,"HCEP03730564","2024-12-03 04:00:00","11.822","3.54363","26.827","2.672857142857143","7.34","3.144","1651.07","0.01","3.02","30.721","4.81183","29.98","0","SATNPRO1963","24.936","0.34924","5"],
    [41460,"HCEP03730564","2024-12-03 04:15:00","11.8221","3.54351","27.007","2.671428571428572","7.34","3.143","1641.829","0","1.08","30.7198","4.81166","29.97","0","SATNPRO1963","25.172","0.35258","5"],
    [41461,"HCEP03730564","2024-12-03 04:30:00","11.8222","3.5434","27.178","2.674285714285714","7.34","2.976","1851.168","0","4.51","30.7186","4.8115","30","0","SATNPRO1963","25.068","0.35114","5"],
    [41462,"HCEP03730564","2024-12-03 04:45:00","11.8222","3.54335","27.359","2.662857142857143","7.34","3.127","1613.457","0.01","3.52","30.718","4.81143","29.87","0","SATNPRO1963","25.008","0.3503","5"],
    [41463,"HCEP03730564","2024-12-03 05:00:00","11.8223","3.54329","27.501","2.647142857142857","7.34","3.128","1607.695","0","0","30.7173","4.81134","29.69","0","SATNPRO1963","25.012","0.35034","5"],
    [41464,"HCEP03730564","2024-12-03 05:15:00","11.8227","3.54324","27.638","2.624285714285714","7.34","2.937","1861.915","0","4.47","30.7164","4.81122","29.43","0","SATNPRO1963","25.176000000000002","0.35262","5"],
    [41465,"HCEP03730564","2024-12-03 05:30:00","11.823","3.54323","27.77","2.588571428571428","7.33","3.099","1609.482","0.01","4.37","30.716","4.81116","29.04","0","SATNPRO1963","24.62","0.34488","5"],
    [41466,"HCEP03730564","2024-12-03 05:45:00","11.823","3.54324","27.889","2.555714285714286","7.33","3.099","1603.886","0","0.54","30.7161","4.81118","28.67","0","SATNPRO1963","24.688000000000002","0.34582","5"],
    [41467,"HCEP03730564","2024-12-03 06:00:00","11.823","3.54324","27.965","2.54","7.33","2.892","1859.273","0.01","5.09","30.7161","4.81118","28.49","0","SATNPRO1963","25.066","0.35108","5"],
    [41468,"HCEP03730564","2024-12-03 06:15:00","11.8231","3.54324","28.012","2.537142857142857","7.33","3.08","1520.996","0","3.32","30.716","4.81117","28.46","0","SATNPRO1963","25.082","0.35128","5"],
    [41469,"HCEP03730564","2024-12-03 06:30:00","11.823","3.54321","28.047","2.531428571428572","7.33","3.08","1514.328","0","1.21","30.7157","4.81113","28.4","0","SATNPRO1963","24.768","0.34694","5"],
    [41470,"HCEP03730564","2024-12-03 06:45:00","11.8219","3.54325","28.081","2.548571428571428","7.33","2.835","1804.093","0","6.84","30.717","4.81134","28.59","0","SATNPRO1963","24.818","0.34764","5"],
    [41471,"HCEP03730564","2024-12-03 07:00:00","11.8214","3.54343","28.078","2.555714285714286","7.33","3.083","1511.979","0.01","4.41","30.7192","4.81165","28.67","0","SATNPRO1963","24.58","0.34426","5"],
    [41472,"HCEP03730564","2024-12-03 07:15:00","11.8213","3.54368","28.104","2.542857142857143","7.34","3.081","1506.003","0","0","30.7216","4.81199","28.52","0","SATNPRO1963","24.72","0.3462","5"],
    [41473,"HCEP03730564","2024-12-03 07:30:00","11.8215","3.54389","28.078","2.537142857142857","7.33","2.88","1753.08","0","9.01","30.7235","4.81226","28.46","0","SATNPRO1963","24.498","0.34312","5"],
    [41474,"HCEP03730564","2024-12-03 07:45:00","11.8216","3.5443","28.048","2.527142857142857","7.33","3.102","1460.362","0.01","7.64","30.7274","4.8128","28.35","0","SATNPRO1963","24.626","0.3449","5"],
    [41475,"HCEP03730564","2024-12-03 08:00:00","11.8216","3.54461","28.045","2.53","7.33","3.102","1453.742","0","0.77","30.7303","4.81321","28.38","0","SATNPRO1963","24.828","0.34776","5"],
    [41476,"HCEP03730564","2024-12-03 08:15:00","11.8213","3.54478","28.023","2.548571428571428","7.33","2.877","1812.76","0","4.7","30.7323","4.81349","28.59","0","SATNPRO1963","24.9","0.3488","5"],
    [41477,"HCEP03730564","2024-12-03 08:30:00","11.8213","3.54493","28","2.567142857142857","7.33","3.111","1522.445","0.01","4.39","30.7337","4.81369","28.8","0","SATNPRO1963","25.048000000000002","0.35088","5"],
    [41478,"HCEP03730564","2024-12-03 08:45:00","11.8211","3.54497","27.95","2.58","7.33","3.112","1516.165","0","1.01","30.7343","4.81377","28.95","0","SATNPRO1963","25.272000000000002","0.35398","5"],
    [41479,"HCEP03730564","2024-12-03 09:00:00","11.8218","3.54491","27.877","2.598571428571429","7.32","2.939","1741.03","0","6.04","30.7331","4.8136","29.15","0","SATNPRO1963","25.21","0.3531","5"],
    [41480,"HCEP03730564","2024-12-03 09:15:00","11.8219","3.54495","27.809","2.577142857142857","7.31","3.107","1512.343","0.01","4.73","30.7334","4.81364","28.91","0","SATNPRO1963","24.83","0.34776","5"],
    [41481,"HCEP03730564","2024-12-03 09:30:00","11.8221","3.5449","27.756","2.552857142857143","7.32","3.105","1503.573","0","0.77","30.7329","4.81355","28.64","0","SATNPRO1963","24.884","0.34852","5"],
    [41482,"HCEP03730564","2024-12-03 09:45:00","11.8224","3.54485","27.688","2.541428571428571","7.31","2.922","1764.276","0","5.09","30.7321","4.81344","28.5","0","SATNPRO1963","24.906","0.34888","5"],
    [41483,"HCEP03730564","2024-12-03 10:00:00","11.8226","3.54486","27.609","2.524285714285714","7.31","3.136","1547.099","0.01","4.57","30.7321","4.81343","28.32","0","SATNPRO1963","24.918","0.349","5"],
    [41484,"HCEP03730564","2024-12-03 10:15:00","11.823","3.54485","27.529","2.508571428571428","7.32","3.136","1540.678","0","0","30.7317","4.81337","28.14","0","SATNPRO1963","24.924","0.3491","5"],
    [41485,"HCEP03730564","2024-12-03 10:30:00","11.8227","3.54484","27.46","2.497142857142857","7.31","2.99","1783.5","0","5.58","30.7319","4.81339","28.02","0","SATNPRO1963","24.77","0.347","5"],
    [41486,"HCEP03730564","2024-12-03 10:45:00","11.8227","3.54484","27.386","2.48","7.31","3.134","1574.512","0.01","4.76","30.7319","4.81338","27.82","0","SATNPRO1963","24.742","0.34652","5"],
    [41487,"HCEP03730564","2024-12-03 11:00:00","11.8232","3.54484","27.308","2.467142857142858","7.32","3.135","1565.555","0.01","0.77","30.7316","4.81333","27.68","0","SATNPRO1963","24.852","0.34812","5"],
    [41488,"HCEP03730564","2024-12-03 11:15:00","11.8232","3.54458","27.23","2.455714285714286","7.31","2.993","1765.162","0","5.29","30.7291","4.81297","27.55","0","SATNPRO1963","24.878","0.3485","5"],
    [41489,"HCEP03730564","2024-12-03 11:30:00","11.825","3.54477","27.16","2.358571428571428","7.32","3.125","1547.739","0","5.09","30.7295","4.813","26.46","0","SATNPRO1963","24.102","0.3376","5"],
    [41490,"HCEP03730564","2024-12-03 11:45:00","11.8266","3.54536","27.101","2.16","7.31","3.123","1540.565","0","0.54","30.7338","4.81359","24.23","0","SATNPRO1963","23.912","0.33496","5"],
    [41491,"HCEP03730564","2024-12-03 12:00:00","11.8269","3.5455","27.053","1.995714285714286","7.3","2.977","1795.643","0","5.26","30.7349","4.81373","22.39","0","SATNPRO1963","24.002","0.33622","5"],
    [41492,"HCEP03730564","2024-12-03 12:15:00","11.8269","3.54559","27.018","1.95","7.29","3.118","1587.349","0.01","5.17","30.7358","4.81385","21.87","0","SATNPRO1963","23.855999999999998","0.33414","5"],
    [41493,"HCEP03730564","2024-12-03 12:30:00","11.8271","3.54562","26.988","1.925714285714286","7.29","3.118","1578.652","0","1.33","30.736","4.81387","21.6","0","SATNPRO1963","23.708","0.33206","5"],
    [41494,"HCEP03730564","2024-12-03 12:45:00","11.8268","3.54562","26.981","1.918571428571429","7.29","2.95","1837.961","0","7.46","30.7362","4.81391","21.52","0","SATNPRO1963","23.576","0.33024","5"],
    [41495,"HCEP03730564","2024-12-03 13:00:00","11.8265","3.5456","26.984","1.928571428571429","7.28","3.111","1541.331","0.01","3.6","30.7363","4.81393","21.64","0","SATNPRO1963","23.872","0.33438","5"],
    [41496,"HCEP03730564","2024-12-03 13:15:00","11.8261","3.54565","27.005","1.94","7.29","3.109","1535.885","0","0.77","30.7371","4.81405","21.76","0","SATNPRO1963","23.908","0.33488","5"],
    [41497,"HCEP03730564","2024-12-03 13:30:00","11.8271","3.5461","27.018","1.915714285714286","7.28","2.944","1813.056","0","5.61","30.7406","4.81453","21.49","0","SATNPRO1963","23.66","0.33138","5"],
    [41498,"HCEP03730564","2024-12-03 13:45:00","11.8273","3.54638","27.048","1.874285714285714","7.28","3.113","1551.726","0","3.64","30.7431","4.81489","21.03","0","SATNPRO1963","24.034","0.33662","5"],
    [41499,"HCEP03730564","2024-12-03 14:00:00","11.8278","3.5468","27.077","1.86","7.28","3.112","1545.678","0","0.54","30.7468","4.81539","20.87","0","SATNPRO1963","23.805999999999997","0.33344","5"],
    [41500,"HCEP03730564","2024-12-03 14:15:00","11.8276","3.54681","27.125","1.851428571428571","7.28","2.954","1786.189","0","5.99","30.7469","4.81542","20.78","0","SATNPRO1963","23.838","0.3339","5"],
    [41501,"HCEP03730564","2024-12-03 14:30:00","11.8269","3.54678","27.18","1.867142857142857","7.28","3.109","1577.592","0.01","3.25","30.7472","4.81547","20.94","0","SATNPRO1963","23.928","0.33516","5"],
    [41502,"HCEP03730564","2024-12-03 14:45:00","11.8228","3.54618","27.236","1.942857142857143","7.28","3.108","1571.66","0","0","30.7448","4.8152","21.81","0","SATNPRO1963","24.308","0.34046","5"],
    [41503,"HCEP03730564","2024-12-03 15:00:00","11.8201","3.54727","27.278","2.252857142857143","7.29","2.913","1816.115","0","6.95","30.7575","4.81703","25.28","0","SATNPRO1963","24.726","0.34634","5"],
    [41504,"HCEP03730564","2024-12-03 15:15:00","11.8198","3.54764","27.326","2.421428571428572","7.3","3.074","1577.41","0.01","6.04","30.7613","4.81757","27.17","0","SATNPRO1963","25.174","0.3526","5"],
    [41505,"HCEP03730564","2024-12-03 15:30:00","11.8189","3.54797","27.374","2.497142857142857","7.3","3.074","1571.187","0.01","0.54","30.7652","4.81814","28.01","0","SATNPRO1963","25.176","0.35266","5"],
    [41506,"HCEP03730564","2024-12-03 15:45:00","11.8167","3.54849","27.423","2.565714285714286","7.31","2.895","1835.086","0","6.64","30.772","4.81913","28.79","0","SATNPRO1963","25.272000000000002","0.35398","5"],
    [41507,"HCEP03730564","2024-12-03 16:00:00","11.8125","3.54863","27.472","2.675714285714286","7.31","3.078","1553.32","0.01","5.06","30.7768","4.81987","30.02","0","SATNPRO1963","25.419999999999998","0.35604","5"],
    [41508,"HCEP03730564","2024-12-03 16:15:00","11.812","3.54869","27.518","2.812857142857143","7.32","3.078","1547.834","0","0.77","30.7778","4.82003","31.55","0","SATNPRO1963","25.342","0.35492","5"],
    [41509,"HCEP03730564","2024-12-03 16:30:00","11.8126","3.54871","27.556","2.824285714285714","7.32","2.887","1821.391","0","4.24","30.7775","4.81998","31.69","0","SATNPRO1963","25.564","0.35808","5"],
    [41510,"HCEP03730564","2024-12-03 16:45:00","11.8142","3.54883","27.578","2.794285714285714","7.33","3.066","1529.269","0.01","3.12","30.7773","4.81992","31.35","0","SATNPRO1963","25.238","0.35352","5"],
    [41511,"HCEP03730564","2024-12-03 17:00:00","11.8143","3.54881","27.581","2.768571428571429","7.33","3.064","1523.342","0","0","30.777","4.81987","31.06","0","SATNPRO1963","26.49","0.37102","5"],
    [41512,"HCEP03730564","2024-12-03 17:15:00","11.8143","3.5488","27.577","2.75","7.32","2.875","1759.85","0","4.2","30.7769","4.81986","30.85","0","SATNPRO1963","25.244","0.35362","5"],
    [41513,"HCEP03730564","2024-12-03 17:30:00","11.8149","3.54884","27.561","2.755714285714286","7.32","3.062","1499.294","0.01","3.32","30.7768","4.81984","30.92","0","SATNPRO1963","25.166","0.35254","5"],
    [41514,"HCEP03730564","2024-12-03 17:45:00","11.8146","3.54882","27.523","2.751428571428571","7.33","3.061","1494.78","0","0.66","30.7769","4.81986","30.86","0","SATNPRO1963","24.992","0.3501","5"],
    [41515,"HCEP03730564","2024-12-03 18:00:00","11.8146","3.54884","27.485","2.745714285714286","7.32","2.86","1777.48","0","3.8","30.7771","4.81989","30.81","0","SATNPRO1963","25.26","0.3538","5"],
    [41516,"HCEP03730564","2024-12-03 18:15:00","11.8147","3.54881","27.437","2.747142857142857","7.32","3.06","1442.352","0.01","5.99","30.7768","4.81983","30.82","0","SATNPRO1963","25.08","0.35126","5"],
    [41517,"HCEP03730564","2024-12-03 18:30:00","11.8144","3.54879","27.358","2.74","7.33","3.059","1436.87","0","1.01","30.7768","4.81983","30.73","0","SATNPRO1963","25.306","0.35446","5"],
    [41518,"HCEP03730564","2024-12-03 18:45:00","11.8144","3.54877","27.26","2.758571428571429","7.32","2.855","1742.392","0","4.41","30.7766","4.8198","30.94","0","SATNPRO1963","25.354","0.35512","5"],
    [41519,"HCEP03730564","2024-12-03 19:00:00","11.8143","3.54878","27.15","2.774285714285714","7.32","3.086","1418.679","0.01","3.52","30.7768","4.81983","31.13","0","SATNPRO1963","25.458","0.3566","5"],
    [41520,"HCEP03730564","2024-12-03 19:15:00","11.8138","3.54871","27.017","2.781428571428572","7.33","3.085","1414.776","0","0.54","30.7767","4.81981","31.2","0","SATNPRO1963","25.634","0.35906","5"],
    [41521,"HCEP03730564","2024-12-03 19:30:00","11.8146","3.54857","26.867","2.79","7.32","2.878","1669.787","0","3.76","30.7747","4.81951","31.3","0","SATNPRO1963","25.498","0.3571","5"],
    [41522,"HCEP03730564","2024-12-03 19:45:00","11.8143","3.54862","26.693","2.788571428571429","7.32","3.085","1480.771","0.01","5.16","30.7756","4.81963","31.29","0","SATNPRO1963","25.378","0.35546","5"],
    [41523,"HCEP03730564","2024-12-03 20:00:00","11.8148","3.54848","26.513","2.781428571428572","7.32","3.083","1473","0","1.01","30.7738","4.81936","31.21","0","SATNPRO1963","25.282","0.35412","5"],
    [41524,"HCEP03730564","2024-12-03 20:15:00","11.8136","3.54854","26.324","2.768571428571429","7.32","2.914","1679.012","0","4.34","30.7755","4.81961","31.06","0","SATNPRO1963","25.544","0.35776","5"],
    [41525,"HCEP03730564","2024-12-03 20:30:00","11.8144","3.54847","26.124","2.764285714285714","7.33","3.106","1466.663","0.01","3.04","30.7742","4.8194","31.01","0","SATNPRO1963","25.276","0.35402","5"],
    [41526,"HCEP03730564","2024-12-03 20:45:00","11.8152","3.5484","25.906","2.715714285714286","7.33","3.106","1460.105","0","0","30.773","4.81921","30.47","0","SATNPRO1963","25.126","0.35192","5"],
    [41527,"HCEP03730564","2024-12-03 21:00:00","11.8157","3.54833","25.684","2.67","7.32","2.894","1736.363","0","4.79","30.772","4.81905","29.96","0","SATNPRO1963","24.817999999999998","0.34764","5"],
    [41528,"HCEP03730564","2024-12-03 21:15:00","11.8165","3.54825","25.465","2.621428571428571","7.33","3.103","1527.17","0.01","2.95","30.7707","4.81884","29.41","0","SATNPRO1963","24.71","0.3461","5"],
    [41529,"HCEP03730564","2024-12-03 21:30:00","11.8159","3.54807","25.253","2.571428571428572","7.33","3.102","1522.54","0","0.94","30.7694","4.81866","28.85","0","SATNPRO1963","24.526","0.34352","5"],
    [41530,"HCEP03730564","2024-12-03 21:45:00","11.8152","3.54806","25.051","2.565714285714286","7.32","2.928","1792.221","0","5.15","30.77","4.81874","28.79","0","SATNPRO1963","24.986","0.34998","5"],
    [41531,"HCEP03730564","2024-12-03 22:00:00","11.8148","3.5481","24.828","2.618571428571429","7.33","3.083","1503.533","0.01","2.82","30.7708","4.81885","29.37","0","SATNPRO1963","24.922","0.34912","5"],
    [41532,"HCEP03730564","2024-12-03 22:15:00","11.8152","3.54802","24.632","2.647142857142857","7.33","3.081","1498.456","0","0","30.7699","4.81869","29.69","0","SATNPRO1963","24.994","0.35008","5"],
    [41533,"HCEP03730564","2024-12-03 22:30:00","11.8158","3.54787","24.434","2.651428571428572","7.32","2.904","1737.74","0","4.6","30.768","4.81841","29.74","0","SATNPRO1963","25.294","0.35428","5"],
    [41534,"HCEP03730564","2024-12-03 22:45:00","11.8156","3.54779","24.228","2.642857142857143","7.32","3.086","1492.432","0.01","2.95","30.7675","4.81833","29.66","0","SATNPRO1963","24.882","0.3485","5"],
    [41535,"HCEP03730564","2024-12-03 23:00:00","11.8166","3.54756","23.982","2.617142857142857","7.33","3.084","1485.198","0","1.21","30.7645","4.81788","29.36","0","SATNPRO1963","25.214","0.3532","5"],
    [41536,"HCEP03730564","2024-12-03 23:15:00","11.8175","3.54742","23.879","2.588571428571428","7.32","2.873","1736.048","0","6.46","30.7625","4.81758","29.03","0","SATNPRO1963","25.152","0.35234","5"],
    [41537,"HCEP03730564","2024-12-03 23:30:00","11.8182","3.54717","23.868","2.555714285714286","7.32","3.076","1439.186","0.01","3.87","30.7594","4.81713","28.67","0","SATNPRO1963","25.114","0.35178","5"],
    [41538,"HCEP03730564","2024-12-03 23:45:00","11.8182","3.54714","23.863","2.532857142857143","7.32","3.075","1434.776","0","0","30.7592","4.81711","28.42","0","SATNPRO1963","25.236","0.35348","5"],
    [41539,"HCEP03730564","2024-12-04 00:00:00","11.819","3.54695","23.854","2.525714285714286","7.32","2.868","1747.614","0","4.82","30.7567","4.81674","28.33","0","SATNPRO1963","24.892","0.3487","5"],
    [41540,"HCEP03730564","2024-12-04 00:15:00","11.8186","3.54684","23.861","2.5","7.32","3.076","1450.198","0.01","2.1","30.756","4.81665","28.05","0","SATNPRO1963","24.858","0.34814","5"],
    [41541,"HCEP03730564","2024-12-04 00:30:00","11.8188","3.54691","23.925","2.488571428571428","7.32","3.075","1447.176","0","1.33","30.7565","4.81671","27.92","0","SATNPRO1963","24.88","0.34848","5"],
    [41542,"HCEP03730564","2024-12-04 00:45:00","11.8186","3.54682","24","2.477142857142857","7.31","2.87","1744.154","0.01","5.74","30.7557","4.81662","27.79","0","SATNPRO1963","24.728","0.34634","5"],
    [41543,"HCEP03730564","2024-12-04 01:00:00","11.8182","3.54682","24.099","2.464285714285714","7.31","3.085","1507.738","0.01","3.6","30.756","4.81666","27.64","0","SATNPRO1963","24.642","0.34516","5"],
    [41544,"HCEP03730564","2024-12-04 01:15:00","11.819","3.54651","24.211","2.48","7.31","3.083","1502.401","0","0.94","30.7523","4.81614","27.83","0","SATNPRO1963","25.072","0.35122","5"],
    [41545,"HCEP03730564","2024-12-04 01:30:00","11.818","3.54654","24.349","2.532857142857143","7.31","2.924","1794.286","0","4.57","30.7533","4.81631","28.42","0","SATNPRO1963","24.796","0.3473","5"],
    [41546,"HCEP03730564","2024-12-04 01:45:00","11.8181","3.54638","24.522","2.518571428571429","7.31","3.093","1545.949","0.01","3.12","30.7516","4.81608","28.26","0","SATNPRO1963","24.944","0.34938","5"],
    [41547,"HCEP03730564","2024-12-04 02:00:00","11.818","3.54614","24.696","2.487142857142858","7.32","3.093","1539.687","0.01","1.27","30.7494","4.81577","27.9","0","SATNPRO1963","24.794","0.34728","5"],
    [41548,"HCEP03730564","2024-12-04 02:15:00","11.8186","3.54581","24.86","2.46","7.31","2.93","1840.566","0","4.37","30.7456","4.81524","27.6","0","SATNPRO1963","24.802","0.34738","5"],
    [41549,"HCEP03730564","2024-12-04 02:30:00","11.8193","3.54549","25.039","2.428571428571428","7.31","3.098","1631.027","0.01","4.02","30.7419","4.81471","27.25","0","SATNPRO1963","24.72","0.34624","5"],
    [41550,"HCEP03730564","2024-12-04 02:45:00","11.8205","3.54503","25.212","2.381428571428572","7.31","3.098","1624.427","0.01","1.63","30.7364","4.81394","26.72","0","SATNPRO1963","24.81","0.34752","5"],
    [41551,"HCEP03730564","2024-12-04 03:00:00","11.8211","3.54474","25.42","2.345714285714286","7.3","2.983","1881.847","0","3.6","30.733","4.81346","26.31","0","SATNPRO1963","24.618000000000002","0.34482","5"],
    [41552,"HCEP03730564","2024-12-04 03:15:00","11.8225","3.54435","25.6","2.301428571428572","7.3","3.115","1673.387","0","3.43","30.7281","4.81276","25.81","0","SATNPRO1963","24.566","0.34408","5"],
    [41553,"HCEP03730564","2024-12-04 03:30:00","11.8225","3.54398","25.818","2.277142857142857","7.3","3.116","1666.721","0","0.77","30.7244","4.81225","25.54","0","SATNPRO1963","24.46","0.3426","5"],
    [41554,"HCEP03730564","2024-12-04 03:45:00","11.8223","3.54384","26.049","2.274285714285714","7.29","2.993","1885.888","0","4.67","30.7232","4.81209","25.51","0","SATNPRO1963","24.694","0.34588","5"],
    [41555,"HCEP03730564","2024-12-04 04:00:00","11.8222","3.54379","26.29","2.305714285714286","7.29","3.111","1690.573","0.01","2.82","30.7227","4.81204","25.86","0","SATNPRO1963","24.744","0.34658","5"],
    [41556,"HCEP03730564","2024-12-04 04:15:00","11.8219","3.54372","26.495","2.347142857142857","7.3","3.112","1683.215","0","0.94","30.7221","4.81197","26.34","0","SATNPRO1963","24.864","0.34826","5"],
    [41557,"HCEP03730564","2024-12-04 04:30:00","11.8216","3.54364","26.685","2.392857142857143","7.3","2.969","1917.013","0","4.82","30.7215","4.8119","26.84","0","SATNPRO1963","25.21","0.3531","5"],
    [41558,"HCEP03730564","2024-12-04 04:45:00","11.8214","3.54355","26.886","2.402857142857143","7.3","3.085","1674.84","0.01","3.43","30.7208","4.81181","26.96","0","SATNPRO1963","25.12","0.35184","5"],
    [41559,"HCEP03730564","2024-12-04 05:00:00","11.8213","3.54355","27.066","2.4","7.31","3.083","1665.332","0","0","30.7207","4.81181","26.92","0","SATNPRO1963","24.996","0.35012","5"],
    [41560,"HCEP03730564","2024-12-04 05:15:00","11.8214","3.54346","27.229","2.392857142857143","7.3","2.956","1901.725","0","4.27","30.7198","4.81169","26.84","0","SATNPRO1963","24.908","0.3489","5"],
    [41561,"HCEP03730564","2024-12-04 05:30:00","11.8213","3.54338","27.388","2.391428571428572","7.3","3.085","1645.617","0","3.07","30.719","4.81159","26.83","0","SATNPRO1963","25.01","0.35028","5"],
    [41562,"HCEP03730564","2024-12-04 05:45:00","11.8216","3.54333","27.534","2.385714285714286","7.31","3.085","1637.286","0","0.94","30.7182","4.81148","26.77","0","SATNPRO1963","25","0.35016","5"],
    [41563,"HCEP03730564","2024-12-04 06:00:00","11.8222","3.54327","27.681","2.367142857142857","7.3","2.913","1890.901","0","5.45","30.7171","4.81133","26.56","0","SATNPRO1963","24.806","0.34742","5"],
    [41564,"HCEP03730564","2024-12-04 06:15:00","11.8222","3.5432","27.798","2.361428571428572","7.3","3.06","1644.06","0.01","3.21","30.7164","4.81124","26.48","0","SATNPRO1963","24.678","0.34568","5"],
    [41565,"HCEP03730564","2024-12-04 06:30:00","11.8222","3.54312","27.898","2.341428571428572","7.3","3.057","1638.326","0","0.94","30.7156","4.81112","26.26","0","SATNPRO1963","24.752","0.34672","5"],
    [41566,"HCEP03730564","2024-12-04 06:45:00","11.8227","3.54303","27.972","2.315714285714286","7.3","2.918","1894.106","0","3.6","30.7142","4.81092","25.98","0","SATNPRO1963","25.352","0.35512","5"],
    [41567,"HCEP03730564","2024-12-04 07:00:00","11.823","3.54299","28.016","2.302857142857143","7.29","3.089","1616.611","0.01","3.16","30.7137","4.81084","25.83","0","SATNPRO1963","24.57","0.34414","5"],
    [41568,"HCEP03730564","2024-12-04 07:15:00","11.8231","3.54298","28.04","2.285714285714286","7.29","3.087","1609.522","0","0.54","30.7134","4.81081","25.64","0","SATNPRO1963","24.794","0.34728","5"],
    [41569,"HCEP03730564","2024-12-04 07:30:00","11.8224","3.54303","28.071","2.278571428571428","7.29","2.951","1851.499","0","5.23","30.7144","4.81096","25.56","0","SATNPRO1963","24.82","0.34762","5"],
    [41570,"HCEP03730564","2024-12-04 07:45:00","11.8221","3.54303","28.11","2.284285714285714","7.29","3.099","1590.746","0.01","4.2","30.7147","4.81101","25.62","0","SATNPRO1963","25.002","0.3502","5"],
    [41571,"HCEP03730564","2024-12-04 08:00:00","11.8214","3.54303","28.114","2.28","7.3","3.101","1582.628","0","1.33","30.7152","4.81109","25.58","0","SATNPRO1963","24.502","0.34316","5"],
    [41572,"HCEP03730564","2024-12-04 08:15:00","11.8218","3.543","28.109","2.287142857142857","7.29","2.918","1849.35","0","5.15","30.7147","4.81101","25.66","0","SATNPRO1963","24.676","0.34566","5"],
    [41573,"HCEP03730564","2024-12-04 08:30:00","11.8216","3.543","28.082","2.294285714285714","7.29","3.089","1583.839","0.01","4.63","30.7148","4.81103","25.73","0","SATNPRO1963","24.804000000000002","0.34746","5"],
    [41574,"HCEP03730564","2024-12-04 08:45:00","11.8212","3.54304","28.059","2.302857142857143","7.29","3.088","1578.35","0","0.94","30.7155","4.81113","25.83","0","SATNPRO1963","24.578","0.34424","5"],
    [41575,"HCEP03730564","2024-12-04 09:00:00","11.8207","3.54306","28.009","2.295714285714286","7.29","2.924","1828.44","0","4.7","30.7163","4.81124","25.76","0","SATNPRO1963","24.496","0.34308","5"],
    [41576,"HCEP03730564","2024-12-04 09:15:00","11.8201","3.54311","27.971","2.275714285714286","7.3","3.082","1572.219","0","3.43","30.7172","4.81138","25.53","0","SATNPRO1963","24.604","0.34464","5"],
    [41577,"HCEP03730564","2024-12-04 09:30:00","11.8197","3.54315","27.929","2.287142857142857","7.3","3.083","1563.457","0","0.77","30.7179","4.81149","25.65","0","SATNPRO1963","24.666","0.34552","5"],
    [41578,"HCEP03730564","2024-12-04 09:45:00","11.819","3.54323","27.856","2.302857142857143","7.3","2.909","1843.413","0","4.51","30.7194","4.8117","25.82","0","SATNPRO1963","24.438","0.34232","5"],
    [41579,"HCEP03730564","2024-12-04 10:00:00","11.8185","3.54337","27.793","2.31","7.3","3.083","1611.571","0","4.82","30.7211","4.81194","25.91","0","SATNPRO1963","24.498","0.34316","5"],
    [41580,"HCEP03730564","2024-12-04 10:15:00","11.8184","3.54327","27.722","2.317142857142857","7.3","3.082","1604.754","0","1.21","30.7202","4.81182","26","0","SATNPRO1963","24.57","0.3442","5"],
    [41581,"HCEP03730564","2024-12-04 10:30:00","11.8187","3.54326","27.64","2.321428571428572","7.29","2.953","1878.382","0","3.68","30.7199","4.81176","26.03","0","SATNPRO1963","24.746","0.3466","5"],
    [41582,"HCEP03730564","2024-12-04 10:45:00","11.8205","3.54332","27.552","2.331428571428571","7.29","3.074","1621.923","0","4.24","30.7191","4.81162","26.15","0","SATNPRO1963","24.626","0.3449","5"],
    [41583,"HCEP03730564","2024-12-04 11:00:00","11.8196","3.54337","27.477","2.341428571428572","7.29","3.075","1613.644","0","0.77","30.7203","4.8118","26.27","0","SATNPRO1963","25.188000000000002","0.35278","5"],
    [41584,"HCEP03730564","2024-12-04 11:15:00","11.8175","3.54405","27.405","2.34","7.29","2.914","1862.324","0","4.34","30.7286","4.813","26.25","0","SATNPRO1963","24.154","0.33834","5"],
    [41585,"HCEP03730564","2024-12-04 11:30:00","11.8173","3.54448","27.331","2.312857142857143","7.29","3.078","1593.427","0","4.34","30.7329","4.81361","25.95","0","SATNPRO1963","23.86","0.3342","5"],
    [41586,"HCEP03730564","2024-12-04 11:45:00","11.8166","3.54515","27.256","2.312857142857143","7.3","3.079","1585.057","0","1.53","30.74","4.8146","25.94","0","SATNPRO1963","24.368","0.34128","5"],
    [41587,"HCEP03730564","2024-12-04 12:00:00","11.8173","3.54524","27.177","2.321428571428572","7.29","2.914","1863.885","0","6.26","30.7404","4.81465","26.05","0","SATNPRO1963","24.434","0.34218","5"],
    [41588,"HCEP03730564","2024-12-04 12:15:00","11.8172","3.54539","27.114","2.304285714285714","7.3","3.072","1583.521","0.01","3.3","30.7419","4.81486","25.85","0","SATNPRO1963","24.16","0.3384","5"],
    [41589,"HCEP03730564","2024-12-04 12:30:00","11.8177","3.54564","27.055","2.292857142857143","7.3","3.071","1578.178","0","1.08","30.7438","4.81512","25.73","0","SATNPRO1963","24.342","0.34098","5"],
    [41590,"HCEP03730564","2024-12-04 12:45:00","11.8177","3.54571","27.007","2.281428571428572","7.3","2.91","1849.475","0","4.27","30.7446","4.81522","25.6","0","SATNPRO1963","24.37","0.34138","5"],
    [41591,"HCEP03730564","2024-12-04 13:00:00","11.8179","3.54582","26.968","2.288571428571429","7.3","3.071","1595.922","0.01","3.47","30.7455","4.81534","25.67","0","SATNPRO1963","24.458","0.34258","5"],
    [41592,"HCEP03730564","2024-12-04 13:15:00","11.8176","3.54594","26.934","2.301428571428572","7.3","3.071","1588.727","0","0","30.7469","4.81555","25.82","0","SATNPRO1963","24.605999999999998","0.34462","5"],
    [41593,"HCEP03730564","2024-12-04 13:30:00","11.8175","3.54599","26.92","2.312857142857143","7.29","2.915","1833.084","0","3.99","30.7475","4.81564","25.95","0","SATNPRO1963","24.86","0.34824","5"],
    [41594,"HCEP03730564","2024-12-04 13:45:00","11.8178","3.54606","26.909","2.315714285714286","7.29","3.082","1593.066","0","3.72","30.7479","4.81569","25.98","0","SATNPRO1963","24.31","0.34048","5"],
    [41595,"HCEP03730564","2024-12-04 14:00:00","11.8176","3.5461","26.92","2.308571428571429","7.3","3.082","1586.467","0","1.08","30.7485","4.81577","25.89","0","SATNPRO1963","24.258","0.33974","5"],
    [41596,"HCEP03730564","2024-12-04 14:15:00","11.8178","3.54614","26.934","2.304285714285714","7.29","2.887","1807.034","0","7.8","30.7486","4.81579","25.85","0","SATNPRO1963","24.476","0.34278","5"],
    [41597,"HCEP03730564","2024-12-04 14:30:00","11.8175","3.54619","26.974","2.297142857142857","7.29","3.078","1542.703","0","2.74","30.7494","4.81591","25.77","0","SATNPRO1963","25.026","0.35052","5"],
    [41598,"HCEP03730564","2024-12-04 14:45:00","11.8179","3.54619","27.015","2.277142857142857","7.3","3.079","1536.026","0","0.77","30.7491","4.81586","25.54","0","SATNPRO1963","24.854","0.34814","5"],
    [41599,"HCEP03730564","2024-12-04 15:00:00","11.8182","3.54623","27.054","2.261428571428572","7.3","2.911","1756.177","0","4.41","30.7491","4.81586","25.37","0","SATNPRO1963","24.688","0.34582","5"],
    [41600,"HCEP03730564","2024-12-04 15:15:00","11.8176","3.54629","27.096","2.257142857142857","7.3","3.078","1522.865","0","3.47","30.7503","4.81603","25.31","0","SATNPRO1963","24.53","0.34356","5"],
    [41601,"HCEP03730564","2024-12-04 15:30:00","11.8171","3.54632","27.141","2.285714285714286","7.3","3.078","1514.412","0","1.44","30.7509","4.81614","25.63","0","SATNPRO1963","24.524","0.3435","5"],
    [41602,"HCEP03730564","2024-12-04 15:45:00","11.815","3.54647","27.194","2.335714285714286","7.3","2.898","1784.006","0","5.31","30.754","4.81661","26.2","0","SATNPRO1963","24.534","0.34362","5"],
    [41603,"HCEP03730564","2024-12-04 16:00:00","11.8133","3.54663","27.237","2.395714285714286","7.3","3.075","1509.208","0","4.51","30.7569","4.81704","26.88","0","SATNPRO1963","24.338","0.3409","5"],
    [41604,"HCEP03730564","2024-12-04 16:15:00","11.8129","3.54683","27.281","2.42","7.3","3.076","1502.847","0","0.77","30.7593","4.81738","27.14","0","SATNPRO1963","24.336","0.3409","5"],
    [41605,"HCEP03730564","2024-12-04 16:30:00","11.8123","3.54696","27.318","2.414285714285714","7.3","2.893","1751.869","0","4.2","30.761","4.81763","27.08","0","SATNPRO1963","24.644","0.34522","5"],
    [41606,"HCEP03730564","2024-12-04 16:45:00","11.8129","3.54699","27.359","2.42","7.3","3.068","1523.033","0.01","3.07","30.7607","4.81759","27.15","0","SATNPRO1963","24.682","0.34572","5"],
    [41607,"HCEP03730564","2024-12-04 17:00:00","11.8135","3.54694","27.383","2.422857142857143","7.3","3.066","1516.32","0","1.01","30.7598","4.81745","27.19","0","SATNPRO1963","24.824","0.3477","5"],
    [41608,"HCEP03730564","2024-12-04 17:15:00","11.8146","3.54687","27.419","2.404285714285714","7.3","2.883","1772.517","0","4.57","30.7581","4.8172","26.97","0","SATNPRO1963","24.472","0.3428","5"],
    [41609,"HCEP03730564","2024-12-04 17:30:00","11.8158","3.54697","27.447","2.358571428571428","7.3","3.045","1501.72","0.01","3.58","30.7581","4.81719","26.46","0","SATNPRO1963","24.740000000000002","0.34652","5"],
    [41610,"HCEP03730564","2024-12-04 17:45:00","11.8163","3.54695","27.456","2.314285714285714","7.3","3.044","1494.78","0","0.54","30.7576","4.8171","25.97","0","SATNPRO1963","24.44","0.34236","5"],
    [41611,"HCEP03730564","2024-12-04 18:00:00","11.817","3.54698","27.434","2.284285714285714","7.29","2.848","1744.835","0","4.51","30.7572","4.81704","25.63","0","SATNPRO1963","24.474","0.34282","5"],
    [41612,"HCEP03730564","2024-12-04 18:15:00","11.8171","3.54699","27.411","2.27","7.29","3.052","1451.361","0.01","2.6","30.7573","4.81705","25.47","0","SATNPRO1963","24.3","0.34036","5"],
    [41613,"HCEP03730564","2024-12-04 18:30:00","11.8173","3.54701","27.389","2.255714285714286","7.29","3.052","1445.674","0","0.86","30.7573","4.81705","25.31","0","SATNPRO1963","25.604","0.35864","5"],
    [41614,"HCEP03730564","2024-12-04 18:45:00","11.8175","3.547","27.358","2.244285714285714","7.29","2.846","1709.452","0","5.51","30.7571","4.81701","25.18","0","SATNPRO1963","24.418000000000003","0.34202","5"],
    [41615,"HCEP03730564","2024-12-04 19:00:00","11.8175","3.54695","27.297","2.232857142857143","7.29","3.035","1450.185","0.01","3.43","30.7566","4.81695","25.04","0","SATNPRO1963","24.282","0.3401","5"],
    [41616,"HCEP03730564","2024-12-04 19:15:00","11.8181","3.54694","27.217","2.208571428571429","7.29","3.035","1444.391","0","1.01","30.756","4.81684","24.77","0","SATNPRO1963","24.348","0.34102","5"],
    [41617,"HCEP03730564","2024-12-04 19:30:00","11.8202","3.54699","27.119","2.142857142857143","7.28","2.841","1715.096","0","4.7","30.7548","4.81664","24.04","0","SATNPRO1963","23.94","0.33528","5"],
    [41618,"HCEP03730564","2024-12-04 19:45:00","11.8208","3.54712","27.024","2.028571428571428","7.28","3.051","1451.025","0.01","6.03","30.7556","4.81673","22.77","0","SATNPRO1963","24.104","0.33764","5"],
    [41619,"HCEP03730564","2024-12-04 20:00:00","11.8214","3.54715","26.897","1.992857142857143","7.27","3.052","1448.174","0.01","0.94","30.7555","4.81671","22.36","0","SATNPRO1963","24.104","0.33764","5"],
    [41620,"HCEP03730564","2024-12-04 20:15:00","11.8214","3.54714","26.749","1.981428571428572","7.27","2.864","1707.979","0","3.43","30.7553","4.81667","22.23","0","SATNPRO1963","24.116","0.33782","5"],
    [41621,"HCEP03730564","2024-12-04 20:30:00","11.8212","3.54708","26.597","1.984285714285714","7.27","3.042","1437.891","0.01","2.95","30.7551","4.81663","22.26","0","SATNPRO1963","24.216","0.33916","5"],
    [41622,"HCEP03730564","2024-12-04 20:45:00","11.8212","3.54703","26.427","1.991428571428571","7.27","3.041","1432.724","0","0","30.7546","4.81655","22.34","0","SATNPRO1963","24.232","0.3394","5"],
    [41623,"HCEP03730564","2024-12-04 21:00:00","11.8217","3.54697","26.252","1.991428571428571","7.27","2.855","1698.293","0","4.47","30.7537","4.81642","22.34","0","SATNPRO1963","24.056","0.33694","5"],
    [41624,"HCEP03730564","2024-12-04 21:15:00","11.8217","3.54691","26.037","1.961428571428572","7.27","3.037","1438.478","0","3.95","30.7532","4.81633","22","0","SATNPRO1963","24.27","0.33996","5"],
    [41625,"HCEP03730564","2024-12-04 21:30:00","11.8223","3.54683","25.851","1.95","7.27","3.036","1433.322","0","0","30.752","4.81614","21.87","0","SATNPRO1963","24.246","0.33964","5"],
    [41626,"HCEP03730564","2024-12-04 21:45:00","11.8223","3.54676","25.628","1.957142857142857","7.26","2.838","1750.775","0","4.7","30.7514","4.81605","21.96","0","SATNPRO1963","24.434","0.34226","5"],
    [41627,"HCEP03730564","2024-12-04 22:00:00","11.8214","3.54672","25.446","1.961428571428572","7.26","3.024","1419.368","0.01","3.6","30.7519","4.81612","22","0","SATNPRO1963","23.862","0.33422","5"],
    [41628,"HCEP03730564","2024-12-04 22:15:00","11.8213","3.54666","25.24","1.954285714285714","7.26","3.025","1411.622","0","0.77","30.7515","4.81605","21.92","0","SATNPRO1963","23.724","0.33232","5"],
    [41629,"HCEP03730564","2024-12-04 22:30:00","11.8211","3.54663","24.991","1.92","7.26","2.816","1734.531","0","3.21","30.7514","4.81603","21.54","0","SATNPRO1963","23.782","0.33314","5"],
    [41630,"HCEP03730564","2024-12-04 22:45:00","11.8216","3.54657","24.778","1.907142857142857","7.26","3.047","1417.518","0.01","3.97","30.7505","4.81589","21.39","0","SATNPRO1963","23.622","0.3309","5"],
    [41631,"HCEP03730564","2024-12-04 23:00:00","11.8181","3.54623","24.553","1.927142857142857","7.26","3.047","1414.844","0","0.77","30.7502","4.81587","21.61","0","SATNPRO1963","24.214","0.33918","5"],
    [41632,"HCEP03730564","2024-12-04 23:15:00","11.8157","3.54612","24.34","2.118571428571429","7.27","2.862","1710.697","0","5.53","30.7512","4.81604","23.77","0","SATNPRO1963","24.486","0.34294","5"],
    [41633,"HCEP03730564","2024-12-04 23:30:00","11.8126","3.54585","24.229","2.268571428571429","7.27","3.063","1419.733","0.01","3.6","30.7512","4.81608","25.44","0","SATNPRO1963","24.736","0.3465","5"],
    [41634,"HCEP03730564","2024-12-04 23:45:00","11.812","3.54579","24.121","2.394285714285714","7.28","3.065","1414.439","0","0.38","30.7511","4.81607","26.86","0","SATNPRO1963","24.562","0.34404","5"],
    [41635,"HCEP03730564","2024-12-05 00:00:00","11.8122","3.5457","24.014","2.418571428571429","7.28","2.835","1687.138","0","7.34","30.7503","4.81594","27.13","0","SATNPRO1963","24.86","0.3482","5"],
    [41636,"HCEP03730564","2024-12-05 00:15:00","11.8119","3.54562","23.997","2.408571428571428","7.29","3.031","1415.858","0.01","3.85","30.7497","4.81586","27.01","0","SATNPRO1963","24.91","0.34892","5"],
    [41637,"HCEP03730564","2024-12-05 00:30:00","11.8113","3.5455","23.967","2.444285714285714","7.29","3.032","1410.827","0","1.08","30.7491","4.81578","27.42","0","SATNPRO1963","24.964","0.34968","5"],
    [41638,"HCEP03730564","2024-12-05 00:45:00","11.8101","3.54541","23.967","2.464285714285714","7.29","2.805","1712.498","0","5.06","30.7492","4.81581","27.64","0","SATNPRO1963","25.118","0.35182","5"],
    [41639,"HCEP03730564","2024-12-05 01:00:00","11.8094","3.54533","23.98","2.505714285714286","7.3","3.023","1441.354","0.01","4.6","30.749","4.8158","28.1","0","SATNPRO1963","24.945999999999998","0.34942","5"],
    [41640,"HCEP03730564","2024-12-05 01:15:00","11.81","3.54537","24.058","2.504285714285714","7.3","3.022","1434.816","0","0","30.7488","4.81576","28.09","0","SATNPRO1963","24.599999999999998","0.34456","5"],
    [41641,"HCEP03730564","2024-12-05 01:30:00","11.8098","3.54533","24.146","2.475714285714286","7.3","2.902","1668.5","0","4.54","30.7486","4.81575","27.77","0","SATNPRO1963","24.602","0.3446","5"],
    [41642,"HCEP03730564","2024-12-05 01:45:00","11.8088","3.54521","24.246","2.475714285714286","7.3","3.051","1469.914","0.01","3.91","30.7482","4.8157","27.77","0","SATNPRO1963","24.65","0.34522","5"],
    [41643,"HCEP03730564","2024-12-05 02:00:00","11.8077","3.54503","24.357","2.545714285714286","7.31","3.053","1464.707","0","0.77","30.7473","4.8156","28.55","0","SATNPRO1963","24.922","0.3491","5"],
    [41644,"HCEP03730564","2024-12-05 02:15:00","11.8073","3.54498","24.503","2.621428571428571","7.3","2.911","1717.983","0","3.84","30.7471","4.81558","29.4","0","SATNPRO1963","25.06","0.35104","5"],
    [41645,"HCEP03730564","2024-12-05 02:30:00","11.8074","3.54488","24.677","2.647142857142857","7.31","3.077","1548.347","0","4.24","30.746","4.81544","29.69","0","SATNPRO1963","24.823999999999998","0.3477","5"],
    [41646,"HCEP03730564","2024-12-05 02:45:00","11.808","3.54474","24.812","2.628571428571429","7.31","3.079","1541.796","0","0","30.7442","4.81518","29.48","0","SATNPRO1963","24.982","0.3499","5"],
    [41647,"HCEP03730564","2024-12-05 03:00:00","11.8082","3.54465","24.97","2.598571428571429","7.31","2.886","1850.807","0","4.27","30.743","4.81503","29.15","0","SATNPRO1963","24.704","0.34602","5"],
    [41648,"HCEP03730564","2024-12-05 03:15:00","11.8094","3.54459","25.157","2.554285714285714","7.31","3.054","1621.267","0","3.6","30.7414","4.81479","28.65","0","SATNPRO1963","24.73","0.34638","5"],
    [41649,"HCEP03730564","2024-12-05 03:30:00","11.8105","3.54452","25.339","2.501428571428571","7.31","3.054","1616.086","0.01","0","30.7397","4.81455","28.05","0","SATNPRO1963","24.69","0.34586","5"],
    [41650,"HCEP03730564","2024-12-05 03:45:00","11.8131","3.54439","25.525","2.404285714285714","7.3","2.971","1828.844","0","3.64","30.7363","4.81404","26.98","0","SATNPRO1963","24.464","0.34262","5"],
    [41651,"HCEP03730564","2024-12-05 04:00:00","11.8172","3.54425","25.72","2.218571428571428","7.29","3.092","1641.757","0.01","2.82","30.7314","4.81331","24.88","0","SATNPRO1963","24.384","0.34152","5"],
    [41652,"HCEP03730564","2024-12-05 04:15:00","11.8186","3.54407","25.933","2.128571428571429","7.29","3.091","1635.763","0.01","1.33","30.7285","4.81288","23.87","0","SATNPRO1963","24.268","0.33994","5"],
    [41653,"HCEP03730564","2024-12-05 04:30:00","11.8195","3.54382","26.141","2.095714285714286","7.28","2.932","1920.164","0","3.34","30.7252","4.81241","23.5","0","SATNPRO1963","24.504","0.3432","5"],
    [41654,"HCEP03730564","2024-12-05 04:45:00","11.8196","3.54368","26.372","2.078571428571429","7.27","3.061","1664.756","0","3.39","30.7237","4.81222","23.31","0","SATNPRO1963","24.458","0.34256","5"],
    [41655,"HCEP03730564","2024-12-05 05:00:00","11.8199","3.54346","26.585","2.061428571428571","7.28","3.064","1659.984","0","0.77","30.7212","4.81187","23.12","0","SATNPRO1963","24.162","0.3384","5"],
    [41656,"HCEP03730564","2024-12-05 05:15:00","11.82","3.54328","26.777","2.042857142857143","7.27","2.916","1940.988","0","3.21","30.7194","4.81163","22.91","0","SATNPRO1963","24.232","0.3394","5"],
    [41657,"HCEP03730564","2024-12-05 05:30:00","11.8206","3.54306","26.971","2.021428571428571","7.27","3.049","1649.676","0","5.17","30.7167","4.81125","22.67","0","SATNPRO1963","24.296","0.34032","5"],
    [41658,"HCEP03730564","2024-12-05 05:45:00","11.8202","3.54284","27.138","1.994285714285714","7.27","3.051","1639.175","0.01","0.77","30.7148","4.811","22.36","0","SATNPRO1963","24.284","0.34014","5"],
    [41659,"HCEP03730564","2024-12-05 06:00:00","11.8207","3.54267","27.3","1.98","7.27","2.877","1901.469","0","3.72","30.7128","4.81072","22.21","0","SATNPRO1963","24.476","0.34284","5"],
    [41660,"HCEP03730564","2024-12-05 06:15:00","11.8208","3.54266","27.436","1.974285714285714","7.27","3.067","1688.203","0","2.97","30.7125","4.81068","22.15","0","SATNPRO1963","24.486","0.34298","5"],
    [41661,"HCEP03730564","2024-12-05 06:30:00","11.8211","3.54265","27.569","1.975714285714286","7.27","3.066","1680.42","0","0.94","30.7121","4.81062","22.17","0","SATNPRO1963","24.478","0.3429","5"],
    [41662,"HCEP03730564","2024-12-05 06:45:00","11.8215","3.5426","27.709","1.972857142857143","7.27","2.911","1907.065","0","5.82","30.7112","4.8105","22.13","0","SATNPRO1963","24.378","0.34148","5"],
    [41663,"HCEP03730564","2024-12-05 07:00:00","11.8219","3.54254","27.827","1.958571428571429","7.26","3.057","1645.91","0.01","2.82","30.7102","4.81037","21.97","0","SATNPRO1963","24.264","0.3399","5"],
    [41664,"HCEP03730564","2024-12-05 07:15:00","11.8224","3.5425","27.928","1.938571428571429","7.27","3.056","1639.307","0","1.44","30.7095","4.81026","21.74","0","SATNPRO1963","24.506","0.34322","5"],
    [41665,"HCEP03730564","2024-12-05 07:30:00","11.8226","3.5424","27.996","1.921428571428572","7.26","2.898","1873.756","0","5.97","30.7083","4.81009","21.55","0","SATNPRO1963","24.414","0.34196","5"],
    [41666,"HCEP03730564","2024-12-05 07:45:00","11.8227","3.5424","28.04","1.904285714285714","7.25","3.056","1572.577","0","3.8","30.7082","4.81008","21.36","0","SATNPRO1963","24.13","0.33802","5"],
    [41667,"HCEP03730564","2024-12-05 08:00:00","11.8231","3.54241","28.052","1.89","7.26","3.056","1565.855","0","0.77","30.708","4.81004","21.2","0","SATNPRO1963","24.428","0.3421","5"],
    [41668,"HCEP03730564","2024-12-05 08:15:00","11.8225","3.54242","28.086","1.88","7.26","2.868","1851.09","0","4.79","30.7085","4.81013","21.09","0","SATNPRO1963","24.426000000000002","0.34214","5"],
    [41669,"HCEP03730564","2024-12-05 08:30:00","11.8221","3.54242","28.129","1.885714285714286","7.26","3.037","1564.043","0.01","2.77","30.7089","4.81019","21.14","0","SATNPRO1963","24.222","0.33926","5"],
    [41670,"HCEP03730564","2024-12-05 08:45:00","11.8218","3.54243","28.134","1.892857142857143","7.26","3.037","1557.912","0","0","30.7091","4.81023","21.23","0","SATNPRO1963","24.26","0.33978","5"],
    [41671,"HCEP03730564","2024-12-05 09:00:00","11.8215","3.54244","28.118","1.905714285714286","7.25","2.864","1793.698","0","3.02","30.7095","4.81028","21.37","0","SATNPRO1963","24.8","0.34738","5"],
    [41672,"HCEP03730564","2024-12-05 09:15:00","11.8212","3.54242","28.098","1.917142857142857","7.26","3.029","1500.729","0.01","2.95","30.7096","4.8103","21.51","0","SATNPRO1963","24.188","0.3388","5"],
    [41673,"HCEP03730564","2024-12-05 09:30:00","11.8205","3.54242","28.065","1.922857142857143","7.26","3.029","1497.578","0","0","30.7102","4.8104","21.57","0","SATNPRO1963","24.336","0.34088","5"],
    [41674,"HCEP03730564","2024-12-05 09:45:00","11.8201","3.54238","28.014","1.912857142857143","7.26","2.85","1761.391","0","4.6","30.7101","4.81038","21.46","0","SATNPRO1963","24.233999999999998","0.33942","5"],
    [41675,"HCEP03730564","2024-12-05 10:00:00","11.8192","3.54233","27.945","1.91","7.26","3.049","1502.71","0.01","3.23","30.7104","4.81043","21.42","0","SATNPRO1963","24.13","0.338","5"],
    [41676,"HCEP03730564","2024-12-05 10:15:00","11.8184","3.54237","27.883","1.914285714285714","7.27","3.049","1497.425","0","0.38","30.7115","4.8106","21.46","0","SATNPRO1963","24.278","0.34006","5"],
    [41677,"HCEP03730564","2024-12-05 10:30:00","11.8176","3.54275","27.836","1.934285714285714","7.26","2.922","1735.999","0","4.06","30.7158","4.81121","21.69","0","SATNPRO1963","23.932","0.33524","5"],
    [41678,"HCEP03730564","2024-12-05 10:45:00","11.8176","3.54317","27.773","1.962857142857143","7.26","3.081","1582.054","0.01","9.25","30.7199","4.81178","22.02","0","SATNPRO1963","23.928","0.33514","5"],
    [41679,"HCEP03730564","2024-12-05 11:00:00","11.8178","3.54343","27.693","1.988571428571428","7.26","3.082","1570.615","0","0.94","30.7223","4.81212","22.31","0","SATNPRO1963","23.938","0.33528","5"],
    [41680,"HCEP03730564","2024-12-05 11:15:00","11.8173","3.54369","27.617","2.002857142857143","7.26","2.962","1742.073","0.01","4.06","30.7253","4.81254","22.47","0","SATNPRO1963","24.114","0.33782","5"],
    [41681,"HCEP03730564","2024-12-05 11:30:00","11.8152","3.54388","27.532","2.034285714285714","7.26","3.065","1563.359","0.01","3.91","30.7288","4.81307","22.81","0","SATNPRO1963","24.016","0.33638","5"],
    [41682,"HCEP03730564","2024-12-05 11:45:00","11.8139","3.54405","27.443","2.092857142857143","7.27","3.065","1555.108","0","0.54","30.7316","4.81348","23.48","0","SATNPRO1963","24.116","0.33782","5"],
    [41683,"HCEP03730564","2024-12-05 12:00:00","11.8129","3.54407","27.359","2.167142857142857","7.27","2.909","1757.337","0","5.84","30.7327","4.81363","24.3","0","SATNPRO1963","24.164","0.33844","5"],
    [41684,"HCEP03730564","2024-12-05 12:15:00","11.8128","3.54353","27.279","2.207142857142857","7.27","3.043","1533.91","0","3.41","30.7275","4.81291","24.75","0","SATNPRO1963","24.058","0.33698","5"],
    [41685,"HCEP03730564","2024-12-05 12:30:00","11.8131","3.5442","27.21","2.245714285714286","7.27","3.044","1526.043","0","0","30.7338","4.81378","25.19","0","SATNPRO1963","24.26","0.33982","5"],
    [41686,"HCEP03730564","2024-12-05 12:45:00","11.8131","3.54425","27.125","2.21","7.27","2.936","1694.228","0.01","3.34","30.7342","4.81384","24.8","0","SATNPRO1963","24.244","0.33958","5"],
    [41687,"HCEP03730564","2024-12-05 13:00:00","11.8137","3.54423","27.041","2.194285714285714","7.27","3.064","1527.132","0.01","5.83","30.7336","4.81374","24.61","0","SATNPRO1963","24.294","0.3403","5"],
    [41688,"HCEP03730564","2024-12-05 13:15:00","11.8137","3.54434","26.976","2.188571428571429","7.27","3.064","1519.505","0","0.38","30.7346","4.81388","24.55","0","SATNPRO1963","24.524","0.3435","5"],
    [41689,"HCEP03730564","2024-12-05 13:30:00","11.8131","3.54444","26.917","2.187142857142857","7.27","2.91","1709.435","0","4.85","30.7361","4.81409","24.53","0","SATNPRO1963","24.308","0.34048","5"],
    [41690,"HCEP03730564","2024-12-05 13:45:00","11.8134","3.54449","26.867","2.197142857142857","7.27","3.058","1519.627","0.01","7.22","30.7364","4.81413","24.64","0","SATNPRO1963","24.464000000000002","0.34268","5"],
    [41691,"HCEP03730564","2024-12-05 14:00:00","11.8139","3.54458","26.832","2.198571428571428","7.27","3.058","1510.743","0","1.08","30.7368","4.81418","24.67","0","SATNPRO1963","24.554","0.3439","5"],
    [41692,"HCEP03730564","2024-12-05 14:15:00","11.8141","3.54462","26.813","2.177142857142857","7.27","2.864","1776.085","0","4.17","30.7371","4.81421","24.42","0","SATNPRO1963","24.144","0.33822","5"],
    [41693,"HCEP03730564","2024-12-05 14:30:00","11.8143","3.54466","26.816","2.141428571428572","7.27","3.046","1494.95","0.01","3.97","30.7374","4.81425","24.02","0","SATNPRO1963","24.188","0.33882","5"],
    [41694,"HCEP03730564","2024-12-05 14:45:00","11.8144","3.54471","26.822","2.134285714285714","7.27","3.045","1487.445","0","0.94","30.7377","4.8143","23.94","0","SATNPRO1963","24.21","0.33908","5"],
    [41695,"HCEP03730564","2024-12-05 15:00:00","11.8144","3.54475","26.836","2.132857142857143","7.26","2.857","1742.118","0","3.64","30.7381","4.81435","23.93","0","SATNPRO1963","24.056","0.33696","5"],
    [41696,"HCEP03730564","2024-12-05 15:15:00","11.814","3.54478","26.847","2.121428571428571","7.27","3.061","1526.666","0.01","4.55","30.7388","4.81445","23.79","0","SATNPRO1963","24.46","0.34258","5"],
    [41697,"HCEP03730564","2024-12-05 15:30:00","11.8136","3.54481","26.871","2.142857142857143","7.27","3.062","1520.362","0","0.86","30.7394","4.81454","24.04","0","SATNPRO1963","24.18","0.33864","5"],
    [41698,"HCEP03730564","2024-12-05 15:45:00","11.8134","3.54482","26.902","2.16","7.27","2.88","1788.494","0","4.47","30.7396","4.81458","24.22","0","SATNPRO1963","24.06","0.337","5"],
    [41699,"HCEP03730564","2024-12-05 16:00:00","11.8133","3.54486","26.942","2.165714285714286","7.27","3.047","1562.693","0.01","6.09","30.7401","4.81465","24.3","0","SATNPRO1963","24.214","0.33916","5"],
    [41700,"HCEP03730564","2024-12-05 16:15:00","11.8125","3.54488","26.957","2.187142857142857","7.28","3.045","1554.809","0","0.54","30.7409","4.81478","24.53","0","SATNPRO1963","24.184","0.33874","5"],
    [41701,"HCEP03730564","2024-12-05 16:30:00","11.8118","3.54495","27.003","2.224285714285714","7.28","2.844","1829.421","0","4.31","30.7421","4.81496","24.95","0","SATNPRO1963","24.524","0.34352","5"],
    [41702,"HCEP03730564","2024-12-05 16:45:00","11.811","3.54496","27.045","2.282857142857143","7.28","3.009","1588.369","0.01","3.72","30.7429","4.81508","25.6","0","SATNPRO1963","24.624","0.34492","5"],
    [41703,"HCEP03730564","2024-12-05 17:00:00","11.8102","3.54501","27.123","2.32","7.29","3.008","1579.986","0","1.08","30.744","4.81525","26.02","0","SATNPRO1963","24.686","0.3458","5"],
    [41704,"HCEP03730564","2024-12-05 17:15:00","11.8097","3.54511","27.159","2.35","7.28","2.845","1807.91","0","4.67","30.7454","4.81547","26.36","0","SATNPRO1963","24.594","0.3445","5"],
    [41705,"HCEP03730564","2024-12-05 17:30:00","11.8084","3.54527","27.208","2.392857142857143","7.29","3.024","1520.929","0.01","5.44","30.7479","4.81584","26.84","0","SATNPRO1963","24.772000000000002","0.34698","5"],
    [41706,"HCEP03730564","2024-12-05 17:45:00","11.8076","3.54542","27.234","2.45","7.29","3.025","1513.656","0","0","30.75","4.81615","27.47","0","SATNPRO1963","24.916","0.34898","5"],
    [41707,"HCEP03730564","2024-12-05 18:00:00","11.8074","3.54555","27.269","2.481428571428572","7.29","2.826","1766.31","0","6.37","30.7515","4.81636","27.83","0","SATNPRO1963","24.79","0.34722","5"],
    [41708,"HCEP03730564","2024-12-05 18:15:00","11.8071","3.54573","27.268","2.487142857142858","7.29","3.033","1500.102","0.01","2.6","30.7534","4.81664","27.9","0","SATNPRO1963","24.721999999999998","0.34626","5"],
    [41709,"HCEP03730564","2024-12-05 18:30:00","11.8064","3.54588","27.287","2.495714285714286","7.3","3.034","1491.833","0","0.94","30.7555","4.81694","27.99","0","SATNPRO1963","24.904","0.34878","5"],
    [41710,"HCEP03730564","2024-12-05 18:45:00","11.8067","3.54596","27.296","2.502857142857143","7.29","2.828","1741.589","0","4.51","30.7559","4.817","28.07","0","SATNPRO1963","24.688","0.34578","5"],
    [41711,"HCEP03730564","2024-12-05 19:00:00","11.8065","3.5461","27.28","2.498571428571429","7.29","3.041","1451.334","0.01","2.43","30.7574","4.81721","28.03","0","SATNPRO1963","25.454","0.35656","5"],
    [41712,"HCEP03730564","2024-12-05 19:15:00","11.8057","3.54619","27.255","2.502857142857143","7.29","3.039","1444.555","0","1.01","30.7591","4.81745","28.07","0","SATNPRO1963","24.814","0.34756","5"],
    [41713,"HCEP03730564","2024-12-05 19:30:00","11.806","3.54623","27.22","2.511428571428572","7.29","2.818","1761.039","0","3.76","30.7591","4.81745","28.16","0","SATNPRO1963","24.926000000000002","0.34916","5"],
    [41714,"HCEP03730564","2024-12-05 19:45:00","11.8064","3.54623","27.173","2.507142857142857","7.29","3.016","1458.816","0.01","2.92","30.7589","4.81742","28.12","0","SATNPRO1963","24.704","0.34602","5"],
    [41715,"HCEP03730564","2024-12-05 20:00:00","11.8062","3.54624","27.104","2.5","7.29","3.017","1452.072","0","0.54","30.7592","4.81745","28.05","0","SATNPRO1963","24.634","0.34504","5"],
    [41716,"HCEP03730564","2024-12-05 20:15:00","11.8061","3.54635","27.006","2.5","7.29","2.813","1737.997","0","3.52","30.7603","4.81762","28.04","0","SATNPRO1963","24.576","0.3442","5"],
    [41717,"HCEP03730564","2024-12-05 20:30:00","11.8064","3.5464","26.919","2.508571428571428","7.29","2.998","1438.858","0","2.82","30.7606","4.81765","28.14","0","SATNPRO1963","25.236","0.3535","5"],
    [41718,"HCEP03730564","2024-12-05 20:45:00","11.8066","3.54637","26.818","2.517142857142857","7.29","2.996","1433.783","0","0.77","30.7602","4.81757","28.24","0","SATNPRO1963","24.93","0.34914","5"],
    [41719,"HCEP03730564","2024-12-05 21:00:00","11.8073","3.54628","26.691","2.51","7.29","2.807","1770.91","0","4.6","30.7588","4.81737","28.16","0","SATNPRO1963","25.018","0.35044","5"],
    [41720,"HCEP03730564","2024-12-05 21:15:00","11.8086","3.54617","26.532","2.481428571428572","7.29","3.015","1447.37","0.01","4.04","30.7567","4.81704","27.84","0","SATNPRO1963","24.888","0.3486","5"],
    [41721,"HCEP03730564","2024-12-05 21:30:00","11.8092","3.5461","26.344","2.438571428571429","7.29","3.015","1441.936","0","0.38","30.7557","4.81687","27.35","0","SATNPRO1963","24.482","0.34292","5"],
    [41722,"HCEP03730564","2024-12-05 21:45:00","11.8093","3.54604","26.163","2.401428571428572","7.28","2.802","1758.98","0","4.2","30.755","4.81677","26.94","0","SATNPRO1963","25.012","0.3503","5"],
    [41723,"HCEP03730564","2024-12-05 22:00:00","11.8105","3.54604","25.983","2.387142857142858","7.28","3.016","1443.232","0.01","1.72","30.7542","4.81662","26.78","0","SATNPRO1963","24.408","0.3419","5"],
    [41724,"HCEP03730564","2024-12-05 22:15:00","11.8109","3.54597","25.788","2.314285714285714","7.28","3.016","1440.982","0","0.77","30.7533","4.81648","25.95","0","SATNPRO1963","24.322","0.34068","5"],
    [41725,"HCEP03730564","2024-12-05 22:30:00","11.8112","3.54594","25.614","2.274285714285714","7.28","2.809","1777.449","0","3.68","30.7527","4.81639","25.51","0","SATNPRO1963","24.388","0.34164","5"],
    [41726,"HCEP03730564","2024-12-05 22:45:00","11.8125","3.54595","25.407","2.224285714285714","7.28","3.008","1455.197","0.01","4.22","30.7518","4.81623","24.94","0","SATNPRO1963","24.442","0.34236","5"],
    [41727,"HCEP03730564","2024-12-05 23:00:00","11.8133","3.54594","25.193","2.162857142857143","7.28","3.006","1451.059","0","0.86","30.7511","4.8161","24.26","0","SATNPRO1963","24.224","0.33932","5"],
    [41728,"HCEP03730564","2024-12-05 23:15:00","11.8135","3.54587","25.012","2.122857142857143","7.27","2.8","1735.834","0","5.03","30.7504","4.81599","23.81","0","SATNPRO1963","24.41","0.3419","5"],
    [41729,"HCEP03730564","2024-12-05 23:30:00","11.8132","3.54577","24.826","2.104285714285714","7.27","3.006","1450.896","0.01","3.19","30.7498","4.8159","23.6","0","SATNPRO1963","24.348","0.34102","5"],
    [41730,"HCEP03730564","2024-12-05 23:45:00","11.813","3.5457","24.67","2.09","7.28","3.004","1445.592","0","0.94","30.7493","4.81582","23.44","0","SATNPRO1963","24.232","0.3394","5"],
    [41731,"HCEP03730564","2024-12-06 00:00:00","11.8126","3.5456","24.492","2.087142857142857","7.27","2.808","1731.931","0","3.99","30.7488","4.81575","23.41","0","SATNPRO1963","23.926","0.33512","5"],
    [41732,"HCEP03730564","2024-12-06 00:15:00","11.8122","3.54552","24.337","2.102857142857143","7.27","3.026","1447.397","0.01","3.78","30.7483","4.81569","23.59","0","SATNPRO1963","24.174","0.33864","5"],
    [41733,"HCEP03730564","2024-12-06 00:30:00","11.8122","3.54542","24.203","2.128571428571429","7.27","3.026","1442.986","0","0.38","30.7474","4.81554","23.88","0","SATNPRO1963","24.445999999999998","0.34238","5"],
    [41734,"HCEP03730564","2024-12-06 00:45:00","11.8121","3.54531","24.133","2.141428571428572","7.27","2.815","1720.994","0","4.06","30.7465","4.81541","24.01","0","SATNPRO1963","24.458","0.34256","5"],
    [41735,"HCEP03730564","2024-12-06 01:00:00","11.8129","3.54531","24.102","2.102857142857143","7.26","3.025","1467.861","0.01","3.43","30.7458","4.81531","23.59","0","SATNPRO1963","24.054000000000002","0.33692","5"],
    [41736,"HCEP03730564","2024-12-06 01:15:00","11.8128","3.54524","24.143","2.075714285714286","7.27","3.026","1461.876","0","0.94","30.7452","4.81522","23.28","0","SATNPRO1963","24.194","0.33886","5"],
    [41737,"HCEP03730564","2024-12-06 01:30:00","11.8131","3.5453","24.149","2.058571428571429","7.26","2.843","1727.113","0","3.76","30.7456","4.81528","23.09","0","SATNPRO1963","24.195999999999998","0.33892","5"],
    [41738,"HCEP03730564","2024-12-06 01:45:00","11.8132","3.54526","24.154","2.028571428571428","7.26","3.03","1464.324","0","2.63","30.7451","4.8152","22.76","0","SATNPRO1963","23.78","0.33306","5"],
    [41739,"HCEP03730564","2024-12-06 02:00:00","11.8127","3.54512","24.2","2.018571428571429","7.26","3.03","1457.922","0","0.54","30.7441","4.81507","22.64","0","SATNPRO1963","24.41","0.34188","5"],
    [41740,"HCEP03730564","2024-12-06 02:15:00","11.8118","3.54499","24.288","2.087142857142857","7.26","2.855","1742.27","0","3.91","30.7437","4.81503","23.42","0","SATNPRO1963","24.599999999999998","0.34452","5"],
    [41741,"HCEP03730564","2024-12-06 02:30:00","11.8118","3.54501","24.389","2.132857142857143","7.26","3.031","1510.828","0.01","2.71","30.7437","4.81505","23.92","0","SATNPRO1963","24.136","0.33806","5"],
    [41742,"HCEP03730564","2024-12-06 02:45:00","11.8097","3.54486","24.524","2.168571428571429","7.27","3.03","1505.64","0","0.54","30.744","4.81512","24.32","0","SATNPRO1963","24.724","0.34628","5"],
    [41743,"HCEP03730564","2024-12-06 03:00:00","11.8088","3.54471","24.654","2.291428571428572","7.27","2.835","1854.793","0","3.64","30.7432","4.81503","25.69","0","SATNPRO1963","24.63","0.345","5"],
    [41744,"HCEP03730564","2024-12-06 03:15:00","11.8084","3.54461","24.792","2.39","7.28","3.039","1563.12","0.01","5.69","30.7425","4.81494","26.8","0","SATNPRO1963","24.866","0.34828","5"],
    [41745,"HCEP03730564","2024-12-06 03:30:00","11.809","3.54457","24.94","2.402857142857143","7.28","3.039","1555.791","0","0","30.7416","4.81482","26.96","0","SATNPRO1963","24.87","0.34834","5"],
    [41746,"HCEP03730564","2024-12-06 03:45:00","11.8101","3.54455","25.089","2.357142857142857","7.28","2.879","1848.926","0","4.1","30.7405","4.81465","26.44","0","SATNPRO1963","24.524","0.34348","5"],
    [41747,"HCEP03730564","2024-12-06 04:00:00","11.8101","3.54451","25.279","2.291428571428572","7.28","3.037","1576.286","0","2.66","30.74","4.81459","25.7","0","SATNPRO1963","24.532","0.34362","5"],
    [41748,"HCEP03730564","2024-12-06 04:15:00","11.8111","3.54447","25.459","2.242857142857143","7.28","3.038","1570.557","0","1.21","30.7387","4.81441","25.16","0","SATNPRO1963","24.558","0.34396","5"],
    [41749,"HCEP03730564","2024-12-06 04:30:00","11.8118","3.54442","25.651","2.185714285714286","7.27","2.89","1847.484","0","3.72","30.7376","4.81425","24.51","0","SATNPRO1963","25.026","0.35052","5"],
    [41750,"HCEP03730564","2024-12-06 04:45:00","11.8135","3.54442","25.855","2.12","7.27","3.049","1648.894","0","3.47","30.7361","4.81403","23.78","0","SATNPRO1963","24.414","0.34194","5"],
    [41751,"HCEP03730564","2024-12-06 05:00:00","11.8137","3.54438","26.035","2.054285714285714","7.27","3.048","1642.371","0","0.54","30.7354","4.81394","23.05","0","SATNPRO1963","24.332","0.34084","5"],
    [41752,"HCEP03730564","2024-12-06 05:15:00","11.8142","3.54428","26.239","2.007142857142857","7.26","2.902","1934.376","0","4.13","30.734","4.81374","22.51","0","SATNPRO1963","24.728","0.34636","5"],
    [41753,"HCEP03730564","2024-12-06 05:30:00","11.8143","3.54424","26.46","1.987142857142857","7.26","3.038","1668.322","0.01","4.13","30.7334","4.81367","22.29","0","SATNPRO1963","24.392","0.34166","5"],
    [41754,"HCEP03730564","2024-12-06 05:45:00","11.8143","3.54418","26.67","1.978571428571429","7.26","3.04","1658.331","0","1.08","30.7328","4.8136","22.19","0","SATNPRO1963","24.174","0.33858","5"],
    [41755,"HCEP03730564","2024-12-06 06:00:00","11.8146","3.54414","26.851","1.964285714285714","7.26","2.858","1918.276","0","3.47","30.7321","4.81349","22.04","0","SATNPRO1963","24.258","0.33978","5"],
    [41756,"HCEP03730564","2024-12-06 06:15:00","11.8149","3.54405","27.015","1.944285714285714","7.25","3.04","1667.033","0","3.02","30.7309","4.81333","21.81","0","SATNPRO1963","24.392","0.34166","5"],
    [41757,"HCEP03730564","2024-12-06 06:30:00","11.8152","3.54399","27.182","1.91","7.26","3.039","1660.988","0","0.94","30.73","4.81321","21.42","0","SATNPRO1963","24.31","0.3405","5"],
    [41758,"HCEP03730564","2024-12-06 06:45:00","11.8151","3.54392","27.328","1.894285714285714","7.25","2.875","1955.464","0","5.12","30.7294","4.81314","21.24","0","SATNPRO1963","24.266","0.33984","5"],
    [41759,"HCEP03730564","2024-12-06 07:00:00","11.8151","3.54392","27.481","1.882857142857143","7.25","3.034","1650.718","0","3.76","30.7293","4.81314","21.12","0","SATNPRO1963","23.92","0.33506","5"],
    [41760,"HCEP03730564","2024-12-06 07:15:00","11.8158","3.5439","27.63","1.865714285714286","7.25","3.034","1643.472","0","1.21","30.7285","4.81302","20.92","0","SATNPRO1963","24.45","0.34244","5"],
    [41761,"HCEP03730564","2024-12-06 07:30:00","11.8156","3.54393","27.736","1.857142857142857","7.25","2.854","1903.56","0","6.46","30.7289","4.81309","20.83","0","SATNPRO1963","24.358","0.34114","5"],
    [41762,"HCEP03730564","2024-12-06 07:45:00","11.8152","3.5439","27.843","1.85","7.25","3.03","1640.101","0.01","3.6","30.7288","4.81309","20.75","0","SATNPRO1963","24.406","0.34186","5"],
    [41763,"HCEP03730564","2024-12-06 08:00:00","11.8146","3.54394","27.945","1.852857142857143","7.25","3.03","1632.091","0","1.21","30.7296","4.81321","20.78","0","SATNPRO1963","24.4","0.34174","5"],
    [41764,"HCEP03730564","2024-12-06 08:15:00","11.8143","3.54394","28.016","1.874285714285714","7.25","2.842","1868.062","0","7.16","30.73","4.81327","21.02","0","SATNPRO1963","24.308","0.34046","5"],
    [41765,"HCEP03730564","2024-12-06 08:30:00","11.8144","3.54386","28.066","1.894285714285714","7.25","3.008","1527.453","0.01","3.95","30.7291","4.81315","21.24","0","SATNPRO1963","24.291999999999998","0.34024","5"],
    [41766,"HCEP03730564","2024-12-06 08:45:00","11.8138","3.54383","28.107","1.914285714285714","7.25","3.006","1518.551","0","1.01","30.7293","4.81319","21.47","0","SATNPRO1963","24.468","0.34274","5"],
    [41767,"HCEP03730564","2024-12-06 09:00:00","11.8137","3.5438","28.129","1.924285714285714","7.25","2.804","1822.136","0","4.2","30.7291","4.81316","21.58","0","SATNPRO1963","24.486","0.34292","5"],
    [41768,"HCEP03730564","2024-12-06 09:15:00","11.8126","3.54382","28.146","1.94","7.25","3.02","1531.383","0.01","2.33","30.7301","4.81332","21.75","0","SATNPRO1963","24.412","0.34194","5"],
    [41769,"HCEP03730564","2024-12-06 09:30:00","11.8125","3.54381","28.13","1.942857142857143","7.26","3.019","1525.846","0","0","30.7301","4.81333","21.79","0","SATNPRO1963","24.07","0.33714","5"],
    [41770,"HCEP03730564","2024-12-06 09:45:00","11.8119","3.54377","28.094","1.95","7.25","2.83","1819.619","0","4.82","30.7302","4.81334","21.86","0","SATNPRO1963","24.06","0.33702","5"],
    [41771,"HCEP03730564","2024-12-06 10:00:00","11.8115","3.54372","28.042","1.987142857142857","7.26","3.002","1494.865","0.01","3","30.7301","4.81333","22.29","0","SATNPRO1963","24.144000000000002","0.3382","5"],
    [41772,"HCEP03730564","2024-12-06 10:15:00","11.8102","3.54368","28.003","2.037142857142857","7.26","3.002","1488.028","0","0.66","30.7309","4.81345","22.85","0","SATNPRO1963","24.19","0.3388","5"],
    [41773,"HCEP03730564","2024-12-06 10:30:00","11.8097","3.54368","27.955","2.08","7.27","2.819","1771.339","0","4.79","30.7313","4.81351","23.32","0","SATNPRO1963","24.252","0.33966","5"],
    [41774,"HCEP03730564","2024-12-06 10:45:00","11.8086","3.54364","27.928","2.131428571428572","7.27","3.01","1541.601","0.01","4.68","30.7318","4.8136","23.9","0","SATNPRO1963","24.44","0.3423","5"],
    [41775,"HCEP03730564","2024-12-06 11:00:00","11.808","3.54366","27.869","2.195714285714286","7.27","3.009","1534.529","0.01","1.15","30.7325","4.81371","24.63","0","SATNPRO1963","24.46","0.34264","5"],
    [41776,"HCEP03730564","2024-12-06 11:15:00","11.8073","3.54368","27.786","2.231428571428572","7.27","2.875","1772.884","0","4.67","30.7333","4.81383","25.03","0","SATNPRO1963","24.528","0.34358","5"],
    [41777,"HCEP03730564","2024-12-06 11:30:00","11.8068","3.5437","27.7","2.271428571428572","7.27","3.029","1520.027","0","3.97","30.734","4.81392","25.48","0","SATNPRO1963","24.686","0.34576","5"],
    [41778,"HCEP03730564","2024-12-06 11:45:00","11.8065","3.54374","27.631","2.31","7.28","3.029","1514.581","0","1.15","30.7346","4.81401","25.91","0","SATNPRO1963","24.57","0.34418","5"],
    [41779,"HCEP03730564","2024-12-06 12:00:00","11.8061","3.54377","27.545","2.318571428571428","7.27","2.868","1810.31","0","4.44","30.7352","4.8141","26","0","SATNPRO1963","25.034","0.35062","5"],
    [41780,"HCEP03730564","2024-12-06 12:15:00","11.806","3.54383","27.458","2.345714285714286","7.28","3.028","1529.58","0.01","3.8","30.736","4.8142","26.31","0","SATNPRO1963","24.872","0.34834","5"],
    [41781,"HCEP03730564","2024-12-06 12:30:00","11.8064","3.54394","27.373","2.351428571428571","7.27","3.029","1521.921","0","1.21","30.7367","4.8143","26.37","0","SATNPRO1963","25.026","0.3505","5"],
    [41782,"HCEP03730564","2024-12-06 12:45:00","11.8067","3.54406","27.266","2.321428571428572","7.28","2.783","1857.653","0","4.73","30.7377","4.81443","26.04","0","SATNPRO1963","24.692","0.34588","5"],
    [41783,"HCEP03730564","2024-12-06 13:00:00","11.8068","3.54418","27.166","2.302857142857143","7.28","3","1547.426","0.01","4.82","30.7388","4.81457","25.82","0","SATNPRO1963","24.69","0.34586","5"],
    [41784,"HCEP03730564","2024-12-06 13:15:00","11.8071","3.54431","27.068","2.265714285714286","7.28","2.999","1540.678","0","0","30.7398","4.81471","25.41","0","SATNPRO1963","24.45","0.34248","5"],
    [41785,"HCEP03730564","2024-12-06 13:30:00","11.8071","3.54444","26.977","2.255714285714286","7.27","2.811","1888.995","0","4.63","30.7411","4.81488","25.31","0","SATNPRO1963","24.49","0.343","5"],
    [41786,"HCEP03730564","2024-12-06 13:45:00","11.8075","3.54449","26.888","2.254285714285714","7.27","2.995","1573.052","0","5.42","30.7413","4.8149","25.28","0","SATNPRO1963","24.522","0.34342","5"],
    [41787,"HCEP03730564","2024-12-06 14:00:00","11.8073","3.54456","26.813","2.25","7.28","2.995","1567.612","0","1.44","30.7422","4.81503","25.23","0","SATNPRO1963","24.572","0.34416","5"],
    [41788,"HCEP03730564","2024-12-06 14:15:00","11.8071","3.54463","26.743","2.281428571428572","7.28","2.812","1857.905","0","4.73","30.7431","4.81515","25.58","0","SATNPRO1963","24.784000000000002","0.34716","5"],
    [41789,"HCEP03730564","2024-12-06 14:30:00","11.8077","3.54465","26.674","2.308571428571429","7.28","2.996","1533.067","0.01","5.97","30.7427","4.81509","25.9","0","SATNPRO1963","24.696","0.34588","5"],
    [41790,"HCEP03730564","2024-12-06 14:45:00","11.808","3.54466","26.622","2.307142857142857","7.28","2.997","1529","0","1.15","30.7426","4.81507","25.88","0","SATNPRO1963","24.4","0.34178","5"],
    [41791,"HCEP03730564","2024-12-06 15:00:00","11.809","3.54466","26.628","2.25","7.27","2.782","1847.202","0.01","3.8","30.7417","4.81493","25.24","0","SATNPRO1963","24.258","0.3398","5"],
    [41792,"HCEP03730564","2024-12-06 15:15:00","11.8094","3.54464","26.629","2.168571428571429","7.27","2.989","1549.525","0.01","3.47","30.7414","4.81487","24.33","0","SATNPRO1963","24.362000000000002","0.34124","5"],
    [41793,"HCEP03730564","2024-12-06 15:30:00","11.8088","3.54464","26.632","2.132857142857143","7.27","2.99","1544.544","0","1.21","30.7418","4.81494","23.92","0","SATNPRO1963","24.222","0.33926","5"],
    [41794,"HCEP03730564","2024-12-06 15:45:00","11.8092","3.54464","26.65","2.114285714285714","7.27","2.792","1853.855","0","6.33","30.7414","4.81489","23.71","0","SATNPRO1963","24.096","0.3375","5"],
    [41795,"HCEP03730564","2024-12-06 16:00:00","11.8095","3.54469","26.643","2.088571428571428","7.26","3.004","1538.01","0.01","5.84","30.7417","4.81491","23.42","0","SATNPRO1963","23.99","0.336","5"],
    [41796,"HCEP03730564","2024-12-06 16:15:00","11.8091","3.54474","26.681","2.081428571428571","7.26","3.004","1529.592","0","0.54","30.7425","4.81504","23.35","0","SATNPRO1963","24.354","0.3411","5"],
    [41797,"HCEP03730564","2024-12-06 16:30:00","11.8086","3.5448","26.718","2.095714285714286","7.26","2.812","1824.906","0","4.79","30.7434","4.81518","23.5","0","SATNPRO1963","24.326","0.34076","5"],
    [41798,"HCEP03730564","2024-12-06 16:45:00","11.8083","3.54486","26.724","2.111428571428572","7.26","3.002","1573.812","0.01","5.77","30.7443","4.8153","23.68","0","SATNPRO1963","24.008","0.33626","5"],
    [41799,"HCEP03730564","2024-12-06 17:00:00","11.8081","3.54494","26.743","2.125714285714286","7.26","3.002","1567.297","0","1.21","30.7452","4.81543","23.84","0","SATNPRO1963","24.381999999999998","0.34154","5"],
    [41800,"HCEP03730564","2024-12-06 17:15:00","11.8078","3.54497","26.777","2.164285714285714","7.26","2.824","1855.703","0","3.56","30.7457","4.81552","24.27","0","SATNPRO1963","24.45","0.34244","5"],
    [41801,"HCEP03730564","2024-12-06 17:30:00","11.8072","3.54506","26.811","2.187142857142857","7.26","2.99","1571.84","0.01","7.3","30.7471","4.81571","24.52","0","SATNPRO1963","24.294","0.34024","5"],
    [41802,"HCEP03730564","2024-12-06 17:45:00","11.8074","3.54515","26.875","2.214285714285714","7.27","2.989","1564.099","0","0.54","30.7478","4.81582","24.84","0","SATNPRO1963","24.59","0.34442","5"],
    [41803,"HCEP03730564","2024-12-06 18:00:00","11.8073","3.5452","26.904","2.231428571428572","7.27","2.828","1854.26","0","4.73","30.7482","4.81588","25.03","0","SATNPRO1963","24.555999999999997","0.34394","5"],
    [41804,"HCEP03730564","2024-12-06 18:15:00","11.8081","3.54522","26.951","2.221428571428572","7.27","3.019","1524.033","0.01","3.89","30.7478","4.81582","24.91","0","SATNPRO1963","24.57","0.34412","5"],
    [41805,"HCEP03730564","2024-12-06 18:30:00","11.8088","3.5452","26.988","2.185714285714286","7.27","3.02","1517.877","0","0.77","30.7471","4.8157","24.52","0","SATNPRO1963","24.608","0.34466","5"],
    [41806,"HCEP03730564","2024-12-06 18:45:00","11.8094","3.54522","27.038","2.131428571428572","7.27","2.848","1822.821","0","4.76","30.7468","4.81565","23.91","0","SATNPRO1963","24.503999999999998","0.34322","5"],
    [41807,"HCEP03730564","2024-12-06 19:00:00","11.8094","3.54531","27.075","2.074285714285714","7.27","2.992","1530.118","0","5.19","30.7475","4.81576","23.27","0","SATNPRO1963","24.349999999999998","0.34106","5"],
    [41808,"HCEP03730564","2024-12-06 19:15:00","11.8097","3.54532","27.098","2.068571428571428","7.27","2.992","1522.906","0","0.54","30.7473","4.81573","23.2","0","SATNPRO1963","24.308","0.34044","5"],
    [41809,"HCEP03730564","2024-12-06 19:30:00","11.8099","3.54534","27.122","2.067142857142857","7.26","2.786","1826.93","0","4.91","30.7474","4.81575","23.19","0","SATNPRO1963","24.472","0.34276","5"],
    [41810,"HCEP03730564","2024-12-06 19:45:00","11.8096","3.54535","27.133","2.047142857142857","7.26","3.006","1505.404","0.01","3.19","30.7478","4.8158","22.97","0","SATNPRO1963","24.452","0.3425","5"],
    [41811,"HCEP03730564","2024-12-06 20:00:00","11.8091","3.54537","27.121","2.062857142857143","7.26","3.004","1501.745","0","0.54","30.7483","4.81588","23.13","0","SATNPRO1963","24.506","0.34326","5"],
    [41812,"HCEP03730564","2024-12-06 20:15:00","11.8092","3.54537","27.102","2.094285714285714","7.26","2.805","1830.355","0","3.07","30.7482","4.81587","23.49","0","SATNPRO1963","24.594","0.3445","5"],
    [41813,"HCEP03730564","2024-12-06 20:30:00","11.8094","3.54535","27.043","2.094285714285714","7.26","3.015","1496.494","0.01","2.84","30.7479","4.81582","23.5","0","SATNPRO1963","24.41","0.34194","5"],
    [41814,"HCEP03730564","2024-12-06 20:45:00","11.8095","3.5453","26.946","2.075714285714286","7.26","3.015","1491.874","0","0.77","30.7474","4.81574","23.28","0","SATNPRO1963","24.568","0.34414","5"],
    [41815,"HCEP03730564","2024-12-06 21:00:00","11.8097","3.54528","26.846","2.057142857142857","7.26","2.81","1823.133","0","4.94","30.7471","4.81568","23.08","0","SATNPRO1963","24.664","0.3455","5"],
    [41816,"HCEP03730564","2024-12-06 21:15:00","11.8108","3.54523","26.727","2.04","7.26","3.012","1510.997","0.01","3.21","30.7458","4.81548","22.88","0","SATNPRO1963","24.221999999999998","0.33926","5"],
    [41817,"HCEP03730564","2024-12-06 21:30:00","11.8114","3.54524","26.655","1.965714285714286","7.26","3.01","1503.825","0.01","0","30.7454","4.81541","22.04","0","SATNPRO1963","24.07","0.33712","5"],
    [41818,"HCEP03730564","2024-12-06 21:45:00","11.8117","3.5452","26.585","1.947142857142857","7.26","2.763","1876.852","0","5.74","30.7447","4.81531","21.83","0","SATNPRO1963","24.16","0.33842","5"],
    [41819,"HCEP03730564","2024-12-06 22:00:00","11.8116","3.54506","26.506","1.972857142857143","7.25","2.966","1564.972","0.01","4.13","30.7436","4.81514","22.13","0","SATNPRO1963","24.605999999999998","0.34466","5"],
    [41820,"HCEP03730564","2024-12-06 22:15:00","11.8118","3.54496","26.362","1.968571428571428","7.26","2.963","1559.536","0","0.54","30.7425","4.81499","22.07","0","SATNPRO1963","24.56","0.344","5"],
    [41821,"HCEP03730564","2024-12-06 22:30:00","11.8111","3.54485","26.235","1.978571428571429","7.25","2.796","1866.499","0","5.72","30.742","4.81492","22.19","0","SATNPRO1963","24.564","0.34408","5"],
    [41822,"HCEP03730564","2024-12-06 22:45:00","11.8103","3.54476","26.069","2.022857142857143","7.25","3.002","1510.004","0.01","4.02","30.742","4.81491","22.7","0","SATNPRO1963","24.532","0.34358","5"],
    [41823,"HCEP03730564","2024-12-06 23:00:00","11.8097","3.54468","26.016","2.084285714285714","7.25","3.002","1505.235","0","0.54","30.7416","4.81487","23.38","0","SATNPRO1963","24.78","0.3471","5"],
    [41824,"HCEP03730564","2024-12-06 23:15:00","11.809","3.54457","25.796","2.15","7.25","2.782","1855.736","0","4.41","30.7413","4.81482","24.12","0","SATNPRO1963","24.964","0.34966","5"],
    [41825,"HCEP03730564","2024-12-06 23:30:00","11.8084","3.54444","25.587","2.2","7.26","3.018","1492.419","0.01","4.17","30.7406","4.81471","24.67","0","SATNPRO1963","24.95","0.34948","5"],
    [41826,"HCEP03730564","2024-12-06 23:45:00","11.8108","3.54445","25.348","2.197142857142857","7.26","3.017","1488.042","0","0.66","30.7388","4.81442","24.64","0","SATNPRO1963","24.794","0.3473","5"],
    [41827,"HCEP03730564","2024-12-07 00:00:00","11.8116","3.54409","25.225","2.054285714285714","7.25","2.826","1784.896","0.01","4.31","30.7347","4.81382","23.04","0","SATNPRO1963","24.546","0.3438","5"],
    [41828,"HCEP03730564","2024-12-07 00:15:00","11.8119","3.5439","25.095","1.988571428571428","7.25","3.032","1518.808","0","5.27","30.7327","4.81352","22.3","0","SATNPRO1963","24.592","0.34444","5"],
    [41829,"HCEP03730564","2024-12-07 00:30:00","11.8113","3.5437","24.948","1.955714285714286","7.25","3.032","1510.324","0","1.01","30.7313","4.81333","21.94","0","SATNPRO1963","24.568","0.34414","5"],
    [41830,"HCEP03730564","2024-12-07 00:45:00","11.8104","3.54348","24.826","1.968571428571428","7.24","2.807","1864.631","0","9.09","30.73","4.81315","22.08","0","SATNPRO1963","24.588","0.34442","5"],
    [41831,"HCEP03730564","2024-12-07 01:00:00","11.8087","3.54385","24.723","2.088571428571428","7.25","3.013","1561.933","0.01","3.91","30.735","4.81387","23.42","0","SATNPRO1963","24.968","0.34972","5"],
    [41832,"HCEP03730564","2024-12-07 01:15:00","11.8095","3.5435","24.601","2.168571428571429","7.25","3.014","1551.241","0","0","30.731","4.81329","24.33","0","SATNPRO1963","24.744","0.3466","5"],
    [41833,"HCEP03730564","2024-12-07 01:30:00","11.81","3.54309","24.523","2.127142857142857","7.25","2.903","1791.541","0","3.25","30.7267","4.81268","23.86","0","SATNPRO1963","25.062","0.351","5"],
    [41834,"HCEP03730564","2024-12-07 01:45:00","11.8102","3.54285","24.458","2.095714285714286","7.25","3.025","1571.924","0","6.33","30.7243","4.81233","23.5","0","SATNPRO1963","25.008","0.3503","5"],
    [41835,"HCEP03730564","2024-12-07 02:00:00","11.8103","3.54259","24.456","2.078571428571429","7.25","3.026","1560.448","0","0","30.7216","4.81195","23.3","0","SATNPRO1963","24.922","0.34908","5"],
    [41836,"HCEP03730564","2024-12-07 02:15:00","11.8105","3.54227","24.458","2.041428571428571","7.25","2.826","1830.309","0","3.8","30.7184","4.81149","22.89","0","SATNPRO1963","24.986","0.35","5"],
    [41837,"HCEP03730564","2024-12-07 02:30:00","11.8106","3.5421","24.483","2.022857142857143","7.25","2.996","1614.446","0.01","4.41","30.7167","4.81125","22.68","0","SATNPRO1963","24.862","0.34824","5"],
    [41838,"HCEP03730564","2024-12-07 02:45:00","11.8113","3.54216","24.516","1.994285714285714","7.25","2.995","1605.45","0","1.72","30.7167","4.81124","22.36","0","SATNPRO1963","24.808","0.34744","5"],
    [41839,"HCEP03730564","2024-12-07 03:00:00","11.8116","3.54188","24.579","1.934285714285714","7.24","2.84","1815.321","0.01","5.48","30.7136","4.81081","21.69","0","SATNPRO1963","24.716","0.34618","5"],
    [41840,"HCEP03730564","2024-12-07 03:15:00","11.8129","3.54185","24.656","1.855714285714286","7.24","3.004","1578.813","0.01","4.85","30.7123","4.81061","20.8","0","SATNPRO1963","24.78","0.3471","5"],
    [41841,"HCEP03730564","2024-12-07 03:30:00","11.8131","3.54179","24.722","1.792857142857143","7.24","3.006","1571.245","0.01","0","30.7115","4.81049","20.1","0","SATNPRO1963","24.458","0.34258","5"],
    [41842,"HCEP03730564","2024-12-07 03:45:00","11.8131","3.54179","24.866","1.751428571428571","7.23","2.813","1842.005","0","4.94","30.7115","4.8105","19.64","0","SATNPRO1963","24.294","0.3403","5"],
    [41843,"HCEP03730564","2024-12-07 04:00:00","11.8133","3.54156","24.989","1.711428571428571","7.23","3.009","1607.176","0.01","3.8","30.709","4.81016","19.2","0","SATNPRO1963","24.158","0.33838","5"],
    [41844,"HCEP03730564","2024-12-07 04:15:00","11.8135","3.54113","25.117","1.671428571428571","7.23","3.005","1599.661","0.01","1.63","30.7047","4.80955","18.75","0","SATNPRO1963","24.096","0.33748","5"],
    [41845,"HCEP03730564","2024-12-07 04:30:00","11.814","3.54074","25.258","1.641428571428572","7.22","2.881","1831.197","0.01","3.76","30.7005","4.80896","18.4","0","SATNPRO1963","24.252","0.3397","5"],
    [41846,"HCEP03730564","2024-12-07 04:45:00","11.8151","3.54043","25.408","1.612857142857143","7.22","3.035","1655.77","0.01","5.09","30.6966","4.8084","18.09","0","SATNPRO1963","24.442","0.3424","5"],
    [41847,"HCEP03730564","2024-12-07 05:00:00","11.8154","3.54046","25.61","1.592857142857143","7.22","3.037","1647.158","0","1.08","30.6964","4.80839","17.86","0","SATNPRO1963","24.302","0.3404","5"],
    [41848,"HCEP03730564","2024-12-07 05:15:00","11.816","3.5405","25.794","1.57","7.21","2.864","1886.267","0","4.1","30.6963","4.80836","17.61","0","SATNPRO1963","24.082","0.33734","5"],
    [41849,"HCEP03730564","2024-12-07 05:30:00","11.816","3.54045","25.975","1.531428571428572","7.21","3.038","1656.683","0","4.17","30.6957","4.8083","17.17","0","SATNPRO1963","23.654","0.3313","5"],
    [41850,"HCEP03730564","2024-12-07 05:45:00","11.8158","3.54033","26.179","1.482857142857143","7.21","3.04","1648.319","0","1.33","30.6947","4.80817","16.62","0","SATNPRO1963","23.498","0.32916","5"],
    [41851,"HCEP03730564","2024-12-07 06:00:00","11.8161","3.53999","26.367","1.428571428571429","7.21","2.855","1919.957","0","4.13","30.691","4.80766","16.03","0","SATNPRO1963","23.436","0.32832","5"],
    [41852,"HCEP03730564","2024-12-07 06:15:00","11.8161","3.53963","26.557","1.378571428571429","7.2","3.041","1755.132","0.01","7.92","30.6875","4.80717","15.46","0","SATNPRO1963","23.296","0.32632","5"],
    [41853,"HCEP03730564","2024-12-07 06:30:00","11.8151","3.539","26.771","1.344285714285714","7.2","3.044","1745.864","0","0","30.6822","4.80645","15.08","0","SATNPRO1963","23.131999999999998","0.324","5"],
    [41854,"HCEP03730564","2024-12-07 06:45:00","11.8153","3.53884","26.976","1.32","7.2","2.906","1953.993","0","5","30.6804","4.80621","14.8","0","SATNPRO1963","23.054","0.32292","5"],
    [41855,"HCEP03730564","2024-12-07 07:00:00","11.8153","3.53857","27.139","1.281428571428572","7.19","3.019","1711.823","0.01","5.51","30.6778","4.80584","14.36","0","SATNPRO1963","22.976","0.3218","5"],
    [41856,"HCEP03730564","2024-12-07 07:15:00","11.8144","3.53799","27.323","1.201428571428572","7.19","3.023","1703.781","0","0.77","30.6729","4.80518","13.47","0","SATNPRO1963","22.456","0.31458","5"],
    [41857,"HCEP03730564","2024-12-07 07:30:00","11.8131","3.53732","27.489","1.122857142857143","7.19","2.854","1967.563","0","3.6","30.6674","4.80443","12.6","0","SATNPRO1963","22.25","0.31164","5"],
    [41858,"HCEP03730564","2024-12-07 07:45:00","11.8119","3.53671","27.633","1.065714285714286","7.18","3.035","1681.002","0.01","4.34","30.6625","4.80377","11.94","0","SATNPRO1963","21.596","0.30248","5"],
    [41859,"HCEP03730564","2024-12-07 08:00:00","11.8106","3.53598","27.766","1.031428571428571","7.18","3.036","1673.237","0","0","30.6565","4.80294","11.56","0","SATNPRO1963","21.656","0.30336","5"],
    [41860,"HCEP03730564","2024-12-07 08:15:00","11.808","3.53482","27.892","1.008571428571428","7.17","2.893","1921.734","0.01","4.06","30.6474","4.8017","11.3","0","SATNPRO1963","21.492","0.30104","5"],
    [41861,"HCEP03730564","2024-12-07 08:30:00","11.8064","3.53405","27.99","0.987142857142857","7.17","3.047","1647.439","0.01","3.3","30.6413","4.80087","11.06","0","SATNPRO1963","21.342","0.29894","5"],
    [41862,"HCEP03730564","2024-12-07 08:45:00","11.8056","3.53373","28.069","0.967142857142857","7.17","3.047","1639.732","0","1.08","30.6388","4.80053","10.85","0","SATNPRO1963","21.258","0.29776","5"],
    [41863,"HCEP03730564","2024-12-07 09:00:00","11.8049","3.53349","28.132","0.965714285714286","7.17","2.854","1966.529","0.01","7.11","30.637","4.80029","10.83","0","SATNPRO1963","21.082","0.29526","5"],
    [41864,"HCEP03730564","2024-12-07 09:15:00","11.8049","3.53353","28.164","0.988571428571428","7.17","3.047","1661.774","0.01","5.12","30.6374","4.80035","11.08","0","SATNPRO1963","21.502","0.3012","5"],
    [41865,"HCEP03730564","2024-12-07 09:30:00","11.8061","3.53416","28.181","1.05","7.18","3.049","1654.455","0","1.33","30.6425","4.80105","11.77","0","SATNPRO1963","21.746","0.3046","5"],
    [41866,"HCEP03730564","2024-12-07 09:45:00","11.8082","3.53511","28.194","1.074285714285714","7.18","2.869","1943.841","0","4.57","30.6499","4.80206","12.04","0","SATNPRO1963","22.142","0.31016","5"],
    [41867,"HCEP03730564","2024-12-07 10:00:00","11.8084","3.53533","28.218","1.07","7.18","3.043","1649.409","0.01","3.43","30.6519","4.80234","11.99","0","SATNPRO1963","22.002","0.30818","5"],
    [41868,"HCEP03730564","2024-12-07 10:15:00","11.8081","3.53513","28.167","1.061428571428571","7.18","3.044","1641.418","0.01","1.08","30.6502","4.80211","11.9","0","SATNPRO1963","21.968","0.30768","5"],
    [41869,"HCEP03730564","2024-12-07 10:30:00","11.8071","3.53463","28.079","1.042857142857143","7.18","2.854","1929.125","0","4.54","30.6462","4.80156","11.69","0","SATNPRO1963","21.695999999999998","0.30388","5"],
    [41870,"HCEP03730564","2024-12-07 10:45:00","11.8067","3.53441","28.007","1.012857142857143","7.18","3.049","1607.088","0.01","3.64","30.6445","4.80131","11.35","0","SATNPRO1963","21.654","0.30332","5"],
    [41871,"HCEP03730564","2024-12-07 11:00:00","11.8065","3.53427","27.959","0.978571428571429","7.18","3.05","1600.934","0","0.54","30.6433","4.80114","10.97","0","SATNPRO1963","21.386","0.29956","5"],
    [41872,"HCEP03730564","2024-12-07 11:15:00","11.8068","3.53443","27.911","0.975714285714286","7.17","2.878","1870.097","0.01","7.5","30.6446","4.80133","10.93","0","SATNPRO1963","21.642","0.30312","5"],
    [41873,"HCEP03730564","2024-12-07 11:30:00","11.8063","3.5346","27.881","0.994285714285714","7.18","3.045","1616.48","0.01","3.64","30.6466","4.80162","11.14","0","SATNPRO1963","21.986","0.30796","5"],
    [41874,"HCEP03730564","2024-12-07 11:45:00","11.805","3.53424","27.815","1.052857142857143","7.18","3.044","1610.102","0","1.33","30.6443","4.8013","11.79","0","SATNPRO1963","22.1","0.30956","5"],
    [41875,"HCEP03730564","2024-12-07 12:00:00","11.8017","3.53356","27.736","1.162857142857143","7.18","2.847","1944.857","0","5.23","30.6405","4.80081","13.03","0","SATNPRO1963","22.744","0.31858","5"],
    [41876,"HCEP03730564","2024-12-07 12:15:00","11.802","3.53426","27.643","1.36","7.19","3.01","1661.639","0.01","3.8","30.647","4.80171","15.24","0","SATNPRO1963","23.514","0.32936","5"],
    [41877,"HCEP03730564","2024-12-07 12:30:00","11.7975","3.53434","27.565","1.528571428571429","7.2","3.011","1654.823","0","1.08","30.6515","4.80241","17.13","0","SATNPRO1963","24.172","0.33856","5"],
    [41878,"HCEP03730564","2024-12-07 12:45:00","11.7994","3.53572","27.477","1.718571428571429","7.21","2.866","1977.492","0","5.31","30.6633","4.80405","19.26","0","SATNPRO1963","24.022","0.33646","5"],
    [41879,"HCEP03730564","2024-12-07 13:00:00","11.8014","3.53661","27.364","1.752857142857143","7.21","3.044","1679.518","0","5.42","30.6703","4.805","19.65","0","SATNPRO1963","24.23","0.33938","5"],
    [41880,"HCEP03730564","2024-12-07 13:15:00","11.8044","3.53747","27.26","1.701428571428572","7.22","3.046","1669.326","0","0.77","30.6761","4.80577","19.08","0","SATNPRO1963","24.108","0.33768","5"],
    [41881,"HCEP03730564","2024-12-07 13:30:00","11.8066","3.53823","27.153","1.635714285714286","7.22","2.848","1982.425","0","5.51","30.6816","4.80651","18.33","0","SATNPRO1963","23.982","0.33594","5"],
    [41882,"HCEP03730564","2024-12-07 13:45:00","11.8077","3.53843","27.064","1.587142857142857","7.21","3.037","1728.593","0","3.95","30.6827","4.80664","17.8","0","SATNPRO1963","24.164","0.33846","5"],
    [41883,"HCEP03730564","2024-12-07 14:00:00","11.8088","3.53859","26.97","1.554285714285714","7.22","3.039","1719.184","0","0","30.6834","4.80672","17.42","0","SATNPRO1963","23.874","0.3344","5"],
    [41884,"HCEP03730564","2024-12-07 14:15:00","11.8092","3.53867","26.87","1.534285714285714","7.21","2.94","1925.309","0","6.33","30.6839","4.80677","17.21","0","SATNPRO1963","24.22","0.33926","5"],
    [41885,"HCEP03730564","2024-12-07 14:30:00","11.809","3.53872","26.779","1.547142857142857","7.21","3.063","1688.398","0.01","4.2","30.6846","4.80687","17.34","0","SATNPRO1963","24.196","0.33894","5"],
    [41886,"HCEP03730564","2024-12-07 14:45:00","11.8088","3.53878","26.673","1.575714285714286","7.22","3.066","1682.769","0","1.08","30.6853","4.80697","17.67","0","SATNPRO1963","24.306","0.34044","5"],
    [41887,"HCEP03730564","2024-12-07 15:00:00","11.8072","3.53829","26.58","1.602857142857143","7.21","2.918","1957.341","0","5.37","30.682","4.80653","17.97","0","SATNPRO1963","24.184","0.33874","5"],
    [41888,"HCEP03730564","2024-12-07 15:15:00","11.8042","3.5374","26.514","1.655714285714286","7.21","3.047","1650.204","0","4.37","30.6759","4.80571","18.56","0","SATNPRO1963","24.366","0.3413","5"],
    [41889,"HCEP03730564","2024-12-07 15:30:00","11.8031","3.53727","26.467","1.721428571428572","7.22","3.048","1644.235","0","1.53","30.6756","4.80566","19.3","0","SATNPRO1963","24.646","0.3452","5"],
    [41890,"HCEP03730564","2024-12-07 15:45:00","11.8035","3.53741","26.422","1.788571428571429","7.22","2.972","1747.932","0","4.41","30.6766","4.8058","20.05","0","SATNPRO1963","24.398","0.34174","5"],
    [41891,"HCEP03730564","2024-12-07 16:00:00","11.8044","3.53768","26.384","1.772857142857143","7.23","3.066","1676.636","0","3.68","30.6785","4.80606","19.88","0","SATNPRO1963","24.387999999999998","0.34162","5"],
    [41892,"HCEP03730564","2024-12-07 16:15:00","11.8043","3.53789","26.389","1.792857142857143","7.23","3.068","1661.874","0","0.77","30.6805","4.80635","20.1","0","SATNPRO1963","24.56","0.344","5"],
    [41893,"HCEP03730564","2024-12-07 16:30:00","11.8043","3.53796","26.385","1.818571428571428","7.23","2.912","1850.853","0","3.12","30.6812","4.80644","20.38","0","SATNPRO1963","24.592","0.34448","5"],
    [41894,"HCEP03730564","2024-12-07 16:45:00","11.8039","3.53787","26.432","1.844285714285714","7.23","3.051","1681.498","0.01","7.16","30.6807","4.80638","20.68","0","SATNPRO1963","24.664","0.34544","5"],
    [41895,"HCEP03730564","2024-12-07 17:00:00","11.804","3.53786","26.438","1.855714285714286","7.23","3.05","1672.748","0.01","0","30.6805","4.80635","20.8","0","SATNPRO1963","24.522","0.34348","5"],
    [41896,"HCEP03730564","2024-12-07 17:15:00","11.8037","3.53786","26.453","1.867142857142857","7.23","2.921","1850.447","0","4.2","30.6808","4.8064","20.93","0","SATNPRO1963","24.884","0.3485","5"],
    [41897,"HCEP03730564","2024-12-07 17:30:00","11.8033","3.53773","26.474","1.877142857142857","7.23","3.049","1646.939","0.01","2.92","30.6799","4.80627","21.04","0","SATNPRO1963","25.06","0.351","5"],
    [41898,"HCEP03730564","2024-12-07 17:45:00","11.8039","3.53798","26.5","1.888571428571429","7.23","3.051","1640.949","0","0.94","30.6817","4.80653","21.17","0","SATNPRO1963","24.87","0.34832","5"],
    [41899,"HCEP03730564","2024-12-07 18:00:00","11.8043","3.53731","26.528","1.828571428571429","7.23","2.881","1852.58","0","4.57","30.675","4.80557","20.5","0","SATNPRO1963","24.964","0.34968","5"],
    [41900,"HCEP03730564","2024-12-07 18:15:00","11.8049","3.53807","26.543","1.822857142857143","7.22","3.05","1681.521","0","3.87","30.6817","4.80652","20.44","0","SATNPRO1963","24.684","0.34574","5"],
    [41901,"HCEP03730564","2024-12-07 18:30:00","11.8062","3.53875","26.581","1.81","7.22","3.05","1671.621","0","1.08","30.6872","4.80727","20.3","0","SATNPRO1963","24.764","0.34688","5"],
    [41902,"HCEP03730564","2024-12-07 18:45:00","11.8065","3.53891","26.606","1.807142857142857","7.22","2.853","1957.096","0","3.76","30.6885","4.80745","20.25","0","SATNPRO1963","24.642","0.34512","5"],
    [41903,"HCEP03730564","2024-12-07 19:00:00","11.8064","3.53897","26.635","1.802857142857143","7.22","3.046","1703.842","0.01","3.21","30.6892","4.80755","20.21","0","SATNPRO1963","24.986","0.35","5"],
    [41904,"HCEP03730564","2024-12-07 19:15:00","11.8061","3.53887","26.685","1.807142857142857","7.22","3.046","1696.99","0","1.08","30.6884","4.80745","20.26","0","SATNPRO1963","25.018","0.3504","5"],
    [41905,"HCEP03730564","2024-12-07 19:30:00","11.8062","3.53882","26.709","1.812857142857143","7.22","2.895","1941.617","0","4.44","30.6878","4.80736","20.33","0","SATNPRO1963","25.06","0.351","5"],
    [41906,"HCEP03730564","2024-12-07 19:45:00","11.8037","3.53786","26.731","1.84","7.22","3.04","1715.456","0","3.56","30.6806","4.80639","20.62","0","SATNPRO1963","25.342","0.35502","5"],
    [41907,"HCEP03730564","2024-12-07 20:00:00","11.8032","3.5386","26.795","1.928571428571429","7.23","3.041","1706.388","0","0","30.6881","4.80745","21.62","0","SATNPRO1963","25.192","0.35284","5"],
    [41908,"HCEP03730564","2024-12-07 20:15:00","11.8017","3.53791","26.856","1.992857142857143","7.23","2.913","1930.633","0","4.41","30.6828","4.80673","22.34","0","SATNPRO1963","24.916","0.349","5"],
    [41909,"HCEP03730564","2024-12-07 20:30:00","11.7986","3.5366","26.884","2.041428571428571","7.24","3.061","1701.866","0","3.68","30.6727","4.80535","22.88","0","SATNPRO1963","25.349999999999998","0.35508","5"],
    [41910,"HCEP03730564","2024-12-07 20:45:00","11.8","3.53715","26.875","2.088571428571428","7.24","3.061","1692.674","0","1.21","30.6768","4.80591","23.41","0","SATNPRO1963","25.156","0.3524","5"],
    [41911,"HCEP03730564","2024-12-07 21:00:00","11.8009","3.53751","26.83","2.065714285714286","7.24","2.872","1968.959","0","3.87","30.6795","4.80628","23.16","0","SATNPRO1963","25.312","0.35456","5"],
    [41912,"HCEP03730564","2024-12-07 21:15:00","11.8009","3.53739","26.763","2.052857142857143","7.24","3.035","1636.061","0","5.77","30.6784","4.80611","23.01","0","SATNPRO1963","25.222","0.35326","5"],
    [41913,"HCEP03730564","2024-12-07 21:30:00","11.8008","3.53711","26.693","2.031428571428572","7.24","3.037","1625.739","0","1.63","30.6758","4.80575","22.78","0","SATNPRO1963","25.05","0.35086","5"],
    [41914,"HCEP03730564","2024-12-07 21:45:00","11.8014","3.53671","26.644","2.005714285714286","7.24","2.839","1881.927","0","4.17","30.6715","4.80513","22.49","0","SATNPRO1963","24.82","0.34764","5"],
    [41915,"HCEP03730564","2024-12-07 22:00:00","11.8032","3.53693","26.517","1.92","7.24","3.008","1557.914","0.01","3.68","30.6722","4.8052","21.53","0","SATNPRO1963","24.852","0.34804","5"],
    [41916,"HCEP03730564","2024-12-07 22:15:00","11.7997","3.53651","26.444","1.831428571428571","7.24","3.009","1551.042","0","0.77","30.6711","4.80508","20.53","0","SATNPRO1963","24.996","0.35008","5"],
    [41917,"HCEP03730564","2024-12-07 22:30:00","11.7971","3.53649","26.407","1.925714285714286","7.23","2.808","1837.363","0","5.09","30.6731","4.8054","21.58","0","SATNPRO1963","25.01","0.35032","5"],
    [41918,"HCEP03730564","2024-12-07 22:45:00","11.7949","3.53652","26.308","2.057142857142857","7.24","3.016","1526.818","0.01","3.25","30.6752","4.80572","23.05","0","SATNPRO1963","25.322","0.35468","5"],
    [41919,"HCEP03730564","2024-12-07 23:00:00","11.7951","3.53666","26.156","2.125714285714286","7.24","3.015","1521.401","0.01","1.21","30.6765","4.8059","23.83","0","SATNPRO1963","25.506","0.35726","5"],
    [41920,"HCEP03730564","2024-12-07 23:15:00","11.797","3.53706","26.061","2.117142857142857","7.24","2.793","1830.916","0","3.76","30.6788","4.80618","23.73","0","SATNPRO1963","25.148","0.35224","5"],
    [41921,"HCEP03730564","2024-12-07 23:30:00","11.7971","3.53695","26.002","2.074285714285714","7.24","2.988","1539.833","0.01","4.42","30.6775","4.80601","23.25","0","SATNPRO1963","25.028","0.35056","5"],
    [41922,"HCEP03730564","2024-12-07 23:45:00","11.7973","3.53671","25.832","2.027142857142857","7.24","2.986","1536.958","0","0.77","30.6752","4.80566","22.72","0","SATNPRO1963","25.004","0.35022","5"],
    [41923,"HCEP03730564","2024-12-08 00:00:00","11.7955","3.5357","25.649","1.988571428571428","7.24","2.771","1816.825","0.01","5.06","30.6671","4.80454","22.29","0","SATNPRO1963","25.104","0.3516","5"],
    [41924,"HCEP03730564","2024-12-08 00:15:00","11.796","3.53567","25.604","1.961428571428572","7.24","3.004","1506.411","0.01","3.45","30.6663","4.80441","21.98","0","SATNPRO1963","24.918","0.34902","5"],
    [41925,"HCEP03730564","2024-12-08 00:30:00","11.7974","3.53568","25.73","1.918571428571429","7.24","3.004","1502.01","0","0.86","30.6652","4.80425","21.5","0","SATNPRO1963","24.965999999999998","0.3497","5"],
    [41926,"HCEP03730564","2024-12-08 00:45:00","11.7967","3.53516","25.642","1.884285714285714","7.23","2.756","1875.052","0","6.69","30.6609","4.80364","21.11","0","SATNPRO1963","24.968","0.34968","5"],
    [41927,"HCEP03730564","2024-12-08 01:00:00","11.794","3.53426","25.51","1.887142857142857","7.23","2.995","1528.143","0","3.74","30.6545","4.80277","21.15","0","SATNPRO1963","24.88","0.34848","5"],
    [41928,"HCEP03730564","2024-12-08 01:15:00","11.7921","3.53328","25.369","1.934285714285714","7.24","2.996","1522.652","0","0.86","30.6467","4.80169","21.68","0","SATNPRO1963","24.912000000000003","0.3489","5"],
    [41929,"HCEP03730564","2024-12-08 01:30:00","11.7896","3.53237","25.29","1.958571428571429","7.23","2.806","1818.625","0","4.1","30.6399","4.80077","21.95","0","SATNPRO1963","24.9","0.34878","5"],
    [41930,"HCEP03730564","2024-12-08 01:45:00","11.7883","3.53169","25.28","1.995714285714286","7.23","3.011","1530.411","0.01","3.49","30.6346","4.80002","22.35","0","SATNPRO1963","24.908","0.34886","5"],
    [41931,"HCEP03730564","2024-12-08 02:00:00","11.7869","3.53121","25.313","2.024285714285714","7.24","3.011","1524.325","0","1.49","30.631","4.79955","22.68","0","SATNPRO1963","25.004","0.3502","5"],
    [41932,"HCEP03730564","2024-12-08 02:15:00","11.7878","3.53161","25.214","2.068571428571428","7.23","2.826","1853.177","0","4.76","30.6342","4.79998","23.18","0","SATNPRO1963","24.84","0.34796","5"],
    [41933,"HCEP03730564","2024-12-08 02:30:00","11.787","3.53127","24.869","2.094285714285714","7.24","3.019","1568.171","0","3.64","30.6317","4.79962","23.46","0","SATNPRO1963","24.996","0.3501","5"],
    [41934,"HCEP03730564","2024-12-08 02:45:00","11.7861","3.53073","24.736","2.088571428571428","7.24","3.019","1562.643","0","1.44","30.6273","4.799","23.39","0","SATNPRO1963","24.887999999999998","0.34858","5"],
    [41935,"HCEP03730564","2024-12-08 03:00:00","11.7863","3.53063","24.768","2.082857142857143","7.24","2.832","1889.232","0","3.95","30.6262","4.79885","23.34","0","SATNPRO1963","24.862000000000002","0.34822","5"],
    [41936,"HCEP03730564","2024-12-08 03:15:00","11.7864","3.53038","24.782","2.054285714285714","7.23","3.009","1563.147","0.01","4.7","30.6236","4.79847","23.01","0","SATNPRO1963","24.862000000000002","0.34824","5"],
    [41937,"HCEP03730564","2024-12-08 03:30:00","11.7879","3.53054","24.78","1.98","7.24","3.012","1555.677","0","0.77","30.624","4.79851","22.18","0","SATNPRO1963","24.596","0.3445","5"],
    [41938,"HCEP03730564","2024-12-08 03:45:00","11.7898","3.53085","24.863","1.861428571428571","7.23","2.815","1900.246","0","5.45","30.6253","4.79868","20.86","0","SATNPRO1963","24.216","0.33918","5"],
    [41939,"HCEP03730564","2024-12-08 04:00:00","11.7905","3.53103","24.94","1.78","7.22","3.021","1592.734","0","3.84","30.6265","4.79884","19.94","0","SATNPRO1963","24.212","0.3391","5"],
    [41940,"HCEP03730564","2024-12-08 04:15:00","11.7919","3.53129","25.041","1.717142857142857","7.23","3.021","1587.546","0","0.54","30.6278","4.799","19.23","0","SATNPRO1963","24.096","0.33752","5"],
    [41941,"HCEP03730564","2024-12-08 04:30:00","11.7928","3.53154","25.157","1.651428571428571","7.22","2.843","1880.504","0","5.17","30.6294","4.79923","18.51","0","SATNPRO1963","24.080000000000002","0.33728","5"],
    [41942,"HCEP03730564","2024-12-08 04:45:00","11.7934","3.53168","25.273","1.611428571428571","7.22","3.021","1584.024","0","3.02","30.6302","4.79934","18.05","0","SATNPRO1963","24.11","0.33772","5"],
    [41943,"HCEP03730564","2024-12-08 05:00:00","11.7938","3.53174","25.406","1.585714285714286","7.22","3.021","1579.613","0","1.21","30.6304","4.79937","17.77","0","SATNPRO1963","24.060000000000002","0.337","5"],
    [41944,"HCEP03730564","2024-12-08 05:15:00","11.7936","3.53172","25.572","1.564285714285714","7.21","2.834","1882.848","0","5.94","30.6303","4.79936","17.53","0","SATNPRO1963","24.068","0.33712","5"],
    [41945,"HCEP03730564","2024-12-08 05:30:00","11.7876","3.52989","25.732","1.6","7.21","3.033","1558.952","0","2.43","30.6176","4.79767","17.92","0","SATNPRO1963","24.688","0.3458","5"],
    [41946,"HCEP03730564","2024-12-08 05:45:00","11.7833","3.52909","25.913","1.724285714285714","7.22","3.033","1551.61","0","0","30.6133","4.79714","19.31","0","SATNPRO1963","24.324","0.3407","5"],
    [41947,"HCEP03730564","2024-12-08 06:00:00","11.7758","3.52731","26.081","1.891428571428572","7.22","2.842","1853.036","0","4.82","30.6023","4.7957","21.17","0","SATNPRO1963","25.086","0.3514","5"],
    [41948,"HCEP03730564","2024-12-08 06:15:00","11.7806","3.5285","26.313","2.052857142857143","7.23","3.033","1556.619","0.01","4.44","30.6097","4.79668","22.99","0","SATNPRO1963","25.11","0.35168","5"],
    [41949,"HCEP03730564","2024-12-08 06:30:00","11.7817","3.52912","26.465","2.057142857142857","7.23","3.031","1549.139","0","0","30.6147","4.79738","23.05","0","SATNPRO1963","24.994","0.35008","5"],
    [41950,"HCEP03730564","2024-12-08 06:45:00","11.7848","3.53027","26.669","2.041428571428571","7.23","2.823","1875.743","0","3.68","30.6232","4.79854","22.86","0","SATNPRO1963","25.132","0.35202","5"],
    [41951,"HCEP03730564","2024-12-08 07:00:00","11.7846","3.53023","26.829","2.041428571428571","7.23","3.031","1536.226","0","3.52","30.6229","4.79852","22.86","0","SATNPRO1963","25.066","0.35106","5"],
    [41952,"HCEP03730564","2024-12-08 07:15:00","11.7829","3.52983","27.03","2.052857142857143","7.24","3.031","1528.957","0","1.21","30.6203","4.79819","22.99","0","SATNPRO1963","25.002","0.35022","5"],
    [41953,"HCEP03730564","2024-12-08 07:30:00","11.7819","3.52957","27.251","2.081428571428571","7.24","2.804","1847.014","0","3.68","30.6186","4.79798","23.32","0","SATNPRO1963","25.052","0.35092","5"],
    [41954,"HCEP03730564","2024-12-08 07:45:00","11.7782","3.52929","27.381","2.135714285714286","7.24","3.007","1568.456","0","2.49","30.6189","4.79807","23.92","0","SATNPRO1963","25.148","0.35226","5"],
    [41955,"HCEP03730564","2024-12-08 08:00:00","11.7745","3.52927","27.529","2.254285714285714","7.25","3.007","1563.657","0.01","0","30.6218","4.79854","25.24","0","SATNPRO1963","25.442","0.35636","5"],
    [41956,"HCEP03730564","2024-12-08 08:15:00","11.7743","3.52947","27.713","2.322857142857143","7.25","2.815","1853.02","0","4.24","30.6238","4.79884","26.01","0","SATNPRO1963","25.354","0.35508","5"],
    [41957,"HCEP03730564","2024-12-08 08:30:00","11.7778","3.52979","27.912","2.311428571428572","7.25","3.021","1589.363","0.01","3.21","30.6238","4.79881","25.89","0","SATNPRO1963","25.201999999999998","0.353","5"],
    [41958,"HCEP03730564","2024-12-08 08:45:00","11.7812","3.53072","28.037","2.234285714285714","7.25","3.022","1582.298","0","0.77","30.6299","4.79962","25.03","0","SATNPRO1963","25.316","0.35464","5"],
    [41959,"HCEP03730564","2024-12-08 09:00:00","11.7843","3.53157","28.121","2.16","7.25","2.829","1859.321","0.01","5.89","30.6356","4.80038","24.2","0","SATNPRO1963","25.172","0.35256","5"],
    [41960,"HCEP03730564","2024-12-08 09:15:00","11.785","3.53183","28.209","2.102857142857143","7.24","3.019","1560.506","0","2.54","30.6374","4.80063","23.56","0","SATNPRO1963","25.232","0.35344","5"],
    [41961,"HCEP03730564","2024-12-08 09:30:00","11.7861","3.53219","28.284","2.082857142857143","7.25","3.02","1552.619","0","0.94","30.64","4.80099","23.33","0","SATNPRO1963","25.332","0.35484","5"],
    [41962,"HCEP03730564","2024-12-08 09:45:00","11.7869","3.53234","28.339","2.068571428571428","7.24","2.81","1877.782","0","3.56","30.6407","4.80108","23.17","0","SATNPRO1963","25.122","0.35186","5"],
    [41963,"HCEP03730564","2024-12-08 10:00:00","11.7869","3.53231","28.312","2.04","7.24","3.013","1537.541","0","4.1","30.6404","4.80104","22.86","0","SATNPRO1963","25.324","0.3547","5"],
    [41964,"HCEP03730564","2024-12-08 10:15:00","11.7871","3.5323","28.269","2.035714285714286","7.25","3.014","1530.268","0","0.86","30.6402","4.80101","22.8","0","SATNPRO1963","24.992","0.35004","5"],
    [41965,"HCEP03730564","2024-12-08 10:30:00","11.787","3.53194","28.227","2.02","7.24","2.759","1871.432","0","3.56","30.6369","4.80054","22.64","0","SATNPRO1963","25.062","0.35102","5"],
    [41966,"HCEP03730564","2024-12-08 10:45:00","11.7864","3.53148","28.226","1.99","7.24","3.007","1503.785","0.01","3.64","30.6329","4.79998","22.29","0","SATNPRO1963","24.986","0.34998","5"],
    [41967,"HCEP03730564","2024-12-08 11:00:00","11.7864","3.53157","28.241","1.978571428571429","7.24","3.007","1496.854","0","0.86","30.6338","4.80011","22.16","0","SATNPRO1963","24.778","0.34708","5"],
    [41968,"HCEP03730564","2024-12-08 11:15:00","11.7864","3.53152","28.235","1.958571428571429","7.23","2.803","1805.465","0","4.06","30.6333","4.80003","21.95","0","SATNPRO1963","25.078","0.35124","5"],
    [41969,"HCEP03730564","2024-12-08 11:30:00","11.7865","3.53166","28.203","1.962857142857143","7.23","2.997","1507.476","0.01","5.58","30.6345","4.8002","21.99","0","SATNPRO1963","25.108","0.35172","5"],
    [41970,"HCEP03730564","2024-12-08 11:45:00","11.7871","3.53221","28.147","1.961428571428572","7.24","2.998","1498.303","0","0","30.6393","4.80088","21.98","0","SATNPRO1963","25.166","0.35246","5"],
    [41971,"HCEP03730564","2024-12-08 12:00:00","11.7874","3.53235","28.091","1.96","7.24","2.808","1785.617","0","3.39","30.6405","4.80103","21.96","0","SATNPRO1963","24.842","0.34796","5"],
    [41972,"HCEP03730564","2024-12-08 12:15:00","11.7873","3.53233","28.018","1.962857142857143","7.24","2.992","1493.267","0","4.18","30.6404","4.80101","21.99","0","SATNPRO1963","25.092","0.35146","5"],
    [41973,"HCEP03730564","2024-12-08 12:30:00","11.7874","3.53224","27.939","1.958571428571429","7.24","2.992","1486.418","0","0.54","30.6395","4.80088","21.94","0","SATNPRO1963","25.148","0.35228","5"],
    [41974,"HCEP03730564","2024-12-08 12:45:00","11.7872","3.53228","27.851","1.958571428571429","7.24","2.787","1812.727","0","3.02","30.6401","4.80096","21.95","0","SATNPRO1963","25.04","0.35074","5"],
    [41975,"HCEP03730564","2024-12-08 13:00:00","11.7874","3.53219","27.75","1.954285714285714","7.24","3.007","1452.8","0","3.91","30.6392","4.80083","21.89","0","SATNPRO1963","25.098","0.35156","5"],
    [41976,"HCEP03730564","2024-12-08 13:15:00","11.7868","3.53196","27.646","1.964285714285714","7.24","3.006","1447.887","0.01","0.86","30.6373","4.80057","22.01","0","SATNPRO1963","25.044","0.35078","5"],
    [41977,"HCEP03730564","2024-12-08 13:30:00","11.7866","3.53196","27.536","1.968571428571428","7.24","2.785","1752.887","0","3.21","30.6376","4.8006","22.06","0","SATNPRO1963","25.3","0.35436","5"],
    [41978,"HCEP03730564","2024-12-08 13:45:00","11.7868","3.53199","27.415","1.971428571428571","7.24","3.004","1432.822","0.01","4.18","30.6379","4.80063","22.09","0","SATNPRO1963","25.09","0.35142","5"],
    [41979,"HCEP03730564","2024-12-08 14:00:00","11.7865","3.53202","27.272","1.965714285714286","7.24","3.016","1427.771","0","0","30.6384","4.8007","22.03","0","SATNPRO1963","24.902","0.3488","5"],
    [41980,"HCEP03730564","2024-12-08 14:15:00","11.7869","3.53204","27.123","1.965714285714286","7.24","2.783","1732.263","0","4.13","30.6383","4.80068","22.02","0","SATNPRO1963","25.272","0.35398","5"],
    [41981,"HCEP03730564","2024-12-08 14:30:00","11.7868","3.53206","26.98","1.965714285714286","7.24","3.013","1471.912","0.01","2.54","30.6386","4.80071","22.02","0","SATNPRO1963","25.012","0.35034","5"],
    [41982,"HCEP03730564","2024-12-08 14:45:00","11.787","3.53203","26.83","1.96","7.24","3.017","1472.449","0","0.54","30.6382","4.80065","21.95","0","SATNPRO1963","25.054000000000002","0.35094","5"],
    [41983,"HCEP03730564","2024-12-08 15:00:00","11.7868","3.5321","26.677","1.942857142857143","7.24","2.786","1811.984","0.01","4.54","30.6391","4.80077","21.77","0","SATNPRO1963","24.814","0.3476","5"],
    [41984,"HCEP03730564","2024-12-08 15:15:00","11.7872","3.53219","26.534","1.927142857142857","7.24","2.979","1454.744","0.01","3.58","30.6397","4.80083","21.59","0","SATNPRO1963","24.684","0.34574","5"],
    [41985,"HCEP03730564","2024-12-08 15:30:00","11.7874","3.53229","26.399","1.911428571428572","7.24","2.979","1450.252","0","0.38","30.6406","4.80095","21.41","0","SATNPRO1963","24.756","0.34676","5"],
    [41986,"HCEP03730564","2024-12-08 15:45:00","11.7878","3.53233","26.275","1.892857142857143","7.24","2.74","1821.608","0","4.02","30.6407","4.80095","21.21","0","SATNPRO1963","24.868","0.3483","5"],
    [41987,"HCEP03730564","2024-12-08 16:00:00","11.7875","3.53233","26.178","1.874285714285714","7.23","2.999","1467.161","0.01","4.42","30.6409","4.80099","21","0","SATNPRO1963","24.528000000000002","0.34354","5"],
    [41988,"HCEP03730564","2024-12-08 16:15:00","11.7877","3.53233","26.088","1.86","7.24","3","1461.161","0","1.21","30.6409","4.80097","20.83","0","SATNPRO1963","24.692","0.34588","5"],
    [41989,"HCEP03730564","2024-12-08 16:30:00","11.7876","3.53237","25.998","1.852857142857143","7.23","2.782","1746.656","0","3.47","30.6414","4.80104","20.76","0","SATNPRO1963","24.658","0.34538","5"],
    [41990,"HCEP03730564","2024-12-08 16:45:00","11.7879","3.53243","25.927","1.845714285714286","7.22","2.986","1438.777","0","3.23","30.6417","4.80108","20.68","0","SATNPRO1963","24.372","0.34138","5"],
    [41991,"HCEP03730564","2024-12-08 17:00:00","11.7877","3.53261","25.877","1.832857142857143","7.23","2.985","1433.539","0","0","30.6436","4.80135","20.53","0","SATNPRO1963","24.236","0.33952","5"],
    [41992,"HCEP03730564","2024-12-08 17:15:00","11.7883","3.53289","25.856","1.82","7.23","2.769","1743.591","0","5.03","30.6458","4.80164","20.4","0","SATNPRO1963","25.402","0.3558","5"],
    [41993,"HCEP03730564","2024-12-08 17:30:00","11.7885","3.53312","25.858","1.841428571428571","7.23","2.993","1426.918","0.01","2.66","30.6479","4.80194","20.63","0","SATNPRO1963","24.524","0.34348","5"],
    [41994,"HCEP03730564","2024-12-08 17:45:00","11.7888","3.53323","25.875","1.854285714285714","7.23","2.992","1424.086","0","0","30.6487","4.80205","20.78","0","SATNPRO1963","24.554","0.34394","5"],
    [41995,"HCEP03730564","2024-12-08 18:00:00","11.7885","3.53327","25.896","1.865714285714286","7.23","2.722","1755.431","0","4.67","30.6492","4.80213","20.9","0","SATNPRO1963","24.686","0.34578","5"],
    [41996,"HCEP03730564","2024-12-08 18:15:00","11.7887","3.53333","25.915","1.881428571428572","7.23","2.97","1395.953","0.01","2.97","30.6497","4.80219","21.08","0","SATNPRO1963","25.419999999999998","0.35604","5"],
    [41997,"HCEP03730564","2024-12-08 18:30:00","11.7886","3.53331","25.946","1.888571428571429","7.23","2.97","1392.22","0","0.77","30.6496","4.80218","21.17","0","SATNPRO1963","24.936","0.3493","5"],
    [41998,"HCEP03730564","2024-12-08 18:45:00","11.7887","3.53335","25.987","1.901428571428572","7.23","2.768","1695.468","0","3.84","30.6499","4.80222","21.31","0","SATNPRO1963","24.872","0.3484","5"],
    [41999,"HCEP03730564","2024-12-08 19:00:00","11.7885","3.53331","26.044","1.882857142857143","7.24","2.992","1383.35","0.01","3.09","30.6497","4.8022","21.1","0","SATNPRO1963","24.786","0.34716","5"],
    [42000,"HCEP03730564","2024-12-08 19:15:00","11.787","3.53228","26.12","1.902857142857143","7.23","2.993","1378.944","0","1.08","30.641","4.801","21.33","0","SATNPRO1963","24.932000000000002","0.3492","5"],
    [42001,"HCEP03730564","2024-12-08 19:30:00","11.788","3.53311","26.175","1.931428571428572","7.23","2.75","1716.073","0","4.27","30.6481","4.80198","21.65","0","SATNPRO1963","24.682","0.34568","5"],
    [42002,"HCEP03730564","2024-12-08 19:45:00","11.7879","3.5327","26.243","1.928571428571429","7.23","2.995","1393.252","0.01","4.02","30.6442","4.80145","21.61","0","SATNPRO1963","24.998","0.35014","5"],
    [42003,"HCEP03730564","2024-12-08 20:00:00","11.7874","3.53261","26.291","1.96","7.23","2.997","1386.053","0","0.66","30.6438","4.8014","21.96","0","SATNPRO1963","25.34","0.35494","5"],
    [42004,"HCEP03730564","2024-12-08 20:15:00","11.7868","3.53123","26.303","1.955714285714286","7.22","2.779","1642.448","0","4.17","30.6309","4.79959","21.91","0","SATNPRO1963","24.786","0.34718","5"],
    [42005,"HCEP03730564","2024-12-08 20:30:00","11.7872","3.53199","26.349","1.911428571428572","7.22","3.005","1409.416","0","3","30.6378","4.80056","21.41","0","SATNPRO1963","24.966","0.34968","5"],
    [42006,"HCEP03730564","2024-12-08 20:45:00","11.7877","3.53192","26.376","1.858571428571428","7.23","3.005","1403.862","0","0","30.6368","4.80041","20.82","0","SATNPRO1963","24.462","0.34262","5"],
    [42007,"HCEP03730564","2024-12-08 21:00:00","11.7874","3.53145","26.418","1.817142857142857","7.22","2.803","1646.589","0","5.31","30.6325","4.79981","20.36","0","SATNPRO1963","24.504","0.34322","5"],
    [42008,"HCEP03730564","2024-12-08 21:15:00","11.7873","3.53077","26.469","1.762857142857143","7.22","3.02","1427.61","0.01","3.12","30.626","4.7989","19.75","0","SATNPRO1963","24.434","0.34222","5"],
    [42009,"HCEP03730564","2024-12-08 21:30:00","11.7868","3.53053","26.521","1.72","7.22","3.019","1420.393","0","1.15","30.624","4.79863","19.27","0","SATNPRO1963","24.448","0.34244","5"],
    [42010,"HCEP03730564","2024-12-08 21:45:00","11.7862","3.53011","26.569","1.708571428571429","7.21","2.818","1689.353","0","4.6","30.6206","4.79815","19.14","0","SATNPRO1963","24.54","0.34376","5"],
    [42011,"HCEP03730564","2024-12-08 22:00:00","11.786","3.53021","26.61","1.714285714285714","7.21","3.009","1456.278","0.01","3.02","30.6216","4.7983","19.21","0","SATNPRO1963","24.522000000000002","0.34346","5"],
    [42012,"HCEP03730564","2024-12-08 22:15:00","11.785","3.52954","26.618","1.697142857142857","7.21","3.007","1449.678","0","0.66","30.616","4.79752","19","0","SATNPRO1963","25.038","0.35068","5"],
    [42013,"HCEP03730564","2024-12-08 22:30:00","11.7844","3.52929","26.6","1.685714285714286","7.21","2.754","1708.894","0","3.47","30.6141","4.79727","18.88","0","SATNPRO1963","24.436","0.34226","5"],
    [42014,"HCEP03730564","2024-12-08 22:45:00","11.7843","3.52914","26.587","1.67","7.21","2.98","1427.826","0.01","2.4","30.6127","4.79707","18.71","0","SATNPRO1963","24.324","0.3407","5"],
    [42015,"HCEP03730564","2024-12-08 23:00:00","11.7834","3.52888","26.598","1.662857142857143","7.21","2.978","1421.109","0","1.01","30.611","4.79684","18.62","0","SATNPRO1963","24.376","0.34142","5"],
    [42016,"HCEP03730564","2024-12-08 23:15:00","11.783","3.5288","26.584","1.675714285714286","7.21","2.761","1669.565","0","3.64","30.6106","4.79679","18.76","0","SATNPRO1963","24.448","0.34246","5"],
    [42017,"HCEP03730564","2024-12-08 23:30:00","11.7829","3.52891","26.56","1.684285714285714","7.22","2.987","1400.12","0.01","2.87","30.6117","4.79694","18.87","0","SATNPRO1963","24.328","0.34076","5"],
    [42018,"HCEP03730564","2024-12-08 23:45:00","11.7828","3.52902","26.517","1.687142857142857","7.22","2.987","1394.854","0","0.54","30.6128","4.7971","18.89","0","SATNPRO1963","24.522","0.34348","5"],
    [42019,"HCEP03730564","2024-12-09 00:00:00","11.784","3.52939","26.457","1.697142857142857","7.22","2.757","1670.558","0","4.51","30.6155","4.79746","19.01","0","SATNPRO1963","24.212","0.33916","5"],
    [42020,"HCEP03730564","2024-12-09 00:15:00","11.7844","3.52978","26.403","1.697142857142857","7.22","2.993","1389.016","0","3.07","30.6189","4.79793","19.01","0","SATNPRO1963","24.414","0.3419","5"],
    [42021,"HCEP03730564","2024-12-09 00:30:00","11.7842","3.53006","26.339","1.695714285714286","7.22","2.994","1383.854","0","0.54","30.6218","4.79834","18.99","0","SATNPRO1963","24.63","0.34498","5"],
    [42022,"HCEP03730564","2024-12-09 00:45:00","11.7843","3.53016","26.277","1.714285714285714","7.21","2.741","1673.535","0","3.84","30.6227","4.79847","19.2","0","SATNPRO1963","24.198","0.33894","5"],
    [42023,"HCEP03730564","2024-12-09 01:00:00","11.7846","3.53031","26.201","1.717142857142857","7.22","2.988","1401.126","0.01","2.68","30.6239","4.79863","19.24","0","SATNPRO1963","24.292","0.34024","5"],
    [42024,"HCEP03730564","2024-12-09 01:15:00","11.7845","3.53037","26.112","1.717142857142857","7.22","2.989","1396.46","0","1.01","30.6246","4.79872","19.23","0","SATNPRO1963","24.35","0.34104","5"],
    [42025,"HCEP03730564","2024-12-09 01:30:00","11.7847","3.53047","26.022","1.71","7.22","2.789","1689.605","0","3.43","30.6254","4.79883","19.15","0","SATNPRO1963","24.43","0.34216","5"],
    [42026,"HCEP03730564","2024-12-09 01:45:00","11.7846","3.53035","25.922","1.698571428571429","7.22","3.005","1392.917","0.01","3.54","30.6243","4.79867","19.03","0","SATNPRO1963","24.314","0.34056","5"],
    [42027,"HCEP03730564","2024-12-09 02:00:00","11.7846","3.53036","25.84","1.692857142857143","7.22","3.004","1387.867","0.01","0","30.6245","4.7987","18.96","0","SATNPRO1963","24.568","0.34416","5"],
    [42028,"HCEP03730564","2024-12-09 02:15:00","11.7851","3.5305","25.765","1.684285714285714","7.21","2.808","1703.603","0","2.71","30.6255","4.79881","18.87","0","SATNPRO1963","24.26","0.33978","5"],
    [42029,"HCEP03730564","2024-12-09 02:30:00","11.7846","3.53052","25.694","1.682857142857143","7.21","2.998","1444.898","0.01","3.41","30.6261","4.79891","18.85","0","SATNPRO1963","24.32","0.34064","5"],
    [42030,"HCEP03730564","2024-12-09 02:45:00","11.7845","3.53053","25.615","1.681428571428572","7.21","2.997","1440.519","0","0","30.6264","4.79894","18.84","0","SATNPRO1963","24.364","0.34124","5"],
    [42031,"HCEP03730564","2024-12-09 03:00:00","11.785","3.53058","25.529","1.681428571428572","7.21","2.779","1743.787","0","4.6","30.6265","4.79894","18.84","0","SATNPRO1963","24.086000000000002","0.33738","5"],
    [42032,"HCEP03730564","2024-12-09 03:15:00","11.785","3.5306","25.434","1.677142857142857","7.21","2.992","1449.64","0.01","4.32","30.6267","4.79897","18.8","0","SATNPRO1963","24.256","0.33974","5"],
    [42033,"HCEP03730564","2024-12-09 03:30:00","11.7853","3.53061","25.365","1.68","7.21","2.993","1442.781","0","0.54","30.6266","4.79894","18.82","0","SATNPRO1963","24.024","0.33648","5"],
    [42034,"HCEP03730564","2024-12-09 03:45:00","11.7851","3.53067","25.325","1.67","7.22","2.755","1732.018","0","9.47","30.6273","4.79905","18.71","0","SATNPRO1963","23.976","0.33584","5"],
    [42035,"HCEP03730564","2024-12-09 04:00:00","11.7853","3.53068","25.312","1.652857142857143","7.21","2.99","1399.571","0.01","3.93","30.6272","4.79904","18.52","0","SATNPRO1963","23.968","0.33572","5"],
    [42036,"HCEP03730564","2024-12-09 04:15:00","11.7855","3.53095","25.296","1.64","7.22","2.988","1393.918","0","0.77","30.6296","4.79937","18.37","0","SATNPRO1963","23.708","0.33208","5"],
    [42037,"HCEP03730564","2024-12-09 04:30:00","11.7857","3.53123","25.392","1.614285714285714","7.21","2.749","1770.94","0","4.27","30.6322","4.79973","18.09","0","SATNPRO1963","23.664","0.33148","5"],
    [42038,"HCEP03730564","2024-12-09 04:45:00","11.7851","3.53086","25.441","1.601428571428571","7.21","2.986","1421.56","0.01","4.96","30.6291","4.79931","17.94","0","SATNPRO1963","23.648","0.33126","5"],
    [42039,"HCEP03730564","2024-12-09 05:00:00","11.7842","3.53034","25.553","1.617142857142857","7.21","2.986","1414.627","0","1.08","30.6248","4.79872","18.12","0","SATNPRO1963","24.184","0.33872","5"],
    [42040,"HCEP03730564","2024-12-09 05:15:00","11.7831","3.53016","25.649","1.674285714285714","7.21","2.766","1771.614","0","4.44","30.6239","4.79862","18.76","0","SATNPRO1963","24.546","0.34382","5"],
    [42041,"HCEP03730564","2024-12-09 05:30:00","11.7816","3.53018","25.726","1.767142857142857","7.21","2.997","1455.182","0","3.04","30.6253","4.79884","19.79","0","SATNPRO1963","24.82","0.34768","5"],
    [42042,"HCEP03730564","2024-12-09 05:45:00","11.7769","3.52967","25.811","1.86","7.22","2.998","1449.062","0","0.54","30.6243","4.79876","20.83","0","SATNPRO1963","25.03","0.3506","5"],
    [42043,"HCEP03730564","2024-12-09 06:00:00","11.7724","3.52928","25.925","1.98","7.22","2.779","1778.186","0","4.6","30.6242","4.79882","22.17","0","SATNPRO1963","25.078","0.35124","5"],
    [42044,"HCEP03730564","2024-12-09 06:15:00","11.7717","3.52934","26.019","2.07","7.23","3.002","1441.013","0.01","4.04","30.6253","4.79899","23.18","0","SATNPRO1963","24.936","0.34932","5"],
    [42045,"HCEP03730564","2024-12-09 06:30:00","11.7715","3.52941","26.141","2.098571428571429","7.23","3.003","1437.469","0","0.66","30.626","4.7991","23.5","0","SATNPRO1963","25.096","0.35152","5"],
    [42046,"HCEP03730564","2024-12-09 06:45:00","11.7714","3.52949","26.298","2.115714285714286","7.23","2.802","1744.121","0.01","3.64","30.6268","4.79923","23.69","0","SATNPRO1963","25.064","0.35106","5"],
    [42047,"HCEP03730564","2024-12-09 07:00:00","11.7696","3.52937","26.461","2.127142857142857","7.23","3.02","1481.294","0","3.02","30.6272","4.79932","23.83","0","SATNPRO1963","25.016","0.35036","5"],
    [42048,"HCEP03730564","2024-12-09 07:15:00","11.7594","3.52822","26.554","2.238571428571428","7.24","3.02","1475.361","0","0","30.6243","4.79907","25.06","0","SATNPRO1963","25.414","0.35596","5"],
    [42049,"HCEP03730564","2024-12-09 07:30:00","11.749","3.52662","26.65","2.5","7.26","2.836","1831.541","0","4.7","30.6175","4.79826","27.98","0","SATNPRO1963","25.834","0.36184","5"],
    [42050,"HCEP03730564","2024-12-09 07:45:00","11.7437","3.52566","26.797","2.657142857142858","7.27","3.024","1591.93","0","5.51","30.6125","4.79764","29.74","0","SATNPRO1963","25.452","0.35648","5"],
    [42051,"HCEP03730564","2024-12-09 08:00:00","11.7351","3.52396","26.972","2.75","7.29","3.025","1587.345","0","0","30.6032","4.79645","30.76","0","SATNPRO1963","25.464","0.35666","5"],
    [42052,"HCEP03730564","2024-12-09 08:15:00","11.725","3.52129","27.137","2.88","7.29","2.844","1891.802","0","2.36","30.5857","4.79414","32.21","0","SATNPRO1963","25.732","0.3604","5"],
    [42053,"HCEP03730564","2024-12-09 08:30:00","11.7138","3.51842","27.305","2.992857142857143","7.3","3.055","1640.734","0.01","5.61","30.5672","4.79169","33.46","0","SATNPRO1963","25.848","0.36206","5"],
    [42054,"HCEP03730564","2024-12-09 08:45:00","11.7103","3.51735","27.478","3.085714285714286","7.31","3.056","1632.471","0","0.94","30.5596","4.79068","34.49","0","SATNPRO1963","25.742","0.36056","5"],
    [42055,"HCEP03730564","2024-12-09 09:00:00","11.7001","3.51463","27.673","3.147142857142857","7.31","2.878","1896.349","0","5.29","30.5416","4.7883","35.18","0","SATNPRO1963","25.99","0.36404","5"],
    [42056,"HCEP03730564","2024-12-09 09:15:00","11.6906","3.51283","27.811","3.278571428571428","7.31","3.039","1699.944","0.01","7.75","30.5321","4.7871","36.64","0","SATNPRO1963","26.042","0.36472","5"],
    [42057,"HCEP03730564","2024-12-09 09:30:00","11.6809","3.51197","27.991","3.427142857142857","7.32","3.041","1692.346","0","0","30.5317","4.78719","38.29","0","SATNPRO1963","26.174","0.36662","5"],
    [42058,"HCEP03730564","2024-12-09 09:45:00","11.6803","3.51247","28.122","3.552857142857143","7.32","2.881","1945.081","0","3.39","30.537","4.78795","39.69","0","SATNPRO1963","25.868","0.36228","5"],
    [42059,"HCEP03730564","2024-12-09 10:00:00","11.6814","3.51297","28.226","3.574285714285714","7.33","3.047","1650.439","0.01","4.06","30.5409","4.78849","39.92","0","SATNPRO1963","26.07","0.36512","5"],
    [42060,"HCEP03730564","2024-12-09 10:15:00","11.683","3.5136","28.247","3.541428571428572","7.33","3.046","1646.247","0","1.33","30.5456","4.78914","39.56","0","SATNPRO1963","26.004","0.36424","5"],
    [42061,"HCEP03730564","2024-12-09 10:30:00","11.6851","3.51434","28.263","3.514285714285714","7.33","2.866","1879.412","0","4.85","30.551","4.78987","39.26","0","SATNPRO1963","26.132","0.36602","5"],
    [42062,"HCEP03730564","2024-12-09 10:45:00","11.6885","3.51513","28.316","3.488571428571429","7.33","3.033","1576.215","0","2.87","30.5558","4.79051","38.98","0","SATNPRO1963","25.968","0.36372","5"],
    [42063,"HCEP03730564","2024-12-09 11:00:00","11.6901","3.5157","28.309","3.461428571428572","7.33","3.031","1567.541","0","0.94","30.5599","4.79106","38.69","0","SATNPRO1963","26.074","0.36518","5"],
    [42064,"HCEP03730564","2024-12-09 11:15:00","11.6906","3.51601","28.317","3.438571428571429","7.33","2.821","1899.387","0","5.2","30.5626","4.79144","38.42","0","SATNPRO1963","25.922","0.36308","5"],
    [42065,"HCEP03730564","2024-12-09 11:30:00","11.6917","3.51634","28.292","3.435714285714286","7.33","3.007","1562.745","0.01","2.92","30.5649","4.79174","38.39","0","SATNPRO1963","26.096","0.3655","5"],
    [42066,"HCEP03730564","2024-12-09 11:45:00","11.6918","3.51675","28.258","3.431428571428572","7.33","3.007","1557.214","0","0","30.5688","4.79228","38.35","0","SATNPRO1963","25.849999999999998","0.36208","5"],
    [42067,"HCEP03730564","2024-12-09 12:00:00","11.6912","3.517","28.219","3.447142857142857","7.33","2.788","1873.708","0.01","5.53","30.5717","4.7927","38.53","0","SATNPRO1963","25.758","0.36078","5"],
    [42068,"HCEP03730564","2024-12-09 12:15:00","11.6922","3.51762","28.167","3.478571428571429","7.33","3.008","1561.292","0.01","4.17","30.5769","4.79342","38.87","0","SATNPRO1963","26.048","0.36486","5"],
    [42069,"HCEP03730564","2024-12-09 12:30:00","11.6936","3.51812","28.108","3.507142857142857","7.34","3.007","1553.501","0","0","30.5805","4.79391","39.2","0","SATNPRO1963","26.194","0.36692","5"],
    [42070,"HCEP03730564","2024-12-09 12:45:00","11.6966","3.51903","28.026","3.504285714285714","7.34","2.77","1890.264","0","4.27","30.5869","4.79477","39.16","0","SATNPRO1963","25.84","0.3619","5"],
    [42071,"HCEP03730564","2024-12-09 13:00:00","11.7012","3.5199","27.939","3.47","7.34","3.026","1574.711","0.01","3.87","30.5915","4.79534","38.79","0","SATNPRO1963","25.836","0.36184","5"],
    [42072,"HCEP03730564","2024-12-09 13:15:00","11.7043","3.52041","27.858","3.441428571428571","7.34","3.025","1569.671","0","0.54","30.5939","4.79563","38.48","0","SATNPRO1963","25.956","0.36362","5"],
    [42073,"HCEP03730564","2024-12-09 13:30:00","11.719","3.52227","27.743","3.337142857142857","7.33","2.813","1895.682","0","5.58","30.5998","4.79625","37.33","0","SATNPRO1963","25.78","0.36112","5"],
    [42074,"HCEP03730564","2024-12-09 13:45:00","11.7245","3.52329","27.617","3.174285714285714","7.32","3.015","1587.333","0","3.95","30.6051","4.79691","35.5","0","SATNPRO1963","25.94","0.36336","5"],
    [42075,"HCEP03730564","2024-12-09 14:00:00","11.7261","3.5236","27.481","3.105714285714286","7.32","3.016","1581.968","0","0.54","30.6069","4.79714","34.74","0","SATNPRO1963","26.044","0.36474","5"],
    [42076,"HCEP03730564","2024-12-09 14:15:00","11.7273","3.52385","27.345","3.075714285714286","7.31","2.801","1892.042","0.01","3.84","30.6084","4.79732","34.42","0","SATNPRO1963","25.72","0.36026","5"],
    [42077,"HCEP03730564","2024-12-09 14:30:00","11.73","3.52433","27.196","3.027142857142858","7.31","3.016","1519.057","0","2.63","30.6108","4.79761","33.87","0","SATNPRO1963","25.71","0.36012","5"],
    [42078,"HCEP03730564","2024-12-09 14:45:00","11.7341","3.52507","27.01","2.994285714285715","7.31","3.015","1512.283","0","0","30.6147","4.79809","33.49","0","SATNPRO1963","26.004","0.3642","5"],
    [42079,"HCEP03730564","2024-12-09 15:00:00","11.7413","3.52631","26.835","2.941428571428572","7.3","2.777","1820.988","0","5.29","30.6207","4.79883","32.91","0","SATNPRO1963","25.77","0.36092","5"],
    [42080,"HCEP03730564","2024-12-09 15:15:00","11.7558","3.52871","26.667","2.791428571428571","7.29","3.003","1492.168","0.01","3.72","30.632","4.80021","31.25","0","SATNPRO1963","25.509999999999998","0.35732","5"],
    [42081,"HCEP03730564","2024-12-09 15:30:00","11.758","3.52899","26.5","2.578571428571429","7.3","3.001","1483.619","0.01","0.38","30.6329","4.80029","28.87","0","SATNPRO1963","25.42","0.35602","5"],
    [42082,"HCEP03730564","2024-12-09 15:45:00","11.7587","3.52884","26.349","2.532857142857143","7.28","2.798","1785.342","0","4.63","30.631","4.8","28.36","0","SATNPRO1963","25.7","0.35992","5"],
    [42083,"HCEP03730564","2024-12-09 16:00:00","11.7542","3.52847","26.183","2.541428571428571","7.28","3.008","1447.178","0.01","3.09","30.6313","4.8001","28.44","0","SATNPRO1963","25.65","0.35924","5"],
    [42084,"HCEP03730564","2024-12-09 16:15:00","11.7569","3.52874","26.016","2.534285714285714","7.29","3.008","1441.295","0.01","0","30.6317","4.8001","28.37","0","SATNPRO1963","25.604","0.35862","5"],
    [42085,"HCEP03730564","2024-12-09 16:30:00","11.7664","3.52994","25.858","2.412857142857143","7.28","2.73","1789.386","0","3.56","30.6354","4.80049","27.02","0","SATNPRO1963","25.174","0.35258","5"],
    [42086,"HCEP03730564","2024-12-09 16:45:00","11.7693","3.53033","25.71","2.281428571428572","7.27","2.991","1454.211","0.01","4.37","30.6369","4.80064","25.56","0","SATNPRO1963","25.278000000000002","0.35406","5"],
    [42087,"HCEP03730564","2024-12-09 17:00:00","11.7713","3.53052","25.589","2.212857142857143","7.27","2.991","1448.229","0","0.77","30.6372","4.80065","24.78","0","SATNPRO1963","25.189999999999998","0.35284","5"],
    [42088,"HCEP03730564","2024-12-09 17:15:00","11.7716","3.53033","25.49","2.16","7.26","2.726","1804.229","0","4.85","30.6351","4.80035","24.19","0","SATNPRO1963","25.038","0.35072","5"],
    [42089,"HCEP03730564","2024-12-09 17:30:00","11.7724","3.53043","25.413","2.138571428571429","7.26","2.999","1422.842","0.01","2.49","30.6354","4.80037","23.95","0","SATNPRO1963","25.21","0.35312","5"],
    [42090,"HCEP03730564","2024-12-09 17:45:00","11.7729","3.53052","25.368","2.114285714285714","7.26","2.997","1416.692","0","0.66","30.6359","4.80044","23.68","0","SATNPRO1963","24.908","0.34886","5"],
    [42091,"HCEP03730564","2024-12-09 18:00:00","11.7729","3.53041","25.346","2.1","7.25","2.764","1701.375","0.01","5.48","30.6349","4.8003","23.52","0","SATNPRO1963","25.196","0.35288","5"],
    [42092,"HCEP03730564","2024-12-09 18:15:00","11.7739","3.5305","25.335","2.097142857142857","7.25","2.99","1381.313","0.01","3.09","30.6349","4.80028","23.48","0","SATNPRO1963","25.1","0.35156","5"],
    [42093,"HCEP03730564","2024-12-09 18:30:00","11.7732","3.53053","25.343","2.084285714285714","7.25","2.991","1375.438","0","0","30.6357","4.80041","23.35","0","SATNPRO1963","25.068","0.35114","5"],
    [42094,"HCEP03730564","2024-12-09 18:45:00","11.7715","3.53021","25.357","2.082857142857143","7.24","2.755","1681.421","0","6.14","30.6341","4.8002","23.33","0","SATNPRO1963","24.994","0.3501","5"],
    [42095,"HCEP03730564","2024-12-09 19:00:00","11.7675","3.52965","25.387","2.115714285714286","7.24","2.997","1387.683","0.01","4.18","30.632","4.79996","23.69","0","SATNPRO1963","25.426000000000002","0.35612","5"],
    [42096,"HCEP03730564","2024-12-09 19:15:00","11.7636","3.52899","25.449","2.18","7.25","2.996","1384.227","0","0","30.6288","4.79957","24.42","0","SATNPRO1963","25.452","0.35648","5"],
    [42097,"HCEP03730564","2024-12-09 19:30:00","11.7563","3.52793","25.549","2.28","7.25","2.784","1731.916","0","3.99","30.6245","4.79907","25.52","0","SATNPRO1963","25.52","0.35746","5"],
    [42098,"HCEP03730564","2024-12-09 19:45:00","11.7543","3.52777","25.622","2.39","7.25","3.016","1445.252","0.01","3.02","30.6246","4.79912","26.76","0","SATNPRO1963","25.368000000000002","0.3553","5"],
    [42099,"HCEP03730564","2024-12-09 20:00:00","11.7491","3.52692","25.709","2.417142857142857","7.26","3.019","1439.66","0","0.86","30.6206","4.79864","27.05","0","SATNPRO1963","25.302","0.3544","5"],
    [42100,"HCEP03730564","2024-12-09 20:15:00","11.7559","3.52786","25.781","2.455714285714286","7.26","2.786","1762.564","0","3.68","30.6242","4.79905","27.49","0","SATNPRO1963","25.09","0.35142","5"],
    [42101,"HCEP03730564","2024-12-09 20:30:00","11.7615","3.52869","25.866","2.364285714285714","7.26","3.008","1491.571","0.01","3.39","30.6274","4.79943","26.47","0","SATNPRO1963","25.354","0.35514","5"],
    [42102,"HCEP03730564","2024-12-09 20:45:00","11.7683","3.52977","25.953","2.237142857142857","7.27","3.009","1484.463","0","0.94","30.6322","4.80002","25.05","0","SATNPRO1963","25.078","0.35126","5"],
    [42103,"HCEP03730564","2024-12-09 21:00:00","11.772","3.53029","26.028","2.112857142857143","7.25","2.777","1819.68","0","4.24","30.6341","4.80024","23.66","0","SATNPRO1963","25.532","0.35756","5"],
    [42104,"HCEP03730564","2024-12-09 21:15:00","11.7728","3.53041","26.109","2.075714285714286","7.25","3.029","1537.683","0.01","4.49","30.6346","4.8003","23.24","0","SATNPRO1963","25.37","0.35538","5"],
    [42105,"HCEP03730564","2024-12-09 21:30:00","11.774","3.53064","26.188","2.055714285714286","7.24","3.032","1530.451","0","1.01","30.6358","4.80046","23.02","0","SATNPRO1963","25.18","0.3527","5"],
    [42106,"HCEP03730564","2024-12-09 21:45:00","11.7751","3.53095","26.281","2.037142857142857","7.24","2.824","1813.085","0","4.47","30.6379","4.80074","22.82","0","SATNPRO1963","25.358","0.35518","5"],
    [42107,"HCEP03730564","2024-12-09 22:00:00","11.7776","3.53184","26.364","2.001428571428571","7.24","3.012","1542.352","0.01","4.59","30.6444","4.80163","22.42","0","SATNPRO1963","24.996","0.35012","5"],
    [42108,"HCEP03730564","2024-12-09 22:15:00","11.7788","3.53189","26.464","1.934285714285714","7.24","3.008","1533.499","0","0","30.6438","4.80153","21.66","0","SATNPRO1963","24.844","0.34796","5"],
    [42109,"HCEP03730564","2024-12-09 22:30:00","11.778","3.53152","26.548","1.881428571428572","7.23","2.861","1735.862","0","3.34","30.6409","4.80113","21.08","0","SATNPRO1963","24.816","0.3476","5"],
    [42110,"HCEP03730564","2024-12-09 22:45:00","11.7774","3.53136","26.627","1.92","7.23","3","1512.341","0","2.92","30.6397","4.80099","21.51","0","SATNPRO1963","24.866","0.3483","5"],
    [42111,"HCEP03730564","2024-12-09 23:00:00","11.7779","3.53139","26.697","1.872857142857143","7.23","2.999","1507.373","0","1.15","30.6396","4.80096","20.99","0","SATNPRO1963","24.548000000000002","0.34382","5"],
    [42112,"HCEP03730564","2024-12-09 23:15:00","11.7772","3.53102","26.74","1.832857142857143","7.23","2.815","1774.981","0","3.02","30.6367","4.80056","20.53","0","SATNPRO1963","24.695999999999998","0.3459","5"],
    [42113,"HCEP03730564","2024-12-09 23:30:00","11.7767","3.53079","26.769","1.852857142857143","7.23","2.992","1517.195","0.01","5.62","30.6348","4.8003","20.75","0","SATNPRO1963","24.704","0.34604","5"],
    [42114,"HCEP03730564","2024-12-09 23:45:00","11.7765","3.53062","26.795","1.835714285714286","7.23","2.994","1509.68","0","1.44","30.6333","4.8001","20.56","0","SATNPRO1963","24.514","0.34338","5"],
    [42115,"HCEP03730564","2024-12-10 00:00:00","11.7743","3.53007","26.804","1.831428571428571","7.22","2.773","1816.918","0","5.15","30.6299","4.79965","20.51","0","SATNPRO1963","24.567999999999998","0.34412","5"],
    [42116,"HCEP03730564","2024-12-10 00:15:00","11.7703","3.52924","26.812","1.882857142857143","7.23","2.992","1473.141","0.01","4.2","30.6252","4.79904","21.09","0","SATNPRO1963","24.858","0.34818","5"],
    [42117,"HCEP03730564","2024-12-10 00:30:00","11.7618","3.52758","26.793","1.995714285714286","7.23","2.993","1466.317","0","0.38","30.6162","4.79789","22.34","0","SATNPRO1963","24.934","0.34922","5"],
    [42118,"HCEP03730564","2024-12-10 00:45:00","11.7572","3.52606","26.762","2.154285714285714","7.23","2.778","1785.158","0","4.82","30.6053","4.79642","24.12","0","SATNPRO1963","25.224","0.3533","5"],
    [42119,"HCEP03730564","2024-12-10 01:00:00","11.7575","3.52593","26.727","2.204285714285714","7.24","2.993","1472.224","0.01","7.17","30.6038","4.7962","24.67","0","SATNPRO1963","25.204","0.35304","5"],
    [42120,"HCEP03730564","2024-12-10 01:15:00","11.7589","3.52579","26.701","2.18","7.24","2.992","1465.794","0","0.54","30.6013","4.79583","24.41","0","SATNPRO1963","25.188000000000002","0.3528","5"],
    [42121,"HCEP03730564","2024-12-10 01:30:00","11.7606","3.52589","26.675","2.134285714285714","7.24","2.74","1808.095","0","3.91","30.6009","4.79574","23.89","0","SATNPRO1963","25.066","0.35108","5"],
    [42122,"HCEP03730564","2024-12-10 01:45:00","11.7615","3.52595","26.632","2.105714285714286","7.23","2.99","1484.271","0.01","3.12","30.6007","4.7957","23.57","0","SATNPRO1963","25.044","0.35076","5"],
    [42123,"HCEP03730564","2024-12-10 02:00:00","11.7617","3.52612","26.565","2.09","7.23","2.993","1479.964","0","1.15","30.6023","4.79592","23.4","0","SATNPRO1963","25.488","0.357","5"],
    [42124,"HCEP03730564","2024-12-10 02:15:00","11.763","3.52628","26.504","2.062857142857143","7.23","2.723","1763.068","0","3.76","30.6028","4.79597","23.09","0","SATNPRO1963","24.932","0.34918","5"],
    [42125,"HCEP03730564","2024-12-10 02:30:00","11.7668","3.52703","26.44","2.022857142857143","7.23","2.969","1442.307","0.01","3.34","30.6068","4.79648","22.65","0","SATNPRO1963","24.89","0.34864","5"],
    [42126,"HCEP03730564","2024-12-10 02:45:00","11.7681","3.52722","26.399","1.954285714285714","7.23","2.97","1436.747","0","1.44","30.6076","4.79657","21.88","0","SATNPRO1963","24.872","0.34834","5"],
    [42127,"HCEP03730564","2024-12-10 03:00:00","11.7713","3.52776","26.347","1.871428571428571","7.22","2.727","1778.814","0.01","3.43","30.6103","4.7969","20.95","0","SATNPRO1963","24.554000000000002","0.34392","5"],
    [42128,"HCEP03730564","2024-12-10 03:15:00","11.7713","3.52773","26.288","1.82","7.22","2.968","1418.281","0.01","6.8","30.6099","4.79684","20.38","0","SATNPRO1963","24.598","0.34452","5"],
    [42129,"HCEP03730564","2024-12-10 03:30:00","11.772","3.52783","26.21","1.78","7.22","2.969","1410.598","0","1.08","30.6104","4.7969","19.94","0","SATNPRO1963","24.586","0.3444","5"],
    [42130,"HCEP03730564","2024-12-10 03:45:00","11.7721","3.52778","26.14","1.74","7.22","2.763","1678.922","0","4.24","30.6099","4.79682","19.48","0","SATNPRO1963","24.198","0.3389","5"],
    [42131,"HCEP03730564","2024-12-10 04:00:00","11.7722","3.52779","26.056","1.731428571428571","7.22","2.988","1411.22","0","3.85","30.6099","4.79682","19.38","0","SATNPRO1963","24.518","0.34342","5"],
    [42132,"HCEP03730564","2024-12-10 04:15:00","11.772","3.52778","25.985","1.724285714285714","7.22","2.986","1405.098","0","0","30.61","4.79683","19.31","0","SATNPRO1963","24.366","0.3413","5"],
    [42133,"HCEP03730564","2024-12-10 04:30:00","11.773","3.52768","25.928","1.702857142857143","7.21","2.752","1689.546","0","4.2","30.6083","4.79657","19.07","0","SATNPRO1963","24.226","0.33932","5"],
    [42134,"HCEP03730564","2024-12-10 04:45:00","11.7738","3.52763","25.874","1.652857142857143","7.21","3","1406.443","0","3.04","30.6071","4.79639","18.51","0","SATNPRO1963","23.683999999999997","0.33174","5"],
    [42135,"HCEP03730564","2024-12-10 05:00:00","11.7741","3.52753","25.83","1.62","7.21","3","1400.145","0","0","30.606","4.79622","18.14","0","SATNPRO1963","24.146","0.33826","5"],
    [42136,"HCEP03730564","2024-12-10 05:15:00","11.7743","3.52751","25.786","1.6","7.21","2.757","1745.579","0","4.79","30.6056","4.79617","17.92","0","SATNPRO1963","24.082","0.3373","5"],
    [42137,"HCEP03730564","2024-12-10 05:30:00","11.7739","3.52753","25.758","1.592857142857143","7.21","3.011","1415.074","0.01","2.77","30.6061","4.79624","17.84","0","SATNPRO1963","23.988","0.33598","5"],
    [42138,"HCEP03730564","2024-12-10 05:45:00","11.7733","3.5277","25.751","1.594285714285714","7.21","3.009","1408.566","0","0","30.6082","4.79655","17.85","0","SATNPRO1963","24.204","0.33902","5"],
    [42139,"HCEP03730564","2024-12-10 06:00:00","11.7732","3.52771","25.759","1.594285714285714","7.21","2.758","1730.512","0","4.85","30.6084","4.79658","17.85","0","SATNPRO1963","23.654","0.3313","5"],
    [42140,"HCEP03730564","2024-12-10 06:15:00","11.7732","3.52771","25.785","1.591428571428572","7.21","2.981","1420.98","0.01","5.74","30.6084","4.79658","17.82","0","SATNPRO1963","23.918","0.33502","5"],
    [42141,"HCEP03730564","2024-12-10 06:30:00","11.7731","3.52771","25.835","1.597142857142857","7.21","2.98","1414.938","0","0","30.6084","4.79658","17.89","0","SATNPRO1963","24.256","0.33978","5"],
    [42142,"HCEP03730564","2024-12-10 06:45:00","11.7715","3.5276","25.914","1.634285714285714","7.2","2.723","1751.124","0","4.13","30.6087","4.79666","18.3","0","SATNPRO1963","24.528","0.34356","5"],
    [42143,"HCEP03730564","2024-12-10 07:00:00","11.7712","3.52782","25.97","1.694285714285714","7.21","2.981","1404.817","0.01","2.74","30.6111","4.79699","18.98","0","SATNPRO1963","24.438","0.3423","5"],
    [42144,"HCEP03730564","2024-12-10 07:15:00","11.7677","3.52731","26.046","1.727142857142857","7.21","2.981","1399.515","0","0","30.609","4.79675","19.34","0","SATNPRO1963","24.592","0.34442","5"],
    [42145,"HCEP03730564","2024-12-10 07:30:00","11.758","3.52538","26.139","1.822857142857143","7.21","2.764","1685.646","0","5.94","30.5983","4.79539","20.41","0","SATNPRO1963","24.648","0.34524","5"],
    [42146,"HCEP03730564","2024-12-10 07:45:00","11.7454","3.52315","26.284","1.977142857142857","7.23","2.979","1391.675","0.01","3.93","30.5871","4.794","22.13","0","SATNPRO1963","24.036","0.3367","5"],
    [42147,"HCEP03730564","2024-12-10 08:00:00","11.7028","3.51352","26.412","2.148571428571429","7.24","2.98","1386.839","0","0.86","30.5293","4.78644","24.02","0","SATNPRO1963","24.419999999999998","0.34206","5"],
    [42148,"HCEP03730564","2024-12-10 08:15:00","11.6868","3.50947","26.614","2.517142857142857","7.25","2.684","1733.412","0","3.56","30.5033","4.78301","28.13","0","SATNPRO1963","24.71","0.34614","5"],
    [42149,"HCEP03730564","2024-12-10 08:30:00","11.6758","3.50663","26.792","2.717142857142857","7.26","2.969","1379.49","0.01","3.02","30.4849","4.78058","30.34","0","SATNPRO1963","24.733999999999998","0.34644","5"],
    [42150,"HCEP03730564","2024-12-10 08:45:00","11.6644","3.5033","26.968","2.878571428571429","7.27","2.969","1374.588","0","0.38","30.462","4.77752","32.13","0","SATNPRO1963","24.866","0.34828","5"],
    [42151,"HCEP03730564","2024-12-10 09:00:00","11.6516","3.50058","27.11","3.045714285714286","7.28","2.704","1733.61","0.01","5","30.4462","4.77549","33.99","0","SATNPRO1963","25.274","0.354","5"],
    [42152,"HCEP03730564","2024-12-10 09:15:00","11.6343","3.49757","27.22","3.275714285714286","7.29","2.971","1357.624","0.01","3.21","30.4313","4.77363","36.53","0","SATNPRO1963","25.483999999999998","0.35696","5"],
    [42153,"HCEP03730564","2024-12-10 09:30:00","11.6264","3.49717","27.293","3.511428571428572","7.31","2.971","1353.068","0","0.86","30.4338","4.77411","39.15","0","SATNPRO1963","25.504","0.35726","5"],
    [42154,"HCEP03730564","2024-12-10 09:45:00","11.6312","3.49813","27.461","3.604285714285714","7.31","2.762","1613.123","0","3.34","30.4391","4.7748","40.19","0","SATNPRO1963","25.518","0.35744","5"],
    [42155,"HCEP03730564","2024-12-10 10:00:00","11.6163","3.49576","27.645","3.667142857142857","7.32","3.005","1370.214","0.01","2.27","30.4284","4.77351","40.89","0","SATNPRO1963","25.784","0.36116","5"],
    [42156,"HCEP03730564","2024-12-10 10:15:00","11.626","3.49682","27.785","3.804285714285714","7.33","3.006","1366.282","0","0.94","30.4306","4.77368","42.42","0","SATNPRO1963","25.784000000000002","0.36114","5"],
    [42157,"HCEP03730564","2024-12-10 10:30:00","11.6247","3.4964","27.887","3.722857142857143","7.32","2.759","1639.162","0","3.56","30.4276","4.77329","41.51","0","SATNPRO1963","25.82","0.36166","5"],
    [42158,"HCEP03730564","2024-12-10 10:45:00","11.6104","3.49458","27.984","3.785714285714286","7.33","2.997","1359.01","0","3.82","30.4217","4.77266","42.19","0","SATNPRO1963","25.71","0.36008","5"],
    [42159,"HCEP03730564","2024-12-10 11:00:00","11.6301","3.4978","28.054","3.85","7.34","2.995","1354.607","0","0.86","30.4366","4.77449","42.93","0","SATNPRO1963","25.758","0.36078","5"],
    [42160,"HCEP03730564","2024-12-10 11:15:00","11.6387","3.49908","28.12","3.61","7.33","2.74","1659.177","0","5.69","30.4419","4.77511","40.26","0","SATNPRO1963","25.112000000000002","0.35176","5"],
    [42161,"HCEP03730564","2024-12-10 11:30:00","11.6984","3.51174","28.174","3.248571428571429","7.33","2.984","1388.244","0","9.44","30.515","4.78459","36.29","0","SATNPRO1963","24.548000000000002","0.3438","5"],
    [42162,"HCEP03730564","2024-12-10 11:45:00","11.7228","3.51754","28.209","2.725714285714286","7.31","2.984","1382.323","0","0","30.5509","4.78932","30.48","0","SATNPRO1963","23.82","0.33364","5"],
    [42163,"HCEP03730564","2024-12-10 12:00:00","11.733","3.52024","28.22","2.36","7.29","2.759","1672.868","0","3.84","30.5685","4.79165","26.4","0","SATNPRO1963","24.68","0.34574","5"],
    [42164,"HCEP03730564","2024-12-10 12:15:00","11.7023","3.5129","28.205","2.291428571428572","7.27","2.932","1360.287","0.01","2.92","30.523","4.78567","25.61","0","SATNPRO1963","24.84","0.34796","5"],
    [42165,"HCEP03730564","2024-12-10 12:30:00","11.6881","3.51043","28.187","2.568571428571428","7.28","2.93","1354.238","0","1.01","30.5109","4.78416","28.69","0","SATNPRO1963","24.492","0.34304","5"],
    [42166,"HCEP03730564","2024-12-10 12:45:00","11.6981","3.51272","28.147","2.662857142857143","7.28","2.699","1613.444","0","4.76","30.5248","4.78597","29.75","0","SATNPRO1963","24.418","0.342","5"],
    [42167,"HCEP03730564","2024-12-10 13:00:00","11.7289","3.52034","28.097","2.537142857142857","7.27","2.986","1336.609","0.01","4.17","30.5729","4.79233","28.37","0","SATNPRO1963","23.878","0.33444","5"],
    [42168,"HCEP03730564","2024-12-10 13:15:00","11.7309","3.52003","28.025","2.255714285714286","7.26","2.985","1330.552","0","1.01","30.5683","4.79165","25.24","0","SATNPRO1963","24.014","0.33634","5"],
    [42169,"HCEP03730564","2024-12-10 13:30:00","11.7462","3.52302","27.936","2.138571428571429","7.25","2.734","1642.874","0.01","4.54","30.5846","4.79372","23.92","0","SATNPRO1963","24.176","0.3386","5"],
    [42170,"HCEP03730564","2024-12-10 13:45:00","11.7487","3.52338","27.839","2.01","7.24","2.968","1358.73","0.01","1.67","30.5861","4.79389","22.49","0","SATNPRO1963","23.954","0.33554","5"],
    [42171,"HCEP03730564","2024-12-10 14:00:00","11.7366","3.52107","27.728","2.004285714285714","7.24","2.967","1355.647","0.01","0","30.5738","4.79232","22.43","0","SATNPRO1963","24.278","0.34006","5"],
    [42172,"HCEP03730564","2024-12-10 14:15:00","11.7331","3.51999","27.6","2.095714285714286","7.24","2.709","1637.376","0","4.54","30.5663","4.7913","23.45","0","SATNPRO1963","24.416","0.342","5"],
    [42173,"HCEP03730564","2024-12-10 14:30:00","11.7214","3.51644","27.465","2.211428571428572","7.24","2.985","1315.066","0.01","4.74","30.5417","4.788","24.73","0","SATNPRO1963","24.842","0.34792","5"],
    [42174,"HCEP03730564","2024-12-10 14:45:00","11.7315","3.51906","27.314","2.318571428571428","7.25","2.984","1308.277","0","0","30.5588","4.79025","25.94","0","SATNPRO1963","24.42","0.34208","5"],
    [42175,"HCEP03730564","2024-12-10 15:00:00","11.7344","3.51896","27.153","2.205714285714286","7.24","2.732","1636.161","0","4.44","30.5555","4.78974","24.67","0","SATNPRO1963","24.64","0.34514","5"],
    [42176,"HCEP03730564","2024-12-10 15:15:00","11.7316","3.51772","26.986","2.145714285714286","7.24","2.994","1377.776","0","2.77","30.5458","4.7884","24","0","SATNPRO1963","24.47","0.34278","5"],
    [42177,"HCEP03730564","2024-12-10 15:30:00","11.7295","3.51713","26.818","2.137142857142857","7.24","2.993","1373.287","0","1.08","30.5421","4.78789","23.89","0","SATNPRO1963","24.624000000000002","0.3449","5"],
    [42178,"HCEP03730564","2024-12-10 15:45:00","11.7253","3.51632","26.622","2.151428571428572","7.24","2.743","1714.223","0","3.64","30.5377","4.78733","24.06","0","SATNPRO1963","24.516000000000002","0.3434","5"],
    [42179,"HCEP03730564","2024-12-10 16:00:00","11.7249","3.51621","26.408","2.162857142857143","7.24","2.979","1396.328","0.01","2.66","30.537","4.78722","24.18","0","SATNPRO1963","24.144","0.33816","5"],
    [42180,"HCEP03730564","2024-12-10 16:15:00","11.7295","3.51703","26.183","2.155714285714286","7.25","2.978","1391.539","0","0","30.5413","4.78775","24.11","0","SATNPRO1963","24.238","0.3395","5"],
    [42181,"HCEP03730564","2024-12-10 16:30:00","11.7386","3.51857","25.98","2.114285714285714","7.24","2.782","1695.423","0","3.68","30.5487","4.78866","23.65","0","SATNPRO1963","24.444","0.34238","5"],
    [42182,"HCEP03730564","2024-12-10 16:45:00","11.7471","3.52026","25.763","2.018571428571429","7.23","2.999","1371.316","0.01","4.47","30.5581","4.78985","22.58","0","SATNPRO1963","24.648","0.34526","5"],
    [42183,"HCEP03730564","2024-12-10 17:00:00","11.7521","3.52142","25.545","1.902857142857143","7.23","2.998","1366.956","0","1.15","30.5653","4.79077","21.29","0","SATNPRO1963","24.792","0.34726","5"],
    [42184,"HCEP03730564","2024-12-10 17:15:00","11.7559","3.52255","25.353","1.824285714285714","7.22","2.729","1727.813","0.01","6.78","30.5732","4.79182","20.42","0","SATNPRO1963","24.46","0.3426","5"],
    [42185,"HCEP03730564","2024-12-10 17:30:00","11.7579","3.52313","25.187","1.765714285714286","7.22","3.014","1423.06","0.01","3.68","30.5771","4.79234","19.76","0","SATNPRO1963","24.402","0.3418","5"],
    [42186,"HCEP03730564","2024-12-10 17:45:00","11.7574","3.52316","25.041","1.751428571428571","7.22","3.014","1417.866","0.01","0.86","30.5779","4.79245","19.6","0","SATNPRO1963","24.244","0.33958","5"],
    [42187,"HCEP03730564","2024-12-10 18:00:00","11.7576","3.52314","24.928","1.752857142857143","7.21","2.773","1737.966","0","3.72","30.5775","4.79239","19.61","0","SATNPRO1963","24.352","0.34106","5"],
    [42188,"HCEP03730564","2024-12-10 18:15:00","11.7583","3.5233","24.843","1.744285714285714","7.21","2.993","1387.455","0.01","2.97","30.5785","4.79252","19.52","0","SATNPRO1963","24.264","0.33984","5"],
    [42189,"HCEP03730564","2024-12-10 18:30:00","11.7573","3.52317","24.785","1.732857142857143","7.21","2.995","1383.268","0","0.38","30.5782","4.79248","19.4","0","SATNPRO1963","24.602","0.3446","5"],
    [42190,"HCEP03730564","2024-12-10 18:45:00","11.7588","3.52331","24.756","1.731428571428571","7.21","2.703","1689.903","0.01","3.52","30.5783","4.79247","19.38","0","SATNPRO1963","24.05","0.33686","5"],
    [42191,"HCEP03730564","2024-12-10 19:00:00","11.7595","3.52344","24.737","1.712857142857143","7.21","2.983","1335.486","0.01","3.64","30.579","4.79256","19.17","0","SATNPRO1963","23.976","0.33586","5"],
    [42192,"HCEP03730564","2024-12-10 19:15:00","11.7592","3.52349","24.732","1.702857142857143","7.21","2.982","1330.735","0","0.94","30.5796","4.79266","19.06","0","SATNPRO1963","24.168","0.33852","5"],
    [42193,"HCEP03730564","2024-12-10 19:30:00","11.76","3.52368","24.748","1.691428571428571","7.2","2.706","1685.333","0","5.61","30.5809","4.79282","18.92","0","SATNPRO1963","24.512","0.34334","5"],
    [42194,"HCEP03730564","2024-12-10 19:45:00","11.7604","3.52381","24.783","1.675714285714286","7.2","2.998","1328.172","0.01","3.58","30.5817","4.79294","18.76","0","SATNPRO1963","24.16","0.3384","5"],
    [42195,"HCEP03730564","2024-12-10 20:00:00","11.7608","3.52386","24.91","1.657142857142857","7.21","2.998","1324.152","0","0.86","30.5819","4.79297","18.55","0","SATNPRO1963","24.102","0.3376","5"],
    [42196,"HCEP03730564","2024-12-10 20:15:00","11.7601","3.52382","25.01","1.641428571428572","7.21","2.749","1672.542","0","3.84","30.582","4.79299","18.37","0","SATNPRO1963","24.528","0.34354","5"],
    [42197,"HCEP03730564","2024-12-10 20:30:00","11.7608","3.52391","25.11","1.642857142857143","7.2","3.023","1382.911","0.01","2.84","30.5823","4.79303","18.38","0","SATNPRO1963","24.148","0.3382","5"],
    [42198,"HCEP03730564","2024-12-10 20:45:00","11.761","3.52401","25.234","1.637142857142857","7.2","3.026","1377.336","0","1.01","30.5831","4.79314","18.32","0","SATNPRO1963","24.272","0.33998","5"],
    [42199,"HCEP03730564","2024-12-10 21:00:00","11.7613","3.52411","25.357","1.635714285714286","7.2","2.8","1702.316","0.01","4.44","30.5837","4.79323","18.31","0","SATNPRO1963","24.254","0.3397","5"],
    [42200,"HCEP03730564","2024-12-10 21:15:00","11.762","3.52429","25.481","1.61","7.2","2.996","1426.959","0.01","2.54","30.5848","4.79338","18.03","0","SATNPRO1963","23.732","0.33242","5"],
    [42201,"HCEP03730564","2024-12-10 21:30:00","11.7628","3.52441","25.606","1.582857142857143","7.2","2.996","1420.325","0","1.27","30.5853","4.79345","17.71","0","SATNPRO1963","23.764","0.33282","5"],
    [42202,"HCEP03730564","2024-12-10 21:45:00","11.7606","3.52409","25.716","1.582857142857143","7.2","2.805","1663.604","0","4.31","30.5839","4.79329","17.72","0","SATNPRO1963","23.924","0.3351","5"],
    [42203,"HCEP03730564","2024-12-10 22:00:00","11.7604","3.52396","25.831","1.58","7.2","3.018","1389.34","0.01","5.41","30.5828","4.79314","17.69","0","SATNPRO1963","24.312","0.34056","5"],
    [42204,"HCEP03730564","2024-12-10 22:15:00","11.7602","3.52391","25.962","1.588571428571429","7.2","3.02","1382.856","0","0","30.5824","4.7931","17.79","0","SATNPRO1963","23.912","0.33494","5"],
    [42205,"HCEP03730564","2024-12-10 22:30:00","11.7618","3.52428","26.098","1.584285714285714","7.2","2.813","1639.837","0.01","3.52","30.5846","4.79339","17.74","0","SATNPRO1963","24.018","0.33644","5"],
    [42206,"HCEP03730564","2024-12-10 22:45:00","11.7619","3.52413","26.238","1.582857142857143","7.19","3.005","1413.363","0.01","4.11","30.583","4.79318","17.71","0","SATNPRO1963","24.918","0.34904","5"],
    [42207,"HCEP03730564","2024-12-10 23:00:00","11.7616","3.52404","26.378","1.601428571428571","7.2","3.008","1404.708","0","0","30.5823","4.79309","17.93","0","SATNPRO1963","24.286","0.34016","5"],
    [42208,"HCEP03730564","2024-12-10 23:15:00","11.7614","3.52397","26.515","1.615714285714286","7.19","2.801","1682.816","0","3.47","30.5818","4.79303","18.09","0","SATNPRO1963","24.76","0.34682","5"],
    [42209,"HCEP03730564","2024-12-10 23:30:00","11.7612","3.52403","26.633","1.625714285714286","7.19","3.01","1461.412","0.01","4.17","30.5825","4.79315","18.19","0","SATNPRO1963","24.201999999999998","0.33902","5"],
    [42210,"HCEP03730564","2024-12-10 23:45:00","11.7616","3.52418","26.765","1.62","7.2","3.013","1454.687","0","0","30.5836","4.79329","18.14","0","SATNPRO1963","24.28","0.3401","5"],
    [42211,"HCEP03730564","2024-12-11 00:00:00","11.7611","3.52414","26.87","1.598571428571428","7.2","2.807","1698.92","0","4.17","30.5836","4.79331","17.9","0","SATNPRO1963","24.21","0.33912","5"],
    [42212,"HCEP03730564","2024-12-11 00:15:00","11.7612","3.52415","26.945","1.582857142857143","7.2","2.98","1402.389","0.01","4.27","30.5835","4.7933","17.72","0","SATNPRO1963","24.04","0.33672","5"],
    [42213,"HCEP03730564","2024-12-11 00:30:00","11.7608","3.52407","27","1.575714285714286","7.2","2.98","1395.791","0","0","30.583","4.79324","17.64","0","SATNPRO1963","24.092","0.33746","5"],
    [42214,"HCEP03730564","2024-12-11 00:45:00","11.7605","3.524","27.042","1.578571428571428","7.19","2.778","1674.16","0","5.06","30.5826","4.79319","17.67","0","SATNPRO1963","24.156","0.33834","5"],
    [42215,"HCEP03730564","2024-12-11 01:00:00","11.7608","3.52409","27.07","1.584285714285714","7.19","2.988","1407.827","0.01","2.54","30.5832","4.79326","17.73","0","SATNPRO1963","23.802","0.33342","5"],
    [42216,"HCEP03730564","2024-12-11 01:15:00","11.7606","3.52403","27.097","1.565714285714286","7.2","2.989","1402.532","0","1.44","30.5828","4.79321","17.53","0","SATNPRO1963","23.306","0.32644","5"],
    [42217,"HCEP03730564","2024-12-11 01:30:00","11.7598","3.52386","27.109","1.558571428571428","7.19","2.796","1682.339","0","3.39","30.5819","4.79309","17.45","0","SATNPRO1963","23.900000000000002","0.33482","5"],
    [42218,"HCEP03730564","2024-12-11 01:45:00","11.7595","3.52375","27.103","1.591428571428572","7.19","2.971","1414.103","0.01","2.68","30.581","4.79297","17.81","0","SATNPRO1963","24.218","0.33924","5"],
    [42219,"HCEP03730564","2024-12-11 02:00:00","11.7596","3.52378","27.092","1.598571428571428","7.2","2.969","1407.356","0","0.54","30.5812","4.79301","17.89","0","SATNPRO1963","24.02","0.33646","5"],
    [42220,"HCEP03730564","2024-12-11 02:15:00","11.7589","3.52354","27.084","1.594285714285714","7.19","2.765","1681.452","0","6.55","30.5795","4.79277","17.85","0","SATNPRO1963","24.062","0.337","5"],
    [42221,"HCEP03730564","2024-12-11 02:30:00","11.7541","3.52245","27.056","1.641428571428572","7.19","3.005","1407.084","0.01","7.43","30.5729","4.79191","18.37","0","SATNPRO1963","24.78","0.3471","5"],
    [42222,"HCEP03730564","2024-12-11 02:45:00","11.7571","3.52319","27.01","1.694285714285714","7.19","3.007","1403.392","0","0","30.5776","4.79252","18.96","0","SATNPRO1963","24.224","0.33928","5"],
    [42223,"HCEP03730564","2024-12-11 03:00:00","11.7582","3.52359","26.984","1.628571428571429","7.2","2.763","1654.221","0","3.91","30.5806","4.79293","18.23","0","SATNPRO1963","23.01","0.32228","5"],
    [42224,"HCEP03730564","2024-12-11 03:15:00","11.7564","3.5231","26.939","1.525714285714286","7.2","3.003","1424.142","0","3.32","30.5774","4.7925","17.07","0","SATNPRO1963","23.266","0.32588","5"],
    [42225,"HCEP03730564","2024-12-11 03:30:00","11.7572","3.52332","26.874","1.517142857142857","7.21","3.004","1419.001","0","1.01","30.5788","4.79269","16.99","0","SATNPRO1963","23.114","0.32378","5"],
    [42226,"HCEP03730564","2024-12-11 03:45:00","11.7558","3.52304","26.817","1.475714285714286","7.21","2.769","1703.243","0","3.16","30.5774","4.7925","16.51","0","SATNPRO1963","23.384","0.32756","5"],
    [42227,"HCEP03730564","2024-12-11 04:00:00","11.7543","3.52252","26.763","1.471428571428572","7.2","2.977","1439.813","0.01","3.34","30.5736","4.79199","16.47","0","SATNPRO1963","23.594","0.33052","5"],
    [42228,"HCEP03730564","2024-12-11 04:15:00","11.7535","3.52223","26.708","1.505714285714286","7.2","2.977","1434.137","0","0","30.5715","4.79169","16.86","0","SATNPRO1963","23.752","0.33266","5"],
    [42229,"HCEP03730564","2024-12-11 04:30:00","11.7533","3.52235","26.659","1.502857142857143","7.21","2.788","1703.904","0","4.76","30.5728","4.79188","16.82","0","SATNPRO1963","23.19","0.32478","5"],
    [42230,"HCEP03730564","2024-12-11 04:45:00","11.7501","3.52059","26.607","1.501428571428571","7.2","3.002","1477.037","0.01","4.47","30.5585","4.78991","16.81","0","SATNPRO1963","23.946","0.3354","5"],
    [42231,"HCEP03730564","2024-12-11 05:00:00","11.7475","3.51971","26.57","1.581428571428571","7.2","3.002","1472.035","0","0","30.5521","4.78903","17.7","0","SATNPRO1963","24.262","0.33984","5"],
    [42232,"HCEP03730564","2024-12-11 05:15:00","11.7454","3.51887","26.513","1.627142857142857","7.2","2.799","1737.393","0","5.26","30.5458","4.78817","18.19","0","SATNPRO1963","23.93","0.3352","5"],
    [42233,"HCEP03730564","2024-12-11 05:30:00","11.7449","3.51806","26.453","1.654285714285714","7.19","3.003","1447.997","0.01","2.46","30.5384","4.78713","18.51","0","SATNPRO1963","24.522000000000002","0.34344","5"],
    [42234,"HCEP03730564","2024-12-11 05:45:00","11.7446","3.51755","26.391","1.657142857142857","7.19","3.003","1443.504","0","0.77","30.5339","4.7865","18.54","0","SATNPRO1963","24.456","0.34252","5"],
    [42235,"HCEP03730564","2024-12-11 06:00:00","11.7449","3.5171","26.341","1.64","7.19","2.776","1767.528","0","3.6","30.5292","4.78583","18.35","0","SATNPRO1963","24.184","0.33874","5"],
    [42236,"HCEP03730564","2024-12-11 06:15:00","11.7448","3.51661","26.297","1.578571428571428","7.18","2.974","1424.805","0.01","3.3","30.5246","4.78518","17.65","0","SATNPRO1963","23.776","0.33302","5"],
    [42237,"HCEP03730564","2024-12-11 06:30:00","11.7431","3.51554","26.254","1.515714285714286","7.18","2.975","1416.786","0","0.77","30.5157","4.78394","16.95","0","SATNPRO1963","23.674","0.3316","5"],
    [42238,"HCEP03730564","2024-12-11 06:45:00","11.7401","3.51457","26.227","1.491428571428572","7.18","2.742","1747.006","0.01","4.63","30.5089","4.78303","16.67","0","SATNPRO1963","23.872","0.33436","5"],
    [42239,"HCEP03730564","2024-12-11 07:00:00","11.7388","3.51398","26.219","1.508571428571429","7.18","2.976","1422.778","0.01","5.22","30.5042","4.78238","16.87","0","SATNPRO1963","23.916","0.33498","5"],
    [42240,"HCEP03730564","2024-12-11 07:15:00","11.7167","3.51392","26.244","1.655714285714286","7.19","2.979","1417.34","0","0","30.5218","4.78518","18.5","0","SATNPRO1963","23.438","0.32828","5"],
    [42241,"HCEP03730564","2024-12-11 07:30:00","11.7071","3.5128","26.293","2","7.21","2.717","1746.124","0","3.34","30.5188","4.7849","22.35","0","SATNPRO1963","23.864","0.33426","5"],
    [42242,"HCEP03730564","2024-12-11 07:45:00","11.7001","3.51188","26.347","2.175714285714286","7.22","2.934","1424.212","0","4.65","30.5157","4.78456","24.31","0","SATNPRO1963","24.238","0.33948","5"],
    [42243,"HCEP03730564","2024-12-11 08:00:00","11.6909","3.51084","26.399","2.318571428571428","7.23","2.933","1419.933","0","1.01","30.5133","4.78435","25.9","0","SATNPRO1963","23.86","0.33418","5"],
    [42244,"HCEP03730564","2024-12-11 08:15:00","11.6861","3.51038","26.477","2.421428571428572","7.23","2.702","1729.577","0.01","5.92","30.5127","4.78434","27.06","0","SATNPRO1963","24.080000000000002","0.33728","5"],
    [42245,"HCEP03730564","2024-12-11 08:30:00","11.6827","3.50991","26.569","2.515714285714286","7.24","2.994","1406.443","0.01","2.36","30.5109","4.78414","28.11","0","SATNPRO1963","24.614","0.3448","5"],
    [42246,"HCEP03730564","2024-12-11 08:45:00","11.677","3.50917","26.676","2.598571428571429","7.25","2.994","1401.298","0","1.21","30.5084","4.78388","29.02","0","SATNPRO1963","24.124","0.3379","5"],
    [42247,"HCEP03730564","2024-12-11 09:00:00","11.6714","3.5086","26.795","2.684285714285714","7.26","2.812","1688.148","0.01","6.33","30.5074","4.78383","29.97","0","SATNPRO1963","24.201999999999998","0.33902","5"],
    [42248,"HCEP03730564","2024-12-11 09:15:00","11.6691","3.50827","26.911","2.787142857142857","7.26","2.951","1393.105","0","3.56","30.5062","4.7837","31.13","0","SATNPRO1963","24.392","0.34166","5"],
    [42249,"HCEP03730564","2024-12-11 09:30:00","11.6645","3.50807","27.027","2.881428571428571","7.27","2.95","1389.388","0","1.01","30.5079","4.78402","32.17","0","SATNPRO1963","24.674","0.34558","5"],
    [42250,"HCEP03730564","2024-12-11 09:45:00","11.6613","3.50778","27.168","2.967142857142857","7.27","2.691","1771.249","0","5.84","30.5077","4.78404","33.12","0","SATNPRO1963","24.508","0.34324","5"],
    [42251,"HCEP03730564","2024-12-11 10:00:00","11.6593","3.5075","27.298","3.03","7.28","2.956","1377.67","0.01","2.66","30.5066","4.78392","33.82","0","SATNPRO1963","24.94","0.34932","5"],
    [42252,"HCEP03730564","2024-12-11 10:15:00","11.659","3.50759","27.422","3.061428571428571","7.28","2.956","1374.296","0","0.94","30.5076","4.78407","34.17","0","SATNPRO1963","24.692","0.34588","5"],
    [42253,"HCEP03730564","2024-12-11 10:30:00","11.6579","3.50744","27.536","3.061428571428571","7.28","2.727","1700.117","0","4.2","30.507","4.78401","34.17","0","SATNPRO1963","24.768","0.3469","5"],
    [42254,"HCEP03730564","2024-12-11 10:45:00","11.6582","3.50733","27.651","3.051428571428572","7.29","3.016","1426.01","0.01","2.77","30.5057","4.78383","34.07","0","SATNPRO1963","24.418","0.34204","5"],
    [42255,"HCEP03730564","2024-12-11 11:00:00","11.6571","3.5072","27.775","3.031428571428571","7.29","3.016","1421.325","0","1.01","30.5053","4.78379","33.84","0","SATNPRO1963","24.722","0.3463","5"],
    [42256,"HCEP03730564","2024-12-11 11:15:00","11.6569","3.507","27.893","3.012857142857143","7.29","2.785","1678.271","0","5.26","30.5035","4.78355","33.64","0","SATNPRO1963","24.794","0.34728","5"],
    [42257,"HCEP03730564","2024-12-11 11:30:00","11.6571","3.5069","27.972","2.998571428571429","7.29","2.981","1368.876","0.01","2.36","30.5024","4.78339","33.47","0","SATNPRO1963","24.468","0.34272","5"],
    [42258,"HCEP03730564","2024-12-11 11:45:00","11.6569","3.50684","28.055","2.977142857142857","7.3","2.982","1363.665","0","0","30.5019","4.78333","33.23","0","SATNPRO1963","24.592","0.34442","5"],
    [42259,"HCEP03730564","2024-12-11 12:00:00","11.6563","3.50674","28.106","2.98","7.29","2.741","1706","0","3.8","30.5014","4.78327","33.27","0","SATNPRO1963","24.756","0.34676","5"],
    [42260,"HCEP03730564","2024-12-11 12:15:00","11.6558","3.50682","28.144","2.988571428571429","7.29","3.025","1374.947","0","3.14","30.5026","4.78344","33.36","0","SATNPRO1963","24.562","0.34398","5"],
    [42261,"HCEP03730564","2024-12-11 12:30:00","11.6561","3.50737","28.169","2.995714285714286","7.3","3.026","1369.352","0","0.54","30.5077","4.78416","33.44","0","SATNPRO1963","24.748","0.34664","5"],
    [42262,"HCEP03730564","2024-12-11 12:45:00","11.6547","3.50722","28.17","3.011428571428572","7.29","2.753","1697.74","0.01","4.34","30.5073","4.78413","33.61","0","SATNPRO1963","24.524","0.3435","5"],
    [42263,"HCEP03730564","2024-12-11 13:00:00","11.6536","3.50615","28.158","3.024285714285714","7.29","3.022","1424.291","0.01","3.66","30.498","4.78283","33.76","0","SATNPRO1963","24.432","0.3422","5"],
    [42264,"HCEP03730564","2024-12-11 13:15:00","11.6481","3.50604","28.143","3.06","7.29","3.023","1416.786","0","0","30.5014","4.78339","34.15","0","SATNPRO1963","25.026","0.35054","5"],
    [42265,"HCEP03730564","2024-12-11 13:30:00","11.6459","3.50575","28.121","3.165714285714286","7.29","2.794","1649.489","0","7.46","30.5004","4.78328","35.33","0","SATNPRO1963","25.046","0.35082","5"],
    [42266,"HCEP03730564","2024-12-11 13:45:00","11.6422","3.50597","28.079","3.278571428571428","7.3","3.028","1444.079","0","3.02","30.5056","4.78406","36.59","0","SATNPRO1963","24.854","0.34814","5"],
    [42267,"HCEP03730564","2024-12-11 14:00:00","11.6403","3.50597","28.012","3.32","7.31","3.028","1435.945","0","0","30.5071","4.78431","37.05","0","SATNPRO1963","24.994","0.35008","5"],
    [42268,"HCEP03730564","2024-12-11 14:15:00","11.6414","3.5064","27.919","3.36","7.31","2.789","1722.68","0","3.39","30.5104","4.78474","37.49","0","SATNPRO1963","25.342","0.35494","5"],
    [42269,"HCEP03730564","2024-12-11 14:30:00","11.635","3.50592","27.809","3.388571428571428","7.31","3.015","1446.767","0","1.67","30.5111","4.78493","37.81","0","SATNPRO1963","25.194","0.35292","5"],
    [42270,"HCEP03730564","2024-12-11 14:45:00","11.6394","3.50659","27.682","3.418571428571428","7.31","3.015","1439.021","0","0","30.514","4.78527","38.16","0","SATNPRO1963","25.144","0.35218","5"],
    [42271,"HCEP03730564","2024-12-11 15:00:00","11.6402","3.50675","27.535","3.390000000000001","7.31","2.799","1727.384","0","3.39","30.515","4.7854","37.83","0","SATNPRO1963","25.444","0.35638","5"],
    [42272,"HCEP03730564","2024-12-11 15:15:00","11.6357","3.5063","27.367","3.390000000000001","7.31","3.013","1487.863","0","2.84","30.5144","4.78536","37.83","0","SATNPRO1963","25.434","0.35626","5"],
    [42273,"HCEP03730564","2024-12-11 15:30:00","11.6233","3.50527","27.185","3.445714285714286","7.32","3.014","1482.773","0","0.86","30.5147","4.78557","38.45","0","SATNPRO1963","25.37","0.35534","5"],
    [42274,"HCEP03730564","2024-12-11 15:45:00","11.6191","3.50489","26.971","3.537142857142857","7.32","2.806","1742.543","0","4.02","30.5145","4.7856","39.46","0","SATNPRO1963","25.21","0.3531","5"],
    [42275,"HCEP03730564","2024-12-11 16:00:00","11.6246","3.5054","26.73","3.54","7.33","3.015","1471.567","0.01","2.36","30.5151","4.78559","39.49","0","SATNPRO1963","25.026","0.3505","5"],
    [42276,"HCEP03730564","2024-12-11 16:15:00","11.626","3.50573","26.509","3.514285714285714","7.33","3.013","1462.975","0","0","30.5172","4.78585","39.2","0","SATNPRO1963","25.364","0.35526","5"],
    [42277,"HCEP03730564","2024-12-11 16:30:00","11.6334","3.50638","26.286","3.475714285714286","7.32","2.805","1763.144","0.01","4.31","30.5175","4.78577","38.78","0","SATNPRO1963","24.846","0.34802","5"],
    [42278,"HCEP03730564","2024-12-11 16:45:00","11.6428","3.5074","26.059","3.401428571428571","7.32","3.012","1509.279","0.01","5.33","30.5197","4.78594","37.96","0","SATNPRO1963","24.968","0.3497","5"],
    [42279,"HCEP03730564","2024-12-11 17:00:00","11.6504","3.50812","25.832","3.301428571428572","7.32","3.011","1501.55","0","1.01","30.5205","4.78593","36.85","0","SATNPRO1963","24.916","0.349","5"],
    [42280,"HCEP03730564","2024-12-11 17:15:00","11.6561","3.50865","25.601","3.21","7.32","2.802","1773.503","0","7.88","30.521","4.7859","35.83","0","SATNPRO1963","24.874","0.34838","5"],
    [42281,"HCEP03730564","2024-12-11 17:30:00","11.6646","3.50938","25.383","3.085714285714286","7.31","2.995","1482.706","0.01","3.04","30.5212","4.7858","34.46","0","SATNPRO1963","24.576","0.34424","5"],
    [42282,"HCEP03730564","2024-12-11 17:45:00","11.6722","3.51012","25.163","2.935714285714286","7.31","2.993","1475.237","0","0","30.5222","4.78581","32.78","0","SATNPRO1963","24.46","0.34256","5"],
    [42283,"HCEP03730564","2024-12-11 18:00:00","11.6806","3.51116","24.969","2.788571428571429","7.29","2.797","1755.063","0","3.39","30.5253","4.78613","31.16","0","SATNPRO1963","23.832","0.33382","5"],
    [42284,"HCEP03730564","2024-12-11 18:15:00","11.6862","3.51186","24.786","2.611428571428572","7.28","3.024","1528.523","0.01","3.66","30.5276","4.78635","29.17","0","SATNPRO1963","23.814","0.33356","5"],
    [42285,"HCEP03730564","2024-12-11 18:30:00","11.687","3.5121","24.633","2.521428571428571","7.28","3.023","1519.421","0","0","30.5292","4.78657","28.18","0","SATNPRO1963","23.714","0.33214","5"],
    [42286,"HCEP03730564","2024-12-11 18:45:00","11.687","3.51217","24.517","2.5","7.27","2.823","1779.903","0","3.52","30.5299","4.78666","27.93","0","SATNPRO1963","23.804000000000002","0.33342","5"],
    [42287,"HCEP03730564","2024-12-11 19:00:00","11.6866","3.51224","24.432","2.49","7.27","3","1478.859","0","3.09","30.531","4.7868","27.82","0","SATNPRO1963","23.812","0.33352","5"],
    [42288,"HCEP03730564","2024-12-11 19:15:00","11.6867","3.51243","24.372","2.502857142857143","7.27","3","1472.118","0","0","30.5328","4.78706","27.97","0","SATNPRO1963","24.044","0.33676","5"],
    [42289,"HCEP03730564","2024-12-11 19:30:00","11.6877","3.51277","24.34","2.53","7.26","2.771","1744.444","0","7.03","30.5352","4.78738","28.26","0","SATNPRO1963","23.89","0.33464","5"],
    [42290,"HCEP03730564","2024-12-11 19:45:00","11.6889","3.51302","24.332","2.504285714285714","7.26","3.012","1475.045","0.01","2.92","30.5367","4.78757","27.98","0","SATNPRO1963","24.016000000000002","0.33642","5"],
    [42291,"HCEP03730564","2024-12-11 20:00:00","11.6905","3.51335","24.34","2.495714285714286","7.26","3.011","1468.383","0","0","30.5386","4.78782","27.88","0","SATNPRO1963","24.032","0.33662","5"],
    [42292,"HCEP03730564","2024-12-11 20:15:00","11.6925","3.51374","24.372","2.468571428571428","7.26","2.777","1777.757","0","4.31","30.5407","4.78809","27.58","0","SATNPRO1963","23.396","0.32772","5"],
    [42293,"HCEP03730564","2024-12-11 20:30:00","11.6946","3.51427","24.44","2.434285714285714","7.25","3.025","1548.674","0.01","4.02","30.5441","4.78855","27.2","0","SATNPRO1963","23.488","0.329","5"],
    [42294,"HCEP03730564","2024-12-11 20:45:00","11.6975","3.51481","24.545","2.385714285714286","7.26","3.027","1542.037","0","0.38","30.5469","4.7889","26.66","0","SATNPRO1963","23.618000000000002","0.33084","5"],
    [42295,"HCEP03730564","2024-12-11 21:00:00","11.7019","3.51542","24.638","2.338571428571428","7.25","2.843","1807.491","0","3.39","30.549","4.78915","26.13","0","SATNPRO1963","23.528000000000002","0.32954","5"],
    [42296,"HCEP03730564","2024-12-11 21:15:00","11.7118","3.51643","24.783","2.251428571428572","7.24","3.036","1598.493","0","3.43","30.5506","4.78923","25.17","0","SATNPRO1963","23.852","0.33408","5"],
    [42297,"HCEP03730564","2024-12-11 21:30:00","11.7206","3.51763","24.922","2.104285714285714","7.24","3.038","1591.031","0","1.08","30.5549","4.78973","23.53","0","SATNPRO1963","23.538","0.32968","5"],
    [42298,"HCEP03730564","2024-12-11 21:45:00","11.7279","3.5181","25.038","1.898571428571429","7.23","2.875","1851.451","0.01","4.34","30.5534","4.78942","21.23","0","SATNPRO1963","23.292","0.32626","5"],
    [42299,"HCEP03730564","2024-12-11 22:00:00","11.7311","3.51822","25.184","1.762857142857143","7.22","3.035","1668.039","0.01","2.82","30.5519","4.78916","19.72","0","SATNPRO1963","23.246","0.32562","5"],
    [42300,"HCEP03730564","2024-12-11 22:15:00","11.7326","3.51835","25.349","1.69","7.22","3.037","1659.674","0","0.54","30.5517","4.78913","18.9","0","SATNPRO1963","22.97","0.3217","5"],
    [42301,"HCEP03730564","2024-12-11 22:30:00","11.7367","3.51872","25.506","1.598571428571428","7.21","2.895","1937.58","0.01","6.82","30.5518","4.7891","17.88","0","SATNPRO1963","22.628","0.31698","5"],
    [42302,"HCEP03730564","2024-12-11 22:45:00","11.7393","3.51892","25.655","1.487142857142857","7.21","3.045","1731.855","0.01","3.76","30.5516","4.78903","16.63","0","SATNPRO1963","22.494","0.31504","5"],
    [42303,"HCEP03730564","2024-12-11 23:00:00","11.7394","3.51886","25.81","1.424285714285714","7.21","3.045","1723.205","0","1.08","30.5509","4.78894","15.94","0","SATNPRO1963","22.628","0.31694","5"],
    [42304,"HCEP03730564","2024-12-11 23:15:00","11.7403","3.51894","25.967","1.408571428571429","7.2","2.901","1969.838","0","5.74","30.5509","4.78894","15.76","0","SATNPRO1963","22.56","0.31596","5"],
    [42305,"HCEP03730564","2024-12-11 23:30:00","11.7427","3.51917","26.132","1.38","7.15","3.041","1728.864","0.01","3.72","30.551","4.78893","15.43","0","SATNPRO1963","22.316","0.31256","5"],
    [42306,"HCEP03730564","2024-12-11 23:45:00","11.7455","3.51949","26.296","1.347142857142857","7.19","3.042","1719.169","0","0","30.5517","4.789","15.06","0","SATNPRO1963","22.094","0.30944","5"],
    [42307,"HCEP03730564","2024-12-12 00:00:00","11.7472","3.51968","26.484","1.324285714285714","7.18","2.918","1954.331","0","4.17","30.5522","4.78905","14.81","0","SATNPRO1963","23.284","0.32612","5"],
    [42308,"HCEP03730564","2024-12-12 00:15:00","11.7477","3.51967","26.668","1.32","7.18","3.047","1685.94","0.01","3.95","30.5516","4.78898","14.76","0","SATNPRO1963","23.078","0.32324","5"],
    [42309,"HCEP03730564","2024-12-12 00:30:00","11.747","3.51945","26.805","1.334285714285714","7.18","3.048","1676.514","0","1.08","30.5499","4.78875","14.92","0","SATNPRO1963","23.32","0.32662","5"],
    [42310,"HCEP03730564","2024-12-12 00:45:00","11.7469","3.51917","26.932","1.36","7.18","2.879","1927.938","0","5.06","30.5474","4.7884","15.21","0","SATNPRO1963","23.164","0.32446","5"],
    [42311,"HCEP03730564","2024-12-12 01:00:00","11.7468","3.51899","27.042","1.37","7.17","3.006","1664.048","0.01","4.63","30.5456","4.78815","15.33","0","SATNPRO1963","23.158","0.32438","5"],
    [42312,"HCEP03730564","2024-12-12 01:15:00","11.7466","3.51883","27.147","1.367142857142857","7.18","3.006","1656.223","0","0.54","30.5442","4.78797","15.29","0","SATNPRO1963","23.272000000000002","0.32598","5"],
    [42313,"HCEP03730564","2024-12-12 01:30:00","11.7461","3.51867","27.252","1.358571428571428","7.17","2.811","1932.561","0","4.34","30.543","4.78781","15.19","0","SATNPRO1963","23.16","0.3244","5"],
    [42314,"HCEP03730564","2024-12-12 01:45:00","11.7451","3.51837","27.325","1.352857142857143","7.17","2.983","1593.715","0","3.21","30.5409","4.78753","15.14","0","SATNPRO1963","23.304","0.3264","5"],
    [42315,"HCEP03730564","2024-12-12 02:00:00","11.744","3.51804","27.391","1.352857142857143","7.18","2.984","1585.302","0","1.44","30.5386","4.78723","15.13","0","SATNPRO1963","22.945999999999998","0.32134","5"],
    [42316,"HCEP03730564","2024-12-12 02:15:00","11.7439","3.51793","27.432","1.358571428571428","7.17","2.812","1889.439","0","3.72","30.5376","4.78709","15.19","0","SATNPRO1963","23.236","0.32546","5"],
    [42317,"HCEP03730564","2024-12-12 02:30:00","11.7419","3.5172","27.456","1.367142857142857","7.17","2.997","1536.396","0.01","4.32","30.5323","4.78637","15.29","0","SATNPRO1963","23.672","0.33152","5"],
    [42318,"HCEP03730564","2024-12-12 02:45:00","11.7428","3.51749","27.461","1.388571428571429","7.17","2.998","1529.211","0","0.86","30.534300000000002","4.78664","15.54","0","SATNPRO1963","23.534","0.32962","5"],
    [42319,"HCEP03730564","2024-12-12 03:00:00","11.7431","3.51762","27.474","1.378571428571429","7.17","2.818","1798.227","0","8.49","30.5353","4.78678","15.42","0","SATNPRO1963","23.372","0.3274","5"],
    [42320,"HCEP03730564","2024-12-12 03:15:00","11.7303","3.51349","27.453","1.425714285714286","7.18","2.997","1486.409","0","5.25","30.506","4.78283","15.94","0","SATNPRO1963","24.886","0.3486","5"],
    [42321,"HCEP03730564","2024-12-12 03:30:00","11.7451","3.51885","27.434","1.502857142857143","7.18","2.997","1479.604","0","0.54","30.5456","4.7882","16.81","0","SATNPRO1963","22.784","0.3191","5"],
    [42322,"HCEP03730564","2024-12-12 03:45:00","11.7455","3.51915","27.394","1.337142857142857","7.18","2.795","1812.449","0","4.02","30.5481","4.78854","14.95","0","SATNPRO1963","22.536","0.31562","5"],
    [42323,"HCEP03730564","2024-12-12 04:00:00","11.7454","3.51936","27.356","1.284285714285714","7.18","3.025","1570.172","0","2.43","30.5502","4.78884","14.37","0","SATNPRO1963","22.628","0.31694","5"],
    [42324,"HCEP03730564","2024-12-12 04:15:00","11.7452","3.51939","27.343","1.264285714285714","7.19","3.026","1563.657","0","0","30.5507","4.78891","14.14","0","SATNPRO1963","22.56","0.316","5"],
    [42325,"HCEP03730564","2024-12-12 04:30:00","11.7452","3.51938","27.31","1.258571428571429","7.18","2.825","1823.334","0","4.7","30.5506","4.7889","14.09","0","SATNPRO1963","22.546","0.31578","5"],
    [42326,"HCEP03730564","2024-12-12 04:45:00","11.7449","3.51938","27.269","1.26","7.17","3.033","1561.849","0","4.57","30.5508","4.78893","14.1","0","SATNPRO1963","22.348","0.31298","5"],
    [42327,"HCEP03730564","2024-12-12 05:00:00","11.7451","3.51941","27.221","1.268571428571429","7.18","3.034","1554.795","0","0","30.551","4.78896","14.2","0","SATNPRO1963","22.614","0.31676","5"],
    [42328,"HCEP03730564","2024-12-12 05:15:00","11.7436","3.51931","27.174","1.265714285714286","7.17","2.837","1840.206","0","4.41","30.5513","4.78901","14.17","0","SATNPRO1963","22.418","0.31402","5"],
    [42329,"HCEP03730564","2024-12-12 05:30:00","11.7425","3.51919","27.125","1.258571428571429","7.18","3.015","1572.892","0.01","3.21","30.5511","4.789","14.07","0","SATNPRO1963","22.404","0.3138","5"],
    [42330,"HCEP03730564","2024-12-12 05:45:00","11.742","3.5191","27.073","1.258571428571429","7.18","3.016","1567.126","0","0.77","30.5506","4.78893","14.08","0","SATNPRO1963","22.506","0.31528","5"],
    [42331,"HCEP03730564","2024-12-12 06:00:00","11.7408","3.51898","27.018","1.26","7.17","2.814","1838.877","0","3.99","30.5505","4.78893","14.1","0","SATNPRO1963","22.096","0.30952","5"],
    [42332,"HCEP03730564","2024-12-12 06:15:00","11.7403","3.51895","26.963","1.268571428571429","7.17","2.999","1581.797","0.01","3.25","30.5506","4.78895","14.2","0","SATNPRO1963","22.288","0.31218","5"],
    [42333,"HCEP03730564","2024-12-12 06:30:00","11.7401","3.51895","26.902","1.268571428571429","7.17","3","1574.594","0","1.08","30.5509","4.78899","14.19","0","SATNPRO1963","22.128","0.30996","5"],
    [42334,"HCEP03730564","2024-12-12 06:45:00","11.7397","3.51887","26.832","1.262857142857143","7.17","2.82","1826.212","0","2.97","30.5504","4.78892","14.13","0","SATNPRO1963","22.076","0.30924","5"],
    [42335,"HCEP03730564","2024-12-12 07:00:00","11.7387","3.51873","26.784","1.271428571428572","7.17","2.989","1534.62","0","6.11","30.5499","4.78886","14.23","0","SATNPRO1963","22.27","0.31192","5"],
    [42336,"HCEP03730564","2024-12-12 07:15:00","11.7374","3.51858","26.725","1.29","7.17","2.991","1529.126","0","1.27","30.5495","4.78883","14.42","0","SATNPRO1963","22.196","0.31092","5"],
    [42337,"HCEP03730564","2024-12-12 07:30:00","11.7364","3.5185","26.668","1.312857142857143","7.17","2.739","1843.461","0","5.34","30.5496","4.78884","14.68","0","SATNPRO1963","21.974","0.30778","5"],
    [42338,"HCEP03730564","2024-12-12 07:45:00","11.7347","3.51842","26.635","1.33","7.17","2.997","1525.354","0","2.36","30.5502","4.78896","14.87","0","SATNPRO1963","22.278","0.31202","5"],
    [42339,"HCEP03730564","2024-12-12 08:00:00","11.7296","3.51798","26.628","1.367142857142857","7.17","3","1520.474","0","0.77","30.5502","4.78903","15.28","0","SATNPRO1963","22.444","0.31438","5"],
    [42340,"HCEP03730564","2024-12-12 08:15:00","11.7276","3.51781","26.655","1.448571428571429","7.17","2.758","1864.591","0.01","4.47","30.5502","4.78906","16.19","0","SATNPRO1963","22.472","0.31474","5"],
    [42341,"HCEP03730564","2024-12-12 08:30:00","11.7226","3.51723","26.68","1.545714285714286","7.18","2.951","1537.203","0.01","5.25","30.5487","4.78892","17.28","0","SATNPRO1963","22.746","0.31854","5"],
    [42342,"HCEP03730564","2024-12-12 08:45:00","11.7112","3.51583","26.75","1.655714285714286","7.19","2.951","1530.536","0","1.01","30.5445","4.78849","18.5","0","SATNPRO1963","23.372","0.32734","5"],
    [42343,"HCEP03730564","2024-12-12 09:00:00","11.7029","3.51456","26.801","1.845714285714286","7.19","2.741","1819.885","0","5.66","30.5391","4.78785","20.62","0","SATNPRO1963","23.05","0.32284","5"],
    [42344,"HCEP03730564","2024-12-12 09:15:00","11.6974","3.51358","26.87","1.982857142857143","7.2","3.016","1487.544","0","3.47","30.5342","4.78724","22.16","0","SATNPRO1963","23.28","0.32606","5"],
    [42345,"HCEP03730564","2024-12-12 09:30:00","11.6929","3.51285","26.956","2.09","7.22","3.019","1479.23","0","0.77","30.5308","4.78683","23.35","0","SATNPRO1963","23.355999999999998","0.3271","5"],
    [42346,"HCEP03730564","2024-12-12 09:45:00","11.6862","3.51163","27.051","2.17","7.22","2.797","1781.459","0","6.75","30.5245","4.78604","24.25","0","SATNPRO1963","23.47","0.32872","5"],
    [42347,"HCEP03730564","2024-12-12 10:00:00","11.6777","3.50982","27.121","2.282857142857143","7.23","2.986","1461.578","0","4.81","30.5139","4.78467","25.5","0","SATNPRO1963","23.674","0.33158","5"],
    [42348,"HCEP03730564","2024-12-12 10:15:00","11.6713","3.50852","27.226","2.412857142857143","7.24","2.982","1453.688","0","0","30.5066","4.78374","26.94","0","SATNPRO1963","23.926","0.33514","5"],
    [42349,"HCEP03730564","2024-12-12 10:30:00","11.6668","3.50742","27.347","2.491428571428572","7.24","2.767","1762.777","0","2.87","30.4996","4.78282","27.82","0","SATNPRO1963","23.682","0.33172","5"],
    [42350,"HCEP03730564","2024-12-12 10:45:00","11.6628","3.50688","27.499","2.56","7.24","2.992","1465.152","0.01","4.68","30.4977","4.78262","28.58","0","SATNPRO1963","23.932","0.33518","5"],
    [42351,"HCEP03730564","2024-12-12 11:00:00","11.6597","3.50632","27.64","2.625714285714286","7.25","2.993","1460.9","0","1.08","30.4948","4.78226","29.31","0","SATNPRO1963","24.218","0.33922","5"],
    [42352,"HCEP03730564","2024-12-12 11:15:00","11.6568","3.50599","27.738","2.675714285714286","7.26","2.764","1796.538","0.01","5.4","30.4938","4.78218","29.87","0","SATNPRO1963","23.966","0.33566","5"],
    [42353,"HCEP03730564","2024-12-12 11:30:00","11.6477","3.50524","27.803","2.748571428571429","7.26","2.991","1470.768","0.01","2.95","30.4941","4.78235","30.68","0","SATNPRO1963","24.136000000000003","0.33812","5"],
    [42354,"HCEP03730564","2024-12-12 11:45:00","11.64","3.50476","27.93","2.854285714285714","7.27","2.992","1467.102","0","0.66","30.4957","4.78269","31.85","0","SATNPRO1963","24.654","0.34534","5"],
    [42355,"HCEP03730564","2024-12-12 12:00:00","11.6245","3.50332","28.006","3.024285714285714","7.27","2.709","1847.091","0","2.87","30.4946","4.78276","33.73","0","SATNPRO1963","24.688","0.34582","5"],
    [42356,"HCEP03730564","2024-12-12 12:15:00","11.6052","3.50119","28.071","3.274285714285714","7.28","3.005","1494.638","0.01","7.81","30.4898","4.78236","36.51","0","SATNPRO1963","25.04","0.3507","5"],
    [42357,"HCEP03730564","2024-12-12 12:30:00","11.6024","3.50103","28.117","3.482857142857143","7.3","3.005","1490.902","0","0","30.4905","4.78251","38.83","0","SATNPRO1963","24.914","0.34896","5"],
    [42358,"HCEP03730564","2024-12-12 12:45:00","11.5999","3.50054","28.138","3.44","7.3","2.771","1765.55","0.01","8.32","30.4879","4.78218","38.35","0","SATNPRO1963","25.086","0.3514","5"],
    [42359,"HCEP03730564","2024-12-12 13:00:00","11.59","3.50023","28.158","3.491428571428572","7.3","2.99","1456.25","0","2.36","30.4929","4.78303","38.92","0","SATNPRO1963","25.27","0.35394","5"],
    [42360,"HCEP03730564","2024-12-12 13:15:00","11.5912","3.50061","28.188","3.564285714285714","7.31","2.989","1451.838","0","0.86","30.4957","4.78341","39.73","0","SATNPRO1963","25.248","0.35368","5"],
    [42361,"HCEP03730564","2024-12-12 13:30:00","11.5871","3.50044","28.176","3.578571428571428","7.31","2.755","1794.405","0","9.87","30.4974","4.78371","39.89","0","SATNPRO1963","25.34","0.3549","5"],
    [42362,"HCEP03730564","2024-12-12 13:45:00","11.5865","3.50038","28.146","3.634285714285714","7.32","2.942","1474.148","0","3.45","30.4974","4.78371","40.5","0","SATNPRO1963","25.644","0.35914","5"],
    [42363,"HCEP03730564","2024-12-12 14:00:00","11.5825","3.50029","28.127","3.651428571428572","7.32","2.939","1467.405","0","0","30.4997","4.78411","40.7","0","SATNPRO1963","25.38","0.35546","5"],
    [42364,"HCEP03730564","2024-12-12 14:15:00","11.5826","3.50036","28.093","3.684285714285715","7.32","2.69","1828.392","0","2.82","30.5003","4.78418","41.06","0","SATNPRO1963","25.676","0.35966","5"],
    [42365,"HCEP03730564","2024-12-12 14:30:00","11.581","3.50031","28.035","3.685714285714286","7.32","3","1495.841","0.01","4.31","30.5012","4.78433","41.07","0","SATNPRO1963","25.578","0.35828","5"],
    [42366,"HCEP03730564","2024-12-12 14:45:00","11.5843","3.50106","27.952","3.682857142857143","7.33","2.999","1487.958","0","0.94","30.5058","4.78492","41.04","0","SATNPRO1963","25.674","0.35966","5"],
    [42367,"HCEP03730564","2024-12-12 15:00:00","11.585","3.50113","27.846","3.7","7.33","2.787","1755.611","0","2.87","30.5059","4.78492","41.24","0","SATNPRO1963","25.692","0.35984","5"],
    [42368,"HCEP03730564","2024-12-12 15:15:00","11.5884","3.50172","27.713","3.712857142857143","7.33","2.995","1453.21","0","3.19","30.5089","4.78529","41.39","0","SATNPRO1963","25.792","0.36126","5"],
    [42369,"HCEP03730564","2024-12-12 15:30:00","11.5859","3.50132","27.56","3.718571428571429","7.33","2.994","1446.506","0","1.58","30.5071","4.78507","41.44","0","SATNPRO1963","25.616","0.3588","5"],
    [42370,"HCEP03730564","2024-12-12 15:45:00","11.5873","3.50156","27.386","3.702857142857143","7.33","2.757","1784.158","0","4.41","30.5083","4.78521","41.28","0","SATNPRO1963","25.578","0.35824","5"],
    [42371,"HCEP03730564","2024-12-12 16:00:00","11.5899","3.50192","27.196","3.688571428571429","7.33","2.998","1455.401","0.01","2.4","30.5098","4.78537","41.11","0","SATNPRO1963","25.588","0.35842","5"],
    [42372,"HCEP03730564","2024-12-12 16:15:00","11.5896","3.50182","26.987","3.687142857142857","7.33","2.998","1450.484","0","0.38","30.5092","4.78527","41.11","0","SATNPRO1963","25.618","0.35884","5"],
    [42373,"HCEP03730564","2024-12-12 16:30:00","11.5918","3.5023","26.776","3.685714285714286","7.33","2.748","1753.406","0","5.2","30.5121","4.78564","41.09","0","SATNPRO1963","25.701999999999998","0.36004","5"],
    [42374,"HCEP03730564","2024-12-12 16:45:00","11.5909","3.50219","26.557","3.694285714285714","7.33","3.009","1491.239","0","4.91","30.5118","4.7856","41.19","0","SATNPRO1963","25.71","0.3601","5"],
    [42375,"HCEP03730564","2024-12-12 17:00:00","11.5902","3.50203","26.342","3.684285714285715","7.33","3.009","1483.549","0","0","30.511","4.78548","41.07","0","SATNPRO1963","25.317999999999998","0.3546","5"],
    [42376,"HCEP03730564","2024-12-12 17:15:00","11.592","3.50199","26.043","3.642857142857143","7.33","2.796","1768.049","0","4.6","30.5092","4.78519","40.61","0","SATNPRO1963","25.01","0.3503","5"],
    [42377,"HCEP03730564","2024-12-12 17:30:00","11.5931","3.50239","25.784","3.58","7.33","3.005","1450.663","0.01","1.99","30.5122","4.78558","39.92","0","SATNPRO1963","25.516","0.35738","5"],
    [42378,"HCEP03730564","2024-12-12 17:45:00","11.5936","3.50242","25.55","3.582857142857143","7.33","3.004","1443.696","0","0","30.5122","4.78556","39.94","0","SATNPRO1963","25.03","0.35058","5"],
    [42379,"HCEP03730564","2024-12-12 18:00:00","11.5935","3.50242","25.314","3.57","7.33","2.777","1778.603","0","5.92","30.5124","4.78557","39.8","0","SATNPRO1963","25.316","0.3546","5"],
    [42380,"HCEP03730564","2024-12-12 18:15:00","11.5919","3.50221","25.095","3.587142857142857","7.32","3.022","1478.334","0","3.09","30.5118","4.7855","39.99","0","SATNPRO1963","25.424","0.3561","5"],
    [42381,"HCEP03730564","2024-12-12 18:30:00","11.5929","3.50217","24.87","3.6","7.33","3.02","1471.387","0","0","30.5107","4.78531","40.13","0","SATNPRO1963","25.146","0.3522","5"],
    [42382,"HCEP03730564","2024-12-12 18:45:00","11.5937","3.50217","24.649","3.585714285714285","7.32","2.812","1794.225","0","5.4","30.5101","4.78521","39.97","0","SATNPRO1963","25.254","0.35372","5"],
    [42383,"HCEP03730564","2024-12-12 19:00:00","11.5943","3.50212","24.447","3.567142857142857","7.32","3.011","1450.54","0.01","2.52","30.5092","4.78507","39.76","0","SATNPRO1963","25.188","0.35278","5"],
    [42384,"HCEP03730564","2024-12-12 19:15:00","11.5942","3.50202","24.282","3.555714285714286","7.33","3.01","1443.804","0","0.77","30.5083","4.78493","39.64","0","SATNPRO1963","25.22","0.3533","5"],
    [42385,"HCEP03730564","2024-12-12 19:30:00","11.5958","3.50204","24.152","3.538571428571428","7.32","2.769","1773.158","0","3.68","30.5073","4.78475","39.45","0","SATNPRO1963","25.242","0.35356","5"],
    [42386,"HCEP03730564","2024-12-12 19:45:00","11.5973","3.50217","24.07","3.518571428571429","7.32","2.996","1454.222","0","2.49","30.5073","4.78473","39.23","0","SATNPRO1963","25.16","0.35244","5"],
    [42387,"HCEP03730564","2024-12-12 20:00:00","11.5991","3.50224","24.001","3.487142857142857","7.32","2.994","1451.373","0","0.54","30.5066","4.7846","38.88","0","SATNPRO1963","25.034","0.35062","5"],
    [42388,"HCEP03730564","2024-12-12 20:15:00","11.6009","3.50239","23.963","3.44","7.32","2.762","1814.885","0","4.67","30.5065","4.78456","38.35","0","SATNPRO1963","24.978","0.34982","5"],
    [42389,"HCEP03730564","2024-12-12 20:30:00","11.6086","3.50282","23.969","3.392857142857143","7.32","2.991","1483.149","0.01","3.82","30.5044","4.78415","37.84","0","SATNPRO1963","24.992","0.35004","5"],
    [42390,"HCEP03730564","2024-12-12 20:45:00","11.6172","3.50363","23.992","3.308571428571428","7.32","2.992","1473.621","0","0.54","30.5051","4.78413","36.9","0","SATNPRO1963","24.842000000000002","0.34794","5"],
    [42391,"HCEP03730564","2024-12-12 21:00:00","11.6299","3.50508","24.038","3.197142857142857","7.31","2.799","1755.429","0","3.64","30.5087","4.78446","35.67","0","SATNPRO1963","24.25","0.33964","5"],
    [42392,"HCEP03730564","2024-12-12 21:15:00","11.6377","3.50628","24.103","3.042857142857143","7.31","3.003","1562.718","0.01","4.7","30.5139","4.78508","33.95","0","SATNPRO1963","24.302","0.34038","5"],
    [42393,"HCEP03730564","2024-12-12 21:30:00","11.6499","3.50765","24.226","2.914285714285715","7.3","3.003","1555.606","0","0","30.5169","4.78534","32.53","0","SATNPRO1963","24.012","0.3363","5"],
    [42394,"HCEP03730564","2024-12-12 21:45:00","11.6521","3.50812","24.348","2.795714285714286","7.29","2.838","1825.995","0","4.47","30.5197","4.78571","31.2","0","SATNPRO1963","23.996","0.3361","5"],
    [42395,"HCEP03730564","2024-12-12 22:00:00","11.6547","3.50855","24.502","2.752857142857143","7.28","3.016","1686.938","0","3.68","30.5216","4.78594","30.74","0","SATNPRO1963","24.006","0.33624","5"],
    [42396,"HCEP03730564","2024-12-12 22:15:00","11.6635","3.5095","24.673","2.705714285714286","7.28","3.015","1678.622","0","0.94","30.5234","4.78609","30.2","0","SATNPRO1963","23.887999999999998","0.33456","5"],
    [42397,"HCEP03730564","2024-12-12 22:30:00","11.6645","3.50965","24.855","2.605714285714286","7.27","2.914","1883.225","0","3.72","30.524","4.78616","29.1","0","SATNPRO1963","23.878","0.33448","5"],
    [42398,"HCEP03730564","2024-12-12 22:45:00","11.6679","3.51","25.023","2.562857142857143","7.27","3.015","1650.254","0","7.46","30.5245","4.7862","28.62","0","SATNPRO1963","24.002","0.3362","5"],
    [42399,"HCEP03730564","2024-12-12 23:00:00","11.669","3.51012","25.174","2.527142857142857","7.27","3.017","1639.732","0","0.94","30.5248","4.78623","28.22","0","SATNPRO1963","23.898","0.33472","5"],
    [42400,"HCEP03730564","2024-12-12 23:15:00","11.6663","3.51007","25.355","2.534285714285714","7.26","2.922","1813.674","0","3.43","30.5265","4.78651","28.29","0","SATNPRO1963","23.91","0.33488","5"],
    [42401,"HCEP03730564","2024-12-12 23:30:00","11.6707","3.51067","25.528","2.511428571428572","7.26","3.051","1720.046","0.01","4.6","30.5285","4.78675","28.05","0","SATNPRO1963","23.698","0.33194","5"],
    [42402,"HCEP03730564","2024-12-12 23:45:00","11.6736","3.51069","25.723","2.455714285714286","7.26","3.05","1706.058","0","0","30.5263","4.7864","27.43","0","SATNPRO1963","23.676000000000002","0.33162","5"],
    [42403,"HCEP03730564","2024-12-13 00:00:00","11.6685","3.5101","25.93","2.478571428571429","7.26","2.888","1981.382","0.01","5.34","30.5246","4.78625","27.67","0","SATNPRO1963","23.582","0.33032","5"],
    [42404,"HCEP03730564","2024-12-13 00:15:00","11.6684","3.51041","26.142","2.497142857142857","7.26","3.044","1825.806","0.01","1.96","30.5277","4.7867","27.89","0","SATNPRO1963","23.657999999999998","0.33136","5"],
    [42405,"HCEP03730564","2024-12-13 00:30:00","11.6666","3.51049","26.35","2.545714285714286","7.26","3.048","1815.548","0","0.77","30.5298","4.78704","28.42","0","SATNPRO1963","23.63","0.331","5"],
    [42406,"HCEP03730564","2024-12-13 00:45:00","11.6756","3.51158","26.555","2.385714285714286","7.25","2.958","1909.662","0","2.87","30.5329","4.78735","26.65","0","SATNPRO1963","23.352","0.32712","5"],
    [42407,"HCEP03730564","2024-12-13 01:00:00","11.6809","3.51218","26.752","2.301428571428572","7.25","3.039","1711.79","0","3.25","30.534300000000002","4.78748","25.71","0","SATNPRO1963","23.406","0.32784","5"],
    [42408,"HCEP03730564","2024-12-13 01:15:00","11.6835","3.51253","26.932","2.25","7.25","3.042","1702.059","0","0","30.5354","4.78762","25.13","0","SATNPRO1963","23.362","0.32724","5"],
    [42409,"HCEP03730564","2024-12-13 01:30:00","11.6865","3.51289","27.096","2.2","7.24","2.892","1898.385","0","5.42","30.5363","4.78771","24.58","0","SATNPRO1963","23.624","0.33086","5"],
    [42410,"HCEP03730564","2024-12-13 01:45:00","11.688","3.51303","27.245","2.147142857142857","7.24","3.011","1703.547","0.01","5.97","30.5364","4.78771","23.99","0","SATNPRO1963","23.506","0.32924","5"],
    [42411,"HCEP03730564","2024-12-13 02:00:00","11.6912","3.51339","27.382","2.084285714285714","7.24","3.01","1693.495","0","0.77","30.5372","4.78778","23.29","0","SATNPRO1963","23.009999999999998","0.32228","5"],
    [42412,"HCEP03730564","2024-12-13 02:15:00","11.6967","3.51403","27.494","2.007142857142857","7.23","2.862","1915.861","0","4.31","30.5387","4.78793","22.43","0","SATNPRO1963","23.098","0.3235","5"],
    [42413,"HCEP03730564","2024-12-13 02:30:00","11.691","3.51345","27.617","1.974285714285714","7.22","3.032","1723.392","0.01","6.04","30.5378","4.78789","22.06","0","SATNPRO1963","23.282","0.32612","5"],
    [42414,"HCEP03730564","2024-12-13 02:45:00","11.6864","3.51306","27.735","2.028571428571428","7.23","3.034","1712.734","0","0","30.5378","4.78796","22.66","0","SATNPRO1963","23.244","0.32558","5"],
    [42415,"HCEP03730564","2024-12-13 03:00:00","11.6782","3.5122","27.801","2.09","7.23","2.931","1884.176","0","4.02","30.5362","4.78786","23.34","0","SATNPRO1963","23.21","0.32512","5"],
    [42416,"HCEP03730564","2024-12-13 03:15:00","11.6694","3.51125","27.82","2.22","7.23","3.038","1682.879","0","6.49","30.5342","4.7877","24.79","0","SATNPRO1963","23.55","0.32984","5"],
    [42417,"HCEP03730564","2024-12-13 03:30:00","11.6705","3.51153","27.823","2.311428571428572","7.24","3.04","1672.036","0","0","30.5361","4.78795","25.81","0","SATNPRO1963","23.594","0.33048","5"],
    [42418,"HCEP03730564","2024-12-13 03:45:00","11.6671","3.51106","27.794","2.337142857142857","7.24","2.831","1949.679","0","4.73","30.5344","4.78775","26.1","0","SATNPRO1963","23.758","0.33278","5"],
    [42419,"HCEP03730564","2024-12-13 04:00:00","11.6668","3.5109","27.75","2.388571428571428","7.24","3.026","1652.34","0","5.79","30.5331","4.78757","26.67","0","SATNPRO1963","23.918","0.335","5"],
    [42420,"HCEP03730564","2024-12-13 04:15:00","11.6648","3.51008","27.706","2.45","7.25","3.028","1641.037","0","0.94","30.5268","4.78672","27.36","0","SATNPRO1963","23.945999999999998","0.33538","5"],
    [42421,"HCEP03730564","2024-12-13 04:30:00","11.6614","3.50975","27.738","2.52","7.24","2.84","1834.194","0","5.26","30.5264","4.78671","28.13","0","SATNPRO1963","24.014","0.33636","5"],
    [42422,"HCEP03730564","2024-12-13 04:45:00","11.6588","3.50944","27.771","2.564285714285714","7.25","3.025","1572.004","0","2.82","30.5255","4.78662","28.64","0","SATNPRO1963","24.216","0.33922","5"],
    [42423,"HCEP03730564","2024-12-13 05:00:00","11.6614","3.50693","27.768","2.541428571428571","7.25","3.028","1565.255","0","0.94","30.4992","4.78286","28.37","0","SATNPRO1963","24.195999999999998","0.3389","5"],
    [42424,"HCEP03730564","2024-12-13 05:15:00","11.6576","3.50874","27.726","2.58","7.25","2.874","1766.977","0","3.07","30.5197","4.78582","28.8","0","SATNPRO1963","23.772","0.33298","5"],
    [42425,"HCEP03730564","2024-12-13 05:30:00","11.6508","3.50857","27.668","2.642857142857143","7.26","3.033","1598.798","0.01","4.91","30.5237","4.78647","29.51","0","SATNPRO1963","23.752","0.33266","5"],
    [42426,"HCEP03730564","2024-12-13 05:45:00","11.6486","3.50789","27.622","2.644285714285714","7.26","3.034","1582.858","0","0.94","30.519","4.78584","29.52","0","SATNPRO1963","23.684","0.33174","5"],
    [42427,"HCEP03730564","2024-12-13 06:00:00","11.6463","3.50771","27.564","2.67","7.26","2.893","1685.347","0","5.09","30.5192","4.7859","29.8","0","SATNPRO1963","23.71","0.3321","5"],
    [42428,"HCEP03730564","2024-12-13 06:15:00","11.6427","3.50707","27.509","2.687142857142857","7.26","3.03","1628.456","0","3.76","30.516","4.78549","29.99","0","SATNPRO1963","24","0.33614","5"],
    [42429,"HCEP03730564","2024-12-13 06:30:00","11.6446","3.50779","27.452","2.708571428571429","7.26","3.031","1613.993","0","0","30.5214","4.78623","30.23","0","SATNPRO1963","23.72","0.33224","5"],
    [42430,"HCEP03730564","2024-12-13 06:45:00","11.6421","3.50767","27.385","2.684285714285714","7.26","2.87","1807.709","0","4.51","30.5223","4.78639","29.96","0","SATNPRO1963","23.784","0.33312","5"],
    [42431,"HCEP03730564","2024-12-13 07:00:00","11.6412","3.50765","27.332","2.715714285714286","7.26","3.023","1588.578","0","7.77","30.523","4.78649","30.3","0","SATNPRO1963","23.882","0.33454","5"],
    [42432,"HCEP03730564","2024-12-13 07:15:00","11.6392","3.50751","27.271","2.745714285714286","7.27","3.026","1577.82","0","0","30.5232","4.78655","30.64","0","SATNPRO1963","23.637999999999998","0.3311","5"],
    [42433,"HCEP03730564","2024-12-13 07:30:00","11.6382","3.50742","27.212","2.76","7.26","2.856","1788.324","0","3.99","30.5232","4.78656","30.8","0","SATNPRO1963","23.656","0.33134","5"],
    [42434,"HCEP03730564","2024-12-13 07:45:00","11.6374","3.50734","27.156","2.757142857142857","7.27","3.038","1649.132","0","5.2","30.5231","4.78655","30.78","0","SATNPRO1963","23.838","0.33386","5"],
    [42435,"HCEP03730564","2024-12-13 08:00:00","11.6367","3.50716","27.105","2.765714285714286","7.27","3.04","1636.89","0","0.54","30.5219","4.7864","30.87","0","SATNPRO1963","23.758","0.33276","5"],
    [42436,"HCEP03730564","2024-12-13 08:15:00","11.6372","3.50697","27.06","2.752857142857143","7.27","2.893","1784.466","0","4.34","30.5197","4.78607","30.71","0","SATNPRO1963","23.59","0.33044","5"],
    [42437,"HCEP03730564","2024-12-13 08:30:00","11.6339","3.50653","27.019","2.727142857142857","7.27","3.019","1580.821","0","3.72","30.5182","4.78591","30.43","0","SATNPRO1963","23.488","0.32898","5"],
    [42438,"HCEP03730564","2024-12-13 08:45:00","11.6312","3.5064","27.001","2.732857142857143","7.27","3.019","1570.285","0","1.08","30.5193","4.7861","30.49","0","SATNPRO1963","23.688","0.33176","5"],
    [42439,"HCEP03730564","2024-12-13 09:00:00","11.6299","3.50634","27.012","2.76","7.27","2.84","1817.366","0","3.68","30.5196","4.78616","30.79","0","SATNPRO1963","23.504","0.32924","5"],
    [42440,"HCEP03730564","2024-12-13 09:15:00","11.6291","3.50636","27.041","2.781428571428572","7.27","3.025","1574.411","0","4.1","30.5205","4.78631","31.03","0","SATNPRO1963","23.934","0.33524","5"],
    [42441,"HCEP03730564","2024-12-13 09:30:00","11.6314","3.50651","27.073","2.787142857142857","7.27","3.024","1565.041","0","1.53","30.52","4.78621","31.1","0","SATNPRO1963","23.580000000000002","0.3303","5"],
    [42442,"HCEP03730564","2024-12-13 09:45:00","11.6304","3.50657","27.111","2.762857142857143","7.27","2.853","1800.363","0","3.3","30.5214","4.78641","30.83","0","SATNPRO1963","23.634","0.331","5"],
    [42443,"HCEP03730564","2024-12-13 10:00:00","11.6293","3.50659","27.142","2.75","7.27","3.021","1586.93","0","4.24","30.5226","4.7866","30.68","0","SATNPRO1963","23.468","0.32868","5"],
    [42444,"HCEP03730564","2024-12-13 10:15:00","11.6252","3.50648","27.22","2.771428571428571","7.28","3.022","1575.497","0","0.94","30.5248","4.78698","30.92","0","SATNPRO1963","23.614","0.33074","5"],
    [42445,"HCEP03730564","2024-12-13 10:30:00","11.6231","3.50625","27.311","2.797142857142857","7.28","2.849","1798.202","0","2.66","30.5243","4.78695","31.21","0","SATNPRO1963","23.384","0.32754","5"],
    [42446,"HCEP03730564","2024-12-13 10:45:00","11.6205","3.50607","27.405","2.822857142857143","7.28","3.018","1578.101","0","7.2","30.5247","4.78704","31.48","0","SATNPRO1963","23.546","0.32984","5"],
    [42447,"HCEP03730564","2024-12-13 11:00:00","11.6192","3.50596","27.497","2.865714285714286","7.28","3.02","1567.04","0","1.33","30.5246","4.78705","31.97","0","SATNPRO1963","23.752","0.33266","5"],
    [42448,"HCEP03730564","2024-12-13 11:15:00","11.6178","3.50585","27.57","2.872857142857143","7.28","2.824","1838.971","0","4.2","30.5247","4.78709","32.04","0","SATNPRO1963","23.564","0.33004","5"],
    [42449,"HCEP03730564","2024-12-13 11:30:00","11.6159","3.50564","27.644","2.891428571428572","7.28","3.015","1551.939","0","2.87","30.5241","4.78703","32.26","0","SATNPRO1963","23.802","0.33336","5"],
    [42450,"HCEP03730564","2024-12-13 11:45:00","11.6147","3.50542","27.73","2.912857142857143","7.29","3.012","1542.716","0","0.38","30.523","4.7869","32.49","0","SATNPRO1963","23.784","0.33314","5"],
    [42451,"HCEP03730564","2024-12-13 12:00:00","11.6131","3.50511","27.811","2.951428571428571","7.28","2.844","1784.649","0","3.64","30.5213","4.78669","32.92","0","SATNPRO1963","23.678","0.33168","5"],
    [42452,"HCEP03730564","2024-12-13 12:15:00","11.6114","3.50487","27.904","2.997142857142857","7.28","3.013","1555.195","0.01","3.3","30.5203","4.78659","33.42","0","SATNPRO1963","24.136","0.33804","5"],
    [42453,"HCEP03730564","2024-12-13 12:30:00","11.6105","3.50482","27.982","3.031428571428571","7.29","3.012","1545.536","0","0.77","30.5205","4.78663","33.8","0","SATNPRO1963","24.254","0.3397","5"],
    [42454,"HCEP03730564","2024-12-13 12:45:00","11.6103","3.50469","28.008","3.05","7.29","2.773","1902.457","0","4.44","30.5195","4.78649","34.01","0","SATNPRO1963","24.156","0.33836","5"],
    [42455,"HCEP03730564","2024-12-13 13:00:00","11.609","3.50439","28.052","3.081428571428571","7.29","3.003","1571.389","0","2.66","30.5175","4.78623","34.36","0","SATNPRO1963","24.464","0.34262","5"],
    [42456,"HCEP03730564","2024-12-13 13:15:00","11.6099","3.50452","28.105","3.117142857142857","7.29","3.002","1562.472","0","1.33","30.5182","4.78631","34.77","0","SATNPRO1963","24.42","0.34206","5"],
    [42457,"HCEP03730564","2024-12-13 13:30:00","11.6104","3.50462","28.146","3.124285714285714","7.29","2.813","1797.671","0","8.78","30.5186","4.78637","34.85","0","SATNPRO1963","24.54","0.34372","5"],
    [42458,"HCEP03730564","2024-12-13 13:45:00","11.6094","3.50445","28.175","3.13","7.29","3.01","1557.886","0.01","4.13","30.5178","4.78628","34.9","0","SATNPRO1963","24.462","0.34266","5"],
    [42459,"HCEP03730564","2024-12-13 14:00:00","11.610900000000001","3.50463","28.175","3.135714285714286","7.29","3.012","1548.997","0","0","30.5183","4.78632","34.97","0","SATNPRO1963","24.330000000000002","0.34076","5"],
    [42460,"HCEP03730564","2024-12-13 14:15:00","11.6112","3.50459","28.165","3.121428571428571","7.29","2.85","1817.212","0","4.54","30.5177","4.78623","34.81","0","SATNPRO1963","24.016","0.3364","5"],
    [42461,"HCEP03730564","2024-12-13 14:30:00","11.6137","3.50482","28.147","3.084285714285714","7.29","3.014","1523.567","0","2.52","30.5179","4.78621","34.4","0","SATNPRO1963","24.04","0.33672","5"],
    [42462,"HCEP03730564","2024-12-13 14:45:00","11.6141","3.50484","28.112","3.015714285714286","7.29","3.014","1516.039","0","0.77","30.5177","4.78619","33.64","0","SATNPRO1963","23.806","0.33346","5"],
    [42463,"HCEP03730564","2024-12-13 15:00:00","11.6163","3.50507","28.053","3.001428571428571","7.29","2.797","1801.074","0","3.87","30.5182","4.78622","33.48","0","SATNPRO1963","23.68","0.33166","5"],
    [42464,"HCEP03730564","2024-12-13 15:15:00","11.617","3.50514","27.972","2.977142857142857","7.29","2.977","1469.321","0.01","3.52","30.5183","4.78622","33.21","0","SATNPRO1963","24.02","0.33646","5"],
    [42465,"HCEP03730564","2024-12-13 15:30:00","11.6205","3.50544","27.849","2.964285714285714","7.29","2.978","1461.065","0","1.15","30.5184","4.78618","33.07","0","SATNPRO1963","23.78","0.33312","5"],
    [42466,"HCEP03730564","2024-12-13 15:45:00","11.6234","3.50565","27.709","2.89","7.29","2.741","1798.992","0","5.37","30.5181","4.78609","32.24","0","SATNPRO1963","23.392","0.32762","5"],
    [42467,"HCEP03730564","2024-12-13 16:00:00","11.6273","3.50597","27.552","2.82","7.28","2.96","1466.939","0.01","3.07","30.518","4.78601","31.46","0","SATNPRO1963","23.433999999999997","0.3282","5"],
    [42468,"HCEP03730564","2024-12-13 16:15:00","11.629","3.50624","27.37","2.815714285714286","7.28","2.957","1460.091","0","0","30.5192","4.78614","31.42","0","SATNPRO1963","24.04","0.33672","5"],
    [42469,"HCEP03730564","2024-12-13 16:30:00","11.6371","3.50699","27.147","2.808571428571429","7.28","2.76","1766.445","0","5.31","30.5199","4.78611","31.34","0","SATNPRO1963","23.806","0.33348","5"],
    [42470,"HCEP03730564","2024-12-13 16:45:00","11.6416","3.50742","26.91","2.712857142857143","7.27","2.982","1482.777","0.01","4.37","30.5205","4.78612","30.27","0","SATNPRO1963","23.346","0.32702","5"],
    [42471,"HCEP03730564","2024-12-13 17:00:00","11.6434","3.5074","26.691","2.622857142857143","7.27","2.979","1475.914","0","0","30.5189","4.78585","29.28","0","SATNPRO1963","23.364","0.3272","5"],
    [42472,"HCEP03730564","2024-12-13 17:15:00","11.6465","3.50752","26.452","2.592857142857143","7.27","2.755","1744.286","0.01","2.77","30.5177","4.78562","28.95","0","SATNPRO1963","23.29","0.32624","5"],
    [42473,"HCEP03730564","2024-12-13 17:30:00","11.6504","3.50778","26.207","2.542857142857143","7.26","2.963","1478.666","0","2.95","30.5171","4.78547","28.38","0","SATNPRO1963","23.317999999999998","0.32658","5"],
    [42474,"HCEP03730564","2024-12-13 17:45:00","11.6504","3.50795","25.958","2.521428571428571","7.26","2.962","1475.527","0","0","30.5188","4.78569","28.15","0","SATNPRO1963","23.654","0.33128","5"],
    [42475,"HCEP03730564","2024-12-13 18:00:00","11.6451","3.50695","25.718","2.614285714285714","7.25","2.708","1791.621","0","5.61","30.5136","4.78502","29.17","0","SATNPRO1963","24.124000000000002","0.33788","5"],
    [42476,"HCEP03730564","2024-12-13 18:15:00","11.651","3.50723","25.497","2.628571428571429","7.25","2.982","1412.02","0","6.29","30.5115","4.78463","29.34","0","SATNPRO1963","23.84","0.3339","5"],
    [42477,"HCEP03730564","2024-12-13 18:30:00","11.6593","3.50807","25.268","2.508571428571428","7.26","2.982","1404.816","0","0","30.5129","4.78469","28","0","SATNPRO1963","23.704","0.33204","5"],
    [42478,"HCEP03730564","2024-12-13 18:45:00","11.6636","3.50815","25.027","2.39","7.25","2.764","1743.182","0","5.45","30.5103","4.78424","26.68","0","SATNPRO1963","23.76","0.3328","5"],
    [42479,"HCEP03730564","2024-12-13 19:00:00","11.6719","3.50843","24.819","2.3","7.24","2.95","1538.139","0","6.43","30.5062","4.78354","25.68","0","SATNPRO1963","23.502000000000002","0.32922","5"],
    [42480,"HCEP03730564","2024-12-13 19:15:00","11.6753","3.50818","24.601","2.18","7.24","2.95","1531.128","0","1.08","30.5011","4.78275","24.34","0","SATNPRO1963","23.806","0.33346","5"],
    [42481,"HCEP03730564","2024-12-13 19:30:00","11.67","3.50707","24.4","2.148571428571429","7.23","2.701","1813.131","0","3.91","30.4948","4.78194","24","0","SATNPRO1963","23.71","0.33208","5"],
    [42482,"HCEP03730564","2024-12-13 19:45:00","11.671","3.50698","24.258","2.211428571428572","7.23","2.941","1467.489","0","3.16","30.4931","4.78168","24.69","0","SATNPRO1963","24.014","0.33636","5"],
    [42483,"HCEP03730564","2024-12-13 20:00:00","11.6829","3.50827","24.081","2.174285714285714","7.23","2.939","1460.091","0","0","30.4959","4.78189","24.28","0","SATNPRO1963","23.83","0.33376","5"],
    [42484,"HCEP03730564","2024-12-13 20:15:00","11.6937","3.50929","23.921","2.015714285714286","7.22","2.746","1782.484","0","5.26","30.4969","4.78187","22.52","0","SATNPRO1963","23.676","0.3316","5"],
    [42485,"HCEP03730564","2024-12-13 20:30:00","11.702","3.50982","23.816","1.84","7.21","2.98","1483.856","0","3.28","30.4953","4.78151","20.55","0","SATNPRO1963","23.636","0.33108","5"],
    [42486,"HCEP03730564","2024-12-13 20:45:00","11.7056","3.50987","23.76","1.705714285714286","7.21","2.98","1480.254","0","1.15","30.4928","4.78111","19.06","0","SATNPRO1963","23.79","0.33322","5"],
    [42487,"HCEP03730564","2024-12-13 21:00:00","11.7076","3.50995","23.769","1.634285714285714","7.2","2.73","1818.703","0","5.03","30.492","4.78096","18.26","0","SATNPRO1963","23.736","0.33248","5"],
    [42488,"HCEP03730564","2024-12-13 21:15:00","11.7097","3.5101","23.762","1.564285714285714","7.19","2.998","1482.872","0.01","9.21","30.4917","4.78088","17.49","0","SATNPRO1963","23.558","0.33","5"],
    [42489,"HCEP03730564","2024-12-13 21:30:00","11.712","3.51023","23.771","1.498571428571428","7.19","3.003","1475.513","0","0","30.4911","4.78078","16.75","0","SATNPRO1963","23.156","0.32434","5"],
    [42490,"HCEP03730564","2024-12-13 21:45:00","11.7132","3.51028","23.807","1.434285714285714","7.18","2.801","1689.415","0","6.09","30.4905","4.78067","16.03","0","SATNPRO1963","23.062","0.323","5"],
    [42491,"HCEP03730564","2024-12-13 22:00:00","11.7133","3.51017","23.868","1.391428571428572","7.18","2.987","1520.815","0","4.37","30.4893","4.7805","15.54","0","SATNPRO1963","22.968","0.32172","5"],
    [42492,"HCEP03730564","2024-12-13 22:15:00","11.7137","3.50991","24.036","1.357142857142857","7.18","2.989","1513.992","0","0.77","30.4865","4.78011","15.17","0","SATNPRO1963","22.946","0.32136","5"],
    [42493,"HCEP03730564","2024-12-13 22:30:00","11.7127","3.50968","24.177","1.351428571428571","7.18","2.825","1796.83","0","4.44","30.485","4.77993","15.1","0","SATNPRO1963","22.884","0.3205","5"],
    [42494,"HCEP03730564","2024-12-13 22:45:00","11.712","3.50963","24.345","1.344285714285714","7.17","2.999","1578.783","0","4.34","30.485","4.77995","15.03","0","SATNPRO1963","22.855999999999998","0.32012","5"],
    [42495,"HCEP03730564","2024-12-13 23:00:00","11.7116","3.50963","24.543","1.35","7.17","3.002","1570.958","0","0.54","30.4852","4.77999","15.08","0","SATNPRO1963","22.706","0.318","5"],
    [42496,"HCEP03730564","2024-12-13 23:15:00","11.7107","3.50968","24.745","1.35","7.17","2.809","1830.794","0","4.79","30.4865","4.7802","15.08","0","SATNPRO1963","22.812","0.31956","5"],
    [42497,"HCEP03730564","2024-12-13 23:30:00","11.7101","3.50963","24.952","1.372857142857143","7.17","2.971","1562.888","0","3.25","30.4864","4.7802","15.33","0","SATNPRO1963","23.036","0.32268","5"],
    [42498,"HCEP03730564","2024-12-13 23:45:00","11.7102","3.50953","25.129","1.367142857142857","7.17","2.973","1556.09","0","0","30.4852","4.78004","15.27","0","SATNPRO1963","22.856","0.32014","5"],
    [42499,"HCEP03730564","2024-12-14 00:00:00","11.7112","3.5093","25.321","1.327142857142857","7.17","2.774","1834.239","0","3.52","30.4821","4.7796","14.83","0","SATNPRO1963","22.518","0.31538","5"],
    [42500,"HCEP03730564","2024-12-14 00:15:00","11.7096","3.50823","25.456","1.302857142857143","7.17","2.963","1480.133","0.01","4.65","30.4731","4.77836","14.56","0","SATNPRO1963","22.468","0.31474","5"],
    [42501,"HCEP03730564","2024-12-14 00:30:00","11.708","3.50728","25.589","1.274285714285714","7.17","2.965","1471.373","0","0.86","30.4651","4.77727","14.23","0","SATNPRO1963","22.162","0.3104","5"],
    [42502,"HCEP03730564","2024-12-14 00:45:00","11.7038","3.50592","25.872","1.248571428571429","7.16","2.813","1732.551","0","4.57","30.4553","4.77595","13.95","0","SATNPRO1963","21.79","0.30522","5"],
    [42503,"HCEP03730564","2024-12-14 01:00:00","11.699","3.50441","26.07","1.228571428571429","7.16","2.98","1620.791","0","6.04","30.4447","4.77453","13.73","0","SATNPRO1963","21.654","0.30326","5"],
    [42504,"HCEP03730564","2024-12-14 01:15:00","11.6968","3.50317","26.364","1.221428571428572","7.16","2.984","1610.16","0","1.08","30.4344","4.77313","13.63","0","SATNPRO1963","21.366","0.29926","5"],
    [42505,"HCEP03730564","2024-12-14 01:30:00","11.6944","3.50311","26.637","1.234285714285714","7.16","2.888","1669.033","0","4.73","30.4357","4.77336","13.78","0","SATNPRO1963","21.254","0.29774","5"],
    [42506,"HCEP03730564","2024-12-14 01:45:00","11.6901","3.5018","26.809","1.244285714285714","7.16","3.002","1504.877","0","5.23","30.4265","4.77213","13.9","0","SATNPRO1963","21.562","0.30198","5"],
    [42507,"HCEP03730564","2024-12-14 02:00:00","11.6877","3.50155","27.071","1.307142857142857","7.16","3.003","1493.195","0","0","30.4259","4.7721","14.6","0","SATNPRO1963","21.776","0.305","5"],
    [42508,"HCEP03730564","2024-12-14 02:15:00","11.687","3.50127","27.268","1.334285714285714","7.16","2.812","1667.844","0.01","9.09","30.4238","4.77182","14.9","0","SATNPRO1963","21.664","0.30342","5"],
    [42509,"HCEP03730564","2024-12-14 02:30:00","11.6892","3.50157","27.495","1.325714285714286","7.16","2.997","1487.502","0","3.34","30.4248","4.77194","14.81","0","SATNPRO1963","21.599999999999998","0.30252","5"],
    [42510,"HCEP03730564","2024-12-14 02:45:00","11.6898","3.50146","27.6","1.288571428571429","7.16","2.996","1476.756","0","0.38","30.4231","4.7717","14.39","0","SATNPRO1963","21.486","0.30092","5"],
    [42511,"HCEP03730564","2024-12-14 03:00:00","11.692","3.50204","27.764","1.282857142857143","7.16","2.819","1682.4","0","4.67","30.427","4.77222","14.32","0","SATNPRO1963","21.698","0.30392","5"],
    [42512,"HCEP03730564","2024-12-14 03:15:00","11.6937","3.50337","27.816","1.32","7.17","2.993","1491.557","0","3.56","30.4383","4.77381","14.74","0","SATNPRO1963","22.226","0.3113","5"],
    [42513,"HCEP03730564","2024-12-14 03:30:00","11.6972","3.50454","27.905","1.37","7.17","2.992","1483.715","0","0","30.4467","4.77495","15.3","0","SATNPRO1963","22.512","0.31532","5"],
    [42514,"HCEP03730564","2024-12-14 03:45:00","11.7001","3.5049","27.945","1.307142857142857","7.16","2.813","1670.128","0","3.87","30.4477","4.77505","14.6","0","SATNPRO1963","22.324","0.31266","5"],
    [42515,"HCEP03730564","2024-12-14 04:00:00","11.7014","3.50528","28.011","1.315714285714286","7.16","2.932","1528.609","0.01","4.9","30.4504","4.7754","14.69","0","SATNPRO1963","22.876","0.32042","5"],
    [42516,"HCEP03730564","2024-12-14 04:15:00","11.6974","3.50329","28.057","1.382857142857143","7.16","2.929","1519.323","0","0","30.4345","4.77322","15.44","0","SATNPRO1963","23.018","0.32244","5"],
    [42517,"HCEP03730564","2024-12-14 04:30:00","11.6944","3.5027","28.024","1.438571428571428","7.17","2.761","1629.072","0","5.58","30.4313","4.77281","16.07","0","SATNPRO1963","23.137999999999998","0.3241","5"],
    [42518,"HCEP03730564","2024-12-14 04:45:00","11.6882","3.50213","28.048","1.485714285714286","7.17","2.989","1492.281","0.01","4.24","30.4308","4.77283","16.59","0","SATNPRO1963","23.586","0.33042","5"],
    [42519,"HCEP03730564","2024-12-14 05:00:00","11.6923","3.50372","28.086","1.561428571428571","7.18","2.989","1483.245","0","0","30.4428","4.77447","17.43","0","SATNPRO1963","23.41","0.3279","5"],
    [42520,"HCEP03730564","2024-12-14 05:15:00","11.6921","3.50569","28.097","1.552857142857143","7.18","2.781","1712.948","0","4.63","30.4619","4.77718","17.35","0","SATNPRO1963","23.451999999999998","0.3285","5"],
    [42521,"HCEP03730564","2024-12-14 05:30:00","11.658","3.50056","28.118","1.902857142857143","7.19","2.991","1584.329","0","5.48","30.4404","4.77463","21.24","0","SATNPRO1963","23.939999999999998","0.33534","5"],
    [42522,"HCEP03730564","2024-12-14 05:45:00","11.6626","3.50129","28.123","2.078571428571429","7.2","2.99","1571.459","0","0","30.4436","4.77501","23.19","0","SATNPRO1963","23.84","0.33394","5"],
    [42523,"HCEP03730564","2024-12-14 06:00:00","11.6333","3.49746","28.102","2.255714285714286","7.2","2.856","1761.407","0","5.23","30.4307","4.77361","25.16","0","SATNPRO1963","24.156","0.33838","5"],
    [42524,"HCEP03730564","2024-12-14 06:15:00","11.6205","3.49532","28.05","2.47","7.21","3.023","1620.758","0","3.72","30.4206","4.77236","27.54","0","SATNPRO1963","24.132","0.338","5"],
    [42525,"HCEP03730564","2024-12-14 06:30:00","11.6046","3.49249","27.988","2.565714285714286","7.23","3.024","1609.145","0","0.77","30.4063","4.77057","28.59","0","SATNPRO1963","24.442","0.34236","5"],
    [42526,"HCEP03730564","2024-12-14 06:45:00","11.5948","3.49161","27.943","2.72","7.24","2.829","1778.6","0","4.7","30.4058","4.77064","30.31","0","SATNPRO1963","24.256","0.33976","5"],
    [42527,"HCEP03730564","2024-12-14 07:00:00","11.5806","3.4885","27.913","2.825714285714286","7.24","2.978","1483.882","0","1.76","30.3874","4.76825","31.47","0","SATNPRO1963","24.448","0.34246","5"],
    [42528,"HCEP03730564","2024-12-14 07:15:00","11.568","3.48593","27.861","2.907142857142858","7.25","2.978","1476.687","0","0.66","30.3729","4.76637","32.36","0","SATNPRO1963","24.77","0.34694","5"],
    [42529,"HCEP03730564","2024-12-14 07:30:00","11.5632","3.48556","27.792","2.938571428571429","7.26","2.823","1773.205","0","4.27","30.3732","4.76648","32.71","0","SATNPRO1963","25.024","0.3505","5"],
    [42530,"HCEP03730564","2024-12-14 07:45:00","11.5667","3.48605","27.746","2.984285714285714","7.26","3.034","1589.708","0","3.21","30.3751","4.7667","33.22","0","SATNPRO1963","24.804","0.3474","5"],
    [42531,"HCEP03730564","2024-12-14 08:00:00","11.5541","3.48452","27.67","2.975714285714286","7.27","3.035","1578.135","0","0","30.3707","4.76626","33.11","0","SATNPRO1963","25.166","0.35248","5"],
    [42532,"HCEP03730564","2024-12-14 08:15:00","11.5615","3.48532","27.595","2.987142857142858","7.26","2.911","1682.874","0","2.24","30.3725","4.76639","33.26","0","SATNPRO1963","24.884","0.34854","5"],
    [42533,"HCEP03730564","2024-12-14 08:30:00","11.559","3.48501","27.539","3.024285714285714","7.26","3.046","1601.412","0","3.16","30.3715","4.76628","33.66","0","SATNPRO1963","24.844","0.348","5"],
    [42534,"HCEP03730564","2024-12-14 08:45:00","11.5561","3.48496","27.481","3.002857142857143","7.27","3.047","1590.542","0","0","30.3735","4.7666","33.42","0","SATNPRO1963","24.664","0.34548","5"],
    [42535,"HCEP03730564","2024-12-14 09:00:00","11.5502","3.48423","27.427","3.078571428571428","7.27","2.912","1759.742","0","3.64","30.3712","4.76637","34.26","0","SATNPRO1963","24.952","0.3495","5"],
    [42536,"HCEP03730564","2024-12-14 09:15:00","11.557","3.48494","27.391","3.048571428571428","7.27","3.021","1566.784","0","2.66","30.3725","4.76645","33.92","0","SATNPRO1963","24.848","0.34802","5"],
    [42537,"HCEP03730564","2024-12-14 09:30:00","11.5585","3.48495","27.375","3.042857142857143","7.27","3.025","1555.648","0","0","30.3714","4.76627","33.87","0","SATNPRO1963","24.791999999999998","0.3473","5"],
    [42538,"HCEP03730564","2024-12-14 09:45:00","11.5561","3.48472","27.337","3.007142857142857","7.27","2.871","1711.624","0","3.39","30.3711","4.76626","33.48","0","SATNPRO1963","25.18","0.3527","5"],
    [42539,"HCEP03730564","2024-12-14 10:00:00","11.5574","3.48503","27.303","3.051428571428572","7.27","3.01","1601.01","0.01","4.97","30.3731","4.76653","33.96","0","SATNPRO1963","25.240000000000002","0.35356","5"],
    [42540,"HCEP03730564","2024-12-14 10:15:00","11.5627","3.48567","27.357","2.992857142857143","7.27","3.01","1588.324","0","0","30.3749","4.7667","33.32","0","SATNPRO1963","24.926","0.34912","5"],
    [42541,"HCEP03730564","2024-12-14 10:30:00","11.5629","3.48556","27.38","2.975714285714286","7.27","2.87","1746.568","0","5.97","30.3737","4.76653","33.13","0","SATNPRO1963","24.89","0.34866","5"],
    [42542,"HCEP03730564","2024-12-14 10:45:00","11.5608","3.48528","27.428","2.981428571428572","7.27","3.014","1592.406","0","5.51","30.3726","4.76641","33.19","0","SATNPRO1963","25.062","0.35102","5"],
    [42543,"HCEP03730564","2024-12-14 11:00:00","11.5607","3.48517","27.509","2.987142857142858","7.27","3.015","1578.221","0","0","30.3716","4.76628","33.26","0","SATNPRO1963","24.952","0.34954","5"],
    [42544,"HCEP03730564","2024-12-14 11:15:00","11.5683","3.48855","27.545","2.954285714285715","7.27","2.814","1862.953","0","4.31","30.3982","4.76992","32.89","0","SATNPRO1963","24.258","0.33978","5"],
    [42545,"HCEP03730564","2024-12-14 11:30:00","11.5605","3.48583","27.622","2.934285714285714","7.27","3.028","1629.104","0.01","6.97","30.3782","4.76721","32.66","0","SATNPRO1963","24.381999999999998","0.3415","5"],
    [42546,"HCEP03730564","2024-12-14 11:45:00","11.5527","3.48395","27.73","2.962857142857143","7.27","3.029","1620.042","0","0","30.3663","4.76566","32.97","0","SATNPRO1963","25.204","0.35298","5"],
    [42547,"HCEP03730564","2024-12-14 12:00:00","11.5508","3.48378","27.781","3.042857142857143","7.27","2.852","1803.655","0","3.52","30.3662","4.76566","33.85","0","SATNPRO1963","25.368000000000002","0.3553","5"],
    [42548,"HCEP03730564","2024-12-14 12:15:00","11.5507","3.4838","27.857","3.052857142857143","7.27","3.05","1676.191","0","4.17","30.3664","4.7657","33.97","0","SATNPRO1963","25.13","0.35198","5"],
    [42549,"HCEP03730564","2024-12-14 12:30:00","11.5538","3.48433","27.829","3.032857142857143","7.28","3.053","1666.13","0","0.77","30.3691","4.76603","33.76","0","SATNPRO1963","24.93","0.34914","5"],
    [42550,"HCEP03730564","2024-12-14 12:45:00","11.5553","3.48471","27.912","2.955714285714286","7.28","2.934","1864.322","0","3.95","30.3715","4.76635","32.89","0","SATNPRO1963","24.608","0.34466","5"],
    [42551,"HCEP03730564","2024-12-14 13:00:00","11.5556","3.48488","27.992","2.961428571428571","7.27","3.004","1594.568","0","5.29","30.3728","4.76655","32.96","0","SATNPRO1963","24.81","0.34754","5"],
    [42552,"HCEP03730564","2024-12-14 13:15:00","11.5583","3.48519","28.012","2.955714285714286","7.27","3.004","1582.93","0","0","30.3736","4.76661","32.89","0","SATNPRO1963","24.662","0.34544","5"],
    [42553,"HCEP03730564","2024-12-14 13:30:00","11.5569","3.48533","28.095","2.94","7.27","2.742","1855.658","0.01","4.85","30.3761","4.76699","32.72","0","SATNPRO1963","24.616","0.34478","5"],
    [42554,"HCEP03730564","2024-12-14 13:45:00","11.5527","3.48459","28.13","2.947142857142858","7.27","2.99","1537.865","0","3.45","30.3724","4.76653","32.8","0","SATNPRO1963","24.652","0.34532","5"],
    [42555,"HCEP03730564","2024-12-14 14:00:00","11.5523","3.48463","28.236","3.001428571428571","7.28","2.991","1530.55","0","0","30.373","4.76663","33.4","0","SATNPRO1963","24.88","0.34844","5"],
    [42556,"HCEP03730564","2024-12-14 14:15:00","11.5719","3.48786","28.196","2.911428571428571","7.27","2.787","1788.217","0","4.06","30.3882","4.7685","32.42","0","SATNPRO1963","24.578","0.34426","5"],
    [42557,"HCEP03730564","2024-12-14 14:30:00","11.5861","3.49031","28.182","2.774285714285714","7.27","3.004","1531.896","0","5.75","30.4003","4.77","30.91","0","SATNPRO1963","24.466","0.34268","5"],
    [42558,"HCEP03730564","2024-12-14 14:45:00","11.5725","3.4881","28.243","2.72","7.26","3.006","1523.383","0","0","30.39","4.76874","30.28","0","SATNPRO1963","24.67","0.34554","5"],
    [42559,"HCEP03730564","2024-12-14 15:00:00","11.5697","3.48793","28.328","2.825714285714286","7.26","2.811","1750.438","0","3.07","30.3906","4.76887","31.47","0","SATNPRO1963","24.878","0.34848","5"],
    [42560,"HCEP03730564","2024-12-14 15:15:00","11.5584","3.48721","28.367","2.894285714285714","7.26","3.021","1565.356","0","2.97","30.3929","4.76937","32.22","0","SATNPRO1963","25.128","0.352","5"],
    [42561,"HCEP03730564","2024-12-14 15:30:00","11.5541","3.48687","28.3","3.007142857142857","7.27","3.023","1559.037","0","1.21","30.3932","4.76946","33.47","0","SATNPRO1963","25.176000000000002","0.3526","5"],
    [42562,"HCEP03730564","2024-12-14 15:45:00","11.5448","3.48578","28.294","3.058571428571429","7.27","2.855","1796.121","0","4.85","30.3902","4.76918","34.03","0","SATNPRO1963","25.31","0.35448","5"],
    [42563,"HCEP03730564","2024-12-14 16:00:00","11.5349","3.48425","28.269","3.158571428571428","7.28","3.015","1578.294","0","2.49","30.3836","4.76839","35.13","0","SATNPRO1963","25.378","0.35548","5"],
    [42564,"HCEP03730564","2024-12-14 16:15:00","11.5252","3.48285","28.188","3.244285714285714","7.29","3.018","1573.548","0","0.94","30.378","4.76774","36.08","0","SATNPRO1963","25.328","0.35478","5"],
    [42565,"HCEP03730564","2024-12-14 16:30:00","11.521","3.4815","28.098","3.32","7.29","2.89","1829.327","0","3.91","30.3685","4.76644","36.93","0","SATNPRO1963","25.288","0.3542","5"],
    [42566,"HCEP03730564","2024-12-14 16:45:00","11.5359","3.48089","27.961","3.25","7.29","2.995","1618.719","0","2.43","30.3504","4.76365","36.14","0","SATNPRO1963","25.136","0.3521","5"],
    [42567,"HCEP03730564","2024-12-14 17:00:00","11.5412","3.48053","27.859","3.094285714285714","7.29","2.996","1614.269","0","0","30.3427","4.76248","34.42","0","SATNPRO1963","25.264","0.35384","5"],
    [42568,"HCEP03730564","2024-12-14 17:15:00","11.5432","3.47982","27.652","3.054285714285714","7.28","2.817","1885.395","0","3.16","30.3342","4.76124","33.97","0","SATNPRO1963","25.116","0.3518","5"],
    [42569,"HCEP03730564","2024-12-14 17:30:00","11.559","3.4812","27.483","2.94","7.28","3.011","1687.517","0","2.3","30.3346","4.76106","32.71","0","SATNPRO1963","24.876","0.34844","5"],
    [42570,"HCEP03730564","2024-12-14 17:45:00","11.5627","3.48181","27.287","2.805714285714286","7.27","3.011","1677.316","0","0.77","30.3377","4.76143","31.22","0","SATNPRO1963","25.142","0.35212","5"],
    [42571,"HCEP03730564","2024-12-14 18:00:00","11.584","3.48464","27.05","2.704285714285714","7.26","2.79","2041.87","0.01","1.8","30.3477","4.76253","30.11","0","SATNPRO1963","24.584","0.34432","5"],
    [42572,"HCEP03730564","2024-12-14 18:15:00","11.5908","3.48412","26.846","2.521428571428571","7.25","2.984","1814.341","0.01","3.87","30.3371","4.76092","28.08","0","SATNPRO1963","24.272","0.33996","5"],
    [42573,"HCEP03730564","2024-12-14 18:30:00","11.6128","3.48687","26.629","2.347142857142857","7.25","2.981","1803.777","0","0.94","30.3458","4.76181","26.14","0","SATNPRO1963","23.846","0.334","5"],
    [42574,"HCEP03730564","2024-12-14 18:45:00","11.6079","3.48441","26.299","2.157142857142857","7.24","2.867","2033.187","0","3.64","30.3262","4.7591","24.03","0","SATNPRO1963","23.658","0.3314","5"],
    [42575,"HCEP03730564","2024-12-14 19:00:00","11.6172","3.48615","26.036","2.115714285714286","7.23","2.97","1894.979","0.01","3.07","30.3355","4.76027","23.57","0","SATNPRO1963","23.684","0.33174","5"],
    [42576,"HCEP03730564","2024-12-14 19:15:00","11.6206","3.48649","25.836","2.038571428571429","7.23","2.968","1885.33","0","1.44","30.336","4.76028","22.71","0","SATNPRO1963","23.506","0.32926","5"],
    [42577,"HCEP03730564","2024-12-14 19:30:00","11.6216","3.48633","25.533","2","7.22","2.872","2118.913","0","2.6","30.3338","4.75994","22.29","0","SATNPRO1963","23.586","0.33034","5"],
    [42578,"HCEP03730564","2024-12-14 19:45:00","11.6193","3.48515","25.284","1.977142857142857","7.21","2.991","1894.598","0","2.82","30.3244","4.75862","22.02","0","SATNPRO1963","23.646","0.33122","5"],
    [42579,"HCEP03730564","2024-12-14 20:00:00","11.6185","3.48408","24.998","1.947142857142857","7.21","2.993","1883.62","0","0","30.3148","4.75727","21.7","0","SATNPRO1963","23.206","0.32504","5"],
    [42580,"HCEP03730564","2024-12-14 20:15:00","11.6178","3.48266","24.758","1.91","7.2","2.88","2113.474","0","1.72","30.3018","4.75543","21.27","0","SATNPRO1963","23.408","0.32786","5"],
    [42581,"HCEP03730564","2024-12-14 20:30:00","11.6127","3.48021","24.516","1.875714285714286","7.2","3.017","1904.161","0","3.52","30.2824","4.75274","20.89","0","SATNPRO1963","23.258","0.32578","5"],
    [42582,"HCEP03730564","2024-12-14 20:45:00","11.6092","3.47793","24.367","1.867142857142857","7.2","3.017","1892.611","0","0","30.2633","4.75008","20.79","0","SATNPRO1963","23.291999999999998","0.32624","5"],
    [42583,"HCEP03730564","2024-12-14 21:00:00","11.6051","3.47583","24.211","1.855714285714286","7.2","2.845","2078.149","0","5.56","30.2464","4.74774","20.66","0","SATNPRO1963","23.214","0.32516","5"],
    [42584,"HCEP03730564","2024-12-14 21:15:00","11.603","3.47461","24.085","1.845714285714286","7.19","2.992","1792.08","0","2.92","30.2364","4.74634","20.54","0","SATNPRO1963","23.09","0.32344","5"],
    [42585,"HCEP03730564","2024-12-14 21:30:00","11.6012","3.4733","23.931","1.825714285714286","7.2","2.993","1783.571","0","0.77","30.2253","4.74479","20.31","0","SATNPRO1963","22.862000000000002","0.32022","5"],
    [42586,"HCEP03730564","2024-12-14 21:45:00","11.5962","3.47114","23.829","1.802857142857143","7.19","2.808","2049.037","0","7.4","30.2086","4.74249","20.06","0","SATNPRO1963","23.018","0.32236","5"],
    [42587,"HCEP03730564","2024-12-14 22:00:00","11.5894","3.46895","23.703","1.802857142857143","7.19","2.987","1682.205","0","2.36","30.193","4.74037","20.05","0","SATNPRO1963","22.944","0.32138","5"],
    [42588,"HCEP03730564","2024-12-14 22:15:00","11.5865","3.46806","23.601","1.82","7.19","2.988","1674.379","0","0","30.1868","4.73953","20.25","0","SATNPRO1963","23.026","0.32254","5"],
    [42589,"HCEP03730564","2024-12-14 22:30:00","11.5858","3.46763","23.673","1.804285714285714","7.19","2.79","2008.948","0","3.3","30.1832","4.73904","20.08","0","SATNPRO1963","22.694","0.3179","5"],
    [42590,"HCEP03730564","2024-12-14 22:45:00","11.5834","3.4672","23.707","1.8","7.19","2.968","1619.129","0","4.7","30.181","4.73876","20.01","0","SATNPRO1963","23.06","0.323","5"],
    [42591,"HCEP03730564","2024-12-14 23:00:00","11.4793","3.42466","23.934","1.965714285714286","7.2","2.968","1611.582","0","0","29.8542","4.69397","21.77","0","SATNPRO1963","23.834","0.33386","5"],
    [42592,"HCEP03730564","2024-12-14 23:15:00","10.9129","3.2721","23.993","2.571428571428572","7.22","2.781","1870.77","0.01","4.51","28.8238","4.55561","28","0","SATNPRO1963","24.532","0.34362","5"],
    [42593,"HCEP03730564","2024-12-14 23:30:00","11.547","3.45924","24.119","2.442857142857143","7.23","2.944","1528.391","0.01","7.99","30.1336","4.7326","27.14","0","SATNPRO1963","23.162","0.32444","5"],
    [42594,"HCEP03730564","2024-12-14 23:45:00","10.9689","3.28236","24.328","3.142857142857143","7.25","2.947","1520.109","0","0.86","28.8796","4.56278","34.23","0","SATNPRO1963","23.988","0.33598","5"],
    [42595,"HCEP03730564","2024-12-15 00:00:00","11.0221","3.30566","24.475","3.447142857142857","7.25","2.671","1888.692","0","2.03","29.0645","4.58837","37.64","0","SATNPRO1963","24.01","0.3363","5"],
    [42596,"HCEP03730564","2024-12-15 00:15:00","11.4288","3.41892","24.73","2.468571428571428","7.24","2.933","1565.36","0","4.97","29.8391","4.69261","27.31","0","SATNPRO1963","22.502","0.3152","5"],
    [42597,"HCEP03730564","2024-12-15 00:30:00","11.4827","3.43434","24.914","1.964285714285714","7.22","2.931","1553.814","0","0","29.9447","4.70682","21.76","0","SATNPRO1963","22.078","0.30922","5"],
    [42598,"HCEP03730564","2024-12-15 00:45:00","11.4752","3.43058","25.11","1.857142857142857","7.2","2.706","1925.225","0","3.3","29.9142","4.70261","20.57","0","SATNPRO1963","22.212","0.31116","5"],
    [42599,"HCEP03730564","2024-12-15 01:00:00","11.4665","3.42888","25.346","1.874285714285714","7.2","2.936","1598.364","0","3.47","29.9048","4.70141","20.76","0","SATNPRO1963","22.274","0.31198","5"],
    [42600,"HCEP03730564","2024-12-15 01:15:00","11.4174","3.4143","25.517","1.937142857142857","7.21","2.936","1589.159","0","0","29.8032","4.68772","21.41","0","SATNPRO1963","22.296","0.3123","5"],
    [42601,"HCEP03730564","2024-12-15 01:30:00","11.0039","3.29666","25.744","2.654285714285714","7.22","2.714","1928.225","0","3.72","28.9908","4.5782","28.97","0","SATNPRO1963","23.592","0.33042","5"],
    [42602,"HCEP03730564","2024-12-15 01:45:00","10.728","3.21367","26.01","4.28","7.27","2.971","1543.398","0","3.41","28.3967","4.49741","46.23","0","SATNPRO1963","24.282","0.34012","5"],
    [42603,"HCEP03730564","2024-12-15 02:00:00","10.3404","3.11826","26.284","5.81","7.34","2.972","1532.723","0","1.33","27.7591","4.41174","61.98","0","SATNPRO1963","24.848","0.34804","5"],
    [42604,"HCEP03730564","2024-12-15 02:15:00","11.303","3.37918","26.629","4.447142857142858","7.32","2.73","1912.664","0","3.34","29.5546","4.65414","48.91","0","SATNPRO1963","22.666","0.31752","5"],
    [42605,"HCEP03730564","2024-12-15 02:30:00","11.3995","3.40962","26.954","2.757142857142857","7.27","2.957","1538.585","0","1.58","29.7719","4.68361","30.46","0","SATNPRO1963","22.204","0.31102","5"],
    [42606,"HCEP03730564","2024-12-15 02:45:00","11.2215","3.35925","27.567","2.442857142857143","7.25","2.954","1534.769","0","0.86","29.426","4.63709","26.85","0","SATNPRO1963","22.918000000000003","0.32102","5"],
    [42607,"HCEP03730564","2024-12-15 03:00:00","11.3432","3.39625","27.769","2.61","7.24","2.749","1962.366","0","8.59","29.6873","4.67247","28.79","0","SATNPRO1963","23.058","0.32298","5"],
    [42608,"HCEP03730564","2024-12-15 03:15:00","11.355","3.40108","27.858","2.457142857142857","7.23","2.978","1658.04","0","4.94","29.7246","4.6776","27.12","0","SATNPRO1963","22.996","0.3221","5"],
    [42609,"HCEP03730564","2024-12-15 03:30:00","11.3128","3.39782","28.018","2.465714285714286","7.23","2.979","1649.847","0","1.53","29.7269","4.67855","27.2","0","SATNPRO1963","23.566","0.33008","5"],
    [42610,"HCEP03730564","2024-12-15 03:45:00","11.2988","3.38941","28.139","2.618571428571429","7.23","2.771","1996.397","0","3.68","29.6564","4.66875","28.86","0","SATNPRO1963","23.228","0.32532","5"],
    [42611,"HCEP03730564","2024-12-15 04:00:00","11.3009","3.38297","28.082","2.634285714285714","7.23","2.969","1716.387","0","1.96","29.5923","4.65961","29.01","0","SATNPRO1963","23.182","0.32474","5"],
    [42612,"HCEP03730564","2024-12-15 04:15:00","11.3266","3.39392","28.244","2.595714285714286","7.23","2.968","1709.042","0","0","29.6778","4.67139","28.62","0","SATNPRO1963","23.241999999999997","0.32554","5"],
    [42613,"HCEP03730564","2024-12-15 04:30:00","11.3134","3.39081","27.989","2.611428571428572","7.23","2.79","2013.758","0","1.88","29.6584","4.66881","28.78","0","SATNPRO1963","23.262","0.32582","5"],
    [42614,"HCEP03730564","2024-12-15 04:45:00","11.2901","3.38694","27.967","2.702857142857143","7.24","2.985","1680.095","0","4.06","29.6396","4.66648","29.77","0","SATNPRO1963","23.412","0.32792","5"],
    [42615,"HCEP03730564","2024-12-15 05:00:00","11.2516","3.3781","27.992","2.855714285714286","7.24","2.984","1670.406","0","0.54","29.5847","4.65924","31.42","0","SATNPRO1963","24.062","0.33704","5"],
    [42616,"HCEP03730564","2024-12-15 05:15:00","11.1708","3.35793","28.024","3.1","7.24","2.773","1964.562","0","2.54","29.4534","4.64176","34.03","0","SATNPRO1963","24.362","0.34126","5"],
    [42617,"HCEP03730564","2024-12-15 05:30:00","11.1558","3.3538","28.03","3.478571428571429","7.25","2.962","1603.594","0.01","8.51","29.4253","4.63799","38.16","0","SATNPRO1963","24.726","0.34636","5"],
    [42618,"HCEP03730564","2024-12-15 05:45:00","11.1851","3.36385","28.077","3.564285714285714","7.26","2.96","1594.564","0","0.54","29.4995","4.64811","39.13","0","SATNPRO1963","24.59","0.3444","5"],
    [42619,"HCEP03730564","2024-12-15 06:00:00","11.1742","3.3635","28.07","3.557142857142857","7.27","2.756","1856.586","0","5.37","29.5048","4.64903","39.06","0","SATNPRO1963","24.740000000000002","0.3465","5"],
    [42620,"HCEP03730564","2024-12-15 06:15:00","11.1804","3.37588","28.059","3.608571428571428","7.27","2.971","1548.744","0.01","3.43","29.6202","4.66533","39.65","0","SATNPRO1963","24.742","0.34658","5"],
    [42621,"HCEP03730564","2024-12-15 06:30:00","11.153","3.37131","28.072","3.697142857142858","7.28","2.968","1536.662","0","0.38","29.5979","4.66257","40.6","0","SATNPRO1963","24.924","0.34912","5"],
    [42622,"HCEP03730564","2024-12-15 06:45:00","11.1486","3.37166","28.042","3.768571428571429","7.29","2.846","1760.032","0","3.56","29.6047","4.66361","41.38","0","SATNPRO1963","25.06","0.35098","5"],
    [42623,"HCEP03730564","2024-12-15 07:00:00","11.1782","3.38127","27.982","3.791428571428571","7.29","3.011","1533.542","0","2.27","29.6745","4.67308","41.67","0","SATNPRO1963","25.14","0.35216","5"],
    [42624,"HCEP03730564","2024-12-15 07:15:00","11.246","3.39756","27.951","3.627142857142857","7.29","3.011","1522.16","0","0","29.7781","4.6868","39.95","0","SATNPRO1963","25.246","0.3536","5"],
    [42625,"HCEP03730564","2024-12-15 07:30:00","11.2591","3.40398","27.915","3.712857142857143","7.29","2.875","1706.285","0.01","3.25","29.83","4.69396","40.93","0","SATNPRO1963","25.258","0.3538","5"],
    [42626,"HCEP03730564","2024-12-15 07:45:00","11.2781","3.41001","27.864","3.717142857142857","7.29","3.004","1557.986","0","4.37","29.8733","4.69982","41","0","SATNPRO1963","25.132","0.35202","5"],
    [42627,"HCEP03730564","2024-12-15 08:00:00","11.2916","3.41412","27.793","3.688571428571429","7.3","3.005","1546.755","0","1.08","29.9022","4.70373","40.7","0","SATNPRO1963","25.412","0.3559","5"],
    [42628,"HCEP03730564","2024-12-15 08:15:00","11.2945","3.41648","27.714","3.692857142857143","7.29","2.845","1705.13","0","3.02","29.9228","4.70661","40.76","0","SATNPRO1963","25.4","0.3558","5"],
    [42629,"HCEP03730564","2024-12-15 08:30:00","11.2848","3.41784","27.634","3.742857142857143","7.29","3.02","1571.618","0","3.43","29.944","4.70975","41.3","0","SATNPRO1963","25.49","0.35702","5"],
    [42630,"HCEP03730564","2024-12-15 08:45:00","11.2792","3.41857","27.56","3.831428571428571","7.3","3.022","1561.488","0","0","29.9556","4.71147","42.27","0","SATNPRO1963","25.604","0.35864","5"],
    [42631,"HCEP03730564","2024-12-15 09:00:00","11.2645","3.41615","27.497","3.904285714285714","7.3","2.834","1887.835","0","2.82","29.944","4.71005","43.07","0","SATNPRO1963","25.586","0.3584","5"],
    [42632,"HCEP03730564","2024-12-15 09:15:00","11.2483","3.41789","27.44","4.025714285714286","7.3","3.017","1659.472","0","5.12","29.9742","4.71456","44.41","0","SATNPRO1963","25.764","0.36088","5"],
    [42633,"HCEP03730564","2024-12-15 09:30:00","11.2088","3.41834","27.369","4.3","7.32","3.019","1648.921","0","1.08","30.0107","4.72032","47.4","0","SATNPRO1963","25.982","0.36394","5"],
    [42634,"HCEP03730564","2024-12-15 09:45:00","11.1969","3.42583","27.291","4.464285714285714","7.33","2.894","1835.771","0","5.23","30.0933","4.73222","49.22","0","SATNPRO1963","25.826","0.36172","5"],
    [42635,"HCEP03730564","2024-12-15 10:00:00","11.1936","3.43086","27.208","4.558571428571429","7.34","3.043","1661.403","0","2.77","30.145","4.73959","50.27","0","SATNPRO1963","25.942","0.3633","5"],
    [42636,"HCEP03730564","2024-12-15 10:15:00","11.2003","3.43493","27.155","4.574285714285715","7.35","3.045","1650.186","0","1.44","30.1793","4.74434","50.46","0","SATNPRO1963","26.032","0.36462","5"],
    [42637,"HCEP03730564","2024-12-15 10:30:00","11.2677","3.44956","27.11","4.39","7.34","2.907","1885.886","0","3.25","30.2665","4.75569","48.53","0","SATNPRO1963","25.978","0.36388","5"],
    [42638,"HCEP03730564","2024-12-15 10:45:00","11.275","3.45115","27.076","4.278571428571428","7.34","3.04","1767.176","0","3.76","30.276","4.75692","47.3","0","SATNPRO1963","26.052","0.36492","5"],
    [42639,"HCEP03730564","2024-12-15 11:00:00","11.2683","3.45254","27.049","4.281428571428571","7.34","3.04","1755.001","0","0","30.295","4.75972","47.34","0","SATNPRO1963","26.014","0.36436","5"],
    [42640,"HCEP03730564","2024-12-15 11:15:00","11.2403","3.452","27.04","4.394285714285714","7.34","2.91","1954.249","0","2.77","30.3127","4.76265","48.56","0","SATNPRO1963","26.150000000000002","0.36628","5"],
    [42641,"HCEP03730564","2024-12-15 11:30:00","11.2097","3.4509","27.084","4.557142857142857","7.35","3.03","1685.7","0","2.36","30.3272","4.76516","50.34","0","SATNPRO1963","26.104","0.36564","5"],
    [42642,"HCEP03730564","2024-12-15 11:45:00","11.2111","3.45108","27.121","4.594285714285714","7.36","3.031","1676.425","0","0.94","30.3278","4.76523","50.74","0","SATNPRO1963","26.124","0.36594","5"],
    [42643,"HCEP03730564","2024-12-15 12:00:00","11.2092","3.45116","27.146","4.63","7.35","2.874","1876.184","0","2.66","30.3301","4.76558","51.14","0","SATNPRO1963","26.334","0.36882","5"],
    [42644,"HCEP03730564","2024-12-15 12:15:00","11.2","3.45193","27.211","4.61","7.35","2.986","1694.035","0.01","3.68","30.3452","4.76786","50.91","0","SATNPRO1963","26.27","0.36798","5"],
    [42645,"HCEP03730564","2024-12-15 12:30:00","11.2113","3.45627","27.272","4.647142857142858","7.36","2.979","1680.614","0","0","30.3781","4.77236","51.34","0","SATNPRO1963","26.138","0.36606","5"],
    [42646,"HCEP03730564","2024-12-15 12:45:00","11.2118","3.45735","27.346","4.652857142857143","7.36","2.888","1796.011","0.01","3.02","30.3883","4.77379","51.41","0","SATNPRO1963","26.182","0.36672","5"],
    [42647,"HCEP03730564","2024-12-15 13:00:00","11.2128","3.45758","27.407","4.648571428571429","7.36","3.013","1695.616","0","3.07","30.3897","4.77398","51.36","0","SATNPRO1963","26.344","0.369","5"],
    [42648,"HCEP03730564","2024-12-15 13:15:00","11.2173","3.45821","27.462","4.632857142857143","7.37","3.014","1681.832","0","1.21","30.3921","4.77425","51.19","0","SATNPRO1963","26.364","0.36926","5"],
    [42649,"HCEP03730564","2024-12-15 13:30:00","11.2187","3.45847","27.555","4.607142857142858","7.36","2.833","1895.456","0","2.97","30.3935","4.77443","50.91","0","SATNPRO1963","26.114","0.36576","5"],
    [42650,"HCEP03730564","2024-12-15 13:45:00","11.2241","3.45889","27.608","4.595714285714286","7.37","2.996","1637.712","0","3.02","30.3931","4.7743","50.79","0","SATNPRO1963","26.186","0.36676","5"],
    [42651,"HCEP03730564","2024-12-15 14:00:00","11.2259","3.45812","27.686","4.562857142857143","7.37","2.996","1625.652","0","0.77","30.384","4.77299","50.43","0","SATNPRO1963","26.31","0.36852","5"],
    [42652,"HCEP03730564","2024-12-15 14:15:00","11.2326","3.45891","27.772","4.537142857142857","7.37","2.844","1818.671","0","4.27","30.3862","4.77321","50.16","0","SATNPRO1963","26.006","0.36428","5"],
    [42653,"HCEP03730564","2024-12-15 14:30:00","11.2344","3.459","27.861","4.512857142857142","7.37","2.983","1616.45","0.01","2.49","30.3856","4.77309","49.88","0","SATNPRO1963","26.338","0.36888","5"],
    [42654,"HCEP03730564","2024-12-15 14:45:00","11.2312","3.45853","27.942","4.514285714285714","7.37","2.981","1605.029","0","0","30.3836","4.77286","49.89","0","SATNPRO1963","26.162","0.36642","5"],
    [42655,"HCEP03730564","2024-12-15 15:00:00","11.2284","3.45871","28.01","4.521428571428571","7.37","2.777","1842.688","0","9.82","30.3876","4.77349","49.98","0","SATNPRO1963","26.436","0.3703","5"],
    [42656,"HCEP03730564","2024-12-15 15:15:00","11.2274","3.4593","28.079","4.537142857142857","7.37","2.961","1551.214","0","3.21","30.3941","4.77442","50.16","0","SATNPRO1963","26.24","0.36754","5"],
    [42657,"HCEP03730564","2024-12-15 15:30:00","11.2282","3.45961","28.099","4.547142857142857","7.37","2.961","1539.801","0","0","30.3965","4.77475","50.27","0","SATNPRO1963","26.226","0.36736","5"],
    [42658,"HCEP03730564","2024-12-15 15:45:00","11.23","3.46006","28.12","4.552857142857142","7.37","2.773","1826.805","0","4.91","30.3994","4.77513","50.32","0","SATNPRO1963","26.172","0.36656","5"],
    [42659,"HCEP03730564","2024-12-15 16:00:00","11.2305","3.45979","28.116","4.548571428571429","7.36","2.979","1601.6","0","2.87","30.3963","4.77469","50.28","0","SATNPRO1963","26.264","0.3679","5"],
    [42660,"HCEP03730564","2024-12-15 16:15:00","11.2273","3.4589","28.066","4.534285714285715","7.37","2.979","1593.006","0","0","30.3903","4.77389","50.12","0","SATNPRO1963","26.29","0.36822","5"],
    [42661,"HCEP03730564","2024-12-15 16:30:00","11.2274","3.45906","27.997","4.524285714285714","7.37","2.788","1869.901","0","3.02","30.3918","4.77409","50.01","0","SATNPRO1963","26.09","0.36542","5"],
    [42662,"HCEP03730564","2024-12-15 16:45:00","11.225","3.45879","27.902","4.514285714285714","7.37","2.99","1576.846","0","3.47","30.3912","4.77403","49.89","0","SATNPRO1963","25.982","0.36398","5"],
    [42663,"HCEP03730564","2024-12-15 17:00:00","11.2232","3.45813","27.775","4.541428571428571","7.37","2.992","1569.112","0","1.72","30.3863","4.77337","50.19","0","SATNPRO1963","26.138","0.3661","5"],
    [42664,"HCEP03730564","2024-12-15 17:15:00","11.2234","3.45784","27.674","4.555714285714286","7.36","2.78","1851.263","0","4.51","30.3834","4.77294","50.34","0","SATNPRO1963","26.04","0.36472","5"],
    [42665,"HCEP03730564","2024-12-15 17:30:00","11.2212","3.45776","27.505","4.558571428571429","7.36","2.977","1620.27","0","7.4","30.3845","4.77313","50.38","0","SATNPRO1963","26.098","0.36556","5"],
    [42666,"HCEP03730564","2024-12-15 17:45:00","11.2234","3.45824","27.299","4.55","7.37","2.977","1611.393","0","0","30.3874","4.77349","50.29","0","SATNPRO1963","26.035999999999998","0.36468","5"],
    [42667,"HCEP03730564","2024-12-15 18:00:00","11.2243","3.45828","27.092","4.53","7.36","2.777","1814.176","0","7.56","30.3872","4.77343","50.07","0","SATNPRO1963","25.834","0.36188","5"],
    [42668,"HCEP03730564","2024-12-15 18:15:00","11.2236","3.45797","26.896","4.508571428571429","7.37","2.967","1543.808","0","2.57","30.3848","4.7731","49.82","0","SATNPRO1963","25.93","0.36314","5"],
    [42669,"HCEP03730564","2024-12-15 18:30:00","11.2241","3.45753","26.654","4.511428571428572","7.38","2.966","1537.001","0","0.94","30.3802","4.77242","49.86","0","SATNPRO1963","25.823999999999998","0.3617","5"],
    [42670,"HCEP03730564","2024-12-15 18:45:00","11.227","3.45857","26.388","4.515714285714286","7.37","2.722","1926.429","0","4.44","30.388","4.77347","49.91","0","SATNPRO1963","26.052","0.3649","5"],
    [42671,"HCEP03730564","2024-12-15 19:00:00","11.2351","3.46047","26.125","4.494285714285715","7.38","2.958","1638.078","0","2.82","30.4","4.77503","49.69","0","SATNPRO1963","25.884","0.36256","5"],
    [42672,"HCEP03730564","2024-12-15 19:15:00","11.2375","3.46079","25.839","4.484285714285714","7.38","2.956","1627.461","0","0.77","30.4012","4.77515","49.58","0","SATNPRO1963","25.990000000000002","0.364","5"],
    [42673,"HCEP03730564","2024-12-15 19:30:00","11.2335","3.45962","25.587","4.497142857142857","7.38","2.801","1906.377","0","3.91","30.3933","4.77407","49.72","0","SATNPRO1963","25.956","0.36356","5"],
    [42674,"HCEP03730564","2024-12-15 19:45:00","11.232","3.45925","25.321","4.51","7.38","2.976","1560.977","0","3.02","30.391","4.77375","49.86","0","SATNPRO1963","25.966","0.36368","5"],
    [42675,"HCEP03730564","2024-12-15 20:00:00","11.2288","3.45822","25.068","4.517142857142857","7.38","2.975","1552.648","0","0","30.3836","4.77275","49.93","0","SATNPRO1963","25.984","0.36394","5"],
    [42676,"HCEP03730564","2024-12-15 20:15:00","11.2204","3.45569","24.79","4.535714285714286","7.38","2.697","1981.608","0","3.56","30.3661","4.77037","50.12","0","SATNPRO1963","25.998","0.36418","5"],
    [42677,"HCEP03730564","2024-12-15 20:30:00","11.2244","3.45447","24.516","4.54","7.38","2.968","1604.569","0","4.7","30.3509","4.76815","50.17","0","SATNPRO1963","26.168","0.36654","5"],
    [42678,"HCEP03730564","2024-12-15 20:45:00","11.2293","3.45419","24.284","4.492857142857143","7.38","2.969","1596.946","0","0","30.3443","4.76712","49.65","0","SATNPRO1963","25.91","0.36288","5"],
    [42679,"HCEP03730564","2024-12-15 21:00:00","11.2312","3.45374","24.059","4.464285714285714","7.38","2.746","1975.635","0","2.87","30.3384","4.76625","49.33","0","SATNPRO1963","26.084","0.36536","5"],
    [42680,"HCEP03730564","2024-12-15 21:15:00","11.2318","3.45301","23.843","4.442857142857143","7.38","2.961","1669.831","0.01","2.82","30.3309","4.76517","49.09","0","SATNPRO1963","25.907999999999998","0.36294","5"],
    [42681,"HCEP03730564","2024-12-15 21:30:00","11.2328","3.45226","23.728","4.42","7.38","2.959","1659.822","0","0.54","30.3228","4.764","48.83","0","SATNPRO1963","25.896","0.36268","5"],
    [42682,"HCEP03730564","2024-12-15 21:45:00","11.2363","3.45118","23.601","4.391428571428572","7.38","2.746","1961.839","0","3.43","30.3095","4.76206","48.52","0","SATNPRO1963","25.752","0.36068","5"],
    [42683,"HCEP03730564","2024-12-15 22:00:00","11.2366","3.44915","23.594","4.365714285714286","7.37","2.963","1670.002","0.01","8.05","30.2895","4.75921","48.23","0","SATNPRO1963","25.988","0.36402","5"],
    [42684,"HCEP03730564","2024-12-15 22:15:00","11.2365","3.44805","23.578","4.352857142857143","7.38","2.962","1663.469","0","0","30.2788","4.7577","48.08","0","SATNPRO1963","25.994","0.36412","5"],
    [42685,"HCEP03730564","2024-12-15 22:30:00","11.2367","3.44743","23.563","4.345714285714285","7.37","2.769","1894.666","0","6.42","30.2726","4.75682","48","0","SATNPRO1963","26.1","0.3656","5"],
    [42686,"HCEP03730564","2024-12-15 22:45:00","11.2363","3.44708","23.594","4.345714285714285","7.37","2.963","1735.242","0","4.06","30.2696","4.7564","48","0","SATNPRO1963","25.91","0.36292","5"],
    [42687,"HCEP03730564","2024-12-15 23:00:00","11.2366","3.44693","23.646","4.345714285714285","7.37","2.965","1723.612","0","0.94","30.2678","4.75614","48.01","0","SATNPRO1963","25.87","0.36232","5"],
    [42688,"HCEP03730564","2024-12-15 23:15:00","11.2366","3.44685","23.701","4.337142857142857","7.36","2.813","2043.284","0","6.88","30.2669","4.75603","47.91","0","SATNPRO1963","25.774","0.361","5"],
    [42689,"HCEP03730564","2024-12-15 23:30:00","11.2373","3.44659","23.761","4.327142857142857","7.37","2.994","1796.35","0.01","2.92","30.2639","4.75558","47.81","0","SATNPRO1963","25.874","0.3624","5"],
    [42690,"HCEP03730564","2024-12-15 23:45:00","11.2381","3.44628","23.865","4.318571428571428","7.37","2.992","1788.307","0","0","30.2601","4.75505","47.71","0","SATNPRO1963","25.722","0.3603","5"],
    [42691,"HCEP03730564","2024-12-16 00:00:00","11.2389","3.4461","24.038","4.301428571428572","7.36","2.88","2072.737","0","6.11","30.2577","4.7547","47.52","0","SATNPRO1963","25.81","0.36152","5"],
    [42692,"HCEP03730564","2024-12-16 00:15:00","11.2393","3.44577","24.22","4.292857142857143","7.36","2.997","1926.286","0","5.51","30.2541","4.75419","47.42","0","SATNPRO1963","25.701999999999998","0.36","5"],
    [42693,"HCEP03730564","2024-12-16 00:30:00","11.2408","3.44427","24.415","4.258571428571429","7.37","2.998","1911.8","0","0.77","30.2382","4.75193","47.04","0","SATNPRO1963","25.796","0.3613","5"],
    [42694,"HCEP03730564","2024-12-16 00:45:00","11.2431","3.4399","24.603","4.211428571428572","7.36","2.938","2007.076","0","2.87","30.1936","4.74559","46.5","0","SATNPRO1963","25.474","0.3568","5"],
    [42695,"HCEP03730564","2024-12-16 01:00:00","11.2436","3.43258","24.728","4.109999999999999","7.35","3","1823.473","0","3.56","30.1219","4.73543","45.37","0","SATNPRO1963","25.604","0.35862","5"],
    [42696,"HCEP03730564","2024-12-16 01:15:00","11.2432","3.42918","24.878","4.068571428571428","7.35","3.003","1809.58","0","0","30.0891","4.73078","44.91","0","SATNPRO1963","25.384","0.35554","5"],
    [42697,"HCEP03730564","2024-12-16 01:30:00","11.2471","3.4266","25.077","4.028571428571428","7.34","2.893","1998.245","0","2.43","30.0607","4.72672","44.46","0","SATNPRO1963","25.77","0.36094","5"],
    [42698,"HCEP03730564","2024-12-16 01:45:00","11.2543","3.42438","25.277","3.972857142857143","7.34","2.993","1845.306","0","3.02","30.0332","4.72272","43.83","0","SATNPRO1963","25.268","0.35392","5"],
    [42699,"HCEP03730564","2024-12-16 02:00:00","11.2672","3.4243","25.527","3.822857142857143","7.34","2.995","1833.472","0","0.54","30.0219","4.72094","42.2","0","SATNPRO1963","24.983999999999998","0.34998","5"],
    [42700,"HCEP03730564","2024-12-16 02:15:00","11.2748","3.42401","25.838","3.725714285714286","7.33","2.876","2059.134","0","4.34","30.0127","4.71954","41.12","0","SATNPRO1963","24.838","0.34786","5"],
    [42701,"HCEP03730564","2024-12-16 02:30:00","11.2708","3.42567","26.132","3.71","7.32","3.023","1835.999","0","9.78","30.0319","4.72234","40.95","0","SATNPRO1963","25.048000000000002","0.35084","5"],
    [42702,"HCEP03730564","2024-12-16 02:45:00","11.2684","3.42778","26.401","3.722857142857143","7.32","3.025","1822.693","0","1.08","30.0543","4.72557","41.09","0","SATNPRO1963","25.12","0.35188","5"],
    [42703,"HCEP03730564","2024-12-16 03:00:00","11.2669","3.42901","26.644","3.771428571428572","7.32","2.916","2047.207","0","2.97","30.0674","4.72746","41.64","0","SATNPRO1963","24.907999999999998","0.3489","5"],
    [42704,"HCEP03730564","2024-12-16 03:15:00","11.2664","3.42879","26.877","3.788571428571429","7.32","3.032","1868.767","0","3.87","30.0656","4.72723","41.82","0","SATNPRO1963","25.236","0.35346","5"],
    [42705,"HCEP03730564","2024-12-16 03:30:00","11.2679","3.42811","27.089","3.782857142857143","7.32","3.035","1855.545","0","0","30.0577","4.72609","41.76","0","SATNPRO1963","25.184","0.35278","5"],
    [42706,"HCEP03730564","2024-12-16 03:45:00","11.2672","3.42834","27.334","3.774285714285714","7.31","2.929","2054.697","0","5.66","30.0604","4.72651","41.67","0","SATNPRO1963","25.294","0.35428","5"],
    [42707,"HCEP03730564","2024-12-16 04:00:00","11.2652","3.42927","27.551","3.792857142857143","7.31","3.014","1862.37","0","2.82","30.071","4.72805","41.87","0","SATNPRO1963","25.248","0.3537","5"],
    [42708,"HCEP03730564","2024-12-16 04:15:00","11.2579","3.42835","27.821","3.812857142857143","7.32","3.015","1852.577","0","1.33","30.0679","4.72772","42.09","0","SATNPRO1963","25.462","0.35666","5"],
    [42709,"HCEP03730564","2024-12-16 04:30:00","11.2463","3.42627","28.006","3.86","7.32","2.904","2014.55","0","5.2","30.057","4.72637","42.59","0","SATNPRO1963","25.278","0.35406","5"],
    [42710,"HCEP03730564","2024-12-16 04:45:00","11.2205","3.41971","28.174","3.891428571428572","7.32","2.997","1808.467","0","4.54","30.0142","4.72068","42.9","0","SATNPRO1963","25.084","0.3513","5"],
    [42711,"HCEP03730564","2024-12-16 05:00:00","11.1917","3.41413","28.343","3.934285714285714","7.32","2.999","1797.29","0","0.77","29.9832","4.71673","43.34","0","SATNPRO1963","25.062","0.35106","5"],
    [42712,"HCEP03730564","2024-12-16 05:15:00","11.1902","3.41418","28.363","4.011428571428572","7.32","2.871","2006.487","0","4.41","29.9848","4.71699","44.19","0","SATNPRO1963","25.264","0.35388","5"],
    [42713,"HCEP03730564","2024-12-16 05:30:00","11.2076","3.41993","28.406","4.015714285714286","7.32","2.941","1781.622","0","2.92","30.0267","4.72266","44.26","0","SATNPRO1963","25.27","0.35396","5"],
    [42714,"HCEP03730564","2024-12-16 05:45:00","11.2254","3.42538","28.462","3.991428571428572","7.32","2.939","1769.285","0","0","30.0653","4.72787","44.03","0","SATNPRO1963","25.318","0.35464","5"],
    [42715,"HCEP03730564","2024-12-16 06:00:00","11.2333","3.42785","28.465","3.974285714285714","7.32","2.8","1978.418","0","3.84","30.0828","4.73025","43.84","0","SATNPRO1963","25.42","0.35608","5"],
    [42716,"HCEP03730564","2024-12-16 06:15:00","11.2424","3.43052","28.49","3.964285714285714","7.32","2.961","1714.196","0","5.58","30.1014","4.73275","43.76","0","SATNPRO1963","25.322","0.35466","5"],
    [42717,"HCEP03730564","2024-12-16 06:30:00","11.2408","3.43041","28.395","3.972857142857143","7.32","2.962","1703.466","0","0","30.1016","4.73279","43.84","0","SATNPRO1963","25.414","0.35594","5"],
    [42718,"HCEP03730564","2024-12-16 06:45:00","11.2335","3.42232","28.271","3.964285714285714","7.32","2.81","1930.407","0","3.39","30.029","4.7226","43.72","0","SATNPRO1963","25.614","0.35874","5"],
    [42719,"HCEP03730564","2024-12-16 07:00:00","11.2121","3.40621","28.212","3.935714285714286","7.32","2.97","1673.804","0.01","5.26","29.8896","4.70314","43.35","0","SATNPRO1963","25.356","0.35514","5"],
    [42720,"HCEP03730564","2024-12-16 07:15:00","11.2636","3.41077","28.209","3.781428571428571","7.31","2.971","1663.025","0","1.44","29.8922","4.70274","41.69","0","SATNPRO1963","24.94","0.34932","5"],
    [42721,"HCEP03730564","2024-12-16 07:30:00","11.2164","3.40938","28.127","3.66","7.31","2.78","1937.631","0","8.12","29.917","4.70695","40.33","0","SATNPRO1963","25.238","0.3535","5"],
    [42722,"HCEP03730564","2024-12-16 07:45:00","11.1673","3.40639","28.149","3.934285714285714","7.31","2.94","1638.752","0","3.64","29.9277","4.70921","43.3","0","SATNPRO1963","25.82","0.36166","5"],
    [42723,"HCEP03730564","2024-12-16 08:00:00","11.173400000000001","3.40703","28.058","4.212857142857143","7.32","2.942","1631.288","0","1.08","29.9291","4.70932","46.37","0","SATNPRO1963","25.782","0.36112","5"],
    [42724,"HCEP03730564","2024-12-16 08:15:00","11.1784","3.40953","27.998","4.241428571428571","7.33","2.728","1905.326","0","4.27","29.9493","4.7121","46.7","0","SATNPRO1963","25.892","0.36264","5"],
    [42725,"HCEP03730564","2024-12-16 08:30:00","11.1794","3.41246","27.918","4.281428571428571","7.33","2.946","1575.47","0","3.87","29.9771","4.71603","47.16","0","SATNPRO1963","25.926","0.36316","5"],
    [42726,"HCEP03730564","2024-12-16 08:45:00","11.1863","3.41564","27.887","4.355714285714286","7.34","2.946","1564.17","0","0","30.0024","4.71951","47.99","0","SATNPRO1963","25.964000000000002","0.36366","5"],
    [42727,"HCEP03730564","2024-12-16 09:00:00","11.1987","3.41989","27.776","4.434285714285714","7.35","2.819","1873.378","0.01","6.69","30.0338","4.72377","48.88","0","SATNPRO1963","26.004","0.3642","5"],
    [42728,"HCEP03730564","2024-12-16 09:15:00","11.2102","3.42345","27.67","4.474285714285714","7.35","2.954","1631.977","0","3.6","30.0591","4.72719","49.33","0","SATNPRO1963","26.098","0.36554","5"],
    [42729,"HCEP03730564","2024-12-16 09:30:00","11.2101","3.4236","27.618","4.515714285714286","7.36","2.954","1622.256","0","0","30.0607","4.72741","49.79","0","SATNPRO1963","26.426000000000002","0.37016","5"],
    [42730,"HCEP03730564","2024-12-16 09:45:00","11.2143","3.42573","27.528","4.54","7.36","2.788","1881.546","0","2.1","30.0781","4.7298","50.06","0","SATNPRO1963","26.216","0.36718","5"],
    [42731,"HCEP03730564","2024-12-16 10:00:00","11.221","3.42719","27.472","4.502857142857144","7.36","2.96","1715.696","0.01","3.43","30.0868","4.73094","49.67","0","SATNPRO1963","26.204","0.36702","5"],
    [42732,"HCEP03730564","2024-12-16 10:15:00","11.2313","3.42951","27.382","4.407142857142858","7.36","2.96","1702.464","0","0","30.1011","4.73281","48.63","0","SATNPRO1963","26.178","0.36668","5"],
    [42733,"HCEP03730564","2024-12-16 10:30:00","11.2313","3.42971","27.311","4.362857142857143","7.35","2.804","1923.575","0","3.47","30.103","4.73308","48.14","0","SATNPRO1963","26.162","0.36642","5"],
    [42734,"HCEP03730564","2024-12-16 10:45:00","11.2295","3.42901","27.229","4.364285714285715","7.35","2.975","1704.711","0","2.97","30.0978","4.73235","48.15","0","SATNPRO1963","26.022000000000002","0.36442","5"],
    [42735,"HCEP03730564","2024-12-16 11:00:00","11.2286","3.42859","27.178","4.358571428571428","7.36","2.976","1694.57","0","0","30.0943","4.73188","48.09","0","SATNPRO1963","26.05","0.36488","5"],
    [42736,"HCEP03730564","2024-12-16 11:15:00","11.2238","3.42709","27.135","4.37","7.35","2.827","1888.09","0","3.76","30.0837","4.73044","48.2","0","SATNPRO1963","26.154","0.3663","5"],
    [42737,"HCEP03730564","2024-12-16 11:30:00","11.2257","3.42739","27.102","4.354285714285714","7.35","2.982","1714.388","0","2.24","30.0851","4.7306","48.03","0","SATNPRO1963","25.834","0.36186","5"],
    [42738,"HCEP03730564","2024-12-16 11:45:00","11.2245","3.42716","27.088","4.31","7.35","2.983","1704.545","0","0.54","30.0838","4.73044","47.54","0","SATNPRO1963","26.012","0.36434","5"],
    [42739,"HCEP03730564","2024-12-16 12:00:00","11.2291","3.42854","27.095","4.297142857142857","7.34","2.805","1875.603","0","5.45","30.0935","4.73174","47.41","0","SATNPRO1963","25.802","0.3614","5"],
    [42740,"HCEP03730564","2024-12-16 12:15:00","11.2391","3.43226","27.125","4.25","7.35","2.968","1673.505","0","2.49","30.1216","4.73558","46.91","0","SATNPRO1963","25.872","0.3624","5"],
    [42741,"HCEP03730564","2024-12-16 12:30:00","11.2425","3.43437","27.157","4.21","7.35","2.969","1663.764","0","0","30.1393","4.73804","46.48","0","SATNPRO1963","25.900000000000002","0.36276","5"],
    [42742,"HCEP03730564","2024-12-16 12:45:00","11.2448","3.43543","27.2","4.192857142857143","7.34","2.823","1871.369","0","3.64","30.1478","4.73921","46.28","0","SATNPRO1963","25.994","0.36408","5"],
    [42743,"HCEP03730564","2024-12-16 13:00:00","11.2448","3.43594","27.258","4.211428571428572","7.34","2.968","1662.17","0","3.02","30.1526","4.7399","46.49","0","SATNPRO1963","25.736","0.36046","5"],
    [42744,"HCEP03730564","2024-12-16 13:15:00","11.2451","3.43623","27.314","4.205714285714286","7.35","2.969","1651.937","0","1.21","30.1552","4.74027","46.44","0","SATNPRO1963","26.004","0.36424","5"],
    [42745,"HCEP03730564","2024-12-16 13:30:00","11.2456","3.43645","27.374","4.211428571428572","7.34","2.84","1833.052","0.01","2.87","30.1569","4.74051","46.5","0","SATNPRO1963","25.674","0.35962","5"],
    [42746,"HCEP03730564","2024-12-16 13:45:00","11.2462","3.43656","27.43","4.194285714285714","7.34","2.965","1696.125","0","3.68","30.1574","4.74057","46.31","0","SATNPRO1963","25.706","0.36002","5"],
    [42747,"HCEP03730564","2024-12-16 14:00:00","11.2365","3.43763","27.497","4.137142857142857","7.34","2.965","1685.283","0","0.54","30.1758","4.74333","45.68","0","SATNPRO1963","25.76","0.36084","5"],
    [42748,"HCEP03730564","2024-12-16 14:15:00","11.2399","3.44104","27.578","4.115714285714286","7.34","2.78","1916.595","0","2.82","30.2062","4.74759","45.45","0","SATNPRO1963","25.766","0.36094","5"],
    [42749,"HCEP03730564","2024-12-16 14:30:00","11.2444","3.44463","27.655","4.137142857142857","7.34","2.964","1719.126","0.01","3.56","30.2374","4.75194","45.69","0","SATNPRO1963","25.664","0.35944","5"],
    [42750,"HCEP03730564","2024-12-16 14:45:00","11.245","3.44525","27.725","4.17","7.34","2.964","1705.939","0","0","30.2429","4.75273","46.07","0","SATNPRO1963","25.746000000000002","0.36062","5"],
    [42751,"HCEP03730564","2024-12-16 15:00:00","11.2473","3.44587","27.785","4.165714285714286","7.34","2.795","1944.887","0","3.16","30.2471","4.75328","46.02","0","SATNPRO1963","25.616","0.35882","5"],
    [42752,"HCEP03730564","2024-12-16 15:15:00","11.2511","3.44687","27.843","4.161428571428571","7.34","2.959","1734.44","0","3.52","30.2537","4.75416","45.98","0","SATNPRO1963","25.592","0.35844","5"],
    [42753,"HCEP03730564","2024-12-16 15:30:00","11.2599","3.44852","27.898","4.148571428571429","7.34","2.96","1726.975","0","1.08","30.2625","4.75528","45.85","0","SATNPRO1963","25.818","0.36164","5"],
    [42754,"HCEP03730564","2024-12-16 15:45:00","11.2721","3.45156","27.956","4.151428571428572","7.34","2.819","1960.496","0","4.6","30.282","4.75787","45.89","0","SATNPRO1963","25.814","0.36156","5"],
    [42755,"HCEP03730564","2024-12-16 16:00:00","11.2762","3.45289","28","4.180000000000001","7.34","2.96","1691.885","0","2.97","30.2916","4.75917","46.23","0","SATNPRO1963","26.044","0.3648","5"],
    [42756,"HCEP03730564","2024-12-16 16:15:00","11.2793","3.45391","28.051","4.201428571428571","7.34","2.961","1681.431","0","0","30.299","4.76017","46.47","0","SATNPRO1963","25.952","0.36348","5"],
    [42757,"HCEP03730564","2024-12-16 16:30:00","11.2801","3.45406","28.057","4.222857142857143","7.34","2.761","1908.099","0","3.84","30.2998","4.76028","46.71","0","SATNPRO1963","26.29","0.36826","5"],
    [42758,"HCEP03730564","2024-12-16 16:45:00","11.279","3.4535","28.063","4.221428571428572","7.34","2.96","1632.253","0","2.66","30.2952","4.75963","46.68","0","SATNPRO1963","26.096","0.36554","5"],
    [42759,"HCEP03730564","2024-12-16 17:00:00","11.2769","3.45273","28.028","4.21","7.34","2.96","1622.577","0","0","30.2894","4.75885","46.55","0","SATNPRO1963","25.966","0.3637","5"],
    [42760,"HCEP03730564","2024-12-16 17:15:00","11.2748","3.45193","28.009","4.19","7.34","2.745","1894.888","0","5.79","30.2834","4.75802","46.33","0","SATNPRO1963","26.126","0.36596","5"],
    [42761,"HCEP03730564","2024-12-16 17:30:00","11.2762","3.45228","27.965","4.185714285714286","7.34","2.922","1568.73","0.01","4.54","30.2857","4.75833","46.28","0","SATNPRO1963","25.908","0.36286","5"],
    [42762,"HCEP03730564","2024-12-16 17:45:00","11.279","3.45282","27.823","4.162857142857143","7.34","2.921","1560.263","0","0","30.2886","4.75869","46.04","0","SATNPRO1963","26.022","0.3645","5"],
    [42763,"HCEP03730564","2024-12-16 18:00:00","11.2793","3.45271","27.571","4.135714285714286","7.34","2.722","1844.414","0","4.37","30.2875","4.75851","45.73","0","SATNPRO1963","25.812","0.36154","5"],
    [42764,"HCEP03730564","2024-12-16 18:15:00","11.2767","3.45179","27.441","4.151428571428572","7.34","2.941","1559.124","0","9.46","30.2807","4.75759","45.91","0","SATNPRO1963","25.716","0.3602","5"],
    [42765,"HCEP03730564","2024-12-16 18:30:00","11.2735","3.45101","27.264","4.162857142857143","7.35","2.942","1547.862","0","0","30.2759","4.75694","46.03","0","SATNPRO1963","25.81","0.3615","5"],
    [42766,"HCEP03730564","2024-12-16 18:45:00","11.2663","3.44715","27.058","4.15","7.35","2.775","1774.123","0","3.6","30.2442","4.75255","45.86","0","SATNPRO1963","25.76","0.36086","5"],
    [42767,"HCEP03730564","2024-12-16 19:00:00","11.2654","3.44595","26.846","4.118571428571428","7.35","2.937","1512.474","0","7.27","30.2334","4.75103","45.51","0","SATNPRO1963","25.742","0.36054","5"],
    [42768,"HCEP03730564","2024-12-16 19:15:00","11.261","3.44356","26.628","4.115714285714286","7.35","2.938","1502.973","0","0","30.2138","4.7483","45.47","0","SATNPRO1963","25.75","0.36066","5"],
    [42769,"HCEP03730564","2024-12-16 19:30:00","11.2566","3.44098","26.36","4.121428571428571","7.35","2.723","1797.206","0","7.67","30.1924","4.74531","45.52","0","SATNPRO1963","25.676000000000002","0.35964","5"],
    [42770,"HCEP03730564","2024-12-16 19:45:00","11.2485","3.43751","26.12","4.184285714285714","7.35","2.94","1510.762","0","5.1","30.1653","4.74159","46.2","0","SATNPRO1963","25.822","0.3617","5"],
    [42771,"HCEP03730564","2024-12-16 20:00:00","11.2445","3.4353","25.889","4.214285714285714","7.35","2.941","1499.822","0","0","30.1473","4.73907","46.52","0","SATNPRO1963","25.81","0.36154","5"],
    [42772,"HCEP03730564","2024-12-16 20:15:00","11.2411","3.43449","25.632","4.221428571428572","7.35","2.648","1838.393","0.01","3.8","30.1422","4.73838","46.59","0","SATNPRO1963","25.906","0.36286","5"],
    [42773,"HCEP03730564","2024-12-16 20:30:00","11.2375","3.43307","25.367","4.235714285714286","7.35","2.91","1642.506","0","3.8","30.1314","4.7369","46.75","0","SATNPRO1963","25.714","0.36014","5"],
    [42774,"HCEP03730564","2024-12-16 20:45:00","11.2398","3.43391","25.122","4.227142857142858","7.35","2.91","1633.378","0","0","30.1378","4.73776","46.65","0","SATNPRO1963","25.9","0.36274","5"],
    [42775,"HCEP03730564","2024-12-16 21:00:00","11.2406","3.43355","24.88","4.217142857142857","7.35","2.723","1882.749","0","2.71","30.1338","4.73716","46.55","0","SATNPRO1963","25.698","0.35996","5"],
    [42776,"HCEP03730564","2024-12-16 21:15:00","11.2367","3.43198","24.604","4.215714285714286","7.35","2.903","1661.137","0","3.39","30.1218","4.7355","46.52","0","SATNPRO1963","25.81","0.36154","5"],
    [42777,"HCEP03730564","2024-12-16 21:30:00","11.2348","3.43094","24.361","4.215714285714286","7.35","2.903","1651.466","0","1.44","30.1133","4.73432","46.52","0","SATNPRO1963","25.823999999999998","0.3617","5"],
    [42778,"HCEP03730564","2024-12-16 21:45:00","11.2341","3.43094","24.179","4.220000000000001","7.35","2.717","1943.117","0","5.51","30.1139","4.73441","46.57","0","SATNPRO1963","25.785999999999998","0.36118","5"],
    [42779,"HCEP03730564","2024-12-16 22:00:00","11.2304","3.42995","24.018","4.23","7.34","2.888","1683.752","0.01","2.71","30.1074","4.73353","46.67","0","SATNPRO1963","25.828","0.3618","5"],
    [42780,"HCEP03730564","2024-12-16 22:15:00","11.23","3.4292","23.897","4.214285714285714","7.35","2.886","1674.601","0","0","30.1005","4.73255","46.49","0","SATNPRO1963","25.849999999999998","0.36208","5"],
    [42781,"HCEP03730564","2024-12-16 22:30:00","11.2272","3.42806","23.782","4.201428571428571","7.34","2.71","1955.268","0","2.92","30.0917","4.73133","46.35","0","SATNPRO1963","25.986","0.36398","5"],
    [42782,"HCEP03730564","2024-12-16 22:45:00","11.2253","3.42728","23.723","4.201428571428571","7.34","2.924","1673.629","0","6.78","30.0857","4.73051","46.34","0","SATNPRO1963","25.72","0.36024","5"],
    [42783,"HCEP03730564","2024-12-16 23:00:00","11.2213","3.4261","23.664","4.214285714285714","7.34","2.926","1663.779","0","0","30.0775","4.7294","46.47","0","SATNPRO1963","25.918","0.36306","5"],
    [42784,"HCEP03730564","2024-12-16 23:15:00","11.2197","3.42569","23.667","4.224285714285714","7.34","2.759","1957.841","0","3.99","30.0747","4.72904","46.59","0","SATNPRO1963","25.702","0.35998","5"],
    [42785,"HCEP03730564","2024-12-16 23:30:00","11.2176","3.42503","23.682","4.235714285714286","7.34","2.934","1705.43","0","3.16","30.0701","4.72841","46.71","0","SATNPRO1963","25.952","0.3635","5"],
    [42786,"HCEP03730564","2024-12-16 23:45:00","11.2151","3.42411","23.787","4.255714285714286","7.34","2.934","1696.69","0","1.08","30.0631","4.72745","46.93","0","SATNPRO1963","25.802","0.3614","5"],
    [42787,"HCEP03730564","2024-12-17 00:00:00","11.2108","3.42279","23.854","4.261428571428572","7.34","2.746","2025.495","0","3.39","30.0538","4.7262","46.98","0","SATNPRO1963","25.77","0.36096","5"],
    [42788,"HCEP03730564","2024-12-17 00:15:00","11.2059","3.42136","23.902","4.267142857142858","7.34","2.926","1796.721","0","3.43","30.0438","4.72487","47.04","0","SATNPRO1963","25.95","0.36348","5"],
    [42789,"HCEP03730564","2024-12-17 00:30:00","11.2048","3.42093","24.031","4.27","7.34","2.927","1788.83","0","0.54","30.0405","4.72442","47.07","0","SATNPRO1963","25.962","0.36368","5"],
    [42790,"HCEP03730564","2024-12-17 00:45:00","11.202","3.42016","24.217","4.27","7.34","2.782","2023.682","0","3.43","30.0352","4.72372","47.07","0","SATNPRO1963","26.044","0.36474","5"],
    [42791,"HCEP03730564","2024-12-17 01:00:00","11.2005","3.41972","24.403","4.271428571428572","7.34","2.933","1825.434","0","3.8","30.0321","4.72331","47.07","0","SATNPRO1963","25.976","0.36384","5"],
    [42792,"HCEP03730564","2024-12-17 01:15:00","11.2009","3.41975","24.577","4.271428571428572","7.35","2.935","1813.362","0","0","30.0319","4.7233","47.08","0","SATNPRO1963","25.828","0.36178","5"],
    [42793,"HCEP03730564","2024-12-17 01:30:00","11.1987","3.41903","24.754","4.265714285714286","7.34","2.783","2077.294","0","1.88","30.0266","4.72259","47.02","0","SATNPRO1963","26.026","0.36454","5"],
    [42794,"HCEP03730564","2024-12-17 01:45:00","11.1978","3.41861","24.952","4.261428571428572","7.34","2.917","1862.844","0","4.82","30.0232","4.72212","46.96","0","SATNPRO1963","25.69","0.35982","5"],
    [42795,"HCEP03730564","2024-12-17 02:00:00","11.199","3.41873","25.165","4.25","7.35","2.919","1853.017","0","0.77","30.0233","4.72214","46.84","0","SATNPRO1963","25.764","0.36088","5"],
    [42796,"HCEP03730564","2024-12-17 02:15:00","11.1995","3.41854","25.392","4.225714285714286","7.35","2.811","2013.496","0","1.96","30.021","4.72181","46.57","0","SATNPRO1963","25.86","0.3622","5"],
    [42797,"HCEP03730564","2024-12-17 02:30:00","11.1984","3.41795","25.58","4.211428571428572","7.35","2.957","1819.338","0","2.97","30.016","4.72113","46.4","0","SATNPRO1963","25.634","0.35902","5"],
    [42798,"HCEP03730564","2024-12-17 02:45:00","11.199","3.4179","25.801","4.195714285714286","7.35","2.956","1808.357","0","0","30.0151","4.721","46.24","0","SATNPRO1963","25.69","0.35986","5"],
    [42799,"HCEP03730564","2024-12-17 03:00:00","11.1932","3.41603","25.99","4.180000000000001","7.34","2.843","2054.444","0","2.71","30.0014","4.71915","46.06","0","SATNPRO1963","25.664","0.35946","5"],
    [42800,"HCEP03730564","2024-12-17 03:15:00","11.188","3.41481","26.229","4.17","7.34","2.929","1832.866","0","3.56","29.9937","4.71816","45.94","0","SATNPRO1963","25.43","0.35622","5"],
    [42801,"HCEP03730564","2024-12-17 03:30:00","11.1855","3.41379","26.471","4.174285714285714","7.35","2.929","1821.528","0","0","29.9857","4.71708","45.98","0","SATNPRO1963","25.584","0.35834","5"],
    [42802,"HCEP03730564","2024-12-17 03:45:00","11.1738","3.40851","26.639","4.164285714285715","7.34","2.794","1965.608","0.01","8.91","29.9437","4.7113","45.84","0","SATNPRO1963","25.368","0.35532","5"],
    [42803,"HCEP03730564","2024-12-17 04:00:00","11.1736","3.4086","26.938","4.135714285714286","7.34","2.919","1771.768","0","5.17","29.9446","4.71145","45.53","0","SATNPRO1963","25.464000000000002","0.35668","5"],
    [42804,"HCEP03730564","2024-12-17 04:15:00","11.1743","3.40871","27.152","4.105714285714286","7.34","2.92","1761.143","0","1.08","29.945","4.71151","45.2","0","SATNPRO1963","25.164","0.35244","5"],
    [42805,"HCEP03730564","2024-12-17 04:30:00","11.1691","3.40623","27.376","4.108571428571428","7.34","2.758","1960.041","0","2.43","29.925","4.70876","45.23","0","SATNPRO1963","25.428","0.35616","5"],
    [42806,"HCEP03730564","2024-12-17 04:45:00","11.1722","3.40742","27.584","4.097142857142857","7.34","2.903","1755.962","0.01","3.72","29.934","4.71","45.1","0","SATNPRO1963","25.3","0.3543","5"],
    [42807,"HCEP03730564","2024-12-17 05:00:00","11.1763","3.40961","27.802","4.09","7.34","2.902","1744.847","0","0","29.9518","4.71248","45.04","0","SATNPRO1963","25.262","0.35386","5"],
    [42808,"HCEP03730564","2024-12-17 05:15:00","11.181","3.41141","27.978","4.101428571428571","7.34","2.82","1903.508","0","3.39","29.9655","4.71437","45.17","0","SATNPRO1963","25.372","0.35536","5"],
    [42809,"HCEP03730564","2024-12-17 05:30:00","11.1842","3.41267","28.073","4.115714285714286","7.34","2.921","1698.457","0.01","3.84","29.9752","4.71569","45.32","0","SATNPRO1963","25.434","0.35624","5"],
    [42810,"HCEP03730564","2024-12-17 05:45:00","11.186","3.41365","28.171","4.111428571428572","7.34","2.922","1687.904","0","0.54","29.9832","4.71681","45.29","0","SATNPRO1963","25.41","0.35594","5"],
    [42811,"HCEP03730564","2024-12-17 06:00:00","11.1891","3.41461","28.318","4.134285714285714","7.34","2.767","1931.87","0","4.24","29.99","4.71774","45.54","0","SATNPRO1963","25.56","0.35802","5"],
    [42812,"HCEP03730564","2024-12-17 06:15:00","11.1897","3.41489","28.416","4.142857142857143","7.34","2.907","1720.904","0.01","4.79","29.9922","4.71804","45.64","0","SATNPRO1963","25.426000000000002","0.35616","5"],
    [42813,"HCEP03730564","2024-12-17 06:30:00","11.1896","3.41488","28.436","4.145714285714286","7.34","2.909","1708.982","0","0","29.9921","4.71804","45.67","0","SATNPRO1963","25.542","0.35776","5"],
    [42814,"HCEP03730564","2024-12-17 06:45:00","11.189","3.41484","28.44","4.151428571428572","7.33","2.772","1922.148","0","2.43","29.9923","4.71807","45.73","0","SATNPRO1963","25.624","0.35894","5"],
    [42815,"HCEP03730564","2024-12-17 07:00:00","11.1882","3.41478","28.407","4.154285714285714","7.34","2.914","1667.802","0","2.82","29.9923","4.71808","45.76","0","SATNPRO1963","25.686","0.35976","5"],
    [42816,"HCEP03730564","2024-12-17 07:15:00","11.191","3.41548","28.41","4.15","7.34","2.916","1657.741","0","0.94","29.9969","4.71869","45.71","0","SATNPRO1963","25.52","0.35746","5"],
    [42817,"HCEP03730564","2024-12-17 07:30:00","11.1976","3.41791","28.389","4.125714285714285","7.34","2.721","1895.202","0","3.3","30.0152","4.72118","45.46","0","SATNPRO1963","25.436","0.35626","5"],
    [42818,"HCEP03730564","2024-12-17 07:45:00","11.1995","3.4189","28.348","4.06","7.34","2.906","1630.546","0","4.76","30.0232","4.72229","44.75","0","SATNPRO1963","25.36","0.35522","5"],
    [42819,"HCEP03730564","2024-12-17 08:00:00","11.2028","3.42091","28.313","3.958571428571429","7.34","2.907","1620.376","0","1.08","30.0403","4.72466","43.64","0","SATNPRO1963","25.041999999999998","0.35074","5"],
    [42820,"HCEP03730564","2024-12-17 08:15:00","11.2135","3.42561","28.236","3.885714285714286","7.33","2.659","1931.676","0","2.92","30.0772","4.72974","42.86","0","SATNPRO1963","25.006","0.35024","5"],
    [42821,"HCEP03730564","2024-12-17 08:30:00","11.1957","3.41901","28.168","3.931428571428571","7.33","2.891","1607.223","0","6.51","30.0276","4.72296","43.33","0","SATNPRO1963","25.35","0.35508","5"],
    [42822,"HCEP03730564","2024-12-17 08:45:00","11.1891","3.41772","28.117","4.051428571428572","7.34","2.893","1600.659","0","0.77","30.0203","4.72203","44.64","0","SATNPRO1963","25.392","0.35566","5"],
    [42823,"HCEP03730564","2024-12-17 09:00:00","11.1708","3.41282","28.073","4.134285714285714","7.34","2.668","1887.52","0","4.51","29.9876","4.71765","45.52","0","SATNPRO1963","25.556","0.35796","5"],
    [42824,"HCEP03730564","2024-12-17 09:15:00","11.1526","3.41035","27.996","4.214285714285714","7.34","2.909","1606.876","0","6.14","29.9784","4.71661","46.38","0","SATNPRO1963","25.53","0.3576","5"],
    [42825,"HCEP03730564","2024-12-17 09:30:00","11.1455","3.40848","27.912","4.285714285714286","7.35","2.909","1598.332","0","1.63","29.9658","4.71493","47.15","0","SATNPRO1963","25.592","0.35844","5"],
    [42826,"HCEP03730564","2024-12-17 09:45:00","11.1432","3.4078","27.846","4.262857142857143","7.35","2.721","1787.234","0","4.91","29.9611","4.7143","46.9","0","SATNPRO1963","25.412","0.35594","5"],
    [42827,"HCEP03730564","2024-12-17 10:00:00","11.1316","3.40532","27.752","4.284285714285715","7.34","2.918","1598.363","0","3.16","29.9464","4.71238","47.13","0","SATNPRO1963","25.724","0.36032","5"],
    [42828,"HCEP03730564","2024-12-17 10:15:00","11.1192","3.40248","27.671","4.355714285714286","7.35","2.919","1586.712","0","0","29.9289","4.71007","47.89","0","SATNPRO1963","25.554","0.35792","5"],
    [42829,"HCEP03730564","2024-12-17 10:30:00","11.1138","3.40113","27.593","4.391428571428572","7.35","2.687","1910.636","0","2.36","29.9201","4.70891","48.27","0","SATNPRO1963","25.822","0.36166","5"],
    [42830,"HCEP03730564","2024-12-17 10:45:00","11.1081","3.39977","27.498","4.402857142857143","7.35","2.91","1676.991","0","2.54","29.9115","4.70777","48.4","0","SATNPRO1963","25.68","0.35968","5"],
    [42831,"HCEP03730564","2024-12-17 11:00:00","11.1007","3.39816","27.354","4.437142857142857","7.35","2.91","1667.239","0","0","29.9019","4.7065","48.76","0","SATNPRO1963","25.796","0.3613","5"],
    [42832,"HCEP03730564","2024-12-17 11:15:00","11.1031","3.39907","27.284","4.462857142857144","7.35","2.757","1868.564","0","5.37","29.9088","4.70744","49.05","0","SATNPRO1963","25.876","0.36242","5"],
    [42833,"HCEP03730564","2024-12-17 11:30:00","11.1006","3.39863","27.2","4.465714285714285","7.35","2.911","1713.325","0","6.23","29.9066","4.70716","49.07","0","SATNPRO1963","25.678","0.35964","5"],
    [42834,"HCEP03730564","2024-12-17 11:45:00","11.1691","3.41436","27.131","4.385714285714285","7.35","2.911","1701.76","0","0","30.0043","4.72","48.29","0","SATNPRO1963","25.39","0.35562","5"],
    [42835,"HCEP03730564","2024-12-17 12:00:00","11.1929","3.42044","27.045","4.07","7.34","2.754","1885.204","0","2.3","30.0442","4.72529","44.86","0","SATNPRO1963","25.696","0.35992","5"],
    [42836,"HCEP03730564","2024-12-17 12:15:00","11.1954","3.42079","27.017","4.135714285714286","7.34","2.877","1694.322","0","6.09","30.0456","4.72545","45.58","0","SATNPRO1963","25.786","0.36118","5"],
    [42837,"HCEP03730564","2024-12-17 12:30:00","11.2089","3.42494","26.979","4.104285714285715","7.34","2.88","1682.441","0","1.08","30.075","4.72941","45.26","0","SATNPRO1963","25.788","0.36122","5"],
    [42838,"HCEP03730564","2024-12-17 12:45:00","11.2154","3.42788","26.983","4.051428571428572","7.33","2.67","1962.244","0","3.02","30.0983","4.73263","44.68","0","SATNPRO1963","25.808","0.36148","5"],
    [42839,"HCEP03730564","2024-12-17 13:00:00","11.2179","3.43012","27.016","4.045714285714285","7.33","2.874","1706.194","0","2.71","30.1181","4.73539","44.62","0","SATNPRO1963","25.784","0.36116","5"],
    [42840,"HCEP03730564","2024-12-17 13:15:00","11.2155","3.43041","27.096","4.064285714285715","7.33","2.875","1696.407","0","0","30.1228","4.7361","44.84","0","SATNPRO1963","25.758","0.36076","5"],
    [42841,"HCEP03730564","2024-12-17 13:30:00","11.2176","3.43128","27.091","4.08","7.33","2.693","1955.867","0","3.76","30.1296","4.73704","45.01","0","SATNPRO1963","25.88","0.36252","5"],
    [42842,"HCEP03730564","2024-12-17 13:45:00","11.221","3.4321","27.202","4.065714285714286","7.33","2.92","1689.008","0","3.3","30.1348","4.73773","44.86","0","SATNPRO1963","25.714","0.36016","5"],
    [42843,"HCEP03730564","2024-12-17 14:00:00","11.2229","3.4328","27.174","4.044285714285714","7.34","2.923","1680.688","0","0","30.14","4.73844","44.63","0","SATNPRO1963","25.631999999999998","0.359","5"],
    [42844,"HCEP03730564","2024-12-17 14:15:00","11.2241","3.43326","27.279","4.025714285714286","7.34","2.787","1861.725","0.01","3.39","30.1435","4.73893","44.43","0","SATNPRO1963","25.642","0.35914","5"],
    [42845,"HCEP03730564","2024-12-17 14:30:00","11.2227","3.43316","27.296","4.032857142857143","7.34","2.942","1741.223","0","3.02","30.1436","4.73896","44.5","0","SATNPRO1963","25.602","0.35862","5"],
    [42846,"HCEP03730564","2024-12-17 14:45:00","11.2227","3.43323","27.398","4.034285714285714","7.34","2.948","1734.393","0","0","30.1443","4.73907","44.52","0","SATNPRO1963","25.568","0.35812","5"],
    [42847,"HCEP03730564","2024-12-17 15:00:00","11.2225","3.43334","27.527","4.04","7.34","2.76","1854.903","0","3.84","30.1455","4.73924","44.58","0","SATNPRO1963","25.669999999999998","0.35954","5"],
    [42848,"HCEP03730564","2024-12-17 15:15:00","11.2212","3.43315","27.566","4.047142857142857","7.34","2.935","1780.364","0","3.34","30.1447","4.73915","44.65","0","SATNPRO1963","25.714","0.36022","5"],
    [42849,"HCEP03730564","2024-12-17 15:30:00","11.2196","3.43279","27.6","4.058571428571429","7.35","2.937","1771.626","0","1.72","30.1424","4.73886","44.79","0","SATNPRO1963","25.53","0.35762","5"],
    [42850,"HCEP03730564","2024-12-17 15:45:00","11.2208","3.4331","27.674","4.055714285714286","7.34","2.849","1826.149","0","3.16","30.1444","4.73912","44.74","0","SATNPRO1963","25.662","0.35948","5"],
    [42851,"HCEP03730564","2024-12-17 16:00:00","11.2188","3.43258","27.714","4.057142857142857","7.34","2.929","1738.076","0","6.02","30.141","4.73867","44.76","0","SATNPRO1963","25.714","0.36014","5"],
    [42852,"HCEP03730564","2024-12-17 16:15:00","11.2231","3.43372","27.818","4.048571428571429","7.34","2.929","1727.639","0","1.53","30.1486","4.73969","44.68","0","SATNPRO1963","25.732","0.36042","5"],
    [42853,"HCEP03730564","2024-12-17 16:30:00","11.2245","3.43422","27.806","4.032857142857143","7.34","2.841","1908.467","0.01","3.91","30.1523","4.74019","44.5","0","SATNPRO1963","25.594","0.3585","5"],
    [42854,"HCEP03730564","2024-12-17 16:45:00","11.2229","3.43391","27.822","4.031428571428572","7.34","2.954","1740.194","0","4.34","30.1506","4.73997","44.49","0","SATNPRO1963","25.668","0.35952","5"],
    [42855,"HCEP03730564","2024-12-17 17:00:00","11.2231","3.43367","27.791","4.041428571428572","7.34","2.955","1729.028","0","0","30.1481","4.73962","44.59","0","SATNPRO1963","25.63","0.35898","5"],
    [42856,"HCEP03730564","2024-12-17 17:15:00","11.2232","3.43274","27.826","4.02","7.33","2.824","1919.491","0","2.3","30.139","4.73832","44.36","0","SATNPRO1963","25.604","0.35864","5"],
    [42857,"HCEP03730564","2024-12-17 17:30:00","11.218","3.43155","27.804","4.024285714285715","7.33","2.939","1735.831","0","3.12","30.1316","4.73735","44.4","0","SATNPRO1963","25.594","0.35846","5"],
    [42858,"HCEP03730564","2024-12-17 17:45:00","11.2081","3.42946","27.8","4.088571428571429","7.34","2.94","1725.21","0","1.63","30.1193","4.73576","45.09","0","SATNPRO1963","25.614","0.35878","5"],
    [42859,"HCEP03730564","2024-12-17 18:00:00","11.2022","3.42846","27.761","4.121428571428571","7.34","2.754","1858.077","0","3.91","30.1143","4.73514","45.45","0","SATNPRO1963","25.842","0.36194","5"],
    [42860,"HCEP03730564","2024-12-17 18:15:00","11.1986","3.42765","27.695","4.164285714285715","7.34","2.917","1628.808","0","4.94","30.1095","4.7345","45.92","0","SATNPRO1963","25.826","0.36178","5"],
    [42861,"HCEP03730564","2024-12-17 18:30:00","11.1922","3.42549","27.586","4.201428571428571","7.34","2.917","1617.918","0","0.54","30.0937","4.73235","46.32","0","SATNPRO1963","25.64","0.35914","5"],
    [42862,"HCEP03730564","2024-12-17 18:45:00","11.1836","3.42164","27.423","4.205714285714286","7.34","2.775","1776.499","0","4.37","30.0633","4.72817","46.35","0","SATNPRO1963","25.498","0.35712","5"],
    [42863,"HCEP03730564","2024-12-17 19:00:00","11.1798","3.42049","27.35","4.188571428571429","7.34","2.917","1660.489","0","4.1","30.0553","4.72708","46.15","0","SATNPRO1963","25.628","0.35896","5"],
    [42864,"HCEP03730564","2024-12-17 19:15:00","11.1727","3.41752","27.202","4.171428571428572","7.35","2.917","1646.482","0","1.44","30.0321","4.72389","45.94","0","SATNPRO1963","25.532","0.35764","5"],
    [42865,"HCEP03730564","2024-12-17 19:30:00","11.1689","3.41639","27.045","4.172857142857143","7.34","2.73","1861.976","0","3.6","30.0243","4.72283","45.96","0","SATNPRO1963","25.658","0.35938","5"],
    [42866,"HCEP03730564","2024-12-17 19:45:00","11.1679","3.41598","26.845","4.175714285714286","7.34","2.899","1634.099","0","4.85","30.0212","4.72239","45.99","0","SATNPRO1963","25.554","0.35796","5"],
    [42867,"HCEP03730564","2024-12-17 20:00:00","11.1552","3.412","26.568","4.188571428571429","7.35","2.9","1618.267","0","0","29.9929","4.71855","46.11","0","SATNPRO1963","25.580000000000002","0.35826","5"],
    [42868,"HCEP03730564","2024-12-17 20:15:00","11.1371","3.4077","26.351","4.224285714285714","7.34","2.776","1801.676","0","3.47","29.9657","4.71495","46.48","0","SATNPRO1963","25.576","0.35828","5"],
    [42869,"HCEP03730564","2024-12-17 20:30:00","11.1262","3.40484","26.136","4.304285714285714","7.34","2.919","1582.428","0","2.77","29.9468","4.71243","47.34","0","SATNPRO1963","25.662","0.35946","5"],
    [42870,"HCEP03730564","2024-12-17 20:45:00","11.1202","3.40383","25.918","4.362857142857143","7.35","2.921","1573.634","0","0.94","29.9419","4.71181","47.97","0","SATNPRO1963","25.715999999999998","0.36022","5"],
    [42871,"HCEP03730564","2024-12-17 21:00:00","11.1164","3.40336","25.66","4.39","7.34","2.729","1742.452","0","3.56","29.9405","4.71165","48.27","0","SATNPRO1963","25.84","0.36194","5"],
    [42872,"HCEP03730564","2024-12-17 21:15:00","11.1089","3.40234","25.418","4.417142857142857","7.34","2.911","1574.255","0","5.37","29.9367","4.71121","48.56","0","SATNPRO1963","25.764","0.36084","5"],
    [42873,"HCEP03730564","2024-12-17 21:30:00","11.1025","3.40086","25.184","4.445714285714286","7.35","2.912","1559.878","0","0","29.9277","4.71001","48.86","0","SATNPRO1963","25.682","0.35974","5"],
    [42874,"HCEP03730564","2024-12-17 21:45:00","11.1048","3.4002","25.024","4.434285714285714","7.35","2.801","1770.448","0","2.43","29.9194","4.7088","48.73","0","SATNPRO1963","25.605999999999998","0.3587","5"],
    [42875,"HCEP03730564","2024-12-17 22:00:00","11.1178","3.40108","24.725","4.36","7.34","2.929","1557.719","0","6.11","29.9175","4.70831","47.94","0","SATNPRO1963","25.598","0.35854","5"],
    [42876,"HCEP03730564","2024-12-17 22:15:00","11.1255","3.40144","24.533","4.255714285714286","7.34","2.931","1546.287","0","1.33","29.9148","4.70781","46.79","0","SATNPRO1963","25.512","0.35734","5"],
    [42877,"HCEP03730564","2024-12-17 22:30:00","11.1322","3.40181","24.283","4.19","7.33","2.766","1755.066","0","5.06","29.9131","4.70745","46.08","0","SATNPRO1963","25.256","0.35376","5"],
    [42878,"HCEP03730564","2024-12-17 22:45:00","11.1407","3.40194","24.074","4.112857142857143","7.33","2.918","1541.74","0","2.57","29.9075","4.70652","45.23","0","SATNPRO1963","24.922","0.34908","5"],
    [42879,"HCEP03730564","2024-12-17 23:00:00","11.1462","3.40173","23.968","4.022857142857143","7.33","2.918","1532.13","0","0.38","29.9011","4.70551","44.24","0","SATNPRO1963","25.108","0.35172","5"],
    [42880,"HCEP03730564","2024-12-17 23:15:00","11.1434","3.40015","23.836","3.981428571428571","7.32","2.751","1744.243","0","4.47","29.888","4.70369","43.79","0","SATNPRO1963","25.286","0.3542","5"],
    [42881,"HCEP03730564","2024-12-17 23:30:00","11.1371","3.39823","23.762","3.974285714285714","7.31","2.916","1483.828","0","3.64","29.8744","4.70185","43.69","0","SATNPRO1963","25.056","0.35098","5"],
    [42882,"HCEP03730564","2024-12-17 23:45:00","11.137","3.39647","23.766","3.954285714285714","7.32","2.917","1475.14","0","0","29.8573","4.69942","43.48","0","SATNPRO1963","24.98","0.34986","5"],
    [42883,"HCEP03730564","2024-12-18 00:00:00","11.1334","3.39395","23.833","3.92","7.31","2.713","1699.143","0","3.12","29.8357","4.69642","43.09","0","SATNPRO1963","25.084","0.35138","5"],
    [42884,"HCEP03730564","2024-12-18 00:15:00","11.1327","3.39344","23.989","3.887142857142858","7.31","2.928","1544.562","0","4.78","29.8312","4.69579","42.72","0","SATNPRO1963","25.096","0.35154","5"],
    [42885,"HCEP03730564","2024-12-18 00:30:00","11.1269","3.39093","23.974","3.874285714285715","7.31","2.93","1535.376","0","0","29.8114","4.69307","42.57","0","SATNPRO1963","24.998","0.35016","5"],
    [42886,"HCEP03730564","2024-12-18 00:45:00","11.1233","3.38853","23.954","3.864285714285714","7.3","2.767","1677.26","0","4.24","29.791","4.69022","42.46","0","SATNPRO1963","24.846","0.34802","5"],
    [42887,"HCEP03730564","2024-12-18 01:00:00","11.1153","3.38559","24.019","3.858571428571428","7.3","2.899","1483.913","0","4.87","29.7688","4.6872","42.37","0","SATNPRO1963","24.8","0.34734","5"],
    [42888,"HCEP03730564","2024-12-18 01:15:00","11.1081","3.38279","24.13","3.85","7.3","2.899","1471.856","0","0","29.7473","4.68425","42.27","0","SATNPRO1963","24.855999999999998","0.34816","5"],
    [42889,"HCEP03730564","2024-12-18 01:30:00","11.1026","3.38103","24.389","3.85","7.3","2.785","1696.2","0","3.34","29.7345","4.68253","42.26","0","SATNPRO1963","24.834","0.34784","5"],
    [42890,"HCEP03730564","2024-12-18 01:45:00","11.0959","3.37957","24.588","3.87","7.3","2.94","1554.796","0","2.49","29.7256","4.68137","42.48","0","SATNPRO1963","25.07","0.35118","5"],
    [42891,"HCEP03730564","2024-12-18 02:00:00","11.0735","3.37493","24.776","3.917142857142857","7.3","2.94","1544.473","0","0","29.6984","4.67786","42.96","0","SATNPRO1963","24.958","0.34958","5"],
    [42892,"HCEP03730564","2024-12-18 02:15:00","11.0389","3.36815","24.94","3.998571428571429","7.3","2.842","1656.637","0","1.44","29.66","4.67293","43.82","0","SATNPRO1963","25.03","0.3506","5"],
    [42893,"HCEP03730564","2024-12-18 02:30:00","11.0718","3.37306","25.152","4.024285714285715","7.3","2.935","1609.352","0.01","10.6","29.6814","4.67548","44.13","0","SATNPRO1963","24.84","0.34792","5"],
    [42894,"HCEP03730564","2024-12-18 02:45:00","11.0904","3.37639","25.358","3.895714285714286","7.3","2.938","1599.589","0","1.33","29.6988","4.67769","42.75","0","SATNPRO1963","24.712","0.34612","5"],
    [42895,"HCEP03730564","2024-12-18 03:00:00","11.0913","3.37506","25.539","3.817142857142858","7.3","2.811","1759.603","0.01","1.96","29.685","4.67573","41.88","0","SATNPRO1963","24.568","0.3441","5"],
    [42896,"HCEP03730564","2024-12-18 03:15:00","11.0951","3.37509","25.727","3.76","7.29","2.924","1581.336","0","1.96","29.6821","4.67528","41.25","0","SATNPRO1963","24.572","0.34418","5"],
    [42897,"HCEP03730564","2024-12-18 03:30:00","11.0947","3.37469","25.885","3.724285714285715","7.3","2.926","1568.784","0","1.44","29.6785","4.67478","40.86","0","SATNPRO1963","24.386","0.34158","5"],
    [42898,"HCEP03730564","2024-12-18 03:45:00","11.0942","3.3741","26.127","3.704285714285714","7.29","2.793","1767.267","0","2.43","29.673","4.67402","40.64","0","SATNPRO1963","24.362","0.34126","5"],
    [42899,"HCEP03730564","2024-12-18 04:00:00","11.0859","3.37184","26.355","3.717142857142857","7.29","2.916","1568.775","0","5.77","29.6576","4.67197","40.77","0","SATNPRO1963","24.406","0.34182","5"],
    [42900,"HCEP03730564","2024-12-18 04:15:00","11.0737","3.36862","26.745","3.732857142857143","7.29","2.917","1556.957","0","1.08","29.6359","4.66908","40.93","0","SATNPRO1963","24.186","0.33878","5"],
    [42901,"HCEP03730564","2024-12-18 04:30:00","11.066","3.36659","26.864","3.771428571428572","7.29","2.739","1819.338","0","3.43","29.6222","4.66726","41.34","0","SATNPRO1963","24.568","0.34414","5"],
    [42902,"HCEP03730564","2024-12-18 04:45:00","11.0404","3.35923","27.147","3.84","7.3","2.917","1590.197","0","2.1","29.571","4.66037","42.06","0","SATNPRO1963","24.49","0.34304","5"],
    [42903,"HCEP03730564","2024-12-18 05:00:00","10.9783","3.34504","27.464","3.978571428571429","7.31","2.916","1578.407","0","1.21","29.4822","4.64869","43.5","0","SATNPRO1963","24.452","0.34254","5"],
    [42904,"HCEP03730564","2024-12-18 05:15:00","10.8704","3.305","27.619","4.177142857142857","7.31","2.821","1745.272","0.01","2.36","29.1772","4.60687","45.47","0","SATNPRO1963","24.06","0.33698","5"],
    [42905,"HCEP03730564","2024-12-18 05:30:00","10.7273","3.26783","27.847","4.511428571428572","7.32","2.926","1629.755","0","1.88","28.9266","4.57329","48.88","0","SATNPRO1963","24.483999999999998","0.34294","5"],
    [42906,"HCEP03730564","2024-12-18 05:45:00","10.2098","3.13102","27.959","5.741428571428572","7.37","2.933","1616.333","0","1.21","27.9844","4.44623","61.16","0","SATNPRO1963","24.604","0.34466","5"],
    [42907,"HCEP03730564","2024-12-18 06:00:00","10.2095","3.14083","28.095","5.932857142857142","7.38","2.848","1728.107","0","1.21","28.0816","4.4602","63.22","0","SATNPRO1963","24.678","0.34566","5"],
    [42908,"HCEP03730564","2024-12-18 06:15:00","10.3043","3.16859","28.213","5.838571428571428","7.39","2.895","1544.772","0","3.3","28.2822","4.48754","62.43","0","SATNPRO1963","24.962","0.34956","5"],
    [42909,"HCEP03730564","2024-12-18 06:30:00","10.5371","3.22967","28.292","5.431428571428572","7.38","2.891","1535.39","0","0","28.7018","4.54408","58.5","0","SATNPRO1963","24.701999999999998","0.34598","5"],
    [42910,"HCEP03730564","2024-12-18 06:45:00","10.8185","3.31149","28.379","4.762857142857143","7.36","2.79","1660.371","0","4.57","29.2817","4.62259","51.8","0","SATNPRO1963","24.866","0.34832","5"],
    [42911,"HCEP03730564","2024-12-18 07:00:00","11.0431","3.36239","28.459","3.87","7.33","2.925","1607.831","0.01","5.56","29.5991","4.6644","42.39","0","SATNPRO1963","24.266000000000002","0.33992","5"],
    [42912,"HCEP03730564","2024-12-18 07:15:00","11.054","3.36337","28.519","3.771428571428572","7.32","2.93","1593.453","0","0.54","29.5999","4.66435","41.32","0","SATNPRO1963","24.43","0.34218","5"],
    [42913,"HCEP03730564","2024-12-18 07:30:00","11.0388","3.36845","28.521","3.997142857142857","7.31","2.821","1742.984","0","5.03","29.6617","4.67337","43.79","0","SATNPRO1963","25.304","0.35442","5"],
    [42914,"HCEP03730564","2024-12-18 07:45:00","11.0409","3.37141","28.559","4.214285714285714","7.32","2.921","1540.043","0","2.74","29.6889","4.67721","46.19","0","SATNPRO1963","25.332","0.35484","5"],
    [42915,"HCEP03730564","2024-12-18 08:00:00","11.0425","3.37365","28.543","4.247142857142857","7.33","2.923","1527.549","0","0.86","29.7094","4.6801","46.55","0","SATNPRO1963","25.358","0.3552","5"],
    [42916,"HCEP03730564","2024-12-18 08:15:00","11.0618","3.38243","28.557","4.277142857142858","7.32","2.82","1640.994","0","1.96","29.7795","4.68976","46.92","0","SATNPRO1963","25.224","0.35334","5"],
    [42917,"HCEP03730564","2024-12-18 08:30:00","11.0683","3.38437","28.579","4.277142857142858","7.33","2.951","1601.514","0","3.07","29.7931","4.6916","46.93","0","SATNPRO1963","25.53","0.3576","5"],
    [42918,"HCEP03730564","2024-12-18 08:45:00","11.0735","3.38204","28.565","4.21","7.33","2.951","1587.762","0","0","29.7662","4.6877","46.19","0","SATNPRO1963","25.332","0.35482","5"],
    [42919,"HCEP03730564","2024-12-18 09:00:00","11.0719","3.37809","28.571","4.07","7.32","2.876","1595.143","0","2.97","29.729","4.68244","44.65","0","SATNPRO1963","24.95","0.34948","5"],
    [42920,"HCEP03730564","2024-12-18 09:15:00","11.0784","3.38225","28.518","4.002857142857143","7.31","2.962","1619.155","0","2.66","29.7644","4.68737","43.93","0","SATNPRO1963","25.136","0.3521","5"],
    [42921,"HCEP03730564","2024-12-18 09:30:00","11.0838","3.38585","28.428","4.037142857142857","7.31","2.964","1607.912","0","0","29.7951","4.69165","44.32","0","SATNPRO1963","25.37","0.35538","5"],
    [42922,"HCEP03730564","2024-12-18 09:45:00","11.0842","3.38708","28.353","4.077142857142857","7.31","2.814","1743.058","0","3.43","29.8068","4.6933","44.76","0","SATNPRO1963","25.348","0.35504","5"],
    [42923,"HCEP03730564","2024-12-18 10:00:00","11.0826","3.38575","28.267","4.084285714285714","7.31","2.961","1709.268","0","2.49","29.7952","4.69167","44.83","0","SATNPRO1963","25.402","0.35574","5"],
    [42924,"HCEP03730564","2024-12-18 10:15:00","11.0848","3.38767","28.174","4.041428571428572","7.31","2.963","1697.438","0","1.21","29.8121","4.69404","44.38","0","SATNPRO1963","25.224","0.35328","5"],
    [42925,"HCEP03730564","2024-12-18 10:30:00","11.0959","3.3919","28.077","4.044285714285714","7.31","2.838","1814.123","0","3.12","29.8444","4.69845","44.42","0","SATNPRO1963","25.18","0.35268","5"],
    [42926,"HCEP03730564","2024-12-18 10:45:00","11.0942","3.39166","27.966","4.044285714285714","7.31","2.965","1730.374","0","3.76","29.8435","4.69834","44.42","0","SATNPRO1963","25.198","0.35294","5"],
    [42927,"HCEP03730564","2024-12-18 11:00:00","11.0876","3.38913","27.865","4.041428571428572","7.31","2.967","1717.183","0","0.77","29.8243","4.69571","44.37","0","SATNPRO1963","25.186","0.35276","5"],
    [42928,"HCEP03730564","2024-12-18 11:15:00","11.0846","3.38672","27.759","4.035714285714286","7.3","2.861","1919.891","0","3.25","29.8032","4.69274","44.31","0","SATNPRO1963","25.394","0.35572","5"],
    [42929,"HCEP03730564","2024-12-18 11:30:00","11.0862","3.38854","27.647","4.028571428571428","7.3","2.967","1761.206","0","3.39","29.8197","4.69506","44.24","0","SATNPRO1963","25.154","0.35232","5"],
    [42930,"HCEP03730564","2024-12-18 11:45:00","11.084","3.38762","27.522","4.024285714285715","7.31","2.969","1748.871","0","0","29.8126","4.69407","44.18","0","SATNPRO1963","25.282","0.35414","5"],
    [42931,"HCEP03730564","2024-12-18 12:00:00","11.0877","3.38913","27.413","4.027142857142858","7.3","2.888","1943.243","0","3.56","29.8243","4.69568","44.21","0","SATNPRO1963","25.172","0.35256","5"],
    [42932,"HCEP03730564","2024-12-18 12:15:00","11.0925","3.38998","27.309","4.031428571428572","7.3","2.967","1866.023","0.01","3.16","29.8288","4.69625","44.26","0","SATNPRO1963","25.21","0.35312","5"],
    [42933,"HCEP03730564","2024-12-18 12:30:00","11.0917","3.39294","27.194","4.065714285714286","7.3","2.966","1851.04","0","0.54","29.8583","4.70044","44.66","0","SATNPRO1963","25.492","0.35706","5"],
    [42934,"HCEP03730564","2024-12-18 12:45:00","11.0905","3.39265","27.089","4.16","7.3","2.903","1941.019","0","2.17","29.8566","4.7002","45.69","0","SATNPRO1963","25.654","0.35934","5"],
    [42935,"HCEP03730564","2024-12-18 13:00:00","11.0995","3.39583","27.001","4.177142857142857","7.31","2.956","1817.04","0.01","3.25","29.8803","4.70344","45.89","0","SATNPRO1963","25.572","0.35818","5"],
    [42936,"HCEP03730564","2024-12-18 13:15:00","11.1004","3.39617","26.922","4.154285714285714","7.31","2.956","1804.751","0","0","29.8829","4.70378","45.64","0","SATNPRO1963","25.626","0.35896","5"],
    [42937,"HCEP03730564","2024-12-18 13:30:00","11.1017","3.39642","26.865","4.145714285714286","7.31","2.863","1907.047","0","4.1","29.8843","4.70396","45.55","0","SATNPRO1963","25.378","0.3555","5"],
    [42938,"HCEP03730564","2024-12-18 13:45:00","11.1019","3.39636","26.827","4.128571428571429","7.31","2.945","1720.125","0","6.86","29.8836","4.70385","45.36","0","SATNPRO1963","25.492","0.3571","5"],
    [42939,"HCEP03730564","2024-12-18 14:00:00","11.1004","3.39581","26.846","4.104285714285715","7.32","2.948","1706.493","0","0","29.8794","4.70329","45.09","0","SATNPRO1963","25.486","0.35698","5"],
    [42940,"HCEP03730564","2024-12-18 14:15:00","11.097","3.39396","26.876","4.087142857142857","7.31","2.801","1857.306","0","3.34","29.8641","4.70116","44.9","0","SATNPRO1963","25.29","0.35422","5"],
    [42941,"HCEP03730564","2024-12-18 14:30:00","11.0992","3.3949","26.931","4.062857142857143","7.32","2.929","1680.676","0","5.17","29.8715","4.70219","44.63","0","SATNPRO1963","25.178","0.35266","5"],
    [42942,"HCEP03730564","2024-12-18 14:45:00","11.105","3.40054","26.962","4.071428571428572","7.32","2.93","1667.787","0","0","29.9218","4.70925","44.75","0","SATNPRO1963","25.68","0.3597","5"],
    [42943,"HCEP03730564","2024-12-18 15:00:00","11.0922","3.40233","27.089","4.187142857142858","7.32","2.8","1819.275","0","2.49","29.9496","4.71339","46.01","0","SATNPRO1963","25.951999999999998","0.36348","5"],
    [42944,"HCEP03730564","2024-12-18 15:15:00","11.0928","3.40369","27.175","4.28","7.32","2.911","1700.864","0.01","3.34","29.9623","4.71519","47.04","0","SATNPRO1963","26.062","0.365","5"],
    [42945,"HCEP03730564","2024-12-18 15:30:00","11.093","3.40461","27.238","4.304285714285714","7.33","2.909","1687.904","0","0","29.9712","4.71645","47.32","0","SATNPRO1963","26.296","0.3683","5"],
    [42946,"HCEP03730564","2024-12-18 15:45:00","11.0935","3.40522","27.312","4.318571428571428","7.32","2.767","1836.033","0","2.1","29.9767","4.71722","47.48","0","SATNPRO1963","26.26","0.3678","5"],
    [42947,"HCEP03730564","2024-12-18 16:00:00","11.0963","3.40538","27.37","4.321428571428571","7.33","2.912","1634.993","0.01","5.92","29.9759","4.71708","47.5","0","SATNPRO1963","26.06","0.36498","5"],
    [42948,"HCEP03730564","2024-12-18 16:15:00","11.098","3.40516","27.392","4.318571428571428","7.33","2.911","1625.127","0","1.08","29.9724","4.71655","47.47","0","SATNPRO1963","26.076","0.36522","5"],
    [42949,"HCEP03730564","2024-12-18 16:30:00","11.1207","3.40646","27.434","4.245714285714286","7.33","2.798","1776.574","0","2.77","29.9665","4.71538","46.69","0","SATNPRO1963","25.528","0.35756","5"],
    [42950,"HCEP03730564","2024-12-18 16:45:00","11.1249","3.4068","27.485","4.158571428571428","7.32","2.883","1670.512","0.01","2.92","29.9664","4.71531","45.74","0","SATNPRO1963","25.834","0.36184","5"],
    [42951,"HCEP03730564","2024-12-18 17:00:00","11.1266","3.4062","27.479","4.142857142857143","7.32","2.879","1658.818","0","0","29.9593","4.71426","45.56","0","SATNPRO1963","25.626","0.35894","5"],
    [42952,"HCEP03730564","2024-12-18 17:15:00","11.1227","3.40492","27.464","4.140000000000001","7.32","2.812","1789.71","0","4.06","29.9499","4.71299","45.53","0","SATNPRO1963","25.798","0.36132","5"],
    [42953,"HCEP03730564","2024-12-18 17:30:00","11.1202","3.40323","27.501","4.132857142857143","7.32","2.856","1681.016","0.01","3.91","29.9355","4.71098","45.45","0","SATNPRO1963","25.6","0.35862","5"],
    [42954,"HCEP03730564","2024-12-18 17:45:00","11.1151","3.40178","27.469","4.117142857142857","7.32","2.851","1669.711","0","0","29.9255","4.70964","45.26","0","SATNPRO1963","25.722","0.36028","5"],
    [42955,"HCEP03730564","2024-12-18 18:00:00","11.1122","3.40085","27.348","4.137142857142857","7.31","2.736","1775.394","0","3.25","29.9188","4.70873","45.47","0","SATNPRO1963","25.608","0.35866","5"],
    [42956,"HCEP03730564","2024-12-18 18:15:00","11.107","3.39905","27.385","4.141428571428572","7.31","2.857","1610.975","0.01","3.95","29.9055","4.70692","45.52","0","SATNPRO1963","25.478","0.35686","5"],
    [42957,"HCEP03730564","2024-12-18 18:30:00","11.0973","3.39567","27.418","4.140000000000001","7.31","2.855","1601.064","0","0.54","29.8803","4.70349","45.48","0","SATNPRO1963","25.628","0.35894","5"],
    [42958,"HCEP03730564","2024-12-18 18:45:00","11.09","3.39331","27.424","4.131428571428572","7.31","2.75","1740.997","0","4.06","29.8632","4.70117","45.38","0","SATNPRO1963","25.532","0.3576","5"],
    [42959,"HCEP03730564","2024-12-18 19:00:00","11.0799","3.39066","27.393","4.137142857142857","7.31","2.851","1584.227","0","4.57","29.8455","4.69881","45.43","0","SATNPRO1963","25.502","0.35718","5"],
    [42960,"HCEP03730564","2024-12-18 19:15:00","11.0784","3.39058","27.322","4.147142857142858","7.31","2.852","1574.866","0","0.94","29.8461","4.69891","45.54","0","SATNPRO1963","25.774","0.361","5"],
    [42961,"HCEP03730564","2024-12-18 19:30:00","11.0847","3.39153","27.25","4.157142857142858","7.31","2.749","1760.29","0","2.97","29.8502","4.69939","45.66","0","SATNPRO1963","25.522000000000002","0.3575","5"],
    [42962,"HCEP03730564","2024-12-18 19:45:00","11.091","3.39316","27.235","4.142857142857143","7.31","2.868","1593.514","0.01","4.37","29.861","4.70084","45.5","0","SATNPRO1963","25.492","0.35708","5"],
    [42963,"HCEP03730564","2024-12-18 20:00:00","11.0766","3.39042","27.208","4.142857142857143","7.32","2.868","1582.915","0","1.08","29.846","4.69891","45.48","0","SATNPRO1963","25.637999999999998","0.35912","5"],
    [42964,"HCEP03730564","2024-12-18 20:15:00","11.0646","3.38754","27.119","4.184285714285714","7.31","2.716","1753.527","0","4.13","29.8277","4.69649","45.92","0","SATNPRO1963","25.608","0.35866","5"],
    [42965,"HCEP03730564","2024-12-18 20:30:00","11.0615","3.38627","27.013","4.212857142857143","7.31","2.886","1529.537","0","3.54","29.8179","4.69514","46.24","0","SATNPRO1963","25.694","0.35992","5"],
    [42966,"HCEP03730564","2024-12-18 20:45:00","11.0622","3.38578","26.915","4.214285714285714","7.31","2.887","1520.671","0","0.54","29.8125","4.69436","46.25","0","SATNPRO1963","25.6","0.35858","5"],
    [42967,"HCEP03730564","2024-12-18 21:00:00","11.0622","3.38502","26.747","4.198571428571428","7.31","2.715","1745.956","0","2.24","29.8051","4.6933","46.06","0","SATNPRO1963","25.576","0.35822","5"],
    [42968,"HCEP03730564","2024-12-18 21:15:00","11.0618","3.38449","26.525","4.175714285714286","7.31","2.874","1540.74","0","5.77","29.8004","4.69263","45.83","0","SATNPRO1963","25.483999999999998","0.35694","5"],
    [42969,"HCEP03730564","2024-12-18 21:30:00","11.0605","3.38361","26.293","4.168571428571429","7.31","2.873","1528.563","0","1.01","29.793","4.69158","45.74","0","SATNPRO1963","25.43","0.35622","5"],
    [42970,"HCEP03730564","2024-12-18 21:45:00","11.0622","3.38455","26.041","4.17","7.31","2.729","1733.535","0","5.4","29.8008","4.69265","45.76","0","SATNPRO1963","25.676000000000002","0.35962","5"],
    [42971,"HCEP03730564","2024-12-18 22:00:00","11.0588","3.38427","25.803","4.19","7.31","2.852","1544.49","0","4.57","29.801","4.69271","45.97","0","SATNPRO1963","25.498","0.3571","5"],
    [42972,"HCEP03730564","2024-12-18 22:15:00","11.0571","3.38411","25.555","4.204285714285715","7.31","2.851","1531.481","0","1.15","29.8008","4.6927","46.13","0","SATNPRO1963","25.692","0.35984","5"],
    [42973,"HCEP03730564","2024-12-18 22:30:00","11.0549","3.38366","25.284","4.220000000000001","7.31","2.727","1720.377","0","4.57","29.7984","4.69237","46.29","0","SATNPRO1963","25.788","0.36122","5"],
    [42974,"HCEP03730564","2024-12-18 22:45:00","11.0528","3.38331","25.044","4.227142857142858","7.31","2.828","1501.413","0","3.7","29.7967","4.69215","46.37","0","SATNPRO1963","25.76","0.36082","5"],
    [42975,"HCEP03730564","2024-12-18 23:00:00","11.051","3.38287","24.849","4.235714285714286","7.32","2.827","1491.443","0","0.77","29.794","4.69179","46.47","0","SATNPRO1963","25.498","0.35714","5"],
    [42976,"HCEP03730564","2024-12-18 23:15:00","11.0503","3.38269","24.671","4.241428571428571","7.32","2.674","1696.801","0","5.79","29.7928","4.69162","46.52","0","SATNPRO1963","25.686","0.35978","5"],
    [42977,"HCEP03730564","2024-12-18 23:30:00","11.0507","3.38277","24.537","4.241428571428571","7.32","2.834","1512.623","0.01","4.42","29.7934","4.69168","46.53","0","SATNPRO1963","25.637999999999998","0.35914","5"],
    [42978,"HCEP03730564","2024-12-18 23:45:00","11.0518","3.38292","24.43","4.237142857142858","7.32","2.832","1501.996","0","0.38","29.794","4.69176","46.48","0","SATNPRO1963","25.832","0.36182","5"],
    [42979,"HCEP03730564","2024-12-19 00:00:00","11.0528","3.38304","24.345","4.222857142857143","7.32","2.682","1735.952","0","3.25","29.7944","4.69178","46.33","0","SATNPRO1963","25.708","0.36012","5"],
    [42980,"HCEP03730564","2024-12-19 00:15:00","11.0548","3.38333","24.246","4.224285714285714","7.32","2.836","1489.059","0.01","5.05","29.7956","4.69193","46.34","0","SATNPRO1963","25.742","0.36056","5"],
    [42981,"HCEP03730564","2024-12-19 00:30:00","11.0555","3.38354","24.214","4.214285714285714","7.32","2.836","1479.092","0","0","29.7971","4.69213","46.24","0","SATNPRO1963","25.544","0.35778","5"],
    [42982,"HCEP03730564","2024-12-19 00:45:00","11.0564","3.38373","24.237","4.205714285714286","7.31","2.703","1737.786","0.01","4.94","29.7983","4.69228","46.13","0","SATNPRO1963","25.59","0.3584","5"],
    [42983,"HCEP03730564","2024-12-19 01:00:00","11.0578","3.38408","24.286","4.182857142857143","7.32","2.854","1514.109","0.01","4.54","29.8006","4.69259","45.9","0","SATNPRO1963","25.567999999999998","0.35814","5"],
    [42984,"HCEP03730564","2024-12-19 01:15:00","11.0579","3.38437","24.345","4.172857142857143","7.32","2.851","1502.708","0","0.86","29.8033","4.69297","45.79","0","SATNPRO1963","25.47","0.35676","5"],
    [42985,"HCEP03730564","2024-12-19 01:30:00","11.0566","3.38446","24.438","4.178571428571429","7.31","2.714","1742.028","0","4.1","29.8051","4.69326","45.85","0","SATNPRO1963","25.599999999999998","0.35858","5"],
    [42986,"HCEP03730564","2024-12-19 01:45:00","11.0539","3.384","24.518","4.187142857142858","7.31","2.861","1567.53","0.01","4.54","29.8028","4.69297","45.94","0","SATNPRO1963","25.516000000000002","0.35738","5"],
    [42987,"HCEP03730564","2024-12-19 02:00:00","11.0519","3.38374","24.651","4.205714285714286","7.32","2.86","1556.929","0","0","29.8018","4.69287","46.14","0","SATNPRO1963","25.742","0.36054","5"],
    [42988,"HCEP03730564","2024-12-19 02:15:00","11.052","3.38366","24.787","4.225714285714286","7.32","2.719","1764.87","0","3.99","29.8009","4.69275","46.36","0","SATNPRO1963","25.602","0.35858","5"],
    [42989,"HCEP03730564","2024-12-19 02:30:00","11.0546","3.38458","24.903","4.217142857142857","7.32","2.849","1558.674","0.01","6.44","29.8077","4.69368","46.27","0","SATNPRO1963","25.44","0.35636","5"],
    [42990,"HCEP03730564","2024-12-19 02:45:00","11.0644","3.38698","25.063","4.161428571428571","7.33","2.849","1545.99","0","1.21","29.8231","4.69573","45.66","0","SATNPRO1963","25.382","0.35552","5"],
    [42991,"HCEP03730564","2024-12-19 03:00:00","11.0686","3.38767","25.167","4.101428571428571","7.32","2.745","1716.344","0","4.67","29.8264","4.69614","45.02","0","SATNPRO1963","25.398","0.35574","5"],
    [42992,"HCEP03730564","2024-12-19 03:15:00","11.0802","3.39012","25.318","4.011428571428572","7.32","2.871","1552.396","0.01","4.82","29.841","4.69804","44.04","0","SATNPRO1963","25.162","0.35244","5"],
    [42993,"HCEP03730564","2024-12-19 03:30:00","11.0809","3.39146","25.514","3.991428571428572","7.32","2.874","1541.527","0","0.77","29.8533","4.69979","43.83","0","SATNPRO1963","25.088","0.35142","5"],
    [42994,"HCEP03730564","2024-12-19 03:45:00","11.0673","3.38745","25.711","3.98","7.31","2.761","1788.047","0","2.92","29.8252","4.69602","43.69","0","SATNPRO1963","25.322","0.35468","5"],
    [42995,"HCEP03730564","2024-12-19 04:00:00","11.0598","3.38652","25.897","4.071428571428572","7.31","2.87","1636.748","0.01","5.2","29.8221","4.69571","44.67","0","SATNPRO1963","25.36","0.3552","5"],
    [42996,"HCEP03730564","2024-12-19 04:15:00","11.0705","3.38934","26.131","4.095714285714286","7.33","2.871","1625.287","0","1.08","29.8408","4.69821","44.96","0","SATNPRO1963","25.38","0.35548","5"],
    [42997,"HCEP03730564","2024-12-19 04:30:00","11.0735","3.39021","26.344","4.071428571428572","7.32","2.772","1803.562","0","3.8","29.846800000000002","4.69903","44.7","0","SATNPRO1963","25.384","0.35554","5"],
    [42998,"HCEP03730564","2024-12-19 04:45:00","11.0748","3.39062","26.557","4.054285714285714","7.32","2.906","1670.618","0.01","5.03","29.8496","4.69943","44.51","0","SATNPRO1963","25.562","0.35802","5"],
    [42999,"HCEP03730564","2024-12-19 05:00:00","11.0661","3.38846","26.78","4.067142857142858","7.32","2.906","1660.043","0","0.77","29.8355","4.69757","44.64","0","SATNPRO1963","25.568","0.35812","5"],
    [43000,"HCEP03730564","2024-12-19 05:15:00","11.0767","3.39158","27.02","4.087142857142857","7.32","2.801","1820.146","0","3.34","29.8574","4.70052","44.88","0","SATNPRO1963","25.392","0.35566","5"],
    [43001,"HCEP03730564","2024-12-19 05:30:00","11.0813","3.39343","27.284","4.057142857142857","7.32","2.899","1686.284","0.01","4.7","29.8716","4.70249","44.55","0","SATNPRO1963","25.266","0.35388","5"],
    [43002,"HCEP03730564","2024-12-19 05:45:00","11.0797","3.39428","27.592","4.05","7.32","2.899","1672.643","0","0.54","29.8809","4.70386","44.48","0","SATNPRO1963","25.17","0.35254","5"],
    [43003,"HCEP03730564","2024-12-19 06:00:00","11.1003","3.40439","27.919","4.054285714285714","7.32","2.82","1803.005","0","2.6","29.9628","4.71518","44.57","0","SATNPRO1963","25.33","0.3548","5"],
    [43004,"HCEP03730564","2024-12-19 06:15:00","11.1206","3.41753","28.15","4.072857142857143","7.32","2.901","1679.977","0","4.82","30.0743","4.73072","44.81","0","SATNPRO1963","25.734","0.36046","5"],
    [43005,"HCEP03730564","2024-12-19 06:30:00","11.1323","3.42273","28.211","4.21","7.33","2.9","1666.263","0","0","30.1155","4.73639","46.36","0","SATNPRO1963","25.81","0.3615","5"],
    [43006,"HCEP03730564","2024-12-19 06:45:00","11.1355","3.42453","28.358","4.25","7.32","2.761","1792.542","0","3.21","30.1304","4.73845","46.8","0","SATNPRO1963","26.15","0.36628","5"],
    [43007,"HCEP03730564","2024-12-19 07:00:00","11.1406","3.42625","28.448","4.27","7.33","2.88","1593.931","0.01","3.3","30.1429","4.74016","47.04","0","SATNPRO1963","26.014","0.36438","5"],
    [43008,"HCEP03730564","2024-12-19 07:15:00","11.1435","3.42888","28.545","4.282857142857143","7.33","2.878","1582.226","0","0","30.1662","4.74342","47.18","0","SATNPRO1963","26.244","0.36756","5"],
    [43009,"HCEP03730564","2024-12-19 07:30:00","11.1428","3.42952","28.512","4.314285714285714","7.33","2.743","1756.633","0","3.76","30.173","4.7444","47.54","0","SATNPRO1963","26.25","0.36766","5"],
    [43010,"HCEP03730564","2024-12-19 07:45:00","11.1448","3.43025","28.477","4.332857142857143","7.33","2.862","1580.721","0","4.13","30.1785","4.74514","47.74","0","SATNPRO1963","26.233999999999998","0.36746","5"],
    [43011,"HCEP03730564","2024-12-19 08:00:00","11.146","3.42982","28.444","4.32","7.34","2.862","1568.784","0","0.77","30.1734","4.74439","47.61","0","SATNPRO1963","26.236","0.36748","5"],
    [43012,"HCEP03730564","2024-12-19 08:15:00","11.1486","3.43061","28.5","4.295714285714286","7.33","2.711","1758.324","0","2.82","30.179","4.74515","47.33","0","SATNPRO1963","26.126","0.36592","5"],
    [43013,"HCEP03730564","2024-12-19 08:30:00","11.1458","3.43237","28.506","4.298571428571429","7.33","2.867","1596.85","0.01","5.45","30.1985","4.74796","47.37","0","SATNPRO1963","26.142","0.36612","5"],
    [43014,"HCEP03730564","2024-12-19 08:45:00","11.1529","3.434","28.46","4.315714285714286","7.34","2.871","1585.403","0","1.21","30.2085","4.74927","47.57","0","SATNPRO1963","26.080000000000002","0.36526","5"],
    [43015,"HCEP03730564","2024-12-19 09:00:00","11.1213","3.4284","28.469","4.422857142857144","7.34","2.781","1700.057","0","4.1","30.1798","4.74568","48.71","0","SATNPRO1963","26.468","0.37076","5"],
    [43016,"HCEP03730564","2024-12-19 09:15:00","11.1489","3.43371","28.444","4.364285714285715","7.34","2.866","1512.957","0","3.23","30.2089","4.74939","48.1","0","SATNPRO1963","26.332","0.36888","5"],
    [43017,"HCEP03730564","2024-12-19 09:30:00","11.1443","3.43302","28.392","4.4","7.35","2.866","1501.927","0","0.86","30.206","4.74905","48.49","0","SATNPRO1963","26.131999999999998","0.36606","5"],
    [43018,"HCEP03730564","2024-12-19 09:45:00","11.1307","3.42641","28.351","4.43","7.35","2.724","1702.765","0","4.2","30.1527","4.74169","48.8","0","SATNPRO1963","26.326","0.36876","5"],
    [43019,"HCEP03730564","2024-12-19 10:00:00","11.1454","3.42931","28.218","4.308571428571429","7.34","2.881","1521.038","0","3.74","30.169","4.74377","47.47","0","SATNPRO1963","26.148","0.36622","5"],
    [43020,"HCEP03730564","2024-12-19 10:15:00","11.1476","3.42942","28.146","4.281428571428571","7.35","2.883","1508.911","0","0.94","30.1683","4.74364","47.18","0","SATNPRO1963","26.006","0.3643","5"],
    [43021,"HCEP03730564","2024-12-19 10:30:00","11.1473","3.42878","28.087","4.241428571428571","7.34","2.773","1655.608","0","5.48","30.1623","4.74279","46.73","0","SATNPRO1963","26.056","0.36498","5"],
    [43022,"HCEP03730564","2024-12-19 10:45:00","11.1459","3.42888","28.006","4.228571428571429","7.34","2.867","1539.025","0","4","30.1645","4.74312","46.58","0","SATNPRO1963","25.836","0.36188","5"],
    [43023,"HCEP03730564","2024-12-19 11:00:00","11.1477","3.42935","27.9","4.220000000000001","7.34","2.867","1529.465","0","0","30.1677","4.74354","46.49","0","SATNPRO1963","25.884","0.3626","5"],
    [43024,"HCEP03730564","2024-12-19 11:15:00","11.1413","3.42847","27.81","4.232857142857143","7.34","2.738","1689.207","0","6.42","30.1643","4.74315","46.63","0","SATNPRO1963","26.04","0.36478","5"],
    [43025,"HCEP03730564","2024-12-19 11:30:00","11.1379","3.42834","27.697","4.291428571428572","7.34","2.877","1542.533","0","2.92","30.1659","4.74342","47.28","0","SATNPRO1963","26.112000000000002","0.36572","5"],
    [43026,"HCEP03730564","2024-12-19 11:45:00","11.1329","3.42761","27.57","4.298571428571429","7.34","2.879","1532.228","0","1.15","30.1629","4.74306","47.34","0","SATNPRO1963","26.152","0.3663","5"],
    [43027,"HCEP03730564","2024-12-19 12:00:00","11.1336","3.42946","27.44","4.351428571428571","7.34","2.747","1698.643","0","8.05","30.1805","4.74553","47.93","0","SATNPRO1963","26.362","0.36922","5"],
    [43028,"HCEP03730564","2024-12-19 12:15:00","11.1371","3.43205","27.299","4.394285714285714","7.34","2.84","1527.19","0.01","6.36","30.2029","4.74865","48.42","0","SATNPRO1963","26.13","0.36598","5"],
    [43029,"HCEP03730564","2024-12-19 12:30:00","11.1403","3.43493","27.209","4.415714285714286","7.34","2.839","1514.988","0","0","30.2284","4.75221","48.66","0","SATNPRO1963","26.214000000000002","0.36714","5"],
    [43030,"HCEP03730564","2024-12-19 12:45:00","11.1429","3.4364","27.093","4.431428571428572","7.34","2.711","1665.718","0","4.13","30.2407","4.75391","48.85","0","SATNPRO1963","26.186","0.36676","5"],
    [43031,"HCEP03730564","2024-12-19 13:00:00","11.1445","3.43715","27.025","4.447142857142858","7.34","2.827","1480.465","0.01","3.93","30.2467","4.75473","49.02","0","SATNPRO1963","26.302","0.3684","5"],
    [43032,"HCEP03730564","2024-12-19 13:15:00","11.1474","3.438","26.927","4.44","7.35","2.825","1471.483","0","0.94","30.2526","4.75552","48.94","0","SATNPRO1963","26.18","0.36668","5"],
    [43033,"HCEP03730564","2024-12-19 13:30:00","11.1451","3.43863","26.847","4.46","7.35","2.724","1693.502","0","6.35","30.2607","4.7567","49.17","0","SATNPRO1963","26.21","0.36714","5"],
    [43034,"HCEP03730564","2024-12-19 13:45:00","11.1544","3.4396","26.78","4.438571428571429","7.35","2.844","1486.161","0.01","5.83","30.2626","4.75682","48.94","0","SATNPRO1963","25.9","0.36276","5"],
    [43035,"HCEP03730564","2024-12-19 14:00:00","11.1594","3.44002","26.746","4.367142857142857","7.35","2.843","1475.002","0","0","30.2625","4.75674","48.16","0","SATNPRO1963","25.996","0.36408","5"],
    [43036,"HCEP03730564","2024-12-19 14:15:00","11.1735","3.44309","26.734","4.251428571428572","7.34","2.706","1698.142","0","3.39","30.281","4.75913","46.9","0","SATNPRO1963","25.838","0.3619","5"],
    [43037,"HCEP03730564","2024-12-19 14:30:00","11.1742","3.44483","26.723","4.232857142857143","7.34","2.861","1492.682","0","3.21","30.2973","4.76144","46.71","0","SATNPRO1963","26.062","0.36504","5"],
    [43038,"HCEP03730564","2024-12-19 14:45:00","11.1731","3.44663","26.751","4.294285714285714","7.35","2.861","1483.563","0","0","30.3158","4.76407","47.38","0","SATNPRO1963","26.126","0.36592","5"],
    [43039,"HCEP03730564","2024-12-19 15:00:00","11.1733","3.44879","26.754","4.345714285714285","7.34","2.722","1695.905","0","6.18","30.3368","4.76704","47.95","0","SATNPRO1963","26.456","0.3706","5"],
    [43040,"HCEP03730564","2024-12-19 15:15:00","11.1721","3.44949","26.834","4.414285714285715","7.34","2.853","1517.276","0.01","3.82","30.3445","4.76816","48.72","0","SATNPRO1963","26.28","0.36806","5"],
    [43041,"HCEP03730564","2024-12-19 15:30:00","11.1699","3.45023","26.871","4.448571428571428","7.35","2.855","1508.659","0","0.77","30.3536","4.76948","49.1","0","SATNPRO1963","26.312","0.36856","5"],
    [43042,"HCEP03730564","2024-12-19 15:45:00","11.1664","3.45033","26.893","4.482857142857143","7.35","2.738","1679.842","0","4.02","30.3574","4.77007","49.48","0","SATNPRO1963","26.37","0.36936","5"],
    [43043,"HCEP03730564","2024-12-19 16:00:00","11.1551","3.4496","26.935","4.514285714285714","7.35","2.855","1548.418","0.01","3.76","30.3596","4.77056","49.81","0","SATNPRO1963","26.256","0.36774","5"],
    [43044,"HCEP03730564","2024-12-19 16:15:00","11.1595","3.4504","26.987","4.561428571428571","7.36","2.855","1535.786","0","0.54","30.3637","4.77109","50.33","0","SATNPRO1963","26.34","0.36894","5"],
    [43045,"HCEP03730564","2024-12-19 16:30:00","11.1462","3.4491","27.048","4.565714285714286","7.36","2.721","1709.885","0","4.54","30.3619","4.77104","50.37","0","SATNPRO1963","26.266000000000002","0.3679","5"],
    [43046,"HCEP03730564","2024-12-19 16:45:00","11.1506","3.45032","27.131","4.607142857142858","7.36","2.846","1547.709","0.01","4.51","30.3702","4.77215","50.83","0","SATNPRO1963","26.374000000000002","0.36942","5"],
    [43047,"HCEP03730564","2024-12-19 17:00:00","11.145","3.45074","27.18","4.63","7.37","2.846","1534.599","0","0.86","30.3789","4.77347","51.07","0","SATNPRO1963","26.316","0.36858","5"],
    [43048,"HCEP03730564","2024-12-19 17:15:00","11.1424","3.45092","27.224","4.698571428571429","7.37","2.708","1707.559","0","3.3","30.3828","4.77406","51.84","0","SATNPRO1963","26.388","0.36964","5"],
    [43049,"HCEP03730564","2024-12-19 17:30:00","11.1422","3.45155","27.259","4.724285714285714","7.37","2.853","1561.12","0","3.16","30.3891","4.77496","52.12","0","SATNPRO1963","26.356","0.36918","5"],
    [43050,"HCEP03730564","2024-12-19 17:45:00","11.1434","3.45191","27.331","4.72","7.37","2.854","1549.892","0","0.77","30.3916","4.7753","52.07","0","SATNPRO1963","26.204","0.367","5"],
    [43051,"HCEP03730564","2024-12-19 18:00:00","11.1448","3.45196","27.375","4.711428571428572","7.36","2.74","1713.758","0","4.02","30.391","4.77519","51.99","0","SATNPRO1963","26.326","0.36872","5"],
    [43052,"HCEP03730564","2024-12-19 18:15:00","11.1458","3.45258","27.435","4.678571428571429","7.37","2.846","1555.693","0.01","3.52","30.3961","4.77591","51.63","0","SATNPRO1963","26.338","0.36892","5"],
    [43053,"HCEP03730564","2024-12-19 18:30:00","11.1467","3.45271","27.477","4.707142857142857","7.37","2.847","1545.763","0","0","30.3966","4.77597","51.93","0","SATNPRO1963","26.368","0.36934","5"],
    [43054,"HCEP03730564","2024-12-19 18:45:00","11.1456","3.45246","27.491","4.7","7.36","2.739","1711.34","0.01","4.17","30.3951","4.77577","51.86","0","SATNPRO1963","26.432000000000002","0.37022","5"],
    [43055,"HCEP03730564","2024-12-19 19:00:00","11.1444","3.45206","27.455","4.704285714285715","7.37","2.836","1437.335","0","3.78","30.3922","4.77538","51.91","0","SATNPRO1963","26.182","0.36672","5"],
    [43056,"HCEP03730564","2024-12-19 19:15:00","11.1447","3.45205","27.421","4.691428571428571","7.37","2.836","1429.262","0","0.77","30.3918","4.77532","51.77","0","SATNPRO1963","26.288","0.36824","5"],
    [43057,"HCEP03730564","2024-12-19 19:30:00","11.1449","3.4518","27.401","4.678571428571429","7.37","2.657","1655.284","0","5.29","30.3893","4.77495","51.61","0","SATNPRO1963","26.154","0.36634","5"],
    [43058,"HCEP03730564","2024-12-19 19:45:00","11.1432","3.45149","27.365","4.662857142857143","7.37","2.843","1439.989","0","2.49","30.3876","4.77474","51.45","0","SATNPRO1963","26.302","0.3684","5"],
    [43059,"HCEP03730564","2024-12-19 20:00:00","11.1439","3.45108","27.314","4.67","7.38","2.842","1430.809","0","0","30.3831","4.77408","51.53","0","SATNPRO1963","26.22","0.36726","5"],
    [43060,"HCEP03730564","2024-12-19 20:15:00","11.1565","3.45123","27.265","4.640000000000001","7.37","2.731","1628.12","0","3.76","30.3742","4.77263","51.2","0","SATNPRO1963","25.952","0.36352","5"],
    [43061,"HCEP03730564","2024-12-19 20:30:00","11.162","3.45156","27.164","4.558571428571429","7.37","2.847","1472.933","0.01","3.41","30.3728","4.77235","50.31","0","SATNPRO1963","26.272","0.36802","5"],
    [43062,"HCEP03730564","2024-12-19 20:45:00","11.1675","3.45138","26.986","4.508571428571429","7.37","2.845","1463.814","0","0.77","30.3667","4.77138","49.76","0","SATNPRO1963","26.09","0.36542","5"],
    [43063,"HCEP03730564","2024-12-19 21:00:00","11.1718","3.45089","26.915","4.448571428571428","7.37","2.741","1628.091","0","3.8","30.3584","4.77014","49.1","0","SATNPRO1963","26.078","0.36528","5"],
    [43064,"HCEP03730564","2024-12-19 21:15:00","11.1725","3.4503","26.821","4.42","7.36","2.835","1432.332","0","3.28","30.352","4.76922","48.78","0","SATNPRO1963","26.096","0.3655","5"],
    [43065,"HCEP03730564","2024-12-19 21:30:00","11.1707","3.44972","26.622","4.421428571428572","7.36","2.835","1422.421","0","0.66","30.348","4.76866","48.79","0","SATNPRO1963","26.34","0.36892","5"],
    [43066,"HCEP03730564","2024-12-19 21:45:00","11.1644","3.44795","26.432","4.445714285714286","7.36","2.668","1670.146","0","6.23","30.336","4.76705","49.06","0","SATNPRO1963","26.13","0.366","5"],
    [43067,"HCEP03730564","2024-12-19 22:00:00","11.1585","3.44636","26.187","4.455714285714286","7.36","2.828","1444.052","0.01","3.19","30.3254","4.76562","49.15","0","SATNPRO1963","26.086","0.36538","5"],
    [43068,"HCEP03730564","2024-12-19 22:15:00","11.1529","3.44461","26.009","4.482857142857143","7.36","2.827","1433.865","0","0.77","30.3131","4.76396","49.45","0","SATNPRO1963","26.118","0.3658","5"],
    [43069,"HCEP03730564","2024-12-19 22:30:00","11.1508","3.44373","25.817","4.505714285714285","7.36","2.661","1657.289","0","5.31","30.3062","4.76301","49.69","0","SATNPRO1963","26.272","0.36798","5"],
    [43070,"HCEP03730564","2024-12-20 07:45:00","11.1139","3.42099","28.312","4.135714285714286","7.32","2.875","1635.518","0","5.09","30.1136","4.7364","45.52","0","SATNPRO1963","25.382","0.35552","5"],
    [43071,"HCEP03730564","2024-12-19 22:45:00","11.1472","3.44277","25.657","4.554285714285714","7.36","2.822","1440.78","0","3.07","30.2999","4.76216","50.22","0","SATNPRO1963","26.266000000000002","0.36792","5"],
    [43072,"HCEP03730564","2024-12-19 23:00:00","11.1461","3.44218","25.48","4.56","7.36","2.821","1430.348","0","0","30.2951","4.76148","50.29","0","SATNPRO1963","26.428","0.37018","5"],
    [43073,"HCEP03730564","2024-12-19 23:15:00","11.1454","3.44147","25.285","4.554285714285714","7.36","2.703","1601.615","0","3.68","30.2888","4.76059","50.22","0","SATNPRO1963","26.118","0.3658","5"],
    [43074,"HCEP03730564","2024-12-19 23:30:00","11.1458","3.44122","25.11","4.527142857142858","7.36","2.826","1434.532","0.01","2.92","30.2862","4.7602","49.92","0","SATNPRO1963","26.268","0.36794","5"],
    [43075,"HCEP03730564","2024-12-19 23:45:00","11.1464","3.44139","24.95","4.504285714285714","7.36","2.825","1424.289","0","0","30.2873","4.76035","49.67","0","SATNPRO1963","26.099999999999998","0.36558","5"],
    [43076,"HCEP03730564","2024-12-20 00:00:00","11.1465","3.44139","24.753","4.494285714285715","7.35","2.655","1618.428","0","2.54","30.2874","4.76035","49.56","0","SATNPRO1963","26.128","0.366","5"],
    [43077,"HCEP03730564","2024-12-20 00:15:00","11.1451","3.44096","24.605","4.482857142857143","7.35","2.805","1423.713","0.01","5.62","30.284300000000002","4.75992","49.42","0","SATNPRO1963","26.138","0.36614","5"],
    [43078,"HCEP03730564","2024-12-20 00:30:00","11.1434","3.44012","24.485","4.478571428571429","7.36","2.803","1412.269","0","0","30.2775","4.75898","49.38","0","SATNPRO1963","26.24","0.36758","5"],
    [43079,"HCEP03730564","2024-12-20 00:45:00","11.1406","3.43859","24.369","4.472857142857142","7.35","2.678","1638.181","0","3.39","30.265","4.75723","49.31","0","SATNPRO1963","26.308","0.3685","5"],
    [43080,"HCEP03730564","2024-12-20 01:00:00","11.1369","3.43666","24.289","4.452857142857143","7.35","2.816","1432.005","0.01","2.24","30.2492","4.75506","49.08","0","SATNPRO1963","26.158","0.36636","5"],
    [43081,"HCEP03730564","2024-12-20 01:15:00","11.1343","3.43502","24.359","4.428571428571429","7.35","2.815","1422.232","0","0","30.2354","4.75313","48.8","0","SATNPRO1963","26.046","0.36482","5"],
    [43082,"HCEP03730564","2024-12-20 01:30:00","11.1309","3.43355","24.393","4.407142857142858","7.35","2.683","1574.695","0","2.49","30.2238","4.75154","48.55","0","SATNPRO1963","26.04","0.36472","5"],
    [43083,"HCEP03730564","2024-12-20 01:45:00","11.1288","3.43234","24.435","4.381428571428572","7.34","2.82","1437.429","0.01","3.19","30.2137","4.75015","48.27","0","SATNPRO1963","26.086","0.36538","5"],
    [43084,"HCEP03730564","2024-12-20 02:00:00","11.1274","3.43113","24.55","4.355714285714286","7.35","2.819","1428.679","0","0","30.2029","4.74864","47.99","0","SATNPRO1963","25.88","0.36248","5"],
    [43085,"HCEP03730564","2024-12-20 02:15:00","11.127","3.43019","24.592","4.332857142857143","7.34","2.699","1591.509","0","3.16","30.1941","4.74741","47.72","0","SATNPRO1963","25.669999999999998","0.35958","5"],
    [43086,"HCEP03730564","2024-12-20 02:30:00","11.1266","3.42961","24.696","4.311428571428571","7.34","2.844","1464.613","0","3.19","30.1887","4.74665","47.49","0","SATNPRO1963","25.876","0.36242","5"],
    [43087,"HCEP03730564","2024-12-20 02:45:00","11.1261","3.42905","24.799","4.292857142857143","7.34","2.845","1454.098","0","0.38","30.1836","4.74594","47.29","0","SATNPRO1963","25.752","0.36072","5"],
    [43088,"HCEP03730564","2024-12-20 03:00:00","11.1261","3.42855","24.937","4.275714285714286","7.33","2.711","1691.291","0.01","4.54","30.1788","4.74527","47.09","0","SATNPRO1963","25.72","0.3602","5"],
    [43089,"HCEP03730564","2024-12-20 03:15:00","11.1261","3.42826","25.02","4.27","7.33","2.854","1557.116","0","3.07","30.1759","4.74486","47.02","0","SATNPRO1963","25.89","0.36266","5"],
    [43090,"HCEP03730564","2024-12-20 03:30:00","11.1258","3.42798","25.18","4.255714285714286","7.34","2.856","1544.927","0","0.54","30.1733","4.7445","46.87","0","SATNPRO1963","25.918","0.36306","5"],
    [43091,"HCEP03730564","2024-12-20 03:45:00","11.1255","3.42737","25.314","4.244285714285715","7.33","2.756","1724.685","0","3.99","30.1675","4.74369","46.74","0","SATNPRO1963","26.036","0.36466","5"],
    [43092,"HCEP03730564","2024-12-20 04:00:00","11.124","3.42641","25.48","4.231428571428572","7.33","2.871","1613.298","0","3.95","30.1592","4.74256","46.59","0","SATNPRO1963","25.672","0.35958","5"],
    [43093,"HCEP03730564","2024-12-20 04:15:00","11.1221","3.42535","25.602","4.221428571428572","7.34","2.873","1601.382","0","0.54","30.1504","4.74135","46.49","0","SATNPRO1963","25.759999999999998","0.36082","5"],
    [43094,"HCEP03730564","2024-12-20 04:30:00","11.119","3.42356","25.755","4.221428571428572","7.33","2.785","1732.157","0","3.72","30.1355","4.73928","46.47","0","SATNPRO1963","25.72","0.36024","5"],
    [43095,"HCEP03730564","2024-12-20 04:45:00","11.1169","3.42274","25.94","4.211428571428572","7.33","2.868","1647.203","0","2.43","30.1291","4.73842","46.36","0","SATNPRO1963","25.684","0.35978","5"],
    [43096,"HCEP03730564","2024-12-20 05:00:00","11.1164","3.42216","26.169","4.19","7.33","2.87","1635.134","0","0","30.1238","4.73769","46.13","0","SATNPRO1963","25.746","0.36064","5"],
    [43097,"HCEP03730564","2024-12-20 05:15:00","11.114","3.42111","26.36","4.185714285714286","7.32","2.797","1752.324","0","3.47","30.1154","4.73655","46.07","0","SATNPRO1963","25.652","0.35928","5"],
    [43098,"HCEP03730564","2024-12-20 05:30:00","11.1107","3.41948","26.583","4.17","7.32","2.858","1531.687","0","7.04","30.1021","4.73471","45.89","0","SATNPRO1963","25.674000000000003","0.35962","5"],
    [43099,"HCEP03730564","2024-12-20 05:45:00","11.1086","3.41838","26.781","4.174285714285714","7.33","2.86","1518.55","0","0","30.093","4.73347","45.93","0","SATNPRO1963","25.612","0.35872","5"],
    [43100,"HCEP03730564","2024-12-20 06:00:00","11.1115","3.419","27.031","4.164285714285715","7.32","2.723","1725.168","0","4.13","30.0966","4.73395","45.83","0","SATNPRO1963","25.674","0.35964","5"],
    [43101,"HCEP03730564","2024-12-20 06:15:00","11.1157","3.4207","27.257","4.144285714285714","7.32","2.869","1630.032","0","2.49","30.1097","4.73576","45.62","0","SATNPRO1963","25.61","0.35872","5"],
    [43102,"HCEP03730564","2024-12-20 06:30:00","11.113","3.41984","27.468","4.135714285714286","7.33","2.869","1617.539","0","0.54","30.1033","4.73491","45.51","0","SATNPRO1963","25.732","0.36044","5"],
    [43103,"HCEP03730564","2024-12-20 06:45:00","11.1151","3.42081","27.669","4.132857142857143","7.32","2.785","1776.592","0","4.44","30.1111","4.73599","45.48","0","SATNPRO1963","25.88","0.36246","5"],
    [43104,"HCEP03730564","2024-12-20 07:00:00","11.1153","3.42123","27.834","4.13","7.32","2.874","1653.911","0","3.6","30.1149","4.73654","45.47","0","SATNPRO1963","25.698","0.35996","5"],
    [43105,"HCEP03730564","2024-12-20 07:15:00","11.1142","3.42083","28.025","4.135714285714286","7.33","2.876","1641.829","0","0","30.1118","4.73613","45.52","0","SATNPRO1963","25.726","0.36032","5"],
    [43106,"HCEP03730564","2024-12-20 07:30:00","11.1139","3.42077","28.16","4.135714285714286","7.32","2.809","1766.535","0","3.95","30.1114","4.73608","45.53","0","SATNPRO1963","25.602","0.3586","5"],
    [43107,"HCEP03730564","2024-12-20 08:00:00","11.1112","3.42031","28.397","4.144285714285714","7.33","2.878","1622.664","0","0","30.1091","4.73581","45.61","0","SATNPRO1963","25.712","0.36014","5"],
    [43108,"HCEP03730564","2024-12-20 08:15:00","11.0992","3.41715","28.545","4.151428571428572","7.32","2.785","1775.946","0","2.6","30.088","4.733","45.67","0","SATNPRO1963","25.654","0.35934","5"],
    [43109,"HCEP03730564","2024-12-20 08:30:00","11.0982","3.41679","28.615","4.165714285714286","7.32","2.875","1635.969","0","3.47","30.0853","4.73263","45.82","0","SATNPRO1963","25.722","0.36026","5"],
    [43110,"HCEP03730564","2024-12-20 08:45:00","11.0988","3.41693","28.597","4.171428571428572","7.32","2.878","1624.704","0","1.44","30.0861","4.73275","45.88","0","SATNPRO1963","25.584","0.35834","5"],
    [43111,"HCEP03730564","2024-12-20 09:00:00","11.099","3.4169","28.603","4.164285714285715","7.32","2.781","1756.16","0","3.95","30.0858","4.73269","45.8","0","SATNPRO1963","25.753999999999998","0.36074","5"],
    [43112,"HCEP03730564","2024-12-20 09:15:00","11.0956","3.41631","28.636","4.162857142857143","7.32","2.851","1586.239","0","3.64","30.0827","4.73231","45.79","0","SATNPRO1963","25.474","0.35678","5"],
    [43113,"HCEP03730564","2024-12-20 09:30:00","11.0876","3.41426","28.61","4.178571428571429","7.32","2.851","1575.755","0","0","30.0692","4.73051","45.96","0","SATNPRO1963","25.768","0.36092","5"],
    [43114,"HCEP03730564","2024-12-20 09:45:00","11.0949","3.4171","28.606","4.181428571428572","7.32","2.721","1741.588","0","3.39","30.091","4.73349","46","0","SATNPRO1963","25.596","0.35852","5"],
    [43115,"HCEP03730564","2024-12-20 10:00:00","11.0973","3.41822","28.58","4.181428571428572","7.32","2.837","1578.481","0.01","3.25","30.1","4.73473","46.01","0","SATNPRO1963","25.794","0.36126","5"],
    [43116,"HCEP03730564","2024-12-20 10:15:00","11.0964","3.41765","28.425","4.174285714285714","7.32","2.837","1566.998","0","0","30.0952","4.73407","45.93","0","SATNPRO1963","25.976","0.36384","5"],
    [43117,"HCEP03730564","2024-12-20 10:30:00","11.0943","3.41612","28.288","4.167142857142857","7.32","2.708","1710.261","0","5.03","30.082","4.73221","45.84","0","SATNPRO1963","25.704","0.36002","5"],
    [43118,"HCEP03730564","2024-12-20 10:45:00","11.0882","3.41345","28.039","4.17","7.32","2.819","1538.077","0.01","3.45","30.0611","4.72932","45.86","0","SATNPRO1963","25.740000000000002","0.36056","5"],
    [43119,"HCEP03730564","2024-12-20 11:00:00","11.0839","3.41228","27.887","4.177142857142857","7.32","2.817","1525.437","0","0.66","30.0532","4.72826","45.93","0","SATNPRO1963","26.002","0.36416","5"],
    [43120,"HCEP03730564","2024-12-20 11:15:00","11.0845","3.41228","27.805","4.187142857142858","7.32","2.706","1672.292","0","4.91","30.0527","4.72818","46.04","0","SATNPRO1963","25.962","0.36364","5"],
    [43121,"HCEP03730564","2024-12-20 11:30:00","11.0854","3.41285","27.783","4.19","7.32","2.814","1508.982","0.01","3.41","30.0575","4.72885","46.07","0","SATNPRO1963","25.9","0.36278","5"],
    [43122,"HCEP03730564","2024-12-20 11:45:00","11.0837","3.41287","27.684","4.195714285714286","7.33","2.815","1499.306","0","0.94","30.0592","4.7291","46.13","0","SATNPRO1963","25.862","0.36226","5"],
    [43123,"HCEP03730564","2024-12-20 12:00:00","11.0756","3.40958","27.593","4.208571428571429","7.32","2.712","1663.958","0","3.84","30.0336","4.72559","46.26","0","SATNPRO1963","25.858","0.36218","5"],
    [43124,"HCEP03730564","2024-12-20 12:15:00","11.0746","3.40931","27.491","4.257142857142857","7.32","2.82","1529.184","0","2.36","30.0319","4.72536","46.79","0","SATNPRO1963","26.074","0.36526","5"],
    [43125,"HCEP03730564","2024-12-20 12:30:00","11.0767","3.41054","27.381","4.281428571428571","7.33","2.821","1518.283","0","0.86","30.0423","4.72679","47.06","0","SATNPRO1963","25.924","0.3631","5"],
    [43126,"HCEP03730564","2024-12-20 12:45:00","11.0778","3.41115","27.294","4.261428571428572","7.32","2.724","1660.137","0","5.92","30.0473","4.72749","46.85","0","SATNPRO1963","25.916","0.36304","5"],
    [43127,"HCEP03730564","2024-12-20 13:00:00","11.0752","3.41233","27.208","4.288571428571428","7.32","2.82","1526.298","0.01","3.68","30.061","4.72946","47.15","0","SATNPRO1963","26.206","0.36708","5"],
    [43128,"HCEP03730564","2024-12-20 13:15:00","11.0787","3.41418","27.099","4.357142857142857","7.33","2.818","1514.834","0","0","30.0763","4.73157","47.91","0","SATNPRO1963","26.326","0.36876","5"],
    [43129,"HCEP03730564","2024-12-20 13:30:00","11.0813","3.4163","26.994","4.401428571428571","7.33","2.719","1687.235","0","3.02","30.0949","4.73417","48.41","0","SATNPRO1963","26.166","0.3665","5"],
    [43130,"HCEP03730564","2024-12-20 13:45:00","11.0816","3.41675","26.892","4.46","7.33","2.801","1519.437","0.01","3.72","30.0991","4.73476","49.05","0","SATNPRO1963","26.064","0.36506","5"],
    [43131,"HCEP03730564","2024-12-20 14:00:00","11.0821","3.41731","26.806","4.477142857142857","7.34","2.799","1508.659","0","0","30.1042","4.73546","49.24","0","SATNPRO1963","26.228","0.36738","5"],
    [43132,"HCEP03730564","2024-12-20 14:15:00","11.0846","3.41829","26.719","4.484285714285714","7.33","2.692","1712.092","0","5.06","30.1118","4.7365","49.33","0","SATNPRO1963","26.3","0.36836","5"],
    [43133,"HCEP03730564","2024-12-20 14:30:00","11.086","3.41887","26.633","4.477142857142857","7.33","2.807","1478.502","0","4.74","30.1163","4.73711","49.26","0","SATNPRO1963","26.14","0.36612","5"],
    [43134,"HCEP03730564","2024-12-20 14:45:00","11.0865","3.41896","26.554","4.468571428571429","7.34","2.81","1468.162","0","0","30.1169","4.73718","49.16","0","SATNPRO1963","26.233999999999998","0.36748","5"],
    [43135,"HCEP03730564","2024-12-20 15:00:00","11.0959","3.41876","26.529","4.427142857142858","7.33","2.703","1644.97","0","2.92","30.1072","4.73567","48.71","0","SATNPRO1963","25.97","0.36378","5"],
    [43136,"HCEP03730564","2024-12-20 15:15:00","11.1076","3.42252","26.499","4.242857142857143","7.32","2.817","1497.693","0.01","4.25","30.1344","4.73934","46.69","0","SATNPRO1963","25.808","0.36146","5"],
    [43137,"HCEP03730564","2024-12-20 15:30:00","11.1153","3.42575","26.534","4.212857142857143","7.32","2.82","1487.639","0","1.08","30.1595","4.74279","46.38","0","SATNPRO1963","25.962","0.36364","5"],
    [43138,"HCEP03730564","2024-12-20 15:45:00","11.1186","3.42722","26.536","4.217142857142857","7.32","2.727","1658.94","0","4.44","30.1712","4.7444","46.43","0","SATNPRO1963","25.848","0.36202","5"],
    [43139,"HCEP03730564","2024-12-20 16:00:00","11.1147","3.42655","26.567","4.241428571428571","7.31","2.826","1519.466","0","4.31","30.1678","4.74397","46.69","0","SATNPRO1963","26.122","0.36588","5"],
    [43140,"HCEP03730564","2024-12-20 16:15:00","11.1174","3.42729","26.639","4.281428571428571","7.32","2.828","1507.051","0","0.54","30.1728","4.74465","47.15","0","SATNPRO1963","26.082","0.36532","5"],
    [43141,"HCEP03730564","2024-12-20 16:30:00","11.1186","3.42797","26.657","4.281428571428571","7.32","2.711","1722.575","0","3.68","30.1785","4.74543","47.15","0","SATNPRO1963","26.132","0.366","5"],
    [43142,"HCEP03730564","2024-12-20 16:45:00","11.1199","3.42862","26.682","4.287142857142857","7.32","2.808","1599.797","0","5.37","30.1837","4.74616","47.22","0","SATNPRO1963","26.074","0.3652","5"],
    [43143,"HCEP03730564","2024-12-20 17:00:00","11.1211","3.42917","26.718","4.298571428571429","7.33","2.807","1588.626","0","0","30.1882","4.74678","47.34","0","SATNPRO1963","26.214","0.36716","5"],
    [43144,"HCEP03730564","2024-12-20 17:15:00","11.1225","3.42972","26.756","4.295714285714286","7.33","2.715","1707.693","0","2.3","30.1923","4.74734","47.32","0","SATNPRO1963","26.067999999999998","0.36514","5"],
    [43145,"HCEP03730564","2024-12-20 17:30:00","11.1229","3.42977","26.812","4.284285714285715","7.33","2.804","1530.185","0.01","3.3","30.1925","4.74736","47.19","0","SATNPRO1963","25.919999999999998","0.36306","5"],
    [43146,"HCEP03730564","2024-12-20 17:45:00","11.1225","3.43002","26.833","4.285714285714286","7.33","2.801","1520.783","0","0.66","30.1953","4.74776","47.2","0","SATNPRO1963","26.336000000000002","0.3689","5"],
    [43147,"HCEP03730564","2024-12-20 18:00:00","11.1224","3.42981","26.876","4.297142857142857","7.33","2.694","1686.49","0","2.82","30.1933","4.74749","47.32","0","SATNPRO1963","26.05","0.36488","5"],
    [43148,"HCEP03730564","2024-12-20 18:15:00","11.1224","3.42965","26.929","4.292857142857143","7.33","2.805","1495.477","0","2.92","30.1916","4.74726","47.28","0","SATNPRO1963","26.146","0.3662","5"],
    [43149,"HCEP03730564","2024-12-20 18:30:00","11.1233","3.43013","26.976","4.302857142857143","7.33","2.808","1486.792","0","1.08","30.1956","4.7478","47.39","0","SATNPRO1963","26.348","0.369","5"],
    [43150,"HCEP03730564","2024-12-20 18:45:00","11.1252","3.43088","27.006","4.301428571428572","7.33","2.696","1653.911","0","3.43","30.2013","4.74859","47.38","0","SATNPRO1963","26.22","0.36726","5"],
    [43151,"HCEP03730564","2024-12-20 19:00:00","11.1255","3.43106","26.995","4.285714285714286","7.33","2.816","1445.597","0","5.17","30.2028","4.7488","47.22","0","SATNPRO1963","25.904","0.36284","5"],
    [43152,"HCEP03730564","2024-12-20 19:15:00","11.1252","3.43095","27.045","4.3","7.33","2.82","1433.946","0","0.38","30.202","4.74869","47.37","0","SATNPRO1963","26.29","0.36822","5"],
    [43153,"HCEP03730564","2024-12-20 19:30:00","11.1262","3.43102","27.074","4.274285714285714","7.33","2.707","1692.02","0","3.6","30.2018","4.74866","47.08","0","SATNPRO1963","26.072","0.36518","5"],
    [43154,"HCEP03730564","2024-12-20 19:45:00","11.1262","3.43119","27.054","4.235714285714286","7.33","2.813","1526.509","0","3.54","30.2035","4.74889","46.66","0","SATNPRO1963","25.88","0.36248","5"],
    [43155,"HCEP03730564","2024-12-20 20:00:00","11.1261","3.431","27.022","4.232857142857143","7.34","2.814","1515.506","0","0.86","30.2018","4.74865","46.62","0","SATNPRO1963","25.976","0.36384","5"],
    [43156,"HCEP03730564","2024-12-20 20:15:00","11.1247","3.43027","27.016","4.220000000000001","7.33","2.694","1711.026","0","5","30.1958","4.74782","46.48","0","SATNPRO1963","26.002","0.3642","5"],
    [43157,"HCEP03730564","2024-12-20 20:30:00","11.1238","3.42987","26.987","4.215714285714286","7.33","2.811","1566.114","0","3.16","30.1926","4.74738","46.43","0","SATNPRO1963","25.868","0.36234","5"],
    [43158,"HCEP03730564","2024-12-20 20:45:00","11.1189","3.42784","26.89","4.2","7.34","2.813","1556.033","0","0","30.1768","4.74521","46.25","0","SATNPRO1963","25.89","0.36266","5"],
    [43159,"HCEP03730564","2024-12-20 21:00:00","11.1067","3.42564","26.782","4.214285714285714","7.34","2.709","1670.913","0","4.51","30.1655","4.74377","46.39","0","SATNPRO1963","25.982","0.36392","5"],
    [43160,"HCEP03730564","2024-12-20 21:15:00","11.1064","3.42619","26.746","4.304285714285714","7.34","2.789","1506.808","0.01","6.88","30.1711","4.74458","47.39","0","SATNPRO1963","26.04","0.36476","5"],
    [43161,"HCEP03730564","2024-12-20 21:30:00","11.1013","3.42524","26.626","4.337142857142857","7.34","2.786","1493.25","0","0","30.166","4.74392","47.73","0","SATNPRO1963","26.104","0.36564","5"],
    [43162,"HCEP03730564","2024-12-20 21:45:00","11.1012","3.42598","26.606","4.38","7.34","2.66","1667.226","0","3.21","30.1734","4.74497","48.22","0","SATNPRO1963","26.182000000000002","0.3667","5"],
    [43163,"HCEP03730564","2024-12-20 22:00:00","11.106","3.42704","26.536","4.402857142857143","7.34","2.788","1507.003","0","6.48","30.1798","4.74581","48.48","0","SATNPRO1963","26.236","0.36748","5"],
    [43164,"HCEP03730564","2024-12-20 22:15:00","11.1071","3.42741","26.464","4.4","7.34","2.792","1494.572","0","0","30.1825","4.74617","48.44","0","SATNPRO1963","26.114","0.36576","5"],
    [43165,"HCEP03730564","2024-12-20 22:30:00","11.1041","3.42618","26.378","4.401428571428571","7.34","2.68","1670.245","0","2.6","30.173","4.74486","48.45","0","SATNPRO1963","26.424","0.37012","5"],
    [43166,"HCEP03730564","2024-12-20 22:45:00","11.1014","3.42513","26.319","4.404285714285715","7.34","2.791","1526.186","0","3.84","30.165","4.74377","48.47","0","SATNPRO1963","26.188","0.36682","5"],
    [43167,"HCEP03730564","2024-12-20 23:00:00","11.0973","3.42333","26.316","4.414285714285715","7.34","2.792","1514.357","0","0.77","30.1508","4.74181","48.58","0","SATNPRO1963","26.336","0.36886","5"],
    [43168,"HCEP03730564","2024-12-20 23:15:00","11.0947","3.42192","26.177","4.42","7.34","2.672","1654.68","0","5.03","30.1392","4.7402","48.64","0","SATNPRO1963","26.214","0.3672","5"],
    [43169,"HCEP03730564","2024-12-20 23:30:00","11.0937","3.4213","26.03","4.407142857142858","7.33","2.797","1497.44","0","3.14","30.1341","4.73948","48.49","0","SATNPRO1963","26.226","0.36736","5"],
    [43170,"HCEP03730564","2024-12-20 23:45:00","11.0911","3.42024","25.821","4.39","7.34","2.795","1486.668","0","0.38","30.1258","4.73834","48.31","0","SATNPRO1963","26.156","0.36638","5"],
    [43171,"HCEP03730564","2024-12-21 00:00:00","11.0853","3.41781","25.643","4.375714285714286","7.34","2.652","1674.884","0","2.66","30.1069","4.73573","48.13","0","SATNPRO1963","26.19","0.36686","5"],
    [43172,"HCEP03730564","2024-12-21 00:15:00","11.0814","3.4164","25.49","4.365714285714286","7.34","2.761","1539.492","0.01","3.95","30.0964","4.73429","48.02","0","SATNPRO1963","26.182","0.36672","5"],
    [43173,"HCEP03730564","2024-12-21 00:30:00","11.0787","3.41489","25.339","4.365714285714286","7.34","2.758","1529.31","0","0.54","30.0839","4.73255","48","0","SATNPRO1963","26.056","0.36494","5"],
    [43174,"HCEP03730564","2024-12-21 00:45:00","11.0756","3.41361","25.211","4.36","7.33","2.66","1669.862","0","4.34","30.074","4.73119","47.93","0","SATNPRO1963","26.104","0.3656","5"],
    [43175,"HCEP03730564","2024-12-21 01:00:00","11.0739","3.41239","25.12","4.342857142857143","7.33","2.756","1525.144","0.01","3.68","30.0635","4.72972","47.75","0","SATNPRO1963","25.938","0.36328","5"],
    [43176,"HCEP03730564","2024-12-21 01:15:00","11.0734","3.41212","25.046","4.33","7.33","2.753","1515.198","0","0","30.0613","4.7294","47.6","0","SATNPRO1963","26.228","0.36734","5"],
    [43177,"HCEP03730564","2024-12-21 01:30:00","11.0738","3.41221","24.98","4.315714285714286","7.33","2.659","1638.063","0","2.17","30.0619","4.72949","47.45","0","SATNPRO1963","26.146","0.36624","5"],
    [43178,"HCEP03730564","2024-12-21 01:45:00","11.0741","3.4123","24.935","4.301428571428572","7.33","2.766","1470.63","0.01","2.97","30.0625","4.72957","47.29","0","SATNPRO1963","26.328","0.36874","5"],
    [43179,"HCEP03730564","2024-12-21 02:00:00","11.0745","3.41222","24.947","4.285714285714286","7.33","2.764","1458.471","0","0.66","30.0614","4.7294","47.11","0","SATNPRO1963","26.384","0.36956","5"],
    [43180,"HCEP03730564","2024-12-21 02:15:00","11.0641","3.40938","24.926","4.284285714285715","7.32","2.657","1607.233","0","3.16","30.0422","4.72683","47.09","0","SATNPRO1963","26.298","0.36834","5"],
    [43181,"HCEP03730564","2024-12-21 02:30:00","11.0741","3.41226","24.926","4.285714285714286","7.32","2.76","1460.341","0.01","4.54","30.0622","4.72952","47.12","0","SATNPRO1963","25.92","0.36308","5"],
    [43182,"HCEP03730564","2024-12-21 02:45:00","11.0756","3.4129","24.966","4.281428571428571","7.33","2.758","1451.647","0","0.86","30.0672","4.7302","47.08","0","SATNPRO1963","26.169999999999998","0.36656","5"],
    [43183,"HCEP03730564","2024-12-21 03:00:00","11.0758","3.41327","25.078","4.277142857142858","7.32","2.664","1636.512","0","4.24","30.0706","4.7307","47.02","0","SATNPRO1963","25.99","0.36404","5"],
    [43184,"HCEP03730564","2024-12-21 03:15:00","11.0774","3.41395","25.184","4.288571428571428","7.32","2.777","1533.048","0.01","3.23","30.0759","4.73143","47.15","0","SATNPRO1963","25.964000000000002","0.36374","5"],
    [43185,"HCEP03730564","2024-12-21 03:30:00","11.0777","3.41426","25.242","4.285714285714286","7.32","2.777","1523.229","0","0","30.0787","4.73182","47.12","0","SATNPRO1963","26.032","0.36464","5"],
    [43186,"HCEP03730564","2024-12-21 03:45:00","11.0773","3.41467","25.412","4.295714285714286","7.32","2.656","1670.764","0","3.21","30.0829","4.73243","47.24","0","SATNPRO1963","25.97","0.36374","5"],
    [43187,"HCEP03730564","2024-12-21 04:00:00","11.0777","3.41493","25.531","4.317142857142857","7.32","2.759","1506.131","0.01","3.47","30.0851","4.73274","47.46","0","SATNPRO1963","26.122","0.36588","5"],
    [43188,"HCEP03730564","2024-12-21 04:15:00","11.0783","3.41541","25.483","4.337142857142857","7.33","2.756","1493.751","0","0","30.0893","4.73334","47.69","0","SATNPRO1963","26.372","0.36934","5"],
    [43189,"HCEP03730564","2024-12-21 04:30:00","11.0795","3.41582","25.534","4.337142857142857","7.32","2.667","1694.586","0","2.87","30.0923","4.73374","47.69","0","SATNPRO1963","25.968","0.36376","5"],
    [43190,"HCEP03730564","2024-12-21 04:45:00","11.0407","3.40192","25.668","4.345714285714285","7.32","2.766","1553.787","0","3.64","29.9881","4.71955","47.71","0","SATNPRO1963","26.024","0.36452","5"],
    [43191,"HCEP03730564","2024-12-21 05:00:00","11.0132","3.39264","25.837","4.344285714285714","7.33","2.766","1544.105","0","0.86","29.9197","4.71026","47.65","0","SATNPRO1963","25.912","0.36292","5"],
    [43192,"HCEP03730564","2024-12-21 05:15:00","11.0669","3.41133","26.023","4.344285714285714","7.32","2.655","1695.183","0","3.02","30.0585","4.72917","47.74","0","SATNPRO1963","26.224","0.3673","5"],
    [43193,"HCEP03730564","2024-12-21 05:30:00","11.0782","3.41529","26.206","4.301428571428572","7.32","2.763","1558.198","0","3.21","30.0879","4.73317","47.3","0","SATNPRO1963","26.104","0.36566","5"],
    [43194,"HCEP03730564","2024-12-21 05:45:00","11.0807","3.41593","26.409","4.285714285714286","7.32","2.764","1547.38","0","0.94","30.092","4.73373","47.13","0","SATNPRO1963","25.946","0.36342","5"],
    [43195,"HCEP03730564","2024-12-21 06:00:00","11.0813","3.4161","26.603","4.277142857142858","7.32","2.666","1688.665","0","2.3","30.0931","4.73389","47.04","0","SATNPRO1963","25.954","0.36354","5"],
    [43196,"HCEP03730564","2024-12-21 06:15:00","11.0827","3.41645","26.788","4.265714285714286","7.32","2.767","1568.215","0.01","3.91","30.0954","4.7342","46.91","0","SATNPRO1963","25.842","0.36192","5"],
    [43197,"HCEP03730564","2024-12-21 06:30:00","11.0839","3.41692","27.009","4.255714285714286","7.32","2.767","1554.396","0","0.77","30.0988","4.73468","46.81","0","SATNPRO1963","26.012","0.3643","5"],
    [43198,"HCEP03730564","2024-12-21 06:45:00","11.0844","3.4172","27.237","4.260000000000001","7.32","2.681","1669.475","0","2.77","30.1011","4.73501","46.85","0","SATNPRO1963","26.078","0.36528","5"],
    [43199,"HCEP03730564","2024-12-21 07:00:00","11.0847","3.41741","27.4","4.258571428571429","7.32","2.771","1544.276","0.01","3.41","30.1028","4.73526","46.84","0","SATNPRO1963","26.042","0.36474","5"],
    [43200,"HCEP03730564","2024-12-21 07:15:00","11.0859","3.41772","27.632","4.255714285714286","7.32","2.772","1534.91","0","1.08","30.1048","4.73553","46.81","0","SATNPRO1963","26.118","0.36586","5"],
    [43201,"HCEP03730564","2024-12-21 07:30:00","11.0864","3.41795","27.848","4.254285714285714","7.32","2.67","1683.93","0","2.87","30.1065","4.73578","46.79","0","SATNPRO1963","26.128","0.36596","5"],
    [43202,"HCEP03730564","2024-12-21 07:45:00","11.087","3.41822","27.917","4.260000000000001","7.32","2.772","1509.891","0.01","3.09","30.1087","4.73609","46.85","0","SATNPRO1963","26.074","0.36518","5"],
    [43203,"HCEP03730564","2024-12-21 08:00:00","11.0881","3.41862","28.092","4.261428571428572","7.32","2.771","1498.958","0","0","30.1116","4.7365","46.88","0","SATNPRO1963","26.024","0.36446","5"],
    [43204,"HCEP03730564","2024-12-21 08:15:00","11.0896","3.41919","28.255","4.262857142857143","7.32","2.666","1659.882","0","3.21","30.1159","4.73709","46.89","0","SATNPRO1963","26.064","0.3651","5"],
    [43205,"HCEP03730564","2024-12-21 08:30:00","11.0916","3.41952","28.231","4.271428571428572","7.32","2.768","1503.156","0","3.07","30.1174","4.73728","46.99","0","SATNPRO1963","26.062","0.36508","5"],
    [43206,"HCEP03730564","2024-12-21 08:45:00","11.0987","3.42139","28.361","4.208571428571429","7.33","2.768","1494.209","0","1.15","30.1298","4.73893","46.31","0","SATNPRO1963","26.03","0.36458","5"],
    [43207,"HCEP03730564","2024-12-21 09:00:00","11.1027","3.42275","28.314","4.164285714285715","7.32","2.663","1649.6","0","3.25","30.1399","4.7403","45.83","0","SATNPRO1963","25.93","0.3632","5"],
    [43208,"HCEP03730564","2024-12-21 09:15:00","11.1058","3.42394","28.331","4.154285714285714","7.32","2.768","1506.787","0.01","3.07","30.1489","4.74153","45.73","0","SATNPRO1963","26.026","0.36452","5"],
    [43209,"HCEP03730564","2024-12-21 09:30:00","11.1064","3.42431","28.378","4.171428571428572","7.33","2.767","1497.216","0","0","30.1521","4.74197","45.92","0","SATNPRO1963","25.849999999999998","0.36204","5"],
    [43210,"HCEP03730564","2024-12-21 09:45:00","11.1064","3.42439","28.349","4.178571428571429","7.33","2.686","1663.973","0","2.87","30.1529","4.74208","45.99","0","SATNPRO1963","25.896","0.36272","5"],
    [43211,"HCEP03730564","2024-12-21 10:00:00","11.107","3.42442","28.366","4.180000000000001","7.32","2.771","1509.765","0.01","3","30.1527","4.74205","46.01","0","SATNPRO1963","25.992","0.36406","5"],
    [43212,"HCEP03730564","2024-12-21 10:15:00","11.1069","3.42439","28.357","4.182857142857143","7.33","2.769","1500.881","0","0","30.1525","4.74203","46.04","0","SATNPRO1963","26.07","0.36512","5"],
    [43213,"HCEP03730564","2024-12-21 10:30:00","11.1065","3.42433","28.344","4.182857142857143","7.33","2.677","1682.458","0","3.21","30.1521","4.74197","46.04","0","SATNPRO1963","26.298000000000002","0.36832","5"],
    [43214,"HCEP03730564","2024-12-21 10:45:00","11.1057","3.42402","28.297","4.188571428571429","7.33","2.766","1513.35","0.01","3","30.1498","4.74166","46.11","0","SATNPRO1963","26.184","0.36672","5"],
    [43215,"HCEP03730564","2024-12-21 11:00:00","11.1034","3.42329","28.227","4.188571428571429","7.33","2.767","1503.573","0","0","30.1447","4.74096","46.1","0","SATNPRO1963","26.014","0.36436","5"],
    [43216,"HCEP03730564","2024-12-21 11:15:00","11.1043","3.42357","28.164","4.192857142857143","7.33","2.669","1694.392","0","3.07","30.1466","4.74122","46.15","0","SATNPRO1963","26.028","0.36458","5"],
    [43217,"HCEP03730564","2024-12-21 11:30:00","11.1061","3.42426","28.091","4.19","7.33","2.779","1470.63","0","2.68","30.1519","4.74194","46.12","0","SATNPRO1963","25.94","0.36332","5"],
    [43218,"HCEP03730564","2024-12-21 11:45:00","11.1093","3.42535","27.997","4.185714285714286","7.34","2.779","1459.363","0","0","30.16","4.74303","46.09","0","SATNPRO1963","25.956","0.36358","5"],
    [43219,"HCEP03730564","2024-12-21 12:00:00","11.1121","3.4266","27.892","4.192857142857143","7.33","2.668","1685.433","0","2.87","30.1699","4.74439","46.16","0","SATNPRO1963","25.932","0.36322","5"],
    [43220,"HCEP03730564","2024-12-21 12:15:00","11.1136","3.42768","27.805","4.211428571428572","7.33","2.774","1541.472","0","2.92","30.1793","4.74568","46.38","0","SATNPRO1963","26.163999999999998","0.36646","5"],
    [43221,"HCEP03730564","2024-12-21 12:30:00","11.1164","3.42912","27.721","4.217142857142857","7.34","2.778","1533.584","0","0","30.1911","4.74732","46.44","0","SATNPRO1963","26.142","0.36614","5"],
    [43222,"HCEP03730564","2024-12-21 12:45:00","11.118","3.43048","27.608","4.228571428571429","7.33","2.677","1713.531","0","2.36","30.2032","4.749","46.58","0","SATNPRO1963","26.18","0.3667","5"],
    [43223,"HCEP03730564","2024-12-21 13:00:00","11.12","3.43196","27.49","4.267142857142858","7.33","2.772","1551.939","0","3.56","30.216","4.75078","47.01","0","SATNPRO1963","26.166","0.3665","5"],
    [43224,"HCEP03730564","2024-12-21 13:15:00","11.122","3.43271","27.398","4.274285714285714","7.34","2.773","1543.453","0","1.01","30.2217","4.75155","47.08","0","SATNPRO1963","26.282","0.36806","5"],
    [43225,"HCEP03730564","2024-12-21 13:30:00","11.1249","3.43354","27.285","4.252857142857143","7.33","2.667","1738.268","0","2.6","30.2275","4.75232","46.85","0","SATNPRO1963","26.178","0.36666","5"],
    [43226,"HCEP03730564","2024-12-21 13:45:00","11.1265","3.43434","27.161","4.222857142857143","7.33","2.79","1579.715","0","3.07","30.234","4.75322","46.53","0","SATNPRO1963","26.022","0.36446","5"],
    [43227,"HCEP03730564","2024-12-21 14:00:00","11.1316","3.43658","27.018","4.214285714285714","7.33","2.792","1570.257","0","1.44","30.2517","4.75564","46.45","0","SATNPRO1963","26.036","0.36468","5"],
    [43228,"HCEP03730564","2024-12-21 14:15:00","11.1295","3.4376","26.913","4.237142857142858","7.33","2.707","1760.294","0","5.74","30.2635","4.75734","46.7","0","SATNPRO1963","26.114","0.36576","5"],
    [43229,"HCEP03730564","2024-12-21 14:30:00","11.1279","3.43822","26.817","4.308571428571429","7.33","2.797","1597.57","0","3.99","30.2709","4.75841","47.48","0","SATNPRO1963","26.387999999999998","0.36964","5"],
    [43230,"HCEP03730564","2024-12-21 14:45:00","11.1256","3.43812","26.717","4.351428571428571","7.34","2.8","1585.647","0","0.77","30.2718","4.75856","47.96","0","SATNPRO1963","26.436","0.3703","5"],
    [43231,"HCEP03730564","2024-12-21 15:00:00","11.1251","3.43823","26.614","4.377142857142857","7.33","2.718","1740.951","0","3.99","30.2734","4.75878","48.23","0","SATNPRO1963","26.186","0.36678","5"],
    [43232,"HCEP03730564","2024-12-21 15:15:00","11.1243","3.43832","26.537","4.372857142857143","7.33","2.798","1572.052","0","6.06","30.2749","4.75901","48.2","0","SATNPRO1963","26.112000000000002","0.36574","5"],
    [43233,"HCEP03730564","2024-12-21 15:30:00","11.1231","3.43846","26.449","4.377142857142857","7.34","2.8","1560.875","0","0.77","30.2773","4.75937","48.24","0","SATNPRO1963","26.166","0.36654","5"],
    [43234,"HCEP03730564","2024-12-21 15:45:00","11.1258","3.43909","26.394","4.382857142857144","7.33","2.693","1726.071","0","2.66","30.2813","4.75988","48.31","0","SATNPRO1963","26.36","0.36922","5"],
    [43235,"HCEP03730564","2024-12-21 16:00:00","11.1364","3.44104","26.409","4.362857142857143","7.33","2.793","1536.353","0.01","3.66","30.2916","4.76118","48.1","0","SATNPRO1963","26.058","0.365","5"],
    [43236,"HCEP03730564","2024-12-21 16:15:00","11.1388","3.44205","26.394","4.292857142857143","7.34","2.794","1526.071","0","0","30.2995","4.76226","47.33","0","SATNPRO1963","26.226","0.36734","5"],
    [43237,"HCEP03730564","2024-12-21 16:30:00","11.1395","3.44296","26.39","4.29","7.33","2.677","1654.003","0","5.79","30.3078","4.76343","47.3","0","SATNPRO1963","26.32","0.36864","5"],
    [43238,"HCEP03730564","2024-12-21 16:45:00","11.1399","3.44318","26.431","4.318571428571428","7.33","2.773","1479.335","0.01","6.1","30.3095","4.76368","47.62","0","SATNPRO1963","26.058","0.36502","5"],
    [43239,"HCEP03730564","2024-12-21 17:00:00","11.1396","3.44332","26.496","4.312857142857143","7.34","2.776","1466.262","0","0.54","30.3112","4.76392","47.55","0","SATNPRO1963","26.358","0.3692","5"],
    [43240,"HCEP03730564","2024-12-21 17:15:00","11.1402","3.44308","26.511","4.312857142857143","7.33","2.67","1661.653","0","2.49","30.3083","4.7635","47.55","0","SATNPRO1963","26.302","0.3684","5"],
    [43241,"HCEP03730564","2024-12-21 17:30:00","11.1416","3.44298","26.561","4.288571428571428","7.33","2.79","1530.961","0.01","3.28","30.3062","4.76318","47.29","0","SATNPRO1963","25.951999999999998","0.36346","5"],
    [43242,"HCEP03730564","2024-12-21 17:45:00","11.1425","3.44298","26.596","4.255714285714286","7.33","2.791","1520.348","0","0.94","30.3054","4.76306","46.92","0","SATNPRO1963","26.116","0.3658","5"],
    [43243,"HCEP03730564","2024-12-21 18:00:00","11.1424","3.44301","26.622","4.237142857142858","7.33","2.706","1670.956","0","2.82","30.3059","4.76313","46.72","0","SATNPRO1963","25.998","0.36414","5"],
    [43244,"HCEP03730564","2024-12-21 18:15:00","11.1422","3.44286","26.615","4.235714285714286","7.32","2.781","1567.314","0.01","3.68","30.3045","4.76294","46.7","0","SATNPRO1963","25.976","0.36386","5"],
    [43245,"HCEP03730564","2024-12-21 18:30:00","11.1411","3.44276","26.616","4.242857142857143","7.33","2.779","1556.332","0","0","30.3044","4.76294","46.79","0","SATNPRO1963","25.948","0.36342","5"],
    [43246,"HCEP03730564","2024-12-21 18:45:00","11.1394","3.44152","26.667","4.254285714285714","7.32","2.677","1695.975","0","3.64","30.2936","4.76144","46.9","0","SATNPRO1963","25.806","0.36148","5"],
    [43247,"HCEP03730564","2024-12-21 19:00:00","11.1229","3.43853","26.67","4.260000000000001","7.32","2.765","1596.601","0.01","3.47","30.2781","4.7595","46.95","0","SATNPRO1963","26.036","0.36472","5"],
    [43248,"HCEP03730564","2024-12-21 19:15:00","11.118","3.43813","26.688","4.425714285714285","7.33","2.763","1583.606","0","0.77","30.2782","4.75958","48.77","0","SATNPRO1963","26.4","0.3698","5"],
    [43249,"HCEP03730564","2024-12-21 19:30:00","11.1142","3.43806","26.71","4.498571428571429","7.33","2.693","1707.618","0","2.36","30.2806","4.75997","49.57","0","SATNPRO1963","26.486","0.37096","5"],
    [43250,"HCEP03730564","2024-12-21 19:45:00","11.1153","3.43897","26.749","4.525714285714286","7.34","2.772","1606.291","0.01","3.25","30.2886","4.7611","49.87","0","SATNPRO1963","26.472","0.37076","5"],
    [43251,"HCEP03730564","2024-12-21 20:00:00","11.1154","3.43926","26.754","4.558571428571429","7.34","2.77","1593.886","0","0","30.2913","4.76148","50.23","0","SATNPRO1963","26.43","0.3702","5"],
    [43252,"HCEP03730564","2024-12-21 20:15:00","11.1187","3.43947","26.772","4.552857142857142","7.34","2.703","1718.539","0","4.02","30.2907","4.76134","50.18","0","SATNPRO1963","26.38","0.36952","5"],
    [43253,"HCEP03730564","2024-12-21 20:30:00","11.1207","3.43953","26.789","4.508571428571429","7.34","2.788","1635.823","0.01","3.34","30.2895","4.76115","49.69","0","SATNPRO1963","26.486","0.37098","5"],
    [43254,"HCEP03730564","2024-12-21 20:45:00","11.1168","3.43805","26.778","4.504285714285714","7.34","2.787","1622.387","0","0","30.2783","4.75962","49.63","0","SATNPRO1963","26.682","0.37368","5"],
    [43255,"HCEP03730564","2024-12-21 21:00:00","11.1185","3.43746","26.769","4.468571428571429","7.34","2.724","1721.308","0","2.71","30.2712","4.75858","49.23","0","SATNPRO1963","26.254","0.36776","5"],
    [43256,"HCEP03730564","2024-12-21 21:15:00","11.1191","3.43629","26.729","4.412857142857143","7.33","2.801","1617.672","0","2.82","30.2593","4.75689","48.63","0","SATNPRO1963","26.156000000000002","0.36636","5"],
    [43257,"HCEP03730564","2024-12-21 21:30:00","11.1158","3.43466","26.583","4.4","7.34","2.803","1607.507","0","0","30.2461","4.75506","48.48","0","SATNPRO1963","26.246","0.3676","5"],
    [43258,"HCEP03730564","2024-12-21 21:45:00","11.113","3.43266","26.533","4.404285714285715","7.33","2.715","1711.819","0","3.12","30.229","4.75267","48.51","0","SATNPRO1963","26.406","0.3699","5"],
    [43259,"HCEP03730564","2024-12-21 22:00:00","11.1102","3.43093","26.514","4.387142857142858","7.33","2.767","1570.86","0.01","3.76","30.2144","4.75064","48.32","0","SATNPRO1963","26.394000000000002","0.36968","5"],
    [43260,"HCEP03730564","2024-12-21 22:15:00","11.1097","3.43047","26.501","4.358571428571428","7.33","2.764","1557.969","0","0","30.2103","4.75007","48.01","0","SATNPRO1963","26.184","0.36676","5"],
    [43261,"HCEP03730564","2024-12-21 22:30:00","11.1079","3.42908","26.438","4.344285714285714","7.33","2.694","1657.005","0","2.36","30.1982","4.74838","47.83","0","SATNPRO1963","26.482","0.37092","5"],
    [43262,"HCEP03730564","2024-12-21 22:45:00","11.1073","3.4286","26.376","4.322857142857143","7.33","2.75","1508.4","0.01","5.8","30.194","4.74779","47.61","0","SATNPRO1963","26.246","0.36764","5"],
    [43263,"HCEP03730564","2024-12-21 23:00:00","11.1064","3.4276","26.32","4.3","7.33","2.75","1497.188","0","0.38","30.1849","4.74652","47.35","0","SATNPRO1963","26.1","0.36556","5"],
    [43264,"HCEP03730564","2024-12-21 23:15:00","11.1055","3.42707","26.235","4.28","7.33","2.624","1660.413","0","2.54","30.1806","4.74591","47.12","0","SATNPRO1963","26.312","0.3686","5"],
    [43265,"HCEP03730564","2024-12-21 23:30:00","11.1014","3.4251","26.204","4.267142857142858","7.32","2.73","1475.667","0.01","3.37","30.1647","4.74372","46.98","0","SATNPRO1963","26.306","0.36846","5"],
    [43266,"HCEP03730564","2024-12-21 23:45:00","11.098","3.42317","26.177","4.260000000000001","7.33","2.728","1465.684","0","0.38","30.1487","4.7415","46.88","0","SATNPRO1963","26.158","0.36638","5"],
    [43267,"HCEP03730564","2024-12-22 00:00:00","11.0961","3.42231","26.068","4.237142857142858","7.32","2.606","1600.91","0","5.94","30.1419","4.74055","46.63","0","SATNPRO1963","26.216","0.3672","5"],
    [43268,"HCEP03730564","2024-12-22 00:15:00","11.0951","3.42181","25.979","4.214285714285714","7.32","2.738","1427.636","0","1.88","30.1378","4.73999","46.38","0","SATNPRO1963","26.032","0.36462","5"],
    [43269,"HCEP03730564","2024-12-22 00:30:00","11.0944","3.42135","25.894","4.217142857142857","7.32","2.739","1419.325","0","0.86","30.134","4.73945","46.41","0","SATNPRO1963","26.302","0.36844","5"],
    [43270,"HCEP03730564","2024-12-22 00:45:00","11.0941","3.42127","25.853","4.205714285714286","7.32","2.584","1607.652","0","2.49","30.1335","4.73939","46.28","0","SATNPRO1963","26.236","0.3675","5"],
    [43271,"HCEP03730564","2024-12-22 01:00:00","11.0941","3.4212","25.764","4.188571428571429","7.32","2.715","1451.377","0.01","4.34","30.1328","4.73928","46.09","0","SATNPRO1963","26.186","0.36676","5"],
    [43272,"HCEP03730564","2024-12-22 01:15:00","11.094","3.42129","25.656","4.188571428571429","7.32","2.715","1441.827","0","0","30.1338","4.73941","46.09","0","SATNPRO1963","26.232","0.36738","5"],
    [43273,"HCEP03730564","2024-12-22 01:30:00","11.0938","3.42122","25.587","4.194285714285714","7.32","2.611","1609.306","0","3.02","30.1333","4.73935","46.15","0","SATNPRO1963","26.122","0.36588","5"],
    [43274,"HCEP03730564","2024-12-22 01:45:00","11.0946","3.42153","25.563","4.201428571428571","7.31","2.727","1478.306","0.01","2.82","30.1358","4.73968","46.24","0","SATNPRO1963","26.216","0.36716","5"],
    [43275,"HCEP03730564","2024-12-22 02:00:00","11.0958","3.42198","25.59","4.201428571428571","7.32","2.726","1469.333","0","0","30.1392","4.74015","46.23","0","SATNPRO1963","26.092","0.36544","5"],
    [43276,"HCEP03730564","2024-12-22 02:15:00","11.0959","3.42196","25.523","4.192857142857143","7.31","2.637","1584.617","0","5.45","30.1389","4.7401","46.13","0","SATNPRO1963","26.116","0.36578","5"],
    [43277,"HCEP03730564","2024-12-22 02:30:00","11.0939","3.42156","25.486","4.184285714285714","7.31","2.733","1441.011","0.01","3.34","30.1366","4.73981","46.05","0","SATNPRO1963","26.126","0.36594","5"],
    [43278,"HCEP03730564","2024-12-22 02:45:00","11.0939","3.42176","25.411","4.182857142857143","7.32","2.732","1429.642","0","0.77","30.1386","4.74008","46.03","0","SATNPRO1963","25.974","0.36378","5"],
    [43279,"HCEP03730564","2024-12-22 03:00:00","11.091","3.42151","25.391","4.17","7.31","2.604","1581.61","0","3.39","30.1385","4.74012","45.88","0","SATNPRO1963","25.78","0.36108","5"],
    [43280,"HCEP03730564","2024-12-22 03:15:00","11.0934","3.42369","25.363","4.138571428571429","7.31","2.705","1393.612","0.01","2.43","30.1579","4.74283","45.54","0","SATNPRO1963","25.85","0.3621","5"],
    [43281,"HCEP03730564","2024-12-22 03:30:00","11.1014","3.42668","25.426","4.127142857142857","7.32","2.703","1383.109","0","0","30.1805","4.74591","45.43","0","SATNPRO1963","25.77","0.36096","5"],
    [43282,"HCEP03730564","2024-12-22 03:45:00","11.1057","3.42854","25.43","4.151428571428572","7.31","2.586","1549.312","0","3.84","30.1951","4.74791","45.71","0","SATNPRO1963","26.208000000000002","0.36708","5"],
    [43283,"HCEP03730564","2024-12-22 04:00:00","11.1077","3.42938","25.513","4.192857142857143","7.32","2.715","1367.209","0.01","2.9","30.2016","4.74881","46.17","0","SATNPRO1963","26.048000000000002","0.36484","5"],
    [43284,"HCEP03730564","2024-12-22 04:15:00","11.1132","3.43051","25.59","4.168571428571429","7.32","2.712","1357.873","0","0","30.2081","4.74966","45.91","0","SATNPRO1963","26.004","0.36422","5"],
    [43285,"HCEP03730564","2024-12-22 04:30:00","11.1173","3.43218","25.754","4.142857142857143","7.32","2.581","1549.81","0","4.76","30.221","4.75143","45.63","0","SATNPRO1963","26.05","0.36488","5"],
    [43286,"HCEP03730564","2024-12-22 04:45:00","11.1199","3.43377","25.914","4.145714285714286","7.32","2.748","1429.481","0.01","2.71","30.2343","4.75329","45.66","0","SATNPRO1963","26.124","0.36588","5"],
    [43287,"HCEP03730564","2024-12-22 05:00:00","11.1206","3.43441","26.036","4.140000000000001","7.32","2.747","1419.825","0","1.08","30.24","4.7541","45.62","0","SATNPRO1963","25.98","0.36394","5"],
    [43288,"HCEP03730564","2024-12-22 05:15:00","11.119","3.43362","26.116","4.131428571428572","7.32","2.605","1614.895","0","2.82","30.2336","4.75321","45.52","0","SATNPRO1963","26.044","0.36478","5"],
    [43289,"HCEP03730564","2024-12-22 05:30:00","11.1115","3.43107","26.254","4.111428571428572","7.32","2.726","1507.417","0.01","3.93","30.2148","4.75067","45.28","0","SATNPRO1963","26.11","0.36568","5"],
    [43290,"HCEP03730564","2024-12-22 05:45:00","11.0869","3.42273","26.396","4.132857142857143","7.32","2.727","1497.202","0","0","30.1534","4.74235","45.48","0","SATNPRO1963","26.174","0.3666","5"],
    [43291,"HCEP03730564","2024-12-22 06:00:00","11.1019","3.42804","26.529","4.195714285714286","7.31","2.625","1644.632","0","2.97","30.1929","4.74772","46.19","0","SATNPRO1963","26.272","0.36798","5"],
    [43292,"HCEP03730564","2024-12-22 06:15:00","11.1125","3.43195","26.7","4.217142857142857","7.31","2.738","1483.385","0","3.72","30.2223","4.75174","46.44","0","SATNPRO1963","26.134","0.36608","5"],
    [43293,"HCEP03730564","2024-12-22 06:30:00","11.1156","3.43306","26.86","4.187142857142858","7.32","2.738","1474.422","0","0","30.2305","4.75287","46.12","0","SATNPRO1963","25.89","0.36258","5"],
    [43294,"HCEP03730564","2024-12-22 06:45:00","11.1175","3.43386","27.016","4.174285714285714","7.31","2.647","1626.616","0","3.64","30.2367","4.75373","45.99","0","SATNPRO1963","26.1","0.3656","5"],
    [43295,"HCEP03730564","2024-12-22 07:00:00","11.1191","3.43446","27.189","4.17","7.31","2.734","1480.878","0","3.19","30.2412","4.75435","45.93","0","SATNPRO1963","26.07","0.36514","5"],
    [43296,"HCEP03730564","2024-12-22 07:15:00","11.1201","3.43488","27.344","4.162857142857143","7.32","2.735","1471.042","0","0.86","30.2445","4.75481","45.87","0","SATNPRO1963","26.096","0.3655","5"],
    [43297,"HCEP03730564","2024-12-22 07:30:00","11.1195","3.43472","27.5","4.152857142857143","7.31","2.644","1597.225","0","5.09","30.2432","4.75465","45.76","0","SATNPRO1963","26.212","0.36712","5"],
    [43298,"HCEP03730564","2024-12-22 07:45:00","11.1188","3.43433","27.656","4.145714285714286","7.31","2.753","1444.966","0.01","3.02","30.2401","4.75422","45.67","0","SATNPRO1963","26.084","0.36534","5"],
    [43299,"HCEP03730564","2024-12-22 08:00:00","11.1186","3.43424","27.81","4.147142857142858","7.32","2.751","1434.408","0","0","30.2392","4.75411","45.68","0","SATNPRO1963","26.105999999999998","0.36568","5"],
    [43300,"HCEP03730564","2024-12-22 08:15:00","11.1182","3.43425","27.952","4.145714285714286","7.31","2.609","1632.006","0","3.3","30.2396","4.75418","45.66","0","SATNPRO1963","25.996000000000002","0.36408","5"],
    [43301,"HCEP03730564","2024-12-22 08:30:00","11.1179","3.43427","28.052","4.152857142857143","7.31","2.732","1439.199","0.01","3.23","30.24","4.75425","45.75","0","SATNPRO1963","25.928","0.36318","5"],
    [43302,"HCEP03730564","2024-12-22 08:45:00","11.1182","3.43428","28.176","4.15","7.32","2.73","1427.825","0","0.66","30.2398","4.75421","45.72","0","SATNPRO1963","26.134","0.3661","5"],
    [43303,"HCEP03730564","2024-12-22 09:00:00","11.1182","3.43429","28.245","4.145714285714286","7.31","2.612","1600.457","0","2.71","30.2399","4.75423","45.67","0","SATNPRO1963","26.236","0.36748","5"],
    [43304,"HCEP03730564","2024-12-22 09:15:00","11.1178","3.4341","28.271","4.147142857142858","7.31","2.727","1417.234","0","2.95","30.2383","4.75402","45.69","0","SATNPRO1963","26.088","0.36538","5"],
    [43305,"HCEP03730564","2024-12-22 09:30:00","11.1175","3.43416","28.357","4.147142857142858","7.32","2.727","1410.073","0","0.94","30.2391","4.75414","45.68","0","SATNPRO1963","26.33","0.36884","5"],
    [43306,"HCEP03730564","2024-12-22 09:45:00","11.1179","3.43416","28.402","4.141428571428572","7.32","2.602","1593.483","0","2.36","30.2388","4.7541","45.62","0","SATNPRO1963","26.198","0.36696","5"],
    [43307,"HCEP03730564","2024-12-22 10:00:00","11.1105","3.43144","28.431","4.152857142857143","7.31","2.723","1457.691","0.01","3.56","30.2183","4.75131","45.74","0","SATNPRO1963","26.338","0.3689","5"],
    [43308,"HCEP03730564","2024-12-22 10:15:00","11.1101","3.43156","28.439","4.204285714285715","7.32","2.723","1446.603","0","0.94","30.2198","4.75153","46.31","0","SATNPRO1963","26.39","0.36966","5"],
    [43309,"HCEP03730564","2024-12-22 10:30:00","11.1165","3.4342","28.406","4.212857142857143","7.32","2.622","1558.356","0","3.99","30.2403","4.75434","46.4","0","SATNPRO1963","26.03","0.36456","5"],
    [43310,"HCEP03730564","2024-12-22 10:45:00","11.1078","3.43067","28.403","4.205714285714286","7.32","2.736","1382.42","0","4.08","30.2131","4.7506","46.32","0","SATNPRO1963","26.422","0.37008","5"],
    [43311,"HCEP03730564","2024-12-22 11:00:00","11.1084","3.43138","28.376","4.252857142857143","7.32","2.737","1374.654","0","0.77","30.2194","4.7515","46.84","0","SATNPRO1963","26.404","0.36984","5"],
    [43312,"HCEP03730564","2024-12-22 11:15:00","11.1094","3.43147","28.334","4.271428571428572","7.32","2.592","1567.685","0","3.16","30.2195","4.75149","47.04","0","SATNPRO1963","26.38","0.3695","5"],
    [43313,"HCEP03730564","2024-12-22 11:30:00","11.1166","3.43511","28.255","4.228571428571429","7.32","2.738","1405.408","0","2.57","30.2491","4.75557","46.59","0","SATNPRO1963","26.07","0.3652","5"],
    [43314,"HCEP03730564","2024-12-22 11:45:00","11.1135","3.43389","28.14","4.205714285714286","7.32","2.738","1395.657","0","0.54","30.2399","4.75431","46.32","0","SATNPRO1963","26.38","0.36948","5"],
    [43315,"HCEP03730564","2024-12-22 12:00:00","11.1057","3.4295","28.036","4.241428571428571","7.32","2.605","1535.025","0","3.25","30.2034","4.74924","46.7","0","SATNPRO1963","26.062","0.365","5"],
    [43316,"HCEP03730564","2024-12-22 12:15:00","11.1048","3.4289","27.975","4.260000000000001","7.32","2.715","1380.115","0.01","3.07","30.1984","4.74854","46.91","0","SATNPRO1963","26.358","0.3692","5"],
    [43317,"HCEP03730564","2024-12-22 12:30:00","11.1067","3.42978","27.858","4.271428571428572","7.32","2.714","1370.849","0","0","30.2054","4.74951","47.03","0","SATNPRO1963","26.316","0.36862","5"],
    [43318,"HCEP03730564","2024-12-22 12:45:00","11.105","3.42928","27.754","4.262857142857143","7.32","2.543","1580.088","0","2.43","30.202","4.74903","46.94","0","SATNPRO1963","26.216","0.36718","5"],
    [43319,"HCEP03730564","2024-12-22 13:00:00","11.1191","3.43615","27.636","4.191428571428572","7.32","2.686","1385.046","0.01","5.52","30.2575","4.75669","46.19","0","SATNPRO1963","25.774","0.36104","5"],
    [43320,"HCEP03730564","2024-12-22 13:15:00","11.1227","3.43752","27.513","4.131428571428572","7.33","2.684","1374.973","0","0","30.268","4.75811","45.53","0","SATNPRO1963","25.908","0.3629","5"],
    [43321,"HCEP03730564","2024-12-22 13:30:00","11.1269","3.43906","27.406","4.121428571428571","7.32","2.522","1600.516","0","2.87","30.2796","4.75968","45.43","0","SATNPRO1963","25.944","0.36338","5"],
    [43322,"HCEP03730564","2024-12-22 13:45:00","11.1283","3.43969","27.274","4.114285714285714","7.32","2.698","1432.195","0","2.77","30.2848","4.76039","45.35","0","SATNPRO1963","26.004","0.36424","5"],
    [43323,"HCEP03730564","2024-12-22 14:00:00","11.1289","3.43999","27.13","4.098571428571429","7.32","2.7","1423.26","0","0.38","30.2872","4.76072","45.17","0","SATNPRO1963","25.916","0.363","5"],
    [43324,"HCEP03730564","2024-12-22 14:15:00","11.1293","3.44059","26.99","4.095714285714286","7.32","2.591","1630.792","0","2.49","30.2928","4.7615","45.14","0","SATNPRO1963","25.84","0.36198","5"],
    [43325,"HCEP03730564","2024-12-22 14:30:00","11.1285","3.44094","26.85","4.122857142857143","7.32","2.704","1450.735","0.01","4.96","30.2969","4.76209","45.45","0","SATNPRO1963","25.858","0.3622","5"],
    [43326,"HCEP03730564","2024-12-22 14:45:00","11.129","3.44161","26.7","4.134285714285714","7.32","2.704","1441.255","0","0","30.3031","4.76295","45.57","0","SATNPRO1963","25.864","0.36226","5"],
    [43327,"HCEP03730564","2024-12-22 15:00:00","11.129","3.44207","26.557","4.137142857142857","7.32","2.593","1626.602","0","3.8","30.3077","4.76358","45.6","0","SATNPRO1963","26.03","0.36462","5"],
    [43328,"HCEP03730564","2024-12-22 15:15:00","11.1278","3.4426","26.418","4.164285714285715","7.32","2.727","1419.151","0","3.21","30.3139","4.76448","45.91","0","SATNPRO1963","25.888","0.3626","5"],
    [43329,"HCEP03730564","2024-12-22 15:30:00","11.1272","3.44296","26.269","4.227142857142858","7.33","2.727","1408.135","0","1.08","30.3179","4.76505","46.6","0","SATNPRO1963","25.846","0.36202","5"],
    [43330,"HCEP03730564","2024-12-22 15:45:00","11.1275","3.44357","26.167","4.257142857142857","7.32","2.608","1593.907","0.01","6.3","30.3237","4.76586","46.93","0","SATNPRO1963","26.122","0.36592","5"],
    [43331,"HCEP03730564","2024-12-22 16:00:00","11.1278","3.4445","26.112","4.288571428571428","7.32","2.742","1477.09","0","3.04","30.3326","4.76711","47.28","0","SATNPRO1963","26.03","0.36458","5"],
    [43332,"HCEP03730564","2024-12-22 16:15:00","11.1301","3.44558","26.054","4.27","7.33","2.743","1465.959","0","0","30.3413","4.7683","47.08","0","SATNPRO1963","25.932","0.36326","5"],
    [43333,"HCEP03730564","2024-12-22 16:30:00","11.1293","3.4461","26.014","4.267142857142858","7.33","2.634","1603.569","0","4.17","30.347","4.76912","47.05","0","SATNPRO1963","26.268","0.36794","5"],
    [43334,"HCEP03730564","2024-12-22 16:45:00","11.1294","3.44681","25.993","4.368571428571428","7.33","2.742","1467.723","0.01","3.25","30.3539","4.77009","48.17","0","SATNPRO1963","26.238","0.36752","5"],
    [43335,"HCEP03730564","2024-12-22 17:00:00","11.1313","3.44762","25.98","4.418571428571429","7.34","2.741","1455.495","0","0.77","30.3602","4.77096","48.73","0","SATNPRO1963","26.48","0.3709","5"],
    [43336,"HCEP03730564","2024-12-22 17:15:00","11.1317","3.44802","26.011","4.424285714285714","7.34","2.632","1611.583","0","2.71","30.3638","4.77147","48.8","0","SATNPRO1963","26.348","0.36904","5"],
    [43337,"HCEP03730564","2024-12-22 17:30:00","11.1319","3.44817","26.043","4.398571428571429","7.33","2.726","1466.374","0","3.12","30.365","4.77163","48.51","0","SATNPRO1963","26.212","0.36718","5"],
    [43338,"HCEP03730564","2024-12-22 17:45:00","11.132","3.44804","26.065","4.365714285714286","7.34","2.728","1455.084","0","0.66","30.3637","4.77144","48.15","0","SATNPRO1963","26.204","0.36706","5"],
    [43339,"HCEP03730564","2024-12-22 18:00:00","11.1319","3.44807","26.052","4.334285714285714","7.33","2.623","1608.595","0","3.3","30.364","4.77149","47.8","0","SATNPRO1963","26.03","0.36462","5"],
    [43340,"HCEP03730564","2024-12-22 18:15:00","11.1321","3.44815","26.017","4.288571428571428","7.33","2.711","1508.367","0.01","3.41","30.3647","4.77158","47.3","0","SATNPRO1963","26.012","0.36434","5"],
    [43341,"HCEP03730564","2024-12-22 18:30:00","11.132","3.44805","26.049","4.27","7.34","2.711","1497.843","0","0","30.3639","4.77147","47.09","0","SATNPRO1963","26.142","0.3662","5"],
    [43342,"HCEP03730564","2024-12-22 18:45:00","11.1323","3.44809","26.111","4.274285714285714","7.33","2.615","1632.137","0","3.16","30.3639","4.77148","47.14","0","SATNPRO1963","26.178","0.36664","5"],
    [43343,"HCEP03730564","2024-12-22 19:00:00","11.1326","3.44829","26.164","4.328571428571428","7.33","2.722","1445.597","0","5.16","30.3656","4.77171","47.73","0","SATNPRO1963","26.52","0.3715","5"],
    [43344,"HCEP03730564","2024-12-22 19:15:00","11.1333","3.4484","26.215","4.384285714285714","7.34","2.726","1427.378","0","0","30.3661","4.77178","48.35","0","SATNPRO1963","26.536","0.37172","5"],
    [43345,"HCEP03730564","2024-12-22 19:30:00","11.1322","3.44799","26.25","4.407142857142858","7.34","2.576","1627.246","0","5","30.363","4.77135","48.6","0","SATNPRO1963","26.314","0.36856","5"],
    [43346,"HCEP03730564","2024-12-22 19:45:00","11.1312","3.44774","26.289","4.407142857142858","7.34","2.696","1448.711","0.01","4.68","30.3613","4.77113","48.61","0","SATNPRO1963","26.387999999999998","0.36962","5"],
    [43347,"HCEP03730564","2024-12-22 20:00:00","11.1288","3.44725","26.299","4.418571428571429","7.34","2.696","1431.597","0","0.66","30.3585","4.77077","48.73","0","SATNPRO1963","26.488","0.37104","5"],
    [43348,"HCEP03730564","2024-12-22 20:15:00","11.1284","3.44685","26.391","4.471428571428572","7.34","2.612","1581.078","0","2.82","30.3549","4.77028","49.3","0","SATNPRO1963","26.584","0.37236","5"],
    [43349,"HCEP03730564","2024-12-22 20:30:00","11.1295","3.44725","26.417","4.46","7.34","2.72","1463.446","0.01","4.67","30.3579","4.77069","49.17","0","SATNPRO1963","26.584","0.37236","5"],
    [43350,"HCEP03730564","2024-12-22 20:45:00","11.1304","3.44715","26.458","4.432857142857143","7.34","2.727","1452.906","0","1.08","30.3562","4.77043","48.88","0","SATNPRO1963","26.346","0.36904","5"],
    [43351,"HCEP03730564","2024-12-22 21:00:00","11.1307","3.44665","26.526","4.397142857142857","7.34","2.647","1603.916","0","3.6","30.3511","4.7697","48.48","0","SATNPRO1963","26.176","0.36664","5"],
    [43352,"HCEP03730564","2024-12-22 21:15:00","11.1298","3.44589","26.581","4.355714285714286","7.33","2.732","1392.225","0","5.36","30.3443","4.76876","48.03","0","SATNPRO1963","26.21","0.36708","5"],
    [43353,"HCEP03730564","2024-12-22 21:30:00","11.1295","3.44552","26.636","4.344285714285714","7.34","2.734","1380.859","0","0.54","30.3409","4.76829","47.91","0","SATNPRO1963","26.276","0.3681","5"],
    [43354,"HCEP03730564","2024-12-22 21:45:00","11.1297","3.44565","26.676","4.35","7.33","2.635","1552.918","0","2.03","30.342","4.76845","47.97","0","SATNPRO1963","26.288","0.36822","5"],
    [43355,"HCEP03730564","2024-12-22 22:00:00","11.1227","3.44264","26.695","4.355714285714286","7.33","2.741","1422.41","0","3.58","30.3183","4.7652","48.01","0","SATNPRO1963","26.382","0.36952","5"],
    [43356,"HCEP03730564","2024-12-22 22:15:00","11.1252","3.44358","26.689","4.368571428571428","7.33","2.742","1411.77","0","0.38","30.3256","4.76619","48.17","0","SATNPRO1963","26.216","0.36722","5"],
    [43357,"HCEP03730564","2024-12-22 22:30:00","11.1254","3.44321","26.717","4.342857142857143","7.33","2.625","1594.48","0","3.52","30.3217","4.76564","47.88","0","SATNPRO1963","26.594","0.37248","5"],
    [43358,"HCEP03730564","2024-12-22 22:45:00","11.1229","3.44222","26.696","4.354285714285714","7.33","2.708","1461.726","0.01","2.46","30.3141","4.7646","47.99","0","SATNPRO1963","26.578","0.37224","5"],
    [43359,"HCEP03730564","2024-12-22 23:00:00","11.1197","3.4401","26.679","4.362857142857143","7.33","2.706","1452.085","0","0.38","30.296","4.76208","48.09","0","SATNPRO1963","26.592","0.37246","5"],
    [43360,"HCEP03730564","2024-12-22 23:15:00","11.1175","3.43821","26.688","4.345714285714285","7.32","2.622","1578.897","0","3.64","30.2793","4.75975","47.89","0","SATNPRO1963","26.378","0.36944","5"],
    [43361,"HCEP03730564","2024-12-22 23:30:00","11.116","3.43695","26.634","4.3","7.32","2.726","1478.182","0.01","3.02","30.2684","4.75821","47.38","0","SATNPRO1963","26.418","0.37002","5"],
    [43362,"HCEP03730564","2024-12-22 23:45:00","11.1127","3.43492","26.656","4.274285714285714","7.33","2.725","1468.644","0","0","30.2512","4.75584","47.09","0","SATNPRO1963","26.538","0.3717","5"],
    [43363,"HCEP03730564","2024-12-23 00:00:00","11.1113","3.43393","26.647","4.260000000000001","7.32","2.626","1577.018","0","2.77","30.2427","4.75466","46.92","0","SATNPRO1963","26.468","0.37072","5"],
    [43364,"HCEP03730564","2024-12-23 00:15:00","11.1115","3.43429","26.648","4.252857142857143","7.32","2.7","1481.64","0.01","3.16","30.2461","4.75513","46.85","0","SATNPRO1963","26.234","0.36746","5"],
    [43365,"HCEP03730564","2024-12-23 00:30:00","11.1132","3.43545","26.656","4.251428571428572","7.33","2.7","1470.463","0","0","30.256","4.7565","46.84","0","SATNPRO1963","26.6","0.37256","5"],
    [43366,"HCEP03730564","2024-12-23 00:45:00","11.1137","3.43577","26.653","4.254285714285714","7.32","2.621","1605.581","0","2.71","30.2587","4.75688","46.87","0","SATNPRO1963","26.448","0.37042","5"],
    [43367,"HCEP03730564","2024-12-23 01:00:00","11.1141","3.43627","26.621","4.260000000000001","7.32","2.705","1474.202","0.01","2.87","30.2633","4.75752","46.93","0","SATNPRO1963","26.26","0.3678","5"],
    [43368,"HCEP03730564","2024-12-23 01:15:00","11.1154","3.4369","26.582","4.245714285714286","7.32","2.704","1465.629","0","0.54","30.2684","4.75823","46.79","0","SATNPRO1963","26.366","0.3693","5"],
    [43369,"HCEP03730564","2024-12-23 01:30:00","11.117","3.43762","26.512","4.231428571428572","7.32","2.605","1597.598","0","3.8","30.2741","4.75901","46.62","0","SATNPRO1963","26.18","0.36672","5"],
    [43370,"HCEP03730564","2024-12-23 01:45:00","11.1183","3.4382","26.455","4.212857142857143","7.32","2.7","1464.956","0","2.46","30.2787","4.75964","46.42","0","SATNPRO1963","26.084","0.36534","5"],
    [43371,"HCEP03730564","2024-12-23 02:00:00","11.1186","3.43827","26.399","4.198571428571428","7.32","2.701","1456.647","0","0","30.2792","4.75969","46.26","0","SATNPRO1963","26.118","0.36584","5"],
    [43372,"HCEP03730564","2024-12-23 02:15:00","11.1211","3.43994","26.365","4.2","7.31","2.601","1595.33","0","2.3","30.2934","4.76167","46.29","0","SATNPRO1963","26.462","0.37066","5"],
    [43373,"HCEP03730564","2024-12-23 02:30:00","11.123","3.44066","26.325","4.212857142857143","7.31","2.701","1492.251","0.01","3.19","30.299","4.76243","46.44","0","SATNPRO1963","26.396","0.3697","5"],
    [43374,"HCEP03730564","2024-12-23 02:45:00","11.1237","3.44119","26.254","4.244285714285715","7.32","2.702","1481.707","0","0","30.3035","4.76306","46.78","0","SATNPRO1963","26.232","0.36742","5"],
    [43375,"HCEP03730564","2024-12-23 03:00:00","11.1248","3.44192","26.201","4.258571428571429","7.32","2.624","1597.683","0","2.49","30.3098","4.76393","46.93","0","SATNPRO1963","26.412","0.36996","5"],
    [43376,"HCEP03730564","2024-12-23 03:15:00","11.1274","3.44358","26.157","4.287142857142857","7.32","2.686","1495.255","0.01","3.07","30.324","4.76589","47.27","0","SATNPRO1963","27","0.3782","5"],
    [43377,"HCEP03730564","2024-12-23 03:30:00","11.1297","3.44464","26.148","4.287142857142857","7.33","2.687","1486.072","0","0.86","30.3323","4.76704","47.27","0","SATNPRO1963","26.442","0.37034","5"],
    [43378,"HCEP03730564","2024-12-23 03:45:00","11.131","3.44533","26.116","4.288571428571428","7.32","2.588","1620.249","0","4.17","30.3381","4.76784","47.29","0","SATNPRO1963","26.378","0.36946","5"],
    [43379,"HCEP03730564","2024-12-23 04:00:00","11.1322","3.44586","26.08","4.294285714285714","7.32","2.688","1473.154","0.01","3.16","30.3423","4.76841","47.36","0","SATNPRO1963","26.404","0.36984","5"],
    [43380,"HCEP03730564","2024-12-23 04:15:00","11.1312","3.44581","26.071","4.292857142857143","7.33","2.686","1463.415","0","0","30.3425","4.76846","47.34","0","SATNPRO1963","26.476","0.37086","5"],
    [43381,"HCEP03730564","2024-12-23 04:30:00","11.1322","3.44626","26.077","4.31","7.32","2.541","1613.805","0","2.77","30.3461","4.76895","47.53","0","SATNPRO1963","26.438","0.37028","5"],
    [43382,"HCEP03730564","2024-12-23 04:45:00","11.1316","3.44615","26.07","4.322857142857143","7.32","2.666","1471.099","0.01","3.45","30.3455","4.76888","47.67","0","SATNPRO1963","26.376","0.36946","5"],
    [43383,"HCEP03730564","2024-12-23 05:00:00","11.1298","3.44552","26.088","4.292857142857143","7.33","2.665","1459.748","0","0","30.3409","4.76826","47.34","0","SATNPRO1963","26.392","0.36966","5"],
    [43384,"HCEP03730564","2024-12-23 05:15:00","11.13","3.44557","26.15","4.275714285714286","7.32","2.571","1617.031","0","1.96","30.3412","4.7683","47.14","0","SATNPRO1963","26.186","0.3668","5"],
    [43385,"HCEP03730564","2024-12-23 05:30:00","11.1318","3.4466","26.164","4.261428571428572","7.32","2.689","1444.938","0.01","2.74","30.3498","4.76948","47","0","SATNPRO1963","26.558","0.37198","5"],
    [43386,"HCEP03730564","2024-12-23 05:45:00","11.1309","3.44703","26.214","4.251428571428572","7.32","2.689","1434.204","0","0.66","30.3547","4.77019","46.88","0","SATNPRO1963","26.402","0.36982","5"],
    [43387,"HCEP03730564","2024-12-23 06:00:00","11.1291","3.4462","26.293","4.257142857142857","7.32","2.582","1586.525","0","2.71","30.348","4.76928","46.94","0","SATNPRO1963","26.38","0.36948","5"],
    [43388,"HCEP03730564","2024-12-23 06:15:00","11.129","3.44613","26.387","4.238571428571428","7.32","2.68","1411.341","0.01","3.37","30.3474","4.7692","46.74","0","SATNPRO1963","26.206","0.3671","5"],
    [43389,"HCEP03730564","2024-12-23 06:30:00","11.1259","3.44445","26.496","4.224285714285714","7.32","2.677","1400.065","0","0","30.3335","4.76729","46.57","0","SATNPRO1963","26.164","0.3665","5"],
    [43390,"HCEP03730564","2024-12-23 06:45:00","11.123","3.44325","26.616","4.225714285714286","7.32","2.558","1531.018","0","4.34","30.3241","4.76601","46.58","0","SATNPRO1963","26.102","0.36558","5"],
    [43391,"HCEP03730564","2024-12-23 07:00:00","11.1272","3.44543","26.731","4.211428571428572","7.31","2.671","1390.926","0.01","3.07","30.3419","4.76847","46.43","0","SATNPRO1963","26.008","0.36424","5"],
    [43392,"HCEP03730564","2024-12-23 07:15:00","11.1302","3.44689","26.83","4.178571428571429","7.32","2.67","1381.857","0","1.15","30.3537","4.77011","46.08","0","SATNPRO1963","25.772000000000002","0.36096","5"],
    [43393,"HCEP03730564","2024-12-23 07:30:00","11.1281","3.44627","26.98","4.137142857142857","7.31","2.565","1529.17","0","2.33","30.3493","4.76952","45.62","0","SATNPRO1963","25.914","0.363","5"],
    [43394,"HCEP03730564","2024-12-23 07:45:00","11.1295","3.44678","27.107","4.107142857142858","7.31","2.686","1364.618","0.01","2.66","30.353","4.77003","45.29","0","SATNPRO1963","25.844","0.36202","5"],
    [43395,"HCEP03730564","2024-12-23 08:00:00","11.1284","3.44656","27.236","4.081428571428572","7.32","2.686","1356.793","0","0.54","30.3517","4.76987","45","0","SATNPRO1963","26.034","0.36464","5"],
    [43396,"HCEP03730564","2024-12-23 08:15:00","11.129","3.44689","27.365","4.07","7.31","2.562","1521.234","0","2.36","30.3544","4.77026","44.88","0","SATNPRO1963","25.71","0.36012","5"],
    [43397,"HCEP03730564","2024-12-23 08:30:00","11.1282","3.44676","27.519","4.065714285714286","7.31","2.67","1335.29","0.01","4.1","30.3538","4.77018","44.83","0","SATNPRO1963","25.75","0.36066","5"],
    [43398,"HCEP03730564","2024-12-23 08:45:00","11.1283","3.44684","27.626","4.065714285714286","7.31","2.669","1323.853","0","0.77","30.3544","4.77028","44.83","0","SATNPRO1963","25.962","0.36366","5"],
    [43399,"HCEP03730564","2024-12-23 09:00:00","11.1286","3.447","27.703","4.062857142857143","7.31","2.532","1493.462","0","4.27","30.3557","4.77045","44.8","0","SATNPRO1963","25.69","0.35982","5"],
    [43400,"HCEP03730564","2024-12-23 09:15:00","11.1283","3.44712","27.815","4.065714285714286","7.31","2.642","1314.946","0.01","3","30.3571","4.77067","44.83","0","SATNPRO1963","25.766","0.36088","5"],
    [43401,"HCEP03730564","2024-12-23 09:30:00","11.1281","3.44719","27.833","4.071428571428572","7.32","2.639","1306.02","0","0","30.3579","4.77078","44.9","0","SATNPRO1963","26.018","0.36444","5"],
    [43402,"HCEP03730564","2024-12-23 09:45:00","11.1285","3.44714","27.981","4.072857142857143","7.31","2.513","1508.735","0","6.11","30.357","4.77067","44.91","0","SATNPRO1963","25.79","0.36122","5"],
    [43403,"HCEP03730564","2024-12-23 10:00:00","11.1288","3.44707","28.008","4.067142857142858","7.31","2.659","1331.752","0.01","2.27","30.3561","4.77053","44.85","0","SATNPRO1963","25.828","0.3618","5"],
    [43404,"HCEP03730564","2024-12-23 10:15:00","11.1289","3.44704","28.037","4.047142857142857","7.32","2.66","1322.191","0","0.66","30.3557","4.77047","44.62","0","SATNPRO1963","25.791999999999998","0.36122","5"],
    [43405,"HCEP03730564","2024-12-23 10:30:00","11.1288","3.44703","28.068","4.05","7.32","2.554","1514.484","0","2.68","30.3557","4.77048","44.66","0","SATNPRO1963","25.824","0.3617","5"],
    [43406,"HCEP03730564","2024-12-23 10:45:00","11.1285","3.44676","28.118","4.061428571428571","7.31","2.68","1382.284","0","2.43","30.3533","4.77015","44.79","0","SATNPRO1963","25.828","0.36178","5"],
    [43407,"HCEP03730564","2024-12-23 11:00:00","11.1284","3.44683","28.124","4.078571428571428","7.32","2.681","1372.214","0","0.38","30.3541","4.77025","44.98","0","SATNPRO1963","25.928","0.36312","5"],
    [43408,"HCEP03730564","2024-12-23 11:15:00","11.1287","3.44699","28.111","4.074285714285714","7.31","2.578","1527.227","0","3.56","30.3553","4.77043","44.92","0","SATNPRO1963","25.882","0.36252","5"],
    [43409,"HCEP03730564","2024-12-23 11:30:00","11.1285","3.44684","28.083","4.064285714285715","7.31","2.666","1391.234","0.01","3.95","30.354","4.77025","44.82","0","SATNPRO1963","25.79","0.36124","5"],
    [43410,"HCEP03730564","2024-12-23 11:45:00","11.1286","3.44665","28.043","4.06","7.31","2.667","1380.699","0","0.38","30.3522","4.76998","44.76","0","SATNPRO1963","26.024","0.3645","5"],
    [43411,"HCEP03730564","2024-12-23 12:00:00","11.13","3.4465","27.988","4.041428571428572","7.31","2.57","1529.043","0","2.57","30.3496","4.76959","44.56","0","SATNPRO1963","25.714","0.36014","5"],
    [43412,"HCEP03730564","2024-12-23 12:15:00","11.13","3.44691","27.923","4.022857142857143","7.31","2.682","1373.343","0.01","3.16","30.3536","4.77015","44.36","0","SATNPRO1963","26.032","0.3646","5"],
    [43413,"HCEP03730564","2024-12-23 12:30:00","11.1285","3.4463","27.854","4.117142857142857","7.32","2.682","1363.559","0","0","30.3489","4.76951","45.4","0","SATNPRO1963","26.054","0.36494","5"],
    [43414,"HCEP03730564","2024-12-23 12:45:00","11.129","3.44664","27.804","4.151428571428572","7.32","2.566","1513.029","0","4.36","30.3518","4.76991","45.78","0","SATNPRO1963","26.22","0.36726","5"],
    [43415,"HCEP03730564","2024-12-23 13:00:00","11.1302","3.44707","27.69","4.164285714285715","7.32","2.683","1367.568","0","4.41","30.355","4.77034","45.93","0","SATNPRO1963","25.924","0.3631","5"],
    [43416,"HCEP03730564","2024-12-23 13:15:00","11.1308","3.44714","27.603","4.144285714285714","7.33","2.684","1357.596","0","0.77","30.3553","4.77036","45.7","0","SATNPRO1963","26.11","0.36576","5"],
    [43417,"HCEP03730564","2024-12-23 13:30:00","11.1322","3.4477","27.497","4.144285714285714","7.32","2.547","1500.617","0","2.03","30.3596","4.77095","45.71","0","SATNPRO1963","26.242","0.36754","5"],
    [43418,"HCEP03730564","2024-12-23 13:45:00","11.1331","3.44805","27.383","4.16","7.32","2.679","1383.924","0.01","3.72","30.3624","4.77132","45.88","0","SATNPRO1963","26.104","0.36564","5"],
    [43419,"HCEP03730564","2024-12-23 14:00:00","11.1326","3.44773","27.274","4.175714285714286","7.33","2.68","1374.72","0","0.54","30.3596","4.77093","46.05","0","SATNPRO1963","26.154","0.3663","5"],
    [43420,"HCEP03730564","2024-12-23 14:15:00","11.1331","3.44786","27.166","4.180000000000001","7.32","2.566","1545.325","0","2.49","30.3606","4.77105","46.1","0","SATNPRO1963","26.136","0.3661","5"],
    [43421,"HCEP03730564","2024-12-23 14:30:00","11.135","3.44862","27.044","4.171428571428572","7.32","2.672","1383.962","0.01","2.71","30.3665","4.77185","46.01","0","SATNPRO1963","25.988","0.36404","5"],
    [43422,"HCEP03730564","2024-12-23 14:45:00","11.1364","3.44905","26.903","4.154285714285714","7.33","2.673","1376.022","0","0","30.3696","4.77227","45.82","0","SATNPRO1963","26.034","0.36464","5"],
    [43423,"HCEP03730564","2024-12-23 15:00:00","11.1369","3.44925","26.768","4.148571428571429","7.32","2.552","1533.852","0","2.24","30.3712","4.77248","45.76","0","SATNPRO1963","26.064","0.36506","5"],
    [43424,"HCEP03730564","2024-12-23 15:15:00","11.137","3.44944","26.62","4.148571428571429","7.32","2.673","1353.108","0","2.3","30.373","4.77273","45.76","0","SATNPRO1963","26.172","0.3666","5"],
    [43425,"HCEP03730564","2024-12-23 15:30:00","11.1372","3.44958","26.453","4.155714285714286","7.32","2.674","1343.355","0","0.38","30.3742","4.77288","45.84","0","SATNPRO1963","26.094","0.36544","5"],
    [43426,"HCEP03730564","2024-12-23 15:45:00","11.1373","3.44969","26.296","4.165714285714286","7.32","2.561","1511.094","0","2.82","30.3753","4.77303","45.95","0","SATNPRO1963","26.02","0.36448","5"],
    [43427,"HCEP03730564","2024-12-23 16:00:00","11.1381","3.45002","26.162","4.167142857142857","7.32","2.645","1346.322","0.01","4.82","30.3779","4.77337","45.97","0","SATNPRO1963","26.394000000000002","0.36966","5"],
    [43428,"HCEP03730564","2024-12-23 16:15:00","11.1381","3.4501","26.03","4.157142857142858","7.33","2.644","1337.037","0","0.38","30.3788","4.7735","45.86","0","SATNPRO1963","25.864","0.36226","5"],
    [43429,"HCEP03730564","2024-12-23 16:30:00","11.1369","3.44986","25.907","4.161428571428571","7.32","2.523","1492.208","0","1.88","30.3775","4.77332","45.91","0","SATNPRO1963","25.908","0.3629","5"],
    [43430,"HCEP03730564","2024-12-23 16:45:00","11.1362","3.44957","25.81","4.16","7.32","2.644","1347.238","0.01","3.58","30.3754","4.77302","45.88","0","SATNPRO1963","25.89","0.36262","5"],
    [43431,"HCEP03730564","2024-12-23 17:00:00","11.1352","3.44918","25.72","4.12","7.32","2.644","1337.52","0","0.54","30.3724","4.77261","45.45","0","SATNPRO1963","25.692","0.35984","5"],
    [43432,"HCEP03730564","2024-12-23 17:15:00","11.135","3.44928","25.646","4.078571428571428","7.32","2.523","1481.099","0","2.46","30.3735","4.77277","44.99","0","SATNPRO1963","25.904","0.36284","5"],
    [43433,"HCEP03730564","2024-12-23 17:30:00","11.1352","3.44949","25.585","4.06","7.32","2.644","1355.74","0.01","2.87","30.3754","4.77303","44.78","0","SATNPRO1963","25.766000000000002","0.36088","5"],
    [43434,"HCEP03730564","2024-12-23 17:45:00","11.135","3.44959","25.573","4.067142857142858","7.33","2.643","1346.146","0","0.94","30.3765","4.77319","44.86","0","SATNPRO1963","25.78","0.36112","5"],
    [43435,"HCEP03730564","2024-12-23 18:00:00","11.135","3.44962","25.637","4.078571428571428","7.32","2.518","1487.544","0","3.68","30.3769","4.77325","44.98","0","SATNPRO1963","26.168","0.36654","5"],
    [43436,"HCEP03730564","2024-12-23 18:15:00","11.1349","3.44972","25.623","4.08","7.32","2.648","1344.064","0.01","2.77","30.3779","4.77339","45","0","SATNPRO1963","25.92","0.36308","5"],
    [43437,"HCEP03730564","2024-12-23 18:30:00","11.135","3.44972","25.625","4.087142857142857","7.32","2.648","1335.509","0","0.38","30.3778","4.77337","45.08","0","SATNPRO1963","26.154","0.36634","5"],
    [43438,"HCEP03730564","2024-12-23 18:45:00","11.1345","3.44962","25.618","4.081428571428572","7.32","2.539","1487.63","0","5.15","30.3772","4.7733","45.02","0","SATNPRO1963","25.778000000000002","0.36108","5"],
    [43439,"HCEP03730564","2024-12-23 19:00:00","11.1344","3.44942","25.609","4.072857142857143","7.32","2.664","1359.509","0.01","2.84","30.3754","4.77304","44.92","0","SATNPRO1963","25.9","0.36274","5"],
    [43440,"HCEP03730564","2024-12-23 19:15:00","11.1339","3.44931","25.645","4.101428571428571","7.32","2.665","1341.941","0","0","30.3748","4.77296","45.23","0","SATNPRO1963","25.95","0.3635","5"],
    [43441,"HCEP03730564","2024-12-23 19:30:00","11.1324","3.44866","25.693","4.12","7.32","2.553","1521.862","0.01","7.83","30.3696","4.77225","45.44","0","SATNPRO1963","26.218","0.36726","5"],
    [43442,"HCEP03730564","2024-12-23 19:45:00","11.1336","3.44923","25.752","4.124285714285715","7.32","2.673","1411.638","0","3.72","30.3742","4.77289","45.49","0","SATNPRO1963","25.951999999999998","0.36348","5"],
    [43443,"HCEP03730564","2024-12-23 20:00:00","11.1338","3.44913","25.804","4.111428571428572","7.33","2.675","1401.526","0","1.21","30.373","4.77272","45.35","0","SATNPRO1963","25.806","0.36144","5"],
    [43444,"HCEP03730564","2024-12-23 20:15:00","11.1333","3.44877","25.908","4.094285714285714","7.32","2.576","1552.422","0","3.3","30.3698","4.77228","45.16","0","SATNPRO1963","25.91","0.3629","5"],
    [43445,"HCEP03730564","2024-12-23 20:30:00","11.1348","3.44898","25.97","4.062857142857143","7.32","2.688","1358.774","0","5.17","30.3706","4.77237","44.8","0","SATNPRO1963","25.605999999999998","0.35866","5"],
    [43446,"HCEP03730564","2024-12-23 20:45:00","11.1351","3.44889","26.058","4.048571428571429","7.33","2.694","1349.44","0","0.86","30.3694","4.77221","44.65","0","SATNPRO1963","25.79","0.36122","5"],
    [43447,"HCEP03730564","2024-12-23 21:00:00","11.1354","3.44886","26.121","4.051428571428572","7.32","2.613","1453.744","0","3.43","30.3689","4.77214","44.69","0","SATNPRO1963","25.556","0.35792","5"],
    [43448,"HCEP03730564","2024-12-23 21:15:00","11.1352","3.44846","26.088","4.09","7.32","2.706","1357.084","0.01","3.58","30.3652","4.77162","45.11","0","SATNPRO1963","25.9","0.3628","5"],
    [43449,"HCEP03730564","2024-12-23 21:30:00","11.1345","3.44805","26.19","4.102857142857143","7.33","2.707","1346.566","0","0.94","30.3617","4.77113","45.25","0","SATNPRO1963","25.836","0.36186","5"],
    [43450,"HCEP03730564","2024-12-23 21:45:00","11.1331","3.4474","26.221","4.091428571428572","7.32","2.6","1487.543","0","2.6","30.3565","4.77042","45.12","0","SATNPRO1963","25.945999999999998","0.3634","5"],
    [43451,"HCEP03730564","2024-12-23 22:00:00","11.1287","3.44509","26.341","4.07","7.32","2.702","1383.23","0.01","3.04","30.3375","4.7678","44.88","0","SATNPRO1963","26.002","0.36422","5"],
    [43452,"HCEP03730564","2024-12-23 22:15:00","11.1269","3.44425","26.39","4.074285714285714","7.32","2.704","1373.473","0","1.08","30.3308","4.76688","44.92","0","SATNPRO1963","26.038","0.3647","5"],
    [43453,"HCEP03730564","2024-12-23 22:30:00","11.1254","3.44329","26.484","4.098571428571429","7.31","2.589","1544.49","0","4.37","30.3226","4.76576","45.18","0","SATNPRO1963","26.192","0.36692","5"],
    [43454,"HCEP03730564","2024-12-23 22:45:00","11.1201","3.44072","26.632","4.114285714285714","7.31","2.687","1362.268","0","3.76","30.3019","4.7629","45.35","0","SATNPRO1963","26.312","0.3685","5"],
    [43455,"HCEP03730564","2024-12-23 23:00:00","11.1199","3.44041","26.675","4.112857142857143","7.32","2.691","1353.475","0","0.86","30.299","4.7625","45.32","0","SATNPRO1963","26.216","0.36722","5"],
    [43456,"HCEP03730564","2024-12-23 23:15:00","11.1207","3.44096","26.82","4.112857142857143","7.31","2.585","1512.088","0","2.24","30.3036","4.76314","45.33","0","SATNPRO1963","26.398","0.36974","5"],
    [43457,"HCEP03730564","2024-12-23 23:30:00","11.1248","3.44291","26.897","4.122857142857143","7.31","2.688","1388.631","0.01","4.13","30.3192","4.7653","45.45","0","SATNPRO1963","26.43","0.37022","5"],
    [43458,"HCEP03730564","2024-12-23 23:45:00","11.1255","3.44321","26.942","4.141428571428572","7.32","2.688","1378.412","0","1.15","30.3215","4.76561","45.65","0","SATNPRO1963","26.396","0.36972","5"],
    [43459,"HCEP03730564","2024-12-24 00:00:00","11.1262","3.44383","26.953","4.145714285714286","7.31","2.563","1540.78","0","3.95","30.3269","4.76638","45.71","0","SATNPRO1963","26.214","0.36716","5"],
    [43460,"HCEP03730564","2024-12-24 00:15:00","11.1278","3.44442","26.988","4.138571428571429","7.31","2.695","1415.843","0","2.43","30.3315","4.767","45.63","0","SATNPRO1963","26.258","0.36778","5"],
    [43461,"HCEP03730564","2024-12-24 00:30:00","11.1284","3.44478","27.017","4.111428571428572","7.32","2.697","1407.141","0","0","30.3345","4.76742","45.33","0","SATNPRO1963","26.278","0.36804","5"],
    [43462,"HCEP03730564","2024-12-24 00:45:00","11.1295","3.44496","27.04","4.098571428571429","7.31","2.599","1540.303","0","6.45","30.3353","4.76753","45.2","0","SATNPRO1963","26.094","0.36548","5"],
    [43463,"HCEP03730564","2024-12-24 01:00:00","11.1286","3.44473","27.092","4.091428571428572","7.31","2.69","1436.681","0.01","2.79","30.3338","4.76732","45.12","0","SATNPRO1963","26.15","0.36628","5"],
    [43464,"HCEP03730564","2024-12-24 01:15:00","11.1291","3.44524","27.08","4.081428571428572","7.32","2.691","1426.646","0","0","30.3383","4.76795","45","0","SATNPRO1963","25.982","0.36392","5"],
    [43465,"HCEP03730564","2024-12-24 01:30:00","11.1307","3.44621","27.038","4.084285714285714","7.32","2.615","1551.03","0","3.34","30.3465","4.76909","45.03","0","SATNPRO1963","26.136","0.36606","5"],
    [43466,"HCEP03730564","2024-12-24 01:45:00","11.1307","3.44622","27.037","4.065714285714286","7.32","2.694","1427.041","0.01","2.97","30.3466","4.7691","44.83","0","SATNPRO1963","25.918","0.36302","5"],
    [43467,"HCEP03730564","2024-12-24 02:00:00","11.1336","3.44784","26.998","4.04","7.33","2.694","1418.474","0","0","30.3601","4.77096","44.56","0","SATNPRO1963","26.164","0.36646","5"],
    [43468,"HCEP03730564","2024-12-24 02:15:00","11.1343","3.44835","26.986","4.045714285714285","7.32","2.608","1544.53","0","1.92","30.3645","4.77158","44.62","0","SATNPRO1963","25.846","0.362","5"],
    [43469,"HCEP03730564","2024-12-24 02:30:00","11.1339","3.44842","26.903","4.044285714285714","7.32","2.691","1416.653","0","2.49","30.3655","4.77172","44.61","0","SATNPRO1963","25.816","0.3616","5"],
    [43470,"HCEP03730564","2024-12-24 02:45:00","11.1337","3.44852","26.891","4.045714285714285","7.33","2.692","1408.499","0","0","30.3667","4.77189","44.61","0","SATNPRO1963","26.002","0.3642","5"],
    [43471,"HCEP03730564","2024-12-24 03:00:00","11.1338","3.44863","26.822","4.047142857142857","7.32","2.572","1552.336","0","2.24","30.3677","4.77204","44.63","0","SATNPRO1963","25.848","0.36198","5"],
    [43472,"HCEP03730564","2024-12-24 03:15:00","11.134","3.44887","26.815","4.025714285714286","7.32","2.668","1416.086","0","2.95","30.3698","4.77233","44.4","0","SATNPRO1963","25.926000000000002","0.36314","5"],
    [43473,"HCEP03730564","2024-12-24 03:30:00","11.1351","3.44938","26.8","4.012857142857143","7.32","2.67","1408.028","0","1.01","30.374","4.7729","44.26","0","SATNPRO1963","25.85","0.3621","5"],
    [43474,"HCEP03730564","2024-12-24 03:45:00","11.1367","3.45","26.779","4.028571428571428","7.32","2.584","1566.27","0","2.3","30.3787","4.77354","44.43","0","SATNPRO1963","26.067999999999998","0.3651","5"],
    [43475,"HCEP03730564","2024-12-24 04:00:00","11.1372","3.45015","26.773","4.084285714285714","7.31","2.684","1437.973","0","2.57","30.3797","4.77368","45.05","0","SATNPRO1963","26.044","0.36482","5"],
    [43476,"HCEP03730564","2024-12-24 04:15:00","11.1374","3.45014","26.744","4.109999999999999","7.32","2.686","1428.95","0","0.94","30.3795","4.77364","45.33","0","SATNPRO1963","26.272","0.36802","5"],
    [43477,"HCEP03730564","2024-12-24 04:30:00","11.136","3.45023","26.716","4.154285714285714","7.32","2.593","1547.877","0","2.6","30.3815","4.77394","45.83","0","SATNPRO1963","26.264","0.36788","5"],
    [43478,"HCEP03730564","2024-12-24 04:45:00","11.135","3.44925","26.728","4.128571428571429","7.31","2.682","1415.519","0.01","2.92","30.3728","4.77273","45.53","0","SATNPRO1963","26.192","0.36684","5"],
    [43479,"HCEP03730564","2024-12-24 05:00:00","11.1356","3.44986","26.742","4.121428571428571","7.32","2.682","1406.293","0","0.94","30.3783","4.77349","45.47","0","SATNPRO1963","26.14","0.36612","5"],
    [43480,"HCEP03730564","2024-12-24 05:15:00","11.135","3.44944","26.739","4.055714285714286","7.31","2.573","1561.804","0","3.21","30.3747","4.773","44.73","0","SATNPRO1963","25.86","0.36222","5"],
    [43481,"HCEP03730564","2024-12-24 05:30:00","11.1327","3.44881","26.736","4.028571428571428","7.31","2.666","1446.919","0.01","3.64","30.3703","4.77242","44.43","0","SATNPRO1963","25.88","0.3625","5"],
    [43482,"HCEP03730564","2024-12-24 05:45:00","11.1303","3.44801","26.73","3.99","7.31","2.665","1435.17","0","0.54","30.3645","4.77163","44.01","0","SATNPRO1963","25.740000000000002","0.3605","5"],
    [43483,"HCEP03730564","2024-12-24 06:00:00","11.1286","3.44752","26.766","3.962857142857143","7.31","2.598","1526.761","0","2.57","30.3612","4.77118","43.7","0","SATNPRO1963","25.69","0.35984","5"],
    [43484,"HCEP03730564","2024-12-24 06:15:00","11.1264","3.44706","26.812","3.981428571428571","7.3","2.691","1401.823","0","2.2","30.3585","4.77084","43.91","0","SATNPRO1963","25.919999999999998","0.363","5"],
    [43485,"HCEP03730564","2024-12-24 06:30:00","11.1256","3.44692","26.886","4.005714285714285","7.31","2.693","1392.033","0","1.08","30.3577","4.77074","44.17","0","SATNPRO1963","25.82","0.36166","5"],
    [43486,"HCEP03730564","2024-12-24 06:45:00","11.1245","3.44696","26.933","4.02","7.3","2.589","1484.063","0","2.84","30.359","4.77094","44.33","0","SATNPRO1963","25.84","0.36196","5"],
    [43487,"HCEP03730564","2024-12-24 07:00:00","11.1255","3.44743","26.988","4.021428571428571","7.3","2.692","1398.337","0.01","3.07","30.3627","4.77145","44.34","0","SATNPRO1963","25.816","0.36166","5"],
    [43488,"HCEP03730564","2024-12-24 07:15:00","11.1261","3.44805","27.067","4.01","7.31","2.692","1387.547","0","0.54","30.3684","4.77225","44.23","0","SATNPRO1963","25.964","0.3637","5"],
    [43489,"HCEP03730564","2024-12-24 07:30:00","11.1264","3.44866","27.173","4.025714285714286","7.31","2.605","1488.5","0","2.14","30.3739","4.77305","44.4","0","SATNPRO1963","26.012","0.36432","5"],
    [43490,"HCEP03730564","2024-12-24 07:45:00","11.1261","3.44894","27.273","4.031428571428572","7.3","2.672","1404.776","0.01","2.77","30.3769","4.77347","44.46","0","SATNPRO1963","26.264","0.36788","5"],
    [43491,"HCEP03730564","2024-12-24 08:00:00","11.1256","3.44908","27.362","4.045714285714285","7.31","2.673","1395.523","0","0","30.3786","4.77373","44.61","0","SATNPRO1963","25.984","0.36396","5"],
    [43492,"HCEP03730564","2024-12-24 08:15:00","11.1252","3.44864","27.453","4.054285714285714","7.31","2.59","1501.775","0","2.14","30.3746","4.77317","44.7","0","SATNPRO1963","26.032","0.36466","5"],
    [43493,"HCEP03730564","2024-12-24 08:30:00","11.1249","3.4483","27.536","4.047142857142857","7.31","2.672","1411.933","0.01","2.84","30.3716","4.77276","44.64","0","SATNPRO1963","26.07","0.36516","5"],
    [43494,"HCEP03730564","2024-12-24 08:45:00","11.1252","3.44857","27.627","4.044285714285714","7.31","2.674","1402.304","0","1.49","30.3739","4.77308","44.59","0","SATNPRO1963","25.942","0.36336","5"],
    [43495,"HCEP03730564","2024-12-24 09:00:00","11.1254","3.44877","27.711","4.041428571428572","7.31","2.582","1514.921","0","3.87","30.3756","4.77333","44.57","0","SATNPRO1963","25.87","0.36238","5"],
    [43496,"HCEP03730564","2024-12-24 09:15:00","11.1258","3.44914","27.76","4.057142857142857","7.31","2.678","1351.951","0","2.54","30.3789","4.77379","44.75","0","SATNPRO1963","25.9","0.36278","5"],
    [43497,"HCEP03730564","2024-12-24 09:30:00","11.126","3.44917","27.834","4.062857142857143","7.31","2.68","1342.648","0","0","30.379","4.7738","44.8","0","SATNPRO1963","25.962","0.36364","5"],
    [43498,"HCEP03730564","2024-12-24 09:45:00","11.1262","3.44902","27.909","4.067142857142858","7.3","2.564","1468.728","0","2.43","30.3773","4.77357","44.85","0","SATNPRO1963","26.009999999999998","0.36432","5"],
    [43499,"HCEP03730564","2024-12-24 10:00:00","11.1279","3.44944","27.97","4.054285714285714","7.3","2.655","1335.746","0.01","2.82","30.38","4.77392","44.71","0","SATNPRO1963","26.032","0.36462","5"],
    [43500,"HCEP03730564","2024-12-24 10:15:00","11.1295","3.44966","27.999","4.021428571428571","7.31","2.653","1326.635","0","0","30.3808","4.77402","44.36","0","SATNPRO1963","26.1","0.36558","5"],
    [43501,"HCEP03730564","2024-12-24 10:30:00","11.1329","3.45067","28.053","4.022857142857143","7.3","2.538","1441.816","0","3.19","30.3878","4.77496","44.37","0","SATNPRO1963","25.796","0.36132","5"],
    [43502,"HCEP03730564","2024-12-24 10:45:00","11.1348","3.45155","28.097","4.037142857142857","7.3","2.637","1298.53","0.01","2.54","30.3949","4.77593","44.54","0","SATNPRO1963","26.074","0.36524","5"],
    [43503,"HCEP03730564","2024-12-24 11:00:00","11.1358","3.45204","28.091","4.095714285714286","7.31","2.636","1290.447","0","0","30.3988","4.77648","45.18","0","SATNPRO1963","26.208","0.36708","5"],
    [43504,"HCEP03730564","2024-12-24 11:15:00","11.135","3.45176","28.093","4.121428571428571","7.31","2.532","1418.679","0","2.92","30.3968","4.7762","45.46","0","SATNPRO1963","26.296","0.36832","5"],
    [43505,"HCEP03730564","2024-12-24 11:30:00","11.1367","3.45215","28.079","4.154285714285714","7.31","2.624","1331.01","0.01","3.32","30.3992","4.77652","45.84","0","SATNPRO1963","26.202","0.36702","5"],
    [43506,"HCEP03730564","2024-12-24 11:45:00","11.1375","3.45248","28.046","4.137142857142857","7.32","2.624","1323.23","0","0","30.4017","4.77686","45.64","0","SATNPRO1963","26.272","0.36802","5"],
    [43507,"HCEP03730564","2024-12-24 12:00:00","11.138","3.45294","28.028","4.151428571428572","7.32","2.521","1448.79","0","2.33","30.4059","4.77744","45.81","0","SATNPRO1963","26.156","0.36634","5"],
    [43508,"HCEP03730564","2024-12-24 12:15:00","11.1364","3.45174","27.988","4.168571428571429","7.31","2.62","1300.896","0.01","3.09","30.3955","4.776","45.98","0","SATNPRO1963","26.214","0.3672","5"],
    [43509,"HCEP03730564","2024-12-24 12:30:00","11.1385","3.45289","27.926","4.167142857142857","7.32","2.616","1292.612","0","1.01","30.405","4.7773","45.97","0","SATNPRO1963","26.25","0.36768","5"],
    [43510,"HCEP03730564","2024-12-24 12:45:00","11.1402","3.45334","27.881","4.162857142857143","7.32","2.488","1465.919","0","2.1","30.408","4.7777","45.92","0","SATNPRO1963","26.009999999999998","0.36428","5"],
    [43511,"HCEP03730564","2024-12-24 13:00:00","11.1406","3.45334","27.805","4.145714285714286","7.32","2.637","1290.384","0.01","2.77","30.4077","4.77765","45.73","0","SATNPRO1963","26.278","0.36808","5"],
    [43512,"HCEP03730564","2024-12-24 13:15:00","11.1415","3.45334","27.706","4.164285714285715","7.32","2.634","1282.215","0","0.54","30.407","4.77752","45.94","0","SATNPRO1963","26.24","0.36756","5"],
    [43513,"HCEP03730564","2024-12-24 13:30:00","11.1429","3.45355","27.602","4.164285714285715","7.31","2.479","1460.723","0","2.77","30.408","4.77764","45.95","0","SATNPRO1963","26.072","0.36518","5"],
    [43514,"HCEP03730564","2024-12-24 13:45:00","11.1439","3.45358","27.48","4.142857142857143","7.31","2.62","1278.634","0.01","3.09","30.4075","4.77755","45.71","0","SATNPRO1963","26.29","0.36826","5"],
    [43515,"HCEP03730564","2024-12-24 14:00:00","11.1434","3.453","27.346","4.127142857142857","7.32","2.617","1270.583","0","0","30.4023","4.77682","45.55","0","SATNPRO1963","26.184","0.36672","5"],
    [43516,"HCEP03730564","2024-12-24 14:15:00","11.1424","3.45208","27.199","4.125714285714285","7.31","2.503","1432.25","0","2.95","30.3942","4.77567","45.51","0","SATNPRO1963","26.06","0.36502","5"],
    [43517,"HCEP03730564","2024-12-24 14:30:00","11.1413","3.45139","27.049","4.12","7.31","2.629","1282.28","0","2.4","30.3883","4.77485","45.46","0","SATNPRO1963","26.034","0.36466","5"],
    [43518,"HCEP03730564","2024-12-24 14:45:00","11.1401","3.4504","26.862","4.085714285714285","7.31","2.629","1273.682","0","0","30.3798","4.77365","45.07","0","SATNPRO1963","25.964","0.36368","5"],
    [43519,"HCEP03730564","2024-12-24 15:00:00","11.1394","3.45026","26.716","4.05","7.31","2.491","1445.894","0","2.43","30.379","4.77354","44.68","0","SATNPRO1963","26.056","0.36496","5"],
    [43520,"HCEP03730564","2024-12-24 15:15:00","11.1376","3.44944","26.597","4.025714285714286","7.31","2.611","1263.069","0.01","2.54","30.3726","4.77265","44.4","0","SATNPRO1963","26.648","0.37326","5"],
    [43521,"HCEP03730564","2024-12-24 15:30:00","11.135","3.44807","26.471","4.001428571428572","7.31","2.61","1255.124","0","0","30.3613","4.77109","44.14","0","SATNPRO1963","25.364","0.35524","5"],
    [43522,"HCEP03730564","2024-12-24 15:45:00","11.1353","3.44808","26.336","3.984285714285714","7.3","2.483","1402.561","0","2.63","30.3613","4.77107","43.94","0","SATNPRO1963","26.19","0.36684","5"],
    [43523,"HCEP03730564","2024-12-24 16:00:00","11.1333","3.44712","26.201","3.972857142857143","7.29","2.614","1261.464","0.01","2.57","30.3536","4.77001","43.81","0","SATNPRO1963","25.933999999999997","0.36326","5"],
    [43524,"HCEP03730564","2024-12-24 16:15:00","11.1345","3.44763","26.039","3.96","7.3","2.614","1253.008","0","0","30.3576","4.77054","43.68","0","SATNPRO1963","26.026","0.36454","5"],
    [43525,"HCEP03730564","2024-12-24 16:30:00","11.1338","3.4471","25.871","3.947142857142857","7.3","2.486","1385.988","0","3.12","30.3531","4.76991","43.54","0","SATNPRO1963","25.740000000000002","0.36052","5"],
    [43526,"HCEP03730564","2024-12-24 16:45:00","11.1348","3.44759","25.735","3.941428571428571","7.29","2.617","1237.158","0.01","2.3","30.3571","4.77046","43.48","0","SATNPRO1963","25.756","0.36076","5"],
    [43527,"HCEP03730564","2024-12-24 17:00:00","11.1349","3.44767","25.622","3.947142857142857","7.3","2.616","1229.031","0","0.86","30.3579","4.77056","43.54","0","SATNPRO1963","25.686","0.35974","5"],
    [43528,"HCEP03730564","2024-12-24 17:15:00","11.1406","3.45074","25.519","3.948571428571428","7.3","2.466","1392.622","0.01","2.77","30.3832","4.77405","43.55","0","SATNPRO1963","25.934","0.36324","5"],
    [43529,"HCEP03730564","2024-12-24 17:30:00","11.1419","3.45138","25.436","3.95","7.3","2.597","1213.131","0.01","2.52","30.3884","4.77476","43.57","0","SATNPRO1963","25.55","0.35786","5"],
    [43530,"HCEP03730564","2024-12-24 17:45:00","11.1422","3.45144","25.367","3.964285714285714","7.3","2.595","1204.415","0","0.94","30.3888","4.77482","43.73","0","SATNPRO1963","26.064","0.36506","5"],
    [43531,"HCEP03730564","2024-12-24 18:00:00","11.142","3.45172","25.319","3.981428571428571","7.3","2.456","1377.178","0","2.46","30.3917","4.77522","43.93","0","SATNPRO1963","26.032","0.36462","5"],
    [43532,"HCEP03730564","2024-12-24 18:15:00","11.141","3.45121","25.283","3.995714285714286","7.3","2.603","1214.554","0.01","2.4","30.3875","4.77464","44.09","0","SATNPRO1963","25.672","0.35954","5"],
    [43533,"HCEP03730564","2024-12-24 18:30:00","11.1399","3.45079","25.257","4.021428571428571","7.31","2.602","1206.103","0","1.01","30.3843","4.77421","44.37","0","SATNPRO1963","25.76","0.36082","5"],
    [43534,"HCEP03730564","2024-12-24 18:45:00","11.1379","3.44992","25.248","4.028571428571428","7.3","2.463","1376.633","0","2.1","30.3775","4.77327","44.44","0","SATNPRO1963","26.028","0.36458","5"],
    [43535,"HCEP03730564","2024-12-24 19:00:00","11.1362","3.44895","25.256","4.02","7.3","2.602","1217.699","0.01","2.33","30.3694","4.77215","44.35","0","SATNPRO1963","26.046","0.36484","5"],
    [43536,"HCEP03730564","2024-12-24 19:15:00","11.1343","3.44795","25.267","4.01","7.3","2.601","1210.571","0","0","30.3613","4.77103","44.22","0","SATNPRO1963","25.936","0.3633","5"],
    [43537,"HCEP03730564","2024-12-24 19:30:00","11.1348","3.44826","25.304","3.997142857142857","7.3","2.472","1378.52","0","2.57","30.3639","4.77139","44.08","0","SATNPRO1963","25.89","0.36264","5"],
    [43538,"HCEP03730564","2024-12-24 19:45:00","11.1365","3.44947","25.341","4.001428571428572","7.3","2.589","1250.579","0.01","2.74","30.3743","4.77284","44.14","0","SATNPRO1963","26.144","0.3662","5"],
    [43539,"HCEP03730564","2024-12-24 20:00:00","11.1369","3.44984","25.403","4.01","7.31","2.587","1242.703","0","0.66","30.3775","4.77329","44.24","0","SATNPRO1963","26.112000000000002","0.36576","5"],
    [43540,"HCEP03730564","2024-12-24 20:15:00","11.1369","3.44982","25.444","4.017142857142857","7.31","2.471","1405.489","0","2.6","30.3773","4.77326","44.31","0","SATNPRO1963","26.137999999999998","0.36616","5"],
    [43541,"HCEP03730564","2024-12-24 20:30:00","11.1377","3.45024","25.51","4.028571428571428","7.31","2.585","1245.969","0.01","4.15","30.3807","4.77374","44.44","0","SATNPRO1963","26.208","0.3671","5"],
    [43542,"HCEP03730564","2024-12-24 20:45:00","11.1379","3.45036","25.58","4.028571428571428","7.32","2.583","1240.035","0","0.38","30.3817","4.77388","44.45","0","SATNPRO1963","26.256","0.36776","5"],
    [43543,"HCEP03730564","2024-12-24 21:00:00","11.1394","3.4508","25.662","4.028571428571428","7.31","2.455","1395.445","0","2.68","30.3847","4.77429","44.44","0","SATNPRO1963","26.444","0.3704","5"],
    [43544,"HCEP03730564","2024-12-24 21:15:00","11.1389","3.45089","25.764","4.011428571428572","7.32","2.617","1235.384","0.01","3.28","30.3859","4.77447","44.25","0","SATNPRO1963","26.146","0.3662","5"],
    [43545,"HCEP03730564","2024-12-24 21:30:00","11.1338","3.44881","25.879","3.988571428571428","7.32","2.617","1227.723","0","0.38","30.3698","4.77228","43.99","0","SATNPRO1963","25.534","0.35764","5"],
    [43546,"HCEP03730564","2024-12-24 21:45:00","11.1352","3.44935","25.993","3.925714285714286","7.32","2.476","1409.765","0","2.46","30.3739","4.77284","43.3","0","SATNPRO1963","25.556","0.3579","5"],
    [43547,"HCEP03730564","2024-12-24 22:00:00","11.129","3.44718","26.099","3.902857142857143","7.32","2.627","1213.984","0","1.76","30.3578","4.77067","43.03","0","SATNPRO1963","25.82","0.3616","5"],
    [43548,"HCEP03730564","2024-12-24 22:15:00","11.1259","3.44599","26.234","3.88","7.32","2.629","1206.104","0","0.94","30.3486","4.76942","42.77","0","SATNPRO1963","25.586","0.35836","5"],
    [43549,"HCEP03730564","2024-12-24 22:30:00","11.1236","3.44622","26.341","3.867142857142857","7.31","2.491","1387.922","0","2.97","30.3527","4.77004","42.63","0","SATNPRO1963","25.733999999999998","0.36044","5"],
    [43550,"HCEP03730564","2024-12-24 22:45:00","11.1274","3.44568","26.464","3.87","7.31","2.625","1226.393","0","2.14","30.3442","4.76878","42.68","0","SATNPRO1963","25.722","0.3603","5"],
    [43551,"HCEP03730564","2024-12-24 23:00:00","11.1289","3.44727","26.598","3.877142857142857","7.32","2.626","1218.083","0","0","30.3585","4.77079","42.75","0","SATNPRO1963","25.812","0.3615","5"],
    [43552,"HCEP03730564","2024-12-24 23:15:00","11.1286","3.44661","26.712","3.897142857142858","7.31","2.491","1391.705","0","6","30.3523","4.76992","42.97","0","SATNPRO1963","26.162","0.36644","5"],
    [43553,"HCEP03730564","2024-12-24 23:30:00","11.1289","3.4461","26.837","3.935714285714286","7.31","2.638","1205.636","0","2.03","30.3471","4.76918","43.39","0","SATNPRO1963","26.026","0.36454","5"],
    [43554,"HCEP03730564","2024-12-24 23:45:00","11.1307","3.44714","26.954","3.958571428571429","7.31","2.639","1199.519","0","0","30.3556","4.77037","43.65","0","SATNPRO1963","26.184","0.36672","5"],
    [43555,"HCEP03730564","2024-12-25 00:00:00","11.1339","3.44845","27.044","3.972857142857143","7.31","2.5","1385.362","0","3.43","30.3658","4.77177","43.81","0","SATNPRO1963","26.278","0.36804","5"],
    [43556,"HCEP03730564","2024-12-25 00:15:00","11.1355","3.44824","27.138","3.971428571428571","7.31","2.628","1231.027","0.01","2.36","30.3623","4.77126","43.81","0","SATNPRO1963","25.93","0.3632","5"],
    [43557,"HCEP03730564","2024-12-25 00:30:00","11.1352","3.44846","27.206","3.952857142857143","7.32","2.63","1224.19","0","0","30.3647","4.7716","43.59","0","SATNPRO1963","26.024","0.36454","5"],
    [43558,"HCEP03730564","2024-12-25 00:45:00","11.1345","3.44806","27.258","3.932857142857143","7.31","2.504","1387.563","0","3.87","30.3614","4.77114","43.38","0","SATNPRO1963","26.01","0.36432","5"],
    [43559,"HCEP03730564","2024-12-25 01:00:00","11.1365","3.44881","27.276","3.921428571428572","7.31","2.625","1273.928","0.01","4.24","30.3671","4.77193","43.26","0","SATNPRO1963","25.746000000000002","0.36062","5"],
    [43560,"HCEP03730564","2024-12-25 01:15:00","11.1352","3.44815","27.229","3.918571428571429","7.32","2.622","1265.499","0","0","30.3617","4.77118","43.22","0","SATNPRO1963","25.838","0.36188","5"],
    [43561,"HCEP03730564","2024-12-25 01:30:00","11.1334","3.44762","27.202","3.891428571428572","7.31","2.51","1400.965","0","2.97","30.358","4.77068","42.92","0","SATNPRO1963","25.716","0.36022","5"],
    [43562,"HCEP03730564","2024-12-25 01:45:00","11.1339","3.44838","27.187","3.865714285714286","7.31","2.625","1260.907","0.01","2.3","30.365","4.77167","42.63","0","SATNPRO1963","25.486","0.35698","5"],
    [43563,"HCEP03730564","2024-12-25 02:00:00","11.1346","3.44883","27.197","3.847142857142857","7.32","2.625","1252.39","0","0","30.3688","4.77219","42.44","0","SATNPRO1963","25.778","0.36104","5"],
    [43564,"HCEP03730564","2024-12-25 02:15:00","11.1354","3.44912","27.181","3.867142857142857","7.32","2.487","1391.74","0","2.87","30.371","4.77249","42.65","0","SATNPRO1963","25.746000000000002","0.36062","5"],
    [43565,"HCEP03730564","2024-12-25 02:30:00","11.1369","3.45012","27.177","3.871428571428571","7.31","2.612","1258.215","0.01","1.72","30.3795","4.77368","42.71","0","SATNPRO1963","25.766","0.36092","5"],
    [43566,"HCEP03730564","2024-12-25 02:45:00","11.1354","3.44965","27.186","3.894285714285714","7.32","2.614","1251.71","0","0","30.3762","4.77323","42.96","0","SATNPRO1963","25.968","0.36372","5"],
    [43567,"HCEP03730564","2024-12-25 03:00:00","11.1332","3.44853","27.191","3.92","7.32","2.489","1429.591","0.01","3.87","30.367","4.77196","43.23","0","SATNPRO1963","26.106","0.36566","5"],
    [43568,"HCEP03730564","2024-12-25 03:15:00","11.1308","3.4476","27.186","3.908571428571429","7.32","2.604","1290.923","0","3.21","30.36","4.771","43.1","0","SATNPRO1963","26.008","0.36424","5"],
    [43569,"HCEP03730564","2024-12-25 03:30:00","11.121","3.44321","27.17","3.928571428571429","7.32","2.605","1282.215","0","0.54","30.3251","4.76621","43.3","0","SATNPRO1963","26.382","0.3695","5"],
    [43570,"HCEP03730564","2024-12-25 03:45:00","11.1231","3.44387","27.136","3.958571428571429","7.32","2.475","1435.96","0","3.41","30.3299","4.76686","43.64","0","SATNPRO1963","26.334","0.36886","5"],
    [43571,"HCEP03730564","2024-12-25 04:00:00","11.1254","3.44551","27.12","3.981428571428571","7.31","2.639","1318.211","0","2.87","30.344","4.76882","43.9","0","SATNPRO1963","25.898","0.36272","5"],
    [43572,"HCEP03730564","2024-12-25 04:15:00","11.13","3.44769","27.118","3.922857142857143","7.32","2.64","1312.384","0","0.94","30.3616","4.77124","43.27","0","SATNPRO1963","25.822","0.3617","5"],
    [43573,"HCEP03730564","2024-12-25 04:30:00","11.1305","3.44826","27.08","3.888571428571429","7.31","2.569","1389.763","0","2.36","30.3666","4.77195","42.89","0","SATNPRO1963","25.654","0.35936","5"],
    [43574,"HCEP03730564","2024-12-25 04:45:00","11.1291","3.44759","27.072","3.88","7.31","2.664","1324.218","0","2.97","30.3613","4.77121","42.79","0","SATNPRO1963","25.864","0.3623","5"],
    [43575,"HCEP03730564","2024-12-25 05:00:00","11.1291","3.44738","27.042","3.877142857142857","7.32","2.665","1316.123","0","0","30.3593","4.77093","42.75","0","SATNPRO1963","25.83","0.3618","5"],
    [43576,"HCEP03730564","2024-12-25 05:15:00","11.1274","3.44679","27.021","3.867142857142857","7.31","2.581","1450.678","0","3.3","30.3549","4.77033","42.65","0","SATNPRO1963","25.59","0.35842","5"],
    [43577,"HCEP03730564","2024-12-25 05:30:00","11.1261","3.44645","27.004","3.847142857142857","7.3","2.658","1336.505","0","4.04","30.3527","4.77004","42.43","0","SATNPRO1963","25.63","0.35898","5"],
    [43578,"HCEP03730564","2024-12-25 05:45:00","11.1249","3.44633","26.985","3.83","7.31","2.66","1328.169","0","1.38","30.3525","4.77002","42.22","0","SATNPRO1963","25.538","0.35768","5"],
    [43579,"HCEP03730564","2024-12-25 06:00:00","11.124","3.44627","26.975","3.812857142857143","7.31","2.545","1495.24","0","2.66","30.3526","4.77005","42.04","0","SATNPRO1963","25.349999999999998","0.35508","5"],
    [43580,"HCEP03730564","2024-12-25 06:15:00","11.1235","3.44616","26.978","3.807142857142857","7.3","2.636","1407.317","0.01","3.07","30.352","4.76997","41.98","0","SATNPRO1963","25.556","0.35794","5"],
    [43581,"HCEP03730564","2024-12-25 06:30:00","11.1234","3.44632","26.964","3.81","7.31","2.638","1399.354","0","0","30.3537","4.77021","42.01","0","SATNPRO1963","25.59","0.35842","5"],
    [43582,"HCEP03730564","2024-12-25 06:45:00","11.1228","3.44617","26.987","3.815714285714285","7.31","2.556","1530.72","0","2.6","30.3527","4.77008","42.08","0","SATNPRO1963","25.51","0.35736","5"],
    [43583,"HCEP03730564","2024-12-25 07:00:00","11.1219","3.44599","26.975","3.821428571428571","7.31","2.641","1439.594","0","3.12","30.3516","4.76994","42.13","0","SATNPRO1963","25.712","0.36012","5"],
    [43584,"HCEP03730564","2024-12-25 07:15:00","11.1213","3.44578","26.981","3.818571428571428","7.31","2.644","1432.479","0","0","30.35","4.76973","42.1","0","SATNPRO1963","25.776","0.36106","5"],
    [43585,"HCEP03730564","2024-12-25 07:30:00","11.1205","3.44548","27.004","3.811428571428572","7.31","2.575","1536.252","0","2.1","30.3478","4.76942","42.02","0","SATNPRO1963","25.518","0.35744","5"],
    [43586,"HCEP03730564","2024-12-25 07:45:00","11.1201","3.44529","27.05","3.811428571428572","7.3","2.643","1458.665","0","3.39","30.3463","4.76921","42.02","0","SATNPRO1963","25.54","0.35778","5"],
    [43587,"HCEP03730564","2024-12-25 08:00:00","11.1197","3.44493","27.118","3.802857142857143","7.31","2.646","1449.555","0","0","30.343","4.76877","41.92","0","SATNPRO1963","25.578","0.35824","5"],
    [43588,"HCEP03730564","2024-12-25 08:15:00","11.1195","3.4448","27.21","3.8","7.3","2.579","1535.546","0","2.27","30.3419","4.76861","41.9","0","SATNPRO1963","25.61","0.35874","5"],
    [43589,"HCEP03730564","2024-12-25 08:30:00","11.1199","3.44508","27.222","3.802857142857143","7.3","2.637","1408.985","0","3.12","30.3443","4.76895","41.92","0","SATNPRO1963","25.554","0.3579","5"],
    [43590,"HCEP03730564","2024-12-25 08:45:00","11.1198","3.44505","27.263","3.787142857142857","7.3","2.639","1400.347","0","0","30.3441","4.76892","41.75","0","SATNPRO1963","25.444","0.35634","5"],
    [43591,"HCEP03730564","2024-12-25 09:00:00","11.1206","3.44542","27.326","3.798571428571428","7.3","2.572","1492.834","0","2.14","30.347","4.76933","41.87","0","SATNPRO1963","25.598","0.35854","5"],
    [43592,"HCEP03730564","2024-12-25 09:15:00","11.1201","3.44525","27.39","3.801428571428572","7.3","2.654","1370.136","0","3.52","30.3458","4.76917","41.9","0","SATNPRO1963","25.66","0.3594","5"],
    [43593,"HCEP03730564","2024-12-25 09:30:00","11.1206","3.44538","27.452","3.817142857142858","7.3","2.657","1359.508","0","0.38","30.3466","4.76928","42.08","0","SATNPRO1963","25.672","0.35956","5"],
    [43594,"HCEP03730564","2024-12-25 09:45:00","11.1213","3.44553","27.502","3.82","7.3","2.569","1448.941","0","2.92","30.3475","4.76939","42.11","0","SATNPRO1963","25.604","0.35864","5"],
    [43595,"HCEP03730564","2024-12-25 10:00:00","11.1228","3.44594","27.576","3.85","7.3","2.648","1375.241","0","3.87","30.3502","4.76976","42.44","0","SATNPRO1963","26.002","0.3642","5"],
    [43596,"HCEP03730564","2024-12-25 10:15:00","11.1228","3.44583","27.602","3.932857142857143","7.31","2.649","1365.198","0","0.54","30.3491","4.7696","43.36","0","SATNPRO1963","25.738","0.3605","5"],
    [43597,"HCEP03730564","2024-12-25 10:30:00","11.1264","3.44661","27.674","3.932857142857143","7.3","2.553","1464.255","0","2.1","30.3538","4.77022","43.37","0","SATNPRO1963","25.86","0.36224","5"],
    [43598,"HCEP03730564","2024-12-25 10:45:00","11.1285","3.44732","27.71","3.991428571428572","7.31","2.631","1300.27","0.01","5.36","30.3589","4.77091","44.01","0","SATNPRO1963","25.97","0.36378","5"],
    [43599,"HCEP03730564","2024-12-25 11:00:00","11.1301","3.44817","27.78","4.024285714285715","7.32","2.635","1292.137","0","1.27","30.3658","4.77188","44.38","0","SATNPRO1963","26.056","0.36496","5"],
    [43600,"HCEP03730564","2024-12-25 11:15:00","11.131","3.44808","27.812","4.078571428571428","7.32","2.489","1454.252","0","4.06","30.3642","4.77163","44.98","0","SATNPRO1963","26.212","0.36712","5"],
    [43601,"HCEP03730564","2024-12-25 11:30:00","11.1322","3.44859","27.884","4.078571428571428","7.32","2.633","1301.128","0","3.37","30.3682","4.77219","44.98","0","SATNPRO1963","26.174","0.36658","5"],
    [43602,"HCEP03730564","2024-12-25 11:45:00","11.1324","3.44859","27.873","4.13","7.33","2.636","1290.908","0","0.77","30.368","4.77216","45.55","0","SATNPRO1963","26.288","0.3682","5"],
    [43603,"HCEP03730564","2024-12-25 12:00:00","11.1333","3.44863","27.876","4.138571428571429","7.32","2.52","1349.573","0","2.92","30.3677","4.7721","45.65","0","SATNPRO1963","26.18","0.36672","5"],
    [43604,"HCEP03730564","2024-12-25 12:15:00","11.1339","3.44872","27.846","4.127142857142857","7.32","2.623","1218.642","0","3.02","30.3681","4.77214","45.52","0","SATNPRO1963","26.194","0.3669","5"],
    [43605,"HCEP03730564","2024-12-25 12:30:00","11.1315","3.44774","27.765","4.097142857142857","7.33","2.629","1212.215","0","0.38","30.3605","4.7711","45.18","0","SATNPRO1963","26.176","0.36662","5"],
    [43606,"HCEP03730564","2024-12-25 12:45:00","11.1291","3.44599","27.766","4.08","7.32","2.506","1329.772","0","2.68","30.3454","4.76899","44.99","0","SATNPRO1963","26","0.3642","5"],
    [43607,"HCEP03730564","2024-12-25 13:00:00","11.1255","3.44455","27.771","4.025714285714286","7.32","2.626","1196.01","0","3.66","30.3343","4.76748","44.38","0","SATNPRO1963","26.04","0.36474","5"],
    [43608,"HCEP03730564","2024-12-25 13:15:00","11.1142","3.43984","27.709","3.981428571428571","7.32","2.627","1185.847","0","0","30.2976","4.76244","43.87","0","SATNPRO1963","25.962","0.36366","5"],
    [43609,"HCEP03730564","2024-12-25 13:30:00","11.1053","3.43602","27.601","3.994285714285714","7.31","2.529","1384.311","0","4.39","30.2676","4.75833","43.99","0","SATNPRO1963","26.248","0.36766","5"],
    [43610,"HCEP03730564","2024-12-25 13:45:00","11.112","3.43823","27.498","3.971428571428571","7.31","2.631","1218.297","0","3.93","30.2837","4.7605","43.75","0","SATNPRO1963","26.112","0.36576","5"],
    [43611,"HCEP03730564","2024-12-25 14:00:00","11.1123","3.43762","27.436","3.878571428571429","7.31","2.635","1209.608","0","0","30.2776","4.75962","42.73","0","SATNPRO1963","26.084","0.36538","5"],
    [43612,"HCEP03730564","2024-12-25 14:15:00","11.1064","3.43491","27.319","3.85","7.31","2.552","1229.743","0","2.84","30.2561","4.75666","42.4","0","SATNPRO1963","25.878","0.36246","5"],
    [43613,"HCEP03730564","2024-12-25 14:30:00","11.104","3.43356","27.221","3.758571428571428","7.3","2.609","1126.937","0.01","6.54","30.2449","4.75511","41.4","0","SATNPRO1963","25.81","0.36152","5"],
    [43614,"HCEP03730564","2024-12-25 14:45:00","11.102","3.43237","27.133","3.71","7.3","2.611","1120.15","0","0","30.2349","4.75372","40.85","0","SATNPRO1963","25.698","0.35994","5"],
    [43615,"HCEP03730564","2024-12-25 15:00:00","11.0995","3.43142","27.069","3.704285714285714","7.29","2.398","1191.975","0","3.12","30.2277","4.75273","40.79","0","SATNPRO1963","25.832","0.36184","5"],
    [43616,"HCEP03730564","2024-12-25 15:15:00","11.099","3.43106","26.941","3.688571428571429","7.29","2.616","1114.859","0","2.24","30.2246","4.75229","40.62","0","SATNPRO1963","25.772000000000002","0.36098","5"],
    [43617,"HCEP03730564","2024-12-25 15:30:00","11.0971","3.43035","26.813","3.678571428571429","7.29","2.616","1107.37","0","0","30.2193","4.75156","40.5","0","SATNPRO1963","25.72","0.36028","5"],
    [43618,"HCEP03730564","2024-12-25 15:45:00","11.0964","3.43007","26.769","3.662857142857143","7.29","2.484","1243.82","0","1.96","30.2171","4.75125","40.33","0","SATNPRO1963","25.578","0.35826","5"],
    [43619,"HCEP03730564","2024-12-25 16:00:00","11.0954","3.42955","26.594","3.651428571428572","7.28","2.613","1150.888","0","1.76","30.213","4.75067","40.19","0","SATNPRO1963","25.524","0.35752","5"],
    [43620,"HCEP03730564","2024-12-25 16:15:00","11.0937","3.42908","26.341","3.638571428571429","7.28","2.614","1142.175","0","0.54","30.2099","4.75025","40.05","0","SATNPRO1963","25.466","0.35672","5"],
    [43621,"HCEP03730564","2024-12-25 16:30:00","11.092","3.42849","26.325","3.632857142857143","7.28","2.514","1275.859","0","3.43","30.2055","4.74965","39.98","0","SATNPRO1963","25.582","0.35834","5"],
    [43622,"HCEP03730564","2024-12-25 16:45:00","11.0904","3.42782","26.219","3.622857142857143","7.28","2.624","1181.262","0","2.77","30.2004","4.74894","39.87","0","SATNPRO1963","25.572","0.35818","5"],
    [43623,"HCEP03730564","2024-12-25 17:00:00","11.0884","3.427","26.082","3.612857142857143","7.29","2.628","1173.683","0","0.54","30.194","4.74807","39.77","0","SATNPRO1963","25.544","0.3578","5"],
    [43624,"HCEP03730564","2024-12-25 17:15:00","11.0866","3.42634","25.93","3.6","7.28","2.521","1329.316","0","2.3","30.1891","4.74739","39.62","0","SATNPRO1963","25.386","0.35554","5"],
    [43625,"HCEP03730564","2024-12-25 17:30:00","11.0857","3.42587","25.707","3.581428571428572","7.28","2.604","1245.741","0.01","2.87","30.1853","4.74685","39.41","0","SATNPRO1963","25.326","0.3547","5"],
    [43626,"HCEP03730564","2024-12-25 17:45:00","11.0843","3.42548","25.563","3.56","7.28","2.603","1237.194","0","0.77","30.1827","4.74649","39.18","0","SATNPRO1963","25.434","0.35624","5"],
    [43627,"HCEP03730564","2024-12-25 18:00:00","11.0842","3.4253","25.476","3.567142857142857","7.27","2.533","1307.542","0","2.6","30.1812","4.74627","39.25","0","SATNPRO1963","25.169999999999998","0.35256","5"],
    [43628,"HCEP03730564","2024-12-25 18:15:00","11.0833","3.42502","25.34","3.548571428571428","7.27","2.6","1236.134","0.01","2.95","30.1792","4.746","39.05","0","SATNPRO1963","25.566","0.35808","5"],
    [43629,"HCEP03730564","2024-12-25 18:30:00","11.0829","3.4248","25.245","3.534285714285715","7.28","2.598","1226.84","0","0","30.1773","4.74573","38.9","0","SATNPRO1963","25.522","0.35746","5"],
    [43630,"HCEP03730564","2024-12-25 18:45:00","11.0828","3.42476","25.167","3.531428571428572","7.28","2.496","1374.774","0","1.96","30.177","4.74569","38.85","0","SATNPRO1963","25.422","0.3561","5"],
    [43631,"HCEP03730564","2024-12-25 19:00:00","11.0838","3.42522","25.12","3.518571428571429","7.28","2.608","1299.713","0","3.16","30.1808","4.7462","38.73","0","SATNPRO1963","25.68","0.35968","5"],
    [43632,"HCEP03730564","2024-12-25 19:15:00","11.0869","3.42641","25.169","3.54","7.28","2.61","1291.83","0","1.21","30.1898","4.74743","38.97","0","SATNPRO1963","25.622","0.3589","5"],
    [43633,"HCEP03730564","2024-12-25 19:30:00","11.0853","3.42623","25.192","3.595714285714286","7.28","2.536","1361.712","0","2.6","30.1894","4.7474","39.58","0","SATNPRO1963","25.602","0.3586","5"],
    [43634,"HCEP03730564","2024-12-25 19:45:00","11.0791","3.42585","25.22","3.69","7.29","2.624","1337.55","0","4.06","30.1907","4.74769","40.6","0","SATNPRO1963","25.656","0.35932","5"],
    [43635,"HCEP03730564","2024-12-25 20:00:00","11.0815","3.42802","25.241","3.784285714285714","7.3","2.625","1324.685","0","0.38","30.2099","4.75038","41.65","0","SATNPRO1963","25.93","0.36322","5"],
    [43636,"HCEP03730564","2024-12-25 20:15:00","11.0814","3.42785","25.254","3.778571428571428","7.3","2.556","1410.047","0","2.54","30.2083","4.75016","41.58","0","SATNPRO1963","25.784","0.36118","5"],
    [43637,"HCEP03730564","2024-12-25 20:30:00","11.0787","3.42678","25.262","3.774285714285714","7.29","2.629","1284.77","0","3.09","30.2001","4.74904","41.53","0","SATNPRO1963","25.93","0.36316","5"],
    [43638,"HCEP03730564","2024-12-25 20:45:00","11.0724","3.42514","25.25","3.762857142857143","7.3","2.633","1276.315","0","0.54","30.1892","4.74758","41.41","0","SATNPRO1963","25.774","0.36098","5"],
    [43639,"HCEP03730564","2024-12-25 21:00:00","11.0748","3.4259","25.366","3.761428571428572","7.29","2.54","1418.421","0","1.84","30.1947","4.74833","41.39","0","SATNPRO1963","25.758","0.3608","5"],
    [43640,"HCEP03730564","2024-12-25 21:15:00","11.0732","3.42555","25.404","3.747142857142857","7.29","2.626","1322.244","0.01","2.3","30.1926","4.74805","41.23","0","SATNPRO1963","25.382","0.35556","5"],
    [43641,"HCEP03730564","2024-12-25 21:30:00","11.0613","3.42097","25.478","3.744285714285714","7.29","2.625","1311.246","0","0","30.1575","4.74326","41.18","0","SATNPRO1963","25.672","0.35956","5"],
    [43642,"HCEP03730564","2024-12-25 21:45:00","11.0311","3.40966","25.547","3.815714285714285","7.29","2.533","1416.22","0","2.1","30.0717","4.73155","41.92","0","SATNPRO1963","26.04","0.3647","5"],
    [43643,"HCEP03730564","2024-12-25 22:00:00","10.8805","3.35863","25.6","4.012857142857143","7.29","2.614","1278.459","0","5.02","29.6946","4.68029","43.84","0","SATNPRO1963","25.956","0.36356","5"],
    [43644,"HCEP03730564","2024-12-25 22:15:00","10.8447","3.3481","25.629","3.857142857142858","7.3","2.618","1269.175","0","0","29.6204","4.67028","42.08","0","SATNPRO1963","24.604","0.3446","5"],
    [43645,"HCEP03730564","2024-12-25 22:30:00","10.927","3.37178","25.842","3.717142857142857","7.27","2.516","1403.795","0","1.67","29.7857","4.69254","40.66","0","SATNPRO1963","25.19","0.3528","5"],
    [43646,"HCEP03730564","2024-12-25 22:45:00","10.961","3.3867","25.964","3.735714285714286","7.28","2.638","1256.693","0","4.81","29.9041","4.70885","40.93","0","SATNPRO1963","25.202","0.353","5"],
    [43647,"HCEP03730564","2024-12-25 23:00:00","10.977","3.38862","26.157","3.688571428571429","7.29","2.641","1246.455","0","0.38","29.9098","4.70943","40.42","0","SATNPRO1963","24.968","0.34974","5"],
    [43648,"HCEP03730564","2024-12-25 23:15:00","10.9332","3.37269","26.272","3.647142857142857","7.28","2.525","1378.519","0","1.96","29.7894","4.693","39.91","0","SATNPRO1963","25.076","0.35124","5"],
    [43649,"HCEP03730564","2024-12-25 23:30:00","10.251","3.14409","26.295","4.592857142857142","7.3","2.63","1239.835","0.01","1.96","28.0824","4.45958","49.05","0","SATNPRO1963","25.394000000000002","0.35568","5"],
    [43650,"HCEP03730564","2024-12-25 23:45:00","10.2366","3.13232","26.363","5.132857142857143","7.33","2.63","1230.153","0","1.08","27.9772","4.4447","54.72","0","SATNPRO1963","24.722","0.34626","5"],
    [43651,"HCEP03730564","2024-12-26 00:00:00","10.2104","3.12726","26.506","5.511428571428572","7.34","2.511","1348.85","0","0","27.9474","4.44081","58.69","0","SATNPRO1963","25.254","0.35372","5"],
    [43652,"HCEP03730564","2024-12-26 00:15:00","10.8242","3.34397","26.97","4.842857142857143","7.32","2.612","1230.004","0.01","2.14","29.5959","4.66718","52.76","0","SATNPRO1963","25.112","0.35176","5"],
    [43653,"HCEP03730564","2024-12-26 00:30:00","10.8708","3.35618","27.185","4.012857142857143","7.31","2.609","1221.693","0","0","29.6779","4.67815","43.8","0","SATNPRO1963","25.214","0.35316","5"],
    [43654,"HCEP03730564","2024-12-26 00:45:00","10.9096","3.36955","27.409","3.904285714285714","7.29","2.496","1365.503","0","2.46","29.7773","4.69171","42.7","0","SATNPRO1963","25.574","0.35822","5"],
    [43655,"HCEP03730564","2024-12-26 01:00:00","11.0226","3.40922","27.473","3.92","7.29","2.59","1230.819","0","5.16","30.0736","4.73206","43.04","0","SATNPRO1963","26.014","0.36438","5"],
    [43656,"HCEP03730564","2024-12-26 01:15:00","11.0306","3.41131","27.594","3.877142857142857","7.3","2.592","1221.146","0","0.38","30.0873","4.7339","42.6","0","SATNPRO1963","25.88","0.36248","5"],
    [43657,"HCEP03730564","2024-12-26 01:30:00","11.0311","3.41106","27.659","3.851428571428572","7.3","2.465","1399.248","0","2.36","30.0845","4.73349","42.31","0","SATNPRO1963","25.75","0.36064","5"],
    [43658,"HCEP03730564","2024-12-26 01:45:00","11.0349","3.41211","27.738","3.818571428571428","7.3","2.611","1247.713","0","2.92","30.0916","4.73444","41.96","0","SATNPRO1963","25.65","0.35928","5"],
    [43659,"HCEP03730564","2024-12-26 02:00:00","11.0478","3.41625","27.757","3.772857142857143","7.3","2.613","1238.733","0","0.38","30.1215","4.7385","41.46","0","SATNPRO1963","25.61","0.35872","5"],
    [43660,"HCEP03730564","2024-12-26 02:15:00","11.0579","3.4197","27.77","3.741428571428572","7.3","2.515","1373.938","0","2.17","30.1469","4.74194","41.15","0","SATNPRO1963","25.928","0.36316","5"],
    [43661,"HCEP03730564","2024-12-26 02:30:00","11.0652","3.42225","27.779","3.75","7.3","2.609","1285.221","0.01","4.84","30.1659","4.74453","41.24","0","SATNPRO1963","25.694","0.35986","5"],
    [43662,"HCEP03730564","2024-12-26 02:45:00","11.0658","3.42252","27.763","3.767142857142857","7.31","2.61","1274.267","0","0.54","30.1682","4.74484","41.44","0","SATNPRO1963","25.764","0.3609","5"],
    [43663,"HCEP03730564","2024-12-26 03:00:00","11.0651","3.42256","27.824","3.784285714285714","7.3","2.528","1366.945","0","3.23","30.1691","4.74498","41.63","0","SATNPRO1963","25.9","0.36278","5"],
    [43664,"HCEP03730564","2024-12-26 03:15:00","11.0658","3.42276","27.702","3.821428571428571","7.3","2.619","1292.587","0","2.43","30.1705","4.74517","42.03","0","SATNPRO1963","25.826","0.36174","5"],
    [43665,"HCEP03730564","2024-12-26 03:30:00","11.0628","3.42176","27.675","3.834285714285714","7.31","2.621","1283.211","0","0","30.1632","4.74417","42.16","0","SATNPRO1963","26.105999999999998","0.36566","5"],
    [43666,"HCEP03730564","2024-12-26 03:45:00","11.0581","3.42022","27.633","3.875714285714286","7.3","2.524","1356.042","0","2.2","30.1519","4.74264","42.61","0","SATNPRO1963","26.048000000000002","0.36486","5"],
    [43667,"HCEP03730564","2024-12-26 04:00:00","11.0634","3.4223","27.594","3.882857142857143","7.31","2.613","1264.006","0","2.24","30.1679","4.74483","42.7","0","SATNPRO1963","26.330000000000002","0.3688","5"],
    [43668,"HCEP03730564","2024-12-26 04:15:00","11.0674","3.42376","27.52","3.864285714285714","7.31","2.614","1254.456","0","0.54","30.179","4.74634","42.51","0","SATNPRO1963","26.046","0.3648","5"],
    [43669,"HCEP03730564","2024-12-26 04:30:00","11.0665","3.42324","27.515","3.855714285714285","7.31","2.506","1345.926","0","2.82","30.1746","4.74573","42.41","0","SATNPRO1963","26.034","0.36468","5"],
    [43670,"HCEP03730564","2024-12-26 04:45:00","11.0745","3.4267","27.488","3.86","7.31","2.602","1279.845","0.01","3.04","30.2019","4.74947","42.48","0","SATNPRO1963","25.966","0.36368","5"],
    [43671,"HCEP03730564","2024-12-26 05:00:00","11.0816","3.4295","27.356","3.865714285714286","7.31","2.601","1270.177","0","0","30.2235","4.75242","42.55","0","SATNPRO1963","26.18","0.3667","5"],
    [43672,"HCEP03730564","2024-12-26 05:15:00","11.0956","3.43413","27.3","3.851428571428572","7.3","2.511","1407.276","0","2.33","30.2573","4.75699","42.41","0","SATNPRO1963","26.116","0.36578","5"],
    [43673,"HCEP03730564","2024-12-26 05:30:00","11.1011","3.4362","27.288","3.837142857142857","7.3","2.597","1302.182","0","2.36","30.2731","4.75915","42.26","0","SATNPRO1963","25.958","0.36358","5"],
    [43674,"HCEP03730564","2024-12-26 05:45:00","11.1016","3.43713","27.288","3.864285714285714","7.31","2.598","1293.727","0","0","30.2817","4.76036","42.57","0","SATNPRO1963","26.118000000000002","0.3658","5"],
    [43675,"HCEP03730564","2024-12-26 06:00:00","11.1016","3.43841","27.299","3.875714285714286","7.3","2.493","1440.356","0","2.03","30.2942","4.76213","42.7","0","SATNPRO1963","26.134","0.36608","5"],
    [43676,"HCEP03730564","2024-12-26 06:15:00","11.1015","3.43835","27.296","3.907142857142857","7.3","2.596","1270.153","0","2.95","30.2937","4.76206","43.04","0","SATNPRO1963","26.238","0.36752","5"],
    [43677,"HCEP03730564","2024-12-26 06:30:00","11.1031","3.43823","27.284","3.895714285714286","7.31","2.599","1262.056","0","0","30.2912","4.76168","42.92","0","SATNPRO1963","26.038","0.36468","5"],
    [43678,"HCEP03730564","2024-12-26 06:45:00","11.1029","3.43859","27.266","3.882857142857143","7.3","2.501","1409.483","0","2.95","30.2949","4.76221","42.78","0","SATNPRO1963","26.124","0.36592","5"],
    [43679,"HCEP03730564","2024-12-26 07:00:00","11.1036","3.4386","27.266","3.895714285714286","7.3","2.617","1264.26","0","3.49","30.2944","4.76213","42.92","0","SATNPRO1963","26.176","0.36664","5"],
    [43680,"HCEP03730564","2024-12-26 07:15:00","11.1026","3.4386","27.275","3.874285714285715","7.31","2.621","1254.292","0","0","30.2952","4.76226","42.68","0","SATNPRO1963","26.262","0.3678","5"],
    [43681,"HCEP03730564","2024-12-26 07:30:00","11.1","3.43811","27.308","3.895714285714286","7.31","2.509","1377.299","0","3.12","30.2926","4.76192","42.91","0","SATNPRO1963","26.094","0.36552","5"],
    [43682,"HCEP03730564","2024-12-26 07:45:00","11.0988","3.43783","27.334","3.915714285714286","7.31","2.585","1283.125","0.01","3.97","30.2908","4.7617","43.13","0","SATNPRO1963","26.132","0.36604","5"],
    [43683,"HCEP03730564","2024-12-26 08:00:00","11.097","3.43734","27.358","3.925714285714286","7.31","2.587","1273.949","0","0.54","30.2876","4.76127","43.24","0","SATNPRO1963","26.108","0.3657","5"],
    [43684,"HCEP03730564","2024-12-26 08:15:00","11.0937","3.43738","27.377","3.924285714285714","7.31","2.487","1398.738","0","2.2","30.2905","4.76173","43.22","0","SATNPRO1963","26.3","0.36836","5"],
    [43685,"HCEP03730564","2024-12-26 08:30:00","11.0927","3.43757","27.429","3.971428571428571","7.3","2.587","1276.673","0","2.82","30.2933","4.76214","43.74","0","SATNPRO1963","26.348","0.36906","5"],
    [43686,"HCEP03730564","2024-12-26 08:45:00","11.0934","3.43771","27.453","3.985714285714286","7.31","2.588","1267.818","0","1.27","30.2941","4.76225","43.9","0","SATNPRO1963","26.372","0.36938","5"],
    [43687,"HCEP03730564","2024-12-26 09:00:00","11.0905","3.43788","27.491","3.998571428571429","7.31","2.485","1388.069","0","3.62","30.2981","4.76286","44.04","0","SATNPRO1963","26.452","0.37048","5"],
    [43688,"HCEP03730564","2024-12-26 09:15:00","11.0904","3.43911","27.547","4.091428571428572","7.31","2.592","1296.051","0","2.71","30.3101","4.76457","45.06","0","SATNPRO1963","26.472","0.37074","5"],
    [43689,"HCEP03730564","2024-12-26 09:30:00","11.0903","3.43961","27.566","4.145714285714286","7.32","2.592","1287.209","0","0.38","30.3151","4.76529","45.66","0","SATNPRO1963","26.602","0.37262","5"],
    [43690,"HCEP03730564","2024-12-26 09:45:00","11.0894","3.44014","27.613","4.168571428571429","7.32","2.515","1400.576","0","3.09","30.321","4.76613","45.92","0","SATNPRO1963","26.534","0.37166","5"],
    [43691,"HCEP03730564","2024-12-26 10:00:00","11.0901","3.44058","27.68","4.185714285714286","7.32","2.616","1317.005","0","2.4","30.3247","4.76665","46.11","0","SATNPRO1963","26.28","0.3681","5"],
    [43692,"HCEP03730564","2024-12-26 10:15:00","11.0881","3.44063","27.709","4.232857142857143","7.33","2.621","1307.941","0","0","30.3268","4.76699","46.63","0","SATNPRO1963","26.688","0.37382","5"],
    [43693,"HCEP03730564","2024-12-26 10:30:00","11.0852","3.44068","27.714","4.27","7.33","2.556","1426.606","0","2.17","30.3297","4.76744","47.03","0","SATNPRO1963","26.424","0.3701","5"],
    [43694,"HCEP03730564","2024-12-26 10:45:00","11.0824","3.44056","27.764","4.294285714285714","7.33","2.617","1349.678","0","2.71","30.3308","4.76764","47.3","0","SATNPRO1963","26.41","0.36994","5"],
    [43695,"HCEP03730564","2024-12-26 11:00:00","11.0805","3.44048","27.781","4.325714285714286","7.33","2.619","1338.657","0","0.38","30.3316","4.76779","47.64","0","SATNPRO1963","26.596","0.37254","5"],
    [43696,"HCEP03730564","2024-12-26 11:15:00","11.0798","3.44036","27.808","4.327142857142857","7.33","2.555","1430.09","0","1.99","30.331","4.76771","47.65","0","SATNPRO1963","26.684","0.37376","5"],
    [43697,"HCEP03730564","2024-12-26 11:30:00","11.0785","3.44036","27.847","4.335714285714286","7.33","2.627","1315.309","0","2.74","30.3321","4.76788","47.75","0","SATNPRO1963","26.604","0.37262","5"],
    [43698,"HCEP03730564","2024-12-26 11:45:00","11.0784","3.44031","27.872","4.345714285714285","7.33","2.629","1305.749","0","0","30.3316","4.76782","47.87","0","SATNPRO1963","26.695999999999998","0.37392","5"],
    [43699,"HCEP03730564","2024-12-26 12:00:00","11.078","3.44043","27.907","4.351428571428571","7.33","2.523","1405.112","0","1.67","30.3331","4.76804","47.93","0","SATNPRO1963","26.688","0.3738","5"],
    [43700,"HCEP03730564","2024-12-26 12:15:00","11.0778","3.44082","27.926","4.358571428571428","7.33","2.598","1306.924","0.01","2.46","30.3371","4.76861","48","0","SATNPRO1963","26.81","0.3755","5"],
    [43701,"HCEP03730564","2024-12-26 12:30:00","11.0792","3.44157","27.949","4.391428571428572","7.34","2.599","1297.166","0","0.54","30.3433","4.76947","48.37","0","SATNPRO1963","26.784","0.37516","5"],
    [43702,"HCEP03730564","2024-12-26 12:45:00","11.0803","3.44191","27.957","4.42","7.34","2.51","1400.441","0","2.24","30.3457","4.76979","48.69","0","SATNPRO1963","26.674","0.37366","5"],
    [43703,"HCEP03730564","2024-12-26 13:00:00","11.0803","3.4417","27.961","4.425714285714285","7.33","2.608","1277.691","0.01","2.54","30.3436","4.7695","48.75","0","SATNPRO1963","26.631999999999998","0.37304","5"],
    [43704,"HCEP03730564","2024-12-26 13:15:00","11.0794","3.4413","27.986","4.4","7.34","2.607","1267.792","0","0","30.3404","4.76906","48.46","0","SATNPRO1963","26.624","0.37288","5"],
    [43705,"HCEP03730564","2024-12-26 13:30:00","11.0828","3.44238","27.985","4.382857142857144","7.34","2.507","1372.214","0","1.44","30.3482","4.77011","48.28","0","SATNPRO1963","26.476","0.37084","5"],
    [43706,"HCEP03730564","2024-12-26 13:45:00","11.0834","3.44251","27.92","4.358571428571428","7.33","2.6","1250.554","0","1.96","30.349","4.77022","48.01","0","SATNPRO1963","26.32","0.3687","5"],
    [43707,"HCEP03730564","2024-12-26 14:00:00","11.0822","3.44141","27.785","4.341428571428572","7.34","2.601","1241.788","0","0","30.3393","4.76884","47.82","0","SATNPRO1963","26.542","0.37178","5"],
    [43708,"HCEP03730564","2024-12-26 14:15:00","11.0845","3.44164","27.614","4.3","7.33","2.49","1363.19","0","1.67","30.3397","4.76886","47.36","0","SATNPRO1963","26.556","0.37192","5"],
    [43709,"HCEP03730564","2024-12-26 14:30:00","11.086","3.44202","27.565","4.277142857142858","7.33","2.584","1223.259","0.01","2.6","30.3422","4.76919","47.12","0","SATNPRO1963","26.502","0.3712","5"],
    [43710,"HCEP03730564","2024-12-26 14:45:00","11.0889","3.44213","27.528","4.264285714285714","7.34","2.583","1214.788","0","0","30.341","4.76897","46.98","0","SATNPRO1963","26.498","0.37114","5"],
    [43711,"HCEP03730564","2024-12-26 15:00:00","11.0915","3.44213","27.408","4.220000000000001","7.33","2.48","1344.928","0","1.63","30.3388","4.76862","46.48","0","SATNPRO1963","26.308","0.36848","5"],
    [43712,"HCEP03730564","2024-12-26 15:15:00","11.0969","3.44195","27.289","4.154285714285714","7.32","2.584","1192.281","0.01","2.68","30.3326","4.76765","45.78","0","SATNPRO1963","26.182","0.36672","5"],
    [43713,"HCEP03730564","2024-12-26 15:30:00","11.0986","3.44184","27.156","4.068571428571428","7.33","2.585","1185.212","0","0.66","30.3302","4.76727","44.83","0","SATNPRO1963","26.22","0.36724","5"],
    [43714,"HCEP03730564","2024-12-26 15:45:00","11.1004","3.44177","27.063","4.021428571428571","7.32","2.463","1318.91","0","2.4","30.3281","4.76694","44.3","0","SATNPRO1963","26.08","0.36528","5"],
    [43715,"HCEP03730564","2024-12-26 16:00:00","11.1016","3.44195","26.879","3.994285714285714","7.31","2.576","1190.824","0.01","2.82","30.3289","4.76703","44","0","SATNPRO1963","26.024","0.36452","5"],
    [43716,"HCEP03730564","2024-12-26 16:15:00","11.1017","3.442","26.708","3.98","7.32","2.575","1183.004","0","0","30.3293","4.76708","43.85","0","SATNPRO1963","26.298","0.36836","5"],
    [43717,"HCEP03730564","2024-12-26 16:30:00","11.1007","3.44186","26.544","3.982857142857143","7.31","2.446","1314.803","0","1.8","30.3289","4.76702","43.88","0","SATNPRO1963","26.32","0.3687","5"],
    [43718,"HCEP03730564","2024-12-26 16:45:00","11.0988","3.44189","26.404","3.995714285714286","7.31","2.562","1181.956","0.01","2.24","30.3308","4.76731","44.03","0","SATNPRO1963","26.322","0.36872","5"],
    [43719,"HCEP03730564","2024-12-26 17:00:00","11.0981","3.44185","26.218","4.014285714285714","7.32","2.561","1174.958","0","0.38","30.3312","4.76736","44.22","0","SATNPRO1963","26.212","0.36716","5"],
    [43720,"HCEP03730564","2024-12-26 17:15:00","11.0975","3.442","26.012","4.04","7.31","2.439","1324.919","0","2.14","30.3332","4.76764","44.51","0","SATNPRO1963","26.376","0.36946","5"],
    [43721,"HCEP03730564","2024-12-26 17:30:00","11.0973","3.44187","25.772","4.064285714285715","7.31","2.558","1166.412","0.01","1.96","30.3321","4.76749","44.78","0","SATNPRO1963","26.48","0.37092","5"],
    [43722,"HCEP03730564","2024-12-26 17:45:00","11.0973","3.4414","25.496","4.064285714285715","7.32","2.558","1157.887","0","0.66","30.3277","4.76684","44.78","0","SATNPRO1963","26.39","0.36962","5"],
    [43723,"HCEP03730564","2024-12-26 18:00:00","11.0979","3.44121","25.275","4.047142857142857","7.32","2.421","1297.553","0","2.07","30.3254","4.76649","44.59","0","SATNPRO1963","26.326","0.36872","5"],
    [43724,"HCEP03730564","2024-12-26 18:15:00","11.0976","3.44111","25.146","4.037142857142857","7.31","2.556","1183.859","0.01","2.6","30.3247","4.7664","44.48","0","SATNPRO1963","26.404","0.36982","5"],
    [43725,"HCEP03730564","2024-12-26 18:30:00","11.0976","3.44102","25.046","4.035714285714286","7.32","2.554","1174.351","0","1.15","30.3238","4.76626","44.47","0","SATNPRO1963","26.446","0.37046","5"],
    [43726,"HCEP03730564","2024-12-26 18:45:00","11.0976","3.44087","24.959","4.027142857142858","7.31","2.431","1309.104","0","2.57","30.3225","4.76607","44.37","0","SATNPRO1963","26.382","0.3695","5"],
    [43727,"HCEP03730564","2024-12-26 19:00:00","11.0975","3.44071","24.908","4.017142857142857","7.31","2.549","1174.839","0.01","3.23","30.321","4.76586","44.26","0","SATNPRO1963","26.248","0.36762","5"],
    [43728,"HCEP03730564","2024-12-26 19:15:00","11.0971","3.44038","24.856","4.02","7.32","2.547","1167.476","0","0.66","30.3181","4.76546","44.28","0","SATNPRO1963","26.419999999999998","0.37004","5"],
    [43729,"HCEP03730564","2024-12-26 19:30:00","11.0967","3.44015","24.821","4.024285714285715","7.31","2.415","1326.558","0","2.77","30.3162","4.76518","44.33","0","SATNPRO1963","26.576","0.37224","5"],
    [43730,"HCEP03730564","2024-12-26 19:45:00","11.0964","3.43982","24.778","4.021428571428571","7.31","2.563","1180.287","0","2.63","30.3133","4.76478","44.31","0","SATNPRO1963","26.424","0.3701","5"],
    [43731,"HCEP03730564","2024-12-26 20:00:00","11.0964","3.43961","24.733","4.007142857142857","7.32","2.564","1172.664","0","0","30.3111","4.76447","44.15","0","SATNPRO1963","26.442","0.3704","5"],
    [43732,"HCEP03730564","2024-12-26 20:15:00","11.0966","3.43943","24.754","3.991428571428572","7.31","2.471","1303.984","0","1.63","30.3093","4.7642","43.97","0","SATNPRO1963","26.482","0.37092","5"],
    [43733,"HCEP03730564","2024-12-26 20:30:00","11.0963","3.43933","24.769","3.985714285714286","7.31","2.564","1135.926","0.01","5.41","30.3086","4.76412","43.9","0","SATNPRO1963","26.228","0.36736","5"],
    [43734,"HCEP03730564","2024-12-26 20:45:00","11.0965","3.43914","24.797","3.977142857142857","7.32","2.569","1127.343","0","0","30.3065","4.76381","43.81","0","SATNPRO1963","26.548","0.37184","5"],
    [43735,"HCEP03730564","2024-12-26 21:00:00","11.0959","3.43868","24.829","3.972857142857143","7.31","2.428","1297.077","0","1.99","30.3025","4.76326","43.77","0","SATNPRO1963","26.310000000000002","0.36852","5"],
    [43736,"HCEP03730564","2024-12-26 21:15:00","11.0961","3.43862","24.9","3.948571428571428","7.31","2.553","1200.037","0.01","3.04","30.3017","4.76315","43.49","0","SATNPRO1963","26.2","0.36698","5"],
    [43737,"HCEP03730564","2024-12-26 21:30:00","11.0882","3.43541","24.949","3.925714285714286","7.31","2.553","1192.378","0","0","30.2768","4.75973","43.23","0","SATNPRO1963","26.368","0.36932","5"],
    [43738,"HCEP03730564","2024-12-26 21:45:00","11.0839","3.43272","25.008","3.882857142857143","7.3","2.448","1305.053","0","1.96","30.254","4.75658","42.74","0","SATNPRO1963","26.233999999999998","0.36744","5"],
    [43739,"HCEP03730564","2024-12-26 22:00:00","11.0798","3.43092","25.165","3.87","7.3","2.567","1219.336","0.01","2.49","30.2398","4.75463","42.6","0","SATNPRO1963","26.09","0.36546","5"],
    [43740,"HCEP03730564","2024-12-26 22:15:00","11.0717","3.42665","25.269","3.884285714285714","7.31","2.569","1211.819","0","0.38","30.2046","4.74978","42.74","0","SATNPRO1963","26.436","0.37026","5"],
    [43741,"HCEP03730564","2024-12-26 22:30:00","11.0675","3.42508","25.435","3.9","7.3","2.468","1300.329","0","1.99","30.1926","4.74815","42.9","0","SATNPRO1963","26.07","0.36516","5"],
    [43742,"HCEP03730564","2024-12-26 22:45:00","11.0655","3.42419","25.614","3.878571428571429","7.3","2.579","1177.927","0.01","3.56","30.1855","4.74718","42.67","0","SATNPRO1963","26","0.36418","5"],
    [43743,"HCEP03730564","2024-12-26 23:00:00","11.0605","3.4226","25.758","3.864285714285714","7.3","2.584","1169.802","0","0.94","30.174","4.74564","42.5","0","SATNPRO1963","26.166","0.36652","5"],
    [43744,"HCEP03730564","2024-12-26 23:15:00","11.0586","3.42147","25.943","3.86","7.3","2.489","1280.328","0","2.14","30.1644","4.74432","42.45","0","SATNPRO1963","26.09","0.36542","5"],
    [43745,"HCEP03730564","2024-12-26 23:30:00","11.058","3.42128","26.109","3.865714285714286","7.3","2.589","1218.58","0","2.49","30.163","4.74413","42.5","0","SATNPRO1963","26.174","0.36658","5"],
    [43746,"HCEP03730564","2024-12-26 23:45:00","11.0596","3.42202","26.308","3.868571428571429","7.3","2.593","1209.46","0","0","30.1689","4.74496","42.54","0","SATNPRO1963","26.068","0.36516","5"],
    [43747,"HCEP03730564","2024-12-27 00:00:00","11.0627","3.42327","26.503","3.867142857142857","7.3","2.496","1319.897","0","3.7","30.1785","4.74628","42.53","0","SATNPRO1963","26.09","0.36544","5"],
    [43748,"HCEP03730564","2024-12-27 00:15:00","11.0653","3.42437","26.726","3.857142857142858","7.3","2.561","1179.596","0","4.39","30.187","4.74746","42.43","0","SATNPRO1963","26.009999999999998","0.3643","5"],
    [43749,"HCEP03730564","2024-12-27 00:30:00","11.07","3.42623","26.963","3.855714285714285","7.3","2.566","1170.711","0","0.54","30.2012","4.74941","42.43","0","SATNPRO1963","26.194","0.36688","5"],
    [43750,"HCEP03730564","2024-12-27 00:45:00","11.0753","3.42838","27.206","3.857142857142858","7.3","2.446","1320.738","0","1.96","30.2179","4.75171","42.44","0","SATNPRO1963","26.206","0.36708","5"],
    [43751,"HCEP03730564","2024-12-27 01:00:00","11.0794","3.4302","27.385","3.851428571428572","7.29","2.559","1219.683","0.01","2.52","30.2322","4.75368","42.39","0","SATNPRO1963","26.12","0.36586","5"],
    [43752,"HCEP03730564","2024-12-27 01:15:00","11.0814","3.43114","27.568","3.838571428571428","7.3","2.56","1212.042","0","0.66","30.2396","4.75472","42.25","0","SATNPRO1963","26.066","0.3651","5"],
    [43753,"HCEP03730564","2024-12-27 01:30:00","11.0862","3.43346","27.717","3.825714285714286","7.29","2.468","1332.55","0","4.04","30.2584","4.75731","42.13","0","SATNPRO1963","26.066","0.3651","5"],
    [43754,"HCEP03730564","2024-12-27 01:45:00","11.0873","3.43451","27.821","3.827142857142857","7.29","2.565","1237.433","0","2.17","30.2676","4.75861","42.15","0","SATNPRO1963","26.306","0.36848","5"],
    [43755,"HCEP03730564","2024-12-27 02:00:00","11.0865","3.43406","27.9","3.835714285714286","7.3","2.566","1228.508","0","0.66","30.2638","4.7581","42.24","0","SATNPRO1963","26.244","0.36758","5"],
    [43756,"HCEP03730564","2024-12-27 02:15:00","11.0843","3.43418","27.981","3.83","7.29","2.45","1354.149","0","3.12","30.2668","4.75855","42.17","0","SATNPRO1963","26.04","0.36472","5"],
    [43757,"HCEP03730564","2024-12-27 02:30:00","11.0852","3.43482","28.04","3.812857142857143","7.29","2.575","1238.434","0","2.6","30.2723","4.75932","41.98","0","SATNPRO1963","26.362","0.36928","5"],
    [43758,"HCEP03730564","2024-12-27 02:45:00","11.0869","3.43563","28.104","3.824285714285714","7.3","2.576","1230.352","0","0.38","30.2788","4.76022","42.11","0","SATNPRO1963","26.062","0.365","5"],
    [43759,"HCEP03730564","2024-12-27 03:00:00","11.0875","3.43579","28.059","3.834285714285714","7.29","2.474","1342.269","0","1.8","30.2799","4.76036","42.22","0","SATNPRO1963","26.292","0.36826","5"],
    [43760,"HCEP03730564","2024-12-27 03:15:00","11.0878","3.43575","28.04","3.841428571428572","7.29","2.578","1207.302","0.01","3.41","30.2792","4.76026","42.3","0","SATNPRO1963","26.116","0.36582","5"],
    [43761,"HCEP03730564","2024-12-27 03:30:00","11.0881","3.43586","28.022","3.844285714285714","7.3","2.579","1197.627","0","0","30.2801","4.76039","42.34","0","SATNPRO1963","26.108","0.3657","5"],
    [43762,"HCEP03730564","2024-12-27 03:45:00","11.0888","3.43606","27.896","3.851428571428572","7.3","2.447","1326.48","0","3.04","30.2816","4.76057","42.41","0","SATNPRO1963","26.344","0.369","5"],
    [43763,"HCEP03730564","2024-12-27 04:00:00","11.0889","3.43603","27.756","3.88","7.29","2.578","1199.347","0.01","2.46","30.2811","4.7605","42.73","0","SATNPRO1963","26.124","0.36588","5"],
    [43764,"HCEP03730564","2024-12-27 04:15:00","11.0894","3.43607","27.77","3.872857142857143","7.3","2.58","1192.77","0","0","30.2811","4.76049","42.65","0","SATNPRO1963","26.344","0.36896","5"],
    [43765,"HCEP03730564","2024-12-27 04:30:00","11.0892","3.43632","27.796","3.881428571428572","7.29","2.469","1325.569","0","2.24","30.2837","4.76086","42.74","0","SATNPRO1963","26.224","0.36728","5"],
    [43766,"HCEP03730564","2024-12-27 04:45:00","11.09","3.43648","27.829","3.881428571428572","7.29","2.587","1204.724","0.01","2.4","30.2847","4.761","42.75","0","SATNPRO1963","26.394","0.36966","5"],
    [43767,"HCEP03730564","2024-12-27 05:00:00","11.0896","3.4364","27.803","3.89","7.29","2.589","1197.209","0","0.66","30.2842","4.76093","42.84","0","SATNPRO1963","26.416","0.37002","5"],
    [43768,"HCEP03730564","2024-12-27 05:15:00","11.0899","3.43658","27.79","3.89","7.29","2.476","1324.413","0","2.2","30.2858","4.76114","42.84","0","SATNPRO1963","26.336","0.36888","5"],
    [43769,"HCEP03730564","2024-12-27 05:30:00","11.0895","3.43661","27.758","3.892857142857143","7.28","2.569","1241.802","0.01","2.24","30.2863","4.76123","42.86","0","SATNPRO1963","26.471999999999998","0.37076","5"],
    [43770,"HCEP03730564","2024-12-27 05:45:00","11.0903","3.43686","27.732","3.892857142857143","7.29","2.571","1233.92","0","0.94","30.2882","4.76148","42.87","0","SATNPRO1963","26.506","0.37128","5"],
    [43771,"HCEP03730564","2024-12-27 06:00:00","11.0906","3.43717","27.698","3.895714285714286","7.29","2.479","1350.216","0","2.1","30.2909","4.76185","42.91","0","SATNPRO1963","26.46","0.3706","5"],
    [43772,"HCEP03730564","2024-12-27 06:15:00","11.0913","3.43752","27.664","3.892857142857143","7.28","2.562","1239.411","0.01","2.82","30.2938","4.76226","42.87","0","SATNPRO1963","26.164","0.3665","5"],
    [43773,"HCEP03730564","2024-12-27 06:30:00","11.092","3.43788","27.63","3.89","7.29","2.564","1231.275","0","0.94","30.2967","4.76266","42.85","0","SATNPRO1963","26.436","0.37032","5"],
    [43774,"HCEP03730564","2024-12-27 06:45:00","11.0923","3.43832","27.608","3.915714285714286","7.29","2.451","1373.116","0","1.92","30.3008","4.76323","43.13","0","SATNPRO1963","26.424","0.37012","5"],
    [43775,"HCEP03730564","2024-12-27 07:00:00","11.0898","3.43948","27.576","4.092857142857143","7.29","2.572","1251.787","0.01","2.6","30.3142","4.76517","45.09","0","SATNPRO1963","26.612000000000002","0.37276","5"],
    [43776,"HCEP03730564","2024-12-27 07:15:00","11.0903","3.43979","27.531","4.185714285714286","7.3","2.574","1244.472","0","0.38","30.3169","4.76554","46.11","0","SATNPRO1963","26.484","0.37096","5"],
    [43777,"HCEP03730564","2024-12-27 07:30:00","11.091","3.43983","27.502","4.175714285714286","7.3","2.49","1365.886","0","1.72","30.3167","4.7655","46","0","SATNPRO1963","26.506","0.37124","5"],
    [43778,"HCEP03730564","2024-12-27 07:45:00","11.0908","3.43987","27.467","4.175714285714286","7.3","2.569","1237.946","0.01","2.36","30.3172","4.76557","46","0","SATNPRO1963","26.552","0.3719","5"],
    [43779,"HCEP03730564","2024-12-27 08:00:00","11.0913","3.44017","27.446","4.177142857142857","7.31","2.57","1229.604","0","0.77","30.3198","4.76593","46.01","0","SATNPRO1963","26.494","0.37112","5"],
    [43780,"HCEP03730564","2024-12-27 08:15:00","11.0922","3.4404","27.419","4.175714285714286","7.3","2.47","1358.744","0","1.92","30.3213","4.76613","46.01","0","SATNPRO1963","26.372","0.36938","5"],
    [43781,"HCEP03730564","2024-12-27 08:30:00","11.0949","3.44187","27.397","4.180000000000001","7.3","2.577","1247.059","0.01","2.33","30.3334","4.7678","46.06","0","SATNPRO1963","26.584","0.37234","5"],
    [43782,"HCEP03730564","2024-12-27 08:45:00","11.0953","3.4422","27.388","4.248571428571429","7.31","2.58","1238.946","0","0.54","30.3363","4.7682","46.82","0","SATNPRO1963","26.678","0.37368","5"],
    [43783,"HCEP03730564","2024-12-27 09:00:00","11.0971","3.44328","27.392","4.302857142857143","7.31","2.489","1337.168","0","1.72","30.3454","4.76947","47.41","0","SATNPRO1963","26.798000000000002","0.37536","5"],
    [43784,"HCEP03730564","2024-12-27 09:15:00","11.099","3.44386","27.402","4.361428571428571","7.31","2.579","1226.903","0.01","2.17","30.3496","4.77002","48.07","0","SATNPRO1963","26.720000000000002","0.37426","5"],
    [43785,"HCEP03730564","2024-12-27 09:30:00","11.099","3.44403","27.411","4.38","7.32","2.581","1218.69","0","0","30.3512","4.77026","48.27","0","SATNPRO1963","26.606","0.37264","5"],
    [43786,"HCEP03730564","2024-12-27 09:45:00","11.1004","3.44451","27.431","4.382857142857144","7.32","2.468","1338.357","0","1.67","30.3547","4.77073","48.3","0","SATNPRO1963","26.638","0.3731","5"],
    [43787,"HCEP03730564","2024-12-27 10:00:00","11.1028","3.44522","27.421","4.395714285714286","7.32","2.549","1203.517","0.01","2.14","30.3597","4.77141","48.44","0","SATNPRO1963","26.608","0.37266","5"],
    [43788,"HCEP03730564","2024-12-27 10:15:00","11.1048","3.446","27.463","4.404285714285715","7.33","2.55","1197.074","0","0.66","30.3656","4.77221","48.54","0","SATNPRO1963","26.718","0.3742","5"],
    [43789,"HCEP03730564","2024-12-27 10:30:00","11.1058","3.44625","27.49","4.41","7.33","2.409","1317.497","0.01","2.1","30.3673","4.77243","48.61","0","SATNPRO1963","26.514","0.37136","5"],
    [43790,"HCEP03730564","2024-12-27 10:45:00","11.1069","3.44661","27.545","4.412857142857143","7.33","2.544","1147.396","0","2.03","30.3699","4.7728","48.64","0","SATNPRO1963","26.524","0.37148","5"],
    [43791,"HCEP03730564","2024-12-27 11:00:00","11.1076","3.44689","27.576","4.412857142857143","7.33","2.543","1139.534","0","0.94","30.3721","4.77309","48.64","0","SATNPRO1963","26.524","0.3715","5"],
    [43792,"HCEP03730564","2024-12-27 11:15:00","11.1093","3.44744","27.605","4.412857142857143","7.33","2.421","1282.101","0","1.44","30.376","4.77362","48.64","0","SATNPRO1963","26.734","0.37442","5"],
    [43793,"HCEP03730564","2024-12-27 11:30:00","11.1105","3.44786","27.642","4.41","7.32","2.561","1168.567","0","2.36","30.3791","4.77404","48.62","0","SATNPRO1963","26.686","0.37378","5"],
    [43794,"HCEP03730564","2024-12-27 11:45:00","11.1123","3.44823","27.687","4.414285714285715","7.33","2.561","1161.409","0","0","30.3812","4.77432","48.66","0","SATNPRO1963","26.858","0.37618","5"],
    [43795,"HCEP03730564","2024-12-27 12:00:00","11.1133","3.44874","27.716","4.407142857142858","7.33","2.428","1276.074","0","2.27","30.3853","4.77489","48.59","0","SATNPRO1963","26.514","0.3714","5"],
    [43796,"HCEP03730564","2024-12-27 12:15:00","11.1119","3.44822","27.765","4.4","7.33","2.549","1170.046","0.01","2.79","30.3813","4.77435","48.51","0","SATNPRO1963","26.532","0.37164","5"],
    [43797,"HCEP03730564","2024-12-27 12:30:00","11.1124","3.44829","27.778","4.385714285714285","7.34","2.548","1162.604","0","0.38","30.3816","4.77438","48.35","0","SATNPRO1963","26.57","0.37216","5"],
    [43798,"HCEP03730564","2024-12-27 12:45:00","11.1119","3.44815","27.744","4.388571428571429","7.34","2.453","1280.201","0","2.6","30.3807","4.77425","48.38","0","SATNPRO1963","26.689999999999998","0.37382","5"],
    [43799,"HCEP03730564","2024-12-27 13:00:00","11.1126","3.44815","27.721","4.388571428571429","7.34","2.549","1164.937","0","2.24","30.3801","4.77416","48.38","0","SATNPRO1963","26.663999999999998","0.37352","5"],
    [43800,"HCEP03730564","2024-12-27 13:15:00","11.1122","3.44794","27.708","4.381428571428572","7.35","2.551","1157.779","0","0.38","30.3785","4.77394","48.3","0","SATNPRO1963","26.759999999999998","0.3748","5"],
    [43801,"HCEP03730564","2024-12-27 13:30:00","11.1122","3.44796","27.687","4.378571428571429","7.34","2.429","1284.513","0","1.84","30.3785","4.77394","48.27","0","SATNPRO1963","26.733999999999998","0.37446","5"],
    [43802,"HCEP03730564","2024-12-27 13:45:00","11.1119","3.44779","27.667","4.368571428571428","7.34","2.553","1185.898","0.01","3.23","30.3772","4.77375","48.16","0","SATNPRO1963","26.704","0.37402","5"],
    [43803,"HCEP03730564","2024-12-27 14:00:00","11.1108","3.44747","27.612","4.354285714285714","7.35","2.553","1176.769","0","0.54","30.375","4.77346","48","0","SATNPRO1963","26.61","0.37268","5"],
    [43804,"HCEP03730564","2024-12-27 14:15:00","11.1105","3.44732","27.553","4.357142857142857","7.35","2.453","1306.098","0","2.1","30.3739","4.7733","48.04","0","SATNPRO1963","26.446","0.37042","5"],
    [43805,"HCEP03730564","2024-12-27 14:30:00","11.1098","3.44706","27.499","4.35","7.35","2.545","1182.273","0","2.24","30.3719","4.77303","47.95","0","SATNPRO1963","26.744","0.37462","5"],
    [43806,"HCEP03730564","2024-12-27 14:45:00","11.1089","3.44662","27.454","4.344285714285714","7.35","2.548","1175.274","0","0","30.3683","4.77253","47.88","0","SATNPRO1963","26.724","0.3743","5"],
    [43807,"HCEP03730564","2024-12-27 15:00:00","11.1073","3.44584","27.373","4.318571428571428","7.35","2.429","1296.987","0","1.96","30.3621","4.77167","47.61","0","SATNPRO1963","26.541999999999998","0.37176","5"],
    [43808,"HCEP03730564","2024-12-27 15:15:00","11.1049","3.44434","27.301","4.278571428571428","7.34","2.552","1142.404","0","2.27","30.3494","4.7699","47.16","0","SATNPRO1963","26.526","0.37154","5"],
    [43809,"HCEP03730564","2024-12-27 15:30:00","11.1027","3.44283","27.204","4.221428571428572","7.35","2.555","1135.633","0","0.54","30.3365","4.7681","46.51","0","SATNPRO1963","26.426","0.37014","5"],
    [43810,"HCEP03730564","2024-12-27 15:45:00","11.0995","3.44122","27.055","4.168571428571429","7.34","2.409","1253.437","0","2.03","30.3234","4.76629","45.93","0","SATNPRO1963","26.316","0.3686","5"],
    [43811,"HCEP03730564","2024-12-27 16:00:00","11.0974","3.43994","26.997","4.135714285714286","7.34","2.551","1150.107","0.01","1.92","30.3127","4.76481","45.56","0","SATNPRO1963","26.436","0.37026","5"],
    [43812,"HCEP03730564","2024-12-27 16:15:00","11.0957","3.43921","26.832","4.132857142857143","7.34","2.552","1143.132","0","0.38","30.307","4.76401","45.53","0","SATNPRO1963","26.498","0.37116","5"],
    [43813,"HCEP03730564","2024-12-27 16:30:00","11.0941","3.43847","26.674","4.118571428571428","7.33","2.42","1259.176","0","2.14","30.3012","4.7632","45.36","0","SATNPRO1963","26.792","0.37526","5"],
    [43814,"HCEP03730564","2024-12-27 16:45:00","11.0908","3.43727","26.465","4.107142857142858","7.33","2.542","1112.419","0.01","1.99","30.2923","4.76198","45.24","0","SATNPRO1963","26.504","0.37126","5"],
    [43815,"HCEP03730564","2024-12-27 17:00:00","11.0879","3.43641","26.306","4.088571428571429","7.34","2.542","1104.821","0","0.77","30.2863","4.76117","45.03","0","SATNPRO1963","26.476","0.37084","5"],
    [43816,"HCEP03730564","2024-12-27 17:15:00","11.0871","3.43596","26.133","4.082857142857143","7.33","2.387","1247.373","0","2.17","30.2826","4.76064","44.95","0","SATNPRO1963","26.474","0.3708","5"],
    [43817,"HCEP03730564","2024-12-27 17:30:00","11.0844","3.43509","25.993","4.077142857142857","7.32","2.529","1121.299","0.01","2.2","30.2764","4.7598","44.89","0","SATNPRO1963","26.52","0.37148","5"],
    [43818,"HCEP03730564","2024-12-27 17:45:00","11.0833","3.43472","25.817","4.074285714285714","7.33","2.528","1114.103","0","0.86","30.2737","4.75942","44.87","0","SATNPRO1963","26.412","0.36996","5"],
    [43819,"HCEP03730564","2024-12-27 18:00:00","11.0827","3.43451","25.616","4.071428571428572","7.32","2.402","1248.428","0","2.14","30.2723","4.75922","44.82","0","SATNPRO1963","26.69","0.37382","5"],
    [43820,"HCEP03730564","2024-12-27 18:15:00","11.0819","3.43438","25.434","4.072857142857143","7.32","2.536","1117.988","0.01","1.88","30.2717","4.75914","44.85","0","SATNPRO1963","26.62","0.37288","5"],
    [43821,"HCEP03730564","2024-12-27 18:30:00","11.0816","3.43419","25.287","4.074285714285714","7.32","2.537","1111.016","0","0","30.2702","4.75892","44.86","0","SATNPRO1963","26.6","0.37254","5"],
    [43822,"HCEP03730564","2024-12-27 18:45:00","11.0811","3.43395","25.191","4.068571428571428","7.32","2.418","1259.314","0","1.92","30.2683","4.75866","44.8","0","SATNPRO1963","26.524","0.37152","5"],
    [43823,"HCEP03730564","2024-12-27 19:00:00","11.0806","3.43377","25.048","4.06","7.31","2.55","1169.936","0.01","2.43","30.267","4.75847","44.69","0","SATNPRO1963","26.642","0.37318","5"],
    [43824,"HCEP03730564","2024-12-27 19:15:00","11.0801","3.43362","24.897","4.048571428571429","7.32","2.552","1163.425","0","0.77","30.2661","4.75834","44.58","0","SATNPRO1963","26.098","0.36554","5"],
    [43825,"HCEP03730564","2024-12-27 19:30:00","11.0802","3.43367","24.757","4.04","7.32","2.447","1262.107","0","2.49","30.2665","4.75838","44.48","0","SATNPRO1963","26.57","0.37214","5"],
    [43826,"HCEP03730564","2024-12-27 19:45:00","11.0802","3.43359","24.662","4.037142857142857","7.31","2.552","1140.025","0.01","2.4","30.2657","4.75827","44.45","0","SATNPRO1963","26.456","0.37058","5"],
    [43827,"HCEP03730564","2024-12-27 20:00:00","11.0804","3.43368","24.583","4.037142857142857","7.32","2.554","1134.132","0","0.94","30.2665","4.75838","44.44","0","SATNPRO1963","26.578","0.37228","5"],
    [43828,"HCEP03730564","2024-12-27 20:15:00","11.0807","3.43383","24.532","4.038571428571428","7.31","2.425","1277.54","0","3.89","30.2677","4.75854","44.46","0","SATNPRO1963","26.288","0.3682","5"],
    [43829,"HCEP03730564","2024-12-27 20:30:00","11.0814","3.43395","24.522","4.032857142857143","7.31","2.542","1155.939","0.01","3.09","30.2683","4.75862","44.39","0","SATNPRO1963","26.532","0.37164","5"],
    [43830,"HCEP03730564","2024-12-27 20:45:00","11.0816","3.43416","24.517","4.031428571428572","7.32","2.544","1148.594","0","0","30.2702","4.75888","44.38","0","SATNPRO1963","26.462","0.37062","5"],
    [43831,"HCEP03730564","2024-12-27 21:00:00","11.0807","3.4339","24.555","4.032857142857143","7.32","2.423","1260.186","0","1.67","30.2684","4.75864","44.41","0","SATNPRO1963","26.454","0.37054","5"],
    [43832,"HCEP03730564","2024-12-27 21:15:00","11.0794","3.43344","24.582","4.038571428571428","7.31","2.542","1127.617","0","2.17","30.265","4.75818","44.46","0","SATNPRO1963","26.318","0.36862","5"],
    [43833,"HCEP03730564","2024-12-27 21:30:00","11.0799","3.43358","24.657","4.035714285714286","7.32","2.542","1120.813","0","0.38","30.2659","4.75831","44.43","0","SATNPRO1963","26.572","0.37218","5"],
    [43834,"HCEP03730564","2024-12-27 21:45:00","11.0799","3.43355","24.696","4.03","7.31","2.416","1273.073","0","1.96","30.2656","4.75826","44.36","0","SATNPRO1963","26.42","0.37006","5"],
    [43835,"HCEP03730564","2024-12-27 22:00:00","11.0799","3.43344","24.787","4.03","7.31","2.544","1110.429","0","2.87","30.2645","4.75812","44.36","0","SATNPRO1963","26.68","0.37366","5"],
    [43836,"HCEP03730564","2024-12-27 22:15:00","11.0792","3.43336","24.904","4.027142857142858","7.32","2.545","1103.436","0","0.94","30.2642","4.75809","44.33","0","SATNPRO1963","26.606","0.37268","5"],
    [43837,"HCEP03730564","2024-12-27 22:30:00","11.0797","3.43335","25.029","4.012857142857143","7.31","2.431","1240.364","0","4.06","30.2636","4.758","44.18","0","SATNPRO1963","26.346","0.369","5"],
    [43838,"HCEP03730564","2024-12-27 22:45:00","11.0793","3.43311","25.141","3.985714285714286","7.32","2.538","1121.786","0.01","3.58","30.2616","4.75773","43.88","0","SATNPRO1963","26.35","0.36908","5"],
    [43839,"HCEP03730564","2024-12-27 23:00:00","11.0791","3.43291","25.286","3.965714285714285","7.32","2.539","1114.434","0","0","30.2597","4.75747","43.66","0","SATNPRO1963","26.114","0.36574","5"],
    [43840,"HCEP03730564","2024-12-27 23:15:00","11.0787","3.43274","25.448","3.951428571428572","7.32","2.453","1229.331","0","1.8","30.2584","4.7573","43.5","0","SATNPRO1963","26.342","0.36894","5"],
    [43841,"HCEP03730564","2024-12-27 23:30:00","11.0783","3.43263","25.633","3.967142857142858","7.31","2.553","1175.227","0","2.07","30.2575","4.75719","43.68","0","SATNPRO1963","26.144000000000002","0.36618","5"],
    [43842,"HCEP03730564","2024-12-27 23:45:00","11.078","3.43263","25.779","3.982857142857143","7.32","2.555","1168.178","0","1.01","30.2576","4.75722","43.85","0","SATNPRO1963","26.186","0.36678","5"],
    [43843,"HCEP03730564","2024-12-28 00:00:00","11.078","3.43257","25.953","3.98","7.32","2.492","1211.623","0","2.68","30.2571","4.75716","43.81","0","SATNPRO1963","26.375999999999998","0.36942","5"],
    [43844,"HCEP03730564","2024-12-28 00:15:00","11.078","3.4325","26.138","3.965714285714285","7.31","2.569","1184.103","0","2.6","30.2563","4.75705","43.66","0","SATNPRO1963","26.216","0.36718","5"],
    [43845,"HCEP03730564","2024-12-28 00:30:00","11.0782","3.43244","26.314","3.951428571428572","7.32","2.571","1174.266","0","1.01","30.2555","4.75695","43.49","0","SATNPRO1963","26.374","0.36938","5"],
    [43846,"HCEP03730564","2024-12-28 00:45:00","11.078","3.43243","26.519","3.944285714285714","7.31","2.496","1273.2","0","2.3","30.2555","4.75697","43.42","0","SATNPRO1963","26.42","0.37008","5"],
    [43847,"HCEP03730564","2024-12-28 01:00:00","11.0773","3.43222","26.701","3.945714285714286","7.31","2.55","1154.747","0","2.95","30.2539","4.75676","43.44","0","SATNPRO1963","26.28","0.36814","5"],
    [43848,"HCEP03730564","2024-12-28 01:15:00","11.0747","3.43139","26.902","3.957142857142857","7.32","2.553","1147.443","0","0.54","30.2479","4.75596","43.55","0","SATNPRO1963","26.39","0.36964","5"],
    [43849,"HCEP03730564","2024-12-28 01:30:00","11.0751","3.43131","27.081","3.955714285714286","7.31","2.474","1218.382","0","2.9","30.2466","4.75579","43.55","0","SATNPRO1963","26.37","0.36934","5"],
    [43850,"HCEP03730564","2024-12-28 01:45:00","11.0747","3.43133","27.243","3.96","7.31","2.572","1175.02","0","2.27","30.2471","4.75586","43.59","0","SATNPRO1963","26.464","0.37066","5"],
    [43851,"HCEP03730564","2024-12-28 02:00:00","11.0719","3.43047","27.388","3.961428571428572","7.32","2.574","1166.81","0","1.15","30.2409","4.75504","43.6","0","SATNPRO1963","26.37","0.36934","5"],
    [43852,"HCEP03730564","2024-12-28 02:15:00","11.0726","3.43059","27.523","3.951428571428572","7.31","2.509","1208.522","0","1.92","30.2415","4.75512","43.48","0","SATNPRO1963","26.37","0.36938","5"],
    [43853,"HCEP03730564","2024-12-28 02:30:00","11.0719","3.43033","27.665","3.947142857142857","7.31","2.561","1094.172","0","3.74","30.2394","4.75484","43.44","0","SATNPRO1963","26.528","0.37154","5"],
    [43854,"HCEP03730564","2024-12-28 02:45:00","11.0702","3.42971","27.763","3.941428571428571","7.31","2.566","1087.083","0","0.72","30.2348","4.75422","43.37","0","SATNPRO1963","26.36","0.36922","5"],
    [43855,"HCEP03730564","2024-12-28 03:00:00","11.07","3.42952","27.863","3.931428571428571","7.3","2.434","1213.415","0","1.84","30.233","4.75397","43.26","0","SATNPRO1963","26.33","0.3688","5"],
    [43856,"HCEP03730564","2024-12-28 03:15:00","11.0723","3.43013","27.966","3.912857142857143","7.31","2.551","1083.947","0","2.38","30.2371","4.75452","43.07","0","SATNPRO1963","26.286","0.3682","5"],
    [43857,"HCEP03730564","2024-12-28 03:30:00","11.0716","3.42991","28.06","3.891428571428572","7.31","2.552","1076.862","0","0.61","30.2355","4.75431","42.83","0","SATNPRO1963","26.326","0.36872","5"],
    [43858,"HCEP03730564","2024-12-28 03:45:00","11.0717","3.42978","28.136","3.891428571428572","7.3","2.43","1204.441","0","1.99","30.2341","4.75411","42.82","0","SATNPRO1963","26.14","0.36618","5"],
    [43859,"HCEP03730564","2024-12-28 04:00:00","11.0724","3.42998","28.22","3.891428571428572","7.3","2.544","1107.738","0.01","4.06","30.2355","4.75431","42.82","0","SATNPRO1963","26.34","0.36892","5"],
    [43860,"HCEP03730564","2024-12-28 04:15:00","11.0727","3.43005","28.269","3.881428571428572","7.31","2.546","1099.593","0","0","30.2358","4.75435","42.71","0","SATNPRO1963","26.486","0.371","5"],
    [43861,"HCEP03730564","2024-12-28 04:30:00","11.0731","3.43022","28.358","3.875714285714286","7.3","2.437","1213.662","0","1.8","30.2371","4.75453","42.65","0","SATNPRO1963","26.276","0.36806","5"],
    [43862,"HCEP03730564","2024-12-28 04:45:00","11.0741","3.43062","28.4","3.878571428571429","7.3","2.535","1094.871","0.01","2.6","30.2402","4.75496","42.69","0","SATNPRO1963","26.426","0.37012","5"],
    [43863,"HCEP03730564","2024-12-28 05:00:00","11.0739","3.43062","28.382","3.888571428571429","7.3","2.537","1088.596","0","0","30.2403","4.75498","42.8","0","SATNPRO1963","26.308","0.36848","5"],
    [43864,"HCEP03730564","2024-12-28 05:15:00","11.0741","3.43082","28.281","3.9","7.3","2.399","1235.97","0","1.92","30.2422","4.75524","42.92","0","SATNPRO1963","26.352","0.3691","5"],
    [43865,"HCEP03730564","2024-12-28 05:30:00","11.0823","3.43434","28.156","3.92","7.3","2.535","1087.911","0","2.19","30.27","4.75904","43.16","0","SATNPRO1963","26.208","0.36708","5"],
    [43866,"HCEP03730564","2024-12-28 05:45:00","11.0846","3.43509","28.031","3.948571428571428","7.31","2.534","1079.514","0","0","30.2755","4.75978","43.47","0","SATNPRO1963","26.276","0.36806","5"],
    [43867,"HCEP03730564","2024-12-28 06:00:00","11.0855","3.43552","27.932","3.948571428571428","7.31","2.414","1225.747","0","3.45","30.2789","4.76025","43.49","0","SATNPRO1963","26.166","0.36648","5"],
    [43868,"HCEP03730564","2024-12-28 06:15:00","11.0867","3.43591","27.878","3.952857142857143","7.31","2.546","1102.313","0","3.02","30.2818","4.76063","43.53","0","SATNPRO1963","26.240000000000002","0.36754","5"],
    [43869,"HCEP03730564","2024-12-28 06:30:00","11.0876","3.4363","27.844","3.95","7.32","2.549","1095.547","0","0","30.2848","4.76105","43.5","0","SATNPRO1963","26.15","0.36628","5"],
    [43870,"HCEP03730564","2024-12-28 06:45:00","11.0898","3.43716","27.824","3.958571428571429","7.31","2.42","1212.772","0","2.2","30.2915","4.76196","43.6","0","SATNPRO1963","26.5","0.37116","5"],
    [43871,"HCEP03730564","2024-12-28 07:00:00","11.0975","3.44042","27.771","4.072857142857143","7.31","2.539","1121.855","0.01","2.3","30.317","4.76545","44.86","0","SATNPRO1963","26.612","0.37274","5"],
    [43872,"HCEP03730564","2024-12-28 07:15:00","11.1014","3.44193","27.773","4.194285714285714","7.32","2.54","1114.599","0","0.54","30.3286","4.76703","46.22","0","SATNPRO1963","26.746000000000002","0.3746","5"],
    [43873,"HCEP03730564","2024-12-28 07:30:00","11.1036","3.44287","27.722","4.24","7.32","2.435","1270.368","0","2.17","30.3359","4.76804","46.72","0","SATNPRO1963","26.842","0.376","5"],
    [43874,"HCEP03730564","2024-12-28 07:45:00","11.103","3.44317","27.656","4.218571428571429","7.32","2.523","1127.357","0","3.19","30.3394","4.76854","46.49","0","SATNPRO1963","26.488","0.37102","5"],
    [43875,"HCEP03730564","2024-12-28 08:00:00","11.1035","3.44354","27.615","4.227142857142858","7.33","2.526","1120.552","0","0.66","30.3426","4.76898","46.59","0","SATNPRO1963","26.644000000000002","0.3732","5"],
    [43876,"HCEP03730564","2024-12-28 08:15:00","11.1038","3.44359","27.562","4.17","7.32","2.405","1290.191","0.01","1.84","30.3429","4.76901","45.95","0","SATNPRO1963","26.573999999999998","0.37224","5"],
    [43877,"HCEP03730564","2024-12-28 08:30:00","11.1049","3.44409","27.512","4.137142857142857","7.32","2.537","1190.604","0.01","2.54","30.3469","4.76957","45.59","0","SATNPRO1963","26.492","0.37104","5"],
    [43878,"HCEP03730564","2024-12-28 08:45:00","11.1041","3.4438","27.487","4.115714285714286","7.32","2.54","1185.163","0","0.38","30.3447","4.76926","45.36","0","SATNPRO1963","26.586","0.3724","5"],
    [43879,"HCEP03730564","2024-12-28 09:00:00","11.1024","3.44367","27.438","4.108571428571428","7.32","2.465","1290.718","0","2.77","30.3448","4.76931","45.28","0","SATNPRO1963","26.483999999999998","0.37096","5"],
    [43880,"HCEP03730564","2024-12-28 09:15:00","11.1017","3.44378","27.396","4.164285714285715","7.32","2.55","1219.646","0.01","2.43","30.3465","4.76955","45.89","0","SATNPRO1963","26.708000000000002","0.37412","5"],
    [43881,"HCEP03730564","2024-12-28 09:30:00","11.1075","3.44437","27.371","4.038571428571428","7.32","2.552","1210.756","0","0","30.3475","4.7696","44.52","0","SATNPRO1963","26.034","0.36468","5"],
    [43882,"HCEP03730564","2024-12-28 09:45:00","11.109","3.44496","27.365","3.987142857142857","7.31","2.468","1311.234","0","1.96","30.352","4.77022","43.94","0","SATNPRO1963","26.2","0.36698","5"],
    [43883,"HCEP03730564","2024-12-28 10:00:00","11.109","3.44521","27.356","3.987142857142857","7.31","2.552","1256.45","0.01","3.14","30.3545","4.77056","43.94","0","SATNPRO1963","26.062","0.36506","5"],
    [43884,"HCEP03730564","2024-12-28 10:15:00","11.1084","3.44527","27.362","4.004285714285714","7.32","2.552","1246.254","0","0.54","30.3556","4.77073","44.13","0","SATNPRO1963","26.278","0.36814","5"],
    [43885,"HCEP03730564","2024-12-28 10:30:00","11.108","3.44508","27.384","4.015714285714286","7.31","2.506","1309.207","0","2.4","30.3541","4.77052","44.26","0","SATNPRO1963","26.26","0.3678","5"],
    [43886,"HCEP03730564","2024-12-28 10:45:00","11.1072","3.44501","27.408","4.011428571428572","7.31","2.562","1233.098","0","2.27","30.354","4.77053","44.21","0","SATNPRO1963","26.114","0.36578","5"],
    [43887,"HCEP03730564","2024-12-28 11:00:00","11.1079","3.44521","27.453","4.002857142857143","7.32","2.564","1224.675","0","0","30.3554","4.77071","44.12","0","SATNPRO1963","25.994","0.3641","5"],
    [43888,"HCEP03730564","2024-12-28 11:15:00","11.1065","3.4449","27.524","4.004285714285714","7.32","2.487","1299.609","0","1.92","30.3534","4.77047","44.13","0","SATNPRO1963","26.248","0.36768","5"],
    [43889,"HCEP03730564","2024-12-28 11:30:00","11.1043","3.44437","27.562","4.02","7.31","2.54","1215.594","0.01","2.92","30.35","4.77002","44.3","0","SATNPRO1963","26.36","0.36924","5"],
    [43890,"HCEP03730564","2024-12-28 11:45:00","11.1023","3.44364","27.62","4.038571428571428","7.32","2.541","1205.857","0","1.01","30.3446","4.76928","44.51","0","SATNPRO1963","26.392","0.36964","5"],
    [43891,"HCEP03730564","2024-12-28 12:00:00","11.1015","3.44335","27.699","4.045714285714285","7.32","2.456","1270.457","0","2.2","30.3424","4.76898","44.59","0","SATNPRO1963","26.352","0.36912","5"],
    [43892,"HCEP03730564","2024-12-28 12:15:00","11.0995","3.44275","27.762","4.035714285714286","7.31","2.539","1160.396","0","1.99","30.3381","4.76841","44.47","0","SATNPRO1963","26.509999999999998","0.37132","5"],
    [43893,"HCEP03730564","2024-12-28 12:30:00","11.0979","3.44225","27.81","4.037142857142857","7.32","2.542","1152.989","0","0","30.3346","4.76794","44.48","0","SATNPRO1963","26.554","0.3719","5"],
    [43894,"HCEP03730564","2024-12-28 12:45:00","11.096","3.44135","27.827","4.035714285714286","7.31","2.419","1277.934","0.01","3.16","30.3273","4.76694","44.46","0","SATNPRO1963","26.624","0.37292","5"],
    [43895,"HCEP03730564","2024-12-28 13:00:00","11.0954","3.44106","27.869","4.01","7.31","2.527","1158.153","0.01","2.36","30.325","4.76662","44.18","0","SATNPRO1963","26.238","0.36754","5"],
    [43896,"HCEP03730564","2024-12-28 13:15:00","11.0946","3.44073","27.714","3.991428571428572","7.32","2.527","1150.046","0","0.66","30.3224","4.76627","43.97","0","SATNPRO1963","26.382","0.36952","5"],
    [43897,"HCEP03730564","2024-12-28 13:30:00","11.097","3.44127","27.648","3.992857142857143","7.31","2.395","1253.801","0","1.84","30.3258","4.76671","43.99","0","SATNPRO1963","26.29","0.36822","5"],
    [43898,"HCEP03730564","2024-12-28 13:45:00","11.0949","3.44032","27.632","4","7.31","2.519","1149.16","0","2.52","30.3182","4.76566","44.07","0","SATNPRO1963","26.438","0.37034","5"],
    [43899,"HCEP03730564","2024-12-28 14:00:00","11.0957","3.44055","27.693","4.005714285714285","7.31","2.52","1142.343","0","0","30.3198","4.76588","44.13","0","SATNPRO1963","26.244","0.3676","5"],
    [43900,"HCEP03730564","2024-12-28 14:15:00","11.0987","3.44176","27.698","3.984285714285714","7.3","2.404","1274.497","0","2.17","30.3291","4.76715","43.9","0","SATNPRO1963","26.346","0.36904","5"],
    [43901,"HCEP03730564","2024-12-28 14:30:00","11.1002","3.44232","27.663","3.998571428571429","7.3","2.536","1162.135","0","3.41","30.3334","4.76773","44.07","0","SATNPRO1963","26.348","0.36904","5"],
    [43902,"HCEP03730564","2024-12-28 14:45:00","11.1038","3.4435","27.618","4.048571428571429","7.31","2.539","1153.891","0","0.66","30.3421","4.7689","44.61","0","SATNPRO1963","26.586","0.37236","5"],
    [43903,"HCEP03730564","2024-12-28 15:00:00","11.106","3.444","27.55","4.127142857142857","7.31","2.446","1247.184","0","1.72","30.3451","4.7693","45.49","0","SATNPRO1963","26.602","0.37262","5"],
    [43904,"HCEP03730564","2024-12-28 15:15:00","11.1101","3.44575","27.451","4.242857142857143","7.31","2.529","1164.054","0","2.1","30.3588","4.77117","46.76","0","SATNPRO1963","26.662","0.37346","5"],
    [43905,"HCEP03730564","2024-12-28 15:30:00","11.1053","3.44381","27.36","4.267142857142858","7.32","2.533","1156.069","0","0.77","30.3438","4.76911","47.02","0","SATNPRO1963","26.752","0.37468","5"],
    [43906,"HCEP03730564","2024-12-28 15:45:00","11.1017","3.44293","27.274","4.267142857142858","7.32","2.441","1260.224","0","1.99","30.3382","4.76837","47.02","0","SATNPRO1963","26.894","0.37672","5"],
    [43907,"HCEP03730564","2024-12-28 16:00:00","11.1006","3.44275","27.175","4.281428571428571","7.32","2.533","1164.901","0","2.2","30.3374","4.76827","47.17","0","SATNPRO1963","26.896","0.37676","5"],
    [43908,"HCEP03730564","2024-12-28 16:15:00","11.0986","3.44208","27.009","4.3","7.32","2.535","1155.647","0","0.66","30.3327","4.76761","47.37","0","SATNPRO1963","26.93","0.37716","5"],
    [43909,"HCEP03730564","2024-12-28 16:30:00","11.0975","3.44127","26.866","4.307142857142858","7.32","2.422","1228.023","0","2.1","30.3257","4.76664","47.46","0","SATNPRO1963","26.794","0.37528","5"],
    [43910,"HCEP03730564","2024-12-28 16:45:00","11.0959","3.44038","26.718","4.297142857142857","7.32","2.52","1100.297","0","2.3","30.3183","4.76561","47.33","0","SATNPRO1963","26.63","0.37302","5"],
    [43911,"HCEP03730564","2024-12-28 17:00:00","11.089","3.43731","26.552","4.192857142857143","7.33","2.523","1094.601","0","0.38","30.2941","4.76226","46.17","0","SATNPRO1963","26.636","0.37306","5"],
    [43912,"HCEP03730564","2024-12-28 17:15:00","11.0842","3.43544","26.388","4.078571428571428","7.31","2.373","1195.211","0","3.02","30.2798","4.76031","44.92","0","SATNPRO1963","26.64","0.37316","5"],
    [43913,"HCEP03730564","2024-12-28 17:30:00","11.0765","3.4325","26.284","4.027142857142858","7.31","2.503","1103.262","0.01","2.6","30.2574","4.75724","44.33","0","SATNPRO1963","26.632","0.37304","5"],
    [43914,"HCEP03730564","2024-12-28 17:45:00","11.069","3.42969","26.192","3.981428571428571","7.31","2.504","1096.014","0","0.38","30.2362","4.75434","43.82","0","SATNPRO1963","26.552","0.3719","5"],
    [43915,"HCEP03730564","2024-12-28 18:00:00","11.0618","3.42725","26.04","3.944285714285714","7.3","2.371","1203.296","0","1.72","30.2183","4.75191","43.4","0","SATNPRO1963","26.696","0.3739","5"],
    [43916,"HCEP03730564","2024-12-28 18:15:00","11.0593","3.42625","25.813","3.911428571428572","7.29","2.473","1084.004","0.01","1.9","30.2107","4.75085","43.03","0","SATNPRO1963","26.316","0.3686","5"],
    [43917,"HCEP03730564","2024-12-28 18:30:00","11.0571","3.4254","25.602","3.888571428571429","7.3","2.473","1077.707","0","0.61","30.2042","4.74997","42.78","0","SATNPRO1963","26.518","0.37144","5"],
    [43918,"HCEP03730564","2024-12-28 18:45:00","11.0561","3.42519","25.435","3.877142857142857","7.29","2.35","1200.404","0","1.72","30.203","4.7498","42.65","0","SATNPRO1963","26.61","0.3727","5"],
    [43919,"HCEP03730564","2024-12-28 19:00:00","11.0554","3.42492","25.263","3.871428571428571","7.29","2.49","1074.065","0.01","2.19","30.2011","4.74952","42.58","0","SATNPRO1963","26.438","0.37032","5"],
    [43920,"HCEP03730564","2024-12-28 19:15:00","11.0548","3.42465","25.105","3.864285714285714","7.3","2.491","1068.411","0","0","30.199","4.74923","42.51","0","SATNPRO1963","26.424","0.3701","5"],
    [43921,"HCEP03730564","2024-12-28 19:30:00","11.0528","3.42396","24.937","3.854285714285714","7.29","2.38","1206.585","0","1.58","30.1939","4.74853","42.39","0","SATNPRO1963","26.614","0.37276","5"],
    [43922,"HCEP03730564","2024-12-28 19:45:00","11.0515","3.42347","24.788","3.847142857142857","7.29","2.497","1078.183","0.01","2.12","30.1903","4.74803","42.3","0","SATNPRO1963","26.922","0.37712","5"],
    [43923,"HCEP03730564","2024-12-28 20:00:00","11.0503","3.42306","24.648","3.835714285714286","7.29","2.499","1071.87","0","0.47","30.1874","4.74762","42.18","0","SATNPRO1963","26.862000000000002","0.37628","5"],
    [43924,"HCEP03730564","2024-12-28 20:15:00","11.0481","3.42221","24.533","3.824285714285714","7.29","2.392","1207.856","0","1.38","30.1809","4.74673","42.05","0","SATNPRO1963","26.87","0.37632","5"],
    [43925,"HCEP03730564","2024-12-28 20:30:00","11.048","3.42216","24.438","3.82","7.29","2.512","1088.248","0","2.41","30.1805","4.74667","42","0","SATNPRO1963","26.422","0.37008","5"],
    [43926,"HCEP03730564","2024-12-28 20:45:00","11.0501","3.42285","24.374","3.817142857142858","7.29","2.511","1080.72","0","0","30.1856","4.74736","41.97","0","SATNPRO1963","26.64","0.37314","5"],
    [43927,"HCEP03730564","2024-12-28 21:00:00","11.0508","3.42314","24.341","3.812857142857143","7.29","2.404","1201.363","0","1.53","30.1878","4.74765","41.94","0","SATNPRO1963","26.532","0.3716","5"],
    [43928,"HCEP03730564","2024-12-28 21:15:00","11.0513","3.42341","24.327","3.82","7.28","2.516","1110.829","0.01","1.99","30.19","4.74796","42","0","SATNPRO1963","26.52","0.37148","5"],
    [43929,"HCEP03730564","2024-12-28 21:30:00","11.0513","3.42405","24.312","3.838571428571428","7.29","2.517","1103.354","0","0.77","30.1963","4.74886","42.21","0","SATNPRO1963","26.216","0.36718","5"],
    [43930,"HCEP03730564","2024-12-28 21:45:00","11.0488","3.42357","24.326","3.881428571428572","7.29","2.406","1214.479","0","1.67","30.1937","4.74852","42.69","0","SATNPRO1963","26.662","0.37344","5"],
    [43931,"HCEP03730564","2024-12-28 22:00:00","11.0475","3.42345","24.361","3.917142857142857","7.29","2.518","1132.728","0","2.2","30.1935","4.74852","43.08","0","SATNPRO1963","26.586","0.37238","5"],
    [43932,"HCEP03730564","2024-12-28 22:15:00","11.049","3.42408","24.408","3.944285714285714","7.3","2.519","1125.693","0","0.66","30.1984","4.7492","43.38","0","SATNPRO1963","26.726","0.37436","5"],
    [43933,"HCEP03730564","2024-12-28 22:30:00","11.0491","3.42429","24.499","3.948571428571428","7.29","2.387","1221.818","0","1.49","30.2004","4.74947","43.42","0","SATNPRO1963","26.59","0.37242","5"],
    [43934,"HCEP03730564","2024-12-28 22:45:00","11.0451","3.42327","24.619","3.951428571428572","7.29","2.504","1081.625","0.01","1.72","30.1936","4.74859","43.45","0","SATNPRO1963","26.322","0.36866","5"],
    [43935,"HCEP03730564","2024-12-28 23:00:00","11.0177","3.41643","24.725","3.955714285714286","7.3","2.507","1074.192","0","0","30.1492","4.74272","43.46","0","SATNPRO1963","26.28","0.3681","5"],
    [43936,"HCEP03730564","2024-12-28 23:15:00","11.0386","3.42138","24.969","3.942857142857143","7.29","2.371","1217.228","0","1.67","30.1804","4.74683","43.34","0","SATNPRO1963","26.146","0.3662","5"],
    [43937,"HCEP03730564","2024-12-28 23:30:00","11.0259","3.41681","25.129","3.91","7.29","2.503","1123.822","0","2.63","30.146","4.74216","42.97","0","SATNPRO1963","26.366","0.36928","5"],
    [43938,"HCEP03730564","2024-12-28 23:45:00","11.0401","3.42182","25.325","3.907142857142857","7.3","2.504","1116.121","0","0.54","30.1833","4.74724","42.96","0","SATNPRO1963","26.364","0.36924","5"],
    [43939,"HCEP03730564","2024-12-29 00:00:00","11.043","3.42254","25.523","3.901428571428571","7.29","2.377","1209.571","0","1.33","30.1879","4.74786","42.9","0","SATNPRO1963","26.242","0.36754","5"],
    [43940,"HCEP03730564","2024-12-29 00:15:00","11.0454","3.42311","25.701","3.898571428571429","7.29","2.511","1109.205","0","1.88","30.1914","4.74833","42.87","0","SATNPRO1963","26.208","0.36706","5"],
    [43941,"HCEP03730564","2024-12-29 00:30:00","11.0467","3.42332","25.958","3.884285714285714","7.3","2.511","1101.549","0","0.38","30.1923","4.74846","42.71","0","SATNPRO1963","26.256","0.36776","5"],
    [43942,"HCEP03730564","2024-12-29 00:45:00","11.045","3.42259","26.147","3.87","7.3","2.39","1223.88","0.01","2.2","30.1865","4.74766","42.56","0","SATNPRO1963","26.504","0.37124","5"],
    [43943,"HCEP03730564","2024-12-29 01:00:00","11.0426","3.42189","26.449","3.868571428571429","7.29","2.517","1127.272","0","2.2","30.1814","4.747","42.53","0","SATNPRO1963","26.482","0.37092","5"],
    [43944,"HCEP03730564","2024-12-29 01:15:00","11.044","3.42276","26.698","3.874285714285715","7.3","2.519","1119.405","0","0","30.1887","4.74802","42.6","0","SATNPRO1963","26.46","0.37064","5"],
    [43945,"HCEP03730564","2024-12-29 01:30:00","11.045","3.42293","26.958","3.885714285714286","7.3","2.434","1213.093","0","1.27","30.1895","4.74814","42.72","0","SATNPRO1963","26.27","0.36798","5"],
    [43946,"HCEP03730564","2024-12-29 01:45:00","11.0487","3.4243","27.103","3.882857142857143","7.29","2.523","1148.176","0.01","1.92","30.1998","4.74955","42.69","0","SATNPRO1963","26.458","0.37062","5"],
    [43947,"HCEP03730564","2024-12-29 02:00:00","11.05","3.42473","27.269","3.887142857142858","7.3","2.523","1141.028","0","0","30.2028","4.74997","42.75","0","SATNPRO1963","26.336000000000002","0.36886","5"],
    [43948,"HCEP03730564","2024-12-29 02:15:00","11.0472","3.4232","27.428","3.878571428571429","7.29","2.404","1233.996","0.01","1.67","30.1901","4.74822","42.66","0","SATNPRO1963","26.332","0.3688","5"],
    [43949,"HCEP03730564","2024-12-29 02:30:00","11.0509","3.4243","27.554","3.858571428571428","7.29","2.499","1152.678","0.01","2.2","30.1978","4.74926","42.44","0","SATNPRO1963","26.624","0.3729","5"],
    [43950,"HCEP03730564","2024-12-29 02:45:00","11.0598","3.42778","27.723","3.871428571428571","7.29","2.499","1144.676","0","0.94","30.2244","4.75291","42.6","0","SATNPRO1963","26.26","0.36784","5"],
    [43951,"HCEP03730564","2024-12-29 03:00:00","11.0637","3.42926","27.814","3.931428571428571","7.29","2.412","1253.6","0","1.67","30.2357","4.75445","43.26","0","SATNPRO1963","26.746","0.37462","5"],
    [43952,"HCEP03730564","2024-12-29 03:15:00","11.0605","3.428","27.892","3.961428571428572","7.29","2.502","1143.683","0.01","2.1","30.2261","4.75314","43.59","0","SATNPRO1963","26.43","0.37022","5"],
    [43953,"HCEP03730564","2024-12-29 03:30:00","11.0593","3.42756","27.946","3.941428571428571","7.3","2.503","1136.11","0","0","30.2227","4.75267","43.36","0","SATNPRO1963","26.322","0.36872","5"],
    [43954,"HCEP03730564","2024-12-29 03:45:00","11.0605","3.42797","27.972","3.934285714285714","7.3","2.388","1234.208","0","1.84","30.2257","4.75309","43.29","0","SATNPRO1963","26.462","0.37066","5"],
    [43955,"HCEP03730564","2024-12-29 04:00:00","11.0629","3.42896","27.96","3.938571428571429","7.29","2.51","1115.473","0","1.99","30.2334","4.75414","43.34","0","SATNPRO1963","26.442","0.37038","5"],
    [43956,"HCEP03730564","2024-12-29 04:15:00","11.065","3.42959","27.924","3.935714285714286","7.3","2.512","1108.686","0","0.66","30.2378","4.75474","43.31","0","SATNPRO1963","26.504","0.37118","5"],
    [43957,"HCEP03730564","2024-12-29 04:30:00","11.0665","3.43009","27.959","3.915714285714286","7.29","2.391","1211.14","0","1.21","30.2414","4.75522","43.1","0","SATNPRO1963","26.588","0.37242","5"],
    [43958,"HCEP03730564","2024-12-29 04:45:00","11.0685","3.43062","27.98","3.915714285714286","7.29","2.512","1103.062","0","2.4","30.245","4.75571","43.08","0","SATNPRO1963","26.564","0.37208","5"],
    [43959,"HCEP03730564","2024-12-29 05:00:00","11.0689","3.43093","27.997","3.921428571428572","7.3","2.514","1095.184","0","0","30.2477","4.75608","43.16","0","SATNPRO1963","26.71","0.3741","5"],
    [43960,"HCEP03730564","2024-12-29 05:15:00","11.0675","3.43043","28.017","3.928571428571429","7.3","2.38","1203.174","0","2.9","30.244","4.75558","43.23","0","SATNPRO1963","26.71","0.3741","5"],
    [43961,"HCEP03730564","2024-12-29 05:30:00","11.0704","3.43137","28.075","3.937142857142857","7.29","2.489","1078.646","0.01","2.07","30.2507","4.75649","43.34","0","SATNPRO1963","26.712","0.37416","5"],
    [43962,"HCEP03730564","2024-12-29 05:45:00","11.0716","3.4318","28.094","3.941428571428571","7.3","2.49","1072.563","0","0.66","30.2539","4.75693","43.38","0","SATNPRO1963","26.688","0.37382","5"],
    [43963,"HCEP03730564","2024-12-29 06:00:00","11.0728","3.43222","28.086","3.942857142857143","7.29","2.372","1191.472","0","2.24","30.257","4.75735","43.39","0","SATNPRO1963","26.49","0.37106","5"],
    [43964,"HCEP03730564","2024-12-29 06:15:00","11.0743","3.4327","28.086","3.952857142857143","7.29","2.497","1083.621","0","2.07","30.2605","4.75782","43.52","0","SATNPRO1963","26.62","0.37286","5"],
    [43965,"HCEP03730564","2024-12-29 06:30:00","11.0755","3.43324","28.06","3.964285714285714","7.3","2.498","1077.603","0","0.54","30.2649","4.75842","43.64","0","SATNPRO1963","26.73","0.37436","5"],
    [43966,"HCEP03730564","2024-12-29 06:45:00","11.0772","3.43384","28.007","3.951428571428572","7.3","2.384","1193.432","0","1.72","30.2693","4.75902","43.5","0","SATNPRO1963","26.422","0.37008","5"],
    [43967,"HCEP03730564","2024-12-29 07:00:00","11.0797","3.4348","27.95","3.941428571428571","7.29","2.503","1078.044","0.01","2.12","30.2767","4.76002","43.39","0","SATNPRO1963","26.602","0.3726","5"],
    [43968,"HCEP03730564","2024-12-29 07:15:00","11.0809","3.43531","27.894","3.942857142857143","7.3","2.504","1071.039","0","0.61","30.2806","4.76056","43.41","0","SATNPRO1963","26.498","0.37116","5"],
    [43969,"HCEP03730564","2024-12-29 07:30:00","11.0824","3.43583","27.84","3.938571428571429","7.3","2.382","1193.469","0","1.96","30.2845","4.76108","43.36","0","SATNPRO1963","26.398","0.36972","5"],
    [43970,"HCEP03730564","2024-12-29 07:45:00","11.084","3.43645","27.786","3.942857142857143","7.3","2.483","1088.097","0.01","2.12","30.2894","4.76174","43.41","0","SATNPRO1963","26.77","0.37494","5"],
    [43971,"HCEP03730564","2024-12-29 08:00:00","11.0856","3.43694","27.738","3.942857142857143","7.3","2.484","1080.697","0","0","30.2928","4.7622","43.42","0","SATNPRO1963","26.69","0.37382","5"],
    [43972,"HCEP03730564","2024-12-29 08:15:00","11.0877","3.43775","27.67","3.937142857142857","7.3","2.384","1178.705","0.01","2.92","30.299","4.76305","43.35","0","SATNPRO1963","26.508","0.37128","5"],
    [43973,"HCEP03730564","2024-12-29 08:30:00","11.0888","3.43825","27.613","3.941428571428571","7.3","2.493","1069.081","0.01","2.32","30.303","4.7636","43.41","0","SATNPRO1963","26.512","0.37136","5"],
    [43974,"HCEP03730564","2024-12-29 08:45:00","11.0894","3.43863","27.561","3.955714285714286","7.31","2.493","1062.843","0","0.77","30.3063","4.76405","43.56","0","SATNPRO1963","26.728","0.3744","5"],
    [43975,"HCEP03730564","2024-12-29 09:00:00","11.089","3.43892","27.517","3.981428571428571","7.3","2.346","1189.038","0","2.49","30.3094","4.7645","43.85","0","SATNPRO1963","26.908","0.37692","5"],
    [43976,"HCEP03730564","2024-12-29 09:15:00","11.0961","3.44277","27.479","4.068571428571428","7.3","2.489","1047.467","0","2.12","30.3412","4.76889","44.82","0","SATNPRO1963","26.786","0.3752","5"],
    [43977,"HCEP03730564","2024-12-29 09:30:00","11.0985","3.44397","27.441","4.140000000000001","7.31","2.49","1039.302","0","0.54","30.351","4.77024","45.63","0","SATNPRO1963","27.354","0.38316","5"],
    [43978,"HCEP03730564","2024-12-29 09:45:00","11.0997","3.44444","27.411","4.16","7.31","2.352","1194.389","0","2.36","30.3546","4.77073","45.84","0","SATNPRO1963","26.948","0.37744","5"],
    [43979,"HCEP03730564","2024-12-29 10:00:00","11.1011","3.44506","27.383","4.157142857142858","7.31","2.484","1054.957","0","1.8","30.3595","4.77141","45.81","0","SATNPRO1963","26.868000000000002","0.37634","5"],
    [43980,"HCEP03730564","2024-12-29 10:15:00","11.102","3.44554","27.37","4.162857142857143","7.32","2.485","1048.196","0","0","30.3635","4.77195","45.88","0","SATNPRO1963","26.84","0.37598","5"],
    [43981,"HCEP03730564","2024-12-29 10:30:00","11.1027","3.44579","27.377","4.162857142857143","7.31","2.347","1179.458","0","1.67","30.3654","4.7722","45.88","0","NA",null,null,null],
    [43982,"HCEP03730564","2024-12-29 10:45:00","11.1033","3.44607","27.375","4.148571428571429","7.31","2.464","1062.281","0.01","1.99","30.3677","4.77252","45.73","0","SATNPRO1963","26.684","0.37376","5"],
    [43983,"HCEP03730564","2024-12-29 11:00:00","11.1036","3.44639","27.4","4.155714285714286","7.32","2.466","1055.071","0","0.38","30.3705","4.77291","45.8","0","SATNPRO1963","26.490000000000002","0.37104","5"],
    [43984,"HCEP03730564","2024-12-29 11:15:00","11.1037","3.44653","27.427","4.155714285714286","7.31","2.318","1179.142","0","2.46","30.3717","4.77309","45.8","0","SATNPRO1963","27.022","0.37848","5"],
    [43985,"HCEP03730564","2024-12-29 11:30:00","11.1037","3.447","27.442","4.161428571428571","7.32","2.479","1029.752","0.01","1.92","30.3763","4.77375","45.87","0","SATNPRO1963","26.686","0.3738","5"],
    [43986,"HCEP03730564","2024-12-29 11:45:00","11.1038","3.44724","27.476","4.208571428571429","7.32","2.48","1022.732","0","0.81","30.3785","4.77406","46.39","0","SATNPRO1963","26.778","0.37506","5"],
    [43987,"HCEP03730564","2024-12-29 12:00:00","11.1046","3.44742","27.518","4.201428571428571","7.32","2.336","1162.641","0","1.96","30.3797","4.77422","46.31","0","SATNPRO1963","27.212","0.38114","5"],
    [43988,"HCEP03730564","2024-12-29 12:15:00","11.105","3.44772","27.546","4.204285714285715","7.32","2.478","1034.544","0","1.88","30.3823","4.77458","46.35","0","SATNPRO1963","26.948","0.37746","5"],
    [43989,"HCEP03730564","2024-12-29 12:30:00","11.1047","3.44794","27.577","4.224285714285714","7.33","2.48","1029.085","0","0.54","30.3846","4.77491","46.56","0","SATNPRO1963","26.776","0.37504","5"],
    [43990,"HCEP03730564","2024-12-29 12:45:00","11.1045","3.44799","27.635","4.241428571428571","7.32","2.339","1161.977","0","1.8","30.3853","4.77501","46.76","0","SATNPRO1963","26.722","0.37432","5"],
    [43991,"HCEP03730564","2024-12-29 13:00:00","11.1045","3.44776","27.689","4.225714285714286","7.33","2.496","1050.832","0.01","1.94","30.383","4.7747","46.58","0","SATNPRO1963","26.672","0.37358","5"],
    [43992,"HCEP03730564","2024-12-29 13:15:00","11.1042","3.44773","27.718","4.214285714285714","7.33","2.498","1044.904","0","0.77","30.3829","4.77469","46.46","0","SATNPRO1963","26.736","0.37452","5"],
    [43993,"HCEP03730564","2024-12-29 13:30:00","11.1043","3.44777","27.709","4.198571428571428","7.33","2.354","1177.427","0","1.58","30.3833","4.77474","46.28","0","SATNPRO1963","26.701999999999998","0.37398","5"],
    [43994,"HCEP03730564","2024-12-29 13:45:00","11.104","3.44786","27.727","4.21","7.33","2.49","1049.474","0.01","1.88","30.3844","4.77491","46.41","0","SATNPRO1963","26.77","0.37498","5"],
    [43995,"HCEP03730564","2024-12-29 14:00:00","11.1036","3.44786","27.773","4.24","7.33","2.492","1042.959","0","0.54","30.3846","4.77494","46.75","0","SATNPRO1963","26.954","0.37756","5"],
    [43996,"HCEP03730564","2024-12-29 14:15:00","11.1033","3.44737","27.802","4.232857142857143","7.33","2.385","1177.317","0","1.67","30.3801","4.7743","46.66","0","SATNPRO1963","26.572","0.3722","5"],
    [43997,"HCEP03730564","2024-12-29 14:30:00","11.1033","3.44655","27.819","4.177142857142857","7.33","2.496","1029.436","0","1.74","30.3721","4.77318","46.04","0","SATNPRO1963","26.637999999999998","0.37308","5"],
    [43998,"HCEP03730564","2024-12-29 14:45:00","11.1021","3.44578","27.824","4.132857142857143","7.33","2.496","1022.878","0","0.86","30.3655","4.77226","45.55","0","SATNPRO1963","26.456","0.37058","5"],
    [43999,"HCEP03730564","2024-12-29 15:00:00","11.1012","3.44537","27.849","4.115714285714286","7.33","2.358","1175.275","0","2.1","30.3623","4.77182","45.37","0","SATNPRO1963","26.714","0.37418","5"],
    [44000,"HCEP03730564","2024-12-29 15:15:00","11.0997","3.44486","27.858","4.104285714285715","7.32","2.498","1052.545","0","1.82","30.3586","4.77132","45.23","0","SATNPRO1963","26.728","0.3744","5"],
    [44001,"HCEP03730564","2024-12-29 15:30:00","11.0981","3.44429","27.846","4.1","7.33","2.499","1045.621","0","0.61","30.3543","4.77074","45.18","0","SATNPRO1963","26.566","0.37214","5"],
    [44002,"HCEP03730564","2024-12-29 15:45:00","11.0958","3.44357","27.795","4.101428571428571","7.33","2.366","1173.744","0","1.53","30.3491","4.77004","45.2","0","SATNPRO1963","26.762","0.37482","5"],
    [44003,"HCEP03730564","2024-12-29 16:00:00","11.0935","3.44305","27.694","4.117142857142857","7.33","2.497","1046.431","0.01","2.12","30.3461","4.76963","45.37","0","SATNPRO1963","26.672","0.3736","5"],
    [44004,"HCEP03730564","2024-12-29 16:15:00","11.0891","3.44186","27.615","4.131428571428572","7.34","2.499","1040.403","0","0.47","30.338","4.76856","45.51","0","SATNPRO1963","26.65","0.37324","5"],
    [44005,"HCEP03730564","2024-12-29 16:30:00","11.0855","3.44056","27.609","4.152857142857143","7.33","2.387","1163.969","0","1.76","30.3283","4.76723","45.75","0","SATNPRO1963","26.394","0.36972","5"],
    [44006,"HCEP03730564","2024-12-29 16:45:00","11.0795","3.43827","27.516","4.175714285714286","7.33","2.49","1042.687","0","1.65","30.3109","4.76485","45.99","0","SATNPRO1963","26.77","0.37494","5"],
    [44007,"HCEP03730564","2024-12-29 17:00:00","11.0732","3.43547","27.401","4.180000000000001","7.34","2.493","1036.355","0","0","30.2888","4.7618","46.02","0","SATNPRO1963","26.919999999999998","0.37708","5"],
    [44008,"HCEP03730564","2024-12-29 17:15:00","11.0697","3.43387","27.289","4.182857142857143","7.33","2.373","1172.652","0","1.58","30.2761","4.76005","46.04","0","SATNPRO1963","26.884","0.37654","5"],
    [44009,"HCEP03730564","2024-12-29 17:30:00","11.0693","3.43367","27.165","4.177142857142857","7.32","2.477","1060.777","0","2.03","30.2745","4.75982","45.97","0","SATNPRO1963","26.994","0.37814","5"],
    [44010,"HCEP03730564","2024-12-29 17:45:00","11.0688","3.43333","27.011","4.165714285714286","7.33","2.479","1053.069","0","0","30.2716","4.75942","45.86","0","SATNPRO1963","26.818","0.37566","5"],
    [44011,"HCEP03730564","2024-12-29 18:00:00","11.0673","3.4324","26.879","4.152857142857143","7.33","2.387","1181.615","0.01","1.72","30.2638","4.75832","45.7","0","SATNPRO1963","26.798","0.37534","5"],
    [44012,"HCEP03730564","2024-12-29 18:15:00","11.0664","3.43197","26.674","4.134285714285714","7.32","2.492","1108.005","0.01","2.03","30.2604","4.75785","45.5","0","SATNPRO1963","26.966","0.3777","5"],
    [44013,"HCEP03730564","2024-12-29 18:30:00","11.0662","3.4319","26.461","4.121428571428571","7.33","2.495","1102.334","0","0.66","30.26","4.75777","45.35","0","SATNPRO1963","26.704","0.37406","5"],
    [44014,"HCEP03730564","2024-12-29 18:45:00","11.0663","3.43262","26.225","4.124285714285715","7.32","2.394","1180.652","0","1.53","30.267","4.75876","45.4","0","SATNPRO1963","26.936","0.37726","5"],
    [44015,"HCEP03730564","2024-12-29 19:00:00","11.0654","3.43242","25.982","4.138571428571429","7.32","2.496","1085.771","0.01","2.29","30.2659","4.7586","45.55","0","SATNPRO1963","26.792","0.3753","5"],
    [44016,"HCEP03730564","2024-12-29 19:15:00","11.0637","3.43186","25.745","4.140000000000001","7.33","2.497","1078.981","0","0","30.2619","4.75805","45.56","0","SATNPRO1963","26.866","0.37632","5"],
    [44017,"HCEP03730564","2024-12-29 19:30:00","11.0624","3.43129","25.504","4.141428571428572","7.32","2.383","1179.629","0","1.8","30.2576","4.75745","45.58","0","SATNPRO1963","26.748","0.37466","5"],
    [44018,"HCEP03730564","2024-12-29 19:45:00","11.0609","3.43066","25.27","4.140000000000001","7.32","2.489","1097.991","0.01","1.92","30.2527","4.75675","45.55","0","SATNPRO1963","26.848","0.37606","5"],
    [44019,"HCEP03730564","2024-12-29 20:00:00","11.0598","3.43025","25.047","4.134285714285714","7.33","2.49","1091.159","0","0","30.2497","4.75634","45.48","0","SATNPRO1963","26.8","0.37536","5"],
    [44020,"HCEP03730564","2024-12-29 20:15:00","11.0595","3.43003","24.834","4.135714285714286","7.32","2.384","1195.32","0","1.27","30.2478","4.75607","45.51","0","SATNPRO1963","27.056","0.37896","5"],
    [44021,"HCEP03730564","2024-12-29 20:30:00","11.059","3.42986","24.655","4.135714285714286","7.32","2.497","1082.31","0","1.94","30.2466","4.75589","45.51","0","SATNPRO1963","26.898","0.37674","5"],
    [44022,"HCEP03730564","2024-12-29 20:45:00","11.0591","3.42979","24.496","4.127142857142857","7.32","2.498","1075.082","0","0","30.2459","4.75578","45.41","0","SATNPRO1963","26.946","0.37742","5"],
    [44023,"HCEP03730564","2024-12-29 21:00:00","11.059","3.42976","24.363","4.114285714285714","7.32","2.379","1181.615","0","1.49","30.2458","4.75576","45.26","0","SATNPRO1963","26.872","0.37638","5"],
    [44024,"HCEP03730564","2024-12-29 21:15:00","11.0587","3.42961","24.265","4.104285714285715","7.31","2.495","1086.224","0.01","2.01","30.2446","4.75559","45.16","0","SATNPRO1963","27.044","0.37882","5"],
    [44025,"HCEP03730564","2024-12-29 21:30:00","11.0588","3.42955","24.178","4.095714285714286","7.32","2.494","1079.41","0","0","30.2441","4.75551","45.06","0","NA",null,null,null],
    [44026,"HCEP03730564","2024-12-29 21:45:00","11.0584","3.42948","24.1","4.085714285714285","7.32","2.379","1180.542","0","1.58","30.2436","4.75544","44.96","0","SATNPRO1963","26.864","0.37628","5"],
    [44027,"HCEP03730564","2024-12-29 22:00:00","11.0583","3.42935","24.058","4.085714285714285","7.31","2.488","1064.648","0","1.82","30.2425","4.75529","44.95","0","SATNPRO1963","26.836","0.37588","5"],
    [44028,"HCEP03730564","2024-12-29 22:15:00","11.0578","3.42922","24.022","4.084285714285714","7.32","2.489","1057.44","0","0.27","30.2417","4.75517","44.94","0","SATNPRO1963","26.71","0.3741","5"],
    [44029,"HCEP03730564","2024-12-29 22:30:00","11.0577","3.42916","24.024","4.072857142857143","7.32","2.364","1163.727","0","1.33","30.2411","4.7551","44.81","0","SATNPRO1963","26.802","0.37542","5"],
    [44030,"HCEP03730564","2024-12-29 22:45:00","11.0574","3.42907","24.068","4.081428571428572","7.31","2.491","1064.89","0.01","1.67","30.2405","4.75501","44.9","0","SATNPRO1963","26.776","0.37504","5"],
    [44031,"HCEP03730564","2024-12-29 23:00:00","11.0578","3.42901","24.127","4.077142857142857","7.32","2.492","1057.486","0","0.27","30.2395","4.75487","44.85","0","SATNPRO1963","26.568","0.37212","5"],
    [44032,"HCEP03730564","2024-12-29 23:15:00","11.058","3.42884","24.242","4.048571428571429","7.31","2.367","1146.785","0","2.74","30.2377","4.75462","44.53","0","SATNPRO1963","26.732","0.37444","5"],
    [44033,"HCEP03730564","2024-12-29 23:30:00","11.0569","3.42853","24.268","4.032857142857143","7.31","2.482","1039.009","0.01","2.62","30.2355","4.75433","44.36","0","SATNPRO1963","26.887999999999998","0.37664","5"],
    [44034,"HCEP03730564","2024-12-29 23:45:00","11.0567","3.42836","24.664","4.011428571428572","7.32","2.482","1031.829","0","0","30.2339","4.75412","44.14","0","SATNPRO1963","26.746","0.37462","5"],
    [44035,"HCEP03730564","2024-12-30 00:00:00","11.0547","3.42762","24.801","4.001428571428572","7.31","2.367","1163.487","0","2.82","30.2282","4.75336","44.03","0","SATNPRO1963","26.618","0.3728","5"],
    [44036,"HCEP03730564","2024-12-30 00:15:00","11.0514","3.42639","24.926","3.991428571428572","7.31","2.478","1079.91","0.01","2.59","30.2189","4.75209","43.9","0","SATNPRO1963","26.864","0.37628","5"],
    [44037,"HCEP03730564","2024-12-30 00:30:00","11.0492","3.42567","25.101","3.991428571428572","7.32","2.478","1072.574","0","0.66","30.2136","4.75138","43.91","0","SATNPRO1963","26.69","0.37384","5"],
    [44038,"HCEP03730564","2024-12-30 00:45:00","11.0429","3.42358","25.366","3.994285714285714","7.31","2.367","1181.273","0","1.58","30.1982","4.74932","43.92","0","SATNPRO1963","26.945999999999998","0.37746","5"],
    [44039,"HCEP03730564","2024-12-30 01:00:00","11.0396","3.42233","25.605","3.985714285714286","7.31","2.477","1137.208","0","1.84","30.1885","4.748","43.82","0","SATNPRO1963","26.63","0.37298","5"],
    [44040,"HCEP03730564","2024-12-30 01:15:00","11.038","3.42177","25.837","3.968571428571429","7.32","2.479","1130.372","0","0.86","30.1844","4.74745","43.63","0","SATNPRO1963","26.74","0.37456","5"],
    [44041,"HCEP03730564","2024-12-30 01:30:00","11.0391","3.42203","26.079","3.947142857142857","7.31","2.395","1193.899","0","2.54","30.1859","4.74767","43.39","0","SATNPRO1963","26.848","0.37604","5"],
    [44042,"HCEP03730564","2024-12-30 01:45:00","11.0427","3.4234","26.353","3.942857142857143","7.31","2.49","1094.754","0.01","2.24","30.1962","4.74908","43.36","0","SATNPRO1963","26.708000000000002","0.37408","5"],
    [44043,"HCEP03730564","2024-12-30 02:00:00","11.0456","3.42435","26.611","3.957142857142857","7.31","2.491","1087.851","0","0","30.203","4.75002","43.52","0","SATNPRO1963","26.664","0.37348","5"],
    [44044,"HCEP03730564","2024-12-30 02:15:00","11.0468","3.42481","26.922","3.958571428571429","7.31","2.393","1195.848","0","1.53","30.2064","4.7505","43.54","0","SATNPRO1963","26.878","0.37646","5"],
    [44045,"HCEP03730564","2024-12-30 02:30:00","11.0479","3.4252","27.223","3.964285714285714","7.31","2.493","1107.585","0.01","3.97","30.2092","4.7509","43.6","0","SATNPRO1963","26.832","0.37582","5"],
    [44046,"HCEP03730564","2024-12-30 02:45:00","11.0491","3.42558","27.413","3.964285714285714","7.31","2.492","1099.664","0","0","30.2119","4.75127","43.6","0","SATNPRO1963","26.900000000000002","0.37676","5"],
    [44047,"HCEP03730564","2024-12-30 03:00:00","11.0498","3.42583","27.541","3.957142857142857","7.31","2.395","1209.497","0","1.88","30.2137","4.75153","43.52","0","SATNPRO1963","26.802","0.37538","5"],
    [44048,"HCEP03730564","2024-12-30 03:15:00","11.05","3.42595","27.704","3.962857142857143","7.3","2.49","1085.899","0.01","2.38","30.2146","4.75166","43.58","0","SATNPRO1963","26.898","0.37678","5"],
    [44049,"HCEP03730564","2024-12-30 03:30:00","11.0506","3.42616","27.882","3.965714285714285","7.31","2.491","1079.132","0","0","30.2161","4.75188","43.62","0","SATNPRO1963","26.9","0.3768","5"],
    [44050,"HCEP03730564","2024-12-30 03:45:00","11.0528","3.42697","28.071","3.967142857142858","7.31","2.393","1181.421","0","3.09","30.2222","4.75271","43.63","0","SATNPRO1963","26.907999999999998","0.37688","5"],
    [44051,"HCEP03730564","2024-12-30 04:00:00","11.0564","3.42838","28.207","3.965714285714285","7.3","2.492","1097.605","0.01","2.54","30.233","4.7542","43.62","0","SATNPRO1963","26.84","0.37594","5"],
    [44052,"HCEP03730564","2024-12-30 04:15:00","11.0692","3.43328","28.249","3.968571428571429","7.31","2.492","1089.493","0","0","30.2704","4.75931","43.68","0","SATNPRO1963","26.788","0.3752","5"],
    [44053,"HCEP03730564","2024-12-30 04:30:00","11.0702","3.43374","28.316","3.954285714285714","7.3","2.392","1199.937","0","2.17","30.274","4.7598","43.52","0","SATNPRO1963","26.81","0.37552","5"],
    [44054,"HCEP03730564","2024-12-30 04:45:00","11.0693","3.43367","28.291","3.961428571428572","7.31","2.479","1083.145","0.01","2.22","30.274","4.75982","43.61","0","SATNPRO1963","26.882","0.37652","5"],
    [44055,"HCEP03730564","2024-12-30 05:00:00","11.0806","3.43745","28.301","3.94","7.32","2.478","1075.625","0","0.47","30.3017","4.76358","43.39","0","SATNPRO1963","26.875999999999998","0.37642","5"],
    [44056,"HCEP03730564","2024-12-30 05:15:00","11.0845","3.43891","28.289","3.93","7.31","2.361","1193.53","0","1.84","30.3128","4.76508","43.28","0","SATNPRO1963","26.922","0.3771","5"],
    [44057,"HCEP03730564","2024-12-30 05:30:00","11.0797","3.43722","28.255","3.938571428571429","7.3","2.471","1075.581","0.01","3.16","30.3002","4.76337","43.37","0","SATNPRO1963","26.852","0.3761","5"],
    [44058,"HCEP03730564","2024-12-30 05:45:00","11.0808","3.43764","28.198","3.932857142857143","7.31","2.472","1068.987","0","0","30.3034","4.76381","43.31","0","SATNPRO1963","26.902","0.37682","5"],
    [44059,"HCEP03730564","2024-12-30 06:00:00","11.0678","3.4334","28.14","3.94","7.31","2.322","1177.682","0","1.72","30.2727","4.75965","43.37","0","SATNPRO1963","26.872","0.3764","5"],
    [44060,"HCEP03730564","2024-12-30 06:15:00","11.0428","3.42471","28.132","3.991428571428572","7.3","2.473","1071.433","0.01","1.82","30.2082","4.75089","43.9","0","SATNPRO1963","27.168","0.38054","5"],
    [44061,"HCEP03730564","2024-12-30 06:30:00","11.0389","3.42382","28.113","4.061428571428571","7.31","2.474","1063.59","0","0.27","30.2028","4.75017","44.66","0","SATNPRO1963","26.97","0.37776","5"],
    [44062,"HCEP03730564","2024-12-30 06:45:00","11.0418","3.42362","28.113","4.084285714285714","7.3","2.362","1201.855","0","1.38","30.1984","4.74952","44.9","0","SATNPRO1963","27.240000000000002","0.38154","5"],
    [44063,"HCEP03730564","2024-12-30 07:00:00","11.0423","3.42518","28.095","4.118571428571428","7.3","2.482","1104.036","0","2.03","30.2133","4.75162","45.3","0","SATNPRO1963","27.096","0.37952","5"],
    [44064,"HCEP03730564","2024-12-30 07:15:00","11.0442","3.42566","28.06","4.092857142857143","7.31","2.485","1098.633","0","0.86","30.2164","4.75203","45.01","0","SATNPRO1963","27.138","0.38012","5"],
    [44065,"HCEP03730564","2024-12-30 07:30:00","11.0466","3.4263","28.02","4.082857142857143","7.3","2.393","1190.226","0","3.39","30.2207","4.7526","44.9","0","SATNPRO1963","27.246","0.38162","5"],
    [44066,"HCEP03730564","2024-12-30 07:45:00","11.051","3.42783","27.976","4.087142857142857","7.3","2.479","1108.594","0","2.97","30.2321","4.75414","44.95","0","SATNPRO1963","27.058","0.379","5"],
    [44067,"HCEP03730564","2024-12-30 08:00:00","11.0525","3.4281","27.926","4.077142857142857","7.31","2.479","1100.635","0","0.77","30.2335","4.75432","44.85","0","SATNPRO1963","26.988","0.37796","5"],
    [44068,"HCEP03730564","2024-12-30 08:15:00","11.0544","3.42862","27.869","4.054285714285714","7.3","2.407","1176.88","0","1.96","30.2371","4.7548","44.6","0","SATNPRO1963","26.928","0.37714","5"],
    [44069,"HCEP03730564","2024-12-30 08:30:00","11.0583","3.42989","27.81","4.028571428571428","7.3","2.497","1118.662","0.01","2.1","30.2463","4.75604","44.33","0","SATNPRO1963","27.012","0.37836","5"],
    [44070,"HCEP03730564","2024-12-30 08:45:00","11.0678","3.43284","27.748","3.981428571428571","7.31","2.498","1110.887","0","0","30.2674","4.75888","43.82","0","SATNPRO1963","26.504","0.37122","5"],
    [44071,"HCEP03730564","2024-12-30 09:00:00","11.0763","3.43631","27.681","3.951428571428572","7.3","2.414","1212.092","0","1.44","30.2943","4.76256","43.51","0","SATNPRO1963","26.946","0.37742","5"],
    [44072,"HCEP03730564","2024-12-30 09:15:00","11.0762","3.43639","27.614","3.957142857142857","7.3","2.481","1118.073","0","4.02","30.2952","4.76268","43.57","0","SATNPRO1963","26.914","0.377","5"],
    [44073,"HCEP03730564","2024-12-30 09:30:00","11.0757","3.43586","27.529","3.957142857142857","7.31","2.486","1110.545","0","0.77","30.2905","4.76202","43.57","0","SATNPRO1963","26.942","0.37734","5"],
    [44074,"HCEP03730564","2024-12-30 09:45:00","11.0734","3.4354","27.457","3.967142857142858","7.3","2.413","1186.849","0","1.8","30.2879","4.76168","43.67","0","SATNPRO1963","26.794","0.3753","5"],
    [44075,"HCEP03730564","2024-12-30 10:00:00","11.0754","3.43602","27.39","3.972857142857143","7.3","2.473","1099.021","0.01","2.36","30.2924","4.76228","43.74","0","SATNPRO1963","26.922","0.3771","5"],
    [44076,"HCEP03730564","2024-12-30 10:15:00","11.0765","3.43652","27.331","3.97","7.31","2.474","1091.789","0","0.27","30.2963","4.76282","43.71","0","SATNPRO1963","27.03","0.3786","5"],
    [44077,"HCEP03730564","2024-12-30 10:30:00","11.0817","3.43827","27.277","3.971428571428571","7.3","2.399","1186.922","0","1.49","30.3092","4.76456","43.74","0","SATNPRO1963","26.926000000000002","0.37712","5"],
    [44078,"HCEP03730564","2024-12-30 10:45:00","11.0839","3.43915","27.247","3.971428571428571","7.3","2.489","1105.209","0.01","2.1","30.316","4.76549","43.74","0","SATNPRO1963","26.812","0.37554","5"],
    [44079,"HCEP03730564","2024-12-30 11:00:00","11.0852","3.43957","27.235","3.951428571428572","7.31","2.491","1098.82","0","0.66","30.319","4.7659","43.53","0","SATNPRO1963","27.036","0.37872","5"],
    [44080,"HCEP03730564","2024-12-30 11:15:00","11.0853","3.4397","27.239","3.948571428571428","7.31","2.394","1198.696","0","1.67","30.3202","4.76606","43.48","0","SATNPRO1963","26.740000000000002","0.37452","5"],
    [44081,"HCEP03730564","2024-12-30 11:30:00","11.0858","3.43987","27.253","3.95","7.3","2.486","1096.039","0.01","2.14","30.3215","4.76624","43.51","0","SATNPRO1963","26.826","0.37574","5"],
    [44082,"HCEP03730564","2024-12-30 11:45:00","11.0856","3.43982","27.27","3.958571428571429","7.31","2.487","1088.352","0","0","30.3211","4.76619","43.6","0","SATNPRO1963","26.832","0.37582","5"],
    [44083,"HCEP03730564","2024-12-30 12:00:00","11.0872","3.44046","27.295","3.961428571428572","7.31","2.378","1189.258","0","1.88","30.3261","4.76687","43.64","0","SATNPRO1963","26.642","0.3732","5"],
    [44084,"HCEP03730564","2024-12-30 12:15:00","11.087","3.44055","27.345","3.955714285714286","7.3","2.481","1088.947","0","1.97","30.3271","4.76702","43.58","0","SATNPRO1963","26.856","0.37612","5"],
    [44085,"HCEP03730564","2024-12-30 12:30:00","11.0871","3.44068","27.393","3.958571428571429","7.31","2.483","1082.436","0","0","30.3283","4.76719","43.6","0","SATNPRO1963","26.89","0.37662","5"],
    [44086,"HCEP03730564","2024-12-30 12:45:00","11.0868","3.44084","27.439","3.967142857142858","7.31","2.352","1191.937","0","1.96","30.33","4.76745","43.71","0","SATNPRO1963","26.701999999999998","0.37402","5"],
    [44087,"HCEP03730564","2024-12-30 13:00:00","11.0864","3.44097","27.475","3.985714285714286","7.3","2.439","1056.229","0.01","3.09","30.3317","4.76768","43.91","0","SATNPRO1963","26.992","0.37806","5"],
    [44088,"HCEP03730564","2024-12-30 13:15:00","11.0869","3.4411","27.524","4.002857142857143","7.31","2.441","1049.861","0","0.47","30.3325","4.7678","44.09","0","SATNPRO1963","26.824","0.37576","5"],
    [44089,"HCEP03730564","2024-12-30 13:30:00","11.0871","3.44111","27.559","3.995714285714286","7.31","2.336","1159.455","0","2.03","30.3324","4.76778","44.02","0","SATNPRO1963","26.774","0.375","5"],
    [44090,"HCEP03730564","2024-12-30 13:45:00","11.0866","3.4411","27.618","3.987142857142857","7.31","2.443","1028.037","0.01","1.88","30.3327","4.76784","43.92","0","SATNPRO1963","26.79","0.37526","5"],
    [44091,"HCEP03730564","2024-12-30 14:00:00","11.0862","3.44107","27.604","3.981428571428571","7.32","2.443","1019.777","0","0.38","30.3327","4.76784","43.86","0","SATNPRO1963","26.852","0.37612","5"],
    [44092,"HCEP03730564","2024-12-30 14:15:00","11.0859","3.44106","27.633","4.001428571428572","7.31","2.321","1160.83","0","1.38","30.3329","4.76788","44.08","0","SATNPRO1963","27.096","0.37952","5"],
    [44093,"HCEP03730564","2024-12-30 14:30:00","11.0863","3.44091","27.67","4.007142857142857","7.31","2.446","1021.564","0","2.2","30.331","4.76761","44.14","0","SATNPRO1963","26.594","0.37246","5"],
    [44094,"HCEP03730564","2024-12-30 14:45:00","11.0865","3.44094","27.694","4","7.31","2.447","1014.642","0","0.66","30.3312","4.76763","44.06","0","SATNPRO1963","26.868000000000002","0.37632","5"],
    [44095,"HCEP03730564","2024-12-30 15:00:00","11.0867","3.44112","27.708","3.997142857142857","7.31","2.345","1149.771","0","1.58","30.3327","4.76784","44.02","0","SATNPRO1963","26.732","0.37442","5"],
    [44096,"HCEP03730564","2024-12-30 15:15:00","11.0868","3.44096","27.719","3.985714285714286","7.31","2.456","1063.489","0.01","2.97","30.3311","4.76762","43.9","0","SATNPRO1963","26.528000000000002","0.37156","5"],
    [44097,"HCEP03730564","2024-12-30 15:30:00","11.0865","3.44108","27.716","3.978571428571429","7.31","2.455","1055.677","0","0","30.3325","4.76782","43.82","0","SATNPRO1963","26.658","0.37338","5"],
    [44098,"HCEP03730564","2024-12-30 15:45:00","11.0859","3.44084","27.682","4.001428571428572","7.31","2.347","1142.559","0","2.17","30.3307","4.76757","44.07","0","SATNPRO1963","26.682","0.37368","5"],
    [44099,"HCEP03730564","2024-12-30 16:00:00","11.0857","3.44071","27.633","4","7.3","2.462","1058.679","0","2.14","30.3296","4.76741","44.07","0","SATNPRO1963","26.712","0.37414","5"],
    [44100,"HCEP03730564","2024-12-30 16:15:00","11.0842","3.44041","27.592","4.012857142857143","7.31","2.463","1049.656","0","1.24","30.328","4.7672","44.21","0","SATNPRO1963","26.76","0.37484","5"],
    [44101,"HCEP03730564","2024-12-30 16:30:00","11.0823","3.43973","27.527","4.012857142857143","7.31","2.335","1135.538","0","2.14","30.3229","4.76652","44.2","0","SATNPRO1963","26.674","0.37362","5"],
    [44102,"HCEP03730564","2024-12-30 16:45:00","11.0817","3.43953","27.447","4.004285714285714","7.31","2.469","1049.178","0","2.08","30.3215","4.76631","44.11","0","SATNPRO1963","26.758","0.37482","5"],
    [44103,"HCEP03730564","2024-12-30 17:00:00","11.0797","3.43818","27.349","3.992857142857143","7.31","2.47","1043.403","0","0.27","30.31","4.76471","43.98","0","SATNPRO1963","26.776","0.37508","5"],
    [44104,"HCEP03730564","2024-12-30 17:15:00","11.0772","3.4375","27.223","4.001428571428572","7.31","2.361","1170.178","0","1.84","30.3054","4.76409","44.06","0","SATNPRO1963","26.808","0.37546","5"],
    [44105,"HCEP03730564","2024-12-30 17:30:00","11.0752","3.43693","27.118","4.007142857142857","7.31","2.463","1077.94","0","2.36","30.3015","4.76356","44.12","0","SATNPRO1963","26.862","0.37622","5"],
    [44106,"HCEP03730564","2024-12-30 17:45:00","11.0707","3.43531","26.968","4.004285714285714","7.31","2.464","1072.043","0","0.38","30.2895","4.76192","44.08","0","SATNPRO1963","26.766","0.37488","5"],
    [44107,"HCEP03730564","2024-12-30 18:00:00","11.0659","3.43389","26.803","4.068571428571428","7.31","2.395","1167.937","0","1.76","30.2796","4.76058","44.78","0","SATNPRO1963","27.166","0.38052","5"],
    [44108,"HCEP03730564","2024-12-30 18:15:00","11.0649","3.43367","26.651","4.097142857142857","7.31","2.451","1035.337","0","2.67","30.2783","4.76041","45.1","0","SATNPRO1963","26.954","0.37758","5"],
    [44109,"HCEP03730564","2024-12-30 18:30:00","11.0617","3.43246","26.426","4.115714285714286","7.32","2.454","1027.653","0","0","30.2692","4.75915","45.29","0","SATNPRO1963","27.096","0.37948","5"],
    [44110,"HCEP03730564","2024-12-30 18:45:00","11.057","3.43094","26.226","4.122857142857143","7.32","2.363","1151.824","0","1.96","30.2582","4.75765","45.37","0","SATNPRO1963","26.986","0.37802","5"],
    [44111,"HCEP03730564","2024-12-30 19:00:00","11.0558","3.43036","26.01","4.122857142857143","7.31","2.453","1074.585","0","1.92","30.2536","4.75701","45.36","0","SATNPRO1963","27.176","0.38066","5"],
    [44112,"HCEP03730564","2024-12-30 19:15:00","11.0537","3.42972","25.753","4.107142857142858","7.32","2.456","1067.973","0","0","30.2492","4.7564","45.18","0","SATNPRO1963","26.954","0.37756","5"],
    [44113,"HCEP03730564","2024-12-30 19:30:00","11.0518","3.42883","25.51","4.101428571428571","7.31","2.351","1148.979","0","1.67","30.2422","4.75542","45.13","0","SATNPRO1963","27.018","0.37844","5"],
    [44114,"HCEP03730564","2024-12-30 19:45:00","11.0485","3.4273","25.312","4.072857142857143","7.31","2.449","1047.992","0.01","2.07","30.2301","4.75374","44.79","0","SATNPRO1963","26.934","0.37722","5"],
    [44115,"HCEP03730564","2024-12-30 20:00:00","11.0459","3.42634","25.108","4.052857142857143","7.32","2.452","1043.607","0","0.61","30.2229","4.75275","44.58","0","SATNPRO1963","27.022","0.37848","5"],
    [44116,"HCEP03730564","2024-12-30 20:15:00","11.0449","3.42593","24.924","4.032857142857143","7.31","2.326","1145.059","0","1.63","30.2198","4.75231","44.36","0","SATNPRO1963","27.034","0.37862","5"],
    [44117,"HCEP03730564","2024-12-30 20:30:00","11.0435","3.4254","24.745","4.024285714285715","7.31","2.445","1042.687","0","1.86","30.2158","4.75176","44.25","0","SATNPRO1963","26.938","0.3773","5"],
    [44118,"HCEP03730564","2024-12-30 20:45:00","11.0427","3.42507","24.549","4.012857142857143","7.31","2.445","1036.695","0","0","30.2132","4.7514","44.13","0","SATNPRO1963","27.052","0.3789","5"],
    [44119,"HCEP03730564","2024-12-30 21:00:00","11.0425","3.42497","24.369","4","7.31","2.316","1134.013","0","1.49","30.2125","4.75129","43.99","0","SATNPRO1963","27.034000000000002","0.37866","5"],
    [44120,"HCEP03730564","2024-12-30 21:15:00","11.0428","3.42498","24.198","3.984285714285714","7.3","2.435","1022.632","0.01","2.24","30.2124","4.75126","43.82","0","SATNPRO1963","26.946","0.37742","5"],
    [44121,"HCEP03730564","2024-12-30 21:30:00","11.0426","3.42493","24.105","3.975714285714286","7.31","2.436","1015.459","0","0.77","30.2121","4.75122","43.72","0","SATNPRO1963","27.04","0.37876","5"],
    [44122,"HCEP03730564","2024-12-30 21:45:00","11.043","3.42502","24.027","3.97","7.31","2.315","1141.961","0","1.49","30.2128","4.75131","43.66","0","SATNPRO1963","26.694","0.37388","5"],
    [44123,"HCEP03730564","2024-12-30 22:00:00","11.0437","3.42526","23.974","3.971428571428571","7.3","2.447","1017.029","0","2.17","30.2145","4.75154","43.68","0","SATNPRO1963","27.064","0.37906","5"],
    [44124,"HCEP03730564","2024-12-30 22:15:00","11.044","3.42528","23.944","3.97","7.31","2.448","1010.616","0","0","30.2145","4.75153","43.66","0","SATNPRO1963","26.982","0.37794","5"],
    [44125,"HCEP03730564","2024-12-30 22:30:00","11.0422","3.42452","23.932","3.962857142857143","7.3","2.307","1119.772","0","1.38","30.2085","4.7507","43.57","0","SATNPRO1963","26.842","0.37594","5"],
    [44126,"HCEP03730564","2024-12-30 22:45:00","11.0442","3.4254","23.951","3.954285714285714","7.3","2.438","1008.997","0.01","1.88","30.2154","4.75166","43.49","0","SATNPRO1963","26.976","0.37784","5"],
    [44127,"HCEP03730564","2024-12-30 23:00:00","11.0442","3.42547","24.011","3.964285714285714","7.31","2.437","1003.057","0","0.77","30.2162","4.75176","43.59","0","SATNPRO1963","26.836","0.37588","5"],
    [44128,"HCEP03730564","2024-12-30 23:15:00","11.0452","3.42568","24.092","3.961428571428572","7.3","2.299","1125.967","0.01","1.99","30.2174","4.75192","43.56","0","SATNPRO1963","27.192","0.3809","5"],
    [44129,"HCEP03730564","2024-12-30 23:30:00","11.0463","3.42613","24.185","3.945714285714286","7.3","2.447","1030.361","0.01","1.78","30.2208","4.7524","43.4","0","SATNPRO1963","26.908","0.37688","5"],
    [44130,"HCEP03730564","2024-12-30 23:45:00","11.0432","3.42498","24.303","3.941428571428571","7.31","2.447","1023.857","0","0.54","30.2121","4.75121","43.35","0","SATNPRO1963","26.836000000000002","0.37588","5"],
    [44131,"HCEP03730564","2024-12-31 00:00:00","11.0419","3.42429","24.455","3.941428571428571","7.3","2.351","1133.883","0","1.88","30.2063","4.75043","43.35","0","SATNPRO1963","26.8","0.37536","5"],
    [44132,"HCEP03730564","2024-12-31 00:15:00","11.0399","3.42356","24.609","3.924285714285714","7.3","2.457","1065.028","0.01","1.84","30.2008","4.74968","43.15","0","SATNPRO1963","27.082","0.37932","5"],
    [44133,"HCEP03730564","2024-12-31 00:30:00","11.0405","3.42375","24.783","3.915714285714286","7.3","2.457","1057.83","0","0","30.2021","4.74986","43.05","0","SATNPRO1963","26.922","0.37708","5"],
    [44134,"HCEP03730564","2024-12-31 00:45:00","11.0425","3.42465","24.975","3.914285714285715","7.3","2.371","1163.667","0","1.38","30.2092","4.75086","43.05","0","SATNPRO1963","27.02","0.37846","5"],
    [44135,"HCEP03730564","2024-12-31 01:00:00","11.0466","3.42631","25.159","3.924285714285714","7.3","2.469","1095.864","0","2.3","30.222","4.75261","43.16","0","SATNPRO1963","26.794","0.3753","5"],
    [44136,"HCEP03730564","2024-12-31 01:15:00","11.0448","3.42575","25.334","3.937142857142857","7.31","2.47","1088.375","0","0","30.2179","4.75207","43.3","0","SATNPRO1963","27.134","0.38004","5"],
    [44137,"HCEP03730564","2024-12-31 01:30:00","11.048","3.42692","25.525","3.968571428571429","7.3","2.391","1153.843","0","1.63","30.2266","4.75327","43.65","0","SATNPRO1963","26.82","0.37566","5"],
    [44138,"HCEP03730564","2024-12-31 01:45:00","11.0478","3.42683","25.727","3.967142857142858","7.3","2.468","1080.871","0","1.72","30.2259","4.75318","43.64","0","SATNPRO1963","27.032","0.3786","5"],
    [44139,"HCEP03730564","2024-12-31 02:00:00","11.0471","3.42651","25.953","3.965714285714285","7.31","2.47","1074.446","0","0","30.2232","4.75282","43.61","0","SATNPRO1963","26.938","0.3773","5"],
    [44140,"HCEP03730564","2024-12-31 02:15:00","11.0477","3.42664","26.205","3.962857142857143","7.31","2.392","1151.608","0","1.88","30.2238","4.75292","43.58","0","SATNPRO1963","26.744","0.3746","5"],
    [44141,"HCEP03730564","2024-12-31 02:30:00","11.047","3.42655","26.47","3.955714285714286","7.31","2.457","1085.166","0","1.9","30.2234","4.75289","43.5","0","SATNPRO1963","26.716","0.37418","5"],
    [44142,"HCEP03730564","2024-12-31 02:45:00","11.0462","3.4262","26.703","3.968571428571429","7.32","2.46","1079.202","0","0","30.2206","4.75251","43.64","0","SATNPRO1963","27.01","0.37834","5"],
    [44143,"HCEP03730564","2024-12-31 03:00:00","11.0457","3.42608","26.954","3.965714285714285","7.31","2.387","1155.359","0","1.8","30.2197","4.75241","43.61","0","SATNPRO1963","26.684","0.37372","5"],
    [44144,"HCEP03730564","2024-12-31 03:15:00","11.0455","3.42594","27.187","3.957142857142857","7.3","2.47","1090.531","0","2.15","30.2184","4.75224","43.52","0","SATNPRO1963","26.784","0.37514","5"],
    [44145,"HCEP03730564","2024-12-31 03:30:00","11.0457","3.42607","27.446","3.961428571428572","7.31","2.473","1083.388","0","0.81","30.2194","4.7524","43.57","0","SATNPRO1963","26.874000000000002","0.37644","5"],
    [44146,"HCEP03730564","2024-12-31 03:45:00","11.0471","3.4267","27.598","3.962857142857143","7.31","2.366","1161.554","0","1.08","30.2244","4.75308","43.58","0","SATNPRO1963","26.944","0.37744","5"],
    [44147,"HCEP03730564","2024-12-31 04:00:00","11.0501","3.42779","27.724","3.974285714285714","7.3","2.468","1069.541","0","1.76","30.2326","4.75421","43.71","0","SATNPRO1963","27.14","0.38016","5"],
    [44148,"HCEP03730564","2024-12-31 04:15:00","11.0518","3.42864","27.9","3.975714285714286","7.31","2.469","1063.015","0","0.77","30.2394","4.75516","43.73","0","SATNPRO1963","26.908","0.3769","5"],
    [44149,"HCEP03730564","2024-12-31 04:30:00","11.054","3.42945","28.08","3.982857142857143","7.3","2.385","1141.184","0","1.58","30.2454","4.75599","43.82","0","SATNPRO1963","27.014","0.37838","5"],
    [44150,"HCEP03730564","2024-12-31 04:45:00","11.0547","3.42965","28.203","3.991428571428572","7.3","2.468","1052.876","0","1.97","30.2468","4.75618","43.92","0","SATNPRO1963","26.874","0.3764","5"],
    [44151,"HCEP03730564","2024-12-31 05:00:00","11.056","3.43007","28.309","3.991428571428572","7.31","2.468","1045.632","0","0.38","30.2498","4.75659","43.91","0","SATNPRO1963","26.872","0.3764","5"],
    [44152,"HCEP03730564","2024-12-31 05:15:00","11.0573","3.43042","28.309","3.982857142857143","7.3","2.354","1148.715","0","1.38","30.2522","4.75691","43.82","0","SATNPRO1963","27.064","0.37904","5"],
    [44153,"HCEP03730564","2024-12-31 05:30:00","11.0591","3.43101","28.251","3.968571428571429","7.3","2.464","1052.979","0","1.8","30.2564","4.75748","43.66","0","SATNPRO1963","27.09","0.37946","5"],
    [44154,"HCEP03730564","2024-12-31 05:45:00","11.0601","3.4315","28.104","3.964285714285714","7.31","2.466","1044.199","0","0","30.2604","4.75802","43.62","0","SATNPRO1963","26.754","0.37472","5"],
    [44155,"HCEP03730564","2024-12-31 06:00:00","11.0629","3.43241","28.024","3.947142857142857","7.31","2.345","1127.237","0","2.46","30.2671","4.75892","43.44","0","SATNPRO1963","26.94","0.3773","5"],
    [44156,"HCEP03730564","2024-12-31 06:15:00","11.0656","3.43349","28.022","3.938571428571429","7.31","2.457","1029.594","0","2.12","30.2754","4.76007","43.35","0","SATNPRO1963","26.914","0.37698","5"],
    [44157,"HCEP03730564","2024-12-31 06:30:00","11.0672","3.43415","28.049","3.937142857142857","7.31","2.46","1023.508","0","0.54","30.2806","4.76077","43.34","0","SATNPRO1963","27.056","0.37894","5"],
    [44158,"HCEP03730564","2024-12-31 06:45:00","11.0681","3.43412","28.071","3.934285714285714","7.31","2.352","1112.114","0","3.02","30.2795","4.7606","43.31","0","SATNPRO1963","26.868000000000002","0.3763","5"],
    [44159,"HCEP03730564","2024-12-31 07:00:00","11.0705","3.43483","28.116","3.86","7.3","2.45","1004.739","0","2.78","30.2844","4.76127","42.5","0","SATNPRO1963","26.704","0.37406","5"],
    [44160,"HCEP03730564","2024-12-31 07:15:00","11.069","3.43423","28.106","3.842857142857143","7.31","2.452","997.691","0","0","30.2798","4.76064","42.3","0","SATNPRO1963","26.738","0.37452","5"],
    [44161,"HCEP03730564","2024-12-31 07:30:00","11.0687","3.43414","28.089","3.867142857142857","7.3","2.374","1054.351","0","2.27","30.2792","4.76055","42.57","0","SATNPRO1963","26.98","0.37788","5"],
    [44162,"HCEP03730564","2024-12-31 07:45:00","11.069","3.4342","28.056","3.885714285714286","7.3","2.451","1008.139","0","2.57","30.2795","4.7606","42.77","0","SATNPRO1963","26.852","0.3761","5"],
    [44163,"HCEP03730564","2024-12-31 08:00:00","11.0719","3.43507","28.017","3.845714285714286","7.31","2.453","1001.022","0","0.61","30.2857","4.76143","42.34","0","SATNPRO1963","26.822","0.37566","5"],
    [44164,"HCEP03730564","2024-12-31 08:15:00","11.0739","3.43584","27.96","3.82","7.3","2.358","1085.224","0","2.05","30.2915","4.76222","42.06","0","SATNPRO1963","26.744","0.37464","5"],
    [44165,"HCEP03730564","2024-12-31 08:30:00","11.074","3.43596","27.898","3.815714285714285","7.29","2.427","1033.074","0.01","2.08","30.2927","4.76238","42.01","0","SATNPRO1963","26.6","0.37254","5"],
    [44166,"HCEP03730564","2024-12-31 08:45:00","11.0748","3.43619","27.831","3.811428571428572","7.3","2.426","1026.131","0","0.86","30.2943","4.76258","41.96","0","SATNPRO1963","26.72","0.37428","5"],
    [44167,"HCEP03730564","2024-12-31 09:00:00","11.0757","3.43647","27.765","3.81","7.3","2.357","1086.75","0","3.69","30.2963","4.76286","41.95","0","SATNPRO1963","26.954","0.37752","5"],
    [44168,"HCEP03730564","2024-12-31 09:15:00","11.0768","3.43681","27.691","3.808571428571429","7.29","2.433","1000.257","0","2.32","30.2988","4.76319","41.93","0","SATNPRO1963","26.541999999999998","0.3718","5"],
    [44169,"HCEP03730564","2024-12-31 09:30:00","11.0773","3.43697","27.626","3.802857142857143","7.3","2.436","993.758","0","0","30.3","4.76334","41.87","0","SATNPRO1963","26.742","0.37454","5"],
    [44170,"HCEP03730564","2024-12-31 09:45:00","11.0779","3.4372","27.56","3.792857142857143","7.3","2.305","1105.585","0","1.67","30.3017","4.76357","41.77","0","SATNPRO1963","26.754","0.37472","5"],
    [44171,"HCEP03730564","2024-12-31 10:00:00","11.0785","3.43735","27.499","3.78","7.3","2.438","1010.573","0","2.49","30.3028","4.76371","41.62","0","SATNPRO1963","26.88","0.37652","5"],
    [44172,"HCEP03730564","2024-12-31 10:15:00","11.0787","3.43749","27.43","3.771428571428572","7.3","2.439","1004.626","0","0.27","30.304","4.76388","41.53","0","SATNPRO1963","26.666","0.3735","5"],
    [44173,"HCEP03730564","2024-12-31 10:30:00","11.0788","3.43762","27.357","3.764285714285714","7.3","2.347","1077.731","0","1.24","30.3052","4.76404","41.46","0","SATNPRO1963","26.8","0.37542","5"],
    [44174,"HCEP03730564","2024-12-31 10:45:00","11.079","3.43772","27.309","3.774285714285714","7.3","2.444","978.23","0","1.8","30.306","4.76415","41.56","0","SATNPRO1963","26.608","0.37272","5"],
    [44175,"HCEP03730564","2024-12-31 11:00:00","11.0796","3.43782","27.253","3.77","7.31","2.448","971.242","0","0.54","30.3065","4.76422","41.52","0","SATNPRO1963","26.664","0.37346","5"],
    [44176,"HCEP03730564","2024-12-31 11:15:00","11.0795","3.43792","27.221","3.772857142857143","7.3","2.32","1086.282","0","1.82","30.3076","4.76437","41.54","0","SATNPRO1963","26.826","0.37574","5"],
    [44177,"HCEP03730564","2024-12-31 11:30:00","11.0789","3.43788","27.204","3.785714285714286","7.3","2.431","998.06","0.01","2.9","30.3077","4.76439","41.69","0","SATNPRO1963","26.888","0.3766","5"],
    [44178,"HCEP03730564","2024-12-31 11:45:00","11.079","3.43788","27.196","3.797142857142857","7.3","2.431","991.335","0","0.27","30.3076","4.76437","41.81","0","SATNPRO1963","26.804","0.37542","5"],
    [44179,"HCEP03730564","2024-12-31 12:00:00","11.079","3.43793","27.196","3.807142857142857","7.3","2.327","1082.657","0","1.51","30.3081","4.76445","41.92","0","SATNPRO1963","26.866","0.37634","5"],
    [44180,"HCEP03730564","2024-12-31 12:15:00","11.0794","3.43806","27.212","3.814285714285714","7.29","2.442","992","0.01","2.59","30.3091","4.76458","42","0","SATNPRO1963","26.906","0.3768","5"],
    [44181,"HCEP03730564","2024-12-31 12:30:00","11.0797","3.43812","27.225","3.804285714285714","7.3","2.443","985.398","0","0.47","30.3094","4.76461","41.89","0","SATNPRO1963","26.62","0.37284","5"],
    [44182,"HCEP03730564","2024-12-31 12:45:00","11.0795","3.43831","27.266","3.778571428571428","7.3","2.318","1093.434","0","1.76","30.3113","4.7649","41.61","0","SATNPRO1963","26.886","0.3766","5"],
    [44183,"HCEP03730564","2024-12-31 13:00:00","11.0792","3.43943","27.302","3.812857142857143","7.3","2.44","997.56","0","2.25","30.3227","4.76651","41.98","0","SATNPRO1963","26.818","0.37564","5"],
    [44184,"HCEP03730564","2024-12-31 13:15:00","11.0797","3.43993","27.35","3.892857142857143","7.3","2.442","990.86","0","0.94","30.327","4.76711","42.87","0","SATNPRO1963","27.134","0.38008","5"],
    [44185,"HCEP03730564","2024-12-31 13:30:00","11.08","3.4402","27.367","3.93","7.3","2.303","1088.108","0","1.78","30.3294","4.76746","43.28","0","SATNPRO1963","26.996","0.37814","5"],
    [44186,"HCEP03730564","2024-12-31 13:45:00","11.0804","3.44052","27.426","3.945714285714286","7.31","2.435","1010.248","0","2.07","30.3322","4.76785","43.46","0","SATNPRO1963","27.276","0.38202","5"],
    [44187,"HCEP03730564","2024-12-31 14:00:00","11.0804","3.44059","27.478","3.96","7.31","2.438","1003.591","0","1.21","30.3328","4.76794","43.62","0","SATNPRO1963","26.994","0.37808","5"],
    [44188,"HCEP03730564","2024-12-31 14:15:00","11.0804","3.44059","27.536","3.96","7.31","2.352","1105.538","0","1.84","30.3329","4.76795","43.62","0","SATNPRO1963","26.892","0.37666","5"],
    [44189,"HCEP03730564","2024-12-31 14:30:00","11.0805","3.44076","27.6","3.972857142857143","7.31","2.424","980.932","0.01","2.25","30.3344","4.76817","43.76","0","SATNPRO1963","27.016000000000002","0.3784","5"],
    [44190,"HCEP03730564","2024-12-31 14:45:00","11.0807","3.44078","27.656","3.98","7.31","2.426","974.513","0","0.38","30.3344","4.76818","43.84","0","SATNPRO1963","27.136","0.38008","5"],
    [44191,"HCEP03730564","2024-12-31 15:00:00","11.0811","3.44071","27.698","3.968571428571429","7.31","2.325","1094.846","0","1.63","30.3334","4.76802","43.71","0","SATNPRO1963","26.994","0.37806","5"],
    [44192,"HCEP03730564","2024-12-31 15:15:00","11.081","3.44094","27.716","3.951428571428572","7.31","2.426","989.016","0.01","1.8","30.3357","4.76835","43.53","0","SATNPRO1963","27.032","0.37866","5"],
    [44193,"HCEP03730564","2024-12-31 15:30:00","11.081","3.44121","27.716","3.985714285714286","7.31","2.425","982.569","0","0","30.3383","4.76873","43.9","0","SATNPRO1963","27.094","0.3795","5"],
    [44194,"HCEP03730564","2024-12-31 15:45:00","11.0813","3.44117","27.72","4.001428571428572","7.31","2.323","1101.28","0","1.67","30.3377","4.76863","44.08","0","SATNPRO1963","26.974","0.37778","5"],
    [44195,"HCEP03730564","2024-12-31 16:00:00","11.0808","3.44084","27.757","3.985714285714286","7.31","2.43","987.904","0","3.24","30.3348","4.76824","43.91","0","SATNPRO1963","26.612","0.37282","5"],
    [44196,"HCEP03730564","2024-12-31 16:15:00","11.0809","3.44102","27.754","3.947142857142857","7.31","2.433","980.832","0","0","30.3366","4.76848","43.48","0","SATNPRO1963","26.89","0.37662","5"],
    [44197,"HCEP03730564","2024-12-31 16:30:00","11.0804","3.44058","27.723","3.932857142857143","7.31","2.295","1105.68","0","2.63","30.3327","4.76793","43.32","0","SATNPRO1963","26.802","0.37542","5"],
    [44198,"HCEP03730564","2024-12-31 16:45:00","11.0799","3.44025","27.685","3.91","7.31","2.435","1000.167","0.01","1.44","30.3299","4.76755","43.06","0","SATNPRO1963","26.688","0.3738","5"],
    [44199,"HCEP03730564","2024-12-31 17:00:00","11.0789","3.4392","27.644","3.89","7.31","2.436","994.71","0","0.47","30.3205","4.76623","42.83","0","SATNPRO1963","26.482","0.37096","5"],
    [44200,"HCEP03730564","2024-12-31 17:15:00","11.0785","3.43888","27.594","3.845714285714286","7.3","2.33","1108.182","0.01","1.8","30.3177","4.76583","42.36","0","SATNPRO1963","26.61","0.37276","5"],
    [44201,"HCEP03730564","2024-12-31 17:30:00","11.0736","3.43736","27.523","3.855714285714285","7.3","2.444","1024.477","0","1.84","30.3068","4.76436","42.46","0","SATNPRO1963","26.599999999999998","0.37256","5"],
    [44202,"HCEP03730564","2024-12-31 17:45:00","11.0644","3.4356","27.428","3.925714285714286","7.31","2.446","1017.88","0","0.54","30.2973","4.76315","43.21","0","SATNPRO1963","26.788","0.37518","5"],
    [44203,"HCEP03730564","2024-12-31 18:00:00","11.0618","3.43522","27.312","4.008571428571429","7.31","2.341","1100.648","0.01","2.03","30.2957","4.76295","44.12","0","SATNPRO1963","27.154","0.38036","5"],
    [44204,"HCEP03730564","2024-12-31 18:15:00","11.0612","3.43502","27.171","4.087142857142857","7.31","2.439","1046.112","0.01","2.68","30.2944","4.76277","44.98","0","SATNPRO1963","27.086","0.37942","5"],
    [44205,"HCEP03730564","2024-12-31 18:30:00","11.0606","3.43483","27.021","4.104285714285715","7.32","2.44","1037.681","0","0","30.2931","4.76259","45.17","0","SATNPRO1963","26.81","0.37552","5"],
    [44206,"HCEP03730564","2024-12-31 18:45:00","11.0608","3.43479","26.841","4.102857142857143","7.31","2.324","1086.456","0","1.96","30.2925","4.76249","45.16","0","SATNPRO1963","27.024","0.3785","5"],
    [44207,"HCEP03730564","2024-12-31 19:00:00","11.0611","3.43464","26.654","4.092857142857143","7.32","2.422","1007.283","0.01","4.09","30.2909","4.76225","45.05","0","SATNPRO1963","27.028","0.3786","5"],
    [44208,"HCEP03730564","2024-12-31 19:15:00","11.061","3.43444","26.439","4.078571428571428","7.32","2.422","999.722","0","0.72","30.2891","4.76198","44.9","0","SATNPRO1963","27.016000000000002","0.37842","5"],
    [44209,"HCEP03730564","2024-12-31 19:30:00","11.061","3.4343","26.211","4.071428571428572","7.32","2.312","1095.875","0","1.72","30.2878","4.76179","44.81","0","SATNPRO1963","27.012","0.3783","5"],
    [44210,"HCEP03730564","2024-12-31 19:45:00","11.0607","3.43402","25.957","4.048571428571429","7.32","2.405","1002.935","0.01","1.72","30.2855","4.76145","44.55","0","SATNPRO1963","26.948","0.37742","5"],
    [44211,"HCEP03730564","2024-12-31 20:00:00","11.0603","3.43379","25.667","4.03","7.32","2.402","996.128","0","0.66","30.2836","4.76118","44.35","0","SATNPRO1963","27.308","0.38248","5"],
    [44212,"HCEP03730564","2024-12-31 20:15:00","11.0598","3.43323","25.416","4.011428571428572","7.32","2.292","1083.424","0","1.74","30.2787","4.76048","44.15","0","SATNPRO1963","27.236","0.38148","5"],
    [44213,"HCEP03730564","2024-12-31 20:30:00","11.059","3.43281","25.202","3.988571428571428","7.31","2.399","987.328","0.01","2.2","30.2753","4.75999","43.89","0","SATNPRO1963","26.938","0.37734","5"],
    [44214,"HCEP03730564","2024-12-31 20:45:00","11.0577","3.43199","25.035","3.961428571428572","7.32","2.4","977.714","0","0.47","30.2685","4.75903","43.59","0","SATNPRO1963","26.888","0.37658","5"],
    [44215,"HCEP03730564","2024-12-31 21:00:00","11.0566","3.43141","24.867","3.94","7.31","2.3","1087.363","0","1.21","30.2637","4.75837","43.35","0","SATNPRO1963","27.084","0.37934","5"],
    [44216,"HCEP03730564","2024-12-31 21:15:00","11.055","3.43071","24.698","3.922857142857143","7.3","2.396","1002.903","0.01","2.52","30.2582","4.7576","43.17","0","SATNPRO1963","26.884","0.37658","5"],
    [44217,"HCEP03730564","2024-12-31 21:30:00","11.0549","3.43061","24.511","3.914285714285715","7.31","2.4","997.647","0","0.27","30.2575","4.75749","43.06","0","SATNPRO1963","27.216","0.38118","5"],
    [44218,"HCEP03730564","2024-12-31 21:45:00","11.0547","3.43044","24.332","3.904285714285714","7.31","2.283","1091.02","0","1.27","30.256","4.75727","42.95","0","SATNPRO1963","27.03","0.3786","5"],
    [44219,"HCEP03730564","2024-12-31 22:00:00","11.0548","3.4304","24.179","3.895714285714286","7.3","2.4","986.359","0","2.46","30.2556","4.75721","42.86","0","SATNPRO1963","26.68","0.37368","5"],
    [44220,"HCEP03730564","2024-12-31 22:15:00","11.0547","3.43043","24.048","3.887142857142858","7.31","2.402","980.986","0","0.47","30.2561","4.75727","42.77","0","SATNPRO1963","26.9","0.37678","5"],
    [44221,"HCEP03730564","2024-12-31 22:30:00","11.0545","3.43042","23.964","3.878571428571429","7.31","2.31","1069.045","0","1.44","30.2561","4.75726","42.67","0","SATNPRO1963","26.738","0.37454","5"],
    [44222,"HCEP03730564","2024-12-31 22:45:00","11.0547","3.43046","23.883","3.874285714285715","7.31","2.414","997.382","0.01","2.05","30.2563","4.75729","42.62","0","SATNPRO1963","26.817999999999998","0.37564","5"],
    [44223,"HCEP03730564","2024-12-31 23:00:00","11.0549","3.43053","23.844","3.875714285714286","7.31","2.414","990.694","0","0.72","30.2569","4.75737","42.65","0","SATNPRO1963","27.054","0.37894","5"],
    [44224,"HCEP03730564","2024-12-31 23:15:00","11.0549","3.43053","23.832","3.874285714285715","7.31","2.287","1089.214","0","2.14","30.2569","4.75737","42.62","0","SATNPRO1963","26.716","0.3742","5"],
    [44225,"HCEP03730564","2024-12-31 23:30:00","11.0544","3.43051","23.849","3.882857142857143","7.31","2.408","990.906","0.01","2.81","30.2572","4.75741","42.72","0","SATNPRO1963","26.842","0.37594","5"],
    [44226,"HCEP03730564","2024-12-31 23:45:00","11.0532","3.43022","23.9","3.885714285714286","7.31","2.411","983.79","0","0","30.2552","4.75716","42.75","0","SATNPRO1963","26.948","0.37742","5"],
    [44227,"HCEP03730564","2025-01-01 00:00:00","11.0513","3.42957","23.97","3.882857142857143","7.31","2.312","1070.903","0","2.38","30.2505","4.75652","42.72","0","SATNPRO1963","27.002","0.37822","5"],
    [44228,"HCEP03730564","2025-01-01 00:15:00","11.051","3.42941","24.103","3.914285714285715","7.31","2.405","946.651","0.01","3.7","30.2491","4.75634","43.06","0","SATNPRO1963","26.932","0.37722","5"],
    [44229,"HCEP03730564","2025-01-01 00:30:00","11.0502","3.42906","24.25","3.918571428571429","7.31","2.409","941.041","0","0","30.2462","4.75595","43.11","0","SATNPRO1963","26.696","0.37392","5"],
    [44230,"HCEP03730564","2025-01-01 00:45:00","11.0501","3.42904","24.459","3.918571428571429","7.31","2.32","1060.398","0","1.46","30.246","4.75593","43.11","0","SATNPRO1963","26.733999999999998","0.3744","5"],
    [44231,"HCEP03730564","2025-01-01 01:00:00","11.0499","3.42899","24.644","3.91","7.3","2.43","996.961","0","2.49","30.2456","4.75589","43.01","0","SATNPRO1963","26.836000000000002","0.3759","5"],
    [44232,"HCEP03730564","2025-01-01 01:15:00","11.0494","3.42877","24.819","3.908571428571429","7.31","2.435","989.7","0","0","30.2439","4.75566","42.99","0","SATNPRO1963","26.996","0.37814","5"],
    [44233,"HCEP03730564","2025-01-01 01:30:00","11.0496","3.42874","25.015","3.9","7.31","2.348","1076.967","0","1.72","30.2433","4.75559","42.9","0","SATNPRO1963","26.834","0.37586","5"],
    [44234,"HCEP03730564","2025-01-01 01:45:00","11.0489","3.42851","25.2","3.892857142857143","7.3","2.415","1056.435","0.01","2.95","30.2416","4.75537","42.83","0","SATNPRO1963","26.894000000000002","0.3767","5"],
    [44235,"HCEP03730564","2025-01-01 02:00:00","11.0491","3.42847","25.413","3.884285714285714","7.31","2.416","1048.333","0","0","30.2409","4.75528","42.73","0","SATNPRO1963","26.822","0.3757","5"],
    [44236,"HCEP03730564","2025-01-01 02:15:00","11.049","3.42847","25.624","3.878571428571429","7.3","2.359","1089.388","0","0.81","30.2409","4.75529","42.67","0","SATNPRO1963","26.764","0.37488","5"],
    [44237,"HCEP03730564","2025-01-01 02:30:00","11.049","3.42845","25.839","3.881428571428572","7.3","2.447","1047.696","0","2.32","30.2406","4.75526","42.7","0","SATNPRO1963","26.928","0.37714","5"],
    [44238,"HCEP03730564","2025-01-01 02:45:00","11.0489","3.42841","26.066","3.877142857142857","7.31","2.451","1039.915","0","0.47","30.2402","4.75521","42.64","0","SATNPRO1963","26.75","0.37468","5"],
    [44239,"HCEP03730564","2025-01-01 03:00:00","11.0492","3.42844","26.296","3.865714285714286","7.3","2.357","1096.658","0","2.1","30.2402","4.75522","42.52","0","SATNPRO1963","26.796","0.37532","5"],
    [44240,"HCEP03730564","2025-01-01 03:15:00","11.0491","3.42839","26.541","3.865714285714286","7.3","2.442","979.097","0","1.97","30.2397","4.75517","42.52","0","SATNPRO1963","26.96","0.37762","5"],
    [44241,"HCEP03730564","2025-01-01 03:30:00","11.0486","3.42821","26.801","3.858571428571428","7.31","2.444","972.817","0","0","30.2383","4.75499","42.44","0","SATNPRO1963","26.72","0.37422","5"],
    [44242,"HCEP03730564","2025-01-01 03:45:00","11.0482","3.42805","27.048","3.844285714285714","7.3","2.305","1087.817","0","1.84","30.2369","4.75481","42.29","0","SATNPRO1963","26.832","0.37582","5"],
    [44243,"HCEP03730564","2025-01-01 04:00:00","11.0479","3.42785","27.268","3.825714285714286","7.3","2.436","1010.014","0","1.88","30.2351","4.75458","42.09","0","SATNPRO1963","26.752","0.37472","5"],
    [44244,"HCEP03730564","2025-01-01 04:15:00","11.0472","3.4277","27.454","3.818571428571428","7.31","2.438","1002.112","0","0.72","30.2341","4.75446","42","0","SATNPRO1963","26.834","0.37588","5"],
    [44245,"HCEP03730564","2025-01-01 04:30:00","11.0476","3.42787","27.661","3.82","7.3","2.298","1099.687","0","1.49","30.2354","4.75465","42.02","0","SATNPRO1963","26.872","0.37636","5"],
    [44246,"HCEP03730564","2025-01-01 04:45:00","11.048400000000001","3.42805","27.845","3.815714285714285","7.3","2.423","999.823","0","1.76","30.2364","4.75479","41.98","0","SATNPRO1963","26.896","0.37674","5"],
    [44247,"HCEP03730564","2025-01-01 05:00:00","11.0494","3.42843","28.016","3.812857142857143","7.3","2.425","993.393","0","0","30.2392","4.75518","41.93","0","SATNPRO1963","26.89","0.37668","5"],
    [44248,"HCEP03730564","2025-01-01 05:15:00","11.0506","3.42893","28.137","3.814285714285714","7.3","2.281","1099.839","0","1.21","30.2431","4.75572","41.96","0","SATNPRO1963","26.774","0.37502","5"],
    [44249,"HCEP03730564","2025-01-01 05:30:00","11.0514","3.42931","28.067","3.818571428571428","7.3","2.409","985.95","0.01","2.32","30.2462","4.75613","42","0","SATNPRO1963","26.832","0.37578","5"],
    [44250,"HCEP03730564","2025-01-01 05:45:00","11.0525","3.42962","27.948","3.844285714285714","7.3","2.41","979.514","0","0","30.2484","4.75643","42.29","0","SATNPRO1963","26.826","0.37576","5"],
    [44251,"HCEP03730564","2025-01-01 06:00:00","11.0528","3.42981","28.019","3.845714285714286","7.3","2.292","1074.261","0","1.65","30.25","4.75665","42.31","0","SATNPRO1963","26.855999999999998","0.37616","5"],
    [44252,"HCEP03730564","2025-01-01 06:15:00","11.0546","3.43038","28.079","3.838571428571428","7.29","2.394","961.349","0","3.45","30.2541","4.75721","42.24","0","SATNPRO1963","26.922","0.37708","5"],
    [44253,"HCEP03730564","2025-01-01 06:30:00","11.0558","3.4309","28.141","3.84","7.3","2.397","953.256","0","0","30.2581","4.75777","42.25","0","SATNPRO1963","26.884","0.37658","5"],
    [44254,"HCEP03730564","2025-01-01 06:45:00","11.0568","3.43136","28.19","3.854285714285714","7.3","2.302","1028.849","0.01","1.15","30.2617","4.75826","42.41","0","SATNPRO1963","26.944","0.37736","5"],
    [44255,"HCEP03730564","2025-01-01 07:00:00","11.0579","3.43192","28.218","3.871428571428571","7.29","2.418","952.002","0","1.88","30.2663","4.75891","42.6","0","SATNPRO1963","26.898","0.37676","5"],
    [44256,"HCEP03730564","2025-01-01 07:15:00","11.0679","3.43491","28.235","3.76","7.3","2.421","945.591","0","0","30.2874","4.76173","41.4","0","SATNPRO1963","26.63","0.373","5"],
    [44257,"HCEP03730564","2025-01-01 07:30:00","11.0677","3.43483","28.247","3.721428571428572","7.29","2.286","1046.146","0","1.97","30.2867","4.76164","40.96","0","SATNPRO1963","26.726","0.37432","5"],
    [44258,"HCEP03730564","2025-01-01 07:45:00","11.0651","3.43457","28.239","3.76","7.29","2.411","961.607","0","1.38","30.2864","4.76164","41.39","0","SATNPRO1963","26.51","0.37136","5"],
    [44259,"HCEP03730564","2025-01-01 08:00:00","11.0626","3.4339","28.214","3.831428571428571","7.3","2.416","956.591","0","0","30.2818","4.76102","42.17","0","SATNPRO1963","26.919999999999998","0.37706","5"],
    [44260,"HCEP03730564","2025-01-01 08:15:00","11.0557","3.43125","28.166","3.831428571428571","7.29","2.293","1105.033","0","1.76","30.2615","4.75825","42.16","0","SATNPRO1963","26.882","0.37652","5"],
    [44261,"HCEP03730564","2025-01-01 08:30:00","11.0437","3.42724","28.131","3.894285714285714","7.28","2.422","992.211","0","2.88","30.2323","4.75429","42.84","0","SATNPRO1963","27.112","0.37976","5"],
    [44262,"HCEP03730564","2025-01-01 08:45:00","11.0374","3.42459","28.068","3.891428571428572","7.3","2.425","986.368","0","0.27","30.2115","4.75144","42.79","0","SATNPRO1963","27.136","0.38012","5"],
    [44263,"HCEP03730564","2025-01-01 09:00:00","11.0269","3.42147","27.992","3.952857142857143","7.29","2.301","1101.819","0","1.49","30.1896","4.74848","43.45","0","SATNPRO1963","27.330000000000002","0.3828","5"],
    [44264,"HCEP03730564","2025-01-01 09:15:00","11.0243","3.42055","27.917","3.974285714285714","7.29","2.427","1048.71","0","1.84","30.1828","4.74756","43.67","0","SATNPRO1963","27.27","0.38194","5"],
    [44265,"HCEP03730564","2025-01-01 09:30:00","11.024","3.42062","27.837","4","7.3","2.427","1041.8","0","0.66","30.1838","4.74771","43.96","0","SATNPRO1963","27.306","0.38248","5"],
    [44266,"HCEP03730564","2025-01-01 09:45:00","11.026","3.4211","27.758","4.014285714285714","7.3","2.344","1143.348","0","1.53","30.1868","4.74809","44.11","0","SATNPRO1963","27.32","0.38268","5"],
    [44267,"HCEP03730564","2025-01-01 10:00:00","11.0276","3.42173","27.669","3.997142857142857","7.29","2.426","1058.266","0","2.3","30.1917","4.74875","43.93","0","SATNPRO1963","27.158","0.38038","5"],
    [44268,"HCEP03730564","2025-01-01 10:15:00","11.0439","3.42706","27.58","3.9","7.3","2.427","1051.036","0","0","30.2305","4.754","42.89","0","SATNPRO1963","26.934","0.37728","5"],
    [44269,"HCEP03730564","2025-01-01 10:30:00","11.0477","3.42793","27.496","3.767142857142857","7.29","2.344","1137.291","0","1.53","30.2359","4.75471","41.44","0","SATNPRO1963","26.898","0.37676","5"],
    [44270,"HCEP03730564","2025-01-01 10:45:00","11.0466","3.42765","27.425","3.737142857142858","7.29","2.435","1075.475","0","1.82","30.2342","4.75448","41.11","0","SATNPRO1963","26.88","0.37646","5"],
    [44271,"HCEP03730564","2025-01-01 11:00:00","11.0452","3.42724","27.351","3.725714285714286","7.3","2.438","1068.653","0","0","30.2313","4.75409","40.98","0","SATNPRO1963","26.806","0.37546","5"],
    [44272,"HCEP03730564","2025-01-01 11:15:00","11.0434","3.42672","27.284","3.731428571428572","7.29","2.366","1128.626","0","1.84","30.2277","4.7536","41.04","0","SATNPRO1963","26.86","0.37622","5"],
    [44273,"HCEP03730564","2025-01-01 11:30:00","11.0429","3.42677","27.223","3.772857142857143","7.29","2.433","1008.997","0","1.84","30.2286","4.75373","41.49","0","SATNPRO1963","26.894","0.3767","5"],
    [44274,"HCEP03730564","2025-01-01 11:45:00","11.0464","3.42775","27.173","3.807142857142857","7.3","2.435","1002.945","0","0.81","30.2354","4.75464","41.87","0","SATNPRO1963","27.002","0.37816","5"],
    [44275,"HCEP03730564","2025-01-01 12:00:00","11.0491","3.42857","27.116","3.77","7.29","2.309","1064.05","0","1.84","30.2412","4.75542","41.47","0","SATNPRO1963","26.752","0.3747","5"],
    [44276,"HCEP03730564","2025-01-01 12:15:00","11.0521","3.42955","27.069","3.74","7.29","2.422","988.343","0.01","1.67","30.2484","4.75639","41.14","0","SATNPRO1963","26.838","0.37594","5"],
    [44277,"HCEP03730564","2025-01-01 12:30:00","11.0553","3.43043","27.039","3.712857142857143","7.29","2.423","982.206","0","0.27","30.2543","4.75717","40.84","0","SATNPRO1963","26.868","0.3763","5"],
    [44278,"HCEP03730564","2025-01-01 12:45:00","11.0582","3.43136","27.055","3.668571428571429","7.29","2.328","1066.04","0","1.49","30.2611","4.75809","40.37","0","SATNPRO1963","26.478","0.37086","5"],
    [44279,"HCEP03730564","2025-01-01 13:00:00","11.0612","3.43242","27.044","3.627142857142857","7.3","2.414","1015.013","0","2.41","30.269","4.75916","39.92","0","SATNPRO1963","26.483999999999998","0.37098","5"],
    [44280,"HCEP03730564","2025-01-01 13:15:00","11.0634","3.43325","27.078","3.632857142857143","7.3","2.416","1008.45","0","0.47","30.2753","4.76003","39.99","0","SATNPRO1963","26.572","0.37218","5"],
    [44281,"HCEP03730564","2025-01-01 13:30:00","11.0646","3.43384","27.119","3.638571428571429","7.29","2.33","1049.519","0","1.88","30.2801","4.76069","40.05","0","SATNPRO1963","26.614","0.3728","5"],
    [44282,"HCEP03730564","2025-01-01 13:45:00","11.0651","3.43407","27.168","3.672857142857143","7.29","2.42","939.667","0","1.6","30.2818","4.76093","40.43","0","SATNPRO1963","26.524","0.37146","5"],
    [44283,"HCEP03730564","2025-01-01 14:00:00","11.0642","3.43401","27.218","3.672857142857143","7.3","2.423","933.045","0","0.72","30.2819","4.76096","40.43","0","SATNPRO1963","26.355999999999998","0.36916","5"],
    [44284,"HCEP03730564","2025-01-01 14:15:00","11.0642","3.434","27.271","3.682857142857143","7.29","2.285","1046.284","0","3.1","30.2819","4.76096","40.54","0","SATNPRO1963","26.766000000000002","0.37494","5"],
    [44285,"HCEP03730564","2025-01-01 14:30:00","11.0632","3.43382","27.344","3.695714285714286","7.29","2.411","907.68","0.01","2.67","30.2808","4.76083","40.68","0","SATNPRO1963","26.856","0.37618","5"],
    [44286,"HCEP03730564","2025-01-01 14:45:00","11.0618","3.43334","27.419","3.714285714285714","7.3","2.413","901.558","0","0","30.2773","4.76035","40.88","0","SATNPRO1963","26.77","0.37498","5"],
    [44287,"HCEP03730564","2025-01-01 15:00:00","11.0643","3.43385","27.477","3.708571428571429","7.3","2.242","1040.609","0","2.6","30.2803","4.76074","40.82","0","SATNPRO1963","26.408","0.3699","5"],
    [44288,"HCEP03730564","2025-01-01 15:15:00","11.0628","3.43359","27.519","3.688571428571429","7.29","2.404","976.114","0.01","1.82","30.2789","4.76058","40.59","0","SATNPRO1963","26.584","0.37238","5"],
    [44289,"HCEP03730564","2025-01-01 15:30:00","11.0617","3.43319","27.566","3.692857142857143","7.3","2.403","970.16","0","0.54","30.2758","4.76015","40.64","0","SATNPRO1963","26.708","0.37412","5"],
    [44290,"HCEP03730564","2025-01-01 15:45:00","11.0613","3.43305","27.613","3.695714285714286","7.29","2.321","1039.338","0","2.4","30.2748","4.76001","40.67","0","SATNPRO1963","26.488","0.371","5"],
    [44291,"HCEP03730564","2025-01-01 16:00:00","11.0592","3.43246","27.644","3.702857142857143","7.29","2.413","961.042","0","2.33","30.2708","4.75948","40.75","0","SATNPRO1963","26.892","0.37664","5"],
    [44292,"HCEP03730564","2025-01-01 16:15:00","11.0571","3.43188","27.671","3.755714285714286","7.3","2.417","955.518","0","0","30.2669","4.75896","41.32","0","SATNPRO1963","26.976","0.37782","5"],
    [44293,"HCEP03730564","2025-01-01 16:30:00","11.0573","3.43195","27.686","3.795714285714286","7.29","2.317","1092.384","0","1.27","30.2673","4.75902","41.76","0","SATNPRO1963","26.794","0.3753","5"],
    [44294,"HCEP03730564","2025-01-01 16:45:00","11.0584","3.4321","27.697","3.771428571428572","7.29","2.413","1017.937","0.01","1.97","30.2678","4.75908","41.51","0","SATNPRO1963","26.784","0.37516","5"],
    [44295,"HCEP03730564","2025-01-01 17:00:00","11.0583","3.43209","27.69","3.745714285714286","7.3","2.416","1011.778","0","0","30.2679","4.75909","41.22","0","SATNPRO1963","26.86","0.37626","5"],
    [44296,"HCEP03730564","2025-01-01 17:15:00","11.0574","3.43186","27.657","3.747142857142857","7.29","2.324","1106.747","0","1.08","30.2664","4.75889","41.24","0","SATNPRO1963","26.86","0.37622","5"],
    [44297,"HCEP03730564","2025-01-01 17:30:00","11.0561","3.43123","27.627","3.754285714285714","7.29","2.406","1049.2","0","1.94","30.2612","4.75818","41.31","0","SATNPRO1963","27.012","0.37832","5"],
    [44298,"HCEP03730564","2025-01-01 17:45:00","11.0547","3.43129","27.576","3.775714285714285","7.3","2.407","1042.709","0","0","30.263","4.75844","41.55","0","SATNPRO1963","26.904","0.37684","5"],
    [44299,"HCEP03730564","2025-01-01 18:00:00","11.0533","3.43094","27.518","3.787142857142857","7.29","2.327","1101.702","0","1.72","30.2608","4.75815","41.66","0","SATNPRO1963","26.882","0.37654","5"],
    [44300,"HCEP03730564","2025-01-01 18:15:00","11.0534","3.43092","27.457","3.794285714285714","7.29","2.4","1024.702","0.01","2.14","30.2605","4.7581","41.75","0","SATNPRO1963","26.812","0.37556","5"],
    [44301,"HCEP03730564","2025-01-01 18:30:00","11.0528","3.43078","27.373","3.79","7.3","2.399","1018.408","0","0.27","30.2597","4.75799","41.71","0","SATNPRO1963","26.806","0.37548","5"],
    [44302,"HCEP03730564","2025-01-01 18:45:00","11.0514","3.43074","27.274","3.815714285714285","7.3","2.297","1078.31","0","1.46","30.2605","4.75812","41.99","0","SATNPRO1963","27.302","0.38238","5"],
    [44303,"HCEP03730564","2025-01-01 19:00:00","11.0507","3.4307","27.153","3.844285714285714","7.3","2.392","980.206","0.01","1.9","30.2607","4.75816","42.3","0","SATNPRO1963","26.782","0.37514","5"],
    [44304,"HCEP03730564","2025-01-01 19:15:00","11.0508","3.43062","27.006","3.854285714285714","7.31","2.39","973.616","0","0","30.2599","4.75804","42.4","0","SATNPRO1963","26.919999999999998","0.37706","5"],
    [44305,"HCEP03730564","2025-01-01 19:30:00","11.0499","3.43043","26.84","3.861428571428571","7.3","2.284","1053.218","0","1.27","30.2589","4.75789","42.48","0","SATNPRO1963","26.862000000000002","0.37624","5"],
    [44306,"HCEP03730564","2025-01-01 19:45:00","11.0503","3.4304","26.68","3.868571428571429","7.3","2.394","1006.711","0","1.8","30.2583","4.75779","42.57","0","SATNPRO1963","26.732","0.37442","5"],
    [44307,"HCEP03730564","2025-01-01 20:00:00","11.0506","3.43039","26.516","3.862857142857143","7.31","2.394","999.845","0","0.54","30.258","4.75774","42.49","0","SATNPRO1963","26.744","0.37462","5"],
    [44308,"HCEP03730564","2025-01-01 20:15:00","11.0515","3.43034","26.342","3.837142857142857","7.3","2.278","1071.224","0","1.21","30.2569","4.75755","42.21","0","SATNPRO1963","26.916","0.377","5"],
    [44309,"HCEP03730564","2025-01-01 20:30:00","11.0522","3.43038","26.114","3.808571428571429","7.29","2.381","955.01","0","1.46","30.2568","4.75752","41.91","0","SATNPRO1963","26.752","0.37472","5"],
    [44310,"HCEP03730564","2025-01-01 20:45:00","11.0536","3.43058","25.894","3.781428571428571","7.3","2.381","948.901","0","0","30.2576","4.7576","41.6","0","SATNPRO1963","26.881999999999998","0.37652","5"],
    [44311,"HCEP03730564","2025-01-01 21:00:00","11.0545","3.43066","25.656","3.748571428571429","7.3","2.261","1032.338","0","1.21","30.2578","4.7576","41.25","0","SATNPRO1963","26.78","0.3751","5"],
    [44312,"HCEP03730564","2025-01-01 21:15:00","11.0549","3.43074","25.397","3.721428571428572","7.29","2.38","954.241","0","1.67","30.2584","4.75767","40.94","0","SATNPRO1963","26.86","0.37626","5"],
    [44313,"HCEP03730564","2025-01-01 21:30:00","11.0549","3.43062","25.15","3.701428571428572","7.3","2.38","947.089","0","0","30.2573","4.7575","40.73","0","SATNPRO1963","26.636","0.37312","5"],
    [44314,"HCEP03730564","2025-01-01 21:45:00","11.0544","3.43053","24.903","3.688571428571429","7.29","2.246","1030.452","0","1.58","30.2569","4.75743","40.58","0","SATNPRO1963","26.644000000000002","0.37318","5"],
    [44315,"HCEP03730564","2025-01-01 22:00:00","11.0547","3.43043","24.654","3.68","7.29","2.368","949.377","0.01","2.1","30.2557","4.75725","40.49","0","SATNPRO1963","26.954","0.37754","5"],
    [44316,"HCEP03730564","2025-01-01 22:15:00","11.0547","3.43041","24.443","3.675714285714286","7.29","2.368","943.331","0","0","30.2557","4.75724","40.44","0","SATNPRO1963","26.838","0.37594","5"],
    [44317,"HCEP03730564","2025-01-01 22:30:00","11.0544","3.43036","24.266","3.668571428571429","7.29","2.223","1036.979","0.01","1.56","30.2555","4.7572","40.37","0","SATNPRO1963","26.61","0.37272","5"],
    [44318,"HCEP03730564","2025-01-01 22:45:00","11.0543","3.43032","24.13","3.662857142857143","7.29","2.366","928.049","0.01","1.9","30.2553","4.75716","40.3","0","SATNPRO1963","26.843999999999998","0.37602","5"],
    [44319,"HCEP03730564","2025-01-01 23:00:00","11.0545","3.43041","24.013","3.655714285714286","7.29","2.368","922.098","0","0.38","30.256","4.75726","40.22","0","SATNPRO1963","27.026","0.3785","5"],
    [44320,"HCEP03730564","2025-01-01 23:15:00","11.0545","3.43035","23.93","3.65","7.29","2.236","1028.816","0","2.2","30.2555","4.75718","40.17","0","SATNPRO1963","26.796","0.37532","5"],
    [44321,"HCEP03730564","2025-01-01 23:30:00","11.0541","3.4303","23.904","3.647142857142857","7.28","2.358","896.77","0","1.78","30.2553","4.75715","40.12","0","SATNPRO1963","26.578","0.3723","5"],
    [44322,"HCEP03730564","2025-01-01 23:45:00","11.054","3.43022","23.906","3.642857142857143","7.29","2.36","888.386","0","0.9","30.2546","4.75706","40.07","0","SATNPRO1963","26.736","0.37446","5"],
    [44323,"HCEP03730564","2025-01-02 00:00:00","11.0537","3.43017","23.931","3.648571428571429","7.29","2.219","1026.222","0","1.8","30.2544","4.75703","40.15","0","SATNPRO1963","26.776","0.37504","5"],
    [44324,"HCEP03730564","2025-01-02 00:15:00","11.054","3.43016","23.952","3.661428571428572","7.29","2.377","936.429","0","2.52","30.254","4.75698","40.29","0","SATNPRO1963","26.742","0.37454","5"],
    [44325,"HCEP03730564","2025-01-02 00:30:00","11.054","3.43023","24.002","3.665714285714286","7.29","2.378","930.427","0","0.98","30.2547","4.75707","40.33","0","SATNPRO1963","26.856","0.37616","5"],
    [44326,"HCEP03730564","2025-01-02 00:45:00","11.0544","3.43033","24.089","3.674285714285714","7.29","2.25","1050.375","0","1.21","30.2553","4.75716","40.43","0","SATNPRO1963","26.78","0.37508","5"],
    [44327,"HCEP03730564","2025-01-02 01:00:00","11.0541","3.43026","24.223","3.672857142857143","7.28","2.386","942.659","0","4.82","30.2548","4.7571","40.4","0","SATNPRO1963","26.842","0.37596","5"],
    [44328,"HCEP03730564","2025-01-02 01:15:00","11.054","3.43017","24.374","3.66","7.29","2.389","936.438","0","0","30.2539","4.75699","40.27","0","SATNPRO1963","26.744","0.3746","5"],
    [44329,"HCEP03730564","2025-01-02 01:30:00","11.0541","3.43014","24.505","3.674285714285714","7.29","2.266","1081.486","0","1.84","30.2535","4.75693","40.42","0","SATNPRO1963","26.78","0.37508","5"],
    [44330,"HCEP03730564","2025-01-02 01:45:00","11.0545","3.43015","24.695","3.625714285714285","7.29","2.379","956.755","0","2.07","30.2531","4.75689","39.89","0","SATNPRO1963","26.366","0.36934","5"],
    [44331,"HCEP03730564","2025-01-02 02:00:00","11.0537","3.42995","24.885","3.594285714285714","7.3","2.381","951.612","0","0","30.2519","4.75673","39.55","0","SATNPRO1963","26.564","0.37208","5"],
    [44332,"HCEP03730564","2025-01-02 02:15:00","11.052","3.42935","25.08","3.594285714285714","7.29","2.27","1077.233","0","1.33","30.2473","4.75612","39.55","0","SATNPRO1963","26.497999999999998","0.37112","5"],
    [44333,"HCEP03730564","2025-01-02 02:30:00","11.0508","3.42891","25.283","3.62","7.28","2.374","1012.797","0","2.57","30.244","4.75568","39.82","0","SATNPRO1963","26.496","0.37108","5"],
    [44334,"HCEP03730564","2025-01-02 02:45:00","11.0501","3.42871","25.487","3.62","7.29","2.374","1004.315","0","0.27","30.2424","4.75547","39.82","0","SATNPRO1963","26.77","0.37496","5"],
    [44335,"HCEP03730564","2025-01-02 03:00:00","11.0497","3.42859","25.697","3.607142857142857","7.29","2.314","1070.486","0","1.27","30.2415","4.75536","39.67","0","SATNPRO1963","26.938","0.37732","5"],
    [44336,"HCEP03730564","2025-01-02 03:15:00","11.0498","3.42868","25.912","3.612857142857143","7.28","2.401","962.074","0","1.69","30.2422","4.75547","39.74","0","SATNPRO1963","26.802","0.3754","5"],
    [44337,"HCEP03730564","2025-01-02 03:30:00","11.0507","3.42888","26.139","3.618571428571428","7.29","2.403","957.166","0","0","30.2434","4.75564","39.81","0","SATNPRO1963","26.78","0.37512","5"],
    [44338,"HCEP03730564","2025-01-02 03:45:00","11.0507","3.42885","26.373","3.61","7.29","2.281","1036.707","0","1.74","30.2429","4.75559","39.72","0","SATNPRO1963","26.74","0.37454","5"],
    [44339,"HCEP03730564","2025-01-02 04:00:00","11.0504","3.42873","26.608","3.601428571428571","7.29","2.391","922.748","0","1.8","30.2419","4.75547","39.62","0","SATNPRO1963","26.88","0.3765","5"],
    [44340,"HCEP03730564","2025-01-02 04:15:00","11.0496","3.42845","26.821","3.582857142857143","7.29","2.393","917.239","0","0","30.2398","4.75519","39.41","0","SATNPRO1963","26.701999999999998","0.374","5"],
    [44341,"HCEP03730564","2025-01-02 04:30:00","11.0495","3.42843","27.032","3.558571428571429","7.29","2.27","1036.141","0","1.97","30.2396","4.75517","39.15","0","SATNPRO1963","26.346","0.36902","5"],
    [44342,"HCEP03730564","2025-01-02 04:45:00","11.0495","3.42845","27.238","3.532857142857143","7.29","2.383","960.705","0","1.67","30.2397","4.7552","38.87","0","SATNPRO1963","26.29","0.36824","5"],
    [44343,"HCEP03730564","2025-01-02 05:00:00","11.0489","3.42828","27.424","3.528571428571429","7.29","2.384","955.172","0","0","30.2384","4.75504","38.82","0","SATNPRO1963","26.428","0.37018","5"],
    [44344,"HCEP03730564","2025-01-02 05:15:00","11.0471","3.42788","27.598","3.552857142857143","7.29","2.288","1037.828","0","1.01","30.2359","4.75472","39.09","0","SATNPRO1963","26.526","0.37152","5"],
    [44345,"HCEP03730564","2025-01-02 05:30:00","11.048400000000001","3.42812","27.782","3.577142857142857","7.29","2.392","938.165","0","2.15","30.2371","4.75488","39.35","0","SATNPRO1963","26.32","0.36864","5"],
    [44346,"HCEP03730564","2025-01-02 05:45:00","11.0499","3.42857","27.943","3.562857142857143","7.29","2.393","931.42","0","0.47","30.2402","4.75531","39.19","0","SATNPRO1963","26.462","0.37062","5"],
    [44347,"HCEP03730564","2025-01-02 06:00:00","11.0505","3.4288","28.161","3.557142857142857","7.29","2.285","1044.586","0.01","1.24","30.2419","4.75555","39.13","0","SATNPRO1963","26.424","0.37016","5"],
    [44348,"HCEP03730564","2025-01-02 06:15:00","11.0527","3.42962","28.241","3.558571428571429","7.28","2.393","953.159","0","1.97","30.2481","4.7564","39.15","0","SATNPRO1963","26.53","0.3716","5"],
    [44349,"HCEP03730564","2025-01-02 06:30:00","11.0521","3.42949","28.219","3.542857142857143","7.29","2.394","947.305","0","0.27","30.2473","4.75629","38.98","0","SATNPRO1963","26.396","0.36972","5"],
    [44350,"HCEP03730564","2025-01-02 06:45:00","11.0532","3.42989","28.165","3.565714285714286","7.29","2.265","1026.526","0","1.49","30.2504","4.75672","39.23","0","SATNPRO1963","26.496","0.37112","5"],
    [44351,"HCEP03730564","2025-01-02 07:00:00","11.0524","3.42994","28.137","3.597142857142857","7.28","2.39","938.991","0.01","1.86","30.2515","4.75689","39.58","0","SATNPRO1963","26.53","0.3716","5"],
    [44352,"HCEP03730564","2025-01-02 07:15:00","11.0513","3.42976","28.143","3.614285714285714","7.29","2.391","933.312","0","0.27","30.2507","4.75678","39.76","0","SATNPRO1963","26.384","0.36956","5"],
    [44353,"HCEP03730564","2025-01-02 07:30:00","11.0482","3.42864","28.171","3.627142857142857","7.29","2.288","1041.199","0.01","1.82","30.2423","4.75564","39.89","0","SATNPRO1963","26.602","0.37262","5"],
    [44354,"HCEP03730564","2025-01-02 07:45:00","11.0445","3.42748","28.149","3.638571428571429","7.28","2.359","912.775","0.01","1.8","30.234","4.75452","40.02","0","SATNPRO1963","26.552","0.37188","5"],
    [44355,"HCEP03730564","2025-01-02 08:00:00","11.0393","3.42568","28.123","3.624285714285714","7.29","2.36","905.962","0","0.81","30.2206","4.7527","39.85","0","SATNPRO1963","26.598","0.37254","5"],
    [44356,"HCEP03730564","2025-01-02 08:15:00","11.0357","3.42449","28.113","3.624285714285714","7.29","2.226","1031.581","0","1.92","30.2119","4.75153","39.85","0","SATNPRO1963","26.358","0.36918","5"],
    [44357,"HCEP03730564","2025-01-02 08:30:00","11.0352","3.42428","28.083","3.642857142857143","7.28","2.363","918.47","0.01","1.9","30.2103","4.7513","40.06","0","SATNPRO1963","26.554000000000002","0.37194","5"],
    [44358,"HCEP03730564","2025-01-02 08:45:00","11.0316","3.4235","28.055","3.665714285714286","7.29","2.364","912.964","0","0.38","30.2056","4.75069","40.3","0","SATNPRO1963","26.474","0.3708","5"],
    [44359,"HCEP03730564","2025-01-02 09:00:00","11.0309","3.42272","28.007","3.695714285714286","7.29","2.261","1030.395","0","1.15","30.1986","4.74971","40.63","0","SATNPRO1963","26.782","0.37514","5"],
    [44360,"HCEP03730564","2025-01-02 09:15:00","11.0326","3.42358","27.961","3.708571428571429","7.29","2.369","922.344","0","1.6","30.2057","4.75068","40.77","0","SATNPRO1963","26.744","0.3746","5"],
    [44361,"HCEP03730564","2025-01-02 09:30:00","11.0349","3.42436","27.906","3.69","7.29","2.371","916.423","0","0.27","30.2114","4.75144","40.57","0","SATNPRO1963","26.784","0.37512","5"],
    [44362,"HCEP03730564","2025-01-02 09:45:00","11.0382","3.42537","27.835","3.664285714285714","7.29","2.261","1059.756","0","1.51","30.2186","4.75241","40.3","0","SATNPRO1963","26.546","0.37186","5"],
    [44363,"HCEP03730564","2025-01-02 10:00:00","11.0404","3.42606","27.749","3.652857142857143","7.28","2.381","955.097","0","1.88","30.2235","4.75308","40.17","0","SATNPRO1963","26.596","0.37254","5"],
    [44364,"HCEP03730564","2025-01-02 10:15:00","11.0418","3.42651","27.66","3.644285714285715","7.29","2.384","949.764","0","0.61","30.2268","4.75351","40.07","0","SATNPRO1963","26.516","0.37144","5"],
    [44365,"HCEP03730564","2025-01-02 10:30:00","11.0419","3.42653","27.582","3.627142857142857","7.28","2.296","1026.482","0","2.1","30.227","4.75354","39.89","0","SATNPRO1963","26.522","0.37146","5"],
    [44366,"HCEP03730564","2025-01-02 10:45:00","11.0426","3.42675","27.497","3.612857142857143","7.28","2.391","980.712","0","2.38","30.2286","4.75375","39.74","0","SATNPRO1963","26.6","0.37258","5"],
    [44367,"HCEP03730564","2025-01-02 11:00:00","11.045","3.42741","27.394","3.597142857142857","7.29","2.393","973.878","0","0.38","30.2332","4.75435","39.57","0","SATNPRO1963","26.57","0.37218","5"],
    [44368,"HCEP03730564","2025-01-02 11:15:00","11.0469","3.42799","27.297","3.58","7.28","2.308","1037.353","0","2.19","30.2373","4.7549","39.37","0","SATNPRO1963","26.564","0.3721","5"],
    [44369,"HCEP03730564","2025-01-02 11:30:00","11.0479","3.42839","27.197","3.571428571428572","7.28","2.389","992.099","0","2.01","30.2404","4.75533","39.29","0","SATNPRO1963","26.836000000000002","0.3759","5"],
    [44370,"HCEP03730564","2025-01-02 11:45:00","11.0474","3.42872","27.101","3.587142857142857","7.29","2.392","986.192","0","0.27","30.2441","4.75585","39.46","0","SATNPRO1963","26.674","0.3736","5"],
    [44371,"HCEP03730564","2025-01-02 12:00:00","11.0469","3.42887","27.031","3.614285714285714","7.28","2.297","1064.671","0","1.58","30.2461","4.75613","39.76","0","SATNPRO1963","26.663999999999998","0.3735","5"],
    [44372,"HCEP03730564","2025-01-02 12:15:00","11.042","3.42862","26.969","3.642857142857143","7.28","2.383","950.943","0","1.92","30.2476","4.75642","40.07","0","SATNPRO1963","26.736","0.37444","5"],
    [44373,"HCEP03730564","2025-01-02 12:30:00","11.0438","3.42888","26.922","3.682857142857143","7.29","2.385","944.159","0","0.47","30.2487","4.75655","40.5","0","SATNPRO1963","26.733999999999998","0.37444","5"],
    [44374,"HCEP03730564","2025-01-02 12:45:00","11.0445","3.4291","26.883","3.661428571428572","7.28","2.255","1046.692","0","1.78","30.2503","4.75676","40.27","0","SATNPRO1963","26.774","0.37496","5"],
    [44375,"HCEP03730564","2025-01-02 13:00:00","11.042","3.42885","26.869","3.65","7.28","2.376","921.653","0","1.44","30.2499","4.75674","40.14","0","SATNPRO1963","26.884","0.37654","5"],
    [44376,"HCEP03730564","2025-01-02 13:15:00","11.041","3.42878","26.872","3.675714285714286","7.29","2.378","916.37","0","0","30.25","4.75677","40.42","0","SATNPRO1963","26.556","0.37196","5"],
    [44377,"HCEP03730564","2025-01-02 13:30:00","11.0424","3.42911","26.892","3.687142857142857","7.28","2.239","1035.483","0","1.27","30.2521","4.75706","40.56","0","SATNPRO1963","26.684","0.37376","5"],
    [44378,"HCEP03730564","2025-01-02 13:45:00","11.0468","3.42955","26.925","3.645714285714286","7.28","2.371","915.154","0","1.94","30.2528","4.75708","40.11","0","SATNPRO1963","26.632","0.37304","5"],
    [44379,"HCEP03730564","2025-01-02 14:00:00","11.0347","3.4283","26.988","3.651428571428572","7.29","2.372","909.217","0","0","30.2505","4.75694","40.16","0","SATNPRO1963","26.64","0.37314","5"],
    [44380,"HCEP03730564","2025-01-02 14:15:00","11.0387","3.42868","27.048","3.734285714285714","7.28","2.221","999.245","0","1.49","30.2509","4.75694","41.07","0","SATNPRO1963","26.788","0.37518","5"],
    [44381,"HCEP03730564","2025-01-02 14:30:00","11.0271","3.4274","27.103","3.74","7.28","2.359","908.533","0.01","1.88","30.2478","4.75669","41.13","0","SATNPRO1963","26.826","0.37576","5"],
    [44382,"HCEP03730564","2025-01-02 14:45:00","11.0355","3.4284","27.18","3.801428571428572","7.29","2.361","903.123","0","0","30.2508","4.75698","41.81","0","SATNPRO1963","26.588","0.37236","5"],
    [44383,"HCEP03730564","2025-01-02 15:00:00","11.0354","3.42843","27.273","3.747142857142857","7.29","2.206","1001.912","0","1.08","30.2511","4.75704","41.2","0","SATNPRO1963","26.948","0.37746","5"],
    [44384,"HCEP03730564","2025-01-02 15:15:00","11.033","3.42818","27.309","3.738571428571428","7.29","2.349","921.101","0.01","1.82","30.2506","4.757","41.12","0","SATNPRO1963","26.794","0.37528","5"],
    [44385,"HCEP03730564","2025-01-02 15:30:00","11.0303","3.42792","27.365","3.775714285714285","7.29","2.35","915.354","0","0","30.2502","4.75699","41.53","0","SATNPRO1963","26.918","0.37704","5"],
    [44386,"HCEP03730564","2025-01-02 15:45:00","11.0299","3.42789","27.423","3.794285714285714","7.29","2.214","995.807","0","1.69","30.2503","4.75701","41.73","0","SATNPRO1963","26.924","0.3771","5"],
    [44387,"HCEP03730564","2025-01-02 16:00:00","11.0286","3.42767","27.491","3.802857142857143","7.29","2.369","903.796","0","1.51","30.2492","4.75688","41.81","0","SATNPRO1963","26.816","0.37558","5"],
    [44388,"HCEP03730564","2025-01-02 16:15:00","11.0264","3.42747","27.536","3.822857142857143","7.3","2.371","897.857","0","0","30.249","4.75689","42.03","0","SATNPRO1963","26.798000000000002","0.3754","5"],
    [44389,"HCEP03730564","2025-01-02 16:30:00","11.0253","3.42742","27.563","3.868571428571429","7.3","2.229","1015.673","0","1.97","30.2494","4.75697","42.53","0","SATNPRO1963","26.919999999999998","0.37706","5"],
    [44390,"HCEP03730564","2025-01-02 16:45:00","11.0271","3.42752","27.594","3.87","7.29","2.34","956.993","0.01","2.29","30.2488","4.75686","42.54","0","SATNPRO1963","26.716","0.3742","5"],
    [44391,"HCEP03730564","2025-01-02 17:00:00","11.0258","3.42738","27.613","3.86","7.3","2.34","950.348","0","0.38","30.2485","4.75684","42.43","0","SATNPRO1963","26.88","0.37646","5"],
    [44392,"HCEP03730564","2025-01-02 17:15:00","11.0194","3.42671","27.615","3.881428571428572","7.3","2.259","1047.832","0","1.38","30.2472","4.75675","42.67","0","SATNPRO1963","26.856","0.37616","5"],
    [44393,"HCEP03730564","2025-01-02 17:30:00","11.0148","3.42625","27.629","3.915714285714286","7.3","2.367","955.032","0.01","1.84","30.2466","4.75673","43.05","0","SATNPRO1963","26.852","0.37614","5"],
    [44394,"HCEP03730564","2025-01-02 17:45:00","11.0065","3.42527","27.635","3.962857142857143","7.31","2.366","948.836","0","0","30.2437","4.75646","43.56","0","SATNPRO1963","26.692","0.37388","5"],
    [44395,"HCEP03730564","2025-01-02 18:00:00","11.0004","3.42473","27.652","4.071428571428572","7.31","2.291","1048.766","0","0.98","30.2435","4.75651","44.75","0","SATNPRO1963","26.818","0.37566","5"],
    [44396,"HCEP03730564","2025-01-02 18:15:00","10.9987","3.42455","27.607","4.137142857142857","7.31","2.381","1009.266","0.01","2.14","30.2432","4.7565","45.45","0","SATNPRO1963","26.994","0.37808","5"],
    [44397,"HCEP03730564","2025-01-02 18:30:00","10.9979","3.42454","27.555","4.171428571428572","7.32","2.382","1002.678","0","0.86","30.2438","4.75659","45.84","0","SATNPRO1963","27.018","0.37848","5"],
    [44398,"HCEP03730564","2025-01-02 18:45:00","10.997","3.42446","27.486","4.191428571428572","7.31","2.281","1067.478","0","1.3","30.2437","4.75659","46.05","0","SATNPRO1963","27.07","0.37916","5"],
    [44399,"HCEP03730564","2025-01-02 19:00:00","11.0058","3.4253","27.389","4.19","7.31","2.385","1011.936","0","2.53","30.2448","4.7566","46.05","0","SATNPRO1963","26.88","0.37656","5"],
    [44400,"HCEP03730564","2025-01-02 19:15:00","11.0177","3.42639","27.274","4.057142857142857","7.32","2.386","1004.203","0","0","30.2457","4.75654","44.61","0","SATNPRO1963","26.808","0.3755","5"],
    [44401,"HCEP03730564","2025-01-02 19:30:00","11.0268","3.42727","27.123","3.964285714285714","7.31","2.308","1052.921","0","1.6","30.2469","4.75656","43.59","0","SATNPRO1963","26.944","0.37738","5"],
    [44402,"HCEP03730564","2025-01-02 19:45:00","11.0313","3.42761","26.958","3.868571428571429","7.3","2.372","987.659","0.01","1.8","30.2465","4.75643","42.55","0","SATNPRO1963","26.894000000000002","0.37674","5"],
    [44403,"HCEP03730564","2025-01-02 20:00:00","11.0358","3.42783","26.805","3.805714285714286","7.31","2.373","982.052","0","0.47","30.2451","4.75615","41.85","0","SATNPRO1963","26.86","0.37622","5"],
    [44404,"HCEP03730564","2025-01-02 20:15:00","11.0367","3.42753","26.614","3.757142857142857","7.3","2.274","1049.291","0","1.51","30.2414","4.7556","41.31","0","SATNPRO1963","26.97","0.37776","5"],
    [44405,"HCEP03730564","2025-01-02 20:30:00","11.0364","3.42739","26.447","3.775714285714285","7.3","2.36","949.765","0","1.56","30.2403","4.75545","41.51","0","SATNPRO1963","27.01","0.37828","5"],
    [44406,"HCEP03730564","2025-01-02 20:45:00","11.0372","3.42704","26.286","3.77","7.3","2.361","943.621","0","0.27","30.2364","4.75487","41.46","0","SATNPRO1963","26.858","0.37616","5"],
    [44407,"HCEP03730564","2025-01-02 21:00:00","11.0385","3.42708","26.083","3.762857142857143","7.29","2.244","1026.301","0","1.9","30.2357","4.75474","41.39","0","SATNPRO1963","26.856","0.37616","5"],
    [44408,"HCEP03730564","2025-01-02 21:15:00","11.0387","3.42693","25.882","3.745714285714286","7.3","2.362","918.119","0","1.58","30.2343","4.75452","41.19","0","SATNPRO1963","26.874","0.37642","5"],
    [44409,"HCEP03730564","2025-01-02 21:30:00","11.0383","3.4267","25.668","3.72","7.3","2.365","912.901","0","0.61","30.2324","4.75424","40.91","0","SATNPRO1963","26.892","0.3767","5"],
    [44410,"HCEP03730564","2025-01-02 21:45:00","11.0376","3.4264","25.481","3.711428571428571","7.29","2.239","1017.197","0","1.58","30.2301","4.75393","40.81","0","SATNPRO1963","26.9","0.37678","5"],
    [44411,"HCEP03730564","2025-01-02 22:00:00","11.0375","3.42628","25.279","3.701428571428572","7.29","2.367","926.45","0","1.53","30.2291","4.75377","40.71","0","SATNPRO1963","26.882","0.3765","5"],
    [44412,"HCEP03730564","2025-01-02 22:15:00","11.0378","3.42614","25.075","3.695714285714286","7.3","2.368","919.062","0","0","30.2275","4.75354","40.64","0","SATNPRO1963","26.808","0.37548","5"],
    [44413,"HCEP03730564","2025-01-02 22:30:00","11.0381","3.42609","24.852","3.682857142857143","7.29","2.249","1023.553","0.01","1.53","30.2269","4.75343","40.49","0","SATNPRO1963","26.764","0.3749","5"],
    [44414,"HCEP03730564","2025-01-02 22:45:00","11.0384","3.42603","24.618","3.665714285714286","7.29","2.362","918.501","0","1.58","30.2261","4.7533","40.32","0","SATNPRO1963","26.666","0.37346","5"],
    [44415,"HCEP03730564","2025-01-02 23:00:00","11.0387","3.426","24.423","3.652857142857143","7.3","2.362","912.246","0","0","30.2257","4.75322","40.16","0","SATNPRO1963","26.794","0.37528","5"],
    [44416,"HCEP03730564","2025-01-02 23:15:00","11.0389","3.42589","24.259","3.64","7.29","2.244","991.822","0","1.51","30.2245","4.75303","40.03","0","SATNPRO1963","26.918","0.37706","5"],
    [44417,"HCEP03730564","2025-01-02 23:30:00","11.0387","3.4259","24.136","3.625714285714285","7.29","2.351","894.354","0","1.92","30.2249","4.75309","39.87","0","SATNPRO1963","26.68","0.3737","5"],
    [44418,"HCEP03730564","2025-01-02 23:45:00","11.0384","3.42583","24.041","3.614285714285714","7.29","2.352","888.646","0","0.81","30.2245","4.75303","39.74","0","SATNPRO1963","26.706","0.37406","5"],
    [44419,"HCEP03730564","2025-01-03 00:00:00","11.038","3.42578","23.966","3.622857142857143","7.29","2.203","987.791","0","1.49","30.2243","4.75301","39.84","0","SATNPRO1963","26.824","0.37572","5"],
    [44420,"HCEP03730564","2025-01-03 00:15:00","11.0381","3.42577","23.919","3.628571428571429","7.28","2.348","887.918","0.01","1.56","30.2242","4.75299","39.91","0","SATNPRO1963","26.79","0.37526","5"],
    [44421,"HCEP03730564","2025-01-03 00:30:00","11.0373","3.42564","23.921","3.631428571428571","7.29","2.348","882.389","0","0","30.2235","4.75291","39.94","0","SATNPRO1963","26.92","0.37706","5"],
    [44422,"HCEP03730564","2025-01-03 00:45:00","11.0378","3.42582","23.972","3.634285714285714","7.29","2.237","990.407","0","1.38","30.2248","4.75309","39.96","0","SATNPRO1963","26.826","0.37576","5"],
    [44423,"HCEP03730564","2025-01-03 01:00:00","11.0387","3.42589","24.015","3.621428571428572","7.28","2.362","911.307","0","1.74","30.2248","4.75308","39.83","0","SATNPRO1963","26.754","0.37476","5"],
    [44424,"HCEP03730564","2025-01-03 01:15:00","11.0386","3.42583","24.046","3.601428571428571","7.29","2.364","904.91","0","0.27","30.2243","4.75301","39.6","0","SATNPRO1963","26.972","0.3778","5"],
    [44425,"HCEP03730564","2025-01-03 01:30:00","11.0388","3.42583","24.169","3.605714285714286","7.28","2.257","1014.306","0","1.41","30.224","4.75297","39.64","0","SATNPRO1963","27.03","0.37862","5"],
    [44426,"HCEP03730564","2025-01-03 01:45:00","11.0384","3.42554","24.309","3.6","7.28","2.367","948.708","0.01","2.29","30.2215","4.75262","39.59","0","SATNPRO1963","26.741999999999997","0.37456","5"],
    [44427,"HCEP03730564","2025-01-03 02:00:00","11.0377","3.4252","24.465","3.584285714285714","7.29","2.367","942.384","0","0.47","30.2186","4.75224","39.41","0","SATNPRO1963","26.9","0.3768","5"],
    [44428,"HCEP03730564","2025-01-03 02:15:00","11.0372","3.42491","24.642","3.565714285714286","7.28","2.263","1022.103","0","1.15","30.2162","4.75192","39.21","0","SATNPRO1963","26.844","0.37604","5"],
    [44429,"HCEP03730564","2025-01-03 02:30:00","11.0366","3.42463","24.799","3.558571428571429","7.28","2.355","955.389","0.01","1.92","30.2139","4.7516","39.13","0","SATNPRO1963","26.812","0.37556","5"],
    [44430,"HCEP03730564","2025-01-03 02:45:00","11.0363","3.42436","24.988","3.564285714285714","7.28","2.356","949.182","0","0","30.2114","4.75126","39.19","0","SATNPRO1963","26.62","0.37284","5"],
    [44431,"HCEP03730564","2025-01-03 03:00:00","11.0355","3.42403","25.195","3.548571428571428","7.28","2.258","1027.326","0","1.51","30.2087","4.7509","39.01","0","SATNPRO1963","26.74","0.37454","5"],
    [44432,"HCEP03730564","2025-01-03 03:15:00","11.0336","3.42342","25.387","3.528571428571429","7.27","2.354","940.848","0","1.88","30.2042","4.75031","38.79","0","SATNPRO1963","27.152","0.38034","5"],
    [44433,"HCEP03730564","2025-01-03 03:30:00","11.0335","3.42314","25.584","3.52","7.28","2.354","934.928","0","0","30.2015","4.74993","38.7","0","SATNPRO1963","27.078","0.37926","5"],
    [44434,"HCEP03730564","2025-01-03 03:45:00","11.0326","3.42276","25.785","3.511428571428572","7.27","2.261","1032.847","0","1.15","30.1984","4.74952","38.6","0","SATNPRO1963","27.138","0.38014","5"],
    [44435,"HCEP03730564","2025-01-03 04:00:00","11.0322","3.42263","26.021","3.495714285714286","7.27","2.365","946.303","0.01","2.01","30.1974","4.7494","38.43","0","SATNPRO1963","26.89","0.37666","5"],
    [44436,"HCEP03730564","2025-01-03 04:15:00","11.032","3.42249","26.242","3.471428571428572","7.28","2.366","939.698","0","0.61","30.1961","4.74923","38.16","0","SATNPRO1963","26.854","0.37612","5"],
    [44437,"HCEP03730564","2025-01-03 04:30:00","11.0321","3.42262","26.476","3.462857142857143","7.27","2.264","1016.67","0","1.38","30.1972","4.7494","38.07","0","SATNPRO1963","26.882","0.37656","5"],
    [44438,"HCEP03730564","2025-01-03 04:45:00","11.0316","3.42246","26.712","3.457142857142857","7.27","2.364","927.995","0","1.78","30.196","4.74925","38.01","0","SATNPRO1963","26.814","0.37554","5"],
    [44439,"HCEP03730564","2025-01-03 05:00:00","11.0331","3.42282","26.922","3.452857142857143","7.28","2.364","922.619","0","0.38","30.1982","4.74954","37.96","0","SATNPRO1963","26.62","0.37284","5"],
    [44440,"HCEP03730564","2025-01-03 05:15:00","11.0311","3.42213","27.131","3.448571428571429","7.27","2.226","1002.412","0","1.3","30.1931","4.74887","37.9","0","SATNPRO1963","27.156","0.38034","5"],
    [44441,"HCEP03730564","2025-01-03 05:30:00","11.0316","3.42246","27.322","3.464285714285714","7.27","2.35","899.609","0.01","2.35","30.1957","4.74925","38.08","0","SATNPRO1963","26.99","0.37808","5"],
    [44442,"HCEP03730564","2025-01-03 05:45:00","11.0338","3.42318","27.517","3.468571428571428","7.28","2.351","893.381","0","0.27","30.2009","4.74996","38.13","0","SATNPRO1963","26.67","0.37358","5"],
    [44443,"HCEP03730564","2025-01-03 06:00:00","11.035","3.42365","27.699","3.452857142857143","7.27","2.198","973.55","0","1.27","30.2044","4.75045","37.96","0","SATNPRO1963","26.772000000000002","0.37498","5"],
    [44444,"HCEP03730564","2025-01-03 06:15:00","11.0362","3.42421","27.847","3.447142857142857","7.27","2.333","872.336","0.01","1.86","30.2088","4.75106","37.9","0","SATNPRO1963","26.692","0.37386","5"],
    [44445,"HCEP03730564","2025-01-03 06:30:00","11.0367","3.42456","27.871","3.462857142857143","7.28","2.333","865.749","0","0.72","30.2118","4.75148","38.07","0","SATNPRO1963","26.754","0.37474","5"],
    [44446,"HCEP03730564","2025-01-03 06:45:00","11.0371","3.42477","27.865","3.482857142857143","7.27","2.175","961.313","0","1.08","30.2136","4.75173","38.3","0","SATNPRO1963","26.748","0.37466","5"],
    [44447,"HCEP03730564","2025-01-03 07:00:00","11.0367","3.4249","27.871","3.488571428571429","7.27","2.345","873.574","0","1.63","30.2152","4.75196","38.37","0","SATNPRO1963","26.87","0.37638","5"],
    [44448,"HCEP03730564","2025-01-03 07:15:00","11.0368","3.42526","27.94","3.507142857142857","7.28","2.346","867.939","0","0","30.2186","4.75244","38.56","0","SATNPRO1963","26.662","0.37346","5"],
    [44449,"HCEP03730564","2025-01-03 07:30:00","11.0362","3.42554","28.031","3.527142857142857","7.28","2.221","960.65","0","1.36","30.221800000000002","4.75291","38.78","0","SATNPRO1963","26.738","0.3745","5"],
    [44450,"HCEP03730564","2025-01-03 07:45:00","11.0361","3.426","28.108","3.577142857142857","7.28","2.358","885.484","0","1.49","30.2264","4.75356","39.33","0","SATNPRO1963","26.988","0.37796","5"],
    [44451,"HCEP03730564","2025-01-03 08:00:00","11.0358","3.42623","28.136","3.615714285714286","7.29","2.36","879.932","0","0.38","30.2288","4.75392","39.76","0","SATNPRO1963","26.734","0.37444","5"],
    [44452,"HCEP03730564","2025-01-03 08:15:00","11.0349","3.42617","28.138","3.63","7.28","2.254","975.773","0","1.18","30.229","4.75396","39.92","0","SATNPRO1963","26.66","0.37342","5"],
    [44453,"HCEP03730564","2025-01-03 08:30:00","11.0348","3.42635","28.147","3.637142857142857","7.28","2.353","914.445","0.01","1.92","30.2309","4.75423","39.99","0","SATNPRO1963","26.732","0.37442","5"],
    [44454,"HCEP03730564","2025-01-03 08:45:00","11.034","3.42646","28.16","3.641428571428572","7.29","2.354","907.973","0","0.61","30.2326","4.75449","40.04","0","SATNPRO1963","26.836000000000002","0.37586","5"],
    [44455,"HCEP03730564","2025-01-03 09:00:00","11.0333","3.42648","28.133","3.652857142857143","7.28","2.268","969.67","0","1.56","30.2334","4.75461","40.16","0","SATNPRO1963","26.887999999999998","0.3766","5"],
    [44456,"HCEP03730564","2025-01-03 09:15:00","11.032","3.42644","28.102","3.658571428571428","7.28","2.362","912.183","0","1.56","30.2341","4.75472","40.23","0","SATNPRO1963","26.642","0.37318","5"],
    [44457,"HCEP03730564","2025-01-03 09:30:00","11.0301","3.42631","28.051","3.658571428571428","7.29","2.365","906.815","0","0.38","30.2344","4.7548","40.23","0","SATNPRO1963","26.608","0.37266","5"],
    [44458,"HCEP03730564","2025-01-03 09:45:00","11.0265","3.42602","27.994","3.667142857142857","7.29","2.265","986.777","0","1.92","30.2345","4.75486","40.32","0","SATNPRO1963","26.594","0.37248","5"],
    [44459,"HCEP03730564","2025-01-03 10:00:00","11.0209","3.4255","27.919","3.708571428571429","7.28","2.371","927.739","0.01","1.65","30.2341","4.75488","40.76","0","SATNPRO1963","26.684","0.37376","5"],
    [44460,"HCEP03730564","2025-01-03 10:15:00","11.0183","3.42522","27.836","3.74","7.29","2.374","921.567","0","0","30.2336","4.75485","41.12","0","SATNPRO1963","26.706","0.37408","5"],
    [44461,"HCEP03730564","2025-01-03 10:30:00","11.017","3.42501","27.75","3.764285714285714","7.29","2.277","1004.348","0","1.24","30.2326","4.75472","41.37","0","SATNPRO1963","26.732","0.37444","5"],
    [44462,"HCEP03730564","2025-01-03 10:45:00","11.0148","3.42478","27.649","3.785714285714286","7.29","2.361","893.488","0.01","2.57","30.2321","4.75468","41.6","0","SATNPRO1963","26.692","0.37388","5"],
    [44463,"HCEP03730564","2025-01-03 11:00:00","11.0147","3.42482","27.554","3.808571428571429","7.3","2.365","886.877","0","0","30.2326","4.75474","41.85","0","SATNPRO1963","26.776","0.37502","5"],
    [44464,"HCEP03730564","2025-01-03 11:15:00","11.0136","3.42443","27.444","3.817142857142858","7.29","2.254","972.336","0","1.01","30.2297","4.75435","41.95","0","SATNPRO1963","26.902","0.37682","5"],
    [44465,"HCEP03730564","2025-01-03 11:30:00","11.0136","3.42454","27.335","3.844285714285714","7.29","2.383","939.431","0","2.05","30.2309","4.75451","42.26","0","SATNPRO1963","26.714","0.37422","5"],
    [44466,"HCEP03730564","2025-01-03 11:45:00","11.013","3.42461","27.227","3.848571428571429","7.3","2.385","932.714","0","0.38","30.232","4.75467","42.3","0","SATNPRO1963","26.712","0.37414","5"],
    [44467,"HCEP03730564","2025-01-03 12:00:00","11.0123","3.42457","27.115","3.858571428571428","7.3","2.296","1001.501","0","1.69","30.2324","4.75473","42.4","0","SATNPRO1963","26.664","0.37346","5"],
    [44468,"HCEP03730564","2025-01-03 12:15:00","11.0117","3.42467","27.01","3.867142857142857","7.3","2.375","969.55","0","1.86","30.2339","4.75494","42.51","0","SATNPRO1963","26.886","0.3766","5"],
    [44469,"HCEP03730564","2025-01-03 12:30:00","10.9988","3.42098","26.912","3.897142857142858","7.3","2.376","962.487","0","0.86","30.2083","4.75151","42.81","0","SATNPRO1963","27.144000000000002","0.38022","5"],
    [44470,"HCEP03730564","2025-01-03 12:45:00","11.0105","3.42433","26.826","3.977142857142857","7.3","2.306","1012.494","0","1.63","30.2316","4.75463","43.71","0","SATNPRO1963","26.836","0.3759","5"],
    [44471,"HCEP03730564","2025-01-03 13:00:00","11.0123","3.42471","26.758","3.882857142857143","7.3","2.366","964.131","0.01","2.05","30.2339","4.75492","42.68","0","SATNPRO1963","26.88","0.37652","5"],
    [44472,"HCEP03730564","2025-01-03 13:15:00","11.0121","3.4248","26.71","3.865714285714286","7.31","2.366","957.415","0","0.47","30.2349","4.75506","42.49","0","SATNPRO1963","26.658","0.3734","5"],
    [44473,"HCEP03730564","2025-01-03 13:30:00","11.0125","3.42483","26.666","3.852857142857143","7.3","2.26","1026.616","0","1.65","30.2349","4.75505","42.34","0","SATNPRO1963","26.66","0.37342","5"],
    [44474,"HCEP03730564","2025-01-03 13:45:00","11.0119","3.42477","26.645","3.84","7.29","2.356","922.949","0.01","1.74","30.2348","4.75505","42.21","0","SATNPRO1963","26.716","0.37418","5"],
    [44475,"HCEP03730564","2025-01-03 14:00:00","11.0117","3.42469","26.641","3.838571428571428","7.31","2.359","918.543","0","0","30.2342","4.75497","42.19","0","SATNPRO1963","26.686","0.3738","5"],
    [44476,"HCEP03730564","2025-01-03 14:15:00","11.0115","3.42466","26.645","3.835714285714286","7.3","2.223","1018.364","0","2.07","30.2341","4.75495","42.16","0","SATNPRO1963","26.568","0.37218","5"],
    [44477,"HCEP03730564","2025-01-03 14:30:00","11.0103","3.42446","26.672","3.837142857142857","7.3","2.353","911.816","0","3.56","30.2331","4.75483","42.17","0","SATNPRO1963","26.742","0.37456","5"],
    [44478,"HCEP03730564","2025-01-03 14:45:00","11.0051","3.42378","26.72","3.861428571428571","7.31","2.357","905.709","0","0.47","30.2307","4.75458","42.43","0","SATNPRO1963","26.752","0.37474","5"],
    [44479,"HCEP03730564","2025-01-03 15:00:00","11.0076","3.42412","26.786","3.895714285714286","7.3","2.231","990.132","0","1.76","30.2319","4.75472","42.81","0","SATNPRO1963","26.672","0.3736","5"],
    [44480,"HCEP03730564","2025-01-03 15:15:00","11.0031","3.42365","26.845","3.887142857142858","7.3","2.356","890.606","0","1.74","30.231","4.75466","42.71","0","SATNPRO1963","26.686","0.37376","5"],
    [44481,"HCEP03730564","2025-01-03 15:30:00","11.0059","3.42402","26.898","3.908571428571429","7.31","2.358","885.421","0","0.54","30.2322","4.75479","42.96","0","SATNPRO1963","26.828","0.3758","5"],
    [44482,"HCEP03730564","2025-01-03 15:45:00","11.0061","3.42405","26.961","3.89","7.3","2.224","998.18","0","1.49","30.2324","4.75482","42.76","0","SATNPRO1963","26.9","0.37676","5"],
    [44483,"HCEP03730564","2025-01-03 16:00:00","11.0026","3.42379","27.033","3.901428571428571","7.3","2.345","909.914","0","1.49","30.2327","4.75492","42.87","0","SATNPRO1963","26.754","0.37474","5"],
    [44484,"HCEP03730564","2025-01-03 16:15:00","10.9992","3.42346","27.053","3.931428571428571","7.31","2.347","904.479","0","0.72","30.2323","4.75491","43.21","0","SATNPRO1963","26.98","0.37792","5"],
    [44485,"HCEP03730564","2025-01-03 16:30:00","10.9997","3.42352","27.111","3.95","7.31","2.222","997.304","0","1.69","30.2324","4.75492","43.4","0","SATNPRO1963","26.748","0.37472","5"],
    [44486,"HCEP03730564","2025-01-03 16:45:00","10.9953","3.42311","27.173","3.967142857142858","7.31","2.353","873.471","0","1.86","30.2321","4.75495","43.59","0","SATNPRO1963","26.856","0.37616","5"],
    [44487,"HCEP03730564","2025-01-03 17:00:00","10.9987","3.42347","27.221","4","7.32","2.354","868.124","0","0.47","30.2327","4.75498","43.95","0","SATNPRO1963","26.85","0.3761","5"],
    [44488,"HCEP03730564","2025-01-03 17:15:00","11.0065","3.4241","27.281","3.958571428571429","7.31","2.211","988.707","0","1.56","30.2325","4.75484","43.5","0","SATNPRO1963","26.534","0.3717","5"],
    [44489,"HCEP03730564","2025-01-03 17:30:00","10.9971","3.42329","27.33","3.925714285714286","7.31","2.363","932.586","0","2.3","30.2323","4.75496","43.13","0","SATNPRO1963","26.772000000000002","0.375","5"],
    [44490,"HCEP03730564","2025-01-03 17:45:00","10.9972","3.42325","27.381","4.002857142857143","7.31","2.365","925.629","0","0","30.2318","4.75489","43.98","0","SATNPRO1963","26.658","0.37338","5"],
    [44491,"HCEP03730564","2025-01-03 18:00:00","11.0047","3.42391","27.431","3.955714285714286","7.31","2.258","980.898","0","1.24","30.232","4.75481","43.47","0","SATNPRO1963","26.746","0.37464","5"],
    [44492,"HCEP03730564","2025-01-03 18:15:00","10.996","3.42295","27.455","3.941428571428571","7.3","2.358","918.406","0","1.86","30.2298","4.75463","43.3","0","SATNPRO1963","26.674","0.3736","5"],
    [44493,"HCEP03730564","2025-01-03 18:30:00","10.997","3.42303","27.463","3.967142857142858","7.31","2.359","911.961","0","0","30.2297","4.7546","43.58","0","SATNPRO1963","26.812","0.37552","5"],
    [44494,"HCEP03730564","2025-01-03 18:45:00","10.9976","3.42302","27.445","3.964285714285714","7.31","2.258","982.91","0","1.05","30.2291","4.75451","43.55","0","SATNPRO1963","26.828","0.37578","5"],
    [44495,"HCEP03730564","2025-01-03 19:00:00","10.9982","3.42295","27.411","3.952857142857143","7.3","2.353","895.044","0","1.88","30.228","4.75434","43.44","0","SATNPRO1963","26.688","0.37382","5"],
    [44496,"HCEP03730564","2025-01-03 19:15:00","10.9933","3.42238","27.403","3.954285714285714","7.31","2.354","889.594","0","0.38","30.2264","4.75418","43.45","0","SATNPRO1963","26.718","0.37426","5"],
    [44497,"HCEP03730564","2025-01-03 19:30:00","10.9973","3.42256","27.354","3.961428571428572","7.31","2.247","956.386","0","1.78","30.2249","4.75391","43.53","0","SATNPRO1963","26.733999999999998","0.37446","5"],
    [44498,"HCEP03730564","2025-01-03 19:45:00","10.9995","3.42259","27.303","3.957142857142857","7.3","2.361","878.556","0.01","2.32","30.2234","4.75366","43.48","0","SATNPRO1963","26.87","0.37636","5"],
    [44499,"HCEP03730564","2025-01-03 20:00:00","11.0034","3.42285","27.215","3.945714285714286","7.31","2.363","872.18","0","0.66","30.2227","4.7535","43.36","0","SATNPRO1963","27.028","0.37858","5"],
    [44500,"HCEP03730564","2025-01-03 20:15:00","11.008","3.42319","27.108","3.905714285714286","7.31","2.206","979.712","0","1.12","30.2223","4.75337","42.92","0","SATNPRO1963","26.86","0.3762","5"],
    [44501,"HCEP03730564","2025-01-03 20:30:00","11.0124","3.42373","26.976","3.865714285714286","7.3","2.336","880.792","0.01","1.72","30.224","4.75354","42.49","0","SATNPRO1963","27.118","0.37982","5"],
    [44502,"HCEP03730564","2025-01-03 20:45:00","11.0151","3.42398","26.806","3.822857142857143","7.31","2.337","875.308","0","0.27","30.2244","4.75353","42.02","0","SATNPRO1963","26.83","0.37576","5"],
    [44503,"HCEP03730564","2025-01-03 21:00:00","11.0181","3.42372","26.631","3.777142857142858","7.3","2.195","963.968","0.01","2.14","30.2194","4.75277","41.51","0","SATNPRO1963","26.974","0.37784","5"],
    [44504,"HCEP03730564","2025-01-03 21:15:00","11.0203","3.42375","26.488","3.722857142857143","7.3","2.317","870.749","0","1.46","30.218","4.75253","40.93","0","SATNPRO1963","26.744","0.37464","5"],
    [44505,"HCEP03730564","2025-01-03 21:30:00","11.0213","3.4234","26.33","3.678571428571429","7.3","2.318","865.791","0","0.47","30.2138","4.75191","40.43","0","SATNPRO1963","26.856","0.37618","5"],
    [44506,"HCEP03730564","2025-01-03 21:45:00","11.0207","3.42308","26.145","3.65","7.3","2.201","957.557","0.01","1.97","30.2112","4.75154","40.12","0","SATNPRO1963","27.256","0.38174","5"],
    [44507,"HCEP03730564","2025-01-03 22:00:00","11.0223","3.42328","25.981","3.638571428571429","7.29","2.297","862.509","0.01","1.86","30.2119","4.75161","39.99","0","SATNPRO1963","26.816","0.37562","5"],
    [44508,"HCEP03730564","2025-01-03 22:15:00","11.0243","3.42368","25.876","3.607142857142857","7.3","2.297","857.759","0","0","30.2142","4.7519","39.65","0","SATNPRO1963","26.732","0.37446","5"],
    [44509,"HCEP03730564","2025-01-03 22:30:00","11.0234","3.42312","25.728","3.585714285714285","7.29","2.181","947.844","0","1.21","30.2096","4.75124","39.42","0","SATNPRO1963","26.872","0.37642","5"],
    [44510,"HCEP03730564","2025-01-03 22:45:00","11.021","3.42206","25.589","3.582857142857143","7.28","2.313","856.117","0.01","2.08","30.2012","4.75009","39.38","0","SATNPRO1963","26.756","0.37476","5"],
    [44511,"HCEP03730564","2025-01-03 23:00:00","11.0222","3.42205","25.452","3.577142857142857","7.29","2.314","851.264","0","0","30.2002","4.74992","39.31","0","SATNPRO1963","26.898","0.37674","5"],
    [44512,"HCEP03730564","2025-01-03 23:15:00","11.0242","3.42242","25.28","3.561428571428571","7.28","2.201","948.211","0","1.38","30.2022","4.75016","39.15","0","SATNPRO1963","26.669999999999998","0.37354","5"],
    [44513,"HCEP03730564","2025-01-03 23:30:00","11.0254","3.4227","25.096","3.541428571428572","7.28","2.308","863.031","0.01","1.76","30.204","4.75039","38.93","0","SATNPRO1963","26.784","0.37518","5"],
    [44514,"HCEP03730564","2025-01-03 23:45:00","11.0258","3.42269","24.903","3.525714285714286","7.29","2.308","857.708","0","0.27","30.2037","4.75033","38.75","0","SATNPRO1963","26.726","0.37436","5"],
    [44515,"HCEP03730564","2025-01-04 00:00:00","11.0261","3.42273","24.722","3.512857142857143","7.28","2.186","944.752","0","1.33","30.204","4.75035","38.62","0","SATNPRO1963","26.582","0.37232","5"],
    [44516,"HCEP03730564","2025-01-04 00:15:00","11.026","3.42262","24.567","3.504285714285714","7.27","2.318","839.806","0","1.63","30.203","4.75021","38.52","0","SATNPRO1963","26.808","0.37546","5"],
    [44517,"HCEP03730564","2025-01-04 00:30:00","11.0258","3.42261","24.449","3.497142857142857","7.28","2.32","835.779","0","0.27","30.2031","4.75022","38.44","0","SATNPRO1963","26.918","0.37704","5"],
    [44518,"HCEP03730564","2025-01-04 00:45:00","11.026","3.4226","24.367","3.487142857142857","7.28","2.158","945.538","0","1.63","30.2028","4.75017","38.34","0","SATNPRO1963","26.728","0.3743","5"],
    [44519,"HCEP03730564","2025-01-04 01:00:00","11.0261","3.42262","24.326","3.477142857142857","7.27","2.307","851","0.01","1.76","30.203","4.7502","38.22","0","SATNPRO1963","27.014","0.37838","5"],
    [44520,"HCEP03730564","2025-01-04 01:15:00","11.0262","3.4227","24.298","3.484285714285714","7.28","2.309","846.417","0","0.47","30.2037","4.75029","38.3","0","SATNPRO1963","26.828","0.37578","5"],
    [44521,"HCEP03730564","2025-01-04 01:30:00","11.0268","3.42283","24.312","3.478571428571429","7.28","2.165","946.055","0","1.24","30.2045","4.7504","38.24","0","SATNPRO1963","26.952","0.37752","5"],
    [44522,"HCEP03730564","2025-01-04 01:45:00","11.0267","3.4228","24.395","3.477142857142857","7.27","2.316","838.493","0","1.46","30.2042","4.75036","38.23","0","SATNPRO1963","26.838","0.37594","5"],
    [44523,"HCEP03730564","2025-01-04 02:00:00","11.0266","3.42278","24.479","3.475714285714286","7.28","2.317","834.359","0","0.47","30.2042","4.75036","38.21","0","SATNPRO1963","26.98","0.37788","5"],
    [44524,"HCEP03730564","2025-01-04 02:15:00","11.0264","3.42281","24.594","3.475714285714286","7.27","2.185","947.984","0","1.51","30.2046","4.75042","38.2","0","SATNPRO1963","26.79","0.37526","5"],
    [44525,"HCEP03730564","2025-01-04 02:30:00","11.0263","3.42281","24.725","3.47","7.27","2.317","853.362","0.01","1.6","30.2045","4.75043","38.14","0","SATNPRO1963","26.642","0.37318","5"],
    [44526,"HCEP03730564","2025-01-04 02:45:00","11.0264","3.42286","24.858","3.465714285714286","7.28","2.316","848.437","0","0","30.2049","4.75049","38.09","0","SATNPRO1963","27.158","0.38036","5"],
    [44527,"HCEP03730564","2025-01-04 03:00:00","11.0267","3.42287","24.988","3.448571428571429","7.28","2.203","945.171","0","1.05","30.2047","4.75046","37.91","0","SATNPRO1963","26.736","0.37446","5"],
    [44528,"HCEP03730564","2025-01-04 03:15:00","11.0265","3.42283","25.148","3.445714285714286","7.27","2.32","857.975","0.01","1.63","30.2044","4.75043","37.88","0","SATNPRO1963","26.6","0.37258","5"],
    [44529,"HCEP03730564","2025-01-04 03:30:00","11.0264","3.4228","25.317","3.457142857142857","7.28","2.321","852.862","0","0","30.2042","4.75041","38","0","SATNPRO1963","26.718","0.37424","5"],
    [44530,"HCEP03730564","2025-01-04 03:45:00","11.0266","3.42279","25.501","3.454285714285715","7.27","2.222","958.923","0","1.24","30.2039","4.75037","37.97","0","SATNPRO1963","27.044","0.37882","5"],
    [44531,"HCEP03730564","2025-01-04 04:00:00","11.0265","3.42274","25.687","3.447142857142857","7.27","2.334","867.723","0","1.6","30.2033","4.75031","37.89","0","SATNPRO1963","26.786","0.37518","5"],
    [44532,"HCEP03730564","2025-01-04 04:15:00","11.0264","3.42272","25.866","3.448571428571429","7.28","2.335","863.041","0","0.38","30.2032","4.7503","37.91","0","SATNPRO1963","27.072","0.3792","5"],
    [44533,"HCEP03730564","2025-01-04 04:30:00","11.0258","3.42254","26.058","3.452857142857143","7.27","2.216","962.194","0","1.56","30.2018","4.75013","37.95","0","SATNPRO1963","26.812","0.37556","5"],
    [44534,"HCEP03730564","2025-01-04 04:45:00","11.0261","3.4225","26.284","3.447142857142857","7.27","2.336","889.043","0","1.9","30.2011","4.75003","37.89","0","SATNPRO1963","26.791999999999998","0.37528","5"],
    [44535,"HCEP03730564","2025-01-04 05:00:00","11.0269","3.42269","26.499","3.442857142857143","7.28","2.341","885.4","0","0","30.2022","4.75018","37.84","0","SATNPRO1963","26.73","0.37444","5"],
    [44536,"HCEP03730564","2025-01-04 05:15:00","11.0276","3.42277","26.724","3.431428571428572","7.27","2.229","945.506","0","2.22","30.2023","4.75021","37.72","0","SATNPRO1963","26.616","0.37282","5"],
    [44537,"HCEP03730564","2025-01-04 05:30:00","11.0281","3.42278","26.946","3.418571428571428","7.27","2.344","914.414","0","1.8","30.2019","4.75015","37.57","0","SATNPRO1963","26.622","0.37286","5"],
    [44538,"HCEP03730564","2025-01-04 05:45:00","11.0294","3.42278","27.164","3.387142857142857","7.28","2.347","909.977","0","0","30.2008","4.74999","37.23","0","SATNPRO1963","26.69","0.37382","5"],
    [44539,"HCEP03730564","2025-01-04 06:00:00","11.0293","3.42279","27.363","3.358571428571428","7.28","2.263","940.988","0","2.17","30.2008","4.75001","36.92","0","SATNPRO1963","26.616","0.3728","5"],
    [44540,"HCEP03730564","2025-01-04 06:15:00","11.0291","3.4228","27.536","3.364285714285714","7.27","2.338","896.131","0.01","1.78","30.201","4.75004","36.98","0","SATNPRO1963","26.506","0.37126","5"],
    [44541,"HCEP03730564","2025-01-04 06:30:00","11.0293","3.4228","27.701","3.364285714285714","7.28","2.341","890.616","0","0.66","30.2008","4.75002","36.99","0","SATNPRO1963","26.73","0.37438","5"],
    [44542,"HCEP03730564","2025-01-04 06:45:00","11.0294","3.42273","27.854","3.358571428571428","7.27","2.248","950.013","0","1.3","30.2","4.74991","36.93","0","SATNPRO1963","26.792","0.37526","5"],
    [44543,"HCEP03730564","2025-01-04 07:00:00","11.029","3.42251","27.98","3.352857142857143","7.27","2.335","885.536","0","2.03","30.1981","4.74966","36.86","0","SATNPRO1963","26.802","0.3754","5"],
    [44544,"HCEP03730564","2025-01-04 07:15:00","11.0288","3.42251","28.099","3.354285714285714","7.28","2.337","880.47","0","0.47","30.1982","4.74968","36.87","0","SATNPRO1963","26.81","0.37552","5"],
    [44545,"HCEP03730564","2025-01-04 07:30:00","11.0257","3.42179","28.187","3.36","7.27","2.235","949.96","0","1.74","30.1937","4.7491","36.93","0","SATNPRO1963","26.874","0.3764","5"],
    [44546,"HCEP03730564","2025-01-04 07:45:00","11.026","3.42171","28.227","3.408571428571429","7.27","2.338","907.121","0","1.84","30.1926","4.74894","37.47","0","SATNPRO1963","26.8","0.37538","5"],
    [44547,"HCEP03730564","2025-01-04 08:00:00","11.0252","3.42116","28.269","3.398571428571429","7.28","2.34","900.362","0","0.38","30.1879","4.74829","37.36","0","SATNPRO1963","26.91","0.37692","5"],
    [44548,"HCEP03730564","2025-01-04 08:15:00","11.027","3.42202","28.345","3.385714285714286","7.27","2.258","947.122","0","1.63","30.1949","4.74925","37.21","0","SATNPRO1963","26.83","0.37582","5"],
    [44549,"HCEP03730564","2025-01-04 08:30:00","11.0282","3.42239","28.394","3.384285714285715","7.26","2.343","873.409","0","1.74","30.1974","4.7496","37.2","0","SATNPRO1963","26.796","0.3753","5"],
    [44550,"HCEP03730564","2025-01-04 08:45:00","11.0291","3.42268","28.395","3.362857142857143","7.27","2.344","868.103","0","0","30.1995","4.74988","36.96","0","SATNPRO1963","26.846","0.376","5"],
    [44551,"HCEP03730564","2025-01-04 09:00:00","11.029","3.42276","28.347","3.34","7.27","2.256","923.055","0","1.21","30.2004","4.75001","36.71","0","SATNPRO1963","26.474","0.37082","5"],
    [44552,"HCEP03730564","2025-01-04 09:15:00","11.0283","3.42281","28.291","3.35","7.27","2.336","881.529","0.01","2.2","30.2015","4.75017","36.83","0","SATNPRO1963","26.69","0.37384","5"],
    [44553,"HCEP03730564","2025-01-04 09:30:00","11.0275","3.4228","28.231","3.361428571428572","7.27","2.337","875.69","0","0","30.2021","4.75026","36.95","0","SATNPRO1963","26.604","0.37266","5"],
    [44554,"HCEP03730564","2025-01-04 09:45:00","11.0274","3.4228","28.209","3.361428571428572","7.27","2.255","934.297","0","1.6","30.2022","4.75027","36.96","0","SATNPRO1963","26.567999999999998","0.37208","5"],
    [44555,"HCEP03730564","2025-01-04 10:00:00","11.0276","3.42285","28.161","3.355714285714286","7.27","2.339","852.538","0","2.29","30.2025","4.75032","36.89","0","SATNPRO1963","26.54","0.37176","5"],
    [44556,"HCEP03730564","2025-01-04 10:15:00","11.0273","3.42282","28.099","3.348571428571428","7.28","2.342","846.874","0","0","30.2025","4.75032","36.81","0","SATNPRO1963","26.552","0.37188","5"],
    [44557,"HCEP03730564","2025-01-04 10:30:00","11.0269","3.42275","28.01","3.364285714285714","7.27","2.216","925.853","0","1.21","30.2022","4.75028","36.98","0","SATNPRO1963","26.682","0.3737","5"],
    [44558,"HCEP03730564","2025-01-04 10:45:00","11.0268","3.42279","27.919","3.361428571428572","7.26","2.319","863.574","0.01","1.38","30.2027","4.75034","36.95","0","SATNPRO1963","26.48","0.37088","5"],
    [44559,"HCEP03730564","2025-01-04 11:00:00","11.0262","3.42272","27.81","3.357142857142857","7.28","2.322","858.271","0","0.27","30.2025","4.75032","36.9","0","SATNPRO1963","26.628","0.37296","5"],
    [44560,"HCEP03730564","2025-01-04 11:15:00","11.0265","3.42279","27.702","3.362857142857143","7.27","2.193","945.086","0","1.67","30.203","4.75038","36.97","0","SATNPRO1963","26.538","0.37172","5"],
    [44561,"HCEP03730564","2025-01-04 11:30:00","11.0268","3.42281","27.584","3.355714285714286","7.27","2.311","915.218","0.01","2.15","30.203","4.75037","36.88","0","SATNPRO1963","26.558","0.372","5"],
    [44562,"HCEP03730564","2025-01-04 11:45:00","11.0262","3.42282","27.466","3.35","7.28","2.313","909.491","0","0","30.2037","4.75047","36.83","0","SATNPRO1963","26.622","0.37286","5"],
    [44563,"HCEP03730564","2025-01-04 12:00:00","11.0253","3.42279","27.35","3.361428571428572","7.27","2.241","922.876","0","2.24","30.2042","4.75054","36.94","0","SATNPRO1963","26.686","0.37382","5"],
    [44564,"HCEP03730564","2025-01-04 12:15:00","11.0247","3.42274","27.226","3.381428571428572","7.27","2.308","888.929","0.01","2.54","30.2042","4.75054","37.17","0","SATNPRO1963","26.686","0.3738","5"],
    [44565,"HCEP03730564","2025-01-04 12:30:00","11.0244","3.42272","27.091","3.391428571428572","7.28","2.309","882.876","0","0","30.2043","4.75056","37.28","0","SATNPRO1963","26.442","0.37038","5"],
    [44566,"HCEP03730564","2025-01-04 12:45:00","11.0233","3.42264","26.966","3.395714285714286","7.27","2.23","940.311","0","1.27","30.2044","4.75058","37.32","0","SATNPRO1963","26.622","0.3729","5"],
    [44567,"HCEP03730564","2025-01-04 13:00:00","11.0225","3.42255","26.83","3.414285714285715","7.27","2.33","890.606","0","1.69","30.2043","4.75057","37.52","0","SATNPRO1963","26.580000000000002","0.37226","5"],
    [44568,"HCEP03730564","2025-01-04 13:15:00","11.022","3.42254","26.701","3.424285714285714","7.28","2.332","885.764","0","0","30.2046","4.75062","37.63","0","SATNPRO1963","26.759999999999998","0.3748","5"],
    [44569,"HCEP03730564","2025-01-04 13:30:00","11.0219","3.42259","26.58","3.431428571428572","7.27","2.239","974.416","0","1.8","30.2052","4.7507","37.71","0","SATNPRO1963","26.606","0.37268","5"],
    [44570,"HCEP03730564","2025-01-04 13:45:00","11.0208","3.42253","26.475","3.43","7.27","2.338","928.369","0","1.99","30.2057","4.75077","37.7","0","SATNPRO1963","26.392","0.3697","5"],
    [44571,"HCEP03730564","2025-01-04 14:00:00","11.0198","3.42246","26.406","3.442857142857143","7.28","2.341","923.618","0","0.27","30.2058","4.7508","37.84","0","SATNPRO1963","26.554000000000002","0.37194","5"],
    [44572,"HCEP03730564","2025-01-04 14:15:00","11.0178","3.42223","26.346","3.448571428571429","7.28","2.228","968.687","0","1.21","30.2052","4.75074","37.9","0","SATNPRO1963","26.682","0.37372","5"],
    [44573,"HCEP03730564","2025-01-04 14:30:00","11.0151","3.42194","26.32","3.451428571428572","7.27","2.338","912.11","0.01","2.63","30.2046","4.7507","37.93","0","SATNPRO1963","26.186","0.36682","5"],
    [44574,"HCEP03730564","2025-01-04 14:45:00","11.0059","3.42126","26.311","3.474285714285714","7.29","2.341","906.225","0","0.47","30.2055","4.75097","38.18","0","SATNPRO1963","26.208000000000002","0.36706","5"],
    [44575,"HCEP03730564","2025-01-04 15:00:00","11.0009","3.42094","26.342","3.575714285714286","7.28","2.241","967.618","0","1.63","30.2065","4.75119","39.29","0","SATNPRO1963","26.572","0.3722","5"],
    [44576,"HCEP03730564","2025-01-04 15:15:00","11.0005","3.42093","26.386","3.661428571428572","7.28","2.335","873.667","0","1.72","30.2068","4.75123","40.23","0","SATNPRO1963","26.552","0.3719","5"],
    [44577,"HCEP03730564","2025-01-04 15:30:00","11.0018","3.42099","26.459","3.688571428571429","7.29","2.338","867.671","0","0","30.2062","4.75114","40.52","0","SATNPRO1963","26.554","0.37192","5"],
    [44578,"HCEP03730564","2025-01-04 15:45:00","11.0029","3.42095","26.518","3.675714285714286","7.29","2.19","949.344","0","1.46","30.2049","4.75094","40.38","0","SATNPRO1963","26.503999999999998","0.3712","5"],
    [44579,"HCEP03730564","2025-01-04 16:00:00","11.0034","3.42061","26.584","3.677142857142857","7.28","2.333","850.95","0.01","1.92","30.2011","4.7504","40.39","0","SATNPRO1963","26.912","0.37696","5"],
    [44580,"HCEP03730564","2025-01-04 16:15:00","11.0043","3.4208","26.642","3.688571428571429","7.29","2.336","845.909","0","0.66","30.2022","4.75055","40.53","0","SATNPRO1963","26.951999999999998","0.37752","5"],
    [44581,"HCEP03730564","2025-01-04 16:30:00","11.0049","3.42067","26.703","3.668571428571429","7.29","2.189","950.024","0","1.41","30.2004","4.75028","40.31","0","SATNPRO1963","26.818","0.37562","5"],
    [44582,"HCEP03730564","2025-01-04 16:45:00","11.0036","3.42017","26.706","3.682857142857143","7.29","2.321","848.905","0","1.33","30.1966","4.74976","40.46","0","SATNPRO1963","27","0.37818","5"],
    [44583,"HCEP03730564","2025-01-04 17:00:00","11.0049","3.42015","26.694","3.714285714285714","7.29","2.324","843.781","0","0","30.1953","4.74955","40.81","0","SATNPRO1963","26.788","0.37522","5"],
    [44584,"HCEP03730564","2025-01-04 17:15:00","11.0049","3.41971","26.725","3.687142857142857","7.29","2.183","964.045","0","2.86","30.191","4.74894","40.51","0","SATNPRO1963","26.864","0.3763","5"],
    [44585,"HCEP03730564","2025-01-04 17:30:00","11.0037","3.41911","26.801","3.682857142857143","7.29","2.333","876.673","0.01","1.56","30.1861","4.74828","40.45","0","SATNPRO1963","26.668","0.37352","5"],
    [44586,"HCEP03730564","2025-01-04 17:45:00","11.0022","3.41816","26.875","3.704285714285714","7.3","2.336","871.768","0","0.27","30.1779","4.74714","40.69","0","SATNPRO1963","26.654","0.37332","5"],
    [44587,"HCEP03730564","2025-01-04 18:00:00","10.9999","3.41753","26.924","3.74","7.3","2.26","972.369","0","1.51","30.1737","4.74658","41.07","0","SATNPRO1963","26.791999999999998","0.37528","5"],
    [44588,"HCEP03730564","2025-01-04 18:15:00","10.9995","3.41744","27.002","3.754285714285714","7.3","2.335","892.328","0","2.19","30.173","4.7465","41.23","0","SATNPRO1963","26.782","0.3751","5"],
    [44589,"HCEP03730564","2025-01-04 18:30:00","10.9976","3.41675","27.056","3.76","7.31","2.339","885.858","0","0","30.1679","4.7458","41.3","0","SATNPRO1963","26.728","0.37438","5"],
    [44590,"HCEP03730564","2025-01-04 18:45:00","10.9983","3.41679","27.11","3.75","7.3","2.253","976.409","0","1.58","30.1677","4.74577","41.18","0","SATNPRO1963","26.866","0.3763","5"],
    [44591,"HCEP03730564","2025-01-04 19:00:00","10.9968","3.41635","27.146","3.737142857142858","7.3","2.356","893.486","0","1.38","30.1647","4.74536","41.05","0","SATNPRO1963","26.956","0.37756","5"],
    [44592,"HCEP03730564","2025-01-04 19:15:00","10.9968","3.41603","27.151","3.734285714285714","7.31","2.357","882.627","0","0","30.1615","4.74492","41","0","SATNPRO1963","26.886","0.3766","5"],
    [44593,"HCEP03730564","2025-01-04 19:30:00","10.9963","3.41594","27.185","3.724285714285715","7.3","2.284","903.996","0","1.69","30.161","4.74485","40.9","0","SATNPRO1963","26.954","0.3776","5"],
    [44594,"HCEP03730564","2025-01-04 19:45:00","10.9964","3.41582","27.189","3.71","7.3","2.354","881.632","0","1.76","30.1597","4.74467","40.74","0","SATNPRO1963","26.814","0.3756","5"],
    [44595,"HCEP03730564","2025-01-04 20:00:00","10.9973","3.41623","27.158","3.692857142857143","7.3","2.355","865.75","0","0","30.163","4.74512","40.55","0","SATNPRO1963","26.988","0.378","5"],
    [44596,"HCEP03730564","2025-01-04 20:15:00","11.0005","3.41691","27.085","3.661428571428572","7.3","2.253","928.115","0","3.07","30.167","4.74563","40.22","0","SATNPRO1963","26.96","0.37756","5"],
    [44597,"HCEP03730564","2025-01-04 20:30:00","11.0064","3.41806","27.009","3.565714285714286","7.29","2.34","861.128","0","3.53","30.1735","4.74646","39.17","0","SATNPRO1963","27.062","0.37906","5"],
    [44598,"HCEP03730564","2025-01-04 20:45:00","11.008","3.4176","26.96","3.494285714285715","7.29","2.343","853.953","0","0","30.1677","4.74562","38.39","0","SATNPRO1963","26.951999999999998","0.3775","5"],
    [44599,"HCEP03730564","2025-01-04 21:00:00","11.0088","3.41723","26.881","3.461428571428572","7.28","2.231","916.329","0","1.74","30.1635","4.745","38.02","0","SATNPRO1963","27.264","0.38186","5"],
    [44600,"HCEP03730564","2025-01-04 21:15:00","11.0081","3.41656","26.787","3.438571428571429","7.27","2.33","850.717","0","2.52","30.1575","4.74415","37.77","0","SATNPRO1963","27.194","0.3809","5"],
    [44601,"HCEP03730564","2025-01-04 21:30:00","11.0068","3.41569","26.679","3.435714285714286","7.28","2.332","844.622","0","0.27","30.1501","4.74312","37.74","0","SATNPRO1963","27.198","0.38094","5"],
    [44602,"HCEP03730564","2025-01-04 21:45:00","11.0093","3.41613","26.577","3.394285714285714","7.27","2.204","900.992","0","1.97","30.1523","4.74339","37.28","0","SATNPRO1963","27.294","0.3823","5"],
    [44603,"HCEP03730564","2025-01-04 22:00:00","11.0096","3.41607","26.447","3.357142857142857","7.27","2.309","864.273","0.01","1.99","30.1516","4.74327","36.87","0","SATNPRO1963","27.066","0.3791","5"],
    [44604,"HCEP03730564","2025-01-04 22:15:00","11.0093","3.41599","26.345","3.341428571428572","7.27","2.31","859.283","0","0.66","30.1511","4.74321","36.7","0","SATNPRO1963","27.23","0.38138","5"],
    [44605,"HCEP03730564","2025-01-04 22:30:00","11.0084","3.41582","26.209","3.332857142857143","7.27","2.223","913.557","0","1.63","30.1502","4.74308","36.61","0","SATNPRO1963","27.244","0.3816","5"],
    [44606,"HCEP03730564","2025-01-04 22:45:00","11.0079","3.41568","26.144","3.331428571428571","7.26","2.295","858.916","0.01","2.29","30.1493","4.74296","36.6","0","SATNPRO1963","27.312","0.38256","5"],
    [44607,"HCEP03730564","2025-01-04 23:00:00","11.0073","3.41556","26.063","3.334285714285714","7.27","2.298","852.608","0","0.54","30.1487","4.74288","36.62","0","SATNPRO1963","26.983999999999998","0.37796","5"],
    [44608,"HCEP03730564","2025-01-04 23:15:00","11.0067","3.4154","25.94","3.348571428571428","7.27","2.19","934.971","0","1.08","30.1476","4.74272","36.79","0","SATNPRO1963","27.17","0.38054","5"],
    [44609,"HCEP03730564","2025-01-04 23:30:00","11.0064","3.41537","25.787","3.355714285714286","7.26","2.312","847.26","0.01","1.58","30.1476","4.74272","36.85","0","SATNPRO1963","27.227999999999998","0.3814","5"],
    [44610,"HCEP03730564","2025-01-04 23:45:00","11.0066","3.41536","25.61","3.355714285714286","7.27","2.314","842.252","0","0.54","30.1475","4.74269","36.85","0","SATNPRO1963","27.108","0.37968","5"],
    [44611,"HCEP03730564","2025-01-05 00:00:00","11.0053","3.41514","25.467","3.341428571428572","7.27","2.185","934.072","0","1.12","30.1464","4.74255","36.7","0","SATNPRO1963","27.128","0.37994","5"],
    [44612,"HCEP03730564","2025-01-05 00:15:00","11.0044","3.41488","25.314","3.337142857142857","7.26","2.293","834.138","0","1.58","30.1447","4.74232","36.66","0","SATNPRO1963","27.248","0.38164","5"],
    [44613,"HCEP03730564","2025-01-05 00:30:00","11.0048","3.41503","25.145","3.365714285714286","7.27","2.295","829.684","0","0.27","30.1459","4.74246","36.96","0","SATNPRO1963","26.992","0.37808","5"],
    [44614,"HCEP03730564","2025-01-05 00:45:00","11.0063","3.4153","25.003","3.352857142857143","7.26","2.16","915.439","0","1.05","30.1474","4.74264","36.83","0","SATNPRO1963","26.983999999999998","0.37794","5"],
    [44615,"HCEP03730564","2025-01-05 01:00:00","11.008","3.41565","24.899","3.34","7.26","2.293","811.908","0","1.58","30.1494","4.7429","36.68","0","SATNPRO1963","27.128","0.37996","5"],
    [44616,"HCEP03730564","2025-01-05 01:15:00","11.0083","3.41575","24.808","3.315714285714286","7.27","2.295","806.558","0","0","30.1502","4.743","36.42","0","SATNPRO1963","27.236","0.38146","5"],
    [44617,"HCEP03730564","2025-01-05 01:30:00","11.0076","3.41569","24.736","3.312857142857143","7.26","2.163","914.455","0","1.27","30.1502","4.743","36.39","0","SATNPRO1963","27.176000000000002","0.38064","5"],
    [44618,"HCEP03730564","2025-01-05 01:45:00","11.006","3.41546","24.683","3.342857142857142","7.26","2.3","836.345","0","1.72","30.1493","4.74291","36.71","0","SATNPRO1963","27.218","0.38124","5"],
    [44619,"HCEP03730564","2025-01-05 02:00:00","11.0042","3.41541","24.659","3.387142857142857","7.27","2.301","831.05","0","0.27","30.1504","4.74308","37.21","0","SATNPRO1963","27.24","0.38148","5"],
    [44620,"HCEP03730564","2025-01-05 02:15:00","11.0039","3.41561","24.702","3.41","7.27","2.21","888.064","0","1.33","30.1525","4.74339","37.45","0","SATNPRO1963","27.04","0.37874","5"],
    [44621,"HCEP03730564","2025-01-05 02:30:00","11.0029","3.41562","24.787","3.422857142857143","7.26","2.3","866.469","0.01","1.63","30.1534","4.74354","37.6","0","SATNPRO1963","27.008","0.37832","5"],
    [44622,"HCEP03730564","2025-01-05 02:45:00","11.002","3.41562","24.83","3.457142857142857","7.27","2.301","861.494","0","0","30.1541","4.74365","37.96","0","SATNPRO1963","27.13","0.38002","5"],
    [44623,"HCEP03730564","2025-01-05 03:00:00","10.9995","3.4154","24.933","3.488571428571429","7.27","2.214","896.183","0","1.51","30.1539","4.74367","38.31","0","SATNPRO1963","26.838","0.37588","5"],
    [44624,"HCEP03730564","2025-01-05 03:15:00","10.999","3.4154","25.067","3.507142857142857","7.27","2.306","861.761","0.01","2.03","30.1543","4.74374","38.51","0","SATNPRO1963","27.008","0.3783","5"],
    [44625,"HCEP03730564","2025-01-05 03:30:00","10.9969","3.41663","25.22","3.508571428571428","7.28","2.307","855.023","0","0.47","30.168","4.74572","38.53","0","SATNPRO1963","26.476","0.3708","5"],
    [44626,"HCEP03730564","2025-01-05 03:45:00","10.9965","3.41668","25.378","3.532857142857143","7.28","2.179","920.092","0","1.05","30.1688","4.74585","38.81","0","SATNPRO1963","26.424","0.37014","5"],
    [44627,"HCEP03730564","2025-01-05 04:00:00","10.9968","3.41715","25.539","3.541428571428572","7.28","2.292","839.443","0","1.92","30.1731","4.74647","38.89","0","SATNPRO1963","26.512","0.37132","5"],
    [44628,"HCEP03730564","2025-01-05 04:15:00","10.9979","3.41778","25.698","3.545714285714286","7.29","2.293","834.319","0","0.38","30.1782","4.74719","38.95","0","SATNPRO1963","26.554","0.37188","5"],
    [44629,"HCEP03730564","2025-01-05 04:30:00","10.9983","3.41811","25.873","3.544285714285714","7.28","2.185","921.344","0","1.01","30.181","4.74759","38.94","0","SATNPRO1963","26.896","0.3767","5"],
    [44630,"HCEP03730564","2025-01-05 04:45:00","10.998","3.41803","26.041","3.554285714285714","7.28","2.308","835.579","0","2.29","30.1805","4.74753","39.04","0","SATNPRO1963","26.41","0.36996","5"],
    [44631,"HCEP03730564","2025-01-05 05:00:00","10.9973","3.41802","26.212","3.567142857142857","7.29","2.31","829.383","0","0.61","30.1809","4.74761","39.19","0","SATNPRO1963","26.502","0.3712","5"],
    [44632,"HCEP03730564","2025-01-05 05:15:00","10.9956","3.41759","26.422","3.598571428571429","7.28","2.156","915.09","0","1.21","30.178","4.74724","39.52","0","SATNPRO1963","26.852","0.3761","5"],
    [44633,"HCEP03730564","2025-01-05 05:30:00","10.995","3.41724","26.664","3.631428571428571","7.28","2.303","829.946","0.01","1.41","30.175","4.74682","39.89","0","SATNPRO1963","26.718","0.3742","5"],
    [44634,"HCEP03730564","2025-01-05 05:45:00","10.9979","3.41847","26.896","3.611428571428572","7.29","2.303","825.363","0","0","30.1845","4.74815","39.67","0","SATNPRO1963","26.324","0.36872","5"],
    [44635,"HCEP03730564","2025-01-05 06:00:00","11.0001","3.41921","27.113","3.59","7.29","2.17","908.521","0","1.27","30.1899","4.74889","39.44","0","SATNPRO1963","26.284","0.36814","5"],
    [44636,"HCEP03730564","2025-01-05 06:15:00","11.0012","3.4197","27.296","3.565714285714286","7.28","2.309","832.408","0","1.41","30.1937","4.74942","39.17","0","SATNPRO1963","26.494","0.3711","5"],
    [44637,"HCEP03730564","2025-01-05 06:30:00","11.0012","3.41973","27.497","3.548571428571428","7.29","2.311","827.587","0","0.38","30.1939","4.74947","38.98","0","SATNPRO1963","26.602","0.37262","5"],
    [44638,"HCEP03730564","2025-01-05 06:45:00","11.0007","3.41959","27.652","3.528571428571429","7.28","2.186","919.498","0","1.01","30.1929","4.74934","38.76","0","SATNPRO1963","26.474","0.37078","5"],
    [44639,"HCEP03730564","2025-01-05 07:00:00","11.0007","3.4197","27.813","3.525714285714286","7.28","2.303","844.684","0","1.65","30.1939","4.74948","38.73","0","SATNPRO1963","26.358","0.3692","5"],
    [44640,"HCEP03730564","2025-01-05 07:15:00","10.9999","3.41945","27.967","3.527142857142857","7.29","2.304","839.442","0","0","30.1921","4.74925","38.74","0","SATNPRO1963","26.628","0.3729","5"],
    [44641,"HCEP03730564","2025-01-05 07:30:00","10.9968","3.41837","28.101","3.55","7.28","2.192","909.186","0","1.12","30.184","4.74816","38.99","0","SATNPRO1963","26.766000000000002","0.3749","5"],
    [44642,"HCEP03730564","2025-01-05 07:45:00","10.9996","3.41931","28.211","3.567142857142857","7.28","2.285","808.182","0","1.63","30.1909","4.7491","39.19","0","SATNPRO1963","26.648","0.37322","5"],
    [44643,"HCEP03730564","2025-01-05 08:00:00","10.9992","3.41909","28.313","3.557142857142857","7.29","2.286","802.982","0","0","30.189","4.74884","39.08","0","SATNPRO1963","26.594","0.37248","5"],
    [44644,"HCEP03730564","2025-01-05 08:15:00","10.995","3.41731","28.382","3.567142857142857","7.28","2.153","889.23","0","1.46","30.1751","4.74694","39.18","0","SATNPRO1963","26.59","0.3724","5"],
    [44645,"HCEP03730564","2025-01-05 08:30:00","10.9929","3.41629","28.434","3.601428571428571","7.28","2.273","805.501","0.01","1.18","30.1667","4.74578","39.54","0","SATNPRO1963","26.724","0.37432","5"],
    [44646,"HCEP03730564","2025-01-05 08:45:00","10.9924","3.41618","28.456","3.608571428571428","7.29","2.274","801.197","0","0.54","30.1661","4.7457","39.63","0","SATNPRO1963","28.048","0.39286","5"],
    [44647,"HCEP03730564","2025-01-05 09:00:00","10.9943","3.41698","28.47","3.61","7.28","2.124","884.445","0","0.98","30.1723","4.74655","39.65","0","SATNPRO1963","26.928","0.37718","5"],
    [44648,"HCEP03730564","2025-01-05 09:15:00","10.9945","3.41712","28.437","3.608571428571428","7.28","2.276","788.011","0","1.27","30.1736","4.74673","39.63","0","SATNPRO1963","26.824","0.3757","5"],
    [44649,"HCEP03730564","2025-01-05 09:30:00","10.9939","3.41722","28.396","3.607142857142857","7.29","2.276","782.9","0","0.47","30.1749","4.74693","39.62","0","SATNPRO1963","26.88","0.37652","5"],
    [44650,"HCEP03730564","2025-01-05 09:45:00","10.9941","3.41748","28.348","3.631428571428571","7.28","2.146","891.899","0","1.38","30.1774","4.74728","39.89","0","SATNPRO1963","26.958000000000002","0.37756","5"],
    [44651,"HCEP03730564","2025-01-05 10:00:00","10.9968","3.41847","28.289","3.654285714285714","7.28","2.27","803.753","0.01","1.63","30.1849","4.74829","40.14","0","SATNPRO1963","27.012","0.37832","5"],
    [44652,"HCEP03730564","2025-01-05 10:15:00","11.0002","3.41981","28.233","3.585714285714285","7.29","2.27","798.549","0","0.81","30.1953","4.74972","39.39","0","SATNPRO1963","26.702","0.374","5"],
    [44653,"HCEP03730564","2025-01-05 10:30:00","11.0009","3.41984","28.163","3.544285714285714","7.28","2.135","892.672","0","0.98","30.195","4.74965","38.94","0","SATNPRO1963","26.746","0.37464","5"],
    [44654,"HCEP03730564","2025-01-05 10:45:00","11.0012","3.41977","28.088","3.512857142857143","7.28","2.282","807.855","0.01","1.18","30.1941","4.74952","38.6","0","SATNPRO1963","26.506","0.37126","5"],
    [44655,"HCEP03730564","2025-01-05 11:00:00","11.0009","3.41967","27.998","3.512857142857143","7.29","2.282","802.716","0","0.27","30.1933","4.74941","38.59","0","SATNPRO1963","26.764","0.37488","5"],
    [44656,"HCEP03730564","2025-01-05 11:15:00","10.9983","3.419","27.879","3.521428571428571","7.28","2.161","882.597","0","1.05","30.1889","4.74883","38.68","0","SATNPRO1963","26.502000000000002","0.37126","5"],
    [44657,"HCEP03730564","2025-01-05 11:30:00","10.999","3.41907","27.755","3.57","7.28","2.273","821.165","0.01","1.38","30.1892","4.74885","39.22","0","SATNPRO1963","26.598","0.37256","5"],
    [44658,"HCEP03730564","2025-01-05 11:45:00","11.0003","3.41949","27.646","3.58","7.29","2.272","816.161","0","0.27","30.1922","4.74925","39.32","0","SATNPRO1963","26.354","0.36914","5"],
    [44659,"HCEP03730564","2025-01-05 12:00:00","11.001","3.41978","27.535","3.565714285714286","7.28","2.179","881.642","0","1.12","30.1946","4.74956","39.18","0","SATNPRO1963","26.834","0.37586","5"],
    [44660,"HCEP03730564","2025-01-05 12:15:00","11.0018","3.42006","27.404","3.562857142857143","7.28","2.293","824.675","0","2.71","30.1967","4.74985","39.15","0","SATNPRO1963","26.6","0.37264","5"],
    [44661,"HCEP03730564","2025-01-05 12:30:00","11.0024","3.42034","27.268","3.568571428571429","7.29","2.295","819.05","0","0","30.199","4.75015","39.21","0","SATNPRO1963","26.366","0.36928","5"],
    [44662,"HCEP03730564","2025-01-05 12:45:00","11.0028","3.42045","27.126","3.561428571428571","7.28","2.188","897.041","0","1.27","30.1998","4.75026","39.12","0","SATNPRO1963","26.44","0.37034","5"],
    [44663,"HCEP03730564","2025-01-05 13:00:00","11.0023","3.42051","26.978","3.552857142857143","7.28","2.289","848.428","0.01","1.33","30.2008","4.7504","39.04","0","SATNPRO1963","26.352","0.3691","5"],
    [44664,"HCEP03730564","2025-01-05 13:15:00","11.0026","3.42053","26.824","3.55","7.29","2.29","842.222","0","0.61","30.2009","4.75039","38.99","0","SATNPRO1963","26.356","0.3691","5"],
    [44665,"HCEP03730564","2025-01-05 13:30:00","11.0019","3.42056","26.662","3.548571428571428","7.28","2.184","894.572","0","1.27","30.2018","4.75052","38.99","0","SATNPRO1963","26.632","0.37304","5"],
    [44666,"HCEP03730564","2025-01-05 13:45:00","11.0012","3.42066","26.506","3.571428571428572","7.28","2.294","838.483","0.01","1.72","30.2034","4.75076","39.23","0","SATNPRO1963","26.628","0.37298","5"],
    [44667,"HCEP03730564","2025-01-05 14:00:00","11.001","3.42093","26.357","3.597142857142857","7.29","2.295","833.071","0","0.47","30.2064","4.75117","39.52","0","SATNPRO1963","26.728","0.37438","5"],
    [44668,"HCEP03730564","2025-01-05 14:15:00","11.0012","3.42122","26.227","3.625714285714285","7.28","2.202","898.518","0","0.77","30.2091","4.75155","39.84","0","SATNPRO1963","26.746","0.37462","5"],
    [44669,"HCEP03730564","2025-01-05 14:30:00","11.0002","3.42101","26.114","3.652857142857143","7.28","2.3","856.494","0.01","1.72","30.2079","4.75138","40.13","0","SATNPRO1963","26.798000000000002","0.3754","5"],
    [44670,"HCEP03730564","2025-01-05 14:45:00","10.9995","3.421","26.015","3.688571428571429","7.29","2.299","850.521","0","0.61","30.2083","4.75144","40.52","0","SATNPRO1963","26.862000000000002","0.37622","5"],
    [44671,"HCEP03730564","2025-01-05 15:00:00","10.9993","3.4213","25.939","3.71","7.29","2.196","903.365","0","1.18","30.2114","4.75189","40.77","0","SATNPRO1963","26.758","0.37476","5"],
    [44672,"HCEP03730564","2025-01-05 15:15:00","10.9983","3.42145","25.885","3.732857142857143","7.29","2.312","846.874","0.01","1.78","30.2137","4.75223","41.02","0","SATNPRO1963","26.824","0.3757","5"],
    [44673,"HCEP03730564","2025-01-05 15:30:00","10.9968","3.42152","25.864","3.744285714285714","7.3","2.312","841.443","0","0","30.2157","4.75253","41.13","0","SATNPRO1963","26.759999999999998","0.37482","5"],
    [44674,"HCEP03730564","2025-01-05 15:45:00","10.9945","3.42153","25.88","3.761428571428572","7.29","2.199","903.481","0","0.9","30.2177","4.75285","41.33","0","SATNPRO1963","26.95","0.37748","5"],
    [44675,"HCEP03730564","2025-01-05 16:00:00","10.9903","3.4214","25.914","3.794285714285714","7.29","2.303","833.223","0.01","1.86","30.2198","4.75322","41.68","0","SATNPRO1963","27.288","0.38218","5"],
    [44676,"HCEP03730564","2025-01-05 16:15:00","10.9886","3.42125","25.941","3.831428571428571","7.3","2.306","827.147","0","0","30.2198","4.75324","42.08","0","SATNPRO1963","27.236","0.38148","5"],
    [44677,"HCEP03730564","2025-01-05 16:30:00","10.9879","3.42105","25.987","3.852857142857143","7.3","2.192","900.992","0","1.05","30.2183","4.75305","42.32","0","SATNPRO1963","27.074","0.3792","5"],
    [44678,"HCEP03730564","2025-01-05 16:45:00","10.9902","3.42093","26.187","3.871428571428571","7.3","2.291","814.242","0.01","1.41","30.2153","4.75259","42.53","0","SATNPRO1963","27.064","0.3791","5"],
    [44679,"HCEP03730564","2025-01-05 17:00:00","10.9911","3.42073","26.147","3.874285714285715","7.31","2.291","808.933","0","0","30.2126","4.75219","42.56","0","SATNPRO1963","27.2","0.381","5"],
    [44680,"HCEP03730564","2025-01-05 17:15:00","10.9933","3.42081","26.221","3.878571428571429","7.3","2.145","893.131","0","0.94","30.2115","4.75201","42.6","0","SATNPRO1963","26.906","0.37686","5"],
    [44681,"HCEP03730564","2025-01-05 17:30:00","10.9964","3.4212","26.283","3.844285714285714","7.3","2.288","799.445","0","1.53","30.2128","4.75214","42.24","0","SATNPRO1963","26.886","0.37656","5"],
    [44682,"HCEP03730564","2025-01-05 17:45:00","10.9972","3.42143","26.387","3.79","7.31","2.288","794.619","0","0","30.2143","4.75235","41.64","0","SATNPRO1963","26.782","0.37514","5"],
    [44683,"HCEP03730564","2025-01-05 18:00:00","10.9985","3.42136","26.504","3.758571428571428","7.3","2.141","887.866","0","1.12","30.2125","4.75208","41.28","0","SATNPRO1963","26.972","0.3778","5"],
    [44684,"HCEP03730564","2025-01-05 18:15:00","11","3.42116","26.502","3.74","7.29","2.274","796.996","0.01","1.38","30.2094","4.75162","41.08","0","SATNPRO1963","26.648","0.37326","5"],
    [44685,"HCEP03730564","2025-01-05 18:30:00","11.0004","3.42105","26.465","3.704285714285714","7.3","2.274","791.982","0","0.47","30.208","4.75141","40.69","0","SATNPRO1963","26.634","0.373","5"],
    [44686,"HCEP03730564","2025-01-05 18:45:00","11.0006","3.42085","26.529","3.685714285714286","7.3","2.152","870.244","0","1.46","30.2058","4.75111","40.5","0","SATNPRO1963","26.672","0.37358","5"],
    [44687,"HCEP03730564","2025-01-05 19:00:00","10.9999","3.4202","26.585","3.668571428571429","7.29","2.271","766.009","0.01","1.53","30.2","4.75029","40.3","0","SATNPRO1963","26.492","0.37104","5"],
    [44688,"HCEP03730564","2025-01-05 19:15:00","11.0005","3.42021","26.615","3.63","7.3","2.272","761.146","0","0.27","30.1995","4.75022","39.87","0","SATNPRO1963","26.75","0.37468","5"],
    [44689,"HCEP03730564","2025-01-05 19:30:00","10.9983","3.41933","26.681","3.582857142857143","7.29","2.109","843.326","0","1.12","30.1927","4.7493","39.36","0","SATNPRO1963","26.652","0.37332","5"],
    [44690,"HCEP03730564","2025-01-05 19:45:00","10.997","3.41895","26.768","3.571428571428572","7.28","2.275","751.508","0.01","1.47","30.19","4.74894","39.23","0","SATNPRO1963","26.974","0.3778","5"],
    [44691,"HCEP03730564","2025-01-05 20:00:00","10.9964","3.41864","26.793","3.564285714285714","7.29","2.276","746.674","0","0.19","30.1875","4.74858","39.15","0","SATNPRO1963","26.998","0.37814","5"],
    [44692,"HCEP03730564","2025-01-05 20:15:00","10.9969","3.41867","26.826","3.55","7.28","2.13","845.504","0","1.3","30.1873","4.74856","39","0","SATNPRO1963","27.31","0.38254","5"],
    [44693,"HCEP03730564","2025-01-05 20:30:00","10.9979","3.41833","26.854","3.525714285714286","7.28","2.272","755.812","0","1.49","30.1832","4.74795","38.72","0","SATNPRO1963","26.998","0.37814","5"],
    [44694,"HCEP03730564","2025-01-05 20:45:00","10.9989","3.41809","26.882","3.482857142857143","7.28","2.274","751.317","0","0","30.18","4.7475","38.25","0","SATNPRO1963","26.91","0.37692","5"],
    [44695,"HCEP03730564","2025-01-05 21:00:00","10.9992","3.41775","26.892","3.447142857142857","7.28","2.076","842.679","0","2.05","30.1764","4.74698","37.87","0","SATNPRO1963","26.882","0.37656","5"],
    [44696,"HCEP03730564","2025-01-05 21:15:00","10.9993","3.41712","26.878","3.417142857142857","7.27","2.253","745.943","0","1.29","30.1701","4.74608","37.53","0","SATNPRO1963","26.762","0.37486","5"],
    [44697,"HCEP03730564","2025-01-05 21:30:00","10.9983","3.41657","26.855","3.404285714285714","7.28","2.254","742.008","0","0.38","30.1656","4.74546","37.39","0","SATNPRO1963","27.124","0.37992","5"],
    [44698,"HCEP03730564","2025-01-05 21:45:00","10.9975","3.41588","26.797","3.402857142857143","7.27","2.09","850.45","0","1.24","30.1595","4.7446","37.38","0","SATNPRO1963","27.032","0.37862","5"],
    [44699,"HCEP03730564","2025-01-05 22:00:00","10.9956","3.41506","26.75","3.414285714285715","7.27","2.265","734.436","0","1.31","30.1531","4.74371","37.5","0","SATNPRO1963","27.298000000000002","0.38238","5"],
    [44700,"HCEP03730564","2025-01-05 22:15:00","10.9934","3.41441","26.706","3.445714285714286","7.28","2.267","730.222","0","0.43","30.1485","4.74309","37.83","0","SATNPRO1963","27.145999999999997","0.38024","5"],
    [44701,"HCEP03730564","2025-01-05 22:30:00","10.9937","3.41439","26.646","3.47","7.27","2.069","854.373","0.01","2.5","30.1481","4.74304","38.1","0","SATNPRO1963","27.294","0.38226","5"],
    [44702,"HCEP03730564","2025-01-05 22:45:00","10.9934","3.41413","26.608","3.461428571428572","7.27","2.236","742.482","0.01","1.18","30.1459","4.74272","38.01","0","SATNPRO1963","27.428","0.38416","5"],
    [44703,"HCEP03730564","2025-01-05 23:00:00","10.9933","3.41408","26.555","3.452857142857143","7.28","2.237","738.641","0","0.74","30.1455","4.74267","37.91","0","SATNPRO1963","27.478","0.38492","5"],
    [44704,"HCEP03730564","2025-01-05 23:15:00","10.9929","3.41392","26.497","3.448571428571429","7.27","2.075","862.744","0","1.15","30.1443","4.7425","37.86","0","SATNPRO1963","27.266000000000002","0.38188","5"],
    [44705,"HCEP03730564","2025-01-05 23:30:00","10.9934","3.41412","26.416","3.455714285714286","7.27","2.24","761.166","0.01","1.31","30.1458","4.7427","37.94","0","SATNPRO1963","27.227999999999998","0.38138","5"],
    [44706,"HCEP03730564","2025-01-05 23:45:00","10.994","3.41432","26.324","3.441428571428571","7.28","2.241","756.691","0","0.51","30.1473","4.7429","37.79","0","SATNPRO1963","27.142","0.38018","5"],
    [44707,"HCEP03730564","2025-01-06 00:00:00","10.9966","3.41498","26.221","3.424285714285714","7.27","2.074","857.229","0","1.36","30.1516","4.74346","37.61","0","SATNPRO1963","27.24","0.38154","5"],
    [44708,"HCEP03730564","2025-01-06 00:15:00","10.9978","3.41529","26.113","3.377142857142857","7.27","2.256","772.665","0.01","1.63","30.1538","4.74374","37.09","0","SATNPRO1963","27.078","0.37922","5"],
    [44709,"HCEP03730564","2025-01-06 00:30:00","10.9988","3.41564","25.993","3.345714285714286","7.28","2.255","767.318","0","0","30.1564","4.74409","36.74","0","SATNPRO1963","26.997999999999998","0.37816","5"],
    [44710,"HCEP03730564","2025-01-06 00:45:00","10.9993","3.4159","25.88","3.322857142857143","7.27","2.149","872.82","0","1.51","30.1586","4.74439","36.5","0","SATNPRO1963","26.874","0.37642","5"],
    [44711,"HCEP03730564","2025-01-06 01:00:00","10.999","3.41583","25.762","3.318571428571428","7.27","2.267","783.758","0.01","1.27","30.1583","4.74435","36.45","0","SATNPRO1963","27.06","0.37906","5"],
    [44712,"HCEP03730564","2025-01-06 01:15:00","10.9988","3.41587","25.667","3.33","7.27","2.267","779.555","0","0","30.1588","4.74442","36.57","0","SATNPRO1963","27.006","0.37824","5"],
    [44713,"HCEP03730564","2025-01-06 01:30:00","10.9991","3.41602","25.579","3.337142857142857","7.27","2.166","860.317","0","1.33","30.1601","4.74459","36.66","0","SATNPRO1963","27.102","0.3796","5"],
    [44714,"HCEP03730564","2025-01-06 01:45:00","10.9994","3.41622","25.497","3.332857142857143","7.26","2.271","807.865","0.01","1.27","30.1618","4.74482","36.6","0","SATNPRO1963","27.184","0.38078","5"],
    [44715,"HCEP03730564","2025-01-06 02:00:00","10.9996","3.41634","25.413","3.314285714285714","7.27","2.273","802.627","0","0","30.1628","4.74496","36.41","0","SATNPRO1963","26.99","0.37802","5"],
    [44716,"HCEP03730564","2025-01-06 02:15:00","10.9993","3.4165","25.336","3.3","7.27","2.152","876.486","0","1.15","30.1647","4.74523","36.25","0","SATNPRO1963","26.848","0.37604","5"],
    [44717,"HCEP03730564","2025-01-06 02:30:00","10.9988","3.41669","25.27","3.285714285714286","7.26","2.283","818.701","0.01","1.72","30.167","4.74556","36.09","0","SATNPRO1963","26.892","0.37664","5"],
    [44718,"HCEP03730564","2025-01-06 02:45:00","10.998","3.41701","25.226","3.282857142857143","7.27","2.285","813.317","0","0.54","30.1709","4.74612","36.05","0","SATNPRO1963","26.726","0.37434","5"],
    [44719,"HCEP03730564","2025-01-06 03:00:00","10.9971","3.41729","25.251","3.295714285714286","7.26","2.162","875.587","0","1.3","30.1743","4.74662","36.2","0","SATNPRO1963","26.772","0.37498","5"],
    [44720,"HCEP03730564","2025-01-06 03:15:00","10.9965","3.41762","25.282","3.324285714285714","7.26","2.287","825.644","0","1.6","30.1781","4.74716","36.51","0","SATNPRO1963","26.75","0.37468","5"],
    [44721,"HCEP03730564","2025-01-06 03:30:00","10.9966","3.41811","25.326","3.352857142857143","7.27","2.29","820.356","0","0.27","30.1826","4.74781","36.83","0","SATNPRO1963","26.93","0.37724","5"],
    [44722,"HCEP03730564","2025-01-06 03:45:00","10.9966","3.41833","25.373","3.385714285714286","7.27","2.164","884.673","0","1.41","30.1849","4.74814","37.19","0","SATNPRO1963","26.838","0.37592","5"],
    [44723,"HCEP03730564","2025-01-06 04:00:00","10.9938","3.41866","25.422","3.444285714285714","7.26","2.279","823.044","0","1.76","30.1903","4.74896","37.83","0","SATNPRO1963","26.91","0.37692","5"],
    [44724,"HCEP03730564","2025-01-06 04:15:00","10.9911","3.41853","25.501","3.532857142857143","7.28","2.281","818.402","0","0","30.1913","4.74913","38.8","0","SATNPRO1963","26.93","0.37718","5"],
    [44725,"HCEP03730564","2025-01-06 04:30:00","10.9893","3.41835","25.672","3.584285714285714","7.28","2.164","902.21","0","1.05","30.1909","4.74912","39.37","0","SATNPRO1963","26.966","0.37772","5"],
    [44726,"HCEP03730564","2025-01-06 04:45:00","10.9844","3.41794","25.785","3.654285714285714","7.28","2.294","831.744","0.01","1.33","30.1909","4.74919","40.12","0","SATNPRO1963","26.85","0.37608","5"],
    [44727,"HCEP03730564","2025-01-06 05:00:00","10.9823","3.41746","25.907","3.755714285714286","7.29","2.295","827.327","0","0.27","30.1879","4.74881","41.23","0","SATNPRO1963","27.02","0.37848","5"],
    [44728,"HCEP03730564","2025-01-06 05:15:00","10.9796","3.41671","26.072","3.788571428571429","7.29","2.199","893.058","0","1.18","30.1827","4.74812","41.6","0","SATNPRO1963","27.022000000000002","0.37848","5"],
    [44729,"HCEP03730564","2025-01-06 05:30:00","10.9753","3.41574","26.247","3.84","7.29","2.297","827.819","0.01","2.15","30.1766","4.74734","42.16","0","SATNPRO1963","26.811999999999998","0.37552","5"],
    [44730,"HCEP03730564","2025-01-06 05:45:00","10.9705","3.41498","26.455","3.87","7.3","2.299","821.574","0","0","30.173","4.74691","42.48","0","SATNPRO1963","27.326","0.38272","5"],
    [44731,"HCEP03730564","2025-01-06 06:00:00","10.9558","3.41357","26.671","3.91","7.3","2.176","885.213","0","1.01","30.1713","4.7469","42.91","0","SATNPRO1963","26.678","0.37362","5"],
    [44732,"HCEP03730564","2025-01-06 06:15:00","10.9419","3.41229","26.895","3.974285714285714","7.3","2.291","823.113","0.01","1.56","30.17","4.74695","43.6","0","SATNPRO1963","26.764","0.37488","5"],
    [44733,"HCEP03730564","2025-01-06 06:30:00","10.932","3.41131","27.064","4.047142857142857","7.31","2.293","817.774","0","0.77","30.1684","4.74689","44.39","0","SATNPRO1963","26.84","0.37594","5"],
    [44734,"HCEP03730564","2025-01-06 06:45:00","10.9332","3.41164","27.263","4.097142857142857","7.31","2.191","877.831","0","1.63","30.1707","4.74721","44.93","0","SATNPRO1963","26.912","0.37698","5"],
    [44735,"HCEP03730564","2025-01-06 07:00:00","10.9298","3.41164","27.449","4.118571428571428","7.31","2.291","825.124","0","1.49","30.1733","4.74764","45.18","0","SATNPRO1963","26.812","0.37554","5"],
    [44736,"HCEP03730564","2025-01-06 07:15:00","10.93","3.41203","27.634","4.137142857142857","7.32","2.293","819.957","0","0.38","30.1769","4.74815","45.37","0","SATNPRO1963","26.882","0.37654","5"],
    [44737,"HCEP03730564","2025-01-06 07:30:00","10.9273","3.41178","27.812","4.145714285714286","7.32","2.177","894.886","0","1.24","30.1766","4.74817","45.46","0","SATNPRO1963","26.944","0.3774","5"],
    [44738,"HCEP03730564","2025-01-06 07:45:00","10.9206","3.41137","27.951","4.161428571428571","7.31","2.285","819.549","0.01","1.46","30.1781","4.74849","45.63","0","SATNPRO1963","26.872","0.37642","5"],
    [44739,"HCEP03730564","2025-01-06 08:00:00","10.921","3.41132","28.064","4.184285714285714","7.33","2.288","814.977","0","0","30.1773","4.74837","45.88","0","SATNPRO1963","26.746","0.37462","5"],
    [44740,"HCEP03730564","2025-01-06 08:15:00","10.9196","3.41104","28.155","4.194285714285714","7.33","2.18","885.723","0","0.81","30.1756","4.74816","45.98","0","SATNPRO1963","26.926","0.37718","5"],
    [44741,"HCEP03730564","2025-01-06 08:30:00","10.9156","3.41075","28.251","4.215714285714286","7.32","2.284","821.964","0","1.78","30.1759","4.74827","46.21","0","SATNPRO1963","26.926000000000002","0.37716","5"],
    [44742,"HCEP03730564","2025-01-06 08:45:00","10.9178","3.41096","28.351","4.235714285714286","7.33","2.287","816.35","0","0","30.1762","4.74829","46.44","0","SATNPRO1963","26.89","0.37662","5"],
    [44743,"HCEP03730564","2025-01-06 09:00:00","10.9179","3.41102","28.374","4.232857142857143","7.33","2.174","874.833","0","0.98","30.1767","4.74836","46.42","0","SATNPRO1963","26.918","0.37708","5"],
    [44744,"HCEP03730564","2025-01-06 09:15:00","10.9209","3.41143","28.368","4.220000000000001","7.33","2.279","822.284","0","1.63","30.1782","4.74853","46.28","0","SATNPRO1963","26.778","0.37506","5"],
    [44745,"HCEP03730564","2025-01-06 09:30:00","10.9196","3.41131","28.376","4.205714285714286","7.34","2.279","817.017","0","0","30.1781","4.74853","46.11","0","SATNPRO1963","26.830000000000002","0.3758","5"],
    [44746,"HCEP03730564","2025-01-06 09:45:00","10.9216","3.41166","28.374","4.201428571428571","7.33","2.177","869.626","0","0.66","30.1798","4.74875","46.07","0","SATNPRO1963","26.82","0.37566","5"],
    [44747,"HCEP03730564","2025-01-06 10:00:00","10.9297","3.41254","28.333","4.19","7.33","2.274","809.062","0","1.51","30.1819","4.74891","45.95","0","SATNPRO1963","27.042","0.37876","5"],
    [44748,"HCEP03730564","2025-01-06 10:15:00","10.9256","3.41198","28.303","4.165714285714286","7.33","2.274","803.515","0","0.27","30.1798","4.74868","45.68","0","SATNPRO1963","27.08","0.37928","5"],
    [44749,"HCEP03730564","2025-01-06 10:30:00","10.9319","3.41272","28.262","4.155714285714286","7.33","2.151","862.651","0","1.27","30.1819","4.74887","45.59","0","SATNPRO1963","26.848","0.376","5"],
    [44750,"HCEP03730564","2025-01-06 10:45:00","10.9297","3.41241","28.221","4.122857142857143","7.32","2.277","798.058","0.01","1.74","30.1807","4.74874","45.22","0","SATNPRO1963","26.956","0.37754","5"],
    [44751,"HCEP03730564","2025-01-06 11:00:00","10.9299","3.41239","28.15","4.114285714285714","7.33","2.279","792.286","0","0.27","30.1803","4.74867","45.12","0","SATNPRO1963","26.846","0.37602","5"],
    [44752,"HCEP03730564","2025-01-06 11:15:00","10.9313","3.41243","28.067","4.104285714285715","7.33","2.156","860.9","0","1.05","30.1796","4.74854","45.01","0","SATNPRO1963","26.85","0.37608","5"],
    [44753,"HCEP03730564","2025-01-06 11:30:00","10.9326","3.41247","27.994","4.092857142857143","7.32","2.255","806.173","0.01","1.38","30.179","4.74843","44.88","0","SATNPRO1963","27.038","0.37872","5"],
    [44754,"HCEP03730564","2025-01-06 11:45:00","10.955","3.4145","27.912","4.03","7.33","2.255","800.892","0","0.47","30.1805","4.74829","44.23","0","SATNPRO1963","26.686","0.3738","5"],
    [44755,"HCEP03730564","2025-01-06 12:00:00","10.9654","3.41569","27.823","3.911428571428572","7.32","2.152","855.564","0","1.12","30.1836","4.74857","42.93","0","SATNPRO1963","26.528000000000002","0.37156","5"],
    [44756,"HCEP03730564","2025-01-06 12:15:00","10.968","3.41616","27.731","3.838571428571428","7.32","2.27","787.64","0","1.36","30.1861","4.74889","42.14","0","SATNPRO1963","26.542","0.37172","5"],
    [44757,"HCEP03730564","2025-01-06 12:30:00","10.9698","3.4165","27.607","3.801428571428572","7.32","2.27","782.862","0","0","30.1881","4.74913","41.73","0","SATNPRO1963","26.442","0.3704","5"],
    [44758,"HCEP03730564","2025-01-06 12:45:00","10.9734","3.41722","27.456","3.76","7.32","2.141","864.713","0","0.98","30.1922","4.74965","41.27","0","SATNPRO1963","26.496","0.3711","5"],
    [44759,"HCEP03730564","2025-01-06 13:00:00","10.9702","3.41737","27.293","3.745714285714286","7.31","2.268","788.568","0.01","1.63","30.1964","4.75028","41.13","0","SATNPRO1963","26.822","0.3757","5"],
    [44760,"HCEP03730564","2025-01-06 13:15:00","10.9707","3.41756","27.133","3.751428571428571","7.32","2.27","783.592","0","0","30.1979","4.75047","41.19","0","SATNPRO1963","26.598","0.37254","5"],
    [44761,"HCEP03730564","2025-01-06 13:30:00","10.97","3.41783","26.96","3.75","7.31","2.143","868.495","0","1.63","30.2012","4.75094","41.16","0","SATNPRO1963","26.619999999999997","0.37288","5"],
    [44762,"HCEP03730564","2025-01-06 13:45:00","10.9716","3.418","26.779","3.73","7.31","2.269","782.2","0","1.49","30.2016","4.75097","40.95","0","SATNPRO1963","26.811999999999998","0.37558","5"],
    [44763,"HCEP03730564","2025-01-06 14:00:00","10.9712","3.41809","26.59","3.714285714285714","7.31","2.271","776.673","0","0.38","30.2029","4.75115","40.78","0","SATNPRO1963","26.868","0.37634","5"],
    [44764,"HCEP03730564","2025-01-06 14:15:00","10.9675","3.41806","26.406","3.704285714285714","7.31","2.131","864.354","0","0.94","30.2056","4.75158","40.67","0","SATNPRO1963","26.598","0.37256","5"],
    [44765,"HCEP03730564","2025-01-06 14:30:00","10.9651","3.41798","26.22","3.704285714285714","7.31","2.267","786.635","0","1.56","30.207","4.7518","40.67","0","SATNPRO1963","26.536","0.37166","5"],
    [44766,"HCEP03730564","2025-01-06 14:45:00","10.961","3.41783","26.045","3.738571428571428","7.31","2.27","781.606","0","0.27","30.209","4.75214","41.03","0","SATNPRO1963","26.71","0.37412","5"],
    [44767,"HCEP03730564","2025-01-06 15:00:00","10.9545","3.41762","25.897","3.794285714285714","7.31","2.125","876.217","0","1.15","30.2123","4.7527","41.64","0","SATNPRO1963","27.056","0.37896","5"],
    [44768,"HCEP03730564","2025-01-06 15:15:00","10.9523","3.41752","25.765","3.842857142857143","7.3","2.253","766.837","0","1.38","30.2132","4.75286","42.18","0","SATNPRO1963","26.76","0.37482","5"],
    [44769,"HCEP03730564","2025-01-06 15:30:00","10.9494","3.41737","25.66","3.854285714285714","7.32","2.254","762.461","0","0","30.2141","4.75303","42.29","0","SATNPRO1963","26.82","0.37566","5"],
    [44770,"HCEP03730564","2025-01-06 15:45:00","10.947","3.41726","25.572","3.87","7.31","2.072","882.306","0","1.44","30.215","4.75319","42.46","0","SATNPRO1963","26.774","0.375","5"],
    [44771,"HCEP03730564","2025-01-06 16:00:00","10.9451","3.4172","25.504","3.888571428571429","7.31","2.252","762.759","0","1.67","30.2161","4.75336","42.67","0","SATNPRO1963","27.014","0.37838","5"],
    [44772,"HCEP03730564","2025-01-06 16:15:00","10.9429","3.41709","25.468","3.89","7.32","2.254","758.989","0","0.27","30.2168","4.7535","42.69","0","SATNPRO1963","27.048000000000002","0.37888","5"],
    [44773,"HCEP03730564","2025-01-06 16:30:00","10.9432","3.41702","25.445","3.91","7.31","2.111","862.313","0","0.86","30.2159","4.75337","42.9","0","SATNPRO1963","26.764","0.37488","5"],
    [44774,"HCEP03730564","2025-01-06 16:45:00","10.942","3.41686","25.455","3.91","7.31","2.267","782.181","0","1.94","30.2153","4.7533","42.91","0","SATNPRO1963","26.954","0.37754","5"],
    [44775,"HCEP03730564","2025-01-06 17:00:00","10.9419","3.4166","25.478","3.931428571428571","7.32","2.27","776.867","0","0.47","30.2128","4.75295","43.14","0","SATNPRO1963","26.836","0.37586","5"],
    [44776,"HCEP03730564","2025-01-06 17:15:00","10.9375","3.41587","25.501","3.941428571428571","7.32","2.144","868.607","0","0.72","30.2093","4.75251","43.24","0","SATNPRO1963","26.83","0.37578","5"],
    [44777,"HCEP03730564","2025-01-06 17:30:00","10.9135","3.41306","25.517","3.982857142857143","7.31","2.265","788.255","0","1.33","30.2015","4.75178","43.68","0","SATNPRO1963","26.548000000000002","0.37188","5"],
    [44778,"HCEP03730564","2025-01-06 17:45:00","10.8893","3.4102","25.55","4.097142857142857","7.33","2.266","783.641","0","0","30.1933","4.751","44.9","0","SATNPRO1963","26.8","0.37538","5"],
    [44779,"HCEP03730564","2025-01-06 18:00:00","10.8757","3.40805","25.614","4.227142857142858","7.33","2.135","878.306","0","0.86","30.1833","4.74979","46.31","0","SATNPRO1963","26.634","0.37304","5"],
    [44780,"HCEP03730564","2025-01-06 18:15:00","10.8717","3.4068","25.71","4.302857142857143","7.32","2.258","769.989","0","1.07","30.1743","4.74858","47.14","0","SATNPRO1963","26.994","0.3781","5"],
    [44781,"HCEP03730564","2025-01-06 18:30:00","10.875","3.40728","25.861","4.338571428571429","7.34","2.259","765.854","0","0.72","30.1763","4.74883","47.53","0","SATNPRO1963","26.75","0.37464","5"],
    [44782,"HCEP03730564","2025-01-06 18:45:00","10.8768","3.4075","25.91","4.317142857142857","7.33","2.139","868.268","0","0.77","30.1769","4.74889","47.3","0","SATNPRO1963","26.76","0.37482","5"],
    [44783,"HCEP03730564","2025-01-06 19:00:00","10.8792","3.4076","26.013","4.304285714285714","7.33","2.259","794.885","0.01","1.69","30.1759","4.74872","47.15","0","SATNPRO1963","26.689999999999998","0.37384","5"],
    [44784,"HCEP03730564","2025-01-06 19:15:00","10.8813","3.40767","26.097","4.308571428571429","7.34","2.258","789.692","0","0.54","30.1748","4.74852","47.21","0","SATNPRO1963","26.648","0.37324","5"],
    [44785,"HCEP03730564","2025-01-06 19:30:00","10.8878","3.40853","26.149","4.281428571428571","7.34","2.158","860.214","0","0.94","30.1779","4.74887","46.91","0","SATNPRO1963","26.998","0.37814","5"],
    [44786,"HCEP03730564","2025-01-06 19:45:00","10.893","3.40903","26.212","4.248571428571429","7.33","2.258","781.617","0","1.38","30.1785","4.74888","46.56","0","SATNPRO1963","26.884","0.37656","5"],
    [44787,"HCEP03730564","2025-01-06 20:00:00","10.895","3.40917","26.308","4.225714285714286","7.34","2.259","775.394","0","0.47","30.1782","4.74881","46.31","0","SATNPRO1963","26.774","0.37504","5"],
    [44788,"HCEP03730564","2025-01-06 20:15:00","10.9318","3.41445","26.39","4.167142857142857","7.34","2.155","838.694","0","1.18","30.1997","4.7513","45.71","0","SATNPRO1963","26.578","0.37226","5"],
    [44789,"HCEP03730564","2025-01-06 20:30:00","10.9278","3.41386","26.491","4.037142857142857","7.33","2.272","769.391","0","1.15","30.1971","4.751","44.29","0","SATNPRO1963","26.694","0.3739","5"],
    [44790,"HCEP03730564","2025-01-06 20:45:00","10.9375","3.4157","26.579","4.004285714285714","7.33","2.274","764.431","0","0","30.2072","4.75228","43.92","0","SATNPRO1963","26.906","0.37688","5"],
    [44791,"HCEP03730564","2025-01-06 21:00:00","10.9395","3.41613","26.641","3.957142857142857","7.33","2.123","854.841","0","1.36","30.2097","4.75261","43.41","0","SATNPRO1963","26.906","0.37684","5"],
    [44792,"HCEP03730564","2025-01-06 21:15:00","10.9397","3.4163","26.763","3.935714285714286","7.32","2.261","775.549","0.01","1.51","30.2112","4.75283","43.18","0","SATNPRO1963","26.93","0.37716","5"],
    [44793,"HCEP03730564","2025-01-06 21:30:00","10.94","3.41627","26.826","3.92","7.33","2.261","770.568","0","0.19","30.2106","4.75274","43","0","SATNPRO1963","26.828","0.3758","5"],
    [44794,"HCEP03730564","2025-01-06 21:45:00","10.9405","3.41639","26.874","3.908571428571429","7.32","2.142","859.068","0","0.9","30.2114","4.75285","42.89","0","SATNPRO1963","26.65","0.37328","5"],
    [44795,"HCEP03730564","2025-01-06 22:00:00","10.9439","3.41655","26.902","3.892857142857143","7.32","2.262","772.81","0.01","1.21","30.2102","4.75262","42.72","0","SATNPRO1963","26.866","0.37632","5"],
    [44796,"HCEP03730564","2025-01-06 22:15:00","10.9461","3.41664","26.899","3.861428571428571","7.33","2.263","767.809","0","0","30.2092","4.75245","42.37","0","SATNPRO1963","26.862","0.37626","5"],
    [44797,"HCEP03730564","2025-01-06 22:30:00","10.9494","3.41668","26.883","3.835714285714286","7.32","2.135","838.553","0","1.27","30.2069","4.75208","42.1","0","SATNPRO1963","26.834","0.3759","5"],
    [44798,"HCEP03730564","2025-01-06 22:45:00","10.9601","3.41727","26.861","3.798571428571428","7.31","2.26","757.497","0","2.29","30.2039","4.75148","41.69","0","SATNPRO1963","26.768","0.37492","5"],
    [44799,"HCEP03730564","2025-01-06 23:00:00","10.9641","3.41723","26.841","3.738571428571428","7.32","2.26","751.46","0","0","30.2002","4.75089","41.04","0","SATNPRO1963","26.738","0.37448","5"],
    [44800,"HCEP03730564","2025-01-06 23:15:00","10.967","3.41734","26.799","3.691428571428572","7.31","2.127","823.123","0","1.01","30.1989","4.75066","40.53","0","SATNPRO1963","26.5","0.37116","5"],
    [44801,"HCEP03730564","2025-01-06 23:30:00","10.9672","3.41716","26.758","3.667142857142857","7.3","2.26","771.071","0.01","1.51","30.197","4.75039","40.25","0","SATNPRO1963","26.998","0.37814","5"],
    [44802,"HCEP03730564","2025-01-06 23:45:00","10.9667","3.4169","26.713","3.674285714285714","7.31","2.261","765.748","0","0","30.1949","4.75009","40.34","0","SATNPRO1963","26.58","0.3723","5"],
    [44803,"HCEP03730564","2025-01-07 00:00:00","10.967","3.41694","26.659","3.695714285714286","7.31","2.152","831.673","0","1.21","30.195","4.75009","40.57","0","SATNPRO1963","26.922","0.37708","5"],
    [44804,"HCEP03730564","2025-01-07 00:15:00","10.9665","3.41703","26.663","3.702857142857143","7.3","2.272","760.158","0","1.34","30.1963","4.75029","40.65","0","SATNPRO1963","26.894","0.37668","5"],
    [44805,"HCEP03730564","2025-01-07 00:30:00","10.9657","3.4171","26.598","3.702857142857143","7.31","2.272","755.764","0","0","30.1977","4.75049","40.65","0","SATNPRO1963","26.830000000000002","0.3758","5"],
    [44806,"HCEP03730564","2025-01-07 00:45:00","10.9634","3.41702","26.535","3.702857142857143","7.3","2.098","836.294","0","1.58","30.1989","4.75069","40.65","0","SATNPRO1963","26.614","0.37274","5"],
    [44807,"HCEP03730564","2025-01-07 01:00:00","10.9562","3.41693","26.471","3.704285714285714","7.3","2.248","751.384","0.01","1.46","30.2039","4.75152","40.66","0","SATNPRO1963","25.864","0.36226","5"],
    [44808,"HCEP03730564","2025-01-07 01:15:00","10.9534","3.41691","26.396","3.725714285714286","7.31","2.25","746.693","0","0","30.206","4.75186","40.89","0","SATNPRO1963","26.784","0.37514","5"],
    [44809,"HCEP03730564","2025-01-07 01:30:00","10.9511","3.41675","26.301","3.742857142857143","7.31","2.078","831.814","0","0.77","30.2064","4.75195","41.08","0","SATNPRO1963","26.806","0.37548","5"],
    [44810,"HCEP03730564","2025-01-07 01:45:00","10.9479","3.41655","26.239","3.762857142857143","7.3","2.223","749.851","0","1.51","30.207","4.75208","41.29","0","SATNPRO1963","26.768","0.37494","5"],
    [44811,"HCEP03730564","2025-01-07 02:00:00","10.9419","3.41629","26.163","3.807142857142857","7.31","2.226","745.345","0","0","30.2095","4.75252","41.77","0","SATNPRO1963","26.736","0.37444","5"],
    [44812,"HCEP03730564","2025-01-07 02:15:00","10.9374","3.41606","26.103","3.838571428571428","7.31","2.096","823.173","0","0.94","30.2111","4.7528","42.12","0","SATNPRO1963","26.582","0.37234","5"],
    [44813,"HCEP03730564","2025-01-07 02:30:00","10.9353","3.41603","26.074","3.861428571428571","7.31","2.243","748.262","0.01","1.13","30.2124","4.75302","42.37","0","SATNPRO1963","26.954","0.37754","5"],
    [44814,"HCEP03730564","2025-01-07 02:45:00","10.9338","3.41599","26.029","3.874285714285715","7.32","2.244","743.751","0","0.64","30.2133","4.75317","42.5","0","SATNPRO1963","26.695999999999998","0.3739","5"],
    [44815,"HCEP03730564","2025-01-07 03:00:00","10.9374","3.41601","25.984","3.88","7.32","2.101","821.414","0","0.94","30.2106","4.75273","42.56","0","SATNPRO1963","26.734","0.37446","5"],
    [44816,"HCEP03730564","2025-01-07 03:15:00","10.9355","3.41517","25.916","3.87","7.31","2.24","756.759","0.01","1.1","30.2039","4.75181","42.45","0","SATNPRO1963","26.658","0.37342","5"],
    [44817,"HCEP03730564","2025-01-07 03:30:00","10.9342","3.41536","25.872","3.885714285714286","7.32","2.241","752.384","0","0.38","30.2069","4.75225","42.63","0","SATNPRO1963","26.81","0.3755","5"],
    [44818,"HCEP03730564","2025-01-07 03:45:00","10.9357","3.41571","25.855","3.88","7.32","2.136","811.392","0","1.12","30.209","4.75253","42.57","0","SATNPRO1963","26.92","0.37706","5"],
    [44819,"HCEP03730564","2025-01-07 04:00:00","10.9349","3.41577","25.857","3.874285714285715","7.31","2.236","753.644","0.01","1.33","30.2103","4.75272","42.5","0","SATNPRO1963","26.733999999999998","0.37444","5"],
    [44820,"HCEP03730564","2025-01-07 04:15:00","10.9336","3.41562","25.883","3.868571428571429","7.32","2.236","748.965","0","0","30.2099","4.75268","42.44","0","SATNPRO1963","26.702","0.37402","5"],
    [44821,"HCEP03730564","2025-01-07 04:30:00","10.9304","3.41501","25.915","3.868571428571429","7.31","2.136","830.658","0","1.01","30.2065","4.75226","42.44","0","SATNPRO1963","26.784","0.37512","5"],
    [44822,"HCEP03730564","2025-01-07 04:45:00","10.9215","3.41382","25.956","3.877142857142857","7.31","2.257","773.826","0","1.36","30.2021","4.75177","42.52","0","SATNPRO1963","26.534","0.37166","5"],
    [44823,"HCEP03730564","2025-01-07 05:00:00","10.906","3.41206","26.006","3.934285714285714","7.32","2.259","768.657","0","0.19","30.1976","4.75138","43.13","0","SATNPRO1963","26.516","0.37144","5"],
    [44824,"HCEP03730564","2025-01-07 05:15:00","10.8899","3.41023","26.113","4.007142857142857","7.32","2.137","841.818","0","0.86","30.1929","4.75097","43.92","0","SATNPRO1963","26.438","0.37032","5"],
    [44825,"HCEP03730564","2025-01-07 05:30:00","10.8711","3.40812","26.212","4.109999999999999","7.32","2.255","753.978","0.01","1.05","30.1876","4.75051","45.02","0","SATNPRO1963","26.596","0.37254","5"],
    [44826,"HCEP03730564","2025-01-07 05:45:00","10.8589","3.40652","26.292","4.2","7.33","2.256","748.651","0","0","30.1818","4.74989","46","0","SATNPRO1963","26.486","0.37098","5"],
    [44827,"HCEP03730564","2025-01-07 06:00:00","10.8419","3.40452","26.403","4.248571428571429","7.33","2.069","846.174","0","0.77","30.1762","4.74936","46.51","0","SATNPRO1963","26.548000000000002","0.3718","5"],
    [44828,"HCEP03730564","2025-01-07 06:15:00","10.8284","3.40261","26.556","4.325714285714286","7.33","2.247","761.041","0","1.17","30.1684","4.74848","47.33","0","SATNPRO1963","26.776","0.37506","5"],
    [44829,"HCEP03730564","2025-01-07 06:30:00","10.8135","3.40048","26.684","4.408571428571428","7.34","2.249","755.984","0","0.43","30.1597","4.74748","48.23","0","SATNPRO1963","27.148","0.38026","5"],
    [44830,"HCEP03730564","2025-01-07 06:45:00","10.7901","3.39761","26.832","4.5","7.34","2.084","866.695","0","1.24","30.1507","4.74657","49.2","0","SATNPRO1963","26.93","0.37722","5"],
    [44831,"HCEP03730564","2025-01-07 07:00:00","10.7751","3.39582","26.976","4.652857142857143","7.35","2.25","790.484","0","0.94","30.1454","4.74607","50.85","0","SATNPRO1963","27.066","0.37912","5"],
    [44832,"HCEP03730564","2025-01-07 07:15:00","10.7631","3.3941","27.136","4.755714285714286","7.36","2.25","785.424","0","0.38","30.1382","4.74525","51.96","0","SATNPRO1963","27.082","0.37932","5"],
    [44833,"HCEP03730564","2025-01-07 07:30:00","10.7544","3.39289","27.278","4.832857142857143","7.36","2.128","863.759","0","0.77","30.1335","4.74472","52.79","0","SATNPRO1963","27.23","0.38144","5"],
    [44834,"HCEP03730564","2025-01-07 07:45:00","10.7461","3.39181","27.474","4.91","7.36","2.253","788.314","0","1.46","30.1296","4.74431","53.62","0","SATNPRO1963","26.996","0.3781","5"],
    [44835,"HCEP03730564","2025-01-07 08:00:00","10.743","3.39119","27.665","4.954285714285715","7.37","2.253","783.241","0","0.66","30.1259","4.74385","54.09","0","SATNPRO1963","27.414","0.38392","5"],
    [44836,"HCEP03730564","2025-01-07 08:15:00","10.7391","3.39052","27.852","4.977142857142857","7.37","2.125","838.866","0","0.94","30.1225","4.74343","54.35","0","SATNPRO1963","27.378","0.38348","5"],
    [44837,"HCEP03730564","2025-01-07 08:30:00","10.7368","3.39027","28.002","5.008571428571428","7.37","2.258","776.14","0","0.94","30.1218","4.74337","54.69","0","SATNPRO1963","27.478","0.38488","5"],
    [44838,"HCEP03730564","2025-01-07 08:45:00","10.7347","3.39006","28.11","5.04","7.38","2.258","771.282","0","0.9","30.1214","4.74337","55.03","0","SATNPRO1963","27.53","0.38558","5"],
    [44839,"HCEP03730564","2025-01-07 09:00:00","10.7377","3.39029","28.217","5.038571428571429","7.38","2.127","853.443","0","0.81","30.1212","4.7433","55.01","0","SATNPRO1963","27.286","0.38224","5"],
    [44840,"HCEP03730564","2025-01-07 09:15:00","10.7355","3.39006","28.299","5.025714285714286","7.38","2.244","738.887","0","1.17","30.1207","4.74326","54.86","0","SATNPRO1963","27.352","0.38308","5"],
    [44841,"HCEP03730564","2025-01-07 09:30:00","10.7341","3.38996","28.35","5.04","7.39","2.245","733.776","0","0.27","30.1209","4.74331","55.02","0","SATNPRO1963","27.276","0.38204","5"],
    [44842,"HCEP03730564","2025-01-07 09:45:00","10.7368","3.39023","28.414","5.04","7.38","2.109","825.644","0","1.05","30.1213","4.74333","55.03","0","SATNPRO1963","27.108","0.37968","5"],
    [44843,"HCEP03730564","2025-01-07 10:00:00","10.7362","3.39037","28.445","5.025714285714286","7.38","2.244","746.427","0","0.77","30.1231","4.7436","54.86","0","SATNPRO1963","27.402","0.38382","5"],
    [44844,"HCEP03730564","2025-01-07 10:15:00","10.7382","3.39054","28.444","5.021428571428571","7.39","2.243","741.715","0","0.66","30.1232","4.74358","54.82","0","SATNPRO1963","27.428","0.38416","5"],
    [44845,"HCEP03730564","2025-01-07 10:30:00","10.7367","3.39037","28.426","5.015714285714286","7.39","2.098","840.442","0","0.72","30.1227","4.74354","54.76","0","SATNPRO1963","27.772","0.389","5"],
    [44846,"HCEP03730564","2025-01-07 10:45:00","10.7409","3.39071","28.379","5.007142857142857","7.38","2.246","763.518","0","1.12","30.1226","4.74345","54.68","0","SATNPRO1963","27.486","0.38498","5"],
    [44847,"HCEP03730564","2025-01-07 11:00:00","10.752","3.39231","28.321","4.971428571428572","7.39","2.246","758.289","0","0.27","30.1293","4.74423","54.3","0","SATNPRO1963","27.188","0.38084","5"],
    [44848,"HCEP03730564","2025-01-07 11:15:00","10.7697","3.39521","28.234","4.891428571428572","7.39","2.13","836.949","0","0.47","30.1433","4.74593","53.44","0","SATNPRO1963","26.948","0.37746","5"],
    [44849,"HCEP03730564","2025-01-07 11:30:00","10.7843","3.39688","28.166","4.788571428571428","7.38","2.264","779.633","0","1.53","30.1478","4.74633","52.35","0","SATNPRO1963","26.846","0.376","5"],
    [44850,"HCEP03730564","2025-01-07 11:45:00","10.8088","3.39946","28.051","4.661428571428571","7.38","2.265","774.222","0","0.47","30.153","4.74668","50.98","0","SATNPRO1963","26.64","0.37316","5"],
    [44851,"HCEP03730564","2025-01-07 12:00:00","10.8269","3.40139","27.916","4.494285714285715","7.37","2.166","836.495","0","0.86","30.1572","4.74698","49.18","0","SATNPRO1963","26.63","0.37298","5"],
    [44852,"HCEP03730564","2025-01-07 12:15:00","10.8364","3.40223","27.835","4.397142857142857","7.36","2.258","748.062","0","1.21","30.1577","4.7469","48.12","0","SATNPRO1963","26.398","0.36974","5"],
    [44853,"HCEP03730564","2025-01-07 12:30:00","10.8411","3.40248","27.701","4.34","7.37","2.261","743.306","0","0","30.1563","4.74662","47.51","0","SATNPRO1963","26.568","0.37212","5"],
    [44854,"HCEP03730564","2025-01-07 12:45:00","10.8482","3.40273","27.537","4.31","7.36","2.104","847.249","0","1.12","30.1529","4.74603","47.18","0","SATNPRO1963","26.486","0.371","5"],
    [44855,"HCEP03730564","2025-01-07 13:00:00","10.8531","3.40286","27.39","4.274285714285714","7.35","2.267","758.472","0","1.45","30.1502","4.74555","46.79","0","SATNPRO1963","26.698","0.37392","5"],
    [44856,"HCEP03730564","2025-01-07 13:15:00","10.8584","3.40305","27.216","4.255714285714286","7.36","2.268","752.709","0","0","30.1478","4.74511","46.59","0","SATNPRO1963","26.868","0.37632","5"],
    [44857,"HCEP03730564","2025-01-07 13:30:00","10.8581","3.40316","27.018","4.251428571428572","7.35","2.141","809.796","0","0.27","30.1492","4.74532","46.55","0","SATNPRO1963","26.808","0.3755","5"],
    [44858,"HCEP03730564","2025-01-07 13:45:00","10.8632","3.40441","26.83","4.254285714285714","7.34","2.26","756.176","0","1.51","30.1574","4.74639","46.59","0","SATNPRO1963","26.95","0.3775","5"],
    [44859,"HCEP03730564","2025-01-07 14:00:00","10.8763","3.4072","26.676","4.220000000000001","7.35","2.26","750.536","0","0","30.1741","4.74855","46.22","0","SATNPRO1963","26.81","0.37552","5"],
    [44860,"HCEP03730564","2025-01-07 14:15:00","10.8777","3.40777","26.489","4.17","7.34","2.089","822.114","0","1.24","30.1786","4.74914","45.68","0","SATNPRO1963","26.96","0.37762","5"],
    [44861,"HCEP03730564","2025-01-07 14:30:00","10.8868","3.40914","26.298","4.17","7.34","2.238","744.027","0.01","1.36","30.1847","4.74985","45.7","0","SATNPRO1963","26.968","0.37774","5"],
    [44862,"HCEP03730564","2025-01-07 14:45:00","10.8907","3.40958","26.14","4.158571428571428","7.34","2.239","738.793","0","0.61","30.1858","4.74995","45.57","0","SATNPRO1963","26.938","0.3773","5"],
    [44863,"HCEP03730564","2025-01-07 15:00:00","10.894","3.40986","25.997","4.155714285714286","7.34","2.096","821.745","0","1.44","30.1858","4.74989","45.54","0","SATNPRO1963","27.06","0.37904","5"],
    [44864,"HCEP03730564","2025-01-07 15:15:00","10.8951","3.41012","25.824","4.142857142857143","7.33","2.223","750.993","0.01","1.62","30.1875","4.75011","45.4","0","SATNPRO1963","27.312","0.38256","5"],
    [44865,"HCEP03730564","2025-01-07 15:30:00","10.8991","3.41039","25.651","4.132857142857143","7.34","2.224","746.047","0","0","30.1871","4.74997","45.3","0","SATNPRO1963","27.240000000000002","0.38156","5"],
    [44866,"HCEP03730564","2025-01-07 15:45:00","10.9013","3.41055","25.485","4.122857142857143","7.33","2.084","817.356","0","1.15","30.1869","4.7499","45.18","0","SATNPRO1963","27.048000000000002","0.37884","5"],
    [44867,"HCEP03730564","2025-01-07 16:00:00","10.9023","3.41073","25.338","4.107142857142858","7.33","2.229","737.679","0","1.76","30.1878","4.75001","45.02","0","SATNPRO1963","27.014","0.37838","5"],
    [44868,"HCEP03730564","2025-01-07 16:15:00","10.9009","3.41076","25.213","4.097142857142857","7.34","2.228","733.08","0","0","30.1894","4.75024","44.9","0","SATNPRO1963","27.048","0.37886","5"],
    [44869,"HCEP03730564","2025-01-07 16:30:00","10.8994","3.41077","25.13","4.104285714285715","7.33","2.093","832.71","0","1.86","30.1908","4.75046","44.98","0","SATNPRO1963","27.114","0.37978","5"],
    [44870,"HCEP03730564","2025-01-07 16:45:00","10.8984","3.41081","25.068","4.112857142857143","7.33","2.22","739.776","0","1.2","30.192","4.75064","45.09","0","SATNPRO1963","27.146","0.38022","5"],
    [44871,"HCEP03730564","2025-01-07 17:00:00","10.9004","3.41107","25.013","4.104285714285715","7.33","2.222","735.349","0","0","30.1929","4.75075","44.99","0","SATNPRO1963","26.942","0.37738","5"],
    [44872,"HCEP03730564","2025-01-07 17:15:00","10.8949","3.41062","24.975","4.105714285714286","7.33","2.071","817.326","0","1.01","30.193","4.75084","45","0","SATNPRO1963","26.974","0.37782","5"],
    [44873,"HCEP03730564","2025-01-07 17:30:00","10.8931","3.41042","24.96","4.109999999999999","7.32","2.225","730.439","0.01","1.08","30.1925","4.75079","45.05","0","SATNPRO1963","27.396","0.38374","5"],
    [44874,"HCEP03730564","2025-01-07 17:45:00","10.8906","3.40975","24.944","4.132857142857143","7.33","2.225","726.19","0","0.51","30.188","4.75019","45.3","0","SATNPRO1963","27.178","0.3807","5"],
    [44875,"HCEP03730564","2025-01-07 18:00:00","10.8905","3.40961","24.944","4.144285714285714","7.33","2.084","823.615","0.01","2.66","30.1868","4.75002","45.41","0","SATNPRO1963","26.904","0.37684","5"],
    [44876,"HCEP03730564","2025-01-07 18:15:00","10.8883","3.40987","24.964","4.131428571428572","7.33","2.213","735.359","0.01","0.9","30.1911","4.75067","45.28","0","SATNPRO1963","26.774","0.375","5"],
    [44877,"HCEP03730564","2025-01-07 18:30:00","10.888","3.40999","25.138","4.109999999999999","7.33","2.213","731.34","0","0.69","30.1925","4.75089","45.05","0","SATNPRO1963","26.738","0.3745","5"],
    [44878,"HCEP03730564","2025-01-07 18:45:00","10.8888","3.40999","25.224","4.08","7.33","2.066","826.626","0","0.94","30.1917","4.75076","44.71","0","SATNPRO1963","26.852","0.37612","5"],
    [44879,"HCEP03730564","2025-01-07 19:00:00","10.8894","3.40987","25.32","4.052857142857143","7.32","2.229","746.865","0.01","1.2","30.1901","4.75053","44.41","0","SATNPRO1963","27.26","0.38182","5"],
    [44880,"HCEP03730564","2025-01-07 19:15:00","10.8899","3.41001","25.406","4.042857142857143","7.33","2.231","742.292","0","0","30.191","4.75065","44.31","0","SATNPRO1963","26.54","0.37176","5"],
    [44881,"HCEP03730564","2025-01-07 19:30:00","10.89","3.40981","25.506","4.031428571428572","7.33","2.108","837.645","0","0.72","30.1889","4.75036","44.17","0","SATNPRO1963","26.578","0.37224","5"],
    [44882,"HCEP03730564","2025-01-07 19:45:00","10.888","3.40945","25.606","4.042857142857143","7.32","2.245","770.926","0.01","1.45","30.187","4.75014","44.31","0","SATNPRO1963","26.774","0.37502","5"],
    [44883,"HCEP03730564","2025-01-07 20:00:00","10.8827","3.40824","25.716","4.06","7.33","2.247","765.296","0","0","30.1794","4.74914","44.49","0","SATNPRO1963","26.77","0.37492","5"],
    [44884,"HCEP03730564","2025-01-07 20:15:00","10.8806","3.40775","25.762","4.109999999999999","7.33","2.131","840.857","0.01","1.01","30.1763","4.74873","45.03","0","SATNPRO1963","27.05","0.37884","5"],
    [44885,"HCEP03730564","2025-01-07 20:30:00","10.8818","3.40734","25.846","4.127142857142857","7.33","2.265","774.474","0","1.3","30.1712","4.748","45.22","0","SATNPRO1963","26.732","0.37444","5"],
    [44886,"HCEP03730564","2025-01-07 20:45:00","10.8865","3.4082","25.988","4.101428571428571","7.34","2.266","769.082","0","0","30.1758","4.74859","44.94","0","SATNPRO1963","26.78","0.37508","5"],
    [44887,"HCEP03730564","2025-01-07 21:00:00","10.8905","3.40902","26.082","4.078571428571428","7.33","2.148","816.42","0","0.9","30.1805","4.74919","44.69","0","SATNPRO1963","26.748","0.37468","5"],
    [44888,"HCEP03730564","2025-01-07 21:15:00","10.8973","3.4101","26.207","4.058571428571429","7.33","2.264","754.647","0","1.2","30.1855","4.74981","44.48","0","SATNPRO1963","26.902","0.37684","5"],
    [44889,"HCEP03730564","2025-01-07 21:30:00","10.9055","3.41089","26.365","4.038571428571428","7.33","2.264","749.602","0","0","30.1864","4.74981","44.27","0","SATNPRO1963","27.014","0.3784","5"],
    [44890,"HCEP03730564","2025-01-07 21:45:00","10.9132","3.41134","26.473","4.001428571428572","7.33","2.113","828.831","0","0.61","30.1844","4.74942","43.87","0","SATNPRO1963","26.94","0.37734","5"],
    [44891,"HCEP03730564","2025-01-07 22:00:00","10.9194","3.41164","26.59","3.95","7.32","2.246","763.854","0","1.34","30.1822","4.74902","43.31","0","SATNPRO1963","26.974","0.37784","5"],
    [44892,"HCEP03730564","2025-01-07 22:15:00","10.9251","3.41203","26.71","3.894285714285714","7.33","2.246","758.347","0","0.33","30.1813","4.74881","42.71","0","SATNPRO1963","26.988","0.37802","5"],
    [44893,"HCEP03730564","2025-01-07 22:30:00","10.9344","3.41279","26.769","3.827142857142857","7.32","2.117","824.933","0","1.08","30.1811","4.74864","41.97","0","SATNPRO1963","26.954","0.37756","5"],
    [44894,"HCEP03730564","2025-01-07 22:45:00","10.9414","3.41332","26.874","3.742857142857143","7.31","2.251","754.217","0","1.18","30.1805","4.74845","41.07","0","SATNPRO1963","27.012","0.37836","5"],
    [44895,"HCEP03730564","2025-01-07 23:00:00","10.9479","3.41378","26.903","3.671428571428571","7.32","2.251","749.174","0","0","30.1797","4.74823","40.28","0","SATNPRO1963","26.848","0.37606","5"],
    [44896,"HCEP03730564","2025-01-07 23:15:00","10.9541","3.41399","26.975","3.601428571428571","7.31","2.101","830.769","0","0.86","30.1765","4.7477","39.52","0","SATNPRO1963","26.986","0.378","5"],
    [44897,"HCEP03730564","2025-01-07 23:30:00","10.9578","3.41417","27","3.542857142857143","7.3","2.242","736.094","0.01","1.59","30.1753","4.74746","38.88","0","SATNPRO1963","26.832","0.37584","5"],
    [44898,"HCEP03730564","2025-01-07 23:45:00","10.9602","3.41436","27.051","3.491428571428572","7.3","2.244","731.199","0","0.33","30.1752","4.74742","38.32","0","SATNPRO1963","26.772","0.37504","5"],
    [44899,"HCEP03730564","2025-01-08 00:00:00","10.9627","3.41456","27.068","3.454285714285715","7.29","2.084","800.233","0","0.9","30.1751","4.74736","37.92","0","SATNPRO1963","26.89","0.37666","5"],
    [44900,"HCEP03730564","2025-01-08 00:15:00","10.9637","3.41461","27.067","3.421428571428572","7.29","2.224","725.61","0.01","1.33","30.1748","4.7473","37.55","0","SATNPRO1963","26.726","0.37436","5"],
    [44901,"HCEP03730564","2025-01-08 00:30:00","10.9643","3.41467","27.058","3.402857142857143","7.29","2.225","720.742","0","0.77","30.1748","4.74729","37.34","0","SATNPRO1963","27.136","0.38004","5"],
    [44902,"HCEP03730564","2025-01-08 00:45:00","10.9648","3.41469","27.055","3.384285714285715","7.29","2.08","808.815","0","1.18","30.1746","4.74726","37.15","0","SATNPRO1963","26.58","0.37232","5"],
    [44903,"HCEP03730564","2025-01-08 01:00:00","10.9659","3.41468","27.036","3.378571428571429","7.28","2.232","723.506","0","1.44","30.1737","4.74712","37.09","0","SATNPRO1963","26.878","0.37648","5"],
    [44904,"HCEP03730564","2025-01-08 01:15:00","10.9615","3.41457","27.018","3.378571428571429","7.29","2.235","718.84","0","0.64","30.1761","4.74753","37.07","0","SATNPRO1963","26.636","0.37306","5"],
    [44905,"HCEP03730564","2025-01-08 01:30:00","10.9603","3.41468","26.958","3.388571428571428","7.28","2.109","794.158","0","1.08","30.1783","4.74785","37.19","0","SATNPRO1963","26.788","0.37522","5"],
    [44906,"HCEP03730564","2025-01-08 01:45:00","10.9606","3.41467","26.972","3.357142857142857","7.28","2.228","734.652","0.01","1.44","30.1779","4.74779","36.84","0","SATNPRO1963","26.560000000000002","0.37208","5"],
    [44907,"HCEP03730564","2025-01-08 02:00:00","10.9593","3.41459","26.937","3.355714285714286","7.29","2.23","730.307","0","0.38","30.1782","4.74784","36.83","0","SATNPRO1963","26.54","0.37176","5"],
    [44908,"HCEP03730564","2025-01-08 02:15:00","10.9568","3.41438","26.921","3.38","7.28","2.097","801.493","0","0.98","30.1782","4.74788","37.09","0","SATNPRO1963","26.674","0.37358","5"],
    [44909,"HCEP03730564","2025-01-08 02:30:00","10.9546","3.4144","26.902","3.417142857142857","7.28","2.253","738.142","0","1.21","30.1803","4.74821","37.5","0","SATNPRO1963","26.646","0.37318","5"],
    [44910,"HCEP03730564","2025-01-08 02:45:00","10.9506","3.41407","26.863","3.418571428571428","7.29","2.256","734.256","0","0.47","30.1804","4.74829","37.51","0","SATNPRO1963","27.137999999999998","0.38008","5"],
    [44911,"HCEP03730564","2025-01-08 03:00:00","10.9429","3.41342","26.827","3.474285714285714","7.29","2.102","805.58","0","1.65","30.1803","4.7484","38.12","0","SATNPRO1963","26.798000000000002","0.37534","5"],
    [44912,"HCEP03730564","2025-01-08 03:15:00","10.9386","3.41321","26.787","3.541428571428572","7.28","2.245","730.721","0","1.7","30.1817","4.74866","38.85","0","SATNPRO1963","26.7","0.37396","5"],
    [44913,"HCEP03730564","2025-01-08 03:30:00","10.933","3.41297","26.726","3.582857142857143","7.3","2.247","725.479","0","0","30.1841","4.74908","39.3","0","SATNPRO1963","26.747999999999998","0.37468","5"],
    [44914,"HCEP03730564","2025-01-08 03:45:00","10.9177","3.41196","26.693","3.672857142857143","7.3","2.09","805.046","0.01","1.05","30.1867","4.74969","40.27","0","SATNPRO1963","26.776","0.37506","5"],
    [44915,"HCEP03730564","2025-01-08 04:00:00","10.9076","3.411","26.647","3.782857142857143","7.3","2.242","734.097","0","1.18","30.1856","4.74969","41.48","0","SATNPRO1963","26.766000000000002","0.37486","5"],
    [44916,"HCEP03730564","2025-01-08 04:15:00","10.9009","3.41021","26.609","3.874285714285715","7.31","2.244","729.64","0","0","30.1834","4.74948","42.46","0","SATNPRO1963","26.66","0.37342","5"],
    [44917,"HCEP03730564","2025-01-08 04:30:00","10.8943","3.40928","26.561","3.911428571428572","7.31","2.112","812.682","0","1.3","30.1798","4.74906","42.87","0","SATNPRO1963","26.594","0.37246","5"],
    [44918,"HCEP03730564","2025-01-08 04:45:00","10.884","3.40786","26.533","3.945714285714286","7.31","2.246","754.924","0.01","1.62","30.1743","4.74844","43.24","0","SATNPRO1963","26.706","0.37408","5"],
    [44919,"HCEP03730564","2025-01-08 05:00:00","10.8833","3.40793","26.519","3.962857142857143","7.32","2.248","749.631","0","0.33","30.1756","4.74864","43.41","0","SATNPRO1963","26.436","0.37028","5"],
    [44920,"HCEP03730564","2025-01-08 05:15:00","10.8685","3.40526","26.499","3.991428571428572","7.32","2.119","816.111","0","0.47","30.1616","4.74687","43.71","0","SATNPRO1963","26.456","0.37054","5"],
    [44921,"HCEP03730564","2025-01-08 05:30:00","10.8535","3.403","26.534","4.051428571428572","7.31","2.251","762.336","0","1.42","30.1517","4.74571","44.35","0","SATNPRO1963","26.652","0.3733","5"],
    [44922,"HCEP03730564","2025-01-08 05:45:00","10.8403","3.40101","26.569","4.125714285714285","7.33","2.251","757.304","0","0","30.1429","4.74467","45.15","0","SATNPRO1963","26.472","0.37076","5"],
    [44923,"HCEP03730564","2025-01-08 06:00:00","10.8124","3.39781","26.643","4.181428571428572","7.33","2.139","843.66","0","0.81","30.1344","4.7439","45.74","0","SATNPRO1963","26.448","0.37044","5"],
    [44924,"HCEP03730564","2025-01-08 06:15:00","10.8012","3.39551","26.707","4.307142857142858","7.33","2.26","753.769","0","1.42","30.1209","4.74217","47.1","0","SATNPRO1963","26.62","0.37284","5"],
    [44925,"HCEP03730564","2025-01-08 06:30:00","10.7933","3.39418","26.779","4.411428571428572","7.34","2.262","748.66","0","0","30.1143","4.74136","48.23","0","SATNPRO1963","26.782","0.37516","5"],
    [44926,"HCEP03730564","2025-01-08 06:45:00","10.7871","3.39336","26.847","4.465714285714285","7.34","2.111","828.54","0","0","30.1113","4.74103","48.8","0","SATNPRO1963","26.902","0.37678","5"],
    [44927,"HCEP03730564","2025-01-08 07:00:00","10.7736","3.3915","26.917","4.532857142857143","7.34","2.25","759.765","0","1.12","30.1041","4.74023","49.52","0","SATNPRO1963","26.79","0.37524","5"],
    [44928,"HCEP03730564","2025-01-08 07:15:00","10.7663","3.39088","27.019","4.605714285714286","7.35","2.251","754.636","0","0.38","30.1039","4.74032","50.31","0","SATNPRO1963","26.79","0.37524","5"],
    [44929,"HCEP03730564","2025-01-08 07:30:00","10.7592","3.39012","27.112","4.66","7.35","2.128","823.043","0","0.54","30.1023","4.74021","50.89","0","SATNPRO1963","26.706","0.37406","5"],
    [44930,"HCEP03730564","2025-01-08 07:45:00","10.7574","3.38991","27.219","4.711428571428572","7.35","2.259","755.162","0","0.98","30.1017","4.74015","51.45","0","SATNPRO1963","26.78","0.37512","5"],
    [44931,"HCEP03730564","2025-01-08 08:00:00","10.7568","3.39001","27.327","4.734285714285715","7.36","2.259","750.583","0","0.72","30.103","4.74036","51.71","0","SATNPRO1963","26.708","0.3741","5"],
    [44932,"HCEP03730564","2025-01-08 08:15:00","10.7607","3.39096","27.438","4.785714285714286","7.36","2.136","828.109","0","0","30.1092","4.74118","52.27","0","SATNPRO1963","27.214","0.38116","5"],
    [44933,"HCEP03730564","2025-01-08 08:30:00","10.762","3.39121","27.555","4.761428571428572","7.36","2.266","758.979","0","0.96","30.1105","4.74135","52.02","0","SATNPRO1963","27.201999999999998","0.38102","5"],
    [44934,"HCEP03730564","2025-01-08 08:45:00","10.7597","3.39086","27.678","4.761428571428572","7.37","2.266","753.52","0","0","30.1089","4.74118","52.01","0","SATNPRO1963","27.094","0.37948","5"],
    [44935,"HCEP03730564","2025-01-08 09:00:00","10.7566","3.39022","27.78","4.765714285714286","7.37","2.139","818.093","0","1.05","30.1051","4.74069","52.04","0","SATNPRO1963","26.686","0.37376","5"],
    [44936,"HCEP03730564","2025-01-08 09:15:00","10.7554","3.39009","27.905","4.774285714285715","7.36","2.261","759.439","0","1.07","30.1048","4.74066","52.14","0","SATNPRO1963","27.018","0.3784","5"],
    [44937,"HCEP03730564","2025-01-08 09:30:00","10.7545","3.38975","28.011","4.777142857142857","7.37","2.26","753.806","0","0.69","30.1021","4.74031","52.17","0","SATNPRO1963","27.128","0.37996","5"],
    [44938,"HCEP03730564","2025-01-08 09:45:00","10.7545","3.38988","28.075","4.774285714285715","7.37","2.136","825.083","0","0.38","30.1034","4.74049","52.15","0","SATNPRO1963","26.918","0.377","5"],
    [44939,"HCEP03730564","2025-01-08 10:00:00","10.756","3.39018","28.132","4.784285714285715","7.37","2.245","753.348","0","0.9","30.1051","4.74071","52.26","0","SATNPRO1963","26.948","0.37744","5"],
    [44940,"HCEP03730564","2025-01-08 10:15:00","10.7579","3.39067","28.176","4.792857142857143","7.37","2.246","748.024","0","0","30.1083","4.74114","52.34","0","SATNPRO1963","26.926000000000002","0.37718","5"],
    [44941,"HCEP03730564","2025-01-08 10:30:00","10.76","3.39116","28.221","4.778571428571429","7.37","2.112","822.863","0","0.94","30.1114","4.74156","52.19","0","SATNPRO1963","26.918","0.37702","5"],
    [44942,"HCEP03730564","2025-01-08 10:45:00","10.7617","3.39141","28.251","4.752857142857143","7.37","2.246","731.368","0","1.1","30.1124","4.74167","51.91","0","SATNPRO1963","27.114","0.37974","5"],
    [44943,"HCEP03730564","2025-01-08 11:00:00","10.7621","3.39157","28.261","4.745714285714286","7.37","2.246","726.387","0","0","30.1137","4.74185","51.84","0","SATNPRO1963","26.936","0.37728","5"],
    [44944,"HCEP03730564","2025-01-08 11:15:00","10.7623","3.39159","28.252","4.745714285714286","7.37","2.104","821.804","0.01","0.9","30.1137","4.74185","51.84","0","SATNPRO1963","27.048000000000002","0.37884","5"],
    [44945,"HCEP03730564","2025-01-08 11:30:00","10.764","3.39178","28.211","4.745714285714286","7.36","2.226","739.048","0","1.23","30.1142","4.74188","51.84","0","SATNPRO1963","26.376","0.3694","5"],
    [44946,"HCEP03730564","2025-01-08 11:45:00","10.7622","3.39126","28.168","4.732857142857143","7.37","2.228","733.861","0","0.33","30.1107","4.74141","51.69","0","SATNPRO1963","26.796","0.37534","5"],
    [44947,"HCEP03730564","2025-01-08 12:00:00","10.7625","3.39118","28.113","4.732857142857143","7.37","2.097","810.053","0","0.47","30.1097","4.74126","51.7","0","SATNPRO1963","26.951999999999998","0.37754","5"],
    [44948,"HCEP03730564","2025-01-08 12:15:00","10.7633","3.39104","28.048","4.712857142857143","7.36","2.233","733.221","0","0.96","30.1076","4.74095","51.47","0","SATNPRO1963","26.954","0.37754","5"],
    [44949,"HCEP03730564","2025-01-08 12:30:00","10.769","3.39177","27.953","4.657142857142857","7.37","2.234","728.017","0","0.58","30.1102","4.74122","50.87","0","SATNPRO1963","26.75","0.37472","5"],
    [44950,"HCEP03730564","2025-01-08 12:45:00","10.7823","3.39337","27.838","4.605714285714286","7.36","2.086","799.711","0","0.38","30.1149","4.74168","50.33","0","SATNPRO1963","27.048000000000002","0.37886","5"],
    [44951,"HCEP03730564","2025-01-08 13:00:00","10.7919","3.39423","27.713","4.544285714285714","7.35","2.24","727.193","0","1.01","30.1156","4.74162","49.67","0","SATNPRO1963","27.074","0.37924","5"],
    [44952,"HCEP03730564","2025-01-08 13:15:00","10.7974","3.39476","27.559","4.482857142857143","7.36","2.24","722.907","0","0.19","30.1163","4.74162","49","0","SATNPRO1963","26.886","0.37656","5"],
    [44953,"HCEP03730564","2025-01-08 13:30:00","10.8047","3.39545","27.415","4.435714285714286","7.35","2.087","804.187","0","0.72","30.1172","4.74162","48.5","0","SATNPRO1963","27.006","0.37826","5"],
    [44954,"HCEP03730564","2025-01-08 13:45:00","10.8117","3.39632","27.33","4.392857142857143","7.35","2.232","707.402","0","0.94","30.12","4.74191","48.03","0","SATNPRO1963","27.046","0.37884","5"],
    [44955,"HCEP03730564","2025-01-08 14:00:00","10.8171","3.39697","27.181","4.32","7.35","2.232","702.91","0","0","30.1221","4.74211","47.25","0","SATNPRO1963","26.858","0.37622","5"],
    [44956,"HCEP03730564","2025-01-08 14:15:00","10.8205","3.3974","27.018","4.301428571428572","7.35","2.027","799.366","0","1.08","30.1235","4.74225","47.05","0","SATNPRO1963","26.844","0.37598","5"],
    [44957,"HCEP03730564","2025-01-08 14:30:00","10.8286","3.39834","26.872","4.265714285714286","7.34","2.205","708.207","0","1.2","30.1262","4.7425","46.67","0","SATNPRO1963","26.556","0.37194","5"],
    [44958,"HCEP03730564","2025-01-08 14:45:00","10.8333","3.39893","26.696","4.215714285714286","7.35","2.206","703.546","0","0","30.1282","4.7427","46.13","0","SATNPRO1963","26.444","0.37038","5"],
    [44959,"HCEP03730564","2025-01-08 15:00:00","10.8368","3.39943","26.495","4.185714285714286","7.34","2.006","803.654","0.01","1.15","30.1303","4.74293","45.8","0","SATNPRO1963","26.434","0.37026","5"],
    [44960,"HCEP03730564","2025-01-08 15:15:00","10.8485","3.40075","26.297","4.155714285714286","7.33","2.191","715.612","0","1.08","30.1338","4.74323","45.48","0","SATNPRO1963","26.782","0.37512","5"],
    [44961,"HCEP03730564","2025-01-08 15:30:00","10.865","3.40218","26.104","4.104285714285715","7.34","2.192","711.251","0","0","30.1343","4.74303","44.94","0","SATNPRO1963","26.796","0.3753","5"],
    [44962,"HCEP03730564","2025-01-08 15:45:00","10.884","3.40433","25.894","4.02","7.33","2.043","801.099","0","0.72","30.1399","4.74352","44.03","0","SATNPRO1963","26.966","0.37774","5"],
    [44963,"HCEP03730564","2025-01-08 16:00:00","10.8928","3.4056","25.669","3.915714285714286","7.32","2.199","705.049","0","1.18","30.1452","4.74412","42.89","0","SATNPRO1963","26.698","0.37396","5"],
    [44964,"HCEP03730564","2025-01-08 16:15:00","10.8958","3.40626","25.438","3.851428571428572","7.32","2.2","700.564","0","0.43","30.1493","4.74464","42.2","0","SATNPRO1963","26.554000000000002","0.37198","5"],
    [44965,"HCEP03730564","2025-01-08 16:30:00","10.9033","3.40737","25.248","3.805714285714286","7.32","2.025","817.595","0","1.12","30.1541","4.7452","41.71","0","SATNPRO1963","26.898","0.37674","5"],
    [44966,"HCEP03730564","2025-01-08 16:45:00","10.9145","3.40851","25.065","3.744285714285714","7.31","2.196","724.114","0","1.41","30.1562","4.74531","41.04","0","SATNPRO1963","26.974","0.3778","5"],
    [44967,"HCEP03730564","2025-01-08 17:00:00","10.9204","3.40922","24.931","3.677142857142857","7.31","2.197","719.493","0","0.19","30.1583","4.74552","40.32","0","SATNPRO1963","26.79","0.37524","5"],
    [44968,"HCEP03730564","2025-01-08 17:15:00","10.9292","3.40992","24.827","3.618571428571428","7.31","2.049","809.885","0","0.38","30.158","4.74533","39.67","0","SATNPRO1963","26.95","0.3775","5"],
    [44969,"HCEP03730564","2025-01-08 17:30:00","10.9312","3.41008","24.741","3.562857142857143","7.3","2.205","737.84","0","1.27","30.1581","4.7453","39.08","0","SATNPRO1963","26.83","0.3758","5"],
    [44970,"HCEP03730564","2025-01-08 17:45:00","10.9313","3.41011","24.657","3.528571428571429","7.3","2.206","732.976","0","0","30.1582","4.74532","38.7","0","SATNPRO1963","26.91","0.37692","5"],
    [44971,"HCEP03730564","2025-01-08 18:00:00","10.9307","3.4101","24.578","3.522857142857143","7.3","2.054","814.988","0","1.21","30.1587","4.74539","38.63","0","SATNPRO1963","26.796","0.37534","5"],
    [44972,"HCEP03730564","2025-01-08 18:15:00","10.9302","3.41003","24.529","3.524285714285714","7.29","2.204","716.058","0","1.2","30.1584","4.74536","38.64","0","SATNPRO1963","26.492","0.37104","5"],
    [44973,"HCEP03730564","2025-01-08 18:30:00","10.9285","3.40992","24.566","3.515714285714286","7.3","2.205","711.89","0","0.33","30.1587","4.74543","38.56","0","SATNPRO1963","26.72","0.37424","5"],
    [44974,"HCEP03730564","2025-01-08 18:45:00","10.93","3.41003","24.591","3.505714285714286","7.29","2.046","819.928","0","0.9","30.1586","4.74538","38.45","0","SATNPRO1963","26.988","0.37804","5"],
    [44975,"HCEP03730564","2025-01-08 19:00:00","10.9345","3.41045","24.635","3.505714285714286","7.29","2.207","742.606","0","1.4","30.1589","4.74536","38.44","0","SATNPRO1963","26.872","0.37636","5"],
    [44976,"HCEP03730564","2025-01-08 19:15:00","10.9389","3.41074","24.64","3.475714285714286","7.29","2.209","738.585","0","0.69","30.1581","4.74519","38.13","0","SATNPRO1963","26.876","0.37646","5"],
    [44977,"HCEP03730564","2025-01-08 19:30:00","10.941","3.41036","24.725","3.432857142857143","7.28","2.076","831.925","0","1.82","30.1527","4.74438","37.65","0","SATNPRO1963","26.738","0.37452","5"],
    [44978,"HCEP03730564","2025-01-08 19:45:00","10.9398","3.40994","24.836","3.401428571428571","7.28","2.204","768.6","0","1.36","30.1495","4.74396","37.31","0","SATNPRO1963","26.796","0.37528","5"],
    [44979,"HCEP03730564","2025-01-08 20:00:00","10.9395","3.40921","24.939","3.377142857142857","7.29","2.206","764.584","0","0.38","30.1425","4.74298","37.04","0","SATNPRO1963","26.906","0.37682","5"],
    [44980,"HCEP03730564","2025-01-08 20:15:00","10.9422","3.40917","25.046","3.362857142857143","7.28","2.083","846.285","0","1.15","30.1399","4.74258","36.89","0","SATNPRO1963","26.926000000000002","0.37712","5"],
    [44981,"HCEP03730564","2025-01-08 20:30:00","10.9499","3.40977","25.127","3.328571428571429","7.28","2.22","764.2","0","1.3","30.1394","4.74238","36.51","0","SATNPRO1963","27.072","0.37916","5"],
    [44982,"HCEP03730564","2025-01-08 20:45:00","10.9586","3.41073","25.268","3.268571428571428","7.28","2.222","759.592","0","0.54","30.1416","4.74258","35.86","0","SATNPRO1963","27.136","0.3801","5"],
    [44983,"HCEP03730564","2025-01-08 21:00:00","10.9624","3.41118","25.43","3.192857142857143","7.27","2.101","860.409","0","1.27","30.1428","4.7427","35.03","0","SATNPRO1963","27.128","0.37992","5"],
    [44984,"HCEP03730564","2025-01-08 21:15:00","10.9669","3.4118","25.545","3.154285714285715","7.27","2.217","783.943","0","1.27","30.1452","4.74297","34.61","0","SATNPRO1963","26.79","0.375233333333333","3"],
    [44985,"HCEP03730564","2025-01-08 21:30:00","10.9699","3.41214","25.651","3.132857142857143","7.27","2.219","779.39","0","0","30.1461","4.74306","34.39","0","SATNPRO1963","27.096","0.37954","5"],
    [44986,"HCEP03730564","2025-01-08 21:45:00","10.9703","3.41214","25.819","3.117142857142857","7.26","2.12","859.293","0","1.49","30.1457","4.743","34.21","0","SATNPRO1963","27.02","0.37846","5"],
    [44987,"HCEP03730564","2025-01-08 22:00:00","10.9705","3.41209","25.978","3.112857142857142","7.26","2.224","791.219","0","1.3","30.1449","4.7429","34.17","0","SATNPRO1963","27.174","0.38064","5"],
    [44988,"HCEP03730564","2025-01-08 22:15:00","10.9687","3.41185","26.174","3.112857142857142","7.26","2.227","786.361","0","0.27","30.144","4.74281","34.15","0","SATNPRO1963","27.274","0.38206","5"],
    [44989,"HCEP03730564","2025-01-08 22:30:00","10.9698","3.41188","26.31","3.11","7.26","2.135","868.206","0","1.12","30.1433","4.74271","34.13","0","SATNPRO1963","27.028","0.37856","5"],
    [44990,"HCEP03730564","2025-01-08 22:45:00","10.973","3.4121","26.456","3.087142857142857","7.25","2.226","795.238","0","1.3","30.1428","4.74258","33.89","0","SATNPRO1963","27.518","0.38542","5"],
    [44991,"HCEP03730564","2025-01-08 23:00:00","10.9756","3.41229","26.597","3.058571428571429","7.26","2.229","790.406","0","0","30.1425","4.74251","33.57","0","SATNPRO1963","27.206","0.3811","5"],
    [44992,"HCEP03730564","2025-01-08 23:15:00","10.9771","3.41236","26.718","3.018571428571429","7.25","2.108","858.925","0","1.01","30.1419","4.74241","33.13","0","SATNPRO1963","27.032","0.37862","5"],
    [44993,"HCEP03730564","2025-01-08 23:30:00","10.9783","3.41234","26.844","2.995714285714286","7.25","2.232","784.752","0","1.33","30.1407","4.74223","32.88","0","SATNPRO1963","27.066","0.37912","5"],
    [44994,"HCEP03730564","2025-01-08 23:45:00","10.9791","3.4123","26.961","2.978571428571429","7.26","2.235","780.712","0","0.38","30.1395","4.74206","32.69","0","SATNPRO1963","27.186","0.38076","5"],
    [44995,"HCEP03730564","2025-01-09 00:00:00","10.9793","3.41221","27.063","2.964285714285714","7.25","2.127","856.851","0","1.05","30.1384","4.7419","32.53","0","SATNPRO1963","27.25","0.38166","5"],
    [44996,"HCEP03730564","2025-01-09 00:15:00","10.9796","3.41205","27.133","2.952857142857143","7.25","2.24","779.351","0","1.3","30.1366","4.74164","32.41","0","SATNPRO1963","27.218","0.38126","5"],
    [44997,"HCEP03730564","2025-01-09 00:30:00","10.98","3.41205","27.194","2.941428571428572","7.25","2.242","773.699","0","0.72","30.1363","4.7416","32.28","0","SATNPRO1963","27.042","0.37876","5"],
    [44998,"HCEP03730564","2025-01-09 00:45:00","10.9798","3.41198","27.262","2.928571428571428","7.25","2.125","852.689","0","1.08","30.1357","4.74152","32.14","0","SATNPRO1963","27.088","0.37942","5"],
    [44999,"HCEP03730564","2025-01-09 01:00:00","10.9797","3.41198","27.347","2.93","7.24","2.228","774.252","0","1.6","30.1358","4.74154","32.17","0","SATNPRO1963","27.234","0.38142","5"],
    [45000,"HCEP03730564","2025-01-09 01:15:00","10.9796","3.41214","27.385","2.921428571428571","7.25","2.23","769.082","0","0","30.1374","4.74177","32.06","0","SATNPRO1963","26.962","0.37766","5"],
    [45001,"HCEP03730564","2025-01-09 01:30:00","10.9791","3.41209","27.35","2.915714285714286","7.24","2.076","851.722","0","0.94","30.1374","4.74177","32","0","SATNPRO1963","27.014","0.3784","5"],
    [45002,"HCEP03730564","2025-01-09 01:45:00","10.9781","3.41241","27.288","2.921428571428571","7.24","2.21","729.012","0","1.27","30.1413","4.74234","32.06","0","SATNPRO1963","26.994","0.37812","5"],
    [45003,"HCEP03730564","2025-01-09 02:00:00","10.9765","3.41238","27.276","2.921428571428571","7.25","2.212","723.767","0","0.19","30.1424","4.74252","32.07","0","SATNPRO1963","26.826","0.3757","5"],
    [45004,"HCEP03730564","2025-01-09 02:15:00","10.9754","3.41237","27.222","2.941428571428572","7.25","2.026","821.944","0","0.94","30.1431","4.74264","32.29","0","SATNPRO1963","26.922","0.3771","5"],
    [45005,"HCEP03730564","2025-01-09 02:30:00","10.9741","3.41235","27.216","2.941428571428572","7.24","2.203","731.566","0","1.36","30.144","4.74278","32.28","0","SATNPRO1963","27.018","0.37838","5"],
    [45006,"HCEP03730564","2025-01-09 02:45:00","10.9729","3.41232","27.239","2.948571428571429","7.25","2.205","726.715","0","0.38","30.1447","4.7429","32.37","0","SATNPRO1963","26.972","0.37774","5"],
    [45007,"HCEP03730564","2025-01-09 03:00:00","10.9704","3.41222","27.207","2.968571428571428","7.24","2.069","800.272","0","0.9","30.1457","4.74309","32.58","0","SATNPRO1963","27.072","0.3792","5"],
    [45008,"HCEP03730564","2025-01-09 03:15:00","10.9639","3.4117","27.213","3.005714285714286","7.24","2.202","734.869","0.01","1.52","30.146","4.74322","32.98","0","SATNPRO1963","27.176","0.38064","5"],
    [45009,"HCEP03730564","2025-01-09 03:30:00","10.9539","3.41071","27.166","3.088571428571428","7.25","2.205","730.194","0","0.19","30.1445","4.74316","33.88","0","SATNPRO1963","26.998","0.37816","5"],
    [45010,"HCEP03730564","2025-01-09 03:45:00","10.9439","3.40995","27.121","3.17","7.25","2.076","795.709","0","0.94","30.1454","4.74344","34.78","0","SATNPRO1963","26.644000000000002","0.37324","5"],
    [45011,"HCEP03730564","2025-01-09 04:00:00","10.9392","3.40976","27.164","3.231428571428571","7.25","2.215","733.57","0.01","1.62","30.1473","4.74379","35.44","0","SATNPRO1963","26.86","0.3762","5"],
    [45012,"HCEP03730564","2025-01-09 04:15:00","10.9345","3.40952","27.137","3.285714285714286","7.27","2.218","729.077","0","0.33","30.1488","4.74407","36.04","0","SATNPRO1963","26.936","0.3773","5"],
    [45013,"HCEP03730564","2025-01-09 04:30:00","10.924","3.40848","27.104","3.355714285714286","7.26","2.091","821.135","0","1.21","30.1473","4.74403","36.8","0","SATNPRO1963","26.87","0.3764","5"],
    [45014,"HCEP03730564","2025-01-09 04:45:00","10.9081","3.40629","27.074","3.461428571428572","7.26","2.23","758.098","0","1.2","30.1389","4.74307","37.94","0","SATNPRO1963","26.808","0.37552","5"],
    [45015,"HCEP03730564","2025-01-09 05:00:00","10.8913","3.40358","27.028","3.572857142857143","7.28","2.231","753.166","0","0","30.1261","4.74152","39.14","0","SATNPRO1963","26.916","0.37698","5"],
    [45016,"HCEP03730564","2025-01-09 05:15:00","10.8528","3.39927","26.991","3.712857142857143","7.28","2.147","821.085","0","1.21","30.1154","4.74059","40.64","0","SATNPRO1963","26.582","0.3723","5"],
    [45017,"HCEP03730564","2025-01-09 05:30:00","10.8333","3.39701","26.957","3.904285714285714","7.29","2.242","776.722","0","1.15","30.1093","4.74003","42.72","0","SATNPRO1963","26.536","0.37168","5"],
    [45018,"HCEP03730564","2025-01-09 05:45:00","10.8055","3.39382","26.927","4.044285714285714","7.31","2.243","771.891","0","0","30.1008","4.73926","44.22","0","SATNPRO1963","26.378","0.36948","5"],
    [45019,"HCEP03730564","2025-01-09 06:00:00","10.7982","3.39287","26.902","4.2","7.31","2.168","833.886","0","0.77","30.0974","4.73889","45.9","0","SATNPRO1963","26.612","0.37276","5"],
    [45020,"HCEP03730564","2025-01-09 06:15:00","10.8064","3.39324","26.893","4.268571428571429","7.31","2.256","784.742","0","1.15","30.0943","4.73832","46.66","0","SATNPRO1963","26.92","0.37708","5"],
    [45021,"HCEP03730564","2025-01-09 06:30:00","10.8003","3.39226","26.906","4.267142857142858","7.33","2.258","779.157","0","0","30.0897","4.73776","46.64","0","SATNPRO1963","26.854","0.37614","5"],
    [45022,"HCEP03730564","2025-01-09 06:45:00","10.7996","3.39158","26.927","4.295714285714286","7.32","2.179","830.437","0","1.15","30.0835","4.73689","46.95","0","SATNPRO1963","26.802","0.37538","5"],
    [45023,"HCEP03730564","2025-01-09 07:00:00","10.7966","3.39093","26.951","4.321428571428571","7.32","2.253","791.807","0","1.44","30.0796","4.73639","47.23","0","SATNPRO1963","26.898","0.37678","5"],
    [45024,"HCEP03730564","2025-01-09 07:15:00","10.7972","3.39102","26.993","4.33","7.34","2.254","786.029","0","0","30.08","4.73643","47.32","0","SATNPRO1963","26.878","0.37648","5"],
    [45025,"HCEP03730564","2025-01-09 07:30:00","10.8029","3.39161","27.033","4.324285714285715","7.33","2.17","844.764","0","0.94","30.0811","4.7365","47.26","0","NA",null,null,null],
    [45026,"HCEP03730564","2025-01-09 07:45:00","10.7996","3.39139","27.09","4.295714285714286","7.33","2.243","792.227","0","1.24","30.0816","4.73663","46.95","0","SATNPRO1963","26.852","0.37612","5"],
    [45027,"HCEP03730564","2025-01-09 08:00:00","10.7885","3.39061","27.163","4.327142857142857","7.34","2.245","786.585","0","0","30.083","4.73701","47.28","0","SATNPRO1963","26.778000000000002","0.37504","5"],
    [45028,"HCEP03730564","2025-01-09 08:15:00","10.7851","3.39042","27.215","4.39","7.34","2.157","828.28","0","0.38","30.0839","4.73719","47.97","0","SATNPRO1963","26.884","0.37654","5"],
    [45029,"HCEP03730564","2025-01-09 08:30:00","10.7794","3.39014","27.305","4.427142857142858","7.34","2.26","799.248","0","1.53","30.0858","4.73756","48.38","0","SATNPRO1963","26.762","0.37484","5"],
    [45030,"HCEP03730564","2025-01-09 08:45:00","10.7789","3.3906","27.37","4.461428571428572","7.35","2.261","793.55","0","0","30.0907","4.73827","48.75","0","SATNPRO1963","26.59","0.37244","5"],
    [45031,"HCEP03730564","2025-01-09 09:00:00","10.7814","3.39136","27.445","4.47","7.34","2.168","843.518","0","0.66","30.0961","4.73899","48.84","0","SATNPRO1963","26.666","0.3735","5"],
    [45032,"HCEP03730564","2025-01-09 09:15:00","10.7897","3.39211","27.501","4.445714285714286","7.34","2.256","792.198","0","0.98","30.0966","4.73894","48.58","0","SATNPRO1963","26.758","0.37478","5"],
    [45033,"HCEP03730564","2025-01-09 09:30:00","10.7873","3.39222","27.598","4.418571428571429","7.35","2.257","786.78","0","0.27","30.0997","4.73942","48.29","0","SATNPRO1963","26.822","0.3757","5"],
    [45034,"HCEP03730564","2025-01-09 09:45:00","10.7794","3.39194","27.687","4.437142857142857","7.35","2.144","836.818","0","0.27","30.1034","4.74008","48.49","0","SATNPRO1963","26.404","0.36982","5"],
    [45035,"HCEP03730564","2025-01-09 10:00:00","10.7846","3.39349","27.776","4.457142857142857","7.34","2.235","752.27","0","0.92","30.1143","4.74155","48.72","0","SATNPRO1963","26.483999999999998","0.37096","5"],
    [45036,"HCEP03730564","2025-01-09 10:15:00","10.7849","3.39416","27.861","4.441428571428571","7.35","2.236","746.969","0","0","30.1206","4.74245","48.54","0","SATNPRO1963","26.538","0.3717","5"],
    [45037,"HCEP03730564","2025-01-09 10:30:00","10.783","3.39445","27.919","4.451428571428572","7.35","2.095","822.914","0","1.72","30.1251","4.74312","48.65","0","SATNPRO1963","26.524","0.3715","5"],
    [45038,"HCEP03730564","2025-01-09 10:45:00","10.7805","3.39452","27.974","4.481428571428571","7.35","2.223","737.906","0","0.84","30.1278","4.74354","48.97","0","SATNPRO1963","26.606","0.37268","5"],
    [45039,"HCEP03730564","2025-01-09 11:00:00","10.779","3.3944","28.029","4.505714285714285","7.36","2.225","732.365","0","0","30.1278","4.74357","49.24","0","SATNPRO1963","26.602","0.3726","5"],
    [45040,"HCEP03730564","2025-01-09 11:15:00","10.7771","3.39429","28.063","4.534285714285715","7.35","2.079","814.351","0.01","0.98","30.1283","4.74367","49.55","0","SATNPRO1963","26.552","0.37186","5"],
    [45041,"HCEP03730564","2025-01-09 11:30:00","10.7765","3.39415","28.078","4.55","7.35","2.214","728.833","0","1.23","30.1274","4.74355","49.72","0","SATNPRO1963","26.506","0.37128","5"],
    [45042,"HCEP03730564","2025-01-09 11:45:00","10.776","3.39408","28.09","4.551428571428572","7.36","2.215","723.29","0","0","30.127","4.74351","49.74","0","SATNPRO1963","25.77","0.36096","5"],
    [45043,"HCEP03730564","2025-01-09 12:00:00","10.7762","3.3941","28.087","4.541428571428571","7.35","2.089","796.102","0","0.54","30.1271","4.74352","49.63","0","SATNPRO1963","26.52","0.3715","5"],
    [45044,"HCEP03730564","2025-01-09 12:15:00","10.7771","3.39412","28.07","4.55","7.35","2.207","722.609","0.01","1.03","30.1266","4.74343","49.72","0","SATNPRO1963","26.532","0.3716","5"],
    [45045,"HCEP03730564","2025-01-09 12:30:00","10.7784","3.39416","28.029","4.532857142857143","7.36","2.206","717.397","0","0.43","30.1259","4.7433","49.53","0","SATNPRO1963","26.608","0.37266","5"],
    [45046,"HCEP03730564","2025-01-09 12:45:00","10.7777","3.39399","27.964","4.528571428571428","7.36","2.079","799.337","0","0.81","30.1249","4.74317","49.49","0","SATNPRO1963","26.506","0.37126","5"],
    [45047,"HCEP03730564","2025-01-09 13:00:00","10.7776","3.3939","27.896","4.53","7.35","2.195","706.673","0","0.79","30.1241","4.74306","49.51","0","SATNPRO1963","26.573999999999998","0.37222","5"],
    [45048,"HCEP03730564","2025-01-09 13:15:00","10.7744","3.39337","27.838","4.554285714285714","7.36","2.195","702.247","0","0.54","30.1214","4.74273","49.76","0","SATNPRO1963","26.73","0.37442","5"],
    [45049,"HCEP03730564","2025-01-09 13:30:00","10.7736","3.39284","27.777","4.582857142857144","7.36","2.041","795.11","0","0.54","30.117","4.74211","50.08","0","SATNPRO1963","26.854","0.37616","5"],
    [45050,"HCEP03730564","2025-01-09 13:45:00","10.7782","3.39331","27.695","4.584285714285714","7.36","2.191","717.91","0.01","1.08","30.1178","4.74215","50.1","0","SATNPRO1963","26.536","0.3717","5"],
    [45051,"HCEP03730564","2025-01-09 14:00:00","10.7875","3.3938","27.568","4.521428571428571","7.36","2.191","712.623","0","0","30.1151","4.7416","49.42","0","SATNPRO1963","26.349999999999998","0.36906","5"],
    [45052,"HCEP03730564","2025-01-09 14:15:00","10.791","3.39444","27.423","4.415714285714286","7.35","2.079","781.898","0","1.36","30.1185","4.74203","48.26","0","SATNPRO1963","26.352","0.36906","5"],
    [45053,"HCEP03730564","2025-01-09 14:30:00","10.7959","3.3949","27.271","4.347142857142858","7.35","2.197","704.523","0","0.84","30.1191","4.74202","47.51","0","SATNPRO1963","26.434","0.37024","5"],
    [45054,"HCEP03730564","2025-01-09 14:45:00","10.8022","3.39529","27.1","4.287142857142857","7.35","2.199","699.884","0","0.19","30.1179","4.74174","46.87","0","SATNPRO1963","26.208000000000002","0.36708","5"],
    [45055,"HCEP03730564","2025-01-09 15:00:00","10.8181","3.39716","26.934","4.211428571428572","7.34","2.058","771.94","0","0.81","30.1232","4.74225","46.06","0","SATNPRO1963","26.402","0.36984","5"],
    [45056,"HCEP03730564","2025-01-09 15:15:00","10.8432","3.39993","26.748","4.084285714285714","7.34","2.179","683.098","0.01","0.94","30.1298","4.74277","44.69","0","SATNPRO1963","26.622","0.37288","5"],
    [45057,"HCEP03730564","2025-01-09 15:30:00","10.8568","3.40111","26.558","3.95","7.34","2.177","678.549","0","0.27","30.1304","4.74264","43.25","0","SATNPRO1963","26.622","0.37292","5"],
    [45058,"HCEP03730564","2025-01-09 15:45:00","10.8571","3.40108","26.353","3.872857142857143","7.32","2.051","759.65","0","1.18","30.1299","4.74255","42.39","0","SATNPRO1963","26.7","0.37398","5"],
    [45059,"HCEP03730564","2025-01-09 16:00:00","10.8487","3.40003","26.141","3.87","7.32","2.184","678.576","0","0.92","30.1266","4.74219","42.36","0","SATNPRO1963","26.948","0.37746","5"],
    [45060,"HCEP03730564","2025-01-09 16:15:00","10.827","3.39772","25.929","3.945714285714286","7.32","2.184","674.069","0","0.27","30.1218","4.74184","43.17","0","SATNPRO1963","27.246","0.3816","5"],
    [45061,"HCEP03730564","2025-01-09 16:30:00","10.8231","3.39754","25.712","4.088571428571429","7.32","2.03","759.679","0","1.03","30.1233","4.7421","44.72","0","SATNPRO1963","27.256","0.38174","5"],
    [45062,"HCEP03730564","2025-01-09 16:45:00","10.7781","3.39344","25.512","4.254285714285714","7.32","2.178","676.127","0","1.05","30.1201","4.74234","46.5","0","SATNPRO1963","27.38","0.3835","5"],
    [45063,"HCEP03730564","2025-01-09 17:00:00","10.7592","3.3919","25.292","4.558571428571429","7.34","2.178","671.52","0","0.54","30.1206","4.7427","49.79","0","SATNPRO1963","27.238","0.38148","5"],
    [45064,"HCEP03730564","2025-01-09 17:15:00","10.7572","3.39169","25.074","4.682857142857143","7.35","2.034","757.017","0","1.01","30.1202","4.74267","51.16","0","SATNPRO1963","27.317999999999998","0.38268","5"],
    [45065,"HCEP03730564","2025-01-09 17:30:00","10.7768","3.39362","24.882","4.681428571428572","7.35","2.184","682.417","0","0.92","30.1231","4.74277","51.15","0","SATNPRO1963","27.2","0.38098","5"],
    [45066,"HCEP03730564","2025-01-09 17:45:00","10.7931","3.39517","24.717","4.568571428571428","7.35","2.183","677.97","0","0.38","30.125","4.74276","49.94","0","SATNPRO1963","27.306","0.38246","5"],
    [45067,"HCEP03730564","2025-01-09 18:00:00","10.8085","3.39649","24.55","4.437142857142857","7.35","2.034","759.161","0","0.64","30.1254","4.74257","48.52","0","SATNPRO1963","27.156","0.38038","5"],
    [45068,"HCEP03730564","2025-01-09 18:15:00","10.8246","3.39785","24.413","4.308571428571429","7.34","2.191","678.386","0.01","0.92","30.1256","4.74234","47.13","0","SATNPRO1963","27.156","0.38036","5"],
    [45069,"HCEP03730564","2025-01-09 18:30:00","10.8289","3.39832","24.303","4.211428571428572","7.34","2.191","673.69","0","0.33","30.1268","4.74243","46.08","0","SATNPRO1963","27.032","0.37864","5"],
    [45070,"HCEP03730564","2025-01-09 18:45:00","10.8287","3.39828","24.224","4.162857142857143","7.33","2.042","763.037","0","1.42","30.1265","4.74239","45.53","0","SATNPRO1963","26.972","0.37778","5"],
    [45071,"HCEP03730564","2025-01-09 19:00:00","10.8386","3.39907","24.168","4.124285714285715","7.33","2.186","675.269","0","1.13","30.1262","4.74219","45.13","0","SATNPRO1963","26.956","0.37756","5"],
    [45072,"HCEP03730564","2025-01-09 19:15:00","10.8417","3.39918","24.143","4.068571428571428","7.33","2.187","671.169","0","0.51","30.1247","4.74193","44.52","0","SATNPRO1963","26.902","0.3768","5"],
    [45073,"HCEP03730564","2025-01-09 19:30:00","10.8338","3.39862","24.131","4.052857142857143","7.33","2.035","754.14","0.01","1","30.1258","4.74221","44.34","0","SATNPRO1963","26.994","0.37806","5"],
    [45074,"HCEP03730564","2025-01-09 19:45:00","10.8419","3.39916","24.224","4.071428571428572","7.32","2.178","674.872","0.01","1.52","30.1244","4.74188","44.56","0","NA",null,null,null],
    [45075,"HCEP03730564","2025-01-09 20:00:00","10.8348","3.39878","24.263","4.055714285714286","7.33","2.177","669.47","0","0.27","30.1264","4.74228","44.37","0","SATNPRO1963","27.126","0.37996","5"],
    [45076,"HCEP03730564","2025-01-09 20:15:00","10.8353","3.39889","24.361","4.067142857142858","7.33","2.063","749.936","0.01","1.17","30.1271","4.74237","44.51","0","SATNPRO1963","27.318","0.38262","5"],
    [45077,"HCEP03730564","2025-01-09 20:30:00","10.8463","3.39995","24.464","4.042857142857143","7.32","2.199","689.166","0.01","1.38","30.1284","4.7424","44.24","0","SATNPRO1963","27.092","0.37948","5"],
    [45078,"HCEP03730564","2025-01-09 20:45:00","10.8527","3.40063","24.576","3.968571428571429","7.33","2.2","684.914","0","0.19","30.1298","4.7425","43.43","0","SATNPRO1963","26.908","0.37692","5"],
    [45079,"HCEP03730564","2025-01-09 21:00:00","10.8641","3.40158","24.698","3.868571428571429","7.32","2.077","765.797","0","1.45","30.1297","4.74232","42.36","0","SATNPRO1963","26.774","0.37502","5"],
    [45080,"HCEP03730564","2025-01-09 21:15:00","10.8731","3.4021","24.849","3.771428571428572","7.31","2.207","712.995","0","1.92","30.1274","4.74185","41.29","0","SATNPRO1963","27.157999999999998","0.38042","5"],
    [45081,"HCEP03730564","2025-01-09 21:30:00","10.8913","3.40362","25.011","3.687142857142857","7.32","2.208","708.548","0","0.51","30.1273","4.74157","40.4","0","SATNPRO1963","26.776","0.37504","5"],
    [45082,"HCEP03730564","2025-01-09 21:45:00","10.9063","3.4049","25.16","3.541428571428572","7.31","2.098","772.288","0","0.88","30.1274","4.74136","38.8","0","SATNPRO1963","26.772000000000002","0.375","5"],
    [45083,"HCEP03730564","2025-01-09 22:00:00","10.9176","3.40589","25.313","3.411428571428572","7.29","2.219","726.97","0","2.42","30.1279","4.74126","37.39","0","SATNPRO1963","26.776","0.3751","5"],
    [45084,"HCEP03730564","2025-01-09 22:15:00","10.9288","3.40685","25.471","3.3","7.3","2.221","720.387","0","0.33","30.128","4.74111","36.18","0","SATNPRO1963","26.848","0.37604","5"],
    [45085,"HCEP03730564","2025-01-09 22:30:00","10.9349","3.40734","25.612","3.202857142857143","7.29","2.117","778.177","0","0.98","30.1277","4.74099","35.11","0","SATNPRO1963","26.838","0.3759","5"],
    [45086,"HCEP03730564","2025-01-09 22:45:00","10.94","3.40764","25.767","3.134285714285714","7.27","2.208","727.074","0.01","3.13","30.1264","4.74072","34.38","0","SATNPRO1963","26.918","0.37704","5"],
    [45087,"HCEP03730564","2025-01-09 23:00:00","10.9425","3.4078","25.963","3.091428571428572","7.28","2.212","721.171","0","0.33","30.1258","4.74062","33.9","0","SATNPRO1963","26.922","0.37704","5"],
    [45088,"HCEP03730564","2025-01-09 23:15:00","10.9442","3.4079","26.147","3.058571428571429","7.27","2.106","762.077","0","0.98","30.1254","4.74055","33.55","0","SATNPRO1963","26.962","0.37764","5"],
    [45089,"HCEP03730564","2025-01-09 23:30:00","10.9449","3.40787","26.328","3.04","7.26","2.219","719.81","0.01","1.76","30.1245","4.74041","33.35","0","SATNPRO1963","27.062","0.37906","5"],
    [45090,"HCEP03730564","2025-01-09 23:45:00","10.9463","3.40796","26.498","3.027142857142858","7.27","2.22","714.2","0","0","30.1241","4.74035","33.2","0","SATNPRO1963","26.887999999999998","0.37662","5"],
    [45091,"HCEP03730564","2025-01-10 00:00:00","10.9472","3.408","26.656","3.01","7.26","2.117","772.375","0","1.15","30.1237","4.74028","33.02","0","SATNPRO1963","26.919999999999998","0.37708","5"],
    [45092,"HCEP03730564","2025-01-10 00:15:00","10.9486","3.40808","26.808","2.995714285714286","7.25","2.229","720.397","0","1.7","30.1233","4.74021","32.85","0","SATNPRO1963","27.201999999999998","0.381","5"],
    [45093,"HCEP03730564","2025-01-10 00:30:00","10.95","3.40812","26.951","2.974285714285714","7.26","2.231","714.989","0","0.27","30.1225","4.74009","32.62","0","SATNPRO1963","27.088","0.3794","5"],
    [45094,"HCEP03730564","2025-01-10 00:45:00","10.9516","3.40824","27.085","2.958571428571429","7.26","2.108","775.075","0","1.51","30.1223","4.74005","32.46","0","SATNPRO1963","27.168","0.3805","5"],
    [45095,"HCEP03730564","2025-01-10 01:00:00","10.9522","3.40834","27.226","2.937142857142857","7.25","2.216","722.068","0.01","1.94","30.1227","4.74009","32.21","0","SATNPRO1963","27.004","0.37824","5"],
    [45096,"HCEP03730564","2025-01-10 01:15:00","10.9539","3.40848","27.344","2.918571428571429","7.26","2.218","716.151","0","0.43","30.1226","4.74006","32.01","0","SATNPRO1963","27.112000000000002","0.37974","5"],
    [45097,"HCEP03730564","2025-01-10 01:30:00","10.9553","3.40859","27.469","2.908571428571429","7.25","2.069","789.712","0","1.18","30.1226","4.74005","31.9","0","SATNPRO1963","27.076","0.37922","5"],
    [45098,"HCEP03730564","2025-01-10 01:45:00","10.9556","3.40867","27.534","2.9","7.25","2.204","706.719","0.01","1.55","30.123","4.74011","31.81","0","SATNPRO1963","27.028000000000002","0.37854","5"],
    [45099,"HCEP03730564","2025-01-10 02:00:00","10.9546","3.40876","27.609","2.894285714285714","7.25","2.205","702.091","0","0.54","30.1247","4.74036","31.75","0","SATNPRO1963","26.956","0.37756","5"],
    [45100,"HCEP03730564","2025-01-10 02:15:00","10.9549","3.40889","27.601","2.878571428571429","7.25","2.081","769.101","0","0.81","30.1257","4.7405","31.58","0","SATNPRO1963","27.080000000000002","0.3793","5"],
    [45101,"HCEP03730564","2025-01-10 02:30:00","10.953","3.40882","27.607","2.875714285714285","7.25","2.185","705.787","0.01","1.75","30.1266","4.74067","31.54","0","SATNPRO1963","27","0.3782","5"],
    [45102,"HCEP03730564","2025-01-10 02:45:00","10.9518","3.4088","27.59","2.875714285714285","7.25","2.183","700.021","0","0.43","30.1274","4.74079","31.55","0","SATNPRO1963","26.772","0.37498","5"],
    [45103,"HCEP03730564","2025-01-10 03:00:00","10.9484","3.40856","27.6","2.892857142857143","7.25","2.07","751.107","0","1.45","30.1279","4.74092","31.73","0","SATNPRO1963","26.854","0.37612","5"],
    [45104,"HCEP03730564","2025-01-10 03:15:00","10.9442","3.40824","27.65","2.924285714285714","7.25","2.182","689.513","0.01","1.92","30.128","4.74101","32.07","0","SATNPRO1963","26.878","0.37648","5"],
    [45105,"HCEP03730564","2025-01-10 03:30:00","10.9381","3.40759","27.672","2.97","7.26","2.184","684.651","0","0","30.1267","4.74091","32.56","0","SATNPRO1963","27.224","0.3813","5"],
    [45106,"HCEP03730564","2025-01-10 03:45:00","10.9316","3.40709","27.67","3.032857142857143","7.25","2.067","745.487","0","1.12","30.1272","4.74108","33.25","0","SATNPRO1963","26.972","0.37782","5"],
    [45107,"HCEP03730564","2025-01-10 04:00:00","10.9132","3.40551","27.638","3.117142857142857","7.25","2.185","701.456","0","1.2","30.1267","4.7413","34.16","0","SATNPRO1963","27.009999999999998","0.37836","5"],
    [45108,"HCEP03730564","2025-01-10 04:15:00","10.8876","3.40316","27.608","3.255714285714286","7.26","2.187","697.396","0","0","30.1248","4.74142","35.66","0","SATNPRO1963","26.922","0.37712","5"],
    [45109,"HCEP03730564","2025-01-10 04:30:00","10.8648","3.40116","27.597","3.47","7.27","2.083","768.967","0","1.53","30.1239","4.74164","37.99","0","SATNPRO1963","26.91","0.37688","5"],
    [45110,"HCEP03730564","2025-01-10 04:45:00","10.8548","3.4004","27.597","3.678571428571429","7.28","2.181","707.033","0","0.98","30.1246","4.7419","40.27","0","SATNPRO1963","26.900000000000002","0.3768","5"],
    [45111,"HCEP03730564","2025-01-10 05:00:00","10.8514","3.40015","27.582","3.794285714285714","7.29","2.181","701.98","0","0.19","30.125","4.742","41.53","0","SATNPRO1963","26.919999999999998","0.37704","5"],
    [45112,"HCEP03730564","2025-01-10 05:15:00","10.8485","3.39993","27.526","3.835714285714286","7.29","2.093","753.73","0.01","1.3","30.1251","4.74207","41.98","0","SATNPRO1963","27","0.37818","5"],
    [45113,"HCEP03730564","2025-01-10 05:30:00","10.844","3.39935","27.483","3.862857142857143","7.3","2.217","711.659","0","1.24","30.1233","4.74187","42.28","0","SATNPRO1963","27.128","0.37996","5"],
    [45114,"HCEP03730564","2025-01-10 05:45:00","10.8397","3.39882","27.446","3.905714285714286","7.31","2.218","706.756","0","0.27","30.1215","4.74169","42.74","0","SATNPRO1963","27.016000000000002","0.3784","5"],
    [45115,"HCEP03730564","2025-01-10 06:00:00","10.837","3.39829","27.413","3.93","7.3","2.111","755.134","0","0.77","30.1185","4.74131","43","0","SATNPRO1963","27.132","0.38002","5"],
    [45116,"HCEP03730564","2025-01-10 06:15:00","10.833","3.39758","27.389","3.94","7.3","2.22","727.905","0","1","30.1148","4.74084","43.11","0","SATNPRO1963","27.067999999999998","0.37914","5"],
    [45117,"HCEP03730564","2025-01-10 06:30:00","10.8028","3.39399","27.351","3.987142857142857","7.31","2.221","722.926","0","0","30.1045","4.73984","43.59","0","SATNPRO1963","26.54","0.3717","5"],
    [45118,"HCEP03730564","2025-01-10 06:45:00","10.7763","3.39111","27.3","4.142857142857143","7.32","2.118","762.586","0","1.12","30.0979","4.73932","45.26","0","SATNPRO1963","26.792","0.37526","5"],
    [45119,"HCEP03730564","2025-01-10 07:00:00","10.7749","3.39101","27.264","4.301428571428572","7.32","2.189","705.446","0.01","1.96","30.0981","4.73937","46.99","0","SATNPRO1963","26.544","0.3718","5"],
    [45120,"HCEP03730564","2025-01-10 07:15:00","10.7797","3.39139","27.244","4.342857142857143","7.34","2.189","699.682","0","0","30.0979","4.73927","47.46","0","SATNPRO1963","26.724","0.37432","5"],
    [45121,"HCEP03730564","2025-01-10 07:30:00","10.7808","3.39135","27.226","4.355714285714286","7.34","2.099","763.393","0","1.31","30.0966","4.73907","47.59","0","SATNPRO1963","26.776","0.37504","5"],
    [45122,"HCEP03730564","2025-01-10 07:45:00","10.782","3.39129","27.202","4.354285714285714","7.33","2.208","755.525","0","1.3","30.0951","4.73882","47.57","0","SATNPRO1963","26.848","0.37606","5"],
    [45123,"HCEP03730564","2025-01-10 08:00:00","10.7824","3.39121","27.196","4.344285714285714","7.34","2.209","749.764","0","0.43","30.0939","4.73865","47.47","0","SATNPRO1963","27.086000000000002","0.37942","5"],
    [45124,"HCEP03730564","2025-01-10 08:15:00","10.7898","3.39142","27.217","4.332857142857143","7.34","2.132","760.753","0","0.38","30.0899","4.73798","47.34","0","SATNPRO1963","27.102","0.3796","5"],
    [45125,"HCEP03730564","2025-01-10 08:30:00","10.788","3.39144","27.245","4.302857142857143","7.33","2.21","728.158","0","0.9","30.0915","4.73823","47.03","0","SATNPRO1963","26.94","0.37732","5"],
    [45126,"HCEP03730564","2025-01-10 08:45:00","10.7878","3.39156","27.271","4.31","7.34","2.209","722.73","0","0.27","30.0929","4.73843","47.1","0","SATNPRO1963","26.919999999999998","0.37706","5"],
    [45127,"HCEP03730564","2025-01-10 09:00:00","10.786","3.39158","27.293","4.311428571428571","7.34","2.116","788.929","0","1.18","30.0946","4.7387","47.11","0","SATNPRO1963","26.896","0.37672","5"],
    [45128,"HCEP03730564","2025-01-10 09:15:00","10.7864","3.39184","27.331","4.327142857142857","7.34","2.214","716.747","0","1.24","30.0967","4.739","47.28","0","SATNPRO1963","26.858","0.37616","5"],
    [45129,"HCEP03730564","2025-01-10 09:30:00","10.7872","3.39233","27.383","4.355714285714286","7.36","2.216","712.632","0","0","30.1009","4.73958","47.6","0","SATNPRO1963","26.764","0.37484","5"],
    [45130,"HCEP03730564","2025-01-10 09:45:00","10.7844","3.39213","27.437","4.345714285714285","7.35","2.151","757.122","0","0.94","30.1012","4.73968","47.49","0","SATNPRO1963","26.608","0.3727","5"],
    [45131,"HCEP03730564","2025-01-10 10:00:00","10.7839","3.39242","27.49","4.337142857142857","7.35","2.234","689.485","0","0.88","30.1045","4.74015","47.4","0","SATNPRO1963","26.616","0.37282","5"],
    [45132,"HCEP03730564","2025-01-10 10:15:00","10.7841","3.39247","27.555","4.31","7.36","2.237","685.323","0","0.43","30.1048","4.74019","47.1","0","SATNPRO1963","26.466","0.3707","5"],
    [45133,"HCEP03730564","2025-01-10 10:30:00","10.7816","3.39241","27.615","4.312857142857143","7.35","2.173","710.167","0","0.51","30.1061","4.74043","47.13","0","SATNPRO1963","26.380000000000003","0.3695","5"],
    [45134,"HCEP03730564","2025-01-10 10:45:00","10.7806","3.39228","27.681","4.312857142857143","7.35","2.224","731.022","0","2.24","30.1058","4.74039","47.13","0","SATNPRO1963","26.424","0.37012","5"],
    [45135,"HCEP03730564","2025-01-10 11:00:00","10.7811","3.39239","27.743","4.331428571428572","7.36","2.227","724.646","0","0.33","30.1064","4.74048","47.33","0","SATNPRO1963","26.406","0.36984","5"],
    [45136,"HCEP03730564","2025-01-10 11:15:00","10.7829","3.39263","27.789","4.311428571428571","7.35","2.144","722.628","0","0.88","30.1073","4.74058","47.12","0","SATNPRO1963","26.488","0.37098","5"],
    [45137,"HCEP03730564","2025-01-10 11:30:00","10.7848","3.39274","27.837","4.31","7.35","2.231","732.873","0","0.92","30.1067","4.74047","47.1","0","SATNPRO1963","26.762","0.3749","5"],
    [45138,"HCEP03730564","2025-01-10 11:45:00","10.7828","3.39247","27.866","4.327142857142857","7.36","2.233","727.717","0","0.33","30.1057","4.74036","47.29","0","SATNPRO1963","26.796","0.37532","5"],
    [45139,"HCEP03730564","2025-01-10 12:00:00","10.7814","3.39239","27.899","4.338571428571429","7.35","2.157","734.266","0","1.47","30.1061","4.74044","47.4","0","SATNPRO1963","26.646","0.37322","5"],
    [45140,"HCEP03730564","2025-01-10 12:15:00","10.7815","3.39252","27.927","4.328571428571428","7.35","2.238","743.06","0","1.26","30.1072","4.7406","47.3","0","SATNPRO1963","26.55","0.37182","5"],
    [45141,"HCEP03730564","2025-01-10 12:30:00","10.7815","3.39255","27.939","4.314285714285714","7.36","2.244","736.744","0","0","30.1075","4.74065","47.14","0","SATNPRO1963","26.206","0.36706","5"],
    [45142,"HCEP03730564","2025-01-10 12:45:00","10.7822","3.39266","27.944","4.292857142857143","7.35","2.148","696.315","0","1.5","30.1081","4.74071","46.91","0","SATNPRO1963","26.419999999999998","0.37004","5"],
    [45143,"HCEP03730564","2025-01-10 13:00:00","10.7838","3.39286","27.931","4.277142857142858","7.35","2.242","721.498","0","1.37","30.1087","4.74078","46.75","0","SATNPRO1963","26.291999999999998","0.36824","5"],
    [45144,"HCEP03730564","2025-01-10 13:15:00","10.7825","3.39268","27.918","4.275714285714286","7.36","2.244","714.154","0","0","30.108","4.7407","46.73","0","SATNPRO1963","26.468","0.37068","5"],
    [45145,"HCEP03730564","2025-01-10 13:30:00","10.7805","3.39255","27.89","4.278571428571428","7.35","2.137","746.152","0","0.9","30.1084","4.74078","46.75","0","SATNPRO1963","26.444","0.37038","5"],
    [45146,"HCEP03730564","2025-01-10 13:45:00","10.7763","3.39231","27.843","4.315714285714286","7.35","2.229","708.134","0.01","2.5","30.1095","4.741","47.16","0","SATNPRO1963","26.442","0.37036","5"],
    [45147,"HCEP03730564","2025-01-10 14:00:00","10.7775","3.39245","27.782","4.311428571428571","7.36","2.231","700.932","0","0","30.1099","4.74104","47.11","0","SATNPRO1963","26.39","0.36964","5"],
    [45148,"HCEP03730564","2025-01-10 14:15:00","10.7795","3.39273","27.707","4.301428571428572","7.35","2.129","719.437","0","1.29","30.111","4.74116","47","0","SATNPRO1963","26.43","0.37022","5"],
    [45149,"HCEP03730564","2025-01-10 14:30:00","10.7797","3.39291","27.618","4.302857142857143","7.35","2.229","725.61","0","1.27","30.1127","4.7414","47.02","0","SATNPRO1963","26.32","0.36866","5"],
    [45150,"HCEP03730564","2025-01-10 14:45:00","10.7785","3.39297","27.51","4.305714285714285","7.36","2.233","720.163","0","0.61","30.1143","4.74163","47.04","0","SATNPRO1963","26.276","0.36806","5"],
    [45151,"HCEP03730564","2025-01-10 15:00:00","10.776","3.39294","27.379","4.342857142857143","7.35","2.166","730.974","0","1.07","30.1161","4.74193","47.45","0","SATNPRO1963","26.326","0.36874","5"],
    [45152,"HCEP03730564","2025-01-10 15:15:00","10.7767","3.39299","27.238","4.355714285714286","7.35","2.246","764.489","0","1.45","30.1161","4.7419","47.59","0","SATNPRO1963","26.272","0.36802","5"],
    [45153,"HCEP03730564","2025-01-10 15:30:00","10.7764","3.39294","27.085","4.344285714285714","7.36","2.248","757.907","0","0.38","30.1158","4.74186","47.47","0","SATNPRO1963","26.34","0.36894","5"],
    [45154,"HCEP03730564","2025-01-10 15:45:00","10.777","3.39287","26.924","4.348571428571429","7.35","2.195","759.046","0","0.74","30.1148","4.74169","47.52","0","SATNPRO1963","26.43","0.37022","5"],
    [45155,"HCEP03730564","2025-01-10 16:00:00","10.7782","3.39284","26.734","4.327142857142857","7.35","2.241","777.197","0","1.74","30.1135","4.74148","47.28","0","SATNPRO1963","26.216","0.3672","5"],
    [45156,"HCEP03730564","2025-01-10 16:15:00","10.7762","3.39249","26.526","4.318571428571428","7.36","2.245","770.945","0","0.33","30.1119","4.74127","47.18","0","SATNPRO1963","26.416","0.37","5"],
    [45157,"HCEP03730564","2025-01-10 16:30:00","10.774","3.39233","26.314","4.325714285714286","7.35","2.177","806.202","0","1.01","30.1122","4.74133","47.27","0","SATNPRO1963","26.47","0.37074","5"],
    [45158,"HCEP03730564","2025-01-10 16:45:00","10.7738","3.39226","26.103","4.34","7.35","2.245","784.323","0","1.3","30.1118","4.74126","47.42","0","SATNPRO1963","26.284000000000002","0.36816","5"],
    [45159,"HCEP03730564","2025-01-10 17:00:00","10.7741","3.39223","25.888","4.35","7.36","2.247","778.652","0","0","30.1113","4.74119","47.54","0","SATNPRO1963","26.376","0.36944","5"],
    [45160,"HCEP03730564","2025-01-10 17:15:00","10.7748","3.39226","25.664","4.337142857142857","7.35","2.157","813.447","0","1.05","30.1111","4.74113","47.39","0","SATNPRO1963","26.19","0.36682","5"],
    [45161,"HCEP03730564","2025-01-10 17:30:00","10.7748","3.39222","25.438","4.33","7.35","2.246","779.089","0","1.21","30.1108","4.74107","47.32","0","SATNPRO1963","26.194","0.3669","5"],
    [45162,"HCEP03730564","2025-01-10 17:45:00","10.7735","3.39215","25.218","4.342857142857143","7.36","2.25","773.835","0","0.27","30.1112","4.74114","47.45","0","SATNPRO1963","26.378","0.36948","5"],
    [45163,"HCEP03730564","2025-01-10 18:00:00","10.7713","3.39193","25.022","4.367142857142857","7.35","2.192","804.898","0","0.9","30.111","4.74113","47.71","0","SATNPRO1963","26.38","0.36948","5"],
    [45164,"HCEP03730564","2025-01-10 18:15:00","10.7702","3.39176","24.823","4.387142857142858","7.35","2.242","775.065","0","1.15","30.1103","4.74104","47.93","0","SATNPRO1963","26.574","0.37222","5"],
    [45165,"HCEP03730564","2025-01-10 18:30:00","10.7695","3.39175","24.632","4.407142857142858","7.36","2.245","769.149","0","0.19","30.1109","4.74112","48.15","0","SATNPRO1963","26.488","0.37102","5"],
    [45166,"HCEP03730564","2025-01-10 18:45:00","10.7684","3.39163","24.466","4.405714285714286","7.35","2.182","789.458","0","1.05","30.1106","4.7411","48.13","0","SATNPRO1963","26.548","0.37184","5"],
    [45167,"HCEP03730564","2025-01-10 19:00:00","10.765","3.39126","24.316","4.447142857142858","7.35","2.243","777.177","0","0.86","30.1098","4.74103","48.58","0","NA",null,null,null],
    [45168,"HCEP03730564","2025-01-10 19:15:00","10.7636","3.39126","24.176","4.461428571428572","7.35","2.245","770.732","0","0.43","30.1111","4.74122","48.73","0","SATNPRO1963","26.47","0.37074","5"],
    [45169,"HCEP03730564","2025-01-10 19:30:00","10.7427","3.38888","24.08","4.528571428571428","7.35","2.17","786.634","0","0.9","30.1048","4.74066","49.44","0","SATNPRO1963","26.912","0.37696","5"],
    [45170,"HCEP03730564","2025-01-10 19:45:00","10.753","3.39006","24.006","4.637142857142857","7.35","2.238","759.459","0","1.17","30.1081","4.74095","50.65","0","SATNPRO1963","26.674","0.3736","5"],
    [45171,"HCEP03730564","2025-01-10 20:00:00","10.7476","3.38944","23.973","4.557142857142857","7.36","2.241","753.577","0","0","30.1064","4.74079","49.76","0","SATNPRO1963","26.672","0.3736","5"],
    [45172,"HCEP03730564","2025-01-10 20:15:00","10.7408","3.38857","23.981","4.575714285714286","7.36","2.151","790.866","0","0.77","30.1034","4.74048","49.95","0","SATNPRO1963","26.736","0.37448","5"],
    [45173,"HCEP03730564","2025-01-10 20:30:00","10.7406","3.38851","24.007","4.624285714285715","7.36","2.243","779.4","0","1.53","30.103","4.74042","50.49","0","SATNPRO1963","26.658","0.37336","5"],
    [45174,"HCEP03730564","2025-01-10 20:45:00","10.7388","3.38817","24.076","4.625714285714285","7.37","2.246","773.148","0","0.66","30.1011","4.74018","50.5","0","SATNPRO1963","26.71","0.37412","5"],
    [45175,"HCEP03730564","2025-01-10 21:00:00","10.7361","3.38745","24.181","4.635714285714286","7.36","2.205","755.325","0","0.9","30.0962","4.73954","50.6","0","SATNPRO1963","27.064","0.3791","5"],
    [45176,"HCEP03730564","2025-01-10 21:15:00","10.7445","3.38817","24.218","4.665714285714286","7.36","2.239","721.713","0","1.29","30.0963","4.73943","50.94","0","SATNPRO1963","27.018","0.37846","5"],
    [45177,"HCEP03730564","2025-01-10 21:30:00","10.7496","3.38875","24.349","4.581428571428571","7.37","2.242","715.426","0","0","30.0978","4.73956","50.03","0","SATNPRO1963","26.91","0.37696","5"],
    [45178,"HCEP03730564","2025-01-10 21:45:00","10.7396","3.38812","24.485","4.622857142857144","7.37","2.148","766.643","0","0.94","30.0998","4.74001","50.47","0","SATNPRO1963","26.948","0.37748","5"],
    [45179,"HCEP03730564","2025-01-10 22:00:00","10.7497","3.38965","24.616","4.597142857142857","7.37","2.236","749.774","0","0.77","30.1065","4.74081","50.2","0","SATNPRO1963","26.62","0.37286","5"],
    [45180,"HCEP03730564","2025-01-10 22:15:00","10.7535","3.38994","24.752","4.56","7.37","2.24","744.861","0","0","30.1061","4.7407","49.8","0","SATNPRO1963","26.716","0.37416","5"],
    [45181,"HCEP03730564","2025-01-10 22:30:00","10.7703","3.3917","24.878","4.402857142857143","7.36","2.128","715.362","0","1.4","30.1095","4.74093","48.09","0","SATNPRO1963","26.236","0.36744","5"],
    [45182,"HCEP03730564","2025-01-10 22:45:00","10.7953","3.39441","25.033","4.182857142857143","7.35","2.211","734.615","0","1.31","30.1156","4.74142","45.73","0","SATNPRO1963","26.268","0.36794","5"],
    [45183,"HCEP03730564","2025-01-10 23:00:00","10.8002","3.39493","25.219","4.09","7.35","2.213","728.298","0","0.47","30.1166","4.74149","44.71","0","SATNPRO1963","26.35","0.36912","5"],
    [45184,"HCEP03730564","2025-01-10 23:15:00","10.7989","3.39454","25.398","4.131428571428572","7.34","2.124","749.004","0","1.08","30.1138","4.74113","45.17","0","SATNPRO1963","26.458","0.37058","5"],
    [45185,"HCEP03730564","2025-01-10 23:30:00","10.7861","3.39204","25.584","4.298571428571429","7.34","2.212","741.225","0","2.6","30.0997","4.73932","46.97","0","SATNPRO1963","26.740000000000002","0.37454","5"],
    [45186,"HCEP03730564","2025-01-10 23:45:00","10.7884","3.39178","25.809","4.328571428571428","7.34","2.216","734.482","0","0","30.0951","4.73866","47.31","0","SATNPRO1963","27.152","0.38032","5"],
    [45187,"HCEP03730564","2025-01-11 00:00:00","10.7949","3.39289","26.073","4.315714285714286","7.34","2.108","794.776","0","0.86","30.1005","4.73934","47.17","0","SATNPRO1963","27.206","0.3811","5"],
    [45188,"HCEP03730564","2025-01-11 00:15:00","10.7966","3.39297","26.333","4.228571428571429","7.33","2.227","774.455","0","0.94","30.0999","4.73923","46.22","0","SATNPRO1963","26.898","0.37674","5"],
    [45189,"HCEP03730564","2025-01-11 00:30:00","10.7977","3.39258","26.498","4.167142857142857","7.34","2.232","769.66","0","0.51","30.0951","4.73854","45.55","0","SATNPRO1963","26.864","0.37626","5"],
    [45190,"HCEP03730564","2025-01-11 00:45:00","10.7956","3.39279","26.668","4.182857142857143","7.33","2.154","814.888","0","0.98","30.0989","4.73912","45.72","0","SATNPRO1963","26.855999999999998","0.37616","5"],
    [45191,"HCEP03730564","2025-01-11 01:00:00","10.7963","3.39282","26.858","4.221428571428572","7.33","2.233","785.151","0","1.15","30.0984","4.73906","46.15","0","SATNPRO1963","26.918","0.37702","5"],
    [45192,"HCEP03730564","2025-01-11 01:15:00","10.7989","3.39304","27.017","4.228571428571429","7.34","2.236","779.283","0","0","30.0984","4.73903","46.22","0","SATNPRO1963","27.154","0.38034","5"],
    [45193,"HCEP03730564","2025-01-11 01:30:00","10.7968","3.39265","27.203","4.255714285714286","7.34","2.155","815.535","0","1.12","30.0962","4.73875","46.51","0","SATNPRO1963","27.09","0.37942","5"],
    [45194,"HCEP03730564","2025-01-11 01:45:00","10.7941","3.39227","27.339","4.284285714285715","7.33","2.225","792.119","0","0.98","30.0947","4.73859","46.82","0","SATNPRO1963","27.096","0.37954","5"],
    [45195,"HCEP03730564","2025-01-11 02:00:00","10.792","3.39203","27.491","4.3","7.34","2.227","786.049","0","0","30.094","4.73853","47","0","SATNPRO1963","27.366","0.3833","5"],
    [45196,"HCEP03730564","2025-01-11 02:15:00","10.7907","3.39192","27.576","4.307142857142858","7.34","2.14","828.17","0","1.24","30.0939","4.73855","47.07","0","SATNPRO1963","27.086","0.37938","5"],
    [45197,"HCEP03730564","2025-01-11 02:30:00","10.7882","3.39172","27.668","4.324285714285715","7.34","2.203","768.803","0","1.55","30.094","4.7386","47.26","0","SATNPRO1963","27.264","0.3819","5"],
    [45198,"HCEP03730564","2025-01-11 02:45:00","10.7821","3.39149","27.744","4.354285714285714","7.35","2.205","762.691","0","0.43","30.0967","4.73909","47.57","0","SATNPRO1963","27.122","0.3799","5"],
    [45199,"HCEP03730564","2025-01-11 03:00:00","10.7858","3.39272","27.816","4.352857142857143","7.34","2.141","814.311","0","0.86","30.1058","4.74032","47.58","0","SATNPRO1963","27.02","0.37844","5"],
    [45200,"HCEP03730564","2025-01-11 03:15:00","10.7935","3.39456","27.871","4.277142857142858","7.34","2.214","781.743","0","1.41","30.1176","4.74188","46.75","0","SATNPRO1963","26.776","0.37508","5"],
    [45201,"HCEP03730564","2025-01-11 03:30:00","10.7933","3.39473","27.916","4.202857142857143","7.35","2.213","775.462","0","0.38","30.1193","4.74214","45.94","0","SATNPRO1963","26.846","0.37602","5"],
    [45202,"HCEP03730564","2025-01-11 03:45:00","10.7928","3.39458","27.953","4.192857142857143","7.34","2.15","809.865","0","1.21","30.1182","4.74199","45.83","0","SATNPRO1963","26.718","0.3742","5"],
    [45203,"HCEP03730564","2025-01-11 04:00:00","10.792","3.39458","27.958","4.188571428571429","7.34","2.214","754.265","0","1.63","30.1189","4.74209","45.79","0","SATNPRO1963","27.016000000000002","0.37844","5"],
    [45204,"HCEP03730564","2025-01-11 04:15:00","10.7926","3.39467","27.984","4.187142857142858","7.34","2.216","748.385","0","0","30.1192","4.74213","45.77","0","SATNPRO1963","26.922","0.37708","5"],
    [45205,"HCEP03730564","2025-01-11 04:30:00","10.7925","3.39462","27.959","4.180000000000001","7.34","2.133","805.422","0","0.98","30.1189","4.74209","45.69","0","SATNPRO1963","26.99","0.37806","5"],
    [45206,"HCEP03730564","2025-01-11 04:45:00","10.7914","3.39439","27.966","4.185714285714286","7.34","2.193","746.077","0.01","1.92","30.1175","4.74191","45.75","0","SATNPRO1963","26.948","0.37748","5"],
    [45207,"HCEP03730564","2025-01-11 05:00:00","10.7918","3.3945","27.932","4.194285714285714","7.34","2.193","739.416","0","0","30.1182","4.742","45.85","0","SATNPRO1963","26.748","0.37464","5"],
    [45208,"HCEP03730564","2025-01-11 05:15:00","10.7915","3.39441","27.923","4.19","7.34","2.077","802.352","0","1.58","30.1176","4.74192","45.8","0","SATNPRO1963","26.81","0.37546","5"],
    [45209,"HCEP03730564","2025-01-11 05:30:00","10.7914","3.39428","27.889","4.19","7.33","2.199","746.124","0","0.86","30.1164","4.74175","45.8","0","SATNPRO1963","26.816","0.37562","5"],
    [45210,"HCEP03730564","2025-01-11 05:45:00","10.7908","3.3941","27.844","4.201428571428571","7.34","2.202","740.958","0","0","30.1152","4.74159","45.92","0","SATNPRO1963","27.13","0.38002","5"],
    [45211,"HCEP03730564","2025-01-11 06:00:00","10.7909","3.39402","27.756","4.214285714285714","7.34","2.095","795.268","0","1.41","30.1144","4.74146","46.07","0","SATNPRO1963","26.782","0.37512","5"],
    [45212,"HCEP03730564","2025-01-11 06:15:00","10.7867","3.3931","27.69","4.231428571428572","7.33","2.196","737.302","0","1.6","30.1088","4.74073","46.24","0","SATNPRO1963","27.154","0.38036","5"],
    [45213,"HCEP03730564","2025-01-11 06:30:00","10.7827","3.39219","27.622","4.287142857142857","7.34","2.198","731.885","0","0.19","30.1031","4.73998","46.85","0","SATNPRO1963","27.27","0.38196","5"],
    [45214,"HCEP03730564","2025-01-11 06:45:00","10.7828","3.39214","27.55","4.352857142857143","7.34","2.143","749.042","0","0.69","30.1026","4.7399","47.57","0","SATNPRO1963","27.136","0.38006","5"],
    [45215,"HCEP03730564","2025-01-11 07:00:00","10.7836","3.39234","27.479","4.348571428571429","7.34","2.207","695.563","0","0.98","30.1039","4.74008","47.52","0","SATNPRO1963","27.092","0.37948","5"],
    [45216,"HCEP03730564","2025-01-11 07:15:00","10.7848","3.39253","27.421","4.33","7.35","2.209","691.209","0","0","30.1049","4.74019","47.32","0","SATNPRO1963","27.013333333333332","0.378366666666667","3"],
    [45217,"HCEP03730564","2025-01-11 07:30:00","10.7848","3.39241","27.361","4.315714285714286","7.34","2.067","775.83","0","1.33","30.1036","4.74001","47.15","0","SATNPRO1963","27.056","0.37898","5"],
    [45218,"HCEP03730564","2025-01-11 07:45:00","10.785","3.3921","27.305","4.308571428571429","7.34","2.207","716.086","0","1.2","30.1005","4.73955","47.09","0","SATNPRO1963","27.078","0.37928","5"],
    [45219,"HCEP03730564","2025-01-11 08:00:00","10.7852","3.39192","27.249","4.302857142857143","7.34","2.208","710.714","0","0","30.0986","4.73928","47.03","0","SATNPRO1963","26.764","0.37488","5"],
    [45220,"HCEP03730564","2025-01-11 08:15:00","10.7839","3.39203","27.187","4.288571428571428","7.34","2.132","762.153","0","0.9","30.1008","4.7396","46.86","0","SATNPRO1963","26.73","0.3744","5"],
    [45221,"HCEP03730564","2025-01-11 08:30:00","10.7767","3.39091","27.14","4.282857142857143","7.34","2.21","726.687","0","1.27","30.0956","4.73899","46.8","0","SATNPRO1963","27.14","0.38014","5"],
    [45222,"HCEP03730564","2025-01-11 08:45:00","10.762","3.38849","27.107","4.351428571428571","7.35","2.211","721.208","0","0","30.084","4.73756","47.52","0","SATNPRO1963","27.182000000000002","0.38072","5"],
    [45223,"HCEP03730564","2025-01-11 09:00:00","10.7546","3.3874","27.103","4.468571428571429","7.35","2.122","768.012","0","0.79","30.0793","4.73702","48.8","0","SATNPRO1963","27.137999999999998","0.3801","5"],
    [45224,"HCEP03730564","2025-01-11 09:15:00","10.7495","3.3869","27.137","4.537142857142857","7.35","2.207","734.153","0","0.9","30.0785","4.73699","49.53","0","SATNPRO1963","27.432","0.38424","5"],
    [45225,"HCEP03730564","2025-01-11 09:30:00","10.7401","3.38554","27.163","4.581428571428571","7.36","2.208","728.026","0","0.51","30.0729","4.73633","50.01","0","SATNPRO1963","27.342","0.38294","5"],
    [45226,"HCEP03730564","2025-01-11 09:45:00","10.746","3.38662","27.165","4.632857142857143","7.36","2.125","761.347","0","1.18","30.0786","4.73706","50.57","0","SATNPRO1963","27.156","0.38032","5"],
    [45227,"HCEP03730564","2025-01-11 10:00:00","10.7448","3.38666","27.19","4.595714285714286","7.36","2.205","734.916","0","1.18","30.08","4.73728","50.17","0","SATNPRO1963","27.284","0.3822","5"],
    [45228,"HCEP03730564","2025-01-11 10:15:00","10.7408","3.38617","27.236","4.602857142857143","7.36","2.207","729.715","0","0","30.0785","4.73712","50.25","0","SATNPRO1963","27.288","0.38222","5"],
    [45229,"HCEP03730564","2025-01-11 10:30:00","10.7406","3.38632","27.286","4.628571428571429","7.36","2.113","773.216","0","0.54","30.0801","4.73736","50.53","0","SATNPRO1963","27.112","0.37978","5"],
    [45230,"HCEP03730564","2025-01-11 10:45:00","10.7501","3.38819","27.331","4.611428571428572","7.36","2.186","715.017","0","0.79","30.0907","4.73872","50.36","0","SATNPRO1963","26.896","0.3767","5"],
    [45231,"HCEP03730564","2025-01-11 11:00:00","10.7497","3.38811","27.357","4.537142857142857","7.37","2.187","710.103","0","0","30.0902","4.73865","49.53","0","SATNPRO1963","27.002","0.3782","5"],
    [45232,"HCEP03730564","2025-01-11 11:15:00","10.7499","3.3881","27.402","4.531428571428572","7.36","2.115","759.659","0","1.13","30.09","4.73862","49.47","0","SATNPRO1963","27.182","0.3807","5"],
    [45233,"HCEP03730564","2025-01-11 11:30:00","10.7458","3.38739","27.464","4.547142857142857","7.36","2.185","716.877","0","0.96","30.0863","4.73816","49.65","0","SATNPRO1963","27.118000000000002","0.37982","5"],
    [45234,"HCEP03730564","2025-01-11 11:45:00","10.7093","3.38332","27.519","4.641428571428572","7.37","2.187","711.501","0","0.43","30.0762","4.73731","50.64","0","SATNPRO1963","27.44","0.38436","5"],
    [45235,"HCEP03730564","2025-01-11 12:00:00","10.7471","3.38808","27.601","4.705714285714286","7.36","2.078","772.568","0","0.9","30.0919","4.73895","51.37","0","SATNPRO1963","26.768","0.37494","5"],
    [45236,"HCEP03730564","2025-01-11 12:15:00","10.7244","3.3859","27.657","4.62","7.36","2.178","719.362","0","1.08","30.0891","4.73892","50.42","0","SATNPRO1963","27.124","0.37992","5"],
    [45237,"HCEP03730564","2025-01-11 12:30:00","10.6486","3.37676","27.671","4.727142857142858","7.37","2.18","714.961","0","0.33","30.0613","4.73616","51.51","0","SATNPRO1963","27.65","0.38728","5"],
    [45238,"HCEP03730564","2025-01-11 12:45:00","10.6073","3.37315","27.684","5.091428571428572","7.38","2.103","779.264","0","1.33","30.0596","4.73659","55.42","0","NA",null,null,null],
    [45239,"HCEP03730564","2025-01-11 13:00:00","10.6556","3.37792","27.745","5.241428571428572","7.38","2.181","726.556","0","1.58","30.067","4.73687","57.1","0","SATNPRO1963","27.572","0.38618","5"],
    [45240,"HCEP03730564","2025-01-11 13:15:00","10.6742","3.37993","27.789","5.082857142857143","7.39","2.181","720.592","0","0.51","30.0715","4.73721","55.4","0","SATNPRO1963","27.366","0.3833","5"],
    [45241,"HCEP03730564","2025-01-11 13:30:00","10.6735","3.37986","27.8","4.984285714285714","7.38","2.099","764.267","0","0.81","30.0714","4.73721","54.32","0","SATNPRO1963","27.316","0.3826","5"],
    [45242,"HCEP03730564","2025-01-11 13:45:00","10.667","3.37923","27.825","4.970000000000001","7.38","2.176","715.213","0","1.01","30.0706","4.7372","54.16","0","SATNPRO1963","27.216","0.38122","5"],
    [45243,"HCEP03730564","2025-01-11 14:00:00","10.6649","3.37886","27.822","4.961428571428572","7.39","2.177","709.473","0","0","30.0686","4.73695","54.07","0","SATNPRO1963","27.216","0.38122","5"],
    [45244,"HCEP03730564","2025-01-11 14:15:00","10.656","3.37789","27.794","4.974285714285715","7.38","2.067","765.969","0","0.33","30.0664","4.73678","54.2","0","SATNPRO1963","27.372","0.38334","5"],
    [45245,"HCEP03730564","2025-01-11 14:30:00","10.6448","3.37665","27.759","5.048571428571428","7.38","2.18","713.124","0","0.98","30.0633","4.73652","55","0","SATNPRO1963","27.404","0.38386","5"],
    [45246,"HCEP03730564","2025-01-11 14:45:00","10.6349","3.37546","27.701","5.122857142857143","7.39","2.183","708.012","0","0.51","30.0598","4.73617","55.78","0","SATNPRO1963","27.686","0.38778","5"],
    [45247,"HCEP03730564","2025-01-11 15:00:00","10.641","3.37615","27.639","5.168571428571428","7.39","2.066","767.077","0","0.79","30.0616","4.73633","56.29","0","SATNPRO1963","27.663999999999998","0.3875","5"],
    [45248,"HCEP03730564","2025-01-11 15:15:00","10.6333","3.37535","27.562","5.171428571428572","7.39","2.183","704.385","0","0.81","30.06","4.73622","56.31","0","SATNPRO1963","27.584","0.38638","5"],
    [45249,"HCEP03730564","2025-01-11 15:30:00","10.6391","3.37596","27.493","5.194285714285715","7.4","2.184","699.195","0","0","30.0614","4.73632","56.57","0","SATNPRO1963","27.538","0.38572","5"],
    [45250,"HCEP03730564","2025-01-11 15:45:00","10.6357","3.37556","27.385","5.194285714285715","7.39","2.076","756.137","0","0","30.0603","4.73621","56.57","0","SATNPRO1963","27.701999999999998","0.38806","5"],
    [45251,"HCEP03730564","2025-01-11 16:00:00","10.6272","3.37473","27.252","5.221428571428572","7.39","2.176","693.75","0","1.01","30.0591","4.73617","56.85","0","SATNPRO1963","27.884","0.39058","5"],
    [45252,"HCEP03730564","2025-01-11 16:15:00","10.6238","3.37442","27.095","5.257142857142857","7.4","2.178","688.609","0","0","30.0589","4.73618","57.24","0","SATNPRO1963","27.828","0.3898","5"],
    [45253,"HCEP03730564","2025-01-11 16:30:00","10.6237","3.37439","26.927","5.277142857142858","7.4","2.054","752.403","0","0.61","30.0588","4.73617","57.46","0","SATNPRO1963","27.942","0.39142","5"],
    [45254,"HCEP03730564","2025-01-11 16:45:00","10.6248","3.37455","26.739","5.287142857142857","7.4","2.173","688.847","0","1.01","30.0595","4.73624","57.56","0","SATNPRO1963","27.738","0.38852","5"],
    [45255,"HCEP03730564","2025-01-11 17:00:00","10.6277","3.37489","26.536","5.284285714285714","7.41","2.174","683.207","0","0.33","30.0605","4.73632","57.53","0","SATNPRO1963","27.708000000000002","0.3881","5"],
    [45256,"HCEP03730564","2025-01-11 17:15:00","10.6317","3.37542","26.312","5.254285714285714","7.4","2.058","731.096","0","0.84","30.0625","4.73653","57.22","0","SATNPRO1963","27.744","0.38854","5"],
    [45257,"HCEP03730564","2025-01-11 17:30:00","10.6348","3.37561","26.088","5.232857142857143","7.4","2.173","693.842","0","0.92","30.062","4.7364","56.99","0","SATNPRO1963","27.772","0.38904","5"],
    [45258,"HCEP03730564","2025-01-11 17:45:00","10.641","3.37618","25.85","5.211428571428572","7.4","2.172","688.281","0","0.33","30.0626","4.73638","56.76","0","SATNPRO1963","27.692","0.3879","5"],
    [45259,"HCEP03730564","2025-01-11 18:00:00","10.6434","3.37662","25.618","5.177142857142857","7.4","2.093","738.311","0","1.41","30.0651","4.73667","56.38","0","SATNPRO1963","27.422","0.38414","5"],
    [45260,"HCEP03730564","2025-01-11 18:15:00","10.6388","3.37608","25.38","5.147142857142858","7.39","2.169","694.665","0","1.03","30.0636","4.73652","56.06","0","SATNPRO1963","27.451999999999998","0.38452","5"],
    [45261,"HCEP03730564","2025-01-11 18:30:00","10.639","3.37615","25.144","5.147142857142858","7.4","2.17","689.467","0","0","30.0642","4.73659","56.05","0","SATNPRO1963","27.312","0.38254","5"],
    [45262,"HCEP03730564","2025-01-11 18:45:00","10.6357","3.37581","24.901","5.131428571428572","7.4","2.042","736.33","0","1.24","30.0637","4.73656","55.88","0","SATNPRO1963","27.602","0.38662","5"],
    [45263,"HCEP03730564","2025-01-11 19:00:00","10.6355","3.37591","24.669","5.131428571428572","7.4","2.154","674.222","0","0.86","30.0649","4.73673","55.88","0","SATNPRO1963","27.332","0.38282","5"],
    [45264,"HCEP03730564","2025-01-11 19:15:00","10.6381","3.37616","24.428","5.118571428571429","7.4","2.156","669.317","0","0","30.0653","4.73673","55.74","0","SATNPRO1963","27.346","0.38302","5"],
    [45265,"HCEP03730564","2025-01-11 19:30:00","10.6337","3.37576","24.236","5.115714285714286","7.4","2.039","737.009","0","0","30.0651","4.73675","55.71","0","SATNPRO1963","27.29","0.38226","5"],
    [45266,"HCEP03730564","2025-01-11 19:45:00","10.6348","3.37581","24.067","5.122857142857143","7.4","2.166","672.087","0","1.03","30.0647","4.73667","55.79","0","SATNPRO1963","27.164","0.38052","5"],
    [45267,"HCEP03730564","2025-01-11 20:00:00","10.6376","3.37613","23.916","5.117142857142857","7.4","2.167","668.087","0","0.43","30.0657","4.73675","55.72","0","SATNPRO1963","27.22","0.38126","5"],
    [45268,"HCEP03730564","2025-01-11 20:15:00","10.6394","3.37623","23.79","5.098571428571429","7.4","2.046","738.586","0","1.64","30.0652","4.73665","55.53","0","SATNPRO1963","27.346","0.38302","5"],
    [45269,"HCEP03730564","2025-01-11 20:30:00","10.6427","3.37661","23.691","5.088571428571428","7.39","2.157","680.622","0","0.84","30.0663","4.73674","55.43","0","SATNPRO1963","27.31","0.38252","5"],
    [45270,"HCEP03730564","2025-01-11 20:45:00","10.6422","3.37648","23.641","5.07","7.4","2.159","676.072","0","0.27","30.0655","4.73664","55.22","0","SATNPRO1963","27.494","0.38512","5"],
    [45271,"HCEP03730564","2025-01-11 21:00:00","10.6454","3.37685","23.634","5.052857142857142","7.39","2.027","744.415","0","0.72","30.0664","4.73672","55.04","0","SATNPRO1963","27.258","0.38178","5"],
    [45272,"HCEP03730564","2025-01-11 21:15:00","10.648","3.3771","23.644","5.042857142857143","7.39","2.153","667.279","0","0.81","30.0668","4.73674","54.94","0","SATNPRO1963","27.34","0.383","5"],
    [45273,"HCEP03730564","2025-01-11 21:30:00","10.6507","3.37736","23.684","5.03","7.4","2.154","662.881","0","0.19","30.0671","4.73674","54.8","0","SATNPRO1963","27.158","0.38042","5"],
    [45274,"HCEP03730564","2025-01-11 21:45:00","10.6564","3.3779","23.783","5.010000000000001","7.39","2.021","735.792","0","0.72","30.0678","4.73674","54.59","0","SATNPRO1963","27.268","0.38192","5"],
    [45275,"HCEP03730564","2025-01-11 22:00:00","10.6557","3.37783","23.959","4.991428571428572","7.39","2.151","671.268","0","1.07","30.0675","4.73673","54.38","0","SATNPRO1963","27.212","0.38114","5"],
    [45276,"HCEP03730564","2025-01-11 22:15:00","10.6717","3.37954","24.058","4.952857142857143","7.39","2.151","666.552","0","0.51","30.0712","4.737","53.98","0","SATNPRO1963","27.23","0.3814","5"],
    [45277,"HCEP03730564","2025-01-11 22:30:00","10.6962","3.38223","24.171","4.85","7.39","2.041","742.368","0.01","1.08","30.0776","4.73753","52.88","0","SATNPRO1963","27.204","0.38104","5"],
    [45278,"HCEP03730564","2025-01-11 22:45:00","10.7122","3.38373","24.362","4.684285714285714","7.38","2.164","701.76","0","1.8","30.0791","4.7375","51.09","0","SATNPRO1963","26.952","0.37754","5"],
    [45279,"HCEP03730564","2025-01-11 23:00:00","10.729","3.38555","24.539","4.632857142857143","7.38","2.167","696.286","0","0","30.0831","4.73782","50.55","0","SATNPRO1963","26.996","0.3781","5"],
    [45280,"HCEP03730564","2025-01-11 23:15:00","10.7545","3.38806","24.716","4.487142857142858","7.37","2.059","753.673","0","1","30.0868","4.73795","48.99","0","SATNPRO1963","26.924","0.37712","5"],
    [45281,"HCEP03730564","2025-01-11 23:30:00","10.7721","3.38981","24.903","4.322857142857143","7.36","2.175","713.32","0","2.24","30.0895","4.73806","47.23","0","SATNPRO1963","26.866","0.37634","5"],
    [45282,"HCEP03730564","2025-01-11 23:45:00","10.781","3.3908","25.072","4.267142857142858","7.36","2.177","707.393","0","0.43","30.0919","4.73827","46.62","0","SATNPRO1963","26.948","0.37744","5"],
    [45283,"HCEP03730564","2025-01-12 00:00:00","10.7782","3.39013","25.261","4.238571428571428","7.35","2.101","763.681","0","0.77","30.0875","4.73771","46.31","0","SATNPRO1963","26.796","0.37534","5"],
    [45284,"HCEP03730564","2025-01-12 00:15:00","10.7798","3.39008","25.464","4.281428571428571","7.34","2.186","731.172","0","1.4","30.0856","4.73742","46.78","0","SATNPRO1963","27.088","0.37936","5"],
    [45285,"HCEP03730564","2025-01-12 00:30:00","10.7841","3.39067","25.66","4.251428571428572","7.35","2.189","725.759","0","0.72","30.0879","4.73768","46.45","0","SATNPRO1963","27.078","0.37926","5"],
    [45286,"HCEP03730564","2025-01-12 00:45:00","10.7856","3.3907","25.909","4.215714285714286","7.34","2.101","772.123","0","0.86","30.0868","4.73753","46.06","0","SATNPRO1963","27.148","0.3803","5"],
    [45287,"HCEP03730564","2025-01-12 01:00:00","10.7842","3.38976","26.15","4.2","7.34","2.184","741.148","0","1.42","30.0786","4.73639","45.89","0","SATNPRO1963","27.238","0.3815","5"],
    [45288,"HCEP03730564","2025-01-12 01:15:00","10.7853","3.38985","26.385","4.197142857142858","7.34","2.185","735.528","0","0.19","30.0785","4.73637","45.86","0","SATNPRO1963","27.306","0.38244","5"],
    [45289,"HCEP03730564","2025-01-12 01:30:00","10.7873","3.39003","26.595","4.182857142857143","7.34","2.112","784.664","0","0.98","30.0785","4.73636","45.71","0","SATNPRO1963","27.194","0.38088","5"],
    [45290,"HCEP03730564","2025-01-12 01:45:00","10.7898","3.39045","26.8","4.167142857142857","7.33","2.174","749.27","0.01","1.36","30.0805","4.73662","45.53","0","SATNPRO1963","27.088","0.3794","5"],
    [45291,"HCEP03730564","2025-01-12 02:00:00","10.7943","3.39127","26.972","4.124285714285715","7.34","2.175","744.017","0","0.69","30.0848","4.73716","45.07","0","SATNPRO1963","27.086000000000002","0.3794","5"],
    [45292,"HCEP03730564","2025-01-12 02:15:00","10.798400000000001","3.39142","27.141","4.077142857142857","7.33","2.111","783.183","0","0.66","30.0829","4.73684","44.56","0","SATNPRO1963","27.046","0.37882","5"],
    [45293,"HCEP03730564","2025-01-12 02:30:00","10.7971","3.39046","27.306","4.055714285714286","7.32","2.17","735.171","0.01","1.6","30.0745","4.73567","44.33","0","SATNPRO1963","26.804","0.3754","5"],
    [45294,"HCEP03730564","2025-01-12 02:45:00","10.7964","3.38981","27.468","4.057142857142857","7.33","2.172","729.875","0","0","30.0685","4.73485","44.34","0","SATNPRO1963","27.096","0.37954","5"],
    [45295,"HCEP03730564","2025-01-12 03:00:00","10.7976","3.38959","27.591","4.028571428571428","7.33","2.101","764.767","0","0.64","30.0653","4.73438","44.02","0","SATNPRO1963","27.248","0.38166","5"],
    [45296,"HCEP03730564","2025-01-12 03:15:00","10.7938","3.38864","27.698","4.037142857142857","7.32","2.176","720.229","0.01","1.23","30.0591","4.73357","44.12","0","SATNPRO1963","27.8","0.38938","5"],
    [45297,"HCEP03730564","2025-01-12 03:30:00","10.8001","3.38873","27.756","4.051428571428572","7.33","2.177","714.72","0","0","30.0548","4.73285","44.27","0","SATNPRO1963","27.526","0.38558","5"],
    [45298,"HCEP03730564","2025-01-12 03:45:00","10.8128","3.39001","27.839","3.977142857142857","7.32","2.069","763.556","0","0.69","30.0569","4.73295","43.47","0","SATNPRO1963","27.436","0.38428","5"],
    [45299,"HCEP03730564","2025-01-12 04:00:00","10.8223","3.39073","27.883","3.824285714285714","7.31","2.17","709.205","0","1.31","30.0562","4.73271","41.81","0","SATNPRO1963","27.498","0.38512","5"],
    [45300,"HCEP03730564","2025-01-12 04:15:00","10.8334","3.39113","27.933","3.654285714285714","7.31","2.172","704.485","0","0.69","30.051","4.73181","39.96","0","SATNPRO1963","27.094","0.37948","5"],
    [45301,"HCEP03730564","2025-01-12 04:30:00","10.8351","3.39092","28","3.557142857142857","7.3","2.049","763.719","0","0.84","30.0476","4.73129","38.9","0","SATNPRO1963","27.259999999999998","0.3818","5"],
    [45302,"HCEP03730564","2025-01-12 04:45:00","10.8343","3.39053","28.016","3.517142857142857","7.29","2.172","710.057","0","1.24","30.0443","4.73085","38.47","0","SATNPRO1963","26.934","0.37728","5"],
    [45303,"HCEP03730564","2025-01-12 05:00:00","10.8304","3.39003","28.034","3.508571428571428","7.29","2.175","704.716","0","0.27","30.0426","4.73066","38.37","0","SATNPRO1963","26.9","0.37682","5"],
    [45304,"HCEP03730564","2025-01-12 05:15:00","10.8259","3.38952","28.04","3.534285714285715","7.29","2.073","759.477","0","0.86","30.0413","4.73055","38.64","0","SATNPRO1963","27.04","0.37876","5"],
    [45305,"HCEP03730564","2025-01-12 05:30:00","10.8229","3.38948","28.048","3.56","7.29","2.176","708.327","0","1.2","30.0433","4.73088","38.93","0","SATNPRO1963","26.898","0.3767","5"],
    [45306,"HCEP03730564","2025-01-12 05:45:00","10.8091","3.3888","28.044","3.622857142857143","7.3","2.178","703.472","0","0","30.048","4.73177","39.59","0","SATNPRO1963","27.242","0.3816","5"],
    [45307,"HCEP03730564","2025-01-12 06:00:00","10.7969","3.38687","28.014","3.734285714285714","7.3","2.056","758.587","0","0.81","30.039","4.73067","40.8","0","SATNPRO1963","26.962","0.37764","5"],
    [45308,"HCEP03730564","2025-01-12 06:15:00","10.7721","3.38111","28.086","3.852857142857143","7.3","2.173","697.148","0","1.07","30.0026","4.7259","42.07","0","SATNPRO1963","27.21","0.38112","5"],
    [45309,"HCEP03730564","2025-01-12 06:30:00","10.7792","3.38257","28.021","3.947142857142857","7.31","2.174","692.132","0","0","30.0112","4.727","43.11","0","SATNPRO1963","27.014","0.3784","5"],
    [45310,"HCEP03730564","2025-01-12 06:45:00","10.7925","3.38527","27.95","3.95","7.31","2.071","756.338","0","0.96","30.0269","4.72903","43.16","0","SATNPRO1963","27.272000000000002","0.38196","5"],
    [45311,"HCEP03730564","2025-01-12 07:00:00","10.7869","3.38415","27.89","3.921428571428572","7.31","2.167","694.519","0","1.08","30.0205","4.7282","42.83","0","SATNPRO1963","27.233999999999998","0.38148","5"],
    [45312,"HCEP03730564","2025-01-12 07:15:00","10.7959","3.38595","27.794","3.914285714285715","7.31","2.17","689.457","0","0","30.0308","4.72951","42.77","0","SATNPRO1963","27.292","0.3823","5"],
    [45313,"HCEP03730564","2025-01-12 07:30:00","10.7999","3.38656","27.711","3.872857142857143","7.31","2.056","750.117","0","0.92","30.0336","4.72985","42.31","0","SATNPRO1963","27.264","0.3819","5"],
    [45314,"HCEP03730564","2025-01-12 07:45:00","10.8111","3.38814","27.625","3.812857142857143","7.3","2.147","697.699","0.01","1.17","30.04","4.73057","41.67","0","SATNPRO1963","27.418","0.38402","5"],
    [45315,"HCEP03730564","2025-01-12 08:00:00","10.7963","3.38573","27.612","3.784285714285714","7.31","2.145","692.845","0","0.27","30.0285","4.72916","41.34","0","SATNPRO1963","27.212","0.38118","5"],
    [45316,"HCEP03730564","2025-01-12 08:15:00","10.8038","3.38729","27.511","3.81","7.3","2.042","748.28","0","0.58","30.0376","4.73034","41.64","0","SATNPRO1963","26.988","0.37804","5"],
    [45317,"HCEP03730564","2025-01-12 08:30:00","10.8078","3.38775","27.347","3.781428571428571","7.3","2.139","674.683","0.01","1.37","30.0389","4.73046","41.33","0","SATNPRO1963","27.44","0.38436","5"],
    [45318,"HCEP03730564","2025-01-12 08:45:00","10.8089","3.38751","27.236","3.741428571428572","7.31","2.14","669.514","0","0.38","30.0357","4.72997","40.89","0","SATNPRO1963","27.97","0.39178","5"],
    [45319,"HCEP03730564","2025-01-12 09:00:00","10.7951","3.38492","27.163","3.738571428571428","7.3","1.996","744.88","0","1.05","30.0216","4.72818","40.85","0","SATNPRO1963","27.046","0.37878","5"],
    [45320,"HCEP03730564","2025-01-12 09:15:00","10.7983","3.38558","27.112","3.797142857142857","7.3","2.116","670.073","0","1.34","30.0256","4.72869","41.48","0","SATNPRO1963","27.114","0.37978","5"],
    [45321,"HCEP03730564","2025-01-12 09:30:00","10.7924","3.3846","27.067","3.794285714285714","7.31","2.116","665.101","0","0","30.0208","4.7281","41.45","0","SATNPRO1963","27.304000000000002","0.38242","5"],
    [45322,"HCEP03730564","2025-01-12 09:45:00","10.7897","3.38431","27.01","3.821428571428571","7.3","1.985","744.899","0","0.64","30.0202","4.72806","41.74","0","SATNPRO1963","27.22","0.38126","5"],
    [45323,"HCEP03730564","2025-01-12 10:00:00","10.7849","3.38394","26.976","3.855714285714285","7.3","2.129","661.809","0.01","1.17","30.0204","4.72817","42.12","0","SATNPRO1963","27.062","0.37902","5"],
    [45324,"HCEP03730564","2025-01-12 10:15:00","10.7812","3.3841","26.96","3.922857142857143","7.31","2.128","657.465","0","0","30.0251","4.72889","42.84","0","SATNPRO1963","26.986","0.378","5"],
    [45325,"HCEP03730564","2025-01-12 10:30:00","10.7763","3.38388","26.968","3.971428571428571","7.31","1.982","724.478","0","0.88","30.0269","4.72922","43.37","0","SATNPRO1963","27.352","0.38312","5"],
    [45326,"HCEP03730564","2025-01-12 10:45:00","10.7694","3.38364","27","4.035714285714286","7.31","2.131","648.378","0.01","0.94","30.0303","4.72981","44.07","0","SATNPRO1963","27.148","0.38024","5"],
    [45327,"HCEP03730564","2025-01-12 11:00:00","10.764","3.38345","27.024","4.077142857142857","7.32","2.131","643.963","0","0","30.0327","4.73025","44.51","0","SATNPRO1963","27.002","0.37822","5"],
    [45328,"HCEP03730564","2025-01-12 11:15:00","10.7617","3.38385","27.034","4.145714285714286","7.32","1.996","719.661","0.01","1.15","30.0386","4.73111","45.27","0","SATNPRO1963","27.01","0.37834","5"],
    [45329,"HCEP03730564","2025-01-12 11:30:00","10.7575","3.38349","27.096","4.174285714285714","7.32","2.124","635.932","0.01","0.84","30.0385","4.73117","45.57","0","SATNPRO1963","27.102","0.37964","5"],
    [45330,"HCEP03730564","2025-01-12 11:45:00","10.7589","3.38385","27.131","4.221428571428572","7.33","2.124","632.171","0","0","30.0409","4.73149","46.09","0","SATNPRO1963","27.05","0.37888","5"],
    [45331,"HCEP03730564","2025-01-12 12:00:00","10.7589","3.3841","27.227","4.224285714285714","7.33","1.997","704.117","0","0.79","30.0432","4.73182","46.12","0","SATNPRO1963","27.066","0.37914","5"],
    [45332,"HCEP03730564","2025-01-12 12:15:00","10.7545","3.38355","27.272","4.247142857142857","7.33","2.129","638.835","0.01","0.88","30.0415","4.73165","46.37","0","SATNPRO1963","27.248","0.38166","5"],
    [45333,"HCEP03730564","2025-01-12 12:30:00","10.754","3.38386","27.326","4.282857142857143","7.34","2.131","634.453","0","0","30.0448","4.73214","46.76","0","SATNPRO1963","27.27","0.38194","5"],
    [45334,"HCEP03730564","2025-01-12 12:45:00","10.758","3.38487","27.389","4.298571428571429","7.33","2.029","692.973","0","0.61","30.0515","4.73302","46.93","0","SATNPRO1963","27.266","0.38192","5"],
    [45335,"HCEP03730564","2025-01-12 13:00:00","10.7573","3.38499","27.466","4.288571428571428","7.33","2.138","646.108","0","1.45","30.0533","4.7333","46.83","0","SATNPRO1963","27.214","0.38116","5"],
    [45336,"HCEP03730564","2025-01-12 13:15:00","10.7621","3.38586","27.467","4.281428571428571","7.34","2.139","641.515","0","0.19","30.0579","4.73387","46.74","0","SATNPRO1963","27.312","0.38254","5"],
    [45337,"HCEP03730564","2025-01-12 13:30:00","10.7589","3.38571","27.564","4.265714285714286","7.34","2.032","700.187","0","0.98","30.059","4.73408","46.58","0","SATNPRO1963","27.182","0.38078","5"],
    [45338,"HCEP03730564","2025-01-12 13:45:00","10.7514","3.38504","27.617","4.288571428571428","7.33","2.125","629.005","0","1.52","30.0585","4.73415","46.81","0","SATNPRO1963","27.54","0.38572","5"],
    [45339,"HCEP03730564","2025-01-12 14:00:00","10.7393","3.38388","27.641","4.344285714285714","7.34","2.126","624.455","0","0.27","30.057","4.73411","47.41","0","SATNPRO1963","27.36","0.38324","5"],
    [45340,"HCEP03730564","2025-01-12 14:15:00","10.7416","3.38423","27.674","4.397142857142857","7.34","2.021","681.601","0","0.79","30.0586","4.73431","47.99","0","SATNPRO1963","27.49","0.385","5"],
    [45341,"HCEP03730564","2025-01-12 14:30:00","10.7297","3.38272","27.678","4.418571428571429","7.34","2.132","636.449","0","0.84","30.0534","4.73376","48.22","0","SATNPRO1963","27.6","0.38658","5"],
    [45342,"HCEP03730564","2025-01-12 14:45:00","10.7141","3.38091","27.728","4.48","7.35","2.134","632.084","0","0","30.0484","4.7333","48.87","0","SATNPRO1963","27.51","0.38534","5"],
    [45343,"HCEP03730564","2025-01-12 15:00:00","10.6954","3.37889","27.728","4.582857142857144","7.35","2.017","683.507","0","0.61","30.0438","4.73294","49.98","0","SATNPRO1963","27.538","0.38572","5"],
    [45344,"HCEP03730564","2025-01-12 15:15:00","10.6862","3.37778","27.708","4.682857142857143","7.35","2.144","646.54","0","1.07","30.0405","4.73261","51.05","0","SATNPRO1963","27.756","0.3888","5"],
    [45345,"HCEP03730564","2025-01-12 15:30:00","10.6763","3.3766","27.666","4.747142857142857","7.37","2.145","641.762","0","0.43","30.037","4.73227","51.73","0","SATNPRO1963","27.472","0.3848","5"],
    [45346,"HCEP03730564","2025-01-12 15:45:00","10.6716","3.37603","27.637","4.797142857142857","7.37","2.045","697.515","0","0.66","30.0352","4.73209","52.28","0","SATNPRO1963","27.568","0.38614","5"],
    [45347,"HCEP03730564","2025-01-12 16:00:00","10.6679","3.37554","27.556","4.822857142857143","7.36","2.151","651.309","0","1.2","30.0335","4.7319","52.55","0","SATNPRO1963","27.722","0.38832","5"],
    [45348,"HCEP03730564","2025-01-12 16:15:00","10.6674","3.37553","27.473","4.842857142857143","7.38","2.153","646.469","0","0.72","30.0338","4.73195","52.76","0","SATNPRO1963","27.346","0.38304","5"],
    [45349,"HCEP03730564","2025-01-12 16:30:00","10.6658","3.37533","27.403","4.842857142857143","7.37","2.041","684.569","0","0","30.0332","4.73188","52.76","0","SATNPRO1963","27.434","0.38422","5"],
    [45350,"HCEP03730564","2025-01-12 16:45:00","10.6649","3.37515","27.312","4.841428571428572","7.37","2.153","649.228","0","0.9","30.0322","4.73175","52.74","0","NA",null,null,null],
    [45351,"HCEP03730564","2025-01-12 17:00:00","10.6636","3.37497","27.167","4.832857142857143","7.38","2.153","644.219","0","0","30.0316","4.73168","52.65","0","SATNPRO1963","27.236","0.3815","5"],
    [45352,"HCEP03730564","2025-01-12 17:15:00","10.6627","3.37488","26.987","4.837142857142857","7.37","2.046","690.78","0","0.19","30.0314","4.73166","52.7","0","SATNPRO1963","27.708000000000002","0.38808","5"],
    [45353,"HCEP03730564","2025-01-12 17:30:00","10.6632","3.37499","26.791","4.832857142857143","7.37","2.159","641.85","0","1.17","30.0323","4.73176","52.66","0","SATNPRO1963","27.604","0.38668","5"],
    [45354,"HCEP03730564","2025-01-12 17:45:00","10.6628","3.37498","26.577","4.842857142857143","7.38","2.16","636.773","0","0.38","30.0326","4.7318","52.75","0","SATNPRO1963","27.424","0.38412","5"],
    [45355,"HCEP03730564","2025-01-12 18:00:00","10.6636","3.37508","26.344","4.841428571428572","7.38","2.055","687.616","0","0.47","30.033","4.73183","52.74","0","SATNPRO1963","27.632","0.38706","5"],
    [45356,"HCEP03730564","2025-01-12 18:15:00","10.6609","3.37486","26.114","4.842857142857143","7.38","2.15","653.234","0.01","1.49","30.0331","4.73188","52.76","0","SATNPRO1963","27.606","0.38668","5"],
    [45357,"HCEP03730564","2025-01-12 18:30:00","10.6641","3.37528","25.877","4.851428571428571","7.38","2.15","647.591","0","0.51","30.0347","4.73203","52.86","0","SATNPRO1963","27.722","0.3883","5"],
    [45358,"HCEP03730564","2025-01-12 18:45:00","10.6654","3.37544","25.646","4.837142857142857","7.38","2.039","704.219","0","0.81","30.0354","4.7321","52.7","0","SATNPRO1963","27.654","0.38734","5"],
    [45359,"HCEP03730564","2025-01-12 19:00:00","10.6672","3.37571","25.41","4.838571428571429","7.38","2.151","637.879","0.01","1.03","30.0367","4.73224","52.72","0","SATNPRO1963","27.62","0.38688","5"],
    [45360,"HCEP03730564","2025-01-12 19:15:00","10.6704","3.37609","25.187","4.824285714285714","7.38","2.151","633.018","0","0.47","30.0378","4.73234","52.57","0","SATNPRO1963","27.592000000000002","0.38646","5"],
    [45361,"HCEP03730564","2025-01-12 19:30:00","10.6746","3.37655","24.976","4.801428571428572","7.38","2.043","703.684","0","0.19","30.039","4.73243","52.32","0","SATNPRO1963","27.386","0.38356","5"],
    [45362,"HCEP03730564","2025-01-12 19:45:00","10.6798","3.3771","24.738","4.768571428571429","7.37","2.145","642.369","0","0.92","30.0402","4.7325","51.97","0","SATNPRO1963","27.546","0.38584","5"],
    [45363,"HCEP03730564","2025-01-12 20:00:00","10.6849","3.37767","24.505","4.732857142857143","7.38","2.145","638.019","0","0","30.0417","4.73263","51.59","0","SATNPRO1963","27.42","0.38406","5"],
    [45364,"HCEP03730564","2025-01-12 20:15:00","10.6915","3.37836","24.285","4.694285714285715","7.37","2.018","694.702","0","0.79","30.0433","4.73273","51.17","0","SATNPRO1963","27.746000000000002","0.3886","5"],
    [45365,"HCEP03730564","2025-01-12 20:30:00","10.6952","3.37881","24.097","4.66","7.37","2.15","650.05","0","1.07","30.0446","4.73285","50.81","0","SATNPRO1963","27.428","0.3842","5"],
    [45366,"HCEP03730564","2025-01-12 20:45:00","10.7014","3.37943","23.947","4.637142857142857","7.38","2.151","645.189","0","0.19","30.0457","4.7329","50.56","0","SATNPRO1963","27.63","0.38698","5"],
    [45367,"HCEP03730564","2025-01-12 21:00:00","10.7079","3.3804","23.814","4.597142857142857","7.37","2.048","709.732","0.01","1.29","30.05","4.7334","50.14","0","SATNPRO1963","27.458","0.3846","5"],
    [45368,"HCEP03730564","2025-01-12 21:15:00","10.7142","3.38098","23.71","4.55","7.37","2.144","659.542","0","1","30.0506","4.73338","49.63","0","SATNPRO1963","27.528","0.38556","5"],
    [45369,"HCEP03730564","2025-01-12 21:30:00","10.715","3.38096","23.64","4.505714285714285","7.37","2.146","654.885","0","0","30.0498","4.73325","49.14","0","SATNPRO1963","27.508","0.38534","5"],
    [45370,"HCEP03730564","2025-01-12 21:45:00","10.7168","3.38116","23.621","4.487142857142858","7.36","2.052","707.744","0","0.74","30.0504","4.7333","48.95","0","SATNPRO1963","27.626","0.38696","5"],
    [45371,"HCEP03730564","2025-01-12 22:00:00","10.7191","3.38149","23.655","4.47","7.36","2.154","655.677","0","1.27","30.0517","4.73345","48.76","0","SATNPRO1963","27.27","0.38196","5"],
    [45372,"HCEP03730564","2025-01-12 22:15:00","10.7312","3.38274","23.671","4.451428571428572","7.37","2.157","650.927","0","0","30.054","4.7336","48.57","0","SATNPRO1963","27.514","0.38534","5"],
    [45373,"HCEP03730564","2025-01-12 22:30:00","10.736","3.38331","23.711","4.402857142857143","7.36","2.063","719.698","0","1.2","30.0557","4.73376","48.05","0","SATNPRO1963","27.502","0.38524","5"],
    [45374,"HCEP03730564","2025-01-12 22:45:00","10.7479","3.38477","23.827","4.317142857142857","7.35","2.156","681.692","0","1.27","30.0602","4.73422","47.13","0","SATNPRO1963","27.11","0.37968","5"],
    [45375,"HCEP03730564","2025-01-12 23:00:00","10.7536","3.38538","23.925","4.255714285714286","7.35","2.158","677.337","0","0","30.0615","4.73432","46.47","0","SATNPRO1963","27.446","0.38442","5"],
    [45376,"HCEP03730564","2025-01-12 23:15:00","10.7615","3.38622","24.06","4.211428571428572","7.35","2.076","726.565","0","0.72","30.0633","4.73445","45.99","0","SATNPRO1963","27.37","0.38334","5"],
    [45377,"HCEP03730564","2025-01-12 23:30:00","10.768","3.38704","24.215","4.172857142857143","7.34","2.164","686.961","0","1.3","30.066","4.73474","45.58","0","SATNPRO1963","27.414","0.38396","5"],
    [45378,"HCEP03730564","2025-01-12 23:45:00","10.7749","3.38796","24.391","4.117142857142857","7.34","2.166","681.13","0","0","30.0692","4.7351","44.97","0","SATNPRO1963","27.34","0.38294","5"],
    [45379,"HCEP03730564","2025-01-13 00:00:00","10.7858","3.38895","24.575","4.044285714285714","7.33","2.07","725.18","0","0.74","30.07","4.73506","44.19","0","SATNPRO1963","27.092","0.37946","5"],
    [45380,"HCEP03730564","2025-01-13 00:15:00","10.7913","3.38944","24.802","3.96","7.33","2.167","679.826","0","1.58","30.0701","4.735","43.27","0","SATNPRO1963","27.224","0.3813","5"],
    [45381,"HCEP03730564","2025-01-13 00:30:00","10.7957","3.38958","25.04","3.901428571428571","7.33","2.17","674.61","0","0.19","30.0678","4.73462","42.64","0","SATNPRO1963","27.36","0.3832","5"],
    [45382,"HCEP03730564","2025-01-13 00:45:00","10.7978","3.38977","25.252","3.857142857142858","7.32","2.067","732.224","0","0.69","30.0679","4.73461","42.15","0","SATNPRO1963","27.442","0.38436","5"],
    [45383,"HCEP03730564","2025-01-13 01:00:00","10.7986","3.38975","25.497","3.847142857142857","7.32","2.159","705.022","0.01","1.85","30.0669","4.73447","42.04","0","SATNPRO1963","27.43","0.38426","5"],
    [45384,"HCEP03730564","2025-01-13 01:15:00","10.7989","3.38964","25.712","3.838571428571428","7.32","2.161","699.213","0","0","30.0656","4.73429","41.95","0","SATNPRO1963","27.234","0.3815","5"],
    [45385,"HCEP03730564","2025-01-13 01:30:00","10.7983","3.38947","25.95","3.821428571428571","7.32","2.075","724.805","0","0.74","30.0643","4.73413","41.77","0","SATNPRO1963","27.33","0.38278","5"],
    [45386,"HCEP03730564","2025-01-13 01:45:00","10.7958","3.38891","26.188","3.812857142857143","7.31","2.167","693.842","0","1.45","30.0606","4.73366","41.67","0","SATNPRO1963","27.308","0.3825","5"],
    [45387,"HCEP03730564","2025-01-13 02:00:00","10.7957","3.38876","26.443","3.822857142857143","7.32","2.171","688.655","0","0","30.0592","4.73347","41.78","0","SATNPRO1963","27.3","0.3824","5"],
    [45388,"HCEP03730564","2025-01-13 02:15:00","10.7963","3.3885","26.694","3.808571428571429","7.32","2.063","741.355","0","0.84","30.0561","4.73304","41.61","0","SATNPRO1963","27.44","0.38434","5"],
    [45389,"HCEP03730564","2025-01-13 02:30:00","10.7964","3.38845","26.886","3.794285714285714","7.31","2.17","690.224","0","1.37","30.0554","4.73295","41.46","0","SATNPRO1963","27.236","0.38154","5"],
    [45390,"HCEP03730564","2025-01-13 02:45:00","10.7958","3.38813","27.068","3.782857142857143","7.32","2.171","685.332","0","0.47","30.0527","4.73258","41.34","0","SATNPRO1963","27.492","0.3851","5"],
    [45391,"HCEP03730564","2025-01-13 03:00:00","10.7951","3.38788","27.263","3.778571428571428","7.31","2.078","731.256","0","0.94","30.0508","4.73233","41.29","0","SATNPRO1963","27.474","0.38486","5"],
    [45392,"HCEP03730564","2025-01-13 03:15:00","10.7953","3.38782","27.433","3.771428571428572","7.31","2.163","685.824","0","1.3","30.0499","4.73221","41.22","0","SATNPRO1963","27.336","0.38292","5"],
    [45393,"HCEP03730564","2025-01-13 03:30:00","10.7964","3.38807","27.591","3.771428571428572","7.32","2.165","680.839","0","0.51","30.0513","4.73241","41.2","0","SATNPRO1963","27.36","0.38324","5"],
    [45394,"HCEP03730564","2025-01-13 03:45:00","10.7979","3.38816","27.737","3.755714285714286","7.31","2.049","725.498","0","1.18","30.051","4.73235","41.03","0","SATNPRO1963","27.396","0.38368","5"],
    [45395,"HCEP03730564","2025-01-13 04:00:00","10.7987","3.38834","27.853","3.737142857142858","7.31","2.149","685.269","0.01","1.23","30.0521","4.73249","40.83","0","SATNPRO1963","27.34","0.38294","5"],
    [45396,"HCEP03730564","2025-01-13 04:15:00","10.7992","3.38848","27.941","3.728571428571429","7.32","2.15","680.169","0","0.43","30.053","4.73263","40.75","0","SATNPRO1963","27.258","0.3818","5"],
    [45397,"HCEP03730564","2025-01-13 04:30:00","10.7999","3.3887","28.063","3.725714285714286","7.31","2.046","718.636","0","0.98","30.0545","4.73284","40.72","0","SATNPRO1963","27.318","0.38262","5"],
    [45398,"HCEP03730564","2025-01-13 04:45:00","10.8","3.38867","28.146","3.72","7.3","2.133","679.011","0.01","1.24","30.0542","4.73279","40.65","0","SATNPRO1963","27.34","0.38292","5"],
    [45399,"HCEP03730564","2025-01-13 05:00:00","10.8026","3.38911","28.207","3.718571428571429","7.31","2.135","674.258","0","0.38","30.0563","4.73305","40.64","0","NA",null,null,null],
    [45400,"HCEP03730564","2025-01-13 05:15:00","10.8051","3.38946","28.226","3.681428571428572","7.31","2.025","717.789","0","0.9","30.0576","4.7332","40.23","0","SATNPRO1963","27.184","0.38076","5"],
    [45401,"HCEP03730564","2025-01-13 05:30:00","10.8057","3.38956","28.199","3.647142857142857","7.3","2.139","655.286","0.01","1.26","30.0582","4.73327","39.87","0","SATNPRO1963","27.302","0.38238","5"],
    [45402,"HCEP03730564","2025-01-13 05:45:00","10.8056","3.38956","28.124","3.628571428571429","7.31","2.142","650.502","0","0.61","30.0582","4.73328","39.66","0","SATNPRO1963","27.152","0.38032","5"],
    [45403,"HCEP03730564","2025-01-13 06:00:00","10.8054","3.38941","28.012","3.617142857142857","7.3","1.983","718.449","0","0.86","30.057","4.7331","39.54","0","SATNPRO1963","27.08","0.3793","5"],
    [45404,"HCEP03730564","2025-01-13 06:15:00","10.8053","3.3894","27.985","3.608571428571428","7.3","2.116","642.977","0","1.4","30.057","4.7331","39.44","0","SATNPRO1963","27.424","0.3841","5"],
    [45405,"HCEP03730564","2025-01-13 06:30:00","10.8049","3.38922","27.974","3.602857142857143","7.31","2.117","638.168","0","0","30.0556","4.7329","39.38","0","SATNPRO1963","27.466","0.38468","5"],
    [45406,"HCEP03730564","2025-01-13 06:45:00","10.8034","3.38912","27.932","3.607142857142857","7.31","1.994","699.214","0","1.55","30.0559","4.73296","39.42","0","SATNPRO1963","27.04","0.37874","5"],
    [45407,"HCEP03730564","2025-01-13 07:00:00","10.8017","3.38896","27.905","3.62","7.3","2.126","647.45","0.01","1.3","30.0557","4.73297","39.57","0","SATNPRO1963","27.508","0.3853","5"],
    [45408,"HCEP03730564","2025-01-13 07:15:00","10.7988","3.38889","27.863","3.658571428571428","7.31","2.127","643.029","0","0.38","30.0574","4.73324","39.98","0","SATNPRO1963","27.344","0.38298","5"],
    [45409,"HCEP03730564","2025-01-13 07:30:00","10.7954","3.38876","27.822","3.69","7.31","2.013","713.198","0","0.98","30.0589","4.73351","40.32","0","SATNPRO1963","27.316","0.3826","5"],
    [45410,"HCEP03730564","2025-01-13 07:45:00","10.7949","3.38843","27.755","3.727142857142857","7.3","2.122","619.604","0","1.79","30.0561","4.73312","40.72","0","SATNPRO1963","27.484","0.38496","5"],
    [45411,"HCEP03730564","2025-01-13 08:00:00","10.7951","3.38821","27.681","3.748571428571429","7.31","2.127","614.286","0","0","30.0538","4.73278","40.96","0","SATNPRO1963","27.43","0.3842","5"],
    [45412,"HCEP03730564","2025-01-13 08:15:00","10.7909","3.38835","27.61","3.762857142857143","7.31","2.025","660.952","0","1.47","30.0587","4.73354","41.12","0","SATNPRO1963","27.186","0.3808","5"],
    [45413,"HCEP03730564","2025-01-13 08:30:00","10.7904","3.3882","27.532","3.775714285714285","7.3","2.139","630.269","0","1.12","30.0576","4.7334","41.26","0","SATNPRO1963","27.688","0.38784","5"],
    [45414,"HCEP03730564","2025-01-13 08:45:00","10.7893","3.38816","27.449","3.782857142857143","7.31","2.141","625.697","0","0.33","30.0582","4.73348","41.34","0","SATNPRO1963","27.412","0.38394","5"],
    [45415,"HCEP03730564","2025-01-13 09:00:00","10.7875","3.38798","27.373","3.794285714285714","7.31","2.04","686.897","0","0.77","30.0579","4.73347","41.45","0","SATNPRO1963","27.418","0.38404","5"],
    [45416,"HCEP03730564","2025-01-13 09:15:00","10.7869","3.38783","27.298","3.814285714285714","7.3","2.129","658.678","0.01","1.92","30.0569","4.73334","41.68","0","SATNPRO1963","27.628","0.38696","5"],
    [45417,"HCEP03730564","2025-01-13 09:30:00","10.7853","3.38763","27.219","3.83","7.31","2.13","653.428","0","0","30.0563","4.73327","41.84","0","SATNPRO1963","27.828","0.38976","5"],
    [45418,"HCEP03730564","2025-01-13 09:45:00","10.782","3.38711","27.142","3.854285714285714","7.31","2.051","674.502","0","0.96","30.0539","4.73298","42.11","0","SATNPRO1963","27.65","0.38726","5"],
    [45419,"HCEP03730564","2025-01-13 10:00:00","10.7771","3.38658","27.068","3.888571428571429","7.31","2.138","642.07","0","1.42","30.0528","4.73289","42.47","0","SATNPRO1963","27.492","0.38508","5"],
    [45420,"HCEP03730564","2025-01-13 10:15:00","10.7705","3.38592","27.009","3.924285714285714","7.32","2.141","636.677","0","0.38","30.0517","4.73284","42.86","0","SATNPRO1963","27.326","0.38272","5"],
    [45421,"HCEP03730564","2025-01-13 10:30:00","10.768","3.38552","26.963","3.942857142857143","7.32","2.019","684.597","0","0.84","30.0499","4.73262","43.05","0","SATNPRO1963","27.452","0.38452","5"],
    [45422,"HCEP03730564","2025-01-13 10:45:00","10.7629","3.38508","26.926","3.958571428571429","7.31","2.132","646.505","0","1.2","30.0497","4.73267","43.22","0","SATNPRO1963","27.292","0.3823","5"],
    [45423,"HCEP03730564","2025-01-13 11:00:00","10.748","3.38292","26.901","3.991428571428572","7.32","2.133","641.806","0","0.47","30.0407","4.73162","43.57","0","SATNPRO1963","27.592","0.38646","5"],
    [45424,"HCEP03730564","2025-01-13 11:15:00","10.7624","3.3848","26.899","4.051428571428572","7.32","2.04","689.284","0","0.66","30.0474","4.73235","44.24","0","SATNPRO1963","27.34","0.38296","5"],
    [45425,"HCEP03730564","2025-01-13 11:30:00","10.7508","3.38328","26.913","4","7.32","2.139","628.29","0","1.31","30.0419","4.73175","43.66","0","SATNPRO1963","27.154","0.38032","5"],
    [45426,"HCEP03730564","2025-01-13 11:45:00","10.7466","3.38282","26.957","4.041428571428572","7.33","2.14","623.379","0","0.38","30.0408","4.73166","44.11","0","SATNPRO1963","27.016","0.37844","5"],
    [45427,"HCEP03730564","2025-01-13 12:00:00","10.735900000000001","3.38142","27.006","4.07","7.33","2.037","666.382","0","0.66","30.0358","4.73113","44.42","0","SATNPRO1963","27.35","0.3831","5"],
    [45428,"HCEP03730564","2025-01-13 12:15:00","10.7217","3.37988","27.036","4.155714285714286","7.33","2.14","645.683","0","1.08","30.0323","4.73085","45.33","0","SATNPRO1963","27.541999999999998","0.3858","5"],
    [45429,"HCEP03730564","2025-01-13 12:30:00","10.7124","3.37894","27.101","4.267142857142858","7.34","2.143","640.574","0","0.19","30.0306","4.73076","46.55","0","SATNPRO1963","27.506","0.3853","5"],
    [45430,"HCEP03730564","2025-01-13 12:45:00","10.7017","3.37781","27.187","4.357142857142857","7.34","2.033","685.805","0","0.84","30.0283","4.7306","47.51","0","SATNPRO1963","27.496","0.38514","5"],
    [45431,"HCEP03730564","2025-01-13 13:00:00","10.6933","3.3769","27.252","4.442857142857143","7.35","2.127","646.849","0","1.49","30.0261","4.73043","48.43","0","SATNPRO1963","27.75","0.38868","5"],
    [45432,"HCEP03730564","2025-01-13 13:15:00","10.6891","3.37638","27.327","4.502857142857144","7.36","2.128","642.237","0","0","30.0244","4.73027","49.09","0","SATNPRO1963","27.602","0.38664","5"],
    [45433,"HCEP03730564","2025-01-13 13:30:00","10.6863","3.37584","27.396","4.532857142857143","7.36","2.026","686.26","0","1.08","30.0214","4.72988","49.41","0","SATNPRO1963","27.52","0.38546","5"],
    [45434,"HCEP03730564","2025-01-13 13:45:00","10.6815","3.37524","27.472","4.535714285714286","7.36","2.131","633.98","0","0.98","30.0194","4.72968","49.44","0","SATNPRO1963","27.471999999999998","0.38482","5"],
    [45435,"HCEP03730564","2025-01-13 14:00:00","10.6758","3.37462","27.548","4.567142857142858","7.36","2.132","629.239","0","0.33","30.0179","4.72956","49.77","0","SATNPRO1963","27.701999999999998","0.38802","5"],
    [45436,"HCEP03730564","2025-01-13 14:15:00","10.6743","3.37435","27.644","4.592857142857142","7.36","1.998","694.674","0","0.96","30.0165","4.72939","50.04","0","SATNPRO1963","27.826","0.38974","5"],
    [45437,"HCEP03730564","2025-01-13 14:30:00","10.6717","3.37392","27.703","4.614285714285715","7.36","2.129","630.094","0.01","1.03","30.0143","4.72913","50.28","0","SATNPRO1963","27.678","0.38764","5"],
    [45438,"HCEP03730564","2025-01-13 14:45:00","10.6721","3.374","27.778","4.638571428571429","7.37","2.131","625.862","0","0.51","30.0148","4.7292","50.53","0","SATNPRO1963","27.58","0.38632","5"],
    [45439,"HCEP03730564","2025-01-13 15:00:00","10.6717","3.374","27.824","4.638571428571429","7.36","2.007","698.91","0","0.98","30.0151","4.72925","50.53","0","SATNPRO1963","27.528","0.3856","5"],
    [45440,"HCEP03730564","2025-01-13 15:15:00","10.6717","3.37411","27.837","4.632857142857143","7.36","2.139","634.453","0","0.72","30.0162","4.72939","50.47","0","SATNPRO1963","27.908","0.39092","5"],
    [45441,"HCEP03730564","2025-01-13 15:30:00","10.6717","3.37403","27.847","4.625714285714285","7.37","2.14","630.207","0","0","30.0154","4.72928","50.4","0","SATNPRO1963","27.526","0.38552","5"],
    [45442,"HCEP03730564","2025-01-13 15:45:00","10.6708","3.3739","27.831","4.607142857142858","7.36","2.012","693.832","0","1","30.0148","4.72921","50.2","0","SATNPRO1963","27.726","0.38832","5"],
    [45443,"HCEP03730564","2025-01-13 16:00:00","10.6698","3.37373","27.814","4.597142857142857","7.36","2.14","635.179","0","0.61","30.014","4.72911","50.09","0","SATNPRO1963","27.744","0.3886","5"],
    [45444,"HCEP03730564","2025-01-13 16:15:00","10.6691","3.37365","27.763","4.594285714285714","7.37","2.142","631.141","0","0","30.0138","4.72909","50.05","0","SATNPRO1963","27.642","0.3872","5"],
    [45445,"HCEP03730564","2025-01-13 16:30:00","10.6684","3.37358","27.725","4.592857142857142","7.36","2.014","686.278","0","0.47","30.0137","4.72909","50.03","0","SATNPRO1963","27.566","0.38608","5"],
    [45446,"HCEP03730564","2025-01-13 16:45:00","10.6682","3.37349","27.639","4.59","7.36","2.141","628.369","0","1.03","30.013","4.72899","50","0","SATNPRO1963","27.554","0.38594","5"],
    [45447,"HCEP03730564","2025-01-13 17:00:00","10.6683","3.37349","27.549","4.587142857142857","7.37","2.144","623.648","0","0.33","30.0129","4.72897","49.97","0","SATNPRO1963","27.896","0.39072","5"],
    [45448,"HCEP03730564","2025-01-13 17:15:00","10.6681","3.37336","27.471","4.571428571428572","7.36","1.977","696.076","0","0.9","30.0119","4.72882","49.8","0","SATNPRO1963","27.566","0.3861","5"],
    [45449,"HCEP03730564","2025-01-13 17:30:00","10.6675","3.3733","27.364","4.567142857142858","7.36","2.125","623.935","0.01","1.03","30.0117","4.7288","49.75","0","SATNPRO1963","27.662","0.38746","5"],
    [45450,"HCEP03730564","2025-01-13 17:45:00","10.6672","3.37317","27.225","4.578571428571429","7.37","2.126","619.715","0","0.43","30.0108","4.72867","49.88","0","SATNPRO1963","27.526","0.38558","5"],
    [45451,"HCEP03730564","2025-01-13 18:00:00","10.6675","3.3731","27.054","4.587142857142857","7.36","2.007","684.742","0","0.69","30.0099","4.72853","49.98","0","SATNPRO1963","27.812","0.38954","5"],
    [45452,"HCEP03730564","2025-01-13 18:15:00","10.6668","3.37278","26.882","4.607142857142858","7.36","2.132","625.706","0","0.96","30.0075","4.72819","50.19","0","SATNPRO1963","27.54","0.38578","5"],
    [45453,"HCEP03730564","2025-01-13 18:30:00","10.6672","3.37272","26.708","4.602857142857143","7.37","2.133","621.438","0","0","30.0065","4.72803","50.14","0","SATNPRO1963","27.42","0.38404","5"],
    [45454,"HCEP03730564","2025-01-13 18:45:00","10.6679","3.37272","26.51","4.588571428571429","7.37","2.007","680.839","0","0.58","30.0061","4.72794","49.99","0","SATNPRO1963","27.642","0.38718","5"],
    [45455,"HCEP03730564","2025-01-13 19:00:00","10.6701","3.37315","26.317","4.585714285714285","7.36","2.136","618.686","0","0.92","30.0087","4.72827","49.97","0","SATNPRO1963","27.432","0.38424","5"],
    [45456,"HCEP03730564","2025-01-13 19:15:00","10.6722","3.37348","26.095","4.587142857142857","7.37","2.137","613.7","0","0.33","30.0102","4.72845","49.97","0","SATNPRO1963","27.742","0.38858","5"],
    [45457,"HCEP03730564","2025-01-13 19:30:00","10.6749","3.37389","25.863","4.578571428571429","7.37","1.969","678.458","0","0.9","30.0121","4.72866","49.89","0","SATNPRO1963","27.454","0.38454","5"],
    [45458,"HCEP03730564","2025-01-13 19:45:00","10.6824","3.37478","25.627","4.558571428571429","7.37","2.124","622.435","0.01","1.26","30.0148","4.72891","49.68","0","SATNPRO1963","27.42","0.38406","5"],
    [45459,"HCEP03730564","2025-01-13 20:00:00","10.6891","3.3757","25.388","4.522857142857143","7.38","2.125","617.77","0","0","30.0186","4.72932","49.3","0","SATNPRO1963","27.663999999999998","0.38744","5"],
    [45460,"HCEP03730564","2025-01-13 20:15:00","10.6951","3.37662","25.149","4.484285714285714","7.37","1.99","682.145","0","0.86","30.0227","4.72981","48.88","0","SATNPRO1963","27.658","0.3874","5"],
    [45461,"HCEP03730564","2025-01-13 20:30:00","10.698","3.3769","24.887","4.46","7.36","2.12","625.56","0","1.81","30.0232","4.72982","48.62","0","SATNPRO1963","27.47","0.38476","5"],
    [45462,"HCEP03730564","2025-01-13 20:45:00","10.6998","3.377","24.596","4.438571428571429","7.37","2.122","621.386","0","0","30.0229","4.72973","48.39","0","SATNPRO1963","27.35","0.38306","5"],
    [45463,"HCEP03730564","2025-01-13 21:00:00","10.7039","3.37725","24.359","4.405714285714286","7.36","2.003","688.236","0","0.98","30.0221","4.72953","48.04","0","SATNPRO1963","27.582","0.38632","5"],
    [45464,"HCEP03730564","2025-01-13 21:15:00","10.711","3.37822","24.151","4.358571428571428","7.36","2.121","635.214","0","0.77","30.0259","4.72995","47.53","0","SATNPRO1963","27.446","0.38444","5"],
    [45465,"HCEP03730564","2025-01-13 21:30:00","10.7242","3.37961","23.964","4.292857142857143","7.36","2.122","631.071","0","0","30.0288","4.73013","46.82","0","SATNPRO1963","27.198","0.38096","5"],
    [45466,"HCEP03730564","2025-01-13 21:45:00","10.726","3.37978","23.807","4.220000000000001","7.35","2.014","680.233","0","0.86","30.0291","4.73015","46.04","0","SATNPRO1963","27.488","0.385","5"],
    [45467,"HCEP03730564","2025-01-13 22:00:00","10.7336","3.38023","23.669","4.195714285714286","7.34","2.123","637.08","0","0.98","30.0273","4.72977","45.77","0","SATNPRO1963","27.572","0.38618","5"],
    [45468,"HCEP03730564","2025-01-13 22:15:00","10.7394","3.38093","23.582","4.148571428571429","7.35","2.126","633.202","0","0.58","30.0295","4.72998","45.27","0","SATNPRO1963","27.768","0.38896","5"],
    [45469,"HCEP03730564","2025-01-13 22:30:00","10.7459","3.38171","23.535","4.094285714285714","7.34","2.027","682.907","0","0.74","30.0318","4.7302","44.68","0","SATNPRO1963","27.663999999999998","0.38754","5"],
    [45470,"HCEP03730564","2025-01-13 22:45:00","10.7519","3.38241","23.524","4.03","7.34","2.108","633.002","0","1.78","30.0338","4.73039","43.99","0","SATNPRO1963","27.444","0.38444","5"],
    [45471,"HCEP03730564","2025-01-13 23:00:00","10.7542","3.38271","23.566","3.99","7.34","2.109","628.203","0","0","30.0349","4.73051","43.56","0","SATNPRO1963","27.548","0.38586","5"],
    [45472,"HCEP03730564","2025-01-13 23:15:00","10.7579","3.38299","23.71","3.968571428571429","7.34","1.994","693.12","0","1.49","30.0345","4.73041","43.33","0","SATNPRO1963","27.43","0.3842","5"],
    [45473,"HCEP03730564","2025-01-13 23:30:00","10.7614","3.38315","23.837","3.945714285714286","7.33","2.126","647.335","0","1.45","30.0332","4.73017","43.08","0","SATNPRO1963","27.439999999999998","0.38434","5"],
    [45474,"HCEP03730564","2025-01-13 23:45:00","10.7643","3.38339","23.952","3.92","7.33","2.128","642.096","0","0","30.0331","4.73013","42.8","0","SATNPRO1963","27.246","0.38162","5"],
    [45475,"HCEP03730564","2025-01-14 00:00:00","10.7695","3.38376","24.123","3.871428571428571","7.33","1.999","685.806","0","1.18","30.0324","4.72994","42.28","0","SATNPRO1963","27.596","0.38654","5"],
    [45476,"HCEP03730564","2025-01-14 00:15:00","10.7733","3.38404","24.292","3.82","7.32","2.129","646.117","0","1.68","30.032","4.72984","41.72","0","SATNPRO1963","27.65","0.38728","5"],
    [45477,"HCEP03730564","2025-01-14 00:30:00","10.7753","3.38415","24.496","3.787142857142857","7.33","2.132","640.908","0","0.33","30.0314","4.72973","41.36","0","SATNPRO1963","28.028","0.3926","5"],
    [45478,"HCEP03730564","2025-01-14 00:45:00","10.7776","3.3843","24.696","3.757142857142857","7.32","2.014","705.907","0","1.13","30.0309","4.72964","41.03","0","SATNPRO1963","27.564","0.38606","5"],
    [45479,"HCEP03730564","2025-01-14 01:00:00","10.7809","3.3847","24.89","3.73","7.31","2.121","652.977","0","1.66","30.032","4.72976","40.74","0","SATNPRO1963","27.738","0.38852","5"],
    [45480,"HCEP03730564","2025-01-14 01:15:00","10.7848","3.3852","25.102","3.695714285714286","7.31","2.122","648.502","0","0","30.0337","4.72994","40.37","0","SATNPRO1963","27.712","0.38816","5"],
    [45481,"HCEP03730564","2025-01-14 01:30:00","10.7872","3.38544","25.305","3.654285714285714","7.31","2.017","707.948","0","1.42","30.0339","4.72995","39.92","0","SATNPRO1963","27.466","0.38468","5"],
    [45482,"HCEP03730564","2025-01-14 01:45:00","10.7877","3.3854","25.542","3.622857142857143","7.3","2.12","662.185","0","1.79","30.0331","4.72984","39.57","0","SATNPRO1963","27.532","0.38562","5"],
    [45483,"HCEP03730564","2025-01-14 02:00:00","10.7877","3.38524","25.781","3.604285714285714","7.31","2.121","657.225","0","0","30.0314","4.72962","39.37","0","SATNPRO1963","27.104","0.37962","5"],
    [45484,"HCEP03730564","2025-01-14 02:15:00","10.7878","3.38515","26.022","3.597142857142857","7.3","1.987","726.059","0","1","30.0303","4.72947","39.3","0","SATNPRO1963","27.532","0.38562","5"],
    [45485,"HCEP03730564","2025-01-14 02:30:00","10.7882","3.38508","26.263","3.59","7.3","2.121","679.536","0","1.46","30.0292","4.72932","39.21","0","SATNPRO1963","27.524","0.38554","5"],
    [45486,"HCEP03730564","2025-01-14 02:45:00","10.7878","3.38503","26.512","3.578571428571428","7.3","2.123","674.98","0","0","30.029","4.72931","39.1","0","SATNPRO1963","27.206","0.38104","5"],
    [45487,"HCEP03730564","2025-01-14 03:00:00","10.7871","3.38489","26.734","3.581428571428572","7.3","2.017","723.879","0","0.92","30.0281","4.72921","39.12","0","SATNPRO1963","27.44","0.38434","5"],
    [45488,"HCEP03730564","2025-01-14 03:15:00","10.7874","3.38493","26.943","3.58","7.29","2.14","679.536","0","1.65","30.0281","4.72922","39.11","0","SATNPRO1963","27.314","0.38256","5"],
    [45489,"HCEP03730564","2025-01-14 03:30:00","10.788","3.38495","27.142","3.564285714285714","7.3","2.142","674.43","0","0.38","30.0278","4.72917","38.93","0","SATNPRO1963","27.292","0.38226","5"],
    [45490,"HCEP03730564","2025-01-14 03:45:00","10.789","3.38501","27.341","3.55","7.29","2.03","724.441","0","0.92","30.0275","4.72912","38.78","0","SATNPRO1963","27.354","0.38316","5"],
    [45491,"HCEP03730564","2025-01-14 04:00:00","10.7894","3.38488","27.494","3.542857142857143","7.29","2.139","677.943","0","1.5","30.0258","4.72889","38.71","0","SATNPRO1963","27.102","0.37962","5"],
    [45492,"HCEP03730564","2025-01-14 04:15:00","10.7887","3.38445","27.667","3.537142857142857","7.3","2.14","672.844","0","0","30.0221","4.72838","38.63","0","SATNPRO1963","27.464","0.3847","5"],
    [45493,"HCEP03730564","2025-01-14 04:30:00","10.7885","3.38411","27.834","3.538571428571428","7.29","2.029","723.964","0.01","0.81","30.0188","4.72792","38.65","0","SATNPRO1963","27.234","0.38148","5"],
    [45494,"HCEP03730564","2025-01-14 04:45:00","10.7876","3.38366","27.927","3.531428571428572","7.29","2.136","659.542","0.01","1.24","30.0151","4.72742","38.57","0","SATNPRO1963","27.506","0.38524","5"],
    [45495,"HCEP03730564","2025-01-14 05:00:00","10.786","3.38311","28.005","3.528571428571429","7.3","2.137","654.548","0","0","30.011","4.72687","38.54","0","SATNPRO1963","27.18","0.38072","5"],
    [45496,"HCEP03730564","2025-01-14 05:15:00","10.7856","3.38304","28.071","3.537142857142857","7.29","1.987","707.818","0","0.74","30.0106","4.72682","38.63","0","SATNPRO1963","27.298000000000002","0.38232","5"],
    [45497,"HCEP03730564","2025-01-14 05:30:00","10.7854","3.38305","28.127","3.534285714285715","7.29","2.119","649.077","0.01","1.08","30.0108","4.72685","38.6","0","SATNPRO1963","27.328","0.38276","5"],
    [45498,"HCEP03730564","2025-01-14 05:45:00","10.7866","3.38343","28.153","3.531428571428572","7.3","2.12","645.004","0","0.43","30.0136","4.72723","38.57","0","SATNPRO1963","27.42","0.38406","5"],
    [45499,"HCEP03730564","2025-01-14 06:00:00","10.7866","3.38366","28.095","3.524285714285714","7.29","2.014","692.607","0","0.9","30.0158","4.72755","38.5","0","SATNPRO1963","27.31","0.38252","5"],
    [45500,"HCEP03730564","2025-01-14 06:15:00","10.7879","3.38401","28.049","3.527142857142857","7.29","2.117","657.163","0","1.05","30.0182","4.72786","38.52","0","SATNPRO1963","27.308","0.38248","5"],
    [45501,"HCEP03730564","2025-01-14 06:30:00","10.7886","3.38437","28.028","3.525714285714286","7.3","2.119","652.71","0","0","30.0212","4.72828","38.51","0","SATNPRO1963","27.518","0.38544","5"],
    [45502,"HCEP03730564","2025-01-14 06:45:00","10.7889","3.38456","28.017","3.522857142857143","7.29","1.992","702.865","0","0.94","30.0228","4.7285","38.49","0","SATNPRO1963","27.372","0.38338","5"],
    [45503,"HCEP03730564","2025-01-14 07:00:00","10.7895","3.38487","28.016","3.522857142857143","7.29","2.105","629.161","0.01","0.9","30.0254","4.72885","38.49","0","SATNPRO1963","27.176","0.38064","5"],
    [45504,"HCEP03730564","2025-01-14 07:15:00","10.7899","3.3848","27.968","3.501428571428572","7.3","2.107","625.228","0","0.19","30.0245","4.72872","38.25","0","SATNPRO1963","27.266","0.38192","5"],
    [45505,"HCEP03730564","2025-01-14 07:30:00","10.7902","3.38475","27.924","3.487142857142857","7.29","1.986","706.562","0","0.64","30.0237","4.7286","38.09","0","SATNPRO1963","27.218","0.3812","5"],
    [45506,"HCEP03730564","2025-01-14 07:45:00","10.7905","3.38468","27.886","3.478571428571429","7.29","2.11","639.064","0","1.57","30.0228","4.72846","37.99","0","SATNPRO1963","27.346","0.38304","5"],
    [45507,"HCEP03730564","2025-01-14 08:00:00","10.7904","3.3846","27.827","3.478571428571429","7.29","2.114","634.619","0","0","30.0221","4.72837","37.99","0","SATNPRO1963","27.201999999999998","0.381","5"],
    [45508,"HCEP03730564","2025-01-14 08:15:00","10.791","3.38468","27.76","3.47","7.29","1.99","706.479","0","1.01","30.0224","4.7284","37.91","0","SATNPRO1963","27.282","0.38216","5"],
    [45509,"HCEP03730564","2025-01-14 08:30:00","10.79","3.38467","27.681","3.45","7.28","2.104","659.988","0.01","1.46","30.0232","4.72852","37.69","0","SATNPRO1963","27.392","0.38364","5"],
    [45510,"HCEP03730564","2025-01-14 08:45:00","10.7893","3.3847","27.595","3.458571428571428","7.29","2.105","655.107","0","0","30.0241","4.72865","37.79","0","SATNPRO1963","27.548000000000002","0.38586","5"],
    [45511,"HCEP03730564","2025-01-14 09:00:00","10.7893","3.38481","27.505","3.477142857142857","7.29","2.008","700.969","0","0.74","30.0252","4.7288","37.99","0","SATNPRO1963","27.502","0.38522","5"],
    [45512,"HCEP03730564","2025-01-14 09:15:00","10.7816","3.38356","27.422","3.51","7.28","2.127","641.032","0","1.34","30.0192","4.72806","38.33","0","SATNPRO1963","27.470000000000002","0.38478","5"],
    [45513,"HCEP03730564","2025-01-14 09:30:00","10.7764","3.38261","27.333","3.562857142857143","7.29","2.13","635.95","0","0","30.0142","4.72743","38.91","0","SATNPRO1963","27.688","0.38782","5"],
    [45514,"HCEP03730564","2025-01-14 09:45:00","10.7817","3.38391","27.245","3.584285714285714","7.29","1.994","705.316","0","0.98","30.0227","4.72855","39.14","0","SATNPRO1963","27.682","0.3877","5"],
    [45515,"HCEP03730564","2025-01-14 10:00:00","10.7833","3.38409","27.155","3.54","7.29","2.121","660.06","0","1.15","30.0231","4.72858","38.67","0","SATNPRO1963","27.240000000000002","0.38152","5"],
    [45516,"HCEP03730564","2025-01-14 10:15:00","10.7816","3.38375","27.075","3.521428571428571","7.3","2.124","655.641","0","0","30.0212","4.72834","38.46","0","SATNPRO1963","27.544","0.38582","5"],
    [45517,"HCEP03730564","2025-01-14 10:30:00","10.7552","3.3782","26.988","3.561428571428571","7.29","2.033","694.491","0","1.01","29.9883","4.72406","38.86","0","SATNPRO1963","27.462","0.38468","5"],
    [45518,"HCEP03730564","2025-01-14 10:45:00","10.774","3.38241","26.903","3.635714285714286","7.29","2.119","653.492","0","1.57","30.0143","4.72747","39.7","0","SATNPRO1963","27.282","0.38218","5"],
    [45519,"HCEP03730564","2025-01-14 11:00:00","10.7748","3.38263","26.832","3.578571428571428","7.3","2.121","648.581","0","0","30.0159","4.72768","39.07","0","SATNPRO1963","27.472","0.38476","5"],
    [45520,"HCEP03730564","2025-01-14 11:15:00","10.7738","3.38244","26.762","3.561428571428571","7.29","2.031","684.487","0","0.72","30.0149","4.72754","38.89","0","SATNPRO1963","27.465999999999998","0.38474","5"],
    [45521,"HCEP03730564","2025-01-14 11:30:00","10.7819","3.38401","26.72","3.562857142857143","7.29","2.126","633.281","0","1.27","30.0237","4.72867","38.91","0","SATNPRO1963","27.134","0.3801","5"],
    [45522,"HCEP03730564","2025-01-14 11:45:00","10.7834","3.38416","26.698","3.505714285714286","7.3","2.128","628.238","0","0","30.024","4.72867","38.29","0","SATNPRO1963","27.28","0.38212","5"],
    [45523,"HCEP03730564","2025-01-14 12:00:00","10.7852","3.38451","26.694","3.495714285714286","7.29","2.023","667.459","0","0.66","30.0259","4.72893","38.18","0","SATNPRO1963","27.238","0.38148","5"],
    [45524,"HCEP03730564","2025-01-14 12:15:00","10.7844","3.38451","26.706","3.484285714285714","7.29","2.131","615.881","0","1.65","30.0265","4.72902","38.06","0","SATNPRO1963","27.330000000000002","0.38286","5"],
    [45525,"HCEP03730564","2025-01-14 12:30:00","10.7841","3.3845","26.744","3.488571428571429","7.3","2.133","610.416","0","0.27","30.0267","4.72905","38.1","0","SATNPRO1963","27.166","0.38052","5"],
    [45526,"HCEP03730564","2025-01-14 12:45:00","10.7832","3.3843","26.764","3.507142857142857","7.29","1.994","665.424","0","0.47","30.0255","4.7289","38.3","0","SATNPRO1963","27.36","0.38322","5"],
    [45527,"HCEP03730564","2025-01-14 13:00:00","10.7723","3.38221","26.817","3.515714285714286","7.29","2.119","625.394","0.01","1.34","30.0138","4.72741","38.38","0","SATNPRO1963","27.541999999999998","0.38578","5"],
    [45528,"HCEP03730564","2025-01-14 13:15:00","10.7735","3.38244","26.911","3.582857142857143","7.3","2.121","620.364","0","0.27","30.0151","4.72759","39.13","0","SATNPRO1963","27.582","0.38632","5"],
    [45529,"HCEP03730564","2025-01-14 13:30:00","10.7748","3.38259","27.016","3.56","7.29","1.986","665.943","0","0.66","30.0155","4.72763","38.87","0","SATNPRO1963","27.718","0.38824","5"],
    [45530,"HCEP03730564","2025-01-14 13:45:00","10.7736","3.38242","27.07","3.547142857142857","7.29","2.117","617.866","0","1.17","30.0147","4.72753","38.73","0","SATNPRO1963","27.626","0.38694","5"],
    [45531,"HCEP03730564","2025-01-14 14:00:00","10.7707","3.38189","27.131","3.541428571428572","7.3","2.119","613.528","0","0.43","30.0118","4.72717","38.67","0","SATNPRO1963","27.62","0.38688","5"],
    [45532,"HCEP03730564","2025-01-14 14:15:00","10.7617","3.38027","27.205","3.565714285714286","7.29","1.976","661.229","0","1","30.0033","4.7261","38.92","0","SATNPRO1963","27.458000000000002","0.3846","5"],
    [45533,"HCEP03730564","2025-01-14 14:30:00","10.7506","3.37836","27.293","3.631428571428571","7.29","2.088","613.339","0.01","1.13","29.9936","4.72491","39.62","0","SATNPRO1963","27.346","0.38302","5"],
    [45534,"HCEP03730564","2025-01-14 14:45:00","10.7213","3.37312","27.39","3.731428571428572","7.3","2.09","609.008","0","0","29.9659","4.72145","40.69","0","SATNPRO1963","27.952","0.39152","5"],
    [45535,"HCEP03730564","2025-01-14 15:00:00","10.7342","3.37507","27.478","3.844285714285714","7.3","1.984","656.468","0","0.74","29.9745","4.72246","41.94","0","SATNPRO1963","27.624","0.38692","5"],
    [45536,"HCEP03730564","2025-01-14 15:15:00","10.7279","3.37426","27.544","3.842857142857143","7.3","2.1","610.382","0.01","1.18","29.9717","4.72216","41.9","0","SATNPRO1963","27.348000000000003","0.38306","5"],
    [45537,"HCEP03730564","2025-01-14 15:30:00","10.7167","3.37217","27.605","3.872857142857143","7.31","2.102","606.044","0","0","29.9602","4.72072","42.22","0","SATNPRO1963","27.592","0.38652","5"],
    [45538,"HCEP03730564","2025-01-14 15:45:00","10.7084","3.37098","27.648","3.948571428571428","7.31","1.983","656.068","0","0.81","29.9553","4.72016","43.04","0","SATNPRO1963","27.182","0.38074","5"],
    [45539,"HCEP03730564","2025-01-14 16:00:00","10.6954","3.36913","27.684","4.025714285714286","7.31","2.095","597.525","0","1.03","29.9477","4.71928","43.86","0","SATNPRO1963","27.506","0.38528","5"],
    [45540,"HCEP03730564","2025-01-14 16:15:00","10.6926","3.36877","27.728","4.128571428571429","7.32","2.097","593.35","0","0","29.9464","4.71913","44.99","0","SATNPRO1963","27.509999999999998","0.38532","5"],
    [45541,"HCEP03730564","2025-01-14 16:30:00","10.6856","3.36775","27.736","4.138571428571429","7.32","1.962","656.984","0","0.54","29.9421","4.71863","45.08","0","SATNPRO1963","27.07","0.37916","5"],
    [45542,"HCEP03730564","2025-01-14 16:45:00","10.6819","3.36731","27.721","4.167142857142857","7.32","2.101","605.959","0","1.18","29.9408","4.7185","45.4","0","SATNPRO1963","26.748","0.37464","5"],
    [45543,"HCEP03730564","2025-01-14 17:00:00","10.6792","3.36711","27.677","4.194285714285714","7.33","2.103","601.27","0","0","29.9411","4.71859","45.69","0","SATNPRO1963","27.38","0.3835","5"],
    [45544,"HCEP03730564","2025-01-14 17:15:00","10.6752","3.36669","27.641","4.211428571428572","7.33","1.993","648.387","0","0.69","29.9402","4.71852","45.86","0","SATNPRO1963","27.282","0.38212","5"],
    [45545,"HCEP03730564","2025-01-14 17:30:00","10.6708","3.36623","27.582","4.232857142857143","7.33","2.107","614.32","0","0.96","29.9393","4.71847","46.09","0","SATNPRO1963","27.124","0.3799","5"],
    [45546,"HCEP03730564","2025-01-14 17:45:00","10.6693","3.36593","27.515","4.262857142857143","7.34","2.108","610.021","0","0.38","29.9376","4.71825","46.43","0","SATNPRO1963","27.474","0.3848","5"],
    [45547,"HCEP03730564","2025-01-14 18:00:00","10.6687","3.36571","27.446","4.268571428571429","7.34","1.983","668.051","0","0.54","29.9359","4.71801","46.48","0","SATNPRO1963","27.448","0.38444","5"],
    [45548,"HCEP03730564","2025-01-14 18:15:00","10.6658","3.36532","27.336","4.282857142857143","7.33","2.109","605.36","0","0.72","29.9346","4.71786","46.64","0","SATNPRO1963","27.28","0.3821","5"],
    [45549,"HCEP03730564","2025-01-14 18:30:00","10.6652","3.36524","27.205","4.292857142857143","7.34","2.112","601.295","0","0","29.9343","4.71782","46.74","0","SATNPRO1963","27.444","0.3844","5"],
    [45550,"HCEP03730564","2025-01-14 18:45:00","10.6645","3.36504","27.056","4.294285714285714","7.34","1.982","666.508","0","0.43","29.933","4.71764","46.75","0","SATNPRO1963","27.396","0.38376","5"],
    [45551,"HCEP03730564","2025-01-14 19:00:00","10.6596","3.36442","26.896","4.301428571428572","7.34","2.107","613.752","0","0.86","29.9309","4.71741","46.83","0","SATNPRO1963","27.464000000000002","0.38466","5"],
    [45552,"HCEP03730564","2025-01-14 19:15:00","10.6596","3.36432","26.711","4.324285714285715","7.35","2.108","609.514","0","0","29.93","4.71726","47.08","0","SATNPRO1963","27.434","0.38426","5"],
    [45553,"HCEP03730564","2025-01-14 19:30:00","10.6656","3.36467","26.514","4.332857142857143","7.34","1.999","672.907","0.01","0.72","29.9286","4.71696","47.18","0","SATNPRO1963","27.476","0.38482","5"],
    [45554,"HCEP03730564","2025-01-14 19:45:00","10.6523","3.36281","26.319","4.345714285714285","7.34","2.109","611.842","0","0.74","29.9213","4.71612","47.31","0","SATNPRO1963","27.636","0.3871","5"],
    [45555,"HCEP03730564","2025-01-14 20:00:00","10.6532","3.36308","26.108","4.362857142857143","7.35","2.112","607.277","0","0","29.9232","4.71637","47.48","0","SATNPRO1963","27.824","0.3897","5"],
    [45556,"HCEP03730564","2025-01-14 20:15:00","10.6301","3.36076","25.909","4.377142857142857","7.35","2","668.518","0","0.58","29.9194","4.71619","47.62","0","SATNPRO1963","27.232","0.3814","5"],
    [45557,"HCEP03730564","2025-01-14 20:30:00","10.6505","3.36273","25.686","4.422857142857144","7.35","2.103","615.053","0","1.07","29.9222","4.71625","48.14","0","SATNPRO1963","27.094","0.3795","5"],
    [45558,"HCEP03730564","2025-01-14 20:45:00","10.6746","3.36604","25.466","4.33","7.36","2.104","610.029","0","0.38","29.9352","4.7177","47.16","0","SATNPRO1963","27.15","0.38024","5"],
    [45559,"HCEP03730564","2025-01-14 21:00:00","10.6185","3.36046","25.243","4.264285714285714","7.35","1.984","661.756","0","0.98","29.9262","4.71729","46.39","0","SATNPRO1963","27.82","0.38964","5"],
    [45560,"HCEP03730564","2025-01-14 21:15:00","10.5952","3.35874","25.022","4.472857142857142","7.35","2.106","602.575","0","0.79","29.9283","4.71796","48.62","0","SATNPRO1963","28","0.3922","5"],
    [45561,"HCEP03730564","2025-01-14 21:30:00","10.6131","3.36079","24.785","4.54","7.36","2.106","598.502","0","0","29.934","4.71847","49.37","0","SATNPRO1963","27.928","0.39118","5"],
    [45562,"HCEP03730564","2025-01-14 21:45:00","10.6381","3.36325","24.52","4.438571428571429","7.36","1.972","657.652","0","0.54","29.938","4.71862","48.3","0","SATNPRO1963","27.782","0.38914","5"],
    [45563,"HCEP03730564","2025-01-14 22:00:00","10.6514","3.36461","24.263","4.331428571428572","7.35","2.093","596.446","0","0.96","29.9405","4.71876","47.14","0","SATNPRO1963","27.882","0.39054","5"],
    [45564,"HCEP03730564","2025-01-14 22:15:00","10.6425","3.36402","24.015","4.304285714285714","7.35","2.095","590.997","0","0","29.9421","4.71911","46.85","0","SATNPRO1963","28.13","0.39406","5"],
    [45565,"HCEP03730564","2025-01-14 22:30:00","10.6432","3.36444","23.847","4.342857142857143","7.35","1.956","655.019","0","0.64","29.9457","4.71961","47.26","0","SATNPRO1963","28.062","0.39308","5"],
    [45566,"HCEP03730564","2025-01-14 22:45:00","10.6624","3.36667","23.73","4.268571428571429","7.34","2.085","602.549","0","0.77","29.9521","4.72021","46.48","0","SATNPRO1963","28.302","0.39644","5"],
    [45567,"HCEP03730564","2025-01-14 23:00:00","10.6771","3.36843","23.647","4.158571428571428","7.35","2.084","597.414","0","0","29.9575","4.72073","45.3","0","SATNPRO1963","27.776","0.38904","5"],
    [45568,"HCEP03730564","2025-01-14 23:15:00","10.6848","3.36928","23.61","4.088571428571429","7.34","1.954","661.755","0","0.79","29.9595","4.72089","44.55","0","SATNPRO1963","27.868000000000002","0.39036","5"],
    [45569,"HCEP03730564","2025-01-14 23:30:00","10.6974","3.37056","23.628","4.024285714285715","7.33","2.091","601.747","0","1.03","29.9617","4.72101","43.85","0","SATNPRO1963","27.582","0.38634","5"],
    [45570,"HCEP03730564","2025-01-14 23:45:00","10.704","3.37128","23.651","3.964285714285714","7.34","2.092","597.278","0","0","29.9635","4.72116","43.21","0","SATNPRO1963","27.733999999999998","0.3885","5"],
    [45571,"HCEP03730564","2025-01-15 00:00:00","10.7098","3.37208","23.738","3.917142857142857","7.33","1.98","651.663","0","0.81","29.9666","4.72151","42.7","0","SATNPRO1963","27.598","0.38654","5"],
    [45572,"HCEP03730564","2025-01-15 00:15:00","10.7146","3.37265","23.848","3.868571428571429","7.32","2.083","602.131","0.01","1.01","29.9682","4.72167","42.18","0","SATNPRO1963","27.428","0.38414","5"],
    [45573,"HCEP03730564","2025-01-15 00:30:00","10.7169","3.373","23.998","3.835714285714286","7.33","2.085","597.898","0","0.54","29.9697","4.72185","41.82","0","SATNPRO1963","28.102","0.39362","5"],
    [45574,"HCEP03730564","2025-01-15 00:45:00","10.7207","3.37359","24.205","3.804285714285714","7.32","1.991","656.219","0.01","0.86","29.9723","4.72218","41.48","0","SATNPRO1963","27.95","0.3915","5"],
    [45575,"HCEP03730564","2025-01-15 01:00:00","10.7296","3.37477","24.401","3.767142857142857","7.31","2.085","617.521","0","1.37","29.9766","4.72266","41.08","0","SATNPRO1963","27.28","0.38208","5"],
    [45576,"HCEP03730564","2025-01-15 01:15:00","10.7378","3.37588","24.602","3.712857142857143","7.32","2.086","612.84","0","0","29.9806","4.72312","40.5","0","SATNPRO1963","27.576","0.38626","5"],
    [45577,"HCEP03730564","2025-01-15 01:30:00","10.7461","3.37694","24.809","3.655714285714286","7.31","2.004","662.077","0","0.66","29.9842","4.72351","39.89","0","SATNPRO1963","28.266000000000002","0.39586","5"],
    [45578,"HCEP03730564","2025-01-15 01:45:00","10.7543","3.37824","24.986","3.611428571428572","7.31","2.102","629.833","0","1.34","29.9903","4.72425","39.41","0","SATNPRO1963","27.668","0.38756","5"],
    [45579,"HCEP03730564","2025-01-15 02:00:00","10.7599","3.37899","25.193","3.56","7.31","2.104","625.055","0","0.19","29.993","4.72456","38.86","0","SATNPRO1963","27.157999999999998","0.38036","5"],
    [45580,"HCEP03730564","2025-01-15 02:15:00","10.7648","3.37968","25.406","3.521428571428571","7.3","1.99","675.982","0","0.66","29.9957","4.72487","38.44","0","SATNPRO1963","27.356","0.38314","5"],
    [45581,"HCEP03730564","2025-01-15 02:30:00","10.7659","3.37977","25.617","3.498571428571428","7.3","2.086","640.935","0.01","1.26","29.9955","4.72484","38.19","0","SATNPRO1963","27.556","0.38596","5"],
    [45582,"HCEP03730564","2025-01-15 02:45:00","10.7658","3.37969","25.86","3.49","7.3","2.09","636.291","0","0","29.9948","4.72476","38.09","0","SATNPRO1963","27.468","0.38474","5"],
    [45583,"HCEP03730564","2025-01-15 03:00:00","10.7622","3.37843","26.075","3.49","7.3","2.009","685.778","0","0.92","29.9852","4.72347","38.1","0","SATNPRO1963","27.266","0.38188","5"],
    [45584,"HCEP03730564","2025-01-15 03:15:00","10.7653","3.37898","26.3","3.508571428571428","7.29","2.098","655.001","0","1.55","29.9879","4.72382","38.3","0","SATNPRO1963","27.35","0.38308","5"],
    [45585,"HCEP03730564","2025-01-15 03:30:00","10.7702","3.37918","26.534","3.471428571428572","7.3","2.102","655.011","0","1.64","29.9858","4.72345","37.89","0","SATNPRO1963","27.328","0.3828","5"],
    [45586,"HCEP03730564","2025-01-15 03:45:00","10.7721","3.3795","26.74","3.437142857142857","7.29","2.011","691.228","0","0.64","29.9873","4.72365","37.52","0","SATNPRO1963","27.244","0.38154","5"],
    [45587,"HCEP03730564","2025-01-15 04:00:00","10.772","3.37927","26.946","3.415714285714286","7.29","2.108","649.529","0.01","1.86","29.9851","4.72334","37.3","0","SATNPRO1963","27.56","0.386","5"],
    [45588,"HCEP03730564","2025-01-15 04:15:00","10.7731","3.3794","27.145","3.394285714285714","7.3","2.108","644.836","0","0.38","29.9854","4.72338","37.06","0","SATNPRO1963","27.137999999999998","0.38012","5"],
    [45589,"HCEP03730564","2025-01-15 04:30:00","10.7739","3.37939","27.317","3.377142857142857","7.29","2.004","687.252","0","0.69","29.9845","4.72326","36.87","0","SATNPRO1963","27.376","0.3835","5"],
    [45590,"HCEP03730564","2025-01-15 04:45:00","10.7744","3.37937","27.508","3.365714285714286","7.29","2.113","629.902","0","1.33","29.9839","4.72317","36.75","0","SATNPRO1963","27.284","0.38218","5"],
    [45591,"HCEP03730564","2025-01-15 05:00:00","10.7743","3.37921","27.654","3.357142857142857","7.29","2.114","625.55","0","0.33","29.9823","4.72295","36.64","0","SATNPRO1963","27.330000000000002","0.38278","5"],
    [45592,"HCEP03730564","2025-01-15 05:15:00","10.7736","3.37909","27.782","3.36","7.29","1.973","667.324","0","0.69","29.9816","4.72288","36.69","0","SATNPRO1963","27.366","0.38334","5"],
    [45593,"HCEP03730564","2025-01-15 05:30:00","10.7728","3.37884","27.892","3.361428571428572","7.28","2.095","617.011","0.01","1.15","29.9799","4.72265","36.69","0","SATNPRO1963","27.562","0.38606","5"],
    [45594,"HCEP03730564","2025-01-15 05:45:00","10.7719","3.3785","27.992","3.362857142857143","7.29","2.095","612.332","0","0.58","29.9772","4.72229","36.71","0","SATNPRO1963","27.532","0.38564","5"],
    [45595,"HCEP03730564","2025-01-15 06:00:00","10.771","3.37826","28.051","3.362857142857143","7.28","1.977","648.351","0","0.81","29.9755","4.72206","36.7","0","SATNPRO1963","27.352","0.38316","5"],
    [45596,"HCEP03730564","2025-01-15 06:15:00","10.7708","3.37828","28.085","3.367142857142857","7.28","2.086","594.613","0.01","1.15","29.9759","4.72212","36.76","0","SATNPRO1963","27.064","0.37908","5"],
    [45597,"HCEP03730564","2025-01-15 06:30:00","10.7702","3.37801","28.101","3.371428571428571","7.29","2.086","589.864","0","0.47","29.9737","4.72181","36.8","0","SATNPRO1963","27.36","0.3832","5"],
    [45598,"HCEP03730564","2025-01-15 06:45:00","10.77","3.37796","28.125","3.378571428571429","7.28","1.961","649.095","0","0.74","29.9733","4.72177","36.88","0","SATNPRO1963","27.093999999999998","0.37948","5"],
    [45599,"HCEP03730564","2025-01-15 07:00:00","10.7713","3.37835","28.129","3.374285714285715","7.28","2.089","596.955","0.01","1.03","29.9761","4.72215","36.83","0","SATNPRO1963","27.146","0.38022","5"],
    [45600,"HCEP03730564","2025-01-15 07:15:00","10.772","3.37863","28.115","3.364285714285714","7.29","2.09","593.782","0","0.47","29.9783","4.72245","36.72","0","SATNPRO1963","27.178","0.38068","5"],
    [45601,"HCEP03730564","2025-01-15 07:30:00","10.7736","3.37904","28.114","3.355714285714286","7.28","1.966","653.713","0","0.64","29.981","4.72281","36.63","0","SATNPRO1963","27.282","0.38214","5"],
    [45602,"HCEP03730564","2025-01-15 07:45:00","10.7744","3.37951","28.06","3.328571428571429","7.28","2.091","588.109","0","1.15","29.985","4.72336","36.34","0","SATNPRO1963","27.248","0.38168","5"],
    [45603,"HCEP03730564","2025-01-15 08:00:00","10.7725","3.37929","27.986","3.324285714285714","7.29","2.091","583.436","0","0.51","29.9845","4.72331","36.29","0","SATNPRO1963","27.316","0.3826","5"],
    [45604,"HCEP03730564","2025-01-15 08:15:00","10.7641","3.37841","27.91","3.35","7.28","1.976","632.905","0","0.43","29.9827","4.72318","36.56","0","SATNPRO1963","27.16","0.3804","5"],
    [45605,"HCEP03730564","2025-01-15 08:30:00","10.7544","3.37696","27.841","3.394285714285714","7.28","2.088","581.036","0","0.94","29.9764","4.72244","37.03","0","SATNPRO1963","27.476","0.38486","5"],
    [45606,"HCEP03730564","2025-01-15 08:45:00","10.7467","3.37606","27.734","3.451428571428572","7.29","2.09","576.999","0","0.33","29.9739","4.7222","37.65","0","SATNPRO1963","27.344","0.383","5"],
    [45607,"HCEP03730564","2025-01-15 09:00:00","10.7378","3.37472","27.629","3.485714285714286","7.29","1.955","636.642","0","0.58","29.9681","4.7215","38.03","0","SATNPRO1963","27.285999999999998","0.38216","5"],
    [45608,"HCEP03730564","2025-01-15 09:15:00","10.7372","3.37478","27.537","3.518571428571429","7.29","2.086","587.873","0.01","1.57","29.9692","4.72167","38.39","0","SATNPRO1963","27.240000000000002","0.38154","5"],
    [45609,"HCEP03730564","2025-01-15 09:30:00","10.7166","3.3715","27.445","3.562857142857143","7.3","2.085","583.604","0","0.54","29.9538","4.71979","38.84","0","SATNPRO1963","27.212","0.38118","5"],
    [45610,"HCEP03730564","2025-01-15 09:45:00","10.7138","3.37115","27.362","3.651428571428572","7.29","1.935","637.685","0","0.51","29.9526","4.71967","39.8","0","SATNPRO1963","27.344","0.38298","5"],
    [45611,"HCEP03730564","2025-01-15 10:00:00","10.7227","3.37259","27.277","3.661428571428572","7.29","2.073","567.963","0","0.81","29.9597","4.72052","39.93","0","SATNPRO1963","27.072","0.37918","5"],
    [45612,"HCEP03730564","2025-01-15 10:15:00","10.7089","3.37032","27.176","3.661428571428572","7.3","2.074","564.558","0","0","29.9486","4.71916","39.9","0","SATNPRO1963","27.168","0.3805","5"],
    [45613,"HCEP03730564","2025-01-15 10:30:00","10.7027","3.36955","27.085","3.71","7.3","1.924","629.623","0","1.05","29.9461","4.71889","40.44","0","SATNPRO1963","27.152","0.38036","5"],
    [45614,"HCEP03730564","2025-01-15 10:45:00","10.6873","3.36705","26.987","3.754285714285714","7.3","2.08","569.233","0","0.79","29.9341","4.71744","40.9","0","SATNPRO1963","27.444","0.38438","5"],
    [45615,"HCEP03730564","2025-01-15 11:00:00","10.6841","3.36669","26.898","3.822857142857143","7.31","2.081","565.394","0","0.27","29.9332","4.71736","41.64","0","SATNPRO1963","27.186","0.38078","5"],
    [45616,"HCEP03730564","2025-01-15 11:15:00","10.6687","3.36425","26.8","3.867142857142857","7.31","1.947","628.438","0","0.74","29.9218","4.71597","42.11","0","SATNPRO1963","27.528","0.38556","5"],
    [45617,"HCEP03730564","2025-01-15 11:30:00","10.6671","3.36402","26.703","3.93","7.31","2.077","573.36","0","1.17","29.9209","4.71586","42.78","0","SATNPRO1963","27.028","0.37854","5"],
    [45618,"HCEP03730564","2025-01-15 11:45:00","10.6614","3.3631","26.616","3.954285714285714","7.32","2.078","569.433","0","0","29.9166","4.71533","43.04","0","SATNPRO1963","27.23","0.38142","5"],
    [45619,"HCEP03730564","2025-01-15 12:00:00","10.6316","3.35845","26.541","4.027142857142858","7.32","1.953","624.864","0","0.58","29.8952","4.71275","43.8","0","SATNPRO1963","27.402","0.38378","5"],
    [45620,"HCEP03730564","2025-01-15 12:15:00","10.6323","3.35878","26.483","4.21","7.32","2.081","574.411","0","1.1","29.8978","4.71311","45.79","0","SATNPRO1963","27.268","0.38194","5"],
    [45621,"HCEP03730564","2025-01-15 12:30:00","10.6498","3.36153","26.455","4.197142857142858","7.33","2.082","570.521","0","0.33","29.9106","4.71465","45.68","0","SATNPRO1963","27.206","0.38106","5"],
    [45622,"HCEP03730564","2025-01-15 12:45:00","10.6745","3.36542","26.501","4.078571428571428","7.33","1.947","615.078","0","0.66","29.9287","4.71684","44.42","0","SATNPRO1963","27.174","0.38062","5"],
    [45623,"HCEP03730542","2025-01-15 13:30:00","10.6553","3.36868","26.28","5.002","7.56","0.238","4.643","0.01","0.26","29.9767","4.72396","54.45","0","SATNPRO1509","29.36","0.41122","5"],
    [45624,"HCEP03730542","2025-01-15 13:45:00","10.6555","3.36716","26.38","4.294","7.57","0.236","4.753","0.01","0.21","29.9615","4.72179","46.75","0","SATNPRO1509","29.054","0.40696","5"],
    [45625,"HCEP03730542","2025-01-15 14:00:00","10.6591","3.36639","26.449","4.137","7.57","0.248","5.452","0.01","0.35","29.9509","4.72023","45.03","0","SATNPRO1509","28.964","0.4057","5"],
    [45626,"HCEP03730542","2025-01-15 14:15:00","10.6652","3.3666","26.534","4.095","7.58","0.238","5.055","0.01","0.26","29.9479","4.71973","44.58","0","SATNPRO1509","28.99","0.40602","5"],
    [45627,"HCEP03730542","2025-01-15 14:30:00","10.6624","3.36619","26.603","4.087","7.58","0.243","4.904","0.01","0.3","29.9461","4.71951","44.48","0","SATNPRO1509","28.906","0.4049","5"],
    [45628,"HCEP03730542","2025-01-15 14:45:00","10.6578","3.36579","26.681","4.1","7.59","0.24","4.831","0.01","0.47","29.9459","4.71956","44.62","0","SATNPRO1509","29.14","0.4082","5"],
    [45629,"HCEP03730542","2025-01-15 15:00:00","10.6527","3.3653","26.771","4.122","7.59","0.245","5.089","0.01","0.4","29.9453","4.71956","44.86","0","SATNPRO1509","29.128","0.40798","5"],
    [45630,"HCEP03730542","2025-01-15 15:15:00","10.6469","3.36486","26.847","4.152","7.6","0.235","4.846","0.01","0.32","29.9457","4.71971","45.18","0","SATNPRO1509","29.22","0.40928","5"],
    [45631,"HCEP03730542","2025-01-15 15:30:00","10.64","3.36464","26.911","4.182","7.6","0.242","4.909","0.01","0.22","29.9492","4.72032","45.5","0","SATNPRO1509","29.238","0.40952","5"],
    [45632,"HCEP03730542","2025-01-15 15:45:00","10.6307","3.36413","26.979","4.224","7.61","0.23","4.531","0.01","0.2","29.9516","4.72082","45.95","0","SATNPRO1509","29.322","0.41076","5"],
    [45633,"HCEP03730542","2025-01-15 16:00:00","10.6206","3.36335","27.068","4.268","7.61","0.235","4.291","0.01","0.2","29.9523","4.72108","46.42","0","SATNPRO1509","29.41","0.41192","5"],
    [45634,"HCEP03730542","2025-01-15 16:15:00","10.6107","3.36237","27.127","4.33","7.62","0.234","4.677","0.01","0.23","29.9506","4.72101","47.08","0","SATNPRO1509","29.406","0.41188","5"],
    [45635,"HCEP03730542","2025-01-15 16:30:00","10.5933","3.36062","27.202","4.399","7.63","0.235","4.095","0.01","0.2","29.9477","4.72087","47.81","0","SATNPRO1509","29.504","0.41324","5"],
    [45636,"HCEP03730542","2025-01-15 16:45:00","10.5874","3.36001","27.236","4.488","7.63","0.234","4.488","0.01","0.37","29.9464","4.72079","48.77","0","SATNPRO1509","29.504","0.41328","5"],
    [45637,"HCEP03730542","2025-01-15 17:00:00","10.5764","3.35896","27.275","4.549","7.64","0.239","4.463","0.01","0.28","29.945","4.72077","49.42","0","SATNPRO1509","29.674","0.41566","5"],
    [45638,"HCEP03730542","2025-01-15 17:15:00","10.5712","3.35846","27.284","4.611","7.64","0.235","4.572","0.01","0.32","29.9444","4.72076","50.09","0","SATNPRO1509","29.52","0.4135","5"],
    [45639,"HCEP03730542","2025-01-15 17:30:00","10.5665","3.35802","27.262","4.642","7.64","0.239","4.439","0.01","0.28","29.9439","4.72076","50.41","0","SATNPRO1509","29.644","0.41528","5"],
    [45640,"HCEP03730542","2025-01-15 17:45:00","10.5621","3.35758","27.234","4.68","7.65","0.234","4.152","0.01","0.23","29.9432","4.72074","50.83","0","SATNPRO1509","29.648","0.41532","5"],
    [45641,"HCEP03730542","2025-01-15 18:00:00","10.5591","3.3574","27.195","4.709","7.65","0.239","4.077","0.01","0.32","29.9438","4.72087","51.14","0","SATNPRO1509","29.668","0.41552","5"],
    [45642,"HCEP03730542","2025-01-15 18:15:00","10.5535","3.35677","27.134","4.737","7.66","0.238","3.862","0.01","0.14","29.9422","4.72072","51.43","0","SATNPRO1509","29.732","0.41642","5"],
    [45643,"HCEP03730542","2025-01-15 18:30:00","10.5511","3.35648","27.04","4.774","7.66","0.239","3.397","0.01","0.35","29.9414","4.72065","51.83","0","SATNPRO1509","29.824","0.41774","5"],
    [45644,"HCEP03730542","2025-01-15 18:45:00","10.5508","3.35649","26.928","4.801","7.66","0.228","3.116","0.01","0.22","29.9418","4.7207","52.13","0","SATNPRO1509","29.856","0.41816","5"],
    [45645,"HCEP03730542","2025-01-15 19:00:00","10.5536","3.35678","26.801","4.805","7.66","0.242","3.938","0.01","0.2","29.9424","4.72074","52.17","0","SATNPRO1509","29.669999999999998","0.41564","5"],
    [45646,"HCEP03730542","2025-01-15 19:15:00","10.551","3.35658","26.642","4.792","7.66","0.231","3.255","0.01","0.12","29.9426","4.7208","52.03","0","SATNPRO1509","29.674","0.41566","5"],
    [45647,"HCEP03730542","2025-01-15 19:30:00","10.5538","3.35676","26.485","4.801","7.66","0.242","3.464","0.03","0.21","29.9422","4.72068","52.13","0","SATNPRO1509","29.848","0.41808","5"],
    [45648,"HCEP03730542","2025-01-15 19:45:00","10.5526","3.35658","26.306","4.79","7.66","0.234","3.365","0.01","0.23","29.9414","4.72058","52.01","0","SATNPRO1509","29.938","0.41934","5"],
    [45649,"HCEP03730542","2025-01-15 20:00:00","10.5511","3.35652","26.115","4.792","7.66","0.238","3.346","0.01","0.31","29.9421","4.72069","52.04","0","SATNPRO1509","29.808","0.41752","5"],
    [45650,"HCEP03730542","2025-01-15 20:15:00","10.5529","3.35665","25.917","4.805","7.66","0.227","3.018","0.01","0.18","29.9421","4.72065","52.17","0","SATNPRO1509","29.934","0.4193","5"],
    [45651,"HCEP03730542","2025-01-15 20:30:00","10.5558","3.35674","25.705","4.79","7.66","0.238","3.587","0.01","0.16","29.9406","4.72038","52.01","0","SATNPRO1509","29.796","0.41734","5"],
    [45652,"HCEP03730542","2025-01-15 20:45:00","10.557","3.35683","25.477","4.761","7.66","0.229","4.031","0.01","0.19","29.9406","4.72035","51.7","0","SATNPRO1509","29.782","0.41716","5"],
    [45653,"HCEP03730542","2025-01-15 21:00:00","10.5593","3.35699","25.276","4.74","7.66","0.233","3.929","0.01","0.19","29.9404","4.72027","51.48","0","SATNPRO1509","29.786","0.41722","5"],
    [45654,"HCEP03730542","2025-01-15 21:15:00","10.5612","3.35711","25.045","4.723","7.66","0.225","3.493","0.01","0.18","29.9401","4.72018","51.29","0","SATNPRO1509","29.818","0.41762","5"],
    [45655,"HCEP03730542","2025-01-15 21:30:00","10.5631","3.35724","24.812","4.707","7.66","0.24","4.811","0.01","0.33","29.94","4.72012","51.12","0","SATNPRO1509","29.714","0.41622","5"],
    [45656,"HCEP03730542","2025-01-15 21:45:00","10.5655","3.35736","24.581","4.687","7.66","0.236","3.836","0.01","0.19","29.9393","4.71997","50.9","0","SATNPRO1509","29.794","0.41734","5"],
    [45657,"HCEP03730542","2025-01-15 22:00:00","10.5682","3.35747","24.366","4.659","7.65","0.24","4.347","0.01","0.2","29.9382","4.71977","50.61","0","SATNPRO1509","29.686","0.4158","5"],
    [45658,"HCEP03730542","2025-01-15 22:15:00","10.572","3.35778","24.112","4.637","7.65","0.237","4.288","0.01","0.34","29.9382","4.71969","50.37","0","SATNPRO1509","29.756","0.41682","5"],
    [45659,"HCEP03730542","2025-01-15 22:30:00","10.5751","3.358","23.936","4.606","7.65","0.239","3.944","0.01","0.16","29.938","4.71959","50.04","0","SATNPRO1509","29.727999999999998","0.41642","5"],
    [45660,"HCEP03730542","2025-01-15 22:45:00","10.5776","3.35824","23.739","4.599","7.65","0.237","4.232","0.01","0.24","29.9384","4.7196","49.97","0","SATNPRO1509","29.64","0.41516","5"],
    [45661,"HCEP03730542","2025-01-15 23:00:00","10.5824","3.35882","23.603","4.581","7.65","0.241","4.178","0.01","0.26","29.9402","4.71977","49.78","0","SATNPRO1509","29.764","0.41692","5"],
    [45662,"HCEP03730542","2025-01-15 23:15:00","10.5888","3.35955","23.556","4.547","7.65","0.237","4.261","0.01","0.27","29.9422","4.71995","49.42","0","SATNPRO1509","29.66","0.41546","5"],
    [45663,"HCEP03730542","2025-01-15 23:30:00","10.5927","3.36002","23.567","4.511","7.65","0.24","4.349","0.01","0.2","29.9436","4.7201","49.02","0","SATNPRO1509","29.682","0.41578","5"],
    [45664,"HCEP03730542","2025-01-15 23:45:00","10.5966","3.3605","23.512","4.479","7.64","0.241","4.664","0.01","0.56","29.9452","4.72025","48.69","0","SATNPRO1509","29.698","0.41602","5"],
    [45665,"HCEP03730542","2025-01-16 00:00:00","10.602","3.36118","23.505","4.447","7.64","0.243","4.503","0.01","0.29","29.9475","4.72049","48.34","0","SATNPRO1509","29.786","0.4172","5"],
    [45666,"HCEP03730542","2025-01-16 00:15:00","10.6162","3.36275","23.532","4.396","7.64","0.23","4.106","0.01","0.35","29.9514","4.72083","47.8","0","SATNPRO1509","29.788","0.41724","5"],
    [45667,"HCEP03730542","2025-01-16 00:30:00","10.6248","3.36365","23.604","4.326","7.63","0.243","4.278","0.02","0.47","29.9531","4.72093","47.05","0","SATNPRO1509","29.573999999999998","0.41422","5"],
    [45668,"HCEP03730542","2025-01-16 00:45:00","10.631","3.36425","23.732","4.265","7.63","0.231","4.299","0.01","0.21","29.954","4.72096","46.39","0","SATNPRO1509","29.644000000000002","0.41522","5"],
    [45669,"HCEP03730542","2025-01-16 01:00:00","10.6353","3.36462","23.886","4.22","7.63","0.232","4.136","0.01","0.23","29.954","4.72091","45.9","0","SATNPRO1509","29.588","0.41442","5"],
    [45670,"HCEP03730542","2025-01-16 01:15:00","10.6362","3.36459","24.002","4.185","7.63","0.23","4.093","0.01","0.19","29.9529","4.72075","45.53","0","SATNPRO1509","29.706","0.41604","5"],
    [45671,"HCEP03730542","2025-01-16 01:30:00","10.6371","3.36464","24.157","4.171","7.62","0.235","4.062","0.01","0.26","29.9526","4.7207","45.38","0","SATNPRO1509","29.692","0.41584","5"],
    [45672,"HCEP03730542","2025-01-16 01:45:00","10.6417","3.36505","24.324","4.156","7.62","0.224","3.895","0.01","0.2","29.9528","4.72066","45.21","0","SATNPRO1509","29.532","0.41362","5"],
    [45673,"HCEP03730542","2025-01-16 02:00:00","10.6466","3.36557","24.534","4.128","7.62","0.23","4.018","0.01","0.16","29.9538","4.72075","44.92","0","SATNPRO1509","29.538","0.41374","5"],
    [45674,"HCEP03730542","2025-01-16 02:15:00","10.6555","3.36665","24.76","4.088","7.62","0.231","4.086","0.01","0.25","29.9571","4.72109","44.5","0","SATNPRO1509","29.444","0.4124","5"],
    [45675,"HCEP03730542","2025-01-16 02:30:00","10.6591","3.36692","24.984","4.045","7.62","0.233","3.906","0.01","0.23","29.9567","4.72098","44.02","0","SATNPRO1509","29.636","0.4151","5"],
    [45676,"HCEP03730542","2025-01-16 02:45:00","10.6691","3.36838","25.185","4.004","7.61","0.225","4.26","0.01","0.31","29.9628","4.7217","43.6","0","SATNPRO1509","29.41","0.41192","5"],
    [45677,"HCEP03730542","2025-01-16 03:00:00","10.6791","3.3697","25.388","3.931","7.6","0.232","4.435","0.01","0.23","29.9675","4.72223","42.81","0","SATNPRO1509","29.366","0.41132","5"],
    [45678,"HCEP03730542","2025-01-16 03:15:00","10.6921","3.37132","25.603","3.848","7.6","0.227","4.503","0.01","0.52","29.9729","4.72279","41.92","0","SATNPRO1509","29.314","0.41062","5"],
    [45679,"HCEP03730542","2025-01-16 03:30:00","10.7051","3.37284","25.808","3.763","7.59","0.235","4.289","0.01","0.23","29.977","4.72318","41.01","0","SATNPRO1509","29.372","0.4114","5"],
    [45680,"HCEP03730542","2025-01-16 03:45:00","10.7213","3.37475","26.048","3.679","7.59","0.227","4.264","0.01","0.25","29.9825","4.72372","40.11","0","SATNPRO1509","29.312","0.41054","5"],
    [45681,"HCEP03730542","2025-01-16 04:00:00","10.7216","3.37448","26.289","3.606","7.59","0.223","3.953","0.01","0.17","29.9795","4.72331","39.31","0","SATNPRO1509","29.346","0.411","5"],
    [45682,"HCEP03730542","2025-01-16 04:15:00","10.7264","3.375","26.519","3.58","7.58","0.222","4.148","0.01","0.23","29.9806","4.7234","39.03","0","SATNPRO1509","29.328","0.41076","5"],
    [45683,"HCEP03730542","2025-01-16 04:30:00","10.7293","3.3753","26.723","3.549","7.58","0.233","4.293","0.01","0.25","29.9811","4.72344","38.69","0","SATNPRO1509","29.31","0.41056","5"],
    [45684,"HCEP03730542","2025-01-16 04:45:00","10.7311","3.37543","26.922","3.521","7.58","0.222","4.317","0.01","0.24","29.9808","4.72337","38.39","0","SATNPRO1509","29.272","0.41002","5"],
    [45685,"HCEP03730542","2025-01-16 05:00:00","10.7328","3.37553","27.082","3.497","7.58","0.227","4.205","0.01","0.15","29.9804","4.7233","38.13","0","SATNPRO1509","29.332","0.41086","5"],
    [45686,"HCEP03730542","2025-01-16 05:15:00","10.7328","3.3756","27.231","3.488","7.58","0.23","4.51","0.01","0.2","29.981","4.72339","38.03","0","SATNPRO1509","29.29","0.41028","5"],
    [45687,"HCEP03730542","2025-01-16 05:30:00","10.7327","3.37555","27.383","3.475","7.58","0.229","4.349","0.01","0.19","29.9805","4.72334","37.89","0","SATNPRO1509","29.42","0.41206","5"],
    [45688,"HCEP03730542","2025-01-16 05:45:00","10.7364","3.37589","27.522","3.472","7.58","0.223","4.142","0.01","0.5","29.9807","4.72332","37.86","0","SATNPRO1509","29.394000000000002","0.41172","5"],
    [45689,"HCEP03730542","2025-01-16 06:00:00","10.7385","3.37598","27.639","3.457","7.58","0.226","3.947","0.01","0.16","29.9799","4.72318","37.7","0","SATNPRO1509","29.25","0.40968","5"],
    [45690,"HCEP03730542","2025-01-16 06:15:00","10.7377","3.37567","27.687","3.448","7.58","0.22","3.994","0.01","0.23","29.9774","4.72284","37.6","0","SATNPRO1509","29.43","0.41222","5"],
    [45691,"HCEP03730542","2025-01-16 06:30:00","10.7364","3.37535","27.736","3.451","7.58","0.229","3.936","0.01","0.26","29.9754","4.72257","37.63","0","SATNPRO1509","29.266000000000002","0.4099","5"],
    [45692,"HCEP03730542","2025-01-16 06:45:00","10.7332","3.37459","27.775","3.462","7.58","0.225","3.706","0.02","0.17","29.9705","4.72193","37.75","0","SATNPRO1509","29.368","0.41136","5"],
    [45693,"HCEP03730542","2025-01-16 07:00:00","10.7344","3.37471","27.757","3.482","7.58","0.232","3.88","0.01","0.25","29.9706","4.72193","37.96","0","SATNPRO1509","29.202","0.40902","5"],
    [45694,"HCEP03730542","2025-01-16 07:15:00","10.7346","3.37442","27.747","3.472","7.58","0.227","4.018","0.01","0.15","29.9677","4.72151","37.85","0","SATNPRO1509","29.26","0.40984","5"],
    [45695,"HCEP03730542","2025-01-16 07:30:00","10.7328","3.37377","27.794","3.467","7.58","0.23","3.854","0.01","0.22","29.9628","4.72084","37.79","0","SATNPRO1509","29.17","0.4086","5"],
    [45696,"HCEP03730542","2025-01-16 07:45:00","10.7335","3.37427","27.76","3.466","7.58","0.234","4.397","0.01","0.16","29.9671","4.72144","37.79","0","SATNPRO1509","29.122","0.40792","5"],
    [45697,"HCEP03730542","2025-01-16 08:00:00","10.7314","3.37387","27.735","3.447","7.58","0.233","4.014","0.01","0.17","29.9649","4.72116","37.58","0","SATNPRO1509","29.221999999999998","0.4093","5"],
    [45698,"HCEP03730542","2025-01-16 08:15:00","10.7246","3.3731","27.654","3.466","7.58","0.227","3.763","0.01","0.36","29.9629","4.72098","37.78","0","SATNPRO1509","29.282","0.41012","5"],
    [45699,"HCEP03730542","2025-01-16 08:30:00","10.7233","3.37318","27.635","3.514","7.58","0.227","3.751","0.01","0.17","29.9648","4.72126","38.3","0","SATNPRO1509","29.254","0.40974","5"],
    [45700,"HCEP03730542","2025-01-16 08:45:00","10.7252","3.37356","27.564","3.522","7.58","0.226","3.855","0.01","0.15","29.9669","4.72153","38.39","0","SATNPRO1509","29.196","0.40892","5"],
    [45701,"HCEP03730542","2025-01-16 09:00:00","10.7268","3.374","27.491","3.499","7.58","0.238","3.992","0.01","0.18","29.9701","4.72195","38.15","0","SATNPRO1509","29.152","0.40832","5"],
    [45702,"HCEP03730542","2025-01-16 09:15:00","10.7271","3.37433","27.406","3.474","7.58","0.226","3.971","0.01","0.16","29.9731","4.72237","37.87","0","SATNPRO1509","29.105999999999998","0.40766","5"],
    [45703,"HCEP03730542","2025-01-16 09:30:00","10.7238","3.37386","27.324","3.463","7.58","0.228","3.926","0.01","0.12","29.9712","4.72215","37.75","0","SATNPRO1509","29.182","0.40876","5"],
    [45704,"HCEP03730542","2025-01-16 09:45:00","10.7261","3.37426","27.239","3.482","7.58","0.228","4.477","0.01","0.18","29.9732","4.72239","37.96","0","SATNPRO1509","29.154","0.40834","5"],
    [45705,"HCEP03730542","2025-01-16 10:00:00","10.7286","3.37452","27.112","3.454","7.58","0.241","4.947","0.01","0.19","29.9739","4.72244","37.65","0","SATNPRO1509","29.096","0.40754","5"],
    [45706,"HCEP03730542","2025-01-16 10:15:00","10.7322","3.37473","27.028","3.408","7.57","0.246","5.385","0.01","0.26","29.973","4.72225","37.16","0","SATNPRO1509","29.055999999999997","0.40698","5"],
    [45707,"HCEP03730542","2025-01-16 10:30:00","10.7325","3.37434","26.925","3.386","7.57","0.241","5.059","0.01","0.17","29.9689","4.72166","36.92","0","SATNPRO1509","28.91","0.40496","5"],
    [45708,"HCEP03730542","2025-01-16 10:45:00","10.7319","3.37379","26.774","3.389","7.57","0.262","5.659","0.01","0.27","29.9641","4.72099","36.95","0","SATNPRO1509","28.924","0.4051","5"],
    [45709,"HCEP03730542","2025-01-16 11:00:00","10.7319","3.37359","26.737","3.398","7.57","0.237","4.642","0.01","0.23","29.9621","4.7207","37.05","0","SATNPRO1509","28.992","0.40606","5"],
    [45710,"HCEP03730542","2025-01-16 11:15:00","10.7294","3.37311","26.605","3.404","7.58","0.229","4.224","0.01","0.17","29.9595","4.72036","37.11","0","SATNPRO1509","29.062","0.40704","5"],
    [45711,"HCEP03730542","2025-01-16 11:30:00","10.7303","3.37314","26.491","3.436","7.58","0.246","4.797","0.01","0.2","29.9591","4.72028","37.46","0","SATNPRO1509","28.978","0.40584","5"],
    [45712,"HCEP03730542","2025-01-16 11:45:00","10.731","3.37336","26.36","3.432","7.58","0.236","4.518","0.01","0.15","29.9607","4.72049","37.42","0","SATNPRO1509","29.04","0.40678","5"],
    [45713,"HCEP03730542","2025-01-16 12:00:00","10.7294","3.37345","26.249","3.43","7.58","0.233","3.792","0.01","0.12","29.963","4.72083","37.39","0","SATNPRO1509","29.204","0.40904","5"],
    [45714,"HCEP03730542","2025-01-16 12:15:00","10.7189","3.37271","26.164","3.462","7.58","0.232","3.638","0.01","0.37","29.9643","4.72118","37.73","0","SATNPRO1509","29.408","0.4119","5"],
    [45715,"HCEP03730542","2025-01-16 12:30:00","10.7299","3.37452","26.11","3.491","7.57","0.255","5.681","0.01","0.26","29.9732","4.72227","38.06","0","SATNPRO1509","29.04","0.40674","5"],
    [45716,"HCEP03730542","2025-01-16 12:45:00","10.7197","3.37328","26.05","3.421","7.58","0.24","4.693","0.02","0.2","29.9694","4.72188","37.29","0","SATNPRO1509","29.041999999999998","0.40676","5"],
    [45717,"HCEP03730542","2025-01-16 13:00:00","10.7234","3.37381","26.042","3.434","7.57","0.245","5.13","0.01","0.18","29.9716","4.72214","37.43","0","SATNPRO1509","28.954","0.40556","5"],
    [45718,"HCEP03730542","2025-01-16 13:15:00","10.7177","3.37325","26.035","3.421","7.58","0.251","5.563","0.01","0.36","29.9707","4.7221","37.29","0","SATNPRO1509","29.002","0.40618","5"],
    [45719,"HCEP03730542","2025-01-16 13:30:00","10.6705","3.36707","26.017","3.479","7.59","0.252","5.286","0.01","0.17","29.9485","4.71969","37.88","0","SATNPRO1509","29.142","0.40816","5"],
    [45720,"HCEP03730542","2025-01-16 13:45:00","10.6712","3.36742","26.079","3.688","7.59","0.257","6.038","0.01","0.32","29.9513","4.72008","40.16","0","SATNPRO1509","29.062","0.40704","5"],
    [45721,"HCEP03730542","2025-01-16 14:00:00","10.647","3.36421","26.132","3.738","7.6","0.275","6.467","0.01","0.39","29.9395","4.71879","40.67","0","SATNPRO1509","29.052","0.40692","5"],
    [45722,"HCEP03730542","2025-01-16 14:15:00","10.5919","3.35688","26.187","3.909","7.62","0.285","6.821","0.03","0.79","29.9122","4.71578","42.47","0","SATNPRO1509","29.094","0.4075","5"],
    [45723,"HCEP03730542","2025-01-16 14:30:00","10.5574","3.35332","26.245","4.219","7.64","0.32","7.497","0.02","0.47","29.9054","4.71537","45.8","0","SATNPRO1509","29.27","0.41","5"],
    [45724,"HCEP03730542","2025-01-16 14:45:00","10.556","3.35376","26.285","4.435","7.65","0.26","6.039","0.01","0.46","29.9108","4.71617","48.15","0","SATNPRO1509","29.278","0.41012","5"],
    [45725,"HCEP03730542","2025-01-16 15:00:00","10.5658","3.35519","26.364","4.479","7.65","0.278","6.937","0.02","0.29","29.9169","4.71688","48.64","0","SATNPRO1509","29.332","0.41082","5"],
    [45726,"HCEP03730542","2025-01-16 15:15:00","10.5786","3.35726","26.455","4.443","7.64","0.253","5.555","0.01","0.52","29.9268","4.71809","48.27","0","SATNPRO1509","29.446","0.41244","5"],
    [45727,"HCEP03730542","2025-01-16 15:30:00","10.5756","3.35709","26.53","4.399","7.64","0.255","5.019","0.01","0.23","29.9275","4.71825","47.78","0","SATNPRO1509","29.45","0.41252","5"],
    [45728,"HCEP03730542","2025-01-16 15:45:00","10.5699","3.35671","26.597","4.419","7.65","0.255","5.221","0.01","0.24","29.9284","4.71847","48","0","SATNPRO1509","29.508","0.41332","5"],
    [45729,"HCEP03730542","2025-01-16 16:00:00","10.5577","3.35517","26.663","4.464","7.65","0.262","5.457","0.01","0.22","29.9231","4.71792","48.47","0","SATNPRO1509","29.532","0.41364","5"],
    [45730,"HCEP03730542","2025-01-16 16:15:00","10.5564","3.35512","26.736","4.503","7.65","0.263","5.852","0.02","0.47","29.9237","4.71803","48.9","0","SATNPRO1509","29.506","0.41332","5"],
    [45731,"HCEP03730542","2025-01-16 16:30:00","10.5574","3.3553","26.799","4.491","7.65","0.263","5.275","0.01","0.23","29.9247","4.71815","48.77","0","SATNPRO1509","29.464","0.41272","5"],
    [45732,"HCEP03730542","2025-01-16 16:45:00","10.5554","3.35486","26.877","4.479","7.65","0.259","5.226","0.02","0.38","29.9219","4.7178","48.63","0","SATNPRO1509","29.454","0.41252","5"],
    [45733,"HCEP03730542","2025-01-16 17:00:00","10.5498","3.35406","26.957","4.486","7.65","0.264","5.322","0.01","0.3","29.9185","4.71741","48.7","0","SATNPRO1509","29.516","0.4134","5"],
    [45734,"HCEP03730542","2025-01-16 17:15:00","10.5387","3.3524","27.028","4.516","7.65","0.253","4.791","0.02","0.36","29.9112","4.71655","49.01","0","SATNPRO1509","29.594","0.4145","5"],
    [45735,"HCEP03730542","2025-01-16 17:30:00","10.5315","3.3512","27.08","4.583","7.66","0.261","4.79","0.02","0.54","29.9052","4.71581","49.72","0","SATNPRO1509","29.669999999999998","0.4156","5"],
    [45736,"HCEP03730542","2025-01-16 17:45:00","10.528","3.35059","27.086","4.644","7.66","0.252","4.609","0.01","0.25","29.9021","4.71543","50.38","0","SATNPRO1509","29.759999999999998","0.41684","5"],
    [45737,"HCEP03730542","2025-01-16 18:00:00","10.5272","3.3504","27.115","4.693","7.66","0.256","4.436","0.01","0.27","29.9009","4.71526","50.91","0","SATNPRO1509","29.872","0.41842","5"],
    [45738,"HCEP03730542","2025-01-16 18:15:00","10.529","3.35074","27.164","4.704","7.66","0.248","4.29","0.01","0.24","29.9027","4.7155","51.04","0","SATNPRO1509","29.782","0.41712","5"],
    [45739,"HCEP03730542","2025-01-16 18:30:00","10.528","3.35052","27.132","4.698","7.66","0.254","4.015","0.01","0.2","29.9014","4.71533","50.97","0","SATNPRO1509","29.862000000000002","0.4183","5"],
    [45740,"HCEP03730542","2025-01-16 18:45:00","10.528","3.35044","27.061","4.702","7.66","0.243","3.932","0.01","0.2","29.9007","4.71522","51.02","0","SATNPRO1509","29.843999999999998","0.418","5"],
    [45741,"HCEP03730542","2025-01-16 19:00:00","10.5331","3.35138","26.985","4.7","7.66","0.249","3.894","0.01","0.19","29.9057","4.71585","51","0","SATNPRO1509","29.838","0.41792","5"],
    [45742,"HCEP03730542","2025-01-16 19:15:00","10.5387","3.35225","26.896","4.657","7.66","0.243","4.296","0.01","0.22","29.9098","4.71633","50.54","0","SATNPRO1509","29.662","0.41548","5"],
    [45743,"HCEP03730542","2025-01-16 19:30:00","10.5448","3.35315","26.774","4.611","7.65","0.253","4.705","0.01","0.29","29.9137","4.71679","50.05","0","SATNPRO1509","29.686","0.41582","5"],
    [45744,"HCEP03730542","2025-01-16 19:45:00","10.5497","3.35383","26.66","4.571","7.65","0.245","4.95","0.01","0.22","29.9164","4.71709","49.62","0","SATNPRO1509","29.604","0.41468","5"],
    [45745,"HCEP03730542","2025-01-16 20:00:00","10.548","3.35342","26.527","4.531","7.65","0.251","5.059","0.01","0.31","29.9139","4.71675","49.19","0","SATNPRO1509","29.584","0.4144","5"],
    [45746,"HCEP03730542","2025-01-16 20:15:00","10.547","3.35308","26.377","4.534","7.65","0.247","4.65","0.01","0.19","29.9114","4.71641","49.22","0","SATNPRO1509","29.686","0.4158","5"],
    [45747,"HCEP03730542","2025-01-16 20:30:00","10.5478","3.3531","26.23","4.548","7.65","0.253","4.627","0.01","0.22","29.911","4.71632","49.37","0","SATNPRO1509","29.694","0.41594","5"],
    [45748,"HCEP03730542","2025-01-16 20:45:00","10.5501","3.35313","26.119","4.546","7.65","0.236","4.67","0","0.2","29.9095","4.71607","49.35","0","SATNPRO1509","29.558","0.41404","5"],
    [45749,"HCEP03730542","2025-01-16 21:00:00","10.5556","3.35398","25.981","4.535","7.65","0.246","5.245","0.01","0.21","29.9135","4.71654","49.24","0","SATNPRO1509","29.48","0.41294","5"],
    [45750,"HCEP03730542","2025-01-16 21:15:00","10.5582","3.35427","25.796","4.496","7.65","0.237","5.105","0.01","0.22","29.9142","4.71659","48.81","0","SATNPRO1509","29.486","0.41302","5"],
    [45751,"HCEP03730542","2025-01-16 21:30:00","10.5612","3.35434","25.558","4.48","7.65","0.241","4.827","0.01","0.23","29.9125","4.71629","48.64","0","SATNPRO1509","29.454","0.41256","5"],
    [45752,"HCEP03730542","2025-01-16 21:45:00","10.5611","3.35424","25.308","4.47","7.65","0.24","5.097","0.01","0.15","29.9118","4.71617","48.53","0","SATNPRO1509","29.541999999999998","0.41376","5"],
    [45753,"HCEP03730542","2025-01-16 22:00:00","10.5617","3.35417","25.077","4.465","7.64","0.249","5.111","0.01","0.21","29.9106","4.71598","48.48","0","SATNPRO1509","29.612000000000002","0.41472","5"],
    [45754,"HCEP03730542","2025-01-16 22:15:00","10.5634","3.35437","24.888","4.463","7.64","0.242","5.217","0.01","0.23","29.9114","4.71605","48.46","0","SATNPRO1509","29.468","0.41276","5"],
    [45755,"HCEP03730542","2025-01-16 22:30:00","10.5639","3.35378","24.752","4.46","7.64","0.246","5.188","0.01","0.16","29.905","4.71514","48.43","0","SATNPRO1509","29.482","0.41292","5"],
    [45756,"HCEP03730542","2025-01-16 22:45:00","10.5684","3.3551","24.544","4.453","7.64","0.235","4.969","0.01","0.35","29.9146","4.71641","48.36","0","SATNPRO1509","29.422","0.41214","5"],
    [45757,"HCEP03730542","2025-01-16 23:00:00","10.5704","3.35537","24.359","4.431","7.64","0.242","4.915","0.01","0.3","29.9156","4.71652","48.12","0","SATNPRO1509","29.478","0.41286","5"],
    [45758,"HCEP03730542","2025-01-16 23:15:00","10.5746","3.35536","24.168","4.413","7.64","0.24","4.763","0.01","0.2","29.9122","4.71595","47.93","0","SATNPRO1509","29.406","0.41186","5"],
    [45759,"HCEP03730542","2025-01-16 23:30:00","10.5787","3.35534","24.036","4.397","7.64","0.252","4.84","0.01","0.24","29.9087","4.71538","47.76","0","SATNPRO1509","29.442","0.41238","5"],
    [45760,"HCEP03730542","2025-01-16 23:45:00","10.5865","3.35599","23.917","4.363","7.64","0.247","5.152","0.01","0.25","29.9087","4.71525","47.4","0","SATNPRO1509","29.426","0.41214","5"],
    [45761,"HCEP03730542","2025-01-17 00:00:00","10.6045","3.35784","23.812","4.299","7.63","0.253","4.822","0.01","0.17","29.9124","4.71548","46.72","0","SATNPRO1509","29.262","0.40986","5"],
    [45762,"HCEP03730542","2025-01-17 00:15:00","10.6111","3.35846","23.759","4.188","7.62","0.241","5.019","0.01","0.29","29.9131","4.71547","45.52","0","SATNPRO1509","29.3","0.41042","5"],
    [45763,"HCEP03730542","2025-01-17 00:30:00","10.6134","3.35869","23.786","4.154","7.62","0.25","4.847","0.01","0.48","29.9135","4.71549","45.15","0","SATNPRO1509","29.352","0.41116","5"],
    [45764,"HCEP03730542","2025-01-17 00:45:00","10.6143","3.3587","23.818","4.126","7.62","0.241","4.817","0.01","0.41","29.9129","4.71539","44.85","0","SATNPRO1509","29.352","0.41112","5"],
    [45765,"HCEP03730542","2025-01-17 01:00:00","10.6146","3.35851","23.906","4.12","7.62","0.249","4.896","0.01","0.39","29.9107","4.71508","44.79","0","SATNPRO1509","29.378","0.4115","5"],
    [45766,"HCEP03730542","2025-01-17 01:15:00","10.6143","3.3583","24","4.121","7.62","0.245","5.052","0.01","0.31","29.9088","4.71482","44.79","0","SATNPRO1509","29.376","0.41148","5"],
    [45767,"HCEP03730542","2025-01-17 01:30:00","10.6143","3.35819","24.092","4.125","7.62","0.245","4.55","0.01","0.24","29.9077","4.71467","44.84","0","SATNPRO1509","29.374","0.41142","5"],
    [45768,"HCEP03730542","2025-01-17 01:45:00","10.6136","3.35807","24.232","4.125","7.62","0.242","4.839","0.01","0.23","29.9071","4.7146","44.84","0","SATNPRO1509","29.312","0.41058","5"],
    [45769,"HCEP03730542","2025-01-17 02:00:00","10.6152","3.35823","24.373","4.127","7.62","0.246","4.64","0.01","0.18","29.9072","4.7146","44.86","0","SATNPRO1509","29.388","0.41166","5"],
    [45770,"HCEP03730542","2025-01-17 02:15:00","10.6181","3.3586","24.549","4.12","7.62","0.24","4.359","0.01","0.24","29.9084","4.71474","44.79","0","SATNPRO1509","29.716","0.41624","5"],
    [45771,"HCEP03730542","2025-01-17 02:30:00","10.6202","3.35894","24.722","4.107","7.62","0.244","4.354","0.01","0.26","29.9099","4.71493","44.65","0","SATNPRO1509","29.32","0.41068","5"],
    [45772,"HCEP03730542","2025-01-17 02:45:00","10.6219","3.35901","24.907","4.093","7.62","0.235","4.112","0.01","0.2","29.9092","4.71481","44.5","0","SATNPRO1509","29.39","0.41168","5"],
    [45773,"HCEP03730542","2025-01-17 03:00:00","10.6234","3.35907","25.092","4.086","7.62","0.246","4.235","0.01","0.19","29.9085","4.7147","44.43","0","SATNPRO1509","29.254","0.40976","5"],
    [45774,"HCEP03730542","2025-01-17 03:15:00","10.6381","3.36081","25.282","4.064","7.61","0.247","5.142","0.01","0.24","29.9135","4.71518","44.2","0","SATNPRO1509","29.458","0.41262","5"],
    [45775,"HCEP03730542","2025-01-17 03:30:00","10.6484","3.36179","25.463","3.996","7.61","0.236","3.703","0.01","0.17","29.9147","4.7152","43.48","0","SATNPRO1509","29.322","0.41068","5"],
    [45776,"HCEP03730542","2025-01-17 03:45:00","10.6703","3.36397","25.663","3.913","7.6","0.231","3.879","0.01","0.3","29.9182","4.71536","42.59","0","SATNPRO1509","29.29","0.41024","5"],
    [45777,"HCEP03730542","2025-01-17 04:00:00","10.6851","3.36532","25.876","3.787","7.59","0.244","4.449","0.01","0.22","29.9193","4.71529","41.24","0","SATNPRO1509","29.169999999999998","0.40858","5"],
    [45778,"HCEP03730542","2025-01-17 04:15:00","10.6891","3.36568","26.084","3.686","7.59","0.24","4.587","0.01","0.18","29.9195","4.71528","40.14","0","SATNPRO1509","29.078","0.40728","5"],
    [45779,"HCEP03730542","2025-01-17 04:30:00","10.6933","3.36608","26.313","3.622","7.58","0.249","4.969","0.01","0.54","29.9199","4.71528","39.45","0","SATNPRO1509","29.178","0.40868","5"],
    [45780,"HCEP03730542","2025-01-17 04:45:00","10.6936","3.36599","26.531","3.583","7.58","0.238","4.625","0.01","0.47","29.9187","4.71511","39.02","0","SATNPRO1509","29.608","0.41468","5"],
    [45781,"HCEP03730542","2025-01-17 05:00:00","10.6882","3.36471","26.73","3.588","7.59","0.235","3.709","0.01","0.24","29.9104","4.71403","39.07","0","SATNPRO1509","29.344","0.411","5"],
    [45782,"HCEP03730542","2025-01-17 05:15:00","10.6696","3.36344","26.925","3.682","7.59","0.262","3.922","0.15","0.8","29.9131","4.71472","40.07","0","SATNPRO1509","29.508","0.41334","5"],
    [45783,"HCEP03730542","2025-01-17 05:30:00","10.6557","3.36206","27.095","3.776","7.6","0.239","3.398","0.01","0.14","29.9107","4.71461","41.09","0","SATNPRO1509","29.406","0.41188","5"],
    [45784,"HCEP03730542","2025-01-17 05:45:00","10.6546","3.36212","27.248","3.844","7.6","0.237","3.661","0.01","0.26","29.9121","4.71484","41.82","0","SATNPRO1509","29.556","0.41398","5"],
    [45785,"HCEP03730542","2025-01-17 06:00:00","10.6483","3.36147","27.389","3.873","7.6","0.237","3.389","0.01","0.16","29.9108","4.71476","42.14","0","SATNPRO1509","29.456","0.41258","5"],
    [45786,"HCEP03730542","2025-01-17 06:15:00","10.6443","3.36109","27.511","3.902","7.6","0.233","3.443","0.02","0.16","29.9103","4.71476","42.45","0","SATNPRO1509","29.494","0.41306","5"],
    [45787,"HCEP03730542","2025-01-17 06:30:00","10.6459","3.36135","27.633","3.921","7.6","0.24","3.924","0.01","0.24","29.9116","4.71492","42.66","0","SATNPRO1509","29.386","0.41156","5"],
    [45788,"HCEP03730542","2025-01-17 06:45:00","10.6406","3.36085","27.696","3.911","7.6","0.234","3.865","0.01","0.19","29.9109","4.71492","42.54","0","SATNPRO1509","29.292","0.4103","5"],
    [45789,"HCEP03730542","2025-01-17 07:00:00","10.6331","3.36021","27.758","3.937","7.61","0.243","3.966","0.01","0.21","29.9107","4.71501","42.81","0","SATNPRO1509","29.192","0.40884","5"],
    [45790,"HCEP03730542","2025-01-17 07:15:00","10.6339","3.36043","27.789","3.945","7.6","0.246","5.129","0.02","1.65","29.9123","4.71522","42.9","0","SATNPRO1509","29.074","0.40724","5"],
    [45791,"HCEP03730542","2025-01-17 07:30:00","10.6381","3.36084","27.817","3.921","7.6","0.249","5.432","0.01","0.26","29.9129","4.71524","42.65","0","SATNPRO1509","29.202","0.40904","5"],
    [45792,"HCEP03730542","2025-01-17 07:45:00","10.6412","3.36116","27.804","3.897","7.6","0.243","4.892","0.01","0.47","29.9135","4.71528","42.38","0","SATNPRO1509","29.16","0.4084","5"],
    [45793,"HCEP03730542","2025-01-17 08:00:00","10.6416","3.36132","27.782","3.878","7.6","0.246","4.691","0.01","0.2","29.9147","4.71544","42.18","0","SATNPRO1509","29.132","0.40808","5"],
    [45794,"HCEP03730542","2025-01-17 08:15:00","10.6359","3.3608","27.786","3.866","7.6","0.233","4.739","0.01","0.23","29.9142","4.71547","42.05","0","SATNPRO1509","29.176","0.40868","5"],
    [45795,"HCEP03730542","2025-01-17 08:30:00","10.6294","3.36028","27.745","3.886","7.6","0.247","5.229","0.01","0.33","29.9145","4.7156","42.26","0","SATNPRO1509","29.176000000000002","0.40864","5"],
    [45796,"HCEP03730542","2025-01-17 08:45:00","10.6162","3.35882","27.677","3.917","7.61","0.245","5.102","0.01","0.33","29.911","4.71531","42.58","0","SATNPRO1509","28.906","0.40486","5"],
    [45797,"HCEP03730542","2025-01-17 09:00:00","10.6005","3.35697","27.606","3.983","7.61","0.262","5.46","0.02","0.17","29.9055","4.71478","43.28","0","SATNPRO1509","29.012","0.40634","5"],
    [45798,"HCEP03730542","2025-01-17 09:15:00","10.5751","3.35373","27.533","4.065","7.62","0.262","5.998","0.01","0.45","29.8943","4.71358","44.15","0","SATNPRO1509","28.98","0.40592","5"],
    [45799,"HCEP03730542","2025-01-17 09:30:00","10.5466","3.34926","27.443","4.215","7.63","0.275","5.657","0.01","0.3","29.8736","4.71109","45.74","0","SATNPRO1509","29.386","0.41162","5"],
    [45800,"HCEP03730542","2025-01-17 09:45:00","10.5371","3.34837","27.352","4.408","7.64","0.266","5.968","0.01","0.56","29.8725","4.71108","47.83","0","SATNPRO1509","29.5","0.4132","5"],
    [45801,"HCEP03730542","2025-01-17 10:00:00","10.5381","3.34885","27.237","4.467","7.64","0.279","5.124","0.02","0.3","29.8765","4.71162","48.47","0","SATNPRO1509","29.39","0.41166","5"],
    [45802,"HCEP03730542","2025-01-17 10:15:00","10.5392","3.34905","27.14","4.479","7.64","0.287","5.464","0.03","0.71","29.8777","4.71178","48.6","0","SATNPRO1509","29.488","0.41304","5"],
    [45803,"HCEP03730542","2025-01-17 10:30:00","10.5398","3.34922","27.04","4.481","7.64","0.266","4.901","0.01","0.19","29.8788","4.71192","48.63","0","SATNPRO1509","29.494","0.41314","5"],
    [45804,"HCEP03730542","2025-01-17 10:45:00","10.5416","3.34953","26.919","4.48","7.64","0.273","5.696","0.02","1.18","29.8805","4.71213","48.61","0","SATNPRO1509","29.562","0.41406","5"],
    [45805,"HCEP03730542","2025-01-17 11:00:00","10.5405","3.34971","26.796","4.47","7.64","0.261","4.783","0.01","0.22","29.8833","4.71253","48.51","0","SATNPRO1509","29.46","0.41262","5"],
    [45806,"HCEP03730542","2025-01-17 11:15:00","10.5422","3.35002","26.68","4.464","7.64","0.258","5.068","0.01","0.24","29.885","4.71273","48.44","0","SATNPRO1509","29.458000000000002","0.41262","5"],
    [45807,"HCEP03730542","2025-01-17 11:30:00","10.5436","3.35027","26.545","4.45","7.64","0.266","5.217","0.01","0.17","29.8864","4.7129","48.29","0","SATNPRO1509","29.364","0.41128","5"],
    [45808,"HCEP03730542","2025-01-17 11:45:00","10.5434","3.35039","26.403","4.438","7.64","0.288","7.365","0.05","7.74","29.8877","4.7131","48.16","0","SATNPRO1509","29.387999999999998","0.41164","5"],
    [45809,"HCEP03730542","2025-01-17 12:00:00","10.5438","3.35055","26.275","4.432","7.64","0.3","6.038","0.03","0.94","29.889","4.71326","48.09","0","SATNPRO1509","29.352","0.41112","5"],
    [45810,"HCEP03730542","2025-01-17 12:15:00","10.5435","3.35043","26.144","4.428","7.64","0.258","4.997","0.01","0.25","29.8882","4.71314","48.05","0","SATNPRO1509","29.506","0.4133","5"],
    [45811,"HCEP03730542","2025-01-17 12:30:00","10.5378","3.34974","26.038","4.438","7.64","0.283","5.609","0.02","0.34","29.886","4.71292","48.16","0","SATNPRO1509","29.334","0.41086","5"],
    [45812,"HCEP03730542","2025-01-17 12:45:00","10.5332","3.3491","25.942","4.461","7.64","0.25","4.646","0.01","0.23","29.8836","4.71264","48.4","0","SATNPRO1509","29.396","0.41178","5"],
    [45813,"HCEP03730542","2025-01-17 13:00:00","10.5238","3.34803","25.882","4.487","7.64","0.288","6.083","0.02","1.37","29.8807","4.71238","48.67","0","SATNPRO1509","29.416","0.41202","5"],
    [45814,"HCEP03730542","2025-01-17 13:15:00","10.512","3.34691","25.829","4.517","7.64","0.269","5.269","0.01","0.25","29.8793","4.71237","48.99","0","SATNPRO1509","29.378","0.41148","5"],
    [45815,"HCEP03730542","2025-01-17 13:30:00","10.5165","3.34766","25.788","4.544","7.64","0.272","5.297","0.01","0.18","29.883","4.71282","49.28","0","SATNPRO1509","29.326","0.41074","5"],
    [45816,"HCEP03730542","2025-01-17 13:45:00","10.5348","3.35008","25.788","4.53","7.64","0.245","4.629","0.01","0.16","29.8919","4.71379","49.15","0","SATNPRO1509","29.504","0.41324","5"],
    [45817,"HCEP03730542","2025-01-17 14:00:00","10.5449","3.35163","25.808","4.473","7.64","0.248","4.571","0.01","0.2","29.899","4.71465","48.55","0","SATNPRO1509","29.477999999999998","0.4129","5"],
    [45818,"HCEP03730542","2025-01-17 14:15:00","10.5523","3.35286","25.836","4.433","7.63","0.242","4.822","0.01","0.24","29.9051","4.71539","48.13","0","SATNPRO1509","29.490000000000002","0.41306","5"],
    [45819,"HCEP03730542","2025-01-17 14:30:00","10.5569","3.35357","25.895","4.39","7.63","0.264","5.648","0.01","0.35","29.9084","4.71579","47.66","0","SATNPRO1509","29.542","0.41374","5"],
    [45820,"HCEP03730542","2025-01-17 14:45:00","10.5617","3.35435","25.953","4.352","7.63","0.246","5.088","0.01","0.22","29.912","4.71623","47.26","0","SATNPRO1509","29.574","0.41418","5"],
    [45821,"HCEP03730542","2025-01-17 15:00:00","10.5636","3.35468","25.998","4.322","7.63","0.26","5.885","0.01","0.69","29.9138","4.71646","46.93","0","SATNPRO1509","29.486","0.41306","5"],
    [45822,"HCEP03730542","2025-01-17 15:15:00","10.5657","3.35505","26.067","4.3","7.63","0.265","7.106","0.01","0.68","29.9157","4.7167","46.7","0","SATNPRO1509","29.526","0.41358","5"],
    [45823,"HCEP03730542","2025-01-17 15:30:00","10.5695","3.35559","26.139","4.276","7.63","0.261","6.163","0.01","0.7","29.9179","4.71695","46.44","0","SATNPRO1509","29.458","0.41256","5"],
    [45824,"HCEP03730542","2025-01-17 15:45:00","10.5721","3.35607","26.216","4.259","7.62","0.268","6.171","0.02","0.48","29.9204","4.71727","46.26","0","SATNPRO1509","29.496","0.41312","5"],
    [45825,"HCEP03730542","2025-01-17 16:00:00","10.5705","3.35599","26.299","4.241","7.62","0.274","5.685","0.02","0.45","29.9209","4.71738","46.06","0","SATNPRO1509","29.412","0.41198","5"],
    [45826,"HCEP03730542","2025-01-17 16:15:00","10.5727","3.35634","26.363","4.229","7.62","0.344","7.821","0.2","3.1","29.9226","4.71758","45.94","0","SATNPRO1509","29.432","0.41224","5"],
    [45827,"HCEP03730542","2025-01-17 16:30:00","10.5724","3.35649","26.438","4.214","7.62","0.256","5.396","0.02","0.28","29.9242","4.71782","45.78","0","SATNPRO1509","29.506","0.41328","5"],
    [45828,"HCEP03730542","2025-01-17 16:45:00","10.5718","3.3565","26.51","4.201","7.62","0.256","6.031","0.01","0.33","29.9249","4.71793","45.63","0","SATNPRO1509","29.446","0.41244","5"],
    [45829,"HCEP03730542","2025-01-17 17:00:00","10.5706","3.3564","26.592","4.199","7.62","0.255","5.402","0","0.34","29.9248","4.71795","45.6","0","SATNPRO1509","29.46","0.41262","5"],
    [45830,"HCEP03730542","2025-01-17 17:15:00","10.554","3.35488","26.65","4.204","7.62","0.249","5.304","0.01","0.28","29.9234","4.71802","45.64","0","SATNPRO1509","29.384","0.41156","5"],
    [45831,"HCEP03730542","2025-01-17 17:30:00","10.5585","3.35551","26.727","4.223","7.62","0.253","5.137","0.01","0.28","29.9259","4.71829","45.85","0","SATNPRO1509","29.396","0.41174","5"],
    [45832,"HCEP03730542","2025-01-17 17:45:00","10.5652","3.35646","26.799","4.221","7.62","0.244","4.942","0.01","0.26","29.9298","4.71875","45.84","0","SATNPRO1509","29.426","0.41216","5"],
    [45833,"HCEP03730542","2025-01-17 18:00:00","10.5584","3.35576","26.864","4.207","7.62","0.254","5.235","0.01","0.24","29.9284","4.71866","45.69","0","SATNPRO1509","29.322","0.41074","5"],
    [45834,"HCEP03730542","2025-01-17 18:15:00","10.5558","3.35558","26.904","4.22","7.62","0.246","5.163","0.01","0.19","29.9287","4.71875","45.82","0","SATNPRO1509","29.378","0.41152","5"],
    [45835,"HCEP03730542","2025-01-17 18:30:00","10.5562","3.3557","26.937","4.234","7.62","0.257","5.04","0.01","0.3","29.9295","4.71886","45.97","0","SATNPRO1509","29.362000000000002","0.41122","5"],
    [45836,"HCEP03730542","2025-01-17 18:45:00","10.555","3.35546","26.974","4.244","7.62","0.244","5.3","0.01","0.55","29.9282","4.71869","46.08","0","SATNPRO1509","29.524","0.41354","5"],
    [45837,"HCEP03730542","2025-01-17 19:00:00","10.5512","3.35497","26.982","4.267","7.63","0.25","5.146","0.01","0.33","29.9263","4.71849","46.33","0","SATNPRO1509","29.674","0.41566","5"],
    [45838,"HCEP03730542","2025-01-17 19:15:00","10.5486","3.3546","26.951","4.295","7.63","0.251","4.823","0.02","0.36","29.9249","4.71833","46.62","0","SATNPRO1509","29.63","0.41504","5"],
    [45839,"HCEP03730542","2025-01-17 19:30:00","10.5525","3.35517","26.925","4.306","7.63","0.244","4.353","0.01","0.2","29.9273","4.71861","46.75","0","SATNPRO1509","29.644","0.41522","5"],
    [45840,"HCEP03730542","2025-01-17 19:45:00","10.5576","3.35578","26.838","4.295","7.63","0.24","4.609","0.01","0.24","29.9292","4.71879","46.64","0","SATNPRO1509","29.64","0.41514","5"],
    [45841,"HCEP03730542","2025-01-17 20:00:00","10.5637","3.35654","26.758","4.269","7.62","0.247","4.616","0.01","0.25","29.9318","4.71906","46.36","0","SATNPRO1509","29.576","0.41426","5"],
    [45842,"HCEP03730542","2025-01-17 20:15:00","10.5652","3.35675","26.682","4.24","7.62","0.235","4.339","0.01","0.19","29.9326","4.71914","46.05","0","SATNPRO1509","29.606","0.41466","5"],
    [45843,"HCEP03730542","2025-01-17 20:30:00","10.5659","3.35682","26.59","4.216","7.62","0.247","4.857","0.01","0.31","29.9328","4.71916","45.79","0","SATNPRO1509","29.574","0.41424","5"],
    [45844,"HCEP03730542","2025-01-17 20:45:00","10.5676","3.35688","26.454","4.195","7.62","0.238","5.04","0.01","0.21","29.9321","4.71902","45.56","0","SATNPRO1509","29.472","0.4128","5"],
    [45845,"HCEP03730542","2025-01-17 21:00:00","10.5704","3.35712","26.305","4.168","7.62","0.248","5.297","0.01","0.29","29.9322","4.71898","45.27","0","SATNPRO1509","29.32","0.4107","5"],
    [45846,"HCEP03730542","2025-01-17 21:15:00","10.5702","3.35707","26.142","4.156","7.62","0.239","5.181","0.01","0.28","29.9319","4.71893","45.14","0","SATNPRO1509","29.338","0.41094","5"],
    [45847,"HCEP03730542","2025-01-17 21:30:00","10.57","3.35715","25.989","4.141","7.62","0.248","5.149","0.01","0.28","29.9329","4.71908","44.98","0","SATNPRO1509","29.334","0.41088","5"],
    [45848,"HCEP03730542","2025-01-17 21:45:00","10.5686","3.35679","25.833","4.136","7.62","0.238","4.822","0.01","0.28","29.9306","4.71875","44.92","0","SATNPRO1509","29.466","0.41272","5"],
    [45849,"HCEP03730542","2025-01-17 22:00:00","10.5684","3.35677","25.676","4.145","7.62","0.241","4.708","0.01","0.2","29.9306","4.71875","45.02","0","SATNPRO1509","29.402","0.41182","5"],
    [45850,"HCEP03730542","2025-01-17 22:15:00","10.5758","3.35737","25.533","4.141","7.61","0.233","4.558","0.01","0.2","29.9305","4.71862","44.98","0","SATNPRO1509","29.54","0.41374","5"],
    [45851,"HCEP03730542","2025-01-17 22:30:00","10.5732","3.35713","25.381","4.119","7.61","0.242","5.049","0.01","0.21","29.9304","4.71862","44.74","0","SATNPRO1509","29.438","0.41232","5"],
    [45852,"HCEP03730542","2025-01-17 22:45:00","10.5765","3.35744","25.203","4.108","7.61","0.233","5.128","0.01","0.33","29.9308","4.71862","44.63","0","SATNPRO1509","29.387999999999998","0.41158","5"],
    [45853,"HCEP03730542","2025-01-17 23:00:00","10.5832","3.35804","25.036","4.094","7.61","0.241","5.231","0.01","0.23","29.9313","4.71858","44.48","0","SATNPRO1509","29.438","0.41234","5"],
    [45854,"HCEP03730542","2025-01-17 23:15:00","10.5957","3.35932","24.875","4.056","7.61","0.227","4.687","0.01","0.18","29.9337","4.71871","44.08","0","SATNPRO1509","29.522","0.41352","5"],
    [45855,"HCEP03730542","2025-01-17 23:30:00","10.5976","3.35936","24.707","4.024","7.6","0.236","5.147","0","0.17","29.9327","4.71853","43.73","0","SATNPRO1509","29.432","0.41228","5"],
    [45856,"HCEP03730542","2025-01-17 23:45:00","10.5959","3.35913","24.563","4.006","7.6","0.241","5.426","0.01","0.25","29.9318","4.71842","43.53","0","SATNPRO1509","29.468","0.41272","5"],
    [45857,"HCEP03730542","2025-01-18 00:00:00","10.5958","3.35897","24.409","3.997","7.6","0.247","5.883","0.01","0.21","29.9304","4.71821","43.44","0","SATNPRO1509","29.502","0.41318","5"],
    [45858,"HCEP03730542","2025-01-18 00:15:00","10.5981","3.35929","24.282","4.001","7.6","0.237","5.442","0.01","0.28","29.9317","4.71836","43.49","0","SATNPRO1509","29.54","0.41378","5"],
    [45859,"HCEP03730542","2025-01-18 00:30:00","10.6019","3.3596","24.186","3.988","7.6","0.247","5.257","0.01","0.25","29.9317","4.71829","43.34","0","SATNPRO1509","29.508","0.41332","5"],
    [45860,"HCEP03730542","2025-01-18 00:45:00","10.6048","3.35982","24.123","3.973","7.6","0.23","4.942","0.01","0.8","29.9315","4.71821","43.19","0","SATNPRO1509","29.548000000000002","0.41388","5"],
    [45861,"HCEP03730542","2025-01-18 01:00:00","10.6077","3.36018","24.102","3.959","7.6","0.239","4.868","0.01","0.33","29.9327","4.71833","43.04","0","SATNPRO1509","29.636","0.41506","5"],
    [45862,"HCEP03730542","2025-01-18 01:15:00","10.6067","3.36003","24.109","3.943","7.6","0.234","4.566","0.01","0.47","29.932","4.71825","42.87","0","SATNPRO1509","29.804","0.41748","5"],
    [45863,"HCEP03730542","2025-01-18 01:30:00","10.6064","3.35989","24.136","3.949","7.6","0.237","4.506","0.01","0.48","29.9309","4.7181","42.93","0","SATNPRO1509","29.23","0.4094","5"],
    [45864,"HCEP03730542","2025-01-18 01:45:00","10.6044","3.35963","24.2","3.955","7.6","0.23","4.452","0.02","0.42","29.93","4.718","42.99","0","SATNPRO1509","29.654","0.41538","5"],
    [45865,"HCEP03730542","2025-01-18 02:00:00","10.6058","3.35984","24.3","3.953","7.6","0.232","4.225","0.01","0.24","29.9308","4.71811","42.96","0","SATNPRO1509","29.642","0.41518","5"],
    [45866,"HCEP03730542","2025-01-18 02:15:00","10.6031","3.35948","24.428","3.95","7.6","0.228","4.257","0.01","0.31","29.9294","4.71796","42.94","0","SATNPRO1509","29.6","0.4146","5"],
    [45867,"HCEP03730542","2025-01-18 02:30:00","10.5966","3.35886","24.552","3.969","7.6","0.238","4.097","0.01","0.25","29.9286","4.71795","43.13","0","SATNPRO1509","29.538","0.41368","5"],
    [45868,"HCEP03730542","2025-01-18 02:45:00","10.5942","3.35845","24.69","3.998","7.6","0.235","4.179","0.01","0.23","29.9264","4.71769","43.45","0","SATNPRO1509","29.686","0.4158","5"],
    [45869,"HCEP03730542","2025-01-18 03:00:00","10.59","3.35807","24.856","4.018","7.61","0.243","4.234","0.01","0.26","29.926","4.71771","43.66","0","SATNPRO1509","29.55","0.41392","5"],
    [45870,"HCEP03730542","2025-01-18 03:15:00","10.5855","3.35751","25.055","4.03","7.61","0.232","4.343","0.01","0.41","29.9242","4.71753","43.79","0","SATNPRO1509","29.592","0.41452","5"],
    [45871,"HCEP03730542","2025-01-18 03:30:00","10.5862","3.35766","25.243","4.044","7.61","0.24","4.227","0.01","0.16","29.925","4.71764","43.94","0","SATNPRO1509","29.588","0.41442","5"],
    [45872,"HCEP03730542","2025-01-18 03:45:00","10.5911","3.35819","25.417","4.043","7.6","0.231","4.214","0.01","0.19","29.9262","4.71775","43.94","0","SATNPRO1509","29.614","0.41476","5"],
    [45873,"HCEP03730542","2025-01-18 04:00:00","10.6094","3.3602","25.581","4.012","7.6","0.229","3.955","0.01","0.14","29.9309","4.71813","43.61","0","SATNPRO1509","29.63","0.41504","5"],
    [45874,"HCEP03730542","2025-01-18 04:15:00","10.621","3.36135","25.754","3.94","7.59","0.223","3.957","0.01","0.29","29.9328","4.71822","42.84","0","SATNPRO1509","29.506","0.41328","5"],
    [45875,"HCEP03730542","2025-01-18 04:30:00","10.6203","3.36121","25.948","3.883","7.59","0.23","3.852","0.01","0.17","29.9318","4.71811","42.22","0","SATNPRO1509","29.436","0.41226","5"],
    [45876,"HCEP03730542","2025-01-18 04:45:00","10.623","3.36147","26.166","3.86","7.59","0.232","4.646","0.01","0.69","29.9321","4.71812","41.97","0","SATNPRO1509","29.44","0.41236","5"],
    [45877,"HCEP03730542","2025-01-18 05:00:00","10.6154","3.36069","26.379","3.847","7.59","0.233","4.045","0.01","0.25","29.9304","4.71802","41.83","0","SATNPRO1509","29.514","0.41338","5"],
    [45878,"HCEP03730542","2025-01-18 05:15:00","10.6229","3.36154","26.587","3.854","7.59","6.24","64.549","5.93","25.67","29.9327","4.71823","41.91","0","SATNPRO1509","29.5","0.41318","5"],
    [45879,"HCEP03730542","2025-01-18 05:30:00","10.6215","3.36129","26.786","3.827","7.59","0.237","4.862","0.01","0.27","29.9313","4.71807","41.62","0","SATNPRO1509","29.534","0.41366","5"],
    [45880,"HCEP03730542","2025-01-18 05:45:00","10.6166","3.36065","26.967","3.834","7.59","0.223","3.875","0.01","0.17","29.9289","4.71782","41.68","0","SATNPRO1509","29.446","0.41246","5"],
    [45881,"HCEP03730542","2025-01-18 06:00:00","10.6168","3.36061","27.138","3.855","7.59","0.231","3.932","0.01","0.31","29.9283","4.71774","41.92","0","SATNPRO1509","29.434","0.41226","5"],
    [45882,"HCEP03730542","2025-01-18 06:15:00","10.6206","3.36118","27.282","3.861","7.59","0.231","4.2","0.01","0.19","29.9307","4.71803","41.99","0","SATNPRO1509","29.352","0.4111","5"],
    [45883,"HCEP03730542","2025-01-18 06:30:00","10.6137","3.36025","27.43","3.841","7.59","0.233","4.201","0.01","0.17","29.9271","4.71764","41.76","0","SATNPRO1509","29.490000000000002","0.41308","5"],
    [45884,"HCEP03730542","2025-01-18 06:45:00","10.6298","3.36236","27.555","3.839","7.58","0.234","4.952","0.01","0.33","29.9347","4.71847","41.76","0","SATNPRO1509","29.48","0.41294","5"],
    [45885,"HCEP03730542","2025-01-18 07:00:00","10.6353","3.36304","27.646","3.737","7.58","0.236","4.908","0.01","0.23","29.9369","4.71869","40.65","0","SATNPRO1509","29.214","0.40924","5"],
    [45886,"HCEP03730542","2025-01-18 07:15:00","10.6387","3.36346","27.716","3.663","7.58","0.525","34.754","0.15","14.22","29.9383","4.71884","39.85","0","SATNPRO1509","29.086","0.4074","5"],
    [45887,"HCEP03730542","2025-01-18 07:30:00","10.6387","3.36338","27.771","3.625","7.57","0.243","4.928","0.02","0.4","29.9375","4.71873","39.43","0","SATNPRO1509","28.394","0.3977","5"],
    [45888,"HCEP03730542","2025-01-18 07:45:00","10.6365","3.36296","27.784","3.611","7.58","0.228","4.601","0.01","0.25","29.935","4.71842","39.28","0","SATNPRO1509","29.088","0.4074","5"],
    [45889,"HCEP03730542","2025-01-18 08:00:00","10.6301","3.36205","27.793","3.642","7.58","0.235","4.534","0.01","0.29","29.9314","4.718","39.61","0","SATNPRO1509","29.456","0.41264","5"],
    [45890,"HCEP03730542","2025-01-18 08:15:00","10.6245","3.36141","27.804","3.707","7.58","0.218","3.607","0.01","0.18","29.9296","4.71784","40.31","0","SATNPRO1509","29.396","0.41176","5"],
    [45891,"HCEP03730542","2025-01-18 08:30:00","10.6217","3.3611","27.786","3.76","7.59","0.235","4.022","0.01","0.19","29.9289","4.71777","40.88","0","SATNPRO1509","29.528","0.41356","5"],
    [45892,"HCEP03730542","2025-01-18 08:45:00","10.6362","3.36307","27.768","3.758","7.58","0.23","4.837","0.02","0.3","29.9365","4.71862","40.88","0","SATNPRO1509","29.32","0.41066","5"],
    [45893,"HCEP03730542","2025-01-18 09:00:00","10.6278","3.36178","27.728","3.69","7.58","0.239","4.204","0.01","0.38","29.9306","4.71792","40.12","0","SATNPRO1509","29.488","0.41304","5"],
    [45894,"HCEP03730542","2025-01-18 09:15:00","10.6179","3.36068","27.68","3.748","7.59","0.235","3.571","0.02","0.16","29.9279","4.71769","40.75","0","SATNPRO1509","29.5","0.41318","5"],
    [45895,"HCEP03730542","2025-01-18 09:30:00","10.6241","3.36127","27.584","3.796","7.59","0.252","3.754","0.03","0.19","29.9287","4.7177","41.27","0","SATNPRO1509","29.368","0.41136","5"],
    [45896,"HCEP03730542","2025-01-18 09:45:00","10.62","3.36074","27.504","3.791","7.59","0.233","3.553","0.02","0.18","29.9268","4.7175","41.22","0","SATNPRO1509","29.376","0.41148","5"],
    [45897,"HCEP03730542","2025-01-18 10:00:00","10.616","3.36019","27.41","3.819","7.59","0.235","3.377","0.02","0.16","29.9247","4.71724","41.52","0","SATNPRO1509","29.462","0.4127","5"],
    [45898,"HCEP03730542","2025-01-18 10:15:00","10.6052","3.35892","27.308","3.879","7.6","0.244","3.559","0.03","0.45","29.9211","4.71691","42.16","0","SATNPRO1509","29.694","0.4159","5"],
    [45899,"HCEP03730542","2025-01-18 10:30:00","10.6097","3.35959","27.211","3.927","7.59","0.253","3.871","0.03","0.3","29.924","4.71724","42.69","0","SATNPRO1509","29.604","0.41464","5"],
    [45900,"HCEP03730542","2025-01-18 10:45:00","10.6115","3.35991","27.099","3.913","7.59","0.231","3.468","0.03","0.27","29.9257","4.71745","42.54","0","SATNPRO1509","29.452","0.41256","5"],
    [45901,"HCEP03730542","2025-01-18 11:00:00","10.5947","3.35813","26.975","3.923","7.6","0.239","3.397","0.02","0.25","29.9219","4.71717","42.63","0","SATNPRO1509","29.776","0.41706","5"],
    [45902,"HCEP03730542","2025-01-18 11:15:00","10.5927","3.35795","26.85","3.973","7.6","0.237","3.498","0.02","0.17","29.9219","4.71719","43.17","0","SATNPRO1509","29.438","0.41234","5"],
    [45903,"HCEP03730542","2025-01-18 11:30:00","10.5858","3.35702","26.713","3.979","7.6","0.25","3.76","0.02","0.27","29.9184","4.7168","43.23","0","SATNPRO1509","29.436","0.4123","5"],
    [45904,"HCEP03730542","2025-01-18 11:45:00","10.5836","3.35675","26.576","3.966","7.6","0.23","3.578","0.01","0.17","29.9176","4.71671","43.08","0","SATNPRO1509","29.292","0.41026","5"],
    [45905,"HCEP03730542","2025-01-18 12:00:00","10.5758","3.35573","26.451","3.972","7.6","0.353","4.286","0.01","0.54","29.914","4.71631","43.14","0","SATNPRO1509","29.416","0.41204","5"],
    [45906,"HCEP03730542","2025-01-18 12:15:00","10.5867","3.35726","26.302","3.972","7.59","0.328","4.743","0.08","0.85","29.9202","4.71701","43.16","0","SATNPRO1509","29.248","0.4097","5"],
    [45907,"HCEP03730542","2025-01-18 12:30:00","10.5334","3.35027","26.155","3.998","7.62","0.353","3.553","0.03","0.29","29.8948","4.71425","43.38","0","SATNPRO1509","29.732","0.41642","5"],
    [45908,"HCEP03730542","2025-01-18 12:45:00","10.5482","3.35247","26.023","4.216","7.61","0.3","4.123","0.03","0.29","29.9045","4.71538","45.76","0","SATNPRO1509","29.61","0.41476","5"],
    [45909,"HCEP03730542","2025-01-18 13:00:00","10.5576","3.35347","25.903","4.207","7.61","0.309","3.566","0.02","0.16","29.9067","4.71554","45.68","0","SATNPRO1509","29.604","0.41466","5"],
    [45910,"HCEP03730542","2025-01-18 13:15:00","10.5612","3.35378","25.792","4.196","7.61","0.293","3.704","0.01","0.36","29.9069","4.71551","45.56","0","SATNPRO1509","29.76","0.41686","5"],
    [45911,"HCEP03730542","2025-01-18 13:30:00","10.5884","3.35722","25.71","4.151","7.6","0.284","5.016","0.02","0.31","29.9186","4.71673","45.1","0","SATNPRO1509","29.355999999999998","0.41116","5"],
    [45912,"HCEP03730542","2025-01-18 13:45:00","10.5986","3.35867","25.649","3.983","7.59","0.294","4.502","0.01","0.19","29.9247","4.71742","43.29","0","SATNPRO1509","29.342","0.41096","5"],
    [45913,"HCEP03730542","2025-01-18 14:00:00","10.6122","3.36043","25.613","3.849","7.58","0.32","5.07","0.01","0.44","29.9308","4.71808","41.84","0","SATNPRO1509","28.978","0.40592","5"],
    [45914,"HCEP03730542","2025-01-18 14:15:00","10.6275","3.36196","25.6","3.718","7.57","0.316","5.662","0.01","0.43","29.9335","4.71821","40.43","0","SATNPRO1509","28.874","0.40442","5"],
    [45915,"HCEP03730542","2025-01-18 14:30:00","10.619","3.36094","25.605","3.648","7.58","0.307","4.28","0.03","0.2","29.9303","4.7179","39.66","0","SATNPRO1509","29.384","0.4116","5"],
    [45916,"HCEP03730542","2025-01-18 14:45:00","10.6036","3.35936","25.629","3.698","7.58","0.341","4.21","0.05","0.18","29.9273","4.71772","40.2","0","SATNPRO1509","29.4","0.41182","5"],
    [45917,"HCEP03730542","2025-01-18 15:00:00","10.5727","3.35527","25.663","3.815","7.6","0.266","3.278","0.06","0.27","29.9122","4.71607","41.43","0","SATNPRO1509","29.858","0.41822","5"],
    [45918,"HCEP03730542","2025-01-18 15:15:00","10.5822","3.35674","25.716","3.964","7.59","0.313","5.142","0.01","0.21","29.9189","4.71687","43.06","0","SATNPRO1509","29.456","0.41258","5"],
    [45919,"HCEP03730542","2025-01-18 15:30:00","10.5937","3.35855","25.763","3.923","7.59","0.268","5.503","0.01","0.27","29.9275","4.7179","42.63","0","SATNPRO1509","28.854","0.40414","5"],
    [45920,"HCEP03730542","2025-01-18 15:45:00","10.5787","3.35646","25.817","3.824","7.59","0.25","5.332","0.01","0.23","29.919","4.71695","41.54","0","SATNPRO1509","29.05","0.40688","5"],
    [45921,"HCEP03730542","2025-01-18 16:00:00","10.5792","3.35655","25.877","3.853","7.59","0.26","5.186","0.01","0.16","29.9195","4.71702","41.86","0","SATNPRO1509","28.874","0.40442","5"],
    [45922,"HCEP03730542","2025-01-18 16:15:00","10.5756","3.35612","25.931","3.829","7.59","0.249","5.509","0.02","0.22","29.9182","4.71689","41.59","0","SATNPRO1509","28.938","0.40534","5"],
    [45923,"HCEP03730542","2025-01-18 16:30:00","10.5676","3.35531","25.992","3.839","7.59","0.918","40.22","0.55","18.26","29.9167","4.71681","41.7","0","SATNPRO1509","28.977999999999998","0.40588","5"],
    [45924,"HCEP03730542","2025-01-18 16:45:00","10.5548","3.35392","26.051","3.89","7.59","0.249","5.515","0.01","0.36","29.9135","4.71655","42.23","0","SATNPRO1509","29.12","0.40784","5"],
    [45925,"HCEP03730542","2025-01-18 17:00:00","10.5393","3.35215","26.127","3.951","7.6","0.256","5.476","0.01","0.42","29.9086","4.71612","42.88","0","SATNPRO1509","29.112","0.40776","5"],
    [45926,"HCEP03730542","2025-01-18 17:15:00","10.5306","3.35125","26.221","4.026","7.6","0.261","6.054","0.02","0.61","29.9068","4.71601","43.68","0","SATNPRO1509","28.89","0.40466","5"],
    [45927,"HCEP03730542","2025-01-18 17:30:00","10.4875","3.34639","26.273","4.103","7.61","0.267","5.711","0.01","0.55","29.894","4.71488","44.47","0","SATNPRO1509","28.964","0.40568","5"],
    [45928,"HCEP03730542","2025-01-18 17:45:00","10.4258","3.33936","26.33","4.327","7.63","0.264","5.746","0.01","0.57","29.875","4.71318","46.83","0","SATNPRO1509","29.034","0.40666","5"],
    [45929,"HCEP03730542","2025-01-18 18:00:00","10.3477","3.33058","26.388","4.657","7.66","0.273","5.34","0.01","0.21","29.8519","4.71117","50.32","0","SATNPRO1509","29.330000000000002","0.4108","5"],
    [45930,"HCEP03730542","2025-01-18 18:15:00","10.2932","3.32489","26.465","5.054","7.69","0.276","5.281","0.03","1.21","29.8401","4.71038","54.53","0","SATNPRO1509","29.666","0.4155","5"],
    [45931,"HCEP03730542","2025-01-18 18:30:00","10.2858","3.32407","26.508","5.356","7.7","0.285","5.345","0.01","0.56","29.838","4.71021","57.78","0","SATNPRO1509","29.656","0.41538","5"],
    [45932,"HCEP03730542","2025-01-18 18:45:00","10.2982","3.32491","26.605","5.454","7.7","0.266","4.08","0.01","0.26","29.8362","4.70975","58.85","0","SATNPRO1509","30.016","0.42038","5"],
    [45933,"HCEP03730542","2025-01-18 19:00:00","10.2979","3.32446","26.677","5.494","7.71","0.271","4.363","0.01","0.27","29.8319","4.70915","59.28","0","SATNPRO1509","29.836","0.41788","5"],
    [45934,"HCEP03730542","2025-01-18 19:15:00","10.2986","3.32447","26.711","5.502","7.71","0.26","4.32","0.01","0.34","29.8314","4.70906","59.37","0","SATNPRO1509","29.881999999999998","0.41856","5"],
    [45935,"HCEP03730542","2025-01-18 19:30:00","10.3065","3.32543","26.726","5.496","7.7","0.27","3.858","0.02","0.25","29.8344","4.70937","59.32","0","SATNPRO1509","29.776","0.41704","5"],
    [45936,"HCEP03730542","2025-01-18 19:45:00","10.3006","3.32505","26.748","5.482","7.7","0.248","3.913","0.01","0.33","29.8355","4.70962","59.16","0","SATNPRO1509","29.87","0.4184","5"],
    [45937,"HCEP03730542","2025-01-18 20:00:00","10.3018","3.32538","26.729","5.483","7.7","0.266","3.549","0.01","0.17","29.8378","4.70993","59.17","0","SATNPRO1509","29.856","0.41818","5"],
    [45938,"HCEP03730542","2025-01-18 20:15:00","10.2989","3.32523","26.71","5.479","7.7","0.26","3.68","0.02","0.23","29.8387","4.7101","59.13","0","SATNPRO1509","29.954","0.41952","5"],
    [45939,"HCEP03730542","2025-01-18 20:30:00","10.2957","3.32506","26.65","5.476","7.7","0.268","4.139","0.02","0.3","29.8396","4.71028","59.09","0","SATNPRO1509","30.026","0.4206","5"],
    [45940,"HCEP03730542","2025-01-18 20:45:00","10.2952","3.32502","26.583","5.477","7.7","0.256","3.586","0.01","0.2","29.8397","4.7103","59.1","0","SATNPRO1509","29.892","0.41866","5"],
    [45941,"HCEP03730542","2025-01-18 21:00:00","10.2962","3.32518","26.517","5.475","7.7","0.267","3.863","0.02","0.43","29.8404","4.71038","59.08","0","SATNPRO1509","30.048000000000002","0.42092","5"],
    [45942,"HCEP03730542","2025-01-18 21:15:00","10.2946","3.32503","26.437","5.478","7.7","0.255","4.179","0.01","0.25","29.8404","4.7104","59.11","0","SATNPRO1509","29.912","0.41896","5"],
    [45943,"HCEP03730542","2025-01-18 21:30:00","10.2943","3.32496","26.352","5.48","7.7","0.324","6.179","0.03","0.33","29.8399","4.71033","59.14","0","SATNPRO1509","29.962","0.41966","5"],
    [45944,"HCEP03730542","2025-01-18 21:45:00","10.2968","3.32529","26.261","5.474","7.7","0.249","4.133","0.01","0.21","29.8412","4.71046","59.08","0","SATNPRO1509","29.99","0.42004","5"],
    [45945,"HCEP03730542","2025-01-18 22:00:00","10.2951","3.32523","26.148","5.468","7.7","0.255","3.945","0.01","0.2","29.842","4.71061","59","0","SATNPRO1509","29.822","0.4177","5"],
    [45946,"HCEP03730542","2025-01-18 22:15:00","10.2968","3.32544","26.04","5.47","7.7","0.255","4.594","0.01","0.23","29.8427","4.71068","59.02","0","SATNPRO1509","29.896","0.41872","5"],
    [45947,"HCEP03730542","2025-01-18 22:30:00","10.2988","3.32563","25.895","5.459","7.7","0.259","4.244","0.01","0.23","29.8431","4.71069","58.91","0","SATNPRO1509","29.756","0.41676","5"],
    [45948,"HCEP03730542","2025-01-18 22:45:00","10.3008","3.3257","25.762","5.447","7.7","0.257","4.399","0.02","0.37","29.8422","4.71052","58.79","0","SATNPRO1509","29.7","0.416","5"],
    [45949,"HCEP03730542","2025-01-18 23:00:00","10.305","3.32593","25.615","5.436","7.7","0.267","4.69","0.01","0.52","29.8411","4.71028","58.67","0","SATNPRO1509","29.732","0.41646","5"],
    [45950,"HCEP03730542","2025-01-18 23:15:00","10.3082","3.32622","25.47","5.428","7.7","0.269","4.284","0.03","0.28","29.8414","4.71026","58.59","0","SATNPRO1509","29.804","0.41748","5"],
    [45951,"HCEP03730542","2025-01-18 23:30:00","10.3105","3.32654","25.322","5.414","7.7","0.264","4.792","0.01","0.39","29.8428","4.71041","58.44","0","SATNPRO1509","29.637999999999998","0.41512","5"],
    [45952,"HCEP03730542","2025-01-18 23:45:00","10.3443","3.33016","25.189","5.343","7.68","0.256","4.693","0.01","0.29","29.851","4.71102","57.72","0","SATNPRO1509","29.454","0.41256","5"],
    [45953,"HCEP03730542","2025-01-19 00:00:00","10.3771","3.33387","25.065","5.151","7.67","0.261","4.887","0.01","0.23","29.861","4.71191","55.68","0","SATNPRO1509","29.354","0.41118","5"],
    [45954,"HCEP03730542","2025-01-19 00:15:00","10.4041","3.337","24.934","4.964","7.66","0.253","5.135","0.01","0.31","29.8699","4.71273","53.7","0","SATNPRO1509","29.259999999999998","0.4098","5"],
    [45955,"HCEP03730542","2025-01-19 00:30:00","10.4151","3.33703","24.828","4.819","7.65","0.254","4.889","0.01","0.22","29.8613","4.71131","52.14","0","SATNPRO1509","29.204","0.40906","5"],
    [45956,"HCEP03730542","2025-01-19 00:45:00","10.4292","3.33947","24.734","4.778","7.64","0.246","4.533","0.01","0.28","29.8739","4.71288","51.72","0","SATNPRO1509","29.168","0.40854","5"],
    [45957,"HCEP03730542","2025-01-19 01:00:00","10.4309","3.33952","24.656","4.673","7.64","0.25","4.431","0.01","0.23","29.8731","4.71272","50.58","0","SATNPRO1509","29.23","0.40942","5"],
    [45958,"HCEP03730542","2025-01-19 01:15:00","10.4286","3.33949","24.581","4.655","7.64","0.249","4.244","0.01","0.24","29.8747","4.71299","50.38","0","SATNPRO1509","29.404","0.41188","5"],
    [45959,"HCEP03730542","2025-01-19 01:30:00","10.4315","3.33967","24.557","4.653","7.64","0.308","7.118","0.08","8.82","29.8741","4.71285","50.37","0","SATNPRO1509","29.498","0.41318","5"],
    [45960,"HCEP03730542","2025-01-19 01:45:00","10.4247","3.33872","24.537","4.653","7.64","0.278","4.224","0.13","0.22","29.8703","4.71242","50.36","0","SATNPRO1509","29.316","0.41064","5"],
    [45961,"HCEP03730542","2025-01-19 02:00:00","10.4262","3.33863","24.552","4.676","7.64","0.249","3.986","0.01","0.19","29.8681","4.71209","50.61","0","SATNPRO1509","29.332","0.41078","5"],
    [45962,"HCEP03730542","2025-01-19 02:15:00","10.4338","3.33951","24.595","4.675","7.64","0.251","4.036","0.01","0.15","29.8706","4.71232","50.61","0","SATNPRO1509","29.294","0.41028","5"],
    [45963,"HCEP03730542","2025-01-19 02:30:00","10.418","3.33692","24.678","4.671","7.65","0.25","3.84","0.01","0.27","29.8579","4.71077","50.54","0","SATNPRO1509","29.418","0.412","5"],
    [45964,"HCEP03730542","2025-01-19 02:45:00","10.4242","3.33769","24.74","4.722","7.65","0.241","3.9","0.01","0.16","29.8604","4.71103","51.1","0","SATNPRO1509","29.46","0.41264","5"],
    [45965,"HCEP03730542","2025-01-19 03:00:00","10.4425","3.34072","24.845","4.691","7.64","0.254","4.089","0.01","0.32","29.8754","4.71287","50.79","0","SATNPRO1509","29.346","0.4111","5"],
    [45966,"HCEP03730542","2025-01-19 03:15:00","10.4444","3.34014","24.972","4.615","7.64","1.408","20.703","2.24","29.78","29.868","4.7118","49.97","0","SATNPRO1509","29.23","0.4094","5"],
    [45967,"HCEP03730542","2025-01-19 03:30:00","10.4418","3.34031","25.1","4.599","7.64","0.259","4.035","0.02","0.22","29.8717","4.71238","49.79","0","SATNPRO1509","29.38","0.41152","5"],
    [45968,"HCEP03730542","2025-01-19 03:45:00","10.4699","3.34438","25.233","4.553","7.63","0.245","4.538","0.01","0.17","29.889","4.7144","49.33","0","SATNPRO1509","29.298","0.41038","5"],
    [45969,"HCEP03730542","2025-01-19 04:00:00","10.48","3.34556","25.373","4.409","7.62","0.253","4.8","0.01","0.31","29.8924","4.71472","47.78","0","SATNPRO1509","28.776","0.40306","5"],
    [45970,"HCEP03730542","2025-01-19 04:15:00","10.4768","3.34525","25.531","4.335","7.62","0.232","3.795","0.01","0.12","29.8919","4.71471","46.97","0","SATNPRO1509","29.342","0.41092","5"],
    [45971,"HCEP03730542","2025-01-19 04:30:00","10.4427","3.34141","25.703","4.394","7.63","0.248","4.092","0.02","0.17","29.8817","4.71382","47.58","0","SATNPRO1509","29.396","0.41172","5"],
    [45972,"HCEP03730542","2025-01-19 04:45:00","10.4409","3.34118","25.883","4.529","7.63","0.24","3.866","0.01","0.08","29.8808","4.71373","49.04","0","SATNPRO1509","29.266","0.40994","5"],
    [45973,"HCEP03730542","2025-01-19 05:00:00","10.4414","3.34125","26.053","4.561","7.64","0.25","4.07","0.01","0.11","29.881","4.71376","49.38","0","SATNPRO1509","29.376","0.41148","5"],
    [45974,"HCEP03730542","2025-01-19 05:15:00","10.4438","3.34151","26.228","4.568","7.63","0.228","3.628","0.01","0.13","29.8816","4.71381","49.46","0","SATNPRO1509","29.47","0.41278","5"],
    [45975,"HCEP03730542","2025-01-19 05:30:00","10.4518","3.34236","26.401","4.557","7.63","0.242","3.527","0.01","0.09","29.8834","4.71395","49.35","0","SATNPRO1509","29.594","0.41452","5"],
    [45976,"HCEP03730542","2025-01-19 05:45:00","10.4633","3.34361","26.611","4.525","7.63","0.237","3.94","0.01","0.24","29.8863","4.71419","49.02","0","SATNPRO1509","29.52","0.41346","5"],
    [45977,"HCEP03730542","2025-01-19 06:00:00","10.4638","3.34359","26.791","4.48","7.63","0.247","4.236","0.01","0.31","29.8855","4.71409","48.53","0","SATNPRO1509","29.726","0.41636","5"],
    [45978,"HCEP03730542","2025-01-19 06:15:00","10.4641","3.34368","26.973","4.46","7.63","2.249","50.778","3.52","34.87","29.8861","4.71418","48.31","0","SATNPRO1509","29.462","0.41264","5"],
    [45979,"HCEP03730542","2025-01-19 06:30:00","10.4597","3.34329","27.153","4.455","7.63","0.248","4.26","0.01","0.3","29.8858","4.71421","48.26","0","SATNPRO1509","29.394000000000002","0.41176","5"],
    [45980,"HCEP03730542","2025-01-19 06:45:00","10.4622","3.34367","27.294","4.445","7.62","0.248","5.443","0.01","4.27","29.8875","4.71441","48.15","0","SATNPRO1509","29.146","0.40822","5"],
    [45981,"HCEP03730542","2025-01-19 07:00:00","10.4639","3.34389","27.418","4.422","7.62","0.245","4.215","0.01","0.17","29.8881","4.71449","47.91","0","SATNPRO1509","29.186","0.40882","5"],
    [45982,"HCEP03730542","2025-01-19 07:15:00","10.4531","3.34262","27.545","4.421","7.63","0.239","4.276","0.01","0.28","29.8844","4.71414","47.89","0","SATNPRO1509","29.414","0.41198","5"],
    [45983,"HCEP03730542","2025-01-19 07:30:00","10.4464","3.34185","27.653","4.471","7.63","0.241","3.806","0.01","0.16","29.8822","4.71394","48.42","0","SATNPRO1509","29.526","0.41356","5"],
    [45984,"HCEP03730542","2025-01-19 07:45:00","10.4456","3.34174","27.723","4.519","7.63","0.231","3.53","0.01","0.14","29.8817","4.71389","48.94","0","SATNPRO1509","29.458","0.41258","5"],
    [45985,"HCEP03730542","2025-01-19 08:00:00","10.4455","3.34158","27.774","4.521","7.63","0.311","5.675","0.04","0.67","29.8802","4.71369","48.96","0","SATNPRO1509","29.092","0.4075","5"],
    [45986,"HCEP03730542","2025-01-19 08:15:00","10.4408","3.34079","27.781","4.49","7.63","0.236","3.857","0.01","0.2","29.8762","4.71319","48.62","0","SATNPRO1509","29.292","0.41028","5"],
    [45987,"HCEP03730542","2025-01-19 08:30:00","10.4284","3.33925","27.789","4.539","7.63","0.246","3.838","0.01","0.19","29.8712","4.71268","49.13","0","SATNPRO1509","29.29","0.41028","5"],
    [45988,"HCEP03730542","2025-01-19 08:45:00","10.4236","3.33885","27.779","4.585","7.64","0.244","4.211","0.01","0.54","29.8712","4.71276","49.62","0","SATNPRO1509","29.39","0.41166","5"],
    [45989,"HCEP03730542","2025-01-19 09:00:00","10.4228","3.33885","27.747","4.599","7.64","0.265","4.43","0.02","0.41","29.8718","4.71285","49.78","0","SATNPRO1509","29.25","0.40968","5"],
    [45990,"HCEP03730542","2025-01-19 09:15:00","10.4123","3.33762","27.704","4.603","7.64","0.26","5.522","0.01","0.28","29.8683","4.71251","49.8","0","SATNPRO1509","29.024","0.40654","5"],
    [45991,"HCEP03730542","2025-01-19 09:30:00","10.399","3.33574","27.651","4.639","7.64","0.257","4.296","0.01","0.18","29.8606","4.71163","50.17","0","SATNPRO1509","29.044","0.40678","5"],
    [45992,"HCEP03730542","2025-01-19 09:45:00","10.3684","3.33188","27.591","4.766","7.66","0.26","4.465","0.01","0.16","29.8474","4.71026","51.51","0","SATNPRO1509","28.996","0.40612","5"],
    [45993,"HCEP03730542","2025-01-19 10:00:00","10.3473","3.32909","27.503","4.918","7.67","0.271","4.07","0.01","0.17","29.8371","4.70912","53.13","0","SATNPRO1509","29.104","0.40764","5"],
    [45994,"HCEP03730542","2025-01-19 10:15:00","10.3467","3.32932","27.415","5.031","7.67","0.265","4.197","0.02","0.22","29.8398","4.70951","54.35","0","SATNPRO1509","29.418","0.41208","5"],
    [45995,"HCEP03730542","2025-01-19 10:30:00","10.3463","3.32882","27.328","5.07","7.67","0.288","4.262","0.02","0.38","29.8352","4.70887","54.77","0","SATNPRO1509","29.558","0.414","5"],
    [45996,"HCEP03730542","2025-01-19 10:45:00","10.3401","3.32802","27.234","5.127","7.68","0.262","3.674","0.03","0.21","29.8325","4.70857","55.38","0","SATNPRO1509","29.56","0.41406","5"],
    [45997,"HCEP03730542","2025-01-19 11:00:00","10.3418","3.32853","27.13","5.186","7.68","0.266","3.872","0.02","0.34","29.8361","4.70905","56.02","0","SATNPRO1509","29.414","0.41196","5"],
    [45998,"HCEP03730542","2025-01-19 11:15:00","10.4068","3.33723","27.019","5.09","7.65","0.257","4.488","0.02","0.32","29.8692","4.71269","55.07","0","SATNPRO1509","28.82","0.40364","5"],
    [45999,"HCEP03730542","2025-01-19 11:30:00","10.4519","3.34234","26.912","4.728","7.63","0.262","4.483","0.02","0.3","29.8829","4.71391","51.21","0","SATNPRO1509","28.868000000000002","0.40432","5"],
    [46000,"HCEP03730542","2025-01-19 11:45:00","10.4883","3.3463","26.779","4.409","7.61","0.244","4.956","0.01","0.23","29.8922","4.71464","47.79","0","SATNPRO1509","28.848","0.40406","5"],
    [46001,"HCEP03730542","2025-01-19 12:00:00","10.5174","3.34952","26.654","4.214","7.6","0.254","5.42","0.01","0.26","29.9004","4.71533","45.71","0","SATNPRO1509","28.74","0.40254","5"],
    [46002,"HCEP03730542","2025-01-19 12:15:00","10.4688","3.34334","26.51","4.091","7.61","0.241","4.573","0.01","0.24","29.8792","4.71308","44.32","0","SATNPRO1509","29.002000000000002","0.4062","5"],
    [46003,"HCEP03730542","2025-01-19 12:30:00","10.4735","3.34316","26.383","4.295","7.61","0.257","4.67","0.01","0.18","29.8735","4.7122","46.53","0","SATNPRO1509","29.122","0.40788","5"],
    [46004,"HCEP03730542","2025-01-19 12:45:00","10.493","3.34552","26.215","4.304","7.61","0.248","4.533","0.01","0.28","29.881","4.71293","46.66","0","SATNPRO1509","29.012","0.40636","5"],
    [46005,"HCEP03730542","2025-01-19 13:00:00","10.4913","3.34563","26.091","4.276","7.61","0.252","4.396","0.01","0.2","29.8834","4.7133","46.35","0","SATNPRO1509","29.174","0.40866","5"],
    [46006,"HCEP03730542","2025-01-19 13:15:00","10.4789","3.34368","25.921","4.282","7.62","0.242","4.128","0.01","0.22","29.8744","4.71221","46.4","0","SATNPRO1509","29.298","0.41036","5"],
    [46007,"HCEP03730542","2025-01-19 13:30:00","10.4734","3.34282","25.8","4.338","7.62","0.255","4.127","0.01","0.17","29.8705","4.71173","47","0","SATNPRO1509","29.264","0.4099","5"],
    [46008,"HCEP03730542","2025-01-19 13:45:00","10.4639","3.341","25.654","4.369","7.62","0.248","4.191","0.01","0.17","29.8603","4.71042","47.32","0","SATNPRO1509","29.36","0.41124","5"],
    [46009,"HCEP03730542","2025-01-19 14:00:00","10.454","3.34","25.527","4.424","7.62","0.261","4.127","0.01","0.24","29.8586","4.71033","47.91","0","SATNPRO1509","29.512","0.41338","5"],
    [46010,"HCEP03730542","2025-01-19 14:15:00","10.4476","3.33922","25.452","4.457","7.62","0.25","4.112","0.01","0.17","29.856","4.71007","48.26","0","SATNPRO1509","29.086","0.40742","5"],
    [46011,"HCEP03730542","2025-01-19 14:30:00","10.4417","3.33876","25.399","4.483","7.63","0.26","4.048","0.01","0.21","29.8564","4.71022","48.54","0","SATNPRO1509","29.294","0.41032","5"],
    [46012,"HCEP03730542","2025-01-19 14:45:00","10.4008","3.33324","25.381","4.55","7.64","0.253","3.801","0.01","0.17","29.8352","4.70787","49.21","0","SATNPRO1509","29.378","0.4115","5"],
    [46013,"HCEP03730542","2025-01-19 15:00:00","10.3971","3.33325","25.361","4.707","7.64","0.264","3.912","0.01","0.17","29.8384","4.70837","50.9","0","SATNPRO1509","29.068","0.40718","5"],
    [46014,"HCEP03730542","2025-01-19 15:15:00","10.378","3.33146","25.376","4.784","7.65","0.26","3.881","0.02","0.24","29.8362","4.70837","51.72","0","SATNPRO1509","29.346","0.41106","5"],
    [46015,"HCEP03730542","2025-01-19 15:30:00","10.4256","3.33803","25.392","4.787","7.63","0.267","4.312","0.02","0.24","29.8624","4.71133","51.81","0","SATNPRO1509","28.79","0.40322","5"],
    [46016,"HCEP03730542","2025-01-19 15:45:00","10.419","3.3368","25.414","4.583","7.63","0.253","4.221","0.01","0.21","29.8556","4.71047","49.59","0","SATNPRO1509","28.892","0.40468","5"],
    [46017,"HCEP03730542","2025-01-19 16:00:00","10.3795","3.33185","25.432","4.633","7.65","0.267","3.69","0.03","0.24","29.8389","4.70874","50.08","0","SATNPRO1509","29.458000000000002","0.41262","5"],
    [46018,"HCEP03730542","2025-01-19 16:15:00","10.368","3.33051","25.467","4.831","7.66","0.257","3.789","0.01","0.18","29.835","4.70837","52.21","0","SATNPRO1509","29.334","0.41086","5"],
    [46019,"HCEP03730542","2025-01-19 16:30:00","10.3526","3.3287","25.523","4.953","7.67","0.272","3.54","0.02","0.25","29.8295","4.70785","53.51","0","SATNPRO1509","29.566","0.4141","5"],
    [46020,"HCEP03730542","2025-01-19 16:45:00","10.3434","3.3282","25.57","5.057","7.67","0.25","3.332","0.01","0.15","29.8322","4.70838","54.62","0","SATNPRO1509","29.624000000000002","0.41492","5"],
    [46021,"HCEP03730542","2025-01-19 17:00:00","10.3765","3.33247","25.636","5.074","7.66","0.267","4.689","0.01","0.26","29.8474","4.71001","54.85","0","SATNPRO1509","29.166","0.40852","5"],
    [46022,"HCEP03730542","2025-01-19 17:15:00","10.3758","3.33249","25.697","4.925","7.65","0.255","4.317","0.02","0.22","29.8482","4.71013","53.24","0","SATNPRO1509","29.152","0.40834","5"],
    [46023,"HCEP03730542","2025-01-19 17:30:00","10.3915","3.33444","25.765","4.846","7.64","0.267","4.836","0.02","0.24","29.8546","4.7108","52.41","0","SATNPRO1509","28.964","0.4057","5"],
    [46024,"HCEP03730542","2025-01-19 17:45:00","10.3972","3.33526","25.836","4.746","7.64","0.264","5.504","0.01","0.24","29.858","4.71119","51.34","0","SATNPRO1509","28.902","0.40482","5"],
    [46025,"HCEP03730542","2025-01-19 18:00:00","10.4074","3.3366","25.903","4.654","7.63","0.27","5.413","0.02","0.34","29.8629","4.71173","50.35","0","SATNPRO1509","28.503999999999998","0.39922","5"],
    [46026,"HCEP03730542","2025-01-19 18:15:00","10.4004","3.33608","25.977","4.58","7.63","0.255","5.081","0.01","0.22","29.8634","4.71192","49.55","0","SATNPRO1509","28.676","0.40166","5"],
    [46027,"HCEP03730542","2025-01-19 18:30:00","10.4034","3.33635","26.02","4.562","7.63","0.271","5.408","0.01","0.34","29.8636","4.7119","49.35","0","SATNPRO1509","28.67","0.40154","5"],
    [46028,"HCEP03730542","2025-01-19 18:45:00","10.3779","3.33309","26.102","4.582","7.64","0.256","5.306","0.01","0.43","29.8523","4.7107","49.54","0","SATNPRO1509","28.82","0.40364","5"],
    [46029,"HCEP03730542","2025-01-19 19:00:00","10.3432","3.32915","26.172","4.736","7.66","0.272","4.903","0.01","0.46","29.8415","4.70975","51.16","0","SATNPRO1509","28.958","0.40558","5"],
    [46030,"HCEP03730542","2025-01-19 19:15:00","10.335","3.32823","26.256","4.911","7.66","0.266","4.928","0.01","0.4","29.8391","4.70954","53.04","0","SATNPRO1509","29.092000000000002","0.40746","5"],
    [46031,"HCEP03730542","2025-01-19 19:30:00","10.3181","3.326","26.337","5.009","7.67","0.285","5.241","0.02","0.35","29.8308","4.70864","54.07","0","SATNPRO1509","29.144","0.4082","5"],
    [46032,"HCEP03730542","2025-01-19 19:45:00","10.3107","3.3252","26.399","5.131","7.68","0.262","4.236","0.01","0.18","29.8288","4.70848","55.38","0","SATNPRO1509","29.394000000000002","0.41172","5"],
    [46033,"HCEP03730542","2025-01-19 20:00:00","10.3058","3.32471","26.45","5.201","7.68","0.274","4.678","0.01","0.24","29.8279","4.70844","56.13","0","SATNPRO1509","29.446","0.41242","5"],
    [46034,"HCEP03730542","2025-01-19 20:15:00","10.305","3.3247","26.48","5.253","7.68","0.253","4.328","0.01","0.16","29.8285","4.70854","56.69","0","SATNPRO1509","29.374","0.41144","5"],
    [46035,"HCEP03730542","2025-01-19 20:30:00","10.3029","3.32464","26.504","5.262","7.68","0.275","4.182","0.02","0.17","29.8296","4.70873","56.78","0","SATNPRO1509","29.456","0.41256","5"],
    [46036,"HCEP03730542","2025-01-19 20:45:00","10.3056","3.32498","26.506","5.256","7.68","0.266","4.65","0.02","0.35","29.8308","4.70886","56.72","0","SATNPRO1509","29.24","0.40954","5"],
    [46037,"HCEP03730542","2025-01-19 21:00:00","10.3049","3.32515","26.499","5.24","7.68","0.264","4.444","0.01","0.25","29.833","4.70918","56.55","0","SATNPRO1509","29.43","0.4122","5"],
    [46038,"HCEP03730542","2025-01-19 21:15:00","10.3092","3.32555","26.489","5.234","7.68","0.253","4.263","0.01","0.3","29.8335","4.70918","56.49","0","SATNPRO1509","29.232","0.40946","5"],
    [46039,"HCEP03730542","2025-01-19 21:30:00","10.3099","3.32558","26.448","5.218","7.68","0.275","4.503","0.01","0.27","29.8332","4.70913","56.32","0","SATNPRO1509","29.412","0.41194","5"],
    [46040,"HCEP03730542","2025-01-19 21:45:00","10.3056","3.32496","26.397","5.208","7.68","0.264","4.856","0.01","0.33","29.8307","4.70884","56.2","0","SATNPRO1509","29.126","0.40798","5"],
    [46041,"HCEP03730542","2025-01-19 22:00:00","10.2987","3.32431","26.348","5.254","7.69","0.262","3.068","0.02","0.16","29.8298","4.70882","56.69","0","SATNPRO1509","29.896","0.4188","5"],
    [46042,"HCEP03730542","2025-01-19 22:15:00","10.2987","3.32437","26.303","5.347","7.69","0.24","2.992","0.01","0.17","29.8305","4.70892","57.7","0","SATNPRO1509","29.872","0.4184","5"],
    [46043,"HCEP03730542","2025-01-19 22:30:00","10.3063","3.32525","26.229","5.411","7.7","0.253","2.67","0.02","0.17","29.8331","4.70915","58.4","0","SATNPRO1509","30.04","0.42072","5"],
    [46044,"HCEP03730542","2025-01-19 22:45:00","10.3066","3.32513","26.166","5.406","7.69","0.259","4.519","0.01","0.35","29.8316","4.70893","58.35","0","SATNPRO1509","29.576","0.41428","5"],
    [46045,"HCEP03730542","2025-01-19 23:00:00","10.3067","3.32514","26.078","5.32","7.69","0.262","3.519","0.01","0.18","29.8317","4.70894","57.41","0","SATNPRO1509","29.582","0.41434","5"],
    [46046,"HCEP03730542","2025-01-19 23:15:00","10.3086","3.32526","25.992","5.314","7.69","0.249","3.466","0.01","0.13","29.8314","4.70886","57.35","0","SATNPRO1509","29.62","0.41486","5"],
    [46047,"HCEP03730542","2025-01-19 23:30:00","10.3082","3.32511","25.91","5.332","7.69","0.255","3.424","0.01","0.14","29.8302","4.7087","57.55","0","SATNPRO1509","29.812","0.41754","5"],
    [46048,"HCEP03730542","2025-01-19 23:45:00","10.3123","3.32533","25.816","5.355","7.69","0.249","3.126","0.02","0.26","29.829","4.70845","57.8","0","SATNPRO1509","29.576","0.41428","5"],
    [46049,"HCEP03730542","2025-01-20 00:00:00","10.3126","3.32525","25.712","5.353","7.7","0.241","2.185","0.01","0.11","29.828","4.7083","57.78","0","SATNPRO1509","30.184","0.4228","5"],
    [46050,"HCEP03730542","2025-01-20 00:15:00","10.308","3.32459","25.609","5.42","7.7","0.235","2.642","0.03","0.15","29.8254","4.70799","58.49","0","SATNPRO1509","30.073999999999998","0.42126","5"],
    [46051,"HCEP03730542","2025-01-20 00:30:00","10.3056","3.32429","25.529","5.436","7.7","0.249","2.881","0.01","0.14","29.8243","4.70788","58.66","0","SATNPRO1509","29.95","0.41948","5"],
    [46052,"HCEP03730542","2025-01-20 00:45:00","10.3057","3.32424","25.448","5.433","7.7","0.243","2.504","0.01","0.11","29.8238","4.7078","58.63","0","SATNPRO1509","30.055999999999997","0.421","5"],
    [46053,"HCEP03730542","2025-01-20 01:00:00","10.3104","3.32475","25.365","5.444","7.7","0.25","2.299","0.01","0.16","29.8251","4.7079","58.76","0","SATNPRO1509","30.07","0.42114","5"],
    [46054,"HCEP03730542","2025-01-20 01:15:00","10.3132","3.32486","25.288","5.463","7.7","0.24","2.142","0.01","0.11","29.8239","4.70767","58.97","0","SATNPRO1509","30.286","0.42422","5"],
    [46055,"HCEP03730542","2025-01-20 01:30:00","10.3152","3.32502","25.223","5.491","7.7","0.268","3.344","0.01","0.15","29.8238","4.70763","59.28","0","SATNPRO1509","30.22","0.42326","5"],
    [46056,"HCEP03730542","2025-01-20 01:45:00","10.3102","3.32424","25.162","5.419","7.69","0.255","3.671","0.01","0.21","29.8202","4.70719","58.49","0","SATNPRO1509","29.75","0.41666","5"],
    [46057,"HCEP03730542","2025-01-20 02:00:00","10.3199","3.32559","25.137","5.339","7.68","0.261","3.592","0.01","0.16","29.8257","4.70782","57.63","0","SATNPRO1509","29.586","0.4144","5"],
    [46058,"HCEP03730542","2025-01-20 02:15:00","10.3303","3.32709","25.108","5.258","7.67","0.252","3.878","0.01","0.26","29.8321","4.70855","56.77","0","SATNPRO1509","29.355999999999998","0.41116","5"],
    [46059,"HCEP03730542","2025-01-20 02:30:00","10.3427","3.32865","25.138","5.151","7.67","0.271","4.49","0.01","0.36","29.8374","4.70911","55.64","0","SATNPRO1509","29.126","0.40794","5"],
    [46060,"HCEP03730542","2025-01-20 02:45:00","10.3581","3.33032","25.179","5.039","7.66","0.26","4.795","0.01","0.19","29.8413","4.70942","54.45","0","SATNPRO1509","28.972","0.4058","5"],
    [46061,"HCEP03730542","2025-01-20 03:00:00","10.3861","3.33319","25.204","4.89","7.64","0.27","4.792","0.01","0.21","29.846800000000002","4.70974","52.87","0","SATNPRO1509","28.78","0.40312","5"],
    [46062,"HCEP03730542","2025-01-20 03:15:00","10.3877","3.33336","25.274","4.765","7.64","0.251","4.076","0.01","0.16","29.8471","4.70977","51.52","0","SATNPRO1509","29.478","0.41294","5"],
    [46063,"HCEP03730542","2025-01-20 03:30:00","10.3578","3.32882","25.332","4.8","7.66","0.266","3.887","0.02","0.29","29.8266","4.70733","51.86","0","SATNPRO1509","29.594","0.4145","5"],
    [46064,"HCEP03730542","2025-01-20 03:45:00","10.3719","3.33137","25.437","4.955","7.65","0.255","4.266","0.02","0.39","29.8404","4.70907","53.56","0","SATNPRO1509","29.774","0.417","5"],
    [46065,"HCEP03730542","2025-01-20 04:00:00","10.3569","3.32993","25.541","4.925","7.66","0.263","4.011","0.01","0.25","29.8383","4.70903","53.23","0","SATNPRO1509","29.838","0.41794","5"],
    [46066,"HCEP03730542","2025-01-20 04:15:00","10.3394","3.32674","25.648","5.006","7.67","0.251","3.909","0.01","0.2","29.8209","4.70684","54.07","0","SATNPRO1509","29.7","0.416","5"],
    [46067,"HCEP03730542","2025-01-20 04:30:00","10.3767","3.33198","25.759","5.044","7.65","0.273","4.697","0.02","0.33","29.8423","4.70929","54.52","0","SATNPRO1509","29.04","0.40674","5"],
    [46068,"HCEP03730542","2025-01-20 04:45:00","10.3659","3.33048","25.889","4.885","7.65","0.263","4.786","0.01","0.32","29.8362","4.7086","52.79","0","SATNPRO1509","29.196","0.40894","5"],
    [46069,"HCEP03730542","2025-01-20 05:00:00","10.3557","3.32897","26.018","4.894","7.66","0.269","4.6","0.02","0.36","29.8295","4.70782","52.88","0","SATNPRO1509","29.323999999999998","0.41074","5"],
    [46070,"HCEP03730542","2025-01-20 05:15:00","10.3585","3.32982","26.178","4.935","7.65","0.249","4.228","0.01","0.17","29.8357","4.70867","53.32","0","SATNPRO1509","29.092","0.4075","5"],
    [46071,"HCEP03730542","2025-01-20 05:30:00","10.3528","3.32909","26.325","4.927","7.66","0.685","13.645","0.32","14.92","29.833","4.70839","53.23","0","SATNPRO1509","29.254","0.40974","5"],
    [46072,"HCEP03730542","2025-01-20 05:45:00","10.3472","3.32897","26.46","4.948","7.66","0.247","4.136","0.01","0.14","29.8363","4.70896","53.45","0","SATNPRO1509","29.128","0.408","5"],
    [46073,"HCEP03730542","2025-01-20 06:00:00","10.3436","3.32878","26.645","4.947","7.66","0.259","4.722","0.01","0.24","29.8373","4.70916","53.43","0","SATNPRO1509","28.992","0.40604","5"],
    [46074,"HCEP03730542","2025-01-20 06:15:00","10.3347","3.328","26.791","4.964","7.66","0.272","5.353","0.02","0.34","29.8368","4.70925","53.61","0","SATNPRO1509","28.822","0.40372","5"],
    [46075,"HCEP03730542","2025-01-20 06:30:00","10.3361","3.32817","26.943","4.964","7.66","0.277","5.505","0.01","0.21","29.8373","4.7093","53.61","0","SATNPRO1509","28.786","0.4032","5"],
    [46076,"HCEP03730542","2025-01-20 06:45:00","10.3361","3.32806","27.054","4.928","7.65","0.257","5.896","0.01","0.25","29.8361","4.70915","53.22","0","SATNPRO1509","28.654","0.40136","5"],
    [46077,"HCEP03730542","2025-01-20 07:00:00","10.335","3.32806","27.204","4.919","7.65","0.283","5.77","0.03","0.56","29.8369","4.70929","53.13","0","SATNPRO1509","28.592","0.4005","5"],
    [46078,"HCEP03730542","2025-01-20 07:15:00","10.3364","3.32834","27.335","4.908","7.65","0.274","5.615","0.02","0.27","29.8385","4.7095","53.01","0","SATNPRO1509","28.598","0.40056","5"],
    [46079,"HCEP03730542","2025-01-20 07:30:00","10.3423","3.32914","27.423","4.88","7.65","0.275","5.386","0.02","0.32","29.8417","4.70986","52.71","0","SATNPRO1509","28.522","0.3995","5"],
    [46080,"HCEP03730542","2025-01-20 07:45:00","10.3478","3.32983","27.527","4.842","7.65","0.257","5.804","0.01","0.23","29.844","4.7101","52.31","0","SATNPRO1509","28.54","0.39974","5"],
    [46081,"HCEP03730542","2025-01-20 08:00:00","10.3571","3.33107","27.624","4.792","7.64","0.275","5.679","0.01","0.31","29.8486","4.71061","51.78","0","SATNPRO1509","28.476","0.39886","5"],
    [46082,"HCEP03730542","2025-01-20 08:15:00","10.3582","3.33128","27.676","4.757","7.64","0.264","5.506","0.02","0.26","29.8497","4.71075","51.41","0","SATNPRO1509","28.434","0.39824","5"],
    [46083,"HCEP03730542","2025-01-20 08:30:00","10.3565","3.33097","27.715","4.753","7.64","0.279","5.235","0.01","0.2","29.848","4.71054","51.36","0","SATNPRO1509","28.746","0.40268","5"],
    [46084,"HCEP03730542","2025-01-20 08:45:00","10.356","3.33099","27.735","4.754","7.64","0.271","5.391","0.02","0.28","29.8486","4.71064","51.38","0","SATNPRO1509","28.518","0.39944","5"],
    [46085,"HCEP03730542","2025-01-20 09:00:00","10.359","3.33082","27.731","4.748","7.64","0.289","6.027","0.02","0.35","29.8445","4.71","51.31","0","SATNPRO1509","28.374","0.39742","5"],
    [46086,"HCEP03730542","2025-01-20 09:15:00","10.3375","3.32842","27.736","4.761","7.65","0.254","4.394","0.01","0.17","29.8383","4.70947","51.42","0","SATNPRO1509","28.733999999999998","0.40248","5"],
    [46087,"HCEP03730542","2025-01-20 09:30:00","10.3297","3.32731","27.712","4.87","7.66","0.269","4.691","0.01","0.19","29.8337","4.70894","52.58","0","SATNPRO1509","29.01","0.40634","5"],
    [46088,"HCEP03730542","2025-01-20 09:45:00","10.316","3.3255","27.663","4.967","7.67","0.296","4.784","0.08","0.63","29.8269","4.7082","53.62","0","SATNPRO1509","29.114","0.40778","5"],
    [46089,"HCEP03730542","2025-01-20 10:00:00","10.3036","3.32419","27.607","5.096","7.67","0.272","3.776","0.01","0.34","29.8241","4.708","54.99","0","SATNPRO1509","29.38","0.41154","5"],
    [46090,"HCEP03730542","2025-01-20 10:15:00","10.301","3.32392","27.546","5.187","7.68","0.27","4.192","0.02","0.23","29.8236","4.70797","55.97","0","SATNPRO1509","29.334","0.41084","5"],
    [46091,"HCEP03730542","2025-01-20 10:30:00","10.3011","3.32397","27.473","5.217","7.68","0.284","4.194","0.05","0.51","29.8241","4.70804","56.29","0","SATNPRO1509","29.294","0.41028","5"],
    [46092,"HCEP03730542","2025-01-20 10:45:00","10.2971","3.32358","27.386","5.23","7.68","0.297","4.247","0.07","0.56","29.8236","4.70801","56.43","0","SATNPRO1509","29.464000000000002","0.41272","5"],
    [46093,"HCEP03730542","2025-01-20 11:00:00","10.2923","3.32301","27.29","5.256","7.68","0.263","3.996","0.01","0.2","29.8219","4.70785","56.71","0","SATNPRO1509","29.406","0.41192","5"],
    [46094,"HCEP03730542","2025-01-20 11:15:00","10.2793","3.32137","27.207","5.317","7.69","0.257","3.135","0.06","1.42","29.8162","4.70725","57.34","0","SATNPRO1509","29.66","0.41546","5"],
    [46095,"HCEP03730542","2025-01-20 11:30:00","10.2755","3.32081","27.094","5.425","7.7","0.252","2.732","0.01","0.29","29.8138","4.70697","58.51","0","SATNPRO1509","29.934","0.41928","5"],
    [46096,"HCEP03730542","2025-01-20 11:45:00","10.2616","3.3189","26.957","5.521","7.71","0.269","2.35","0.04","0.36","29.8063","4.70611","59.52","0","SATNPRO1509","30.514","0.42742","5"],
    [46097,"HCEP03730542","2025-01-20 12:00:00","10.2603","3.31881","26.819","5.65","7.71","0.243","1.704","0.01","0.12","29.8064","4.70615","60.91","0","SATNPRO1509","30.378","0.42546","5"],
    [46098,"HCEP03730542","2025-01-20 12:15:00","10.2691","3.31998","26.696","5.666","7.71","0.345","2.719","0.03","0.38","29.8109","4.70664","61.1","0","SATNPRO1509","30.186","0.4228","5"],
    [46099,"HCEP03730542","2025-01-20 12:30:00","10.2707","3.32025","26.538","5.63","7.71","0.327","2.198","0.02","0.39","29.8124","4.70681","60.71","0","SATNPRO1509","30.27","0.42396","5"],
    [46100,"HCEP03730542","2025-01-20 12:45:00","10.2709","3.32022","26.375","5.609","7.71","0.3","2.755","0.01","0.25","29.812","4.70674","60.48","0","SATNPRO1509","30.105999999999998","0.42166","5"],
    [46101,"HCEP03730542","2025-01-20 13:00:00","10.2697","3.32001","26.214","5.618","7.71","0.237","1.7","0.01","0.09","29.8109","4.7066","60.57","0","SATNPRO1509","30.212","0.4232","5"],
    [46102,"HCEP03730542","2025-01-20 13:15:00","10.2569","3.31819","26.053","5.652","7.71","0.225","1.49","0.01","0.07","29.8034","4.70573","60.92","0","SATNPRO1509","30.516000000000002","0.42742","5"],
    [46103,"HCEP03730542","2025-01-20 13:30:00","10.2712","3.31972","25.895","5.71","7.71","0.24","1.883","0.01","0.08","29.8069","4.70599","61.56","0","SATNPRO1509","30.46","0.42662","5"],
    [46104,"HCEP03730542","2025-01-20 13:45:00","10.2738","3.31972","25.736","5.67","7.71","0.24","2.149","0.01","0.16","29.8048","4.70564","61.14","0","SATNPRO1509","30.288","0.42428","5"],
    [46105,"HCEP03730542","2025-01-20 14:00:00","10.3136","3.32422","25.591","5.552","7.68","0.276","4.024","0.01","0.25","29.817","4.70671","59.93","0","SATNPRO1509","29.238","0.4095","5"],
    [46106,"HCEP03730542","2025-01-20 14:15:00","10.3077","3.32306","25.461","5.277","7.68","0.25","3.762","0.01","0.21","29.8105","4.70586","56.95","0","SATNPRO1509","29.46","0.41262","5"],
    [46107,"HCEP03730542","2025-01-20 14:30:00","10.3083","3.32306","25.355","5.232","7.68","0.269","3.229","0.02","0.17","29.81","4.70578","56.46","0","SATNPRO1509","29.496000000000002","0.41314","5"],
    [46108,"HCEP03730542","2025-01-20 14:45:00","10.3107","3.32312","25.267","5.222","7.68","0.252","3.666","0.02","0.17","29.8086","4.70554","56.36","0","SATNPRO1509","29.596","0.41454","5"],
    [46109,"HCEP03730542","2025-01-20 15:00:00","10.3216","3.32468","25.206","5.207","7.67","0.261","3.232","0.01","0.13","29.8152","4.7063","56.21","0","SATNPRO1509","29.198","0.40892","5"],
    [46110,"HCEP03730542","2025-01-20 15:15:00","10.3343","3.32624","25.172","5.099","7.66","0.263","4.292","0.01","0.29","29.8203","4.70681","55.06","0","SATNPRO1509","29.25","0.40968","5"],
    [46111,"HCEP03730542","2025-01-20 15:30:00","10.3466","3.32786","25.15","5.001","7.65","0.283","4.188","0.02","0.37","29.8263","4.70747","54.02","0","SATNPRO1509","29.574","0.41424","5"],
    [46112,"HCEP03730542","2025-01-20 15:45:00","10.3586","3.32922","25.145","4.877","7.64","0.261","4.659","0.01","0.27","29.83","4.70779","52.69","0","SATNPRO1509","28.634","0.40106","5"],
    [46113,"HCEP03730542","2025-01-20 16:00:00","10.341","3.32679","25.15","4.814","7.65","0.269","3.897","0.02","0.23","29.8203","4.70671","51.99","0","SATNPRO1509","29.314","0.41056","5"],
    [46114,"HCEP03730542","2025-01-20 16:15:00","10.3436","3.32728","25.16","4.891","7.65","0.259","3.791","0.02","0.24","29.823","4.70705","52.83","0","SATNPRO1509","28.932","0.40522","5"],
    [46115,"HCEP03730542","2025-01-20 16:30:00","10.3162","3.32352","25.177","4.932","7.67","0.272","3.519","0.01","0.22","29.8081","4.70538","53.23","0","SATNPRO1509","29.604","0.41466","5"],
    [46116,"HCEP03730542","2025-01-20 16:45:00","10.3585","3.32959","25.203","5.031","7.64","0.26","4.62","0.01","0.41","29.8337","4.70833","54.36","0","SATNPRO1509","28.56","0.40004","5"],
    [46117,"HCEP03730542","2025-01-20 17:00:00","10.346","3.32811","25.243","4.761","7.64","0.273","4.965","0.02","0.43","29.8292","4.70789","51.42","0","SATNPRO1509","28.616","0.40082","5"],
    [46118,"HCEP03730542","2025-01-20 17:15:00","10.3259","3.32628","25.294","4.808","7.65","0.257","4.552","0.01","0.23","29.8276","4.70799","51.91","0","SATNPRO1509","28.874","0.40444","5"],
    [46119,"HCEP03730542","2025-01-20 17:30:00","10.3164","3.32542","25.357","4.957","7.66","0.276","5.462","0.01","0.36","29.8268","4.70804","53.51","0","SATNPRO1509","29.002","0.40622","5"],
    [46120,"HCEP03730542","2025-01-20 17:45:00","10.3135","3.32612","25.415","5.031","7.66","0.276","5.691","0.05","0.89","29.8361","4.70942","54.31","0","SATNPRO1509","29.102","0.4076","5"],
    [46121,"HCEP03730542","2025-01-20 18:00:00","10.3049","3.3237","25.488","5.002","7.66","0.27","5.354","0.01","0.41","29.8191","4.70714","53.98","0","SATNPRO1509","29.288","0.4103","5"],
    [46122,"HCEP03730542","2025-01-20 18:15:00","10.2914","3.32274","25.566","5.129","7.67","0.263","5.191","0.01","0.27","29.8206","4.70758","55.34","0","SATNPRO1509","29.278","0.41012","5"],
    [46123,"HCEP03730542","2025-01-20 18:30:00","10.2732","3.32044","25.64","5.241","7.69","0.271","4.278","0.01","0.35","29.8126","4.70675","56.52","0","SATNPRO1509","29.728","0.4164","5"],
    [46124,"HCEP03730542","2025-01-20 18:45:00","10.2744","3.32073","25.713","5.388","7.69","0.264","4.235","0.01","0.21","29.8144","4.70699","58.1","0","SATNPRO1509","29.678","0.41568","5"],
    [46125,"HCEP03730542","2025-01-20 19:00:00","10.2679","3.31989","25.794","5.386","7.69","0.272","3.868","0.02","0.32","29.8114","4.70667","58.07","0","SATNPRO1509","29.664","0.41546","5"],
    [46126,"HCEP03730542","2025-01-20 19:15:00","10.2749","3.3207","25.865","5.391","7.68","0.286","5.189","0.09","3.02","29.8137","4.70689","58.14","0","SATNPRO1509","29.398","0.41178","5"],
    [46127,"HCEP03730542","2025-01-20 19:30:00","10.2743","3.32052","25.951","5.342","7.68","0.275","4.787","0.01","0.29","29.8124","4.70671","57.6","0","SATNPRO1509","29.294","0.41032","5"],
    [46128,"HCEP03730542","2025-01-20 19:45:00","10.2749","3.32059","26.04","5.322","7.68","0.284","4.855","0.01","0.36","29.8125","4.70673","57.39","0","SATNPRO1509","29.338","0.41088","5"],
    [46129,"HCEP03730542","2025-01-20 20:00:00","10.2627","3.31913","26.117","5.322","7.69","0.276","4.758","0.01","0.5","29.8079","4.70628","57.37","0","SATNPRO1509","29.602","0.41464","5"],
    [46130,"HCEP03730542","2025-01-20 20:15:00","10.2728","3.3203","26.186","5.336","7.68","0.261","4.338","0.01","0.17","29.8113","4.7066","57.54","0","SATNPRO1509","29.344","0.411","5"],
    [46131,"HCEP03730542","2025-01-20 20:30:00","10.2702","3.32003","26.262","5.31","7.68","0.27","3.998","0.01","0.23","29.8108","4.70657","57.26","0","SATNPRO1509","29.346","0.41104","5"],
    [46132,"HCEP03730542","2025-01-20 20:45:00","10.2744","3.3204","26.342","5.304","7.68","0.916","30.574","0.78","17.86","29.8109","4.70652","57.2","0","SATNPRO1509","29.428","0.41218","5"],
    [46133,"HCEP03730542","2025-01-20 21:00:00","10.272","3.32022","26.381","5.291","7.68","0.282","4.594","0.01","0.25","29.811","4.70659","57.05","0","SATNPRO1509","29.298","0.41038","5"],
    [46134,"HCEP03730542","2025-01-20 21:15:00","10.2696","3.32014","26.427","5.29","7.68","0.259","4.209","0.01","0.33","29.8123","4.70681","57.05","0","SATNPRO1509","29.330000000000002","0.41078","5"],
    [46135,"HCEP03730542","2025-01-20 21:30:00","10.2607","3.3193","26.436","5.317","7.68","0.269","3.749","0.01","0.11","29.8112","4.70679","57.32","0","SATNPRO1509","29.422","0.4121","5"],
    [46136,"HCEP03730542","2025-01-20 21:45:00","10.2618","3.31928","26.446","5.343","7.68","0.27","3.913","0.01","0.08","29.8101","4.70663","57.6","0","SATNPRO1509","29.566","0.41414","5"],
    [46137,"HCEP03730542","2025-01-20 22:00:00","10.268","3.31985","26.454","5.351","7.68","0.265","3.498","0.01","0.12","29.8107","4.70661","57.7","0","SATNPRO1509","29.355999999999998","0.41116","5"],
    [46138,"HCEP03730542","2025-01-20 22:15:00","10.2696","3.31994","26.464","5.334","7.68","0.255","3.544","0.01","0.21","29.8102","4.70652","57.51","0","SATNPRO1509","29.412","0.412","5"],
    [46139,"HCEP03730542","2025-01-20 22:30:00","10.2733","3.32023","26.446","5.31","7.68","0.272","4.708","0.03","2.13","29.8101","4.70643","57.26","0","SATNPRO1509","29.37","0.4114","5"],
    [46140,"HCEP03730542","2025-01-20 22:45:00","10.2785","3.32073","26.421","5.276","7.68","0.256","3.711","0.01","0.27","29.8108","4.70644","56.9","0","SATNPRO1509","29.242","0.40958","5"],
    [46141,"HCEP03730542","2025-01-20 23:00:00","10.2759","3.32044","26.388","5.243","7.68","0.263","3.986","0.01","0.16","29.8101","4.70639","56.54","0","SATNPRO1509","29.268","0.40994","5"],
    [46142,"HCEP03730542","2025-01-20 23:15:00","10.274","3.32009","26.343","5.242","7.68","0.26","3.836","0.02","0.27","29.8082","4.70614","56.53","0","SATNPRO1509","29.278","0.41012","5"],
    [46143,"HCEP03730542","2025-01-20 23:30:00","10.2762","3.32037","26.313","5.257","7.68","0.258","3.6","0.01","0.19","29.8092","4.70625","56.69","0","SATNPRO1509","29.122","0.4079","5"],
    [46144,"HCEP03730542","2025-01-20 23:45:00","10.2632","3.3188","26.283","5.252","7.68","0.255","4.249","0.01","0.13","29.8042","4.70575","56.62","0","SATNPRO1509","29.236","0.4095","5"],
    [46145,"HCEP03730542","2025-01-21 00:00:00","10.2667","3.31907","26.24","5.318","7.68","0.272","4.743","0.01","0.2","29.8041","4.70568","57.34","0","SATNPRO1509","29.362","0.41128","5"],
    [46146,"HCEP03730542","2025-01-21 00:15:00","10.2693","3.31896","26.191","5.306","7.68","0.273","5.301","0.02","0.45","29.8009","4.70517","57.21","0","SATNPRO1509","29.276","0.41006","5"],
    [46147,"HCEP03730542","2025-01-21 00:30:00","10.2639","3.3181","26.141","5.312","7.68","0.269","3.466","0.02","0.14","29.7967","4.70467","57.26","0","SATNPRO1509","29.408","0.41192","5"],
    [46148,"HCEP03730542","2025-01-21 00:45:00","10.2669","3.31839","26.082","5.332","7.68","0.267","4.002","0.01","0.16","29.7971","4.70467","57.48","0","SATNPRO1509","29.282","0.41014","5"],
    [46149,"HCEP03730542","2025-01-21 01:00:00","10.2588","3.31723","26.027","5.331","7.69","0.263","2.962","0.01","0.17","29.7923","4.70411","57.46","0","SATNPRO1509","29.84","0.41798","5"],
    [46150,"HCEP03730542","2025-01-21 01:15:00","10.2654","3.31781","25.978","5.405","7.69","0.248","2.22","0.01","0.08","29.7927","4.70406","58.26","0","SATNPRO1509","30.08","0.42132","5"],
    [46151,"HCEP03730542","2025-01-21 01:30:00","10.2762","3.31894","25.945","5.428","7.68","0.272","3.283","0.01","0.2","29.7951","4.70422","58.53","0","SATNPRO1509","29.548000000000002","0.41388","5"],
    [46152,"HCEP03730542","2025-01-21 01:45:00","10.2765","3.31886","25.901","5.357","7.68","0.265","3.427","0.01","0.18","29.794","4.70406","57.77","0","SATNPRO1509","29.668","0.41556","5"],
    [46153,"HCEP03730542","2025-01-21 02:00:00","10.281","3.3193","25.851","5.284","7.67","0.282","4.246","0.02","0.27","29.7947","4.70408","56.98","0","SATNPRO1509","29.314","0.4106","5"],
    [46154,"HCEP03730542","2025-01-21 02:15:00","10.2968","3.32182","25.807","5.193","7.67","0.269","4.69","0.01","0.29","29.8069","4.70555","56.03","0","SATNPRO1509","28.992","0.40612","5"],
    [46155,"HCEP03730542","2025-01-21 02:30:00","10.2926","3.3208","25.754","5.142","7.67","0.273","4.343","0.01","0.34","29.8002","4.70466","55.46","0","SATNPRO1509","29.506","0.41324","5"],
    [46156,"HCEP03730542","2025-01-21 02:45:00","10.3011","3.32231","25.738","5.155","7.67","0.273","4.14","0.02","0.15","29.8083","4.70567","55.63","0","SATNPRO1509","29.586000000000002","0.41436","5"],
    [46157,"HCEP03730542","2025-01-21 03:00:00","10.2823","3.3194","25.732","5.179","7.68","0.272","2.921","0.01","0.21","29.7948","4.70406","55.86","0","SATNPRO1509","30.258","0.42382","5"],
    [46158,"HCEP03730542","2025-01-21 03:15:00","10.2824","3.31974","25.743","5.309","7.68","0.281","3.823","0.02","0.37","29.7981","4.70453","57.26","0","SATNPRO1509","30.046","0.42082","5"],
    [46159,"HCEP03730542","2025-01-21 03:30:00","10.2848","3.32035","25.765","5.368","7.68","0.265","2.77","0.01","0.09","29.8021","4.70507","57.9","0","SATNPRO1509","29.706","0.41608","5"],
    [46160,"HCEP03730542","2025-01-21 03:45:00","10.2775","3.31893","25.794","5.353","7.69","0.256","3.054","0.01","0.21","29.7939","4.70402","57.72","0","SATNPRO1509","30.036","0.42068","5"],
    [46161,"HCEP03730542","2025-01-21 04:00:00","10.2762","3.31839","25.839","5.377","7.68","0.273","3.149","0.02","0.43","29.7897","4.70344","57.98","0","SATNPRO1509","29.49","0.41304","5"],
    [46162,"HCEP03730542","2025-01-21 04:15:00","10.2915","3.32113","25.874","5.334","7.68","0.259","3.469","0.01","0.09","29.8044","4.70529","57.53","0","SATNPRO1509","29.508","0.4133","5"],
    [46163,"HCEP03730542","2025-01-21 04:30:00","10.3144","3.32498","25.936","5.231","7.66","0.271","4.327","0.01","0.31","29.8238","4.70767","56.46","0","SATNPRO1509","29.31","0.41056","5"],
    [46164,"HCEP03730542","2025-01-21 04:45:00","10.3198","3.32607","26.01","5.022","7.65","0.259","5.024","0.01","0.23","29.8302","4.7085","54.21","0","SATNPRO1509","28.668","0.40158","5"],
    [46165,"HCEP03730542","2025-01-21 05:00:00","10.3224","3.32639","26.092","4.952","7.65","0.271","4.774","0.01","0.22","29.8311","4.7086","53.47","0","SATNPRO1509","28.798000000000002","0.40334","5"],
    [46166,"HCEP03730542","2025-01-21 05:15:00","10.3138","3.32526","26.174","4.965","7.66","0.25","3.729","0.01","0.11","29.827","4.70817","53.59","0","SATNPRO1509","29.102","0.40766","5"],
    [46167,"HCEP03730542","2025-01-21 05:30:00","10.2873","3.3211","26.279","5.06","7.67","0.283","3.511","0.02","0.21","29.8073","4.70579","54.57","0","SATNPRO1509","29.312","0.41054","5"],
    [46168,"HCEP03730542","2025-01-21 05:45:00","10.283","3.32047","26.382","5.267","7.68","0.25","2.904","0.01","0.13","29.8046","4.70548","56.81","0","SATNPRO1509","29.5","0.41318","5"],
    [46169,"HCEP03730542","2025-01-21 06:00:00","10.2825","3.32066","26.487","5.29","7.68","0.261","2.852","0.01","0.14","29.8068","4.70581","57.05","0","SATNPRO1509","29.52","0.4135","5"],
    [46170,"HCEP03730542","2025-01-21 06:15:00","10.285","3.32143","26.606","5.287","7.68","0.246","3.061","0.01","0.15","29.8124","4.70658","57.03","0","SATNPRO1509","29.514","0.41338","5"],
    [46171,"HCEP03730542","2025-01-21 06:30:00","10.2776","3.32097","26.724","5.284","7.68","0.254","3.793","0.01","0.41","29.8139","4.70692","56.98","0","SATNPRO1509","29.49","0.41308","5"],
    [46172,"HCEP03730542","2025-01-21 06:45:00","10.2876","3.3224","26.851","5.253","7.67","0.256","5.498","0.02","0.3","29.8198","4.7076","56.66","0","SATNPRO1509","28.948","0.40548","5"],
    [46173,"HCEP03730542","2025-01-21 07:00:00","10.2693","3.32017","26.968","5.171","7.67","0.266","4.993","0.01","0.3","29.8126","4.70689","55.75","0","SATNPRO1509","29.328","0.4108","5"],
    [46174,"HCEP03730542","2025-01-21 07:15:00","10.2421","3.31752","27.076","5.247","7.68","0.26","4.925","0.02","0.56","29.8085","4.70676","56.55","0","SATNPRO1509","29.578","0.41432","5"],
    [46175,"HCEP03730542","2025-01-21 07:30:00","10.2628","3.31898","27.18","5.3","7.68","0.306","5.697","0.04","0.68","29.8059","4.70605","57.13","0","SATNPRO1509","29.198","0.40894","5"],
    [46176,"HCEP03730542","2025-01-21 07:45:00","10.2591","3.31865","27.283","5.271","7.67","0.26","4.514","0.01","0.44","29.8056","4.70608","56.82","0","SATNPRO1509","29.128","0.40798","5"],
    [46177,"HCEP03730542","2025-01-21 08:00:00","10.2502","3.31696","27.389","5.26","7.68","0.278","5.03","0.01","0.27","29.7962","4.70488","56.69","0","SATNPRO1509","29.186","0.40876","5"],
    [46178,"HCEP03730542","2025-01-21 08:15:00","10.2343","3.31556","27.469","5.317","7.68","0.257","3.785","0.02","0.32","29.7952","4.70502","57.29","0","SATNPRO1509","29.354","0.41112","5"],
    [46179,"HCEP03730542","2025-01-21 08:30:00","10.2233","3.3143","27.538","5.382","7.69","0.271","4.09","0.03","0.79","29.7917","4.70471","57.96","0","SATNPRO1509","29.324","0.41074","5"],
    [46180,"HCEP03730542","2025-01-21 08:45:00","10.2301","3.31501","27.579","5.429","7.68","0.26","4.555","0.01","0.18","29.7931","4.7048","58.48","0","SATNPRO1509","29.06","0.40704","5"],
    [46181,"HCEP03730542","2025-01-21 09:00:00","10.2313","3.31502","27.624","5.377","7.68","0.286","4.596","0.01","0.27","29.7923","4.70466","57.92","0","SATNPRO1509","28.974","0.40584","5"],
    [46182,"HCEP03730542","2025-01-21 09:15:00","10.2263","3.3144","27.632","5.337","7.68","0.284","4.911","0.01","0.24","29.7902","4.70444","57.48","0","SATNPRO1509","29.09","0.40746","5"],
    [46183,"HCEP03730542","2025-01-21 09:30:00","10.2198","3.31361","27.623","5.339","7.68","0.292","4.729","0.02","0.26","29.7877","4.70419","57.49","0","SATNPRO1509","29.024","0.40652","5"],
    [46184,"HCEP03730542","2025-01-21 09:45:00","10.2139","3.31292","27.648","5.371","7.68","0.295","4.593","0.02","0.24","29.7856","4.70399","57.84","0","SATNPRO1509","28.98","0.40592","5"],
    [46185,"HCEP03730542","2025-01-21 10:00:00","10.2104","3.31241","27.654","5.406","7.69","0.311","4.361","0.03","0.25","29.7834","4.70374","58.21","0","SATNPRO1509","29.042","0.40682","5"],
    [46186,"HCEP03730542","2025-01-21 10:15:00","10.2112","3.3124","27.637","5.433","7.69","0.274","4.444","0.02","0.46","29.7826","4.70361","58.49","0","SATNPRO1509","29.052","0.40692","5"],
    [46187,"HCEP03730542","2025-01-21 10:30:00","10.206","3.31166","27.612","5.444","7.69","0.333","4.278","0.02","0.28","29.7795","4.70326","58.61","0","SATNPRO1509","29.208","0.40908","5"],
    [46188,"HCEP03730542","2025-01-21 10:45:00","10.2055","3.31158","27.55","5.485","7.69","0.262","4.079","0.01","0.24","29.7792","4.70321","59.05","0","SATNPRO1509","29.24","0.40958","5"],
    [46189,"HCEP03730542","2025-01-21 11:00:00","10.2038","3.31133","27.505","5.499","7.69","0.272","4.18","0.01","0.18","29.7781","4.70309","59.19","0","SATNPRO1509","29.22","0.4093","5"],
    [46190,"HCEP03730542","2025-01-21 11:15:00","10.2076","3.31176","27.405","5.508","7.69","0.281","4.873","0.04","0.43","29.7793","4.70319","59.3","0","SATNPRO1509","29.246000000000002","0.40966","5"],
    [46191,"HCEP03730542","2025-01-21 11:30:00","10.2046","3.31139","27.306","5.478","7.69","0.289","5.252","0.01","3.32","29.7781","4.70306","58.97","0","SATNPRO1509","29.18","0.40866","5"],
    [46192,"HCEP03730542","2025-01-21 11:45:00","10.2064","3.31162","27.212","5.483","7.69","0.282","5.019","0.01","0.38","29.7789","4.70314","59.03","0","SATNPRO1509","29.118","0.40784","5"],
    [46193,"HCEP03730542","2025-01-21 12:00:00","10.2077","3.31167","27.089","5.479","7.69","0.354","5.944","0.16","5.59","29.7784","4.70304","58.99","0","SATNPRO1509","29.098","0.40754","5"],
    [46194,"HCEP03730542","2025-01-21 12:15:00","10.2086","3.31168","26.954","5.478","7.69","0.264","4.202","0.01","0.16","29.7779","4.70294","58.98","0","SATNPRO1509","29.114","0.40782","5"],
    [46195,"HCEP03730542","2025-01-21 12:30:00","10.207","3.31135","26.796","5.483","7.69","0.338","4.184","0.03","0.19","29.7759","4.70268","59.02","0","SATNPRO1509","29.25","0.4097","5"],
    [46196,"HCEP03730542","2025-01-21 12:45:00","10.2101","3.31163","26.641","5.505","7.69","0.338","4.592","0.01","0.23","29.7763","4.70267","59.27","0","SATNPRO1509","29.228","0.4094","5"],
    [46197,"HCEP03730542","2025-01-21 13:00:00","10.2079","3.31129","26.501","5.51","7.69","0.301","4.057","0.01","0.17","29.7747","4.70248","59.32","0","SATNPRO1509","29.378","0.41148","5"],
    [46198,"HCEP03730542","2025-01-21 13:15:00","10.205","3.31101","26.338","5.539","7.7","0.285","3.715","0.02","0.19","29.7744","4.70246","59.63","0","SATNPRO1509","29.407999999999998","0.41188","5"],
    [46199,"HCEP03730542","2025-01-21 13:30:00","10.2061","3.31111","26.181","5.565","7.7","0.3","3.853","0.02","0.25","29.7745","4.70246","59.91","0","SATNPRO1509","29.21","0.40916","5"],
    [46200,"HCEP03730542","2025-01-21 13:45:00","10.2086","3.3114","26.029","5.564","7.69","0.337","4.965","0.01","0.36","29.7755","4.70255","59.9","0","SATNPRO1509","29.31","0.41054","5"],
    [46201,"HCEP03730542","2025-01-21 14:00:00","10.2084","3.31158","25.886","5.55","7.69","0.324","4.112","0.06","0.54","29.7775","4.70283","59.75","0","SATNPRO1509","29.324","0.41074","5"],
    [46202,"HCEP03730542","2025-01-21 14:15:00","10.2065","3.31135","25.704","5.535","7.7","0.292","3.909","0.01","0.29","29.7768","4.70276","59.59","0","SATNPRO1509","29.414","0.41196","5"],
    [46203,"HCEP03730542","2025-01-21 14:30:00","10.2051","3.31115","25.545","5.565","7.7","0.282","3.725","0.01","0.24","29.776","4.70266","59.91","0","SATNPRO1509","29.502","0.4132","5"],
    [46204,"HCEP03730542","2025-01-21 14:45:00","10.2005","3.31129","25.387","5.605","7.7","0.319","4","0.02","0.26","29.7813","4.70347","60.34","0","SATNPRO1509","29.384","0.4116","5"],
    [46205,"HCEP03730542","2025-01-21 15:00:00","10.2202","3.31291","25.26","5.567","7.69","0.343","6.033","0.02","0.59","29.7812","4.70313","59.95","0","SATNPRO1509","29.014","0.40636","5"],
    [46206,"HCEP03730542","2025-01-21 15:15:00","10.2201","3.3131","25.144","5.476","7.69","0.313","4.511","0.01","0.29","29.7833","4.70342","58.97","0","SATNPRO1509","29.116","0.4078","5"],
    [46207,"HCEP03730542","2025-01-21 15:30:00","10.2175","3.31282","25.061","5.47","7.69","0.301","3.773","0.02","0.19","29.7827","4.70337","58.9","0","SATNPRO1509","29.404","0.41186","5"],
    [46208,"HCEP03730542","2025-01-21 15:45:00","10.2223","3.31347","24.976","5.483","7.69","0.282","4.16","0.02","0.42","29.7853","4.70365","59.05","0","SATNPRO1509","29.19","0.40884","5"],
    [46209,"HCEP03730542","2025-01-21 16:00:00","10.2349","3.31476","24.923","5.435","7.68","0.297","5.04","0.02","1.74","29.7878","4.7038","58.55","0","SATNPRO1509","29.3","0.41042","5"],
    [46210,"HCEP03730542","2025-01-21 16:15:00","10.2399","3.31532","24.887","5.367","7.68","0.284","4.43","0.02","0.69","29.7892","4.70392","57.82","0","SATNPRO1509","29.154","0.40834","5"],
    [46211,"HCEP03730542","2025-01-21 16:30:00","10.2414","3.31539","24.875","5.328","7.68","0.276","4.191","0.01","0.18","29.7888","4.70384","57.41","0","SATNPRO1509","29.064","0.40706","5"],
    [46212,"HCEP03730542","2025-01-21 16:45:00","10.245","3.31572","24.874","5.301","7.67","0.264","4.033","0.01","0.15","29.7891","4.70382","57.12","0","SATNPRO1509","28.933999999999997","0.40526","5"],
    [46213,"HCEP03730542","2025-01-21 17:00:00","10.2501","3.31626","24.876","5.281","7.67","0.275","4.127","0.01","0.19","29.7902","4.7039","56.91","0","SATNPRO1509","29.044","0.40682","5"],
    [46214,"HCEP03730542","2025-01-21 17:15:00","10.2475","3.31572","24.89","5.258","7.67","0.275","4.515","0.01","0.3","29.787","4.70348","56.66","0","SATNPRO1509","29.058","0.40702","5"],
    [46215,"HCEP03730542","2025-01-21 17:30:00","10.2263","3.31286","24.921","5.302","7.68","0.275","3.812","0.01","0.21","29.776","4.70226","57.1","0","SATNPRO1509","29.408","0.41192","5"],
    [46216,"HCEP03730542","2025-01-21 17:45:00","10.2211","3.31177","24.965","5.434","7.69","0.275","4.515","0.01","0.35","29.7693","4.7014","58.51","0","SATNPRO1509","29.644","0.41524","5"],
    [46217,"HCEP03730542","2025-01-21 18:00:00","10.239","3.31446","25.024","5.466","7.68","0.288","4.386","0.01","0.26","29.7814","4.70283","58.88","0","SATNPRO1509","29.31","0.41056","5"],
    [46218,"HCEP03730542","2025-01-21 18:15:00","10.2178","3.31143","25.091","5.437","7.69","0.268","3.543","0.01","0.12","29.7686","4.70136","58.55","0","SATNPRO1509","29.622","0.41488","5"],
    [46219,"HCEP03730542","2025-01-21 18:30:00","10.2272","3.31276","25.166","5.525","7.69","0.292","3.992","0.01","0.15","29.7741","4.702","59.5","0","SATNPRO1509","29.740000000000002","0.41658","5"],
    [46220,"HCEP03730542","2025-01-21 18:45:00","10.2173","3.31138","25.233","5.524","7.7","0.278","3.885","0.01","0.16","29.7684","4.70135","59.48","0","SATNPRO1509","29.716","0.4162","5"],
    [46221,"HCEP03730542","2025-01-21 19:00:00","10.2179","3.31131","25.305","5.593","7.7","0.28","2.625","0.01","0.35","29.7673","4.70118","60.22","0","SATNPRO1509","29.624","0.41496","5"],
    [46222,"HCEP03730542","2025-01-21 19:15:00","10.2176","3.31122","25.381","5.576","7.7","0.264","2.652","0.01","0.17","29.7665","4.70109","60.03","0","SATNPRO1509","29.598","0.4146","5"],
    [46223,"HCEP03730542","2025-01-21 19:30:00","10.2174","3.31148","25.46","5.581","7.7","0.279","3.893","0.01","0.26","29.7692","4.70147","60.09","0","SATNPRO1509","29.79","0.41728","5"],
    [46224,"HCEP03730542","2025-01-21 19:45:00","10.2273","3.31271","25.578","5.568","7.69","0.264","3.715","0.01","0.25","29.7734","4.70191","59.97","0","SATNPRO1509","29.558","0.414","5"],
    [46225,"HCEP03730542","2025-01-21 20:00:00","10.2843","3.32049","25.649","5.438","7.66","0.288","4.952","0.02","0.38","29.8039","4.70533","58.65","0","SATNPRO1509","29.05","0.40692","5"],
    [46226,"HCEP03730542","2025-01-21 20:15:00","10.3399","3.32796","25.752","5.058","7.63","0.272","5.851","0.02","0.32","29.8325","4.7085","54.63","0","SATNPRO1509","28.02","0.39248","5"],
    [46227,"HCEP03730542","2025-01-21 20:30:00","10.3721","3.332","25.848","4.677","7.62","0.278","5.953","0.01","0.33","29.8462","4.70992","50.55","0","SATNPRO1509","27.952","0.3915","5"],
    [46228,"HCEP03730542","2025-01-21 20:45:00","10.3923","3.33431","25.963","4.444","7.6","0.256","5.79","0.01","0.3","29.8526","4.71051","48.06","0","SATNPRO1509","27.958000000000002","0.3916","5"],
    [46229,"HCEP03730542","2025-01-21 21:00:00","10.4085","3.33606","26.05","4.29","7.6","0.269","6.015","0.01","0.26","29.8566","4.71082","46.41","0","SATNPRO1509","28.006","0.39226","5"],
    [46230,"HCEP03730542","2025-01-21 21:15:00","10.4265","3.33797","26.185","4.177","7.59","0.252","5.595","0.01","0.31","29.8607","4.71112","45.21","0","SATNPRO1509","27.892","0.39066","5"],
    [46231,"HCEP03730542","2025-01-21 21:30:00","10.4389","3.33925","26.265","4.053","7.58","0.264","6.117","0.01","0.52","29.8631","4.71127","43.87","0","SATNPRO1509","28.044","0.39282","5"],
    [46232,"HCEP03730542","2025-01-21 21:45:00","10.4567","3.34101","26.335","3.965","7.57","0.243","5.231","0.01","0.13","29.8661","4.7114","42.95","0","SATNPRO1509","28.13","0.39398","5"],
    [46233,"HCEP03730542","2025-01-21 22:00:00","10.4794","3.34316","26.404","3.862","7.56","0.248","5.015","0.01","0.25","29.8686","4.7114","41.85","0","SATNPRO1509","28.374","0.39748","5"],
    [46234,"HCEP03730542","2025-01-21 22:15:00","10.5098","3.34646","26.437","3.73","7.55","0.235","5.063","0.01","0.18","29.8764","4.71203","40.44","0","SATNPRO1509","28.392","0.39764","5"],
    [46235,"HCEP03730542","2025-01-21 22:30:00","10.4556","3.33981","26.478","3.638","7.57","0.245","4.636","0.01","0.14","29.8549","4.70984","39.4","0","SATNPRO1509","28.63","0.401","5"],
    [46236,"HCEP03730542","2025-01-21 22:45:00","10.4214","3.33581","26.487","3.954","7.59","0.24","4.387","0.01","0.15","29.8433","4.70875","42.78","0","SATNPRO1509","28.798","0.40338","5"],
    [46237,"HCEP03730542","2025-01-21 23:00:00","10.4266","3.3367","26.493","4.175","7.59","0.26","4.387","0.02","0.5","29.8479","4.70931","45.19","0","SATNPRO1509","29.002","0.40624","5"],
    [46238,"HCEP03730542","2025-01-21 23:15:00","10.4279","3.3365","26.496","4.18","7.59","0.245","4.597","0.02","0.78","29.8448","4.70886","45.24","0","SATNPRO1509","28.942","0.40536","5"],
    [46239,"HCEP03730542","2025-01-21 23:30:00","10.4227","3.33611","26.51","4.193","7.59","0.283","4.923","0.03","0.76","29.8453","4.709","45.37","0","SATNPRO1509","29.052","0.4069","5"],
    [46240,"HCEP03730542","2025-01-21 23:45:00","10.4135","3.3351","26.523","4.251","7.6","0.266","4.45","0.03","0.68","29.8428","4.70881","45.99","0","SATNPRO1509","29.216","0.40924","5"],
    [46241,"HCEP03730542","2025-01-22 00:00:00","10.4377","3.33759","26.509","4.308","7.6","0.263","4.268","0.03","0.63","29.8476","4.70909","46.63","0","SATNPRO1509","29.38","0.41154","5"],
    [46242,"HCEP03730542","2025-01-22 00:15:00","10.4877","3.34299","26.488","4.187","7.58","0.26","4.383","0.03","1.01","29.8601","4.71006","45.38","0","SATNPRO1509","29.2","0.40896","5"],
    [46243,"HCEP03730542","2025-01-22 00:30:00","10.5276","3.34732","26.487","3.925","7.56","0.245","4.068","0.02","0.44","29.8703","4.71087","42.58","0","SATNPRO1509","29.162","0.40846","5"],
    [46244,"HCEP03730542","2025-01-22 00:45:00","10.5496","3.34956","26.484","3.667","7.55","0.231","3.901","0.01","0.21","29.8745","4.71111","39.8","0","SATNPRO1509","29.62","0.41486","5"],
    [46245,"HCEP03730542","2025-01-22 01:00:00","10.5676","3.35139","26.488","3.519","7.54","0.257","4.101","0.02","0.42","29.8778","4.7113","38.21","0","SATNPRO1509","29.478","0.41288","5"],
    [46246,"HCEP03730542","2025-01-22 01:15:00","10.5916","3.35416","26.453","3.38","7.52","0.252","4.59","0.02","0.39","29.8855","4.71202","36.72","0","SATNPRO1509","29.004","0.40626","5"],
    [46247,"HCEP03730542","2025-01-22 01:30:00","10.6039","3.35556","26.414","3.215","7.52","0.269","5.923","0.03","1.35","29.8893","4.71235","34.93","0","SATNPRO1509","28.968","0.40574","5"],
    [46248,"HCEP03730542","2025-01-22 01:45:00","10.6035","3.35542","26.383","3.112","7.51","0.246","4.664","0.02","0.43","29.8883","4.71221","33.81","0","SATNPRO1509","29.08","0.4073","5"],
    [46249,"HCEP03730542","2025-01-22 02:00:00","10.6019","3.35526","26.374","3.087","7.51","0.268","4.638","0.01","0.34","29.888","4.7122","33.54","0","SATNPRO1509","29.128","0.40798","5"],
    [46250,"HCEP03730542","2025-01-22 02:15:00","10.5993","3.35493","26.366","3.082","7.51","0.233","4.955","0.01","0.24","29.8868","4.71207","33.49","0","SATNPRO1509","29.002","0.40626","5"],
    [46251,"HCEP03730542","2025-01-22 02:30:00","10.5966","3.35451","26.331","3.09","7.52","0.251","4.489","0.01","0.34","29.8849","4.71184","33.57","0","SATNPRO1509","29.18","0.4087","5"],
    [46252,"HCEP03730542","2025-01-22 02:45:00","10.5944","3.35433","26.294","3.106","7.52","0.237","4.387","0.01","0.26","29.8849","4.71187","33.74","0","SATNPRO1509","29.126","0.40796","5"],
    [46253,"HCEP03730542","2025-01-22 03:00:00","10.5919","3.354","26.29","3.114","7.52","0.27","4.65","0.02","0.35","29.8838","4.71175","33.83","0","SATNPRO1509","29.118","0.40784","5"],
    [46254,"HCEP03730542","2025-01-22 03:15:00","10.5899","3.35371","26.272","3.127","7.52","0.234","4.357","0.01","0.35","29.8825","4.71159","33.97","0","SATNPRO1509","29.26","0.40986","5"],
    [46255,"HCEP03730542","2025-01-22 03:30:00","10.5874","3.35334","26.264","3.143","7.52","0.249","4.086","0.01","0.35","29.8809","4.7114","34.14","0","SATNPRO1509","29.162","0.40844","5"],
    [46256,"HCEP03730542","2025-01-22 03:45:00","10.5861","3.3531","26.221","3.169","7.52","0.231","3.985","0.01","0.26","29.8797","4.71125","34.42","0","SATNPRO1509","29.276","0.41008","5"],
    [46257,"HCEP03730542","2025-01-22 04:00:00","10.5897","3.3535","26.234","3.18","7.52","0.237","3.881","0.01","0.18","29.8807","4.71134","34.54","0","SATNPRO1509","29.188","0.40886","5"],
    [46258,"HCEP03730542","2025-01-22 04:15:00","10.5915","3.35376","26.221","3.171","7.52","0.226","3.877","0.01","0.25","29.8817","4.71146","34.45","0","SATNPRO1509","29.074","0.40722","5"],
    [46259,"HCEP03730542","2025-01-22 04:30:00","10.5938","3.354","26.243","3.158","7.52","0.243","4.176","0.01","0.25","29.8822","4.71149","34.31","0","SATNPRO1509","29.158","0.40836","5"],
    [46260,"HCEP03730542","2025-01-22 04:45:00","10.5926","3.35374","26.274","3.149","7.52","0.229","3.895","0.01","0.22","29.8806","4.71128","34.21","0","SATNPRO1509","29.25","0.4097","5"],
    [46261,"HCEP03730542","2025-01-22 05:00:00","10.5907","3.35337","26.305","3.165","7.52","0.24","3.831","0.01","0.2","29.8785","4.71102","34.39","0","SATNPRO1509","29.374000000000002","0.4114","5"],
    [46262,"HCEP03730542","2025-01-22 05:15:00","10.5916","3.35347","26.331","3.185","7.52","0.225","4.168","0.01","0.26","29.8787","4.71103","34.6","0","SATNPRO1509","29.27","0.40996","5"],
    [46263,"HCEP03730542","2025-01-22 05:30:00","10.591","3.35335","26.375","3.185","7.52","0.242","3.973","0.01","0.17","29.8781","4.71096","34.6","0","SATNPRO1509","29.382","0.41156","5"],
    [46264,"HCEP03730542","2025-01-22 05:45:00","10.5935","3.3537","26.427","3.178","7.52","0.237","4.384","0.02","0.37","29.8794","4.71111","34.52","0","SATNPRO1509","29.02","0.4065","5"],
    [46265,"HCEP03730542","2025-01-22 06:00:00","10.5918","3.35352","26.491","3.165","7.52","0.414","12.667","0.19","10.49","29.879","4.71108","34.38","0","SATNPRO1509","29.288","0.41026","5"],
    [46266,"HCEP03730542","2025-01-22 06:15:00","10.5926","3.35359","26.562","3.159","7.52","0.236","4.288","0.01","0.26","29.879","4.71107","34.32","0","SATNPRO1509","29.116","0.40778","5"],
    [46267,"HCEP03730542","2025-01-22 06:30:00","10.592","3.35358","26.634","3.146","7.52","0.588","46.17","0.17","20.68","29.8794","4.71114","34.18","0","SATNPRO1509","29.2","0.40898","5"],
    [46268,"HCEP03730542","2025-01-22 06:45:00","10.5919","3.35367","26.696","3.138","7.52","5.701","249.327","4.03","113.76","29.8804","4.71129","34.09","0","SATNPRO1509","29.048000000000002","0.40688","5"],
    [46269,"HCEP03730542","2025-01-22 07:00:00","10.5894","3.35351","26.8","3.124","7.52","0.246","4.569","0.01","0.26","29.8807","4.71138","33.93","0","SATNPRO1509","28.762","0.40284","5"],
    [46270,"HCEP03730542","2025-01-22 07:15:00","10.586","3.35324","26.897","3.131","7.52","0.232","4.626","0.01","0.27","29.8808","4.71146","34.01","0","SATNPRO1509","29.116","0.4078","5"],
    [46271,"HCEP03730542","2025-01-22 07:30:00","10.5739","3.35203","26.994","3.147","7.52","0.244","4.578","0.01","0.5","29.8788","4.71137","34.18","0","SATNPRO1509","29.17","0.40854","5"],
    [46272,"HCEP03730542","2025-01-22 07:45:00","10.5452","3.34871","27.067","3.24","7.53","0.232","4.201","0.01","0.29","29.8695","4.7105","35.16","0","SATNPRO1509","29.362000000000002","0.41126","5"],
    [46273,"HCEP03730542","2025-01-22 08:00:00","10.4839","3.34176","27.116","3.477","7.55","0.25","4.471","0.01","0.27","29.8508","4.70884","37.67","0","SATNPRO1509","29.23","0.40942","5"],
    [46274,"HCEP03730542","2025-01-22 08:15:00","10.4383","3.33712","27.119","3.8","7.57","0.266","5.076","0.02","0.33","29.8422","4.70835","41.13","0","SATNPRO1509","29.220000000000002","0.40924","5"],
    [46275,"HCEP03730542","2025-01-22 08:30:00","10.4125","3.33464","27.203","4.031","7.58","0.26","4.368","0.01","0.23","29.8388","4.70828","43.6","0","SATNPRO1509","28.928","0.40514","5"],
    [46276,"HCEP03730542","2025-01-22 08:45:00","10.4073","3.33432","27.267","4.135","7.59","0.292","5.009","0.02","0.32","29.8398","4.70852","44.73","0","SATNPRO1509","28.862","0.40428","5"],
    [46277,"HCEP03730542","2025-01-22 09:00:00","10.3922","3.33259","27.334","4.179","7.59","0.291","4.908","0.04","0.29","29.8351","4.70809","45.19","0","SATNPRO1509","28.726","0.40238","5"],
    [46278,"HCEP03730542","2025-01-22 09:15:00","10.3491","3.32754","27.366","4.266","7.61","0.326","4.723","0.02","0.3","29.8202","4.70668","46.08","0","SATNPRO1509","28.78","0.40314","5"],
    [46279,"HCEP03730542","2025-01-22 09:30:00","10.2966","3.32088","27.405","4.486","7.63","0.28","4.979","0.01","0.24","29.797","4.70424","48.4","0","SATNPRO1509","28.77","0.40298","5"],
    [46280,"HCEP03730542","2025-01-22 09:45:00","10.2763","3.3185","27.429","4.742","7.64","0.274","5.299","0.01","0.34","29.79","4.70358","51.13","0","SATNPRO1509","28.990000000000002","0.40606","5"],
    [46281,"HCEP03730542","2025-01-22 10:00:00","10.2374","3.31313","27.434","4.968","7.66","0.291","4.926","0.01","0.21","29.7685","4.70116","53.51","0","SATNPRO1509","29.19","0.40888","5"],
    [46282,"HCEP03730542","2025-01-22 10:15:00","10.2257","3.31157","27.433","5.25","7.67","0.281","4.664","0.01","0.16","29.7625","4.7005","56.53","0","SATNPRO1509","29.36","0.4112","5"],
    [46283,"HCEP03730542","2025-01-22 10:30:00","10.2233","3.31152","27.43","5.372","7.68","0.291","4.495","0.01","0.17","29.764","4.70075","57.85","0","SATNPRO1509","29.384","0.41158","5"],
    [46284,"HCEP03730542","2025-01-22 10:45:00","10.221","3.31142","27.414","5.415","7.68","0.271","4.596","0.01","0.19","29.7649","4.70092","58.31","0","SATNPRO1509","29.27","0.41","5"],
    [46285,"HCEP03730542","2025-01-22 11:00:00","10.2222","3.31206","27.389","5.436","7.68","0.282","4.605","0.02","0.46","29.7703","4.70167","58.54","0","SATNPRO1509","29.32","0.41068","5"],
    [46286,"HCEP03730542","2025-01-22 11:15:00","10.223","3.3126","27.358","5.445","7.68","0.308","4.95","0.04","0.32","29.775","4.70232","58.63","0","SATNPRO1509","29.308","0.41052","5"],
    [46287,"HCEP03730542","2025-01-22 11:30:00","10.222","3.31276","27.292","5.429","7.68","0.311","4.465","0.03","0.49","29.7775","4.70269","58.46","0","SATNPRO1509","29.32","0.41068","5"],
    [46288,"HCEP03730542","2025-01-22 11:45:00","10.2223","3.31278","27.233","5.411","7.68","0.274","4.638","0.02","0.2","29.7775","4.70267","58.27","0","SATNPRO1509","29.262","0.40982","5"],
    [46289,"HCEP03730542","2025-01-22 12:00:00","10.2211","3.31253","27.168","5.403","7.68","0.284","4.578","0.01","0.14","29.776","4.70247","58.19","0","SATNPRO1509","29.348","0.41108","5"],
    [46290,"HCEP03730542","2025-01-22 12:15:00","10.2192","3.31219","27.075","5.417","7.68","0.33","4.182","0.04","0.28","29.7741","4.70224","58.33","0","SATNPRO1509","29.216","0.40922","5"],
    [46291,"HCEP03730542","2025-01-22 12:30:00","10.2182","3.31194","26.982","5.435","7.68","0.296","4.593","0.06","1.04","29.7726","4.70203","58.52","0","SATNPRO1509","29.37","0.41138","5"],
    [46292,"HCEP03730542","2025-01-22 12:45:00","10.2169","3.31175","26.858","5.433","7.68","0.291","4.643","0.03","0.49","29.7719","4.70194","58.5","0","SATNPRO1509","29.248","0.40968","5"],
    [46293,"HCEP03730542","2025-01-22 13:00:00","10.2178","3.31179","26.736","5.425","7.68","0.277","4.22","0.01","0.17","29.7715","4.70187","58.41","0","SATNPRO1509","29.174","0.40864","5"],
    [46294,"HCEP03730542","2025-01-22 13:15:00","10.2182","3.31184","26.596","5.401","7.68","0.261","4.318","0.01","0.27","29.7717","4.70188","58.15","0","SATNPRO1509","29.164","0.40848","5"],
    [46295,"HCEP03730542","2025-01-22 13:30:00","10.2191","3.31187","26.44","5.394","7.68","0.342","4.767","0.02","0.41","29.7714","4.70181","58.08","0","SATNPRO1509","29.2","0.409","5"],
    [46296,"HCEP03730542","2025-01-22 13:45:00","10.2202","3.31195","26.3","5.371","7.68","0.29","4.685","0.02","0.28","29.7713","4.70177","57.84","0","SATNPRO1509","28.966","0.40576","5"],
    [46297,"HCEP03730542","2025-01-22 14:00:00","10.2202","3.31199","26.135","5.35","7.68","0.328","5.243","0.02","0.3","29.7718","4.70183","57.61","0","SATNPRO1509","29.084","0.40736","5"],
    [46298,"HCEP03730542","2025-01-22 14:15:00","10.2205","3.31204","25.986","5.34","7.68","0.309","5.143","0.02","0.25","29.7721","4.70186","57.5","0","SATNPRO1509","29.056","0.40696","5"],
    [46299,"HCEP03730542","2025-01-22 14:30:00","10.2209","3.31207","25.82","5.327","7.67","0.3","4.512","0.02","0.33","29.7722","4.70186","57.36","0","SATNPRO1509","28.958","0.40558","5"],
    [46300,"HCEP03730542","2025-01-22 14:45:00","10.2214","3.31214","25.668","5.312","7.67","0.27","4.451","0.01","0.24","29.7725","4.70189","57.2","0","SATNPRO1509","28.912","0.40496","5"],
    [46301,"HCEP03730542","2025-01-22 15:00:00","10.2214","3.31214","25.509","5.293","7.67","0.287","4.222","0.01","0.18","29.7725","4.70188","57","0","SATNPRO1509","28.894","0.40472","5"],
    [46302,"HCEP03730542","2025-01-22 15:15:00","10.2219","3.31219","25.358","5.297","7.67","0.275","3.947","0.01","0.21","29.7727","4.70188","57.04","0","SATNPRO1509","29.156","0.40834","5"],
    [46303,"HCEP03730542","2025-01-22 15:30:00","10.2213","3.31218","25.222","5.3","7.67","0.285","3.736","0.03","0.1","29.7731","4.70196","57.07","0","SATNPRO1509","29.004","0.40632","5"],
    [46304,"HCEP03730542","2025-01-22 15:45:00","10.222","3.31226","25.077","5.31","7.67","0.261","4.15","0.01","0.21","29.7733","4.70196","57.18","0","SATNPRO1509","28.894000000000002","0.4047","5"],
    [46305,"HCEP03730542","2025-01-22 16:00:00","10.2204","3.31215","24.974","5.291","7.67","0.281","3.891","0.01","0.16","29.7737","4.70204","56.97","0","SATNPRO1509","28.914","0.40498","5"],
    [46306,"HCEP03730542","2025-01-22 16:15:00","10.2198","3.31213","24.866","5.285","7.67","0.288","4.342","0.02","0.36","29.774","4.70208","56.91","0","SATNPRO1509","28.964","0.40566","5"],
    [46307,"HCEP03730542","2025-01-22 16:30:00","10.22","3.31222","24.799","5.267","7.67","0.282","3.927","0.01","0.21","29.7747","4.70218","56.72","0","SATNPRO1509","28.93","0.4052","5"],
    [46308,"HCEP03730542","2025-01-22 16:45:00","10.2215","3.31234","24.741","5.256","7.67","0.274","4.428","0.01","0.18","29.7748","4.70216","56.6","0","SATNPRO1509","29.006","0.40626","5"],
    [46309,"HCEP03730542","2025-01-22 17:00:00","10.2232","3.31264","24.717","5.237","7.67","0.288","4.962","0.01","0.33","29.7764","4.70236","56.4","0","SATNPRO1509","28.814","0.4036","5"],
    [46310,"HCEP03730542","2025-01-22 17:15:00","10.221","3.31259","24.704","5.228","7.67","1.371","27.614","1.99","20.2","29.7777","4.70259","56.3","0","SATNPRO1509","28.764","0.40292","5"],
    [46311,"HCEP03730542","2025-01-22 17:30:00","10.2199","3.31257","24.686","5.242","7.67","0.279","4.449","0.01","0.16","29.7784","4.7027","56.45","0","SATNPRO1509","29.032","0.40664","5"],
    [46312,"HCEP03730542","2025-01-22 17:45:00","10.219","3.31254","24.681","5.248","7.67","0.267","4.453","0.01","0.21","29.7788","4.70277","56.51","0","SATNPRO1509","28.872","0.40438","5"],
    [46313,"HCEP03730542","2025-01-22 18:00:00","10.2233","3.31305","24.697","5.25","7.67","0.284","5.041","0.01","0.09","29.7804","4.70292","56.54","0","SATNPRO1509","28.774","0.403","5"],
    [46314,"HCEP03730542","2025-01-22 18:15:00","10.2221","3.31314","24.724","5.231","7.67","0.261","4.716","0.01","0.17","29.7822","4.7032","56.33","0","SATNPRO1509","28.828","0.40376","5"],
    [46315,"HCEP03730542","2025-01-22 18:30:00","10.2236","3.31334","24.737","5.232","7.67","0.285","4.951","0.01","0.29","29.783","4.70329","56.35","0","SATNPRO1509","28.92","0.40508","5"],
    [46316,"HCEP03730542","2025-01-22 18:45:00","10.2221","3.31324","24.827","5.223","7.67","0.268","4.973","0.01","0.39","29.7833","4.70336","56.25","0","SATNPRO1509","29.528","0.4136","5"],
    [46317,"HCEP03730542","2025-01-22 19:00:00","10.2235","3.31331","24.91","5.229","7.67","0.294","5.276","0.01","0.46","29.7827","4.70327","56.32","0","SATNPRO1509","28.772000000000002","0.403","5"],
    [46318,"HCEP03730542","2025-01-22 19:15:00","10.2274","3.31376","24.985","5.208","7.66","0.278","5.389","0.01","0.29","29.7839","4.70337","56.1","0","SATNPRO1509","28.64","0.40114","5"],
    [46319,"HCEP03730542","2025-01-22 19:30:00","10.2282","3.31388","25.034","5.179","7.66","0.285","5.163","0.01","0.36","29.7845","4.70345","55.78","0","SATNPRO1509","28.638","0.4011","5"],
    [46320,"HCEP03730542","2025-01-22 19:45:00","10.2284","3.31384","25.134","5.165","7.66","0.284","5.563","0.02","0.31","29.7839","4.70336","55.63","0","SATNPRO1509","28.868","0.40432","5"],
    [46321,"HCEP03730542","2025-01-22 20:00:00","10.2262","3.31349","25.174","5.169","7.66","0.309","6.232","0.02","0.44","29.7821","4.70316","55.68","0","SATNPRO1509","28.784","0.40316","5"],
    [46322,"HCEP03730542","2025-01-22 20:15:00","10.222","3.31301","25.382","5.189","7.67","0.277","4.606","0.01","0.2","29.7807","4.70303","55.88","0","SATNPRO1509","28.956","0.40558","5"],
    [46323,"HCEP03730542","2025-01-22 20:30:00","10.2227","3.31297","25.415","5.216","7.67","0.281","4.473","0.01","0.24","29.7798","4.70289","56.17","0","SATNPRO1509","28.908","0.40488","5"],
    [46324,"HCEP03730542","2025-01-22 20:45:00","10.2269","3.3134","25.512","5.208","7.66","0.288","5.559","0.01","0.22","29.7805","4.70293","56.09","0","SATNPRO1509","28.704","0.40204","5"],
    [46325,"HCEP03730542","2025-01-22 21:00:00","10.2352","3.31452","25.638","5.167","7.66","2.789","291.133","1.51","214.57","29.7849","4.70343","55.66","0","SATNPRO1509","28.576","0.40022","5"],
    [46326,"HCEP03730542","2025-01-22 21:15:00","10.23","3.31388","25.767","5.135","7.66","0.26","4.605","0.01","0.22","29.7827","4.70321","55.32","0","SATNPRO1509","28.84","0.40394","5"],
    [46327,"HCEP03730542","2025-01-22 21:30:00","10.2271","3.31343","25.876","5.161","7.66","0.271","4.455","0.01","0.36","29.7806","4.70297","55.59","0","SATNPRO1509","28.708","0.40208","5"],
    [46328,"HCEP03730542","2025-01-22 21:45:00","10.2428","3.3157","25.985","5.161","7.66","0.263","4.585","0.01","0.2","29.7902","4.70408","55.61","0","SATNPRO1509","28.552","0.39996","5"],
    [46329,"HCEP03730542","2025-01-22 22:00:00","10.255","3.31747","26.089","5.073","7.65","0.286","4.866","0.01","0.15","29.7977","4.70495","54.68","0","SATNPRO1509","28.678","0.40168","5"],
    [46330,"HCEP03730542","2025-01-22 22:15:00","10.2685","3.31903","26.181","4.983","7.64","0.255","4.454","0.01","0.19","29.8022","4.70537","53.72","0","SATNPRO1509","28.71","0.40214","5"],
    [46331,"HCEP03730542","2025-01-22 22:30:00","10.2757","3.31993","26.264","4.911","7.64","0.275","4.89","0.01","0.2","29.8052","4.70569","52.96","0","SATNPRO1509","28.814","0.40364","5"],
    [46332,"HCEP03730542","2025-01-22 22:45:00","10.2681","3.31894","26.354","4.874","7.64","0.26","4.527","0.01","0.15","29.8016","4.7053","52.55","0","SATNPRO1509","28.872","0.40438","5"],
    [46333,"HCEP03730542","2025-01-22 23:00:00","10.2527","3.31686","26.385","4.918","7.65","0.276","4.813","0.01","0.27","29.7935","4.7044","53","0","SATNPRO1509","28.8","0.40334","5"],
    [46334,"HCEP03730542","2025-01-22 23:15:00","10.2543","3.31703","26.451","4.984","7.65","0.268","4.563","0.01","0.25","29.7939","4.70444","53.72","0","SATNPRO1509","28.894000000000002","0.4047","5"],
    [46335,"HCEP03730542","2025-01-22 23:30:00","10.2417","3.3152","26.516","5.028","7.66","0.289","4.214","0.03","0.18","29.7859","4.70352","54.17","0","SATNPRO1509","28.906","0.40488","5"],
    [46336,"HCEP03730542","2025-01-22 23:45:00","10.2435","3.31546","26.569","5.1","7.66","0.273","4.282","0.01","0.25","29.787","4.70365","54.96","0","SATNPRO1509","28.952","0.40556","5"],
    [46337,"HCEP03730542","2025-01-23 00:00:00","10.2474","3.31592","26.62","5.115","7.66","0.275","4.066","0.01","0.19","29.7884","4.70378","55.12","0","SATNPRO1509","28.914","0.405","5"],
    [46338,"HCEP03730542","2025-01-23 00:15:00","10.2651","3.31813","26.659","5.082","7.65","0.257","4.518","0.01","0.2","29.7958","4.70455","54.79","0","SATNPRO1509","28.82","0.40368","5"],
    [46339,"HCEP03730542","2025-01-23 00:30:00","10.2489","3.31602","26.692","5.03","7.66","0.268","4.028","0.01","0.22","29.7882","4.70372","54.2","0","SATNPRO1509","29.018","0.4064","5"],
    [46340,"HCEP03730542","2025-01-23 00:45:00","10.2453","3.31519","26.708","5.098","7.66","0.33","6.897","0.03","0.87","29.7829","4.70303","54.93","0","SATNPRO1509","29.137999999999998","0.40814","5"],
    [46341,"HCEP03730542","2025-01-23 01:00:00","10.2323","3.31356","26.726","5.171","7.67","0.271","3.568","0.01","0.11","29.7773","4.70245","55.7","0","SATNPRO1509","29.298000000000002","0.41034","5"],
    [46342,"HCEP03730542","2025-01-23 01:15:00","10.2258","3.31277","26.724","5.256","7.67","0.255","3.502","0.01","0.17","29.7747","4.70219","56.6","0","SATNPRO1509","29.310000000000002","0.41048","5"],
    [46343,"HCEP03730542","2025-01-23 01:30:00","10.2211","3.31209","26.731","5.326","7.68","0.269","3.402","0.01","0.33","29.7718","4.70185","57.35","0","SATNPRO1509","29.306","0.41046","5"],
    [46344,"HCEP03730542","2025-01-23 01:45:00","10.2197","3.31176","26.732","5.369","7.68","0.254","3.124","0.01","0.16","29.7696","4.70157","57.81","0","SATNPRO1509","29.47","0.4128","5"],
    [46345,"HCEP03730542","2025-01-23 02:00:00","10.2179","3.31025","26.722","5.463","7.7","0.29","3.633","0.02","0.73","29.7561","4.69967","58.81","0","SATNPRO1509","30.394","0.42574","5"],
    [46346,"HCEP03730542","2025-01-23 02:15:00","10.2285","3.31028","26.724","5.672","7.71","0.258","1.346","0.01","0.15","29.7477","4.69829","61.08","0","SATNPRO1509","30.384","0.42562","5"],
    [46347,"HCEP03730542","2025-01-23 02:30:00","10.2189","3.31083","26.716","5.761","7.69","0.287","3.052","0.02","0.23","29.7611","4.70036","62.03","0","SATNPRO1509","29.554","0.41394","5"],
    [46348,"HCEP03730542","2025-01-23 02:45:00","10.2206","3.31183","26.701","5.605","7.68","0.262","2.956","0.01","0.14","29.7696","4.70155","60.35","0","SATNPRO1509","29.428","0.4122","5"],
    [46349,"HCEP03730542","2025-01-23 03:00:00","10.235900000000001","3.31406","26.683","5.461","7.67","0.268","4.255","0.01","0.18","29.7793","4.70267","58.83","0","SATNPRO1509","29.254","0.40972","5"],
    [46350,"HCEP03730542","2025-01-23 03:15:00","10.2296","3.31346","26.661","5.352","7.67","0.281","4.285","0.04","0.28","29.7784","4.70266","57.65","0","SATNPRO1509","29.368","0.41134","5"],
    [46351,"HCEP03730542","2025-01-23 03:30:00","10.2509","3.31595","26.64","5.315","7.67","0.271","3.867","0.01","0.14","29.7858","4.70335","57.28","0","SATNPRO1509","29.308","0.41052","5"],
    [46352,"HCEP03730542","2025-01-23 03:45:00","10.2876","3.32128","26.63","5.157","7.64","0.272","5.571","0.01","0.39","29.8087","4.70601","55.63","0","SATNPRO1509","28.928","0.40518","5"],
    [46353,"HCEP03730542","2025-01-23 04:00:00","10.297","3.32221","26.635","4.892","7.63","0.353","7.139","0.02","0.19","29.8102","4.70608","52.79","0","SATNPRO1509","28.986","0.406","5"],
    [46354,"HCEP03730542","2025-01-23 04:15:00","10.2258","3.3129","26.603","4.855","7.66","0.26","3.087","0.01","0.1","29.7761","4.70238","52.29","0","SATNPRO1509","29.178","0.40868","5"],
    [46355,"HCEP03730542","2025-01-23 04:30:00","10.2238","3.31266","26.572","5.182","7.67","0.266","3.199","0.01","0.11","29.7753","4.7023","55.81","0","SATNPRO1509","29.122","0.40792","5"],
    [46356,"HCEP03730542","2025-01-23 04:45:00","10.2233","3.31244","26.552","5.258","7.67","0.91","31.265","0.54","25.52","29.7736","4.70206","56.63","0","SATNPRO1509","29.122","0.40788","5"],
    [46357,"HCEP03730542","2025-01-23 05:00:00","10.225","3.31291","26.556","5.282","7.67","4","298.877","0.3","40.93","29.7768","4.70249","56.88","0","SATNPRO1509","29.208","0.4091","5"],
    [46358,"HCEP03730542","2025-01-23 05:15:00","10.2632","3.3178","26.562","5.237","7.65","1.1","68.48","0.06","12.91","29.7942","4.70434","56.46","0","SATNPRO1509","28.94","0.40536","5"],
    [46359,"HCEP03730542","2025-01-23 05:30:00","10.305","3.32317","26.568","4.989","7.62","0.362","46.9","0.02","10.2","29.8133","4.70637","53.83","0","SATNPRO1509","27.812","0.38958","5"],
    [46360,"HCEP03730542","2025-01-23 05:45:00","10.306","3.32359","26.585","4.648","7.62","0.296","9.104","0.03","0.41","29.8166","4.70683","50.16","0","SATNPRO1509","28.118","0.3938","5"],
    [46361,"HCEP03730542","2025-01-23 06:00:00","10.3064","3.32372","26.606","4.568","7.61","0.406","12.462","0.05","1.25","29.8175","4.70696","49.29","0","SATNPRO1509","28.134","0.39406","5"],
    [46362,"HCEP03730542","2025-01-23 06:15:00","10.3054","3.32369","26.629","4.537","7.61","0.273","7.612","0.01","0.25","29.8181","4.70706","48.96","0","SATNPRO1509","28.232","0.3954","5"],
    [46363,"HCEP03730542","2025-01-23 06:30:00","10.3061","3.32379","26.682","4.532","7.61","0.281","6.756","0.01","0.33","29.8185","4.70711","48.91","0","SATNPRO1509","28.208","0.39512","5"],
    [46364,"HCEP03730542","2025-01-23 06:45:00","10.3021","3.32343","26.722","4.536","7.61","0.25","5.15","0.01","0.25","29.8182","4.70714","48.95","0","SATNPRO1509","28.258","0.3958","5"],
    [46365,"HCEP03730542","2025-01-23 07:00:00","10.3025","3.3235","26.758","4.541","7.61","0.272","4.892","0.01","0.28","29.8186","4.70718","49","0","SATNPRO1509","28.174","0.39458","5"],
    [46366,"HCEP03730542","2025-01-23 07:15:00","10.2965","3.32274","26.791","4.534","7.61","0.247","4.682","0.01","0.2","29.8159","4.7069","48.92","0","SATNPRO1509","28.176","0.39462","5"],
    [46367,"HCEP03730542","2025-01-23 07:30:00","10.2855","3.32135","26.843","4.553","7.62","0.273","5.603","0.01","0.94","29.811","4.70639","49.11","0","SATNPRO1509","27.962","0.39164","5"],
    [46368,"HCEP03730542","2025-01-23 07:45:00","10.2789","3.32064","26.892","4.593","7.62","0.261","5.258","0.02","0.35","29.8094","4.70626","49.54","0","SATNPRO1509","28.082","0.39334","5"],
    [46369,"HCEP03730542","2025-01-23 08:00:00","10.2755","3.32021","26.943","4.63","7.62","0.281","5.924","0.01","0.57","29.8079","4.70611","49.93","0","SATNPRO1509","28.058","0.393","5"],
    [46370,"HCEP03730542","2025-01-23 08:15:00","10.274","3.32017","27.002","4.664","7.62","0.277","6.343","0.04","4.36","29.8088","4.70627","50.3","0","SATNPRO1509","28.022","0.3925","5"],
    [46371,"HCEP03730542","2025-01-23 08:30:00","10.2717","3.31993","27.045","4.672","7.62","0.285","5.46","0.02","0.42","29.8082","4.70623","50.37","0","SATNPRO1509","28.232","0.39546","5"],
    [46372,"HCEP03730542","2025-01-23 08:45:00","10.2652","3.31918","27.083","4.697","7.63","0.261","5.222","0.01","0.26","29.8061","4.70603","50.64","0","SATNPRO1509","28.616","0.40082","5"],
    [46373,"HCEP03730542","2025-01-23 09:00:00","10.2624","3.31883","27.123","4.756","7.63","0.275","5.006","0.01","0.31","29.8049","4.70591","51.27","0","SATNPRO1509","28.616","0.4008","5"],
    [46374,"HCEP03730542","2025-01-23 09:15:00","10.2567","3.31819","27.17","4.822","7.64","0.291","4.642","0.04","0.29","29.8031","4.70576","51.98","0","SATNPRO1509","28.82","0.4037","5"],
    [46375,"HCEP03730542","2025-01-23 09:30:00","10.2553","3.31811","27.215","4.94","7.64","0.265","4.231","0.01","0.24","29.8035","4.70583","53.25","0","SATNPRO1509","28.808","0.4035","5"],
    [46376,"HCEP03730542","2025-01-23 09:45:00","10.251","3.31757","27.268","4.959","7.65","0.261","5.019","0.02","0.27","29.8016","4.70564","53.45","0","SATNPRO1509","28.842","0.40396","5"],
    [46377,"HCEP03730542","2025-01-23 10:00:00","10.2476","3.31721","27.29","4.989","7.65","0.277","4.442","0.03","0.16","29.8008","4.70559","53.76","0","SATNPRO1509","28.91","0.40492","5"],
    [46378,"HCEP03730542","2025-01-23 10:15:00","10.2426","3.31662","27.293","5.014","7.65","0.251","4.064","0.02","0.33","29.799","4.7054","54.03","0","SATNPRO1509","28.752","0.40272","5"],
    [46379,"HCEP03730542","2025-01-23 10:30:00","10.2358","3.31574","27.311","5.065","7.66","0.275","4.474","0.03","0.46","29.7958","4.70506","54.57","0","SATNPRO1509","29.042","0.40678","5"],
    [46380,"HCEP03730542","2025-01-23 10:45:00","10.2412","3.31645","27.314","5.125","7.65","0.276","4.794","0.08","0.53","29.7984","4.70535","55.22","0","SATNPRO1509","28.65","0.40128","5"],
    [46381,"HCEP03730542","2025-01-23 11:00:00","10.2414","3.31652","27.31","5.054","7.65","0.267","4.408","0.01","0.2","29.799","4.70543","54.46","0","SATNPRO1509","28.802","0.40344","5"],
    [46382,"HCEP03730542","2025-01-23 11:15:00","10.2444","3.31698","27.297","5.029","7.65","0.268","6.886","0.01","0.49","29.8012","4.70569","54.19","0","SATNPRO1509","28.56","0.40006","5"],
    [46383,"HCEP03730542","2025-01-23 11:30:00","10.2506","3.31781","27.28","4.996","7.65","0.273","4.977","0.02","0.47","29.8043","4.70603","53.85","0","SATNPRO1509","28.784","0.4032","5"],
    [46384,"HCEP03730542","2025-01-23 11:45:00","10.255","3.3184","27.251","4.971","7.64","0.252","4.693","0.01","0.35","29.8066","4.70628","53.58","0","SATNPRO1509","28.674","0.4016","5"],
    [46385,"HCEP03730542","2025-01-23 12:00:00","10.2592","3.31893","27.197","4.927","7.64","0.262","4.828","0.01","0.62","29.8085","4.70648","53.12","0","SATNPRO1509","28.88","0.40454","5"],
    [46386,"HCEP03730542","2025-01-23 12:15:00","10.2582","3.31899","27.146","4.898","7.64","0.245","5.732","0.01","0.3","29.8098","4.70669","52.8","0","SATNPRO1509","28.96","0.40562","5"],
    [46387,"HCEP03730542","2025-01-23 12:30:00","10.2542","3.31848","27.1","4.887","7.64","0.263","4.649","0.01","0.3","29.8082","4.70651","52.67","0","SATNPRO1509","29.308","0.4105","5"],
    [46388,"HCEP03730542","2025-01-23 12:45:00","10.2085","3.31388","27.009","4.948","7.66","0.246","3.963","0.01","0.25","29.7998","4.70608","53.28","0","SATNPRO1509","29.592","0.4145","5"],
    [46389,"HCEP03730542","2025-01-23 13:00:00","10.1701","3.30953","26.901","5.174","7.67","0.27","3.515","0.02","0.43","29.7881","4.70503","55.66","0","SATNPRO1509","29.908","0.41892","5"],
    [46390,"HCEP03730542","2025-01-23 13:15:00","10.1331","3.30625","26.802","5.413","7.69","0.247","2.541","0.01","0.79","29.7858","4.70532","58.19","0","SATNPRO1509","30.338","0.42492","5"],
    [46391,"HCEP03730542","2025-01-23 13:30:00","10.1235","3.30541","26.667","5.582","7.7","0.253","1.804","0.01","0.1","29.7853","4.70541","59.98","0","SATNPRO1509","30.262","0.42388","5"],
    [46392,"HCEP03730542","2025-01-23 13:45:00","10.1325","3.3064","26.539","5.653","7.7","0.243","1.914","0.01","0.18","29.7878","4.70561","60.76","0","SATNPRO1509","30.28","0.42412","5"],
    [46393,"HCEP03730542","2025-01-23 14:00:00","10.141","3.30725","26.402","5.626","7.69","0.267","2.784","0.01","0.11","29.7895","4.70569","60.48","0","SATNPRO1509","30.09","0.42148","5"],
    [46394,"HCEP03730542","2025-01-23 14:15:00","10.1462","3.30789","26.251","5.594","7.69","0.252","2.653","0.02","0.18","29.7916","4.7059","60.15","0","SATNPRO1509","30.032","0.42066","5"],
    [46395,"HCEP03730542","2025-01-23 14:30:00","10.2036","3.31401","26.104","5.506","7.67","0.261","3.162","0.01","0.19","29.8056","4.70692","59.28","0","SATNPRO1509","29.646","0.41522","5"],
    [46396,"HCEP03730542","2025-01-23 14:45:00","10.1949","3.31289","25.952","5.27","7.66","0.244","3.032","0.01","0.14","29.8016","4.70649","56.72","0","SATNPRO1509","29.756","0.41678","5"],
    [46397,"HCEP03730542","2025-01-23 15:00:00","10.204","3.31392","25.802","5.204","7.66","0.258","3.497","0.01","0.12","29.8044","4.70673","56.03","0","SATNPRO1509","29.352","0.41114","5"],
    [46398,"HCEP03730542","2025-01-23 15:15:00","10.2158","3.31495","25.639","5.126","7.65","0.248","3.693","0.01","0.2","29.8051","4.70663","55.21","0","SATNPRO1509","29.578","0.41424","5"],
    [46399,"HCEP03730542","2025-01-23 15:30:00","10.223","3.31565","25.485","5.063","7.65","0.279","3.644","0.02","0.23","29.8062","4.70666","54.53","0","SATNPRO1509","29.316","0.41062","5"],
    [46400,"HCEP03730542","2025-01-23 15:45:00","10.208","3.31388","25.309","5.05","7.66","0.254","3.292","0.03","0.07","29.801","4.70615","54.38","0","SATNPRO1509","29.488","0.41304","5"],
    [46401,"HCEP03730542","2025-01-23 16:00:00","10.2244","3.31576","25.152","5.102","7.65","0.278","3.306","0.01","0.12","29.8062","4.70662","54.96","0","SATNPRO1509","29.458000000000002","0.4126","5"],
    [46402,"HCEP03730542","2025-01-23 16:15:00","10.2153","3.31477","25.011","5.071","7.65","0.274","4.306","0.01","0.16","29.8039","4.70643","54.61","0","SATNPRO1509","29.53","0.41364","5"],
    [46403,"HCEP03730542","2025-01-23 16:30:00","10.1913","3.31218","24.889","5.114","7.66","0.275","3.065","0.03","0.17","29.7979","4.70596","55.04","0","SATNPRO1509","29.823999999999998","0.4177","5"],
    [46404,"HCEP03730542","2025-01-23 16:45:00","10.1996","3.31322","24.794","5.21","7.66","0.251","2.733","0.01","0.06","29.8014","4.70633","56.09","0","SATNPRO1509","29.618","0.41486","5"],
    [46405,"HCEP03730542","2025-01-23 17:00:00","10.1905","3.31216","24.699","5.214","7.67","0.271","2.614","0.03","0.11","29.7984","4.70604","56.12","0","SATNPRO1509","29.798000000000002","0.41732","5"],
    [46406,"HCEP03730542","2025-01-23 17:15:00","10.1971","3.31291","24.597","5.254","7.67","0.301","23.796","0.07","27.35","29.8005","4.70622","56.56","0","SATNPRO1509","29.59","0.41446","5"],
    [46407,"HCEP03730542","2025-01-23 17:30:00","10.1872","3.31174","24.514","5.261","7.67","0.256","2.783","0.01","0.08","29.797","4.70589","56.61","0","SATNPRO1509","29.802","0.41746","5"],
    [46408,"HCEP03730542","2025-01-23 17:45:00","10.1867","3.31172","24.46","5.307","7.67","0.251","2.641","0.01","0.05","29.7972","4.70592","57.11","0","SATNPRO1509","29.852","0.41818","5"],
    [46409,"HCEP03730542","2025-01-23 18:00:00","10.1932","3.31226","24.441","5.316","7.67","0.284","3.496","0.01","0.16","29.7973","4.70583","57.22","0","SATNPRO1509","29.704","0.41604","5"],
    [46410,"HCEP03730542","2025-01-23 18:15:00","10.2002","3.31289","24.42","5.289","7.67","0.235","2.787","0.01","0.13","29.7978","4.70578","56.93","0","SATNPRO1509","29.584","0.41434","5"],
    [46411,"HCEP03730542","2025-01-23 18:30:00","10.1922","3.31201","24.416","5.28","7.67","0.247","2.307","0.01","0.04","29.7956","4.7056","56.83","0","SATNPRO1509","29.954","0.41956","5"],
    [46412,"HCEP03730542","2025-01-23 18:45:00","10.2123","3.31405","24.424","5.284","7.66","0.245","2.78","0.01","0.09","29.7995","4.70581","56.9","0","SATNPRO1509","29.509999999999998","0.41336","5"],
    [46413,"HCEP03730542","2025-01-23 19:00:00","10.2187","3.31475","24.444","5.19","7.66","0.264","3.098","0.02","0.12","29.8011","4.70595","55.9","0","SATNPRO1509","29.35","0.4111","5"],
    [46414,"HCEP03730542","2025-01-23 19:15:00","10.2305","3.31588","24.497","5.113","7.65","0.273","4.273","0.01","0.14","29.8028","4.70598","55.09","0","SATNPRO1509","29.026","0.40658","5"],
    [46415,"HCEP03730542","2025-01-23 19:30:00","10.2417","3.31693","24.561","5.02","7.64","0.293","4.922","0.01","0.22","29.8039","4.70597","54.09","0","SATNPRO1509","28.614","0.4008","5"],
    [46416,"HCEP03730542","2025-01-23 19:45:00","10.2413","3.3169","24.63","4.928","7.64","0.265","4.583","0.01","0.1","29.804","4.70599","53.1","0","SATNPRO1509","28.572","0.40018","5"],
    [46417,"HCEP03730542","2025-01-23 20:00:00","10.2408","3.3169","24.712","4.904","7.64","0.288","4.767","0.01","0.3","29.8044","4.70606","52.84","0","SATNPRO1509","28.702","0.40204","5"],
    [46418,"HCEP03730542","2025-01-23 20:15:00","10.2487","3.31783","24.788","4.87","7.63","0.272","5.06","0.03","0.17","29.807","4.70631","52.49","0","SATNPRO1509","28.332","0.39686","5"],
    [46419,"HCEP03730542","2025-01-23 20:30:00","10.2515","3.31819","24.877","4.789","7.63","0.311","5.965","0.01","0.15","29.8084","4.70646","51.62","0","SATNPRO1509","28.298","0.39636","5"],
    [46420,"HCEP03730542","2025-01-23 20:45:00","10.244","3.31727","24.983","4.772","7.63","0.272","5.555","0.01","0.26","29.8053","4.70615","51.42","0","SATNPRO1509","28.332","0.39688","5"],
    [46421,"HCEP03730542","2025-01-23 21:00:00","10.2505","3.31804","25.153","4.795","7.63","0.324","6.786","0.02","0.66","29.8075","4.70637","51.68","0","SATNPRO1509","28.346","0.39708","5"],
    [46422,"HCEP03730542","2025-01-23 21:15:00","10.2488","3.31786","25.207","4.766","7.63","0.289","6.078","0.02","0.46","29.8071","4.70634","51.36","0","SATNPRO1509","28.312","0.39656","5"],
    [46423,"HCEP03730542","2025-01-23 21:30:00","10.2528","3.31831","25.31","4.756","7.63","0.271","4.848","0.01","0.42","29.8083","4.70645","51.26","0","SATNPRO1509","28.156","0.39434","5"],
    [46424,"HCEP03730542","2025-01-23 21:45:00","10.2655","3.31984","25.515","4.694","7.62","0.261","5.44","0.01","0.28","29.8129","4.70692","50.61","0","SATNPRO1509","28.058","0.39302","5"],
    [46425,"HCEP03730542","2025-01-23 22:00:00","10.2632","3.31987","25.588","4.608","7.62","0.275","5.525","0.01","0.18","29.8151","4.70727","49.68","0","SATNPRO1509","28.384","0.39758","5"],
    [46426,"HCEP03730542","2025-01-23 22:15:00","10.264","3.32011","25.737","4.588","7.62","0.295","5.733","0.02","0.24","29.8167","4.70749","49.46","0","SATNPRO1509","28.534","0.39962","5"],
    [46427,"HCEP03730542","2025-01-23 22:30:00","10.2672","3.32068","25.889","4.569","7.61","0.276","5.2","0.01","0.25","29.8198","4.70789","49.26","0","SATNPRO1509","28.52","0.39946","5"],
    [46428,"HCEP03730542","2025-01-23 22:45:00","10.2672","3.32069","26.036","4.538","7.61","0.302","5.908","0.03","0.23","29.8199","4.70791","48.93","0","SATNPRO1509","28.542","0.39978","5"],
    [46429,"HCEP03730542","2025-01-23 23:00:00","10.2649","3.32046","26.164","4.519","7.61","0.299","5.8","0.02","0.23","29.8194","4.70788","48.73","0","SATNPRO1509","28.318","0.39664","5"],
    [46430,"HCEP03730542","2025-01-23 23:15:00","10.2621","3.32027","26.301","4.521","7.61","0.286","5.766","0.01","0.27","29.8197","4.70799","48.75","0","SATNPRO1509","28.419999999999998","0.39808","5"],
    [46431,"HCEP03730542","2025-01-23 23:30:00","10.2594","3.31997","26.401","4.522","7.61","0.305","5.912","0.01","0.29","29.8189","4.70792","48.75","0","SATNPRO1509","28.468","0.39876","5"],
    [46432,"HCEP03730542","2025-01-23 23:45:00","10.2531","3.31937","26.509","4.543","7.62","0.311","6.109","0.02","0.28","29.8181","4.70791","48.97","0","SATNPRO1509","28.814","0.40356","5"],
    [46433,"HCEP03730542","2025-01-24 00:00:00","10.2415","3.31798","26.609","4.611","7.62","0.289","5.168","0.02","0.24","29.8138","4.7075","49.69","0","SATNPRO1509","28.822","0.40366","5"],
    [46434,"HCEP03730542","2025-01-24 00:15:00","10.2377","3.31718","26.687","4.69","7.62","0.27","5.844","0.01","0.28","29.8089","4.70687","50.53","0","SATNPRO1509","28.848","0.4041","5"],
    [46435,"HCEP03730542","2025-01-24 00:30:00","10.2263","3.31587","26.761","4.749","7.63","0.276","5.408","0.01","0.35","29.8051","4.70652","51.15","0","SATNPRO1509","28.838","0.4039","5"],
    [46436,"HCEP03730542","2025-01-24 00:45:00","10.2195","3.31502","26.829","4.845","7.64","0.266","5.133","0.01","0.36","29.8023","4.70623","52.18","0","SATNPRO1509","29.146","0.40822","5"],
    [46437,"HCEP03730542","2025-01-24 01:00:00","10.2081","3.31382","26.875","4.952","7.65","0.295","4.516","0.02","0.22","29.7997","4.70605","53.32","0","SATNPRO1509","29.434","0.41226","5"],
    [46438,"HCEP03730542","2025-01-24 01:15:00","10.1969","3.31279","26.915","5.064","7.66","0.273","4.197","0.01","0.33","29.7986","4.70608","54.51","0","SATNPRO1509","29.554000000000002","0.41394","5"],
    [46439,"HCEP03730542","2025-01-24 01:30:00","10.1964","3.31286","26.938","5.137","7.65","0.293","5.244","0.01","0.21","29.7997","4.70625","55.3","0","SATNPRO1509","29.282","0.41018","5"],
    [46440,"HCEP03730542","2025-01-24 01:45:00","10.1958","3.31304","26.974","5.114","7.65","0.277","4.712","0.01","0.25","29.802","4.70659","55.05","0","SATNPRO1509","29.486","0.41298","5"],
    [46441,"HCEP03730542","2025-01-24 02:00:00","10.1938","3.31288","26.991","5.114","7.66","0.282","4.382","0.01","0.17","29.802","4.70662","55.05","0","SATNPRO1509","29.628","0.41502","5"],
    [46442,"HCEP03730542","2025-01-24 02:15:00","10.1899","3.31214","27.027","5.162","7.66","0.26","3.945","0.01","0.13","29.7979","4.70611","55.56","0","SATNPRO1509","29.686","0.41582","5"],
    [46443,"HCEP03730542","2025-01-24 02:30:00","10.1909","3.31246","27.041","5.219","7.66","0.282","3.804","0.01","0.13","29.8002","4.70642","56.17","0","SATNPRO1509","29.894","0.4187","5"],
    [46444,"HCEP03730542","2025-01-24 02:45:00","10.1942","3.31312","27.027","5.207","7.66","0.276","4.291","0.01","0.32","29.804","4.70692","56.06","0","SATNPRO1509","29.828","0.4178","5"],
    [46445,"HCEP03730542","2025-01-24 03:00:00","10.1941","3.31303","27.041","5.174","7.66","0.283","3.859","0.01","0.15","29.8032","4.70679","55.7","0","SATNPRO1509","29.944","0.41938","5"],
    [46446,"HCEP03730542","2025-01-24 03:15:00","10.1909","3.31254","27.049","5.191","7.66","0.244","2.783","0.01","0.12","29.801","4.70653","55.87","0","SATNPRO1509","29.962","0.41966","5"],
    [46447,"HCEP03730542","2025-01-24 03:30:00","10.185","3.31197","27.033","5.227","7.66","0.257","2.325","0.01","0.11","29.8002","4.70652","56.25","0","SATNPRO1509","30.284","0.42416","5"],
    [46448,"HCEP03730542","2025-01-24 03:45:00","10.1671","3.30994","27.028","5.289","7.67","0.242","2.501","0.02","0.13","29.7946","4.70601","56.9","0","SATNPRO1509","30.286","0.42418","5"],
    [46449,"HCEP03730542","2025-01-24 04:00:00","10.1722","3.31067","27.009","5.383","7.67","0.251","2.084","0.01","0.08","29.7977","4.70638","57.92","0","SATNPRO1509","30.27","0.424","5"],
    [46450,"HCEP03730542","2025-01-24 04:15:00","10.1727","3.31066","26.992","5.385","7.67","0.24","2.383","0.01","0.1","29.7971","4.70629","57.93","0","SATNPRO1509","30.21","0.42314","5"],
    [46451,"HCEP03730542","2025-01-24 04:30:00","10.1765","3.31044","26.963","5.41","7.68","0.248","1.753","0.01","0.07","29.7919","4.70547","58.21","0","SATNPRO1509","30.578","0.42832","5"],
    [46452,"HCEP03730542","2025-01-24 04:45:00","10.1826","3.31088","26.933","5.454","7.68","0.242","2.51","0.01","0.11","29.7913","4.70529","58.69","0","SATNPRO1509","30.352","0.42512","5"],
    [46453,"HCEP03730542","2025-01-24 05:00:00","10.1821","3.31077","26.914","5.445","7.68","0.255","2.058","0.01","0.19","29.7906","4.70519","58.59","0","SATNPRO1509","30.192","0.4229","5"],
    [46454,"HCEP03730542","2025-01-24 05:15:00","10.1808","3.31055","26.868","5.465","7.68","0.247","1.873","0.02","0.25","29.7895","4.70506","58.8","0","SATNPRO1509","30.618000000000002","0.42888","5"],
    [46455,"HCEP03730542","2025-01-24 05:30:00","10.1796","3.31051","26.839","5.506","7.68","0.277","2.636","0.02","0.28","29.7901","4.70515","59.24","0","SATNPRO1509","30.482","0.42692","5"],
    [46456,"HCEP03730542","2025-01-24 05:45:00","10.1783","3.31026","26.819","5.513","7.69","0.237","1.929","0.01","0.07","29.7887","4.70499","59.32","0","SATNPRO1509","30.628","0.429","5"],
    [46457,"HCEP03730542","2025-01-24 06:00:00","10.1857","3.31115","26.794","5.52","7.68","0.266","2.204","0.02","0.25","29.7915","4.70525","59.4","0","SATNPRO1509","30.364","0.42528","5"],
    [46458,"HCEP03730542","2025-01-24 06:15:00","10.1808","3.31072","26.783","5.454","7.68","0.266","3.163","0.03","0.26","29.7912","4.7053","58.69","0","SATNPRO1509","30.172","0.42264","5"],
    [46459,"HCEP03730542","2025-01-24 06:30:00","10.1793","3.31092","26.774","5.44","7.67","1.021","17.546","1.78","25.49","29.7944","4.70577","58.53","0","SATNPRO1509","30.012","0.42036","5"],
    [46460,"HCEP03730542","2025-01-24 06:45:00","10.1733","3.31054","26.779","5.387","7.67","0.262","2.949","0.02","0.21","29.7955","4.70604","57.95","0","SATNPRO1509","30.004","0.42026","5"],
    [46461,"HCEP03730542","2025-01-24 07:00:00","10.1691","3.31058","26.773","5.363","7.67","0.329","5.592","0.05","0.65","29.7994","4.70666","57.69","0","SATNPRO1509","29.986","0.41998","5"],
    [46462,"HCEP03730542","2025-01-24 07:15:00","10.1659","3.3104","26.777","5.328","7.67","0.25","3.392","0.01","0.16","29.8002","4.70683","57.31","0","SATNPRO1509","30.014","0.42038","5"],
    [46463,"HCEP03730542","2025-01-24 07:30:00","10.1745","3.31151","26.79","5.299","7.66","0.276","4.383","0.01","0.59","29.8043","4.70726","57.02","0","SATNPRO1509","29.576","0.41426","5"],
    [46464,"HCEP03730542","2025-01-24 07:45:00","10.1792","3.31204","26.826","5.225","7.66","0.27","4.825","0.01","0.25","29.8057","4.70739","56.23","0","SATNPRO1509","29.2","0.409","5"],
    [46465,"HCEP03730542","2025-01-24 08:00:00","10.1838","3.31256","26.841","5.168","7.65","0.279","4.915","0.01","0.28","29.807","4.7075","55.62","0","SATNPRO1509","29.524","0.41352","5"],
    [46466,"HCEP03730542","2025-01-24 08:15:00","10.1837","3.31254","26.877","5.123","7.65","0.294","6.326","0.02","1.2","29.8069","4.70749","55.13","0","SATNPRO1509","29.412","0.41194","5"],
    [46467,"HCEP03730542","2025-01-24 08:30:00","10.1854","3.31271","26.908","5.099","7.65","0.288","5.022","0.02","0.28","29.8072","4.7075","54.88","0","SATNPRO1509","29.304000000000002","0.41042","5"],
    [46468,"HCEP03730542","2025-01-24 08:45:00","10.1848","3.3126","26.939","5.082","7.65","0.29","5.273","0.03","0.79","29.8066","4.70742","54.69","0","SATNPRO1509","29.294","0.41028","5"],
    [46469,"HCEP03730542","2025-01-24 09:00:00","10.1867","3.31284","26.976","5.07","7.65","0.27","4.261","0.01","0.12","29.8075","4.70753","54.57","0","SATNPRO1509","29.336","0.4109","5"],
    [46470,"HCEP03730542","2025-01-24 09:15:00","10.1873","3.31288","27.005","5.051","7.65","0.269","5.031","0.01","0.38","29.8074","4.7075","54.36","0","SATNPRO1509","29.384","0.41156","5"],
    [46471,"HCEP03730542","2025-01-24 09:30:00","10.187","3.31282","27.038","5.04","7.65","0.276","4.453","0.01","0.24","29.8069","4.70745","54.24","0","SATNPRO1509","29.282","0.41018","5"],
    [46472,"HCEP03730542","2025-01-24 09:45:00","10.1879","3.31294","27.062","5.038","7.65","0.254","4.441","0.01","0.17","29.8074","4.7075","54.23","0","SATNPRO1509","29.298","0.41036","5"],
    [46473,"HCEP03730542","2025-01-24 10:00:00","10.1869","3.31273","27.089","5.037","7.65","0.271","4.182","0.01","0.21","29.8061","4.70733","54.21","0","SATNPRO1509","29.248","0.40968","5"],
    [46474,"HCEP03730542","2025-01-24 10:15:00","10.1888","3.31298","27.12","5.043","7.65","0.257","4.543","0.01","0.18","29.807","4.70744","54.28","0","SATNPRO1509","29.306","0.41046","5"],
    [46475,"HCEP03730542","2025-01-24 10:30:00","10.19","3.31315","27.152","5.019","7.65","0.269","4.319","0.01","0.17","29.8077","4.70751","54.02","0","SATNPRO1509","29.302","0.41042","5"],
    [46476,"HCEP03730542","2025-01-24 10:45:00","10.1907","3.3132","27.171","5.006","7.64","0.268","4.722","0.01","0.29","29.8077","4.7075","53.88","0","SATNPRO1509","29.218","0.40928","5"],
    [46477,"HCEP03730542","2025-01-24 11:00:00","10.191","3.31319","27.194","5.002","7.64","0.27","4.368","0.01","0.19","29.8072","4.70743","53.84","0","SATNPRO1509","29.354","0.4112","5"],
    [46478,"HCEP03730542","2025-01-24 11:15:00","10.1874","3.31261","27.197","5.009","7.65","0.256","3.741","0.01","0.23","29.8045","4.7071","53.91","0","SATNPRO1509","29.594","0.41454","5"],
    [46479,"HCEP03730542","2025-01-24 11:30:00","10.196","3.31362","27.202","5.038","7.64","0.279","4.335","0.02","0.16","29.8074","4.70738","54.23","0","SATNPRO1509","29.236","0.4095","5"],
    [46480,"HCEP03730542","2025-01-24 11:45:00","10.1983","3.31372","27.216","4.992","7.64","0.261","4.301","0.01","0.23","29.8065","4.7072","53.74","0","SATNPRO1509","29.098","0.40754","5"],
    [46481,"HCEP03730542","2025-01-24 12:00:00","10.2038","3.31417","27.207","4.965","7.64","0.283","4.607","0.01","0.24","29.8066","4.70712","53.45","0","SATNPRO1509","29.216","0.40918","5"],
    [46482,"HCEP03730542","2025-01-24 12:15:00","10.205","3.31412","27.163","4.944","7.64","0.261","4.32","0.01","0.22","29.805","4.70689","53.23","0","SATNPRO1509","29.349999999999998","0.41108","5"],
    [46483,"HCEP03730542","2025-01-24 12:30:00","10.206","3.31411","27.144","4.952","7.64","0.271","4.033","0.01","0.16","29.8042","4.70675","53.32","0","SATNPRO1509","29.368","0.41134","5"],
    [46484,"HCEP03730542","2025-01-24 12:45:00","10.2071","3.31401","27.089","4.967","7.64","0.258","4.194","0.01","0.17","29.8023","4.70645","53.48","0","SATNPRO1509","29.068","0.40712","5"],
    [46485,"HCEP03730542","2025-01-24 13:00:00","10.2108","3.31415","27.051","4.963","7.64","0.288","4.661","0.02","0.34","29.8006","4.70615","53.44","0","SATNPRO1509","28.924","0.40516","5"],
    [46486,"HCEP03730542","2025-01-24 13:15:00","10.2153","3.31452","26.997","4.924","7.64","0.29","6.035","0.01","0.22","29.8007","4.70608","53.03","0","SATNPRO1509","28.712","0.40216","5"],
    [46487,"HCEP03730542","2025-01-24 13:30:00","10.2218","3.31506","26.92","4.872","7.63","0.277","4.476","0.01","0.18","29.8007","4.70598","52.48","0","SATNPRO1509","28.678","0.4017","5"],
    [46488,"HCEP03730542","2025-01-24 13:45:00","10.2281","3.31555","26.829","4.827","7.63","0.269","4.885","0.01","0.42","29.8005","4.70583","51.99","0","SATNPRO1509","28.536","0.3997","5"],
    [46489,"HCEP03730542","2025-01-24 14:00:00","10.2298","3.31564","26.727","4.774","7.63","0.289","5.482","0.01","1.67","29.8001","4.70574","51.42","0","SATNPRO1509","28.41","0.3979","5"],
    [46490,"HCEP03730542","2025-01-24 14:15:00","10.2276","3.31553","26.619","4.753","7.63","0.267","4.895","0.01","0.14","29.8008","4.70588","51.2","0","SATNPRO1509","28.424","0.39808","5"],
    [46491,"HCEP03730542","2025-01-24 14:30:00","10.228","3.31555","26.491","4.751","7.62","0.331","5.2","0.01","0.37","29.8007","4.70584","51.18","0","SATNPRO1509","28.544","0.39978","5"],
    [46492,"HCEP03730542","2025-01-24 14:45:00","10.2336","3.31606","26.355","4.745","7.62","0.309","5.197","0.02","0.24","29.8013","4.70583","51.12","0","SATNPRO1509","28.362000000000002","0.39724","5"],
    [46493,"HCEP03730542","2025-01-24 15:00:00","10.2357","3.31618","26.214","4.717","7.62","0.286","4.629","0.01","0.19","29.8008","4.70571","50.82","0","SATNPRO1509","28.324","0.39674","5"],
    [46494,"HCEP03730542","2025-01-24 15:15:00","10.2342","3.31603","26.067","4.702","7.62","0.265","4.419","0.01","0.21","29.8005","4.70569","50.65","0","SATNPRO1509","28.286","0.3962","5"],
    [46495,"HCEP03730542","2025-01-24 15:30:00","10.2348","3.316","25.893","4.709","7.62","0.278","4.323","0.02","0.2","29.7998","4.70557","50.73","0","SATNPRO1509","28.498","0.3991","5"],
    [46496,"HCEP03730542","2025-01-24 15:45:00","10.2313","3.31572","25.715","4.738","7.62","0.266","4.462","0.01","0.27","29.8","4.70564","51.05","0","SATNPRO1509","28.546","0.39982","5"],
    [46497,"HCEP03730542","2025-01-24 16:00:00","10.2323","3.31571","25.557","4.752","7.62","0.27","4.144","0.01","0.45","29.7991","4.7055","51.19","0","SATNPRO1509","28.568","0.40016","5"],
    [46498,"HCEP03730542","2025-01-24 16:15:00","10.2221","3.31481","25.393","4.769","7.63","0.259","4.091","0.01","0.34","29.7986","4.70559","51.37","0","SATNPRO1509","28.896","0.40474","5"],
    [46499,"HCEP03730542","2025-01-24 16:30:00","10.2191","3.31452","25.242","4.827","7.63","0.284","4.525","0.01","0.3","29.7983","4.70558","51.99","0","SATNPRO1509","28.900000000000002","0.4048","5"],
    [46500,"HCEP03730542","2025-01-24 16:45:00","10.2166","3.31427","25.099","4.86","7.63","0.272","4.447","0.01","0.23","29.7978","4.70554","52.34","0","SATNPRO1509","28.828","0.4038","5"],
    [46501,"HCEP03730542","2025-01-24 17:00:00","10.2164","3.31421","24.966","4.879","7.63","0.287","4.431","0.01","0.38","29.7975","4.7055","52.54","0","SATNPRO1509","28.933999999999997","0.40528","5"],
    [46502,"HCEP03730542","2025-01-24 17:15:00","10.2155","3.31413","24.831","4.895","7.63","0.267","4.459","0.01","0.19","29.7975","4.7055","52.71","0","SATNPRO1509","28.918","0.40504","5"],
    [46503,"HCEP03730542","2025-01-24 17:30:00","10.2102","3.31382","24.721","4.904","7.64","0.313","5.603","0.02","0.37","29.7988","4.70576","52.81","0","SATNPRO1509","28.97","0.40576","5"],
    [46504,"HCEP03730542","2025-01-24 17:45:00","10.2107","3.31365","24.602","4.939","7.64","0.255","3.886","0.01","0.75","29.7968","4.70547","53.18","0","SATNPRO1509","29.471999999999998","0.41282","5"],
    [46505,"HCEP03730542","2025-01-24 18:00:00","10.1942","3.31195","24.46","5.033","7.65","0.268","3.227","0.02","0.54","29.7935","4.70526","54.17","0","SATNPRO1509","29.884","0.41856","5"],
    [46506,"HCEP03730542","2025-01-24 18:15:00","10.1567","3.30819","24.376","5.213","7.67","0.248","2.19","0.01","0.15","29.7867","4.70491","56.06","0","SATNPRO1509","30.596","0.4285","5"],
    [46507,"HCEP03730542","2025-01-24 18:30:00","10.166","3.30949","24.3","5.396","7.67","0.282","2.813","0.01","0.22","29.7921","4.70552","58.04","0","SATNPRO1509","30.354","0.42516","5"],
    [46508,"HCEP03730542","2025-01-24 18:45:00","10.1871","3.31178","24.254","5.326","7.66","0.282","4.217","0.03","0.3","29.7976","4.70595","57.32","0","SATNPRO1509","29.772","0.41698","5"],
    [46509,"HCEP03730542","2025-01-24 19:00:00","10.2058","3.31367","24.23","5.137","7.64","0.29","4.561","0.01","0.16","29.8011","4.70615","55.31","0","SATNPRO1509","28.986","0.40602","5"],
    [46510,"HCEP03730542","2025-01-24 19:15:00","10.2104","3.31397","24.235","4.956","7.63","0.262","4.314","0.01","0.24","29.8002","4.70594","53.37","0","SATNPRO1509","29.028","0.40658","5"],
    [46511,"HCEP03730542","2025-01-24 19:30:00","10.2126","3.31407","24.238","4.891","7.63","0.278","4.226","0.01","0.2","29.7995","4.70581","52.66","0","SATNPRO1509","28.806","0.4035","5"],
    [46512,"HCEP03730542","2025-01-24 19:45:00","10.2152","3.314","24.253","4.888","7.64","0.257","3.447","0.01","0.15","29.7967","4.70536","52.64","0","SATNPRO1509","29.178","0.40866","5"],
    [46513,"HCEP03730542","2025-01-24 20:00:00","10.2245","3.31487","24.287","4.899","7.63","0.266","3.714","0.01","0.14","29.7977","4.70535","52.77","0","SATNPRO1509","28.7","0.40204","5"],
    [46514,"HCEP03730542","2025-01-24 20:15:00","10.2354","3.31584","24.349","4.803","7.62","0.289","5.261","0.1","2.65","29.7984","4.70527","51.74","0","SATNPRO1509","28.256","0.39582","5"],
    [46515,"HCEP03730542","2025-01-24 20:30:00","10.2375","3.31601","24.424","4.68","7.62","0.297","6.604","0.02","4.02","29.7983","4.70523","50.43","0","SATNPRO1509","28.008","0.39228","5"],
    [46516,"HCEP03730542","2025-01-24 20:45:00","10.2413","3.31651","24.53","4.585","7.61","0.287","7.436","0.02","2.9","29.8002","4.70544","49.41","0","SATNPRO1509","27.46","0.38462","5"],
    [46517,"HCEP03730542","2025-01-24 21:00:00","10.2421","3.31651","24.648","4.475","7.6","0.302","5.948","0.04","0.77","29.7995","4.70533","48.22","0","SATNPRO1509","27.142","0.3802","5"],
    [46518,"HCEP03730542","2025-01-24 21:15:00","10.241","3.31636","24.749","4.455","7.6","0.313","9.068","0.05","7.19","29.7988","4.70526","48","0","SATNPRO1509","27.398","0.38372","5"],
    [46519,"HCEP03730542","2025-01-24 21:30:00","10.2361","3.31564","24.798","4.462","7.61","0.372","10.962","0.1","5.84","29.7956","4.70489","48.08","0","SATNPRO1509","27.728","0.3884","5"],
    [46520,"HCEP03730542","2025-01-24 21:45:00","10.2343","3.31546","24.981","4.513","7.61","0.288","13.56","0.02","8.36","29.7953","4.70488","48.62","0","SATNPRO1509","27.564","0.38604","5"],
    [46521,"HCEP03730542","2025-01-24 22:00:00","10.2339","3.31547","25.044","4.537","7.61","0.371","12.264","0.32","17.5","29.7957","4.70496","48.88","0","SATNPRO1509","28.03","0.3926","5"],
    [46522,"HCEP03730542","2025-01-24 22:15:00","10.2395","3.31624","25.25","4.538","7.6","0.282","5.82","0.01","0.45","29.7986","4.70528","48.9","0","SATNPRO1509","27.798","0.38934","5"],
    [46523,"HCEP03730542","2025-01-24 22:30:00","10.243","3.31663","25.344","4.475","7.6","0.317","6.337","0.02","0.45","29.7995","4.70536","48.21","0","SATNPRO1509","27.498","0.38518","5"],
    [46524,"HCEP03730542","2025-01-24 22:45:00","10.2437","3.3169","25.492","4.439","7.6","0.265","4.907","0.01","0.23","29.8016","4.70566","47.83","0","SATNPRO1509","27.454","0.38456","5"],
    [46525,"HCEP03730542","2025-01-24 23:00:00","10.2442","3.31693","25.649","4.405","7.6","0.284","4.856","0.02","0.14","29.8015","4.70564","47.47","0","SATNPRO1509","27.526","0.38554","5"],
    [46526,"HCEP03730542","2025-01-24 23:15:00","10.2371","3.31606","25.852","4.421","7.61","0.264","4.857","0.01","0.29","29.7986","4.70535","47.63","0","SATNPRO1509","28.032","0.39262","5"],
    [46527,"HCEP03730542","2025-01-24 23:30:00","10.2423","3.31687","25.995","4.505","7.6","0.272","4.559","0.01","0.2","29.8022","4.7058","48.55","0","SATNPRO1509","27.754","0.38876","5"],
    [46528,"HCEP03730542","2025-01-24 23:45:00","10.246","3.31747","26.155","4.453","7.6","0.256","4.82","0.01","0.21","29.8051","4.70616","47.99","0","SATNPRO1509","27.394","0.3837","5"],
    [46529,"HCEP03730542","2025-01-25 00:00:00","10.2446","3.31742","26.303","4.393","7.6","0.268","4.341","0.01","0.14","29.8058","4.70629","47.34","0","SATNPRO1509","27.791999999999998","0.38928","5"],
    [46530,"HCEP03730542","2025-01-25 00:15:00","10.2379","3.31693","26.435","4.404","7.6","0.259","4.869","0.01","0.2","29.8063","4.70648","47.45","0","SATNPRO1509","27.98","0.39196","5"],
    [46531,"HCEP03730542","2025-01-25 00:30:00","10.2332","3.31657","26.572","4.445","7.6","0.274","4.674","0.01","0.24","29.8066","4.70661","47.89","0","SATNPRO1509","28.056","0.39296","5"],
    [46532,"HCEP03730542","2025-01-25 00:45:00","10.2358","3.31676","26.669","4.487","7.61","0.254","4.394","0.01","0.26","29.8062","4.70651","48.34","0","SATNPRO1509","28.366","0.3973","5"],
    [46533,"HCEP03730542","2025-01-25 01:00:00","10.2306","3.31621","26.801","4.543","7.61","0.272","4.838","0.01","0.27","29.805","4.70644","48.94","0","SATNPRO1509","28.272","0.39598","5"],
    [46534,"HCEP03730542","2025-01-25 01:15:00","10.2239","3.31535","26.883","4.587","7.62","0.249","4.113","0.01","0.15","29.8019","4.7061","49.41","0","SATNPRO1509","28.872","0.40444","5"],
    [46535,"HCEP03730542","2025-01-25 01:30:00","10.2218","3.31506","26.973","4.715","7.62","0.282","4.844","0.02","0.28","29.8007","4.70598","50.78","0","SATNPRO1509","29.006","0.40626","5"],
    [46536,"HCEP03730542","2025-01-25 01:45:00","10.2231","3.31511","27.044","4.773","7.62","0.252","3.914","0.01","0.15","29.8","4.70586","51.4","0","SATNPRO1509","28.906","0.40486","5"],
    [46537,"HCEP03730542","2025-01-25 02:00:00","10.2318","3.31588","27.101","4.779","7.62","0.27","3.836","0.01","0.21","29.8006","4.70581","51.49","0","SATNPRO1509","28.596","0.40054","5"],
    [46538,"HCEP03730542","2025-01-25 02:15:00","10.2385","3.3164","27.153","4.712","7.61","0.254","4.022","0.01","0.15","29.8003","4.70566","50.76","0","SATNPRO1509","28.122","0.39394","5"],
    [46539,"HCEP03730542","2025-01-25 02:30:00","10.2378","3.31621","27.186","4.638","7.61","0.282","4.412","0.01","0.27","29.7989","4.70547","49.97","0","SATNPRO1509","27.94","0.39132","5"],
    [46540,"HCEP03730542","2025-01-25 02:45:00","10.233","3.31543","27.225","4.583","7.61","0.261","4.507","0.01","0.18","29.7951","4.70501","49.37","0","SATNPRO1509","27.856","0.3902","5"],
    [46541,"HCEP03730542","2025-01-25 03:00:00","10.2264","3.31455","27.256","4.57","7.61","0.28","3.997","0.01","0.18","29.7917","4.70464","49.23","0","SATNPRO1509","27.954","0.39156","5"],
    [46542,"HCEP03730542","2025-01-25 03:15:00","10.2273","3.31462","27.284","4.619","7.61","0.278","6.583","0.01","0.38","29.7916","4.70461","49.75","0","SATNPRO1509","27.992","0.39204","5"],
    [46543,"HCEP03730542","2025-01-25 03:30:00","10.2206","3.31384","27.285","4.656","7.62","0.275","3.576","0.02","0.12","29.7894","4.7044","50.14","0","SATNPRO1509","28.332","0.39686","5"],
    [46544,"HCEP03730542","2025-01-25 03:45:00","10.2264","3.31472","27.31","4.677","7.62","0.262","4.353","0.01","0.39","29.7934","4.70488","50.38","0","SATNPRO1509","28.41","0.3979","5"],
    [46545,"HCEP03730542","2025-01-25 04:00:00","10.2286","3.3149","27.292","4.647","7.61","0.275","3.844","0.02","0.15","29.7934","4.70484","50.06","0","SATNPRO1509","28.3","0.39636","5"],
    [46546,"HCEP03730542","2025-01-25 04:15:00","10.2292","3.31494","27.283","4.653","7.62","0.256","3.829","0.01","0.24","29.7934","4.70483","50.12","0","SATNPRO1509","28.169999999999998","0.39462","5"],
    [46547,"HCEP03730542","2025-01-25 04:30:00","10.2234","3.31484","27.267","4.654","7.61","0.288","5.201","0.04","0.26","29.7971","4.70546","50.13","0","SATNPRO1509","28.208","0.39508","5"],
    [46548,"HCEP03730542","2025-01-25 04:45:00","10.2035","3.31328","27.237","4.662","7.62","0.271","5.439","0.01","0.28","29.7979","4.70589","50.19","0","SATNPRO1509","28.52","0.39948","5"],
    [46549,"HCEP03730542","2025-01-25 05:00:00","10.19","3.31213","27.203","4.756","7.63","0.281","5.019","0.01","0.22","29.7975","4.70607","51.19","0","SATNPRO1509","28.983999999999998","0.40594","5"],
    [46550,"HCEP03730542","2025-01-25 05:15:00","10.1809","3.3114","27.166","4.86","7.64","0.257","4.377","0.01","0.24","29.7977","4.70624","52.3","0","SATNPRO1509","29.164","0.4085","5"],
    [46551,"HCEP03730542","2025-01-25 05:30:00","10.1794","3.31115","27.143","4.953","7.64","0.272","4.241","0.01","0.22","29.7965","4.70609","53.3","0","SATNPRO1509","29.264","0.40988","5"],
    [46552,"HCEP03730542","2025-01-25 05:45:00","10.1677","3.30991","27.108","5.022","7.65","0.253","4.052","0.01","0.27","29.7938","4.7059","54.02","0","SATNPRO1509","29.436","0.4123","5"],
    [46553,"HCEP03730542","2025-01-25 06:00:00","10.1684","3.31011","27.081","5.096","7.65","0.271","4.101","0.01","0.35","29.7952","4.70609","54.82","0","SATNPRO1509","29.43","0.4122","5"],
    [46554,"HCEP03730542","2025-01-25 06:15:00","10.1746","3.31067","27.03","5.091","7.65","0.254","4.038","0.01","0.3","29.7957","4.70606","54.77","0","SATNPRO1509","29.276","0.41006","5"],
    [46555,"HCEP03730542","2025-01-25 06:30:00","10.1721","3.31052","26.996","5.064","7.64","0.268","4.224","0.01","0.27","29.7963","4.70617","54.48","0","SATNPRO1509","29.274","0.41","5"],
    [46556,"HCEP03730542","2025-01-25 06:45:00","10.1782","3.31108","26.948","5.035","7.64","0.258","4.191","0.01","0.22","29.7969","4.70615","54.18","0","SATNPRO1509","29.182000000000002","0.40874","5"],
    [46557,"HCEP03730542","2025-01-25 07:00:00","10.1726","3.31063","26.914","5.005","7.64","0.275","4.392","0.01","0.4","29.7969","4.70626","53.85","0","SATNPRO1509","29.072","0.40724","5"],
    [46558,"HCEP03730542","2025-01-25 07:15:00","10.1681","3.31015","26.887","5.008","7.64","0.255","3.858","0.01","0.31","29.7959","4.70618","53.88","0","SATNPRO1509","29.456","0.41254","5"],
    [46559,"HCEP03730542","2025-01-25 07:30:00","10.1535","3.30854","26.865","5.072","7.65","0.272","3.162","0.02","0.16","29.7918","4.70584","54.55","0","SATNPRO1509","29.784","0.4172","5"],
    [46560,"HCEP03730542","2025-01-25 07:45:00","10.1388","3.307","26.858","5.187","7.66","0.255","2.821","0.02","0.16","29.7886","4.70563","55.76","0","SATNPRO1509","30.132","0.42204","5"],
    [46561,"HCEP03730542","2025-01-25 08:00:00","10.1343","3.30668","26.857","5.289","7.67","0.27","3.071","0.01","0.25","29.789","4.70576","56.85","0","SATNPRO1509","30.16","0.42244","5"],
    [46562,"HCEP03730542","2025-01-25 08:15:00","10.1309","3.30623","26.857","5.345","7.67","0.257","2.726","0.01","0.18","29.7875","4.7056","57.45","0","SATNPRO1509","30.184","0.42276","5"],
    [46563,"HCEP03730542","2025-01-25 08:30:00","10.1334","3.30668","26.857","5.378","7.67","0.365","5.034","0.32","4.61","29.7898","4.70589","57.81","0","SATNPRO1509","30","0.42022","5"],
    [46564,"HCEP03730542","2025-01-25 08:45:00","10.137","3.30699","26.874","5.358","7.67","0.247","3.75","0.05","3.89","29.79","4.70586","57.6","0","SATNPRO1509","30.064","0.4211","5"],
    [46565,"HCEP03730542","2025-01-25 09:00:00","10.1467","3.30807","26.879","5.332","7.66","0.285","2.956","0.08","0.2","29.7928","4.7061","57.33","0","SATNPRO1509","29.884","0.41856","5"],
    [46566,"HCEP03730542","2025-01-25 09:15:00","10.1563","3.30911","26.894","5.267","7.66","0.259","3.377","0.02","0.19","29.7952","4.70628","56.64","0","SATNPRO1509","29.644","0.41522","5"],
    [46567,"HCEP03730542","2025-01-25 09:30:00","10.1647","3.31019","26.917","5.189","7.65","0.276","4.144","0.01","0.47","29.7991","4.70669","55.82","0","SATNPRO1509","29.466","0.41274","5"],
    [46568,"HCEP03730542","2025-01-25 09:45:00","10.17","3.31078","26.931","5.091","7.64","0.287","4.644","0.1","0.48","29.8006","4.70682","54.78","0","SATNPRO1509","29.248","0.40966","5"],
    [46569,"HCEP03730542","2025-01-25 10:00:00","10.1707","3.31084","26.963","5.011","7.64","0.277","4.304","0.01","0.19","29.8006","4.70681","53.91","0","SATNPRO1509","29.306","0.41048","5"],
    [46570,"HCEP03730542","2025-01-25 10:15:00","10.1754","3.31142","26.985","4.991","7.64","0.264","4.881","0.01","0.25","29.8025","4.70701","53.7","0","SATNPRO1509","29.067999999999998","0.40712","5"],
    [46571,"HCEP03730542","2025-01-25 10:30:00","10.1816","3.31207","27.004","4.938","7.63","0.278","4.823","0.01","0.31","29.8039","4.7071","53.14","0","SATNPRO1509","28.89","0.40468","5"],
    [46572,"HCEP03730542","2025-01-25 10:45:00","10.1829","3.31232","27.032","4.869","7.63","0.282","6.591","0.02","0.9","29.8053","4.70728","52.4","0","SATNPRO1509","28.912","0.40496","5"],
    [46573,"HCEP03730542","2025-01-25 11:00:00","10.1861","3.31257","27.062","4.838","7.63","0.284","5.063","0.01","0.24","29.8052","4.70721","52.07","0","SATNPRO1509","28.878","0.40448","5"],
    [46574,"HCEP03730542","2025-01-25 11:15:00","10.1869","3.31268","27.08","4.797","7.63","0.274","5.242","0.01","0.18","29.8057","4.70727","51.63","0","SATNPRO1509","28.892","0.4047","5"],
    [46575,"HCEP03730542","2025-01-25 11:30:00","10.1841","3.31245","27.097","4.774","7.63","0.282","5.07","0.01","0.27","29.8056","4.70731","51.38","0","SATNPRO1509","28.808","0.40352","5"],
    [46576,"HCEP03730542","2025-01-25 11:45:00","10.1858","3.31261","27.114","4.779","7.62","0.265","4.975","0.02","0.27","29.8058","4.7073","51.43","0","SATNPRO1509","28.844","0.404","5"],
    [46577,"HCEP03730542","2025-01-25 12:00:00","10.1851","3.31242","27.141","4.769","7.63","0.281","5.072","0.02","0.52","29.8045","4.70713","51.32","0","SATNPRO1509","28.732","0.40246","5"],
    [46578,"HCEP03730542","2025-01-25 12:15:00","10.1805","3.31181","27.137","4.791","7.63","0.273","5.097","0.02","0.21","29.8021","4.70688","51.56","0","SATNPRO1509","29.012","0.40636","5"],
    [46579,"HCEP03730542","2025-01-25 12:30:00","10.1804","3.3117","27.132","4.838","7.63","0.28","5.34","0.01","0.27","29.8011","4.70674","52.06","0","SATNPRO1509","29.042","0.40676","5"],
    [46580,"HCEP03730542","2025-01-25 12:45:00","10.1775","3.31122","27.129","4.862","7.63","0.293","5.174","0.02","0.31","29.7988","4.70645","52.31","0","SATNPRO1509","29.022","0.40652","5"],
    [46581,"HCEP03730542","2025-01-25 13:00:00","10.1834","3.31168","27.119","4.89","7.63","0.286","4.985","0.01","0.27","29.7985","4.7063","52.62","0","SATNPRO1509","28.908","0.40492","5"],
    [46582,"HCEP03730542","2025-01-25 13:15:00","10.1918","3.31236","27.085","4.866","7.63","0.346","6.161","0.07","1.22","29.7984","4.70615","52.38","0","SATNPRO1509","28.786","0.4032","5"],
    [46583,"HCEP03730542","2025-01-25 13:30:00","10.203","3.31345","27.054","4.799","7.62","0.304","5.559","0.01","0.26","29.8001","4.7062","51.66","0","SATNPRO1509","28.328","0.39674","5"],
    [46584,"HCEP03730542","2025-01-25 13:45:00","10.2153","3.31462","27.015","4.684","7.61","0.282","5.742","0.01","0.28","29.8016","4.70621","50.45","0","SATNPRO1509","27.816","0.38962","5"],
    [46585,"HCEP03730542","2025-01-25 14:00:00","10.2193","3.31493","26.958","4.57","7.6","0.295","5.565","0.01","0.25","29.8015","4.70613","49.22","0","SATNPRO1509","27.8","0.38938","5"],
    [46586,"HCEP03730542","2025-01-25 14:15:00","10.2255","3.31547","26.887","4.499","7.6","0.286","5.537","0.01","0.26","29.8018","4.70606","48.46","0","SATNPRO1509","27.684","0.38776","5"],
    [46587,"HCEP03730542","2025-01-25 14:30:00","10.23","3.31568","26.809","4.447","7.6","0.295","4.696","0.02","0.22","29.8002","4.70576","47.91","0","SATNPRO1509","27.875999999999998","0.39046","5"],
    [46588,"HCEP03730542","2025-01-25 14:45:00","10.2325","3.31567","26.716","4.454","7.6","0.273","4.465","0.01","0.2","29.7981","4.70541","47.98","0","SATNPRO1509","27.852","0.39008","5"],
    [46589,"HCEP03730542","2025-01-25 15:00:00","10.2343","3.31584","26.599","4.454","7.6","0.296","4.689","0.02","0.18","29.7984","4.70542","47.98","0","SATNPRO1509","27.452","0.38448","5"],
    [46590,"HCEP03730542","2025-01-25 15:15:00","10.233","3.31555","26.477","4.403","7.6","0.264","4.412","0.02","0.19","29.7966","4.70518","47.43","0","SATNPRO1509","27.478","0.38486","5"],
    [46591,"HCEP03730542","2025-01-25 15:30:00","10.224","3.31443","26.344","4.398","7.6","0.276","4.262","0.01","0.22","29.7929","4.7048","47.37","0","SATNPRO1509","27.502","0.38518","5"],
    [46592,"HCEP03730542","2025-01-25 15:45:00","10.2143","3.31333","26.204","4.468","7.6","0.264","4.307","0.01","0.19","29.7899","4.70452","48.11","0","SATNPRO1509","27.576","0.38622","5"],
    [46593,"HCEP03730542","2025-01-25 16:00:00","10.2042","3.31222","26.053","4.531","7.61","0.272","4.048","0.01","0.1","29.7872","4.70429","48.78","0","SATNPRO1509","27.812","0.38954","5"],
    [46594,"HCEP03730542","2025-01-25 16:15:00","10.2019","3.31197","25.883","4.595","7.61","0.268","4.759","0.01","0.47","29.7867","4.70425","49.47","0","SATNPRO1509","28.084","0.3934","5"],
    [46595,"HCEP03730542","2025-01-25 16:30:00","10.1975","3.31146","25.7","4.663","7.61","0.281","3.695","0.01","0.12","29.7853","4.70411","50.19","0","SATNPRO1509","28.586000000000002","0.4004","5"],
    [46596,"HCEP03730542","2025-01-25 16:45:00","10.196","3.31139","25.526","4.629","7.61","0.267","4.39","0.01","0.1","29.7858","4.7042","49.83","0","SATNPRO1509","27.752","0.38868","5"],
    [46597,"HCEP03730542","2025-01-25 17:00:00","10.1979","3.31153","25.353","4.573","7.61","0.27","3.8","0.01","0.06","29.7858","4.70416","49.22","0","SATNPRO1509","27.646","0.38726","5"],
    [46598,"HCEP03730542","2025-01-25 17:15:00","10.1962","3.31129","25.179","4.548","7.61","0.267","4.124","0.02","0.15","29.7849","4.70404","48.95","0","SATNPRO1509","27.768","0.38894","5"],
    [46599,"HCEP03730542","2025-01-25 17:30:00","10.1961","3.31131","25.021","4.557","7.61","0.268","3.691","0.02","0.08","29.7852","4.70408","49.05","0","SATNPRO1509","27.802","0.38938","5"],
    [46600,"HCEP03730542","2025-01-25 17:45:00","10.2062","3.31247","24.859","4.592","7.62","0.234","3.375","0.01","0.06","29.7886","4.70439","49.44","0","SATNPRO1509","27.956","0.39156","5"],
    [46601,"HCEP03730542","2025-01-25 18:00:00","10.2051","3.31218","24.699","4.73","7.62","0.257","3.591","0.01","0.1","29.7866","4.70411","50.92","0","SATNPRO1509","28.528","0.39954","5"],
    [46602,"HCEP03730542","2025-01-25 18:15:00","10.2065","3.31239","24.555","4.747","7.62","0.244","3.272","0.01","0.14","29.7876","4.70422","51.11","0","SATNPRO1509","28.88","0.40448","5"],
    [46603,"HCEP03730542","2025-01-25 18:30:00","10.1975","3.31139","24.422","4.75","7.61","0.266","3.674","0.01","0.12","29.7851","4.704","51.12","0","SATNPRO1509","27.93","0.39126","5"],
    [46604,"HCEP03730542","2025-01-25 18:45:00","10.1928","3.31085","24.296","4.658","7.61","0.247","3.629","0.01","0.14","29.7836","4.70386","50.14","0","SATNPRO1509","28.15","0.3943","5"],
    [46605,"HCEP03730542","2025-01-25 19:00:00","10.1941","3.31103","24.194","4.612","7.61","0.276","3.617","0.02","0.09","29.7845","4.70396","49.64","0","SATNPRO1509","27.776","0.38906","5"],
    [46606,"HCEP03730542","2025-01-25 19:15:00","10.1983","3.31152","24.062","4.548","7.6","0.257","4.18","0.01","0.2","29.7859","4.70409","48.95","0","SATNPRO1509","27.546","0.38586","5"],
    [46607,"HCEP03730542","2025-01-25 19:30:00","10.2046","3.31213","23.975","4.471","7.6","0.278","3.921","0.01","0.14","29.7869","4.70412","48.14","0","SATNPRO1509","27.494","0.38512","5"],
    [46608,"HCEP03730542","2025-01-25 19:45:00","10.2112","3.313","23.937","4.44","7.6","0.243","3.66","0.01","0.1","29.7901","4.70446","47.8","0","SATNPRO1509","27.614","0.38678","5"],
    [46609,"HCEP03730542","2025-01-25 20:00:00","10.215","3.3134","23.919","4.445","7.6","0.271","3.859","0.01","0.14","29.7909","4.70452","47.87","0","SATNPRO1509","27.326","0.38274","5"],
    [46610,"HCEP03730542","2025-01-25 20:15:00","10.2148","3.31332","23.915","4.403","7.59","5.276","67.777","2.96","27.66","29.7904","4.70445","47.41","0","SATNPRO1509","27.072","0.37916","5"],
    [46611,"HCEP03730542","2025-01-25 20:30:00","10.2177","3.31369","23.947","4.339","7.59","0.288","5.001","0.02","0.23","29.7917","4.70459","46.73","0","SATNPRO1509","26.964","0.37766","5"],
    [46612,"HCEP03730542","2025-01-25 20:45:00","10.2182","3.31373","23.99","4.277","7.59","0.258","4.894","0.01","0.13","29.7915","4.70456","46.06","0","SATNPRO1509","26.908","0.37692","5"],
    [46613,"HCEP03730542","2025-01-25 21:00:00","10.2169","3.31373","24.051","4.252","7.58","0.281","4.914","0.01","0.24","29.7927","4.70475","45.79","0","SATNPRO1509","26.556","0.37198","5"],
    [46614,"HCEP03730542","2025-01-25 21:15:00","10.2187","3.31401","24.144","4.196","7.58","0.256","4.465","0.01","0.1","29.794","4.7049","45.19","0","SATNPRO1509","26.666","0.37352","5"],
    [46615,"HCEP03730542","2025-01-25 21:30:00","10.2051","3.31267","24.245","4.16","7.58","0.279","4.885","0.01","0.15","29.7917","4.70481","44.79","0","SATNPRO1509","26.844","0.37598","5"],
    [46616,"HCEP03730542","2025-01-25 21:45:00","10.1859","3.31078","24.364","4.213","7.59","0.271","4.718","0.02","0.08","29.7886","4.7047","45.34","0","SATNPRO1509","27.032","0.37864","5"],
    [46617,"HCEP03730542","2025-01-25 22:00:00","10.1794","3.31028","24.501","4.27","7.59","0.284","4.87","0.01","0.12","29.7889","4.70486","45.95","0","SATNPRO1509","26.552","0.37192","5"],
    [46618,"HCEP03730542","2025-01-25 22:15:00","10.1667","3.30891","24.64","4.298","7.59","0.27","5.117","0.03","0.29","29.7856","4.70461","46.23","0","SATNPRO1509","26.902","0.37684","5"],
    [46619,"HCEP03730542","2025-01-25 22:30:00","10.1527","3.3076","24.771","4.35","7.6","0.277","4.656","0.01","0.2","29.784","4.70462","46.78","0","SATNPRO1509","27.122","0.37988","5"],
    [46620,"HCEP03730542","2025-01-25 22:45:00","10.1379","3.30615","24.917","4.416","7.6","0.259","4.74","0.01","0.13","29.7816","4.70453","47.47","0","SATNPRO1509","27.232","0.38146","5"],
    [46621,"HCEP03730542","2025-01-25 23:00:00","10.1457","3.30688","25.056","4.461","7.6","0.278","4.519","0.01","0.16","29.7824","4.70452","47.96","0","SATNPRO1509","26.88","0.37652","5"],
    [46622,"HCEP03730542","2025-01-25 23:15:00","10.1438","3.30679","25.25","4.446","7.6","0.317","7.021","0.03","1.77","29.783","4.70465","47.8","0","SATNPRO1509","26.716","0.37418","5"],
    [46623,"HCEP03730542","2025-01-25 23:30:00","10.1363","3.30605","25.405","4.431","7.6","0.298","5.365","0.01","0.2","29.7817","4.70461","47.63","0","SATNPRO1509","26.978","0.3779","5"],
    [46624,"HCEP03730542","2025-01-25 23:45:00","10.1317","3.30548","25.598","4.466","7.6","0.295","5.761","0.02","0.2","29.7798","4.70442","48","0","SATNPRO1509","27.208","0.38114","5"],
    [46625,"HCEP03730542","2025-01-26 00:00:00","10.1157","3.30368","25.799","4.509","7.61","0.294","5.94","0.01","0.42","29.7748","4.70399","48.44","0","SATNPRO1509","27.31","0.38254","5"],
    [46626,"HCEP03730542","2025-01-26 00:15:00","10.116","3.30406","25.983","4.616","7.61","0.394","7.254","0.06","0.54","29.7783","4.70449","49.59","0","SATNPRO1509","27.288","0.38226","5"],
    [46627,"HCEP03730542","2025-01-26 00:30:00","10.1253","3.30496","26.159","4.596","7.61","0.289","4.853","0.02","0.21","29.7795","4.70452","49.39","0","SATNPRO1509","27.464000000000002","0.3847","5"],
    [46628,"HCEP03730542","2025-01-26 00:45:00","10.112","3.30375","26.334","4.594","7.61","0.266","4.767","0.01","0.28","29.7784","4.70459","49.35","0","SATNPRO1509","27.608","0.38672","5"],
    [46629,"HCEP03730542","2025-01-26 01:00:00","10.1097","3.3034","26.48","4.626","7.61","0.278","4.677","0.01","0.15","29.7767","4.70439","49.69","0","SATNPRO1509","27.38","0.38348","5"],
    [46630,"HCEP03730542","2025-01-26 01:15:00","10.1006","3.3024","26.635","4.662","7.62","0.275","4.54","0.02","0.12","29.7742","4.7042","50.07","0","SATNPRO1509","27.468","0.38474","5"],
    [46631,"HCEP03730542","2025-01-26 01:30:00","10.1131","3.30378","26.789","4.692","7.61","0.316","5.204","0.01","0.25","29.7776","4.70448","50.4","0","SATNPRO1509","27.55","0.38584","5"],
    [46632,"HCEP03730542","2025-01-26 01:45:00","10.0997","3.30212","26.964","4.661","7.62","0.266","4.451","0.01","0.31","29.772","4.70393","50.06","0","SATNPRO1509","27.756","0.38878","5"],
    [46633,"HCEP03730542","2025-01-26 02:00:00","10.0778","3.29999","27.054","4.755","7.63","0.285","4.442","0.01","0.18","29.7686","4.70381","51.04","0","SATNPRO1509","27.93","0.39118","5"],
    [46634,"HCEP03730542","2025-01-26 02:15:00","10.0768","3.30002","27.165","4.896","7.63","0.262","4.014","0.03","0.19","29.7698","4.704","52.55","0","SATNPRO1509","28.482","0.39894","5"],
    [46635,"HCEP03730542","2025-01-26 02:30:00","10.0721","3.29956","27.266","4.947","7.64","0.288","3.951","0.02","0.09","29.769","4.70398","53.09","0","SATNPRO1509","28.17","0.39458","5"],
    [46636,"HCEP03730542","2025-01-26 02:45:00","10.0769","3.30004","27.341","4.972","7.64","0.258","3.665","0.01","0.15","29.7698","4.70401","53.37","0","SATNPRO1509","28.212","0.39514","5"],
    [46637,"HCEP03730542","2025-01-26 03:00:00","10.0856","3.30089","27.391","4.968","7.63","0.278","4.252","0.01","0.27","29.771","4.70405","53.34","0","SATNPRO1509","28.036","0.3927","5"],
    [46638,"HCEP03730542","2025-01-26 03:15:00","10.0855","3.30084","27.437","4.917","7.63","7.482","187.059","0.82","27.35","29.7706","4.70399","52.79","0","SATNPRO1509","27.378","0.38344","5"],
    [46639,"HCEP03730542","2025-01-26 03:30:00","10.0665","3.29884","27.446","4.92","7.64","1.255","23.68","1.8","26.26","29.7663","4.7037","52.8","0","SATNPRO1509","28.89","0.40464","5"],
    [46640,"HCEP03730542","2025-01-26 03:45:00","10.0822","3.30054","27.459","4.991","7.63","0.264","4.079","0.01","0.22","29.7703","4.704","53.59","0","SATNPRO1509","28.07","0.39322","5"],
    [46641,"HCEP03730542","2025-01-26 04:00:00","10.0771","3.29991","27.468","4.934","7.63","0.276","3.78","0.01","0.18","29.7682","4.70379","52.96","0","SATNPRO1509","28.124","0.39394","5"],
    [46642,"HCEP03730542","2025-01-26 04:15:00","10.0808","3.30032","27.476","4.935","7.63","0.264","4.591","0.01","0.16","29.7693","4.70389","52.97","0","SATNPRO1509","28.024","0.3925","5"],
    [46643,"HCEP03730542","2025-01-26 04:30:00","10.0724","3.29937","27.48","4.916","7.63","0.301","5.206","0.01","0.35","29.7667","4.70365","52.77","0","SATNPRO1509","28.396","0.39776","5"],
    [46644,"HCEP03730542","2025-01-26 04:45:00","10.071","3.29921","27.478","4.944","7.64","0.259","4.13","0.01","0.27","29.7663","4.70362","53.06","0","SATNPRO1509","28.71","0.40212","5"],
    [46645,"HCEP03730542","2025-01-26 05:00:00","10.0676","3.29887","27.474","4.97","7.64","0.28","3.878","0.01","0.19","29.7657","4.70359","53.34","0","SATNPRO1509","28.238","0.3955","5"],
    [46646,"HCEP03730542","2025-01-26 05:15:00","10.0703","3.29912","27.462","4.993","7.64","0.262","4.017","0.01","0.22","29.7659","4.70358","53.58","0","SATNPRO1509","28.37","0.39736","5"],
    [46647,"HCEP03730542","2025-01-26 05:30:00","10.0763","3.29964","27.423","4.97","7.63","0.29","3.964","0.03","0.16","29.7662","4.70352","53.35","0","SATNPRO1509","28.066","0.39312","5"],
    [46648,"HCEP03730542","2025-01-26 05:45:00","10.0875","3.30076","27.381","4.924","7.63","0.265","4.108","0.01","0.15","29.7683","4.70362","52.86","0","SATNPRO1509","27.954","0.39152","5"],
    [46649,"HCEP03730542","2025-01-26 06:00:00","10.0868","3.30071","27.351","4.865","7.63","0.276","3.976","0.01","0.19","29.7683","4.70363","52.23","0","SATNPRO1509","27.974","0.39182","5"],
    [46650,"HCEP03730542","2025-01-26 06:15:00","10.1137","3.30345","27.3","4.82","7.62","0.263","4.565","0.01","0.14","29.7736","4.70394","51.78","0","SATNPRO1509","27.44","0.38438","5"],
    [46651,"HCEP03730542","2025-01-26 06:30:00","10.1292","3.30507","27.26","4.685","7.61","0.284","4.461","0.02","0.22","29.7771","4.70417","50.35","0","SATNPRO1509","27.242","0.38158","5"],
    [46652,"HCEP03730542","2025-01-26 06:45:00","10.1218","3.30383","27.211","4.605","7.61","0.266","4.883","0.01","0.19","29.7707","4.70338","49.48","0","SATNPRO1509","27.778","0.38908","5"],
    [46653,"HCEP03730542","2025-01-26 07:00:00","10.1308","3.30476","27.151","4.597","7.61","0.274","4.347","0.01","0.19","29.7727","4.70351","49.4","0","SATNPRO1509","27.306","0.38244","5"],
    [46654,"HCEP03730542","2025-01-26 07:15:00","10.1285","3.30476","27.081","4.558","7.61","0.274","4.623","0.02","0.22","29.7746","4.70382","48.99","0","SATNPRO1509","27.872","0.39038","5"],
    [46655,"HCEP03730542","2025-01-26 07:30:00","10.1201","3.30411","27.034","4.567","7.61","1.36","25.562","2.34","32.01","29.775","4.70402","49.08","0","SATNPRO1509","27.656","0.38738","5"],
    [46656,"HCEP03730542","2025-01-26 07:45:00","10.1292","3.3049","26.994","4.591","7.61","0.271","5.024","0.01","1.43","29.7754","4.70392","49.34","0","SATNPRO1509","27.61","0.38676","5"],
    [46657,"HCEP03730542","2025-01-26 08:00:00","10.1321","3.30531","26.935","4.616","7.61","0.295","5.403","0.02","0.81","29.7772","4.70412","49.61","0","SATNPRO1509","28.384","0.39758","5"],
    [46658,"HCEP03730542","2025-01-26 08:15:00","10.1508","3.30714","26.886","4.639","7.61","0.331","5.978","0.23","2.37","29.78","4.7042","49.88","0","SATNPRO1509","27.934","0.39124","5"],
    [46659,"HCEP03730542","2025-01-26 08:30:00","10.2047","3.313","26.866","4.528","7.59","0.326","6.093","0.03","0.47","29.7942","4.70533","48.75","0","SATNPRO1509","26.946","0.37746","5"],
    [46660,"HCEP03730542","2025-01-26 08:45:00","10.2189","3.31452","26.85","4.337","7.59","0.256","4.833","0.01","0.28","29.7978","4.70561","46.71","0","SATNPRO1509","27.688","0.38782","5"],
    [46661,"HCEP03730542","2025-01-26 09:00:00","10.2171","3.31432","26.827","4.319","7.59","0.276","4.605","0.02","0.21","29.7972","4.70556","46.51","0","SATNPRO1509","27.854","0.39014","5"],
    [46662,"HCEP03730542","2025-01-26 09:15:00","10.2122","3.3138","26.818","4.363","7.59","0.267","4.831","0.01","0.31","29.7961","4.70547","46.99","0","SATNPRO1509","27.954","0.39152","5"],
    [46663,"HCEP03730542","2025-01-26 09:30:00","10.2019","3.31276","26.809","4.406","7.6","0.304","5.488","0.04","1.02","29.7942","4.70537","47.43","0","SATNPRO1509","28.232","0.39542","5"],
    [46664,"HCEP03730542","2025-01-26 09:45:00","10.198","3.31258","26.833","4.478","7.6","0.272","4.928","0.02","0.39","29.7955","4.70563","48.2","0","SATNPRO1509","28.468","0.39874","5"],
    [46665,"HCEP03730542","2025-01-26 10:00:00","10.191","3.31201","26.862","4.544","7.61","0.291","5.158","0.01","0.45","29.7956","4.70576","48.91","0","SATNPRO1509","28.646","0.4012","5"],
    [46666,"HCEP03730542","2025-01-26 10:15:00","10.1892","3.31194","26.901","4.62","7.61","0.261","4.78","0.01","0.21","29.7965","4.70591","49.72","0","SATNPRO1509","28.87","0.40436","5"],
    [46667,"HCEP03730542","2025-01-26 10:30:00","10.1886","3.31207","26.928","4.668","7.61","0.281","4.595","0.01","0.19","29.7982","4.70617","50.24","0","SATNPRO1509","28.874","0.40442","5"],
    [46668,"HCEP03730542","2025-01-26 10:45:00","10.1902","3.31218","26.936","4.688","7.61","0.267","5.091","0.01","0.2","29.798","4.70611","50.46","0","SATNPRO1509","28.74","0.40256","5"],
    [46669,"HCEP03730542","2025-01-26 11:00:00","10.1903","3.31232","26.973","4.675","7.61","0.283","4.689","0.01","0.26","29.7993","4.7063","50.32","0","SATNPRO1509","28.956","0.4056","5"],
    [46670,"HCEP03730542","2025-01-26 11:15:00","10.1971","3.31321","27.008","4.671","7.61","0.263","4.865","0.02","0.63","29.8025","4.70665","50.29","0","SATNPRO1509","29.048","0.40686","5"],
    [46671,"HCEP03730542","2025-01-26 11:30:00","10.1995","3.31345","27.035","4.656","7.61","0.28","4.442","0.02","0.2","29.803","4.70668","50.12","0","SATNPRO1509","28.939999999999998","0.40538","5"],
    [46672,"HCEP03730542","2025-01-26 11:45:00","10.208","3.31444","27.057","4.631","7.61","0.257","4.396","0.01","0.23","29.8058","4.70693","49.87","0","SATNPRO1509","29.262","0.40988","5"],
    [46673,"HCEP03730542","2025-01-26 12:00:00","10.2146","3.3152","27.079","4.581","7.6","0.275","4.493","0.01","0.15","29.8079","4.70713","49.33","0","SATNPRO1509","29.134","0.40806","5"],
    [46674,"HCEP03730542","2025-01-26 12:15:00","10.2133","3.31504","27.104","4.533","7.6","0.26","5.378","0.01","0.22","29.8074","4.70708","48.82","0","SATNPRO1509","29.163999999999998","0.4085","5"],
    [46675,"HCEP03730542","2025-01-26 12:30:00","10.2113","3.31478","27.127","4.536","7.6","0.279","4.754","0.02","0.18","29.8065","4.70699","48.85","0","SATNPRO1509","29.298000000000002","0.41038","5"],
    [46676,"HCEP03730542","2025-01-26 12:45:00","10.2063","3.31418","27.144","4.559","7.61","0.254","4.084","0.02","0.16","29.8047","4.70681","49.09","0","SATNPRO1509","29.274","0.41002","5"],
    [46677,"HCEP03730542","2025-01-26 13:00:00","10.2066","3.31423","27.148","4.582","7.61","0.275","4.472","0.01","0.16","29.8048","4.70683","49.33","0","SATNPRO1509","29.292","0.4103","5"],
    [46678,"HCEP03730542","2025-01-26 13:15:00","10.1985","3.31326","27.144","4.58","7.61","0.267","4.562","0.02","0.1","29.8018","4.70654","49.31","0","SATNPRO1509","29.18","0.40872","5"],
    [46679,"HCEP03730542","2025-01-26 13:30:00","10.196","3.313","27.142","4.591","7.61","0.287","4.848","0.01","0.21","29.8013","4.7065","49.42","0","SATNPRO1509","28.926","0.40516","5"],
    [46680,"HCEP03730542","2025-01-26 13:45:00","10.1961","3.31295","27.131","4.588","7.61","0.259","5.151","0.01","0.22","29.8007","4.70641","49.39","0","SATNPRO1509","28.524","0.39954","5"],
    [46681,"HCEP03730542","2025-01-26 14:00:00","10.196","3.31296","27.083","4.569","7.61","0.291","5.098","0.01","0.26","29.8009","4.70644","49.18","0","SATNPRO1509","28.502","0.3992","5"],
    [46682,"HCEP03730542","2025-01-26 14:15:00","10.1985","3.31318","27.042","4.556","7.6","0.387","17.083","0.39","23.58","29.8011","4.70642","49.05","0","SATNPRO1509","28.394","0.39768","5"],
    [46683,"HCEP03730542","2025-01-26 14:30:00","10.1996","3.31327","26.998","4.517","7.6","0.28","5.187","0.01","0.24","29.8011","4.7064","48.63","0","SATNPRO1509","28.564","0.40006","5"],
    [46684,"HCEP03730542","2025-01-26 14:45:00","10.1991","3.31316","26.957","4.491","7.6","0.261","4.709","0.02","0.26","29.8004","4.70631","48.34","0","SATNPRO1509","28.602","0.40062","5"],
    [46685,"HCEP03730542","2025-01-26 15:00:00","10.1995","3.31321","26.906","4.504","7.6","0.292","5.233","0.02","0.2","29.8007","4.70634","48.49","0","SATNPRO1509","28.484","0.399","5"],
    [46686,"HCEP03730542","2025-01-26 15:15:00","10.2032","3.31357","26.835","4.49","7.6","0.273","5.116","0.01","0.25","29.8012","4.70635","48.34","0","SATNPRO1509","27.988","0.39202","5"],
    [46687,"HCEP03730542","2025-01-26 15:30:00","10.2046","3.31373","26.748","4.442","7.59","0.295","5.205","0.03","0.21","29.8016","4.70638","47.82","0","SATNPRO1509","28.221999999999998","0.39532","5"],
    [46688,"HCEP03730542","2025-01-26 15:45:00","10.2036","3.3136","26.649","4.411","7.59","0.275","5.17","0.02","0.22","29.8013","4.70635","47.48","0","SATNPRO1509","28.25","0.3957","5"],
    [46689,"HCEP03730542","2025-01-26 16:00:00","10.2069","3.31397","26.528","4.401","7.59","0.3","5.616","0.02","0.39","29.8022","4.70642","47.38","0","SATNPRO1509","27.874","0.39044","5"],
    [46690,"HCEP03730542","2025-01-26 16:15:00","10.2097","3.31425","26.388","4.345","7.59","0.267","5.451","0.01","0.22","29.8028","4.70644","46.79","0","SATNPRO1509","28.174","0.39464","5"],
    [46691,"HCEP03730542","2025-01-26 16:30:00","10.2108","3.3143","26.219","4.295","7.58","0.273","4.89","0.01","0.14","29.8025","4.70638","46.25","0","SATNPRO1509","27.85","0.39008","5"],
    [46692,"HCEP03730542","2025-01-26 16:45:00","10.2115","3.31439","26.056","4.262","7.58","0.262","4.941","0.01","0.17","29.8029","4.70641","45.9","0","SATNPRO1509","28.016000000000002","0.39246","5"],
    [46693,"HCEP03730542","2025-01-26 17:00:00","10.2094","3.31412","25.884","4.261","7.58","0.288","5.836","0.01","0.15","29.8019","4.7063","45.88","0","SATNPRO1509","27.718","0.38824","5"],
    [46694,"HCEP03730542","2025-01-26 17:15:00","10.2071","3.3139","25.691","4.28","7.59","0.272","5.346","0.02","0.18","29.8017","4.7063","46.08","0","SATNPRO1509","27.93","0.3912","5"],
    [46695,"HCEP03730542","2025-01-26 17:30:00","10.2044","3.31364","25.499","4.324","7.59","0.28","5.095","0.01","0.23","29.8014","4.70628","46.55","0","SATNPRO1509","28.067999999999998","0.39316","5"],
    [46696,"HCEP03730542","2025-01-26 17:45:00","10.201","3.31333","25.301","4.37","7.59","0.267","4.934","0.01","0.23","29.8012","4.7063","47.04","0","SATNPRO1509","28.386","0.39758","5"],
    [46697,"HCEP03730542","2025-01-26 18:00:00","10.1993","3.31319","25.112","4.423","7.6","0.284","5.328","0.01","0.4","29.8013","4.70632","47.61","0","SATNPRO1509","28.304","0.39648","5"],
    [46698,"HCEP03730542","2025-01-26 18:15:00","10.1991","3.31318","24.931","4.47","7.6","0.26","4.781","0.01","0.18","29.8014","4.70633","48.12","0","SATNPRO1509","28.624","0.40096","5"],
    [46699,"HCEP03730542","2025-01-26 18:30:00","10.1995","3.31325","24.725","4.508","7.6","0.623","9.462","0.38","5.21","29.8019","4.70639","48.53","0","SATNPRO1509","28.848","0.40404","5"],
    [46700,"HCEP03730542","2025-01-26 18:45:00","10.2006","3.3134","24.533","4.522","7.6","0.251","4.616","0.01","0.33","29.8026","4.70646","48.69","0","SATNPRO1509","28.816","0.40358","5"],
    [46701,"HCEP03730542","2025-01-26 19:00:00","10.2016","3.31348","24.376","4.53","7.6","1.278","69.361","0.7","21.08","29.8025","4.70643","48.76","0","SATNPRO1509","28.898","0.40474","5"],
    [46702,"HCEP03730542","2025-01-26 19:15:00","10.1998","3.31328","24.202","4.534","7.6","0.259","4.127","0.02","0.26","29.8022","4.70639","48.81","0","SATNPRO1509","28.906","0.40486","5"],
    [46703,"HCEP03730542","2025-01-26 19:30:00","10.1997","3.31323","24.065","4.544","7.6","0.275","4.223","0.01","0.13","29.8017","4.70633","48.92","0","SATNPRO1509","28.9","0.4048","5"],
    [46704,"HCEP03730542","2025-01-26 19:45:00","10.1993","3.31319","23.975","4.539","7.6","1.084","23.875","0.22","14.7","29.8018","4.70634","48.87","0","SATNPRO1509","28.772000000000002","0.403","5"],
    [46705,"HCEP03730542","2025-01-26 20:00:00","10.1983","3.31297","23.909","4.514","7.6","0.281","4.965","0.01","0.19","29.8005","4.70616","48.59","0","SATNPRO1509","28.568","0.40016","5"],
    [46706,"HCEP03730542","2025-01-26 20:15:00","10.1954","3.31259","23.864","4.493","7.6","0.261","4.281","0.01","0.2","29.799","4.706","48.37","0","SATNPRO1509","28.522000000000002","0.3995","5"],
    [46707,"HCEP03730542","2025-01-26 20:30:00","10.1976","3.31259","23.812","4.504","7.6","0.27","4.238","0.02","0.42","29.7972","4.7057","48.48","0","SATNPRO1509","28.488","0.39904","5"],
    [46708,"HCEP03730542","2025-01-26 20:45:00","10.2013","3.31277","23.789","4.483","7.6","0.248","3.714","0.01","0.12","29.796","4.70546","48.26","0","SATNPRO1509","28.316","0.39658","5"],
    [46709,"HCEP03730542","2025-01-26 21:00:00","10.1993","3.31222","23.802","4.477","7.6","0.259","3.595","0.01","0.26","29.7922","4.70495","48.19","0","SATNPRO1509","28.214","0.39518","5"],
    [46710,"HCEP03730542","2025-01-26 21:15:00","10.2056","3.31306","23.817","4.471","7.59","0.267","4.765","0.01","0.25","29.7954","4.70531","48.14","0","SATNPRO1509","27.804","0.38944","5"],
    [46711,"HCEP03730542","2025-01-26 21:30:00","10.2019","3.31248","23.839","4.373","7.59","0.266","4.454","0.01","1.48","29.7926","4.70498","47.08","0","SATNPRO1509","28.444","0.39842","5"],
    [46712,"HCEP03730542","2025-01-26 21:45:00","10.2017","3.31252","23.884","4.394","7.59","1.757","67.206","1.08","26.23","29.7932","4.70506","47.3","0","SATNPRO1509","28.012","0.39236","5"],
    [46713,"HCEP03730542","2025-01-26 22:00:00","10.1995","3.31226","23.957","4.317","7.58","0.272","4.583","0.01","0.28","29.7924","4.70499","46.47","0","SATNPRO1509","28.598","0.40056","5"],
    [46714,"HCEP03730542","2025-01-26 22:15:00","10.1712","3.30925","24.062","4.262","7.58","0.262","5.245","0.01","0.38","29.7855","4.70448","45.85","0","SATNPRO1509","27.138","0.38014","5"],
    [46715,"HCEP03730542","2025-01-26 22:30:00","10.1517","3.30733","24.196","4.249","7.58","0.286","5.406","0.01","0.2","29.7824","4.70437","45.69","0","SATNPRO1509","27.068","0.37914","5"],
    [46716,"HCEP03730542","2025-01-26 22:45:00","10.1387","3.30589","24.294","4.285","7.59","0.273","5.88","0.01","0.35","29.7786","4.70406","46.07","0","SATNPRO1509","27.248","0.38166","5"],
    [46717,"HCEP03730542","2025-01-26 23:00:00","10.1256","3.30435","24.439","4.346","7.59","0.287","5.347","0.02","0.19","29.7739","4.70362","46.7","0","SATNPRO1509","27.264","0.38186","5"],
    [46718,"HCEP03730542","2025-01-26 23:15:00","10.1036","3.30204","24.595","4.468","7.6","0.275","4.988","0.01","0.28","29.7689","4.70328","47.99","0","SATNPRO1509","28.028","0.3926","5"],
    [46719,"HCEP03730542","2025-01-26 23:30:00","10.1035","3.30202","24.769","4.548","7.6","0.293","4.746","0.02","0.2","29.7688","4.70327","48.85","0","SATNPRO1509","27.594","0.38648","5"],
    [46720,"HCEP03730542","2025-01-26 23:45:00","10.097","3.30157","24.961","4.559","7.6","3.22","68.914","3.37","19.51","29.7695","4.70349","48.96","0","SATNPRO1509","27.404","0.38382","5"],
    [46721,"HCEP03730542","2025-01-27 00:00:00","10.093","3.30132","25.131","4.576","7.61","0.294","5.242","0.01","0.66","29.7702","4.70368","49.14","0","SATNPRO1509","27.488","0.385","5"],
    [46722,"HCEP03730542","2025-01-27 00:15:00","10.0891","3.30075","25.329","4.583","7.61","0.28","5.057","0.01","0.38","29.7677","4.70339","49.21","0","SATNPRO1509","27.534","0.38566","5"],
    [46723,"HCEP03730542","2025-01-27 00:30:00","10.0948","3.30136","25.518","4.601","7.61","0.309","5.663","0.02","0.25","29.7689","4.70348","49.41","0","SATNPRO1509","27.478","0.3849","5"],
    [46724,"HCEP03730542","2025-01-27 00:45:00","10.0868","3.3002","25.744","4.607","7.61","10.75","430.867","4.67","149.45","29.7638","4.7029","49.46","0","SATNPRO1509","27.682","0.38774","5"],
    [46725,"HCEP03730542","2025-01-27 01:00:00","10.1108","3.30313","25.958","4.627","7.6","0.3","5.065","0.01","0.13","29.7733","4.70387","49.71","0","SATNPRO1509","27.604","0.38666","5"],
    [46726,"HCEP03730542","2025-01-27 01:15:00","10.1218","3.3045","26.158","4.5","7.59","0.325","29.251","0.17","34.99","29.7779","4.70435","48.35","0","SATNPRO1509","26.82","0.37568","5"],
    [46727,"HCEP03730542","2025-01-27 01:30:00","10.1338","3.30586","26.338","4.396","7.59","0.289","5.885","0.01","0.43","29.7815","4.70468","47.25","0","SATNPRO1509","26.38","0.36952","5"],
    [46728,"HCEP03730542","2025-01-27 01:45:00","10.1514","3.30782","26.537","4.302","7.58","0.268","5.424","0.01","0.31","29.7865","4.7051","46.25","0","SATNPRO1509","26.606","0.37264","5"],
    [46729,"HCEP03730542","2025-01-27 02:00:00","10.1606","3.30893","26.719","4.198","7.57","0.289","5.498","0.01","0.51","29.7899","4.70545","45.15","0","SATNPRO1509","26.398","0.36978","5"],
    [46730,"HCEP03730542","2025-01-27 02:15:00","10.1603","3.30888","26.87","4.133","7.57","0.258","4.995","0.01","0.22","29.7897","4.70542","44.45","0","SATNPRO1509","26.468","0.37074","5"],
    [46731,"HCEP03730542","2025-01-27 02:30:00","10.1572","3.30856","27.025","4.118","7.57","0.274","4.675","0.01","0.34","29.7889","4.70538","44.29","0","SATNPRO1509","26.634","0.37306","5"],
    [46732,"HCEP03730542","2025-01-27 02:45:00","10.1476","3.30746","27.138","4.143","7.58","0.254","4.704","0.01","0.26","29.7858","4.7051","44.55","0","SATNPRO1509","26.740000000000002","0.37454","5"],
    [46733,"HCEP03730542","2025-01-27 03:00:00","10.1551","3.30822","27.233","4.195","7.58","0.271","4.4","0.01","0.18","29.7872","4.70517","45.12","0","SATNPRO1509","26.887999999999998","0.37662","5"],
    [46734,"HCEP03730542","2025-01-27 03:15:00","10.151","3.30777","27.322","4.201","7.58","10.888","255.182","1.2","110.62","29.7861","4.7051","45.17","0","SATNPRO1509","26.948","0.37744","5"],
    [46735,"HCEP03730542","2025-01-27 03:30:00","10.1562","3.30832","27.404","4.227","7.58","1.739","29.111","1.37","28.02","29.7873","4.70518","45.46","0","SATNPRO1509","26.919999999999998","0.37704","5"],
    [46736,"HCEP03730542","2025-01-27 03:45:00","10.162","3.30879","27.444","4.227","7.58","0.252","4.35","0.01","0.22","29.7871","4.70506","45.47","0","SATNPRO1509","27.128","0.37994","5"],
    [46737,"HCEP03730542","2025-01-27 04:00:00","10.1701","3.30958","27.481","4.232","7.58","0.278","5.084","0.01","0.32","29.7883","4.7051","45.52","0","SATNPRO1509","27.256","0.38176","5"],
    [46738,"HCEP03730542","2025-01-27 04:15:00","10.1735","3.30977","27.517","4.228","7.58","0.262","5.906","0.01","1.23","29.7875","4.70493","45.49","0","SATNPRO1509","27.188","0.38082","5"],
    [46739,"HCEP03730542","2025-01-27 04:30:00","10.1761","3.31006","27.541","4.242","7.58","0.417","6.868","0.58","9.78","29.7882","4.70499","45.64","0","SATNPRO1509","27.468","0.3847","5"],
    [46740,"HCEP03730542","2025-01-27 04:45:00","10.1738","3.30972","27.534","4.233","7.58","0.257","4.662","0.01","0.19","29.7867","4.70481","45.54","0","SATNPRO1509","27.53","0.38562","5"],
    [46741,"HCEP03730542","2025-01-27 05:00:00","10.173","3.30953","27.537","4.26","7.58","0.275","4.784","0.01","0.36","29.7855","4.70465","45.83","0","SATNPRO1509","27.352","0.38312","5"],
    [46742,"HCEP03730542","2025-01-27 05:15:00","10.1719","3.30935","27.531","4.288","7.58","0.261","5.493","0.01","1.17","29.7845","4.70453","46.13","0","SATNPRO1509","27.404","0.38384","5"],
    [46743,"HCEP03730542","2025-01-27 05:30:00","10.1733","3.30946","27.52","4.313","7.59","0.275","4.711","0.01","0.93","29.7846","4.70451","46.39","0","SATNPRO1509","27.558","0.386","5"],
    [46744,"HCEP03730542","2025-01-27 05:45:00","10.1774","3.30994","27.502","4.334","7.59","0.255","4.685","0.01","0.7","29.7859","4.70464","46.63","0","SATNPRO1509","27.76","0.38886","5"],
    [46745,"HCEP03730542","2025-01-27 06:00:00","10.1822","3.31044","27.466","4.337","7.59","0.27","4.176","0.01","0.24","29.787","4.70471","46.67","0","SATNPRO1509","27.804000000000002","0.38942","5"],
    [46746,"HCEP03730542","2025-01-27 06:15:00","10.1869","3.31098","27.419","4.347","7.59","0.251","4.125","0.01","0.22","29.7886","4.70486","46.78","0","SATNPRO1509","28.128","0.39398","5"],
    [46747,"HCEP03730542","2025-01-27 06:30:00","10.1848","3.31084","27.379","4.374","7.59","0.271","3.803","0.02","0.18","29.7888","4.70492","47.07","0","SATNPRO1509","28.25","0.39568","5"],
    [46748,"HCEP03730542","2025-01-27 06:45:00","10.1916","3.31166","27.309","4.414","7.59","0.258","4.603","0.01","0.2","29.7915","4.70519","47.51","0","SATNPRO1509","27.972","0.3918","5"],
    [46749,"HCEP03730542","2025-01-27 07:00:00","10.1964","3.31229","27.262","4.374","7.59","0.271","4.789","0.01","0.36","29.7939","4.70545","47.09","0","SATNPRO1509","28.114","0.39382","5"],
    [46750,"HCEP03730542","2025-01-27 07:15:00","10.203","3.3132","27.217","4.334","7.58","0.261","5.28","0.02","0.47","29.7974","4.70584","46.66","0","SATNPRO1509","27.826","0.38972","5"],
    [46751,"HCEP03730542","2025-01-27 07:30:00","10.2076","3.31375","27.156","4.253","7.58","0.294","5.509","0.02","0.61","29.7992","4.70601","45.79","0","SATNPRO1509","27.5","0.38518","5"],
    [46752,"HCEP03730542","2025-01-27 07:45:00","10.2103","3.31409","27.092","4.2","7.58","0.255","5.198","0.01","0.26","29.8005","4.70614","45.22","0","SATNPRO1509","27.934","0.39128","5"],
    [46753,"HCEP03730542","2025-01-27 08:00:00","10.214","3.31454","27.024","4.203","7.58","0.275","5.423","0.01","0.27","29.8019","4.70628","45.26","0","SATNPRO1509","28.06","0.393","5"],
    [46754,"HCEP03730542","2025-01-27 08:15:00","10.2326","3.31667","26.951","4.202","7.58","0.255","5.042","0.03","0.43","29.8079","4.70682","45.27","0","SATNPRO1509","28.316","0.39662","5"],
    [46755,"HCEP03730542","2025-01-27 08:30:00","10.2507","3.31858","26.901","4.166","7.57","0.265","4.704","0.01","0.43","29.8121","4.70711","44.9","0","SATNPRO1509","28.982","0.40594","5"],
    [46756,"HCEP03730542","2025-01-27 08:45:00","10.2592","3.31945","26.871","4.106","7.57","0.704","12.503","0.46","12.64","29.8137","4.7072","44.27","0","SATNPRO1509","28.758","0.40286","5"],
    [46757,"HCEP03730542","2025-01-27 09:00:00","10.2597","3.31948","26.814","4.065","7.57","0.27","4.549","0.02","0.26","29.8137","4.70719","43.82","0","SATNPRO1509","28.716","0.40224","5"],
    [46758,"HCEP03730542","2025-01-27 09:15:00","10.2593","3.31952","26.782","4.043","7.56","0.267","5.647","0.05","1.1","29.8144","4.70729","43.59","0","SATNPRO1509","28.532","0.39966","5"],
    [46759,"HCEP03730542","2025-01-27 09:30:00","10.2594","3.31958","26.744","4.027","7.56","0.263","4.581","0.01","0.18","29.8149","4.70737","43.41","0","SATNPRO1509","28.51","0.39934","5"],
    [46760,"HCEP03730542","2025-01-27 09:45:00","10.26","3.31964","26.735","4.016","7.56","0.241","3.991","0.01","0.08","29.815","4.70737","43.3","0","SATNPRO1509","28.566","0.40008","5"],
    [46761,"HCEP03730542","2025-01-27 10:00:00","10.2632","3.32","26.729","4.008","7.56","0.262","4.53","0.01","0.18","29.816","4.70746","43.21","0","SATNPRO1509","28.62","0.40088","5"],
    [46762,"HCEP03730542","2025-01-27 10:15:00","10.27","3.32076","26.733","3.975","7.56","0.506","6.226","0.31","0.97","29.818","4.70763","42.87","0","SATNPRO1509","28.588","0.40046","5"],
    [46763,"HCEP03730542","2025-01-27 10:30:00","10.2759","3.32141","26.745","3.918","7.55","0.256","4.629","0.01","0.09","29.8195","4.70775","42.26","0","SATNPRO1509","28.652","0.40128","5"],
    [46764,"HCEP03730542","2025-01-27 10:45:00","10.2825","3.32209","26.762","3.869","7.55","0.241","4.772","0.01","0.2","29.8209","4.70783","41.73","0","SATNPRO1509","28.488","0.39902","5"],
    [46765,"HCEP03730542","2025-01-27 11:00:00","10.2889","3.3227","26.798","3.825","7.55","0.301","4.947","0.02","0.26","29.8217","4.70785","41.27","0","SATNPRO1509","28.368","0.3973","5"],
    [46766,"HCEP03730542","2025-01-27 11:15:00","10.2957","3.3234","26.829","3.772","7.54","0.265","4.262","0.02","0.27","29.8231","4.70794","40.7","0","SATNPRO1509","28.614","0.40082","5"],
    [46767,"HCEP03730542","2025-01-27 11:30:00","10.2936","3.32313","26.861","3.744","7.54","0.285","4.45","0.03","0.34","29.8221","4.70783","40.39","0","SATNPRO1509","28.564","0.4001","5"],
    [46768,"HCEP03730542","2025-01-27 11:45:00","10.2923","3.32294","26.907","3.754","7.55","0.288","5.191","0.02","0.48","29.8213","4.70775","40.5","0","SATNPRO1509","28.778","0.4031","5"],
    [46769,"HCEP03730542","2025-01-27 12:00:00","10.289","3.32259","26.939","3.762","7.55","0.281","5.028","0.02","0.27","29.8205","4.70769","40.58","0","SATNPRO1509","28.556","0.39998","5"],
    [46770,"HCEP03730542","2025-01-27 12:15:00","10.2865","3.32221","26.979","3.782","7.55","0.257","4.667","0.01","0.21","29.8188","4.70749","40.8","0","SATNPRO1509","28.812","0.40356","5"],
    [46771,"HCEP03730542","2025-01-27 12:30:00","10.2852","3.32214","27.043","3.823","7.55","0.291","5.759","0.02","0.41","29.8191","4.70756","41.24","0","SATNPRO1509","28.66","0.40142","5"],
    [46772,"HCEP03730542","2025-01-27 12:45:00","10.2699","3.32031","27.093","3.844","7.56","0.239","4.078","0.01","0.1","29.8134","4.707","41.45","0","SATNPRO1509","28.864","0.40432","5"],
    [46773,"HCEP03730542","2025-01-27 13:00:00","10.2727","3.32069","27.134","3.939","7.56","0.27","4.09","0.01","0.24","29.8148","4.70716","42.48","0","SATNPRO1509","29.142","0.40818","5"],
    [46774,"HCEP03730542","2025-01-27 13:15:00","10.2767","3.32116","27.183","3.935","7.56","0.268","4.612","0.01","0.19","29.8163","4.7073","42.44","0","SATNPRO1509","28.778","0.40308","5"],
    [46775,"HCEP03730542","2025-01-27 13:30:00","10.2415","3.3169","27.205","3.969","7.57","0.267","4.073","0.01","0.61","29.8028","4.70596","42.76","0","SATNPRO1509","28.922","0.4051","5"],
    [46776,"HCEP03730542","2025-01-27 13:45:00","10.1926","3.31134","27.235","4.154","7.58","0.258","3.438","0.01","0.14","29.7874","4.70459","44.71","0","SATNPRO1509","28.874","0.40444","5"],
    [46777,"HCEP03730542","2025-01-27 14:00:00","10.2206","3.31435","27.26","4.295","7.58","0.278","4.092","0.02","0.21","29.7946","4.70514","46.26","0","SATNPRO1509","28.832","0.40388","5"],
    [46778,"HCEP03730542","2025-01-27 14:15:00","10.2556","3.31903","27.258","4.223","7.57","0.249","4.831","0.01","0.2","29.8123","4.70709","45.52","0","SATNPRO1509","28.626","0.40096","5"],
    [46779,"HCEP03730542","2025-01-27 14:30:00","10.2486","3.3183","27.241","4.044","7.56","0.281","5.382","0.01","0.38","29.8108","4.70699","43.58","0","SATNPRO1509","28.086","0.39338","5"],
    [46780,"HCEP03730542","2025-01-27 14:45:00","10.2365","3.31702","27.224","3.967","7.56","0.267","5.517","0.01","0.37","29.808","4.70679","42.74","0","SATNPRO1509","27.748","0.38862","5"],
    [46781,"HCEP03730542","2025-01-27 15:00:00","10.2241","3.31567","27.198","3.951","7.56","0.294","5.355","0.02","0.22","29.8048","4.70654","42.56","0","SATNPRO1509","27.656","0.3874","5"],
    [46782,"HCEP03730542","2025-01-27 15:15:00","10.2172","3.31495","27.155","3.976","7.56","0.284","5.61","0.03","1.01","29.8033","4.70644","42.82","0","SATNPRO1509","27.466","0.38476","5"],
    [46783,"HCEP03730542","2025-01-27 15:30:00","10.216","3.31486","27.093","3.974","7.56","0.285","5.763","0.01","0.29","29.8034","4.70646","42.8","0","SATNPRO1509","27.428","0.3842","5"],
    [46784,"HCEP03730542","2025-01-27 15:45:00","10.2128","3.31452","27.019","3.962","7.56","0.273","5.414","0.02","0.16","29.8026","4.70641","42.66","0","SATNPRO1509","27.13","0.37998","5"],
    [46785,"HCEP03730542","2025-01-27 16:00:00","10.2117","3.31435","26.935","3.978","7.56","0.283","4.981","0.02","0.21","29.8019","4.70632","42.84","0","SATNPRO1509","27.31","0.38252","5"],
    [46786,"HCEP03730542","2025-01-27 16:15:00","10.2105","3.31418","26.835","3.983","7.56","0.272","5.812","0.01","1.28","29.8012","4.70623","42.88","0","SATNPRO1509","27.308","0.3825","5"],
    [46787,"HCEP03730542","2025-01-27 16:30:00","10.2101","3.31412","26.717","3.992","7.56","0.301","5.105","0.02","0.16","29.801","4.70621","42.99","0","SATNPRO1509","27.386","0.38358","5"],
    [46788,"HCEP03730542","2025-01-27 16:45:00","10.2076","3.31377","26.577","4.004","7.56","0.255","4.671","0.01","0.22","29.7996","4.70604","43.11","0","SATNPRO1509","27.438","0.38434","5"],
    [46789,"HCEP03730542","2025-01-27 17:00:00","10.205","3.31341","26.426","4.038","7.57","0.261","4.251","0.01","0.17","29.7983","4.70588","43.47","0","SATNPRO1509","27.637999999999998","0.38712","5"],
    [46790,"HCEP03730542","2025-01-27 17:15:00","10.2052","3.31337","26.246","4.075","7.57","0.266","4.714","0.02","0.3","29.7978","4.7058","43.87","0","SATNPRO1509","27.594","0.38648","5"],
    [46791,"HCEP03730542","2025-01-27 17:30:00","10.2075","3.31359","26.062","4.071","7.56","0.629","56.751","0.16","18.34","29.7981","4.7058","43.84","0","SATNPRO1509","27.606","0.38664","5"],
    [46792,"HCEP03730542","2025-01-27 17:45:00","10.2092","3.31368","25.859","4.038","7.56","0.272","5.896","0.02","0.56","29.7978","4.70571","43.48","0","SATNPRO1509","27.349999999999998","0.38308","5"],
    [46793,"HCEP03730542","2025-01-27 18:00:00","10.2061","3.31341","25.648","4.03","7.56","0.283","5.362","0.01","0.34","29.7977","4.70573","43.39","0","SATNPRO1509","27.382","0.38354","5"],
    [46794,"HCEP03730542","2025-01-27 18:15:00","10.2044","3.31312","25.434","4.037","7.56","0.291","6.211","0.02","0.71","29.7963","4.70554","43.46","0","SATNPRO1509","27.566","0.38612","5"],
    [46795,"HCEP03730542","2025-01-27 18:30:00","10.1967","3.31217","25.216","4.067","7.57","0.288","4.744","0.02","0.29","29.7933","4.70524","43.78","0","SATNPRO1509","27.886","0.39054","5"],
    [46796,"HCEP03730542","2025-01-27 18:45:00","10.1985","3.31239","24.999","4.129","7.57","0.498","11.849","0.2","12.13","29.794","4.7053","44.44","0","SATNPRO1509","27.84","0.38994","5"],
    [46797,"HCEP03730542","2025-01-27 19:00:00","10.2028","3.3129","24.791","4.141","7.57","0.291","5.422","0.01","0.36","29.7957","4.70545","44.59","0","SATNPRO1509","27.798","0.38936","5"],
    [46798,"HCEP03730542","2025-01-27 19:15:00","10.2073","3.31351","24.593","4.114","7.57","0.266","5.687","0.01","0.33","29.7981","4.70571","44.3","0","SATNPRO1509","27.694","0.3879","5"],
    [46799,"HCEP03730542","2025-01-27 19:30:00","10.2115","3.31397","24.38","4.079","7.57","0.286","5.744","0.01","0.27","29.7993","4.7058","43.92","0","SATNPRO1509","27.669999999999998","0.38758","5"],
    [46800,"HCEP03730542","2025-01-27 19:45:00","10.2149","3.31435","24.193","4.054","7.56","0.263","5.083","0.01","0.29","29.8004","4.7059","43.65","0","SATNPRO1509","27.828","0.38976","5"],
    [46801,"HCEP03730542","2025-01-27 20:00:00","10.2132","3.31421","24.013","4.042","7.56","0.27","4.986","0.01","0.25","29.8005","4.70592","43.52","0","SATNPRO1509","27.93","0.3912","5"],
    [46802,"HCEP03730542","2025-01-27 20:15:00","10.2119","3.314","23.875","4.045","7.57","0.668","62.47","0.29","26.43","29.7995","4.7058","43.56","0","SATNPRO1509","27.81","0.38952","5"],
    [46803,"HCEP03730542","2025-01-27 20:30:00","10.2119","3.31399","23.676","4.054","7.57","0.313","5.434","0.06","1","29.7995","4.70579","43.65","0","SATNPRO1509","27.945999999999998","0.39146","5"],
    [46804,"HCEP03730542","2025-01-27 20:45:00","10.2131","3.31415","23.559","4.061","7.56","0.264","5.274","0.02","1.04","29.8002","4.70585","43.73","0","SATNPRO1509","28.02","0.39246","5"],
    [46805,"HCEP03730542","2025-01-27 21:00:00","10.2092","3.31371","23.498","4.06","7.57","0.268","4.173","0.02","0.31","29.799","4.70575","43.72","0","SATNPRO1509","27.874","0.39042","5"],
    [46806,"HCEP03730542","2025-01-27 21:15:00","10.2103","3.31381","23.465","4.08","7.57","0.315","4.739","0.13","0.25","29.7991","4.70574","43.93","0","SATNPRO1509","28.222","0.39532","5"],
    [46807,"HCEP03730542","2025-01-27 21:30:00","10.2098","3.31383","23.453","4.075","7.57","0.267","4.417","0.01","0.2","29.7997","4.70583","43.88","0","SATNPRO1509","27.724","0.38828","5"],
    [46808,"HCEP03730542","2025-01-27 21:45:00","10.2093","3.31377","23.473","4.055","7.56","0.257","4.732","0.01","0.21","29.7996","4.70582","43.66","0","SATNPRO1509","27.642","0.38718","5"],
    [46809,"HCEP03730542","2025-01-27 22:00:00","10.2099","3.31383","23.504","4.039","7.56","0.285","5.324","0.01","0.22","29.7996","4.70582","43.49","0","SATNPRO1509","27.436","0.38432","5"],
    [46810,"HCEP03730542","2025-01-27 22:15:00","10.2026","3.31303","23.572","4.024","7.56","0.25","4.047","0.01","0.17","29.7976","4.70567","43.32","0","SATNPRO1509","27.614","0.3868","5"],
    [46811,"HCEP03730542","2025-01-27 22:30:00","10.1928","3.31199","23.661","4.082","7.57","0.268","3.279","0.02","0.16","29.7952","4.70548","43.94","0","SATNPRO1509","28.436","0.39828","5"],
    [46812,"HCEP03730542","2025-01-27 22:45:00","10.2185","3.31521","23.771","4.157","7.57","0.245","3.245","0.01","0.14","29.8062","4.70663","44.78","0","SATNPRO1509","29.086","0.40738","5"],
    [46813,"HCEP03730542","2025-01-27 23:00:00","10.2517","3.31794","23.905","4.104","7.56","0.254","3.03","0.01","0.17","29.8061","4.70608","44.23","0","SATNPRO1509","28.994","0.40612","5"],
    [46814,"HCEP03730542","2025-01-27 23:15:00","10.1981","3.31256","24.064","4.038","7.56","0.246","4.19","0.01","0.18","29.7965","4.7056","43.47","0","SATNPRO1509","27.95","0.39146","5"],
    [46815,"HCEP03730542","2025-01-27 23:30:00","10.1774","3.31078","24.241","4.026","7.57","0.28","4.834","0.01","0.3","29.7956","4.70583","43.32","0","SATNPRO1509","27.826","0.38976","5"],
    [46816,"HCEP03730542","2025-01-27 23:45:00","10.1689","3.30979","24.42","4.055","7.56","0.259","4.749","0.01","0.25","29.7926","4.70556","43.62","0","SATNPRO1509","27.114","0.37978","5"],
    [46817,"HCEP03730542","2025-01-28 00:00:00","10.1576","3.30832","24.607","4.047","7.57","0.272","4.593","0.01","0.4","29.7872","4.70499","43.52","0","SATNPRO1509","27.166","0.38052","5"],
    [46818,"HCEP03730542","2025-01-28 00:15:00","10.1496","3.30729","24.799","4.111","7.57","0.258","4.708","0.01","0.28","29.7833","4.70458","44.2","0","SATNPRO1509","27.254","0.38176","5"],
    [46819,"HCEP03730542","2025-01-28 00:30:00","10.136","3.30573","25.104","4.194","7.58","0.29","5.11","0.06","1.69","29.7789","4.70419","45.08","0","SATNPRO1509","27.498","0.38516","5"],
    [46820,"HCEP03730542","2025-01-28 00:45:00","10.1329","3.30581","25.186","4.324","7.59","0.258","4.54","0.01","0.33","29.7822","4.70471","46.48","0","SATNPRO1509","27.87","0.39038","5"],
    [46821,"HCEP03730542","2025-01-28 01:00:00","10.1171","3.30391","25.404","4.374","7.59","0.309","12.673","0.04","8.15","29.7761","4.70413","47","0","SATNPRO1509","28.36","0.39722","5"],
    [46822,"HCEP03730542","2025-01-28 01:15:00","10.1288","3.30535","25.616","4.479","7.59","0.724","42.315","0.28","25.51","29.7809","4.70462","48.14","0","SATNPRO1509","27.992","0.39206","5"],
    [46823,"HCEP03730542","2025-01-28 01:30:00","10.1426","3.3068","25.84","4.41","7.58","0.281","5.077","0.01","0.22","29.7838","4.70482","47.41","0","SATNPRO1509","27.886","0.3906","5"],
    [46824,"HCEP03730542","2025-01-28 01:45:00","10.1369","3.30607","26.072","4.346","7.59","0.272","4.829","0.04","0.3","29.7812","4.70456","46.72","0","SATNPRO1509","28.034","0.39266","5"],
    [46825,"HCEP03730542","2025-01-28 02:00:00","10.1455","3.30705","26.297","4.352","7.58","0.282","5.272","0.01","0.24","29.7838","4.7048","46.79","0","SATNPRO1509","27.612","0.38678","5"],
    [46826,"HCEP03730542","2025-01-28 02:15:00","10.1438","3.3068","26.508","4.307","7.58","0.257","4.593","0.01","0.44","29.7826","4.70467","46.3","0","SATNPRO1509","27.91","0.3909","5"],
    [46827,"HCEP03730542","2025-01-28 02:30:00","10.1443","3.30672","26.69","4.307","7.58","0.361","5.848","0.19","0.36","29.7813","4.70449","46.31","0","SATNPRO1509","27.85","0.3901","5"],
    [46828,"HCEP03730542","2025-01-28 02:45:00","10.1348","3.3059","26.887","4.321","7.59","0.254","4.365","0.01","0.18","29.7809","4.7046","46.45","0","SATNPRO1509","27.946","0.3914","5"],
    [46829,"HCEP03730542","2025-01-28 03:00:00","10.1316","3.30557","27.046","4.363","7.59","0.278","4.638","0.01","0.2","29.7801","4.70454","46.89","0","SATNPRO1509","28.278","0.39608","5"],
    [46830,"HCEP03730542","2025-01-28 03:15:00","10.1299","3.30542","27.176","4.394","7.59","0.254","4.271","0.01","0.15","29.78","4.70457","47.22","0","SATNPRO1509","28.178","0.39468","5"],
    [46831,"HCEP03730542","2025-01-28 03:30:00","10.1274","3.30522","27.292","4.424","7.59","0.274","4.307","0.01","0.19","29.78","4.70461","47.55","0","SATNPRO1509","28.381999999999998","0.3975","5"],
    [46832,"HCEP03730542","2025-01-28 03:45:00","10.1315","3.30561","27.397","4.456","7.59","0.254","4.42","0.01","0.24","29.7805","4.70462","47.89","0","SATNPRO1509","28.056","0.39296","5"],
    [46833,"HCEP03730542","2025-01-28 04:00:00","10.1193","3.30443","27.472","4.492","7.6","0.265","3.546","0.01","0.14","29.7786","4.70457","48.27","0","SATNPRO1509","28.76","0.40284","5"],
    [46834,"HCEP03730542","2025-01-28 04:15:00","10.1288","3.30521","27.543","4.553","7.6","0.25","3.956","0.01","0.15","29.7787","4.70443","48.94","0","SATNPRO1509","28.99","0.40604","5"],
    [46835,"HCEP03730542","2025-01-28 04:30:00","10.1243","3.3047","27.583","4.587","7.61","0.279","3.959","0.03","0.21","29.7773","4.7043","49.29","0","SATNPRO1509","29.658","0.4154","5"],
    [46836,"HCEP03730542","2025-01-28 04:45:00","10.1357","3.30592","27.613","4.666","7.61","0.255","3.561","0.01","0.2","29.78","4.7045","50.15","0","SATNPRO1509","29.798000000000002","0.4174","5"],
    [46837,"HCEP03730542","2025-01-28 05:00:00","10.1522","3.30768","27.615","4.646","7.6","0.266","3.558","0.01","0.22","29.784","4.7048","49.96","0","SATNPRO1509","28.492","0.3991","5"],
    [46838,"HCEP03730542","2025-01-28 05:15:00","10.1751","3.31029","27.62","4.479","7.59","0.255","3.97","0.01","0.26","29.7912","4.70544","48.19","0","SATNPRO1509","29.052","0.40692","5"],
    [46839,"HCEP03730542","2025-01-28 05:30:00","10.2192","3.31469","27.624","4.323","7.58","0.262","3.724","0.01","0.13","29.7989","4.70581","46.55","0","SATNPRO1509","29.06","0.40702","5"],
    [46840,"HCEP03730542","2025-01-28 05:45:00","10.2047","3.31301","27.631","4.221","7.57","0.254","4.076","0.01","0.15","29.794","4.70535","45.45","0","SATNPRO1509","29.012","0.40634","5"],
    [46841,"HCEP03730542","2025-01-28 06:00:00","10.243","3.3168","27.612","4.157","7.57","0.263","3.644","0.01","0.28","29.8004","4.70562","44.79","0","SATNPRO1509","29.154","0.40834","5"],
    [46842,"HCEP03730542","2025-01-28 06:15:00","10.228","3.31532","27.569","4.091","7.57","0.246","4.369","0.01","0.17","29.798","4.70552","44.07","0","SATNPRO1509","28.872","0.4044","5"],
    [46843,"HCEP03730542","2025-01-28 06:30:00","10.2727","3.31994","27.529","4.06","7.56","0.264","3.479","0.02","0.22","29.8073","4.7061","43.77","0","SATNPRO1509","29.535999999999998","0.4137","5"],
    [46844,"HCEP03730542","2025-01-28 06:45:00","10.3011","3.32298","27.491","4.001","7.56","0.246","3.266","0.03","0.18","29.8143","4.70663","43.17","0","SATNPRO1509","29.97","0.41978","5"],
    [46845,"HCEP03730542","2025-01-28 07:00:00","10.2821","3.32091","27.426","3.966","7.56","0.255","3.348","0.01","0.13","29.8092","4.70622","42.77","0","SATNPRO1509","29.622","0.4149","5"],
    [46846,"HCEP03730542","2025-01-28 07:15:00","10.2844","3.3211","27.352","3.966","7.56","0.268","4.155","0.13","3.56","29.8092","4.70618","42.78","0","SATNPRO1509","29.648","0.41528","5"],
    [46847,"HCEP03730542","2025-01-28 07:30:00","10.2652","3.3193","27.276","3.942","7.55","4.052","50.166","5","34.75","29.8072","4.7062","42.5","0","SATNPRO1509","28.954","0.40554","5"],
    [46848,"HCEP03730542","2025-01-28 07:45:00","10.2638","3.3194","27.207","3.885","7.55","0.246","4.163","0.01","0.19","29.8094","4.70653","41.88","0","SATNPRO1509","28.772","0.40304","5"],
    [46849,"HCEP03730542","2025-01-28 08:00:00","10.2541","3.31831","27.137","3.834","7.55","0.265","4.578","0.01","0.17","29.8065","4.70628","41.33","0","SATNPRO1509","28.416","0.39798","5"],
    [46850,"HCEP03730542","2025-01-28 08:15:00","10.2508","3.31801","27.058","3.811","7.55","0.444","10.613","0.37","12.98","29.8062","4.70629","41.08","0","SATNPRO1509","28.654","0.40134","5"],
    [46851,"HCEP03730542","2025-01-28 08:30:00","10.252","3.31813","26.979","3.845","7.55","0.328","7.146","0.28","8.12","29.8064","4.70629","41.44","0","SATNPRO1509","28.42","0.39806","5"],
    [46852,"HCEP03730542","2025-01-28 08:45:00","10.2743","3.32045","26.886","3.84","7.55","0.252","4.07","0.07","0.16","29.8113","4.70661","41.41","0","SATNPRO1509","28.81","0.40352","5"],
    [46853,"HCEP03730542","2025-01-28 09:00:00","10.2787","3.32096","26.808","3.804","7.54","0.463","8.76","0.31","6.6","29.8128","4.70676","41.02","0","SATNPRO1509","28.79","0.40324","5"],
    [46854,"HCEP03730542","2025-01-28 09:15:00","10.2769","3.32084","26.741","3.764","7.54","0.247","4.561","0.01","0.32","29.8132","4.70683","40.59","0","SATNPRO1509","28.44","0.39832","5"],
    [46855,"HCEP03730542","2025-01-28 09:30:00","10.2762","3.32084","26.685","3.714","7.54","0.319","10.331","0.15","15.17","29.8137","4.70691","40.05","0","SATNPRO1509","28.428","0.39818","5"],
    [46856,"HCEP03730542","2025-01-28 09:45:00","10.2807","3.32136","26.624","3.672","7.53","0.28","31.109","0.02","25.21","29.8152","4.70704","39.6","0","SATNPRO1509","28.31","0.39656","5"],
    [46857,"HCEP03730542","2025-01-28 10:00:00","10.2868","3.32192","26.586","3.626","7.53","0.916","39.013","0.6","23.42","29.8158","4.70704","39.11","0","SATNPRO1509","28.336000000000002","0.39688","5"],
    [46858,"HCEP03730542","2025-01-28 10:15:00","10.2941","3.32276","26.558","3.592","7.53","0.244","4.803","0.01","0.21","29.8181","4.70724","38.75","0","SATNPRO1509","28.292","0.39628","5"],
    [46859,"HCEP03730542","2025-01-28 10:30:00","10.3008","3.32345","26.553","3.557","7.53","0.257","4.353","0.01","0.12","29.8195","4.70733","38.39","0","SATNPRO1509","28.546","0.39984","5"],
    [46860,"HCEP03730542","2025-01-28 10:45:00","10.3065","3.32406","26.549","3.517","7.52","0.251","5.222","0.01","0.19","29.8209","4.70743","37.95","0","SATNPRO1509","28.508","0.3993","5"],
    [46861,"HCEP03730542","2025-01-28 11:00:00","10.3141","3.32479","26.56","3.477","7.52","0.28","5.188","0.02","0.82","29.8219","4.70745","37.53","0","SATNPRO1509","28.408","0.3979","5"],
    [46862,"HCEP03730542","2025-01-28 11:15:00","10.3203","3.32543","26.586","3.437","7.52","0.248","4.749","0.02","0.36","29.8232","4.70754","37.11","0","SATNPRO1509","28.378","0.39748","5"],
    [46863,"HCEP03730542","2025-01-28 11:30:00","10.3261","3.32597","26.627","3.399","7.52","0.347","8.982","0.18","7.66","29.8238","4.70754","36.69","0","SATNPRO1509","28.445999999999998","0.39844","5"],
    [46864,"HCEP03730542","2025-01-28 11:45:00","10.3271","3.32603","26.668","3.379","7.52","0.234","3.971","0.02","0.22","29.8235","4.70747","36.48","0","SATNPRO1509","28.582","0.40036","5"],
    [46865,"HCEP03730542","2025-01-28 12:00:00","10.329","3.32623","26.714","3.377","7.51","0.269","4.612","0.03","0.18","29.824","4.70751","36.46","0","SATNPRO1509","28.332","0.39682","5"],
    [46866,"HCEP03730542","2025-01-28 12:15:00","10.3298","3.32629","26.77","3.335","7.51","0.243","5.027","0.02","0.17","29.8238","4.70748","36.01","0","SATNPRO1509","27.564","0.3861","5"],
    [46867,"HCEP03730542","2025-01-28 12:30:00","10.3323","3.32652","26.815","3.34","7.51","0.251","3.887","0.01","0.16","29.824","4.70747","36.07","0","SATNPRO1509","28.73","0.40244","5"],
    [46868,"HCEP03730542","2025-01-28 12:45:00","10.333","3.32658","26.877","3.358","7.51","0.267","4.364","0.03","0.29","29.8241","4.70747","36.26","0","SATNPRO1509","28.502","0.39922","5"],
    [46869,"HCEP03730542","2025-01-28 13:00:00","10.3318","3.32652","26.945","3.355","7.51","0.267","4.818","0.01","0.3","29.8244","4.70754","36.23","0","SATNPRO1509","28.27","0.39596","5"],
    [46870,"HCEP03730542","2025-01-28 13:15:00","10.3304","3.32636","27.012","3.332","7.51","0.252","5.091","0.01","0.24","29.8239","4.70749","35.98","0","SATNPRO1509","28.582","0.40032","5"],
    [46871,"HCEP03730542","2025-01-28 13:30:00","10.3292","3.32622","27.062","3.341","7.51","0.257","4.505","0.02","0.67","29.8236","4.70748","36.07","0","SATNPRO1509","28.494","0.3991","5"],
    [46872,"HCEP03730542","2025-01-28 13:45:00","10.3217","3.32552","27.119","3.347","7.51","0.243","4.812","0.01","0.28","29.8227","4.70748","36.13","0","SATNPRO1509","28.242","0.3956","5"],
    [46873,"HCEP03730542","2025-01-28 14:00:00","10.3232","3.32565","27.174","3.319","7.51","0.274","4.666","0.01","0.17","29.8228","4.70746","35.83","0","SATNPRO1509","28.212","0.39518","5"],
    [46874,"HCEP03730542","2025-01-28 14:15:00","10.3251","3.32586","27.234","3.294","7.51","0.248","4.726","0.01","0.2","29.8232","4.7075","35.56","0","SATNPRO1509","28.252","0.39572","5"],
    [46875,"HCEP03730542","2025-01-28 14:30:00","10.3254","3.32585","27.28","3.293","7.51","0.271","5.099","0.01","0.2","29.8229","4.70745","35.55","0","SATNPRO1509","28.126","0.39392","5"],
    [46876,"HCEP03730542","2025-01-28 14:45:00","10.3278","3.32607","27.312","3.297","7.51","0.264","5.223","0.01","0.25","29.8231","4.70745","35.6","0","SATNPRO1509","28.358","0.39718","5"],
    [46877,"HCEP03730542","2025-01-28 15:00:00","10.3283","3.32613","27.369","3.309","7.51","0.262","4.759","0.01","0.18","29.8233","4.70746","35.72","0","SATNPRO1509","28.692","0.40188","5"],
    [46878,"HCEP03730542","2025-01-28 15:15:00","10.3224","3.32555","27.387","3.307","7.51","0.261","5.041","0.01","0.43","29.8223","4.70741","35.7","0","SATNPRO1509","28.308","0.39648","5"],
    [46879,"HCEP03730542","2025-01-28 15:30:00","10.3164","3.32496","27.374","3.322","7.51","0.273","4.305","0.02","0.11","29.8214","4.70739","35.86","0","SATNPRO1509","28.362","0.39724","5"],
    [46880,"HCEP03730542","2025-01-28 15:45:00","10.3095","3.32431","27.353","3.332","7.51","0.253","5.139","0.01","0.15","29.8206","4.70739","35.96","0","SATNPRO1509","28.14","0.39414","5"],
    [46881,"HCEP03730542","2025-01-28 16:00:00","10.3043","3.32376","27.325","3.344","7.51","0.296","4.97","0.03","0.24","29.8194","4.70731","36.09","0","SATNPRO1509","28.266","0.39592","5"],
    [46882,"HCEP03730542","2025-01-28 16:15:00","10.3013","3.32345","27.266","3.353","7.51","0.272","5.311","0.02","0.2","29.8188","4.70727","36.18","0","SATNPRO1509","28.358","0.39716","5"],
    [46883,"HCEP03730542","2025-01-28 16:30:00","10.3006","3.32341","27.201","3.362","7.51","0.28","5.18","0.01","0.3","29.819","4.7073","36.28","0","SATNPRO1509","28.064","0.39306","5"],
    [46884,"HCEP03730542","2025-01-28 16:45:00","10.3011","3.32345","27.111","3.358","7.51","1.612","28.757","3.26","30.14","29.819","4.70728","36.24","0","SATNPRO1509","28.055999999999997","0.39298","5"],
    [46885,"HCEP03730542","2025-01-28 17:00:00","10.3005","3.32336","27.004","3.353","7.51","1.322","64.371","1.62","26.58","29.8187","4.70724","36.18","0","SATNPRO1509","28.012","0.39236","5"],
    [46886,"HCEP03730542","2025-01-28 17:15:00","10.2968","3.32299","26.859","3.353","7.51","0.262","6.139","0.05","1.86","29.8181","4.7072","36.18","0","SATNPRO1509","27.898","0.39076","5"],
    [46887,"HCEP03730542","2025-01-28 17:30:00","10.2949","3.32279","26.701","3.368","7.52","0.273","5.161","0.02","0.15","29.8178","4.70718","36.34","0","SATNPRO1509","28.012","0.39238","5"],
    [46888,"HCEP03730542","2025-01-28 17:45:00","10.2945","3.32276","26.526","3.369","7.51","0.248","5.263","0.01","0.22","29.8179","4.7072","36.35","0","SATNPRO1509","27.882","0.39054","5"],
    [46889,"HCEP03730542","2025-01-28 18:00:00","10.2935","3.32264","26.323","3.361","7.52","0.274","6","0.01","0.53","29.8176","4.70716","36.26","0","SATNPRO1509","28.062","0.39304","5"],
    [46890,"HCEP03730542","2025-01-28 18:15:00","10.2927","3.32256","26.129","3.374","7.52","0.255","5.593","0.01","0.5","29.8174","4.70714","36.4","0","SATNPRO1509","27.972","0.3918","5"],
    [46891,"HCEP03730542","2025-01-28 18:30:00","10.2922","3.3225","25.918","3.382","7.52","0.267","5.649","0.01","0.14","29.8174","4.70713","36.48","0","SATNPRO1509","28.084","0.39336","5"],
    [46892,"HCEP03730542","2025-01-28 18:45:00","10.2926","3.32259","25.697","3.401","7.52","0.261","6.116","0.01","0.24","29.818","4.7072","36.69","0","SATNPRO1509","28.178","0.39472","5"],
    [46893,"HCEP03730542","2025-01-28 19:00:00","10.2942","3.32269","25.472","3.418","7.52","0.258","4.247","0.01","0.18","29.8179","4.70714","36.87","0","SATNPRO1509","28.24","0.39558","5"],
    [46894,"HCEP03730542","2025-01-28 19:15:00","10.2932","3.32256","25.237","3.415","7.52","0.243","4.393","0.01","0.54","29.8173","4.70707","36.84","0","SATNPRO1509","28.252","0.3957","5"],
    [46895,"HCEP03730542","2025-01-28 19:30:00","10.2929","3.32249","25.015","3.431","7.52","0.264","4.02","0.02","0.14","29.817","4.70701","37.02","0","SATNPRO1509","28.708000000000002","0.40208","5"],
    [46896,"HCEP03730542","2025-01-28 19:45:00","10.2914","3.32235","24.793","3.429","7.52","0.237","4.236","0.01","0.27","29.817","4.70703","36.99","0","SATNPRO1509","28.23","0.39544","5"],
    [46897,"HCEP03730542","2025-01-28 20:00:00","10.2924","3.32246","24.579","3.44","7.52","0.263","4.473","0.02","0.56","29.8173","4.70705","37.11","0","SATNPRO1509","28.482","0.3989","5"],
    [46898,"HCEP03730542","2025-01-28 20:15:00","10.294","3.32261","24.363","3.451","7.52","4.125","44.999","1.17","15.26","29.8177","4.70705","37.23","0","SATNPRO1509","28.586","0.40042","5"],
    [46899,"HCEP03730542","2025-01-28 20:30:00","10.295","3.32271","24.156","3.454","7.52","0.279","5.173","0.03","0.28","29.8179","4.70705","37.27","0","SATNPRO1509","28.626","0.40094","5"],
    [46900,"HCEP03730542","2025-01-28 20:45:00","10.2938","3.32257","23.95","3.447","7.52","0.241","4.404","0.01","0.17","29.8176","4.70702","37.19","0","SATNPRO1509","28.63","0.40104","5"],
    [46901,"HCEP03730542","2025-01-28 21:00:00","10.2949","3.3227","23.781","3.438","7.52","0.258","3.936","0.01","0.17","29.818","4.70705","37.09","0","SATNPRO1509","28.284","0.39614","5"],
    [46902,"HCEP03730542","2025-01-28 21:15:00","10.2958","3.32279","23.622","3.409","7.52","0.237","4.259","0.01","0.13","29.8182","4.70705","36.78","0","SATNPRO1509","28.241999999999997","0.39562","5"],
    [46903,"HCEP03730542","2025-01-28 21:30:00","10.298400000000001","3.32302","23.491","3.431","7.52","0.252","3.6","0.01","0.16","29.8184","4.70704","37.02","0","SATNPRO1509","28.728","0.40236","5"],
    [46904,"HCEP03730542","2025-01-28 21:45:00","10.2874","3.32185","23.412","3.458","7.52","0.23","3.752","0.01","0.08","29.8158","4.70684","37.3","0","SATNPRO1509","28.468","0.39878","5"],
    [46905,"HCEP03730542","2025-01-28 22:00:00","10.2797","3.32106","23.352","3.481","7.52","0.299","4.168","0.11","0.2","29.8143","4.70676","37.54","0","SATNPRO1509","28.434","0.3982","5"],
    [46906,"HCEP03730542","2025-01-28 22:15:00","10.2773","3.32076","23.362","3.494","7.52","0.262","3.974","0.05","0.18","29.8134","4.70666","37.68","0","SATNPRO1509","28.282","0.39614","5"],
    [46907,"HCEP03730542","2025-01-28 22:30:00","10.2761","3.32075","23.38","3.499","7.52","0.265","4.21","0.01","0.26","29.8142","4.7068","37.73","0","SATNPRO1509","28.148","0.39422","5"],
    [46908,"HCEP03730542","2025-01-28 22:45:00","10.2775","3.32088","23.424","3.477","7.52","0.281","5.334","0.01","0.4","29.8143","4.70679","37.5","0","SATNPRO1509","28.07","0.39316","5"],
    [46909,"HCEP03730542","2025-01-28 23:00:00","10.2786","3.32102","23.493","3.452","7.52","0.273","4.921","0.01","0.38","29.8148","4.70684","37.23","0","SATNPRO1509","27.834","0.38986","5"],
    [46910,"HCEP03730542","2025-01-28 23:15:00","10.2769","3.3208","23.587","3.417","7.52","0.257","5.391","0.01","0.3","29.814","4.70677","36.85","0","SATNPRO1509","28.168","0.39454","5"],
    [46911,"HCEP03730542","2025-01-28 23:30:00","10.2727","3.32033","23.717","3.425","7.52","0.268","4.854","0.01","0.3","29.8127","4.70665","36.94","0","SATNPRO1509","28.062","0.39304","5"],
    [46912,"HCEP03730542","2025-01-28 23:45:00","10.2674","3.31976","23.869","3.464","7.52","1.855","428.464","0.61","129.08","29.8113","4.70655","37.35","0","SATNPRO1509","28.606","0.40068","5"],
    [46913,"HCEP03730542","2025-01-29 00:00:00","10.2647","3.31947","24.031","3.511","7.53","0.258","4.086","0.01","0.17","29.8106","4.7065","37.86","0","SATNPRO1509","28.388","0.3976","5"],
    [46914,"HCEP03730542","2025-01-29 00:15:00","10.2636","3.31937","24.205","3.565","7.53","0.245","4.479","0.01","0.44","29.8105","4.70652","38.43","0","SATNPRO1509","28.438","0.39836","5"],
    [46915,"HCEP03730542","2025-01-29 00:30:00","10.2578","3.31864","24.401","3.571","7.53","0.291","5.998","0.02","0.53","29.8078","4.70625","38.5","0","SATNPRO1509","28.158","0.39434","5"],
    [46916,"HCEP03730542","2025-01-29 00:45:00","10.241","3.31724","24.6","3.573","7.53","1.261","59.635","0.7","31.7","29.8076","4.7065","38.5","0","SATNPRO1509","27.988","0.39202","5"],
    [46917,"HCEP03730542","2025-01-29 01:00:00","10.2232","3.31533","24.806","3.588","7.53","0.271","5.263","0.01","0.21","29.8031","4.70618","38.65","0","SATNPRO1509","27.906","0.39086","5"],
    [46918,"HCEP03730542","2025-01-29 01:15:00","10.2094","3.3137","25.003","3.655","7.54","0.25","4.864","0.01","0.56","29.7981","4.7057","39.36","0","SATNPRO1509","28.512","0.39934","5"],
    [46919,"HCEP03730542","2025-01-29 01:30:00","10.2039","3.31319","25.216","3.792","7.54","0.277","4.99","0.02","0.22","29.7975","4.70572","40.83","0","SATNPRO1509","28.48","0.39894","5"],
    [46920,"HCEP03730542","2025-01-29 01:45:00","10.21","3.31383","25.455","3.807","7.54","0.277","6.146","0.02","0.34","29.7988","4.70581","40.99","0","SATNPRO1509","28.142","0.3942","5"],
    [46921,"HCEP03730542","2025-01-29 02:00:00","10.221","3.31487","25.712","3.779","7.54","0.279","5.076","0.02","0.23","29.8","4.70581","40.7","0","SATNPRO1509","28.136","0.39412","5"],
    [46922,"HCEP03730542","2025-01-29 02:15:00","10.2298","3.31564","25.953","3.751","7.54","0.26","5.917","0.01","0.21","29.8003","4.70573","40.41","0","SATNPRO1509","28.664","0.40148","5"],
    [46923,"HCEP03730542","2025-01-29 02:30:00","10.2494","3.31744","26.237","3.792","7.55","0.273","4.483","0.01","0.23","29.802","4.70567","40.87","0","SATNPRO1509","29.558","0.41402","5"],
    [46924,"HCEP03730542","2025-01-29 02:45:00","10.2071","3.31282","26.442","3.906","7.56","0.264","5.023","0.01","0.23","29.7907","4.70476","42.05","0","SATNPRO1509","29.03","0.40662","5"],
    [46925,"HCEP03730542","2025-01-29 03:00:00","10.1938","3.31144","26.646","3.993","7.56","0.29","5.452","0.01","0.32","29.7877","4.70457","42.98","0","SATNPRO1509","28.76","0.40284","5"],
    [46926,"HCEP03730542","2025-01-29 03:15:00","10.2095","3.31321","26.848","4.053","7.56","0.266","5.27","0.01","0.24","29.7925","4.705","43.64","0","SATNPRO1509","28.694","0.4019","5"],
    [46927,"HCEP03730542","2025-01-29 03:30:00","10.2215","3.31464","27.022","3.979","7.55","0.28","5.613","0.01","0.3","29.7967","4.70542","42.86","0","SATNPRO1509","28.759999999999998","0.4028","5"],
    [46928,"HCEP03730542","2025-01-29 03:45:00","10.2255","3.31517","27.157","3.881","7.54","0.256","5.049","0.01","0.2","29.7987","4.70565","41.8","0","SATNPRO1509","28.439999999999998","0.39832","5"],
    [46929,"HCEP03730542","2025-01-29 04:00:00","10.2276","3.31539","27.308","3.793","7.54","0.295","5.504","0.02","0.3","29.7991","4.70567","40.86","0","SATNPRO1509","28.534","0.39964","5"],
    [46930,"HCEP03730542","2025-01-29 04:15:00","10.2297","3.31559","27.431","3.754","7.54","0.262","5.211","0.02","0.25","29.7994","4.70568","40.44","0","SATNPRO1509","28.544","0.3998","5"],
    [46931,"HCEP03730542","2025-01-29 04:30:00","10.2285","3.31542","27.527","3.75","7.54","0.266","4.397","0.01","0.12","29.7986","4.7056","40.4","0","SATNPRO1509","28.844","0.40404","5"],
    [46932,"HCEP03730542","2025-01-29 04:45:00","10.2278","3.31521","27.606","3.795","7.55","0.246","3.631","0.01","0.23","29.7971","4.7054","40.88","0","SATNPRO1509","29.102","0.40762","5"],
    [46933,"HCEP03730542","2025-01-29 05:00:00","10.2181","3.31407","27.637","3.873","7.55","0.269","3.832","0.01","0.14","29.7936","4.70506","41.71","0","SATNPRO1509","28.948","0.40546","5"],
    [46934,"HCEP03730542","2025-01-29 05:15:00","10.2228","3.31466","27.66","3.923","7.55","0.25","4.128","0.01","0.16","29.7956","4.70527","42.25","0","SATNPRO1509","28.934","0.40528","5"],
    [46935,"HCEP03730542","2025-01-29 05:30:00","10.2173","3.31402","27.668","3.922","7.55","0.282","4.014","0.02","0.12","29.7938","4.7051","42.23","0","SATNPRO1509","28.902","0.40484","5"],
    [46936,"HCEP03730542","2025-01-29 05:45:00","10.2195","3.31432","27.691","3.926","7.55","0.258","4.399","0.02","0.08","29.7949","4.70523","42.28","0","SATNPRO1509","28.664","0.40146","5"],
    [46937,"HCEP03730542","2025-01-29 06:00:00","10.2247","3.3149","27.693","3.901","7.55","0.279","4.275","0.01","0.19","29.7964","4.70536","42.02","0","SATNPRO1509","28.474","0.3988","5"],
    [46938,"HCEP03730542","2025-01-29 06:15:00","10.2274","3.31521","27.677","3.86","7.55","0.268","4.615","0.03","0.18","29.7973","4.70544","41.58","0","SATNPRO1509","28.696","0.40192","5"],
    [46939,"HCEP03730542","2025-01-29 06:30:00","10.2281","3.31524","27.665","3.846","7.55","0.284","4.315","0.01","0.25","29.7971","4.7054","41.43","0","SATNPRO1509","28.828","0.40382","5"],
    [46940,"HCEP03730542","2025-01-29 06:45:00","10.2281","3.31522","27.631","3.859","7.55","0.243","3.626","0.01","0.21","29.7969","4.70536","41.57","0","SATNPRO1509","29.154","0.40836","5"],
    [46941,"HCEP03730542","2025-01-29 07:00:00","10.2073","3.31268","27.578","3.932","7.56","0.26","3.089","0.01","0.13","29.7886","4.70453","42.33","0","SATNPRO1509","29.664","0.41552","5"],
    [46942,"HCEP03730542","2025-01-29 07:15:00","10.1608","3.30862","27.513","4.126","7.58","0.237","2.84","0.01","0.15","29.7864","4.70498","44.38","0","SATNPRO1509","30.106","0.42172","5"],
    [46943,"HCEP03730542","2025-01-29 07:30:00","10.1732","3.30977","27.441","4.348","7.58","0.253","2.48","0.01","0.11","29.7877","4.70496","46.78","0","SATNPRO1509","30.344","0.42502","5"],
    [46944,"HCEP03730542","2025-01-29 07:45:00","10.1936","3.31204","27.373","4.354","7.58","0.232","2.203","0.01","0.09","29.7936","4.70546","46.86","0","SATNPRO1509","30.572","0.42822","5"],
    [46945,"HCEP03730542","2025-01-29 08:00:00","10.2192","3.31469","27.3","4.229","7.56","0.26","3.518","0.01","0.14","29.799","4.7058","45.55","0","SATNPRO1509","29.206","0.40912","5"],
    [46946,"HCEP03730542","2025-01-29 08:15:00","10.244","3.31707","27.22","4.015","7.55","0.25","4.235","0.01","0.5","29.8024","4.70586","43.27","0","SATNPRO1509","28.838","0.40396","5"],
    [46947,"HCEP03730542","2025-01-29 08:30:00","10.2415","3.3166","27.127","3.842","7.54","0.268","4.387","0.01","0.2","29.7998","4.70553","41.4","0","SATNPRO1509","28.733999999999998","0.4025","5"],
    [46948,"HCEP03730542","2025-01-29 08:45:00","10.2415","3.31659","27.041","3.784","7.54","0.253","4.194","0.01","0.19","29.7997","4.70552","40.77","0","SATNPRO1509","28.704","0.40202","5"],
    [46949,"HCEP03730542","2025-01-29 09:00:00","10.2499","3.31746","26.952","3.759","7.54","0.288","5.096","0.06","0.49","29.8016","4.70564","40.51","0","SATNPRO1509","28.612","0.40078","5"],
    [46950,"HCEP03730542","2025-01-29 09:15:00","10.2584","3.31854","26.838","3.709","7.53","0.253","5.022","0.01","0.26","29.8054","4.70603","39.98","0","SATNPRO1509","28.844","0.40398","5"],
    [46951,"HCEP03730542","2025-01-29 09:30:00","10.2598","3.31841","26.751","3.682","7.54","0.276","4.922","0.01","0.3","29.803","4.70566","39.7","0","SATNPRO1509","29.122","0.40794","5"],
    [46952,"HCEP03730542","2025-01-29 09:45:00","10.2701","3.31957","26.66","3.71","7.54","0.256","4.328","0.03","0.2","29.806","4.70592","40.01","0","SATNPRO1509","29.368","0.41132","5"],
    [46953,"HCEP03730542","2025-01-29 10:00:00","10.2762","3.32016","26.566","3.716","7.54","0.264","3.981","0.01","0.26","29.807","4.70595","40.07","0","SATNPRO1509","29.45","0.4125","5"],
    [46954,"HCEP03730542","2025-01-29 10:15:00","10.2606","3.31834","26.498","3.742","7.54","0.248","3.619","0.02","0.13","29.8017","4.70546","40.34","0","SATNPRO1509","29.21","0.40916","5"],
    [46955,"HCEP03730542","2025-01-29 10:30:00","10.2876","3.32152","26.436","3.749","7.53","0.266","4.211","0.01","0.3","29.8112","4.70636","40.44","0","SATNPRO1509","29.246","0.40966","5"],
    [46956,"HCEP03730542","2025-01-29 10:45:00","10.2953","3.32247","26.409","3.619","7.52","0.396","18.172","0.25","22.34","29.8144","4.70668","39.04","0","SATNPRO1509","29.036","0.40674","5"],
    [46957,"HCEP03730542","2025-01-29 11:00:00","10.2982","3.32274","26.394","3.521","7.52","0.259","4.224","0.01","0.2","29.8147","4.70668","37.99","0","SATNPRO1509","29.06","0.40702","5"],
    [46958,"HCEP03730542","2025-01-29 11:15:00","10.3004","3.32294","26.391","3.479","7.52","0.249","4.734","0.01","0.18","29.8149","4.70666","37.53","0","SATNPRO1509","29.004","0.40626","5"],
    [46959,"HCEP03730542","2025-01-29 11:30:00","10.3058","3.32338","26.405","3.446","7.52","0.3","7.641","0.02","6.16","29.8148","4.70657","37.18","0","SATNPRO1509","28.714000000000002","0.40222","5"],
    [46960,"HCEP03730542","2025-01-29 11:45:00","10.3105","3.32389","26.437","3.407","7.51","0.306","9.242","0.09","7.1","29.8159","4.70665","36.77","0","SATNPRO1509","28.914","0.40498","5"],
    [46961,"HCEP03730542","2025-01-29 12:00:00","10.3181","3.32454","26.465","3.355","7.51","0.277","4.821","0.02","1.32","29.8162","4.70657","36.21","0","SATNPRO1509","28.762","0.40286","5"],
    [46962,"HCEP03730542","2025-01-29 12:15:00","10.3206","3.32479","26.51","3.324","7.51","0.245","4.609","0.01","0.29","29.8166","4.70659","35.89","0","SATNPRO1509","29.178","0.4087","5"],
    [46963,"HCEP03730542","2025-01-29 12:30:00","10.3234","3.3251","26.578","3.294","7.51","0.258","4.575","0.01","0.22","29.8173","4.70665","35.56","0","SATNPRO1509","28.636","0.4011","5"],
    [46964,"HCEP03730542","2025-01-29 12:45:00","10.3252","3.32523","26.653","3.269","7.51","0.243","4.465","0.01","0.19","29.8172","4.7066","35.3","0","SATNPRO1509","28.702","0.40202","5"],
    [46965,"HCEP03730542","2025-01-29 13:00:00","10.327","3.32547","26.725","3.253","7.5","0.261","4.581","0.01","0.21","29.818","4.7067","35.12","0","SATNPRO1509","28.602","0.40062","5"],
    [46966,"HCEP03730542","2025-01-29 13:15:00","10.327","3.32547","26.806","3.225","7.5","0.244","4.699","0.01","0.19","29.818","4.7067","34.82","0","SATNPRO1509","28.84","0.40396","5"],
    [46967,"HCEP03730542","2025-01-29 13:30:00","10.3276","3.32548","26.866","3.205","7.5","0.262","4.512","0.02","0.13","29.8176","4.70663","34.61","0","SATNPRO1509","28.656","0.40136","5"],
    [46968,"HCEP03730542","2025-01-29 13:45:00","10.3287","3.32566","26.936","3.209","7.5","0.25","4.451","0.01","0.13","29.8184","4.70674","34.65","0","SATNPRO1509","28.544","0.39978","5"],
    [46969,"HCEP03730542","2025-01-29 14:00:00","10.3308","3.32587","27.015","3.204","7.5","0.255","4.566","0","0.2","29.8187","4.70675","34.59","0","SATNPRO1509","28.682","0.40172","5"],
    [46970,"HCEP03730542","2025-01-29 14:15:00","10.3318","3.32597","27.081","3.19","7.5","0.26","4.803","0.01","0.38","29.8189","4.70676","34.45","0","SATNPRO1509","28.791999999999998","0.40328","5"],
    [46971,"HCEP03730542","2025-01-29 14:30:00","10.3353","3.32632","27.154","3.176","7.5","0.283","4.819","0.02","0.3","29.8195","4.70679","34.29","0","SATNPRO1509","28.637999999999998","0.4011","5"],
    [46972,"HCEP03730542","2025-01-29 14:45:00","10.3362","3.32637","27.214","3.177","7.5","0.28","5.022","0.03","0.69","29.8192","4.70674","34.31","0","SATNPRO1509","28.782","0.40318","5"],
    [46973,"HCEP03730542","2025-01-29 15:00:00","10.3363","3.32629","27.283","3.161","7.5","0.266","4.613","0.01","0.29","29.8184","4.70662","34.14","0","SATNPRO1509","28.762","0.4029","5"],
    [46974,"HCEP03730542","2025-01-29 15:15:00","10.3315","3.32589","27.333","3.173","7.5","0.249","4.665","0.01","0.24","29.8182","4.70668","34.26","0","SATNPRO1509","28.72","0.40226","5"],
    [46975,"HCEP03730542","2025-01-29 15:30:00","10.33","3.32565","27.373","3.191","7.5","0.273","4.687","0.02","0.21","29.8171","4.70655","34.45","0","SATNPRO1509","28.906","0.40484","5"],
    [46976,"HCEP03730542","2025-01-29 15:45:00","10.3271","3.32545","27.392","3.205","7.5","0.261","5.359","0.02","0.25","29.8175","4.70666","34.61","0","SATNPRO1509","28.834","0.40388","5"],
    [46977,"HCEP03730542","2025-01-29 16:00:00","10.3265","3.32538","27.401","3.202","7.5","5.081","57.698","6.35","32.46","29.8173","4.70665","34.57","0","SATNPRO1509","28.919999999999998","0.40508","5"],
    [46978,"HCEP03730542","2025-01-29 16:15:00","10.3264","3.32538","27.405","3.206","7.5","0.248","4.6","0.01","0.26","29.8174","4.70665","34.61","0","SATNPRO1509","28.678","0.40166","5"],
    [46979,"HCEP03730542","2025-01-29 16:30:00","10.3217","3.32498","27.389","3.207","7.5","5.895","209.808","2.86","85.65","29.8172","4.7067","34.62","0","SATNPRO1509","28.706","0.40208","5"],
    [46980,"HCEP03730542","2025-01-29 16:45:00","10.3188","3.32465","27.367","3.216","7.5","0.248","4.586","0.01","0.34","29.8163","4.70662","34.71","0","SATNPRO1509","28.822","0.4037","5"],
    [46981,"HCEP03730542","2025-01-29 17:00:00","10.3145","3.32424","27.315","3.242","7.5","0.27","4.514","0.02","0.39","29.8158","4.70661","35","0","SATNPRO1509","28.922","0.4051","5"],
    [46982,"HCEP03730542","2025-01-29 17:15:00","10.3118","3.32397","27.239","3.265","7.51","0.248","4.385","0.01","0.15","29.8154","4.70659","35.24","0","SATNPRO1509","28.858","0.40418","5"],
    [46983,"HCEP03730542","2025-01-29 17:30:00","10.308","3.3236","27.155","3.286","7.51","0.302","10.579","0.06","9.94","29.8148","4.70658","35.46","0","SATNPRO1509","28.956","0.40554","5"],
    [46984,"HCEP03730542","2025-01-29 17:45:00","10.3032","3.3231","27.036","3.32","7.51","0.249","4.138","0.01","0.3","29.8138","4.70651","35.83","0","SATNPRO1509","29.032","0.40664","5"],
    [46985,"HCEP03730542","2025-01-29 18:00:00","10.3005","3.32286","26.902","3.36","7.51","0.266","4.206","0.02","0.33","29.8137","4.70652","36.25","0","SATNPRO1509","28.998","0.40618","5"],
    [46986,"HCEP03730542","2025-01-29 18:15:00","10.2982","3.32265","26.733","3.375","7.51","0.774","10.052","1.69","16.84","29.8137","4.70655","36.41","0","SATNPRO1509","28.896","0.40476","5"],
    [46987,"HCEP03730542","2025-01-29 18:30:00","10.2974","3.32257","26.56","3.369","7.51","0.286","3.827","0.06","0.16","29.8135","4.70653","36.35","0","SATNPRO1509","29.136","0.40812","5"],
    [46988,"HCEP03730542","2025-01-29 18:45:00","10.2947","3.32232","26.358","3.367","7.51","0.249","4.067","0.02","0.13","29.8134","4.70654","36.33","0","SATNPRO1509","29.006","0.40632","5"],
    [46989,"HCEP03730542","2025-01-29 19:00:00","10.2918","3.32204","26.146","3.363","7.51","0.267","3.909","0.03","0.06","29.813","4.70652","36.28","0","SATNPRO1509","28.874","0.40446","5"],
    [46990,"HCEP03730542","2025-01-29 19:15:00","10.2895","3.3217","25.929","3.371","7.51","0.235","3.738","0.01","0.22","29.8116","4.70635","36.36","0","SATNPRO1509","28.908","0.4049","5"],
    [46991,"HCEP03730542","2025-01-29 19:30:00","10.285","3.32111","25.694","3.41","7.52","0.257","3.333","0.01","0.12","29.8095","4.70611","36.78","0","SATNPRO1509","29.137999999999998","0.40812","5"],
    [46992,"HCEP03730542","2025-01-29 19:45:00","10.2818","3.32089","25.462","3.472","7.52","0.233","3.318","0.01","0.03","29.8101","4.70624","37.45","0","SATNPRO1509","29.25","0.40968","5"],
    [46993,"HCEP03730542","2025-01-29 20:00:00","10.2797","3.32064","25.225","3.474","7.52","0.246","3.146","0.01","0.09","29.8094","4.70616","37.47","0","SATNPRO1509","29.412","0.41198","5"],
    [46994,"HCEP03730542","2025-01-29 20:15:00","10.2771","3.32021","24.987","3.497","7.52","3.993","41.952","5.52","31.1","29.8074","4.70591","37.71","0","SATNPRO1509","29.426","0.41214","5"],
    [46995,"HCEP03730542","2025-01-29 20:30:00","10.2802","3.32076","24.746","3.522","7.52","0.265","3.966","0.01","0.11","29.8104","4.70627","37.99","0","SATNPRO1509","29.146","0.4082","5"],
    [46996,"HCEP03730542","2025-01-29 20:45:00","10.2831","3.32111","24.493","3.467","7.51","0.25","4.38","0.01","0.26","29.8116","4.70637","37.39","0","SATNPRO1509","28.718","0.40222","5"],
    [46997,"HCEP03730542","2025-01-29 21:00:00","10.2813","3.32089","24.279","3.405","7.51","0.264","4.293","0.01","0.16","29.8111","4.70632","36.72","0","SATNPRO1509","28.752000000000002","0.40276","5"],
    [46998,"HCEP03730542","2025-01-29 21:15:00","10.2888","3.32166","24.072","3.378","7.51","0.236","4.179","0.01","0.2","29.8125","4.70639","36.44","0","SATNPRO1509","28.657999999999998","0.40144","5"],
    [46999,"HCEP03730542","2025-01-29 21:30:00","10.2856","3.3213","23.898","3.349","7.51","0.259","3.661","0.02","0.28","29.8117","4.70631","36.13","0","SATNPRO1509","29.056","0.407","5"],
    [47000,"HCEP03730542","2025-01-29 21:45:00","10.2854","3.32114","23.761","3.377","7.51","0.252","4.128","0.02","0.15","29.8103","4.70611","36.43","0","SATNPRO1509","29.1","0.40756","5"],
    [47001,"HCEP03730542","2025-01-29 22:00:00","10.2828","3.32087","23.645","3.417","7.52","0.257","3.718","0.01","0.34","29.8098","4.70608","36.85","0","SATNPRO1509","29.194","0.40894","5"],
    [47002,"HCEP03730542","2025-01-29 22:15:00","10.2799","3.32056","23.527","3.475","7.52","0.231","3.123","0.01","0.12","29.8091","4.70602","37.48","0","SATNPRO1509","29.472","0.41282","5"],
    [47003,"HCEP03730542","2025-01-29 22:30:00","10.282","3.32081","23.475","3.506","7.52","0.259","3.566","0.01","0.32","29.8099","4.7061","37.81","0","SATNPRO1509","28.818","0.40368","5"],
    [47004,"HCEP03730542","2025-01-29 22:45:00","10.2835","3.32096","23.45","3.488","7.52","0.239","3.977","0.01","0.2","29.8102","4.70612","37.62","0","SATNPRO1509","29.3","0.4104","5"],
    [47005,"HCEP03730542","2025-01-29 23:00:00","10.2768","3.32024","23.447","3.475","7.52","0.259","3.559","0.04","0.15","29.8085","4.70598","37.48","0","SATNPRO1509","29.198","0.40894","5"],
    [47006,"HCEP03730542","2025-01-29 23:15:00","10.2806","3.32071","23.437","3.482","7.51","0.251","4.683","0.01","0.22","29.81","4.70613","37.56","0","SATNPRO1509","28.574","0.40024","5"],
    [47007,"HCEP03730542","2025-01-29 23:30:00","10.2741","3.31995","23.471","3.406","7.51","0.268","4.856","0.01","0.22","29.8078","4.70592","36.73","0","SATNPRO1509","28.896","0.40472","5"],
    [47008,"HCEP03730542","2025-01-29 23:45:00","10.2571","3.31804","23.542","3.449","7.52","0.255","3.806","0.07","0.2","29.8028","4.70549","37.17","0","SATNPRO1509","29.472","0.4128","5"],
    [47009,"HCEP03730542","2025-01-30 00:00:00","10.2586","3.31826","23.628","3.57","7.52","2.614","36.527","3.71","37.36","29.8036","4.7056","38.49","0","SATNPRO1509","28.79","0.40324","5"],
    [47010,"HCEP03730542","2025-01-30 00:15:00","10.2279","3.31461","23.764","3.59","7.53","2.09","32.828","2.05","28.38","29.7925","4.70452","38.66","0","SATNPRO1509","28.874","0.4044","5"],
    [47011,"HCEP03730542","2025-01-30 00:30:00","10.2371","3.31651","23.939","3.721","7.53","0.292","4.665","0.08","0.18","29.8038","4.70599","40.1","0","SATNPRO1509","28.694","0.40188","5"],
    [47012,"HCEP03730542","2025-01-30 00:45:00","10.2269","3.31475","24.174","3.618","7.53","0.267","4.812","0.05","0.28","29.7945","4.70485","38.97","0","SATNPRO1509","28.574","0.40024","5"],
    [47013,"HCEP03730542","2025-01-30 01:00:00","10.2193","3.31423","24.385","3.662","7.53","0.281","4.988","0.02","0.18","29.7956","4.70514","39.44","0","SATNPRO1509","28.535999999999998","0.3997","5"],
    [47014,"HCEP03730542","2025-01-30 01:15:00","10.2079","3.3128","24.599","3.683","7.53","0.263","4.883","0.02","0.23","29.7905","4.70462","39.66","0","SATNPRO1509","28.578","0.40026","5"],
    [47015,"HCEP03730542","2025-01-30 01:30:00","10.2071","3.31299","24.791","3.726","7.53","0.276","4.968","0.01","0.25","29.793","4.705","40.12","0","SATNPRO1509","28.442","0.39836","5"],
    [47016,"HCEP03730542","2025-01-30 01:45:00","10.1982","3.31236","25.016","3.717","7.53","0.273","5.797","0.03","1.25","29.794","4.70531","40.02","0","SATNPRO1509","28.526","0.39954","5"],
    [47017,"HCEP03730542","2025-01-30 02:00:00","10.19","3.31132","25.237","3.745","7.54","0.32","5.463","0.04","0.47","29.7902","4.70491","40.31","0","SATNPRO1509","28.536","0.3997","5"],
    [47018,"HCEP03730542","2025-01-30 02:15:00","10.1731","3.30951","25.495","3.81","7.55","0.28","5.13","0.02","0.42","29.786","4.7046","40.98","0","SATNPRO1509","28.648","0.40124","5"],
    [47019,"HCEP03730542","2025-01-30 02:30:00","10.1709","3.30929","25.707","3.896","7.55","0.362","5.129","0.24","0.62","29.7855","4.70459","41.91","0","SATNPRO1509","28.728","0.4024","5"],
    [47020,"HCEP03730542","2025-01-30 02:45:00","10.1649","3.30859","25.976","3.959","7.56","0.276","4.565","0.02","0.3","29.7834","4.7044","42.58","0","SATNPRO1509","29.02","0.40648","5"],
    [47021,"HCEP03730542","2025-01-30 03:00:00","10.1849","3.31053","26.198","4.002","7.55","0.316","5.849","0.03","1.13","29.7862","4.70448","43.06","0","SATNPRO1509","28.896","0.40474","5"],
    [47022,"HCEP03730542","2025-01-30 03:15:00","10.1847","3.31041","26.425","3.95","7.55","0.293","4.668","0.03","0.32","29.785","4.70433","42.5","0","SATNPRO1509","28.96","0.40564","5"],
    [47023,"HCEP03730542","2025-01-30 03:30:00","10.1873","3.31063","26.622","3.938","7.55","0.302","5.905","0.03","0.99","29.785","4.70429","42.38","0","SATNPRO1509","29.026","0.40654","5"],
    [47024,"HCEP03730542","2025-01-30 03:45:00","10.1843","3.31001","26.803","3.945","7.55","0.271","4.467","0.01","0.21","29.7812","4.70381","42.45","0","SATNPRO1509","29.022","0.40652","5"],
    [47025,"HCEP03730542","2025-01-30 04:00:00","10.192","3.31099","27.021","3.954","7.55","0.315","5.313","0.03","0.58","29.7846","4.70418","42.56","0","SATNPRO1509","28.928","0.40516","5"],
    [47026,"HCEP03730542","2025-01-30 04:15:00","10.1983","3.3117","27.165","3.9","7.54","0.279","5.222","0.02","0.49","29.7864","4.70434","41.98","0","SATNPRO1509","28.932","0.40522","5"],
    [47027,"HCEP03730542","2025-01-30 04:30:00","10.2025","3.31215","27.322","3.844","7.54","0.357","6.361","0.13","0.64","29.7875","4.70443","41.38","0","SATNPRO1509","28.744","0.40262","5"],
    [47028,"HCEP03730542","2025-01-30 04:45:00","10.2085","3.31293","27.456","3.813","7.54","0.269","5.311","0.01","0.29","29.7902","4.70473","41.05","0","SATNPRO1509","28.79","0.40328","5"],
    [47029,"HCEP03730542","2025-01-30 05:00:00","10.2133","3.31344","27.567","3.77","7.54","0.283","5.17","0.01","0.31","29.7913","4.70482","40.59","0","SATNPRO1509","28.724","0.40232","5"],
    [47030,"HCEP03730542","2025-01-30 05:15:00","10.2175","3.31382","27.664","3.746","7.54","0.27","4.911","0.02","0.23","29.7916","4.7048","40.34","0","SATNPRO1509","28.868","0.40438","5"],
    [47031,"HCEP03730542","2025-01-30 05:30:00","10.2196","3.31389","27.677","3.747","7.54","0.276","4.703","0.02","0.41","29.7905","4.7046","40.36","0","SATNPRO1509","29.058","0.40702","5"],
    [47032,"HCEP03730542","2025-01-30 05:45:00","10.2276","3.31474","27.712","3.755","7.53","0.259","4.374","0.01","0.19","29.7925","4.70476","40.44","0","SATNPRO1509","28.9","0.40482","5"],
    [47033,"HCEP03730542","2025-01-30 06:00:00","10.2267","3.31447","27.728","3.735","7.54","0.284","4.401","0.02","0.31","29.7905","4.70449","40.23","0","SATNPRO1509","29.016","0.4064","5"],
    [47034,"HCEP03730542","2025-01-30 06:15:00","10.2201","3.31361","27.765","3.754","7.54","0.272","4.34","0.03","0.28","29.7873","4.70415","40.43","0","SATNPRO1509","29.036","0.40668","5"],
    [47035,"HCEP03730542","2025-01-30 06:30:00","10.2156","3.313","27.766","3.794","7.54","0.286","4.237","0.02","0.37","29.7849","4.70387","40.85","0","SATNPRO1509","28.976","0.40582","5"],
    [47036,"HCEP03730542","2025-01-30 06:45:00","10.2132","3.31256","27.739","3.83","7.54","0.265","4.329","0.01","0.38","29.7825","4.70357","41.24","0","SATNPRO1509","28.936","0.4053","5"],
    [47037,"HCEP03730542","2025-01-30 07:00:00","10.2126","3.31262","27.701","3.877","7.54","0.298","4.023","0.09","0.22","29.7836","4.70373","41.75","0","SATNPRO1509","29.062","0.40708","5"],
    [47038,"HCEP03730542","2025-01-30 07:15:00","10.2108","3.31231","27.665","3.882","7.55","0.27","4.141","0.02","0.36","29.7821","4.70355","41.79","0","SATNPRO1509","29.182","0.40872","5"],
    [47039,"HCEP03730542","2025-01-30 07:30:00","10.2141","3.31269","27.611","3.894","7.55","0.296","4.049","0.08","0.24","29.7832","4.70364","41.93","0","SATNPRO1509","29.344","0.41102","5"],
    [47040,"HCEP03730542","2025-01-30 07:45:00","10.226","3.31405","27.536","3.885","7.54","0.26","3.882","0.01","0.14","29.787","4.70399","41.85","0","SATNPRO1509","29.312","0.41058","5"],
    [47041,"HCEP03730542","2025-01-30 08:00:00","10.2301","3.31451","27.472","3.868","7.54","0.269","3.735","0.01","0.15","29.7882","4.70409","41.67","0","SATNPRO1509","29.426","0.41216","5"],
    [47042,"HCEP03730542","2025-01-30 08:15:00","10.2408","3.31558","27.389","3.851","7.54","0.258","4.821","0.01","0.67","29.7902","4.70419","41.49","0","SATNPRO1509","29.552","0.4139","5"],
    [47043,"HCEP03730542","2025-01-30 08:30:00","10.255","3.31712","27.221","3.821","7.54","0.518","10.521","0.73","18.8","29.7938","4.70446","41.18","0","SATNPRO1509","29.538","0.41368","5"],
    [47044,"HCEP03730542","2025-01-30 08:45:00","10.267","3.31873","27.173","3.773","7.53","0.251","3.954","0.02","0.22","29.8001","4.70515","40.67","0","SATNPRO1509","29.674","0.41562","5"],
    [47045,"HCEP03730542","2025-01-30 09:00:00","10.2876","3.32088","27.063","3.69","7.53","0.267","4.064","0.01","0.24","29.8046","4.70545","39.8","0","SATNPRO1509","29.65","0.41532","5"],
    [47046,"HCEP03730542","2025-01-30 09:15:00","10.3134","3.32369","26.944","3.593","7.52","0.244","3.995","0.01","0.2","29.8115","4.706","38.78","0","SATNPRO1509","29.82","0.4177","5"],
    [47047,"HCEP03730542","2025-01-30 09:30:00","10.3334","3.32533","26.83","3.458","7.51","0.267","4.427","0.01","0.22","29.8113","4.70565","37.34","0","SATNPRO1509","29.8","0.41742","5"],
    [47048,"HCEP03730542","2025-01-30 09:45:00","10.3485","3.32666","26.74","3.347","7.5","0.248","4.443","0.01","0.24","29.8121","4.70551","36.15","0","SATNPRO1509","29.626","0.41494","5"],
    [47049,"HCEP03730542","2025-01-30 10:00:00","10.360900000000001","3.3277","26.622","3.243","7.5","0.266","4.176","0.02","0.22","29.8124","4.70533","35.04","0","SATNPRO1509","29.855999999999998","0.41818","5"],
    [47050,"HCEP03730542","2025-01-30 10:15:00","10.3653","3.32807","26.49","3.183","7.5","0.253","4.327","0.01","0.16","29.8126","4.70528","34.39","0","SATNPRO1509","29.786","0.41718","5"],
    [47051,"HCEP03730542","2025-01-30 10:30:00","10.3562","3.32693","26.325","3.176","7.5","0.267","4.156","0.01","0.39","29.8087","4.70487","34.31","0","SATNPRO1509","29.858","0.41816","5"],
    [47052,"HCEP03730542","2025-01-30 10:45:00","10.348","3.32618","26.237","3.26","7.5","0.243","4.319","0.01","0.16","29.8081","4.70491","35.21","0","SATNPRO1509","29.794","0.41732","5"],
    [47053,"HCEP03730542","2025-01-30 11:00:00","10.3373","3.32502","26.163","3.309","7.51","0.271","4.358","0.01","0.38","29.8054","4.70469","35.73","0","SATNPRO1509","29.716","0.4162","5"],
    [47054,"HCEP03730542","2025-01-30 11:15:00","10.3284","3.32415","26.134","3.386","7.51","0.257","4.525","0.01","0.2","29.804","4.70464","36.56","0","SATNPRO1509","29.762","0.41686","5"],
    [47055,"HCEP03730542","2025-01-30 11:30:00","10.32","3.32333","26.1","3.466","7.52","0.274","4.378","0.01","0.23","29.8028","4.70461","37.41","0","SATNPRO1509","29.736","0.4165","5"],
    [47056,"HCEP03730542","2025-01-30 11:45:00","10.3156","3.32286","26.109","3.542","7.52","0.256","4.524","0.01","0.22","29.8017","4.70453","38.23","0","SATNPRO1509","29.874","0.41842","5"],
    [47057,"HCEP03730542","2025-01-30 12:00:00","10.3162","3.32296","26.152","3.57","7.52","0.266","4.075","0.01","0.21","29.8022","4.70459","38.53","0","SATNPRO1509","29.768","0.41696","5"],
    [47058,"HCEP03730542","2025-01-30 12:15:00","10.3211","3.32362","26.176","3.557","7.52","0.253","4.459","0.01","0.39","29.8046","4.70485","38.4","0","SATNPRO1509","29.624000000000002","0.41492","5"],
    [47059,"HCEP03730542","2025-01-30 12:30:00","10.3193","3.3234","26.238","3.503","7.52","0.268","4.195","0.01","0.39","29.804","4.7048","37.81","0","SATNPRO1509","29.536","0.4137","5"],
    [47060,"HCEP03730542","2025-01-30 12:45:00","10.32","3.3235","26.262","3.483","7.52","0.255","4.398","0.02","0.25","29.8044","4.70484","37.6","0","SATNPRO1509","29.452","0.41246","5"],
    [47061,"HCEP03730542","2025-01-30 13:00:00","10.3195","3.32343","26.37","3.469","7.52","0.31","4.633","0.07","1.15","29.8041","4.70481","37.44","0","SATNPRO1509","29.512","0.41336","5"],
    [47062,"HCEP03730542","2025-01-30 13:15:00","10.32","3.32348","26.453","3.466","7.52","0.325","4.536","0.17","0.47","29.8041","4.70481","37.41","0","SATNPRO1509","29.436","0.41228","5"],
    [47063,"HCEP03730542","2025-01-30 13:30:00","10.3197","3.3235","26.54","3.461","7.52","0.271","3.945","0.01","0.21","29.8045","4.70488","37.36","0","SATNPRO1509","29.663999999999998","0.4155","5"],
    [47064,"HCEP03730542","2025-01-30 13:45:00","10.3201","3.32351","26.625","3.46","7.52","0.247","3.98","0.01","0.16","29.8043","4.70485","37.35","0","SATNPRO1509","29.574","0.41424","5"],
    [47065,"HCEP03730542","2025-01-30 14:00:00","10.3203","3.32348","26.712","3.457","7.51","0.265","3.798","0.01","0.17","29.8038","4.70478","37.32","0","SATNPRO1509","29.538","0.41374","5"],
    [47066,"HCEP03730542","2025-01-30 14:15:00","10.3193","3.32334","26.759","3.458","7.52","0.247","3.917","0.01","0.34","29.8032","4.70471","37.32","0","SATNPRO1509","29.69","0.41584","5"],
    [47067,"HCEP03730542","2025-01-30 14:30:00","10.3186","3.32321","26.9","3.466","7.52","0.268","3.917","0.02","0.26","29.8024","4.70462","37.41","0","SATNPRO1509","29.504","0.41328","5"],
    [47068,"HCEP03730542","2025-01-30 14:45:00","10.3189","3.32323","26.999","3.481","7.52","0.253","3.559","0.02","0.14","29.8023","4.70461","37.58","0","SATNPRO1509","29.48","0.41292","5"],
    [47069,"HCEP03730542","2025-01-30 15:00:00","10.3186","3.32315","27.06","3.489","7.52","0.27","3.999","0.02","1.16","29.8017","4.70453","37.66","0","SATNPRO1509","29.544","0.41382","5"],
    [47070,"HCEP03730542","2025-01-30 15:15:00","10.3211","3.32348","27.15","3.488","7.52","0.251","3.819","0.02","0.24","29.803","4.70467","37.65","0","SATNPRO1509","29.478","0.41292","5"],
    [47071,"HCEP03730542","2025-01-30 15:30:00","10.322","3.32361","27.219","3.465","7.51","0.272","3.744","0.02","0.14","29.8035","4.70473","37.4","0","SATNPRO1509","29.598","0.4146","5"],
    [47072,"HCEP03730542","2025-01-30 15:45:00","10.324","3.3238","27.303","3.458","7.51","0.266","4.143","0.05","0.21","29.8037","4.70474","37.33","0","SATNPRO1509","29.558","0.414","5"],
    [47073,"HCEP03730542","2025-01-30 16:00:00","10.3253","3.32394","27.334","3.452","7.51","0.271","3.647","0.02","0.15","29.804","4.70476","37.26","0","SATNPRO1509","29.724","0.41632","5"],
    [47074,"HCEP03730542","2025-01-30 16:15:00","10.328","3.32425","27.409","3.445","7.51","0.258","4.043","0.02","0.21","29.8048","4.70484","37.2","0","SATNPRO1509","29.65","0.41528","5"],
    [47075,"HCEP03730542","2025-01-30 16:30:00","10.3336","3.32468","27.454","3.414","7.51","0.277","4.241","0.02","0.21","29.8044","4.70469","36.86","0","SATNPRO1509","29.564","0.4141","5"],
    [47076,"HCEP03730542","2025-01-30 16:45:00","10.3364","3.32497","27.471","3.38","7.51","0.259","4.416","0.03","0.21","29.805","4.70473","36.5","0","SATNPRO1509","29.722","0.4163","5"],
    [47077,"HCEP03730542","2025-01-30 17:00:00","10.3389","3.3252","27.466","3.346","7.51","2.307","213.67","3.32","176.61","29.8053","4.70473","36.14","0","SATNPRO1509","29.682","0.41574","5"],
    [47078,"HCEP03730542","2025-01-30 17:15:00","10.345","3.32582","27.526","3.308","7.5","0.254","4.389","0.01","0.28","29.8064","4.70479","35.72","0","SATNPRO1509","29.662","0.41546","5"],
    [47079,"HCEP03730542","2025-01-30 17:30:00","10.3484","3.32622","27.387","3.259","7.5","0.308","5.497","0.03","0.77","29.8077","4.70491","35.2","0","SATNPRO1509","29.684","0.41578","5"],
    [47080,"HCEP03730542","2025-01-30 17:45:00","10.3498","3.32636","27.361","3.217","7.5","0.266","4.615","0.02","0.24","29.8079","4.70492","34.75","0","SATNPRO1509","29.678","0.4157","5"],
    [47081,"HCEP03730542","2025-01-30 18:00:00","10.3511","3.32648","27.361","3.202","7.5","0.279","4.774","0.01","0.3","29.8081","4.70492","34.59","0","SATNPRO1509","29.758","0.4168","5"],
    [47082,"HCEP03730542","2025-01-30 18:15:00","10.3487","3.32629","27.185","3.187","7.5","0.264","4.799","0.02","0.33","29.8082","4.70497","34.42","0","SATNPRO1509","29.708000000000002","0.41612","5"],
    [47083,"HCEP03730542","2025-01-30 18:30:00","10.3467","3.32607","27.04","3.201","7.5","0.273","4.526","0.01","0.19","29.8077","4.70492","34.57","0","SATNPRO1509","29.8","0.41742","5"],
    [47084,"HCEP03730542","2025-01-30 18:45:00","10.3453","3.32595","26.919","3.224","7.5","0.253","4.44","0.01","1.6","29.8077","4.70494","34.82","0","SATNPRO1509","29.942","0.41938","5"],
    [47085,"HCEP03730542","2025-01-30 19:00:00","10.3408","3.3255","26.721","3.249","7.5","0.489","22.866","0.26","19.02","29.807","4.7049","35.09","0","SATNPRO1509","29.822","0.4177","5"],
    [47086,"HCEP03730542","2025-01-30 19:15:00","10.3383","3.32523","26.591","3.268","7.5","1.956","500.011","0.84","162.67","29.8065","4.70486","35.29","0","SATNPRO1509","30.018","0.42042","5"],
    [47087,"HCEP03730542","2025-01-30 19:30:00","10.3375","3.32533","26.395","3.288","7.5","0.76","51.315","0.18","24.97","29.8081","4.70509","35.5","0","SATNPRO1509","30.044","0.4208","5"],
    [47088,"HCEP03730542","2025-01-30 19:45:00","10.3387","3.32528","26.249","3.303","7.5","1.617","36.396","2.72","24.85","29.8067","4.70486","35.66","0","SATNPRO1509","30","0.4202","5"],
    [47089,"HCEP03730542","2025-01-30 20:00:00","10.336","3.32505","25.997","3.308","7.5","1.445","404.193","0.81","154.85","29.8067","4.7049","35.72","0","SATNPRO1509","29.962","0.41966","5"],
    [47090,"HCEP03730542","2025-01-30 20:15:00","10.3312","3.32461","25.792","3.308","7.5","1.975","761.657","1.05","312.36","29.8065","4.70493","35.72","0","SATNPRO1509","30.054000000000002","0.42094","5"],
    [47091,"HCEP03730542","2025-01-30 20:30:00","10.3401","3.32527","25.506","3.308","7.5","2.728","213.23","1.33","93.29","29.8058","4.70467","35.73","0","SATNPRO1509","30.066","0.42116","5"],
    [47092,"HCEP03730542","2025-01-30 20:45:00","10.3348","3.32513","25.357","3.311","7.5","0.253","3.725","0.01","0.16","29.8088","4.70517","35.75","0","SATNPRO1509","30.03","0.42064","5"],
    [47093,"HCEP03730542","2025-01-30 21:00:00","10.3356","3.32501","25.084","3.303","7.5","0.268","3.732","0.01","0.16","29.807","4.7049","35.67","0","SATNPRO1509","30.024","0.42054","5"],
    [47094,"HCEP03730542","2025-01-30 21:15:00","10.3321","3.32458","24.838","3.294","7.5","0.256","3.726","0.01","0.14","29.8058","4.70476","35.56","0","SATNPRO1509","30.1","0.4216","5"],
    [47095,"HCEP03730542","2025-01-30 21:30:00","10.3264","3.32395","24.585","3.302","7.5","0.28","3.96","0.03","0.8","29.8043","4.70463","35.65","0","SATNPRO1509","29.884","0.41856","5"],
    [47096,"HCEP03730542","2025-01-30 21:45:00","10.3161","3.32273","24.361","3.322","7.5","0.264","4.259","0.01","0.26","29.8007","4.70427","35.86","0","SATNPRO1509","29.946","0.41942","5"],
    [47097,"HCEP03730542","2025-01-30 22:00:00","10.2547","3.31659","24.148","3.384","7.51","0.291","4.504","0.02","0.26","29.7901","4.70376","36.47","0","SATNPRO1509","29.424","0.41212","5"],
    [47098,"HCEP03730542","2025-01-30 22:15:00","10.2224","3.31334","23.919","3.527","7.52","0.281","4.52","0.01","0.15","29.784300000000002","4.70346","37.98","0","SATNPRO1509","29.258","0.40978","5"],
    [47099,"HCEP03730542","2025-01-30 22:30:00","10.2233","3.31354","23.777","3.639","7.53","0.292","4.212","0.02","0.17","29.7856","4.70362","39.19","0","SATNPRO1509","29.354","0.41118","5"],
    [47100,"HCEP03730542","2025-01-30 22:45:00","10.2192","3.31303","23.665","3.674","7.53","0.27","4.507","0.01","0.14","29.7839","4.70344","39.57","0","SATNPRO1509","29.178","0.40872","5"],
    [47101,"HCEP03730542","2025-01-30 23:00:00","10.2261","3.31381","23.606","3.675","7.53","0.298","4.211","0.02","0.42","29.7861","4.70363","39.59","0","SATNPRO1509","29.304","0.41044","5"],
    [47102,"HCEP03730542","2025-01-30 23:15:00","10.2349","3.31465","23.584","3.656","7.53","0.272","4.307","0.01","0.18","29.7873","4.70365","39.38","0","SATNPRO1509","29.28","0.41012","5"],
    [47103,"HCEP03730542","2025-01-30 23:30:00","10.2605","3.31728","23.524","3.613","7.52","0.281","4.409","0.01","0.11","29.7924","4.70396","38.94","0","SATNPRO1509","29.306","0.41052","5"],
    [47104,"HCEP03730542","2025-01-30 23:45:00","10.2971","3.32093","23.577","3.502","7.51","1.332","105.387","0.45","33.97","29.7987","4.70425","37.78","0","SATNPRO1509","29.514","0.41338","5"],
    [47105,"HCEP03730542","2025-01-31 00:00:00","10.3215","3.32343","23.638","3.371","7.51","10.666","399.121","1.9","115.74","29.8035","4.70454","36.38","0","SATNPRO1509","29.64","0.41518","5"],
    [47106,"HCEP03730542","2025-01-31 00:15:00","10.3285","3.32413","23.719","3.294","7.5","1.046","68.932","0.62","16.39","29.8047","4.7046","35.56","0","SATNPRO1509","29.73","0.41644","5"],
    [47107,"HCEP03730542","2025-01-31 00:30:00","10.3304","3.32424","23.796","3.273","7.5","3.655","474.805","2.63","163.9","29.8043","4.70451","35.33","0","SATNPRO1509","29.916","0.41904","5"],
    [47108,"HCEP03730542","2025-01-31 00:45:00","10.3364","3.32495","23.934","3.267","7.5","0.649","41.819","0.17","21.32","29.8063","4.70471","35.28","0","SATNPRO1509","29.782","0.41714","5"],
    [47109,"HCEP03730542","2025-01-31 01:00:00","10.339","3.32531","24.202","3.223","7.5","0.383","11.817","0.04","7.92","29.8076","4.70488","34.81","0","SATNPRO1509","29.642","0.41522","5"],
    [47110,"HCEP03730542","2025-01-31 01:15:00","10.3339","3.32471","24.277","3.206","7.5","0.624","42.74","0.12","27.93","29.8058","4.70471","34.62","0","SATNPRO1509","29.884","0.41856","5"],
    [47111,"HCEP03730542","2025-01-31 01:30:00","10.3234","3.32379","24.462","3.246","7.5","0.767","374.951","0.1","72.64","29.8052","4.7048","35.04","0","SATNPRO1509","29.35","0.41112","5"],
    [47112,"HCEP03730542","2025-01-31 01:45:00","10.3143","3.32286","24.712","3.2","7.5","0.786","125.06","0.12","36.21","29.8033","4.70469","34.54","0","SATNPRO1509","29.362000000000002","0.41122","5"],
    [47113,"HCEP03730542","2025-01-31 02:00:00","10.304","3.32182","24.891","3.233","7.5","0.481","26.796","0.09","6.48","29.8013","4.70459","34.88","0","SATNPRO1509","29.328","0.41082","5"],
    [47114,"HCEP03730542","2025-01-31 02:15:00","10.2933","3.32056","25.125","3.284","7.5","0.385","47.805","0.16","11.17","29.7975","4.70423","35.42","0","SATNPRO1509","29.444","0.41244","5"],
    [47115,"HCEP03730542","2025-01-31 02:30:00","10.2896","3.3203","25.361","3.341","7.5","0.342","15.05","0.1","19.67","29.7979","4.70437","36.04","0","SATNPRO1509","29.286","0.4102","5"],
    [47116,"HCEP03730542","2025-01-31 02:45:00","10.2921","3.32056","25.536","3.348","7.5","10.411","193.88","2.27","120.2","29.7984","4.70441","36.11","0","SATNPRO1509","29.382","0.41154","5"],
    [47117,"HCEP03730542","2025-01-31 03:00:00","10.3096","3.32242","25.783","3.331","7.5","0.281","4.457","0.02","0.53","29.8024","4.7047","35.95","0","SATNPRO1509","29.464000000000002","0.4127","5"],
    [47118,"HCEP03730542","2025-01-31 03:15:00","10.3211","3.32363","26.022","3.278","7.5","0.258","4.301","0.02","0.11","29.8049","4.70488","35.39","0","SATNPRO1509","29.436","0.4123","5"],
    [47119,"HCEP03730542","2025-01-31 03:30:00","10.3296","3.32446","26.265","3.224","7.5","0.273","4.397","0.03","0.18","29.806","4.70491","34.81","0","SATNPRO1509","29.496","0.41316","5"],
    [47120,"HCEP03730542","2025-01-31 03:45:00","10.3293","3.32435","26.432","3.179","7.49","0.26","4.508","0.01","0.2","29.8051","4.70481","34.32","0","SATNPRO1509","29.528","0.41356","5"],
    [47121,"HCEP03730542","2025-01-31 04:00:00","10.3035","3.32188","26.68","3.194","7.5","0.286","4.838","0.02","0.17","29.8017","4.70476","34.46","0","SATNPRO1509","29.258","0.40982","5"],
    [47122,"HCEP03730542","2025-01-31 04:15:00","10.2827","3.31952","26.883","3.302","7.5","0.288","5.039","0.04","1.5","29.7951","4.70417","35.61","0","SATNPRO1509","29.434","0.41228","5"],
    [47123,"HCEP03730542","2025-01-31 04:30:00","10.287","3.3199","27.065","3.387","7.51","0.28","4.235","0.02","0.7","29.7953","4.70414","36.53","0","SATNPRO1509","29.498","0.41318","5"],
    [47124,"HCEP03730542","2025-01-31 04:45:00","10.2922","3.32044","27.279","3.414","7.51","0.283","4.094","0.03","0.19","29.7963","4.70421","36.82","0","SATNPRO1509","29.733999999999998","0.4165","5"],
    [47125,"HCEP03730542","2025-01-31 05:00:00","10.2854","3.31961","27.43","3.439","7.51","0.702","8.487","1.07","9.79","29.7936","4.70394","37.09","0","SATNPRO1509","29.624","0.41494","5"],
    [47126,"HCEP03730542","2025-01-31 05:15:00","10.2601","3.31685","27.519","3.513","7.52","0.271","4.059","0.01","0.13","29.7869","4.7034","37.87","0","SATNPRO1509","29.652","0.4153","5"],
    [47127,"HCEP03730542","2025-01-31 05:30:00","10.2379","3.31432","27.64","3.645","7.53","0.306","4.769","0.03","0.43","29.7798","4.70277","39.27","0","SATNPRO1509","29.508","0.4133","5"],
    [47128,"HCEP03730542","2025-01-31 05:45:00","10.2057","3.31109","27.71","3.752","7.53","0.329","5.438","0.05","0.79","29.7741","4.7025","40.39","0","SATNPRO1509","29.276","0.41006","5"],
    [47129,"HCEP03730542","2025-01-31 06:00:00","10.2108","3.3115","27.796","3.891","7.54","0.485","5.398","0.2","0.62","29.7739","4.70238","41.89","0","SATNPRO1509","29.506","0.41328","5"],
    [47130,"HCEP03730542","2025-01-31 06:15:00","10.2767","3.31814","27.764","3.773","7.53","0.291","5.098","0.02","1.3","29.786","4.70302","40.68","0","SATNPRO1509","29.89","0.41868","5"],
    [47131,"HCEP03730542","2025-01-31 06:30:00","10.2766","3.31762","27.773","3.769","7.54","0.314","4.708","0.02","0.17","29.7809","4.70229","40.64","0","SATNPRO1509","29.836","0.4179","5"],
    [47132,"HCEP03730542","2025-01-31 06:45:00","10.2899","3.31876","27.847","3.789","7.54","0.311","4.531","0.04","0.21","29.7813","4.70214","40.87","0","SATNPRO1509","30.07","0.4212","5"],
    [47133,"HCEP03730542","2025-01-31 07:00:00","10.2758","3.31735","27.888","3.805","7.54","0.316","4.462","0.02","0.88","29.7788","4.70202","41.03","0","SATNPRO1509","30.116","0.42182","5"],
    [47134,"HCEP03730542","2025-01-31 07:15:00","10.2633","3.31571","27.822","3.847","7.54","0.299","4.134","0.02","0.17","29.7728","4.70137","41.47","0","SATNPRO1509","30.102","0.4216","5"],
    [47135,"HCEP03730542","2025-01-31 07:30:00","10.2541","3.31481","27.805","3.908","7.54","0.322","4.244","0.02","0.1","29.7714","4.70131","42.11","0","SATNPRO1509","30.118","0.42184","5"],
    [47136,"HCEP03730542","2025-01-31 07:45:00","10.2524","3.31464","27.766","3.936","7.55","0.315","4.417","0.02","0.13","29.7712","4.70131","42.42","0","SATNPRO1509","30.108","0.42176","5"],
    [47137,"HCEP03730542","2025-01-31 08:00:00","10.2515","3.31441","27.779","3.95","7.55","0.336","4.321","0.02","0.14","29.7696","4.7011","42.56","0","SATNPRO1509","30.174","0.42266","5"],
    [47138,"HCEP03730542","2025-01-31 08:15:00","10.2477","3.31376","27.764","3.969","7.55","0.32","4.366","0.01","0.13","29.7662","4.70067","42.76","0","SATNPRO1509","30.164","0.4225","5"],
    [47139,"HCEP03730542","2025-01-31 08:30:00","10.2455","3.31325","27.639","3.997","7.55","0.525","7.734","0.61","8.04","29.763","4.70025","43.06","0","SATNPRO1509","30.132","0.42206","5"],
    [47140,"HCEP03730542","2025-01-31 08:45:00","10.2427","3.31281","27.595","4.013","7.55","0.349","4.454","0.02","0.17","29.761","4.7","43.23","0","SATNPRO1509","30.224","0.42334","5"],
    [47141,"HCEP03730542","2025-01-31 09:00:00","10.2449","3.31275","27.533","4.019","7.55","0.372","4.641","0.02","0.28","29.7585","4.69962","43.3","0","SATNPRO1509","30.19","0.42288","5"],
    [47142,"HCEP03730542","2025-01-31 09:15:00","10.2552","3.31407","27.375","4.011","7.55","0.359","4.796","0.02","0.27","29.7633","4.70012","43.22","0","SATNPRO1509","30.098","0.42162","5"],
    [47143,"HCEP03730542","2025-01-31 09:30:00","10.2648","3.31527","27.258","3.962","7.55","0.358","4.714","0.02","0.19","29.7674","4.70053","42.7","0","SATNPRO1509","30.128","0.42202","5"],
    [47144,"HCEP03730542","2025-01-31 09:45:00","10.2706","3.31573","27.192","3.899","7.54","0.346","4.789","0.03","0.21","29.7673","4.70041","42.03","0","SATNPRO1509","29.826","0.41774","5"],
    [47145,"HCEP03730542","2025-01-31 10:00:00","10.2749","3.31601","26.966","3.852","7.54","0.365","4.792","0.02","0.18","29.7666","4.70024","41.53","0","SATNPRO1509","29.814","0.41758","5"],
    [47146,"HCEP03730542","2025-01-31 10:15:00","10.2772","3.31616","26.841","3.816","7.54","0.348","4.923","0.02","0.29","29.7663","4.70015","41.15","0","SATNPRO1509","29.752","0.4167","5"],
    [47147,"HCEP03730542","2025-01-31 10:30:00","10.2769","3.31607","26.698","3.804","7.54","0.374","4.743","0.06","0.25","29.7656","4.70005","41.01","0","SATNPRO1509","29.88","0.4185","5"],
    [47148,"HCEP03730542","2025-01-31 10:45:00","10.2756","3.31592","26.619","3.82","7.54","0.357","4.81","0.04","0.18","29.7653","4.70002","41.18","0","SATNPRO1509","29.900000000000002","0.4188","5"],
    [47149,"HCEP03730542","2025-01-31 11:00:00","10.2754","3.31587","26.442","3.832","7.54","0.367","4.863","0.02","0.11","29.765","4.69998","41.31","0","SATNPRO1509","29.99","0.42004","5"],
    [47150,"HCEP03730542","2025-01-31 11:15:00","10.2739","3.31571","26.287","3.836","7.54","0.364","4.916","0.03","0.54","29.7647","4.69995","41.35","0","SATNPRO1509","30.12","0.4219","5"],
    [47151,"HCEP03730542","2025-01-31 11:30:00","10.2748","3.31572","26.167","3.841","7.54","0.371","4.545","0.03","0.21","29.7641","4.69984","41.41","0","SATNPRO1509","30.132","0.42204","5"],
    [47152,"HCEP03730542","2025-01-31 11:45:00","10.2789","3.31622","26.01","3.834","7.54","0.349","4.529","0.02","0.19","29.7658","4.7","41.34","0","SATNPRO1509","29.966","0.41976","5"],
    [47153,"HCEP03730542","2025-01-31 12:00:00","10.301","3.31858","25.979","3.763","7.53","0.353","4.523","0.02","0.23","29.7712","4.70041","40.6","0","SATNPRO1509","29.316","0.41066","5"],
    [47154,"HCEP03730542","2025-01-31 12:15:00","10.3026","3.31868","25.93","3.604","7.52","0.334","4.705","0.02","0.22","29.7709","4.70033","38.88","0","SATNPRO1509","29.158","0.4084","5"],
    [47155,"HCEP03730542","2025-01-31 12:30:00","10.3038","3.31893","25.921","3.53","7.52","0.406","5.551","0.26","4.98","29.7723","4.70052","38.08","0","SATNPRO1509","29.074","0.40724","5"],
    [47156,"HCEP03730542","2025-01-31 12:45:00","10.3012","3.31881","25.92","3.506","7.52","0.351","4.548","0.05","0.22","29.7733","4.70071","37.82","0","SATNPRO1509","29.172","0.40862","5"],
    [47157,"HCEP03730542","2025-01-31 13:00:00","10.2953","3.31826","26.017","3.523","7.52","0.349","4.492","0.03","0.17","29.7726","4.70071","37.99","0","SATNPRO1509","29.451999999999998","0.41254","5"],
    [47158,"HCEP03730542","2025-01-31 13:15:00","10.2923","3.31791","26.12","3.579","7.52","0.335","4.457","0.02","0.43","29.7716","4.70062","38.6","0","SATNPRO1509","29.566","0.4141","5"],
    [47159,"HCEP03730542","2025-01-31 13:30:00","10.2914","3.31739","26.155","3.628","7.53","0.365","3.921","0.03","0.18","29.7671","4.69999","39.12","0","SATNPRO1509","29.654","0.41532","5"],
    [47160,"HCEP03730542","2025-01-31 13:45:00","10.2804","3.31653","26.158","3.702","7.53","0.347","4.542","0.03","0.22","29.7676","4.70025","39.91","0","SATNPRO1509","29.486","0.413","5"],
    [47161,"HCEP03730542","2025-01-31 14:00:00","10.2884","3.3166","26.302","3.667","7.52","0.377","4.131","0.07","0.19","29.7617","4.69928","39.54","0","SATNPRO1509","29.445999999999998","0.41242","5"],
    [47162,"HCEP03730542","2025-01-31 14:15:00","10.254","3.31199","26.365","3.666","7.53","0.398","3.988","0.02","0.16","29.744","4.69732","39.5","0","SATNPRO1509","29.372","0.4114","5"],
    [47163,"HCEP03730542","2025-01-31 14:30:00","10.2223","3.3084","26.419","3.932","7.55","0.466","4.307","0.04","0.21","29.7342","4.69646","42.33","0","SATNPRO1509","29.766","0.41692","5"],
    [47164,"HCEP03730542","2025-01-31 14:45:00","10.1816","3.30256","26.44","4.114","7.56","0.48","4.764","0.03","0.19","29.7093","4.69359","44.25","0","SATNPRO1509","29.698","0.41596","5"],
    [47165,"HCEP03730542","2025-01-31 15:00:00","10.1844","3.30306","26.555","4.204","7.56","0.514","5.396","0.03","0.2","29.7121","4.69394","45.22","0","SATNPRO1509","29.55","0.4139","5"],
    [47166,"HCEP03730542","2025-01-31 15:15:00","10.1143","3.29421","26.617","4.285","7.59","0.562","4.771","0.03","0.16","29.6811","4.69069","46.01","0","SATNPRO1509","29.727999999999998","0.41638","5"],
    [47167,"HCEP03730542","2025-01-31 15:30:00","10.11","3.29465","26.734","4.614","7.6","0.558","4.529","0.03","0.19","29.689","4.6919","49.54","0","SATNPRO1509","29.814","0.41758","5"],
    [47168,"HCEP03730542","2025-01-31 15:45:00","10.1052","3.29378","26.847","4.704","7.6","0.569","4.974","0.03","0.39","29.6842","4.6913","50.5","0","SATNPRO1509","29.701999999999998","0.41604","5"],
    [47169,"HCEP03730542","2025-01-31 16:00:00","10.1036","3.29339","26.972","4.782","7.61","0.593","4.948","0.04","0.13","29.6816","4.69095","51.33","0","SATNPRO1509","29.906","0.41888","5"],
    [47170,"HCEP03730542","2025-01-31 16:15:00","10.1058","3.29375","27.086","4.843","7.61","0.56","4.736","0.04","0.21","29.6833","4.69117","51.99","0","SATNPRO1509","29.962","0.4197","5"],
    [47171,"HCEP03730542","2025-01-31 16:30:00","10.1044","3.29386","27.19","4.912","7.62","0.592","4.756","0.08","0.23","29.6855","4.69152","52.73","0","SATNPRO1509","29.983999999999998","0.41998","5"],
    [47172,"HCEP03730542","2025-01-31 16:45:00","10.0977","3.2929","27.263","4.973","7.62","0.591","5.088","0.06","0.2","29.6813","4.69104","53.37","0","SATNPRO1509","30.026","0.42056","5"],
    [47173,"HCEP03730542","2025-01-31 17:00:00","10.1021","3.29305","27.351","5.003","7.63","0.582","4.16","0.03","0.19","29.6792","4.69067","53.71","0","SATNPRO1509","30.126","0.42196","5"],
    [47174,"HCEP03730542","2025-01-31 17:15:00","10.0938","3.29205","27.415","5.036","7.63","0.655","4.647","0.1","0.28","29.6761","4.69036","54.05","0","SATNPRO1509","30.072","0.42124","5"],
    [47175,"HCEP03730542","2025-01-31 17:30:00","10.0844","3.29026","27.462","5.051","7.63","0.686","4.63","0.06","0.23","29.6658","4.68906","54.2","0","SATNPRO1509","30.008","0.42034","5"],
    [47176,"HCEP03730542","2025-01-31 17:45:00","10.0916","3.29009","27.463","5.08","7.63","0.736","4.491","0.16","0.26","29.6583","4.68787","54.51","0","SATNPRO1509","30.156","0.42236","5"],
    [47177,"HCEP03730542","2025-01-31 18:00:00","10.0973","3.28935","27.436","5.116","7.63","0.795","4.091","0.08","0.2","29.6462","4.68604","54.89","0","SATNPRO1509","30.163999999999998","0.42248","5"],
    [47178,"HCEP03730542","2025-01-31 18:15:00","10.1035","3.28889","27.454","5.126","7.63","0.812","5.753","0.08","0.44","29.6365","4.68456","55","0","SATNPRO1509","30.146","0.42222","5"],
    [47179,"HCEP03730542","2025-01-31 18:30:00","10.0982","3.28839","27.397","5.121","7.63","0.79","4.501","0.09","0.67","29.6359","4.68456","54.95","0","SATNPRO1509","30.072","0.42118","5"],
    [47180,"HCEP03730542","2025-01-31 18:45:00","10.0921","3.28972","27.392","5.116","7.63","0.653","4.351","0.04","0.19","29.6542","4.68727","54.9","0","SATNPRO1509","30.09","0.42148","5"],
    [47181,"HCEP03730542","2025-01-31 19:00:00","10.0929","3.28948","27.265","5.11","7.63","0.643","3.839","0.03","0.08","29.6512","4.68682","54.83","0","SATNPRO1509","30.262","0.42392","5"],
    [47182,"HCEP03730542","2025-01-31 19:15:00","10.1006","3.29334","27.207","5.079","7.63","0.515","4.013","0.03","0.13","29.6835","4.69129","54.52","0","SATNPRO1509","30.144000000000002","0.42222","5"],
    [47183,"HCEP03730542","2025-01-31 19:30:00","10.1025","3.29398","27.099","5.025","7.63","0.489","3.63","0.03","0.2","29.6883","4.69194","53.94","0","SATNPRO1509","30.102","0.4216","5"],
    [47184,"HCEP03730542","2025-01-31 19:45:00","10.1033","3.29411","26.974","5.018","7.63","0.471","3.416","0.03","0.08","29.689","4.69203","53.86","0","SATNPRO1509","30.102","0.42164","5"],
    [47185,"HCEP03730542","2025-01-31 20:00:00","10.105","3.29385","26.819","5.032","7.63","0.481","3.255","0.03","0.09","29.6851","4.69143","54.02","0","SATNPRO1509","30.174","0.42262","5"],
    [47186,"HCEP03730542","2025-01-31 20:15:00","10.1108","3.29653","26.637","4.97","7.62","0.453","4.425","0.02","0.07","29.7071","4.69446","53.37","0","SATNPRO1509","29.836","0.41792","5"],
    [47187,"HCEP03730542","2025-01-31 20:30:00","10.1124","3.29729","26.408","4.772","7.61","0.44","4.44","0.02","0.12","29.7136","4.69534","51.24","0","SATNPRO1509","29.708000000000002","0.41608","5"],
    [47188,"HCEP03730542","2025-01-31 20:45:00","10.111","3.29707","26.229","4.734","7.61","0.432","4.247","0.03","0.49","29.7125","4.69521","50.84","0","SATNPRO1509","30.002","0.42024","5"],
    [47189,"HCEP03730542","2025-01-31 21:00:00","10.1111","3.29691","26.026","4.745","7.61","0.438","4.019","0.02","0.15","29.7109","4.69496","50.96","0","SATNPRO1509","29.91","0.41892","5"],
    [47190,"HCEP03730542","2025-01-31 21:15:00","10.1122","3.29734","25.776","4.764","7.61","0.42","4.172","0.02","0.27","29.7144","4.69543","51.16","0","SATNPRO1509","29.826","0.41772","5"],
    [47191,"HCEP03730542","2025-01-31 21:30:00","10.1131","3.29764","25.588","4.7","7.6","0.433","4.589","0.02","0.16","29.7168","4.69575","50.48","0","SATNPRO1509","29.854","0.41814","5"],
    [47192,"HCEP03730542","2025-01-31 21:45:00","10.1184","3.29868","25.465","4.646","7.6","0.403","4.63","0.02","0.64","29.7228","4.6965","49.9","0","SATNPRO1509","29.73","0.4164","5"],
    [47193,"HCEP03730542","2025-01-31 22:00:00","10.118","3.29884","25.187","4.572","7.59","0.408","4.471","0.03","0.11","29.7249","4.6968","49.11","0","SATNPRO1509","29.678","0.41568","5"],
    [47194,"HCEP03730542","2025-01-31 22:15:00","10.1207","3.29942","24.964","4.538","7.59","0.398","5.235","0.02","0.51","29.7286","4.69727","48.74","0","SATNPRO1509","29.646","0.41522","5"],
    [47195,"HCEP03730542","2025-01-31 22:30:00","10.1302","3.30086","24.71","4.477","7.58","0.391","5.027","0.02","0.4","29.7353","4.69804","48.1","0","SATNPRO1509","29.568","0.41412","5"],
    [47196,"HCEP03730542","2025-01-31 22:45:00","10.142","3.30265","24.591","4.359","7.57","0.35","4.84","0.01","0.2","29.7434","4.699","46.85","0","SATNPRO1509","29.654","0.41536","5"],
    [47197,"HCEP03730542","2025-01-31 23:00:00","10.1468","3.30334","24.411","4.244","7.57","0.357","4.77","0.01","0.16","29.7464","4.69934","45.62","0","SATNPRO1509","29.636","0.41514","5"],
    [47198,"HCEP03730542","2025-01-31 23:15:00","10.1524","3.30409","24.243","4.19","7.56","0.349","4.946","0.03","0.62","29.7495","4.69967","45.04","0","SATNPRO1509","29.624","0.4149","5"],
    [47199,"HCEP03730542","2025-01-31 23:30:00","10.1507","3.30391","24.082","4.156","7.56","0.406","4.704","0.22","0.37","29.7491","4.69963","44.68","0","SATNPRO1509","29.534","0.41366","5"],
    [47200,"HCEP03730542","2025-01-31 23:45:00","10.1417","3.30291","24.03","4.173","7.57","0.344","4.7","0.02","0.13","29.7465","4.69942","44.86","0","SATNPRO1509","29.704","0.41606","5"],
    [47201,"HCEP03730542","2025-02-01 00:00:00","10.1359","3.30219","24.093","4.226","7.57","0.377","4.84","0.03","0.3","29.7441","4.69917","45.41","0","SATNPRO1509","29.658","0.41542","5"],
    [47202,"HCEP03730542","2025-02-01 00:15:00","10.1354","3.30225","24.034","4.279","7.57","0.356","5.005","0.02","0.16","29.7451","4.69932","45.99","0","SATNPRO1509","29.552","0.41392","5"],
    [47203,"HCEP03730542","2025-02-01 00:30:00","10.1346","3.30217","24.049","4.29","7.57","0.398","4.58","0.03","0.29","29.745","4.69932","46.1","0","SATNPRO1509","29.72","0.41634","5"],
    [47204,"HCEP03730542","2025-02-01 00:45:00","10.1262","3.30108","24.017","4.317","7.58","0.43","5.062","0.07","0.59","29.741","4.69889","46.38","0","SATNPRO1509","29.748","0.41666","5"],
    [47205,"HCEP03730542","2025-02-01 01:00:00","10.1192","3.3001","24.136","4.411","7.58","0.475","5.742","0.04","0.87","29.7369","4.69842","47.39","0","SATNPRO1509","29.87","0.41836","5"],
    [47206,"HCEP03730542","2025-02-01 01:15:00","10.1173","3.29968","24.227","4.45","7.58","0.44","5.299","0.05","0.54","29.7342","4.69808","47.79","0","SATNPRO1509","29.822","0.41772","5"],
    [47207,"HCEP03730542","2025-02-01 01:30:00","10.1162","3.29928","24.312","4.496","7.59","0.448","4.97","0.06","0.35","29.7311","4.69767","48.3","0","SATNPRO1509","29.846","0.41804","5"],
    [47208,"HCEP03730542","2025-02-01 01:45:00","10.1319","3.30111","24.484","4.526","7.59","0.4","4.936","0.03","0.45","29.7364","4.69816","48.63","0","SATNPRO1509","30.06","0.42102","5"],
    [47209,"HCEP03730542","2025-02-01 02:00:00","10.141","3.30254","24.587","4.443","7.58","0.415","6.1","0.03","1.25","29.7432","4.69898","47.75","0","SATNPRO1509","30.004","0.42024","5"],
    [47210,"HCEP03730542","2025-02-01 02:15:00","10.1554","3.30454","24.797","4.317","7.57","0.39","5.328","0.04","0.78","29.7513","4.69991","46.42","0","SATNPRO1509","30.012","0.42036","5"],
    [47211,"HCEP03730542","2025-02-01 02:30:00","10.1493","3.30369","24.892","4.286","7.57","0.39","4.924","0.03","0.4","29.7477","4.69951","46.07","0","SATNPRO1509","30.05","0.42092","5"],
    [47212,"HCEP03730542","2025-02-01 02:45:00","10.1473","3.30305","25.223","4.36","7.58","0.423","5.046","0.06","0.98","29.7429","4.69887","46.86","0","SATNPRO1509","30.284","0.42418","5"],
    [47213,"HCEP03730542","2025-02-01 03:00:00","10.0979","3.29647","25.543","4.465","7.6","0.517","5.471","0.03","1.2","29.7176","4.69611","47.93","0","SATNPRO1509","30.206","0.42312","5"],
    [47214,"HCEP03730542","2025-02-01 03:15:00","10.1019","3.29569","25.824","4.744","7.61","0.518","4.53","0.03","0.35","29.7064","4.69446","50.93","0","SATNPRO1509","30.352","0.42512","5"],
    [47215,"HCEP03730542","2025-02-01 03:30:00","10.1171","3.29475","26.072","4.864","7.62","0.627","4.149","0.06","0.61","29.6844","4.69108","52.23","0","SATNPRO1509","30.578","0.42826","5"],
    [47216,"HCEP03730542","2025-02-01 03:45:00","10.1103","3.28624","26.188","4.992","7.63","0.888","4.28","0.04","0.31","29.6051","4.67988","53.57","0","SATNPRO1509","30.492","0.42712","5"],
    [47217,"HCEP03730542","2025-02-01 04:00:00","10.0807","3.27864","26.14","5.136","7.64","1.15","4.241","0.09","0.41","29.5534","4.67299","55.06","0","SATNPRO1509","30.302","0.42438","5"],
    [47218,"HCEP03730542","2025-02-01 04:15:00","10.0305","3.26813","26.403","5.295","7.65","1.37","3.887","0.1","0.18","29.4893","4.66469","56.68","0","SATNPRO1509","30.108","0.42172","5"],
    [47219,"HCEP03730542","2025-02-01 04:30:00","9.9874","3.26045","26.66","5.528","7.67","1.628","3.596","0.12","0.17","29.4475","4.65946","59.11","0","SATNPRO1509","29.826","0.41776","5"],
    [47220,"HCEP03730542","2025-02-01 04:45:00","9.9335","3.24635","26.973","5.687","7.68","1.622","3.632","0.16","0.17","29.3502","4.64647","60.69","0","SATNPRO1509","29.634","0.41508","5"],
    [47221,"HCEP03730542","2025-02-01 05:00:00","10.023","3.27006","27.219","5.715","7.67","1.423","4.203","0.12","0.19","29.5143","4.66844","61.17","0","SATNPRO1509","29.992","0.4201","5"],
    [47222,"HCEP03730542","2025-02-01 05:15:00","10.1021","3.29318","27.364","5.421","7.64","0.644","5.265","0.07","0.15","29.6806","4.69086","58.19","0","SATNPRO1509","30.448","0.42644","5"],
    [47223,"HCEP03730542","2025-02-01 05:30:00","10.121","3.30019","27.519","4.852","7.6","0.452","5.801","0.02","0.13","29.7349","4.6983","52.12","0","SATNPRO1509","30.006","0.42024","5"],
    [47224,"HCEP03730542","2025-02-01 05:45:00","10.1338","3.30152","27.558","4.5","7.59","0.417","5.77","0.02","0.16","29.7377","4.6985","48.35","0","SATNPRO1509","30.058","0.42102","5"],
    [47225,"HCEP03730542","2025-02-01 06:00:00","10.1363","3.30137","27.711","4.433","7.59","0.44","5.234","0.03","0.12","29.7342","4.69796","47.63","0","SATNPRO1509","30.228","0.42338","5"],
    [47226,"HCEP03730542","2025-02-01 06:15:00","10.1434","3.30047","27.819","4.499","7.59","0.473","4.466","0.05","0.2","29.7193","4.69572","48.35","0","SATNPRO1509","30.234","0.42352","5"],
    [47227,"HCEP03730542","2025-02-01 06:30:00","10.1689","3.30448","27.93","4.352","7.57","0.441","4.676","0.03","0.2","29.7383","4.69801","46.8","0","SATNPRO1509","30.244","0.42364","5"],
    [47228,"HCEP03730542","2025-02-01 06:45:00","10.1884","3.30719","27.954","4.167","7.56","0.395","4.751","0.03","0.17","29.7493","4.69927","44.84","0","SATNPRO1509","30.124","0.42194","5"],
    [47229,"HCEP03730542","2025-02-01 07:00:00","10.2044","3.30936","27.966","4.016","7.55","0.39","4.869","0.03","0.19","29.7578","4.7002","43.22","0","SATNPRO1509","30.082","0.42132","5"],
    [47230,"HCEP03730542","2025-02-01 07:15:00","10.2025","3.30907","28.016","3.968","7.55","0.385","4.929","0.04","0.22","29.7564","4.70005","42.71","0","SATNPRO1509","30.046","0.42088","5"],
    [47231,"HCEP03730542","2025-02-01 07:30:00","10.1974","3.30809","27.996","4.004","7.55","0.417","4.824","0.03","0.2","29.7509","4.69934","43.08","0","SATNPRO1509","30.212","0.4232","5"],
    [47232,"HCEP03730542","2025-02-01 07:45:00","10.2267","3.30962","27.972","3.958","7.54","0.444","4.698","0.06","0.17","29.7421","4.6976","42.62","0","SATNPRO1509","30.152","0.4223","5"],
    [47233,"HCEP03730542","2025-02-01 08:00:00","10.2329","3.30935","27.898","3.891","7.54","0.491","4.67","0.05","0.31","29.7344","4.69639","41.9","0","SATNPRO1509","30.024","0.4205","5"],
    [47234,"HCEP03730542","2025-02-01 08:15:00","10.2051","3.30555","27.845","4.002","7.55","2.38","59.271","2.34","22.93","29.7193","4.6947","43.07","0","SATNPRO1509","30.008","0.4203","5"],
    [47235,"HCEP03730542","2025-02-01 08:30:00","10.1973","3.30424","27.834","4.148","7.56","3.782","69.006","1.73","11.94","29.7126","4.69388","44.63","0","SATNPRO1509","30.036","0.4207","5"],
    [47236,"HCEP03730542","2025-02-01 08:45:00","10.2067","3.30476","27.731","4.146","7.56","0.549","5.821","0.05","0.45","29.7103","4.69338","44.61","0","SATNPRO1509","30.002","0.42024","5"],
    [47237,"HCEP03730542","2025-02-01 09:00:00","10.2162","3.30655","27.644","4.098","7.55","0.56","5.312","0.07","0.57","29.7202","4.69464","44.11","0","SATNPRO1509","29.884","0.4186","5"],
    [47238,"HCEP03730542","2025-02-01 09:15:00","10.214","3.30631","27.576","4.036","7.55","0.535","4.874","0.06","0.25","29.7197","4.69459","43.44","0","SATNPRO1509","29.95","0.41954","5"],
    [47239,"HCEP03730542","2025-02-01 09:30:00","10.2082","3.30493","27.415","4.045","7.55","0.548","5.008","0.04","0.41","29.7108","4.69341","43.53","0","SATNPRO1509","30.068","0.42114","5"],
    [47240,"HCEP03730542","2025-02-01 09:45:00","10.2031","3.30411","27.302","4.088","7.56","0.59","4.824","0.07","0.35","29.7068","4.69292","43.99","0","SATNPRO1509","30.116","0.42184","5"],
    [47241,"HCEP03730542","2025-02-01 10:00:00","10.1996","3.30347","27.142","4.122","7.56","0.599","5.046","0.08","0.41","29.7035","4.6925","44.34","0","SATNPRO1509","30.062","0.42114","5"],
    [47242,"HCEP03730542","2025-02-01 10:15:00","10.1967","3.30312","27.04","4.157","7.56","0.557","4.926","0.05","0.36","29.7023","4.69237","44.72","0","SATNPRO1509","30.054000000000002","0.42096","5"],
    [47243,"HCEP03730542","2025-02-01 10:30:00","10.1921","3.30272","26.837","4.186","7.56","0.576","4.865","0.05","0.37","29.7022","4.69242","45.03","0","SATNPRO1509","30.022","0.4205","5"],
    [47244,"HCEP03730542","2025-02-01 10:45:00","10.1892","3.30254","26.703","4.219","7.56","0.585","4.866","0.05","0.41","29.7028","4.69255","45.38","0","SATNPRO1509","30.014","0.42042","5"],
    [47245,"HCEP03730542","2025-02-01 11:00:00","10.2051","3.3043","26.591","4.222","7.56","0.543","4.985","0.05","0.3","29.7074","4.69292","45.43","0","SATNPRO1509","30.116","0.42186","5"],
    [47246,"HCEP03730542","2025-02-01 11:15:00","10.2162","3.30567","26.389","4.152","7.56","0.542","5.338","0.05","0.4","29.712","4.69339","44.69","0","SATNPRO1509","30.138","0.42212","5"],
    [47247,"HCEP03730542","2025-02-01 11:30:00","10.2244","3.30675","26.222","4.077","7.55","0.535","5.03","0.05","0.31","29.7161","4.69383","43.89","0","SATNPRO1509","30.126","0.42196","5"],
    [47248,"HCEP03730542","2025-02-01 11:45:00","10.2269","3.30705","26.05","4.019","7.55","0.519","5.292","0.08","0.3","29.7171","4.69393","43.27","0","SATNPRO1509","29.986","0.41998","5"],
    [47249,"HCEP03730542","2025-02-01 12:00:00","10.2283","3.30751","25.886","3.992","7.55","0.528","5.332","0.06","0.66","29.7207","4.6944","42.98","0","SATNPRO1509","29.92","0.41906","5"],
    [47250,"HCEP03730542","2025-02-01 12:15:00","10.2258","3.30715","25.775","3.97","7.55","0.499","4.377","0.06","0.17","29.7192","4.69422","42.74","0","SATNPRO1509","30.044","0.4208","5"],
    [47251,"HCEP03730542","2025-02-01 12:30:00","10.2263","3.30727","25.709","3.98","7.55","0.555","4.409","0.09","0.21","29.7199","4.69431","42.85","0","SATNPRO1509","29.945999999999998","0.41946","5"],
    [47252,"HCEP03730542","2025-02-01 12:45:00","10.2237","3.30658","25.684","3.967","7.55","0.528","4.232","0.06","0.28","29.7152","4.69369","42.7","0","SATNPRO1509","29.942","0.41936","5"],
    [47253,"HCEP03730542","2025-02-01 13:00:00","10.2197","3.30548","25.603","3.985","7.55","0.547","3.841","0.09","0.4","29.7075","4.69265","42.9","0","SATNPRO1509","30.004","0.42026","5"],
    [47254,"HCEP03730542","2025-02-01 13:15:00","10.2185","3.30522","25.637","4.024","7.55","0.538","3.687","0.08","0.18","29.7059","4.69244","43.31","0","SATNPRO1509","30.136","0.42212","5"],
    [47255,"HCEP03730542","2025-02-01 13:30:00","10.181","3.29893","25.66","4.095","7.56","0.683","3.402","0.11","0.28","29.674","4.68852","44.03","0","SATNPRO1509","30.238","0.42352","5"],
    [47256,"HCEP03730542","2025-02-01 13:45:00","10.1812","3.30009","25.666","4.272","7.57","0.586","3.662","0.06","0.63","29.6854","4.69013","45.94","0","SATNPRO1509","29.986","0.42002","5"],
    [47257,"HCEP03730542","2025-02-01 14:00:00","10.1853","3.30019","25.752","4.296","7.57","0.606","3.632","0.06","0.5","29.683","4.68972","46.2","0","SATNPRO1509","29.988","0.42004","5"],
    [47258,"HCEP03730542","2025-02-01 14:15:00","10.1842","3.30145","25.838","4.292","7.57","0.55","4.304","0.05","1","29.6964","4.69167","46.16","0","SATNPRO1509","30.114","0.42182","5"],
    [47259,"HCEP03730542","2025-02-01 14:30:00","10.1535","3.29655","25.91","4.301","7.58","0.706","3.648","0.06","0.36","29.6727","4.6888","46.22","0","SATNPRO1509","30.052","0.42092","5"],
    [47260,"HCEP03730542","2025-02-01 14:45:00","10.1167","3.29211","25.998","4.449","7.59","0.757","4.069","0.05","0.25","29.6584","4.68738","47.77","0","SATNPRO1509","30.008","0.42032","5"],
    [47261,"HCEP03730542","2025-02-01 15:00:00","10.0912","3.28893","26.099","4.617","7.6","0.894","4.475","0.1","0.26","29.6476","4.68627","49.54","0","SATNPRO1509","29.958","0.41964","5"],
    [47262,"HCEP03730542","2025-02-01 15:15:00","10.0722","3.28631","26.208","4.765","7.61","0.924","4.8","0.12","0.35","29.6369","4.68507","51.1","0","SATNPRO1509","29.892","0.41866","5"],
    [47263,"HCEP03730542","2025-02-01 15:30:00","10.0211","3.27959","26.318","4.95","7.63","0.981","4.017","0.12","0.27","29.6115","4.68231","53.01","0","SATNPRO1509","29.966","0.41974","5"],
    [47264,"HCEP03730542","2025-02-01 15:45:00","10.0194","3.27869","26.442","5.265","7.64","1.074","3.807","0.12","0.29","29.6039","4.68125","56.38","0","SATNPRO1509","30.01","0.42036","5"],
    [47265,"HCEP03730542","2025-02-01 16:00:00","10.0118","3.27701","26.556","5.333","7.65","1.084","4.265","0.14","1.96","29.5933","4.67987","57.1","0","SATNPRO1509","30.068","0.42118","5"],
    [47266,"HCEP03730542","2025-02-01 16:15:00","10.0406","3.28237","26.675","5.305","7.64","1.528","15.824","1.26","25.19","29.6232","4.68366","56.85","0","SATNPRO1509","30.048","0.42086","5"],
    [47267,"HCEP03730542","2025-02-01 16:30:00","10.0623","3.28574","26.799","5.191","7.63","0.963","4.268","0.12","0.32","29.6391","4.68557","55.66","0","SATNPRO1509","29.945999999999998","0.41946","5"],
    [47268,"HCEP03730542","2025-02-01 16:45:00","10.0776","3.28753","26.929","5.022","7.62","0.89","4.506","0.11","0.39","29.6444","4.68608","53.87","0","SATNPRO1509","30.105999999999998","0.42168","5"],
    [47269,"HCEP03730542","2025-02-01 17:00:00","10.0882","3.28861","27.009","4.904","7.61","0.856","4.478","0.1","0.18","29.6465","4.68621","52.62","0","SATNPRO1509","29.904","0.41884","5"],
    [47270,"HCEP03730542","2025-02-01 17:15:00","10.0949","3.29047","27.117","4.854","7.61","0.839","5.078","0.09","0.31","29.6595","4.68796","52.09","0","SATNPRO1509","29.93","0.41924","5"],
    [47271,"HCEP03730542","2025-02-01 17:30:00","10.0818","3.28897","27.215","4.783","7.61","0.846","5.104","0.09","0.23","29.6553","4.68758","51.31","0","SATNPRO1509","29.914","0.419","5"],
    [47272,"HCEP03730542","2025-02-01 17:45:00","10.0671","3.28638","27.301","4.837","7.62","0.914","5.349","0.1","0.26","29.6414","4.68585","51.87","0","SATNPRO1509","29.894","0.41868","5"],
    [47273,"HCEP03730542","2025-02-01 18:00:00","10.0403","3.28097","27.327","4.939","7.63","1.068","4.966","0.14","0.29","29.6092","4.68171","52.92","0","SATNPRO1509","29.762","0.4169","5"],
    [47274,"HCEP03730542","2025-02-01 18:15:00","10.0268","3.27831","27.362","5.173","7.64","1.143","4.032","0.17","0.32","29.5937","4.67972","55.4","0","SATNPRO1509","29.902","0.4188","5"],
    [47275,"HCEP03730542","2025-02-01 18:30:00","10.0249","3.27737","27.371","5.318","7.65","1.219","4.094","0.23","0.24","29.5858","4.67863","56.96","0","SATNPRO1509","29.992","0.4201","5"],
    [47276,"HCEP03730542","2025-02-01 18:45:00","10.0255","3.27691","27.342","5.391","7.66","6.375","231.582","4.53","132.7","29.5808","4.6779","57.74","0","SATNPRO1509","30","0.42022","5"],
    [47277,"HCEP03730542","2025-02-01 19:00:00","10.0289","3.27731","27.323","5.417","7.66","8.475","1115.863","3.67","816.15","29.5819","4.67801","58.02","0","SATNPRO1509","30.014","0.42038","5"],
    [47278,"HCEP03730542","2025-02-01 19:15:00","10.0329","3.27838","27.29","5.413","7.66","1.116","3.944","0.1","0.28","29.5893","4.67899","57.98","0","SATNPRO1509","29.976","0.41986","5"],
    [47279,"HCEP03730542","2025-02-01 19:30:00","10.0357","3.27913","27.206","5.389","7.65","1.11","3.763","0.17","0.29","29.5947","4.6797","57.73","0","SATNPRO1509","30.118000000000002","0.42186","5"],
    [47280,"HCEP03730542","2025-02-01 19:45:00","10.0375","3.27962","27.18","5.361","7.65","1.094","4.223","0.16","0.36","29.598","4.68015","57.44","0","SATNPRO1509","30.064","0.42108","5"],
    [47281,"HCEP03730542","2025-02-01 20:00:00","10.0467","3.28178","27.084","5.325","7.65","1.024","4.346","0.16","0.25","29.6122","4.68201","57.06","0","SATNPRO1509","30.092","0.4215","5"],
    [47282,"HCEP03730542","2025-02-01 20:15:00","10.0534","3.28338","26.976","5.26","7.64","0.999","3.959","0.17","0.22","29.6227","4.6834","56.38","0","SATNPRO1509","29.936","0.41932","5"],
    [47283,"HCEP03730542","2025-02-01 20:30:00","10.0563","3.28406","26.841","5.201","7.64","1.002","3.768","0.19","0.29","29.6272","4.68398","55.75","0","SATNPRO1509","30.009999999999998","0.42034","5"],
    [47284,"HCEP03730542","2025-02-01 20:45:00","10.0652","3.28559","26.687","5.153","7.63","3.565","39.616","3.58","37.3","29.6353","4.68498","55.25","0","SATNPRO1509","29.844","0.418","5"],
    [47285,"HCEP03730542","2025-02-01 21:00:00","10.0845","3.28803","26.521","5.061","7.62","0.944","4.247","0.19","0.47","29.6439","4.68587","54.29","0","SATNPRO1509","29.986","0.41998","5"],
    [47286,"HCEP03730542","2025-02-01 21:15:00","10.0613","3.2847","26.35","4.988","7.63","1.162","4.186","0.36","0.44","29.6297","4.68423","53.48","0","SATNPRO1509","31.292","0.43828","5"],
    [47287,"HCEP03730542","2025-02-01 21:30:00","10.0447","3.2814","26.176","5.103","7.64","1.06","3.288","0.2","0.19","29.6103","4.68173","54.68","0","SATNPRO1509","29.996","0.42016","5"],
    [47288,"HCEP03730542","2025-02-01 21:45:00","10.042","3.27964","26.003","5.212","7.65","1.153","3.404","0.29","0.33","29.5951","4.67959","55.85","0","SATNPRO1509","29.874","0.41842","5"],
    [47289,"HCEP03730542","2025-02-01 22:00:00","10.041","3.2791","25.813","5.269","7.65","1.183","3.281","0.24","0.22","29.5905","4.67894","56.45","0","SATNPRO1509","30.134","0.42208","5"],
    [47290,"HCEP03730542","2025-02-01 22:15:00","10.0406","3.27893","25.606","5.298","7.65","1.13","3.352","0.21","0.25","29.5893","4.67876","56.76","0","SATNPRO1509","29.94","0.41938","5"],
    [47291,"HCEP03730542","2025-02-01 22:30:00","10.0475","3.28064","25.406","5.298","7.65","1.014","4.246","0.1","0.35","29.6007","4.68026","56.77","0","SATNPRO1509","29.748","0.41666","5"],
    [47292,"HCEP03730542","2025-02-01 22:45:00","10.0449","3.28131","25.199","5.247","7.64","1.014","3.296","0.14","0.25","29.6097","4.68158","56.22","0","SATNPRO1509","29.928","0.4192","5"],
    [47293,"HCEP03730542","2025-02-01 23:00:00","10.0549","3.28411","25.007","5.239","7.64","0.99","3.824","0.17","0.31","29.6295","4.68423","56.16","0","SATNPRO1509","30.082","0.42132","5"],
    [47294,"HCEP03730542","2025-02-01 23:15:00","10.0566","3.28402","24.811","5.168","7.64","0.887","3.776","0.11","0.19","29.6273","4.68388","55.4","0","SATNPRO1509","30.03","0.42062","5"],
    [47295,"HCEP03730542","2025-02-01 23:30:00","10.0935","3.28979","24.647","5.119","7.62","0.814","4.654","0.08","0.29","29.6548","4.68718","54.93","0","SATNPRO1509","29.842","0.41796","5"],
    [47296,"HCEP03730542","2025-02-01 23:45:00","10.1134","3.29235","24.49","4.859","7.6","0.829","5.28","0.1","0.23","29.6641","4.68816","52.16","0","SATNPRO1509","29.794","0.41732","5"],
    [47297,"HCEP03730542","2025-02-02 00:00:00","10.1271","3.29422","24.364","4.649","7.59","0.803","6.107","0.11","0.49","29.6717","4.68901","49.92","0","SATNPRO1509","29.442","0.4124","5"],
    [47298,"HCEP03730542","2025-02-02 00:15:00","10.124","3.29362","24.272","4.509","7.59","0.767","4.699","0.1","0.24","29.6683","4.68857","48.42","0","SATNPRO1509","29.694","0.41588","5"],
    [47299,"HCEP03730542","2025-02-02 00:30:00","10.1068","3.29146","24.228","4.584","7.6","0.85","4.071","0.15","0.17","29.6608","4.68778","49.2","0","SATNPRO1509","30.058","0.42104","5"],
    [47300,"HCEP03730542","2025-02-02 00:45:00","10.0745","3.28726","24.214","4.732","7.62","0.816","3.072","0.11","0.15","29.6453","4.68612","50.75","0","SATNPRO1509","30.216","0.42322","5"],
    [47301,"HCEP03730542","2025-02-02 01:00:00","10.106","3.29058","24.251","4.907","7.61","0.853","2.98","0.1","0.2","29.6526","4.68663","52.66","0","SATNPRO1509","30.31","0.42452","5"],
    [47302,"HCEP03730542","2025-02-02 01:15:00","10.1219","3.29362","24.299","4.783","7.6","0.721","3.893","0.08","0.22","29.67","4.68884","51.36","0","SATNPRO1509","29.886","0.41862","5"],
    [47303,"HCEP03730542","2025-02-02 01:30:00","10.1266","3.29409","24.35","4.619","7.59","0.759","4.041","0.09","0.24","29.6708","4.68888","49.6","0","SATNPRO1509","29.894","0.41874","5"],
    [47304,"HCEP03730542","2025-02-02 01:45:00","10.1212","3.29326","24.449","4.571","7.59","0.763","3.627","0.09","0.32","29.6669","4.68843","49.08","0","SATNPRO1509","30.048","0.42086","5"],
    [47305,"HCEP03730542","2025-02-02 02:00:00","10.1181","3.29279","24.573","4.615","7.6","0.765","3.737","0.05","0.23","29.6647","4.68816","49.55","0","SATNPRO1509","29.986","0.41998","5"],
    [47306,"HCEP03730542","2025-02-02 02:15:00","10.1117","3.2929","24.764","4.654","7.6","1.907","11.834","2.75","20","29.6709","4.68918","49.96","0","SATNPRO1509","30.226","0.42336","5"],
    [47307,"HCEP03730542","2025-02-02 02:30:00","10.0928","3.29007","24.91","4.663","7.61","0.771","3.445","0.07","0.3","29.6581","4.68767","50.04","0","SATNPRO1509","30.34","0.42496","5"],
    [47308,"HCEP03730542","2025-02-02 02:45:00","10.1064","3.29087","25.106","4.796","7.6","0.763","3.928","0.07","0.47","29.6549","4.687","51.47","0","SATNPRO1509","30.238","0.42352","5"],
    [47309,"HCEP03730542","2025-02-02 03:00:00","10.0755","3.28771","25.312","4.912","7.62","0.77","3.332","0.06","0.2","29.6485","4.68662","52.68","0","SATNPRO1509","30.282","0.42412","5"],
    [47310,"HCEP03730542","2025-02-02 03:15:00","10.0886","3.28999","25.43","4.948","7.61","0.781","3.588","0.08","0.27","29.6606","4.68813","53.09","0","SATNPRO1509","30.212","0.42314","5"],
    [47311,"HCEP03730542","2025-02-02 03:30:00","10.101","3.29176","25.655","4.872","7.61","0.761","3.913","0.1","0.16","29.6679","4.68898","52.29","0","SATNPRO1509","30.104","0.42162","5"],
    [47312,"HCEP03730542","2025-02-02 03:45:00","10.1042","3.29224","25.831","4.771","7.6","0.727","3.84","0.07","0.23","29.67","4.68923","51.22","0","SATNPRO1509","29.996","0.42014","5"],
    [47313,"HCEP03730542","2025-02-02 04:00:00","10.1129","3.29321","26.01","4.694","7.6","0.75","4.398","0.06","0.29","29.6725","4.68945","50.4","0","SATNPRO1509","29.726","0.41636","5"],
    [47314,"HCEP03730542","2025-02-02 04:15:00","10.11","3.29302","26.236","4.614","7.59","0.72","4.765","0.06","0.24","29.6729","4.68956","49.53","0","SATNPRO1509","29.759999999999998","0.41686","5"],
    [47315,"HCEP03730542","2025-02-02 04:30:00","10.1142","3.29372","26.467","4.597","7.59","0.725","5.001","0.05","0.24","29.6763","4.69","49.36","0","SATNPRO1509","29.666","0.41556","5"],
    [47316,"HCEP03730542","2025-02-02 04:45:00","10.1157","3.29425","26.693","4.57","7.59","0.705","4.986","0.07","0.3","29.6803","4.69056","49.07","0","SATNPRO1509","29.848","0.4181","5"],
    [47317,"HCEP03730542","2025-02-02 05:00:00","10.1107","3.29399","26.862","4.577","7.59","0.681","4.853","0.07","0.25","29.6818","4.69086","49.14","0","SATNPRO1509","30.054","0.42098","5"],
    [47318,"HCEP03730542","2025-02-02 05:15:00","10.1076","3.29382","27.127","4.641","7.6","0.676","4.692","0.06","0.2","29.6826","4.69104","49.83","0","SATNPRO1509","30.022000000000002","0.42054","5"],
    [47319,"HCEP03730542","2025-02-02 05:30:00","10.1195","3.29544","27.319","4.684","7.6","0.645","10.236","0.06","2.81","29.6889","4.69176","50.29","0","SATNPRO1509","30.038","0.42076","5"],
    [47320,"HCEP03730542","2025-02-02 05:45:00","10.1295","3.29673","27.497","4.614","7.59","0.628","9.879","0.06","2.41","29.6934","4.69225","49.56","0","SATNPRO1509","30.082","0.42136","5"],
    [47321,"HCEP03730542","2025-02-02 06:00:00","10.1266","3.29635","27.633","4.548","7.59","3.99","462.549","2.35","223.77","29.6921","4.6921","48.85","0","SATNPRO1509","30.046","0.42088","5"],
    [47322,"HCEP03730542","2025-02-02 06:15:00","10.1402","3.29807","27.821","4.526","7.58","20.233","400.412","9.75","209.97","29.698","4.69274","48.63","0","SATNPRO1509","30.094","0.42156","5"],
    [47323,"HCEP03730542","2025-02-02 06:30:00","10.1454","3.29871","27.934","4.454","7.58","3.342","58.79","3.52","26.14","29.7001","4.69295","47.87","0","SATNPRO1509","30.014","0.42038","5"],
    [47324,"HCEP03730542","2025-02-02 06:45:00","10.1533","3.2995","28.001","4.394","7.58","1.282","41.857","0.69","22.1","29.7015","4.69303","47.22","0","SATNPRO1509","29.994","0.4201","5"],
    [47325,"HCEP03730542","2025-02-02 07:00:00","10.1417","3.29799","28.118","4.364","7.58","1.248","44.963","0.32","29.41","29.6958","4.69242","46.88","0","SATNPRO1509","30.136","0.42216","5"],
    [47326,"HCEP03730542","2025-02-02 07:15:00","10.1373","3.29733","28.09","4.406","7.58","1.361","15.599","0.5","12.58","29.6928","4.69206","47.33","0","SATNPRO1509","30.066","0.42108","5"],
    [47327,"HCEP03730542","2025-02-02 07:30:00","10.138","3.29737","28.11","4.434","7.58","1.285","20.054","0.43","16.24","29.6926","4.69202","47.64","0","SATNPRO1509","30.054","0.42098","5"],
    [47328,"HCEP03730542","2025-02-02 07:45:00","10.1411","3.29749","28.115","4.431","7.58","2.253","75.717","0.61","13.07","29.6913","4.69179","47.6","0","SATNPRO1509","30.122","0.42192","5"],
    [47329,"HCEP03730542","2025-02-02 08:00:00","10.144","3.29797","28.102","4.419","7.58","2.741","45.968","1.09","27.24","29.6937","4.69207","47.48","0","SATNPRO1509","30.142","0.42222","5"],
    [47330,"HCEP03730542","2025-02-02 08:15:00","10.1507","3.29854","28.078","4.393","7.57","5.205","44.3","4.37","32.32","29.694","4.692","47.2","0","SATNPRO1509","30.188","0.4228","5"],
    [47331,"HCEP03730542","2025-02-02 08:30:00","10.1478","3.2986","27.99","4.367","7.57","0.606","4.14","0.07","0.17","29.697","4.69248","46.93","0","SATNPRO1509","30.01","0.4203","5"],
    [47332,"HCEP03730542","2025-02-02 08:45:00","10.1564","3.29992","27.942","4.345","7.57","0.566","4.163","0.05","0.17","29.7031","4.6932","46.7","0","SATNPRO1509","30.04","0.4208","5"],
    [47333,"HCEP03730542","2025-02-02 09:00:00","10.1444","3.29826","27.808","4.308","7.57","0.611","4.003","0.09","0.2","29.6964","4.69244","46.29","0","SATNPRO1509","30.150000000000002","0.42232","5"],
    [47334,"HCEP03730542","2025-02-02 09:15:00","10.1292","3.29666","27.679","4.407","7.58","0.607","3.618","0.07","0.2","29.6929","4.69219","47.34","0","SATNPRO1509","30.258","0.42386","5"],
    [47335,"HCEP03730542","2025-02-02 09:30:00","10.1332","3.29755","27.553","4.499","7.58","0.596","4.008","0.07","0.19","29.6985","4.69292","48.33","0","SATNPRO1509","30.132","0.42204","5"],
    [47336,"HCEP03730542","2025-02-02 09:45:00","10.1397","3.29843","27.493","4.463","7.58","0.621","4.824","0.08","0.31","29.7021","4.69331","47.96","0","SATNPRO1509","30.148","0.42226","5"],
    [47337,"HCEP03730542","2025-02-02 10:00:00","10.129","3.29692","27.377","4.433","7.58","0.588","4.121","0.05","0.14","29.6959","4.69259","47.62","0","SATNPRO1509","30.125999999999998","0.42202","5"],
    [47338,"HCEP03730542","2025-02-02 10:15:00","10.1381","3.29803","27.144","4.47","7.58","0.579","4.301","0.05","0.15","29.6996","4.69296","48.02","0","SATNPRO1509","30.128","0.42202","5"],
    [47339,"HCEP03730542","2025-02-02 10:30:00","10.1466","3.2992","27.122","4.394","7.57","0.608","4.406","0.06","0.36","29.7043","4.69349","47.22","0","SATNPRO1509","29.952","0.41954","5"],
    [47340,"HCEP03730542","2025-02-02 10:45:00","10.1576","3.30044","26.973","4.31","7.57","0.589","4.809","0.08","0.2","29.7077","4.69379","46.33","0","SATNPRO1509","29.91","0.41896","5"],
    [47341,"HCEP03730542","2025-02-02 11:00:00","10.1651","3.30137","26.831","4.223","7.56","0.558","4.628","0.04","0.15","29.7109","4.6941","45.4","0","SATNPRO1509","29.852","0.41812","5"],
    [47342,"HCEP03730542","2025-02-02 11:15:00","10.1671","3.3016","26.696","4.158","7.56","0.539","3.841","0.05","0.27","29.7115","4.69415","44.7","0","SATNPRO1509","30.1","0.4216","5"],
    [47343,"HCEP03730542","2025-02-02 11:30:00","10.1853","3.30349","26.482","4.122","7.55","0.554","5.181","0.07","0.21","29.7155","4.69441","44.34","0","SATNPRO1509","29.718","0.4163","5"],
    [47344,"HCEP03730542","2025-02-02 11:45:00","10.1935","3.3042","26.32","3.973","7.54","0.59","6.717","0.08","1.36","29.716","4.69433","42.74","0","SATNPRO1509","29.766","0.41692","5"],
    [47345,"HCEP03730542","2025-02-02 12:00:00","10.1952","3.30432","26.141","3.887","7.54","0.553","5.272","0.06","0.33","29.7159","4.69428","41.82","0","SATNPRO1509","29.726","0.41636","5"],
    [47346,"HCEP03730542","2025-02-02 12:15:00","10.1933","3.30376","25.956","3.849","7.54","0.569","5.492","0.05","0.25","29.712","4.69374","41.41","0","SATNPRO1509","29.514","0.41342","5"],
    [47347,"HCEP03730542","2025-02-02 12:30:00","10.1859","3.30262","25.719","3.878","7.54","0.613","5.348","0.08","0.21","29.7067","4.6931","41.71","0","SATNPRO1509","29.622","0.4149","5"],
    [47348,"HCEP03730542","2025-02-02 12:45:00","10.175","3.30177","25.561","3.921","7.54","0.606","5.1","0.07","0.28","29.7073","4.69335","42.17","0","SATNPRO1509","29.6","0.41464","5"],
    [47349,"HCEP03730542","2025-02-02 13:00:00","10.1479","3.29679","25.398","4.011","7.56","0.629","4.519","0.06","0.31","29.6798","4.68988","43.1","0","SATNPRO1509","29.796","0.41734","5"],
    [47350,"HCEP03730542","2025-02-02 13:15:00","10.1569","3.29812","25.306","4.209","7.56","0.648","4.244","0.07","0.26","29.6858","4.69057","45.24","0","SATNPRO1509","29.584","0.41436","5"],
    [47351,"HCEP03730542","2025-02-02 13:30:00","10.1544","3.29811","25.209","4.171","7.56","0.712","4.082","0.1","0.3","29.6879","4.6909","44.83","0","SATNPRO1509","29.664","0.41546","5"],
    [47352,"HCEP03730542","2025-02-02 13:45:00","10.136","3.29572","25.13","4.165","7.56","0.728","3.665","0.1","0.18","29.679","4.68995","44.74","0","SATNPRO1509","29.748","0.41668","5"],
    [47353,"HCEP03730542","2025-02-02 14:00:00","10.1237","3.29274","25.168","4.278","7.57","0.804","3.309","0.13","0.21","29.6594","4.68735","45.94","0","SATNPRO1509","29.734","0.41648","5"],
    [47354,"HCEP03730542","2025-02-02 14:15:00","10.1366","3.29487","25.217","4.383","7.57","0.672","3.769","0.07","0.16","29.67","4.68866","47.08","0","SATNPRO1509","29.62","0.41488","5"],
    [47355,"HCEP03730542","2025-02-02 14:30:00","10.1403","3.29489","25.282","4.318","7.57","0.686","3.886","0.06","0.39","29.6672","4.68819","46.38","0","SATNPRO1509","29.674","0.4156","5"],
    [47356,"HCEP03730542","2025-02-02 14:45:00","10.1173","3.29256","25.332","4.336","7.58","0.716","3.343","0.07","0.13","29.6627","4.68794","46.55","0","SATNPRO1509","29.598","0.41458","5"],
    [47357,"HCEP03730542","2025-02-02 15:00:00","10.1384","3.29574","25.403","4.401","7.57","0.659","3.719","0.08","0.17","29.6771","4.68965","47.28","0","SATNPRO1509","29.678","0.4157","5"],
    [47358,"HCEP03730542","2025-02-02 15:15:00","10.137","3.29613","25.489","4.313","7.57","0.665","3.924","0.07","0.15","29.6822","4.6904","46.34","0","SATNPRO1509","29.652","0.41534","5"],
    [47359,"HCEP03730542","2025-02-02 15:30:00","10.1427","3.29768","25.636","4.28","7.56","0.654","5.845","0.06","0.38","29.6929","4.69185","45.98","0","SATNPRO1509","29.59","0.41442","5"],
    [47360,"HCEP03730542","2025-02-02 15:45:00","10.1564","3.29917","25.772","4.172","7.56","0.621","5.87","0.05","0.27","29.6964","4.69213","44.84","0","SATNPRO1509","29.552","0.41394","5"],
    [47361,"HCEP03730542","2025-02-02 16:00:00","10.1314","3.29634","25.892","4.14","7.57","0.635","5.057","0.04","0.33","29.6886","4.69143","44.47","0","SATNPRO1509","29.832","0.41784","5"],
    [47362,"HCEP03730542","2025-02-02 16:15:00","10.162","3.29967","25.992","4.256","7.56","0.611","4.996","0.05","0.29","29.6967","4.69208","45.75","0","SATNPRO1509","29.84","0.41792","5"],
    [47363,"HCEP03730542","2025-02-02 16:30:00","10.1341","3.29814","26.049","4.143","7.56","0.621","5.273","0.04","0.5","29.7043","4.69364","44.51","0","SATNPRO1509","29.898","0.41878","5"],
    [47364,"HCEP03730542","2025-02-02 16:45:00","10.1551","3.2984","26.216","4.208","7.56","8.893","131.305","3.85","68.68","29.6897","4.69121","45.22","0","SATNPRO1509","29.686","0.4158","5"],
    [47365,"HCEP03730542","2025-02-02 17:00:00","10.1566","3.29982","26.254","4.186","7.56","3.545","52.071","4.23","22.46","29.7027","4.69304","45","0","SATNPRO1509","29.802","0.41744","5"],
    [47366,"HCEP03730542","2025-02-02 17:15:00","10.1448","3.2981","26.372","4.163","7.56","0.639","5.081","0.08","0.27","29.6951","4.69217","44.73","0","SATNPRO1509","29.778000000000002","0.41708","5"],
    [47367,"HCEP03730542","2025-02-02 17:30:00","10.1463","3.29855","26.455","4.214","7.56","0.652","5.389","0.1","0.23","29.6983","4.69259","45.28","0","SATNPRO1509","29.73","0.41644","5"],
    [47368,"HCEP03730542","2025-02-02 17:45:00","10.1392","3.29783","26.625","4.229","7.57","0.617","5.846","0.04","0.24","29.6969","4.69252","45.43","0","SATNPRO1509","29.786","0.4172","5"],
    [47369,"HCEP03730542","2025-02-02 18:00:00","10.1277","3.29573","26.719","4.278","7.57","0.693","5.765","0.08","0.31","29.6853","4.69106","45.94","0","SATNPRO1509","29.688","0.41586","5"],
    [47370,"HCEP03730542","2025-02-02 18:15:00","10.1178","3.29483","26.836","4.375","7.58","0.698","5.351","0.11","0.27","29.6844","4.69111","46.98","0","SATNPRO1509","29.64","0.41516","5"],
    [47371,"HCEP03730542","2025-02-02 18:30:00","10.0966","3.29096","26.914","4.456","7.59","0.747","4.973","0.11","0.25","29.663","4.68842","47.82","0","SATNPRO1509","29.624","0.41492","5"],
    [47372,"HCEP03730542","2025-02-02 18:45:00","10.0934","3.29072","26.992","4.605","7.59","0.741","5.058","0.09","0.25","29.6633","4.68852","49.41","0","SATNPRO1509","29.692","0.41594","5"],
    [47373,"HCEP03730542","2025-02-02 19:00:00","10.0766","3.28674","27.075","4.683","7.61","0.829","4.511","0.09","0.19","29.6373","4.68509","50.23","0","SATNPRO1509","29.954","0.41956","5"],
    [47374,"HCEP03730542","2025-02-02 19:15:00","10.074","3.28608","27.122","4.811","7.61","0.889","3.83","0.16","0.16","29.6328","4.6845","51.59","0","SATNPRO1509","29.98","0.41994","5"],
    [47375,"HCEP03730542","2025-02-02 19:30:00","10.0822","3.28814","27.151","4.85","7.61","0.768","4.77","0.12","0.25","29.6467","4.68635","52.03","0","SATNPRO1509","29.598000000000003","0.41454","5"],
    [47376,"HCEP03730542","2025-02-02 19:45:00","10.1003","3.29191","27.17","4.746","7.6","0.695","5.427","0.07","0.18","29.6694","4.68929","50.94","0","SATNPRO1509","29.646","0.41526","5"],
    [47377,"HCEP03730542","2025-02-02 20:00:00","10.106","3.29247","27.12","4.61","7.59","0.723","5.449","0.06","0.27","29.6703","4.68931","49.48","0","SATNPRO1509","29.694","0.41586","5"],
    [47378,"HCEP03730542","2025-02-02 20:15:00","10.1226","3.2953","27.069","4.539","7.58","0.731","5.874","0.09","0.68","29.685","4.69114","48.75","0","SATNPRO1509","29.688","0.41586","5"],
    [47379,"HCEP03730542","2025-02-02 20:30:00","10.1173","3.29365","27.015","4.423","7.58","0.715","5.552","0.06","0.4","29.6729","4.6895","47.49","0","SATNPRO1509","29.668","0.41556","5"],
    [47380,"HCEP03730542","2025-02-02 20:45:00","10.1124","3.2928","26.951","4.434","7.58","0.734","5.468","0.08","0.28","29.6686","4.68895","47.6","0","SATNPRO1509","29.496","0.41318","5"],
    [47381,"HCEP03730542","2025-02-02 21:00:00","10.0707","3.28231","26.866","4.575","7.61","0.984","3.234","0.15","0.35","29.5979","4.67955","49.05","0","SATNPRO1509","30.206","0.4231","5"],
    [47382,"HCEP03730542","2025-02-02 21:15:00","10.0662","3.28127","26.795","4.972","7.63","1.028","3.455","0.1","0.29","29.5913","4.67868","53.29","0","SATNPRO1509","30.122","0.42192","5"],
    [47383,"HCEP03730542","2025-02-02 21:30:00","10.0628","3.27988","26.674","5.08","7.63","1.073","3.012","0.13","0.26","29.5802","4.67716","54.44","0","SATNPRO1509","30.108","0.4217","5"],
    [47384,"HCEP03730542","2025-02-02 21:45:00","10.0653","3.2808","26.549","5.124","7.63","1.054","3.457","0.12","0.23","29.5874","4.67813","54.92","0","SATNPRO1509","30.206","0.42308","5"],
    [47385,"HCEP03730542","2025-02-02 22:00:00","10.0663","3.28059","26.413","5.121","7.63","1.181","3.41","0.24","0.39","29.5846","4.67771","54.89","0","SATNPRO1509","30.102","0.42164","5"],
    [47386,"HCEP03730542","2025-02-02 22:15:00","10.0664","3.27936","26.277","5.123","7.63","1.107","3.167","0.17","0.2","29.5723","4.67594","54.91","0","SATNPRO1509","30.134","0.42206","5"],
    [47387,"HCEP03730542","2025-02-02 22:30:00","10.0624","3.27886","26.148","5.132","7.63","1.314","4.249","0.18","0.36","29.5705","4.67574","55","0","SATNPRO1509","30.198","0.423","5"],
    [47388,"HCEP03730542","2025-02-02 22:45:00","10.0558","3.27594","26.028","5.142","7.63","1.131","3.028","0.14","0.2","29.5468","4.67247","55.09","0","SATNPRO1509","30.189999999999998","0.42286","5"],
    [47389,"HCEP03730542","2025-02-02 23:00:00","10.0355","3.27241","25.895","5.204","7.64","1.255","3.911","0.71","3.71","29.5282","4.67013","55.72","0","SATNPRO1509","30.282","0.42412","5"],
    [47390,"HCEP03730542","2025-02-02 23:15:00","10.0398","3.27583","25.738","5.27","7.64","1.054","3.819","0.1","0.35","29.5589","4.67444","56.45","0","SATNPRO1509","30.026","0.42056","5"],
    [47391,"HCEP03730542","2025-02-02 23:30:00","10.0418","3.276","25.596","5.212","7.64","1.099","3.731","0.11","0.53","29.559","4.67441","55.83","0","SATNPRO1509","29.928","0.41918","5"],
    [47392,"HCEP03730542","2025-02-02 23:45:00","10.0309","3.27328","25.461","5.186","7.64","1.131","3.506","0.16","0.27","29.5408","4.67199","55.53","0","SATNPRO1509","29.884","0.4186","5"],
    [47393,"HCEP03730542","2025-02-03 00:00:00","10.0602","3.28037","25.308","5.143","7.62","1.019","6.239","0.09","0.27","29.5878","4.6782","55.12","0","SATNPRO1509","29.68","0.4157","5"],
    [47394,"HCEP03730542","2025-02-03 00:15:00","10.071","3.28258","25.177","4.979","7.62","0.966","6.331","0.07","0.82","29.6011","4.67991","53.38","0","SATNPRO1509","29.454","0.41258","5"],
    [47395,"HCEP03730542","2025-02-03 00:30:00","10.0842","3.28534","25.046","4.858","7.61","0.883","5.708","0.07","0.56","29.6179","4.68208","52.11","0","SATNPRO1509","29.48","0.4129","5"],
    [47396,"HCEP03730542","2025-02-03 00:45:00","10.091","3.28696","24.906","4.74","7.6","0.888","5.431","0.09","0.32","29.6285","4.68348","50.85","0","SATNPRO1509","29.396","0.41176","5"],
    [47397,"HCEP03730542","2025-02-03 01:00:00","10.1005","3.2889","24.809","4.65","7.59","0.868","5.563","0.08","0.28","29.6402","4.68498","49.9","0","SATNPRO1509","29.428","0.4122","5"],
    [47398,"HCEP03730542","2025-02-03 01:15:00","10.1084","3.29035","24.764","4.54","7.59","0.814","5.086","0.11","0.23","29.6482","4.68598","48.73","0","SATNPRO1509","29.43","0.41224","5"],
    [47399,"HCEP03730542","2025-02-03 01:30:00","10.111","3.29027","24.739","4.491","7.58","0.797","4.81","0.06","0.22","29.6453","4.68554","48.21","0","SATNPRO1509","29.506","0.41326","5"],
    [47400,"HCEP03730542","2025-02-03 01:45:00","10.1294","3.29323","24.76","4.443","7.57","0.758","4.728","0.09","0.22","29.6597","4.68728","47.71","0","SATNPRO1509","29.466","0.4127","5"],
    [47401,"HCEP03730542","2025-02-03 02:00:00","10.1399","3.29451","24.777","4.319","7.57","2.345","52.548","0.88","22.92","29.6639","4.68771","46.4","0","SATNPRO1509","29.444","0.41242","5"],
    [47402,"HCEP03730542","2025-02-03 02:15:00","10.1511","3.296","24.871","4.225","7.56","0.679","4.671","0.08","0.23","29.6696","4.68834","45.4","0","SATNPRO1509","29.478","0.41294","5"],
    [47403,"HCEP03730542","2025-02-03 02:30:00","10.1497","3.29568","24.959","4.143","7.56","0.721","4.421","0.07","0.2","29.6676","4.68807","44.51","0","SATNPRO1509","29.508","0.4133","5"],
    [47404,"HCEP03730542","2025-02-03 02:45:00","10.151","3.29598","25.095","4.13","7.56","0.685","4.512","0.05","0.44","29.6694","4.68832","44.38","0","SATNPRO1509","29.451999999999998","0.41248","5"],
    [47405,"HCEP03730542","2025-02-03 03:00:00","10.1452","3.29529","25.201","4.119","7.56","0.719","4.253","0.1","0.2","29.6672","4.6881","44.25","0","SATNPRO1509","29.462","0.41268","5"],
    [47406,"HCEP03730542","2025-02-03 03:15:00","10.141","3.29462","25.364","4.138","7.56","0.713","4.289","0.06","0.23","29.6639","4.68772","44.45","0","SATNPRO1509","29.276","0.41002","5"],
    [47407,"HCEP03730542","2025-02-03 03:30:00","10.1389","3.29412","25.527","4.167","7.56","0.737","4.233","0.09","0.21","29.6606","4.68729","44.75","0","SATNPRO1509","29.534","0.4137","5"],
    [47408,"HCEP03730542","2025-02-03 03:45:00","10.1096","3.28895","25.679","4.224","7.57","0.76","4","0.08","0.18","29.6329","4.68384","45.34","0","SATNPRO1509","29.512","0.4134","5"],
    [47409,"HCEP03730542","2025-02-03 04:00:00","10.1041","3.28783","25.834","4.397","7.58","0.885","4.209","0.14","0.25","29.6261","4.68297","47.18","0","SATNPRO1509","29.392","0.41168","5"],
    [47410,"HCEP03730542","2025-02-03 04:15:00","10.0972","3.28666","26.03","4.443","7.58","0.849","4.072","0.12","0.16","29.62","4.68222","47.67","0","SATNPRO1509","29.247999999999998","0.40968","5"],
    [47411,"HCEP03730542","2025-02-03 04:30:00","10.0807","3.28321","26.163","4.491","7.58","0.853","4.021","0.09","0.14","29.599","4.67951","48.16","0","SATNPRO1509","29.233999999999998","0.40944","5"],
    [47412,"HCEP03730542","2025-02-03 04:45:00","10.1073","3.28874","26.346","4.511","7.58","0.804","4.227","0.07","0.26","29.6324","4.68384","48.41","0","SATNPRO1509","29.264","0.4099","5"],
    [47413,"HCEP03730542","2025-02-03 05:00:00","10.1331","3.29314","26.551","4.362","7.57","0.769","3.982","0.07","0.14","29.6552","4.68667","46.85","0","SATNPRO1509","29.36","0.41122","5"],
    [47414,"HCEP03730542","2025-02-03 05:15:00","10.1351","3.29345","26.741","4.227","7.56","0.76","3.756","0.13","0.22","29.6565","4.68683","45.4","0","SATNPRO1509","29.338","0.41096","5"],
    [47415,"HCEP03730542","2025-02-03 05:30:00","10.1407","3.29427","26.926","4.192","7.56","0.777","4.032","0.1","0.24","29.66","4.68726","45.03","0","SATNPRO1509","29.382","0.41156","5"],
    [47416,"HCEP03730542","2025-02-03 05:45:00","10.1331","3.29268","27.125","4.173","7.56","0.712","3.636","0.08","0.18","29.6503","4.68601","44.82","0","SATNPRO1509","29.554","0.41394","5"],
    [47417,"HCEP03730542","2025-02-03 06:00:00","10.1428","3.29393","27.287","4.212","7.56","0.75","4.277","0.05","0.3","29.6548","4.6865","45.24","0","SATNPRO1509","29.259999999999998","0.40986","5"],
    [47418,"HCEP03730542","2025-02-03 06:15:00","10.1483","3.29452","27.47","4.128","7.55","0.726","4.375","0.07","0.25","29.6561","4.6866","44.35","0","SATNPRO1509","29.158","0.4084","5"],
    [47419,"HCEP03730542","2025-02-03 06:30:00","10.1479","3.2941","27.659","4.077","7.55","0.906","40.874","0.4","37.25","29.6521","4.68605","43.8","0","SATNPRO1509","29.104","0.40762","5"],
    [47420,"HCEP03730542","2025-02-03 06:45:00","10.1472","3.29363","27.776","4.071","7.55","0.754","4.584","0.08","0.28","29.6479","4.68548","43.73","0","SATNPRO1509","29.106","0.40768","5"],
    [47421,"HCEP03730542","2025-02-03 07:00:00","10.1391","3.29212","27.911","4.094","7.56","0.781","4.347","0.06","0.24","29.6395","4.68441","43.97","0","SATNPRO1509","29.137999999999998","0.40816","5"],
    [47422,"HCEP03730542","2025-02-03 07:15:00","10.1297","3.29021","27.98","4.168","7.56","0.768","4.301","0.06","0.2","29.6281","4.68295","44.75","0","SATNPRO1509","29.256","0.4098","5"],
    [47423,"HCEP03730542","2025-02-03 07:30:00","10.1262","3.28949","28.077","4.243","7.56","0.997","30.579","0.35","25.57","29.6238","4.68239","45.55","0","SATNPRO1509","29.304000000000002","0.41044","5"],
    [47424,"HCEP03730542","2025-02-03 07:45:00","10.1255","3.28936","28.106","4.27","7.56","0.796","4.266","0.08","0.17","29.623","4.6823","45.84","0","SATNPRO1509","29.29","0.41028","5"],
    [47425,"HCEP03730542","2025-02-03 08:00:00","10.1256","3.28936","28.154","4.269","7.56","0.827","4.093","0.08","0.22","29.6229","4.68228","45.83","0","SATNPRO1509","29.23","0.40944","5"],
    [47426,"HCEP03730542","2025-02-03 08:15:00","10.1248","3.28921","28.094","4.267","7.57","0.791","4.244","0.06","0.15","29.622","4.68217","45.8","0","SATNPRO1509","29.23","0.40942","5"],
    [47427,"HCEP03730542","2025-02-03 08:30:00","10.123","3.28884","28.107","4.27","7.57","0.782","4.068","0.06","0.1","29.6198","4.68189","45.83","0","SATNPRO1509","29.286","0.41022","5"],
    [47428,"HCEP03730542","2025-02-03 08:45:00","10.1214","3.28853","28.107","4.282","7.57","0.803","4.216","0.07","0.21","29.618","4.68166","45.96","0","SATNPRO1509","29.294","0.41036","5"],
    [47429,"HCEP03730542","2025-02-03 09:00:00","10.1157","3.28742","28.026","4.303","7.57","0.857","3.664","0.11","0.16","29.6117","4.68085","46.18","0","SATNPRO1509","29.296","0.4103","5"],
    [47430,"HCEP03730542","2025-02-03 09:15:00","10.1164","3.28778","27.972","4.331","7.57","10.079","463.187","4.77","196.67","29.6147","4.68126","46.49","0","SATNPRO1509","29.254","0.40976","5"],
    [47431,"HCEP03730542","2025-02-03 09:30:00","10.1169","3.28801","27.861","4.325","7.57","6.027","65.718","3.62","17.08","29.6166","4.68151","46.42","0","SATNPRO1509","29.323999999999998","0.41074","5"],
    [47432,"HCEP03730542","2025-02-03 09:45:00","10.0971","3.28374","27.751","4.347","7.58","0.862","3.178","0.07","0.12","29.5902","4.67807","46.63","0","SATNPRO1509","29.596","0.41454","5"],
    [47433,"HCEP03730542","2025-02-03 10:00:00","10.0647","3.27898","27.601","4.549","7.59","0.972","3.326","0.08","0.17","29.5692","4.67561","48.76","0","SATNPRO1509","29.656","0.41534","5"],
    [47434,"HCEP03730542","2025-02-03 10:15:00","9.9943","3.26325","27.509","4.755","7.6","1.171","3.323","0.2","0.26","29.4695","4.66254","50.86","0","SATNPRO1509","28.532","0.39964","5"],
    [47435,"HCEP03730542","2025-02-03 10:30:00","9.8929","3.24309","27.423","4.931","7.63","1.988","3.854","0.23","0.16","29.3503","4.6472","52.58","0","SATNPRO1509","27.878","0.39048","5"],
    [47436,"HCEP03730542","2025-02-03 10:45:00","9.8825","3.24054","27.218","5.201","7.64","1.81","3.667","0.2","0.14","29.3334","4.64494","55.44","0","SATNPRO1509","27.792","0.38926","5"],
    [47437,"HCEP03730542","2025-02-03 11:00:00","9.871","3.23938","27.015","5.283","7.64","1.92","3.82","0.17","0.21","29.331","4.64479","56.3","0","SATNPRO1509","27.95","0.39148","5"],
    [47438,"HCEP03730542","2025-02-03 11:15:00","10.1043","3.28739","26.844","4.929","7.59","0.962","4.593","0.14","0.24","29.6212","4.68232","52.89","0","SATNPRO1509","28.984","0.40596","5"],
    [47439,"HCEP03730542","2025-02-03 11:30:00","10.0373","3.27516","26.683","4.477","7.59","1.057","3.823","0.12","0.15","29.5539","4.67382","47.96","0","SATNPRO1509","28.784","0.4032","5"],
    [47440,"HCEP03730542","2025-02-03 11:45:00","9.9619","3.26232","26.522","4.672","7.61","1.377","3.354","0.2","0.12","29.487","4.66553","49.95","0","SATNPRO1509","28.248","0.39564","5"],
    [47441,"HCEP03730542","2025-02-03 12:00:00","9.943","3.25033","26.328","4.889","7.62","1.295","3.588","0.27","0.19","29.3825","4.65089","52.19","0","SATNPRO1509","28.288","0.39624","5"],
    [47442,"HCEP03730542","2025-02-03 12:15:00","10.0501","3.276","26.146","4.953","7.6","1.147","3.78","0.1","0.22","29.552","4.67331","53.07","0","SATNPRO1509","28.882","0.40454","5"],
    [47443,"HCEP03730542","2025-02-03 12:30:00","10.0817","3.28248","25.926","4.634","7.59","1.056","4.064","0.14","0.28","29.591","4.67834","49.69","0","SATNPRO1509","29.03","0.40664","5"],
    [47444,"HCEP03730542","2025-02-03 12:45:00","10.0772","3.28157","25.683","4.495","7.58","1.106","4.104","0.11","0.51","29.5856","4.67763","48.2","0","SATNPRO1509","29.03","0.4066","5"],
    [47445,"HCEP03730542","2025-02-03 13:00:00","10.0312","3.27094","25.469","4.506","7.59","1.496","3.779","0.2","0.12","29.5172","4.66861","48.24","0","SATNPRO1509","28.468","0.39878","5"],
    [47446,"HCEP03730542","2025-02-03 13:15:00","9.9446","3.25228","25.325","4.677","7.61","1.845","4.2","0.2","1.75","29.4012","4.65348","49.95","0","SATNPRO1509","27.968","0.39172","5"],
    [47447,"HCEP03730542","2025-02-03 13:30:00","9.887","3.24132","25.169","4.996","7.63","1.903","3.468","0.17","1","29.3384","4.64547","53.26","0","SATNPRO1509","27.938","0.39132","5"],
    [47448,"HCEP03730542","2025-02-03 13:45:00","9.8248","3.22892","25.119","5.26","7.65","2.259","3.162","0.25","0.96","29.2645","4.63595","55.98","0","SATNPRO1509","27.708","0.38806","5"],
    [47449,"HCEP03730542","2025-02-03 14:00:00","9.7827","3.22041","24.945","5.52","7.67","2.587","2.684","0.25","0.1","29.2133","4.62933","58.66","0","SATNPRO1509","27.638","0.38714","5"],
    [47450,"HCEP03730542","2025-02-03 14:15:00","9.7289","3.20917","24.951","5.766","7.69","2.703","2.305","0.29","0.12","29.1439","4.62031","61.18","0","SATNPRO1509","27.394","0.3837","5"],
    [47451,"HCEP03730542","2025-02-03 14:30:00","9.6475","3.19272","24.91","6.017","7.72","3.09","3.184","0.3","1.17","29.0443","4.60743","63.69","0","SATNPRO1509","27.352","0.38308","5"],
    [47452,"HCEP03730542","2025-02-03 14:45:00","9.7847","3.22102","24.896","6.116","7.67","1.942","5.424","0.23","0.29","29.2179","4.62995","65","0","SATNPRO1509","26.528","0.37156","5"],
    [47453,"HCEP03730542","2025-02-03 15:00:00","9.9339","3.25284","24.948","5.382","7.63","1.324","5.432","0.08","0.23","29.4156","4.6557","57.47","0","SATNPRO1509","27.39","0.38366","5"],
    [47454,"HCEP03730542","2025-02-03 15:15:00","9.9388","3.25251","25.015","4.958","7.63","1.43","4.265","0.13","0.41","29.4083","4.65458","52.94","0","SATNPRO1509","28.176000000000002","0.39464","5"],
    [47455,"HCEP03730542","2025-02-03 15:30:00","9.9569","3.25443","25.059","5.031","7.63","1.27","4.776","0.07","1.15","29.4127","4.65491","53.75","0","SATNPRO1509","28.372","0.39738","5"],
    [47456,"HCEP03730542","2025-02-03 15:45:00","10.0597","3.27616","25.131","4.686","7.59","1.145","6.813","0.31","4.24","29.5462","4.67226","50.2","0","SATNPRO1509","28.412","0.39796","5"],
    [47457,"HCEP03730542","2025-02-03 16:00:00","10.0619","3.27903","25.308","4.445","7.59","0.967","5.575","0.06","0.42","29.573","4.67605","47.64","0","SATNPRO1509","28.87","0.40432","5"],
    [47458,"HCEP03730542","2025-02-03 16:15:00","10.0908","3.28244","25.338","4.401","7.57","0.989","5.623","0.07","0.23","29.5834","4.67707","47.2","0","SATNPRO1509","28.68","0.40172","5"],
    [47459,"HCEP03730542","2025-02-03 16:30:00","10.0866","3.28194","25.42","4.308","7.57","1.006","5.706","0.08","0.63","29.5818","4.67692","46.2","0","SATNPRO1509","28.756","0.4028","5"],
    [47460,"HCEP03730542","2025-02-03 16:45:00","10.0349","3.26967","25.507","4.368","7.59","1.125","5.564","0.08","0.25","29.5014","4.6663","46.76","0","SATNPRO1509","28.456","0.3986","5"],
    [47461,"HCEP03730542","2025-02-03 17:00:00","10.0235","3.26953","25.66","4.591","7.59","1.27","6.853","0.1","0.27","29.5093","4.66763","49.14","0","SATNPRO1509","28.032","0.39262","5"],
    [47462,"HCEP03730542","2025-02-03 17:15:00","9.9564","3.25555","25.748","4.62","7.6","1.465","6.762","0.12","0.28","29.4242","4.65659","49.36","0","SATNPRO1509","27.688","0.38778","5"],
    [47463,"HCEP03730542","2025-02-03 17:30:00","9.8761","3.2365","25.849","4.909","7.64","1.897","5.818","0.15","0.28","29.2986","4.64","52.3","0","SATNPRO1509","27.976","0.39184","5"],
    [47464,"HCEP03730542","2025-02-03 17:45:00","9.8651","3.23204","25.983","5.323","7.65","2.065","5.202","0.13","0.6","29.2628","4.63507","56.69","0","SATNPRO1509","28.182","0.39472","5"],
    [47465,"HCEP03730542","2025-02-03 18:00:00","9.8489","3.22749","26.08","5.526","7.67","2.307","5.323","0.17","0.72","29.2303","4.6307","58.81","0","SATNPRO1509","28.366","0.39732","5"],
    [47466,"HCEP03730542","2025-02-03 18:15:00","9.8406","3.22541","26.205","5.659","7.67","2.426","4.746","0.19","0.45","29.2161","4.62881","60.21","0","SATNPRO1509","28.304","0.39646","5"],
    [47467,"HCEP03730542","2025-02-03 18:30:00","9.886","3.23345","26.302","5.678","7.67","2.105","4.269","0.18","0.79","29.2598","4.63431","60.5","0","SATNPRO1509","28.838","0.4039","5"],
    [47468,"HCEP03730542","2025-02-03 18:45:00","9.8987","3.23585","26.433","5.575","7.66","1.948","3.622","0.19","0.23","29.2736","4.63607","59.41","0","SATNPRO1509","28.7","0.402","5"],
    [47469,"HCEP03730542","2025-02-03 19:00:00","9.9029","3.2372","26.544","5.535","7.66","1.938","4.816","0.2","0.81","29.2835","4.63743","59","0","SATNPRO1509","28.708","0.40212","5"],
    [47470,"HCEP03730542","2025-02-03 19:15:00","9.9092","3.23828","26.636","5.516","7.66","1.96","3.8","0.17","0.36","29.2893","4.63815","58.81","0","SATNPRO1509","28.776","0.40308","5"],
    [47471,"HCEP03730542","2025-02-03 19:30:00","9.9102","3.23839","26.758","5.499","7.66","1.845","6.691","0.14","1.65","29.2896","4.63818","58.63","0","SATNPRO1509","28.477999999999998","0.39888","5"],
    [47472,"HCEP03730542","2025-02-03 19:45:00","9.9151","3.24052","26.842","5.43","7.65","1.609","8.031","0.2","1.67","29.3068","4.64057","57.92","0","SATNPRO1509","28.274","0.39604","5"],
    [47473,"HCEP03730542","2025-02-03 20:00:00","10.0094","3.26613","26.879","5.164","7.62","1.236","9.256","0.09","2.75","29.4863","4.66465","55.26","0","SATNPRO1509","28.326","0.39674","5"],
    [47474,"HCEP03730542","2025-02-03 20:15:00","10.0334","3.26837","26.927","4.729","7.6","1.159","6.894","0.11","0.37","29.4892","4.66466","50.62","0","SATNPRO1509","28.324","0.39674","5"],
    [47475,"HCEP03730542","2025-02-03 20:30:00","10.0408","3.2713","26.975","4.552","7.59","1.13","9.191","0.09","2.74","29.5123","4.66784","48.74","0","SATNPRO1509","28.412","0.39794","5"],
    [47476,"HCEP03730542","2025-02-03 20:45:00","10.0288","3.26725","27.022","4.573","7.6","1.135","7.276","0.13","1.16","29.4816","4.66365","48.94","0","SATNPRO1509","28.346","0.39704","5"],
    [47477,"HCEP03730542","2025-02-03 21:00:00","10.0033","3.25997","27.037","4.695","7.61","1.321","6.491","0.15","0.92","29.4297","4.65667","50.2","0","SATNPRO1509","28.248","0.39568","5"],
    [47478,"HCEP03730542","2025-02-03 21:15:00","9.9854","3.25905","26.981","4.848","7.61","1.084","6.472","0.11","0.78","29.4351","4.65774","51.82","0","SATNPRO1509","28.204","0.39502","5"],
    [47479,"HCEP03730542","2025-02-03 21:30:00","10.0577","3.27634","26.928","4.822","7.6","1.046","6.503","0.1","0.88","29.5489","4.67278","51.66","0","SATNPRO1509","28.702","0.402","5"],
    [47480,"HCEP03730542","2025-02-03 21:45:00","10.0592","3.27658","26.892","4.616","7.59","1.095","6.889","0.1","0.73","29.55","4.67291","49.46","0","SATNPRO1509","28.72","0.40226","5"],
    [47481,"HCEP03730542","2025-02-03 22:00:00","10.0607","3.27667","26.851","4.575","7.59","1.129","6.803","0.18","0.9","29.5498","4.67286","49.02","0","SATNPRO1509","28.79","0.40326","5"],
    [47482,"HCEP03730542","2025-02-03 22:15:00","10.0622","3.27702","26.777","4.557","7.59","1.031","6.811","0.1","1.08","29.5521","4.67315","48.83","0","SATNPRO1509","28.878","0.40446","5"],
    [47483,"HCEP03730542","2025-02-03 22:30:00","10.0653","3.27764","26.691","4.565","7.59","1.031","6.401","0.09","0.89","29.5558","4.67362","48.92","0","SATNPRO1509","28.884","0.40456","5"],
    [47484,"HCEP03730542","2025-02-03 22:45:00","10.0685","3.27869","26.646","4.555","7.59","1.036","6.048","0.09","0.2","29.5637","4.6747","48.82","0","SATNPRO1509","28.872","0.40442","5"],
    [47485,"HCEP03730542","2025-02-03 23:00:00","10.0782","3.28052","26.571","4.517","7.58","0.963","6.424","0.09","1.31","29.574","4.676","48.42","0","SATNPRO1509","28.966","0.40576","5"],
    [47486,"HCEP03730542","2025-02-03 23:15:00","10.0822","3.28135","26.502","4.429","7.58","0.909","6.254","0.07","0.22","29.5791","4.67666","47.49","0","SATNPRO1509","28.798000000000002","0.40336","5"],
    [47487,"HCEP03730542","2025-02-03 23:30:00","10.0793","3.28089","26.386","4.397","7.58","0.94","6.494","0.06","0.71","29.5769","4.67638","47.15","0","SATNPRO1509","28.814","0.4036","5"],
    [47488,"HCEP03730542","2025-02-03 23:45:00","10.0741","3.27986","26.317","4.412","7.58","0.975","5.626","0.12","0.22","29.5709","4.67561","47.3","0","SATNPRO1509","28.906","0.40488","5"],
    [47489,"HCEP03730542","2025-02-04 00:00:00","10.0679","3.27888","26.239","4.477","7.58","0.988","6.97","0.11","1.97","29.5662","4.67504","47.98","0","SATNPRO1509","28.946","0.40544","5"],
    [47490,"HCEP03730542","2025-02-04 00:15:00","10.0644","3.27834","26.167","4.529","7.58","0.961","8.829","0.09","3.16","29.5637","4.67474","48.54","0","SATNPRO1509","28.684","0.40176","5"],
    [47491,"HCEP03730542","2025-02-04 00:30:00","10.0628","3.27778","26.066","4.508","7.58","1.01","6.578","0.07","1.04","29.5595","4.67416","48.31","0","SATNPRO1509","28.584","0.40038","5"],
    [47492,"HCEP03730542","2025-02-04 00:45:00","10.058","3.27685","25.906","4.522","7.59","0.977","5.63","0.12","0.9","29.5542","4.67348","48.45","0","SATNPRO1509","28.826","0.40378","5"],
    [47493,"HCEP03730542","2025-02-04 01:00:00","10.0591","3.27722","25.764","4.574","7.59","1.042","5.483","0.1","0.35","29.557","4.67385","49.01","0","SATNPRO1509","28.772000000000002","0.403","5"],
    [47494,"HCEP03730542","2025-02-04 01:15:00","10.0607","3.27767","25.726","4.568","7.59","0.984","6.784","0.09","1.34","29.5602","4.67428","48.95","0","SATNPRO1509","28.714","0.40218","5"],
    [47495,"HCEP03730542","2025-02-04 01:30:00","10.0613","3.27787","25.652","4.534","7.58","1.052","5.866","0.17","0.33","29.5617","4.67448","48.58","0","SATNPRO1509","28.742","0.4026","5"],
    [47496,"HCEP03730542","2025-02-04 01:45:00","10.0574","3.27748","25.559","4.502","7.59","1.01","5.551","0.1","0.48","29.561","4.67444","48.24","0","SATNPRO1509","28.84","0.40396","5"],
    [47497,"HCEP03730542","2025-02-04 02:00:00","10.0546","3.27724","25.503","4.567","7.59","1.012","5.353","0.11","0.34","29.5609","4.67447","48.93","0","SATNPRO1509","28.864","0.40432","5"],
    [47498,"HCEP03730542","2025-02-04 02:15:00","10.0564","3.27731","25.484","4.571","7.59","1.005","6.141","0.1","0.79","29.5603","4.67435","48.98","0","SATNPRO1509","28.79","0.40326","5"],
    [47499,"HCEP03730542","2025-02-04 02:30:00","10.0564","3.27788","25.504","4.548","7.59","1.029","5.913","0.14","0.48","29.5659","4.67515","48.73","0","SATNPRO1509","28.726","0.40234","5"],
    [47500,"HCEP03730542","2025-02-04 02:45:00","10.057","3.2786","25.521","4.569","7.59","0.927","5.698","0.08","0.6","29.5725","4.67609","48.96","0","SATNPRO1509","28.884","0.40456","5"],
    [47501,"HCEP03730542","2025-02-04 03:00:00","10.0596","3.27941","25.568","4.584","7.59","0.928","5.49","0.09","0.19","29.5785","4.67691","49.13","0","SATNPRO1509","28.896","0.40474","5"],
    [47502,"HCEP03730542","2025-02-04 03:15:00","10.0606","3.27994","25.641","4.576","7.59","0.923","5.357","0.09","0.26","29.583","4.67752","49.05","0","SATNPRO1509","28.896","0.40474","5"],
    [47503,"HCEP03730542","2025-02-04 03:30:00","10.0622","3.28055","25.731","4.576","7.59","0.934","5.172","0.15","0.26","29.5878","4.67819","49.05","0","SATNPRO1509","29.028","0.4066","5"],
    [47504,"HCEP03730542","2025-02-04 03:45:00","10.0645","3.28115","25.825","4.576","7.59","0.932","4.88","0.14","0.21","29.5919","4.67874","49.05","0","SATNPRO1509","29.114","0.4078","5"],
    [47505,"HCEP03730542","2025-02-04 04:00:00","10.0664","3.28137","25.945","4.568","7.59","0.887","5.216","0.1","0.24","29.5924","4.67879","48.97","0","SATNPRO1509","29.078","0.40732","5"],
    [47506,"HCEP03730542","2025-02-04 04:15:00","10.0722","3.2824","26.049","4.537","7.58","0.882","5.489","0.1","0.36","29.5979","4.67948","48.64","0","SATNPRO1509","28.977999999999998","0.40586","5"],
    [47507,"HCEP03730542","2025-02-04 04:30:00","10.0761","3.28336","26.188","4.486","7.58","0.907","6.303","0.17","0.36","29.6042","4.68033","48.11","0","SATNPRO1509","28.888","0.4046","5"],
    [47508,"HCEP03730542","2025-02-04 04:45:00","10.0826","3.28448","26.333","4.44","7.58","0.815","5.477","0.07","0.23","29.6101","4.68107","47.61","0","SATNPRO1509","28.868","0.40436","5"],
    [47509,"HCEP03730542","2025-02-04 05:00:00","10.0873","3.28569","26.475","4.393","7.57","0.785","5.312","0.1","0.33","29.6183","4.68217","47.12","0","SATNPRO1509","28.926000000000002","0.40522","5"],
    [47510,"HCEP03730542","2025-02-04 05:15:00","10.0808","3.28508","26.623","4.402","7.58","0.794","4.498","0.09","0.27","29.6174","4.68216","47.21","0","SATNPRO1509","29.462","0.41268","5"],
    [47511,"HCEP03730542","2025-02-04 05:30:00","10.0793","3.28504","26.777","4.533","7.58","0.784","4.47","0.07","0.21","29.6181","4.68229","48.61","0","SATNPRO1509","29.486","0.41296","5"],
    [47512,"HCEP03730542","2025-02-04 05:45:00","10.082","3.28547","26.967","4.507","7.58","0.797","4.811","0.1","0.17","29.6202","4.68256","48.34","0","SATNPRO1509","29.308","0.4105","5"],
    [47513,"HCEP03730542","2025-02-04 06:00:00","10.0822","3.28547","27.158","4.472","7.58","0.812","4.926","0.1","0.31","29.62","4.68254","47.97","0","SATNPRO1509","29.236","0.4095","5"],
    [47514,"HCEP03730542","2025-02-04 06:15:00","10.0778","3.2848","27.315","4.494","7.58","0.774","4.955","0.1","0.3","29.6169","4.68217","48.19","0","SATNPRO1509","29.592000000000002","0.41448","5"],
    [47515,"HCEP03730542","2025-02-04 06:30:00","10.0755","3.28423","27.48","4.533","7.58","0.852","5.027","0.11","0.27","29.613","4.68166","48.61","0","SATNPRO1509","29.348","0.41106","5"],
    [47516,"HCEP03730542","2025-02-04 06:45:00","10.0705","3.28165","27.62","4.517","7.58","0.817","5.405","0.1","0.87","29.5912","4.67864","48.42","0","SATNPRO1509","29.052","0.40696","5"],
    [47517,"HCEP03730542","2025-02-04 07:00:00","10.0676","3.28145","27.733","4.54","7.58","0.863","5.76","0.07","0.23","29.5915","4.67875","48.67","0","SATNPRO1509","28.986","0.40602","5"],
    [47518,"HCEP03730542","2025-02-04 07:15:00","10.0594","3.27865","27.871","4.525","7.59","0.921","5.698","0.08","0.22","29.5702","4.67585","48.49","0","SATNPRO1509","29.158","0.4084","5"],
    [47519,"HCEP03730542","2025-02-04 07:30:00","10.0478","3.27739","27.977","4.624","7.59","0.951","4.755","0.11","0.74","29.567","4.6756","49.54","0","SATNPRO1509","29.3","0.41044","5"],
    [47520,"HCEP03730542","2025-02-04 07:45:00","10.0459","3.2769","28.045","4.744","7.6","1.229","37.812","0.26","24.36","29.5637","4.67515","50.82","0","SATNPRO1509","29.408","0.4119","5"],
    [47521,"HCEP03730542","2025-02-04 08:00:00","10.0434","3.27635","28.116","4.784","7.6","1.019","5.396","0.08","0.72","29.5601","4.67469","51.25","0","SATNPRO1509","29.532","0.41364","5"],
    [47522,"HCEP03730542","2025-02-04 08:15:00","10.0439","3.2757","28.175","4.815","7.6","1.033","5.393","0.08","1.52","29.5533","4.67371","51.58","0","SATNPRO1509","29.404","0.41184","5"],
    [47523,"HCEP03730542","2025-02-04 08:30:00","10.0417","3.2753","28.234","4.795","7.6","3.357","24.427","4.43","28.19","29.5511","4.67344","51.36","0","SATNPRO1509","29.426000000000002","0.41214","5"],
    [47524,"HCEP03730542","2025-02-04 08:45:00","10.0403","3.27469","28.229","4.813","7.6","1.032","5.11","0.08","0.19","29.5462","4.67276","51.54","0","SATNPRO1509","29.444","0.4124","5"],
    [47525,"HCEP03730542","2025-02-04 09:00:00","10.039","3.27433","28.228","4.816","7.6","1.089","5.673","0.13","0.3","29.5435","4.6724","51.58","0","SATNPRO1509","29.426","0.41214","5"],
    [47526,"HCEP03730542","2025-02-04 09:15:00","10.023","3.27136","28.206","4.854","7.61","1.182","12.366","0.19","13.71","29.527","4.67031","51.96","0","SATNPRO1509","29.62","0.4149","5"],
    [47527,"HCEP03730542","2025-02-04 09:30:00","10.0267","3.27204","28.124","4.942","7.61","1.107","4.899","0.11","0.29","29.5307","4.67077","52.91","0","SATNPRO1509","29.452","0.41256","5"],
    [47528,"HCEP03730542","2025-02-04 09:45:00","10.0172","3.27076","28.091","4.932","7.62","1.157","3.627","0.11","0.29","29.5257","4.67022","52.79","0","SATNPRO1509","29.626","0.41494","5"],
    [47529,"HCEP03730542","2025-02-04 10:00:00","10.0291","3.27225","27.999","4.954","7.61","1.096","5.958","0.14","0.36","29.5309","4.67076","53.04","0","SATNPRO1509","29.16","0.40846","5"],
    [47530,"HCEP03730542","2025-02-04 10:15:00","10.036","3.27492","27.817","4.839","7.6","1.086","7.143","0.13","0.48","29.5521","4.67366","51.83","0","SATNPRO1509","29.148","0.40828","5"],
    [47531,"HCEP03730542","2025-02-04 10:30:00","10.0441","3.27835","27.687","4.748","7.6","0.934","5.692","0.08","0.33","29.5798","4.67747","50.87","0","SATNPRO1509","29.264","0.40992","5"],
    [47532,"HCEP03730542","2025-02-04 10:45:00","10.0464","3.28182","27.553","4.726","7.6","0.889","6.137","0.13","0.42","29.6126","4.6821","50.65","0","SATNPRO1509","29.584","0.4144","5"],
    [47533,"HCEP03730542","2025-02-04 11:00:00","10.0336","3.28221","27.32","4.818","7.62","0.856","5.437","0.07","0.33","29.6271","4.68437","51.62","0","SATNPRO1509","29.758","0.41682","5"],
    [47534,"HCEP03730542","2025-02-04 11:15:00","10.0222","3.28233","27.214","4.968","7.63","0.802","4.747","0.09","0.23","29.6376","4.68606","53.22","0","SATNPRO1509","29.798","0.41738","5"],
    [47535,"HCEP03730542","2025-02-04 11:30:00","10.0254","3.2829","27.067","5.094","7.63","0.756","5.402","0.08","0.13","29.6408","4.68646","54.57","0","SATNPRO1509","29.746","0.41664","5"],
    [47536,"HCEP03730542","2025-02-04 11:45:00","10.0237","3.28298","26.844","5.102","7.63","0.734","5.633","0.06","0.16","29.6431","4.68679","54.66","0","SATNPRO1509","29.748","0.41666","5"],
    [47537,"HCEP03730542","2025-02-04 12:00:00","10.0174","3.28268","26.639","5.13","7.64","0.786","5.627","0.07","0.24","29.6453","4.68721","54.95","0","SATNPRO1509","29.756","0.41678","5"],
    [47538,"HCEP03730542","2025-02-04 12:15:00","10.0116","3.28229","26.438","5.204","7.64","0.788","5.047","0.09","0.99","29.6462","4.68743","55.74","0","SATNPRO1509","29.958000000000002","0.41962","5"],
    [47539,"HCEP03730542","2025-02-04 12:30:00","10.0162","3.28265","26.238","5.25","7.64","0.779","5.172","0.07","0.23","29.6461","4.68733","56.23","0","SATNPRO1509","29.830000000000002","0.41782","5"],
    [47540,"HCEP03730542","2025-02-04 12:45:00","10.0165","3.28273","26.053","5.218","7.64","0.759","4.717","0.06","0.15","29.6468","4.6874","55.89","0","SATNPRO1509","29.808","0.4175","5"],
    [47541,"HCEP03730542","2025-02-04 13:00:00","10.0151","3.28273","25.809","5.226","7.64","0.74","4.253","0.07","0.12","29.6481","4.6876","55.98","0","SATNPRO1509","29.806","0.4175","5"],
    [47542,"HCEP03730542","2025-02-04 13:15:00","10.022","3.28331","25.59","5.213","7.64","0.738","5.262","0.09","0.18","29.6483","4.6875","55.85","0","SATNPRO1509","29.822","0.4177","5"],
    [47543,"HCEP03730542","2025-02-04 13:30:00","10.022","3.28339","25.399","5.157","7.64","0.775","4.97","0.07","0.13","29.6491","4.68761","55.25","0","SATNPRO1509","29.764","0.4169","5"],
    [47544,"HCEP03730542","2025-02-04 13:45:00","10.0261","3.28364","25.219","5.145","7.63","0.73","4.85","0.05","0.12","29.6483","4.68742","55.13","0","SATNPRO1509","29.798000000000002","0.41736","5"],
    [47545,"HCEP03730542","2025-02-04 14:00:00","10.0352","3.28426","25.046","5.084","7.63","0.746","5.244","0.08","0.13","29.6472","4.68709","54.48","0","SATNPRO1509","29.76","0.41684","5"],
    [47546,"HCEP03730542","2025-02-04 14:15:00","10.0513","3.28553","24.903","4.944","7.61","0.729","5.189","0.06","0.22","29.6468","4.68675","53","0","SATNPRO1509","29.442","0.4124","5"],
    [47547,"HCEP03730542","2025-02-04 14:30:00","10.0627","3.28658","24.788","4.749","7.6","0.755","5.335","0.08","0.16","29.648","4.68673","50.92","0","SATNPRO1509","29.486","0.41296","5"],
    [47548,"HCEP03730542","2025-02-04 14:45:00","10.0665","3.2869","24.694","4.621","7.59","0.753","5.221","0.07","0.21","29.648","4.68666","49.55","0","SATNPRO1509","29.552","0.41392","5"],
    [47549,"HCEP03730542","2025-02-04 15:00:00","10.0573","3.28588","24.626","4.594","7.6","0.76","4.746","0.11","0.15","29.6454","4.68643","49.26","0","SATNPRO1509","29.582","0.41436","5"],
    [47550,"HCEP03730542","2025-02-04 15:15:00","10.0626","3.28642","24.594","4.667","7.6","0.739","4.578","0.11","0.13","29.6464","4.68649","50.05","0","SATNPRO1509","29.604","0.41468","5"],
    [47551,"HCEP03730542","2025-02-04 15:30:00","10.0629","3.28663","24.602","4.626","7.59","0.745","4.991","0.07","0.19","29.6484","4.68677","49.6","0","SATNPRO1509","29.396","0.41176","5"],
    [47552,"HCEP03730542","2025-02-04 15:45:00","10.0466","3.28548","24.601","4.644","7.6","0.732","5.244","0.06","0.14","29.6502","4.6873","49.78","0","SATNPRO1509","29.514","0.41336","5"],
    [47553,"HCEP03730542","2025-02-04 16:00:00","10.0516","3.28593","24.592","4.774","7.6","0.755","5.208","0.09","0.15","29.6506","4.68728","51.17","0","SATNPRO1509","29.535999999999998","0.41374","5"],
    [47554,"HCEP03730542","2025-02-04 16:15:00","10.0517","3.28608","24.615","4.748","7.6","0.717","5.223","0.08","0.17","29.652","4.68747","50.9","0","SATNPRO1509","29.541999999999998","0.4138","5"],
    [47555,"HCEP03730542","2025-02-04 16:30:00","10.0548","3.28645","24.677","4.743","7.6","0.715","5.019","0.07","0.22","29.6531","4.68758","50.85","0","SATNPRO1509","29.44","0.41236","5"],
    [47556,"HCEP03730542","2025-02-04 16:45:00","10.0566","3.28674","24.735","4.721","7.6","0.719","4.918","0.04","0.34","29.6545","4.68776","50.61","0","SATNPRO1509","29.599999999999998","0.41462","5"],
    [47557,"HCEP03730542","2025-02-04 17:00:00","10.0617","3.2874","24.805","4.693","7.6","0.713","4.583","0.08","0.12","29.6569","4.68801","50.33","0","SATNPRO1509","29.648","0.4153","5"],
    [47558,"HCEP03730542","2025-02-04 17:15:00","10.0661","3.28793","24.893","4.656","7.59","0.666","4.912","0.04","0.16","29.6586","4.68819","49.93","0","SATNPRO1509","29.556","0.41396","5"],
    [47559,"HCEP03730542","2025-02-04 17:30:00","10.0686","3.28836","24.968","4.616","7.59","0.662","4.788","0.05","0.21","29.6608","4.68846","49.5","0","SATNPRO1509","29.582","0.4144","5"],
    [47560,"HCEP03730542","2025-02-04 17:45:00","10.0717","3.28881","25.116","4.583","7.59","0.696","5.052","0.06","0.12","29.6627","4.68869","49.16","0","SATNPRO1509","29.536","0.4137","5"],
    [47561,"HCEP03730542","2025-02-04 18:00:00","10.0764","3.28897","25.248","4.55","7.59","0.644","4.019","0.04","0.12","29.6605","4.6883","48.81","0","SATNPRO1509","29.708","0.41612","5"],
    [47562,"HCEP03730542","2025-02-04 18:15:00","10.0695","3.28852","25.359","4.564","7.59","0.664","4.363","0.06","0.15","29.6615","4.68858","48.95","0","SATNPRO1509","29.736","0.41654","5"],
    [47563,"HCEP03730542","2025-02-04 18:30:00","10.0569","3.28609","25.466","4.647","7.6","0.687","3.456","0.07","0.2","29.6475","4.6868","49.82","0","SATNPRO1509","30.05","0.42094","5"],
    [47564,"HCEP03730542","2025-02-04 18:45:00","10.0528","3.28435","25.601","4.77","7.6","0.717","2.981","0.1","0.24","29.6334","4.68486","51.14","0","SATNPRO1509","29.866","0.41832","5"],
    [47565,"HCEP03730542","2025-02-04 19:00:00","10.0355","3.2822","25.732","4.8","7.61","0.797","3.016","0.08","0.18","29.6261","4.68411","51.43","0","SATNPRO1509","29.752","0.41672","5"],
    [47566,"HCEP03730542","2025-02-04 19:15:00","10.0449","3.28274","25.852","4.897","7.61","0.758","3.866","0.07","0.42","29.6237","4.68362","52.48","0","SATNPRO1509","29.652","0.41532","5"],
    [47567,"HCEP03730542","2025-02-04 19:30:00","10.0443","3.2818","25.994","4.845","7.61","0.795","3.684","0.09","0.33","29.6148","4.68236","51.92","0","SATNPRO1509","29.624000000000002","0.41492","5"],
    [47568,"HCEP03730542","2025-02-04 19:45:00","10.0467","3.28198","26.138","4.833","7.61","0.842","3.641","0.17","0.31","29.6145","4.68229","51.79","0","SATNPRO1509","29.56","0.41404","5"],
    [47569,"HCEP03730542","2025-02-04 20:00:00","10.054","3.28496","26.3","4.797","7.6","0.755","4.686","0.07","0.39","29.6383","4.68558","51.42","0","SATNPRO1509","29.594","0.41448","5"],
    [47570,"HCEP03730542","2025-02-04 20:15:00","10.0573","3.2866","26.453","4.746","7.6","0.786","4.655","0.16","0.28","29.652","4.68748","50.89","0","SATNPRO1509","29.466","0.4127","5"],
    [47571,"HCEP03730542","2025-02-04 20:30:00","10.0572","3.28657","26.568","4.722","7.6","0.784","4.535","0.13","0.27","29.6516","4.68744","50.62","0","SATNPRO1509","29.428","0.41216","5"],
    [47572,"HCEP03730542","2025-02-04 20:45:00","10.057","3.28655","26.668","4.705","7.6","0.783","4.568","0.13","0.26","29.6515","4.68744","50.45","0","SATNPRO1509","29.564","0.41404","5"],
    [47573,"HCEP03730542","2025-02-04 21:00:00","10.0573","3.28659","26.754","4.694","7.6","0.789","5.106","0.11","0.41","29.6517","4.68745","50.33","0","SATNPRO1509","29.444","0.4124","5"],
    [47574,"HCEP03730542","2025-02-04 21:15:00","10.0602","3.28681","26.837","4.694","7.6","0.785","4.283","0.16","0.24","29.6515","4.68738","50.33","0","SATNPRO1509","29.464","0.41272","5"],
    [47575,"HCEP03730542","2025-02-04 21:30:00","10.0604","3.28683","26.896","4.668","7.6","0.843","4.927","0.12","0.25","29.6515","4.68738","50.05","0","SATNPRO1509","29.312","0.41058","5"],
    [47576,"HCEP03730542","2025-02-04 21:45:00","10.0578","3.28629","26.943","4.646","7.6","0.842","4.976","0.15","0.43","29.6482","4.68696","49.81","0","SATNPRO1509","29.398","0.41178","5"],
    [47577,"HCEP03730542","2025-02-04 22:00:00","10.0552","3.28573","26.99","4.665","7.6","0.846","4.72","0.18","0.31","29.6447","4.6865","50.01","0","SATNPRO1509","29.68","0.41572","5"],
    [47578,"HCEP03730542","2025-02-04 22:15:00","10.0547","3.2853","26.999","4.692","7.6","0.953","22.212","0.29","26.55","29.6408","4.68596","50.29","0","SATNPRO1509","29.552","0.41394","5"],
    [47579,"HCEP03730542","2025-02-04 22:30:00","10.0578","3.28573","26.994","4.679","7.59","0.817","5.633","0.16","0.34","29.6426","4.68616","50.16","0","SATNPRO1509","29.518","0.4134","5"],
    [47580,"HCEP03730542","2025-02-04 22:45:00","10.0583","3.28607","26.989","4.641","7.59","0.743","5.29","0.09","0.22","29.6456","4.68658","49.75","0","SATNPRO1509","29.334","0.4109","5"],
    [47581,"HCEP03730542","2025-02-04 23:00:00","10.0574","3.28628","26.972","4.617","7.59","0.833","5.624","0.15","0.35","29.6484","4.68699","49.5","0","SATNPRO1509","29.33","0.4108","5"],
    [47582,"HCEP03730542","2025-02-04 23:15:00","10.0547","3.28628","26.959","4.608","7.59","1.099","11.189","0.44","7.2","29.6506","4.68735","49.41","0","SATNPRO1509","29.16","0.40846","5"],
    [47583,"HCEP03730542","2025-02-04 23:30:00","10.0517","3.28605","26.959","4.628","7.6","0.781","5.703","0.09","0.32","29.6508","4.68743","49.61","0","SATNPRO1509","29.094","0.4075","5"],
    [47584,"HCEP03730542","2025-02-04 23:45:00","10.0492","3.28602","26.895","4.664","7.6","0.815","5.872","0.2","0.4","29.6526","4.68772","50","0","SATNPRO1509","29.136","0.40806","5"],
    [47585,"HCEP03730542","2025-02-05 00:00:00","10.0488","3.2857","26.863","4.672","7.6","0.772","5.882","0.09","0.3","29.6497","4.68732","50.08","0","SATNPRO1509","29.074","0.40724","5"],
    [47586,"HCEP03730542","2025-02-05 00:15:00","10.0523","3.2854","26.843","4.652","7.59","0.77","6.141","0.09","0.24","29.6439","4.68644","49.87","0","SATNPRO1509","29.02","0.40644","5"],
    [47587,"HCEP03730542","2025-02-05 00:30:00","10.0516","3.28511","26.806","4.592","7.59","0.773","6.346","0.1","0.42","29.6416","4.68611","49.22","0","SATNPRO1509","29.128","0.40798","5"],
    [47588,"HCEP03730542","2025-02-05 00:45:00","10.0435","3.28442","26.744","4.605","7.6","0.807","6.313","0.11","0.49","29.6412","4.68619","49.36","0","SATNPRO1509","29.248","0.40968","5"],
    [47589,"HCEP03730542","2025-02-05 01:00:00","10.0325","3.28331","26.727","4.704","7.6","0.814","5.955","0.1","0.35","29.6392","4.68609","50.4","0","SATNPRO1509","29.07","0.40714","5"],
    [47590,"HCEP03730542","2025-02-05 01:15:00","10.027","3.2827","26.682","4.815","7.61","0.834","6.071","0.1","0.33","29.6377","4.68596","51.59","0","SATNPRO1509","29.32","0.4107","5"],
    [47591,"HCEP03730542","2025-02-05 01:30:00","10.0242","3.28214","26.631","4.867","7.61","0.851","6.573","0.14","0.42","29.6344","4.68553","52.14","0","SATNPRO1509","29.168","0.40858","5"],
    [47592,"HCEP03730542","2025-02-05 01:45:00","10.0252","3.28197","26.527","4.865","7.61","0.84","6.452","0.09","0.41","29.6319","4.68515","52.11","0","SATNPRO1509","29.186","0.4088","5"],
    [47593,"HCEP03730542","2025-02-05 02:00:00","10.0272","3.2813","26.497","4.827","7.61","0.863","6.276","0.14","0.45","29.6235","4.68392","51.71","0","SATNPRO1509","29.2","0.40898","5"],
    [47594,"HCEP03730542","2025-02-05 02:15:00","10.0287","3.28092","26.403","4.766","7.6","0.823","5.66","0.11","0.34","29.6185","4.68318","51.06","0","SATNPRO1509","29.134","0.40804","5"],
    [47595,"HCEP03730542","2025-02-05 02:30:00","10.0298","3.2807","26.347","4.711","7.6","0.841","5.563","0.12","0.45","29.6155","4.68273","50.47","0","SATNPRO1509","28.924","0.4051","5"],
    [47596,"HCEP03730542","2025-02-05 02:45:00","10.0286","3.28026","26.281","4.696","7.6","0.859","5.349","0.11","0.42","29.612","4.68225","50.3","0","SATNPRO1509","29.156","0.40838","5"],
    [47597,"HCEP03730542","2025-02-05 03:00:00","10.0276","3.28014","26.261","4.716","7.6","0.841","5.348","0.1","0.31","29.6117","4.68222","50.52","0","SATNPRO1509","29.238","0.4095","5"],
    [47598,"HCEP03730542","2025-02-05 03:15:00","10.0266","3.27999","26.251","4.748","7.6","0.853","5.01","0.11","0.3","29.6111","4.68215","50.86","0","SATNPRO1509","29.34","0.41098","5"],
    [47599,"HCEP03730542","2025-02-05 03:30:00","10.0239","3.27992","26.266","4.781","7.61","0.871","4.866","0.12","0.21","29.6125","4.6824","51.21","0","SATNPRO1509","29.242","0.4096","5"],
    [47600,"HCEP03730542","2025-02-05 03:45:00","10.0202","3.27964","26.285","4.823","7.61","0.889","5.419","0.16","1.53","29.6128","4.68249","51.65","0","SATNPRO1509","29.528","0.41356","5"],
    [47601,"HCEP03730542","2025-02-05 04:00:00","10.0171","3.27963","26.324","4.871","7.61","0.862","5.427","0.11","0.52","29.6152","4.68289","52.16","0","SATNPRO1509","29.37","0.4114","5"],
    [47602,"HCEP03730542","2025-02-05 04:15:00","10.0126","3.27877","26.39","4.905","7.62","0.832","4.819","0.1","0.25","29.6103","4.68227","52.52","0","SATNPRO1509","29.478","0.4129","5"],
    [47603,"HCEP03730542","2025-02-05 04:30:00","10.0079","3.27864","26.433","4.966","7.62","0.865","4.962","0.08","0.37","29.6128","4.68271","53.17","0","SATNPRO1509","29.44","0.41236","5"],
    [47604,"HCEP03730542","2025-02-05 04:45:00","10.0037","3.27829","26.501","4.995","7.62","0.813","4.751","0.08","0.25","29.6127","4.68277","53.48","0","SATNPRO1509","29.432","0.41222","5"],
    [47605,"HCEP03730542","2025-02-05 05:00:00","9.9974","3.27771","26.594","5.051","7.63","0.868","4.823","0.15","0.23","29.612","4.68279","54.07","0","SATNPRO1509","29.526","0.41356","5"],
    [47606,"HCEP03730542","2025-02-05 05:15:00","9.9929","3.27744","26.649","5.122","7.63","0.828","5.226","0.1","0.3","29.6129","4.683","54.82","0","SATNPRO1509","29.584","0.4144","5"],
    [47607,"HCEP03730542","2025-02-05 05:30:00","9.9653","3.27472","26.731","5.227","7.65","0.806","4.192","0.08","0.25","29.6084","4.68282","55.91","0","SATNPRO1509","29.785999999999998","0.4172","5"],
    [47608,"HCEP03730542","2025-02-05 05:45:00","9.9653","3.27476","26.819","5.39","7.65","0.809","3.519","0.11","0.22","29.6087","4.68287","57.66","0","SATNPRO1509","29.688","0.41582","5"],
    [47609,"HCEP03730542","2025-02-05 06:00:00","9.9643","3.27528","26.902","5.463","7.65","0.844","4.176","0.17","0.29","29.6147","4.68375","58.44","0","SATNPRO1509","30.03","0.42062","5"],
    [47610,"HCEP03730542","2025-02-05 06:15:00","9.9582","3.27491","27.022","5.463","7.66","0.841","3.868","0.12","0.26","29.6159","4.68403","58.43","0","SATNPRO1509","29.8","0.41738","5"],
    [47611,"HCEP03730542","2025-02-05 06:30:00","9.9503","3.27391","27.123","5.52","7.66","0.91","4.089","0.15","0.38","29.6124","4.68367","59.03","0","SATNPRO1509","29.886","0.41862","5"],
    [47612,"HCEP03730542","2025-02-05 06:45:00","9.9415","3.27275","27.239","5.6","7.67","0.896","3.974","0.12","0.29","29.6078","4.68318","59.87","0","SATNPRO1509","29.862","0.41826","5"],
    [47613,"HCEP03730542","2025-02-05 07:00:00","9.9404","3.27248","27.366","5.664","7.67","0.875","4.188","0.13","0.24","29.606","4.68294","60.56","0","SATNPRO1509","29.882","0.41856","5"],
    [47614,"HCEP03730542","2025-02-05 07:15:00","9.9472","3.27302","27.474","5.656","7.67","0.835","4.014","0.1","0.37","29.6058","4.68281","60.48","0","SATNPRO1509","29.944","0.41944","5"],
    [47615,"HCEP03730542","2025-02-05 07:30:00","9.9601","3.27437","27.587","5.59","7.66","0.829","4.635","0.12","0.27","29.6087","4.68301","59.79","0","SATNPRO1509","29.72","0.41628","5"],
    [47616,"HCEP03730542","2025-02-05 07:45:00","9.9668","3.27534","27.682","5.527","7.66","0.851","4.183","0.14","0.53","29.6129","4.68349","59.12","0","SATNPRO1509","29.666","0.41548","5"],
    [47617,"HCEP03730542","2025-02-05 08:00:00","9.9669","3.27555","27.741","5.494","7.66","0.822","4.53","0.09","0.38","29.615","4.68379","58.77","0","SATNPRO1509","29.824","0.41768","5"],
    [47618,"HCEP03730542","2025-02-05 08:15:00","9.9656","3.27584","27.808","5.484","7.66","0.785","5.25","0.05","1.65","29.6188","4.68437","58.66","0","SATNPRO1509","29.75","0.41668","5"],
    [47619,"HCEP03730542","2025-02-05 08:30:00","9.9568","3.27534","27.857","5.515","7.67","0.797","4.099","0.11","0.25","29.621","4.68484","58.98","0","SATNPRO1509","29.791999999999998","0.41728","5"],
    [47620,"HCEP03730542","2025-02-05 08:45:00","9.9622","3.27594","27.908","5.558","7.67","0.844","4.547","0.13","0.26","29.6226","4.68497","59.46","0","SATNPRO1509","29.818","0.41762","5"],
    [47621,"HCEP03730542","2025-02-05 09:00:00","9.9614","3.27594","27.939","5.536","7.67","0.855","4.672","0.13","0.41","29.6233","4.68509","59.22","0","SATNPRO1509","29.688000000000002","0.41584","5"],
    [47622,"HCEP03730542","2025-02-05 09:15:00","9.962","3.27591","27.952","5.54","7.67","0.785","4.896","0.1","0.37","29.6224","4.68495","59.26","0","SATNPRO1509","29.79","0.41724","5"],
    [47623,"HCEP03730542","2025-02-05 09:30:00","9.9603","3.2757","27.959","5.535","7.67","0.826","4.537","0.09","0.25","29.6217","4.68489","59.21","0","SATNPRO1509","29.75","0.4167","5"],
    [47624,"HCEP03730542","2025-02-05 09:45:00","9.9601","3.27555","27.953","5.544","7.67","0.847","4.322","0.14","0.36","29.6204","4.68469","59.3","0","SATNPRO1509","29.814","0.4176","5"],
    [47625,"HCEP03730542","2025-02-05 10:00:00","9.9601","3.27542","27.972","5.557","7.67","0.922","4.919","0.1","0.79","29.6192","4.68452","59.44","0","SATNPRO1509","29.834","0.41788","5"],
    [47626,"HCEP03730542","2025-02-05 10:15:00","9.9613","3.27541","27.922","5.553","7.67","0.893","4.495","0.19","0.33","29.618","4.68434","59.4","0","SATNPRO1509","29.774","0.41702","5"],
    [47627,"HCEP03730542","2025-02-05 10:30:00","9.9619","3.27537","27.862","5.541","7.67","0.845","4.297","0.09","0.4","29.6172","4.6842","59.27","0","SATNPRO1509","29.752","0.41674","5"],
    [47628,"HCEP03730542","2025-02-05 10:45:00","9.9617","3.27535","27.823","5.535","7.67","0.819","4.428","0.1","1","29.6171","4.6842","59.21","0","SATNPRO1509","29.778","0.41706","5"],
    [47629,"HCEP03730542","2025-02-05 11:00:00","9.9604","3.27535","27.714","5.542","7.67","0.819","4.191","0.09","0.29","29.6182","4.68437","59.28","0","SATNPRO1509","29.906","0.41886","5"],
    [47630,"HCEP03730542","2025-02-05 11:15:00","9.9604","3.27532","27.594","5.547","7.67","0.798","3.968","0.09","0.27","29.6179","4.68432","59.33","0","SATNPRO1509","29.86","0.4182","5"],
    [47631,"HCEP03730542","2025-02-05 11:30:00","9.9602","3.27535","27.463","5.548","7.67","0.876","3.969","0.22","0.28","29.6185","4.6844","59.35","0","SATNPRO1509","29.828","0.41778","5"],
    [47632,"HCEP03730542","2025-02-05 11:45:00","9.9617","3.27525","27.341","5.549","7.67","0.795","3.738","0.11","0.29","29.6163","4.68406","59.36","0","SATNPRO1509","29.91","0.41894","5"],
    [47633,"HCEP03730542","2025-02-05 12:00:00","9.9602","3.27519","27.159","5.548","7.67","0.822","3.893","0.11","0.25","29.617","4.68416","59.35","0","SATNPRO1509","29.896","0.41872","5"],
    [47634,"HCEP03730542","2025-02-05 12:15:00","9.9595","3.27527","26.98","5.55","7.67","0.813","3.626","0.1","0.21","29.6185","4.68439","59.36","0","SATNPRO1509","29.752","0.41672","5"],
    [47635,"HCEP03730542","2025-02-05 12:30:00","9.9599","3.27543","26.81","5.545","7.67","0.811","4.183","0.11","0.3","29.6198","4.68455","59.31","0","SATNPRO1509","29.82","0.41768","5"],
    [47636,"HCEP03730542","2025-02-05 12:45:00","9.9604","3.27556","26.593","5.533","7.66","0.856","4.696","0.1","1.22","29.6208","4.68467","59.18","0","SATNPRO1509","29.74","0.41656","5"],
    [47637,"HCEP03730542","2025-02-05 13:00:00","9.9613","3.27554","26.396","5.521","7.66","0.828","4.535","0.11","0.38","29.6199","4.68452","59.06","0","SATNPRO1509","29.778","0.41708","5"],
    [47638,"HCEP03730542","2025-02-05 13:15:00","9.9633","3.27573","26.173","5.513","7.66","0.817","4.327","0.14","0.27","29.6203","4.68453","58.97","0","SATNPRO1509","29.906","0.41888","5"],
    [47639,"HCEP03730542","2025-02-05 13:30:00","9.9643","3.27543","25.99","5.495","7.66","0.815","4.441","0.09","0.22","29.6165","4.68396","58.78","0","SATNPRO1509","29.822","0.41764","5"],
    [47640,"HCEP03730542","2025-02-05 13:45:00","9.9647","3.27511","25.766","5.496","7.66","0.776","3.719","0.06","0.18","29.613","4.68344","58.79","0","SATNPRO1509","29.842","0.41804","5"],
    [47641,"HCEP03730542","2025-02-05 14:00:00","9.9656","3.27486","25.545","5.484","7.66","0.804","3.877","0.09","0.24","29.6099","4.68297","58.66","0","SATNPRO1509","29.888","0.41864","5"],
    [47642,"HCEP03730542","2025-02-05 14:15:00","9.9634","3.27445","25.347","5.483","7.66","0.813","3.851","0.15","0.31","29.6077","4.68268","58.65","0","SATNPRO1509","29.958000000000002","0.41958","5"],
    [47643,"HCEP03730542","2025-02-05 14:30:00","9.9644","3.27504","25.138","5.482","7.66","0.856","4.105","0.17","0.26","29.6128","4.68338","58.64","0","SATNPRO1509","29.68","0.41568","5"],
    [47644,"HCEP03730542","2025-02-05 14:45:00","9.9643","3.2748","24.946","5.46","7.66","0.909","4.143","0.2","0.29","29.6107","4.68307","58.4","0","SATNPRO1509","29.884","0.41854","5"],
    [47645,"HCEP03730542","2025-02-05 15:00:00","9.9633","3.27502","24.773","5.448","7.66","0.895","4.872","0.23","0.32","29.6138","4.68352","58.27","0","SATNPRO1509","29.726","0.4164","5"],
    [47646,"HCEP03730542","2025-02-05 15:15:00","9.9626","3.27573","24.629","5.443","7.66","0.816","5.549","0.09","0.55","29.6215","4.68462","58.23","0","SATNPRO1509","29.412","0.41194","5"],
    [47647,"HCEP03730542","2025-02-05 15:30:00","9.9641","3.27615","24.567","5.426","7.66","0.881","5.7","0.15","0.48","29.6245","4.68502","58.04","0","SATNPRO1509","29.374","0.4114","5"],
    [47648,"HCEP03730542","2025-02-05 15:45:00","9.9691","3.27739","24.472","5.404","7.65","0.797","5.621","0.13","0.75","29.6328","4.68611","57.82","0","SATNPRO1509","29.54","0.41376","5"],
    [47649,"HCEP03730542","2025-02-05 16:00:00","9.9732","3.27825","24.381","5.389","7.65","0.767","5.678","0.07","0.47","29.6382","4.68681","57.67","0","SATNPRO1509","29.508","0.4133","5"],
    [47650,"HCEP03730542","2025-02-05 16:15:00","9.9757","3.27888","24.378","5.366","7.65","0.851","23.132","0.22","29.78","29.6424","4.68737","57.42","0","SATNPRO1509","29.552","0.4139","5"],
    [47651,"HCEP03730542","2025-02-05 16:30:00","9.976","3.27926","24.382","5.36","7.65","0.733","5.164","0.07","0.21","29.646","4.68788","57.36","0","SATNPRO1509","29.642","0.41518","5"],
    [47652,"HCEP03730542","2025-02-05 16:45:00","9.9757","3.27948","24.388","5.382","7.65","0.745","5.168","0.08","0.23","29.6483","4.68822","57.6","0","SATNPRO1509","29.526","0.4136","5"],
    [47653,"HCEP03730542","2025-02-05 17:00:00","9.9763","3.27956","24.387","5.401","7.65","0.708","5.072","0.07","1.22","29.6488","4.68827","57.8","0","SATNPRO1509","29.582","0.41436","5"],
    [47654,"HCEP03730542","2025-02-05 17:15:00","9.9769","3.27954","24.408","5.403","7.65","0.663","4.596","0.07","0.3","29.648","4.68815","57.83","0","SATNPRO1509","29.462","0.41268","5"],
    [47655,"HCEP03730542","2025-02-05 17:30:00","9.9773","3.27946","24.429","5.4","7.65","0.732","4.955","0.13","0.54","29.6468","4.68798","57.79","0","SATNPRO1509","29.604","0.41466","5"],
    [47656,"HCEP03730542","2025-02-05 17:45:00","9.9776","3.27953","24.481","5.4","7.65","0.681","4.327","0.07","0.29","29.6473","4.68804","57.79","0","SATNPRO1509","29.612000000000002","0.41476","5"],
    [47657,"HCEP03730542","2025-02-05 18:00:00","9.9805","3.27955","24.597","5.384","7.65","0.716","4.672","0.12","0.36","29.6451","4.68769","57.62","0","SATNPRO1509","29.532","0.41364","5"],
    [47658,"HCEP03730542","2025-02-05 18:15:00","9.9794","3.27948","24.65","5.342","7.65","0.686","4.36","0.06","0.37","29.6453","4.68773","57.18","0","SATNPRO1509","29.63","0.415","5"],
    [47659,"HCEP03730542","2025-02-05 18:30:00","9.9812","3.27959","24.757","5.355","7.65","0.698","4.801","0.1","0.5","29.6448","4.68764","57.31","0","SATNPRO1509","29.548","0.41382","5"],
    [47660,"HCEP03730542","2025-02-05 18:45:00","9.9857","3.27969","24.885","5.305","7.64","0.702","4.616","0.07","0.32","29.642","4.68718","56.78","0","SATNPRO1509","29.456","0.4126","5"],
    [47661,"HCEP03730542","2025-02-05 19:00:00","9.994","3.27984","25.006","5.206","7.63","0.686","4.677","0.06","0.36","29.6368","4.68629","55.73","0","SATNPRO1509","29.376","0.41146","5"],
    [47662,"HCEP03730542","2025-02-05 19:15:00","9.9862","3.27976","25.119","5.196","7.64","0.679","4.685","0.06","0.25","29.6423","4.68721","55.62","0","SATNPRO1509","29.468","0.41274","5"],
    [47663,"HCEP03730542","2025-02-05 19:30:00","9.9857","3.28005","25.271","5.222","7.64","0.704","5.462","0.08","0.59","29.6455","4.68769","55.89","0","SATNPRO1509","29.43","0.41222","5"],
    [47664,"HCEP03730542","2025-02-05 19:45:00","9.9867","3.28018","25.397","5.239","7.64","0.665","5.112","0.06","0.41","29.6459","4.68774","56.08","0","SATNPRO1509","29.424","0.41216","5"],
    [47665,"HCEP03730542","2025-02-05 20:00:00","9.9866","3.2803","25.536","5.234","7.64","0.659","4.921","0.05","0.19","29.6472","4.68794","56.03","0","SATNPRO1509","29.416","0.41202","5"],
    [47666,"HCEP03730542","2025-02-05 20:15:00","9.9861","3.28035","25.708","5.232","7.64","0.649","4.94","0.07","0.16","29.6481","4.68808","56.01","0","SATNPRO1509","29.344","0.411","5"],
    [47667,"HCEP03730542","2025-02-05 20:30:00","9.9867","3.28077","25.836","5.24","7.64","0.629","5.095","0.05","0.13","29.6518","4.68861","56.09","0","SATNPRO1509","29.418","0.41202","5"],
    [47668,"HCEP03730542","2025-02-05 20:45:00","9.9863","3.28057","26.038","5.242","7.64","0.638","4.873","0.09","0.14","29.65","4.68837","56.12","0","SATNPRO1509","29.364","0.41128","5"],
    [47669,"HCEP03730542","2025-02-05 21:00:00","9.988","3.28089","26.205","5.229","7.64","0.626","4.781","0.04","0.14","29.6517","4.6886","55.98","0","SATNPRO1509","29.33","0.41082","5"],
    [47670,"HCEP03730542","2025-02-05 21:15:00","9.9933","3.2818","26.347","5.198","7.64","0.635","4.844","0.06","0.1","29.6564","4.68918","55.65","0","SATNPRO1509","29.314","0.4106","5"],
    [47671,"HCEP03730542","2025-02-05 21:30:00","9.9944","3.2818","26.458","5.173","7.64","0.586","4.62","0.04","0.11","29.6554","4.68903","55.38","0","SATNPRO1509","29.33","0.41082","5"],
    [47672,"HCEP03730542","2025-02-05 21:45:00","9.9971","3.28198","26.583","5.162","7.63","0.605","4.669","0.04","0.18","29.655","4.68894","55.27","0","SATNPRO1509","29.422","0.4121","5"],
    [47673,"HCEP03730542","2025-02-05 22:00:00","9.9984","3.282","26.697","5.141","7.63","0.636","4.615","0.07","0.23","29.6541","4.68879","55.05","0","SATNPRO1509","29.406","0.41188","5"],
    [47674,"HCEP03730542","2025-02-05 22:15:00","10.001","3.28223","26.812","5.122","7.63","0.614","4.523","0.05","0.15","29.6542","4.68876","54.85","0","SATNPRO1509","29.296","0.41032","5"],
    [47675,"HCEP03730542","2025-02-05 22:30:00","10.0033","3.28223","26.888","5.094","7.63","0.621","4.172","0.04","0.09","29.6523","4.68846","54.55","0","SATNPRO1509","29.442","0.41244","5"],
    [47676,"HCEP03730542","2025-02-05 22:45:00","10.0096","3.28291","26.944","5.06","7.62","0.621","4.391","0.05","0.1","29.6538","4.68858","54.2","0","SATNPRO1509","29.292","0.41026","5"],
    [47677,"HCEP03730542","2025-02-05 23:00:00","10.0132","3.28318","26.995","4.99","7.62","0.649","4.378","0.08","0.11","29.6537","4.6885","53.45","0","SATNPRO1509","29.236","0.4095","5"],
    [47678,"HCEP03730542","2025-02-05 23:15:00","10.0202","3.28388","27.088","4.943","7.61","0.622","4.47","0.06","0.12","29.6549","4.68856","52.95","0","SATNPRO1509","29.226","0.40934","5"],
    [47679,"HCEP03730542","2025-02-05 23:30:00","10.0242","3.28421","27.048","4.868","7.61","0.619","4.632","0.04","0.12","29.6549","4.68848","52.16","0","SATNPRO1509","29.198","0.40898","5"],
    [47680,"HCEP03730542","2025-02-05 23:45:00","10.0278","3.28447","27.154","4.814","7.61","0.598","4.419","0.08","0.13","29.6545","4.68838","51.58","0","SATNPRO1509","29.086","0.40736","5"],
    [47681,"HCEP03730542","2025-02-06 00:00:00","10.03","3.28454","27.116","4.778","7.6","0.61","4.326","0.06","0.1","29.6534","4.68819","51.2","0","SATNPRO1509","29.208","0.4091","5"],
    [47682,"HCEP03730542","2025-02-06 00:15:00","10.032","3.28468","27.185","4.751","7.6","0.645","4.395","0.08","0.11","29.6532","4.68812","50.91","0","SATNPRO1509","29.098","0.40758","5"],
    [47683,"HCEP03730542","2025-02-06 00:30:00","10.0333","3.28466","27.177","4.729","7.6","0.614","4.377","0.05","0.12","29.6518","4.6879","50.67","0","SATNPRO1509","29.192","0.4089","5"],
    [47684,"HCEP03730542","2025-02-06 00:45:00","10.034","3.28473","27.152","4.707","7.6","0.616","4.68","0.06","0.11","29.652","4.68791","50.44","0","SATNPRO1509","29.226","0.40938","5"],
    [47685,"HCEP03730542","2025-02-06 01:00:00","10.0354","3.28472","27.132","4.691","7.6","0.656","5.043","0.07","0.44","29.6509","4.68773","50.27","0","SATNPRO1509","29.246","0.40966","5"],
    [47686,"HCEP03730542","2025-02-06 01:15:00","10.0369","3.28459","27.181","4.671","7.6","0.615","4.224","0.05","0.15","29.6482","4.68733","50.06","0","SATNPRO1509","29.294","0.41028","5"],
    [47687,"HCEP03730542","2025-02-06 01:30:00","10.0384","3.28444","27.167","4.66","7.59","0.637","4.135","0.07","0.2","29.6455","4.68692","49.94","0","SATNPRO1509","29.274","0.41006","5"],
    [47688,"HCEP03730542","2025-02-06 01:45:00","10.0405","3.28438","27.11","4.634","7.59","0.62","4.366","0.06","0.3","29.6432","4.68655","49.66","0","SATNPRO1509","29.208000000000002","0.40908","5"],
    [47689,"HCEP03730542","2025-02-06 02:00:00","10.0406","3.2844","27.138","4.614","7.59","0.602","4.332","0.06","0.11","29.6433","4.68656","49.45","0","SATNPRO1509","29.23","0.40944","5"],
    [47690,"HCEP03730542","2025-02-06 02:15:00","10.0422","3.28407","27.099","4.597","7.59","0.589","4.056","0.04","0.08","29.6387","4.68588","49.26","0","SATNPRO1509","29.368","0.41136","5"],
    [47691,"HCEP03730542","2025-02-06 02:30:00","10.0434","3.28388","27.026","4.585","7.59","0.683","4.992","0.06","0.52","29.6359","4.68545","49.14","0","SATNPRO1509","29.4","0.41182","5"],
    [47692,"HCEP03730542","2025-02-06 02:45:00","10.0466","3.28345","26.996","4.565","7.59","0.669","3.699","0.07","0.14","29.629","4.68441","48.92","0","SATNPRO1509","29.472","0.41282","5"],
    [47693,"HCEP03730542","2025-02-06 03:00:00","10.0463","3.28361","26.977","4.544","7.58","0.699","4.598","0.09","0.38","29.6308","4.68468","48.7","0","SATNPRO1509","29.362","0.41128","5"],
    [47694,"HCEP03730542","2025-02-06 03:15:00","10.0499","3.28296","26.985","4.518","7.58","0.64","3.918","0.05","0.19","29.6214","4.68326","48.42","0","SATNPRO1509","29.468","0.41274","5"],
    [47695,"HCEP03730542","2025-02-06 03:30:00","10.0485","3.28285","26.937","4.502","7.58","0.643","3.792","0.06","0.16","29.6215","4.6833","48.24","0","SATNPRO1509","29.46","0.41262","5"],
    [47696,"HCEP03730542","2025-02-06 03:45:00","10.0498","3.28243","26.881","4.498","7.58","0.661","3.512","0.08","0.22","29.6162","4.68252","48.2","0","SATNPRO1509","29.506","0.41332","5"],
    [47697,"HCEP03730542","2025-02-06 04:00:00","10.0494","3.2827","26.859","4.487","7.58","0.685","4.036","0.1","0.27","29.6192","4.68295","48.09","0","SATNPRO1509","29.378","0.41146","5"],
    [47698,"HCEP03730542","2025-02-06 04:15:00","10.0471","3.28346","26.85","4.484","7.58","0.642","4.298","0.07","0.37","29.6287","4.68435","48.05","0","SATNPRO1509","29.37","0.41132","5"],
    [47699,"HCEP03730542","2025-02-06 04:30:00","10.0476","3.28349","26.848","4.493","7.58","0.647","3.977","0.06","0.27","29.6286","4.68433","48.16","0","SATNPRO1509","29.348","0.41104","5"],
    [47700,"HCEP03730542","2025-02-06 04:45:00","10.0437","3.28426","26.846","4.504","7.58","0.706","6.333","0.1","3.71","29.6394","4.68594","48.27","0","SATNPRO1509","29.06","0.40704","5"],
    [47701,"HCEP03730542","2025-02-06 05:00:00","10.0429","3.28455","26.847","4.509","7.58","0.687","5.354","0.1","0.23","29.643","4.68647","48.33","0","SATNPRO1509","28.88","0.40448","5"],
    [47702,"HCEP03730542","2025-02-06 05:15:00","10.0429","3.28453","26.872","4.494","7.58","0.667","5.68","0.1","0.46","29.6428","4.68644","48.17","0","SATNPRO1509","29.052","0.4069","5"],
    [47703,"HCEP03730542","2025-02-06 05:30:00","10.0427","3.28458","26.889","4.496","7.58","0.638","5.401","0.07","0.46","29.6435","4.68654","48.18","0","SATNPRO1509","28.968","0.40574","5"],
    [47704,"HCEP03730542","2025-02-06 05:45:00","10.0418","3.28451","26.948","4.506","7.58","0.667","5.403","0.1","1.02","29.6435","4.68656","48.3","0","SATNPRO1509","29.094","0.40752","5"],
    [47705,"HCEP03730542","2025-02-06 06:00:00","10.0419","3.28454","27.022","4.525","7.58","0.679","5.42","0.11","0.39","29.6436","4.68658","48.5","0","SATNPRO1509","28.95","0.40548","5"],
    [47706,"HCEP03730542","2025-02-06 06:15:00","10.0406","3.28459","27.063","4.537","7.58","0.718","7.389","0.11","0.85","29.6453","4.68684","48.62","0","SATNPRO1509","29.098","0.40756","5"],
    [47707,"HCEP03730542","2025-02-06 06:30:00","10.0397","3.2847","27.119","4.555","7.59","0.64","5.461","0.08","0.37","29.6471","4.68711","48.81","0","SATNPRO1509","29.194","0.40892","5"],
    [47708,"HCEP03730542","2025-02-06 06:45:00","10.0382","3.28482","27.147","4.576","7.59","0.652","5.392","0.1","0.33","29.6495","4.68749","49.04","0","SATNPRO1509","29.172","0.40862","5"],
    [47709,"HCEP03730542","2025-02-06 07:00:00","10.0366","3.28492","27.19","4.591","7.59","0.697","5.816","0.15","0.27","29.6518","4.68784","49.2","0","SATNPRO1509","29.062","0.4071","5"],
    [47710,"HCEP03730542","2025-02-06 07:15:00","10.0313","3.28464","27.25","4.618","7.59","0.662","4.921","0.16","0.37","29.6532","4.68814","49.49","0","SATNPRO1509","29.064","0.40708","5"],
    [47711,"HCEP03730542","2025-02-06 07:30:00","10.0281","3.28418","27.313","4.66","7.59","0.653","5.874","0.12","0.78","29.6513","4.68792","49.93","0","SATNPRO1509","28.85","0.40414","5"],
    [47712,"HCEP03730542","2025-02-06 07:45:00","10.024","3.28411","27.364","4.707","7.6","0.623","5.925","0.07","0.35","29.6539","4.68837","50.43","0","SATNPRO1509","29.126","0.40794","5"],
    [47713,"HCEP03730542","2025-02-06 08:00:00","10.0135","3.28322","27.405","4.74","7.6","0.611","6.424","0.05","0.35","29.6536","4.6885","50.77","0","SATNPRO1509","29.244","0.4096","5"],
    [47714,"HCEP03730542","2025-02-06 08:15:00","10.0045","3.28228","27.439","4.83","7.61","0.601","6.11","0.06","0.42","29.6517","4.68838","51.73","0","SATNPRO1509","29.206","0.4091","5"],
    [47715,"HCEP03730542","2025-02-06 08:30:00","9.996","3.28121","27.509","4.91","7.62","0.602","6.097","0.04","0.55","29.6478","4.68798","52.57","0","SATNPRO1509","29.232","0.40942","5"],
    [47716,"HCEP03730542","2025-02-06 08:45:00","9.9924","3.28059","27.588","4.985","7.62","0.942","9.865","0.63","9.39","29.6445","4.68757","53.36","0","SATNPRO1509","29.184","0.40874","5"],
    [47717,"HCEP03730542","2025-02-06 09:00:00","9.9887","3.28014","27.644","5.016","7.62","0.649","5.971","0.05","0.31","29.643","4.68742","53.69","0","SATNPRO1509","29.122","0.40788","5"],
    [47718,"HCEP03730542","2025-02-06 09:15:00","9.9845","3.28001","27.694","5.022","7.62","0.663","5.681","0.08","0.45","29.6452","4.68781","53.76","0","SATNPRO1509","28.922","0.40512","5"],
    [47719,"HCEP03730542","2025-02-06 09:30:00","9.9766","3.27917","27.737","4.999","7.62","1.968","59.975","2.79","25.03","29.6432","4.68766","53.5","0","SATNPRO1509","28.804","0.4034","5"],
    [47720,"HCEP03730542","2025-02-06 09:45:00","9.9688","3.2776","27.761","5.035","7.63","0.641","5.426","0.07","0.27","29.6338","4.68646","53.87","0","SATNPRO1509","29.08","0.40728","5"],
    [47721,"HCEP03730542","2025-02-06 10:00:00","9.964","3.27693","27.798","5.109","7.63","0.687","5.541","0.09","0.33","29.6311","4.68616","54.65","0","SATNPRO1509","29.07","0.40716","5"],
    [47722,"HCEP03730542","2025-02-06 10:15:00","9.9566","3.27618","27.799","5.169","7.64","0.656","4.916","0.09","0.4","29.6296","4.68606","55.29","0","SATNPRO1509","29.2","0.40904","5"],
    [47723,"HCEP03730542","2025-02-06 10:30:00","9.9507","3.2755","27.784","5.264","7.64","0.703","4.85","0.09","0.51","29.6276","4.68588","56.3","0","SATNPRO1509","29.318","0.41066","5"],
    [47724,"HCEP03730542","2025-02-06 10:45:00","9.9434","3.27465","27.761","5.318","7.65","0.672","4.325","0.08","0.23","29.6251","4.68565","56.86","0","SATNPRO1509","29.37","0.41134","5"],
    [47725,"HCEP03730542","2025-02-06 11:00:00","9.9404","3.27463","27.736","5.387","7.65","0.645","4.668","0.06","0.28","29.6274","4.68602","57.6","0","SATNPRO1509","29.384","0.4116","5"],
    [47726,"HCEP03730542","2025-02-06 11:15:00","9.9404","3.27472","27.722","5.403","7.65","0.643","4.836","0.06","0.16","29.6283","4.68615","57.77","0","SATNPRO1509","29.326","0.41076","5"],
    [47727,"HCEP03730542","2025-02-06 11:30:00","9.9406","3.27468","27.653","5.39","7.65","0.665","4.948","0.06","0.58","29.6278","4.68607","57.63","0","SATNPRO1509","29.432","0.41224","5"],
    [47728,"HCEP03730542","2025-02-06 11:45:00","9.9412","3.27496","27.594","5.38","7.65","0.664","5.124","0.08","0.34","29.6302","4.6864","57.53","0","SATNPRO1509","29.28","0.4101","5"],
    [47729,"HCEP03730542","2025-02-06 12:00:00","9.9381","3.27503","27.494","5.366","7.65","0.64","5.017","0.06","0.15","29.6334","4.68691","57.37","0","SATNPRO1509","29.326","0.4108","5"],
    [47730,"HCEP03730542","2025-02-06 12:15:00","9.9336","3.2751","27.401","5.399","7.65","0.895","22.99","0.56","15.91","29.6378","4.68761","57.72","0","SATNPRO1509","29.364","0.41126","5"],
    [47731,"HCEP03730542","2025-02-06 12:30:00","9.9325","3.27539","27.282","5.431","7.65","0.62","5.39","0.06","0.26","29.6417","4.68816","58.06","0","SATNPRO1509","29.276","0.41002","5"],
    [47732,"HCEP03730542","2025-02-06 12:45:00","9.9312","3.27572","27.148","5.427","7.65","0.599","5.589","0.05","0.14","29.6461","4.68882","58.02","0","SATNPRO1509","29.268","0.40994","5"],
    [47733,"HCEP03730542","2025-02-06 13:00:00","9.931","3.27586","26.971","5.428","7.65","0.624","5.559","0.06","0.23","29.6477","4.68904","58.04","0","SATNPRO1509","29.234","0.40948","5"],
    [47734,"HCEP03730542","2025-02-06 13:15:00","9.9306","3.276","26.814","5.422","7.65","0.626","5.604","0.06","0.11","29.6496","4.6893","57.97","0","SATNPRO1509","29.216","0.4092","5"],
    [47735,"HCEP03730542","2025-02-06 13:30:00","9.9291","3.27607","26.626","5.424","7.66","0.603","5.708","0.06","0.14","29.6515","4.68959","58","0","SATNPRO1509","29.194","0.40896","5"],
    [47736,"HCEP03730542","2025-02-06 13:45:00","9.9249","3.27599","26.43","5.452","7.66","0.571","5.605","0.05","0.73","29.6543","4.69006","58.29","0","SATNPRO1509","29.244","0.40964","5"],
    [47737,"HCEP03730542","2025-02-06 14:00:00","9.922","3.27583","26.227","5.493","7.66","0.605","5.465","0.06","0.22","29.6551","4.69021","58.72","0","SATNPRO1509","29.204","0.40906","5"],
    [47738,"HCEP03730542","2025-02-06 14:15:00","9.9213","3.27584","26.039","5.526","7.66","0.608","5.366","0.07","0.17","29.6558","4.69031","59.07","0","SATNPRO1509","29.412","0.412","5"],
    [47739,"HCEP03730542","2025-02-06 14:30:00","9.9223","3.27628","25.843","5.537","7.66","0.58","6.079","0.05","0.27","29.6596","4.69081","59.19","0","SATNPRO1509","29.470000000000002","0.41278","5"],
    [47740,"HCEP03730542","2025-02-06 14:45:00","9.919","3.27644","25.63","5.559","7.66","0.58","5.985","0.07","0.38","29.664","4.69149","59.42","0","SATNPRO1509","29.504","0.41328","5"],
    [47741,"HCEP03730542","2025-02-06 15:00:00","9.922","3.27688","25.436","5.572","7.66","0.567","6.404","0.06","0.59","29.666","4.69171","59.57","0","SATNPRO1509","29.456","0.41258","5"],
    [47742,"HCEP03730542","2025-02-06 15:15:00","9.9251","3.27768","25.172","5.564","7.66","0.565","5.811","0.05","0.37","29.6715","4.69244","59.49","0","SATNPRO1509","29.544","0.41382","5"],
    [47743,"HCEP03730542","2025-02-06 15:30:00","9.9285","3.27812","24.955","5.558","7.66","0.593","6.224","0.07","0.31","29.6733","4.69262","59.43","0","SATNPRO1509","29.346","0.41104","5"],
    [47744,"HCEP03730542","2025-02-06 15:45:00","9.9281","3.27841","24.789","5.544","7.66","0.563","5.652","0.07","0.36","29.6765","4.69308","59.28","0","SATNPRO1509","29.482","0.41292","5"],
    [47745,"HCEP03730542","2025-02-06 16:00:00","9.9307","3.27882","24.635","5.529","7.66","0.582","5.886","0.1","0.57","29.6785","4.69331","59.13","0","SATNPRO1509","29.483999999999998","0.41298","5"],
    [47746,"HCEP03730542","2025-02-06 16:15:00","9.9292","3.2787","24.519","5.52","7.66","0.582","5.296","0.12","0.33","29.6787","4.69335","59.03","0","SATNPRO1509","29.34","0.41098","5"],
    [47747,"HCEP03730542","2025-02-06 16:30:00","9.9254","3.27819","24.401","5.532","7.66","0.593","5.369","0.1","0.41","29.6767","4.69313","59.15","0","SATNPRO1509","29.51","0.41336","5"],
    [47748,"HCEP03730542","2025-02-06 16:45:00","9.9275","3.27839","24.3","5.548","7.66","1.27","15.371","0.35","9.25","29.6771","4.69314","59.32","0","SATNPRO1509","29.632","0.41506","5"],
    [47749,"HCEP03730542","2025-02-06 17:00:00","9.9261","3.27824","24.229","5.544","7.66","0.517","4.77","0.07","0.27","29.6768","4.69312","59.28","0","SATNPRO1509","29.65","0.4153","5"],
    [47750,"HCEP03730542","2025-02-06 17:15:00","9.9291","3.27866","24.205","5.538","7.66","0.578","5.176","0.18","0.42","29.6784","4.6933","59.22","0","SATNPRO1509","29.114","0.40778","5"],
    [47751,"HCEP03730542","2025-02-06 17:30:00","9.927","3.27838","24.201","5.524","7.66","0.613","4.692","0.16","0.22","29.6774","4.69319","59.07","0","SATNPRO1509","29.458","0.4126","5"],
    [47752,"HCEP03730542","2025-02-06 17:45:00","9.9261","3.27826","24.196","5.536","7.66","3.097","204.962","4.42","102.76","29.677","4.69314","59.2","0","SATNPRO1509","29.336","0.41088","5"],
    [47753,"HCEP03730542","2025-02-06 18:00:00","9.9227","3.27776","24.208","5.544","7.67","0.599","4.794","0.14","0.96","29.6747","4.69288","59.27","0","SATNPRO1509","29.514","0.41338","5"],
    [47754,"HCEP03730542","2025-02-06 18:15:00","9.9265","3.27841","24.231","5.551","7.66","0.543","5.598","0.07","1.04","29.6781","4.6933","59.35","0","SATNPRO1509","29.446","0.41244","5"],
    [47755,"HCEP03730542","2025-02-06 18:30:00","9.929","3.2788","24.272","5.527","7.66","0.548","5.946","0.07","1.7","29.68","4.69353","59.1","0","SATNPRO1509","29.292","0.4103","5"],
    [47756,"HCEP03730542","2025-02-06 18:45:00","9.9304","3.27901","24.366","5.502","7.66","0.58","8.181","0.09","3.07","29.681","4.69365","58.84","0","SATNPRO1509","29.334","0.41086","5"],
    [47757,"HCEP03730542","2025-02-06 19:00:00","9.9318","3.2792","24.447","5.489","7.66","0.542","6.376","0.05","2.42","29.6815","4.69371","58.7","0","SATNPRO1509","29.368","0.41132","5"],
    [47758,"HCEP03730542","2025-02-06 19:15:00","9.9339","3.27962","24.568","5.47","7.66","0.557","5.729","0.1","1.18","29.684","4.69404","58.5","0","SATNPRO1509","29.258","0.40986","5"],
    [47759,"HCEP03730542","2025-02-06 19:30:00","9.9395","3.2804","24.679","5.44","7.65","0.555","5.982","0.07","0.41","29.6872","4.6944","58.19","0","SATNPRO1509","29.150000000000002","0.4083","5"],
    [47760,"HCEP03730542","2025-02-06 19:45:00","9.9457","3.28122","24.788","5.393","7.65","0.566","6.581","0.07","1.4","29.6903","4.69474","57.7","0","SATNPRO1509","29.242","0.40962","5"],
    [47761,"HCEP03730542","2025-02-06 20:00:00","9.9479","3.28153","24.966","5.349","7.65","0.584","5.528","0.09","0.28","29.6915","4.69489","57.22","0","SATNPRO1509","29.156000000000002","0.40838","5"],
    [47762,"HCEP03730542","2025-02-06 20:15:00","9.9474","3.28139","25.077","5.33","7.65","0.602","5.96","0.17","0.72","29.6905","4.69476","57.03","0","SATNPRO1509","28.982","0.40596","5"],
    [47763,"HCEP03730542","2025-02-06 20:30:00","9.9458","3.28119","25.212","5.322","7.65","0.551","5.716","0.07","0.46","29.6897","4.69467","56.93","0","SATNPRO1509","29.044","0.40682","5"],
    [47764,"HCEP03730542","2025-02-06 20:45:00","9.9419","3.28064","25.372","5.329","7.65","0.562","6.653","0.08","1.36","29.6873","4.69442","57","0","SATNPRO1509","29.122","0.40792","5"],
    [47765,"HCEP03730542","2025-02-06 21:00:00","9.9376","3.28011","25.52","5.347","7.65","0.548","6.261","0.07","1.03","29.6855","4.69423","57.19","0","SATNPRO1509","28.994","0.40608","5"],
    [47766,"HCEP03730542","2025-02-06 21:15:00","9.9381","3.28009","25.694","5.365","7.65","0.56","7.691","0.06","1.9","29.6849","4.69415","57.38","0","SATNPRO1509","28.868","0.40434","5"],
    [47767,"HCEP03730542","2025-02-06 21:30:00","9.9415","3.28057","25.849","5.357","7.65","0.568","5.771","0.07","0.54","29.6869","4.69439","57.3","0","SATNPRO1509","29.142","0.40824","5"],
    [47768,"HCEP03730542","2025-02-06 21:45:00","9.9409","3.28055","26.014","5.336","7.65","0.518","5.458","0.05","0.16","29.687","4.69443","57.08","0","SATNPRO1509","29.058","0.40702","5"],
    [47769,"HCEP03730542","2025-02-06 22:00:00","9.9448","3.28103","26.188","5.336","7.65","5.962","65.158","3.99","26.07","29.6886","4.69459","57.08","0","SATNPRO1509","29.048","0.40688","5"],
    [47770,"HCEP03730542","2025-02-06 22:15:00","9.9444","3.28096","26.355","5.316","7.65","0.506","5.24","0.06","0.21","29.6882","4.69455","56.86","0","SATNPRO1509","29.14","0.40816","5"],
    [47771,"HCEP03730542","2025-02-06 22:30:00","9.9415","3.28062","26.511","5.329","7.65","0.58","5.754","0.11","1.45","29.687","4.69444","57","0","SATNPRO1509","29.184","0.40878","5"],
    [47772,"HCEP03730542","2025-02-06 22:45:00","9.9448","3.28092","26.643","5.339","7.65","0.531","7.231","0.08","1.64","29.6872","4.69443","57.11","0","SATNPRO1509","29.138","0.4081","5"],
    [47773,"HCEP03730542","2025-02-06 23:00:00","9.9502","3.28157","26.778","5.296","7.64","0.547","6.483","0.06","1.06","29.6892","4.69463","56.66","0","SATNPRO1509","28.718","0.40226","5"],
    [47774,"HCEP03730542","2025-02-06 23:15:00","9.9514","3.28154","26.902","5.227","7.64","0.535","6.557","0.04","0.22","29.688","4.69444","55.93","0","SATNPRO1509","28.824","0.40372","5"],
    [47775,"HCEP03730542","2025-02-06 23:30:00","9.959","3.2826","27.006","5.19","7.63","0.576","6.762","0.08","0.33","29.6922","4.69492","55.54","0","SATNPRO1509","28.612000000000002","0.40078","5"],
    [47776,"HCEP03730542","2025-02-06 23:45:00","9.9638","3.28278","27.106","5.127","7.63","1.788","36.353","1.43","34.69","29.6901","4.69454","54.87","0","SATNPRO1509","28.772","0.40298","5"],
    [47777,"HCEP03730542","2025-02-07 00:00:00","9.9731","3.28388","27.199","5.108","7.63","0.547","6.163","0.07","0.42","29.6935","4.69487","54.68","0","SATNPRO1509","28.762","0.40288","5"],
    [47778,"HCEP03730542","2025-02-07 00:15:00","9.98","3.28487","27.277","5.082","7.63","0.533","5.901","0.09","0.33","29.6977","4.69535","54.42","0","SATNPRO1509","28.994","0.40612","5"],
    [47779,"HCEP03730542","2025-02-07 00:30:00","9.9813","3.28487","27.324","5.067","7.63","0.576","6.232","0.08","0.43","29.6966","4.69519","54.25","0","SATNPRO1509","28.916","0.405","5"],
    [47780,"HCEP03730542","2025-02-07 00:45:00","9.9804","3.28469","27.381","5.085","7.63","0.535","5.717","0.05","0.29","29.6955","4.69505","54.44","0","SATNPRO1509","29.054","0.40698","5"],
    [47781,"HCEP03730542","2025-02-07 01:00:00","9.9797","3.28459","27.409","5.111","7.63","0.54","5.318","0.07","0.52","29.695","4.69499","54.72","0","SATNPRO1509","29.264","0.40992","5"],
    [47782,"HCEP03730542","2025-02-07 01:15:00","9.98","3.28436","27.463","5.146","7.63","0.527","5.017","0.07","0.36","29.6925","4.69462","55.09","0","SATNPRO1509","29.32","0.41068","5"],
    [47783,"HCEP03730542","2025-02-07 01:30:00","9.9798","3.28395","27.487","5.155","7.63","3.938","105.259","1.23","25.23","29.6885","4.69407","55.19","0","SATNPRO1509","29.362","0.4113","5"],
    [47784,"HCEP03730542","2025-02-07 01:45:00","9.9809","3.28358","27.491","5.156","7.63","0.544","5.007","0.06","0.21","29.684","4.6934","55.19","0","SATNPRO1509","29.318","0.41066","5"],
    [47785,"HCEP03730542","2025-02-07 02:00:00","9.9841","3.28374","27.506","5.135","7.63","0.568","4.867","0.1","0.31","29.6829","4.6932","54.98","0","SATNPRO1509","29.376","0.41148","5"],
    [47786,"HCEP03730542","2025-02-07 02:15:00","9.9887","3.28388","27.516","5.123","7.63","0.564","4.292","0.09","0.3","29.6805","4.69277","54.85","0","SATNPRO1509","29.384","0.41152","5"],
    [47787,"HCEP03730542","2025-02-07 02:30:00","9.991","3.28381","27.497","5.09","7.63","0.56","4.658","0.09","0.25","29.6779","4.69236","54.51","0","SATNPRO1509","29.212","0.40916","5"],
    [47788,"HCEP03730542","2025-02-07 02:45:00","9.9922","3.28375","27.479","5.054","7.62","0.534","4.311","0.09","0.23","29.6763","4.69211","54.12","0","SATNPRO1509","29.23","0.40944","5"],
    [47789,"HCEP03730542","2025-02-07 03:00:00","9.9925","3.28409","27.457","5.024","7.62","0.539","5.131","0.08","0.31","29.6795","4.69256","53.79","0","SATNPRO1509","29.2","0.40898","5"],
    [47790,"HCEP03730542","2025-02-07 03:15:00","9.9932","3.28441","27.44","4.999","7.62","0.568","4.929","0.11","0.31","29.6821","4.69292","53.53","0","SATNPRO1509","29.092","0.40752","5"],
    [47791,"HCEP03730542","2025-02-07 03:30:00","9.9939","3.28429","27.403","4.984","7.62","0.561","5.01","0.07","0.66","29.6804","4.69266","53.38","0","SATNPRO1509","29.096","0.40752","5"],
    [47792,"HCEP03730542","2025-02-07 03:45:00","9.9948","3.28377","27.375","4.96","7.62","0.575","4.714","0.13","0.31","29.6744","4.69179","53.11","0","SATNPRO1509","29.154","0.40832","5"],
    [47793,"HCEP03730542","2025-02-07 04:00:00","9.9948","3.28358","27.32","4.931","7.61","0.57","4.113","0.15","0.35","29.6726","4.69154","52.8","0","SATNPRO1509","29.042","0.40676","5"],
    [47794,"HCEP03730542","2025-02-07 04:15:00","9.9943","3.28317","27.279","4.911","7.61","0.508","4.463","0.07","0.28","29.6689","4.691","52.59","0","SATNPRO1509","29.02","0.40648","5"],
    [47795,"HCEP03730542","2025-02-07 04:30:00","9.9931","3.2825","27.241","4.904","7.61","0.546","4.266","0.12","0.24","29.6633","4.69022","52.51","0","SATNPRO1509","28.912","0.40496","5"],
    [47796,"HCEP03730542","2025-02-07 04:45:00","9.991","3.28199","27.205","4.913","7.61","0.449","5.059","0.06","5.54","29.6598","4.68976","52.6","0","SATNPRO1509","28.976000000000003","0.40586","5"],
    [47797,"HCEP03730542","2025-02-07 05:00:00","9.9925","3.28227","27.171","4.921","7.61","4.708","57.487","3.91","31.64","29.6614","4.68996","52.69","0","SATNPRO1509","29.278","0.41006","5"],
    [47798,"HCEP03730542","2025-02-07 05:15:00","9.9951","3.28318","27.131","4.923","7.61","0.521","3.837","0.18","0.36","29.6684","4.69092","52.72","0","SATNPRO1509","29.112000000000002","0.40778","5"],
    [47799,"HCEP03730542","2025-02-07 05:30:00","9.9948","3.2829","27.093","4.921","7.61","0.577","4.627","0.15","1","29.6658","4.69054","52.69","0","SATNPRO1509","29.195999999999998","0.40894","5"],
    [47800,"HCEP03730542","2025-02-07 05:45:00","9.997","3.28479","27.072","4.917","7.61","0.525","5.565","0.1","0.8","29.683","4.69296","52.66","0","SATNPRO1509","29.158","0.40842","5"],
    [47801,"HCEP03730542","2025-02-07 06:00:00","9.9951","3.28552","27.048","4.918","7.62","0.505","4.531","0.08","0.34","29.6918","4.69425","52.67","0","SATNPRO1509","28.922","0.40506","5"],
    [47802,"HCEP03730542","2025-02-07 06:15:00","9.9951","3.28604","27.039","4.95","7.62","0.888","29.316","0.72","31.05","29.697","4.69499","53.01","0","SATNPRO1509","29.080000000000002","0.4073","5"],
    [47803,"HCEP03730542","2025-02-07 06:30:00","9.9955","3.28679","27.049","4.973","7.62","1.05","16.675","1.27","25.3","29.7042","4.69601","53.27","0","SATNPRO1509","28.93","0.40522","5"],
    [47804,"HCEP03730542","2025-02-07 06:45:00","9.9963","3.2875","27.061","4.974","7.62","0.526","6.532","0.09","0.54","29.7107","4.69693","53.28","0","SATNPRO1509","28.878","0.4045","5"],
    [47805,"HCEP03730542","2025-02-07 07:00:00","9.9967","3.28799","27.07","4.967","7.62","0.538","5.992","0.12","0.34","29.7152","4.69757","53.2","0","SATNPRO1509","28.752","0.40274","5"],
    [47806,"HCEP03730542","2025-02-07 07:15:00","9.9967","3.28811","27.084","4.965","7.62","0.498","6.244","0.08","0.39","29.7165","4.69775","53.18","0","SATNPRO1509","29.232","0.40944","5"],
    [47807,"HCEP03730542","2025-02-07 07:30:00","9.9964","3.28803","27.11","4.979","7.62","0.492","5.358","0.07","0.43","29.7159","4.69767","53.33","0","SATNPRO1509","28.997999999999998","0.40614","5"],
    [47808,"HCEP03730542","2025-02-07 07:45:00","9.9946","3.28724","27.138","5.004","7.62","0.566","6.347","0.14","0.69","29.7095","4.69679","53.59","0","SATNPRO1509","29.342","0.41102","5"],
    [47809,"HCEP03730542","2025-02-07 08:00:00","9.9937","3.28631","27.163","5.04","7.62","0.533","4.765","0.08","0.24","29.7009","4.69558","53.97","0","SATNPRO1509","29.578","0.41428","5"],
    [47810,"HCEP03730542","2025-02-07 08:15:00","9.9908","3.28584","27.197","5.068","7.63","0.515","4.945","0.08","0.31","29.6985","4.69528","54.27","0","SATNPRO1509","29.558","0.41398","5"],
    [47811,"HCEP03730542","2025-02-07 08:30:00","9.9912","3.28661","27.226","5.095","7.63","0.522","5.497","0.12","0.32","29.7059","4.69634","54.57","0","SATNPRO1509","29.504","0.4133","5"],
    [47812,"HCEP03730542","2025-02-07 08:45:00","9.991","3.28657","27.263","5.107","7.63","0.566","5.972","0.16","0.67","29.7057","4.69631","54.7","0","SATNPRO1509","29.15","0.40832","5"],
    [47813,"HCEP03730542","2025-02-07 09:00:00","9.9912","3.28672","27.298","5.108","7.63","0.587","5.737","0.13","0.41","29.707","4.6965","54.71","0","SATNPRO1509","29.36","0.41126","5"],
    [47814,"HCEP03730542","2025-02-07 09:15:00","9.9913","3.28721","27.324","5.089","7.62","0.539","6.801","0.09","1.22","29.7117","4.69718","54.51","0","SATNPRO1509","29.186","0.40882","5"],
    [47815,"HCEP03730542","2025-02-07 09:30:00","9.9883","3.28627","27.357","5.054","7.63","0.661","35.029","0.25","29.79","29.7048","4.69623","54.13","0","SATNPRO1509","29.368","0.41136","5"],
    [47816,"HCEP03730542","2025-02-07 09:45:00","9.9872","3.28616","27.394","5.061","7.62","0.524","5.067","0.06","0.52","29.7047","4.69624","54.19","0","SATNPRO1509","29.022","0.40656","5"],
    [47817,"HCEP03730542","2025-02-07 10:00:00","9.9843","3.28499","27.423","5.068","7.63","0.494","4.327","0.06","0.3","29.6952","4.69495","54.26","0","SATNPRO1509","29.362000000000002","0.41126","5"],
    [47818,"HCEP03730542","2025-02-07 10:15:00","9.9865","3.28594","27.455","5.09","7.62","0.618","5.584","0.13","0.55","29.7029","4.69601","54.5","0","SATNPRO1509","29.066","0.4071","5"],
    [47819,"HCEP03730542","2025-02-07 10:30:00","9.9839","3.28488","27.477","5.031","7.62","0.562","5.109","0.08","0.35","29.6945","4.69485","53.87","0","SATNPRO1509","29.158","0.40838","5"],
    [47820,"HCEP03730542","2025-02-07 10:45:00","9.9836","3.28565","27.505","5.028","7.62","0.583","6.076","0.1","0.45","29.7024","4.69598","53.84","0","SATNPRO1509","28.818","0.40368","5"],
    [47821,"HCEP03730542","2025-02-07 11:00:00","9.9815","3.28502","27.534","4.992","7.62","0.598","5.522","0.12","0.26","29.6978","4.69537","53.45","0","SATNPRO1509","28.918","0.40506","5"],
    [47822,"HCEP03730542","2025-02-07 11:15:00","9.9761","3.28434","27.536","4.977","7.62","0.594","5.756","0.14","0.45","29.6955","4.69513","53.28","0","SATNPRO1509","28.844","0.404","5"],
    [47823,"HCEP03730542","2025-02-07 11:30:00","9.9701","3.28356","27.514","4.972","7.62","0.651","6.264","0.09","0.26","29.6926","4.69481","53.22","0","SATNPRO1509","28.764","0.40288","5"],
    [47824,"HCEP03730542","2025-02-07 11:45:00","9.9638","3.28263","27.508","4.979","7.62","0.565","6.289","0.1","0.43","29.6884","4.69433","53.29","0","SATNPRO1509","28.764","0.40288","5"],
    [47825,"HCEP03730542","2025-02-07 12:00:00","9.96","3.28154","27.484","4.989","7.62","0.626","6.242","0.08","0.33","29.6807","4.69329","53.39","0","SATNPRO1509","28.692","0.40188","5"],
    [47826,"HCEP03730542","2025-02-07 12:15:00","9.9584","3.28042","27.444","5.006","7.62","0.563","5.423","0.05","0.23","29.6708","4.69189","53.56","0","SATNPRO1509","28.808","0.40348","5"],
    [47827,"HCEP03730542","2025-02-07 12:30:00","9.9535","3.27986","27.385","5.039","7.62","0.612","5.36","0.09","0.31","29.6692","4.69175","53.9","0","SATNPRO1509","28.864","0.40432","5"],
    [47828,"HCEP03730542","2025-02-07 12:45:00","9.9474","3.27948","27.317","5.068","7.62","0.635","6.144","0.12","0.41","29.6704","4.69202","54.21","0","SATNPRO1509","28.702","0.40208","5"],
    [47829,"HCEP03730542","2025-02-07 13:00:00","9.9447","3.27917","27.239","5.081","7.63","0.558","5.673","0.11","0.27","29.6696","4.69195","54.35","0","SATNPRO1509","28.722","0.4023","5"],
    [47830,"HCEP03730542","2025-02-07 13:15:00","9.9426","3.2788","27.14","5.097","7.63","0.593","5.645","0.12","0.56","29.6676","4.69169","54.52","0","SATNPRO1509","28.866","0.40432","5"],
    [47831,"HCEP03730542","2025-02-07 13:30:00","9.9415","3.2786","27.029","5.117","7.63","0.644","5.055","0.17","0.34","29.6665","4.69155","54.73","0","SATNPRO1509","28.902","0.40484","5"],
    [47832,"HCEP03730542","2025-02-07 13:45:00","9.9416","3.2787","26.895","5.131","7.63","0.604","5.181","0.19","0.32","29.6676","4.69169","54.88","0","SATNPRO1509","28.695999999999998","0.40198","5"],
    [47833,"HCEP03730542","2025-02-07 14:00:00","9.942","3.27877","26.745","5.13","7.63","0.684","7.206","0.19","4.85","29.668","4.69173","54.87","0","SATNPRO1509","28.688","0.40184","5"],
    [47834,"HCEP03730542","2025-02-07 14:15:00","9.942","3.27876","26.593","5.112","7.63","0.61","5.187","0.11","0.33","29.6679","4.69172","54.68","0","SATNPRO1509","28.794","0.40328","5"],
    [47835,"HCEP03730542","2025-02-07 14:30:00","9.9416","3.27867","26.424","5.108","7.63","0.608","5.244","0.13","0.39","29.6675","4.69165","54.63","0","SATNPRO1509","28.7","0.40198","5"],
    [47836,"HCEP03730542","2025-02-07 14:45:00","9.9406","3.27855","26.228","5.109","7.63","0.545","5.581","0.05","0.25","29.6671","4.69161","54.65","0","SATNPRO1509","28.727999999999998","0.40236","5"],
    [47837,"HCEP03730542","2025-02-07 15:00:00","9.9404","3.27856","26.028","5.099","7.63","0.609","5.334","0.23","0.24","29.6675","4.69164","54.53","0","SATNPRO1509","28.642","0.40118","5"],
    [47838,"HCEP03730542","2025-02-07 15:15:00","9.9374","3.27809","25.83","5.094","7.63","0.622","6.677","0.16","4.28","29.6654","4.69138","54.48","0","SATNPRO1509","29.042","0.40678","5"],
    [47839,"HCEP03730542","2025-02-07 15:30:00","9.9391","3.2785","25.638","5.13","7.63","0.587","5.239","0.17","0.32","29.6681","4.69174","54.87","0","SATNPRO1509","28.712","0.40218","5"],
    [47840,"HCEP03730542","2025-02-07 15:45:00","9.9407","3.27879","25.449","5.119","7.63","0.557","5.271","0.1","0.28","29.6698","4.69194","54.75","0","SATNPRO1509","28.74","0.40258","5"],
    [47841,"HCEP03730542","2025-02-07 16:00:00","9.9409","3.27899","25.242","5.109","7.63","0.636","5.609","0.62","0.42","29.6717","4.6922","54.64","0","SATNPRO1509","28.898","0.40474","5"],
    [47842,"HCEP03730542","2025-02-07 16:15:00","9.9417","3.27913","25.064","5.102","7.63","0.511","5.588","0.08","0.38","29.6725","4.69229","54.57","0","SATNPRO1509","28.718","0.40226","5"],
    [47843,"HCEP03730542","2025-02-07 16:30:00","9.9424","3.27941","24.902","5.098","7.63","0.552","6.075","0.1","0.37","29.6748","4.69259","54.53","0","SATNPRO1509","28.688","0.4018","5"],
    [47844,"HCEP03730542","2025-02-07 16:45:00","9.944","3.27978","24.716","5.09","7.63","0.501","6.22","0.07","0.25","29.6773","4.69291","54.44","0","SATNPRO1509","28.714","0.40216","5"],
    [47845,"HCEP03730542","2025-02-07 17:00:00","9.9446","3.28016","24.555","5.093","7.63","0.53","6.334","0.06","0.42","29.6806","4.69336","54.48","0","SATNPRO1509","28.896","0.40474","5"],
    [47846,"HCEP03730542","2025-02-07 17:15:00","9.945","3.28074","24.378","5.102","7.63","0.5","6.38","0.05","0.37","29.6862","4.69415","54.58","0","SATNPRO1509","28.704","0.40202","5"],
    [47847,"HCEP03730542","2025-02-07 17:30:00","9.9446","3.28112","24.244","5.121","7.63","0.512","5.534","0.07","0.27","29.6904","4.69475","54.79","0","SATNPRO1509","28.746","0.40262","5"],
    [47848,"HCEP03730542","2025-02-07 17:45:00","9.9438","3.28133","24.129","5.141","7.63","0.503","6.139","0.05","0.32","29.6932","4.69516","55","0","SATNPRO1509","28.854","0.40416","5"],
    [47849,"HCEP03730542","2025-02-07 18:00:00","9.9437","3.28142","24.047","5.156","7.63","0.506","5.64","0.06","0.29","29.6943","4.6953","55.16","0","SATNPRO1509","29.048","0.40686","5"],
    [47850,"HCEP03730542","2025-02-07 18:15:00","9.9464","3.28178","23.981","5.162","7.63","0.481","5.924","0.08","0.36","29.6957","4.69546","55.23","0","SATNPRO1509","28.854","0.40412","5"],
    [47851,"HCEP03730542","2025-02-07 18:30:00","9.9467","3.28201","23.987","5.15","7.63","2.103","154.504","2.71","110.8","29.6977","4.69574","55.1","0","SATNPRO1509","28.998","0.40614","5"],
    [47852,"HCEP03730542","2025-02-07 18:45:00","9.945","3.28195","23.975","5.156","7.63","0.476","5.419","0.08","0.27","29.6985","4.69589","55.16","0","SATNPRO1509","28.938","0.40534","5"],
    [47853,"HCEP03730542","2025-02-07 19:00:00","9.9472","3.28254","24.001","5.166","7.63","0.512","6.166","0.07","0.29","29.7026","4.69643","55.27","0","SATNPRO1509","28.992","0.40608","5"],
    [47854,"HCEP03730542","2025-02-07 19:15:00","9.9498","3.28318","24.009","5.148","7.63","0.577","6.239","0.34","0.22","29.7068","4.69699","55.08","0","SATNPRO1509","28.852","0.40414","5"],
    [47855,"HCEP03730542","2025-02-07 19:30:00","9.9497","3.28328","24.072","5.137","7.63","0.492","6.058","0.06","0.51","29.7079","4.69715","54.96","0","SATNPRO1509","28.97","0.40578","5"],
    [47856,"HCEP03730542","2025-02-07 19:45:00","9.9496","3.28334","24.114","5.15","7.63","0.503","6.843","0.09","0.36","29.7085","4.69724","55.1","0","SATNPRO1509","29.012","0.40636","5"],
    [47857,"HCEP03730542","2025-02-07 20:00:00","9.9489","3.28338","24.188","5.141","7.63","0.509","7.668","0.05","1.32","29.7096","4.69741","55.01","0","SATNPRO1509","29.026","0.40656","5"],
    [47858,"HCEP03730542","2025-02-07 20:15:00","9.9485","3.28348","24.272","5.147","7.63","0.459","6.224","0.05","0.22","29.7108","4.69759","55.07","0","SATNPRO1509","28.96","0.40564","5"],
    [47859,"HCEP03730542","2025-02-07 20:30:00","9.9488","3.28352","24.383","5.145","7.63","0.485","6.895","0.06","0.72","29.7109","4.69761","55.05","0","SATNPRO1509","29.006","0.40626","5"],
    [47860,"HCEP03730542","2025-02-07 20:45:00","9.948","3.28369","24.517","5.167","7.63","0.475","6.384","0.06","0.56","29.7133","4.69798","55.29","0","SATNPRO1509","29.236","0.4095","5"],
    [47861,"HCEP03730542","2025-02-07 21:00:00","9.9471","3.28333","24.679","5.166","7.63","0.485","6.1","0.06","0.27","29.7103","4.69757","55.28","0","SATNPRO1509","29.142","0.40816","5"],
    [47862,"HCEP03730542","2025-02-07 21:15:00","9.9475","3.28346","24.809","5.178","7.63","0.52","6.382","0.17","0.26","29.7112","4.69769","55.4","0","SATNPRO1509","29.008","0.40628","5"],
    [47863,"HCEP03730542","2025-02-07 21:30:00","9.9417","3.28178","24.982","5.19","7.64","0.491","6.256","0.04","0.47","29.6992","4.69609","55.52","0","SATNPRO1509","29.242","0.40962","5"],
    [47864,"HCEP03730542","2025-02-07 21:45:00","9.9421","3.28187","25.132","5.226","7.64","0.514","14.486","0.12","13.99","29.6996","4.69615","55.91","0","SATNPRO1509","29.284000000000002","0.41016","5"],
    [47865,"HCEP03730542","2025-02-07 22:00:00","9.9462","3.28253","25.298","5.219","7.63","0.504","7.707","0.06","0.97","29.7028","4.69655","55.83","0","SATNPRO1509","28.912","0.40496","5"],
    [47866,"HCEP03730542","2025-02-07 22:15:00","9.947","3.28273","25.498","5.149","7.63","0.514","6.839","0.06","0.29","29.7041","4.69673","55.09","0","SATNPRO1509","28.832","0.40386","5"],
    [47867,"HCEP03730542","2025-02-07 22:30:00","9.9473","3.28287","25.683","5.129","7.63","0.498","6.927","0.05","0.53","29.7052","4.69689","54.88","0","SATNPRO1509","28.752","0.4027","5"],
    [47868,"HCEP03730542","2025-02-07 22:45:00","9.9491","3.28371","25.864","5.124","7.63","0.5","6.531","0.05","0.46","29.712","4.69785","54.83","0","SATNPRO1509","28.849999999999998","0.40412","5"],
    [47869,"HCEP03730542","2025-02-07 23:00:00","9.9488","3.28355","26.08","5.139","7.63","0.49","6.545","0.06","0.48","29.7106","4.69766","54.99","0","SATNPRO1509","29.096","0.40754","5"],
    [47870,"HCEP03730542","2025-02-07 23:15:00","9.9468","3.28308","26.265","5.154","7.63","0.479","6.413","0.05","0.81","29.7074","4.69725","55.14","0","SATNPRO1509","29.212","0.40912","5"],
    [47871,"HCEP03730542","2025-02-07 23:30:00","9.9452","3.28285","26.423","5.184","7.64","0.499","6.874","0.05","0.94","29.7064","4.69714","55.46","0","SATNPRO1509","29.186","0.4088","5"],
    [47872,"HCEP03730542","2025-02-07 23:45:00","9.9477","3.28381","26.585","5.214","7.64","0.428","5.633","0.03","0.17","29.7139","4.69818","55.79","0","SATNPRO1509","29.33","0.41082","5"],
    [47873,"HCEP03730542","2025-02-08 00:00:00","9.9495","3.28434","26.754","5.209","7.63","0.422","5.777","0.02","0.18","29.7176","4.69869","55.74","0","SATNPRO1509","29.364","0.4113","5"],
    [47874,"HCEP03730542","2025-02-08 00:15:00","9.9493","3.28421","26.925","5.204","7.64","0.423","5.879","0.05","0.12","29.7164","4.69852","55.69","0","SATNPRO1509","29.268","0.40994","5"],
    [47875,"HCEP03730542","2025-02-08 00:30:00","9.95","3.28422","27.036","5.198","7.63","0.439","5.785","0.04","0.17","29.7159","4.69845","55.62","0","SATNPRO1509","29.124","0.40794","5"],
    [47876,"HCEP03730542","2025-02-08 00:45:00","9.9487","3.28385","27.166","5.176","7.63","0.419","5.541","0.03","0.12","29.7132","4.6981","55.39","0","SATNPRO1509","29.152","0.40828","5"],
    [47877,"HCEP03730542","2025-02-08 01:00:00","9.9492","3.28385","27.283","5.183","7.63","0.463","6.353","0.06","0.54","29.7127","4.69803","55.46","0","SATNPRO1509","28.958","0.4056","5"],
    [47878,"HCEP03730542","2025-02-08 01:15:00","9.9509","3.28409","27.35","5.158","7.63","0.424","5.937","0.05","0.13","29.7138","4.69815","55.2","0","SATNPRO1509","29.014","0.40642","5"],
    [47879,"HCEP03730542","2025-02-08 01:30:00","9.9509","3.28401","27.432","5.126","7.63","0.427","6.068","0.05","0.15","29.7129","4.69804","54.85","0","SATNPRO1509","28.916","0.40502","5"],
    [47880,"HCEP03730542","2025-02-08 01:45:00","9.951","3.28396","27.485","5.107","7.63","0.421","5.83","0.03","0.21","29.7122","4.69794","54.65","0","SATNPRO1509","28.934","0.40524","5"],
    [47881,"HCEP03730542","2025-02-08 02:00:00","9.951","3.28396","27.533","5.107","7.63","0.422","6.056","0.04","0.28","29.7123","4.69795","54.65","0","SATNPRO1509","28.886","0.40458","5"],
    [47882,"HCEP03730542","2025-02-08 02:15:00","9.9473","3.28308","27.602","5.113","7.63","0.413","5.372","0.03","0.14","29.7065","4.69719","54.7","0","SATNPRO1509","29.03","0.40664","5"],
    [47883,"HCEP03730542","2025-02-08 02:30:00","9.9474","3.28307","27.584","5.176","7.63","0.431","5.384","0.05","0.42","29.7062","4.69715","55.38","0","SATNPRO1509","29.102","0.4076","5"],
    [47884,"HCEP03730542","2025-02-08 02:45:00","9.9408","3.2807","27.65","5.196","7.63","0.431","4.683","0.04","0.33","29.688","4.69466","55.58","0","SATNPRO1509","29.316","0.41064","5"],
    [47885,"HCEP03730542","2025-02-08 03:00:00","9.9505","3.28385","27.655","5.204","7.63","0.664","19.165","0.22","16.16","29.7115","4.69785","55.68","0","SATNPRO1509","29.092","0.40752","5"],
    [47886,"HCEP03730542","2025-02-08 03:15:00","9.953","3.28437","27.649","5.154","7.63","0.495","55.59","0.08","12.61","29.7147","4.69827","55.15","0","SATNPRO1509","29.044","0.4068","5"],
    [47887,"HCEP03730542","2025-02-08 03:30:00","9.956","3.28472","27.689","5.1","7.63","0.442","5.521","0.07","0.14","29.7157","4.69837","54.58","0","SATNPRO1509","28.87","0.40434","5"],
    [47888,"HCEP03730542","2025-02-08 03:45:00","9.9575","3.28478","27.682","5.057","7.62","0.455","6.125","0.07","0.49","29.7151","4.69825","54.12","0","SATNPRO1509","28.824","0.40376","5"],
    [47889,"HCEP03730542","2025-02-08 04:00:00","9.9553","3.28405","27.617","5.04","7.62","0.441","5.505","0.04","0.35","29.7096","4.6975","53.94","0","SATNPRO1509","28.884","0.40458","5"],
    [47890,"HCEP03730542","2025-02-08 04:15:00","9.9587","3.28476","27.637","5.054","7.62","0.441","5.66","0.06","0.17","29.7139","4.69806","54.09","0","SATNPRO1509","28.67","0.40158","5"],
    [47891,"HCEP03730542","2025-02-08 04:30:00","9.9592","3.28464","27.583","5","7.62","0.437","5.437","0.04","0.12","29.7123","4.69782","53.51","0","SATNPRO1509","28.855999999999998","0.40416","5"],
    [47892,"HCEP03730542","2025-02-08 04:45:00","9.9578","3.28427","27.528","5","7.62","0.43","5.334","0.04","0.18","29.7098","4.69748","53.51","0","SATNPRO1509","28.836","0.40386","5"],
    [47893,"HCEP03730542","2025-02-08 05:00:00","9.9518","3.28304","27.474","5.024","7.62","0.433","5.141","0.04","0.16","29.7024","4.69652","53.75","0","SATNPRO1509","29.208000000000002","0.40912","5"],
    [47894,"HCEP03730542","2025-02-08 05:15:00","9.956","3.28365","27.415","5.077","7.62","0.896","47.327","0.41","29.6","29.7051","4.69683","54.33","0","SATNPRO1509","28.96","0.40564","5"],
    [47895,"HCEP03730542","2025-02-08 05:30:00","9.9409","3.2807","27.338","5.097","7.63","0.546","5.618","0.05","0.86","29.6879","4.69464","54.52","0","SATNPRO1509","29.412","0.41196","5"],
    [47896,"HCEP03730542","2025-02-08 05:45:00","9.9366","3.27984","27.252","5.192","7.64","0.445","4.827","0.04","0.23","29.6829","4.69398","55.54","0","SATNPRO1509","29.52","0.41348","5"],
    [47897,"HCEP03730542","2025-02-08 06:00:00","9.9585","3.28355","27.226","5.2","7.63","0.458","5.571","0.06","0.68","29.7022","4.69636","55.65","0","SATNPRO1509","29.12","0.4079","5"],
    [47898,"HCEP03730542","2025-02-08 06:15:00","9.9672","3.28487","27.194","5.063","7.62","0.501","9.648","0.13","10.24","29.7083","4.69708","54.2","0","SATNPRO1509","28.738","0.40258","5"],
    [47899,"HCEP03730542","2025-02-08 06:30:00","9.9699","3.28528","27.155","4.962","7.61","0.507","6.463","0.09","0.78","29.7101","4.6973","53.11","0","SATNPRO1509","28.738","0.40254","5"],
    [47900,"HCEP03730542","2025-02-08 06:45:00","9.9684","3.28486","27.123","4.922","7.61","0.474","5.909","0.07","0.34","29.7071","4.69689","52.69","0","SATNPRO1509","28.768","0.40294","5"],
    [47901,"HCEP03730542","2025-02-08 07:00:00","9.9694","3.28481","27.091","4.916","7.61","0.462","5.91","0.08","1.07","29.7058","4.69669","52.62","0","SATNPRO1509","28.622","0.4009","5"],
    [47902,"HCEP03730542","2025-02-08 07:15:00","9.9686","3.28467","27.058","4.904","7.61","0.493","5.344","0.09","0.65","29.7052","4.69661","52.49","0","SATNPRO1509","28.704","0.40208","5"],
    [47903,"HCEP03730542","2025-02-08 07:30:00","9.9682","3.28449","27.019","4.898","7.61","0.426","5.257","0.07","0.25","29.7037","4.6964","52.43","0","SATNPRO1509","28.69","0.40186","5"],
    [47904,"HCEP03730542","2025-02-08 07:45:00","9.9662","3.28408","27.012","4.897","7.61","0.46","6.096","0.1","2.5","29.7012","4.69609","52.42","0","SATNPRO1509","28.866","0.40432","5"],
    [47905,"HCEP03730542","2025-02-08 08:00:00","9.9656","3.28397","26.991","4.909","7.61","0.476","4.697","0.15","0.28","29.7006","4.696","52.54","0","SATNPRO1509","28.599999999999998","0.40062","5"],
    [47906,"HCEP03730542","2025-02-08 08:15:00","9.9713","3.28541","26.995","4.91","7.61","0.417","4.946","0.08","0.34","29.7103","4.69729","52.56","0","SATNPRO1509","28.934","0.40524","5"],
    [47907,"HCEP03730542","2025-02-08 08:30:00","9.9728","3.28566","26.998","4.904","7.61","3.06","43.989","4.15","33.74","29.7116","4.69745","52.5","0","SATNPRO1509","28.828","0.40378","5"],
    [47908,"HCEP03730542","2025-02-08 08:45:00","9.9738","3.28571","27.004","4.919","7.61","0.447","4.994","0.15","0.3","29.7113","4.69739","52.67","0","SATNPRO1509","29","0.4062","5"],
    [47909,"HCEP03730542","2025-02-08 09:00:00","9.9773","3.28597","27.019","4.92","7.61","2.338","47.291","3.59","26.37","29.711","4.69729","52.68","0","SATNPRO1509","28.646","0.40128","5"],
    [47910,"HCEP03730542","2025-02-08 09:15:00","9.9767","3.28574","27.055","4.906","7.61","0.414","5.087","0.08","0.27","29.7092","4.69705","52.53","0","SATNPRO1509","28.908","0.40492","5"],
    [47911,"HCEP03730542","2025-02-08 09:30:00","9.9774","3.28572","27.094","4.899","7.61","0.41","5.225","0.05","0.41","29.7084","4.69692","52.45","0","SATNPRO1509","28.934","0.40524","5"],
    [47912,"HCEP03730542","2025-02-08 09:45:00","9.98","3.28601","27.115","4.891","7.61","0.423","4.975","0.11","0.26","29.7091","4.69698","52.37","0","SATNPRO1509","28.964000000000002","0.4057","5"],
    [47913,"HCEP03730542","2025-02-08 10:00:00","9.9807","3.28619","27.127","4.873","7.61","0.486","5.313","0.12","0.24","29.7103","4.69714","52.18","0","SATNPRO1509","28.626","0.40098","5"],
    [47914,"HCEP03730542","2025-02-08 10:15:00","9.981","3.28623","27.143","4.855","7.61","0.508","7.385","0.14","5.83","29.7105","4.69716","51.98","0","SATNPRO1509","29.138","0.40812","5"],
    [47915,"HCEP03730542","2025-02-08 10:30:00","9.9803","3.28615","27.163","4.852","7.61","0.44","5.523","0.08","0.32","29.7103","4.69715","51.95","0","SATNPRO1509","28.908","0.40492","5"],
    [47916,"HCEP03730542","2025-02-08 10:45:00","9.9829","3.28677","27.192","4.855","7.61","0.532","7.63","0.17","4.63","29.7143","4.69767","51.99","0","SATNPRO1509","28.59","0.40046","5"],
    [47917,"HCEP03730542","2025-02-08 11:00:00","9.9827","3.2867","27.228","4.829","7.61","0.444","4.977","0.08","0.17","29.7138","4.69761","51.72","0","SATNPRO1509","28.695999999999998","0.4019","5"],
    [47918,"HCEP03730542","2025-02-08 11:15:00","9.9812","3.28647","27.249","4.851","7.61","0.443","4.484","0.07","0.24","29.7127","4.69748","51.94","0","SATNPRO1509","28.964","0.40574","5"],
    [47919,"HCEP03730542","2025-02-08 11:30:00","9.9831","3.28717","27.267","4.863","7.6","0.45","6.571","0.04","0.28","29.7181","4.69822","52.07","0","SATNPRO1509","28.57","0.4002","5"],
    [47920,"HCEP03730542","2025-02-08 11:45:00","9.9827","3.28727","27.29","4.791","7.6","0.475","6.385","0.09","0.23","29.7194","4.69841","51.3","0","SATNPRO1509","28.564","0.4001","5"],
    [47921,"HCEP03730542","2025-02-08 12:00:00","9.9813","3.2873","27.3","4.787","7.6","0.451","6.319","0.07","0.31","29.7209","4.69865","51.26","0","SATNPRO1509","28.524","0.3995","5"],
    [47922,"HCEP03730542","2025-02-08 12:15:00","9.9771","3.28662","27.318","4.81","7.61","0.458","5.546","0.07","0.39","29.7175","4.69825","51.5","0","SATNPRO1509","29.004","0.40626","5"],
    [47923,"HCEP03730542","2025-02-08 12:30:00","9.9672","3.28502","27.324","4.899","7.62","0.564","6.483","0.23","5.05","29.7097","4.69729","52.44","0","SATNPRO1509","29.336","0.41088","5"],
    [47924,"HCEP03730542","2025-02-08 12:45:00","9.9772","3.28722","27.321","4.951","7.61","0.412","6.449","0.04","0.31","29.7234","4.69908","53.01","0","SATNPRO1509","28.508","0.39928","5"],
    [47925,"HCEP03730542","2025-02-08 13:00:00","9.9771","3.28752","27.311","4.844","7.61","0.46","6.256","0.11","0.35","29.7265","4.69953","51.87","0","SATNPRO1509","28.69","0.40186","5"],
    [47926,"HCEP03730542","2025-02-08 13:15:00","9.9758","3.28753","27.289","4.83","7.61","0.433","6.281","0.05","0.36","29.7278","4.69973","51.72","0","SATNPRO1509","28.668","0.40156","5"],
    [47927,"HCEP03730542","2025-02-08 13:30:00","9.9747","3.28744","27.256","4.841","7.61","0.442","6.087","0.06","0.33","29.7278","4.69974","51.84","0","SATNPRO1509","28.644","0.40124","5"],
    [47928,"HCEP03730542","2025-02-08 13:45:00","9.9734","3.28732","27.18","4.846","7.61","0.465","6.236","0.12","0.55","29.7277","4.69975","51.88","0","SATNPRO1509","28.648","0.40128","5"],
    [47929,"HCEP03730542","2025-02-08 14:00:00","9.9719","3.28715","27.084","4.865","7.61","0.443","6.158","0.06","0.28","29.7273","4.69971","52.09","0","SATNPRO1509","28.832","0.40384","5"],
    [47930,"HCEP03730542","2025-02-08 14:15:00","9.9713","3.28712","26.975","4.88","7.61","0.441","6.251","0.08","0.39","29.7274","4.69974","52.25","0","SATNPRO1509","28.87","0.40436","5"],
    [47931,"HCEP03730542","2025-02-08 14:30:00","9.9736","3.28749","26.878","4.906","7.61","0.425","6.229","0.04","3.93","29.7293","4.69996","52.53","0","SATNPRO1509","29.064","0.4071","5"],
    [47932,"HCEP03730542","2025-02-08 14:45:00","9.973","3.28765","26.766","4.926","7.61","0.44","6.165","0.05","0.25","29.7314","4.70026","52.74","0","SATNPRO1509","29.072","0.4072","5"],
    [47933,"HCEP03730542","2025-02-08 15:00:00","9.976","3.28813","26.634","4.927","7.61","0.473","5.727","0.08","0.44","29.7339","4.70056","52.76","0","SATNPRO1509","29.044","0.40684","5"],
    [47934,"HCEP03730542","2025-02-08 15:15:00","9.9738","3.28778","26.505","4.924","7.61","0.436","5.662","0.05","0.22","29.7322","4.70035","52.72","0","SATNPRO1509","29.032","0.4066","5"],
    [47935,"HCEP03730542","2025-02-08 15:30:00","9.9723","3.28759","26.344","4.921","7.61","0.427","6.424","0.04","1.58","29.7316","4.70027","52.69","0","SATNPRO1509","28.716","0.40222","5"],
    [47936,"HCEP03730542","2025-02-08 15:45:00","9.9743","3.28791","26.173","4.919","7.61","0.432","5.681","0.05","0.19","29.7333","4.70048","52.67","0","SATNPRO1509","28.878","0.4045","5"],
    [47937,"HCEP03730542","2025-02-08 16:00:00","9.971","3.28758","25.998","4.921","7.61","0.422","6.135","0.04","0.26","29.7327","4.70043","52.69","0","SATNPRO1509","28.732","0.40248","5"],
    [47938,"HCEP03730542","2025-02-08 16:15:00","9.978","3.28776","25.807","4.913","7.62","0.43","4.322","0.04","0.17","29.7288","4.69975","52.61","0","SATNPRO1509","29.156","0.40836","5"],
    [47939,"HCEP03730542","2025-02-08 16:30:00","9.9793","3.28492","25.609","4.97","7.62","0.458","3.22","0.05","0.19","29.6994","4.69552","53.21","0","SATNPRO1509","29.712","0.41614","5"],
    [47940,"HCEP03730542","2025-02-08 16:45:00","9.9794","3.28492","25.417","5.043","7.62","0.446","2.907","0.06","0.11","29.6994","4.69551","54","0","SATNPRO1509","29.662","0.41546","5"],
    [47941,"HCEP03730542","2025-02-08 17:00:00","9.9809","3.28512","25.231","5.052","7.62","0.465","2.682","0.04","0.13","29.7003","4.6956","54.09","0","SATNPRO1509","29.53","0.41366","5"],
    [47942,"HCEP03730542","2025-02-08 17:15:00","9.9695","3.28464","25.045","5.064","7.63","0.427","2.604","0.04","0.08","29.7049","4.69644","54.21","0","SATNPRO1509","29.862000000000002","0.4183","5"],
    [47943,"HCEP03730542","2025-02-08 17:30:00","9.9537","3.28346","24.864","5.168","7.63","0.471","3.107","0.06","0.18","29.7061","4.69687","55.3","0","SATNPRO1509","29.864","0.41832","5"],
    [47944,"HCEP03730542","2025-02-08 17:45:00","9.9439","3.28207","24.678","5.227","7.63","0.448","3.976","0.05","0.23","29.7003","4.6962","55.92","0","SATNPRO1509","29.445999999999998","0.41248","5"],
    [47945,"HCEP03730542","2025-02-08 18:00:00","9.9464","3.28238","24.495","5.201","7.63","0.435","4.373","0.05","0.17","29.7014","4.69631","55.65","0","SATNPRO1509","29.009999999999998","0.40634","5"],
    [47946,"HCEP03730542","2025-02-08 18:15:00","9.9501","3.28314","24.3","5.074","7.62","0.487","7.341","0.4","12.45","29.7061","4.69689","54.29","0","SATNPRO1509","28.742","0.40256","5"],
    [47947,"HCEP03730542","2025-02-08 18:30:00","9.9481","3.2826","24.152","5.001","7.62","0.436","4.838","0.07","0.13","29.7023","4.69639","53.5","0","SATNPRO1509","28.776","0.40302","5"],
    [47948,"HCEP03730542","2025-02-08 18:45:00","9.9454","3.28173","24.001","4.99","7.62","0.42","4.773","0.08","0.3","29.6959","4.6955","53.38","0","SATNPRO1509","28.808","0.40346","5"],
    [47949,"HCEP03730542","2025-02-08 19:00:00","9.9464","3.28162","23.865","4.99","7.62","0.446","5.076","0.08","0.51","29.6941","4.69522","53.39","0","SATNPRO1509","28.794","0.40336","5"],
    [47950,"HCEP03730542","2025-02-08 19:15:00","9.9451","3.28065","23.791","4.975","7.61","0.393","4.735","0.06","0.15","29.6855","4.69401","53.22","0","SATNPRO1509","28.636","0.4011","5"],
    [47951,"HCEP03730542","2025-02-08 19:30:00","9.9442","3.28035","23.749","4.953","7.61","0.462","4.6","0.1","0.35","29.6832","4.6937","52.98","0","SATNPRO1509","28.748","0.40266","5"],
    [47952,"HCEP03730542","2025-02-08 19:45:00","9.9425","3.28018","23.774","4.939","7.61","0.453","4.376","0.1","0.14","29.6828","4.69367","52.83","0","SATNPRO1509","28.78","0.40312","5"],
    [47953,"HCEP03730542","2025-02-08 20:00:00","9.9464","3.28148","23.79","4.941","7.61","0.473","4.277","0.16","0.16","29.6928","4.69503","52.86","0","SATNPRO1509","28.2","0.395","5"],
    [47954,"HCEP03730542","2025-02-08 20:15:00","9.9524","3.28316","23.829","4.921","7.61","0.49","4.669","0.05","0.12","29.7047","4.69663","52.66","0","SATNPRO1509","28.672","0.40156","5"],
    [47955,"HCEP03730542","2025-02-08 20:30:00","9.9599","3.28531","23.927","4.877","7.61","0.852","45.854","0.31","21.65","29.7199","4.69868","52.21","0","SATNPRO1509","28.538","0.39972","5"],
    [47956,"HCEP03730542","2025-02-08 20:45:00","9.9614","3.28557","24.037","4.824","7.6","0.438","6.168","0.08","0.24","29.7213","4.69885","51.64","0","SATNPRO1509","28.346","0.39704","5"],
    [47957,"HCEP03730542","2025-02-08 21:00:00","9.9595","3.28515","24.065","4.802","7.6","0.457","5.683","0.12","0.14","29.7186","4.69851","51.4","0","SATNPRO1509","28.23","0.39542","5"],
    [47958,"HCEP03730542","2025-02-08 21:15:00","9.9601","3.2856","24.196","4.81","7.61","0.468","22.114","0.09","25.09","29.7225","4.69906","51.49","0","SATNPRO1509","28.504","0.39924","5"],
    [47959,"HCEP03730542","2025-02-08 21:30:00","9.9624","3.28562","24.311","4.812","7.6","1.746","50.306","0.72","15.97","29.7208","4.69878","51.51","0","SATNPRO1509","28.074","0.3932","5"],
    [47960,"HCEP03730542","2025-02-08 21:45:00","9.964","3.28659","24.434","4.828","7.61","0.441","5.625","0.07","0.33","29.7292","4.69997","51.69","0","SATNPRO1509","28.756","0.4028","5"],
    [47961,"HCEP03730542","2025-02-08 22:00:00","9.9625","3.2866","24.59","4.853","7.61","0.448","4.984","0.08","0.25","29.7305","4.70019","51.95","0","SATNPRO1509","28.992","0.4061","5"],
    [47962,"HCEP03730542","2025-02-08 22:15:00","9.9651","3.28737","24.745","4.895","7.61","0.472","4.874","0.13","0.83","29.736","4.70094","52.4","0","SATNPRO1509","29.012","0.40636","5"],
    [47963,"HCEP03730542","2025-02-08 22:30:00","9.9671","3.2874","24.938","4.934","7.62","0.492","3.918","0.14","0.38","29.7345","4.7007","52.82","0","SATNPRO1509","29.698","0.416","5"],
    [47964,"HCEP03730542","2025-02-08 22:45:00","9.9698","3.28793","25.131","5.013","7.62","0.423","4.559","0.05","0.35","29.7376","4.7011","53.67","0","SATNPRO1509","29.326","0.41076","5"],
    [47965,"HCEP03730542","2025-02-08 23:00:00","9.972","3.28815","25.319","4.994","7.61","0.404","4.495","0.07","0.42","29.7379","4.70112","53.48","0","SATNPRO1509","29.11","0.40774","5"],
    [47966,"HCEP03730542","2025-02-08 23:15:00","9.973","3.28864","25.517","4.909","7.61","0.389","5.797","0.03","0.4","29.7419","4.70169","52.57","0","SATNPRO1509","28.59","0.40044","5"],
    [47967,"HCEP03730542","2025-02-08 23:30:00","9.9757","3.28902","25.733","4.807","7.6","0.405","6.415","0.06","0.45","29.7434","4.70186","51.48","0","SATNPRO1509","28.406","0.39788","5"],
    [47968,"HCEP03730542","2025-02-08 23:45:00","9.976","3.28921","25.956","4.787","7.61","0.375","5.875","0.05","0.37","29.745","4.7021","51.26","0","SATNPRO1509","28.464","0.39866","5"],
    [47969,"HCEP03730542","2025-02-09 00:00:00","9.9787","3.28959","26.177","4.822","7.6","0.457","6.609","0.12","0.45","29.7465","4.70228","51.65","0","SATNPRO1509","28.366","0.39728","5"],
    [47970,"HCEP03730542","2025-02-09 00:15:00","9.9784","3.28966","26.379","4.773","7.6","0.407","6.419","0.06","0.31","29.7472","4.70241","51.11","0","SATNPRO1509","28.580000000000002","0.40032","5"],
    [47971,"HCEP03730542","2025-02-09 00:30:00","9.9791","3.29005","26.557","4.789","7.61","0.425","6.271","0.07","0.43","29.7506","4.70288","51.29","0","SATNPRO1509","28.876","0.4044","5"],
    [47972,"HCEP03730542","2025-02-09 00:45:00","9.9796","3.29003","26.732","4.819","7.6","3.218","114.402","2.79","53.37","29.7499","4.70278","51.61","0","SATNPRO1509","28.586","0.4004","5"],
    [47973,"HCEP03730542","2025-02-09 01:00:00","9.9785","3.28973","26.901","4.808","7.6","0.406","7.062","0.05","0.31","29.7477","4.7025","51.49","0","SATNPRO1509","28.352","0.39714","5"],
    [47974,"HCEP03730542","2025-02-09 01:15:00","9.9786","3.28965","27.067","4.796","7.6","0.379","6.507","0.05","0.44","29.7468","4.70238","51.36","0","SATNPRO1509","28.97","0.40578","5"],
    [47975,"HCEP03730542","2025-02-09 01:30:00","9.9783","3.28951","27.215","4.785","7.6","0.421","6.621","0.1","0.35","29.7456","4.70222","51.24","0","SATNPRO1509","28.576","0.40028","5"],
    [47976,"HCEP03730542","2025-02-09 01:45:00","9.9786","3.28949","27.34","4.771","7.6","0.487","6.99","0.12","0.66","29.745","4.70214","51.1","0","SATNPRO1509","28.486","0.39902","5"],
    [47977,"HCEP03730542","2025-02-09 02:00:00","9.9791","3.28949","27.444","4.752","7.6","0.369","5.572","0.05","0.11","29.7446","4.70207","50.89","0","SATNPRO1509","28.346","0.39702","5"],
    [47978,"HCEP03730542","2025-02-09 02:15:00","9.9786","3.28947","27.552","4.732","7.6","0.397","5.964","0.08","0.22","29.7447","4.70211","50.68","0","SATNPRO1509","28.648","0.40124","5"],
    [47979,"HCEP03730542","2025-02-09 02:30:00","9.9766","3.28926","27.63","4.744","7.6","0.403","5.299","0.05","0.15","29.7443","4.70209","50.8","0","SATNPRO1509","28.738","0.4025","5"],
    [47980,"HCEP03730542","2025-02-09 02:45:00","9.9759","3.28917","27.709","4.789","7.6","0.397","4.786","0.06","0.23","29.7439","4.70205","51.29","0","SATNPRO1509","28.804000000000002","0.40346","5"],
    [47981,"HCEP03730542","2025-02-09 03:00:00","9.978","3.28883","27.751","4.802","7.61","0.386","4.289","0.07","0.22","29.7388","4.70128","51.42","0","SATNPRO1509","28.844","0.40396","5"],
    [47982,"HCEP03730542","2025-02-09 03:15:00","9.9811","3.28899","27.773","4.816","7.6","0.419","5.055","0.18","0.32","29.7378","4.70109","51.58","0","SATNPRO1509","28.812","0.40358","5"],
    [47983,"HCEP03730542","2025-02-09 03:30:00","9.98","3.28906","27.788","4.798","7.6","0.492","5.665","0.14","0.32","29.7394","4.70134","51.39","0","SATNPRO1509","28.634","0.40106","5"],
    [47984,"HCEP03730542","2025-02-09 03:45:00","9.9763","3.28817","27.817","4.762","7.6","0.433","6.108","0.09","0.92","29.7335","4.70056","51","0","SATNPRO1509","28.464","0.39868","5"],
    [47985,"HCEP03730542","2025-02-09 04:00:00","9.9698","3.28674","27.826","4.746","7.6","0.393","5.321","0.08","0.17","29.7246","4.6994","50.81","0","SATNPRO1509","28.516000000000002","0.39942","5"],
    [47986,"HCEP03730542","2025-02-09 04:15:00","9.966","3.28579","27.82","4.763","7.6","0.441","5.068","0.11","0.37","29.7182","4.69856","50.99","0","SATNPRO1509","28.631999999999998","0.40104","5"],
    [47987,"HCEP03730542","2025-02-09 04:30:00","9.9687","3.28633","27.791","4.788","7.6","0.44","5.733","0.09","0.73","29.7214","4.69897","51.26","0","SATNPRO1509","28.356","0.3972","5"],
    [47988,"HCEP03730542","2025-02-09 04:45:00","9.9686","3.28549","27.747","4.793","7.61","0.41","4.297","0.1","0.25","29.713","4.69777","51.31","0","SATNPRO1509","29.246000000000002","0.40964","5"],
    [47989,"HCEP03730542","2025-02-09 05:00:00","9.9662","3.28464","27.723","4.921","7.62","0.409","3.148","0.07","0.26","29.7065","4.69688","52.67","0","SATNPRO1509","29.502","0.41324","5"],
    [47990,"HCEP03730542","2025-02-09 05:15:00","9.9662","3.28408","27.675","5.023","7.63","0.455","3.108","0.13","0.83","29.7008","4.69606","53.76","0","SATNPRO1509","30.108","0.42166","5"],
    [47991,"HCEP03730542","2025-02-09 05:30:00","9.9647","3.284","27.617","5.116","7.63","0.421","4.088","0.13","3.38","29.7014","4.69617","54.76","0","SATNPRO1509","29.646","0.41528","5"],
    [47992,"HCEP03730542","2025-02-09 05:45:00","9.985900000000001","3.29004","27.564","5.03","7.61","0.393","5.856","0.07","0.33","29.7445","4.70196","53.87","0","SATNPRO1509","28.704","0.40208","5"],
    [47993,"HCEP03730542","2025-02-09 06:00:00","9.9875","3.29031","27.507","4.813","7.6","0.8","47.979","0.4","28.28","29.7459","4.70213","51.55","0","SATNPRO1509","28.848","0.40404","5"],
    [47994,"HCEP03730542","2025-02-09 06:15:00","9.9912","3.29139","27.437","4.728","7.6","0.375","6.176","0.05","0.26","29.7536","4.70316","50.65","0","SATNPRO1509","28.701999999999998","0.402","5"],
    [47995,"HCEP03730542","2025-02-09 06:30:00","9.9886","3.29072","27.376","4.691","7.6","0.496","7.889","0.09","2.16","29.7492","4.70256","50.25","0","SATNPRO1509","28.958","0.40562","5"],
    [47996,"HCEP03730542","2025-02-09 06:45:00","9.9873","3.29151","27.298","4.748","7.61","0.39","5.034","0.11","0.25","29.7582","4.70387","50.86","0","SATNPRO1509","29.226","0.40936","5"],
    [47997,"HCEP03730542","2025-02-09 07:00:00","9.9886","3.29235","27.231","4.896","7.62","0.385","4.611","0.06","0.27","29.7655","4.70489","52.45","0","SATNPRO1509","29.842","0.41796","5"],
    [47998,"HCEP03730542","2025-02-09 07:15:00","9.9935","3.29332","27.176","4.941","7.61","0.411","5.427","0.1","0.3","29.7713","4.70563","52.94","0","SATNPRO1509","29.258","0.40982","5"],
    [47999,"HCEP03730542","2025-02-09 07:30:00","9.9881","3.29227","27.09","4.921","7.62","0.382","5.099","0.06","0.27","29.7652","4.70485","52.72","0","SATNPRO1509","30.061999999999998","0.42104","5"],
    [48000,"HCEP03730542","2025-02-09 07:45:00","9.982","3.29061","27.016","5.061","7.63","0.357","3.671","0.05","0.18","29.7536","4.70329","54.21","0","SATNPRO1509","30.254","0.4238","5"],
    [48001,"HCEP03730542","2025-02-09 08:00:00","9.9897","3.29258","26.953","5.162","7.63","0.395","5.033","0.1","0.37","29.7671","4.70508","55.3","0","SATNPRO1509","29.886","0.41864","5"],
    [48002,"HCEP03730542","2025-02-09 08:15:00","9.9941","3.29361","26.899","5.041","7.61","0.501","4.848","0.17","0.14","29.7737","4.70594","54.01","0","SATNPRO1509","29.994","0.42012","5"],
    [48003,"HCEP03730542","2025-02-09 08:30:00","9.9939","3.29339","26.859","4.912","7.61","0.363","4.34","0.06","0.25","29.7716","4.70565","52.63","0","SATNPRO1509","29.754","0.41676","5"],
    [48004,"HCEP03730542","2025-02-09 08:45:00","9.9936","3.29318","26.818","4.854","7.61","0.402","4.486","0.04","0.1","29.7699","4.70541","52.01","0","SATNPRO1509","29.402","0.4118","5"],
    [48005,"HCEP03730542","2025-02-09 09:00:00","9.9942","3.29331","26.801","4.822","7.6","0.492","4.978","0.15","0.21","29.7707","4.70551","51.67","0","SATNPRO1509","28.834","0.40386","5"],
    [48006,"HCEP03730542","2025-02-09 09:15:00","9.9937","3.29317","26.798","4.787","7.6","0.421","5.316","0.11","0.41","29.7697","4.70538","51.29","0","SATNPRO1509","28.896","0.40474","5"],
    [48007,"HCEP03730542","2025-02-09 09:30:00","9.9924","3.2926","26.813","4.773","7.6","0.443","5.395","0.11","0.19","29.765","4.70473","51.14","0","SATNPRO1509","28.672","0.4016","5"],
    [48008,"HCEP03730542","2025-02-09 09:45:00","9.9931","3.29254","26.826","4.717","7.59","0.41","7.325","0.07","0.35","29.7638","4.70455","50.54","0","SATNPRO1509","28.456","0.3986","5"],
    [48009,"HCEP03730542","2025-02-09 10:00:00","9.9935","3.29307","26.852","4.663","7.59","0.432","6.96","0.09","0.32","29.7689","4.70527","49.96","0","SATNPRO1509","28.663999999999998","0.4015","5"],
    [48010,"HCEP03730542","2025-02-09 10:15:00","9.9927","3.29339","26.883","4.705","7.6","0.42","6.557","0.1","0.31","29.7727","4.70582","50.41","0","SATNPRO1509","29.008","0.40634","5"],
    [48011,"HCEP03730542","2025-02-09 10:30:00","9.9874","3.29214","26.912","4.834","7.61","0.425","5.585","0.1","0.3","29.7645","4.70475","51.78","0","SATNPRO1509","29.54","0.41372","5"],
    [48012,"HCEP03730542","2025-02-09 10:45:00","9.9848","3.29146","26.94","4.994","7.62","0.398","5.223","0.05","0.19","29.7598","4.70412","53.49","0","SATNPRO1509","29.838","0.41796","5"],
    [48013,"HCEP03730542","2025-02-09 11:00:00","9.9848","3.2916","26.99","5.044","7.62","0.43","6.893","0.06","0.89","29.7612","4.70433","54.03","0","SATNPRO1509","29.413999999999998","0.412","5"],
    [48014,"HCEP03730542","2025-02-09 11:15:00","9.9906","3.2927","27.033","4.976","7.61","0.409","6.35","0.05","0.39","29.7674","4.70512","53.31","0","SATNPRO1509","28.924","0.40516","5"],
    [48015,"HCEP03730542","2025-02-09 11:30:00","9.9819","3.29106","27.057","4.918","7.62","0.421","5.754","0.09","0.32","29.7582","4.70395","52.68","0","SATNPRO1509","30.152","0.42236","5"],
    [48016,"HCEP03730542","2025-02-09 11:45:00","9.984","3.29112","27.1","4.996","7.62","0.415","5.129","0.06","0.6","29.757","4.70375","53.51","0","SATNPRO1509","29.708","0.41614","5"],
    [48017,"HCEP03730542","2025-02-09 12:00:00","9.9752","3.28874","27.142","5.012","7.62","0.418","5.736","0.05","0.78","29.7404","4.70153","53.67","0","SATNPRO1509","30.164","0.42246","5"],
    [48018,"HCEP03730542","2025-02-09 12:15:00","9.9862","3.29161","27.187","5.067","7.61","0.425","8.054","0.05","0.43","29.7601","4.70415","54.28","0","SATNPRO1509","28.89","0.40468","5"],
    [48019,"HCEP03730542","2025-02-09 12:30:00","9.9823","3.29064","27.232","4.879","7.61","0.424","7.993","0.04","0.76","29.7535","4.70329","52.26","0","SATNPRO1509","29.158","0.40842","5"],
    [48020,"HCEP03730542","2025-02-09 12:45:00","9.9756","3.2885","27.276","4.882","7.62","0.4","6.972","0.03","0.29","29.7377","4.70114","52.28","0","SATNPRO1509","29.576","0.41422","5"],
    [48021,"HCEP03730542","2025-02-09 13:00:00","9.9751","3.28921","27.312","5.05","7.62","0.5","6.324","0.17","0.83","29.7451","4.70221","54.08","0","SATNPRO1509","29.916","0.419","5"],
    [48022,"HCEP03730542","2025-02-09 13:15:00","9.9632","3.28506","27.341","5.073","7.64","0.435","3.217","0.04","0.69","29.7134","4.69789","54.3","0","SATNPRO1509","30.362","0.42526","5"],
    [48023,"HCEP03730542","2025-02-09 13:30:00","9.9695","3.2871","27.346","5.293","7.63","0.416","5.029","0.05","0.3","29.7287","4.69996","56.67","0","SATNPRO1509","30.028","0.42058","5"],
    [48024,"HCEP03730542","2025-02-09 13:45:00","9.9663","3.28642","27.37","5.15","7.63","0.429","4.225","0.06","0.18","29.7244","4.69941","55.13","0","SATNPRO1509","29.912","0.41894","5"],
    [48025,"HCEP03730542","2025-02-09 14:00:00","9.9686","3.28717","27.37","5.128","7.62","0.408","4.905","0.04","0.24","29.73","4.70017","54.91","0","SATNPRO1509","29.42","0.41208","5"],
    [48026,"HCEP03730542","2025-02-09 14:15:00","9.9679","3.28699","27.356","5.011","7.61","0.412","5.737","0.05","0.27","29.7288","4.70001","53.64","0","SATNPRO1509","29.21","0.40912","5"],
    [48027,"HCEP03730542","2025-02-09 14:30:00","9.966","3.2865","27.331","4.926","7.61","0.438","5.653","0.06","0.35","29.7255","4.69957","52.74","0","SATNPRO1509","29.108","0.40768","5"],
    [48028,"HCEP03730542","2025-02-09 14:45:00","9.9659","3.28656","27.283","4.897","7.61","0.448","6.405","0.05","0.3","29.7262","4.69966","52.42","0","SATNPRO1509","28.942","0.4054","5"],
    [48029,"HCEP03730542","2025-02-09 15:00:00","9.9665","3.28694","27.15","4.864","7.61","0.415","6.376","0.03","0.36","29.7295","4.70013","52.07","0","SATNPRO1509","28.914","0.40498","5"],
    [48030,"HCEP03730542","2025-02-09 15:15:00","9.9708","3.28826","27.06","4.854","7.6","0.416","7.026","0.05","0.29","29.7393","4.70144","51.97","0","SATNPRO1509","28.8","0.40344","5"],
    [48031,"HCEP03730542","2025-02-09 15:30:00","9.9731","3.28954","26.958","4.84","7.61","0.422","6.463","0.06","0.22","29.7502","4.70295","51.83","0","SATNPRO1509","29.246","0.40964","5"],
    [48032,"HCEP03730542","2025-02-09 15:45:00","9.9785","3.29084","26.852","4.924","7.62","2.08","58.688","3.22","32.77","29.7589","4.70409","52.73","0","SATNPRO1509","29.8","0.41738","5"],
    [48033,"HCEP03730542","2025-02-09 16:00:00","9.9834","3.29211","26.731","5.044","7.62","0.399","5.649","0.05","0.3","29.7675","4.70524","54.04","0","SATNPRO1509","30.004","0.42024","5"],
    [48034,"HCEP03730542","2025-02-09 16:15:00","9.9878","3.29322","26.584","5.109","7.62","0.404","6.816","0.04","0.49","29.7751","4.70623","54.74","0","SATNPRO1509","29.894","0.41872","5"],
    [48035,"HCEP03730542","2025-02-09 16:30:00","9.994","3.29459","26.424","5.127","7.63","0.453","5.05","0.18","0.48","29.7838","4.70736","54.93","0","SATNPRO1509","30.419999999999998","0.42608","5"],
    [48036,"HCEP03730542","2025-02-09 16:45:00","9.9954","3.29498","26.235","5.2","7.63","0.396","4.931","0.09","0.31","29.7867","4.70774","55.72","0","SATNPRO1509","30.414","0.42598","5"],
    [48037,"HCEP03730542","2025-02-09 17:00:00","9.9961","3.29512","26.048","5.211","7.63","0.358","4.892","0.03","0.24","29.7876","4.70785","55.84","0","SATNPRO1509","30.688","0.42984","5"],
    [48038,"HCEP03730542","2025-02-09 17:15:00","9.9964","3.2953","25.851","5.221","7.63","0.544","4.929","0.6","0.29","29.7892","4.70806","55.95","0","SATNPRO1509","30.336000000000002","0.42492","5"],
    [48039,"HCEP03730542","2025-02-09 17:30:00","9.9969","3.29532","25.642","5.219","7.64","0.359","4.828","0.03","0.28","29.789","4.70801","55.93","0","SATNPRO1509","30.216","0.42326","5"],
    [48040,"HCEP03730542","2025-02-09 17:45:00","9.9986","3.29584","25.433","5.233","7.64","6.12","403.286","4.56","225.13","29.793","4.70854","56.09","0","SATNPRO1509","30.374","0.42546","5"],
    [48041,"HCEP03730542","2025-02-09 18:00:00","10.0012","3.29645","25.231","5.244","7.64","8.088","61.858","4.45","30.57","29.797","4.70906","56.21","0","SATNPRO1509","30.608","0.42874","5"],
    [48042,"HCEP03730542","2025-02-09 18:15:00","10.0016","3.29656","25.031","5.253","7.64","11.734","359.562","1.5","118.97","29.7979","4.70916","56.31","0","SATNPRO1509","30.648","0.42926","5"],
    [48043,"HCEP03730542","2025-02-09 18:30:00","10.0032","3.29693","24.835","5.24","7.64","0.356","4.939","0.03","0.19","29.8003","4.70948","56.17","0","SATNPRO1509","30.604","0.42866","5"],
    [48044,"HCEP03730542","2025-02-09 18:45:00","10.0038","3.29712","24.623","5.253","7.64","0.356","5.122","0.06","0.26","29.8017","4.70965","56.3","0","SATNPRO1509","30.564","0.42812","5"],
    [48045,"HCEP03730542","2025-02-09 19:00:00","10.004","3.29714","24.359","5.247","7.64","0.365","5.369","0.13","0.34","29.8019","4.70966","56.24","0","SATNPRO1509","30.348","0.42506","5"],
    [48046,"HCEP03730542","2025-02-09 19:15:00","10.0034","3.29695","24.119","5.234","7.64","0.355","5.534","0.04","0.5","29.8007","4.70947","56.1","0","SATNPRO1509","30.558","0.42802","5"],
    [48047,"HCEP03730542","2025-02-09 19:30:00","10.0038","3.29709","23.954","5.216","7.64","0.385","5.75","0.12","0.44","29.8018","4.70962","55.91","0","SATNPRO1509","30.506","0.42728","5"],
    [48048,"HCEP03730542","2025-02-09 19:45:00","10.004","3.29712","23.876","5.224","7.64","0.341","5.416","0.03","0.27","29.8019","4.70962","56","0","SATNPRO1509","30.716","0.43022","5"],
    [48049,"HCEP03730542","2025-02-09 20:00:00","10.0045","3.29731","23.817","5.234","7.64","0.335","4.461","0.04","0.23","29.8035","4.70984","56.11","0","SATNPRO1509","30.656","0.42936","5"],
    [48050,"HCEP03730542","2025-02-09 20:15:00","10.0039","3.29716","23.755","5.247","7.64","0.31","4.642","0.02","0.21","29.8025","4.70971","56.25","0","SATNPRO1509","30.5","0.4272","5"],
    [48051,"HCEP03730542","2025-02-09 20:30:00","10.0041","3.29725","23.766","5.245","7.64","0.332","4.747","0.04","0.16","29.8032","4.7098","56.22","0","SATNPRO1509","30.644000000000002","0.42926","5"],
    [48052,"HCEP03730542","2025-02-09 20:45:00","10.0041","3.29728","23.75","5.241","7.64","0.358","5.308","0.07","0.3","29.8035","4.70985","56.18","0","SATNPRO1509","30.451999999999998","0.42652","5"],
    [48053,"HCEP03730542","2025-02-09 21:00:00","10.004","3.29733","23.767","5.235","7.64","0.338","4.739","0.06","0.23","29.804","4.70993","56.11","0","SATNPRO1509","30.496","0.42716","5"],
    [48054,"HCEP03730542","2025-02-09 21:15:00","10.004","3.29726","23.809","5.239","7.64","0.375","5.056","0.08","0.2","29.8033","4.70983","56.16","0","SATNPRO1509","30.686","0.42978","5"],
    [48055,"HCEP03730542","2025-02-09 21:30:00","10.003","3.29705","23.84","5.232","7.64","0.347","4.994","0.06","0.25","29.8021","4.70967","56.08","0","SATNPRO1509","30.44","0.42638","5"],
    [48056,"HCEP03730542","2025-02-09 21:45:00","10.0029","3.29692","23.912","5.225","7.64","0.369","4.81","0.08","0.62","29.8008","4.70949","56.01","0","SATNPRO1509","30.458000000000002","0.42662","5"],
    [48057,"HCEP03730542","2025-02-09 22:00:00","10.0028","3.29683","24.062","5.217","7.63","0.379","4.927","0.08","0.27","29.7999","4.70938","55.92","0","SATNPRO1509","30.468","0.42678","5"],
    [48058,"HCEP03730542","2025-02-09 22:15:00","10.004","3.29713","24.198","5.188","7.63","0.326","6.094","0.02","0.21","29.8019","4.70965","55.61","0","SATNPRO1509","30.144","0.42224","5"],
    [48059,"HCEP03730542","2025-02-09 22:30:00","10.0154","3.29987","24.351","5.15","7.63","0.317","5.896","0.02","0.29","29.8199","4.71203","55.22","0","SATNPRO1509","31.402","0.43984","5"],
    [48060,"HCEP03730542","2025-02-09 22:45:00","10.0225","3.30132","24.509","5.15","7.63","0.328","5.027","0.04","0.39","29.8285","4.71315","55.24","0","SATNPRO1509","30.904","0.43286","5"],
    [48061,"HCEP03730542","2025-02-09 23:00:00","10.0252","3.30182","24.717","5.181","7.63","0.339","5.653","0.03","0.36","29.8312","4.71349","55.58","0","SATNPRO1509","30.69","0.42988","5"],
    [48062,"HCEP03730542","2025-02-09 23:15:00","10.0262","3.30197","24.816","5.183","7.63","0.36","5.449","0.05","0.38","29.8318","4.71358","55.6","0","SATNPRO1509","30.882","0.43258","5"],
    [48063,"HCEP03730542","2025-02-09 23:30:00","10.0262","3.30203","25.006","5.191","7.64","0.368","4.864","0.08","0.28","29.8323","4.71365","55.68","0","SATNPRO1509","30.772000000000002","0.43102","5"],
    [48064,"HCEP03730542","2025-02-09 23:45:00","10.0247","3.30169","25.179","5.202","7.64","0.326","5.412","0.03","0.44","29.8301","4.71338","55.79","0","SATNPRO1509","30.788","0.43124","5"],
    [48065,"HCEP03730542","2025-02-10 00:00:00","10.0181","3.30035","25.41","5.201","7.64","0.327","3.891","0.03","0.13","29.822","4.71234","55.77","0","SATNPRO1509","30.856","0.43218","5"],
    [48066,"HCEP03730542","2025-02-10 00:15:00","10.0219","3.30098","25.607","5.213","7.64","0.363","4.546","0.12","0.22","29.8251","4.71273","55.91","0","SATNPRO1509","30.838","0.43192","5"],
    [48067,"HCEP03730542","2025-02-10 00:30:00","10.0043","3.29727","25.806","5.194","7.63","0.362","4.35","0.08","0.28","29.8024","4.70981","55.67","0","SATNPRO1509","30.654","0.42938","5"],
    [48068,"HCEP03730542","2025-02-10 00:45:00","10.0079","3.29781","26.036","5.145","7.63","0.315","4.547","0.02","0.12","29.8048","4.7101","55.16","0","SATNPRO1509","30.233999999999998","0.42346","5"],
    [48069,"HCEP03730542","2025-02-10 01:00:00","10.0021","3.29673","26.248","5.126","7.63","0.31","4.795","0.03","0.19","29.7986","4.70933","54.94","0","SATNPRO1509","30.142","0.4222","5"],
    [48070,"HCEP03730542","2025-02-10 01:15:00","10.0014","3.29662","26.477","5.105","7.63","0.331","4.913","0.04","0.12","29.798","4.70927","54.72","0","SATNPRO1509","30.192","0.42288","5"],
    [48071,"HCEP03730542","2025-02-10 01:30:00","9.9995","3.29622","26.71","5.115","7.63","0.334","5.285","0.03","0.19","29.7954","4.70894","54.82","0","SATNPRO1509","29.828","0.41784","5"],
    [48072,"HCEP03730542","2025-02-10 01:45:00","10.0202","3.30081","26.94","5.137","7.63","0.331","4.846","0.06","0.21","29.8243","4.71273","55.09","0","SATNPRO1509","30.656","0.42934","5"],
    [48073,"HCEP03730542","2025-02-10 02:00:00","10.0261","3.302","27.106","5.125","7.63","0.325","4.959","0.03","0.27","29.8313","4.71363","54.97","0","SATNPRO1509","30.758","0.43082","5"],
    [48074,"HCEP03730542","2025-02-10 02:15:00","10.0309","3.30294","27.286","5.123","7.63","0.299","4.987","0.03","0.27","29.8367","4.71434","54.96","0","SATNPRO1509","30.714","0.43022","5"],
    [48075,"HCEP03730542","2025-02-10 02:30:00","10.0352","3.30382","27.419","5.109","7.63","0.297","5.086","0.02","0.25","29.8418","4.715","54.82","0","SATNPRO1509","30.91","0.43294","5"],
    [48076,"HCEP03730542","2025-02-10 02:45:00","10.0379","3.3043","27.522","5.113","7.63","0.331","5.197","0.06","0.67","29.8444","4.71532","54.87","0","SATNPRO1509","30.846","0.43202","5"],
    [48077,"HCEP03730542","2025-02-10 03:00:00","10.0388","3.30449","27.633","5.121","7.63","0.333","5.824","0.07","0.52","29.8455","4.71547","54.96","0","SATNPRO1509","30.648","0.42928","5"],
    [48078,"HCEP03730542","2025-02-10 03:15:00","10.0398","3.30465","27.721","5.116","7.63","0.308","5.289","0.03","0.37","29.8462","4.71557","54.9","0","SATNPRO1509","30.946","0.43348","5"],
    [48079,"HCEP03730542","2025-02-10 03:30:00","10.0402","3.30471","27.785","5.107","7.63","0.404","5.165","0.35","0.34","29.8465","4.71561","54.81","0","SATNPRO1509","30.774","0.43106","5"],
    [48080,"HCEP03730542","2025-02-10 03:45:00","10.0407","3.3048","27.807","5.114","7.63","0.296","4.76","0.03","0.26","29.8469","4.71565","54.88","0","SATNPRO1509","30.898","0.43278","5"],
    [48081,"HCEP03730542","2025-02-10 04:00:00","10.0406","3.30476","27.858","5.125","7.63","0.318","4.867","0.04","0.31","29.8467","4.71562","55","0","SATNPRO1509","30.796","0.43134","5"],
    [48082,"HCEP03730542","2025-02-10 04:15:00","10.0401","3.30458","27.865","5.133","7.63","0.303","5.113","0.03","0.24","29.8453","4.71544","55.08","0","SATNPRO1509","30.698","0.42998","5"],
    [48083,"HCEP03730542","2025-02-10 04:30:00","10.0392","3.30447","27.878","5.108","7.63","0.305","5.089","0.01","0.21","29.8449","4.7154","54.81","0","SATNPRO1509","30.65","0.4293","5"],
    [48084,"HCEP03730542","2025-02-10 04:45:00","10.0393","3.30446","27.907","5.099","7.63","0.307","5.179","0.03","0.44","29.8447","4.71536","54.72","0","SATNPRO1509","30.718","0.43024","5"],
    [48085,"HCEP03730542","2025-02-10 05:00:00","10.0396","3.30444","27.877","5.094","7.63","0.314","5.03","0.03","0.27","29.8442","4.7153","54.66","0","SATNPRO1509","30.68","0.42976","5"],
    [48086,"HCEP03730542","2025-02-10 05:15:00","10.0384","3.30426","27.881","5.081","7.63","0.299","4.718","0.03","0.23","29.8434","4.71519","54.52","0","SATNPRO1509","30.698","0.42998","5"],
    [48087,"HCEP03730542","2025-02-10 05:30:00","10.0387","3.30432","27.831","5.086","7.63","0.314","4.832","0.03","0.2","29.8438","4.71525","54.58","0","SATNPRO1509","30.626","0.429","5"],
    [48088,"HCEP03730542","2025-02-10 05:45:00","10.0406","3.30467","27.803","5.093","7.63","0.333","5.073","0.08","0.28","29.8457","4.71547","54.65","0","SATNPRO1509","30.822","0.4317","5"],
    [48089,"HCEP03730542","2025-02-10 06:00:00","10.0396","3.30445","27.734","5.109","7.63","0.318","4.142","0.04","0.22","29.8444","4.71531","54.82","0","SATNPRO1509","30.782","0.43118","5"],
    [48090,"HCEP03730542","2025-02-10 06:15:00","10.0328","3.30276","27.677","5.18","7.64","0.323","3.531","0.05","0.29","29.8331","4.71381","55.57","0","SATNPRO1509","31.38","0.43954","5"],
    [48091,"HCEP03730542","2025-02-10 06:30:00","10.0327","3.30274","27.601","5.318","7.64","0.314","3.468","0.03","0.23","29.8331","4.7138","57.05","0","SATNPRO1509","31.226","0.43738","5"],
    [48092,"HCEP03730542","2025-02-10 06:45:00","10.0306","3.30214","27.524","5.351","7.65","0.313","3.197","0.04","0.52","29.8288","4.71322","57.4","0","SATNPRO1509","31.32","0.43868","5"],
    [48093,"HCEP03730542","2025-02-10 07:00:00","10.0269","3.30104","27.445","5.411","7.65","0.359","2.198","0.08","0.15","29.8209","4.71216","58.04","0","SATNPRO1509","31.408","0.43994","5"],
    [48094,"HCEP03730542","2025-02-10 07:15:00","10.0203","3.30052","27.389","5.4","7.64","0.327","3.58","0.07","0.19","29.8211","4.7123","57.91","0","SATNPRO1509","31.106","0.43572","5"],
    [48095,"HCEP03730542","2025-02-10 07:30:00","10.0261","3.30151","27.308","5.285","7.63","0.355","4.948","0.05","0.53","29.8263","4.71294","56.69","0","SATNPRO1509","30.624","0.42894","5"],
    [48096,"HCEP03730542","2025-02-10 07:45:00","10.0272","3.30183","27.218","5.16","7.63","0.323","4.966","0.07","0.22","29.8287","4.71324","55.35","0","SATNPRO1509","30.54","0.42776","5"],
    [48097,"HCEP03730542","2025-02-10 08:00:00","10.0276","3.30191","27.125","5.114","7.63","0.324","5.089","0.02","0.42","29.8291","4.71329","54.86","0","SATNPRO1509","30.464000000000002","0.42672","5"],
    [48098,"HCEP03730542","2025-02-10 08:15:00","10.0249","3.30133","27.029","5.086","7.63","0.361","5.673","0.09","0.66","29.8256","4.71283","54.55","0","SATNPRO1509","30.476","0.4269","5"],
    [48099,"HCEP03730542","2025-02-10 08:30:00","10.0211","3.30043","26.911","5.069","7.63","0.349","6.171","0.03","0.85","29.8198","4.71206","54.36","0","SATNPRO1509","30.482","0.42696","5"],
    [48100,"HCEP03730542","2025-02-10 08:45:00","10.0294","3.3022","26.818","5.064","7.62","0.337","6.458","0.02","0.17","29.8307","4.71347","54.33","0","SATNPRO1509","30.578","0.42832","5"],
    [48101,"HCEP03730542","2025-02-10 09:00:00","10.0297","3.30219","26.746","5.049","7.62","0.373","9.797","0.04","1.93","29.8304","4.71342","54.17","0","SATNPRO1509","30.448","0.42648","5"],
    [48102,"HCEP03730542","2025-02-10 09:15:00","10.032","3.30268","26.72","5.039","7.62","0.357","9.701","0.06","11.4","29.8334","4.71381","54.06","0","SATNPRO1509","30.456","0.42658","5"],
    [48103,"HCEP03730542","2025-02-10 09:30:00","10.0266","3.30167","26.662","5.034","7.62","0.332","5.614","0.03","0.47","29.8277","4.71309","54","0","SATNPRO1509","30.38","0.42556","5"],
    [48104,"HCEP03730542","2025-02-10 09:45:00","10.025","3.30122","26.636","5.055","7.62","0.328","5.726","0.03","1.29","29.8245","4.71266","54.22","0","SATNPRO1509","30.458","0.4266","5"],
    [48105,"HCEP03730542","2025-02-10 10:00:00","10.0392","3.30427","26.609","5.068","7.63","0.315","4.96","0.02","0.31","29.8434","4.71511","54.38","0","SATNPRO1509","30.618","0.42888","5"],
    [48106,"HCEP03730542","2025-02-10 10:15:00","10.0366","3.30376","26.641","5.092","7.63","0.333","5.77","0.04","0.73","29.8404","4.71473","54.64","0","SATNPRO1509","30.676000000000002","0.42964","5"],
    [48107,"HCEP03730542","2025-02-10 10:30:00","10.0378","3.30389","26.679","5.105","7.63","0.321","5.2","0.02","0.59","29.8407","4.71475","54.77","0","SATNPRO1509","30.78","0.43112","5"],
    [48108,"HCEP03730542","2025-02-10 10:45:00","10.0426","3.3049","26.747","5.111","7.62","0.358","6.311","0.05","0.38","29.846800000000002","4.71555","54.85","0","SATNPRO1509","30.364","0.42528","5"],
    [48109,"HCEP03730542","2025-02-10 11:00:00","10.0435","3.30491","26.754","5.055","7.63","0.341","5.933","0.03","1.22","29.8461","4.71543","54.25","0","SATNPRO1509","30.524","0.42754","5"],
    [48110,"HCEP03730542","2025-02-10 11:15:00","10.0457","3.30549","26.789","5.061","7.62","0.358","6.767","0.03","0.54","29.8501","4.71596","54.31","0","SATNPRO1509","30.288","0.42424","5"],
    [48111,"HCEP03730542","2025-02-10 11:30:00","10.0465","3.30566","26.845","5.014","7.62","0.355","6.649","0.03","0.59","29.8512","4.7161","53.82","0","SATNPRO1509","30.242","0.4236","5"],
    [48112,"HCEP03730542","2025-02-10 11:45:00","10.0473","3.30585","26.916","5.007","7.62","0.333","6.913","0.02","0.32","29.8524","4.71627","53.74","0","SATNPRO1509","30.294","0.42432","5"],
    [48113,"HCEP03730542","2025-02-10 12:00:00","10.0481","3.30608","26.938","5.013","7.62","0.345","5.558","0.05","0.24","29.8541","4.7165","53.8","0","SATNPRO1509","30.88","0.43248","5"],
    [48114,"HCEP03730542","2025-02-10 12:15:00","10.0483","3.30625","26.986","5.032","7.62","0.344","5.435","0.11","0.24","29.8556","4.71671","54.01","0","SATNPRO1509","30.458","0.42662","5"],
    [48115,"HCEP03730542","2025-02-10 12:30:00","10.0488","3.30642","27.062","5.052","7.63","0.336","5.148","0.04","0.25","29.8568","4.71688","54.23","0","SATNPRO1509","30.546","0.4278","5"],
    [48116,"HCEP03730542","2025-02-10 12:45:00","10.049","3.3064","27.091","5.08","7.63","0.323","5.501","0.02","0.44","29.8565","4.71683","54.53","0","SATNPRO1509","30.669999999999998","0.42958","5"],
    [48117,"HCEP03730542","2025-02-10 13:00:00","10.0485","3.30631","27.149","5.089","7.63","0.322","5.103","0.02","0.59","29.8559","4.71677","54.62","0","SATNPRO1509","30.716","0.43026","5"],
    [48118,"HCEP03730542","2025-02-10 13:15:00","10.0483","3.30629","27.198","5.099","7.63","0.308","5.353","0.02","0.3","29.8558","4.71676","54.73","0","SATNPRO1509","30.608","0.4287","5"],
    [48119,"HCEP03730542","2025-02-10 13:30:00","10.048","3.30625","27.243","5.094","7.63","0.323","5.025","0.03","0.28","29.8557","4.71675","54.67","0","SATNPRO1509","30.566","0.42812","5"],
    [48120,"HCEP03730542","2025-02-10 13:45:00","10.0481","3.3062","27.287","5.105","7.63","0.342","6.021","0.03","0.36","29.8551","4.71666","54.79","0","SATNPRO1509","30.560000000000002","0.42804","5"],
    [48121,"HCEP03730542","2025-02-10 14:00:00","10.0476","3.30612","27.307","5.094","7.63","0.344","5.623","0.03","0.29","29.8547","4.71661","54.68","0","SATNPRO1509","30.56","0.42802","5"],
    [48122,"HCEP03730542","2025-02-10 14:15:00","10.0473","3.30598","27.357","5.086","7.63","0.332","5.722","0.03","0.24","29.8535","4.71645","54.59","0","SATNPRO1509","30.592","0.42846","5"],
    [48123,"HCEP03730542","2025-02-10 14:30:00","10.0458","3.30573","27.357","5.081","7.63","0.342","5.583","0.05","0.21","29.8522","4.71629","54.54","0","SATNPRO1509","30.48","0.4269","5"],
    [48124,"HCEP03730542","2025-02-10 14:45:00","10.0449","3.30547","27.372","5.086","7.63","0.336","5.681","0.05","0.26","29.8504","4.71606","54.58","0","SATNPRO1509","30.582","0.4283","5"],
    [48125,"HCEP03730542","2025-02-10 15:00:00","10.0432","3.30514","27.374","5.103","7.63","0.34","5.3","0.03","0.24","29.8484","4.7158","54.76","0","SATNPRO1509","30.692","0.4299","5"],
    [48126,"HCEP03730542","2025-02-10 15:15:00","10.0408","3.30463","27.367","5.127","7.63","0.315","5.103","0.02","0.25","29.8454","4.71541","55.02","0","SATNPRO1509","30.816","0.43166","5"],
    [48127,"HCEP03730542","2025-02-10 15:30:00","10.0412","3.30469","27.348","5.159","7.63","0.322","5.221","0.03","0.18","29.8456","4.71543","55.36","0","SATNPRO1509","30.77","0.43098","5"],
    [48128,"HCEP03730542","2025-02-10 15:45:00","10.0401","3.30437","27.283","5.143","7.63","0.313","5.109","0.02","0.25","29.8434","4.71513","55.19","0","SATNPRO1509","30.722","0.4303","5"],
    [48129,"HCEP03730542","2025-02-10 16:00:00","10.0392","3.30421","27.225","5.155","7.63","0.32","5.162","0.02","0.19","29.8426","4.71502","55.32","0","SATNPRO1509","30.726","0.43034","5"],
    [48130,"HCEP03730542","2025-02-10 16:15:00","10.0392","3.30418","27.147","5.158","7.63","0.325","5.289","0.03","0.26","29.8422","4.71497","55.34","0","SATNPRO1509","30.74","0.43056","5"],
    [48131,"HCEP03730542","2025-02-10 16:30:00","10.0392","3.30416","27.04","5.134","7.63","0.319","5.212","0.02","0.18","29.8422","4.71496","55.09","0","SATNPRO1509","30.784","0.43116","5"],
    [48132,"HCEP03730542","2025-02-10 16:45:00","10.0396","3.3042","26.892","5.112","7.63","0.33","5.427","0.05","0.33","29.8422","4.71495","54.85","0","SATNPRO1509","30.572","0.42824","5"],
    [48133,"HCEP03730542","2025-02-10 17:00:00","10.0392","3.30414","26.759","5.087","7.62","0.33","5.451","0.03","0.21","29.842","4.71492","54.58","0","SATNPRO1509","30.546","0.42784","5"],
    [48134,"HCEP03730542","2025-02-10 17:15:00","10.0395","3.30411","26.595","5.07","7.62","0.324","5.607","0.02","0.43","29.8415","4.71483","54.4","0","SATNPRO1509","30.446","0.42646","5"],
    [48135,"HCEP03730542","2025-02-10 17:30:00","10.0381","3.30388","26.409","5.047","7.62","0.328","5.034","0.03","0.39","29.8404","4.71469","54.16","0","SATNPRO1509","30.388","0.42566","5"],
    [48136,"HCEP03730542","2025-02-10 17:45:00","10.0367","3.30358","26.19","5.049","7.62","0.337","5.087","0.04","0.48","29.8387","4.71445","54.18","0","SATNPRO1509","30.532","0.42766","5"],
    [48137,"HCEP03730542","2025-02-10 18:00:00","10.0367","3.30357","25.971","5.058","7.62","0.333","5.128","0.03","0.16","29.8387","4.71444","54.27","0","SATNPRO1509","30.494","0.42712","5"],
    [48138,"HCEP03730542","2025-02-10 18:15:00","10.0364","3.30349","25.761","5.046","7.62","0.319","5.149","0.04","0.38","29.8382","4.71436","54.14","0","SATNPRO1509","30.496","0.42716","5"],
    [48139,"HCEP03730542","2025-02-10 18:30:00","10.0351","3.30321","25.536","5.042","7.62","0.34","5.057","0.04","0.22","29.8366","4.71414","54.1","0","SATNPRO1509","30.57","0.42818","5"],
    [48140,"HCEP03730542","2025-02-10 18:45:00","10.0345","3.30314","25.317","5.064","7.62","0.322","5.091","0.03","0.19","29.8365","4.71412","54.33","0","SATNPRO1509","30.596","0.42854","5"],
    [48141,"HCEP03730542","2025-02-10 19:00:00","10.0339","3.30294","25.115","5.089","7.63","0.334","4.26","0.04","0.18","29.835","4.71392","54.6","0","SATNPRO1509","31.056","0.435","5"],
    [48142,"HCEP03730542","2025-02-10 19:15:00","10.0298","3.30181","24.904","5.125","7.63","0.312","4.607","0.03","0.19","29.8273","4.71287","54.97","0","SATNPRO1509","31.336000000000002","0.43886","5"],
    [48143,"HCEP03730542","2025-02-10 19:30:00","10.0358","3.30336","24.691","5.19","7.63","0.326","4.85","0.03","0.22","29.8378","4.71426","55.68","0","SATNPRO1509","30.88","0.43254","5"],
    [48144,"HCEP03730542","2025-02-10 19:45:00","10.0353","3.30321","24.477","5.076","7.62","0.333","4.956","0.03","0.58","29.8368","4.71412","54.46","0","SATNPRO1509","30.772","0.431","5"],
    [48145,"HCEP03730542","2025-02-10 20:00:00","10.0344","3.30303","24.291","5.065","7.62","0.333","4.302","0.04","0.33","29.8358","4.71397","54.34","0","SATNPRO1509","30.732","0.4305","5"],
    [48146,"HCEP03730542","2025-02-10 20:15:00","10.0298","3.30207","24.119","5.103","7.63","0.327","2.84","0.06","0.25","29.8301","4.71323","54.74","0","SATNPRO1509","31.086000000000002","0.43542","5"],
    [48147,"HCEP03730542","2025-02-10 20:30:00","10.0272","3.3014","23.959","5.169","7.64","0.342","3.415","0.05","0.33","29.8256","4.71262","55.44","0","SATNPRO1509","31.114","0.43582","5"],
    [48148,"HCEP03730542","2025-02-10 20:45:00","10.0252","3.30102","23.806","5.237","7.64","0.329","3.349","0.06","0.27","29.8235","4.71234","56.17","0","SATNPRO1509","31.401999999999997","0.43986","5"],
    [48149,"HCEP03730542","2025-02-10 21:00:00","10.0255","3.30107","23.688","5.292","7.64","0.306","3.035","0.06","0.43","29.8239","4.71239","56.76","0","SATNPRO1509","31.2","0.437","5"],
    [48150,"HCEP03730542","2025-02-10 21:15:00","10.0268","3.30139","23.629","5.308","7.64","0.335","2.868","0.08","0.18","29.826","4.71267","56.93","0","SATNPRO1509","31.084","0.4354","5"],
    [48151,"HCEP03730542","2025-02-10 21:30:00","10.0268","3.30156","23.585","5.304","7.64","0.329","2.994","0.06","0.21","29.8277","4.7129","56.89","0","SATNPRO1509","31.220000000000002","0.43724","5"],
    [48152,"HCEP03730542","2025-02-10 21:45:00","10.0329","3.30266","23.584","5.273","7.63","0.332","3.852","0.05","0.3","29.8337","4.71366","56.57","0","SATNPRO1509","30.842000000000002","0.43202","5"],
    [48153,"HCEP03730542","2025-02-10 22:00:00","10.0349","3.30316","23.627","5.155","7.63","0.337","4.833","0.04","1.14","29.8369","4.71409","55.31","0","SATNPRO1509","30.804","0.43148","5"],
    [48154,"HCEP03730542","2025-02-10 22:15:00","10.0379","3.30359","23.68","5.097","7.62","3.618","276.504","2.5","229.23","29.8389","4.71431","54.69","0","SATNPRO1509","30.55","0.42792","5"],
    [48155,"HCEP03730542","2025-02-10 22:30:00","10.0385","3.30368","23.77","5.021","7.62","0.328","5.601","0.04","0.74","29.8392","4.71435","53.87","0","SATNPRO1509","30.398","0.42578","5"],
    [48156,"HCEP03730542","2025-02-10 22:45:00","10.0441","3.30459","24.02","4.971","7.61","0.335","8.05","0.04","0.53","29.8436","4.7149","53.35","0","SATNPRO1509","29.674","0.4156","5"],
    [48157,"HCEP03730542","2025-02-10 23:00:00","10.0475","3.30613","24.169","4.882","7.61","0.335","6.913","0.05","0.33","29.8561","4.71664","52.4","0","SATNPRO1509","30.26","0.42386","5"],
    [48158,"HCEP03730542","2025-02-10 23:15:00","10.0531","3.30767","24.372","4.963","7.62","0.298","6.382","0.02","0.26","29.8668","4.71808","53.28","0","SATNPRO1509","30.248","0.42368","5"],
    [48159,"HCEP03730542","2025-02-10 23:30:00","10.0558","3.30833","24.502","4.99","7.62","0.306","6.436","0.02","0.31","29.8711","4.71866","53.58","0","SATNPRO1509","30.434","0.42632","5"],
    [48160,"HCEP03730542","2025-02-10 23:45:00","10.0572","3.30874","24.703","5.035","7.62","0.31","5.875","0.03","0.22","29.874","4.71906","54.06","0","SATNPRO1509","30.58","0.42834","5"],
    [48161,"HCEP03730542","2025-02-11 00:00:00","10.0609","3.30965","24.872","5.08","7.63","0.302","5.532","0.02","0.36","29.88","4.71985","54.55","0","SATNPRO1509","30.698","0.43","5"],
    [48162,"HCEP03730542","2025-02-11 00:15:00","10.0626","3.31004","25.057","5.117","7.63","0.297","5.277","0.03","0.29","29.8824","4.72019","54.95","0","SATNPRO1509","30.83","0.4318","5"],
    [48163,"HCEP03730542","2025-02-11 00:30:00","10.057","3.30899","25.283","5.134","7.63","0.297","5.423","0.02","0.39","29.8764","4.71944","55.12","0","SATNPRO1509","30.69","0.42988","5"],
    [48164,"HCEP03730542","2025-02-11 00:45:00","10.0558","3.30848","25.461","5.136","7.63","0.301","5.866","0.02","0.33","29.8722","4.71888","55.14","0","SATNPRO1509","30.684","0.42976","5"],
    [48165,"HCEP03730542","2025-02-11 01:00:00","10.056","3.30857","25.628","5.11","7.63","0.302","5.268","0.02","0.23","29.873","4.71898","54.86","0","SATNPRO1509","30.598","0.4286","5"],
    [48166,"HCEP03730542","2025-02-11 01:15:00","10.0531","3.3079","25.851","5.177","7.63","0.285","4.758","0.02","0.49","29.8685","4.71841","55.58","0","SATNPRO1509","30.806","0.4315","5"],
    [48167,"HCEP03730542","2025-02-11 01:30:00","10.0514","3.30754","26.058","5.127","7.63","0.308","5.142","0.04","0.46","29.8662","4.71812","55.04","0","SATNPRO1509","30.791999999999998","0.43132","5"],
    [48168,"HCEP03730542","2025-02-11 01:45:00","10.0539","3.30809","26.298","5.1","7.63","0.309","6.172","0.02","0.19","29.8696","4.71858","54.75","0","SATNPRO1509","30.580000000000002","0.4283","5"],
    [48169,"HCEP03730542","2025-02-11 02:00:00","10.0615","3.30971","26.545","5.047","7.62","0.318","7.208","0.02","0.21","29.8794","4.71987","54.2","0","SATNPRO1509","30.3","0.42442","5"],
    [48170,"HCEP03730542","2025-02-11 02:15:00","10.0607","3.30957","26.74","5.03","7.62","5.838","57.352","4.86","31.86","29.8786","4.71978","54.02","0","SATNPRO1509","30.422","0.42612","5"],
    [48171,"HCEP03730542","2025-02-11 02:30:00","10.0578","3.30882","26.918","5.024","7.62","10.302","66.206","7.76","20.19","29.8734","4.71909","53.95","0","SATNPRO1509","30.368000000000002","0.4254","5"],
    [48172,"HCEP03730542","2025-02-11 02:45:00","10.056","3.30848","27.09","5.035","7.62","1.126","17.262","1.35","16.55","29.8714","4.71884","54.05","0","SATNPRO1509","30.509999999999998","0.42738","5"],
    [48173,"HCEP03730542","2025-02-11 03:00:00","10.0529","3.3079","27.24","5.067","7.63","7.483","61.725","6.43","19.96","29.8681","4.71844","54.4","0","SATNPRO1509","30.684","0.4298","5"],
    [48174,"HCEP03730542","2025-02-11 03:15:00","10.0573","3.30909","27.376","5.153","7.64","0.549","10.029","0.28","6.75","29.8763","4.71954","55.33","0","SATNPRO1509","31.136","0.4361","5"],
    [48175,"HCEP03730542","2025-02-11 03:30:00","10.0594","3.30966","27.513","5.263","7.64","4.791","49.085","2.55","29.32","29.8802","4.72007","56.51","0","SATNPRO1509","31.066","0.43512","5"],
    [48176,"HCEP03730542","2025-02-11 03:45:00","10.0628","3.31044","27.605","5.256","7.64","2.404","68.589","0.69","19.42","29.8852","4.72073","56.45","0","SATNPRO1509","30.884","0.43258","5"],
    [48177,"HCEP03730542","2025-02-11 04:00:00","10.0671","3.31124","27.669","5.203","7.63","9.361","445.601","6.23","150.16","29.8896","4.72129","55.88","0","SATNPRO1509","30.594","0.42848","5"],
    [48178,"HCEP03730542","2025-02-11 04:15:00","10.0687","3.31152","27.736","5.14","7.63","3.853","56.408","1.88","12.45","29.8911","4.72148","55.21","0","SATNPRO1509","30.566","0.42812","5"],
    [48179,"HCEP03730542","2025-02-11 04:30:00","10.0699","3.31184","27.787","5.123","7.63","1.188","38.169","0.26","7.01","29.8932","4.72176","55.03","0","SATNPRO1509","30.614","0.4288","5"],
    [48180,"HCEP03730542","2025-02-11 04:45:00","10.0701","3.31189","27.809","5.143","7.63","0.303","4.827","0.04","0.32","29.8937","4.72182","55.25","0","SATNPRO1509","30.854","0.43214","5"],
    [48181,"HCEP03730542","2025-02-11 05:00:00","10.0704","3.31192","27.791","5.187","7.64","8.684","355.151","2.18","160.5","29.8936","4.72181","55.71","0","SATNPRO1509","30.946","0.4335","5"],
    [48182,"HCEP03730542","2025-02-11 05:15:00","10.0684","3.31161","27.837","5.208","7.64","0.282","4.849","0.05","0.27","29.8922","4.72164","55.94","0","SATNPRO1509","31.024","0.43452","5"],
    [48183,"HCEP03730542","2025-02-11 05:30:00","10.0644","3.31062","27.817","5.27","7.65","0.29","4.105","0.04","0.5","29.8856","4.72076","56.59","0","SATNPRO1509","31.29","0.4383","5"],
    [48184,"HCEP03730542","2025-02-11 05:45:00","10.0608","3.30987","27.803","5.362","7.65","0.269","2.606","0.02","0.27","29.881","4.72018","57.58","0","SATNPRO1509","31.406","0.43984","5"],
    [48185,"HCEP03730542","2025-02-11 06:00:00","10.0546","3.3084","27.786","5.415","7.65","0.272","2.305","0.02","0.65","29.8715","4.71892","58.14","0","SATNPRO1509","31.312","0.43856","5"],
    [48186,"HCEP03730542","2025-02-11 06:15:00","10.0527","3.3079","27.725","5.442","7.65","0.278","2.106","0.02","0.22","29.8681","4.71846","58.42","0","SATNPRO1509","31.326","0.43878","5"],
    [48187,"HCEP03730542","2025-02-11 06:30:00","10.0471","3.30635","27.666","5.452","7.65","0.297","1.823","0.03","0.18","29.8572","4.71701","58.51","0","SATNPRO1509","31.404","0.43984","5"],
    [48188,"HCEP03730542","2025-02-11 06:45:00","10.0435","3.30552","27.594","5.436","7.65","0.326","1.659","0.08","0.08","29.8519","4.71631","58.34","0","SATNPRO1509","31.362","0.43932","5"],
    [48189,"HCEP03730542","2025-02-11 07:00:00","10.0398","3.30458","27.514","5.347","7.64","0.281","1.817","0.03","0.13","29.8456","4.71547","57.37","0","SATNPRO1509","31.06","0.43508","5"],
    [48190,"HCEP03730542","2025-02-11 07:15:00","10.0476","3.3066","27.434","5.285","7.65","0.282","2.142","0.02","0.42","29.8594","4.7173","56.73","0","SATNPRO1509","31.354","0.43916","5"],
    [48191,"HCEP03730542","2025-02-11 07:30:00","10.0507","3.3074","27.349","5.353","7.65","0.978","19.775","1.64","28.63","29.8649","4.71802","57.47","0","SATNPRO1509","31.236","0.43752","5"],
    [48192,"HCEP03730542","2025-02-11 07:45:00","10.0603","3.3094","27.252","5.298","7.64","0.344","5.504","0.1","0.61","29.877","4.71958","56.89","0","SATNPRO1509","30.744","0.4306","5"],
    [48193,"HCEP03730542","2025-02-11 08:00:00","10.0607","3.30949","27.152","5.201","7.63","0.342","5.47","0.05","0.73","29.8777","4.71966","55.85","0","SATNPRO1509","30.618","0.42886","5"],
    [48194,"HCEP03730542","2025-02-11 08:15:00","10.0612","3.30964","27.049","5.154","7.63","0.328","5.455","0.05","0.76","29.8788","4.7198","55.35","0","SATNPRO1509","30.608","0.4287","5"],
    [48195,"HCEP03730542","2025-02-11 08:30:00","10.0617","3.30967","26.958","5.135","7.63","0.309","5.112","0.03","0.38","29.8787","4.71978","55.14","0","SATNPRO1509","30.648","0.42926","5"],
    [48196,"HCEP03730542","2025-02-11 08:45:00","10.063","3.30995","26.845","5.113","7.63","0.332","5.571","0.05","0.4","29.8804","4.71999","54.9","0","SATNPRO1509","30.448","0.4265","5"],
    [48197,"HCEP03730542","2025-02-11 09:00:00","10.0622","3.30978","26.719","5.102","7.63","0.44","10.687","0.24","9.74","29.8795","4.71987","54.78","0","SATNPRO1509","30.5","0.42718","5"],
    [48198,"HCEP03730542","2025-02-11 09:15:00","10.0634","3.31013","26.629","5.092","7.63","0.315","5.427","0.02","0.32","29.882","4.7202","54.68","0","SATNPRO1509","30.342","0.42496","5"],
    [48199,"HCEP03730542","2025-02-11 09:30:00","10.0631","3.30991","26.557","5.063","7.62","0.337","6.085","0.05","0.65","29.8801","4.71993","54.37","0","SATNPRO1509","30.506","0.42732","5"],
    [48200,"HCEP03730542","2025-02-11 09:45:00","10.0615","3.30963","26.474","5.04","7.62","0.295","5.498","0.02","0.31","29.8787","4.71975","54.12","0","SATNPRO1509","30.644","0.42918","5"],
    [48201,"HCEP03730542","2025-02-11 10:00:00","10.0622","3.30977","26.436","5.028","7.62","0.335","5.722","0.04","0.74","29.8794","4.71985","53.99","0","SATNPRO1509","30.498","0.42716","5"],
    [48202,"HCEP03730542","2025-02-11 10:15:00","10.0633","3.30994","26.383","5.006","7.62","0.304","5.701","0.02","0.39","29.8803","4.71995","53.75","0","SATNPRO1509","30.308","0.42454","5"],
    [48203,"HCEP03730542","2025-02-11 10:30:00","10.0631","3.31001","26.363","4.97","7.62","0.347","6.224","0.08","0.7","29.8812","4.72007","53.37","0","SATNPRO1509","30.468","0.42676","5"],
    [48204,"HCEP03730542","2025-02-11 10:45:00","10.0628","3.30986","26.384","4.956","7.62","0.301","5.137","0.03","0.49","29.8799","4.71991","53.22","0","SATNPRO1509","30.336","0.4249","5"],
    [48205,"HCEP03730542","2025-02-11 11:00:00","10.0576","3.30834","26.419","4.961","7.62","0.304","5.521","0.03","2.62","29.8689","4.71843","53.27","0","SATNPRO1509","30.172","0.4226","5"],
    [48206,"HCEP03730542","2025-02-11 11:15:00","10.0643","3.31023","26.428","4.982","7.62","0.304","5.72","0.05","1.86","29.8823","4.72023","53.5","0","SATNPRO1509","30.284","0.42418","5"],
    [48207,"HCEP03730542","2025-02-11 11:30:00","10.0645","3.31027","26.48","4.935","7.61","0.284","5.305","0.02","0.24","29.8826","4.72026","53","0","SATNPRO1509","30.22","0.42328","5"],
    [48208,"HCEP03730542","2025-02-11 11:45:00","10.0651","3.31037","26.521","4.904","7.61","0.286","5.246","0.02","0.32","29.8831","4.72032","52.67","0","SATNPRO1509","30.086","0.42142","5"],
    [48209,"HCEP03730542","2025-02-11 12:00:00","10.0634","3.31005","26.571","4.886","7.61","0.316","5.096","0.05","0.43","29.8812","4.72008","52.47","0","SATNPRO1509","30.556","0.428","5"],
    [48210,"HCEP03730542","2025-02-11 12:15:00","10.0645","3.31024","26.646","4.874","7.61","0.274","5.133","0.03","0.28","29.8822","4.72021","52.34","0","SATNPRO1509","30.204","0.42304","5"],
    [48211,"HCEP03730542","2025-02-11 12:30:00","10.0671","3.31073","26.719","4.85","7.61","0.313","5.793","0.03","0.45","29.8849","4.72057","52.09","0","SATNPRO1509","29.946","0.41944","5"],
    [48212,"HCEP03730542","2025-02-11 12:45:00","10.0648","3.31029","26.8","4.808","7.61","0.279","5.335","0.02","0.34","29.8823","4.72024","51.63","0","SATNPRO1509","30.026","0.42058","5"],
    [48213,"HCEP03730542","2025-02-11 13:00:00","10.0663","3.31042","26.88","4.82","7.61","0.324","6.154","0.09","0.4","29.8825","4.72024","51.77","0","SATNPRO1509","29.598","0.41458","5"],
    [48214,"HCEP03730542","2025-02-11 13:15:00","10.0675","3.31092","26.959","4.815","7.6","0.294","5.873","0.02","0.25","29.8865","4.72079","51.72","0","SATNPRO1509","29.826","0.4178","5"],
    [48215,"HCEP03730542","2025-02-11 13:30:00","10.0692","3.31117","27.029","4.793","7.6","0.306","6.449","0.02","0.57","29.8874","4.7209","51.48","0","SATNPRO1509","29.964","0.41968","5"],
    [48216,"HCEP03730542","2025-02-11 13:45:00","10.0706","3.31143","27.123","4.782","7.6","0.312","6.118","0.03","0.59","29.8889","4.7211","51.37","0","SATNPRO1509","29.96","0.41966","5"],
    [48217,"HCEP03730542","2025-02-11 14:00:00","10.0698","3.31141","27.188","4.775","7.6","0.303","5.453","0.03","0.38","29.8893","4.72117","51.29","0","SATNPRO1509","30.252","0.42374","5"],
    [48218,"HCEP03730542","2025-02-11 14:15:00","10.0704","3.31145","27.281","4.784","7.6","0.298","6.115","0.03","0.54","29.8892","4.72115","51.38","0","SATNPRO1509","30.244","0.42362","5"],
    [48219,"HCEP03730542","2025-02-11 14:30:00","10.072","3.31181","27.358","4.792","7.6","0.347","6.606","0.06","0.47","29.8914","4.72144","51.47","0","SATNPRO1509","29.599999999999998","0.41456","5"],
    [48220,"HCEP03730542","2025-02-11 14:45:00","10.0698","3.31143","27.388","4.795","7.61","0.3","5.85","0.04","0.43","29.8894","4.7212","51.5","0","SATNPRO1509","30.154","0.42238","5"],
    [48221,"HCEP03730542","2025-02-11 15:00:00","10.0729","3.31203","27.412","4.831","7.61","0.323","7.115","0.03","0.45","29.8929","4.72164","51.9","0","SATNPRO1509","29.733999999999998","0.41644","5"],
    [48222,"HCEP03730542","2025-02-11 15:15:00","10.0735","3.31227","27.438","4.808","7.61","0.32","6.629","0.04","0.37","29.8947","4.7219","51.65","0","SATNPRO1509","29.806","0.4175","5"],
    [48223,"HCEP03730542","2025-02-11 15:30:00","10.0739","3.31243","27.448","4.815","7.61","0.312","6.519","0.04","0.35","29.896","4.72207","51.72","0","SATNPRO1509","29.824","0.4177","5"],
    [48224,"HCEP03730542","2025-02-11 15:45:00","10.0745","3.31253","27.436","4.826","7.61","0.322","6.548","0.04","0.32","29.8965","4.72213","51.84","0","SATNPRO1509","30.008","0.42026","5"],
    [48225,"HCEP03730542","2025-02-11 16:00:00","10.074","3.3125","27.354","4.849","7.61","0.318","6.266","0.03","0.35","29.8966","4.72215","52.09","0","SATNPRO1509","30.169999999999998","0.42258","5"],
    [48226,"HCEP03730542","2025-02-11 16:15:00","10.0719","3.31206","27.341","4.892","7.61","0.303","5.576","0.02","0.26","29.894","4.72181","52.54","0","SATNPRO1509","30.282","0.4242","5"],
    [48227,"HCEP03730542","2025-02-11 16:30:00","10.0719","3.312","27.293","4.948","7.62","0.302","5.234","0.02","0.22","29.8935","4.72173","53.15","0","SATNPRO1509","30.384","0.42558","5"],
    [48228,"HCEP03730542","2025-02-11 16:45:00","10.0712","3.31175","27.231","4.98","7.62","0.301","5.488","0.03","0.21","29.8915","4.72147","53.5","0","SATNPRO1509","30.198","0.42294","5"],
    [48229,"HCEP03730542","2025-02-11 17:00:00","10.0703","3.31151","27.149","4.959","7.62","0.311","5.851","0.05","0.25","29.8899","4.72124","53.27","0","SATNPRO1509","30.134","0.42208","5"],
    [48230,"HCEP03730542","2025-02-11 17:15:00","10.0691","3.31123","27.037","4.943","7.62","0.287","5.681","0.02","0.34","29.8882","4.72101","53.1","0","SATNPRO1509","30.288","0.42424","5"],
    [48231,"HCEP03730542","2025-02-11 17:30:00","10.0678","3.31099","26.916","4.943","7.62","0.292","5.829","0.02","0.55","29.8869","4.72084","53.09","0","SATNPRO1509","30.358","0.4252","5"],
    [48232,"HCEP03730542","2025-02-11 17:45:00","10.0663","3.31074","26.767","4.959","7.62","0.278","4.962","0.02","0.18","29.8857","4.72069","53.25","0","SATNPRO1509","30.412","0.42598","5"],
    [48233,"HCEP03730542","2025-02-11 18:00:00","10.0659","3.31069","26.589","4.974","7.62","0.294","4.947","0.02","0.23","29.8855","4.72066","53.42","0","SATNPRO1509","30.338","0.42492","5"],
    [48234,"HCEP03730542","2025-02-11 18:15:00","10.0666","3.3107","26.399","4.975","7.62","0.285","5.302","0.03","0.32","29.8852","4.72059","53.43","0","SATNPRO1509","30.436","0.42634","5"],
    [48235,"HCEP03730542","2025-02-11 18:30:00","10.0663","3.31061","26.214","4.962","7.62","0.289","5.2","0.02","0.28","29.8846","4.72051","53.29","0","SATNPRO1509","30.424","0.42616","5"],
    [48236,"HCEP03730542","2025-02-11 18:45:00","10.0659","3.31047","26.006","4.948","7.62","0.293","5.174","0.03","0.19","29.8837","4.72036","53.14","0","SATNPRO1509","30.342","0.42498","5"],
    [48237,"HCEP03730542","2025-02-11 19:00:00","10.0653","3.31033","25.781","4.943","7.61","0.289","5.03","0.04","0.25","29.8829","4.72025","53.09","0","SATNPRO1509","30.396","0.42574","5"],
    [48238,"HCEP03730542","2025-02-11 19:15:00","10.0642","3.31016","25.563","4.945","7.62","0.281","4.771","0.02","0.19","29.8821","4.72014","53.1","0","SATNPRO1509","30.328","0.4248","5"],
    [48239,"HCEP03730542","2025-02-11 19:30:00","10.0631","3.30999","25.344","4.956","7.62","0.278","4.486","0.02","0.18","29.8814","4.72005","53.22","0","SATNPRO1509","30.4","0.42578","5"],
    [48240,"HCEP03730542","2025-02-11 19:45:00","10.0618","3.30978","25.142","4.978","7.62","0.273","4.146","0.03","0.21","29.8804","4.71992","53.45","0","SATNPRO1509","30.38","0.4255","5"],
    [48241,"HCEP03730542","2025-02-11 20:00:00","10.0613","3.30961","24.908","4.994","7.62","0.285","4.213","0.02","0.21","29.8793","4.71976","53.63","0","SATNPRO1509","30.48","0.42692","5"],
    [48242,"HCEP03730542","2025-02-11 20:15:00","10.0605","3.30941","24.693","4.994","7.62","0.281","3.885","0.05","0.14","29.878","4.71957","53.63","0","SATNPRO1509","30.52","0.4275","5"],
    [48243,"HCEP03730542","2025-02-11 20:30:00","10.0588","3.30915","24.48","5.007","7.62","0.304","3.608","0.09","0.28","29.8769","4.71943","53.76","0","SATNPRO1509","30.722","0.4303","5"],
    [48244,"HCEP03730542","2025-02-11 20:45:00","10.0581","3.30902","24.269","5.027","7.62","0.275","3.766","0.05","0.17","29.8762","4.71934","53.98","0","SATNPRO1509","30.740000000000002","0.43058","5"],
    [48245,"HCEP03730542","2025-02-11 21:00:00","10.0584","3.30904","24.096","5.048","7.62","0.284","3.581","0.02","0.12","29.8763","4.71933","54.21","0","SATNPRO1509","30.628","0.429","5"],
    [48246,"HCEP03730542","2025-02-11 21:15:00","10.0586","3.309","23.972","5.035","7.62","0.269","3.681","0.03","0.23","29.8758","4.71925","54.07","0","SATNPRO1509","30.562","0.42806","5"],
    [48247,"HCEP03730542","2025-02-11 21:30:00","10.0585","3.30896","23.865","5.031","7.62","0.28","3.725","0.03","0.27","29.8755","4.7192","54.02","0","SATNPRO1509","30.881999999999998","0.43256","5"],
    [48248,"HCEP03730542","2025-02-11 21:45:00","10.0586","3.3089","23.785","5.007","7.62","0.274","4.04","0.04","0.17","29.8749","4.7191","53.76","0","SATNPRO1509","30.8","0.43138","5"],
    [48249,"HCEP03730542","2025-02-11 22:00:00","10.0577","3.30874","23.735","4.972","7.62","0.281","3.922","0.03","0.14","29.874","4.719","53.39","0","SATNPRO1509","30.504","0.42724","5"],
    [48250,"HCEP03730542","2025-02-11 22:15:00","10.0596","3.30898","23.711","4.97","7.61","0.274","4.415","0.02","0.31","29.8749","4.71908","53.37","0","SATNPRO1509","30.54","0.42778","5"],
    [48251,"HCEP03730542","2025-02-11 22:30:00","10.0596","3.30897","23.699","4.938","7.61","0.288","5.021","0.03","0.32","29.8747","4.71906","53.02","0","SATNPRO1509","30.55","0.4279","5"],
    [48252,"HCEP03730542","2025-02-11 22:45:00","10.0586","3.30878","23.708","4.912","7.61","0.295","5.522","0.05","0.21","29.8737","4.71893","52.74","0","SATNPRO1509","30.802","0.43146","5"],
    [48253,"HCEP03730542","2025-02-11 23:00:00","10.0608","3.30899","23.739","4.876","7.6","0.332","7.027","0.06","0.41","29.874","4.71893","52.35","0","SATNPRO1509","30.152","0.42234","5"],
    [48254,"HCEP03730542","2025-02-11 23:15:00","10.0598","3.30879","23.803","4.808","7.6","0.32","6.467","0.09","0.35","29.8728","4.71878","51.62","0","SATNPRO1509","30.078","0.4213","5"],
    [48255,"HCEP03730542","2025-02-11 23:30:00","10.0581","3.30846","23.906","4.79","7.6","0.3","5.545","0.04","0.39","29.8708","4.71854","51.42","0","SATNPRO1509","30.292","0.42434","5"],
    [48256,"HCEP03730542","2025-02-11 23:45:00","10.0576","3.30831","24.046","4.785","7.6","0.279","5.828","0.02","0.31","29.8696","4.71839","51.37","0","SATNPRO1509","30.227999999999998","0.4234","5"],
    [48257,"HCEP03730542","2025-02-12 00:00:00","10.0579","3.30841","24.188","4.775","7.6","0.308","6.24","0.05","0.48","29.8704","4.7185","51.27","0","SATNPRO1509","30.254","0.42378","5"],
    [48258,"HCEP03730542","2025-02-12 00:15:00","10.0615","3.30915","24.359","4.76","7.6","0.288","6.285","0.03","0.41","29.8747","4.71906","51.11","0","SATNPRO1509","30.014","0.4204","5"],
    [48259,"HCEP03730542","2025-02-12 00:30:00","10.0648","3.31002","24.547","4.726","7.6","0.298","6.641","0.02","0.31","29.8806","4.71986","50.76","0","SATNPRO1509","29.876","0.41848","5"],
    [48260,"HCEP03730542","2025-02-12 00:45:00","10.066","3.3104","24.735","4.719","7.6","0.299","7.06","0.05","0.63","29.8833","4.72023","50.68","0","SATNPRO1509","29.918","0.41904","5"],
    [48261,"HCEP03730542","2025-02-12 01:00:00","10.0675","3.31085","24.94","4.728","7.6","0.328","8.069","0.04","0.61","29.8865","4.72068","50.78","0","SATNPRO1509","29.846","0.41802","5"],
    [48262,"HCEP03730542","2025-02-12 01:15:00","10.0689","3.31165","25.152","4.742","7.6","0.305","8.135","0.02","0.29","29.8933","4.72163","50.94","0","SATNPRO1509","29.778","0.41708","5"],
    [48263,"HCEP03730542","2025-02-12 01:30:00","10.0669","3.31196","25.375","4.776","7.61","0.333","8.463","0.05","0.62","29.8979","4.72234","51.29","0","SATNPRO1509","29.832","0.41786","5"],
    [48264,"HCEP03730542","2025-02-12 01:45:00","10.0634","3.31215","25.634","4.883","7.61","0.28","6.237","0.01","0.59","29.9026","4.72308","52.44","0","SATNPRO1509","30.578","0.42828","5"],
    [48265,"HCEP03730542","2025-02-12 02:00:00","10.0588","3.31218","25.854","5.006","7.62","0.289","5.654","0.02","0.28","29.9066","4.72374","53.76","0","SATNPRO1509","30.488","0.42704","5"],
    [48266,"HCEP03730542","2025-02-12 02:15:00","10.0591","3.31218","26.156","5.118","7.63","0.284","5.755","0.03","0.42","29.9063","4.72371","54.96","0","SATNPRO1509","30.372","0.42538","5"],
    [48267,"HCEP03730542","2025-02-12 02:30:00","10.0572","3.31211","26.37","5.131","7.63","0.279","5.261","0.02","0.24","29.907","4.72386","55.11","0","SATNPRO1509","30.419999999999998","0.42608","5"],
    [48268,"HCEP03730542","2025-02-12 02:45:00","10.0551","3.31198","26.616","5.16","7.63","0.287","5.569","0.03","0.41","29.9074","4.72396","55.42","0","SATNPRO1509","30.4","0.42582","5"],
    [48269,"HCEP03730542","2025-02-12 03:00:00","10.0552","3.31188","26.82","5.185","7.63","0.311","6.024","0.05","0.4","29.9062","4.7238","55.68","0","SATNPRO1509","30.532","0.42762","5"],
    [48270,"HCEP03730542","2025-02-12 03:15:00","10.0548","3.31185","26.985","5.198","7.64","0.28","5.07","0.02","0.34","29.9062","4.72382","55.82","0","SATNPRO1509","30.606","0.42872","5"],
    [48271,"HCEP03730542","2025-02-12 03:30:00","10.0547","3.31181","27.144","5.202","7.64","0.299","4.962","0.03","0.3","29.9057","4.72376","55.86","0","SATNPRO1509","30.46","0.42664","5"],
    [48272,"HCEP03730542","2025-02-12 03:45:00","10.0558","3.31173","27.317","5.204","7.64","0.287","5.179","0.02","0.33","29.904","4.72351","55.88","0","SATNPRO1509","30.462","0.42668","5"],
    [48273,"HCEP03730542","2025-02-12 04:00:00","10.056","3.31155","27.455","5.203","7.64","0.281","4.597","0.02","0.19","29.902","4.72323","55.87","0","SATNPRO1509","30.446","0.42648","5"],
    [48274,"HCEP03730542","2025-02-12 04:15:00","10.0562","3.31155","27.566","5.209","7.64","0.29","4.7","0.06","0.35","29.9018","4.7232","55.94","0","SATNPRO1509","30.568","0.42816","5"],
    [48275,"HCEP03730542","2025-02-12 04:30:00","10.0564","3.31153","27.664","5.204","7.64","0.305","4.672","0.07","0.17","29.9014","4.72314","55.88","0","SATNPRO1509","30.608","0.4287","5"],
    [48276,"HCEP03730542","2025-02-12 04:45:00","10.0565","3.31154","27.705","5.199","7.64","0.27","4.97","0.02","0.22","29.9014","4.72314","55.83","0","SATNPRO1509","30.692","0.42988","5"],
    [48277,"HCEP03730542","2025-02-12 05:00:00","10.0562","3.31158","27.737","5.194","7.64","0.273","4.489","0.01","0.35","29.902","4.72324","55.77","0","SATNPRO1509","30.614","0.4288","5"],
    [48278,"HCEP03730542","2025-02-12 05:15:00","10.0561","3.31164","27.759","5.191","7.64","0.274","4.455","0.02","0.37","29.9027","4.72334","55.75","0","SATNPRO1509","30.578","0.42828","5"],
    [48279,"HCEP03730542","2025-02-12 05:30:00","10.0555","3.31162","27.788","5.195","7.64","0.294","3.981","0.04","0.21","29.903","4.7234","55.78","0","SATNPRO1509","30.656","0.42942","5"],
    [48280,"HCEP03730542","2025-02-12 05:45:00","10.0551","3.31177","27.754","5.202","7.64","0.268","4.538","0.02","0.25","29.9048","4.72366","55.87","0","SATNPRO1509","30.576","0.42822","5"],
    [48281,"HCEP03730542","2025-02-12 06:00:00","10.0547","3.31206","27.759","5.202","7.63","0.283","5.18","0.02","0.37","29.908","4.72412","55.87","0","SATNPRO1509","30.412","0.42596","5"],
    [48282,"HCEP03730542","2025-02-12 06:15:00","10.0532","3.31207","27.736","5.183","7.64","0.293","5.848","0.03","0.39","29.9094","4.72435","55.66","0","SATNPRO1509","30.474","0.42686","5"],
    [48283,"HCEP03730542","2025-02-12 06:30:00","10.0521","3.3121","27.688","5.186","7.64","0.281","5.168","0.02","0.23","29.9106","4.72454","55.69","0","SATNPRO1509","30.526","0.4276","5"],
    [48284,"HCEP03730542","2025-02-12 06:45:00","10.0511","3.31204","27.639","5.188","7.64","0.287","4.999","0.03","0.53","29.9109","4.72459","55.71","0","SATNPRO1509","30.55","0.4279","5"],
    [48285,"HCEP03730542","2025-02-12 07:00:00","10.0516","3.31204","27.591","5.197","7.64","0.281","4.506","0.02","0.29","29.9104","4.72451","55.8","0","SATNPRO1509","30.573999999999998","0.4282","5"],
    [48286,"HCEP03730542","2025-02-12 07:15:00","10.0519","3.31196","27.506","5.204","7.64","0.286","4.228","0.03","0.32","29.9094","4.72436","55.88","0","SATNPRO1509","30.586","0.42842","5"],
    [48287,"HCEP03730542","2025-02-12 07:30:00","10.0519","3.31187","27.425","5.204","7.64","0.281","4.154","0.02","0.18","29.9086","4.72424","55.88","0","SATNPRO1509","30.634","0.42904","5"],
    [48288,"HCEP03730542","2025-02-12 07:45:00","10.0526","3.31179","27.333","5.201","7.64","0.274","3.993","0.02","0.21","29.9073","4.72403","55.85","0","SATNPRO1509","30.582","0.42836","5"],
    [48289,"HCEP03730542","2025-02-12 08:00:00","10.0529","3.31174","27.24","5.203","7.64","0.288","4.225","0.04","0.65","29.9066","4.72392","55.87","0","SATNPRO1509","30.68","0.42978","5"],
    [48290,"HCEP03730542","2025-02-12 08:15:00","10.0523","3.31161","27.12","5.209","7.64","0.261","3.839","0.02","0.23","29.9058","4.72381","55.94","0","SATNPRO1509","30.526","0.42756","5"],
    [48291,"HCEP03730542","2025-02-12 08:30:00","10.0514","3.3114","27.026","5.225","7.64","0.267","3.362","0.01","0.22","29.9045","4.72364","56.1","0","SATNPRO1509","30.81","0.43154","5"],
    [48292,"HCEP03730542","2025-02-12 08:45:00","10.0532","3.31154","26.904","5.241","7.64","0.281","4.58","0.02","1.09","29.9045","4.7236","56.28","0","SATNPRO1509","30.666","0.42948","5"],
    [48293,"HCEP03730542","2025-02-12 09:00:00","10.0571","3.31197","26.789","5.19","7.63","0.312","6.105","0.03","0.4","29.9055","4.72367","55.73","0","SATNPRO1509","30.264","0.4239","5"],
    [48294,"HCEP03730542","2025-02-12 09:15:00","10.0506","3.31184","26.672","5.113","7.63","0.291","4.137","0.06","0.25","29.9096","4.72437","54.9","0","SATNPRO1509","30.342","0.425","5"],
    [48295,"HCEP03730542","2025-02-12 09:30:00","10.054","3.31257","26.541","5.16","7.63","0.335","5.792","0.03","0.25","29.9143","4.72496","55.41","0","SATNPRO1509","30.208","0.42308","5"],
    [48296,"HCEP03730542","2025-02-12 09:45:00","10.0499","3.31245","26.423","5.119","7.63","0.335","5.283","0.07","0.35","29.9165","4.72534","54.96","0","SATNPRO1509","30.488","0.42706","5"],
    [48297,"HCEP03730542","2025-02-12 10:00:00","10.0503","3.31289","26.311","5.148","7.63","0.336","5.488","0.02","0.38","29.9206","4.7259","55.28","0","SATNPRO1509","30.572","0.42824","5"],
    [48298,"HCEP03730542","2025-02-12 10:15:00","10.0525","3.31309","26.191","5.155","7.63","0.328","5.429","0.04","0.74","29.9208","4.7259","55.36","0","SATNPRO1509","30.542","0.42776","5"],
    [48299,"HCEP03730542","2025-02-12 10:30:00","10.0547","3.31318","26.123","5.142","7.63","0.325","5.424","0.04","0.3","29.92","4.72574","55.22","0","SATNPRO1509","30.402","0.42582","5"],
    [48300,"HCEP03730542","2025-02-12 10:45:00","10.0562","3.31305","26.075","5.12","7.63","0.306","6.801","0.04","0.66","29.9174","4.72534","54.99","0","SATNPRO1509","30.276","0.42408","5"],
    [48301,"HCEP03730542","2025-02-12 11:00:00","10.0576","3.31276","26.051","5.105","7.63","0.287","5.901","0.02","0.26","29.9133","4.72474","54.83","0","SATNPRO1509","30.326","0.42478","5"],
    [48302,"HCEP03730542","2025-02-12 11:15:00","10.0583","3.3126","26.057","5.102","7.63","0.292","5.777","0.02","0.37","29.9111","4.72441","54.8","0","SATNPRO1509","30.692","0.42986","5"],
    [48303,"HCEP03730542","2025-02-12 11:30:00","10.0591","3.31248","26.078","5.1","7.63","0.342","5.876","0.03","0.6","29.9092","4.72413","54.77","0","SATNPRO1509","30.561999999999998","0.4281","5"],
    [48304,"HCEP03730542","2025-02-12 11:45:00","10.0589","3.31222","26.094","5.093","7.63","0.312","6.165","0.03","1.16","29.9068","4.72379","54.7","0","SATNPRO1509","30.476","0.4269","5"],
    [48305,"HCEP03730542","2025-02-12 12:00:00","10.0623","3.31234","26.131","5.07","7.62","0.318","5.257","0.04","0.25","29.9053","4.72351","54.45","0","SATNPRO1509","30.322","0.42472","5"],
    [48306,"HCEP03730542","2025-02-12 12:15:00","10.0651","3.31261","26.203","5.009","7.62","0.344","7.403","0.05","0.67","29.9056","4.72352","53.8","0","SATNPRO1509","30.164","0.4225","5"],
    [48307,"HCEP03730542","2025-02-12 12:30:00","10.0655","3.31296","26.281","4.951","7.62","0.333","6.344","0.03","0.27","29.9088","4.72397","53.18","0","SATNPRO1509","30.202","0.42298","5"],
    [48308,"HCEP03730542","2025-02-12 12:45:00","10.0662","3.31295","26.371","4.927","7.61","0.279","8.061","0.02","0.64","29.908","4.72385","52.92","0","SATNPRO1509","30.264","0.4239","5"],
    [48309,"HCEP03730542","2025-02-12 13:00:00","10.067","3.31296","26.447","4.914","7.61","0.324","5.375","0.04","0.3","29.9074","4.72375","52.78","0","SATNPRO1509","30.126","0.42198","5"],
    [48310,"HCEP03730542","2025-02-12 13:15:00","10.0673","3.31274","26.551","4.904","7.61","0.318","5.457","0.05","0.49","29.9049","4.7234","52.67","0","SATNPRO1509","30.272000000000002","0.42402","5"],
    [48311,"HCEP03730542","2025-02-12 13:30:00","10.0673","3.31289","26.629","4.897","7.61","0.314","5.593","0.06","0.95","29.9064","4.72362","52.6","0","SATNPRO1509","30.246","0.42364","5"],
    [48312,"HCEP03730542","2025-02-12 13:45:00","10.0668","3.31332","26.743","4.89","7.61","0.315","6.723","0.03","0.62","29.911","4.72429","52.52","0","SATNPRO1509","30.116","0.42182","5"],
    [48313,"HCEP03730542","2025-02-12 14:00:00","10.0666","3.31364","26.831","4.884","7.61","0.378","7.966","0.04","0.53","29.9144","4.72478","52.46","0","SATNPRO1509","29.984","0.41998","5"],
    [48314,"HCEP03730542","2025-02-12 14:15:00","10.0667","3.31372","26.927","4.88","7.61","0.34","7.843","0.05","0.68","29.9151","4.72488","52.42","0","SATNPRO1509","30.068","0.42114","5"],
    [48315,"HCEP03730542","2025-02-12 14:30:00","10.067","3.31351","27.018","4.879","7.61","0.333","6.718","0.06","0.86","29.9127","4.72454","52.41","0","SATNPRO1509","30.112","0.42184","5"],
    [48316,"HCEP03730542","2025-02-12 14:45:00","10.0672","3.31343","27.098","4.889","7.61","0.267","5.22","0.02","0.21","29.9117","4.7244","52.52","0","SATNPRO1509","30.096","0.42152","5"],
    [48317,"HCEP03730542","2025-02-12 15:00:00","10.0671","3.31336","27.175","4.896","7.61","0.315","5.168","0.08","0.29","29.9111","4.72432","52.59","0","SATNPRO1509","30.264","0.42388","5"],
    [48318,"HCEP03730542","2025-02-12 15:15:00","10.0669","3.31347","27.255","4.901","7.61","0.312","5.628","0.04","0.59","29.9123","4.7245","52.65","0","SATNPRO1509","30.056","0.42096","5"],
    [48319,"HCEP03730542","2025-02-12 15:30:00","10.0666","3.3131","27.329","4.907","7.61","0.336","7.572","0.04","0.4","29.9088","4.72401","52.71","0","SATNPRO1509","30.330000000000002","0.42478","5"],
    [48320,"HCEP03730542","2025-02-12 15:45:00","10.0659","3.31333","27.403","4.92","7.61","0.322","6.761","0.03","0.64","29.9117","4.72444","52.85","0","SATNPRO1509","30.354","0.42518","5"],
    [48321,"HCEP03730542","2025-02-12 16:00:00","10.0649","3.31347","27.434","4.931","7.61","0.329","5.454","0.02","0.23","29.9138","4.72476","52.96","0","SATNPRO1509","30.236","0.42354","5"],
    [48322,"HCEP03730542","2025-02-12 16:15:00","10.0641","3.3137","27.446","4.94","7.62","0.308","5.425","0.04","0.67","29.9168","4.72521","53.06","0","SATNPRO1509","30.316","0.42468","5"],
    [48323,"HCEP03730542","2025-02-12 16:30:00","10.0634","3.313","27.448","4.958","7.62","0.278","4.347","0.04","0.18","29.9103","4.72429","53.25","0","SATNPRO1509","30.418","0.42606","5"],
    [48324,"HCEP03730542","2025-02-12 16:45:00","10.0633","3.31416","27.435","4.961","7.61","0.321","6.525","0.04","0.37","29.922","4.72596","53.29","0","SATNPRO1509","30.04","0.42072","5"],
    [48325,"HCEP03730542","2025-02-12 17:00:00","10.0617","3.31313","27.387","4.929","7.62","0.262","4.091","0.02","0.16","29.9132","4.72472","52.94","0","SATNPRO1509","30.512","0.42738","5"],
    [48326,"HCEP03730542","2025-02-12 17:15:00","10.0615","3.31368","27.327","4.992","7.62","0.271","4.72","0.02","0.36","29.9188","4.72553","53.62","0","SATNPRO1509","30.386","0.4256","5"],
    [48327,"HCEP03730542","2025-02-12 17:30:00","10.0623","3.31405","27.261","4.972","7.61","0.295","6.235","0.02","0.29","29.9219","4.72595","53.4","0","SATNPRO1509","29.826","0.41778","5"],
    [48328,"HCEP03730542","2025-02-12 17:45:00","10.0609","3.31396","27.152","4.886","7.61","0.275","5.769","0.02","0.28","29.9222","4.726","52.48","0","SATNPRO1509","30.016","0.42042","5"],
    [48329,"HCEP03730542","2025-02-12 18:00:00","10.0619","3.31407","27.018","4.888","7.61","0.287","6.082","0.02","0.29","29.9225","4.72602","52.5","0","SATNPRO1509","29.716","0.41624","5"],
    [48330,"HCEP03730542","2025-02-12 18:15:00","10.0613","3.31407","26.894","4.855","7.61","0.634","19.193","0.41","11.44","29.923","4.7261","52.15","0","SATNPRO1509","29.84","0.41794","5"],
    [48331,"HCEP03730542","2025-02-12 18:30:00","10.0612","3.31402","26.726","4.853","7.61","0.305","6.619","0.03","1.04","29.9228","4.72606","52.13","0","SATNPRO1509","29.932000000000002","0.41926","5"],
    [48332,"HCEP03730542","2025-02-12 18:45:00","10.0604","3.31391","26.566","4.865","7.61","0.267","4.826","0.02","0.32","29.9224","4.72601","52.26","0","SATNPRO1509","30.276","0.42404","5"],
    [48333,"HCEP03730542","2025-02-12 19:00:00","10.0592","3.31378","26.4","4.909","7.62","1.134","39.439","0.49","19.28","29.9221","4.72597","52.72","0","SATNPRO1509","30.516000000000002","0.42742","5"],
    [48334,"HCEP03730542","2025-02-12 19:15:00","10.0594","3.31378","26.181","4.962","7.62","0.261","4.187","0.02","0.15","29.922","4.72594","53.29","0","SATNPRO1509","30.378","0.42552","5"],
    [48335,"HCEP03730542","2025-02-12 19:30:00","10.0597","3.3138","25.975","4.968","7.62","0.28","4.931","0.02","0.16","29.9221","4.72594","53.36","0","SATNPRO1509","30.374","0.42542","5"],
    [48336,"HCEP03730542","2025-02-12 19:45:00","10.0607","3.31393","25.734","4.947","7.61","0.269","6.245","0.01","4.63","29.9226","4.72599","53.14","0","SATNPRO1509","30.236","0.42356","5"],
    [48337,"HCEP03730542","2025-02-12 20:00:00","10.0592","3.31366","25.492","4.912","7.62","0.262","4.367","0.01","0.44","29.9212","4.7258","52.75","0","SATNPRO1509","30.448","0.4265","5"],
    [48338,"HCEP03730542","2025-02-12 20:15:00","10.0604","3.3136","25.28","4.977","7.62","0.272","4.762","0.02","0.3","29.9198","4.72556","53.46","0","SATNPRO1509","30.488","0.42702","5"],
    [48339,"HCEP03730542","2025-02-12 20:30:00","10.0614","3.31355","25.083","4.986","7.62","0.28","5.239","0.02","0.64","29.9185","4.72536","53.55","0","SATNPRO1509","30.448","0.42646","5"],
    [48340,"HCEP03730542","2025-02-12 20:45:00","10.0613","3.31313","24.858","4.991","7.62","0.576","40.777","0.23","9.83","29.9144","4.72476","53.61","0","SATNPRO1509","30.536","0.42772","5"],
    [48341,"HCEP03730542","2025-02-12 21:00:00","10.0623","3.31309","24.667","4.974","7.62","0.265","3.804","0.03","0.16","29.9133","4.72458","53.43","0","SATNPRO1509","30.652","0.42932","5"],
    [48342,"HCEP03730542","2025-02-12 21:15:00","10.0634","3.31291","24.502","4.971","7.62","0.25","3.563","0.02","0.16","29.9107","4.72417","53.39","0","SATNPRO1509","30.646","0.42924","5"],
    [48343,"HCEP03730542","2025-02-12 21:30:00","10.0637","3.31253","24.266","4.973","7.62","0.271","3.723","0.03","0.38","29.9067","4.72358","53.41","0","SATNPRO1509","30.68","0.42974","5"],
    [48344,"HCEP03730542","2025-02-12 21:45:00","10.0658","3.31266","24.061","4.966","7.62","0.261","3.957","0.03","0.4","29.9064","4.7235","53.34","0","SATNPRO1509","30.464","0.42668","5"],
    [48345,"HCEP03730542","2025-02-12 22:00:00","10.0664","3.31277","23.935","4.935","7.61","0.274","4.412","0.02","0.44","29.9071","4.72357","53.01","0","SATNPRO1509","30.444","0.42644","5"],
    [48346,"HCEP03730542","2025-02-12 22:15:00","10.0669","3.31271","23.837","4.91","7.61","0.26","4.998","0.02","0.74","29.9061","4.72342","52.74","0","SATNPRO1509","30.556","0.42798","5"],
    [48347,"HCEP03730542","2025-02-12 22:30:00","10.0673","3.31283","23.786","4.893","7.61","0.268","5.201","0.02","0.57","29.9069","4.72353","52.56","0","SATNPRO1509","30.376","0.42548","5"],
    [48348,"HCEP03730542","2025-02-12 22:45:00","10.0673","3.3129","23.864","4.874","7.61","0.268","4.673","0.02","0.5","29.9076","4.72363","52.35","0","SATNPRO1509","30.381999999999998","0.42554","5"],
    [48349,"HCEP03730542","2025-02-12 23:00:00","10.0671","3.31274","23.786","4.849","7.61","0.27","4.807","0.03","0.41","29.9063","4.72344","52.09","0","SATNPRO1509","30.612000000000002","0.42878","5"],
    [48350,"HCEP03730542","2025-02-12 23:15:00","10.0667","3.31324","23.825","4.853","7.61","0.281","5.003","0.04","0.59","29.9115","4.72419","52.13","0","SATNPRO1509","30.138","0.42208","5"],
    [48351,"HCEP03730542","2025-02-12 23:30:00","10.0666","3.31321","23.887","4.835","7.61","0.285","5.311","0.03","1.27","29.9113","4.72416","51.94","0","SATNPRO1509","30.24","0.4236","5"],
    [48352,"HCEP03730542","2025-02-12 23:45:00","10.0662","3.31308","23.972","4.84","7.61","0.264","4.793","0.02","0.37","29.9102","4.72403","51.99","0","SATNPRO1509","30.346","0.42504","5"],
    [48353,"HCEP03730542","2025-02-13 00:00:00","10.0649","3.3131","24.092","4.849","7.61","0.273","5.117","0.02","0.6","29.9115","4.72424","52.08","0","SATNPRO1509","30.306","0.4245","5"],
    [48354,"HCEP03730542","2025-02-13 00:15:00","10.0653","3.31321","24.178","4.859","7.61","0.274","5.161","0.02","0.35","29.9122","4.72433","52.19","0","SATNPRO1509","30.22","0.42328","5"],
    [48355,"HCEP03730542","2025-02-13 00:30:00","10.0652","3.31308","24.347","4.862","7.61","0.284","4.793","0.03","0.47","29.911","4.72417","52.22","0","SATNPRO1509","30.456","0.4266","5"],
    [48356,"HCEP03730542","2025-02-13 00:45:00","10.0644","3.31315","24.536","4.874","7.61","0.289","5.101","0.04","0.43","29.9122","4.72438","52.36","0","SATNPRO1509","30.288","0.42422","5"],
    [48357,"HCEP03730542","2025-02-13 01:00:00","10.0635","3.31313","24.713","4.883","7.61","0.286","4.866","0.05","0.29","29.9128","4.72448","52.45","0","SATNPRO1509","30.346","0.42504","5"],
    [48358,"HCEP03730542","2025-02-13 01:15:00","10.0633","3.31305","24.863","4.888","7.61","0.266","4.364","0.02","0.21","29.912","4.72438","52.5","0","SATNPRO1509","30.424","0.42616","5"],
    [48359,"HCEP03730542","2025-02-13 01:30:00","10.0623","3.3126","25.039","4.908","7.61","0.284","4.874","0.03","0.5","29.9082","4.72387","52.71","0","SATNPRO1509","30.398","0.42574","5"],
    [48360,"HCEP03730542","2025-02-13 01:45:00","10.0632","3.3135","25.242","4.926","7.61","0.266","5.488","0.02","0.46","29.9164","4.72503","52.91","0","SATNPRO1509","30.106","0.42162","5"],
    [48361,"HCEP03730542","2025-02-13 02:00:00","10.0615","3.31174","25.427","4.874","7.61","0.322","5.857","0.05","1.83","29.9001","4.72275","52.34","0","SATNPRO1509","30.7","0.43004","5"],
    [48362,"HCEP03730542","2025-02-13 02:15:00","10.0601","3.31067","25.693","4.95","7.61","0.279","4.334","0.03","0.72","29.8905","4.72142","53.16","0","SATNPRO1509","30.986","0.434","5"],
    [48363,"HCEP03730542","2025-02-13 02:30:00","10.0611","3.31145","25.913","4.963","7.61","0.264","4.335","0.02","1.29","29.8974","4.7224","53.3","0","SATNPRO1509","30.722","0.4303","5"],
    [48364,"HCEP03730542","2025-02-13 02:45:00","10.0611","3.31145","26.112","4.956","7.61","0.259","5.405","0.05","9.1","29.8974","4.7224","53.23","0","SATNPRO1509","30.772","0.43104","5"],
    [48365,"HCEP03730542","2025-02-13 03:00:00","10.0624","3.31313","26.364","4.933","7.61","0.341","8.38","0.06","2","29.9129","4.72462","52.98","0","SATNPRO1509","30.344","0.42502","5"],
    [48366,"HCEP03730542","2025-02-13 03:15:00","10.0606","3.31251","26.516","4.915","7.61","0.289","5.767","0.03","0.75","29.9082","4.72398","52.79","0","SATNPRO1509","30.556","0.42794","5"],
    [48367,"HCEP03730542","2025-02-13 03:30:00","10.0614","3.31022","26.739","4.927","7.61","0.282","5.652","0.05","1.64","29.8845","4.72061","52.91","0","SATNPRO1509","30.594","0.42848","5"],
    [48368,"HCEP03730542","2025-02-13 03:45:00","10.0613","3.3101","26.944","4.858","7.6","0.29","4.253","0.04","0.86","29.8833","4.72045","52.17","0","SATNPRO1509","30.67","0.42958","5"],
    [48369,"HCEP03730542","2025-02-13 04:00:00","10.0589","3.30914","27.109","4.828","7.6","0.288","3.906","0.04","0.97","29.8757","4.71941","51.84","0","SATNPRO1509","30.782","0.43116","5"],
    [48370,"HCEP03730542","2025-02-13 04:15:00","10.0566","3.30862","27.256","4.832","7.6","0.267","3.562","0.03","0.92","29.8722","4.71896","51.88","0","SATNPRO1509","30.826","0.43174","5"],
    [48371,"HCEP03730542","2025-02-13 04:30:00","10.0605","3.30969","27.387","4.834","7.6","0.295","10.39","0.06","17.46","29.8797","4.71996","51.9","0","SATNPRO1509","30.714","0.43018","5"],
    [48372,"HCEP03730542","2025-02-13 04:45:00","10.0608","3.30998","27.521","4.805","7.6","0.318","4.376","0.04","0.51","29.8824","4.72035","51.6","0","SATNPRO1509","30.688","0.42984","5"],
    [48373,"HCEP03730542","2025-02-13 05:00:00","10.0645","3.31251","27.602","4.774","7.6","0.298","6.898","0.03","0.91","29.9046","4.72346","51.28","0","SATNPRO1509","29.628","0.415","5"],
    [48374,"HCEP03730542","2025-02-13 05:15:00","10.0643","3.31288","27.675","4.689","7.59","0.317","7.022","0.04","0.73","29.9083","4.724","50.36","0","SATNPRO1509","29.562","0.4141","5"],
    [48375,"HCEP03730542","2025-02-13 05:30:00","10.0635","3.31095","27.7","4.648","7.59","0.299","5.295","0.03","0.34","29.8897","4.72136","49.92","0","SATNPRO1509","30.06","0.42106","5"],
    [48376,"HCEP03730542","2025-02-13 05:45:00","10.0628","3.31037","27.703","4.639","7.59","0.297","4.93","0.05","0.29","29.8845","4.72063","49.82","0","SATNPRO1509","29.96","0.41964","5"],
    [48377,"HCEP03730542","2025-02-13 06:00:00","10.0612","3.30972","27.706","4.638","7.59","0.321","4.03","0.04","0.51","29.8793","4.71992","49.81","0","SATNPRO1509","30.3","0.42442","5"],
    [48378,"HCEP03730542","2025-02-13 06:15:00","10.0609","3.30968","27.686","4.651","7.59","0.311","5.074","0.07","1.26","29.8792","4.7199","49.94","0","SATNPRO1509","30.068","0.42112","5"],
    [48379,"HCEP03730542","2025-02-13 06:30:00","10.0587","3.30909","27.681","4.656","7.59","0.283","3.261","0.05","0.29","29.8751","4.71936","49.99","0","SATNPRO1509","30.75","0.43072","5"],
    [48380,"HCEP03730542","2025-02-13 06:45:00","10.0623","3.31013","27.665","4.689","7.59","0.257","3.534","0.02","0.17","29.8825","4.72036","50.36","0","SATNPRO1509","29.944","0.41938","5"],
    [48381,"HCEP03730542","2025-02-13 07:00:00","10.0629","3.31067","27.613","4.61","7.59","1.594","45.854","1.22","20.07","29.8874","4.72104","49.5","0","SATNPRO1509","29.774","0.41704","5"],
    [48382,"HCEP03730542","2025-02-13 07:15:00","10.0629","3.31077","27.556","4.588","7.59","0.293","4.409","0.09","0.38","29.8885","4.72119","49.27","0","SATNPRO1509","29.72","0.41624","5"],
    [48383,"HCEP03730542","2025-02-13 07:30:00","10.0629","3.31102","27.488","4.607","7.59","0.274","4.705","0.03","0.68","29.8909","4.72154","49.48","0","SATNPRO1509","29.782","0.41714","5"],
    [48384,"HCEP03730542","2025-02-13 07:45:00","10.06","3.30989","27.396","4.63","7.59","0.265","3.559","0.06","0.62","29.8822","4.72033","49.72","0","SATNPRO1509","30.79","0.43128","5"],
    [48385,"HCEP03730542","2025-02-13 08:00:00","10.0594","3.30947","27.295","4.696","7.6","0.26","3.21","0.04","0.37","29.8784","4.7198","50.42","0","SATNPRO1509","30.832","0.43186","5"],
    [48386,"HCEP03730542","2025-02-13 08:15:00","10.0636","3.31192","27.207","4.686","7.59","0.299","5.436","0.03","0.3","29.8995","4.72273","50.33","0","SATNPRO1509","29.244","0.40962","5"],
    [48387,"HCEP03730542","2025-02-13 08:30:00","10.0629","3.31091","27.107","4.569","7.58","0.344","5.159","0.1","0.44","29.89","4.72138","49.06","0","SATNPRO1509","29.73","0.41644","5"],
    [48388,"HCEP03730542","2025-02-13 08:45:00","10.0638","3.31159","27.003","4.543","7.58","0.285","5.773","0.02","0.29","29.8962","4.72224","48.79","0","SATNPRO1509","29.47","0.41276","5"],
    [48389,"HCEP03730542","2025-02-13 09:00:00","10.0651","3.31268","26.908","4.532","7.58","0.293","5.414","0.03","0.27","29.906","4.72362","48.68","0","SATNPRO1509","29.626","0.41496","5"],
    [48390,"HCEP03730542","2025-02-13 09:15:00","10.0666","3.31288","26.793","4.563","7.58","0.338","9.541","0.08","6.53","29.9068","4.72369","49.01","0","SATNPRO1509","29.306","0.41048","5"],
    [48391,"HCEP03730542","2025-02-13 09:30:00","10.0647","3.31219","26.671","4.562","7.59","0.289","5.365","0.03","0.67","29.9016","4.72298","49","0","SATNPRO1509","29.878","0.41848","5"],
    [48392,"HCEP03730542","2025-02-13 09:45:00","10.0629","3.31204","26.533","4.639","7.59","0.276","5.224","0.02","0.28","29.9016","4.72301","49.83","0","SATNPRO1509","30.004","0.42028","5"],
    [48393,"HCEP03730542","2025-02-13 10:00:00","10.0655","3.31253","26.415","4.684","7.59","0.288","5.497","0.04","0.23","29.9044","4.72335","50.31","0","SATNPRO1509","29.814","0.41762","5"],
    [48394,"HCEP03730542","2025-02-13 10:15:00","10.0603","3.31202","26.283","4.676","7.6","0.29","4.978","0.05","0.38","29.9036","4.72332","50.22","0","SATNPRO1509","30.69","0.42986","5"],
    [48395,"HCEP03730542","2025-02-13 10:30:00","10.0628","3.31228","26.165","4.808","7.6","0.269","5.046","0.01","0.23","29.9042","4.72335","51.64","0","SATNPRO1509","30.118","0.4218","5"],
    [48396,"HCEP03730542","2025-02-13 10:45:00","10.0629","3.31227","26.053","4.795","7.6","0.304","5.737","0.03","0.43","29.9041","4.72332","51.5","0","SATNPRO1509","30.462","0.42666","5"],
    [48397,"HCEP03730542","2025-02-13 11:00:00","10.0623","3.31188","25.94","4.751","7.6","0.291","5.657","0.03","0.38","29.9007","4.72285","51.03","0","SATNPRO1509","30.25","0.4237","5"],
    [48398,"HCEP03730542","2025-02-13 11:15:00","10.062","3.31202","25.857","4.771","7.6","0.274","5.541","0.03","0.3","29.9024","4.72309","51.24","0","SATNPRO1509","30.236","0.4235","5"],
    [48399,"HCEP03730542","2025-02-13 11:30:00","10.0623","3.31211","25.81","4.769","7.6","0.281","5.486","0.04","0.4","29.9031","4.72319","51.22","0","SATNPRO1509","30.044","0.42084","5"],
    [48400,"HCEP03730542","2025-02-13 11:45:00","10.0619","3.31238","25.804","4.772","7.6","0.272","5.105","0.04","0.39","29.9061","4.72361","51.25","0","SATNPRO1509","29.934","0.41924","5"],
    [48401,"HCEP03730542","2025-02-13 12:00:00","10.0615","3.31245","25.82","4.743","7.6","0.285","5.196","0.03","0.35","29.9071","4.72377","50.94","0","SATNPRO1509","30.188","0.42282","5"],
    [48402,"HCEP03730542","2025-02-13 12:15:00","10.0608","3.31243","25.855","4.731","7.6","0.287","5.181","0.03","0.4","29.9075","4.72384","50.81","0","SATNPRO1509","29.886","0.41858","5"],
    [48403,"HCEP03730542","2025-02-13 12:30:00","10.0597","3.31209","25.919","4.723","7.6","0.297","4.726","0.03","0.33","29.905","4.7235","50.73","0","SATNPRO1509","29.96","0.41964","5"],
    [48404,"HCEP03730542","2025-02-13 12:45:00","10.0604","3.31241","25.97","4.728","7.6","0.273","4.835","0.03","0.42","29.9075","4.72386","50.77","0","SATNPRO1509","29.631999999999998","0.41502","5"],
    [48405,"HCEP03730542","2025-02-13 13:00:00","10.061","3.31257","26.081","4.682","7.59","0.282","5.738","0.02","0.25","29.9086","4.724","50.28","0","SATNPRO1509","29.424","0.4121","5"],
    [48406,"HCEP03730542","2025-02-13 13:15:00","10.0613","3.31265","26.181","4.631","7.59","0.276","5.901","0.02","0.25","29.9091","4.72407","49.74","0","SATNPRO1509","29.576","0.41426","5"],
    [48407,"HCEP03730542","2025-02-13 13:30:00","10.0612","3.31261","26.282","4.611","7.59","0.273","5.679","0.02","0.19","29.9089","4.72405","49.52","0","SATNPRO1509","29.636","0.4151","5"],
    [48408,"HCEP03730542","2025-02-13 13:45:00","10.0609","3.31266","26.354","4.619","7.59","0.27","6.148","0.02","0.29","29.9096","4.72416","49.61","0","SATNPRO1509","29.59","0.41446","5"],
    [48409,"HCEP03730542","2025-02-13 14:00:00","10.0605","3.3126","26.447","4.624","7.59","0.28","5.768","0.02","0.29","29.9092","4.72413","49.66","0","SATNPRO1509","29.678","0.41568","5"],
    [48410,"HCEP03730542","2025-02-13 14:15:00","10.0604","3.31255","26.542","4.641","7.59","0.269","5.894","0.02","0.43","29.9087","4.72405","49.85","0","SATNPRO1509","29.842","0.41798","5"],
    [48411,"HCEP03730542","2025-02-13 14:30:00","10.0615","3.31276","26.649","4.639","7.59","0.286","6.747","0.01","0.65","29.9098","4.72421","49.83","0","SATNPRO1509","29.742","0.41656","5"],
    [48412,"HCEP03730542","2025-02-13 14:45:00","10.0622","3.31286","26.722","4.598","7.59","0.277","6.604","0.02","0.37","29.9103","4.72427","49.38","0","SATNPRO1509","29.408","0.41192","5"],
    [48413,"HCEP03730542","2025-02-13 15:00:00","10.0618","3.31287","26.838","4.572","7.59","0.31","6.501","0.06","0.47","29.9106","4.72433","49.1","0","SATNPRO1509","29.37","0.41134","5"],
    [48414,"HCEP03730542","2025-02-13 15:15:00","10.0613","3.31278","26.946","4.564","7.59","0.275","6.142","0.02","0.26","29.9101","4.72427","49.02","0","SATNPRO1509","29.451999999999998","0.41254","5"],
    [48415,"HCEP03730542","2025-02-13 15:30:00","10.0622","3.31287","27.066","4.573","7.58","0.276","6.399","0.02","0.31","29.9103","4.72428","49.12","0","SATNPRO1509","29.316000000000003","0.41062","5"],
    [48416,"HCEP03730542","2025-02-13 15:45:00","10.0632","3.31288","27.135","4.56","7.58","0.358","10.249","0.22","9.16","29.9094","4.72415","48.97","0","SATNPRO1509","29.438","0.41234","5"],
    [48417,"HCEP03730542","2025-02-13 16:00:00","10.0632","3.31265","27.205","4.558","7.59","0.283","6.065","0.02","0.22","29.9072","4.72383","48.96","0","SATNPRO1509","29.516","0.41342","5"],
    [48418,"HCEP03730542","2025-02-13 16:15:00","10.0642","3.31255","27.25","4.571","7.58","0.268","6.162","0.01","0.22","29.9053","4.72355","49.09","0","SATNPRO1509","29.458","0.41262","5"],
    [48419,"HCEP03730542","2025-02-13 16:30:00","10.0638","3.31216","27.317","4.556","7.58","0.285","6.309","0.02","0.46","29.9017","4.72305","48.94","0","SATNPRO1509","29.524","0.41356","5"],
    [48420,"HCEP03730542","2025-02-13 16:45:00","10.0637","3.31179","27.317","4.55","7.58","0.301","6.64","0.05","0.39","29.8981","4.72254","48.86","0","SATNPRO1509","29.71","0.41616","5"],
    [48421,"HCEP03730542","2025-02-13 17:00:00","10.0633","3.31143","27.354","4.542","7.58","0.282","5.818","0.02","0.26","29.8948","4.72208","48.78","0","SATNPRO1509","29.706","0.41606","5"],
    [48422,"HCEP03730542","2025-02-13 17:15:00","10.063","3.3112","27.366","4.537","7.58","0.288","6.351","0.03","0.45","29.8928","4.72179","48.73","0","SATNPRO1509","29.592","0.41448","5"],
    [48423,"HCEP03730542","2025-02-13 17:30:00","10.063","3.31103","27.351","4.522","7.58","0.296","6.457","0.02","0.35","29.891","4.72154","48.56","0","SATNPRO1509","29.490000000000002","0.41306","5"],
    [48424,"HCEP03730542","2025-02-13 17:45:00","10.0628","3.31082","27.297","4.502","7.58","0.289","6.424","0.03","0.38","29.8891","4.72127","48.35","0","SATNPRO1509","29.53","0.41362","5"],
    [48425,"HCEP03730542","2025-02-13 18:00:00","10.0621","3.3106","27.268","4.495","7.58","0.296","6.356","0.03","0.36","29.8875","4.72105","48.28","0","SATNPRO1509","29.564","0.4141","5"],
    [48426,"HCEP03730542","2025-02-13 18:15:00","10.0613","3.31027","27.184","4.493","7.58","0.307","6.501","0.04","0.44","29.8849","4.72068","48.25","0","SATNPRO1509","29.541999999999998","0.4138","5"],
    [48427,"HCEP03730542","2025-02-13 18:30:00","10.0605","3.30992","27.09","4.499","7.58","0.296","6.099","0.02","0.41","29.8821","4.72029","48.31","0","SATNPRO1509","29.666","0.41552","5"],
    [48428,"HCEP03730542","2025-02-13 18:45:00","10.0598","3.3097","26.982","4.504","7.58","0.292","5.548","0.03","0.3","29.8805","4.72007","48.37","0","SATNPRO1509","29.754","0.4167","5"],
    [48429,"HCEP03730542","2025-02-13 19:00:00","10.0595","3.30957","26.856","4.505","7.58","0.289","5.248","0.03","0.26","29.8795","4.71993","48.37","0","SATNPRO1509","29.668","0.41558","5"],
    [48430,"HCEP03730542","2025-02-13 19:15:00","10.0594","3.30951","26.729","4.507","7.58","0.302","5.708","0.03","0.35","29.8791","4.71986","48.39","0","SATNPRO1509","29.738","0.41652","5"],
    [48431,"HCEP03730542","2025-02-13 19:30:00","10.0589","3.30941","26.566","4.499","7.58","0.315","5.643","0.04","0.29","29.8786","4.7198","48.31","0","SATNPRO1509","29.61","0.41472","5"],
    [48432,"HCEP03730542","2025-02-13 19:45:00","10.0576","3.30918","26.391","4.51","7.58","0.283","5.22","0.03","0.42","29.8774","4.71963","48.42","0","SATNPRO1509","29.662","0.4155","5"],
    [48433,"HCEP03730542","2025-02-13 20:00:00","10.0567","3.30901","26.198","4.533","7.58","10.805","200.444","2.21","122.67","29.8765","4.71951","48.67","0","SATNPRO1509","29.694","0.41592","5"],
    [48434,"HCEP03730542","2025-02-13 20:15:00","10.0555","3.30875","26.01","4.543","7.58","4.134","419.912","0.59","72.56","29.875","4.7193","48.77","0","SATNPRO1509","29.834","0.41792","5"],
    [48435,"HCEP03730542","2025-02-13 20:30:00","10.055","3.3087","25.796","4.57","7.58","0.311","5.125","0.03","0.72","29.875","4.7193","49.06","0","SATNPRO1509","29.919999999999998","0.41906","5"],
    [48436,"HCEP03730542","2025-02-13 20:45:00","10.0563","3.30887","25.612","4.567","7.58","0.277","4.808","0.02","0.23","29.8757","4.71937","49.03","0","SATNPRO1509","29.758","0.41682","5"],
    [48437,"HCEP03730542","2025-02-13 21:00:00","10.0554","3.30883","25.411","4.555","7.58","0.288","4.654","0.03","0.32","29.8762","4.71944","48.91","0","SATNPRO1509","29.832","0.41786","5"],
    [48438,"HCEP03730542","2025-02-13 21:15:00","10.0559","3.30899","25.193","4.571","7.58","0.29","4.83","0.04","0.33","29.8775","4.7196","49.08","0","SATNPRO1509","29.808","0.4175","5"],
    [48439,"HCEP03730542","2025-02-13 21:30:00","10.0572","3.30931","25.006","4.56","7.58","0.29","4.848","0.04","0.33","29.8795","4.71987","48.96","0","SATNPRO1509","29.648","0.41526","5"],
    [48440,"HCEP03730542","2025-02-13 21:45:00","10.0574","3.3096","24.825","4.541","7.58","0.3","5.221","0.03","0.49","29.8824","4.72026","48.76","0","SATNPRO1509","29.602","0.4146","5"],
    [48441,"HCEP03730542","2025-02-13 22:00:00","10.0576","3.30983","24.647","4.538","7.58","0.306","5.234","0.05","0.43","29.8847","4.72057","48.73","0","SATNPRO1509","29.652","0.4153","5"],
    [48442,"HCEP03730542","2025-02-13 22:15:00","10.0581","3.3101","24.476","4.541","7.58","0.279","5.145","0.03","0.28","29.8869","4.72087","48.76","0","SATNPRO1509","29.646","0.41522","5"],
    [48443,"HCEP03730542","2025-02-13 22:30:00","10.0588","3.31033","24.336","4.533","7.58","0.275","5.115","0.02","0.19","29.8888","4.72112","48.67","0","SATNPRO1509","29.56","0.41404","5"],
    [48444,"HCEP03730542","2025-02-13 22:45:00","10.0594","3.31052","24.212","4.524","7.58","0.268","5.03","0.03","0.27","29.8901","4.72129","48.58","0","SATNPRO1509","29.552","0.41388","5"],
    [48445,"HCEP03730542","2025-02-13 23:00:00","10.059","3.31066","24.137","4.525","7.58","0.263","5.157","0.02","0.29","29.892","4.72156","48.6","0","SATNPRO1509","29.616","0.41482","5"],
    [48446,"HCEP03730542","2025-02-13 23:15:00","10.0571","3.31035","24.074","4.531","7.58","0.258","4.443","0.03","0.19","29.8905","4.72137","48.65","0","SATNPRO1509","29.79","0.41724","5"],
    [48447,"HCEP03730542","2025-02-13 23:30:00","10.0602","3.31072","24.063","4.541","7.58","0.296","5.192","0.05","0.21","29.8916","4.72148","48.77","0","SATNPRO1509","29.508","0.4133","5"],
    [48448,"HCEP03730542","2025-02-13 23:45:00","10.06","3.31042","24.068","4.493","7.58","0.281","5.713","0.05","0.3","29.8888","4.72108","48.25","0","SATNPRO1509","29.454","0.41256","5"],
    [48449,"HCEP03730542","2025-02-14 00:00:00","10.0592","3.31012","24.106","4.475","7.58","0.299","5.88","0.04","0.81","29.8863","4.72075","48.05","0","SATNPRO1509","29.564","0.41412","5"],
    [48450,"HCEP03730542","2025-02-14 00:15:00","10.0586","3.30993","24.169","4.464","7.57","0.265","5.548","0.02","0.35","29.885","4.72057","47.94","0","SATNPRO1509","29.384","0.4116","5"],
    [48451,"HCEP03730542","2025-02-14 00:30:00","10.0572","3.30967","24.242","4.471","7.58","0.294","5.132","0.05","0.41","29.8835","4.72038","48.01","0","SATNPRO1509","29.752","0.41672","5"],
    [48452,"HCEP03730542","2025-02-14 00:45:00","10.0563","3.30942","24.336","4.513","7.58","0.264","4.677","0.03","0.18","29.8817","4.72015","48.46","0","SATNPRO1509","29.824","0.41774","5"],
    [48453,"HCEP03730542","2025-02-14 01:00:00","10.0559","3.30919","24.467","4.535","7.58","0.262","4.947","0.02","0.19","29.8797","4.71988","48.7","0","SATNPRO1509","29.74","0.41656","5"],
    [48454,"HCEP03730542","2025-02-14 01:15:00","10.0552","3.30898","24.616","4.544","7.58","0.282","5.114","0.05","0.71","29.8781","4.71967","48.79","0","SATNPRO1509","29.948","0.41948","5"],
    [48455,"HCEP03730542","2025-02-14 01:30:00","10.055","3.30895","24.801","4.545","7.58","0.296","4.856","0.05","0.43","29.8779","4.71966","48.79","0","SATNPRO1509","29.872","0.4184","5"],
    [48456,"HCEP03730542","2025-02-14 01:45:00","10.0562","3.30874","24.998","4.537","7.58","0.298","5.804","0.05","1.05","29.8747","4.71919","48.71","0","SATNPRO1509","29.692","0.41588","5"],
    [48457,"HCEP03730542","2025-02-14 02:00:00","10.0559","3.30846","25.187","4.5","7.58","0.295","5.625","0.02","0.21","29.872","4.71883","48.31","0","SATNPRO1509","29.708","0.41612","5"],
    [48458,"HCEP03730542","2025-02-14 02:15:00","10.0525","3.30781","25.389","4.505","7.58","0.278","5.334","0.06","0.34","29.8683","4.71836","48.36","0","SATNPRO1509","29.862","0.41826","5"],
    [48459,"HCEP03730542","2025-02-14 02:30:00","10.0535","3.30792","25.589","4.537","7.58","0.285","5.235","0.04","0.2","29.8685","4.71838","48.71","0","SATNPRO1509","29.808","0.41752","5"],
    [48460,"HCEP03730542","2025-02-14 02:45:00","10.0528","3.30759","25.791","4.517","7.58","0.252","4.315","0.02","0.22","29.8657","4.71801","48.5","0","SATNPRO1509","29.934","0.41928","5"],
    [48461,"HCEP03730542","2025-02-14 03:00:00","10.0509","3.30674","25.982","4.507","7.58","0.27","4.622","0.03","0.23","29.8587","4.71705","48.38","0","SATNPRO1509","30.07","0.42118","5"],
    [48462,"HCEP03730542","2025-02-14 03:15:00","10.0521","3.307","26.195","4.492","7.57","0.272","4.66","0.03","0.17","29.8602","4.71727","48.22","0","SATNPRO1509","30.012","0.42038","5"],
    [48463,"HCEP03730542","2025-02-14 03:30:00","10.0516","3.30698","26.396","4.481","7.57","0.264","4.55","0.02","0.37","29.8604","4.71731","48.1","0","SATNPRO1509","30.062","0.42106","5"],
    [48464,"HCEP03730542","2025-02-14 03:45:00","10.0507","3.30673","26.615","4.476","7.57","0.247","4.288","0.02","0.28","29.8585","4.71707","48.04","0","SATNPRO1509","30.016","0.42042","5"],
    [48465,"HCEP03730542","2025-02-14 04:00:00","10.0516","3.30696","26.83","4.476","7.57","0.27","4.107","0.07","0.36","29.86","4.71728","48.05","0","SATNPRO1509","30.086","0.4214","5"],
    [48466,"HCEP03730542","2025-02-14 04:15:00","10.0513","3.30688","27.01","4.473","7.57","0.244","4.192","0.02","0.24","29.8594","4.7172","48.01","0","SATNPRO1509","30.08","0.42132","5"],
    [48467,"HCEP03730542","2025-02-14 04:30:00","10.0561","3.30837","27.159","4.471","7.57","0.271","5.536","0.01","0.27","29.8702","4.71868","48","0","SATNPRO1509","29.698","0.41596","5"],
    [48468,"HCEP03730542","2025-02-14 04:45:00","10.0544","3.308","27.299","4.446","7.57","0.269","5.139","0.04","0.19","29.8679","4.71838","47.73","0","SATNPRO1509","29.934","0.41926","5"],
    [48469,"HCEP03730542","2025-02-14 05:00:00","10.0559","3.30834","27.433","4.443","7.57","0.271","5.31","0.03","0.33","29.8699","4.71866","47.7","0","SATNPRO1509","29.694","0.41594","5"],
    [48470,"HCEP03730542","2025-02-14 05:15:00","10.0576","3.30879","27.548","4.431","7.57","0.274","6.431","0.01","0.26","29.873","4.71907","47.58","0","SATNPRO1509","29.458","0.4126","5"],
    [48471,"HCEP03730542","2025-02-14 05:30:00","10.0578","3.3087","27.635","4.407","7.57","0.281","6.335","0.02","0.21","29.872","4.71893","47.32","0","SATNPRO1509","29.402","0.41186","5"],
    [48472,"HCEP03730542","2025-02-14 05:45:00","10.0586","3.30901","27.681","4.398","7.57","0.28","5.77","0.03","0.25","29.8743","4.71925","47.23","0","SATNPRO1509","29.494","0.41308","5"],
    [48473,"HCEP03730542","2025-02-14 06:00:00","10.0592","3.30938","27.69","4.39","7.57","0.281","5.911","0.02","0.23","29.8775","4.71969","47.14","0","SATNPRO1509","29.462","0.41268","5"],
    [48474,"HCEP03730542","2025-02-14 06:15:00","10.0607","3.30986","27.7","4.388","7.57","0.273","6.069","0.02","0.32","29.8811","4.72019","47.12","0","SATNPRO1509","29.272","0.40998","5"],
    [48475,"HCEP03730542","2025-02-14 06:30:00","10.0611","3.31015","27.689","4.377","7.57","0.279","6.161","0.03","0.34","29.8837","4.72055","47","0","SATNPRO1509","29.278","0.41006","5"],
    [48476,"HCEP03730542","2025-02-14 06:45:00","10.06","3.31033","27.698","4.387","7.57","0.277","5.633","0.04","0.24","29.8865","4.72096","47.11","0","SATNPRO1509","29.35","0.41108","5"],
    [48477,"HCEP03730542","2025-02-14 07:00:00","10.0593","3.3105","27.699","4.425","7.57","0.275","5.675","0.04","0.29","29.8887","4.72129","47.52","0","SATNPRO1509","29.478","0.41292","5"],
    [48478,"HCEP03730542","2025-02-14 07:15:00","10.0605","3.31052","27.668","4.436","7.57","0.271","5.687","0.02","0.22","29.888","4.72116","47.64","0","SATNPRO1509","29.446","0.41244","5"],
    [48479,"HCEP03730542","2025-02-14 07:30:00","10.0598","3.3103","27.637","4.428","7.57","0.275","6.065","0.02","0.23","29.8862","4.72092","47.55","0","SATNPRO1509","29.682","0.41572","5"],
    [48480,"HCEP03730542","2025-02-14 07:45:00","10.0596","3.30988","27.581","4.433","7.57","0.275","6.167","0.02","0.3","29.8823","4.72036","47.61","0","SATNPRO1509","29.746","0.41664","5"],
    [48481,"HCEP03730542","2025-02-14 08:00:00","10.0591","3.30968","27.496","4.467","7.58","0.286","5.691","0.02","0.67","29.8807","4.72014","47.96","0","SATNPRO1509","30.07","0.42118","5"],
    [48482,"HCEP03730542","2025-02-14 08:15:00","10.0569","3.3091","27.349","4.518","7.58","0.281","6.059","0.03","1.25","29.8768","4.71961","48.51","0","SATNPRO1509","30.256","0.42376","5"],
    [48483,"HCEP03730542","2025-02-14 08:30:00","10.0583","3.30987","27.275","4.568","7.58","0.27","5.523","0.02","0.65","29.8833","4.72051","49.05","0","SATNPRO1509","30.254","0.42374","5"],
    [48484,"HCEP03730542","2025-02-14 08:45:00","10.054","3.30895","27.184","4.6","7.59","0.258","5.015","0.02","0.18","29.8778","4.7198","49.38","0","SATNPRO1509","30.432","0.42626","5"],
    [48485,"HCEP03730542","2025-02-14 09:00:00","10.0525","3.30823","27.082","4.66","7.59","0.269","5.339","0.01","0.21","29.8719","4.71897","50.02","0","SATNPRO1509","30.388","0.42566","5"],
    [48486,"HCEP03730542","2025-02-14 09:15:00","10.052","3.30812","26.991","4.695","7.59","0.274","5.559","0.03","0.24","29.8712","4.71888","50.4","0","SATNPRO1509","30.468","0.42676","5"],
    [48487,"HCEP03730542","2025-02-14 09:30:00","10.0503","3.30724","26.85","4.689","7.59","0.277","5.479","0.02","0.3","29.8638","4.71785","50.34","0","SATNPRO1509","30.588","0.42842","5"],
    [48488,"HCEP03730542","2025-02-14 09:45:00","10.0506","3.30702","26.731","4.714","7.59","0.27","5.414","0.03","0.37","29.8615","4.7175","50.6","0","SATNPRO1509","30.646","0.42926","5"],
    [48489,"HCEP03730542","2025-02-14 10:00:00","10.0512","3.30711","26.598","4.73","7.59","0.276","5.103","0.02","0.43","29.8619","4.71754","50.77","0","SATNPRO1509","30.814","0.4316","5"],
    [48490,"HCEP03730542","2025-02-14 10:15:00","10.0514","3.30709","26.483","4.72","7.59","0.263","5.038","0.02","0.38","29.8616","4.71749","50.67","0","SATNPRO1509","30.662","0.42948","5"],
    [48491,"HCEP03730542","2025-02-14 10:30:00","10.0509","3.30676","26.358","4.71","7.59","0.275","4.936","0.02","0.39","29.8588","4.71709","50.56","0","SATNPRO1509","30.808","0.43154","5"],
    [48492,"HCEP03730542","2025-02-14 10:45:00","10.0511","3.30663","26.193","4.701","7.59","0.298","5.458","0.06","0.51","29.8573","4.71687","50.46","0","SATNPRO1509","30.948","0.43346","5"],
    [48493,"HCEP03730542","2025-02-14 11:00:00","10.0498","3.30624","26.019","4.689","7.59","0.323","5.759","0.05","0.5","29.8546","4.71649","50.33","0","SATNPRO1509","30.794","0.4313","5"],
    [48494,"HCEP03730542","2025-02-14 11:15:00","10.0508","3.3064","25.848","4.686","7.59","0.278","6.014","0.02","0.45","29.8554","4.71658","50.3","0","SATNPRO1509","30.884","0.4326","5"],
    [48495,"HCEP03730542","2025-02-14 11:30:00","10.0516","3.30662","25.713","4.673","7.59","0.286","5.456","0.04","0.43","29.857","4.71679","50.16","0","SATNPRO1509","30.862","0.43228","5"],
    [48496,"HCEP03730542","2025-02-14 11:45:00","10.0513","3.30638","25.587","4.655","7.59","0.272","5.358","0.02","0.43","29.8549","4.71649","49.97","0","SATNPRO1509","30.849999999999998","0.4321","5"],
    [48497,"HCEP03730542","2025-02-14 12:00:00","10.0508","3.3062","25.586","4.641","7.59","0.286","5.396","0.02","0.39","29.8535","4.7163","49.82","0","SATNPRO1509","30.868","0.43238","5"],
    [48498,"HCEP03730542","2025-02-14 12:15:00","10.0504","3.306","25.591","4.629","7.59","0.289","5.493","0.03","0.37","29.8518","4.71606","49.69","0","SATNPRO1509","30.854","0.43216","5"],
    [48499,"HCEP03730542","2025-02-14 12:30:00","10.0501","3.30596","25.651","4.623","7.58","0.285","5.085","0.05","0.22","29.8517","4.71605","49.62","0","SATNPRO1509","30.812","0.43158","5"],
    [48500,"HCEP03730542","2025-02-14 12:45:00","10.0501","3.30594","25.68","4.617","7.58","0.274","4.733","0.03","0.24","29.8514","4.71602","49.56","0","SATNPRO1509","30.748","0.4306","5"],
    [48501,"HCEP03730542","2025-02-14 13:00:00","10.0498","3.30577","25.738","4.615","7.58","0.272","4.551","0.02","0.25","29.85","4.71582","49.54","0","SATNPRO1509","30.824","0.43172","5"],
    [48502,"HCEP03730542","2025-02-14 13:15:00","10.0493","3.30563","25.814","4.618","7.58","0.268","4.786","0.02","0.3","29.849","4.71569","49.57","0","SATNPRO1509","30.882","0.43258","5"],
    [48503,"HCEP03730542","2025-02-14 13:30:00","10.0489","3.30555","25.846","4.615","7.58","0.266","4.679","0.01","0.21","29.8484","4.71562","49.54","0","SATNPRO1509","30.876","0.43246","5"],
    [48504,"HCEP03730542","2025-02-14 13:45:00","10.0476","3.30517","25.958","4.607","7.58","0.269","4.565","0.02","0.33","29.8457","4.71526","49.45","0","SATNPRO1509","30.862","0.43228","5"],
    [48505,"HCEP03730542","2025-02-14 14:00:00","10.0488","3.30548","26.035","4.591","7.58","0.284","4.949","0.04","0.21","29.8479","4.71555","49.27","0","SATNPRO1509","30.77","0.431","5"],
    [48506,"HCEP03730542","2025-02-14 14:15:00","10.0492","3.30568","26.161","4.587","7.58","0.271","4.826","0.02","0.24","29.8494","4.71576","49.23","0","SATNPRO1509","30.822","0.43172","5"],
    [48507,"HCEP03730542","2025-02-14 14:30:00","10.05","3.30589","26.251","4.591","7.58","0.277","4.385","0.03","0.31","29.8508","4.71596","49.27","0","SATNPRO1509","30.986","0.43404","5"],
    [48508,"HCEP03730542","2025-02-14 14:45:00","10.0513","3.30617","26.38","4.597","7.58","0.259","4.573","0.02","0.33","29.8525","4.71619","49.34","0","SATNPRO1509","30.812","0.4316","5"],
    [48509,"HCEP03730542","2025-02-14 15:00:00","10.0516","3.30635","26.488","4.581","7.58","0.266","4.913","0.03","0.23","29.854","4.7164","49.18","0","SATNPRO1509","30.822","0.43174","5"],
    [48510,"HCEP03730542","2025-02-14 15:15:00","10.0517","3.30624","26.534","4.559","7.58","0.255","4.512","0.02","0.27","29.8528","4.71623","48.93","0","SATNPRO1509","30.826","0.4318","5"],
    [48511,"HCEP03730542","2025-02-14 15:30:00","10.0525","3.30635","26.66","4.544","7.58","0.276","5.433","0.02","0.43","29.8532","4.71628","48.78","0","SATNPRO1509","30.528","0.42762","5"],
    [48512,"HCEP03730542","2025-02-14 15:45:00","10.0523","3.30633","26.774","4.513","7.58","0.293","5.57","0.04","0.33","29.8531","4.71627","48.44","0","SATNPRO1509","30.52","0.42748","5"],
    [48513,"HCEP03730542","2025-02-14 16:00:00","10.052","3.30633","26.828","4.498","7.58","0.276","5.317","0.02","0.44","29.8533","4.71632","48.28","0","SATNPRO1509","30.509999999999998","0.42734","5"],
    [48514,"HCEP03730542","2025-02-14 16:15:00","10.0523","3.30643","26.935","4.499","7.58","0.265","5.406","0.02","0.37","29.854","4.71642","48.29","0","SATNPRO1509","30.59","0.42848","5"],
    [48515,"HCEP03730542","2025-02-14 16:30:00","10.0517","3.3064","26.955","4.514","7.58","0.273","4.846","0.02","0.21","29.8543","4.71646","48.46","0","SATNPRO1509","30.818","0.43164","5"],
    [48516,"HCEP03730542","2025-02-14 16:45:00","10.0517","3.30647","26.987","4.546","7.58","0.286","5.387","0.04","0.59","29.855","4.71657","48.8","0","SATNPRO1509","30.884","0.43256","5"],
    [48517,"HCEP03730542","2025-02-14 17:00:00","10.0526","3.30678","27.111","4.571","7.58","0.267","5.431","0.01","0.47","29.8573","4.71689","49.07","0","SATNPRO1509","30.738","0.4305","5"],
    [48518,"HCEP03730542","2025-02-14 17:15:00","10.0514","3.30662","27.18","4.572","7.58","0.274","5.37","0.02","0.23","29.8566","4.71682","49.08","0","SATNPRO1509","30.706","0.43008","5"],
    [48519,"HCEP03730542","2025-02-14 17:30:00","10.0509","3.30682","27.234","4.584","7.58","0.296","6.222","0.02","0.22","29.8591","4.71718","49.21","0","SATNPRO1509","30.492","0.42714","5"],
    [48520,"HCEP03730542","2025-02-14 17:45:00","10.0509","3.30697","27.222","4.564","7.58","0.292","5.833","0.03","0.35","29.8605","4.71738","49","0","SATNPRO1509","30.454","0.42654","5"],
    [48521,"HCEP03730542","2025-02-14 18:00:00","10.0501","3.307","27.249","4.586","7.58","0.284","4.6","0.03","0.26","29.8614","4.71753","49.23","0","SATNPRO1509","30.63","0.42898","5"],
    [48522,"HCEP03730542","2025-02-14 18:15:00","10.0493","3.30693","27.207","4.615","7.58","0.279","4.749","0.03","0.34","29.8614","4.71753","49.54","0","SATNPRO1509","30.48","0.42694","5"],
    [48523,"HCEP03730542","2025-02-14 18:30:00","10.0485","3.30673","27.192","4.605","7.58","0.353","6.365","0.06","1.09","29.8601","4.71736","49.42","0","SATNPRO1509","30.302","0.4244","5"],
    [48524,"HCEP03730542","2025-02-14 18:45:00","10.0489","3.30668","27.167","4.585","7.58","0.305","5.65","0.04","0.41","29.8593","4.71724","49.21","0","SATNPRO1509","30.41","0.42594","5"],
    [48525,"HCEP03730542","2025-02-14 19:00:00","10.0488","3.30672","27.08","4.569","7.58","0.285","5.286","0.02","0.21","29.8598","4.71731","49.04","0","SATNPRO1509","30.346","0.42506","5"],
    [48526,"HCEP03730542","2025-02-14 19:15:00","10.0468","3.3062","26.999","4.553","7.58","0.278","5.213","0.02","0.27","29.8563","4.71683","48.87","0","SATNPRO1509","30.362","0.42524","5"],
    [48527,"HCEP03730542","2025-02-14 19:30:00","10.047","3.30622","26.934","4.54","7.58","0.3","5.17","0.03","0.27","29.8563","4.71683","48.73","0","SATNPRO1509","30.116","0.42182","5"],
    [48528,"HCEP03730542","2025-02-14 19:45:00","10.0466","3.30604","26.824","4.526","7.58","0.39","20.292","0.29","24.98","29.8549","4.71664","48.58","0","SATNPRO1509","30.144000000000002","0.42218","5"],
    [48529,"HCEP03730542","2025-02-14 20:00:00","10.048","3.30643","26.68","4.507","7.58","0.346","5.441","0.05","0.45","29.8577","4.71701","48.38","0","SATNPRO1509","30.242","0.42358","5"],
    [48530,"HCEP03730542","2025-02-14 20:15:00","10.0486","3.30659","26.506","4.508","7.58","0.3","5.345","0.03","0.49","29.8589","4.71716","48.39","0","SATNPRO1509","30.164","0.4225","5"],
    [48531,"HCEP03730542","2025-02-14 20:30:00","10.0496","3.30686","26.378","4.519","7.58","0.277","5.021","0.02","0.27","29.8608","4.71741","48.51","0","SATNPRO1509","30.382","0.42556","5"],
    [48532,"HCEP03730542","2025-02-14 20:45:00","10.0498","3.307","26.198","4.532","7.58","0.287","5.228","0.04","0.36","29.8622","4.71758","48.64","0","SATNPRO1509","30.358","0.42524","5"],
    [48533,"HCEP03730542","2025-02-14 21:00:00","10.0499","3.30716","26.068","4.541","7.58","0.291","5.199","0.04","0.53","29.8637","4.71779","48.75","0","SATNPRO1509","30.426000000000002","0.42618","5"],
    [48534,"HCEP03730542","2025-02-14 21:15:00","10.0508","3.30735","25.902","4.553","7.58","0.266","5.159","0.02","0.24","29.8649","4.71793","48.87","0","SATNPRO1509","30.432","0.42624","5"],
    [48535,"HCEP03730542","2025-02-14 21:30:00","10.0514","3.30734","25.682","4.549","7.58","0.293","5.222","0.08","0.29","29.8644","4.71783","48.83","0","SATNPRO1509","30.428","0.4262","5"],
    [48536,"HCEP03730542","2025-02-14 21:45:00","10.0515","3.30728","25.529","4.545","7.58","0.28","5.61","0.03","0.21","29.8638","4.71774","48.79","0","SATNPRO1509","30.474","0.42682","5"],
    [48537,"HCEP03730542","2025-02-14 22:00:00","10.0517","3.30724","25.378","4.543","7.58","0.289","5.431","0.03","0.23","29.8632","4.71765","48.77","0","SATNPRO1509","30.47","0.4268","5"],
    [48538,"HCEP03730542","2025-02-14 22:15:00","10.0514","3.3072","25.184","4.535","7.58","0.274","5.414","0.03","0.42","29.8633","4.71765","48.68","0","SATNPRO1509","30.338","0.42488","5"],
    [48539,"HCEP03730542","2025-02-14 22:30:00","10.0513","3.30705","24.989","4.532","7.58","0.284","4.999","0.03","0.37","29.8619","4.71744","48.65","0","SATNPRO1509","30.428","0.42622","5"],
    [48540,"HCEP03730542","2025-02-14 22:45:00","10.0508","3.307","24.831","4.542","7.58","0.26","4.504","0.02","0.24","29.8618","4.71743","48.75","0","SATNPRO1509","30.506","0.42728","5"],
    [48541,"HCEP03730542","2025-02-14 23:00:00","10.0508","3.30687","24.669","4.545","7.58","0.297","4.939","0.04","0.16","29.8606","4.71725","48.79","0","SATNPRO1509","30.43","0.42618","5"],
    [48542,"HCEP03730542","2025-02-14 23:15:00","10.0504","3.30679","24.538","4.545","7.58","0.273","4.234","0.05","0.81","29.8602","4.7172","48.78","0","SATNPRO1509","30.478","0.4269","5"],
    [48543,"HCEP03730542","2025-02-14 23:30:00","10.0501","3.3067","24.463","4.539","7.58","0.274","3.784","0.04","0.23","29.8596","4.71711","48.72","0","SATNPRO1509","30.502","0.42722","5"],
    [48544,"HCEP03730542","2025-02-14 23:45:00","10.05","3.30647","24.366","4.548","7.58","0.287","3.619","0.07","0.2","29.8574","4.71679","48.82","0","SATNPRO1509","30.724","0.43038","5"],
    [48545,"HCEP03730542","2025-02-15 00:00:00","10.0498","3.30659","24.367","4.546","7.58","0.3","4.033","0.06","0.16","29.8587","4.71698","48.8","0","SATNPRO1509","30.704","0.43006","5"],
    [48546,"HCEP03730542","2025-02-15 00:15:00","10.0492","3.30642","24.379","4.548","7.58","0.272","3.503","0.04","0.25","29.8575","4.71682","48.82","0","SATNPRO1509","30.564","0.4281","5"],
    [48547,"HCEP03730542","2025-02-15 00:30:00","10.0486","3.30641","24.414","4.556","7.58","0.292","3.853","0.06","0.21","29.8579","4.71689","48.91","0","SATNPRO1509","30.556","0.428","5"],
    [48548,"HCEP03730542","2025-02-15 00:45:00","10.0468","3.30565","24.463","4.562","7.58","0.309","3.045","0.09","0.15","29.8518","4.71605","48.96","0","SATNPRO1509","30.96","0.43366","5"],
    [48549,"HCEP03730542","2025-02-15 01:00:00","10.0401","3.30399","24.543","4.591","7.58","0.33","2.888","0.06","0.15","29.8406","4.71458","49.27","0","SATNPRO1509","30.676","0.42966","5"],
    [48550,"HCEP03730542","2025-02-15 01:15:00","10.0344","3.30185","24.665","4.587","7.58","0.349","2.854","0.11","0.33","29.8239","4.71229","49.21","0","SATNPRO1509","30.561999999999998","0.42808","5"],
    [48551,"HCEP03730542","2025-02-15 01:30:00","10.0494","3.3066","24.806","4.541","7.58","1.479","25.809","2.41","28.93","29.859","4.71706","48.74","0","SATNPRO1509","30.246","0.42368","5"],
    [48552,"HCEP03730542","2025-02-15 01:45:00","10.0507","3.30677","24.968","4.5","7.57","0.291","5.041","0.03","0.25","29.8596","4.71713","48.31","0","SATNPRO1509","30.23","0.42342","5"],
    [48553,"HCEP03730542","2025-02-15 02:00:00","10.0514","3.30699","25.13","4.482","7.57","0.284","5.455","0.02","0.28","29.8612","4.71735","48.11","0","SATNPRO1509","30.296","0.42436","5"],
    [48554,"HCEP03730542","2025-02-15 02:15:00","10.051","3.30702","25.271","4.467","7.57","0.277","4.801","0.03","0.19","29.8617","4.71744","47.95","0","SATNPRO1509","30.292","0.42426","5"],
    [48555,"HCEP03730542","2025-02-15 02:30:00","10.0516","3.3071","25.44","4.467","7.57","2.488","30.259","4.54","33.81","29.862","4.71748","47.95","0","SATNPRO1509","30.21","0.42316","5"],
    [48556,"HCEP03730542","2025-02-15 02:45:00","10.0519","3.30717","25.637","4.46","7.57","0.292","5.231","0.07","0.35","29.8623","4.71753","47.88","0","SATNPRO1509","30.254","0.42374","5"],
    [48557,"HCEP03730542","2025-02-15 03:00:00","10.0517","3.30717","25.797","4.453","7.57","0.305","5.252","0.06","0.31","29.8624","4.71755","47.8","0","SATNPRO1509","30.298000000000002","0.4244","5"],
    [48558,"HCEP03730542","2025-02-15 03:15:00","10.052","3.3072","25.964","4.457","7.57","0.36","7.503","0.08","0.5","29.8625","4.71757","47.84","0","SATNPRO1509","30.286","0.42422","5"],
    [48559,"HCEP03730542","2025-02-15 03:30:00","10.0513","3.30716","26.165","4.452","7.57","0.297","5.151","0.05","0.2","29.8625","4.7176","47.79","0","SATNPRO1509","30.236","0.42354","5"],
    [48560,"HCEP03730542","2025-02-15 03:45:00","10.0514","3.30713","26.33","4.451","7.57","2.074","35.536","1.29","15.88","29.862","4.71754","47.78","0","SATNPRO1509","30.22","0.42326","5"],
    [48561,"HCEP03730542","2025-02-15 04:00:00","10.0514","3.3071","26.566","4.449","7.57","0.289","5.414","0.03","0.42","29.8617","4.7175","47.76","0","SATNPRO1509","30.156","0.42238","5"],
    [48562,"HCEP03730542","2025-02-15 04:15:00","10.0509","3.307","26.784","4.438","7.57","0.315","5.432","0.05","0.32","29.861","4.71743","47.64","0","SATNPRO1509","30.218","0.42322","5"],
    [48563,"HCEP03730542","2025-02-15 04:30:00","10.0503","3.30687","26.949","4.431","7.57","0.296","4.991","0.04","0.25","29.86","4.71731","47.57","0","SATNPRO1509","30.092","0.42148","5"],
    [48564,"HCEP03730542","2025-02-15 04:45:00","10.0497","3.30668","27.144","4.417","7.57","0.299","4.875","0.04","0.44","29.8586","4.71714","47.41","0","SATNPRO1509","30.092","0.42148","5"],
    [48565,"HCEP03730542","2025-02-15 05:00:00","10.0488","3.30644","27.287","4.409","7.57","0.284","4.661","0.03","0.27","29.8569","4.71692","47.32","0","SATNPRO1509","30.058","0.42104","5"],
    [48566,"HCEP03730542","2025-02-15 05:15:00","10.0475","3.30607","27.425","4.394","7.57","0.287","4.233","0.03","0.17","29.8542","4.71656","47.16","0","SATNPRO1509","30.182","0.42274","5"],
    [48567,"HCEP03730542","2025-02-15 05:30:00","10.0451","3.30556","27.555","4.396","7.57","0.303","4.167","0.04","0.29","29.851","4.71615","47.18","0","SATNPRO1509","30.256","0.42382","5"],
    [48568,"HCEP03730542","2025-02-15 05:45:00","10.0457","3.30575","27.638","4.397","7.57","0.29","4.824","0.04","0.29","29.8523","4.71633","47.2","0","SATNPRO1509","30.106","0.42168","5"],
    [48569,"HCEP03730542","2025-02-15 06:00:00","10.0456","3.3057","27.739","4.39","7.57","0.295","4.312","0.04","0.25","29.852","4.71629","47.11","0","SATNPRO1509","30.204","0.42308","5"],
    [48570,"HCEP03730542","2025-02-15 06:15:00","10.0465","3.30579","27.789","4.39","7.57","0.289","4.733","0.03","0.21","29.8521","4.71629","47.11","0","SATNPRO1509","30.076","0.4213","5"],
    [48571,"HCEP03730542","2025-02-15 06:30:00","10.0481","3.30602","27.813","4.382","7.57","0.328","5.192","0.04","0.21","29.8531","4.71641","47.04","0","SATNPRO1509","29.9","0.41882","5"],
    [48572,"HCEP03730542","2025-02-15 06:45:00","10.0486","3.30604","27.812","4.366","7.56","0.328","6.288","0.03","0.47","29.8529","4.71637","46.87","0","SATNPRO1509","29.912","0.41896","5"],
    [48573,"HCEP03730542","2025-02-15 07:00:00","10.0483","3.30592","27.738","4.355","7.56","0.317","5.318","0.03","0.51","29.8519","4.71623","46.74","0","SATNPRO1509","30.018","0.42044","5"],
    [48574,"HCEP03730542","2025-02-15 07:15:00","10.0457","3.30527","27.73","4.358","7.56","0.324","5.402","0.04","0.5","29.8475","4.71565","46.78","0","SATNPRO1509","29.974","0.41986","5"],
    [48575,"HCEP03730542","2025-02-15 07:30:00","10.0426","3.3045","27.671","4.36","7.56","0.316","4.582","0.03","0.21","29.8424","4.71497","46.78","0","SATNPRO1509","30.144","0.4222","5"],
    [48576,"HCEP03730542","2025-02-15 07:45:00","10.0407","3.30403","27.595","4.377","7.57","0.331","5.09","0.04","0.22","29.8394","4.71456","46.97","0","SATNPRO1509","30.104","0.42162","5"],
    [48577,"HCEP03730542","2025-02-15 08:00:00","10.0422","3.30421","27.48","4.391","7.57","0.348","4.8","0.06","0.52","29.84","4.71462","47.12","0","SATNPRO1509","30.402","0.42582","5"],
    [48578,"HCEP03730542","2025-02-15 08:15:00","10.0398","3.30344","27.406","4.427","7.57","0.361","4.458","0.08","0.45","29.8343","4.71384","47.5","0","SATNPRO1509","30.598","0.4286","5"],
    [48579,"HCEP03730542","2025-02-15 08:30:00","10.0393","3.30326","27.323","4.464","7.57","0.337","4.322","0.05","0.32","29.8328","4.71364","47.9","0","SATNPRO1509","30.66","0.42944","5"],
    [48580,"HCEP03730542","2025-02-15 08:45:00","10.0399","3.3033","27.179","4.47","7.57","1.172","20.419","2.28","24.03","29.8329","4.71363","47.97","0","SATNPRO1509","30.744","0.43064","5"],
    [48581,"HCEP03730542","2025-02-15 09:00:00","10.0406","3.30334","27.091","4.461","7.57","0.302","4.727","0.03","0.19","29.8327","4.71359","47.86","0","SATNPRO1509","30.756","0.43078","5"],
    [48582,"HCEP03730542","2025-02-15 09:15:00","10.0412","3.30355","27.036","4.444","7.57","0.29","4.517","0.04","0.13","29.8343","4.7138","47.69","0","SATNPRO1509","30.614","0.42882","5"],
    [48583,"HCEP03730542","2025-02-15 09:30:00","10.0411","3.30349","26.916","4.423","7.57","0.318","5.113","0.03","0.57","29.8339","4.71373","47.46","0","SATNPRO1509","30.614","0.42878","5"],
    [48584,"HCEP03730542","2025-02-15 09:45:00","10.0419","3.3037","26.714","4.407","7.57","0.342","5.086","0.05","0.67","29.8354","4.71393","47.29","0","SATNPRO1509","30.490000000000002","0.4271","5"],
    [48585,"HCEP03730542","2025-02-15 10:00:00","10.0432","3.30401","26.599","4.396","7.57","0.341","5.37","0.05","0.54","29.8375","4.7142","47.18","0","SATNPRO1509","30.458000000000002","0.42664","5"],
    [48586,"HCEP03730542","2025-02-15 10:15:00","10.0447","3.30438","26.472","4.391","7.57","0.299","5.761","0.03","2.16","29.84","4.71453","47.12","0","SATNPRO1509","30.416","0.42604","5"],
    [48587,"HCEP03730542","2025-02-15 10:30:00","10.0461","3.30475","26.31","4.391","7.57","0.308","5.438","0.04","0.65","29.8426","4.71487","47.12","0","SATNPRO1509","30.526","0.42756","5"],
    [48588,"HCEP03730542","2025-02-15 10:45:00","10.047","3.30497","26.211","4.395","7.57","0.29","5.197","0.02","0.24","29.8441","4.71505","47.17","0","SATNPRO1509","30.528","0.4276","5"],
    [48589,"HCEP03730542","2025-02-15 11:00:00","10.0473","3.30505","26.004","4.396","7.57","0.32","5.404","0.03","0.94","29.8448","4.71513","47.18","0","SATNPRO1509","30.512","0.42736","5"],
    [48590,"HCEP03730542","2025-02-15 11:15:00","10.0478","3.30516","25.802","4.387","7.57","0.293","5.607","0.03","0.29","29.8455","4.71522","47.08","0","SATNPRO1509","30.538","0.42776","5"],
    [48591,"HCEP03730542","2025-02-15 11:30:00","10.0482","3.30505","25.684","4.385","7.57","0.306","5.547","0.04","0.43","29.8442","4.71501","47.06","0","SATNPRO1509","30.582","0.42836","5"],
    [48592,"HCEP03730542","2025-02-15 11:45:00","10.0478","3.30485","25.534","4.377","7.56","0.305","5.559","0.03","0.4","29.8425","4.71477","46.97","0","SATNPRO1509","30.558","0.42802","5"],
    [48593,"HCEP03730542","2025-02-15 12:00:00","10.0478","3.30472","25.488","4.358","7.56","0.304","4.837","0.03","0.25","29.8413","4.7146","46.78","0","SATNPRO1509","30.556","0.42796","5"],
    [48594,"HCEP03730542","2025-02-15 12:15:00","10.0473","3.30453","25.42","4.34","7.56","0.306","4.865","0.09","0.33","29.8398","4.71439","46.58","0","SATNPRO1509","30.451999999999998","0.42652","5"],
    [48595,"HCEP03730542","2025-02-15 12:30:00","10.0457","3.30413","25.417","4.322","7.56","0.318","5.309","0.04","0.87","29.8371","4.71403","46.38","0","SATNPRO1509","30.456","0.42658","5"],
    [48596,"HCEP03730542","2025-02-15 12:45:00","10.0449","3.30383","25.358","4.297","7.56","0.316","4.671","0.04","0.29","29.8348","4.71371","46.12","0","SATNPRO1509","30.284","0.42422","5"],
    [48597,"HCEP03730542","2025-02-15 13:00:00","10.0444","3.30357","25.424","4.272","7.56","0.698","6.905","1.48","5.61","29.8325","4.7134","45.85","0","SATNPRO1509","30.248","0.4237","5"],
    [48598,"HCEP03730542","2025-02-15 13:15:00","10.0443","3.30341","25.418","4.242","7.55","0.549","33.672","0.41","35.24","29.831","4.71319","45.52","0","SATNPRO1509","30.238","0.42354","5"],
    [48599,"HCEP03730542","2025-02-15 13:30:00","10.0443","3.30324","25.482","4.206","7.55","7.979","784.471","1.74","262.13","29.8294","4.71296","45.13","0","SATNPRO1509","30.152","0.42236","5"],
    [48600,"HCEP03730542","2025-02-15 13:45:00","10.0443","3.30313","25.549","4.17","7.55","4.94","451.058","4.29","131.69","29.8282","4.71279","44.75","0","SATNPRO1509","30.04","0.42072","5"],
    [48601,"HCEP03730542","2025-02-15 14:00:00","10.0445","3.30313","25.599","4.141","7.55","6.546","202.371","2.21","139.97","29.828","4.71276","44.44","0","SATNPRO1509","29.936","0.4193","5"],
    [48602,"HCEP03730542","2025-02-15 14:15:00","10.0446","3.30309","25.689","4.122","7.55","4.848","92.595","2.21","23.16","29.8275","4.7127","44.24","0","SATNPRO1509","29.956","0.41958","5"],
    [48603,"HCEP03730542","2025-02-15 14:30:00","10.0445","3.30307","25.836","4.11","7.55","0.297","4.584","0.02","0.12","29.8273","4.71267","44.11","0","SATNPRO1509","29.898","0.41874","5"],
    [48604,"HCEP03730542","2025-02-15 14:45:00","10.0451","3.30311","25.897","4.103","7.54","0.704","56.849","0.32","25.91","29.8272","4.71266","44.03","0","SATNPRO1509","29.94","0.41936","5"],
    [48605,"HCEP03730542","2025-02-15 15:00:00","10.0447","3.30306","25.985","4.091","7.54","0.302","4.075","0.03","0.2","29.827","4.71264","43.9","0","SATNPRO1509","30.016","0.42046","5"],
    [48606,"HCEP03730542","2025-02-15 15:15:00","10.0444","3.30294","26.094","4.078","7.54","0.313","4.581","0.07","0.59","29.826","4.71251","43.76","0","SATNPRO1509","29.844","0.41798","5"],
    [48607,"HCEP03730542","2025-02-15 15:30:00","10.0442","3.30283","26.21","4.067","7.54","0.3","4.748","0.02","0.31","29.825","4.71237","43.64","0","SATNPRO1509","29.8","0.4174","5"],
    [48608,"HCEP03730542","2025-02-15 15:45:00","10.0439","3.30271","26.303","4.048","7.54","0.303","5.694","0.03","0.38","29.824","4.71224","43.44","0","SATNPRO1509","29.782","0.41718","5"],
    [48609,"HCEP03730542","2025-02-15 16:00:00","10.0442","3.30281","26.486","4.046","7.54","0.334","6.507","0.04","0.57","29.8247","4.71235","43.42","0","SATNPRO1509","29.934","0.4193","5"],
    [48610,"HCEP03730542","2025-02-15 16:15:00","10.0444","3.30291","26.564","4.068","7.54","0.318","6.051","0.03","0.33","29.8255","4.71246","43.65","0","SATNPRO1509","29.98","0.41994","5"],
    [48611,"HCEP03730542","2025-02-15 16:30:00","10.0445","3.30298","26.662","4.076","7.54","0.319","5.375","0.03","0.39","29.8261","4.71255","43.74","0","SATNPRO1509","29.924","0.41914","5"],
    [48612,"HCEP03730542","2025-02-15 16:45:00","10.0445","3.30303","26.808","4.082","7.54","0.302","5.744","0.03","0.37","29.8265","4.71262","43.81","0","SATNPRO1509","29.986","0.41996","5"],
    [48613,"HCEP03730542","2025-02-15 17:00:00","10.0451","3.30326","26.939","4.102","7.54","0.314","5.919","0.03","0.5","29.8282","4.71287","44.02","0","SATNPRO1509","30.004","0.42028","5"],
    [48614,"HCEP03730542","2025-02-15 17:15:00","10.0455","3.30353","26.941","4.118","7.55","0.309","6.049","0.02","0.59","29.8306","4.71319","44.19","0","SATNPRO1509","30.046","0.42084","5"],
    [48615,"HCEP03730542","2025-02-15 17:30:00","10.0471","3.3041","27.091","4.137","7.55","0.322","6.858","0.03","0.76","29.8349","4.71379","44.4","0","SATNPRO1509","30.136","0.42212","5"],
    [48616,"HCEP03730542","2025-02-15 17:45:00","10.0475","3.30428","27.147","4.157","7.55","0.333","6.888","0.04","0.67","29.8364","4.714","44.61","0","SATNPRO1509","30.058","0.42104","5"],
    [48617,"HCEP03730542","2025-02-15 18:00:00","10.0483","3.3046","27.229","4.179","7.55","0.323","6.446","0.03","0.57","29.8389","4.71435","44.85","0","SATNPRO1509","30.186","0.42282","5"],
    [48618,"HCEP03730542","2025-02-15 18:15:00","10.0485","3.30467","27.274","4.198","7.55","0.307","6.475","0.04","0.79","29.8394","4.71441","45.05","0","SATNPRO1509","30.27","0.42398","5"],
    [48619,"HCEP03730542","2025-02-15 18:30:00","10.0478","3.30465","27.237","4.216","7.55","0.301","5.781","0.03","0.67","29.8398","4.71449","45.24","0","SATNPRO1509","30.28","0.42412","5"],
    [48620,"HCEP03730542","2025-02-15 18:45:00","10.0483","3.30486","27.177","4.245","7.55","0.287","5.687","0.04","0.96","29.8415","4.71472","45.56","0","SATNPRO1509","30.434","0.42626","5"],
    [48621,"HCEP03730542","2025-02-15 19:00:00","10.0491","3.30505","27.231","4.256","7.55","0.303","6.107","0.03","1.44","29.8428","4.71489","45.68","0","SATNPRO1509","30.444","0.42644","5"],
    [48622,"HCEP03730542","2025-02-15 19:15:00","10.0486","3.30499","27.161","4.259","7.56","0.283","5.282","0.02","0.29","29.8426","4.71487","45.71","0","SATNPRO1509","30.284","0.42416","5"],
    [48623,"HCEP03730542","2025-02-15 19:30:00","10.0466","3.30453","27.103","4.27","7.56","0.297","5.665","0.02","1.19","29.8397","4.71448","45.83","0","SATNPRO1509","30.364","0.4253","5"],
    [48624,"HCEP03730542","2025-02-15 19:45:00","10.0456","3.3042","27.083","4.267","7.56","0.296","5.624","0.03","0.56","29.8372","4.71415","45.79","0","SATNPRO1509","30.26","0.42386","5"],
    [48625,"HCEP03730542","2025-02-15 20:00:00","10.0401","3.30303","26.946","4.235","7.55","0.356","5.933","0.05","0.4","29.83","4.71321","45.44","0","SATNPRO1509","29.832","0.41788","5"],
    [48626,"HCEP03730542","2025-02-15 20:15:00","10.037","3.30259","26.894","4.172","7.55","0.377","5.88","0.06","0.82","29.8283","4.71301","44.76","0","SATNPRO1509","29.76","0.41684","5"],
    [48627,"HCEP03730542","2025-02-15 20:30:00","10.0353","3.30238","26.782","4.123","7.54","0.371","5.509","0.06","0.38","29.8276","4.71293","44.23","0","SATNPRO1509","29.59","0.41448","5"],
    [48628,"HCEP03730542","2025-02-15 20:45:00","10.0366","3.30271","26.625","4.1","7.54","0.381","6.106","0.07","0.54","29.8299","4.71322","43.99","0","SATNPRO1509","29.5","0.41318","5"],
    [48629,"HCEP03730542","2025-02-15 21:00:00","10.0358","3.30263","26.491","4.088","7.54","0.358","5.38","0.06","0.24","29.8298","4.71321","43.86","0","SATNPRO1509","29.538","0.41372","5"],
    [48630,"HCEP03730542","2025-02-15 21:15:00","10.0361","3.30266","26.354","4.075","7.54","0.359","5.947","0.07","1.68","29.83","4.71323","43.72","0","SATNPRO1509","29.46","0.41264","5"],
    [48631,"HCEP03730542","2025-02-15 21:30:00","10.0362","3.30279","26.142","4.067","7.54","0.365","5.166","0.06","0.37","29.8313","4.7134","43.64","0","SATNPRO1509","29.552","0.41396","5"],
    [48632,"HCEP03730542","2025-02-15 21:45:00","10.039","3.30341","26.075","4.073","7.54","0.392","5.408","0.06","0.63","29.8352","4.71391","43.71","0","SATNPRO1509","29.753999999999998","0.41674","5"],
    [48633,"HCEP03730542","2025-02-15 22:00:00","10.0388","3.30336","26","4.124","7.55","0.336","4.9","0.04","0.42","29.8348","4.71385","44.25","0","SATNPRO1509","30.154","0.42238","5"],
    [48634,"HCEP03730542","2025-02-15 22:15:00","10.0399","3.30313","25.749","4.198","7.55","0.359","4.987","0.05","0.71","29.8317","4.71338","45.04","0","SATNPRO1509","30.322","0.4247","5"],
    [48635,"HCEP03730542","2025-02-15 22:30:00","10.0424","3.30375","25.623","4.236","7.55","0.338","5.311","0.05","0.65","29.836","4.71394","45.46","0","SATNPRO1509","30.12","0.42186","5"],
    [48636,"HCEP03730542","2025-02-15 22:45:00","10.0435","3.30391","25.521","4.199","7.55","0.326","5.253","0.04","0.48","29.8367","4.71401","45.06","0","SATNPRO1509","30.048000000000002","0.42092","5"],
    [48637,"HCEP03730542","2025-02-15 23:00:00","10.0451","3.30404","25.407","4.179","7.55","0.342","5.671","0.04","0.4","29.8367","4.71398","44.84","0","SATNPRO1509","30.044","0.42082","5"],
    [48638,"HCEP03730542","2025-02-15 23:15:00","10.0447","3.30406","25.151","4.177","7.55","0.328","5.163","0.04","0.6","29.8373","4.71406","44.82","0","SATNPRO1509","30.21","0.42316","5"],
    [48639,"HCEP03730542","2025-02-15 23:30:00","10.0463","3.30428","25.052","4.194","7.55","0.327","5.523","0.03","0.34","29.8382","4.71415","45.01","0","SATNPRO1509","30.168","0.42256","5"],
    [48640,"HCEP03730542","2025-02-15 23:45:00","10.0463","3.30435","24.956","4.182","7.55","0.302","5.089","0.03","0.3","29.839","4.71427","44.88","0","SATNPRO1509","30.366","0.42532","5"],
    [48641,"HCEP03730542","2025-02-16 00:00:00","10.0466","3.30445","24.87","4.211","7.55","0.302","4.768","0.05","0.18","29.8397","4.71435","45.19","0","SATNPRO1509","30.354","0.42518","5"],
    [48642,"HCEP03730542","2025-02-16 00:15:00","10.0466","3.3044","24.873","4.215","7.55","0.285","4.353","0.03","0.15","29.8393","4.7143","45.24","0","SATNPRO1509","30.47","0.42676","5"],
    [48643,"HCEP03730542","2025-02-16 00:30:00","10.0464","3.30436","24.792","4.225","7.55","0.311","3.935","0.08","0.14","29.8391","4.71426","45.35","0","SATNPRO1509","30.498","0.42716","5"],
    [48644,"HCEP03730542","2025-02-16 00:45:00","10.0467","3.30439","24.814","4.224","7.55","0.279","4.075","0.04","0.13","29.8391","4.71426","45.33","0","SATNPRO1509","30.488","0.42704","5"],
    [48645,"HCEP03730542","2025-02-16 01:00:00","10.0466","3.30436","24.926","4.216","7.55","0.288","4.146","0.04","0.22","29.8388","4.71423","45.24","0","SATNPRO1509","30.466","0.42672","5"],
    [48646,"HCEP03730542","2025-02-16 01:15:00","10.046","3.30418","24.926","4.209","7.55","0.275","3.816","0.03","0.13","29.8375","4.71405","45.17","0","SATNPRO1509","30.45","0.42648","5"],
    [48647,"HCEP03730542","2025-02-16 01:30:00","10.0451","3.30401","25.078","4.217","7.55","0.279","3.327","0.03","0.14","29.8365","4.71394","45.26","0","SATNPRO1509","30.568","0.42816","5"],
    [48648,"HCEP03730542","2025-02-16 01:45:00","10.0447","3.30391","25.127","4.231","7.55","0.286","3.666","0.04","0.38","29.8358","4.71385","45.4","0","SATNPRO1509","30.682","0.42976","5"],
    [48649,"HCEP03730542","2025-02-16 02:00:00","10.0451","3.30414","25.36","4.203","7.55","0.315","4.978","0.04","0.23","29.8377","4.71412","45.11","0","SATNPRO1509","30.062","0.42108","5"],
    [48650,"HCEP03730542","2025-02-16 02:15:00","10.0439","3.30398","25.387","4.147","7.55","2.449","28.16","3.8","30.94","29.8371","4.71405","44.5","0","SATNPRO1509","30.09","0.42144","5"],
    [48651,"HCEP03730542","2025-02-16 02:30:00","10.0389","3.30248","25.502","4.143","7.55","0.737","22.084","0.22","19.53","29.8262","4.7126","44.45","0","SATNPRO1509","30.152","0.42232","5"],
    [48652,"HCEP03730542","2025-02-16 02:45:00","10.0402","3.30306","25.651","4.122","7.54","0.354","5.661","0.06","0.84","29.8308","4.71324","44.22","0","SATNPRO1509","29.728","0.4164","5"],
    [48653,"HCEP03730542","2025-02-16 03:00:00","10.0388","3.30272","25.754","4.069","7.54","0.353","5.113","0.04","0.58","29.8285","4.71294","43.66","0","SATNPRO1509","29.556","0.414","5"],
    [48654,"HCEP03730542","2025-02-16 03:15:00","10.0395","3.30299","25.932","4.04","7.54","0.391","6.746","0.05","1.17","29.8306","4.71324","43.35","0","SATNPRO1509","29.444","0.41244","5"],
    [48655,"HCEP03730542","2025-02-16 03:30:00","10.0429","3.30388","26.141","4.016","7.54","0.362","5.834","0.05","0.5","29.8366","4.71404","43.09","0","SATNPRO1509","29.684","0.41576","5"],
    [48656,"HCEP03730542","2025-02-16 03:45:00","10.0465","3.30444","26.279","4.048","7.54","0.351","6.022","0.07","0.37","29.8392","4.71436","43.45","0","SATNPRO1509","29.948","0.41948","5"],
    [48657,"HCEP03730542","2025-02-16 04:00:00","10.0458","3.30426","26.389","4.075","7.54","0.328","6.413","0.04","0.99","29.8379","4.71419","43.73","0","SATNPRO1509","29.93","0.4192","5"],
    [48658,"HCEP03730542","2025-02-16 04:15:00","10.0472","3.30446","26.609","4.095","7.54","0.334","7.321","0.04","1.34","29.8387","4.7143","43.95","0","SATNPRO1509","29.983999999999998","0.41998","5"],
    [48659,"HCEP03730542","2025-02-16 04:30:00","10.0486","3.30471","26.852","4.094","7.54","0.312","7.215","0.03","0.85","29.8399","4.71447","43.93","0","SATNPRO1509","30.006","0.42032","5"],
    [48660,"HCEP03730542","2025-02-16 04:45:00","10.0491","3.30487","27.048","4.078","7.54","0.315","8.346","0.02","1.28","29.841","4.71462","43.76","0","SATNPRO1509","29.962","0.41966","5"],
    [48661,"HCEP03730542","2025-02-16 05:00:00","10.0486","3.30491","27.186","4.067","7.54","0.412","8.431","0.07","1.26","29.8418","4.71475","43.65","0","SATNPRO1509","29.986","0.41998","5"],
    [48662,"HCEP03730542","2025-02-16 05:15:00","10.0434","3.30449","27.305","4.093","7.55","0.308","7.095","0.04","1.27","29.8419","4.71486","43.92","0","SATNPRO1509","30.06","0.421","5"],
    [48663,"HCEP03730542","2025-02-16 05:30:00","10.0427","3.30459","27.427","4.169","7.55","0.356","7.413","0.04","1.35","29.8434","4.71509","44.73","0","SATNPRO1509","30.056","0.42104","5"],
    [48664,"HCEP03730542","2025-02-16 05:45:00","10.0405","3.30444","27.601","4.185","7.55","0.324","7.009","0.05","1.56","29.8436","4.71517","44.91","0","SATNPRO1509","30.194","0.4229","5"],
    [48665,"HCEP03730542","2025-02-16 06:00:00","10.0416","3.3045","27.701","4.214","7.55","0.29","5.494","0.03","0.73","29.8433","4.71511","45.22","0","SATNPRO1509","30.026","0.42054","5"],
    [48666,"HCEP03730542","2025-02-16 06:15:00","10.0394","3.30406","27.794","4.208","7.55","0.275","5.385","0.02","1.23","29.8406","4.71477","45.15","0","SATNPRO1509","30.294","0.42436","5"],
    [48667,"HCEP03730542","2025-02-16 06:30:00","10.0336","3.30256","27.848","4.258","7.56","0.298","4.673","0.05","1.37","29.8304","4.71342","45.69","0","SATNPRO1509","30.756","0.43082","5"],
    [48668,"HCEP03730542","2025-02-16 06:45:00","10.0336","3.30184","27.884","4.343","7.56","0.293","4.167","0.05","0.88","29.8231","4.71239","46.59","0","SATNPRO1509","30.884","0.43258","5"],
    [48669,"HCEP03730542","2025-02-16 07:00:00","10.038","3.30264","27.915","4.327","7.56","0.294","4.351","0.04","0.63","29.8275","4.71294","46.43","0","SATNPRO1509","30.366","0.42534","5"],
    [48670,"HCEP03730542","2025-02-16 07:15:00","10.0449","3.30413","27.866","4.232","7.55","0.282","4.517","0.03","0.18","29.8367","4.71413","45.42","0","SATNPRO1509","30.279999999999998","0.42412","5"],
    [48671,"HCEP03730542","2025-02-16 07:30:00","10.0424","3.30341","27.827","4.155","7.55","0.296","3.835","0.04","0.35","29.8317","4.71346","44.58","0","SATNPRO1509","30.464000000000002","0.42668","5"],
    [48672,"HCEP03730542","2025-02-16 07:45:00","10.0426","3.30342","27.786","4.164","7.55","0.312","4.104","0.04","0.39","29.8316","4.71344","44.68","0","SATNPRO1509","30.352","0.42512","5"],
    [48673,"HCEP03730542","2025-02-16 08:00:00","10.0379","3.30247","27.744","4.121","7.54","0.335","4.599","0.04","0.45","29.826","4.71271","44.22","0","SATNPRO1509","30.35","0.4251","5"],
    [48674,"HCEP03730542","2025-02-16 08:15:00","10.0359","3.30189","27.699","4.115","7.54","0.341","4.807","0.04","0.27","29.8219","4.71216","44.14","0","SATNPRO1509","30.288","0.42422","5"],
    [48675,"HCEP03730542","2025-02-16 08:30:00","10.0359","3.30184","27.595","4.1","7.54","0.358","5.504","0.04","0.24","29.8215","4.71209","43.98","0","SATNPRO1509","30.002","0.42022","5"],
    [48676,"HCEP03730542","2025-02-16 08:45:00","10.0352","3.30151","27.488","4.087","7.54","0.339","5.313","0.04","0.28","29.8187","4.7117","43.85","0","SATNPRO1509","30.076","0.42128","5"],
    [48677,"HCEP03730542","2025-02-16 09:00:00","10.0355","3.30166","27.408","4.101","7.54","0.351","5.13","0.04","0.21","29.82","4.71188","43.99","0","SATNPRO1509","30.138","0.42216","5"],
    [48678,"HCEP03730542","2025-02-16 09:15:00","10.0334","3.30096","27.271","4.102","7.54","0.356","4.525","0.04","0.17","29.8147","4.71115","44.01","0","SATNPRO1509","30.248","0.42364","5"],
    [48679,"HCEP03730542","2025-02-16 09:30:00","10.0337","3.30104","27.195","4.109","7.54","0.389","4.59","0.06","0.41","29.8154","4.71124","44.08","0","SATNPRO1509","30.218","0.42324","5"],
    [48680,"HCEP03730542","2025-02-16 09:45:00","10.0335","3.30094","27.075","4.098","7.54","0.368","5.042","0.05","0.34","29.8146","4.71112","43.96","0","SATNPRO1509","30.202","0.42304","5"],
    [48681,"HCEP03730542","2025-02-16 10:00:00","10.0325","3.30062","26.919","4.1","7.54","0.375","4.528","0.07","0.21","29.8122","4.71079","43.98","0","SATNPRO1509","30.236","0.42356","5"],
    [48682,"HCEP03730542","2025-02-16 10:15:00","10.0337","3.30107","26.788","4.115","7.54","0.365","4.425","0.07","0.34","29.8159","4.71129","44.14","0","SATNPRO1509","30.164","0.42252","5"],
    [48683,"HCEP03730542","2025-02-16 10:30:00","10.0352","3.30149","26.62","4.116","7.54","0.341","4.362","0.05","0.2","29.8189","4.71169","44.15","0","SATNPRO1509","30.232","0.4234","5"],
    [48684,"HCEP03730542","2025-02-16 10:45:00","10.0363","3.30174","26.434","4.11","7.54","0.322","4.716","0.03","0.72","29.8206","4.7119","44.1","0","SATNPRO1509","30.186","0.42278","5"],
    [48685,"HCEP03730542","2025-02-16 11:00:00","10.0349","3.30111","26.295","4.101","7.54","0.348","3.945","0.06","0.19","29.8154","4.71117","44","0","SATNPRO1509","30.136","0.4221","5"],
    [48686,"HCEP03730542","2025-02-16 11:15:00","10.0367","3.30171","26.099","4.078","7.54","0.339","5.524","0.04","1.76","29.8201","4.71179","43.75","0","SATNPRO1509","30.131999999999998","0.42204","5"],
    [48687,"HCEP03730542","2025-02-16 11:30:00","10.0392","3.3023","25.924","4.059","7.54","0.365","5.403","0.06","0.5","29.824","4.7123","43.55","0","SATNPRO1509","30.05","0.42088","5"],
    [48688,"HCEP03730542","2025-02-16 11:45:00","10.0414","3.3028","25.766","4.039","7.54","0.341","5.721","0.05","0.29","29.8272","4.71272","43.33","0","SATNPRO1509","29.972","0.41984","5"],
    [48689,"HCEP03730542","2025-02-16 12:00:00","10.0423","3.30292","25.617","4.013","7.54","0.427","8.69","0.13","6.19","29.8277","4.71276","43.06","0","SATNPRO1509","29.792","0.41726","5"],
    [48690,"HCEP03730542","2025-02-16 12:15:00","10.0431","3.30308","25.471","4.011","7.54","0.452","9.345","0.2","8.58","29.8287","4.71289","43.04","0","SATNPRO1509","29.94","0.41934","5"],
    [48691,"HCEP03730542","2025-02-16 12:30:00","10.0435","3.30313","25.381","4.018","7.54","0.357","5.214","0.06","0.28","29.8288","4.71289","43.12","0","SATNPRO1509","30.106","0.42164","5"],
    [48692,"HCEP03730542","2025-02-16 12:45:00","10.0442","3.30326","25.299","4.017","7.54","0.325","5.112","0.05","0.33","29.8297","4.71299","43.11","0","SATNPRO1509","30.13","0.42202","5"],
    [48693,"HCEP03730542","2025-02-16 13:00:00","10.0445","3.30335","25.255","4.02","7.54","0.338","5.298","0.05","0.35","29.8303","4.71308","43.14","0","SATNPRO1509","30.068","0.4212","5"],
    [48694,"HCEP03730542","2025-02-16 13:15:00","10.0437","3.30316","25.248","4.021","7.54","0.323","5.122","0.03","0.34","29.8292","4.71292","43.14","0","SATNPRO1509","30.094","0.42154","5"],
    [48695,"HCEP03730542","2025-02-16 13:30:00","10.0435","3.30314","25.244","4.02","7.54","0.335","4.878","0.08","0.27","29.829","4.7129","43.13","0","SATNPRO1509","30.128","0.42196","5"],
    [48696,"HCEP03730542","2025-02-16 13:45:00","10.0449","3.30336","25.295","4.02","7.54","0.337","5.31","0.06","0.58","29.8302","4.71305","43.14","0","SATNPRO1509","30.131999999999998","0.42208","5"],
    [48697,"HCEP03730542","2025-02-16 14:00:00","10.0441","3.30327","25.312","4.022","7.54","0.823","15.087","1.27","26.21","29.8298","4.71301","43.15","0","SATNPRO1509","30.056","0.421","5"],
    [48698,"HCEP03730542","2025-02-16 14:15:00","10.0426","3.30293","25.363","4.03","7.54","0.322","4.637","0.05","0.29","29.8277","4.71274","43.24","0","SATNPRO1509","30.13","0.42202","5"],
    [48699,"HCEP03730542","2025-02-16 14:30:00","10.0425","3.30286","25.427","4.037","7.54","0.321","4.816","0.03","0.24","29.827","4.71265","43.32","0","SATNPRO1509","30.248","0.4237","5"],
    [48700,"HCEP03730542","2025-02-16 14:45:00","10.0421","3.30272","25.507","4.039","7.54","0.319","4.723","0.05","0.27","29.8259","4.7125","43.34","0","SATNPRO1509","30.233999999999998","0.4235","5"],
    [48701,"HCEP03730542","2025-02-16 15:00:00","10.042","3.30277","25.574","4.042","7.54","2.591","62.163","2.71","28.32","29.8265","4.71258","43.37","0","SATNPRO1509","30.232","0.42348","5"],
    [48702,"HCEP03730542","2025-02-16 15:15:00","10.0421","3.30275","25.668","4.039","7.54","0.337","4.55","0.05","0.34","29.8262","4.71254","43.33","0","SATNPRO1509","30.326","0.42476","5"],
    [48703,"HCEP03730542","2025-02-16 15:30:00","10.043","3.30294","25.773","4.033","7.54","0.354","5.464","0.04","0.32","29.8273","4.71271","43.28","0","SATNPRO1509","30.2","0.423","5"],
    [48704,"HCEP03730542","2025-02-16 15:45:00","10.0432","3.30292","25.868","4.022","7.54","0.339","5.262","0.06","1.34","29.8269","4.71264","43.16","0","SATNPRO1509","29.968","0.41974","5"],
    [48705,"HCEP03730542","2025-02-16 16:00:00","10.0438","3.30299","25.985","4.006","7.53","6.865","1066.323","2.53","443.44","29.8271","4.71267","42.98","0","SATNPRO1509","29.996","0.42016","5"],
    [48706,"HCEP03730542","2025-02-16 16:15:00","10.0444","3.3031","26.1","3.996","7.53","6.415","328.645","5.23","232.11","29.8276","4.71273","42.88","0","SATNPRO1509","30.003999999999998","0.42026","5"],
    [48707,"HCEP03730542","2025-02-16 16:30:00","10.0439","3.30284","26.217","3.982","7.53","0.71","8.099","0.8","8.67","29.8253","4.71242","42.73","0","SATNPRO1509","30.174","0.42262","5"],
    [48708,"HCEP03730542","2025-02-16 16:45:00","10.045","3.30303","26.329","3.963","7.53","4.301","39.207","4.67","38.18","29.8262","4.71254","42.53","0","SATNPRO1509","29.938","0.4193","5"],
    [48709,"HCEP03730542","2025-02-16 17:00:00","10.0453","3.30306","26.435","3.937","7.53","0.357","5.785","0.07","0.36","29.8264","4.71256","42.24","0","SATNPRO1509","29.868","0.41834","5"],
    [48710,"HCEP03730542","2025-02-16 17:15:00","10.0453","3.30309","26.55","3.924","7.53","0.325","5.577","0.05","0.25","29.8265","4.71259","42.11","0","SATNPRO1509","29.904","0.4189","5"],
    [48711,"HCEP03730542","2025-02-16 17:30:00","10.0451","3.30303","26.663","3.922","7.53","0.337","5.824","0.05","0.52","29.826","4.71253","42.09","0","SATNPRO1509","29.914","0.419","5"],
    [48712,"HCEP03730542","2025-02-16 17:45:00","10.0459","3.3033","26.773","3.924","7.53","0.325","5.347","0.06","0.26","29.8281","4.71282","42.11","0","SATNPRO1509","30.05","0.42088","5"],
    [48713,"HCEP03730542","2025-02-16 18:00:00","10.0461","3.30338","26.861","3.933","7.53","0.325","5.672","0.04","0.33","29.8287","4.71291","42.21","0","SATNPRO1509","29.936","0.41932","5"],
    [48714,"HCEP03730542","2025-02-16 18:15:00","10.0453","3.30323","26.975","3.936","7.53","0.314","5.277","0.05","0.29","29.8277","4.71279","42.24","0","SATNPRO1509","30.176","0.4227","5"],
    [48715,"HCEP03730542","2025-02-16 18:30:00","10.0455","3.30334","27.017","3.946","7.53","0.333","5.034","0.05","0.45","29.8287","4.71293","42.35","0","SATNPRO1509","30.046","0.42084","5"],
    [48716,"HCEP03730542","2025-02-16 18:45:00","10.046","3.30351","27.147","3.949","7.53","0.307","5.085","0.03","0.4","29.83","4.71312","42.37","0","SATNPRO1509","30.056","0.42096","5"],
    [48717,"HCEP03730542","2025-02-16 19:00:00","10.0464","3.30355","27.16","3.945","7.53","0.317","5.217","0.03","0.32","29.83","4.71311","42.34","0","SATNPRO1509","29.964000000000002","0.41966","5"],
    [48718,"HCEP03730542","2025-02-16 19:15:00","10.046","3.30355","27.171","3.944","7.53","0.3","5.041","0.03","0.23","29.8303","4.71316","42.32","0","SATNPRO1509","29.93","0.41924","5"],
    [48719,"HCEP03730542","2025-02-16 19:30:00","10.0461","3.30353","27.17","3.947","7.53","0.298","4.656","0.03","0.27","29.83","4.71312","42.36","0","SATNPRO1509","30.062","0.42106","5"],
    [48720,"HCEP03730542","2025-02-16 19:45:00","10.046","3.30353","27.111","3.95","7.53","0.34","4.514","0.1","0.29","29.8302","4.71314","42.39","0","SATNPRO1509","30.064","0.4211","5"],
    [48721,"HCEP03730542","2025-02-16 20:00:00","10.0458","3.30351","27.122","3.95","7.53","0.328","4.444","0.06","0.28","29.8301","4.71313","42.39","0","SATNPRO1509","30.102","0.42162","5"],
    [48722,"HCEP03730542","2025-02-16 20:15:00","10.0459","3.30356","27.081","3.957","7.53","0.322","4.599","0.06","0.28","29.8306","4.71319","42.46","0","SATNPRO1509","30.008","0.4203","5"],
    [48723,"HCEP03730542","2025-02-16 20:30:00","10.0463","3.3036","27.001","3.95","7.53","0.345","4.733","0.06","0.26","29.8306","4.71318","42.39","0","SATNPRO1509","29.986","0.42002","5"],
    [48724,"HCEP03730542","2025-02-16 20:45:00","10.0468","3.30358","26.919","3.935","7.53","0.386","6.888","0.13","2.85","29.83","4.71309","42.23","0","SATNPRO1509","29.912","0.41898","5"],
    [48725,"HCEP03730542","2025-02-16 21:00:00","10.046","3.30339","26.866","3.912","7.53","0.34","5.445","0.05","0.34","29.8289","4.71294","41.98","0","SATNPRO1509","29.776","0.41708","5"],
    [48726,"HCEP03730542","2025-02-16 21:15:00","10.0437","3.30298","26.776","3.904","7.53","0.413","5.463","0.1","0.29","29.8267","4.71267","41.89","0","SATNPRO1509","29.856","0.41814","5"],
    [48727,"HCEP03730542","2025-02-16 21:30:00","10.0405","3.30243","26.669","3.918","7.53","0.383","4.496","0.13","0.33","29.8238","4.7123","42.04","0","SATNPRO1509","29.996","0.42016","5"],
    [48728,"HCEP03730542","2025-02-16 21:45:00","10.0406","3.30238","26.561","3.928","7.53","0.361","4.32","0.07","0.38","29.8233","4.71221","42.15","0","SATNPRO1509","29.832","0.41786","5"],
    [48729,"HCEP03730542","2025-02-16 22:00:00","10.0423","3.30272","26.471","3.928","7.53","0.348","4.9","0.04","0.44","29.8254","4.71248","42.14","0","SATNPRO1509","29.862000000000002","0.41828","5"],
    [48730,"HCEP03730542","2025-02-16 22:15:00","10.0414","3.30252","26.327","3.912","7.53","0.352","4.209","0.07","0.19","29.8242","4.71232","41.97","0","SATNPRO1509","29.92","0.41908","5"],
    [48731,"HCEP03730542","2025-02-16 22:30:00","10.0422","3.30271","26.218","3.911","7.53","0.352","4.669","0.07","0.18","29.8254","4.71247","41.96","0","SATNPRO1509","29.872","0.41838","5"],
    [48732,"HCEP03730542","2025-02-16 22:45:00","10.0451","3.30317","26.12","3.889","7.52","0.324","5.081","0.05","0.23","29.8277","4.71274","41.74","0","SATNPRO1509","29.808","0.41748","5"],
    [48733,"HCEP03730542","2025-02-16 23:00:00","10.0469","3.30353","26.002","3.858","7.52","0.347","5.013","0.07","0.22","29.8299","4.71302","41.4","0","SATNPRO1509","29.688","0.41584","5"],
    [48734,"HCEP03730542","2025-02-16 23:15:00","10.047","3.30352","25.9","3.843","7.52","0.33","4.72","0.06","0.18","29.8297","4.71298","41.24","0","SATNPRO1509","29.796","0.41738","5"],
    [48735,"HCEP03730542","2025-02-16 23:30:00","10.0467","3.30346","25.744","3.851","7.52","0.325","4.521","0.05","0.18","29.8295","4.71294","41.32","0","SATNPRO1509","29.874000000000002","0.41846","5"],
    [48736,"HCEP03730542","2025-02-16 23:45:00","10.0469","3.30352","25.659","3.86","7.52","0.319","4.717","0.05","0.22","29.8299","4.713","41.42","0","SATNPRO1509","29.823999999999998","0.41772","5"],
    [48737,"HCEP03730542","2025-02-17 00:00:00","10.0466","3.30357","25.544","3.855","7.52","0.323","4.304","0.05","0.13","29.8307","4.71311","41.37","0","SATNPRO1509","30.088","0.42144","5"],
    [48738,"HCEP03730542","2025-02-17 00:15:00","10.0468","3.30354","25.435","3.856","7.52","0.329","4.252","0.08","0.2","29.8303","4.71305","41.38","0","SATNPRO1509","29.951999999999998","0.41952","5"],
    [48739,"HCEP03730542","2025-02-17 00:30:00","10.047","3.30352","25.368","3.86","7.52","0.317","4.495","0.04","0.23","29.8299","4.71298","41.43","0","SATNPRO1509","29.874","0.41842","5"],
    [48740,"HCEP03730542","2025-02-17 00:45:00","10.0459","3.30342","25.284","3.868","7.53","0.305","3.928","0.04","0.18","29.8299","4.71299","41.51","0","SATNPRO1509","30.04","0.42074","5"],
    [48741,"HCEP03730542","2025-02-17 01:00:00","10.0423","3.30282","25.254","3.901","7.53","0.302","3.405","0.04","0.2","29.8269","4.71262","41.86","0","SATNPRO1509","30.276","0.42408","5"],
    [48742,"HCEP03730542","2025-02-17 01:15:00","10.0452","3.30326","25.273","3.936","7.53","0.305","3.902","0.03","0.18","29.8289","4.71286","42.24","0","SATNPRO1509","30.044","0.4208","5"],
    [48743,"HCEP03730542","2025-02-17 01:30:00","10.045","3.30317","25.282","3.895","7.53","0.315","4.263","0.04","0.29","29.8281","4.71276","41.8","0","SATNPRO1509","29.733999999999998","0.4165","5"],
    [48744,"HCEP03730542","2025-02-17 01:45:00","10.0449","3.30308","25.342","3.861","7.52","0.323","4.854","0.03","0.46","29.8273","4.71265","41.43","0","SATNPRO1509","29.704","0.41604","5"],
    [48745,"HCEP03730542","2025-02-17 02:00:00","10.0462","3.30316","25.386","3.834","7.52","6.954","255.995","3.68","136.01","29.827","4.71259","41.14","0","SATNPRO1509","29.898","0.41874","5"],
    [48746,"HCEP03730542","2025-02-17 02:15:00","10.0441","3.30299","25.491","3.798","7.52","0.763","50.168","0.47","24.53","29.827","4.71262","40.76","0","SATNPRO1509","29.768","0.41698","5"],
    [48747,"HCEP03730542","2025-02-17 02:30:00","10.0433","3.30274","25.581","3.808","7.52","0.344","4.565","0.04","0.27","29.8251","4.71237","40.86","0","SATNPRO1509","29.814","0.41758","5"],
    [48748,"HCEP03730542","2025-02-17 02:45:00","10.0437","3.30288","25.681","3.826","7.52","0.334","5.558","0.04","0.35","29.8261","4.71251","41.05","0","SATNPRO1509","29.682","0.41572","5"],
    [48749,"HCEP03730542","2025-02-17 03:00:00","10.0434","3.30286","25.805","3.795","7.52","0.344","6.157","0.03","0.26","29.8261","4.71253","40.72","0","SATNPRO1509","29.522000000000002","0.4135","5"],
    [48750,"HCEP03730542","2025-02-17 03:15:00","10.0412","3.30286","25.937","3.784","7.52","0.339","5.936","0.03","0.19","29.828","4.71283","40.6","0","SATNPRO1509","29.524","0.4135","5"],
    [48751,"HCEP03730542","2025-02-17 03:30:00","10.0419","3.30318","26.101","3.8","7.52","0.334","5.64","0.03","0.28","29.8304","4.71318","40.77","0","SATNPRO1509","29.492","0.4131","5"],
    [48752,"HCEP03730542","2025-02-17 03:45:00","10.0464","3.30352","26.266","3.8","7.52","0.318","6.354","0.02","0.26","29.8301","4.71307","40.78","0","SATNPRO1509","29.506","0.41324","5"],
    [48753,"HCEP03730542","2025-02-17 04:00:00","10.0446","3.30326","26.423","3.766","7.52","0.352","6.08","0.03","0.31","29.8289","4.71294","40.41","0","SATNPRO1509","29.637999999999998","0.41512","5"],
    [48754,"HCEP03730542","2025-02-17 04:15:00","10.0431","3.30339","26.621","3.776","7.52","0.344","6.72","0.05","0.35","29.8314","4.71333","40.51","0","SATNPRO1509","29.5","0.4132","5"],
    [48755,"HCEP03730542","2025-02-17 04:30:00","10.0392","3.30328","26.731","3.799","7.52","0.338","6.762","0.03","0.31","29.8334","4.71369","40.76","0","SATNPRO1509","29.57","0.41418","5"],
    [48756,"HCEP03730542","2025-02-17 04:45:00","10.0348","3.30311","26.865","3.857","7.53","0.341","6.856","0.03","0.43","29.8353","4.71404","41.38","0","SATNPRO1509","29.616","0.41484","5"],
    [48757,"HCEP03730542","2025-02-17 05:00:00","10.0319","3.30291","27.028","3.919","7.53","0.345","6.767","0.03","0.24","29.8357","4.71415","42.05","0","SATNPRO1509","29.678","0.41566","5"],
    [48758,"HCEP03730542","2025-02-17 05:15:00","10.0272","3.30252","27.149","3.985","7.54","0.325","6.183","0.02","0.26","29.8355","4.71422","42.75","0","SATNPRO1509","29.862000000000002","0.41828","5"],
    [48759,"HCEP03730542","2025-02-17 05:30:00","10.0223","3.30168","27.312","4.056","7.54","0.395","6.355","0.05","1.1","29.8311","4.71367","43.5","0","SATNPRO1509","30.134","0.4221","5"],
    [48760,"HCEP03730542","2025-02-17 05:45:00","10.0223","3.30221","27.459","4.128","7.54","0.323","5.564","0.03","0.38","29.8364","4.71444","44.28","0","SATNPRO1509","30.082","0.42132","5"],
    [48761,"HCEP03730542","2025-02-17 06:00:00","10.0186","3.30231","27.586","4.174","7.55","0.327","5.704","0.04","0.41","29.8404","4.71509","44.77","0","SATNPRO1509","30.144","0.4222","5"],
    [48762,"HCEP03730542","2025-02-17 06:15:00","10.0171","3.30226","27.666","4.243","7.55","0.329","5.291","0.05","0.24","29.8411","4.71522","45.51","0","SATNPRO1509","30.254","0.42378","5"],
    [48763,"HCEP03730542","2025-02-17 06:30:00","10.0176","3.302","27.769","4.274","7.55","0.347","5.15","0.04","0.29","29.838","4.71478","45.84","0","SATNPRO1509","30.226","0.42338","5"],
    [48764,"HCEP03730542","2025-02-17 06:45:00","10.0176","3.3023","27.834","4.272","7.55","0.321","5.564","0.03","0.31","29.8409","4.71519","45.82","0","SATNPRO1509","30.26","0.42386","5"],
    [48765,"HCEP03730542","2025-02-17 07:00:00","10.0184","3.30234","27.896","4.278","7.55","0.334","5.641","0.03","0.22","29.8407","4.71514","45.88","0","SATNPRO1509","30.27","0.42398","5"],
    [48766,"HCEP03730542","2025-02-17 07:15:00","10.0196","3.30236","27.907","4.275","7.55","0.313","5.558","0.03","0.3","29.8399","4.71501","45.86","0","SATNPRO1509","30.258","0.42382","5"],
    [48767,"HCEP03730542","2025-02-17 07:30:00","10.0198","3.30238","27.924","4.263","7.55","0.345","6.314","0.04","0.33","29.8399","4.71501","45.72","0","SATNPRO1509","30.218","0.42326","5"],
    [48768,"HCEP03730542","2025-02-17 07:45:00","10.0187","3.30237","27.908","4.26","7.55","0.349","7.154","0.05","0.34","29.8407","4.71515","45.69","0","SATNPRO1509","30.256","0.4238","5"],
    [48769,"HCEP03730542","2025-02-17 08:00:00","10.0166","3.30227","27.867","4.274","7.56","0.333","6.264","0.05","0.34","29.8415","4.71529","45.83","0","SATNPRO1509","30.322","0.42476","5"],
    [48770,"HCEP03730542","2025-02-17 08:15:00","10.015","3.30221","27.818","4.306","7.56","0.339","5.63","0.06","0.32","29.8423","4.71543","46.18","0","SATNPRO1509","30.291999999999998","0.4243","5"],
    [48771,"HCEP03730542","2025-02-17 08:30:00","10.0131","3.3021","27.75","4.329","7.56","0.332","5.586","0.04","0.45","29.8428","4.71553","46.42","0","SATNPRO1509","30.39","0.42568","5"],
    [48772,"HCEP03730542","2025-02-17 08:45:00","10.0109","3.30198","27.685","4.358","7.56","0.332","5.661","0.05","0.31","29.8434","4.71565","46.73","0","SATNPRO1509","30.326","0.42476","5"],
    [48773,"HCEP03730542","2025-02-17 09:00:00","10.0078","3.30181","27.601","4.391","7.57","0.333","5.775","0.04","0.35","29.8442","4.71582","47.09","0","SATNPRO1509","30.258","0.42382","5"],
    [48774,"HCEP03730542","2025-02-17 09:15:00","10.0002","3.30134","27.477","4.442","7.57","0.335","5.402","0.07","0.24","29.8459","4.71619","47.63","0","SATNPRO1509","30.406","0.42586","5"],
    [48775,"HCEP03730542","2025-02-17 09:30:00","9.9954","3.30114","27.345","4.534","7.58","0.359","6.12","0.05","0.84","29.8479","4.71654","48.6","0","SATNPRO1509","30.508","0.42734","5"],
    [48776,"HCEP03730542","2025-02-17 09:45:00","9.9942","3.30122","27.237","4.594","7.58","0.347","6.161","0.04","0.6","29.8497","4.71681","49.24","0","SATNPRO1509","30.558","0.42796","5"],
    [48777,"HCEP03730542","2025-02-17 10:00:00","9.9943","3.30153","27.115","4.627","7.58","0.389","6.943","0.08","0.88","29.8527","4.71723","49.6","0","SATNPRO1509","30.438","0.42632","5"],
    [48778,"HCEP03730542","2025-02-17 10:15:00","9.9983","3.3023","26.984","4.618","7.58","0.318","5.246","0.03","0.19","29.8572","4.71779","49.51","0","SATNPRO1509","30.355999999999998","0.4252","5"],
    [48779,"HCEP03730542","2025-02-17 10:30:00","10.0053","3.30351","26.849","4.562","7.58","0.326","6.38","0.03","1.23","29.8636","4.71858","48.92","0","SATNPRO1509","30.194","0.42294","5"],
    [48780,"HCEP03730542","2025-02-17 10:45:00","10.0091","3.30411","26.714","4.471","7.57","0.298","5.446","0.03","0.55","29.8666","4.71894","47.96","0","SATNPRO1509","30.036","0.42074","5"],
    [48781,"HCEP03730542","2025-02-17 11:00:00","10.0081","3.30397","26.56","4.406","7.57","0.401","6.242","0.09","0.87","29.866","4.71886","47.25","0","SATNPRO1509","30.064","0.4211","5"],
    [48782,"HCEP03730542","2025-02-17 11:15:00","10.0127","3.3048","26.4","4.38","7.56","0.314","5.384","0.04","0.33","29.8706","4.71943","46.98","0","SATNPRO1509","29.878","0.41854","5"],
    [48783,"HCEP03730542","2025-02-17 11:30:00","10.0162","3.30538","26.228","4.324","7.56","0.311","5.344","0.04","0.45","29.8736","4.71979","46.38","0","SATNPRO1509","30.018","0.42046","5"],
    [48784,"HCEP03730542","2025-02-17 11:45:00","10.0186","3.30589","26.044","4.272","7.56","0.3","4.859","0.05","0.35","29.8768","4.72019","45.83","0","SATNPRO1509","29.782","0.41714","5"],
    [48785,"HCEP03730542","2025-02-17 12:00:00","10.0201","3.306","25.869","4.238","7.56","0.319","4.553","0.09","0.32","29.8768","4.72015","45.47","0","SATNPRO1509","29.996","0.42012","5"],
    [48786,"HCEP03730542","2025-02-17 12:15:00","10.0195","3.3059","25.699","4.205","7.55","0.305","4.785","0.05","0.36","29.8763","4.72008","45.11","0","SATNPRO1509","29.982","0.41998","5"],
    [48787,"HCEP03730542","2025-02-17 12:30:00","10.019","3.3058","25.521","4.196","7.55","0.271","4.414","0.03","0.27","29.8758","4.72001","45.01","0","SATNPRO1509","29.878","0.41846","5"],
    [48788,"HCEP03730542","2025-02-17 12:45:00","10.0168","3.30557","25.373","4.205","7.56","0.298","4.095","0.05","0.21","29.8753","4.71997","45.11","0","SATNPRO1509","29.964","0.41964","5"],
    [48789,"HCEP03730542","2025-02-17 13:00:00","10.0167","3.30556","25.244","4.226","7.56","0.393","4.085","0.12","0.18","29.8754","4.71997","45.34","0","SATNPRO1509","29.951999999999998","0.41954","5"],
    [48790,"HCEP03730542","2025-02-17 13:15:00","10.0171","3.30557","25.14","4.23","7.56","0.315","4.352","0.07","0.52","29.8752","4.71993","45.38","0","SATNPRO1509","30.041999999999998","0.42078","5"],
    [48791,"HCEP03730542","2025-02-17 13:30:00","10.0164","3.30547","25.068","4.234","7.56","0.322","4.234","0.06","0.35","29.8748","4.71988","45.42","0","SATNPRO1509","30.144","0.4222","5"],
    [48792,"HCEP03730542","2025-02-17 13:45:00","10.017","3.30551","25.023","4.247","7.56","0.374","4.484","0.11","0.5","29.8748","4.71987","45.56","0","SATNPRO1509","30.068","0.42118","5"],
    [48793,"HCEP03730542","2025-02-17 14:00:00","10.016","3.30543","25.016","4.244","7.56","0.333","4.093","0.17","0.2","29.8748","4.7199","45.52","0","SATNPRO1509","29.971999999999998","0.41984","5"],
    [48794,"HCEP03730542","2025-02-17 14:15:00","10.0161","3.30539","25.034","4.251","7.56","0.282","4.271","0.03","0.38","29.8743","4.71981","45.6","0","SATNPRO1509","29.97","0.41982","5"],
    [48795,"HCEP03730542","2025-02-17 14:30:00","10.0173","3.30565","25.056","4.247","7.56","0.29","4.399","0.04","0.38","29.8758","4.72002","45.56","0","SATNPRO1509","29.85","0.4181","5"],
    [48796,"HCEP03730542","2025-02-17 14:45:00","10.0203","3.30606","25.089","4.223","7.55","0.313","4.593","0.08","0.24","29.8775","4.7202","45.3","0","SATNPRO1509","29.77","0.41698","5"],
    [48797,"HCEP03730542","2025-02-17 15:00:00","10.0217","3.30622","25.127","4.181","7.55","0.287","4.427","0.05","0.25","29.878","4.72025","44.86","0","SATNPRO1509","29.686","0.41578","5"],
    [48798,"HCEP03730542","2025-02-17 15:15:00","10.0217","3.30642","25.188","4.157","7.55","0.273","4.289","0.03","0.29","29.8799","4.72053","44.6","0","SATNPRO1509","29.732","0.41646","5"],
    [48799,"HCEP03730542","2025-02-17 15:30:00","10.0217","3.30684","25.261","4.144","7.55","0.272","4.865","0.03","0.4","29.884","4.72112","44.46","0","SATNPRO1509","29.75","0.4167","5"],
    [48800,"HCEP03730542","2025-02-17 15:45:00","10.0236","3.30716","25.333","4.131","7.55","0.281","5.109","0.03","0.41","29.8857","4.72133","44.33","0","SATNPRO1509","29.336","0.4109","5"],
    [48801,"HCEP03730542","2025-02-17 16:00:00","10.0252","3.30748","25.422","4.095","7.54","0.299","5.846","0.06","0.46","29.8876","4.72158","43.94","0","SATNPRO1509","29.508","0.41328","5"],
    [48802,"HCEP03730542","2025-02-17 16:15:00","10.0203","3.30739","25.518","4.067","7.55","0.293","5.056","0.06","0.27","29.8906","4.7221","43.63","0","SATNPRO1509","29.568","0.41414","5"],
    [48803,"HCEP03730542","2025-02-17 16:30:00","10.0215","3.30754","25.61","4.13","7.55","0.27","5.57","0.02","0.34","29.8912","4.72216","44.32","0","SATNPRO1509","29.646","0.41524","5"],
    [48804,"HCEP03730542","2025-02-17 16:45:00","10.0164","3.30734","25.717","4.14","7.55","0.281","5.678","0.03","0.36","29.8932","4.72255","44.42","0","SATNPRO1509","29.926","0.41918","5"],
    [48805,"HCEP03730542","2025-02-17 17:00:00","10.0095","3.30699","25.827","4.231","7.56","0.292","5.331","0.04","0.34","29.8954","4.72299","45.39","0","SATNPRO1509","30.248","0.42366","5"],
    [48806,"HCEP03730542","2025-02-17 17:15:00","10.0038","3.30661","25.947","4.343","7.57","0.283","4.691","0.03","0.32","29.8963","4.72321","46.59","0","SATNPRO1509","30.456","0.4266","5"],
    [48807,"HCEP03730542","2025-02-17 17:30:00","10.0049","3.30681","26.06","4.412","7.57","0.284","4.834","0.04","0.37","29.8973","4.72335","47.32","0","SATNPRO1509","30.388","0.42566","5"],
    [48808,"HCEP03730542","2025-02-17 17:45:00","10.0077","3.30699","26.171","4.409","7.57","0.567","18.086","0.67","19.2","29.8968","4.72323","47.29","0","SATNPRO1509","30.278","0.4241","5"],
    [48809,"HCEP03730542","2025-02-17 18:00:00","10.0075","3.30701","26.288","4.392","7.57","0.292","4.164","0.08","0.25","29.897","4.72328","47.11","0","SATNPRO1509","29.918","0.4191","5"],
    [48810,"HCEP03730542","2025-02-17 18:15:00","10.007","3.30697","26.411","4.388","7.57","0.291","4.25","0.08","0.22","29.8971","4.7233","47.07","0","SATNPRO1509","30.182000000000002","0.42272","5"],
    [48811,"HCEP03730542","2025-02-17 18:30:00","10.0071","3.30701","26.528","4.379","7.57","0.312","4.316","0.1","0.26","29.8973","4.72334","46.97","0","SATNPRO1509","30.392","0.42568","5"],
    [48812,"HCEP03730542","2025-02-17 18:45:00","10.007","3.30698","26.643","4.376","7.57","0.265","4.122","0.02","0.26","29.8971","4.72332","46.93","0","SATNPRO1509","30.154","0.4224","5"],
    [48813,"HCEP03730542","2025-02-17 19:00:00","10.0083","3.30704","26.729","4.375","7.57","0.281","4.303","0.04","0.32","29.8966","4.72322","46.93","0","SATNPRO1509","30.106","0.4217","5"],
    [48814,"HCEP03730542","2025-02-17 19:15:00","10.0118","3.30722","26.803","4.359","7.57","0.339","4.29","0.15","1.01","29.8954","4.723","46.76","0","SATNPRO1509","30.078","0.42128","5"],
    [48815,"HCEP03730542","2025-02-17 19:30:00","10.0167","3.30746","26.865","4.315","7.56","0.298","4.639","0.04","0.22","29.8937","4.72268","46.3","0","SATNPRO1509","29.872","0.41844","5"],
    [48816,"HCEP03730542","2025-02-17 19:45:00","10.0183","3.30754","26.92","4.238","7.56","0.267","4.702","0.02","0.25","29.8932","4.72259","45.47","0","SATNPRO1509","29.721999999999998","0.4163","5"],
    [48817,"HCEP03730542","2025-02-17 20:00:00","10.017","3.30744","26.96","4.196","7.56","0.278","4.541","0.03","0.4","29.8933","4.72262","45.02","0","SATNPRO1509","29.848","0.41808","5"],
    [48818,"HCEP03730542","2025-02-17 20:15:00","10.0154","3.3073","26.972","4.206","7.56","0.279","4.269","0.04","0.22","29.8932","4.72263","45.12","0","SATNPRO1509","29.830000000000002","0.4178","5"],
    [48819,"HCEP03730542","2025-02-17 20:30:00","10.0119","3.30701","26.965","4.227","7.56","0.27","4.402","0.03","0.3","29.8932","4.72269","45.35","0","SATNPRO1509","29.92","0.41908","5"],
    [48820,"HCEP03730542","2025-02-17 20:45:00","10.0122","3.30691","26.938","4.256","7.56","0.291","4.646","0.06","0.37","29.8919","4.7225","45.65","0","SATNPRO1509","29.924","0.41914","5"],
    [48821,"HCEP03730542","2025-02-17 21:00:00","10.0122","3.30669","26.889","4.258","7.56","0.327","4.85","0.13","0.17","29.8897","4.72219","45.67","0","SATNPRO1509","29.65","0.4153","5"],
    [48822,"HCEP03730542","2025-02-17 21:15:00","10.0104","3.30643","26.857","4.249","7.56","0.287","5.027","0.04","0.39","29.8887","4.72207","45.58","0","SATNPRO1509","29.816","0.41762","5"],
    [48823,"HCEP03730542","2025-02-17 21:30:00","10.0089","3.30622","26.807","4.26","7.56","0.297","4.782","0.05","0.25","29.8878","4.72196","45.69","0","SATNPRO1509","29.934","0.4193","5"],
    [48824,"HCEP03730542","2025-02-17 21:45:00","10.0048","3.30578","26.761","4.29","7.56","0.278","5.374","0.03","0.48","29.8868","4.7219","46.01","0","SATNPRO1509","29.916","0.41902","5"],
    [48825,"HCEP03730542","2025-02-17 22:00:00","10.0011","3.30544","26.698","4.339","7.57","0.298","5.364","0.04","0.43","29.8865","4.72191","46.54","0","SATNPRO1509","29.83","0.41786","5"],
    [48826,"HCEP03730542","2025-02-17 22:15:00","9.9982","3.30503","26.631","4.396","7.57","0.294","4.702","0.04","0.3","29.8849","4.72172","47.14","0","SATNPRO1509","30.194","0.42292","5"],
    [48827,"HCEP03730542","2025-02-17 22:30:00","9.9977","3.3049","26.55","4.445","7.57","0.309","4.721","0.04","0.26","29.8839","4.72159","47.67","0","SATNPRO1509","30.13","0.42202","5"],
    [48828,"HCEP03730542","2025-02-17 22:45:00","9.9987","3.30473","26.48","4.468","7.58","0.3","4.806","0.04","0.28","29.8815","4.72123","47.91","0","SATNPRO1509","30.256","0.4238","5"],
    [48829,"HCEP03730542","2025-02-17 23:00:00","9.9982","3.30466","26.401","4.472","7.58","0.311","4.301","0.13","0.3","29.8812","4.72118","47.95","0","SATNPRO1509","30.182","0.42276","5"],
    [48830,"HCEP03730542","2025-02-17 23:15:00","9.9969","3.30457","26.329","4.477","7.58","0.335","5.036","0.1","0.3","29.8815","4.72124","48.01","0","SATNPRO1509","30.114","0.4218","5"],
    [48831,"HCEP03730542","2025-02-17 23:30:00","9.9953","3.30449","26.242","4.485","7.58","0.277","4.111","0.05","0.31","29.8819","4.72133","48.1","0","SATNPRO1509","30.132","0.42204","5"],
    [48832,"HCEP03730542","2025-02-17 23:45:00","9.9953","3.30446","26.151","4.507","7.58","0.314","4.158","0.08","0.33","29.8817","4.72129","48.32","0","SATNPRO1509","30.212","0.42316","5"],
    [48833,"HCEP03730542","2025-02-18 00:00:00","9.9942","3.30442","26.07","4.513","7.58","0.342","4.416","0.11","0.21","29.8822","4.72138","48.4","0","SATNPRO1509","30.268","0.42394","5"],
    [48834,"HCEP03730542","2025-02-18 00:15:00","9.9929","3.30437","25.991","4.519","7.58","0.268","4.405","0.02","0.18","29.8829","4.72149","48.46","0","SATNPRO1509","30.004","0.42024","5"],
    [48835,"HCEP03730542","2025-02-18 00:30:00","9.9922","3.30442","25.902","4.53","7.58","0.272","4.489","0.03","0.44","29.8839","4.72165","48.57","0","SATNPRO1509","30.334","0.4249","5"],
    [48836,"HCEP03730542","2025-02-18 00:45:00","9.9908","3.30448","25.814","4.543","7.58","0.279","4.419","0.04","0.29","29.8858","4.72193","48.71","0","SATNPRO1509","30.192","0.42292","5"],
    [48837,"HCEP03730542","2025-02-18 01:00:00","9.9907","3.30483","25.741","4.546","7.58","0.315","5.022","0.07","0.27","29.8893","4.72243","48.74","0","SATNPRO1509","30.118","0.42186","5"],
    [48838,"HCEP03730542","2025-02-18 01:15:00","9.988","3.30478","25.671","4.532","7.58","0.267","4.717","0.03","0.27","29.8911","4.72273","48.59","0","SATNPRO1509","30.394","0.42574","5"],
    [48839,"HCEP03730542","2025-02-18 01:30:00","9.9878","3.3045","25.626","4.551","7.58","0.314","4.074","0.06","0.31","29.8885","4.72236","48.8","0","SATNPRO1509","30.354","0.42516","5"],
    [48840,"HCEP03730542","2025-02-18 01:45:00","9.9883","3.3045","25.605","4.575","7.58","0.428","7.896","0.37","9.47","29.8882","4.7223","49.05","0","SATNPRO1509","30.352","0.42514","5"],
    [48841,"HCEP03730542","2025-02-18 02:00:00","9.9883","3.30459","25.628","4.583","7.58","0.318","3.718","0.1","0.22","29.889","4.72242","49.14","0","SATNPRO1509","30.418","0.42602","5"],
    [48842,"HCEP03730542","2025-02-18 02:15:00","9.9858","3.30495","25.668","4.58","7.58","0.306","4.983","0.11","0.27","29.8946","4.72327","49.1","0","SATNPRO1509","30.233999999999998","0.42344","5"],
    [48843,"HCEP03730542","2025-02-18 02:30:00","9.985900000000001","3.30496","25.723","4.566","7.58","0.32","4.649","0.11","0.19","29.8947","4.72328","48.95","0","SATNPRO1509","30.326","0.42478","5"],
    [48844,"HCEP03730542","2025-02-18 02:45:00","9.9862","3.30536","25.798","4.557","7.58","0.306","5.72","0.05","0.43","29.8984","4.7238","48.86","0","SATNPRO1509","29.892","0.41866","5"],
    [48845,"HCEP03730542","2025-02-18 03:00:00","9.9836","3.30515","25.885","4.508","7.58","0.327","5.641","0.08","0.4","29.8983","4.72385","48.33","0","SATNPRO1509","29.900000000000002","0.4188","5"],
    [48846,"HCEP03730542","2025-02-18 03:15:00","9.9829","3.30528","25.984","4.556","7.58","0.29","5.195","0.03","0.28","29.9002","4.72414","48.85","0","SATNPRO1509","30.381999999999998","0.42558","5"],
    [48847,"HCEP03730542","2025-02-18 03:30:00","9.9809","3.30545","26.068","4.557","7.58","0.339","5.782","0.07","0.36","29.9036","4.72466","48.86","0","SATNPRO1509","29.98","0.41996","5"],
    [48848,"HCEP03730542","2025-02-18 03:45:00","9.98","3.30558","26.157","4.537","7.58","0.334","5.509","0.1","0.38","29.9056","4.72496","48.64","0","SATNPRO1509","29.674","0.41568","5"],
    [48849,"HCEP03730542","2025-02-18 04:00:00","9.9807","3.30569","26.255","4.533","7.58","0.349","5.713","0.1","0.33","29.906","4.72502","48.59","0","SATNPRO1509","29.944","0.41944","5"],
    [48850,"HCEP03730542","2025-02-18 04:15:00","9.9793","3.30566","26.357","4.519","7.58","1.257","31.216","0.43","19.74","29.9068","4.72516","48.45","0","SATNPRO1509","29.78","0.41714","5"],
    [48851,"HCEP03730542","2025-02-18 04:30:00","9.9809","3.30599","26.472","4.556","7.58","0.289","5.178","0.04","0.23","29.9088","4.72542","48.85","0","SATNPRO1509","30.054","0.42096","5"],
    [48852,"HCEP03730542","2025-02-18 04:45:00","9.9865","3.30612","26.604","4.54","7.58","0.274","5.075","0.02","0.25","29.9054","4.72485","48.67","0","SATNPRO1509","29.996000000000002","0.42018","5"],
    [48853,"HCEP03730542","2025-02-18 05:00:00","9.9963","3.30642","26.732","4.494","7.57","1.901","57.009","1.44","22.54","29.9002","4.72395","48.19","0","SATNPRO1509","30.268","0.42394","5"],
    [48854,"HCEP03730542","2025-02-18 05:15:00","10.0187","3.3074","26.859","4.407","7.57","0.272","4.461","0.03","0.25","29.8915","4.72233","47.28","0","SATNPRO1509","30.302","0.42442","5"],
    [48855,"HCEP03730542","2025-02-18 05:30:00","10.007","3.30707","26.969","4.299","7.56","4.74","592.365","0.65","188.95","29.8979","4.72345","46.12","0","SATNPRO1509","30.174","0.42262","5"],
    [48856,"HCEP03730542","2025-02-18 05:45:00","10.0151","3.30746","27.093","4.28","7.56","0.276","4.976","0.03","0.49","29.8949","4.7229","45.92","0","SATNPRO1509","30.258","0.42382","5"],
    [48857,"HCEP03730542","2025-02-18 06:00:00","10.0124","3.30739","27.208","4.254","7.56","0.285","5.187","0.02","0.26","29.8965","4.72317","45.64","0","SATNPRO1509","29.894","0.41872","5"],
    [48858,"HCEP03730542","2025-02-18 06:15:00","10.0148","3.30754","27.323","4.203","7.55","0.286","5.187","0.03","0.31","29.896","4.72307","45.09","0","SATNPRO1509","29.704","0.41604","5"],
    [48859,"HCEP03730542","2025-02-18 06:30:00","10.0194","3.30769","27.429","4.139","7.55","0.3","5.005","0.02","0.19","29.8937","4.72266","44.41","0","SATNPRO1509","29.692","0.41586","5"],
    [48860,"HCEP03730542","2025-02-18 06:45:00","10.0217","3.30775","27.511","4.089","7.54","0.278","4.765","0.03","0.21","29.8923","4.72243","43.88","0","SATNPRO1509","29.580000000000002","0.4143","5"],
    [48861,"HCEP03730542","2025-02-18 07:00:00","10.0234","3.30785","27.607","4.044","7.54","0.3","5.227","0.04","0.24","29.8918","4.72234","43.39","0","SATNPRO1509","29.388","0.41164","5"],
    [48862,"HCEP03730542","2025-02-18 07:15:00","10.0229","3.30784","27.651","4.007","7.54","0.292","5.259","0.03","0.27","29.8921","4.72239","42.99","0","SATNPRO1509","29.32","0.41066","5"],
    [48863,"HCEP03730542","2025-02-18 07:30:00","10.0222","3.30778","27.705","4.004","7.54","0.319","6.326","0.08","3","29.8921","4.7224","42.97","0","SATNPRO1509","29.612000000000002","0.41478","5"],
    [48864,"HCEP03730542","2025-02-18 07:45:00","10.022","3.30781","27.716","4.022","7.54","0.313","5.319","0.06","0.34","29.8925","4.72247","43.16","0","SATNPRO1509","29.52","0.41348","5"],
    [48865,"HCEP03730542","2025-02-18 08:00:00","10.0227","3.30781","27.699","4.022","7.54","0.307","5.081","0.03","0.27","29.892","4.72238","43.16","0","SATNPRO1509","29.496","0.4131","5"],
    [48866,"HCEP03730542","2025-02-18 08:15:00","10.022","3.30773","27.701","4.008","7.54","0.297","4.846","0.04","0.29","29.8918","4.72236","43","0","SATNPRO1509","29.62","0.41486","5"],
    [48867,"HCEP03730542","2025-02-18 08:30:00","10.0219","3.30767","27.699","4.017","7.54","0.325","5.447","0.04","0.69","29.8912","4.72229","43.1","0","SATNPRO1509","29.349999999999998","0.41112","5"],
    [48868,"HCEP03730542","2025-02-18 08:45:00","10.0214","3.30763","27.663","4.015","7.54","0.307","5.236","0.03","0.24","29.8913","4.7223","43.08","0","SATNPRO1509","29.618","0.41484","5"],
    [48869,"HCEP03730542","2025-02-18 09:00:00","10.0221","3.30759","27.602","4.015","7.54","0.322","4.884","0.06","0.28","29.8903","4.72214","43.08","0","SATNPRO1509","29.608","0.41474","5"],
    [48870,"HCEP03730542","2025-02-18 09:15:00","10.0248","3.30763","27.54","4","7.54","0.32","4.972","0.06","0.46","29.8885","4.72184","42.92","0","SATNPRO1509","29.560000000000002","0.41402","5"],
    [48871,"HCEP03730542","2025-02-18 09:30:00","10.0229","3.30728","27.455","3.971","7.54","0.433","5.783","0.39","5.48","29.8866","4.7216","42.6","0","SATNPRO1509","29.842","0.41798","5"],
    [48872,"HCEP03730542","2025-02-18 09:45:00","10.0215","3.30715","27.348","3.988","7.54","0.755","22.734","0.4","21.6","29.8865","4.72161","42.79","0","SATNPRO1509","29.65","0.41528","5"],
    [48873,"HCEP03730542","2025-02-18 10:00:00","10.0209","3.30707","27.225","4.002","7.54","0.33","5.205","0.04","0.56","29.8863","4.72157","42.94","0","SATNPRO1509","29.762","0.4169","5"],
    [48874,"HCEP03730542","2025-02-18 10:15:00","10.0201","3.30697","27.095","4.019","7.54","0.334","4.988","0.07","0.5","29.886","4.72154","43.12","0","SATNPRO1509","29.796","0.41734","5"],
    [48875,"HCEP03730542","2025-02-18 10:30:00","10.0191","3.30693","26.984","4.035","7.54","0.362","5.138","0.06","1.04","29.8865","4.72161","43.29","0","SATNPRO1509","29.756","0.41678","5"],
    [48876,"HCEP03730542","2025-02-18 10:45:00","10.0162","3.30679","26.871","4.064","7.55","0.353","3.962","0.15","0.21","29.8875","4.72181","43.6","0","SATNPRO1509","30.096","0.4215","5"],
    [48877,"HCEP03730542","2025-02-18 11:00:00","10.0158","3.30671","26.726","4.114","7.55","0.318","4.057","0.03","0.22","29.887","4.72173","44.14","0","SATNPRO1509","30.348","0.42508","5"],
    [48878,"HCEP03730542","2025-02-18 11:15:00","10.0156","3.30666","26.562","4.139","7.55","0.354","4.135","0.07","0.32","29.8868","4.7217","44.4","0","SATNPRO1509","30.268","0.42394","5"],
    [48879,"HCEP03730542","2025-02-18 11:30:00","10.0165","3.30665","26.406","4.143","7.55","0.393","4.324","0.15","0.28","29.8861","4.72157","44.44","0","SATNPRO1509","29.912","0.41896","5"],
    [48880,"HCEP03730542","2025-02-18 11:45:00","10.0164","3.30655","26.245","4.122","7.55","0.34","4.335","0.05","0.31","29.8851","4.72143","44.22","0","SATNPRO1509","29.918","0.41906","5"],
    [48881,"HCEP03730542","2025-02-18 12:00:00","10.0153","3.30637","26.068","4.123","7.55","0.342","4.125","0.05","0.26","29.8844","4.72132","44.23","0","SATNPRO1509","30.108","0.4217","5"],
    [48882,"HCEP03730542","2025-02-18 12:15:00","10.0153","3.30637","25.89","4.139","7.55","0.33","4.365","0.04","0.4","29.8844","4.72132","44.4","0","SATNPRO1509","30.076","0.42124","5"],
    [48883,"HCEP03730542","2025-02-18 12:30:00","10.0138","3.30614","25.715","4.142","7.55","0.537","7.908","0.31","3.75","29.8834","4.7212","44.43","0","SATNPRO1509","30.22","0.42328","5"],
    [48884,"HCEP03730542","2025-02-18 12:45:00","10.0115","3.30589","25.515","4.171","7.55","0.343","3.499","0.07","0.17","29.8828","4.72114","44.74","0","SATNPRO1509","30.436","0.4263","5"],
    [48885,"HCEP03730542","2025-02-18 13:00:00","10.0128","3.30604","25.399","4.208","7.55","0.339","4.06","0.03","0.26","29.8833","4.72118","45.14","0","SATNPRO1509","30.402","0.42584","5"],
    [48886,"HCEP03730542","2025-02-18 13:15:00","10.0138","3.30617","25.289","4.193","7.55","0.366","3.895","0.08","0.41","29.8838","4.72123","44.98","0","SATNPRO1509","30.3","0.4244","5"],
    [48887,"HCEP03730542","2025-02-18 13:30:00","10.0171","3.30655","25.14","4.17","7.55","0.356","4.395","0.05","0.39","29.8851","4.72134","44.73","0","SATNPRO1509","29.998","0.42018","5"],
    [48888,"HCEP03730542","2025-02-18 13:45:00","10.0142","3.30655","25.049","4.133","7.55","0.32","4.47","0.05","1.13","29.8875","4.72173","44.34","0","SATNPRO1509","30.066","0.42118","5"],
    [48889,"HCEP03730542","2025-02-18 14:00:00","10.0103","3.30612","24.958","4.196","7.56","0.365","4.03","0.08","0.66","29.8864","4.72164","45.01","0","SATNPRO1509","30.514","0.42742","5"],
    [48890,"HCEP03730542","2025-02-18 14:15:00","10.0099","3.30634","24.94","4.274","7.56","0.313","3.876","0.04","0.27","29.889","4.72201","45.84","0","SATNPRO1509","30.508","0.4273","5"],
    [48891,"HCEP03730542","2025-02-18 14:30:00","10.0071","3.30613","24.895","4.319","7.56","0.333","4.056","0.06","0.23","29.8892","4.72209","46.33","0","SATNPRO1509","30.73","0.43044","5"],
    [48892,"HCEP03730542","2025-02-18 14:45:00","10.0051","3.30598","24.876","4.372","7.57","0.355","4.192","0.09","0.24","29.8894","4.72214","46.9","0","SATNPRO1509","30.562","0.42808","5"],
    [48893,"HCEP03730542","2025-02-18 15:00:00","10.0053","3.30596","24.869","4.404","7.57","0.366","4.975","0.09","1.06","29.889","4.72209","47.24","0","SATNPRO1509","30.564","0.4281","5"],
    [48894,"HCEP03730542","2025-02-18 15:15:00","10.0025","3.30585","24.894","4.415","7.57","0.318","4.072","0.04","0.41","29.8902","4.72231","47.35","0","SATNPRO1509","30.898","0.43276","5"],
    [48895,"HCEP03730542","2025-02-18 15:30:00","10.0012","3.30589","25.024","4.466","7.57","0.328","4.511","0.08","0.3","29.8916","4.72254","47.9","0","SATNPRO1509","30.882","0.43254","5"],
    [48896,"HCEP03730542","2025-02-18 15:45:00","9.9927","3.30535","25.013","4.54","7.58","0.327","2.934","0.07","0.28","29.8932","4.7229","48.68","0","SATNPRO1509","31.312","0.43858","5"],
    [48897,"HCEP03730542","2025-02-18 16:00:00","9.9941","3.30556","25.056","4.676","7.59","0.316","3.388","0.06","0.27","29.8942","4.72303","50.14","0","SATNPRO1509","31.172","0.4366","5"],
    [48898,"HCEP03730542","2025-02-18 16:15:00","9.9966","3.30565","25.142","4.672","7.59","0.294","3.42","0.04","0.34","29.893","4.72281","50.11","0","SATNPRO1509","31.116","0.43586","5"],
    [48899,"HCEP03730542","2025-02-18 16:30:00","9.9948","3.3055","25.214","4.645","7.59","0.313","3.568","0.05","0.34","29.8929","4.72285","49.81","0","SATNPRO1509","31.118","0.43582","5"],
    [48900,"HCEP03730542","2025-02-18 16:45:00","9.9975","3.30561","25.311","4.636","7.58","0.35","4.48","0.07","0.84","29.8917","4.72264","49.72","0","SATNPRO1509","30.988","0.43406","5"],
    [48901,"HCEP03730542","2025-02-18 17:00:00","10.0002","3.30546","25.404","4.563","7.58","0.371","4.608","0.07","0.33","29.888","4.72206","48.94","0","SATNPRO1509","30.806","0.43146","5"],
    [48902,"HCEP03730542","2025-02-18 17:15:00","9.9943","3.30482","25.511","4.503","7.58","0.351","4.509","0.08","0.35","29.8863","4.72193","48.28","0","SATNPRO1509","30.944","0.4334","5"],
    [48903,"HCEP03730542","2025-02-18 17:30:00","9.9941","3.30463","25.594","4.525","7.58","0.342","4.401","0.05","0.19","29.8847","4.7217","48.52","0","SATNPRO1509","30.894","0.43272","5"],
    [48904,"HCEP03730542","2025-02-18 17:45:00","9.9943","3.30456","25.704","4.512","7.58","0.344","4.638","0.06","0.36","29.8838","4.72158","48.38","0","SATNPRO1509","30.862","0.43228","5"],
    [48905,"HCEP03730542","2025-02-18 18:00:00","9.9933","3.30435","25.824","4.492","7.57","0.333","4.607","0.04","0.24","29.8824","4.72141","48.16","0","SATNPRO1509","30.804","0.43146","5"],
    [48906,"HCEP03730542","2025-02-18 18:15:00","9.9916","3.30416","25.937","4.484","7.57","0.308","4.955","0.03","0.25","29.8818","4.72136","48.08","0","SATNPRO1509","30.778","0.4311","5"],
    [48907,"HCEP03730542","2025-02-18 18:30:00","9.9875","3.30365","26.056","4.482","7.57","0.367","4.629","0.11","0.26","29.8801","4.72119","48.05","0","SATNPRO1509","30.934","0.43328","5"],
    [48908,"HCEP03730542","2025-02-18 18:45:00","9.9865","3.30358","26.158","4.492","7.58","0.328","4.773","0.07","0.73","29.8801","4.72122","48.15","0","SATNPRO1509","30.774","0.43108","5"],
    [48909,"HCEP03730542","2025-02-18 19:00:00","9.983","3.30321","26.286","4.496","7.58","0.343","4.41","0.06","0.22","29.8793","4.72117","48.2","0","SATNPRO1509","30.724","0.43034","5"],
    [48910,"HCEP03730542","2025-02-18 19:15:00","9.9759","3.30227","26.422","4.514","7.58","0.327","3.877","0.05","0.26","29.8757","4.72078","48.38","0","SATNPRO1509","30.936","0.4333","5"],
    [48911,"HCEP03730542","2025-02-18 19:30:00","9.9698","3.30176","26.546","4.559","7.58","0.326","4.121","0.04","0.27","29.8756","4.72088","48.85","0","SATNPRO1509","31.076","0.43528","5"],
    [48912,"HCEP03730542","2025-02-18 19:45:00","9.9716","3.30202","26.607","4.594","7.58","0.327","3.823","0.06","0.19","29.8767","4.72101","49.24","0","SATNPRO1509","30.926","0.43314","5"],
    [48913,"HCEP03730542","2025-02-18 20:00:00","9.9739","3.30231","26.718","4.592","7.58","0.315","3.771","0.06","0.24","29.8776","4.7211","49.21","0","SATNPRO1509","30.892","0.43274","5"],
    [48914,"HCEP03730542","2025-02-18 20:15:00","9.9805","3.30293","26.774","4.571","7.58","0.308","3.723","0.04","0.22","29.8783","4.7211","49","0","SATNPRO1509","30.894000000000002","0.43272","5"],
    [48915,"HCEP03730542","2025-02-18 20:30:00","9.988","3.30383","26.842","4.537","7.58","0.318","4.191","0.04","0.29","29.8812","4.72138","48.64","0","SATNPRO1509","30.864","0.4323","5"],
    [48916,"HCEP03730542","2025-02-18 20:45:00","9.9927","3.30443","26.873","4.489","7.57","0.327","4.392","0.05","0.24","29.8833","4.7216","48.13","0","SATNPRO1509","30.754","0.43072","5"],
    [48917,"HCEP03730542","2025-02-18 21:00:00","9.9959","3.30495","26.892","4.459","7.57","0.336","4.496","0.08","0.23","29.8857","4.7219","47.81","0","SATNPRO1509","30.826","0.4318","5"],
    [48918,"HCEP03730542","2025-02-18 21:15:00","9.9983","3.30532","26.903","4.442","7.57","0.34","4.761","0.07","0.44","29.8876","4.72212","47.64","0","SATNPRO1509","30.668","0.42956","5"],
    [48919,"HCEP03730542","2025-02-18 21:30:00","10.0008","3.30549","26.888","4.427","7.57","0.32","5.124","0.03","0.42","29.8872","4.72202","47.47","0","SATNPRO1509","30.636","0.42914","5"],
    [48920,"HCEP03730542","2025-02-18 21:45:00","10.0031","3.30564","26.872","4.393","7.57","0.304","4.778","0.04","0.32","29.8868","4.72193","47.11","0","SATNPRO1509","30.54","0.4278","5"],
    [48921,"HCEP03730542","2025-02-18 22:00:00","10.002","3.30541","26.848","4.366","7.57","0.321","4.406","0.05","0.18","29.8854","4.72174","46.82","0","SATNPRO1509","30.768","0.43098","5"],
    [48922,"HCEP03730542","2025-02-18 22:15:00","10.001","3.30516","26.793","4.388","7.57","0.321","4.539","0.05","0.3","29.8837","4.72152","47.06","0","SATNPRO1509","30.712","0.43022","5"],
    [48923,"HCEP03730542","2025-02-18 22:30:00","9.9998","3.30494","26.794","4.41","7.57","0.317","4.396","0.03","0.44","29.8825","4.72136","47.3","0","SATNPRO1509","30.842","0.43198","5"],
    [48924,"HCEP03730542","2025-02-18 22:45:00","9.9986","3.30464","26.779","4.424","7.57","0.296","3.861","0.04","0.23","29.8806","4.72111","47.44","0","SATNPRO1509","30.966","0.43374","5"],
    [48925,"NA","2025-02-18 23:00:00",null,null,null,null,null,null,null,null,null,null,null,null,null,"SATNPRO1509","30.92","0.43306","5"],
    [48926,"HCEP03730542","2025-02-18 23:00:01","9.9981","3.30458","26.738","4.436","7.57","0.317","3.743","0.04","0.13","29.8803","4.72108","47.57","0","NA",null,null,null],
    [48927,"HCEP03730542","2025-02-18 23:15:00","9.9989","3.30462","26.71","4.429","7.57","0.303","4.187","0.02","0.14","29.88","4.72102","47.49","0","SATNPRO1509","30.824","0.43174","5"],
    [48928,"HCEP03730542","2025-02-18 23:30:00","10.0048","3.30511","26.631","4.393","7.56","0.337","4.576","0.06","0.18","29.8802","4.72094","47.12","0","SATNPRO1509","30.486","0.42706","5"],
    [48929,"HCEP03730542","2025-02-18 23:45:00","10.012","3.30565","26.636","4.266","7.55","0.345","4.776","0.06","0.34","29.8796","4.72073","45.76","0","SATNPRO1509","30.014","0.42042","5"],
    [48930,"HCEP03730542","2025-02-19 00:00:00","10.0165","3.30622","26.503","4.1","7.54","0.33","5.07","0.03","0.21","29.8817","4.72095","43.99","0","SATNPRO1509","29.78","0.41712","5"],
    [48931,"HCEP03730542","2025-02-19 00:15:00","10.0214","3.30697","26.517","3.976","7.53","0.318","5.357","0.03","0.24","29.8851","4.72135","42.66","0","SATNPRO1509","29.358","0.41118","5"],
    [48932,"HCEP03730542","2025-02-19 00:30:00","10.0244","3.30766","26.483","3.864","7.53","0.317","4.777","0.03","0.16","29.8895","4.72193","41.47","0","SATNPRO1509","29.29","0.41024","5"],
    [48933,"HCEP03730542","2025-02-19 00:45:00","10.0227","3.30752","26.353","3.821","7.53","0.301","4.42","0.04","0.18","29.8897","4.72198","41","0","SATNPRO1509","29.486","0.41302","5"],
    [48934,"HCEP03730542","2025-02-19 01:00:00","10.0215","3.30752","26.329","3.857","7.53","0.292","4.386","0.02","0.25","29.8907","4.72214","41.39","0","SATNPRO1509","29.604","0.41472","5"],
    [48935,"HCEP03730542","2025-02-19 01:15:00","10.0199","3.30743","26.249","3.893","7.53","0.297","4.5","0.04","0.14","29.8911","4.72221","41.77","0","SATNPRO1509","29.608","0.41472","5"],
    [48936,"HCEP03730542","2025-02-19 01:30:00","10.0191","3.30724","26.204","3.911","7.53","0.3","4.591","0.03","0.2","29.8898","4.72205","41.96","0","SATNPRO1509","29.59","0.41444","5"],
    [48937,"HCEP03730542","2025-02-19 01:45:00","10.0168","3.30707","26.189","3.924","7.53","0.29","4.702","0.03","0.25","29.89","4.72211","42.1","0","SATNPRO1509","29.676","0.4157","5"],
    [48938,"HCEP03730542","2025-02-19 02:00:00","10.0154","3.30691","26.123","3.95","7.54","0.302","4.598","0.04","0.18","29.8897","4.72208","42.38","0","SATNPRO1509","29.744","0.41662","5"],
    [48939,"HCEP03730542","2025-02-19 02:15:00","10.0122","3.30687","26.111","3.996","7.54","0.28","4.475","0.02","0.16","29.8919","4.72245","42.87","0","SATNPRO1509","29.886","0.4186","5"],
    [48940,"HCEP03730542","2025-02-19 02:30:00","10.0094","3.3068","26.096","4.055","7.54","0.286","4.148","0.03","0.47","29.8935","4.72273","43.5","0","SATNPRO1509","30.122","0.42188","5"],
    [48941,"HCEP03730542","2025-02-19 02:45:00","10.0088","3.30671","26.129","4.099","7.55","0.271","4.12","0.02","0.24","29.8931","4.72268","43.97","0","SATNPRO1509","29.977999999999998","0.41984","5"],
    [48942,"HCEP03730542","2025-02-19 03:00:00","10.0071","3.30673","26.177","4.115","7.55","0.277","4.235","0.02","0.17","29.8946","4.72294","44.14","0","SATNPRO1509","30.11","0.42174","5"],
    [48943,"HCEP03730542","2025-02-19 03:15:00","10.0072","3.30679","26.26","4.143","7.55","0.284","4.023","0.04","0.41","29.8952","4.72302","44.44","0","SATNPRO1509","30.07","0.4212","5"],
    [48944,"HCEP03730542","2025-02-19 03:30:00","10.0058","3.30683","26.296","4.157","7.55","0.28","4.135","0.02","0.46","29.8967","4.72326","44.59","0","SATNPRO1509","30.108","0.42172","5"],
    [48945,"HCEP03730542","2025-02-19 03:45:00","10.0047","3.30676","26.296","4.175","7.55","0.286","4.244","0.04","0.84","29.8969","4.72331","44.78","0","SATNPRO1509","30.148","0.4223","5"],
    [48946,"HCEP03730542","2025-02-19 04:00:00","10.0042","3.30662","26.367","4.183","7.55","0.286","4.446","0.02","0.75","29.8959","4.72317","44.87","0","SATNPRO1509","30.25","0.4237","5"],
    [48947,"HCEP03730542","2025-02-19 04:15:00","10.0028","3.30654","26.446","4.194","7.55","0.282","4.113","0.04","0.4","29.8962","4.72325","44.99","0","SATNPRO1509","30.25","0.42372","5"],
    [48948,"HCEP03730542","2025-02-19 04:30:00","10.0004","3.30641","26.515","4.211","7.55","0.303","4.695","0.03","0.77","29.8969","4.72339","45.16","0","SATNPRO1509","30.158","0.4224","5"],
    [48949,"HCEP03730542","2025-02-19 04:45:00","9.9977","3.30613","26.535","4.233","7.56","0.285","4.214","0.03","0.67","29.8963","4.72335","45.4","0","SATNPRO1509","30.21","0.42314","5"],
    [48950,"HCEP03730542","2025-02-19 05:00:00","9.9966","3.3061","26.677","4.253","7.56","0.3","4.386","0.03","0.51","29.8968","4.72345","45.61","0","SATNPRO1509","30.168","0.42256","5"],
    [48951,"HCEP03730542","2025-02-19 05:15:00","9.9954","3.30597","26.736","4.256","7.56","0.276","4.339","0.03","0.41","29.8966","4.72345","45.64","0","SATNPRO1509","30.194","0.42292","5"],
    [48952,"HCEP03730542","2025-02-19 05:30:00","9.9942","3.30582","26.785","4.265","7.56","0.274","3.843","0.02","0.14","29.8959","4.72338","45.74","0","SATNPRO1509","30.169999999999998","0.42258","5"],
    [48953,"HCEP03730542","2025-02-19 05:45:00","9.9956","3.30596","26.961","4.268","7.56","0.269","4.112","0.03","0.09","29.8962","4.72339","45.76","0","SATNPRO1509","30.15","0.42232","5"],
    [48954,"HCEP03730542","2025-02-19 06:00:00","9.9958","3.30597","27.004","4.256","7.56","0.292","5.777","0.03","0.21","29.8961","4.72338","45.64","0","SATNPRO1509","30.148","0.42228","5"],
    [48955,"HCEP03730542","2025-02-19 06:15:00","9.9955","3.30589","27.082","4.25","7.56","0.275","4.288","0.02","0.51","29.8955","4.72331","45.58","0","SATNPRO1509","30.164","0.42252","5"],
    [48956,"HCEP03730542","2025-02-19 06:30:00","9.9955","3.30591","27.216","4.257","7.56","0.297","4.052","0.04","0.61","29.8956","4.72334","45.65","0","SATNPRO1509","30.19","0.42292","5"],
    [48957,"HCEP03730542","2025-02-19 06:45:00","9.9973","3.3061","27.316","4.257","7.56","0.259","3.608","0.02","0.08","29.8961","4.72338","45.66","0","SATNPRO1509","30.204","0.42306","5"],
    [48958,"HCEP03730542","2025-02-19 07:00:00","9.9989","3.30625","27.405","4.242","7.56","0.29","3.916","0.03","0.52","29.8962","4.72337","45.49","0","SATNPRO1509","30.178","0.42272","5"],
    [48959,"HCEP03730542","2025-02-19 07:15:00","10.0012","3.30645","27.477","4.222","7.55","1.811","30.604","2.39","33.61","29.8963","4.72335","45.29","0","SATNPRO1509","30.198","0.423","5"],
    [48960,"HCEP03730542","2025-02-19 07:30:00","10.0026","3.3065","27.508","4.198","7.55","0.285","4.183","0.03","0.44","29.8956","4.72322","45.03","0","SATNPRO1509","30.112","0.42176","5"],
    [48961,"HCEP03730542","2025-02-19 07:45:00","10.0039","3.30663","27.561","4.176","7.55","0.47","11.506","0.32","10.11","29.8958","4.72323","44.79","0","SATNPRO1509","29.962","0.4197","5"],
    [48962,"HCEP03730542","2025-02-19 08:00:00","10.0048","3.30674","27.583","4.141","7.55","0.283","4.676","0.02","0.13","29.8961","4.72327","44.41","0","SATNPRO1509","29.94","0.41936","5"],
    [48963,"HCEP03730542","2025-02-19 08:15:00","10.0051","3.30676","27.636","4.114","7.55","0.281","4.313","0.04","0.07","29.896","4.72325","44.13","0","SATNPRO1509","29.95","0.4195","5"],
    [48964,"HCEP03730542","2025-02-19 08:30:00","10.005","3.30675","27.617","4.11","7.55","0.29","4.518","0.02","0.11","29.896","4.72325","44.09","0","SATNPRO1509","29.938","0.41932","5"],
    [48965,"HCEP03730542","2025-02-19 08:45:00","10.0048","3.30674","27.65","4.103","7.55","1.796","28.165","1.57","20.75","29.8961","4.72328","44.01","0","SATNPRO1509","29.944","0.41942","5"],
    [48966,"HCEP03730542","2025-02-19 09:00:00","10.0049","3.30672","27.629","4.11","7.55","0.29","4.359","0.03","0.42","29.8959","4.72323","44.08","0","SATNPRO1509","29.948","0.41948","5"],
    [48967,"HCEP03730542","2025-02-19 09:15:00","10.0038","3.30665","27.586","4.117","7.55","0.268","4.063","0.02","0.17","29.8961","4.72328","44.16","0","SATNPRO1509","30.034","0.42068","5"],
    [48968,"HCEP03730542","2025-02-19 09:30:00","10.0013","3.30649","27.567","4.131","7.55","0.285","4.41","0.03","0.26","29.8966","4.72339","44.3","0","SATNPRO1509","29.928","0.41918","5"],
    [48969,"HCEP03730542","2025-02-19 09:45:00","9.9969","3.30612","27.376","4.152","7.55","0.265","4.613","0.02","0.65","29.8966","4.72346","44.53","0","SATNPRO1509","30.172","0.4226","5"],
    [48970,"HCEP03730542","2025-02-19 10:00:00","10.0008","3.30637","27.4","4.183","7.55","0.291","4.165","0.03","0.33","29.8957","4.72327","44.87","0","SATNPRO1509","29.97","0.41974","5"],
    [48971,"HCEP03730542","2025-02-19 10:15:00","10.0027","3.30646","27.256","4.13","7.55","0.292","4.786","0.02","0.23","29.8952","4.72315","44.29","0","SATNPRO1509","29.866","0.41834","5"],
    [48972,"HCEP03730542","2025-02-19 10:30:00","10.0055","3.3049","27.251","4.091","7.54","0.302","3.441","0.03","0.1","29.8772","4.72055","43.88","0","SATNPRO1509","29.926000000000002","0.41914","5"],
    [48973,"HCEP03730542","2025-02-19 10:45:00","10.0073","3.3054","27.176","3.996","7.54","0.334","6.156","0.14","4.51","29.8808","4.72102","42.85","0","SATNPRO1509","29.878","0.41854","5"],
    [48974,"HCEP03730542","2025-02-19 11:00:00","10.0032","3.30644","27.053","4.007","7.54","0.312","5.675","0.02","0.21","29.8946","4.72305","42.97","0","SATNPRO1509","29.484","0.41294","5"],
    [48975,"HCEP03730542","2025-02-19 11:15:00","10.0099","3.30614","26.906","4.019","7.54","0.326","4.384","0.05","1.03","29.8861","4.72172","43.11","0","SATNPRO1509","29.88","0.41854","5"],
    [48976,"HCEP03730542","2025-02-19 11:30:00","10.0057","3.30613","26.8","4.001","7.54","0.311","4.752","0.02","0.26","29.8896","4.72228","42.91","0","SATNPRO1509","29.716","0.4162","5"],
    [48977,"HCEP03730542","2025-02-19 11:45:00","10.0126","3.30565","26.567","3.999","7.53","0.301","3.664","0.03","0.34","29.8791","4.72065","42.9","0","SATNPRO1509","29.932000000000002","0.41926","5"],
    [48978,"HCEP03730542","2025-02-19 12:00:00","10.0109","3.30471","26.548","3.924","7.53","0.324","3.381","0.04","0.14","29.8712","4.71955","42.09","0","SATNPRO1509","29.948","0.41946","5"],
    [48979,"HCEP03730542","2025-02-19 12:15:00","10.0019","3.30577","26.337","3.935","7.54","0.312","5.159","0.04","0.28","29.8893","4.72228","42.2","0","SATNPRO1509","29.714","0.41622","5"],
    [48980,"HCEP03730542","2025-02-19 12:30:00","10.0064","3.30552","26.198","4.005","7.54","0.323","4.409","0.04","0.2","29.8831","4.7213","42.96","0","SATNPRO1509","29.956","0.41962","5"],
    [48981,"HCEP03730542","2025-02-19 12:45:00","10.0059","3.30552","26.063","4.004","7.54","0.325","4.629","0.03","0.23","29.8836","4.72138","42.94","0","SATNPRO1509","29.952","0.41954","5"],
    [48982,"HCEP03730542","2025-02-19 13:00:00","10.0099","3.30415","25.808","3.974","7.53","0.335","4.195","0.03","0.24","29.8667","4.71889","42.63","0","SATNPRO1509","29.996","0.42014","5"],
    [48983,"HCEP03730542","2025-02-19 13:15:00","10.0072","3.30307","25.548","3.904","7.53","0.36","4.203","0.05","0.29","29.8582","4.7177","41.86","0","SATNPRO1509","30.124","0.42196","5"],
    [48984,"HCEP03730542","2025-02-19 13:30:00","10.0081","3.30494","25.466","3.887","7.53","0.356","4.953","0.04","0.31","29.8762","4.72024","41.68","0","SATNPRO1509","29.934","0.4193","5"],
    [48985,"HCEP03730542","2025-02-19 13:45:00","10.0071","3.30477","25.371","3.921","7.53","0.332","4.39","0.03","0.13","29.8754","4.72014","42.06","0","SATNPRO1509","29.874000000000002","0.41844","5"],
    [48986,"HCEP03730542","2025-02-19 14:00:00","10.0049","3.30411","25.227","3.96","7.54","0.337","4.389","0.04","0.84","29.8706","4.71949","42.46","0","SATNPRO1509","30.078","0.42128","5"],
    [48987,"HCEP03730542","2025-02-19 14:15:00","10.0032","3.30386","25.14","4.016","7.54","0.324","4.425","0.03","0.64","29.8696","4.71937","43.07","0","SATNPRO1509","30.172","0.42258","5"],
    [48988,"HCEP03730542","2025-02-19 14:30:00","10.0005","3.30228","25.059","4.059","7.54","0.337","4.045","0.04","0.35","29.856","4.71747","43.53","0","SATNPRO1509","30.356","0.42518","5"],
    [48989,"HCEP03730542","2025-02-19 14:45:00","10.0003","3.30283","25.139","4.088","7.54","0.316","3.937","0.04","0.26","29.8616","4.71828","43.83","0","SATNPRO1509","30.36","0.42526","5"],
    [48990,"HCEP03730542","2025-02-19 15:00:00","10","3.30299","25.069","4.123","7.55","0.319","4.059","0.04","0.13","29.8635","4.71855","44.21","0","SATNPRO1509","30.27","0.42396","5"],
    [48991,"HCEP03730542","2025-02-19 15:15:00","9.9989","3.30298","24.998","4.141","7.55","0.309","4.148","0.03","0.17","29.8644","4.71869","44.4","0","SATNPRO1509","30.358","0.4252","5"],
    [48992,"HCEP03730542","2025-02-19 15:30:00","9.9966","3.30301","25.039","4.168","7.55","0.326","4.298","0.05","1.21","29.8666","4.71906","44.69","0","SATNPRO1509","30.508","0.4273","5"],
    [48993,"HCEP03730542","2025-02-19 15:45:00","9.9954","3.30286","25.018","4.204","7.55","0.317","3.909","0.05","0.2","29.8661","4.719","45.07","0","SATNPRO1509","30.434","0.4263","5"],
    [48994,"HCEP03730542","2025-02-19 16:00:00","9.9946","3.30288","25.042","4.23","7.55","0.337","4.143","0.07","0.3","29.8669","4.71913","45.35","0","SATNPRO1509","30.392","0.42568","5"],
    [48995,"HCEP03730542","2025-02-19 16:15:00","9.9941","3.30281","25.112","4.248","7.55","0.303","3.748","0.05","0.2","29.8666","4.71909","45.54","0","SATNPRO1509","30.494","0.42714","5"],
    [48996,"HCEP03730542","2025-02-19 16:30:00","9.9948","3.30283","25.18","4.256","7.55","0.309","3.847","0.04","0.1","29.8661","4.71902","45.63","0","SATNPRO1509","30.464","0.42672","5"],
    [48997,"HCEP03730542","2025-02-19 16:45:00","9.9955","3.30289","25.262","4.246","7.55","0.296","4.136","0.03","0.2","29.8662","4.71903","45.52","0","SATNPRO1509","30.462","0.42664","5"],
    [48998,"HCEP03730542","2025-02-19 17:00:00","9.9968","3.30295","25.275","4.221","7.55","0.315","4.153","0.03","0.2","29.8657","4.71893","45.26","0","SATNPRO1509","30.372","0.42542","5"],
    [48999,"HCEP03730542","2025-02-19 17:15:00","9.9981","3.30301","25.353","4.185","7.55","0.306","3.972","0.05","0.19","29.8652","4.71884","44.87","0","SATNPRO1509","30.314","0.4246","5"],
    [49000,"HCEP03730542","2025-02-19 17:30:00","9.9974","3.30299","25.426","4.16","7.55","0.309","3.828","0.03","0.13","29.8655","4.7189","44.6","0","SATNPRO1509","30.398","0.4258","5"],
    [49001,"HCEP03730542","2025-02-19 17:45:00","9.9971","3.30298","25.532","4.158","7.55","0.297","4.169","0.03","0.15","29.8657","4.71894","44.58","0","SATNPRO1509","30.386","0.42558","5"],
    [49002,"HCEP03730542","2025-02-19 18:00:00","9.9969","3.30297","25.599","4.159","7.55","0.303","3.956","0.03","0.2","29.8657","4.71895","44.59","0","SATNPRO1509","30.494","0.42714","5"],
    [49003,"HCEP03730542","2025-02-19 18:15:00","9.994","3.30283","25.694","4.178","7.55","0.3","4.045","0.05","0.25","29.8666","4.71914","44.79","0","SATNPRO1509","30.56","0.42804","5"],
    [49004,"HCEP03730542","2025-02-19 18:30:00","9.9926","3.30278","25.766","4.223","7.55","0.296","4.076","0.03","0.25","29.8673","4.71926","45.27","0","SATNPRO1509","30.518","0.42744","5"],
    [49005,"HCEP03730542","2025-02-19 18:45:00","9.9925","3.30288","25.87","4.251","7.55","0.294","4.656","0.06","0.27","29.8683","4.71942","45.58","0","SATNPRO1509","30.574","0.42824","5"],
    [49006,"HCEP03730542","2025-02-19 19:00:00","9.9926","3.30292","25.989","4.248","7.55","0.299","4.451","0.02","0.21","29.8686","4.71946","45.54","0","SATNPRO1509","30.434","0.42626","5"],
    [49007,"HCEP03730542","2025-02-19 19:15:00","9.9935","3.30301","26.083","4.243","7.55","0.296","4.336","0.04","0.21","29.8687","4.71947","45.49","0","SATNPRO1509","30.398","0.42578","5"],
    [49008,"HCEP03730542","2025-02-19 19:30:00","9.9941","3.30309","26.187","4.221","7.55","0.296","4.099","0.03","0.17","29.869","4.7195","45.25","0","SATNPRO1509","30.286","0.4242","5"],
    [49009,"HCEP03730542","2025-02-19 19:45:00","9.9944","3.30318","26.302","4.197","7.55","0.3","4.384","0.02","0.23","29.8696","4.71959","45","0","SATNPRO1509","30.306","0.4245","5"],
    [49010,"HCEP03730542","2025-02-19 20:00:00","9.9941","3.30309","26.421","4.186","7.55","0.311","4.639","0.03","0.3","29.8689","4.7195","44.88","0","SATNPRO1509","30.3","0.42438","5"],
    [49011,"HCEP03730542","2025-02-19 20:15:00","9.9941","3.30309","26.532","4.172","7.55","0.313","4.622","0.04","0.2","29.8689","4.7195","44.73","0","SATNPRO1509","30.218","0.4233","5"],
    [49012,"HCEP03730542","2025-02-19 20:30:00","9.9942","3.30317","26.614","4.158","7.55","0.34","4.527","0.03","0.36","29.8695","4.7196","44.58","0","SATNPRO1509","30.196","0.42296","5"],
    [49013,"HCEP03730542","2025-02-19 20:45:00","9.9918","3.30206","26.682","4.142","7.55","0.338","4.897","0.04","0.33","29.8603","4.71833","44.41","0","SATNPRO1509","30.122","0.42188","5"],
    [49014,"HCEP03730542","2025-02-19 21:00:00","9.9781","3.29764","26.683","4.093","7.54","0.411","3.656","0.08","0.15","29.8273","4.71386","43.85","0","SATNPRO1509","30.31","0.42454","5"],
    [49015,"HCEP03730542","2025-02-19 21:15:00","9.9755","3.29652","26.752","4.027","7.54","0.376","4.237","0.04","0.22","29.8183","4.71262","43.14","0","SATNPRO1509","30.038","0.42076","5"],
    [49016,"HCEP03730542","2025-02-19 21:30:00","9.9847","3.29972","26.803","4.02","7.54","0.388","4.891","0.07","0.2","29.8427","4.71594","43.08","0","SATNPRO1509","30.078","0.42128","5"],
    [49017,"HCEP03730542","2025-02-19 21:45:00","9.9861","3.3003","26.832","4.046","7.54","0.357","4.776","0.03","0.2","29.8474","4.71659","43.36","0","SATNPRO1509","30.082","0.42132","5"],
    [49018,"HCEP03730542","2025-02-19 22:00:00","9.9817","3.29922","26.83","4.087","7.54","0.362","4.537","0.03","0.21","29.8402","4.71564","43.79","0","SATNPRO1509","30.088","0.42142","5"],
    [49019,"HCEP03730542","2025-02-19 22:15:00","9.9825","3.29835","26.874","4.092","7.54","0.376","4.807","0.05","0.6","29.8308","4.71429","43.85","0","SATNPRO1509","30.116","0.42182","5"],
    [49020,"HCEP03730542","2025-02-19 22:30:00","9.9868","3.29974","26.859","4.075","7.54","0.384","4.754","0.07","0.32","29.8411","4.71569","43.68","0","SATNPRO1509","30.062","0.42108","5"],
    [49021,"HCEP03730542","2025-02-19 22:45:00","9.9901","3.30058","26.867","4.054","7.54","0.364","5.177","0.04","0.61","29.846800000000002","4.71645","43.45","0","SATNPRO1509","30.01","0.42036","5"],
    [49022,"HCEP03730542","2025-02-19 23:00:00","9.992","3.30055","26.888","4.042","7.54","0.381","5.45","0.04","0.8","29.8449","4.71615","43.33","0","SATNPRO1509","30.034","0.42066","5"],
    [49023,"HCEP03730542","2025-02-19 23:15:00","9.9926","3.30019","26.882","4.007","7.53","0.355","4.946","0.04","0.32","29.8408","4.71555","42.96","0","SATNPRO1509","29.866","0.41836","5"],
    [49024,"HCEP03730542","2025-02-19 23:30:00","9.9941","3.30007","26.837","3.952","7.53","0.364","5.031","0.03","0.53","29.8385","4.71518","42.37","0","SATNPRO1509","29.862","0.41826","5"],
    [49025,"HCEP03730542","2025-02-19 23:45:00","9.994","3.29953","26.856","3.907","7.53","0.368","4.828","0.04","0.58","29.8331","4.71443","41.87","0","SATNPRO1509","29.88","0.41854","5"],
    [49026,"HCEP03730542","2025-02-20 00:00:00","9.9909","3.29886","26.853","3.884","7.53","0.414","5.035","0.07","0.28","29.8289","4.71388","41.63","0","SATNPRO1509","29.858","0.41824","5"],
    [49027,"HCEP03730542","2025-02-20 00:15:00","9.9893","3.2984","26.813","3.893","7.53","0.406","5.05","0.04","0.33","29.8256","4.71343","41.72","0","SATNPRO1509","29.932","0.41924","5"],
    [49028,"HCEP03730542","2025-02-20 00:30:00","9.9831","3.29726","26.807","3.903","7.53","0.439","5.04","0.06","0.2","29.8194","4.71265","41.83","0","SATNPRO1509","29.86","0.41826","5"],
    [49029,"HCEP03730542","2025-02-20 00:45:00","9.9826","3.29716","26.777","3.916","7.53","0.42","5.15","0.05","0.25","29.8188","4.71257","41.96","0","SATNPRO1509","29.778","0.41708","5"],
    [49030,"HCEP03730542","2025-02-20 01:00:00","9.9836","3.29737","26.756","3.912","7.53","0.487","5.05","0.1","0.25","29.8201","4.71274","41.92","0","SATNPRO1509","29.772","0.41702","5"],
    [49031,"HCEP03730542","2025-02-20 01:15:00","9.9836","3.29714","26.705","3.898","7.53","0.431","4.93","0.06","0.21","29.8177","4.7124","41.77","0","SATNPRO1509","29.698","0.41594","5"],
    [49032,"HCEP03730542","2025-02-20 01:30:00","9.9815","3.2965","26.678","3.873","7.53","0.437","4.955","0.06","0.26","29.8131","4.71177","41.5","0","SATNPRO1509","29.698","0.41596","5"],
    [49033,"HCEP03730542","2025-02-20 01:45:00","9.9817","3.29614","26.655","3.849","7.52","0.459","5.263","0.05","0.25","29.8093","4.71123","41.25","0","SATNPRO1509","29.658","0.41542","5"],
    [49034,"HCEP03730542","2025-02-20 02:00:00","9.9803","3.29525","26.632","3.808","7.52","0.51","5.055","0.09","0.29","29.8017","4.71016","40.8","0","SATNPRO1509","29.554","0.41398","5"],
    [49035,"HCEP03730542","2025-02-20 02:15:00","9.9774","3.29453","26.594","3.766","7.52","0.464","4.796","0.06","0.21","29.7968","4.70951","40.34","0","SATNPRO1509","29.456","0.41258","5"],
    [49036,"HCEP03730542","2025-02-20 02:30:00","9.9755","3.29312","26.553","3.737","7.51","0.485","4.731","0.08","0.24","29.784300000000002","4.70775","40.03","0","SATNPRO1509","29.326","0.41078","5"],
    [49037,"HCEP03730542","2025-02-20 02:45:00","9.9765","3.29297","26.528","3.687","7.51","0.55","4.48","0.13","0.19","29.7819","4.7074","39.49","0","SATNPRO1509","29.284","0.41012","5"],
    [49038,"HCEP03730542","2025-02-20 03:00:00","9.9771","3.29294","26.51","3.641","7.51","0.514","4.998","0.08","0.46","29.7811","4.70727","39.01","0","SATNPRO1509","29.402","0.41182","5"],
    [49039,"HCEP03730542","2025-02-20 03:15:00","9.976","3.29344","26.492","3.628","7.51","0.534","4.974","0.13","0.23","29.7871","4.70814","38.87","0","SATNPRO1509","29.352","0.41112","5"],
    [49040,"HCEP03730542","2025-02-20 03:30:00","9.9754","3.29399","26.502","3.677","7.51","0.502","5.221","0.1","0.39","29.7931","4.709","39.39","0","SATNPRO1509","29.484","0.41296","5"],
    [49041,"HCEP03730542","2025-02-20 03:45:00","9.9671","3.2931","26.508","3.739","7.52","0.504","4.324","0.15","0.26","29.7911","4.70887","40.05","0","SATNPRO1509","29.586000000000002","0.41438","5"],
    [49042,"HCEP03730542","2025-02-20 04:00:00","9.9301","3.28577","26.624","3.794","7.52","0.485","4.359","0.09","0.3","29.748","4.70336","40.59","0","SATNPRO1509","29.44","0.41234","5"],
    [49043,"HCEP03730542","2025-02-20 04:15:00","9.9336","3.28743","26.687","3.864","7.52","0.545","5.379","0.1","0.4","29.7617","4.70525","41.34","0","SATNPRO1509","29.61","0.41474","5"],
    [49044,"HCEP03730542","2025-02-20 04:30:00","9.9165","3.28353","26.763","3.881","7.53","0.615","5.548","0.12","0.37","29.7366","4.70197","41.5","0","SATNPRO1509","29.418","0.41204","5"],
    [49045,"HCEP03730542","2025-02-20 04:45:00","9.8915","3.27955","26.809","3.942","7.53","0.849","5.238","0.18","0.3","29.7173","4.69964","42.13","0","SATNPRO1509","29.514","0.4134","5"],
    [49046,"HCEP03730542","2025-02-20 05:00:00","9.8968","3.28069","26.881","4.011","7.53","0.717","5.048","0.1","0.27","29.7244","4.70057","42.87","0","SATNPRO1509","29.786","0.41718","5"],
    [49047,"HCEP03730542","2025-02-20 05:15:00","9.8823","3.27943","26.937","4.053","7.54","0.684","5.134","0.12","0.31","29.7236","4.70071","43.31","0","SATNPRO1509","29.544","0.4138","5"],
    [49048,"HCEP03730542","2025-02-20 05:30:00","9.8548","3.27211","26.986","4.098","7.54","0.867","5.448","0.15","0.29","29.6727","4.69391","43.74","0","SATNPRO1509","29.218","0.40922","5"],
    [49049,"HCEP03730542","2025-02-20 05:45:00","9.7319","3.25142","27.038","4.247","7.56","0.985","5.742","0.16","0.34","29.5656","4.68074","45.18","0","SATNPRO1509","29.137999999999998","0.40814","5"],
    [49050,"HCEP03730542","2025-02-20 06:00:00","9.7758","3.25865","27.043","4.491","7.57","0.937","5.663","0.15","0.26","29.6023","4.68522","47.84","0","SATNPRO1509","29.23","0.40942","5"],
    [49051,"HCEP03730542","2025-02-20 06:15:00","9.7104","3.24876","27.097","4.527","7.58","1.08","5.091","0.17","0.37","29.5564","4.6798","48.14","0","SATNPRO1509","29.624","0.41492","5"],
    [49052,"HCEP03730542","2025-02-20 06:30:00","9.7089","3.24885","27.139","4.733","7.59","1.001","4.018","0.15","0.39","29.5586","4.68014","50.33","0","SATNPRO1509","29.842","0.41802","5"],
    [49053,"HCEP03730542","2025-02-20 06:45:00","9.7111","3.24959","27.192","4.826","7.59","0.995","5.087","0.11","0.28","29.5642","4.68091","51.33","0","SATNPRO1509","29.791999999999998","0.41728","5"],
    [49054,"HCEP03730542","2025-02-20 07:00:00","9.705","3.24818","27.253","4.854","7.6","0.958","4.691","0.11","0.46","29.555","4.6797","51.61","0","SATNPRO1509","29.906","0.41884","5"],
    [49055,"HCEP03730542","2025-02-20 07:15:00","9.7023","3.24775","27.289","4.902","7.6","0.996","5.005","0.11","0.28","29.5529","4.67945","52.11","0","SATNPRO1509","29.926","0.4192","5"],
    [49056,"HCEP03730542","2025-02-20 07:30:00","9.7036","3.24851","27.289","4.931","7.61","1.014","5.587","0.11","0.43","29.5595","4.68036","52.43","0","SATNPRO1509","29.936","0.41932","5"],
    [49057,"HCEP03730542","2025-02-20 07:45:00","9.7035","3.24889","27.313","4.95","7.61","0.975","4.821","0.12","0.22","29.5633","4.68092","52.63","0","SATNPRO1509","29.968","0.41976","5"],
    [49058,"HCEP03730542","2025-02-20 08:00:00","9.7115","3.25022","27.331","4.951","7.61","1.093","6.267","0.16","0.54","29.5702","4.68177","52.65","0","SATNPRO1509","29.968","0.41978","5"],
    [49059,"HCEP03730542","2025-02-20 08:15:00","9.7141","3.25117","27.374","4.935","7.61","1.172","21.913","0.26","15.58","29.5776","4.68279","52.49","0","SATNPRO1509","30.144000000000002","0.42226","5"],
    [49060,"HCEP03730542","2025-02-20 08:30:00","9.7158","3.25178","27.39","4.958","7.61","0.996","5.388","0.1","0.3","29.5824","4.68343","52.73","0","SATNPRO1509","29.994","0.4201","5"],
    [49061,"HCEP03730542","2025-02-20 08:45:00","9.7157","3.25231","27.392","4.965","7.61","0.931","4.908","0.13","0.26","29.5878","4.68421","52.81","0","SATNPRO1509","30.02","0.4205","5"],
    [49062,"HCEP03730542","2025-02-20 09:00:00","9.7188","3.25247","27.368","4.967","7.61","0.974","4.921","0.12","0.33","29.5869","4.68403","52.84","0","SATNPRO1509","30.082","0.42134","5"],
    [49063,"HCEP03730542","2025-02-20 09:15:00","9.7211","3.25313","27.35","4.967","7.61","0.962","5.049","0.18","0.35","29.5916","4.68466","52.85","0","SATNPRO1509","30.086","0.42142","5"],
    [49064,"HCEP03730542","2025-02-20 09:30:00","9.7141","3.25274","27.318","4.987","7.61","0.935","4.467","0.19","0.4","29.5934","4.68503","53.05","0","SATNPRO1509","30.128","0.422","5"],
    [49065,"HCEP03730542","2025-02-20 09:45:00","9.719","3.25351","27.274","5.035","7.61","0.882","4.342","0.14","0.3","29.5972","4.68549","53.56","0","SATNPRO1509","30.172","0.4226","5"],
    [49066,"HCEP03730542","2025-02-20 10:00:00","9.7192","3.25425","27.217","5.041","7.62","0.909","4.235","0.14","0.3","29.6045","4.68653","53.63","0","SATNPRO1509","30.206","0.4231","5"],
    [49067,"HCEP03730542","2025-02-20 10:15:00","9.7302","3.25647","27.154","5.077","7.62","0.847","3.752","0.12","0.26","29.6178","4.68824","54.03","0","SATNPRO1509","30.324","0.42472","5"],
    [49068,"HCEP03730542","2025-02-20 10:30:00","9.7416","3.25835","27.116","5.1","7.62","0.774","3.671","0.15","0.34","29.6273","4.6894","54.3","0","SATNPRO1509","30.654","0.42936","5"],
    [49069,"HCEP03730542","2025-02-20 10:45:00","9.7488","3.25967","27.046","5.087","7.62","0.776","4.065","0.22","0.24","29.6347","4.69033","54.16","0","SATNPRO1509","30.496","0.42714","5"],
    [49070,"HCEP03730542","2025-02-20 11:00:00","9.7635","3.26199","26.982","5.068","7.62","0.715","3.651","0.13","0.28","29.646","4.69168","53.99","0","SATNPRO1509","30.72","0.43028","5"],
    [49071,"HCEP03730542","2025-02-20 11:15:00","9.7672","3.26271","26.874","5.041","7.62","0.785","4.144","0.19","0.4","29.6503","4.69222","53.7","0","SATNPRO1509","30.64","0.42916","5"],
    [49072,"HCEP03730542","2025-02-20 11:30:00","9.7687","3.26311","26.788","5.028","7.61","0.765","4.068","0.19","0.28","29.6532","4.69261","53.56","0","SATNPRO1509","30.708","0.43014","5"],
    [49073,"HCEP03730542","2025-02-20 11:45:00","9.7731","3.26396","26.656","5.025","7.61","0.755","3.814","0.11","0.21","29.6581","4.69323","53.55","0","SATNPRO1509","30.716","0.4302","5"],
    [49074,"HCEP03730542","2025-02-20 12:00:00","9.7755","3.26446","26.56","5.012","7.61","0.702","3.753","0.11","0.17","29.6613","4.69363","53.41","0","SATNPRO1509","30.648","0.42926","5"],
    [49075,"HCEP03730542","2025-02-20 12:15:00","9.7771","3.26475","26.411","5","7.61","0.706","3.909","0.1","0.17","29.6629","4.69383","53.28","0","SATNPRO1509","30.663999999999998","0.42952","5"],
    [49076,"HCEP03730542","2025-02-20 12:30:00","9.7777","3.26486","26.274","4.989","7.61","0.745","4.183","0.13","0.36","29.6635","4.6939","53.17","0","SATNPRO1509","30.68","0.42974","5"],
    [49077,"HCEP03730542","2025-02-20 12:45:00","9.7786","3.26505","26.143","4.979","7.61","0.695","4.421","0.18","0.16","29.6647","4.69405","53.07","0","SATNPRO1509","30.56","0.42804","5"],
    [49078,"HCEP03730542","2025-02-20 13:00:00","9.7799","3.26537","26","4.967","7.61","0.738","4.223","0.12","0.16","29.6669","4.69433","52.94","0","SATNPRO1509","30.606","0.42868","5"],
    [49079,"HCEP03730542","2025-02-20 13:15:00","9.79","3.26728","25.835","4.956","7.61","0.749","4.251","0.15","0.28","29.6779","4.69571","52.83","0","SATNPRO1509","30.74","0.43054","5"],
    [49080,"HCEP03730542","2025-02-20 13:30:00","9.7893","3.26702","25.671","4.933","7.61","0.706","4.203","0.12","0.28","29.676","4.69545","52.58","0","SATNPRO1509","30.541999999999998","0.42778","5"],
    [49081,"HCEP03730542","2025-02-20 13:45:00","9.7931","3.2676","25.526","4.925","7.61","0.698","4.617","0.13","0.25","29.6787","4.69576","52.5","0","SATNPRO1509","30.628","0.429","5"],
    [49082,"HCEP03730542","2025-02-20 14:00:00","9.7941","3.26767","25.402","4.912","7.61","0.759","4.27","0.2","0.3","29.6786","4.69572","52.37","0","SATNPRO1509","30.654","0.42934","5"],
    [49083,"HCEP03730542","2025-02-20 14:15:00","9.7957","3.26796","25.272","4.913","7.61","0.749","3.941","0.16","0.32","29.6804","4.69593","52.38","0","SATNPRO1509","30.78","0.43114","5"],
    [49084,"HCEP03730542","2025-02-20 14:30:00","9.8257","3.27219","25.145","4.876","7.6","0.655","5.149","0.08","0.43","29.6982","4.69795","52.03","0","SATNPRO1509","30.392","0.4257","5"],
    [49085,"HCEP03730542","2025-02-20 14:45:00","9.8642","3.27818","25.02","4.66","7.58","0.703","5.67","0.12","0.37","29.7267","4.70135","49.78","0","SATNPRO1509","30.082","0.42132","5"],
    [49086,"HCEP03730542","2025-02-20 15:00:00","9.8594","3.27686","24.928","4.423","7.57","0.682","5.033","0.15","0.24","29.7175","4.70011","47.23","0","SATNPRO1509","30.386","0.42562","5"],
    [49087,"HCEP03730542","2025-02-20 15:15:00","9.8638","3.27763","24.884","4.432","7.57","0.651","5.112","0.14","0.26","29.7216","4.70062","47.34","0","SATNPRO1509","30.132","0.42202","5"],
    [49088,"HCEP03730542","2025-02-20 15:30:00","9.8625","3.27769","24.828","4.384","7.57","0.718","5.671","0.16","0.48","29.7232","4.70087","46.82","0","SATNPRO1509","29.992","0.42006","5"],
    [49089,"HCEP03730542","2025-02-20 15:45:00","9.8635","3.27755","24.799","4.366","7.56","0.737","6.026","0.22","1.69","29.7211","4.70055","46.63","0","SATNPRO1509","30.066","0.42114","5"],
    [49090,"HCEP03730542","2025-02-20 16:00:00","9.8601","3.27715","24.731","4.356","7.56","0.68","5.172","0.13","0.32","29.7198","4.70043","46.52","0","SATNPRO1509","30.234","0.42352","5"],
    [49091,"HCEP03730542","2025-02-20 16:15:00","9.858","3.27669","24.707","4.371","7.56","0.669","5.042","0.1","0.34","29.717","4.70005","46.68","0","SATNPRO1509","30.178","0.42268","5"],
    [49092,"HCEP03730542","2025-02-20 16:30:00","9.8571","3.27675","24.71","4.382","7.56","0.663","5.164","0.14","0.38","29.7183","4.70026","46.8","0","SATNPRO1509","30.124","0.42194","5"],
    [49093,"HCEP03730542","2025-02-20 16:45:00","9.8566","3.27668","24.7","4.395","7.57","0.647","4.728","0.13","0.29","29.7181","4.70023","46.93","0","SATNPRO1509","30.308","0.42454","5"],
    [49094,"HCEP03730542","2025-02-20 17:00:00","9.8572","3.27657","24.71","4.41","7.57","0.731","4.44","0.2","0.43","29.7164","4.69999","47.09","0","SATNPRO1509","30.184","0.42276","5"],
    [49095,"HCEP03730542","2025-02-20 17:15:00","9.8511","3.27567","24.752","4.437","7.57","0.589","3.916","0.15","0.28","29.7124","4.69952","47.38","0","SATNPRO1509","30.412","0.42594","5"],
    [49096,"HCEP03730542","2025-02-20 17:30:00","9.8501","3.27567","24.823","4.488","7.57","0.674","3.93","0.18","0.32","29.7133","4.69966","47.92","0","SATNPRO1509","30.634","0.42906","5"],
    [49097,"HCEP03730542","2025-02-20 17:45:00","9.8524","3.27598","24.857","4.498","7.57","0.773","3.88","0.3","0.35","29.7144","4.69978","48.02","0","SATNPRO1509","30.324","0.42474","5"],
    [49098,"HCEP03730542","2025-02-20 18:00:00","9.8525","3.2759","24.942","4.476","7.57","0.637","4.172","0.18","0.32","29.7135","4.69967","47.79","0","SATNPRO1509","30.322","0.4247","5"],
    [49099,"HCEP03730542","2025-02-20 18:15:00","9.8531","3.27592","25.006","4.456","7.57","0.711","4.312","0.21","0.4","29.7132","4.69961","47.58","0","SATNPRO1509","30.124","0.42192","5"],
    [49100,"HCEP03730542","2025-02-20 18:30:00","9.8478","3.27494","25.095","4.435","7.57","0.72","4.189","0.24","0.33","29.7076","4.69892","47.35","0","SATNPRO1509","30.216","0.42324","5"],
    [49101,"HCEP03730542","2025-02-20 18:45:00","9.8469","3.27476","25.196","4.433","7.57","0.681","4.841","0.16","0.61","29.7066","4.69879","47.33","0","SATNPRO1509","29.982","0.41994","5"],
    [49102,"HCEP03730542","2025-02-20 19:00:00","9.8459","3.27449","25.333","4.428","7.57","0.665","4.695","0.11","0.46","29.7047","4.69854","47.27","0","SATNPRO1509","29.9","0.4188","5"],
    [49103,"HCEP03730542","2025-02-20 19:15:00","9.8329","3.27231","25.43","4.432","7.57","0.71","4.555","0.16","0.56","29.6934","4.69715","47.3","0","SATNPRO1509","30.116","0.42182","5"],
    [49104,"HCEP03730542","2025-02-20 19:30:00","9.8242","3.27043","25.539","4.45","7.57","0.764","4.492","0.17","0.3","29.6816","4.69562","47.48","0","SATNPRO1509","29.86","0.41826","5"],
    [49105,"HCEP03730542","2025-02-20 19:45:00","9.827","3.27079","25.671","4.452","7.57","0.704","4.438","0.13","0.24","29.6828","4.69576","47.5","0","SATNPRO1509","29.882","0.41856","5"],
    [49106,"HCEP03730542","2025-02-20 20:00:00","9.8184","3.26945","25.778","4.441","7.57","0.798","4.469","0.26","0.37","29.6764","4.695","47.37","0","SATNPRO1509","29.664","0.41548","5"],
    [49107,"HCEP03730542","2025-02-20 20:15:00","9.8078","3.2679","25.879","4.428","7.57","0.696","4.371","0.14","0.24","29.6695","4.69421","47.22","0","SATNPRO1509","29.71","0.41612","5"],
    [49108,"HCEP03730542","2025-02-20 20:30:00","9.8144","3.26843","26.066","4.4","7.57","0.755","6.15","0.19","1.31","29.6694","4.69408","46.93","0","SATNPRO1509","29.61","0.41474","5"],
    [49109,"HCEP03730542","2025-02-20 20:45:00","9.8095","3.26707","26.135","4.39","7.57","0.719","4.126","0.18","0.24","29.6597","4.69279","46.81","0","SATNPRO1509","29.468","0.41274","5"],
    [49110,"HCEP03730542","2025-02-20 21:00:00","9.8448","3.27406","26.26","4.391","7.56","0.692","4.37","0.14","0.23","29.7008","4.69805","46.88","0","SATNPRO1509","29.746000000000002","0.41666","5"],
    [49111,"HCEP03730542","2025-02-20 21:15:00","9.8972","3.2817","26.398","4.233","7.54","0.728","5.885","0.14","1","29.7343","4.70195","45.24","0","SATNPRO1509","29.408","0.41194","5"],
    [49112,"HCEP03730542","2025-02-20 21:30:00","9.9111","3.2834","26.456","3.961","7.53","0.682","4.795","0.14","0.47","29.74","4.70252","42.35","0","SATNPRO1509","29.474","0.41282","5"],
    [49113,"HCEP03730542","2025-02-20 21:45:00","9.9193","3.28458","26.506","3.865","7.52","0.733","5.421","0.19","1.03","29.7449","4.7031","41.34","0","SATNPRO1509","29.408","0.4119","5"],
    [49114,"HCEP03730542","2025-02-20 22:00:00","9.9355","3.28686","26.653","3.783","7.52","0.603","5.939","0.09","0.62","29.7544","4.70418","40.48","0","SATNPRO1509","29.08","0.40732","5"],
    [49115,"HCEP03730542","2025-02-20 22:15:00","9.957","3.28993","26.716","3.643","7.51","0.721","5.19","0.25","1.06","29.7675","4.70568","39.01","0","SATNPRO1509","29.128","0.40798","5"],
    [49116,"HCEP03730542","2025-02-20 22:30:00","9.9447","3.28804","26.767","3.563","7.51","0.717","5.471","0.18","1.9","29.7586","4.70463","38.13","0","SATNPRO1509","29.392","0.41166","5"],
    [49117,"HCEP03730542","2025-02-20 22:45:00","9.9173","3.28391","26.827","3.659","7.52","0.683","4.283","0.15","0.69","29.7397","4.7024","39.13","0","SATNPRO1509","29.688","0.41586","5"],
    [49118,"HCEP03730542","2025-02-20 23:00:00","9.9164","3.28368","26.836","3.827","7.52","0.776","5.574","0.21","1.6","29.7383","4.70221","40.92","0","SATNPRO1509","29.638","0.41512","5"],
    [49119,"HCEP03730542","2025-02-20 23:15:00","9.9134","3.28323","26.859","3.864","7.52","0.625","4.89","0.12","1.06","29.7361","4.70196","41.32","0","SATNPRO1509","29.830000000000002","0.41778","5"],
    [49120,"HCEP03730542","2025-02-20 23:30:00","9.9049","3.28141","26.879","3.881","7.52","0.647","4.042","0.16","0.37","29.7249","4.7005","41.49","0","SATNPRO1509","29.874","0.41846","5"],
    [49121,"HCEP03730542","2025-02-20 23:45:00","9.8908","3.2791","26.91","3.917","7.53","0.671","4.238","0.18","0.66","29.7133","4.69909","41.86","0","SATNPRO1509","29.938","0.41932","5"],
    [49122,"HCEP03730542","2025-02-21 00:00:00","9.8638","3.27478","26.926","4","7.54","0.711","4.036","0.23","0.37","29.6921","4.69653","42.71","0","SATNPRO1509","29.956","0.41958","5"],
    [49123,"HCEP03730542","2025-02-21 00:15:00","9.8351","3.27028","26.919","4.145","7.55","0.722","5.305","0.13","0.99","29.6706","4.69395","44.23","0","SATNPRO1509","29.842","0.41798","5"],
    [49124,"HCEP03730542","2025-02-21 00:30:00","9.8171","3.26721","26.897","4.287","7.56","0.731","3.593","0.16","0.31","29.6545","4.69196","45.72","0","SATNPRO1509","29.92","0.4191","5"],
    [49125,"HCEP03730542","2025-02-21 00:45:00","9.7889","3.26274","27","4.392","7.56","0.761","3.453","0.14","0.55","29.6327","4.68933","46.81","0","SATNPRO1509","30.060000000000002","0.42102","5"],
    [49126,"HCEP03730542","2025-02-21 01:00:00","9.7746","3.26047","27.005","4.511","7.57","0.871","3.934","0.18","0.99","29.6217","4.68801","48.06","0","SATNPRO1509","30.032","0.42066","5"],
    [49127,"HCEP03730542","2025-02-21 01:15:00","9.7731","3.26029","27.003","4.577","7.58","0.798","3.578","0.17","0.25","29.621","4.68794","48.76","0","SATNPRO1509","29.824","0.41776","5"],
    [49128,"HCEP03730542","2025-02-21 01:30:00","9.7848","3.26217","26.993","4.571","7.57","0.852","4.369","0.35","0.27","29.6304","4.68908","48.71","0","SATNPRO1509","29.862000000000002","0.41824","5"],
    [49129,"HCEP03730542","2025-02-21 01:45:00","9.8076","3.2658","26.982","4.501","7.57","0.784","4.287","0.16","0.19","29.6482","4.69123","47.99","0","SATNPRO1509","29.616","0.4148","5"],
    [49130,"HCEP03730542","2025-02-21 02:00:00","9.8497","3.2727","26.999","4.348","7.55","0.694","4.751","0.16","0.27","29.6828","4.69545","46.41","0","SATNPRO1509","29.408","0.41188","5"],
    [49131,"HCEP03730542","2025-02-21 02:15:00","9.8687","3.27557","26.994","4.126","7.54","0.672","4.393","0.17","0.27","29.696","4.69701","44.06","0","SATNPRO1509","29.2","0.409","5"],
    [49132,"HCEP03730542","2025-02-21 02:30:00","9.8674","3.27486","26.975","3.993","7.53","0.689","4.375","0.12","0.32","29.6899","4.69615","42.64","0","SATNPRO1509","29.136","0.40808","5"],
    [49133,"HCEP03730542","2025-02-21 02:45:00","9.8642","3.27419","26.973","3.944","7.53","0.744","4.361","0.16","0.25","29.6859","4.69563","42.11","0","SATNPRO1509","29.156","0.40838","5"],
    [49134,"HCEP03730542","2025-02-21 03:00:00","9.8649","3.27432","27.008","3.933","7.53","0.771","4.371","0.19","0.24","29.6866","4.69572","42","0","SATNPRO1509","29.094","0.40752","5"],
    [49135,"HCEP03730542","2025-02-21 03:15:00","9.8613","3.27363","26.927","3.92","7.53","0.783","4.125","0.18","0.22","29.6826","4.69521","41.86","0","SATNPRO1509","29.126","0.40798","5"],
    [49136,"HCEP03730542","2025-02-21 03:30:00","9.8588","3.2732","26.941","3.921","7.53","0.735","4.08","0.17","0.19","29.6804","4.69495","41.87","0","SATNPRO1509","29.04","0.40676","5"],
    [49137,"HCEP03730542","2025-02-21 03:45:00","9.8568","3.2728","26.901","3.926","7.53","0.707","3.933","0.12","0.21","29.678","4.69463","41.91","0","SATNPRO1509","29.076","0.40724","5"],
    [49138,"HCEP03730542","2025-02-21 04:00:00","9.8548","3.27269","26.951","3.932","7.53","0.745","3.752","0.17","0.16","29.6786","4.69475","41.97","0","SATNPRO1509","29.226","0.40934","5"],
    [49139,"HCEP03730542","2025-02-21 04:15:00","9.8481","3.27132","26.902","3.943","7.53","0.76","3.66","0.14","0.25","29.6703","4.69369","42.08","0","SATNPRO1509","29.126","0.40792","5"],
    [49140,"HCEP03730542","2025-02-21 04:30:00","9.8394","3.27003","26.923","3.976","7.53","0.757","3.363","0.16","0.14","29.6645","4.693","42.43","0","SATNPRO1509","29.228","0.40936","5"],
    [49141,"HCEP03730542","2025-02-21 04:45:00","9.8292","3.26788","26.829","4.014","7.54","0.754","3.362","0.11","0.14","29.6513","4.69129","42.82","0","SATNPRO1509","29.224","0.40932","5"],
    [49142,"HCEP03730542","2025-02-21 05:00:00","9.8242","3.26692","26.87","4.063","7.54","0.763","3.525","0.11","0.17","29.6458","4.69059","43.34","0","SATNPRO1509","29.246","0.4096","5"],
    [49143,"HCEP03730542","2025-02-21 05:15:00","9.8209","3.26629","26.917","4.101","7.54","0.755","3.666","0.13","0.16","29.6422","4.69014","43.74","0","SATNPRO1509","29.366","0.41132","5"],
    [49144,"HCEP03730542","2025-02-21 05:30:00","9.8146","3.26506","26.921","4.119","7.54","0.731","3.427","0.09","0.21","29.635","4.68921","43.93","0","SATNPRO1509","29.328","0.4108","5"],
    [49145,"HCEP03730542","2025-02-21 05:45:00","9.8068","3.26387","26.926","4.145","7.55","0.828","3.283","0.14","0.2","29.6293","4.68854","44.19","0","SATNPRO1509","29.4","0.4118","5"],
    [49146,"HCEP03730542","2025-02-21 06:00:00","9.8022","3.26291","26.928","4.168","7.55","0.805","3.228","0.2","0.27","29.6235","4.68779","44.43","0","SATNPRO1509","29.396","0.41178","5"],
    [49147,"HCEP03730542","2025-02-21 06:15:00","9.8091","3.26429","26.974","4.187","7.55","0.802","3.65","0.18","0.43","29.6318","4.68885","44.65","0","SATNPRO1509","29.247999999999998","0.40968","5"],
    [49148,"HCEP03730542","2025-02-21 06:30:00","9.814","3.26456","27.034","4.161","7.55","0.81","3.218","0.15","0.24","29.6304","4.68858","44.37","0","SATNPRO1509","29.346","0.41102","5"],
    [49149,"HCEP03730542","2025-02-21 06:45:00","9.8042","3.26366","27.002","4.165","7.55","0.786","3.472","0.17","0.37","29.6294","4.68859","44.41","0","SATNPRO1509","29.272","0.41","5"],
    [49150,"HCEP03730542","2025-02-21 07:00:00","9.7731","3.25957","27.076","4.22","7.55","0.819","3.334","0.14","0.22","29.6138","4.68691","44.96","0","SATNPRO1509","29.234","0.40948","5"],
    [49151,"HCEP03730542","2025-02-21 07:15:00","9.7676","3.25967","27.128","4.279","7.56","0.771","3.1","0.11","0.3","29.6192","4.68779","45.57","0","SATNPRO1509","29.138","0.40812","5"],
    [49152,"HCEP03730542","2025-02-21 07:30:00","9.7075","3.24999","27.131","4.392","7.57","0.874","2.912","0.15","0.18","29.5712","4.68197","46.7","0","SATNPRO1509","28.654","0.40136","5"],
    [49153,"HCEP03730542","2025-02-21 07:45:00","9.7111","3.25155","27.167","4.531","7.57","0.852","4.168","0.18","0.77","29.584","4.68374","48.19","0","SATNPRO1509","28.608","0.40074","5"],
    [49154,"HCEP03730542","2025-02-21 08:00:00","9.7419","3.25643","27.239","4.459","7.56","0.912","5.526","0.12","0.42","29.6078","4.6866","47.47","0","SATNPRO1509","28.418","0.398","5"],
    [49155,"HCEP03730542","2025-02-21 08:15:00","9.7495","3.25826","27.228","4.313","7.56","0.774","5.425","0.11","0.25","29.6199","4.6882","45.92","0","SATNPRO1509","28.464","0.3987","5"],
    [49156,"HCEP03730542","2025-02-21 08:30:00","9.7545","3.25934","27.244","4.283","7.56","0.758","5.902","0.12","0.22","29.6266","4.68908","45.61","0","SATNPRO1509","28.46","0.39864","5"],
    [49157,"HCEP03730542","2025-02-21 08:45:00","9.7566","3.26015","27.305","4.278","7.56","0.74","6.029","0.12","0.3","29.6331","4.68997","45.56","0","SATNPRO1509","28.628","0.401","5"],
    [49158,"HCEP03730542","2025-02-21 09:00:00","9.7786","3.26382","27.348","4.271","7.56","0.677","6.049","0.08","0.28","29.6519","4.69227","45.51","0","SATNPRO1509","28.718","0.40226","5"],
    [49159,"HCEP03730542","2025-02-21 09:15:00","9.7917","3.26587","27.326","4.239","7.55","0.702","6.372","0.1","0.25","29.6617","4.69345","45.18","0","SATNPRO1509","28.945999999999998","0.40546","5"],
    [49160,"HCEP03730542","2025-02-21 09:30:00","9.799","3.26732","27.315","4.214","7.55","0.746","6.753","0.12","0.4","29.6704","4.69457","44.93","0","SATNPRO1509","28.962","0.40568","5"],
    [49161,"HCEP03730542","2025-02-21 09:45:00","9.8099","3.26878","27.321","4.189","7.55","0.736","7.218","0.09","0.38","29.6761","4.69519","44.67","0","SATNPRO1509","29.096","0.40756","5"],
    [49162,"HCEP03730542","2025-02-21 10:00:00","9.8196","3.27039","27.331","4.164","7.55","0.711","6.64","0.14","0.44","29.6842","4.69618","44.42","0","SATNPRO1509","29.184","0.4088","5"],
    [49163,"HCEP03730542","2025-02-21 10:15:00","9.8401","3.27249","27.271","4.132","7.54","0.684","5.459","0.11","0.51","29.6885","4.69644","44.1","0","SATNPRO1509","29.456","0.4126","5"],
    [49164,"HCEP03730542","2025-02-21 10:30:00","9.8405","3.27263","27.227","4.081","7.54","0.7","5.244","0.13","0.25","29.6896","4.69659","43.56","0","SATNPRO1509","29.378","0.41146","5"],
    [49165,"HCEP03730542","2025-02-21 10:45:00","9.8277","3.27122","27.165","4.077","7.54","0.738","6.915","0.18","0.34","29.686","4.69629","43.5","0","SATNPRO1509","29.31","0.41054","5"],
    [49166,"HCEP03730542","2025-02-21 11:00:00","9.8307","3.2718","27.071","4.109","7.54","0.694","6.306","0.11","1.13","29.6895","4.69673","43.85","0","SATNPRO1509","29.3","0.4104","5"],
    [49167,"HCEP03730542","2025-02-21 11:15:00","9.8264","3.27211","27.096","4.119","7.54","0.695","6.636","0.1","0.43","29.696","4.69774","43.95","0","SATNPRO1509","29.162","0.40846","5"],
    [49168,"HCEP03730542","2025-02-21 11:30:00","9.8394","3.27395","26.962","4.112","7.54","0.628","6","0.09","0.39","29.7039","4.69864","43.89","0","SATNPRO1509","29.278","0.41006","5"],
    [49169,"HCEP03730542","2025-02-21 11:45:00","9.8479","3.27519","26.79","4.068","7.54","0.678","6.335","0.14","1.2","29.7094","4.69927","43.43","0","SATNPRO1509","29.25","0.40972","5"],
    [49170,"HCEP03730542","2025-02-21 12:00:00","9.8579","3.27635","26.732","4.017","7.53","0.654","5.999","0.1","0.54","29.7129","4.69958","42.89","0","SATNPRO1509","29.21","0.40914","5"],
    [49171,"HCEP03730542","2025-02-21 12:15:00","9.862","3.27704","26.664","3.964","7.53","0.647","6.164","0.1","1.81","29.7164","4.70002","42.34","0","SATNPRO1509","29.306","0.4105","5"],
    [49172,"HCEP03730542","2025-02-21 12:30:00","9.8733","3.27849","26.536","3.919","7.53","0.648","5.865","0.09","0.27","29.7217","4.70056","41.87","0","SATNPRO1509","29.16","0.40846","5"],
    [49173,"HCEP03730542","2025-02-21 12:45:00","9.8731","3.27906","26.394","3.885","7.53","0.669","6.418","0.06","0.58","29.7277","4.70142","41.5","0","SATNPRO1509","29.274","0.40996","5"],
    [49174,"HCEP03730542","2025-02-21 13:00:00","9.877","3.27986","26.279","3.88","7.53","0.66","6.449","0.06","0.91","29.7326","4.70205","41.46","0","SATNPRO1509","29.254","0.40974","5"],
    [49175,"HCEP03730542","2025-02-21 13:15:00","9.8795","3.28049","26.235","3.866","7.52","0.651","6.406","0.09","0.99","29.7369","4.70261","41.31","0","SATNPRO1509","29.216","0.4092","5"],
    [49176,"HCEP03730542","2025-02-21 13:30:00","9.8844","3.28148","25.974","3.855","7.52","0.679","6.291","0.1","0.23","29.7428","4.70336","41.2","0","SATNPRO1509","29.198","0.40896","5"],
    [49177,"HCEP03730542","2025-02-21 13:45:00","9.8922","3.28299","25.909","3.815","7.52","0.76","6.536","0.13","0.35","29.7516","4.70448","40.78","0","SATNPRO1509","29.074","0.4072","5"],
    [49178,"HCEP03730542","2025-02-21 14:00:00","9.8914","3.28399","25.729","3.772","7.52","0.703","6.386","0.08","0.37","29.7624","4.70602","40.32","0","SATNPRO1509","29.158","0.4084","5"],
    [49179,"HCEP03730542","2025-02-21 14:15:00","9.8871","3.28436","25.55","3.781","7.52","0.695","6.1","0.13","0.3","29.7697","4.70712","40.41","0","SATNPRO1509","29.381999999999998","0.41156","5"],
    [49180,"HCEP03730542","2025-02-21 14:30:00","9.8793","3.28466","25.429","3.846","7.53","0.624","4.998","0.09","0.42","29.7792","4.70862","41.1","0","SATNPRO1509","29.916","0.419","5"],
    [49181,"HCEP03730542","2025-02-21 14:45:00","9.8709","3.28474","25.343","3.986","7.54","0.606","4.477","0.13","0.26","29.787","4.70986","42.6","0","SATNPRO1509","30.124","0.42196","5"],
    [49182,"HCEP03730542","2025-02-21 15:00:00","9.8631","3.28467","25.238","4.123","7.54","0.576","4.7","0.12","0.84","29.7928","4.71082","44.05","0","SATNPRO1509","30.25","0.4237","5"],
    [49183,"HCEP03730542","2025-02-21 15:15:00","9.8546","3.28466","25.058","4.211","7.55","0.609","4.122","0.16","0.35","29.7997","4.71194","44.99","0","SATNPRO1509","30.41","0.42592","5"],
    [49184,"HCEP03730542","2025-02-21 15:30:00","9.8535","3.28528","24.963","4.264","7.55","0.632","5.109","0.15","0.43","29.8069","4.71298","45.56","0","SATNPRO1509","30.098","0.42158","5"],
    [49185,"HCEP03730542","2025-02-21 15:45:00","9.8407","3.28575","24.924","4.261","7.56","0.643","6.571","0.12","0.77","29.8223","4.7154","45.51","0","SATNPRO1509","30.099999999999998","0.42158","5"],
    [49186,"HCEP03730542","2025-02-21 16:00:00","9.8157","3.28578","24.901","4.312","7.56","0.573","6.182","0.07","0.49","29.8432","4.71882","46.04","0","SATNPRO1509","30.018","0.42044","5"],
    [49187,"HCEP03730542","2025-02-21 16:15:00","9.8042","3.28563","24.831","4.427","7.57","0.563","5.937","0.06","0.12","29.8513","4.72017","47.27","0","SATNPRO1509","30.028000000000002","0.42056","5"],
    [49188,"HCEP03730542","2025-02-21 16:30:00","9.8218","3.28549","24.744","4.451","7.57","0.514","4.476","0.06","0.26","29.8353","4.71758","47.53","0","SATNPRO1509","30.074","0.42122","5"],
    [49189,"HCEP03730542","2025-02-21 16:45:00","9.8343","3.28572","24.82","4.408","7.56","0.508","4.464","0.05","0.1","29.8272","4.71621","47.08","0","SATNPRO1509","30.144","0.42222","5"],
    [49190,"HCEP03730542","2025-02-21 17:00:00","9.8449","3.28547","24.717","4.335","7.56","0.486","4.325","0.05","0.08","29.816","4.71442","46.31","0","SATNPRO1509","30.056","0.42098","5"],
    [49191,"HCEP03730542","2025-02-21 17:15:00","9.8592","3.28483","24.659","4.289","7.56","0.522","4.209","0.06","0.09","29.7978","4.71157","45.83","0","SATNPRO1509","30.216","0.42324","5"],
    [49192,"HCEP03730542","2025-02-21 17:30:00","9.8854","3.28353","24.683","4.131","7.53","0.511","4.181","0.05","0.08","29.7631","4.70616","44.16","0","SATNPRO1509","29.454","0.41252","5"],
    [49193,"HCEP03730542","2025-02-21 17:45:00","9.886","3.28313","24.654","3.922","7.53","0.543","4.465","0.06","0.14","29.7587","4.70552","41.92","0","SATNPRO1509","29.298","0.41034","5"],
    [49194,"HCEP03730542","2025-02-21 18:00:00","9.8808","3.28091","24.708","3.819","7.52","0.706","58.305","0.27","30.82","29.7406","4.70303","40.81","0","SATNPRO1509","29.14","0.40814","5"],
    [49195,"HCEP03730542","2025-02-21 18:15:00","9.8805","3.28222","24.695","3.8","7.52","0.906","38.825","0.36","20.85","29.754","4.70496","40.61","0","SATNPRO1509","29.268","0.40996","5"],
    [49196,"HCEP03730542","2025-02-21 18:30:00","9.8813","3.28163","24.73","3.814","7.52","0.572","4.696","0.1","0.15","29.7474","4.704","40.76","0","SATNPRO1509","29.148","0.40826","5"],
    [49197,"HCEP03730542","2025-02-21 18:45:00","9.8785","3.282","24.879","3.792","7.52","0.575","6.154","0.07","1.28","29.7534","4.70491","40.53","0","SATNPRO1509","29.16","0.40842","5"],
    [49198,"HCEP03730542","2025-02-21 19:00:00","9.8561","3.28377","25.01","3.875","7.53","0.505","4.579","0.06","0.16","29.7896","4.71047","41.4","0","SATNPRO1509","29.562","0.41408","5"],
    [49199,"HCEP03730542","2025-02-21 19:15:00","9.8629","3.283","24.993","4.035","7.54","0.515","8.987","0.07","14.13","29.7762","4.70844","43.11","0","SATNPRO1509","29.82","0.41768","5"],
    [49200,"HCEP03730542","2025-02-21 19:30:00","9.8309","3.28489","25.127","4.071","7.55","0.614","19.812","0.07","2.79","29.8216","4.71548","43.48","0","SATNPRO1509","29.912","0.41898","5"],
    [49201,"HCEP03730542","2025-02-21 19:45:00","9.8026","3.28547","25.233","4.296","7.56","0.649","19.821","0.11","3.49","29.8507","4.72014","45.86","0","SATNPRO1509","29.948","0.41948","5"],
    [49202,"HCEP03730542","2025-02-21 20:00:00","9.8143","3.28528","25.366","4.421","7.57","0.598","11.959","0.06","1.12","29.8391","4.71828","47.2","0","SATNPRO1509","30.108","0.4217","5"],
    [49203,"HCEP03730542","2025-02-21 20:15:00","9.7921","3.2854","25.432","4.448","7.57","0.801","39.518","0.13","4.43","29.8587","4.72147","47.48","0","SATNPRO1509","29.806","0.4175","5"],
    [49204,"HCEP03730542","2025-02-21 20:30:00","9.7809","3.28522","25.539","4.469","7.57","1.471","30.177","0.15","6.56","29.8661","4.72274","47.69","0","SATNPRO1509","29.676000000000002","0.41566","5"],
    [49205,"HCEP03730542","2025-02-21 20:45:00","9.7654","3.28506","25.669","4.511","7.58","1.221","21.086","0.17","2.7","29.8773","4.72461","48.13","0","SATNPRO1509","29.76","0.41686","5"],
    [49206,"HCEP03730542","2025-02-21 21:00:00","9.7574","3.28464","25.748","4.583","7.59","1.265","12.203","0.33","3.32","29.8796","4.72509","48.89","0","SATNPRO1509","29.934","0.41926","5"],
    [49207,"HCEP03730542","2025-02-21 21:15:00","9.7424","3.28446","25.985","4.673","7.59","2.966","74.225","0.18","5.41","29.8902","4.72688","49.83","0","SATNPRO1509","29.99","0.42004","5"],
    [49208,"HCEP03730542","2025-02-21 21:30:00","9.7304","3.28418","26.092","4.726","7.6","10.635","112.8","1.36","10.68","29.8973","4.72811","50.39","0","SATNPRO1509","30.122","0.42188","5"],
    [49209,"HCEP03730542","2025-02-21 21:45:00","9.7296","3.28367","26.189","4.813","7.6","1.871","22.473","0.09","3.01","29.8928","4.72748","51.31","0","SATNPRO1509","30.304000000000002","0.42448","5"],
    [49210,"HCEP03730542","2025-02-21 22:00:00","9.7326","3.28377","26.304","4.87","7.6","0.565","6.467","0.06","0.67","29.8912","4.72721","51.93","0","SATNPRO1509","30.522000000000002","0.42752","5"],
    [49211,"HCEP03730542","2025-02-21 22:15:00","9.7361","3.28403","26.461","4.861","7.6","2.132","21.301","0.25","2.91","29.8908","4.7271","51.83","0","SATNPRO1509","30.536","0.4277","5"],
    [49212,"HCEP03730542","2025-02-21 22:30:00","9.7227","3.28416","26.576","4.836","7.6","2.063","29.616","0.27","7.94","29.9033","4.72913","51.55","0","SATNPRO1509","30.099999999999998","0.42158","5"],
    [49213,"HCEP03730542","2025-02-21 22:45:00","9.7281","3.28397","26.644","4.831","7.61","0.735","7.904","0.15","1.02","29.8968","4.72811","51.5","0","SATNPRO1509","30.55","0.42788","5"],
    [49214,"HCEP03730542","2025-02-21 23:00:00","9.7303","3.28399","26.717","4.863","7.61","1.092","36.595","0.45","6.35","29.8952","4.72785","51.84","0","SATNPRO1509","30.542","0.4278","5"],
    [49215,"HCEP03730542","2025-02-21 23:15:00","9.7457","3.28421","26.909","4.858","7.6","1.093","24.912","0.34","8.18","29.8846","4.72607","51.8","0","SATNPRO1509","30.412","0.42598","5"],
    [49216,"HCEP03730542","2025-02-21 23:30:00","9.7787","3.28469","26.927","4.773","7.59","0.693","15.616","0.08","3.67","29.862","4.72227","50.93","0","SATNPRO1509","30.348","0.42506","5"],
    [49217,"HCEP03730542","2025-02-21 23:45:00","9.7788","3.28473","27.027","4.619","7.59","1.269","39.433","0.34","28.11","29.8623","4.72231","49.28","0","SATNPRO1509","30.338","0.42494","5"],
    [49218,"HCEP03730542","2025-02-22 00:00:00","9.7798","3.28469","27.113","4.661","7.59","0.713","11.268","0.27","2.84","29.8611","4.72212","49.73","0","SATNPRO1509","30.374","0.42544","5"],
    [49219,"HCEP03730542","2025-02-22 00:15:00","9.7774","3.28472","27.15","4.631","7.59","0.645","11.732","0.1","0.61","29.8633","4.72249","49.42","0","SATNPRO1509","30.372","0.42544","5"],
    [49220,"HCEP03730542","2025-02-22 00:30:00","9.8118","3.28402","27.209","4.594","7.58","6.748","136.919","1.97","67.66","29.8277","4.71681","49.04","0","SATNPRO1509","29.826","0.41782","5"],
    [49221,"HCEP03730542","2025-02-22 00:45:00","9.8343","3.28345","27.234","4.393","7.56","0.552","3.646","0.07","0.11","29.8035","4.71296","46.92","0","SATNPRO1509","29.568","0.41418","5"],
    [49222,"HCEP03730542","2025-02-22 01:00:00","9.8185","3.28218","27.239","4.23","7.56","0.555","3.943","0.1","0.12","29.8037","4.71326","45.17","0","SATNPRO1509","29.456","0.4126","5"],
    [49223,"HCEP03730542","2025-02-22 01:15:00","9.8557","3.27854","27.258","4.141","7.54","0.611","4.033","0.1","0.5","29.7364","4.70301","44.23","0","SATNPRO1509","29.32","0.41068","5"],
    [49224,"HCEP03730542","2025-02-22 01:30:00","9.859","3.27778","27.348","3.912","7.53","0.637","3.891","0.08","0.13","29.7261","4.70149","41.78","0","SATNPRO1509","29.114","0.40778","5"],
    [49225,"HCEP03730542","2025-02-22 01:45:00","9.8572","3.27582","27.375","3.838","7.52","0.692","4.063","0.17","0.14","29.7078","4.69891","40.98","0","SATNPRO1509","29.226","0.40938","5"],
    [49226,"HCEP03730542","2025-02-22 02:00:00","9.8574","3.27777","27.37","3.805","7.52","0.674","4.156","0.09","0.21","29.7272","4.70168","40.64","0","SATNPRO1509","29.126","0.40796","5"],
    [49227,"HCEP03730542","2025-02-22 02:15:00","9.8578","3.27575","27.386","3.808","7.52","0.626","3.928","0.11","0.14","29.7066","4.69874","40.67","0","SATNPRO1509","29.114","0.40782","5"],
    [49228,"HCEP03730542","2025-02-22 02:30:00","9.861","3.27652","27.4","3.77","7.52","0.628","4.046","0.11","0.15","29.7117","4.6994","40.26","0","SATNPRO1509","29.168","0.40854","5"],
    [49229,"HCEP03730542","2025-02-22 02:45:00","9.8659","3.27609","27.453","3.746","7.52","0.622","4.803","0.1","0.63","29.7033","4.69812","40.01","0","SATNPRO1509","29.128","0.40802","5"],
    [49230,"HCEP03730542","2025-02-22 03:00:00","9.8647","3.27565","27.402","3.712","7.51","0.691","5.265","0.15","0.91","29.6999","4.69765","39.65","0","SATNPRO1509","29.112","0.40774","5"],
    [49231,"HCEP03730542","2025-02-22 03:15:00","9.8638","3.27565","27.385","3.702","7.51","1.569","57.913","0.43","16.85","29.7007","4.69778","39.54","0","SATNPRO1509","28.976","0.40584","5"],
    [49232,"HCEP03730542","2025-02-22 03:30:00","9.8616","3.27537","27.366","3.683","7.51","1.142","51.354","0.95","27.6","29.6997","4.69767","39.33","0","SATNPRO1509","28.928","0.40518","5"],
    [49233,"HCEP03730542","2025-02-22 03:45:00","9.8564","3.27388","27.37","3.689","7.51","2.624","549.106","0.56","167.06","29.689","4.69624","39.38","0","SATNPRO1509","29.1","0.40764","5"],
    [49234,"HCEP03730542","2025-02-22 04:00:00","9.868","3.2751","27.354","3.701","7.51","1.349","39.915","0.46","15.31","29.6917","4.69642","39.52","0","SATNPRO1509","29.204","0.40908","5"],
    [49235,"HCEP03730542","2025-02-22 04:15:00","9.8592","3.2737","27.332","3.668","7.51","1.743","41.611","1.25","18.54","29.6849","4.69561","39.16","0","SATNPRO1509","29.186","0.40884","5"],
    [49236,"HCEP03730542","2025-02-22 04:30:00","9.8713","3.27542","27.255","3.678","7.51","1.523","6.987","0.51","3.55","29.6923","4.69645","39.28","0","SATNPRO1509","29.04","0.40676","5"],
    [49237,"HCEP03730542","2025-02-22 04:45:00","9.8473","3.27198","27.236","3.645","7.51","0.688","4.569","0.14","1.02","29.6775","4.69474","38.9","0","SATNPRO1509","28.948","0.4055","5"],
    [49238,"HCEP03730542","2025-02-22 05:00:00","9.8224","3.26782","27.239","3.727","7.52","0.591","3.669","0.12","0.7","29.6562","4.69213","39.76","0","SATNPRO1509","28.788","0.40318","5"],
    [49239,"HCEP03730542","2025-02-22 05:15:00","9.6373","3.23759","27.151","3.944","7.55","1.145","3.561","0.33","0.75","29.5038","4.67356","41.86","0","SATNPRO1509","27.378","0.38354","5"],
    [49240,"HCEP03730542","2025-02-22 05:30:00","9.7032","3.24996","27.076","4.295","7.56","0.847","4.35","0.32","0.91","29.5745","4.6825","45.69","0","SATNPRO1509","27.938000000000002","0.39132","5"],
    [49241,"HCEP03730542","2025-02-22 05:45:00","9.3579","3.19757","27.131","4.499","7.62","1.755","3.815","0.44","1.25","29.328","4.65333","47.43","0","SATNPRO1509","25.334","0.3548","5"],
    [49242,"HCEP03730542","2025-02-22 06:00:00","9.5506","3.22327","27.031","5.143","7.61","1.368","3.935","0.36","0.94","29.4304","4.66457","54.45","0","SATNPRO1509","27.178","0.38068","5"],
    [49243,"HCEP03730542","2025-02-22 06:15:00","9.8503","3.26882","27.042","4.587","7.56","0.724","5.681","0.12","1.07","29.6434","4.68981","48.93","0","SATNPRO1509","29.018","0.40644","5"],
    [49244,"HCEP03730542","2025-02-22 06:30:00","9.8492","3.27323","27.006","3.993","7.53","0.784","5.026","0.23","1.29","29.6885","4.69627","42.62","0","SATNPRO1509","29.284","0.41018","5"],
    [49245,"HCEP03730542","2025-02-22 06:45:00","9.8499","3.27584","26.963","3.817","7.53","0.727","4.418","0.34","1.74","29.7142","4.69993","40.75","0","SATNPRO1509","29.402","0.41184","5"],
    [49246,"HCEP03730542","2025-02-22 07:00:00","9.8298","3.27066","26.886","3.823","7.53","0.594","2.774","0.12","0.24","29.6788","4.69521","40.79","0","SATNPRO1509","29.442","0.41236","5"],
    [49247,"HCEP03730542","2025-02-22 07:15:00","9.8173","3.26922","26.893","3.918","7.53","0.576","2.687","0.1","0.37","29.6745","4.69482","41.79","0","SATNPRO1509","29.358","0.41122","5"],
    [49248,"HCEP03730542","2025-02-22 07:30:00","9.8106","3.26722","26.93","3.963","7.53","0.585","3.348","0.11","0.71","29.66","4.69286","42.26","0","SATNPRO1509","29.182","0.40876","5"],
    [49249,"HCEP03730542","2025-02-22 07:45:00","9.7905","3.26422","27.01","3.945","7.53","0.574","2.8","0.11","0.21","29.6463","4.69126","42.05","0","SATNPRO1509","29.224","0.40934","5"],
    [49250,"HCEP03730542","2025-02-22 08:00:00","9.7936","3.26473","26.97","4.015","7.54","0.623","4.521","0.12","4.73","29.6489","4.69156","42.8","0","SATNPRO1509","29.11","0.40772","5"],
    [49251,"HCEP03730542","2025-02-22 08:15:00","9.7706","3.26097","26.953","4.024","7.54","0.667","3.216","0.13","0.24","29.63","4.68926","42.87","0","SATNPRO1509","28.976","0.40588","5"],
    [49252,"HCEP03730542","2025-02-22 08:30:00","9.7572","3.25869","26.956","4.091","7.54","0.761","3.199","0.14","0.59","29.6181","4.6878","43.57","0","SATNPRO1509","28.846","0.40404","5"],
    [49253,"HCEP03730542","2025-02-22 08:45:00","9.6251","3.23406","27.019","4.261","7.57","0.813","3.17","0.18","0.16","29.4783","4.6701","45.21","0","SATNPRO1509","27.438","0.38434","5"],
    [49254,"HCEP03730542","2025-02-22 09:00:00","9.2431","3.17342","26.921","4.987","7.68","1.495","2.383","0.34","0.27","29.1765","4.63365","52.36","0","SATNPRO1509","25.206","0.35306","5"],
    [49255,"HCEP03730542","2025-02-22 09:15:00","9.2361","3.17206","26.864","5.714","7.69","1.796","1.799","0.39","0.16","29.1685","4.63262","59.98","0","SATNPRO1509","24.836","0.34788","5"],
    [49256,"HCEP03730542","2025-02-22 09:30:00","9.2083","3.16762","27.024","6.009","7.71","1.844","1.937","0.41","0.14","29.146","4.62991","63.02","0","SATNPRO1509","24.724","0.34628","5"],
    [49257,"HCEP03730542","2025-02-22 09:45:00","9.1698","3.16166","27.001","6.173","7.73","1.722","1.739","0.34","0.1","29.1166","4.62639","64.68","0","SATNPRO1509","24.637999999999998","0.3451","5"],
    [49258,"HCEP03730542","2025-02-22 10:00:00","9.1657","3.16076","26.983","6.308","7.74","1.835","1.76","0.43","0.09","29.1109","4.62564","66.08","0","SATNPRO1509","24.434","0.34226","5"],
    [49259,"HCEP03730542","2025-02-22 10:15:00","9.1627","3.1601","26.979","6.332","7.75","7.945","1245.873","6.07","564.47","29.1066","4.62508","66.33","0","SATNPRO1509","24.534","0.34362","5"],
    [49260,"HCEP03730542","2025-02-22 10:30:00","9.1676","3.16113","27.031","6.35","7.75","6.192","55.103","4.31","26.54","29.1131","4.62592","66.53","0","SATNPRO1509","24.704","0.346","5"],
    [49261,"HCEP03730542","2025-02-22 10:45:00","9.1832","3.16405","26.978","6.351","7.75","1.662","1.955","0.33","1.07","29.1301","4.62808","66.56","0","SATNPRO1509","24.96","0.34956","5"],
    [49262,"HCEP03730542","2025-02-22 11:00:00","9.1881","3.16509","26.98","6.326","7.75","1.526","1.486","0.24","0.07","29.1367","4.62893","66.31","0","SATNPRO1509","25.076","0.35124","5"],
    [49263,"HCEP03730542","2025-02-22 11:15:00","9.3472","3.19391","26.897","6.215","7.71","1.345","6.558","0.29","0.69","29.2996","4.64944","65.46","0","SATNPRO1509","25.922","0.3631","5"],
    [49264,"HCEP03730542","2025-02-22 11:30:00","9.3242","3.18677","26.86","5.069","7.69","1.508","2.082","0.29","0.18","29.2461","4.64217","53.34","0","SATNPRO1509","25.878","0.36246","5"],
    [49265,"HCEP03730542","2025-02-22 11:45:00","9.4199","3.2071","26.827","5.347","7.67","1.197","4.623","0.18","0.23","29.3739","4.65879","56.44","0","SATNPRO1509","26.426","0.37016","5"],
    [49266,"HCEP03730542","2025-02-22 12:00:00","9.4846","3.21601","26.732","5.404","7.65","1.188","5.296","0.23","0.24","29.4112","4.66296","57.13","0","SATNPRO1509","26.626","0.37296","5"],
    [49267,"HCEP03730542","2025-02-22 12:15:00","9.695","3.2496","26.751","4.42","7.59","0.811","5","0.14","0.29","29.5778","4.6831","46.98","0","SATNPRO1509","27.468","0.38476","5"],
    [49268,"HCEP03730542","2025-02-22 12:30:00","9.7377","3.25828","26.646","4.176","7.56","0.767","5.782","0.12","0.23","29.6301","4.68983","44.45","0","SATNPRO1509","28.23","0.39538","5"],
    [49269,"HCEP03730542","2025-02-22 12:45:00","9.7526","3.26245","26.65","4.039","7.55","0.789","5.458","0.25","0.49","29.6599","4.69383","43.02","0","SATNPRO1509","28.298","0.39638","5"],
    [49270,"HCEP03730542","2025-02-22 13:00:00","9.7628","3.26431","26.505","3.972","7.54","0.685","5.599","0.08","0.17","29.6702","4.69512","42.31","0","SATNPRO1509","28.104","0.39366","5"],
    [49271,"HCEP03730542","2025-02-22 13:15:00","9.7298","3.25999","26.472","3.965","7.54","0.797","5.717","0.13","0.22","29.6538","4.69336","42.2","0","SATNPRO1509","28.154","0.39432","5"],
    [49272,"HCEP03730542","2025-02-22 13:30:00","9.7213","3.25911","26.289","4.062","7.55","0.818","5.985","0.13","0.31","29.6521","4.69324","43.22","0","SATNPRO1509","28.04","0.39276","5"],
    [49273,"HCEP03730542","2025-02-22 13:45:00","9.7119","3.25925","26.271","4.11","7.55","0.857","6.413","0.16","0.28","29.6612","4.69472","43.73","0","SATNPRO1509","27.928","0.39116","5"],
    [49274,"HCEP03730542","2025-02-22 14:00:00","9.7101","3.25927","26.199","4.124","7.55","0.889","6.941","0.2","1.03","29.663","4.69499","43.89","0","SATNPRO1509","27.89","0.39068","5"],
    [49275,"HCEP03730542","2025-02-22 14:15:00","9.7108","3.25996","26.057","4.123","7.55","0.944","6.877","0.14","0.25","29.6694","4.69588","43.88","0","SATNPRO1509","27.887999999999998","0.39062","5"],
    [49276,"HCEP03730542","2025-02-22 14:30:00","9.7176","3.2613","25.891","4.108","7.55","0.908","6.572","0.14","0.27","29.6774","4.6969","43.73","0","SATNPRO1509","27.874","0.3904","5"],
    [49277,"HCEP03730542","2025-02-22 14:45:00","9.722","3.26212","25.807","4.094","7.55","7.597","1966.42","0.96","304.82","29.682","4.69748","43.58","0","SATNPRO1509","27.968","0.39172","5"],
    [49278,"HCEP03730542","2025-02-22 15:00:00","9.7273","3.26303","25.761","4.087","7.55","4.766","1008.375","1.39","203.82","29.6869","4.69808","43.51","0","SATNPRO1509","28.148","0.39424","5"],
    [49279,"HCEP03730542","2025-02-22 15:15:00","9.7295","3.26343","25.566","4.071","7.55","2.77","1013.342","0.77","311.85","29.6892","4.69836","43.34","0","SATNPRO1509","28.142","0.39418","5"],
    [49280,"HCEP03730542","2025-02-22 15:30:00","9.7249","3.26246","25.504","4.065","7.54","8.116","794.463","2.9","443.05","29.6832","4.69758","43.27","0","SATNPRO1509","27.994","0.39212","5"],
    [49281,"HCEP03730542","2025-02-22 15:45:00","9.7169","3.26105","25.456","4.066","7.55","0.791","5.323","0.12","0.19","29.6756","4.69663","43.28","0","SATNPRO1509","27.922","0.3911","5"],
    [49282,"HCEP03730542","2025-02-22 16:00:00","9.7103","3.2593","25.256","4.094","7.55","0.799","5.35","0.08","0.87","29.6635","4.69501","43.56","0","SATNPRO1509","28.022","0.39248","5"],
    [49283,"HCEP03730542","2025-02-22 16:15:00","9.6919","3.25449","25.135","4.114","7.55","0.762","4.724","0.09","0.28","29.6302","4.69056","43.75","0","SATNPRO1509","27.918","0.39106","5"],
    [49284,"HCEP03730542","2025-02-22 16:30:00","9.6089","3.24076","25.078","4.279","7.57","0.947","3.738","0.15","0.32","29.56","4.68197","45.4","0","SATNPRO1509","27.898","0.39074","5"],
    [49285,"HCEP03730542","2025-02-22 16:45:00","9.4972","3.22139","24.958","4.637","7.61","1.088","2.984","0.18","0.13","29.456","4.66905","49.05","0","SATNPRO1509","27.464","0.38468","5"],
    [49286,"HCEP03730542","2025-02-22 17:00:00","9.4325","3.2104","24.833","5.071","7.63","1.185","2.745","0.28","0.16","29.3979","4.66188","53.54","0","SATNPRO1509","27.122","0.37992","5"],
    [49287,"HCEP03730542","2025-02-22 17:15:00","9.3732","3.19881","24.872","5.34","7.66","1.242","2.521","0.24","0.12","29.3289","4.65306","56.28","0","SATNPRO1509","26.46","0.37064","5"],
    [49288,"HCEP03730542","2025-02-22 17:30:00","9.5042","3.22066","24.836","5.377","7.63","1.324","6.302","0.25","0.3","29.4429","4.66705","56.87","0","SATNPRO1509","26.266000000000002","0.36786","5"],
    [49289,"HCEP03730542","2025-02-22 17:45:00","9.5436","3.22282","24.686","4.867","7.61","1.019","6.212","0.16","0.33","29.4326","4.66487","51.5","0","SATNPRO1509","26.208","0.3671","5"],
    [49290,"HCEP03730542","2025-02-22 18:00:00","9.5985","3.23704","24.681","4.659","7.59","1.098","5.687","0.19","0.29","29.5312","4.67802","49.41","0","SATNPRO1509","26.846","0.376","5"],
    [49291,"HCEP03730542","2025-02-22 18:15:00","9.3668","3.19378","24.714","4.626","7.63","1.572","5.385","0.45","0.34","29.2832","4.6466","48.74","0","SATNPRO1509","25.29","0.35422","5"],
    [49292,"HCEP03730542","2025-02-22 18:30:00","9.5805","3.23404","24.674","4.772","7.6","1.225","5.365","0.25","0.48","29.5156","4.6761","50.59","0","SATNPRO1509","26.888","0.3766","5"],
    [49293,"HCEP03730542","2025-02-22 18:45:00","9.3404","3.18986","24.657","4.737","7.64","1.529","4.903","0.31","0.26","29.2651","4.64448","49.87","0","SATNPRO1509","25.216","0.3532","5"],
    [49294,"HCEP03730542","2025-02-22 19:00:00","9.2971","3.18148","24.69","5.361","7.67","1.333","4.439","0.29","0.26","29.2154","4.63813","56.36","0","SATNPRO1509","24.488","0.34296","5"],
    [49295,"HCEP03730542","2025-02-22 19:15:00","9.5005","3.21989","24.707","5.356","7.64","1.269","3.846","0.31","0.29","29.4382","4.66644","56.64","0","SATNPRO1509","25.784","0.36114","5"],
    [49296,"HCEP03730542","2025-02-22 19:30:00","9.4115","3.20614","24.788","5.005","7.64","1.185","3.672","0.3","0.22","29.3719","4.65853","52.83","0","SATNPRO1509","25.98","0.36388","5"],
    [49297,"HCEP03730542","2025-02-22 19:45:00","9.4372","3.20664","24.867","5.14","7.64","1.212","3.32","0.34","0.3","29.3559","4.65578","54.25","0","SATNPRO1509","26.168","0.36654","5"],
    [49298,"HCEP03730542","2025-02-22 20:00:00","9.4763","3.22","24.982","5.152","7.64","1.18","3.021","0.34","0.31","29.4591","4.66987","54.48","0","SATNPRO1509","27.3","0.38236","5"],
    [49299,"HCEP03730542","2025-02-22 20:15:00","9.5215","3.22741","25.028","5.133","7.63","0.987","3.326","0.24","0.59","29.497","4.6745","54.33","0","SATNPRO1509","27.98","0.3919","5"],
    [49300,"HCEP03730542","2025-02-22 20:30:00","9.4834","3.2189","25.108","5.065","7.63","1.302","3.049","0.31","0.59","29.4421","4.66732","53.55","0","SATNPRO1509","26.84","0.37596","5"],
    [49301,"HCEP03730542","2025-02-22 20:45:00","9.4904","3.22057","25.26","5.13","7.64","1.31","2.938","0.36","0.64","29.4532","4.66879","54.25","0","SATNPRO1509","27.112","0.37976","5"],
    [49302,"HCEP03730542","2025-02-22 21:00:00","9.4545","3.21394","25.38","5.152","7.64","1.264","3.622","0.35","1.53","29.4155","4.66404","54.43","0","SATNPRO1509","26.84","0.37594","5"],
    [49303,"HCEP03730542","2025-02-22 21:15:00","9.4514","3.21154","25.465","5.179","7.64","1.192","2.644","0.41","0.23","29.3936","4.66097","54.7","0","SATNPRO1509","26.806","0.37546","5"],
    [49304,"HCEP03730542","2025-02-22 21:30:00","9.3371","3.18648","25.604","5.265","7.67","1.438","3.185","0.47","0.34","29.233","4.64","55.4","0","SATNPRO1509","25.906","0.36284","5"],
    [49305,"HCEP03730542","2025-02-22 21:45:00","9.304","3.18424","25.742","5.54","7.68","1.604","3.966","0.42","1.18","29.2373","4.64121","58.27","0","SATNPRO1509","25.43","0.3562","5"],
    [49306,"HCEP03730542","2025-02-22 22:00:00","9.2094","3.1688","25.905","5.764","7.71","1.578","3.529","0.4","1.03","29.1575","4.63148","60.46","0","SATNPRO1509","25.419999999999998","0.35604","5"],
    [49307,"HCEP03730542","2025-02-22 22:15:00","9.2234","3.17305","26.042","5.981","7.72","1.539","3.468","0.38","0.67","29.1892","4.63579","62.78","0","SATNPRO1509","25.036","0.35068","5"],
    [49308,"HCEP03730542","2025-02-22 22:30:00","9.0527","3.14545","26.176","6.101","7.75","1.57","2.437","0.31","0.34","29.0471","4.6185","63.76","0","SATNPRO1509","24.419999999999998","0.34202","5"],
    [49309,"HCEP03730542","2025-02-22 22:45:00","9.1852","3.16527","26.316","6.32","7.74","1.744","2.706","0.52","0.68","29.1411","4.62959","66.25","0","SATNPRO1509","25.224","0.3533","5"],
    [49310,"HCEP03730542","2025-02-22 23:00:00","9.223","3.17159","26.44","6.217","7.73","1.561","2.786","0.43","0.31","29.1746","4.63372","65.25","0","SATNPRO1509","25.336","0.35486","5"],
    [49311,"HCEP03730542","2025-02-22 23:15:00","9.1507","3.15825","26.602","6.153","7.74","1.919","2.763","0.79","1.5","29.0977","4.62399","64.44","0","SATNPRO1509","24.506","0.34322","5"],
    [49312,"HCEP03730542","2025-02-22 23:30:00","9.244","3.17486","26.74","6.156","7.72","1.462","4.987","0.41","1.17","29.1906","4.63565","64.64","0","SATNPRO1509","24.818","0.34762","5"],
    [49313,"HCEP03730542","2025-02-22 23:45:00","9.2173","3.16915","26.86","6.005","7.73","2.211","3.009","0.8","0.81","29.1543","4.63092","63","0","SATNPRO1509","24.984","0.34996","5"],
    [49314,"HCEP03730542","2025-02-23 00:00:00","9.2874","3.1845","26.975","6.029","7.71","1.681","3.531","0.55","0.82","29.253","4.64383","63.4","0","SATNPRO1509","25.286","0.35418","5"],
    [49315,"HCEP03730542","2025-02-23 00:15:00","9.2191","3.17034","27.085","5.853","7.72","1.582","4.278","0.54","0.64","29.1647","4.6324","61.42","0","SATNPRO1509","24.764","0.34684","5"],
    [49316,"HCEP03730542","2025-02-23 00:30:00","9.14","3.15551","27.174","6.017","7.74","1.784","3.754","0.55","0.9","29.0781","4.62141","62.99","0","SATNPRO1509","23.412","0.3279","5"],
    [49317,"HCEP03730542","2025-02-23 00:45:00","9.0946","3.14953","27.261","6.287","7.76","2.565","4.039","0.82","0.55","29.0542","4.61881","65.74","0","SATNPRO1509","23.064","0.32304","5"],
    [49318,"HCEP03730542","2025-02-23 01:00:00","9.0086","3.13276","27.339","6.43","7.78","2.164","3.287","0.64","0.76","28.953","4.60584","67.06","0","SATNPRO1509","22.228","0.31134","5"],
    [49319,"HCEP03730542","2025-02-23 01:15:00","8.9944","3.13028","27.375","6.623","7.79","1.722","3.086","0.54","0.21","28.9391","4.60411","69.05","0","SATNPRO1509","22.108","0.30964","5"],
    [49320,"HCEP03730542","2025-02-23 01:30:00","8.907","3.11612","27.43","6.728","7.81","1.945","3.255","0.36","0.35","28.8653","4.5951","70","0","SATNPRO1509","21.148","0.29622","5"],
    [49321,"HCEP03730542","2025-02-23 01:45:00","9.1317","3.14987","27.467","6.713","7.77","1.494","5.533","0.35","0.42","29.0274","4.6143","70.22","0","SATNPRO1509","23.94","0.33534","5"],
    [49322,"HCEP03730542","2025-02-23 02:00:00","9.2784","3.18112","27.49","6.285","7.72","1.493","4.848","0.54","0.46","29.2258","4.64012","66.07","0","SATNPRO1509","24.92","0.34906","5"],
    [49323,"HCEP03730542","2025-02-23 02:15:00","9.3308","3.19241","27.517","5.842","7.69","1.492","5.013","0.49","0.28","29.2977","4.64949","61.52","0","SATNPRO1509","25.562","0.35808","5"],
    [49324,"HCEP03730542","2025-02-23 02:30:00","9.4004","3.20097","27.516","5.481","7.66","1.362","5.793","0.31","0.46","29.3275","4.65251","57.8","0","SATNPRO1509","25.306","0.35446","5"],
    [49325,"HCEP03730542","2025-02-23 02:45:00","9.6024","3.23819","27.539","4.905","7.61","1.101","6.699","0.23","0.29","29.5384","4.67914","52.03","0","SATNPRO1509","26.64","0.37312","5"],
    [49326,"HCEP03730542","2025-02-23 03:00:00","9.5752","3.23299","27.55","4.429","7.59","1.214","6.292","0.29","0.38","29.5082","4.6753","46.95","0","SATNPRO1509","26.47","0.37078","5"],
    [49327,"HCEP03730542","2025-02-23 03:15:00","9.5919","3.23426","27.564","4.366","7.58","1.046","5.73","0.26","0.31","29.5073","4.67488","46.29","0","SATNPRO1509","26.622","0.37288","5"],
    [49328,"HCEP03730542","2025-02-23 03:30:00","9.5132","3.20062","27.584","4.478","7.61","1.046","5.727","0.16","0.32","29.2319","4.63681","47.25","0","SATNPRO1509","24.932","0.34922","5"],
    [49329,"HCEP03730542","2025-02-23 03:45:00","9.1598","3.15823","27.559","5.214","7.69","1.118","4.023","0.19","0.31","29.0896","4.62272","54.63","0","SATNPRO1509","24.48","0.34286","5"],
    [49330,"HCEP03730542","2025-02-23 04:00:00","9.052","3.14101","27.538","6.117","7.75","1.611","2.649","0.3","0.21","29.0019","4.61209","63.89","0","SATNPRO1509","23.51","0.32932","5"],
    [49331,"HCEP03730542","2025-02-23 04:15:00","9.0035","3.1338","27.512","6.631","7.78","1.895","2.719","0.36","0.79","28.9676","4.60805","69.15","0","SATNPRO1509","22.972","0.32176","5"],
    [49332,"HCEP03730542","2025-02-23 04:30:00","8.9906","3.13073","27.48","6.789","7.79","1.782","2.557","0.55","0.31","28.9467","4.60528","70.78","0","SATNPRO1509","22.602","0.31658","5"],
    [49333,"HCEP03730542","2025-02-23 04:45:00","9.0908","3.14898","27.436","6.749","7.77","1.472","3.955","0.31","0.52","29.0516","4.61851","70.57","0","SATNPRO1509","23.02","0.32242","5"],
    [49334,"HCEP03730542","2025-02-23 05:00:00","9.5047","3.21531","27.397","5.763","7.67","1.032","4.768","0.17","0.25","29.3874","4.65924","60.92","0","SATNPRO1509","25.502","0.35716","5"],
    [49335,"HCEP03730542","2025-02-23 05:15:00","9.2518","3.1719","27.357","5.313","7.7","1.063","5.445","0.26","0.64","29.1539","4.63027","55.8","0","SATNPRO1509","24.126","0.33794","5"],
    [49336,"HCEP03730542","2025-02-23 05:30:00","9.5757","3.23498","27.322","5.414","7.63","1.102","5.327","0.16","0.31","29.528","4.67811","57.4","0","SATNPRO1509","24.977999999999998","0.34984","5"],
    [49337,"HCEP03730542","2025-02-23 05:45:00","9.5435","3.22464","27.262","4.642","7.6","1.012","5.325","0.21","0.37","29.45","4.66751","49.14","0","SATNPRO1509","25.622","0.35884","5"],
    [49338,"HCEP03730542","2025-02-23 06:00:00","9.6452","3.24417","27.214","4.459","7.57","1.145","5.793","0.34","0.36","29.5637","4.68198","47.35","0","SATNPRO1509","26.818","0.37562","5"],
    [49339,"HCEP03730542","2025-02-23 06:15:00","9.6541","3.24479","27.176","4.18","7.56","1.072","5.701","0.19","0.38","29.5627","4.68168","44.4","0","SATNPRO1509","26.962","0.37764","5"],
    [49340,"HCEP03730542","2025-02-23 06:30:00","9.6538","3.24433","27.125","4.082","7.55","1.189","5.063","0.26","0.35","29.5583","4.68106","43.36","0","SATNPRO1509","26.92","0.37708","5"],
    [49341,"HCEP03730542","2025-02-23 06:45:00","9.654","3.24404","27.087","4.04","7.55","1.051","5.116","0.24","0.36","29.5552","4.68061","42.9","0","SATNPRO1509","26.986","0.37798","5"],
    [49342,"HCEP03730542","2025-02-23 07:00:00","9.6385","3.24186","27.051","4.002","7.55","1.227","4.658","0.32","0.28","29.546","4.67956","42.48","0","SATNPRO1509","26.808","0.37548","5"],
    [49343,"HCEP03730542","2025-02-23 07:15:00","9.6402","3.24105","27.017","4.008","7.55","1.162","4.569","0.35","0.33","29.5364","4.67816","42.55","0","SATNPRO1509","27.044","0.3788","5"],
    [49344,"HCEP03730542","2025-02-23 07:30:00","9.5469","3.22212","26.992","4.081","7.56","1.624","8.74","1.07","9.58","29.4218","4.6634","43.19","0","SATNPRO1509","26.374","0.36938","5"],
    [49345,"HCEP03730542","2025-02-23 07:45:00","9.5314","3.22226","26.964","4.359","7.57","1.21","3.721","0.4","0.31","29.436","4.6657","46.14","0","SATNPRO1509","26.236","0.36746","5"],
    [49346,"HCEP03730542","2025-02-23 08:00:00","9.4933","3.21674","26.953","4.447","7.58","1.405","3.997","0.73","0.54","29.4113","4.66284","47.03","0","SATNPRO1509","26.33","0.36882","5"],
    [49347,"HCEP03730542","2025-02-23 08:15:00","9.5383","3.22353","26.94","4.509","7.58","1.194","4.445","0.68","0.35","29.4432","4.66661","47.73","0","SATNPRO1509","26.482","0.37094","5"],
    [49348,"HCEP03730542","2025-02-23 08:30:00","9.5176","3.22071","26.908","4.423","7.58","1.412","4.01","0.69","0.54","29.4316","4.66532","46.8","0","SATNPRO1509","26.338","0.3689","5"],
    [49349,"HCEP03730542","2025-02-23 08:45:00","9.6364","3.2424","26.863","4.344","7.56","1.246","6.396","0.4","0.41","29.5532","4.68062","46.11","0","SATNPRO1509","26.606","0.37266","5"],
    [49350,"HCEP03730542","2025-02-23 09:00:00","9.5983","3.23763","26.914","4.09","7.55","1.577","7.887","0.54","0.48","29.5364","4.67889","43.38","0","SATNPRO1509","26.358","0.36918","5"],
    [49351,"HCEP03730542","2025-02-23 09:15:00","9.6171","3.24784","26.915","4.083","7.55","1.65","7.229","0.36","0.42","29.6241","4.6911","43.34","0","SATNPRO1509","27.258000000000003","0.38176","5"],
    [49352,"HCEP03730542","2025-02-23 09:30:00","9.6299","3.25129","26.946","4.19","7.56","1.698","7.322","0.36","0.56","29.6482","4.69433","44.51","0","SATNPRO1509","27.692","0.38788","5"],
    [49353,"HCEP03730542","2025-02-23 09:45:00","9.6295","3.25161","26.959","4.264","7.56","1.473","6.977","0.41","0.62","29.6518","4.69485","45.29","0","SATNPRO1509","28.036","0.39268","5"],
    [49354,"HCEP03730542","2025-02-23 10:00:00","9.6346","3.25386","26.983","4.338","7.57","1.397","6.982","0.33","0.72","29.6703","4.69741","46.08","0","SATNPRO1509","28.262","0.39588","5"],
    [49355,"HCEP03730542","2025-02-23 10:15:00","9.6382","3.25576","26.995","4.4","7.57","1.304","6.822","0.37","0.6","29.6866","4.69967","46.75","0","SATNPRO1509","28.58","0.40032","5"],
    [49356,"HCEP03730542","2025-02-23 10:30:00","9.6404","3.25789","26.997","4.471","7.58","1.259","6.79","0.29","0.89","29.7062","4.70245","47.51","0","SATNPRO1509","28.854","0.40416","5"],
    [49357,"HCEP03730542","2025-02-23 10:45:00","9.6419","3.25879","27.01","4.548","7.58","1.116","5.945","0.31","0.36","29.714","4.70353","48.33","0","SATNPRO1509","29.11","0.40774","5"],
    [49358,"HCEP03730542","2025-02-23 11:00:00","9.6411","3.25868","27.02","4.564","7.58","0.955","5.96","0.25","0.6","29.7136","4.70349","48.51","0","SATNPRO1509","29.266000000000002","0.4099","5"],
    [49359,"HCEP03730542","2025-02-23 11:15:00","9.639","3.25913","27.03","4.598","7.59","1.043","6.258","0.37","0.68","29.7199","4.70442","48.86","0","SATNPRO1509","29.4","0.41178","5"],
    [49360,"HCEP03730542","2025-02-23 11:30:00","9.6365","3.25982","27.039","4.647","7.59","0.919","5.188","0.22","0.39","29.7289","4.70576","49.39","0","SATNPRO1509","29.486","0.413","5"],
    [49361,"HCEP03730542","2025-02-23 11:45:00","9.6359","3.2602","27.031","4.665","7.59","0.921","5.323","0.26","0.45","29.7332","4.70638","49.59","0","SATNPRO1509","29.605999999999998","0.41466","5"],
    [49362,"HCEP03730542","2025-02-23 12:00:00","9.6333","3.25957","27.02","4.656","7.59","0.941","5.347","0.28","0.5","29.729","4.70582","49.48","0","SATNPRO1509","29.474","0.41282","5"],
    [49363,"HCEP03730542","2025-02-23 12:15:00","9.6316","3.25957","26.983","4.661","7.59","1.093","6.033","0.3","0.85","29.7305","4.70606","49.53","0","SATNPRO1509","29.524","0.41354","5"],
    [49364,"HCEP03730542","2025-02-23 12:30:00","9.6271","3.25909","26.969","4.659","7.59","0.949","5.335","0.2","0.59","29.7293","4.70597","49.51","0","SATNPRO1509","29.474","0.41282","5"],
    [49365,"HCEP03730542","2025-02-23 12:45:00","9.6239","3.259","26.939","4.682","7.59","0.861","4.947","0.17","0.33","29.7311","4.70629","49.74","0","SATNPRO1509","29.63","0.41504","5"],
    [49366,"HCEP03730542","2025-02-23 13:00:00","9.6212","3.25925","26.878","4.701","7.59","0.956","4.868","0.23","0.33","29.7359","4.70701","49.94","0","SATNPRO1509","29.605999999999998","0.41466","5"],
    [49367,"HCEP03730542","2025-02-23 13:15:00","9.6192","3.25934","26.822","4.711","7.6","1.055","5.761","0.29","1.54","29.7384","4.70741","50.05","0","SATNPRO1509","29.596","0.41454","5"],
    [49368,"HCEP03730542","2025-02-23 13:30:00","9.6146","3.25855","26.768","4.724","7.6","0.826","4.219","0.19","0.32","29.7343","4.70691","50.18","0","SATNPRO1509","29.6","0.41462","5"],
    [49369,"HCEP03730542","2025-02-23 13:45:00","9.6153","3.25935","26.719","4.739","7.6","1.157","5.007","0.37","0.31","29.7418","4.70796","50.34","0","SATNPRO1509","29.602","0.4146","5"],
    [49370,"HCEP03730542","2025-02-23 14:00:00","9.6114","3.25792","26.646","4.736","7.6","0.992","5.173","0.25","0.41","29.7307","4.70644","50.3","0","SATNPRO1509","29.488","0.413","5"],
    [49371,"HCEP03730542","2025-02-23 14:15:00","9.6144","3.258","26.519","4.738","7.6","1.013","4.707","0.37","0.27","29.729","4.70614","50.33","0","SATNPRO1509","29.584","0.4144","5"],
    [49372,"HCEP03730542","2025-02-23 14:30:00","9.6111","3.25751","26.453","4.717","7.6","0.902","5.084","0.26","2.1","29.7268","4.70587","50.1","0","SATNPRO1509","29.552","0.4139","5"],
    [49373,"HCEP03730542","2025-02-23 14:45:00","9.610900000000001","3.25755","26.337","4.713","7.6","0.955","4.37","0.24","0.32","29.7274","4.70596","50.06","0","SATNPRO1509","29.486","0.41298","5"],
    [49374,"HCEP03730542","2025-02-23 15:00:00","9.6093","3.25749","26.282","4.709","7.6","0.894","4.24","0.21","0.29","29.7281","4.70609","50.01","0","SATNPRO1509","29.476","0.41284","5"],
    [49375,"HCEP03730542","2025-02-23 15:15:00","9.6072","3.25797","26.075","4.713","7.6","0.873","3.993","0.22","0.35","29.7349","4.70707","50.06","0","SATNPRO1509","29.422","0.4121","5"],
    [49376,"HCEP03730542","2025-02-23 15:30:00","9.6002","3.25737","26.008","4.742","7.6","0.945","4.127","0.29","0.56","29.7346","4.70715","50.36","0","SATNPRO1509","29.682000000000002","0.41574","5"],
    [49377,"HCEP03730542","2025-02-23 15:45:00","9.5819","3.25636","25.838","4.796","7.61","0.756","3.628","0.19","0.31","29.7396","4.70818","50.91","0","SATNPRO1509","29.72","0.41628","5"],
    [49378,"HCEP03730542","2025-02-23 16:00:00","9.5949","3.25906","25.741","4.888","7.61","0.754","4.57","0.22","0.4","29.7562","4.71032","51.91","0","SATNPRO1509","29.844","0.41804","5"],
    [49379,"HCEP03730542","2025-02-23 16:15:00","9.5973","3.25986","25.586","4.859","7.61","0.773","4.193","0.2","0.29","29.7623","4.71114","51.61","0","SATNPRO1509","29.692","0.41586","5"],
    [49380,"HCEP03730542","2025-02-23 16:30:00","9.6","3.26227","25.438","4.828","7.6","0.845","5.859","0.19","0.35","29.7846","4.71427","51.29","0","SATNPRO1509","29.502","0.41322","5"],
    [49381,"HCEP03730542","2025-02-23 16:45:00","9.5866","3.26225","25.261","4.824","7.61","0.814","4.194","0.22","0.35","29.7955","4.71606","51.23","0","SATNPRO1509","30.152","0.42234","5"],
    [49382,"HCEP03730542","2025-02-23 17:00:00","9.5927","3.26335","25.105","4.927","7.61","0.769","5.412","0.13","0.24","29.8016","4.71682","52.34","0","SATNPRO1509","29.924","0.41914","5"],
    [49383,"HCEP03730542","2025-02-23 17:15:00","9.5911","3.26364","25.008","4.889","7.61","0.839","5.507","0.16","0.29","29.8059","4.71745","51.94","0","SATNPRO1509","29.932000000000002","0.41926","5"],
    [49384,"HCEP03730542","2025-02-23 17:30:00","9.5901","3.26448","24.818","4.878","7.61","0.837","6.413","0.18","0.3","29.8153","4.7188","51.82","0","SATNPRO1509","29.882","0.41856","5"],
    [49385,"HCEP03730542","2025-02-23 17:45:00","9.584","3.26503","24.781","4.888","7.61","0.827","5.333","0.21","0.42","29.826","4.72044","51.92","0","SATNPRO1509","30.026","0.42052","5"],
    [49386,"HCEP03730542","2025-02-23 18:00:00","9.577","3.26566","24.652","4.936","7.61","0.8","5.965","0.21","0.21","29.8382","4.7223","52.43","0","SATNPRO1509","30.066","0.42112","5"],
    [49387,"HCEP03730542","2025-02-23 18:15:00","9.5735","3.26585","24.576","4.967","7.62","0.749","5.488","0.16","0.29","29.8431","4.72306","52.75","0","SATNPRO1509","30.092","0.4215","5"],
    [49388,"HCEP03730542","2025-02-23 18:30:00","9.5681","3.26567","24.519","4.994","7.62","0.613","4.159","0.13","0.28","29.8458","4.72354","53.04","0","SATNPRO1509","30.142","0.4222","5"],
    [49389,"HCEP03730542","2025-02-23 18:45:00","9.5577","3.26532","24.522","5.055","7.63","0.557","4.095","0.11","0.56","29.8508","4.72444","53.67","0","SATNPRO1509","30.338","0.4249","5"],
    [49390,"HCEP03730542","2025-02-23 19:00:00","9.553","3.26605","24.417","5.159","7.63","0.638","3.304","0.22","0.31","29.8622","4.72615","54.78","0","SATNPRO1509","30.53","0.42764","5"],
    [49391,"HCEP03730542","2025-02-23 19:15:00","9.5456","3.26609","24.379","5.165","7.63","0.634","3.627","0.18","0.47","29.8687","4.72721","54.83","0","SATNPRO1509","30.654","0.42936","5"],
    [49392,"HCEP03730542","2025-02-23 19:30:00","9.5333","3.2649","24.386","5.244","7.64","0.557","2.809","0.22","0.55","29.867","4.72718","55.65","0","SATNPRO1509","30.948","0.43352","5"],
    [49393,"HCEP03730542","2025-02-23 19:45:00","9.5637","3.26441","24.386","5.314","7.64","0.488","2.021","0.12","0.12","29.8367","4.72231","56.42","0","SATNPRO1509","30.504","0.42724","5"],
    [49394,"HCEP03730542","2025-02-23 20:00:00","9.535","3.26477","24.423","5.235","7.64","0.59","3.178","0.26","0.24","29.8642","4.72676","55.56","0","SATNPRO1509","30.974","0.43384","5"],
    [49395,"HCEP03730542","2025-02-23 20:15:00","9.5448","3.26425","24.465","5.336","7.64","0.648","2.524","0.32","0.27","29.8507","4.72466","56.64","0","SATNPRO1509","30.682","0.42978","5"],
    [49396,"HCEP03730542","2025-02-23 20:30:00","9.5672","3.26438","24.553","5.283","7.63","0.769","2.49","0.43","0.25","29.8335","4.7218","56.1","0","SATNPRO1509","30.218","0.42324","5"],
    [49397,"HCEP03730542","2025-02-23 20:45:00","9.5721","3.26445","24.636","5.149","7.63","0.633","2.474","0.21","0.19","29.83","4.72122","54.68","0","SATNPRO1509","30.154","0.42238","5"],
    [49398,"HCEP03730542","2025-02-23 21:00:00","9.567","3.26469","24.726","5.106","7.63","0.726","2.897","0.24","0.26","29.8366","4.72226","54.22","0","SATNPRO1509","30.488","0.42702","5"],
    [49399,"HCEP03730542","2025-02-23 21:15:00","9.6022","3.26304","24.835","5.053","7.61","0.688","4.037","0.21","0.35","29.7907","4.71507","53.68","0","SATNPRO1509","29.682","0.41572","5"],
    [49400,"HCEP03730542","2025-02-23 21:30:00","9.6211","3.2591","24.983","4.829","7.6","0.76","3.914","0.25","0.35","29.7352","4.70681","51.3","0","SATNPRO1509","29.136","0.40812","5"],
    [49401,"HCEP03730542","2025-02-23 21:45:00","9.579","3.24332","25.105","4.615","7.59","0.909","4.339","0.69","0.29","29.6104","4.68972","48.95","0","SATNPRO1509","28.416","0.398","5"],
    [49402,"HCEP03730542","2025-02-23 22:00:00","9.5135","3.23021","25.239","4.528","7.59","1.003","2.92","0.3","0.15","29.5317","4.67963","47.94","0","SATNPRO1509","27.834","0.38988","5"],
    [49403,"HCEP03730542","2025-02-23 22:15:00","9.4408","3.21436","25.385","4.676","7.61","1.117","2.24","0.36","0.2","29.4309","4.6665","49.39","0","SATNPRO1509","27.384","0.38354","5"],
    [49404,"HCEP03730542","2025-02-23 22:30:00","9.3892","3.20287","25.543","4.933","7.63","1.343","2.181","0.42","0.56","29.3567","4.65679","52.01","0","SATNPRO1509","26.81","0.37552","5"],
    [49405,"HCEP03730542","2025-02-23 22:45:00","9.367","3.19822","25.705","5.171","7.65","0.862","5.487","0.32","0.39","29.3277","4.65304","54.49","0","SATNPRO1509","26.605999999999998","0.37264","5"],
    [49406,"HCEP03730542","2025-02-23 23:00:00","9.361","3.19934","25.895","5.307","7.66","0.686","5.075","0.28","0.27","29.3439","4.65548","55.93","0","SATNPRO1509","27.554","0.38594","5"],
    [49407,"HCEP03730542","2025-02-23 23:15:00","9.4025","3.20638","26.079","5.342","7.65","0.802","5.088","0.28","0.25","29.3812","4.66009","56.37","0","SATNPRO1509","28.150000000000002","0.3943","5"],
    [49408,"HCEP03730542","2025-02-23 23:30:00","9.5882","3.26162","26.25","5.091","7.61","0.745","5.284","0.23","0.4","29.7874","4.71493","54.07","0","SATNPRO1509","29.756","0.41678","5"],
    [49409,"HCEP03730542","2025-02-23 23:45:00","9.5761","3.26638","26.449","4.81","7.61","0.799","5.444","0.23","0.37","29.8455","4.72347","51.09","0","SATNPRO1509","29.818","0.41766","5"],
    [49410,"HCEP03730542","2025-02-24 00:00:00","9.5783","3.26662","26.615","4.86","7.61","0.822","5.409","0.21","0.27","29.846","4.7235","51.62","0","SATNPRO1509","29.836000000000002","0.41792","5"],
    [49411,"HCEP03730542","2025-02-24 00:15:00","9.5814","3.26676","26.777","4.869","7.61","0.736","5.245","0.1","0.27","29.8448","4.72329","51.72","0","SATNPRO1509","29.794","0.41732","5"],
    [49412,"HCEP03730542","2025-02-24 00:30:00","9.5973","3.26493","26.941","4.85","7.6","0.815","5.258","0.14","0.31","29.813","4.71847","51.53","0","SATNPRO1509","29.754","0.41674","5"],
    [49413,"HCEP03730542","2025-02-24 00:45:00","9.5911","3.26619","27.074","4.796","7.6","0.785","4.757","0.22","0.23","29.8308","4.72113","50.95","0","SATNPRO1509","29.854","0.41816","5"],
    [49414,"HCEP03730542","2025-02-24 01:00:00","9.593","3.26589","27.232","4.804","7.6","0.83","5.064","0.25","0.29","29.8263","4.72046","51.04","0","SATNPRO1509","29.816","0.41762","5"],
    [49415,"HCEP03730542","2025-02-24 01:15:00","9.5956","3.26523","27.343","4.809","7.6","0.907","4.82","0.25","0.31","29.8174","4.71915","51.1","0","SATNPRO1509","29.86","0.41824","5"],
    [49416,"HCEP03730542","2025-02-24 01:30:00","9.5963","3.26443","27.426","4.804","7.6","0.812","4.845","0.23","0.87","29.8086","4.71789","51.04","0","SATNPRO1509","29.922","0.4191","5"],
    [49417,"HCEP03730542","2025-02-24 01:45:00","9.5981","3.26303","27.472","4.797","7.6","0.767","4.549","0.09","0.25","29.7929","4.71561","50.96","0","SATNPRO1509","29.69","0.41588","5"],
    [49418,"HCEP03730542","2025-02-24 02:00:00","9.5991","3.26123","27.548","4.771","7.6","0.858","4.781","0.17","0.32","29.7739","4.71288","50.68","0","SATNPRO1509","29.508","0.41328","5"],
    [49419,"HCEP03730542","2025-02-24 02:15:00","9.601","3.26048","27.599","4.719","7.59","0.897","5.112","0.19","0.46","29.7647","4.71153","50.13","0","SATNPRO1509","29.326","0.41078","5"],
    [49420,"HCEP03730542","2025-02-24 02:30:00","9.5864","3.25592","27.633","4.656","7.59","1.046","4.463","0.27","0.21","29.7307","4.70694","49.43","0","SATNPRO1509","28.276","0.3961","5"],
    [49421,"HCEP03730542","2025-02-24 02:45:00","9.5552","3.24552","27.69","4.598","7.59","1.066","4.372","0.29","0.16","29.6513","4.69614","48.75","0","SATNPRO1509","27.96","0.39162","5"],
    [49422,"HCEP03730542","2025-02-24 03:00:00","9.5992","3.25924","27.755","4.564","7.59","0.913","5.301","0.21","0.32","29.7535","4.70998","48.48","0","SATNPRO1509","29.036","0.4067","5"],
    [49423,"HCEP03730542","2025-02-24 03:15:00","9.6028","3.26275","27.721","4.599","7.59","0.864","5.393","0.2","0.21","29.7861","4.71457","48.85","0","SATNPRO1509","29.398","0.41174","5"],
    [49424,"HCEP03730542","2025-02-24 03:30:00","9.6034","3.26302","27.734","4.627","7.59","0.901","5.202","0.2","0.36","29.7884","4.71489","49.16","0","SATNPRO1509","29.314","0.41062","5"],
    [49425,"HCEP03730542","2025-02-24 03:45:00","9.6073","3.26171","27.727","4.616","7.59","0.855","5.321","0.21","0.22","29.7719","4.71246","49.04","0","SATNPRO1509","29.396","0.41176","5"],
    [49426,"HCEP03730542","2025-02-24 04:00:00","9.6103","3.26069","27.732","4.577","7.58","0.788","5.358","0.15","0.28","29.759","4.71057","48.63","0","SATNPRO1509","29.376","0.41144","5"],
    [49427,"HCEP03730542","2025-02-24 04:15:00","9.6097","3.26226","27.703","4.573","7.59","0.771","4.898","0.13","0.2","29.7755","4.71293","48.59","0","SATNPRO1509","29.476","0.41284","5"],
    [49428,"HCEP03730542","2025-02-24 04:30:00","9.608","3.2604","27.604","4.612","7.59","0.765","4.329","0.15","0.24","29.7581","4.71047","48.99","0","SATNPRO1509","29.426000000000002","0.41214","5"],
    [49429,"HCEP03730542","2025-02-24 04:45:00","9.6082","3.26031","27.633","4.621","7.59","0.792","4.49","0.14","0.76","29.7571","4.71032","49.09","0","SATNPRO1509","29.46","0.41268","5"],
    [49430,"HCEP03730542","2025-02-24 05:00:00","9.6062","3.26003","27.528","4.615","7.59","0.757","4.471","0.1","0.18","29.7559","4.71018","49.02","0","SATNPRO1509","29.338","0.41096","5"],
    [49431,"HCEP03730542","2025-02-24 05:15:00","9.6052","3.25863","27.498","4.598","7.58","0.732","4.446","0.11","0.23","29.7426","4.7083","48.83","0","SATNPRO1509","29.256","0.4098","5"],
    [49432,"HCEP03730542","2025-02-24 05:30:00","9.5542","3.24602","27.408","4.579","7.59","0.798","4.148","0.16","0.18","29.6573","4.69699","48.56","0","SATNPRO1509","28.582","0.40036","5"],
    [49433,"HCEP03730542","2025-02-24 05:45:00","9.5699","3.24804","27.324","4.584","7.59","0.906","4.232","0.17","0.21","29.6647","4.69778","48.63","0","SATNPRO1509","28.634","0.40108","5"],
    [49434,"HCEP03730542","2025-02-24 06:00:00","9.5767","3.25037","27.288","4.559","7.58","0.905","4.174","0.22","0.28","29.6827","4.70023","48.37","0","SATNPRO1509","28.498","0.39916","5"],
    [49435,"HCEP03730542","2025-02-24 06:15:00","9.5724","3.24838","27.202","4.528","7.58","0.897","4.013","0.28","0.18","29.6662","4.69794","48.04","0","SATNPRO1509","28.14","0.39416","5"],
    [49436,"HCEP03730542","2025-02-24 06:30:00","9.6006","3.25463","27.18","4.489","7.58","0.899","4.78","0.23","0.38","29.706","4.70313","47.67","0","SATNPRO1509","28.848","0.40406","5"],
    [49437,"HCEP03730542","2025-02-24 06:45:00","9.613","3.25603","27.086","4.432","7.57","0.839","4.721","0.2","0.24","29.71","4.70348","47.07","0","SATNPRO1509","28.842000000000002","0.40398","5"],
    [49438,"HCEP03730542","2025-02-24 07:00:00","9.6177","3.2571","27.024","4.413","7.57","0.828","5.352","0.22","0.67","29.717","4.70438","46.88","0","SATNPRO1509","29.055999999999997","0.40698","5"],
    [49439,"HCEP03730542","2025-02-24 07:15:00","9.615","3.25489","26.926","4.417","7.57","0.809","4.92","0.13","0.64","29.6969","4.70156","46.91","0","SATNPRO1509","28.832","0.40386","5"],
    [49440,"HCEP03730542","2025-02-24 07:30:00","9.6099","3.25267","26.889","4.397","7.57","0.93","4.752","0.26","0.42","29.6787","4.69905","46.69","0","SATNPRO1509","28.606","0.40066","5"],
    [49441,"HCEP03730542","2025-02-24 07:45:00","9.6119","3.25365","26.819","4.375","7.57","0.842","4.367","0.2","0.34","29.6869","4.70018","46.46","0","SATNPRO1509","28.728","0.40238","5"],
    [49442,"HCEP03730542","2025-02-24 08:00:00","9.6123","3.25389","26.742","4.369","7.57","0.884","4.752","0.18","0.29","29.6891","4.70048","46.4","0","SATNPRO1509","28.76","0.40284","5"],
    [49443,"HCEP03730542","2025-02-24 08:15:00","9.6169","3.25486","26.704","4.357","7.57","0.854","4.648","0.18","0.38","29.6952","4.70127","46.28","0","SATNPRO1509","28.75","0.4027","5"],
    [49444,"HCEP03730542","2025-02-24 08:30:00","9.6161","3.25479","26.664","4.341","7.57","0.801","4.407","0.18","0.32","29.6952","4.70128","46.11","0","SATNPRO1509","28.522000000000002","0.39952","5"],
    [49445,"HCEP03730542","2025-02-24 08:45:00","9.6172","3.25536","26.651","4.327","7.56","0.908","5.598","0.23","4.03","29.7","4.70194","45.96","0","SATNPRO1509","28.594","0.40052","5"],
    [49446,"HCEP03730542","2025-02-24 09:00:00","9.6182","3.25591","26.71","4.325","7.56","0.898","6.486","0.15","0.8","29.7047","4.7026","45.94","0","SATNPRO1509","28.728","0.40242","5"],
    [49447,"HCEP03730542","2025-02-24 09:15:00","9.6176","3.25582","26.739","4.328","7.56","1.011","6.686","0.17","0.48","29.7042","4.70254","45.97","0","SATNPRO1509","28.704","0.40208","5"],
    [49448,"HCEP03730542","2025-02-24 09:30:00","9.6171","3.25791","26.81","4.321","7.56","0.879","6.957","0.13","0.39","29.7257","4.70563","45.9","0","SATNPRO1509","28.836","0.40388","5"],
    [49449,"HCEP03730542","2025-02-24 09:45:00","9.61","3.25907","26.855","4.361","7.57","0.878","6.734","0.16","0.45","29.7434","4.70829","46.33","0","SATNPRO1509","29.044","0.40684","5"],
    [49450,"HCEP03730542","2025-02-24 10:00:00","9.5862","3.25813","26.928","4.41","7.57","0.91","7.134","0.12","0.52","29.7535","4.71017","46.83","0","SATNPRO1509","28.758","0.40284","5"],
    [49451,"HCEP03730542","2025-02-24 10:15:00","9.5682","3.26269","26.979","4.479","7.58","0.968","33.48","0.19","26.56","29.8144","4.7192","47.55","0","SATNPRO1509","29.184","0.40874","5"],
    [49452,"HCEP03730542","2025-02-24 10:30:00","9.5414","3.26678","27.058","4.647","7.6","1.102","7.433","0.1","0.35","29.8782","4.7288","49.33","0","SATNPRO1509","29.726","0.41638","5"],
    [49453,"HCEP03730542","2025-02-24 10:45:00","9.5181","3.26725","27.075","4.836","7.61","0.981","6.814","0.12","0.5","29.9023","4.73266","51.32","0","SATNPRO1509","30.132","0.42202","5"],
    [49454,"HCEP03730542","2025-02-24 11:00:00","9.498","3.2668","27.07","5.068","7.63","0.832","6.273","0.1","0.51","29.9146","4.73478","53.76","0","SATNPRO1509","30.422","0.42608","5"],
    [49455,"HCEP03730542","2025-02-24 11:15:00","9.492","3.26645","27.17","5.228","7.64","0.731","5.703","0.13","0.26","29.9159","4.73508","55.45","0","SATNPRO1509","30.59","0.42844","5"],
    [49456,"HCEP03730542","2025-02-24 11:30:00","9.481","3.26621","27.121","5.331","7.64","0.817","6.356","0.15","0.79","29.9227","4.73625","56.53","0","SATNPRO1509","30.792","0.43132","5"],
    [49457,"HCEP03730542","2025-02-24 11:45:00","9.4701","3.26619","27.124","5.402","7.65","0.612","5.262","0.08","0.25","29.9316","4.73772","57.28","0","SATNPRO1509","30.916","0.43306","5"],
    [49458,"HCEP03730542","2025-02-24 12:00:00","9.4642","3.26622","27.167","5.482","7.66","0.65","5.185","0.09","0.34","29.9367","4.73857","58.12","0","SATNPRO1509","30.968","0.43378","5"],
    [49459,"HCEP03730542","2025-02-24 12:15:00","9.4647","3.26624","27.223","5.523","7.66","0.597","4.898","0.09","0.43","29.9365","4.73853","58.55","0","SATNPRO1509","31.072","0.4352","5"],
    [49460,"HCEP03730542","2025-02-24 12:30:00","9.4639","3.26627","27.173","5.527","7.66","0.658","5.87","0.1","3.18","29.9376","4.73869","58.59","0","SATNPRO1509","30.958000000000002","0.43366","5"],
    [49461,"HCEP03730542","2025-02-24 12:45:00","9.4629","3.26632","27.099","5.529","7.66","0.752","4.99","0.17","0.24","29.9389","4.7389","58.62","0","SATNPRO1509","31.088","0.43544","5"],
    [49462,"HCEP03730542","2025-02-24 13:00:00","9.4652","3.26625","27.183","5.536","7.66","0.614","4.578","0.07","0.24","29.9362","4.73848","58.69","0","SATNPRO1509","30.958","0.4336","5"],
    [49463,"HCEP03730542","2025-02-24 13:15:00","9.4671","3.26615","27.052","5.532","7.66","0.589","4.825","0.09","0.55","29.9337","4.73807","58.65","0","SATNPRO1509","31.08","0.43534","5"],
    [49464,"HCEP03730542","2025-02-24 13:30:00","9.4709","3.26589","27.119","5.524","7.66","0.609","4.575","0.16","0.46","29.9279","4.73717","58.56","0","SATNPRO1509","31.073999999999998","0.43526","5"],
    [49465,"HCEP03730542","2025-02-24 13:45:00","9.4758","3.26559","27.104","5.502","7.66","0.675","4.435","0.18","0.5","29.9207","4.73606","58.34","0","SATNPRO1509","31.034","0.4347","5"],
    [49466,"HCEP03730542","2025-02-24 14:00:00","9.4741","3.26501","27.096","5.488","7.66","0.764","4.819","0.26","0.54","29.9163","4.73545","58.19","0","SATNPRO1509","30.994","0.43414","5"],
    [49467,"HCEP03730542","2025-02-24 14:15:00","9.4795","3.26386","27.064","5.48","7.66","1.045","28.598","0.27","21.97","29.9001","4.73305","58.1","0","SATNPRO1509","30.898","0.43276","5"],
    [49468,"HCEP03730542","2025-02-24 14:30:00","9.4903","3.26237","26.991","5.438","7.65","0.631","3.932","0.14","0.28","29.876","4.7294","57.66","0","SATNPRO1509","30.791999999999998","0.43128","5"],
    [49469,"HCEP03730542","2025-02-24 14:45:00","9.4965","3.26169","26.978","5.377","7.65","0.624","4.768","0.12","0.65","29.864","4.72757","57.02","0","SATNPRO1509","30.694","0.42996","5"],
    [49470,"HCEP03730542","2025-02-24 15:00:00","9.5065","3.25986","26.826","5.308","7.64","0.65","3.721","0.2","0.4","29.8372","4.72354","56.29","0","SATNPRO1509","30.608","0.42866","5"],
    [49471,"HCEP03730542","2025-02-24 15:15:00","9.5131","3.25881","26.726","5.26","7.64","0.584","3.442","0.12","0.12","29.8211","4.72112","55.79","0","SATNPRO1509","30.502","0.42722","5"],
    [49472,"HCEP03730542","2025-02-24 15:30:00","9.5186","3.25803","26.66","5.209","7.64","0.522","2.864","0.1","0.74","29.8087","4.71924","55.25","0","SATNPRO1509","30.414","0.42602","5"],
    [49473,"HCEP03730542","2025-02-24 15:45:00","9.515","3.25787","26.562","5.185","7.63","0.8","51.959","0.18","26.97","29.81","4.71949","54.99","0","SATNPRO1509","30.382","0.42556","5"],
    [49474,"HCEP03730542","2025-02-24 16:00:00","9.5136","3.25802","26.443","5.16","7.63","0.865","30.777","0.26","20.29","29.8128","4.7199","54.72","0","SATNPRO1509","30.292","0.4243","5"],
    [49475,"HCEP03730542","2025-02-24 16:15:00","9.5171","3.25788","26.277","5.159","7.63","1.572","39.756","1.33","38.65","29.8085","4.71922","54.71","0","SATNPRO1509","30.47","0.42676","5"],
    [49476,"HCEP03730542","2025-02-24 16:30:00","9.5142","3.25832","26.125","5.178","7.63","0.596","2.751","0.18","0.27","29.8155","4.72027","54.91","0","SATNPRO1509","30.502","0.42726","5"],
    [49477,"HCEP03730542","2025-02-24 16:45:00","9.5048","3.26035","25.966","5.177","7.63","0.646","3.315","0.15","0.19","29.8439","4.72449","54.9","0","SATNPRO1509","30.374000000000002","0.42546","5"],
    [49478,"HCEP03730542","2025-02-24 17:00:00","9.5042","3.26009","25.711","5.184","7.63","0.619","3.44","0.15","0.44","29.8419","4.72419","54.97","0","SATNPRO1509","30.438","0.42632","5"],
    [49479,"HCEP03730542","2025-02-24 17:15:00","9.504","3.26076","25.568","5.199","7.64","0.598","3.26","0.16","0.46","29.8488","4.72518","55.13","0","SATNPRO1509","30.592","0.42848","5"],
    [49480,"HCEP03730542","2025-02-24 17:30:00","9.5002","3.26143","25.427","5.233","7.64","0.623","3.113","0.15","0.14","29.859","4.72669","55.49","0","SATNPRO1509","30.654","0.42942","5"],
    [49481,"HCEP03730542","2025-02-24 17:45:00","9.4984","3.26226","25.248","5.278","7.64","0.532","3.135","0.17","0.22","29.8688","4.72812","55.97","0","SATNPRO1509","30.766","0.43096","5"],
    [49482,"HCEP03730542","2025-02-24 18:00:00","9.4931","3.26327","25.057","5.308","7.64","0.569","3.707","0.17","0.23","29.8836","4.73033","56.29","0","SATNPRO1509","30.914","0.43302","5"],
    [49483,"HCEP03730542","2025-02-24 18:15:00","9.4926","3.26353","24.937","5.324","7.64","0.535","4.186","0.08","0.68","29.8867","4.73076","56.46","0","SATNPRO1509","30.632","0.42906","5"],
    [49484,"HCEP03730542","2025-02-24 18:30:00","9.4927","3.26378","24.738","5.327","7.64","0.539","4.428","0.1","0.72","29.8892","4.73111","56.49","0","SATNPRO1509","30.802","0.4314","5"],
    [49485,"HCEP03730542","2025-02-24 18:45:00","9.4932","3.26371","24.628","5.312","7.64","0.577","3.903","0.14","0.31","29.8882","4.73095","56.33","0","SATNPRO1509","30.748","0.4307","5"],
    [49486,"HCEP03730542","2025-02-24 19:00:00","9.4926","3.26373","24.531","5.339","7.64","0.545","3.862","0.09","0.29","29.8889","4.73106","56.62","0","SATNPRO1509","30.858","0.43222","5"],
    [49487,"HCEP03730542","2025-02-24 19:15:00","9.4916","3.26417","24.461","5.353","7.65","0.54","4.742","0.07","0.52","29.8943","4.73184","56.77","0","SATNPRO1509","30.758","0.4308","5"],
    [49488,"HCEP03730542","2025-02-24 19:30:00","9.4909","3.26452","24.383","5.356","7.65","0.554","4.804","0.07","0.36","29.8984","4.73244","56.8","0","SATNPRO1509","30.746000000000002","0.43066","5"],
    [49489,"HCEP03730542","2025-02-24 19:45:00","9.4929","3.26473","24.32","5.342","7.64","0.558","4.73","0.08","0.38","29.8989","4.73247","56.65","0","SATNPRO1509","30.666","0.42954","5"],
    [49490,"HCEP03730542","2025-02-24 20:00:00","9.4993","3.26477","24.297","5.314","7.64","0.647","5.063","0.11","0.22","29.894","4.73165","56.37","0","SATNPRO1509","30.496000000000002","0.42714","5"],
    [49491,"HCEP03730542","2025-02-24 20:15:00","9.4968","3.26488","24.262","5.265","7.64","0.57","4.529","0.08","0.64","29.8972","4.73215","55.84","0","SATNPRO1509","30.74","0.43054","5"],
    [49492,"HCEP03730542","2025-02-24 20:30:00","9.4935","3.26523","24.249","5.287","7.64","0.604","4.551","0.11","0.42","29.9035","4.73312","56.08","0","SATNPRO1509","30.62","0.42888","5"],
    [49493,"HCEP03730542","2025-02-24 20:45:00","9.4909","3.26549","24.364","5.3","7.64","0.597","4.796","0.1","0.18","29.9082","4.73384","56.21","0","SATNPRO1509","30.682","0.42978","5"],
    [49494,"HCEP03730542","2025-02-24 21:00:00","9.4892","3.26564","24.391","5.311","7.64","0.571","5.547","0.06","2.17","29.9112","4.7343","56.32","0","SATNPRO1509","30.71","0.4301","5"],
    [49495,"HCEP03730542","2025-02-24 21:15:00","9.4893","3.26566","24.451","5.31","7.64","0.638","5.422","0.1","0.88","29.9113","4.73431","56.32","0","SATNPRO1509","30.724","0.43036","5"],
    [49496,"HCEP03730542","2025-02-24 21:30:00","9.487","3.26572","24.487","5.31","7.64","0.654","4.879","0.11","0.29","29.9138","4.73471","56.32","0","SATNPRO1509","30.648","0.42926","5"],
    [49497,"HCEP03730542","2025-02-24 21:45:00","9.4865","3.26579","24.532","5.318","7.64","0.645","5.194","0.1","0.56","29.9148","4.73487","56.4","0","SATNPRO1509","30.776","0.43112","5"],
    [49498,"HCEP03730542","2025-02-24 22:00:00","9.4885","3.2657","24.708","5.319","7.64","0.644","4.699","0.1","0.17","29.9122","4.73448","56.42","0","SATNPRO1509","30.704","0.43006","5"],
    [49499,"HCEP03730542","2025-02-24 22:15:00","9.4898","3.26571","24.855","5.306","7.64","0.649","4.636","0.14","0.38","29.9112","4.73432","56.28","0","SATNPRO1509","30.518","0.42744","5"],
    [49500,"HCEP03730542","2025-02-24 22:30:00","9.4901","3.26577","25.02","5.295","7.64","0.627","4.775","0.13","0.11","29.9115","4.73436","56.16","0","SATNPRO1509","30.62","0.42888","5"],
    [49501,"HCEP03730542","2025-02-24 22:45:00","9.493","3.26561","25.107","5.277","7.64","0.604","4.568","0.08","0.13","29.9074","4.73373","55.97","0","SATNPRO1509","30.42","0.42606","5"],
    [49502,"HCEP03730542","2025-02-24 23:00:00","9.4997","3.26517","25.257","5.24","7.64","0.625","4.586","0.09","0.2","29.8973","4.73217","55.58","0","SATNPRO1509","30.348000000000003","0.4251","5"],
    [49503,"HCEP03730542","2025-02-24 23:15:00","9.5133","3.26346","25.407","5.16","7.63","0.632","4.282","0.08","0.13","29.8686","4.72783","54.74","0","SATNPRO1509","30.026","0.42056","5"],
    [49504,"HCEP03730542","2025-02-24 23:30:00","9.5117","3.26404","25.609","5.048","7.62","0.62","4.744","0.08","0.38","29.8757","4.72889","53.55","0","SATNPRO1509","30.052","0.42094","5"],
    [49505,"HCEP03730542","2025-02-24 23:45:00","9.5332","3.25797","25.773","5.002","7.61","0.61","4.152","0.09","1.25","29.7963","4.71716","53.06","0","SATNPRO1509","29.572","0.4142","5"],
    [49506,"HCEP03730542","2025-02-25 00:00:00","9.5472","3.26162","26.014","4.774","7.6","0.567","3.6","0.06","0.12","29.8214","4.72052","50.67","0","SATNPRO1509","29.692","0.41586","5"],
    [49507,"HCEP03730542","2025-02-25 00:15:00","9.5268","3.26424","26.135","4.804","7.61","0.567","3.807","0.08","0.16","29.8649","4.7271","50.97","0","SATNPRO1509","30.184","0.42278","5"],
    [49508,"HCEP03730542","2025-02-25 00:30:00","9.5169","3.26395","26.356","4.96","7.62","0.597","4.295","0.07","0.11","29.8701","4.72804","52.63","0","SATNPRO1509","30.308","0.4245","5"],
    [49509,"HCEP03730542","2025-02-25 00:45:00","9.504","3.26243","26.481","5.018","7.62","0.557","4.391","0.05","0.22","29.8654","4.72761","53.22","0","SATNPRO1509","30.34","0.42496","5"],
    [49510,"HCEP03730542","2025-02-25 01:00:00","9.4968","3.26583","26.779","5.084","7.63","0.649","11.858","0.22","10.94","29.9057","4.73352","53.93","0","SATNPRO1509","30.382","0.4256","5"],
    [49511,"HCEP03730542","2025-02-25 01:15:00","9.5013","3.26545","26.904","5.149","7.63","2.334","67.532","1.5","25.34","29.8982","4.73237","54.62","0","SATNPRO1509","30.296","0.42434","5"],
    [49512,"HCEP03730542","2025-02-25 01:30:00","9.5097","3.26424","27.087","5.122","7.62","0.611","5.301","0.08","1.17","29.8787","4.72944","54.33","0","SATNPRO1509","30.18","0.42274","5"],
    [49513,"HCEP03730542","2025-02-25 01:45:00","9.5144","3.26352","27.247","5.047","7.62","0.596","4.975","0.06","0.91","29.8676","4.72777","53.54","0","SATNPRO1509","30.104","0.42166","5"],
    [49514,"HCEP03730542","2025-02-25 02:00:00","9.5216","3.26236","27.369","4.971","7.62","0.605","5.511","0.11","1.18","29.8497","4.72509","52.74","0","SATNPRO1509","29.922","0.41914","5"],
    [49515,"HCEP03730542","2025-02-25 02:15:00","9.5276","3.26159","27.472","4.92","7.61","0.657","4.702","0.12","0.5","29.8368","4.72315","52.21","0","SATNPRO1509","29.9","0.41878","5"],
    [49516,"HCEP03730542","2025-02-25 02:30:00","9.5244","3.26168","27.685","4.894","7.61","0.581","4.887","0.07","1.09","29.8404","4.72373","51.93","0","SATNPRO1509","29.694","0.41592","5"],
    [49517,"HCEP03730542","2025-02-25 02:45:00","9.5199","3.26183","27.796","4.878","7.61","0.645","6.053","0.13","2.9","29.8456","4.72457","51.74","0","SATNPRO1509","29.864","0.41826","5"],
    [49518,"HCEP03730542","2025-02-25 03:00:00","9.5134","3.26304","27.929","4.915","7.61","0.586","5.773","0.08","1.74","29.8632","4.72721","52.14","0","SATNPRO1509","29.922","0.41912","5"],
    [49519,"HCEP03730542","2025-02-25 03:15:00","9.5197","3.26187","28.007","4.932","7.61","0.632","4.934","0.11","0.46","29.8461","4.72466","52.32","0","SATNPRO1509","29.792","0.41732","5"],
    [49520,"HCEP03730542","2025-02-25 03:30:00","9.514","3.26318","27.926","4.927","7.61","0.539","5.372","0.06","1.29","29.8642","4.72734","52.26","0","SATNPRO1509","30.042","0.42078","5"],
    [49521,"HCEP03730542","2025-02-25 03:45:00","9.5095","3.26385","27.969","4.963","7.62","0.536","5.981","0.07","2.12","29.8746","4.72891","52.65","0","SATNPRO1509","30.118","0.42188","5"],
    [49522,"HCEP03730542","2025-02-25 04:00:00","9.5153","3.26328","27.982","4.999","7.62","0.558","4.107","0.12","0.31","29.8641","4.7273","53.03","0","SATNPRO1509","30.07","0.42118","5"],
    [49523,"HCEP03730542","2025-02-25 04:15:00","9.5123","3.26409","27.992","4.982","7.62","0.509","4.791","0.06","0.41","29.8748","4.72889","52.86","0","SATNPRO1509","30.198","0.42296","5"],
    [49524,"HCEP03730542","2025-02-25 04:30:00","9.512","3.26498","27.952","4.996","7.62","0.598","18.329","0.14","24.82","29.8841","4.73021","53.01","0","SATNPRO1509","30.264","0.42392","5"],
    [49525,"HCEP03730542","2025-02-25 04:45:00","9.5144","3.26489","28.016","4.992","7.62","7.779","341.781","4.7","156.04","29.8811","4.72975","52.97","0","SATNPRO1509","30.168","0.42254","5"],
    [49526,"HCEP03730542","2025-02-25 05:00:00","9.5172","3.26345","27.995","4.979","7.62","0.566","4.549","0.1","1.95","29.8642","4.72728","52.82","0","SATNPRO1509","30.242","0.42358","5"],
    [49527,"HCEP03730542","2025-02-25 05:15:00","9.5134","3.26463","27.891","4.955","7.62","0.607","4.664","0.09","1.5","29.8793","4.72951","52.57","0","SATNPRO1509","30.183999999999997","0.4228","5"],
    [49528,"HCEP03730542","2025-02-25 05:30:00","9.5177","3.25728","27.87","4.959","7.61","0.574","4.404","0.08","1.38","29.8014","4.71829","52.59","0","SATNPRO1509","29.282","0.41016","5"],
    [49529,"HCEP03730542","2025-02-25 05:45:00","9.513","3.26424","27.841","4.85","7.61","0.565","3.654","0.12","0.47","29.8758","4.72901","51.45","0","SATNPRO1509","30.084","0.42138","5"],
    [49530,"HCEP03730542","2025-02-25 06:00:00","9.5147","3.25697","27.897","4.941","7.61","0.669","4.456","0.18","0.64","29.8006","4.71823","52.39","0","SATNPRO1509","27.994","0.3921","5"],
    [49531,"HCEP03730542","2025-02-25 06:15:00","9.4731","3.23801","27.805","4.76","7.59","0.637","4.545","0.16","0.82","29.6431","4.69644","50.38","0","SATNPRO1509","27.562","0.38604","5"],
    [49532,"HCEP03730542","2025-02-25 06:30:00","9.4193","3.22647","27.687","4.565","7.59","0.663","4.14","0.12","0.41","29.5705","4.687","48.24","0","SATNPRO1509","26.394","0.36966","5"],
    [49533,"HCEP03730542","2025-02-25 06:45:00","9.3058","3.18809","27.619","4.623","7.62","0.81","3.887","0.19","0.23","29.2741","4.64657","48.62","0","SATNPRO1509","23.904","0.33482","5"],
    [49534,"HCEP03730542","2025-02-25 07:00:00","9.1224","3.15868","27.547","5.063","7.67","1.002","2.487","0.28","0.27","29.1247","4.62845","53","0","SATNPRO1509","23.272","0.32594","5"],
    [49535,"HCEP03730542","2025-02-25 07:15:00","9.075","3.14882","27.419","5.545","7.7","1.023","2.489","0.26","0.13","29.0628","4.62041","57.96","0","SATNPRO1509","22.3","0.31236","5"],
    [49536,"HCEP03730542","2025-02-25 07:30:00","9.0661","3.1466","27.284","5.777","7.71","1.065","2.607","0.3","0.51","29.0475","4.61837","60.36","0","SATNPRO1509","22.372","0.31336","5"],
    [49537,"HCEP03730542","2025-02-25 07:45:00","8.9744","3.12824","27.135","5.934","7.74","1.081","2.176","0.38","0.15","28.9346","4.60382","61.82","0","SATNPRO1509","21.534","0.30166","5"],
    [49538,"HCEP03730542","2025-02-25 08:00:00","8.9149","3.11741","27.066","6.252","7.77","2.579","36.881","1.48","28","28.8722","4.59593","65.03","0","SATNPRO1509","20.832","0.29178","5"],
    [49539,"HCEP03730542","2025-02-25 08:15:00","8.8026","3.09374","27.057","6.521","7.81","1.156","2.563","0.38","0.84","28.7207","4.57619","67.59","0","SATNPRO1509","19.04","0.26664","5"],
    [49540,"HCEP03730542","2025-02-25 08:30:00","8.8015","3.09617","27.056","6.855","7.82","1.224","2.434","0.34","0.27","28.7465","4.57994","71.07","0","SATNPRO1509","19.004","0.2662","5"],
    [49541,"HCEP03730542","2025-02-25 08:45:00","9.3947","3.2369","26.955","5.865","7.69","0.734","7.578","0.15","1.02","29.697","4.70552","61.97","0","SATNPRO1509","27.04","0.37872","5"],
    [49542,"HCEP03730542","2025-02-25 09:00:00","9.4909","3.25525","26.955","4.883","7.63","0.595","5.416","0.11","0.68","29.8034","4.719","51.76","0","SATNPRO1509","28.648","0.40126","5"],
    [49543,"HCEP03730542","2025-02-25 09:15:00","9.5283","3.25737","26.943","4.717","7.61","0.495","4.342","0.06","0.15","29.7937","4.71695","50.03","0","SATNPRO1509","29.106","0.40766","5"],
    [49544,"HCEP03730542","2025-02-25 09:30:00","9.5418","3.25659","26.915","4.551","7.59","0.535","4.045","0.07","0.15","29.7747","4.71399","48.28","0","SATNPRO1509","28.848","0.40408","5"],
    [49545,"HCEP03730542","2025-02-25 09:45:00","9.4143","3.23208","26.875","4.54","7.61","0.615","3.657","0.08","0.1","29.6319","4.69584","47.99","0","SATNPRO1509","26.964","0.37764","5"],
    [49546,"HCEP03730542","2025-02-25 10:00:00","9.4461","3.24012","26.927","4.701","7.61","0.548","3.798","0.09","0.09","29.6871","4.70318","49.75","0","SATNPRO1509","27.706","0.38806","5"],
    [49547,"HCEP03730542","2025-02-25 10:15:00","9.4733","3.24178","26.916","4.658","7.6","0.661","4.156","0.24","0.31","29.6814","4.70187","49.31","0","SATNPRO1509","28.477999999999998","0.3989","5"],
    [49548,"HCEP03730542","2025-02-25 10:30:00","9.5288","3.25263","26.968","4.536","7.58","0.607","3.653","0.16","0.27","29.7454","4.71002","48.1","0","SATNPRO1509","28.636","0.4011","5"],
    [49549,"HCEP03730542","2025-02-25 10:45:00","9.3814","3.22146","27.016","4.552","7.61","0.623","3.823","0.13","0.1","29.5511","4.68488","48.06","0","SATNPRO1509","27.134","0.3801","5"],
    [49550,"HCEP03730542","2025-02-25 11:00:00","9.3354","3.214","26.985","4.862","7.63","0.588","3.605","0.09","0.12","29.5134","4.6803","51.27","0","SATNPRO1509","26.866","0.37632","5"],
    [49551,"HCEP03730542","2025-02-25 11:15:00","9.1151","3.15681","27.009","5.186","7.68","0.843","2.674","0.15","0.37","29.1118","4.6267","54.26","0","SATNPRO1509","23.32","0.32664","5"],
    [49552,"HCEP03730542","2025-02-25 11:30:00","8.9981","3.1341","27","5.964","7.74","0.97","2.533","0.16","0.13","28.9753","4.60922","62.19","0","SATNPRO1509","21.662","0.30344","5"],
    [49553,"HCEP03730542","2025-02-25 11:45:00","8.9185","3.11964","27.076","6.387","7.78","0.95","1.776","0.19","0.08","28.892","4.59872","66.45","0","SATNPRO1509","21.152","0.2963","5"],
    [49554,"HCEP03730542","2025-02-25 12:00:00","8.8943","3.11544","27.071","6.709","7.81","0.939","2.31","0.21","0.16","28.8688","4.59582","69.75","0","SATNPRO1509","21.066","0.29502","5"],
    [49555,"HCEP03730542","2025-02-25 12:15:00","8.9053","3.1173","27.141","6.868","7.81","1.096","3.654","0.28","1.03","28.8788","4.59706","71.42","0","SATNPRO1509","20.902","0.29278","5"],
    [49556,"HCEP03730542","2025-02-25 12:30:00","8.8524","3.10792","27.209","6.923","7.83","0.989","2.169","0.18","0.11","28.8256","4.59039","71.88","0","SATNPRO1509","20.594","0.28848","5"],
    [49557,"HCEP03730542","2025-02-25 12:45:00","8.8487","3.10705","27.169","7.132","7.84","0.978","2.878","0.19","0.19","28.8198","4.58962","74.05","0","SATNPRO1509","20.344","0.28494","5"],
    [49558,"HCEP03730542","2025-02-25 13:00:00","8.8677","3.11022","27.216","7.129","7.84","0.939","3.343","0.18","0.14","28.8368","4.59173","74.05","0","SATNPRO1509","20.68","0.28964","5"],
    [49559,"HCEP03730542","2025-02-25 13:15:00","8.8794","3.11266","27.265","7.065","7.83","0.929","3.334","0.18","0.14","28.8523","4.59374","73.41","0","SATNPRO1509","20.872","0.29236","5"],
    [49560,"HCEP03730542","2025-02-25 13:30:00","8.8853","3.11353","27.275","7.029","7.83","0.943","3.554","0.18","0.26","28.8564","4.59422","73.05","0","SATNPRO1509","20.53","0.28754","5"],
    [49561,"HCEP03730542","2025-02-25 13:45:00","8.8885","3.11428","27.267","7.001","7.83","0.899","3.184","0.21","0.13","28.8615","4.59489","72.77","0","SATNPRO1509","20.868","0.29226","5"],
    [49562,"HCEP03730542","2025-02-25 14:00:00","8.9489","3.12689","27.303","6.958","7.82","1.024","4.36","0.25","0.27","28.9416","4.6053","72.46","0","SATNPRO1509","21.663999999999998","0.30346","5"],
    [49563,"HCEP03730542","2025-02-25 14:15:00","9.1226","3.16434","27.314","6.441","7.76","0.849","5.026","0.22","0.23","29.1824","4.63672","67.44","0","SATNPRO1509","23.672","0.33154","5"],
    [49564,"HCEP03730542","2025-02-25 14:30:00","9.1414","3.16715","27.283","5.981","7.73","0.765","4.843","0.19","0.24","29.1956","4.63828","62.66","0","SATNPRO1509","24.03","0.33664","5"],
    [49565,"HCEP03730542","2025-02-25 14:45:00","9.2692","3.19725","27.284","5.646","7.69","0.766","4.82","0.19","0.2","29.3974","4.6649","59.39","0","SATNPRO1509","25.506","0.35726","5"],
    [49566,"HCEP03730542","2025-02-25 15:00:00","9.2298","3.18756","27.267","5.454","7.69","0.754","4.067","0.19","0.19","29.3312","4.65612","57.3","0","SATNPRO1509","25.098","0.35154","5"],
    [49567,"HCEP03730542","2025-02-25 15:15:00","9.1827","3.17682","27.223","5.542","7.7","0.722","3.234","0.19","0.16","29.2605","4.64682","58.14","0","SATNPRO1509","24.78","0.34708","5"],
    [49568,"HCEP03730542","2025-02-25 15:30:00","9.1125","3.16213","27.15","5.792","7.73","0.769","2.448","0.21","0.21","29.1682","4.63485","60.63","0","SATNPRO1509","24.132","0.338","5"],
    [49569,"HCEP03730542","2025-02-25 15:45:00","9.0768","3.15427","27.075","6.115","7.74","0.673","2.441","0.19","0.24","29.1172","4.62819","63.94","0","SATNPRO1509","23.5","0.32914","5"],
    [49570,"HCEP03730542","2025-02-25 16:00:00","9.0277","3.14305","27.005","6.268","7.76","0.798","2.953","0.21","0.54","29.0427","4.61837","65.43","0","SATNPRO1509","22.77","0.31894","5"],
    [49571,"HCEP03730542","2025-02-25 16:15:00","8.9692","3.13162","26.886","6.452","7.78","0.762","2.441","0.2","0.18","28.9736","4.6095","67.24","0","SATNPRO1509","22.152","0.31026","5"],
    [49572,"HCEP03730542","2025-02-25 16:30:00","8.9621","3.13043","26.752","6.65","7.79","0.755","2.525","0.2","0.42","28.9672","4.60872","69.29","0","SATNPRO1509","22.078","0.3092","5"],
    [49573,"HCEP03730542","2025-02-25 16:45:00","8.9792","3.13358","26.607","6.661","7.79","0.917","3.762","0.23","0.23","28.9856","4.61103","69.43","0","SATNPRO1509","22.026","0.30854","5"],
    [49574,"HCEP03730542","2025-02-25 17:00:00","8.9539","3.12943","26.477","6.654","7.8","0.874","3.526","0.19","0.34","28.9637","4.60835","69.32","0","SATNPRO1509","21.866","0.30626","5"],
    [49575,"HCEP03730542","2025-02-25 17:15:00","8.9334","3.12426","26.291","6.767","7.81","0.914","3.514","0.2","0.52","28.9275","4.60351","70.43","0","SATNPRO1509","21.59","0.3024","5"],
    [49576,"HCEP03730542","2025-02-25 17:30:00","8.9202","3.12207","26.092","6.813","7.81","0.933","3.257","0.2","0.46","28.916","4.60207","70.89","0","SATNPRO1509","21.442","0.30036","5"],
    [49577,"HCEP03730542","2025-02-25 17:45:00","8.9254","3.12325","25.904","6.809","7.81","0.914","3.632","0.19","0.26","28.9239","4.60311","70.86","0","SATNPRO1509","21.37","0.29932","5"],
    [49578,"HCEP03730542","2025-02-25 18:00:00","8.8933","3.11685","25.717","6.841","7.82","0.699","1.947","0.13","0.34","28.8846","4.59803","71.13","0","SATNPRO1509","20.92","0.293","5"],
    [49579,"HCEP03730542","2025-02-25 18:15:00","8.8694","3.11195","25.524","6.965","7.83","0.759","2.611","0.13","0.29","28.8538","4.59403","72.37","0","SATNPRO1509","20.832","0.2918","5"],
    [49580,"HCEP03730542","2025-02-25 18:30:00","9.1233","3.1656","25.333","6.319","7.76","0.992","6.744","0.2","0.6","29.1955","4.63847","66.18","0","SATNPRO1509","23.174","0.32462","5"],
    [49581,"HCEP03730542","2025-02-25 18:45:00","9.4745","3.24953","25.127","5.403","7.65","0.903","8.68","0.17","0.36","29.7598","4.71295","57.22","0","SATNPRO1509","27.632","0.38704","5"],
    [49582,"HCEP03730542","2025-02-25 19:00:00","9.5079","3.25575","24.943","4.604","7.61","0.7","7.145","0.1","0.84","29.7951","4.7174","48.82","0","SATNPRO1509","28.18","0.39466","5"],
    [49583,"HCEP03730542","2025-02-25 19:15:00","9.502","3.2527","24.764","4.405","7.59","0.665","6.557","0.15","0.36","29.7692","4.71379","46.69","0","SATNPRO1509","25.628","0.35894","5"],
    [49584,"HCEP03730542","2025-02-25 19:30:00","9.4866","3.25165","24.603","4.388","7.59","0.643","6.493","0.14","0.51","29.7714","4.71437","46.5","0","SATNPRO1509","26.324","0.36868","5"],
    [49585,"HCEP03730542","2025-02-25 19:45:00","9.4261","3.23088","24.459","4.423","7.6","0.712","6.247","0.16","0.69","29.611","4.6925","46.76","0","SATNPRO1509","24.938","0.34932","5"],
    [49586,"HCEP03730542","2025-02-25 20:00:00","9.2032","3.18035","24.329","4.697","7.65","0.723","5.344","0.26","1.24","29.2808","4.6492","49.32","0","SATNPRO1509","23.836","0.3339","5"],
    [49587,"HCEP03730542","2025-02-25 20:15:00","9.2204","3.18199","24.24","5.147","7.66","0.784","3.929","0.25","0.79","29.2834","4.64925","54.05","0","SATNPRO1509","24.224","0.33932","5"],
    [49588,"HCEP03730542","2025-02-25 20:30:00","9.1984","3.17949","24.146","5.33","7.67","1.146","3.545","0.39","0.44","29.276","4.64859","55.96","0","SATNPRO1509","23.966","0.33572","5"],
    [49589,"HCEP03730542","2025-02-25 20:45:00","9.1732","3.17223","24.086","5.484","7.68","0.861","2.971","0.25","0.41","29.2228","4.64141","57.5","0","SATNPRO1509","23.698","0.33194","5"],
    [49590,"HCEP03730542","2025-02-25 21:00:00","9.1447","3.16723","23.973","5.63","7.7","0.876","3.116","0.47","0.78","29.1951","4.63794","58.99","0","SATNPRO1509","23.788","0.33316","5"],
    [49591,"HCEP03730542","2025-02-25 21:15:00","9.1479","3.1669","23.97","5.752","7.7","0.708","2.674","0.4","0.22","29.1892","4.63703","60.26","0","SATNPRO1509","24.026","0.3365","5"],
    [49592,"HCEP03730542","2025-02-25 21:30:00","9.169","3.17362","24.012","5.769","7.7","0.659","2.932","0.26","0.65","29.2404","4.64401","60.5","0","SATNPRO1509","23.714","0.33216","5"],
    [49593,"HCEP03730542","2025-02-25 21:45:00","9.0309","3.14233","24.063","5.757","7.73","0.707","2.442","0.23","0.16","29.0339","4.61688","60.1","0","SATNPRO1509","22.862000000000002","0.32022","5"],
    [49594,"HCEP03730542","2025-02-25 22:00:00","8.9499","3.12739","24.258","6.171","7.77","0.666","2.024","0.23","0.21","28.9471","4.60589","64.29","0","SATNPRO1509","21.494","0.30106","5"],
    [49595,"HCEP03730542","2025-02-25 22:15:00","8.6887","3.07101","24.376","6.708","7.86","0.995","2.011","0.34","0.39","28.5803","4.55793","69.31","0","SATNPRO1509","19.291999999999998","0.27024","5"],
    [49596,"HCEP03730542","2025-02-25 22:30:00","8.9139","3.12147","24.53","7.304","7.83","0.736","1.95","0.3","0.38","28.9156","4.60205","76.01","0","SATNPRO1509","22.336","0.31284","5"],
    [49597,"HCEP03730542","2025-02-25 22:45:00","9.1065","3.1532","24.691","6.806","7.76","0.694","2.549","0.21","0.3","29.083","4.62258","71.15","0","SATNPRO1509","23.682","0.33172","5"],
    [49598,"HCEP03730542","2025-02-25 23:00:00","9.0482","3.14754","24.788","6.198","7.76","0.709","2.065","0.27","0.6","29.0727","4.62218","64.74","0","SATNPRO1509","23.09","0.32342","5"],
    [49599,"HCEP03730542","2025-02-25 23:15:00","8.8466","3.10636","24.955","6.446","7.82","0.516","1.337","0.16","0.15","28.8153","4.58888","66.93","0","SATNPRO1509","20.622","0.28884","5"],
    [49600,"HCEP03730542","2025-02-25 23:30:00","8.9043","3.11736","25.112","6.996","7.83","0.516","1.313","0.21","0.18","28.8811","4.59729","72.75","0","SATNPRO1509","20.924","0.29312","5"],
    [49601,"HCEP03730542","2025-02-25 23:45:00","8.7677","3.09032","25.3","7.134","7.86","0.826","1.161","0.25","0.13","28.7144","4.57584","73.89","0","SATNPRO1509","19.478","0.2728","5"],
    [49602,"HCEP03730542","2025-02-26 00:00:00","8.7306","3.08223","25.487","7.425","7.88","0.833","1.359","0.24","0.18","28.6614","4.5689","76.82","0","SATNPRO1509","19.084","0.26732","5"],
    [49603,"HCEP03730542","2025-02-26 00:15:00","8.7227","3.07873","25.658","7.586","7.89","0.774","1.396","0.23","0.16","28.6316","4.56476","78.45","0","SATNPRO1509","19.276","0.27","5"],
    [49604,"HCEP03730542","2025-02-26 00:30:00","8.815","3.09846","25.868","7.561","7.87","0.599","1.64","0.13","0.09","28.7595","4.58149","78.4","0","SATNPRO1509","19.68","0.27562","5"],
    [49605,"HCEP03730542","2025-02-26 00:45:00","8.7192","3.07846","26.038","7.379","7.89","0.876","1.312","0.28","0.54","28.6316","4.56485","76.3","0","SATNPRO1509","18.652","0.26124","5"],
    [49606,"HCEP03730542","2025-02-26 01:00:00","8.6486","3.06143","26.237","7.728","7.92","1.038","2.225","0.32","1.03","28.5133","4.54912","79.72","0","SATNPRO1509","17.7","0.24792","5"],
    [49607,"HCEP03730542","2025-02-26 01:15:00","8.6351","3.05853","26.454","7.999","7.93","1.1","2.036","0.64","1.62","28.4943","4.54664","82.48","0","SATNPRO1509","17.618","0.24676","5"],
    [49608,"HCEP03730542","2025-02-26 01:30:00","8.6327","3.0571","26.684","8.065","7.94","0.936","2.237","0.26","0.53","28.4814","4.54484","83.15","0","SATNPRO1509","17.34","0.24286","5"],
    [49609,"HCEP03730542","2025-02-26 01:45:00","8.8855","3.11062","26.909","7.792","7.86","0.829","2.58","0.23","0.28","28.8266","4.5899","80.98","0","SATNPRO1509","20.54","0.28768","5"],
    [49610,"HCEP03730542","2025-02-26 02:00:00","8.8248","3.09908","27.069","7.073","7.86","0.909","1.829","0.71","0.2","28.7575","4.58108","73.37","0","SATNPRO1509","19.567999999999998","0.27408","5"],
    [49611,"HCEP03730542","2025-02-26 02:15:00","8.8679","3.10666","27.254","7.045","7.84","1.179","4.5","0.86","1.53","28.8001","4.58644","73.17","0","SATNPRO1509","20.142","0.28212","5"],
    [49612,"HCEP03730542","2025-02-26 02:30:00","9.1552","3.16616","27.358","6.698","7.75","0.818","6.087","0.13","0.92","29.1743","4.63496","70.18","0","SATNPRO1509","22.666","0.31748","5"],
    [49613,"HCEP03730542","2025-02-26 02:45:00","9.1427","3.16296","27.483","5.773","7.71","0.714","5.013","0.16","0.82","29.1519","4.63198","60.46","0","SATNPRO1509","21.874","0.30636","5"],
    [49614,"HCEP03730542","2025-02-26 03:00:00","8.9817","3.12875","27.601","5.732","7.75","0.689","2.652","0.15","0.25","28.9338","4.60359","59.74","0","SATNPRO1509","20.744","0.29054","5"],
    [49615,"HCEP03730542","2025-02-26 03:15:00","9.1047","3.15279","27.714","6.142","7.74","0.761","4.48","0.24","0.54","29.079","4.62222","64.23","0","SATNPRO1509","21.92","0.307","5"],
    [49616,"HCEP03730542","2025-02-26 03:30:00","9.2729","3.19332","27.765","5.692","7.67","0.612","4.494","0.11","0.22","29.3542","4.65866","59.86","0","SATNPRO1509","24.248","0.33966","5"],
    [49617,"HCEP03730542","2025-02-26 03:45:00","9.2083","3.17782","27.782","5.116","7.66","0.636","3.938","0.19","0.94","29.2494","4.6448","53.69","0","SATNPRO1509","23.134","0.32404","5"],
    [49618,"HCEP03730542","2025-02-26 04:00:00","9.0978","3.1561","27.864","5.238","7.69","0.71","3.004","0.27","0.23","29.1183","4.628","54.8","0","SATNPRO1509","22.846","0.31998","5"],
    [49619,"HCEP03730542","2025-02-26 04:15:00","8.9599","3.12618","27.86","5.622","7.74","0.616","2.992","0.17","0.2","28.9251","4.60275","58.56","0","SATNPRO1509","21.476","0.30082","5"],
    [49620,"HCEP03730542","2025-02-26 04:30:00","9.0117","3.13743","27.867","6.139","7.74","0.615","2.952","0.15","0.4","28.9979","4.61227","64.05","0","SATNPRO1509","21.308","0.29844","5"],
    [49621,"HCEP03730542","2025-02-26 04:45:00","8.9264","3.12058","27.893","6.173","7.77","0.712","2.734","0.18","0.18","28.895","4.59905","64.24","0","SATNPRO1509","20.29","0.2842","5"],
    [49622,"HCEP03730542","2025-02-26 05:00:00","8.6937","3.0718","27.907","6.576","7.85","0.825","2.076","0.25","0.51","28.5829","4.55841","67.94","0","SATNPRO1509","17.916","0.25094","5"],
    [49623,"HCEP03730542","2025-02-26 05:15:00","8.6602","3.0649","27.895","7.435","7.89","0.801","2.03","0.24","0.48","28.539","4.5527","76.73","0","SATNPRO1509","17.556","0.24592","5"],
    [49624,"HCEP03730542","2025-02-26 05:30:00","8.6261","3.05788","27.855","7.745","7.91","0.862","2.294","0.24","1.17","28.4943","4.54689","79.84","0","SATNPRO1509","17.330000000000002","0.24274","5"],
    [49625,"HCEP03730542","2025-02-26 05:45:00","8.6009","3.05155","27.776","7.909","7.92","0.994","1.485","0.33","0.97","28.4494","4.54088","81.46","0","SATNPRO1509","17.088","0.23936","5"],
    [49626,"HCEP03730542","2025-02-26 06:00:00","8.5995","3.0503","27.741","8.009","7.93","0.863","1.685","0.19","0.48","28.4377","4.53921","82.48","0","SATNPRO1509","17.254","0.24166","5"],
    [49627,"HCEP03730542","2025-02-26 06:15:00","8.607","3.05218","27.743","8.044","7.94","0.79","1.163","0.24","0.13","28.4509","4.54098","82.86","0","SATNPRO1509","17.032","0.23854","5"],
    [49628,"HCEP03730542","2025-02-26 06:30:00","8.7403","3.07891","27.629","7.924","7.9","0.79","5.035","0.22","0.5","28.6185","4.56266","81.95","0","SATNPRO1509","18.514","0.2593","5"],
    [49629,"HCEP03730542","2025-02-26 06:45:00","8.7207","3.07447","27.549","7.505","7.89","0.978","4.988","0.44","0.61","28.5887","4.55873","77.59","0","SATNPRO1509","17.306","0.24242","5"],
    [49630,"HCEP03730542","2025-02-26 07:00:00","8.5851","3.04684","27.477","7.588","7.93","1.049","1.602","0.33","0.37","28.4137","4.536","78.11","0","SATNPRO1509","17.028","0.23854","5"],
    [49631,"HCEP03730542","2025-02-26 07:15:00","8.5843","3.04652","27.363","8.045","7.95","0.94","1.303","0.33","0.2","28.411","4.53562","82.81","0","SATNPRO1509","16.844","0.2359","5"],
    [49632,"HCEP03730542","2025-02-26 07:30:00","8.7073","3.06936","27.278","8.014","7.91","0.98","4.831","0.51","0.38","28.5472","4.55296","82.79","0","SATNPRO1509","17.02","0.23842","5"],
    [49633,"HCEP03730542","2025-02-26 07:45:00","8.7336","3.0738","27.154","7.596","7.89","1.188","5.006","0.6","0.54","28.5716","4.55599","78.53","0","SATNPRO1509","17.53","0.24554","5"],
    [49634,"HCEP03730542","2025-02-26 08:00:00","8.7835","3.0919","27.051","7.393","7.87","1.633","10.222","1.25","8.96","28.7172","4.57605","76.61","0","SATNPRO1509","17.814","0.24954","5"],
    [49635,"HCEP03730542","2025-02-26 08:15:00","8.9744","3.12939","26.932","6.92","7.8","0.61","3.284","0.26","0.32","28.9465","4.60551","72.09","0","SATNPRO1509","21.052","0.29482","5"],
    [49636,"HCEP03730542","2025-02-26 08:30:00","8.9804","3.13026","26.801","6.404","7.78","0.523","1.831","0.27","0.22","28.9506","4.60598","66.74","0","SATNPRO1509","21.194","0.29686","5"],
    [49637,"HCEP03730542","2025-02-26 08:45:00","8.9781","3.12969","26.678","6.26","7.77","0.467","1.949","0.22","0.19","28.9466","4.60544","65.23","0","SATNPRO1509","21.47","0.3007","5"],
    [49638,"HCEP03730542","2025-02-26 09:00:00","8.9913","3.13147","26.579","6.186","7.76","0.616","2.843","0.36","3.35","28.9541","4.60628","64.49","0","SATNPRO1509","21.354","0.29912","5"],
    [49639,"HCEP03730542","2025-02-26 09:15:00","9.0217","3.13754","26.554","6.097","7.75","0.625","2.206","0.27","0.49","28.9914","4.61108","63.62","0","SATNPRO1509","21.7","0.30394","5"],
    [49640,"HCEP03730542","2025-02-26 09:30:00","9.034","3.14079","26.426","5.975","7.74","0.53","4.048","0.14","0.93","29.0147","4.61419","62.37","0","SATNPRO1509","21.818","0.3056","5"],
    [49641,"HCEP03730542","2025-02-26 09:45:00","9.1043","3.15668","26.358","5.815","7.7","0.939","7.523","0.24","1.22","29.1196","4.62798","60.84","0","SATNPRO1509","21.948","0.30738","5"],
    [49642,"HCEP03730542","2025-02-26 10:00:00","9.1962","3.17583","26.41","5.313","7.67","0.85","7.16","0.21","2.66","29.2396","4.64354","55.74","0","SATNPRO1509","22.94","0.32132","5"],
    [49643,"HCEP03730542","2025-02-26 10:15:00","9.2687","3.20723","26.463","5.04","7.66","1.441","10.881","0.23","0.7","29.4997","4.67953","53.05","0","SATNPRO1509","25.85","0.36206","5"],
    [49644,"HCEP03730542","2025-02-26 10:30:00","9.323","3.23013","26.406","5.39","7.67","1.2","6.991","0.22","0.37","29.6879","4.7055","56.87","0","SATNPRO1509","28.59","0.40042","5"],
    [49645,"HCEP03730542","2025-02-26 10:45:00","9.3306","3.23489","26.483","5.591","7.68","1.182","5.963","0.24","0.42","29.73","4.71138","59.02","0","SATNPRO1509","29.15","0.40832","5"],
    [49646,"HCEP03730542","2025-02-26 11:00:00","9.3354","3.23799","26.561","5.634","7.68","1.155","6.257","0.21","0.43","29.7575","4.71524","59.49","0","SATNPRO1509","29.24","0.40954","5"],
    [49647,"HCEP03730542","2025-02-26 11:15:00","9.3399","3.24052","26.608","5.67","7.68","1.082","6.179","0.18","0.38","29.7794","4.7183","59.88","0","SATNPRO1509","29.376","0.41144","5"],
    [49648,"HCEP03730542","2025-02-26 11:30:00","9.3451","3.24319","26.684","5.677","7.68","1.129","7.364","0.23","1.02","29.8022","4.72147","59.98","0","SATNPRO1509","29.64","0.41514","5"],
    [49649,"HCEP03730542","2025-02-26 11:45:00","9.3499","3.24599","26.785","5.676","7.67","0.845","5.751","0.13","0.34","29.8268","4.7249","59.99","0","SATNPRO1509","29.998","0.42016","5"],
    [49650,"HCEP03730542","2025-02-26 12:00:00","9.3534","3.24792","26.782","5.676","7.67","1.032","6.994","0.13","0.74","29.8434","4.72722","59.99","0","SATNPRO1509","30.104","0.42164","5"],
    [49651,"HCEP03730542","2025-02-26 12:15:00","9.3537","3.24867","26.847","5.662","7.67","0.96","6.018","0.13","1.81","29.8507","4.72826","59.85","0","SATNPRO1509","30.174","0.42264","5"],
    [49652,"HCEP03730542","2025-02-26 12:30:00","9.3536","3.24852","26.913","5.662","7.67","0.912","5.694","0.24","0.47","29.8492","4.72806","59.85","0","SATNPRO1509","30.25","0.42374","5"],
    [49653,"HCEP03730542","2025-02-26 12:45:00","9.3535","3.24926","26.86","5.651","7.67","0.845","5.021","0.15","0.46","29.8569","4.72915","59.74","0","SATNPRO1509","30.322","0.4247","5"],
    [49654,"HCEP03730542","2025-02-26 13:00:00","9.3553","3.25019","26.605","5.65","7.67","0.894","4.939","0.24","0.3","29.865","4.73027","59.73","0","SATNPRO1509","30.31","0.42456","5"],
    [49655,"HCEP03730542","2025-02-26 13:15:00","9.3575","3.25151","27.012","5.647","7.67","0.821","4.664","0.17","0.26","29.8764","4.73188","59.7","0","SATNPRO1509","30.494","0.42708","5"],
    [49656,"HCEP03730542","2025-02-26 13:30:00","9.362","3.25391","27.079","5.631","7.67","0.747","4.548","0.22","0.28","29.8971","4.73476","59.54","0","SATNPRO1509","30.65","0.4293","5"],
    [49657,"HCEP03730542","2025-02-26 13:45:00","9.3644","3.25596","27.124","5.614","7.67","0.792","4.938","0.26","0.48","29.9158","4.73739","59.38","0","SATNPRO1509","30.794","0.43134","5"],
    [49658,"HCEP03730542","2025-02-26 14:00:00","9.3627","3.25749","27.212","5.617","7.67","0.696","4.368","0.17","0.34","29.9328","4.73986","59.41","0","SATNPRO1509","31.082","0.43538","5"],
    [49659,"HCEP03730542","2025-02-26 14:15:00","9.3595","3.25803","27.256","5.64","7.67","0.69","4.683","0.2","0.55","29.941","4.74109","59.65","0","SATNPRO1509","31.182","0.43676","5"],
    [49660,"HCEP03730542","2025-02-26 14:30:00","9.3571","3.25877","27.259","5.66","7.67","0.672","4.281","0.15","0.29","29.9506","4.74251","59.87","0","SATNPRO1509","31.254","0.43776","5"],
    [49661,"HCEP03730542","2025-02-26 14:45:00","9.355","3.25873","27.293","5.672","7.67","0.625","4.25","0.22","0.29","29.9518","4.74273","60","0","SATNPRO1509","31.144","0.4362","5"],
    [49662,"HCEP03730542","2025-02-26 15:00:00","9.357","3.25865","27.318","5.662","7.67","0.637","5.428","0.23","0.49","29.9494","4.74235","59.89","0","SATNPRO1509","31.072","0.43526","5"],
    [49663,"HCEP03730542","2025-02-26 15:15:00","9.3568","3.25816","27.317","5.646","7.67","0.634","3.906","0.23","0.26","29.9445","4.74165","59.71","0","SATNPRO1509","31.144000000000002","0.43624","5"],
    [49664,"HCEP03730542","2025-02-26 15:30:00","9.3592","3.25805","27.296","5.646","7.67","0.608","4.659","0.14","0.43","29.9414","4.74116","59.72","0","SATNPRO1509","31.009999999999998","0.43438","5"],
    [49665,"HCEP03730542","2025-02-26 15:45:00","9.3618","3.2573","27.284","5.625","7.66","0.833","5.197","0.31","1.13","29.9316","4.73971","59.5","0","SATNPRO1509","31.028","0.4346","5"],
    [49666,"HCEP03730542","2025-02-26 16:00:00","9.3625","3.25622","27.248","5.606","7.66","0.674","4.608","0.12","2.11","29.9201","4.73804","59.29","0","SATNPRO1509","30.774","0.43104","5"],
    [49667,"HCEP03730542","2025-02-26 16:15:00","9.3598","3.25375","27.189","5.576","7.66","0.804","4.293","0.22","0.28","29.8972","4.73481","58.97","0","SATNPRO1509","30.658","0.4294","5"],
    [49668,"HCEP03730542","2025-02-26 16:30:00","9.3521","3.25115","27.079","5.565","7.66","0.907","4.291","0.36","0.58","29.8772","4.73209","58.84","0","SATNPRO1509","30.212","0.4232","5"],
    [49669,"HCEP03730542","2025-02-26 16:45:00","9.3435","3.2467","26.959","5.563","7.66","0.803","3.855","0.32","0.34","29.8392","4.7268","58.78","0","SATNPRO1509","29.832","0.41788","5"],
    [49670,"HCEP03730542","2025-02-26 17:00:00","9.3526","3.25132","26.853","5.554","7.66","0.816","4.08","0.38","0.38","29.8786","4.73227","58.71","0","SATNPRO1509","30.26","0.42386","5"],
    [49671,"HCEP03730542","2025-02-26 17:15:00","9.359","3.25382","26.723","5.536","7.66","0.758","3.798","0.41","0.37","29.8987","4.73502","58.54","0","SATNPRO1509","30.454","0.42656","5"],
    [49672,"HCEP03730542","2025-02-26 17:30:00","9.3589","3.25375","26.574","5.535","7.66","0.684","3.585","0.15","0.26","29.8982","4.73494","58.52","0","SATNPRO1509","30.606","0.4287","5"],
    [49673,"HCEP03730542","2025-02-26 17:45:00","9.3608","3.25498","26.425","5.547","7.66","0.6","3.362","0.12","0.23","29.9092","4.73647","58.66","0","SATNPRO1509","30.842","0.432","5"],
    [49674,"HCEP03730542","2025-02-26 18:00:00","9.355","3.25869","26.261","5.554","7.66","1.75","28.811","1.68","26.89","29.9518","4.74267","58.74","0","SATNPRO1509","31.028","0.43458","5"],
    [49675,"HCEP03730542","2025-02-26 18:15:00","9.3542","3.25856","26.133","5.562","7.66","0.631","5.272","0.19","0.27","29.9512","4.74258","58.83","0","SATNPRO1509","30.934","0.4333","5"],
    [49676,"HCEP03730542","2025-02-26 18:30:00","9.3517","3.25844","25.93","5.578","7.66","0.595","5.249","0.08","0.43","29.9522","4.74276","58.99","0","SATNPRO1509","30.998","0.4342","5"],
    [49677,"HCEP03730542","2025-02-26 18:45:00","9.3596","3.25582","25.747","5.575","7.66","0.585","5.019","0.16","0.56","29.919","4.73786","58.96","0","SATNPRO1509","30.78","0.43108","5"],
    [49678,"HCEP03730542","2025-02-26 19:00:00","9.353","3.25715","25.571","5.588","7.66","0.578","5.091","0.11","0.6","29.9382","4.74071","59.1","0","SATNPRO1509","30.962","0.43366","5"],
    [49679,"HCEP03730542","2025-02-26 19:15:00","9.3507","3.25768","25.334","5.581","7.66","0.607","5.268","0.15","0.96","29.9455","4.74179","59.02","0","SATNPRO1509","30.998","0.43414","5"],
    [49680,"HCEP03730542","2025-02-26 19:30:00","9.3444","3.25786","25.117","5.595","7.66","0.594","5.446","0.09","0.96","29.9528","4.74293","59.16","0","SATNPRO1509","31.01","0.43438","5"],
    [49681,"HCEP03730542","2025-02-26 19:45:00","9.3432","3.25805","24.895","5.602","7.66","0.57","5.194","0.11","0.36","29.9557","4.74336","59.24","0","SATNPRO1509","31.240000000000002","0.4376","5"],
    [49682,"HCEP03730542","2025-02-26 20:00:00","9.3409","3.25796","24.692","5.601","7.66","0.582","5.377","0.11","0.6","29.9569","4.74356","59.22","0","SATNPRO1509","31.048000000000002","0.43488","5"],
    [49683,"HCEP03730542","2025-02-26 20:15:00","9.3399","3.25811","24.49","5.615","7.66","0.545","5.154","0.1","0.24","29.9593","4.7439","59.38","0","SATNPRO1509","30.978","0.43388","5"],
    [49684,"HCEP03730542","2025-02-26 20:30:00","9.3406","3.25794","24.302","5.613","7.66","0.581","4.961","0.1","0.32","29.9571","4.74356","59.35","0","SATNPRO1509","30.924","0.43312","5"],
    [49685,"HCEP03730542","2025-02-26 20:45:00","9.3402","3.25766","24.138","5.607","7.66","0.558","4.898","0.15","0.29","29.9547","4.74322","59.29","0","SATNPRO1509","30.9","0.4328","5"],
    [49686,"HCEP03730542","2025-02-26 21:00:00","9.3365","3.25734","24.008","5.607","7.66","0.607","5.151","0.16","0.64","29.9545","4.74326","59.28","0","SATNPRO1509","31.088","0.4354","5"],
    [49687,"HCEP03730542","2025-02-26 21:15:00","9.3357","3.25711","23.891","5.615","7.66","0.557","4.958","0.17","0.36","29.9529","4.74304","59.37","0","SATNPRO1509","30.818","0.43166","5"],
    [49688,"HCEP03730542","2025-02-26 21:30:00","9.3351","3.25686","23.842","5.614","7.66","0.534","4.978","0.12","0.48","29.951","4.74277","59.35","0","SATNPRO1509","31.009999999999998","0.4343","5"],
    [49689,"HCEP03730542","2025-02-26 21:45:00","9.3346","3.25692","23.831","5.612","7.66","0.532","4.935","0.13","0.41","29.952","4.74292","59.34","0","SATNPRO1509","31.018","0.43448","5"],
    [49690,"HCEP03730542","2025-02-26 22:00:00","9.3291","3.25699","23.827","5.605","7.66","0.553","4.95","0.14","0.4","29.9573","4.74378","59.25","0","SATNPRO1509","30.962","0.43366","5"],
    [49691,"HCEP03730542","2025-02-26 22:15:00","9.3237","3.25673","23.86","5.617","7.66","0.574","4.822","0.22","0.44","29.9592","4.74415","59.37","0","SATNPRO1509","30.928","0.4332","5"],
    [49692,"HCEP03730542","2025-02-26 22:30:00","9.3242","3.25666","23.879","5.636","7.66","0.545","4.35","0.2","0.27","29.958","4.74397","59.58","0","SATNPRO1509","31.092000000000002","0.43552","5"],
    [49693,"HCEP03730542","2025-02-26 22:45:00","9.3279","3.2564","23.909","5.629","7.66","0.555","4.619","0.19","0.24","29.9522","4.74308","59.5","0","SATNPRO1509","30.854","0.43216","5"],
    [49694,"HCEP03730542","2025-02-26 23:00:00","9.3319","3.25635","24.005","5.609","7.66","0.617","4.755","0.3","0.29","29.9483","4.74245","59.3","0","SATNPRO1509","30.78","0.43112","5"],
    [49695,"HCEP03730542","2025-02-26 23:15:00","9.3374","3.25588","24.147","5.581","7.66","0.552","4.708","0.16","0.37","29.9389","4.74101","59","0","SATNPRO1509","30.716","0.43024","5"],
    [49696,"HCEP03730542","2025-02-26 23:30:00","9.344","3.25473","24.306","5.556","7.66","0.634","5.262","0.2","0.67","29.9216","4.73843","58.74","0","SATNPRO1509","30.631999999999998","0.42904","5"],
    [49697,"HCEP03730542","2025-02-26 23:45:00","9.3474","3.25339","24.528","5.527","7.66","0.582","4.882","0.14","0.23","29.905","4.73601","58.43","0","SATNPRO1509","30.408","0.42592","5"],
    [49698,"HCEP03730542","2025-02-27 00:00:00","9.346","3.25223","24.729","5.511","7.66","0.568","4.723","0.08","0.24","29.8942","4.7345","58.26","0","SATNPRO1509","30.428","0.42618","5"],
    [49699,"HCEP03730542","2025-02-27 00:15:00","9.3432","3.25376","24.918","5.511","7.66","18.088","332.684","0.8","126.57","29.9121","4.73712","58.26","0","SATNPRO1509","30.576","0.42824","5"],
    [49700,"HCEP03730542","2025-02-27 00:30:00","9.3418","3.25442","25.14","5.524","7.66","1.891","44.934","0.33","8.14","29.9199","4.73827","58.39","0","SATNPRO1509","30.61","0.42872","5"],
    [49701,"HCEP03730542","2025-02-27 00:45:00","9.3415","3.25441","25.293","5.522","7.66","9.423","62.328","7.33","28.69","29.9199","4.73829","58.37","0","SATNPRO1509","30.582","0.42836","5"],
    [49702,"HCEP03730542","2025-02-27 01:00:00","9.3422","3.25465","25.519","5.523","7.66","2.106","530.605","0.69","142.94","29.9218","4.73856","58.39","0","SATNPRO1509","30.568","0.42812","5"],
    [49703,"HCEP03730542","2025-02-27 01:15:00","9.343","3.25468","25.713","5.511","7.66","1.01","166.491","0.3","90.58","29.9213","4.73849","58.26","0","SATNPRO1509","30.528","0.4276","5"],
    [49704,"HCEP03730542","2025-02-27 01:30:00","9.3453","3.25441","25.938","5.505","7.66","2.373","739.627","0.74","309.87","29.9165","4.73778","58.2","0","SATNPRO1509","30.548000000000002","0.42786","5"],
    [49705,"HCEP03730542","2025-02-27 01:45:00","9.3463","3.25507","26.091","5.496","7.66","7.424","2567.307","1","431.71","29.9223","4.7386","58.11","0","SATNPRO1509","30.6","0.42862","5"],
    [49706,"HCEP03730542","2025-02-27 02:00:00","9.3489","3.25505","26.357","5.487","7.65","1.661","730.667","0.41","190.51","29.9199","4.73821","58.01","0","SATNPRO1509","30.552","0.42794","5"],
    [49707,"HCEP03730542","2025-02-27 02:15:00","9.3506","3.2539","26.568","5.466","7.65","3.39","843.372","0.88","182.66","29.9066","4.7363","57.79","0","SATNPRO1509","30.352","0.42512","5"],
    [49708,"HCEP03730542","2025-02-27 02:30:00","9.3502","3.25456","26.789","5.446","7.65","7.068","2551.019","2.04","367.84","29.9136","4.73731","57.58","0","SATNPRO1509","30.404","0.42586","5"],
    [49709,"HCEP03730542","2025-02-27 02:45:00","9.3107","3.23753","26.958","5.431","7.65","13.732","1087.02","1.17","348.33","29.7731","4.71795","57.33","0","SATNPRO1509","28.708","0.40212","5"],
    [49710,"HCEP03730542","2025-02-27 03:00:00","9.3018","3.23283","27.157","5.392","7.65","18.131","851.076","0.36","92.12","29.7326","4.71233","56.88","0","SATNPRO1509","28.456","0.39858","5"],
    [49711,"HCEP03730542","2025-02-27 03:15:00","9.2861","3.22693","27.316","5.357","7.65","17.797","688.271","0.64","138.87","29.6855","4.70589","56.48","0","SATNPRO1509","27.822","0.3897","5"],
    [49712,"HCEP03730542","2025-02-27 03:30:00","9.1783","3.1928","27.434","5.404","7.67","16.273","1320.271","0.65","93.67","29.4268","4.67079","56.75","0","SATNPRO1509","23.924","0.33508","5"],
    [49713,"HCEP03730542","2025-02-27 03:45:00","9.305","3.23357","27.55","5.446","7.66","14.521","1182.571","1.83","100.66","29.7373","4.71296","57.46","0","SATNPRO1509","28.509999999999998","0.39932","5"],
    [49714,"HCEP03730542","2025-02-27 04:00:00","9.242","3.2109","27.631","5.392","7.66","14.253","679.259","1.79","137.69","29.5587","4.68854","56.75","0","SATNPRO1509","25.31","0.35452","5"],
    [49715,"HCEP03730542","2025-02-27 04:15:00","9.3091","3.23695","27.733","5.369","7.65","8.81","67.229","6.25","21.66","29.7683","4.71734","56.66","0","SATNPRO1509","28.162","0.39444","5"],
    [49716,"HCEP03730542","2025-02-27 04:30:00","9.335","3.2456","27.811","5.307","7.65","0.541","5.228","0.16","0.24","29.8348","4.72638","56.07","0","SATNPRO1509","29.508","0.4133","5"],
    [49717,"HCEP03730542","2025-02-27 04:45:00","9.3426","3.24804","27.856","5.292","7.64","0.469","4.657","0.19","0.27","29.8532","4.72888","55.93","0","SATNPRO1509","29.86","0.41824","5"],
    [49718,"HCEP03730542","2025-02-27 05:00:00","9.3374","3.24413","27.848","5.335","7.65","0.512","3.96","0.18","0.21","29.8178","4.72391","56.36","0","SATNPRO1509","29.338","0.41096","5"],
    [49719,"HCEP03730542","2025-02-27 05:15:00","9.3215","3.23774","27.791","5.373","7.65","0.503","3.919","0.15","0.2","29.7659","4.71677","56.72","0","SATNPRO1509","27.526","0.38556","5"],
    [49720,"HCEP03730542","2025-02-27 05:30:00","9.3182","3.23555","27.775","5.363","7.65","0.436","3.104","0.09","0.15","29.7464","4.71404","56.61","0","SATNPRO1509","27.43","0.3842","5"],
    [49721,"HCEP03730542","2025-02-27 05:45:00","9.3418","3.24529","27.746","5.354","7.65","0.452","3.562","0.13","0.15","29.8259","4.72499","56.57","0","SATNPRO1509","29.528","0.41362","5"],
    [49722,"HCEP03730542","2025-02-27 06:00:00","9.3485","3.2492","27.724","5.37","7.65","0.481","4.365","0.1","0.2","29.8601","4.72975","56.76","0","SATNPRO1509","29.834","0.41782","5"],
    [49723,"HCEP03730542","2025-02-27 06:15:00","9.3437","3.24701","27.67","5.344","7.64","0.513","4.468","0.23","0.19","29.8419","4.72723","56.47","0","SATNPRO1509","29.676","0.41566","5"],
    [49724,"HCEP03730542","2025-02-27 06:30:00","9.3439","3.24737","27.6","5.317","7.64","0.601","4.279","0.27","0.36","29.8454","4.72772","56.19","0","SATNPRO1509","29.438","0.41232","5"],
    [49725,"HCEP03730542","2025-02-27 06:45:00","9.3463","3.24873","27.515","5.266","7.64","0.426","5.177","0.12","0.25","29.8573","4.72938","55.65","0","SATNPRO1509","29.388","0.4116","5"],
    [49726,"HCEP03730542","2025-02-27 07:00:00","9.2714","3.22658","27.413","5.258","7.65","0.499","5.039","0.17","0.75","29.6942","4.7074","55.43","0","SATNPRO1509","26.830000000000002","0.37582","5"],
    [49727,"HCEP03730542","2025-02-27 07:15:00","9.3202","3.24108","27.308","5.259","7.63","0.432","6.155","0.09","0.29","29.8013","4.72183","55.53","0","SATNPRO1509","27.95","0.39148","5"],
    [49728,"HCEP03730542","2025-02-27 07:30:00","9.2696","3.22627","27.2","5.111","7.63","0.574","7.162","0.16","0.46","29.6926","4.7072","53.86","0","SATNPRO1509","27.176","0.38062","5"],
    [49729,"HCEP03730542","2025-02-27 07:45:00","9.2807","3.22991","27.059","5.043","7.63","0.521","6.641","0.14","0.45","29.7205","4.71097","53.17","0","SATNPRO1509","27.442","0.38438","5"],
    [49730,"HCEP03730542","2025-02-27 08:00:00","9.2531","3.22001","26.918","5.056","7.63","0.575","7.142","0.19","0.47","29.6427","4.70033","53.25","0","SATNPRO1509","26.732","0.37444","5"],
    [49731,"HCEP03730542","2025-02-27 08:15:00","9.2521","3.21793","26.747","5.081","7.63","0.604","8.039","0.13","0.73","29.6223","4.69741","53.5","0","SATNPRO1509","26.686","0.3738","5"],
    [49732,"HCEP03730542","2025-02-27 08:30:00","9.2531","3.21691","26.632","5.083","7.63","0.748","7.869","0.22","0.37","29.6111","4.69578","53.53","0","SATNPRO1509","26.676000000000002","0.37366","5"],
    [49733,"HCEP03730542","2025-02-27 08:45:00","9.2677","3.2219","26.538","5.069","7.63","0.764","7.756","0.29","1.03","29.6499","4.70107","53.41","0","SATNPRO1509","26.78","0.37508","5"],
    [49734,"HCEP03730542","2025-02-27 09:00:00","9.298400000000001","3.23273","26.347","5.045","7.62","0.659","10.105","0.12","1.4","29.7348","4.71266","53.22","0","SATNPRO1509","27.843999999999998","0.38998","5"],
    [49735,"HCEP03730542","2025-02-27 09:15:00","9.3113","3.23697","26.27","5.006","7.62","0.706","8.903","0.13","1.12","29.7672","4.71705","52.83","0","SATNPRO1509","28.038","0.39274","5"],
    [49736,"HCEP03730542","2025-02-27 09:30:00","9.2915","3.23049","26.114","5.017","7.63","0.714","9.65","0.11","1.41","29.7178","4.71033","52.91","0","SATNPRO1509","27.416","0.38402","5"],
    [49737,"HCEP03730542","2025-02-27 09:45:00","9.2914","3.22859","26.005","5.041","7.63","0.661","9.368","0.11","2.01","29.6986","4.70758","53.16","0","SATNPRO1509","27.63","0.38702","5"],
    [49738,"HCEP03730542","2025-02-27 10:00:00","9.287","3.22547","25.903","5.107","7.63","0.791","9.557","0.18","1.19","29.6704","4.70362","53.84","0","SATNPRO1509","27.678","0.3877","5"],
    [49739,"HCEP03730542","2025-02-27 10:15:00","9.2744","3.22142","25.81","5.131","7.64","0.688","8.057","0.15","1.84","29.6398","4.69946","54.07","0","SATNPRO1509","27.368","0.38336","5"],
    [49740,"HCEP03730542","2025-02-27 10:30:00","9.2973","3.22882","25.763","5.214","7.64","0.668","7.004","0.14","0.97","29.6961","4.70711","54.99","0","SATNPRO1509","27.768","0.38892","5"],
    [49741,"HCEP03730542","2025-02-27 10:45:00","9.3163","3.23739","25.77","5.173","7.63","0.697","8.833","0.13","1.41","29.7676","4.71699","54.6","0","SATNPRO1509","28.35","0.39706","5"],
    [49742,"HCEP03730542","2025-02-27 11:00:00","9.3212","3.2389","25.842","5.08","7.63","0.821","10.743","0.15","0.73","29.7788","4.71851","53.64","0","SATNPRO1509","28.54","0.39974","5"],
    [49743,"HCEP03730542","2025-02-27 11:15:00","9.3284","3.24128","25.854","5.047","7.62","0.693","9.539","0.14","0.58","29.7971","4.72099","53.3","0","SATNPRO1509","28.57","0.40018","5"],
    [49744,"HCEP03730542","2025-02-27 11:30:00","9.3259","3.23907","25.933","5.024","7.62","0.77","8.85","0.16","0.74","29.7766","4.71811","53.04","0","SATNPRO1509","28.496","0.3991","5"],
    [49745,"HCEP03730542","2025-02-27 11:45:00","9.3273","3.23774","26.025","5.067","7.63","0.857","8.379","0.16","0.61","29.7618","4.71597","53.49","0","SATNPRO1509","28.648","0.40126","5"],
    [49746,"HCEP03730542","2025-02-27 12:00:00","9.3352","3.24024","26.061","5.157","7.63","0.686","6.932","0.18","1.68","29.7807","4.71854","54.46","0","SATNPRO1509","29.1","0.4076","5"],
    [49747,"HCEP03730542","2025-02-27 12:15:00","9.3438","3.24486","26.147","5.222","7.64","0.675","6.253","0.17","0.61","29.8205","4.72408","55.17","0","SATNPRO1509","29.468","0.41274","5"],
    [49748,"HCEP03730542","2025-02-27 12:30:00","9.3468","3.24694","26.189","5.258","7.64","0.617","6.173","0.1","0.26","29.8392","4.7267","55.57","0","SATNPRO1509","29.69","0.41586","5"],
    [49749,"HCEP03730542","2025-02-27 12:45:00","9.3459","3.24895","26.296","5.274","7.64","0.505","5.397","0.09","0.26","29.8604","4.72975","55.74","0","SATNPRO1509","30.036","0.42068","5"],
    [49750,"HCEP03730542","2025-02-27 13:00:00","9.3418","3.24858","26.41","5.298","7.64","0.591","6.158","0.16","0.66","29.8599","4.72977","55.99","0","SATNPRO1509","30","0.42018","5"],
    [49751,"HCEP03730542","2025-02-27 13:15:00","9.3324","3.24698","26.477","5.336","7.65","0.444","5.69","0.1","0.63","29.8515","4.72874","56.38","0","SATNPRO1509","30.009999999999998","0.42034","5"],
    [49752,"HCEP03730542","2025-02-27 13:30:00","9.325","3.24632","26.55","5.391","7.65","0.453","6.314","0.1","1.11","29.851","4.72881","56.95","0","SATNPRO1509","30.068","0.42116","5"],
    [49753,"HCEP03730542","2025-02-27 13:45:00","9.3238","3.24601","26.698","5.445","7.65","0.463","4.574","0.17","0.25","29.8487","4.72851","57.51","0","SATNPRO1509","30.21","0.42312","5"],
    [49754,"HCEP03730542","2025-02-27 14:00:00","9.321","3.24498","26.796","5.474","7.66","0.456","6.374","0.14","0.74","29.8405","4.7274","57.81","0","SATNPRO1509","30.044","0.4208","5"],
    [49755,"HCEP03730542","2025-02-27 14:15:00","9.3167","3.24323","26.913","5.497","7.66","0.337","4.002","0.06","0.38","29.8263","4.72544","58.05","0","SATNPRO1509","30.124","0.42196","5"],
    [49756,"HCEP03730542","2025-02-27 14:30:00","9.3132","3.24161","27.002","5.522","7.66","0.412","5.332","0.15","0.56","29.8126","4.72356","58.3","0","SATNPRO1509","29.98","0.41994","5"],
    [49757,"HCEP03730542","2025-02-27 14:45:00","9.3159","3.2419","27.125","5.54","7.66","0.309","3.213","0.05","0.18","29.8133","4.72361","58.5","0","SATNPRO1509","30.11","0.42174","5"],
    [49758,"HCEP03730542","2025-02-27 15:00:00","9.3211","3.24219","27.253","5.567","7.66","0.357","5.124","0.07","1.41","29.8119","4.72332","58.78","0","SATNPRO1509","29.916","0.41906","5"],
    [49759,"HCEP03730542","2025-02-27 15:15:00","9.3232","3.24203","27.349","5.57","7.66","0.312","3.376","0.09","0.16","29.8083","4.72279","58.82","0","SATNPRO1509","30.102","0.42166","5"],
    [49760,"HCEP03730542","2025-02-27 15:30:00","9.3232","3.2418","27.388","5.564","7.66","0.363","3.518","0.17","0.17","29.8061","4.72247","58.76","0","SATNPRO1509","30.108","0.4217","5"],
    [49761,"HCEP03730542","2025-02-27 15:45:00","9.3229","3.24126","27.423","5.554","7.66","0.354","4.284","0.09","0.63","29.8008","4.72172","58.65","0","SATNPRO1509","29.93","0.41926","5"],
    [49762,"HCEP03730542","2025-02-27 16:00:00","9.3189","3.23995","27.465","5.55","7.66","0.371","3.918","0.24","0.26","29.7907","4.72035","58.6","0","SATNPRO1509","29.808","0.41752","5"],
    [49763,"HCEP03730542","2025-02-27 16:15:00","9.3174","3.23833","27.483","5.554","7.66","0.39","2.967","0.16","0.12","29.7756","4.71821","58.63","0","SATNPRO1509","29.698","0.41598","5"],
    [49764,"HCEP03730542","2025-02-27 16:30:00","9.3163","3.23711","27.478","5.571","7.67","0.29","2.664","0.09","0.12","29.764","4.71657","58.8","0","SATNPRO1509","29.788","0.41722","5"],
    [49765,"HCEP03730542","2025-02-27 16:45:00","9.3143","3.23446","27.439","5.594","7.67","0.275","5.097","0.07","1.27","29.7387","4.71299","59.04","0","SATNPRO1509","29.762","0.41688","5"],
    [49766,"HCEP03730542","2025-02-27 17:00:00","9.3093","3.23484","27.374","5.617","7.67","0.299","4.309","0.08","0.39","29.7467","4.71422","59.28","0","SATNPRO1509","29.412","0.41192","5"],
    [49767,"HCEP03730542","2025-02-27 17:15:00","9.3102","3.2341","27.289","5.595","7.67","1.603","43.662","0.7","19.92","29.7386","4.71304","59.04","0","SATNPRO1509","29.74","0.41658","5"],
    [49768,"HCEP03730542","2025-02-27 17:30:00","9.3091","3.23513","27.198","5.601","7.67","0.311","3.46","0.1","0.2","29.75","4.71469","59.11","0","SATNPRO1509","29.604","0.41462","5"],
    [49769,"HCEP03730542","2025-02-27 17:45:00","9.3068","3.23527","27.078","5.565","7.66","0.312","4.093","0.05","0.28","29.7533","4.71519","58.72","0","SATNPRO1509","29.592000000000002","0.41448","5"],
    [49770,"HCEP03730542","2025-02-27 18:00:00","9.3109","3.23565","26.958","5.537","7.66","0.331","4.089","0.08","0.23","29.7539","4.7152","58.43","0","SATNPRO1509","29.492","0.41306","5"],
    [49771,"HCEP03730542","2025-02-27 18:15:00","9.3089","3.23583","26.806","5.492","7.66","0.318","4.166","0.05","0.2","29.7574","4.71573","57.96","0","SATNPRO1509","29.471999999999998","0.4128","5"],
    [49772,"HCEP03730542","2025-02-27 18:30:00","9.3089","3.23528","26.657","5.48","7.66","0.304","4.059","0.06","0.23","29.7519","4.71493","57.83","0","SATNPRO1509","29.438","0.41234","5"],
    [49773,"HCEP03730542","2025-02-27 18:45:00","9.3067","3.23482","26.387","5.492","7.66","0.31","4.035","0.05","0.3","29.7492","4.71456","57.96","0","SATNPRO1509","29.508","0.41332","5"],
    [49774,"HCEP03730542","2025-02-27 19:00:00","9.3043","3.23387","26.141","5.51","7.66","0.275","3.247","0.03","0.47","29.7416","4.71351","58.13","0","SATNPRO1509","29.446","0.41246","5"],
    [49775,"HCEP03730542","2025-02-27 19:15:00","9.3051","3.23463","25.922","5.531","7.66","0.283","3.911","0.04","0.28","29.7487","4.7145","58.36","0","SATNPRO1509","29.418","0.41208","5"],
    [49776,"HCEP03730542","2025-02-27 19:30:00","9.3091","3.23696","25.717","5.514","7.66","0.323","4.617","0.06","0.9","29.7692","4.71735","58.2","0","SATNPRO1509","29.622","0.41492","5"],
    [49777,"HCEP03730542","2025-02-27 19:45:00","9.3118","3.23911","25.511","5.52","7.66","0.326","5.007","0.04","0.86","29.7889","4.7201","58.27","0","SATNPRO1509","29.746","0.41666","5"],
    [49778,"HCEP03730542","2025-02-27 20:00:00","9.3136","3.24171","25.37","5.514","7.66","0.351","6.922","0.05","0.8","29.814","4.72366","58.22","0","SATNPRO1509","29.894000000000002","0.41872","5"],
    [49779,"HCEP03730542","2025-02-27 20:15:00","9.3166","3.24398","25.165","5.471","7.65","0.351","5.476","0.07","0.76","29.8347","4.72655","57.77","0","SATNPRO1509","29.904","0.41886","5"],
    [49780,"HCEP03730542","2025-02-27 20:30:00","9.3177","3.24455","24.951","5.445","7.65","0.351","5.154","0.06","0.85","29.8396","4.72723","57.51","0","SATNPRO1509","29.986","0.42","5"],
    [49781,"HCEP03730542","2025-02-27 20:45:00","9.3177","3.2446","24.748","5.437","7.65","0.35","5.123","0.07","0.41","29.8403","4.7273","57.41","0","SATNPRO1509","30.05","0.42092","5"],
    [49782,"HCEP03730542","2025-02-27 21:00:00","9.319","3.24424","24.548","5.426","7.65","0.393","4.887","0.11","0.82","29.8356","4.7266","57.31","0","SATNPRO1509","29.843999999999998","0.41796","5"],
    [49783,"HCEP03730542","2025-02-27 21:15:00","9.3191","3.24377","24.35","5.394","7.65","0.408","4.557","0.09","0.28","29.8308","4.72589","56.97","0","SATNPRO1509","29.794","0.41728","5"],
    [49784,"HCEP03730542","2025-02-27 21:30:00","9.3201","3.24384","24.16","5.37","7.65","0.416","4.96","0.1","0.4","29.8308","4.72587","56.71","0","SATNPRO1509","29.862","0.41824","5"],
    [49785,"HCEP03730542","2025-02-27 21:45:00","9.3207","3.24459","24.028","5.361","7.65","0.385","4.623","0.06","0.24","29.8379","4.72686","56.62","0","SATNPRO1509","29.88","0.41852","5"],
    [49786,"HCEP03730542","2025-02-27 22:00:00","9.3212","3.24472","23.905","5.366","7.65","0.377","5.011","0.07","0.47","29.8389","4.72699","56.67","0","SATNPRO1509","29.896","0.41874","5"],
    [49787,"HCEP03730542","2025-02-27 22:15:00","9.3214","3.24489","23.853","5.36","7.65","0.366","4.759","0.09","0.33","29.8405","4.72722","56.61","0","SATNPRO1509","29.888","0.41864","5"],
    [49788,"HCEP03730542","2025-02-27 22:30:00","9.3199","3.24346","23.826","5.348","7.64","0.42","4.481","0.1","0.35","29.8272","4.72534","56.47","0","SATNPRO1509","29.722","0.4163","5"],
    [49789,"HCEP03730542","2025-02-27 22:45:00","9.3097","3.2395","23.826","5.333","7.64","0.464","5.704","0.16","1.66","29.7954","4.72097","56.3","0","SATNPRO1509","28.988","0.40598","5"],
    [49790,"HCEP03730542","2025-02-27 23:00:00","9.3177","3.24327","23.906","5.305","7.64","0.406","4.933","0.13","0.52","29.827","4.72536","56.02","0","SATNPRO1509","29.582","0.41434","5"],
    [49791,"HCEP03730542","2025-02-27 23:15:00","9.3196","3.24409","24.003","5.296","7.64","0.533","4.798","0.24","0.22","29.8338","4.72631","55.93","0","SATNPRO1509","29.41","0.41192","5"],
    [49792,"HCEP03730542","2025-02-27 23:30:00","9.3242","3.24609","24.138","5.286","7.64","0.418","5.224","0.13","0.31","29.8502","4.72857","55.83","0","SATNPRO1509","29.852","0.41812","5"],
    [49793,"HCEP03730542","2025-02-27 23:45:00","9.3218","3.24422","24.271","5.288","7.64","0.407","4.735","0.19","0.41","29.8332","4.72619","55.84","0","SATNPRO1509","29.674","0.41568","5"],
    [49794,"HCEP03730542","2025-02-28 00:00:00","9.319","3.24153","24.4","5.28","7.64","0.502","5.114","0.14","0.33","29.808","4.72265","55.75","0","SATNPRO1509","29.186","0.4088","5"],
    [49795,"HCEP03730542","2025-02-28 00:15:00","9.3174","3.24175","24.564","5.24","7.64","0.506","5.086","0.23","0.29","29.8115","4.72318","55.33","0","SATNPRO1509","29.222","0.40934","5"],
    [49796,"HCEP03730542","2025-02-28 00:30:00","9.3053","3.23902","24.741","5.232","7.64","0.493","4.647","0.26","0.26","29.7938","4.72087","55.23","0","SATNPRO1509","29.46","0.41268","5"],
    [49797,"HCEP03730542","2025-02-28 00:45:00","9.3117","3.23951","24.926","5.239","7.64","0.488","5.437","0.19","0.69","29.7933","4.7207","55.31","0","SATNPRO1509","29.696","0.41594","5"],
    [49798,"HCEP03730542","2025-02-28 01:00:00","9.3253","3.24649","25.115","5.25","7.64","0.35","4.532","0.07","0.46","29.853","4.72901","55.45","0","SATNPRO1509","29.81","0.41754","5"],
    [49799,"HCEP03730542","2025-02-28 01:15:00","9.3276","3.24739","25.319","5.26","7.64","0.397","4.88","0.1","0.23","29.8601","4.72999","55.57","0","SATNPRO1509","29.732","0.41642","5"],
    [49800,"HCEP03730542","2025-02-28 01:30:00","9.3271","3.24671","25.536","5.246","7.64","0.411","4.744","0.14","0.18","29.8535","4.72907","55.41","0","SATNPRO1509","29.817999999999998","0.41766","5"],
    [49801,"HCEP03730542","2025-02-28 01:45:00","9.3242","3.24371","25.739","5.247","7.64","0.378","4.132","0.11","0.21","29.8253","4.72511","55.42","0","SATNPRO1509","29.486","0.413","5"],
    [49802,"HCEP03730542","2025-02-28 02:00:00","9.3266","3.24564","25.95","5.23","7.64","0.437","4.692","0.18","0.4","29.8429","4.72759","55.24","0","SATNPRO1509","29.638","0.41512","5"],
    [49803,"HCEP03730542","2025-02-28 02:15:00","9.3156","3.24089","26.168","5.212","7.63","0.387","5.229","0.11","0.51","29.8036","4.72217","55.03","0","SATNPRO1509","28.68","0.40174","5"],
    [49804,"HCEP03730542","2025-02-28 02:30:00","9.3268","3.24583","26.389","5.195","7.63","0.451","4.963","0.21","0.3","29.8445","4.72783","54.88","0","SATNPRO1509","29.438","0.41238","5"],
    [49805,"HCEP03730542","2025-02-28 02:45:00","9.2968","3.23244","26.598","5.179","7.63","0.321","3.394","0.11","0.2","29.7331","4.71245","54.63","0","SATNPRO1509","28.254","0.3958","5"],
    [49806,"HCEP03730542","2025-02-28 03:00:00","9.3143","3.24043","26.831","5.168","7.63","0.401","3.962","0.17","0.2","29.7998","4.72169","54.56","0","SATNPRO1509","28.862","0.40426","5"],
    [49807,"HCEP03730542","2025-02-28 03:15:00","9.3161","3.23961","27.025","5.169","7.63","0.337","3.884","0.08","0.33","29.7898","4.72024","54.56","0","SATNPRO1509","29.282","0.41014","5"],
    [49808,"HCEP03730542","2025-02-28 03:30:00","9.3229","3.24306","27.194","5.166","7.63","0.428","4.265","0.13","0.21","29.8192","4.72434","54.55","0","SATNPRO1509","29.294","0.4103","5"],
    [49809,"HCEP03730542","2025-02-28 03:45:00","9.3053","3.23532","27.337","5.168","7.63","0.365","3.922","0.16","0.43","29.755","4.71548","54.53","0","SATNPRO1509","28.796","0.40334","5"],
    [49810,"HCEP03730542","2025-02-28 04:00:00","9.256","3.21902","27.488","5.191","7.64","0.345","3.171","0.12","0.25","29.6299","4.69847","54.67","0","SATNPRO1509","27.446","0.38444","5"],
    [49811,"HCEP03730542","2025-02-28 04:15:00","9.287","3.22955","27.618","5.206","7.64","0.339","4.259","0.09","0.21","29.7113","4.70957","54.9","0","SATNPRO1509","27.736","0.3885","5"],
    [49812,"HCEP03730542","2025-02-28 04:30:00","9.3172","3.24111","27.735","5.17","7.63","0.339","5.576","0.08","0.62","29.8039","4.72228","54.59","0","SATNPRO1509","28.721999999999998","0.4023","5"],
    [49813,"HCEP03730542","2025-02-28 04:45:00","9.3259","3.24457","27.801","5.13","7.63","0.373","6.835","0.06","0.52","29.8318","4.72612","54.18","0","SATNPRO1509","29.192","0.40892","5"],
    [49814,"HCEP03730542","2025-02-28 05:00:00","9.3243","3.24475","27.841","5.129","7.63","0.354","4.45","0.09","0.26","29.835","4.72662","54.17","0","SATNPRO1509","29.508","0.4133","5"],
    [49815,"HCEP03730542","2025-02-28 05:15:00","9.3095","3.23882","27.893","5.17","7.63","0.363","5.098","0.07","0.49","29.7869","4.72","54.57","0","SATNPRO1509","28.852","0.40412","5"],
    [49816,"HCEP03730542","2025-02-28 05:30:00","9.2932","3.23121","27.888","5.154","7.63","0.377","6.159","0.07","0.52","29.7231","4.71117","54.36","0","SATNPRO1509","28.246","0.39562","5"],
    [49817,"HCEP03730542","2025-02-28 05:45:00","9.2588","3.21697","27.893","5.156","7.64","0.346","4.871","0.07","0.21","29.6065","4.69509","54.3","0","SATNPRO1509","27.614","0.38678","5"],
    [49818,"HCEP03730542","2025-02-28 06:00:00","9.1989","3.1974","27.793","5.348","7.66","0.353","3.506","0.08","0.32","29.4566","4.67471","56.19","0","SATNPRO1509","26.892","0.37664","5"],
    [49819,"HCEP03730542","2025-02-28 06:15:00","9.2108","3.20113","27.736","5.504","7.67","0.328","4.476","0.06","0.38","29.4849","4.67854","57.86","0","SATNPRO1509","26.724","0.37432","5"],
    [49820,"HCEP03730542","2025-02-28 06:30:00","9.2005","3.19817","27.644","5.536","7.67","0.331","4.089","0.1","1.95","29.4632","4.67562","58.17","0","SATNPRO1509","26.536","0.3717","5"],
    [49821,"HCEP03730542","2025-02-28 06:45:00","9.1984","3.197","27.48","5.548","7.67","0.432","4.557","0.23","0.39","29.4531","4.6742","58.29","0","SATNPRO1509","26.402","0.3698","5"],
    [49822,"HCEP03730542","2025-02-28 07:00:00","9.1959","3.19584","27.426","5.545","7.67","0.363","5.251","0.09","0.33","29.4433","4.67284","58.25","0","SATNPRO1509","26.38","0.36948","5"],
    [49823,"HCEP03730542","2025-02-28 07:15:00","9.2024","3.19705","27.295","5.558","7.67","0.325","4.822","0.07","0.34","29.4504","4.67373","58.4","0","SATNPRO1509","26.594","0.37248","5"],
    [49824,"HCEP03730542","2025-02-28 07:30:00","9.2183","3.20166","27.202","5.554","7.67","0.376","5.401","0.11","0.24","29.4844","4.6783","58.39","0","SATNPRO1509","26.784","0.37518","5"],
    [49825,"HCEP03730542","2025-02-28 07:45:00","9.2409","3.20799","27.079","5.507","7.67","0.315","5.195","0.04","0.24","29.5302","4.68444","57.95","0","SATNPRO1509","27.274","0.38204","5"],
    [49826,"HCEP03730542","2025-02-28 08:00:00","9.2545","3.21292","26.959","5.474","7.66","0.349","5.351","0.16","1.32","29.5692","4.68977","57.62","0","SATNPRO1509","27.508","0.3853","5"],
    [49827,"HCEP03730542","2025-02-28 08:15:00","9.2603","3.21605","26.83","5.444","7.66","0.335","5.047","0.12","0.46","29.5964","4.69356","57.33","0","SATNPRO1509","27.938","0.39134","5"],
    [49828,"HCEP03730542","2025-02-28 08:30:00","9.2696","3.21866","26.703","5.433","7.66","0.295","5.501","0.04","0.44","29.6153","4.69609","57.23","0","SATNPRO1509","27.826","0.38972","5"],
    [49829,"HCEP03730542","2025-02-28 08:45:00","9.2666","3.21757","26.563","5.403","7.66","0.337","5.75","0.09","0.38","29.6067","4.6949","56.91","0","SATNPRO1509","27.842","0.38996","5"],
    [49830,"HCEP03730542","2025-02-28 09:00:00","9.2604","3.21512","26.398","5.423","7.66","0.318","4.839","0.1","0.4","29.587","4.69218","57.1","0","SATNPRO1509","27.736","0.38848","5"],
    [49831,"HCEP03730542","2025-02-28 09:15:00","9.2576","3.21424","26.251","5.458","7.66","0.301","5.405","0.07","0.53","29.5803","4.69127","57.46","0","SATNPRO1509","27.642","0.38718","5"],
    [49832,"HCEP03730542","2025-02-28 09:30:00","9.2602","3.21454","26.084","5.471","7.66","0.338","5.915","0.11","0.51","29.5813","4.69136","57.61","0","SATNPRO1509","27.766000000000002","0.3889","5"],
    [49833,"HCEP03730542","2025-02-28 09:45:00","9.2668","3.21636","25.935","5.461","7.66","0.32","5.767","0.07","0.27","29.5945","4.69312","57.51","0","SATNPRO1509","27.772","0.38898","5"],
    [49834,"HCEP03730542","2025-02-28 10:00:00","9.2771","3.21995","25.774","5.434","7.66","0.414","6.69","0.15","0.44","29.6226","4.69694","57.26","0","SATNPRO1509","28.004","0.3922","5"],
    [49835,"HCEP03730542","2025-02-28 10:15:00","9.2866","3.22404","25.623","5.395","7.65","0.285","6.116","0.03","0.27","29.6564","4.7016","56.87","0","SATNPRO1509","28.328","0.39676","5"],
    [49836,"HCEP03730542","2025-02-28 10:30:00","9.2972","3.22822","25.504","5.372","7.65","0.378","6.145","0.22","0.77","29.6902","4.70625","56.65","0","SATNPRO1509","28.686","0.4018","5"],
    [49837,"HCEP03730542","2025-02-28 10:45:00","9.3037","3.23137","25.396","5.356","7.65","0.311","5.654","0.06","0.25","29.7169","4.70994","56.5","0","SATNPRO1509","28.983999999999998","0.40598","5"],
    [49838,"HCEP03730542","2025-02-28 11:00:00","9.3084","3.23379","25.332","5.367","7.65","0.359","7.319","0.15","0.44","29.7377","4.71283","56.63","0","SATNPRO1509","29.122","0.40792","5"],
    [49839,"HCEP03730542","2025-02-28 11:15:00","9.3118","3.2368","25.29","5.372","7.65","0.287","6.468","0.03","0.42","29.7655","4.71674","56.7","0","SATNPRO1509","29.31","0.41054","5"],
    [49840,"HCEP03730542","2025-02-28 11:30:00","9.3175","3.23836","25.295","5.381","7.65","0.312","5.327","0.04","0.34","29.7766","4.71823","56.8","0","SATNPRO1509","29.628","0.415","5"],
    [49841,"HCEP03730542","2025-02-28 11:45:00","9.3211","3.23954","25.345","5.439","7.65","0.306","4.772","0.07","0.88","29.7857","4.71946","57.43","0","SATNPRO1509","29.704","0.41604","5"],
    [49842,"HCEP03730542","2025-02-28 12:00:00","9.3233","3.24043","25.419","5.463","7.65","0.301","4.962","0.06","0.42","29.7928","4.72045","57.69","0","SATNPRO1509","29.804","0.41742","5"],
    [49843,"HCEP03730542","2025-02-28 12:15:00","9.3254","3.24083","25.493","5.47","7.65","0.412","6.278","0.08","0.27","29.7951","4.72075","57.76","0","SATNPRO1509","29.786","0.4172","5"],
    [49844,"HCEP03730542","2025-02-28 12:30:00","9.3271","3.24168","25.591","5.477","7.66","0.493","5.407","0.06","0.34","29.8023","4.72174","57.84","0","SATNPRO1509","30.032","0.42066","5"],
    [49845,"HCEP03730542","2025-02-28 12:45:00","9.3291","3.24291","25.71","5.5","7.66","0.368","4.081","0.09","0.4","29.8131","4.72326","58.09","0","SATNPRO1509","30.132","0.42206","5"],
    [49846,"HCEP03730542","2025-02-28 13:00:00","9.3304","3.24342","25.811","5.52","7.66","0.38","5.264","0.1","0.31","29.8172","4.72383","58.31","0","SATNPRO1509","29.966","0.41972","5"],
    [49847,"HCEP03730542","2025-02-28 13:15:00","9.3374","3.2485","25.906","5.521","7.66","0.552","4.96","0.1","0.22","29.863","4.73027","58.33","0","SATNPRO1509","30.57","0.42818","5"],
    [49848,"HCEP03730542","2025-02-28 13:30:00","9.3387","3.24933","26.019","5.571","7.66","0.425","8.408","0.11","1.14","29.8702","4.73128","58.87","0","SATNPRO1509","30.638","0.42912","5"],
    [49849,"HCEP03730542","2025-02-28 13:45:00","9.3401","3.25072","26.127","5.584","7.66","0.715","6.304","0.11","0.4","29.8834","4.73314","59.02","0","SATNPRO1509","30.688","0.42984","5"],
    [49850,"HCEP03730542","2025-02-28 14:00:00","9.3407","3.2512","26.255","5.594","7.66","0.343","4.907","0.08","0.34","29.8876","4.73375","59.12","0","SATNPRO1509","30.754","0.43078","5"],
    [49851,"HCEP03730542","2025-02-28 14:15:00","9.3404","3.25083","26.369","5.605","7.66","0.497","8.568","0.1","1.05","29.8841","4.73325","59.23","0","SATNPRO1509","30.884","0.43258","5"],
    [49852,"HCEP03730542","2025-02-28 14:30:00","9.3406","3.25094","26.493","5.602","7.66","0.407","5.236","0.12","0.43","29.885","4.73338","59.21","0","SATNPRO1509","30.817999999999998","0.43168","5"],
    [49853,"HCEP03730542","2025-02-28 14:45:00","9.3407","3.25038","26.626","5.601","7.66","0.583","7.282","0.15","0.5","29.8791","4.73254","59.2","0","SATNPRO1509","30.791999999999998","0.4313","5"],
    [49854,"HCEP03730542","2025-02-28 15:00:00","9.3441","3.24976","26.799","5.599","7.66","0.425","6.234","0.07","1.12","29.8698","4.73116","59.17","0","SATNPRO1509","30.634","0.4291","5"],
    [49855,"HCEP03730542","2025-02-28 15:15:00","9.3472","3.2483","26.926","5.606","7.66","0.353","7.041","0.06","1.46","29.8524","4.72862","59.25","0","SATNPRO1509","30.692","0.42992","5"],
    [49856,"HCEP03730542","2025-02-28 15:30:00","9.3464","3.24605","27.071","5.614","7.67","0.434","7.164","0.09","1.19","29.8301","4.72546","59.32","0","SATNPRO1509","30.502","0.4272","5"],
    [49857,"HCEP03730542","2025-02-28 15:45:00","9.3424","3.24452","27.268","5.632","7.67","0.33","5.853","0.14","0.9","29.8177","4.72377","59.5","0","SATNPRO1509","30.572","0.4282","5"],
    [49858,"HCEP03730542","2025-02-28 16:00:00","9.3386","3.24281","27.391","5.646","7.67","0.298","3.886","0.07","0.54","29.8036","4.72183","59.64","0","SATNPRO1509","30.338","0.42496","5"],
    [49859,"HCEP03730542","2025-02-28 16:15:00","9.3373","3.24269","27.469","5.652","7.67","0.294","4.095","0.06","0.58","29.8033","4.72182","59.7","0","SATNPRO1509","30.256","0.42382","5"],
    [49860,"HCEP03730542","2025-02-28 16:30:00","9.338","3.24283","27.54","5.642","7.67","0.319","3.485","0.11","0.22","29.8041","4.72192","59.6","0","SATNPRO1509","30.278000000000002","0.42412","5"],
    [49861,"HCEP03730542","2025-02-28 16:45:00","9.3412","3.24445","27.571","5.637","7.67","0.372","4.838","0.11","0.56","29.818","4.72385","59.55","0","SATNPRO1509","30.314","0.42458","5"],
    [49862,"HCEP03730542","2025-02-28 17:00:00","9.3459","3.24599","27.589","5.62","7.66","0.342","5.566","0.11","0.98","29.8298","4.72545","59.38","0","SATNPRO1509","30.466","0.42672","5"],
    [49863,"HCEP03730542","2025-02-28 17:15:00","9.3487","3.24776","27.57","5.602","7.66","0.347","5.171","0.06","0.31","29.8454","4.72763","59.21","0","SATNPRO1509","30.566","0.42812","5"],
    [49864,"HCEP03730542","2025-02-28 17:30:00","9.3494","3.24811","27.531","5.6","7.66","0.361","5.455","0.13","0.23","29.8483","4.72804","59.18","0","SATNPRO1509","30.614","0.42882","5"],
    [49865,"HCEP03730542","2025-02-28 17:45:00","9.3498","3.24906","27.469","5.589","7.66","0.33","4.622","0.08","0.29","29.8577","4.72937","59.07","0","SATNPRO1509","30.753999999999998","0.43076","5"],
    [49866,"HCEP03730542","2025-02-28 18:00:00","9.3512","3.25052","27.388","5.603","7.66","0.363","5.946","0.08","0.6","29.8715","4.73131","59.23","0","SATNPRO1509","30.738","0.43056","5"],
    [49867,"HCEP03730542","2025-02-28 18:15:00","9.3502","3.25132","27.28","5.577","7.66","0.334","5.928","0.06","0.41","29.8805","4.73261","58.96","0","SATNPRO1509","30.774","0.43104","5"],
    [49868,"HCEP03730542","2025-02-28 18:30:00","9.349","3.25111","27.132","5.575","7.66","0.334","5.731","0.06","0.35","29.8794","4.73247","58.93","0","SATNPRO1509","30.686","0.4298","5"],
    [49869,"HCEP03730542","2025-02-28 18:45:00","9.3475","3.25046","26.988","5.567","7.66","0.324","5.949","0.04","1.18","29.8742","4.73174","58.84","0","SATNPRO1509","30.744","0.4306","5"],
    [49870,"HCEP03730542","2025-02-28 19:00:00","9.3475","3.25011","26.828","5.574","7.66","0.322","5.125","0.06","0.21","29.8706","4.73121","58.92","0","SATNPRO1509","30.834","0.43192","5"],
    [49871,"HCEP03730542","2025-02-28 19:15:00","9.3458","3.24972","26.657","5.578","7.66","0.32","5.107","0.05","0.31","29.8681","4.73088","58.95","0","SATNPRO1509","30.656","0.4294","5"],
    [49872,"HCEP03730542","2025-02-28 19:30:00","9.3393","3.24939","26.504","5.564","7.66","0.33","4.871","0.06","0.52","29.8702","4.7313","58.8","0","SATNPRO1509","30.682","0.4297","5"],
    [49873,"HCEP03730542","2025-02-28 19:45:00","9.3376","3.2499","26.337","5.556","7.66","0.3","4.393","0.04","0.25","29.8769","4.73227","58.71","0","SATNPRO1509","30.791999999999998","0.4313","5"],
    [49874,"HCEP03730542","2025-02-28 20:00:00","9.3369","3.25021","26.15","5.554","7.66","0.301","4.664","0.05","0.21","29.8807","4.73282","58.7","0","SATNPRO1509","30.828","0.43182","5"],
    [49875,"HCEP03730542","2025-02-28 20:15:00","9.3358","3.25064","25.921","5.549","7.66","0.315","4.519","0.09","0.21","29.8861","4.7336","58.64","0","SATNPRO1509","30.73","0.43042","5"],
    [49876,"HCEP03730542","2025-02-28 20:30:00","9.3361","3.25118","25.679","5.539","7.66","0.323","5.645","0.04","0.5","29.8916","4.73436","58.54","0","SATNPRO1509","30.648","0.42928","5"],
    [49877,"HCEP03730542","2025-02-28 20:45:00","9.3308","3.25181","25.413","5.539","7.66","0.306","4.877","0.06","1.06","29.9024","4.73599","58.53","0","SATNPRO1509","30.94","0.4333","5"],
    [49878,"HCEP03730542","2025-02-28 21:00:00","9.3273","3.25278","25.218","5.576","7.66","0.296","4.082","0.05","0.27","29.9153","4.73789","58.92","0","SATNPRO1509","31.07","0.4352","5"],
    [49879,"HCEP03730542","2025-02-28 21:15:00","9.3249","3.2531","25.007","5.599","7.66","0.298","4.37","0.04","0.19","29.9207","4.73869","59.17","0","SATNPRO1509","31.12","0.43586","5"],
    [49880,"HCEP03730542","2025-02-28 21:30:00","9.3261","3.25271","24.664","5.594","7.66","0.296","4.594","0.05","0.3","29.9159","4.73796","59.11","0","SATNPRO1509","30.952","0.43354","5"],
    [49881,"HCEP03730542","2025-02-28 21:45:00","9.3292","3.25214","24.46","5.586","7.66","0.311","5.362","0.07","1.77","29.9075","4.7367","59.04","0","SATNPRO1509","30.93","0.43324","5"],
    [49882,"HCEP03730542","2025-02-28 22:00:00","9.3302","3.25143","24.236","5.559","7.66","0.326","4.552","0.08","0.41","29.8995","4.73552","58.74","0","SATNPRO1509","30.75","0.43068","5"],
    [49883,"HCEP03730542","2025-02-28 22:15:00","9.3303","3.25108","24.085","5.54","7.66","0.314","4.589","0.08","0.39","29.896","4.735","58.54","0","SATNPRO1509","30.768","0.43094","5"],
    [49884,"HCEP03730542","2025-02-28 22:30:00","9.33","3.25029","24.001","5.522","7.66","0.269","4.166","0.03","0.36","29.8883","4.7339","58.35","0","SATNPRO1509","30.714","0.43018","5"],
    [49885,"HCEP03730542","2025-02-28 22:45:00","9.3302","3.25082","23.957","5.509","7.65","0.308","4.138","0.07","0.49","29.8935","4.73464","58.21","0","SATNPRO1509","30.748","0.43068","5"],
    [49886,"HCEP03730542","2025-02-28 23:00:00","9.3297","3.25116","23.966","5.501","7.65","0.342","5.025","0.1","0.55","29.8973","4.7352","58.14","0","SATNPRO1509","30.694","0.42996","5"],
    [49887,"HCEP03730542","2025-02-28 23:15:00","9.3282","3.24878","23.989","5.503","7.65","0.286","3.204","0.09","0.26","29.8744","4.73195","58.14","0","SATNPRO1509","30.774","0.43102","5"],
    [49888,"HCEP03730542","2025-02-28 23:30:00","9.3294","3.25086","24.015","5.506","7.65","0.294","3.493","0.06","0.17","29.8944","4.7348","58.19","0","SATNPRO1509","30.828","0.4318","5"],
    [49889,"HCEP03730542","2025-02-28 23:45:00","9.3303","3.25137","24.084","5.503","7.65","0.352","4.048","0.14","0.24","29.899","4.73543","58.16","0","SATNPRO1509","30.716","0.43024","5"],
    [49890,"HCEP03730542","2025-03-01 00:00:00","9.3307","3.25146","24.205","5.489","7.65","0.304","4.686","0.05","0.3","29.8995","4.7355","58.01","0","SATNPRO1509","30.664","0.42948","5"],
    [49891,"HCEP03730542","2025-03-01 00:15:00","9.3307","3.25109","24.329","5.468","7.65","0.288","4.112","0.07","0.32","29.8956","4.73496","57.78","0","SATNPRO1509","30.748","0.43062","5"],
    [49892,"HCEP03730542","2025-03-01 00:30:00","9.3307","3.25104","24.457","5.466","7.65","0.32","4.719","0.06","0.51","29.8951","4.7349","57.76","0","SATNPRO1509","30.37","0.42538","5"],
    [49893,"NA","2025-03-01 00:45:00",null,null,null,null,null,null,null,null,null,null,null,null,null,"SATNPRO1509","30.552","0.42794","5"],
    [49894,"HCEP03730542","2025-03-01 00:45:01","9.3307","3.24936","24.608","5.471","7.65","0.34","3.664","0.18","0.41","29.8779","4.73244","57.81","0","NA",null,null,null],
    [49895,"HCEP03730542","2025-03-01 01:00:00","9.3305","3.25129","24.817","5.478","7.65","0.324","4.344","0.08","0.23","29.8976","4.73527","57.89","0","SATNPRO1509","30.726","0.43036","5"],
    [49896,"HCEP03730542","2025-03-01 01:15:00","9.3308","3.25126","25.019","5.47","7.65","0.353","5.222","0.11","1.73","29.897","4.7352","57.8","0","SATNPRO1509","30.678","0.42972","5"],
    [49897,"HCEP03730542","2025-03-01 01:30:00","9.3308","3.25078","25.189","5.47","7.65","0.488","4.777","0.31","1.29","29.892","4.73449","57.8","0","SATNPRO1509","30.662","0.42942","5"],
    [49898,"HCEP03730542","2025-03-01 01:45:00","9.3306","3.25023","25.419","5.471","7.65","0.247","3.439","0.03","0.16","29.8865","4.73373","57.82","0","SATNPRO1509","30.716","0.43022","5"],
    [49899,"HCEP03730542","2025-03-01 02:00:00","9.3311","3.25084","25.627","5.471","7.65","0.285","4.142","0.04","0.32","29.8922","4.73454","57.81","0","SATNPRO1509","30.733999999999998","0.4305","5"],
    [49900,"HCEP03730542","2025-03-01 02:15:00","9.3311","3.25012","25.815","5.463","7.65","0.33","4.085","0.11","0.38","29.8847","4.73348","57.73","0","SATNPRO1509","30.728","0.43042","5"],
    [49901,"HCEP03730542","2025-03-01 02:30:00","9.3309","3.24933","26.011","5.465","7.65","0.293","4.028","0.06","0.79","29.8768","4.73236","57.75","0","SATNPRO1509","30.608","0.42872","5"],
    [49902,"HCEP03730542","2025-03-01 02:45:00","9.3311","3.249","26.21","5.471","7.65","0.37","3.774","0.26","0.33","29.8733","4.73187","57.8","0","SATNPRO1509","30.712","0.43016","5"],
    [49903,"HCEP03730542","2025-03-01 03:00:00","9.3306","3.24764","26.41","5.465","7.65","0.274","3.431","0.05","0.22","29.8597","4.72994","57.74","0","SATNPRO1509","30.233999999999998","0.42346","5"],
    [49904,"HCEP03730542","2025-03-01 03:15:00","9.3305","3.24772","26.63","5.466","7.65","0.279","3.428","0.06","0.22","29.8605","4.73008","57.75","0","SATNPRO1509","30.508","0.42734","5"],
    [49905,"HCEP03730542","2025-03-01 03:30:00","9.3309","3.24802","26.846","5.466","7.65","0.326","3.444","0.12","0.23","29.8631","4.73045","57.75","0","SATNPRO1509","30.528000000000002","0.42762","5"],
    [49906,"HCEP03730542","2025-03-01 03:45:00","9.3317","3.24928","27.058","5.461","7.65","0.291","3.56","0.05","0.3","29.8752","4.73219","57.7","0","SATNPRO1509","30.358","0.42522","5"],
    [49907,"HCEP03730542","2025-03-01 04:00:00","9.333","3.25012","27.232","5.455","7.65","0.672","22.092","0.63","30.5","29.8826","4.73322","57.64","0","SATNPRO1509","30.586000000000002","0.42842","5"],
    [49908,"HCEP03730542","2025-03-01 04:15:00","9.3339","3.25054","27.39","5.414","7.65","0.272","4.299","0.07","2.06","29.8861","4.73371","57.21","0","SATNPRO1509","30.892","0.43268","5"],
    [49909,"HCEP03730542","2025-03-01 04:30:00","9.3337","3.25038","27.534","5.38","7.64","0.412","4.109","0.14","0.27","29.8845","4.7335","56.85","0","SATNPRO1509","30.808","0.43154","5"],
    [49910,"HCEP03730542","2025-03-01 04:45:00","9.3338","3.25044","27.645","5.377","7.64","0.448","4.405","0.29","0.49","29.885","4.73358","56.82","0","SATNPRO1509","30.476","0.42686","5"],
    [49911,"HCEP03730542","2025-03-01 05:00:00","9.3342","3.25071","27.754","5.363","7.64","0.298","4.76","0.07","0.42","29.8874","4.73392","56.67","0","SATNPRO1509","30.45","0.4265","5"],
    [49912,"HCEP03730542","2025-03-01 05:15:00","9.3323","3.24967","27.833","5.367","7.64","0.278","4.126","0.05","0.48","29.8784","4.73267","56.72","0","SATNPRO1509","30.426","0.42614","5"],
    [49913,"HCEP03730542","2025-03-01 05:30:00","9.3256","3.24405","27.871","5.387","7.65","0.288","3.557","0.05","0.58","29.8268","4.72541","56.9","0","SATNPRO1509","30.182","0.42276","5"],
    [49914,"HCEP03730542","2025-03-01 05:45:00","9.3249","3.24467","27.887","5.403","7.65","0.315","3.664","0.12","0.33","29.8337","4.72641","57.07","0","SATNPRO1509","30.099999999999998","0.4216","5"],
    [49915,"HCEP03730542","2025-03-01 06:00:00","9.328","3.24636","27.854","5.379","7.64","0.346","3.788","0.15","0.21","29.8483","4.72844","56.82","0","SATNPRO1509","29.892","0.4187","5"],
    [49916,"HCEP03730542","2025-03-01 06:15:00","9.328","3.24619","27.837","5.352","7.64","0.268","3.661","0.04","0.16","29.8466","4.72821","56.54","0","SATNPRO1509","30.183999999999997","0.42278","5"],
    [49917,"HCEP03730542","2025-03-01 06:30:00","9.3291","3.24689","27.805","5.344","7.64","0.334","4.211","0.14","0.26","29.8528","4.72906","56.45","0","SATNPRO1509","30.004","0.42026","5"],
    [49918,"HCEP03730542","2025-03-01 06:45:00","9.3319","3.24901","27.767","5.342","7.64","0.302","5.346","0.04","0.5","29.872","4.73177","56.45","0","SATNPRO1509","30.25","0.4237","5"],
    [49919,"HCEP03730542","2025-03-01 07:00:00","9.3333","3.24961","27.7","5.328","7.64","0.33","5.272","0.09","0.42","29.8771","4.73246","56.3","0","SATNPRO1509","30.222","0.4233","5"],
    [49920,"HCEP03730542","2025-03-01 07:15:00","9.3241","3.24234","27.602","5.324","7.64","0.252","3.518","0.03","0.22","29.8107","4.72312","56.23","0","SATNPRO1509","29.904","0.41886","5"],
    [49921,"HCEP03730542","2025-03-01 07:30:00","9.333","3.24956","27.473","5.348","7.64","0.307","5.03","0.07","0.28","29.8768","4.7324","56.51","0","SATNPRO1509","30.150000000000002","0.42234","5"],
    [49922,"HCEP03730542","2025-03-01 07:45:00","9.3298","3.24648","27.298","5.311","7.64","0.357","4.338","0.18","0.36","29.8482","4.72836","56.1","0","SATNPRO1509","29.954","0.41956","5"],
    [49923,"HCEP03730542","2025-03-01 08:00:00","9.3315","3.24813","27.162","5.314","7.64","0.305","4.562","0.05","0.29","29.8637","4.73054","56.15","0","SATNPRO1509","29.988","0.42002","5"],
    [49924,"HCEP03730542","2025-03-01 08:15:00","9.3338","3.24981","27.042","5.289","7.64","0.289","5.112","0.04","0.3","29.8789","4.73267","55.88","0","SATNPRO1509","30.236","0.4235","5"],
    [49925,"HCEP03730542","2025-03-01 08:30:00","9.3343","3.24958","26.881","5.257","7.63","0.31","5.226","0.06","0.51","29.8762","4.73226","55.55","0","SATNPRO1509","30.128","0.42204","5"],
    [49926,"HCEP03730542","2025-03-01 08:45:00","9.3344","3.24943","26.736","5.238","7.63","0.34","6.024","0.06","0.58","29.8746","4.73202","55.35","0","SATNPRO1509","29.746","0.41664","5"],
    [49927,"HCEP03730542","2025-03-01 09:00:00","9.3352","3.24991","26.586","5.219","7.63","0.324","5.655","0.08","0.36","29.8789","4.73262","55.15","0","SATNPRO1509","30.080000000000002","0.42132","5"],
    [49928,"HCEP03730542","2025-03-01 09:15:00","9.3345","3.25002","26.399","5.206","7.63","0.359","5.112","0.13","0.44","29.8807","4.73288","55.01","0","SATNPRO1509","30.074","0.42122","5"],
    [49929,"HCEP03730542","2025-03-01 09:30:00","9.3319","3.24782","26.223","5.237","7.64","0.295","4.603","0.05","0.29","29.8605","4.73003","55.33","0","SATNPRO1509","30.168","0.42256","5"],
    [49930,"HCEP03730542","2025-03-01 09:45:00","9.3334","3.24872","26.029","5.276","7.64","0.279","6.458","0.07","7.14","29.8686","4.73114","55.75","0","SATNPRO1509","30.202","0.42306","5"],
    [49931,"HCEP03730542","2025-03-01 10:00:00","9.3288","3.24552","25.849","5.29","7.64","0.264","3.563","0.04","0.4","29.8399","4.7271","55.88","0","SATNPRO1509","30.266000000000002","0.42392","5"],
    [49932,"HCEP03730542","2025-03-01 10:15:00","9.3287","3.24373","25.661","5.351","7.64","0.273","3.646","0.13","2.32","29.8219","4.72452","56.52","0","SATNPRO1509","30.112","0.42178","5"],
    [49933,"HCEP03730542","2025-03-01 10:30:00","9.3296","3.24478","25.503","5.364","7.64","0.373","3.44","0.24","0.17","29.8318","4.72592","56.66","0","SATNPRO1509","30.06","0.42104","5"],
    [49934,"HCEP03730542","2025-03-01 10:45:00","9.3292","3.2437","25.322","5.354","7.64","0.231","3.173","0.04","0.11","29.8212","4.7244","56.55","0","SATNPRO1509","30.206","0.42306","5"],
    [49935,"HCEP03730542","2025-03-01 11:00:00","9.3278","3.2431","25.19","5.364","7.65","0.252","3.11","0.04","0.21","29.8164","4.72373","56.65","0","SATNPRO1509","30.28","0.4241","5"],
    [49936,"HCEP03730542","2025-03-01 11:15:00","9.328","3.24266","25.073","5.379","7.65","0.238","3.267","0.05","0.22","29.8118","4.72306","56.81","0","SATNPRO1509","30.006","0.42032","5"],
    [49937,"HCEP03730542","2025-03-01 11:30:00","9.3291","3.24131","24.997","5.377","7.64","0.238","3.799","0.03","0.25","29.7971","4.72093","56.78","0","SATNPRO1509","29.59","0.41444","5"],
    [49938,"HCEP03730542","2025-03-01 11:45:00","9.3297","3.2416","24.968","5.346","7.64","0.267","5.853","0.05","1.43","29.7996","4.72127","56.46","0","SATNPRO1509","29.52","0.41348","5"],
    [49939,"HCEP03730542","2025-03-01 12:00:00","9.33","3.24242","24.959","5.326","7.64","0.28","3.899","0.08","0.29","29.8077","4.72243","56.25","0","SATNPRO1509","29.652","0.4153","5"],
    [49940,"HCEP03730542","2025-03-01 12:15:00","9.3303","3.24099","24.981","5.318","7.64","0.291","4.757","0.16","2.24","29.7929","4.7203","56.16","0","SATNPRO1509","29.54","0.41376","5"],
    [49941,"HCEP03730542","2025-03-01 12:30:00","9.3288","3.23985","25.027","5.288","7.64","0.246","4.113","0.02","0.19","29.7825","4.71885","55.84","0","SATNPRO1509","29.292","0.41028","5"],
    [49942,"HCEP03730542","2025-03-01 12:45:00","9.3249","3.23852","25.091","5.271","7.64","0.234","3.928","0.02","0.16","29.7722","4.71746","55.65","0","SATNPRO1509","29.422","0.41214","5"],
    [49943,"HCEP03730542","2025-03-01 13:00:00","9.3196","3.23665","25.17","5.296","7.64","0.225","4.007","0.02","1.34","29.7576","4.71546","55.9","0","SATNPRO1509","29.616","0.41476","5"],
    [49944,"HCEP03730542","2025-03-01 13:15:00","9.3222","3.23811","25.275","5.364","7.64","0.245","3.791","0.03","0.34","29.7702","4.71723","56.63","0","SATNPRO1509","29.634","0.41506","5"],
    [49945,"HCEP03730542","2025-03-01 13:30:00","9.3239","3.23898","25.379","5.335","7.64","0.242","3.923","0.03","0.43","29.7775","4.71825","56.33","0","SATNPRO1509","29.446","0.41246","5"],
    [49946,"HCEP03730542","2025-03-01 13:45:00","9.3219","3.23785","25.516","5.312","7.64","0.249","4.832","0.03","1.96","29.7677","4.71689","56.08","0","SATNPRO1509","29.384","0.41158","5"],
    [49947,"HCEP03730542","2025-03-01 14:00:00","9.32","3.23705","25.655","5.304","7.64","0.247","4.261","0.02","0.61","29.7611","4.71598","55.98","0","SATNPRO1509","29.31","0.41054","5"],
    [49948,"HCEP03730542","2025-03-01 14:15:00","9.321","3.23747","25.787","5.327","7.64","0.238","4.451","0.02","0.17","29.7645","4.71646","56.23","0","SATNPRO1509","29.312","0.41058","5"],
    [49949,"HCEP03730542","2025-03-01 14:30:00","9.3226","3.23806","25.907","5.296","7.64","0.25","5.765","0.02","0.96","29.7691","4.71709","55.91","0","SATNPRO1509","29.222","0.40934","5"],
    [49950,"HCEP03730542","2025-03-01 14:45:00","9.3237","3.23821","26.074","5.254","7.64","0.272","4.96","0.07","0.38","29.7697","4.71717","55.47","0","SATNPRO1509","29.195999999999998","0.40898","5"],
    [49951,"HCEP03730542","2025-03-01 15:00:00","9.3257","3.23889","26.193","5.234","7.63","0.311","17.052","0.04","3.06","29.7748","4.71788","55.27","0","SATNPRO1509","29.21","0.40912","5"],
    [49952,"HCEP03730542","2025-03-01 15:15:00","9.328","3.23904","26.329","5.214","7.63","0.268","7.396","0.03","0.51","29.7744","4.71778","55.05","0","SATNPRO1509","29.212","0.40914","5"],
    [49953,"HCEP03730542","2025-03-01 15:30:00","9.3276","3.238","26.496","5.205","7.63","0.307","5.727","0.1","0.29","29.7641","4.71632","54.95","0","SATNPRO1509","29.066","0.40708","5"],
    [49954,"HCEP03730542","2025-03-01 15:45:00","9.339","3.23758","26.706","5.235","7.64","0.238","4.297","0.03","0.37","29.7502","4.71414","55.28","0","SATNPRO1509","29.582","0.41436","5"],
    [49955,"HCEP03730542","2025-03-01 16:00:00","9.3523","3.23818","26.844","5.35","7.65","0.235","3.613","0.03","0.25","29.7452","4.71319","56.51","0","SATNPRO1509","29.706","0.41608","5"],
    [49956,"HCEP03730542","2025-03-01 16:15:00","9.3519","3.2378","27.004","5.435","7.65","0.289","4.176","0.08","0.6","29.7416","4.7127","57.41","0","SATNPRO1509","29.676","0.41568","5"],
    [49957,"HCEP03730542","2025-03-01 16:30:00","9.355","3.23789","27.141","5.45","7.65","0.251","3.685","0.06","0.32","29.7399","4.71239","57.57","0","SATNPRO1509","29.754","0.41672","5"],
    [49958,"HCEP03730542","2025-03-01 16:45:00","9.3595","3.23834","27.277","5.455","7.65","0.24","3.29","0.06","0.18","29.7407","4.71243","57.62","0","SATNPRO1509","29.794","0.41732","5"],
    [49959,"HCEP03730542","2025-03-01 17:00:00","9.3598","3.23888","27.391","5.462","7.65","0.243","3.966","0.03","0.37","29.7458","4.71317","57.7","0","SATNPRO1509","29.836","0.41792","5"],
    [49960,"HCEP03730542","2025-03-01 17:15:00","9.358","3.23967","27.433","5.453","7.65","0.362","5.979","0.12","1.13","29.7554","4.71457","57.6","0","SATNPRO1509","29.811999999999998","0.41756","5"],
    [49961,"HCEP03730542","2025-03-01 17:30:00","9.3531","3.24017","27.48","5.424","7.65","0.284","4.414","0.13","0.59","29.7646","4.71598","57.3","0","SATNPRO1509","29.746","0.41664","5"],
    [49962,"HCEP03730542","2025-03-01 17:45:00","9.3437","3.24026","27.48","5.36","7.64","0.281","5.358","0.04","0.39","29.7733","4.71741","56.62","0","SATNPRO1509","29.432","0.41228","5"],
    [49963,"HCEP03730542","2025-03-01 18:00:00","9.3387","3.24054","27.468","5.282","7.63","0.305","6.119","0.07","0.36","29.7803","4.7185","55.79","0","SATNPRO1509","29.384","0.41158","5"],
    [49964,"HCEP03730542","2025-03-01 18:15:00","9.3387","3.24059","27.432","5.203","7.63","0.291","5.891","0.05","0.42","29.7808","4.71856","54.95","0","SATNPRO1509","29.186","0.40878","5"],
    [49965,"HCEP03730542","2025-03-01 18:30:00","9.3392","3.24049","27.404","5.169","7.63","0.277","5.101","0.05","0.13","29.7793","4.71835","54.6","0","SATNPRO1509","29.016000000000002","0.4064","5"],
    [49966,"HCEP03730542","2025-03-01 18:45:00","9.3381","3.23987","27.322","5.168","7.63","0.295","5.642","0.1","0.34","29.7741","4.71761","54.58","0","SATNPRO1509","29.238","0.40952","5"],
    [49967,"HCEP03730542","2025-03-01 19:00:00","9.336","3.24018","27.248","5.152","7.63","0.285","5.836","0.04","0.3","29.7789","4.71834","54.4","0","SATNPRO1509","29.212","0.40918","5"],
    [49968,"HCEP03730542","2025-03-01 19:15:00","9.3373","3.24083","27.134","5.148","7.63","0.27","6.109","0.03","0.5","29.7846","4.71911","54.37","0","SATNPRO1509","29.214","0.40916","5"],
    [49969,"HCEP03730542","2025-03-01 19:30:00","9.3398","3.24229","26.997","5.158","7.63","0.275","5.858","0.03","0.23","29.7974","4.7209","54.49","0","SATNPRO1509","29.29","0.4103","5"],
    [49970,"HCEP03730542","2025-03-01 19:45:00","9.3369","3.24201","26.864","5.143","7.63","0.265","6.004","0.03","0.27","29.797","4.72088","54.32","0","SATNPRO1509","29.11","0.40774","5"],
    [49971,"HCEP03730542","2025-03-01 20:00:00","9.3354","3.24131","26.74","5.114","7.62","0.265","5.804","0.02","0.24","29.7912","4.72008","54.02","0","SATNPRO1509","29.177999999999997","0.40868","5"],
    [49972,"HCEP03730542","2025-03-01 20:15:00","9.3344","3.24072","26.574","5.117","7.62","0.277","5.854","0.03","0.19","29.786","4.71934","54.04","0","SATNPRO1509","28.983999999999998","0.40598","5"],
    [49973,"HCEP03730542","2025-03-01 20:30:00","9.3315","3.239","26.403","5.122","7.63","0.268","5.609","0.03","0.16","29.771","4.71723","54.09","0","SATNPRO1509","29.058","0.407","5"],
    [49974,"HCEP03730542","2025-03-01 20:45:00","9.3291","3.23815","26.261","5.148","7.63","0.259","5.532","0.02","0.21","29.7644","4.71633","54.35","0","SATNPRO1509","28.908","0.4049","5"],
    [49975,"HCEP03730542","2025-03-01 21:00:00","9.3281","3.23896","26.116","5.158","7.63","0.279","6.439","0.03","0.43","29.7736","4.71766","54.46","0","SATNPRO1509","29.124","0.4079","5"],
    [49976,"HCEP03730542","2025-03-01 21:15:00","9.3294","3.24009","25.945","5.154","7.63","0.269","6.267","0.04","0.25","29.7841","4.71911","54.42","0","SATNPRO1509","29.03","0.40664","5"],
    [49977,"HCEP03730542","2025-03-01 21:30:00","9.3275","3.23935","25.777","5.141","7.63","13.841","673.852","4.49","166.99","29.7782","4.7183","54.28","0","SATNPRO1509","29.154","0.40836","5"],
    [49978,"HCEP03730542","2025-03-01 21:45:00","9.3173","3.23437","25.583","5.175","7.64","0.245","6.163","0.02","2.1","29.7361","4.71245","54.61","0","SATNPRO1509","29.2","0.40902","5"],
    [49979,"HCEP03730542","2025-03-01 22:00:00","9.3281","3.24011","25.401","5.282","7.63","0.273","6.377","0.03","0.45","29.7856","4.71932","55.78","0","SATNPRO1509","29.276","0.41008","5"],
    [49980,"HCEP03730542","2025-03-01 22:15:00","9.3285","3.24047","25.21","5.196","7.63","0.269","5.933","0.03","0.57","29.789","4.7198","54.87","0","SATNPRO1509","29.374","0.41144","5"],
    [49981,"HCEP03730542","2025-03-01 22:30:00","9.3266","3.24041","25.007","5.201","7.63","0.268","5.765","0.04","0.5","29.79","4.71997","54.92","0","SATNPRO1509","29.496","0.41318","5"],
    [49982,"HCEP03730542","2025-03-01 22:45:00","9.3288","3.24155","24.817","5.206","7.63","0.268","5.97","0.04","0.44","29.8","4.72134","54.97","0","SATNPRO1509","29.451999999999998","0.41248","5"],
    [49983,"HCEP03730542","2025-03-01 23:00:00","9.325","3.24044","24.709","5.192","7.63","0.261","4.705","0.03","0.26","29.7918","4.72023","54.83","0","SATNPRO1509","29.445999999999998","0.41244","5"],
    [49984,"HCEP03730542","2025-03-01 23:15:00","9.3267","3.24129","24.549","5.212","7.63","0.254","5.062","0.03","0.37","29.7992","4.72125","55.04","0","SATNPRO1509","29.314","0.41062","5"],
    [49985,"HCEP03730542","2025-03-01 23:30:00","9.3262","3.24112","24.406","5.191","7.63","0.283","6.739","0.05","0.35","29.7979","4.72107","54.82","0","SATNPRO1509","29.503999999999998","0.41324","5"],
    [49986,"HCEP03730542","2025-03-01 23:45:00","9.3278","3.24207","24.372","5.177","7.63","0.279","5.891","0.06","0.31","29.8063","4.72224","54.68","0","SATNPRO1509","29.532","0.41362","5"],
    [49987,"HCEP03730542","2025-03-02 00:00:00","9.3284","3.2424","24.45","5.154","7.63","0.257","5.622","0.03","0.26","29.809","4.72262","54.43","0","SATNPRO1509","29.216","0.40924","5"],
    [49988,"HCEP03730542","2025-03-02 00:15:00","9.3285","3.24254","24.519","5.129","7.62","0.226","5.885","0.01","0.18","29.8103","4.7228","54.16","0","SATNPRO1509","29.348","0.41106","5"],
    [49989,"HCEP03730542","2025-03-02 00:30:00","9.3288","3.24268","24.581","5.112","7.62","0.263","6.322","0.05","0.31","29.8116","4.72298","53.99","0","SATNPRO1509","29.201999999999998","0.40904","5"],
    [49990,"HCEP03730542","2025-03-02 00:45:00","9.3288","3.24284","24.712","5.098","7.62","0.347","6.637","0.21","0.44","29.8131","4.72321","53.84","0","SATNPRO1509","29.240000000000002","0.40954","5"],
    [49991,"HCEP03730542","2025-03-02 01:00:00","9.3296","3.24311","24.814","5.086","7.62","0.27","7.483","0.02","0.5","29.8151","4.72349","53.72","0","SATNPRO1509","29.382","0.41152","5"],
    [49992,"HCEP03730542","2025-03-02 01:15:00","9.3286","3.24335","24.937","5.065","7.62","0.26","7.648","0.03","0.45","29.8183","4.72397","53.5","0","SATNPRO1509","29.618","0.41484","5"],
    [49993,"HCEP03730542","2025-03-02 01:30:00","9.3303","3.24393","25.096","5.05","7.62","0.277","7.81","0.04","0.59","29.8228","4.72459","53.34","0","SATNPRO1509","29.142","0.40822","5"],
    [49994,"HCEP03730542","2025-03-02 01:45:00","9.3291","3.24399","25.271","5.007","7.61","0.278","8.073","0.03","0.46","29.8243","4.72484","52.89","0","SATNPRO1509","29.386","0.41158","5"],
    [49995,"HCEP03730542","2025-03-02 02:00:00","9.3299","3.24411","25.436","4.969","7.61","0.324","9.391","0.06","0.95","29.8247","4.72489","52.49","0","SATNPRO1509","29.214000000000002","0.40918","5"],
    [49996,"HCEP03730542","2025-03-02 02:15:00","9.3305","3.24419","25.617","4.958","7.61","0.311","8.402","0.04","0.63","29.825","4.72494","52.37","0","SATNPRO1509","29.288","0.41022","5"],
    [49997,"HCEP03730542","2025-03-02 02:30:00","9.33","3.24411","25.779","4.961","7.61","0.28","7.532","0.04","1.46","29.8245","4.72488","52.4","0","SATNPRO1509","29.262","0.4099","5"],
    [49998,"HCEP03730542","2025-03-02 02:45:00","9.3313","3.2439","25.974","4.987","7.61","0.286","6.985","0.04","0.68","29.8212","4.7244","52.68","0","SATNPRO1509","29.52","0.41348","5"],
    [49999,"HCEP03730542","2025-03-02 03:00:00","9.3313","3.243","26.143","5.019","7.62","0.283","7.222","0.04","0.99","29.812","4.72309","53.01","0","SATNPRO1509","29.282","0.41014","5"],
    [50000,"HCEP03730542","2025-03-02 03:15:00","9.3313","3.24323","26.34","5.05","7.62","0.313","8.247","0.11","3.96","29.8143","4.72344","53.34","0","SATNPRO1509","29.394000000000002","0.41172","5"],
    [50001,"HCEP03730542","2025-03-02 03:30:00","9.3304","3.24409","26.523","5.04","7.61","0.295","5.853","0.05","0.54","29.8237","4.7248","53.24","0","SATNPRO1509","29.406","0.41186","5"],
    [50002,"HCEP03730542","2025-03-02 03:45:00","9.3279","3.24338","26.728","4.989","7.61","0.248","5.204","0.03","0.51","29.8185","4.72412","52.69","0","SATNPRO1509","29.294","0.4103","5"],
    [50003,"HCEP03730542","2025-03-02 04:00:00","9.3289","3.24327","26.932","4.982","7.61","0.265","4.987","0.03","0.56","29.8165","4.72383","52.61","0","SATNPRO1509","29.114","0.4078","5"],
    [50004,"HCEP03730542","2025-03-02 04:15:00","9.33","3.24363","27.124","4.957","7.61","0.268","6.336","0.02","0.3","29.8191","4.72418","52.36","0","SATNPRO1509","29.048","0.40684","5"],
    [50005,"HCEP03730542","2025-03-02 04:30:00","9.33","3.24355","27.311","4.912","7.61","0.263","7.137","0.02","0.37","29.8182","4.72407","51.88","0","SATNPRO1509","29.174","0.40864","5"],
    [50006,"HCEP03730542","2025-03-02 04:45:00","9.3298","3.24338","27.475","4.906","7.61","0.263","6.926","0.02","0.38","29.8166","4.72385","51.81","0","SATNPRO1509","29.052","0.40694","5"],
    [50007,"HCEP03730542","2025-03-02 05:00:00","9.3292","3.24331","27.623","4.919","7.61","0.276","6.342","0.08","0.37","29.8163","4.72383","51.95","0","SATNPRO1509","29.082","0.40736","5"],
    [50008,"HCEP03730542","2025-03-02 05:15:00","9.3293","3.24352","27.741","4.93","7.61","0.271","5.557","0.05","0.21","29.8183","4.72412","52.07","0","SATNPRO1509","29.084","0.40734","5"],
    [50009,"HCEP03730542","2025-03-02 05:30:00","9.3279","3.24306","27.851","4.949","7.61","0.266","5.949","0.03","0.51","29.8148","4.72365","52.27","0","SATNPRO1509","29.43","0.41222","5"],
    [50010,"HCEP03730542","2025-03-02 05:45:00","9.3288","3.24288","27.898","5","7.62","0.293","7.942","0.11","8.97","29.8122","4.72326","52.8","0","SATNPRO1509","29.406","0.4119","5"],
    [50011,"HCEP03730542","2025-03-02 06:00:00","9.3268","3.24201","27.908","5.052","7.62","0.232","3.742","0.02","0.14","29.805","4.72228","53.36","0","SATNPRO1509","29.674","0.41562","5"],
    [50012,"HCEP03730542","2025-03-02 06:15:00","9.3247","3.24049","27.909","5.116","7.63","0.252","3.719","0.04","0.31","29.7913","4.72035","54.01","0","SATNPRO1509","29.572","0.41422","5"],
    [50013,"HCEP03730542","2025-03-02 06:30:00","9.3249","3.23974","27.894","5.17","7.63","0.294","3.238","0.2","0.19","29.7834","4.71922","54.59","0","SATNPRO1509","29.419999999999998","0.41206","5"],
    [50014,"HCEP03730542","2025-03-02 06:45:00","9.327","3.24059","27.874","5.171","7.63","0.248","3.117","0.06","0.11","29.7904","4.72018","54.6","0","SATNPRO1509","29.142","0.40818","5"],
    [50015,"HCEP03730542","2025-03-02 07:00:00","9.3266","3.24012","27.84","5.158","7.63","0.283","4.456","0.08","3.11","29.7859","4.71954","54.47","0","SATNPRO1509","29.39","0.41166","5"],
    [50016,"HCEP03730542","2025-03-02 07:15:00","9.3293","3.23957","27.774","5.154","7.63","0.292","4.26","0.06","0.24","29.7781","4.71836","54.42","0","SATNPRO1509","29.148","0.40826","5"],
    [50017,"HCEP03730542","2025-03-02 07:30:00","9.33","3.24077","27.698","5.121","7.62","0.267","4.174","0.04","0.26","29.7897","4.72002","54.08","0","SATNPRO1509","29.102","0.40762","5"],
    [50018,"HCEP03730542","2025-03-02 07:45:00","9.3363","3.23795","27.585","5.091","7.62","0.263","4.436","0.02","0.4","29.7559","4.71505","53.76","0","SATNPRO1509","28.888","0.40464","5"],
    [50019,"HCEP03730542","2025-03-02 08:00:00","9.3419","3.23809","27.448","5.086","7.62","0.306","4.647","0.07","0.37","29.7527","4.71448","53.71","0","SATNPRO1509","29.09","0.40748","5"],
    [50020,"HCEP03730542","2025-03-02 08:15:00","9.3484","3.23833","27.288","5.093","7.62","0.244","4.84","0.03","1.05","29.7498","4.71395","53.79","0","SATNPRO1509","29.04","0.40678","5"],
    [50021,"HCEP03730542","2025-03-02 08:30:00","9.3464","3.23931","27.123","5.093","7.62","0.247","4.492","0.03","0.36","29.7615","4.71564","53.79","0","SATNPRO1509","29.114","0.4078","5"],
    [50022,"HCEP03730542","2025-03-02 08:45:00","9.3427","3.23996","26.964","5.059","7.62","0.255","4.702","0.03","0.29","29.7713","4.71711","53.43","0","SATNPRO1509","28.862","0.40426","5"],
    [50023,"HCEP03730542","2025-03-02 09:00:00","9.3385","3.24004","26.815","5.027","7.62","0.259","5.093","0.04","0.34","29.7757","4.7178","53.09","0","SATNPRO1509","29.058","0.40704","5"],
    [50024,"HCEP03730542","2025-03-02 09:15:00","9.334","3.23998","26.653","5.025","7.62","0.267","9.987","0.03","3.87","29.7788","4.71832","53.06","0","SATNPRO1509","28.844","0.40398","5"],
    [50025,"HCEP03730542","2025-03-02 09:30:00","9.3303","3.24112","26.473","5.028","7.62","0.296","5.415","0.06","1.01","29.7936","4.72049","53.09","0","SATNPRO1509","29.228","0.40936","5"],
    [50026,"HCEP03730542","2025-03-02 09:45:00","9.3317","3.24283","26.281","5.027","7.61","0.267","6.841","0.03","1.53","29.81","4.7228","53.09","0","SATNPRO1509","29.076","0.40724","5"],
    [50027,"HCEP03730542","2025-03-02 10:00:00","9.3331","3.2429","26.104","4.933","7.61","0.305","6.223","0.05","0.44","29.8095","4.7227","52.1","0","SATNPRO1509","28.924","0.40516","5"],
    [50028,"HCEP03730542","2025-03-02 10:15:00","9.3271","3.24116","25.904","4.919","7.62","0.271","4.241","0.08","0.34","29.7969","4.72099","51.95","0","SATNPRO1509","29.445999999999998","0.41246","5"],
    [50029,"HCEP03730542","2025-03-02 10:30:00","9.3281","3.23882","25.702","5.061","7.62","0.358","5.766","0.06","1.05","29.7723","4.71744","53.44","0","SATNPRO1509","29.291999999999998","0.41028","5"],
    [50030,"HCEP03730542","2025-03-02 10:45:00","9.333","3.24057","25.486","5.081","7.62","0.437","5.229","0.06","0.26","29.7862","4.71932","53.66","0","SATNPRO1509","29.012","0.40634","5"],
    [50031,"HCEP03730542","2025-03-02 11:00:00","9.3391","3.23946","25.268","5.016","7.62","0.251","5.54","0.02","0.84","29.7699","4.71687","52.98","0","SATNPRO1509","28.884","0.40456","5"],
    [50032,"HCEP03730542","2025-03-02 11:15:00","9.3457","3.23893","25.041","5.02","7.62","0.366","4.672","0.04","0.4","29.7591","4.71519","53.02","0","SATNPRO1509","28.812","0.40354","5"],
    [50033,"HCEP03730542","2025-03-02 11:30:00","9.3496","3.23934","24.848","5.002","7.61","0.492","5.382","0.03","0.34","29.7601","4.71525","52.83","0","SATNPRO1509","28.656","0.4014","5"],
    [50034,"HCEP03730542","2025-03-02 11:45:00","9.3424","3.24017","24.72","4.966","7.61","0.441","5.5","0.04","0.81","29.7745","4.71744","52.45","0","SATNPRO1509","28.87","0.40436","5"],
    [50035,"HCEP03730542","2025-03-02 12:00:00","9.3356","3.23994","24.608","4.97","7.61","0.411","4.797","0.16","0.62","29.778","4.71805","52.49","0","SATNPRO1509","29.067999999999998","0.40716","5"],
    [50036,"HCEP03730542","2025-03-02 12:15:00","9.334","3.24036","24.57","5.001","7.62","0.425","4.809","0.06","0.46","29.7836","4.71888","52.81","0","SATNPRO1509","29.212","0.40914","5"],
    [50037,"HCEP03730542","2025-03-02 12:30:00","9.3345","3.24021","24.537","5.016","7.62","0.33","5.278","0.06","0.8","29.7816","4.71859","52.97","0","SATNPRO1509","28.978","0.40592","5"],
    [50038,"HCEP03730542","2025-03-02 12:45:00","9.3348","3.23978","24.561","5.022","7.62","0.317","7.606","0.04","1.57","29.777","4.71792","53.03","0","SATNPRO1509","29.104","0.40764","5"],
    [50039,"HCEP03730542","2025-03-02 13:00:00","9.3318","3.23805","24.666","5.028","7.62","0.256","5.154","0.02","2.02","29.7619","4.71583","53.09","0","SATNPRO1509","29.060000000000002","0.40704","5"],
    [50040,"HCEP03730542","2025-03-02 13:15:00","9.3399","3.23999","24.718","5.03","7.61","0.349","7.045","0.02","0.38","29.7748","4.71753","53.12","0","SATNPRO1509","28.946","0.40546","5"],
    [50041,"HCEP03730542","2025-03-02 13:30:00","9.3396","3.24107","24.784","4.941","7.61","0.359","6.552","0.05","0.34","29.7861","4.71915","52.19","0","SATNPRO1509","28.61","0.40072","5"],
    [50042,"HCEP03730542","2025-03-02 13:45:00","9.335","3.23944","24.864","4.908","7.61","0.457","6.043","0.06","0.66","29.7733","4.71741","51.83","0","SATNPRO1509","28.92","0.40508","5"],
    [50043,"HCEP03730542","2025-03-02 14:00:00","9.3464","3.24156","24.975","4.941","7.61","0.472","6.309","0.12","0.84","29.7853","4.71892","52.2","0","SATNPRO1509","28.768","0.40296","5"],
    [50044,"HCEP03730542","2025-03-02 14:15:00","9.3518","3.24216","25.125","4.849","7.6","0.42","8.512","0.05","0.69","29.7868","4.71905","51.23","0","SATNPRO1509","28.628","0.40098","5"],
    [50045,"HCEP03730542","2025-03-02 14:30:00","9.3578","3.24188","25.257","4.783","7.6","0.354","7.26","0.03","0.49","29.779","4.71783","50.53","0","SATNPRO1509","28.46","0.39864","5"],
    [50046,"HCEP03730542","2025-03-02 14:45:00","9.3628","3.24175","25.374","4.779","7.6","0.442","9.104","0.06","1.39","29.7734","4.71694","50.5","0","SATNPRO1509","28.7","0.402","5"],
    [50047,"HCEP03730542","2025-03-02 15:00:00","9.3651","3.24158","25.541","4.787","7.6","0.48","7.416","0.09","0.56","29.7697","4.71639","50.58","0","SATNPRO1509","28.666","0.40154","5"],
    [50048,"HCEP03730542","2025-03-02 15:15:00","9.3676","3.2418","25.666","4.801","7.6","0.384","10.002","0.05","0.67","29.7699","4.71637","50.74","0","SATNPRO1509","28.57","0.40018","5"],
    [50049,"HCEP03730542","2025-03-02 15:30:00","9.3628","3.24108","25.801","4.84","7.6","0.328","7.032","0.05","0.64","29.7665","4.71598","51.14","0","SATNPRO1509","28.826","0.40374","5"],
    [50050,"HCEP03730542","2025-03-02 15:45:00","9.3659","3.24129","26.04","4.921","7.61","0.302","6.803","0.03","0.66","29.7659","4.71586","52","0","SATNPRO1509","29.018","0.40644","5"],
    [50051,"HCEP03730542","2025-03-02 16:00:00","9.3677","3.24135","26.205","4.939","7.61","0.35","7.243","0.03","0.91","29.7649","4.71569","52.19","0","SATNPRO1509","28.882","0.40456","5"],
    [50052,"HCEP03730542","2025-03-02 16:15:00","9.3623","3.23974","26.364","4.95","7.61","0.292","8.378","0.04","1.28","29.753","4.71409","52.3","0","SATNPRO1509","28.866","0.4043","5"],
    [50053,"HCEP03730542","2025-03-02 16:30:00","9.3581","3.23878","26.52","4.951","7.61","0.324","10.175","0.03","0.76","29.7467","4.71328","52.3","0","SATNPRO1509","28.588","0.40044","5"],
    [50054,"HCEP03730542","2025-03-02 16:45:00","9.3675","3.24112","26.732","4.97","7.61","0.255","6.507","0.02","0.91","29.7626","4.71539","52.52","0","SATNPRO1509","28.946","0.40544","5"],
    [50055,"HCEP03730542","2025-03-02 17:00:00","9.3707","3.24239","26.838","4.951","7.61","0.371","8.451","0.05","1.58","29.7728","4.71679","52.32","0","SATNPRO1509","28.938","0.4053","5"],
    [50056,"HCEP03730542","2025-03-02 17:15:00","9.3734","3.24346","26.988","4.929","7.61","0.271","5.768","0.02","0.22","29.7813","4.71797","52.09","0","SATNPRO1509","28.88","0.40454","5"],
    [50057,"HCEP03730542","2025-03-02 17:30:00","9.3752","3.2438","27.108","4.907","7.61","0.268","5.593","0.05","0.42","29.7833","4.71823","51.87","0","SATNPRO1509","28.99","0.40606","5"],
    [50058,"HCEP03730542","2025-03-02 17:45:00","9.3775","3.24427","27.219","4.91","7.61","0.316","5.409","0.13","0.29","29.786","4.71859","51.9","0","SATNPRO1509","29.228","0.40936","5"],
    [50059,"HCEP03730542","2025-03-02 18:00:00","9.3804","3.24485","27.278","4.934","7.61","0.293","6.421","0.04","0.51","29.7894","4.71903","52.16","0","SATNPRO1509","29.282","0.41018","5"],
    [50060,"HCEP03730542","2025-03-02 18:15:00","9.3831","3.2454","27.336","4.967","7.61","0.229","4.931","0.02","0.24","29.7928","4.71947","52.52","0","SATNPRO1509","29.392","0.41168","5"],
    [50061,"HCEP03730542","2025-03-02 18:30:00","9.3833","3.24562","27.358","4.989","7.61","0.3","14.813","0.13","15.3","29.7949","4.71976","52.75","0","SATNPRO1509","29.259999999999998","0.40982","5"],
    [50062,"HCEP03730542","2025-03-02 18:45:00","9.384","3.24635","27.37","4.956","7.61","2.321","25.569","3.63","29.91","29.8017","4.72073","52.41","0","SATNPRO1509","29.158","0.4084","5"],
    [50063,"HCEP03730542","2025-03-02 19:00:00","9.3828","3.24676","27.317","4.918","7.6","0.256","7","0.03","0.4","29.8069","4.72149","52","0","SATNPRO1509","29.232","0.40946","5"],
    [50064,"HCEP03730542","2025-03-02 19:15:00","9.38","3.2469","27.278","4.875","7.6","0.33","6.61","0.2","0.34","29.8106","4.72207","51.54","0","SATNPRO1509","28.902","0.40482","5"],
    [50065,"HCEP03730542","2025-03-02 19:30:00","9.3803","3.24676","27.243","4.837","7.6","0.28","7.756","0.03","0.76","29.8091","4.72184","51.14","0","SATNPRO1509","28.862000000000002","0.4043","5"],
    [50066,"HCEP03730542","2025-03-02 19:45:00","9.3799","3.2467","27.16","4.829","7.6","0.229","5.621","0.02","0.33","29.8088","4.7218","51.06","0","SATNPRO1509","28.82","0.40366","5"],
    [50067,"HCEP03730542","2025-03-02 20:00:00","9.3816","3.24635","27.087","4.837","7.6","0.249","5.712","0.02","0.51","29.8038","4.72105","51.14","0","SATNPRO1509","29.11","0.40772","5"],
    [50068,"HCEP03730542","2025-03-02 20:15:00","9.382","3.24596","26.982","4.865","7.6","0.231","5.198","0.02","0.34","29.7996","4.72045","51.44","0","SATNPRO1509","29.142","0.40818","5"],
    [50069,"HCEP03730542","2025-03-02 20:30:00","9.382","3.24555","26.846","4.898","7.6","0.229","5.004","0.01","0.23","29.7955","4.71984","51.78","0","SATNPRO1509","29.444","0.4124","5"],
    [50070,"HCEP03730542","2025-03-02 20:45:00","9.3809","3.24509","26.735","4.916","7.61","0.215","4.018","0.02","0.12","29.7918","4.71933","51.98","0","SATNPRO1509","29.338","0.41092","5"],
    [50071,"HCEP03730542","2025-03-02 21:00:00","9.3795","3.2446","26.606","4.938","7.61","0.226","4.123","0.02","0.13","29.788","4.7188","52.2","0","SATNPRO1509","29.426","0.41216","5"],
    [50072,"HCEP03730542","2025-03-02 21:15:00","9.3769","3.24371","26.475","4.951","7.61","0.217","4.391","0.02","0.28","29.7811","4.71786","52.33","0","SATNPRO1509","29.154","0.40834","5"],
    [50073,"HCEP03730542","2025-03-02 21:30:00","9.3747","3.24316","26.392","4.975","7.61","0.228","4.229","0.01","0.33","29.7775","4.71737","52.58","0","SATNPRO1509","29.224","0.40934","5"],
    [50074,"HCEP03730542","2025-03-02 21:45:00","9.3725","3.24242","26.269","4.995","7.61","0.229","5.257","0.01","0.73","29.7718","4.71659","52.79","0","SATNPRO1509","29.276","0.41006","5"],
    [50075,"HCEP03730542","2025-03-02 22:00:00","9.3669","3.24186","26.124","5.017","7.61","0.217","3.726","0.03","1.08","29.7708","4.71654","53.02","0","SATNPRO1509","29.324","0.41076","5"],
    [50076,"HCEP03730542","2025-03-02 22:15:00","9.3687","3.24199","26.02","5.021","7.61","0.226","4.61","0.02","1.1","29.7707","4.71649","53.06","0","SATNPRO1509","29.178","0.4087","5"],
    [50077,"HCEP03730542","2025-03-02 22:30:00","9.3687","3.24264","25.86","4.976","7.61","0.255","5.444","0.06","0.75","29.7774","4.71743","52.59","0","SATNPRO1509","28.886","0.40462","5"],
    [50078,"HCEP03730542","2025-03-02 22:45:00","9.362","3.24181","25.704","4.9","7.6","0.232","5.59","0.01","0.23","29.7746","4.71715","51.78","0","SATNPRO1509","28.692","0.4019","5"],
    [50079,"HCEP03730542","2025-03-02 23:00:00","9.3539","3.23991","25.494","4.846","7.6","0.245","5.736","0.02","0.6","29.7621","4.71549","51.2","0","SATNPRO1509","28.702","0.40202","5"],
    [50080,"HCEP03730542","2025-03-02 23:15:00","9.3506","3.23924","25.334","4.854","7.6","0.237","5.826","0.02","0.38","29.7581","4.71497","51.27","0","SATNPRO1509","28.708000000000002","0.4021","5"],
    [50081,"HCEP03730542","2025-03-02 23:30:00","9.3488","3.23875","25.168","4.868","7.6","0.249","5.544","0.02","0.56","29.7546","4.71449","51.42","0","SATNPRO1509","28.586","0.4004","5"],
    [50082,"HCEP03730542","2025-03-02 23:45:00","9.3517","3.23962","25.04","4.871","7.6","0.254","6.575","0.02","0.42","29.7611","4.71537","51.46","0","SATNPRO1509","28.285999999999998","0.3962","5"],
    [50083,"HCEP03730542","2025-03-03 00:00:00","9.3564","3.24055","24.951","4.834","7.6","0.242","6.102","0.01","0.25","29.7667","4.71608","51.07","0","SATNPRO1509","28.434","0.3983","5"],
    [50084,"HCEP03730542","2025-03-03 00:15:00","9.361","3.24142","24.893","4.793","7.6","0.252","6.439","0.03","0.46","29.7718","4.71672","50.65","0","SATNPRO1509","28.504","0.39928","5"],
    [50085,"HCEP03730542","2025-03-03 00:30:00","9.3656","3.24238","24.872","4.769","7.59","0.287","7.687","0.05","0.57","29.7777","4.71748","50.4","0","SATNPRO1509","28.68","0.4017","5"],
    [50086,"HCEP03730542","2025-03-03 00:45:00","9.3744","3.24396","24.905","4.753","7.59","0.251","7.878","0.02","0.42","29.7864","4.71856","50.24","0","SATNPRO1509","28.428","0.39816","5"],
    [50087,"HCEP03730542","2025-03-03 01:00:00","9.3766","3.24548","24.974","4.724","7.59","0.267","8.319","0.01","0.45","29.8001","4.72049","49.94","0","SATNPRO1509","28.56","0.40004","5"],
    [50088,"HCEP03730542","2025-03-03 01:15:00","9.3746","3.24621","25.054","4.69","7.58","0.265","8.706","0.02","0.24","29.809","4.72181","49.58","0","SATNPRO1509","28.376","0.39748","5"],
    [50089,"HCEP03730542","2025-03-03 01:30:00","9.3732","3.24645","25.134","4.654","7.58","0.316","10.734","0.09","1.9","29.8126","4.72236","49.21","0","SATNPRO1509","28.586","0.40044","5"],
    [50090,"HCEP03730542","2025-03-03 01:45:00","9.3752","3.24675","25.263","4.677","7.59","0.248","7.206","0.02","0.44","29.814","4.72252","49.44","0","SATNPRO1509","28.678","0.40166","5"],
    [50091,"HCEP03730542","2025-03-03 02:00:00","9.3785","3.24696","25.376","4.703","7.59","0.254","8.192","0.02","0.39","29.8133","4.72236","49.72","0","SATNPRO1509","28.866","0.40434","5"],
    [50092,"HCEP03730542","2025-03-03 02:15:00","9.3796","3.24729","25.506","4.739","7.59","0.249","7.128","0.01","0.37","29.8157","4.7227","50.11","0","SATNPRO1509","29.062","0.40708","5"],
    [50093,"HCEP03730542","2025-03-03 02:30:00","9.3818","3.24776","25.62","4.734","7.59","0.262","7.212","0.02","0.46","29.8186","4.72308","50.06","0","SATNPRO1509","28.936","0.40528","5"],
    [50094,"HCEP03730542","2025-03-03 02:45:00","9.3841","3.24828","25.782","4.713","7.59","0.354","17.919","0.14","17.39","29.8219","4.72351","49.84","0","SATNPRO1509","28.776","0.40308","5"],
    [50095,"HCEP03730542","2025-03-03 03:00:00","9.3889","3.24894","25.964","4.691","7.59","0.268","8.797","0.02","1.45","29.8245","4.72381","49.61","0","SATNPRO1509","28.846","0.40404","5"],
    [50096,"HCEP03730542","2025-03-03 03:15:00","9.3932","3.24942","26.127","4.691","7.59","0.395","10.625","0.05","1.65","29.8258","4.72393","49.62","0","SATNPRO1509","28.942","0.40538","5"],
    [50097,"HCEP03730542","2025-03-03 03:30:00","9.396","3.24963","26.285","4.7","7.59","0.297","7.622","0.05","0.21","29.8255","4.72384","49.72","0","SATNPRO1509","28.892","0.40468","5"],
    [50098,"HCEP03730542","2025-03-03 03:45:00","9.398","3.24969","26.47","4.702","7.59","0.246","7.399","0.01","0.23","29.8244","4.72367","49.74","0","SATNPRO1509","28.944","0.40538","5"],
    [50099,"HCEP03730542","2025-03-03 04:00:00","9.4015","3.25016","26.624","4.72","7.59","0.258","6.989","0.02","0.23","29.8262","4.72386","49.94","0","SATNPRO1509","28.974","0.40582","5"],
    [50100,"HCEP03730542","2025-03-03 04:15:00","9.4039","3.25057","26.759","4.743","7.59","0.246","7.759","0.01","0.81","29.8283","4.72414","50.18","0","SATNPRO1509","29.122","0.4079","5"],
    [50101,"HCEP03730542","2025-03-03 04:30:00","9.406","3.2504","26.971","4.783","7.6","0.245","5.999","0.02","0.32","29.8248","4.7236","50.61","0","SATNPRO1509","29.38","0.41152","5"],
    [50102,"HCEP03730542","2025-03-03 04:45:00","9.4081","3.25089","27.133","4.867","7.6","4.114","49.22","3.76","37.58","29.8279","4.72401","51.49","0","SATNPRO1509","29.47","0.41276","5"],
    [50103,"HCEP03730542","2025-03-03 05:00:00","9.4079","3.25051","27.309","4.895","7.6","0.244","5.969","0.01","0.29","29.8241","4.72349","51.79","0","SATNPRO1509","29.492","0.41308","5"],
    [50104,"HCEP03730542","2025-03-03 05:15:00","9.409","3.25046","27.463","4.927","7.6","0.261","6.07","0.05","0.98","29.8226","4.72326","52.13","0","SATNPRO1509","29.606","0.41466","5"],
    [50105,"HCEP03730542","2025-03-03 05:30:00","9.4084","3.25026","27.625","4.965","7.61","0.256","5.755","0.03","0.45","29.821","4.72306","52.53","0","SATNPRO1509","29.55","0.41388","5"],
    [50106,"HCEP03730542","2025-03-03 05:45:00","9.4084","3.25003","27.765","4.967","7.61","0.303","5.483","0.06","0.75","29.8186","4.72272","52.55","0","SATNPRO1509","29.508","0.4133","5"],
    [50107,"HCEP03730542","2025-03-03 06:00:00","9.4089","3.25009","27.878","4.981","7.61","0.226","4.892","0.01","0.14","29.8188","4.72275","52.7","0","SATNPRO1509","29.624","0.41488","5"],
    [50108,"HCEP03730542","2025-03-03 06:15:00","9.4127","3.25118","27.925","4.993","7.61","0.237","4.993","0.03","0.39","29.8267","4.72381","52.84","0","SATNPRO1509","29.808","0.4175","5"],
    [50109,"HCEP03730542","2025-03-03 06:30:00","9.4139","3.25194","27.949","5.033","7.61","0.238","5.561","0.01","0.99","29.8334","4.72475","53.26","0","SATNPRO1509","29.758","0.41684","5"],
    [50110,"HCEP03730542","2025-03-03 06:45:00","9.4141","3.25233","27.97","5.022","7.61","0.297","7.258","0.11","0.37","29.8373","4.7253","53.15","0","SATNPRO1509","29.576","0.4143","5"],
    [50111,"HCEP03730542","2025-03-03 07:00:00","9.4149","3.25285","27.952","4.945","7.6","0.247","6.957","0.01","0.45","29.8418","4.72593","52.34","0","SATNPRO1509","29.546","0.41388","5"],
    [50112,"HCEP03730542","2025-03-03 07:15:00","9.4151","3.25309","27.908","4.933","7.6","0.243","6.769","0.01","0.93","29.8441","4.72626","52.21","0","SATNPRO1509","29.54","0.41376","5"],
    [50113,"HCEP03730542","2025-03-03 07:30:00","9.4146","3.25297","27.853","4.928","7.6","0.265","7.651","0.02","0.44","29.8433","4.72615","52.15","0","SATNPRO1509","29.366","0.41132","5"],
    [50114,"HCEP03730542","2025-03-03 07:45:00","9.4144","3.25354","27.781","4.898","7.6","0.238","6.25","0.01","0.37","29.8493","4.72701","51.84","0","SATNPRO1509","29.854","0.41814","5"],
    [50115,"HCEP03730542","2025-03-03 08:00:00","9.414","3.25354","27.67","4.914","7.6","0.251","6.212","0.02","1.03","29.8497","4.72706","52.01","0","SATNPRO1509","29.75","0.4167","5"],
    [50116,"HCEP03730542","2025-03-03 08:15:00","9.4136","3.25349","27.549","4.92","7.6","0.231","5.215","0.04","0.26","29.8495","4.72703","52.08","0","SATNPRO1509","29.84","0.41798","5"],
    [50117,"HCEP03730542","2025-03-03 08:30:00","9.4128","3.2533","27.426","4.934","7.6","0.229","5.094","0.01","0.32","29.8484","4.72688","52.22","0","SATNPRO1509","29.88","0.4185","5"],
    [50118,"HCEP03730542","2025-03-03 08:45:00","9.4124","3.25296","27.278","4.946","7.6","0.221","4.895","0.01","0.23","29.8453","4.72644","52.34","0","SATNPRO1509","29.584","0.41438","5"],
    [50119,"HCEP03730542","2025-03-03 09:00:00","9.4117","3.25266","27.128","4.938","7.6","0.29","5.931","0.06","0.87","29.8428","4.72609","52.26","0","SATNPRO1509","29.68","0.4157","5"],
    [50120,"HCEP03730542","2025-03-03 09:15:00","9.4102","3.25238","26.959","4.924","7.6","0.231","5.17","0.03","0.19","29.8413","4.72589","52.11","0","SATNPRO1509","29.572","0.4142","5"],
    [50121,"HCEP03730542","2025-03-03 09:30:00","9.4112","3.25174","26.791","4.903","7.6","0.256","9.645","0.03","3.9","29.8341","4.72483","51.89","0","SATNPRO1509","29.668","0.41554","5"],
    [50122,"HCEP03730542","2025-03-03 09:45:00","9.4067","3.25099","26.62","4.942","7.6","0.238","5.604","0.02","0.54","29.8303","4.72436","52.29","0","SATNPRO1509","29.304","0.41044","5"],
    [50123,"HCEP03730542","2025-03-03 10:00:00","9.4023","3.2494","26.43","4.849","7.6","0.24","5.177","0.02","0.22","29.8179","4.72265","51.29","0","SATNPRO1509","29.1","0.40756","5"],
    [50124,"HCEP03730542","2025-03-03 10:15:00","9.3987","3.24791","26.22","4.817","7.6","0.354","8.544","0.06","1.68","29.8058","4.72097","50.96","0","SATNPRO1509","29.07","0.40716","5"],
    [50125,"HCEP03730542","2025-03-03 10:30:00","9.3928","3.24606","26.02","4.834","7.6","0.609","18.477","0.51","10.35","29.792","4.71909","51.12","0","SATNPRO1509","29.454","0.41256","5"],
    [50126,"HCEP03730542","2025-03-03 10:45:00","9.3917","3.24603","25.826","4.847","7.6","0.259","5.606","0.03","0.81","29.7928","4.71921","51.26","0","SATNPRO1509","29.056","0.407","5"],
    [50127,"HCEP03730542","2025-03-03 11:00:00","9.3906","3.24615","25.606","4.842","7.6","0.246","5.479","0.02","0.25","29.7949","4.71953","51.2","0","SATNPRO1509","28.97","0.40576","5"],
    [50128,"HCEP03730542","2025-03-03 11:15:00","9.3922","3.24634","25.413","4.821","7.59","0.322","22.367","0.11","30.67","29.7956","4.71959","50.98","0","SATNPRO1509","28.838","0.40394","5"],
    [50129,"HCEP03730542","2025-03-03 11:30:00","9.3905","3.2464","25.119","4.783","7.59","0.24","5.491","0.01","0.33","29.7977","4.71991","50.58","0","SATNPRO1509","28.944","0.40542","5"],
    [50130,"HCEP03730542","2025-03-03 11:45:00","9.3835","3.24403","24.863","4.775","7.6","0.228","5.007","0.01","0.24","29.7795","4.71741","50.48","0","SATNPRO1509","28.936","0.40528","5"],
    [50131,"HCEP03730542","2025-03-03 12:00:00","9.3887","3.24606","24.62","4.815","7.59","0.252","6.247","0.01","0.21","29.796","4.71966","50.91","0","SATNPRO1509","28.826","0.40376","5"],
    [50132,"HCEP03730542","2025-03-03 12:15:00","9.3902","3.24718","24.457","4.753","7.59","0.258","7.32","0.02","0.44","29.8062","4.72108","50.26","0","SATNPRO1509","28.654","0.40134","5"],
    [50133,"HCEP03730542","2025-03-03 12:30:00","9.3893","3.24739","24.343","4.689","7.58","0.276","6.778","0.03","0.27","29.809","4.7215","49.59","0","SATNPRO1509","28.602","0.40064","5"],
    [50134,"HCEP03730542","2025-03-03 12:45:00","9.3854","3.24709","24.274","4.639","7.58","0.259","7.448","0.02","0.38","29.8093","4.72161","49.05","0","SATNPRO1509","28.494","0.39908","5"],
    [50135,"HCEP03730542","2025-03-03 13:00:00","9.3821","3.24666","24.251","4.602","7.58","0.275","7.36","0.01","0.54","29.8077","4.72144","48.66","0","SATNPRO1509","28.494","0.3991","5"],
    [50136,"HCEP03730542","2025-03-03 13:15:00","9.3788","3.24631","24.273","4.586","7.58","0.249","5.963","0.03","0.35","29.8069","4.72138","48.49","0","SATNPRO1509","28.662","0.40142","5"],
    [50137,"HCEP03730542","2025-03-03 13:30:00","9.3768","3.24614","24.302","4.583","7.58","0.257","6.454","0.02","0.43","29.8069","4.72141","48.45","0","SATNPRO1509","28.592","0.40048","5"],
    [50138,"HCEP03730542","2025-03-03 13:45:00","9.3759","3.24601","24.346","4.583","7.58","0.249","6.189","0.03","0.24","29.8062","4.72134","48.45","0","SATNPRO1509","28.444","0.39842","5"],
    [50139,"HCEP03730542","2025-03-03 14:00:00","9.3754","3.24597","24.397","4.58","7.58","0.278","6.296","0.02","0.43","29.8062","4.72135","48.42","0","SATNPRO1509","28.536","0.3997","5"],
    [50140,"HCEP03730542","2025-03-03 14:15:00","9.3721","3.24558","24.465","4.574","7.58","0.261","5.57","0.02","0.29","29.8051","4.72125","48.35","0","SATNPRO1509","28.384","0.39758","5"],
    [50141,"HCEP03730542","2025-03-03 14:30:00","9.3723","3.24564","24.598","4.581","7.58","0.242","6.338","0.01","0.34","29.8054","4.7213","48.43","0","SATNPRO1509","28.774","0.403","5"],
    [50142,"HCEP03730542","2025-03-03 14:45:00","9.3849","3.2477","24.734","4.575","7.58","0.252","7.09","0.02","0.41","29.8158","4.72256","48.39","0","SATNPRO1509","28.47","0.39876","5"],
    [50143,"HCEP03730542","2025-03-03 15:00:00","9.3869","3.24821","24.85","4.559","7.58","0.257","7.537","0.01","0.59","29.8193","4.72304","48.22","0","SATNPRO1509","28.588","0.40048","5"],
    [50144,"HCEP03730542","2025-03-03 15:15:00","9.3906","3.24908","24.989","4.554","7.57","0.255","7.646","0.02","0.42","29.8249","4.72378","48.17","0","SATNPRO1509","28.732","0.40244","5"],
    [50145,"HCEP03730542","2025-03-03 15:30:00","9.3937","3.24983","25.163","4.552","7.57","0.259","7.692","0.01","0.32","29.8299","4.72445","48.15","0","SATNPRO1509","28.71","0.40218","5"],
    [50146,"HCEP03730542","2025-03-03 15:45:00","9.3962","3.25036","25.334","4.559","7.57","0.268","7.96","0.03","0.55","29.8332","4.72488","48.23","0","SATNPRO1509","28.608","0.40072","5"],
    [50147,"HCEP03730542","2025-03-03 16:00:00","9.3947","3.24989","25.466","4.548","7.57","0.267","7.595","0.01","0.28","29.8296","4.72441","48.11","0","SATNPRO1509","28.791999999999998","0.4033","5"],
    [50148,"HCEP03730542","2025-03-03 16:15:00","9.391","3.24895","25.616","4.549","7.57","0.25","6.898","0.01","0.24","29.8231","4.72356","48.12","0","SATNPRO1509","28.666","0.40152","5"],
    [50149,"HCEP03730542","2025-03-03 16:30:00","9.3895","3.24844","25.747","4.544","7.57","0.262","7.136","0.02","0.28","29.819","4.723","48.06","0","SATNPRO1509","28.342","0.39694","5"],
    [50150,"HCEP03730542","2025-03-03 16:45:00","9.3807","3.24706","25.89","4.528","7.57","0.247","6.781","0.01","0.29","29.8123","4.72221","47.87","0","SATNPRO1509","28.44","0.39836","5"],
    [50151,"HCEP03730542","2025-03-03 17:00:00","9.3662","3.24523","26.06","4.494","7.57","0.256","6.159","0.02","0.22","29.8057","4.72155","47.5","0","SATNPRO1509","28.282","0.39616","5"],
    [50152,"HCEP03730542","2025-03-03 17:15:00","9.3587","3.24408","26.223","4.473","7.57","0.236","5.508","0.02","0.18","29.8001","4.72089","47.27","0","SATNPRO1509","28.244","0.39562","5"],
    [50153,"HCEP03730542","2025-03-03 17:30:00","9.3522","3.24317","26.4","4.457","7.57","0.25","5.532","0.02","0.33","29.7962","4.72046","47.09","0","SATNPRO1509","28.082","0.39334","5"],
    [50154,"HCEP03730542","2025-03-03 17:45:00","9.3488","3.24271","26.564","4.43","7.56","0.249","5.915","0.02","0.19","29.7944","4.72028","46.8","0","SATNPRO1509","27.882","0.3905","5"],
    [50155,"HCEP03730542","2025-03-03 18:00:00","9.3463","3.24212","26.709","4.384","7.56","0.265","6.455","0.04","0.3","29.7904","4.71975","46.32","0","SATNPRO1509","27.96","0.39162","5"],
    [50156,"HCEP03730542","2025-03-03 18:15:00","9.3378","3.24031","26.819","4.38","7.57","0.224","4.683","0.01","0.39","29.7789","4.71828","46.26","0","SATNPRO1509","28.114","0.39374","5"],
    [50157,"HCEP03730542","2025-03-03 18:30:00","9.3356","3.24009","26.948","4.424","7.57","0.242","5.017","0.02","0.41","29.7785","4.71827","46.72","0","SATNPRO1509","28.105999999999998","0.39364","5"],
    [50158,"HCEP03730542","2025-03-03 18:45:00","9.3336","3.23962","27.048","4.442","7.57","0.235","5.023","0.03","0.7","29.7753","4.71784","46.91","0","SATNPRO1509","27.988","0.39202","5"],
    [50159,"HCEP03730542","2025-03-03 19:00:00","9.3347","3.23983","27.126","4.46","7.57","0.235","4.781","0.02","0.29","29.7766","4.71802","47.1","0","SATNPRO1509","28.004","0.39222","5"],
    [50160,"HCEP03730542","2025-03-03 19:15:00","9.3357","3.23997","27.185","4.456","7.57","0.219","5.049","0.01","0.86","29.7771","4.71808","47.06","0","SATNPRO1509","28.094","0.39352","5"],
    [50161,"HCEP03730542","2025-03-03 19:30:00","9.3358","3.24001","27.216","4.45","7.57","0.238","5.193","0.02","0.77","29.7775","4.71813","46.99","0","SATNPRO1509","29.148","0.40826","5"],
    [50162,"HCEP03730542","2025-03-03 19:45:00","9.334","3.23971","27.218","4.447","7.57","0.218","4.375","0.01","0.33","29.7758","4.71793","46.96","0","SATNPRO1509","28.172","0.3946","5"],
    [50163,"HCEP03730542","2025-03-03 20:00:00","9.3313","3.23918","27.192","4.454","7.57","0.225","4.231","0.02","0.42","29.7728","4.71754","47.04","0","SATNPRO1509","28.18","0.3947","5"],
    [50164,"HCEP03730542","2025-03-03 20:15:00","9.3288","3.23835","27.182","4.464","7.57","0.213","4.717","0.01","0.36","29.7664","4.71667","47.14","0","SATNPRO1509","28.162","0.39444","5"],
    [50165,"HCEP03730542","2025-03-03 20:30:00","9.3299","3.23865","27.149","4.475","7.57","0.234","4.994","0.01","0.37","29.7685","4.71695","47.25","0","SATNPRO1509","28.064","0.3931","5"],
    [50166,"HCEP03730542","2025-03-03 20:45:00","9.3309","3.2388","27.103","4.453","7.57","0.223","4.59","0.02","0.22","29.7692","4.71703","47.02","0","SATNPRO1509","27.702","0.38798","5"],
    [50167,"HCEP03730542","2025-03-03 21:00:00","9.3309","3.23882","27.04","4.448","7.57","0.226","4.433","0.02","0.41","29.7694","4.71706","46.97","0","SATNPRO1509","27.9","0.39078","5"],
    [50168,"HCEP03730542","2025-03-03 21:15:00","9.329","3.23861","26.976","4.455","7.57","0.213","3.83","0.01","0.15","29.7689","4.71701","47.04","0","SATNPRO1509","27.996000000000002","0.39212","5"],
    [50169,"HCEP03730542","2025-03-03 21:30:00","9.329","3.23853","26.885","4.469","7.57","0.217","3.877","0.01","0.26","29.7682","4.7169","47.19","0","SATNPRO1509","28.07","0.39316","5"],
    [50170,"HCEP03730542","2025-03-03 21:45:00","9.3321","3.23923","26.788","4.47","7.57","0.262","4.498","0.08","0.31","29.7728","4.7175","47.2","0","SATNPRO1509","28.226","0.39534","5"],
    [50171,"HCEP03730542","2025-03-03 22:00:00","9.3301","3.23887","26.68","4.46","7.57","0.218","3.934","0.01","0.15","29.7708","4.71725","47.09","0","SATNPRO1509","28.06","0.39306","5"],
    [50172,"HCEP03730542","2025-03-03 22:15:00","9.3304","3.23896","26.59","4.469","7.57","0.218","4.164","0.02","0.23","29.7715","4.71733","47.19","0","SATNPRO1509","28.15","0.39428","5"],
    [50173,"HCEP03730542","2025-03-03 22:30:00","9.3302","3.23891","26.495","4.474","7.57","0.217","3.809","0.01","0.24","29.7712","4.71729","47.24","0","SATNPRO1509","28.192","0.39488","5"],
    [50174,"HCEP03730542","2025-03-03 22:45:00","9.3293","3.23864","26.379","4.477","7.57","0.204","3.392","0.01","0.15","29.7692","4.71702","47.28","0","SATNPRO1509","28.158","0.3944","5"],
    [50175,"HCEP03730542","2025-03-03 23:00:00","9.332","3.23924","26.269","4.491","7.57","0.215","3.981","0.01","1.08","29.7731","4.71752","47.42","0","SATNPRO1509","28.228","0.39536","5"],
    [50176,"HCEP03730542","2025-03-03 23:15:00","9.347","3.24209","26.137","4.467","7.57","0.232","4.857","0.02","0.35","29.7897","4.71961","47.18","0","SATNPRO1509","28.032","0.39266","5"],
    [50177,"HCEP03730542","2025-03-03 23:30:00","9.335","3.2398","26.014","4.415","7.57","0.223","3.939","0.02","0.28","29.7765","4.71794","46.63","0","SATNPRO1509","28.26","0.39588","5"],
    [50178,"HCEP03730542","2025-03-03 23:45:00","9.3402","3.2408","25.898","4.444","7.57","0.22","4.132","0.02","0.33","29.7823","4.71866","46.94","0","SATNPRO1509","28.136","0.39408","5"],
    [50179,"HCEP03730542","2025-03-04 00:00:00","9.3458","3.24191","25.793","4.432","7.57","0.237","4.441","0.02","0.35","29.7891","4.71952","46.82","0","SATNPRO1509","28.150000000000002","0.39432","5"],
    [50180,"HCEP03730542","2025-03-04 00:15:00","9.3598","3.24417","25.692","4.414","7.57","0.225","4.799","0.01","0.5","29.8004","4.72088","46.64","0","SATNPRO1509","28.064","0.3931","5"],
    [50181,"HCEP03730542","2025-03-04 00:30:00","9.3719","3.24603","25.59","4.397","7.56","0.252","6.556","0.01","0.57","29.8093","4.72192","46.48","0","SATNPRO1509","27.695999999999998","0.38788","5"],
    [50182,"HCEP03730542","2025-03-04 00:45:00","9.3739","3.2461","25.507","4.304","7.56","0.246","6.094","0.02","0.38","29.8084","4.72175","45.5","0","SATNPRO1509","27.722","0.3883","5"],
    [50183,"HCEP03730542","2025-03-04 01:00:00","9.3688","3.24493","25.454","4.305","7.56","0.248","5.755","0.02","0.42","29.8007","4.72075","45.51","0","SATNPRO1509","28.12","0.3939","5"],
    [50184,"HCEP03730542","2025-03-04 01:15:00","9.3613","3.24532","25.475","4.34","7.56","0.238","6.21","0.01","0.63","29.8109","4.72235","45.87","0","SATNPRO1509","28.05","0.3929","5"],
    [50185,"HCEP03730542","2025-03-04 01:30:00","9.3722","3.24609","25.495","4.327","7.56","0.248","6.252","0.01","0.35","29.8097","4.72197","45.75","0","SATNPRO1509","27.894","0.39074","5"],
    [50186,"HCEP03730542","2025-03-04 01:45:00","9.3768","3.24687","25.522","4.306","7.56","0.245","6.663","0.01","0.35","29.8138","4.72247","45.53","0","SATNPRO1509","27.944","0.39138","5"],
    [50187,"HCEP03730542","2025-03-04 02:00:00","9.3808","3.24739","25.59","4.319","7.56","0.248","6.201","0.01","0.38","29.8156","4.72267","45.67","0","SATNPRO1509","28.176","0.39464","5"],
    [50188,"HCEP03730542","2025-03-04 02:15:00","9.3858","3.2477","25.659","4.358","7.56","0.234","5.404","0.01","0.29","29.8146","4.72244","46.08","0","SATNPRO1509","28.166","0.39454","5"],
    [50189,"HCEP03730542","2025-03-04 02:30:00","9.3958","3.24932","25.741","4.388","7.56","0.255","6.501","0.01","0.36","29.8228","4.72343","46.42","0","SATNPRO1509","28.282","0.39614","5"],
    [50190,"HCEP03730542","2025-03-04 02:45:00","9.4007","3.24962","25.896","4.415","7.57","0.238","6.171","0.01","0.32","29.8216","4.72318","46.7","0","SATNPRO1509","28.482","0.39896","5"],
    [50191,"HCEP03730542","2025-03-04 03:00:00","9.4059","3.24995","26.035","4.472","7.57","0.244","6.384","0.01","0.29","29.8206","4.72296","47.31","0","SATNPRO1509","28.54","0.39976","5"],
    [50192,"HCEP03730542","2025-03-04 03:15:00","9.407","3.24932","26.201","4.527","7.57","0.268","6.545","0.03","0.34","29.8132","4.72188","47.89","0","SATNPRO1509","28.554","0.3999","5"],
    [50193,"HCEP03730542","2025-03-04 03:30:00","9.4055","3.24833","26.327","4.592","7.58","0.234","5.542","0.01","0.22","29.8044","4.72065","48.58","0","SATNPRO1509","28.756","0.40276","5"],
    [50194,"HCEP03730542","2025-03-04 03:45:00","9.4047","3.24776","26.465","4.649","7.58","0.225","5.499","0.01","0.26","29.7993","4.71994","49.18","0","SATNPRO1509","28.71","0.40216","5"],
    [50195,"HCEP03730542","2025-03-04 04:00:00","9.4063","3.24801","26.568","4.676","7.58","0.237","5.842","0.01","0.64","29.8004","4.72009","49.47","0","SATNPRO1509","28.701999999999998","0.402","5"],
    [50196,"HCEP03730542","2025-03-04 04:15:00","9.4049","3.24761","26.713","4.682","7.58","0.225","5.708","0.01","1.26","29.7974","4.71969","49.53","0","SATNPRO1509","28.804","0.40346","5"],
    [50197,"HCEP03730542","2025-03-04 04:30:00","9.4069","3.24801","26.892","4.696","7.58","0.236","5.773","0.01","0.33","29.7998","4.72001","49.67","0","SATNPRO1509","28.942","0.40538","5"],
    [50198,"HCEP03730542","2025-03-04 04:45:00","9.4072","3.24839","27.028","4.714","7.59","0.224","5.553","0.01","0.29","29.8032","4.7205","49.87","0","SATNPRO1509","29.006","0.4063","5"],
    [50199,"HCEP03730542","2025-03-04 05:00:00","9.4069","3.24879","27.139","4.736","7.59","0.229","5.908","0.01","1.14","29.8076","4.72113","50.11","0","SATNPRO1509","28.98","0.40592","5"],
    [50200,"HCEP03730542","2025-03-04 05:15:00","9.4119","3.24997","27.231","4.764","7.59","0.225","6.201","0.01","0.51","29.8153","4.72215","50.41","0","SATNPRO1509","29.176","0.40868","5"],
    [50201,"HCEP03730542","2025-03-04 05:30:00","9.415","3.25085","27.357","4.77","7.59","0.238","7.399","0.02","2.59","29.8216","4.72301","50.47","0","SATNPRO1509","29.12","0.40784","5"],
    [50202,"HCEP03730542","2025-03-04 05:45:00","9.4139","3.25132","27.449","4.778","7.59","0.213","5.509","0.01","0.25","29.8273","4.72385","50.56","0","SATNPRO1509","29.442","0.4124","5"],
    [50203,"HCEP03730542","2025-03-04 06:00:00","9.4145","3.2516","27.582","4.82","7.59","0.23","6.191","0.02","1.06","29.8296","4.72417","51.01","0","SATNPRO1509","29.476","0.41288","5"],
    [50204,"HCEP03730542","2025-03-04 06:15:00","9.4144","3.25183","27.705","4.848","7.6","0.236","7.517","0.02","1.8","29.8319","4.72452","51.3","0","SATNPRO1509","29.444","0.4124","5"],
    [50205,"HCEP03730542","2025-03-04 06:30:00","9.4153","3.2522","27.764","4.847","7.6","0.249","9.844","0.03","1.87","29.8349","4.72493","51.3","0","SATNPRO1509","29.568","0.41416","5"],
    [50206,"HCEP03730542","2025-03-04 06:45:00","9.4166","3.25202","27.826","4.846","7.6","0.226","6.925","0.01","0.84","29.832","4.72449","51.28","0","SATNPRO1509","29.386","0.41164","5"],
    [50207,"HCEP03730542","2025-03-04 07:00:00","9.417","3.25222","27.827","4.848","7.6","0.754","24.714","1.46","24.82","29.8337","4.72473","51.31","0","SATNPRO1509","29.502","0.4132","5"],
    [50208,"HCEP03730542","2025-03-04 07:15:00","9.4153","3.2528","27.922","4.865","7.6","0.658","56.092","0.49","34.38","29.8409","4.7258","51.49","0","SATNPRO1509","29.658","0.41538","5"],
    [50209,"HCEP03730542","2025-03-04 07:30:00","9.4128","3.25271","27.903","4.882","7.6","0.218","5.222","0","0.2","29.8421","4.72601","51.66","0","SATNPRO1509","29.664","0.41548","5"],
    [50210,"HCEP03730542","2025-03-04 07:45:00","9.4125","3.25246","27.887","4.916","7.6","0.225","6.668","0.07","7.95","29.8399","4.7257","52.03","0","SATNPRO1509","29.89","0.41866","5"],
    [50211,"HCEP03730542","2025-03-04 08:00:00","9.4089","3.25112","27.86","4.972","7.61","0.192","2.761","0.01","0.12","29.8293","4.72425","52.61","0","SATNPRO1509","30.128","0.42202","5"],
    [50212,"HCEP03730542","2025-03-04 08:15:00","9.4026","3.25071","27.777","5.069","7.61","0.182","2.72","0.01","0.22","29.8304","4.72451","53.63","0","SATNPRO1509","30.224","0.42332","5"],
    [50213,"HCEP03730542","2025-03-04 08:30:00","9.4049","3.25155","27.707","5.09","7.61","0.19","2.734","0.01","0.15","29.837","4.72542","53.86","0","SATNPRO1509","30.142","0.42222","5"],
    [50214,"HCEP03730542","2025-03-04 08:45:00","9.4131","3.25308","27.635","5.049","7.61","0.219","4.926","0.02","0.27","29.8458","4.72652","53.44","0","SATNPRO1509","29.726","0.41636","5"],
    [50215,"HCEP03730542","2025-03-04 09:00:00","9.4121","3.25347","27.543","4.922","7.6","0.229","5.628","0.01","0.35","29.8505","4.72721","52.09","0","SATNPRO1509","29.682000000000002","0.41576","5"],
    [50216,"HCEP03730542","2025-03-04 09:15:00","9.4109","3.25365","27.362","4.883","7.6","0.22","5.418","0.01","0.26","29.8535","4.72765","51.68","0","SATNPRO1509","29.718","0.41624","5"],
    [50217,"HCEP03730542","2025-03-04 09:30:00","9.4079","3.25327","27.223","4.877","7.6","0.222","4.87","0.01","0.22","29.8522","4.7275","51.61","0","SATNPRO1509","29.83","0.4178","5"],
    [50218,"HCEP03730542","2025-03-04 09:45:00","9.4088","3.25345","27.024","4.891","7.6","0.216","5.252","0.01","0.3","29.8534","4.72765","51.76","0","SATNPRO1509","29.73","0.41646","5"],
    [50219,"HCEP03730542","2025-03-04 10:00:00","9.4113","3.25299","26.827","4.869","7.6","0.233","6.305","0.01","0.26","29.846800000000002","4.72664","51.53","0","SATNPRO1509","29.502","0.41322","5"],
    [50220,"HCEP03730542","2025-03-04 10:15:00","9.4081","3.25274","26.55","4.819","7.59","0.217","5.564","0.01","0.18","29.8469","4.72671","51","0","SATNPRO1509","29.652","0.41534","5"],
    [50221,"HCEP03730542","2025-03-04 10:30:00","9.4087","3.25241","26.305","4.824","7.6","0.229","5.598","0.01","0.5","29.8432","4.72615","51.05","0","SATNPRO1509","29.642","0.4152","5"],
    [50222,"HCEP03730542","2025-03-04 10:45:00","9.405","3.25185","26.04","4.838","7.6","0.218","5.165","0.02","0.24","29.8407","4.72583","51.19","0","SATNPRO1509","29.92","0.41908","5"],
    [50223,"HCEP03730542","2025-03-04 11:00:00","9.4045","3.2514","25.786","4.848","7.6","0.212","4.602","0.01","0.38","29.8366","4.72525","51.3","0","SATNPRO1509","29.622","0.4149","5"],
    [50224,"HCEP03730542","2025-03-04 11:15:00","9.4034","3.25107","25.596","4.851","7.6","0.204","4.845","0.01","0.21","29.8343","4.72493","51.33","0","SATNPRO1509","29.678","0.41572","5"],
    [50225,"HCEP03730542","2025-03-04 11:30:00","9.4026","3.25087","25.345","4.836","7.6","0.208","4.61","0.01","0.4","29.833","4.72474","51.17","0","SATNPRO1509","29.676","0.41568","5"],
    [50226,"HCEP03730542","2025-03-04 11:45:00","9.394","3.24914","25.155","4.825","7.59","0.2","4.515","0.01","0.27","29.8227","4.72341","51.03","0","SATNPRO1509","29.396","0.41176","5"],
    [50227,"HCEP03730542","2025-03-04 12:00:00","9.3923","3.249","24.903","4.8","7.59","0.213","4.784","0.01","0.25","29.8227","4.72343","50.77","0","SATNPRO1509","29.285999999999998","0.41022","5"],
    [50228,"HCEP03730542","2025-03-04 12:15:00","9.3929","3.24878","24.715","4.763","7.59","0.214","5.15","0.01","0.28","29.8202","4.72305","50.38","0","SATNPRO1509","29.224","0.40936","5"],
    [50229,"HCEP03730542","2025-03-04 12:30:00","9.3948","3.24918","24.517","4.734","7.59","0.226","5.56","0.01","0.22","29.8226","4.72335","50.08","0","SATNPRO1509","29.176","0.4087","5"],
    [50230,"HCEP03730542","2025-03-04 12:45:00","9.3861","3.24837","24.397","4.698","7.58","0.215","5.402","0.01","0.23","29.8217","4.72338","49.68","0","SATNPRO1509","29.076","0.40728","5"],
    [50231,"HCEP03730542","2025-03-04 13:00:00","9.3859","3.24796","24.261","4.636","7.58","0.223","5.465","0.01","0.55","29.8178","4.72282","49.03","0","SATNPRO1509","28.932","0.40526","5"],
    [50232,"HCEP03730542","2025-03-04 13:15:00","9.3855","3.24795","24.187","4.565","7.57","0.227","5.981","0.01","0.23","29.818","4.72285","48.28","0","SATNPRO1509","28.734","0.40246","5"],
    [50233,"HCEP03730542","2025-03-04 13:30:00","9.3836","3.24734","24.192","4.504","7.57","0.245","6.477","0.01","0.27","29.8134","4.72222","47.62","0","SATNPRO1509","28.658","0.40142","5"],
    [50234,"HCEP03730542","2025-03-04 13:45:00","9.3813","3.24707","24.184","4.465","7.57","0.23","6.154","0.01","0.31","29.8125","4.72214","47.21","0","SATNPRO1509","28.41","0.39792","5"],
    [50235,"HCEP03730542","2025-03-04 14:00:00","9.3761","3.24547","24.138","4.442","7.57","0.234","6.557","0.01","0.52","29.8007","4.72053","46.96","0","SATNPRO1509","28.51","0.39932","5"],
    [50236,"HCEP03730542","2025-03-04 14:15:00","9.3702","3.2434","24.143","4.463","7.57","0.222","6.588","0.02","0.91","29.7845","4.71833","47.17","0","SATNPRO1509","28.41","0.39792","5"],
    [50237,"HCEP03730542","2025-03-04 14:30:00","9.3718","3.24359","24.202","4.507","7.57","0.227","5.663","0.01","0.44","29.7851","4.71839","47.64","0","SATNPRO1509","28.516","0.39944","5"],
    [50238,"HCEP03730542","2025-03-04 14:45:00","9.3691","3.24284","24.302","4.512","7.57","0.219","5.387","0.01","0.29","29.7798","4.71768","47.69","0","SATNPRO1509","28.46","0.39864","5"],
    [50239,"HCEP03730542","2025-03-04 15:00:00","9.3677","3.24267","24.309","4.501","7.57","0.426","17.455","0.34","15.45","29.779","4.7176","47.57","0","SATNPRO1509","28.366","0.3973","5"],
    [50240,"HCEP03730542","2025-03-04 15:15:00","9.3572","3.24112","24.374","4.473","7.57","0.217","4.752","0.01","0.25","29.7721","4.7168","47.25","0","SATNPRO1509","28.076","0.39324","5"],
    [50241,"HCEP03730542","2025-03-04 15:30:00","9.3536","3.24062","24.499","4.436","7.57","0.225","5.132","0.01","0.45","29.7699","4.71656","46.86","0","SATNPRO1509","28.084","0.39338","5"],
    [50242,"HCEP03730542","2025-03-04 15:45:00","9.3513","3.24033","24.612","4.403","7.57","0.216","4.857","0.01","0.36","29.7688","4.71646","46.52","0","SATNPRO1509","28.012","0.39234","5"],
    [50243,"HCEP03730542","2025-03-04 16:00:00","9.3484","3.2395","24.785","4.388","7.57","0.218","4.878","0.01","0.48","29.7628","4.71566","46.35","0","SATNPRO1509","27.99","0.39202","5"],
    [50244,"HCEP03730542","2025-03-04 16:15:00","9.3475","3.23934","24.858","4.404","7.57","0.222","4.607","0.03","0.26","29.7618","4.71554","46.52","0","SATNPRO1509","28.1","0.39358","5"],
    [50245,"HCEP03730542","2025-03-04 16:30:00","9.3474","3.23903","25.057","4.419","7.57","0.227","5.098","0.02","0.9","29.7586","4.71509","46.67","0","SATNPRO1509","28.034","0.39268","5"],
    [50246,"HCEP03730542","2025-03-04 16:45:00","9.3459","3.23823","25.241","4.45","7.57","0.215","6.807","0.01","2.2","29.7518","4.71415","47","0","SATNPRO1509","28.125999999999998","0.39394","5"],
    [50247,"HCEP03730542","2025-03-04 17:00:00","9.3449","3.23746","25.368","4.512","7.58","0.21","4.525","0","1.75","29.7447","4.71316","47.65","0","SATNPRO1509","28.302","0.3964","5"],
    [50248,"HCEP03730542","2025-03-04 17:15:00","9.35","3.23819","25.493","4.552","7.58","0.21","4.546","0.01","0.16","29.7477","4.71351","48.08","0","SATNPRO1509","28.182000000000002","0.3947","5"],
    [50249,"HCEP03730542","2025-03-04 17:30:00","9.3573","3.23936","25.682","4.55","7.58","0.225","5.126","0.01","0.53","29.7535","4.71421","48.07","0","SATNPRO1509","28.292","0.39628","5"],
    [50250,"HCEP03730542","2025-03-04 17:45:00","9.360900000000001","3.23971","25.846","4.545","7.58","0.231","6.686","0.02","1.19","29.754","4.71424","48.01","0","SATNPRO1509","28.216","0.39524","5"],
    [50251,"HCEP03730542","2025-03-04 18:00:00","9.3593","3.23875","26.031","4.551","7.58","0.235","5.711","0.02","0.87","29.7455","4.71306","48.08","0","SATNPRO1509","28.244","0.3956","5"],
    [50252,"HCEP03730542","2025-03-04 18:15:00","9.3462","3.23679","26.256","4.589","7.58","0.213","4.434","0.01","0.22","29.7363","4.712","48.46","0","SATNPRO1509","28.24","0.39558","5"],
    [50253,"HCEP03730542","2025-03-04 18:30:00","9.3396","3.23584","26.424","4.576","7.58","0.221","4.445","0.01","0.2","29.7321","4.71152","48.32","0","SATNPRO1509","28.13","0.394","5"],
    [50254,"HCEP03730542","2025-03-04 18:45:00","9.3369","3.23534","26.596","4.551","7.58","0.209","4.162","0.01","0.16","29.7293","4.71118","48.04","0","SATNPRO1509","28.098","0.39358","5"],
    [50255,"HCEP03730542","2025-03-04 19:00:00","9.3365","3.23529","26.741","4.536","7.58","0.219","4.363","0.01","0.21","29.729","4.71116","47.89","0","SATNPRO1509","28.16","0.3944","5"],
    [50256,"HCEP03730542","2025-03-04 19:15:00","9.3271","3.23362","26.876","4.527","7.58","0.212","4.162","0.01","0.18","29.7198","4.71001","47.78","0","SATNPRO1509","27.804","0.38942","5"],
    [50257,"HCEP03730542","2025-03-04 19:30:00","9.3217","3.23249","26.995","4.513","7.58","0.224","4.747","0.01","0.17","29.7127","4.70911","47.62","0","SATNPRO1509","27.76","0.3888","5"],
    [50258,"HCEP03730542","2025-03-04 19:45:00","9.3191","3.23186","27.077","4.48","7.57","0.207","4.068","0.01","0.23","29.7084","4.70854","47.27","0","SATNPRO1509","27.718","0.38826","5"],
    [50259,"HCEP03730542","2025-03-04 20:00:00","9.3175","3.23132","27.147","4.484","7.58","0.215","4.156","0.01","0.35","29.7043","4.70798","47.32","0","SATNPRO1509","27.69","0.38786","5"],
    [50260,"HCEP03730542","2025-03-04 20:15:00","9.316","3.23062","27.205","4.494","7.58","0.214","4.462","0.01","0.21","29.6983","4.70716","47.42","0","SATNPRO1509","27.631999999999998","0.38702","5"],
    [50261,"HCEP03730542","2025-03-04 20:30:00","9.3128","3.22969","27.255","4.512","7.58","0.211","3.707","0.01","0.38","29.6916","4.70626","47.6","0","SATNPRO1509","27.374000000000002","0.38338","5"],
    [50262,"HCEP03730542","2025-03-04 20:45:00","9.3132","3.22987","27.28","4.535","7.58","0.208","3.769","0.01","0.37","29.693","4.70646","47.84","0","SATNPRO1509","27.536","0.38572","5"],
    [50263,"HCEP03730542","2025-03-04 21:00:00","9.3149","3.23032","27.294","4.53","7.58","0.213","3.578","0.01","0.25","29.6962","4.70689","47.79","0","SATNPRO1509","27.64","0.38712","5"],
    [50264,"HCEP03730542","2025-03-04 21:15:00","9.3161","3.23053","27.278","4.515","7.58","0.207","3.691","0.01","0.35","29.6973","4.70702","47.63","0","SATNPRO1509","27.654","0.38736","5"],
    [50265,"HCEP03730542","2025-03-04 21:30:00","9.3169","3.23078","27.261","4.502","7.58","0.21","3.563","0.01","0.26","29.6992","4.70728","47.5","0","SATNPRO1509","27.66","0.38744","5"],
    [50266,"HCEP03730542","2025-03-04 21:45:00","9.3226","3.23198","27.212","4.49","7.58","0.208","3.832","0.01","0.42","29.7067","4.70824","47.38","0","SATNPRO1509","27.738","0.38852","5"],
    [50267,"HCEP03730542","2025-03-04 22:00:00","9.3367","3.23441","27.194","4.501","7.58","0.226","4.666","0.01","0.37","29.7197","4.70984","47.52","0","SATNPRO1509","27.884","0.39058","5"],
    [50268,"HCEP03730542","2025-03-04 22:15:00","9.3503","3.23646","27.16","4.552","7.58","0.216","4.526","0.01","0.23","29.7293","4.71097","48.07","0","SATNPRO1509","28.086","0.39338","5"],
    [50269,"HCEP03730542","2025-03-04 22:30:00","9.3518","3.23706","27.085","4.567","7.58","0.226","4.721","0.01","0.28","29.7342","4.71163","48.24","0","SATNPRO1509","28.076","0.39324","5"],
    [50270,"HCEP03730542","2025-03-04 22:45:00","9.3456","3.2359","27.017","4.552","7.58","0.222","4.556","0.01","0.23","29.7276","4.7108","48.07","0","SATNPRO1509","28.056","0.39296","5"],
    [50271,"HCEP03730542","2025-03-04 23:00:00","9.3419","3.23526","26.934","4.544","7.58","0.224","4.476","0.01","0.3","29.7242","4.71038","47.98","0","SATNPRO1509","27.976","0.39184","5"],
    [50272,"HCEP03730542","2025-03-04 23:15:00","9.3394","3.23491","26.819","4.541","7.58","0.218","4.288","0.02","0.34","29.7227","4.7102","47.95","0","SATNPRO1509","27.962","0.39172","5"],
    [50273,"HCEP03730542","2025-03-04 23:30:00","9.34","3.23536","26.729","4.533","7.58","0.22","4.583","0.01","0.25","29.7269","4.71079","47.86","0","SATNPRO1509","27.89","0.39068","5"],
    [50274,"HCEP03730542","2025-03-04 23:45:00","9.3437","3.23596","26.648","4.504","7.57","0.215","4.751","0.01","0.15","29.7299","4.71114","47.56","0","SATNPRO1509","27.864","0.3903","5"],
    [50275,"HCEP03730542","2025-03-05 00:00:00","9.3391","3.23523","26.564","4.5","7.57","0.223","5.061","0.01","0.32","29.7263","4.71071","47.51","0","SATNPRO1509","27.902","0.39082","5"],
    [50276,"HCEP03730542","2025-03-05 00:15:00","9.339","3.2353","26.53","4.488","7.57","0.216","4.901","0.01","0.27","29.7272","4.71083","47.38","0","SATNPRO1509","27.932","0.39124","5"],
    [50277,"HCEP03730542","2025-03-05 00:30:00","9.3387","3.23536","26.459","4.483","7.57","0.219","4.657","0.01","0.22","29.7281","4.71096","47.33","0","SATNPRO1509","27.92","0.3911","5"],
    [50278,"HCEP03730542","2025-03-05 00:45:00","9.3386","3.23528","26.367","4.482","7.57","0.215","4.665","0.01","0.19","29.7273","4.71085","47.32","0","SATNPRO1509","27.826","0.38976","5"],
    [50279,"HCEP03730542","2025-03-05 01:00:00","9.3437","3.23618","26.278","4.484","7.57","0.219","4.847","0.01","0.17","29.7323","4.71146","47.35","0","SATNPRO1509","28.024","0.39252","5"],
    [50280,"HCEP03730542","2025-03-05 01:15:00","9.3369","3.23488","26.191","4.486","7.57","0.209","4.649","0.01","0.66","29.7247","4.7105","47.36","0","SATNPRO1509","27.830000000000002","0.38982","5"],
    [50281,"HCEP03730542","2025-03-05 01:30:00","9.3408","3.23571","26.107","4.488","7.57","0.226","5.002","0.02","0.21","29.73","4.71117","47.39","0","SATNPRO1509","27.936","0.39128","5"],
    [50282,"HCEP03730542","2025-03-05 01:45:00","9.3505","3.23752","26.065","4.482","7.57","0.22","5.511","0.01","0.29","29.7403","4.71248","47.33","0","SATNPRO1509","27.996","0.3921","5"],
    [50283,"HCEP03730542","2025-03-05 02:00:00","9.3577","3.2388","25.998","4.475","7.57","0.23","5.514","0.01","0.32","29.7474","4.71335","47.27","0","SATNPRO1509","27.958","0.39158","5"],
    [50284,"HCEP03730542","2025-03-05 02:15:00","9.3573","3.23883","25.972","4.468","7.57","0.224","5.815","0.01","0.27","29.7481","4.71345","47.2","0","SATNPRO1509","28.064","0.3931","5"],
    [50285,"HCEP03730542","2025-03-05 02:30:00","9.3495","3.23751","25.95","4.467","7.57","0.223","5.318","0.01","0.17","29.7411","4.7126","47.18","0","SATNPRO1509","27.976","0.39186","5"],
    [50286,"HCEP03730542","2025-03-05 02:45:00","9.3492","3.23753","25.974","4.46","7.57","0.212","5.066","0.01","0.37","29.7416","4.71267","47.11","0","SATNPRO1509","27.888","0.39062","5"],
    [50287,"HCEP03730542","2025-03-05 03:00:00","9.3521","3.23826","26.025","4.448","7.57","0.226","5.459","0.01","0.28","29.7466","4.71334","46.98","0","SATNPRO1509","27.78","0.38908","5"],
    [50288,"HCEP03730542","2025-03-05 03:15:00","9.356","3.23917","26.102","4.421","7.57","0.224","6.061","0.01","0.27","29.7526","4.71413","46.7","0","SATNPRO1509","27.868","0.39034","5"],
    [50289,"HCEP03730542","2025-03-05 03:30:00","9.3529","3.23872","26.16","4.394","7.56","0.226","5.682","0.01","0.22","29.7505","4.71389","46.41","0","SATNPRO1509","27.858","0.39018","5"],
    [50290,"HCEP03730542","2025-03-05 03:45:00","9.3756","3.2433","26.233","4.401","7.57","0.227","6.054","0.01","0.27","29.7782","4.71745","46.52","0","SATNPRO1509","28.234","0.39548","5"],
    [50291,"HCEP03730542","2025-03-05 04:00:00","9.3808","3.2448","26.317","4.464","7.57","0.233","6.038","0.01","0.31","29.7891","4.71891","47.19","0","SATNPRO1509","28.45","0.39848","5"],
    [50292,"HCEP03730542","2025-03-05 04:15:00","9.3847","3.24636","26.409","4.521","7.57","0.222","5.634","0.01","0.21","29.8016","4.72064","47.8","0","SATNPRO1509","28.573999999999998","0.40022","5"],
    [50293,"HCEP03730542","2025-03-05 04:30:00","9.3864","3.2471","26.518","4.557","7.58","0.232","5.964","0.01","0.34","29.8077","4.72149","48.19","0","SATNPRO1509","28.64","0.40116","5"],
    [50294,"HCEP03730542","2025-03-05 04:45:00","9.3833","3.24783","26.618","4.582","7.58","0.223","5.56","0.01","0.32","29.8177","4.72298","48.46","0","SATNPRO1509","28.79","0.40324","5"],
    [50295,"HCEP03730542","2025-03-05 05:00:00","9.3849","3.24878","26.722","4.591","7.58","0.221","5.216","0.01","0.2","29.826","4.72415","48.55","0","SATNPRO1509","28.938","0.40532","5"],
    [50296,"HCEP03730542","2025-03-05 05:15:00","9.3855","3.24983","26.835","4.626","7.58","0.218","5.301","0.01","0.29","29.8361","4.72559","48.93","0","SATNPRO1509","29.09","0.40746","5"],
    [50297,"HCEP03730542","2025-03-05 05:30:00","9.381","3.24885","26.948","4.681","7.58","0.223","5.019","0.01","0.34","29.8299","4.72479","49.5","0","SATNPRO1509","29.214","0.40922","5"],
    [50298,"HCEP03730542","2025-03-05 05:45:00","9.377","3.24861","27.058","4.732","7.59","0.215","4.809","0.02","0.27","29.8306","4.72497","50.04","0","SATNPRO1509","29.438","0.41232","5"],
    [50299,"HCEP03730542","2025-03-05 06:00:00","9.3758","3.24859","27.174","4.819","7.6","0.221","4.605","0.04","0.32","29.8315","4.72512","50.95","0","SATNPRO1509","29.484","0.41294","5"],
    [50300,"HCEP03730542","2025-03-05 06:15:00","9.3759","3.24862","27.275","4.884","7.6","0.223","5.296","0.02","0.4","29.8315","4.72513","51.64","0","SATNPRO1509","29.684","0.41578","5"],
    [50301,"HCEP03730542","2025-03-05 06:30:00","9.3763","3.24868","27.369","4.925","7.6","0.222","4.943","0.02","0.57","29.8318","4.72517","52.07","0","SATNPRO1509","29.662","0.41544","5"],
    [50302,"HCEP03730542","2025-03-05 06:45:00","9.3748","3.24817","27.46","4.964","7.61","0.22","4.591","0.02","0.23","29.8279","4.72464","52.49","0","SATNPRO1509","29.774","0.41702","5"],
    [50303,"HCEP03730542","2025-03-05 07:00:00","9.3726","3.24764","27.528","5.009","7.61","0.211","4.313","0.01","0.38","29.8242","4.72417","52.95","0","SATNPRO1509","29.916","0.41906","5"],
    [50304,"HCEP03730542","2025-03-05 07:15:00","9.3657","3.24691","27.599","5.072","7.62","0.22","4.357","0.02","0.34","29.8226","4.72406","53.62","0","SATNPRO1509","29.87","0.4184","5"],
    [50305,"HCEP03730542","2025-03-05 07:30:00","9.362","3.24629","27.671","5.15","7.62","0.257","4.807","0.17","1.32","29.8193","4.72366","54.43","0","SATNPRO1509","29.764","0.4169","5"],
    [50306,"HCEP03730542","2025-03-05 07:45:00","9.3611","3.2461","27.725","5.187","7.62","0.367","5.778","0.04","1.62","29.8181","4.72351","54.83","0","SATNPRO1509","29.748","0.41666","5"],
    [50307,"HCEP03730542","2025-03-05 08:00:00","9.3607","3.24609","27.768","5.201","7.62","0.218","4.309","0.02","0.16","29.8184","4.72356","54.97","0","SATNPRO1509","29.964","0.41968","5"],
    [50308,"HCEP03730542","2025-03-05 08:15:00","9.3601","3.24573","27.782","5.206","7.62","0.204","4.414","0.01","0.28","29.8151","4.72311","55.02","0","SATNPRO1509","29.866","0.4183","5"],
    [50309,"HCEP03730542","2025-03-05 08:30:00","9.3602","3.24564","27.775","5.211","7.63","0.227","4.448","0.06","1.93","29.8142","4.72297","55.07","0","SATNPRO1509","29.928","0.4192","5"],
    [50310,"HCEP03730542","2025-03-05 08:45:00","9.3603","3.24575","27.735","5.212","7.63","0.202","3.916","0.01","0.3","29.8152","4.72311","55.09","0","SATNPRO1509","29.862","0.41828","5"],
    [50311,"HCEP03730542","2025-03-05 09:00:00","9.3613","3.2459","27.707","5.211","7.63","0.201","3.659","0.01","0.21","29.8159","4.72319","55.08","0","SATNPRO1509","29.747999999999998","0.41672","5"],
    [50312,"HCEP03730542","2025-03-05 09:15:00","9.3635","3.2464","27.634","5.202","7.62","0.618","16.319","0.62","12.93","29.8192","4.72361","54.98","0","SATNPRO1509","29.88","0.41854","5"],
    [50313,"HCEP03730542","2025-03-05 09:30:00","9.3663","3.24696","27.562","5.177","7.62","0.21","4.782","0.01","0.4","29.8226","4.72406","54.72","0","SATNPRO1509","29.844","0.41804","5"],
    [50314,"HCEP03730542","2025-03-05 09:45:00","9.3679","3.24708","27.457","5.139","7.62","0.264","5.434","0.04","0.87","29.8225","4.724","54.33","0","SATNPRO1509","29.828","0.41778","5"],
    [50315,"HCEP03730542","2025-03-05 10:00:00","9.3684","3.24706","27.36","5.112","7.62","0.332","6.465","0.03","1.5","29.822","4.72391","54.04","0","SATNPRO1509","29.696","0.41594","5"],
    [50316,"HCEP03730542","2025-03-05 10:15:00","9.3754","3.24811","27.208","5.096","7.61","0.284","6.59","0.03","0.66","29.8268","4.72447","53.88","0","SATNPRO1509","29.608","0.41474","5"],
    [50317,"HCEP03730542","2025-03-05 10:30:00","9.3776","3.2486","27.047","4.999","7.61","0.263","6.39","0.04","0.35","29.8301","4.72489","52.86","0","SATNPRO1509","29.47","0.41278","5"],
    [50318,"HCEP03730542","2025-03-05 10:45:00","9.3781","3.2488","26.886","4.923","7.6","0.324","8.251","0.02","0.99","29.8317","4.7251","52.06","0","SATNPRO1509","29.35","0.41108","5"],
    [50319,"HCEP03730542","2025-03-05 11:00:00","9.3782","3.24895","26.722","4.884","7.6","0.279","6.187","0.03","0.45","29.8332","4.7253","51.65","0","SATNPRO1509","29.32","0.41066","5"],
    [50320,"HCEP03730542","2025-03-05 11:15:00","9.3786","3.24878","26.543","4.852","7.6","0.294","8.29","0.03","0.61","29.8313","4.72501","51.3","0","SATNPRO1509","29.278","0.41008","5"],
    [50321,"HCEP03730542","2025-03-05 11:30:00","9.38","3.24879","26.328","4.82","7.59","0.275","6.905","0.01","0.56","29.8303","4.72482","50.97","0","SATNPRO1509","29.144","0.4082","5"],
    [50322,"HCEP03730542","2025-03-05 11:45:00","9.381","3.24841","26.097","4.765","7.59","0.254","5.776","0.04","0.6","29.8257","4.72414","50.39","0","SATNPRO1509","29.201999999999998","0.40902","5"],
    [50323,"HCEP03730542","2025-03-05 12:00:00","9.3788","3.2477","25.914","4.708","7.58","0.234","5.688","0.02","0.64","29.8204","4.72342","49.78","0","SATNPRO1509","29.028","0.40656","5"],
    [50324,"HCEP03730542","2025-03-05 12:15:00","9.3758","3.24696","25.689","4.63","7.58","0.231","6.16","0.01","0.31","29.8154","4.72273","48.95","0","SATNPRO1509","28.64","0.40112","5"],
    [50325,"HCEP03730542","2025-03-05 12:30:00","9.3642","3.24428","25.437","4.521","7.57","0.245","6.269","0.01","0.47","29.7979","4.72043","47.79","0","SATNPRO1509","28.746","0.40268","5"],
    [50326,"HCEP03730542","2025-03-05 12:45:00","9.3581","3.24348","25.182","4.511","7.58","0.225","5.644","0.01","0.46","29.7951","4.72012","47.67","0","SATNPRO1509","28.628","0.40098","5"],
    [50327,"HCEP03730542","2025-03-05 13:00:00","9.3557","3.24238","25.029","4.548","7.58","0.252","7.302","0.03","1.62","29.7859","4.71884","48.05","0","SATNPRO1509","28.528","0.3996","5"],
    [50328,"HCEP03730542","2025-03-05 13:15:00","9.3522","3.24132","24.794","4.579","7.58","0.26","6.064","0.03","1.15","29.7782","4.71778","48.38","0","SATNPRO1509","28.566","0.40006","5"],
    [50329,"HCEP03730542","2025-03-05 13:30:00","9.3495","3.24","24.576","4.597","7.58","0.291","6.26","0.02","0.68","29.767","4.71622","48.56","0","SATNPRO1509","28.364","0.39728","5"],
    [50330,"HCEP03730542","2025-03-05 13:45:00","9.3466","3.23906","24.405","4.62","7.58","0.258","6.168","0.03","1.34","29.7599","4.71525","48.8","0","SATNPRO1509","28.468","0.39874","5"],
    [50331,"HCEP03730542","2025-03-05 14:00:00","9.3457","3.23847","24.275","4.625","7.58","0.242","5.194","0.03","0.76","29.7548","4.71453","48.85","0","SATNPRO1509","28.338","0.39692","5"],
    [50332,"HCEP03730542","2025-03-05 14:15:00","9.3452","3.23847","24.148","4.623","7.58","0.231","4.682","0.02","0.39","29.7552","4.71459","48.82","0","SATNPRO1509","28.408","0.39792","5"],
    [50333,"HCEP03730542","2025-03-05 14:30:00","9.3459","3.23877","24.05","4.614","7.58","0.289","5.729","0.04","0.63","29.7578","4.71494","48.73","0","SATNPRO1509","28.34","0.39696","5"],
    [50334,"HCEP03730542","2025-03-05 14:45:00","9.3459","3.23886","24.009","4.596","7.58","0.223","4.626","0.03","0.49","29.7587","4.71507","48.54","0","SATNPRO1509","28.424","0.39812","5"],
    [50335,"HCEP03730542","2025-03-05 15:00:00","9.3466","3.23905","24.001","4.588","7.58","0.225","4.755","0.01","0.36","29.76","4.71525","48.46","0","SATNPRO1509","28.44","0.39836","5"],
    [50336,"HCEP03730542","2025-03-05 15:15:00","9.346","3.23882","24.04","4.581","7.58","0.261","4.26","0.05","0.26","29.7581","4.71498","48.39","0","SATNPRO1509","28.398","0.39776","5"],
    [50337,"HCEP03730542","2025-03-05 15:30:00","9.346","3.23888","24.07","4.58","7.58","0.236","4.487","0.04","0.37","29.7587","4.71507","48.37","0","SATNPRO1509","28.456","0.39856","5"],
    [50338,"HCEP03730542","2025-03-05 15:45:00","9.3454","3.23857","24.144","4.578","7.58","0.24","4.423","0.02","0.27","29.756","4.7147","48.35","0","SATNPRO1509","28.414","0.39798","5"],
    [50339,"HCEP03730542","2025-03-05 16:00:00","9.3448","3.23809","24.22","4.582","7.58","0.261","5.097","0.03","1.01","29.7516","4.71408","48.4","0","SATNPRO1509","28.362","0.39728","5"],
    [50340,"HCEP03730542","2025-03-05 16:15:00","9.3438","3.23793","24.296","4.585","7.58","0.222","4.7","0.02","0.4","29.7508","4.71399","48.42","0","SATNPRO1509","28.358","0.3972","5"],
    [50341,"HCEP03730542","2025-03-05 16:30:00","9.3437","3.23792","24.401","4.591","7.58","0.319","17.787","0.1","20.52","29.7507","4.71399","48.49","0","SATNPRO1509","28.368","0.39732","5"],
    [50342,"HCEP03730542","2025-03-05 16:45:00","9.3438","3.23798","24.506","4.598","7.58","0.232","4.745","0.03","0.61","29.7513","4.71407","48.56","0","SATNPRO1509","28.476","0.39886","5"],
    [50343,"HCEP03730542","2025-03-05 17:00:00","9.3413","3.23739","24.62","4.599","7.58","0.224","4.501","0.01","0.2","29.7473","4.71355","48.56","0","SATNPRO1509","28.496","0.39914","5"],
    [50344,"HCEP03730542","2025-03-05 17:15:00","9.3369","3.23649","24.741","4.636","7.59","0.211","4.219","0.02","0.18","29.7417","4.71285","48.95","0","SATNPRO1509","28.358","0.3972","5"],
    [50345,"HCEP03730542","2025-03-05 17:30:00","9.3335","3.23557","24.889","4.699","7.59","0.225","4.556","0.01","0.63","29.7351","4.71198","49.61","0","SATNPRO1509","28.502","0.3992","5"],
    [50346,"HCEP03730542","2025-03-05 17:45:00","9.33","3.2344","25.04","4.736","7.59","0.213","4.153","0.01","0.18","29.726","4.71074","49.99","0","SATNPRO1509","28.358","0.39724","5"],
    [50347,"HCEP03730542","2025-03-05 18:00:00","9.3275","3.23375","25.183","4.755","7.59","0.212","4.003","0.01","0.16","29.7215","4.71015","50.18","0","SATNPRO1509","28.39","0.39768","5"],
    [50348,"HCEP03730542","2025-03-05 18:15:00","9.3259","3.23281","25.372","4.769","7.6","0.202","3.699","0.01","0.19","29.7131","4.70899","50.34","0","SATNPRO1509","28.39","0.39766","5"],
    [50349,"HCEP03730542","2025-03-05 18:30:00","9.3232","3.23174","25.541","4.765","7.6","0.209","3.701","0","0.36","29.7044","4.7078","50.28","0","SATNPRO1509","28.162","0.3944","5"],
    [50350,"HCEP03730542","2025-03-05 18:45:00","9.3243","3.23208","25.724","4.754","7.59","0.21","3.927","0.01","0.17","29.7069","4.70815","50.17","0","SATNPRO1509","28.192","0.39488","5"],
    [50351,"HCEP03730542","2025-03-05 19:00:00","9.3254","3.23244","25.901","4.74","7.59","0.22","4.096","0.01","0.29","29.7096","4.70852","50.02","0","SATNPRO1509","28.222","0.39524","5"],
    [50352,"HCEP03730542","2025-03-05 19:15:00","9.3262","3.23287","26.094","4.732","7.59","0.229","5.429","0.02","2.32","29.7132","4.70904","49.94","0","SATNPRO1509","28.156","0.39438","5"],
    [50353,"HCEP03730542","2025-03-05 19:30:00","9.3259","3.23286","26.268","4.747","7.59","0.224","4.289","0.02","0.92","29.7133","4.70907","50.1","0","SATNPRO1509","28.227999999999998","0.39536","5"],
    [50354,"HCEP03730542","2025-03-05 19:45:00","9.3283","3.2335","26.442","4.752","7.59","0.22","5.174","0.02","0.58","29.7178","4.70968","50.16","0","SATNPRO1509","28.294","0.3963","5"],
    [50355,"HCEP03730542","2025-03-05 20:00:00","9.3291","3.23389","26.555","4.742","7.59","0.226","5.435","0.01","0.35","29.721","4.71013","50.05","0","SATNPRO1509","28.256","0.39572","5"],
    [50356,"HCEP03730542","2025-03-05 20:15:00","9.3302","3.23412","26.689","4.733","7.59","0.229","6.047","0.01","0.45","29.7224","4.71031","49.96","0","SATNPRO1509","28.27","0.39594","5"],
    [50357,"HCEP03730542","2025-03-05 20:30:00","9.3305","3.23416","26.788","4.719","7.59","0.286","7.398","0.05","2.95","29.7225","4.71034","49.81","0","SATNPRO1509","28.132","0.39404","5"],
    [50358,"HCEP03730542","2025-03-05 20:45:00","9.3309","3.23422","26.952","4.71","7.59","1.009","29.39","1.79","31.8","29.7227","4.71036","49.72","0","SATNPRO1509","28.14","0.39418","5"],
    [50359,"HCEP03730542","2025-03-05 21:00:00","9.3311","3.23429","27.016","4.712","7.59","0.232","5.674","0.01","0.47","29.7232","4.71044","49.73","0","SATNPRO1509","28.054","0.39294","5"],
    [50360,"HCEP03730542","2025-03-05 21:15:00","9.3413","3.23739","27.088","4.69","7.59","0.436","65.962","0.14","28.22","29.7463","4.71356","49.52","0","SATNPRO1509","28.404","0.39784","5"],
    [50361,"HCEP03730542","2025-03-05 21:30:00","9.3432","3.23794","27.151","4.617","7.58","0.226","4.785","0.01","0.33","29.7502","4.71409","48.76","0","SATNPRO1509","28.238","0.39552","5"],
    [50362,"HCEP03730542","2025-03-05 21:45:00","9.3448","3.23838","27.162","4.595","7.58","0.214","4.627","0.01","0.22","29.7533","4.7145","48.53","0","SATNPRO1509","28.414","0.398","5"],
    [50363,"HCEP03730542","2025-03-05 22:00:00","9.3464","3.23892","27.205","4.568","7.58","0.223","4.964","0.01","0.81","29.7574","4.71507","48.24","0","SATNPRO1509","28.298","0.39636","5"],
    [50364,"HCEP03730542","2025-03-05 22:15:00","9.3485","3.23936","27.191","4.545","7.58","0.217","4.786","0.01","0.4","29.7603","4.71544","48","0","SATNPRO1509","28.232","0.39544","5"],
    [50365,"HCEP03730542","2025-03-05 22:30:00","9.3499","3.23931","27.184","4.52","7.57","0.23","5.861","0.01","0.41","29.7586","4.71516","47.75","0","SATNPRO1509","28.196","0.39494","5"],
    [50366,"HCEP03730542","2025-03-05 22:45:00","9.3566","3.24004","27.153","4.505","7.57","0.234","6.342","0.01","0.53","29.7605","4.71531","47.59","0","SATNPRO1509","28.116","0.39378","5"],
    [50367,"HCEP03730542","2025-03-05 23:00:00","9.3642","3.24124","27.132","4.506","7.57","0.241","6.232","0.01","0.57","29.7663","4.71601","47.61","0","SATNPRO1509","28.282","0.39618","5"],
    [50368,"HCEP03730542","2025-03-05 23:15:00","9.3662","3.24208","27.109","4.564","7.58","0.227","5.588","0.01","0.49","29.7732","4.71696","48.23","0","SATNPRO1509","28.532","0.39962","5"],
    [50369,"HCEP03730542","2025-03-05 23:30:00","9.3661","3.24276","27.059","4.692","7.59","0.234","5.749","0.02","0.53","29.7802","4.71796","49.58","0","SATNPRO1509","28.692","0.4019","5"],
    [50370,"HCEP03730542","2025-03-05 23:45:00","9.3659","3.24312","27.039","4.778","7.59","0.214","5.412","0.01","0.33","29.7841","4.71852","50.49","0","SATNPRO1509","28.97","0.4058","5"],
    [50371,"HCEP03730542","2025-03-06 00:00:00","9.367","3.24357","27.018","4.814","7.59","0.223","5.727","0.01","0.19","29.7878","4.71902","50.88","0","SATNPRO1509","28.886","0.4046","5"],
    [50372,"HCEP03730542","2025-03-06 00:15:00","9.3669","3.24374","26.975","4.825","7.59","0.22","5.915","0.01","0.5","29.7896","4.71928","50.99","0","SATNPRO1509","28.996","0.40616","5"],
    [50373,"HCEP03730542","2025-03-06 00:30:00","9.3636","3.24329","26.924","4.842","7.6","0.243","6.466","0.05","2.39","29.7877","4.71907","51.17","0","SATNPRO1509","28.974","0.40584","5"],
    [50374,"HCEP03730542","2025-03-06 00:45:00","9.3553","3.24286","26.887","4.901","7.6","0.228","7.11","0.02","2.46","29.7903","4.71958","51.79","0","SATNPRO1509","29.324","0.4107","5"],
    [50375,"HCEP03730542","2025-03-06 01:00:00","9.351","3.24331","26.838","4.973","7.61","0.228","6.526","0.02","1.9","29.7985","4.72083","52.54","0","SATNPRO1509","29.342","0.41096","5"],
    [50376,"HCEP03730542","2025-03-06 01:15:00","9.3513","3.24384","26.782","5.015","7.61","0.215","8.289","0.01","3.79","29.8037","4.72157","52.99","0","SATNPRO1509","29.306","0.41052","5"],
    [50377,"HCEP03730542","2025-03-06 01:30:00","9.3517","3.24461","26.709","5.021","7.61","0.224","7.49","0.02","2","29.8112","4.72263","53.05","0","SATNPRO1509","29.45","0.41246","5"],
    [50378,"HCEP03730542","2025-03-06 01:45:00","9.3513","3.24485","26.668","5.018","7.61","0.208","5.972","0.01","2.4","29.814","4.72304","53.03","0","SATNPRO1509","29.498","0.41316","5"],
    [50379,"HCEP03730542","2025-03-06 02:00:00","9.3535","3.24522","26.631","5.003","7.61","0.22","4.84","0.02","0.45","29.816","4.72329","52.87","0","SATNPRO1509","29.278000000000002","0.41012","5"],
    [50380,"HCEP03730542","2025-03-06 02:15:00","9.3563","3.24576","26.592","4.965","7.6","0.233","5.917","0.03","1.33","29.8191","4.72368","52.48","0","SATNPRO1509","29.39","0.41168","5"],
    [50381,"HCEP03730542","2025-03-06 02:30:00","9.3566","3.24605","26.556","4.913","7.6","0.225","5.952","0.01","0.97","29.8218","4.72405","51.92","0","SATNPRO1509","29.176","0.40868","5"],
    [50382,"HCEP03730542","2025-03-06 02:45:00","9.3571","3.24647","26.528","4.895","7.6","0.237","6.591","0.03","1.1","29.8257","4.7246","51.74","0","SATNPRO1509","29.346","0.41106","5"],
    [50383,"HCEP03730542","2025-03-06 03:00:00","9.3558","3.24674","26.498","4.87","7.6","0.231","6.52","0.01","0.99","29.8296","4.72517","51.48","0","SATNPRO1509","29.34","0.41096","5"],
    [50384,"HCEP03730542","2025-03-06 03:15:00","9.3541","3.2468","26.488","4.87","7.6","0.23","7.445","0.02","2.67","29.8316","4.7255","51.47","0","SATNPRO1509","29.348","0.41106","5"],
    [50385,"HCEP03730542","2025-03-06 03:30:00","9.3559","3.24712","26.485","4.865","7.6","0.233","7.067","0.02","2.19","29.8333","4.7257","51.42","0","SATNPRO1509","29.394","0.41172","5"],
    [50386,"HCEP03730542","2025-03-06 03:45:00","9.3569","3.24739","26.486","4.859","7.6","0.224","6.707","0.02","1.96","29.8352","4.72596","51.36","0","SATNPRO1509","29.352","0.4111","5"],
    [50387,"HCEP03730542","2025-03-06 04:00:00","9.3557","3.24749","26.507","4.861","7.6","0.235","5.693","0.02","0.56","29.8372","4.72627","51.38","0","SATNPRO1509","29.422","0.41214","5"],
    [50388,"HCEP03730542","2025-03-06 04:15:00","9.3548","3.24752","26.538","4.872","7.6","0.224","5.626","0.02","0.68","29.8382","4.72644","51.5","0","SATNPRO1509","29.382","0.41154","5"],
    [50389,"HCEP03730542","2025-03-06 04:30:00","9.3535","3.24744","26.586","4.877","7.6","0.236","5.449","0.02","0.47","29.8385","4.7265","51.55","0","SATNPRO1509","29.456","0.41258","5"],
    [50390,"HCEP03730542","2025-03-06 04:45:00","9.35","3.24726","26.639","4.892","7.6","0.22","5.238","0.02","0.46","29.8396","4.72672","51.7","0","SATNPRO1509","29.482","0.41294","5"],
    [50391,"HCEP03730542","2025-03-06 05:00:00","9.3461","3.24711","26.677","4.911","7.6","0.241","5.311","0.02","0.56","29.8413","4.72704","51.89","0","SATNPRO1509","29.54","0.41374","5"],
    [50392,"HCEP03730542","2025-03-06 05:15:00","9.3408","3.24678","26.732","4.946","7.61","0.246","5.613","0.04","0.81","29.8424","4.7273","52.26","0","SATNPRO1509","29.724","0.4163","5"],
    [50393,"HCEP03730542","2025-03-06 05:30:00","9.3369","3.24646","26.796","4.99","7.61","0.223","5.051","0.01","0.32","29.8423","4.72736","52.72","0","SATNPRO1509","29.746","0.41668","5"],
    [50394,"HCEP03730542","2025-03-06 05:45:00","9.3331","3.2461","26.867","5.022","7.61","0.231","4.939","0.02","0.4","29.8418","4.72736","53.05","0","SATNPRO1509","29.66","0.41542","5"],
    [50395,"HCEP03730542","2025-03-06 06:00:00","9.3325","3.24599","26.928","5.038","7.61","0.224","4.7","0.05","1.01","29.8412","4.72729","53.22","0","SATNPRO1509","29.734","0.41644","5"],
    [50396,"HCEP03730542","2025-03-06 06:15:00","9.3358","3.24648","26.984","5.041","7.61","0.202","4.33","0.01","0.23","29.8433","4.72754","53.25","0","SATNPRO1509","29.742","0.41658","5"],
    [50397,"HCEP03730542","2025-03-06 06:30:00","9.3319","3.24622","27.041","5.028","7.61","0.218","4.81","0.01","0.37","29.8439","4.7277","53.12","0","SATNPRO1509","29.676","0.41568","5"],
    [50398,"HCEP03730542","2025-03-06 06:45:00","9.3276","3.24601","27.116","5.041","7.61","0.255","5.562","0.05","1.62","29.8454","4.72799","53.25","0","SATNPRO1509","29.842","0.41798","5"],
    [50399,"HCEP03730542","2025-03-06 07:00:00","9.3184","3.24553","27.176","5.079","7.62","0.21","4.595","0.01","0.39","29.8481","4.72856","53.64","0","SATNPRO1509","29.944","0.4194","5"],
    [50400,"HCEP03730542","2025-03-06 07:15:00","9.3116","3.24524","27.237","5.139","7.62","0.264","4.227","0.06","0.3","29.8508","4.72907","54.27","0","SATNPRO1509","29.928","0.41918","5"],
    [50401,"HCEP03730542","2025-03-06 07:30:00","9.3104","3.24501","27.294","5.177","7.62","0.256","8.399","0.05","1.63","29.8495","4.7289","54.67","0","SATNPRO1509","29.906","0.41888","5"],
    [50402,"HCEP03730542","2025-03-06 07:45:00","9.3089","3.2448","27.339","5.207","7.62","0.275","4.302","0.08","0.34","29.8485","4.7288","54.98","0","SATNPRO1509","30.032","0.42062","5"],
    [50403,"HCEP03730542","2025-03-06 08:00:00","9.31","3.24479","27.382","5.218","7.62","0.211","4.359","0.01","0.26","29.8475","4.72864","55.1","0","SATNPRO1509","30.128","0.42202","5"],
    [50404,"HCEP03730542","2025-03-06 08:15:00","9.3008","3.24391","27.405","5.231","7.63","0.248","4.539","0.03","0.52","29.8463","4.72863","55.22","0","SATNPRO1509","29.96","0.41964","5"],
    [50405,"HCEP03730542","2025-03-06 08:30:00","9.293","3.24366","27.425","5.309","7.63","0.208","4.26","0.01","0.22","29.8502","4.72933","56.04","0","SATNPRO1509","30.072","0.42124","5"],
    [50406,"HCEP03730542","2025-03-06 08:45:00","9.2804","3.24267","27.433","5.369","7.64","0.184","3.041","0.01","0.15","29.8506","4.72964","56.65","0","SATNPRO1509","30.407999999999998","0.42592","5"],
    [50407,"HCEP03730542","2025-03-06 09:00:00","9.2869","3.24329","27.448","5.446","7.64","0.2","3.883","0.01","0.22","29.8515","4.72964","57.47","0","SATNPRO1509","30.216","0.42322","5"],
    [50408,"HCEP03730542","2025-03-06 09:15:00","9.2632","3.2419","27.454","5.465","7.65","0.295","3.71","0.04","0.79","29.8571","4.73089","57.65","0","SATNPRO1509","30.662","0.42948","5"],
    [50409,"HCEP03730542","2025-03-06 09:30:00","9.2552","3.24159","27.435","5.586","7.66","0.22","3.34","0.05","0.33","29.8607","4.73154","58.92","0","SATNPRO1509","30.682","0.42978","5"],
    [50410,"HCEP03730542","2025-03-06 09:45:00","9.2459","3.24131","27.38","5.664","7.66","0.185","3.101","0.01","0.53","29.8656","4.73241","59.73","0","SATNPRO1509","30.846","0.432","5"],
    [50411,"HCEP03730542","2025-03-06 10:00:00","9.2511","3.24235","27.332","5.694","7.66","0.233","4.728","0.03","0.47","29.8719","4.73321","60.05","0","SATNPRO1509","30.698","0.42994","5"],
    [50412,"HCEP03730542","2025-03-06 10:15:00","9.2495","3.24288","27.25","5.636","7.66","0.393","6.192","0.04","1.3","29.8786","4.7342","59.45","0","SATNPRO1509","30.72","0.43032","5"],
    [50413,"HCEP03730542","2025-03-06 10:30:00","9.2466","3.24309","27.118","5.616","7.66","0.237","6.265","0.04","1.89","29.8832","4.7349","59.23","0","SATNPRO1509","30.702","0.43002","5"],
    [50414,"HCEP03730542","2025-03-06 10:45:00","9.2404","3.2429","26.915","5.604","7.66","0.424","8.323","0.05","2","29.8866","4.73548","59.1","0","SATNPRO1509","30.858","0.4322","5"],
    [50415,"HCEP03730542","2025-03-06 11:00:00","9.2339","3.24253","26.782","5.629","7.66","0.368","9.961","0.08","3.11","29.8882","4.73584","59.36","0","SATNPRO1509","30.87","0.4324","5"],
    [50416,"HCEP03730542","2025-03-06 11:15:00","9.2347","3.24261","26.642","5.667","7.66","0.219","3.987","0.03","0.31","29.8885","4.73585","59.76","0","SATNPRO1509","30.942","0.43342","5"],
    [50417,"HCEP03730542","2025-03-06 11:30:00","9.2368","3.24274","26.458","5.666","7.66","0.218","5.921","0.05","5.17","29.8881","4.73575","59.75","0","SATNPRO1509","30.956","0.43356","5"],
    [50418,"HCEP03730542","2025-03-06 11:45:00","9.2457","3.24282","26.289","5.651","7.66","0.192","3.549","0.01","0.66","29.8816","4.73464","59.6","0","SATNPRO1509","30.906","0.43288","5"],
    [50419,"HCEP03730542","2025-03-06 12:00:00","9.2652","3.24399","26.118","5.617","7.65","0.205","3.981","0.01","0.26","29.8773","4.73365","59.26","0","SATNPRO1509","30.518","0.42746","5"],
    [50420,"HCEP03730542","2025-03-06 12:15:00","9.2674","3.24378","25.909","5.495","7.65","0.204","4.17","0.01","0.17","29.8734","4.73305","57.98","0","SATNPRO1509","30.524","0.42754","5"],
    [50421,"HCEP03730542","2025-03-06 12:30:00","9.2687","3.2436","25.728","5.442","7.64","0.222","4.842","0.02","0.95","29.8705","4.7326","57.42","0","SATNPRO1509","30.598","0.4286","5"],
    [50422,"HCEP03730542","2025-03-06 12:45:00","9.2715","3.24332","25.576","5.428","7.64","0.233","5.416","0.01","0.66","29.8654","4.73179","57.28","0","SATNPRO1509","30.434","0.42626","5"],
    [50423,"HCEP03730542","2025-03-06 13:00:00","9.2742","3.24342","25.439","5.433","7.64","0.211","4.398","0.01","0.17","29.8643","4.73158","57.32","0","SATNPRO1509","30.476","0.42686","5"],
    [50424,"HCEP03730542","2025-03-06 13:15:00","9.2792","3.2436","25.244","5.414","7.64","0.205","4.686","0.01","0.29","29.862","4.73115","57.13","0","SATNPRO1509","30.436","0.42632","5"],
    [50425,"HCEP03730542","2025-03-06 13:30:00","9.2845","3.24382","25.058","5.386","7.64","0.206","4.1","0.01","0.21","29.8599","4.73075","56.85","0","SATNPRO1509","30.296","0.42432","5"],
    [50426,"HCEP03730542","2025-03-06 13:45:00","9.2917","3.24404","24.887","5.347","7.64","0.199","3.807","0.01","0.24","29.8562","4.73006","56.43","0","SATNPRO1509","30.388","0.42562","5"],
    [50427,"HCEP03730542","2025-03-06 14:00:00","9.2924","3.24404","24.732","5.307","7.63","0.208","4.075","0.01","0.27","29.8557","4.72998","56.02","0","SATNPRO1509","30.272","0.424","5"],
    [50428,"HCEP03730542","2025-03-06 14:15:00","9.2977","3.24413","24.582","5.291","7.63","0.201","4.081","0.01","0.74","29.8522","4.72937","55.85","0","SATNPRO1509","30.174","0.42266","5"],
    [50429,"HCEP03730542","2025-03-06 14:30:00","9.2952","3.24413","24.455","5.26","7.63","0.207","3.833","0.01","0.2","29.8543","4.72971","55.53","0","SATNPRO1509","30.22","0.42326","5"],
    [50430,"HCEP03730542","2025-03-06 14:45:00","9.299","3.24399","24.298","5.24","7.63","0.199","3.499","0.01","0.23","29.8497","4.72898","55.32","0","SATNPRO1509","30.154","0.42238","5"],
    [50431,"HCEP03730542","2025-03-06 15:00:00","9.2954","3.24398","24.177","5.229","7.63","0.211","3.933","0.01","0.15","29.8527","4.72946","55.19","0","SATNPRO1509","30.218","0.42324","5"],
    [50432,"HCEP03730542","2025-03-06 15:15:00","9.2974","3.24396","24.099","5.233","7.63","0.206","3.697","0.01","0.25","29.851","4.72917","55.25","0","SATNPRO1509","30.166","0.42252","5"],
    [50433,"HCEP03730542","2025-03-06 15:30:00","9.3003","3.24374","24.031","5.223","7.63","0.206","3.472","0.01","0.3","29.8463","4.72844","55.14","0","SATNPRO1509","30.105999999999998","0.4217","5"],
    [50434,"HCEP03730542","2025-03-06 15:45:00","9.2993","3.24392","23.999","5.214","7.63","0.201","3.601","0.01","0.16","29.8489","4.72884","55.05","0","SATNPRO1509","30.16","0.42244","5"],
    [50435,"HCEP03730542","2025-03-06 16:00:00","9.2973","3.24401","24.016","5.205","7.63","0.207","3.859","0.01","0.29","29.8515","4.72925","54.95","0","SATNPRO1509","30.23","0.42342","5"],
    [50436,"HCEP03730542","2025-03-06 16:15:00","9.2969","3.24382","24.024","5.211","7.63","0.196","3.395","0.01","0.13","29.8499","4.72902","55.01","0","SATNPRO1509","30.188","0.42284","5"],
    [50437,"HCEP03730542","2025-03-06 16:30:00","9.2964","3.2438","24.049","5.213","7.63","0.33","4.308","0.05","0.19","29.8501","4.72906","55.03","0","SATNPRO1509","30.1","0.42158","5"],
    [50438,"HCEP03730542","2025-03-06 16:45:00","9.2979","3.24365","24.1","5.21","7.63","0.514","6.043","0.04","1.15","29.8474","4.72865","55","0","SATNPRO1509","30.046","0.42086","5"],
    [50439,"HCEP03730542","2025-03-06 17:00:00","9.2996","3.24357","24.15","5.201","7.62","0.362","6.627","0.09","1.32","29.8451","4.7283","54.91","0","SATNPRO1509","30.01","0.42032","5"],
    [50440,"HCEP03730542","2025-03-06 17:15:00","9.3047","3.24346","24.225","5.182","7.62","0.269","4.502","0.03","0.23","29.8397","4.72742","54.71","0","SATNPRO1509","29.852","0.41812","5"],
    [50441,"HCEP03730542","2025-03-06 17:30:00","9.3127","3.24351","24.308","5.144","7.62","0.278","4.712","0.03","0.39","29.8335","4.7264","54.32","0","SATNPRO1509","29.77","0.41696","5"],
    [50442,"HCEP03730542","2025-03-06 17:45:00","9.3194","3.24348","24.421","5.083","7.61","0.231","4.677","0.02","0.39","29.8276","4.72544","53.67","0","SATNPRO1509","29.478","0.41292","5"],
    [50443,"HCEP03730542","2025-03-06 18:00:00","9.331","3.2434","24.546","5.006","7.61","0.229","4.774","0.01","0.39","29.817","4.72372","52.87","0","SATNPRO1509","29.35","0.4111","5"],
    [50444,"HCEP03730542","2025-03-06 18:15:00","9.3354","3.24331","24.68","4.913","7.6","0.236","4.582","0.02","0.36","29.8123","4.72298","51.89","0","SATNPRO1509","29.105999999999998","0.40768","5"],
    [50445,"HCEP03730542","2025-03-06 18:30:00","9.341","3.24265","24.773","4.841","7.6","0.226","4.42","0.01","0.34","29.8009","4.72125","51.14","0","SATNPRO1509","28.946","0.40542","5"],
    [50446,"HCEP03730542","2025-03-06 18:45:00","9.3422","3.24249","24.91","4.769","7.59","0.214","4.097","0.01","0.25","29.7983","4.72085","50.38","0","SATNPRO1509","28.95","0.40552","5"],
    [50447,"HCEP03730542","2025-03-06 19:00:00","9.3433","3.24233","25.08","4.736","7.59","0.224","4.081","0.01","0.22","29.7956","4.72046","50.03","0","SATNPRO1509","28.88","0.40452","5"],
    [50448,"HCEP03730542","2025-03-06 19:15:00","9.3438","3.24219","25.236","4.704","7.59","0.214","4.231","0.01","0.26","29.7938","4.7202","49.69","0","SATNPRO1509","28.78","0.40308","5"],
    [50449,"HCEP03730542","2025-03-06 19:30:00","9.3442","3.24208","25.428","4.688","7.59","0.227","4.419","0.01","0.23","29.7923","4.71999","49.52","0","SATNPRO1509","28.724","0.4023","5"],
    [50450,"HCEP03730542","2025-03-06 19:45:00","9.3438","3.24191","25.593","4.674","7.59","0.219","4.473","0.01","0.32","29.7908","4.7198","49.38","0","SATNPRO1509","28.814","0.40356","5"],
    [50451,"HCEP03730542","2025-03-06 20:00:00","9.3418","3.24145","25.768","4.671","7.59","0.231","4.11","0.02","0.25","29.7877","4.71941","49.34","0","SATNPRO1509","28.732","0.40244","5"],
    [50452,"HCEP03730542","2025-03-06 20:15:00","9.3399","3.24108","25.957","4.683","7.59","0.215","4.381","0.02","0.41","29.7855","4.71912","49.47","0","SATNPRO1509","28.79","0.40324","5"],
    [50453,"HCEP03730542","2025-03-06 20:30:00","9.3376","3.24058","26.114","4.709","7.59","0.229","3.983","0.02","0.37","29.7822","4.7187","49.73","0","SATNPRO1509","28.7","0.402","5"],
    [50454,"HCEP03730542","2025-03-06 20:45:00","9.3363","3.24025","26.283","4.748","7.59","0.221","4.443","0.01","0.45","29.7798","4.7184","50.14","0","SATNPRO1509","28.84","0.40396","5"],
    [50455,"HCEP03730542","2025-03-06 21:00:00","9.3348","3.2399","26.449","4.767","7.59","0.221","4.025","0.01","0.34","29.7775","4.7181","50.34","0","SATNPRO1509","28.922","0.4051","5"],
    [50456,"HCEP03730542","2025-03-06 21:15:00","9.335","3.23989","26.597","4.785","7.59","0.221","4.091","0.02","0.31","29.7771","4.71806","50.53","0","SATNPRO1509","28.948","0.40544","5"],
    [50457,"HCEP03730542","2025-03-06 21:30:00","9.3351","3.23994","26.716","4.789","7.59","0.222","4.057","0.01","0.2","29.7776","4.71813","50.57","0","SATNPRO1509","28.986","0.40596","5"],
    [50458,"HCEP03730542","2025-03-06 21:45:00","9.3352","3.23982","26.847","4.791","7.59","0.21","3.851","0.01","0.21","29.7761","4.71793","50.59","0","SATNPRO1509","28.854","0.40414","5"],
    [50459,"HCEP03730542","2025-03-06 22:00:00","9.3356","3.24009","26.936","4.794","7.59","0.216","3.972","0.01","0.23","29.7785","4.71826","50.62","0","SATNPRO1509","28.91","0.40492","5"],
    [50460,"HCEP03730542","2025-03-06 22:15:00","9.3359","3.24013","27.046","4.789","7.59","0.214","4.053","0.02","0.33","29.7786","4.71827","50.57","0","SATNPRO1509","28.912","0.40494","5"],
    [50461,"HCEP03730542","2025-03-06 22:30:00","9.3347","3.24008","27.108","4.786","7.59","0.221","4.65","0.01","0.29","29.7791","4.71837","50.54","0","SATNPRO1509","28.904","0.40484","5"],
    [50462,"HCEP03730542","2025-03-06 22:45:00","9.3336","3.24002","27.191","4.789","7.59","0.212","4.421","0.01","0.39","29.7794","4.71844","50.58","0","SATNPRO1509","28.992","0.40608","5"],
    [50463,"HCEP03730542","2025-03-06 23:00:00","9.3362","3.24027","27.211","4.796","7.59","0.752","27.461","0.68","24.37","29.7797","4.71845","50.66","0","SATNPRO1509","28.964","0.40568","5"],
    [50464,"HCEP03730542","2025-03-06 23:15:00","9.338","3.241","27.235","4.783","7.59","0.224","4.587","0.02","0.32","29.7856","4.71926","50.52","0","SATNPRO1509","28.846","0.40404","5"],
    [50465,"HCEP03730542","2025-03-06 23:30:00","9.3396","3.24146","27.248","4.746","7.59","0.231","5.005","0.01","0.42","29.789","4.71972","50.13","0","SATNPRO1509","28.768","0.40296","5"],
    [50466,"HCEP03730542","2025-03-06 23:45:00","9.3388","3.24143","27.248","4.717","7.59","0.227","5.314","0.02","0.76","29.7893","4.71977","49.82","0","SATNPRO1509","28.68","0.40168","5"],
    [50467,"HCEP03730542","2025-03-07 00:00:00","9.3401","3.24215","27.243","4.701","7.59","0.248","5.714","0.02","0.45","29.7956","4.72064","49.66","0","SATNPRO1509","28.712","0.40216","5"],
    [50468,"HCEP03730542","2025-03-07 00:15:00","9.3387","3.24205","27.254","4.678","7.59","0.235","5.561","0.02","0.51","29.7957","4.72069","49.42","0","SATNPRO1509","28.756","0.4028","5"],
    [50469,"HCEP03730542","2025-03-07 00:30:00","9.3378","3.24206","27.248","4.695","7.59","0.251","5.974","0.02","0.41","29.7966","4.72084","49.59","0","SATNPRO1509","28.806","0.40348","5"],
    [50470,"HCEP03730542","2025-03-07 00:45:00","9.3369","3.24214","27.25","4.707","7.59","0.244","5.463","0.04","0.3","29.7982","4.72108","49.72","0","SATNPRO1509","28.828","0.40378","5"],
    [50471,"HCEP03730542","2025-03-07 01:00:00","9.3366","3.24251","27.225","4.723","7.59","0.24","5.859","0.02","0.45","29.8022","4.72166","49.88","0","SATNPRO1509","28.738","0.4025","5"],
    [50472,"HCEP03730542","2025-03-07 01:15:00","9.3359","3.24272","27.209","4.729","7.59","0.243","6.026","0.03","0.46","29.8049","4.72206","49.95","0","SATNPRO1509","28.826","0.40376","5"],
    [50473,"HCEP03730542","2025-03-07 01:30:00","9.3356","3.24318","27.181","4.74","7.59","0.239","6.175","0.01","0.49","29.8098","4.72276","50.07","0","SATNPRO1509","28.988","0.406","5"],
    [50474,"HCEP03730542","2025-03-07 01:45:00","9.3336","3.2435","27.149","4.738","7.59","0.233","5.743","0.01","0.39","29.8147","4.7235","50.04","0","SATNPRO1509","28.952","0.40552","5"],
    [50475,"HCEP03730542","2025-03-07 02:00:00","9.3315","3.2437","27.097","4.754","7.59","0.24","5.37","0.03","0.41","29.8186","4.72409","50.21","0","SATNPRO1509","29.096","0.40752","5"],
    [50476,"HCEP03730542","2025-03-07 02:15:00","9.3299","3.24385","27.056","4.774","7.59","0.225","5.126","0.01","0.23","29.8215","4.72452","50.42","0","SATNPRO1509","29.136","0.40806","5"],
    [50477,"HCEP03730542","2025-03-07 02:30:00","9.3275","3.24388","27.014","4.79","7.59","0.235","5.189","0.02","0.5","29.8238","4.7249","50.59","0","SATNPRO1509","29.326","0.41078","5"],
    [50478,"HCEP03730542","2025-03-07 02:45:00","9.3233","3.24355","26.975","4.826","7.6","0.221","4.962","0.02","0.35","29.8239","4.72499","50.97","0","SATNPRO1509","29.152","0.40834","5"],
    [50479,"HCEP03730542","2025-03-07 03:00:00","9.3123","3.2429","26.916","4.881","7.6","0.217","5.226","0.01","0.62","29.8265","4.72557","51.54","0","SATNPRO1509","29.32","0.41066","5"],
    [50480,"HCEP03730542","2025-03-07 03:15:00","9.3107","3.24298","26.865","4.97","7.61","0.215","5.102","0.01","0.33","29.8287","4.7259","52.47","0","SATNPRO1509","29.478","0.41292","5"],
    [50481,"HCEP03730542","2025-03-07 03:30:00","9.3116","3.24309","26.83","5.001","7.61","0.228","4.8","0.04","0.35","29.8291","4.72594","52.8","0","SATNPRO1509","29.342","0.41098","5"],
    [50482,"HCEP03730542","2025-03-07 03:45:00","9.3124","3.24324","26.791","5","7.61","0.211","4.554","0.01","0.37","29.83","4.72605","52.79","0","SATNPRO1509","29.541999999999998","0.41378","5"],
    [50483,"HCEP03730542","2025-03-07 04:00:00","9.3125","3.24329","26.749","4.987","7.61","0.219","4.594","0.01","0.3","29.8303","4.7261","52.66","0","SATNPRO1509","29.368","0.41136","5"],
    [50484,"HCEP03730542","2025-03-07 04:15:00","9.3131","3.24334","26.73","4.978","7.6","0.222","5.075","0.02","0.31","29.8303","4.72608","52.56","0","SATNPRO1509","29.352","0.4111","5"],
    [50485,"HCEP03730542","2025-03-07 04:30:00","9.315","3.24337","26.699","4.965","7.6","0.377","10.648","0.41","14.06","29.8291","4.72588","52.43","0","SATNPRO1509","29.394000000000002","0.41172","5"],
    [50486,"HCEP03730542","2025-03-07 04:45:00","9.3159","3.24339","26.682","4.958","7.6","0.216","4.955","0.01","0.26","29.8286","4.72577","52.35","0","SATNPRO1509","29.422","0.41208","5"],
    [50487,"HCEP03730542","2025-03-07 05:00:00","9.3165","3.24336","26.662","4.953","7.6","0.212","4.389","0.01","0.24","29.8277","4.72565","52.31","0","SATNPRO1509","29.452","0.4125","5"],
    [50488,"HCEP03730542","2025-03-07 05:15:00","9.3171","3.2427","26.676","4.958","7.61","0.268","4.807","0.06","1","29.8206","4.72461","52.35","0","SATNPRO1509","29.432","0.41224","5"],
    [50489,"HCEP03730542","2025-03-07 05:30:00","9.317","3.24301","26.694","4.975","7.61","0.239","5.283","0.03","0.96","29.8238","4.72508","52.53","0","SATNPRO1509","29.538","0.41374","5"],
    [50490,"HCEP03730542","2025-03-07 05:45:00","9.3165","3.24271","26.722","4.978","7.61","0.211","4.849","0.02","0.98","29.8212","4.72471","52.56","0","SATNPRO1509","29.464","0.41266","5"],
    [50491,"HCEP03730542","2025-03-07 06:00:00","9.3161","3.24252","26.72","4.984","7.61","0.207","4.419","0.01","0.27","29.8196","4.7245","52.62","0","SATNPRO1509","29.41","0.4119","5"],
    [50492,"HCEP03730542","2025-03-07 06:15:00","9.3151","3.24255","26.735","4.994","7.61","0.255","5.873","0.03","0.55","29.8207","4.72466","52.73","0","SATNPRO1509","29.514","0.41342","5"],
    [50493,"HCEP03730542","2025-03-07 06:30:00","9.3137","3.2426","26.76","5.003","7.61","0.283","5.318","0.04","1.43","29.8224","4.72494","52.82","0","SATNPRO1509","29.628","0.41498","5"],
    [50494,"HCEP03730542","2025-03-07 06:45:00","9.3124","3.24273","26.799","5.013","7.61","0.217","4.838","0.04","0.37","29.8248","4.7253","52.93","0","SATNPRO1509","29.62","0.4149","5"],
    [50495,"HCEP03730542","2025-03-07 07:00:00","9.3116","3.24286","26.824","5.02","7.61","0.223","4.636","0.03","1.49","29.8267","4.7256","53.01","0","SATNPRO1509","29.594","0.4145","5"],
    [50496,"HCEP03730542","2025-03-07 07:15:00","9.3108","3.24293","26.869","5.03","7.61","0.221","5.037","0.06","1.84","29.8282","4.72582","53.11","0","SATNPRO1509","29.68","0.4157","5"],
    [50497,"HCEP03730542","2025-03-07 07:30:00","9.3101","3.24296","26.881","5.034","7.61","0.259","4.858","0.04","0.44","29.8291","4.72597","53.15","0","SATNPRO1509","29.736","0.41648","5"],
    [50498,"HCEP03730542","2025-03-07 07:45:00","9.308","3.24301","26.915","5.04","7.61","0.356","4.591","0.06","0.44","29.8312","4.72631","53.21","0","SATNPRO1509","29.72","0.41626","5"],
    [50499,"HCEP03730542","2025-03-07 08:00:00","9.3061","3.24308","26.945","5.062","7.61","0.235","4.21","0.04","0.35","29.8335","4.72668","53.45","0","SATNPRO1509","29.862","0.41826","5"],
    [50500,"HCEP03730542","2025-03-07 08:15:00","9.3041","3.24321","26.985","5.083","7.61","0.337","4.447","0.03","0.26","29.8365","4.72715","53.66","0","SATNPRO1509","29.816","0.41766","5"],
    [50501,"HCEP03730542","2025-03-07 08:30:00","9.3042","3.24331","27.029","5.086","7.61","0.22","4.034","0.02","0.2","29.8374","4.72727","53.69","0","SATNPRO1509","29.802","0.41748","5"],
    [50502,"HCEP03730542","2025-03-07 08:45:00","9.3054","3.24338","27.061","5.088","7.61","0.202","4.009","0.01","0.18","29.8371","4.72722","53.72","0","SATNPRO1509","29.778","0.4171","5"],
    [50503,"HCEP03730542","2025-03-07 09:00:00","9.3063","3.24352","27.099","5.087","7.61","0.248","3.849","0.06","0.53","29.8378","4.72729","53.7","0","SATNPRO1509","29.862","0.4183","5"],
    [50504,"HCEP03730542","2025-03-07 09:15:00","9.3059","3.24357","27.118","5.092","7.61","0.384","6.026","0.09","1.52","29.8386","4.72743","53.76","0","SATNPRO1509","29.836000000000002","0.4179","5"],
    [50505,"HCEP03730542","2025-03-07 09:30:00","9.3065","3.24359","27.118","5.097","7.61","0.267","7.784","0.06","3.22","29.8383","4.72736","53.82","0","SATNPRO1509","29.88","0.4185","5"],
    [50506,"HCEP03730542","2025-03-07 09:45:00","9.3076","3.24357","27.135","5.09","7.61","0.32","4.874","0.09","0.65","29.8372","4.72719","53.74","0","SATNPRO1509","29.854","0.41816","5"],
    [50507,"HCEP03730542","2025-03-07 10:00:00","9.306","3.2435","27.115","5.086","7.61","0.197","3.696","0.01","0.35","29.8379","4.72731","53.69","0","SATNPRO1509","30.006","0.42028","5"],
    [50508,"HCEP03730542","2025-03-07 10:15:00","9.3033","3.24337","27.113","5.111","7.62","0.258","6.123","0.06","1.78","29.8387","4.72748","53.96","0","SATNPRO1509","30.067999999999998","0.42114","5"],
    [50509,"HCEP03730542","2025-03-07 10:30:00","9.302","3.24323","27.058","5.141","7.62","0.335","4.401","0.09","0.85","29.8384","4.72747","54.28","0","SATNPRO1509","30.072","0.42122","5"],
    [50510,"HCEP03730542","2025-03-07 10:45:00","9.3004","3.24312","27","5.164","7.62","0.302","3.887","0.05","0.31","29.8387","4.72753","54.51","0","SATNPRO1509","30.088","0.42144","5"],
    [50511,"HCEP03730542","2025-03-07 11:00:00","9.2966","3.2428","26.962","5.184","7.62","0.226","2.884","0.04","0.2","29.8386","4.72758","54.72","0","SATNPRO1509","30.105999999999998","0.42168","5"],
    [50512,"HCEP03730542","2025-03-07 11:15:00","9.2966","3.24285","26.925","5.226","7.62","0.221","2.956","0.03","0.18","29.8391","4.72765","55.17","0","SATNPRO1509","30.136","0.4221","5"],
    [50513,"HCEP03730542","2025-03-07 11:30:00","9.2972","3.24287","26.833","5.225","7.62","0.192","2.802","0.02","0.13","29.8388","4.7276","55.15","0","SATNPRO1509","30.194","0.4229","5"],
    [50514,"HCEP03730542","2025-03-07 11:45:00","9.2981","3.24296","26.757","5.219","7.62","0.208","3.879","0.05","0.71","29.839","4.72761","55.09","0","SATNPRO1509","29.974","0.41982","5"],
    [50515,"HCEP03730542","2025-03-07 12:00:00","9.2996","3.24304","26.662","5.196","7.62","0.19","3.54","0.01","0.33","29.8386","4.72751","54.85","0","SATNPRO1509","30.066","0.42116","5"],
    [50516,"HCEP03730542","2025-03-07 12:15:00","9.3009","3.24308","26.552","5.178","7.62","0.219","4.011","0.03","0.43","29.838","4.72739","54.67","0","SATNPRO1509","30.07","0.42118","5"],
    [50517,"HCEP03730542","2025-03-07 12:30:00","9.3048","3.24331","26.388","5.16","7.62","0.371","7.719","0.03","0.8","29.8372","4.72719","54.48","0","SATNPRO1509","30.016000000000002","0.42046","5"],
    [50518,"HCEP03730542","2025-03-07 12:45:00","9.3118","3.24333","26.234","5.118","7.61","0.377","6.051","0.04","1.32","29.8316","4.72626","54.04","0","SATNPRO1509","29.924","0.41912","5"],
    [50519,"HCEP03730542","2025-03-07 13:00:00","9.3117","3.24353","26.096","5.064","7.61","0.453","4.719","0.04","0.57","29.8338","4.72657","53.47","0","SATNPRO1509","29.708","0.4161","5"],
    [50520,"HCEP03730542","2025-03-07 13:15:00","9.3111","3.24353","25.928","5.033","7.61","0.238","6.284","0.05","1.24","29.8343","4.72665","53.14","0","SATNPRO1509","29.844","0.41802","5"],
    [50521,"HCEP03730542","2025-03-07 13:30:00","9.3135","3.24347","25.778","5.025","7.61","0.356","6.023","0.01","0.51","29.8318","4.72623","53.06","0","SATNPRO1509","29.986","0.42004","5"],
    [50522,"HCEP03730542","2025-03-07 13:45:00","9.3135","3.2435","25.592","4.997","7.61","0.408","7.273","0.01","0.46","29.8322","4.72628","52.76","0","SATNPRO1509","29.724","0.41632","5"],
    [50523,"HCEP03730542","2025-03-07 14:00:00","9.3123","3.24322","25.397","4.965","7.6","0.425","5.649","0.02","0.38","29.8305","4.72604","52.42","0","SATNPRO1509","29.701999999999998","0.41608","5"],
    [50524,"HCEP03730542","2025-03-07 14:15:00","9.3123","3.24298","25.195","4.953","7.6","0.204","5.05","0.01","0.46","29.828","4.72568","52.3","0","SATNPRO1509","29.702","0.41604","5"],
    [50525,"HCEP03730542","2025-03-07 14:30:00","9.3117","3.24272","24.928","4.939","7.6","0.216","7.799","0.01","0.79","29.826","4.72538","52.15","0","SATNPRO1509","29.54","0.41374","5"],
    [50526,"HCEP03730542","2025-03-07 14:45:00","9.3135","3.24247","24.794","4.932","7.6","0.199","4.463","0.01","0.73","29.822","4.72477","52.07","0","SATNPRO1509","29.44","0.4124","5"],
    [50527,"HCEP03730542","2025-03-07 15:00:00","9.3148","3.24226","24.604","4.921","7.6","0.211","7.417","0.01","0.73","29.8188","4.72428","51.96","0","SATNPRO1509","29.477999999999998","0.41292","5"],
    [50528,"HCEP03730542","2025-03-07 15:15:00","9.3151","3.24221","24.506","4.912","7.6","0.206","6.81","0.01","1.12","29.8181","4.72417","51.86","0","SATNPRO1509","29.316","0.41062","5"],
    [50529,"HCEP03730542","2025-03-07 15:30:00","9.3143","3.2423","24.399","4.909","7.6","0.23","4.988","0.02","0.58","29.8198","4.72442","51.83","0","SATNPRO1509","29.386","0.4116","5"],
    [50530,"HCEP03730542","2025-03-07 15:45:00","9.314","3.24247","24.312","4.919","7.6","0.295","9.438","0.03","1.48","29.8219","4.72471","51.94","0","SATNPRO1509","29.433999999999997","0.41232","5"],
    [50531,"HCEP03730542","2025-03-07 16:00:00","9.314","3.24273","24.219","4.927","7.6","0.213","4.454","0.01","0.29","29.8245","4.72508","52.03","0","SATNPRO1509","29.478","0.41284","5"],
    [50532,"HCEP03730542","2025-03-07 16:15:00","9.3143","3.2429","24.134","4.921","7.6","0.212","4.547","0.03","0.29","29.826","4.72529","51.96","0","SATNPRO1509","29.412","0.41194","5"],
    [50533,"HCEP03730542","2025-03-07 16:30:00","9.3145","3.24304","24.098","4.911","7.6","0.239","6.476","0.02","1.65","29.8273","4.72547","51.86","0","SATNPRO1509","29.358","0.41122","5"],
    [50534,"HCEP03730542","2025-03-07 16:45:00","9.3143","3.24304","24.066","4.903","7.6","0.26","7.688","0.02","0.43","29.8274","4.72548","51.78","0","SATNPRO1509","29.35","0.4111","5"],
    [50535,"HCEP03730542","2025-03-07 17:00:00","9.315","3.24309","24.025","4.899","7.6","0.235","4.945","0.03","0.7","29.8274","4.72547","51.72","0","SATNPRO1509","29.284","0.41018","5"],
    [50536,"HCEP03730542","2025-03-07 17:15:00","9.3152","3.2431","24.046","4.895","7.6","0.231","5.072","0.02","0.54","29.8273","4.72546","51.69","0","SATNPRO1509","29.284","0.41014","5"],
    [50537,"HCEP03730542","2025-03-07 17:30:00","9.3159","3.24321","24.089","4.882","7.6","0.234","5.016","0.01","0.3","29.8279","4.72553","51.55","0","SATNPRO1509","29.258","0.4098","5"],
    [50538,"HCEP03730542","2025-03-07 17:45:00","9.3161","3.2432","24.136","4.874","7.6","0.219","4.352","0.02","0.25","29.8275","4.72547","51.46","0","SATNPRO1509","29.322","0.41068","5"],
    [50539,"HCEP03730542","2025-03-07 18:00:00","9.3163","3.2432","24.189","4.867","7.6","0.222","4.271","0.02","0.26","29.8274","4.72546","51.39","0","SATNPRO1509","29.282","0.41014","5"],
    [50540,"HCEP03730542","2025-03-07 18:15:00","9.3167","3.2433","24.256","4.86","7.6","0.774","15.838","1.04","19.93","29.828","4.72553","51.32","0","SATNPRO1509","29.348","0.41104","5"],
    [50541,"HCEP03730542","2025-03-07 18:30:00","9.3169","3.24322","24.346","4.845","7.6","0.214","4.379","0.01","0.24","29.8271","4.72541","51.16","0","SATNPRO1509","29.24","0.40954","5"],
    [50542,"HCEP03730542","2025-03-07 18:45:00","9.3172","3.24319","24.428","4.849","7.6","0.197","3.597","0.01","0.1","29.8264","4.72531","51.2","0","SATNPRO1509","29.106","0.40768","5"],
    [50543,"HCEP03730542","2025-03-07 19:00:00","9.3184","3.24327","24.536","4.852","7.6","0.211","3.959","0.01","0.11","29.8262","4.72527","51.23","0","SATNPRO1509","29.35","0.41108","5"],
    [50544,"HCEP03730542","2025-03-07 19:15:00","9.3199","3.2433","24.647","4.835","7.59","0.212","4.535","0.01","0.21","29.8252","4.72511","51.05","0","SATNPRO1509","29.078","0.40728","5"],
    [50545,"HCEP03730542","2025-03-07 19:30:00","9.3228","3.24333","24.758","4.804","7.59","0.215","4.421","0.01","0.2","29.823","4.72475","50.73","0","SATNPRO1509","29.026","0.4066","5"],
    [50546,"HCEP03730542","2025-03-07 19:45:00","9.327","3.24304","24.895","4.767","7.59","0.229","5.072","0.02","0.45","29.8165","4.72375","50.34","0","SATNPRO1509","29.082","0.40734","5"],
    [50547,"HCEP03730542","2025-03-07 20:00:00","9.3297","3.24261","25.015","4.725","7.59","0.224","4.709","0.01","0.18","29.8098","4.72274","49.9","0","SATNPRO1509","28.974","0.40582","5"],
    [50548,"HCEP03730542","2025-03-07 20:15:00","9.331","3.242","25.159","4.693","7.58","0.217","4.799","0.01","0.11","29.8025","4.72168","49.57","0","SATNPRO1509","28.976","0.40584","5"],
    [50549,"HCEP03730542","2025-03-07 20:30:00","9.3317","3.24144","25.277","4.678","7.58","0.227","4.89","0.01","0.26","29.7962","4.72077","49.41","0","SATNPRO1509","28.796","0.40334","5"],
    [50550,"HCEP03730542","2025-03-07 20:45:00","9.3336","3.2409","25.45","4.653","7.58","0.225","5.356","0.01","0.23","29.7891","4.71973","49.14","0","SATNPRO1509","28.69","0.40188","5"],
    [50551,"HCEP03730542","2025-03-07 21:00:00","9.3344","3.24034","25.633","4.622","7.58","7.051","333.821","7","136.72","29.7826","4.71879","48.81","0","SATNPRO1509","28.604","0.40068","5"],
    [50552,"HCEP03730542","2025-03-07 21:15:00","9.3346","3.23986","25.817","4.604","7.58","0.236","6.934","0.04","5.29","29.7775","4.71807","48.62","0","SATNPRO1509","28.65","0.40128","5"],
    [50553,"HCEP03730542","2025-03-07 21:30:00","9.3346","3.23946","25.989","4.6","7.58","0.264","7.466","0.11","9.06","29.7733","4.71748","48.57","0","SATNPRO1509","28.524","0.39952","5"],
    [50554,"HCEP03730542","2025-03-07 21:45:00","9.3347","3.23917","26.194","4.597","7.58","0.218","4.806","0.01","0.26","29.7702","4.71706","48.55","0","SATNPRO1509","28.392","0.3977","5"],
    [50555,"HCEP03730542","2025-03-07 22:00:00","9.3339","3.23908","26.352","4.592","7.58","0.224","4.608","0.01","0.16","29.7699","4.71703","48.49","0","SATNPRO1509","28.468","0.39872","5"],
    [50556,"HCEP03730542","2025-03-07 22:15:00","9.3344","3.23911","26.488","4.593","7.58","0.218","4.757","0.01","0.15","29.7698","4.71701","48.5","0","SATNPRO1509","28.426","0.39812","5"],
    [50557,"HCEP03730542","2025-03-07 22:30:00","9.3347","3.23896","26.622","4.589","7.58","0.224","4.693","0.01","0.14","29.7679","4.71675","48.46","0","SATNPRO1509","28.378","0.3975","5"],
    [50558,"HCEP03730542","2025-03-07 22:45:00","9.3354","3.23882","26.726","4.586","7.58","0.218","4.8","0.01","0.13","29.7658","4.71644","48.43","0","SATNPRO1509","28.276","0.39604","5"],
    [50559,"HCEP03730542","2025-03-07 23:00:00","9.3366","3.23866","26.843","4.57","7.58","0.227","4.943","0.01","0.14","29.7631","4.71604","48.26","0","SATNPRO1509","28.258","0.39582","5"],
    [50560,"HCEP03730542","2025-03-07 23:15:00","9.3374","3.2381","26.988","4.555","7.58","0.218","4.644","0.01","0.11","29.7568","4.71512","48.1","0","SATNPRO1509","28.29","0.39628","5"],
    [50561,"HCEP03730542","2025-03-07 23:30:00","9.3369","3.23729","27.12","4.556","7.58","0.223","4.666","0.01","0.23","29.749","4.71402","48.11","0","SATNPRO1509","28.224","0.3953","5"],
    [50562,"HCEP03730542","2025-03-07 23:45:00","9.3351","3.23647","27.14","4.561","7.58","0.215","4.644","0.01","0.17","29.742","4.71307","48.15","0","SATNPRO1509","28.21","0.39508","5"],
    [50563,"HCEP03730542","2025-03-08 00:00:00","9.3341","3.23562","27.267","4.566","7.58","0.227","4.704","0.02","0.27","29.7341","4.71196","48.21","0","SATNPRO1509","28.126","0.39394","5"],
    [50564,"HCEP03730542","2025-03-08 00:15:00","9.3333","3.23508","27.312","4.548","7.58","0.211","4.728","0.01","0.17","29.7293","4.71129","48.02","0","SATNPRO1509","28.048","0.39284","5"],
    [50565,"HCEP03730542","2025-03-08 00:30:00","9.333","3.23491","27.369","4.542","7.58","0.426","5.237","0.36","1.27","29.7278","4.71108","47.95","0","SATNPRO1509","28.06","0.39306","5"],
    [50566,"HCEP03730542","2025-03-08 00:45:00","9.3324","3.23469","27.447","4.552","7.58","0.276","4.712","0.1","0.99","29.726","4.71084","48.05","0","SATNPRO1509","28.026","0.39254","5"],
    [50567,"HCEP03730542","2025-03-08 01:00:00","9.3313","3.23412","27.505","4.559","7.58","0.565","5.619","0.36","1.91","29.7211","4.71016","48.12","0","SATNPRO1509","28.038","0.39272","5"],
    [50568,"HCEP03730542","2025-03-08 01:15:00","9.331","3.23412","27.442","4.565","7.58","0.246","4.085","0.12","0.27","29.7214","4.7102","48.19","0","SATNPRO1509","28.05","0.39288","5"],
    [50569,"HCEP03730542","2025-03-08 01:30:00","9.3326","3.23488","27.531","4.565","7.58","0.259","5.188","0.04","1.05","29.7278","4.71109","48.19","0","SATNPRO1509","28.022","0.39248","5"],
    [50570,"HCEP03730542","2025-03-08 01:45:00","9.3337","3.23589","27.54","4.565","7.58","0.222","4.558","0.03","0.78","29.737","4.7124","48.2","0","SATNPRO1509","28.168","0.39454","5"],
    [50571,"HCEP03730542","2025-03-08 02:00:00","9.3362","3.23739","27.573","4.556","7.58","0.244","5.257","0.04","0.4","29.7503","4.71426","48.11","0","SATNPRO1509","28.102","0.39362","5"],
    [50572,"HCEP03730542","2025-03-08 02:15:00","9.3373","3.23826","27.593","4.519","7.57","0.283","5.439","0.07","0.35","29.7583","4.71538","47.72","0","SATNPRO1509","28.152","0.39426","5"],
    [50573,"HCEP03730542","2025-03-08 02:30:00","9.3377","3.23841","27.613","4.512","7.57","0.24","5.204","0.01","0.47","29.7594","4.71553","47.65","0","SATNPRO1509","28.24","0.39552","5"],
    [50574,"HCEP03730542","2025-03-08 02:45:00","9.3371","3.23886","27.651","4.51","7.57","0.23","5.241","0.02","0.38","29.7644","4.71626","47.63","0","SATNPRO1509","28.222","0.39528","5"],
    [50575,"HCEP03730542","2025-03-08 03:00:00","9.3342","3.2387","27.512","4.505","7.57","0.258","6.347","0.02","0.52","29.7654","4.71645","47.57","0","SATNPRO1509","28.32","0.39668","5"],
    [50576,"HCEP03730542","2025-03-08 03:15:00","9.3277","3.23728","27.411","4.529","7.58","0.238","5.674","0.02","0.34","29.7563","4.71525","47.81","0","SATNPRO1509","28.276","0.39602","5"],
    [50577,"HCEP03730542","2025-03-08 03:30:00","9.3229","3.23593","27.337","4.58","7.58","0.235","5.184","0.02","0.32","29.7466","4.71396","48.34","0","SATNPRO1509","28.294","0.39626","5"],
    [50578,"HCEP03730542","2025-03-08 03:45:00","9.3217","3.23512","27.22","4.629","7.58","0.241","5.036","0.04","0.46","29.7394","4.71294","48.85","0","SATNPRO1509","28.148","0.39424","5"],
    [50579,"HCEP03730542","2025-03-08 04:00:00","9.3137","3.23199","27.17","4.686","7.59","0.254","5.036","0.04","0.54","29.7142","4.70947","49.44","0","SATNPRO1509","28.112000000000002","0.39376","5"],
    [50580,"HCEP03730542","2025-03-08 04:15:00","9.312","3.23144","27.132","4.751","7.59","0.216","4.832","0.03","0.16","29.7101","4.70892","50.13","0","SATNPRO1509","28.172","0.39458","5"],
    [50581,"HCEP03730542","2025-03-08 04:30:00","9.3109","3.23077","26.987","4.773","7.6","0.217","4.513","0.02","0.13","29.7042","4.70808","50.35","0","SATNPRO1509","28.062","0.39306","5"],
    [50582,"HCEP03730542","2025-03-08 04:45:00","9.3105","3.23074","26.98","4.798","7.6","0.205","4.805","0.01","0.16","29.7043","4.7081","50.62","0","SATNPRO1509","28.194","0.39488","5"],
    [50583,"HCEP03730542","2025-03-08 05:00:00","9.3101","3.23076","26.949","4.822","7.6","0.211","4.679","0.01","0.16","29.7047","4.70817","50.87","0","SATNPRO1509","28.206","0.3951","5"],
    [50584,"HCEP03730542","2025-03-08 05:15:00","9.3112","3.23162","26.924","4.815","7.6","0.21","4.492","0.03","0.13","29.7126","4.70927","50.8","0","SATNPRO1509","28.214","0.39516","5"],
    [50585,"HCEP03730542","2025-03-08 05:30:00","9.3128","3.23241","26.899","4.795","7.6","0.209","4.432","0.01","0.16","29.7193","4.7102","50.59","0","SATNPRO1509","28.28","0.39614","5"],
    [50586,"HCEP03730542","2025-03-08 05:45:00","9.3148","3.2334","26.896","4.773","7.59","0.207","4.689","0.01","0.19","29.7277","4.71138","50.37","0","SATNPRO1509","28.308","0.39648","5"],
    [50587,"HCEP03730542","2025-03-08 06:00:00","9.3165","3.23436","26.806","4.749","7.59","0.21","4.443","0.01","0.17","29.7362","4.71255","50.12","0","SATNPRO1509","28.386","0.3976","5"],
    [50588,"HCEP03730542","2025-03-08 06:15:00","9.3187","3.23555","26.798","4.72","7.59","0.218","4.822","0.02","0.19","29.7464","4.71396","49.82","0","SATNPRO1509","28.272000000000002","0.396","5"],
    [50589,"HCEP03730542","2025-03-08 06:30:00","9.3208","3.23642","26.753","4.684","7.59","0.26","10.245","0.11","17.63","29.7535","4.71495","49.44","0","SATNPRO1509","28.346","0.39704","5"],
    [50590,"HCEP03730542","2025-03-08 06:45:00","9.3232","3.23726","26.793","4.662","7.58","0.257","5.128","0.06","0.76","29.76","4.71584","49.21","0","SATNPRO1509","28.352","0.39716","5"],
    [50591,"HCEP03730542","2025-03-08 07:00:00","9.3238","3.2376","26.773","4.642","7.58","0.23","4.392","0.03","0.48","29.763","4.71626","49","0","SATNPRO1509","28.5","0.3992","5"],
    [50592,"HCEP03730542","2025-03-08 07:15:00","9.3261","3.2378","26.753","4.633","7.58","0.216","3.904","0.02","0.18","29.7632","4.71623","48.91","0","SATNPRO1509","28.598","0.40056","5"],
    [50593,"HCEP03730542","2025-03-08 07:30:00","9.3297","3.23822","26.786","4.627","7.58","1.083","39.716","1.28","36.03","29.7644","4.71635","48.85","0","SATNPRO1509","28.402","0.39782","5"],
    [50594,"HCEP03730542","2025-03-08 07:45:00","9.3288","3.23845","26.761","4.606","7.58","0.635","22.891","0.24","13.16","29.7676","4.71682","48.64","0","SATNPRO1509","28.474","0.39882","5"],
    [50595,"HCEP03730542","2025-03-08 08:00:00","9.3293","3.23854","26.769","4.593","7.58","1.258","37.314","0.6","14.19","29.768","4.71687","48.5","0","SATNPRO1509","28.454","0.3985","5"],
    [50596,"HCEP03730542","2025-03-08 08:15:00","9.328","3.23847","26.833","4.592","7.58","0.272","5.378","0.05","0.91","29.7683","4.71694","48.48","0","SATNPRO1509","28.476","0.39886","5"],
    [50597,"HCEP03730542","2025-03-08 08:30:00","9.3279","3.23835","26.783","4.593","7.58","0.331","8.585","0.05","1.35","29.7673","4.71679","48.49","0","SATNPRO1509","28.454","0.39858","5"],
    [50598,"HCEP03730542","2025-03-08 08:45:00","9.3263","3.23822","26.858","4.598","7.58","0.334","4.925","0.08","1.01","29.7673","4.71683","48.54","0","SATNPRO1509","28.482","0.39892","5"],
    [50599,"HCEP03730542","2025-03-08 09:00:00","9.327","3.23801","26.778","4.611","7.58","0.325","4.37","0.07","0.9","29.7646","4.71642","48.68","0","SATNPRO1509","28.428","0.39816","5"],
    [50600,"HCEP03730542","2025-03-08 09:15:00","9.3263","3.23798","26.815","4.602","7.58","0.22","4.907","0.01","0.15","29.7649","4.71648","48.59","0","SATNPRO1509","28.376","0.3975","5"],
    [50601,"HCEP03730542","2025-03-08 09:30:00","9.3267","3.23803","26.887","4.589","7.58","0.334","4.983","0.07","0.99","29.765","4.7165","48.45","0","SATNPRO1509","28.47","0.39876","5"],
    [50602,"HCEP03730542","2025-03-08 09:45:00","9.3264","3.23796","26.851","4.598","7.58","0.212","4.338","0.01","0.11","29.7646","4.71643","48.54","0","SATNPRO1509","28.462","0.39864","5"],
    [50603,"HCEP03730542","2025-03-08 10:00:00","9.3248","3.23734","26.895","4.6","7.58","0.211","3.896","0.01","0.15","29.7596","4.71576","48.57","0","SATNPRO1509","28.488","0.399","5"],
    [50604,"HCEP03730542","2025-03-08 10:15:00","9.3232","3.23666","27.012","4.642","7.58","0.204","3.616","0.01","0.1","29.754","4.71498","49","0","SATNPRO1509","28.338","0.39692","5"],
    [50605,"HCEP03730542","2025-03-08 10:30:00","9.323","3.23649","26.925","4.663","7.58","0.295","5.22","0.06","1.18","29.7524","4.71476","49.22","0","SATNPRO1509","28.472","0.39882","5"],
    [50606,"HCEP03730542","2025-03-08 10:45:00","9.3202","3.23583","27.056","4.664","7.59","0.196","3.139","0.01","0.13","29.748","4.71418","49.22","0","SATNPRO1509","28.394","0.39772","5"],
    [50607,"HCEP03730542","2025-03-08 11:00:00","9.3191","3.23519","27.041","4.682","7.59","0.258","3.16","0.07","0.55","29.7423","4.7134","49.41","0","SATNPRO1509","28.524","0.39954","5"],
    [50608,"HCEP03730542","2025-03-08 11:15:00","9.319","3.23495","26.997","4.695","7.59","0.362","5.768","0.06","1.73","29.74","4.71306","49.55","0","SATNPRO1509","28.434","0.39826","5"],
    [50609,"HCEP03730542","2025-03-08 11:30:00","9.3205","3.23482","26.908","4.704","7.59","0.289","3.454","0.07","0.49","29.7374","4.71266","49.65","0","SATNPRO1509","28.458000000000002","0.39864","5"],
    [50610,"HCEP03730542","2025-03-08 11:45:00","9.3221","3.2363","26.936","4.675","7.58","0.295","4.79","0.1","0.51","29.7512","4.7146","49.34","0","SATNPRO1509","28.382","0.39754","5"],
    [50611,"HCEP03730542","2025-03-08 12:00:00","9.3212","3.23543","26.854","4.667","7.59","0.285","4.799","0.07","0.45","29.7431","4.71346","49.26","0","SATNPRO1509","28.306","0.39648","5"],
    [50612,"HCEP03730542","2025-03-08 12:15:00","9.32","3.2352","26.809","4.687","7.59","0.288","4.632","0.09","0.55","29.7418","4.71329","49.47","0","SATNPRO1509","28.33","0.39678","5"],
    [50613,"HCEP03730542","2025-03-08 12:30:00","9.3171","3.23427","26.651","4.691","7.59","0.227","4.242","0.03","0.32","29.7348","4.71233","49.5","0","SATNPRO1509","28.256","0.39576","5"],
    [50614,"HCEP03730542","2025-03-08 12:45:00","9.3133","3.23294","26.614","4.718","7.59","0.216","4.025","0.02","0.27","29.7245","4.71093","49.78","0","SATNPRO1509","28.32","0.39668","5"],
    [50615,"HCEP03730542","2025-03-08 13:00:00","9.3118","3.23186","26.564","4.748","7.59","0.222","3.723","0.03","0.5","29.7147","4.70954","50.1","0","SATNPRO1509","28.39","0.39762","5"],
    [50616,"HCEP03730542","2025-03-08 13:15:00","9.3116","3.23119","26.509","4.75","7.59","0.2","3.705","0.01","0.19","29.7081","4.7086","50.11","0","SATNPRO1509","28.178","0.39468","5"],
    [50617,"HCEP03730542","2025-03-08 13:30:00","9.3095","3.23044","26.361","4.751","7.59","0.21","3.743","0.01","0.23","29.7022","4.70779","50.12","0","SATNPRO1509","28.22","0.39524","5"],
    [50618,"HCEP03730542","2025-03-08 13:30:00","9.3095","3.23044","26.361","4.751","7.59","0.21","3.743","0.01","0.23","29.7022","4.70779","50.12","0","SATNPRO1509","28.22","0.39524","5"],
    [50619,"HCEP03730542","2025-03-08 13:45:00","9.3056","3.22966","26.256","4.786","7.6","0.225","4.574","0.01","0.57","29.6976","4.7072","50.48","0","SATNPRO1509","28.164","0.39448","5"],
    [50620,"HCEP03730542","2025-03-08 14:00:00","9.3003","3.22851","26.057","4.827","7.6","0.277","5.564","0.06","1.35","29.6903","4.70624","50.91","0","SATNPRO1509","28.156","0.3944","5"],
    [50621,"HCEP03730542","2025-03-08 14:15:00","9.3009","3.22808","26.012","4.854","7.6","0.37","5.432","0.1","0.64","29.6855","4.70553","51.19","0","SATNPRO1509","28.088","0.39338","5"],
    [50622,"HCEP03730542","2025-03-08 14:30:00","9.3097","3.22968","25.821","4.805","7.59","0.391","6.935","0.03","1.59","29.6945","4.70665","50.69","0","SATNPRO1509","27.904","0.39084","5"],
    [50623,"HCEP03730542","2025-03-08 14:45:00","9.3171","3.23122","25.67","4.68","7.59","0.456","5.131","0.04","0.28","29.7042","4.70789","49.38","0","SATNPRO1509","27.896","0.39072","5"],
    [50624,"HCEP03730542","2025-03-08 15:00:00","9.3182","3.23123","25.438","4.632","7.59","0.264","4.129","0.12","0.39","29.7035","4.70776","48.88","0","SATNPRO1509","28.018","0.3924","5"],
    [50625,"HCEP03730542","2025-03-08 15:15:00","9.3173","3.23129","25.307","4.629","7.59","0.209","4.27","0.01","0.17","29.7049","4.70796","48.84","0","SATNPRO1509","27.9","0.39078","5"],
    [50626,"HCEP03730542","2025-03-08 15:30:00","9.318","3.23123","25.225","4.631","7.58","0.235","5.128","0.02","0.27","29.7037","4.70779","48.87","0","SATNPRO1509","27.808","0.38952","5"],
    [50627,"HCEP03730542","2025-03-08 15:45:00","9.318","3.2305","25.028","4.585","7.58","0.229","5.015","0.02","0.21","29.6963","4.70671","48.38","0","SATNPRO1509","27.624","0.38694","5"],
    [50628,"HCEP03730542","2025-03-08 16:00:00","9.3154","3.22929","24.887","4.577","7.58","0.237","5.544","0.01","0.3","29.6863","4.70531","48.28","0","SATNPRO1509","27.552","0.3859","5"],
    [50629,"HCEP03730542","2025-03-08 16:15:00","9.3122","3.22834","24.797","4.603","7.58","0.246","7.476","0.02","2.33","29.6792","4.70435","48.55","0","SATNPRO1509","27.518","0.38542","5"],
    [50630,"HCEP03730542","2025-03-08 16:30:00","9.3125","3.22839","24.713","4.617","7.58","0.259","9.88","0.03","2.96","29.6795","4.70439","48.71","0","SATNPRO1509","27.586","0.3864","5"],
    [50631,"HCEP03730542","2025-03-08 16:45:00","9.312","3.22788","24.64","4.623","7.58","0.232","6.304","0.01","0.67","29.6748","4.70371","48.77","0","SATNPRO1509","27.483999999999998","0.38494","5"],
    [50632,"HCEP03730542","2025-03-08 17:00:00","9.3109","3.2271","24.452","4.612","7.58","0.257","7.039","0.02","1.5","29.6678","4.70272","48.65","0","SATNPRO1509","27.413999999999998","0.38396","5"],
    [50633,"HCEP03730542","2025-03-08 17:15:00","9.3109","3.22644","24.502","4.601","7.58","0.246","7.399","0.02","1.6","29.6611","4.70177","48.53","0","SATNPRO1509","27.364","0.38328","5"],
    [50634,"HCEP03730542","2025-03-08 17:30:00","9.3116","3.22612","24.409","4.57","7.58","0.266","7.032","0.02","1.15","29.6573","4.7012","48.2","0","SATNPRO1509","27.218","0.38122","5"],
    [50635,"HCEP03730542","2025-03-08 17:45:00","9.3115","3.22566","24.343","4.541","7.58","0.256","5.82","0.03","0.53","29.6528","4.70056","47.89","0","SATNPRO1509","27.192","0.38086","5"],
    [50636,"HCEP03730542","2025-03-08 18:00:00","9.3124","3.22588","24.221","4.518","7.58","0.238","5.256","0.01","0.18","29.6543","4.70075","47.65","0","SATNPRO1509","27.114","0.37978","5"],
    [50637,"HCEP03730542","2025-03-08 18:15:00","9.3123","3.22557","24.262","4.497","7.58","0.229","5.265","0.01","0.73","29.6512","4.70031","47.43","0","SATNPRO1509","27.118","0.37984","5"],
    [50638,"HCEP03730542","2025-03-08 18:30:00","9.3104","3.22461","24.245","4.499","7.58","0.238","5.218","0.02","0.65","29.6431","4.69918","47.45","0","SATNPRO1509","27.064","0.3791","5"],
    [50639,"HCEP03730542","2025-03-08 18:45:00","9.3075","3.22369","24.261","4.512","7.58","0.229","4.962","0.01","0.16","29.6361","4.69823","47.58","0","SATNPRO1509","26.944","0.37738","5"],
    [50640,"HCEP03730542","2025-03-08 19:00:00","9.3045","3.22253","24.281","4.526","7.58","0.237","5.053","0.01","0.19","29.6267","4.69694","47.72","0","SATNPRO1509","26.948","0.37742","5"],
    [50641,"HCEP03730542","2025-03-08 19:15:00","9.3008","3.22126","24.33","4.543","7.58","0.251","5.141","0.05","0.37","29.6169","4.69561","47.89","0","SATNPRO1509","26.896","0.37674","5"],
    [50642,"HCEP03730542","2025-03-08 19:30:00","9.2969","3.21995","24.385","4.556","7.58","0.238","4.95","0.01","0.19","29.6067","4.69423","48.02","0","SATNPRO1509","26.782","0.3751","5"],
    [50643,"HCEP03730542","2025-03-08 19:45:00","9.292","3.21853","24.386","4.58","7.58","0.239","4.863","0.03","0.22","29.5963","4.69283","48.26","0","SATNPRO1509","26.774","0.37504","5"],
    [50644,"HCEP03730542","2025-03-08 20:00:00","9.2881","3.21726","24.473","4.609","7.59","0.238","4.762","0.02","0.16","29.5866","4.69151","48.56","0","SATNPRO1509","26.756","0.3748","5"],
    [50645,"HCEP03730542","2025-03-08 20:15:00","9.2848","3.21619","24.622","4.641","7.59","0.233","5.101","0.01","0.19","29.5784","4.69041","48.9","0","SATNPRO1509","26.618","0.37282","5"],
    [50646,"HCEP03730542","2025-03-08 20:30:00","9.2644","3.20881","24.743","4.687","7.6","0.237","4.763","0.01","0.17","29.5201","4.68243","49.34","0","SATNPRO1509","26.416","0.36998","5"],
    [50647,"HCEP03730542","2025-03-08 20:45:00","9.243","3.20016","24.851","4.806","7.61","0.23","4.243","0.02","0.26","29.4497","4.67273","50.54","0","SATNPRO1509","25.886","0.36258","5"],
    [50648,"HCEP03730542","2025-03-08 21:00:00","9.2146","3.19018","24.953","5.026","7.62","0.231","3.875","0.01","0.14","29.3713","4.66202","52.8","0","SATNPRO1509","25.688","0.35978","5"],
    [50649,"HCEP03730542","2025-03-08 21:15:00","9.1921","3.17992","25.073","5.154","7.64","0.234","4.051","0.02","0.33","29.2852","4.65007","54.09","0","SATNPRO1509","25.076","0.35126","5"],
    [50650,"HCEP03730542","2025-03-08 21:30:00","9.1893","3.17782","25.275","5.229","7.64","0.245","4.65","0.01","0.2","29.266","4.64739","54.86","0","SATNPRO1509","24.882","0.34852","5"],
    [50651,"HCEP03730542","2025-03-08 21:45:00","9.1902","3.17889","25.328","5.189","7.64","0.406","5.681","0.16","1.32","29.2762","4.64884","54.45","0","SATNPRO1509","24.759999999999998","0.3468","5"],
    [50652,"HCEP03730542","2025-03-08 22:00:00","9.2057","3.18404","25.531","5.088","7.63","0.319","5.263","0.06","0.84","29.3159","4.65426","53.42","0","SATNPRO1509","24.824","0.34776","5"],
    [50653,"HCEP03730542","2025-03-08 22:15:00","9.1991","3.1814","25.659","5.063","7.63","0.314","5.356","0.07","1.11","29.2944","4.6513","53.14","0","SATNPRO1509","24.882","0.3485","5"],
    [50654,"HCEP03730542","2025-03-08 22:30:00","9.203","3.18241","25.956","5.055","7.63","0.256","5.293","0.02","1.22","29.3013","4.65225","53.06","0","SATNPRO1509","24.806","0.34744","5"],
    [50655,"HCEP03730542","2025-03-08 22:45:00","9.1853","3.17472","26.13","5.114","7.64","0.251","4.66","0.04","0.31","29.2374","4.6434","53.63","0","SATNPRO1509","24.708","0.34608","5"],
    [50656,"HCEP03730542","2025-03-08 23:00:00","9.1575","3.16592","26.166","5.239","7.65","0.244","3.928","0.01","0.19","29.1704","4.63429","54.89","0","SATNPRO1509","24.014","0.33634","5"],
    [50657,"HCEP03730542","2025-03-08 23:15:00","9.1369","3.15233","26.328","5.363","7.66","0.245","3.959","0.01","0.35","29.0487","4.61719","56.12","0","SATNPRO1509","23.524","0.32952","5"],
    [50658,"HCEP03730542","2025-03-08 23:30:00","9.1356","3.15099","26.502","5.463","7.67","0.262","4.225","0.01","0.25","29.0361","4.61541","57.16","0","SATNPRO1509","23.456","0.32854","5"],
    [50659,"HCEP03730542","2025-03-08 23:45:00","9.1221","3.14144","26.708","5.475","7.67","0.265","4.153","0.01","0.21","28.9496","4.60323","57.24","0","SATNPRO1509","22.672","0.31752","5"],
    [50660,"HCEP03730542","2025-03-09 00:00:00","9.015","3.07746","26.857","5.686","7.71","0.342","3.782","0.05","0.63","28.3838","4.52369","59.08","0","SATNPRO1509","21.9","0.30678","5"],
    [50661,"HCEP03730542","2025-03-09 00:15:00","9.0815","3.12091","26.922","6.002","7.7","0.31","4.998","0.06","0.36","28.7732","4.57861","62.62","0","SATNPRO1509","23.144000000000002","0.32418","5"],
    [50662,"HCEP03730542","2025-03-09 00:30:00","9.0632","3.10223","27.04","5.854","7.7","0.351","4.25","0.04","0.41","28.5975","4.55364","60.98","0","SATNPRO1509","22.644000000000002","0.31716","5"],
    [50663,"HCEP03730542","2025-03-09 00:45:00","9.1183","3.13087","27.166","5.849","7.69","0.343","6.04","0.08","1.39","28.8448","4.58825","61.1","0","SATNPRO1509","23.666","0.3315","5"],
    [50664,"HCEP03730542","2025-03-09 01:00:00","9.0405","3.08793","27.338","5.762","7.71","0.277","4.033","0.01","0.34","28.4698","4.53567","59.95","0","SATNPRO1509","23.086000000000002","0.32336","5"],
    [50665,"HCEP03730542","2025-03-09 01:15:00","8.9803","3.05639","27.368","6.091","7.74","0.268","2.725","0.01","0.16","28.1963","4.4973","63.17","0","SATNPRO1509","22.46","0.3146","5"],
    [50666,"HCEP03730542","2025-03-09 01:30:00","8.9641","3.04042","27.418","6.531","7.76","0.312","2.021","0.05","0.31","28.0464","4.47593","67.64","0","SATNPRO1509","22.246","0.31162","5"],
    [50667,"HCEP03730542","2025-03-09 01:45:00","9.1208","3.13349","27.511","6.205","7.7","0.298","6.751","0.04","0.26","28.8694","4.59177","64.84","0","SATNPRO1509","24.434","0.34224","5"],
    [50668,"HCEP03730542","2025-03-09 02:00:00","9.1659","3.15993","27.538","5.591","7.67","0.287","7.864","0.01","0.19","29.102","4.62439","58.57","0","SATNPRO1509","25.094","0.3515","5"],
    [50669,"HCEP03730542","2025-03-09 02:15:00","9.1775","3.16705","27.552","5.351","7.65","0.271","7.991","0.01","0.31","29.1651","4.63324","56.09","0","SATNPRO1509","25.348","0.35502","5"],
    [50670,"HCEP03730542","2025-03-09 02:30:00","9.1988","3.17745","27.594","5.23","7.64","0.279","7.311","0.03","0.36","29.2535","4.64556","54.87","0","SATNPRO1509","24.864","0.34824","5"],
    [50671,"HCEP03730542","2025-03-09 02:45:00","9.2037","3.18132","27.584","5.078","7.63","0.257","7.386","0.01","0.29","29.2889","4.65055","53.31","0","SATNPRO1509","24.714","0.34616","5"],
    [50672,"HCEP03730542","2025-03-09 03:00:00","9.2007","3.18037","27.545","5.037","7.63","0.259","6.642","0.01","0.3","29.2818","4.64958","52.87","0","SATNPRO1509","24.602","0.34458","5"],
    [50673,"HCEP03730542","2025-03-09 03:15:00","9.1998","3.17981","27.545","5.031","7.63","0.254","5.858","0.03","0.26","29.2768","4.64887","52.8","0","SATNPRO1509","24.538","0.3437","5"],
    [50674,"HCEP03730542","2025-03-09 03:30:00","9.2012","3.18006","27.611","5.005","7.63","0.255","5.99","0.01","0.26","29.2781","4.64904","52.52","0","SATNPRO1509","24.534","0.34364","5"],
    [50675,"HCEP03730542","2025-03-09 03:45:00","9.2035","3.18096","27.55","4.987","7.63","0.241","5.828","0.01","0.21","29.2855","4.65005","52.35","0","SATNPRO1509","24.71","0.34612","5"],
    [50676,"HCEP03730542","2025-03-09 04:00:00","9.2094","3.18332","27.477","4.962","7.62","0.288","5.979","0.03","0.27","29.3046","4.65269","52.1","0","SATNPRO1509","24.712","0.3461","5"],
    [50677,"HCEP03730542","2025-03-09 04:15:00","9.2099","3.18535","27.493","4.955","7.62","0.234","4.903","0.01","0.76","29.325","4.6556","52.03","0","SATNPRO1509","25.12","0.35184","5"],
    [50678,"HCEP03730542","2025-03-09 04:30:00","9.2093","3.18658","27.337","5.007","7.63","0.246","4.513","0.02","0.21","29.338","4.65748","52.58","0","SATNPRO1509","25.29","0.35424","5"],
    [50679,"HCEP03730542","2025-03-09 04:45:00","9.2075","3.18634","27.395","5.04","7.63","0.25","4.636","0.05","0.29","29.3371","4.65738","52.92","0","SATNPRO1509","25.298","0.35436","5"],
    [50680,"HCEP03730542","2025-03-09 05:00:00","9.2059","3.18591","27.247","5.058","7.63","0.266","4.621","0.05","0.21","29.3341","4.65696","53.11","0","SATNPRO1509","25.344","0.35502","5"],
    [50681,"HCEP03730542","2025-03-09 05:15:00","9.2065","3.18629","27.212","5.065","7.63","0.315","5.23","0.08","0.69","29.3374","4.65742","53.19","0","SATNPRO1509","25.276","0.35402","5"],
    [50682,"HCEP03730542","2025-03-09 05:30:00","9.2073","3.18634","27.112","5.057","7.63","0.267","4.973","0.06","0.59","29.3374","4.65741","53.1","0","SATNPRO1509","25.266","0.3539","5"],
    [50683,"HCEP03730542","2025-03-09 05:45:00","9.21","3.18733","27.025","5.039","7.63","0.248","5.952","0.02","1.82","29.3452","4.65848","52.92","0","SATNPRO1509","25.236","0.35344","5"],
    [50684,"HCEP03730542","2025-03-09 06:00:00","9.2166","3.19334","26.939","5.033","7.63","0.239","4.368","0.02","0.24","29.401","4.66636","52.88","0","SATNPRO1509","25.856","0.36216","5"],
    [50685,"HCEP03730542","2025-03-09 06:15:00","9.2199","3.19409","26.876","5.049","7.63","0.219","3.354","0.01","0.12","29.406","4.66701","53.05","0","SATNPRO1509","25.842","0.36194","5"],
    [50686,"HCEP03730542","2025-03-09 06:30:00","9.2211","3.19485","26.89","5.054","7.63","0.236","4.26","0.03","1.05","29.4128","4.66796","53.11","0","SATNPRO1509","26.006","0.36424","5"],
    [50687,"HCEP03730542","2025-03-09 06:45:00","9.2223","3.19517","26.796","5.033","7.63","0.22","3.707","0.02","0.14","29.4151","4.66826","52.89","0","SATNPRO1509","25.916","0.36298","5"],
    [50688,"HCEP03730542","2025-03-09 07:00:00","9.2167","3.19306","26.698","5.054","7.63","0.214","2.835","0.01","0.1","29.3982","4.66594","53.1","0","SATNPRO1509","25.888","0.36262","5"],
    [50689,"HCEP03730542","2025-03-09 07:15:00","9.2175","3.1928","26.709","5.054","7.63","0.212","2.958","0.01","0.11","29.3949","4.66545","53.11","0","SATNPRO1509","25.868","0.36226","5"],
    [50690,"HCEP03730542","2025-03-09 07:30:00","9.2209","3.19442","26.671","5.051","7.63","0.226","3.503","0.01","0.15","29.4087","4.66736","53.08","0","SATNPRO1509","25.956","0.36356","5"],
    [50691,"HCEP03730542","2025-03-09 07:45:00","9.2231","3.1955","26.648","5.036","7.63","0.211","3.177","0","0.06","29.4178","4.66863","52.93","0","SATNPRO1509","26.026","0.36456","5"],
    [50692,"HCEP03730542","2025-03-09 08:00:00","9.2242","3.19564","26.708","5.015","7.62","0.23","3.763","0.03","0.78","29.4183","4.66869","52.7","0","SATNPRO1509","26.016000000000002","0.36442","5"],
    [50693,"HCEP03730542","2025-03-09 08:15:00","9.2257","3.19604","26.599","4.991","7.62","0.227","4.247","0.02","1.64","29.4212","4.66906","52.46","0","SATNPRO1509","25.916","0.36302","5"],
    [50694,"HCEP03730542","2025-03-09 08:30:00","9.2255","3.19577","26.634","4.978","7.62","0.24","3.694","0.05","0.36","29.4186","4.6687","52.32","0","SATNPRO1509","25.946","0.36344","5"],
    [50695,"HCEP03730542","2025-03-09 08:45:00","9.2257","3.19563","26.63","4.988","7.62","0.209","2.976","0.01","0.07","29.417","4.66847","52.42","0","SATNPRO1509","25.914","0.36294","5"],
    [50696,"HCEP03730542","2025-03-09 09:00:00","9.225","3.19517","26.75","4.988","7.62","0.218","2.946","0.01","0.1","29.4128","4.66788","52.42","0","SATNPRO1509","25.944","0.3634","5"],
    [50697,"HCEP03730542","2025-03-09 09:15:00","9.2242","3.19463","26.656","4.993","7.62","0.212","2.869","0.01","0.1","29.4081","4.66722","52.47","0","SATNPRO1509","25.854","0.36212","5"],
    [50698,"HCEP03730542","2025-03-09 09:30:00","9.2223","3.19397","26.647","5","7.62","0.233","3.56","0.06","2.21","29.4029","4.6665","52.54","0","SATNPRO1509","25.844","0.36194","5"],
    [50699,"HCEP03730542","2025-03-09 09:45:00","9.2223","3.19401","26.701","5.008","7.62","0.209","2.617","0.01","0.08","29.4033","4.66657","52.63","0","SATNPRO1509","25.898","0.36274","5"],
    [50700,"HCEP03730542","2025-03-09 10:00:00","9.222","3.19397","26.807","5.015","7.62","0.376","3.399","0.07","1.15","29.403","4.66653","52.7","0","SATNPRO1509","26.004","0.36422","5"],
    [50701,"HCEP03730542","2025-03-09 10:15:00","9.2223","3.19392","26.757","5.022","7.62","0.22","2.359","0.05","0.94","29.4023","4.66643","52.77","0","SATNPRO1509","25.912","0.36294","5"],
    [50702,"HCEP03730542","2025-03-09 10:30:00","9.224","3.19477","26.863","5.03","7.62","0.217","3.447","0.01","2.37","29.4096","4.66745","52.86","0","SATNPRO1509","25.992","0.36406","5"],
    [50703,"HCEP03730542","2025-03-09 10:45:00","9.2263","3.19585","26.862","5.001","7.62","0.256","4.305","0.06","1.25","29.4186","4.6687","52.56","0","SATNPRO1509","25.964","0.36364","5"],
    [50704,"HCEP03730542","2025-03-09 11:00:00","9.2285","3.1969","26.903","4.982","7.62","0.227","3.933","0.01","0.21","29.4275","4.66993","52.37","0","SATNPRO1509","25.904","0.36282","5"],
    [50705,"HCEP03730542","2025-03-09 11:15:00","9.2305","3.19791","26.956","4.96","7.62","0.221","4.112","0.01","0.17","29.4361","4.67114","52.15","0","SATNPRO1509","25.936","0.3633","5"],
    [50706,"HCEP03730542","2025-03-09 11:30:00","9.2312","3.19933","27.041","4.948","7.62","0.234","4.141","0.01","0.18","29.45","4.67312","52.02","0","SATNPRO1509","26.182000000000002","0.3667","5"],
    [50707,"HCEP03730542","2025-03-09 11:45:00","9.2275","3.19825","27.073","4.963","7.62","0.227","4.155","0.01","0.1","29.442","4.67204","52.17","0","SATNPRO1509","26.152","0.3663","5"],
    [50708,"HCEP03730542","2025-03-09 12:00:00","9.226","3.19732","27.095","4.98","7.62","0.256","4.795","0.04","0.49","29.4337","4.67089","52.34","0","SATNPRO1509","25.93","0.3632","5"],
    [50709,"HCEP03730542","2025-03-09 12:15:00","9.2234","3.19618","27.09","4.977","7.62","0.235","4.758","0.01","0.23","29.4244","4.66959","52.31","0","SATNPRO1509","25.948","0.36344","5"],
    [50710,"HCEP03730542","2025-03-09 12:30:00","9.2202","3.19423","27.092","4.971","7.62","0.313","5.083","0.06","0.41","29.407","4.66716","52.24","0","SATNPRO1509","25.72","0.36022","5"],
    [50711,"HCEP03730542","2025-03-09 12:45:00","9.2252","3.19668","27.089","4.963","7.62","0.236","5.372","0.01","0.22","29.4279","4.67007","52.17","0","SATNPRO1509","25.79","0.36126","5"],
    [50712,"HCEP03730542","2025-03-09 13:00:00","9.2304","3.19952","27.134","4.943","7.62","0.243","4.865","0.01","0.14","29.4525","4.67351","51.97","0","SATNPRO1509","25.982","0.3639","5"],
    [50713,"HCEP03730542","2025-03-09 13:15:00","9.2302","3.19938","27.104","4.935","7.62","0.238","4.876","0.01","0.19","29.4514","4.67334","51.88","0","SATNPRO1509","25.984","0.36398","5"],
    [50714,"HCEP03730542","2025-03-09 13:30:00","9.2299","3.19912","27.028","4.934","7.62","0.245","4.995","0.01","0.21","29.449","4.673","51.87","0","SATNPRO1509","25.898","0.36276","5"],
    [50715,"HCEP03730542","2025-03-09 13:45:00","9.2296","3.19904","26.973","4.93","7.62","0.231","4.623","0.01","0.1","29.4484","4.67291","51.83","0","SATNPRO1509","26.028","0.36454","5"],
    [50716,"HCEP03730542","2025-03-09 14:00:00","9.2284","3.19854","26.898","4.932","7.62","0.236","4.38","0.01","0.12","29.4443","4.67235","51.85","0","SATNPRO1509","25.88","0.3625","5"],
    [50717,"HCEP03730542","2025-03-09 14:15:00","9.2293","3.19897","26.847","4.933","7.62","0.232","4.345","0.01","0.11","29.448","4.67285","51.86","0","SATNPRO1509","26.048000000000002","0.36488","5"],
    [50718,"HCEP03730542","2025-03-09 14:30:00","9.2278","3.19817","26.783","4.934","7.62","0.24","4.153","0.01","0.15","29.4411","4.6719","51.87","0","SATNPRO1509","25.93","0.36318","5"],
    [50719,"HCEP03730542","2025-03-09 14:45:00","9.2253","3.19678","26.643","4.941","7.62","0.236","3.857","0.02","0.16","29.429","4.6702","51.94","0","SATNPRO1509","25.864","0.36226","5"],
    [50720,"HCEP03730542","2025-03-09 15:00:00","9.2237","3.19585","26.598","4.944","7.62","0.241","3.819","0.01","0.25","29.4209","4.66906","51.96","0","SATNPRO1509","25.802","0.3614","5"],
    [50721,"HCEP03730542","2025-03-09 15:15:00","9.2219","3.19493","26.443","4.949","7.62","0.352","5.846","0.09","3.41","29.4131","4.66796","52.01","0","SATNPRO1509","25.74","0.36054","5"],
    [50722,"HCEP03730542","2025-03-09 15:30:00","9.2233","3.19582","26.31","4.95","7.62","0.242","3.954","0.02","1.36","29.421","4.66906","52.02","0","SATNPRO1509","25.736","0.36048","5"],
    [50723,"HCEP03730542","2025-03-09 15:45:00","9.223","3.19563","26.183","4.951","7.62","0.239","4.078","0.03","1.5","29.4194","4.66883","52.03","0","SATNPRO1509","25.686","0.3598","5"],
    [50724,"HCEP03730542","2025-03-09 16:00:00","9.2242","3.19627","26.019","4.947","7.62","0.251","4.052","0.03","0.25","29.425","4.6696","52","0","SATNPRO1509","25.788","0.36118","5"],
    [50725,"HCEP03730542","2025-03-09 16:15:00","9.2221","3.19487","25.879","4.94","7.62","0.255","4.384","0.03","0.17","29.4125","4.66785","51.91","0","SATNPRO1509","25.596","0.35852","5"],
    [50726,"HCEP03730542","2025-03-09 16:30:00","9.2221","3.1949","25.714","4.917","7.61","0.247","4.239","0.01","0.15","29.4129","4.66789","51.67","0","SATNPRO1509","25.708000000000002","0.3601","5"],
    [50727,"HCEP03730542","2025-03-09 16:45:00","9.2144","3.18995","25.532","4.922","7.62","0.237","3.95","0.01","0.11","29.3689","4.66171","51.7","0","SATNPRO1509","25.274","0.35404","5"],
    [50728,"HCEP03730542","2025-03-09 17:00:00","9.1606","3.15089","25.374","4.988","7.63","0.256","3.667","0.02","0.13","29.0151","4.61188","52.22","0","SATNPRO1509","24.498","0.34312","5"],
    [50729,"HCEP03730542","2025-03-09 17:15:00","9.2185","3.19209","25.235","5.037","7.62","0.238","3.989","0.02","0.25","29.3875","4.66428","52.92","0","SATNPRO1509","25.406","0.35584","5"],
    [50730,"HCEP03730542","2025-03-09 17:30:00","9.2253","3.19574","25.078","4.923","7.61","0.243","4.259","0.01","0.22","29.419","4.66867","51.74","0","SATNPRO1509","25.541999999999998","0.35774","5"],
    [50731,"HCEP03730542","2025-03-09 17:45:00","9.2249","3.19523","24.925","4.886","7.61","0.236","4.249","0.01","0.12","29.4143","4.66799","51.35","0","SATNPRO1509","25.508","0.3573","5"],
    [50732,"HCEP03730542","2025-03-09 18:00:00","9.2248","3.19527","24.786","4.874","7.61","0.243","4.318","0.01","0.17","29.4149","4.66807","51.23","0","SATNPRO1509","25.63","0.35898","5"],
    [50733,"HCEP03730542","2025-03-09 18:15:00","9.2207","3.19269","24.648","4.878","7.61","0.249","4.608","0.02","2.08","29.392","4.66486","51.26","0","SATNPRO1509","25.482","0.35698","5"],
    [50734,"HCEP03730542","2025-03-09 18:30:00","9.2208","3.19243","24.504","4.888","7.61","0.236","3.726","0.01","0.51","29.3893","4.66446","51.36","0","SATNPRO1509","25.452","0.35648","5"],
    [50735,"HCEP03730542","2025-03-09 18:45:00","9.2195","3.19258","24.49","4.884","7.61","0.258","4.101","0.05","0.76","29.3919","4.66485","51.32","0","SATNPRO1509","25.298000000000002","0.35436","5"],
    [50736,"HCEP03730542","2025-03-09 19:00:00","9.2125","3.18834","24.331","4.878","7.61","0.254","4.152","0.02","0.24","29.3545","4.65961","51.24","0","SATNPRO1509","25.174","0.35262","5"],
    [50737,"HCEP03730542","2025-03-09 19:15:00","9.2119","3.18895","24.269","4.893","7.61","0.257","4.607","0.02","0.9","29.3613","4.66058","51.4","0","SATNPRO1509","25.204","0.353","5"],
    [50738,"HCEP03730542","2025-03-09 19:30:00","9.2064","3.18688","24.234","4.9","7.61","0.249","3.953","0.01","0.84","29.3447","4.6583","51.46","0","SATNPRO1509","25.246","0.35362","5"],
    [50739,"HCEP03730542","2025-03-09 19:45:00","9.1941","3.18231","24.199","4.911","7.62","0.242","3.535","0.02","0.51","29.3083","4.65331","51.54","0","SATNPRO1509","25.012","0.35036","5"],
    [50740,"HCEP03730542","2025-03-09 20:00:00","9.1864","3.17732","24.262","4.938","7.62","0.251","3.429","0.01","0.32","29.2637","4.64705","51.8","0","SATNPRO1509","24.816","0.34758","5"],
    [50741,"HCEP03730542","2025-03-09 20:15:00","9.1183","3.1239","24.282","5.065","7.64","0.251","3.055","0.01","0.46","28.775","4.57805","52.88","0","SATNPRO1509","23.844","0.33402","5"],
    [50742,"HCEP03730542","2025-03-09 20:30:00","9.1409","3.14647","24.318","5.37","7.64","0.261","3.314","0.02","0.63","28.9866","4.60807","56.19","0","SATNPRO1509","23.982","0.33588","5"],
    [50743,"HCEP03730542","2025-03-09 20:45:00","9.1559","3.15948","24.415","5.307","7.64","0.269","5.18","0.06","4.27","29.1069","4.6251","55.58","0","SATNPRO1509","23.288","0.3262","5"],
    [50744,"HCEP03730542","2025-03-09 21:00:00","9.1727","3.16637","24.511","5.157","7.63","0.248","3.361","0.01","0.82","29.1633","4.63289","54.05","0","SATNPRO1509","24.434","0.34224","5"],
    [50745,"HCEP03730542","2025-03-09 21:15:00","9.1562","3.15158","24.662","5.093","7.64","0.249","4.55","0.01","0.56","29.026","4.61348","53.32","0","SATNPRO1509","24.154","0.33832","5"],
    [50746,"HCEP03730542","2025-03-09 21:30:00","9.1636","3.15276","24.931","5.145","7.64","0.272","5.576","0.03","2.09","29.0319","4.61421","53.86","0","SATNPRO1509","24.162","0.33846","5"],
    [50747,"HCEP03730542","2025-03-09 21:45:00","9.1617","3.15734","25.094","5.285","7.64","0.289","5.485","0.09","1.16","29.0801","4.62118","55.35","0","SATNPRO1509","24.262","0.3398","5"],
    [50748,"HCEP03730542","2025-03-09 22:00:00","9.1946","3.17825","25.191","5.175","7.63","0.258","5.548","0.03","1.16","29.2662","4.64731","54.3","0","SATNPRO1509","24.654","0.34532","5"],
    [50749,"HCEP03730542","2025-03-09 22:15:00","9.1995","3.18042","25.267","4.984","7.62","0.264","6.253","0.02","0.38","29.2842","4.64981","52.31","0","SATNPRO1509","24.604","0.3446","5"],
    [50750,"HCEP03730542","2025-03-09 22:30:00","9.1995","3.18051","25.432","4.917","7.62","0.259","6.016","0.01","0.39","29.285","4.64994","51.6","0","SATNPRO1509","24.79","0.34718","5"],
    [50751,"HCEP03730542","2025-03-09 22:45:00","9.2002","3.18072","25.665","4.915","7.61","0.25","5.878","0.01","0.24","29.2865","4.65016","51.58","0","SATNPRO1509","24.49","0.34302","5"],
    [50752,"HCEP03730542","2025-03-09 23:00:00","9.1998","3.18005","25.82","4.907","7.61","0.268","6.924","0.01","0.42","29.2799","4.64921","51.5","0","SATNPRO1509","24.512","0.34334","5"],
    [50753,"HCEP03730542","2025-03-09 23:15:00","9.1992","3.17996","26.054","4.896","7.61","0.263","7.054","0.01","0.32","29.2794","4.64917","51.38","0","SATNPRO1509","24.622","0.34488","5"],
    [50754,"HCEP03730542","2025-03-09 23:30:00","9.1988","3.17907","26.25","4.885","7.61","0.267","6.794","0.01","0.5","29.2706","4.64793","51.27","0","SATNPRO1509","24.524","0.34352","5"],
    [50755,"HCEP03730542","2025-03-09 23:45:00","9.1938","3.17711","26.449","4.896","7.61","0.263","7.226","0.01","0.82","29.2546","4.64574","51.37","0","SATNPRO1509","24.631999999999998","0.34502","5"],
    [50756,"HCEP03730542","2025-03-10 00:00:00","9.1869","3.17509","26.654","4.954","7.62","0.268","7.051","0.01","0.55","29.2397","4.64373","51.96","0","SATNPRO1509","24.746000000000002","0.34662","5"],
    [50757,"HCEP03730542","2025-03-10 00:15:00","9.1779","3.17057","26.796","5.049","7.63","0.251","6.23","0.01","0.25","29.2008","4.63832","52.93","0","SATNPRO1509","25.018","0.3504","5"],
    [50758,"HCEP03730542","2025-03-10 00:30:00","9.1593","3.16328","27.006","5.234","7.65","0.249","5.249","0.01","0.29","29.1417","4.63018","54.84","0","SATNPRO1509","25.477999999999998","0.35684","5"],
    [50759,"HCEP03730542","2025-03-10 00:45:00","9.1404","3.15515","27.1","5.559","7.67","0.236","3.963","0.01","0.28","29.0742","4.62084","58.19","0","SATNPRO1509","25.514","0.35738","5"],
    [50760,"HCEP03730542","2025-03-10 01:00:00","9.1265","3.14703","27.186","5.754","7.68","0.234","3.013","0.01","0.16","29.0028","4.61083","60.18","0","SATNPRO1509","25.392","0.35568","5"],
    [50761,"HCEP03730542","2025-03-10 01:15:00","9.110900000000001","3.1376","27.277","5.937","7.69","0.227","3.076","0.01","0.13","28.9193","4.59912","62.04","0","SATNPRO1509","25.024","0.35052","5"],
    [50762,"HCEP03730542","2025-03-10 01:30:00","9.0974","3.12974","27.415","6.042","7.7","0.235","2.888","0.01","0.22","28.8501","4.58942","63.09","0","SATNPRO1509","24.715999999999998","0.34622","5"],
    [50763,"HCEP03730542","2025-03-10 01:45:00","9.0966","3.12867","27.451","6.074","7.7","3.471","34.667","4.64","31.66","28.8398","4.58795","63.42","0","SATNPRO1509","24.554","0.34392","5"],
    [50764,"HCEP03730542","2025-03-10 02:00:00","9.0965","3.12892","27.515","6.035","7.7","0.283","3.684","0.06","1.15","28.8425","4.58834","63.01","0","SATNPRO1509","24.506","0.3432","5"],
    [50765,"HCEP03730542","2025-03-10 02:15:00","9.0918","3.12578","27.605","6.036","7.7","0.237","3.328","0.01","0.21","28.8142","4.58435","63.01","0","SATNPRO1509","24.294","0.34026","5"],
    [50766,"HCEP03730542","2025-03-10 02:30:00","9.0976","3.12854","27.623","6.115","7.71","0.243","3.542","0.01","0.18","28.8376","4.58762","63.85","0","SATNPRO1509","24.82","0.34766","5"],
    [50767,"HCEP03730542","2025-03-10 02:45:00","9.097","3.12715","27.644","6.201","7.71","0.279","3.774","0.08","0.39","28.8239","4.58566","64.74","0","SATNPRO1509","24.952","0.34952","5"],
    [50768,"HCEP03730542","2025-03-10 03:00:00","9.1004","3.12903","27.673","6.234","7.71","0.263","4.186","0.03","0.84","28.8403","4.58796","65.1","0","SATNPRO1509","25.154","0.35236","5"],
    [50769,"HCEP03730542","2025-03-10 03:15:00","9.0984","3.12902","27.669","6.329","7.72","0.24","3.202","0.01","0.37","28.8419","4.58822","66.09","0","SATNPRO1509","25.404","0.3558","5"],
    [50770,"HCEP03730542","2025-03-10 03:30:00","9.1015","3.13136","27.669","6.404","7.72","0.259","3.664","0.02","0.76","28.8632","4.59124","66.89","0","SATNPRO1509","25.662","0.35942","5"],
    [50771,"HCEP03730542","2025-03-10 03:45:00","9.1028","3.13139","27.65","6.362","7.72","0.242","3.757","0.01","0.26","28.8624","4.5911","66.45","0","SATNPRO1509","25.456","0.35658","5"],
    [50772,"HCEP03730542","2025-03-10 04:00:00","9.101","3.12979","27.607","6.319","7.72","0.258","4.308","0.01","0.39","28.8477","4.58901","65.99","0","SATNPRO1509","25.24","0.35352","5"],
    [50773,"HCEP03730542","2025-03-10 04:15:00","9.1065","3.13447","27.582","6.342","7.72","0.245","3.785","0.01","0.24","28.8909","4.59512","66.25","0","SATNPRO1509","25.68","0.35972","5"],
    [50774,"HCEP03730542","2025-03-10 04:30:00","9.111","3.13782","27.549","6.343","7.72","0.3","5.415","0.04","0.85","28.9213","4.59942","66.28","0","SATNPRO1509","25.888","0.36264","5"],
    [50775,"HCEP03730542","2025-03-10 04:45:00","9.1123","3.13921","27.496","6.335","7.72","0.255","4.556","0.02","0.72","28.9345","4.60128","66.21","0","SATNPRO1509","25.892","0.36264","5"],
    [50776,"HCEP03730542","2025-03-10 05:00:00","9.1138","3.14063","27.451","6.345","7.72","0.311","4.491","0.04","0.82","28.9477","4.60316","66.32","0","SATNPRO1509","25.98","0.36388","5"],
    [50777,"HCEP03730542","2025-03-10 05:15:00","9.1148","3.14132","27.383","6.354","7.72","0.269","4.058","0.03","0.42","28.954","4.60404","66.42","0","SATNPRO1509","26.114","0.36576","5"],
    [50778,"HCEP03730542","2025-03-10 05:30:00","9.1156","3.14167","27.319","6.357","7.72","0.293","4.778","0.02","0.54","28.957","4.60445","66.45","0","SATNPRO1509","26.152","0.3663","5"],
    [50779,"HCEP03730542","2025-03-10 05:45:00","9.1165","3.14225","27.254","6.353","7.72","0.249","4.448","0.01","0.38","28.9621","4.60517","66.41","0","SATNPRO1509","26.144000000000002","0.36616","5"],
    [50780,"HCEP03730542","2025-03-10 06:00:00","9.1166","3.14238","27.193","6.351","7.72","0.301","6.676","0.09","7.09","28.9635","4.60536","66.4","0","SATNPRO1509","26.21","0.36712","5"],
    [50781,"HCEP03730542","2025-03-10 06:15:00","9.1171","3.14288","27.097","6.36","7.72","0.269","4.471","0.02","0.49","28.9681","4.60601","66.49","0","SATNPRO1509","26.142","0.36616","5"],
    [50782,"HCEP03730542","2025-03-10 06:30:00","9.1179","3.14352","27.007","6.368","7.72","0.261","4.258","0.02","0.42","28.974","4.60684","66.58","0","SATNPRO1509","26.222","0.36728","5"],
    [50783,"HCEP03730542","2025-03-10 06:45:00","9.117","3.14385","26.916","6.381","7.72","0.242","3.041","0.01","0.33","28.9782","4.60746","66.72","0","SATNPRO1509","26.31","0.36854","5"],
    [50784,"HCEP03730542","2025-03-10 07:00:00","9.1187","3.1452","26.82","6.386","7.72","0.252","3.63","0.01","0.3","28.9906","4.60919","66.77","0","SATNPRO1509","26.374000000000002","0.3694","5"],
    [50785,"HCEP03730542","2025-03-10 07:15:00","9.1216","3.1469","26.732","6.359","7.72","0.277","3.648","0.06","0.43","29.0057","4.61131","66.51","0","SATNPRO1509","26.382","0.36954","5"],
    [50786,"HCEP03730542","2025-03-10 07:30:00","9.1233","3.1479","26.645","6.324","7.71","0.345","6.363","0.04","1.25","29.0145","4.61254","66.14","0","SATNPRO1509","26.342","0.36894","5"],
    [50787,"HCEP03730542","2025-03-10 07:45:00","9.1255","3.14969","26.556","6.289","7.71","0.323","5.239","0.04","1.19","29.031","4.61487","65.79","0","SATNPRO1509","26.414","0.36996","5"],
    [50788,"HCEP03730542","2025-03-10 08:00:00","9.1375","3.15697","26.49","6.186","7.7","0.472","4.425","0.03","0.36","29.0955","4.62391","64.76","0","SATNPRO1509","26.31","0.3685","5"],
    [50789,"HCEP03730542","2025-03-10 08:15:00","9.1407","3.15828","26.429","6.084","7.7","0.276","7.666","0.02","1.63","29.1063","4.6254","63.7","0","SATNPRO1509","26.198","0.36694","5"],
    [50790,"HCEP03730542","2025-03-10 08:30:00","9.1456","3.15982","26.383","5.965","7.69","0.498","17.283","0.34","17.26","29.1179","4.62697","62.47","0","SATNPRO1509","26.028","0.36458","5"],
    [50791,"HCEP03730542","2025-03-10 08:45:00","9.1524","3.16373","26.352","5.898","7.68","0.255","5.243","0.03","1.29","29.1522","4.63178","61.78","0","SATNPRO1509","26.248","0.36764","5"],
    [50792,"HCEP03730542","2025-03-10 09:00:00","9.1837","3.17918","26.321","5.644","7.66","0.323","4.307","0.07","0.49","29.284","4.65013","59.21","0","SATNPRO1509","26.034","0.36464","5"],
    [50793,"HCEP03730542","2025-03-10 09:15:00","9.1914","3.18372","26.292","5.441","7.65","0.321","4.07","0.12","1.06","29.324","4.65573","57.1","0","SATNPRO1509","26.418","0.37","5"],
    [50794,"HCEP03730542","2025-03-10 09:30:00","9.1971","3.18653","26.314","5.394","7.65","0.338","3.524","0.05","0.91","29.3479","4.65906","56.63","0","SATNPRO1509","26.5","0.37116","5"],
    [50795,"HCEP03730542","2025-03-10 09:45:00","9.2096","3.19162","26.322","5.309","7.64","0.24","3.51","0.02","0.17","29.3896","4.66481","55.77","0","SATNPRO1509","26.38","0.36948","5"],
    [50796,"HCEP03730542","2025-03-10 10:00:00","9.2132","3.19448","26.356","5.203","7.63","0.323","3.294","0.09","0.47","29.4157","4.66849","54.67","0","SATNPRO1509","26.701999999999998","0.37398","5"],
    [50797,"HCEP03730542","2025-03-10 10:15:00","9.2157","3.19539","26.414","5.169","7.63","0.432","4.678","0.03","0.48","29.4228","4.66947","54.32","0","SATNPRO1509","26.57","0.37214","5"],
    [50798,"HCEP03730542","2025-03-10 10:30:00","9.2174","3.19775","26.441","5.135","7.63","0.29","3.757","0.08","0.27","29.4455","4.6727","53.97","0","SATNPRO1509","26.722","0.37434","5"],
    [50799,"HCEP03730542","2025-03-10 10:45:00","9.2176","3.19969","26.5","5.097","7.62","0.236","4.531","0.01","0.26","29.4651","4.6755","53.57","0","SATNPRO1509","26.78","0.37512","5"],
    [50800,"HCEP03730542","2025-03-10 11:00:00","9.2156","3.20022","26.551","5.101","7.62","0.351","5.402","0.09","1.24","29.4721","4.67655","53.62","0","SATNPRO1509","26.926","0.37714","5"],
    [50801,"HCEP03730542","2025-03-10 11:15:00","9.214","3.20081","26.587","5.11","7.62","0.292","12.486","0.03","1.56","29.4794","4.67763","53.72","0","SATNPRO1509","27.058","0.37902","5"],
    [50802,"HCEP03730542","2025-03-10 11:30:00","9.2113","3.20121","26.634","5.13","7.63","0.247","9.157","0.01","1.83","29.4857","4.67858","53.93","0","SATNPRO1509","27.154","0.38036","5"],
    [50803,"HCEP03730542","2025-03-10 11:45:00","9.2089","3.20248","26.687","5.173","7.63","0.434","10.079","0.02","0.95","29.5006","4.68076","54.38","0","SATNPRO1509","27.572","0.38618","5"],
    [50804,"HCEP03730542","2025-03-10 12:00:00","9.2078","3.2025","26.753","5.23","7.63","0.244","5.238","0.01","1.88","29.5017","4.68095","54.98","0","SATNPRO1509","27.526","0.38552","5"],
    [50805,"HCEP03730542","2025-03-10 12:15:00","9.2012","3.20368","26.82","5.265","7.64","0.292","4.772","0.06","0.5","29.5192","4.68358","55.35","0","SATNPRO1509","27.852","0.3901","5"],
    [50806,"HCEP03730542","2025-03-10 12:30:00","9.1968","3.20568","26.937","5.328","7.64","0.523","6.301","0.03","0.68","29.5431","4.68709","56.01","0","SATNPRO1509","28.22","0.39528","5"],
    [50807,"HCEP03730542","2025-03-10 12:45:00","9.1937","3.20856","27","5.382","7.64","0.453","4.375","0.07","0.43","29.5751","4.69175","56.58","0","SATNPRO1509","28.468","0.39878","5"],
    [50808,"HCEP03730542","2025-03-10 13:00:00","9.1904","3.20892","27.029","5.423","7.64","0.262","4.024","0.05","0.17","29.5815","4.69272","57.01","0","SATNPRO1509","28.524","0.39956","5"],
    [50809,"HCEP03730542","2025-03-10 13:15:00","9.1869","3.20881","27.038","5.46","7.65","0.308","7.969","0.08","4.14","29.5832","4.69304","57.39","0","SATNPRO1509","28.614","0.40078","5"],
    [50810,"HCEP03730542","2025-03-10 13:30:00","9.186","3.20809","27.092","5.484","7.65","0.403","8.109","0.07","0.99","29.5766","4.69211","57.65","0","SATNPRO1509","28.564","0.40008","5"],
    [50811,"HCEP03730542","2025-03-10 13:45:00","9.1855","3.20841","27.09","5.501","7.65","0.34","3.662","0.03","0.23","29.5803","4.69264","57.82","0","SATNPRO1509","28.684","0.40182","5"],
    [50812,"HCEP03730542","2025-03-10 14:00:00","9.1793","3.20839","27.087","5.509","7.65","0.244","3.945","0.02","0.18","29.5853","4.69347","57.91","0","SATNPRO1509","28.822","0.4037","5"],
    [50813,"HCEP03730542","2025-03-10 14:15:00","9.18","3.20879","27.083","5.524","7.65","0.272","5.837","0.03","1.74","29.5887","4.69396","58.06","0","SATNPRO1509","28.844","0.40398","5"],
    [50814,"HCEP03730542","2025-03-10 14:30:00","9.1815","3.20876","27.067","5.515","7.65","0.432","7.557","0.02","0.42","29.5872","4.6937","57.97","0","SATNPRO1509","28.605999999999998","0.40064","5"],
    [50815,"HCEP03730542","2025-03-10 14:45:00","9.1797","3.20863","27.003","5.508","7.65","0.384","4.684","0.05","0.94","29.5874","4.69377","57.9","0","SATNPRO1509","28.726","0.40238","5"],
    [50816,"HCEP03730542","2025-03-10 15:00:00","9.1844","3.20915","26.972","5.519","7.65","0.407","3.984","0.07","0.52","29.5888","4.69388","58.02","0","SATNPRO1509","28.654","0.40134","5"],
    [50817,"HCEP03730542","2025-03-10 15:15:00","9.1843","3.20945","26.911","5.504","7.65","0.397","4.108","0.03","0.38","29.592","4.69434","57.87","0","SATNPRO1509","28.68","0.40174","5"],
    [50818,"HCEP03730542","2025-03-10 15:30:00","9.1852","3.20967","26.826","5.498","7.65","0.252","4.922","0.03","0.44","29.5935","4.69453","57.8","0","SATNPRO1509","28.47","0.3988","5"],
    [50819,"HCEP03730542","2025-03-10 15:45:00","9.1832","3.20993","26.749","5.474","7.65","0.274","3.599","0.04","0.19","29.5979","4.69519","57.55","0","SATNPRO1509","28.698","0.40196","5"],
    [50820,"HCEP03730542","2025-03-10 16:00:00","9.1818","3.2105","26.655","5.492","7.65","0.238","4.369","0.01","0.19","29.6049","4.69621","57.73","0","SATNPRO1509","28.804000000000002","0.40348","5"],
    [50821,"HCEP03730542","2025-03-10 16:15:00","9.1733","3.21098","26.54","5.508","7.65","0.31","4.849","0.05","0.39","29.6168","4.69807","57.9","0","SATNPRO1509","28.964","0.4057","5"],
    [50822,"HCEP03730542","2025-03-10 16:30:00","9.1703","3.21161","26.411","5.56","7.65","0.28","4.663","0.05","0.67","29.6258","4.69942","58.45","0","SATNPRO1509","29.148","0.40828","5"],
    [50823,"HCEP03730542","2025-03-10 16:45:00","9.1725","3.21213","26.27","5.58","7.65","0.245","4.658","0.02","0.24","29.6294","4.69988","58.65","0","SATNPRO1509","29.07","0.40718","5"],
    [50824,"HCEP03730542","2025-03-10 17:00:00","9.1671","3.21255","26.097","5.578","7.66","0.31","5.273","0.07","0.57","29.6382","4.70123","58.63","0","SATNPRO1509","29.274","0.41004","5"],
    [50825,"HCEP03730542","2025-03-10 17:15:00","9.1646","3.21284","25.943","5.608","7.66","0.257","4.783","0.06","0.51","29.6434","4.70201","58.94","0","SATNPRO1509","29.344","0.41102","5"],
    [50826,"HCEP03730542","2025-03-10 17:30:00","9.1714","3.21275","25.77","5.64","7.66","0.244","3.702","0.02","0.34","29.6369","4.70094","59.29","0","SATNPRO1509","29.246","0.40968","5"],
    [50827,"HCEP03730542","2025-03-10 17:45:00","9.1696","3.21327","25.598","5.631","7.66","0.249","4.239","0.02","0.39","29.6437","4.70194","59.19","0","SATNPRO1509","29.418","0.41206","5"],
    [50828,"HCEP03730542","2025-03-10 18:00:00","9.1709","3.2136","25.411","5.611","7.66","0.273","4.628","0.02","0.5","29.6461","4.70225","58.99","0","SATNPRO1509","29.24","0.40954","5"],
    [50829,"HCEP03730542","2025-03-10 18:15:00","9.1732","3.21341","25.239","5.598","7.66","0.243","4.08","0.02","0.27","29.6423","4.70165","58.85","0","SATNPRO1509","29.234","0.40948","5"],
    [50830,"HCEP03730542","2025-03-10 18:30:00","9.1712","3.21387","25.059","5.589","7.66","0.235","4.139","0.01","0.26","29.6488","4.70261","58.75","0","SATNPRO1509","29.268","0.40996","5"],
    [50831,"HCEP03730542","2025-03-10 18:45:00","9.1707","3.21406","24.888","5.597","7.66","0.228","4.236","0.01","0.22","29.6511","4.70294","58.84","0","SATNPRO1509","29.346","0.41106","5"],
    [50832,"HCEP03730542","2025-03-10 19:00:00","9.1695","3.21429","24.731","5.606","7.66","0.237","4.953","0.01","0.63","29.6546","4.70345","58.94","0","SATNPRO1509","29.312","0.4106","5"],
    [50833,"HCEP03730542","2025-03-10 19:15:00","9.1702","3.21439","24.584","5.611","7.66","0.23","4.519","0.01","0.56","29.655","4.70349","58.99","0","SATNPRO1509","29.44","0.41236","5"],
    [50834,"HCEP03730542","2025-03-10 19:30:00","9.1717","3.21411","24.46","5.61","7.66","0.249","9.241","0.01","2.86","29.651","4.70289","58.98","0","SATNPRO1509","28.892","0.40466","5"],
    [50835,"HCEP03730542","2025-03-10 19:45:00","9.1843","3.2121","24.369","5.573","7.65","0.233","3.881","0.02","0.23","29.6201","4.69821","58.59","0","SATNPRO1509","28.84","0.40396","5"],
    [50836,"HCEP03730542","2025-03-10 20:00:00","9.2093","3.20446","24.265","5.459","7.64","0.235","3.642","0.01","0.38","29.5215","4.68361","57.39","0","SATNPRO1509","28.77","0.40298","5"],
    [50837,"HCEP03730542","2025-03-10 20:15:00","9.2071","3.20601","24.218","5.214","7.63","0.329","19.634","0.08","16.87","29.5391","4.68617","54.82","0","SATNPRO1509","28.994","0.40612","5"],
    [50838,"HCEP03730542","2025-03-10 20:30:00","9.2101","3.20004","24.169","5.193","7.63","0.242","3.585","0.01","0.14","29.4758","4.67704","54.58","0","SATNPRO1509","26.238","0.36752","5"],
    [50839,"HCEP03730542","2025-03-10 20:45:00","9.1972","3.18576","24.187","5.119","7.63","0.229","3.077","0.02","0.16","29.3409","4.65793","53.74","0","SATNPRO1509","26.408","0.36988","5"],
    [50840,"HCEP03730542","2025-03-10 21:00:00","9.1996","3.18768","24.246","5.243","7.63","0.245","3.8","0.01","0.42","29.3584","4.6604","55.05","0","SATNPRO1509","26.296","0.3683","5"],
    [50841,"HCEP03730542","2025-03-10 21:15:00","9.1963","3.18518","24.286","5.241","7.64","0.22","2.948","0.01","0.22","29.3357","4.65721","55.02","0","SATNPRO1509","26.406","0.36986","5"],
    [50842,"HCEP03730542","2025-03-10 21:30:00","9.2014","3.18937","24.378","5.265","7.63","0.239","3.38","0.01","0.12","29.3741","4.66263","55.29","0","SATNPRO1509","26.344","0.36898","5"],
    [50843,"HCEP03730542","2025-03-10 21:45:00","9.2061","3.1931","24.502","5.202","7.63","0.237","3.428","0.02","0.33","29.4082","4.66744","54.64","0","SATNPRO1509","26.352","0.36908","5"],
    [50844,"HCEP03730542","2025-03-10 22:00:00","9.2056","3.19116","24.604","5.154","7.63","0.247","3.344","0.02","0.21","29.3888","4.66467","54.14","0","SATNPRO1509","26.49","0.37106","5"],
    [50845,"HCEP03730542","2025-03-10 22:15:00","9.2083","3.19275","24.724","5.155","7.63","0.228","3.17","0.01","0.11","29.4028","4.66663","54.15","0","SATNPRO1509","26.512","0.37136","5"],
    [50846,"HCEP03730542","2025-03-10 22:30:00","9.2024","3.18877","24.856","5.148","7.63","0.228","2.633","0.01","0.15","29.367","4.66161","54.06","0","SATNPRO1509","26.424","0.3701","5"],
    [50847,"HCEP03730542","2025-03-10 22:45:00","9.1967","3.18515","25.016","5.212","7.63","0.215","2.722","0.01","0.24","29.3347","4.6571","54.72","0","SATNPRO1509","26.422","0.37008","5"],
    [50848,"HCEP03730542","2025-03-10 23:00:00","9.1941","3.18402","25.163","5.332","7.64","0.228","3.017","0.01","0.1","29.3254","4.65581","55.97","0","SATNPRO1509","26.426000000000002","0.3701","5"],
    [50849,"HCEP03730542","2025-03-10 23:15:00","9.1962","3.18536","25.291","5.307","7.64","0.257","2.989","0.02","0.28","29.3372","4.65747","55.71","0","SATNPRO1509","26.44","0.37034","5"],
    [50850,"HCEP03730542","2025-03-10 23:30:00","9.204","3.18995","25.463","5.265","7.63","0.233","3.032","0.02","0.11","29.3774","4.66311","55.29","0","SATNPRO1509","26.532","0.3716","5"],
    [50851,"HCEP03730542","2025-03-10 23:45:00","9.21","3.19484","25.618","5.15","7.63","0.225","3.384","0.02","0.55","29.4223","4.66945","54.11","0","SATNPRO1509","26.532","0.37162","5"],
    [50852,"HCEP03730542","2025-03-11 00:00:00","9.2099","3.19433","25.797","5.111","7.62","0.233","3.214","0.03","0.16","29.4171","4.66872","53.7","0","SATNPRO1509","26.468","0.37072","5"],
    [50853,"HCEP03730542","2025-03-11 00:15:00","9.2109","3.19527","26.012","5.111","7.62","0.223","3.204","0.01","0.14","29.4257","4.66995","53.71","0","SATNPRO1509","26.438","0.3703","5"],
    [50854,"HCEP03730542","2025-03-11 00:30:00","9.2128","3.20295","26.225","5.09","7.62","0.238","3.446","0.03","0.21","29.5024","4.68093","53.51","0","SATNPRO1509","26.69","0.37382","5"],
    [50855,"HCEP03730542","2025-03-11 00:45:00","9.2124","3.19823","26.421","5.09","7.62","0.235","3.71","0.04","0.41","29.4546","4.67409","53.49","0","SATNPRO1509","26.508","0.3713","5"],
    [50856,"HCEP03730542","2025-03-11 01:00:00","9.2116","3.19574","26.622","5.069","7.62","0.236","3.287","0.03","0.2","29.4297","4.67055","53.26","0","SATNPRO1509","26.33","0.36876","5"],
    [50857,"HCEP03730542","2025-03-11 01:15:00","9.209","3.19063","26.818","5.054","7.62","0.223","2.531","0.03","0.38","29.3797","4.66343","53.09","0","SATNPRO1509","26.07","0.36518","5"],
    [50858,"HCEP03730542","2025-03-11 01:30:00","9.2101","3.191","26.98","5.038","7.62","0.238","2.752","0.04","0.11","29.3825","4.66381","52.92","0","SATNPRO1509","25.884","0.36258","5"],
    [50859,"HCEP03730542","2025-03-11 01:45:00","9.2098","3.18977","27.124","5.013","7.62","0.251","3.021","0.04","0.18","29.3702","4.66207","52.66","0","SATNPRO1509","25.892","0.36264","5"],
    [50860,"HCEP03730542","2025-03-11 02:00:00","9.2138","3.19202","27.258","4.982","7.61","0.249","3.301","0.04","0.36","29.3898","4.66482","52.34","0","SATNPRO1509","25.978","0.36384","5"],
    [50861,"HCEP03730542","2025-03-11 02:15:00","9.2101","3.19093","27.403","4.964","7.61","0.301","3.573","0.05","0.38","29.3817","4.66374","52.15","0","SATNPRO1509","25.826","0.36174","5"],
    [50862,"HCEP03730542","2025-03-11 02:30:00","9.1869","3.17891","27.478","5.111","7.63","0.287","4.751","0.05","1.17","29.2783","4.64932","53.63","0","SATNPRO1509","25.682000000000002","0.35972","5"],
    [50863,"HCEP03730542","2025-03-11 02:45:00","9.2022","3.18601","27.577","5.162","7.62","0.261","3.396","0.05","0.17","29.3379","4.6576","54.2","0","SATNPRO1509","25.894","0.36266","5"],
    [50864,"HCEP03730542","2025-03-11 03:00:00","9.1967","3.18375","27.623","5.096","7.62","0.288","3.818","0.05","0.48","29.3194","4.65505","53.5","0","SATNPRO1509","25.758","0.36078","5"],
    [50865,"HCEP03730542","2025-03-11 03:15:00","9.1992","3.18545","27.707","5.102","7.62","0.26","4.17","0.03","0.97","29.3346","4.65719","53.57","0","SATNPRO1509","25.904","0.36284","5"],
    [50866,"HCEP03730542","2025-03-11 03:30:00","9.2003","3.18624","27.751","5.061","7.62","0.264","4.272","0.04","0.22","29.3417","4.6582","53.14","0","SATNPRO1509","25.602","0.3586","5"],
    [50867,"HCEP03730542","2025-03-11 03:45:00","9.2075","3.19226","27.744","5.024","7.62","0.277","4.486","0.03","1.05","29.3973","4.66603","52.77","0","SATNPRO1509","26.11","0.36572","5"],
    [50868,"HCEP03730542","2025-03-11 04:00:00","9.2071","3.19258","27.714","5.009","7.62","0.248","3.6","0.03","0.1","29.4008","4.66655","52.62","0","SATNPRO1509","26.102","0.36564","5"],
    [50869,"HCEP03730542","2025-03-11 04:15:00","9.2078","3.19227","27.744","5.009","7.62","0.232","3.541","0.02","0.12","29.3971","4.666","52.62","0","SATNPRO1509","26.046","0.36484","5"],
    [50870,"HCEP03730542","2025-03-11 04:30:00","9.2083","3.19578","27.704","5.022","7.62","0.243","3.872","0.03","0.2","29.4325","4.67107","52.77","0","SATNPRO1509","26.32","0.36866","5"],
    [50871,"HCEP03730542","2025-03-11 04:45:00","9.1988","3.18757","27.723","5.043","7.62","0.235","3.654","0.03","0.51","29.3566","4.66035","52.95","0","SATNPRO1509","26.196","0.36694","5"],
    [50872,"HCEP03730542","2025-03-11 05:00:00","9.2061","3.1942","27.649","5.077","7.62","0.254","4.582","0.03","0.43","29.4181","4.66904","53.34","0","SATNPRO1509","26.204","0.36704","5"],
    [50873,"HCEP03730542","2025-03-11 05:15:00","9.2075","3.19781","27.579","5.027","7.62","0.25","4.606","0.02","0.18","29.4538","4.67413","52.83","0","SATNPRO1509","26.592","0.37248","5"],
    [50874,"HCEP03730542","2025-03-11 05:30:00","9.2006","3.18882","27.532","5.037","7.62","0.25","3.603","0.03","0.14","29.3679","4.66193","52.89","0","SATNPRO1509","26.168","0.36652","5"],
    [50875,"HCEP03730542","2025-03-11 05:45:00","9.1919","3.18563","27.515","5.059","7.62","0.277","5.99","0.02","0.77","29.3426","4.65846","53.11","0","SATNPRO1509","25.864","0.36224","5"],
    [50876,"HCEP03730542","2025-03-11 06:00:00","9.1881","3.18566","27.432","5.078","7.62","0.319","5.999","0.03","0.17","29.346","4.65902","53.31","0","SATNPRO1509","25.894000000000002","0.36268","5"],
    [50877,"HCEP03730542","2025-03-11 06:15:00","9.1886","3.18574","27.341","5.073","7.62","0.309","6.261","0.04","0.28","29.3465","4.65907","53.25","0","SATNPRO1509","25.912","0.36294","5"],
    [50878,"HCEP03730542","2025-03-11 06:30:00","9.1898","3.18685","27.227","5.088","7.62","0.291","6.181","0.03","0.11","29.3568","4.66052","53.42","0","SATNPRO1509","25.93","0.36318","5"],
    [50879,"HCEP03730542","2025-03-11 06:45:00","9.188","3.18767","27.095","5.071","7.62","0.268","6.16","0.03","0.17","29.3667","4.66197","53.24","0","SATNPRO1509","26.082","0.3653","5"],
    [50880,"HCEP03730542","2025-03-11 07:00:00","9.1903","3.18913","27.03","5.046","7.62","0.275","6.572","0.01","0.14","29.3797","4.66379","52.98","0","SATNPRO1509","26.072","0.36516","5"],
    [50881,"HCEP03730542","2025-03-11 07:15:00","9.1861","3.1891","26.917","5.049","7.62","0.283","6.497","0.02","0.17","29.383","4.66433","53.01","0","SATNPRO1509","26.212","0.36716","5"],
    [50882,"HCEP03730542","2025-03-11 07:30:00","9.1877","3.18957","26.784","5.072","7.61","0.291","6.545","0.02","0.14","29.3865","4.6648","53.25","0","SATNPRO1509","26.242","0.36756","5"],
    [50883,"HCEP03730542","2025-03-11 07:45:00","9.1844","3.18844","26.694","5.069","7.62","0.36","6.718","0.05","0.21","29.3777","4.66359","53.21","0","SATNPRO1509","26.259999999999998","0.3678","5"],
    [50884,"HCEP03730542","2025-03-11 08:00:00","9.1837","3.18835","26.541","5.087","7.62","0.365","6.678","0.06","0.19","29.3775","4.66356","53.41","0","SATNPRO1509","26.22","0.36722","5"],
    [50885,"HCEP03730542","2025-03-11 08:15:00","9.1626","3.18384","26.477","5.215","7.64","0.276","5.828","0.03","0.2","29.3488","4.65984","54.72","0","SATNPRO1509","26.862","0.37626","5"],
    [50886,"HCEP03730542","2025-03-11 08:30:00","9.1688","3.18475","26.337","5.431","7.64","0.286","6.21","0.05","0.37","29.3531","4.66033","56.99","0","SATNPRO1509","26.692","0.37388","5"],
    [50887,"HCEP03730542","2025-03-11 08:45:00","9.1597","3.18449","26.213","5.427","7.64","0.323","6.547","0.05","0.44","29.358","4.66118","56.94","0","SATNPRO1509","27.026","0.37856","5"],
    [50888,"HCEP03730542","2025-03-11 09:00:00","9.1586","3.18362","26.153","5.526","7.65","0.286","6.336","0.02","0.28","29.35","4.66006","57.97","0","SATNPRO1509","27.062","0.37904","5"],
    [50889,"HCEP03730542","2025-03-11 09:15:00","9.1479","3.18","26.155","5.61","7.66","0.368","6.248","0.03","0.38","29.3219","4.65622","58.82","0","SATNPRO1509","27.64","0.38716","5"],
    [50890,"HCEP03730542","2025-03-11 09:30:00","9.1447","3.17934","26.123","5.803","7.67","0.293","8.291","0.02","0.87","29.3178","4.65569","60.84","0","SATNPRO1509","27.782","0.3891","5"],
    [50891,"HCEP03730542","2025-03-11 09:45:00","9.1432","3.17621","26.104","5.874","7.67","0.252","9.123","0.01","1.22","29.2871","4.65131","61.57","0","SATNPRO1509","27.592","0.38646","5"],
    [50892,"HCEP03730542","2025-03-11 10:00:00","9.1423","3.17472","26.13","5.92","7.68","0.257","6.356","0.01","1.11","29.2726","4.64925","62.05","0","SATNPRO1509","27.424","0.38412","5"],
    [50893,"HCEP03730542","2025-03-11 10:15:00","9.1412","3.17318","26.21","5.934","7.68","0.765","6.521","0.12","1.28","29.2578","4.64714","62.19","0","SATNPRO1509","27.352","0.38312","5"],
    [50894,"HCEP03730542","2025-03-11 10:30:00","9.1422","3.17326","26.294","5.943","7.68","0.42","8.605","0.07","0.84","29.2578","4.64713","62.28","0","SATNPRO1509","27.462","0.38462","5"],
    [50895,"HCEP03730542","2025-03-11 10:45:00","9.1431","3.17753","26.309","5.928","7.68","0.254","5.718","0.02","0.31","29.3005","4.65325","62.14","0","SATNPRO1509","27.776","0.38904","5"],
    [50896,"HCEP03730542","2025-03-11 11:00:00","9.1589","3.1833","26.419","5.792","7.66","0.277","6.153","0.02","0.27","29.3464","4.65955","60.76","0","SATNPRO1509","27.34","0.38294","5"],
    [50897,"HCEP03730542","2025-03-11 11:15:00","9.1743","3.19051","26.438","5.492","7.65","0.258","6.647","0.01","0.3","29.4073","4.668","57.65","0","SATNPRO1509","27.074","0.37924","5"],
    [50898,"HCEP03730542","2025-03-11 11:30:00","9.1683","3.19859","26.574","5.331","7.64","0.261","6.205","0.01","0.29","29.4945","4.68064","55.99","0","SATNPRO1509","27.702","0.388","5"],
    [50899,"HCEP03730542","2025-03-11 11:45:00","9.1564","3.20572","26.555","5.476","7.65","0.663","23.35","0.39","12.08","29.5771","4.6927","57.53","0","SATNPRO1509","28.816","0.40362","5"],
    [50900,"HCEP03730542","2025-03-11 12:00:00","9.1503","3.20975","26.685","5.565","7.65","0.302","6.992","0.02","0.49","29.6233","4.69944","58.47","0","SATNPRO1509","29.26","0.4098","5"],
    [50901,"HCEP03730542","2025-03-11 12:15:00","9.1475","3.21261","26.738","5.652","7.66","0.281","6.537","0.02","0.33","29.6549","4.70402","59.39","0","SATNPRO1509","29.61","0.41476","5"],
    [50902,"HCEP03730542","2025-03-11 12:30:00","9.146","3.21416","26.838","5.696","7.66","0.292","5.949","0.03","0.55","29.6719","4.7065","59.86","0","SATNPRO1509","29.788","0.4172","5"],
    [50903,"HCEP03730542","2025-03-11 12:45:00","9.1465","3.21436","26.916","5.72","7.66","0.236","5.529","0.01","0.41","29.6735","4.70673","60.11","0","SATNPRO1509","29.782","0.41714","5"],
    [50904,"HCEP03730542","2025-03-11 13:00:00","9.1446","3.21474","26.976","5.732","7.67","0.348","5.418","0.03","0.29","29.679","4.70754","60.24","0","SATNPRO1509","29.804000000000002","0.41746","5"],
    [50905,"HCEP03730542","2025-03-11 13:15:00","9.144","3.21512","27.037","5.755","7.67","0.231","4.824","0.01","0.21","29.6833","4.70818","60.48","0","SATNPRO1509","29.808","0.41746","5"],
    [50906,"HCEP03730542","2025-03-11 13:30:00","9.1443","3.21499","27.138","5.761","7.67","0.232","4.495","0.01","0.19","29.6817","4.70795","60.54","0","SATNPRO1509","29.868000000000002","0.41834","5"],
    [50907,"HCEP03730542","2025-03-11 13:45:00","9.1482","3.21384","27.185","5.758","7.67","0.224","4.337","0.01","0.21","29.6666","4.70572","60.51","0","SATNPRO1509","29.82","0.41768","5"],
    [50908,"HCEP03730542","2025-03-11 14:00:00","9.1498","3.2132","27.135","5.746","7.67","0.232","4.691","0.01","1.15","29.6588","4.70456","60.38","0","SATNPRO1509","29.64","0.41514","5"],
    [50909,"HCEP03730542","2025-03-11 14:15:00","9.1498","3.21273","27.192","5.714","7.67","0.221","4.102","0.01","0.17","29.654","4.70388","60.04","0","SATNPRO1509","29.79","0.41724","5"],
    [50910,"HCEP03730542","2025-03-11 14:30:00","9.1501","3.21336","27.183","5.727","7.67","0.229","4.513","0.01","0.48","29.6602","4.70476","60.19","0","SATNPRO1509","29.64","0.41516","5"],
    [50911,"HCEP03730542","2025-03-11 14:45:00","9.1494","3.21324","27.245","5.717","7.67","0.469","5.307","0.03","0.77","29.6594","4.70467","60.08","0","SATNPRO1509","29.658","0.41546","5"],
    [50912,"HCEP03730542","2025-03-11 15:00:00","9.1464","3.21434","27.212","5.741","7.67","0.403","6.498","0.04","1.1","29.6733","4.70671","60.33","0","SATNPRO1509","29.838","0.41796","5"],
    [50913,"HCEP03730542","2025-03-11 15:15:00","9.1462","3.21454","27.156","5.739","7.67","0.38","5.449","0.05","0.98","29.6755","4.70703","60.31","0","SATNPRO1509","29.872","0.41844","5"],
    [50914,"HCEP03730542","2025-03-11 15:30:00","9.1456","3.21481","27.167","5.733","7.67","0.283","4.417","0.08","1.07","29.6787","4.7075","60.25","0","SATNPRO1509","29.876","0.41846","5"],
    [50915,"HCEP03730542","2025-03-11 15:45:00","9.1458","3.21503","27.138","5.748","7.67","0.303","4.176","0.06","0.2","29.6808","4.70779","60.41","0","SATNPRO1509","29.962","0.41968","5"],
    [50916,"HCEP03730542","2025-03-11 16:00:00","9.1473","3.21497","27.065","5.732","7.67","0.248","4.917","0.04","0.31","29.679","4.7075","60.24","0","SATNPRO1509","29.74","0.41652","5"],
    [50917,"HCEP03730542","2025-03-11 16:15:00","9.148","3.21474","26.984","5.713","7.67","0.231","4.78","0.01","0.16","29.6761","4.70706","60.05","0","SATNPRO1509","29.706","0.41606","5"],
    [50918,"HCEP03730542","2025-03-11 16:30:00","9.1469","3.21467","26.87","5.716","7.67","0.221","3.694","0.01","0.14","29.6764","4.70712","60.07","0","SATNPRO1509","29.8","0.41742","5"],
    [50919,"HCEP03730542","2025-03-11 16:45:00","9.1464","3.21505","26.77","5.716","7.67","0.218","4.139","0","0.12","29.6807","4.70774","60.07","0","SATNPRO1509","29.768","0.41694","5"],
    [50920,"HCEP03730542","2025-03-11 17:00:00","9.1453","3.2172","26.633","5.714","7.67","0.252","5.295","0.05","0.75","29.7037","4.71105","60.06","0","SATNPRO1509","29.94","0.41934","5"],
    [50921,"HCEP03730542","2025-03-11 17:15:00","9.1417","3.21786","26.461","5.726","7.67","0.223","4.838","0.01","0.13","29.7134","4.7125","60.18","0","SATNPRO1509","30.142","0.42218","5"],
    [50922,"HCEP03730542","2025-03-11 17:30:00","9.1411","3.21805","26.34","5.752","7.67","0.23","4.648","0.01","0.15","29.7159","4.71287","60.46","0","SATNPRO1509","30.084","0.4214","5"],
    [50923,"HCEP03730542","2025-03-11 17:45:00","9.1397","3.21885","26.203","5.761","7.67","0.22","4.519","0.01","0.09","29.7253","4.71423","60.55","0","SATNPRO1509","30.186","0.42282","5"],
    [50924,"HCEP03730542","2025-03-11 18:00:00","9.1432","3.21673","26.063","5.763","7.67","0.224","3.888","0.01","0.2","29.7008","4.71065","60.57","0","SATNPRO1509","29.984","0.42","5"],
    [50925,"HCEP03730542","2025-03-11 18:15:00","9.1433","3.21671","25.828","5.753","7.67","0.215","3.873","0.01","0.09","29.7006","4.71061","60.47","0","SATNPRO1509","30.158","0.42246","5"],
    [50926,"HCEP03730542","2025-03-11 18:30:00","9.1403","3.21943","25.678","5.75","7.67","0.228","4.484","0.01","0.09","29.731","4.71501","60.44","0","SATNPRO1509","30.154","0.42232","5"],
    [50927,"HCEP03730542","2025-03-11 18:45:00","9.1387","3.22031","25.399","5.75","7.67","0.221","4.589","0.01","0.1","29.7413","4.7165","60.44","0","SATNPRO1509","30.27","0.42398","5"],
    [50928,"HCEP03730542","2025-03-11 19:00:00","9.1389","3.22016","25.267","5.755","7.67","0.231","4.792","0.01","0.21","29.7398","4.71626","60.5","0","SATNPRO1509","30.226","0.42336","5"],
    [50929,"HCEP03730542","2025-03-11 19:15:00","9.1388","3.22062","25.112","5.756","7.67","0.23","5.106","0.01","0.42","29.7446","4.71695","60.51","0","SATNPRO1509","30.195999999999998","0.42292","5"],
    [50930,"HCEP03730542","2025-03-11 19:30:00","9.1372","3.22042","24.91","5.77","7.67","0.224","4.127","0.01","0.18","29.744","4.71687","60.65","0","SATNPRO1509","30.322","0.42468","5"],
    [50931,"HCEP03730542","2025-03-11 19:45:00","9.1382","3.22074","24.752","5.764","7.67","0.231","4.252","0.04","0.19","29.7465","4.71721","60.59","0","SATNPRO1509","30.296","0.4243","5"],
    [50932,"HCEP03730542","2025-03-11 20:00:00","9.1388","3.2208","24.571","5.758","7.67","0.233","4.463","0.01","0.29","29.7466","4.7172","60.53","0","SATNPRO1509","30.22","0.42328","5"],
    [50933,"HCEP03730542","2025-03-11 20:15:00","9.1393","3.22044","24.411","5.741","7.67","0.24","4.581","0.02","0.44","29.7427","4.71662","60.35","0","SATNPRO1509","30.162","0.4225","5"],
    [50934,"HCEP03730542","2025-03-11 20:30:00","9.1389","3.22079","24.298","5.742","7.67","0.243","4.443","0.01","0.24","29.7466","4.71719","60.36","0","SATNPRO1509","30.19","0.42288","5"],
    [50935,"HCEP03730542","2025-03-11 20:45:00","9.1397","3.2205","24.222","5.735","7.67","0.23","4.263","0.02","0.17","29.743","4.71665","60.29","0","SATNPRO1509","30.124000000000002","0.42192","5"],
    [50936,"HCEP03730542","2025-03-11 21:00:00","9.1403","3.22034","24.188","5.725","7.67","0.234","4.596","0.01","0.13","29.7409","4.71633","60.18","0","SATNPRO1509","30.136","0.42212","5"],
    [50937,"HCEP03730542","2025-03-11 21:15:00","9.1417","3.21983","24.245","5.714","7.67","0.227","4.442","0.02","0.18","29.7345","4.71539","60.07","0","SATNPRO1509","30.048","0.42084","5"],
    [50938,"HCEP03730542","2025-03-11 21:30:00","9.1437","3.21928","24.254","5.703","7.66","0.229","4.481","0.01","0.17","29.7272","4.71432","59.95","0","SATNPRO1509","30.169999999999998","0.42256","5"],
    [50939,"HCEP03730542","2025-03-11 21:45:00","9.1415","3.22018","24.35","5.7","7.66","0.223","4.699","0.01","0.12","29.7382","4.71593","59.92","0","SATNPRO1509","30.048","0.42086","5"],
    [50940,"HCEP03730542","2025-03-11 22:00:00","9.1434","3.21951","24.36","5.697","7.66","0.226","4.37","0.01","0.11","29.7297","4.71468","59.89","0","SATNPRO1509","30.052","0.4209","5"],
    [50941,"HCEP03730542","2025-03-11 22:15:00","9.1453","3.21915","24.429","5.676","7.66","0.222","4.371","0.01","0.1","29.7245","4.7139","59.67","0","SATNPRO1509","29.958000000000002","0.41956","5"],
    [50942,"HCEP03730542","2025-03-11 22:30:00","9.1455","3.21904","24.542","5.663","7.66","0.231","4.424","0.01","0.11","29.7231","4.71371","59.53","0","SATNPRO1509","29.786","0.4172","5"],
    [50943,"HCEP03730542","2025-03-11 22:45:00","9.1476","3.21857","24.666","5.634","7.66","0.228","4.574","0.01","0.1","29.7165","4.71273","59.22","0","SATNPRO1509","29.843999999999998","0.418","5"],
    [50944,"HCEP03730542","2025-03-11 23:00:00","9.1579","3.20636","24.853","5.592","7.65","0.23","4.251","0.01","0.11","29.5832","4.69344","58.75","0","SATNPRO1509","28.512","0.39938","5"],
    [50945,"HCEP03730542","2025-03-11 23:15:00","9.1635","3.2024","24.992","5.484","7.65","0.228","4.156","0.01","0.14","29.5381","4.68688","57.6","0","SATNPRO1509","28.208000000000002","0.39508","5"],
    [50946,"HCEP03730542","2025-03-11 23:30:00","9.162","3.19355","25.108","5.474","7.65","0.239","3.485","0.02","0.15","29.4489","4.67412","57.46","0","SATNPRO1509","27.752","0.38872","5"],
    [50947,"HCEP03730542","2025-03-11 23:45:00","9.1617","3.19242","25.328","5.52","7.65","0.216","2.809","0.02","0.05","29.4376","4.67251","57.94","0","SATNPRO1509","27.9","0.3908","5"],
    [50948,"HCEP03730542","2025-03-12 00:00:00","9.1616","3.19327","25.455","5.531","7.65","0.221","2.713","0.01","0.05","29.4462","4.67377","58.06","0","SATNPRO1509","27.916","0.391","5"],
    [50949,"HCEP03730542","2025-03-12 00:15:00","9.1617","3.19468","25.593","5.532","7.65","0.213","2.712","0.01","0.06","29.4605","4.67582","58.08","0","SATNPRO1509","27.996","0.39216","5"],
    [50950,"HCEP03730542","2025-03-12 00:30:00","9.1617","3.19583","25.776","5.535","7.65","0.216","2.696","0.01","0.07","29.4722","4.67751","58.12","0","SATNPRO1509","27.919999999999998","0.39104","5"],
    [50951,"HCEP03730542","2025-03-12 00:45:00","9.1641","3.19541","26.054","5.524","7.65","0.212","2.63","0.01","0.08","29.4658","4.67657","57.99","0","SATNPRO1509","27.994","0.39206","5"],
    [50952,"HCEP03730542","2025-03-12 01:00:00","9.1706","3.19048","26.305","5.452","7.65","0.221","2.807","0.01","0.04","29.41","4.66846","57.22","0","SATNPRO1509","27.166","0.3805","5"],
    [50953,"HCEP03730542","2025-03-12 01:15:00","9.1724","3.19116","26.431","5.397","7.64","0.217","2.83","0.01","0.06","29.4155","4.66922","56.65","0","SATNPRO1509","27.072","0.37918","5"],
    [50954,"HCEP03730542","2025-03-12 01:30:00","9.1747","3.18702","26.588","5.386","7.64","0.225","2.898","0.01","0.06","29.3713","4.66284","56.53","0","SATNPRO1509","26.784","0.37514","5"],
    [50955,"HCEP03730542","2025-03-12 01:45:00","9.1714","3.18838","26.764","5.414","7.64","0.22","2.872","0.01","0.06","29.3877","4.66527","56.82","0","SATNPRO1509","26.696","0.37392","5"],
    [50956,"HCEP03730542","2025-03-12 02:00:00","9.1754","3.18678","27.019","5.323","7.64","0.23","2.974","0.01","0.05","29.3681","4.66239","55.87","0","SATNPRO1509","26.740000000000002","0.37454","5"],
    [50957,"HCEP03730542","2025-03-12 02:15:00","9.1722","3.17825","27.137","5.31","7.64","0.224","2.827","0.01","0.06","29.2837","4.65034","55.7","0","SATNPRO1509","26.162","0.36644","5"],
    [50958,"HCEP03730542","2025-03-12 02:30:00","9.1694","3.17496","27.281","5.332","7.64","0.233","2.895","0.01","0.06","29.2524","4.64591","55.91","0","SATNPRO1509","26.126","0.36592","5"],
    [50959,"HCEP03730542","2025-03-12 02:45:00","9.1733","3.18456","27.425","5.331","7.64","0.228","3.31","0.01","0.09","29.347","4.65942","55.94","0","SATNPRO1509","26.508","0.37128","5"],
    [50960,"HCEP03730542","2025-03-12 03:00:00","9.1732","3.18787","27.562","5.304","7.64","0.242","3.478","0.01","0.09","29.3807","4.66428","55.67","0","SATNPRO1509","26.738","0.37452","5"],
    [50961,"HCEP03730542","2025-03-12 03:15:00","9.1722","3.19048","27.617","5.307","7.64","0.249","4.377","0.03","0.08","29.4082","4.66824","55.7","0","SATNPRO1509","27.080000000000002","0.3793","5"],
    [50962,"HCEP03730542","2025-03-12 03:30:00","9.1619","3.20598","27.729","5.31","7.64","0.253","6.109","0.01","0.19","29.5748","4.69234","55.79","0","SATNPRO1509","28.105999999999998","0.39368","5"],
    [50963,"HCEP03730542","2025-03-12 03:45:00","9.1569","3.21239","27.836","5.396","7.64","0.259","7.615","0.01","0.22","29.6443","4.7024","56.71","0","SATNPRO1509","28.886","0.4046","5"],
    [50964,"HCEP03730542","2025-03-12 04:00:00","9.1676","3.19794","27.767","5.364","7.64","0.294","6.184","0.06","1.14","29.488","4.67978","56.33","0","SATNPRO1509","27.604","0.38662","5"],
    [50965,"HCEP03730542","2025-03-12 04:15:00","9.1685","3.19529","27.869","5.32","7.64","0.307","6.01","0.07","0.7","29.4602","4.67578","55.86","0","SATNPRO1509","27.392","0.3837","5"],
    [50966,"HCEP03730542","2025-03-12 04:30:00","9.1705","3.19069","27.817","5.33","7.64","0.349","5.036","0.1","1.14","29.4117","4.66879","55.95","0","SATNPRO1509","27.15","0.3803","5"],
    [50967,"HCEP03730542","2025-03-12 04:45:00","9.1684","3.18461","27.797","5.343","7.64","0.249","3.936","0.04","0.19","29.3514","4.66017","56.06","0","SATNPRO1509","26.73","0.37438","5"],
    [50968,"HCEP03730542","2025-03-12 05:00:00","9.1657","3.18261","27.843","5.375","7.64","0.287","3.951","0.07","0.56","29.3331","4.6576","56.38","0","SATNPRO1509","26.63","0.373","5"],
    [50969,"HCEP03730542","2025-03-12 05:15:00","9.1619","3.17375","27.802","5.446","7.65","0.291","3.602","0.07","1.23","29.246","4.64516","57.1","0","SATNPRO1509","26.234","0.36746","5"],
    [50970,"HCEP03730542","2025-03-12 05:30:00","9.1625","3.20383","27.757","5.427","7.64","0.343","8.903","0.08","1.38","29.5523","4.6891","57.01","0","SATNPRO1509","27.888","0.39062","5"],
    [50971,"HCEP03730542","2025-03-12 05:45:00","9.1609","3.20702","27.614","5.357","7.64","0.32","8.517","0.07","2.05","29.5863","4.694","56.28","0","SATNPRO1509","28.282","0.39614","5"],
    [50972,"HCEP03730542","2025-03-12 06:00:00","9.1624","3.20161","27.478","5.341","7.64","0.296","6.784","0.04","1.55","29.5299","4.68588","56.1","0","SATNPRO1509","27.878","0.3905","5"],
    [50973,"HCEP03730542","2025-03-12 06:15:00","9.1639","3.19058","27.477","5.348","7.64","0.309","5.743","0.06","0.7","29.4161","4.66952","56.13","0","SATNPRO1509","26.945999999999998","0.37742","5"],
    [50974,"HCEP03730542","2025-03-12 06:30:00","9.1616","3.18291","27.22","5.382","7.64","0.27","4.502","0.03","0.41","29.3399","4.65862","56.46","0","SATNPRO1509","26.844","0.376","5"],
    [50975,"HCEP03730542","2025-03-12 06:45:00","9.1521","3.17245","27.222","5.513","7.65","0.315","5.921","0.06","2.24","29.241","4.64459","57.78","0","SATNPRO1509","26.362","0.36924","5"],
    [50976,"HCEP03730542","2025-03-12 07:00:00","9.1571","3.17798","27.136","5.525","7.65","0.266","4.803","0.03","0.19","29.2933","4.65201","57.94","0","SATNPRO1509","26.518","0.3714","5"],
    [50977,"HCEP03730542","2025-03-12 07:15:00","9.1508","3.17238","27.004","5.506","7.65","0.264","5.568","0.03","0.2","29.2414","4.64466","57.71","0","SATNPRO1509","26.348","0.3691","5"],
    [50978,"HCEP03730542","2025-03-12 07:30:00","9.1495","3.17255","26.925","5.573","7.65","0.275","5.312","0.03","0.18","29.2443","4.64509","58.41","0","SATNPRO1509","26.59","0.37246","5"],
    [50979,"HCEP03730542","2025-03-12 07:45:00","9.1481","3.1732","26.748","5.657","7.66","0.266","5.121","0.02","0.24","29.2521","4.64624","59.29","0","SATNPRO1509","26.695999999999998","0.37394","5"],
    [50980,"HCEP03730542","2025-03-12 08:00:00","9.1365","3.16535","26.64","5.864","7.67","0.284","4.469","0.03","0.18","29.1816","4.63631","61.42","0","SATNPRO1509","27.188","0.38086","5"],
    [50981,"HCEP03730542","2025-03-12 08:15:00","9.1325","3.16391","26.496","5.978","7.68","0.27","4.008","0.02","0.13","29.1702","4.63474","62.6","0","SATNPRO1509","27.02","0.37846","5"],
    [50982,"HCEP03730542","2025-03-12 08:30:00","9.138","3.16962","26.386","5.929","7.67","0.266","4.413","0.01","0.12","29.2241","4.64237","62.12","0","SATNPRO1509","27.102","0.3796","5"],
    [50983,"HCEP03730542","2025-03-12 08:45:00","9.1331","3.16568","26.293","5.894","7.68","0.266","4.642","0.03","0.91","29.1879","4.63726","61.73","0","SATNPRO1509","27.148","0.38026","5"],
    [50984,"HCEP03730542","2025-03-12 09:00:00","9.1295","3.15925","26.14","6.035","7.69","0.256","3.597","0.01","0.13","29.1253","4.62833","63.18","0","SATNPRO1509","26.744","0.37458","5"],
    [50985,"HCEP03730542","2025-03-12 09:15:00","9.1336","3.16375","26.03","6.034","7.68","0.261","4.789","0.01","0.14","29.1679","4.63435","63.19","0","SATNPRO1509","27.114","0.37978","5"],
    [50986,"HCEP03730542","2025-03-12 09:30:00","9.1338","3.16397","25.934","6.008","7.68","0.274","5.548","0.01","0.13","29.1701","4.63466","62.92","0","SATNPRO1509","27","0.37818","5"],
    [50987,"HCEP03730542","2025-03-12 09:45:00","9.1352","3.16445","25.855","5.979","7.68","0.276","6.442","0.01","0.2","29.1738","4.63517","62.62","0","SATNPRO1509","26.898","0.37674","5"],
    [50988,"HCEP03730542","2025-03-12 10:00:00","9.1469","3.18147","25.875","5.863","7.67","0.281","7.624","0.01","0.23","29.3378","4.6585","61.48","0","SATNPRO1509","27.422","0.38408","5"],
    [50989,"HCEP03730542","2025-03-12 10:15:00","9.1498","3.18966","25.845","5.715","7.66","0.255","6.339","0.01","0.27","29.4189","4.67009","59.97","0","SATNPRO1509","27.846","0.39002","5"],
    [50990,"HCEP03730542","2025-03-12 10:30:00","9.1525","3.19423","25.826","5.617","7.66","0.256","5.938","0.01","0.24","29.4633","4.67641","58.96","0","SATNPRO1509","28.104","0.39364","5"],
    [50991,"HCEP03730542","2025-03-12 10:45:00","9.1536","3.19759","25.849","5.577","7.65","0.251","6.514","0.01","0.24","29.4967","4.68118","58.55","0","SATNPRO1509","28.262","0.39586","5"],
    [50992,"HCEP03730542","2025-03-12 11:00:00","9.1542","3.20205","25.912","5.56","7.65","0.234","4.73","0","0.18","29.5417","4.68763","58.4","0","SATNPRO1509","28.55","0.3999","5"],
    [50993,"HCEP03730542","2025-03-12 11:15:00","9.1549","3.20363","25.983","5.563","7.65","0.237","5.422","0.01","0.15","29.5573","4.68985","58.43","0","SATNPRO1509","28.624000000000002","0.40092","5"],
    [50994,"HCEP03730542","2025-03-12 11:30:00","9.1565","3.20508","26.018","5.527","7.65","0.249","6.194","0.01","0.24","29.5707","4.69175","58.06","0","SATNPRO1509","28.678","0.4017","5"],
    [50995,"HCEP03730542","2025-03-12 11:45:00","9.1561","3.2084","26.099","5.511","7.65","0.239","5.874","0.01","0.24","29.605","4.69667","57.9","0","SATNPRO1509","28.918","0.40504","5"],
    [50996,"HCEP03730542","2025-03-12 12:00:00","9.149","3.21393","26.154","5.571","7.66","0.228","4.356","0.01","0.22","29.6674","4.70575","58.55","0","SATNPRO1509","29.626","0.41496","5"],
    [50997,"HCEP03730542","2025-03-12 12:15:00","9.1451","3.21615","26.291","5.702","7.66","0.223","4.766","0.01","0.19","29.6932","4.70953","59.93","0","SATNPRO1509","29.916","0.41902","5"],
    [50998,"HCEP03730542","2025-03-12 12:30:00","9.1418","3.2177","26.316","5.767","7.67","0.228","4.473","0.01","0.21","29.7118","4.71226","60.61","0","SATNPRO1509","30.21","0.42314","5"],
    [50999,"HCEP03730542","2025-03-12 12:45:00","9.1407","3.21805","26.483","5.816","7.67","0.212","3.759","0.01","0.11","29.7161","4.71291","61.13","0","SATNPRO1509","30.244","0.42364","5"],
    [51000,"HCEP03730542","2025-03-12 13:00:00","9.1409","3.21853","26.526","5.809","7.67","0.224","4.403","0.01","0.34","29.7209","4.71359","61.06","0","SATNPRO1509","30.362","0.4253","5"],
    [51001,"HCEP03730542","2025-03-12 13:15:00","9.1419","3.21865","26.621","5.827","7.67","0.225","4.808","0.01","0.23","29.7213","4.71363","61.25","0","SATNPRO1509","30.298000000000002","0.42436","5"],
    [51002,"HCEP03730542","2025-03-12 13:30:00","9.1409","3.21886","26.717","5.838","7.67","0.228","4.289","0.01","0.28","29.7242","4.71408","61.36","0","SATNPRO1509","30.47","0.42682","5"],
    [51003,"HCEP03730542","2025-03-12 13:45:00","9.1403","3.2172","26.843","5.858","7.67","0.207","3.406","0.01","0.17","29.7077","4.71174","61.57","0","SATNPRO1509","30.194","0.42292","5"],
    [51004,"HCEP03730542","2025-03-12 14:00:00","9.1408","3.21483","26.991","5.879","7.68","0.217","3.718","0.01","0.21","29.683","4.70819","61.78","0","SATNPRO1509","30.262","0.42386","5"],
    [51005,"HCEP03730542","2025-03-12 14:15:00","9.1407","3.21366","27.067","5.852","7.68","0.207","3.368","0.01","0.13","29.671","4.70648","61.49","0","SATNPRO1509","30.098","0.42156","5"],
    [51006,"HCEP03730542","2025-03-12 14:30:00","9.1422","3.21681","27.139","5.858","7.67","0.221","3.615","0.01","0.11","29.7021","4.71091","61.57","0","SATNPRO1509","30.198","0.42298","5"],
    [51007,"HCEP03730542","2025-03-12 14:45:00","9.1424","3.21656","27.229","5.827","7.67","0.216","3.648","0.01","0.13","29.6992","4.7105","61.24","0","SATNPRO1509","30.176000000000002","0.42264","5"],
    [51008,"HCEP03730542","2025-03-12 15:00:00","9.1428","3.21547","27.315","5.826","7.67","0.218","3.206","0.01","0.2","29.6878","4.70886","61.23","0","SATNPRO1509","30.298000000000002","0.42434","5"],
    [51009,"HCEP03730542","2025-03-12 15:15:00","9.1462","3.20599","27.38","5.845","7.67","0.194","1.742","0.01","0.07","29.588","4.6945","61.39","0","SATNPRO1509","29.684","0.41578","5"],
    [51010,"HCEP03730542","2025-03-12 15:30:00","9.15","3.20405","27.409","5.814","7.67","0.211","2.374","0.01","0.12","29.5651","4.69114","61.06","0","SATNPRO1509","29.308","0.41052","5"],
    [51011,"HCEP03730542","2025-03-12 15:45:00","9.1503","3.20406","27.434","5.767","7.67","0.205","2.466","0.01","0.07","29.5649","4.69111","60.57","0","SATNPRO1509","29.154","0.40834","5"],
    [51012,"HCEP03730542","2025-03-12 16:00:00","9.1503","3.20223","27.416","5.767","7.67","0.212","1.973","0.01","0.15","29.5463","4.68844","60.56","0","SATNPRO1509","29.28","0.41014","5"],
    [51013,"HCEP03730542","2025-03-12 16:15:00","9.1501","3.20262","27.383","5.795","7.67","0.201","2.222","0.01","0.08","29.5504","4.68903","60.86","0","SATNPRO1509","29.322","0.41072","5"],
    [51014,"HCEP03730542","2025-03-12 16:30:00","9.1515","3.20436","27.337","5.784","7.67","0.219","2.885","0.01","0.49","29.5671","4.6914","60.75","0","SATNPRO1509","29.122","0.40792","5"],
    [51015,"HCEP03730542","2025-03-12 16:45:00","9.1506","3.20555","27.247","5.733","7.66","0.21","2.943","0.01","0.22","29.5799","4.69325","60.22","0","SATNPRO1509","29.285999999999998","0.41018","5"],
    [51016,"HCEP03730542","2025-03-12 17:00:00","9.1489","3.20924","27.155","5.736","7.66","0.227","3.8","0.01","0.27","29.6191","4.6989","60.26","0","SATNPRO1509","29.54","0.41374","5"],
    [51017,"HCEP03730542","2025-03-12 17:15:00","9.1501","3.2143","27.068","5.728","7.66","0.257","5.837","0.02","0.21","29.6698","4.70614","60.2","0","SATNPRO1509","29.566","0.41414","5"],
    [51018,"HCEP03730542","2025-03-12 17:30:00","9.1498","3.21375","26.94","5.673","7.66","0.258","5.895","0.02","0.23","29.6645","4.70537","59.61","0","SATNPRO1509","29.41","0.41198","5"],
    [51019,"HCEP03730542","2025-03-12 17:45:00","9.15","3.21395","26.799","5.658","7.66","0.239","5.568","0.01","0.26","29.6665","4.70564","59.47","0","SATNPRO1509","29.482","0.41296","5"],
    [51020,"HCEP03730542","2025-03-12 18:00:00","9.1494","3.21482","26.657","5.653","7.66","0.256","6.286","0.01","0.3","29.6759","4.70699","59.41","0","SATNPRO1509","29.558","0.414","5"],
    [51021,"HCEP03730542","2025-03-12 18:15:00","9.1477","3.21556","26.518","5.657","7.66","0.238","5.357","0.01","0.26","29.6849","4.7083","59.45","0","SATNPRO1509","29.686","0.41578","5"],
    [51022,"HCEP03730542","2025-03-12 18:30:00","9.1466","3.21548","26.36","5.68","7.66","0.24","5.199","0.01","0.29","29.685","4.70834","59.7","0","SATNPRO1509","29.764","0.41684","5"],
    [51023,"HCEP03730542","2025-03-12 18:45:00","9.145","3.21594","26.223","5.697","7.66","0.233","4.678","0.01","0.31","29.6912","4.70924","59.88","0","SATNPRO1509","29.872","0.41842","5"],
    [51024,"HCEP03730542","2025-03-12 19:00:00","9.1446","3.21693","26.075","5.716","7.66","0.24","4.641","0.01","0.28","29.7016","4.71074","60.08","0","SATNPRO1509","29.97","0.41978","5"],
    [51025,"HCEP03730542","2025-03-12 19:15:00","9.1454","3.21674","25.932","5.703","7.66","0.245","5.085","0.02","0.31","29.6991","4.71035","59.94","0","SATNPRO1509","29.914","0.41898","5"],
    [51026,"HCEP03730542","2025-03-12 19:30:00","9.1471","3.21572","25.793","5.674","7.66","0.249","5.351","0.01","0.43","29.6873","4.70862","59.64","0","SATNPRO1509","29.804000000000002","0.41742","5"],
    [51027,"HCEP03730542","2025-03-12 19:45:00","9.1484","3.21499","25.632","5.646","7.66","0.285","4.845","0.19","0.29","29.6789","4.70738","59.34","0","SATNPRO1509","29.614","0.41476","5"],
    [51028,"HCEP03730542","2025-03-12 20:00:00","9.1491","3.21492","25.441","5.62","7.65","0.264","5.571","0.02","0.73","29.6776","4.70718","59.07","0","SATNPRO1509","29.586","0.41442","5"],
    [51029,"HCEP03730542","2025-03-12 20:15:00","9.1498","3.21458","25.253","5.598","7.65","0.25","5.217","0.01","0.35","29.6737","4.70659","58.83","0","SATNPRO1509","29.64","0.41514","5"],
    [51030,"HCEP03730542","2025-03-12 20:30:00","9.1505","3.21424","25.058","5.577","7.65","0.26","5.201","0.02","0.29","29.6697","4.70599","58.62","0","SATNPRO1509","29.468","0.41274","5"],
    [51031,"HCEP03730542","2025-03-12 20:45:00","9.1519","3.21366","24.873","5.554","7.65","0.253","5.431","0.01","0.28","29.6627","4.70496","58.37","0","SATNPRO1509","29.454","0.41256","5"],
    [51032,"HCEP03730542","2025-03-12 21:00:00","9.1521","3.21335","24.751","5.531","7.65","0.257","5.409","0.02","0.34","29.6594","4.70447","58.13","0","SATNPRO1509","29.37","0.4114","5"],
    [51033,"HCEP03730542","2025-03-12 21:15:00","9.1521","3.21326","24.62","5.517","7.65","0.259","5.42","0.02","0.37","29.6585","4.70433","57.98","0","SATNPRO1509","29.264","0.40988","5"],
    [51034,"HCEP03730542","2025-03-12 21:30:00","9.1533","3.21136","24.54","5.513","7.65","0.26","4.811","0.04","0.22","29.6382","4.70139","57.93","0","SATNPRO1509","29.756","0.41676","5"],
    [51035,"HCEP03730542","2025-03-12 21:45:00","9.1542","3.21057","24.462","5.507","7.65","0.254","5.029","0.02","0.35","29.6294","4.70011","57.87","0","SATNPRO1509","29.052","0.40692","5"],
    [51036,"HCEP03730542","2025-03-12 22:00:00","9.1537","3.2113","24.443","5.499","7.65","0.258","4.614","0.01","0.34","29.6373","4.70125","57.78","0","SATNPRO1509","29.162","0.40844","5"],
    [51037,"HCEP03730542","2025-03-12 22:15:00","9.1528","3.2125","24.463","5.499","7.65","0.242","4.925","0.01","1.04","29.6503","4.70313","57.78","0","SATNPRO1509","29.396","0.41174","5"],
    [51038,"HCEP03730542","2025-03-12 22:30:00","9.1529","3.21202","24.479","5.503","7.65","0.257","5.235","0.01","0.37","29.6453","4.70242","57.83","0","SATNPRO1509","29.274","0.41004","5"],
    [51039,"HCEP03730542","2025-03-12 22:45:00","9.1534","3.21123","24.539","5.503","7.65","0.246","4.759","0.01","0.28","29.6368","4.70119","57.83","0","SATNPRO1509","29.092","0.40746","5"],
    [51040,"HCEP03730542","2025-03-12 23:00:00","9.1538","3.2119","24.578","5.491","7.64","0.256","4.806","0.02","0.27","29.6433","4.70212","57.71","0","SATNPRO1509","29.118","0.40788","5"],
    [51041,"HCEP03730542","2025-03-12 23:15:00","9.1544","3.21104","24.696","5.471","7.64","0.257","5.27","0.01","0.33","29.6339","4.70076","57.49","0","SATNPRO1509","28.974","0.40582","5"],
    [51042,"HCEP03730542","2025-03-12 23:30:00","9.155","3.20905","24.839","5.456","7.64","0.248","3.792","0.01","0.21","29.613","4.69777","57.33","0","SATNPRO1509","28.721999999999998","0.40224","5"],
    [51043,"HCEP03730542","2025-03-12 23:45:00","9.155","3.20827","25","5.457","7.64","0.245","3.885","0.02","0.21","29.605","4.69663","57.34","0","SATNPRO1509","28.842","0.40398","5"],
    [51044,"HCEP03730542","2025-03-13 00:00:00","9.1533","3.21359","25.204","5.478","7.64","0.268","6.097","0.01","0.2","29.6607","4.70466","57.57","0","SATNPRO1509","29.17","0.40856","5"],
    [51045,"HCEP03730542","2025-03-13 00:15:00","9.1537","3.21236","25.355","5.474","7.64","0.241","4.485","0.01","0.31","29.6477","4.7028","57.52","0","SATNPRO1509","29.222","0.4093","5"],
    [51046,"HCEP03730542","2025-03-13 00:30:00","9.1555","3.20676","25.507","5.468","7.64","0.242","3.788","0.01","0.14","29.589","4.69435","57.44","0","SATNPRO1509","28.678","0.40172","5"],
    [51047,"HCEP03730542","2025-03-13 00:45:00","9.1557","3.2078","25.684","5.469","7.64","0.24","4.106","0.01","0.15","29.5993","4.69584","57.46","0","SATNPRO1509","28.836","0.40392","5"],
    [51048,"HCEP03730542","2025-03-13 01:00:00","9.1557","3.20817","25.873","5.469","7.64","0.242","3.856","0.01","0.09","29.603","4.69639","57.46","0","SATNPRO1509","28.73","0.40238","5"],
    [51049,"HCEP03730542","2025-03-13 01:15:00","9.1566","3.20555","26.073","5.453","7.64","0.255","4.888","0.01","0.12","29.5755","4.69243","57.28","0","SATNPRO1509","28.498","0.39914","5"],
    [51050,"HCEP03730542","2025-03-13 01:30:00","9.1587","3.19453","26.231","5.411","7.64","0.252","3.741","0.02","0.2","29.4613","4.67602","56.8","0","SATNPRO1509","27.756","0.38878","5"],
    [51051,"HCEP03730542","2025-03-13 01:45:00","9.1595","3.19503","26.464","5.416","7.64","0.24","3.521","0.01","0.11","29.4656","4.67664","56.85","0","SATNPRO1509","27.61","0.38672","5"],
    [51052,"HCEP03730542","2025-03-13 02:00:00","9.1606","3.19594","26.607","5.38","7.64","0.246","3.572","0.01","0.17","29.4738","4.67781","56.49","0","SATNPRO1509","27.04","0.37874","5"],
    [51053,"HCEP03730542","2025-03-13 02:15:00","9.157","3.20079","26.793","5.393","7.64","0.251","4.667","0.01","0.16","29.5263","4.68541","56.63","0","SATNPRO1509","28.064","0.39308","5"],
    [51054,"HCEP03730542","2025-03-13 02:30:00","9.1599","3.19403","27.017","5.411","7.64","0.248","3.948","0.01","0.12","29.4547","4.67511","56.81","0","SATNPRO1509","27.57","0.3862","5"],
    [51055,"HCEP03730542","2025-03-13 02:45:00","9.1574","3.19757","27.17","5.419","7.64","0.237","3.667","0.01","0.14","29.4929","4.68064","56.9","0","SATNPRO1509","28.118000000000002","0.39378","5"],
    [51056,"HCEP03730542","2025-03-13 03:00:00","9.1582","3.20886","27.323","5.404","7.64","0.266","5.627","0.01","0.18","29.6075","4.69706","56.79","0","SATNPRO1509","28.57","0.40018","5"],
    [51057,"HCEP03730542","2025-03-13 03:15:00","9.1572","3.21316","27.463","5.34","7.63","0.259","6.417","0.01","0.13","29.6521","4.70349","56.13","0","SATNPRO1509","28.766","0.4029","5"],
    [51058,"HCEP03730542","2025-03-13 03:30:00","9.1574","3.21068","27.507","5.361","7.63","0.273","6.254","0.01","0.43","29.6266","4.69982","56.33","0","SATNPRO1509","28.689999999999998","0.40184","5"],
    [51059,"HCEP03730542","2025-03-13 03:45:00","9.1579","3.21076","27.672","5.354","7.63","0.26","6.281","0.01","0.14","29.6269","4.69988","56.26","0","SATNPRO1509","28.686","0.4018","5"],
    [51060,"HCEP03730542","2025-03-13 04:00:00","9.1581","3.21032","27.698","5.348","7.63","0.272","6.456","0.01","0.19","29.6223","4.69921","56.2","0","SATNPRO1509","28.552","0.39994","5"],
    [51061,"HCEP03730542","2025-03-13 04:15:00","9.1565","3.21059","27.766","5.366","7.64","0.267","6.681","0.01","0.15","29.6263","4.69982","56.38","0","SATNPRO1509","28.846","0.40404","5"],
    [51062,"HCEP03730542","2025-03-13 04:30:00","9.1552","3.21016","27.762","5.413","7.64","0.264","6.496","0.01","0.14","29.623","4.69938","56.88","0","SATNPRO1509","28.754","0.40276","5"],
    [51063,"HCEP03730542","2025-03-13 04:45:00","9.1547","3.2098","27.798","5.457","7.64","0.248","5.751","0.01","0.15","29.6197","4.69891","57.34","0","SATNPRO1509","28.966","0.40568","5"],
    [51064,"HCEP03730542","2025-03-13 05:00:00","9.1545","3.20863","27.756","5.487","7.64","0.259","6.216","0.01","0.41","29.608","4.69723","57.65","0","SATNPRO1509","28.894","0.40474","5"],
    [51065,"HCEP03730542","2025-03-13 05:15:00","9.1542","3.20742","27.76","5.521","7.65","0.25","6.147","0.01","0.24","29.5959","4.6955","58.01","0","SATNPRO1509","28.862000000000002","0.40426","5"],
    [51066,"HCEP03730542","2025-03-13 05:30:00","9.1563","3.20731","27.756","5.511","7.65","0.264","7.515","0.02","1.77","29.593","4.69505","57.9","0","SATNPRO1509","28.73","0.40244","5"],
    [51067,"HCEP03730542","2025-03-13 05:45:00","9.1558","3.20799","27.759","5.504","7.65","0.251","6.492","0.02","0.6","29.6003","4.69611","57.83","0","SATNPRO1509","28.964","0.4057","5"],
    [51068,"HCEP03730542","2025-03-13 06:00:00","9.1549","3.20778","27.634","5.559","7.65","0.254","5.962","0.01","0.46","29.599","4.69594","58.41","0","SATNPRO1509","29.088","0.40744","5"],
    [51069,"HCEP03730542","2025-03-13 06:15:00","9.1546","3.20785","27.591","5.583","7.65","0.248","6.182","0.01","0.8","29.6","4.69607","58.65","0","SATNPRO1509","29.122","0.40792","5"],
    [51070,"HCEP03730542","2025-03-13 06:30:00","9.1546","3.20708","27.52","5.588","7.65","0.26","6.595","0.02","1.08","29.5921","4.69494","58.7","0","SATNPRO1509","29.146","0.40826","5"],
    [51071,"HCEP03730542","2025-03-13 06:45:00","9.1537","3.2071","27.392","5.597","7.65","0.25","5.622","0.02","0.25","29.5932","4.6951","58.8","0","SATNPRO1509","29.126","0.40794","5"],
    [51072,"HCEP03730542","2025-03-13 07:00:00","9.1527","3.20875","27.221","5.616","7.66","0.255","5.602","0.02","0.17","29.6109","4.69765","59","0","SATNPRO1509","29.282","0.41016","5"],
    [51073,"HCEP03730542","2025-03-13 07:15:00","9.152","3.20752","27.153","5.623","7.66","0.247","5.393","0.01","0.28","29.5989","4.69594","59.07","0","SATNPRO1509","29.33","0.41082","5"],
    [51074,"HCEP03730542","2025-03-13 07:30:00","9.1519","3.20662","27.027","5.625","7.66","0.258","5.401","0.01","0.36","29.5898","4.69463","59.09","0","SATNPRO1509","29.163999999999998","0.40848","5"],
    [51075,"HCEP03730542","2025-03-13 07:45:00","9.1513","3.20836","26.93","5.636","7.66","0.263","5.068","0.02","0.2","29.6082","4.69727","59.22","0","SATNPRO1509","29.342","0.411","5"],
    [51076,"HCEP03730542","2025-03-13 08:00:00","9.1508","3.20777","26.808","5.64","7.66","0.247","4.654","0.01","0.12","29.6026","4.69648","59.25","0","SATNPRO1509","29.274","0.41008","5"],
    [51077,"HCEP03730542","2025-03-13 08:15:00","9.1509","3.20898","26.667","5.644","7.66","0.259","5.604","0.02","0.32","29.615","4.69823","59.3","0","SATNPRO1509","29.304","0.41048","5"],
    [51078,"HCEP03730542","2025-03-13 08:30:00","9.1498","3.20928","26.512","5.655","7.66","0.254","5.19","0.01","0.2","29.619","4.69883","59.41","0","SATNPRO1509","29.406","0.4119","5"],
    [51079,"HCEP03730542","2025-03-13 08:45:00","9.1487","3.21081","26.356","5.662","7.66","0.331","5.447","0.02","0.22","29.6356","4.70122","59.5","0","SATNPRO1509","29.504","0.4133","5"],
    [51080,"HCEP03730542","2025-03-13 09:00:00","9.147","3.21113","26.219","5.68","7.66","0.253","5.527","0.02","0.96","29.6403","4.70192","59.68","0","SATNPRO1509","29.626","0.41496","5"],
    [51081,"HCEP03730542","2025-03-13 09:15:00","9.1424","3.2084","26.046","5.712","7.66","0.319","4.232","0.04","0.86","29.6164","4.69856","60","0","SATNPRO1509","29.52","0.41346","5"],
    [51082,"HCEP03730542","2025-03-13 09:30:00","9.1423","3.20751","25.923","5.772","7.67","0.291","3.275","0.05","0.44","29.6074","4.69726","60.63","0","SATNPRO1509","29.662","0.41544","5"],
    [51083,"HCEP03730542","2025-03-13 09:45:00","9.1398","3.20855","25.808","5.765","7.67","0.25","11.299","0.02","1","29.6201","4.69913","60.55","0","SATNPRO1509","29.69","0.41586","5"],
    [51084,"HCEP03730542","2025-03-13 10:00:00","9.1396","3.20897","25.711","5.784","7.67","0.226","4.293","0.01","0.86","29.6247","4.69979","60.76","0","SATNPRO1509","29.772000000000002","0.417","5"],
    [51085,"HCEP03730542","2025-03-13 10:15:00","9.1409","3.21055","25.635","5.749","7.67","0.584","9.518","0.1","0.76","29.6397","4.70191","60.4","0","SATNPRO1509","29.724","0.4163","5"],
    [51086,"HCEP03730542","2025-03-13 10:30:00","9.1393","3.21062","25.588","5.752","7.67","0.795","8.701","0.35","2.58","29.6418","4.70224","60.43","0","SATNPRO1509","29.724","0.41636","5"],
    [51087,"HCEP03730542","2025-03-13 10:45:00","9.1413","3.21169","25.582","5.743","7.66","0.228","5.864","0.01","0.86","29.6511","4.70353","60.34","0","SATNPRO1509","29.774","0.41704","5"],
    [51088,"HCEP03730542","2025-03-13 11:00:00","9.1397","3.21253","25.561","5.73","7.66","0.231","3.914","0","0.18","29.661","4.70498","60.21","0","SATNPRO1509","29.86","0.41828","5"],
    [51089,"HCEP03730542","2025-03-13 11:15:00","9.1408","3.21371","25.607","5.73","7.66","0.587","9.535","0.1","1.12","29.6721","4.70654","60.21","0","SATNPRO1509","29.798","0.41736","5"],
    [51090,"HCEP03730542","2025-03-13 11:30:00","9.1392","3.21488","25.663","5.735","7.66","0.469","7.214","0.04","0.83","29.6854","4.70849","60.26","0","SATNPRO1509","29.954","0.41956","5"],
    [51091,"HCEP03730542","2025-03-13 11:45:00","9.1397","3.21546","25.73","5.751","7.66","0.473","4.484","0.04","0.24","29.6909","4.70927","60.43","0","SATNPRO1509","30.1","0.4216","5"],
    [51092,"HCEP03730542","2025-03-13 12:00:00","9.1371","3.21822","25.8","5.759","7.67","0.277","16.231","0.02","0.67","29.7213","4.71367","60.53","0","SATNPRO1509","30.330000000000002","0.42482","5"],
    [51093,"HCEP03730542","2025-03-13 12:15:00","9.1346","3.21938","25.856","5.784","7.67","0.437","9.189","0.03","1.21","29.7351","4.71572","60.79","0","SATNPRO1509","30.422","0.42606","5"],
    [51094,"HCEP03730542","2025-03-13 12:30:00","9.1325","3.22005","25.954","5.797","7.67","0.405","10.78","0.05","1.21","29.7437","4.71699","60.94","0","SATNPRO1509","30.586","0.4284","5"],
    [51095,"HCEP03730542","2025-03-13 12:45:00","9.1306","3.22046","26.041","5.799","7.67","0.396","9.105","0.05","1.46","29.7494","4.71784","60.95","0","SATNPRO1509","30.528","0.42758","5"],
    [51096,"HCEP03730542","2025-03-13 13:00:00","9.1306","3.22042","26.145","5.801","7.67","0.429","6.733","0.03","1.46","29.749","4.71779","60.97","0","SATNPRO1509","30.578","0.42828","5"],
    [51097,"HCEP03730542","2025-03-13 13:15:00","9.13","3.22047","26.246","5.807","7.67","0.388","5.306","0.05","0.32","29.7499","4.71794","61.03","0","SATNPRO1509","30.482","0.42696","5"],
    [51098,"HCEP03730542","2025-03-13 13:30:00","9.1292","3.22035","26.323","5.813","7.67","0.479","5.474","0.04","0.48","29.7493","4.71788","61.09","0","SATNPRO1509","30.534","0.42768","5"],
    [51099,"HCEP03730542","2025-03-13 13:45:00","9.1284","3.22023","26.468","5.826","7.67","0.343","4.743","0.05","0.29","29.7488","4.71782","61.23","0","SATNPRO1509","30.55","0.4279","5"],
    [51100,"HCEP03730542","2025-03-13 14:00:00","9.1284","3.21972","26.506","5.825","7.67","0.251","11.181","0.01","1.36","29.7436","4.71708","61.22","0","SATNPRO1509","30.534","0.42768","5"],
    [51101,"HCEP03730542","2025-03-13 14:15:00","9.1299","3.21868","26.706","5.836","7.67","0.36","5.001","0.02","0.23","29.7316","4.71534","61.33","0","SATNPRO1509","30.498","0.4272","5"],
    [51102,"HCEP03730542","2025-03-13 14:30:00","9.1314","3.21779","26.842","5.841","7.67","0.488","6.804","0.02","0.68","29.7211","4.71382","61.38","0","SATNPRO1509","30.32","0.42472","5"],
    [51103,"HCEP03730542","2025-03-13 14:45:00","9.1317","3.21792","26.963","5.84","7.67","0.535","5.971","0.02","0.42","29.7222","4.71397","61.37","0","SATNPRO1509","30.298000000000002","0.42438","5"],
    [51104,"HCEP03730542","2025-03-13 15:00:00","9.1302","3.21885","27.045","5.835","7.67","0.253","8.256","0.02","0.66","29.7329","4.71555","61.33","0","SATNPRO1509","30.42","0.42612","5"],
    [51105,"HCEP03730542","2025-03-13 15:15:00","9.1295","3.21999","27.14","5.833","7.67","0.287","7.698","0.04","1.54","29.7451","4.71732","61.3","0","SATNPRO1509","30.4","0.42578","5"],
    [51106,"HCEP03730542","2025-03-13 15:30:00","9.1288","3.22057","27.2","5.808","7.67","0.247","5.891","0.01","0.32","29.7515","4.71825","61.04","0","SATNPRO1509","30.434","0.42628","5"],
    [51107,"HCEP03730542","2025-03-13 15:45:00","9.1285","3.22091","27.284","5.802","7.67","0.236","5.385","0.01","0.33","29.7553","4.7188","60.98","0","SATNPRO1509","30.47","0.42678","5"],
    [51108,"HCEP03730542","2025-03-13 16:00:00","9.1285","3.22136","27.35","5.795","7.67","0.294","6.668","0.02","0.43","29.7598","4.71945","60.91","0","SATNPRO1509","30.586000000000002","0.42842","5"],
    [51109,"HCEP03730542","2025-03-13 16:15:00","9.1273","3.22175","27.421","5.774","7.67","0.291","7.182","0.04","1.68","29.7649","4.7202","60.69","0","SATNPRO1509","30.572","0.4282","5"],
    [51110,"HCEP03730542","2025-03-13 16:30:00","9.127","3.22178","27.466","5.782","7.67","0.659","7.37","0.41","1.54","29.7654","4.72028","60.77","0","SATNPRO1509","30.61","0.42876","5"],
    [51111,"HCEP03730542","2025-03-13 16:45:00","9.127","3.22125","27.505","5.781","7.67","0.273","8.97","0.02","0.55","29.76","4.71951","60.76","0","SATNPRO1509","30.593999999999998","0.42848","5"],
    [51112,"HCEP03730542","2025-03-13 17:00:00","9.126","3.22085","27.469","5.78","7.67","0.253","4.562","0.03","0.4","29.7566","4.71904","60.75","0","SATNPRO1509","30.6","0.42862","5"],
    [51113,"HCEP03730542","2025-03-13 17:15:00","9.1262","3.2206","27.418","5.792","7.67","0.262","8.02","0.03","0.71","29.754","4.71867","60.88","0","SATNPRO1509","30.664","0.42952","5"],
    [51114,"HCEP03730542","2025-03-13 17:30:00","9.1268","3.22036","27.358","5.797","7.67","0.27","5.967","0.04","1.41","29.751","4.71822","60.92","0","SATNPRO1509","30.62","0.4289","5"],
    [51115,"HCEP03730542","2025-03-13 17:45:00","9.1264","3.2202","27.278","5.801","7.67","0.234","4.263","0.03","0.33","29.7498","4.71805","60.97","0","SATNPRO1509","30.554","0.428","5"],
    [51116,"HCEP03730542","2025-03-13 18:00:00","9.126","3.21988","27.177","5.804","7.67","0.249","4.41","0.03","0.69","29.7469","4.71764","61","0","SATNPRO1509","30.678","0.4297","5"],
    [51117,"HCEP03730542","2025-03-13 18:15:00","9.1265","3.22001","27.095","5.807","7.67","0.245","4.664","0.03","0.53","29.7478","4.71775","61.03","0","SATNPRO1509","30.414","0.42598","5"],
    [51118,"HCEP03730542","2025-03-13 18:30:00","9.1268","3.21911","26.909","5.796","7.67","0.24","4.086","0.01","0.24","29.7385","4.7164","60.91","0","SATNPRO1509","30.486","0.427","5"],
    [51119,"HCEP03730542","2025-03-13 18:45:00","9.1272","3.21878","26.738","5.807","7.67","0.217","3.624","0.01","0.13","29.7348","4.71586","61.02","0","SATNPRO1509","30.534","0.42766","5"],
    [51120,"HCEP03730542","2025-03-13 19:00:00","9.1276","3.21788","26.581","5.81","7.67","0.223","3.515","0.01","0.09","29.7254","4.71449","61.05","0","SATNPRO1509","30.47","0.4268","5"],
    [51121,"HCEP03730542","2025-03-13 19:15:00","9.1273","3.21893","26.428","5.81","7.67","0.236","3.904","0.03","0.28","29.7363","4.71605","61.06","0","SATNPRO1509","30.46","0.42664","5"],
    [51122,"HCEP03730542","2025-03-13 19:30:00","9.1276","3.21919","26.278","5.801","7.67","0.248","4.559","0.01","0.44","29.7389","4.71641","60.97","0","SATNPRO1509","30.438","0.4263","5"],
    [51123,"HCEP03730542","2025-03-13 19:45:00","9.1265","3.21972","26.101","5.794","7.67","0.225","3.686","0.01","0.17","29.7453","4.71733","60.89","0","SATNPRO1509","30.486","0.42698","5"],
    [51124,"HCEP03730542","2025-03-13 20:00:00","9.1262","3.21956","25.95","5.798","7.67","0.232","3.769","0.01","0.2","29.744","4.71714","60.93","0","SATNPRO1509","30.648","0.42928","5"],
    [51125,"HCEP03730542","2025-03-13 20:15:00","9.1269","3.22025","25.799","5.792","7.67","0.245","5.148","0.02","0.56","29.7505","4.71805","60.87","0","SATNPRO1509","30.416","0.42604","5"],
    [51126,"HCEP03730542","2025-03-13 20:30:00","9.1263","3.22058","25.615","5.76","7.66","0.257","5.488","0.01","0.33","29.7544","4.71862","60.54","0","SATNPRO1509","30.29","0.42424","5"],
    [51127,"HCEP03730542","2025-03-13 20:45:00","9.127","3.22073","25.422","5.75","7.66","0.239","4.847","0.01","0.31","29.7555","4.71875","60.43","0","SATNPRO1509","30.404","0.42586","5"],
    [51128,"HCEP03730542","2025-03-13 21:00:00","9.1281","3.22059","25.233","5.718","7.66","1.775","37.874","1.26","26.15","29.7532","4.71839","60.1","0","SATNPRO1509","30.498","0.42716","5"],
    [51129,"HCEP03730542","2025-03-13 21:15:00","9.1298","3.22011","25.039","5.715","7.66","0.247","4.802","0.02","0.4","29.747","4.71745","60.07","0","SATNPRO1509","30.291999999999998","0.42434","5"],
    [51130,"HCEP03730542","2025-03-13 21:30:00","9.1309","3.21999","24.806","5.73","7.66","0.262","4.989","0.02","0.67","29.7449","4.71712","60.22","0","SATNPRO1509","30.39","0.42566","5"],
    [51131,"HCEP03730542","2025-03-13 21:45:00","9.1337","3.21864","24.655","5.713","7.66","0.239","4.841","0.01","0.23","29.7288","4.71475","60.05","0","SATNPRO1509","30.298","0.42434","5"],
    [51132,"HCEP03730542","2025-03-13 22:00:00","9.132","3.2198","24.564","5.698","7.66","0.27","5.465","0.04","0.8","29.7422","4.71669","59.89","0","SATNPRO1509","30.288","0.42422","5"],
    [51133,"HCEP03730542","2025-03-13 22:15:00","9.1343","3.21921","24.527","5.669","7.66","0.284","5.609","0.07","1.65","29.7342","4.7155","59.58","0","SATNPRO1509","30.142","0.42216","5"],
    [51134,"HCEP03730542","2025-03-13 22:30:00","9.1358","3.21907","24.518","5.646","7.66","0.26","5.114","0.05","0.27","29.7315","4.71509","59.34","0","SATNPRO1509","30.002","0.4202","5"],
    [51135,"HCEP03730542","2025-03-13 22:45:00","9.1377","3.21884","24.574","5.62","7.65","0.249","5.173","0.02","0.65","29.7276","4.7145","59.07","0","SATNPRO1509","30.104","0.4217","5"],
    [51136,"HCEP03730542","2025-03-13 23:00:00","9.1393","3.21829","24.585","5.601","7.65","0.293","5.726","0.05","0.94","29.7206","4.71346","58.87","0","SATNPRO1509","29.919999999999998","0.4191","5"],
    [51137,"HCEP03730542","2025-03-13 23:15:00","9.1398","3.21852","24.647","5.584","7.65","0.321","6.714","0.06","1.71","29.7226","4.71374","58.69","0","SATNPRO1509","29.904","0.4189","5"],
    [51138,"HCEP03730542","2025-03-13 23:30:00","9.1413","3.21769","24.725","5.575","7.65","0.283","5.331","0.04","1.07","29.7127","4.71231","58.6","0","SATNPRO1509","29.886","0.41862","5"],
    [51139,"HCEP03730542","2025-03-13 23:45:00","9.1415","3.21779","24.839","5.568","7.65","0.292","5.939","0.04","1.36","29.7135","4.71242","58.52","0","SATNPRO1509","29.900000000000002","0.41878","5"],
    [51140,"HCEP03730542","2025-03-14 00:00:00","9.1422","3.21729","24.942","5.567","7.65","0.299","5.623","0.03","1.48","29.7078","4.7116","58.51","0","SATNPRO1509","29.726","0.41636","5"],
    [51141,"HCEP03730542","2025-03-14 00:15:00","9.1429","3.21688","25.06","5.567","7.65","0.26","4.401","0.04","0.83","29.703","4.71091","58.51","0","SATNPRO1509","29.644000000000002","0.41522","5"],
    [51142,"HCEP03730542","2025-03-14 00:30:00","9.1433","3.2168","25.232","5.562","7.65","0.253","4.324","0.03","0.29","29.7018","4.71074","58.46","0","SATNPRO1509","29.814","0.4176","5"],
    [51143,"HCEP03730542","2025-03-14 00:45:00","9.1432","3.21758","25.385","5.555","7.65","0.278","5.431","0.04","0.21","29.7098","4.7119","58.39","0","SATNPRO1509","29.741999999999997","0.41662","5"],
    [51144,"HCEP03730542","2025-03-14 01:00:00","9.143","3.21714","25.571","5.545","7.65","0.273","4.528","0.04","0.19","29.7053","4.71126","58.28","0","SATNPRO1509","29.812","0.41758","5"],
    [51145,"HCEP03730542","2025-03-14 01:15:00","9.1429","3.21681","25.782","5.566","7.65","0.249","4.038","0.03","0.16","29.702","4.71081","58.5","0","SATNPRO1509","29.872","0.41842","5"],
    [51146,"HCEP03730542","2025-03-14 01:30:00","9.1429","3.21675","25.937","5.572","7.65","0.261","4.252","0.03","0.64","29.7013","4.71072","58.56","0","SATNPRO1509","29.814","0.41762","5"],
    [51147,"HCEP03730542","2025-03-14 01:45:00","9.1424","3.21657","26.1","5.574","7.65","0.268","4.126","0.04","0.33","29.6998","4.71051","58.58","0","SATNPRO1509","29.852","0.41814","5"],
    [51148,"HCEP03730542","2025-03-14 02:00:00","9.1419","3.2172","26.26","5.573","7.65","0.249","4.162","0.02","0.13","29.7067","4.71152","58.58","0","SATNPRO1509","29.932","0.41926","5"],
    [51149,"HCEP03730542","2025-03-14 02:15:00","9.1425","3.21678","26.454","5.572","7.65","0.235","3.88","0.01","0.1","29.7017","4.71081","58.56","0","SATNPRO1509","29.872","0.41842","5"],
    [51150,"HCEP03730542","2025-03-14 02:30:00","9.1433","3.21611","26.62","5.575","7.65","0.257","3.957","0.04","0.52","29.6942","4.70972","58.59","0","SATNPRO1509","29.798","0.41742","5"],
    [51151,"HCEP03730542","2025-03-14 02:45:00","9.143","3.21684","26.756","5.57","7.65","0.238","4.111","0.01","0.2","29.7019","4.71084","58.54","0","SATNPRO1509","29.854","0.41818","5"],
    [51152,"HCEP03730542","2025-03-14 03:00:00","9.1434","3.21715","26.973","5.559","7.65","0.254","4.548","0.02","0.21","29.7046","4.71124","58.43","0","SATNPRO1509","29.858","0.41822","5"],
    [51153,"HCEP03730542","2025-03-14 03:15:00","9.1434","3.21651","27.125","5.56","7.65","0.251","3.985","0.03","0.14","29.698","4.7103","58.44","0","SATNPRO1509","29.878","0.4185","5"],
    [51154,"HCEP03730542","2025-03-14 03:30:00","9.1429","3.21688","27.306","5.551","7.65","0.267","5.091","0.03","0.26","29.7021","4.71091","58.34","0","SATNPRO1509","29.822","0.41774","5"],
    [51155,"HCEP03730542","2025-03-14 03:45:00","9.1413","3.21778","27.438","5.543","7.65","0.24","4.504","0.01","0.13","29.7125","4.71244","58.26","0","SATNPRO1509","29.887999999999998","0.4186","5"],
    [51156,"HCEP03730542","2025-03-14 04:00:00","9.1416","3.21857","27.595","5.533","7.65","0.267","5.685","0.02","0.68","29.7203","4.71355","58.15","0","SATNPRO1509","29.704","0.41604","5"],
    [51157,"HCEP03730542","2025-03-14 04:15:00","9.1404","3.21857","27.651","5.5","7.65","0.302","6.144","0.04","0.62","29.7213","4.71372","57.81","0","SATNPRO1509","29.792","0.4173","5"],
    [51158,"HCEP03730542","2025-03-14 04:30:00","9.1396","3.21865","27.755","5.509","7.65","0.317","6.286","0.05","0.99","29.7227","4.71396","57.91","0","SATNPRO1509","29.696","0.41594","5"],
    [51159,"HCEP03730542","2025-03-14 04:45:00","9.1393","3.2179","27.782","5.522","7.65","0.318","5.982","0.04","0.45","29.7153","4.7129","58.03","0","SATNPRO1509","29.727999999999998","0.41638","5"],
    [51160,"HCEP03730542","2025-03-14 05:00:00","9.139","3.21771","27.877","5.537","7.65","0.312","7.146","0.04","0.98","29.7135","4.71265","58.19","0","SATNPRO1509","29.766000000000002","0.4169","5"],
    [51161,"HCEP03730542","2025-03-14 05:15:00","9.1388","3.21645","27.859","5.544","7.65","0.304","6.938","0.04","1.29","29.7008","4.71084","58.26","0","SATNPRO1509","29.748","0.41668","5"],
    [51162,"HCEP03730542","2025-03-14 05:30:00","9.1377","3.21481","27.832","5.57","7.65","0.343","7.017","0.05","1.31","29.6851","4.70859","58.53","0","SATNPRO1509","29.694","0.41594","5"],
    [51163,"HCEP03730542","2025-03-14 05:45:00","9.1375","3.21448","27.814","5.604","7.65","0.294","6.795","0.02","0.59","29.6819","4.70814","58.88","0","SATNPRO1509","29.752","0.41672","5"],
    [51164,"HCEP03730542","2025-03-14 06:00:00","9.1375","3.21505","27.73","5.611","7.65","0.322","6.719","0.05","0.83","29.6877","4.70898","58.96","0","SATNPRO1509","29.794","0.41732","5"],
    [51165,"HCEP03730542","2025-03-14 06:15:00","9.1369","3.21557","27.606","5.621","7.65","0.303","6.562","0.04","0.6","29.6936","4.70982","59.07","0","SATNPRO1509","29.704","0.41604","5"],
    [51166,"HCEP03730542","2025-03-14 06:30:00","9.1364","3.21558","27.542","5.627","7.65","0.289","6.709","0.02","0.87","29.6941","4.7099","59.13","0","SATNPRO1509","29.902","0.4188","5"],
    [51167,"HCEP03730542","2025-03-14 06:45:00","9.1356","3.21585","27.44","5.642","7.65","0.291","6.177","0.03","0.54","29.6976","4.71041","59.28","0","SATNPRO1509","29.73","0.41646","5"],
    [51168,"HCEP03730542","2025-03-14 07:00:00","9.1354","3.21653","27.322","5.658","7.65","0.284","6.111","0.02","0.45","29.7047","4.71143","59.45","0","SATNPRO1509","30.016000000000002","0.42044","5"],
    [51169,"HCEP03730542","2025-03-14 07:15:00","9.1354","3.21706","27.202","5.648","7.65","0.28","6.637","0.04","1.01","29.7101","4.7122","59.35","0","SATNPRO1509","29.924","0.41916","5"],
    [51170,"HCEP03730542","2025-03-14 07:30:00","9.1349","3.2174","27.082","5.638","7.65","0.304","6.718","0.04","0.6","29.7141","4.71277","59.26","0","SATNPRO1509","29.942","0.41934","5"],
    [51171,"HCEP03730542","2025-03-14 07:45:00","9.1346","3.21783","26.939","5.617","7.65","0.305","9.234","0.03","0.6","29.7188","4.71344","59.04","0","SATNPRO1509","29.92","0.4191","5"],
    [51172,"HCEP03730542","2025-03-14 08:00:00","9.1342","3.21823","26.796","5.61","7.65","0.284","6.971","0.03","0.46","29.7234","4.71409","58.96","0","SATNPRO1509","29.983999999999998","0.42","5"],
    [51173,"HCEP03730542","2025-03-14 08:15:00","9.1332","3.21839","26.617","5.603","7.65","0.302","10.172","0.08","7.96","29.7258","4.71445","58.88","0","SATNPRO1509","29.976","0.41986","5"],
    [51174,"HCEP03730542","2025-03-14 08:30:00","9.1333","3.2174","26.474","5.622","7.65","0.265","4.755","0.01","0.27","29.7157","4.71299","59.08","0","SATNPRO1509","30.144","0.42222","5"],
    [51175,"HCEP03730542","2025-03-14 08:45:00","9.1342","3.2172","26.315","5.65","7.65","0.266","5.267","0.02","0.5","29.713","4.71257","59.37","0","SATNPRO1509","30.016","0.42042","5"],
    [51176,"HCEP03730542","2025-03-14 09:00:00","9.1343","3.21712","26.143","5.634","7.65","0.361","5.515","0.05","0.5","29.7122","4.71245","59.21","0","SATNPRO1509","30.122","0.42188","5"],
    [51177,"HCEP03730542","2025-03-14 09:15:00","9.1342","3.21694","25.97","5.636","7.65","0.253","6.942","0.02","0.84","29.7105","4.71219","59.23","0","SATNPRO1509","29.938","0.41936","5"],
    [51178,"HCEP03730542","2025-03-14 09:30:00","9.1361","3.21566","25.788","5.638","7.65","0.425","5.774","0.08","2","29.6959","4.71006","59.24","0","SATNPRO1509","29.918","0.41904","5"],
    [51179,"HCEP03730542","2025-03-14 09:45:00","9.1342","3.21644","25.665","5.647","7.66","0.435","5.468","0.04","0.85","29.7056","4.71147","59.34","0","SATNPRO1509","30.124","0.42192","5"],
    [51180,"HCEP03730542","2025-03-14 10:00:00","9.1336","3.21676","25.541","5.653","7.66","0.276","5.048","0.04","0.73","29.7094","4.71202","59.41","0","SATNPRO1509","30.162","0.42246","5"],
    [51181,"HCEP03730542","2025-03-14 10:15:00","9.1342","3.21603","25.449","5.652","7.66","0.456","4.948","0.03","0.43","29.7014","4.71086","59.39","0","SATNPRO1509","30.086000000000002","0.42138","5"],
    [51182,"HCEP03730542","2025-03-14 10:30:00","9.1342","3.21728","25.362","5.648","7.65","0.407","8.973","0.08","1.22","29.7143","4.7127","59.35","0","SATNPRO1509","29.938","0.41932","5"],
    [51183,"HCEP03730542","2025-03-14 10:45:00","9.1333","3.21756","25.294","5.64","7.65","0.456","10.563","0.14","2.17","29.7178","4.71322","59.27","0","SATNPRO1509","30.006","0.4203","5"],
    [51184,"HCEP03730542","2025-03-14 11:00:00","9.1341","3.21773","25.295","5.617","7.65","0.361","6.281","0.2","0.83","29.7189","4.71337","59.03","0","SATNPRO1509","30.012","0.42036","5"],
    [51185,"HCEP03730542","2025-03-14 11:15:00","9.1334","3.21826","25.316","5.597","7.65","0.337","7.2","0.02","0.4","29.7249","4.71423","58.82","0","SATNPRO1509","29.922","0.41916","5"],
    [51186,"HCEP03730542","2025-03-14 11:30:00","9.1306","3.21803","25.388","5.595","7.65","0.372","5.988","0.03","0.34","29.7249","4.7143","58.8","0","SATNPRO1509","30","0.42022","5"],
    [51187,"HCEP03730542","2025-03-14 11:45:00","9.1292","3.21797","25.431","5.613","7.65","0.259","6.444","0.01","0.64","29.7255","4.7144","58.98","0","SATNPRO1509","30.018","0.42044","5"],
    [51188,"HCEP03730542","2025-03-14 12:00:00","9.1278","3.21732","25.487","5.637","7.65","0.267","5.523","0.02","0.22","29.7199","4.71363","59.24","0","SATNPRO1509","30.178","0.42268","5"],
    [51189,"HCEP03730542","2025-03-14 12:15:00","9.1335","3.21322","25.558","5.657","7.65","0.261","7.988","0.01","0.78","29.6733","4.70685","59.43","0","SATNPRO1509","29.892","0.41872","5"],
    [51190,"HCEP03730542","2025-03-14 12:30:00","9.1262","3.2163","25.68","5.671","7.66","0.447","6.89","0.09","1.83","29.7107","4.71236","59.58","0","SATNPRO1509","30.21","0.42314","5"],
    [51191,"HCEP03730542","2025-03-14 12:45:00","9.1244","3.21671","25.758","5.697","7.66","0.423","7.496","0.09","1.17","29.7164","4.71322","59.85","0","SATNPRO1509","30.080000000000002","0.42132","5"],
    [51192,"HCEP03730542","2025-03-14 13:00:00","9.1232","3.21702","25.923","5.702","7.66","0.418","7.099","0.1","1.44","29.7205","4.71383","59.91","0","SATNPRO1509","30.146","0.42226","5"],
    [51193,"HCEP03730542","2025-03-14 13:15:00","9.1245","3.21664","25.996","5.691","7.66","0.303","6.055","0.03","0.25","29.7155","4.7131","59.79","0","SATNPRO1509","29.906","0.41886","5"],
    [51194,"HCEP03730542","2025-03-14 13:30:00","9.1228","3.21681","26.14","5.675","7.66","0.425","6.99","0.06","0.91","29.7186","4.71358","59.63","0","SATNPRO1509","30.138","0.4221","5"],
    [51195,"HCEP03730542","2025-03-14 13:45:00","9.1223","3.21713","26.252","5.676","7.66","0.428","6.782","0.03","0.59","29.7222","4.71412","59.63","0","SATNPRO1509","30.09","0.42148","5"],
    [51196,"HCEP03730542","2025-03-14 14:00:00","9.1185","3.21803","26.43","5.682","7.66","0.297","5.844","0.03","0.24","29.7345","4.71596","59.7","0","SATNPRO1509","30.174","0.42266","5"],
    [51197,"HCEP03730542","2025-03-14 14:15:00","9.116","3.21847","26.527","5.705","7.66","0.252","5.79","0.01","0.33","29.7411","4.71695","59.94","0","SATNPRO1509","30.41","0.42594","5"],
    [51198,"HCEP03730542","2025-03-14 14:30:00","9.1143","3.21904","26.625","5.729","7.66","0.266","5.741","0.01","0.31","29.7483","4.71803","60.19","0","SATNPRO1509","30.38","0.42554","5"],
    [51199,"HCEP03730542","2025-03-14 14:45:00","9.117","3.21839","26.734","5.721","7.66","0.276","7.365","0.03","1.51","29.7393","4.71669","60.11","0","SATNPRO1509","30.296","0.42436","5"],
    [51200,"HCEP03730542","2025-03-14 15:00:00","9.1174","3.21782","26.82","5.717","7.66","0.477","7.959","0.13","1.04","29.7331","4.7158","60.06","0","SATNPRO1509","30.37","0.4254","5"],
    [51201,"HCEP03730542","2025-03-14 15:15:00","9.1165","3.21821","26.946","5.732","7.66","0.277","7.468","0.02","0.54","29.7378","4.7165","60.23","0","SATNPRO1509","30.258","0.42382","5"],
    [51202,"HCEP03730542","2025-03-14 15:30:00","9.1155","3.21819","27.076","5.736","7.66","0.309","5.686","0.06","0.92","29.7385","4.71662","60.27","0","SATNPRO1509","30.338","0.4249","5"],
    [51203,"HCEP03730542","2025-03-14 15:45:00","9.1152","3.2188","27.179","5.754","7.66","0.258","5.168","0.02","0.24","29.7448","4.71754","60.45","0","SATNPRO1509","30.366","0.42534","5"],
    [51204,"HCEP03730542","2025-03-14 16:00:00","9.1142","3.21938","27.278","5.745","7.66","0.257","4.955","0.01","0.2","29.7516","4.71854","60.36","0","SATNPRO1509","30.38","0.42552","5"],
    [51205,"HCEP03730542","2025-03-14 16:15:00","9.1134","3.21916","27.353","5.736","7.66","0.26","5.962","0.02","0.67","29.7499","4.71831","60.27","0","SATNPRO1509","30.669999999999998","0.4296","5"],
    [51206,"HCEP03730542","2025-03-14 16:30:00","9.1135","3.21955","27.397","5.751","7.66","0.344","5.964","0.08","0.82","29.7538","4.71887","60.43","0","SATNPRO1509","30.524","0.42754","5"],
    [51207,"HCEP03730542","2025-03-14 16:45:00","9.1128","3.21961","27.438","5.745","7.66","0.266","4.824","0.02","0.35","29.755","4.71906","60.36","0","SATNPRO1509","30.532","0.42766","5"],
    [51208,"HCEP03730542","2025-03-14 17:00:00","9.1104","3.22091","27.464","5.743","7.66","0.273","5.645","0.02","0.31","29.7703","4.7213","60.34","0","SATNPRO1509","30.582","0.42836","5"],
    [51209,"HCEP03730542","2025-03-14 17:15:00","9.1104","3.22145","27.459","5.714","7.66","0.264","5.938","0.02","0.29","29.7758","4.72209","60.04","0","SATNPRO1509","30.306","0.4245","5"],
    [51210,"HCEP03730542","2025-03-14 17:30:00","9.109","3.22171","27.434","5.686","7.66","0.265","5.682","0.02","0.24","29.7797","4.72268","59.75","0","SATNPRO1509","30.804","0.43144","5"],
    [51211,"HCEP03730542","2025-03-14 17:45:00","9.108","3.22214","27.377","5.69","7.66","0.249","6.02","0.01","0.24","29.7849","4.72343","59.79","0","SATNPRO1509","30.394000000000002","0.42578","5"],
    [51212,"HCEP03730542","2025-03-14 18:00:00","9.1057","3.2224","27.308","5.698","7.66","0.255","5.123","0.02","0.3","29.7895","4.72413","59.87","0","SATNPRO1509","30.580000000000002","0.4283","5"],
    [51213,"HCEP03730542","2025-03-14 18:15:00","9.1051","3.22236","27.235","5.715","7.66","0.243","4.408","0.01","0.18","29.7896","4.72416","60.05","0","SATNPRO1509","30.926","0.43316","5"],
    [51214,"HCEP03730542","2025-03-14 18:30:00","9.1052","3.22211","27.145","5.73","7.66","0.232","4.071","0.01","0.14","29.7871","4.72379","60.2","0","SATNPRO1509","30.876","0.43244","5"],
    [51215,"HCEP03730542","2025-03-14 18:45:00","9.1059","3.22217","27.039","5.739","7.66","0.232","4.123","0.02","0.23","29.7872","4.72378","60.31","0","SATNPRO1509","30.906","0.4329","5"],
    [51216,"HCEP03730542","2025-03-14 19:00:00","9.1066","3.2216","26.913","5.736","7.66","0.243","3.927","0.03","0.19","29.7808","4.72284","60.27","0","SATNPRO1509","30.73","0.43044","5"],
    [51217,"HCEP03730542","2025-03-14 19:15:00","9.1076","3.2214","26.792","5.748","7.66","0.229","3.938","0.01","0.18","29.7779","4.72241","60.39","0","SATNPRO1509","30.924","0.43316","5"],
    [51218,"HCEP03730542","2025-03-14 19:30:00","9.109","3.22086","26.667","5.753","7.66","0.241","3.728","0.02","0.2","29.7713","4.72142","60.45","0","SATNPRO1509","30.828","0.43182","5"],
    [51219,"HCEP03730542","2025-03-14 19:45:00","9.1104","3.22033","26.529","5.765","7.66","0.233","3.624","0.01","0.3","29.7647","4.72045","60.58","0","SATNPRO1509","30.862","0.43228","5"],
    [51220,"HCEP03730542","2025-03-14 20:00:00","9.111","3.22033","26.389","5.777","7.66","0.233","3.545","0.01","0.16","29.7643","4.72037","60.7","0","SATNPRO1509","30.6","0.4286","5"],
    [51221,"HCEP03730542","2025-03-14 20:15:00","9.1143","3.21924","26.225","5.776","7.67","0.226","3.067","0.01","0.15","29.7504","4.71831","60.69","0","SATNPRO1509","30.634","0.42906","5"],
    [51222,"HCEP03730542","2025-03-14 20:30:00","9.1157","3.21894","26.075","5.793","7.67","0.375","18.613","0.15","4.89","29.7464","4.71769","60.86","0","SATNPRO1509","30.692","0.42988","5"],
    [51223,"HCEP03730542","2025-03-14 20:45:00","9.1159","3.21878","25.894","5.796","7.67","0.226","3.296","0.02","0.16","29.7446","4.71742","60.9","0","SATNPRO1509","30.576","0.42826","5"],
    [51224,"HCEP03730542","2025-03-14 21:00:00","9.116","3.21852","25.727","5.772","7.66","0.233","3.601","0.01","0.14","29.7419","4.71702","60.64","0","SATNPRO1509","30.448","0.42648","5"],
    [51225,"HCEP03730542","2025-03-14 21:15:00","9.1183","3.21783","25.474","5.752","7.66","0.234","3.661","0.01","0.13","29.733","4.71569","60.44","0","SATNPRO1509","30.34","0.42496","5"],
    [51226,"HCEP03730542","2025-03-14 21:30:00","9.1194","3.21758","25.355","5.716","7.66","0.244","4.337","0.01","0.27","29.7296","4.71518","60.06","0","SATNPRO1509","30.246000000000002","0.42368","5"],
    [51227,"HCEP03730542","2025-03-14 21:45:00","9.1155","3.2197","25.167","5.694","7.66","0.247","5.076","0.02","0.23","29.7546","4.71882","59.83","0","SATNPRO1509","30.272","0.424","5"],
    [51228,"HCEP03730542","2025-03-14 22:00:00","9.1159","3.22055","25.041","5.666","7.65","0.26","5.564","0.02","0.38","29.7631","4.72002","59.54","0","SATNPRO1509","30.182","0.42276","5"],
    [51229,"HCEP03730542","2025-03-14 22:15:00","9.1163","3.22028","24.93","5.614","7.65","0.245","5.491","0.01","0.23","29.76","4.71956","58.99","0","SATNPRO1509","30.226","0.42338","5"],
    [51230,"HCEP03730542","2025-03-14 22:30:00","9.1172","3.21977","24.814","5.606","7.65","0.253","5.432","0.01","0.25","29.754","4.71868","58.9","0","SATNPRO1509","30.13","0.42204","5"],
    [51231,"HCEP03730542","2025-03-14 22:45:00","9.1164","3.22083","24.814","5.605","7.65","0.395","21.579","0.2","21.65","29.7656","4.72036","58.9","0","SATNPRO1509","30.16","0.42246","5"],
    [51232,"HCEP03730542","2025-03-14 23:00:00","9.1163","3.22096","24.802","5.574","7.65","0.265","5.754","0.02","0.26","29.7671","4.72057","58.57","0","SATNPRO1509","30.1","0.42162","5"],
    [51233,"HCEP03730542","2025-03-14 23:15:00","9.1164","3.22174","24.799","5.558","7.65","0.254","6.162","0.01","0.19","29.7748","4.72168","58.4","0","SATNPRO1509","30.028","0.42056","5"],
    [51234,"HCEP03730542","2025-03-14 23:30:00","9.1177","3.22024","24.815","5.527","7.65","0.249","5.343","0.01","0.25","29.7585","4.71931","58.08","0","SATNPRO1509","30.214000000000002","0.4232","5"],
    [51235,"HCEP03730542","2025-03-14 23:45:00","9.1148","3.22185","24.951","5.563","7.65","0.25","5.484","0.01","0.19","29.7773","4.72207","58.46","0","SATNPRO1509","30.126","0.42202","5"],
    [51236,"HCEP03730542","2025-03-15 00:00:00","9.114","3.22161","25.043","5.557","7.65","0.273","6.101","0.03","0.24","29.7755","4.72183","58.4","0","SATNPRO1509","30.07","0.4212","5"],
    [51237,"HCEP03730542","2025-03-15 00:15:00","9.1145","3.22134","25.118","5.571","7.65","0.253","6.091","0.01","0.25","29.7722","4.72136","58.54","0","SATNPRO1509","30.018","0.42048","5"],
    [51238,"HCEP03730542","2025-03-15 00:30:00","9.1158","3.22062","25.29","5.571","7.65","0.257","5.929","0.02","0.33","29.7638","4.72013","58.54","0","SATNPRO1509","30.232","0.42346","5"],
    [51239,"HCEP03730542","2025-03-15 00:45:00","9.1172","3.22041","25.362","5.59","7.65","0.589","13.531","0.59","15.26","29.7604","4.71963","58.74","0","SATNPRO1509","30.152","0.42232","5"],
    [51240,"HCEP03730542","2025-03-15 01:00:00","9.1182","3.22005","25.502","5.596","7.65","0.282","6.344","0.03","0.78","29.7558","4.71896","58.8","0","SATNPRO1509","30.15","0.4223","5"],
    [51241,"HCEP03730542","2025-03-15 01:15:00","9.1194","3.21945","25.655","5.612","7.65","0.262","5.771","0.04","0.72","29.7486","4.71791","58.97","0","SATNPRO1509","30.21","0.42316","5"],
    [51242,"HCEP03730542","2025-03-15 01:30:00","9.1185","3.21985","25.808","5.622","7.65","0.254","5.641","0.01","0.29","29.7534","4.71862","59.08","0","SATNPRO1509","30.17","0.42258","5"],
    [51243,"HCEP03730542","2025-03-15 01:45:00","9.1183","3.21971","25.932","5.62","7.65","0.25","5.081","0.01","0.25","29.7521","4.71846","59.06","0","SATNPRO1509","30.322","0.42472","5"],
    [51244,"HCEP03730542","2025-03-15 02:00:00","9.1159","3.22085","26.057","5.631","7.65","0.274","6.781","0.07","6.15","29.7656","4.72044","59.17","0","SATNPRO1509","30.222","0.42332","5"],
    [51245,"HCEP03730542","2025-03-15 02:15:00","9.1144","3.22134","26.212","5.609","7.65","3.71","44.793","3.25","34.26","29.7719","4.72138","58.95","0","SATNPRO1509","30.25","0.4237","5"],
    [51246,"HCEP03730542","2025-03-15 02:30:00","9.1122","3.22249","26.376","5.59","7.65","0.266","6.19","0.03","0.13","29.7855","4.72337","58.74","0","SATNPRO1509","30.276","0.42406","5"],
    [51247,"HCEP03730542","2025-03-15 02:45:00","9.1108","3.22296","26.538","5.565","7.65","1.469","55.745","2.06","31.55","29.7913","4.72425","58.48","0","SATNPRO1509","30.34","0.42496","5"],
    [51248,"HCEP03730542","2025-03-15 03:00:00","9.1094","3.22308","26.735","5.563","7.65","13.386","673.621","1.66","118.15","29.7937","4.72462","58.46","0","SATNPRO1509","30.418","0.42604","5"],
    [51249,"HCEP03730542","2025-03-15 03:15:00","9.1087","3.22368","26.882","5.586","7.65","7.836","249.293","1.04","52.85","29.8004","4.72561","58.71","0","SATNPRO1509","30.362","0.42526","5"],
    [51250,"HCEP03730542","2025-03-15 03:30:00","9.1086","3.22407","27.08","5.579","7.65","6.814","217.692","1.31","61.99","29.8043","4.72618","58.63","0","SATNPRO1509","30.419999999999998","0.42608","5"],
    [51251,"HCEP03730542","2025-03-15 03:45:00","9.1082","3.22448","27.237","5.571","7.65","0.252","5.747","0.03","0.28","29.8088","4.72684","58.55","0","SATNPRO1509","30.372","0.42542","5"],
    [51252,"HCEP03730542","2025-03-15 04:00:00","9.1082","3.22457","27.369","5.568","7.65","0.254","6.179","0.02","1.07","29.8097","4.72698","58.51","0","SATNPRO1509","30.498","0.42714","5"],
    [51253,"HCEP03730542","2025-03-15 04:15:00","9.1085","3.22453","27.499","5.573","7.65","0.265","6.181","0.05","1.58","29.8089","4.72687","58.57","0","SATNPRO1509","30.477999999999998","0.42692","5"],
    [51254,"HCEP03730542","2025-03-15 04:30:00","9.1091","3.22422","27.619","5.57","7.65","0.283","6.423","0.04","1.88","29.8052","4.72634","58.53","0","SATNPRO1509","30.308","0.4245","5"],
    [51255,"HCEP03730542","2025-03-15 04:45:00","9.1098","3.22348","27.698","5.572","7.65","0.242","5.496","0.03","0.79","29.797","4.72515","58.55","0","SATNPRO1509","30.332","0.42484","5"],
    [51256,"HCEP03730542","2025-03-15 05:00:00","9.1118","3.22298","27.717","5.57","7.65","0.307","5.649","0.07","0.78","29.7902","4.72414","58.54","0","SATNPRO1509","30.2","0.42304","5"],
    [51257,"HCEP03730542","2025-03-15 05:15:00","9.1139","3.22086","27.792","5.587","7.65","0.335","5.086","0.08","0.61","29.7668","4.72076","58.7","0","SATNPRO1509","30.402","0.42582","5"],
    [51258,"HCEP03730542","2025-03-15 05:30:00","9.1156","3.22066","27.74","5.629","7.65","0.351","6.894","0.08","2.06","29.7633","4.72022","59.15","0","SATNPRO1509","30.374","0.4254","5"],
    [51259,"HCEP03730542","2025-03-15 05:45:00","9.1163","3.22106","27.783","5.607","7.65","0.354","5.785","0.06","1.1","29.7668","4.72071","58.92","0","SATNPRO1509","30.256","0.42376","5"],
    [51260,"HCEP03730542","2025-03-15 06:00:00","9.1158","3.22116","27.75","5.569","7.65","0.282","5.367","0.04","0.71","29.7682","4.72092","58.52","0","SATNPRO1509","30.224","0.42336","5"],
    [51261,"HCEP03730542","2025-03-15 06:15:00","9.1179","3.21919","27.727","5.574","7.65","0.267","4.38","0.02","0.6","29.7464","4.71775","58.57","0","SATNPRO1509","30.426","0.42614","5"],
    [51262,"HCEP03730542","2025-03-15 06:30:00","9.1172","3.22117","27.656","5.616","7.65","0.243","4.26","0.01","0.29","29.7672","4.72074","59.01","0","SATNPRO1509","30.2","0.42298","5"],
    [51263,"HCEP03730542","2025-03-15 06:45:00","9.1186","3.21911","27.57","5.579","7.65","0.231","4.175","0.01","0.64","29.745","4.71753","58.62","0","SATNPRO1509","30.394","0.4257","5"],
    [51264,"HCEP03730542","2025-03-15 07:00:00","9.118","3.21876","27.452","5.615","7.65","0.251","3.534","0.02","0.23","29.7421","4.71711","59","0","SATNPRO1509","30.466","0.42672","5"],
    [51265,"HCEP03730542","2025-03-15 07:15:00","9.1194","3.21815","27.349","5.652","7.65","0.233","3.555","0.02","0.8","29.7346","4.71602","59.38","0","SATNPRO1509","30.334","0.42484","5"],
    [51266,"HCEP03730542","2025-03-15 07:30:00","9.1315","3.2123","27.227","5.654","7.65","0.238","3.298","0.02","0.24","29.6648","4.70577","59.39","0","SATNPRO1509","29.962","0.41966","5"],
    [51267,"HCEP03730542","2025-03-15 07:45:00","9.1258","3.21596","27.147","5.604","7.65","0.264","3.822","0.03","0.73","29.707","4.71192","58.88","0","SATNPRO1509","30.150000000000002","0.42232","5"],
    [51268,"HCEP03730542","2025-03-15 08:00:00","9.1308","3.21257","27.023","5.579","7.65","0.263","3.364","0.02","0.15","29.6682","4.70626","58.61","0","SATNPRO1509","29.946","0.41944","5"],
    [51269,"HCEP03730542","2025-03-15 08:15:00","9.1302","3.21549","26.893","5.576","7.64","0.243","3.432","0.01","0.16","29.6987","4.71063","58.58","0","SATNPRO1509","29.8","0.4174","5"],
    [51270,"HCEP03730542","2025-03-15 08:30:00","9.1268","3.21644","26.745","5.496","7.64","0.261","3.681","0.05","0.19","29.7112","4.71248","57.74","0","SATNPRO1509","29.896","0.41874","5"],
    [51271,"HCEP03730542","2025-03-15 08:45:00","9.1311","3.2158","26.609","5.499","7.64","0.253","3.821","0.05","0.51","29.7012","4.71095","57.78","0","SATNPRO1509","29.56","0.41408","5"],
    [51272,"HCEP03730542","2025-03-15 09:00:00","9.1305","3.21627","26.46","5.454","7.64","0.273","4.012","0.02","0.23","29.7066","4.71173","57.31","0","SATNPRO1509","29.65","0.41532","5"],
    [51273,"HCEP03730542","2025-03-15 09:15:00","9.134","3.212","26.268","5.46","7.64","0.254","3.431","0.04","0.19","29.66","4.70498","57.36","0","SATNPRO1509","29.554","0.41394","5"],
    [51274,"HCEP03730542","2025-03-15 09:30:00","9.135","3.21166","26.093","5.522","7.64","0.251","3.07","0.02","0.16","29.6558","4.70435","58.01","0","SATNPRO1509","29.602","0.41462","5"],
    [51275,"HCEP03730542","2025-03-15 09:45:00","9.1345","3.21241","25.941","5.515","7.64","0.25","3.637","0.04","0.75","29.664","4.70552","57.93","0","SATNPRO1509","29.36","0.41122","5"],
    [51276,"HCEP03730542","2025-03-15 10:00:00","9.1335","3.2145","25.749","5.481","7.64","0.27","4.068","0.01","0.19","29.6862","4.70872","57.59","0","SATNPRO1509","29.532","0.41368","5"],
    [51277,"HCEP03730542","2025-03-15 10:15:00","9.1333","3.21492","25.603","5.441","7.64","0.26","4.838","0.01","0.21","29.6907","4.70936","57.17","0","SATNPRO1509","29.35","0.41108","5"],
    [51278,"HCEP03730542","2025-03-15 10:30:00","9.1323","3.21634","25.453","5.415","7.63","0.282","4.748","0.03","0.25","29.7062","4.71159","56.9","0","SATNPRO1509","29.478","0.41288","5"],
    [51279,"HCEP03730542","2025-03-15 10:45:00","9.1299","3.21835","25.315","5.365","7.63","0.261","5.25","0.03","1.04","29.7288","4.71486","56.38","0","SATNPRO1509","29.394","0.41172","5"],
    [51280,"HCEP03730542","2025-03-15 11:00:00","9.1278","3.21929","25.199","5.338","7.63","0.268","4.916","0.01","0.27","29.7402","4.71652","56.1","0","SATNPRO1509","29.580000000000002","0.41432","5"],
    [51281,"HCEP03730542","2025-03-15 11:15:00","9.1228","3.2228","25.121","5.34","7.63","0.279","7.107","0.07","0.64","29.7802","4.72235","56.13","0","SATNPRO1509","29.47","0.41272","5"],
    [51282,"HCEP03730542","2025-03-15 11:30:00","9.1198","3.22306","25.07","5.305","7.63","0.274","6.595","0.04","0.28","29.7854","4.72315","55.76","0","SATNPRO1509","29.728","0.4164","5"],
    [51283,"HCEP03730542","2025-03-15 11:45:00","9.1241","3.21804","25.036","5.343","7.64","0.268","5.322","0.04","0.6","29.7305","4.71519","56.14","0","SATNPRO1509","29.916","0.41906","5"],
    [51284,"HCEP03730542","2025-03-15 12:00:00","9.1312","3.21346","25.091","5.454","7.64","0.281","3.436","0.2","1.04","29.6778","4.70751","57.3","0","SATNPRO1509","29.638","0.41512","5"],
    [51285,"HCEP03730542","2025-03-15 12:15:00","9.1258","3.21876","25.197","5.485","7.64","0.263","5.767","0.04","0.44","29.7365","4.71603","57.64","0","SATNPRO1509","29.62","0.41484","5"],
    [51286,"HCEP03730542","2025-03-15 12:30:00","9.1284","3.21849","25.248","5.402","7.63","0.274","6.861","0.01","0.43","29.7314","4.71526","56.76","0","SATNPRO1509","29.538","0.41372","5"],
    [51287,"HCEP03730542","2025-03-15 12:45:00","9.131","3.218","25.312","5.37","7.63","0.266","6.652","0.01","0.5","29.7242","4.71419","56.43","0","SATNPRO1509","29.444","0.4124","5"],
    [51288,"HCEP03730542","2025-03-15 13:00:00","9.136","3.21638","25.425","5.351","7.63","0.386","7.114","0.43","0.86","29.7035","4.71113","56.23","0","SATNPRO1509","29.192","0.40886","5"],
    [51289,"HCEP03730542","2025-03-15 13:15:00","9.1411","3.21446","25.429","5.436","7.64","0.266","8.226","0.02","0.59","29.6796","4.7076","57.12","0","SATNPRO1509","29.874","0.41842","5"],
    [51290,"HCEP03730542","2025-03-15 13:30:00","9.1477","3.21566","25.535","5.557","7.65","0.227","3.389","0.02","0.2","29.6863","4.70845","58.4","0","SATNPRO1509","30.42","0.42606","5"],
    [51291,"HCEP03730542","2025-03-15 13:45:00","9.1516","3.2169","25.673","5.697","7.66","0.218","8.221","0.01","1.18","29.6957","4.70973","59.89","0","SATNPRO1509","30.56","0.42802","5"],
    [51292,"HCEP03730542","2025-03-15 14:00:00","9.1559","3.21765","25.816","5.744","7.66","0.339","8.342","0.05","0.81","29.6997","4.71024","60.39","0","SATNPRO1509","30.814","0.43164","5"],
    [51293,"HCEP03730542","2025-03-15 14:15:00","9.1578","3.21817","25.94","5.771","7.66","0.309","5.362","0.02","0.32","29.7034","4.71074","60.68","0","SATNPRO1509","30.808","0.4315","5"],
    [51294,"HCEP03730542","2025-03-15 14:30:00","9.1591","3.21852","26.087","5.759","7.66","0.49","3.794","0.03","0.24","29.7058","4.71107","60.56","0","SATNPRO1509","30.844","0.43198","5"],
    [51295,"HCEP03730542","2025-03-15 14:45:00","9.159","3.21845","26.266","5.757","7.66","0.408","5.01","0.1","1.34","29.7051","4.71098","60.53","0","SATNPRO1509","30.768","0.43098","5"],
    [51296,"HCEP03730542","2025-03-15 15:00:00","9.1587","3.2179","26.411","5.76","7.66","0.419","3.901","0.13","1.11","29.6997","4.71022","60.56","0","SATNPRO1509","30.906","0.43288","5"],
    [51297,"HCEP03730542","2025-03-15 15:15:00","9.1578","3.21764","26.554","5.776","7.66","0.204","2.614","0.01","0.15","29.6978","4.70997","60.73","0","SATNPRO1509","30.844","0.43198","5"],
    [51298,"HCEP03730542","2025-03-15 15:30:00","9.1582","3.21732","26.693","5.807","7.66","0.357","2.921","0.04","0.26","29.694","4.70943","61.05","0","SATNPRO1509","30.834","0.4319","5"],
    [51299,"HCEP03730542","2025-03-15 15:45:00","9.1584","3.21736","26.805","5.806","7.66","0.338","3.106","0.09","0.23","29.6942","4.70946","61.04","0","SATNPRO1509","30.776","0.43106","5"],
    [51300,"HCEP03730542","2025-03-15 16:00:00","9.1583","3.21707","26.952","5.796","7.66","0.489","3.654","0.03","0.51","29.6914","4.70906","60.93","0","SATNPRO1509","30.832","0.4318","5"],
    [51301,"HCEP03730542","2025-03-15 16:15:00","9.158","3.21702","27.086","5.795","7.67","0.501","3.3","0.02","0.23","29.6911","4.70904","60.92","0","SATNPRO1509","30.872","0.43242","5"],
    [51302,"HCEP03730542","2025-03-15 16:30:00","9.158","3.21698","27.191","5.802","7.67","0.483","3.053","0.03","0.26","29.6906","4.70897","61","0","SATNPRO1509","30.888","0.43264","5"],
    [51303,"HCEP03730542","2025-03-15 16:45:00","9.1583","3.21719","27.255","5.812","7.67","0.455","6.826","0.03","0.85","29.6925","4.70924","61.1","0","SATNPRO1509","30.854","0.43212","5"],
    [51304,"HCEP03730542","2025-03-15 17:00:00","9.1581","3.2166","27.325","5.812","7.67","0.429","2.954","0.03","0.16","29.6866","4.7084","61.1","0","SATNPRO1509","30.78","0.43114","5"],
    [51305,"HCEP03730542","2025-03-15 17:15:00","9.159","3.21754","27.399","5.822","7.66","0.299","3.857","0.35","0.35","29.6954","4.70966","61.21","0","SATNPRO1509","30.744","0.43062","5"],
    [51306,"HCEP03730542","2025-03-15 17:30:00","9.1588","3.21716","27.456","5.775","7.66","0.416","4.058","0.01","0.33","29.6916","4.70912","60.72","0","SATNPRO1509","30.712","0.43018","5"],
    [51307,"HCEP03730542","2025-03-15 17:45:00","9.1587","3.21693","27.464","5.765","7.66","0.251","3.773","0.05","0.22","29.6894","4.7088","60.6","0","SATNPRO1509","30.754","0.43076","5"],
    [51308,"HCEP03730542","2025-03-15 18:00:00","9.1586","3.21735","27.446","5.759","7.66","0.251","3.725","0.01","0.2","29.6937","4.70942","60.55","0","SATNPRO1509","30.66","0.42944","5"],
    [51309,"HCEP03730542","2025-03-15 18:15:00","9.1589","3.21801","27.405","5.758","7.66","0.23","4.138","0.02","0.25","29.7002","4.71035","60.54","0","SATNPRO1509","30.712","0.4302","5"],
    [51310,"HCEP03730542","2025-03-15 18:30:00","9.1451","3.21962","27.404","5.697","7.65","0.261","6.06","0.01","0.27","29.7282","4.71461","59.89","0","SATNPRO1509","29.768","0.41692","5"],
    [51311,"HCEP03730542","2025-03-15 18:45:00","9.1356","3.22047","27.342","5.485","7.64","0.255","6.048","0.01","0.23","29.7449","4.71718","57.65","0","SATNPRO1509","29.71","0.41612","5"],
    [51312,"HCEP03730542","2025-03-15 19:00:00","9.132","3.22036","27.299","5.399","7.63","0.266","6.144","0.02","0.25","29.7467","4.7175","56.74","0","SATNPRO1509","29.558","0.41398","5"],
    [51313,"HCEP03730542","2025-03-15 19:15:00","9.1312","3.22057","27.212","5.362","7.63","0.257","6.287","0.01","0.3","29.7495","4.71792","56.36","0","SATNPRO1509","29.628","0.415","5"],
    [51314,"HCEP03730542","2025-03-15 19:30:00","9.133","3.22058","27.119","5.375","7.63","0.264","5.891","0.03","0.37","29.7482","4.71769","56.5","0","SATNPRO1509","29.938","0.41934","5"],
    [51315,"HCEP03730542","2025-03-15 19:45:00","9.1337","3.22015","26.969","5.427","7.64","0.242","5.256","0.01","0.22","29.7433","4.71696","57.04","0","SATNPRO1509","29.9","0.41878","5"],
    [51316,"HCEP03730542","2025-03-15 20:00:00","9.1341","3.21939","26.8","5.468","7.64","0.25","5.489","0.01","0.22","29.7353","4.7158","57.47","0","SATNPRO1509","29.934","0.41928","5"],
    [51317,"HCEP03730542","2025-03-15 20:15:00","9.1314","3.21993","26.637","5.506","7.64","0.244","5.909","0.01","0.25","29.7431","4.71695","57.87","0","SATNPRO1509","30.028","0.42058","5"],
    [51318,"HCEP03730542","2025-03-15 20:30:00","9.1286","3.21975","26.597","5.48","7.64","0.254","5.745","0.01","0.2","29.7436","4.71708","57.59","0","SATNPRO1509","29.958","0.41962","5"],
    [51319,"HCEP03730542","2025-03-15 20:45:00","9.1263","3.21978","26.385","5.465","7.64","0.239","5.06","0.01","0.19","29.746","4.71745","57.44","0","SATNPRO1509","30.128","0.422","5"],
    [51320,"HCEP03730542","2025-03-15 21:00:00","9.1256","3.22032","26.231","5.438","7.64","0.253","5.612","0.01","0.26","29.7521","4.71833","57.15","0","SATNPRO1509","29.858","0.41822","5"],
    [51321,"HCEP03730542","2025-03-15 21:15:00","9.1264","3.22007","26.084","5.418","7.63","0.248","6.05","0.01","0.34","29.749","4.71786","56.94","0","SATNPRO1509","29.87","0.4184","5"],
    [51322,"HCEP03730542","2025-03-15 21:30:00","9.1313","3.21788","26.007","5.425","7.64","0.26","5.921","0.01","0.26","29.7226","4.71399","57.02","0","SATNPRO1509","29.82","0.41766","5"],
    [51323,"HCEP03730542","2025-03-15 21:45:00","9.1349","3.21681","25.81","5.407","7.63","0.251","5.815","0.01","0.23","29.7087","4.71192","56.82","0","SATNPRO1509","29.64","0.41516","5"],
    [51324,"HCEP03730542","2025-03-15 22:00:00","9.1365","3.21601","25.665","5.412","7.64","0.259","6.212","0.01","0.28","29.6992","4.71051","56.87","0","SATNPRO1509","29.631999999999998","0.41504","5"],
    [51325,"HCEP03730542","2025-03-15 22:15:00","9.1378","3.21543","25.516","5.411","7.64","0.415","34.175","0.16","30.41","29.6922","4.70948","56.87","0","SATNPRO1509","29.704","0.41606","5"],
    [51326,"HCEP03730542","2025-03-15 22:30:00","9.1393","3.21489","25.381","5.41","7.63","0.403","8.733","0.54","12.23","29.6855","4.70848","56.85","0","SATNPRO1509","29.576","0.41424","5"],
    [51327,"HCEP03730542","2025-03-15 22:45:00","9.1408","3.21465","25.268","5.393","7.63","0.591","55.419","0.11","16.12","29.6818","4.70792","56.67","0","SATNPRO1509","29.63","0.415","5"],
    [51328,"HCEP03730542","2025-03-15 23:00:00","9.1417","3.21434","25.156","5.367","7.63","0.431","27.734","0.16","22.59","29.678","4.70735","56.39","0","SATNPRO1509","29.468","0.4128","5"],
    [51329,"HCEP03730542","2025-03-15 23:15:00","9.1424","3.21406","25.105","5.337","7.63","0.395","9.667","0.23","6.47","29.6746","4.70685","56.08","0","SATNPRO1509","29.5","0.4132","5"],
    [51330,"HCEP03730542","2025-03-15 23:30:00","9.1433","3.21371","25.172","5.325","7.63","0.26","4.932","0.01","0.41","29.6703","4.70622","55.95","0","SATNPRO1509","29.451999999999998","0.41254","5"],
    [51331,"HCEP03730542","2025-03-15 23:45:00","9.1432","3.21363","25.201","5.314","7.63","0.754","252.975","0.38","156.85","29.6695","4.7061","55.84","0","SATNPRO1509","29.364","0.41132","5"],
    [51332,"HCEP03730542","2025-03-16 00:00:00","9.1435","3.21343","25.194","5.306","7.63","1.446","67.799","0.83","25.37","29.6671","4.70576","55.75","0","SATNPRO1509","29.34","0.41098","5"],
    [51333,"HCEP03730542","2025-03-16 00:15:00","9.1432","3.2132","25.253","5.309","7.63","0.246","4.524","0.01","0.22","29.6651","4.70549","55.78","0","SATNPRO1509","29.372","0.41136","5"],
    [51334,"HCEP03730542","2025-03-16 00:30:00","9.1431","3.21333","25.402","5.316","7.63","0.255","4.684","0.01","0.3","29.6664","4.70568","55.86","0","SATNPRO1509","29.342","0.411","5"],
    [51335,"HCEP03730542","2025-03-16 00:45:00","9.1425","3.21366","25.498","5.329","7.63","0.267","5.827","0.03","0.45","29.6702","4.70624","56","0","SATNPRO1509","29.448","0.41244","5"],
    [51336,"HCEP03730542","2025-03-16 01:00:00","9.142","3.21389","25.574","5.326","7.63","0.386","7.657","0.56","8.61","29.673","4.70665","55.96","0","SATNPRO1509","29.446","0.41242","5"],
    [51337,"HCEP03730542","2025-03-16 01:15:00","9.1417","3.21423","25.738","5.329","7.63","0.254","4.908","0.02","0.23","29.6766","4.70718","56","0","SATNPRO1509","29.442","0.41236","5"],
    [51338,"HCEP03730542","2025-03-16 01:30:00","9.1423","3.21437","25.929","5.324","7.63","0.271","5.512","0.01","0.18","29.6775","4.70732","55.95","0","SATNPRO1509","29.262","0.40988","5"],
    [51339,"HCEP03730542","2025-03-16 01:45:00","9.1414","3.21381","26.032","5.315","7.63","0.252","4.963","0.01","0.25","29.6725","4.70662","55.85","0","SATNPRO1509","29.542","0.41378","5"],
    [51340,"HCEP03730542","2025-03-16 02:00:00","9.1407","3.21376","26.184","5.339","7.63","0.269","5.168","0.01","0.31","29.6725","4.70664","56.1","0","SATNPRO1509","29.676","0.41564","5"],
    [51341,"HCEP03730542","2025-03-16 02:15:00","9.1402","3.21359","26.239","5.355","7.63","2.872","60.515","3.72","26.18","29.6712","4.70646","56.26","0","SATNPRO1509","29.508","0.41334","5"],
    [51342,"HCEP03730542","2025-03-16 02:30:00","9.1405","3.21367","26.363","5.359","7.63","0.255","4.744","0.01","0.23","29.6716","4.70654","56.31","0","SATNPRO1509","29.572","0.41416","5"],
    [51343,"HCEP03730542","2025-03-16 02:45:00","9.1403","3.21346","26.478","5.369","7.63","0.242","4.231","0.01","0.22","29.6696","4.70625","56.41","0","SATNPRO1509","29.404","0.41188","5"],
    [51344,"HCEP03730542","2025-03-16 03:00:00","9.1407","3.21317","26.646","5.376","7.63","0.254","4.284","0.01","0.17","29.6663","4.70579","56.49","0","SATNPRO1509","29.532","0.41364","5"],
    [51345,"HCEP03730542","2025-03-16 03:15:00","9.1407","3.21278","26.793","5.382","7.63","0.249","4.266","0.02","0.19","29.6622","4.7052","56.54","0","SATNPRO1509","29.516000000000002","0.41344","5"],
    [51346,"HCEP03730542","2025-03-16 03:30:00","9.1414","3.21296","26.921","5.377","7.63","0.26","4.338","0.02","0.25","29.6635","4.70538","56.5","0","SATNPRO1509","29.534","0.41366","5"],
    [51347,"HCEP03730542","2025-03-16 03:45:00","9.141","3.21261","27.086","5.379","7.63","0.251","4.332","0.01","0.21","29.6602","4.70492","56.52","0","SATNPRO1509","29.496","0.41314","5"],
    [51348,"HCEP03730542","2025-03-16 04:00:00","9.1411","3.21213","27.243","5.393","7.63","0.257","4.177","0.01","0.25","29.6551","4.7042","56.66","0","SATNPRO1509","29.554","0.41394","5"],
    [51349,"HCEP03730542","2025-03-16 04:15:00","9.1415","3.21093","27.378","5.399","7.63","0.263","4.371","0.01","0.2","29.6424","4.70238","56.73","0","SATNPRO1509","29.4","0.4118","5"],
    [51350,"HCEP03730542","2025-03-16 04:30:00","9.142","3.21067","27.509","5.41","7.64","0.267","4.403","0.01","0.28","29.6394","4.70195","56.83","0","SATNPRO1509","29.456","0.41256","5"],
    [51351,"HCEP03730542","2025-03-16 04:45:00","9.142","3.21114","27.626","5.422","7.64","0.256","4.412","0.01","0.2","29.6441","4.70263","56.96","0","SATNPRO1509","29.492","0.41308","5"],
    [51352,"HCEP03730542","2025-03-16 05:00:00","9.1426","3.21084","27.719","5.414","7.63","0.266","8.051","0.01","8.07","29.6404","4.7021","56.87","0","SATNPRO1509","29.456","0.41258","5"],
    [51353,"HCEP03730542","2025-03-16 05:15:00","9.1432","3.2101","27.787","5.402","7.63","0.249","4.065","0.01","0.23","29.6323","4.70093","56.75","0","SATNPRO1509","29.5","0.41318","5"],
    [51354,"HCEP03730542","2025-03-16 05:30:00","9.1429","3.20832","27.814","5.412","7.64","0.26","3.866","0.01","0.28","29.6145","4.69838","56.85","0","SATNPRO1509","29.314","0.41058","5"],
    [51355,"HCEP03730542","2025-03-16 05:45:00","9.1434","3.20812","27.841","5.438","7.64","0.262","4.387","0.02","0.33","29.6119","4.698","57.13","0","SATNPRO1509","29.352","0.4111","5"],
    [51356,"HCEP03730542","2025-03-16 06:00:00","9.143","3.20806","27.765","5.445","7.64","0.318","7.048","0.05","1.7","29.6117","4.69797","57.19","0","SATNPRO1509","29.406","0.41186","5"],
    [51357,"HCEP03730542","2025-03-16 06:15:00","9.1431","3.20772","27.796","5.462","7.64","0.245","3.42","0.01","0.12","29.6082","4.69747","57.37","0","SATNPRO1509","29.334","0.4109","5"],
    [51358,"HCEP03730542","2025-03-16 06:30:00","9.1427","3.20774","27.748","5.456","7.64","0.285","7.891","0.03","10.34","29.6087","4.69756","57.31","0","SATNPRO1509","29.368","0.41132","5"],
    [51359,"HCEP03730542","2025-03-16 06:45:00","9.1427","3.20847","27.734","5.459","7.64","0.253","3.575","0.02","0.47","29.6161","4.69861","57.35","0","SATNPRO1509","29.426","0.41216","5"],
    [51360,"HCEP03730542","2025-03-16 07:00:00","9.1433","3.20839","27.623","5.445","7.64","0.25","3.012","0.02","0.09","29.6148","4.69841","57.2","0","SATNPRO1509","29.372","0.41138","5"],
    [51361,"HCEP03730542","2025-03-16 07:15:00","9.143","3.20819","27.542","5.432","7.64","0.263","3.417","0.02","0.34","29.6131","4.69817","57.06","0","SATNPRO1509","29.43","0.41218","5"],
    [51362,"HCEP03730542","2025-03-16 07:30:00","9.1433","3.20868","27.439","5.431","7.64","0.286","4.767","0.04","0.47","29.618","4.69885","57.05","0","SATNPRO1509","29.34","0.41098","5"],
    [51363,"HCEP03730542","2025-03-16 07:45:00","9.146","3.21085","27.326","5.391","7.63","0.284","4.821","0.02","0.3","29.6378","4.70164","56.64","0","SATNPRO1509","29.126","0.40794","5"],
    [51364,"HCEP03730542","2025-03-16 08:00:00","9.1451","3.20768","27.182","5.312","7.63","0.284","4.925","0.04","2.07","29.6063","4.69713","55.8","0","SATNPRO1509","29.002","0.40618","5"],
    [51365,"HCEP03730542","2025-03-16 08:15:00","9.1447","3.20455","27.051","5.38","7.63","0.267","4.14","0.02","1.06","29.5747","4.6926","56.51","0","SATNPRO1509","29.11","0.4077","5"],
    [51366,"HCEP03730542","2025-03-16 08:30:00","9.1451","3.20688","26.904","5.418","7.63","0.32","4.465","0.1","0.43","29.5982","4.69595","56.9","0","SATNPRO1509","29.192","0.4089","5"],
    [51367,"HCEP03730542","2025-03-16 08:45:00","9.1447","3.20571","26.761","5.383","7.63","0.265","4.307","0.01","0.22","29.5866","4.69429","56.54","0","SATNPRO1509","29.094","0.4075","5"],
    [51368,"HCEP03730542","2025-03-16 09:00:00","9.1477","3.20884","26.598","5.374","7.63","0.266","4.634","0.02","0.19","29.6162","4.69847","56.46","0","SATNPRO1509","29.038","0.40672","5"],
    [51369,"HCEP03730542","2025-03-16 09:15:00","9.1484","3.20689","26.453","5.299","7.63","0.253","4.359","0.02","0.46","29.5958","4.69552","55.66","0","SATNPRO1509","29.024","0.4065","5"],
    [51370,"HCEP03730542","2025-03-16 09:30:00","9.149","3.20869","26.311","5.304","7.63","0.257","4.256","0.01","0.23","29.6137","4.69807","55.72","0","SATNPRO1509","29.078","0.40726","5"],
    [51371,"HCEP03730542","2025-03-16 09:45:00","9.1471","3.20561","26.164","5.281","7.63","0.271","5.658","0.02","0.52","29.584","4.69383","55.47","0","SATNPRO1509","28.992","0.40608","5"],
    [51372,"HCEP03730542","2025-03-16 10:00:00","9.149","3.20627","25.995","5.311","7.63","0.271","4.769","0.01","0.15","29.5891","4.69453","55.79","0","SATNPRO1509","28.79","0.40326","5"],
    [51373,"HCEP03730542","2025-03-16 10:15:00","9.151","3.2051","25.809","5.281","7.62","0.272","5.722","0.01","0.65","29.5757","4.69255","55.47","0","SATNPRO1509","28.704","0.40206","5"],
    [51374,"HCEP03730542","2025-03-16 10:30:00","9.153","3.20394","25.642","5.253","7.62","0.276","4.7","0.02","0.71","29.5623","4.69058","55.18","0","SATNPRO1509","28.474","0.39882","5"],
    [51375,"HCEP03730542","2025-03-16 10:45:00","9.1544","3.20424","25.472","5.228","7.62","0.27","4.855","0.05","1.52","29.5641","4.69081","54.92","0","SATNPRO1509","28.504","0.39924","5"],
    [51376,"HCEP03730542","2025-03-16 11:00:00","9.155","3.20449","25.256","5.207","7.62","0.268","4.743","0.01","0.28","29.5663","4.6911","54.69","0","SATNPRO1509","28.514","0.39938","5"],
    [51377,"HCEP03730542","2025-03-16 11:15:00","9.1537","3.2066","25.133","5.194","7.62","0.267","5.093","0.01","0.3","29.5889","4.69435","54.56","0","SATNPRO1509","28.646","0.40124","5"],
    [51378,"HCEP03730542","2025-03-16 11:30:00","9.153","3.20858","25.04","5.165","7.62","0.323","5.655","0.04","0.4","29.6098","4.69736","54.26","0","SATNPRO1509","28.618000000000002","0.40082","5"],
    [51379,"HCEP03730542","2025-03-16 11:45:00","9.1532","3.20836","24.922","5.142","7.61","0.301","5.181","0.05","0.54","29.6074","4.69701","54.02","0","SATNPRO1509","28.69","0.40182","5"],
    [51380,"HCEP03730542","2025-03-16 12:00:00","9.153","3.20801","24.905","5.136","7.61","0.28","4.934","0.07","0.29","29.6041","4.69653","53.96","0","SATNPRO1509","28.746","0.40264","5"],
    [51381,"HCEP03730542","2025-03-16 12:15:00","9.1534","3.20854","24.927","5.141","7.61","0.33","7.415","0.02","0.58","29.6092","4.69726","54.01","0","SATNPRO1509","28.634","0.40106","5"],
    [51382,"HCEP03730542","2025-03-16 12:30:00","9.1538","3.20864","24.95","5.127","7.61","0.339","7.155","0.03","0.36","29.6099","4.69735","53.87","0","SATNPRO1509","28.608","0.40068","5"],
    [51383,"HCEP03730542","2025-03-16 12:45:00","9.1528","3.20893","25.034","5.12","7.61","0.549","6.868","0.05","1.17","29.6135","4.6979","53.8","0","SATNPRO1509","28.618","0.40084","5"],
    [51384,"HCEP03730542","2025-03-16 13:00:00","9.1517","3.20959","25.079","5.128","7.61","0.636","8.875","0.12","1.92","29.6212","4.69902","53.88","0","SATNPRO1509","28.782","0.40314","5"],
    [51385,"HCEP03730542","2025-03-16 13:15:00","9.1501","3.21023","25.177","5.14","7.61","0.383","7.041","0.06","1.26","29.6291","4.70018","54","0","SATNPRO1509","28.726","0.40236","5"],
    [51386,"HCEP03730542","2025-03-16 13:30:00","9.1487","3.21086","25.285","5.165","7.62","0.43","7.809","0.07","0.9","29.6365","4.70128","54.27","0","SATNPRO1509","28.926","0.40516","5"],
    [51387,"HCEP03730542","2025-03-16 13:45:00","9.1487","3.21082","25.422","5.18","7.62","0.334","8.303","0.06","1.65","29.636","4.70122","54.42","0","SATNPRO1509","28.852","0.40412","5"],
    [51388,"HCEP03730542","2025-03-16 14:00:00","9.1487","3.21073","25.565","5.192","7.62","0.293","7.974","0.02","0.74","29.6351","4.70109","54.55","0","SATNPRO1509","28.928","0.40518","5"],
    [51389,"HCEP03730542","2025-03-16 14:15:00","9.1469","3.20973","25.588","5.214","7.62","0.382","8.498","0.06","8.02","29.6265","4.6999","54.78","0","SATNPRO1509","29.116","0.40778","5"],
    [51390,"HCEP03730542","2025-03-16 14:30:00","9.1467","3.20964","25.715","5.302","7.63","0.366","9.304","0.04","0.88","29.6256","4.69978","55.7","0","SATNPRO1509","29.172","0.40864","5"],
    [51391,"HCEP03730542","2025-03-16 14:45:00","9.147","3.20915","25.882","5.344","7.63","0.375","7.357","0.04","0.52","29.6202","4.69901","56.14","0","SATNPRO1509","29.19","0.40884","5"],
    [51392,"HCEP03730542","2025-03-16 15:00:00","9.1476","3.20946","25.908","5.342","7.63","0.399","7.442","0.08","1.18","29.6229","4.69939","56.13","0","SATNPRO1509","29.032","0.40664","5"],
    [51393,"HCEP03730542","2025-03-16 15:15:00","9.147","3.2092","26.055","5.329","7.63","0.48","7.082","0.05","1.38","29.6208","4.6991","55.99","0","SATNPRO1509","29.112","0.40774","5"],
    [51394,"HCEP03730542","2025-03-16 15:30:00","9.147","3.20936","26.192","5.348","7.63","0.264","5.083","0.02","0.14","29.6223","4.69933","56.19","0","SATNPRO1509","29.224","0.40934","5"],
    [51395,"HCEP03730542","2025-03-16 15:45:00","9.1469","3.20998","26.336","5.346","7.63","0.251","5.239","0.01","0.1","29.6287","4.70026","56.16","0","SATNPRO1509","29.196","0.40894","5"],
    [51396,"HCEP03730542","2025-03-16 16:00:00","9.1469","3.21046","26.521","5.339","7.63","0.384","5.874","0.15","1.38","29.6334","4.70095","56.09","0","SATNPRO1509","29.186","0.40882","5"],
    [51397,"HCEP03730542","2025-03-16 16:15:00","9.1467","3.21056","26.664","5.342","7.63","0.254","5.193","0.01","0.12","29.6346","4.70113","56.13","0","SATNPRO1509","29.298000000000002","0.41032","5"],
    [51398,"HCEP03730542","2025-03-16 16:30:00","9.1465","3.21041","26.842","5.34","7.63","0.311","7.26","0.18","5.34","29.6332","4.70094","56.1","0","SATNPRO1509","29.308","0.41052","5"],
    [51399,"HCEP03730542","2025-03-16 16:45:00","9.1467","3.21023","26.968","5.345","7.63","1.608","58.705","0.91","28.07","29.6311","4.70064","56.16","0","SATNPRO1509","29.266000000000002","0.40992","5"],
    [51400,"HCEP03730542","2025-03-16 17:00:00","9.1462","3.20986","27.088","5.355","7.63","0.618","26.458","0.09","12.46","29.6277","4.70017","56.25","0","SATNPRO1509","29.294","0.41034","5"],
    [51401,"HCEP03730542","2025-03-16 17:15:00","9.1475","3.20991","27.197","5.381","7.63","0.464","43.393","0.05","9.53","29.6271","4.70007","56.53","0","SATNPRO1509","29.194","0.40892","5"],
    [51402,"HCEP03730542","2025-03-16 17:30:00","9.1478","3.20966","27.325","5.346","7.63","0.306","5.651","0.04","0.68","29.6242","4.69966","56.16","0","SATNPRO1509","29.1","0.40758","5"],
    [51403,"HCEP03730542","2025-03-16 17:45:00","9.1479","3.20986","27.367","5.335","7.63","0.26","4.606","0.01","0.2","29.6262","4.69994","56.05","0","SATNPRO1509","29.22","0.40926","5"],
    [51404,"HCEP03730542","2025-03-16 18:00:00","9.1462","3.20968","27.423","5.333","7.63","0.261","3.873","0.02","0.83","29.6258","4.69991","56.03","0","SATNPRO1509","29.428","0.41218","5"],
    [51405,"HCEP03730542","2025-03-16 18:15:00","9.1464","3.20949","27.496","5.365","7.63","0.238","3.074","0.01","0.18","29.6236","4.6996","56.37","0","SATNPRO1509","29.326","0.41074","5"],
    [51406,"HCEP03730542","2025-03-16 18:30:00","9.148","3.2086","27.479","5.364","7.63","0.254","3.924","0.01","0.75","29.6131","4.69808","56.35","0","SATNPRO1509","29.232","0.40944","5"],
    [51407,"HCEP03730542","2025-03-16 18:45:00","9.1471","3.20905","27.483","5.342","7.63","0.249","3.58","0.01","0.53","29.6185","4.69885","56.12","0","SATNPRO1509","29.426","0.41216","5"],
    [51408,"HCEP03730542","2025-03-16 19:00:00","9.1464","3.20943","27.454","5.344","7.63","0.267","3.927","0.07","0.42","29.623","4.69951","56.14","0","SATNPRO1509","29.464","0.4127","5"],
    [51409,"HCEP03730542","2025-03-16 19:15:00","9.1503","3.20666","27.423","5.346","7.63","0.241","2.706","0.02","0.13","29.5915","4.69492","56.15","0","SATNPRO1509","29.082","0.40736","5"],
    [51410,"HCEP03730542","2025-03-16 19:30:00","9.1483","3.20826","27.368","5.3","7.63","0.236","2.839","0.01","0.11","29.6095","4.69754","55.67","0","SATNPRO1509","29.126","0.40794","5"],
    [51411,"HCEP03730542","2025-03-16 19:45:00","9.1479","3.20835","27.3","5.316","7.63","0.24","3.631","0.01","0.68","29.6107","4.69772","55.84","0","SATNPRO1509","29.382","0.4115","5"],
    [51412,"HCEP03730542","2025-03-16 20:00:00","9.1482","3.20819","27.217","5.326","7.63","0.247","2.824","0.02","0.15","29.6089","4.69745","55.96","0","SATNPRO1509","29.236","0.4095","5"],
    [51413,"HCEP03730542","2025-03-16 20:15:00","9.1485","3.21061","27.126","5.32","7.63","0.257","5.087","0.01","0.29","29.6335","4.70096","55.89","0","SATNPRO1509","29.355999999999998","0.41118","5"],
    [51414,"HCEP03730542","2025-03-16 20:30:00","9.1466","3.20918","27.029","5.324","7.63","0.26","4.706","0.02","0.39","29.6204","4.69911","55.93","0","SATNPRO1509","29.356","0.41118","5"],
    [51415,"HCEP03730542","2025-03-16 20:45:00","9.1471","3.20824","26.926","5.363","7.63","0.242","3.576","0.01","0.34","29.6105","4.69768","56.34","0","SATNPRO1509","29.278","0.41006","5"],
    [51416,"HCEP03730542","2025-03-16 21:00:00","9.1468","3.20819","26.817","5.369","7.63","0.244","3.301","0.01","0.16","29.6102","4.69764","56.4","0","SATNPRO1509","29.484","0.41296","5"],
    [51417,"HCEP03730542","2025-03-16 21:15:00","9.1505","3.20944","26.72","5.341","7.62","0.285","5.783","0.02","0.34","29.62","4.69897","56.12","0","SATNPRO1509","28.983999999999998","0.40594","5"],
    [51418,"HCEP03730542","2025-03-16 21:30:00","9.149","3.208","26.617","5.293","7.63","0.259","4.428","0.01","0.18","29.6065","4.69705","55.6","0","SATNPRO1509","29.296","0.41036","5"],
    [51419,"HCEP03730542","2025-03-16 21:45:00","9.1489","3.20731","26.51","5.326","7.63","0.261","5.179","0.02","0.33","29.5996","4.69606","55.95","0","SATNPRO1509","29.2","0.40898","5"],
    [51420,"HCEP03730542","2025-03-16 22:00:00","9.148","3.20603","26.418","5.35","7.63","0.262","4.485","0.01","0.13","29.5873","4.69431","56.2","0","SATNPRO1509","29.082","0.40732","5"],
    [51421,"HCEP03730542","2025-03-16 22:15:00","9.149","3.20652","26.323","5.354","7.63","0.26","5.023","0.01","0.26","29.5916","4.6949","56.24","0","SATNPRO1509","28.932000000000002","0.40528","5"],
    [51422,"HCEP03730542","2025-03-16 22:30:00","9.1519","3.20785","26.195","5.3","7.62","0.278","5.903","0.01","0.28","29.6028","4.69644","55.68","0","SATNPRO1509","28.779999999999998","0.4031","5"],
    [51423,"HCEP03730542","2025-03-16 22:45:00","9.1527","3.208","26.07","5.199","7.61","0.28","6.255","0.02","0.54","29.6036","4.69654","54.62","0","SATNPRO1509","28.51","0.3993","5"],
    [51424,"HCEP03730542","2025-03-16 23:00:00","9.1527","3.20743","25.934","5.15","7.61","0.293","6.014","0.02","0.41","29.598","4.69572","54.11","0","SATNPRO1509","28.508","0.3993","5"],
    [51425,"HCEP03730542","2025-03-16 23:15:00","9.1537","3.20813","25.768","5.121","7.61","0.309","6.828","0.04","1.06","29.6043","4.6966","53.8","0","SATNPRO1509","28.482","0.39896","5"],
    [51426,"HCEP03730542","2025-03-16 23:30:00","9.1539","3.20949","25.668","5.084","7.61","0.281","6.164","0.01","0.27","29.618","4.69856","53.41","0","SATNPRO1509","28.506","0.39928","5"],
    [51427,"HCEP03730542","2025-03-16 23:45:00","9.1521","3.21161","25.651","5.071","7.61","0.289","7.048","0.07","2.23","29.6413","4.70192","53.28","0","SATNPRO1509","28.81","0.40354","5"],
    [51428,"HCEP03730542","2025-03-17 00:00:00","9.1501","3.21095","25.645","5.09","7.61","0.278","6.594","0.02","0.34","29.6362","4.70123","53.48","0","SATNPRO1509","28.758","0.40284","5"],
    [51429,"HCEP03730542","2025-03-17 00:15:00","9.1517","3.21168","25.669","5.157","7.61","0.275","7.234","0.01","0.38","29.6422","4.70207","54.19","0","SATNPRO1509","28.694","0.4019","5"],
    [51430,"HCEP03730542","2025-03-17 00:30:00","9.1519","3.21205","25.72","5.132","7.61","0.282","8.04","0.01","0.41","29.6459","4.7026","53.93","0","SATNPRO1509","28.794","0.40332","5"],
    [51431,"HCEP03730542","2025-03-17 00:45:00","9.1517","3.21228","25.755","5.126","7.61","0.284","8.459","0.04","1.15","29.6484","4.70296","53.87","0","SATNPRO1509","28.77","0.403","5"],
    [51432,"HCEP03730542","2025-03-17 01:00:00","9.1515","3.21199","25.868","5.143","7.61","0.277","7.578","0.01","0.4","29.6456","4.70256","54.04","0","SATNPRO1509","28.837999999999997","0.40394","5"],
    [51433,"HCEP03730542","2025-03-17 01:15:00","9.1517","3.21115","25.931","5.154","7.61","0.273","7.643","0.01","0.26","29.6368","4.70131","54.16","0","SATNPRO1509","28.88","0.40454","5"],
    [51434,"HCEP03730542","2025-03-17 01:30:00","9.1516","3.21056","26.033","5.169","7.61","0.283","7.809","0.01","0.42","29.6307","4.70044","54.31","0","SATNPRO1509","28.926","0.40514","5"],
    [51435,"HCEP03730542","2025-03-17 01:45:00","9.1508","3.21021","26.13","5.197","7.62","0.707","12.883","0.82","10.7","29.6279","4.70005","54.6","0","SATNPRO1509","28.982","0.40598","5"],
    [51436,"HCEP03730542","2025-03-17 02:00:00","9.1508","3.20968","26.227","5.245","7.62","0.283","7.767","0.01","0.32","29.6225","4.69929","55.11","0","SATNPRO1509","29.009999999999998","0.40636","5"],
    [51437,"HCEP03730542","2025-03-17 02:15:00","9.1511","3.20957","26.332","5.285","7.62","0.287","8.29","0.01","0.74","29.621","4.69908","55.52","0","SATNPRO1509","29.07","0.40714","5"],
    [51438,"HCEP03730542","2025-03-17 02:30:00","9.151","3.2094","26.487","5.308","7.62","0.298","8.689","0.08","1.83","29.6192","4.69883","55.76","0","SATNPRO1509","29.122","0.4079","5"],
    [51439,"HCEP03730542","2025-03-17 02:45:00","9.1524","3.20838","26.609","5.304","7.62","0.289","8.318","0.01","0.28","29.6076","4.69714","55.72","0","SATNPRO1509","28.712","0.40216","5"],
    [51440,"HCEP03730542","2025-03-17 03:00:00","9.1528","3.20789","26.735","5.236","7.62","0.296","8.271","0.01","0.43","29.6022","4.69638","55.01","0","SATNPRO1509","28.628","0.40098","5"],
    [51441,"HCEP03730542","2025-03-17 03:15:00","9.1526","3.20758","26.77","5.215","7.62","0.287","7.636","0.01","0.39","29.5992","4.69595","54.79","0","SATNPRO1509","28.774","0.40302","5"],
    [51442,"HCEP03730542","2025-03-17 03:30:00","9.1516","3.20725","26.944","5.219","7.62","0.289","6.993","0.01","0.29","29.5966","4.69561","54.82","0","SATNPRO1509","28.856","0.40414","5"],
    [51443,"HCEP03730542","2025-03-17 03:45:00","9.1509","3.2077","27.086","5.25","7.62","0.283","7.353","0.01","0.32","29.6017","4.69636","55.16","0","SATNPRO1509","28.82","0.40368","5"],
    [51444,"HCEP03730542","2025-03-17 04:00:00","9.1491","3.20842","27.182","5.27","7.62","0.287","7.241","0.01","0.35","29.6105","4.69766","55.37","0","SATNPRO1509","29.04","0.40674","5"],
    [51445,"HCEP03730542","2025-03-17 04:15:00","9.1476","3.20999","27.278","5.304","7.62","0.278","6.697","0.01","0.29","29.6277","4.70016","55.72","0","SATNPRO1509","29.483999999999998","0.41298","5"],
    [51446,"HCEP03730542","2025-03-17 04:30:00","9.1471","3.21028","27.359","5.355","7.63","0.29","7.392","0.01","0.27","29.6312","4.70067","56.26","0","SATNPRO1509","29.291999999999998","0.41026","5"],
    [51447,"HCEP03730542","2025-03-17 04:45:00","9.147","3.21058","27.461","5.378","7.63","0.286","7.364","0.01","0.39","29.6342","4.70111","56.51","0","SATNPRO1509","29.474","0.41288","5"],
    [51448,"HCEP03730542","2025-03-17 05:00:00","9.1472","3.21218","27.568","5.384","7.63","0.276","6.685","0.01","0.62","29.6503","4.70342","56.58","0","SATNPRO1509","29.684","0.41578","5"],
    [51449,"HCEP03730542","2025-03-17 05:15:00","9.1477","3.2132","27.651","5.395","7.63","0.337","10.011","0.09","4.82","29.6603","4.70485","56.69","0","SATNPRO1509","29.746","0.4166","5"],
    [51450,"HCEP03730542","2025-03-17 05:30:00","9.1483","3.21369","27.695","5.386","7.63","0.28","6.847","0.02","0.8","29.6649","4.7055","56.6","0","SATNPRO1509","29.614","0.41478","5"],
    [51451,"HCEP03730542","2025-03-17 05:45:00","9.148","3.21389","27.72","5.371","7.63","3.314","64.343","3.21","18.6","29.6671","4.70582","56.45","0","SATNPRO1509","29.662","0.41548","5"],
    [51452,"HCEP03730542","2025-03-17 06:00:00","9.1486","3.21404","27.757","5.363","7.63","0.595","34.381","0.41","32.43","29.6682","4.70597","56.36","0","SATNPRO1509","29.782","0.41718","5"],
    [51453,"HCEP03730542","2025-03-17 06:15:00","9.1485","3.21428","27.755","5.347","7.63","0.256","6.397","0.01","1.01","29.6707","4.70633","56.2","0","SATNPRO1509","29.504","0.41328","5"],
    [51454,"HCEP03730542","2025-03-17 06:30:00","9.1486","3.21451","27.75","5.337","7.63","0.282","6.208","0.02","0.37","29.673","4.70666","56.09","0","SATNPRO1509","29.532","0.41364","5"],
    [51455,"HCEP03730542","2025-03-17 06:45:00","9.1483","3.2148","27.715","5.32","7.62","0.254","5.726","0.01","0.49","29.6761","4.70711","55.91","0","SATNPRO1509","29.686","0.4158","5"],
    [51456,"HCEP03730542","2025-03-17 07:00:00","9.1487","3.21501","27.665","5.307","7.62","0.274","6.154","0.02","0.4","29.6779","4.70736","55.78","0","SATNPRO1509","29.44","0.41236","5"],
    [51457,"HCEP03730542","2025-03-17 07:15:00","9.1464","3.21245","27.593","5.306","7.63","0.264","5.039","0.02","0.6","29.6538","4.70394","55.75","0","SATNPRO1509","29.72","0.41626","5"],
    [51458,"HCEP03730542","2025-03-17 07:30:00","9.1451","3.20504","27.514","5.385","7.64","0.261","2.849","0.02","0.15","29.5792","4.69327","56.56","0","SATNPRO1509","29.658","0.41544","5"],
    [51459,"HCEP03730542","2025-03-17 07:45:00","9.1482","3.21464","27.436","5.447","7.63","0.28","5.626","0.1","1.98","29.6748","4.7069","57.24","0","SATNPRO1509","29.728","0.41642","5"],
    [51460,"HCEP03730542","2025-03-17 08:00:00","9.1472","3.21447","27.31","5.357","7.63","0.271","5.053","0.03","0.54","29.6739","4.70679","56.3","0","SATNPRO1509","29.584","0.41438","5"],
    [51461,"HCEP03730542","2025-03-17 08:15:00","9.1483","3.21509","27.206","5.321","7.62","0.281","6.735","0.07","1.76","29.6794","4.70755","55.93","0","SATNPRO1509","29.636","0.41512","5"],
    [51462,"HCEP03730542","2025-03-17 08:30:00","9.1487","3.21513","27.073","5.292","7.62","0.266","5.613","0.02","0.23","29.6795","4.70755","55.62","0","SATNPRO1509","29.82","0.4177","5"],
    [51463,"HCEP03730542","2025-03-17 08:45:00","9.1492","3.21537","26.924","5.267","7.62","0.258","5.813","0.01","0.22","29.6815","4.70782","55.35","0","SATNPRO1509","29.588","0.41444","5"],
    [51464,"HCEP03730542","2025-03-17 09:00:00","9.1493","3.21541","26.799","5.236","7.62","0.289","7.284","0.02","0.67","29.682","4.70787","55.03","0","SATNPRO1509","29.39","0.41166","5"],
    [51465,"HCEP03730542","2025-03-17 09:15:00","9.1495","3.21546","26.651","5.21","7.62","0.278","6.469","0.02","0.28","29.6824","4.70792","54.76","0","SATNPRO1509","29.324","0.41076","5"],
    [51466,"HCEP03730542","2025-03-17 09:30:00","9.1496","3.21545","26.442","5.208","7.62","0.289","6.598","0.03","0.65","29.6822","4.70789","54.74","0","SATNPRO1509","29.28","0.41012","5"],
    [51467,"HCEP03730542","2025-03-17 09:45:00","9.15","3.21546","26.349","5.204","7.62","0.27","6.821","0.01","0.32","29.6821","4.70785","54.7","0","SATNPRO1509","29.336","0.41088","5"],
    [51468,"HCEP03730542","2025-03-17 10:00:00","9.15","3.21535","26.156","5.192","7.62","0.281","6.952","0.02","0.51","29.681","4.70768","54.57","0","SATNPRO1509","29.428","0.41216","5"],
    [51469,"HCEP03730542","2025-03-17 10:15:00","9.1497","3.21506","25.948","5.193","7.62","0.297","6.581","0.03","0.46","29.6784","4.70731","54.58","0","SATNPRO1509","29.366","0.41134","5"],
    [51470,"HCEP03730542","2025-03-17 10:30:00","9.1492","3.21455","25.8","5.212","7.62","0.446","9.111","0.12","1.71","29.6736","4.70662","54.77","0","SATNPRO1509","29.506","0.41332","5"],
    [51471,"HCEP03730542","2025-03-17 10:45:00","9.1493","3.21435","25.659","5.246","7.62","0.286","6.248","0.06","0.49","29.6716","4.70632","55.13","0","SATNPRO1509","29.584","0.41434","5"],
    [51472,"HCEP03730542","2025-03-17 11:00:00","9.1507","3.21422","25.427","5.239","7.62","0.276","7.022","0.01","0.54","29.6692","4.70594","55.06","0","SATNPRO1509","29.316","0.4106","5"],
    [51473,"HCEP03730542","2025-03-17 11:15:00","9.15","3.21458","25.284","5.213","7.62","0.321","7.798","0.07","1.74","29.6736","4.70657","54.79","0","SATNPRO1509","29.23","0.40942","5"],
    [51474,"HCEP03730542","2025-03-17 11:30:00","9.1498","3.21457","25.116","5.17","7.61","0.281","6.092","0.03","0.44","29.6736","4.70657","54.33","0","SATNPRO1509","29.19","0.40892","5"],
    [51475,"HCEP03730542","2025-03-17 11:45:00","9.1492","3.21486","25.012","5.159","7.61","0.296","5.752","0.04","0.24","29.6771","4.70707","54.22","0","SATNPRO1509","29.32","0.41066","5"],
    [51476,"HCEP03730542","2025-03-17 12:00:00","9.1489","3.21496","24.858","5.143","7.61","0.412","7.111","0.07","1.04","29.6785","4.70728","54.05","0","SATNPRO1509","29.254","0.40978","5"],
    [51477,"HCEP03730542","2025-03-17 12:15:00","9.1489","3.2152","24.807","5.142","7.61","0.265","5.723","0.01","0.26","29.681","4.70762","54.04","0","SATNPRO1509","29.312","0.41052","5"],
    [51478,"HCEP03730542","2025-03-17 12:30:00","9.1494","3.21531","24.758","5.129","7.61","0.329","6.715","0.04","0.35","29.6816","4.70771","53.91","0","SATNPRO1509","29.342","0.41096","5"],
    [51479,"HCEP03730542","2025-03-17 12:45:00","9.1502","3.21573","24.743","5.123","7.61","0.329","8.185","0.04","0.33","29.6853","4.70821","53.85","0","SATNPRO1509","29.172","0.40858","5"],
    [51480,"HCEP03730542","2025-03-17 13:00:00","9.151","3.21577","24.774","5.115","7.61","0.352","8.406","0.05","0.72","29.685","4.70816","53.77","0","SATNPRO1509","29.184","0.40876","5"],
    [51481,"HCEP03730542","2025-03-17 13:15:00","9.1508","3.21571","24.8","5.12","7.61","0.294","8.179","0.04","5.4","29.6846","4.7081","53.82","0","SATNPRO1509","29.355999999999998","0.4112","5"],
    [51482,"HCEP03730542","2025-03-17 13:30:00","9.1512","3.21602","24.801","5.128","7.61","0.408","8.72","0.03","0.56","29.6875","4.70851","53.9","0","SATNPRO1509","29.276","0.41008","5"],
    [51483,"HCEP03730542","2025-03-17 13:45:00","9.1508","3.21598","24.883","5.125","7.61","0.394","7.576","0.02","0.69","29.6874","4.70851","53.87","0","SATNPRO1509","29.308","0.41052","5"],
    [51484,"HCEP03730542","2025-03-17 14:00:00","9.1504","3.21605","24.998","5.138","7.61","0.312","7.157","0.04","0.41","29.6883","4.70865","54.01","0","SATNPRO1509","29.328","0.41078","5"],
    [51485,"HCEP03730542","2025-03-17 14:15:00","9.1506","3.21642","25.113","5.155","7.61","0.318","7.908","0.07","1.72","29.6919","4.70918","54.19","0","SATNPRO1509","29.381999999999998","0.41156","5"],
    [51486,"HCEP03730542","2025-03-17 14:30:00","9.1503","3.21669","25.22","5.149","7.61","0.449","15.563","0.18","15.11","29.6948","4.7096","54.13","0","SATNPRO1509","29.35","0.4111","5"],
    [51487,"HCEP03730542","2025-03-17 14:45:00","9.1501","3.21673","25.384","5.148","7.61","0.3","7.048","0.04","0.18","29.6953","4.70969","54.11","0","SATNPRO1509","29.272","0.41002","5"],
    [51488,"HCEP03730542","2025-03-17 15:00:00","9.1503","3.21603","25.479","5.155","7.61","0.311","8.758","0.03","0.85","29.6879","4.70863","54.19","0","SATNPRO1509","29.422","0.41212","5"],
    [51489,"HCEP03730542","2025-03-17 15:15:00","9.1496","3.21575","25.62","5.179","7.61","0.438","9.679","0.08","0.98","29.6857","4.70833","54.44","0","SATNPRO1509","29.51","0.4133","5"],
    [51490,"HCEP03730542","2025-03-17 15:30:00","9.1497","3.21581","25.782","5.202","7.61","0.315","9.01","0.09","5","29.6861","4.7084","54.67","0","SATNPRO1509","29.57","0.41418","5"],
    [51491,"HCEP03730542","2025-03-17 15:45:00","9.1502","3.2159","25.927","5.202","7.61","0.427","24.406","0.27","25.46","29.6866","4.70847","54.67","0","SATNPRO1509","29.598","0.41458","5"],
    [51492,"HCEP03730542","2025-03-17 16:00:00","9.1507","3.21649","26.061","5.192","7.61","0.317","6.891","0.01","0.43","29.6922","4.70927","54.58","0","SATNPRO1509","29.382","0.41156","5"],
    [51493,"HCEP03730542","2025-03-17 16:15:00","9.1505","3.21694","26.188","5.16","7.61","0.283","6.487","0.02","0.31","29.6968","4.70995","54.24","0","SATNPRO1509","29.372","0.41138","5"],
    [51494,"HCEP03730542","2025-03-17 16:30:00","9.1495","3.21688","26.4","5.148","7.61","0.261","5.6","0.01","0.3","29.6969","4.70999","54.12","0","SATNPRO1509","29.492","0.41308","5"],
    [51495,"HCEP03730542","2025-03-17 16:45:00","9.1492","3.21699","26.583","5.168","7.61","0.253","5.65","0.01","0.21","29.6982","4.71019","54.32","0","SATNPRO1509","29.544","0.41382","5"],
    [51496,"HCEP03730542","2025-03-17 17:00:00","9.1496","3.21658","26.718","5.179","7.61","0.268","5.855","0.03","0.79","29.6938","4.70955","54.44","0","SATNPRO1509","29.634","0.4151","5"],
    [51497,"HCEP03730542","2025-03-17 17:15:00","9.1482","3.21495","26.893","5.193","7.62","0.293","8.254","0.08","5.5","29.6781","4.70735","54.58","0","SATNPRO1509","29.59","0.41446","5"],
    [51498,"HCEP03730542","2025-03-17 17:30:00","9.1452","3.2129","26.967","5.281","7.62","0.384","5.464","0.03","0.51","29.6597","4.70476","55.49","0","SATNPRO1509","29.718","0.4162","5"],
    [51499,"HCEP03730542","2025-03-17 17:45:00","9.1421","3.21064","27.16","5.366","7.63","0.368","6.165","0.2","1.42","29.639","4.70188","56.37","0","SATNPRO1509","29.714","0.41622","5"],
    [51500,"HCEP03730542","2025-03-17 18:00:00","9.1419","3.20751","27.186","5.429","7.63","0.594","8.151","0.27","2.32","29.6072","4.69732","57.02","0","SATNPRO1509","29.664","0.41546","5"],
    [51501,"HCEP03730542","2025-03-17 18:15:00","9.1446","3.20699","27.282","5.463","7.63","0.373","9.342","0.22","11.75","29.5997","4.6962","57.39","0","SATNPRO1509","29.476","0.41286","5"],
    [51502,"HCEP03730542","2025-03-17 18:30:00","9.1409","3.20365","27.322","5.44","7.64","0.349","6.872","0.14","8.48","29.5685","4.6918","57.12","0","SATNPRO1509","29.538","0.41376","5"],
    [51503,"HCEP03730542","2025-03-17 18:45:00","9.1389","3.20156","27.422","5.551","7.64","0.275","3.193","0.04","0.62","29.5488","4.68901","58.28","0","SATNPRO1509","29.678","0.41572","5"],
    [51504,"HCEP03730542","2025-03-17 19:00:00","9.1419","3.19891","27.436","5.605","7.64","0.385","3.657","0.1","1.05","29.5193","4.68473","58.84","0","SATNPRO1509","29.352","0.41112","5"],
    [51505,"HCEP03730542","2025-03-17 19:15:00","9.1434","3.19952","27.459","5.576","7.64","0.46","4.429","0.11","1.48","29.5243","4.68542","58.53","0","SATNPRO1509","29.218","0.40926","5"],
    [51506,"HCEP03730542","2025-03-17 19:30:00","9.1496","3.20898","27.476","5.496","7.63","0.333","8.996","0.07","1.94","29.6157","4.69841","57.74","0","SATNPRO1509","29.136","0.40812","5"],
    [51507,"HCEP03730542","2025-03-17 19:45:00","9.151","3.21226","27.455","5.29","7.62","0.416","9.112","0.15","1.55","29.648","4.70302","55.59","0","SATNPRO1509","29.064","0.40708","5"],
    [51508,"HCEP03730542","2025-03-17 20:00:00","9.1506","3.21178","27.43","5.213","7.62","0.476","10.17","0.09","2.02","29.6434","4.70237","54.78","0","SATNPRO1509","29.058","0.407","5"],
    [51509,"HCEP03730542","2025-03-17 20:15:00","9.15","3.21045","27.364","5.205","7.62","0.306","7.348","0.09","0.45","29.6305","4.70051","54.69","0","SATNPRO1509","28.826","0.40372","5"],
    [51510,"HCEP03730542","2025-03-17 20:30:00","9.1486","3.2098","27.324","5.229","7.62","0.385","10.54","0.09","1.7","29.625","4.69975","54.93","0","SATNPRO1509","29.058","0.40704","5"],
    [51511,"HCEP03730542","2025-03-17 20:45:00","9.1471","3.2089","27.241","5.258","7.62","0.434","8.898","0.1","1.94","29.6171","4.69864","55.24","0","SATNPRO1509","29.054000000000002","0.40696","5"],
    [51512,"HCEP03730542","2025-03-17 21:00:00","9.1446","3.20706","27.207","5.282","7.62","0.755","35.138","0.7","33.02","29.6003","4.69629","55.48","0","SATNPRO1509","29.146","0.40822","5"],
    [51513,"HCEP03730542","2025-03-17 21:15:00","9.1437","3.20637","27.082","5.314","7.62","0.337","10.562","0.23","11.6","29.5942","4.69541","55.81","0","SATNPRO1509","29.168","0.40852","5"],
    [51514,"HCEP03730542","2025-03-17 21:30:00","9.1413","3.20494","27.123","5.341","7.63","0.284","7.248","0.01","0.25","29.5815","4.69364","56.09","0","SATNPRO1509","29.164","0.40852","5"],
    [51515,"HCEP03730542","2025-03-17 21:45:00","9.1435","3.20623","26.991","5.376","7.62","0.335","9.319","0.07","1.79","29.5929","4.69522","56.47","0","SATNPRO1509","29.201999999999998","0.40904","5"],
    [51516,"HCEP03730542","2025-03-17 22:00:00","9.146","3.2083","26.918","5.33","7.62","0.353","9.315","0.08","1.34","29.6121","4.69793","55.99","0","SATNPRO1509","29.15","0.40828","5"],
    [51517,"HCEP03730542","2025-03-17 22:15:00","9.1509","3.21288","26.784","5.256","7.62","0.313","8.829","0.06","1.07","29.6547","4.70394","55.24","0","SATNPRO1509","28.988","0.40604","5"],
    [51518,"HCEP03730542","2025-03-17 22:30:00","9.1476","3.21178","26.751","5.186","7.62","0.313","9.484","0.05","1.66","29.6463","4.70279","54.49","0","SATNPRO1509","29.246","0.40962","5"],
    [51519,"HCEP03730542","2025-03-17 22:45:00","9.1516","3.21394","26.627","5.208","7.61","1.181","57.912","1.36","25.2","29.6651","4.70541","54.73","0","SATNPRO1509","28.983999999999998","0.40598","5"],
    [51520,"HCEP03730542","2025-03-17 23:00:00","9.1501","3.21311","26.486","5.151","7.61","0.553","89.9","0.16","35.89","29.6579","4.7044","54.14","0","SATNPRO1509","29.178","0.4087","5"],
    [51521,"HCEP03730542","2025-03-17 23:15:00","9.1483","3.21191","26.411","5.169","7.61","0.297","7.147","0.05","1.35","29.6472","4.70289","54.32","0","SATNPRO1509","29.326","0.41074","5"],
    [51522,"HCEP03730542","2025-03-17 23:30:00","9.1467","3.2109","26.284","5.215","7.62","0.298","7.324","0.03","1.22","29.6382","4.70162","54.79","0","SATNPRO1509","29.382","0.41154","5"],
    [51523,"HCEP03730542","2025-03-17 23:45:00","9.1449","3.21025","26.199","5.262","7.62","0.325","7.121","0.08","1.66","29.6332","4.70093","55.28","0","SATNPRO1509","29.448","0.41246","5"],
    [51524,"HCEP03730542","2025-03-18 00:00:00","9.144","3.21017","26.074","5.302","7.62","0.266","5.041","0.02","1.14","29.6331","4.70093","55.7","0","SATNPRO1509","29.398","0.41178","5"],
    [51525,"HCEP03730542","2025-03-18 00:15:00","9.1436","3.20971","26","5.328","7.62","0.262","5.202","0.02","0.88","29.6288","4.70031","55.98","0","SATNPRO1509","29.598","0.41454","5"],
    [51526,"HCEP03730542","2025-03-18 00:30:00","9.1428","3.20969","26.01","5.353","7.63","0.275","5.167","0.05","2.02","29.6293","4.7004","56.23","0","SATNPRO1509","29.464","0.4127","5"],
    [51527,"HCEP03730542","2025-03-18 00:45:00","9.1439","3.20991","25.899","5.36","7.63","0.274","7.308","0.03","9.48","29.6306","4.70056","56.31","0","SATNPRO1509","29.62","0.41488","5"],
    [51528,"HCEP03730542","2025-03-18 01:00:00","9.1434","3.20955","25.887","5.341","7.63","0.265","5.466","0.01","1.96","29.6273","4.7001","56.11","0","SATNPRO1509","29.674","0.41562","5"],
    [51529,"HCEP03730542","2025-03-18 01:15:00","9.143","3.20995","25.905","5.347","7.63","2.259","56.514","1.53","31.19","29.6318","4.70075","56.17","0","SATNPRO1509","29.484","0.41302","5"],
    [51530,"HCEP03730542","2025-03-18 01:30:00","9.1411","3.20982","25.963","5.356","7.63","6.817","67.946","1.85","18.67","29.632","4.70081","56.27","0","SATNPRO1509","29.756","0.41678","5"],
    [51531,"HCEP03730542","2025-03-18 01:45:00","9.1423","3.20989","25.96","5.389","7.63","0.605","19.082","0.92","28.21","29.6318","4.70076","56.61","0","SATNPRO1509","29.454","0.41256","5"],
    [51532,"HCEP03730542","2025-03-18 02:00:00","9.142","3.20949","26.039","5.374","7.63","1.062","35.745","1.4","30.6","29.6278","4.70021","56.45","0","SATNPRO1509","29.502","0.41324","5"],
    [51533,"HCEP03730542","2025-03-18 02:15:00","9.1395","3.20938","26.107","5.353","7.63","0.257","5.059","0.02","0.19","29.6288","4.70039","56.23","0","SATNPRO1509","29.542","0.4138","5"],
    [51534,"HCEP03730542","2025-03-18 02:30:00","9.1385","3.20928","26.205","5.364","7.63","0.288","5.541","0.02","0.29","29.6285","4.70038","56.34","0","SATNPRO1509","29.47","0.41276","5"],
    [51535,"HCEP03730542","2025-03-18 02:45:00","9.1415","3.21035","26.296","5.352","7.62","0.289","6.711","0.02","1.16","29.6369","4.70152","56.22","0","SATNPRO1509","29.542","0.41374","5"],
    [51536,"HCEP03730542","2025-03-18 03:00:00","9.1421","3.21106","26.403","5.291","7.62","0.296","7.841","0.02","0.98","29.6436","4.70249","55.59","0","SATNPRO1509","29.16","0.40842","5"],
    [51537,"HCEP03730542","2025-03-18 03:15:00","9.125","3.21189","26.517","5.311","7.63","1.638","309.937","0.98","160.5","29.6663","4.70606","55.79","0","SATNPRO1509","30.146","0.42228","5"],
    [51538,"HCEP03730542","2025-03-18 03:30:00","9.1276","3.21397","26.639","5.455","7.63","3.461","244.883","2.04","199.06","29.6854","4.70876","57.31","0","SATNPRO1509","30.12","0.42186","5"],
    [51539,"HCEP03730542","2025-03-18 03:45:00","9.1298","3.21549","26.737","5.462","7.63","0.248","5.692","0.01","0.14","29.6991","4.71069","57.39","0","SATNPRO1509","30.286","0.42422","5"],
    [51540,"HCEP03730542","2025-03-18 04:00:00","9.1323","3.21678","26.861","5.459","7.63","0.257","5.935","0.01","0.34","29.7101","4.71222","57.36","0","SATNPRO1509","30.323999999999998","0.42476","5"],
    [51541,"HCEP03730542","2025-03-18 04:15:00","9.1328","3.21741","26.965","5.454","7.63","0.254","5.96","0.01","0.15","29.716","4.71308","57.32","0","SATNPRO1509","30.394000000000002","0.42572","5"],
    [51542,"HCEP03730542","2025-03-18 04:30:00","9.1328","3.218","27.073","5.445","7.63","0.275","9.845","0.03","9.15","29.722","4.71394","57.22","0","SATNPRO1509","30.444","0.42638","5"],
    [51543,"HCEP03730542","2025-03-18 04:45:00","9.1318","3.21821","27.193","5.444","7.63","0.252","6.206","0.01","0.31","29.7249","4.71438","57.21","0","SATNPRO1509","30.416","0.42604","5"],
    [51544,"HCEP03730542","2025-03-18 05:00:00","9.1309","3.21819","27.294","5.457","7.63","0.259","6.169","0.01","0.52","29.7255","4.71448","57.35","0","SATNPRO1509","30.52","0.4275","5"],
    [51545,"HCEP03730542","2025-03-18 05:15:00","9.1285","3.21805","27.381","5.47","7.64","0.257","5.651","0.01","0.5","29.7261","4.71462","57.48","0","SATNPRO1509","30.514","0.4274","5"],
    [51546,"HCEP03730542","2025-03-18 05:30:00","9.1276","3.21759","27.451","5.485","7.64","0.252","5.965","0.01","2.04","29.722","4.71406","57.63","0","SATNPRO1509","30.548","0.42784","5"],
    [51547,"HCEP03730542","2025-03-18 05:45:00","9.1243","3.2167","27.543","5.494","7.64","0.263","5.972","0.01","0.24","29.7157","4.71322","57.72","0","SATNPRO1509","30.584","0.42836","5"],
    [51548,"HCEP03730542","2025-03-18 06:00:00","9.1243","3.21658","27.62","5.488","7.64","0.28","6.373","0.03","0.24","29.7144","4.71304","57.66","0","SATNPRO1509","30.342","0.42502","5"],
    [51549,"HCEP03730542","2025-03-18 06:15:00","9.1258","3.21667","27.677","5.475","7.64","0.257","5.963","0.01","0.28","29.714","4.71296","57.53","0","SATNPRO1509","30.348","0.42508","5"],
    [51550,"HCEP03730542","2025-03-18 06:30:00","9.1287","3.21755","27.708","5.478","7.64","0.354","7.236","0.02","0.32","29.7206","4.71385","57.56","0","SATNPRO1509","30.482","0.42698","5"],
    [51551,"HCEP03730542","2025-03-18 06:45:00","9.13","3.21819","27.724","5.472","7.64","0.256","5.916","0.01","0.31","29.7261","4.71462","57.51","0","SATNPRO1509","30.462","0.42666","5"],
    [51552,"HCEP03730542","2025-03-18 07:00:00","9.1312","3.21847","27.759","5.473","7.64","0.266","6.154","0.04","0.49","29.7279","4.71485","57.51","0","SATNPRO1509","30.436","0.4263","5"],
    [51553,"HCEP03730542","2025-03-18 07:15:00","9.1326","3.21878","27.695","5.46","7.63","0.376","6.899","0.29","2.25","29.7299","4.71511","57.39","0","SATNPRO1509","30.408","0.42592","5"],
    [51554,"HCEP03730542","2025-03-18 07:30:00","9.1343","3.21879","27.638","5.436","7.63","0.278","6.061","0.02","0.26","29.7286","4.71489","57.14","0","SATNPRO1509","30.366","0.42534","5"],
    [51555,"HCEP03730542","2025-03-18 07:45:00","9.1356","3.21855","27.541","5.421","7.63","0.258","5.753","0.02","0.3","29.7251","4.71435","56.98","0","SATNPRO1509","30.42","0.42608","5"],
    [51556,"HCEP03730542","2025-03-18 08:00:00","9.1362","3.21831","27.464","5.416","7.63","0.266","5.749","0.02","0.25","29.7222","4.71393","56.92","0","SATNPRO1509","30.344","0.42502","5"],
    [51557,"HCEP03730542","2025-03-18 08:15:00","9.1364","3.21829","27.337","5.405","7.63","0.273","6.017","0.03","0.25","29.7219","4.71387","56.8","0","SATNPRO1509","30.166","0.42254","5"],
    [51558,"HCEP03730542","2025-03-18 08:30:00","9.1364","3.21789","27.209","5.393","7.63","0.273","6.991","0.03","0.81","29.7178","4.71328","56.68","0","SATNPRO1509","30.15","0.42232","5"],
    [51559,"HCEP03730542","2025-03-18 08:45:00","9.1371","3.21733","27.107","5.381","7.63","0.255","5.592","0.01","0.26","29.7115","4.71236","56.55","0","SATNPRO1509","30.098","0.4216","5"],
    [51560,"HCEP03730542","2025-03-18 09:00:00","9.1371","3.21704","26.952","5.377","7.63","0.273","8.052","0.01","1.4","29.7087","4.71194","56.51","0","SATNPRO1509","30.21","0.42318","5"],
    [51561,"HCEP03730542","2025-03-18 09:15:00","9.1352","3.21655","26.778","5.371","7.63","0.261","5.982","0.01","0.24","29.7054","4.71149","56.44","0","SATNPRO1509","30.196","0.42294","5"],
    [51562,"HCEP03730542","2025-03-18 09:30:00","9.1325","3.21568","26.706","5.389","7.63","0.306","6.006","0.04","0.55","29.6987","4.71058","56.62","0","SATNPRO1509","30.184","0.42282","5"],
    [51563,"HCEP03730542","2025-03-18 09:45:00","9.1321","3.21492","26.581","5.406","7.63","0.273","6.195","0.03","0.34","29.6913","4.70953","56.8","0","SATNPRO1509","30.15","0.42232","5"],
    [51564,"HCEP03730542","2025-03-18 10:00:00","9.1328","3.21461","26.391","5.398","7.63","0.273","6.319","0.01","0.35","29.6877","4.70898","56.72","0","SATNPRO1509","30.218","0.42324","5"],
    [51565,"HCEP03730542","2025-03-18 10:15:00","9.1353","3.2141","26.208","5.379","7.63","0.284","6.157","0.07","0.44","29.6804","4.70787","56.52","0","SATNPRO1509","29.918","0.41904","5"],
    [51566,"HCEP03730542","2025-03-18 10:30:00","9.1384","3.21383","25.981","5.327","7.62","0.282","6.518","0.02","0.48","29.6752","4.70706","55.98","0","SATNPRO1509","29.656","0.41536","5"],
    [51567,"HCEP03730542","2025-03-18 10:45:00","9.1396","3.21453","25.777","5.283","7.62","0.275","6.897","0.02","0.38","29.6815","4.70792","55.51","0","SATNPRO1509","29.69","0.41588","5"],
    [51568,"HCEP03730542","2025-03-18 11:00:00","9.1429","3.2149","25.567","5.243","7.62","0.271","6.58","0.01","0.44","29.6826","4.70801","55.1","0","SATNPRO1509","29.694","0.41592","5"],
    [51569,"HCEP03730542","2025-03-18 11:15:00","9.144","3.2148","25.386","5.208","7.62","0.261","5.83","0.01","0.34","29.6806","4.7077","54.73","0","SATNPRO1509","29.51","0.4133","5"],
    [51570,"HCEP03730542","2025-03-18 11:30:00","9.1445","3.21481","25.142","5.202","7.61","0.268","6.026","0.01","0.44","29.6805","4.70765","54.67","0","SATNPRO1509","29.636","0.4151","5"],
    [51571,"HCEP03730542","2025-03-18 11:45:00","9.1446","3.21471","24.932","5.203","7.61","0.26","5.729","0.01","0.28","29.6795","4.70751","54.68","0","SATNPRO1509","29.472","0.4128","5"],
    [51572,"HCEP03730542","2025-03-18 12:00:00","9.1451","3.21493","24.817","5.205","7.61","0.255","5.622","0.01","0.24","29.6813","4.70774","54.7","0","SATNPRO1509","29.694","0.4159","5"],
    [51573,"HCEP03730542","2025-03-18 12:15:00","9.1444","3.21524","24.708","5.211","7.62","0.259","5.819","0.01","0.34","29.6852","4.7083","54.76","0","SATNPRO1509","29.716","0.41624","5"],
    [51574,"HCEP03730542","2025-03-18 12:30:00","9.1444","3.21537","24.616","5.222","7.62","0.265","6.501","0.01","0.3","29.6865","4.70849","54.88","0","SATNPRO1509","29.89","0.41868","5"],
    [51575,"HCEP03730542","2025-03-18 12:45:00","9.1453","3.21566","24.598","5.222","7.62","0.314","8.128","0.02","0.5","29.6887","4.70879","54.88","0","SATNPRO1509","29.778","0.41708","5"],
    [51576,"HCEP03730542","2025-03-18 13:00:00","9.1464","3.21616","24.571","5.202","7.61","0.292","7.316","0.02","0.93","29.693","4.70938","54.68","0","SATNPRO1509","29.678","0.4157","5"],
    [51577,"HCEP03730542","2025-03-18 13:15:00","9.1473","3.21638","24.61","5.172","7.61","0.266","6.651","0.02","0.4","29.6944","4.70957","54.36","0","SATNPRO1509","29.622","0.41492","5"],
    [51578,"HCEP03730542","2025-03-18 13:30:00","9.1474","3.21649","24.64","5.152","7.61","0.358","8.018","0.03","0.54","29.6955","4.70972","54.15","0","SATNPRO1509","29.498","0.41316","5"],
    [51579,"HCEP03730542","2025-03-18 13:45:00","9.1477","3.21644","24.658","5.131","7.61","0.391","7.839","0.09","1.77","29.6947","4.7096","53.93","0","SATNPRO1509","29.648","0.41528","5"],
    [51580,"HCEP03730542","2025-03-18 14:00:00","9.1479","3.21625","24.728","5.119","7.61","0.32","7.846","0.05","0.84","29.6925","4.70929","53.81","0","SATNPRO1509","29.432","0.41224","5"],
    [51581,"HCEP03730542","2025-03-18 14:15:00","9.1482","3.21626","24.799","5.107","7.61","0.467","7.613","0.04","1.2","29.6924","4.70927","53.68","0","SATNPRO1509","29.598","0.41458","5"],
    [51582,"HCEP03730542","2025-03-18 14:30:00","9.1485","3.21634","24.88","5.104","7.61","0.356","5.994","0.08","0.59","29.6929","4.70934","53.65","0","SATNPRO1509","29.508","0.41328","5"],
    [51583,"HCEP03730542","2025-03-18 14:45:00","9.1491","3.21644","25.015","5.091","7.61","0.274","5.812","0.05","0.42","29.6934","4.7094","53.52","0","SATNPRO1509","29.478","0.41292","5"],
    [51584,"HCEP03730542","2025-03-18 15:00:00","9.1493","3.21623","25.096","5.069","7.61","0.29","6.252","0.04","0.52","29.6911","4.70908","53.28","0","SATNPRO1509","29.362000000000002","0.41128","5"],
    [51585,"HCEP03730542","2025-03-18 15:15:00","9.1496","3.21608","25.242","5.065","7.6","0.304","6.416","0.08","0.65","29.6891","4.7088","53.24","0","SATNPRO1509","29.268","0.40996","5"],
    [51586,"HCEP03730542","2025-03-18 15:30:00","9.1496","3.21585","25.406","5.057","7.6","0.297","5.703","0.09","0.51","29.6868","4.70847","53.15","0","SATNPRO1509","29.436","0.4123","5"],
    [51587,"HCEP03730542","2025-03-18 15:45:00","9.1491","3.21558","25.507","5.06","7.6","0.302","5.798","0.09","0.87","29.6843","4.70814","53.18","0","SATNPRO1509","29.546","0.41384","5"],
    [51588,"HCEP03730542","2025-03-18 16:00:00","9.1492","3.21561","25.631","5.068","7.61","0.291","5.786","0.05","0.6","29.6845","4.70817","53.27","0","SATNPRO1509","29.43","0.41224","5"],
    [51589,"HCEP03730542","2025-03-18 16:15:00","9.1497","3.2158","25.788","5.07","7.6","0.274","5.879","0.06","0.51","29.686","4.70839","53.29","0","SATNPRO1509","29.432","0.41222","5"],
    [51590,"HCEP03730542","2025-03-18 16:30:00","9.15","3.21583","25.92","5.056","7.6","0.274","5.754","0.01","0.36","29.686","4.70839","53.14","0","SATNPRO1509","29.36","0.41126","5"],
    [51591,"HCEP03730542","2025-03-18 16:45:00","9.1503","3.21565","26.084","5.046","7.6","0.256","5.594","0.01","0.3","29.6838","4.70808","53.04","0","SATNPRO1509","29.284","0.41018","5"],
    [51592,"HCEP03730542","2025-03-18 17:00:00","9.15","3.21528","26.21","5.045","7.6","0.292","5.753","0.04","0.21","29.6802","4.70758","53.02","0","SATNPRO1509","29.332","0.41084","5"],
    [51593,"HCEP03730542","2025-03-18 17:15:00","9.15","3.21475","26.363","5.048","7.6","0.266","6.057","0.02","0.37","29.6748","4.70681","53.06","0","SATNPRO1509","29.326","0.41076","5"],
    [51594,"HCEP03730542","2025-03-18 17:30:00","9.1501","3.21428","26.509","5.065","7.6","0.272","5.938","0.01","0.42","29.6698","4.70609","53.24","0","SATNPRO1509","29.4","0.41176","5"],
    [51595,"HCEP03730542","2025-03-18 17:45:00","9.15","3.21335","26.661","5.084","7.61","0.281","5.776","0.04","0.42","29.6604","4.70476","53.43","0","SATNPRO1509","29.534","0.41364","5"],
    [51596,"HCEP03730542","2025-03-18 18:00:00","9.1502","3.21251","26.796","5.118","7.61","0.265","5.586","0.01","0.25","29.6516","4.7035","53.78","0","SATNPRO1509","29.402","0.41182","5"],
    [51597,"HCEP03730542","2025-03-18 18:15:00","9.1515","3.21176","26.91","5.123","7.61","0.274","6.04","0.03","2.21","29.6428","4.70222","53.84","0","SATNPRO1509","29.276","0.41008","5"],
    [51598,"HCEP03730542","2025-03-18 18:30:00","9.1522","3.21085","27.035","5.121","7.61","0.268","5.166","0.01","0.19","29.6329","4.7008","53.81","0","SATNPRO1509","29.18","0.4087","5"],
    [51599,"HCEP03730542","2025-03-18 18:45:00","9.1529","3.21054","27.124","5.119","7.61","0.35","10.493","0.17","12.45","29.6291","4.70026","53.79","0","SATNPRO1509","29.12","0.40786","5"],
    [51600,"HCEP03730542","2025-03-18 19:00:00","9.1531","3.21055","27.177","5.109","7.61","0.264","5.474","0.01","0.22","29.629","4.70023","53.68","0","SATNPRO1509","29.224","0.40934","5"],
    [51601,"HCEP03730542","2025-03-18 19:15:00","9.1531","3.2109","27.241","5.097","7.61","0.313","7.564","0.09","3.04","29.6326","4.70075","53.56","0","SATNPRO1509","29.322","0.41074","5"],
    [51602,"HCEP03730542","2025-03-18 19:30:00","9.1533","3.21059","27.277","5.094","7.61","2.493","38.885","2.68","35.77","29.6292","4.70027","53.53","0","SATNPRO1509","29.212","0.40918","5"],
    [51603,"HCEP03730542","2025-03-18 19:45:00","9.1533","3.21009","27.31","5.101","7.61","8.454","143.693","2.83","62.89","29.6241","4.69953","53.6","0","SATNPRO1509","29.272000000000002","0.41","5"],
    [51604,"HCEP03730542","2025-03-18 20:00:00","9.1539","3.20938","27.332","5.1","7.61","0.617","85.033","0.33","20.54","29.6163","4.69841","53.59","0","SATNPRO1509","29.126","0.40798","5"],
    [51605,"HCEP03730542","2025-03-18 20:15:00","9.1546","3.20904","27.31","5.104","7.61","0.265","4.799","0.01","0.2","29.6122","4.69781","53.62","0","SATNPRO1509","29.142","0.40816","5"],
    [51606,"HCEP03730542","2025-03-18 20:30:00","9.1549","3.20859","27.3","5.098","7.61","0.322","6.483","0.05","0.87","29.6074","4.69711","53.56","0","SATNPRO1509","29.102","0.40762","5"],
    [51607,"HCEP03730542","2025-03-18 20:45:00","9.1548","3.20851","27.342","5.099","7.61","0.297","7.335","0.04","1.3","29.6067","4.69701","53.57","0","SATNPRO1509","29.074","0.40722","5"],
    [51608,"HCEP03730542","2025-03-18 21:00:00","9.1545","3.20955","27.298","5.083","7.6","0.613","14.696","0.33","8.48","29.6176","4.69858","53.41","0","SATNPRO1509","29.156","0.40832","5"],
    [51609,"HCEP03730542","2025-03-18 21:15:00","9.1544","3.20971","27.309","5.074","7.6","0.34","7.54","0.09","1.41","29.6193","4.69882","53.31","0","SATNPRO1509","29.034","0.4067","5"],
    [51610,"HCEP03730542","2025-03-18 21:30:00","9.1545","3.2085","27.26","5.077","7.61","0.275","5.478","0.02","0.47","29.6068","4.69704","53.34","0","SATNPRO1509","28.968","0.40576","5"],
    [51611,"HCEP03730542","2025-03-18 21:45:00","9.1543","3.20855","27.194","5.093","7.61","12.824","262.736","2.46","92.87","29.6076","4.69715","53.51","0","SATNPRO1509","29.092","0.4075","5"],
    [51612,"HCEP03730542","2025-03-18 22:00:00","9.1538","3.20865","27.132","5.106","7.61","8.69","110.657","2.71","30.29","29.609","4.69735","53.64","0","SATNPRO1509","29.16","0.4084","5"],
    [51613,"HCEP03730542","2025-03-18 22:15:00","9.1533","3.20912","27.061","5.112","7.61","15.467","598.545","0.8","111.82","29.6142","4.69811","53.71","0","SATNPRO1509","29.178","0.4087","5"],
    [51614,"HCEP03730542","2025-03-18 22:30:00","9.1546","3.20819","26.957","5.12","7.61","14.533","496.458","1.04","94.24","29.6037","4.69657","53.79","0","SATNPRO1509","29.17","0.4086","5"],
    [51615,"HCEP03730542","2025-03-18 22:45:00","9.1526","3.21092","26.896","5.114","7.61","0.611","18.994","0.18","4.36","29.6333","4.70084","53.73","0","SATNPRO1509","29.306","0.41048","5"],
    [51616,"HCEP03730542","2025-03-18 23:00:00","9.152","3.2116","26.815","5.096","7.61","6.782","81.122","1.25","19.15","29.6408","4.70192","53.55","0","SATNPRO1509","29.288","0.4102","5"],
    [51617,"HCEP03730542","2025-03-18 23:15:00","9.1512","3.21189","26.747","5.095","7.61","10.988","177.313","2.51","59.51","29.6444","4.70244","53.54","0","SATNPRO1509","29.368000000000002","0.41136","5"],
    [51618,"HCEP03730542","2025-03-18 23:30:00","9.1519","3.21351","26.613","5.1","7.6","0.424","12.905","0.5","19.92","29.6605","4.70473","53.6","0","SATNPRO1509","29.374","0.41146","5"],
    [51619,"HCEP03730542","2025-03-18 23:45:00","9.1476","3.21309","26.597","5.06","7.6","0.252","4.922","0.01","0.19","29.6597","4.7047","53.17","0","SATNPRO1509","29.458","0.4126","5"],
    [51620,"HCEP03730542","2025-03-19 00:00:00","9.1475","3.21389","26.54","5.078","7.6","0.257","5.279","0.01","0.22","29.668","4.70589","53.36","0","SATNPRO1509","29.28","0.4101","5"],
    [51621,"HCEP03730542","2025-03-19 00:15:00","9.1307","3.20863","26.379","5.107","7.61","0.258","4.436","0.01","0.19","29.6283","4.7005","53.64","0","SATNPRO1509","29.538","0.41372","5"],
    [51622,"HCEP03730542","2025-03-19 00:30:00","9.1325","3.20979","26.391","5.264","7.62","2.327","50.083","2.44","24.32","29.6386","4.70195","55.29","0","SATNPRO1509","29.646","0.41524","5"],
    [51623,"HCEP03730542","2025-03-19 00:45:00","9.1287","3.20908","26.366","5.254","7.62","0.487","38.403","0.2","23.55","29.6346","4.70145","55.18","0","SATNPRO1509","29.5","0.41316","5"],
    [51624,"HCEP03730542","2025-03-19 01:00:00","9.1292","3.20957","26.303","5.255","7.62","0.284","5.496","0.02","0.26","29.6392","4.70209","55.19","0","SATNPRO1509","29.478","0.41286","5"],
    [51625,"HCEP03730542","2025-03-19 01:15:00","9.1313","3.21007","26.243","5.232","7.61","0.29","6.985","0.07","5.12","29.6426","4.70253","54.96","0","SATNPRO1509","29.424","0.41212","5"],
    [51626,"HCEP03730542","2025-03-19 01:30:00","9.1311","3.21008","26.321","5.217","7.61","0.37","6.872","0.05","2.47","29.6428","4.70258","54.79","0","SATNPRO1509","29.492","0.41308","5"],
    [51627,"HCEP03730542","2025-03-19 01:45:00","9.1283","3.20994","26.366","5.23","7.62","0.268","5.734","0.01","0.54","29.6437","4.70276","54.93","0","SATNPRO1509","29.74","0.41656","5"],
    [51628,"HCEP03730542","2025-03-19 02:00:00","9.1167","3.20761","26.429","5.278","7.62","0.294","5.585","0.03","0.56","29.6294","4.70093","55.41","0","SATNPRO1509","29.772000000000002","0.41698","5"],
    [51629,"HCEP03730542","2025-03-19 02:15:00","9.1098","3.20425","26.463","5.405","7.63","0.284","5.022","0.02","0.51","29.6008","4.69696","56.73","0","SATNPRO1509","30.08","0.42136","5"],
    [51630,"HCEP03730542","2025-03-19 02:30:00","9.1095","3.20436","26.547","5.503","7.64","0.318","6.67","0.03","0.85","29.6022","4.69716","57.75","0","SATNPRO1509","30.032","0.42066","5"],
    [51631,"HCEP03730542","2025-03-19 02:45:00","9.1101","3.20534","26.632","5.549","7.64","0.341","6.554","0.07","1.27","29.6116","4.69851","58.24","0","SATNPRO1509","30.132","0.42208","5"],
    [51632,"HCEP03730542","2025-03-19 03:00:00","9.1049","3.20523","26.712","5.568","7.64","0.725","53.847","0.42","23.3","29.6148","4.69907","58.43","0","SATNPRO1509","30.246","0.42366","5"],
    [51633,"HCEP03730542","2025-03-19 03:15:00","9.1029","3.20636","26.759","5.625","7.64","0.312","6.403","0.04","1.09","29.628","4.701","59.04","0","SATNPRO1509","30.422","0.42614","5"],
    [51634,"HCEP03730542","2025-03-19 03:30:00","9.1019","3.20699","26.811","5.628","7.64","0.305","6.634","0.04","0.5","29.6353","4.70207","59.08","0","SATNPRO1509","30.334","0.42484","5"],
    [51635,"HCEP03730542","2025-03-19 03:45:00","9.0993","3.20787","26.921","5.632","7.64","0.302","7.382","0.03","1.29","29.6464","4.70373","59.12","0","SATNPRO1509","30.322","0.42472","5"],
    [51636,"HCEP03730542","2025-03-19 04:00:00","9.0906","3.20799","26.887","5.649","7.65","0.307","6.808","0.05","0.95","29.6549","4.70509","59.29","0","SATNPRO1509","30.634","0.42908","5"],
    [51637,"HCEP03730542","2025-03-19 04:15:00","9.0878","3.20856","27.037","5.701","7.65","0.269","6.382","0.01","0.21","29.663","4.70632","59.83","0","SATNPRO1509","30.658","0.42944","5"],
    [51638,"HCEP03730542","2025-03-19 04:30:00","9.0905","3.20949","27.088","5.708","7.65","0.273","6.201","0.01","0.25","29.6702","4.70731","59.91","0","SATNPRO1509","30.468","0.42676","5"],
    [51639,"HCEP03730542","2025-03-19 04:45:00","9.0938","3.21031","27.212","5.674","7.65","0.284","6.955","0.03","0.53","29.6758","4.70805","59.56","0","SATNPRO1509","30.483999999999998","0.42696","5"],
    [51640,"HCEP03730542","2025-03-19 05:00:00","9.1004","3.2113","27.294","5.629","7.64","0.298","7.344","0.04","0.45","29.6804","4.70859","59.1","0","SATNPRO1509","30.4","0.42576","5"],
    [51641,"HCEP03730542","2025-03-19 05:15:00","9.1045","3.21186","27.232","5.548","7.64","0.309","7.86","0.05","1.08","29.6827","4.70884","58.25","0","SATNPRO1509","30.242","0.42358","5"],
    [51642,"HCEP03730542","2025-03-19 05:30:00","9.1098","3.21254","27.401","5.487","7.63","0.321","7.706","0.05","1.35","29.6853","4.70912","57.62","0","SATNPRO1509","30.232","0.42348","5"],
    [51643,"HCEP03730542","2025-03-19 05:45:00","9.1141","3.21316","27.406","5.438","7.63","0.328","7.422","0.05","0.92","29.688","4.70943","57.11","0","SATNPRO1509","30.166","0.42252","5"],
    [51644,"HCEP03730542","2025-03-19 06:00:00","9.1149","3.21343","27.459","5.403","7.63","0.272","6.877","0.02","0.61","29.6901","4.70973","56.75","0","SATNPRO1509","30.24","0.42356","5"],
    [51645,"HCEP03730542","2025-03-19 06:15:00","9.1147","3.21359","27.484","5.402","7.63","1.276","32.152","1.72","33.35","29.6918","4.70997","56.74","0","SATNPRO1509","30.259999999999998","0.42386","5"],
    [51646,"HCEP03730542","2025-03-19 06:30:00","9.1121","3.21332","27.567","5.421","7.63","6.565","68.189","3.33","24.39","29.6912","4.70994","56.93","0","SATNPRO1509","30.328","0.42478","5"],
    [51647,"HCEP03730542","2025-03-19 06:45:00","9.1063","3.21266","27.582","5.458","7.63","2.42","324.956","0.99","199.69","29.6893","4.70978","57.31","0","SATNPRO1509","30.412","0.426","5"],
    [51648,"HCEP03730542","2025-03-19 07:00:00","9.1023","3.21232","27.624","5.502","7.64","3.571","159.2","2.79","96.82","29.6891","4.70983","57.77","0","SATNPRO1509","30.564","0.4281","5"],
    [51649,"HCEP03730542","2025-03-19 07:15:00","9.099","3.2121","27.597","5.546","7.64","2.483","25.885","1.12","17.36","29.6896","4.70996","58.23","0","SATNPRO1509","30.54","0.42778","5"],
    [51650,"HCEP03730542","2025-03-19 07:30:00","9.0978","3.2121","27.492","5.58","7.64","9.321","388.99","3.84","224.64","29.6906","4.71012","58.58","0","SATNPRO1509","30.662","0.42948","5"],
    [51651,"HCEP03730542","2025-03-19 07:45:00","9.0977","3.21205","27.47","5.596","7.64","0.292","8.983","0.06","9.84","29.6903","4.71008","58.75","0","SATNPRO1509","30.626","0.42898","5"],
    [51652,"NA","2025-03-19 08:00:00",null,null,null,null,null,null,null,null,null,null,null,null,null,"SATNPRO1509","30.648","0.42926","5"],
    [51653,"HCEP03730542","2025-03-19 08:00:01","9.0946","3.21168","27.49","5.607","7.64","0.301","5.925","0.05","0.99","29.689","4.70995","58.87","0","NA",null,null,null],
    [51654,"HCEP03730542","2025-03-19 08:15:00","9.0937","3.21126","27.416","5.634","7.65","0.327","6.165","0.05","0.96","29.6855","4.70946","59.14","0","SATNPRO1509","30.668","0.42954","5"],
    [51655,"HCEP03730542","2025-03-19 08:30:00","9.0932","3.21102","27.257","5.651","7.65","0.323","5.388","0.11","2.31","29.6836","4.70918","59.32","0","SATNPRO1509","30.688","0.42982","5"],
    [51656,"HCEP03730542","2025-03-19 08:45:00","9.0916","3.21041","27.245","5.675","7.65","0.314","4.574","0.07","0.66","29.6786","4.70851","59.57","0","SATNPRO1509","30.82","0.43166","5"],
    [51657,"HCEP03730542","2025-03-19 09:00:00","9.0901","3.20988","27.081","5.701","7.65","0.375","4.718","0.1","0.56","29.6745","4.70794","59.84","0","SATNPRO1509","30.674","0.42966","5"],
    [51658,"HCEP03730542","2025-03-19 09:15:00","9.0908","3.20968","26.972","5.712","7.65","0.255","5.156","0.02","0.71","29.6719","4.70754","59.95","0","SATNPRO1509","30.782","0.43112","5"],
    [51659,"HCEP03730542","2025-03-19 09:30:00","9.0923","3.20942","26.798","5.708","7.65","0.312","4.692","0.04","0.4","29.6682","4.70696","59.91","0","SATNPRO1509","30.656","0.4294","5"],
    [51660,"HCEP03730542","2025-03-19 09:45:00","9.0951","3.20932","26.724","5.691","7.65","0.269","4.885","0.04","2.24","29.6648","4.70642","59.74","0","SATNPRO1509","30.556","0.42804","5"],
    [51661,"HCEP03730542","2025-03-19 10:00:00","9.1042","3.20923","26.508","5.668","7.65","0.256","4.454","0.01","0.35","29.6564","4.70504","59.5","0","SATNPRO1509","30.478","0.42692","5"],
    [51662,"HCEP03730542","2025-03-19 10:15:00","9.1065","3.20937","26.33","5.617","7.64","0.31","4.918","0.08","1.12","29.656","4.70492","58.97","0","SATNPRO1509","30.488","0.42704","5"],
    [51663,"HCEP03730542","2025-03-19 10:30:00","9.116","3.21023","26.187","5.575","7.64","0.309","3.464","0.03","0.23","29.657","4.70489","58.55","0","SATNPRO1509","30.364","0.42528","5"],
    [51664,"HCEP03730542","2025-03-19 10:45:00","9.1143","3.2108","25.989","5.5","7.64","0.318","5.596","0.06","0.6","29.6643","4.70595","57.76","0","SATNPRO1509","30.328","0.4248","5"],
    [51665,"HCEP03730542","2025-03-19 11:00:00","9.1115","3.21108","25.811","5.483","7.63","0.298","5.87","0.03","0.39","29.6696","4.70675","57.57","0","SATNPRO1509","30.254","0.42374","5"],
    [51666,"HCEP03730542","2025-03-19 11:15:00","9.1151","3.21173","25.623","5.469","7.63","0.27","5.336","0.02","0.28","29.6732","4.70719","57.43","0","SATNPRO1509","30.19","0.42284","5"],
    [51667,"HCEP03730542","2025-03-19 11:30:00","9.1165","3.21208","25.424","5.431","7.63","0.27","5.529","0.01","0.25","29.6758","4.70752","57.04","0","SATNPRO1509","30.188000000000002","0.42284","5"],
    [51668,"HCEP03730542","2025-03-19 11:45:00","9.119","3.21241","25.225","5.398","7.63","0.27","5.63","0.03","0.22","29.6772","4.70766","56.7","0","SATNPRO1509","30.22","0.42328","5"],
    [51669,"HCEP03730542","2025-03-19 12:00:00","9.1191","3.21264","25.067","5.377","7.63","0.598","50.234","0.35","27.34","29.6794","4.70798","56.48","0","SATNPRO1509","30.183999999999997","0.42278","5"],
    [51670,"HCEP03730542","2025-03-19 12:15:00","9.1194","3.21276","24.978","5.355","7.63","0.764","22.888","0.15","8.94","29.6805","4.70812","56.24","0","SATNPRO1509","30.072","0.4212","5"],
    [51671,"HCEP03730542","2025-03-19 12:30:00","9.1199","3.21285","24.854","5.34","7.62","0.308","14.225","0.09","19.48","29.681","4.70817","56.09","0","SATNPRO1509","29.952","0.41954","5"],
    [51672,"HCEP03730542","2025-03-19 12:45:00","9.1232","3.21299","24.756","5.318","7.62","0.257","6.12","0.01","0.16","29.6798","4.70793","55.86","0","SATNPRO1509","30.056","0.42098","5"],
    [51673,"HCEP03730542","2025-03-19 13:00:00","9.1252","3.21317","24.629","5.294","7.62","0.262","6.263","0.01","0.35","29.6799","4.7079","55.61","0","SATNPRO1509","29.916","0.41904","5"],
    [51674,"HCEP03730542","2025-03-19 13:15:00","9.1262","3.21332","24.606","5.262","7.62","0.254","6.867","0.01","1.9","29.6807","4.708","55.28","0","SATNPRO1509","29.882","0.41854","5"],
    [51675,"HCEP03730542","2025-03-19 13:30:00","9.1283","3.21342","24.688","5.242","7.62","0.256","6.237","0.01","0.19","29.6799","4.70784","55.06","0","SATNPRO1509","29.814","0.41758","5"],
    [51676,"HCEP03730542","2025-03-19 13:45:00","9.1283","3.21355","24.664","5.222","7.62","0.278","6.753","0.04","0.63","29.6813","4.70804","54.86","0","SATNPRO1509","29.792","0.41726","5"],
    [51677,"HCEP03730542","2025-03-19 14:00:00","9.1297","3.21356","24.653","5.207","7.61","0.265","6.229","0.01","0.22","29.6803","4.70787","54.7","0","SATNPRO1509","29.74","0.4166","5"],
    [51678,"HCEP03730542","2025-03-19 14:15:00","9.1293","3.2136","24.713","5.192","7.61","0.262","6.848","0.02","0.23","29.6809","4.70797","54.54","0","SATNPRO1509","29.778","0.41706","5"],
    [51679,"HCEP03730542","2025-03-19 14:30:00","9.1298","3.21377","24.701","5.184","7.61","0.263","6.605","0.01","0.21","29.6823","4.70816","54.47","0","SATNPRO1509","29.894000000000002","0.4187","5"],
    [51680,"HCEP03730542","2025-03-19 14:45:00","9.1307","3.2139","24.794","5.183","7.61","0.254","6.163","0.01","0.18","29.6828","4.70823","54.45","0","SATNPRO1509","29.78","0.4171","5"],
    [51681,"HCEP03730542","2025-03-19 15:00:00","9.131","3.21413","24.843","5.174","7.61","0.272","7.051","0.01","0.23","29.6848","4.70851","54.36","0","SATNPRO1509","29.855999999999998","0.4182","5"],
    [51682,"HCEP03730542","2025-03-19 15:15:00","9.1313","3.21476","24.953","5.162","7.61","0.266","7.401","0.01","0.17","29.691","4.7094","54.24","0","SATNPRO1509","29.572","0.41424","5"],
    [51683,"HCEP03730542","2025-03-19 15:30:00","9.1331","3.2146","25.067","5.139","7.61","0.269","6.886","0.01","0.23","29.6878","4.70892","54","0","SATNPRO1509","29.612","0.41476","5"],
    [51684,"HCEP03730542","2025-03-19 15:45:00","9.134","3.2144","25.203","5.129","7.61","0.254","6.38","0.01","0.12","29.685","4.7085","53.89","0","SATNPRO1509","29.744","0.4166","5"],
    [51685,"HCEP03730542","2025-03-19 16:00:00","9.1331","3.21394","25.296","5.135","7.61","0.255","5.171","0.01","0.11","29.681","4.70795","53.95","0","SATNPRO1509","29.744","0.41662","5"],
    [51686,"HCEP03730542","2025-03-19 16:15:00","9.1321","3.21367","25.411","5.156","7.61","0.244","4.897","0.01","0.14","29.6791","4.7077","54.17","0","SATNPRO1509","29.772","0.41698","5"],
    [51687,"HCEP03730542","2025-03-19 16:30:00","9.1316","3.2135","25.535","5.174","7.61","0.247","4.826","0.01","0.07","29.6777","4.70752","54.35","0","SATNPRO1509","29.778","0.41712","5"],
    [51688,"HCEP03730542","2025-03-19 16:45:00","9.1311","3.21341","25.687","5.177","7.61","0.245","5.107","0.01","0.2","29.6771","4.70745","54.39","0","SATNPRO1509","29.838","0.41796","5"],
    [51689,"HCEP03730542","2025-03-19 17:00:00","9.1307","3.21341","25.788","5.183","7.61","0.255","4.869","0.02","0.31","29.6774","4.7075","54.45","0","SATNPRO1509","29.875999999999998","0.41848","5"],
    [51690,"HCEP03730542","2025-03-19 17:15:00","9.1305","3.21329","25.928","5.187","7.61","0.248","5.178","0.01","0.29","29.6763","4.70736","54.5","0","SATNPRO1509","29.796","0.41734","5"],
    [51691,"HCEP03730542","2025-03-19 17:30:00","9.1295","3.2131","26.1","5.195","7.61","0.269","5.786","0.02","0.94","29.6751","4.70721","54.57","0","SATNPRO1509","29.843999999999998","0.41802","5"],
    [51692,"HCEP03730542","2025-03-19 17:45:00","9.1285","3.21275","26.25","5.209","7.61","0.241","4.777","0.01","0.16","29.6723","4.70684","54.72","0","SATNPRO1509","29.894","0.41874","5"],
    [51693,"HCEP03730542","2025-03-19 18:00:00","9.1279","3.2127","26.439","5.225","7.61","0.258","5.38","0.01","0.15","29.6722","4.70685","54.89","0","SATNPRO1509","29.908","0.41894","5"],
    [51694,"HCEP03730542","2025-03-19 18:15:00","9.1285","3.21252","26.608","5.215","7.61","0.254","5.573","0.01","0.14","29.6698","4.70651","54.78","0","SATNPRO1509","29.838","0.41792","5"],
    [51695,"HCEP03730542","2025-03-19 18:30:00","9.1278","3.21225","26.732","5.22","7.61","0.252","4.896","0.01","0.08","29.6675","4.7062","54.83","0","SATNPRO1509","29.82","0.41768","5"],
    [51696,"HCEP03730542","2025-03-19 18:45:00","9.129","3.21214","26.834","5.227","7.61","0.245","4.546","0.01","0.1","29.6654","4.70589","54.91","0","SATNPRO1509","29.904","0.41886","5"],
    [51697,"HCEP03730542","2025-03-19 19:00:00","9.1362","3.21294","26.989","5.2","7.61","0.695","11.861","1.34","14.45","29.6676","4.70607","54.63","0","SATNPRO1509","29.494","0.4131","5"],
    [51698,"HCEP03730542","2025-03-19 19:15:00","9.1416","3.21361","27.047","5.102","7.6","0.459","16.865","0.11","11.13","29.6699","4.7063","53.61","0","SATNPRO1509","29.436","0.41232","5"],
    [51699,"HCEP03730542","2025-03-19 19:30:00","9.1417","3.21397","27.179","5.061","7.6","0.278","7.062","0.03","1.07","29.6734","4.70681","53.18","0","SATNPRO1509","29.55","0.4139","5"],
    [51700,"HCEP03730542","2025-03-19 19:45:00","9.1428","3.21426","27.324","5.059","7.6","0.261","6.874","0.01","0.22","29.6754","4.70709","53.16","0","SATNPRO1509","29.516000000000002","0.41346","5"],
    [51701,"HCEP03730542","2025-03-19 20:00:00","9.1428","3.21432","27.323","5.036","7.6","0.274","6.92","0.02","0.27","29.676","4.70718","52.92","0","SATNPRO1509","29.438000000000002","0.41234","5"],
    [51702,"HCEP03730542","2025-03-19 20:15:00","9.1433","3.21444","27.404","5.019","7.6","0.459","12.555","0.87","16.1","29.6768","4.70728","52.75","0","SATNPRO1509","29.388","0.41162","5"],
    [51703,"HCEP03730542","2025-03-19 20:30:00","9.143","3.2148","27.43","5.022","7.6","0.709","30.288","0.33","17.23","29.6806","4.70784","52.77","0","SATNPRO1509","29.376","0.41144","5"],
    [51704,"HCEP03730542","2025-03-19 20:45:00","9.1333","3.21163","27.386","5.029","7.6","0.269","6.412","0.03","2.29","29.6563","4.70454","52.83","0","SATNPRO1509","29.692","0.41592","5"],
    [51705,"HCEP03730542","2025-03-19 21:00:00","9.1396","3.21424","27.385","5.144","7.6","0.267","6.397","0.01","0.24","29.6779","4.70751","54.05","0","SATNPRO1509","29.36","0.41124","5"],
    [51706,"HCEP03730542","2025-03-19 21:15:00","9.1403","3.2147","27.442","5.054","7.6","0.69","16.779","1.05","18.06","29.6819","4.70807","53.11","0","SATNPRO1509","29.346","0.41104","5"],
    [51707,"HCEP03730542","2025-03-19 21:30:00","9.1401","3.21498","27.475","5.017","7.6","0.276","7.623","0.02","0.71","29.6849","4.70851","52.72","0","SATNPRO1509","29.476","0.41288","5"],
    [51708,"HCEP03730542","2025-03-19 21:45:00","9.1391","3.21502","27.518","5.014","7.6","0.289","8.47","0.02","1.51","29.6861","4.7087","52.69","0","SATNPRO1509","29.4","0.41182","5"],
    [51709,"HCEP03730542","2025-03-19 22:00:00","9.137","3.21456","27.445","5.012","7.6","0.299","7.503","0.04","1.18","29.6833","4.70833","52.67","0","SATNPRO1509","29.625999999999998","0.41498","5"],
    [51710,"HCEP03730542","2025-03-19 22:15:00","9.1359","3.21444","27.359","5.048","7.6","0.267","6.456","0.01","0.63","29.6829","4.70829","53.04","0","SATNPRO1509","29.698","0.41598","5"],
    [51711,"HCEP03730542","2025-03-19 22:30:00","9.1366","3.21474","27.324","5.068","7.6","0.281","6.988","0.02","0.63","29.6855","4.70865","53.26","0","SATNPRO1509","29.512","0.41338","5"],
    [51712,"HCEP03730542","2025-03-19 22:45:00","9.1358","3.21492","27.371","5.051","7.6","0.264","6.441","0.01","0.35","29.6879","4.70901","53.08","0","SATNPRO1509","29.556","0.41398","5"],
    [51713,"HCEP03730542","2025-03-19 23:00:00","9.1343","3.21483","27.264","5.055","7.6","0.272","7.29","0.02","1.32","29.6883","4.70908","53.11","0","SATNPRO1509","29.594","0.41452","5"],
    [51714,"HCEP03730542","2025-03-19 23:15:00","9.1325","3.21462","27.204","5.071","7.6","0.26","7.118","0.01","1.91","29.6877","4.70903","53.28","0","SATNPRO1509","29.744","0.41664","5"],
    [51715,"HCEP03730542","2025-03-19 23:30:00","9.1295","3.2143","27.18","5.104","7.61","0.309","7.711","0.05","2.24","29.6869","4.70897","53.62","0","SATNPRO1509","29.834","0.4179","5"],
    [51716,"HCEP03730542","2025-03-19 23:45:00","9.1291","3.21426","27.149","5.128","7.61","0.275","6.355","0.02","0.81","29.6869","4.70898","53.88","0","SATNPRO1509","29.768","0.41694","5"],
    [51717,"HCEP03730542","2025-03-20 00:00:00","9.1252","3.21281","27.102","5.138","7.61","0.288","5.942","0.02","0.78","29.6753","4.70739","53.97","0","SATNPRO1509","29.866","0.41834","5"],
    [51718,"HCEP03730542","2025-03-20 00:15:00","9.1238","3.20988","26.997","5.219","7.62","0.259","3.008","0.04","0.17","29.6465","4.70327","54.81","0","SATNPRO1509","30.154","0.42238","5"],
    [51719,"HCEP03730542","2025-03-20 00:30:00","9.123","3.2091","26.921","5.307","7.62","0.281","3.927","0.04","0.69","29.6392","4.70225","55.73","0","SATNPRO1509","30.238","0.42356","5"],
    [51720,"HCEP03730542","2025-03-20 00:45:00","9.1231","3.20896","26.874","5.351","7.62","0.566","36.758","0.29","24.83","29.6378","4.70204","56.19","0","SATNPRO1509","30.169999999999998","0.42258","5"],
    [51721,"HCEP03730542","2025-03-20 01:00:00","9.1223","3.20809","26.827","5.373","7.62","0.732","51.155","0.11","24.33","29.6296","4.70087","56.42","0","SATNPRO1509","30.256","0.42376","5"],
    [51722,"HCEP03730542","2025-03-20 01:15:00","9.1212","3.20827","26.739","5.381","7.62","0.271","4.298","0.02","0.33","29.6323","4.70128","56.51","0","SATNPRO1509","30.174","0.42268","5"],
    [51723,"HCEP03730542","2025-03-20 01:30:00","9.1214","3.20845","26.708","5.379","7.62","0.294","4.813","0.04","0.62","29.634","4.70152","56.49","0","SATNPRO1509","30.16","0.42246","5"],
    [51724,"HCEP03730542","2025-03-20 01:45:00","9.1167","3.21171","26.625","5.355","7.62","0.275","6.124","0.02","0.4","29.6713","4.70694","56.23","0","SATNPRO1509","29.896","0.41876","5"],
    [51725,"HCEP03730542","2025-03-20 02:00:00","9.1149","3.21192","26.645","5.298","7.62","0.274","6.523","0.01","0.24","29.675","4.7075","55.63","0","SATNPRO1509","29.784000000000002","0.41716","5"],
    [51726,"HCEP03730542","2025-03-20 02:15:00","9.1136","3.21161","26.635","5.276","7.62","0.433","49.107","0.07","15.54","29.6728","4.70722","55.4","0","SATNPRO1509","29.964000000000002","0.41972","5"],
    [51727,"HCEP03730542","2025-03-20 02:30:00","9.1112","3.21116","26.618","5.296","7.62","0.88","45.178","0.47","17.76","29.6703","4.70691","55.61","0","SATNPRO1509","30.008","0.42032","5"],
    [51728,"HCEP03730542","2025-03-20 02:45:00","9.1069","3.21011","26.599","5.342","7.62","0.266","6.582","0.02","0.45","29.6631","4.70596","56.09","0","SATNPRO1509","30.144","0.4222","5"],
    [51729,"HCEP03730542","2025-03-20 03:00:00","9.1045","3.20968","26.653","5.427","7.63","0.3","6.254","0.05","0.95","29.6608","4.70567","56.98","0","SATNPRO1509","30.428","0.4262","5"],
    [51730,"HCEP03730542","2025-03-20 03:15:00","9.1036","3.20928","26.732","5.483","7.63","0.251","6.181","0.01","0.41","29.6574","4.7052","57.56","0","SATNPRO1509","30.394000000000002","0.42572","5"],
    [51731,"HCEP03730542","2025-03-20 03:30:00","9.1014","3.20905","26.731","5.526","7.64","0.25","5.657","0.01","0.22","29.6568","4.70516","58.01","0","SATNPRO1509","30.614","0.42878","5"],
    [51732,"HCEP03730542","2025-03-20 03:45:00","9.0992","3.20904","26.821","5.575","7.64","0.247","6.043","0.01","0.17","29.6585","4.70544","58.52","0","SATNPRO1509","30.650000000000002","0.42932","5"],
    [51733,"HCEP03730542","2025-03-20 04:00:00","9.0959","3.20887","26.874","5.608","7.64","0.254","6.053","0.01","0.35","29.6595","4.70566","58.86","0","SATNPRO1509","30.776","0.43106","5"],
    [51734,"HCEP03730542","2025-03-20 04:15:00","9.0942","3.20858","26.865","5.648","7.64","0.247","5.829","0.02","0.24","29.6579","4.70546","59.28","0","SATNPRO1509","30.63","0.42904","5"],
    [51735,"HCEP03730542","2025-03-20 04:30:00","9.0911","3.20806","26.974","5.669","7.65","0.492","9.546","0.73","11.3","29.6551","4.70513","59.49","0","SATNPRO1509","30.89","0.43268","5"],
    [51736,"HCEP03730542","2025-03-20 04:45:00","9.0883","3.20754","27.007","5.707","7.65","0.244","5.582","0.01","0.18","29.6522","4.70476","59.88","0","SATNPRO1509","30.84","0.43198","5"],
    [51737,"HCEP03730542","2025-03-20 05:00:00","9.0871","3.20722","27.064","5.757","7.65","0.249","5.239","0.01","0.19","29.6499","4.70445","60.41","0","SATNPRO1509","30.956","0.4336","5"],
    [51738,"HCEP03730542","2025-03-20 05:15:00","9.0873","3.20714","27.148","5.766","7.65","0.245","5.57","0.01","0.17","29.6488","4.70431","60.51","0","SATNPRO1509","30.766","0.43094","5"],
    [51739,"HCEP03730542","2025-03-20 05:30:00","9.0874","3.2074","27.17","5.763","7.65","0.254","5.743","0.01","0.2","29.6514","4.70467","60.48","0","SATNPRO1509","30.852","0.43216","5"],
    [51740,"HCEP03730542","2025-03-20 05:45:00","9.0877","3.20787","27.203","5.758","7.65","0.246","5.945","0.01","0.23","29.656","4.70533","60.43","0","SATNPRO1509","30.71","0.43018","5"],
    [51741,"HCEP03730542","2025-03-20 06:00:00","9.0869","3.20842","27.291","5.742","7.65","0.252","5.892","0.01","0.21","29.6622","4.70624","60.26","0","SATNPRO1509","30.898","0.43278","5"],
    [51742,"HCEP03730542","2025-03-20 06:15:00","9.0869","3.20873","27.324","5.728","7.65","0.244","5.966","0.01","0.21","29.6653","4.70669","60.12","0","SATNPRO1509","30.826","0.43174","5"],
    [51743,"HCEP03730542","2025-03-20 06:30:00","9.0864","3.20907","27.333","5.725","7.65","0.25","5.461","0.01","0.22","29.6692","4.70725","60.08","0","SATNPRO1509","30.958","0.43362","5"],
    [51744,"HCEP03730542","2025-03-20 06:45:00","9.0844","3.20924","27.395","5.73","7.65","0.237","5.081","0.01","0.26","29.6726","4.70779","60.14","0","SATNPRO1509","30.884","0.43262","5"],
    [51745,"HCEP03730542","2025-03-20 07:00:00","9.0888","3.20952","27.4","5.734","7.65","0.257","6.308","0.01","0.23","29.6719","4.7076","60.18","0","SATNPRO1509","30.822","0.4317","5"],
    [51746,"HCEP03730542","2025-03-20 07:15:00","9.0919","3.20959","27.414","5.688","7.65","0.258","6.961","0.01","0.86","29.6699","4.70726","59.71","0","SATNPRO1509","30.754","0.43078","5"],
    [51747,"HCEP03730542","2025-03-20 07:30:00","9.0901","3.20896","27.42","5.659","7.65","0.365","6.421","0.08","0.68","29.665","4.70658","59.39","0","SATNPRO1509","30.852","0.43214","5"],
    [51748,"HCEP03730542","2025-03-20 07:45:00","9.0918","3.20888","27.419","5.688","7.65","0.279","5.584","0.06","0.33","29.6627","4.70623","59.7","0","SATNPRO1509","30.724","0.43036","5"],
    [51749,"HCEP03730542","2025-03-20 08:00:00","9.0923","3.20837","27.377","5.68","7.65","0.294","5.135","0.03","0.29","29.6572","4.70543","59.62","0","SATNPRO1509","30.676","0.42966","5"],
    [51750,"HCEP03730542","2025-03-20 08:15:00","9.0922","3.20842","27.367","5.696","7.65","0.266","4.98","0.05","0.34","29.6578","4.70551","59.78","0","SATNPRO1509","30.78","0.43116","5"],
    [51751,"HCEP03730542","2025-03-20 08:30:00","9.0916","3.20808","27.347","5.704","7.65","0.346","5.158","0.06","0.38","29.6548","4.70509","59.86","0","SATNPRO1509","30.868000000000002","0.43232","5"],
    [51752,"HCEP03730542","2025-03-20 08:45:00","9.0997","3.20865","27.38","5.718","7.65","0.263","4.609","0.03","0.33","29.6538","4.7048","60.02","0","SATNPRO1509","30.916","0.43304","5"],
    [51753,"HCEP03730542","2025-03-20 09:00:00","9.103","3.20968","27.339","5.683","7.65","0.293","7.011","0.06","1.43","29.6617","4.70587","59.66","0","SATNPRO1509","30.69","0.42982","5"],
    [51754,"HCEP03730542","2025-03-20 09:15:00","9.1077","3.21031","27.252","5.613","7.64","0.249","4.48","0.04","0.29","29.6642","4.70614","58.93","0","SATNPRO1509","30.812","0.43156","5"],
    [51755,"HCEP03730542","2025-03-20 09:30:00","9.1105","3.21037","27.205","5.543","7.64","0.263","4.908","0.02","0.21","29.6625","4.70583","58.21","0","SATNPRO1509","30.522000000000002","0.42754","5"],
    [51756,"HCEP03730542","2025-03-20 09:45:00","9.111","3.20913","27.136","5.512","7.64","0.308","5.155","0.01","0.25","29.6495","4.70396","57.88","0","SATNPRO1509","30.456","0.4266","5"],
    [51757,"HCEP03730542","2025-03-20 10:00:00","9.1108","3.20869","26.777","5.526","7.64","0.299","5.025","0.02","0.19","29.6453","4.70334","58.02","0","SATNPRO1509","30.344","0.42504","5"],
    [51758,"HCEP03730542","2025-03-20 10:15:00","9.1151","3.20928","26.683","5.499","7.63","0.284","5.304","0.03","0.26","29.6478","4.70361","57.74","0","SATNPRO1509","30.386","0.4256","5"],
    [51759,"HCEP03730542","2025-03-20 10:30:00","9.1197","3.20909","26.564","5.454","7.63","0.253","5.236","0.01","0.25","29.642","4.70269","57.28","0","SATNPRO1509","30.246","0.42366","5"],
    [51760,"HCEP03730542","2025-03-20 10:45:00","9.1177","3.20856","26.373","5.398","7.63","0.259","5.777","0.01","0.42","29.6384","4.70219","56.68","0","SATNPRO1509","30.236","0.4235","5"],
    [51761,"HCEP03730542","2025-03-20 11:00:00","9.119","3.20811","26.234","5.394","7.63","0.267","5.355","0.01","0.23","29.6327","4.70135","56.64","0","SATNPRO1509","30.134","0.4221","5"],
    [51762,"HCEP03730542","2025-03-20 11:15:00","9.1187","3.20742","26.033","5.407","7.63","0.279","5.501","0.02","0.3","29.6261","4.70039","56.77","0","SATNPRO1509","30.318","0.42468","5"],
    [51763,"HCEP03730542","2025-03-20 11:30:00","9.1196","3.20727","25.941","5.417","7.63","0.308","6.191","0.02","0.22","29.6238","4.70005","56.87","0","SATNPRO1509","30.19","0.42288","5"],
    [51764,"HCEP03730542","2025-03-20 11:45:00","9.1225","3.20646","25.752","5.394","7.62","0.289","7.326","0.02","0.44","29.6132","4.69845","56.63","0","SATNPRO1509","30.041999999999998","0.4208","5"],
    [51765,"HCEP03730542","2025-03-20 12:00:00","9.1242","3.20693","25.5","5.353","7.62","0.312","8.225","0.04","0.37","29.6167","4.69891","56.21","0","SATNPRO1509","30.032","0.42064","5"],
    [51766,"HCEP03730542","2025-03-20 12:15:00","9.1252","3.20682","25.298","5.333","7.62","0.306","8.701","0.02","0.54","29.6148","4.69861","55.99","0","SATNPRO1509","30","0.42018","5"],
    [51767,"HCEP03730542","2025-03-20 12:30:00","9.1263","3.20624","25.143","5.327","7.62","0.314","8.73","0.04","0.28","29.6081","4.69761","55.94","0","SATNPRO1509","29.928","0.41922","5"],
    [51768,"HCEP03730542","2025-03-20 12:45:00","9.129","3.20537","25.113","5.317","7.62","0.302","8.578","0.02","1.19","29.5969","4.69596","55.82","0","SATNPRO1509","29.996","0.42012","5"],
    [51769,"HCEP03730542","2025-03-20 13:00:00","9.1324","3.20456","24.981","5.278","7.62","0.328","8.175","0.04","0.32","29.5859","4.69431","55.41","0","SATNPRO1509","29.689999999999998","0.41584","5"],
    [51770,"HCEP03730542","2025-03-20 13:15:00","9.1362","3.20424","24.844","5.227","7.61","0.306","8.003","0.01","0.35","29.5795","4.69331","54.88","0","SATNPRO1509","29.61","0.41476","5"],
    [51771,"HCEP03730542","2025-03-20 13:30:00","9.1393","3.20416","24.758","5.169","7.61","0.318","7.579","0.03","0.4","29.5761","4.69277","54.28","0","SATNPRO1509","29.398","0.41178","5"],
    [51772,"HCEP03730542","2025-03-20 13:45:00","9.1406","3.20377","24.611","5.14","7.61","0.385","15.005","0.06","14.24","29.5711","4.69202","53.97","0","SATNPRO1509","29.37","0.41136","5"],
    [51773,"HCEP03730542","2025-03-20 14:00:00","9.1405","3.20268","24.572","5.135","7.61","1.046","15.456","0.66","3.86","29.5601","4.69044","53.91","0","SATNPRO1509","29.227999999999998","0.4094","5"],
    [51774,"HCEP03730542","2025-03-20 14:15:00","9.1395","3.20161","24.507","5.138","7.61","1.047","11.144","0.53","4.67","29.5501","4.68902","53.95","0","SATNPRO1509","29.338","0.41094","5"],
    [51775,"HCEP03730542","2025-03-20 14:30:00","9.14","3.2014","24.585","5.137","7.61","0.517","11.968","0.24","5.52","29.5475","4.68863","53.93","0","SATNPRO1509","29.338","0.41094","5"],
    [51776,"HCEP03730542","2025-03-20 14:45:00","9.1398","3.20102","24.627","5.127","7.61","0.361","8.246","0.04","1.87","29.5438","4.68811","53.83","0","SATNPRO1509","29.18","0.40876","5"],
    [51777,"HCEP03730542","2025-03-20 15:00:00","9.139","3.20054","24.638","5.129","7.61","0.429","10.346","0.09","1.94","29.5394","4.68751","53.85","0","SATNPRO1509","29.268","0.40994","5"],
    [51778,"HCEP03730542","2025-03-20 15:15:00","9.1392","3.2003","24.723","5.136","7.61","0.338","7.594","0.03","1.12","29.5368","4.68713","53.92","0","SATNPRO1509","29.194","0.4089","5"],
    [51779,"HCEP03730542","2025-03-20 15:30:00","9.1402","3.2003","24.787","5.128","7.61","0.317","6.56","0.02","0.57","29.536","4.68701","53.84","0","SATNPRO1509","29.172","0.40856","5"],
    [51780,"HCEP03730542","2025-03-20 15:45:00","9.1407","3.20037","24.76","5.117","7.6","0.316","9.026","0.03","4.43","29.5362","4.68702","53.72","0","SATNPRO1509","29.22","0.40926","5"],
    [51781,"HCEP03730542","2025-03-20 16:00:00","9.1425","3.20092","24.899","5.093","7.6","0.325","6.645","0.02","0.56","29.5403","4.68758","53.47","0","SATNPRO1509","29.198","0.40898","5"],
    [51782,"HCEP03730542","2025-03-20 16:15:00","9.142","3.20063","24.967","5.071","7.6","0.411","9.907","0.09","3.39","29.5378","4.68723","53.25","0","SATNPRO1509","29.009999999999998","0.4063","5"],
    [51783,"HCEP03730542","2025-03-20 16:30:00","9.1415","3.20019","25.008","5.07","7.6","0.365","8.177","0.07","3.15","29.5336","4.68665","53.23","0","SATNPRO1509","29.072","0.4072","5"],
    [51784,"HCEP03730542","2025-03-20 16:45:00","9.1413","3.19987","25.156","5.076","7.6","0.327","7.427","0.04","2.59","29.5305","4.68621","53.29","0","SATNPRO1509","29.066","0.4071","5"],
    [51785,"HCEP03730542","2025-03-20 17:00:00","9.1403","3.19944","25.246","5.086","7.6","0.337","7.153","0.03","2.29","29.5269","4.68572","53.39","0","SATNPRO1509","29.028000000000002","0.40656","5"],
    [51786,"HCEP03730542","2025-03-20 17:15:00","9.1398","3.19912","25.328","5.094","7.6","0.343","8.042","0.03","2.77","29.524","4.68531","53.47","0","SATNPRO1509","29.041999999999998","0.40676","5"],
    [51787,"HCEP03730542","2025-03-20 17:30:00","9.1384","3.19867","25.58","5.109","7.6","0.341","6.735","0.03","1.8","29.5205","4.68486","53.63","0","SATNPRO1509","29.206","0.40906","5"],
    [51788,"HCEP03730542","2025-03-20 17:45:00","9.136","3.19824","25.669","5.121","7.6","0.344","7.388","0.02","1.1","29.5181","4.68456","53.75","0","SATNPRO1509","29.204","0.40908","5"],
    [51789,"HCEP03730542","2025-03-20 18:00:00","9.1318","3.1969","25.791","5.132","7.61","0.363","6.736","0.03","0.88","29.5078","4.68317","53.86","0","SATNPRO1509","29.27","0.40996","5"],
    [51790,"HCEP03730542","2025-03-20 18:15:00","9.1297","3.196","25.915","5.163","7.61","0.372","7.625","0.03","1.89","29.5003","4.68214","54.18","0","SATNPRO1509","29.16","0.40846","5"],
    [51791,"HCEP03730542","2025-03-20 18:30:00","9.1139","3.18425","26.183","5.208","7.61","0.379","6.722","0.03","1.57","29.3932","4.66709","54.59","0","SATNPRO1509","29.026","0.40656","5"],
    [51792,"HCEP03730542","2025-03-20 18:45:00","9.0447","3.12348","26.316","5.414","7.64","3.794","63.026","3.96","25.21","28.8294","4.58733","56.49","0","SATNPRO1509","25.996","0.36412","5"],
    [51793,"HCEP03730542","2025-03-20 19:00:00","9.0948","3.16837","26.481","5.528","7.63","2.518","47.034","1.9","33.52","29.2467","4.64642","57.88","0","SATNPRO1509","28.326","0.39674","5"],
    [51794,"HCEP03730542","2025-03-20 19:15:00","9.1236","3.19006","26.677","5.397","7.62","6.838","244.567","3.26","156.88","29.4444","4.67428","56.6","0","SATNPRO1509","28.894000000000002","0.40472","5"],
    [51795,"HCEP03730542","2025-03-20 19:30:00","9.1216","3.18674","26.795","5.269","7.62","4.246","272.648","1.33","231.89","29.412","4.66968","55.25","0","SATNPRO1509","28.936","0.4053","5"],
    [51796,"HCEP03730542","2025-03-20 19:45:00","9.1252","3.19221","26.932","5.219","7.61","1.332","373.866","0.53","82.83","29.4648","4.67719","54.75","0","SATNPRO1509","28.998","0.40612","5"],
    [51797,"HCEP03730542","2025-03-20 20:00:00","9.0862","3.15785","27.119","5.252","7.62","0.558","12.158","0.07","5.47","29.1461","4.63216","54.93","0","SATNPRO1509","28.148","0.39428","5"],
    [51798,"HCEP03730542","2025-03-20 20:15:00","9.1","3.17165","27.339","5.452","7.63","0.454","6.785","0.02","0.29","29.2755","4.65051","57.09","0","SATNPRO1509","28.746","0.40264","5"],
    [51799,"HCEP03730542","2025-03-20 20:30:00","9.1095","3.18092","27.388","5.421","7.62","2.507","20.869","1.84","12.81","29.3623","4.6628","56.81","0","SATNPRO1509","28.784","0.40318","5"],
    [51800,"HCEP03730542","2025-03-20 20:45:00","9.1145","3.18649","27.491","5.346","7.62","0.636","51.403","0.15","14.9","29.4151","4.67029","56.05","0","SATNPRO1509","28.93","0.40522","5"],
    [51801,"HCEP03730542","2025-03-20 21:00:00","9.1115","3.1851","27.476","5.323","7.62","0.425","8.527","0.01","0.23","29.4034","4.66867","55.8","0","SATNPRO1509","28.988","0.40602","5"],
    [51802,"HCEP03730542","2025-03-20 21:15:00","9.1089","3.18343","27.507","5.343","7.62","0.435","8.378","0.04","0.6","29.3885","4.66658","56","0","SATNPRO1509","28.994","0.40616","5"],
    [51803,"HCEP03730542","2025-03-20 21:30:00","9.1078","3.18228","27.665","5.415","7.63","0.418","5.564","0.01","0.63","29.3775","4.66503","56.75","0","SATNPRO1509","29.326","0.41072","5"],
    [51804,"HCEP03730542","2025-03-20 21:45:00","9.1121","3.18636","27.649","5.489","7.63","0.4","6.056","0.02","0.39","29.4157","4.67043","57.54","0","SATNPRO1509","29.326","0.41078","5"],
    [51805,"HCEP03730542","2025-03-20 22:00:00","9.1146","3.18886","27.652","5.431","7.62","0.39","5.889","0.01","0.51","29.4391","4.67375","56.95","0","SATNPRO1509","29.404","0.41186","5"],
    [51806,"HCEP03730542","2025-03-20 22:15:00","9.1178","3.19134","27.69","5.376","7.62","0.456","8.702","0.09","2.35","29.4618","4.67695","56.38","0","SATNPRO1509","29.232","0.4094","5"],
    [51807,"HCEP03730542","2025-03-20 22:30:00","9.1186","3.19198","27.593","5.331","7.62","0.522","60.334","0.09","11.95","29.4677","4.67777","55.92","0","SATNPRO1509","29.304","0.41046","5"],
    [51808,"HCEP03730542","2025-03-20 22:45:00","9.1212","3.1939","27.524","5.306","7.62","0.393","7.83","0.03","0.33","29.4852","4.68023","55.66","0","SATNPRO1509","29.248","0.40966","5"],
    [51809,"HCEP03730542","2025-03-20 23:00:00","9.1255","3.19474","27.492","5.252","7.61","0.392","7.435","0.03","1.3","29.4903","4.68088","55.11","0","SATNPRO1509","29.2","0.409","5"],
    [51810,"HCEP03730542","2025-03-20 23:15:00","9.1287","3.19531","27.481","5.197","7.61","0.371","6.59","0.01","0.23","29.4935","4.68127","54.53","0","SATNPRO1509","29.25","0.4097","5"],
    [51811,"HCEP03730542","2025-03-20 23:30:00","9.1322","3.19484","27.313","5.162","7.61","0.391","6.577","0.04","0.58","29.4858","4.68009","54.16","0","SATNPRO1509","29.134","0.40808","5"],
    [51812,"HCEP03730542","2025-03-20 23:45:00","9.1321","3.19597","27.4","5.134","7.61","0.379","7.767","0.03","1.33","29.4974","4.68177","53.88","0","SATNPRO1509","29.291999999999998","0.41028","5"],
    [51813,"HCEP03730542","2025-03-21 00:00:00","9.131","3.19686","27.36","5.133","7.61","0.388","6.952","0.05","0.68","29.5074","4.68323","53.87","0","SATNPRO1509","29.186","0.40882","5"],
    [51814,"HCEP03730542","2025-03-21 00:15:00","9.1317","3.19615","27.281","5.146","7.61","0.366","6.519","0.03","0.58","29.4997","4.68209","54","0","SATNPRO1509","29.214","0.40918","5"],
    [51815,"HCEP03730542","2025-03-21 00:30:00","9.1294","3.19657","27.22","5.151","7.61","0.39","7.65","0.03","0.93","29.5058","4.68302","54.05","0","SATNPRO1509","29.304","0.41044","5"],
    [51816,"HCEP03730542","2025-03-21 00:45:00","9.1275","3.19641","27.192","5.163","7.61","0.372","6.579","0.02","0.34","29.5058","4.68305","54.18","0","SATNPRO1509","29.26","0.40982","5"],
    [51817,"HCEP03730542","2025-03-21 01:00:00","9.1259","3.19599","27.097","5.188","7.61","0.38","6.037","0.03","0.47","29.5029","4.68265","54.44","0","SATNPRO1509","29.356","0.41116","5"],
    [51818,"HCEP03730542","2025-03-21 01:15:00","9.1248","3.1958","27.032","5.225","7.61","0.379","6.234","0.03","0.39","29.5018","4.68251","54.82","0","SATNPRO1509","29.33","0.41084","5"],
    [51819,"HCEP03730542","2025-03-21 01:30:00","9.1242","3.19553","27.018","5.259","7.61","0.39","6.724","0.04","0.63","29.4996","4.68221","55.18","0","SATNPRO1509","29.324","0.41076","5"],
    [51820,"HCEP03730542","2025-03-21 01:45:00","9.1243","3.19543","27.011","5.276","7.61","0.381","6.412","0.03","0.62","29.4985","4.68205","55.36","0","SATNPRO1509","29.404","0.41188","5"],
    [51821,"HCEP03730542","2025-03-21 02:00:00","9.1258","3.19465","26.966","5.286","7.61","0.373","5.56","0.02","0.34","29.4893","4.68069","55.46","0","SATNPRO1509","29.37","0.41142","5"],
    [51822,"HCEP03730542","2025-03-21 02:15:00","9.1265","3.19407","26.935","5.292","7.62","0.361","5.548","0.03","0.38","29.4828","4.67974","55.52","0","SATNPRO1509","29.404","0.41182","5"],
    [51823,"HCEP03730542","2025-03-21 02:30:00","9.1261","3.19362","26.924","5.3","7.62","0.349","5.311","0.02","0.25","29.4785","4.67915","55.6","0","SATNPRO1509","29.34","0.41096","5"],
    [51824,"HCEP03730542","2025-03-21 02:45:00","9.1263","3.19373","26.896","5.309","7.62","0.352","5.036","0.02","0.25","29.4795","4.67928","55.7","0","SATNPRO1509","29.422","0.41208","5"],
    [51825,"HCEP03730542","2025-03-21 03:00:00","9.1274","3.1929","26.906","5.318","7.62","0.355","4.942","0.02","0.6","29.4701","4.67791","55.79","0","SATNPRO1509","29.38","0.4115","5"],
    [51826,"HCEP03730542","2025-03-21 03:15:00","9.1271","3.19318","26.88","5.317","7.62","0.345","5.596","0.02","0.38","29.4732","4.67836","55.78","0","SATNPRO1509","29.342","0.41098","5"],
    [51827,"HCEP03730542","2025-03-21 03:30:00","9.124","3.19511","26.907","5.311","7.62","0.363","7.42","0.02","0.61","29.4955","4.68161","55.72","0","SATNPRO1509","29.472","0.4128","5"],
    [51828,"HCEP03730542","2025-03-21 03:45:00","9.1241","3.19431","26.88","5.313","7.62","0.339","5.163","0.02","0.32","29.4872","4.68042","55.74","0","SATNPRO1509","29.47","0.41274","5"],
    [51829,"HCEP03730542","2025-03-21 04:00:00","9.1202","3.19708","26.935","5.331","7.62","0.371","7.485","0.02","0.32","29.5187","4.68502","55.94","0","SATNPRO1509","29.602","0.41462","5"],
    [51830,"HCEP03730542","2025-03-21 04:15:00","9.1176","3.19844","26.948","5.333","7.62","0.329","7.185","0.02","0.5","29.5349","4.68738","55.96","0","SATNPRO1509","29.632","0.41506","5"],
    [51831,"HCEP03730542","2025-03-21 04:30:00","9.1156","3.19922","26.99","5.349","7.62","0.328","6.805","0.01","0.59","29.5444","4.6888","56.12","0","SATNPRO1509","30.088","0.4214","5"],
    [51832,"HCEP03730542","2025-03-21 04:45:00","9.1146","3.19968","27.018","5.371","7.62","0.336","6.683","0.07","0.34","29.5499","4.6896","56.36","0","SATNPRO1509","29.904","0.41884","5"],
    [51833,"HCEP03730542","2025-03-21 05:00:00","9.1143","3.20004","27.053","5.382","7.62","0.322","6.712","0.01","0.4","29.5538","4.69017","56.47","0","SATNPRO1509","29.842","0.418","5"],
    [51834,"HCEP03730542","2025-03-21 05:15:00","9.1141","3.20026","27.072","5.384","7.62","0.35","7.174","0.08","0.44","29.5562","4.69052","56.49","0","SATNPRO1509","30.118","0.42188","5"],
    [51835,"HCEP03730542","2025-03-21 05:30:00","9.1145","3.20003","27.124","5.384","7.62","0.335","6.393","0.02","0.51","29.5536","4.69014","56.5","0","SATNPRO1509","29.906","0.41888","5"],
    [51836,"HCEP03730542","2025-03-21 05:45:00","9.1163","3.19925","27.155","5.382","7.62","0.33","6.475","0.02","0.31","29.5441","4.68874","56.47","0","SATNPRO1509","29.694","0.4159","5"],
    [51837,"HCEP03730542","2025-03-21 06:00:00","9.1182","3.19769","27.187","5.359","7.62","7.631","279.239","8.27","218.23","29.5265","4.6862","56.23","0","SATNPRO1509","29.756","0.4168","5"],
    [51838,"HCEP03730542","2025-03-21 06:15:00","9.1179","3.19676","27.218","5.344","7.62","0.348","6.09","0.03","0.84","29.5173","4.68488","56.07","0","SATNPRO1509","29.682","0.41576","5"],
    [51839,"HCEP03730542","2025-03-21 06:30:00","9.1183","3.1966","27.229","5.343","7.62","0.334","5.62","0.01","0.34","29.5154","4.68459","56.06","0","SATNPRO1509","29.592000000000002","0.41452","5"],
    [51840,"HCEP03730542","2025-03-21 06:45:00","9.1206","3.19503","27.207","5.341","7.62","0.348","5.596","0.02","0.51","29.4973","4.68196","56.03","0","SATNPRO1509","29.588","0.41442","5"],
    [51841,"HCEP03730542","2025-03-21 07:00:00","9.1195","3.19635","27.237","5.332","7.62","0.336","6.313","0.01","0.38","29.5117","4.68405","55.95","0","SATNPRO1509","29.618","0.41486","5"],
    [51842,"HCEP03730542","2025-03-21 07:15:00","9.1213","3.19648","27.25","5.327","7.62","0.327","6.821","0.01","0.23","29.5116","4.68399","55.9","0","SATNPRO1509","29.56","0.41404","5"],
    [51843,"HCEP03730542","2025-03-21 07:30:00","9.1236","3.19656","27.217","5.309","7.62","0.346","7.371","0.02","1.56","29.5105","4.6838","55.7","0","SATNPRO1509","29.514","0.41338","5"],
    [51844,"HCEP03730542","2025-03-21 07:45:00","9.1263","3.19575","27.272","5.292","7.61","0.335","5.494","0.01","0.23","29.5","4.68225","55.53","0","SATNPRO1509","29.454","0.41256","5"],
    [51845,"HCEP03730542","2025-03-21 08:00:00","9.1279","3.19578","27.215","5.277","7.61","0.358","4.948","0.02","0.35","29.499","4.68207","55.38","0","SATNPRO1509","29.424","0.41214","5"],
    [51846,"HCEP03730542","2025-03-21 08:15:00","9.1268","3.19604","27.261","5.276","7.61","0.344","5.253","0.02","0.18","29.5025","4.68259","55.36","0","SATNPRO1509","29.534","0.41368","5"],
    [51847,"HCEP03730542","2025-03-21 08:30:00","9.1274","3.19714","27.267","5.272","7.61","0.359","6.011","0.02","0.36","29.5133","4.68413","55.32","0","SATNPRO1509","29.434","0.41228","5"],
    [51848,"HCEP03730542","2025-03-21 08:45:00","9.129","3.19849","27.249","5.189","7.61","0.342","6.791","0.02","0.35","29.5257","4.68588","54.46","0","SATNPRO1509","29.316","0.4106","5"],
    [51849,"HCEP03730542","2025-03-21 09:00:00","9.1222","3.19791","27.242","5.215","7.61","0.356","6.127","0.02","0.28","29.5255","4.68597","54.72","0","SATNPRO1509","29.64","0.41518","5"],
    [51850,"HCEP03730542","2025-03-21 09:15:00","9.1236","3.19764","27.201","5.275","7.61","0.344","6.156","0.03","0.26","29.5216","4.68539","55.35","0","SATNPRO1509","29.604","0.41468","5"],
    [51851,"HCEP03730542","2025-03-21 09:30:00","9.1222","3.19743","27.179","5.272","7.61","0.338","5.968","0.01","0.44","29.5206","4.68526","55.32","0","SATNPRO1509","29.534","0.4137","5"],
    [51852,"HCEP03730542","2025-03-21 09:45:00","9.1179","3.19784","27.198","5.303","7.62","0.319","6.103","0.01","0.2","29.5283","4.68645","55.65","0","SATNPRO1509","29.78","0.41712","5"],
    [51853,"HCEP03730542","2025-03-21 10:00:00","9.1164","3.19773","27.091","5.348","7.62","0.335","6.742","0.02","0.36","29.5285","4.68651","56.11","0","SATNPRO1509","29.846","0.418","5"],
    [51854,"HCEP03730542","2025-03-21 10:15:00","9.1188","3.1966","27.04","5.352","7.62","0.335","6.701","0.02","0.27","29.515","4.68451","56.16","0","SATNPRO1509","29.732","0.41642","5"],
    [51855,"HCEP03730542","2025-03-21 10:30:00","9.1205","3.19617","26.943","5.335","7.62","0.34","6.999","0.01","0.26","29.5092","4.68365","55.97","0","SATNPRO1509","29.546","0.41386","5"],
    [51856,"HCEP03730542","2025-03-21 10:45:00","9.1211","3.1955","26.853","5.312","7.62","0.329","6.634","0.01","0.3","29.5019","4.68258","55.73","0","SATNPRO1509","29.474","0.41284","5"],
    [51857,"HCEP03730542","2025-03-21 11:00:00","9.122","3.19482","26.724","5.306","7.62","0.342","6.571","0.01","0.28","29.4943","4.68147","55.67","0","SATNPRO1509","29.448","0.4125","5"],
    [51858,"HCEP03730542","2025-03-21 11:15:00","9.1224","3.19411","26.535","5.302","7.62","0.373","7.257","0.03","0.37","29.4868","4.68038","55.62","0","SATNPRO1509","29.562","0.41408","5"],
    [51859,"HCEP03730542","2025-03-21 11:30:00","9.1229","3.19358","26.394","5.304","7.62","0.347","6.602","0.01","0.2","29.481","4.67952","55.65","0","SATNPRO1509","29.434","0.41228","5"],
    [51860,"HCEP03730542","2025-03-21 11:45:00","9.1233","3.19323","26.171","5.305","7.62","0.357","7.044","0.01","0.34","29.4771","4.67895","55.65","0","SATNPRO1509","29.394","0.4117","5"],
    [51861,"HCEP03730542","2025-03-21 12:00:00","9.1244","3.19271","26.036","5.304","7.62","0.37","7.007","0.02","0.33","29.471","4.67804","55.64","0","SATNPRO1509","29.346","0.411","5"],
    [51862,"HCEP03730542","2025-03-21 12:15:00","9.1253","3.19226","25.853","5.302","7.62","0.362","6.908","0.01","0.37","29.4657","4.67726","55.62","0","SATNPRO1509","29.448","0.41248","5"],
    [51863,"HCEP03730542","2025-03-21 12:30:00","9.1267","3.19172","25.642","5.287","7.61","0.377","6.346","0.01","0.34","29.4592","4.67629","55.46","0","SATNPRO1509","29.28","0.41012","5"],
    [51864,"HCEP03730542","2025-03-21 12:45:00","9.1268","3.1918","25.469","5.271","7.61","0.424","7.019","0.05","0.85","29.46","4.67638","55.29","0","SATNPRO1509","29.362","0.41126","5"],
    [51865,"HCEP03730542","2025-03-21 13:00:00","9.1266","3.1919","25.32","5.26","7.61","0.407","6.018","0.04","0.39","29.4612","4.67655","55.18","0","SATNPRO1509","29.214","0.4092","5"],
    [51866,"HCEP03730542","2025-03-21 13:15:00","9.1257","3.19233","25.2","5.256","7.61","0.402","6.082","0.06","0.41","29.4664","4.67731","55.13","0","SATNPRO1509","29.346","0.41104","5"],
    [51867,"HCEP03730542","2025-03-21 13:30:00","9.1255","3.19288","25.092","5.256","7.61","0.377","5.745","0.02","0.33","29.4722","4.67814","55.14","0","SATNPRO1509","29.334","0.4109","5"],
    [51868,"HCEP03730542","2025-03-21 13:45:00","9.1262","3.19337","25.017","5.246","7.61","0.384","6.294","0.04","0.4","29.4767","4.67876","55.03","0","SATNPRO1509","29.592","0.41448","5"],
    [51869,"HCEP03730542","2025-03-21 14:00:00","9.1265","3.19368","24.96","5.215","7.61","0.395","6.546","0.02","0.42","29.4796","4.67917","54.71","0","SATNPRO1509","29.286","0.41022","5"],
    [51870,"HCEP03730542","2025-03-21 14:15:00","9.1271","3.19386","24.912","5.183","7.61","0.405","6.487","0.02","0.32","29.481","4.67936","54.38","0","SATNPRO1509","29.246","0.40964","5"],
    [51871,"HCEP03730542","2025-03-21 14:30:00","9.1265","3.19357","24.896","5.168","7.61","0.393","6.401","0.02","0.31","29.4785","4.67901","54.22","0","SATNPRO1509","29.27","0.41002","5"],
    [51872,"HCEP03730542","2025-03-21 14:45:00","9.1259","3.19358","24.87","5.175","7.61","0.388","6.536","0.01","0.24","29.4792","4.67912","54.29","0","SATNPRO1509","29.532","0.41364","5"],
    [51873,"HCEP03730542","2025-03-21 15:00:00","9.1258","3.19316","24.843","5.183","7.61","0.382","6.179","0.02","0.36","29.475","4.67852","54.38","0","SATNPRO1509","28.976000000000003","0.40584","5"],
    [51874,"HCEP03730542","2025-03-21 15:15:00","9.1258","3.19321","24.832","5.192","7.61","0.372","6.305","0.02","0.34","29.4754","4.67858","54.47","0","SATNPRO1509","29.454","0.41254","5"],
    [51875,"HCEP03730542","2025-03-21 15:30:00","9.1263","3.19351","24.828","5.187","7.61","0.39","6.401","0.02","0.41","29.4781","4.67896","54.42","0","SATNPRO1509","29.218","0.4093","5"],
    [51876,"HCEP03730542","2025-03-21 15:45:00","9.1258","3.19405","24.838","5.183","7.61","0.405","7.175","0.02","0.37","29.484","4.67981","54.38","0","SATNPRO1509","29.172","0.4086","5"],
    [51877,"HCEP03730542","2025-03-21 16:00:00","9.125","3.19425","24.86","5.178","7.61","0.371","7.116","0.01","0.48","29.4868","4.68022","54.33","0","SATNPRO1509","29.176000000000002","0.40866","5"],
    [51878,"HCEP03730542","2025-03-21 16:15:00","9.1193","3.19563","24.895","5.18","7.61","0.381","8.098","0.03","0.31","29.5055","4.68303","54.34","0","SATNPRO1509","29.456","0.41256","5"],
    [51879,"HCEP03730542","2025-03-21 16:30:00","9.1182","3.19584","24.938","5.233","7.61","0.416","8.023","0.04","1.13","29.5086","4.68349","54.9","0","SATNPRO1509","29.564","0.41406","5"],
    [51880,"HCEP03730542","2025-03-21 16:45:00","9.1161","3.19556","24.993","5.278","7.61","0.403","6.044","0.13","0.32","29.5074","4.68336","55.37","0","SATNPRO1509","29.69","0.41586","5"],
    [51881,"HCEP03730542","2025-03-21 17:00:00","9.1159","3.19561","25.057","5.296","7.61","0.388","6.219","0.03","0.48","29.5081","4.68346","55.56","0","SATNPRO1509","29.58","0.41434","5"],
    [51882,"HCEP03730542","2025-03-21 17:15:00","9.116","3.19561","25.181","5.296","7.61","0.376","5.278","0.02","0.2","29.508","4.68346","55.55","0","SATNPRO1509","29.632","0.41504","5"],
    [51883,"HCEP03730542","2025-03-21 17:30:00","9.1158","3.19502","25.218","5.301","7.62","0.384","5.224","0.01","0.15","29.5021","4.68262","55.61","0","SATNPRO1509","29.631999999999998","0.41506","5"],
    [51884,"HCEP03730542","2025-03-21 17:45:00","9.1157","3.18568","25.265","5.321","7.62","0.416","3.79","0.02","0.31","29.4067","4.66893","55.78","0","SATNPRO1509","29.312","0.4106","5"],
    [51885,"HCEP03730542","2025-03-21 18:00:00","9.1128","3.18364","25.401","5.359","7.62","0.44","3.076","0.02","0.14","29.3882","4.66634","56.17","0","SATNPRO1509","29.354","0.4112","5"],
    [51886,"HCEP03730542","2025-03-21 18:15:00","9.1205","3.18908","25.541","5.372","7.62","0.392","3.638","0.02","0.1","29.4374","4.67326","56.34","0","SATNPRO1509","29.368","0.41134","5"],
    [51887,"HCEP03730542","2025-03-21 18:30:00","9.1241","3.1924","25.565","5.303","7.61","0.407","3.992","0.03","0.1","29.4682","4.67762","55.63","0","SATNPRO1509","29.298000000000002","0.41036","5"],
    [51888,"HCEP03730542","2025-03-21 18:45:00","9.1251","3.1914","25.726","5.251","7.61","0.415","3.843","0.02","0.11","29.4572","4.67603","55.08","0","SATNPRO1509","29.344","0.41104","5"],
    [51889,"HCEP03730542","2025-03-21 19:00:00","9.1233","3.19415","25.935","5.24","7.61","0.429","4.305","0.02","0.16","29.4867","4.68031","54.98","0","SATNPRO1509","29.544","0.4138","5"],
    [51890,"HCEP03730542","2025-03-21 19:15:00","9.1221","3.1939","26.151","5.227","7.61","0.461","4.425","0.03","0.19","29.485","4.6801","54.84","0","SATNPRO1509","29.368","0.41132","5"],
    [51891,"HCEP03730542","2025-03-21 19:30:00","9.1241","3.19372","26.334","5.235","7.61","0.456","4.363","0.02","0.56","29.4814","4.67956","54.91","0","SATNPRO1509","29.394","0.41172","5"],
    [51892,"HCEP03730542","2025-03-21 19:45:00","9.1218","3.19278","26.477","5.226","7.61","0.435","4.16","0.02","0.32","29.4737","4.67851","54.82","0","SATNPRO1509","29.57","0.41416","5"],
    [51893,"HCEP03730542","2025-03-21 20:00:00","9.1166","3.19008","26.647","5.247","7.61","0.469","6.209","0.02","0.35","29.4503","4.67525","55.02","0","SATNPRO1509","29.298000000000002","0.4104","5"],
    [51894,"HCEP03730542","2025-03-21 20:15:00","9.0888","3.14025","26.818","5.36","7.63","0.488","2.874","0.02","0.66","28.9644","4.60598","56","0","SATNPRO1509","27.956","0.39158","5"],
    [51895,"HCEP03730542","2025-03-21 20:30:00","9.111","3.18441","26.933","5.481","7.62","0.525","5.845","0.04","0.43","29.397","4.66772","57.45","0","SATNPRO1509","28.986","0.40602","5"],
    [51896,"HCEP03730542","2025-03-21 20:45:00","9.1004","3.16764","27.161","5.371","7.63","0.515","5.81","0.02","0.25","29.2343","4.64458","56.23","0","SATNPRO1509","28.47","0.39874","5"],
    [51897,"HCEP03730542","2025-03-21 21:00:00","9.1199","3.19436","27.309","5.262","7.61","0.456","8.504","0.02","0.36","29.4911","4.68108","55.2","0","SATNPRO1509","29.27","0.41","5"],
    [51898,"HCEP03730542","2025-03-21 21:15:00","9.1181","3.19057","27.478","5.206","7.61","0.579","7.901","0.08","0.41","29.4538","4.67578","54.6","0","SATNPRO1509","29.294","0.41028","5"],
    [51899,"HCEP03730542","2025-03-21 21:30:00","9.1207","3.19302","27.489","5.23","7.61","0.452","7.843","0.03","0.54","29.4766","4.67901","54.87","0","SATNPRO1509","29.27","0.40998","5"],
    [51900,"HCEP03730542","2025-03-21 21:45:00","9.124","3.19487","27.3","5.207","7.61","0.391","6.107","0.02","0.39","29.493","4.68128","54.63","0","SATNPRO1509","29.544","0.4138","5"],
    [51901,"HCEP03730542","2025-03-21 22:00:00","9.1245","3.19529","27.274","5.199","7.61","0.394","6.48","0.01","0.45","29.4969","4.68182","54.54","0","SATNPRO1509","29.422","0.41212","5"],
    [51902,"HCEP03730542","2025-03-21 22:15:00","9.1243","3.19644","27.251","5.17","7.6","0.392","6.597","0.02","0.22","29.5087","4.68352","54.24","0","SATNPRO1509","29.407999999999998","0.41192","5"],
    [51903,"HCEP03730542","2025-03-21 22:30:00","9.1236","3.19714","27.327","5.154","7.6","0.384","7.262","0.03","0.2","29.5164","4.68465","54.08","0","SATNPRO1509","29.534","0.41366","5"],
    [51904,"HCEP03730542","2025-03-21 22:45:00","9.1225","3.19776","27.372","5.159","7.6","0.343","6.54","0.01","0.19","29.5236","4.6857","54.14","0","SATNPRO1509","29.514","0.41338","5"],
    [51905,"HCEP03730542","2025-03-21 23:00:00","9.1217","3.19823","27.323","5.162","7.6","0.39","7.335","0.04","0.92","29.5291","4.6865","54.17","0","SATNPRO1509","29.678","0.4157","5"],
    [51906,"HCEP03730542","2025-03-21 23:15:00","9.121","3.19869","27.339","5.172","7.61","0.348","6.601","0.03","0.37","29.534300000000002","4.68727","54.27","0","SATNPRO1509","29.576","0.41424","5"],
    [51907,"HCEP03730542","2025-03-21 23:30:00","9.1201","3.19914","27.391","5.178","7.61","0.356","7.321","0.02","0.44","29.5396","4.68805","54.33","0","SATNPRO1509","29.662","0.41548","5"],
    [51908,"HCEP03730542","2025-03-21 23:45:00","9.1197","3.19962","27.431","5.184","7.61","0.35","6.851","0.02","0.37","29.545","4.68882","54.4","0","SATNPRO1509","29.732","0.41642","5"],
    [51909,"HCEP03730542","2025-03-22 00:00:00","9.1188","3.20008","27.465","5.183","7.61","0.359","7.195","0.03","0.4","29.5504","4.68962","54.4","0","SATNPRO1509","29.720000000000002","0.41632","5"],
    [51910,"HCEP03730542","2025-03-22 00:15:00","9.117","3.20076","27.468","5.186","7.61","0.365","7.652","0.06","0.58","29.5588","4.69086","54.42","0","SATNPRO1509","29.83","0.41778","5"],
    [51911,"HCEP03730542","2025-03-22 00:30:00","9.1151","3.20074","27.459","5.204","7.61","0.347","6.516","0.02","0.5","29.5602","4.69109","54.61","0","SATNPRO1509","29.76","0.41684","5"],
    [51912,"HCEP03730542","2025-03-22 00:45:00","9.1138","3.20088","27.446","5.221","7.61","0.398","6.846","0.07","0.42","29.5627","4.69147","54.78","0","SATNPRO1509","29.91","0.41896","5"],
    [51913,"HCEP03730542","2025-03-22 01:00:00","9.1097","3.20098","27.429","5.239","7.61","0.333","6.32","0.02","0.42","29.5672","4.6922","54.97","0","SATNPRO1509","29.994","0.42014","5"],
    [51914,"HCEP03730542","2025-03-22 01:15:00","9.1041","3.20113","27.428","5.274","7.61","0.326","6.971","0.02","0.43","29.5733","4.69317","55.34","0","SATNPRO1509","30.184","0.42278","5"],
    [51915,"HCEP03730542","2025-03-22 01:30:00","9.0825","3.20111","27.39","5.351","7.62","0.315","5.006","0.01","0.37","29.591","4.69612","56.13","0","SATNPRO1509","30.618","0.42884","5"],
    [51916,"HCEP03730542","2025-03-22 01:45:00","9.076","3.20089","27.362","5.514","7.63","0.294","4.291","0.02","0.32","29.5941","4.69668","57.83","0","SATNPRO1509","30.82","0.4317","5"],
    [51917,"HCEP03730542","2025-03-22 02:00:00","9.0754","3.2009","27.313","5.601","7.64","0.326","4.839","0.03","0.53","29.5948","4.69679","58.74","0","SATNPRO1509","30.85","0.43208","5"],
    [51918,"HCEP03730542","2025-03-22 02:15:00","9.0769","3.20099","27.267","5.62","7.64","0.299","4.589","0.02","0.32","29.5945","4.69672","58.94","0","SATNPRO1509","30.732","0.43048","5"],
    [51919,"HCEP03730542","2025-03-22 02:30:00","9.0775","3.20098","27.229","5.621","7.64","0.31","4.212","0.02","0.32","29.5939","4.69661","58.95","0","SATNPRO1509","30.764","0.43088","5"],
    [51920,"HCEP03730542","2025-03-22 02:45:00","9.0724","3.20077","27.198","5.629","7.64","0.298","3.652","0.02","0.31","29.596","4.69702","59.03","0","SATNPRO1509","30.962","0.43366","5"],
    [51921,"HCEP03730542","2025-03-22 03:00:00","9.0763","3.20089","27.155","5.647","7.64","0.329","5.052","0.04","0.67","29.594","4.69665","59.22","0","SATNPRO1509","30.672","0.42958","5"],
    [51922,"HCEP03730542","2025-03-22 03:15:00","9.0769","3.20155","27.099","5.624","7.64","0.327","5.586","0.03","0.32","29.6002","4.69753","58.99","0","SATNPRO1509","30.558","0.42802","5"],
    [51923,"HCEP03730542","2025-03-22 03:30:00","9.0719","3.20203","27.065","5.61","7.64","0.302","5.635","0.02","0.38","29.6093","4.69893","58.83","0","SATNPRO1509","30.862000000000002","0.43226","5"],
    [51924,"HCEP03730542","2025-03-22 03:45:00","9.0664","3.20228","27.043","5.625","7.64","0.291","4.905","0.02","0.24","29.6166","4.70006","58.98","0","SATNPRO1509","30.832","0.43186","5"],
    [51925,"HCEP03730542","2025-03-22 04:00:00","9.0675","3.20244","27.031","5.656","7.64","0.321","5.974","0.02","0.4","29.6172","4.70014","59.32","0","SATNPRO1509","30.772","0.43104","5"],
    [51926,"HCEP03730542","2025-03-22 04:15:00","9.0642","3.20255","27.007","5.654","7.64","0.293","5.436","0.02","0.38","29.6211","4.70075","59.29","0","SATNPRO1509","30.918","0.43306","5"],
    [51927,"HCEP03730542","2025-03-22 04:30:00","9.0694","3.20236","26.992","5.664","7.64","0.303","5.585","0.01","0.35","29.6148","4.69976","59.4","0","SATNPRO1509","30.752","0.43072","5"],
    [51928,"HCEP03730542","2025-03-22 04:45:00","9.064","3.20254","26.99","5.648","7.64","0.294","5.663","0.02","0.42","29.6212","4.70078","59.23","0","SATNPRO1509","30.794","0.43132","5"],
    [51929,"HCEP03730542","2025-03-22 05:00:00","9.0552","3.20281","26.979","5.68","7.65","0.288","5.116","0.02","0.22","29.6312","4.70237","59.56","0","SATNPRO1509","31.016000000000002","0.43442","5"],
    [51930,"HCEP03730542","2025-03-22 05:15:00","9.0499","3.20317","26.963","5.722","7.65","0.279","5.96","0.01","0.33","29.6393","4.70363","59.99","0","SATNPRO1509","31.078","0.43532","5"],
    [51931,"HCEP03730542","2025-03-22 05:30:00","9.0446","3.20299","26.981","5.766","7.65","0.315","4.087","0.07","0.32","29.6419","4.70411","60.44","0","SATNPRO1509","31.254","0.43778","5"],
    [51932,"HCEP03730542","2025-03-22 05:45:00","9.0303","3.20408","26.995","5.825","7.66","0.279","5.968","0.01","0.23","29.665","4.70769","61.05","0","SATNPRO1509","31.392","0.4397","5"],
    [51933,"HCEP03730542","2025-03-22 06:00:00","9.0173","3.20458","27.005","5.851","7.66","0.301","7.233","0.04","1.22","29.681","4.71022","61.32","0","SATNPRO1509","31.392","0.4397","5"],
    [51934,"HCEP03730542","2025-03-22 06:15:00","9.013","3.20472","27.024","5.907","7.66","0.31","6.627","0.07","0.51","29.686","4.71103","61.89","0","SATNPRO1509","31.55","0.4419","5"],
    [51935,"HCEP03730542","2025-03-22 06:30:00","9.0074","3.20492","27.036","5.929","7.66","0.279","6.882","0.01","0.45","29.6926","4.71208","62.12","0","SATNPRO1509","31.376","0.43944","5"],
    [51936,"HCEP03730542","2025-03-22 06:45:00","8.9993","3.20514","27.064","5.948","7.67","0.271","7.021","0.01","0.37","29.7016","4.71353","62.32","0","SATNPRO1509","31.504","0.44124","5"],
    [51937,"HCEP03730542","2025-03-22 07:00:00","8.964","3.20549","27.082","6.002","7.67","0.281","7.371","0.01","0.46","29.7347","4.71895","62.84","0","SATNPRO1509","31.712","0.4442","5"],
    [51938,"HCEP03730542","2025-03-22 07:15:00","8.9435","3.20555","27.087","6.125","7.68","0.264","5.667","0.01","0.17","29.7526","4.7219","64.11","0","SATNPRO1509","31.65","0.4433","5"],
    [51939,"HCEP03730542","2025-03-22 07:30:00","8.9378","3.20573","27.091","6.219","7.69","0.276","6.204","0.01","0.26","29.7592","4.72296","65.09","0","SATNPRO1509","31.854","0.4462","5"],
    [51940,"HCEP03730542","2025-03-22 07:45:00","8.927","3.20625","27.101","6.264","7.69","0.255","5.261","0.01","0.26","29.7735","4.72523","65.55","0","SATNPRO1509","31.922","0.4471","5"],
    [51941,"HCEP03730542","2025-03-22 08:00:00","8.9262","3.20654","27.11","6.303","7.69","0.27","6.286","0.01","0.21","29.7772","4.72577","65.96","0","SATNPRO1509","31.754","0.44476","5"],
    [51942,"HCEP03730542","2025-03-22 08:15:00","8.9219","3.20685","27.101","6.307","7.69","0.259","5.629","0.01","0.26","29.7839","4.72681","66","0","SATNPRO1509","31.948","0.4475","5"],
    [51943,"HCEP03730542","2025-03-22 08:30:00","8.9213","3.20727","27.111","6.317","7.69","0.26","5.57","0.01","0.29","29.7888","4.72753","66.11","0","SATNPRO1509","32.042","0.44884","5"],
    [51944,"HCEP03730542","2025-03-22 08:45:00","8.9198","3.20745","27.094","6.317","7.7","0.256","5.217","0.01","0.2","29.7918","4.72799","66.1","0","SATNPRO1509","31.944","0.44738","5"],
    [51945,"HCEP03730542","2025-03-22 09:00:00","8.9197","3.20797","27.081","6.316","7.7","0.261","5.199","0.01","0.21","29.7973","4.72877","66.09","0","SATNPRO1509","31.984","0.448","5"],
    [51946,"HCEP03730542","2025-03-22 09:15:00","8.9187","3.20823","27.062","6.302","7.7","0.265","5.014","0.03","0.4","29.8008","4.7293","65.95","0","SATNPRO1509","32.074","0.44924","5"],
    [51947,"HCEP03730542","2025-03-22 09:30:00","8.9187","3.20849","27.016","6.299","7.69","0.29","4.965","0.02","0.24","29.8035","4.72967","65.92","0","SATNPRO1509","32.18","0.45072","5"],
    [51948,"HCEP03730542","2025-03-22 09:45:00","8.9209","3.20839","27.005","6.299","7.69","0.417","6.988","0.03","0.97","29.8006","4.72922","65.92","0","SATNPRO1509","32.038","0.44876","5"],
    [51949,"HCEP03730542","2025-03-22 10:00:00","8.9159","3.20865","26.97","6.288","7.69","0.266","5.379","0.04","0.33","29.8075","4.7303","65.8","0","SATNPRO1509","32.066","0.44916","5"],
    [51950,"HCEP03730542","2025-03-22 10:15:00","8.9135","3.20873","26.934","6.293","7.7","0.254","5.068","0.02","0.29","29.8104","4.73076","65.85","0","SATNPRO1509","32.202","0.45108","5"],
    [51951,"HCEP03730542","2025-03-22 10:30:00","8.9161","3.2089","26.881","6.297","7.69","0.259","5.72","0.01","0.41","29.81","4.73064","65.89","0","SATNPRO1509","31.948","0.44752","5"],
    [51952,"HCEP03730542","2025-03-22 10:45:00","8.9143","3.2085","26.835","6.275","7.69","0.254","4.954","0.01","0.53","29.8074","4.7303","65.66","0","SATNPRO1509","32.19","0.45088","5"],
    [51953,"HCEP03730542","2025-03-22 11:00:00","8.9187","3.20849","26.753","6.296","7.69","0.264","5.829","0.01","0.24","29.8036","4.72968","65.89","0","SATNPRO1509","31.810000000000002","0.4456","5"],
    [51954,"HCEP03730542","2025-03-22 11:15:00","8.9216","3.20837","26.667","6.264","7.69","0.274","6.453","0.02","0.28","29.8","4.7291","65.55","0","SATNPRO1509","31.91","0.44694","5"],
    [51955,"HCEP03730542","2025-03-22 11:30:00","8.9212","3.20824","26.609","6.248","7.69","0.267","6.004","0.01","0.28","29.799","4.72896","65.39","0","SATNPRO1509","31.884","0.44658","5"],
    [51956,"HCEP03730542","2025-03-22 11:45:00","8.9217","3.20808","26.53","6.249","7.69","0.269","6.617","0.03","0.41","29.797","4.72867","65.39","0","SATNPRO1509","31.759999999999998","0.44484","5"],
    [51957,"HCEP03730542","2025-03-22 12:00:00","8.9241","3.20803","26.425","6.245","7.69","0.284","7.445","0.01","0.41","29.7945","4.72825","65.36","0","SATNPRO1509","31.892","0.44672","5"],
    [51958,"HCEP03730542","2025-03-22 12:15:00","8.925","3.20797","26.344","6.238","7.69","0.282","5.886","0.03","0.59","29.7931","4.72803","65.28","0","SATNPRO1509","32.038000000000004","0.44874","5"],
    [51959,"HCEP03730542","2025-03-22 12:30:00","8.9294","3.20778","26.22","6.242","7.69","0.324","6.206","0.02","0.26","29.7876","4.72714","65.33","0","SATNPRO1509","31.546","0.44186","5"],
    [51960,"HCEP03730542","2025-03-22 12:45:00","8.9308","3.20767","26.106","6.238","7.69","0.277","5.948","0.02","0.47","29.7853","4.72678","65.29","0","SATNPRO1509","31.986","0.44802","5"],
    [51961,"HCEP03730542","2025-03-22 13:00:00","8.938","3.2073","25.969","6.225","7.69","0.298","5.868","0.03","0.37","29.7756","4.72524","65.16","0","SATNPRO1509","31.824","0.44574","5"],
    [51962,"HCEP03730542","2025-03-22 13:15:00","8.9442","3.20709","25.82","6.205","7.69","0.439","6.49","0.02","0.38","29.7683","4.72407","64.95","0","SATNPRO1509","31.830000000000002","0.44584","5"],
    [51963,"HCEP03730542","2025-03-22 13:30:00","8.9497","3.20679","25.704","6.184","7.69","0.341","5.858","0.02","0.33","29.7606","4.72286","64.74","0","SATNPRO1509","31.698","0.444","5"],
    [51964,"HCEP03730542","2025-03-22 13:45:00","8.96","3.2064","25.57","6.162","7.68","0.301","6.087","0.02","0.29","29.748","4.72084","64.52","0","SATNPRO1509","31.71","0.44416","5"],
    [51965,"HCEP03730542","2025-03-22 14:00:00","8.9716","3.20623","25.443","6.138","7.68","0.277","5.376","0.02","0.79","29.7367","4.719","64.28","0","SATNPRO1509","31.838","0.44592","5"],
    [51966,"HCEP03730542","2025-03-22 14:15:00","8.9771","3.20639","25.222","6.096","7.68","0.313","5.691","0.02","0.27","29.7338","4.71845","63.85","0","SATNPRO1509","31.718","0.44428","5"],
    [51967,"HCEP03730542","2025-03-22 14:30:00","8.9776","3.20641","25.012","6.07","7.68","0.272","5.801","0.02","0.36","29.7336","4.71841","63.58","0","SATNPRO1509","31.664","0.44356","5"],
    [51968,"HCEP03730542","2025-03-22 14:45:00","8.9839","3.20628","24.919","6.055","7.67","0.27","6.057","0.01","0.25","29.7271","4.71735","63.43","0","SATNPRO1509","31.664","0.4435","5"],
    [51969,"HCEP03730542","2025-03-22 15:00:00","9.0019","3.20574","24.879","6.023","7.67","0.285","6.277","0.01","0.24","29.7065","4.71405","63.11","0","SATNPRO1509","31.599999999999998","0.4426","5"],
    [51970,"HCEP03730542","2025-03-22 15:15:00","9.015","3.20513","24.758","5.967","7.67","0.293","5.498","0.01","0.29","29.6894","4.71133","62.53","0","SATNPRO1509","31.54","0.44176","5"],
    [51971,"HCEP03730542","2025-03-22 15:30:00","9.0283","3.20437","24.677","5.899","7.66","0.292","5.833","0.01","0.24","29.6706","4.70839","61.83","0","SATNPRO1509","31.344","0.43904","5"],
    [51972,"HCEP03730542","2025-03-22 15:45:00","9.039","3.20373","24.646","5.822","7.66","0.313","5.814","0.02","0.32","29.6552","4.70598","61.03","0","SATNPRO1509","31.274","0.43808","5"],
    [51973,"HCEP03730542","2025-03-22 16:00:00","9.0452","3.20328","24.601","5.779","7.65","0.29","5.375","0.01","0.31","29.6454","4.70446","60.58","0","SATNPRO1509","31.262","0.43786","5"],
    [51974,"HCEP03730542","2025-03-22 16:00:00","9.0442","3.2023","27.102","5.624","7.64","0.373","5.9","0.03","0.66","29.6351","4.70315","58.95",null,"SATNPRO1509","31.262","0.43786","5"],
    [51975,"HCEP03730542","2025-03-22 16:15:00","9.0472","3.20326","24.596","5.765","7.65","0.286","5.825","0.01","0.27","29.6435","4.70414","60.44","0","SATNPRO1509","31.148","0.43624","5"],
    [51976,"HCEP03730542","2025-03-22 16:30:00","9.0487","3.20322","24.617","5.75","7.65","0.299","6.3","0.01","0.34","29.6418","4.70388","60.29","0","SATNPRO1509","31.2","0.43706","5"],
    [51977,"HCEP03730542","2025-03-22 16:45:00","9.0514","3.20311","24.627","5.728","7.65","0.294","6.037","0.01","0.35","29.6385","4.70334","60.06","0","SATNPRO1509","31.1","0.43562","5"],
    [51978,"HCEP03730542","2025-03-22 17:00:00","9.0552","3.203","24.602","5.714","7.65","0.317","6.081","0.02","0.32","29.6342","4.70266","59.91","0","SATNPRO1509","31.118","0.43584","5"],
    [51979,"HCEP03730542","2025-03-22 17:15:00","9.0587","3.20279","24.682","5.697","7.65","0.316","7.089","0.02","0.47","29.6291","4.70186","59.73","0","SATNPRO1509","31.084","0.43536","5"],
    [51980,"HCEP03730542","2025-03-22 17:30:00","9.0625","3.20249","24.734","5.674","7.64","0.323","6.214","0.02","0.39","29.6229","4.70091","59.5","0","SATNPRO1509","30.968","0.43376","5"],
    [51981,"HCEP03730542","2025-03-22 17:45:00","9.0649","3.20228","24.803","5.649","7.64","0.319","6.188","0.02","0.35","29.6187","4.70027","59.24","0","SATNPRO1509","30.998","0.4342","5"],
    [51982,"HCEP03730542","2025-03-22 18:00:00","9.0671","3.20207","24.907","5.639","7.64","0.331","6.501","0.03","0.51","29.6146","4.69964","59.13","0","SATNPRO1509","30.97","0.43382","5"],
    [51983,"HCEP03730542","2025-03-22 18:15:00","9.0722","3.20153","24.965","5.618","7.64","0.333","6.135","0.02","0.51","29.6049","4.69817","58.91","0","SATNPRO1509","30.836","0.43194","5"],
    [51984,"HCEP03730542","2025-03-22 18:30:00","9.0781","3.20092","25.092","5.584","7.64","0.353","6.353","0.03","0.62","29.5937","4.69646","58.56","0","SATNPRO1509","30.664","0.42952","5"],
    [51985,"HCEP03730542","2025-03-22 18:45:00","9.0848","3.20016","25.204","5.541","7.63","0.353","6.057","0.02","0.35","29.5802","4.6944","58.11","0","SATNPRO1509","30.476","0.42682","5"],
    [51986,"HCEP03730542","2025-03-22 19:00:00","9.0894","3.19969","25.327","5.488","7.63","0.357","6.13","0.01","0.39","29.5715","4.69307","57.56","0","SATNPRO1509","30.448","0.42648","5"],
    [51987,"HCEP03730542","2025-03-22 19:15:00","9.0944","3.19906","25.466","5.444","7.63","0.36","5.801","0.02","0.35","29.561","4.69147","57.11","0","SATNPRO1509","30.4","0.42582","5"],
    [51988,"HCEP03730542","2025-03-22 19:30:00","9.0971","3.1987","25.609","5.408","7.62","0.377","5.908","0.02","0.41","29.555","4.69057","56.73","0","SATNPRO1509","30.322","0.4247","5"],
    [51989,"HCEP03730542","2025-03-22 19:45:00","9.1013","3.19802","25.748","5.387","7.62","0.379","5.69","0.02","0.46","29.5445","4.689","56.5","0","SATNPRO1509","30.195999999999998","0.42296","5"],
    [51990,"HCEP03730542","2025-03-22 20:00:00","9.1053","3.19741","25.897","5.35","7.62","0.402","5.594","0.03","0.58","29.5348","4.68754","56.12","0","SATNPRO1509","30.228","0.42342","5"],
    [51991,"HCEP03730542","2025-03-22 20:15:00","9.109","3.19675","26.05","5.316","7.62","0.413","6.055","0.03","0.59","29.525","4.68608","55.76","0","SATNPRO1509","29.888","0.41862","5"],
    [51992,"HCEP03730542","2025-03-22 20:30:00","9.1121","3.19613","26.211","5.288","7.61","0.42","5.885","0.02","0.53","29.516","4.68474","55.48","0","SATNPRO1509","30.093999999999998","0.42152","5"],
    [51993,"HCEP03730542","2025-03-22 20:45:00","9.1138","3.19565","26.349","5.26","7.61","0.446","7.42","0.02","1.08","29.5096","4.6838","55.18","0","SATNPRO1509","29.926","0.41916","5"],
    [51994,"HCEP03730542","2025-03-22 21:00:00","9.115","3.19516","26.49","5.246","7.61","0.435","5.651","0.03","0.46","29.5036","4.68292","55.03","0","SATNPRO1509","29.89","0.41866","5"],
    [51995,"HCEP03730542","2025-03-22 21:15:00","9.1149","3.1953","26.629","5.231","7.61","0.431","6.014","0.02","0.69","29.5051","4.68314","54.87","0","SATNPRO1509","29.936","0.4193","5"],
    [51996,"HCEP03730542","2025-03-22 21:30:00","9.1131","3.19591","26.771","5.229","7.61","0.423","5.697","0.02","0.36","29.5127","4.68428","54.85","0","SATNPRO1509","29.872","0.41842","5"],
    [51997,"HCEP03730542","2025-03-22 21:45:00","9.1099","3.19655","26.923","5.239","7.61","0.425","6.146","0.03","0.5","29.5219","4.68567","54.96","0","SATNPRO1509","30.056","0.421","5"],
    [51998,"HCEP03730542","2025-03-22 22:00:00","9.1061","3.19732","27.09","5.237","7.61","0.42","6.127","0.02","0.43","29.5327","4.6873","54.93","0","SATNPRO1509","30.126","0.42196","5"],
    [51999,"HCEP03730542","2025-03-22 22:15:00","9.0812","3.18763","27.358","5.258","7.62","0.438","6.705","0.01","0.42","29.4543","4.67653","55.1","0","SATNPRO1509","29.978","0.41988","5"],
    [52000,"HCEP03730542","2025-03-22 22:30:00","9.0772","3.19305","27.474","5.37","7.62","0.432","6.987","0.02","0.4","29.5129","4.68502","56.29","0","SATNPRO1509","30.012","0.42032","5"],
    [52001,"HCEP03730542","2025-03-22 22:45:00","9.0522","3.19665","27.575","5.412","7.62","0.448","8.703","0.01","0.65","29.5704","4.69374","56.72","0","SATNPRO1509","30.31","0.42456","5"],
    [52002,"HCEP03730542","2025-03-22 23:00:00","9.0551","3.19995","27.655","5.477","7.63","0.423","7.547","0.02","0.36","29.6018","4.6982","57.42","0","SATNPRO1509","30.582","0.42836","5"],
    [52003,"HCEP03730542","2025-03-22 23:15:00","9.0507","3.20068","27.705","5.508","7.63","0.462","7.967","0.25","3.62","29.6129","4.69987","57.74","0","SATNPRO1509","30.59","0.42844","5"],
    [52004,"HCEP03730542","2025-03-22 23:30:00","9.0494","3.20071","27.772","5.529","7.63","0.448","8.317","0.04","1.63","29.6143","4.7001","57.96","0","SATNPRO1509","30.678","0.42968","5"],
    [52005,"HCEP03730542","2025-03-22 23:45:00","9.0467","3.20079","27.792","5.53","7.63","0.459","8.215","0.1","1.98","29.6173","4.70058","57.96","0","SATNPRO1509","30.618000000000002","0.42886","5"],
    [52006,"HCEP03730542","2025-03-23 00:00:00","9.048","3.20052","27.818","5.514","7.63","0.554","7.639","0.12","0.45","29.6135","4.70001","57.8","0","SATNPRO1509","30.516","0.42744","5"],
    [52007,"HCEP03730542","2025-03-23 00:15:00","9.0467","3.20102","27.875","5.498","7.63","0.771","9.095","0.34","2.19","29.6196","4.70092","57.63","0","SATNPRO1509","30.462","0.42668","5"],
    [52008,"HCEP03730542","2025-03-23 00:30:00","9.0457","3.20162","27.775","5.496","7.63","0.44","6.947","0.02","0.5","29.6266","4.70194","57.61","0","SATNPRO1509","30.59","0.42848","5"],
    [52009,"HCEP03730542","2025-03-23 00:45:00","9.0433","3.20231","27.797","5.518","7.63","0.442","6.719","0.03","0.31","29.6357","4.70329","57.84","0","SATNPRO1509","30.656000000000002","0.42942","5"],
    [52010,"HCEP03730542","2025-03-23 01:00:00","9.0442","3.20225","27.839","5.532","7.63","0.439","6.505","0.03","0.28","29.6343","4.70308","57.99","0","SATNPRO1509","30.782","0.4311","5"],
    [52011,"HCEP03730542","2025-03-23 01:15:00","9.0411","3.20218","27.865","5.561","7.64","0.44","4.872","0.02","0.3","29.6362","4.70341","58.29","0","SATNPRO1509","30.798000000000002","0.43136","5"],
    [52012,"HCEP03730542","2025-03-23 01:30:00","9.0383","3.20274","27.725","5.622","7.64","0.445","5.588","0.03","0.18","29.6443","4.70461","58.92","0","SATNPRO1509","31.002","0.43424","5"],
    [52013,"HCEP03730542","2025-03-23 01:45:00","9.0342","3.20308","27.659","5.653","7.64","0.43","6.367","0.03","0.48","29.6512","4.70568","59.25","0","SATNPRO1509","31.138","0.43612","5"],
    [52014,"HCEP03730542","2025-03-23 02:00:00","9.033","3.20327","27.584","5.673","7.64","0.443","6.4","0.04","0.4","29.6542","4.70612","59.46","0","SATNPRO1509","31.042","0.4348","5"],
    [52015,"HCEP03730542","2025-03-23 02:15:00","9.0336","3.20324","27.604","5.678","7.64","0.422","6.298","0.03","0.53","29.6534","4.70599","59.52","0","SATNPRO1509","31.104","0.43566","5"],
    [52016,"HCEP03730542","2025-03-23 02:30:00","9.0324","3.20333","27.537","5.678","7.64","0.412","6.753","0.02","0.5","29.6554","4.7063","59.51","0","SATNPRO1509","31.154","0.4364","5"],
    [52017,"HCEP03730542","2025-03-23 02:45:00","9.0314","3.20341","27.537","5.686","7.64","0.425","7.092","0.03","0.96","29.6571","4.70656","59.6","0","SATNPRO1509","31.086","0.43544","5"],
    [52018,"HCEP03730542","2025-03-23 03:00:00","9.0465","3.20283","27.523","5.675","7.64","0.412","5.886","0.03","0.37","29.6385","4.70361","59.49","0","SATNPRO1509","31.073999999999998","0.43526","5"],
    [52019,"HCEP03730542","2025-03-23 03:15:00","9.0728","3.201","27.469","5.623","7.64","0.392","4.791","0.02","0.33","29.598","4.6973","58.96","0","SATNPRO1509","30.78","0.4311","5"],
    [52020,"HCEP03730542","2025-03-23 03:30:00","9.0564","3.20206","27.383","5.559","7.64","0.429","7.104","0.03","0.85","29.6225","4.70112","58.28","0","SATNPRO1509","30.942","0.43338","5"],
    [52021,"HCEP03730542","2025-03-23 03:45:00","9.0522","3.20251","27.315","5.591","7.64","0.395","5.699","0.03","0.38","29.6305","4.70235","58.61","0","SATNPRO1509","31.02","0.43446","5"],
    [52022,"HCEP03730542","2025-03-23 04:00:00","9.0507","3.20254","27.277","5.614","7.64","0.371","6.497","0.01","0.57","29.6321","4.7026","58.85","0","SATNPRO1509","31.066","0.43516","5"],
    [52023,"HCEP03730542","2025-03-23 04:15:00","9.0466","3.20272","27.268","5.612","7.64","0.388","5.988","0.02","0.58","29.6374","4.70343","58.83","0","SATNPRO1509","31.1","0.43562","5"],
    [52024,"HCEP03730542","2025-03-23 04:30:00","9.0505","3.20242","27.153","5.618","7.64","0.421","6.606","0.05","0.83","29.6311","4.70245","58.9","0","SATNPRO1509","30.95","0.43352","5"],
    [52025,"HCEP03730542","2025-03-23 04:45:00","9.0495","3.20215","27.218","5.609","7.64","0.415","6.287","0.06","0.35","29.6291","4.70219","58.8","0","SATNPRO1509","30.956","0.4336","5"],
    [52026,"HCEP03730542","2025-03-23 05:00:00","9.045","3.2026","27.14","5.61","7.64","0.427","7.622","0.06","0.88","29.6375","4.70348","58.81","0","SATNPRO1509","31.068","0.43516","5"],
    [52027,"NA","2025-03-23 05:15:00",null,null,null,null,null,null,null,null,null,null,null,null,null,"SATNPRO1509","31.102","0.43568","5"],
    [52028,"HCEP03730542","2025-03-23 05:30:00","9.0432","3.20221","27.014","5.66","7.64","0.392","6.247","0.03","0.74","29.6352","4.70317","59.33","0","SATNPRO1509","31.16","0.43644","5"],
    [52029,"HCEP03730542","2025-03-23 05:45:00","9.041","3.20225","27.047","5.666","7.64","0.395","6.812","0.07","1.01","29.6373","4.70352","59.4","0","SATNPRO1509","31.13","0.43602","5"],
    [52030,"HCEP03730542","2025-03-23 06:00:00","9.0425","3.20244","27.005","5.652","7.64","0.946","29.261","1.02","26.13","29.638","4.70359","59.25","0","SATNPRO1509","31.178","0.43674","5"],
    [52031,"HCEP03730542","2025-03-23 06:15:00","9.0399","3.20273","26.951","5.655","7.64","0.9","32.581","0.7","23.95","29.6432","4.70438","59.27","0","SATNPRO1509","31.096","0.43556","5"],
    [52032,"HCEP03730542","2025-03-23 06:30:00","9.0366","3.20271","26.934","5.678","7.65","0.432","15.424","0.16","19.98","29.6458","4.70481","59.51","0","SATNPRO1509","31.182","0.43672","5"],
    [52033,"HCEP03730542","2025-03-23 06:45:00","9.034","3.20278","26.92","5.718","7.65","0.36","7.524","0.04","4.91","29.6487","4.70527","59.93","0","SATNPRO1509","31.164","0.43652","5"],
    [52034,"HCEP03730542","2025-03-23 07:00:00","9.0282","3.20294","26.928","5.738","7.65","4.323","12.328","4.19","8.28","29.6552","4.70631","60.13","0","SATNPRO1509","31.348","0.43904","5"],
    [52035,"HCEP03730542","2025-03-23 07:15:00","9.0262","3.2029","26.936","5.791","7.65","0.334","4.287","0.02","0.18","29.6563","4.70651","60.69","0","SATNPRO1509","31.426000000000002","0.4402","5"],
    [52036,"HCEP03730542","2025-03-23 07:30:00","9.028","3.20306","26.963","5.784","7.65","0.408","6.948","0.17","1.46","29.6564","4.7065","60.62","0","SATNPRO1509","31.31","0.43856","5"],
    [52037,"HCEP03730542","2025-03-23 07:45:00","9.0272","3.20299","26.928","5.781","7.65","0.381","5.597","0.09","0.52","29.6564","4.70651","60.59","0","SATNPRO1509","31.418","0.44008","5"],
    [52038,"HCEP03730542","2025-03-23 08:00:00","9.0282","3.20297","26.931","5.78","7.65","0.333","5.582","0.01","0.17","29.6554","4.70635","60.57","0","SATNPRO1509","31.343999999999998","0.43902","5"],
    [52039,"HCEP03730542","2025-03-23 08:15:00","9.0307","3.2032","26.93","5.743","7.65","1.143","29.339","0.81","23.21","29.6557","4.70634","60.19","0","SATNPRO1509","31.316000000000003","0.43864","5"],
    [52040,"HCEP03730542","2025-03-23 08:30:00","9.0316","3.20323","26.91","5.709","7.65","0.795","10.517","0.64","9.69","29.6552","4.70625","59.84","0","SATNPRO1509","31.134","0.43606","5"],
    [52041,"HCEP03730542","2025-03-23 08:45:00","9.0308","3.20323","26.989","5.709","7.65","0.432","16.18","0.13","17.47","29.6558","4.70636","59.83","0","SATNPRO1509","31.342","0.43896","5"],
    [52042,"HCEP03730542","2025-03-23 09:00:00","9.0302","3.20325","26.891","5.707","7.65","0.743","22.752","0.27","8.67","29.6566","4.70647","59.82","0","SATNPRO1509","31.326","0.43876","5"],
    [52043,"HCEP03730542","2025-03-23 09:15:00","9.031","3.20346","26.921","5.689","7.64","1.088","21.878","0.17","11.52","29.658","4.70667","59.63","0","SATNPRO1509","31.122","0.4359","5"],
    [52044,"HCEP03730542","2025-03-23 09:30:00","9.0286","3.20363","26.949","5.669","7.64","0.859","41.325","0.27","14.83","29.6618","4.70726","59.42","0","SATNPRO1509","31.21","0.43714","5"],
    [52045,"HCEP03730542","2025-03-23 09:45:00","9.0266","3.20385","26.972","5.67","7.64","0.66","23.247","0.16","9.32","29.6657","4.70786","59.42","0","SATNPRO1509","31.11","0.43578","5"],
    [52046,"HCEP03730542","2025-03-23 10:00:00","9.0258","3.20381","27.022","5.68","7.64","0.349","6.742","0.05","0.6","29.6659","4.70791","59.53","0","SATNPRO1509","31.17","0.43658","5"],
    [52047,"HCEP03730542","2025-03-23 10:15:00","9.0212","3.20437","26.922","5.684","7.64","0.324","7.199","0.02","0.17","29.6756","4.70938","59.57","0","SATNPRO1509","31.062","0.4351","5"],
    [52048,"HCEP03730542","2025-03-23 10:30:00","9.0164","3.20472","26.919","5.696","7.65","0.322","6.899","0.01","0.21","29.6832","4.71055","59.69","0","SATNPRO1509","31.222","0.43732","5"],
    [52049,"HCEP03730542","2025-03-23 10:45:00","9.0158","3.20489","26.872","5.701","7.65","0.32","6.83","0.01","0.27","29.6855","4.71089","59.75","0","SATNPRO1509","31.285999999999998","0.4382","5"],
    [52050,"HCEP03730542","2025-03-23 11:00:00","9.0161","3.20495","26.855","5.693","7.64","0.322","7.126","0.01","0.18","29.6858","4.71093","59.66","0","SATNPRO1509","31.192","0.43688","5"],
    [52051,"HCEP03730542","2025-03-23 11:15:00","9.0155","3.20492","26.782","5.677","7.64","0.323","7.13","0.03","0.94","29.686","4.71096","59.49","0","SATNPRO1509","31.256","0.43782","5"],
    [52052,"HCEP03730542","2025-03-23 11:30:00","9.0152","3.20483","26.745","5.695","7.65","0.404","6.987","0.08","0.42","29.6853","4.71087","59.68","0","SATNPRO1509","31.252","0.43776","5"],
    [52053,"HCEP03730542","2025-03-23 11:45:00","9.0187","3.2041","26.719","5.714","7.65","0.387","5.536","0.07","0.71","29.675","4.70932","59.88","0","SATNPRO1509","31.48","0.44098","5"],
    [52054,"HCEP03730542","2025-03-23 12:00:00","9.0182","3.20387","26.616","5.749","7.65","0.328","3.723","0.02","0.14","29.673","4.70904","60.24","0","SATNPRO1509","31.494","0.44112","5"],
    [52055,"HCEP03730542","2025-03-23 12:15:00","9.0168","3.20447","26.51","5.774","7.65","0.32","4.72","0.02","0.13","29.6805","4.71013","60.51","0","SATNPRO1509","31.470000000000002","0.4408","5"],
    [52056,"HCEP03730542","2025-03-23 12:30:00","9.0133","3.20432","26.512","5.772","7.65","0.359","2.801","0.02","0.09","29.6818","4.71039","60.48","0","SATNPRO1509","31.666","0.44356","5"],
    [52057,"HCEP03730542","2025-03-23 12:45:00","9.0144","3.20436","26.383","5.831","7.65","0.31","3.468","0.01","0.22","29.6814","4.7103","61.1","0","SATNPRO1509","31.552","0.44198","5"],
    [52058,"HCEP03730542","2025-03-23 13:00:00","9.0163","3.20424","26.29","5.805","7.65","0.305","4.731","0.01","0.13","29.6786","4.70985","60.83","0","SATNPRO1509","31.478","0.44092","5"],
    [52059,"HCEP03730542","2025-03-23 13:15:00","9.0178","3.20467","26.171","5.745","7.65","0.312","6.763","0.01","0.34","29.6818","4.71028","60.2","0","SATNPRO1509","31.236","0.43752","5"],
    [52060,"HCEP03730542","2025-03-23 13:30:00","9.0152","3.20462","26.092","5.705","7.65","0.317","6.589","0.02","0.56","29.6835","4.71057","59.78","0","SATNPRO1509","31.406","0.43992","5"],
    [52061,"HCEP03730542","2025-03-23 13:45:00","9.0108","3.20484","25.905","5.734","7.65","0.32","6.637","0.01","0.46","29.6894","4.71149","60.09","0","SATNPRO1509","31.296","0.43836","5"],
    [52062,"HCEP03730542","2025-03-23 14:00:00","9.0089","3.20503","25.768","5.779","7.65","0.313","6.691","0.01","0.24","29.6931","4.71205","60.55","0","SATNPRO1509","31.49","0.44108","5"],
    [52063,"HCEP03730542","2025-03-23 14:15:00","9.0071","3.20492","25.698","5.78","7.65","0.333","6.279","0.04","0.32","29.6935","4.71213","60.56","0","SATNPRO1509","31.658","0.44344","5"],
    [52064,"HCEP03730542","2025-03-23 14:30:00","9.0096","3.20485","25.488","5.799","7.65","0.318","6.715","0.01","0.57","29.6908","4.71168","60.76","0","SATNPRO1509","31.402","0.43982","5"],
    [52065,"HCEP03730542","2025-03-23 14:45:00","9.0115","3.20465","25.367","5.789","7.65","0.319","5.807","0.02","0.25","29.6872","4.71113","60.66","0","SATNPRO1509","31.512","0.4414","5"],
    [52066,"HCEP03730542","2025-03-23 15:00:00","9.0134","3.20447","25.257","5.782","7.65","0.335","5.926","0.02","0.31","29.6838","4.7106","60.59","0","SATNPRO1509","31.438","0.44032","5"],
    [52067,"HCEP03730542","2025-03-23 15:15:00","9.0139","3.20438","25.167","5.788","7.65","0.382","6.504","0.04","0.45","29.6826","4.71041","60.65","0","SATNPRO1509","31.448","0.4405","5"],
    [52068,"HCEP03730542","2025-03-23 15:30:00","9.015","3.20429","25.073","5.784","7.65","0.326","5.937","0.01","0.24","29.6807","4.71011","60.61","0","SATNPRO1509","31.436","0.4403","5"],
    [52069,"HCEP03730542","2025-03-23 15:45:00","9.0167","3.204","24.969","5.777","7.65","0.322","5.309","0.01","0.24","29.6763","4.70945","60.54","0","SATNPRO1509","31.418","0.44006","5"],
    [52070,"HCEP03730542","2025-03-23 16:00:00","9.023","3.2034","24.891","5.765","7.65","0.334","5.072","0.01","0.2","29.6649","4.70769","60.42","0","SATNPRO1509","31.452","0.44054","5"],
    [52071,"HCEP03730542","2025-03-23 16:15:00","9.0244","3.20336","24.815","5.737","7.65","0.353","5.493","0.02","0.28","29.6635","4.70745","60.12","0","SATNPRO1509","31.372","0.4394","5"],
    [52072,"HCEP03730542","2025-03-23 16:30:00","9.0282","3.20297","24.794","5.71","7.65","0.341","5.678","0.02","0.34","29.6563","4.70635","59.84","0","SATNPRO1509","31.278","0.43814","5"],
    [52073,"HCEP03730542","2025-03-23 16:45:00","9.0317","3.20276","24.812","5.685","7.64","0.349","5.863","0.02","0.31","29.6512","4.70555","59.58","0","SATNPRO1509","31.272000000000002","0.43802","5"],
    [52074,"HCEP03730542","2025-03-23 17:00:00","9.0356","3.20263","24.758","5.631","7.64","0.37","6.417","0.02","0.72","29.6467","4.70483","59.02","0","SATNPRO1509","31.13","0.43608","5"],
    [52075,"HCEP03730542","2025-03-23 17:15:00","9.0363","3.20275","24.728","5.595","7.64","1.056","47.748","0.73","28.55","29.6472","4.70489","58.64","0","SATNPRO1509","30.978","0.43394","5"],
    [52076,"HCEP03730542","2025-03-23 17:30:00","9.04","3.20238","24.76","5.563","7.64","0.372","6.966","0.01","0.25","29.6404","4.70384","58.31","0","SATNPRO1509","30.938","0.43332","5"],
    [52077,"HCEP03730542","2025-03-23 17:45:00","9.044","3.2019","24.761","5.532","7.63","0.39","7.024","0.02","0.81","29.6322","4.70259","57.99","0","SATNPRO1509","30.902","0.43284","5"],
    [52078,"HCEP03730542","2025-03-23 18:00:00","9.0487","3.20126","24.786","5.503","7.63","0.397","6.574","0.01","0.25","29.6217","4.70101","57.69","0","SATNPRO1509","30.67","0.4296","5"],
    [52079,"HCEP03730542","2025-03-23 18:15:00","9.0527","3.20068","24.791","5.488","7.63","0.422","6.96","0.02","0.52","29.6124","4.6996","57.53","0","SATNPRO1509","30.776","0.4311","5"],
    [52080,"HCEP03730542","2025-03-23 18:30:00","9.0605","3.19965","24.82","5.456","7.63","0.44","12.07","0.02","3.99","29.5954","4.69701","57.2","0","SATNPRO1509","30.722","0.43032","5"],
    [52081,"HCEP03730542","2025-03-23 18:45:00","9.0659","3.19878","24.882","5.413","7.62","0.451","7.942","0.02","0.96","29.582","4.695","56.75","0","SATNPRO1509","30.628","0.42896","5"],
    [52082,"HCEP03730542","2025-03-23 19:00:00","9.0711","3.19775","24.932","5.359","7.62","0.871","17.601","0.86","17.6","29.5671","4.69276","56.18","0","SATNPRO1509","30.342","0.42498","5"],
    [52083,"HCEP03730542","2025-03-23 19:15:00","9.0747","3.19696","25.032","5.32","7.62","0.456","6.456","0.02","0.31","29.5559","4.69109","55.78","0","SATNPRO1509","30.456","0.42658","5"],
    [52084,"HCEP03730542","2025-03-23 19:30:00","9.0773","3.19638","25.127","5.295","7.61","0.472","6.253","0.03","0.49","29.5478","4.68989","55.51","0","SATNPRO1509","30.355999999999998","0.42516","5"],
    [52085,"HCEP03730542","2025-03-23 19:45:00","9.08","3.1957","25.257","5.266","7.61","0.468","6.19","0.03","0.55","29.5387","4.68854","55.21","0","SATNPRO1509","30.3","0.4244","5"],
    [52086,"HCEP03730542","2025-03-23 20:00:00","9.0823","3.19512","25.374","5.241","7.61","0.486","6.332","0.03","0.61","29.5307","4.68736","54.95","0","SATNPRO1509","30.13","0.422","5"],
    [52087,"HCEP03730542","2025-03-23 20:15:00","9.0852","3.19419","25.432","5.217","7.61","0.475","6.303","0.02","0.66","29.5188","4.68559","54.7","0","SATNPRO1509","30.066","0.42116","5"],
    [52088,"HCEP03730542","2025-03-23 20:30:00","9.0871","3.19318","25.588","5.195","7.61","0.509","6.924","0.03","0.97","29.5069","4.68386","54.47","0","SATNPRO1509","29.92","0.41908","5"],
    [52089,"HCEP03730542","2025-03-23 20:45:00","9.0904","3.19186","25.741","5.176","7.6","0.524","6.427","0.03","0.61","29.4905","4.68146","54.27","0","SATNPRO1509","29.98","0.41994","5"],
    [52090,"HCEP03730542","2025-03-23 21:00:00","9.0927","3.18994","25.899","5.166","7.6","0.56","6.588","0.03","0.77","29.469","4.67834","54.15","0","SATNPRO1509","29.792","0.41728","5"],
    [52091,"HCEP03730542","2025-03-23 21:15:00","9.0926","3.1869","26.048","5.153","7.6","0.565","5.517","0.04","0.63","29.438","4.6739","54","0","SATNPRO1509","29.652","0.41534","5"],
    [52092,"HCEP03730542","2025-03-23 21:30:00","9.0905","3.1881","26.24","5.166","7.6","0.583","6.92","0.04","0.88","29.4519","4.67594","54.15","0","SATNPRO1509","29.682","0.41574","5"],
    [52093,"HCEP03730542","2025-03-23 21:45:00","9.0888","3.18725","26.377","5.171","7.6","0.549","6.691","0.02","1.11","29.4445","4.67493","54.19","0","SATNPRO1509","29.83","0.41782","5"],
    [52094,"HCEP03730542","2025-03-23 22:00:00","9.0867","3.18422","26.489","5.196","7.6","0.571","6.776","0.03","0.51","29.4153","4.67077","54.44","0","SATNPRO1509","29.792","0.41726","5"],
    [52095,"HCEP03730542","2025-03-23 22:15:00","9.0869","3.18245","26.611","5.209","7.61","1.783","32.855","2.01","35.33","29.397","4.66815","54.57","0","SATNPRO1509","29.732","0.41642","5"],
    [52096,"HCEP03730542","2025-03-23 22:30:00","9.0813","3.1749","26.781","5.23","7.61","0.605","5.337","0.03","0.37","29.3243","4.65784","54.76","0","SATNPRO1509","29.387999999999998","0.41166","5"],
    [52097,"HCEP03730542","2025-03-23 22:45:00","9.0792","3.17118","26.905","5.36","7.61","0.878","60.593","0.27","24.71","29.2879","4.65265","56.11","0","SATNPRO1509","29.368","0.4113","5"],
    [52098,"HCEP03730542","2025-03-23 23:00:00","9.0762","3.16337","26.991","5.408","7.62","0.654","5.028","0.03","0.35","29.2107","4.64162","56.57","0","SATNPRO1509","29.298000000000002","0.41036","5"],
    [52099,"HCEP03730542","2025-03-23 23:15:00","9.0844","3.16921","27.112","5.342","7.61","0.65","8.103","0.04","2.51","29.2635","4.64906","55.91","0","SATNPRO1509","29.204","0.40906","5"],
    [52100,"HCEP03730542","2025-03-23 23:30:00","9.0841","3.17087","27.23","5.291","7.61","0.672","6.355","0.04","0.78","29.2806","4.65153","55.38","0","SATNPRO1509","29.318","0.41068","5"],
    [52101,"HCEP03730542","2025-03-23 23:45:00","9.0056","3.09451","27.333","5.454","7.65","0.773","4.279","0.04","1.02","28.5648","4.55","56.73","0","SATNPRO1509","27.644","0.3872","5"],
    [52102,"HCEP03730542","2025-03-24 00:00:00","8.948","3.05742","27.449","6.422","7.7","0.918","3.897","0.08","0.76","28.2324","4.50309","66.57","0","SATNPRO1509","26.77","0.37498","5"],
    [52103,"HCEP03730542","2025-03-24 00:15:00","8.9075","3.02278","27.502","6.846","7.73","0.697","5.191","0.04","1.49","27.9111","4.4574","70.76","0","SATNPRO1509","26.206","0.36708","5"],
    [52104,"HCEP03730542","2025-03-24 00:30:00","9.041","3.1508","27.546","6.625","7.67","0.636","5.385","0.03","0.39","29.1108","4.62795","69.21","0","SATNPRO1509","27.88","0.39046","5"],
    [52105,"HCEP03730542","2025-03-24 00:45:00","8.898","3.00961","27.577","6.137","7.72","0.644","4.991","0.03","0.6","27.7842","4.43921","63.37","0","SATNPRO1509","26.2","0.36698","5"],
    [52106,"HCEP03730542","2025-03-24 01:00:00","8.9759","3.08488","27.602","6.766","7.7","0.642","4.834","0.03","0.46","28.4903","4.53981","70.27","0","SATNPRO1509","26.398","0.36974","5"],
    [52107,"HCEP03730542","2025-03-24 01:15:00","8.8668","2.98558","27.658","6.734","7.75","1.157","2.087","0.09","0.27","27.5637","4.40784","69.39","0","SATNPRO1509","25.644","0.35918","5"],
    [52108,"HCEP03730542","2025-03-24 01:30:00","8.864","2.98361","27.664","7.526","7.78","1.144","2.499","0.17","0.64","27.5457","4.40528","77.52","0","SATNPRO1509","25.63","0.35896","5"],
    [52109,"HCEP03730542","2025-03-24 01:45:00","9.0686","3.17426","27.51","6.795","7.67","0.669","9.832","0.04","0.52","29.3279","4.65862","71.12","0","SATNPRO1509","29.136","0.4081","5"],
    [52110,"HCEP03730542","2025-03-24 02:00:00","9.0701","3.16957","27.523","5.492","7.63","0.72","12.187","0.04","0.6","29.2788","4.65154","57.47","0","SATNPRO1509","29.189999999999998","0.40888","5"],
    [52111,"HCEP03730542","2025-03-24 02:15:00","9.0427","3.17973","27.57","5.421","7.63","0.559","15.174","0.02","0.61","29.4052","4.67021","56.74","0","SATNPRO1509","29.876","0.41848","5"],
    [52112,"HCEP03730542","2025-03-24 02:30:00","9.0518","3.18453","27.587","5.442","7.62","0.545","11.091","0.04","0.71","29.4468","4.67601","56.98","0","SATNPRO1509","29.982","0.41998","5"],
    [52113,"HCEP03730542","2025-03-24 02:45:00","9.0593","3.18668","27.53","5.392","7.62","0.532","10.143","0.02","0.79","29.4626","4.67813","56.48","0","SATNPRO1509","30.178","0.42268","5"],
    [52114,"HCEP03730542","2025-03-24 03:00:00","9.0614","3.18821","27.46","5.37","7.62","0.554","9.502","0.05","1.58","29.4765","4.68009","56.25","0","SATNPRO1509","30.2","0.42304","5"],
    [52115,"HCEP03730542","2025-03-24 03:15:00","9.0622","3.18862","27.418","5.352","7.62","0.534","8.911","0.03","1.67","29.4801","4.68058","56.07","0","SATNPRO1509","30.282","0.42414","5"],
    [52116,"HCEP03730542","2025-03-24 03:30:00","9.0604","3.18933","27.367","5.361","7.62","0.54","8.437","0.04","1.01","29.4888","4.68187","56.17","0","SATNPRO1509","30.284","0.4242","5"],
    [52117,"HCEP03730542","2025-03-24 03:45:00","9.0602","3.18807","27.327","5.384","7.62","0.563","9.399","0.1","5.87","29.4762","4.68006","56.4","0","SATNPRO1509","30.242","0.4236","5"],
    [52118,"HCEP03730542","2025-03-24 04:00:00","9.0585","3.18794","27.32","5.402","7.62","0.51","6.807","0.02","0.42","29.4763","4.6801","56.58","0","SATNPRO1509","30.426","0.42618","5"],
    [52119,"HCEP03730542","2025-03-24 04:15:00","9.0573","3.18818","27.239","5.421","7.62","0.483","6.55","0.02","0.34","29.4797","4.68061","56.78","0","SATNPRO1509","30.496","0.42712","5"],
    [52120,"HCEP03730542","2025-03-24 04:30:00","9.0532","3.18847","27.167","5.446","7.62","0.494","6.283","0.03","0.35","29.4861","4.6816","57.05","0","SATNPRO1509","30.362","0.42526","5"],
    [52121,"HCEP03730542","2025-03-24 04:45:00","9.0511","3.18878","27.162","5.479","7.62","0.472","6.435","0.02","0.42","29.491","4.68234","57.39","0","SATNPRO1509","30.584","0.42836","5"],
    [52122,"HCEP03730542","2025-03-24 05:00:00","9.048400000000001","3.18991","27.078","5.5","7.63","0.462","6.423","0.03","0.26","29.5048","4.68437","57.61","0","SATNPRO1509","30.668","0.42954","5"],
    [52123,"HCEP03730542","2025-03-24 05:15:00","9.0399","3.19152","27.02","5.536","7.63","0.436","6.211","0.03","0.35","29.5284","4.68791","57.99","0","SATNPRO1509","30.966","0.4337","5"],
    [52124,"HCEP03730542","2025-03-24 05:30:00","9.0395","3.19137","26.975","5.596","7.63","0.446","6.277","0.03","0.37","29.5272","4.68775","58.62","0","SATNPRO1509","30.808","0.43154","5"],
    [52125,"HCEP03730542","2025-03-24 05:45:00","9.0275","3.19302","26.902","5.634","7.64","0.419","5.842","0.02","0.44","29.554","4.69181","59.01","0","SATNPRO1509","31.158","0.43644","5"],
    [52126,"HCEP03730542","2025-03-24 06:00:00","9.0245","3.19367","26.864","5.713","7.64","0.434","7.086","0.02","0.59","29.5633","4.6932","59.83","0","SATNPRO1509","31.314","0.43864","5"],
    [52127,"HCEP03730542","2025-03-24 06:15:00","9.0215","3.19402","26.814","5.747","7.65","0.428","6.026","0.05","0.88","29.5693","4.69411","60.19","0","SATNPRO1509","31.284","0.43816","5"],
    [52128,"HCEP03730542","2025-03-24 06:30:00","9.0204","3.19437","26.769","5.773","7.65","0.553","19.689","0.29","18.27","29.5739","4.69479","60.45","0","SATNPRO1509","31.354","0.43912","5"],
    [52129,"HCEP03730542","2025-03-24 06:45:00","9.0184","3.19474","26.722","5.783","7.65","0.447","6.562","0.09","0.81","29.5793","4.6956","60.57","0","SATNPRO1509","31.32","0.43868","5"],
    [52130,"HCEP03730542","2025-03-24 07:00:00","9.0114","3.19452","26.703","5.792","7.65","0.412","5.706","0.04","0.5","29.5829","4.69626","60.65","0","SATNPRO1509","31.316","0.4386","5"],
    [52131,"HCEP03730542","2025-03-24 07:15:00","9.0093","3.19421","26.652","5.823","7.65","0.4","5.828","0.04","0.55","29.5814","4.69608","60.97","0","SATNPRO1509","31.382","0.43956","5"],
    [52132,"HCEP03730542","2025-03-24 07:30:00","9.0078","3.19393","26.655","5.838","7.65","0.545","6.205","0.1","0.74","29.5799","4.69589","61.12","0","SATNPRO1509","31.328","0.43878","5"],
    [52133,"HCEP03730542","2025-03-24 07:45:00","9.008","3.19375","26.649","5.842","7.65","0.377","6.006","0.01","0.26","29.5779","4.69559","61.17","0","SATNPRO1509","31.364","0.4393","5"],
    [52134,"HCEP03730542","2025-03-24 08:00:00","9.0086","3.19384","26.637","5.839","7.65","0.403","5.527","0.03","0.31","29.5783","4.69564","61.14","0","SATNPRO1509","31.32","0.43868","5"],
    [52135,"HCEP03730542","2025-03-24 08:15:00","9.0109","3.19403","26.625","5.835","7.65","0.395","5.438","0.03","0.38","29.5783","4.69559","61.1","0","SATNPRO1509","31.306","0.43852","5"],
    [52136,"HCEP03730542","2025-03-24 08:30:00","9.0132","3.19408","26.628","5.818","7.65","0.419","6.149","0.04","0.43","29.5769","4.69536","60.93","0","SATNPRO1509","31.28","0.4381","5"],
    [52137,"HCEP03730542","2025-03-24 08:45:00","9.0147","3.19405","26.618","5.799","7.65","0.406","6.396","0.02","0.49","29.5754","4.6951","60.73","0","SATNPRO1509","31.294","0.43832","5"],
    [52138,"HCEP03730542","2025-03-24 09:00:00","9.0191","3.19426","26.63","5.781","7.65","0.389","6.746","0.02","0.25","29.5738","4.6948","60.54","0","SATNPRO1509","31.12","0.43586","5"],
    [52139,"HCEP03730542","2025-03-24 09:15:00","9.0193","3.19409","26.629","5.755","7.65","0.377","6.156","0.02","0.23","29.572","4.69453","60.27","0","SATNPRO1509","31.142","0.4362","5"],
    [52140,"HCEP03730542","2025-03-24 09:30:00","9.0175","3.19387","26.652","5.743","7.65","0.414","6.253","0.04","0.33","29.5711","4.69444","60.14","0","SATNPRO1509","31.128","0.43602","5"],
    [52141,"HCEP03730542","2025-03-24 09:45:00","8.9811","3.19186","26.651","5.783","7.66","0.368","6.415","0.03","0.43","29.5808","4.69652","60.52","0","SATNPRO1509","31.532","0.44166","5"],
    [52142,"HCEP03730542","2025-03-24 10:00:00","8.9591","3.19115","26.675","5.968","7.67","0.354","6.37","0.01","0.25","29.5918","4.69851","62.43","0","SATNPRO1509","31.67","0.4436","5"],
    [52143,"HCEP03730542","2025-03-24 10:15:00","8.948","3.19109","26.752","6.131","7.68","0.339","6.188","0.01","0.25","29.6003","4.69996","64.12","0","SATNPRO1509","31.762","0.44488","5"],
    [52144,"HCEP03730542","2025-03-24 10:30:00","8.9447","3.19117","26.779","6.218","7.68","0.337","6.009","0.02","0.27","29.6039","4.70053","65.02","0","SATNPRO1509","31.682","0.44378","5"],
    [52145,"HCEP03730542","2025-03-24 10:45:00","8.9422","3.19139","26.805","6.26","7.68","0.476","6.509","0.44","1.06","29.6083","4.70121","65.46","0","SATNPRO1509","31.846","0.44602","5"],
    [52146,"HCEP03730542","2025-03-24 11:00:00","8.936","3.19196","26.823","6.284","7.69","0.361","5.918","0.03","0.32","29.6192","4.7029","65.7","0","SATNPRO1509","31.966","0.44774","5"],
    [52147,"HCEP03730542","2025-03-24 11:15:00","8.9352","3.19238","26.847","6.304","7.69","0.353","5.602","0.04","0.21","29.6242","4.70364","65.92","0","SATNPRO1509","31.87","0.4464","5"],
    [52148,"HCEP03730542","2025-03-24 11:30:00","8.9352","3.19291","26.882","6.309","7.69","0.35","6.2","0.02","0.39","29.6297","4.70442","65.97","0","SATNPRO1509","31.844","0.44602","5"],
    [52149,"HCEP03730542","2025-03-24 11:45:00","8.9363","3.19336","26.849","6.301","7.69","0.338","5.642","0.02","0.37","29.6334","4.70493","65.89","0","SATNPRO1509","31.652","0.44334","5"],
    [52150,"HCEP03730542","2025-03-24 12:00:00","8.9372","3.19352","26.836","6.295","7.69","0.349","5.283","0.03","0.29","29.6343","4.70504","65.83","0","SATNPRO1509","31.782","0.44512","5"],
    [52151,"HCEP03730542","2025-03-24 12:15:00","8.9361","3.19312","26.796","6.286","7.69","0.337","4.961","0.02","0.34","29.6311","4.70461","65.74","0","SATNPRO1509","31.872","0.44642","5"],
    [52152,"HCEP03730542","2025-03-24 12:30:00","8.9376","3.19326","26.792","6.288","7.69","0.362","5.933","0.02","0.33","29.6313","4.70461","65.76","0","SATNPRO1509","31.814","0.44564","5"],
    [52153,"HCEP03730542","2025-03-24 12:45:00","8.938","3.19399","26.774","6.265","7.69","0.342","5.918","0.02","0.23","29.6385","4.70563","65.52","0","SATNPRO1509","32.05","0.44892","5"],
    [52154,"HCEP03730542","2025-03-24 13:00:00","8.9429","3.19501","26.721","6.255","7.69","0.348","6.336","0.02","0.35","29.6449","4.70645","65.42","0","SATNPRO1509","31.788","0.44528","5"],
    [52155,"HCEP03730542","2025-03-24 13:15:00","8.9438","3.19518","26.666","6.208","7.68","0.355","5.935","0.04","0.39","29.646","4.70658","64.93","0","SATNPRO1509","31.784","0.44516","5"],
    [52156,"HCEP03730542","2025-03-24 13:30:00","8.9438","3.19515","26.611","6.192","7.68","0.34","6.273","0.01","0.36","29.6457","4.70654","64.77","0","SATNPRO1509","31.721999999999998","0.44432","5"],
    [52157,"HCEP03730542","2025-03-24 13:45:00","8.9456","3.19496","26.547","6.181","7.68","0.357","7.076","0.05","0.41","29.6422","4.706","64.65","0","SATNPRO1509","31.663999999999998","0.4435","5"],
    [52158,"HCEP03730542","2025-03-24 14:00:00","8.948","3.19539","26.434","6.168","7.68","0.355","7.058","0.02","0.84","29.6447","4.7063","64.53","0","SATNPRO1509","31.794","0.44532","5"],
    [52159,"HCEP03730542","2025-03-24 14:15:00","8.953","3.19609","26.343","6.14","7.68","0.336","5.469","0.02","0.27","29.6477","4.70664","64.23","0","SATNPRO1509","31.424","0.44016","5"],
    [52160,"HCEP03730542","2025-03-24 14:30:00","8.9552","3.19611","26.255","6.102","7.68","0.359","5.523","0.02","0.24","29.6461","4.70636","63.84","0","SATNPRO1509","31.602","0.44268","5"],
    [52161,"HCEP03730542","2025-03-24 14:45:00","8.9514","3.19495","26.299","6.106","7.68","0.355","6.652","0.02","0.24","29.6374","4.70518","63.88","0","SATNPRO1509","31.6","0.44258","5"],
    [52162,"HCEP03730542","2025-03-24 15:00:00","8.954","3.19475","26.273","6.115","7.68","0.335","6.202","0.01","0.32","29.6332","4.70453","63.97","0","SATNPRO1509","31.669999999999998","0.44358","5"],
    [52163,"HCEP03730542","2025-03-24 15:15:00","8.9602","3.19496","26.113","6.107","7.67","0.337","6.822","0.01","0.31","29.6303","4.70398","63.9","0","SATNPRO1509","31.684","0.44376","5"],
    [52164,"HCEP03730542","2025-03-24 15:30:00","8.9628","3.19472","26.017","6.083","7.67","0.369","6.382","0.02","0.46","29.6256","4.70326","63.64","0","SATNPRO1509","31.646","0.44326","5"],
    [52165,"HCEP03730542","2025-03-24 15:45:00","8.964","3.19409","25.893","6.071","7.67","0.352","6.343","0.02","0.51","29.6183","4.70218","63.52","0","SATNPRO1509","31.666","0.44354","5"],
    [52166,"HCEP03730542","2025-03-24 16:00:00","8.9693","3.19349","25.758","6.061","7.67","0.363","6.189","0.01","0.32","29.6077","4.70056","63.41","0","SATNPRO1509","31.552","0.44196","5"],
    [52167,"HCEP03730542","2025-03-24 16:15:00","8.9809","3.19329","25.636","6.035","7.67","0.354","6.064","0.01","0.16","29.5961","4.69866","63.16","0","SATNPRO1509","31.445999999999998","0.44046","5"],
    [52168,"HCEP03730542","2025-03-24 16:30:00","8.992","3.1932","25.484","5.981","7.66","0.598","7.496","1.14","4.39","29.586","4.69699","62.61","0","SATNPRO1509","31.508","0.44134","5"],
    [52169,"HCEP03730542","2025-03-24 16:45:00","8.9995","3.1926","25.382","5.919","7.66","0.359","5.895","0.01","0.2","29.5736","4.69507","61.96","0","SATNPRO1509","31.344","0.43902","5"],
    [52170,"HCEP03730542","2025-03-24 17:00:00","9.0031","3.19252","25.075","5.879","7.66","0.389","5.81","0.02","0.2","29.57","4.69446","61.54","0","SATNPRO1509","31.364","0.4393","5"],
    [52171,"HCEP03730542","2025-03-24 17:15:00","9.0031","3.19279","24.947","5.857","7.66","0.395","6.525","0.01","0.67","29.5728","4.69485","61.31","0","SATNPRO1509","31.362","0.43926","5"],
    [52172,"HCEP03730542","2025-03-24 17:30:00","9.0013","3.19294","24.825","5.844","7.65","0.39","5.844","0.01","0.26","29.5758","4.69532","61.18","0","SATNPRO1509","31.296","0.43832","5"],
    [52173,"HCEP03730542","2025-03-24 17:45:00","9.0048","3.19303","24.703","5.834","7.65","0.391","5.814","0.02","0.4","29.5739","4.69496","61.07","0","SATNPRO1509","31.344","0.43904","5"],
    [52174,"HCEP03730542","2025-03-24 18:00:00","9.0075","3.19336","24.639","5.811","7.65","0.401","6.439","0.01","0.37","29.5751","4.69508","60.84","0","SATNPRO1509","31.394000000000002","0.4397","5"],
    [52175,"HCEP03730542","2025-03-24 18:15:00","9.0095","3.19342","24.544","5.777","7.65","0.405","6.584","0.02","0.29","29.5741","4.6949","60.49","0","SATNPRO1509","31.27","0.43802","5"],
    [52176,"HCEP03730542","2025-03-24 18:30:00","9.014","3.19337","24.45","5.745","7.65","0.412","6.639","0.02","0.34","29.5699","4.6942","60.16","0","SATNPRO1509","31.124","0.43596","5"],
    [52177,"HCEP03730542","2025-03-24 18:45:00","9.0167","3.19329","24.42","5.723","7.64","0.427","6.805","0.02","0.59","29.5669","4.69372","59.92","0","SATNPRO1509","31.204","0.43706","5"],
    [52178,"HCEP03730542","2025-03-24 19:00:00","9.0199","3.19293","24.454","5.7","7.64","0.44","6.449","0.02","0.44","29.5604","4.69273","59.69","0","SATNPRO1509","31.094","0.43552","5"],
    [52179,"HCEP03730542","2025-03-24 19:15:00","9.0227","3.19268","24.484","5.685","7.64","0.461","6.325","0.05","0.5","29.5556","4.69198","59.53","0","SATNPRO1509","31.068","0.4352","5"],
    [52180,"HCEP03730542","2025-03-24 19:30:00","9.0253","3.19236","24.539","5.666","7.64","11.898","207.265","8.71","112.49","29.5501","4.69116","59.33","0","SATNPRO1509","31.086","0.43542","5"],
    [52181,"HCEP03730542","2025-03-24 19:45:00","9.0283","3.19191","24.639","5.655","7.64","0.495","6.632","0.05","0.47","29.543","4.69008","59.22","0","SATNPRO1509","30.924","0.43312","5"],
    [52182,"HCEP03730542","2025-03-24 20:00:00","9.0315","3.19124","24.71","5.636","7.64","18.911","454.571","9.08","58.58","29.5335","4.68867","59.02","0","SATNPRO1509","31.116","0.43584","5"],
    [52183,"HCEP03730542","2025-03-24 20:15:00","9.0333","3.19078","24.854","5.63","7.64","0.478","5.657","0.03","0.46","29.5272","4.68773","58.96","0","SATNPRO1509","31.038","0.43474","5"],
    [52184,"HCEP03730542","2025-03-24 20:30:00","9.0348","3.19032","24.949","5.617","7.64","0.48","5.802","0.03","0.45","29.5212","4.68686","58.83","0","SATNPRO1509","31.002","0.43424","5"],
    [52185,"HCEP03730542","2025-03-24 20:45:00","9.0374","3.18967","25.041","5.601","7.63","0.463","6.102","0.02","0.51","29.5123","4.68554","58.66","0","SATNPRO1509","30.948","0.43348","5"],
    [52186,"HCEP03730542","2025-03-24 21:00:00","9.0383","3.18937","25.167","5.585","7.63","0.47","6.011","0.03","0.87","29.5085","4.68497","58.49","0","SATNPRO1509","30.932","0.43324","5"],
    [52187,"HCEP03730542","2025-03-24 21:15:00","9.0405","3.18868","25.269","5.571","7.63","0.462","5.66","0.02","0.39","29.4995","4.68366","58.34","0","SATNPRO1509","30.926000000000002","0.43316","5"],
    [52188,"HCEP03730542","2025-03-24 21:30:00","9.0413","3.18845","25.407","5.553","7.63","0.486","5.189","0.05","0.31","29.4965","4.68322","58.16","0","SATNPRO1509","30.836","0.4319","5"],
    [52189,"HCEP03730542","2025-03-24 21:45:00","9.0419","3.18809","25.555","5.545","7.63","0.471","6.001","0.03","0.59","29.4922","4.68259","58.07","0","SATNPRO1509","30.89","0.43268","5"],
    [52190,"HCEP03730542","2025-03-24 22:00:00","9.0422","3.18805","25.731","5.536","7.63","0.474","5.866","0.03","0.33","29.4915","4.6825","57.98","0","SATNPRO1509","30.756","0.43082","5"],
    [52191,"HCEP03730542","2025-03-24 22:15:00","9.0424","3.18816","25.878","5.527","7.63","0.484","5.936","0.03","0.4","29.4924","4.68263","57.88","0","SATNPRO1509","30.758","0.43082","5"],
    [52192,"HCEP03730542","2025-03-24 22:30:00","9.0429","3.18796","26.071","5.533","7.63","0.497","5.449","0.02","0.44","29.4898","4.68227","57.95","0","SATNPRO1509","30.788","0.43122","5"],
    [52193,"HCEP03730542","2025-03-24 22:45:00","9.0421","3.18827","26.262","5.531","7.63","0.505","5.338","0.09","0.47","29.4936","4.68284","57.93","0","SATNPRO1509","30.816","0.43164","5"],
    [52194,"HCEP03730542","2025-03-24 23:00:00","9.0418","3.18863","26.471","5.529","7.63","0.48","6.192","0.02","0.48","29.4975","4.68341","57.9","0","SATNPRO1509","30.724","0.43036","5"],
    [52195,"HCEP03730542","2025-03-24 23:15:00","9.0412","3.18871","26.637","5.518","7.63","0.473","7.062","0.03","0.47","29.4987","4.68361","57.79","0","SATNPRO1509","30.724","0.43034","5"],
    [52196,"HCEP03730542","2025-03-24 23:30:00","9.0413","3.1892","26.813","5.518","7.63","0.48","7.008","0.06","0.36","29.5035","4.6843","57.79","0","SATNPRO1509","30.698","0.43","5"],
    [52197,"HCEP03730542","2025-03-24 23:45:00","9.041","3.18945","27.002","5.505","7.63","0.46","7.272","0.02","0.48","29.5063","4.68472","57.65","0","SATNPRO1509","31.058","0.435","5"],
    [52198,"HCEP03730542","2025-03-25 00:00:00","9.0406","3.18952","27.151","5.501","7.63","0.471","7.075","0.02","0.54","29.5073","4.68488","57.62","0","SATNPRO1509","30.894","0.43274","5"],
    [52199,"HCEP03730542","2025-03-25 00:15:00","9.0408","3.18965","27.299","5.502","7.63","0.46","6.979","0.02","0.43","29.5084","4.68504","57.62","0","SATNPRO1509","30.738","0.43054","5"],
    [52200,"HCEP03730542","2025-03-25 00:30:00","9.0375","3.19059","27.447","5.502","7.63","0.459","8.018","0.02","0.63","29.5206","4.68687","57.62","0","SATNPRO1509","30.79","0.43124","5"],
    [52201,"NA","2025-03-25 00:45:00",null,null,null,null,null,null,null,null,null,null,null,null,null,"SATNPRO1509","30.946","0.43348","5"],
    [52202,"HCEP03730542","2025-03-25 00:45:01","9.0349","3.19118","27.592","5.504","7.63","0.427","7.85","0.02","0.33","29.5289","4.68811","57.65","0","NA",null,null,null],
    [52203,"HCEP03730542","2025-03-25 01:00:00","9.0315","3.19186","27.7","5.519","7.63","0.428","7.817","0.02","0.3","29.5386","4.68958","57.81","0","SATNPRO1509","30.9","0.4328","5"],
    [52204,"HCEP03730542","2025-03-25 01:15:00","9.027","3.19244","27.82","5.537","7.63","0.406","7.593","0.02","0.44","29.5481","4.69103","57.99","0","SATNPRO1509","30.992","0.43406","5"],
    [52205,"HCEP03730542","2025-03-25 01:30:00","9.0235","3.19275","27.877","5.546","7.63","0.411","8.151","0.01","0.29","29.5542","4.69198","58.08","0","SATNPRO1509","30.894","0.43274","5"],
    [52206,"HCEP03730542","2025-03-25 01:45:00","9.0215","3.19283","27.86","5.549","7.63","0.406","7.912","0.04","0.4","29.5567","4.69237","58.11","0","SATNPRO1509","31.128","0.436","5"],
    [52207,"HCEP03730542","2025-03-25 02:00:00","9.01","3.19278","27.8","5.577","7.63","0.396","8.544","0.02","0.43","29.5658","4.69389","58.39","0","SATNPRO1509","30.874","0.43244","5"],
    [52208,"HCEP03730542","2025-03-25 02:15:00","9.0054","3.19286","27.821","5.621","7.63","0.385","8.426","0.03","0.55","29.5704","4.69463","58.85","0","SATNPRO1509","31.13","0.436","5"],
    [52209,"HCEP03730542","2025-03-25 02:30:00","9.0018","3.193","27.779","5.654","7.64","0.407","8.518","0.02","0.45","29.5749","4.69534","59.19","0","SATNPRO1509","31.067999999999998","0.43516","5"],
    [52210,"HCEP03730542","2025-03-25 02:45:00","8.9993","3.19327","27.758","5.683","7.64","0.39","8.088","0.01","0.49","29.5797","4.69608","59.49","0","SATNPRO1509","31.176000000000002","0.43668","5"],
    [52211,"HCEP03730542","2025-03-25 03:00:00","8.9934","3.19362","27.757","5.73","7.64","0.405","8.119","0.03","0.46","29.5882","4.69741","59.98","0","SATNPRO1509","31.144","0.43618","5"],
    [52212,"HCEP03730542","2025-03-25 03:15:00","8.9888","3.19396","27.746","5.746","7.64","0.387","7.375","0.03","0.53","29.5955","4.69855","60.15","0","SATNPRO1509","31.194","0.43688","5"],
    [52213,"HCEP03730542","2025-03-25 03:30:00","8.9844","3.19422","27.687","5.777","7.65","0.404","8.434","0.03","1.79","29.6019","4.69954","60.46","0","SATNPRO1509","31.356","0.4392","5"],
    [52214,"HCEP03730542","2025-03-25 03:45:00","8.9812","3.19417","27.646","5.793","7.65","0.425","6.676","0.18","0.37","29.604","4.6999","60.63","0","SATNPRO1509","31.183999999999997","0.43678","5"],
    [52215,"HCEP03730542","2025-03-25 04:00:00","8.9759","3.1943","27.592","5.81","7.65","0.393","6.778","0.04","0.5","29.6098","4.70084","60.8","0","SATNPRO1509","31.254","0.4378","5"],
    [52216,"HCEP03730542","2025-03-25 04:15:00","8.9753","3.19441","27.516","5.838","7.65","0.376","5.903","0.03","0.6","29.6114","4.70108","61.09","0","SATNPRO1509","31.406","0.43986","5"],
    [52217,"HCEP03730542","2025-03-25 04:30:00","8.9728","3.19431","27.48","5.856","7.65","0.378","6.436","0.02","0.66","29.6126","4.70128","61.28","0","SATNPRO1509","31.272000000000002","0.438","5"],
    [52218,"HCEP03730542","2025-03-25 04:45:00","8.9704","3.19405","27.405","5.88","7.66","0.373","6.298","0.02","0.56","29.6119","4.70123","61.53","0","SATNPRO1509","31.584","0.4424","5"],
    [52219,"HCEP03730542","2025-03-25 05:00:00","8.9702","3.194","27.35","5.895","7.66","0.377","6.294","0.02","0.49","29.6116","4.70119","61.69","0","SATNPRO1509","31.504","0.4413","5"],
    [52220,"HCEP03730542","2025-03-25 05:15:00","8.97","3.19402","27.279","5.902","7.66","0.385","5.675","0.03","0.81","29.6119","4.70123","61.76","0","SATNPRO1509","31.372","0.43938","5"],
    [52221,"HCEP03730542","2025-03-25 05:30:00","8.9702","3.19415","27.203","5.904","7.66","0.39","6.124","0.03","0.59","29.6132","4.70141","61.78","0","SATNPRO1509","31.472","0.44084","5"],
    [52222,"HCEP03730542","2025-03-25 05:45:00","8.9706","3.19434","27.119","5.901","7.66","0.4","8.099","0.11","8.27","29.6148","4.70163","61.75","0","SATNPRO1509","31.456","0.44058","5"],
    [52223,"HCEP03730542","2025-03-25 06:00:00","8.971","3.19482","27.024","5.894","7.66","0.392","6.548","0.04","0.41","29.6194","4.70228","61.68","0","SATNPRO1509","31.44","0.44034","5"],
    [52224,"HCEP03730542","2025-03-25 06:15:00","8.9736","3.19529","26.946","5.888","7.66","3.086","31.053","5.05","30.38","29.6221","4.70261","61.61","0","SATNPRO1509","31.436","0.4403","5"],
    [52225,"HCEP03730542","2025-03-25 06:30:00","8.9755","3.19564","26.869","5.867","7.65","0.451","8.071","0.07","1.65","29.6242","4.70286","61.4","0","SATNPRO1509","31.402","0.43986","5"],
    [52226,"HCEP03730542","2025-03-25 06:45:00","8.9768","3.19595","26.795","5.844","7.65","0.415","10.785","0.04","1.31","29.6263","4.70314","61.16","0","SATNPRO1509","31.337999999999997","0.43894","5"],
    [52227,"HCEP03730542","2025-03-25 07:00:00","8.9792","3.19638","26.723","5.824","7.65","0.392","6.447","0.03","0.39","29.6287","4.70343","60.96","0","SATNPRO1509","31.39","0.4397","5"],
    [52228,"HCEP03730542","2025-03-25 07:15:00","8.9808","3.19666","26.653","5.81","7.65","0.388","6.762","0.03","0.47","29.6303","4.70362","60.81","0","SATNPRO1509","31.346","0.43908","5"],
    [52229,"HCEP03730542","2025-03-25 07:30:00","8.9826","3.1969","26.589","5.795","7.65","0.385","6.396","0.03","0.34","29.6313","4.70373","60.66","0","SATNPRO1509","31.342","0.43898","5"],
    [52230,"HCEP03730542","2025-03-25 07:45:00","8.9843","3.19718","26.533","5.784","7.65","0.4","10.216","0.07","8.61","29.6328","4.70391","60.55","0","SATNPRO1509","31.47","0.44078","5"],
    [52231,"HCEP03730542","2025-03-25 08:00:00","8.9849","3.19728","26.509","5.768","7.65","0.374","6.667","0.02","0.55","29.6333","4.70396","60.38","0","SATNPRO1509","31.334","0.43892","5"],
    [52232,"HCEP03730542","2025-03-25 08:15:00","8.9843","3.19723","26.471","5.761","7.65","0.382","7.588","0.03","0.39","29.6333","4.70398","60.3","0","SATNPRO1509","31.4","0.43986","5"],
    [52233,"HCEP03730542","2025-03-25 08:30:00","8.9846","3.19745","26.445","5.755","7.65","0.38","7.161","0.02","0.33","29.6354","4.70427","60.24","0","SATNPRO1509","31.468","0.44076","5"],
    [52234,"HCEP03730542","2025-03-25 08:45:00","8.9846","3.19774","26.433","5.745","7.65","0.375","7.349","0.02","0.52","29.6383","4.70469","60.14","0","SATNPRO1509","31.387999999999998","0.4396","5"],
    [52235,"HCEP03730542","2025-03-25 09:00:00","8.98","3.19785","26.437","5.752","7.65","0.383","6.608","0.04","0.45","29.6432","4.70548","60.21","0","SATNPRO1509","31.560000000000002","0.44206","5"],
    [52236,"HCEP03730542","2025-03-25 09:15:00","8.9775","3.19808","26.463","5.784","7.65","0.369","6.846","0.02","0.45","29.6477","4.70617","60.55","0","SATNPRO1509","31.502","0.44124","5"],
    [52237,"HCEP03730542","2025-03-25 09:30:00","8.976","3.19826","26.491","5.802","7.65","0.38","6.831","0.04","0.32","29.6508","4.70665","60.73","0","SATNPRO1509","31.828","0.4458","5"],
    [52238,"HCEP03730542","2025-03-25 09:45:00","8.9731","3.1982","26.516","5.824","7.65","0.36","5.266","0.03","0.23","29.6526","4.70696","60.96","0","SATNPRO1509","31.733999999999998","0.4445","5"],
    [52239,"HCEP03730542","2025-03-25 10:00:00","8.9741","3.19811","26.552","5.846","7.65","0.409","6.979","0.1","1.74","29.6508","4.70669","61.19","0","SATNPRO1509","31.69","0.44388","5"],
    [52240,"HCEP03730542","2025-03-25 10:15:00","8.9763","3.19789","26.594","5.841","7.65","0.368","6.644","0.02","0.42","29.6467","4.70606","61.14","0","SATNPRO1509","31.598000000000003","0.44256","5"],
    [52241,"HCEP03730542","2025-03-25 10:30:00","8.9756","3.19756","26.636","5.81","7.65","0.37","6.753","0.02","0.57","29.6438","4.70566","60.82","0","SATNPRO1509","31.422","0.44012","5"],
    [52242,"HCEP03730542","2025-03-25 10:45:00","8.9735","3.19742","26.661","5.795","7.65","0.376","7.395","0.03","0.69","29.6441","4.70575","60.66","0","SATNPRO1509","31.536","0.44168","5"],
    [52243,"HCEP03730542","2025-03-25 11:00:00","8.9746","3.19766","26.706","5.79","7.65","0.389","8.358","0.03","0.52","29.6457","4.70595","60.6","0","SATNPRO1509","31.322","0.4387","5"],
    [52244,"HCEP03730542","2025-03-25 11:15:00","8.9739","3.19816","26.736","5.772","7.65","0.367","7.563","0.04","0.45","29.6514","4.70679","60.42","0","SATNPRO1509","31.378","0.4395","5"],
    [52245,"HCEP03730542","2025-03-25 11:30:00","8.9732","3.19821","26.794","5.77","7.65","0.379","8.396","0.02","0.71","29.6525","4.70697","60.39","0","SATNPRO1509","31.366","0.43932","5"],
    [52246,"HCEP03730542","2025-03-25 11:45:00","8.9728","3.19869","26.85","5.771","7.65","0.394","8.342","0.03","0.43","29.6577","4.70772","60.41","0","SATNPRO1509","31.402","0.43978","5"],
    [52247,"HCEP03730542","2025-03-25 12:00:00","8.9691","3.199","26.879","5.787","7.65","0.369","7.315","0.02","0.45","29.664","4.70869","60.58","0","SATNPRO1509","31.764","0.44492","5"],
    [52248,"HCEP03730542","2025-03-25 12:15:00","8.9692","3.19942","26.92","5.811","7.65","0.355","7.19","0.02","0.31","29.6682","4.7093","60.82","0","SATNPRO1509","31.642","0.44322","5"],
    [52249,"HCEP03730542","2025-03-25 12:30:00","8.9651","3.19929","26.941","5.826","7.65","0.358","5.344","0.02","0.28","29.6703","4.70968","60.98","0","SATNPRO1509","31.7","0.444","5"],
    [52250,"HCEP03730542","2025-03-25 12:45:00","8.9603","3.19982","26.963","5.875","7.66","0.344","6.395","0.01","0.68","29.6797","4.71113","61.49","0","SATNPRO1509","31.87","0.4464","5"],
    [52251,"HCEP03730542","2025-03-25 13:00:00","8.9544","3.20003","26.977","5.916","7.66","0.346","5.757","0.03","0.35","29.6868","4.71225","61.91","0","SATNPRO1509","31.754","0.4448","5"],
    [52252,"HCEP03730542","2025-03-25 13:15:00","8.9492","3.20013","26.977","5.968","7.66","0.339","5.396","0.03","0.44","29.6921","4.71311","62.45","0","SATNPRO1509","31.868","0.44638","5"],
    [52253,"HCEP03730542","2025-03-25 13:30:00","8.949","3.20008","26.939","6.031","7.67","0.38","4.834","0.05","0.33","29.6918","4.71308","63.11","0","SATNPRO1509","31.916","0.44702","5"],
    [52254,"HCEP03730542","2025-03-25 13:45:00","8.9476","3.20012","26.911","6.042","7.67","0.357","4.688","0.02","0.24","29.6934","4.71332","63.22","0","SATNPRO1509","31.936","0.44732","5"],
    [52255,"HCEP03730542","2025-03-25 14:00:00","8.9439","3.20015","26.856","6.082","7.67","0.371","3.853","0.02","0.19","29.6967","4.71387","63.63","0","SATNPRO1509","32.042","0.44874","5"],
    [52256,"HCEP03730542","2025-03-25 14:15:00","8.948","3.20017","26.821","6.09","7.67","0.34","5.106","0.03","0.24","29.6936","4.71334","63.73","0","SATNPRO1509","31.87","0.4464","5"],
    [52257,"HCEP03730542","2025-03-25 14:30:00","8.9495","3.20016","26.802","6.044","7.67","0.34","5.483","0.02","0.34","29.6923","4.71312","63.25","0","SATNPRO1509","31.962","0.44764","5"],
    [52258,"HCEP03730542","2025-03-25 14:45:00","8.9525","3.2001","26.736","6.027","7.67","0.33","6.092","0.01","0.46","29.6891","4.71261","63.07","0","SATNPRO1509","31.939999999999998","0.44738","5"],
    [52259,"HCEP03730542","2025-03-25 15:00:00","8.957","3.2","26.742","5.997","7.66","0.338","7.227","0.02","0.46","29.6843","4.71183","62.76","0","SATNPRO1509","31.746000000000002","0.44468","5"],
    [52260,"HCEP03730542","2025-03-25 15:15:00","8.9569","3.19997","26.708","5.958","7.66","0.315","6.366","0.01","0.28","29.6841","4.7118","62.35","0","SATNPRO1509","31.816","0.44564","5"],
    [52261,"HCEP03730542","2025-03-25 15:30:00","8.9645","3.19952","26.642","5.95","7.66","0.345","6.649","0.04","0.23","29.6732","4.71009","62.27","0","SATNPRO1509","31.674","0.44364","5"],
    [52262,"HCEP03730542","2025-03-25 15:45:00","8.9707","3.19935","26.51","5.893","7.66","0.363","6.768","0.04","0.21","29.6664","4.70899","61.69","0","SATNPRO1509","31.602","0.44268","5"],
    [52263,"HCEP03730542","2025-03-25 16:00:00","8.9723","3.19917","26.393","5.848","7.66","0.373","6.719","0.05","0.42","29.6632","4.7085","61.22","0","SATNPRO1509","31.638","0.44314","5"],
    [52264,"HCEP03730542","2025-03-25 16:15:00","8.9699","3.19911","26.25","5.845","7.66","0.329","5.692","0.01","0.27","29.6647","4.70874","61.18","0","SATNPRO1509","31.724","0.44438","5"],
    [52265,"HCEP03730542","2025-03-25 16:30:00","8.9682","3.19921","26.132","5.872","7.66","0.344","6.004","0.02","0.28","29.6671","4.70912","61.47","0","SATNPRO1509","31.88","0.44652","5"],
    [52266,"HCEP03730542","2025-03-25 16:45:00","8.9622","3.19964","25.956","5.892","7.66","0.348","6.473","0.06","0.55","29.6767","4.7106","61.67","0","SATNPRO1509","31.874","0.44644","5"],
    [52267,"HCEP03730542","2025-03-25 17:00:00","8.9576","3.19982","25.765","5.927","7.66","0.359","5.748","0.03","0.23","29.6824","4.7115","62.03","0","SATNPRO1509","31.848","0.4461","5"],
    [52268,"HCEP03730542","2025-03-25 17:15:00","8.9577","3.19971","25.615","5.975","7.66","0.383","5.556","0.06","0.22","29.6812","4.71131","62.53","0","SATNPRO1509","31.876","0.44648","5"],
    [52269,"HCEP03730542","2025-03-25 17:30:00","8.9619","3.19942","25.434","5.975","7.66","3.714","53.684","3.34","34.13","29.6748","4.7103","62.54","0","SATNPRO1509","31.816","0.4456","5"],
    [52270,"HCEP03730542","2025-03-25 17:45:00","8.9676","3.19893","25.287","5.942","7.66","0.401","6.972","0.05","0.44","29.6651","4.70879","62.19","0","SATNPRO1509","31.842000000000002","0.44598","5"],
    [52271,"HCEP03730542","2025-03-25 18:00:00","8.9727","3.19832","25.15","5.902","7.66","0.382","6.349","0.01","0.24","29.6547","4.70719","61.78","0","SATNPRO1509","31.816","0.44568","5"],
    [52272,"HCEP03730542","2025-03-25 18:15:00","8.9794","3.19722","24.996","5.857","7.65","0.393","6.926","0.01","0.5","29.6378","4.70463","61.31","0","SATNPRO1509","31.66","0.4435","5"],
    [52273,"HCEP03730542","2025-03-25 18:30:00","8.9857","3.19634","24.872","5.808","7.65","0.409","7.052","0.02","0.32","29.6237","4.70248","60.79","0","SATNPRO1509","31.602","0.44264","5"],
    [52274,"HCEP03730542","2025-03-25 18:45:00","8.9893","3.1959","24.756","5.773","7.65","0.409","7.688","0.02","0.46","29.6162","4.70133","60.43","0","SATNPRO1509","31.562","0.44206","5"],
    [52275,"HCEP03730542","2025-03-25 19:00:00","8.9919","3.19573","24.668","5.741","7.64","0.417","7.414","0.02","0.42","29.6124","4.70073","60.1","0","SATNPRO1509","31.509999999999998","0.44138","5"],
    [52276,"HCEP03730542","2025-03-25 19:15:00","8.9936","3.19538","24.591","5.719","7.64","0.417","6.674","0.02","0.29","29.6074","4.69997","59.87","0","SATNPRO1509","31.672","0.44362","5"],
    [52277,"HCEP03730542","2025-03-25 19:30:00","8.9957","3.19491","24.488","5.707","7.64","0.423","6.4","0.02","0.25","29.6009","4.699","59.75","0","SATNPRO1509","31.458","0.44062","5"],
    [52278,"HCEP03730542","2025-03-25 19:45:00","8.9989","3.19413","24.428","5.697","7.64","0.439","5.666","0.02","0.31","29.5903","4.69741","59.64","0","SATNPRO1509","31.477999999999998","0.44088","5"],
    [52279,"HCEP03730542","2025-03-25 20:00:00","9.002","3.19343","24.404","5.691","7.64","0.437","5.295","0.02","0.29","29.5804","4.69594","59.58","0","SATNPRO1509","31.484","0.44098","5"],
    [52280,"HCEP03730542","2025-03-25 20:15:00","9.002","3.19345","24.38","5.682","7.64","0.475","5.558","0.03","0.46","29.5807","4.69597","59.49","0","SATNPRO1509","31.402","0.43986","5"],
    [52281,"HCEP03730542","2025-03-25 20:30:00","9.003","3.19326","24.453","5.67","7.64","0.486","5.171","0.04","0.66","29.578","4.69557","59.36","0","SATNPRO1509","31.404","0.4399","5"],
    [52282,"HCEP03730542","2025-03-25 20:45:00","9.003","3.19334","24.559","5.663","7.64","0.449","5.081","0.08","0.5","29.5787","4.69568","59.29","0","SATNPRO1509","31.648","0.4433","5"],
    [52283,"HCEP03730542","2025-03-25 21:00:00","9.0032","3.19345","24.657","5.656","7.64","0.448","4.76","0.03","0.44","29.5795","4.6958","59.21","0","SATNPRO1509","31.458","0.44064","5"],
    [52284,"HCEP03730542","2025-03-25 21:15:00","9.0038","3.1933","24.778","5.655","7.64","0.468","5.193","0.05","0.42","29.5775","4.6955","59.21","0","SATNPRO1509","31.44","0.44038","5"],
    [52285,"HCEP03730542","2025-03-25 21:30:00","9.0052","3.19311","24.901","5.646","7.64","0.471","5.746","0.05","0.45","29.5744","4.69504","59.11","0","SATNPRO1509","31.406000000000002","0.43994","5"],
    [52286,"HCEP03730542","2025-03-25 21:45:00","9.0058","3.19295","25.025","5.639","7.64","0.482","4.998","0.04","0.35","29.5722","4.69472","59.03","0","SATNPRO1509","31.55","0.4419","5"],
    [52287,"HCEP03730542","2025-03-25 22:00:00","9.0066","3.19277","25.159","5.634","7.64","0.469","5.824","0.02","0.43","29.5696","4.69434","58.98","0","SATNPRO1509","31.344","0.43902","5"],
    [52288,"HCEP03730542","2025-03-25 22:15:00","9.0074","3.19269","25.295","5.632","7.64","0.508","5.807","0.05","0.5","29.568","4.69411","58.97","0","SATNPRO1509","31.342","0.43902","5"],
    [52289,"HCEP03730542","2025-03-25 22:30:00","9.0081","3.19252","25.446","5.629","7.63","0.493","5.635","0.05","1.32","29.5656","4.69376","58.94","0","SATNPRO1509","31.328","0.43882","5"],
    [52290,"HCEP03730542","2025-03-25 22:45:00","9.01","3.19221","25.61","5.625","7.63","0.474","5.148","0.02","0.43","29.5608","4.69304","58.89","0","SATNPRO1509","31.488","0.44106","5"],
    [52291,"HCEP03730542","2025-03-25 23:00:00","9.0107","3.19211","25.773","5.626","7.63","0.512","4.301","0.03","0.32","29.5592","4.69281","58.9","0","SATNPRO1509","31.468","0.44076","5"],
    [52292,"HCEP03730542","2025-03-25 23:15:00","9.0112","3.19213","25.953","5.614","7.63","0.49","4.745","0.05","0.45","29.5589","4.69277","58.78","0","SATNPRO1509","31.518","0.44146","5"],
    [52293,"HCEP03730542","2025-03-25 23:30:00","9.0107","3.19229","26.147","5.601","7.63","0.478","5.584","0.02","0.73","29.5609","4.69308","58.64","0","SATNPRO1509","31.226","0.43736","5"],
    [52294,"HCEP03730542","2025-03-25 23:45:00","9.0109","3.19223","26.334","5.588","7.63","0.475","5.053","0.04","0.41","29.5599","4.69294","58.5","0","SATNPRO1509","32.014","0.44838","5"],
    [52295,"HCEP03730542","2025-03-26 00:00:00","9.0104","3.19236","26.544","5.591","7.63","0.476","5.715","0.04","0.35","29.5616","4.69321","58.54","0","SATNPRO1509","31.424","0.44012","5"],
    [52296,"HCEP03730542","2025-03-26 00:15:00","9.0104","3.19246","26.737","5.581","7.63","0.483","6.662","0.04","0.43","29.5626","4.69335","58.43","0","SATNPRO1509","31.314","0.4386","5"],
    [52297,"HCEP03730542","2025-03-26 00:30:00","9.01","3.1926","26.929","5.565","7.63","0.472","6.557","0.04","0.42","29.5642","4.69361","58.26","0","SATNPRO1509","31.416","0.44006","5"],
    [52298,"HCEP03730542","2025-03-26 00:45:00","9.0093","3.1927","27.127","5.553","7.63","0.451","6.935","0.03","0.97","29.5658","4.69386","58.14","0","SATNPRO1509","31.198","0.43694","5"],
    [52299,"HCEP03730542","2025-03-26 01:00:00","8.9989","3.19504","27.36","5.556","7.63","0.412","9.237","0.03","0.66","29.5983","4.69873","58.17","0","SATNPRO1509","31.104","0.43564","5"],
    [52300,"HCEP03730542","2025-03-26 01:15:00","8.9867","3.19732","27.534","5.557","7.63","0.409","8.523","0.04","1.19","29.6318","4.70378","58.18","0","SATNPRO1509","31.322","0.43876","5"],
    [52301,"HCEP03730542","2025-03-26 01:30:00","8.9853","3.19742","27.721","5.611","7.63","0.405","7.584","0.04","0.47","29.6339","4.70412","58.74","0","SATNPRO1509","31.432","0.44026","5"],
    [52302,"HCEP03730542","2025-03-26 01:45:00","8.9846","3.19717","27.826","5.645","7.64","0.394","6.697","0.01","1.1","29.6318","4.70384","59.09","0","SATNPRO1509","31.454","0.44056","5"],
    [52303,"HCEP03730542","2025-03-26 02:00:00","8.9818","3.1975","27.822","5.683","7.64","0.415","6.865","0.02","1.01","29.6376","4.70473","59.49","0","SATNPRO1509","31.456","0.4406","5"],
    [52304,"HCEP03730542","2025-03-26 02:15:00","8.9801","3.19777","27.721","5.705","7.64","0.426","6.615","0.04","0.4","29.6418","4.70536","59.72","0","SATNPRO1509","31.514","0.44144","5"],
    [52305,"HCEP03730542","2025-03-26 02:30:00","8.9787","3.19804","27.709","5.728","7.64","0.406","7.079","0.02","0.5","29.6457","4.70594","59.96","0","SATNPRO1509","31.708","0.44414","5"],
    [52306,"HCEP03730542","2025-03-26 02:45:00","8.9778","3.19811","27.693","5.737","7.64","0.41","6.597","0.03","0.61","29.6473","4.70618","60.05","0","SATNPRO1509","31.598","0.44258","5"],
    [52307,"HCEP03730542","2025-03-26 03:00:00","8.9768","3.19824","27.68","5.743","7.64","0.433","6.687","0.04","1.37","29.6494","4.7065","60.11","0","SATNPRO1509","31.518","0.44146","5"],
    [52308,"HCEP03730542","2025-03-26 03:15:00","8.9759","3.19827","27.662","5.75","7.64","0.393","6.327","0.02","0.61","29.6504","4.70667","60.19","0","SATNPRO1509","31.584","0.44238","5"],
    [52309,"HCEP03730542","2025-03-26 03:30:00","8.9767","3.19833","27.67","5.754","7.64","0.484","6.965","0.15","1.31","29.6504","4.70665","60.23","0","SATNPRO1509","31.622","0.4429","5"],
    [52310,"HCEP03730542","2025-03-26 03:45:00","8.9768","3.19841","27.661","5.738","7.64","0.444","6.745","0.09","1.14","29.6511","4.70675","60.07","0","SATNPRO1509","31.676","0.4437","5"],
    [52311,"HCEP03730542","2025-03-26 04:00:00","8.9753","3.19851","27.648","5.724","7.64","0.447","6.172","0.04","0.35","29.6534","4.70711","59.92","0","SATNPRO1509","31.534","0.4417","5"],
    [52312,"HCEP03730542","2025-03-26 04:15:00","8.9748","3.19851","27.613","5.729","7.64","0.444","5.905","0.05","0.64","29.6538","4.70717","59.97","0","SATNPRO1509","31.512","0.44138","5"],
    [52313,"HCEP03730542","2025-03-26 04:30:00","8.9748","3.19845","27.555","5.733","7.64","0.418","5.976","0.03","0.49","29.6533","4.70709","60.01","0","SATNPRO1509","31.554","0.44196","5"],
    [52314,"HCEP03730542","2025-03-26 04:45:00","8.9749","3.19849","27.504","5.733","7.64","0.418","6.631","0.02","0.31","29.6537","4.70714","60.01","0","SATNPRO1509","31.56","0.44206","5"],
    [52315,"HCEP03730542","2025-03-26 05:00:00","8.9748","3.19847","27.447","5.716","7.64","0.449","6.566","0.07","0.85","29.6535","4.70712","59.83","0","SATNPRO1509","31.374","0.43946","5"],
    [52316,"HCEP03730542","2025-03-26 05:15:00","8.9748","3.19842","27.361","5.707","7.64","0.47","5.897","0.05","0.48","29.653","4.70705","59.74","0","SATNPRO1509","31.352","0.43912","5"],
    [52317,"HCEP03730542","2025-03-26 05:30:00","8.9745","3.19842","27.279","5.715","7.64","0.427","5.391","0.03","0.22","29.6534","4.70709","59.83","0","SATNPRO1509","31.578","0.44228","5"],
    [52318,"HCEP03730542","2025-03-26 05:45:00","8.9743","3.19838","27.178","5.725","7.64","0.414","5.317","0.03","0.51","29.6532","4.70706","59.92","0","SATNPRO1509","31.79","0.44524","5"],
    [52319,"HCEP03730542","2025-03-26 06:00:00","8.973","3.1986","27.094","5.74","7.64","0.429","5.575","0.05","0.34","29.6565","4.70756","60.08","0","SATNPRO1509","31.734","0.44448","5"],
    [52320,"HCEP03730542","2025-03-26 06:15:00","8.9725","3.19874","26.995","5.746","7.64","0.395","5.949","0.02","0.43","29.6584","4.70783","60.15","0","SATNPRO1509","31.706","0.4441","5"],
    [52321,"HCEP03730542","2025-03-26 06:30:00","8.9731","3.19834","26.903","5.75","7.65","0.418","5.293","0.04","0.34","29.6539","4.70717","60.18","0","SATNPRO1509","31.706","0.44408","5"],
    [52322,"HCEP03730542","2025-03-26 06:45:00","8.9763","3.19791","26.785","5.773","7.65","0.407","4.468","0.03","0.34","29.6468","4.70609","60.43","0","SATNPRO1509","31.83","0.44584","5"],
    [52323,"HCEP03730542","2025-03-26 07:00:00","8.9786","3.1974","26.668","5.774","7.65","0.443","3.935","0.05","0.22","29.6397","4.70502","60.44","0","SATNPRO1509","31.892","0.44668","5"],
    [52324,"HCEP03730542","2025-03-26 07:15:00","8.9826","3.19679","26.568","5.774","7.65","0.43","3.418","0.03","0.26","29.6301","4.70356","60.44","0","SATNPRO1509","31.902","0.44686","5"],
    [52325,"HCEP03730542","2025-03-26 07:30:00","8.9774","3.19761","26.472","5.77","7.65","0.438","5.02","0.03","0.51","29.6429","4.70548","60.39","0","SATNPRO1509","31.716","0.44428","5"],
    [52326,"HCEP03730542","2025-03-26 07:45:00","8.9772","3.1978","26.359","5.764","7.65","0.438","5.232","0.04","0.3","29.6451","4.70579","60.33","0","SATNPRO1509","31.586000000000002","0.44244","5"],
    [52327,"HCEP03730542","2025-03-26 08:00:00","8.9744","3.19829","26.286","5.755","7.64","0.444","5.943","0.03","0.34","29.6525","4.70691","60.24","0","SATNPRO1509","31.558","0.442","5"],
    [52328,"HCEP03730542","2025-03-26 08:15:00","8.9735","3.19859","26.21","5.747","7.64","0.411","6.732","0.05","0.49","29.6564","4.70748","60.16","0","SATNPRO1509","31.464","0.4407","5"],
    [52329,"HCEP03730542","2025-03-26 08:30:00","8.9735","3.1987","26.141","5.726","7.64","0.426","6.581","0.04","0.39","29.6575","4.70764","59.94","0","SATNPRO1509","31.528","0.44162","5"],
    [52330,"HCEP03730542","2025-03-26 08:45:00","8.9735","3.19877","26.097","5.708","7.64","0.395","6.293","0.03","0.29","29.6582","4.70773","59.75","0","SATNPRO1509","31.522","0.44152","5"],
    [52331,"HCEP03730542","2025-03-26 09:00:00","8.9728","3.19878","26.088","5.705","7.64","0.409","6.263","0.03","0.49","29.6589","4.70786","59.71","0","SATNPRO1509","31.552","0.44192","5"],
    [52332,"HCEP03730542","2025-03-26 09:15:00","8.9712","3.19894","26.093","5.712","7.64","0.406","6.197","0.04","0.42","29.6619","4.70832","59.79","0","SATNPRO1509","31.46","0.44064","5"],
    [52333,"HCEP03730542","2025-03-26 09:30:00","8.9698","3.19911","26.112","5.724","7.64","0.415","6.427","0.02","0.3","29.6648","4.70876","59.91","0","SATNPRO1509","31.57","0.4422","5"],
    [52334,"HCEP03730542","2025-03-26 09:45:00","8.9677","3.19911","26.154","5.736","7.64","0.411","6.085","0.05","0.43","29.6665","4.70904","60.04","0","SATNPRO1509","31.77","0.44504","5"],
    [52335,"HCEP03730542","2025-03-26 10:00:00","8.9667","3.19915","26.003","5.755","7.65","0.395","6.31","0.03","0.4","29.6679","4.70924","60.23","0","SATNPRO1509","31.598","0.4426","5"],
    [52336,"HCEP03730542","2025-03-26 10:15:00","8.9641","3.19912","26.082","5.775","7.65","0.386","6.013","0.02","0.25","29.6697","4.70957","60.44","0","SATNPRO1509","31.694","0.44392","5"],
    [52337,"HCEP03730542","2025-03-26 10:30:00","8.9606","3.19893","26.324","5.814","7.65","0.371","6.154","0.02","0.4","29.6705","4.70976","60.85","0","SATNPRO1509","31.76","0.44484","5"],
    [52338,"HCEP03730542","2025-03-26 10:45:00","8.9595","3.19883","26.374","5.858","7.65","0.351","5.284","0.01","0.29","29.6704","4.70977","61.31","0","SATNPRO1509","31.926","0.4472","5"],
    [52339,"HCEP03730542","2025-03-26 11:00:00","8.9569","3.19856","26.382","5.892","7.66","0.365","5.068","0.02","0.36","29.6698","4.70972","61.66","0","SATNPRO1509","31.84","0.44594","5"],
    [52340,"HCEP03730542","2025-03-26 11:15:00","8.959","3.1986","26.483","5.924","7.66","0.362","5.234","0.02","0.26","29.6684","4.7095","62","0","SATNPRO1509","31.8","0.4454","5"],
    [52341,"HCEP03730542","2025-03-26 11:30:00","8.9617","3.19876","26.507","5.907","7.65","0.389","5.771","0.02","0.28","29.6678","4.70937","61.82","0","SATNPRO1509","31.624","0.443","5"],
    [52342,"HCEP03730542","2025-03-26 11:45:00","8.9638","3.19893","26.515","5.866","7.65","0.402","6.773","0.03","0.55","29.6678","4.70932","61.39","0","SATNPRO1509","31.650000000000002","0.44332","5"],
    [52343,"HCEP03730542","2025-03-26 12:00:00","8.9656","3.19909","26.68","5.817","7.65","0.406","7.399","0.03","0.35","29.6679","4.70931","60.88","0","SATNPRO1509","31.522","0.44154","5"],
    [52344,"HCEP03730542","2025-03-26 12:15:00","8.9647","3.19914","26.732","5.777","7.65","0.407","7.571","0.02","0.55","29.6691","4.70951","60.47","0","SATNPRO1509","31.630000000000003","0.44308","5"],
    [52345,"HCEP03730542","2025-03-26 12:30:00","8.9613","3.19926","26.8","5.784","7.65","0.41","6.392","0.04","0.35","29.6731","4.71015","60.53","0","SATNPRO1509","31.578","0.44234","5"],
    [52346,"HCEP03730542","2025-03-26 12:45:00","8.9613","3.19922","26.935","5.81","7.65","0.392","6.823","0.03","0.37","29.6727","4.7101","60.8","0","SATNPRO1509","31.706","0.44414","5"],
    [52347,"HCEP03730542","2025-03-26 13:00:00","8.9647","3.19911","26.972","5.808","7.65","0.433","6.825","0.04","0.34","29.6687","4.70947","60.78","0","SATNPRO1509","31.706","0.44408","5"],
    [52348,"HCEP03730542","2025-03-26 13:15:00","8.9643","3.19906","27.01","5.786","7.65","0.403","6.119","0.03","0.37","29.6686","4.70946","60.56","0","SATNPRO1509","31.646","0.44322","5"],
    [52349,"HCEP03730542","2025-03-26 13:30:00","8.9654","3.19897","27.082","5.778","7.65","0.402","7.618","0.02","0.55","29.6666","4.70916","60.47","0","SATNPRO1509","31.58","0.44232","5"],
    [52350,"HCEP03730542","2025-03-26 13:45:00","8.9663","3.199","27.09","5.757","7.65","0.388","6.628","0.02","0.34","29.6662","4.70907","60.26","0","SATNPRO1509","31.652","0.44336","5"],
    [52351,"HCEP03730542","2025-03-26 14:00:00","8.9684","3.19889","27.104","5.743","7.64","0.411","6.656","0.03","0.35","29.6633","4.70862","60.11","0","SATNPRO1509","31.696","0.44396","5"],
    [52352,"HCEP03730542","2025-03-26 14:15:00","8.9684","3.1988","27.106","5.723","7.64","0.386","6.062","0.02","0.22","29.6624","4.70849","59.91","0","SATNPRO1509","31.52","0.44146","5"],
    [52353,"HCEP03730542","2025-03-26 14:30:00","8.9682","3.19889","27.09","5.719","7.64","0.474","7.062","0.07","0.6","29.6635","4.70865","59.86","0","SATNPRO1509","31.474","0.44082","5"],
    [52354,"HCEP03730542","2025-03-26 14:45:00","8.9677","3.19916","27.054","5.712","7.64","0.403","8.503","0.02","0.24","29.6666","4.70911","59.79","0","SATNPRO1509","31.612","0.44276","5"],
    [52355,"HCEP03730542","2025-03-26 15:00:00","8.9676","3.19913","27.009","5.704","7.64","0.402","8.088","0.02","0.27","29.6664","4.70908","59.71","0","SATNPRO1509","31.684","0.44378","5"],
    [52356,"HCEP03730542","2025-03-26 15:15:00","8.9681","3.19906","26.946","5.704","7.64","0.405","8.032","0.02","0.36","29.6654","4.70892","59.7","0","SATNPRO1509","31.604","0.44268","5"],
    [52357,"HCEP03730542","2025-03-26 15:30:00","8.9687","3.19901","26.878","5.703","7.64","0.411","7.87","0.02","0.37","29.6644","4.70875","59.69","0","SATNPRO1509","31.476","0.4409","5"],
    [52358,"HCEP03730542","2025-03-26 15:45:00","8.9684","3.19896","26.8","5.694","7.64","0.413","7.759","0.02","0.37","29.6641","4.70872","59.6","0","SATNPRO1509","31.596","0.44252","5"],
    [52359,"HCEP03730542","2025-03-26 16:00:00","8.9677","3.19885","26.641","5.702","7.64","0.471","7.864","0.12","0.37","29.6637","4.70866","59.68","0","SATNPRO1509","31.628","0.443","5"],
    [52360,"HCEP03730542","2025-03-26 16:15:00","8.9658","3.19871","26.54","5.72","7.64","0.435","7.092","0.04","0.52","29.6639","4.70872","59.87","0","SATNPRO1509","31.59","0.44248","5"],
    [52361,"HCEP03730542","2025-03-26 16:30:00","8.9641","3.19859","26.394","5.763","7.65","0.419","6.425","0.03","0.33","29.6641","4.70878","60.31","0","SATNPRO1509","31.808","0.44554","5"],
    [52362,"HCEP03730542","2025-03-26 16:45:00","8.963","3.19852","26.252","5.808","7.65","0.44","7.499","0.04","0.44","29.6644","4.70883","60.78","0","SATNPRO1509","31.598","0.44258","5"],
    [52363,"HCEP03730542","2025-03-26 17:00:00","8.9603","3.19853","26.154","5.843","7.65","0.36","6.045","0.01","0.24","29.6667","4.70921","61.15","0","SATNPRO1509","31.946","0.44746","5"],
    [52364,"HCEP03730542","2025-03-26 17:15:00","8.9583","3.19874","26.139","5.883","7.65","0.404","5.963","0.08","0.34","29.6706","4.7098","61.57","0","SATNPRO1509","31.958","0.4476","5"],
    [52365,"HCEP03730542","2025-03-26 17:30:00","8.9579","3.19887","26.03","5.901","7.66","0.362","6.237","0.02","0.23","29.6723","4.71004","61.76","0","SATNPRO1509","31.948","0.4475","5"],
    [52366,"HCEP03730542","2025-03-26 17:45:00","8.9543","3.19896","25.911","5.911","7.66","0.364","6.084","0.03","0.69","29.6764","4.71069","61.85","0","SATNPRO1509","31.954","0.44758","5"],
    [52367,"HCEP03730542","2025-03-26 18:00:00","8.9528","3.199","25.743","5.948","7.66","0.365","6.599","0.05","1.51","29.678","4.71095","62.24","0","SATNPRO1509","32.024","0.44858","5"],
    [52368,"HCEP03730542","2025-03-26 18:15:00","8.9544","3.19896","25.604","5.969","7.66","0.336","5.842","0.01","0.7","29.6764","4.71067","62.46","0","SATNPRO1509","32.019999999999996","0.4485","5"],
    [52369,"HCEP03730542","2025-03-26 18:30:00","8.9553","3.19893","25.41","5.964","7.66","0.35","6.685","0.01","0.74","29.6754","4.7105","62.41","0","SATNPRO1509","32.074","0.44926","5"],
    [52370,"HCEP03730542","2025-03-26 18:45:00","8.9556","3.19874","25.259","5.953","7.66","0.353","6.808","0.02","0.38","29.6733","4.71019","62.3","0","SATNPRO1509","31.964000000000002","0.44772","5"],
    [52371,"HCEP03730542","2025-03-26 19:00:00","8.9553","3.1989","25.013","5.952","7.66","0.368","6.5","0.02","0.4","29.6752","4.71046","62.29","0","SATNPRO1509","32.002","0.44828","5"],
    [52372,"HCEP03730542","2025-03-26 19:15:00","8.9551","3.19891","24.839","5.944","7.66","0.887","69.017","0.3","20.22","29.6756","4.7105","62.2","0","SATNPRO1509","32","0.44824","5"],
    [52373,"HCEP03730542","2025-03-26 19:30:00","8.9552","3.19896","24.862","5.941","7.66","1.098","39.586","0.43","22.13","29.6759","4.71055","62.17","0","SATNPRO1509","31.816","0.44564","5"],
    [52374,"HCEP03730542","2025-03-26 19:45:00","8.9551","3.19893","24.651","5.941","7.66","0.371","6.26","0.03","0.37","29.6759","4.71054","62.16","0","SATNPRO1509","32.032","0.44866","5"],
    [52375,"HCEP03730542","2025-03-26 20:00:00","8.9554","3.19894","24.552","5.935","7.66","0.361","5.901","0.03","0.54","29.6757","4.7105","62.1","0","SATNPRO1509","31.846","0.44606","5"],
    [52376,"HCEP03730542","2025-03-26 20:15:00","8.9553","3.19894","24.441","5.929","7.66","0.364","5.821","0.03","0.37","29.6758","4.71051","62.04","0","SATNPRO1509","31.88","0.44652","5"],
    [52377,"HCEP03730542","2025-03-26 20:30:00","8.9561","3.19886","24.348","5.928","7.66","0.349","5.704","0.02","0.32","29.6744","4.71028","62.04","0","SATNPRO1509","31.816","0.44558","5"],
    [52378,"HCEP03730542","2025-03-26 20:45:00","8.9557","3.19892","24.407","5.918","7.66","0.354","5.974","0.02","0.25","29.6754","4.71044","61.93","0","SATNPRO1509","31.766","0.4449","5"],
    [52379,"HCEP03730542","2025-03-26 21:00:00","8.9557","3.19898","24.361","5.918","7.66","0.368","5.679","0.06","0.36","29.676","4.71052","61.93","0","SATNPRO1509","31.592","0.44252","5"],
    [52380,"HCEP03730542","2025-03-26 21:15:00","8.9556","3.199","24.436","5.91","7.66","0.36","5.767","0.03","0.5","29.6763","4.71057","61.85","0","SATNPRO1509","31.672","0.44362","5"],
    [52381,"HCEP03730542","2025-03-26 21:30:00","8.9557","3.19909","24.546","5.906","7.66","0.39","5.922","0.07","0.51","29.677","4.71068","61.8","0","SATNPRO1509","31.84","0.446","5"],
    [52382,"HCEP03730542","2025-03-26 21:45:00","8.9557","3.19909","24.685","5.902","7.66","0.355","5.994","0.02","0.58","29.677","4.71069","61.76","0","SATNPRO1509","31.944","0.4474","5"],
    [52383,"HCEP03730542","2025-03-26 22:00:00","8.9555","3.19915","24.815","5.899","7.66","0.358","6.22","0.02","0.4","29.6777","4.7108","61.73","0","SATNPRO1509","31.951999999999998","0.44754","5"],
    [52384,"HCEP03730542","2025-03-26 22:15:00","8.9557","3.19918","24.893","5.895","7.66","0.356","6.326","0.02","0.45","29.6778","4.71082","61.69","0","SATNPRO1509","31.926000000000002","0.44716","5"],
    [52385,"HCEP03730542","2025-03-26 22:30:00","8.9559","3.19916","25.05","5.891","7.66","0.794","43.671","0.5","36.84","29.6774","4.71076","61.64","0","SATNPRO1509","31.814","0.44562","5"],
    [52386,"HCEP03730542","2025-03-26 22:45:00","8.9564","3.1992","25.199","5.885","7.66","0.353","5.497","0.02","0.23","29.6773","4.71074","61.59","0","SATNPRO1509","31.868","0.44638","5"],
    [52387,"HCEP03730542","2025-03-26 23:00:00","8.9579","3.19909","25.353","5.879","7.65","0.374","5.361","0.03","0.57","29.6748","4.71037","61.53","0","SATNPRO1509","31.816","0.44564","5"],
    [52388,"HCEP03730542","2025-03-26 23:15:00","8.9604","3.19904","25.536","5.862","7.65","0.369","6.662","0.03","1.52","29.6721","4.70995","61.35","0","SATNPRO1509","31.836","0.44592","5"],
    [52389,"HCEP03730542","2025-03-26 23:30:00","8.9616","3.19908","25.706","5.826","7.65","0.373","5.803","0.03","0.43","29.6716","4.70986","60.97","0","SATNPRO1509","31.734","0.44448","5"],
    [52390,"HCEP03730542","2025-03-26 23:45:00","8.9617","3.19919","25.896","5.797","7.65","0.347","5.851","0.01","0.16","29.6725","4.70999","60.67","0","SATNPRO1509","31.764","0.4449","5"],
    [52391,"HCEP03730542","2025-03-27 00:00:00","8.9624","3.19914","26.048","5.777","7.65","0.361","5.664","0.02","0.38","29.6714","4.70984","60.46","0","SATNPRO1509","31.744","0.44462","5"],
    [52392,"HCEP03730542","2025-03-27 00:15:00","8.9654","3.19874","26.26","5.767","7.65","0.363","5.238","0.02","0.31","29.6646","4.70882","60.35","0","SATNPRO1509","31.802","0.44546","5"],
    [52393,"HCEP03730542","2025-03-27 00:30:00","8.9669","3.19863","26.439","5.755","7.65","0.369","5.119","0.02","0.28","29.6621","4.70845","60.23","0","SATNPRO1509","31.738","0.44456","5"],
    [52394,"HCEP03730542","2025-03-27 00:45:00","8.9667","3.19896","26.649","5.736","7.64","0.37","6.715","0.02","0.46","29.6657","4.70897","60.04","0","SATNPRO1509","31.634","0.44308","5"],
    [52395,"HCEP03730542","2025-03-27 01:00:00","8.9674","3.19889","26.88","5.704","7.64","0.376","6.028","0.03","0.3","29.6643","4.70877","59.7","0","SATNPRO1509","31.592","0.44248","5"],
    [52396,"HCEP03730542","2025-03-27 01:15:00","8.9687","3.19872","27.083","5.693","7.64","0.371","6.271","0.03","0.24","29.6613","4.70833","59.59","0","SATNPRO1509","31.618","0.44286","5"],
    [52397,"HCEP03730542","2025-03-27 01:30:00","8.9689","3.19883","27.272","5.685","7.64","0.371","5.866","0.02","0.21","29.6623","4.70848","59.5","0","SATNPRO1509","31.72","0.44428","5"],
    [52398,"HCEP03730542","2025-03-27 01:45:00","8.9673","3.19901","27.43","5.681","7.64","0.363","5.949","0.02","0.38","29.6653","4.70895","59.46","0","SATNPRO1509","31.638","0.44316","5"],
    [52399,"HCEP03730542","2025-03-27 02:00:00","8.9655","3.19925","27.533","5.686","7.64","9.746","35.333","13.65","33.07","29.6693","4.70956","59.51","0","SATNPRO1509","31.558","0.44204","5"],
    [52400,"HCEP03730542","2025-03-27 02:15:00","8.9632","3.19941","27.603","5.7","7.64","0.381","7.136","0.05","1.22","29.6728","4.71012","59.65","0","SATNPRO1509","31.664","0.44354","5"],
    [52401,"HCEP03730542","2025-03-27 02:30:00","8.9619","3.19942","27.865","5.722","7.64","0.355","6.602","0.02","0.95","29.6739","4.71031","59.89","0","SATNPRO1509","31.628","0.44296","5"],
    [52402,"HCEP03730542","2025-03-27 02:45:00","8.9641","3.19882","27.86","5.739","7.64","0.363","5.914","0.05","0.91","29.6658","4.70911","60.06","0","SATNPRO1509","31.892","0.44672","5"],
    [52403,"HCEP03730542","2025-03-27 03:00:00","8.9671","3.19817","27.857","5.772","7.65","0.449","4.27","0.17","1.22","29.6567","4.70775","60.41","0","SATNPRO1509","32.008","0.4483","5"],
    [52404,"HCEP03730542","2025-03-27 03:15:00","8.9641","3.19838","27.875","5.797","7.65","0.475","6.763","0.25","1.77","29.6614","4.70848","60.66","0","SATNPRO1509","31.972","0.4478","5"],
    [52405,"HCEP03730542","2025-03-27 03:30:00","8.9641","3.19845","27.944","5.806","7.65","0.819","12.356","0.46","18.92","29.6621","4.70858","60.76","0","SATNPRO1509","32","0.44822","5"],
    [52406,"HCEP03730542","2025-03-27 03:45:00","8.9639","3.19859","27.923","5.8","7.65","5.35","60.668","0.87","21.58","29.6637","4.70881","60.7","0","SATNPRO1509","31.98","0.44792","5"],
    [52407,"HCEP03730542","2025-03-27 04:00:00","8.964","3.19872","27.858","5.791","7.65","0.416","5.508","0.05","0.82","29.6649","4.70899","60.61","0","SATNPRO1509","31.896","0.4468","5"],
    [52408,"HCEP03730542","2025-03-27 04:15:00","8.9651","3.19863","27.829","5.784","7.65","0.644","6.546","0.33","1.69","29.6632","4.70871","60.53","0","SATNPRO1509","31.918","0.44706","5"],
    [52409,"HCEP03730542","2025-03-27 04:30:00","8.9636","3.19906","27.802","5.769","7.65","1.243","39.788","1.53","25.72","29.6688","4.70954","60.38","0","SATNPRO1509","31.898","0.44684","5"],
    [52410,"HCEP03730542","2025-03-27 04:45:00","8.9625","3.19936","27.755","5.756","7.65","0.42","5.539","0.08","0.17","29.6728","4.71014","60.24","0","SATNPRO1509","31.788","0.44526","5"],
    [52411,"HCEP03730542","2025-03-27 05:00:00","8.9618","3.19953","27.667","5.742","7.64","0.736","5.338","0.44","0.21","29.6752","4.71049","60.1","0","SATNPRO1509","31.75","0.44472","5"],
    [52412,"HCEP03730542","2025-03-27 05:15:00","8.9651","3.19819","27.511","5.754","7.65","0.367","3.591","0.06","0.15","29.6587","4.70805","60.22","0","SATNPRO1509","31.956","0.4476","5"],
    [52413,"HCEP03730542","2025-03-27 05:30:00","8.9633","3.19913","27.469","5.782","7.64","0.372","5.765","0.03","0.32","29.6699","4.70968","60.52","0","SATNPRO1509","31.72","0.4443","5"],
    [52414,"HCEP03730542","2025-03-27 05:45:00","8.9655","3.19856","27.385","5.733","7.64","0.384","5.642","0.03","0.5","29.6622","4.70854","60","0","SATNPRO1509","31.784","0.44518","5"],
    [52415,"HCEP03730542","2025-03-27 06:00:00","8.9651","3.19871","27.29","5.728","7.64","0.404","6.124","0.04","0.37","29.6641","4.70882","59.95","0","SATNPRO1509","31.882","0.44658","5"],
    [52416,"HCEP03730542","2025-03-27 06:15:00","8.9646","3.19872","27.16","5.724","7.64","0.392","5.714","0.04","0.53","29.6647","4.70891","59.9","0","SATNPRO1509","31.78","0.44512","5"],
    [52417,"HCEP03730542","2025-03-27 06:30:00","8.9638","3.19903","27.041","5.721","7.64","0.41","6.212","0.05","0.51","29.6686","4.70946","59.88","0","SATNPRO1509","31.738","0.44452","5"],
    [52418,"HCEP03730542","2025-03-27 06:45:00","8.9631","3.19908","26.95","5.724","7.64","0.35","5.409","0.02","0.27","29.6698","4.70964","59.9","0","SATNPRO1509","31.796","0.44534","5"],
    [52419,"HCEP03730542","2025-03-27 07:00:00","8.9636","3.19879","26.746","5.734","7.64","0.361","4.991","0.02","0.37","29.6664","4.70914","60.01","0","SATNPRO1509","31.898","0.44674","5"],
    [52420,"HCEP03730542","2025-03-27 07:15:00","8.9643","3.19879","26.652","5.741","7.64","0.392","5.601","0.03","0.45","29.6659","4.70905","60.09","0","SATNPRO1509","31.798","0.44538","5"],
    [52421,"HCEP03730542","2025-03-27 07:30:00","8.965","3.19843","26.48","5.738","7.64","0.376","4.281","0.03","0.42","29.6617","4.70842","60.06","0","SATNPRO1509","31.878","0.44654","5"],
    [52422,"HCEP03730542","2025-03-27 07:45:00","8.966","3.19838","26.386","5.744","7.64","0.399","4.441","0.05","0.21","29.6604","4.70821","60.12","0","SATNPRO1509","31.822","0.44572","5"],
    [52423,"HCEP03730542","2025-03-27 08:00:00","8.9671","3.19849","26.207","5.729","7.64","0.373","5.219","0.02","0.21","29.6607","4.70822","59.96","0","SATNPRO1509","31.666","0.44352","5"],
    [52424,"HCEP03730542","2025-03-27 08:15:00","8.9677","3.19833","26.089","5.704","7.64","0.381","5.162","0.03","0.3","29.6586","4.70791","59.7","0","SATNPRO1509","31.64","0.4432","5"],
    [52425,"HCEP03730542","2025-03-27 08:30:00","8.968","3.19813","25.898","5.7","7.64","0.423","4.707","0.05","0.38","29.6563","4.70756","59.66","0","SATNPRO1509","32.008","0.4483","5"],
    [52426,"HCEP03730542","2025-03-27 08:45:00","8.9684","3.19793","25.781","5.709","7.64","0.375","4.291","0.02","0.34","29.6541","4.70722","59.75","0","SATNPRO1509","31.752","0.44476","5"],
    [52427,"HCEP03730542","2025-03-27 09:00:00","8.9691","3.19777","25.718","5.72","7.64","0.359","3.807","0.03","0.17","29.6518","4.70688","59.87","0","SATNPRO1509","31.98","0.44794","5"],
    [52428,"HCEP03730542","2025-03-27 09:15:00","8.9698","3.19765","25.664","5.721","7.64","0.373","4.574","0.03","0.33","29.65","4.70661","59.88","0","SATNPRO1509","31.906","0.44692","5"],
    [52429,"HCEP03730542","2025-03-27 09:30:00","8.9698","3.19769","25.688","5.716","7.64","0.366","3.679","0.02","0.18","29.6504","4.70667","59.83","0","SATNPRO1509","31.824","0.4458","5"],
    [52430,"HCEP03730542","2025-03-27 09:45:00","8.9719","3.19728","25.705","5.71","7.64","0.362","3.72","0.02","0.18","29.6445","4.70578","59.76","0","SATNPRO1509","31.84","0.44598","5"],
    [52431,"HCEP03730542","2025-03-27 10:00:00","8.9715","3.19743","25.741","5.698","7.64","0.373","4.092","0.02","0.21","29.6463","4.70605","59.63","0","SATNPRO1509","31.854","0.44618","5"],
    [52432,"HCEP03730542","2025-03-27 10:15:00","8.9726","3.19707","25.839","5.689","7.64","0.392","4.034","0.06","0.22","29.6417","4.70537","59.54","0","SATNPRO1509","31.85","0.44606","5"],
    [52433,"HCEP03730542","2025-03-27 10:30:00","8.9723","3.19738","25.897","5.677","7.64","0.386","4.879","0.03","0.26","29.6451","4.70587","59.42","0","SATNPRO1509","31.736","0.44452","5"],
    [52434,"HCEP03730542","2025-03-27 10:45:00","8.9724","3.19866","25.973","5.641","7.63","0.387","9.186","0.02","0.27","29.6581","4.70774","59.05","0","SATNPRO1509","31.168","0.43658","5"],
    [52435,"HCEP03730542","2025-03-27 11:00:00","8.9724","3.19833","26.04","5.555","7.63","0.652","23.157","0.26","15.37","29.6547","4.70725","58.15","0","SATNPRO1509","31.401999999999997","0.43982","5"],
    [52436,"HCEP03730542","2025-03-27 11:15:00","8.9713","3.19849","26.187","5.559","7.63","0.421","7.833","0.02","0.42","29.6573","4.70765","58.19","0","SATNPRO1509","31.446","0.44048","5"],
    [52437,"HCEP03730542","2025-03-27 11:30:00","8.97","3.19856","26.204","5.576","7.63","0.373","6.829","0.02","0.23","29.659","4.70792","58.37","0","SATNPRO1509","31.418","0.44002","5"],
    [52438,"HCEP03730542","2025-03-27 11:45:00","8.9678","3.19903","26.303","5.602","7.63","0.373","6.853","0.03","2.32","29.6656","4.70891","58.64","0","SATNPRO1509","31.52","0.44148","5"],
    [52439,"HCEP03730542","2025-03-27 12:00:00","8.9678","3.19859","26.397","5.623","7.64","0.367","4.869","0.01","0.8","29.661","4.70826","58.85","0","SATNPRO1509","31.796","0.44532","5"],
    [52440,"HCEP03730542","2025-03-27 12:15:00","8.9692","3.19839","26.53","5.661","7.64","0.363","4.789","0.03","0.81","29.6577","4.70778","59.25","0","SATNPRO1509","31.683999999999997","0.44382","5"],
    [52441,"HCEP03730542","2025-03-27 12:30:00","8.9683","3.19859","26.643","5.654","7.64","0.369","5.224","0.02","0.26","29.6605","4.7082","59.18","0","SATNPRO1509","31.512","0.44138","5"],
    [52442,"HCEP03730542","2025-03-27 12:45:00","8.9695","3.19866","26.737","5.654","7.63","0.372","5.39","0.04","0.24","29.6602","4.70814","59.18","0","SATNPRO1509","31.456","0.4406","5"],
    [52443,"HCEP03730542","2025-03-27 13:00:00","8.971","3.19851","26.84","5.621","7.63","0.36","5.903","0.03","0.15","29.6574","4.70771","58.84","0","SATNPRO1509","31.352","0.43912","5"],
    [52444,"HCEP03730542","2025-03-27 13:15:00","8.9698","3.19863","26.939","5.591","7.63","0.364","5.618","0.04","0.16","29.6596","4.70806","58.52","0","SATNPRO1509","31.506","0.44132","5"],
    [52445,"HCEP03730542","2025-03-27 13:30:00","8.974","3.19814","27.035","5.595","7.63","0.361","5.935","0.02","0.12","29.651","4.70674","58.56","0","SATNPRO1509","31.358","0.43926","5"],
    [52446,"HCEP03730542","2025-03-27 13:45:00","8.9687","3.19869","27.155","5.555","7.63","0.354","5.475","0.01","0.14","29.6609","4.70828","58.14","0","SATNPRO1509","31.73","0.44444","5"],
    [52447,"HCEP03730542","2025-03-27 14:00:00","8.9688","3.19946","27.238","5.614","7.63","0.362","5.904","0.02","0.2","29.6688","4.70942","58.76","0","SATNPRO1509","31.552","0.44194","5"],
    [52448,"HCEP03730542","2025-03-27 14:15:00","8.9706","3.19817","27.304","5.59","7.63","0.462","12.382","0.2","16.99","29.654","4.70727","58.51","0","SATNPRO1509","31.76","0.44486","5"],
    [52449,"HCEP03730542","2025-03-27 14:30:00","8.9732","3.19783","27.364","5.613","7.63","0.381","4.714","0.02","0.18","29.6483","4.70639","58.75","0","SATNPRO1509","31.78","0.44514","5"],
    [52450,"HCEP03730542","2025-03-27 14:45:00","8.9687","3.19947","27.398","5.589","7.63","0.393","7.048","0.03","0.36","29.6688","4.70943","58.5","0","SATNPRO1509","31.482","0.44096","5"],
    [52451,"HCEP03730542","2025-03-27 15:00:00","8.9696","3.19941","27.416","5.577","7.63","0.388","7.025","0.02","0.34","29.6675","4.70923","58.37","0","SATNPRO1509","31.868","0.44642","5"],
    [52452,"HCEP03730542","2025-03-27 15:15:00","8.9695","3.19909","27.385","5.575","7.63","0.371","6.389","0.02","0.53","29.6644","4.70877","58.35","0","SATNPRO1509","31.75","0.44472","5"],
    [52453,"HCEP03730542","2025-03-27 15:30:00","8.9723","3.1992","27.325","5.588","7.63","0.389","7.282","0.03","0.48","29.6632","4.70854","58.5","0","SATNPRO1509","31.532","0.44166","5"],
    [52454,"HCEP03730542","2025-03-27 15:45:00","8.9759","3.19885","27.296","5.534","7.62","0.389","7.765","0.02","0.38","29.6567","4.70754","57.93","0","SATNPRO1509","31.3","0.4384","5"],
    [52455,"HCEP03730542","2025-03-27 16:00:00","8.9765","3.19897","27.191","5.496","7.62","0.387","7.597","0.01","0.3","29.6574","4.70762","57.53","0","SATNPRO1509","31.198","0.437","5"],
    [52456,"HCEP03730542","2025-03-27 16:15:00","8.9776","3.19884","27.19","5.465","7.62","0.39","7.877","0.03","0.46","29.6551","4.70728","57.21","0","SATNPRO1509","31.332","0.43886","5"],
    [52457,"HCEP03730542","2025-03-27 16:30:00","8.9782","3.19844","27.09","5.454","7.62","0.408","7.454","0.03","0.47","29.6505","4.7066","57.09","0","SATNPRO1509","31.338","0.43894","5"],
    [52458,"HCEP03730542","2025-03-27 16:45:00","8.9783","3.1985","26.964","5.471","7.62","0.395","7.143","0.02","0.35","29.6511","4.70668","57.28","0","SATNPRO1509","31.406","0.4399","5"],
    [52459,"HCEP03730542","2025-03-27 17:00:00","8.9792","3.19824","26.8","5.48","7.62","0.415","6.962","0.02","0.39","29.6478","4.70618","57.37","0","SATNPRO1509","31.416","0.44","5"],
    [52460,"HCEP03730542","2025-03-27 17:15:00","8.9799","3.19823","26.67","5.48","7.62","0.393","7.087","0.03","0.31","29.6471","4.70606","57.37","0","SATNPRO1509","31.418","0.44004","5"],
    [52461,"HCEP03730542","2025-03-27 17:30:00","8.981","3.19813","26.604","5.472","7.62","0.403","6.95","0.02","0.28","29.6453","4.70577","57.28","0","SATNPRO1509","31.36","0.43924","5"],
    [52462,"HCEP03730542","2025-03-27 17:45:00","8.981","3.19818","26.483","5.462","7.62","0.414","6.865","0.03","0.54","29.6458","4.70584","57.18","0","SATNPRO1509","31.514","0.44142","5"],
    [52463,"HCEP03730542","2025-03-27 18:00:00","8.9818","3.19811","26.349","5.458","7.62","0.43","7.09","0.04","0.46","29.6444","4.70562","57.14","0","SATNPRO1509","31.194","0.43694","5"],
    [52464,"HCEP03730542","2025-03-27 18:15:00","8.9822","3.19793","26.252","5.452","7.62","0.401","6.847","0.03","0.8","29.6424","4.70531","57.08","0","SATNPRO1509","31.434","0.44032","5"],
    [52465,"HCEP03730542","2025-03-27 18:30:00","8.9825","3.19791","26.07","5.454","7.62","0.564","24.738","0.26","30.08","29.642","4.70524","57.1","0","SATNPRO1509","31.65","0.44332","5"],
    [52466,"HCEP03730542","2025-03-27 18:45:00","8.9828","3.19792","25.844","5.453","7.62","0.388","6.879","0.01","0.26","29.6419","4.7052","57.09","0","SATNPRO1509","31.474","0.44082","5"],
    [52467,"HCEP03730542","2025-03-27 19:00:00","8.9835","3.19785","25.678","5.441","7.62","0.745","51.67","0.24","23.66","29.6407","4.70501","56.96","0","SATNPRO1509","31.47","0.4408","5"],
    [52468,"HCEP03730542","2025-03-27 19:15:00","8.9838","3.1977","25.481","5.439","7.62","0.405","7.056","0.03","0.78","29.639","4.70474","56.93","0","SATNPRO1509","31.66","0.44344","5"],
    [52469,"HCEP03730542","2025-03-27 19:30:00","8.9841","3.1976","25.285","5.443","7.62","0.458","7.325","0.05","1.27","29.6377","4.70455","56.98","0","SATNPRO1509","31.486","0.44102","5"],
    [52470,"HCEP03730542","2025-03-27 19:45:00","8.984","3.19754","25.12","5.442","7.62","0.458","5.887","0.05","0.37","29.6372","4.70447","56.97","0","SATNPRO1509","31.462","0.4407","5"],
    [52471,"HCEP03730542","2025-03-27 20:00:00","8.984","3.19768","24.939","5.44","7.62","0.408","5.544","0.03","0.31","29.6388","4.70468","56.95","0","SATNPRO1509","31.556","0.44198","5"],
    [52472,"HCEP03730542","2025-03-27 20:15:00","8.9838","3.19781","24.802","5.432","7.62","0.426","7.009","0.03","0.64","29.6404","4.70491","56.86","0","SATNPRO1509","31.376","0.43948","5"],
    [52473,"HCEP03730542","2025-03-27 20:30:00","8.984","3.19776","24.644","5.424","7.62","0.431","6.805","0.03","0.62","29.6397","4.7048","56.79","0","SATNPRO1509","31.56","0.44206","5"],
    [52474,"HCEP03730542","2025-03-27 20:45:00","8.984","3.19761","24.599","5.422","7.62","0.406","5.911","0.03","0.29","29.6381","4.70457","56.76","0","SATNPRO1509","31.682","0.44378","5"],
    [52475,"HCEP03730542","2025-03-27 21:00:00","8.9848","3.19767","24.552","5.432","7.62","0.437","7.949","0.02","0.99","29.6381","4.70455","56.87","0","SATNPRO1509","31.334","0.43888","5"],
    [52476,"HCEP03730542","2025-03-27 21:15:00","8.9849","3.19749","24.519","5.424","7.62","0.429","8.496","0.03","0.54","29.6363","4.70429","56.78","0","SATNPRO1509","31.512","0.44136","5"],
    [52477,"HCEP03730542","2025-03-27 21:30:00","8.9851","3.1975","24.534","5.419","7.62","0.461","8.659","0.05","1.2","29.6362","4.70426","56.73","0","SATNPRO1509","31.504","0.44122","5"],
    [52478,"HCEP03730542","2025-03-27 21:45:00","8.9856","3.19733","24.573","5.416","7.62","0.446","7.605","0.03","0.45","29.634","4.70395","56.7","0","SATNPRO1509","31.466","0.44074","5"],
    [52479,"HCEP03730542","2025-03-27 22:00:00","8.9849","3.1979","24.692","5.417","7.61","0.45","9.072","0.03","0.57","29.6404","4.70488","56.71","0","SATNPRO1509","31.366","0.4393","5"],
    [52480,"HCEP03730542","2025-03-27 22:15:00","8.9848","3.1975","24.757","5.385","7.61","0.45","8.557","0.03","0.62","29.6363","4.7043","56.37","0","SATNPRO1509","31.54","0.44178","5"],
    [52481,"HCEP03730542","2025-03-27 22:30:00","8.9844","3.19785","24.927","5.405","7.61","0.427","8.25","0.03","0.6","29.6402","4.70488","56.59","0","SATNPRO1509","31.41","0.43996","5"],
    [52482,"HCEP03730542","2025-03-27 22:45:00","8.9843","3.19806","25.026","5.397","7.61","0.421","8.243","0.03","0.82","29.6424","4.7052","56.51","0","SATNPRO1509","31.424","0.44012","5"],
    [52483,"HCEP03730542","2025-03-27 23:00:00","8.9835","3.19796","25.161","5.374","7.61","0.438","8.596","0.03","1","29.6419","4.70516","56.26","0","SATNPRO1509","31.352","0.43914","5"],
    [52484,"HCEP03730542","2025-03-27 23:15:00","8.9835","3.19815","25.253","5.383","7.61","0.442","7.798","0.03","0.68","29.6439","4.70545","56.35","0","SATNPRO1509","31.326","0.43878","5"],
    [52485,"HCEP03730542","2025-03-27 23:30:00","8.9836","3.19817","25.457","5.37","7.61","0.438","8.503","0.03","0.68","29.644","4.70547","56.22","0","SATNPRO1509","31.358","0.4392","5"],
    [52486,"HCEP03730542","2025-03-27 23:45:00","8.9839","3.19806","25.6","5.365","7.61","0.391","7.229","0.02","0.36","29.6425","4.70525","56.17","0","SATNPRO1509","31.23","0.4374","5"],
    [52487,"HCEP03730542","2025-03-28 00:00:00","8.9836","3.19791","25.798","5.376","7.61","0.405","6.313","0.03","0.28","29.6411","4.70507","56.29","0","SATNPRO1509","31.326","0.43876","5"],
    [52488,"HCEP03730542","2025-03-28 00:15:00","8.9886","3.19494","25.947","5.405","7.61","0.354","4.071","0.02","0.42","29.6065","4.70002","56.57","0","SATNPRO1509","31.34","0.43898","5"],
    [52489,"HCEP03730542","2025-03-28 00:30:00","8.9912","3.19123","26.132","5.379","7.61","0.379","4.22","0.02","0.37","29.5662","4.69421","56.29","0","SATNPRO1509","30.884","0.43258","5"],
    [52490,"HCEP03730542","2025-03-28 00:45:00","8.995","3.18339","26.321","5.35","7.61","0.842","9.234","1.36","13.85","29.4826","4.68215","55.96","0","SATNPRO1509","30.864","0.4323","5"],
    [52491,"HCEP03730542","2025-03-28 01:00:00","8.996","3.18111","26.531","5.363","7.61","0.388","4.684","0.04","0.28","29.4583","4.67865","56.09","0","SATNPRO1509","30.904","0.4328","5"],
    [52492,"HCEP03730542","2025-03-28 01:15:00","8.9917","3.19344","26.754","5.358","7.61","0.389","6.611","0.03","0.33","29.5881","4.69738","56.09","0","SATNPRO1509","31.046","0.43486","5"],
    [52493,"HCEP03730542","2025-03-28 01:30:00","8.9912","3.19454","26.962","5.321","7.61","0.379","5.61","0.02","0.26","29.5998","4.69907","55.7","0","SATNPRO1509","31.304","0.4385","5"],
    [52494,"HCEP03730542","2025-03-28 01:45:00","8.9877","3.19707","27.129","5.337","7.61","0.369","5.799","0.01","0.16","29.6286","4.70328","55.87","0","SATNPRO1509","31.316","0.4386","5"],
    [52495,"HCEP03730542","2025-03-28 02:00:00","8.987","3.19738","27.337","5.339","7.61","0.371","5.733","0.02","0.4","29.6322","4.70383","55.89","0","SATNPRO1509","31.46","0.44066","5"],
    [52496,"HCEP03730542","2025-03-28 02:15:00","8.9865","3.19751","27.545","5.357","7.61","0.391","6.105","0.04","0.34","29.6339","4.70409","56.09","0","SATNPRO1509","31.368","0.43936","5"],
    [52497,"HCEP03730542","2025-03-28 02:30:00","8.9867","3.19771","27.691","5.358","7.61","0.401","7.987","0.03","1.39","29.6357","4.70435","56.09","0","SATNPRO1509","31.218","0.43722","5"],
    [52498,"HCEP03730542","2025-03-28 02:45:00","8.9871","3.19792","27.894","5.342","7.61","0.401","8.655","0.02","1.02","29.6375","4.70461","55.93","0","SATNPRO1509","31.274","0.43804","5"],
    [52499,"HCEP03730542","2025-03-28 03:00:00","8.9868","3.19797","27.927","5.316","7.61","0.411","8.722","0.02","0.48","29.6382","4.70472","55.66","0","SATNPRO1509","31.12","0.43588","5"],
    [52500,"HCEP03730542","2025-03-28 03:15:00","8.9869","3.19795","28.001","5.293","7.61","0.411","8.646","0.03","0.6","29.6379","4.70468","55.41","0","SATNPRO1509","31.222","0.4373","5"],
    [52501,"HCEP03730542","2025-03-28 03:30:00","8.9867","3.19795","28.073","5.292","7.61","0.402","8.545","0.03","0.91","29.638","4.7047","55.4","0","SATNPRO1509","31.23","0.43742","5"],
    [52502,"HCEP03730542","2025-03-28 03:45:00","8.9872","3.19792","28.128","5.294","7.61","0.397","8.496","0.02","0.58","29.6373","4.70459","55.43","0","SATNPRO1509","31.314","0.43856","5"],
    [52503,"HCEP03730542","2025-03-28 04:00:00","8.9866","3.19783","28.094","5.296","7.61","0.409","8.294","0.04","0.74","29.6369","4.70455","55.45","0","SATNPRO1509","31.218","0.43728","5"],
    [52504,"HCEP03730542","2025-03-28 04:15:00","8.9863","3.19783","28.132","5.314","7.61","1.233","244.31","0.41","90.92","29.6371","4.70459","55.63","0","SATNPRO1509","31.21","0.43716","5"],
    [52505,"HCEP03730542","2025-03-28 04:30:00","8.9866","3.19778","27.994","5.303","7.61","0.401","8.317","0.03","1.89","29.6364","4.70447","55.52","0","SATNPRO1509","31.31","0.43854","5"],
    [52506,"HCEP03730542","2025-03-28 04:45:00","8.9865","3.19774","27.996","5.291","7.61","0.383","8.088","0.04","3.55","29.636","4.70442","55.39","0","SATNPRO1509","31.186","0.43684","5"],
    [52507,"HCEP03730542","2025-03-28 05:00:00","8.9864","3.19778","27.93","5.297","7.61","0.396","7.687","0.02","0.25","29.6366","4.7045","55.45","0","SATNPRO1509","31.382","0.43958","5"],
    [52508,"HCEP03730542","2025-03-28 05:15:00","8.9866","3.19774","27.934","5.286","7.6","0.382","7.071","0.03","0.24","29.636","4.70441","55.34","0","SATNPRO1509","31.208000000000002","0.43712","5"],
    [52509,"HCEP03730542","2025-03-28 05:30:00","8.9869","3.19759","27.751","5.278","7.6","0.395","7.466","0.02","0.45","29.6343","4.70415","55.25","0","SATNPRO1509","31.157999999999998","0.4364","5"],
    [52510,"HCEP03730542","2025-03-28 05:45:00","8.9875","3.19723","27.672","5.26","7.6","0.413","7.752","0.06","1.04","29.6302","4.70354","55.06","0","SATNPRO1509","30.924","0.43314","5"],
    [52511,"HCEP03730542","2025-03-28 06:00:00","8.9898","3.19589","27.515","5.245","7.6","0.401","7.643","0.04","0.59","29.6146","4.70125","54.9","0","SATNPRO1509","31.102","0.43564","5"],
    [52512,"HCEP03730542","2025-03-28 06:15:00","8.9909","3.19447","27.388","5.233","7.6","0.436","8.609","0.04","1.38","29.5991","4.69901","54.78","0","SATNPRO1509","30.84","0.43196","5"],
    [52513,"HCEP03730542","2025-03-28 06:30:00","8.9905","3.19353","27.244","5.225","7.6","0.44","7.999","0.04","1.18","29.5898","4.69767","54.69","0","SATNPRO1509","30.86","0.4322","5"],
    [52514,"HCEP03730542","2025-03-28 06:45:00","8.9922","3.19265","27.136","5.27","7.6","0.388","6.46","0.04","0.25","29.5795","4.69615","55.16","0","SATNPRO1509","31.326","0.43878","5"],
    [52515,"HCEP03730542","2025-03-28 07:00:00","8.9908","3.19275","27.065","5.296","7.6","0.493","27.475","0.29","26.47","29.5818","4.6965","55.43","0","SATNPRO1509","31.002","0.43426","5"],
    [52516,"HCEP03730542","2025-03-28 07:15:00","8.9904","3.19307","26.828","5.288","7.6","0.371","7.418","0.03","0.82","29.5854","4.69701","55.35","0","SATNPRO1509","31.038","0.43474","5"],
    [52517,"HCEP03730542","2025-03-28 07:30:00","8.9898","3.19337","26.689","5.286","7.6","0.39","7.48","0.04","0.51","29.5891","4.69755","55.33","0","SATNPRO1509","31.04","0.4348","5"],
    [52518,"HCEP03730542","2025-03-28 07:45:00","8.9895","3.19379","26.428","5.282","7.6","0.362","7.592","0.02","0.62","29.5937","4.69819","55.28","0","SATNPRO1509","31.102","0.43564","5"],
    [52519,"HCEP03730542","2025-03-28 08:00:00","8.9899","3.19373","26.295","5.277","7.6","0.366","7.48","0.02","0.19","29.5928","4.69806","55.23","0","SATNPRO1509","30.984","0.43396","5"],
    [52520,"HCEP03730542","2025-03-28 08:15:00","8.9893","3.19353","26.251","5.283","7.61","0.358","6.822","0.02","0.15","29.5913","4.69785","55.3","0","SATNPRO1509","30.982","0.43394","5"],
    [52521,"HCEP03730542","2025-03-28 08:30:00","8.9891","3.19355","25.925","5.295","7.61","0.422","6.928","0.16","0.68","29.5918","4.6979","55.42","0","SATNPRO1509","31.022","0.4345","5"],
    [52522,"HCEP03730542","2025-03-28 08:45:00","8.9889","3.19389","25.727","5.293","7.61","15.03","441.161","6.57","210.19","29.5955","4.69843","55.4","0","SATNPRO1509","31.038","0.43468","5"],
    [52523,"HCEP03730542","2025-03-28 09:00:00","8.9886","3.19444","25.652","5.286","7.6","7.748","64.229","5.28","26.4","29.6014","4.69928","55.33","0","SATNPRO1509","30.966","0.43372","5"],
    [52524,"HCEP03730542","2025-03-28 09:15:00","8.9888","3.19492","25.491","5.285","7.61","0.463","8.566","0.24","4.32","29.6063","4.69997","55.32","0","SATNPRO1509","31.2","0.43702","5"],
    [52525,"HCEP03730542","2025-03-28 09:30:00","8.9877","3.19497","25.436","5.336","7.61","0.404","7.018","0.04","0.67","29.6077","4.70019","55.86","0","SATNPRO1509","31.286","0.43822","5"],
    [52526,"HCEP03730542","2025-03-28 09:45:00","8.9876","3.19506","25.41","5.344","7.61","1.102","20.285","0.56","13.26","29.6087","4.70033","55.94","0","SATNPRO1509","31.298","0.4384","5"],
    [52527,"HCEP03730542","2025-03-28 10:00:00","8.9863","3.19534","25.401","5.359","7.61","1.139","31.511","0.76","26.27","29.6127","4.70093","56.09","0","SATNPRO1509","31.246","0.43762","5"],
    [52528,"HCEP03730542","2025-03-28 10:15:00","8.9854","3.19537","25.405","5.372","7.61","0.777","143.461","0.25","34.44","29.6138","4.70109","56.23","0","SATNPRO1509","31.392","0.43974","5"],
    [52529,"HCEP03730542","2025-03-28 10:30:00","8.9858","3.19554","25.477","5.399","7.61","0.671","24.03","0.44","25.37","29.6151","4.70128","56.51","0","SATNPRO1509","31.184","0.43682","5"],
    [52530,"HCEP03730542","2025-03-28 10:45:00","8.9864","3.19548","25.587","5.391","7.61","0.436","13.34","0.06","10.97","29.614","4.70112","56.44","0","SATNPRO1509","31.35","0.43912","5"],
    [52531,"HCEP03730542","2025-03-28 11:00:00","8.9863","3.19564","25.7","5.377","7.61","0.409","8.851","0.04","2.06","29.6156","4.70136","56.28","0","SATNPRO1509","31.262","0.4379","5"],
    [52532,"HCEP03730542","2025-03-28 11:15:00","8.9861","3.19561","25.792","5.36","7.61","0.37","7.95","0.03","0.31","29.6155","4.70135","56.1","0","SATNPRO1509","31.254","0.43778","5"],
    [52533,"HCEP03730542","2025-03-28 11:30:00","8.9857","3.19545","25.8","5.359","7.61","0.365","7.291","0.03","0.27","29.6141","4.70116","56.1","0","SATNPRO1509","31.418","0.44006","5"],
    [52534,"HCEP03730542","2025-03-28 11:45:00","8.986","3.1955","25.951","5.384","7.61","0.859","16.018","0.64","12.46","29.6144","4.7012","56.36","0","SATNPRO1509","31.382","0.43954","5"],
    [52535,"HCEP03730542","2025-03-28 12:00:00","8.9862","3.19548","26.014","5.388","7.61","0.342","6.181","0.02","0.12","29.614","4.70115","56.39","0","SATNPRO1509","31.396","0.43972","5"],
    [52536,"HCEP03730542","2025-03-28 12:15:00","8.9867","3.19549","26.108","5.384","7.61","3.363","36.51","2.16","21.14","29.6136","4.70109","56.35","0","SATNPRO1509","31.35","0.4391","5"],
    [52537,"HCEP03730542","2025-03-28 12:30:00","8.9897","3.19541","26.195","5.372","7.61","3.769","45.762","5.16","30.12","29.6103","4.70056","56.24","0","SATNPRO1509","31.618","0.4429","5"],
    [52538,"HCEP03730542","2025-03-28 12:45:00","8.9901","3.19543","26.305","5.374","7.61","0.34","5.017","0.02","0.22","29.6101","4.70054","56.25","0","SATNPRO1509","31.582","0.44238","5"],
    [52539,"HCEP03730542","2025-03-28 13:00:00","8.9884","3.19559","26.457","5.38","7.61","0.353","5.581","0.01","0.26","29.6131","4.701","56.32","0","SATNPRO1509","31.536","0.4417","5"],
    [52540,"HCEP03730542","2025-03-28 13:15:00","8.9912","3.19513","26.528","5.372","7.61","0.342","5.266","0.01","0.2","29.606","4.69994","56.24","0","SATNPRO1509","31.52","0.44144","5"],
    [52541,"HCEP03730542","2025-03-28 13:30:00","8.9953","3.19455","26.717","5.359","7.61","0.357","4.987","0.02","0.31","29.5965","4.69851","56.1","0","SATNPRO1509","31.496","0.44114","5"],
    [52542,"HCEP03730542","2025-03-28 13:45:00","9.0007","3.19289","26.843","5.328","7.61","0.353","4.993","0.02","0.22","29.575","4.69533","55.77","0","SATNPRO1509","31.57","0.44214","5"],
    [52543,"HCEP03730542","2025-03-28 14:00:00","9.0055","3.19234","26.918","5.294","7.61","0.452","8.371","0.06","2.59","29.5653","4.69385","55.43","0","SATNPRO1509","31.471999999999998","0.44084","5"],
    [52544,"HCEP03730542","2025-03-28 14:15:00","9.0052","3.19219","27.06","5.264","7.6","0.429","6.642","0.04","1.03","29.564","4.69368","55.11","0","SATNPRO1509","31.428","0.4402","5"],
    [52545,"HCEP03730542","2025-03-28 14:30:00","9.0057","3.19193","27.182","5.251","7.6","0.422","6.957","0.03","0.98","29.5609","4.69323","54.97","0","SATNPRO1509","31.49","0.4411","5"],
    [52546,"HCEP03730542","2025-03-28 14:45:00","9.0031","3.19233","27.308","5.239","7.6","0.583","8.712","0.08","0.57","29.5671","4.69418","54.84","0","SATNPRO1509","31.284","0.43818","5"],
    [52547,"HCEP03730542","2025-03-28 15:00:00","9.0138","3.19093","27.373","5.215","7.6","0.98","11.199","0.39","2.8","29.5439","4.69065","54.6","0","SATNPRO1509","31.372","0.43946","5"],
    [52548,"HCEP03730542","2025-03-28 15:15:00","9.0151","3.18995","27.455","5.186","7.6","0.399","9.246","0.01","2.17","29.5326","4.68901","54.29","0","SATNPRO1509","31.434","0.44032","5"],
    [52549,"HCEP03730542","2025-03-28 15:30:00","9.0085","3.1888","27.479","5.23","7.6","0.441","13.752","0.04","2.69","29.5264","4.68825","54.74","0","SATNPRO1509","31.388","0.43964","5"],
    [52550,"HCEP03730542","2025-03-28 15:45:00","9.0032","3.18609","27.485","5.267","7.6","0.44","11.897","0.05","2.13","29.503","4.68499","55.11","0","SATNPRO1509","31.3","0.43838","5"],
    [52551,"HCEP03730542","2025-03-28 16:00:00","9.0061","3.18569","27.533","5.28","7.6","0.445","11.752","0.04","1.77","29.4964","4.68399","55.26","0","SATNPRO1509","31.23","0.43742","5"],
    [52552,"HCEP03730542","2025-03-28 16:15:00","9.0119","3.18526","27.582","5.259","7.6","0.425","10.325","0.02","2.12","29.4872","4.68257","55.03","0","SATNPRO1509","31.194","0.4369","5"],
    [52553,"HCEP03730542","2025-03-28 16:30:00","9.0156","3.18512","27.594","5.222","7.6","0.456","8.843","0.04","0.47","29.4828","4.68185","54.66","0","SATNPRO1509","31.172","0.43664","5"],
    [52554,"HCEP03730542","2025-03-28 16:45:00","9.0189","3.18543","27.618","5.186","7.59","0.48","9.077","0.04","0.64","29.4832","4.68186","54.28","0","SATNPRO1509","31.195999999999998","0.43696","5"],
    [52555,"HCEP03730542","2025-03-28 17:00:00","9.0164","3.18487","27.551","5.156","7.59","0.445","8.504","0.04","0.38","29.4795","4.68137","53.96","0","SATNPRO1509","31.242","0.43758","5"],
    [52556,"HCEP03730542","2025-03-28 17:15:00","9.0148","3.18611","27.358","5.175","7.59","0.488","11.012","0.08","0.93","29.4936","4.68341","54.16","0","SATNPRO1509","31.168","0.43654","5"],
    [52557,"HCEP03730542","2025-03-28 17:30:00","9.0165","3.18872","27.313","5.145","7.59","0.712","16.164","0.25","3.88","29.519","4.68702","53.86","0","SATNPRO1509","31.19","0.43684","5"],
    [52558,"HCEP03730542","2025-03-28 17:45:00","9.0165","3.19026","27.153","5.096","7.59","0.42","9.845","0.02","0.36","29.5348","4.68928","53.35","0","SATNPRO1509","31.18","0.43674","5"],
    [52559,"HCEP03730542","2025-03-28 18:00:00","9.0156","3.19093","27.014","5.071","7.59","0.44","9.679","0.04","0.52","29.5425","4.6904","53.09","0","SATNPRO1509","31.13","0.43606","5"],
    [52560,"HCEP03730542","2025-03-28 18:15:00","9.0156","3.19072","26.844","5.074","7.59","0.433","9.296","0.03","1.41","29.5404","4.69009","53.12","0","SATNPRO1509","31.114","0.43582","5"],
    [52561,"HCEP03730542","2025-03-28 18:30:00","9.0158","3.19076","26.729","5.063","7.59","0.44","9.34","0.03","0.38","29.5407","4.69011","53.01","0","SATNPRO1509","31.154","0.4364","5"],
    [52562,"HCEP03730542","2025-03-28 18:45:00","9.0162","3.19065","26.544","5.052","7.59","0.432","9.18","0.04","1.26","29.5393","4.6899","52.89","0","SATNPRO1509","31.17","0.4366","5"],
    [52563,"HCEP03730542","2025-03-28 19:00:00","9.0148","3.19098","26.438","5.054","7.59","0.52","11.088","0.07","1.17","29.5439","4.69057","52.91","0","SATNPRO1509","31.092","0.4355","5"],
    [52564,"HCEP03730542","2025-03-28 19:15:00","9.014","3.19096","26.268","5.064","7.59","0.456","10.575","0.03","1.18","29.5445","4.69066","53.02","0","SATNPRO1509","31.126","0.436","5"],
    [52565,"HCEP03730542","2025-03-28 19:30:00","9.014","3.19098","26.109","5.074","7.59","0.443","9.424","0.05","0.76","29.5447","4.69068","53.12","0","SATNPRO1509","31.176","0.4367","5"],
    [52566,"HCEP03730542","2025-03-28 19:45:00","9.0148","3.19074","25.946","5.077","7.59","0.402","9.104","0.03","0.25","29.5416","4.69022","53.16","0","SATNPRO1509","31.21","0.43712","5"],
    [52567,"HCEP03730542","2025-03-28 20:00:00","9.0098","3.19211","25.774","5.075","7.59","0.419","10.767","0.03","0.71","29.5599","4.69293","53.13","0","SATNPRO1509","31.174","0.43666","5"],
    [52568,"HCEP03730542","2025-03-28 20:15:00","9.0037","3.19297","25.589","5.107","7.59","0.394","9.299","0.02","1.39","29.5739","4.69504","53.46","0","SATNPRO1509","31.302","0.43844","5"],
    [52569,"HCEP03730542","2025-03-28 20:30:00","8.9999","3.19342","25.378","5.183","7.6","0.387","8.264","0.03","0.54","29.5817","4.69622","54.26","0","SATNPRO1509","31.338","0.43894","5"],
    [52570,"HCEP03730542","2025-03-28 20:45:00","8.9965","3.19385","25.176","5.235","7.6","0.39","9.062","0.03","1","29.589","4.69732","54.8","0","SATNPRO1509","31.406","0.43994","5"],
    [52571,"HCEP03730542","2025-03-28 21:00:00","8.99","3.19501","25.01","5.282","7.6","0.377","8.772","0.05","1.21","29.6064","4.69992","55.29","0","SATNPRO1509","31.546","0.44186","5"],
    [52572,"HCEP03730542","2025-03-28 21:15:00","8.9865","3.19578","24.904","5.33","7.61","0.388","8.265","0.06","1.33","29.6173","4.70155","55.79","0","SATNPRO1509","31.486","0.44102","5"],
    [52573,"HCEP03730542","2025-03-28 21:30:00","8.9848","3.19599","24.787","5.355","7.61","0.521","12.707","0.1","2.43","29.6208","4.70208","56.05","0","SATNPRO1509","31.482","0.44094","5"],
    [52574,"HCEP03730542","2025-03-28 21:45:00","8.9839","3.19596","24.723","5.369","7.61","0.362","7.246","0.02","0.71","29.6214","4.70217","56.2","0","SATNPRO1509","31.536","0.4417","5"],
    [52575,"HCEP03730542","2025-03-28 22:00:00","8.9834","3.19579","24.739","5.388","7.61","0.378","6.87","0.07","1.39","29.62","4.70199","56.4","0","SATNPRO1509","31.66","0.44344","5"],
    [52576,"HCEP03730542","2025-03-28 22:15:00","8.9825","3.19592","24.771","5.408","7.61","0.359","6.422","0.03","0.58","29.6221","4.70231","56.61","0","SATNPRO1509","31.634","0.44312","5"],
    [52577,"HCEP03730542","2025-03-28 22:30:00","8.9823","3.19588","24.85","5.416","7.61","0.347","6.616","0.02","0.78","29.6218","4.70228","56.69","0","SATNPRO1509","31.742","0.44462","5"],
    [52578,"HCEP03730542","2025-03-28 22:45:00","8.9825","3.19581","24.917","5.421","7.61","0.534","11.088","0.29","15.44","29.6208","4.70214","56.75","0","SATNPRO1509","31.548","0.44186","5"],
    [52579,"HCEP03730542","2025-03-28 23:00:00","8.9812","3.19483","25.105","5.429","7.62","0.362","6.119","0.03","0.32","29.6118","4.70087","56.82","0","SATNPRO1509","31.678","0.44372","5"],
    [52580,"HCEP03730542","2025-03-28 23:15:00","8.9811","3.19376","25.227","5.463","7.62","0.354","6.216","0.02","0.37","29.6008","4.69931","57.18","0","SATNPRO1509","32.294","0.45234","5"],
    [52581,"HCEP03730542","2025-03-28 23:30:00","8.9823","3.19287","25.328","5.494","7.62","0.369","6.252","0.04","0.6","29.5908","4.69785","57.49","0","SATNPRO1509","31.706","0.44412","5"],
    [52582,"HCEP03730542","2025-03-28 23:45:00","8.9966","3.19029","25.418","5.481","7.62","0.351","4.233","0.02","0.78","29.5523","4.69207","57.36","0","SATNPRO1509","31.698","0.444","5"],
    [52583,"HCEP03730542","2025-03-29 00:00:00","8.9813","3.19265","25.614","5.423","7.62","0.33","5.762","0.02","0.47","29.5892","4.69766","56.75","0","SATNPRO1509","31.605999999999998","0.44266","5"],
    [52584,"HCEP03730542","2025-03-29 00:15:00","8.9844","3.19","25.719","5.463","7.62","0.325","5.525","0.02","0.63","29.5593","4.69332","57.16","0","SATNPRO1509","31.674","0.44368","5"],
    [52585,"HCEP03730542","2025-03-29 00:30:00","8.9894","3.19017","25.859","5.45","7.62","0.356","5.961","0.03","1.18","29.557","4.69289","57.04","0","SATNPRO1509","31.42","0.44012","5"],
    [52586,"HCEP03730542","2025-03-29 00:45:00","8.9919","3.18921","25.976","5.415","7.61","0.388","7.385","0.05","0.86","29.545","4.69114","56.66","0","SATNPRO1509","31.514","0.44142","5"],
    [52587,"HCEP03730542","2025-03-29 01:00:00","8.9948","3.18839","26.194","5.383","7.61","0.389","8.524","0.05","2.31","29.5341","4.68953","56.33","0","SATNPRO1509","31.436","0.44034","5"],
    [52588,"HCEP03730542","2025-03-29 01:15:00","8.9954","3.18763","26.315","5.385","7.61","0.41","9.441","0.06","1.29","29.5258","4.68833","56.34","0","SATNPRO1509","31.396","0.43974","5"],
    [52589,"HCEP03730542","2025-03-29 01:30:00","8.9952","3.1881","26.561","5.401","7.61","0.397","8.139","0.04","0.56","29.5306","4.68904","56.51","0","SATNPRO1509","31.561999999999998","0.4421","5"],
    [52590,"HCEP03730542","2025-03-29 01:45:00","8.9969","3.1895","26.741","5.411","7.61","0.421","10.994","0.05","0.81","29.5435","4.69087","56.62","0","SATNPRO1509","31.654","0.44336","5"],
    [52591,"HCEP03730542","2025-03-29 02:00:00","9.0006","3.18761","26.949","5.375","7.61","0.383","8.878","0.02","0.29","29.521","4.68758","56.25","0","SATNPRO1509","31.45","0.4405","5"],
    [52592,"HCEP03730542","2025-03-29 02:15:00","9.0043","3.1848","27.219","5.354","7.61","0.391","9.538","0.03","2.47","29.489","4.68295","56.02","0","SATNPRO1509","31.436","0.44034","5"],
    [52593,"HCEP03730542","2025-03-29 02:30:00","9.0052","3.18389","27.39","5.331","7.61","0.447","11.604","0.05","2.78","29.4788","4.68147","55.78","0","SATNPRO1509","31.354","0.43918","5"],
    [52594,"HCEP03730542","2025-03-29 02:45:00","9.0077","3.18442","27.544","5.315","7.61","0.44","11.059","0.03","0.46","29.4822","4.68192","55.62","0","SATNPRO1509","31.324","0.43876","5"],
    [52595,"HCEP03730542","2025-03-29 03:00:00","9.0064","3.18439","27.774","5.293","7.6","0.448","11.756","0.05","0.48","29.4828","4.68204","55.39","0","SATNPRO1509","31.252","0.43776","5"],
    [52596,"HCEP03730542","2025-03-29 03:15:00","9.0073","3.18361","27.821","5.284","7.6","0.452","12.198","0.04","0.49","29.474","4.68077","55.28","0","SATNPRO1509","31.246","0.43766","5"],
    [52597,"HCEP03730542","2025-03-29 03:30:00","9.0087","3.18334","27.968","5.256","7.6","0.485","13.454","0.05","1.75","29.47","4.68018","55","0","SATNPRO1509","31.13","0.43604","5"],
    [52598,"HCEP03730542","2025-03-29 03:45:00","9.0092","3.18288","28.057","5.235","7.6","0.453","12.953","0.03","0.77","29.4649","4.67944","54.77","0","SATNPRO1509","31.154","0.43638","5"],
    [52599,"HCEP03730542","2025-03-29 04:00:00","9.0094","3.18243","28.169","5.227","7.6","0.48","12.891","0.05","1.04","29.4601","4.67875","54.69","0","SATNPRO1509","31.204","0.4371","5"],
    [52600,"HCEP03730542","2025-03-29 04:15:00","9.01","3.1819","28.209","5.214","7.6","0.461","11.569","0.03","0.69","29.4541","4.67788","54.55","0","SATNPRO1509","31.07","0.43522","5"],
    [52601,"HCEP03730542","2025-03-29 04:30:00","9.0108","3.18163","28.289","5.205","7.6","0.452","10.75","0.03","0.51","29.4506","4.67737","54.45","0","SATNPRO1509","30.942","0.4334","5"],
    [52602,"HCEP03730542","2025-03-29 04:45:00","9.011","3.18187","28.285","5.194","7.6","0.45","10.604","0.04","1.4","29.453","4.67771","54.35","0","SATNPRO1509","31.172","0.43664","5"],
    [52603,"HCEP03730542","2025-03-29 05:00:00","9.0104","3.18247","28.333","5.19","7.6","0.441","9.691","0.03","0.4","29.4596","4.67867","54.31","0","SATNPRO1509","31.084","0.4354","5"],
    [52604,"HCEP03730542","2025-03-29 05:15:00","9.01","3.18296","28.327","5.19","7.59","0.43","10.515","0.02","0.67","29.4649","4.67944","54.31","0","SATNPRO1509","31.094","0.43552","5"],
    [52605,"HCEP03730542","2025-03-29 05:30:00","9.0087","3.18332","28.283","5.192","7.6","0.417","9.877","0.02","0.5","29.4697","4.68015","54.33","0","SATNPRO1509","31.098","0.43562","5"],
    [52606,"HCEP03730542","2025-03-29 05:45:00","9.007","3.1837","28.197","5.224","7.6","0.417","10.839","0.02","0.71","29.4751","4.68095","54.66","0","SATNPRO1509","31.254","0.43778","5"],
    [52607,"HCEP03730542","2025-03-29 06:00:00","9.0069","3.18392","28.073","5.24","7.6","0.429","10.63","0.07","1.36","29.4775","4.68129","54.83","0","SATNPRO1509","31.256","0.43778","5"],
    [52608,"HCEP03730542","2025-03-29 06:15:00","9.0052","3.18573","27.939","5.235","7.6","0.465","13.976","0.05","2.39","29.4974","4.68418","54.78","0","SATNPRO1509","31.296","0.43832","5"],
    [52609,"HCEP03730542","2025-03-29 06:30:00","8.9969","3.18919","27.435","5.289","7.6","0.411","12.449","0.02","0.62","29.54","4.69041","55.35","0","SATNPRO1509","31.384","0.43954","5"],
    [52610,"HCEP03730542","2025-03-29 06:45:00","8.9944","3.18962","27.174","5.338","7.61","0.382","9.671","0.02","0.41","29.5466","4.69139","55.86","0","SATNPRO1509","31.488","0.44108","5"],
    [52611,"HCEP03730542","2025-03-29 07:00:00","8.9934","3.18986","27.003","5.363","7.61","2.655","35.915","3.98","33.88","29.5499","4.69187","56.13","0","SATNPRO1509","31.426","0.44016","5"],
    [52612,"HCEP03730542","2025-03-29 07:15:00","8.9907","3.19089","26.829","5.357","7.61","0.394","9.546","0.04","0.74","29.5628","4.69376","56.06","0","SATNPRO1509","31.572","0.44224","5"],
    [52613,"HCEP03730542","2025-03-29 07:30:00","8.985","3.19307","26.675","5.387","7.61","1.741","29.097","3.11","29.15","29.59","4.69777","56.38","0","SATNPRO1509","31.49","0.44104","5"],
    [52614,"HCEP03730542","2025-03-29 07:45:00","8.9801","3.19383","26.501","5.452","7.62","2.413","64.229","0.74","17.79","29.6019","4.69955","57.05","0","SATNPRO1509","31.733999999999998","0.44446","5"],
    [52615,"HCEP03730542","2025-03-29 08:00:00","8.9786","3.19444","26.335","5.487","7.62","0.396","9.959","0.03","1.56","29.6095","4.70067","57.42","0","SATNPRO1509","31.598","0.44258","5"],
    [52616,"HCEP03730542","2025-03-29 08:15:00","8.9783","3.19495","26.171","5.485","7.62","0.351","9.256","0.02","0.4","29.615","4.70146","57.41","0","SATNPRO1509","31.63","0.44306","5"],
    [52617,"HCEP03730542","2025-03-29 08:30:00","8.9777","3.1955","25.928","5.478","7.62","0.366","9.43","0.03","0.39","29.6213","4.70235","57.33","0","SATNPRO1509","31.646","0.44324","5"],
    [52618,"HCEP03730542","2025-03-29 08:45:00","8.9709","3.19633","25.708","5.521","7.62","0.344","7.781","0.02","1.27","29.6356","4.70452","57.78","0","SATNPRO1509","31.794","0.44534","5"],
    [52619,"HCEP03730542","2025-03-29 09:00:00","8.9709","3.19716","25.561","5.573","7.63","0.38","10.748","0.08","2.15","29.6442","4.70574","58.33","0","SATNPRO1509","31.764","0.44492","5"],
    [52620,"HCEP03730542","2025-03-29 09:15:00","8.9612","3.19798","25.331","5.599","7.63","0.365","8.818","0.03","0.59","29.6607","4.70829","58.59","0","SATNPRO1509","31.954","0.4476","5"],
    [52621,"HCEP03730542","2025-03-29 09:30:00","8.954","3.19799","25.18","5.691","7.64","0.385","9.083","0.03","1.13","29.6668","4.70929","59.55","0","SATNPRO1509","31.974","0.44784","5"],
    [52622,"HCEP03730542","2025-03-29 09:45:00","8.9469","3.19788","25.011","5.787","7.64","0.346","8.2","0.03","1.03","29.6717","4.71011","60.54","0","SATNPRO1509","32.154","0.45038","5"],
    [52623,"HCEP03730542","2025-03-29 10:00:00","8.9471","3.19792","24.957","5.831","7.65","0.359","10.443","0.03","3.56","29.672","4.71015","61.01","0","SATNPRO1509","32.094","0.44954","5"],
    [52624,"HCEP03730542","2025-03-29 10:15:00","8.9431","3.19799","24.851","5.846","7.65","0.354","7.999","0.03","0.6","29.6761","4.71081","61.16","0","SATNPRO1509","31.997999999999998","0.44816","5"],
    [52625,"HCEP03730542","2025-03-29 10:30:00","8.9417","3.19802","24.805","5.877","7.65","0.359","7.251","0.03","0.61","29.6776","4.71105","61.48","0","SATNPRO1509","32.168","0.45058","5"],
    [52626,"HCEP03730542","2025-03-29 10:45:00","8.9423","3.19804","24.854","5.889","7.65","0.345","7.289","0.07","0.66","29.6773","4.711","61.6","0","SATNPRO1509","32.232","0.45146","5"],
    [52627,"HCEP03730542","2025-03-29 11:00:00","8.9445","3.19785","24.886","5.888","7.65","0.338","5.805","0.03","0.37","29.6734","4.7104","61.59","0","SATNPRO1509","32.08","0.44932","5"],
    [52628,"HCEP03730542","2025-03-29 11:15:00","8.9471","3.19762","25.021","5.86","7.65","0.316","6.668","0.02","1.5","29.6689","4.70971","61.31","0","SATNPRO1509","32.154","0.4504","5"],
    [52629,"HCEP03730542","2025-03-29 11:30:00","8.9532","3.19711","25.134","5.838","7.65","0.32","5.249","0.02","0.25","29.6585","4.70811","61.08","0","SATNPRO1509","32.232","0.45152","5"],
    [52630,"HCEP03730542","2025-03-29 11:45:00","8.9612","3.1965","25.232","5.768","7.64","0.312","4.995","0.02","0.34","29.6456","4.7061","60.36","0","SATNPRO1509","32.14","0.45018","5"],
    [52631,"HCEP03730542","2025-03-29 12:00:00","8.963","3.19626","25.246","5.701","7.64","0.339","6.345","0.03","0.33","29.6416","4.70551","59.66","0","SATNPRO1509","32.078","0.44928","5"],
    [52632,"HCEP03730542","2025-03-29 12:15:00","8.9618","3.19629","25.315","5.705","7.64","0.315","6.331","0.02","0.25","29.6429","4.70571","59.69","0","SATNPRO1509","32.114","0.44982","5"],
    [52633,"HCEP03730542","2025-03-29 12:30:00","8.9586","3.19633","25.456","5.733","7.64","0.329","6.47","0.02","0.38","29.6459","4.70622","59.99","0","SATNPRO1509","32.086","0.44944","5"],
    [52634,"HCEP03730542","2025-03-29 12:45:00","8.953","3.19613","25.509","5.81","7.65","0.295","4.82","0.01","0.44","29.6485","4.7067","60.78","0","SATNPRO1509","32.282000000000004","0.45218","5"],
    [52635,"HCEP03730542","2025-03-29 13:00:00","8.9533","3.19652","25.666","5.852","7.65","0.327","6.909","0.02","0.3","29.6522","4.70723","61.23","0","SATNPRO1509","32.242","0.45158","5"],
    [52636,"HCEP03730542","2025-03-29 13:15:00","8.9579","3.1955","25.82","5.84","7.65","0.309","6.564","0.01","0.35","29.6378","4.70509","61.1","0","SATNPRO1509","32.1","0.44964","5"],
    [52637,"HCEP03730542","2025-03-29 13:30:00","8.9609","3.19439","25.926","5.819","7.65","0.344","6.49","0.03","0.17","29.6239","4.70304","60.88","0","SATNPRO1509","32.158","0.45044","5"],
    [52638,"HCEP03730542","2025-03-29 13:45:00","8.9646","3.19354","26.085","5.767","7.64","0.48","8.045","0.05","0.66","29.6119","4.70127","60.34","0","SATNPRO1509","32.11","0.44972","5"],
    [52639,"HCEP03730542","2025-03-29 14:00:00","8.9696","3.19333","26.23","5.67","7.64","0.381","11.364","0.02","0.36","29.6057","4.70028","59.33","0","SATNPRO1509","31.91","0.44696","5"],
    [52640,"HCEP03730542","2025-03-29 14:15:00","8.9736","3.19241","26.394","5.621","7.63","0.38","10.76","0.03","0.44","29.5928","4.69837","58.81","0","SATNPRO1509","31.692","0.4439","5"],
    [52641,"HCEP03730542","2025-03-29 14:30:00","8.9834","3.1905","26.574","5.543","7.63","0.388","10.669","0.02","0.5","29.565","4.6942","57.99","0","SATNPRO1509","31.662","0.44348","5"],
    [52642,"HCEP03730542","2025-03-29 14:45:00","8.9868","3.18919","26.755","5.472","7.62","0.379","10.156","0.02","0.49","29.5487","4.69181","57.26","0","SATNPRO1509","31.598","0.4426","5"],
    [52643,"HCEP03730542","2025-03-29 15:00:00","8.988","3.18812","26.937","5.444","7.62","0.427","10.386","0.05","0.43","29.5366","4.69006","56.95","0","SATNPRO1509","31.634","0.44312","5"],
    [52644,"HCEP03730542","2025-03-29 15:15:00","8.9897","3.18543","27.108","5.428","7.62","0.408","9.56","0.03","0.47","29.5076","4.68588","56.78","0","SATNPRO1509","31.502","0.44122","5"],
    [52645,"HCEP03730542","2025-03-29 15:30:00","8.9923","3.18477","27.278","5.416","7.61","0.444","9.981","0.04","1.1","29.4986","4.68454","56.66","0","SATNPRO1509","31.668","0.4436","5"],
    [52646,"HCEP03730542","2025-03-29 15:45:00","8.9949","3.18398","27.449","5.375","7.61","0.443","10.467","0.03","0.58","29.4882","4.68302","56.23","0","SATNPRO1509","31.488","0.441","5"],
    [52647,"HCEP03730542","2025-03-29 16:00:00","8.9968","3.1832","27.583","5.345","7.61","0.497","10.543","0.07","1.02","29.4787","4.68162","55.92","0","SATNPRO1509","31.464","0.4407","5"],
    [52648,"HCEP03730542","2025-03-29 16:15:00","8.9958","3.18281","27.714","5.331","7.61","0.451","8.506","0.07","0.64","29.4754","4.68118","55.77","0","SATNPRO1509","31.573999999999998","0.44226","5"],
    [52649,"HCEP03730542","2025-03-29 16:30:00","8.9959","3.18272","27.797","5.331","7.61","0.539","10.305","0.12","2.01","29.4745","4.68105","55.77","0","SATNPRO1509","31.349999999999998","0.4391","5"],
    [52650,"HCEP03730542","2025-03-29 16:45:00","8.9971","3.18337","27.919","5.332","7.6","0.427","10.467","0.03","0.65","29.48","4.68183","55.78","0","SATNPRO1509","31.348","0.4391","5"],
    [52651,"HCEP03730542","2025-03-29 17:00:00","8.9978","3.18474","28.036","5.31","7.6","0.425","11.79","0.03","0.8","29.4933","4.68373","55.56","0","SATNPRO1509","31.384","0.43962","5"],
    [52652,"HCEP03730542","2025-03-29 17:15:00","8.9965","3.18594","28.112","5.284","7.6","0.395","11.519","0.01","0.79","29.5067","4.68569","55.29","0","SATNPRO1509","31.348","0.4391","5"],
    [52653,"HCEP03730542","2025-03-29 17:30:00","8.9946","3.18807","27.871","5.284","7.6","0.409","12.411","0.02","0.59","29.5303","4.68909","55.29","0","SATNPRO1509","31.483999999999998","0.441","5"],
    [52654,"HCEP03730542","2025-03-29 17:45:00","8.987","3.19017","27.612","5.32","7.61","0.68","12.953","0.46","2.82","29.5582","4.69323","55.67","0","SATNPRO1509","31.52","0.4415","5"],
    [52655,"HCEP03730542","2025-03-29 18:00:00","8.9812","3.19134","27.496","5.399","7.61","0.404","11.977","0.03","0.75","29.5751","4.69575","56.49","0","SATNPRO1509","31.7","0.44402","5"],
    [52656,"HCEP03730542","2025-03-29 18:15:00","8.9766","3.19162","27.307","5.484","7.62","0.644","13.319","1.25","12.32","29.5818","4.69679","57.38","0","SATNPRO1509","31.842","0.446","5"],
    [52657,"HCEP03730542","2025-03-29 18:30:00","8.9732","3.19121","27.162","5.547","7.62","0.401","11.347","0.05","0.61","29.5805","4.69666","58.04","0","SATNPRO1509","31.652","0.44334","5"],
    [52658,"HCEP03730542","2025-03-29 18:45:00","8.9543","3.19546","27.03","5.636","7.63","0.36","9.62","0.03","0.35","29.6399","4.70553","58.96","0","SATNPRO1509","31.919999999999998","0.44708","5"],
    [52659,"HCEP03730542","2025-03-29 19:00:00","8.9477","3.19665","26.932","5.749","7.64","0.37","9.655","0.03","0.47","29.6577","4.70821","60.14","0","SATNPRO1509","32.066","0.44918","5"],
    [52660,"HCEP03730542","2025-03-29 19:15:00","8.9428","3.19753","26.839","5.801","7.64","0.341","8.425","0.02","0.42","29.6708","4.71017","60.69","0","SATNPRO1509","32.001999999999995","0.44828","5"],
    [52661,"HCEP03730542","2025-03-29 19:30:00","8.9398","3.19797","26.736","5.835","7.65","0.341","8.105","0.02","0.56","29.6779","4.71124","61.04","0","SATNPRO1509","32.018","0.4485","5"],
    [52662,"HCEP03730542","2025-03-29 19:45:00","8.9366","3.19824","26.637","5.854","7.65","0.328","8.21","0.02","0.68","29.6834","4.71208","61.23","0","SATNPRO1509","32.08","0.44934","5"],
    [52663,"HCEP03730542","2025-03-29 20:00:00","8.9351","3.19812","26.506","5.875","7.65","0.34","7.588","0.02","0.53","29.6835","4.71212","61.46","0","SATNPRO1509","32.15","0.45032","5"],
    [52664,"HCEP03730542","2025-03-29 20:15:00","8.9359","3.19798","26.351","5.89","7.65","0.335","7.682","0.03","0.69","29.6814","4.7118","61.61","0","SATNPRO1509","32.068","0.44914","5"],
    [52665,"HCEP03730542","2025-03-29 20:30:00","8.9339","3.19808","26.2","5.894","7.65","0.334","6.958","0.04","0.36","29.6841","4.71221","61.65","0","SATNPRO1509","32.232","0.45144","5"],
    [52666,"HCEP03730542","2025-03-29 20:45:00","8.9341","3.19814","26.046","5.902","7.65","0.318","6.891","0.03","0.41","29.6846","4.71227","61.74","0","SATNPRO1509","32.15","0.45028","5"],
    [52667,"HCEP03730542","2025-03-29 21:00:00","8.9342","3.19814","25.875","5.901","7.65","0.328","7.282","0.02","0.66","29.6847","4.71227","61.73","0","SATNPRO1509","32.16","0.45042","5"],
    [52668,"HCEP03730542","2025-03-29 21:15:00","8.9343","3.19816","25.724","5.894","7.65","0.332","7.446","0.04","0.49","29.6848","4.71228","61.65","0","SATNPRO1509","32.126","0.44996","5"],
    [52669,"HCEP03730542","2025-03-29 21:30:00","8.9355","3.19812","25.562","5.891","7.65","0.341","7.978","0.03","0.61","29.6836","4.71207","61.62","0","SATNPRO1509","32.01","0.4484","5"],
    [52670,"HCEP03730542","2025-03-29 21:45:00","8.9308","3.19847","25.408","5.888","7.65","0.313","6.527","0.02","0.99","29.6911","4.71322","61.59","0","SATNPRO1509","32.172","0.45062","5"],
    [52671,"HCEP03730542","2025-03-29 22:00:00","8.9277","3.19866","25.297","5.905","7.66","0.318","5.761","0.03","0.55","29.6957","4.71394","61.76","0","SATNPRO1509","32.172","0.45064","5"],
    [52672,"HCEP03730542","2025-03-29 22:15:00","8.9265","3.19866","25.203","5.922","7.66","0.322","5.42","0.05","0.44","29.6967","4.71411","61.94","0","SATNPRO1509","32.282","0.45218","5"],
    [52673,"HCEP03730542","2025-03-29 22:30:00","8.9272","3.1985","25.146","5.937","7.66","0.315","5.347","0.02","0.33","29.6944","4.71376","62.1","0","SATNPRO1509","32.256","0.4518","5"],
    [52674,"HCEP03730542","2025-03-29 22:45:00","8.9268","3.19853","25.114","5.941","7.66","0.311","5.321","0.03","0.83","29.6951","4.71387","62.14","0","SATNPRO1509","32.29","0.45224","5"],
    [52675,"HCEP03730542","2025-03-29 23:00:00","8.9266","3.19841","25.091","5.935","7.66","0.333","5.332","0.04","0.41","29.6941","4.71372","62.07","0","SATNPRO1509","32.192","0.45096","5"],
    [52676,"HCEP03730542","2025-03-29 23:15:00","8.9281","3.19819","25.16","5.943","7.66","0.295","4.524","0.03","0.29","29.6906","4.71319","62.16","0","SATNPRO1509","32.278","0.4521","5"],
    [52677,"HCEP03730542","2025-03-29 23:30:00","8.9294","3.1979","25.293","5.941","7.66","0.309","4.697","0.02","0.43","29.6864","4.71258","62.14","0","SATNPRO1509","32.226","0.45144","5"],
    [52678,"HCEP03730542","2025-03-29 23:45:00","8.9321","3.19754","25.41","5.937","7.66","0.455","8.047","0.08","0.6","29.6805","4.71168","62.1","0","SATNPRO1509","32.458","0.4546","5"],
    [52679,"HCEP03730542","2025-03-30 00:00:00","8.9345","3.19716","25.5","5.933","7.66","0.315","4.251","0.04","0.45","29.6745","4.71078","62.06","0","SATNPRO1509","32.182","0.45076","5"],
    [52680,"HCEP03730542","2025-03-30 00:15:00","8.9375","3.19661","25.641","5.928","7.66","0.308","3.646","0.05","0.42","29.6663","4.70956","62.01","0","SATNPRO1509","32.476","0.45488","5"],
    [52681,"HCEP03730542","2025-03-30 00:30:00","8.9379","3.19632","25.815","5.925","7.66","0.318","3.431","0.04","0.23","29.6629","4.70908","61.97","0","SATNPRO1509","32.47","0.45478","5"],
    [52682,"HCEP03730542","2025-03-30 00:45:00","8.9412","3.1959","26.014","5.927","7.66","0.311","3.487","0.04","0.19","29.6558","4.70799","62","0","SATNPRO1509","32.442","0.4544","5"],
    [52683,"HCEP03730542","2025-03-30 01:00:00","8.9408","3.19631","26.234","5.913","7.65","0.337","4.642","0.11","0.29","29.6602","4.70866","61.85","0","SATNPRO1509","32.454","0.4546","5"],
    [52684,"HCEP03730542","2025-03-30 01:15:00","8.9376","3.19704","26.482","5.895","7.65","0.316","6.264","0.02","0.31","29.6703","4.71017","61.66","0","SATNPRO1509","32.252","0.45178","5"],
    [52685,"HCEP03730542","2025-03-30 01:30:00","8.9353","3.19735","26.588","5.907","7.65","0.322","5.98","0.04","0.64","29.6753","4.71094","61.79","0","SATNPRO1509","32.44","0.4544","5"],
    [52686,"HCEP03730542","2025-03-30 01:45:00","8.9327","3.19785","26.469","5.927","7.66","0.329","6.666","0.04","0.52","29.6826","4.71204","61.99","0","SATNPRO1509","32.388","0.45364","5"],
    [52687,"HCEP03730542","2025-03-30 02:00:00","8.9327","3.19795","26.683","5.936","7.66","0.325","6.602","0.02","0.49","29.6835","4.71218","62.09","0","SATNPRO1509","32.292","0.45232","5"],
    [52688,"HCEP03730542","2025-03-30 02:15:00","8.9348","3.19756","26.801","5.922","7.66","0.292","5.486","0.01","0.18","29.6778","4.71133","61.94","0","SATNPRO1509","32.424","0.45416","5"],
    [52689,"HCEP03730542","2025-03-30 02:30:00","8.9385","3.19709","26.982","5.906","7.65","0.316","6.8","0.02","0.43","29.6699","4.71013","61.77","0","SATNPRO1509","32.18","0.45074","5"],
    [52690,"HCEP03730542","2025-03-30 02:45:00","8.9458","3.19653","27.132","5.862","7.65","0.313","6.371","0.03","0.31","29.6579","4.70828","61.32","0","SATNPRO1509","32.294000000000004","0.45228","5"],
    [52691,"HCEP03730542","2025-03-30 03:00:00","8.9449","3.19645","27.377","5.834","7.65","0.344","6.979","0.04","1.04","29.6577","4.70829","61.02","0","SATNPRO1509","32.342","0.453","5"],
    [52692,"HCEP03730542","2025-03-30 03:15:00","8.9517","3.19465","27.553","5.829","7.65","0.368","6.794","0.06","0.41","29.6335","4.7047","60.97","0","SATNPRO1509","32.234","0.4515","5"],
    [52693,"HCEP03730542","2025-03-30 03:30:00","8.9578","3.19332","27.727","5.793","7.64","0.363","6.419","0.05","0.45","29.6147","4.70189","60.6","0","SATNPRO1509","32.126","0.44998","5"],
    [52694,"HCEP03730542","2025-03-30 03:45:00","8.9587","3.19341","27.866","5.759","7.64","0.33","6.332","0.03","0.46","29.6148","4.70189","60.25","0","SATNPRO1509","32.144","0.45022","5"],
    [52695,"HCEP03730542","2025-03-30 04:00:00","8.9568","3.19375","27.98","5.752","7.64","0.351","6.454","0.03","0.44","29.6199","4.70267","60.17","0","SATNPRO1509","32.334","0.4529","5"],
    [52696,"HCEP03730542","2025-03-30 04:15:00","8.9535","3.19459","28.089","5.768","7.64","0.339","6.327","0.05","0.49","29.6312","4.70436","60.34","0","SATNPRO1509","32.184","0.45078","5"],
    [52697,"HCEP03730542","2025-03-30 04:30:00","8.9537","3.19454","28.135","5.787","7.64","0.337","6.352","0.02","0.37","29.6306","4.70427","60.53","0","SATNPRO1509","32.257999999999996","0.45182","5"],
    [52698,"HCEP03730542","2025-03-30 04:45:00","8.9557","3.19404","28.166","5.793","7.64","0.346","6.808","0.04","0.45","29.6237","4.70324","60.6","0","SATNPRO1509","32.224","0.45134","5"],
    [52699,"HCEP03730542","2025-03-30 05:00:00","8.9581","3.19344","28.2","5.789","7.64","0.369","6.947","0.05","1.04","29.6155","4.70203","60.56","0","SATNPRO1509","32.464","0.45472","5"],
    [52700,"HCEP03730542","2025-03-30 05:15:00","8.9591","3.1932","28.232","5.772","7.64","0.345","6.127","0.04","0.52","29.6122","4.70154","60.38","0","SATNPRO1509","32.178","0.45068","5"],
    [52701,"HCEP03730542","2025-03-30 05:30:00","8.9594","3.19313","28.186","5.753","7.64","0.349","5.363","0.04","0.48","29.6113","4.7014","60.19","0","SATNPRO1509","32.38","0.4535","5"],
    [52702,"HCEP03730542","2025-03-30 05:45:00","8.9583","3.19338","28.14","5.74","7.64","0.336","6.54","0.03","0.57","29.6147","4.70191","60.04","0","SATNPRO1509","32.328","0.45282","5"],
    [52703,"HCEP03730542","2025-03-30 06:00:00","8.9572","3.19381","28.046","5.738","7.64","0.349","7.012","0.03","0.41","29.6202","4.7027","60.02","0","SATNPRO1509","32.266","0.45196","5"],
    [52704,"HCEP03730542","2025-03-30 06:15:00","8.9557","3.19426","27.777","5.725","7.64","0.35","7.65","0.03","0.51","29.6262","4.70358","59.89","0","SATNPRO1509","32.025999999999996","0.44856","5"],
    [52705,"HCEP03730542","2025-03-30 06:30:00","8.955","3.19464","27.615","5.721","7.64","0.366","9.127","0.03","0.6","29.6306","4.70422","59.85","0","SATNPRO1509","32.182","0.45076","5"],
    [52706,"HCEP03730542","2025-03-30 06:45:00","8.9533","3.19513","27.457","5.712","7.64","0.348","9.142","0.02","0.52","29.6371","4.70518","59.75","0","SATNPRO1509","32.135999999999996","0.45012","5"],
    [52707,"HCEP03730542","2025-03-30 07:00:00","8.9518","3.19544","27.262","5.719","7.64","0.357","9.418","0.02","0.68","29.6416","4.70584","59.83","0","SATNPRO1509","31.96","0.44766","5"],
    [52708,"HCEP03730542","2025-03-30 07:15:00","8.9507","3.19566","27.112","5.737","7.64","0.354","9.86","0.03","0.37","29.6449","4.70632","60.01","0","SATNPRO1509","32.08","0.44934","5"],
    [52709,"HCEP03730542","2025-03-30 07:30:00","8.9467","3.19686","26.94","5.744","7.64","0.344","10.356","0.01","0.38","29.6606","4.70864","60.09","0","SATNPRO1509","32.116","0.44984","5"],
    [52710,"HCEP03730542","2025-03-30 07:45:00","8.9441","3.19769","26.784","5.751","7.64","0.352","10.543","0.03","0.48","29.6714","4.71023","60.16","0","SATNPRO1509","32.054","0.449","5"],
    [52711,"HCEP03730542","2025-03-30 08:00:00","8.9418","3.19825","26.601","5.766","7.64","0.339","9.422","0.02","0.61","29.6791","4.71137","60.32","0","SATNPRO1509","32.077999999999996","0.44932","5"],
    [52712,"HCEP03730542","2025-03-30 08:15:00","8.9402","3.19857","26.4","5.788","7.64","0.348","9.66","0.03","0.7","29.6838","4.71206","60.55","0","SATNPRO1509","32.102","0.44962","5"],
    [52713,"HCEP03730542","2025-03-30 08:30:00","8.9391","3.19868","26.223","5.8","7.65","0.34","8.652","0.03","0.51","29.686","4.71238","60.68","0","SATNPRO1509","32.184","0.45078","5"],
    [52714,"HCEP03730542","2025-03-30 08:45:00","8.9381","3.19869","25.998","5.809","7.65","0.319","8.435","0.02","0.54","29.687","4.71253","60.77","0","SATNPRO1509","32.168","0.4506","5"],
    [52715,"HCEP03730542","2025-03-30 09:00:00","8.9381","3.19854","25.761","5.818","7.65","0.351","8.43","0.04","0.33","29.6856","4.71232","60.86","0","SATNPRO1509","32.124","0.44992","5"],
    [52716,"HCEP03730542","2025-03-30 09:15:00","8.9378","3.19836","25.53","5.819","7.65","0.338","7.919","0.02","0.4","29.6841","4.71209","60.88","0","SATNPRO1509","32.257999999999996","0.45184","5"],
    [52717,"HCEP03730542","2025-03-30 09:30:00","8.9367","3.19801","25.288","5.817","7.65","0.371","7.622","0.06","0.37","29.6814","4.71172","60.85","0","SATNPRO1509","32.068","0.44914","5"],
    [52718,"HCEP03730542","2025-03-30 09:45:00","8.9356","3.19793","25.082","5.818","7.65","0.313","7.063","0.01","0.33","29.6816","4.71176","60.85","0","SATNPRO1509","32.18","0.45074","5"],
    [52719,"HCEP03730542","2025-03-30 10:00:00","8.9347","3.19784","24.863","5.83","7.65","0.316","6.881","0.02","0.21","29.6816","4.71175","60.98","0","SATNPRO1509","32.188","0.45082","5"],
    [52720,"HCEP03730542","2025-03-30 10:15:00","8.9349","3.19795","24.69","5.84","7.65","0.327","7.448","0.05","0.34","29.6827","4.7119","61.09","0","SATNPRO1509","32.23","0.4514","5"],
    [52721,"HCEP03730542","2025-03-30 10:30:00","8.9361","3.19769","24.545","5.835","7.65","0.33","7.436","0.02","0.28","29.6789","4.71133","61.04","0","SATNPRO1509","32.066","0.44914","5"],
    [52722,"HCEP03730542","2025-03-30 10:45:00","8.9373","3.1974","24.46","5.82","7.65","0.32","7.899","0.02","0.36","29.675","4.71074","60.88","0","SATNPRO1509","32.146","0.45028","5"],
    [52723,"HCEP03730542","2025-03-30 11:00:00","8.9373","3.19738","24.396","5.809","7.65","0.328","7.733","0.03","0.23","29.6749","4.71072","60.77","0","SATNPRO1509","32.08","0.44936","5"],
    [52724,"HCEP03730542","2025-03-30 11:15:00","8.9369","3.19748","24.367","5.804","7.65","0.332","8.427","0.02","0.59","29.6763","4.71093","60.72","0","SATNPRO1509","32.15","0.45032","5"],
    [52725,"HCEP03730542","2025-03-30 11:30:00","8.9373","3.19738","24.358","5.802","7.65","0.35","7.916","0.05","0.58","29.6749","4.71072","60.69","0","SATNPRO1509","32.164","0.4505","5"],
    [52726,"HCEP03730542","2025-03-30 11:45:00","8.9398","3.19679","24.376","5.802","7.65","0.329","7.722","0.04","0.94","29.6668","4.70951","60.69","0","SATNPRO1509","32.266","0.4519","5"],
    [52727,"HCEP03730542","2025-03-30 12:00:00","8.9435","3.19625","24.431","5.799","7.64","0.35","7.231","0.05","0.58","29.6581","4.7082","60.66","0","SATNPRO1509","32.2","0.45102","5"],
    [52728,"HCEP03730542","2025-03-30 12:15:00","8.9462","3.19588","24.536","5.773","7.64","0.332","6.294","0.04","0.4","29.652","4.70728","60.39","0","SATNPRO1509","32.004","0.44832","5"],
    [52729,"HCEP03730542","2025-03-30 12:30:00","8.9483","3.19556","24.659","5.766","7.64","0.336","5.882","0.04","0.45","29.6469","4.70651","60.32","0","SATNPRO1509","32.39","0.45368","5"],
    [52730,"HCEP03730542","2025-03-30 12:45:00","8.9572","3.19439","24.749","5.749","7.64","0.313","5.11","0.03","0.31","29.6274","4.70355","60.14","0","SATNPRO1509","32.164","0.45056","5"],
    [52731,"HCEP03730542","2025-03-30 13:00:00","8.963","3.19362","24.873","5.699","7.64","0.334","5.035","0.03","0.31","29.6147","4.70162","59.62","0","SATNPRO1509","32.052","0.44892","5"],
    [52732,"HCEP03730542","2025-03-30 13:15:00","8.9649","3.19235","25.018","5.645","7.63","0.323","4.059","0.03","0.24","29.6","4.69949","59.06","0","SATNPRO1509","32.194","0.45092","5"],
    [52733,"HCEP03730542","2025-03-30 13:30:00","8.9664","3.19039","25.136","5.668","7.64","0.317","3.372","0.04","0.25","29.5786","4.69639","59.29","0","SATNPRO1509","32.33","0.4529","5"],
    [52734,"HCEP03730542","2025-03-30 13:45:00","8.9557","3.19446","25.262","5.751","7.64","0.378","7.101","0.05","0.54","29.6292","4.70386","60.16","0","SATNPRO1509","32.21","0.45116","5"],
    [52735,"HCEP03730542","2025-03-30 14:00:00","8.9483","3.19564","25.531","5.715","7.64","0.329","7.988","0.02","0.29","29.6473","4.70662","59.79","0","SATNPRO1509","32.104","0.4497","5"],
    [52736,"HCEP03730542","2025-03-30 14:15:00","8.9452","3.19624","25.748","5.734","7.64","0.356","8.288","0.05","0.38","29.656","4.70794","59.98","0","SATNPRO1509","32.1","0.44962","5"],
    [52737,"HCEP03730542","2025-03-30 14:30:00","8.9446","3.19618","25.885","5.751","7.64","0.323","7.032","0.02","0.33","29.6559","4.70794","60.16","0","SATNPRO1509","32.134","0.45008","5"],
    [52738,"HCEP03730542","2025-03-30 14:45:00","8.9408","3.19701","26.08","5.765","7.64","0.32","7.294","0.02","0.38","29.6675","4.70969","60.3","0","SATNPRO1509","32.242","0.45162","5"],
    [52739,"HCEP03730542","2025-03-30 15:00:00","8.9405","3.19691","26.253","5.783","7.64","0.328","7.238","0.03","0.25","29.6666","4.70957","60.49","0","SATNPRO1509","32.160000000000004","0.45044","5"],
    [52740,"HCEP03730542","2025-03-30 15:15:00","8.9442","3.19594","26.457","5.794","7.64","0.348","6.982","0.04","0.46","29.6535","4.70765","60.61","0","SATNPRO1509","32.224","0.45138","5"],
    [52741,"HCEP03730542","2025-03-30 15:30:00","8.9447","3.19575","26.651","5.796","7.64","0.313","6.111","0.02","0.39","29.6511","4.7073","60.63","0","SATNPRO1509","32.266","0.45194","5"],
    [52742,"HCEP03730542","2025-03-30 15:45:00","8.9456","3.19556","26.852","5.795","7.64","0.307","5.925","0.02","0.32","29.6483","4.70689","60.62","0","SATNPRO1509","32.42","0.4541","5"],
    [52743,"HCEP03730542","2025-03-30 16:00:00","8.9474","3.19525","27.032","5.792","7.64","0.324","5.816","0.03","0.39","29.6435","4.70618","60.58","0","SATNPRO1509","32.346","0.45306","5"],
    [52744,"HCEP03730542","2025-03-30 16:15:00","8.9486","3.19497","27.199","5.772","7.64","0.346","6.375","0.07","0.46","29.6396","4.7056","60.38","0","SATNPRO1509","32.276","0.45206","5"],
    [52745,"HCEP03730542","2025-03-30 16:30:00","8.9514","3.19423","27.342","5.753","7.64","0.344","6.331","0.04","0.3","29.6296","4.70412","60.18","0","SATNPRO1509","32.288","0.45224","5"],
    [52746,"HCEP03730542","2025-03-30 16:45:00","8.9557","3.19294","27.448","5.727","7.64","0.34","6.882","0.03","0.41","29.6127","4.70163","59.91","0","SATNPRO1509","32.426","0.4542","5"],
    [52747,"HCEP03730542","2025-03-30 17:00:00","8.9608","3.19128","27.524","5.693","7.63","0.36","7.235","0.04","0.57","29.5914","4.69848","59.55","0","SATNPRO1509","32.102","0.44966","5"],
    [52748,"HCEP03730542","2025-03-30 17:15:00","8.9617","3.19124","27.579","5.655","7.63","0.379","7.273","0.09","0.66","29.5902","4.69829","59.16","0","SATNPRO1509","32.074","0.44924","5"],
    [52749,"HCEP03730542","2025-03-30 17:30:00","8.9616","3.19158","27.615","5.633","7.63","0.368","7.408","0.03","0.8","29.5937","4.6988","58.92","0","SATNPRO1509","31.998","0.4482","5"],
    [52750,"HCEP03730542","2025-03-30 17:45:00","8.9633","3.19157","27.618","5.611","7.63","0.364","8.822","0.04","0.57","29.5923","4.69856","58.7","0","SATNPRO1509","31.971999999999998","0.44782","5"],
    [52751,"HCEP03730542","2025-03-30 18:00:00","8.9645","3.1916","27.68","5.582","7.63","0.366","7.78","0.03","0.43","29.5915","4.69843","58.4","0","SATNPRO1509","31.878","0.44648","5"],
    [52752,"HCEP03730542","2025-03-30 18:15:00","8.9657","3.19141","27.748","5.561","7.63","0.362","7.146","0.04","0.66","29.5886","4.698","58.17","0","SATNPRO1509","32.21","0.45118","5"],
    [52753,"HCEP03730542","2025-03-30 18:30:00","8.9653","3.1914","27.753","5.546","7.62","0.368","6.635","0.03","0.38","29.5888","4.69803","58.02","0","SATNPRO1509","31.932","0.44724","5"],
    [52754,"HCEP03730542","2025-03-30 18:45:00","8.9637","3.19133","27.535","5.552","7.62","0.355","7.727","0.03","0.73","29.5895","4.69814","58.07","0","SATNPRO1509","32.004","0.44822","5"],
    [52755,"HCEP03730542","2025-03-30 19:00:00","8.9628","3.19141","27.402","5.562","7.63","0.369","8.115","0.02","0.45","29.5912","4.6984","58.18","0","SATNPRO1509","31.928","0.44718","5"],
    [52756,"HCEP03730542","2025-03-30 19:15:00","8.9613","3.19196","27.354","5.569","7.63","0.392","9.398","0.21","2.9","29.598","4.6994","58.26","0","SATNPRO1509","31.95","0.44756","5"],
    [52757,"HCEP03730542","2025-03-30 19:30:00","8.96","3.19248","27.261","5.564","7.63","0.354","8.678","0.02","0.29","29.6045","4.70035","58.21","0","SATNPRO1509","31.976","0.44786","5"],
    [52758,"HCEP03730542","2025-03-30 19:45:00","8.9559","3.19404","27.126","5.586","7.63","0.338","9.595","0.02","0.33","29.624","4.70323","58.43","0","SATNPRO1509","31.964000000000002","0.44772","5"],
    [52759,"HCEP03730542","2025-03-30 20:00:00","8.9515","3.19502","27.025","5.626","7.63","0.346","8.249","0.03","0.37","29.6378","4.70528","58.85","0","SATNPRO1509","32.166","0.45052","5"],
    [52760,"HCEP03730542","2025-03-30 20:15:00","8.9511","3.19502","26.92","5.661","7.63","0.327","7.839","0.02","0.33","29.6381","4.70533","59.22","0","SATNPRO1509","32.104","0.44968","5"],
    [52761,"HCEP03730542","2025-03-30 20:30:00","8.9511","3.19495","26.865","5.68","7.63","0.332","7.544","0.02","0.39","29.6374","4.70523","59.42","0","SATNPRO1509","32.13","0.45004","5"],
    [52762,"HCEP03730542","2025-03-30 20:45:00","8.9508","3.19504","26.762","5.684","7.63","0.331","7.946","0.02","0.39","29.6386","4.7054","59.46","0","SATNPRO1509","32.134","0.4501","5"],
    [52763,"HCEP03730542","2025-03-30 21:00:00","8.9504","3.1952","26.644","5.682","7.63","0.338","7.688","0.02","0.34","29.6407","4.7057","59.44","0","SATNPRO1509","32.14","0.45018","5"],
    [52764,"HCEP03730542","2025-03-30 21:15:00","8.9508","3.19509","26.535","5.686","7.63","0.33","7.555","0.03","0.4","29.6391","4.70546","59.48","0","SATNPRO1509","32.208","0.45116","5"],
    [52765,"HCEP03730542","2025-03-30 21:30:00","8.9509","3.19497","26.421","5.686","7.63","0.338","7.933","0.02","0.43","29.6379","4.70528","59.48","0","SATNPRO1509","32.17","0.45062","5"],
    [52766,"HCEP03730542","2025-03-30 21:45:00","8.9504","3.19513","26.289","5.678","7.63","0.337","7.881","0.02","0.43","29.6401","4.70558","59.4","0","SATNPRO1509","32.147999999999996","0.45028","5"],
    [52767,"HCEP03730542","2025-03-30 22:00:00","8.9499","3.19534","26.135","5.677","7.63","0.352","7.862","0.02","0.43","29.6427","4.70596","59.39","0","SATNPRO1509","32.17","0.4506","5"],
    [52768,"HCEP03730542","2025-03-30 22:15:00","8.9498","3.19536","25.977","5.682","7.63","21.942","1011.379","3.23","455.01","29.643","4.706","59.44","0","SATNPRO1509","32.072","0.44926","5"],
    [52769,"HCEP03730542","2025-03-30 22:30:00","8.9497","3.19532","25.869","5.677","7.63","0.336","7.83","0.02","0.29","29.6428","4.70596","59.38","0","SATNPRO1509","32.082","0.44936","5"],
    [52770,"HCEP03730542","2025-03-30 22:45:00","8.9498","3.1953","25.742","5.681","7.63","0.326","8.146","0.02","0.33","29.6425","4.70591","59.43","0","SATNPRO1509","32.188","0.45088","5"],
    [52771,"HCEP03730542","2025-03-30 23:00:00","8.9501","3.19509","25.622","5.684","7.63","0.341","8.13","0.02","0.35","29.6402","4.70557","59.46","0","SATNPRO1509","32.008","0.44832","5"],
    [52772,"HCEP03730542","2025-03-30 23:15:00","8.9521","3.19456","25.573","5.679","7.63","0.335","8.883","0.02","1.28","29.6331","4.70451","59.41","0","SATNPRO1509","32.124","0.44996","5"],
    [52773,"HCEP03730542","2025-03-30 23:30:00","8.9553","3.19405","25.57","5.654","7.63","0.342","8.969","0.02","1.29","29.6253","4.70333","59.15","0","SATNPRO1509","32.058","0.449","5"],
    [52774,"HCEP03730542","2025-03-30 23:45:00","8.9533","3.19449","25.513","5.639","7.63","0.348","8.709","0.05","2.21","29.6314","4.70424","58.98","0","SATNPRO1509","32.202","0.4511","5"],
    [52775,"HCEP03730542","2025-03-31 00:00:00","8.9509","3.19487","25.545","5.651","7.63","0.318","7.043","0.02","0.64","29.6373","4.70513","59.11","0","SATNPRO1509","32.28","0.45216","5"],
    [52776,"HCEP03730542","2025-03-31 00:15:00","8.9513","3.1947","25.653","5.663","7.63","0.643","94.112","0.3","49.29","29.6352","4.70483","59.24","0","SATNPRO1509","32.088","0.44944","5"],
    [52777,"HCEP03730542","2025-03-31 00:30:00","8.9498","3.19469","25.756","5.661","7.63","0.344","7.869","0.03","1.5","29.6363","4.70502","59.21","0","SATNPRO1509","32.242","0.45158","5"],
    [52778,"HCEP03730542","2025-03-31 00:45:00","8.9487","3.19473","25.831","5.688","7.64","0.394","9.197","0.06","2.42","29.6376","4.70524","59.49","0","SATNPRO1509","32.292","0.4523","5"],
    [52779,"HCEP03730542","2025-03-31 01:00:00","8.9469","3.19474","25.955","5.706","7.64","0.319","6.911","0.02","0.15","29.6391","4.7055","59.69","0","SATNPRO1509","32.32","0.45268","5"],
    [52780,"HCEP03730542","2025-03-31 01:15:00","8.9469","3.19441","26.07","5.734","7.64","0.306","6.024","0.01","0.35","29.6357","4.705","59.98","0","SATNPRO1509","32.382","0.45358","5"],
    [52781,"HCEP03730542","2025-03-31 01:30:00","8.9484","3.19392","26.256","5.75","7.64","0.322","6.015","0.03","0.22","29.6293","4.70408","60.14","0","SATNPRO1509","32.224000000000004","0.45136","5"],
    [52782,"HCEP03730542","2025-03-31 01:45:00","8.9503","3.19344","26.489","5.753","7.64","8.66","59.758","2.07","15.39","29.6227","4.7031","60.18","0","SATNPRO1509","32.403999999999996","0.4539","5"],
    [52783,"HCEP03730542","2025-03-31 02:00:00","8.9483","3.19407","26.581","5.755","7.64","7.895","412.944","4.79","161","29.6308","4.70431","60.2","0","SATNPRO1509","32.32","0.45274","5"],
    [52784,"HCEP03730542","2025-03-31 02:15:00","8.9446","3.19512","26.793","5.756","7.64","11.414","50.359","5.9","26.98","29.6446","4.70638","60.21","0","SATNPRO1509","32.236","0.45152","5"],
    [52785,"HCEP03730542","2025-03-31 02:30:00","8.9422","3.19576","26.87","5.753","7.64","0.313","6.208","0.03","0.34","29.6532","4.70765","60.17","0","SATNPRO1509","32.214","0.45122","5"],
    [52786,"HCEP03730542","2025-03-31 02:45:00","8.9414","3.1959","27.04","5.749","7.64","0.319","6.403","0.04","0.83","29.6552","4.70797","60.13","0","SATNPRO1509","32.318000000000005","0.45266","5"],
    [52787,"HCEP03730542","2025-03-31 03:00:00","8.9415","3.19586","27.227","5.75","7.64","0.311","6.363","0.03","2.2","29.6547","4.70791","60.15","0","SATNPRO1509","32.288000000000004","0.4522","5"],
    [52788,"HCEP03730542","2025-03-31 03:15:00","8.9419","3.19573","27.389","5.755","7.64","0.308","5.617","0.05","0.95","29.6528","4.70764","60.19","0","SATNPRO1509","32.354","0.45318","5"],
    [52789,"HCEP03730542","2025-03-31 03:30:00","8.9438","3.19526","27.549","5.761","7.64","0.314","5.242","0.03","0.22","29.6464","4.70669","60.26","0","SATNPRO1509","32.322","0.45272","5"],
    [52790,"HCEP03730542","2025-03-31 03:45:00","8.9471","3.19443","27.666","5.768","7.64","0.3","5.072","0.03","0.18","29.635","4.705","60.33","0","SATNPRO1509","32.346000000000004","0.45304","5"],
    [52791,"HCEP03730542","2025-03-31 04:00:00","8.9496","3.19381","27.812","5.755","7.64","1.466","37.748","1","21.46","29.6266","4.70376","60.2","0","SATNPRO1509","32.232","0.45142","5"],
    [52792,"HCEP03730542","2025-03-31 04:15:00","8.9504","3.19362","27.967","5.742","7.64","0.314","5.749","0.02","0.97","29.6239","4.70336","60.06","0","SATNPRO1509","32.43","0.45428","5"],
    [52793,"HCEP03730542","2025-03-31 04:30:00","8.9496","3.19367","28.049","5.749","7.64","0.331","5.323","0.05","1.16","29.625","4.70355","60.14","0","SATNPRO1509","32.306","0.45246","5"],
    [52794,"HCEP03730542","2025-03-31 04:45:00","8.9479","3.19454","28.123","5.747","7.64","0.315","6.297","0.04","1.4","29.6353","4.70506","60.11","0","SATNPRO1509","32.348","0.4531","5"],
    [52795,"HCEP03730542","2025-03-31 05:00:00","8.9474","3.19503","28.193","5.722","7.64","0.343","6.992","0.03","0.6","29.6407","4.70584","59.85","0","SATNPRO1509","32.292","0.45228","5"],
    [52796,"HCEP03730542","2025-03-31 05:15:00","8.9485","3.1948","28.205","5.704","7.64","0.33","6.316","0.04","0.77","29.6375","4.70536","59.66","0","SATNPRO1509","32.196","0.45096","5"],
    [52797,"HCEP03730542","2025-03-31 05:30:00","8.9501","3.1945","28.159","5.689","7.64","0.337","6.618","0.03","0.25","29.633","4.70469","59.51","0","SATNPRO1509","32.158","0.45044","5"],
    [52798,"HCEP03730542","2025-03-31 05:45:00","8.9528","3.19392","28.16","5.665","7.63","0.496","26.715","0.35","23.6","29.6249","4.70347","59.25","0","SATNPRO1509","32.248","0.45168","5"],
    [52799,"HCEP03730542","2025-03-31 06:00:00","8.9544","3.19381","28.071","5.653","7.63","0.337","6.448","0.06","0.9","29.6225","4.7031","59.14","0","SATNPRO1509","32.152","0.45032","5"],
    [52800,"HCEP03730542","2025-03-31 06:15:00","8.9559","3.19377","27.998","5.634","7.63","0.348","7.505","0.03","0.85","29.6209","4.70283","58.94","0","SATNPRO1509","32.054","0.44896","5"],
    [52801,"HCEP03730542","2025-03-31 06:30:00","8.9584","3.19277","27.875","5.611","7.63","0.328","6.124","0.02","0.27","29.6085","4.701","58.69","0","SATNPRO1509","32.16","0.4505","5"],
    [52802,"HCEP03730542","2025-03-31 06:45:00","8.9577","3.19288","27.717","5.604","7.63","0.355","6.776","0.05","1.15","29.6103","4.70126","58.62","0","SATNPRO1509","32.31","0.45256","5"],
    [52803,"HCEP03730542","2025-03-31 07:00:00","8.9587","3.1928","27.584","5.611","7.63","0.365","6.413","0.05","0.31","29.6087","4.701","58.69","0","SATNPRO1509","32.17","0.4506","5"],
    [52804,"HCEP03730542","2025-03-31 07:15:00","8.9604","3.19239","27.415","5.602","7.63","0.323","6.747","0.02","0.38","29.6031","4.70016","58.6","0","SATNPRO1509","32.204","0.45106","5"],
    [52805,"HCEP03730542","2025-03-31 07:30:00","8.9629","3.19159","27.235","5.568","7.63","0.349","6.518","0.04","0.36","29.593","4.69865","58.24","0","SATNPRO1509","32.194","0.45096","5"],
    [52806,"HCEP03730542","2025-03-31 07:45:00","8.9669","3.19055","27.071","5.527","7.62","0.359","6.977","0.03","0.29","29.579","4.69655","57.82","0","SATNPRO1509","32.046","0.4488","5"],
    [52807,"HCEP03730542","2025-03-31 08:00:00","8.9703","3.18975","26.952","5.496","7.62","0.36","6.387","0.02","0.24","29.5681","4.69492","57.49","0","SATNPRO1509","31.988","0.44804","5"],
    [52808,"HCEP03730542","2025-03-31 08:15:00","8.9712","3.1895","26.889","5.461","7.62","0.359","6.271","0.05","0.55","29.5648","4.69443","57.13","0","SATNPRO1509","31.898","0.44676","5"],
    [52809,"HCEP03730542","2025-03-31 08:30:00","8.9713","3.18949","26.679","5.447","7.62","0.385","6.634","0.05","0.33","29.5646","4.69439","56.98","0","SATNPRO1509","31.78","0.4451","5"],
    [52810,"HCEP03730542","2025-03-31 08:45:00","8.9717","3.18939","26.476","5.433","7.61","0.37","6.635","0.04","0.4","29.5633","4.69418","56.84","0","SATNPRO1509","31.768","0.44496","5"],
    [52811,"HCEP03730542","2025-03-31 09:00:00","8.9723","3.1891","26.272","5.433","7.61","0.383","6.411","0.05","0.37","29.56","4.69368","56.84","0","SATNPRO1509","31.886","0.44666","5"],
    [52812,"HCEP03730542","2025-03-31 09:15:00","8.9724","3.18893","25.999","5.426","7.61","0.365","6.376","0.04","0.31","29.5583","4.69342","56.76","0","SATNPRO1509","31.945999999999998","0.44746","5"],
    [52813,"HCEP03730542","2025-03-31 09:30:00","8.9728","3.18887","25.719","5.424","7.61","0.388","6.064","0.08","0.3","29.5575","4.69327","56.74","0","SATNPRO1509","31.91","0.44698","5"],
    [52814,"HCEP03730542","2025-03-31 09:45:00","8.9727","3.18879","25.477","5.421","7.61","0.405","6.797","0.04","0.46","29.5569","4.69317","56.71","0","SATNPRO1509","31.998","0.44818","5"],
    [52815,"HCEP03730542","2025-03-31 10:00:00","8.9728","3.18873","25.201","5.424","7.61","0.359","5.409","0.04","0.25","29.5561","4.69305","56.73","0","SATNPRO1509","32.01","0.44836","5"],
    [52816,"HCEP03730542","2025-03-31 10:15:00","8.9727","3.18877","24.949","5.422","7.61","0.765","15.667","0.56","12.63","29.5568","4.69314","56.71","0","SATNPRO1509","32.052","0.44896","5"],
    [52817,"HCEP03730542","2025-03-31 10:30:00","8.9723","3.18897","24.689","5.42","7.61","0.506","8.215","0.23","2.8","29.5593","4.69349","56.7","0","SATNPRO1509","31.812","0.44556","5"],
    [52818,"HCEP03730542","2025-03-31 10:45:00","8.972","3.18921","24.506","5.417","7.61","0.391","5.917","0.07","1.05","29.5621","4.69387","56.66","0","SATNPRO1509","32.048","0.44888","5"],
    [52819,"HCEP03730542","2025-03-31 11:00:00","8.9716","3.18927","24.339","5.411","7.61","0.384","7.025","0.04","1.37","29.5631","4.69403","56.61","0","SATNPRO1509","31.986","0.44802","5"],
    [52820,"HCEP03730542","2025-03-31 11:15:00","8.9713","3.1893","24.199","5.419","7.61","0.367","5.781","0.04","0.68","29.5637","4.69411","56.68","0","SATNPRO1509","31.974","0.44786","5"],
    [52821,"HCEP03730542","2025-03-31 11:30:00","8.9707","3.18961","24.126","5.425","7.61","1.235","67.909","0.81","21.47","29.5674","4.69465","56.75","0","SATNPRO1509","32.196","0.451","5"],
    [52822,"HCEP03730542","2025-03-31 11:45:00","8.9693","3.19012","24.068","5.428","7.61","0.392","6.478","0.06","0.28","29.5738","4.69559","56.78","0","SATNPRO1509","31.986","0.448","5"],
    [52823,"HCEP03730542","2025-03-31 12:00:00","8.97","3.18961","24.017","5.428","7.61","0.337","4.8","0.02","0.33","29.568","4.69474","56.78","0","SATNPRO1509","32.094","0.44952","5"],
    [52824,"HCEP03730542","2025-03-31 12:15:00","8.9682","3.1902","24.046","5.443","7.61","0.391","4.995","0.05","0.26","29.5756","4.69586","56.93","0","SATNPRO1509","32.046","0.44886","5"],
    [52825,"HCEP03730542","2025-03-31 12:30:00","8.9751","3.1828","24.095","5.478","7.62","0.374","3.805","0.08","0.35","29.494","4.68402","57.28","0","SATNPRO1509","32.022","0.44856","5"],
    [52826,"HCEP03730542","2025-03-31 12:45:00","8.9676","3.18985","24.188","5.546","7.62","0.368","5.701","0.08","1.92","29.5724","4.69543","58.01","0","SATNPRO1509","31.956","0.4476","5"],
    [52827,"HCEP03730542","2025-03-31 13:00:00","8.972","3.18541","24.284","5.5","7.62","0.351","4.448","0.03","0.42","29.5233","4.68829","57.52","0","SATNPRO1509","32.106","0.44966","5"],
    [52828,"HCEP03730542","2025-03-31 13:15:00","8.9702","3.18696","24.38","5.524","7.62","0.326","4.294","0.02","0.17","29.5406","4.69083","57.77","0","SATNPRO1509","32.1","0.44958","5"],
    [52829,"HCEP03730542","2025-03-31 13:30:00","8.9736","3.1848","24.506","5.523","7.62","0.348","4.517","0.04","0.19","29.5156","4.68718","57.76","0","SATNPRO1509","32","0.4482","5"],
    [52830,"HCEP03730542","2025-03-31 13:45:00","8.9804","3.18013","24.616","5.532","7.62","0.379","4.813","0.11","3.46","29.4619","4.67935","57.84","0","SATNPRO1509","31.933999999999997","0.4473","5"],
    [52831,"HCEP03730542","2025-03-31 14:00:00","8.9844","3.17626","24.767","5.544","7.62","0.35","4.022","0.04","0.31","29.419","4.67312","57.95","0","SATNPRO1509","31.722","0.44434","5"],
    [52832,"HCEP03730542","2025-03-31 14:15:00","8.9824","3.1776","24.931","5.544","7.62","0.355","5.062","0.03","0.45","29.4343","4.67536","57.96","0","SATNPRO1509","31.830000000000002","0.44582","5"],
    [52833,"HCEP03730542","2025-03-31 14:30:00","8.9766","3.18309","25.076","5.535","7.62","0.36","5.284","0.04","0.28","29.4952","4.68423","57.88","0","SATNPRO1509","31.926","0.44716","5"],
    [52834,"HCEP03730542","2025-03-31 14:45:00","8.975","3.18528","25.262","5.509","7.62","0.378","5.553","0.04","0.41","29.5189","4.68767","57.62","0","SATNPRO1509","31.921999999999997","0.44712","5"],
    [52835,"HCEP03730542","2025-03-31 15:00:00","8.9767","3.18296","25.424","5.478","7.62","0.381","6.523","0.04","1.1","29.4937","4.68402","57.29","0","SATNPRO1509","31.904","0.44688","5"],
    [52836,"HCEP03730542","2025-03-31 15:15:00","8.9768","3.18436","25.625","5.465","7.61","0.366","6.256","0.04","0.49","29.5079","4.68607","57.15","0","SATNPRO1509","31.906000000000002","0.44692","5"],
    [52837,"HCEP03730542","2025-03-31 15:30:00","8.9777","3.18365","25.86","5.424","7.61","0.376","5.65","0.03","0.23","29.4998","4.68491","56.72","0","SATNPRO1509","31.89","0.4467","5"],
    [52838,"HCEP03730542","2025-03-31 15:45:00","8.9786","3.18248","25.936","5.424","7.61","0.41","6.07","0.06","0.45","29.4871","4.68307","56.72","0","SATNPRO1509","31.986","0.44804","5"],
    [52839,"HCEP03730542","2025-03-31 16:00:00","8.9785","3.18279","26.133","5.417","7.61","0.43","9.752","0.05","0.98","29.4903","4.68354","56.65","0","SATNPRO1509","31.962","0.4477","5"],
    [52840,"HCEP03730542","2025-03-31 16:15:00","8.9796","3.18221","26.479","5.414","7.61","0.392","7.825","0.03","4.93","29.4832","4.68253","56.61","0","SATNPRO1509","31.84","0.44596","5"],
    [52841,"HCEP03730542","2025-03-31 16:30:00","8.9778","3.18423","26.819","5.401","7.61","0.416","6.626","0.07","0.33","29.5053","4.68575","56.49","0","SATNPRO1509","31.904","0.44688","5"],
    [52842,"HCEP03730542","2025-03-31 16:45:00","8.978","3.18446","27.083","5.383","7.61","0.407","13.293","0.05","13.77","29.5073","4.68605","56.29","0","SATNPRO1509","31.828","0.44576","5"],
    [52843,"HCEP03730542","2025-03-31 17:00:00","8.978","3.18432","27.253","5.371","7.61","0.434","6.859","0.09","0.52","29.5058","4.68584","56.17","0","SATNPRO1509","31.983999999999998","0.44798","5"],
    [52844,"HCEP03730542","2025-03-31 17:15:00","8.9786","3.18424","27.445","5.363","7.61","0.441","8.644","0.1","4.44","29.5045","4.68566","56.09","0","SATNPRO1509","31.86","0.44626","5"],
    [52845,"HCEP03730542","2025-03-31 17:30:00","8.9785","3.18399","27.591","5.359","7.61","0.487","8.863","0.15","2.16","29.502","4.68531","56.04","0","SATNPRO1509","31.708","0.44412","5"],
    [52846,"HCEP03730542","2025-03-31 17:45:00","8.9796","3.18357","27.73","5.356","7.61","0.411","8.309","0.05","0.38","29.4966","4.68453","56.02","0","SATNPRO1509","31.669999999999998","0.4436","5"],
    [52847,"HCEP03730542","2025-03-31 18:00:00","8.9799","3.18335","27.828","5.338","7.6","0.417","8.176","0.05","0.53","29.4941","4.68417","55.83","0","SATNPRO1509","31.8","0.4454","5"],
    [52848,"HCEP03730542","2025-03-31 18:15:00","8.9814","3.18279","27.801","5.336","7.6","0.411","8.581","0.04","0.49","29.4871","4.68314","55.81","0","SATNPRO1509","31.716","0.44424","5"],
    [52849,"HCEP03730542","2025-03-31 18:30:00","8.9818","3.1823","27.707","5.321","7.6","0.4","7.908","0.05","0.35","29.4818","4.68235","55.65","0","SATNPRO1509","31.774","0.44504","5"],
    [52850,"HCEP03730542","2025-03-31 18:45:00","8.9823","3.1816","27.629","5.323","7.6","0.415","8.226","0.04","1.23","29.4743","4.68127","55.66","0","SATNPRO1509","31.708","0.44412","5"],
    [52851,"HCEP03730542","2025-03-31 19:00:00","8.984","3.18029","27.568","5.324","7.6","3.852","52.012","3.71","32.02","29.4594","4.67909","55.67","0","SATNPRO1509","31.738","0.44454","5"],
    [52852,"HCEP03730542","2025-03-31 19:15:00","8.9866","3.17935","27.558","5.322","7.6","0.431","8.793","0.05","0.41","29.4477","4.67737","55.65","0","SATNPRO1509","31.618","0.44284","5"],
    [52853,"HCEP03730542","2025-03-31 19:30:00","8.9866","3.17907","27.608","5.294","7.6","0.415","8.002","0.03","0.39","29.4448","4.67695","55.36","0","SATNPRO1509","31.558","0.442","5"],
    [52854,"HCEP03730542","2025-03-31 19:45:00","8.987","3.17662","27.549","5.302","7.6","0.406","6.458","0.03","0.85","29.4194","4.67329","55.43","0","SATNPRO1509","31.714","0.44424","5"],
    [52855,"HCEP03730542","2025-03-31 20:00:00","8.9868","3.17381","27.505","5.341","7.61","0.415","5.075","0.06","0.31","29.3907","4.66918","55.83","0","SATNPRO1509","31.726","0.44436","5"],
    [52856,"HCEP03730542","2025-03-31 20:15:00","8.9865","3.17142","27.437","5.396","7.61","0.422","4.527","0.07","0.69","29.3665","4.6657","56.4","0","SATNPRO1509","31.586","0.44242","5"],
    [52857,"HCEP03730542","2025-03-31 20:30:00","8.9792","3.17554","27.381","5.444","7.61","0.385","6.27","0.03","0.62","29.4148","4.67277","56.9","0","SATNPRO1509","31.742","0.44464","5"],
    [52858,"HCEP03730542","2025-03-31 20:45:00","8.9843","3.17853","27.318","5.453","7.61","0.404","7.347","0.03","0.32","29.4412","4.67646","57.01","0","SATNPRO1509","31.648","0.44326","5"],
    [52859,"HCEP03730542","2025-03-31 21:00:00","8.9834","3.17936","27.265","5.391","7.61","0.402","7.592","0.05","0.36","29.4506","4.67782","56.37","0","SATNPRO1509","31.612","0.4428","5"],
    [52860,"HCEP03730542","2025-03-31 21:15:00","8.9838","3.17875","27.181","5.376","7.61","0.511","7.828","0.07","0.52","29.4441","4.67687","56.2","0","SATNPRO1509","31.706","0.4441","5"],
    [52861,"HCEP03730542","2025-03-31 21:30:00","8.9831","3.17911","27.081","5.373","7.61","0.426","7.501","0.04","0.51","29.4483","4.67749","56.18","0","SATNPRO1509","31.796","0.44534","5"],
    [52862,"HCEP03730542","2025-03-31 21:45:00","8.981","3.17927","27.002","5.382","7.61","6.898","39.885","8.04","36.87","29.4517","4.67801","56.28","0","SATNPRO1509","31.701999999999998","0.44406","5"],
    [52863,"HCEP03730542","2025-03-31 22:00:00","8.9775","3.17985","26.905","5.417","7.61","0.576","9.862","0.1","2.31","29.4606","4.67935","56.64","0","SATNPRO1509","31.79","0.44528","5"],
    [52864,"HCEP03730542","2025-03-31 22:15:00","8.9723","3.17994","26.793","5.465","7.62","0.462","11.091","0.07","2.33","29.4659","4.6802","57.13","0","SATNPRO1509","31.898","0.44678","5"],
    [52865,"HCEP03730542","2025-03-31 22:30:00","8.9708","3.18114","26.668","5.526","7.62","0.424","7.768","0.05","0.87","29.4795","4.68217","57.78","0","SATNPRO1509","31.986","0.44802","5"],
    [52866,"HCEP03730542","2025-03-31 22:45:00","8.974","3.18314","26.556","5.548","7.62","0.37","7.282","0.03","0.74","29.4974","4.68468","58.01","0","SATNPRO1509","31.876","0.4465","5"],
    [52867,"HCEP03730542","2025-03-31 23:00:00","8.9751","3.18467","26.418","5.512","7.61","0.409","7.153","0.05","0.33","29.5122","4.68678","57.65","0","SATNPRO1509","31.88","0.44652","5"],
    [52868,"HCEP03730542","2025-03-31 23:15:00","8.9746","3.1854","26.299","5.472","7.61","0.439","6.937","0.08","0.48","29.5201","4.68791","57.23","0","SATNPRO1509","31.95","0.4475","5"],
    [52869,"HCEP03730542","2025-03-31 23:30:00","8.9743","3.18566","26.187","5.46","7.61","0.379","7.035","0.04","0.85","29.5231","4.68834","57.1","0","SATNPRO1509","31.816","0.44562","5"],
    [52870,"HCEP03730542","2025-03-31 23:45:00","8.9736","3.18581","26.085","5.46","7.61","0.389","5.561","0.07","0.6","29.5253","4.68867","57.1","0","SATNPRO1509","32.038","0.44874","5"],
    [52871,"HCEP03730542","2025-04-01 00:00:00","8.9735","3.18568","26.023","5.464","7.61","0.403","6.321","0.06","0.32","29.524","4.68847","57.14","0","SATNPRO1509","31.86","0.4463","5"],
    [52872,"HCEP03730542","2025-04-01 00:15:00","8.9704","3.18509","25.967","5.473","7.62","0.377","6.412","0.05","0.57","29.5205","4.68803","57.24","0","SATNPRO1509","32.128","0.45002","5"],
    [52873,"HCEP03730542","2025-04-01 00:30:00","8.9704","3.18562","25.974","5.502","7.62","0.403","7.54","0.04","1.11","29.526","4.68882","57.54","0","SATNPRO1509","31.932000000000002","0.44726","5"],
    [52874,"HCEP03730542","2025-04-01 00:45:00","8.9672","3.18552","25.998","5.511","7.62","0.398","6.636","0.06","0.34","29.5276","4.68911","57.63","0","SATNPRO1509","32.09","0.4495","5"],
    [52875,"HCEP03730542","2025-04-01 01:00:00","8.9615","3.18519","26.046","5.54","7.62","0.392","6.548","0.05","0.42","29.529","4.68942","57.93","0","SATNPRO1509","31.894","0.44674","5"],
    [52876,"HCEP03730542","2025-04-01 01:15:00","8.9519","3.18452","26.113","5.604","7.63","0.461","7.143","0.09","0.47","29.53","4.68975","58.59","0","SATNPRO1509","31.99","0.44808","5"],
    [52877,"HCEP03730542","2025-04-01 01:30:00","8.9477","3.1844","26.205","5.695","7.63","0.481","7.81","0.11","0.69","29.5323","4.69016","59.53","0","SATNPRO1509","31.898","0.44678","5"],
    [52878,"HCEP03730542","2025-04-01 01:45:00","8.9556","3.18528","26.286","5.732","7.63","0.413","7.768","0.07","0.51","29.5347","4.69036","59.93","0","SATNPRO1509","32.038","0.44876","5"],
    [52879,"HCEP03730542","2025-04-01 02:00:00","8.9472","3.18468","26.398","5.714","7.64","0.418","7.75","0.05","0.95","29.5354","4.69064","59.73","0","SATNPRO1509","32.082","0.44936","5"],
    [52880,"HCEP03730542","2025-04-01 02:15:00","8.943","3.18429","26.497","5.769","7.64","0.361","7.193","0.04","1.71","29.5349","4.69064","60.3","0","SATNPRO1509","32.124","0.44996","5"],
    [52881,"HCEP03730542","2025-04-01 02:30:00","8.9399","3.18403","26.639","5.825","7.64","0.368","5.698","0.07","0.39","29.5347","4.69068","60.88","0","SATNPRO1509","32.052","0.44896","5"],
    [52882,"HCEP03730542","2025-04-01 02:45:00","8.9378","3.18371","26.83","5.858","7.65","0.339","5.744","0.05","0.42","29.5331","4.6905","61.23","0","SATNPRO1509","32.124","0.44996","5"],
    [52883,"HCEP03730542","2025-04-01 03:00:00","8.9361","3.18351","26.963","5.889","7.65","0.38","5.84","0.07","0.96","29.5324","4.69044","61.54","0","SATNPRO1509","32.188","0.45086","5"],
    [52884,"HCEP03730542","2025-04-01 03:15:00","8.9353","3.18346","27.108","5.906","7.65","0.401","6.025","0.08","1.22","29.5325","4.69048","61.72","0","SATNPRO1509","32.158","0.45044","5"],
    [52885,"HCEP03730542","2025-04-01 03:30:00","8.9374","3.18381","27.268","5.921","7.65","0.383","5.69","0.07","0.36","29.534300000000002","4.69071","61.88","0","SATNPRO1509","32.164","0.45054","5"],
    [52886,"HCEP03730542","2025-04-01 03:45:00","8.9347","3.18372","27.354","5.915","7.65","0.35","6.954","0.04","1.19","29.5356","4.69095","61.82","0","SATNPRO1509","32.176","0.45068","5"],
    [52887,"HCEP03730542","2025-04-01 04:00:00","8.9288","3.18359","27.415","5.949","7.66","0.381","6.553","0.06","0.43","29.5391","4.69158","62.16","0","SATNPRO1509","32.192","0.45086","5"],
    [52888,"HCEP03730542","2025-04-01 04:15:00","8.9269","3.18392","27.579","6.012","7.66","0.344","7.168","0.03","0.94","29.5441","4.69233","62.81","0","SATNPRO1509","32.112","0.44978","5"],
    [52889,"HCEP03730542","2025-04-01 04:30:00","8.9251","3.18402","27.717","6.042","7.66","0.36","9.798","0.04","2.38","29.5465","4.69272","63.13","0","SATNPRO1509","32.304","0.45248","5"],
    [52890,"HCEP03730542","2025-04-01 04:45:00","8.9235","3.18412","27.807","6.065","7.66","0.401","11.066","0.08","2.31","29.5488","4.69309","63.37","0","SATNPRO1509","32.258","0.45186","5"],
    [52891,"HCEP03730542","2025-04-01 05:00:00","8.9222","3.1844","27.922","6.097","7.66","0.363","7.268","0.05","1.4","29.5527","4.69368","63.71","0","SATNPRO1509","32.263999999999996","0.45194","5"],
    [52892,"HCEP03730542","2025-04-01 05:15:00","8.9211","3.18473","27.957","6.113","7.67","0.456","10.921","0.17","9.78","29.557","4.69432","63.87","0","SATNPRO1509","32.31","0.45258","5"],
    [52893,"HCEP03730542","2025-04-01 05:30:00","8.9214","3.18494","28.034","6.13","7.67","0.394","5.561","0.05","0.44","29.5589","4.69459","64.06","0","SATNPRO1509","32.274","0.45206","5"],
    [52894,"HCEP03730542","2025-04-01 05:45:00","8.9228","3.18482","28.118","6.131","7.67","0.361","6.333","0.03","0.63","29.5565","4.69422","64.06","0","SATNPRO1509","32.076","0.4493","5"],
    [52895,"HCEP03730542","2025-04-01 06:00:00","8.9254","3.18438","28.094","6.119","7.67","0.344","6.131","0.03","0.39","29.5497","4.6932","63.94","0","SATNPRO1509","32.278","0.4521","5"],
    [52896,"HCEP03730542","2025-04-01 06:15:00","8.9279","3.18411","28.189","6.083","7.66","0.345","5.895","0.03","0.34","29.5448","4.69246","63.57","0","SATNPRO1509","32.044","0.44882","5"],
    [52897,"HCEP03730542","2025-04-01 06:30:00","8.9329","3.18387","28.18","6.036","7.66","0.336","6.518","0.02","0.36","29.5383","4.69143","63.08","0","SATNPRO1509","32.138","0.45014","5"],
    [52898,"HCEP03730542","2025-04-01 06:45:00","8.9464","3.18388","28.169","5.939","7.65","0.334","6.37","0.03","0.5","29.5272","4.68957","62.08","0","SATNPRO1509","32.144","0.45022","5"],
    [52899,"HCEP03730542","2025-04-01 07:00:00","8.9567","3.1842","28.081","5.801","7.64","0.37","6.07","0.03","0.32","29.5219","4.68862","60.65","0","SATNPRO1509","32.08","0.44936","5"],
    [52900,"HCEP03730542","2025-04-01 07:15:00","8.9608","3.1843","28.064","5.663","7.63","0.346","5.816","0.03","0.33","29.5196","4.6882","59.2","0","SATNPRO1509","32.048","0.4489","5"],
    [52901,"HCEP03730542","2025-04-01 07:30:00","8.9644","3.18401","27.962","5.596","7.63","0.352","5.88","0.03","0.3","29.5136","4.68727","58.51","0","SATNPRO1509","31.962","0.44768","5"],
    [52902,"HCEP03730542","2025-04-01 07:45:00","8.9664","3.18334","27.892","5.54","7.62","0.358","6.252","0.03","0.4","29.5052","4.68602","57.92","0","SATNPRO1509","31.88","0.44652","5"],
    [52903,"HCEP03730542","2025-04-01 08:00:00","8.9662","3.18278","27.735","5.512","7.62","0.373","6.444","0.03","0.33","29.4996","4.68521","57.63","0","SATNPRO1509","31.858","0.44622","5"],
    [52904,"HCEP03730542","2025-04-01 08:15:00","8.9653","3.18202","27.529","5.508","7.62","0.367","6.571","0.04","0.44","29.4927","4.68422","57.58","0","SATNPRO1509","31.904","0.44686","5"],
    [52905,"HCEP03730542","2025-04-01 08:30:00","8.9657","3.18196","27.283","5.52","7.62","0.377","7.006","0.02","0.49","29.4918","4.68408","57.71","0","SATNPRO1509","31.878","0.44652","5"],
    [52906,"HCEP03730542","2025-04-01 08:45:00","8.9679","3.18231","27.037","5.511","7.62","0.412","7.369","0.06","0.66","29.4937","4.68429","57.62","0","SATNPRO1509","31.892","0.44668","5"],
    [52907,"HCEP03730542","2025-04-01 09:00:00","8.9694","3.18231","26.791","5.479","7.62","0.435","7.45","0.07","0.88","29.4925","4.68408","57.29","0","SATNPRO1509","31.914","0.447","5"],
    [52908,"HCEP03730542","2025-04-01 09:15:00","8.9699","3.1817","26.513","5.461","7.61","0.469","7.507","0.09","0.61","29.4859","4.68311","57.1","0","SATNPRO1509","31.878","0.44652","5"],
    [52909,"HCEP03730542","2025-04-01 09:30:00","8.9702","3.18177","26.246","5.45","7.61","0.396","6.988","0.04","0.35","29.4866","4.68318","56.98","0","SATNPRO1509","31.858","0.44626","5"],
    [52910,"HCEP03730542","2025-04-01 09:45:00","8.97","3.1818","25.988","5.441","7.61","0.424","6.411","0.05","0.37","29.4871","4.68325","56.89","0","SATNPRO1509","31.944","0.44742","5"],
    [52911,"HCEP03730542","2025-04-01 10:00:00","8.9704","3.18187","25.755","5.433","7.61","0.379","6.46","0.03","0.24","29.4877","4.68331","56.8","0","SATNPRO1509","31.704","0.44406","5"],
    [52912,"HCEP03730542","2025-04-01 10:15:00","8.9708","3.18183","25.48","5.436","7.61","0.353","5.992","0.02","0.41","29.487","4.68318","56.84","0","SATNPRO1509","31.782","0.44518","5"],
    [52913,"HCEP03730542","2025-04-01 10:30:00","8.9706","3.18183","25.204","5.433","7.61","0.394","6.375","0.04","0.6","29.4873","4.68321","56.81","0","SATNPRO1509","31.858","0.44622","5"],
    [52914,"HCEP03730542","2025-04-01 10:45:00","8.9703","3.18184","24.958","5.427","7.61","0.413","7.269","0.06","0.45","29.4877","4.68326","56.74","0","SATNPRO1509","31.876","0.44648","5"],
    [52915,"HCEP03730542","2025-04-01 11:00:00","8.9696","3.18166","24.752","5.432","7.61","0.369","5.564","0.03","0.23","29.4866","4.6831","56.79","0","SATNPRO1509","31.942","0.44742","5"],
    [52916,"HCEP03730542","2025-04-01 11:15:00","8.9689","3.18143","24.552","5.448","7.61","0.367","5.339","0.06","0.28","29.4849","4.68286","56.95","0","SATNPRO1509","31.996","0.44812","5"],
    [52917,"HCEP03730542","2025-04-01 11:30:00","8.969","3.18165","24.391","5.458","7.61","0.361","6.131","0.03","0.25","29.4871","4.68317","57.07","0","SATNPRO1509","31.904","0.44684","5"],
    [52918,"HCEP03730542","2025-04-01 11:45:00","8.9707","3.18235","24.191","5.44","7.61","0.372","7.402","0.02","0.16","29.493","4.68397","56.87","0","SATNPRO1509","31.724","0.44432","5"],
    [52919,"HCEP03730542","2025-04-01 12:00:00","8.9708","3.1827","24.065","5.394","7.61","0.394","8.032","0.04","0.23","29.4966","4.68447","56.41","0","SATNPRO1509","31.752","0.44474","5"],
    [52920,"HCEP03730542","2025-04-01 12:15:00","8.966","3.18355","23.932","5.384","7.61","0.392","8.443","0.04","0.28","29.5093","4.68638","56.29","0","SATNPRO1509","31.73","0.44446","5"],
    [52921,"HCEP03730542","2025-04-01 12:30:00","8.9529","3.18404","23.859","5.429","7.62","0.378","7.775","0.04","0.26","29.5252","4.68892","56.75","0","SATNPRO1509","31.816","0.44566","5"],
    [52922,"HCEP03730542","2025-04-01 12:45:00","8.9465","3.18412","23.849","5.564","7.62","0.363","7.434","0.03","0.19","29.5313","4.6899","58.15","0","SATNPRO1509","31.834","0.4459","5"],
    [52923,"HCEP03730542","2025-04-01 13:00:00","8.9416","3.1842","23.845","5.662","7.63","0.377","7.635","0.04","0.3","29.5363","4.69072","59.17","0","SATNPRO1509","31.94","0.44738","5"],
    [52924,"HCEP03730542","2025-04-01 13:15:00","8.9392","3.18417","23.869","5.738","7.64","0.382","7.359","0.08","0.53","29.5378","4.69098","59.97","0","SATNPRO1509","31.946","0.44746","5"],
    [52925,"HCEP03730542","2025-04-01 13:30:00","8.9415","3.18405","24.136","5.785","7.64","3.958","124.864","0.32","8.61","29.5347","4.6905","60.46","0","SATNPRO1509","31.912","0.44698","5"],
    [52926,"HCEP03730542","2025-04-01 13:45:00","8.9429","3.18391","24.24","5.799","7.64","0.394","6.878","0.03","0.74","29.532","4.6901","60.61","0","SATNPRO1509","32.116","0.44984","5"],
    [52927,"HCEP03730542","2025-04-01 14:00:00","8.9422","3.18374","24.321","5.808","7.64","0.395","7.391","0.04","0.42","29.5308","4.68994","60.7","0","SATNPRO1509","32.174","0.45068","5"],
    [52928,"HCEP03730542","2025-04-01 14:15:00","8.942","3.18367","24.297","5.816","7.64","0.356","6.633","0.04","0.32","29.5302","4.68986","60.79","0","SATNPRO1509","32.077999999999996","0.4493","5"],
    [52929,"HCEP03730542","2025-04-01 14:30:00","8.9436","3.18366","24.396","5.818","7.64","0.337","6.606","0.02","0.35","29.5288","4.68963","60.81","0","SATNPRO1509","32.002","0.44824","5"],
    [52930,"HCEP03730542","2025-04-01 14:45:00","8.944","3.18345","24.518","5.815","7.64","0.318","5.963","0.02","0.2","29.5262","4.68927","60.78","0","SATNPRO1509","32.088","0.44944","5"],
    [52931,"HCEP03730542","2025-04-01 15:00:00","8.9508","3.18213","24.684","5.806","7.64","0.333","4.911","0.04","0.18","29.507","4.68639","60.69","0","SATNPRO1509","32.088","0.44944","5"],
    [52932,"HCEP03730542","2025-04-01 15:15:00","8.9562","3.1809","24.927","5.764","7.64","0.385","4.934","0.04","0.35","29.4898","4.68383","60.24","0","SATNPRO1509","32.092","0.44952","5"],
    [52933,"HCEP03730542","2025-04-01 15:30:00","8.9608","3.17941","25.156","5.696","7.63","0.328","4.787","0.03","0.12","29.4706","4.681","59.53","0","SATNPRO1509","31.94","0.44736","5"],
    [52934,"HCEP03730542","2025-04-01 15:45:00","8.9632","3.17867","25.35","5.651","7.63","0.367","4.719","0.09","0.27","29.461","4.67958","59.06","0","SATNPRO1509","31.898","0.4468","5"],
    [52935,"HCEP03730542","2025-04-01 16:00:00","8.9639","3.17872","25.553","5.614","7.63","0.36","5.037","0.03","0.14","29.4608","4.67955","58.68","0","SATNPRO1509","31.912000000000003","0.447","5"],
    [52936,"HCEP03730542","2025-04-01 16:15:00","8.9652","3.17895","25.782","5.591","7.62","0.362","4.997","0.05","0.14","29.462","4.67971","58.44","0","SATNPRO1509","32.03","0.44866","5"],
    [52937,"HCEP03730542","2025-04-01 16:30:00","8.9669","3.17795","26","5.571","7.62","0.355","4.991","0.03","0.2","29.4503","4.67801","58.23","0","SATNPRO1509","31.998","0.44818","5"],
    [52938,"HCEP03730542","2025-04-01 16:45:00","8.9673","3.17786","26.256","5.56","7.62","0.357","5.231","0.04","0.25","29.4489","4.67782","58.12","0","SATNPRO1509","32.002","0.44826","5"],
    [52939,"HCEP03730542","2025-04-01 17:00:00","8.9655","3.17914","26.492","5.554","7.62","0.364","5.735","0.04","0.2","29.4633","4.67994","58.05","0","SATNPRO1509","31.94","0.44738","5"],
    [52940,"HCEP03730542","2025-04-01 17:15:00","8.9636","3.18057","26.748","5.544","7.62","0.369","7.453","0.04","0.46","29.4795","4.68232","57.96","0","SATNPRO1509","31.916","0.44704","5"],
    [52941,"HCEP03730542","2025-04-01 17:30:00","8.9625","3.18128","26.953","5.534","7.62","0.376","8.15","0.03","0.55","29.4877","4.68352","57.85","0","SATNPRO1509","31.73","0.44444","5"],
    [52942,"HCEP03730542","2025-04-01 17:45:00","8.9622","3.18165","27.047","5.519","7.62","0.405","8.61","0.05","0.47","29.4916","4.6841","57.7","0","SATNPRO1509","31.832","0.44586","5"],
    [52943,"HCEP03730542","2025-04-01 18:00:00","8.9647","3.18104","27.209","5.501","7.62","0.397","8.189","0.04","0.51","29.4832","4.68285","57.51","0","SATNPRO1509","31.78","0.44516","5"],
    [52944,"HCEP03730542","2025-04-01 18:15:00","8.9653","3.18117","27.452","5.471","7.61","0.391","7.632","0.05","0.39","29.4839","4.68296","57.19","0","SATNPRO1509","31.682","0.44374","5"],
    [52945,"HCEP03730542","2025-04-01 18:30:00","8.9685","3.17993","27.547","5.436","7.61","0.386","7.115","0.03","0.39","29.4686","4.68071","56.83","0","SATNPRO1509","31.834","0.44588","5"],
    [52946,"HCEP03730542","2025-04-01 18:45:00","8.9679","3.1803","27.647","5.423","7.61","0.391","7.577","0.05","0.36","29.4728","4.68132","56.7","0","SATNPRO1509","31.684","0.44384","5"],
    [52947,"HCEP03730542","2025-04-01 19:00:00","8.9674","3.1809","27.7","5.409","7.61","0.406","8.356","0.04","0.47","29.4793","4.68228","56.54","0","SATNPRO1509","31.668","0.44356","5"],
    [52948,"HCEP03730542","2025-04-01 19:15:00","8.9662","3.18125","27.694","5.391","7.61","0.407","9.088","0.05","0.45","29.4839","4.68295","56.36","0","SATNPRO1509","31.71","0.44414","5"],
    [52949,"HCEP03730542","2025-04-01 19:30:00","8.963","3.18192","27.791","5.393","7.61","0.416","9.847","0.06","1.44","29.4935","4.6844","56.38","0","SATNPRO1509","31.708","0.44416","5"],
    [52950,"HCEP03730542","2025-04-01 19:45:00","8.9609","3.18257","27.714","5.422","7.61","0.486","10.585","0.06","1.65","29.5019","4.68563","56.68","0","SATNPRO1509","31.528000000000002","0.44162","5"],
    [52951,"HCEP03730542","2025-04-01 20:00:00","8.9553","3.18307","27.75","5.45","7.61","0.401","8.89","0.04","0.65","29.5116","4.68715","56.97","0","SATNPRO1509","31.748","0.44466","5"],
    [52952,"HCEP03730542","2025-04-01 20:15:00","8.9539","3.18332","27.664","5.521","7.62","0.375","8.422","0.06","5.62","29.5153","4.6877","57.71","0","SATNPRO1509","31.768","0.44496","5"],
    [52953,"HCEP03730542","2025-04-01 20:30:00","8.959","3.18139","27.658","5.562","7.62","0.396","6.981","0.06","1.52","29.4915","4.68417","58.14","0","SATNPRO1509","31.89","0.44664","5"],
    [52954,"HCEP03730542","2025-04-01 20:45:00","8.9525","3.18306","27.631","5.559","7.62","0.435","7.907","0.08","1.56","29.5139","4.68752","58.11","0","SATNPRO1509","32.007999999999996","0.44836","5"],
    [52955,"HCEP03730542","2025-04-01 21:00:00","8.9523","3.18279","27.59","5.616","7.63","0.512","9.68","0.1","2.73","29.5113","4.68715","58.71","0","SATNPRO1509","32.042","0.44882","5"],
    [52956,"HCEP03730542","2025-04-01 21:15:00","8.9457","3.18332","27.55","5.65","7.63","0.426","9.82","0.06","2.48","29.5223","4.68884","59.06","0","SATNPRO1509","31.932","0.44724","5"],
    [52957,"HCEP03730542","2025-04-01 21:30:00","8.9401","3.18394","27.523","5.713","7.63","0.4","8.684","0.07","1.23","29.5333","4.69052","59.71","0","SATNPRO1509","31.776","0.44506","5"],
    [52958,"HCEP03730542","2025-04-01 21:45:00","8.9369","3.18438","27.469","5.759","7.64","0.378","8.706","0.04","0.82","29.5405","4.69162","60.19","0","SATNPRO1509","31.914","0.447","5"],
    [52959,"HCEP03730542","2025-04-01 22:00:00","8.9377","3.18387","27.409","5.804","7.64","0.409","7.849","0.07","1.27","29.5346","4.69076","60.66","0","SATNPRO1509","32.044","0.44884","5"],
    [52960,"HCEP03730542","2025-04-01 22:15:00","8.9366","3.18422","27.32","5.811","7.64","0.442","9.138","0.08","1.81","29.5391","4.69142","60.73","0","SATNPRO1509","32.024","0.44858","5"],
    [52961,"HCEP03730542","2025-04-01 22:30:00","8.9359","3.18422","27.242","5.818","7.64","0.447","8.603","0.07","1.05","29.5398","4.69153","60.8","0","SATNPRO1509","32.002","0.44824","5"],
    [52962,"HCEP03730542","2025-04-01 22:45:00","8.9356","3.18392","27.163","5.823","7.64","0.413","7.507","0.06","0.74","29.537","4.69113","60.85","0","SATNPRO1509","32.028","0.4486","5"],
    [52963,"HCEP03730542","2025-04-01 23:00:00","8.9347","3.18426","27.12","5.834","7.64","0.475","9.032","0.07","1.12","29.5412","4.69174","60.97","0","SATNPRO1509","31.94","0.4474","5"],
    [52964,"HCEP03730542","2025-04-01 23:15:00","8.9335","3.1844","27.026","5.832","7.64","0.394","7.474","0.06","0.79","29.5436","4.69211","60.94","0","SATNPRO1509","31.868000000000002","0.44634","5"],
    [52965,"HCEP03730542","2025-04-01 23:30:00","8.9327","3.1847","26.933","5.844","7.64","0.485","8.498","0.08","1.45","29.5474","4.69266","61.07","0","SATNPRO1509","32.007999999999996","0.44832","5"],
    [52966,"HCEP03730542","2025-04-01 23:45:00","8.9325","3.18504","26.831","5.846","7.65","0.39","8.078","0.04","0.64","29.5511","4.6932","61.1","0","SATNPRO1509","31.94","0.44736","5"],
    [52967,"HCEP03730542","2025-04-02 00:00:00","8.9322","3.18537","26.729","5.846","7.65","0.411","7.392","0.05","1.01","29.5549","4.69373","61.1","0","SATNPRO1509","31.994","0.4481","5"],
    [52968,"HCEP03730542","2025-04-02 00:15:00","8.9317","3.18561","26.659","5.844","7.65","0.626","7.219","0.24","1.98","29.5577","4.69415","61.08","0","SATNPRO1509","31.884","0.44656","5"],
    [52969,"HCEP03730542","2025-04-02 00:30:00","8.9308","3.18581","26.574","5.842","7.65","0.404","8.666","0.04","1.3","29.5606","4.69457","61.05","0","SATNPRO1509","31.990000000000002","0.44808","5"],
    [52970,"HCEP03730542","2025-04-02 00:45:00","8.9315","3.18537","26.514","5.853","7.65","0.423","6.173","0.05","1.14","29.5556","4.69383","61.16","0","SATNPRO1509","31.971999999999998","0.44782","5"],
    [52971,"HCEP03730542","2025-04-02 01:00:00","8.935","3.18498","26.472","5.86","7.65","0.429","7.598","0.07","1.61","29.5486","4.69276","61.24","0","SATNPRO1509","32.102000000000004","0.4496","5"],
    [52972,"HCEP03730542","2025-04-02 01:15:00","8.944","3.18384","26.444","5.833","7.64","0.321","3.6","0.04","0.16","29.5294","4.68984","60.96","0","SATNPRO1509","32.122","0.44996","5"],
    [52973,"HCEP03730542","2025-04-02 01:30:00","8.9324","3.18568","26.428","5.782","7.64","0.333","6.016","0.02","0.26","29.5579","4.69415","60.43","0","SATNPRO1509","32.208","0.45112","5"],
    [52974,"HCEP03730542","2025-04-02 01:45:00","8.9341","3.18536","26.445","5.83","7.64","0.331","6.001","0.02","0.27","29.5533","4.69345","60.93","0","SATNPRO1509","32.06","0.4491","5"],
    [52975,"HCEP03730542","2025-04-02 02:00:00","8.9365","3.18499","26.472","5.823","7.64","0.352","6.893","0.05","1.18","29.5475","4.69258","60.86","0","SATNPRO1509","31.958000000000002","0.44762","5"],
    [52976,"HCEP03730542","2025-04-02 02:15:00","8.9308","3.1858","26.512","5.82","7.64","0.346","6.549","0.04","0.57","29.5604","4.69454","60.82","0","SATNPRO1509","32.038","0.44872","5"],
    [52977,"HCEP03730542","2025-04-02 02:30:00","8.9323","3.18576","26.592","5.847","7.65","0.335","6.226","0.03","0.42","29.5588","4.69428","61.11","0","SATNPRO1509","32.134","0.45014","5"],
    [52978,"HCEP03730542","2025-04-02 02:45:00","8.9279","3.18711","26.661","5.848","7.65","0.342","5.686","0.08","0.31","29.5763","4.69689","61.11","0","SATNPRO1509","32.072","0.4492","5"],
    [52979,"HCEP03730542","2025-04-02 03:00:00","8.9273","3.18744","26.75","5.851","7.65","0.343","6.623","0.04","0.37","29.5802","4.69746","61.15","0","SATNPRO1509","31.958","0.44766","5"],
    [52980,"HCEP03730542","2025-04-02 03:15:00","8.9266","3.18767","26.86","5.853","7.65","0.402","7.933","0.29","0.84","29.5831","4.6979","61.17","0","SATNPRO1509","32.038","0.44878","5"],
    [52981,"HCEP03730542","2025-04-02 03:30:00","8.927","3.1877","26.922","5.849","7.65","0.354","7.925","0.03","0.31","29.583","4.69788","61.13","0","SATNPRO1509","32.014","0.4484","5"],
    [52982,"HCEP03730542","2025-04-02 03:45:00","8.9264","3.18773","27.015","5.848","7.65","0.371","7.562","0.08","0.41","29.5839","4.69802","61.13","0","SATNPRO1509","31.992","0.4481","5"],
    [52983,"HCEP03730542","2025-04-02 04:00:00","8.9243","3.18806","27.119","5.853","7.65","0.338","7.022","0.04","0.51","29.5889","4.69879","61.17","0","SATNPRO1509","31.974","0.44786","5"],
    [52984,"HCEP03730542","2025-04-02 04:15:00","8.9229","3.18815","27.214","5.872","7.65","0.34","6.845","0.04","0.42","29.591","4.69912","61.37","0","SATNPRO1509","31.919999999999998","0.4471","5"],
    [52985,"HCEP03730542","2025-04-02 04:30:00","8.9217","3.18814","27.322","5.891","7.65","0.379","7.176","0.07","1.13","29.5918","4.69927","61.56","0","SATNPRO1509","32.024","0.44854","5"],
    [52986,"HCEP03730542","2025-04-02 04:45:00","8.9217","3.18761","27.381","5.907","7.65","0.353","5.87","0.05","0.29","29.5862","4.69847","61.73","0","SATNPRO1509","32.112","0.44978","5"],
    [52987,"HCEP03730542","2025-04-02 05:00:00","8.9228","3.18683","27.588","5.927","7.65","0.373","5.118","0.1","0.33","29.5773","4.69719","61.94","0","SATNPRO1509","32.014","0.4484","5"],
    [52988,"HCEP03730542","2025-04-02 05:15:00","8.9228","3.18718","27.767","5.936","7.65","3.155","50.495","3.37","32.05","29.5808","4.6977","62.03","0","SATNPRO1509","31.94","0.44738","5"],
    [52989,"HCEP03730542","2025-04-02 05:30:00","8.9235","3.18735","27.822","5.932","7.65","0.372","7.327","0.04","1.03","29.5819","4.69784","61.99","0","SATNPRO1509","32.142","0.45018","5"],
    [52990,"HCEP03730542","2025-04-02 05:45:00","8.9269","3.18754","28.023","5.903","7.65","0.35","8.488","0.03","0.5","29.5811","4.69767","61.69","0","SATNPRO1509","31.88","0.44654","5"],
    [52991,"HCEP03730542","2025-04-02 06:00:00","8.9271","3.18782","28.146","5.842","7.65","0.394","9.58","0.04","0.94","29.5836","4.69804","61.06","0","SATNPRO1509","32.002","0.44822","5"],
    [52992,"HCEP03730542","2025-04-02 06:15:00","8.9243","3.18836","28.113","5.834","7.65","0.403","7.535","0.1","0.82","29.5915","4.69923","60.98","0","SATNPRO1509","32.19","0.45092","5"],
    [52993,"HCEP03730542","2025-04-02 06:30:00","8.9249","3.18848","27.908","5.872","7.65","0.404","7.089","0.11","0.89","29.5923","4.69932","61.37","0","SATNPRO1509","32.216","0.45126","5"],
    [52994,"HCEP03730542","2025-04-02 06:45:00","8.9256","3.18835","28.065","5.856","7.65","0.343","6.133","0.05","0.25","29.5904","4.69904","61.2","0","SATNPRO1509","32.162","0.45048","5"],
    [52995,"HCEP03730542","2025-04-02 07:00:00","8.9267","3.18817","28.158","5.843","7.65","0.396","6.002","0.07","0.29","29.5876","4.69862","61.07","0","SATNPRO1509","32.114","0.44982","5"],
    [52996,"HCEP03730542","2025-04-02 07:15:00","8.9267","3.18811","28.091","5.837","7.65","0.33","5.444","0.03","0.2","29.587","4.69853","61.01","0","SATNPRO1509","32.154","0.45038","5"],
    [52997,"HCEP03730542","2025-04-02 07:30:00","8.9275","3.18781","28.023","5.835","7.64","0.345","5.787","0.04","0.33","29.5833","4.69799","60.98","0","SATNPRO1509","32.194","0.45088","5"],
    [52998,"HCEP03730542","2025-04-02 07:45:00","8.9287","3.18769","27.789","5.82","7.64","0.366","6.621","0.05","0.33","29.5811","4.69763","60.83","0","SATNPRO1509","32.064","0.44912","5"],
    [52999,"HCEP03730542","2025-04-02 08:00:00","8.9314","3.18713","27.733","5.802","7.64","0.347","6.909","0.02","0.23","29.5732","4.69643","60.65","0","SATNPRO1509","31.994","0.44812","5"],
    [53000,"HCEP03730542","2025-04-02 08:15:00","8.9333","3.18652","27.731","5.773","7.64","0.36","5.975","0.06","0.39","29.5653","4.69527","60.34","0","SATNPRO1509","32.014","0.4484","5"],
    [53001,"HCEP03730542","2025-04-02 08:30:00","8.9329","3.18663","27.715","5.77","7.64","0.367","6.057","0.07","0.26","29.5668","4.69549","60.31","0","SATNPRO1509","32.002","0.44824","5"],
    [53002,"HCEP03730542","2025-04-02 08:45:00","8.9331","3.18644","27.551","5.756","7.64","0.361","6.408","0.03","0.28","29.5648","4.69519","60.17","0","SATNPRO1509","32.158","0.45044","5"],
    [53003,"HCEP03730542","2025-04-02 09:00:00","8.933","3.18647","27.382","5.756","7.64","0.372","7.133","0.03","0.57","29.5652","4.69524","60.16","0","SATNPRO1509","31.944","0.44742","5"],
    [53004,"HCEP03730542","2025-04-02 09:15:00","8.9338","3.18598","27.192","5.761","7.64","0.359","6.346","0.03","0.39","29.5596","4.6944","60.21","0","SATNPRO1509","32.199999999999996","0.45098","5"],
    [53005,"HCEP03730542","2025-04-02 09:30:00","8.937","3.18531","26.938","5.764","7.64","0.357","6.468","0.03","0.36","29.5501","4.69297","60.24","0","SATNPRO1509","32.094","0.44952","5"],
    [53006,"HCEP03730542","2025-04-02 09:45:00","8.9405","3.18425","26.713","5.74","7.64","0.361","6.456","0.04","0.41","29.5364","4.69092","59.99","0","SATNPRO1509","32.268","0.45196","5"],
    [53007,"HCEP03730542","2025-04-02 10:00:00","8.9462","3.18298","26.33","5.714","7.63","6.225","41.7","4.88","29.77","29.5189","4.68827","59.72","0","SATNPRO1509","32.052","0.44896","5"],
    [53008,"HCEP03730542","2025-04-02 10:15:00","8.9485","3.18239","26.091","5.665","7.63","0.343","6.183","0.03","0.48","29.511","4.68709","59.21","0","SATNPRO1509","32.068","0.44916","5"],
    [53009,"HCEP03730542","2025-04-02 10:30:00","8.9494","3.18179","25.89","5.648","7.63","0.335","6.094","0.02","0.3","29.5042","4.68608","59.03","0","SATNPRO1509","32.084","0.4494","5"],
    [53010,"HCEP03730542","2025-04-02 10:45:00","8.9526","3.18055","25.599","5.649","7.63","0.342","5.786","0.03","0.27","29.4889","4.68381","59.04","0","SATNPRO1509","32.034","0.44868","5"],
    [53011,"HCEP03730542","2025-04-02 11:00:00","8.9568","3.17944","25.293","5.628","7.63","0.367","5.729","0.03","0.27","29.4742","4.6816","58.82","0","SATNPRO1509","32.008","0.44832","5"],
    [53012,"HCEP03730542","2025-04-02 11:15:00","8.9597","3.17863","24.949","5.58","7.62","0.408","5.936","0.05","0.48","29.4637","4.68001","58.32","0","SATNPRO1509","31.919999999999998","0.4471","5"],
    [53013,"HCEP03730542","2025-04-02 11:30:00","8.9622","3.17798","24.704","5.541","7.62","0.381","5.833","0.05","0.18","29.4549","4.6787","57.91","0","SATNPRO1509","31.887999999999998","0.44664","5"],
    [53014,"HCEP03730542","2025-04-02 11:45:00","8.9638","3.17745","24.558","5.518","7.62","0.388","5.927","0.05","0.44","29.4483","4.6777","57.67","0","SATNPRO1509","31.913999999999998","0.447","5"],
    [53015,"HCEP03730542","2025-04-02 12:00:00","8.9648","3.17715","24.382","5.502","7.62","0.411","5.536","0.06","0.5","29.4444","4.67712","57.5","0","SATNPRO1509","31.916","0.44706","5"],
    [53016,"HCEP03730542","2025-04-02 12:15:00","8.9654","3.17707","24.191","5.488","7.62","0.44","5.422","0.09","0.38","29.4432","4.67692","57.35","0","SATNPRO1509","32.007999999999996","0.44828","5"],
    [53017,"HCEP03730542","2025-04-02 12:30:00","8.964","3.17723","24.071","5.482","7.62","0.377","5.884","0.03","0.54","29.4461","4.67736","57.29","0","SATNPRO1509","31.744","0.44466","5"],
    [53018,"HCEP03730542","2025-04-02 12:45:00","8.9626","3.17764","23.928","5.497","7.62","0.4","6.096","0.04","0.39","29.4514","4.67814","57.45","0","SATNPRO1509","31.982","0.44796","5"],
    [53019,"HCEP03730542","2025-04-02 13:00:00","8.9614","3.17804","23.833","5.507","7.62","0.397","6.112","0.05","0.38","29.4566","4.6789","57.55","0","SATNPRO1509","31.852","0.44614","5"],
    [53020,"HCEP03730542","2025-04-02 13:15:00","8.9601","3.17837","23.779","5.521","7.62","0.391","6.171","0.06","0.5","29.4612","4.67957","57.7","0","SATNPRO1509","31.724","0.44436","5"],
    [53021,"HCEP03730542","2025-04-02 13:30:00","8.9592","3.17872","23.794","5.532","7.62","0.376","5.994","0.04","0.39","29.4654","4.6802","57.82","0","SATNPRO1509","31.794","0.44532","5"],
    [53022,"HCEP03730542","2025-04-02 13:45:00","8.9581","3.17911","23.854","5.549","7.62","0.389","5.731","0.1","0.42","29.4703","4.68093","57.99","0","SATNPRO1509","31.81","0.44556","5"],
    [53023,"HCEP03730542","2025-04-02 14:00:00","8.9575","3.17929","23.931","5.551","7.62","0.407","6.039","0.11","0.41","29.4726","4.68127","58.01","0","SATNPRO1509","32.153999999999996","0.45042","5"],
    [53024,"HCEP03730542","2025-04-02 14:15:00","8.9573","3.17902","24.034","5.563","7.62","0.365","4.849","0.05","0.73","29.4699","4.68091","58.14","0","SATNPRO1509","32.064","0.4491","5"],
    [53025,"HCEP03730542","2025-04-02 14:30:00","8.9548","3.17934","24.048","5.583","7.62","0.376","4.779","0.1","0.26","29.4753","4.68172","58.35","0","SATNPRO1509","31.86","0.44626","5"],
    [53026,"HCEP03730542","2025-04-02 14:45:00","8.9538","3.17923","24.135","5.604","7.62","0.446","10.8","0.12","7.19","29.475","4.6817","58.57","0","SATNPRO1509","32.022","0.4485","5"],
    [53027,"HCEP03730542","2025-04-02 15:00:00","8.9526","3.179","24.258","5.613","7.63","0.367","5.206","0.04","0.27","29.4736","4.68153","58.66","0","SATNPRO1509","31.958000000000002","0.44762","5"],
    [53028,"HCEP03730542","2025-04-02 15:15:00","8.9544","3.17889","24.375","5.624","7.63","0.39","5.401","0.06","0.26","29.4709","4.68112","58.77","0","SATNPRO1509","31.971999999999998","0.44782","5"],
    [53029,"HCEP03730542","2025-04-02 15:30:00","8.9548","3.17883","24.51","5.618","7.62","0.365","5.558","0.05","0.21","29.4699","4.68097","58.71","0","SATNPRO1509","31.982","0.44792","5"],
    [53030,"HCEP03730542","2025-04-02 15:45:00","8.9549","3.17888","24.675","5.61","7.62","0.355","5.2","0.04","0.27","29.4703","4.68103","58.63","0","SATNPRO1509","31.976","0.44792","5"],
    [53031,"HCEP03730542","2025-04-02 16:00:00","8.9524","3.17782","24.831","5.614","7.63","0.408","5.23","0.06","0.28","29.4614","4.67981","58.66","0","SATNPRO1509","31.946","0.4475","5"],
    [53032,"HCEP03730542","2025-04-02 16:15:00","8.9483","3.17624","25.036","5.657","7.63","0.36","5.05","0.03","0.25","29.4485","4.67805","59.1","0","SATNPRO1509","31.816","0.44566","5"],
    [53033,"HCEP03730542","2025-04-02 16:30:00","8.9479","3.1756","25.251","5.722","7.63","0.435","5.88","0.04","1.02","29.4422","4.67717","59.78","0","SATNPRO1509","31.812","0.44562","5"],
    [53034,"HCEP03730542","2025-04-02 16:45:00","8.9523","3.1756","25.446","5.74","7.63","0.344","4.702","0.02","0.25","29.4385","4.67657","59.97","0","SATNPRO1509","31.86","0.44624","5"],
    [53035,"HCEP03730542","2025-04-02 17:00:00","8.9567","3.17649","25.641","5.699","7.63","0.882","21.503","0.92","22.08","29.4439","4.67727","59.55","0","SATNPRO1509","31.806","0.44556","5"],
    [53036,"HCEP03730542","2025-04-02 17:15:00","8.9608","3.1766","25.858","5.629","7.63","0.367","6.038","0.04","0.46","29.4415","4.67687","58.82","0","SATNPRO1509","31.884","0.44662","5"],
    [53037,"HCEP03730542","2025-04-02 17:30:00","8.9624","3.17672","26.067","5.577","7.62","0.402","6.305","0.07","0.41","29.4413","4.67682","58.28","0","SATNPRO1509","31.742","0.44462","5"],
    [53038,"HCEP03730542","2025-04-02 17:45:00","8.9626","3.17758","26.318","5.533","7.62","0.389","6.957","0.06","0.36","29.4498","4.67805","57.82","0","SATNPRO1509","31.942","0.4474","5"],
    [53039,"HCEP03730542","2025-04-02 18:00:00","8.9637","3.17784","26.587","5.508","7.62","0.442","7.797","0.04","0.5","29.4516","4.67829","57.57","0","SATNPRO1509","31.812","0.44558","5"],
    [53040,"HCEP03730542","2025-04-02 18:15:00","8.9638","3.17778","26.783","5.481","7.61","0.423","7.605","0.05","1.35","29.4507","4.67818","57.28","0","SATNPRO1509","31.887999999999998","0.44664","5"],
    [53041,"HCEP03730542","2025-04-02 18:30:00","8.9661","3.17742","26.948","5.463","7.61","0.447","7.231","0.05","0.74","29.4451","4.67735","57.1","0","SATNPRO1509","31.874","0.44644","5"],
    [53042,"HCEP03730542","2025-04-02 18:45:00","8.9599","3.17858","27.101","5.462","7.61","0.405","8.642","0.04","0.93","29.462","4.6799","57.08","0","SATNPRO1509","31.762","0.44488","5"],
    [53043,"HCEP03730542","2025-04-02 19:00:00","8.96","3.17843","27.26","5.509","7.62","0.38","7.303","0.03","0.8","29.4604","4.67967","57.57","0","SATNPRO1509","31.887999999999998","0.44668","5"],
    [53044,"HCEP03730542","2025-04-02 19:15:00","8.9552","3.17908","27.427","5.53","7.62","0.384","7.779","0.03","0.41","29.4709","4.68127","57.8","0","SATNPRO1509","31.736","0.44452","5"],
    [53045,"HCEP03730542","2025-04-02 19:30:00","8.9546","3.17898","27.547","5.563","7.62","0.389","6.779","0.04","0.78","29.4704","4.68122","58.14","0","SATNPRO1509","31.778","0.44514","5"],
    [53046,"HCEP03730542","2025-04-02 19:45:00","8.9554","3.17892","27.694","5.571","7.62","0.357","6.113","0.03","0.35","29.469","4.68102","58.22","0","SATNPRO1509","31.846","0.44606","5"],
    [53047,"HCEP03730542","2025-04-02 20:00:00","8.9528","3.17937","27.673","5.571","7.62","0.393","7.487","0.04","0.54","29.4757","4.68203","58.22","0","SATNPRO1509","31.812","0.44558","5"],
    [53048,"HCEP03730542","2025-04-02 20:15:00","8.9515","3.17956","27.693","5.571","7.62","0.379","7.351","0.04","0.39","29.4788","4.6825","58.22","0","SATNPRO1509","31.744","0.44462","5"],
    [53049,"HCEP03730542","2025-04-02 20:30:00","8.9544","3.17897","27.734","5.58","7.62","0.373","6.211","0.03","0.3","29.4704","4.68124","58.31","0","SATNPRO1509","31.952","0.44756","5"],
    [53050,"HCEP03730542","2025-04-02 20:45:00","8.9581","3.1783","27.725","5.575","7.62","0.369","5.554","0.06","0.37","29.4604","4.67974","58.27","0","SATNPRO1509","31.998","0.4482","5"],
    [53051,"HCEP03730542","2025-04-02 21:00:00","8.9627","3.17791","27.747","5.542","7.62","0.376","5.208","0.05","0.33","29.4526","4.67852","57.92","0","SATNPRO1509","31.938000000000002","0.44736","5"],
    [53052,"HCEP03730542","2025-04-02 21:15:00","8.9528","3.17754","27.714","5.53","7.62","0.352","4.952","0.04","0.72","29.457","4.67936","57.79","0","SATNPRO1509","31.96","0.44764","5"],
    [53053,"HCEP03730542","2025-04-02 21:30:00","8.9467","3.17823","27.679","5.627","7.63","0.362","5.608","0.04","0.36","29.4691","4.6812","58.79","0","SATNPRO1509","31.818","0.44566","5"],
    [53054,"HCEP03730542","2025-04-02 21:45:00","8.9425","3.17871","27.698","5.682","7.63","0.363","7.103","0.03","0.47","29.4775","4.68248","59.37","0","SATNPRO1509","31.748","0.44472","5"],
    [53055,"HCEP03730542","2025-04-02 22:00:00","8.9396","3.17859","27.696","5.721","7.63","0.398","7.239","0.05","3","29.4787","4.68271","59.77","0","SATNPRO1509","31.881999999999998","0.44658","5"],
    [53056,"HCEP03730542","2025-04-02 22:15:00","8.9371","3.17797","27.682","5.758","7.64","0.758","7.762","0.2","0.53","29.4745","4.68215","60.15","0","SATNPRO1509","31.91","0.44696","5"],
    [53057,"HCEP03730542","2025-04-02 22:30:00","8.937","3.1788","27.65","5.799","7.64","1.761","80.89","1.74","5.55","29.4831","4.68339","60.59","0","SATNPRO1509","31.830000000000002","0.44586","5"],
    [53058,"HCEP03730542","2025-04-02 22:45:00","8.9373","3.17955","27.623","5.793","7.64","4.073","112.639","1.75","24.46","29.4905","4.68445","60.52","0","SATNPRO1509","31.682","0.44374","5"],
    [53059,"HCEP03730542","2025-04-02 23:00:00","8.9374","3.17974","27.56","5.773","7.64","11.442","512.094","5.23","192.2","29.4924","4.68471","60.32","0","SATNPRO1509","31.689999999999998","0.44386","5"],
    [53060,"HCEP03730542","2025-04-02 23:15:00","8.938","3.18025","27.499","5.764","7.64","10.227","545.573","4.01","158.46","29.4972","4.68538","60.22","0","SATNPRO1509","31.724","0.44436","5"],
    [53061,"HCEP03730542","2025-04-02 23:30:00","8.9397","3.18084","27.421","5.74","7.63","0.361","7.828","0.02","0.3","29.5018","4.68601","59.97","0","SATNPRO1509","31.654","0.44336","5"],
    [53062,"HCEP03730542","2025-04-02 23:45:00","8.9398","3.18065","27.345","5.716","7.63","0.367","8.014","0.03","0.9","29.4999","4.68573","59.73","0","SATNPRO1509","31.740000000000002","0.44454","5"],
    [53063,"HCEP03730542","2025-04-03 00:00:00","8.9383","3.17929","27.275","5.719","7.64","0.366","7.492","0.04","1.18","29.4871","4.68392","59.75","0","SATNPRO1509","31.76","0.44486","5"],
    [53064,"HCEP03730542","2025-04-03 00:15:00","8.9378","3.17758","27.215","5.762","7.64","0.367","6.888","0.04","0.98","29.4701","4.68148","60.2","0","SATNPRO1509","31.848","0.44608","5"],
    [53065,"HCEP03730542","2025-04-03 00:30:00","8.9377","3.17661","27.141","5.813","7.64","0.369","6.642","0.03","0.72","29.4602","4.68006","60.72","0","SATNPRO1509","31.962","0.44766","5"],
    [53066,"HCEP03730542","2025-04-03 00:45:00","8.9375","3.17633","27.079","5.844","7.64","0.368","6.242","0.08","0.62","29.4576","4.67968","61.05","0","SATNPRO1509","31.945999999999998","0.44746","5"],
    [53067,"HCEP03730542","2025-04-03 01:00:00","8.9377","3.17646","27.017","5.85","7.64","0.366","6.004","0.05","0.47","29.4587","4.67984","61.11","0","SATNPRO1509","31.83","0.44584","5"],
    [53068,"HCEP03730542","2025-04-03 01:15:00","8.938","3.17698","26.942","5.849","7.64","0.386","6.057","0.17","0.4","29.4638","4.68057","61.1","0","SATNPRO1509","31.868000000000002","0.44636","5"],
    [53069,"HCEP03730542","2025-04-03 01:30:00","8.9374","3.17784","26.877","5.839","7.64","0.362","6.12","0.04","0.34","29.4732","4.68192","61","0","SATNPRO1509","31.836000000000002","0.44588","5"],
    [53070,"HCEP03730542","2025-04-03 01:45:00","8.9377","3.17924","26.821","5.82","7.64","0.357","6.273","0.05","0.32","29.4874","4.68394","60.81","0","SATNPRO1509","31.876","0.44648","5"],
    [53071,"HCEP03730542","2025-04-03 02:00:00","8.9396","3.18065","26.782","5.787","7.64","0.385","6.892","0.05","0.32","29.5002","4.68574","60.47","0","SATNPRO1509","32.056","0.44902","5"],
    [53072,"HCEP03730542","2025-04-03 02:15:00","8.9405","3.18182","26.754","5.743","7.63","0.381","6.144","0.06","0.46","29.5115","4.68734","60.02","0","SATNPRO1509","31.876","0.44646","5"],
    [53073,"HCEP03730542","2025-04-03 02:30:00","8.9408","3.18218","26.759","5.699","7.63","0.38","6.623","0.07","0.36","29.515","4.68784","59.56","0","SATNPRO1509","31.95","0.4475","5"],
    [53074,"HCEP03730542","2025-04-03 02:45:00","8.9406","3.18242","26.769","5.672","7.63","0.35","5.899","0.05","0.21","29.5176","4.68823","59.28","0","SATNPRO1509","32.104","0.44968","5"],
    [53075,"HCEP03730542","2025-04-03 03:00:00","8.9402","3.1825","26.793","5.662","7.63","0.37","5.672","0.09","0.45","29.5187","4.68839","59.17","0","SATNPRO1509","32.205999999999996","0.4511","5"],
    [53076,"HCEP03730542","2025-04-03 03:15:00","8.9397","3.18254","26.82","5.669","7.63","0.349","5.16","0.04","0.44","29.5195","4.68852","59.24","0","SATNPRO1509","31.836","0.44592","5"],
    [53077,"HCEP03730542","2025-04-03 03:30:00","8.9388","3.18248","26.847","5.684","7.63","0.365","5.655","0.07","0.42","29.5197","4.68856","59.4","0","SATNPRO1509","31.997999999999998","0.4482","5"],
    [53078,"HCEP03730542","2025-04-03 03:45:00","8.9378","3.18249","26.881","5.699","7.63","0.354","5.42","0.1","0.35","29.5206","4.68871","59.55","0","SATNPRO1509","31.98","0.44796","5"],
    [53079,"HCEP03730542","2025-04-03 04:00:00","8.9359","3.1825","26.927","5.708","7.63","0.331","4.869","0.04","0.35","29.5223","4.68899","59.65","0","SATNPRO1509","32.006","0.44828","5"],
    [53080,"HCEP03730542","2025-04-03 04:15:00","8.935","3.18258","26.986","5.73","7.64","0.342","5.39","0.07","0.31","29.5237","4.68923","59.87","0","SATNPRO1509","32","0.44822","5"],
    [53081,"HCEP03730542","2025-04-03 04:30:00","8.9342","3.18263","27.041","5.746","7.64","0.353","5.706","0.05","0.3","29.5249","4.68941","60.04","0","SATNPRO1509","32.028","0.4486","5"],
    [53082,"HCEP03730542","2025-04-03 04:45:00","8.9333","3.1826","27.117","5.759","7.64","0.391","5.549","0.09","0.34","29.5253","4.68949","60.17","0","SATNPRO1509","32.028","0.4486","5"],
    [53083,"HCEP03730542","2025-04-03 05:00:00","8.9328","3.18256","27.183","5.77","7.64","0.32","5.01","0.04","0.34","29.5253","4.6895","60.29","0","SATNPRO1509","32.23","0.45148","5"],
    [53084,"HCEP03730542","2025-04-03 05:15:00","8.9326","3.18261","27.252","5.787","7.64","0.325","5.691","0.03","0.84","29.526","4.68961","60.47","0","SATNPRO1509","32.102","0.44966","5"],
    [53085,"HCEP03730542","2025-04-03 05:30:00","8.9325","3.18268","27.318","5.789","7.64","0.344","4.973","0.1","0.37","29.5267","4.68972","60.49","0","SATNPRO1509","31.99","0.44806","5"],
    [53086,"HCEP03730542","2025-04-03 05:45:00","8.9324","3.18271","27.396","5.797","7.64","0.341","4.848","0.09","0.39","29.5272","4.68979","60.58","0","SATNPRO1509","32.108","0.44968","5"],
    [53087,"HCEP03730542","2025-04-03 06:00:00","8.932","3.18274","27.474","5.805","7.64","0.415","4.793","0.1","0.66","29.5277","4.68988","60.65","0","SATNPRO1509","32.126","0.44996","5"],
    [53088,"HCEP03730542","2025-04-03 06:15:00","8.9326","3.18269","27.502","5.807","7.64","0.379","5.81","0.07","1.13","29.5267","4.68973","60.68","0","SATNPRO1509","32.168","0.45054","5"],
    [53089,"HCEP03730542","2025-04-03 06:30:00","8.932","3.1826","27.55","5.802","7.64","0.349","4.703","0.04","0.42","29.5262","4.68966","60.62","0","SATNPRO1509","32.102","0.44964","5"],
    [53090,"HCEP03730542","2025-04-03 06:45:00","8.9333","3.18253","27.599","5.805","7.64","0.346","5.286","0.05","0.21","29.5244","4.68939","60.66","0","SATNPRO1509","32.019999999999996","0.44848","5"],
    [53091,"HCEP03730542","2025-04-03 07:00:00","8.9338","3.18239","27.596","5.785","7.64","0.373","5.31","0.04","0.31","29.5225","4.6891","60.45","0","SATNPRO1509","32.046","0.44886","5"],
    [53092,"HCEP03730542","2025-04-03 07:15:00","8.9348","3.18246","27.621","5.776","7.64","0.343","5.95","0.06","0.35","29.5225","4.68909","60.35","0","SATNPRO1509","31.912","0.44696","5"],
    [53093,"HCEP03730542","2025-04-03 07:30:00","8.9353","3.18236","27.621","5.751","7.64","0.337","5.584","0.02","0.28","29.521","4.68886","60.1","0","SATNPRO1509","31.982","0.44798","5"],
    [53094,"HCEP03730542","2025-04-03 07:45:00","8.9363","3.18241","27.606","5.741","7.64","0.355","6.02","0.03","0.21","29.5207","4.6888","59.99","0","SATNPRO1509","31.977999999999998","0.44792","5"],
    [53095,"HCEP03730542","2025-04-03 08:00:00","8.9367","3.18218","27.587","5.728","7.63","0.342","5.314","0.03","0.22","29.518","4.6884","59.85","0","SATNPRO1509","31.876","0.44646","5"],
    [53096,"HCEP03730542","2025-04-03 08:15:00","8.9387","3.18176","27.526","5.723","7.63","0.408","5.644","0.05","0.51","29.5121","4.68751","59.8","0","SATNPRO1509","31.982","0.44794","5"],
    [53097,"HCEP03730542","2025-04-03 08:30:00","8.9411","3.18163","27.458","5.706","7.63","0.36","6.253","0.04","0.33","29.5087","4.68698","59.63","0","SATNPRO1509","31.722","0.44432","5"],
    [53098,"HCEP03730542","2025-04-03 08:45:00","8.9431","3.1815","27.38","5.661","7.63","0.356","6.409","0.04","0.27","29.5058","4.68652","59.16","0","SATNPRO1509","31.696","0.44398","5"],
    [53099,"HCEP03730542","2025-04-03 09:00:00","8.946","3.18112","27.297","5.611","7.62","0.366","6.503","0.04","0.37","29.4996","4.68557","58.64","0","SATNPRO1509","31.828","0.44582","5"],
    [53100,"HCEP03730542","2025-04-03 09:15:00","8.9478","3.18076","27.196","5.566","7.62","0.37","6.096","0.04","0.3","29.4944","4.68478","58.17","0","SATNPRO1509","31.78","0.44514","5"],
    [53101,"HCEP03730542","2025-04-03 09:30:00","8.9471","3.18053","27.089","5.568","7.62","0.364","5.682","0.03","0.84","29.4926","4.68453","58.19","0","SATNPRO1509","32.004","0.44824","5"],
    [53102,"HCEP03730542","2025-04-03 09:45:00","8.9467","3.18083","26.979","5.595","7.62","0.372","5.447","0.04","0.24","29.4962","4.68504","58.47","0","SATNPRO1509","32.004","0.44824","5"],
    [53103,"HCEP03730542","2025-04-03 10:00:00","8.946","3.18111","26.881","5.609","7.62","0.359","5.501","0.04","0.29","29.4996","4.68554","58.62","0","SATNPRO1509","32.024","0.44856","5"],
    [53104,"HCEP03730542","2025-04-03 10:15:00","8.945","3.18154","26.747","5.618","7.63","0.338","5.424","0.02","0.21","29.5049","4.68632","58.71","0","SATNPRO1509","32.058","0.44906","5"],
    [53105,"HCEP03730542","2025-04-03 10:30:00","8.9444","3.1817","26.575","5.631","7.63","0.357","5.345","0.02","0.29","29.5072","4.68664","58.84","0","SATNPRO1509","32.112","0.44974","5"],
    [53106,"HCEP03730542","2025-04-03 10:45:00","8.9445","3.18182","26.352","5.642","7.63","0.327","5.347","0.02","0.28","29.5084","4.6868","58.96","0","SATNPRO1509","32.122","0.44992","5"],
    [53107,"HCEP03730542","2025-04-03 11:00:00","8.9441","3.18184","26.111","5.643","7.63","0.338","5.371","0.03","0.24","29.509","4.68688","58.97","0","SATNPRO1509","32.158","0.4504","5"],
    [53108,"HCEP03730542","2025-04-03 11:15:00","8.9442","3.1817","25.874","5.653","7.63","0.364","5.566","0.08","0.4","29.5075","4.68666","59.08","0","SATNPRO1509","32.117999999999995","0.44992","5"],
    [53109,"HCEP03730542","2025-04-03 11:30:00","8.9452","3.1807","25.604","5.651","7.63","0.37","5.878","0.02","0.26","29.4966","4.68506","59.05","0","SATNPRO1509","32.084","0.44942","5"],
    [53110,"HCEP03730542","2025-04-03 11:45:00","8.9463","3.17976","25.343","5.654","7.63","0.365","5.996","0.03","0.32","29.4862","4.68352","59.08","0","SATNPRO1509","32.114","0.4498","5"],
    [53111,"HCEP03730542","2025-04-03 12:00:00","8.9476","3.17888","25.017","5.655","7.63","0.4","6.389","0.06","0.63","29.4762","4.68204","59.09","0","SATNPRO1509","31.972","0.44784","5"],
    [53112,"HCEP03730542","2025-04-03 12:15:00","8.9485","3.17874","24.853","5.653","7.63","0.409","6.172","0.03","0.36","29.4741","4.68172","59.08","0","SATNPRO1509","32.01","0.44836","5"],
    [53113,"HCEP03730542","2025-04-03 12:30:00","8.9486","3.17908","24.722","5.641","7.63","0.375","5.998","0.04","0.62","29.4775","4.6822","58.95","0","SATNPRO1509","32.092","0.4495","5"],
    [53114,"HCEP03730542","2025-04-03 12:45:00","8.949","3.1789","24.501","5.628","7.63","0.345","5.361","0.03","0.27","29.4755","4.68188","58.81","0","SATNPRO1509","32.004","0.44826","5"],
    [53115,"HCEP03730542","2025-04-03 13:00:00","8.9493","3.17866","24.247","5.622","7.63","0.381","5.456","0.08","0.27","29.4729","4.68148","58.75","0","SATNPRO1509","31.942","0.44742","5"],
    [53116,"HCEP03730542","2025-04-03 13:15:00","8.9499","3.17845","24.136","5.616","7.62","0.36","5.316","0.04","0.24","29.4702","4.68109","58.69","0","SATNPRO1509","31.944","0.4475","5"],
    [53117,"HCEP03730542","2025-04-03 13:30:00","8.95","3.1784","24.039","5.609","7.62","0.358","5.428","0.05","0.4","29.4697","4.681","58.61","0","SATNPRO1509","31.632","0.44304","5"],
    [53118,"HCEP03730542","2025-04-03 13:45:00","8.9504","3.17887","23.96","5.605","7.62","0.366","5.276","0.07","0.35","29.4742","4.68164","58.57","0","SATNPRO1509","31.986","0.44802","5"],
    [53119,"HCEP03730542","2025-04-03 14:00:00","8.9505","3.17912","23.911","5.586","7.62","0.372","5.212","0.07","0.43","29.4767","4.682","58.37","0","SATNPRO1509","31.898","0.44678","5"],
    [53120,"HCEP03730542","2025-04-03 14:15:00","8.9506","3.17917","23.898","5.572","7.62","0.36","5.136","0.08","0.57","29.4771","4.68205","58.23","0","SATNPRO1509","32.282000000000004","0.45218","5"],
    [53121,"HCEP03730542","2025-04-03 14:30:00","8.9511","3.17911","23.912","5.567","7.62","0.37","4.949","0.1","0.67","29.476","4.68188","58.18","0","SATNPRO1509","31.978","0.4479","5"],
    [53122,"HCEP03730542","2025-04-03 14:45:00","8.9516","3.17906","23.967","5.567","7.62","0.329","4.767","0.05","0.3","29.4752","4.68176","58.18","0","SATNPRO1509","32.01","0.44836","5"],
    [53123,"HCEP03730542","2025-04-03 15:00:00","8.9523","3.17897","24.009","5.558","7.62","0.345","4.679","0.1","0.32","29.4736","4.68152","58.08","0","SATNPRO1509","31.844","0.446","5"],
    [53124,"HCEP03730542","2025-04-03 15:15:00","8.9529","3.17893","24.069","5.554","7.62","0.35","4.591","0.06","0.37","29.4727","4.68138","58.04","0","SATNPRO1509","32.058","0.44902","5"],
    [53125,"HCEP03730542","2025-04-03 15:30:00","8.9536","3.1789","24.144","5.542","7.62","0.36","4.754","0.09","0.22","29.4717","4.68124","57.92","0","SATNPRO1509","31.887999999999998","0.44668","5"],
    [53126,"HCEP03730542","2025-04-03 15:45:00","8.9543","3.17887","24.237","5.531","7.62","0.371","5.645","0.05","0.25","29.4709","4.68111","57.8","0","SATNPRO1509","31.926","0.44718","5"],
    [53127,"HCEP03730542","2025-04-03 16:00:00","8.9551","3.17867","24.342","5.516","7.62","0.378","5.526","0.06","0.32","29.4681","4.68071","57.65","0","SATNPRO1509","31.974","0.44786","5"],
    [53128,"HCEP03730542","2025-04-03 16:15:00","8.9558","3.17844","24.478","5.505","7.62","0.452","6.348","0.07","0.35","29.4651","4.68026","57.53","0","SATNPRO1509","31.938","0.44738","5"],
    [53129,"HCEP03730542","2025-04-03 16:30:00","8.9566","3.17843","24.611","5.498","7.61","0.416","6.956","0.04","0.45","29.4643","4.68014","57.45","0","SATNPRO1509","31.808","0.44552","5"],
    [53130,"HCEP03730542","2025-04-03 16:45:00","8.9567","3.17831","24.763","5.482","7.61","0.45","7.019","0.03","0.55","29.4629","4.67995","57.29","0","SATNPRO1509","31.82","0.44572","5"],
    [53131,"HCEP03730542","2025-04-03 17:00:00","8.957","3.17822","24.894","5.479","7.61","0.439","7.799","0.03","0.77","29.4617","4.67977","57.26","0","SATNPRO1509","31.822","0.4457","5"],
    [53132,"HCEP03730542","2025-04-03 17:15:00","8.9565","3.17814","25.053","5.476","7.61","0.439","6.574","0.04","0.57","29.4612","4.67972","57.23","0","SATNPRO1509","31.764","0.44488","5"],
    [53133,"HCEP03730542","2025-04-03 17:30:00","8.9571","3.17805","25.25","5.475","7.61","0.378","5.701","0.04","0.25","29.4597","4.67951","57.21","0","SATNPRO1509","31.828","0.44576","5"],
    [53134,"HCEP03730542","2025-04-03 17:45:00","8.9583","3.17789","25.467","5.465","7.61","0.373","6.025","0.04","0.5","29.457","4.67911","57.11","0","SATNPRO1509","31.746","0.44466","5"],
    [53135,"HCEP03730542","2025-04-03 18:00:00","8.9591","3.17737","25.688","5.445","7.61","0.364","5.563","0.03","0.22","29.4509","4.67823","56.9","0","SATNPRO1509","31.708","0.44414","5"],
    [53136,"HCEP03730542","2025-04-03 18:15:00","8.9606","3.1771","25.926","5.439","7.61","0.395","6.12","0.04","0.49","29.4468","4.67763","56.84","0","SATNPRO1509","31.752","0.44476","5"],
    [53137,"HCEP03730542","2025-04-03 18:30:00","8.9612","3.17685","26.119","5.432","7.61","0.381","5.33","0.04","0.25","29.4436","4.67717","56.76","0","SATNPRO1509","31.622","0.44292","5"],
    [53138,"HCEP03730542","2025-04-03 18:45:00","8.9618","3.17643","26.315","5.424","7.61","0.396","5.273","0.04","0.34","29.4388","4.67648","56.68","0","SATNPRO1509","31.788","0.44524","5"],
    [53139,"HCEP03730542","2025-04-03 19:00:00","8.9621","3.17639","26.504","5.433","7.61","0.406","4.963","0.06","0.33","29.438","4.67638","56.77","0","SATNPRO1509","31.828","0.4458","5"],
    [53140,"HCEP03730542","2025-04-03 19:15:00","8.9619","3.17629","26.704","5.439","7.61","0.391","6.047","0.05","0.68","29.4371","4.67625","56.83","0","SATNPRO1509","31.669999999999998","0.4436","5"],
    [53141,"HCEP03730542","2025-04-03 19:30:00","8.9624","3.17567","26.866","5.444","7.61","0.409","7.425","0.06","1.83","29.4303","4.67528","56.89","0","SATNPRO1509","31.896","0.44672","5"],
    [53142,"HCEP03730542","2025-04-03 19:45:00","8.9634","3.17546","27.023","5.456","7.61","0.426","6.646","0.09","0.39","29.4272","4.67483","57.01","0","SATNPRO1509","31.606","0.44266","5"],
    [53143,"HCEP03730542","2025-04-03 20:00:00","8.9642","3.17523","27.183","5.441","7.61","0.479","6.957","0.14","0.66","29.4241","4.67438","56.85","0","SATNPRO1509","31.536","0.4417","5"],
    [53144,"HCEP03730542","2025-04-03 20:15:00","8.9637","3.17529","27.299","5.443","7.61","0.368","5.938","0.05","0.46","29.4251","4.67453","56.87","0","SATNPRO1509","31.718","0.44428","5"],
    [53145,"HCEP03730542","2025-04-03 20:30:00","8.9629","3.17566","27.407","5.443","7.61","0.422","6.337","0.11","0.49","29.4295","4.67519","56.88","0","SATNPRO1509","31.868","0.4464","5"],
    [53146,"HCEP03730542","2025-04-03 20:45:00","8.9626","3.17583","27.508","5.441","7.61","0.41","6.596","0.05","0.63","29.4315","4.67549","56.85","0","SATNPRO1509","31.61","0.44274","5"],
    [53147,"HCEP03730542","2025-04-03 21:00:00","8.963","3.1755","27.594","5.435","7.61","0.414","5.919","0.07","0.28","29.4277","4.67494","56.8","0","SATNPRO1509","31.778","0.44512","5"],
    [53148,"HCEP03730542","2025-04-03 21:15:00","8.9619","3.17587","27.646","5.442","7.61","0.439","5.586","0.08","0.36","29.4324","4.67563","56.87","0","SATNPRO1509","31.69","0.4439","5"],
    [53149,"HCEP03730542","2025-04-03 21:30:00","8.9616","3.17641","27.657","5.443","7.61","0.412","6.896","0.06","0.6","29.4382","4.67648","56.88","0","SATNPRO1509","31.556","0.44196","5"],
    [53150,"HCEP03730542","2025-04-03 21:45:00","8.9614","3.17665","27.66","5.435","7.61","2.58","33.767","3.25","34.28","29.4408","4.67685","56.79","0","SATNPRO1509","31.724","0.44438","5"],
    [53151,"HCEP03730542","2025-04-03 22:00:00","8.9632","3.17588","27.664","5.435","7.61","0.413","6.656","0.05","0.28","29.4314","4.67548","56.79","0","SATNPRO1509","31.722","0.44432","5"],
    [53152,"HCEP03730542","2025-04-03 22:15:00","8.9647","3.17503","27.685","5.431","7.61","0.382","5.673","0.05","0.47","29.4215","4.67402","56.76","0","SATNPRO1509","31.926","0.44718","5"],
    [53153,"HCEP03730542","2025-04-03 22:30:00","8.9667","3.17424","27.73","5.433","7.61","0.384","6.301","0.04","0.61","29.4116","4.67257","56.77","0","SATNPRO1509","31.616","0.44282","5"],
    [53154,"HCEP03730542","2025-04-03 22:45:00","8.9653","3.1751","27.748","5.43","7.61","2.062","38.354","2.82","16.18","29.4217","4.67404","56.74","0","SATNPRO1509","31.76","0.44484","5"],
    [53155,"HCEP03730542","2025-04-03 23:00:00","8.9648","3.1747","27.751","5.433","7.61","0.382","5.207","0.05","0.29","29.4179","4.67351","56.78","0","SATNPRO1509","31.854","0.44614","5"],
    [53156,"HCEP03730542","2025-04-03 23:15:00","8.9631","3.17456","27.72","5.453","7.61","1.596","44.769","0.87","27.88","29.4179","4.67354","56.98","0","SATNPRO1509","31.842","0.44602","5"],
    [53157,"HCEP03730542","2025-04-03 23:30:00","8.9629","3.17439","27.698","5.48","7.61","9.312","454.56","2.59","203.72","29.4163","4.67332","57.26","0","SATNPRO1509","31.939999999999998","0.4474","5"],
    [53158,"HCEP03730542","2025-04-03 23:45:00","8.9607","3.17434","27.648","5.511","7.61","7.118","343.082","3.69","153.92","29.4177","4.67355","57.58","0","SATNPRO1509","31.85","0.44614","5"],
    [53159,"HCEP03730542","2025-04-04 00:00:00","8.9577","3.17489","27.631","5.528","7.62","8.27","928.351","1.85","122.17","29.4258","4.67478","57.76","0","SATNPRO1509","31.77","0.44504","5"],
    [53160,"HCEP03730542","2025-04-04 00:15:00","8.9564","3.17534","27.592","5.539","7.62","11.636","348.913","4.23","113.68","29.4314","4.6756","57.87","0","SATNPRO1509","31.774","0.445","5"],
    [53161,"HCEP03730542","2025-04-04 00:30:00","8.956","3.17573","27.535","5.547","7.62","0.416","6.334","0.09","0.58","29.4359","4.67624","57.95","0","SATNPRO1509","31.736","0.44456","5"],
    [53162,"HCEP03730542","2025-04-04 00:45:00","8.9559","3.17604","27.474","5.539","7.62","0.39","6.427","0.05","0.45","29.4392","4.67671","57.87","0","SATNPRO1509","31.732","0.44444","5"],
    [53163,"HCEP03730542","2025-04-04 01:00:00","8.9557","3.1763","27.404","5.531","7.62","0.401","6.762","0.07","0.68","29.4421","4.67713","57.8","0","SATNPRO1509","31.85","0.44614","5"],
    [53164,"HCEP03730542","2025-04-04 01:15:00","8.9552","3.17657","27.333","5.531","7.62","0.404","8.105","0.08","0.93","29.4453","4.6776","57.79","0","SATNPRO1509","31.758","0.44482","5"],
    [53165,"HCEP03730542","2025-04-04 01:30:00","8.9553","3.17681","27.268","5.524","7.62","0.391","6.773","0.05","0.43","29.4477","4.67794","57.72","0","SATNPRO1509","31.796","0.44534","5"],
    [53166,"HCEP03730542","2025-04-04 01:45:00","8.955","3.17711","27.197","5.517","7.62","0.387","7.151","0.08","0.38","29.451","4.67841","57.65","0","SATNPRO1509","31.816","0.44564","5"],
    [53167,"HCEP03730542","2025-04-04 02:00:00","8.9549","3.17723","27.126","5.521","7.62","0.41","6.987","0.07","0.58","29.4524","4.67861","57.7","0","SATNPRO1509","31.804","0.44544","5"],
    [53168,"HCEP03730542","2025-04-04 02:15:00","8.9557","3.17705","27.056","5.514","7.62","0.351","6.275","0.03","0.59","29.4499","4.67823","57.62","0","SATNPRO1509","31.926000000000002","0.44718","5"],
    [53169,"HCEP03730542","2025-04-04 02:30:00","8.9553","3.17744","27.001","5.512","7.61","0.351","7.046","0.04","0.47","29.4543","4.67887","57.6","0","SATNPRO1509","31.8","0.44538","5"],
    [53170,"HCEP03730542","2025-04-04 02:45:00","8.9548","3.17773","26.947","5.507","7.61","0.373","7.128","0.05","0.3","29.4575","4.67934","57.55","0","SATNPRO1509","31.716","0.44424","5"],
    [53171,"HCEP03730542","2025-04-04 03:00:00","8.9547","3.17778","26.899","5.504","7.61","0.448","6.147","0.18","0.38","29.4582","4.67944","57.51","0","SATNPRO1509","31.716","0.4442","5"],
    [53172,"HCEP03730542","2025-04-04 03:15:00","8.955","3.17771","26.855","5.504","7.61","0.368","5.53","0.09","0.31","29.4573","4.67929","57.52","0","SATNPRO1509","32.042","0.44878","5"],
    [53173,"HCEP03730542","2025-04-04 03:30:00","8.9548","3.17779","26.829","5.501","7.61","0.384","5.89","0.05","0.28","29.4583","4.67944","57.48","0","SATNPRO1509","31.77","0.445","5"],
    [53174,"HCEP03730542","2025-04-04 03:45:00","8.9545","3.17788","26.816","5.506","7.61","0.343","5.765","0.06","0.3","29.4594","4.67961","57.53","0","SATNPRO1509","31.66","0.44342","5"],
    [53175,"HCEP03730542","2025-04-04 04:00:00","8.9469","3.17652","26.809","5.522","7.62","0.387","4.832","0.09","0.24","29.4518","4.67867","57.7","0","SATNPRO1509","32.182","0.45078","5"],
    [53176,"HCEP03730542","2025-04-04 04:15:00","8.9526","3.1776","26.821","5.581","7.62","0.379","5.196","0.09","0.34","29.4582","4.67946","58.31","0","SATNPRO1509","31.812","0.44558","5"],
    [53177,"HCEP03730542","2025-04-04 04:30:00","8.9494","3.17713","26.832","5.561","7.62","0.392","5.297","0.09","0.19","29.456","4.67922","58.1","0","SATNPRO1509","31.924","0.44712","5"],
    [53178,"HCEP03730542","2025-04-04 04:45:00","8.9544","3.17821","26.855","5.56","7.62","0.374","6.117","0.06","0.22","29.4628","4.6801","58.1","0","SATNPRO1509","31.77","0.44502","5"],
    [53179,"HCEP03730542","2025-04-04 05:00:00","8.9544","3.17834","26.887","5.513","7.61","0.44","6.714","0.11","0.45","29.4642","4.6803","57.61","0","SATNPRO1509","31.704","0.44404","5"],
    [53180,"HCEP03730542","2025-04-04 05:15:00","8.9535","3.17846","26.908","5.488","7.61","0.436","6.661","0.15","1.26","29.4662","4.6806","57.35","0","SATNPRO1509","31.752","0.44478","5"],
    [53181,"HCEP03730542","2025-04-04 05:30:00","8.9544","3.17863","26.942","5.49","7.61","0.385","6.446","0.08","0.34","29.4671","4.68072","57.37","0","SATNPRO1509","31.66","0.44346","5"],
    [53182,"HCEP03730542","2025-04-04 05:45:00","8.9543","3.17871","26.972","5.477","7.61","0.373","6.594","0.07","0.29","29.4681","4.68087","57.24","0","SATNPRO1509","31.778","0.44508","5"],
    [53183,"HCEP03730542","2025-04-04 06:00:00","8.9539","3.17885","27.007","5.478","7.61","0.415","7.236","0.07","1.22","29.4699","4.68113","57.25","0","SATNPRO1509","31.772000000000002","0.44504","5"],
    [53184,"HCEP03730542","2025-04-04 06:15:00","8.9533","3.17897","27.047","5.473","7.61","0.365","6.757","0.05","0.39","29.4715","4.68138","57.19","0","SATNPRO1509","31.746","0.44464","5"],
    [53185,"HCEP03730542","2025-04-04 06:30:00","8.9533","3.17906","27.085","5.478","7.61","0.413","6.407","0.09","0.49","29.4724","4.68151","57.25","0","SATNPRO1509","31.753999999999998","0.44474","5"],
    [53186,"HCEP03730542","2025-04-04 06:45:00","8.9535","3.17911","27.12","5.474","7.61","0.366","6.755","0.05","0.53","29.4728","4.68157","57.21","0","SATNPRO1509","31.978","0.4479","5"],
    [53187,"HCEP03730542","2025-04-04 07:00:00","8.9535","3.1792","27.178","5.469","7.61","0.367","6.499","0.04","0.36","29.4738","4.68171","57.16","0","SATNPRO1509","31.580000000000002","0.44234","5"],
    [53188,"HCEP03730542","2025-04-04 07:15:00","8.9536","3.17927","27.213","5.463","7.61","0.376","7.053","0.05","0.51","29.4743","4.68178","57.09","0","SATNPRO1509","31.634","0.44318","5"],
    [53189,"HCEP03730542","2025-04-04 07:30:00","8.9536","3.17934","27.269","5.461","7.61","0.422","6.844","0.11","0.64","29.475","4.68189","57.07","0","SATNPRO1509","32.106","0.4497","5"],
    [53190,"HCEP03730542","2025-04-04 07:45:00","8.9538","3.17938","27.272","5.458","7.61","0.442","7.025","0.13","0.43","29.4752","4.68192","57.04","0","SATNPRO1509","31.776","0.4451","5"],
    [53191,"HCEP03730542","2025-04-04 08:00:00","8.9538","3.17939","27.299","5.451","7.61","0.42","6.1","0.1","0.2","29.4754","4.68194","56.97","0","SATNPRO1509","31.822","0.44576","5"],
    [53192,"HCEP03730542","2025-04-04 08:15:00","8.9535","3.1794","27.304","5.446","7.61","0.572","6.539","0.21","0.2","29.4757","4.68199","56.92","0","SATNPRO1509","31.552","0.44196","5"],
    [53193,"HCEP03730542","2025-04-04 08:30:00","8.9539","3.17935","27.302","5.446","7.61","0.364","6.087","0.03","0.28","29.4749","4.68187","56.92","0","SATNPRO1509","31.686","0.44382","5"],
    [53194,"HCEP03730542","2025-04-04 08:45:00","8.9537","3.17935","27.271","5.45","7.61","0.343","5.856","0.03","0.23","29.475","4.68189","56.95","0","SATNPRO1509","31.816","0.44564","5"],
    [53195,"HCEP03730542","2025-04-04 09:00:00","8.9534","3.17932","27.242","5.452","7.61","0.432","6.529","0.1","0.49","29.4749","4.68188","56.98","0","SATNPRO1509","31.77","0.44502","5"],
    [53196,"HCEP03730542","2025-04-04 09:15:00","8.9533","3.17929","27.197","5.461","7.61","0.38","5.467","0.11","0.24","29.4747","4.68184","57.07","0","SATNPRO1509","31.848","0.4461","5"],
    [53197,"HCEP03730542","2025-04-04 09:30:00","8.9532","3.17925","27.154","5.464","7.61","0.39","5.788","0.1","0.32","29.4744","4.6818","57.1","0","SATNPRO1509","31.644","0.44324","5"],
    [53198,"HCEP03730542","2025-04-04 09:45:00","8.9532","3.17917","27.079","5.466","7.61","0.368","6.057","0.04","0.44","29.4737","4.68169","57.12","0","SATNPRO1509","31.854","0.44616","5"],
    [53199,"HCEP03730542","2025-04-04 10:00:00","8.955","3.17919","26.965","5.463","7.61","0.445","10.328","0.1","5.84","29.4724","4.68148","57.09","0","SATNPRO1509","31.53","0.44164","5"],
    [53200,"HCEP03730542","2025-04-04 10:15:00","8.9478","3.17887","26.889","5.441","7.61","0.368","7.817","0.03","0.42","29.4751","4.68199","56.85","0","SATNPRO1509","31.538","0.44172","5"],
    [53201,"HCEP03730542","2025-04-04 10:30:00","8.9511","3.17861","26.764","5.468","7.61","0.392","7.722","0.03","0.26","29.4698","4.68116","57.14","0","SATNPRO1509","31.752","0.44474","5"],
    [53202,"HCEP03730542","2025-04-04 10:45:00","8.9268","3.17723","26.64","5.521","7.63","0.343","6.108","0.03","0.72","29.4758","4.68248","57.66","0","SATNPRO1509","31.887999999999998","0.44662","5"],
    [53203,"HCEP03730542","2025-04-04 11:00:00","8.9236","3.17688","26.469","5.808","7.64","0.365","5.451","0.1","2.49","29.475","4.68241","60.66","0","SATNPRO1509","31.996","0.44818","5"],
    [53204,"HCEP03730542","2025-04-04 11:15:00","8.9249","3.17689","26.321","5.896","7.64","0.325","4.933","0.03","1.15","29.474","4.68224","61.57","0","SATNPRO1509","32.072","0.44922","5"],
    [53205,"HCEP03730542","2025-04-04 11:30:00","8.9262","3.17673","26.113","5.908","7.64","0.334","4.584","0.04","0.46","29.4714","4.68182","61.7","0","SATNPRO1509","32.01","0.44834","5"],
    [53206,"HCEP03730542","2025-04-04 11:45:00","8.9261","3.17684","25.965","5.9","7.64","0.323","5.167","0.03","0.22","29.4727","4.682","61.62","0","SATNPRO1509","32.094","0.4495","5"],
    [53207,"HCEP03730542","2025-04-04 12:00:00","8.9277","3.17676","25.808","5.891","7.64","0.333","5.046","0.03","0.33","29.4706","4.68166","61.53","0","SATNPRO1509","32.098","0.44954","5"],
    [53208,"HCEP03730542","2025-04-04 12:15:00","8.9285","3.17645","25.658","5.888","7.64","0.375","7.737","0.04","0.35","29.4668","4.68109","61.5","0","SATNPRO1509","32.12","0.44988","5"],
    [53209,"HCEP03730542","2025-04-04 12:30:00","8.929","3.17659","25.483","5.885","7.64","0.541","7.318","0.09","0.97","29.4679","4.68124","61.47","0","SATNPRO1509","32.202","0.45102","5"],
    [53210,"HCEP03730542","2025-04-04 12:45:00","8.9266","3.17651","25.293","5.87","7.64","0.318","5.31","0.02","0.24","29.4691","4.68144","61.3","0","SATNPRO1509","32.076","0.44926","5"],
    [53211,"HCEP03730542","2025-04-04 13:00:00","8.9259","3.1766","25.14","5.886","7.64","0.326","5.035","0.03","0.35","29.4708","4.68168","61.47","0","SATNPRO1509","32.12","0.44988","5"],
    [53212,"HCEP03730542","2025-04-04 13:15:00","8.9258","3.17689","25.002","5.889","7.64","0.32","4.518","0.03","0.21","29.4739","4.68213","61.51","0","SATNPRO1509","32.178000000000004","0.4507","5"],
    [53213,"HCEP03730542","2025-04-04 13:30:00","8.9267","3.177","24.81","5.887","7.64","0.365","4.506","0.13","0.29","29.4743","4.68215","61.48","0","SATNPRO1509","32.092","0.44952","5"],
    [53214,"HCEP03730542","2025-04-04 13:45:00","8.929","3.17653","24.579","5.865","7.64","0.327","4.453","0.03","0.21","29.4676","4.68114","61.25","0","SATNPRO1509","31.89","0.4467","5"],
    [53215,"HCEP03730542","2025-04-04 14:00:00","8.9301","3.17595","24.349","5.857","7.64","0.334","4.246","0.05","0.39","29.4609","4.68014","61.17","0","SATNPRO1509","32.106","0.4497","5"],
    [53216,"HCEP03730542","2025-04-04 14:15:00","8.9305","3.17599","24.268","5.854","7.64","0.329","4.251","0.05","0.3","29.461","4.68014","61.14","0","SATNPRO1509","32.032000000000004","0.44864","5"],
    [53217,"HCEP03730542","2025-04-04 14:30:00","8.931","3.17572","24.189","5.846","7.64","0.366","5.063","0.06","0.37","29.4578","4.67966","61.05","0","SATNPRO1509","32.302","0.45246","5"],
    [53218,"HCEP03730542","2025-04-04 14:45:00","8.9315","3.17573","24.088","5.829","7.64","0.315","4.317","0.02","0.2","29.4576","4.67962","60.88","0","SATNPRO1509","31.894","0.44674","5"],
    [53219,"HCEP03730542","2025-04-04 15:00:00","8.9321","3.17562","24.068","5.822","7.64","0.361","4.375","0.11","0.31","29.456","4.67938","60.81","0","SATNPRO1509","31.91","0.44694","5"],
    [53220,"HCEP03730542","2025-04-04 15:15:00","8.9322","3.1756","24.073","5.814","7.64","0.359","4.55","0.1","0.35","29.4557","4.67934","60.72","0","SATNPRO1509","32.024","0.44854","5"],
    [53221,"HCEP03730542","2025-04-04 15:30:00","8.9319","3.17578","24.094","5.805","7.64","0.386","4.219","0.1","0.24","29.4578","4.67964","60.63","0","SATNPRO1509","31.774","0.44504","5"],
    [53222,"HCEP03730542","2025-04-04 15:45:00","8.9316","3.17572","24.1","5.802","7.64","0.331","3.996","0.07","0.23","29.4573","4.67958","60.6","0","SATNPRO1509","31.882","0.44658","5"],
    [53223,"HCEP03730542","2025-04-04 16:00:00","8.932","3.17563","24.133","5.806","7.64","0.365","3.852","0.11","0.19","29.4561","4.6794","60.64","0","SATNPRO1509","31.874000000000002","0.44646","5"],
    [53224,"HCEP03730542","2025-04-04 16:15:00","8.9323","3.17536","24.195","5.809","7.64","0.328","3.693","0.06","0.22","29.453","4.67895","60.67","0","SATNPRO1509","31.982","0.44796","5"],
    [53225,"HCEP03730542","2025-04-04 16:30:00","8.9322","3.17501","24.268","5.812","7.64","0.351","3.65","0.05","0.23","29.4496","4.67846","60.7","0","SATNPRO1509","31.888","0.44666","5"],
    [53226,"HCEP03730542","2025-04-04 16:45:00","8.9331","3.17476","24.336","5.815","7.64","0.339","3.798","0.04","0.25","29.4462","4.67797","60.73","0","SATNPRO1509","31.872","0.44642","5"],
    [53227,"HCEP03730542","2025-04-04 17:00:00","8.9342","3.17464","24.425","5.804","7.64","0.376","3.913","0.11","0.28","29.4441","4.67765","60.61","0","SATNPRO1509","31.916","0.44708","5"],
    [53228,"HCEP03730542","2025-04-04 17:15:00","8.9371","3.17454","24.541","5.781","7.63","0.36","4.584","0.05","0.25","29.4405","4.67709","60.38","0","SATNPRO1509","31.668","0.44354","5"],
    [53229,"HCEP03730542","2025-04-04 17:30:00","8.9398","3.1746","24.663","5.731","7.63","0.462","5.726","0.11","0.35","29.4388","4.6768","59.86","0","SATNPRO1509","31.562","0.44208","5"],
    [53230,"HCEP03730542","2025-04-04 17:45:00","8.9427","3.17449","24.811","5.679","7.63","0.383","4.981","0.08","0.38","29.4352","4.67624","59.32","0","SATNPRO1509","31.424","0.44014","5"],
    [53231,"HCEP03730542","2025-04-04 18:00:00","8.9447","3.17447","24.959","5.642","7.63","0.396","5.054","0.09","0.49","29.4334","4.67595","58.93","0","SATNPRO1509","31.688","0.44384","5"],
    [53232,"HCEP03730542","2025-04-04 18:15:00","8.9488","3.17433","25.093","5.612","7.62","0.395","5.721","0.05","0.55","29.4285","4.67517","58.63","0","SATNPRO1509","31.77","0.445","5"],
    [53233,"HCEP03730542","2025-04-04 18:30:00","8.9499","3.17431","25.276","5.571","7.62","0.391","5.203","0.05","0.39","29.4273","4.67499","58.2","0","SATNPRO1509","31.546","0.44184","5"],
    [53234,"HCEP03730542","2025-04-04 18:45:00","8.9499","3.17435","25.447","5.54","7.62","0.384","4.874","0.06","0.3","29.4276","4.67505","57.88","0","SATNPRO1509","31.704","0.44408","5"],
    [53235,"HCEP03730542","2025-04-04 19:00:00","8.9505","3.17438","25.626","5.526","7.62","0.413","5.595","0.08","0.87","29.4274","4.67501","57.73","0","SATNPRO1509","31.54","0.44182","5"],
    [53236,"HCEP03730542","2025-04-04 19:15:00","8.953","3.17432","25.833","5.522","7.62","0.418","5.492","0.07","1.31","29.4246","4.67458","57.69","0","SATNPRO1509","31.572","0.44222","5"],
    [53237,"HCEP03730542","2025-04-04 19:30:00","8.9558","3.17424","26.022","5.498","7.61","0.396","4.459","0.08","0.55","29.4214","4.67408","57.44","0","SATNPRO1509","31.904","0.44688","5"],
    [53238,"HCEP03730542","2025-04-04 19:45:00","8.9557","3.17435","26.212","5.473","7.61","0.394","5.096","0.05","0.71","29.4226","4.67426","57.18","0","SATNPRO1509","31.512","0.44138","5"],
    [53239,"HCEP03730542","2025-04-04 20:00:00","8.9543","3.17446","26.392","5.462","7.61","0.409","6.436","0.05","1.36","29.4247","4.67461","57.06","0","SATNPRO1509","31.466","0.44072","5"],
    [53240,"HCEP03730542","2025-04-04 20:15:00","8.9542","3.17437","26.567","5.468","7.61","0.412","6.221","0.07","0.37","29.4239","4.6745","57.13","0","SATNPRO1509","31.644","0.44324","5"],
    [53241,"HCEP03730542","2025-04-04 20:30:00","8.9557","3.17432","26.731","5.457","7.61","0.388","6.255","0.04","0.71","29.422","4.67421","57.01","0","SATNPRO1509","31.448","0.4405","5"],
    [53242,"HCEP03730542","2025-04-04 20:45:00","8.9547","3.1743","26.886","5.453","7.61","0.404","7.324","0.05","0.99","29.4225","4.67431","56.97","0","SATNPRO1509","31.326","0.43876","5"],
    [53243,"HCEP03730542","2025-04-04 21:00:00","8.9513","3.17453","27.029","5.468","7.61","0.417","7.383","0.08","1.05","29.4277","4.67513","57.12","0","SATNPRO1509","31.494","0.4411","5"],
    [53244,"HCEP03730542","2025-04-04 21:15:00","8.9474","3.1747","27.168","5.505","7.61","0.392","6.546","0.08","0.73","29.4325","4.6759","57.5","0","SATNPRO1509","31.556","0.442","5"],
    [53245,"HCEP03730542","2025-04-04 21:30:00","8.95","3.17456","27.27","5.531","7.62","0.414","5.444","0.09","0.52","29.4289","4.67534","57.78","0","SATNPRO1509","31.578","0.44226","5"],
    [53246,"HCEP03730542","2025-04-04 21:45:00","8.9471","3.17463","27.364","5.541","7.62","0.431","6.8","0.09","1.5","29.432","4.67585","57.88","0","SATNPRO1509","31.628","0.443","5"],
    [53247,"HCEP03730542","2025-04-04 22:00:00","8.9435","3.17511","27.467","5.566","7.62","0.404","7.216","0.06","0.62","29.4399","4.67705","58.14","0","SATNPRO1509","31.628","0.44298","5"],
    [53248,"HCEP03730542","2025-04-04 22:15:00","8.9418","3.17515","27.493","5.589","7.62","0.417","6.535","0.12","0.68","29.4417","4.67735","58.38","0","SATNPRO1509","31.669999999999998","0.44362","5"],
    [53249,"HCEP03730542","2025-04-04 22:30:00","8.9398","3.17555","27.572","5.623","7.62","0.4","6.866","0.06","0.57","29.4474","4.67821","58.73","0","SATNPRO1509","31.716","0.44422","5"],
    [53250,"HCEP03730542","2025-04-04 22:45:00","8.9392","3.1755","27.613","5.64","7.62","0.377","6.111","0.08","0.37","29.4473","4.67821","58.92","0","SATNPRO1509","31.72","0.44428","5"],
    [53251,"HCEP03730542","2025-04-04 23:00:00","8.9387","3.17572","27.652","5.659","7.62","0.389","6.73","0.06","0.78","29.45","4.67861","59.11","0","SATNPRO1509","31.726","0.44434","5"],
    [53252,"HCEP03730542","2025-04-04 23:15:00","8.9381","3.17584","27.696","5.655","7.62","0.383","6.902","0.06","0.52","29.4518","4.67887","59.07","0","SATNPRO1509","31.778","0.4451","5"],
    [53253,"HCEP03730542","2025-04-04 23:30:00","8.9378","3.17609","27.714","5.658","7.62","0.434","7.251","0.1","0.42","29.4545","4.67928","59.1","0","SATNPRO1509","31.82","0.44568","5"],
    [53254,"HCEP03730542","2025-04-04 23:45:00","8.9372","3.17622","27.724","5.657","7.63","0.367","6.836","0.05","0.63","29.4563","4.67954","59.09","0","SATNPRO1509","31.778","0.44514","5"],
    [53255,"HCEP03730542","2025-04-05 00:00:00","8.9365","3.17599","27.707","5.65","7.63","0.4","6.474","0.07","1","29.4546","4.67931","59.02","0","SATNPRO1509","31.782","0.44512","5"],
    [53256,"HCEP03730542","2025-04-05 00:15:00","8.9403","3.1755","27.702","5.672","7.63","0.383","5.887","0.05","0.44","29.4464","4.67806","59.25","0","SATNPRO1509","31.708","0.44412","5"],
    [53257,"HCEP03730542","2025-04-05 00:30:00","8.9399","3.17573","27.709","5.661","7.63","0.443","6.961","0.09","1.25","29.4492","4.67847","59.13","0","SATNPRO1509","31.698","0.44398","5"],
    [53258,"HCEP03730542","2025-04-05 00:45:00","8.9413","3.17577","27.687","5.643","7.62","0.401","7.544","0.05","1.33","29.4484","4.67833","58.94","0","SATNPRO1509","31.514","0.44138","5"],
    [53259,"HCEP03730542","2025-04-05 01:00:00","8.9438","3.17575","27.639","5.612","7.62","0.409","7.784","0.06","0.58","29.4461","4.67796","58.63","0","SATNPRO1509","31.562","0.44204","5"],
    [53260,"HCEP03730542","2025-04-05 01:15:00","8.9447","3.17581","27.603","5.569","7.62","0.444","7.843","0.14","0.98","29.446","4.67791","58.17","0","SATNPRO1509","31.32","0.43868","5"],
    [53261,"HCEP03730542","2025-04-05 01:30:00","8.9445","3.17582","27.559","5.547","7.62","0.384","7.06","0.05","0.67","29.4464","4.67797","57.95","0","SATNPRO1509","31.508","0.44128","5"],
    [53262,"HCEP03730542","2025-04-05 01:45:00","8.9508","3.17671","27.506","5.523","7.61","0.38","7.288","0.03","0.58","29.4502","4.6784","57.71","0","SATNPRO1509","31.422","0.44012","5"],
    [53263,"HCEP03730542","2025-04-05 02:00:00","8.9508","3.17708","27.438","5.43","7.61","0.406","7.614","0.06","0.59","29.4541","4.67895","56.74","0","SATNPRO1509","31.13","0.43604","5"],
    [53264,"HCEP03730542","2025-04-05 02:15:00","8.9499","3.17752","27.38","5.39","7.61","0.421","8.216","0.07","1.65","29.4594","4.67973","56.31","0","SATNPRO1509","31.182","0.43674","5"],
    [53265,"HCEP03730542","2025-04-05 02:30:00","8.9492","3.17827","27.309","5.381","7.6","0.422","6.99","0.06","0.67","29.4677","4.68092","56.22","0","SATNPRO1509","31.398","0.43978","5"],
    [53266,"HCEP03730542","2025-04-05 02:45:00","8.9474","3.17829","27.236","5.379","7.61","0.401","6.166","0.09","0.44","29.4693","4.68119","56.21","0","SATNPRO1509","31.35","0.43914","5"],
    [53267,"HCEP03730542","2025-04-05 03:00:00","8.9458","3.17822","27.172","5.401","7.61","0.493","7.12","0.11","1.85","29.47","4.68132","56.43","0","SATNPRO1509","31.372","0.43942","5"],
    [53268,"HCEP03730542","2025-04-05 03:15:00","8.9434","3.17821","27.102","5.433","7.61","0.451","6.152","0.09","0.34","29.472","4.68164","56.76","0","SATNPRO1509","31.548000000000002","0.44186","5"],
    [53269,"HCEP03730542","2025-04-05 03:30:00","8.9425","3.17819","27.037","5.467","7.61","0.492","7.588","0.11","1.5","29.4725","4.68173","57.11","0","SATNPRO1509","31.478","0.44094","5"],
    [53270,"HCEP03730542","2025-04-05 03:45:00","8.942","3.1782","26.963","5.48","7.61","0.474","7.607","0.11","1.32","29.473","4.68181","57.25","0","SATNPRO1509","31.233999999999998","0.43748","5"],
    [53271,"HCEP03730542","2025-04-05 04:00:00","8.9414","3.17819","26.916","5.489","7.61","0.426","7.995","0.08","1.06","29.4735","4.68189","57.35","0","SATNPRO1509","31.4","0.4398","5"],
    [53272,"HCEP03730542","2025-04-05 04:15:00","8.9411","3.17822","26.86","5.494","7.61","0.375","7.213","0.03","0.62","29.474","4.68196","57.4","0","SATNPRO1509","31.528000000000002","0.4416","5"],
    [53273,"HCEP03730542","2025-04-05 04:30:00","8.941","3.17816","26.801","5.496","7.61","0.446","7.571","0.09","0.95","29.4736","4.6819","57.42","0","SATNPRO1509","31.446","0.44046","5"],
    [53274,"HCEP03730542","2025-04-05 04:45:00","8.9426","3.17833","26.8","5.493","7.61","0.378","7.476","0.06","0.95","29.4739","4.68192","57.39","0","SATNPRO1509","31.258","0.4378","5"],
    [53275,"HCEP03730542","2025-04-05 05:00:00","8.9418","3.17818","26.769","5.465","7.61","0.383","6.677","0.05","0.4","29.4731","4.68181","57.09","0","SATNPRO1509","31.442","0.4404","5"],
    [53276,"HCEP03730542","2025-04-05 05:15:00","8.9413","3.17821","26.683","5.465","7.61","0.377","7.32","0.04","0.6","29.4738","4.68192","57.09","0","SATNPRO1509","31.494","0.44112","5"],
    [53277,"HCEP03730542","2025-04-05 05:30:00","8.9385","3.1781","26.712","5.479","7.61","0.375","6.994","0.03","1.19","29.475","4.68214","57.24","0","SATNPRO1509","31.422","0.44014","5"],
    [53278,"HCEP03730542","2025-04-05 05:45:00","8.9357","3.17811","26.748","5.524","7.62","0.372","7.098","0.04","1.63","29.4774","4.68254","57.71","0","SATNPRO1509","31.684","0.44378","5"],
    [53279,"HCEP03730542","2025-04-05 06:00:00","8.9355","3.17839","26.729","5.559","7.62","0.395","8.173","0.05","1.86","29.4805","4.68299","58.07","0","SATNPRO1509","31.64","0.44318","5"],
    [53280,"HCEP03730542","2025-04-05 06:15:00","8.937","3.17882","26.731","5.555","7.62","0.396","7.661","0.04","1.54","29.4837","4.68342","58.03","0","SATNPRO1509","31.356","0.43916","5"],
    [53281,"HCEP03730542","2025-04-05 06:30:00","8.935","3.17892","26.772","5.536","7.62","0.38","6.954","0.04","0.46","29.4863","4.68383","57.83","0","SATNPRO1509","31.566","0.44212","5"],
    [53282,"HCEP03730542","2025-04-05 06:45:00","8.9353","3.17914","26.795","5.533","7.62","0.397","7.834","0.05","2.16","29.4883","4.68411","57.8","0","SATNPRO1509","31.394","0.43972","5"],
    [53283,"HCEP03730542","2025-04-05 07:00:00","8.9348","3.17924","26.8","5.525","7.62","0.414","7.289","0.05","0.49","29.4897","4.68434","57.72","0","SATNPRO1509","31.184","0.4368","5"],
    [53284,"HCEP03730542","2025-04-05 07:15:00","8.9348","3.17915","26.826","5.524","7.62","0.42","7.535","0.19","2.28","29.4888","4.68421","57.71","0","SATNPRO1509","31.368000000000002","0.43938","5"],
    [53285,"HCEP03730542","2025-04-05 07:30:00","8.9355","3.17919","26.901","5.524","7.62","0.419","7.143","0.06","0.64","29.4886","4.68417","57.72","0","SATNPRO1509","31.31","0.4385","5"],
    [53286,"HCEP03730542","2025-04-05 07:45:00","8.9347","3.17924","26.893","5.52","7.62","0.388","7.671","0.05","1.3","29.4897","4.68434","57.67","0","SATNPRO1509","31.344","0.43904","5"],
    [53287,"HCEP03730542","2025-04-05 08:00:00","8.933","3.17975","26.9","5.526","7.62","0.39","8.325","0.03","1.29","29.4965","4.68535","57.73","0","SATNPRO1509","31.378","0.43952","5"],
    [53288,"HCEP03730542","2025-04-05 08:15:00","8.932","3.17974","26.93","5.532","7.62","0.373","6.512","0.06","0.35","29.4971","4.68545","57.79","0","SATNPRO1509","31.312","0.43856","5"],
    [53289,"HCEP03730542","2025-04-05 08:30:00","8.9323","3.17976","26.927","5.541","7.62","0.397","7.523","0.06","1.47","29.4971","4.68544","57.88","0","SATNPRO1509","31.451999999999998","0.44058","5"],
    [53290,"HCEP03730542","2025-04-05 08:45:00","8.9276","3.17959","26.916","5.562","7.62","0.352","5.948","0.04","0.3","29.4993","4.68585","58.1","0","SATNPRO1509","31.584","0.44236","5"],
    [53291,"HCEP03730542","2025-04-05 09:00:00","8.9265","3.1795","26.919","5.614","7.62","0.33","5.008","0.02","0.44","29.4993","4.68587","58.64","0","SATNPRO1509","31.682","0.44374","5"],
    [53292,"HCEP03730542","2025-04-05 09:15:00","8.9267","3.17942","26.928","5.638","7.62","0.36","4.501","0.04","0.13","29.4983","4.68572","58.89","0","SATNPRO1509","31.586","0.44238","5"],
    [53293,"HCEP03730542","2025-04-05 09:30:00","8.9279","3.17935","26.937","5.642","7.62","0.374","5.103","0.07","0.31","29.4966","4.68546","58.94","0","SATNPRO1509","31.92","0.4471","5"],
    [53294,"HCEP03730542","2025-04-05 09:45:00","8.9295","3.17938","26.932","5.617","7.62","0.366","6.791","0.05","4.39","29.4955","4.68527","58.68","0","SATNPRO1509","31.698","0.444","5"],
    [53295,"HCEP03730542","2025-04-05 10:00:00","8.9273","3.17963","26.926","5.618","7.62","0.351","5.731","0.05","0.42","29.4999","4.68595","58.69","0","SATNPRO1509","31.567999999999998","0.44216","5"],
    [53296,"HCEP03730542","2025-04-05 10:15:00","8.9267","3.17948","26.886","5.627","7.62","0.351","7.855","0.05","4.15","29.4989","4.6858","58.77","0","SATNPRO1509","31.722","0.44436","5"],
    [53297,"HCEP03730542","2025-04-05 10:30:00","8.9306","3.17991","26.837","5.628","7.62","0.356","6.562","0.05","0.39","29.5001","4.68591","58.8","0","SATNPRO1509","31.46","0.44064","5"],
    [53298,"HCEP03730542","2025-04-05 10:45:00","8.9287","3.1797","26.781","5.578","7.62","0.368","6.456","0.07","0.36","29.4995","4.68585","58.27","0","SATNPRO1509","31.35","0.43914","5"],
    [53299,"HCEP03730542","2025-04-05 11:00:00","8.9275","3.17959","26.712","5.579","7.62","0.373","6.534","0.04","0.35","29.4994","4.68586","58.27","0","SATNPRO1509","31.426","0.44016","5"],
    [53300,"HCEP03730542","2025-04-05 11:15:00","8.9251","3.17937","26.636","5.602","7.62","0.368","5.819","0.05","0.4","29.4991","4.68586","58.51","0","SATNPRO1509","31.616","0.44286","5"],
    [53301,"HCEP03730542","2025-04-05 11:30:00","8.9135","3.17819","26.568","5.639","7.63","0.359","5.185","0.07","0.29","29.4967","4.68573","58.88","0","SATNPRO1509","31.654","0.4434","5"],
    [53302,"HCEP03730542","2025-04-05 11:45:00","8.9189","3.17804","26.483","5.729","7.63","0.319","4.361","0.03","0.22","29.4908","4.68476","59.83","0","SATNPRO1509","31.808","0.4455","5"],
    [53303,"HCEP03730542","2025-04-05 12:00:00","8.8737","3.17391","26.36","5.841","7.65","0.339","3.845","0.03","0.32","29.4859","4.68492","60.94","0","SATNPRO1509","31.988000000000003","0.44806","5"],
    [53304,"HCEP03730542","2025-04-05 12:15:00","8.8929","3.17619","26.228","6.065","7.65","0.325","4.724","0.04","0.19","29.4935","4.68564","63.31","0","SATNPRO1509","31.834","0.44588","5"],
    [53305,"HCEP03730542","2025-04-05 12:30:00","8.9011","3.17693","26.097","5.978","7.65","0.339","5.145","0.03","0.27","29.4943","4.68559","62.4","0","SATNPRO1509","31.756","0.44478","5"],
    [53306,"HCEP03730542","2025-04-05 12:45:00","8.8884","3.17583","25.952","5.919","7.65","0.335","5.227","0.04","0.28","29.4936","4.68573","61.78","0","SATNPRO1509","31.748","0.4447","5"],
    [53307,"HCEP03730542","2025-04-05 13:00:00","8.8744","3.17483","25.787","6.009","7.66","0.335","4.097","0.03","0.18","29.495","4.68618","62.69","0","SATNPRO1509","31.998","0.4482","5"],
    [53308,"HCEP03730542","2025-04-05 13:15:00","8.8697","3.17463","25.605","6.124","7.66","0.327","4.17","0.04","0.16","29.4969","4.68653","63.88","0","SATNPRO1509","32.016","0.44846","5"],
    [53309,"HCEP03730542","2025-04-05 13:30:00","8.8728","3.17482","25.501","6.182","7.67","0.342","3.772","0.04","0.23","29.4963","4.68639","64.49","0","SATNPRO1509","31.958000000000002","0.44764","5"],
    [53310,"HCEP03730542","2025-04-05 13:45:00","8.9105","3.17705","25.364","6.148","7.66","0.334","4.453","0.03","0.28","29.4881","4.68447","64.19","0","SATNPRO1509","31.812","0.44556","5"],
    [53311,"HCEP03730542","2025-04-05 14:00:00","8.8781","3.17529","25.171","5.953","7.66","0.34","4.124","0.04","0.23","29.4969","4.68634","62.12","0","SATNPRO1509","31.906000000000002","0.44688","5"],
    [53312,"HCEP03730542","2025-04-05 14:15:00","8.8744","3.17519","25.01","6.086","7.66","0.344","4.304","0.05","0.17","29.499","4.68671","63.5","0","SATNPRO1509","31.986","0.448","5"],
    [53313,"HCEP03730542","2025-04-05 14:30:00","8.8759","3.17528","24.88","6.13","7.66","0.338","4.862","0.03","0.31","29.4987","4.68663","63.96","0","SATNPRO1509","31.676","0.44368","5"],
    [53314,"HCEP03730542","2025-04-05 14:45:00","8.8804","3.17548","24.739","6.127","7.66","0.372","5.046","0.05","0.36","29.4972","4.68632","63.93","0","SATNPRO1509","31.834","0.44586","5"],
    [53315,"HCEP03730542","2025-04-05 15:00:00","8.8828","3.17566","24.639","6.106","7.66","0.496","5.174","0.25","0.4","29.4969","4.68623","63.72","0","SATNPRO1509","31.75","0.4447","5"],
    [53316,"HCEP03730542","2025-04-05 15:15:00","8.8822","3.1757","24.597","6.085","7.66","0.404","4.919","0.04","0.29","29.498","4.68639","63.5","0","SATNPRO1509","31.726","0.44436","5"],
    [53317,"HCEP03730542","2025-04-05 15:30:00","8.88","3.17556","24.492","6.083","7.66","0.375","4.541","0.04","0.42","29.4984","4.68649","63.48","0","SATNPRO1509","31.824","0.44574","5"],
    [53318,"HCEP03730542","2025-04-05 15:45:00","8.8817","3.17543","24.409","6.106","7.66","0.402","4.42","0.08","0.25","29.4956","4.68605","63.72","0","SATNPRO1509","32.012","0.4484","5"],
    [53319,"HCEP03730542","2025-04-05 16:00:00","8.8815","3.1756","24.35","6.111","7.66","0.415","4.034","0.05","0.44","29.4976","4.68633","63.77","0","SATNPRO1509","32.074","0.44926","5"],
    [53320,"HCEP03730542","2025-04-05 16:15:00","8.8817","3.17566","24.308","6.106","7.66","0.433","4.096","0.17","0.24","29.4981","4.68639","63.72","0","SATNPRO1509","31.816","0.44564","5"],
    [53321,"HCEP03730542","2025-04-05 16:30:00","8.8822","3.17572","24.279","6.102","7.66","0.355","3.851","0.03","0.33","29.4983","4.68642","63.68","0","SATNPRO1509","31.976","0.44792","5"],
    [53322,"HCEP03730542","2025-04-05 16:45:00","8.8817","3.17575","24.284","6.089","7.66","0.327","3.454","0.05","0.19","29.499","4.68653","63.54","0","SATNPRO1509","32.12","0.44992","5"],
    [53323,"HCEP03730542","2025-04-05 17:00:00","8.8818","3.17583","24.323","6.085","7.66","0.385","4.308","0.08","0.28","29.4997","4.68663","63.5","0","SATNPRO1509","31.86","0.44628","5"],
    [53324,"HCEP03730542","2025-04-05 17:15:00","8.8824","3.17575","24.364","6.072","7.66","0.391","3.628","0.14","0.24","29.4984","4.68643","63.36","0","SATNPRO1509","31.668","0.44356","5"],
    [53325,"HCEP03730542","2025-04-05 17:30:00","8.8821","3.17586","24.4","6.079","7.66","0.397","3.914","0.15","0.24","29.4998","4.68664","63.44","0","SATNPRO1509","31.704","0.44406","5"],
    [53326,"HCEP03730542","2025-04-05 17:45:00","8.8817","3.17593","24.467","6.077","7.66","0.366","3.948","0.08","0.41","29.5007","4.68678","63.42","0","SATNPRO1509","31.944","0.4474","5"],
    [53327,"HCEP03730542","2025-04-05 18:00:00","8.883","3.1761","24.555","6.073","7.66","0.358","3.956","0.05","0.31","29.5014","4.68686","63.38","0","SATNPRO1509","31.91","0.44694","5"],
    [53328,"HCEP03730542","2025-04-05 18:15:00","8.8857","3.17626","24.639","6.061","7.66","0.36","3.98","0.05","0.29","29.5008","4.68674","63.26","0","SATNPRO1509","31.698","0.444","5"],
    [53329,"HCEP03730542","2025-04-05 18:30:00","8.8868","3.17663","24.749","6.033","7.66","0.37","4.184","0.05","0.21","29.5036","4.68712","62.97","0","SATNPRO1509","31.93","0.44726","5"],
    [53330,"HCEP03730542","2025-04-05 18:45:00","8.8896","3.1769","24.877","6.002","7.65","0.376","4.866","0.06","0.3","29.504","4.68714","62.65","0","SATNPRO1509","31.638","0.44314","5"],
    [53331,"HCEP03730542","2025-04-05 19:00:00","8.8927","3.1771","25.009","5.952","7.65","0.374","5.356","0.05","1","29.5035","4.68701","62.13","0","SATNPRO1509","31.626","0.44296","5"],
    [53332,"HCEP03730542","2025-04-05 19:15:00","8.8969","3.17726","25.153","5.916","7.65","0.351","5.781","0.04","1.54","29.5015","4.68666","61.76","0","SATNPRO1509","31.668","0.44358","5"],
    [53333,"HCEP03730542","2025-04-05 19:30:00","8.9018","3.17731","25.305","5.885","7.64","0.367","4.756","0.04","0.3","29.498","4.68606","61.44","0","SATNPRO1509","31.626","0.443","5"],
    [53334,"HCEP03730542","2025-04-05 19:45:00","8.9073","3.17732","25.46","5.842","7.64","0.367","4.272","0.04","0.47","29.4935","4.68531","61","0","SATNPRO1509","31.596","0.44256","5"],
    [53335,"HCEP03730542","2025-04-05 20:00:00","8.903","3.17742","25.624","5.835","7.64","0.412","4.8","0.07","0.66","29.4979","4.68604","60.92","0","SATNPRO1509","31.614","0.44282","5"],
    [53336,"HCEP03730542","2025-04-05 20:15:00","8.9106","3.17708","25.809","5.837","7.64","0.359","3.883","0.05","0.81","29.4881","4.6845","60.94","0","SATNPRO1509","31.573999999999998","0.44222","5"],
    [53337,"HCEP03730542","2025-04-05 20:30:00","8.9159","3.17715","25.98","5.782","7.64","0.387","5.623","0.06","2.2","29.4842","4.68386","60.38","0","SATNPRO1509","31.55","0.44192","5"],
    [53338,"HCEP03730542","2025-04-05 20:45:00","8.9151","3.17699","26.178","5.76","7.64","0.344","3.772","0.04","0.23","29.4832","4.68374","60.15","0","SATNPRO1509","31.574","0.44222","5"],
    [53339,"HCEP03730542","2025-04-05 21:00:00","8.8906","3.1771","26.361","5.771","7.64","0.365","5.592","0.04","0.27","29.5046","4.68729","60.24","0","SATNPRO1509","31.362000000000002","0.43924","5"],
    [53340,"HCEP03730542","2025-04-05 21:15:00","8.8891","3.177","26.539","5.861","7.64","0.371","6.204","0.05","0.62","29.5049","4.68736","61.17","0","SATNPRO1509","31.477999999999998","0.44092","5"],
    [53341,"HCEP03730542","2025-04-05 21:30:00","8.8893","3.17685","26.709","5.895","7.64","0.368","5.861","0.06","0.43","29.503","4.68711","61.53","0","SATNPRO1509","31.398","0.4398","5"],
    [53342,"HCEP03730542","2025-04-05 21:45:00","8.8871","3.17686","26.858","5.927","7.65","0.393","6.645","0.05","0.61","29.5049","4.68743","61.86","0","SATNPRO1509","31.588","0.44244","5"],
    [53343,"HCEP03730542","2025-04-05 22:00:00","8.8862","3.17678","26.985","5.94","7.65","0.361","5.769","0.04","0.28","29.5048","4.68743","61.99","0","SATNPRO1509","31.504","0.4413","5"],
    [53344,"HCEP03730542","2025-04-05 22:15:00","8.8863","3.17662","27.127","5.963","7.65","0.357","4.157","0.04","0.27","29.503","4.68718","62.23","0","SATNPRO1509","31.688","0.44382","5"],
    [53345,"HCEP03730542","2025-04-05 22:30:00","8.8867","3.17672","27.252","5.984","7.65","0.425","4.4","0.13","0.35","29.5036","4.68726","62.45","0","SATNPRO1509","31.628","0.44298","5"],
    [53346,"HCEP03730542","2025-04-05 22:45:00","8.8868","3.1768","27.369","5.969","7.65","0.357","3.858","0.08","0.24","29.5043","4.68737","62.3","0","SATNPRO1509","31.456","0.4406","5"],
    [53347,"HCEP03730542","2025-04-05 23:00:00","8.8878","3.17651","27.48","5.974","7.65","0.321","3.475","0.04","0.32","29.5004","4.68681","62.35","0","SATNPRO1509","31.872","0.44642","5"],
    [53348,"HCEP03730542","2025-04-05 23:15:00","8.8881","3.17635","27.571","6","7.65","0.334","3.065","0.04","0.25","29.4985","4.68652","62.62","0","SATNPRO1509","32.03","0.44866","5"],
    [53349,"HCEP03730542","2025-04-05 23:30:00","8.8872","3.17616","27.634","6.014","7.65","0.337","3.004","0.03","0.38","29.4973","4.68637","62.76","0","SATNPRO1509","32.025999999999996","0.44854","5"],
    [53350,"HCEP03730542","2025-04-05 23:45:00","8.8894","3.17556","27.678","6.031","7.66","0.409","3.537","0.05","0.25","29.4893","4.68519","62.94","0","SATNPRO1509","31.97","0.44782","5"],
    [53351,"HCEP03730542","2025-04-06 00:00:00","8.8868","3.1768","27.724","6.023","7.65","0.374","5.239","0.05","0.18","29.5041","4.68737","62.87","0","SATNPRO1509","31.488","0.44104","5"],
    [53352,"HCEP03730542","2025-04-06 00:15:00","8.8861","3.17627","27.764","5.978","7.65","0.391","4.998","0.06","0.26","29.4993","4.68669","62.39","0","SATNPRO1509","31.744","0.4446","5"],
    [53353,"HCEP03730542","2025-04-06 00:30:00","8.8912","3.17575","27.788","5.99","7.65","0.433","3.136","0.15","0.08","29.4897","4.68522","62.52","0","SATNPRO1509","31.998","0.44818","5"],
    [53354,"HCEP03730542","2025-04-06 00:45:00","8.8925","3.17597","27.773","6.016","7.65","0.379","3.507","0.06","0.25","29.4909","4.68536","62.79","0","SATNPRO1509","31.982","0.44794","5"],
    [53355,"HCEP03730542","2025-04-06 01:00:00","8.8864","3.17604","27.757","6.025","7.66","0.374","2.98","0.04","0.32","29.4967","4.68631","62.88","0","SATNPRO1509","31.978","0.44788","5"],
    [53356,"HCEP03730542","2025-04-06 01:15:00","8.8814","3.17632","27.769","6.031","7.65","0.352","4.306","0.05","0.41","29.5037","4.68741","62.93","0","SATNPRO1509","31.686","0.44378","5"],
    [53357,"HCEP03730542","2025-04-06 01:30:00","8.8799","3.17626","27.763","6.026","7.65","0.349","4.135","0.04","0.34","29.5043","4.68753","62.88","0","SATNPRO1509","31.648","0.44328","5"],
    [53358,"HCEP03730542","2025-04-06 01:45:00","8.8798","3.17607","27.729","6.033","7.66","0.351","3.815","0.06","0.19","29.5025","4.68727","62.95","0","SATNPRO1509","31.98","0.44794","5"],
    [53359,"HCEP03730542","2025-04-06 02:00:00","8.8794","3.17621","27.708","6.047","7.66","0.372","4.399","0.08","0.23","29.5042","4.68752","63.1","0","SATNPRO1509","31.568","0.44214","5"],
    [53360,"HCEP03730542","2025-04-06 02:15:00","8.8808","3.17605","27.664","6.034","7.66","0.352","3.725","0.06","0.23","29.5014","4.68709","62.97","0","SATNPRO1509","31.740000000000002","0.44454","5"],
    [53361,"HCEP03730542","2025-04-06 02:30:00","8.8802","3.17615","27.61","6.032","7.65","0.396","5.125","0.06","0.3","29.503","4.68732","62.94","0","SATNPRO1509","31.676","0.44368","5"],
    [53362,"HCEP03730542","2025-04-06 02:45:00","8.8815","3.17624","27.554","6.019","7.65","0.373","5.741","0.08","0.21","29.5028","4.68727","62.82","0","SATNPRO1509","31.66","0.4435","5"],
    [53363,"HCEP03730542","2025-04-06 03:00:00","8.8841","3.17628","27.49","5.994","7.65","0.357","5.776","0.03","0.54","29.5011","4.68698","62.56","0","SATNPRO1509","31.598","0.4426","5"],
    [53364,"HCEP03730542","2025-04-06 03:15:00","8.8877","3.17633","27.424","5.966","7.65","0.374","4.458","0.05","0.39","29.4987","4.68655","62.27","0","SATNPRO1509","31.668","0.44356","5"],
    [53365,"HCEP03730542","2025-04-06 03:30:00","8.8919","3.17642","27.353","5.934","7.65","0.385","4.144","0.07","0.21","29.4961","4.6861","61.93","0","SATNPRO1509","31.55","0.44192","5"],
    [53366,"HCEP03730542","2025-04-06 03:45:00","8.8926","3.17646","27.262","5.905","7.64","0.361","4.049","0.07","0.15","29.4961","4.68607","61.63","0","SATNPRO1509","31.508","0.44132","5"],
    [53367,"HCEP03730542","2025-04-06 04:00:00","8.8974","3.1766","27.17","5.881","7.64","0.342","3.96","0.02","0.2","29.4935","4.68561","61.38","0","SATNPRO1509","31.576","0.4423","5"],
    [53368,"HCEP03730542","2025-04-06 04:15:00","8.8994","3.17676","27.091","5.852","7.64","0.337","3.876","0.03","0.16","29.4936","4.68558","61.09","0","SATNPRO1509","31.534","0.44168","5"],
    [53369,"HCEP03730542","2025-04-06 04:30:00","8.9018","3.17686","27.011","5.828","7.64","0.321","3.85","0.03","0.32","29.4926","4.68539","60.84","0","SATNPRO1509","31.518","0.44144","5"],
    [53370,"HCEP03730542","2025-04-06 04:45:00","8.9017","3.1768","26.921","5.809","7.64","0.338","4.321","0.03","0.19","29.492","4.6853","60.65","0","SATNPRO1509","31.588","0.44244","5"],
    [53371,"HCEP03730542","2025-04-06 05:00:00","8.9018","3.17684","26.822","5.803","7.64","0.387","4.399","0.09","0.21","29.4924","4.68535","60.59","0","SATNPRO1509","31.528","0.44162","5"],
    [53372,"HCEP03730542","2025-04-06 05:15:00","8.9028","3.17689","26.742","5.79","7.64","0.413","4.425","0.11","0.22","29.4922","4.6853","60.45","0","SATNPRO1509","31.688","0.4438","5"],
    [53373,"HCEP03730542","2025-04-06 05:30:00","8.9033","3.17688","26.675","5.777","7.63","0.372","4.487","0.03","0.33","29.4917","4.68521","60.31","0","SATNPRO1509","31.608","0.44272","5"],
    [53374,"HCEP03730542","2025-04-06 05:45:00","8.9051","3.17691","26.607","5.768","7.63","0.375","4.869","0.04","1.02","29.4905","4.685","60.22","0","SATNPRO1509","31.358","0.43922","5"],
    [53375,"HCEP03730542","2025-04-06 06:00:00","8.9081","3.17694","26.579","5.75","7.63","0.476","7.691","0.23","7.18","29.4884","4.68464","60.03","0","SATNPRO1509","31.47","0.4408","5"],
    [53376,"HCEP03730542","2025-04-06 06:15:00","8.9081","3.1771","26.544","5.729","7.63","0.365","5.273","0.05","0.49","29.49","4.68486","59.82","0","SATNPRO1509","31.388","0.43966","5"],
    [53377,"HCEP03730542","2025-04-06 06:30:00","8.9087","3.17718","26.508","5.702","7.63","0.397","6.283","0.04","0.4","29.4903","4.6849","59.53","0","SATNPRO1509","31.386","0.43958","5"],
    [53378,"HCEP03730542","2025-04-06 06:45:00","8.9094","3.17722","26.501","5.666","7.63","0.383","5.961","0.04","0.75","29.4902","4.68487","59.16","0","SATNPRO1509","31.244","0.43762","5"],
    [53379,"HCEP03730542","2025-04-06 07:00:00","8.911","3.1773","26.469","5.644","7.62","0.384","6.016","0.04","0.23","29.4897","4.68476","58.93","0","SATNPRO1509","31.21","0.43716","5"],
    [53380,"HCEP03730542","2025-04-06 07:15:00","8.913","3.17741","26.485","5.624","7.62","0.382","6.484","0.03","0.45","29.4892","4.68465","58.72","0","SATNPRO1509","31.198","0.43696","5"],
    [53381,"HCEP03730542","2025-04-06 07:30:00","8.9146","3.17751","26.501","5.603","7.62","0.38","6.427","0.03","0.39","29.4888","4.68457","58.5","0","SATNPRO1509","31.112","0.43578","5"],
    [53382,"HCEP03730542","2025-04-06 07:45:00","8.9161","3.1776","26.513","5.571","7.62","0.398","9.72","0.05","2.41","29.4885","4.68449","58.18","0","SATNPRO1509","30.97","0.43378","5"],
    [53383,"HCEP03730542","2025-04-06 08:00:00","8.9189","3.17772","26.531","5.54","7.62","0.388","6.429","0.04","0.45","29.4874","4.68429","57.85","0","SATNPRO1509","31.076","0.4353","5"],
    [53384,"HCEP03730542","2025-04-06 08:15:00","8.9216","3.1779","26.576","5.515","7.61","0.396","7.496","0.03","0.69","29.4871","4.68419","57.59","0","SATNPRO1509","31.09","0.43544","5"],
    [53385,"HCEP03730542","2025-04-06 08:30:00","8.9254","3.17813","26.582","5.477","7.61","0.402","7.48","0.03","0.91","29.4862","4.68399","57.21","0","SATNPRO1509","30.918","0.43308","5"],
    [53386,"HCEP03730542","2025-04-06 08:45:00","8.9311","3.1785","26.592","5.425","7.6","0.392","7.671","0.04","1.29","29.4853","4.68375","56.67","0","SATNPRO1509","30.882","0.43256","5"],
    [53387,"HCEP03730542","2025-04-06 09:00:00","8.9354","3.17877","26.597","5.351","7.6","0.403","8.434","0.04","2.41","29.4845","4.68355","55.9","0","SATNPRO1509","30.736","0.4305","5"],
    [53388,"HCEP03730542","2025-04-06 09:15:00","8.9374","3.17885","26.656","5.289","7.6","0.387","7.463","0.04","1.74","29.4836","4.6834","55.25","0","SATNPRO1509","30.76","0.43088","5"],
    [53389,"HCEP03730542","2025-04-06 09:30:00","8.938","3.1789","26.653","5.262","7.6","0.394","9.639","0.05","5.91","29.4836","4.68339","54.97","0","SATNPRO1509","30.862","0.43224","5"],
    [53390,"HCEP03730542","2025-04-06 09:45:00","8.9363","3.17877","26.691","5.256","7.6","0.389","10.166","0.04","6.69","29.4837","4.68344","54.91","0","SATNPRO1509","30.958","0.4336","5"],
    [53391,"HCEP03730542","2025-04-06 10:00:00","8.9348","3.17872","26.721","5.292","7.6","0.377","6.704","0.07","0.36","29.4845","4.68357","55.28","0","SATNPRO1509","30.86","0.4322","5"],
    [53392,"HCEP03730542","2025-04-06 10:15:00","8.9344","3.17871","26.742","5.3","7.6","0.384","6.686","0.06","0.29","29.4846","4.6836","55.37","0","SATNPRO1509","30.832","0.43184","5"],
    [53393,"HCEP03730542","2025-04-06 10:30:00","8.9344","3.17873","26.761","5.298","7.6","0.394","7.433","0.09","0.42","29.4848","4.68364","55.34","0","SATNPRO1509","30.82","0.43168","5"],
    [53394,"HCEP03730542","2025-04-06 10:45:00","8.9333","3.17868","26.791","5.29","7.6","0.4","7.028","0.05","0.36","29.4853","4.68372","55.26","0","SATNPRO1509","30.694","0.42992","5"],
    [53395,"HCEP03730542","2025-04-06 11:00:00","8.9276","3.1784","26.83","5.306","7.6","0.419","6.943","0.12","0.39","29.487","4.68409","55.42","0","SATNPRO1509","30.996","0.43414","5"],
    [53396,"HCEP03730542","2025-04-06 11:15:00","8.9319","3.17872","26.775","5.355","7.6","0.391","7.641","0.04","0.63","29.4869","4.68398","55.94","0","SATNPRO1509","30.814","0.43158","5"],
    [53397,"HCEP03730542","2025-04-06 11:30:00","8.9272","3.17847","26.76","5.318","7.6","0.422","7.027","0.07","0.52","29.4881","4.68425","55.55","0","SATNPRO1509","30.944","0.4334","5"],
    [53398,"HCEP03730542","2025-04-06 11:45:00","8.9254","3.1784","26.743","5.353","7.6","0.386","6.714","0.05","0.3","29.4889","4.6844","55.91","0","SATNPRO1509","30.874","0.43242","5"],
    [53399,"HCEP03730542","2025-04-06 12:00:00","8.9243","3.17837","26.716","5.382","7.6","0.42","7.172","0.06","1.13","29.4895","4.6845","56.21","0","SATNPRO1509","30.972","0.4338","5"],
    [53400,"HCEP03730542","2025-04-06 12:15:00","8.9269","3.1785","26.679","5.387","7.6","0.441","7.587","0.05","0.62","29.4888","4.68434","56.27","0","SATNPRO1509","30.721999999999998","0.4303","5"],
    [53401,"HCEP03730542","2025-04-06 12:30:00","8.9261","3.17849","26.645","5.356","7.6","0.403","7.141","0.04","0.44","29.4893","4.68442","55.94","0","SATNPRO1509","30.814","0.4316","5"],
    [53402,"HCEP03730542","2025-04-06 12:45:00","8.9276","3.17852","26.589","5.354","7.6","0.423","8.743","0.05","1.5","29.4884","4.68427","55.92","0","SATNPRO1509","30.888","0.43262","5"],
    [53403,"HCEP03730542","2025-04-06 13:00:00","8.9315","3.17866","26.531","5.34","7.6","0.519","8.879","0.04","1.77","29.4866","4.68394","55.78","0","SATNPRO1509","30.752","0.43072","5"],
    [53404,"HCEP03730542","2025-04-06 13:15:00","8.9319","3.17862","26.439","5.304","7.6","0.54","9.492","0.04","1.17","29.4859","4.68381","55.41","0","SATNPRO1509","30.756","0.43078","5"],
    [53405,"HCEP03730542","2025-04-06 13:30:00","8.9304","3.1785","26.275","5.305","7.6","0.464","8.089","0.07","1.09","29.486","4.68384","55.41","0","SATNPRO1509","30.884","0.43256","5"],
    [53406,"HCEP03730542","2025-04-06 13:45:00","8.9313","3.17846","26.211","5.322","7.6","0.496","8.036","0.03","1.27","29.4848","4.68366","55.59","0","SATNPRO1509","30.924","0.43318","5"],
    [53407,"HCEP03730542","2025-04-06 14:00:00","8.9312","3.17828","26.085","5.322","7.6","0.428","7.399","0.06","1.24","29.4831","4.68341","55.59","0","SATNPRO1509","31.002","0.43424","5"],
    [53408,"HCEP03730542","2025-04-06 14:15:00","8.9294","3.17813","25.955","5.344","7.6","0.353","6.069","0.04","0.14","29.4831","4.68343","55.83","0","SATNPRO1509","30.844","0.43198","5"],
    [53409,"HCEP03730542","2025-04-06 14:30:00","8.9287","3.17803","25.82","5.377","7.6","0.353","5.66","0.03","0.13","29.4828","4.6834","56.17","0","SATNPRO1509","31.026","0.43454","5"],
    [53410,"HCEP03730542","2025-04-06 14:45:00","8.9273","3.17784","25.658","5.407","7.61","0.346","5.617","0.02","0.18","29.4821","4.68332","56.47","0","SATNPRO1509","31.116","0.43584","5"],
    [53411,"HCEP03730542","2025-04-06 15:00:00","8.9274","3.1779","25.607","5.427","7.61","0.336","5.548","0.02","0.14","29.4826","4.68338","56.68","0","SATNPRO1509","31.092","0.43548","5"],
    [53412,"HCEP03730542","2025-04-06 15:15:00","8.9264","3.17776","25.374","5.406","7.6","0.338","5.521","0.02","0.21","29.4821","4.68331","56.47","0","SATNPRO1509","31.088","0.4354","5"],
    [53413,"HCEP03730542","2025-04-06 15:30:00","8.9229","3.17751","25.325","5.417","7.61","0.337","5.599","0.02","0.45","29.4824","4.68342","56.57","0","SATNPRO1509","31.044","0.43482","5"],
    [53414,"HCEP03730542","2025-04-06 15:45:00","8.92","3.17748","25.169","5.448","7.61","0.339","5.909","0.02","0.15","29.4847","4.68379","56.89","0","SATNPRO1509","31.124","0.43592","5"],
    [53415,"HCEP03730542","2025-04-06 16:00:00","8.9159","3.17712","25.066","5.478","7.61","0.334","5.461","0.02","0.14","29.4844","4.68382","57.21","0","SATNPRO1509","31.238","0.43752","5"],
    [53416,"HCEP03730542","2025-04-06 16:15:00","8.9172","3.17702","24.971","5.532","7.61","0.335","5.18","0.02","0.11","29.4823","4.68349","57.76","0","SATNPRO1509","31.41","0.43998","5"],
    [53417,"HCEP03730542","2025-04-06 16:30:00","8.915","3.17671","24.806","5.562","7.62","0.34","4.8","0.02","0.23","29.4811","4.68335","58.08","0","SATNPRO1509","31.7","0.44404","5"],
    [53418,"HCEP03730542","2025-04-06 16:45:00","8.9122","3.17643","24.735","5.628","7.62","0.329","4.556","0.03","0.18","29.4805","4.68332","58.76","0","SATNPRO1509","31.73","0.44444","5"],
    [53419,"HCEP03730542","2025-04-06 17:00:00","8.9076","3.17626","24.641","5.688","7.63","0.349","5.361","0.03","0.61","29.4826","4.6837","59.38","0","SATNPRO1509","31.62","0.44288","5"],
    [53420,"HCEP03730542","2025-04-06 17:15:00","8.9037","3.17636","24.612","5.714","7.63","0.359","5.873","0.04","0.7","29.4869","4.68439","59.66","0","SATNPRO1509","31.456","0.44058","5"],
    [53421,"HCEP03730542","2025-04-06 17:30:00","8.9045","3.17651","24.561","5.711","7.63","0.355","6.035","0.04","0.29","29.4877","4.68448","59.62","0","SATNPRO1509","31.288","0.43824","5"],
    [53422,"HCEP03730542","2025-04-06 17:45:00","8.9103","3.17662","24.556","5.688","7.62","0.354","5.999","0.03","0.27","29.4841","4.68386","59.38","0","SATNPRO1509","31.398","0.43978","5"],
    [53423,"HCEP03730542","2025-04-06 18:00:00","8.9193","3.17657","24.526","5.64","7.62","0.384","6.112","0.05","0.45","29.4761","4.68253","58.9","0","SATNPRO1509","31.374","0.43946","5"],
    [53424,"HCEP03730542","2025-04-06 18:15:00","8.9268","3.17647","24.503","5.582","7.62","0.35","5.651","0.03","0.24","29.4689","4.68137","58.29","0","SATNPRO1509","31.438","0.44034","5"],
    [53425,"HCEP03730542","2025-04-06 18:30:00","8.9334","3.17626","24.539","5.534","7.61","0.371","5.908","0.03","0.68","29.4613","4.68014","57.8","0","SATNPRO1509","31.376","0.43946","5"],
    [53426,"HCEP03730542","2025-04-06 18:45:00","8.9367","3.17609","24.604","5.488","7.61","0.366","5.7","0.03","0.25","29.4567","4.67943","57.32","0","SATNPRO1509","31.358","0.43924","5"],
    [53427,"HCEP03730542","2025-04-06 19:00:00","8.9402","3.17589","24.683","5.458","7.61","0.388","6","0.04","1.55","29.4518","4.67866","57.01","0","SATNPRO1509","31.386","0.43964","5"],
    [53428,"HCEP03730542","2025-04-06 19:15:00","8.9429","3.17577","24.765","5.427","7.61","0.384","6.019","0.03","1.28","29.4482","4.6781","56.69","0","SATNPRO1509","31.444","0.4404","5"],
    [53429,"HCEP03730542","2025-04-06 19:30:00","8.9458","3.17562","24.866","5.395","7.6","0.377","4.933","0.04","0.25","29.4444","4.6775","56.36","0","SATNPRO1509","31.506","0.4413","5"],
    [53430,"HCEP03730542","2025-04-06 19:45:00","8.9474","3.17556","24.972","5.365","7.6","0.372","5.022","0.04","0.47","29.4424","4.67719","56.05","0","SATNPRO1509","31.52","0.44152","5"],
    [53431,"HCEP03730542","2025-04-06 20:00:00","8.9482","3.17556","25.069","5.346","7.6","0.38","4.926","0.04","0.28","29.4416","4.67706","55.85","0","SATNPRO1509","31.186","0.43684","5"],
    [53432,"HCEP03730542","2025-04-06 20:15:00","8.9486","3.17557","25.168","5.327","7.6","0.394","5.123","0.04","0.31","29.4413","4.67703","55.65","0","SATNPRO1509","31.374","0.43946","5"],
    [53433,"HCEP03730542","2025-04-06 20:30:00","8.95","3.17557","25.308","5.307","7.6","0.384","4.993","0.05","0.39","29.4401","4.67683","55.44","0","SATNPRO1509","31.438","0.44032","5"],
    [53434,"HCEP03730542","2025-04-06 20:45:00","8.9513","3.17551","25.44","5.283","7.59","0.429","5.942","0.1","0.44","29.4384","4.67657","55.19","0","SATNPRO1509","31.548","0.44188","5"],
    [53435,"HCEP03730542","2025-04-06 21:00:00","8.9507","3.17555","25.596","5.262","7.59","0.509","6.723","0.13","0.56","29.4392","4.67671","54.98","0","SATNPRO1509","31.242","0.43758","5"],
    [53436,"HCEP03730542","2025-04-06 21:15:00","8.9484","3.17567","25.741","5.276","7.6","0.372","5.195","0.05","0.6","29.4423","4.67721","55.12","0","SATNPRO1509","31.29","0.43828","5"],
    [53437,"HCEP03730542","2025-04-06 21:30:00","8.9453","3.17586","25.908","5.299","7.6","0.396","5.196","0.09","0.66","29.4467","4.6779","55.36","0","SATNPRO1509","31.384","0.4396","5"],
    [53438,"HCEP03730542","2025-04-06 21:45:00","8.9464","3.17571","26.075","5.326","7.6","0.359","4.828","0.03","0.29","29.4442","4.67753","55.64","0","SATNPRO1509","31.356","0.43918","5"],
    [53439,"HCEP03730542","2025-04-06 22:00:00","8.9424","3.17594","26.238","5.342","7.6","0.383","5.109","0.04","0.45","29.4499","4.67843","55.81","0","SATNPRO1509","31.318","0.43866","5"],
    [53440,"HCEP03730542","2025-04-06 22:15:00","8.9395","3.17608","26.43","5.376","7.6","0.38","5.031","0.05","0.34","29.4535","4.67903","56.16","0","SATNPRO1509","31.418","0.44008","5"],
    [53441,"HCEP03730542","2025-04-06 22:30:00","8.9392","3.17607","26.609","5.405","7.6","0.345","4.35","0.03","0.3","29.4536","4.67905","56.46","0","SATNPRO1509","31.656","0.44334","5"],
    [53442,"HCEP03730542","2025-04-06 22:45:00","8.9384","3.17614","26.789","5.426","7.6","0.393","4.953","0.09","0.47","29.4549","4.67927","56.68","0","SATNPRO1509","31.468","0.44078","5"],
    [53443,"HCEP03730542","2025-04-06 23:00:00","8.9426","3.17599","26.943","5.421","7.6","0.397","5.299","0.06","0.48","29.4499","4.67847","56.63","0","SATNPRO1509","31.464","0.44074","5"],
    [53444,"HCEP03730542","2025-04-06 23:15:00","8.9474","3.17577","27.087","5.38","7.6","0.361","4.303","0.06","0.2","29.4435","4.67748","56.21","0","SATNPRO1509","31.322","0.43874","5"],
    [53445,"HCEP03730542","2025-04-06 23:30:00","8.9496","3.17569","27.237","5.338","7.6","0.371","4.281","0.06","0.6","29.4409","4.67707","55.77","0","SATNPRO1509","32.144","0.45024","5"],
    [53446,"HCEP03730542","2025-04-06 23:45:00","8.9477","3.17606","27.371","5.297","7.59","0.406","6.984","0.08","0.53","29.4462","4.67787","55.34","0","SATNPRO1509","31.12","0.43592","5"],
    [53447,"HCEP03730542","2025-04-07 00:00:00","8.9518","3.17554","27.482","5.259","7.59","0.368","4.162","0.05","0.26","29.4374","4.67654","54.94","0","SATNPRO1509","31.47","0.4408","5"],
    [53448,"HCEP03730542","2025-04-07 00:15:00","8.9499","3.17602","27.57","5.264","7.59","0.389","7.442","0.05","0.55","29.444","4.67752","55","0","SATNPRO1509","31.150000000000002","0.4363","5"],
    [53449,"HCEP03730542","2025-04-07 00:30:00","8.9523","3.17562","27.638","5.23","7.59","0.371","6.408","0.02","0.34","29.4378","4.6766","54.64","0","SATNPRO1509","31.262","0.4379","5"],
    [53450,"HCEP03730542","2025-04-07 00:45:00","8.9501","3.17594","27.703","5.23","7.59","0.382","7.71","0.05","1.85","29.4428","4.67736","54.64","0","SATNPRO1509","31.189999999999998","0.43686","5"],
    [53451,"HCEP03730542","2025-04-07 01:00:00","8.9398","3.17664","27.72","5.208","7.59","0.403","7.945","0.05","0.44","29.4585","4.67981","54.4","0","SATNPRO1509","30.818","0.43166","5"],
    [53452,"HCEP03730542","2025-04-07 01:15:00","8.9387","3.17662","27.737","5.251","7.59","0.464","8.783","0.08","2.41","29.4592","4.67994","54.85","0","SATNPRO1509","30.836","0.43188","5"],
    [53453,"HCEP03730542","2025-04-07 01:30:00","8.9462","3.17607","27.77","5.258","7.59","0.525","32.427","0.21","26.08","29.4474","4.6781","54.93","0","SATNPRO1509","31.1","0.43562","5"],
    [53454,"HCEP03730542","2025-04-07 01:45:00","8.9544","3.17543","27.788","5.249","7.59","0.367","4.624","0.06","0.98","29.4341","4.67603","54.84","0","SATNPRO1509","31.338","0.43896","5"],
    [53455,"HCEP03730542","2025-04-07 02:00:00","8.9341","3.17678","27.764","5.257","7.59","0.452","9.948","0.09","2.15","29.4647","4.68081","54.91","0","SATNPRO1509","31.004","0.43422","5"],
    [53456,"HCEP03730542","2025-04-07 02:15:00","8.9326","3.17677","27.776","5.299","7.6","0.423","7.466","0.08","1.16","29.4658","4.681","55.35","0","SATNPRO1509","31.02","0.43444","5"],
    [53457,"HCEP03730542","2025-04-07 02:30:00","8.9322","3.17665","27.735","5.33","7.6","0.411","9.722","0.05","3.12","29.4649","4.68087","55.67","0","SATNPRO1509","31.122","0.43592","5"],
    [53458,"HCEP03730542","2025-04-07 02:45:00","8.9332","3.17657","27.666","5.351","7.6","0.421","6.725","0.07","0.65","29.4633","4.68063","55.89","0","SATNPRO1509","31.214","0.43722","5"],
    [53459,"HCEP03730542","2025-04-07 03:00:00","8.9307","3.17664","27.613","5.368","7.6","0.404","7.006","0.05","1.93","29.4661","4.68107","56.07","0","SATNPRO1509","31.25","0.43768","5"],
    [53460,"HCEP03730542","2025-04-07 03:15:00","8.9315","3.17649","27.585","5.397","7.6","0.385","5.51","0.06","0.59","29.4639","4.68073","56.37","0","SATNPRO1509","31.334","0.43892","5"],
    [53461,"HCEP03730542","2025-04-07 03:30:00","8.9335","3.17638","27.502","5.428","7.6","0.416","7.22","0.06","1.52","29.4611","4.68029","56.69","0","SATNPRO1509","31.404","0.4399","5"],
    [53462,"HCEP03730542","2025-04-07 03:45:00","8.9336","3.17625","27.431","5.43","7.6","0.376","5.5","0.03","0.19","29.4598","4.6801","56.71","0","SATNPRO1509","31.362","0.43928","5"],
    [53463,"HCEP03730542","2025-04-07 04:00:00","8.9323","3.1763","27.356","5.427","7.6","0.478","7.947","0.11","2.53","29.4614","4.68035","56.69","0","SATNPRO1509","31.354","0.43918","5"],
    [53464,"HCEP03730542","2025-04-07 04:15:00","8.9293","3.17649","27.272","5.432","7.6","0.91","55.238","0.61","22.92","29.4659","4.68104","56.73","0","SATNPRO1509","31.264","0.4379","5"],
    [53465,"HCEP03730542","2025-04-07 04:30:00","8.9287","3.17662","27.177","5.433","7.6","3.84","516.576","0.86","106.15","29.4677","4.68131","56.74","0","SATNPRO1509","31.218","0.43728","5"],
    [53466,"HCEP03730542","2025-04-07 04:45:00","8.9306","3.17666","27.079","5.419","7.6","5.422","322.978","2.44","121.55","29.4667","4.68112","56.6","0","SATNPRO1509","31.01","0.43434","5"],
    [53467,"HCEP03730542","2025-04-07 05:00:00","8.9337","3.17663","26.988","5.379","7.6","2.365","417.111","1.16","219.49","29.4638","4.68065","56.18","0","SATNPRO1509","30.754","0.43078","5"],
    [53468,"HCEP03730542","2025-04-07 05:15:00","8.9395","3.17647","26.915","5.317","7.59","0.386","9.63","0.03","1.09","29.4574","4.67962","55.54","0","SATNPRO1509","30.535999999999998","0.42774","5"],
    [53469,"HCEP03730542","2025-04-07 05:30:00","8.9421","3.17643","26.802","5.25","7.59","13.705","763.111","4.39","210.14","29.4548","4.67918","54.85","0","SATNPRO1509","30.786","0.43126","5"],
    [53470,"HCEP03730542","2025-04-07 05:45:00","8.9409","3.17628","26.694","5.222","7.59","0.406","7.156","0.09","0.32","29.4543","4.67913","54.55","0","SATNPRO1509","30.868","0.43238","5"],
    [53471,"HCEP03730542","2025-04-07 06:00:00","8.9405","3.17607","26.608","5.243","7.59","0.411","7.073","0.03","0.33","29.4525","4.67887","54.77","0","SATNPRO1509","30.918","0.43308","5"],
    [53472,"HCEP03730542","2025-04-07 06:15:00","8.9399","3.17588","26.519","5.271","7.59","0.403","6.444","0.04","0.24","29.4511","4.67867","55.06","0","SATNPRO1509","30.968","0.43376","5"],
    [53473,"HCEP03730542","2025-04-07 06:30:00","8.9395","3.1757","26.429","5.302","7.6","0.406","5.674","0.04","0.21","29.4497","4.67847","55.39","0","SATNPRO1509","31.056","0.43496","5"],
    [53474,"HCEP03730542","2025-04-07 06:45:00","8.9384","3.17589","26.341","5.326","7.6","0.394","6.333","0.06","3.59","29.4526","4.6789","55.63","0","SATNPRO1509","31.122","0.43594","5"],
    [53475,"HCEP03730542","2025-04-07 07:00:00","8.9384","3.1761","26.281","5.334","7.6","0.398","6.117","0.05","0.18","29.4548","4.67922","55.72","0","SATNPRO1509","30.958","0.43364","5"],
    [53476,"HCEP03730542","2025-04-07 07:15:00","8.9372","3.17626","26.223","5.323","7.6","0.382","6.07","0.05","0.18","29.4574","4.67962","55.6","0","SATNPRO1509","30.996","0.43414","5"],
    [53477,"HCEP03730542","2025-04-07 07:30:00","8.9344","3.17646","26.205","5.323","7.6","0.385","5.915","0.03","0.16","29.4618","4.6803","55.6","0","SATNPRO1509","30.94","0.4334","5"],
    [53478,"HCEP03730542","2025-04-07 07:45:00","8.9341","3.17664","26.211","5.328","7.6","0.374","6.38","0.05","0.18","29.4639","4.68061","55.65","0","SATNPRO1509","30.954","0.4336","5"],
    [53479,"HCEP03730542","2025-04-07 08:00:00","8.9333","3.17668","26.175","5.318","7.6","0.398","7.043","0.04","0.44","29.465","4.68078","55.55","0","SATNPRO1509","31","0.43422","5"],
    [53480,"HCEP03730542","2025-04-07 08:15:00","8.9321","3.17655","26.176","5.328","7.6","0.435","9.721","0.14","6.64","29.4647","4.68075","55.65","0","SATNPRO1509","30.898","0.4328","5"],
    [53481,"HCEP03730542","2025-04-07 08:30:00","8.9317","3.17648","26.201","5.347","7.6","5.526","59.955","3.81","21.23","29.4642","4.68069","55.85","0","SATNPRO1509","30.97","0.4338","5"],
    [53482,"HCEP03730542","2025-04-07 08:45:00","8.9304","3.17643","26.258","5.348","7.6","0.349","6.233","0.02","0.16","29.4647","4.68079","55.85","0","SATNPRO1509","31.016000000000002","0.43446","5"],
    [53483,"HCEP03730542","2025-04-07 09:00:00","8.9294","3.17622","26.273","5.361","7.6","0.455","11.279","0.11","9.33","29.4635","4.68064","55.99","0","SATNPRO1509","30.986","0.43402","5"],
    [53484,"HCEP03730542","2025-04-07 09:15:00","8.9269","3.1759","26.28","5.379","7.6","0.387","5.999","0.04","0.3","29.4623","4.68051","56.18","0","SATNPRO1509","31.108","0.43578","5"],
    [53485,"HCEP03730542","2025-04-07 09:30:00","8.9244","3.17533","26.291","5.407","7.6","0.367","5.726","0.03","0.18","29.4584","4.68001","56.46","0","SATNPRO1509","31.218","0.43724","5"],
    [53486,"HCEP03730542","2025-04-07 09:45:00","8.9193","3.17503","26.37","5.451","7.61","0.354","5.104","0.03","0.22","29.4596","4.68027","56.92","0","SATNPRO1509","31.026","0.43456","5"],
    [53487,"HCEP03730542","2025-04-07 10:00:00","8.9128","3.17469","26.36","5.5","7.61","0.392","5.528","0.05","0.18","29.4614","4.68066","57.42","0","SATNPRO1509","30.998","0.43416","5"],
    [53488,"HCEP03730542","2025-04-07 10:15:00","8.9103","3.1745","26.437","5.531","7.61","0.375","6.041","0.04","0.32","29.4616","4.68073","57.75","0","SATNPRO1509","31.032","0.43466","5"],
    [53489,"HCEP03730542","2025-04-07 10:30:00","8.9086","3.17464","26.43","5.551","7.61","0.454","6.516","0.07","0.64","29.4644","4.68118","57.95","0","SATNPRO1509","30.926","0.43318","5"],
    [53490,"HCEP03730542","2025-04-07 10:45:00","8.9076","3.17468","26.509","5.546","7.61","0.412","18.677","0.05","13.42","29.4657","4.68138","57.89","0","SATNPRO1509","30.968","0.43374","5"],
    [53491,"HCEP03730542","2025-04-07 11:00:00","8.91","3.17481","26.552","5.542","7.61","0.387","5.805","0.05","0.33","29.4649","4.68122","57.86","0","SATNPRO1509","30.904","0.43286","5"],
    [53492,"HCEP03730542","2025-04-07 11:15:00","8.9186","3.17569","26.615","5.525","7.61","0.371","6.373","0.04","0.65","29.4668","4.68134","57.69","0","SATNPRO1509","31.262","0.43786","5"],
    [53493,"HCEP03730542","2025-04-07 11:30:00","8.9205","3.17599","26.686","5.445","7.61","0.426","6.38","0.08","0.24","29.4683","4.68153","56.86","0","SATNPRO1509","30.874000000000002","0.43246","5"],
    [53494,"HCEP03730542","2025-04-07 11:45:00","8.9207","3.17609","26.704","5.413","7.6","0.471","6.821","0.06","0.34","29.4691","4.68164","56.53","0","SATNPRO1509","30.988","0.43406","5"],
    [53495,"HCEP03730542","2025-04-07 12:00:00","8.9251","3.17676","26.758","5.384","7.6","0.421","7.203","0.04","0.34","29.4724","4.68202","56.23","0","SATNPRO1509","30.736","0.4305","5"],
    [53496,"HCEP03730542","2025-04-07 12:15:00","8.923","3.17657","26.782","5.338","7.6","0.392","6.69","0.05","0.38","29.4722","4.68203","55.74","0","SATNPRO1509","31.066","0.43512","5"],
    [53497,"HCEP03730542","2025-04-07 12:30:00","8.9168","3.17613","26.821","5.365","7.6","0.362","5.952","0.03","0.27","29.4727","4.68224","56.02","0","SATNPRO1509","31.178","0.4367","5"],
    [53498,"HCEP03730542","2025-04-07 12:45:00","8.9138","3.17591","26.804","5.434","7.61","0.379","5.65","0.04","0.3","29.473","4.68233","56.74","0","SATNPRO1509","31.084","0.43536","5"],
    [53499,"HCEP03730542","2025-04-07 13:00:00","8.9199","3.17639","26.816","5.465","7.61","0.368","6.238","0.04","0.18","29.4728","4.68219","57.06","0","SATNPRO1509","31.196","0.43694","5"],
    [53500,"HCEP03730542","2025-04-07 13:15:00","8.9244","3.17675","26.819","5.42","7.6","0.369","6.823","0.04","0.35","29.4728","4.6821","56.6","0","SATNPRO1509","30.99","0.43404","5"],
    [53501,"HCEP03730542","2025-04-07 13:30:00","8.9252","3.17681","26.757","5.367","7.6","0.379","6.807","0.03","0.5","29.4728","4.68209","56.05","0","SATNPRO1509","31.048","0.43488","5"],
    [53502,"HCEP03730542","2025-04-07 13:45:00","8.9246","3.17662","26.7","5.346","7.6","0.458","8.5","0.12","1.38","29.4713","4.68188","55.83","0","SATNPRO1509","31.09","0.43546","5"],
    [53503,"HCEP03730542","2025-04-07 14:00:00","8.9189","3.17598","26.59","5.365","7.6","0.375","6.6","0.04","0.53","29.4696","4.68173","56.02","0","SATNPRO1509","31.122","0.43594","5"],
    [53504,"HCEP03730542","2025-04-07 14:15:00","8.9099","3.175","26.531","5.444","7.61","0.404","5.922","0.05","0.26","29.467","4.68152","56.83","0","SATNPRO1509","31.268","0.43794","5"],
    [53505,"HCEP03730542","2025-04-07 14:30:00","8.9055","3.17443","26.464","5.54","7.61","0.354","5.138","0.03","0.22","29.4648","4.68129","57.83","0","SATNPRO1509","31.426","0.4402","5"],
    [53506,"HCEP03730542","2025-04-07 14:45:00","8.898","3.17345","26.422","5.619","7.62","0.389","5.727","0.03","0.54","29.461","4.68088","58.64","0","SATNPRO1509","31.422","0.4401","5"],
    [53507,"HCEP03730542","2025-04-07 15:00:00","8.901","3.17375","26.332","5.705","7.62","0.383","5.84","0.03","0.56","29.4616","4.68091","59.55","0","SATNPRO1509","31.468","0.44076","5"],
    [53508,"HCEP03730542","2025-04-07 15:15:00","8.9091","3.17429","26.213","5.69","7.62","0.412","6.583","0.03","0.57","29.4604","4.68058","59.4","0","SATNPRO1509","31.368","0.43932","5"],
    [53509,"HCEP03730542","2025-04-07 15:30:00","8.9163","3.17452","26.107","5.624","7.62","0.368","5.918","0.03","0.25","29.4569","4.67993","58.72","0","SATNPRO1509","31.438","0.44036","5"],
    [53510,"HCEP03730542","2025-04-07 15:45:00","8.9193","3.17455","25.957","5.576","7.62","0.359","6.329","0.03","0.57","29.4548","4.67956","58.22","0","SATNPRO1509","31.366","0.43932","5"],
    [53511,"HCEP03730542","2025-04-07 16:00:00","8.923400000000001","3.1742","25.775","5.558","7.62","0.416","5.942","0.06","0.4","29.4479","4.67849","58.03","0","SATNPRO1509","31.508","0.44132","5"],
    [53512,"HCEP03730542","2025-04-07 16:15:00","8.9279","3.17442","25.591","5.542","7.61","0.392","5.501","0.05","0.23","29.4465","4.67818","57.87","0","SATNPRO1509","31.366","0.43934","5"],
    [53513,"HCEP03730542","2025-04-07 16:30:00","8.9342","3.17425","25.468","5.49","7.61","0.423","6.061","0.03","0.24","29.4396","4.67706","57.34","0","SATNPRO1509","31.4","0.43984","5"],
    [53514,"HCEP03730542","2025-04-07 16:45:00","8.9422","3.17448","25.332","5.417","7.6","0.386","5.803","0.04","0.24","29.4353","4.6763","56.58","0","SATNPRO1509","31.38","0.43956","5"],
    [53515,"HCEP03730542","2025-04-07 17:00:00","8.9436","3.17491","25.237","5.362","7.6","0.421","5.496","0.05","0.38","29.4387","4.67674","56","0","SATNPRO1509","31.174","0.43664","5"],
    [53516,"HCEP03730542","2025-04-07 17:15:00","8.9439","3.17512","25.129","5.325","7.6","0.47","5.692","0.16","0.35","29.4407","4.67702","55.62","0","SATNPRO1509","31.154","0.43636","5"],
    [53517,"HCEP03730542","2025-04-07 17:30:00","8.9469","3.17498","25.011","5.299","7.6","0.395","5.821","0.03","0.38","29.4368","4.67639","55.35","0","SATNPRO1509","31.3","0.4384","5"],
    [53518,"HCEP03730542","2025-04-07 17:45:00","8.9476","3.175","24.909","5.279","7.59","0.43","5.838","0.07","0.48","29.4363","4.67631","55.14","0","SATNPRO1509","31.234","0.43744","5"],
    [53519,"HCEP03730542","2025-04-07 18:00:00","8.9482","3.17495","24.832","5.261","7.59","0.406","5.717","0.05","0.36","29.4354","4.67617","54.96","0","SATNPRO1509","31.264","0.43792","5"],
    [53520,"HCEP03730542","2025-04-07 18:15:00","8.9499","3.17471","24.762","5.255","7.59","0.394","5.047","0.06","0.31","29.4316","4.67558","54.9","0","SATNPRO1509","31.19","0.43686","5"],
    [53521,"HCEP03730542","2025-04-07 18:30:00","8.9516","3.17453","24.671","5.246","7.59","0.416","5.824","0.07","0.71","29.4284","4.67509","54.81","0","SATNPRO1509","31.154","0.43634","5"],
    [53522,"HCEP03730542","2025-04-07 18:45:00","8.9526","3.17441","24.601","5.236","7.59","0.454","6.869","0.1","0.7","29.4263","4.67476","54.7","0","SATNPRO1509","31.298000000000002","0.43838","5"],
    [53523,"HCEP03730542","2025-04-07 19:00:00","8.954","3.17426","24.605","5.22","7.59","0.423","5.656","0.09","0.45","29.4236","4.67435","54.53","0","SATNPRO1509","31.228","0.43742","5"],
    [53524,"HCEP03730542","2025-04-07 19:15:00","8.9539","3.17437","24.589","5.21","7.59","0.444","5.533","0.13","0.56","29.4249","4.67454","54.43","0","SATNPRO1509","31.246","0.43766","5"],
    [53525,"HCEP03730542","2025-04-07 19:30:00","8.9533","3.1744","24.637","5.186","7.59","0.431","5.543","0.1","0.96","29.4256","4.67465","54.18","0","SATNPRO1509","31.364","0.4393","5"],
    [53526,"HCEP03730542","2025-04-07 19:45:00","8.9543","3.17428","24.699","5.195","7.59","0.401","5.158","0.05","0.35","29.4236","4.67434","54.28","0","SATNPRO1509","31.32","0.43868","5"],
    [53527,"HCEP03730542","2025-04-07 20:00:00","8.9532","3.17442","24.777","5.193","7.59","0.447","5.326","0.1","0.38","29.4258","4.67469","54.25","0","SATNPRO1509","31.282","0.43812","5"],
    [53528,"HCEP03730542","2025-04-07 20:15:00","8.953","3.1744","24.849","5.203","7.59","0.395","5.54","0.06","0.4","29.4259","4.6747","54.36","0","SATNPRO1509","31.256","0.43778","5"],
    [53529,"HCEP03730542","2025-04-07 20:30:00","8.9544","3.17425","24.956","5.207","7.59","0.466","5.359","0.11","0.38","29.4231","4.67429","54.4","0","SATNPRO1509","31.221999999999998","0.43734","5"],
    [53530,"HCEP03730542","2025-04-07 20:45:00","8.9552","3.17417","25.046","5.204","7.59","0.419","5.32","0.05","0.49","29.4215","4.67405","54.37","0","SATNPRO1509","31.392","0.43972","5"],
    [53531,"HCEP03730542","2025-04-07 21:00:00","8.9547","3.17431","25.15","5.188","7.59","0.409","4.742","0.07","0.23","29.4234","4.67434","54.2","0","SATNPRO1509","31.136","0.43606","5"],
    [53532,"HCEP03730542","2025-04-07 21:15:00","8.9577","3.17394","25.28","5.187","7.59","0.394","4.77","0.06","0.37","29.417","4.67337","54.19","0","SATNPRO1509","31.078","0.43532","5"],
    [53533,"HCEP03730542","2025-04-07 21:30:00","8.958","3.17362","25.393","5.185","7.59","0.425","3.826","0.1","0.18","29.4134","4.67285","54.17","0","SATNPRO1509","31.35","0.43912","5"],
    [53534,"HCEP03730542","2025-04-07 21:45:00","8.9583","3.174","25.525","5.185","7.58","0.394","6.124","0.03","0.19","29.417","4.67337","54.17","0","SATNPRO1509","31.048000000000002","0.43492","5"],
    [53535,"HCEP03730542","2025-04-07 22:00:00","8.9591","3.17403","25.655","5.15","7.58","0.412","6.328","0.03","0.47","29.4167","4.67332","53.8","0","SATNPRO1509","31.028","0.43456","5"],
    [53536,"HCEP03730542","2025-04-07 22:15:00","8.9617","3.17359","25.814","5.11","7.58","0.411","5.529","0.03","0.91","29.4099","4.6723","53.39","0","SATNPRO1509","31.044","0.43486","5"],
    [53537,"HCEP03730542","2025-04-07 22:30:00","8.9607","3.17392","25.993","5.104","7.58","0.428","6.314","0.06","0.8","29.414","4.67293","53.33","0","SATNPRO1509","31.012","0.4344","5"],
    [53538,"HCEP03730542","2025-04-07 22:45:00","8.9597","3.1741","26.154","5.084","7.58","0.397","5.773","0.04","0.21","29.4167","4.67334","53.12","0","SATNPRO1509","30.902","0.43282","5"],
    [53539,"HCEP03730542","2025-04-07 23:00:00","8.959","3.1741","26.341","5.083","7.58","0.443","6.059","0.05","0.73","29.4171","4.67342","53.1","0","SATNPRO1509","30.91","0.43296","5"],
    [53540,"HCEP03730542","2025-04-07 23:15:00","8.9597","3.17403","26.523","5.087","7.58","0.414","5.551","0.04","0.43","29.4159","4.67324","53.15","0","SATNPRO1509","30.990000000000002","0.43408","5"],
    [53541,"HCEP03730542","2025-04-07 23:30:00","8.9594","3.17414","26.666","5.09","7.58","0.403","5.468","0.04","0.28","29.4171","4.67344","53.18","0","SATNPRO1509","30.93","0.43324","5"],
    [53542,"HCEP03730542","2025-04-07 23:45:00","8.9619","3.17343","26.822","5.101","7.58","0.407","4.542","0.04","0.33","29.4077","4.67204","53.29","0","SATNPRO1509","31.008","0.43428","5"],
    [53543,"HCEP03730542","2025-04-08 00:00:00","8.9624","3.17323","27.016","5.136","7.58","0.413","4.218","0.06","0.19","29.4052","4.67168","53.66","0","SATNPRO1509","31.286","0.43818","5"],
    [53544,"HCEP03730542","2025-04-08 00:15:00","8.9624","3.17331","27.167","5.163","7.58","0.419","4.494","0.05","0.25","29.406","4.67181","53.94","0","SATNPRO1509","31.352","0.43914","5"],
    [53545,"HCEP03730542","2025-04-08 00:30:00","8.9611","3.17354","27.381","5.165","7.58","0.425","5.215","0.07","0.9","29.409300000000002","4.67232","53.96","0","SATNPRO1509","31.166","0.43658","5"],
    [53546,"HCEP03730542","2025-04-08 00:45:00","8.9598","3.17395","27.521","5.152","7.58","0.408","6.315","0.03","0.33","29.4145","4.6731","53.83","0","SATNPRO1509","31.058","0.435","5"],
    [53547,"HCEP03730542","2025-04-08 01:00:00","8.9568","3.17464","27.595","5.11","7.58","0.427","6.976","0.04","0.4","29.424","4.67452","53.39","0","SATNPRO1509","30.806","0.43152","5"],
    [53548,"HCEP03730542","2025-04-08 01:15:00","8.9557","3.17477","27.73","5.06","7.58","0.423","6.874","0.07","0.31","29.4263","4.67488","52.87","0","SATNPRO1509","30.884","0.43254","5"],
    [53549,"HCEP03730542","2025-04-08 01:30:00","8.9532","3.17434","27.782","5.068","7.58","0.411","6.777","0.04","0.32","29.4239","4.67459","52.95","0","SATNPRO1509","30.946","0.43342","5"],
    [53550,"HCEP03730542","2025-04-08 01:45:00","8.9493","3.17408","27.693","5.102","7.58","0.389","6.918","0.03","0.23","29.4244","4.67474","53.29","0","SATNPRO1509","30.944","0.43342","5"],
    [53551,"HCEP03730542","2025-04-08 02:00:00","8.9514","3.1744","27.79","5.125","7.58","0.427","7.342","0.05","0.43","29.426","4.67492","53.54","0","SATNPRO1509","31.008","0.43434","5"],
    [53552,"HCEP03730542","2025-04-08 02:15:00","8.9538","3.17452","27.69","5.135","7.58","1.982","63.866","1.26","26.73","29.4253","4.67477","53.65","0","SATNPRO1509","31.142","0.43616","5"],
    [53553,"HCEP03730542","2025-04-08 02:30:00","8.9513","3.17487","27.706","5.163","7.58","1.98","268.425","1.17","143.08","29.4308","4.67562","53.94","0","SATNPRO1509","31.124","0.43594","5"],
    [53554,"HCEP03730542","2025-04-08 02:45:00","8.9449","3.17401","27.668","5.182","7.59","0.907","19.82","0.87","11.41","29.4273","4.67524","54.13","0","SATNPRO1509","31.044","0.43482","5"],
    [53555,"HCEP03730542","2025-04-08 03:00:00","8.9431","3.17375","27.664","5.243","7.59","0.981","24.306","0.13","24.38","29.4262","4.6751","54.76","0","SATNPRO1509","30.91","0.43298","5"],
    [53556,"HCEP03730542","2025-04-08 03:15:00","8.9409","3.17341","27.594","5.25","7.59","1.45","54.453","0.41","18.77","29.4246","4.67491","54.84","0","SATNPRO1509","30.918","0.43304","5"],
    [53557,"HCEP03730542","2025-04-08 03:30:00","8.9385","3.17343","27.543","5.272","7.59","1.395","142.375","0.8","100.8","29.4267","4.67525","55.06","0","SATNPRO1509","31","0.4342","5"],
    [53558,"HCEP03730542","2025-04-08 03:45:00","8.9356","3.17354","27.53","5.339","7.6","1.744","34.865","0.33","20.26","29.4303","4.67583","55.76","0","SATNPRO1509","31.024","0.43458","5"],
    [53559,"HCEP03730542","2025-04-08 04:00:00","8.9326","3.17341","27.512","5.348","7.6","0.815","47.728","0.36","29.31","29.4315","4.67606","55.85","0","SATNPRO1509","30.945999999999998","0.43342","5"],
    [53560,"HCEP03730542","2025-04-08 04:15:00","8.9334","3.17367","27.377","5.353","7.6","1.169","450.312","0.4","101.58","29.4336","4.67633","55.9","0","SATNPRO1509","30.998","0.43416","5"],
    [53561,"HCEP03730542","2025-04-08 04:30:00","8.9335","3.17386","27.377","5.334","7.6","2.279","447.248","1.94","226.98","29.4353","4.67658","55.7","0","SATNPRO1509","30.962","0.43366","5"],
    [53562,"HCEP03730542","2025-04-08 04:45:00","8.9311","3.17403","27.226","5.316","7.6","1.164","542.695","0.22","144.76","29.4391","4.67716","55.51","0","SATNPRO1509","30.884","0.43258","5"],
    [53563,"HCEP03730542","2025-04-08 05:00:00","8.9306","3.1741","27.191","5.32","7.6","1.687","359.244","0.87","222.17","29.4404","4.67735","55.56","0","SATNPRO1509","30.902","0.4328","5"],
    [53564,"HCEP03730542","2025-04-08 05:15:00","8.9291","3.17411","27.051","5.328","7.6","3.591","370.637","1.35","158.83","29.4417","4.67756","55.64","0","SATNPRO1509","31.132","0.43606","5"],
    [53565,"HCEP03730542","2025-04-08 05:30:00","8.9278","3.17402","26.993","5.352","7.6","1.086","37.366","0.86","28.96","29.4419","4.67761","55.89","0","SATNPRO1509","31.048000000000002","0.4349","5"],
    [53566,"HCEP03730542","2025-04-08 05:45:00","8.9233","3.17384","26.865","5.4","7.6","1.526","58.39","1.58","24.55","29.4438","4.67796","56.39","0","SATNPRO1509","31.286","0.4382","5"],
    [53567,"HCEP03730542","2025-04-08 06:00:00","8.9216","3.17376","26.802","5.44","7.61","0.382","7.398","0.03","0.31","29.4445","4.67809","56.8","0","SATNPRO1509","31.236","0.4375","5"],
    [53568,"HCEP03730542","2025-04-08 06:15:00","8.9204","3.17373","26.676","5.456","7.61","0.376","7.316","0.03","0.18","29.4452","4.6782","56.96","0","SATNPRO1509","31.208","0.43714","5"],
    [53569,"HCEP03730542","2025-04-08 06:30:00","8.9192","3.17368","26.608","5.462","7.61","0.439","9.558","0.04","2.37","29.4457","4.67829","57.03","0","SATNPRO1509","31.342","0.439","5"],
    [53570,"HCEP03730542","2025-04-08 06:45:00","8.9184","3.17362","26.442","5.473","7.61","0.791","34.376","0.62","25.55","29.4458","4.67831","57.14","0","SATNPRO1509","31.302","0.43844","5"],
    [53571,"HCEP03730542","2025-04-08 07:00:00","8.9187","3.17365","26.371","5.475","7.61","0.393","7.133","0.03","0.24","29.4459","4.67831","57.16","0","SATNPRO1509","31.226","0.43736","5"],
    [53572,"HCEP03730542","2025-04-08 07:15:00","8.9178","3.17358","26.324","5.475","7.61","1.184","24.195","0.62","14.64","29.4459","4.67834","57.16","0","SATNPRO1509","31.332","0.43886","5"],
    [53573,"HCEP03730542","2025-04-08 07:30:00","8.9205","3.17378","26.215","5.464","7.61","1.613","35.849","2.25","27.12","29.4458","4.67826","57.05","0","SATNPRO1509","31.054000000000002","0.43498","5"],
    [53574,"HCEP03730542","2025-04-08 07:45:00","8.9211","3.17398","26.071","5.429","7.6","1.332","52.293","0.68","22.21","29.4474","4.67848","56.68","0","SATNPRO1509","31.026","0.43456","5"],
    [53575,"HCEP03730542","2025-04-08 08:00:00","8.9197","3.17396","25.939","5.396","7.6","6.623","218.83","0.79","124.78","29.4484","4.67863","56.34","0","SATNPRO1509","31.088","0.4354","5"],
    [53576,"HCEP03730542","2025-04-08 08:15:00","8.919","3.17395","25.888","5.404","7.6","9.306","671.915","2.78","153.89","29.4489","4.67872","56.42","0","SATNPRO1509","31.072","0.4352","5"],
    [53577,"HCEP03730542","2025-04-08 08:30:00","8.9181","3.17364","25.965","5.42","7.61","0.573","54.404","0.15","10.75","29.4465","4.67839","56.59","0","SATNPRO1509","31.041999999999998","0.4348","5"],
    [53578,"HCEP03730542","2025-04-08 08:45:00","8.9176","3.17346","25.915","5.451","7.61","4.878","516.15","0.93","76.21","29.445","4.67818","56.91","0","SATNPRO1509","31.232","0.43744","5"],
    [53579,"HCEP03730542","2025-04-08 09:00:00","8.9178","3.17336","25.958","5.457","7.61","0.774","34.036","0.63","24.41","29.4438","4.67801","56.97","0","SATNPRO1509","31.128","0.436","5"],
    [53580,"HCEP03730542","2025-04-08 09:15:00","8.9181","3.17335","25.947","5.452","7.6","3.428","801.898","1.19","127.15","29.4434","4.67795","56.92","0","SATNPRO1509","31.046","0.4349","5"],
    [53581,"HCEP03730542","2025-04-08 09:30:00","8.9186","3.17332","25.998","5.424","7.6","1.421","366.895","0.45","159.42","29.4427","4.67784","56.63","0","SATNPRO1509","31.02","0.4345","5"],
    [53582,"HCEP03730542","2025-04-08 09:45:00","8.9194","3.17325","25.922","5.393","7.6","0.928","110.092","0.17","23.32","29.4414","4.67764","56.31","0","SATNPRO1509","31.188","0.43678","5"],
    [53583,"HCEP03730542","2025-04-08 10:00:00","8.9204","3.17341","26.025","5.378","7.6","0.826","36.267","0.11","8.26","29.4422","4.67773","56.15","0","SATNPRO1509","31.134","0.4361","5"],
    [53584,"HCEP03730542","2025-04-08 10:15:00","8.9212","3.17353","26.064","5.388","7.6","0.906","138.864","0.15","33.98","29.4427","4.6778","56.26","0","SATNPRO1509","31.182","0.43678","5"],
    [53585,"HCEP03730542","2025-04-08 10:30:00","8.9226","3.17362","26.121","5.397","7.6","0.996","50.789","0.12","17.34","29.4424","4.67773","56.35","0","SATNPRO1509","31.184","0.4368","5"],
    [53586,"HCEP03730542","2025-04-08 10:45:00","8.9241","3.1737","26.15","5.398","7.6","0.747","13.035","0.65","13.43","29.442","4.67765","56.36","0","SATNPRO1509","31.186","0.43678","5"],
    [53587,"HCEP03730542","2025-04-08 11:00:00","8.9288","3.17364","26.152","5.382","7.6","1.15","151.148","0.29","60.35","29.4375","4.67691","56.2","0","SATNPRO1509","31.18","0.43674","5"],
    [53588,"HCEP03730542","2025-04-08 11:15:00","8.9326","3.17332","26.128","5.367","7.6","0.398","7.25","0.04","0.35","29.4311","4.67592","56.04","0","SATNPRO1509","31.154","0.4364","5"],
    [53589,"HCEP03730542","2025-04-08 11:30:00","8.9387","3.17355","26.203","5.331","7.6","0.42","9.877","0.04","0.92","29.4284","4.67542","55.68","0","SATNPRO1509","31.098","0.43558","5"],
    [53590,"HCEP03730542","2025-04-08 11:45:00","8.9419","3.17326","26.291","5.266","7.6","0.5","11.179","0.04","1.01","29.4227","4.67455","55","0","SATNPRO1509","31.044","0.43484","5"],
    [53591,"HCEP03730542","2025-04-08 12:00:00","8.9377","3.17219","26.354","5.318","7.6","0.459","11.448","0.04","2.56","29.4151","4.67354","55.54","0","SATNPRO1509","31.106","0.43564","5"],
    [53592,"HCEP03730542","2025-04-08 12:15:00","8.9343","3.16937","26.416","5.445","7.61","0.505","12.279","0.05","1.19","29.389","4.66986","56.85","0","SATNPRO1509","31.202","0.43706","5"],
    [53593,"HCEP03730542","2025-04-08 12:30:00","8.942","3.16634","26.513","5.562","7.62","0.525","13.275","0.05","1.11","29.3516","4.66434","58.07","0","SATNPRO1509","31.354","0.43914","5"],
    [53594,"HCEP03730542","2025-04-08 12:45:00","8.9474","3.16417","26.618","5.63","7.62","0.539","11.843","0.05","1.25","29.3248","4.66039","58.77","0","SATNPRO1509","31.494","0.44112","5"],
    [53595,"HCEP03730542","2025-04-08 13:00:00","8.9515","3.1659","26.672","5.595","7.62","0.52","14.448","0.04","3.09","29.3392","4.66239","58.42","0","SATNPRO1509","31.44","0.44038","5"],
    [53596,"HCEP03730542","2025-04-08 13:15:00","8.9587","3.16584","26.74","5.484","7.61","0.548","14.05","0.05","1.18","29.3325","4.6613","57.27","0","SATNPRO1509","31.302","0.4384","5"],
    [53597,"HCEP03730542","2025-04-08 13:30:00","8.9528","3.16423","26.832","5.585","7.62","0.558","8.281","0.04","0.93","29.321","4.65976","58.31","0","SATNPRO1509","31.492","0.4411","5"],
    [53598,"HCEP03730542","2025-04-08 13:45:00","8.9641","3.16559","26.853","5.515","7.61","0.592","10.033","0.04","1.23","29.3256","4.66021","57.59","0","SATNPRO1509","31.286","0.43818","5"],
    [53599,"HCEP03730542","2025-04-08 14:00:00","8.9808","3.16746","26.817","5.308","7.6","0.556","16.513","0.04","1.47","29.3309","4.66066","55.46","0","SATNPRO1509","31.158","0.43644","5"],
    [53600,"HCEP03730542","2025-04-08 14:15:00","8.9889","3.16761","26.729","5.175","7.59","0.524","15.002","0.05","1.69","29.3258","4.65977","54.08","0","SATNPRO1509","31.084","0.43536","5"],
    [53601,"HCEP03730542","2025-04-08 14:30:00","8.9839","3.16966","26.743","5.107","7.58","0.534","13.79","0.05","1.56","29.3509","4.66347","53.36","0","SATNPRO1509","31.078","0.43534","5"],
    [53602,"HCEP03730542","2025-04-08 14:45:00","8.9825","3.17026","26.75","5.085","7.58","0.833","23.299","0.18","12.01","29.3583","4.66455","53.14","0","SATNPRO1509","31.03","0.43464","5"],
    [53603,"HCEP03730542","2025-04-08 15:00:00","8.9829","3.17025","26.696","5.063","7.58","1.014","60.677","0.34","19.57","29.3578","4.66448","52.91","0","SATNPRO1509","31.068","0.43516","5"],
    [53604,"HCEP03730542","2025-04-08 15:15:00","8.985","3.16976","26.698","5.052","7.58","0.542","10.648","0.05","0.54","29.351","4.66346","52.79","0","SATNPRO1509","31.152","0.43632","5"],
    [53605,"HCEP03730542","2025-04-08 15:30:00","8.9853","3.16947","26.694","5.049","7.58","0.521","10.133","0.05","0.79","29.3479","4.663","52.76","0","SATNPRO1509","31.134","0.4361","5"],
    [53606,"HCEP03730542","2025-04-08 15:45:00","8.9844","3.16951","26.606","5.057","7.58","0.507","8.845","0.05","0.38","29.3491","4.66318","52.84","0","SATNPRO1509","31.104","0.43564","5"],
    [53607,"HCEP03730542","2025-04-08 16:00:00","8.9846","3.16952","26.551","5.062","7.58","0.556","9.369","0.07","0.47","29.349","4.66317","52.9","0","SATNPRO1509","31.16","0.43646","5"],
    [53608,"HCEP03730542","2025-04-08 16:15:00","8.9867","3.16911","26.469","5.057","7.58","0.531","8.379","0.07","0.27","29.3431","4.66228","52.84","0","SATNPRO1509","31.084","0.43538","5"],
    [53609,"HCEP03730542","2025-04-08 16:30:00","8.9874","3.16898","26.323","5.053","7.58","0.532","8.004","0.05","0.56","29.3413","4.66199","52.8","0","SATNPRO1509","31.055999999999997","0.43496","5"],
    [53610,"HCEP03730542","2025-04-08 16:45:00","8.986","3.16932","26.215","5.051","7.58","0.518","8.275","0.04","0.41","29.346","4.66269","52.78","0","SATNPRO1509","31.162","0.43646","5"],
    [53611,"HCEP03730542","2025-04-08 17:00:00","8.9877","3.16806","26.124","5.052","7.58","0.546","8.371","0.05","0.37","29.3317","4.6606","52.79","0","SATNPRO1509","31.066","0.43512","5"],
    [53612,"HCEP03730542","2025-04-08 17:15:00","8.986","3.16882","25.965","5.066","7.58","0.563","7.715","0.09","0.33","29.3409","4.66195","52.93","0","SATNPRO1509","31.026","0.4346","5"],
    [53613,"HCEP03730542","2025-04-08 17:30:00","8.9865","3.16829","25.864","5.062","7.58","0.542","7.215","0.07","0.38","29.3351","4.6611","52.89","0","SATNPRO1509","31.136","0.4361","5"],
    [53614,"HCEP03730542","2025-04-08 17:45:00","8.9855","3.16904","25.716","5.065","7.57","0.499","7.603","0.05","0.44","29.3437","4.66234","52.92","0","SATNPRO1509","31.048","0.43486","5"],
    [53615,"HCEP03730542","2025-04-08 18:00:00","8.9846","3.16833","25.553","5.052","7.58","0.542","7.877","0.06","0.75","29.3372","4.66142","52.78","0","SATNPRO1509","31.19","0.43686","5"],
    [53616,"HCEP03730542","2025-04-08 18:15:00","8.9796","3.16703","25.441","5.082","7.58","0.548","8.45","0.07","0.82","29.3282","4.6602","53.09","0","SATNPRO1509","31.03","0.43464","5"],
    [53617,"HCEP03730542","2025-04-08 18:30:00","8.9689","3.16396","25.305","5.163","7.59","0.565","8.996","0.04","0.55","29.3055","4.65715","53.91","0","SATNPRO1509","31.106","0.43572","5"],
    [53618,"HCEP03730542","2025-04-08 18:45:00","8.9563","3.1627","25.151","5.387","7.6","4.669","143.294","2.96","71.43","29.303","4.65701","56.23","0","SATNPRO1509","31.2","0.43702","5"],
    [53619,"HCEP03730542","2025-04-08 19:00:00","8.9531","3.16347","25.037","5.484","7.6","0.56","8.007","0.06","0.72","29.3136","4.65859","57.25","0","SATNPRO1509","31.152","0.43634","5"],
    [53620,"HCEP03730542","2025-04-08 19:15:00","8.9501","3.16434","24.95","5.491","7.6","0.552","7.58","0.08","0.52","29.325","4.66027","57.32","0","SATNPRO1509","31.142","0.43622","5"],
    [53621,"HCEP03730542","2025-04-08 19:30:00","8.9479","3.16487","24.87","5.485","7.6","0.546","6.874","0.06","0.55","29.3323","4.66135","57.27","0","SATNPRO1509","31.05","0.4349","5"],
    [53622,"HCEP03730542","2025-04-08 19:45:00","8.9451","3.16468","24.802","5.492","7.61","0.532","7.091","0.04","0.73","29.3327","4.66147","57.33","0","SATNPRO1509","31.06","0.4351","5"],
    [53623,"HCEP03730542","2025-04-08 20:00:00","8.9431","3.16451","24.802","5.526","7.61","0.576","8.211","0.07","1.28","29.3326","4.66149","57.68","0","SATNPRO1509","31.306","0.4385","5"],
    [53624,"HCEP03730542","2025-04-08 20:15:00","8.9424","3.16425","24.821","5.552","7.61","0.683","14.325","0.24","15.43","29.3304","4.66119","57.95","0","SATNPRO1509","31.19","0.43684","5"],
    [53625,"HCEP03730542","2025-04-08 20:30:00","8.9417","3.16402","24.856","5.581","7.61","0.52","6.009","0.07","0.25","29.3287","4.66097","58.26","0","SATNPRO1509","31.268","0.43794","5"],
    [53626,"HCEP03730542","2025-04-08 20:45:00","8.9415","3.16409","24.947","5.61","7.62","0.56","5.368","0.07","0.27","29.3296","4.6611","58.55","0","SATNPRO1509","31.266","0.43794","5"],
    [53627,"HCEP03730542","2025-04-08 21:00:00","8.9426","3.16377","24.995","5.619","7.62","0.567","5.206","0.09","0.42","29.3253","4.66046","58.65","0","SATNPRO1509","31.322","0.4387","5"],
    [53628,"HCEP03730542","2025-04-08 21:15:00","8.9449","3.16257","25.098","5.63","7.62","0.582","5.105","0.1","0.31","29.3111","4.65838","58.77","0","SATNPRO1509","31.226","0.43734","5"],
    [53629,"HCEP03730542","2025-04-08 21:30:00","8.9461","3.16235","25.172","5.648","7.62","0.613","4.334","0.17","0.42","29.3078","4.65789","58.96","0","SATNPRO1509","31.72","0.44434","5"],
    [53630,"HCEP03730542","2025-04-08 21:45:00","8.9516","3.1607","25.263","5.656","7.62","0.573","4.128","0.08","0.24","29.2864","4.65472","59.03","0","SATNPRO1509","31.23","0.43742","5"],
    [53631,"HCEP03730542","2025-04-08 22:00:00","8.962","3.15938","25.361","5.666","7.62","0.615","3.338","0.12","0.26","29.2643","4.65135","59.14","0","SATNPRO1509","31.398","0.4398","5"],
    [53632,"HCEP03730542","2025-04-08 22:15:00","8.962","3.15937","25.499","5.644","7.62","0.54","3.066","0.08","0.23","29.2641","4.65134","58.92","0","SATNPRO1509","31.44","0.44038","5"],
    [53633,"HCEP03730542","2025-04-08 22:30:00","8.9602","3.16091","25.596","5.632","7.62","0.56","4.829","0.09","0.46","29.2813","4.65384","58.8","0","SATNPRO1509","31.428","0.44018","5"],
    [53634,"HCEP03730542","2025-04-08 22:45:00","8.961","3.16153","25.724","5.593","7.61","0.597","5.383","0.12","0.4","29.2869","4.65464","58.39","0","SATNPRO1509","31.256","0.4378","5"],
    [53635,"HCEP03730542","2025-04-08 23:00:00","8.9604","3.16194","25.872","5.566","7.61","0.674","6.297","0.1","1.17","29.2915","4.65533","58.1","0","SATNPRO1509","31.355999999999998","0.4392","5"],
    [53636,"HCEP03730542","2025-04-08 23:15:00","8.9604","3.16158","26.038","5.546","7.61","0.599","6.193","0.06","0.67","29.2878","4.6548","57.9","0","SATNPRO1509","31.186","0.43684","5"],
    [53637,"HCEP03730542","2025-04-08 23:30:00","8.9576","3.16146","26.23","5.551","7.61","0.713","15.324","0.16","8.43","29.2888","4.65502","57.94","0","SATNPRO1509","31.144","0.4362","5"],
    [53638,"HCEP03730542","2025-04-08 23:45:00","8.9625","3.16224","26.348","5.546","7.61","0.631","8.387","0.08","1.33","29.2927","4.65549","57.9","0","SATNPRO1509","31.074","0.43522","5"],
    [53639,"HCEP03730542","2025-04-09 00:00:00","8.9696","3.16266","26.524","5.483","7.61","0.656","6.713","0.1","0.5","29.2912","4.65514","57.25","0","SATNPRO1509","30.97","0.4338","5"],
    [53640,"HCEP03730542","2025-04-09 00:15:00","8.9778","3.16271","26.667","5.402","7.6","0.642","7.391","0.06","0.52","29.2849","4.65409","56.42","0","SATNPRO1509","30.983999999999998","0.434","5"],
    [53641,"HCEP03730542","2025-04-09 00:30:00","8.9817","3.16145","26.864","5.339","7.6","0.675","6.61","0.07","0.75","29.2686","4.65169","55.76","0","SATNPRO1509","30.934","0.4333","5"],
    [53642,"HCEP03730542","2025-04-09 00:45:00","8.9831","3.16171","27.038","5.313","7.59","0.633","7.319","0.06","0.64","29.2701","4.65189","55.49","0","SATNPRO1509","30.958","0.4336","5"],
    [53643,"HCEP03730542","2025-04-09 01:00:00","8.9835","3.16162","27.184","5.291","7.59","0.678","7.671","0.1","0.72","29.2687","4.65169","55.26","0","SATNPRO1509","30.93","0.43322","5"],
    [53644,"HCEP03730542","2025-04-09 01:15:00","8.9831","3.16183","27.347","5.28","7.59","0.666","6.614","0.15","0.56","29.2711","4.65206","55.14","0","SATNPRO1509","30.982","0.43394","5"],
    [53645,"HCEP03730542","2025-04-09 01:30:00","8.9818","3.16223","27.466","5.275","7.59","0.633","7.098","0.07","0.59","29.2763","4.65283","55.09","0","SATNPRO1509","30.852","0.43214","5"],
    [53646,"HCEP03730542","2025-04-09 01:45:00","8.9802","3.16274","27.587","5.262","7.59","0.647","7.799","0.06","1.08","29.2828","4.6538","54.96","0","SATNPRO1509","30.968","0.43378","5"],
    [53647,"HCEP03730542","2025-04-09 02:00:00","8.9794","3.16316","27.655","5.264","7.59","0.661","7.293","0.1","0.46","29.2876","4.65452","54.97","0","SATNPRO1509","30.886","0.43262","5"],
    [53648,"HCEP03730542","2025-04-09 02:15:00","8.978","3.16373","27.778","5.259","7.59","0.604","7.722","0.07","0.85","29.2946","4.65556","54.93","0","SATNPRO1509","30.978","0.43392","5"],
    [53649,"HCEP03730542","2025-04-09 02:30:00","8.9762","3.16407","27.814","5.251","7.59","0.681","7.56","0.13","0.57","29.2996","4.6563","54.84","0","SATNPRO1509","30.74","0.4306","5"],
    [53650,"HCEP03730542","2025-04-09 02:45:00","8.9748","3.16422","27.84","5.238","7.59","0.637","8.051","0.09","0.62","29.3023","4.65672","54.71","0","SATNPRO1509","31.044","0.43484","5"],
    [53651,"HCEP03730542","2025-04-09 03:00:00","8.9735","3.1643","27.858","5.238","7.59","0.68","7.52","0.17","0.48","29.3041","4.65701","54.7","0","SATNPRO1509","31.208","0.43716","5"],
    [53652,"HCEP03730542","2025-04-09 03:15:00","8.9719","3.16447","27.849","5.245","7.59","0.626","7.64","0.09","0.48","29.3073","4.65749","54.78","0","SATNPRO1509","31.024","0.43452","5"],
    [53653,"HCEP03730542","2025-04-09 03:30:00","8.9702","3.16473","27.864","5.244","7.59","0.701","8.453","0.23","1.87","29.3112","4.65809","54.76","0","SATNPRO1509","30.802","0.43142","5"],
    [53654,"HCEP03730542","2025-04-09 03:45:00","8.9673","3.16527","27.859","5.247","7.59","0.651","8.61","0.1","0.46","29.3192","4.65929","54.8","0","SATNPRO1509","30.876","0.43246","5"],
    [53655,"HCEP03730542","2025-04-09 04:00:00","8.9615","3.16615","27.857","5.257","7.59","0.62","9.012","0.08","0.61","29.3331","4.66139","54.9","0","SATNPRO1509","30.945999999999998","0.43344","5"],
    [53656,"HCEP03730542","2025-04-09 04:15:00","8.9552","3.16726","27.672","5.273","7.59","0.61","8.701","0.08","0.44","29.3496","4.66388","55.07","0","SATNPRO1509","30.898","0.43278","5"],
    [53657,"HCEP03730542","2025-04-09 04:30:00","8.9515","3.16794","27.51","5.283","7.59","0.602","8.445","0.06","0.44","29.3597","4.66539","55.17","0","SATNPRO1509","30.982","0.43396","5"],
    [53658,"HCEP03730542","2025-04-09 04:45:00","8.9485","3.16847","27.383","5.289","7.59","0.571","8.643","0.06","0.66","29.3677","4.66659","55.23","0","SATNPRO1509","31.162","0.43648","5"],
    [53659,"HCEP03730542","2025-04-09 05:00:00","8.9464","3.16876","27.284","5.304","7.59","0.744","19.585","0.33","14.42","29.3724","4.66729","55.38","0","SATNPRO1509","31.154","0.43638","5"],
    [53660,"HCEP03730542","2025-04-09 05:15:00","8.9469","3.16867","27.099","5.314","7.59","0.642","17.727","0.16","17.59","29.3712","4.6671","55.49","0","SATNPRO1509","31.066","0.43514","5"],
    [53661,"HCEP03730542","2025-04-09 05:30:00","8.9486","3.16857","27.018","5.303","7.59","0.652","13.594","0.2","10.95","29.3688","4.66672","55.37","0","SATNPRO1509","31.06","0.43508","5"],
    [53662,"HCEP03730542","2025-04-09 05:45:00","8.9464","3.1689","26.932","5.302","7.59","0.641","9.098","0.09","0.87","29.374","4.6675","55.36","0","SATNPRO1509","31.146","0.43628","5"],
    [53663,"HCEP03730542","2025-04-09 06:00:00","8.9445","3.16871","26.831","5.312","7.59","0.595","7.94","0.06","0.75","29.3738","4.6675","55.46","0","SATNPRO1509","31.128","0.43604","5"],
    [53664,"HCEP03730542","2025-04-09 06:15:00","8.9408","3.16884","26.744","5.351","7.6","0.561","6.838","0.09","0.36","29.3781","4.66819","55.87","0","SATNPRO1509","31.154","0.43636","5"],
    [53665,"HCEP03730542","2025-04-09 06:30:00","8.9382","3.16892","26.627","5.364","7.6","0.573","8.927","0.12","0.5","29.3812","4.66867","56.01","0","SATNPRO1509","31.292","0.4383","5"],
    [53666,"HCEP03730542","2025-04-09 06:45:00","8.937","3.16912","26.515","5.383","7.6","0.564","9.394","0.05","1.63","29.3842","4.66912","56.2","0","SATNPRO1509","31.164","0.4365","5"],
    [53667,"HCEP03730542","2025-04-09 07:00:00","8.9355","3.16906","26.368","5.384","7.6","0.564","7.318","0.07","0.36","29.3849","4.66924","56.21","0","SATNPRO1509","31.214","0.43724","5"],
    [53668,"HCEP03730542","2025-04-09 07:15:00","8.9323","3.16883","26.225","5.4","7.6","0.556","7.859","0.09","1.01","29.3852","4.66934","56.37","0","SATNPRO1509","31.080000000000002","0.43532","5"],
    [53669,"HCEP03730542","2025-04-09 07:30:00","8.9317","3.16905","26.09","5.429","7.6","0.579","7.471","0.09","0.48","29.388","4.66975","56.67","0","SATNPRO1509","31.25","0.4377","5"],
    [53670,"HCEP03730542","2025-04-09 07:45:00","8.9306","3.16883","25.965","5.429","7.6","0.611","6.843","0.12","0.28","29.3867","4.66956","56.68","0","SATNPRO1509","31.172","0.43662","5"],
    [53671,"HCEP03730542","2025-04-09 08:00:00","8.9274","3.16876","25.853","5.442","7.6","0.569","6.92","0.06","0.26","29.3887","4.66991","56.81","0","SATNPRO1509","31.184","0.4368","5"],
    [53672,"HCEP03730542","2025-04-09 08:15:00","8.9232","3.16862","25.746","5.477","7.61","0.592","6.7","0.1","0.38","29.3908","4.67028","57.17","0","SATNPRO1509","31.28","0.43814","5"],
    [53673,"HCEP03730542","2025-04-09 08:30:00","8.9175","3.16841","25.65","5.52","7.61","0.576","6.399","0.14","0.35","29.3933","4.67075","57.61","0","SATNPRO1509","31.384","0.4396","5"],
    [53674,"HCEP03730542","2025-04-09 08:45:00","8.916","3.16855","25.614","5.559","7.61","0.575","7.359","0.07","0.48","29.3961","4.67118","58.02","0","SATNPRO1509","31.226","0.4374","5"],
    [53675,"HCEP03730542","2025-04-09 09:00:00","8.9022","3.16762","25.573","5.577","7.62","0.603","5.973","0.14","0.33","29.398","4.67171","58.19","0","SATNPRO1509","31.43","0.44018","5"],
    [53676,"HCEP03730542","2025-04-09 09:15:00","8.9051","3.16842","25.559","5.681","7.62","0.59","6.715","0.07","0.5","29.4038","4.67248","59.27","0","SATNPRO1509","31.352","0.43914","5"],
    [53677,"HCEP03730542","2025-04-09 09:30:00","8.8937","3.16828","25.603","5.692","7.62","0.611","6.509","0.08","0.46","29.4118","4.67386","59.38","0","SATNPRO1509","31.496000000000002","0.44116","5"],
    [53678,"HCEP03730542","2025-04-09 09:45:00","8.8882","3.16807","25.651","5.763","7.63","0.614","6.955","0.15","0.27","29.4142","4.6743","60.12","0","SATNPRO1509","31.556","0.442","5"],
    [53679,"HCEP03730542","2025-04-09 10:00:00","8.8821","3.16797","25.696","5.826","7.63","0.521","5.328","0.08","0.88","29.4181","4.67499","60.77","0","SATNPRO1509","31.55","0.44192","5"],
    [53680,"HCEP03730542","2025-04-09 10:15:00","8.8993","3.16884","25.766","5.831","7.63","0.609","6.791","0.08","0.38","29.4128","4.6739","60.83","0","SATNPRO1509","31.483999999999998","0.441","5"],
    [53681,"HCEP03730542","2025-04-09 10:30:00","8.9156","3.17002","25.837","5.682","7.62","0.627","6.873","0.08","0.46","29.4114","4.6734","59.3","0","SATNPRO1509","31.236","0.4375","5"],
    [53682,"HCEP03730542","2025-04-09 10:45:00","8.9149","3.16996","25.909","5.529","7.61","0.566","7.421","0.06","0.3","29.4113","4.6734","57.71","0","SATNPRO1509","31.26","0.43784","5"],
    [53683,"HCEP03730542","2025-04-09 11:00:00","8.9161","3.17008","25.989","5.506","7.61","0.622","5.932","0.1","0.25","29.4115","4.67341","57.47","0","SATNPRO1509","31.306","0.4385","5"],
    [53684,"HCEP03730542","2025-04-09 11:15:00","8.9206","3.17014","26.044","5.485","7.61","0.592","5.599","0.1","0.27","29.4084","4.67288","57.25","0","SATNPRO1509","31.258","0.43784","5"],
    [53685,"HCEP03730542","2025-04-09 11:30:00","8.9242","3.17006","26.122","5.451","7.61","0.62","10.275","0.12","3.03","29.4046","4.67227","56.9","0","SATNPRO1509","31.192","0.4369","5"],
    [53686,"HCEP03730542","2025-04-09 11:45:00","8.9256","3.16982","26.185","5.425","7.61","0.566","7.906","0.13","0.33","29.4009","4.67172","56.63","0","SATNPRO1509","31.324","0.43872","5"],
    [53687,"HCEP03730542","2025-04-09 12:00:00","8.9258","3.16943","26.211","5.418","7.6","0.626","8.047","0.09","0.88","29.3968","4.67113","56.56","0","SATNPRO1509","31.074","0.43526","5"],
    [53688,"HCEP03730542","2025-04-09 12:15:00","8.9228","3.16902","26.259","5.43","7.61","0.62","7.478","0.12","0.28","29.3951","4.67093","56.68","0","SATNPRO1509","31.266000000000002","0.43792","5"],
    [53689,"HCEP03730542","2025-04-09 12:30:00","8.9189","3.16857","26.289","5.46","7.61","0.552","6.656","0.06","0.28","29.3936","4.6708","56.99","0","SATNPRO1509","31.152","0.43634","5"],
    [53690,"HCEP03730542","2025-04-09 12:45:00","8.9084","3.16748","26.378","5.536","7.61","0.641","7.847","0.06","0.42","29.3911","4.67064","57.76","0","SATNPRO1509","31.366","0.43936","5"],
    [53691,"HCEP03730542","2025-04-09 13:00:00","8.8888","3.16546","26.471","5.675","7.63","0.563","6.634","0.05","0.19","29.3865","4.67037","59.19","0","SATNPRO1509","31.48","0.44096","5"],
    [53692,"HCEP03730542","2025-04-09 13:15:00","8.8645","3.16401","26.549","5.916","7.64","0.513","5.653","0.05","0.34","29.3916","4.67157","61.67","0","SATNPRO1509","31.814","0.44558","5"],
    [53693,"HCEP03730542","2025-04-09 13:30:00","8.8427","3.16302","26.625","6.185","7.66","0.509","5.373","0.05","0.29","29.3996","4.67313","64.45","0","SATNPRO1509","31.864","0.4463","5"],
    [53694,"HCEP03730542","2025-04-09 13:45:00","8.8387","3.16252","26.729","6.322","7.67","0.656","5.464","0.06","0.6","29.3977","4.67293","65.86","0","SATNPRO1509","31.854","0.44618","5"],
    [53695,"HCEP03730542","2025-04-09 14:00:00","8.8537","3.16302","26.841","6.312","7.67","0.553","9.664","0.07","1.68","29.3904","4.67161","65.78","0","SATNPRO1509","31.747999999999998","0.44468","5"],
    [53696,"HCEP03730542","2025-04-09 14:15:00","8.8585","3.16379","26.899","6.236","7.66","0.542","6.164","0.07","0.87","29.3943","4.67208","65","0","SATNPRO1509","31.672","0.44362","5"],
    [53697,"HCEP03730542","2025-04-09 14:30:00","8.88","3.16473","26.918","6.131","7.65","0.558","6.44","0.06","0.31","29.386","4.67049","63.93","0","SATNPRO1509","31.482","0.44092","5"],
    [53698,"HCEP03730542","2025-04-09 14:45:00","8.8949","3.16479","26.931","5.919","7.64","0.594","6.563","0.07","0.27","29.3744","4.66854","61.73","0","SATNPRO1509","31.477999999999998","0.4409","5"],
    [53699,"HCEP03730542","2025-04-09 15:00:00","8.8955","3.16406","26.948","5.867","7.64","0.593","6.71","0.1","0.8","29.3663","4.66736","61.19","0","SATNPRO1509","31.445999999999998","0.44044","5"],
    [53700,"HCEP03730542","2025-04-09 15:15:00","8.9019","3.16387","26.952","5.855","7.64","0.587","6.094","0.08","0.34","29.3592","4.66622","61.07","0","SATNPRO1509","31.398","0.43974","5"],
    [53701,"HCEP03730542","2025-04-09 15:30:00","8.9071","3.16386","26.949","5.818","7.63","0.608","6.895","0.05","0.4","29.3548","4.66549","60.69","0","SATNPRO1509","31.462","0.44066","5"],
    [53702,"HCEP03730542","2025-04-09 15:45:00","8.9077","3.16353","26.915","5.792","7.63","0.668","6.337","0.11","0.48","29.3509","4.66492","60.42","0","SATNPRO1509","31.554000000000002","0.44196","5"],
    [53703,"HCEP03730542","2025-04-09 16:00:00","8.9019","3.16261","26.864","5.813","7.64","0.588","5.602","0.06","0.27","29.3462","4.66435","60.63","0","SATNPRO1509","31.406","0.4399","5"],
    [53704,"HCEP03730542","2025-04-09 16:15:00","8.9108","3.16314","26.818","5.84","7.63","0.587","6.098","0.09","0.48","29.3444","4.66392","60.92","0","SATNPRO1509","31.486","0.44102","5"],
    [53705,"HCEP03730542","2025-04-09 16:30:00","8.9253","3.16377","26.759","5.768","7.63","0.63","5.666","0.11","0.45","29.3389","4.66285","60.19","0","SATNPRO1509","31.452","0.4406","5"],
    [53706,"HCEP03730542","2025-04-09 16:45:00","8.9318","3.16407","26.666","5.674","7.62","0.703","6.369","0.19","1.36","29.3366","4.66239","59.21","0","SATNPRO1509","31.29","0.43824","5"],
    [53707,"HCEP03730542","2025-04-09 17:00:00","8.9353","3.16421","26.567","5.611","7.62","0.654","5.247","0.13","0.39","29.3352","4.66212","58.56","0","SATNPRO1509","31.374","0.43946","5"],
    [53708,"HCEP03730542","2025-04-09 17:15:00","8.9374","3.16428","26.451","5.569","7.62","0.638","5.169","0.16","0.25","29.3343","4.66194","58.13","0","SATNPRO1509","31.28","0.43814","5"],
    [53709,"HCEP03730542","2025-04-09 17:30:00","8.939","3.16426","26.332","5.535","7.61","0.567","4.617","0.09","0.27","29.3329","4.6617","57.77","0","SATNPRO1509","31.232","0.43746","5"],
    [53710,"HCEP03730542","2025-04-09 17:45:00","8.9416","3.16437","26.204","5.518","7.61","0.735","4.444","0.31","0.3","29.3319","4.6615","57.6","0","SATNPRO1509","31.366","0.43932","5"],
    [53711,"HCEP03730542","2025-04-09 18:00:00","8.9364","3.16405","26.082","5.502","7.61","0.581","4.88","0.09","0.41","29.3329","4.66174","57.42","0","SATNPRO1509","31.42","0.44008","5"],
    [53712,"HCEP03730542","2025-04-09 18:15:00","8.9172","3.16324","25.959","5.539","7.62","0.724","6.62","0.16","0.56","29.3405","4.66319","57.79","0","SATNPRO1509","31.3","0.43836","5"],
    [53713,"HCEP03730542","2025-04-09 18:30:00","8.9102","3.16314","25.838","5.633","7.62","0.686","6.647","0.14","0.49","29.3452","4.66399","58.77","0","SATNPRO1509","31.342","0.43896","5"],
    [53714,"NA","2025-04-09 18:45:00",null,null,null,null,null,null,null,null,null,null,null,null,null,"SATNPRO1509","31.326","0.4388","5"],
    [53715,"HCEP03730542","2025-04-09 18:45:01","8.9019","3.163","25.711","5.701","7.63","0.738","7.163","0.2","0.45","29.3508","4.66493","59.46","0","NA",null,null,null],
    [53716,"HCEP03730542","2025-04-09 19:00:00","8.9109","3.16322","25.568","5.747","7.63","0.632","5.779","0.07","0.26","29.3457","4.66402","59.95","0","SATNPRO1509","31.244","0.43762","5"],
    [53717,"HCEP03730542","2025-04-09 19:15:00","8.898","3.16284","25.45","5.755","7.63","0.635","6.141","0.08","0.51","29.3524","4.66522","60.03","0","SATNPRO1509","31.47","0.44078","5"],
    [53718,"HCEP03730542","2025-04-09 19:30:00","8.8916","3.1626","25.354","5.811","7.63","0.609","5.379","0.07","0.49","29.3553","4.66576","60.59","0","SATNPRO1509","31.45","0.4405","5"],
    [53719,"HCEP03730542","2025-04-09 19:45:00","8.8772","3.16241","25.243","5.885","7.64","0.707","8.27","0.12","1.51","29.3652","4.66745","61.35","0","SATNPRO1509","31.51","0.44128","5"],
    [53720,"HCEP03730542","2025-04-09 20:00:00","8.8828","3.16238","25.108","5.97","7.64","0.625","6.582","0.07","0.33","29.3604","4.66664","62.24","0","SATNPRO1509","31.508","0.44132","5"],
    [53721,"HCEP03730542","2025-04-09 20:15:00","8.8637","3.16242","24.976","6","7.65","0.666","7.389","0.07","0.25","29.3766","4.66933","62.53","0","SATNPRO1509","31.524","0.44154","5"],
    [53722,"HCEP03730542","2025-04-09 20:30:00","8.8594","3.16272","24.922","6.081","7.65","0.669","7.974","0.07","0.64","29.3833","4.67037","63.38","0","SATNPRO1509","31.45","0.44052","5"],
    [53723,"HCEP03730542","2025-04-09 20:45:00","8.8557","3.16277","24.889","6.117","7.66","0.672","7.415","0.09","0.83","29.3869","4.67096","63.75","0","SATNPRO1509","31.637999999999998","0.44318","5"],
    [53724,"HCEP03730542","2025-04-09 21:00:00","8.8612","3.16276","24.878","6.14","7.66","0.632","6.72","0.09","0.98","29.3823","4.67018","64","0","SATNPRO1509","31.642","0.44324","5"],
    [53725,"HCEP03730542","2025-04-09 21:15:00","8.852","3.16286","24.895","6.138","7.66","0.603","6.693","0.09","0.61","29.3908","4.67159","63.97","0","SATNPRO1509","31.556","0.44198","5"],
    [53726,"HCEP03730542","2025-04-09 21:30:00","8.8501","3.16295","24.921","6.177","7.66","0.582","5.96","0.07","0.24","29.3934","4.672","64.37","0","SATNPRO1509","31.566","0.44218","5"],
    [53727,"HCEP03730542","2025-04-09 21:45:00","8.8521","3.16294","24.978","6.194","7.66","0.613","6.074","0.15","0.48","29.3915","4.67169","64.55","0","SATNPRO1509","31.606","0.44272","5"],
    [53728,"HCEP03730542","2025-04-09 22:00:00","8.8498","3.16334","25.057","6.194","7.66","0.606","6.401","0.07","0.44","29.3976","4.67261","64.55","0","SATNPRO1509","31.65","0.4433","5"],
    [53729,"HCEP03730542","2025-04-09 22:15:00","8.8471","3.16355","25.153","6.194","7.66","0.565","5.394","0.1","0.27","29.402","4.6733","64.55","0","SATNPRO1509","31.656","0.4434","5"],
    [53730,"HCEP03730542","2025-04-09 22:30:00","8.8535","3.16384","25.269","6.182","7.66","0.635","5.828","0.11","0.19","29.3995","4.67283","64.43","0","SATNPRO1509","31.586000000000002","0.44242","5"],
    [53731,"HCEP03730542","2025-04-09 22:45:00","8.8616","3.1641","25.388","6.136","7.66","0.569","5.501","0.09","0.4","29.3955","4.67211","63.96","0","SATNPRO1509","31.506","0.4413","5"],
    [53732,"HCEP03730542","2025-04-09 23:00:00","8.8689","3.16425","25.501","6.074","7.65","0.705","5.455","0.16","0.24","29.3909","4.67132","63.32","0","SATNPRO1509","31.58","0.44232","5"],
    [53733,"HCEP03730542","2025-04-09 23:15:00","8.8702","3.16415","25.666","6.018","7.65","0.649","6.257","0.09","0.53","29.3888","4.67099","62.74","0","SATNPRO1509","31.496","0.44112","5"],
    [53734,"HCEP03730542","2025-04-09 23:30:00","8.8652","3.16399","25.858","6.003","7.65","0.699","5.831","0.17","0.4","29.3912","4.67145","62.57","0","SATNPRO1509","31.392","0.43968","5"],
    [53735,"HCEP03730542","2025-04-09 23:45:00","8.8641","3.16394","26","6.023","7.65","0.658","5.15","0.17","0.39","29.3915","4.67152","62.79","0","SATNPRO1509","31.852","0.44618","5"],
    [53736,"HCEP03730542","2025-04-10 00:00:00","8.8615","3.16389","26.191","6.034","7.65","0.623","5.471","0.11","0.22","29.393","4.6718","62.9","0","SATNPRO1509","31.544","0.44182","5"],
    [53737,"HCEP03730542","2025-04-10 00:15:00","8.8617","3.16386","26.348","6.045","7.65","0.711","6.495","0.15","0.45","29.3926","4.67174","63.01","0","SATNPRO1509","31.114","0.43582","5"],
    [53738,"HCEP03730542","2025-04-10 00:30:00","8.8651","3.16386","26.495","6.044","7.65","0.6","4.355","0.07","0.08","29.3897","4.67128","63","0","SATNPRO1509","31.418","0.44006","5"],
    [53739,"HCEP03730542","2025-04-10 00:45:00","8.8695","3.16394","26.632","6.036","7.65","0.542","4.466","0.07","0.32","29.3868","4.67078","62.92","0","SATNPRO1509","31.534","0.44168","5"],
    [53740,"HCEP03730542","2025-04-10 01:00:00","8.8703","3.16397","26.82","6.009","7.65","0.585","4.65","0.15","0.22","29.3863","4.67071","62.64","0","SATNPRO1509","31.62","0.44286","5"],
    [53741,"HCEP03730542","2025-04-10 01:15:00","8.8691","3.16395","26.988","6.007","7.65","0.644","4.753","0.12","0.17","29.3871","4.67085","62.63","0","SATNPRO1509","31.71","0.44412","5"],
    [53742,"HCEP03730542","2025-04-10 01:30:00","8.8702","3.16398","27.15","6.016","7.65","0.759","4.452","0.27","0.11","29.3863","4.67073","62.72","0","SATNPRO1509","31.516000000000002","0.44144","5"],
    [53743,"HCEP03730542","2025-04-10 01:45:00","8.8694","3.16397","27.286","6.003","7.65","0.708","4.531","0.18","0.18","29.3869","4.67083","62.58","0","SATNPRO1509","31.596","0.44252","5"],
    [53744,"HCEP03730542","2025-04-10 02:00:00","8.871","3.16396","27.417","6.002","7.65","0.546","4.609","0.1","0.2","29.3854","4.6706","62.57","0","SATNPRO1509","31.477999999999998","0.44092","5"],
    [53745,"HCEP03730542","2025-04-10 02:15:00","8.8775","3.16447","27.53","5.988","7.65","0.658","4.132","0.19","0.17","29.3853","4.67046","62.43","0","SATNPRO1509","31.674","0.44368","5"],
    [53746,"HCEP03730542","2025-04-10 02:30:00","8.8798","3.16474","27.618","5.945","7.64","0.613","3.839","0.15","0.27","29.3861","4.67055","61.98","0","SATNPRO1509","31.43","0.44026","5"],
    [53747,"HCEP03730542","2025-04-10 02:45:00","8.8797","3.16459","27.7","5.917","7.64","10.328","912.585","3.69","365.3","29.3845","4.67032","61.69","0","SATNPRO1509","31.532","0.44168","5"],
    [53748,"HCEP03730542","2025-04-10 03:00:00","8.8804","3.16415","27.728","5.915","7.64","0.598","4.169","0.11","0.23","29.3795","4.66959","61.67","0","SATNPRO1509","31.554","0.44198","5"],
    [53749,"HCEP03730542","2025-04-10 03:15:00","8.8811","3.16398","27.74","5.926","7.64","0.595","4.037","0.1","0.25","29.3771","4.66924","61.79","0","SATNPRO1509","31.572","0.44222","5"],
    [53750,"HCEP03730542","2025-04-10 03:30:00","8.8781","3.16391","27.733","5.925","7.64","0.65","4.041","0.14","0.22","29.3789","4.66954","61.78","0","SATNPRO1509","31.52","0.44152","5"],
    [53751,"HCEP03730542","2025-04-10 03:45:00","8.8808","3.16402","27.711","5.931","7.64","0.689","5.647","0.3","2.75","29.3778","4.66933","61.84","0","SATNPRO1509","31.536","0.44172","5"],
    [53752,"HCEP03730542","2025-04-10 04:00:00","8.8785","3.16402","27.643","5.938","7.64","0.647","3.481","0.16","0.24","29.3797","4.66965","61.92","0","SATNPRO1509","31.474","0.44086","5"],
    [53753,"HCEP03730542","2025-04-10 04:15:00","8.8752","3.16377","27.623","5.956","7.64","0.597","4.275","0.17","0.47","29.38","4.66975","62.1","0","SATNPRO1509","31.262","0.43792","5"],
    [53754,"HCEP03730542","2025-04-10 04:30:00","8.8747","3.1641","27.546","5.971","7.64","0.661","4.556","0.24","0.25","29.3838","4.6703","62.26","0","SATNPRO1509","31.58","0.44234","5"],
    [53755,"HCEP03730542","2025-04-10 04:45:00","8.8791","3.16447","27.527","5.962","7.64","0.557","3.502","0.12","0.35","29.384","4.67025","62.17","0","SATNPRO1509","31.59","0.44248","5"],
    [53756,"HCEP03730542","2025-04-10 05:00:00","8.8765","3.1643","27.446","5.958","7.64","0.55","3.502","0.08","0.48","29.3844","4.67034","62.12","0","SATNPRO1509","31.64","0.4432","5"],
    [53757,"HCEP03730542","2025-04-10 05:15:00","8.8763","3.1644","27.361","5.968","7.65","0.565","3.44","0.14","0.25","29.3856","4.67052","62.22","0","SATNPRO1509","31.56","0.44208","5"],
    [53758,"HCEP03730542","2025-04-10 05:30:00","8.8794","3.16478","27.24","5.958","7.64","0.591","5.251","0.13","3.23","29.387","4.67066","62.12","0","SATNPRO1509","31.83","0.44584","5"],
    [53759,"HCEP03730542","2025-04-10 05:45:00","8.8797","3.16487","27.125","5.925","7.64","0.568","4.908","0.06","0.79","29.3877","4.67075","61.78","0","SATNPRO1509","31.642","0.4432","5"],
    [53760,"HCEP03730542","2025-04-10 06:00:00","8.8799","3.16484","26.953","5.895","7.64","0.596","4.427","0.07","0.28","29.3874","4.67069","61.47","0","SATNPRO1509","31.568","0.44218","5"],
    [53761,"HCEP03730542","2025-04-10 06:15:00","8.8886","3.16638","26.824","5.867","7.63","0.589","5.697","0.08","0.33","29.396","4.67175","61.19","0","SATNPRO1509","31.536","0.4417","5"],
    [53762,"HCEP03730542","2025-04-10 06:30:00","8.8876","3.1665","26.71","5.79","7.63","0.585","5.495","0.1","0.2","29.3982","4.67207","60.38","0","SATNPRO1509","31.404","0.43986","5"],
    [53763,"HCEP03730542","2025-04-10 06:45:00","8.8878","3.16657","26.577","5.767","7.63","0.639","5.709","0.17","0.2","29.3986","4.67213","60.15","0","SATNPRO1509","31.348","0.4391","5"],
    [53764,"HCEP03730542","2025-04-10 07:00:00","8.8898","3.16657","26.437","5.748","7.63","0.591","5.406","0.1","0.14","29.3971","4.67186","59.96","0","SATNPRO1509","31.212","0.43716","5"],
    [53765,"HCEP03730542","2025-04-10 07:15:00","8.8841","3.16633","26.277","5.742","7.63","0.585","5.523","0.23","0.24","29.3995","4.6723","59.88","0","SATNPRO1509","31.336","0.43888","5"],
    [53766,"HCEP03730542","2025-04-10 07:30:00","8.8798","3.16596","26.16","5.776","7.63","0.628","6.544","0.07","0.78","29.3992","4.67234","60.23","0","SATNPRO1509","31.502","0.44122","5"],
    [53767,"HCEP03730542","2025-04-10 07:45:00","8.8745","3.16562","25.986","5.83","7.64","0.535","6.315","0.05","0.27","29.4003","4.67258","60.79","0","SATNPRO1509","31.376","0.43948","5"],
    [53768,"HCEP03730542","2025-04-10 08:00:00","8.874","3.16564","25.901","5.853","7.64","0.581","6.051","0.05","0.38","29.4008","4.67266","61.03","0","SATNPRO1509","31.416","0.44004","5"],
    [53769,"HCEP03730542","2025-04-10 08:15:00","8.8755","3.16572","25.729","5.856","7.64","0.571","5.643","0.08","0.51","29.4005","4.67259","61.06","0","SATNPRO1509","31.334","0.43888","5"],
    [53770,"HCEP03730542","2025-04-10 08:30:00","8.8806","3.16607","25.572","5.844","7.63","0.64","5.918","0.17","0.76","29.3999","4.6724","60.94","0","SATNPRO1509","31.464000000000002","0.44068","5"],
    [53771,"HCEP03730542","2025-04-10 08:45:00","8.8846","3.1664","25.42","5.818","7.63","0.55","4.795","0.06","0.15","29.4","4.67232","60.68","0","SATNPRO1509","31.426","0.44018","5"],
    [53772,"HCEP03730542","2025-04-10 09:00:00","8.8862","3.16674","25.331","5.778","7.63","0.626","6.089","0.08","0.41","29.4023","4.67261","60.26","0","SATNPRO1509","31.272","0.43804","5"],
    [53773,"HCEP03730542","2025-04-10 09:15:00","8.8904","3.16716","25.263","5.731","7.63","0.628","6.045","0.07","0.2","29.4032","4.67266","59.78","0","SATNPRO1509","31.14","0.43614","5"],
    [53774,"HCEP03730542","2025-04-10 09:30:00","8.8894","3.16709","25.228","5.678","7.62","0.614","5.485","0.08","0.21","29.4032","4.67268","59.23","0","SATNPRO1509","31.214","0.4372","5"],
    [53775,"HCEP03730542","2025-04-10 09:45:00","8.8955","3.16738","25.245","5.642","7.62","0.669","6.823","0.07","0.31","29.4013","4.67228","58.85","0","SATNPRO1509","31.048000000000002","0.43492","5"],
    [53776,"HCEP03730542","2025-04-10 10:00:00","8.8973","3.16733","25.28","5.59","7.62","0.69","7.379","0.07","0.59","29.3992","4.67196","58.32","0","SATNPRO1509","31.092","0.43548","5"],
    [53777,"HCEP03730542","2025-04-10 10:15:00","8.898","3.1674","25.303","5.569","7.62","0.645","6.519","0.07","0.34","29.3993","4.67196","58.1","0","SATNPRO1509","31.018","0.43446","5"],
    [53778,"HCEP03730542","2025-04-10 10:30:00","8.9032","3.16777","25.348","5.546","7.61","0.645","7.247","0.05","0.88","29.3988","4.67179","57.87","0","SATNPRO1509","31.024","0.43456","5"],
    [53779,"HCEP03730542","2025-04-10 10:45:00","8.9061","3.16783","25.437","5.489","7.61","0.638","6.863","0.09","0.61","29.397","4.67149","57.27","0","SATNPRO1509","30.95","0.43354","5"],
    [53780,"HCEP03730542","2025-04-10 11:00:00","8.9087","3.16767","25.53","5.457","7.61","0.668","8.32","0.1","1.29","29.3931","4.67088","56.95","0","SATNPRO1509","30.87","0.43238","5"],
    [53781,"HCEP03730542","2025-04-10 11:15:00","8.9113","3.16732","25.639","5.427","7.6","0.688","7.434","0.05","0.62","29.3873","4.67","56.63","0","SATNPRO1509","30.744","0.43062","5"],
    [53782,"HCEP03730542","2025-04-10 11:30:00","8.9097","3.16657","25.702","5.401","7.6","0.706","7.902","0.05","1","29.3809","4.66912","56.35","0","SATNPRO1509","30.866","0.43234","5"],
    [53783,"HCEP03730542","2025-04-10 11:45:00","8.9071","3.16588","25.765","5.43","7.61","0.76","9.015","0.11","1.64","29.3759","4.66845","56.65","0","SATNPRO1509","31.004","0.43424","5"],
    [53784,"HCEP03730542","2025-04-10 12:00:00","8.9042","3.16523","25.887","5.475","7.61","0.713","6.739","0.08","0.84","29.3717","4.66791","57.12","0","SATNPRO1509","30.936","0.4333","5"],
    [53785,"HCEP03730542","2025-04-10 12:15:00","8.9006","3.16457","26.046","5.536","7.61","0.748","7.125","0.13","0.75","29.3678","4.66742","57.75","0","SATNPRO1509","31.072","0.4352","5"],
    [53786,"HCEP03730542","2025-04-10 12:30:00","8.9027","3.16486","26.16","5.602","7.61","0.699","6.057","0.08","0.38","29.369","4.66756","58.44","0","SATNPRO1509","31.122","0.43594","5"],
    [53787,"HCEP03730542","2025-04-10 12:45:00","8.9022","3.1648","26.205","5.601","7.62","0.667","5.739","0.07","0.52","29.3688","4.66755","58.42","0","SATNPRO1509","31.064","0.4351","5"],
    [53788,"HCEP03730542","2025-04-10 13:00:00","8.9088","3.16617","26.377","5.584","7.61","0.752","7.034","0.11","0.42","29.3772","4.66864","58.26","0","SATNPRO1509","30.924","0.43314","5"],
    [53789,"HCEP03730542","2025-04-10 13:15:00","8.911","3.16685","26.524","5.48","7.61","0.722","7.06","0.21","0.63","29.3824","4.66935","57.18","0","SATNPRO1509","30.922","0.4331","5"],
    [53790,"HCEP03730542","2025-04-10 13:30:00","8.9103","3.16693","26.618","5.441","7.61","0.678","6.956","0.08","1.73","29.3838","4.66957","56.78","0","SATNPRO1509","30.976","0.43386","5"],
    [53791,"HCEP03730542","2025-04-10 13:45:00","8.9065","3.16584","26.744","5.481","7.61","0.663","5.87","0.07","0.23","29.3756","4.66848","57.18","0","SATNPRO1509","31.04","0.43478","5"],
    [53792,"HCEP03730542","2025-04-10 14:00:00","8.9068","3.16661","26.925","5.549","7.61","0.654","6.902","0.05","0.67","29.3833","4.66958","57.89","0","SATNPRO1509","31.118","0.43588","5"],
    [53793,"HCEP03730542","2025-04-10 14:15:00","8.9036","3.1666","26.965","5.546","7.61","0.583","4.795","0.06","0.33","29.3858","4.67002","57.86","0","SATNPRO1509","31.298","0.43838","5"],
    [53794,"HCEP03730542","2025-04-10 14:30:00","8.9025","3.16676","27.114","5.584","7.61","0.595","4.586","0.07","0.59","29.3882","4.67039","58.26","0","SATNPRO1509","31.322","0.43872","5"],
    [53795,"HCEP03730542","2025-04-10 14:45:00","8.9008","3.16662","27.236","5.598","7.62","0.599","6.011","0.09","1.7","29.3882","4.67042","58.4","0","SATNPRO1509","31.328","0.4388","5"],
    [53796,"HCEP03730542","2025-04-10 15:00:00","8.8967","3.16629","27.251","5.634","7.62","0.628","6.301","0.07","0.62","29.3882","4.6705","58.77","0","SATNPRO1509","31.358","0.43922","5"],
    [53797,"HCEP03730542","2025-04-10 15:15:00","8.8985","3.1664","27.35","5.652","7.62","0.637","6.538","0.06","1.29","29.3878","4.67042","58.96","0","SATNPRO1509","31.28","0.43814","5"],
    [53798,"HCEP03730542","2025-04-10 15:30:00","8.8995","3.16644","27.326","5.633","7.62","0.643","5.366","0.06","0.36","29.3874","4.67033","58.77","0","SATNPRO1509","31.274","0.43806","5"],
    [53799,"HCEP03730542","2025-04-10 15:45:00","8.8977","3.16614","27.335","5.625","7.62","0.633","5.459","0.06","0.44","29.3857","4.67013","58.68","0","SATNPRO1509","31.328","0.43884","5"],
    [53800,"HCEP03730542","2025-04-10 16:00:00","8.8951","3.16555","27.303","5.641","7.62","0.631","5.037","0.08","0.47","29.3819","4.66963","58.84","0","SATNPRO1509","31.178","0.43668","5"],
    [53801,"HCEP03730542","2025-04-10 16:15:00","8.8927","3.1651","27.333","5.682","7.62","0.663","5.729","0.12","0.86","29.3792","4.66928","59.26","0","SATNPRO1509","31.304","0.43842","5"],
    [53802,"HCEP03730542","2025-04-10 16:30:00","8.8892","3.16457","27.306","5.723","7.63","0.695","5.718","0.11","0.42","29.3767","4.66899","59.69","0","SATNPRO1509","31.384","0.4396","5"],
    [53803,"HCEP03730542","2025-04-10 16:45:00","8.886","3.16435","27.248","5.769","7.63","0.687","7.581","0.1","4.8","29.3771","4.66911","60.16","0","SATNPRO1509","31.322","0.4387","5"],
    [53804,"HCEP03730542","2025-04-10 17:00:00","8.8811","3.16403","27.168","5.814","7.63","0.619","5.394","0.06","0.24","29.3778","4.6693","60.62","0","SATNPRO1509","31.258","0.43782","5"],
    [53805,"HCEP03730542","2025-04-10 17:15:00","8.8701","3.16346","27.083","5.86","7.64","0.649","5.178","0.08","0.22","29.3811","4.66998","61.09","0","SATNPRO1509","31.448","0.4405","5"],
    [53806,"HCEP03730542","2025-04-10 17:30:00","8.8701","3.16334","27.163","5.925","7.64","0.65","6.026","0.06","0.53","29.3798","4.6698","61.76","0","SATNPRO1509","31.356","0.4392","5"],
    [53807,"HCEP03730542","2025-04-10 17:45:00","8.8788","3.16302","27.076","5.925","7.64","0.661","7.04","0.06","1.15","29.3695","4.66814","61.77","0","SATNPRO1509","31.414","0.43998","5"],
    [53808,"HCEP03730542","2025-04-10 18:00:00","8.885","3.16288","26.962","5.887","7.64","0.688","6.179","0.07","0.74","29.363","4.66708","61.38","0","SATNPRO1509","31.317999999999998","0.43868","5"],
    [53809,"HCEP03730542","2025-04-10 18:15:00","8.8912","3.16274","26.858","5.853","7.63","0.698","6.048","0.12","0.4","29.3565","4.66602","61.03","0","SATNPRO1509","31.323999999999998","0.43874","5"],
    [53810,"HCEP03730542","2025-04-10 18:30:00","8.8953","3.16275","26.686","5.815","7.63","0.677","6.078","0.07","0.33","29.3532","4.66547","60.64","0","SATNPRO1509","31.288","0.43826","5"],
    [53811,"HCEP03730542","2025-04-10 18:45:00","8.8994","3.1626","26.557","5.783","7.63","0.713","5.242","0.12","0.32","29.3484","4.6647","60.31","0","SATNPRO1509","31.338","0.43898","5"],
    [53812,"HCEP03730542","2025-04-10 19:00:00","8.9053","3.16257","26.395","5.765","7.63","0.749","7.942","0.15","7.62","29.3433","4.66383","60.13","0","SATNPRO1509","31.33","0.43884","5"],
    [53813,"HCEP03730542","2025-04-10 19:15:00","8.9068","3.1625","26.243","5.727","7.63","0.774","5.118","0.21","0.47","29.3414","4.66353","59.74","0","SATNPRO1509","31.278","0.43806","5"],
    [53814,"HCEP03730542","2025-04-10 19:30:00","8.9065","3.16256","26.158","5.712","7.63","0.714","5.607","0.09","0.34","29.3422","4.66365","59.58","0","SATNPRO1509","31.254","0.43778","5"],
    [53815,"HCEP03730542","2025-04-10 19:45:00","8.9085","3.16256","26.03","5.696","7.62","0.733","5.962","0.15","0.47","29.3406","4.66337","59.41","0","SATNPRO1509","31.2","0.43702","5"],
    [53816,"HCEP03730542","2025-04-10 20:00:00","8.9098","3.1626","25.842","5.677","7.62","0.74","6.243","0.1","0.6","29.3401","4.66326","59.22","0","SATNPRO1509","31.256","0.43778","5"],
    [53817,"HCEP03730542","2025-04-10 20:15:00","8.91","3.16259","25.702","5.665","7.62","0.763","5.548","0.12","0.37","29.3398","4.66321","59.09","0","SATNPRO1509","31.13","0.43604","5"],
    [53818,"HCEP03730542","2025-04-10 20:30:00","8.9113","3.16254","25.615","5.659","7.62","0.74","5.915","0.12","0.47","29.3383","4.66296","59.03","0","SATNPRO1509","31.144","0.4362","5"],
    [53819,"HCEP03730542","2025-04-10 20:45:00","8.9128","3.16247","25.558","5.645","7.62","0.685","5.201","0.09","0.28","29.3363","4.66264","58.89","0","SATNPRO1509","31.27","0.438","5"],
    [53820,"HCEP03730542","2025-04-10 21:00:00","8.9134","3.16246","25.393","5.649","7.62","0.728","6.003","0.09","0.47","29.3358","4.66254","58.93","0","SATNPRO1509","31.286","0.43822","5"],
    [53821,"HCEP03730542","2025-04-10 21:15:00","8.9141","3.16246","25.319","5.642","7.62","0.725","5.784","0.07","0.45","29.3353","4.66245","58.86","0","SATNPRO1509","31.194","0.4369","5"],
    [53822,"HCEP03730542","2025-04-10 21:30:00","8.9146","3.16244","25.289","5.64","7.62","0.746","5.62","0.12","0.8","29.3346","4.66235","58.83","0","SATNPRO1509","31.15","0.43634","5"],
    [53823,"HCEP03730542","2025-04-10 21:45:00","8.9149","3.16241","25.267","5.631","7.62","0.8","6.701","0.12","1.16","29.3342","4.66227","58.75","0","SATNPRO1509","31.3","0.43846","5"],
    [53824,"HCEP03730542","2025-04-10 22:00:00","8.9138","3.1623","25.258","5.623","7.62","0.769","5.77","0.11","0.26","29.3339","4.66226","58.65","0","SATNPRO1509","31.082","0.4353","5"],
    [53825,"HCEP03730542","2025-04-10 22:15:00","8.9145","3.16222","25.324","5.619","7.62","0.706","5.663","0.08","0.36","29.3325","4.66205","58.62","0","SATNPRO1509","31.384","0.43958","5"],
    [53826,"HCEP03730542","2025-04-10 22:30:00","8.9161","3.16216","25.377","5.61","7.62","0.744","5.416","0.09","0.39","29.3306","4.66174","58.53","0","SATNPRO1509","31.24","0.43758","5"],
    [53827,"HCEP03730542","2025-04-10 22:45:00","8.9179","3.16232","25.405","5.611","7.62","0.757","5.504","0.11","0.39","29.3307","4.66173","58.53","0","SATNPRO1509","31.124","0.4359","5"],
    [53828,"HCEP03730542","2025-04-10 23:00:00","8.9188","3.16242","25.558","5.598","7.61","0.783","5.707","0.14","0.43","29.331","4.66176","58.4","0","SATNPRO1509","31.11","0.43572","5"],
    [53829,"HCEP03730542","2025-04-10 23:15:00","8.923","3.16216","25.621","5.578","7.61","0.798","5.446","0.16","0.57","29.3247","4.66078","58.2","0","SATNPRO1509","31.202","0.43708","5"],
    [53830,"HCEP03730542","2025-04-10 23:30:00","8.9285","3.16228","25.66","5.563","7.61","0.741","4.605","0.13","0.34","29.3214","4.6602","58.05","0","SATNPRO1509","31.21","0.43718","5"],
    [53831,"HCEP03730542","2025-04-10 23:45:00","8.9364","3.16258","25.741","5.525","7.61","0.722","5.46","0.07","0.8","29.318","4.65958","57.66","0","SATNPRO1509","31.094","0.43552","5"],
    [53832,"HCEP03730542","2025-04-11 00:00:00","8.9408","3.1626","25.885","5.439","7.6","0.742","5.29","0.08","0.26","29.3144","4.65899","56.77","0","SATNPRO1509","31.038","0.43472","5"],
    [53833,"HCEP03730542","2025-04-11 00:15:00","8.9436","3.16253","26.032","5.407","7.6","0.776","5.217","0.11","0.36","29.3114","4.65851","56.44","0","SATNPRO1509","31.06","0.43508","5"],
    [53834,"HCEP03730542","2025-04-11 00:30:00","8.9449","3.1625","26.152","5.382","7.6","0.79","5.862","0.08","1.07","29.31","4.65829","56.18","0","SATNPRO1509","30.902","0.43284","5"],
    [53835,"HCEP03730542","2025-04-11 00:45:00","8.9461","3.16228","26.3","5.364","7.6","0.777","6.042","0.09","0.96","29.3067","4.65779","55.99","0","SATNPRO1509","30.936","0.4333","5"],
    [53836,"HCEP03730542","2025-04-11 01:00:00","8.946","3.16213","26.447","5.358","7.6","0.826","6.877","0.09","0.88","29.3051","4.65758","55.92","0","SATNPRO1509","30.924","0.43314","5"],
    [53837,"HCEP03730542","2025-04-11 01:15:00","8.9436","3.16202","26.559","5.371","7.6","0.737","5.347","0.05","0.19","29.3059","4.65775","56.06","0","SATNPRO1509","30.98","0.43392","5"],
    [53838,"HCEP03730542","2025-04-11 01:30:00","8.9411","3.16183","26.779","5.399","7.6","0.775","5.349","0.09","0.66","29.306","4.65782","56.35","0","SATNPRO1509","31.046","0.43486","5"],
    [53839,"HCEP03730542","2025-04-11 01:45:00","8.9414","3.1615","26.924","5.414","7.6","0.857","5.179","0.19","0.56","29.3023","4.65729","56.5","0","SATNPRO1509","31.022","0.4345","5"],
    [53840,"HCEP03730542","2025-04-11 02:00:00","8.944","3.16069","27.092","5.43","7.6","0.893","5.712","0.13","0.42","29.2917","4.65574","56.67","0","SATNPRO1509","31.014","0.4344","5"],
    [53841,"HCEP03730542","2025-04-11 02:15:00","8.9452","3.16042","27.262","5.431","7.6","0.793","5.082","0.17","0.82","29.2879","4.65518","56.67","0","SATNPRO1509","30.914","0.433","5"],
    [53842,"HCEP03730542","2025-04-11 02:30:00","8.9456","3.16086","27.404","5.433","7.6","0.967","4.871","0.22","0.19","29.292","4.65577","56.7","0","SATNPRO1509","30.982","0.43396","5"],
    [53843,"HCEP03730542","2025-04-11 02:45:00","8.9458","3.16159","27.53","5.416","7.6","1.02","5.444","0.18","0.51","29.2994","4.65683","56.52","0","SATNPRO1509","30.936","0.43332","5"],
    [53844,"HCEP03730542","2025-04-11 03:00:00","8.9459","3.16189","27.663","5.373","7.6","1.032","6.375","0.17","0.43","29.3023","4.65725","56.08","0","SATNPRO1509","31.022","0.43454","5"],
    [53845,"HCEP03730542","2025-04-11 03:15:00","8.944","3.16175","27.771","5.357","7.6","1.256","6.013","0.29","0.33","29.3024","4.65731","55.91","0","SATNPRO1509","30.830000000000002","0.4318","5"],
    [53846,"HCEP03730542","2025-04-11 03:30:00","8.9413","3.16136","27.888","5.384","7.6","1.333","6.497","0.2","0.5","29.3004","4.65709","56.19","0","SATNPRO1509","30.928","0.4332","5"],
    [53847,"HCEP03730542","2025-04-11 03:45:00","8.9375","3.16065","27.842","5.418","7.6","1.565","6.663","0.41","0.59","29.2964","4.65658","56.54","0","SATNPRO1509","33.292","0.46634","5"],
    [53848,"HCEP03730542","2025-04-11 04:00:00","8.9364","3.1601","27.737","5.445","7.6","1.293","6.737","0.27","0.51","29.2917","4.65591","56.81","0","SATNPRO1509","31.076","0.4353","5"],
    [53849,"HCEP03730542","2025-04-11 04:15:00","8.9363","3.16033","27.621","5.449","7.6","1.256","6.378","0.35","0.58","29.2942","4.65627","56.85","0","SATNPRO1509","31.136","0.43606","5"],
    [53850,"HCEP03730542","2025-04-11 04:30:00","8.9367","3.15989","27.582","5.453","7.6","1.167","6.592","0.25","0.53","29.2893","4.65556","56.9","0","SATNPRO1509","30.856","0.4322","5"],
    [53851,"HCEP03730542","2025-04-11 04:45:00","8.9381","3.15744","27.501","5.474","7.61","1.084","6.418","0.18","0.74","29.2631","4.65176","57.11","0","SATNPRO1509","31.041999999999998","0.43478","5"],
    [53852,"HCEP03730542","2025-04-11 05:00:00","8.9332","3.15165","27.423","5.536","7.61","1.211","6.608","0.24","0.73","29.2079","4.64391","57.73","0","SATNPRO1509","30.692","0.42988","5"],
    [53853,"HCEP03730542","2025-04-11 05:15:00","8.9242","3.14277","27.284","5.71","7.63","1.018","6.634","0.14","0.55","29.1243","4.63205","59.49","0","SATNPRO1509","30.722","0.43026","5"],
    [53854,"HCEP03730542","2025-04-11 05:30:00","8.9243","3.14453","27.192","5.894","7.63","1.159","6.96","0.21","0.55","29.1422","4.63462","61.42","0","SATNPRO1509","30.826","0.43178","5"],
    [53855,"HCEP03730542","2025-04-11 05:45:00","8.9218","3.14202","27.072","5.917","7.64","1.266","7.39","0.26","0.53","29.1186","4.63126","61.65","0","SATNPRO1509","30.608","0.42872","5"],
    [53856,"HCEP03730542","2025-04-11 06:00:00","8.9191","3.14103","26.985","5.969","7.64","1.456","9.169","0.2","0.94","29.1107","4.63017","62.19","0","SATNPRO1509","30.606","0.42868","5"],
    [53857,"HCEP03730542","2025-04-11 06:15:00","8.918","3.14214","26.858","6.012","7.64","1.27","8.805","0.18","0.56","29.1231","4.63198","62.64","0","SATNPRO1509","30.706","0.43008","5"],
    [53858,"HCEP03730542","2025-04-11 06:30:00","8.9106","3.14541","26.717","5.995","7.64","1.006","8.389","0.12","0.34","29.1627","4.63779","62.46","0","SATNPRO1509","30.778","0.4311","5"],
    [53859,"HCEP03730542","2025-04-11 06:45:00","8.9027","3.14668","26.605","6.021","7.65","0.894","6.701","0.1","1.32","29.1823","4.64075","62.73","0","SATNPRO1509","31.142","0.4362","5"],
    [53860,"HCEP03730542","2025-04-11 07:00:00","8.8999","3.14513","26.474","6.098","7.65","0.963","5.716","0.16","0.31","29.1688","4.63886","63.52","0","SATNPRO1509","31.264","0.4379","5"],
    [53861,"HCEP03730542","2025-04-11 07:15:00","8.9002","3.14473","26.357","6.171","7.66","1.102","9","0.25","6.47","29.1645","4.63823","64.28","0","SATNPRO1509","31.12","0.43586","5"],
    [53862,"HCEP03730542","2025-04-11 07:30:00","8.9013","3.14549","26.231","6.164","7.65","1.115","7.915","0.2","0.46","29.1713","4.63918","64.22","0","SATNPRO1509","30.944","0.4334","5"],
    [53863,"HCEP03730542","2025-04-11 07:45:00","8.9019","3.14593","26.073","6.129","7.65","1.105","8.584","0.12","0.38","29.1755","4.63976","63.86","0","SATNPRO1509","31.054000000000002","0.43492","5"],
    [53864,"HCEP03730542","2025-04-11 08:00:00","8.9041","3.14769","25.922","6.108","7.65","0.943","7.266","0.09","0.72","29.1918","4.64205","63.64","0","SATNPRO1509","31.232","0.43742","5"],
    [53865,"HCEP03730542","2025-04-11 08:15:00","8.9065","3.14954","25.777","6.083","7.65","0.905","7.07","0.1","0.45","29.2088","4.64445","63.39","0","SATNPRO1509","31.15","0.43636","5"],
    [53866,"HCEP03730542","2025-04-11 08:30:00","8.9102","3.15117","25.622","6.037","7.65","0.883","6.645","0.1","0.74","29.2225","4.64634","62.93","0","SATNPRO1509","31.304000000000002","0.43848","5"],
    [53867,"HCEP03730542","2025-04-11 08:45:00","8.912","3.15259","25.458","5.984","7.64","1.053","17.832","0.32","24.23","29.2358","4.64821","62.38","0","SATNPRO1509","31.366","0.43934","5"],
    [53868,"HCEP03730542","2025-04-11 09:00:00","8.91","3.15253","25.325","5.959","7.64","1.005","6.642","0.16","1.49","29.2368","4.64839","62.11","0","SATNPRO1509","31.286","0.43822","5"],
    [53869,"HCEP03730542","2025-04-11 09:15:00","8.9062","3.15248","25.196","5.959","7.64","0.886","6.012","0.15","0.55","29.2395","4.64884","62.12","0","SATNPRO1509","31.204","0.43702","5"],
    [53870,"HCEP03730542","2025-04-11 09:30:00","8.9046","3.15326","25.095","5.968","7.64","1.01","14.069","0.49","19.52","29.2488","4.6502","62.2","0","SATNPRO1509","31.396","0.43976","5"],
    [53871,"HCEP03730542","2025-04-11 09:45:00","8.9023","3.15362","25.056","5.966","7.64","1.293","39.42","0.59","28.22","29.2544","4.65104","62.18","0","SATNPRO1509","31.366","0.43934","5"],
    [53872,"HCEP03730542","2025-04-11 10:00:00","8.8979","3.15377","25.031","5.968","7.64","0.933","5.806","0.18","0.64","29.2597","4.65188","62.2","0","SATNPRO1509","31.296","0.43834","5"],
    [53873,"HCEP03730542","2025-04-11 10:15:00","8.8939","3.15398","25.042","5.986","7.65","1.043","8.933","0.19","1.57","29.265","4.65272","62.39","0","SATNPRO1509","31.3","0.4384","5"],
    [53874,"HCEP03730542","2025-04-11 10:30:00","8.8851","3.15417","25.032","6.017","7.65","0.878","5.494","0.1","0.24","29.2742","4.65421","62.7","0","SATNPRO1509","31.44","0.44038","5"],
    [53875,"HCEP03730542","2025-04-11 10:45:00","8.8786","3.15382","25.075","6.063","7.65","0.832","6.041","0.1","1.03","29.2759","4.65458","63.17","0","SATNPRO1509","31.426","0.4402","5"],
    [53876,"HCEP03730542","2025-04-11 11:00:00","8.879","3.15377","25.096","6.105","7.65","0.912","5.269","0.16","0.43","29.2751","4.65446","63.61","0","SATNPRO1509","31.37","0.43938","5"],
    [53877,"HCEP03730542","2025-04-11 11:15:00","8.873","3.15247","25.167","6.122","7.66","0.848","5.453","0.12","1.64","29.2667","4.65336","63.78","0","SATNPRO1509","31.482","0.44094","5"],
    [53878,"HCEP03730542","2025-04-11 11:30:00","8.8749","3.15226","25.236","6.173","7.66","0.964","7.784","0.16","1.58","29.263","4.6528","64.31","0","SATNPRO1509","31.396","0.43976","5"],
    [53879,"HCEP03730542","2025-04-11 11:45:00","8.8705","3.15188","25.324","6.192","7.66","0.88","7.218","0.14","1.96","29.2627","4.65285","64.5","0","SATNPRO1509","31.558","0.44204","5"],
    [53880,"HCEP03730542","2025-04-11 12:00:00","8.868","3.15122","25.449","6.236","7.67","0.813","4.625","0.14","0.3","29.2579","4.6522","64.96","0","SATNPRO1509","31.508","0.44132","5"],
    [53881,"HCEP03730542","2025-04-11 12:15:00","8.8726","3.15075","25.534","6.277","7.67","0.774","4.323","0.12","0.47","29.2492","4.65087","65.38","0","SATNPRO1509","31.454","0.44054","5"],
    [53882,"HCEP03730542","2025-04-11 12:30:00","8.873","3.15051","25.69","6.274","7.67","0.821","3.894","0.16","0.26","29.2464","4.65047","65.35","0","SATNPRO1509","31.552","0.44192","5"],
    [53883,"HCEP03730542","2025-04-11 12:45:00","8.8706","3.15101","25.893","6.27","7.67","0.846","5.36","0.11","0.45","29.2534","4.65154","65.31","0","SATNPRO1509","31.346","0.43908","5"],
    [53884,"HCEP03730542","2025-04-11 13:00:00","8.8706","3.15108","25.939","6.272","7.67","0.852","4.281","0.2","0.28","29.2541","4.65165","65.33","0","SATNPRO1509","31.608","0.44272","5"],
    [53885,"HCEP03730542","2025-04-11 13:15:00","8.8743","3.15078","26.039","6.265","7.67","0.776","4.382","0.09","0.39","29.2479","4.65069","65.26","0","SATNPRO1509","31.451999999999998","0.4406","5"],
    [53886,"HCEP03730542","2025-04-11 13:30:00","8.8768","3.15177","26.139","6.251","7.66","0.844","5.077","0.1","1","29.256","4.65181","65.13","0","SATNPRO1509","31.25","0.4377","5"],
    [53887,"HCEP03730542","2025-04-11 13:45:00","8.8733","3.15181","26.257","6.208","7.66","0.877","4.568","0.1","0.27","29.2592","4.65235","64.67","0","SATNPRO1509","31.38","0.43952","5"],
    [53888,"HCEP03730542","2025-04-11 14:00:00","8.8711","3.15208","26.414","6.226","7.66","0.868","6.758","0.11","3.59","29.2638","4.65306","64.86","0","SATNPRO1509","31.522","0.44152","5"],
    [53889,"HCEP03730542","2025-04-11 14:15:00","8.872","3.15281","26.538","6.23","7.66","0.863","5.238","0.11","1.71","29.2704","4.654","64.9","0","SATNPRO1509","31.46","0.44064","5"],
    [53890,"HCEP03730542","2025-04-11 14:30:00","8.8846","3.15358","26.717","6.187","7.66","0.822","7.861","0.14","3.32","29.268","4.65342","64.47","0","SATNPRO1509","31.508","0.44132","5"],
    [53891,"HCEP03730542","2025-04-11 14:45:00","8.888","3.15413","26.843","6.107","7.65","0.875","12.786","0.09","1.08","29.2707","4.65376","63.64","0","SATNPRO1509","31.344","0.439","5"],
    [53892,"HCEP03730542","2025-04-11 15:00:00","8.8927","3.15504","26.979","6.027","7.65","0.865","5.911","0.11","0.51","29.276","4.65444","62.82","0","SATNPRO1509","31.202","0.43704","5"],
    [53893,"HCEP03730542","2025-04-11 15:15:00","8.9038","3.15628","27.058","5.954","7.64","0.788","10.11","0.07","2.05","29.2796","4.65475","62.07","0","SATNPRO1509","31.240000000000002","0.43758","5"],
    [53894,"HCEP03730542","2025-04-11 15:30:00","8.9168","3.15719","27.157","5.826","7.63","0.971","8.546","0.21","1.62","29.2783","4.65432","60.76","0","SATNPRO1509","31.029999999999998","0.4346","5"],
    [53895,"HCEP03730542","2025-04-11 15:45:00","8.9238","3.15783","27.3","5.697","7.63","0.848","6.483","0.1","1.8","29.279","4.6543","59.42","0","SATNPRO1509","31.034000000000002","0.43472","5"],
    [53896,"HCEP03730542","2025-04-11 16:00:00","8.9271","3.15832","27.351","5.623","7.62","0.867","5.678","0.09","1.25","29.2813","4.65457","58.65","0","SATNPRO1509","31.114","0.43582","5"],
    [53897,"HCEP03730542","2025-04-11 16:15:00","8.9294","3.15841","27.42","5.578","7.62","0.918","5.432","0.13","0.46","29.2803","4.65439","58.19","0","SATNPRO1509","30.95","0.43348","5"],
    [53898,"HCEP03730542","2025-04-11 16:30:00","8.9298","3.15847","27.437","5.561","7.61","0.897","6.79","0.11","2.28","29.2806","4.65442","58.02","0","SATNPRO1509","31.018","0.43446","5"],
    [53899,"HCEP03730542","2025-04-11 16:45:00","8.9326","3.15843","27.437","5.538","7.61","0.836","4.773","0.09","0.39","29.2778","4.65397","57.78","0","SATNPRO1509","30.93","0.43324","5"],
    [53900,"HCEP03730542","2025-04-11 17:00:00","8.9337","3.15794","27.364","5.531","7.61","0.934","6.464","0.13","1.87","29.2719","4.65309","57.7","0","SATNPRO1509","30.862","0.43228","5"],
    [53901,"HCEP03730542","2025-04-11 17:15:00","8.9344","3.15821","27.36","5.532","7.61","0.882","6.049","0.13","1.91","29.2742","4.65341","57.72","0","SATNPRO1509","30.977999999999998","0.4339","5"],
    [53902,"HCEP03730542","2025-04-11 17:30:00","8.9355","3.15838","27.316","5.523","7.61","0.878","5.234","0.09","0.27","29.275","4.65351","57.62","0","SATNPRO1509","30.986","0.434","5"],
    [53903,"HCEP03730542","2025-04-11 17:45:00","8.937","3.15832","27.273","5.501","7.61","0.933","5.828","0.14","0.38","29.2732","4.65322","57.39","0","SATNPRO1509","30.944","0.43338","5"],
    [53904,"HCEP03730542","2025-04-11 18:00:00","8.9391","3.15776","27.189","5.479","7.61","0.904","5.299","0.12","0.29","29.2657","4.65209","57.17","0","SATNPRO1509","30.832","0.43184","5"],
    [53905,"HCEP03730542","2025-04-11 18:15:00","8.9414","3.15755","27.024","5.467","7.6","0.919","6.357","0.1","0.73","29.2618","4.65148","57.04","0","SATNPRO1509","30.892","0.43266","5"],
    [53906,"HCEP03730542","2025-04-11 18:30:00","8.9432","3.15751","26.912","5.457","7.6","0.931","6.221","0.11","0.53","29.2599","4.65117","56.94","0","SATNPRO1509","30.854","0.43214","5"],
    [53907,"HCEP03730542","2025-04-11 18:45:00","8.9451","3.15753","26.861","5.438","7.6","0.915","5.588","0.12","0.28","29.2586","4.65094","56.74","0","SATNPRO1509","30.918","0.43312","5"],
    [53908,"HCEP03730542","2025-04-11 19:00:00","8.9454","3.15765","26.737","5.428","7.6","0.86","6.06","0.07","0.45","29.2595","4.65106","56.63","0","SATNPRO1509","30.826","0.43178","5"],
    [53909,"HCEP03730542","2025-04-11 19:15:00","8.9452","3.1578","26.63","5.413","7.6","0.913","5.623","0.13","0.71","29.2613","4.65132","56.49","0","SATNPRO1509","30.84","0.43194","5"],
    [53910,"HCEP03730542","2025-04-11 19:30:00","8.9427","3.15841","26.532","5.398","7.6","0.921","7.451","0.08","0.71","29.2696","4.65255","56.33","0","SATNPRO1509","30.794","0.43132","5"],
    [53911,"HCEP03730542","2025-04-11 19:45:00","8.9429","3.15872","26.411","5.372","7.6","0.943","8.177","0.08","1.13","29.2727","4.65299","56.05","0","SATNPRO1509","30.852","0.43214","5"],
    [53912,"HCEP03730542","2025-04-11 20:00:00","8.9424","3.15923","26.279","5.352","7.6","0.971","8.179","0.08","1.83","29.2785","4.65382","55.84","0","SATNPRO1509","30.75","0.4307","5"],
    [53913,"HCEP03730542","2025-04-11 20:15:00","8.944","3.15955","26.137","5.332","7.59","1.125","8.851","0.25","1.22","29.2804","4.65405","55.64","0","SATNPRO1509","30.786","0.43124","5"],
    [53914,"HCEP03730542","2025-04-11 20:30:00","8.9453","3.15974","25.981","5.305","7.59","0.946","7.919","0.1","1.21","29.2814","4.65417","55.36","0","SATNPRO1509","30.722","0.43032","5"],
    [53915,"HCEP03730542","2025-04-11 20:45:00","8.9454","3.15987","25.91","5.296","7.59","0.91","6.863","0.07","0.9","29.2827","4.65435","55.26","0","SATNPRO1509","30.72","0.43028","5"],
    [53916,"HCEP03730542","2025-04-11 21:00:00","8.9433","3.16005","25.813","5.289","7.59","0.865","6.751","0.06","0.75","29.2863","4.6549","55.19","0","SATNPRO1509","30.714000000000002","0.4302","5"],
    [53917,"HCEP03730542","2025-04-11 21:15:00","8.9412","3.16002","25.658","5.29","7.59","1.102","149.893","0.14","78.43","29.2878","4.65514","55.2","0","SATNPRO1509","30.71","0.4301","5"],
    [53918,"HCEP03730542","2025-04-11 21:30:00","8.9377","3.15993","25.601","5.309","7.59","2.862","65.158","1.44","21.88","29.2898","4.65549","55.4","0","SATNPRO1509","30.682000000000002","0.42978","5"],
    [53919,"HCEP03730542","2025-04-11 21:45:00","8.9357","3.15984","25.542","5.329","7.59","0.878","7.07","0.07","0.3","29.2905","4.65562","55.6","0","SATNPRO1509","30.766000000000002","0.43098","5"],
    [53920,"HCEP03730542","2025-04-11 22:00:00","8.9338","3.15971","25.483","5.354","7.6","0.901","7.472","0.08","0.38","29.2908","4.65569","55.86","0","SATNPRO1509","30.812","0.43156","5"],
    [53921,"HCEP03730542","2025-04-11 22:15:00","8.934","3.15933","25.472","5.383","7.6","0.864","6.61","0.09","0.57","29.2867","4.65511","56.16","0","SATNPRO1509","30.728","0.4304","5"],
    [53922,"HCEP03730542","2025-04-11 22:30:00","8.9352","3.1588","25.445","5.403","7.6","0.908","6.197","0.09","0.32","29.2804","4.65417","56.37","0","SATNPRO1509","30.736","0.43048","5"],
    [53923,"HCEP03730542","2025-04-11 22:45:00","8.9306","3.15758","25.464","5.425","7.6","0.947","8.912","0.07","1.9","29.2716","4.65299","56.59","0","SATNPRO1509","30.82","0.43168","5"],
    [53924,"HCEP03730542","2025-04-11 23:00:00","8.9148","3.15617","25.535","5.483","7.61","0.963","8.293","0.07","0.55","29.2701","4.65309","57.18","0","SATNPRO1509","30.862000000000002","0.4323","5"],
    [53925,"HCEP03730542","2025-04-11 23:15:00","8.8981","3.15434","25.601","5.67","7.62","0.904","7.788","0.07","0.94","29.265","4.65268","59.11","0","SATNPRO1509","31.104","0.43562","5"],
    [53926,"HCEP03730542","2025-04-11 23:30:00","8.8709","3.15049","25.689","5.925","7.64","0.842","5.724","0.09","0.16","29.2479","4.65074","61.71","0","SATNPRO1509","31.482","0.44096","5"],
    [53927,"HCEP03730542","2025-04-11 23:45:00","8.8654","3.14946","25.783","6.188","7.66","0.816","6","0.07","0.29","29.2417","4.64996","64.44","0","SATNPRO1509","31.328","0.43884","5"],
    [53928,"HCEP03730542","2025-04-12 00:00:00","8.8644","3.14986","25.858","6.283","7.66","0.807","5.587","0.11","0.27","29.2467","4.6507","65.43","0","SATNPRO1509","31.34","0.43896","5"],
    [53929,"HCEP03730542","2025-04-12 00:15:00","8.8665","3.15024","26.006","6.294","7.66","0.814","5.579","0.1","0.24","29.2488","4.65096","65.55","0","SATNPRO1509","31.334","0.43886","5"],
    [53930,"HCEP03730542","2025-04-12 00:30:00","8.8672","3.15001","26.109","6.266","7.66","0.837","7.47","0.08","1.14","29.2458","4.65052","65.26","0","SATNPRO1509","31.28","0.4381","5"],
    [53931,"HCEP03730542","2025-04-12 00:45:00","8.871","3.14993","26.258","6.235","7.66","0.888","7.513","0.09","0.26","29.2418","4.64989","64.94","0","SATNPRO1509","31.274","0.43802","5"],
    [53932,"HCEP03730542","2025-04-12 01:00:00","8.872","3.15053","26.473","6.18","7.66","0.958","6.52","0.08","0.47","29.2471","4.65064","64.38","0","SATNPRO1509","31.244","0.43762","5"],
    [53933,"HCEP03730542","2025-04-12 01:15:00","8.8709","3.15056","26.603","6.17","7.66","0.956","6.118","0.08","0.22","29.2482","4.65084","64.27","0","SATNPRO1509","31.163999999999998","0.43652","5"],
    [53934,"HCEP03730542","2025-04-12 01:30:00","8.8697","3.15027","26.744","6.193","7.66","0.996","5.906","0.1","0.49","29.2463","4.65058","64.5","0","SATNPRO1509","31.276","0.43808","5"],
    [53935,"HCEP03730542","2025-04-12 01:45:00","8.8686","3.15035","26.852","6.224","7.66","0.885","4.964","0.09","0.12","29.2479","4.65085","64.82","0","SATNPRO1509","31.254","0.43774","5"],
    [53936,"HCEP03730542","2025-04-12 02:00:00","8.8695","3.15054","26.987","6.223","7.66","0.96","5.787","0.09","0.75","29.249","4.65099","64.81","0","SATNPRO1509","31.206","0.43712","5"],
    [53937,"HCEP03730542","2025-04-12 02:15:00","8.8698","3.15054","27.115","6.202","7.66","0.886","5.529","0.09","0.19","29.2487","4.65096","64.6","0","SATNPRO1509","31.212","0.43714","5"],
    [53938,"HCEP03730542","2025-04-12 02:30:00","8.8694","3.15051","27.348","6.196","7.66","0.976","5.833","0.11","1.31","29.2486","4.65096","64.53","0","SATNPRO1509","31.302","0.43844","5"],
    [53939,"HCEP03730542","2025-04-12 02:45:00","8.8705","3.15052","27.369","6.193","7.66","0.895","5.683","0.06","0.23","29.2478","4.65083","64.51","0","SATNPRO1509","31.214","0.4372","5"],
    [53940,"HCEP03730542","2025-04-12 03:00:00","8.8702","3.1507","27.491","6.183","7.66","0.919","5.183","0.1","0.13","29.2498","4.65113","64.4","0","SATNPRO1509","31.224","0.43736","5"],
    [53941,"HCEP03730542","2025-04-12 03:15:00","8.8703","3.15068","27.613","6.183","7.66","0.894","4.954","0.08","0.53","29.2495","4.65109","64.4","0","SATNPRO1509","31.254","0.43776","5"],
    [53942,"HCEP03730542","2025-04-12 03:30:00","8.8709","3.15054","27.644","6.173","7.66","0.953","6.32","0.11","1.1","29.2477","4.65082","64.3","0","SATNPRO1509","31.178","0.4367","5"],
    [53943,"HCEP03730542","2025-04-12 03:45:00","8.8689","3.1498","27.733","6.179","7.66","0.917","4.399","0.11","0.4","29.2416","4.64999","64.36","0","SATNPRO1509","31.322","0.4387","5"],
    [53944,"HCEP03730542","2025-04-12 04:00:00","8.8704","3.15052","27.771","6.209","7.66","0.86","5.685","0.1","0.6","29.2478","4.65086","64.67","0","SATNPRO1509","31.236","0.43752","5"],
    [53945,"HCEP03730542","2025-04-12 04:15:00","8.866","3.15098","27.747","6.188","7.66","0.824","7.034","0.1","1.75","29.2561","4.65212","64.45","0","SATNPRO1509","31.284","0.43816","5"],
    [53946,"HCEP03730542","2025-04-12 04:30:00","8.8695","3.15049","27.7","6.211","7.66","0.863","4.827","0.09","0.24","29.2482","4.65092","64.7","0","SATNPRO1509","31.21","0.43716","5"],
    [53947,"HCEP03730542","2025-04-12 04:45:00","8.8689","3.15054","27.724","6.201","7.66","0.856","5.505","0.14","0.48","29.2492","4.65108","64.59","0","SATNPRO1509","31.274","0.43802","5"],
    [53948,"HCEP03730542","2025-04-12 05:00:00","8.8682","3.15102","27.718","6.19","7.66","0.903","7.127","0.17","0.56","29.2548","4.65189","64.47","0","SATNPRO1509","31.326","0.43874","5"],
    [53949,"HCEP03730542","2025-04-12 05:15:00","8.8687","3.1509","27.63","6.169","7.66","0.875","6.84","0.1","1.54","29.2531","4.65164","64.26","0","SATNPRO1509","31.384","0.43956","5"],
    [53950,"HCEP03730542","2025-04-12 05:30:00","8.8688","3.15082","27.573","6.171","7.66","0.867","6.321","0.1","0.59","29.2522","4.65151","64.27","0","SATNPRO1509","31.232","0.43742","5"],
    [53951,"HCEP03730542","2025-04-12 05:45:00","8.8715","3.15046","27.496","6.166","7.66","0.957","7.325","0.14","0.64","29.2464","4.65062","64.22","0","SATNPRO1509","31.332","0.43886","5"],
    [53952,"HCEP03730542","2025-04-12 06:00:00","8.8686","3.1508","27.409","6.148","7.66","0.815","6.877","0.09","0.48","29.2523","4.6515","64.03","0","SATNPRO1509","31.226","0.43734","5"],
    [53953,"HCEP03730542","2025-04-12 06:15:00","8.8674","3.15114","27.237","6.172","7.66","0.828","7.667","0.08","0.56","29.2568","4.65217","64.29","0","SATNPRO1509","31.218","0.43722","5"],
    [53954,"HCEP03730542","2025-04-12 06:30:00","8.8677","3.15123","27.103","6.174","7.66","0.83","6.55","0.07","0.29","29.2575","4.65226","64.31","0","SATNPRO1509","31.150000000000002","0.43634","5"],
    [53955,"HCEP03730542","2025-04-12 06:45:00","8.8694","3.15152","27.019","6.166","7.66","0.827","6.07","0.11","0.4","29.2592","4.65246","64.23","0","SATNPRO1509","31.168","0.4366","5"],
    [53956,"HCEP03730542","2025-04-12 07:00:00","8.8722","3.15171","26.892","6.14","7.66","0.863","6.35","0.1","0.26","29.2588","4.65235","63.96","0","SATNPRO1509","31.088","0.43544","5"],
    [53957,"HCEP03730542","2025-04-12 07:15:00","8.8799","3.1528","26.784","6.101","7.65","0.91","6.519","0.1","0.55","29.2637","4.6529","63.57","0","SATNPRO1509","31.176","0.43668","5"],
    [53958,"HCEP03730542","2025-04-12 07:30:00","8.8928","3.15425","26.564","5.991","7.64","0.879","6.58","0.07","0.48","29.2681","4.65327","62.44","0","SATNPRO1509","30.998","0.43418","5"],
    [53959,"HCEP03730542","2025-04-12 07:45:00","8.8999","3.15493","26.374","5.875","7.64","0.864","6.329","0.1","0.33","29.2693","4.65331","61.24","0","SATNPRO1509","31.024","0.43456","5"],
    [53960,"HCEP03730542","2025-04-12 08:00:00","8.9063","3.15549","26.203","5.791","7.63","0.956","6.179","0.14","0.54","29.2698","4.65325","60.37","0","SATNPRO1509","31.026","0.43458","5"],
    [53961,"HCEP03730542","2025-04-12 08:15:00","8.9137","3.15592","26.027","5.722","7.63","0.915","5.631","0.08","0.37","29.2683","4.65287","59.66","0","SATNPRO1509","30.97","0.43382","5"],
    [53962,"HCEP03730542","2025-04-12 08:30:00","8.9187","3.15623","25.797","5.647","7.62","0.893","5.892","0.1","0.32","29.2674","4.65263","58.89","0","SATNPRO1509","30.878","0.43254","5"],
    [53963,"HCEP03730542","2025-04-12 08:45:00","8.9208","3.15636","25.604","5.587","7.62","0.913","6.401","0.13","0.58","29.2671","4.65254","58.26","0","SATNPRO1509","30.874","0.43248","5"],
    [53964,"HCEP03730542","2025-04-12 09:00:00","8.9224","3.15632","25.43","5.555","7.61","0.95","5.898","0.13","0.46","29.2655","4.65227","57.93","0","SATNPRO1509","30.766","0.43088","5"],
    [53965,"HCEP03730542","2025-04-12 09:15:00","8.9228","3.15614","25.197","5.54","7.61","1.012","5.847","0.23","0.51","29.2634","4.65195","57.77","0","SATNPRO1509","30.79","0.43124","5"],
    [53966,"HCEP03730542","2025-04-12 09:30:00","8.9228","3.15601","24.999","5.534","7.61","1.024","5.598","0.14","0.63","29.2621","4.65176","57.71","0","SATNPRO1509","30.826","0.43178","5"],
    [53967,"HCEP03730542","2025-04-12 09:45:00","8.9221","3.15604","24.892","5.54","7.61","1.109","6.636","0.12","1.06","29.263","4.65189","57.77","0","SATNPRO1509","30.966","0.43372","5"],
    [53968,"HCEP03730542","2025-04-12 10:00:00","8.9221","3.15624","24.806","5.544","7.61","0.88","5.456","0.1","0.26","29.2651","4.65219","57.82","0","SATNPRO1509","30.826","0.43176","5"],
    [53969,"HCEP03730542","2025-04-12 10:15:00","8.9195","3.1562","24.745","5.54","7.61","0.88","5.768","0.12","0.27","29.2668","4.65248","57.78","0","SATNPRO1509","30.842","0.432","5"],
    [53970,"HCEP03730542","2025-04-12 10:30:00","8.9113","3.15573","24.754","5.563","7.61","0.969","6.954","0.08","1.09","29.2688","4.65293","58.01","0","SATNPRO1509","30.882","0.43258","5"],
    [53971,"HCEP03730542","2025-04-12 10:45:00","8.9069","3.15557","24.727","5.617","7.62","0.848","6.298","0.12","0.35","29.2707","4.65328","58.57","0","SATNPRO1509","30.872","0.4324","5"],
    [53972,"HCEP03730542","2025-04-12 11:00:00","8.9045","3.15553","24.751","5.648","7.62","0.835","6.064","0.1","0.25","29.2723","4.65354","58.88","0","SATNPRO1509","31.05","0.4349","5"],
    [53973,"HCEP03730542","2025-04-12 11:15:00","8.9013","3.15537","24.797","5.668","7.62","0.878","7.103","0.1","0.75","29.2733","4.65376","59.09","0","SATNPRO1509","30.952","0.43352","5"],
    [53974,"HCEP03730542","2025-04-12 11:30:00","8.894","3.15441","24.882","5.717","7.62","0.913","6.256","0.08","0.7","29.2695","4.65336","59.59","0","SATNPRO1509","31.088","0.43546","5"],
    [53975,"HCEP03730542","2025-04-12 11:45:00","8.8915","3.15442","24.955","5.796","7.63","0.831","5.993","0.09","0.37","29.2715","4.6537","60.41","0","SATNPRO1509","30.994","0.4341","5"],
    [53976,"HCEP03730542","2025-04-12 12:00:00","8.8888","3.15388","25.023","5.817","7.63","0.836","6.154","0.09","0.36","29.2683","4.65329","60.62","0","SATNPRO1509","31.052","0.43492","5"],
    [53977,"HCEP03730542","2025-04-12 12:15:00","8.8803","3.15207","25.174","5.856","7.63","0.827","5.852","0.11","0.49","29.2566","4.65178","61.01","0","SATNPRO1509","31.014","0.43442","5"],
    [53978,"HCEP03730542","2025-04-12 12:30:00","8.8796","3.15191","25.385","5.966","7.64","0.807","7.212","0.06","0.47","29.2554","4.65163","62.16","0","SATNPRO1509","31.196","0.43696","5"],
    [53979,"HCEP03730542","2025-04-12 12:45:00","8.8857","3.1529","25.396","5.973","7.64","0.834","6.31","0.07","0.35","29.2605","4.65225","62.24","0","SATNPRO1509","30.976","0.43388","5"],
    [53980,"HCEP03730542","2025-04-12 13:00:00","8.8894","3.15318","25.492","5.913","7.64","0.89","6.661","0.14","1.52","29.2603","4.65215","61.62","0","SATNPRO1509","30.954","0.43356","5"],
    [53981,"HCEP03730542","2025-04-12 13:15:00","8.907","3.15508","25.619","5.836","7.63","0.866","6.662","0.1","0.33","29.2653","4.65255","60.84","0","SATNPRO1509","30.92","0.43306","5"],
    [53982,"HCEP03730542","2025-04-12 13:30:00","8.9149","3.15546","25.749","5.684","7.62","0.829","6.667","0.09","0.63","29.2627","4.65203","59.27","0","SATNPRO1509","30.848","0.4321","5"],
    [53983,"HCEP03730542","2025-04-12 13:45:00","8.9191","3.15566","25.891","5.592","7.62","0.857","6.143","0.08","0.31","29.2611","4.65174","58.32","0","SATNPRO1509","30.786","0.43122","5"],
    [53984,"HCEP03730542","2025-04-12 14:00:00","8.9176","3.1555","26.081","5.556","7.61","0.842","6.246","0.08","0.33","29.2607","4.65172","57.94","0","SATNPRO1509","30.922","0.43312","5"],
    [53985,"HCEP03730542","2025-04-12 14:15:00","8.9141","3.15524","26.226","5.571","7.61","0.886","5.958","0.09","0.3","29.2609","4.65182","58.09","0","SATNPRO1509","30.89","0.43264","5"],
    [53986,"HCEP03730542","2025-04-12 14:30:00","8.9121","3.15488","26.416","5.592","7.61","0.953","5.795","0.1","0.39","29.2587","4.65155","58.3","0","SATNPRO1509","30.918","0.43304","5"],
    [53987,"HCEP03730542","2025-04-12 14:45:00","8.9059","3.15403","26.589","5.631","7.62","0.978","6.031","0.16","0.66","29.255","4.65114","58.7","0","SATNPRO1509","31.072","0.43522","5"],
    [53988,"HCEP03730542","2025-04-12 15:00:00","8.903","3.15367","26.779","5.689","7.62","0.977","5.933","0.14","0.59","29.2537","4.65102","59.3","0","SATNPRO1509","30.918","0.4331","5"],
    [53989,"HCEP03730542","2025-04-12 15:15:00","8.9042","3.15387","26.922","5.718","7.62","1.043","14.763","0.19","13.2","29.2547","4.65115","59.61","0","SATNPRO1509","30.982","0.43394","5"],
    [53990,"HCEP03730542","2025-04-12 15:30:00","8.9073","3.15438","27.047","5.706","7.62","1.122","13.977","0.23","7.29","29.2573","4.65147","59.48","0","SATNPRO1509","30.984","0.43398","5"],
    [53991,"HCEP03730542","2025-04-12 15:45:00","8.9103","3.15475","27.206","5.676","7.62","0.95","19.058","0.14","6.19","29.2585","4.65161","59.18","0","SATNPRO1509","30.934","0.4333","5"],
    [53992,"HCEP03730542","2025-04-12 16:00:00","8.9078","3.15428","27.315","5.657","7.62","1.011","5.871","0.14","2.37","29.2557","4.65126","58.97","0","SATNPRO1509","30.912","0.433","5"],
    [53993,"HCEP03730542","2025-04-12 16:15:00","8.9044","3.15373","27.333","5.683","7.62","0.969","4.965","0.12","0.24","29.2529","4.65091","59.24","0","SATNPRO1509","30.942","0.43342","5"],
    [53994,"HCEP03730542","2025-04-12 16:30:00","8.8949","3.15281","27.36","5.738","7.63","0.899","5.254","0.11","0.26","29.2512","4.65086","59.8","0","SATNPRO1509","30.966","0.4337","5"],
    [53995,"HCEP03730542","2025-04-12 16:45:00","8.8935","3.15217","27.386","5.807","7.63","0.879","6.044","0.08","0.43","29.2459","4.65012","60.51","0","SATNPRO1509","30.986","0.43404","5"],
    [53996,"HCEP03730542","2025-04-12 17:00:00","8.8963","3.15304","27.394","5.823","7.63","0.914","6.269","0.09","0.32","29.2524","4.65101","60.68","0","SATNPRO1509","30.868","0.43232","5"],
    [53997,"HCEP03730542","2025-04-12 17:15:00","8.9049","3.15432","27.387","5.762","7.62","0.937","7.075","0.12","0.4","29.2584","4.6517","60.07","0","SATNPRO1509","30.762","0.43086","5"],
    [53998,"HCEP03730542","2025-04-12 17:30:00","8.9088","3.15454","27.385","5.667","7.62","0.871","6.378","0.08","0.4","29.2576","4.65151","59.08","0","SATNPRO1509","30.864","0.43228","5"],
    [53999,"HCEP03730542","2025-04-12 17:45:00","8.9167","3.15494","27.403","5.632","7.62","0.93","5.923","0.15","0.33","29.2552","4.65101","58.73","0","SATNPRO1509","30.906","0.43288","5"],
    [54000,"HCEP03730542","2025-04-12 18:00:00","8.9226","3.15519","27.336","5.582","7.61","0.909","6.446","0.14","0.26","29.2529","4.65057","58.21","0","SATNPRO1509","30.823999999999998","0.43172","5"],
    [54001,"HCEP03730542","2025-04-12 18:15:00","8.9264","3.15549","27.315","5.518","7.61","0.875","6.636","0.08","0.26","29.2528","4.65049","57.55","0","SATNPRO1509","30.784","0.43118","5"],
    [54002,"HCEP03730542","2025-04-12 18:30:00","8.9261","3.15561","27.287","5.468","7.6","0.901","6.324","0.09","0.43","29.2543","4.65071","57.03","0","SATNPRO1509","30.672","0.42964","5"],
    [54003,"HCEP03730542","2025-04-12 18:45:00","8.9251","3.15561","27.203","5.458","7.6","0.9","5.975","0.1","0.53","29.2551","4.65084","56.92","0","SATNPRO1509","30.782","0.43114","5"],
    [54004,"HCEP03730542","2025-04-12 19:00:00","8.9276","3.15545","27.071","5.474","7.6","0.9","5.018","0.1","0.64","29.2515","4.65026","57.09","0","SATNPRO1509","30.754","0.43076","5"],
    [54005,"HCEP03730542","2025-04-12 19:15:00","8.9201","3.15543","26.962","5.484","7.6","1.024","8.182","0.26","1.97","29.2576","4.65128","57.19","0","SATNPRO1509","30.602","0.4286","5"],
    [54006,"HCEP03730542","2025-04-12 19:30:00","8.915","3.15468","26.884","5.491","7.61","0.998","7.374","0.22","3.81","29.2541","4.65086","57.25","0","SATNPRO1509","30.862000000000002","0.43224","5"],
    [54007,"HCEP03730542","2025-04-12 19:45:00","8.912","3.15411","26.796","5.537","7.61","1.003","7.051","0.15","0.51","29.2508","4.65043","57.73","0","SATNPRO1509","30.814","0.43162","5"],
    [54008,"HCEP03730542","2025-04-12 20:00:00","8.91","3.15356","26.738","5.578","7.61","0.911","6.359","0.12","0.98","29.2468","4.6499","58.15","0","SATNPRO1509","30.82","0.43168","5"],
    [54009,"HCEP03730542","2025-04-12 20:15:00","8.9059","3.15214","26.639","5.621","7.62","0.957","6.159","0.1","0.85","29.2356","4.64836","58.59","0","SATNPRO1509","30.826","0.43172","5"],
    [54010,"HCEP03730542","2025-04-12 20:30:00","8.8959","3.14643","26.511","5.727","7.63","1.028","4.846","0.14","0.46","29.1853","4.64131","59.66","0","SATNPRO1509","30.946","0.43348","5"],
    [54011,"HCEP03730542","2025-04-12 20:45:00","8.8909","3.1447","26.362","5.975","7.64","0.981","4.105","0.15","0.21","29.1717","4.63944","62.23","0","SATNPRO1509","31.009999999999998","0.43434","5"],
    [54012,"HCEP03730542","2025-04-12 21:00:00","8.8885","3.14495","26.257","6.114","7.65","0.959","4.445","0.12","0.6","29.1764","4.64015","63.68","0","SATNPRO1509","30.906","0.43294","5"],
    [54013,"HCEP03730542","2025-04-12 21:15:00","8.8864","3.14554","26.113","6.129","7.65","1.112","11.942","0.46","17.49","29.1842","4.64131","63.84","0","SATNPRO1509","30.97","0.43378","5"],
    [54014,"HCEP03730542","2025-04-12 21:30:00","8.8813","3.14513","25.962","6.123","7.65","0.97","6.456","0.08","1.21","29.1842","4.6414","63.76","0","SATNPRO1509","30.938","0.43336","5"],
    [54015,"HCEP03730542","2025-04-12 21:45:00","8.8804","3.14517","25.855","6.156","7.65","0.976","6.924","0.08","1.14","29.1854","4.64157","64.11","0","SATNPRO1509","30.906","0.4329","5"],
    [54016,"HCEP03730542","2025-04-12 22:00:00","8.8848","3.14613","25.754","6.144","7.65","4.317","46.761","3.72","26.87","29.1917","4.64239","64","0","SATNPRO1509","30.834","0.43188","5"],
    [54017,"HCEP03730542","2025-04-12 22:15:00","8.8842","3.14642","25.613","6.081","7.65","3.033","360.605","1.13","208.06","29.1952","4.6429","63.34","0","SATNPRO1509","30.836","0.4319","5"],
    [54018,"HCEP03730542","2025-04-12 22:30:00","8.8867","3.14814","25.581","6.039","7.65","0.967","7.658","0.09","0.43","29.2109","4.6451","62.91","0","SATNPRO1509","30.894000000000002","0.4327","5"],
    [54019,"HCEP03730542","2025-04-12 22:45:00","8.8859","3.14896","25.566","5.954","7.64","0.983","9.571","0.08","1.25","29.2199","4.64641","62.03","0","SATNPRO1509","30.732","0.43048","5"],
    [54020,"HCEP03730542","2025-04-12 23:00:00","8.8841","3.14974","25.597","5.892","7.64","0.966","10.381","0.11","1.97","29.2294","4.64781","61.39","0","SATNPRO1509","30.594","0.42854","5"],
    [54021,"HCEP03730542","2025-04-12 23:15:00","8.8788","3.14982","25.632","5.875","7.64","0.889","8.364","0.09","1.01","29.2346","4.64867","61.2","0","SATNPRO1509","30.816","0.43162","5"],
    [54022,"HCEP03730542","2025-04-12 23:30:00","8.8754","3.14942","25.656","5.921","7.64","0.92","7.612","0.11","0.69","29.2332","4.64853","61.68","0","SATNPRO1509","30.872","0.43236","5"],
    [54023,"HCEP03730542","2025-04-12 23:45:00","8.8739","3.14896","25.711","5.965","7.64","0.954","7.639","0.09","0.37","29.2297","4.64805","62.12","0","SATNPRO1509","30.776","0.43106","5"],
    [54024,"HCEP03730542","2025-04-13 00:00:00","8.873","3.14865","25.796","5.984","7.64","0.931","7.007","0.1","0.26","29.2272","4.64772","62.32","0","SATNPRO1509","30.872","0.43238","5"],
    [54025,"HCEP03730542","2025-04-13 00:15:00","8.8722","3.14787","25.887","6.026","7.65","1.017","7.292","0.14","0.63","29.2198","4.64668","62.75","0","SATNPRO1509","30.976","0.43386","5"],
    [54026,"HCEP03730542","2025-04-13 00:30:00","8.8667","3.14702","25.994","6.077","7.65","1.052","7.917","0.15","0.55","29.2156","4.64619","63.27","0","SATNPRO1509","30.932","0.43326","5"],
    [54027,"HCEP03730542","2025-04-13 00:45:00","8.8649","3.14671","26.08","6.143","7.65","1.128","7.864","0.12","0.94","29.2138","4.64597","63.96","0","SATNPRO1509","31.026","0.43458","5"],
    [54028,"HCEP03730542","2025-04-13 01:00:00","8.8619","3.14631","26.181","6.198","7.66","1.313","8.921","0.2","1.97","29.2122","4.6458","64.53","0","SATNPRO1509","31.024","0.43454","5"],
    [54029,"HCEP03730542","2025-04-13 01:15:00","8.8604","3.14585","26.302","6.24","7.66","1.166","7.325","0.23","0.63","29.2086","4.64532","64.97","0","SATNPRO1509","30.896","0.4328","5"],
    [54030,"HCEP03730542","2025-04-13 01:30:00","8.8565","3.14548","26.418","6.285","7.67","1.158","7.101","0.2","0.57","29.208","4.64531","65.43","0","SATNPRO1509","31.21","0.43712","5"],
    [54031,"HCEP03730542","2025-04-13 01:45:00","8.8533","3.14541","26.516","6.347","7.67","1.109","6.783","0.14","0.82","29.2099","4.64565","66.07","0","SATNPRO1509","31.294","0.43832","5"],
    [54032,"HCEP03730542","2025-04-13 02:00:00","8.8492","3.14543","26.621","6.403","7.68","1.117","6.446","0.19","0.59","29.2134","4.64624","66.65","0","SATNPRO1509","31.31","0.43852","5"],
    [54033,"HCEP03730542","2025-04-13 02:15:00","8.8455","3.14544","26.741","6.447","7.68","1.081","6.796","0.17","0.42","29.2165","4.64676","67.1","0","SATNPRO1509","31.392","0.4397","5"],
    [54034,"HCEP03730542","2025-04-13 02:30:00","8.8442","3.1452","26.858","6.474","7.68","1.035","6.197","0.12","0.42","29.2151","4.64659","67.38","0","SATNPRO1509","31.336","0.43892","5"],
    [54035,"HCEP03730542","2025-04-13 02:45:00","8.8438","3.14504","26.97","6.491","7.68","1.299","8.011","0.52","5.72","29.2137","4.6464","67.55","0","SATNPRO1509","31.218","0.43728","5"],
    [54036,"HCEP03730542","2025-04-13 03:00:00","8.844","3.14509","27.086","6.5","7.68","1.155","6.791","0.15","0.84","29.214","4.64645","67.65","0","SATNPRO1509","31.26","0.43784","5"],
    [54037,"HCEP03730542","2025-04-13 03:15:00","8.844","3.1449","27.218","6.488","7.68","1.189","5.481","0.13","0.48","29.212","4.64618","67.52","0","SATNPRO1509","31.342","0.439","5"],
    [54038,"HCEP03730542","2025-04-13 03:30:00","8.8442","3.14432","27.361","6.49","7.68","1.339","6.287","0.39","0.47","29.2058","4.64529","67.54","0","SATNPRO1509","31.349999999999998","0.43912","5"],
    [54039,"HCEP03730542","2025-04-13 03:45:00","8.8444","3.14418","27.452","6.506","7.69","1.312","5.116","0.36","0.23","29.2042","4.64505","67.71","0","SATNPRO1509","31.496","0.44116","5"],
    [54040,"HCEP03730542","2025-04-13 04:00:00","8.8435","3.14469","27.568","6.51","7.69","1.291","5.751","0.21","0.36","29.2101","4.64593","67.74","0","SATNPRO1509","31.268","0.43794","5"],
    [54041,"HCEP03730542","2025-04-13 04:15:00","8.8455","3.14637","27.613","6.503","7.68","1.167","7.578","0.21","0.44","29.2257","4.64814","67.68","0","SATNPRO1509","31.104","0.43566","5"],
    [54042,"HCEP03730542","2025-04-13 04:30:00","8.8532","3.1491","27.747","6.388","7.67","1.074","7.719","0.14","0.29","29.2473","4.65111","66.51","0","SATNPRO1509","31.072","0.4352","5"],
    [54043,"HCEP03730542","2025-04-13 04:45:00","8.8597","3.15055","27.627","6.247","7.66","1.075","7.425","0.15","0.6","29.2569","4.65235","65.05","0","SATNPRO1509","31.082","0.43536","5"],
    [54044,"HCEP03730542","2025-04-13 05:00:00","8.8539","3.14979","27.563","6.15","7.66","1.163","6.085","0.28","0.6","29.2539","4.65203","64.04","0","SATNPRO1509","31.2","0.43702","5"],
    [54045,"HCEP03730542","2025-04-13 05:15:00","8.8578","3.15024","27.53","6.181","7.66","6.025","56.818","9.39","25.72","29.2554","4.65217","64.36","0","SATNPRO1509","31.156","0.43646","5"],
    [54046,"HCEP03730542","2025-04-13 05:30:00","8.8572","3.15007","27.48","6.164","7.66","8.473","64.543","4.72","20.2","29.2541","4.65199","64.19","0","SATNPRO1509","31.038","0.43476","5"],
    [54047,"HCEP03730542","2025-04-13 05:45:00","8.8533","3.14913","27.423","6.176","7.66","1.1","5.781","0.25","0.38","29.2477","4.65115","64.3","0","SATNPRO1509","31.419999999999998","0.44006","5"],
    [54048,"HCEP03730542","2025-04-13 06:00:00","8.8578","3.15007","27.353","6.212","7.66","1.006","6.836","0.26","0.7","29.2536","4.65191","64.69","0","SATNPRO1509","31.144","0.43624","5"],
    [54049,"HCEP03730542","2025-04-13 06:15:00","8.8566","3.14968","27.24","6.175","7.66","1.04","6.205","0.21","0.84","29.2507","4.6515","64.3","0","SATNPRO1509","31.122","0.4359","5"],
    [54050,"HCEP03730542","2025-04-13 06:30:00","8.8541","3.14927","27.138","6.19","7.66","1.048","5.103","0.19","0.32","29.2486","4.65124","64.45","0","SATNPRO1509","31.234","0.4375","5"],
    [54051,"HCEP03730542","2025-04-13 06:45:00","8.8586","3.14992","26.996","6.224","7.66","1.018","5.808","0.23","2.98","29.2516","4.65158","64.81","0","SATNPRO1509","31.178","0.4367","5"],
    [54052,"HCEP03730542","2025-04-13 07:00:00","8.8611","3.15022","26.831","6.179","7.66","0.961","6.04","0.17","0.33","29.2527","4.65168","64.35","0","SATNPRO1509","31.14","0.43614","5"],
    [54053,"HCEP03730542","2025-04-13 07:15:00","8.8642","3.15055","26.631","6.128","7.65","1.048","6.441","0.18","0.23","29.2536","4.65174","63.82","0","SATNPRO1509","30.968","0.43376","5"],
    [54054,"HCEP03730542","2025-04-13 07:30:00","8.867","3.15056","26.463","6.072","7.65","0.986","6.934","0.14","0.32","29.2515","4.65137","63.24","0","SATNPRO1509","30.958","0.43364","5"],
    [54055,"HCEP03730542","2025-04-13 07:45:00","8.8692","3.15025","26.29","6.031","7.65","0.92","7.015","0.08","0.28","29.2466","4.65061","62.82","0","SATNPRO1509","30.844","0.43198","5"],
    [54056,"HCEP03730542","2025-04-13 08:00:00","8.8691","3.14943","26.052","6.014","7.65","0.919","7.289","0.07","1.22","29.2383","4.64941","62.63","0","SATNPRO1509","30.876","0.43246","5"],
    [54057,"HCEP03730542","2025-04-13 08:15:00","8.8722","3.14952","25.888","6.015","7.65","0.953","7.219","0.1","0.32","29.2368","4.64912","62.64","0","SATNPRO1509","30.882","0.43254","5"],
    [54058,"HCEP03730542","2025-04-13 08:30:00","8.8759","3.1495","25.727","5.991","7.64","0.966","6.957","0.12","0.43","29.2337","4.6486","62.41","0","SATNPRO1509","30.87","0.43238","5"],
    [54059,"HCEP03730542","2025-04-13 08:45:00","8.8769","3.14899","25.49","5.982","7.64","0.939","6.265","0.1","0.77","29.2277","4.6477","62.3","0","SATNPRO1509","30.928","0.43318","5"],
    [54060,"HCEP03730542","2025-04-13 09:00:00","8.8849","3.14915","25.228","5.991","7.64","0.99","6.057","0.11","0.28","29.2228","4.64684","62.41","0","SATNPRO1509","30.748","0.4307","5"],
    [54061,"HCEP03730542","2025-04-13 09:15:00","8.8914","3.14923","25.073","5.924","7.64","0.984","5.977","0.17","0.34","29.2184","4.64606","61.72","0","SATNPRO1509","30.852","0.43218","5"],
    [54062,"HCEP03730542","2025-04-13 09:30:00","8.8979","3.15038","24.905","5.857","7.63","1.026","6.292","0.14","0.33","29.2249","4.64687","61.03","0","SATNPRO1509","30.664","0.42948","5"],
    [54063,"HCEP03730542","2025-04-13 09:45:00","8.9023","3.15081","24.708","5.752","7.63","0.996","6.607","0.11","0.34","29.2257","4.64689","59.95","0","SATNPRO1509","30.573999999999998","0.4282","5"],
    [54064,"HCEP03730542","2025-04-13 10:00:00","8.9037","3.15078","24.594","5.698","7.62","1.018","6.897","0.15","0.41","29.2243","4.64666","59.38","0","SATNPRO1509","30.584","0.42836","5"],
    [54065,"HCEP03730542","2025-04-13 10:15:00","8.905","3.15049","24.482","5.67","7.62","1.064","7.361","0.14","0.47","29.2203","4.64606","59.09","0","SATNPRO1509","30.66","0.42948","5"],
    [54066,"HCEP03730542","2025-04-13 10:30:00","8.9064","3.14959","24.398","5.673","7.62","1.047","6.407","0.18","0.55","29.21","4.64454","59.12","0","SATNPRO1509","30.604","0.4287","5"],
    [54067,"HCEP03730542","2025-04-13 10:45:00","8.9078","3.14947","24.389","5.695","7.62","1.019","5.797","0.22","0.34","29.2076","4.64417","59.35","0","SATNPRO1509","30.542","0.42782","5"],
    [54068,"HCEP03730542","2025-04-13 11:00:00","8.9102","3.14937","24.392","5.696","7.62","0.949","6.454","0.23","0.6","29.2047","4.6437","59.36","0","SATNPRO1509","30.538","0.42772","5"],
    [54069,"HCEP03730542","2025-04-13 11:15:00","8.9144","3.14944","24.43","5.681","7.62","1.045","5.827","0.25","0.26","29.2018","4.64321","59.21","0","SATNPRO1509","32.594","0.45654","5"],
    [54070,"HCEP03730542","2025-04-13 11:30:00","8.9168","3.14949","24.492","5.664","7.62","1.005","6.336","0.15","0.58","29.2004","4.64296","59.03","0","SATNPRO1509","30.596","0.42856","5"],
    [54071,"HCEP03730542","2025-04-13 11:45:00","8.9186","3.1496","24.57","5.64","7.61","0.954","6.554","0.13","0.31","29.2","4.64288","58.79","0","SATNPRO1509","30.554","0.42796","5"],
    [54072,"HCEP03730542","2025-04-13 12:00:00","8.9213","3.14957","24.62","5.621","7.61","1.009","6.58","0.21","0.86","29.1974","4.64246","58.59","0","SATNPRO1509","30.514","0.42744","5"],
    [54073,"HCEP03730542","2025-04-13 12:15:00","8.921","3.14965","24.729","5.603","7.61","0.992","7.638","0.12","0.64","29.1985","4.64263","58.41","0","SATNPRO1509","30.6","0.4286","5"],
    [54074,"HCEP03730542","2025-04-13 12:30:00","8.9214","3.14963","24.807","5.588","7.61","1.072","5.854","0.19","0.41","29.1979","4.64254","58.25","0","SATNPRO1509","30.58","0.42832","5"],
    [54075,"HCEP03730542","2025-04-13 12:45:00","8.9269","3.14921","24.874","5.587","7.61","0.944","6.343","0.09","1.95","29.1891","4.64117","58.24","0","SATNPRO1509","30.632","0.42906","5"],
    [54076,"HCEP03730542","2025-04-13 13:00:00","8.9295","3.14905","25.081","5.591","7.61","0.98","5.241","0.13","0.34","29.1852","4.64057","58.29","0","SATNPRO1509","30.582","0.42836","5"],
    [54077,"HCEP03730542","2025-04-13 13:15:00","8.9333","3.1492","25.251","5.575","7.61","0.899","5.1","0.09","0.17","29.1835","4.64027","58.12","0","SATNPRO1509","30.702","0.43004","5"],
    [54078,"HCEP03730542","2025-04-13 13:30:00","8.9342","3.14889","25.413","5.559","7.61","0.899","4.717","0.09","0.29","29.1795","4.63969","57.96","0","SATNPRO1509","30.612","0.42876","5"],
    [54079,"HCEP03730542","2025-04-13 13:45:00","8.9335","3.14872","25.557","5.565","7.61","0.938","5.177","0.08","0.37","29.1784","4.63955","58.02","0","SATNPRO1509","30.574","0.42822","5"],
    [54080,"HCEP03730542","2025-04-13 14:00:00","8.932","3.14864","25.678","5.57","7.61","0.927","4.888","0.1","0.38","29.1787","4.63963","58.07","0","SATNPRO1509","30.586","0.4284","5"],
    [54081,"HCEP03730542","2025-04-13 14:15:00","8.9319","3.1485","25.851","5.58","7.61","0.939","4.807","0.11","0.18","29.1772","4.63943","58.17","0","SATNPRO1509","30.512","0.42738","5"],
    [54082,"HCEP03730542","2025-04-13 14:30:00","8.9325","3.14863","26.029","5.581","7.61","0.943","4.875","0.11","0.24","29.1781","4.63955","58.18","0","SATNPRO1509","30.662","0.42944","5"],
    [54083,"HCEP03730542","2025-04-13 14:45:00","8.9326","3.14868","26.184","5.57","7.61","1.02","4.944","0.11","0.37","29.1785","4.63962","58.07","0","SATNPRO1509","30.6","0.42862","5"],
    [54084,"HCEP03730542","2025-04-13 15:00:00","8.9324","3.14864","26.348","5.564","7.61","1.024","4.772","0.21","0.63","29.1781","4.63958","58","0","SATNPRO1509","30.608","0.42872","5"],
    [54085,"HCEP03730542","2025-04-13 15:15:00","8.933","3.14859","26.52","5.564","7.61","0.987","5.302","0.12","0.51","29.177","4.63942","58","0","SATNPRO1509","30.588","0.42844","5"],
    [54086,"HCEP03730542","2025-04-13 15:30:00","8.9348","3.14861","26.675","5.568","7.61","0.978","4.721","0.14","0.9","29.1757","4.63921","58.05","0","SATNPRO1509","30.586","0.42836","5"],
    [54087,"HCEP03730542","2025-04-13 15:45:00","8.9365","3.14847","26.839","5.556","7.61","0.938","4.376","0.12","0.17","29.1728","4.63877","57.93","0","SATNPRO1509","30.634","0.42912","5"],
    [54088,"HCEP03730542","2025-04-13 16:00:00","8.9381","3.14817","26.992","5.538","7.61","0.951","4.638","0.11","0.2","29.1683","4.6381","57.74","0","SATNPRO1509","30.612","0.42876","5"],
    [54089,"HCEP03730542","2025-04-13 16:15:00","8.9395","3.14802","27.107","5.529","7.61","0.971","5.575","0.1","0.38","29.1657","4.6377","57.65","0","SATNPRO1509","30.616","0.42882","5"],
    [54090,"HCEP03730542","2025-04-13 16:30:00","8.9387","3.14745","27.229","5.512","7.61","1.03","5.297","0.21","0.34","29.1604","4.63696","57.46","0","SATNPRO1509","30.592","0.4285","5"],
    [54091,"HCEP03730542","2025-04-13 16:45:00","8.9388","3.14737","27.308","5.54","7.61","1.066","5.533","0.2","0.3","29.1595","4.63684","57.76","0","SATNPRO1509","30.758","0.4308","5"],
    [54092,"HCEP03730542","2025-04-13 17:00:00","8.9385","3.1474","27.389","5.542","7.61","1.004","4.892","0.24","0.2","29.16","4.63692","57.78","0","SATNPRO1509","30.534","0.42766","5"],
    [54093,"HCEP03730542","2025-04-13 17:15:00","8.9383","3.14712","27.459","5.545","7.61","0.968","4.04","0.14","0.24","29.1572","4.63653","57.81","0","SATNPRO1509","30.638","0.42914","5"],
    [54094,"HCEP03730542","2025-04-13 17:30:00","8.938","3.14704","27.489","5.563","7.61","0.967","4.013","0.11","0.3","29.1566","4.63645","58","0","SATNPRO1509","30.856","0.43216","5"],
    [54095,"HCEP03730542","2025-04-13 17:45:00","8.9353","3.14706","27.498","5.58","7.61","1.043","4.405","0.18","0.34","29.159","4.63685","58.17","0","SATNPRO1509","30.759999999999998","0.43084","5"],
    [54096,"HCEP03730542","2025-04-13 18:00:00","8.9366","3.14789","27.487","5.603","7.61","1.031","4.332","0.24","0.9","29.1665","4.6379","58.41","0","SATNPRO1509","30.842","0.43202","5"],
    [54097,"HCEP03730542","2025-04-13 18:15:00","8.9361","3.14801","27.452","5.574","7.61","0.995","3.498","0.24","0.36","29.1682","4.63814","58.11","0","SATNPRO1509","30.604","0.42866","5"],
    [54098,"HCEP03730542","2025-04-13 18:30:00","8.9355","3.14865","27.415","5.569","7.61","1.056","5.126","0.18","0.38","29.1752","4.63917","58.06","0","SATNPRO1509","30.808","0.43156","5"],
    [54099,"HCEP03730542","2025-04-13 18:45:00","8.933","3.14869","27.271","5.543","7.61","1.052","5.007","0.81","1.28","29.1778","4.63957","57.79","0","SATNPRO1509","30.674","0.42964","5"],
    [54100,"HCEP03730542","2025-04-13 19:00:00","8.9312","3.149","27.227","5.561","7.61","1.094","5.639","0.15","0.23","29.1824","4.64026","57.98","0","SATNPRO1509","30.556","0.42802","5"],
    [54101,"HCEP03730542","2025-04-13 19:15:00","8.9297","3.14923","27.163","5.521","7.6","1.115","7.147","0.13","0.54","29.1861","4.64083","57.56","0","SATNPRO1509","30.534","0.42768","5"],
    [54102,"HCEP03730542","2025-04-13 19:30:00","8.9289","3.14959","27.106","5.476","7.6","1.174","8.151","0.14","0.52","29.1904","4.64146","57.09","0","SATNPRO1509","30.337999999999997","0.42492","5"],
    [54103,"HCEP03730542","2025-04-13 19:45:00","8.9287","3.14979","27.029","5.43","7.6","1.108","9.332","0.11","4.59","29.1927","4.64179","56.61","0","SATNPRO1509","30.19","0.42288","5"],
    [54104,"HCEP03730542","2025-04-13 20:00:00","8.9238","3.14954","26.922","5.418","7.6","1.054","7.692","0.1","0.54","29.1942","4.64208","56.48","0","SATNPRO1509","30.546","0.42786","5"],
    [54105,"HCEP03730542","2025-04-13 20:15:00","8.9032","3.14715","26.833","5.53","7.61","1.108","5.724","0.18","0.68","29.1866","4.64138","57.62","0","SATNPRO1509","30.81","0.43156","5"],
    [54106,"HCEP03730542","2025-04-13 20:30:00","8.8779","3.14392","26.737","5.732","7.63","1.071","5.046","0.1","1.28","29.1743","4.64008","59.69","0","SATNPRO1509","30.814","0.43158","5"],
    [54107,"HCEP03730542","2025-04-13 20:45:00","8.8823","3.14528","26.694","5.999","7.64","1.19","7.248","0.16","1.18","29.1846","4.64148","62.48","0","SATNPRO1509","30.636","0.42912","5"],
    [54108,"HCEP03730542","2025-04-13 21:00:00","8.8792","3.14504","26.634","5.994","7.64","1.356","8.109","0.42","1.17","29.1847","4.64155","62.42","0","SATNPRO1509","30.634","0.42906","5"],
    [54109,"HCEP03730542","2025-04-13 21:15:00","8.8755","3.14464","26.542","6.019","7.64","1.334","7.186","0.23","0.56","29.1837","4.64147","62.67","0","SATNPRO1509","30.694","0.42994","5"],
    [54110,"HCEP03730542","2025-04-13 21:30:00","8.872","3.14412","26.445","6.049","7.65","1.268","7.19","0.2","0.98","29.1813","4.64117","62.98","0","SATNPRO1509","30.702","0.43004","5"],
    [54111,"HCEP03730542","2025-04-13 21:45:00","8.8773","3.14452","26.337","6.088","7.65","1.119","6.401","0.14","0.87","29.1811","4.64105","63.4","0","SATNPRO1509","30.836","0.43192","5"],
    [54112,"HCEP03730542","2025-04-13 22:00:00","8.8721","3.14413","26.221","6.086","7.65","1.237","7.056","0.16","0.87","29.1813","4.64117","63.36","0","SATNPRO1509","30.71","0.43012","5"],
    [54113,"HCEP03730542","2025-04-13 22:15:00","8.8639","3.14376","26.116","6.131","7.65","1.437","7.122","0.32","0.51","29.1843","4.64175","63.82","0","SATNPRO1509","30.732","0.43046","5"],
    [54114,"HCEP03730542","2025-04-13 22:30:00","8.8623","3.14373","26.024","6.185","7.66","1.403","6.919","0.47","0.3","29.1854","4.64193","64.39","0","SATNPRO1509","30.914","0.43298","5"],
    [54115,"HCEP03730542","2025-04-13 22:45:00","8.8614","3.14391","25.937","6.207","7.66","1.631","8.909","0.97","0.51","29.188","4.64231","64.61","0","SATNPRO1509","30.736","0.43052","5"],
    [54116,"HCEP03730542","2025-04-13 23:00:00","8.8619","3.1441","25.895","6.199","7.66","1.423","8.188","0.54","0.57","29.1896","4.64253","64.53","0","SATNPRO1509","30.812","0.43154","5"],
    [54117,"HCEP03730542","2025-04-13 23:15:00","8.87","3.14504","25.864","6.163","7.65","1.399","9.087","0.2","1.44","29.1926","4.64282","64.17","0","SATNPRO1509","30.442","0.4264","5"],
    [54118,"HCEP03730542","2025-04-13 23:30:00","8.8777","3.14635","25.826","6.074","7.65","1.369","7.632","0.29","0.5","29.1998","4.64369","63.25","0","SATNPRO1509","30.722","0.43028","5"],
    [54119,"HCEP03730542","2025-04-13 23:45:00","8.8792","3.14665","25.836","5.988","7.64","1.24","7.334","0.18","0.37","29.2016","4.64393","62.36","0","SATNPRO1509","30.69","0.42988","5"],
    [54120,"HCEP03730542","2025-04-14 00:00:00","8.8831","3.14754","25.865","5.942","7.64","1.241","7.33","0.28","0.54","29.2075","4.6447","61.89","0","SATNPRO1509","30.592","0.42852","5"],
    [54121,"HCEP03730542","2025-04-14 00:15:00","8.8854","3.14793","25.925","5.906","7.64","1.197","6.932","0.17","0.37","29.2096","4.64497","61.52","0","SATNPRO1509","30.694","0.42996","5"],
    [54122,"HCEP03730542","2025-04-14 00:30:00","8.8846","3.14813","25.993","5.869","7.63","1.255","7.914","0.19","0.79","29.2122","4.64536","61.14","0","SATNPRO1509","30.701999999999998","0.43004","5"],
    [54123,"HCEP03730542","2025-04-14 00:45:00","8.8839","3.14816","26.04","5.853","7.63","1.117","7.365","0.2","0.38","29.2131","4.64551","60.97","0","SATNPRO1509","30.7","0.43","5"],
    [54124,"HCEP03730542","2025-04-14 01:00:00","8.8835","3.14837","26.116","5.847","7.63","1.244","7.638","0.27","0.36","29.2156","4.64588","60.91","0","SATNPRO1509","30.624","0.42894","5"],
    [54125,"HCEP03730542","2025-04-14 01:15:00","8.8855","3.14897","26.19","5.831","7.63","1.05","6.932","0.14","0.69","29.2201","4.64648","60.74","0","SATNPRO1509","30.7","0.43002","5"],
    [54126,"HCEP03730542","2025-04-14 01:30:00","8.8882","3.14951","26.286","5.807","7.63","1.112","7.105","0.2","0.49","29.2234","4.64691","60.5","0","SATNPRO1509","30.712","0.43018","5"],
    [54127,"HCEP03730542","2025-04-14 01:45:00","8.8909","3.1498","26.391","5.762","7.62","1.101","16.203","0.22","3.44","29.224","4.64697","60.04","0","SATNPRO1509","30.678","0.42974","5"],
    [54128,"HCEP03730542","2025-04-14 02:00:00","8.8855","3.1493","26.475","5.749","7.63","1.017","7.402","0.14","0.5","29.2233","4.64697","59.89","0","SATNPRO1509","30.7","0.43","5"],
    [54129,"HCEP03730542","2025-04-14 02:15:00","8.8775","3.14868","26.583","5.788","7.63","1.08","7.883","0.2","0.47","29.2235","4.64715","60.28","0","SATNPRO1509","30.817999999999998","0.43164","5"],
    [54130,"HCEP03730542","2025-04-14 02:30:00","8.872","3.1485","26.672","5.863","7.63","1.114","8.251","0.14","0.58","29.2261","4.64764","61.06","0","SATNPRO1509","30.694","0.4299","5"],
    [54131,"HCEP03730542","2025-04-14 02:45:00","8.8712","3.14876","26.763","5.918","7.64","1.04","7.746","0.1","0.25","29.2294","4.64814","61.63","0","SATNPRO1509","30.906","0.43288","5"],
    [54132,"HCEP03730542","2025-04-14 03:00:00","8.8693","3.14897","26.858","5.924","7.64","1.121","7.737","0.21","0.63","29.2331","4.64871","61.7","0","SATNPRO1509","30.736","0.4305","5"],
    [54133,"HCEP03730542","2025-04-14 03:15:00","8.8681","3.14875","26.966","5.926","7.64","1.157","8.046","0.24","0.44","29.2318","4.64855","61.72","0","SATNPRO1509","30.668","0.42956","5"],
    [54134,"HCEP03730542","2025-04-14 03:30:00","8.8634","3.14822","27.065","5.934","7.64","1.171","8.787","0.13","0.72","29.2302","4.64841","61.79","0","SATNPRO1509","30.73","0.43042","5"],
    [54135,"HCEP03730542","2025-04-14 03:45:00","8.8576","3.1478","27.159","5.978","7.64","1.303","8.347","0.27","0.54","29.2307","4.6486","62.24","0","SATNPRO1509","30.714","0.43024","5"],
    [54136,"HCEP03730542","2025-04-14 04:00:00","8.8511","3.147","27.241","6.067","7.65","1.233","8.367","0.25","1.04","29.2277","4.64829","63.15","0","SATNPRO1509","30.944","0.43342","5"],
    [54137,"HCEP03730542","2025-04-14 04:15:00","8.8438","3.14613","27.324","6.174","7.66","1.179","6.219","0.21","0.51","29.2248","4.64802","64.26","0","SATNPRO1509","31.026","0.43454","5"],
    [54138,"HCEP03730542","2025-04-14 04:30:00","8.8433","3.14637","27.396","6.274","7.66","1.279","7.126","0.25","0.69","29.2277","4.64845","65.3","0","SATNPRO1509","31.052","0.43492","5"],
    [54139,"HCEP03730542","2025-04-14 04:45:00","8.8422","3.14649","27.451","6.306","7.67","1.325","7.738","0.29","0.9","29.2297","4.64876","65.63","0","SATNPRO1509","30.776","0.4311","5"],
    [54140,"HCEP03730542","2025-04-14 05:00:00","8.8485","3.14738","27.465","6.299","7.66","1.379","8.467","0.14","0.76","29.2337","4.64922","65.58","0","SATNPRO1509","30.93","0.43324","5"],
    [54141,"HCEP03730542","2025-04-14 05:15:00","8.8588","3.14914","27.449","6.2","7.65","1.449","9.083","0.17","0.57","29.2432","4.65039","64.56","0","SATNPRO1509","30.512","0.4274","5"],
    [54142,"HCEP03730542","2025-04-14 05:30:00","8.8562","3.14915","27.443","6.065","7.65","1.443","7.875","0.22","0.6","29.2455","4.65078","63.15","0","SATNPRO1509","30.776","0.43112","5"],
    [54143,"HCEP03730542","2025-04-14 05:45:00","8.8614","3.14959","27.399","6.022","7.65","1.424","6.978","0.24","0.6","29.2458","4.65071","62.71","0","SATNPRO1509","31.43","0.44024","5"],
    [54144,"HCEP03730542","2025-04-14 06:00:00","8.8661","3.15017","27.374","5.974","7.64","1.372","6.765","0.42","0.53","29.2479","4.65093","62.22","0","SATNPRO1509","30.606","0.4287","5"],
    [54145,"HCEP03730542","2025-04-14 06:15:00","8.8676","3.1504","27.308","5.916","7.64","1.317","6.233","0.28","0.49","29.2491","4.65106","61.61","0","SATNPRO1509","31.058","0.43502","5"],
    [54146,"HCEP03730542","2025-04-14 06:30:00","8.869","3.15064","27.234","5.885","7.64","1.378","6.543","0.25","0.72","29.2503","4.6512","61.29","0","SATNPRO1509","31.032","0.43466","5"],
    [54147,"HCEP03730542","2025-04-14 06:45:00","8.8671","3.1489","27.083","5.845","7.64","1.455","6.439","0.34","0.42","29.2342","4.64892","60.87","0","SATNPRO1509","30.818","0.43164","5"],
    [54148,"HCEP03730542","2025-04-14 07:00:00","8.8775","3.15045","27.015","5.873","7.63","1.335","7.53","0.21","0.5","29.2415","4.64976","61.18","0","SATNPRO1509","30.66","0.42938","5"],
    [54149,"HCEP03730542","2025-04-14 07:15:00","8.8814","3.1505","26.866","5.761","7.63","1.413","7.87","0.34","1.76","29.2389","4.64931","60.02","0","SATNPRO1509","30.512","0.42736","5"],
    [54150,"HCEP03730542","2025-04-14 07:30:00","8.8834","3.15036","26.7","5.694","7.62","1.174","7.562","0.28","0.41","29.2359","4.64883","59.32","0","SATNPRO1509","30.51","0.42738","5"],
    [54151,"HCEP03730542","2025-04-14 07:45:00","8.8926","3.15137","26.558","5.666","7.62","1.183","7.459","0.27","0.56","29.2386","4.64904","59.04","0","SATNPRO1509","30.444","0.42646","5"],
    [54152,"HCEP03730542","2025-04-14 08:00:00","8.8975","3.15188","26.35","5.581","7.61","1.38","9.091","0.94","5.21","29.24","4.64913","58.16","0","SATNPRO1509","30.448","0.42646","5"],
    [54153,"HCEP03730542","2025-04-14 08:15:00","8.8983","3.1516","26.129","5.526","7.61","1.071","6.985","0.15","0.41","29.2365","4.64861","57.59","0","SATNPRO1509","30.366","0.42528","5"],
    [54154,"HCEP03730542","2025-04-14 08:30:00","8.8995","3.15147","25.893","5.517","7.61","1.149","7.153","0.19","0.45","29.2344","4.64826","57.49","0","SATNPRO1509","30.498","0.42716","5"],
    [54155,"HCEP03730542","2025-04-14 08:45:00","8.9005","3.15121","25.706","5.514","7.61","1.131","6.927","0.18","0.41","29.2309","4.64773","57.46","0","SATNPRO1509","30.478","0.42686","5"],
    [54156,"HCEP03730542","2025-04-14 09:00:00","8.9022","3.15113","25.566","5.516","7.61","1.138","6.92","0.14","0.5","29.2288","4.64738","57.48","0","SATNPRO1509","30.428","0.42622","5"],
    [54157,"HCEP03730542","2025-04-14 09:15:00","8.9057","3.1513","25.41","5.504","7.6","1.121","7.133","0.16","0.48","29.2277","4.64716","57.36","0","SATNPRO1509","30.144","0.42218","5"],
    [54158,"HCEP03730542","2025-04-14 09:30:00","8.9083","3.15131","25.249","5.467","7.6","1.305","7.801","0.12","1.16","29.2257","4.64681","56.99","0","SATNPRO1509","30.330000000000002","0.42482","5"],
    [54159,"HCEP03730542","2025-04-14 09:45:00","8.9115","3.15118","25.067","5.45","7.6","1.18","6.732","0.22","0.53","29.221800000000002","4.64618","56.81","0","SATNPRO1509","30.438","0.42634","5"],
    [54160,"HCEP03730542","2025-04-14 10:00:00","8.9124","3.15098","24.887","5.446","7.6","1.239","6.819","0.27","0.62","29.2191","4.64576","56.77","0","SATNPRO1509","30.318","0.42466","5"],
    [54161,"HCEP03730542","2025-04-14 10:15:00","8.9129","3.15087","24.697","5.448","7.6","1.176","6.48","0.21","0.4","29.2176","4.64553","56.79","0","SATNPRO1509","31.068","0.43516","5"],
    [54162,"HCEP03730542","2025-04-14 10:30:00","8.9144","3.15086","24.51","5.441","7.6","1.134","6.292","0.21","0.32","29.2164","4.64531","56.72","0","SATNPRO1509","30.322","0.4247","5"],
    [54163,"HCEP03730542","2025-04-14 10:45:00","8.9168","3.1508","24.371","5.432","7.6","1.196","6.825","0.27","0.74","29.2139","4.6449","56.62","0","SATNPRO1509","30.566","0.42816","5"],
    [54164,"HCEP03730542","2025-04-14 11:00:00","8.9184","3.15075","24.231","5.422","7.6","1.093","9.219","0.14","1.27","29.2121","4.64461","56.53","0","SATNPRO1509","30.52","0.42748","5"],
    [54165,"HCEP03730542","2025-04-14 11:15:00","8.9196","3.15057","24.168","5.411","7.6","1.25","6.258","0.22","0.44","29.2092","4.64417","56.41","0","SATNPRO1509","30.388","0.42566","5"],
    [54166,"HCEP03730542","2025-04-14 11:30:00","8.9206","3.1505","24.195","5.399","7.6","1.085","6.052","0.14","0.38","29.2078","4.64394","56.28","0","SATNPRO1509","30.49","0.42708","5"],
    [54167,"HCEP03730542","2025-04-14 11:45:00","8.9214","3.15034","24.234","5.39","7.59","1.098","5.759","0.19","0.48","29.2054","4.64359","56.19","0","SATNPRO1509","30.348","0.4251","5"],
    [54168,"HCEP03730542","2025-04-14 12:00:00","8.9226","3.15015","24.284","5.384","7.59","1.071","5.77","0.13","0.52","29.2025","4.64315","56.13","0","SATNPRO1509","30.364","0.42532","5"],
    [54169,"HCEP03730542","2025-04-14 12:15:00","8.923400000000001","3.14975","24.338","5.387","7.6","1.033","5.713","0.13","0.57","29.1977","4.64244","56.16","0","SATNPRO1509","30.386","0.42564","5"],
    [54170,"HCEP03730542","2025-04-14 12:30:00","8.923400000000001","3.14959","24.427","5.403","7.6","1.041","7.498","0.09","1.4","29.196","4.64221","56.33","0","SATNPRO1509","30.394","0.42568","5"],
    [54171,"HCEP03730542","2025-04-14 12:45:00","8.9227","3.14937","24.572","5.404","7.6","1.131","5.449","0.21","0.42","29.1943","4.64199","56.33","0","SATNPRO1509","30.483999999999998","0.42696","5"],
    [54172,"HCEP03730542","2025-04-14 13:00:00","8.9216","3.14924","24.701","5.417","7.6","1.13","6.601","0.14","0.45","29.1938","4.64194","56.47","0","SATNPRO1509","30.336","0.42494","5"],
    [54173,"HCEP03730542","2025-04-14 13:15:00","8.9211","3.14912","24.801","5.426","7.6","1.089","5.41","0.1","0.2","29.1929","4.64183","56.56","0","SATNPRO1509","30.316","0.42464","5"],
    [54174,"HCEP03730542","2025-04-14 13:30:00","8.9208","3.14904","24.964","5.436","7.6","1.146","5.947","0.17","0.23","29.1923","4.64176","56.67","0","SATNPRO1509","30.422","0.42612","5"],
    [54175,"HCEP03730542","2025-04-14 13:45:00","8.9207","3.14899","25.124","5.435","7.6","1.091","5.232","0.14","0.22","29.1919","4.6417","56.65","0","SATNPRO1509","30.422","0.42614","5"],
    [54176,"HCEP03730542","2025-04-14 14:00:00","8.9209","3.149","25.273","5.428","7.6","1.147","5.625","0.32","0.44","29.1917","4.64169","56.58","0","SATNPRO1509","30.22","0.4233","5"],
    [54177,"HCEP03730542","2025-04-14 14:15:00","8.9205","3.14885","25.425","5.42","7.6","1.127","5.678","0.12","0.22","29.1904","4.64151","56.5","0","SATNPRO1509","30.31","0.42456","5"],
    [54178,"HCEP03730542","2025-04-14 14:30:00","8.9214","3.14873","25.579","5.41","7.6","1.11","5.834","0.16","0.22","29.1884","4.64122","56.39","0","SATNPRO1509","30.35","0.4251","5"],
    [54179,"HCEP03730542","2025-04-14 14:45:00","8.9226","3.1489","25.774","5.398","7.6","1.177","5.585","0.18","0.25","29.189","4.6413","56.27","0","SATNPRO1509","30.222","0.4233","5"],
    [54180,"HCEP03730542","2025-04-14 15:00:00","8.9214","3.14866","25.922","5.383","7.6","1.198","5.278","0.19","0.36","29.1875","4.64111","56.11","0","SATNPRO1509","30.358","0.42524","5"],
    [54181,"HCEP03730542","2025-04-14 15:15:00","8.9219","3.14866","26.12","5.396","7.59","1.199","5.153","0.14","0.19","29.187","4.64103","56.25","0","SATNPRO1509","30.316","0.42464","5"],
    [54182,"HCEP03730542","2025-04-14 15:30:00","8.9217","3.1486","26.297","5.4","7.6","1.141","5.218","0.22","0.33","29.1864","4.64097","56.29","0","SATNPRO1509","30.29","0.42426","5"],
    [54183,"HCEP03730542","2025-04-14 15:45:00","8.9212","3.14854","26.489","5.412","7.6","1.396","5.007","0.3","0.39","29.1862","4.64096","56.41","0","SATNPRO1509","30.292","0.42428","5"],
    [54184,"HCEP03730542","2025-04-14 16:00:00","8.9196","3.1482","26.674","5.434","7.6","1.176","4.62","0.22","0.26","29.1839","4.64067","56.64","0","SATNPRO1509","30.36","0.42526","5"],
    [54185,"HCEP03730542","2025-04-14 16:15:00","8.9183","3.14787","26.824","5.463","7.6","1.214","4.341","0.17","0.49","29.1816","4.64038","56.94","0","SATNPRO1509","30.422","0.4261","5"],
    [54186,"HCEP03730542","2025-04-14 16:30:00","8.9207","3.14842","26.985","5.492","7.6","1.312","5.97","0.23","1.27","29.1852","4.64085","57.25","0","SATNPRO1509","30.188","0.42282","5"],
    [54187,"HCEP03730542","2025-04-14 16:45:00","8.9202","3.14842","27.099","5.46","7.6","1.16","5.211","0.18","1.34","29.1856","4.64093","56.91","0","SATNPRO1509","30.172","0.42256","5"],
    [54188,"HCEP03730542","2025-04-14 17:00:00","8.9188","3.14826","27.206","5.469","7.6","1.203","4.614","0.25","1.38","29.185","4.64088","57","0","SATNPRO1509","30.77","0.43098","5"],
    [54189,"HCEP03730542","2025-04-14 17:15:00","8.9257","3.14973","27.308","5.453","7.59","1.274","6.748","0.25","0.86","29.1944","4.6421","56.85","0","SATNPRO1509","30.18","0.42272","5"],
    [54190,"HCEP03730542","2025-04-14 17:30:00","8.9252","3.14996","27.407","5.297","7.59","1.231","8.2","0.26","1.61","29.1971","4.64251","55.22","0","SATNPRO1509","30.355999999999998","0.42522","5"],
    [54191,"HCEP03730542","2025-04-14 17:45:00","8.9228","3.14952","27.459","5.281","7.59","1.036","5.894","0.2","0.8","29.1946","4.64219","55.06","0","SATNPRO1509","30.504","0.42726","5"],
    [54192,"HCEP03730542","2025-04-14 18:00:00","8.9254","3.15042","27.491","5.315","7.59","1.134","6.04","0.19","0.43","29.2016","4.64316","55.41","0","SATNPRO1509","30.29","0.4242","5"],
    [54193,"HCEP03730542","2025-04-14 18:15:00","8.9263","3.15079","27.508","5.23","7.58","1.315","5.823","0.3","0.28","29.2047","4.64358","54.53","0","SATNPRO1509","30.106","0.42168","5"],
    [54194,"HCEP03730542","2025-04-14 18:30:00","8.9257","3.15075","27.487","5.173","7.58","1.378","5.791","0.35","0.42","29.2048","4.64361","53.94","0","SATNPRO1509","30.304000000000002","0.42442","5"],
    [54195,"HCEP03730542","2025-04-14 18:45:00","8.9224","3.15038","27.443","5.181","7.58","1.181","4.954","0.28","0.36","29.2037","4.6435","54.01","0","SATNPRO1509","30.21","0.42316","5"],
    [54196,"HCEP03730542","2025-04-14 19:00:00","8.9222","3.15046","27.43","5.242","7.58","1.172","5.349","0.23","0.96","29.2047","4.64366","54.65","0","SATNPRO1509","30.276","0.42406","5"],
    [54197,"HCEP03730542","2025-04-14 19:15:00","8.9227","3.15076","27.41","5.266","7.58","1.212","5.679","0.15","0.71","29.2073","4.64403","54.9","0","SATNPRO1509","30.102","0.42166","5"],
    [54198,"HCEP03730542","2025-04-14 19:30:00","8.9247","3.1513","27.382","5.248","7.58","1.369","6.519","0.32","0.88","29.2113","4.64455","54.72","0","SATNPRO1509","30.026","0.42058","5"],
    [54199,"HCEP03730542","2025-04-14 19:45:00","8.9204","3.15087","27.346","5.201","7.58","9.901","436.246","5.62","184.36","29.2104","4.64451","54.22","0","SATNPRO1509","30.538","0.42772","5"],
    [54200,"HCEP03730542","2025-04-14 20:00:00","8.9173","3.15097","27.289","5.257","7.58","1.425","5.712","0.39","0.42","29.214","4.64508","54.8","0","SATNPRO1509","30.150000000000002","0.42234","5"],
    [54201,"HCEP03730542","2025-04-14 20:15:00","8.9171","3.15118","27.211","5.235","7.58","1.303","6.275","0.16","0.5","29.2163","4.64542","54.57","0","SATNPRO1509","30.186","0.4228","5"],
    [54202,"HCEP03730542","2025-04-14 20:30:00","8.9129","3.15097","27.143","5.212","7.58","1.424","6.667","0.23","0.46","29.2177","4.64568","54.33","0","SATNPRO1509","30.008","0.42034","5"],
    [54203,"HCEP03730542","2025-04-14 20:45:00","8.9074","3.15062","27.047","5.236","7.58","1.371","6.702","0.23","0.25","29.2186","4.64591","54.58","0","SATNPRO1509","30.128","0.42196","5"],
    [54204,"HCEP03730542","2025-04-14 21:00:00","8.9019","3.15029","26.967","5.304","7.59","1.495","7.205","0.3","0.46","29.2198","4.64618","55.28","0","SATNPRO1509","29.962","0.41966","5"],
    [54205,"HCEP03730542","2025-04-14 21:15:00","8.8809","3.14914","26.895","5.4","7.6","1.851","7.855","0.29","0.53","29.2254","4.64738","56.25","0","SATNPRO1509","29.96","0.41968","5"],
    [54206,"HCEP03730542","2025-04-14 21:30:00","8.8929","3.15017","26.824","5.531","7.6","1.775","7.633","0.38","0.57","29.2261","4.64725","57.63","0","SATNPRO1509","29.86","0.41824","5"],
    [54207,"HCEP03730542","2025-04-14 21:45:00","8.8935","3.15029","26.729","5.48","7.6","1.789","7.172","0.34","0.52","29.2268","4.64733","57.1","0","SATNPRO1509","30.09","0.42146","5"],
    [54208,"HCEP03730542","2025-04-14 22:00:00","8.872","3.14899","26.633","5.514","7.61","2.273","6.61","0.43","0.57","29.2312","4.64836","57.43","0","SATNPRO1509","30.066","0.42112","5"],
    [54209,"HCEP03730542","2025-04-14 22:15:00","8.8689","3.1486","26.534","5.656","7.62","2.18","6.393","0.48","0.56","29.2297","4.64821","58.9","0","SATNPRO1509","30.188","0.4228","5"],
    [54210,"HCEP03730542","2025-04-14 22:30:00","8.8917","3.15003","26.434","5.709","7.61","1.615","5.856","0.47","0.32","29.2257","4.6472","59.48","0","SATNPRO1509","30.116","0.42184","5"],
    [54211,"HCEP03730542","2025-04-14 22:45:00","8.915","3.15081","26.343","5.543","7.6","1.434","5.332","0.36","0.59","29.2146","4.64515","57.78","0","SATNPRO1509","30.348","0.42506","5"],
    [54212,"HCEP03730542","2025-04-14 23:00:00","8.871","3.14858","26.255","5.473","7.61","1.981","5.821","0.51","0.42","29.228","4.6479","57","0","SATNPRO1509","30.284","0.42414","5"],
    [54213,"HCEP03730542","2025-04-14 23:15:00","8.8815","3.14917","26.176","5.656","7.62","2.02","5.78","0.52","0.51","29.2254","4.64733","58.92","0","SATNPRO1509","30.282","0.42416","5"],
    [54214,"HCEP03730542","2025-04-14 23:30:00","8.8643","3.14819","26.112","5.677","7.62","2.041","6.076","0.39","0.59","29.2296","4.64825","59.11","0","SATNPRO1509","30.218","0.42324","5"],
    [54215,"HCEP03730542","2025-04-14 23:45:00","8.8639","3.14814","26.07","5.804","7.63","2.023","6","0.45","0.69","29.2294","4.64823","60.44","0","SATNPRO1509","30.322","0.42468","5"],
    [54216,"HCEP03730542","2025-04-15 00:00:00","8.8657","3.14799","26.046","5.843","7.63","2.076","6.68","0.4","1.09","29.2264","4.64776","60.85","0","SATNPRO1509","30.464","0.42672","5"],
    [54217,"HCEP03730542","2025-04-15 00:15:00","8.8544","3.14745","26.04","5.865","7.63","2.337","5.963","0.3","0.39","29.2302","4.64852","61.06","0","SATNPRO1509","30.244","0.42362","5"],
    [54218,"HCEP03730542","2025-04-15 00:30:00","8.8519","3.14746","26.055","5.919","7.63","2.399","6.814","0.34","0.77","29.2323","4.64887","61.62","0","SATNPRO1509","30.18","0.4227","5"],
    [54219,"HCEP03730542","2025-04-15 00:45:00","8.8533","3.14775","26.093","5.933","7.64","2.787","7.768","0.55","1.15","29.2341","4.64911","61.76","0","SATNPRO1509","30.108","0.42174","5"],
    [54220,"HCEP03730542","2025-04-15 01:00:00","8.8568","3.14811","26.15","5.92","7.63","2.343","6.565","0.39","0.41","29.2349","4.64916","61.64","0","SATNPRO1509","30.182","0.42274","5"],
    [54221,"HCEP03730542","2025-04-15 01:15:00","8.8621","3.14841","26.194","5.871","7.63","2.025","6.2","0.36","0.32","29.2336","4.64888","61.14","0","SATNPRO1509","30.118000000000002","0.42186","5"],
    [54222,"HCEP03730542","2025-04-15 01:30:00","8.8629","3.14853","26.262","5.828","7.63","1.905","5.684","0.34","0.38","29.2342","4.64895","60.69","0","SATNPRO1509","30.142","0.4222","5"],
    [54223,"HCEP03730542","2025-04-15 01:45:00","8.861","3.14837","26.335","5.794","7.63","2.191","6.018","0.35","0.35","29.2341","4.64897","60.34","0","SATNPRO1509","30.126","0.42196","5"],
    [54224,"HCEP03730542","2025-04-15 02:00:00","8.8632","3.1489","26.404","5.795","7.63","2.029","7.638","0.31","0.38","29.2376","4.64943","60.35","0","SATNPRO1509","30.128","0.42202","5"],
    [54225,"HCEP03730542","2025-04-15 02:15:00","8.8585","3.14928","26.477","5.773","7.63","2.309","7.123","0.44","0.81","29.2453","4.65064","60.11","0","SATNPRO1509","29.922","0.41912","5"],
    [54226,"HCEP03730542","2025-04-15 02:30:00","8.8541","3.14935","26.589","5.786","7.63","2.843","6.451","1.66","0.44","29.2497","4.65136","60.25","0","SATNPRO1509","30.082","0.42136","5"],
    [54227,"HCEP03730542","2025-04-15 02:45:00","8.8502","3.14951","26.672","5.816","7.63","2.405","6.498","0.3","0.68","29.2545","4.65214","60.56","0","SATNPRO1509","30.064","0.4211","5"],
    [54228,"HCEP03730542","2025-04-15 03:00:00","8.8478","3.14959","26.759","5.837","7.63","2.922","6.838","0.93","0.98","29.2573","4.65258","60.77","0","SATNPRO1509","29.965999999999998","0.41972","5"],
    [54229,"HCEP03730542","2025-04-15 03:15:00","8.8428","3.14992","26.839","5.835","7.63","3.037","6.947","0.51","0.56","29.2647","4.65375","60.74","0","SATNPRO1509","30.038","0.42072","5"],
    [54230,"HCEP03730542","2025-04-15 03:30:00","8.8399","3.15039","26.919","5.854","7.63","3.476","6.524","0.83","0.73","29.2719","4.65484","60.94","0","SATNPRO1509","30.038","0.42072","5"],
    [54231,"HCEP03730542","2025-04-15 03:45:00","8.8416","3.15072","27.004","5.857","7.63","3.238","6.799","0.53","0.76","29.2739","4.6551","60.98","0","SATNPRO1509","29.772","0.41702","5"],
    [54232,"HCEP03730542","2025-04-15 04:00:00","8.8431","3.15102","27.072","5.825","7.63","3.518","7.645","0.38","0.6","29.2757","4.65534","60.65","0","SATNPRO1509","29.936","0.41932","5"],
    [54233,"HCEP03730542","2025-04-15 04:15:00","8.8436","3.15139","27.146","5.809","7.63","3.386","8.653","0.47","1.29","29.279","4.65581","60.48","0","SATNPRO1509","30.1","0.42162","5"],
    [54234,"HCEP03730542","2025-04-15 04:30:00","8.847","3.15237","27.213","5.826","7.63","2.546","6.903","0.39","0.64","29.2863","4.6568","60.67","0","SATNPRO1509","30.482","0.42694","5"],
    [54235,"HCEP03730542","2025-04-15 04:45:00","8.8443","3.15256","27.281","5.868","7.64","2.178","6.895","0.24","1.15","29.2904","4.65744","61.1","0","SATNPRO1509","30.712","0.43018","5"],
    [54236,"HCEP03730542","2025-04-15 05:00:00","8.8424","3.15278","27.323","5.926","7.64","2.472","6.138","0.5","0.69","29.2942","4.65803","61.7","0","SATNPRO1509","30.622","0.42892","5"],
    [54237,"HCEP03730542","2025-04-15 05:15:00","8.8448","3.15282","27.362","5.943","7.64","2.509","5.401","0.54","0.65","29.2926","4.65775","61.88","0","SATNPRO1509","30.572","0.42822","5"],
    [54238,"HCEP03730542","2025-04-15 05:30:00","8.8446","3.15288","27.382","5.922","7.64","2.245","5.828","0.47","0.47","29.2935","4.65788","61.66","0","SATNPRO1509","30.704","0.43006","5"],
    [54239,"HCEP03730542","2025-04-15 05:45:00","8.8417","3.15218","27.359","5.906","7.64","2.916","4.862","0.63","0.26","29.2887","4.65725","61.49","0","SATNPRO1509","30.36","0.4252","5"],
    [54240,"HCEP03730542","2025-04-15 06:00:00","8.8459","3.15273","27.339","5.895","7.64","2.868","5.68","1.2","0.17","29.2908","4.65747","61.39","0","SATNPRO1509","30.478","0.42692","5"],
    [54241,"HCEP03730542","2025-04-15 06:15:00","8.8419","3.15263","27.303","5.916","7.64","2.114","3.79","0.42","0.44","29.293","4.65787","61.59","0","SATNPRO1509","30.727999999999998","0.43042","5"],
    [54242,"HCEP03730542","2025-04-15 06:30:00","8.8433","3.15299","27.25","5.979","7.64","2.545","5.597","0.36","0.4","29.2957","4.65822","62.25","0","SATNPRO1509","30.564","0.42816","5"],
    [54243,"HCEP03730542","2025-04-15 06:45:00","8.8164","3.1518","27.193","6.019","7.66","1.995","4.433","0.33","0.69","29.3057","4.66016","62.64","0","SATNPRO1509","31.182","0.43678","5"],
    [54244,"HCEP03730542","2025-04-15 07:00:00","8.816","3.15211","27.083","6.344","7.67","1.711","4.451","0.17","0.44","29.3093","4.66068","66.02","0","SATNPRO1509","31.266","0.4379","5"],
    [54245,"HCEP03730542","2025-04-15 07:15:00","8.8133","3.15198","26.968","6.4","7.68","1.71","4.676","0.29","0.43","29.3102","4.66087","66.6","0","SATNPRO1509","31.262","0.43786","5"],
    [54246,"HCEP03730542","2025-04-15 07:30:00","8.8103","3.15196","26.822","6.459","7.68","1.668","4.541","0.27","0.54","29.3126","4.66125","67.21","0","SATNPRO1509","31.202","0.43706","5"],
    [54247,"HCEP03730542","2025-04-15 07:45:00","8.8105","3.15225","26.694","6.504","7.68","1.707","5.233","0.18","0.6","29.3154","4.66164","67.68","0","SATNPRO1509","31.166","0.43652","5"],
    [54248,"HCEP03730542","2025-04-15 08:00:00","8.8091","3.15223","26.553","6.497","7.68","1.785","4.904","0.22","0.31","29.3163","4.6618","67.6","0","SATNPRO1509","31.236","0.43754","5"],
    [54249,"HCEP03730542","2025-04-15 08:15:00","8.81","3.15228","26.375","6.515","7.68","1.968","5.079","0.47","0.46","29.3163","4.66176","67.8","0","SATNPRO1509","32.26","0.45184","5"],
    [54250,"HCEP03730542","2025-04-15 08:30:00","8.8087","3.15232","26.207","6.51","7.69","1.733","4.577","0.29","0.5","29.3178","4.662","67.75","0","SATNPRO1509","31.248","0.4377","5"],
    [54251,"HCEP03730542","2025-04-15 08:45:00","8.8081","3.15249","26.01","6.527","7.69","1.651","4.483","0.27","0.59","29.3201","4.66233","67.92","0","SATNPRO1509","31.196","0.43692","5"],
    [54252,"HCEP03730542","2025-04-15 09:00:00","8.8084","3.15269","25.834","6.529","7.69","1.643","4.933","0.22","0.4","29.322","4.66259","67.94","0","SATNPRO1509","31.142","0.4362","5"],
    [54253,"HCEP03730542","2025-04-15 09:15:00","8.8075","3.15296","25.552","6.518","7.69","1.631","4.673","0.14","0.42","29.3257","4.66311","67.82","0","SATNPRO1509","31.264","0.43788","5"],
    [54254,"HCEP03730542","2025-04-15 09:30:00","8.8077","3.15296","25.247","6.515","7.69","1.629","4.132","0.17","0.3","29.3255","4.66307","67.8","0","SATNPRO1509","31.298000000000002","0.43836","5"],
    [54255,"HCEP03730542","2025-04-15 09:45:00","8.8087","3.15274","25.043","6.511","7.69","1.667","3.563","0.23","0.35","29.3226","4.66261","67.75","0","SATNPRO1509","31.240000000000002","0.4376","5"],
    [54256,"HCEP03730542","2025-04-15 10:00:00","8.811","3.15193","24.825","6.515","7.69","1.72","3.911","0.15","0.32","29.3124","4.6611","67.79","0","SATNPRO1509","31.332","0.4389","5"],
    [54257,"HCEP03730542","2025-04-15 10:15:00","8.8118","3.15212","24.653","6.514","7.69","1.842","4.083","0.27","0.38","29.3138","4.66127","67.79","0","SATNPRO1509","31.178","0.4367","5"],
    [54258,"HCEP03730542","2025-04-15 10:30:00","8.8152","3.15153","24.479","6.49","7.69","1.952","3.956","0.37","0.36","29.305","4.65993","67.54","0","SATNPRO1509","31.146","0.43628","5"],
    [54259,"HCEP03730542","2025-04-15 10:45:00","8.8227","3.15105","24.352","6.456","7.68","1.84","4.241","0.3","0.27","29.294","4.65819","67.19","0","SATNPRO1509","31.14","0.43616","5"],
    [54260,"HCEP03730542","2025-04-15 11:00:00","8.8235","3.15073","24.236","6.408","7.68","4.527","4.137","8.22","0.57","29.29","4.6576","66.69","0","SATNPRO1509","31.136","0.4361","5"],
    [54261,"HCEP03730542","2025-04-15 11:15:00","8.8201","3.15103","24.164","6.416","7.68","1.933","4.089","0.35","0.28","29.2959","4.65851","66.78","0","SATNPRO1509","31.026","0.43458","5"],
    [54262,"HCEP03730542","2025-04-15 11:30:00","8.8196","3.15094","24.122","6.435","7.68","2.186","3.937","0.46","0.28","29.2955","4.65845","66.97","0","SATNPRO1509","31.076","0.43526","5"],
    [54263,"HCEP03730542","2025-04-15 11:45:00","8.8257","3.15","24.043","6.444","7.68","1.993","3.25","0.41","0.45","29.2808","4.65623","67.07","0","SATNPRO1509","31.638","0.4432","5"],
    [54264,"HCEP03730542","2025-04-15 12:00:00","8.8216","3.15073","24.059","6.422","7.68","2.104","4.285","0.27","1.18","29.2917","4.65788","66.84","0","SATNPRO1509","31.002","0.43426","5"],
    [54265,"HCEP03730542","2025-04-15 12:15:00","8.8207","3.15101","24.125","6.421","7.68","1.988","5.563","0.33","3.68","29.2952","4.6584","66.82","0","SATNPRO1509","31.094","0.43554","5"],
    [54266,"HCEP03730542","2025-04-15 12:30:00","8.8274","3.14958","24.17","6.396","7.68","1.801","3.103","0.3","0.71","29.2751","4.65538","66.57","0","SATNPRO1509","31.19","0.43686","5"],
    [54267,"HCEP03730542","2025-04-15 12:45:00","8.8247","3.15012","24.239","6.418","7.68","1.803","2.86","0.36","0.65","29.2827","4.65654","66.8","0","SATNPRO1509","31.03","0.43462","5"],
    [54268,"HCEP03730542","2025-04-15 13:00:00","8.8223","3.15092","24.324","6.423","7.68","1.749","3.554","0.25","1.12","29.293","4.65806","66.85","0","SATNPRO1509","31.114","0.4358","5"],
    [54269,"HCEP03730542","2025-04-15 13:15:00","8.8207","3.15123","24.411","6.406","7.68","2.656","5.504","3.05","1.26","29.2974","4.65873","66.67","0","SATNPRO1509","31.056","0.435","5"],
    [54270,"HCEP03730542","2025-04-15 13:30:00","8.819","3.15154","24.526","6.394","7.68","1.944","3.855","0.23","0.43","29.302","4.65943","66.55","0","SATNPRO1509","31.02","0.43448","5"],
    [54271,"HCEP03730542","2025-04-15 13:45:00","8.8179","3.15212","24.658","6.393","7.68","1.926","3.937","0.23","0.21","29.3087","4.66043","66.54","0","SATNPRO1509","30.98","0.43394","5"],
    [54272,"HCEP03730542","2025-04-15 14:00:00","8.8223","3.15178","24.801","6.365","7.67","1.976","3.924","0.23","0.94","29.3015","4.65931","66.25","0","SATNPRO1509","30.902","0.43284","5"],
    [54273,"HCEP03730542","2025-04-15 14:15:00","8.8309","3.15131","24.959","6.32","7.67","1.88","3.371","0.26","0.21","29.2896","4.65745","65.78","0","SATNPRO1509","30.678","0.42972","5"],
    [54274,"HCEP03730542","2025-04-15 14:30:00","8.8338","3.15153","25.104","6.233","7.66","1.974","3.91","0.3","0.28","29.2894","4.65738","64.88","0","SATNPRO1509","30.599999999999998","0.42858","5"],
    [54275,"HCEP03730542","2025-04-15 14:45:00","8.8269","3.15204","25.27","6.178","7.66","2.027","4.547","0.45","0.53","29.3003","4.65908","64.31","0","SATNPRO1509","30.562","0.42808","5"],
    [54276,"HCEP03730542","2025-04-15 15:00:00","8.8306","3.15194","25.441","6.198","7.66","2.142","4.3","0.35","0.9","29.2961","4.65841","64.52","0","SATNPRO1509","30.592","0.42844","5"],
    [54277,"HCEP03730542","2025-04-15 15:15:00","8.8291","3.15218","25.616","6.168","7.66","2.151","4.368","0.36","0.5","29.2997","4.65897","64.21","0","SATNPRO1509","30.77","0.43098","5"],
    [54278,"NA","2025-04-15 15:30:00",null,null,null,null,null,null,null,null,null,null,null,null,null,"SATNPRO1509","30.524","0.42752","5"],
    [54279,"HCEP03730542","2025-04-15 15:30:01","8.8334","3.1523","25.797","6.153","7.66","2.15","4.55","0.38","0.23","29.2974","4.65856","64.06","0","NA",null,null,null],
    [54280,"HCEP03730542","2025-04-15 15:45:00","8.8454","3.15166","25.989","6.091","7.65","2.242","4.728","0.32","0.32","29.2808","4.65596","63.42","0","SATNPRO1509","30.326","0.42478","5"],
    [54281,"HCEP03730542","2025-04-15 16:00:00","8.8307","3.15269","26.177","6.011","7.65","2.207","5.621","0.36","0.26","29.3034","4.65951","62.57","0","SATNPRO1509","30.618000000000002","0.42884","5"],
    [54282,"HCEP03730542","2025-04-15 16:15:00","8.8436","3.1519","26.369","6.055","7.65","2.856","5.47","0.74","0.55","29.2846","4.65657","63.04","0","SATNPRO1509","30.606","0.4287","5"],
    [54283,"HCEP03730542","2025-04-15 16:30:00","8.8342","3.15261","26.548","5.992","7.64","2.977","6.105","0.51","0.43","29.2996","4.65891","62.38","0","SATNPRO1509","30.48","0.42694","5"],
    [54284,"HCEP03730542","2025-04-15 16:45:00","8.836","3.15253","26.713","6.025","7.65","3.061","6.149","0.52","0.95","29.2973","4.65855","62.72","0","SATNPRO1509","30.612","0.42876","5"],
    [54285,"HCEP03730542","2025-04-15 17:00:00","8.8527","3.15166","26.854","5.997","7.64","2.782","4.667","0.74","0.36","29.2744","4.65496","62.45","0","SATNPRO1509","30.188000000000002","0.42282","5"],
    [54286,"HCEP03730542","2025-04-15 17:15:00","8.8304","3.15287","26.997","5.937","7.64","3.068","5.455","0.44","0.38","29.3052","4.65981","61.8","0","SATNPRO1509","30.644000000000002","0.42918","5"],
    [54287,"HCEP03730542","2025-04-15 17:30:00","8.8277","3.15301","27.105","6.052","7.65","3.671","5.424","1.35","0.79","29.3088","4.6604","63","0","SATNPRO1509","30.658","0.4294","5"],
    [54288,"HCEP03730542","2025-04-15 17:45:00","8.8227","3.15324","27.237","6.12","7.65","2.869","5.308","0.33","0.47","29.3153","4.66143","63.7","0","SATNPRO1509","30.672","0.42962","5"],
    [54289,"HCEP03730542","2025-04-15 18:00:00","8.822","3.15319","27.314","6.156","7.65","4.815","5.4","2.21","0.41","29.3153","4.66145","64.08","0","SATNPRO1509","30.678","0.42968","5"],
    [54290,"HCEP03730542","2025-04-15 18:15:00","8.8331","3.15038","27.401","6.194","7.66","2.651","3.802","0.73","0.35","29.2772","4.65576","64.47","0","SATNPRO1509","30.884","0.43256","5"],
    [54291,"HCEP03730542","2025-04-15 18:30:00","8.8511","3.15013","27.45","6.194","7.65","2.693","3.8","0.5","0.59","29.2598","4.65292","64.49","0","SATNPRO1509","30.894","0.4327","5"],
    [54292,"HCEP03730542","2025-04-15 18:45:00","8.8267","3.15231","27.454","6.093","7.65","3.057","4.268","0.61","0.31","29.3023","4.65949","63.42","0","SATNPRO1509","30.82","0.43166","5"],
    [54293,"HCEP03730542","2025-04-15 19:00:00","8.8281","3.15222","27.446","6.176","7.66","2.688","4.566","0.69","0.56","29.3002","4.65918","64.29","0","SATNPRO1509","30.768","0.43096","5"],
    [54294,"HCEP03730542","2025-04-15 19:15:00","8.8235","3.15279","27.424","6.194","7.66","2.531","4.298","0.54","0.24","29.3099","4.66065","64.47","0","SATNPRO1509","30.802","0.43142","5"],
    [54295,"HCEP03730542","2025-04-15 19:30:00","8.8221","3.15341","27.41","6.209","7.66","2.842","5.324","0.45","0.38","29.3174","4.66176","64.63","0","SATNPRO1509","30.642","0.42916","5"],
    [54296,"HCEP03730542","2025-04-15 19:45:00","8.8241","3.15285","27.416","6.187","7.66","2.363","4.853","0.42","1.9","29.3101","4.66067","64.4","0","SATNPRO1509","30.884","0.4326","5"],
    [54297,"HCEP03730542","2025-04-15 20:00:00","8.8254","3.15232","27.396","6.191","7.66","2.152","4.241","0.37","0.36","29.3035","4.65969","64.45","0","SATNPRO1509","30.83","0.4318","5"],
    [54298,"HCEP03730542","2025-04-15 20:15:00","8.8283","3.15231","27.321","6.199","7.66","2.221","4.651","0.31","0.37","29.3011","4.65928","64.52","0","SATNPRO1509","30.669999999999998","0.42956","5"],
    [54299,"HCEP03730542","2025-04-15 20:30:00","8.8331","3.1515","27.29","6.148","7.65","2.27","5.064","0.35","1.51","29.2888","4.65742","64","0","SATNPRO1509","30.664","0.42952","5"],
    [54300,"HCEP03730542","2025-04-15 20:45:00","8.8373","3.15112","27.247","6.104","7.65","2.469","4.506","0.57","0.44","29.2814","4.65629","63.55","0","SATNPRO1509","30.576","0.4282","5"],
    [54301,"HCEP03730542","2025-04-15 21:00:00","8.8398","3.15102","27.208","6.045","7.65","2.838","5.382","0.46","0.58","29.2783","4.65579","62.93","0","SATNPRO1509","30.378","0.42554","5"],
    [54302,"HCEP03730542","2025-04-15 21:15:00","8.8368","3.15112","27.154","5.998","7.64","3.435","5.469","0.89","0.89","29.2818","4.65634","62.44","0","SATNPRO1509","30.227999999999998","0.42342","5"],
    [54303,"HCEP03730542","2025-04-15 21:30:00","8.8324","3.151","27.071","5.984","7.64","4.046","4.53","0.49","0.4","29.2844","4.65679","62.29","0","SATNPRO1509","30.112","0.4218","5"],
    [54304,"HCEP03730542","2025-04-15 21:45:00","8.8307","3.15103","27.008","5.994","7.64","4.324","4.255","0.67","0.43","29.286","4.65706","62.39","0","SATNPRO1509","30.168","0.42254","5"],
    [54305,"HCEP03730542","2025-04-15 22:00:00","8.8294","3.1511","26.944","5.994","7.64","4.339","4.9","0.5","0.44","29.2879","4.65734","62.39","0","SATNPRO1509","30","0.42022","5"],
    [54306,"HCEP03730542","2025-04-15 22:15:00","8.8313","3.15103","26.876","5.998","7.64","4.005","4.364","0.64","0.59","29.2856","4.65697","62.43","0","SATNPRO1509","30.286","0.42426","5"],
    [54307,"HCEP03730542","2025-04-15 22:30:00","8.8277","3.1511","26.794","6.002","7.64","4.407","5.529","0.66","2.45","29.2893","4.65757","62.48","0","SATNPRO1509","30.081999999999997","0.42138","5"],
    [54308,"HCEP03730542","2025-04-15 22:45:00","8.8274","3.15118","26.719","6.002","7.64","4.849","8.113","1.02","4.17","29.2904","4.65774","62.48","0","SATNPRO1509","30.112000000000002","0.42178","5"],
    [54309,"HCEP03730542","2025-04-15 23:00:00","8.8304","3.15132","26.639","5.989","7.64","4.135","5.452","0.61","1.87","29.2894","4.65752","62.34","0","SATNPRO1509","30.148","0.42224","5"],
    [54310,"HCEP03730542","2025-04-15 23:15:00","8.8343","3.15139","26.552","5.964","7.64","4.005","4.789","0.96","0.4","29.2869","4.65709","62.08","0","SATNPRO1509","30.332","0.42486","5"],
    [54311,"HCEP03730542","2025-04-15 23:30:00","8.8305","3.15138","26.468","5.951","7.64","4.111","4.669","0.7","0.32","29.2901","4.65761","61.95","0","SATNPRO1509","30.104","0.42166","5"],
    [54312,"HCEP03730542","2025-04-15 23:45:00","8.8302","3.15134","26.394","5.963","7.64","4.298","4.392","0.75","0.27","29.2899","4.65759","62.07","0","SATNPRO1509","30.096","0.42156","5"],
    [54313,"HCEP03730542","2025-04-16 00:00:00","8.8293","3.15127","26.338","5.971","7.64","4.333","3.842","0.88","0.17","29.2899","4.6576","62.15","0","SATNPRO1509","30.2","0.42298","5"],
    [54314,"HCEP03730542","2025-04-16 00:15:00","8.8288","3.15124","26.291","5.981","7.64","4.413","3.832","0.81","0.22","29.2901","4.65764","62.25","0","SATNPRO1509","30.106","0.42168","5"],
    [54315,"HCEP03730542","2025-04-16 00:30:00","8.8287","3.15124","26.265","5.989","7.64","3.929","4.465","0.76","0.28","29.2902","4.65765","62.33","0","SATNPRO1509","30.152","0.4224","5"],
    [54316,"HCEP03730542","2025-04-16 00:45:00","8.8293","3.15121","26.259","5.983","7.64","4.213","4.147","0.84","0.19","29.2893","4.65751","62.27","0","SATNPRO1509","30.14","0.42216","5"],
    [54317,"HCEP03730542","2025-04-16 01:00:00","8.831","3.15108","26.261","5.978","7.64","3.67","4.309","0.75","0.3","29.2866","4.65708","62.22","0","SATNPRO1509","30.196","0.42294","5"],
    [54318,"HCEP03730542","2025-04-16 01:15:00","8.8334","3.15106","26.293","5.96","7.64","3.749","4.37","0.71","0.31","29.2844","4.65673","62.04","0","SATNPRO1509","30.358","0.42522","5"],
    [54319,"HCEP03730542","2025-04-16 01:30:00","8.8351","3.15105","26.324","5.933","7.64","3.311","4.569","0.6","0.42","29.2828","4.65647","61.76","0","SATNPRO1509","30.314","0.42462","5"],
    [54320,"HCEP03730542","2025-04-16 01:45:00","8.8357","3.15099","26.361","5.917","7.64","3.257","4.629","0.51","0.34","29.2818","4.65631","61.6","0","SATNPRO1509","30.18","0.42272","5"],
    [54321,"HCEP03730542","2025-04-16 02:00:00","8.8358","3.15102","26.403","5.893","7.63","3.145","4.665","0.47","0.33","29.282","4.65635","61.35","0","SATNPRO1509","30.124","0.42194","5"],
    [54322,"HCEP03730542","2025-04-16 02:15:00","8.8352","3.15123","26.457","5.879","7.63","3.095","4.558","0.48","0.43","29.2846","4.65673","61.2","0","SATNPRO1509","30.148","0.42226","5"],
    [54323,"HCEP03730542","2025-04-16 02:30:00","8.8349","3.15137","26.518","5.857","7.63","3.127","4.56","0.52","0.32","29.2863","4.65699","60.97","0","SATNPRO1509","30.18","0.42274","5"],
    [54324,"HCEP03730542","2025-04-16 02:45:00","8.8343","3.15145","26.594","5.865","7.63","3.168","5.335","0.6","0.51","29.2875","4.65717","61.06","0","SATNPRO1509","30.1","0.42158","5"],
    [54325,"HCEP03730542","2025-04-16 03:00:00","8.833","3.15148","26.656","5.866","7.63","3.261","5.096","0.56","0.43","29.2889","4.65741","61.06","0","SATNPRO1509","30.146","0.42222","5"],
    [54326,"HCEP03730542","2025-04-16 03:15:00","8.8324","3.15149","26.726","5.868","7.63","3.199","5.288","0.35","0.32","29.2895","4.65751","61.08","0","SATNPRO1509","30.07","0.4212","5"],
    [54327,"HCEP03730542","2025-04-16 03:30:00","8.8322","3.1515","26.779","5.859","7.63","3.485","5.197","0.61","1.33","29.2897","4.65754","60.99","0","SATNPRO1509","30.064","0.42114","5"],
    [54328,"HCEP03730542","2025-04-16 03:45:00","8.8315","3.1515","26.847","5.847","7.63","3.647","5.14","0.7","0.33","29.2903","4.65764","60.87","0","SATNPRO1509","29.998","0.42018","5"],
    [54329,"HCEP03730542","2025-04-16 04:00:00","8.8286","3.15145","26.921","5.826","7.63","3.748","5.271","0.54","0.33","29.2921","4.65797","60.65","0","SATNPRO1509","29.887999999999998","0.41858","5"],
    [54330,"HCEP03730542","2025-04-16 04:15:00","8.8235","3.15124","27.007","5.83","7.63","3.856","5.074","0.41","0.4","29.2941","4.65836","60.68","0","SATNPRO1509","29.898","0.41874","5"],
    [54331,"HCEP03730542","2025-04-16 04:30:00","8.8214","3.15108","27.091","5.874","7.63","3.865","5.01","0.53","0.4","29.2942","4.65841","61.14","0","SATNPRO1509","30.056","0.42096","5"],
    [54332,"HCEP03730542","2025-04-16 04:45:00","8.8183","3.15088","27.142","5.919","7.64","4.182","5.245","0.59","1.38","29.2946","4.65854","61.6","0","SATNPRO1509","30.004","0.42026","5"],
    [54333,"HCEP03730542","2025-04-16 05:00:00","8.8178","3.15071","27.193","5.974","7.64","4.059","5.19","0.5","0.42","29.2933","4.65835","62.16","0","SATNPRO1509","29.98","0.41986","5"],
    [54334,"HCEP03730542","2025-04-16 05:15:00","8.8163","3.15092","27.239","5.99","7.64","3.889","5.033","0.37","0.5","29.2967","4.65888","62.34","0","SATNPRO1509","29.916","0.41902","5"],
    [54335,"HCEP03730542","2025-04-16 05:30:00","8.8152","3.15132","27.277","5.997","7.64","4.528","5.706","0.57","0.85","29.3017","4.65962","62.41","0","SATNPRO1509","30","0.42022","5"],
    [54336,"HCEP03730542","2025-04-16 05:45:00","8.8126","3.15153","27.311","6.003","7.64","4.55","5.084","0.57","0.73","29.306","4.66029","62.47","0","SATNPRO1509","29.952","0.41954","5"],
    [54337,"HCEP03730542","2025-04-16 06:00:00","8.8109","3.15163","27.321","6.033","7.65","4.764","5.873","0.72","0.75","29.3084","4.66067","62.78","0","SATNPRO1509","29.966","0.41972","5"],
    [54338,"HCEP03730542","2025-04-16 06:15:00","8.8104","3.1518","27.309","6.06","7.65","4.349","5.109","0.62","0.26","29.3106","4.66099","63.06","0","SATNPRO1509","30.036","0.42068","5"],
    [54339,"HCEP03730542","2025-04-16 06:30:00","8.8082","3.15204","27.276","6.073","7.65","4.702","4.874","0.66","0.46","29.3148","4.66164","63.2","0","SATNPRO1509","29.948","0.41946","5"],
    [54340,"HCEP03730542","2025-04-16 06:45:00","8.8095","3.15228","27.222","6.089","7.65","4.949","5.011","0.87","0.71","29.3163","4.66183","63.36","0","SATNPRO1509","30.032","0.42064","5"],
    [54341,"HCEP03730542","2025-04-16 07:00:00","8.8092","3.15241","27.164","6.066","7.65","5.105","5.736","0.83","0.77","29.3179","4.66206","63.13","0","SATNPRO1509","30.038","0.42072","5"],
    [54342,"HCEP03730542","2025-04-16 07:15:00","8.8082","3.15242","27.074","6.054","7.65","4.904","4.66","1.06","0.49","29.3188","4.6622","63","0","SATNPRO1509","30.06","0.42104","5"],
    [54343,"HCEP03730542","2025-04-16 07:30:00","8.8127","3.15274","26.981","6.052","7.64","4.823","5.247","0.53","0.38","29.3184","4.66205","62.98","0","SATNPRO1509","29.902","0.41882","5"],
    [54344,"HCEP03730542","2025-04-16 07:45:00","8.8124","3.15286","26.857","5.983","7.64","4.713","5.86","0.67","0.78","29.32","4.66228","62.26","0","SATNPRO1509","30.024","0.42054","5"],
    [54345,"HCEP03730563","2025-07-16 12:45:00","9.9971","3.27107","25.1","4.902","7.74","0.875","1.426","0.73","0.12","29.5464","4.67335","52.39","0","SATNPRO1964","25.924","0.36306","5"],
    [54346,"HCEP03730563","2025-07-16 13:00:00","9.8975","3.26921","24.959","4.804","7.73","0.68","1.582","0.21","0.33","29.6094","4.68402","51.28","0","SATNPRO1964","26.682","0.37378","5"],
    [54347,"HCEP03730563","2025-07-16 13:15:00","9.8595","3.26774","24.858","4.735","7.72","0.611","1.33","0.15","0.1","29.6258","4.68702","50.52","0","SATNPRO1964","27.062","0.37904","5"],
    [54348,"HCEP03730563","2025-07-16 13:30:00","9.8552","3.26872","24.77","4.811","7.72","0.679","1.645","0.19","0.39","29.6393","4.689","51.34","0","SATNPRO1964","27.328","0.3828","5"],
    [54349,"HCEP03730563","2025-07-16 13:45:00","9.8485","3.26855","24.702","4.841","7.72","0.737","1.627","0.17","0.2","29.643","4.68965","51.66","0","SATNPRO1964","27.27","0.38196","5"],
    [54350,"HCEP03730563","2025-07-16 14:00:00","9.8478","3.26859","24.658","4.844","7.71","0.646","1.083","0.27","0.21","29.6441","4.68982","51.69","0","SATNPRO1964","27.564","0.38608","5"],
    [54351,"HCEP03730563","2025-07-16 14:15:00","9.8454","3.2682","24.636","4.85","7.71","0.61","0.965","0.17","0.12","29.6422","4.68958","51.76","0","SATNPRO1964","27.528","0.38556","5"],
    [54352,"HCEP03730563","2025-07-16 14:30:00","9.8435","3.26813","24.642","4.827","7.7","0.602","0.999","0.22","0.04","29.6429","4.68972","51.51","0","SATNPRO1964","27.64","0.38714","5"],
    [54353,"HCEP03730563","2025-07-16 14:45:00","9.8447","3.26825","24.683","4.829","7.7","0.614","1.094","0.21","0.13","29.6432","4.68974","51.54","0","SATNPRO1964","27.562","0.38608","5"],
    [54354,"HCEP03730563","2025-07-16 15:00:00","9.8459","3.26833","24.745","4.848","7.7","0.547","0.835","0.23","0.05","29.643","4.68969","51.73","0","SATNPRO1964","27.682","0.38774","5"],
    [54355,"HCEP03730563","2025-07-16 15:15:00","9.843","3.26746","24.826","4.856","7.7","0.645","0.711","0.39","0.07","29.6366","4.68883","51.82","0","SATNPRO1964","27.912","0.39094","5"],
    [54356,"HCEP03730563","2025-07-16 15:30:00","9.845","3.26838","24.947","4.86","7.69","0.708","0.917","0.53","0.33","29.6441","4.68988","51.87","0","SATNPRO1964","27.844","0.39002","5"],
    [54357,"HCEP03730563","2025-07-16 15:45:00","9.8392","3.26775","25.068","4.814","7.69","0.819","1.979","0.54","0.34","29.6425","4.68975","51.37","0","SATNPRO1964","27.470000000000002","0.38478","5"],
    [54358,"HCEP03730563","2025-07-16 16:00:00","9.8235","3.26579","25.203","4.711","7.68","0.713","2.207","0.23","0.24","29.6357","4.68906","50.25","0","SATNPRO1964","27.236","0.38148","5"],
    [54359,"HCEP03730563","2025-07-16 16:15:00","9.8159","3.26487","25.358","4.6","7.67","1.097","2.91","0.23","0.55","29.6326","4.68876","49.06","0","SATNPRO1964","27.236","0.3815","5"],
    [54360,"HCEP03730563","2025-07-16 16:30:00","9.7986","3.26316","25.527","4.368","7.66","0.795","3.933","0.12","0.34","29.6295","4.68863","46.56","0","SATNPRO1964","26.72","0.37428","5"],
    [54361,"HCEP03730563","2025-07-16 16:45:00","9.7938","3.26276","25.693","4.158","7.64","0.958","4.251","0.34","0.32","29.6294","4.68871","44.32","0","SATNPRO1964","26.378","0.36948","5"],
    [54362,"HCEP03730563","2025-07-16 17:00:00","9.7829","3.26127","25.85","4.097","7.63","1.264","3.973","2.44","0.38","29.6234","4.68804","43.66","0","SATNPRO1964","26.596","0.3725","5"],
    [54363,"HCEP03730563","2025-07-16 17:15:00","9.7891","3.26252","26.013","4.08","7.62","0.853","4.039","0.13","0.29","29.6308","4.689","43.48","0","SATNPRO1964","26.682000000000002","0.37374","5"],
    [54364,"HCEP03730563","2025-07-16 17:30:00","9.7611","3.25902","26.172","3.972","7.62","0.862","2.805","0.22","0.23","29.6185","4.68774","42.3","0","SATNPRO1964","26.552","0.37192","5"],
    [54365,"HCEP03730563","2025-07-16 17:45:00","9.7575","3.25867","26.33","3.877","7.6","1.149","3.718","0.42","0.34","29.6179","4.68772","41.28","0","SATNPRO1964","26.45","0.37044","5"],
    [54366,"HCEP03730563","2025-07-16 18:00:00","9.7512","3.25777","26.505","3.769","7.6","0.98","3.517","0.27","0.47","29.6138","4.68727","40.13","0","SATNPRO1964","26.272","0.368","5"],
    [54367,"HCEP03730563","2025-07-16 18:15:00","9.7618","3.25901","26.71","3.813","7.59","0.95","3.018","0.21","0.26","29.6176","4.68764","40.6","0","SATNPRO1964","26.666","0.3735","5"],
    [54368,"HCEP03730563","2025-07-16 18:30:00","9.7865","3.2619","26.925","4.04","7.6","0.934","3.872","0.23","1.43","29.6262","4.68845","43.05","0","SATNPRO1964","27.194","0.38092","5"],
    [54369,"HCEP03730563","2025-07-16 18:45:00","9.8244","3.26679","27.119","4.416","7.62","0.819","2.129","0.18","0.9","29.6442","4.69038","47.11","0","SATNPRO1964","27.476","0.38486","5"],
    [54370,"HCEP03730563","2025-07-16 19:00:00","9.8246","3.26689","27.271","4.539","7.63","0.868","2.368","0.29","0.3","29.645","4.69049","48.41","0","SATNPRO1964","27.498","0.38516","5"],
    [54371,"HCEP03730563","2025-07-16 19:15:00","9.8257","3.26701","27.414","4.535","7.64","0.932","2.249","0.36","0.17","29.6452","4.69051","48.37","0","SATNPRO1964","27.718","0.38824","5"],
    [54372,"HCEP03730563","2025-07-16 19:30:00","9.8242","3.26685","27.571","4.542","7.64","0.946","2.48","0.63","0.61","29.6448","4.69049","48.45","0","SATNPRO1964","27.714","0.38818","5"],
    [54373,"HCEP03730563","2025-07-16 19:45:00","9.8242","3.26675","27.7","4.549","7.65","2.118","2.241","6.46","1.57","29.6437","4.69035","48.52","0","SATNPRO1964","27.846","0.39002","5"],
    [54374,"HCEP03730563","2025-07-16 20:00:00","9.8218","3.26635","27.797","4.538","7.65","0.856","2.413","0.38","0.97","29.6416","4.69009","48.41","0","SATNPRO1964","27.766000000000002","0.3889","5"],
    [54375,"HCEP03730563","2025-07-16 20:15:00","9.8203","3.26608","27.865","4.53","7.64","0.821","2.002","0.25","0.33","29.6402","4.68991","48.31","0","SATNPRO1964","27.746","0.38864","5"],
    [54376,"HCEP03730563","2025-07-16 20:30:00","9.8161","3.26559","27.908","4.497","7.64","0.732","2.02","0.25","0.48","29.6387","4.68977","47.96","0","SATNPRO1964","27.556","0.386","5"],
    [54377,"HCEP03730563","2025-07-16 20:45:00","9.8175","3.26558","27.938","4.491","7.64","0.796","1.763","0.2","0.15","29.6374","4.68957","47.9","0","SATNPRO1964","27.688","0.38782","5"],
    [54378,"HCEP03730563","2025-07-16 21:00:00","9.8176","3.26547","27.951","4.505","7.64","0.714","1.741","0.24","0.31","29.6362","4.6894","48.04","0","SATNPRO1964","27.701999999999998","0.38802","5"],
    [54379,"HCEP03730563","2025-07-16 21:15:00","9.8184","3.26495","27.929","4.566","7.65","0.863","1.313","0.31","0.16","29.6303","4.68854","48.7","0","SATNPRO1964","27.7","0.38798","5"],
    [54380,"HCEP03730563","2025-07-16 21:30:00","9.8125","3.26473","27.905","4.512","7.64","0.714","1.671","0.16","0.09","29.633","4.68903","48.11","0","SATNPRO1964","27.526","0.38558","5"],
    [54381,"HCEP03730563","2025-07-16 21:45:00","9.8255","3.26553","27.872","4.586","7.65","0.686","1.445","0.13","0.21","29.6303","4.68842","48.91","0","SATNPRO1964","27.978","0.39188","5"],
    [54382,"HCEP03730563","2025-07-16 22:00:00","9.8144","3.26478","27.795","4.574","7.65","0.604","1.505","0.12","0.07","29.632","4.68884","48.77","0","SATNPRO1964","27.582","0.38636","5"],
    [54383,"HCEP03730563","2025-07-16 22:15:00","9.8127","3.26466","27.714","4.475","7.64","0.798","1.581","0.34","0.18","29.6321","4.68888","47.71","0","SATNPRO1964","27.724","0.3883","5"],
    [54384,"HCEP03730563","2025-07-16 22:30:00","9.8205","3.26492","27.636","4.562","7.64","0.675","1.19","0.31","0.1","29.6285","4.68822","48.65","0","SATNPRO1964","28.288","0.39624","5"],
    [54385,"HCEP03730563","2025-07-16 22:45:00","9.8201","3.26533","27.539","4.599","7.65","0.675","1.222","0.29","0.06","29.6329","4.68886","49.05","0","SATNPRO1964","27.998","0.39214","5"],
    [54386,"HCEP03730563","2025-07-16 23:00:00","9.8169","3.265","27.429","4.565","7.65","0.588","1.408","0.1","0.12","29.6323","4.68882","48.68","0","SATNPRO1964","27.91","0.3909","5"],
    [54387,"HCEP03730563","2025-07-16 23:15:00","9.8228","3.26539","27.306","4.6","7.65","0.718","1.074","0.28","0.15","29.6314","4.68858","49.06","0","SATNPRO1964","28.14","0.39412","5"],
    [54388,"HCEP03730563","2025-07-16 23:30:00","9.813","3.26358","27.173","4.627","7.65","0.58","1.215","0.24","0.1","29.6213","4.6873","49.34","0","SATNPRO1964","28.158","0.3944","5"],
    [54389,"HCEP03730563","2025-07-16 23:45:00","9.8173","3.26414","27.042","4.629","7.65","0.636","0.992","0.15","0.08","29.6234","4.68752","49.36","0","SATNPRO1964","28.2","0.39496","5"],
    [54390,"HCEP03730563","2025-07-17 00:00:00","9.812","3.26438","26.903","4.565","7.65","0.69","2.201","0.18","2.91","29.6302","4.68858","48.68","0","SATNPRO1964","28.04","0.39278","5"],
    [54391,"HCEP03730563","2025-07-17 00:15:00","9.8166","3.26443","26.757","4.565","7.65","0.587","1.129","0.1","0.17","29.627","4.68803","48.68","0","SATNPRO1964","28.158","0.39438","5"],
    [54392,"HCEP03730563","2025-07-17 00:30:00","9.8058","3.26341","26.608","4.515","7.64","0.588","1.264","0.17","0.06","29.6257","4.68802","48.14","0","SATNPRO1964","27.89","0.39064","5"],
    [54393,"HCEP03730563","2025-07-17 00:45:00","9.8085","3.26315","26.408","4.531","7.64","0.66","0.913","0.19","0.4","29.621","4.68729","48.31","0","SATNPRO1964","28.594","0.4005","5"],
    [54394,"HCEP03730563","2025-07-17 01:00:00","9.8079","3.26305","26.212","4.603","7.65","0.595","1.047","0.19","0.19","29.6205","4.68722","49.07","0","SATNPRO1964","28.484","0.39894","5"],
    [54395,"HCEP03730563","2025-07-17 01:15:00","9.8072","3.25865","26.026","4.614","7.65","0.625","1.05","0.17","0.35","29.577","4.681","49.17","0","SATNPRO1964","28.44","0.39842","5"],
    [54396,"HCEP03730563","2025-07-17 01:30:00","9.8133","3.2639","25.856","4.63","7.65","0.562","0.866","0.15","0.18","29.6248","4.68772","49.37","0","SATNPRO1964","28.38","0.3975","5"],
    [54397,"HCEP03730563","2025-07-17 01:45:00","9.8109","3.26384","25.663","4.644","7.65","0.603","0.869","0.17","0.41","29.6262","4.68795","49.52","0","SATNPRO1964","28.352","0.39708","5"],
    [54398,"HCEP03730563","2025-07-17 02:00:00","9.8086","3.26399","25.512","4.626","7.65","0.562","1.409","0.11","0.47","29.6297","4.68848","49.32","0","SATNPRO1964","28.394","0.3977","5"],
    [54399,"HCEP03730563","2025-07-17 02:15:00","9.8088","3.26409","25.337","4.584","7.65","0.574","2.01","0.09","0.21","29.6306","4.6886","48.87","0","SATNPRO1964","28.23","0.39538","5"],
    [54400,"HCEP03730563","2025-07-17 02:30:00","9.8108","3.26442","25.179","4.58","7.65","0.682","1.789","0.19","0.4","29.6323","4.6888","48.84","0","SATNPRO1964","28.246","0.39566","5"],
    [54401,"HCEP03730563","2025-07-17 02:45:00","9.8114","3.26449","25.093","4.581","7.65","0.522","1.369","0.11","0.12","29.6326","4.68883","48.85","0","SATNPRO1964","28.256","0.39576","5"],
    [54402,"HCEP03730563","2025-07-17 03:00:00","9.8096","3.26407","25.035","4.573","7.65","0.491","1.3","0.09","0.13","29.6299","4.68847","48.76","0","SATNPRO1964","28.224","0.3953","5"],
    [54403,"HCEP03730563","2025-07-17 03:15:00","9.8091","3.26363","25.004","4.56","7.64","0.964","2.132","0.39","0.23","29.6259","4.6879","48.62","0","SATNPRO1964","28.154","0.39434","5"],
    [54404,"HCEP03730563","2025-07-17 03:30:00","9.8073","3.26399","24.999","4.492","7.64","0.511","1.926","0.08","0.08","29.6309","4.68865","47.89","0","SATNPRO1964","28.01","0.3923","5"],
    [54405,"HCEP03730563","2025-07-17 03:45:00","9.8097","3.2643","25.001","4.457","7.64","0.535","1.844","0.1","0.06","29.6321","4.68878","47.53","0","SATNPRO1964","27.964","0.3917","5"],
    [54406,"HCEP03730563","2025-07-17 04:00:00","9.8094","3.26433","25.021","4.457","7.64","1.113","1.812","0.49","0.06","29.6326","4.68886","47.53","0","SATNPRO1964","28.084","0.39336","5"],
    [54407,"HCEP03730563","2025-07-17 04:15:00","9.8113","3.26458","25.043","4.465","7.64","0.544","1.921","0.08","0.11","29.6336","4.68897","47.61","0","SATNPRO1964","34.058","0.47702","5"],
    [54408,"HCEP03730563","2025-07-17 04:30:00","9.812","3.26472","25.077","4.491","7.64","0.484","1.309","0.13","0.05","29.6344","4.68907","47.89","0","SATNPRO1964","28.238","0.39554","5"],
    [54409,"HCEP03730563","2025-07-17 04:45:00","9.8103","3.26451","25.13","4.482","7.64","0.761","1.591","0.72","0.17","29.6337","4.689","47.79","0","SATNPRO1964","28.112000000000002","0.39378","5"],
    [54410,"HCEP03730563","2025-07-17 05:00:00","9.8111","3.26472","25.205","4.46","7.64","0.547","1.821","0.17","0.08","29.6351","4.68919","47.55","0","SATNPRO1964","28.032","0.39264","5"],
    [54411,"HCEP03730563","2025-07-17 05:15:00","9.8091","3.26437","25.279","4.423","7.63","0.699","2.324","0.3","0.26","29.6332","4.68896","47.16","0","SATNPRO1964","27.926","0.39116","5"],
    [54412,"HCEP03730563","2025-07-17 05:30:00","9.8096","3.26439","25.367","4.367","7.63","0.767","2.881","0.29","0.17","29.6329","4.68892","46.56","0","SATNPRO1964","27.722","0.3883","5"],
    [54413,"HCEP03730563","2025-07-17 05:45:00","9.8102","3.26459","25.463","4.341","7.63","0.701","3.359","0.25","0.32","29.6344","4.68912","46.29","0","SATNPRO1964","27.394","0.38372","5"],
    [54414,"HCEP03730563","2025-07-17 06:00:00","9.8118","3.25605","25.559","4.335","7.62","0.736","2.52","0.36","0.25","29.5473","4.67665","46.2","0","SATNPRO1964","27.574","0.38622","5"],
    [54415,"HCEP03730563","2025-07-17 06:15:00","9.8115","3.26439","25.67","4.459","7.63","0.611","1.47","0.23","0.15","29.6313","4.68866","47.55","0","SATNPRO1964","28.434","0.39828","5"],
    [54416,"HCEP03730563","2025-07-17 06:30:00","9.811","3.26434","25.775","4.508","7.63","0.681","2.267","0.38","0.21","29.6311","4.68866","48.06","0","SATNPRO1964","28.306","0.39652","5"],
    [54417,"HCEP03730563","2025-07-17 06:45:00","9.8095","3.26462","25.878","4.275","7.62","0.726","3.67","0.11","0.35","29.6351","4.68926","45.59","0","SATNPRO1964","26.936","0.3773","5"],
    [54418,"HCEP03730563","2025-07-17 07:00:00","9.8105","3.26473","25.974","4.082","7.61","0.862","3.18","0.51","0.24","29.6354","4.68929","43.52","0","SATNPRO1964","27.438","0.38436","5"],
    [54419,"HCEP03730563","2025-07-17 07:15:00","9.8126","3.26441","26.082","4.246","7.61","0.707","1.71","0.18","0.32","29.6303","4.68854","45.28","0","SATNPRO1964","28.12","0.3939","5"],
    [54420,"HCEP03730563","2025-07-17 07:30:00","9.8099","3.26332","26.196","4.43","7.62","0.624","1.094","0.44","0.31","29.6216","4.68734","47.23","0","SATNPRO1964","28.38","0.39752","5"],
    [54421,"HCEP03730563","2025-07-17 07:45:00","9.8091","3.26363","26.277","4.476","7.63","0.966","21.694","0.96","28.48","29.6253","4.68789","47.72","0","SATNPRO1964","28.398","0.39776","5"],
    [54422,"HCEP03730563","2025-07-17 08:00:00","9.8087","3.26338","26.409","4.492","7.63","0.755","0.897","1.02","0.11","29.6231","4.68759","47.89","0","SATNPRO1964","28.404","0.39784","5"],
    [54423,"HCEP03730563","2025-07-17 08:15:00","9.8061","3.26313","26.5","4.526","7.63","0.43","0.689","0.09","0.07","29.6228","4.68759","48.25","0","SATNPRO1964","28.392","0.39766","5"],
    [54424,"HCEP03730563","2025-07-17 08:30:00","9.8031","3.26294","26.596","4.55","7.64","0.495","0.835","0.2","0.13","29.6233","4.68772","48.5","0","SATNPRO1964","28.63","0.40106","5"],
    [54425,"HCEP03730563","2025-07-17 08:45:00","9.8054","3.26365","26.666","4.514","7.64","0.671","1.709","0.26","0.1","29.6285","4.68843","48.12","0","SATNPRO1964","28.178","0.39466","5"],
    [54426,"HCEP03730563","2025-07-17 09:00:00","9.8027","3.26352","26.704","4.387","7.63","0.736","3.35","0.21","0.32","29.6293","4.6886","46.76","0","SATNPRO1964","28.232","0.39542","5"],
    [54427,"HCEP03730563","2025-07-17 09:15:00","9.8039","3.26381","26.736","4.208","7.62","1.022","4.629","0.52","0.28","29.6313","4.68886","44.86","0","SATNPRO1964","27.614","0.38678","5"],
    [54428,"HCEP03730563","2025-07-17 09:30:00","9.8082","3.26448","26.74","4.162","7.61","1.194","4.266","1.76","0.82","29.6344","4.68923","44.38","0","SATNPRO1964","27.536","0.3857","5"],
    [54429,"HCEP03730563","2025-07-17 09:45:00","9.8105","3.26477","26.762","4.185","7.61","0.793","4.409","0.16","0.32","29.6354","4.68934","44.62","0","SATNPRO1964","27.408","0.38392","5"],
    [54430,"HCEP03730563","2025-07-17 10:00:00","9.8099","3.26476","26.757","4.212","7.61","0.964","3.859","0.91","0.32","29.6358","4.68941","44.91","0","SATNPRO1964","27.554","0.38596","5"],
    [54431,"HCEP03730563","2025-07-17 10:15:00","9.8099","3.26473","26.731","4.248","7.61","0.743","4.026","0.23","0.32","29.6356","4.68938","45.29","0","SATNPRO1964","27.656","0.38738","5"],
    [54432,"HCEP03730563","2025-07-17 10:30:00","9.8097","3.2646","26.689","4.322","7.62","0.61","2.827","0.13","0.46","29.6344","4.68921","46.09","0","SATNPRO1964","28.282","0.39612","5"],
    [54433,"HCEP03730563","2025-07-17 10:45:00","9.8047","3.26394","26.625","4.391","7.62","0.642","2.059","0.19","0.39","29.632","4.68894","46.81","0","SATNPRO1964","28.342","0.39696","5"],
    [54434,"HCEP03730563","2025-07-17 11:00:00","9.7953","3.2625","26.569","4.363","7.62","1.113","1.343","0.78","0.14","29.6253","4.68814","46.5","0","SATNPRO1964","28.236","0.39548","5"],
    [54435,"HCEP03730563","2025-07-17 11:15:00","9.8015","3.26342","26.5","4.314","7.62","0.684","2.106","0.13","0.31","29.6294","4.68862","45.98","0","SATNPRO1964","28.253999999999998","0.39574","5"],
    [54436,"HCEP03730563","2025-07-17 11:30:00","9.8007","3.2632","26.429","4.33","7.62","0.538","1.672","0.25","0.24","29.6279","4.68841","46.16","0","SATNPRO1964","28.344","0.397","5"],
    [54437,"HCEP03730563","2025-07-17 11:45:00","9.8082","3.26422","26.361","4.349","7.62","0.712","1.935","0.49","0.14","29.632","4.68887","46.37","0","SATNPRO1964","28.138","0.39412","5"],
    [54438,"HCEP03730563","2025-07-17 12:00:00","9.8059","3.26366","26.339","4.346","7.62","0.573","1.705","0.14","0.14","29.6282","4.68837","46.33","0","SATNPRO1964","28.076","0.39324","5"],
    [54439,"HCEP03730563","2025-07-17 12:15:00","9.8156","3.2657","26.242","4.301","7.62","0.673","2.955","0.13","0.26","29.6408","4.68999","45.86","0","SATNPRO1964","28.046","0.39288","5"],
    [54440,"HCEP03730563","2025-07-17 12:30:00","9.8114","3.26491","26.155","4.242","7.61","0.656","3.295","0.12","0.28","29.6363","4.68942","45.23","0","SATNPRO1964","27.846","0.39006","5"],
    [54441,"HCEP03730563","2025-07-17 12:45:00","9.8123","3.265","26.066","4.186","7.61","0.695","3.226","0.15","0.3","29.6365","4.68942","44.63","0","SATNPRO1964","27.548000000000002","0.38582","5"],
    [54442,"HCEP03730563","2025-07-17 13:00:00","9.8152","3.26583","26.003","4.092","7.6","0.721","4.631","0.15","0.7","29.6426","4.69023","43.64","0","SATNPRO1964","27.182","0.38072","5"],
    [54443,"HCEP03730563","2025-07-17 13:15:00","9.8155","3.26592","25.873","4.002","7.6","0.776","4.934","0.13","0.34","29.6433","4.69033","42.68","0","SATNPRO1964","26.876","0.37646","5"],
    [54444,"HCEP03730563","2025-07-17 13:30:00","9.8151","3.26583","25.788","3.943","7.59","0.717","4.653","0.09","0.22","29.6427","4.69025","42.05","0","SATNPRO1964","26.648","0.37324","5"],
    [54445,"HCEP03730563","2025-07-17 13:45:00","9.812","3.26556","25.722","3.87","7.58","0.811","4.528","0.41","0.39","29.6426","4.69027","41.27","0","SATNPRO1964","26.658","0.3734","5"],
    [54446,"HCEP03730563","2025-07-17 14:00:00","9.8124","3.26541","25.618","3.799","7.58","0.691","4.972","0.11","0.32","29.6408","4.69001","40.51","0","SATNPRO1964","26.308","0.3685","5"],
    [54447,"HCEP03730563","2025-07-17 14:15:00","9.8147","3.26574","25.546","3.759","7.57","0.955","5.47","0.53","0.77","29.6423","4.69017","40.09","0","SATNPRO1964","26.32","0.36866","5"],
    [54448,"HCEP03730563","2025-07-17 14:30:00","9.8169","3.26607","25.47","3.719","7.57","0.69","5.324","0.15","0.21","29.6438","4.69035","39.67","0","SATNPRO1964","26.344","0.369","5"],
    [54449,"HCEP03730563","2025-07-17 14:45:00","9.8186","3.26636","25.412","3.682","7.57","0.67","5.422","0.08","0.29","29.6454","4.69055","39.27","0","SATNPRO1964","26.232","0.36746","5"],
    [54450,"HCEP03730563","2025-07-17 15:00:00","9.8191","3.26648","25.392","3.637","7.56","0.712","5.874","0.12","0.22","29.6462","4.69065","38.8","0","SATNPRO1964","26.168","0.36652","5"],
    [54451,"HCEP03730563","2025-07-17 15:15:00","9.8198","3.26665","25.4","3.613","7.56","0.771","5.969","0.23","1.05","29.6473","4.69079","38.53","0","SATNPRO1964","25.810000000000002","0.36152","5"],
    [54452,"HCEP03730563","2025-07-17 15:30:00","9.8217","3.26686","25.403","3.673","7.56","0.771","5.298","0.28","0.51","29.6478","4.69083","39.17","0","SATNPRO1964","26.201999999999998","0.36696","5"],
    [54453,"HCEP03730563","2025-07-17 15:45:00","9.823","3.26681","25.465","3.779","7.56","0.652","4.789","0.1","0.17","29.6462","4.69059","40.31","0","SATNPRO1964","26.488","0.37102","5"],
    [54454,"HCEP03730563","2025-07-17 16:00:00","9.8177","3.26591","25.542","4.011","7.58","0.777","3.553","0.32","0.44","29.6415","4.69001","42.78","0","SATNPRO1964","27.216","0.38118","5"],
    [54455,"HCEP03730563","2025-07-17 16:15:00","9.8175","3.2659","25.618","4.089","7.59","0.645","3.079","0.11","0.28","29.6416","4.69003","43.6","0","SATNPRO1964","27.312","0.38256","5"],
    [54456,"HCEP03730563","2025-07-17 16:30:00","9.8192","3.26609","25.677","4.074","7.59","0.581","2.866","0.1","0.18","29.6421","4.69008","43.45","0","SATNPRO1964","27.398","0.38374","5"],
    [54457,"HCEP03730563","2025-07-17 16:45:00","9.8151","3.26551","25.762","4.069","7.59","0.637","2.854","0.11","0.35","29.6395","4.68979","43.39","0","SATNPRO1964","27.302","0.38242","5"],
    [54458,"HCEP03730563","2025-07-17 17:00:00","9.8096","3.2647","25.876","4.036","7.59","0.587","2.695","0.16","0.17","29.6359","4.68937","43.03","0","SATNPRO1964","27.368","0.38334","5"],
    [54459,"HCEP03730563","2025-07-17 17:15:00","9.8071","3.26434","25.994","3.96","7.59","0.695","3.318","0.16","0.36","29.6343","4.68919","42.22","0","SATNPRO1964","26.948","0.37744","5"],
    [54460,"HCEP03730563","2025-07-17 17:30:00","9.8126","3.26559","26.117","3.827","7.58","0.715","4.292","0.14","0.27","29.6422","4.69024","40.81","0","SATNPRO1964","26.476","0.37082","5"],
    [54461,"HCEP03730563","2025-07-17 17:45:00","9.8123","3.26572","26.256","3.708","7.57","0.986","4.85","0.19","0.44","29.6437","4.69046","39.54","0","SATNPRO1964","26.134","0.36604","5"],
    [54462,"HCEP03730563","2025-07-17 18:00:00","9.8068","3.26497","26.403","3.674","7.56","0.716","4.227","0.11","0.29","29.6406","4.69012","39.18","0","SATNPRO1964","26.28","0.36812","5"],
    [54463,"HCEP03730563","2025-07-17 18:15:00","9.8152","3.26603","26.529","3.691","7.56","0.992","4.885","0.19","0.28","29.6444","4.69053","39.37","0","SATNPRO1964","26.436","0.37026","5"],
    [54464,"HCEP03730563","2025-07-17 18:30:00","9.8163","3.26629","26.673","3.723","7.56","0.976","5.245","0.18","0.44","29.646","4.69074","39.71","0","SATNPRO1964","26.176","0.36666","5"],
    [54465,"HCEP03730563","2025-07-17 18:45:00","9.818","3.26655","26.805","3.756","7.56","1.049","5.391","0.18","1.07","29.6472","4.69089","40.06","0","SATNPRO1964","26.302","0.36844","5"],
    [54466,"HCEP03730563","2025-07-17 19:00:00","9.8188","3.26651","26.959","3.852","7.57","0.856","3.525","0.16","0.37","29.6461","4.69073","41.09","0","SATNPRO1964","26.976","0.37784","5"],
    [54467,"HCEP03730563","2025-07-17 19:15:00","9.817","3.26627","27.113","3.908","7.58","0.975","3.889","0.19","0.31","29.6451","4.69063","41.68","0","SATNPRO1964","26.784","0.37516","5"],
    [54468,"HCEP03730563","2025-07-17 19:30:00","9.8152","3.2659","27.259","3.931","7.58","0.889","3.412","0.15","0.41","29.6428","4.69034","41.92","0","SATNPRO1964","27.342","0.38296","5"],
    [54469,"HCEP03730563","2025-07-17 19:45:00","9.8111","3.26504","27.401","3.97","7.58","0.953","3.031","0.15","0.2","29.6375","4.68966","42.34","0","SATNPRO1964","27.716","0.38818","5"],
    [54470,"HCEP03730563","2025-07-17 20:00:00","9.8062","3.26416","27.552","4.034","7.59","0.932","2.636","0.44","0.18","29.6325","4.68904","43.01","0","SATNPRO1964","27.528","0.38556","5"],
    [54471,"HCEP03730563","2025-07-17 20:15:00","9.8034","3.26385","27.685","4.021","7.59","0.887","3.066","0.14","0.54","29.6317","4.68898","42.87","0","SATNPRO1964","27.412000000000003","0.38392","5"],
    [54472,"HCEP03730563","2025-07-17 20:30:00","9.7994","3.2633","27.813","3.989","7.58","0.956","3.159","0.19","0.28","29.6294","4.68873","42.52","0","SATNPRO1964","27.445999999999998","0.38444","5"],
    [54473,"HCEP03730563","2025-07-17 20:45:00","9.7963","3.26282","27.864","3.963","7.58","0.895","3.143","0.19","0.32","29.6271","4.68846","42.24","0","SATNPRO1964","27.55","0.38586","5"],
    [54474,"HCEP03730563","2025-07-17 21:00:00","9.7931","3.26238","27.927","3.951","7.58","0.896","2.907","0.3","0.29","29.6253","4.68826","42.11","0","SATNPRO1964","27.516","0.38542","5"],
    [54475,"HCEP03730563","2025-07-17 21:15:00","9.7878","3.26161","27.967","3.96","7.58","0.963","2.706","0.58","0.48","29.6219","4.68787","42.2","0","SATNPRO1964","27.706","0.38806","5"],
    [54476,"HCEP03730563","2025-07-17 21:30:00","9.7827","3.26102","28.004","3.941","7.58","0.805","2.313","0.14","0.12","29.6201","4.6877","42","0","SATNPRO1964","27.672","0.38758","5"],
    [54477,"HCEP03730563","2025-07-17 21:45:00","9.7768","3.2602","27.993","3.891","7.58","0.77","2.531","0.07","0.1","29.6167","4.68732","41.45","0","SATNPRO1964","27.694","0.3879","5"],
    [54478,"HCEP03730563","2025-07-17 22:00:00","9.7704","3.25949","27.974","3.819","7.57","0.822","2.488","0.13","0.12","29.6149","4.68717","40.68","0","SATNPRO1964","27.588","0.3864","5"],
    [54479,"HCEP03730563","2025-07-17 22:15:00","9.7646","3.25851","27.952","3.744","7.57","0.891","2.611","0.09","0.16","29.6098","4.68654","39.88","0","SATNPRO1964","27.238","0.38148","5"],
    [54480,"HCEP03730563","2025-07-17 22:30:00","9.7648","3.25833","27.898","3.689","7.56","1.054","2.95","0.16","0.14","29.6078","4.68625","39.29","0","SATNPRO1964","27.252","0.3817","5"],
    [54481,"HCEP03730563","2025-07-17 22:45:00","9.7643","3.25787","27.823","3.72","7.56","0.813","1.719","0.09","0.27","29.6036","4.68565","39.62","0","SATNPRO1964","27.782","0.38916","5"],
    [54482,"HCEP03730563","2025-07-17 23:00:00","9.7634","3.25745","27.772","3.786","7.56","0.897","2.018","0.11","0.11","29.6002","4.68517","40.31","0","SATNPRO1964","27.442","0.38438","5"],
    [54483,"HCEP03730563","2025-07-17 23:15:00","9.7552","3.25663","27.639","3.6","7.55","1.011","2.142","0.12","0.09","29.5986","4.68509","38.33","0","SATNPRO1964","27.04","0.37874","5"],
    [54484,"HCEP03730563","2025-07-17 23:30:00","9.7515","3.2559","27.536","3.486","7.54","0.872","1.878","0.12","0.13","29.5944","4.68454","37.12","0","SATNPRO1964","26.966","0.37772","5"],
    [54485,"HCEP03730563","2025-07-17 23:45:00","9.7557","3.25593","27.41","3.461","7.54","1.11","1.866","0.63","0.12","29.5913","4.68402","36.84","0","SATNPRO1964","26.988","0.37804","5"],
    [54486,"HCEP03730563","2025-07-18 00:00:00","9.7542","3.25569","27.268","3.486","7.54","0.981","2.177","0.21","0.11","29.5901","4.68387","37.11","0","SATNPRO1964","27.002","0.37824","5"],
    [54487,"HCEP03730563","2025-07-18 00:15:00","9.7513","3.25499","27.117","3.408","7.53","1.008","2.066","0.25","0.14","29.5856","4.68326","36.28","0","SATNPRO1964","26.78","0.37512","5"],
    [54488,"HCEP03730563","2025-07-18 00:30:00","9.7354","3.25396","26.962","3.221","7.52","0.984","2.074","0.3","0.15","29.5883","4.68392","34.28","0","SATNPRO1964","26.578","0.37224","5"],
    [54489,"HCEP03730563","2025-07-18 00:45:00","9.7395","3.25431","26.793","3.181","7.52","1.072","2.096","0.37","0.24","29.5885","4.68387","33.85","0","SATNPRO1964","27.381999999999998","0.38352","5"],
    [54490,"HCEP03730563","2025-07-18 01:00:00","9.7651","3.25666","26.608","3.521","7.53","1.095","1.862","0.52","0.16","29.5912","4.6838","37.5","0","SATNPRO1964","28.094","0.39354","5"],
    [54491,"HCEP03730563","2025-07-18 01:15:00","9.7572","3.25592","26.426","3.726","7.54","0.859","1.65","0.16","0.27","29.5904","4.6838","39.67","0","SATNPRO1964","27.682","0.38774","5"],
    [54492,"HCEP03730563","2025-07-18 01:30:00","9.7621","3.25665","26.228","3.648","7.54","0.633","1.345","0.16","0.18","29.5938","4.68419","38.85","0","SATNPRO1964","27.73","0.38842","5"],
    [54493,"HCEP03730563","2025-07-18 01:45:00","9.7646","3.25692","26.044","3.72","7.55","0.799","1.378","0.2","0.28","29.5945","4.68425","39.61","0","SATNPRO1964","27.834","0.3898","5"],
    [54494,"HCEP03730563","2025-07-18 02:00:00","9.7652","3.25756","25.842","3.736","7.55","0.698","1.315","0.23","0.06","29.6005","4.68508","39.78","0","SATNPRO1964","27.898","0.39076","5"],
    [54495,"HCEP03730563","2025-07-18 02:15:00","9.7683","3.25533","25.64","3.852","7.56","0.725","1.526","0.15","0.1","29.5756","4.68145","41.02","0","SATNPRO1964","28.162","0.39446","5"],
    [54496,"HCEP03730563","2025-07-18 02:30:00","9.773","3.25873","25.431","3.932","7.57","1.009","1.944","0.9","0.13","29.6061","4.68572","41.88","0","SATNPRO1964","28.454","0.39852","5"],
    [54497,"HCEP03730563","2025-07-18 02:45:00","9.7758","3.25912","25.24","3.968","7.57","0.722","1.738","0.23","0.14","29.6078","4.6859","42.27","0","SATNPRO1964","28.302","0.39642","5"],
    [54498,"HCEP03730563","2025-07-18 03:00:00","9.7769","3.25951","25.087","3.969","7.57","0.717","1.999","0.39","0.2","29.6109","4.68632","42.28","0","SATNPRO1964","28.216","0.3952","5"],
    [54499,"HCEP03730563","2025-07-18 03:15:00","9.7795","3.25992","24.923","3.93","7.57","0.818","1.936","0.43","0.22","29.6129","4.68655","41.87","0","SATNPRO1964","28.166","0.39448","5"],
    [54500,"HCEP03730563","2025-07-18 03:30:00","9.7815","3.2603","24.802","3.938","7.57","0.607","1.742","0.21","0.1","29.6151","4.68682","41.96","0","SATNPRO1964","28.186","0.3948","5"],
    [54501,"HCEP03730563","2025-07-18 03:45:00","9.7876","3.26092","24.719","3.989","7.58","0.543","1.497","0.13","0.3","29.6164","4.6869","42.51","0","SATNPRO1964","28.246","0.39564","5"],
    [54502,"HCEP03730563","2025-07-18 04:00:00","9.7825","3.26058","24.686","3.917","7.58","0.767","3.53","0.19","0.22","29.6173","4.68711","41.74","0","SATNPRO1964","28.054","0.39294","5"],
    [54503,"HCEP03730563","2025-07-18 04:15:00","9.7828","3.26075","24.664","3.795","7.57","0.792","2.839","0.26","0.14","29.6187","4.6873","40.43","0","SATNPRO1964","28.138","0.39416","5"],
    [54504,"HCEP03730563","2025-07-18 04:30:00","9.7918","3.26155","24.653","3.907","7.57","0.476","1.559","0.11","0.25","29.6193","4.68724","41.63","0","SATNPRO1964","28.424","0.39814","5"],
    [54505,"HCEP03730563","2025-07-18 04:45:00","9.786","3.26115","24.654","3.894","7.57","0.553","2.452","0.06","0.06","29.62","4.68744","41.49","0","SATNPRO1964","28.176000000000002","0.39468","5"],
    [54506,"HCEP03730563","2025-07-18 05:00:00","9.7878","3.26134","24.674","3.803","7.57","4.313","2.733","8.23","0.23","29.6205","4.68747","40.53","0","SATNPRO1964","27.954","0.39152","5"],
    [54507,"HCEP03730563","2025-07-18 05:15:00","9.7818","3.26064","24.707","3.734","7.56","0.541","2.628","0.02","0.07","29.6184","4.68729","39.79","0","SATNPRO1964","27.48","0.3849","5"],
    [54508,"HCEP03730563","2025-07-18 05:30:00","9.7791","3.26033","24.757","3.612","7.55","1.634","3.559","2.24","0.27","29.6175","4.68721","38.48","0","SATNPRO1964","27.222","0.3813","5"],
    [54509,"HCEP03730563","2025-07-18 05:45:00","9.78","3.26046","24.817","3.58","7.55","0.818","3.324","0.31","0.15","29.6179","4.68725","38.14","0","SATNPRO1964","27.03","0.3786","5"],
    [54510,"HCEP03730563","2025-07-18 06:00:00","9.7808","3.26058","24.897","3.59","7.55","0.79","3.321","0.51","0.45","29.6186","4.68734","38.25","0","SATNPRO1964","27.298000000000002","0.3824","5"],
    [54511,"HCEP03730563","2025-07-18 06:15:00","9.7799","3.26041","24.992","3.621","7.55","0.841","2.976","0.35","0.24","29.6175","4.68721","38.58","0","SATNPRO1964","27.224","0.38134","5"],
    [54512,"HCEP03730563","2025-07-18 06:30:00","9.7776","3.26004","25.097","3.633","7.55","0.752","3.232","0.19","0.25","29.6156","4.68699","38.7","0","SATNPRO1964","27.422","0.3841","5"],
    [54513,"HCEP03730563","2025-07-18 06:45:00","9.7751","3.25971","25.199","3.618","7.55","0.869","3.273","0.3","0.2","29.6144","4.68685","38.54","0","SATNPRO1964","27.236","0.38146","5"],
    [54514,"HCEP03730563","2025-07-18 07:00:00","9.7735","3.25943","25.318","3.606","7.55","0.685","2.862","0.13","0.17","29.6128","4.68666","38.41","0","SATNPRO1964","27.268","0.38194","5"],
    [54515,"HCEP03730563","2025-07-18 07:15:00","9.7747","3.25924","25.425","3.66","7.55","0.777","2.331","0.16","0.22","29.6098","4.68623","38.99","0","SATNPRO1964","27.526","0.38554","5"],
    [54516,"HCEP03730563","2025-07-18 07:30:00","9.777","3.25921","25.564","3.777","7.55","0.759","2.027","0.51","0.23","29.6076","4.68587","40.23","0","SATNPRO1964","27.956","0.39156","5"],
    [54517,"HCEP03730563","2025-07-18 07:45:00","9.7756","3.25892","25.694","3.773","7.56","1.194","2.271","1.22","0.4","29.6057","4.68564","40.19","0","SATNPRO1964","27.754","0.38872","5"],
    [54518,"HCEP03730563","2025-07-18 08:00:00","9.7798","3.25896","25.803","3.817","7.56","0.705","1.596","0.19","0.13","29.6027","4.68513","40.66","0","SATNPRO1964","28.026","0.39256","5"],
    [54519,"HCEP03730563","2025-07-18 08:15:00","9.7781","3.25902","25.923","3.813","7.56","0.814","2.822","0.19","0.28","29.6047","4.68546","40.62","0","SATNPRO1964","27.944","0.39142","5"],
    [54520,"HCEP03730563","2025-07-18 08:30:00","9.7807","3.25933","26.055","3.838","7.56","0.744","1.786","0.28","0.12","29.6056","4.68555","40.88","0","SATNPRO1964","28.228","0.39538","5"],
    [54521,"HCEP03730563","2025-07-18 08:45:00","9.782","3.25924","26.179","3.911","7.57","0.79","1.83","0.2","0.27","29.6035","4.68524","41.67","0","SATNPRO1964","28.296","0.39632","5"],
    [54522,"HCEP03730563","2025-07-18 09:00:00","9.7914","3.26225","26.336","3.751","7.56","0.96","5.614","0.22","0.36","29.626","4.6883","39.97","0","SATNPRO1964","27.156","0.38038","5"],
    [54523,"HCEP03730563","2025-07-18 09:15:00","9.802","3.26378","26.454","3.515","7.55","0.852","5.691","0.12","0.35","29.6327","4.68908","37.47","0","SATNPRO1964","26.566","0.37212","5"],
    [54524,"HCEP03730563","2025-07-18 09:30:00","9.8096","3.26502","26.545","3.486","7.54","0.956","5.964","0.26","0.4","29.6388","4.68983","37.17","0","SATNPRO1964","26.394","0.3697","5"],
    [54525,"HCEP03730563","2025-07-18 09:45:00","9.8113","3.26532","26.613","3.465","7.54","1.023","6.074","0.35","0.32","29.6404","4.69003","36.94","0","SATNPRO1964","26.098","0.36556","5"],
    [54526,"HCEP03730563","2025-07-18 10:00:00","9.8053","3.26431","26.662","3.496","7.54","0.912","5.433","0.19","0.8","29.6352","4.68939","37.27","0","SATNPRO1964","26.694","0.3739","5"],
    [54527,"HCEP03730563","2025-07-18 10:15:00","9.7995","3.26342","26.738","3.541","7.54","0.982","4.795","0.14","0.43","29.6309","4.68888","37.75","0","SATNPRO1964","26.972","0.37784","5"],
    [54528,"HCEP03730563","2025-07-18 10:30:00","9.8039","3.26415","26.765","3.494","7.54","0.954","5.474","0.18","0.44","29.6346","4.68934","37.25","0","SATNPRO1964","26.546","0.37182","5"],
    [54529,"HCEP03730563","2025-07-18 10:45:00","9.8055","3.26436","26.78","3.452","7.54","1.018","5.706","0.21","0.62","29.6355","4.68943","36.8","0","SATNPRO1964","26.25","0.36768","5"],
    [54530,"HCEP03730563","2025-07-18 11:00:00","9.8075","3.26484","26.815","3.456","7.53","1.04","5.938","0.26","0.52","29.6386","4.68985","36.85","0","SATNPRO1964","26.384","0.36954","5"],
    [54531,"HCEP03730563","2025-07-18 11:15:00","9.8035","3.26404","26.826","3.473","7.53","0.969","4.937","0.32","0.53","29.6339","4.68924","37.03","0","SATNPRO1964","26.624","0.37292","5"],
    [54532,"HCEP03730563","2025-07-18 11:30:00","9.8001","3.26359","26.813","3.502","7.54","0.865","4.518","0.2","0.59","29.6321","4.68905","37.33","0","SATNPRO1964","26.664","0.3735","5"],
    [54533,"HCEP03730563","2025-07-18 11:45:00","9.7906","3.26222","26.792","3.462","7.53","0.864","4.423","0.32","0.57","29.6263","4.68838","36.9","0","SATNPRO1964","26.602","0.37258","5"],
    [54534,"HCEP03730563","2025-07-18 12:00:00","9.785","3.26143","26.739","3.38","7.53","0.817","4.315","0.17","0.41","29.6228","4.68798","36.01","0","SATNPRO1964","26.598","0.37254","5"],
    [54535,"HCEP03730563","2025-07-18 12:15:00","9.7778","3.26038","26.764","3.353","7.53","0.777","4.278","0.19","1.23","29.6182","4.68744","35.72","0","SATNPRO1964","26.644","0.37318","5"],
    [54536,"HCEP03730563","2025-07-18 12:30:00","9.7747","3.25992","26.707","3.351","7.52","0.885","4.277","0.25","0.38","29.6162","4.68721","35.7","0","SATNPRO1964","26.838","0.37592","5"],
    [54537,"HCEP03730563","2025-07-18 12:45:00","9.7784","3.26038","26.655","3.345","7.52","0.827","4.058","0.33","0.63","29.6178","4.68737","35.64","0","SATNPRO1964","26.608","0.37272","5"],
    [54538,"HCEP03730563","2025-07-18 13:00:00","9.7847","3.26134","26.586","3.371","7.52","0.868","4.872","0.16","0.46","29.6223","4.6879","35.92","0","SATNPRO1964","26.78","0.37508","5"],
    [54539,"HCEP03730563","2025-07-18 13:15:00","9.7837","3.26107","26.562","3.374","7.52","0.905","4.462","0.23","0.46","29.6204","4.68765","35.95","0","SATNPRO1964","26.644","0.37318","5"],
    [54540,"HCEP03730563","2025-07-18 13:30:00","9.785","3.26132","26.514","3.351","7.52","0.925","4.637","0.31","0.51","29.6218","4.68782","35.71","0","SATNPRO1964","26.704","0.37402","5"],
    [54541,"HCEP03730563","2025-07-18 13:45:00","9.7836","3.26119","26.46","3.336","7.52","0.742","3.879","0.12","0.29","29.6217","4.68783","35.54","0","SATNPRO1964","26.528","0.3716","5"],
    [54542,"HCEP03730563","2025-07-18 14:00:00","9.7852","3.26138","26.406","3.326","7.52","0.858","4.598","0.32","0.39","29.6224","4.6879","35.44","0","SATNPRO1964","26.428","0.37022","5"],
    [54543,"HCEP03730563","2025-07-18 14:15:00","9.7811","3.26079","26.351","3.302","7.52","0.802","4.749","0.1","0.43","29.6197","4.68758","35.18","0","SATNPRO1964","26.616","0.37276","5"],
    [54544,"HCEP03730563","2025-07-18 14:30:00","9.7759","3.26001","26.301","3.275","7.52","0.726","4.697","0.11","0.5","29.6162","4.68716","34.89","0","SATNPRO1964","26.548","0.37188","5"],
    [54545,"HCEP03730563","2025-07-18 14:45:00","9.7594","3.25779","26.241","3.192","7.51","0.721","4.474","0.09","0.45","29.6075","4.6862","33.99","0","SATNPRO1964","26.566000000000003","0.3721","5"],
    [54546,"HCEP03730563","2025-07-18 15:00:00","9.7367","3.25494","26.179","3.014","7.5","0.847","4.358","0.39","0.4","29.5975","4.68516","32.07","0","SATNPRO1964","26.586","0.37236","5"],
    [54547,"HCEP03730563","2025-07-18 15:15:00","9.7131","3.2525","26.116","2.81","7.49","0.758","4.405","0.1","0.41","29.5923","4.68483","29.89","0","SATNPRO1964","26.646","0.37322","5"],
    [54548,"HCEP03730563","2025-07-18 15:30:00","9.7031","3.25056","26.083","2.639","7.47","0.791","4.447","0.08","0.26","29.581","4.68339","28.06","0","SATNPRO1964","26.53","0.37162","5"],
    [54549,"HCEP03730563","2025-07-18 15:45:00","9.6998","3.2504","26.044","2.518","7.46","0.852","4.301","0.33","1.04","29.5821","4.68359","26.78","0","SATNPRO1964","26.52","0.37144","5"],
    [54550,"HCEP03730563","2025-07-18 16:00:00","9.6958","3.24978","26.035","2.473","7.45","0.819","4.466","0.14","0.96","29.5792","4.68325","26.3","0","SATNPRO1964","26.274","0.36804","5"],
    [54551,"HCEP03730563","2025-07-18 16:15:00","9.6938","3.24945","26.009","2.423","7.45","0.886","3.877","0.32","0.32","29.5775","4.68304","25.76","0","SATNPRO1964","26.274","0.36802","5"],
    [54552,"HCEP03730563","2025-07-18 16:30:00","9.6925","3.24928","26.017","2.382","7.44","0.977","4.198","0.34","0.39","29.5768","4.68296","25.32","0","SATNPRO1964","26.05","0.36486","5"],
    [54553,"HCEP03730563","2025-07-18 16:45:00","9.6916","3.24914","26.066","2.35","7.44","1.029","4.342","0.55","0.45","29.5762","4.6829","24.98","0","SATNPRO1964","26.238","0.36752","5"],
    [54554,"HCEP03730563","2025-07-18 17:00:00","9.688","3.24878","26.117","2.317","7.44","0.841","3.869","0.13","0.36","29.5755","4.68286","24.63","0","SATNPRO1964","26.258","0.36778","5"],
    [54555,"HCEP03730563","2025-07-18 17:15:00","9.6852","3.24838","26.172","2.282","7.43","0.853","3.546","0.22","0.48","29.5737","4.68266","24.26","0","SATNPRO1964","26.038","0.36468","5"],
    [54556,"HCEP03730563","2025-07-18 17:30:00","9.6815","3.24794","26.233","2.247","7.43","0.778","3.119","0.16","0.45","29.5722","4.68252","23.88","0","SATNPRO1964","25.846","0.36206","5"],
    [54557,"HCEP03730563","2025-07-18 17:45:00","9.6794","3.24765","26.313","2.209","7.43","0.794","2.932","0.14","0.24","29.5711","4.68239","23.47","0","SATNPRO1964","25.971999999999998","0.3638","5"],
    [54558,"HCEP03730563","2025-07-18 18:00:00","9.6796","3.24771","26.381","2.186","7.42","0.953","3.225","0.77","0.78","29.5714","4.68244","23.24","0","SATNPRO1964","25.913999999999998","0.36298","5"],
    [54559,"HCEP03730563","2025-07-18 18:15:00","9.6808","3.24785","26.457","2.183","7.42","0.875","2.731","0.52","0.24","29.5718","4.68248","23.2","0","SATNPRO1964","26.068","0.36512","5"],
    [54560,"HCEP03730563","2025-07-18 18:30:00","9.6839","3.24814","26.615","2.193","7.42","0.769","3.383","0.17","0.2","29.5722","4.68249","23.3","0","SATNPRO1964","25.954","0.36352","5"],
    [54561,"HCEP03730563","2025-07-18 18:45:00","9.6801","3.2477","26.703","2.169","7.42","0.901","3.417","0.31","0.34","29.5708","4.68236","23.05","0","SATNPRO1964","25.83","0.36176","5"],
    [54562,"HCEP03730563","2025-07-18 19:00:00","9.6815","3.24787","26.826","2.159","7.42","0.716","2.578","0.13","0.45","29.5714","4.68243","22.95","0","SATNPRO1964","25.919999999999998","0.36306","5"],
    [54563,"HCEP03730563","2025-07-18 19:15:00","9.6797","3.24765","26.917","2.167","7.42","0.762","2.41","0.13","0.26","29.5705","4.68235","23.03","0","SATNPRO1964","26.002","0.36422","5"],
    [54564,"HCEP03730563","2025-07-18 19:30:00","9.6771","3.24731","27.062","2.141","7.42","0.769","2.693","0.12","0.19","29.5692","4.6822","22.76","0","SATNPRO1964","25.919999999999998","0.36306","5"],
    [54565,"HCEP03730563","2025-07-18 19:45:00","9.6774","3.24735","27.163","2.124","7.42","0.74","2.446","0.12","0.1","29.5693","4.68222","22.58","0","SATNPRO1964","25.962","0.36362","5"],
    [54566,"HCEP03730563","2025-07-18 20:00:00","9.6782","3.24746","27.248","2.144","7.42","0.752","2.54","0.11","0.23","29.5697","4.68228","22.79","0","SATNPRO1964","25.96","0.36362","5"],
    [54567,"HCEP03730563","2025-07-18 20:15:00","9.6787","3.24748","27.377","2.149","7.42","0.907","2.709","0.37","0.59","29.5695","4.68224","22.84","0","SATNPRO1964","26.006","0.36424","5"],
    [54568,"HCEP03730563","2025-07-18 20:30:00","9.6772","3.24733","27.469","2.144","7.42","0.773","2.833","0.17","0.18","29.5691","4.68221","22.79","0","SATNPRO1964","25.954","0.36352","5"],
    [54569,"HCEP03730563","2025-07-18 20:45:00","9.6768","3.24723","27.611","2.134","7.41","0.776","2.852","0.12","0.19","29.5685","4.68214","22.68","0","SATNPRO1964","25.894","0.36266","5"],
    [54570,"HCEP03730563","2025-07-18 21:00:00","9.678","3.24725","27.683","2.121","7.41","0.812","3.683","0.11","0.86","29.5676","4.682","22.54","0","SATNPRO1964","25.944","0.36342","5"],
    [54571,"HCEP03730563","2025-07-18 21:15:00","9.6798","3.24753","27.764","2.129","7.41","0.81","3.332","0.1","0.45","29.569","4.68217","22.62","0","SATNPRO1964","26.03","0.3646","5"],
    [54572,"HCEP03730563","2025-07-18 21:30:00","9.6793","3.24748","27.857","2.146","7.41","0.689","2.715","0.07","0.21","29.5688","4.68215","22.81","0","SATNPRO1964","26.132","0.36602","5"],
    [54573,"HCEP03730563","2025-07-18 21:45:00","9.6845","3.24812","27.922","2.169","7.42","0.781","3.307","0.06","0.33","29.5709","4.68237","23.05","0","SATNPRO1964","26.076","0.36522","5"],
    [54574,"HCEP03730563","2025-07-18 22:00:00","9.6927","3.24922","27.95","2.213","7.42","0.842","3.524","0.12","0.12","29.5753","4.68285","23.52","0","SATNPRO1964","25.948","0.36344","5"],
    [54575,"HCEP03730563","2025-07-18 22:15:00","9.7007","3.25036","27.971","2.289","7.42","0.876","3.895","0.17","0.26","29.5801","4.68341","24.34","0","SATNPRO1964","25.962","0.36366","5"],
    [54576,"HCEP03730563","2025-07-18 22:30:00","9.7191","3.25278","27.98","2.408","7.43","0.836","4.083","0.13","0.14","29.5894","4.68442","25.62","0","SATNPRO1964","25.982","0.36396","5"],
    [54577,"HCEP03730563","2025-07-18 22:45:00","9.7201","3.25276","27.962","2.515","7.44","0.788","3.719","0.11","0.33","29.5885","4.68427","26.76","0","SATNPRO1964","26.169999999999998","0.36652","5"],
    [54578,"HCEP03730563","2025-07-18 23:00:00","9.7414","3.25548","27.927","2.661","7.45","0.768","3.952","0.08","0.38","29.5984","4.68531","28.32","0","SATNPRO1964","26.246000000000002","0.36764","5"],
    [54579,"HCEP03730563","2025-07-18 23:15:00","9.7392","3.25496","27.894","2.759","7.45","0.793","3.799","0.09","0.3","29.5949","4.68485","29.36","0","SATNPRO1964","26.244","0.36762","5"],
    [54580,"HCEP03730563","2025-07-18 23:30:00","9.7602","3.25799","27.829","2.835","7.46","0.763","4.218","0.08","0.21","29.6082","4.68638","30.19","0","SATNPRO1964","26.204","0.36702","5"],
    [54581,"HCEP03730563","2025-07-18 23:45:00","9.7668","3.25883","27.737","2.943","7.47","0.808","4.244","0.09","0.33","29.6112","4.68669","31.34","0","SATNPRO1964","26.178","0.36664","5"],
    [54582,"HCEP03730563","2025-07-19 00:00:00","9.7696","3.25923","27.645","2.997","7.48","0.72","4.079","0.07","0.14","29.613","4.6869","31.92","0","SATNPRO1964","26.178","0.36668","5"],
    [54583,"HCEP03730563","2025-07-19 00:15:00","9.7695","3.2592","27.509","3.015","7.48","0.781","3.523","0.13","0.11","29.6128","4.68686","32.11","0","SATNPRO1964","26.137999999999998","0.36612","5"],
    [54584,"HCEP03730563","2025-07-19 00:30:00","9.7732","3.2597","27.37","3.042","7.48","0.769","3.463","0.16","0.24","29.6148","4.68708","32.41","0","SATNPRO1964","26.404","0.36988","5"],
    [54585,"HCEP03730563","2025-07-19 00:45:00","9.766","3.25849","27.247","3.073","7.49","0.796","2.859","0.42","0.22","29.6087","4.68632","32.73","0","SATNPRO1964","26.494","0.3711","5"],
    [54586,"HCEP03730563","2025-07-19 01:00:00","9.7765","3.26005","27.092","3.1","7.49","0.728","3.437","0.11","0.29","29.6159","4.68715","33.03","0","SATNPRO1964","26.408","0.36986","5"],
    [54587,"HCEP03730563","2025-07-19 01:15:00","9.7702","3.25905","26.928","3.123","7.49","0.794","2.831","0.39","0.91","29.611","4.68656","33.26","0","SATNPRO1964","26.78","0.37508","5"],
    [54588,"HCEP03730563","2025-07-19 01:30:00","9.7765","3.2598","26.726","3.149","7.5","0.697","3.479","0.08","0.63","29.6135","4.6868","33.54","0","SATNPRO1964","26.602","0.37264","5"],
    [54589,"HCEP03730563","2025-07-19 01:45:00","9.7765","3.25946","26.544","3.173","7.5","0.607","2.249","0.06","0.36","29.6101","4.68629","33.8","0","SATNPRO1964","26.714000000000002","0.37418","5"],
    [54590,"HCEP03730563","2025-07-19 02:00:00","9.7775","3.25955","26.338","3.182","7.5","0.665","2.429","0.11","0.15","29.6103","4.6863","33.9","0","SATNPRO1964","26.674","0.37362","5"],
    [54591,"HCEP03730563","2025-07-19 02:15:00","9.7765","3.25912","26.151","3.191","7.5","0.669","2.25","0.14","0.46","29.6068","4.68581","33.99","0","SATNPRO1964","26.768","0.37494","5"],
    [54592,"HCEP03730563","2025-07-19 02:30:00","9.7758","3.25901","25.948","3.206","7.5","10.047","708.902","3.77","291","29.6065","4.68575","34.15","0","SATNPRO1964","26.834","0.37584","5"],
    [54593,"HCEP03730563","2025-07-19 02:45:00","9.7753","3.25896","25.724","3.207","7.5","15.64","920.87","0.63","116.78","29.6064","4.68574","34.16","0","SATNPRO1964","26.574","0.37216","5"],
    [54594,"HCEP03730563","2025-07-19 03:00:00","9.7757","3.25905","25.519","3.188","7.5","11.879","788.149","0.67","87.29","29.607","4.68581","33.96","0","SATNPRO1964","26.919999999999998","0.377","5"],
    [54595,"HCEP03730563","2025-07-19 03:15:00","9.7744","3.25851","25.294","3.206","7.5","10.936","635.506","0.39","76.54","29.6028","4.68521","34.15","0","SATNPRO1964","26.676","0.37364","5"],
    [54596,"HCEP03730563","2025-07-19 03:30:00","9.775","3.25882","25.103","3.212","7.5","0.659","2.943","0.08","0.56","29.6056","4.68559","34.21","0","SATNPRO1964","26.546","0.37182","5"],
    [54597,"HCEP03730563","2025-07-19 03:45:00","9.7751","3.25901","24.929","3.176","7.5","0.703","3.201","0.09","0.31","29.6074","4.68584","33.83","0","SATNPRO1964","26.586","0.3724","5"],
    [54598,"HCEP03730563","2025-07-19 04:00:00","9.7752","3.25902","24.787","3.152","7.5","0.688","3.512","0.11","0.19","29.6074","4.68583","33.57","0","SATNPRO1964","26.526","0.37152","5"],
    [54599,"HCEP03730563","2025-07-19 04:15:00","9.7751","3.25899","24.662","3.136","7.5","0.747","3.771","0.1","0.41","29.6073","4.68582","33.41","0","SATNPRO1964","26.472","0.3708","5"],
    [54600,"HCEP03730563","2025-07-19 04:30:00","9.7719","3.25775","24.563","3.201","7.5","0.707","2.547","0.34","0.39","29.5975","4.68446","34.09","0","SATNPRO1964","26.862000000000002","0.37628","5"],
    [54601,"HCEP03730563","2025-07-19 04:45:00","9.7748","3.25901","24.497","3.181","7.5","0.819","4.553","0.18","0.75","29.6078","4.68587","33.89","0","SATNPRO1964","26.31","0.36852","5"],
    [54602,"HCEP03730563","2025-07-19 05:00:00","9.7746","3.25887","24.432","3.146","7.5","0.736","3.695","0.2","0.28","29.6066","4.6857","33.51","0","SATNPRO1964","26.657999999999998","0.3734","5"],
    [54603,"HCEP03730563","2025-07-19 05:15:00","9.775","3.25918","24.415","3.114","7.5","0.837","4.661","0.14","0.37","29.6094","4.68611","33.17","0","SATNPRO1964","26.184","0.36672","5"],
    [54604,"HCEP03730563","2025-07-19 05:30:00","9.7744","3.25889","24.403","3.099","7.5","0.842","4.085","0.18","0.47","29.607","4.68576","33.01","0","SATNPRO1964","26.264","0.36788","5"],
    [54605,"HCEP03730563","2025-07-19 05:45:00","9.7703","3.2582","24.42","3.117","7.5","0.807","3.51","0.16","0.29","29.6034","4.68532","33.2","0","SATNPRO1964","26.66","0.37338","5"],
    [54606,"HCEP03730563","2025-07-19 06:00:00","9.7721","3.25832","24.414","3.108","7.5","0.867","3.865","0.22","0.25","29.6032","4.68526","33.11","0","SATNPRO1964","26.456","0.37054","5"],
    [54607,"HCEP03730563","2025-07-19 06:15:00","9.7712","3.25796","24.42","3.093","7.5","0.844","3.851","0.13","0.28","29.6003","4.68486","32.94","0","SATNPRO1964","26.274","0.36802","5"],
    [54608,"HCEP03730563","2025-07-19 06:30:00","9.7698","3.25759","24.469","3.131","7.5","0.799","2.978","0.15","0.32","29.5976","4.6845","33.35","0","SATNPRO1964","26.758","0.37478","5"],
    [54609,"HCEP03730563","2025-07-19 06:45:00","9.7692","3.25699","24.533","3.01","7.49","1.18","3.711","0.2","0.33","29.5921","4.68373","32.05","0","SATNPRO1964","26.006","0.36424","5"],
    [54610,"HCEP03730563","2025-07-19 07:00:00","9.7681","3.25694","24.608","2.854","7.48","1.185","3.581","0.38","0.48","29.5924","4.68379","30.39","0","SATNPRO1964","25.864","0.3623","5"],
    [54611,"HCEP03730563","2025-07-19 07:15:00","9.7654","3.25676","24.684","2.805","7.48","1.212","3.328","0.31","0.27","29.5928","4.68391","29.87","0","SATNPRO1964","25.798","0.36132","5"],
    [54612,"HCEP03730563","2025-07-19 07:30:00","9.7638","3.25671","24.777","2.794","7.48","1.017","3.66","0.16","0.29","29.5936","4.68405","29.75","0","SATNPRO1964","25.868","0.36234","5"],
    [54613,"HCEP03730563","2025-07-19 07:45:00","9.7599","3.25645","24.917","2.78","7.47","1.069","3.23","0.26","0.23","29.5941","4.6842","29.6","0","SATNPRO1964","25.87","0.36234","5"],
    [54614,"HCEP03730563","2025-07-19 08:00:00","9.759","3.25642","25.032","2.755","7.47","1.141","3.661","0.27","0.32","29.5945","4.68428","29.33","0","SATNPRO1964","25.68","0.35968","5"],
    [54615,"HCEP03730563","2025-07-19 08:15:00","9.7608","3.25665","25.166","2.741","7.47","1.06","3.473","0.19","0.27","29.5953","4.68437","29.19","0","SATNPRO1964","25.66","0.35944","5"],
    [54616,"HCEP03730563","2025-07-19 08:30:00","9.7618","3.25673","25.294","2.729","7.47","1.036","3.278","0.36","0.27","29.5952","4.68435","29.05","0","SATNPRO1964","25.768","0.36092","5"],
    [54617,"HCEP03730563","2025-07-19 08:45:00","9.7838","3.25907","25.441","2.858","7.47","1.04","3.585","0.23","0.43","29.6006","4.68474","30.45","0","SATNPRO1964","26.132","0.36602","5"],
    [54618,"HCEP03730563","2025-07-19 09:00:00","9.7946","3.26034","25.603","3.068","7.49","0.846","2.834","0.14","0.22","29.6044","4.68512","32.7","0","SATNPRO1964","26.416","0.37002","5"],
    [54619,"HCEP03730563","2025-07-19 09:15:00","9.7957","3.26047","25.758","3.163","7.5","0.891","2.584","0.17","0.24","29.6048","4.68516","33.71","0","SATNPRO1964","26.558","0.37198","5"],
    [54620,"HCEP03730563","2025-07-19 09:30:00","9.7716","3.25776","25.954","2.994","7.49","1.044","3.84","0.2","0.26","29.5972","4.68451","31.89","0","SATNPRO1964","25.778","0.36108","5"],
    [54621,"HCEP03730563","2025-07-19 09:45:00","9.7545","3.25626","26.159","2.768","7.48","0.94","3.084","0.13","0.18","29.5961","4.68466","29.47","0","SATNPRO1964","25.566","0.35806","5"],
    [54622,"HCEP03730563","2025-07-19 10:00:00","9.7508","3.25596","26.299","2.691","7.47","0.94","3.982","0.23","0.47","29.5961","4.68473","28.65","0","SATNPRO1964","25.792","0.36126","5"],
    [54623,"HCEP03730563","2025-07-19 10:15:00","9.7495","3.25583","26.459","2.689","7.47","0.87","3.281","0.13","0.24","29.5958","4.68471","28.63","0","SATNPRO1964","25.73","0.36044","5"],
    [54624,"HCEP03730563","2025-07-19 10:30:00","9.7502","3.25596","26.558","2.709","7.47","0.822","3.574","0.13","0.21","29.5965","4.6848","28.84","0","SATNPRO1964","25.8","0.36134","5"],
    [54625,"HCEP03730563","2025-07-19 10:45:00","9.7527","3.25611","26.635","2.75","7.47","0.942","4.495","0.23","1.06","29.5959","4.68469","29.27","0","SATNPRO1964","25.896","0.36272","5"],
    [54626,"HCEP03730563","2025-07-19 11:00:00","9.7545","3.25614","26.728","2.757","7.47","0.942","3.768","0.39","0.36","29.5947","4.68449","29.36","0","SATNPRO1964","25.796","0.36136","5"],
    [54627,"HCEP03730563","2025-07-19 11:15:00","9.7574","3.25611","26.817","2.746","7.47","0.875","3.776","0.12","0.36","29.592","4.68405","29.23","0","SATNPRO1964","25.838","0.36188","5"],
    [54628,"HCEP03730563","2025-07-19 11:30:00","9.7596","3.25615","26.895","2.754","7.47","0.843","8.226","0.15","4.66","29.5905","4.68381","29.33","0","SATNPRO1964","25.718","0.3602","5"],
    [54629,"HCEP03730563","2025-07-19 11:45:00","9.7599","3.25599","26.933","2.771","7.47","0.896","3.581","0.23","0.41","29.5887","4.68355","29.51","0","SATNPRO1964","25.96","0.36362","5"],
    [54630,"HCEP03730563","2025-07-19 12:00:00","9.7616","3.25604","26.978","2.808","7.47","0.734","3.127","0.13","0.18","29.5878","4.68339","29.9","0","SATNPRO1964","26.048000000000002","0.36484","5"],
    [54631,"HCEP03730563","2025-07-19 12:15:00","9.7628","3.25622","27.015","2.807","7.47","0.856","3.469","0.24","0.37","29.5886","4.68349","29.89","0","SATNPRO1964","25.972","0.36378","5"],
    [54632,"HCEP03730563","2025-07-19 12:30:00","9.7633","3.25619","27.011","2.799","7.47","0.745","3.587","0.12","0.29","29.5879","4.68337","29.8","0","SATNPRO1964","26.114","0.3658","5"],
    [54633,"HCEP03730563","2025-07-19 12:45:00","9.762","3.25619","27.056","2.778","7.47","0.84","3.684","0.2","0.36","29.589","4.68355","29.58","0","SATNPRO1964","25.976","0.36384","5"],
    [54634,"HCEP03730563","2025-07-19 13:00:00","9.7605","3.25628","27.063","2.762","7.47","0.869","3.99","0.26","0.32","29.5911","4.68389","29.41","0","SATNPRO1964","25.928","0.36318","5"],
    [54635,"HCEP03730563","2025-07-19 13:15:00","9.7613","3.25664","27.021","2.8","7.47","0.833","4.056","0.15","0.32","29.5941","4.68429","29.82","0","SATNPRO1964","26.186","0.36678","5"],
    [54636,"HCEP03730563","2025-07-19 13:30:00","9.7642","3.25725","27.014","2.892","7.47","1.086","4.215","1.6","0.23","29.5978","4.68478","30.8","0","SATNPRO1964","26.336000000000002","0.36888","5"],
    [54637,"HCEP03730563","2025-07-19 13:45:00","9.7674","3.25794","27.021","2.965","7.48","0.758","5.265","0.11","0.64","29.6021","4.68534","31.57","0","SATNPRO1964","26.268","0.36796","5"],
    [54638,"HCEP03730563","2025-07-19 14:00:00","9.7691","3.25835","26.974","2.974","7.48","0.812","4.864","0.22","0.4","29.6049","4.6857","31.67","0","SATNPRO1964","26.314","0.36856","5"],
    [54639,"HCEP03730563","2025-07-19 14:15:00","9.7692","3.25835","26.976","2.961","7.48","0.67","5.274","0.08","0.48","29.6048","4.68568","31.54","0","SATNPRO1964","26.194","0.3669","5"],
    [54640,"HCEP03730563","2025-07-19 14:30:00","9.7685","3.25837","26.948","2.939","7.48","0.664","4.474","0.14","0.23","29.6056","4.68581","31.3","0","SATNPRO1964","26.126","0.36594","5"],
    [54641,"HCEP03730563","2025-07-19 14:45:00","9.7681","3.25828","26.93","2.917","7.48","0.677","4.749","0.12","0.23","29.6049","4.68572","31.07","0","SATNPRO1964","26.186","0.3668","5"],
    [54642,"HCEP03730563","2025-07-19 15:00:00","9.7677","3.25814","26.894","2.915","7.48","0.712","4.552","0.12","0.37","29.6039","4.68559","31.05","0","SATNPRO1964","26.076","0.36522","5"],
    [54643,"HCEP03730563","2025-07-19 15:15:00","9.7654","3.25803","26.843","2.892","7.48","0.705","4.562","0.14","0.21","29.6047","4.68573","30.8","0","SATNPRO1964","26.1","0.36558","5"],
    [54644,"HCEP03730563","2025-07-19 15:30:00","9.7591","3.25739","26.78","2.834","7.47","0.617","4.283","0.09","0.26","29.6035","4.68567","30.18","0","SATNPRO1964","26.162","0.36644","5"],
    [54645,"HCEP03730563","2025-07-19 15:45:00","9.7561","3.25706","26.744","2.785","7.47","0.662","4.447","0.09","0.2","29.6027","4.6856","29.65","0","SATNPRO1964","25.988","0.36404","5"],
    [54646,"HCEP03730563","2025-07-19 16:00:00","9.7546","3.2566","26.736","2.77","7.47","0.615","3.808","0.08","0.15","29.5993","4.68514","29.5","0","SATNPRO1964","26.19","0.36686","5"],
    [54647,"HCEP03730563","2025-07-19 16:15:00","9.7528","3.2565","26.697","2.743","7.47","0.651","4.491","0.09","0.17","29.5997","4.68523","29.2","0","SATNPRO1964","26.004","0.36424","5"],
    [54648,"HCEP03730563","2025-07-19 16:30:00","9.7513","3.25611","26.637","2.716","7.46","0.623","3.762","0.1","0.23","29.597","4.68487","28.91","0","SATNPRO1964","26.116","0.36578","5"],
    [54649,"HCEP03730563","2025-07-19 16:45:00","9.7505","3.25596","26.597","2.736","7.46","2.315","36.377","1.22","8.48","29.5961","4.68475","29.13","0","SATNPRO1964","26.336","0.36884","5"],
    [54650,"HCEP03730563","2025-07-19 17:00:00","9.7489","3.25577","26.565","2.714","7.46","0.616","4.79","0.09","0.65","29.5957","4.68471","28.9","0","SATNPRO1964","26.286","0.36816","5"],
    [54651,"HCEP03730563","2025-07-19 17:15:00","9.7425","3.25511","26.545","2.654","7.46","0.757","7.919","0.12","0.59","29.5943","4.68462","28.24","0","SATNPRO1964","26.01","0.36434","5"],
    [54652,"HCEP03730563","2025-07-19 17:30:00","9.7399","3.25453","26.556","2.573","7.45","0.697","4.894","0.25","0.61","29.5905","4.68413","27.38","0","SATNPRO1964","25.926000000000002","0.36316","5"],
    [54653,"HCEP03730563","2025-07-19 17:45:00","9.7383","3.25428","26.555","2.544","7.45","0.933","6.536","0.26","1.01","29.5893","4.68398","27.07","0","SATNPRO1964","25.822","0.3617","5"],
    [54654,"HCEP03730563","2025-07-19 18:00:00","9.7407","3.25474","26.582","2.554","7.45","0.679","5.146","0.07","0.6","29.592","4.68433","27.18","0","SATNPRO1964","25.94","0.36334","5"],
    [54655,"HCEP03730563","2025-07-19 18:15:00","9.7411","3.25479","26.629","2.537","7.45","0.706","5.951","0.12","1.07","29.5921","4.68434","27","0","SATNPRO1964","25.881999999999998","0.36254","5"],
    [54656,"HCEP03730563","2025-07-19 18:30:00","9.741","3.25479","26.669","2.544","7.45","0.663","5.676","0.1","1.23","29.5922","4.68436","27.07","0","SATNPRO1964","25.938","0.36332","5"],
    [54657,"HCEP03730563","2025-07-19 18:45:00","9.7415","3.25484","26.704","2.542","7.45","0.724","4.294","0.12","0.52","29.5923","4.68437","27.05","0","SATNPRO1964","25.896","0.36268","5"],
    [54658,"HCEP03730563","2025-07-19 19:00:00","9.7409","3.25482","26.766","2.522","7.45","0.714","4.212","0.11","0.4","29.5926","4.68442","26.84","0","SATNPRO1964","25.882","0.36252","5"],
    [54659,"HCEP03730563","2025-07-19 19:15:00","9.7404","3.25479","26.797","2.511","7.44","0.791","6.372","0.11","0.81","29.5927","4.68444","26.72","0","SATNPRO1964","25.876","0.36242","5"],
    [54660,"HCEP03730563","2025-07-19 19:30:00","9.7397","3.2547","26.885","2.495","7.44","0.705","3.894","0.22","0.22","29.5923","4.68441","26.55","0","SATNPRO1964","25.746","0.36064","5"],
    [54661,"HCEP03730563","2025-07-19 19:45:00","9.7385","3.25459","26.965","2.47","7.44","0.867","6.035","0.1","0.9","29.5921","4.68441","26.29","0","SATNPRO1964","25.502","0.3572","5"],
    [54662,"HCEP03730563","2025-07-19 20:00:00","9.7372","3.25442","27.06","2.457","7.44","0.775","4.909","0.13","0.97","29.5914","4.68433","26.15","0","SATNPRO1964","25.616","0.35876","5"],
    [54663,"HCEP03730563","2025-07-19 20:15:00","9.737","3.25428","27.129","2.455","7.44","0.71","3.742","0.14","0.47","29.5902","4.68417","26.12","0","SATNPRO1964","25.668","0.35948","5"],
    [54664,"HCEP03730563","2025-07-19 20:30:00","9.7361","3.25417","27.25","2.444","7.44","0.759","3.836","0.18","0.3","29.5898","4.68413","26.01","0","SATNPRO1964","25.49","0.357","5"],
    [54665,"HCEP03730563","2025-07-19 20:45:00","9.736","3.25413","27.31","2.427","7.44","0.679","3.722","0.13","0.81","29.5894","4.68409","25.83","0","SATNPRO1964","25.432","0.35622","5"],
    [54666,"HCEP03730563","2025-07-19 21:00:00","9.7367","3.25405","27.41","2.453","7.44","0.658","3.393","0.13","0.48","29.588","4.68388","26.11","0","SATNPRO1964","26.004","0.36424","5"],
    [54667,"HCEP03730563","2025-07-19 21:15:00","9.7361","3.25404","27.499","2.446","7.44","2.618","3.704","4.46","0.54","29.5883","4.68394","26.03","0","SATNPRO1964","25.662","0.35948","5"],
    [54668,"HCEP03730563","2025-07-19 21:30:00","9.7347","3.2539","27.554","2.407","7.44","0.739","3.765","0.25","0.36","29.5881","4.68393","25.62","0","SATNPRO1964","25.522","0.35748","5"],
    [54669,"HCEP03730563","2025-07-19 21:45:00","9.7336","3.25371","27.625","2.381","7.43","0.713","3.605","0.24","0.27","29.587","4.6838","25.34","0","SATNPRO1964","25.548","0.35784","5"],
    [54670,"HCEP03730563","2025-07-19 22:00:00","9.7326","3.2535","27.676","2.363","7.43","0.725","3.469","0.28","0.21","29.5857","4.68364","25.15","0","SATNPRO1964","25.67","0.35954","5"],
    [54671,"HCEP03730563","2025-07-19 22:15:00","9.7322","3.25344","27.711","2.38","7.43","0.642","3.396","0.15","0.32","29.5854","4.6836","25.32","0","SATNPRO1964","25.874","0.36244","5"],
    [54672,"HCEP03730563","2025-07-19 22:30:00","9.7303","3.25324","27.752","2.359","7.43","0.601","3.332","0.08","0.17","29.5849","4.68357","25.1","0","SATNPRO1964","25.756","0.36074","5"],
    [54673,"HCEP03730563","2025-07-19 22:45:00","9.7305","3.25328","27.773","2.341","7.43","0.676","3.212","0.24","0.17","29.5852","4.68361","24.91","0","SATNPRO1964","25.5","0.35718","5"],
    [54674,"HCEP03730563","2025-07-19 23:00:00","9.7304","3.25329","27.78","2.339","7.43","0.622","3.69","0.09","0.35","29.5854","4.68363","24.89","0","SATNPRO1964","25.586","0.35838","5"],
    [54675,"HCEP03730563","2025-07-19 23:15:00","9.7292","3.25319","27.834","2.308","7.43","0.666","3.848","0.1","0.33","29.5853","4.68365","24.56","0","SATNPRO1964","25.504","0.35726","5"],
    [54676,"HCEP03730563","2025-07-19 23:30:00","9.7284","3.25309","27.802","2.28","7.42","0.626","3.56","0.1","0.23","29.5851","4.68362","24.26","0","SATNPRO1964","25.462","0.35666","5"],
    [54677,"HCEP03730563","2025-07-19 23:45:00","9.7289","3.25314","27.773","2.283","7.42","0.663","3.602","0.1","0.32","29.5851","4.68362","24.29","0","SATNPRO1964","25.476","0.35684","5"],
    [54678,"HCEP03730563","2025-07-20 00:00:00","9.7302","3.25326","27.748","2.273","7.42","0.662","3.913","0.09","0.18","29.5853","4.68363","24.19","0","SATNPRO1964","25.332","0.35482","5"],
    [54679,"HCEP03730563","2025-07-20 00:15:00","9.7297","3.25317","27.698","2.269","7.42","0.643","3.716","0.09","0.2","29.5848","4.68356","24.15","0","SATNPRO1964","25.318","0.35464","5"],
    [54680,"HCEP03730563","2025-07-20 00:30:00","9.729","3.25309","27.637","2.249","7.42","0.728","3.679","0.41","0.18","29.5846","4.68354","23.93","0","SATNPRO1964","25.3","0.35436","5"],
    [54681,"HCEP03730563","2025-07-20 00:45:00","9.7294","3.25312","27.535","2.226","7.42","0.704","3.794","0.2","0.16","29.5846","4.68352","23.68","0","SATNPRO1964","25.132","0.35202","5"],
    [54682,"HCEP03730563","2025-07-20 01:00:00","9.7302","3.25322","27.426","2.219","7.42","0.746","3.769","0.4","0.18","29.585","4.68356","23.61","0","SATNPRO1964","25.088","0.3514","5"],
    [54683,"HCEP03730563","2025-07-20 01:15:00","9.73","3.25317","27.292","2.227","7.42","0.648","3.51","0.11","0.19","29.5846","4.68351","23.69","0","SATNPRO1964","25.218","0.35326","5"],
    [54684,"HCEP03730563","2025-07-20 01:30:00","9.7312","3.2533","27.166","2.241","7.42","0.624","3.483","0.08","0.26","29.585","4.68353","23.85","0","SATNPRO1964","25.164","0.35244","5"],
    [54685,"HCEP03730563","2025-07-20 01:45:00","9.7313","3.25331","27.003","2.255","7.42","0.619","3.133","0.07","0.14","29.5852","4.68354","24","0","SATNPRO1964","25.15","0.35228","5"],
    [54686,"HCEP03730563","2025-07-20 02:00:00","9.7341","3.25379","26.826","2.275","7.42","0.626","3.354","0.08","0.17","29.5878","4.68387","24.21","0","SATNPRO1964","25.346","0.35502","5"],
    [54687,"HCEP03730563","2025-07-20 02:15:00","9.7349","3.25389","26.653","2.3","7.42","0.624","3.054","0.12","0.19","29.5882","4.68389","24.48","0","SATNPRO1964","25.536","0.35768","5"],
    [54688,"HCEP03730563","2025-07-20 02:30:00","9.7364","3.25407","26.44","2.335","7.42","0.598","2.949","0.11","0.12","29.5888","4.68394","24.85","0","SATNPRO1964","25.57","0.35816","5"],
    [54689,"HCEP03730563","2025-07-20 02:45:00","9.7366","3.25412","26.25","2.365","7.43","0.623","2.875","0.1","0.16","29.5892","4.68398","25.17","0","SATNPRO1964","25.572","0.35816","5"],
    [54690,"HCEP03730563","2025-07-20 03:00:00","9.738","3.25429","26.026","2.382","7.43","0.599","2.996","0.11","0.11","29.5899","4.68404","25.35","0","SATNPRO1964","25.642","0.35914","5"],
    [54691,"HCEP03730563","2025-07-20 03:15:00","9.7398","3.25447","25.798","2.379","7.43","0.693","3.221","0.14","0.14","29.5904","4.68407","25.32","0","SATNPRO1964","25.44","0.35634","5"],
    [54692,"HCEP03730563","2025-07-20 03:30:00","9.7383","3.25426","25.581","2.393","7.43","0.534","2.996","0.08","0.13","29.5896","4.68397","25.47","0","SATNPRO1964","25.712","0.36012","5"],
    [54693,"HCEP03730563","2025-07-20 03:45:00","9.7398","3.25444","25.352","2.407","7.43","0.555","3.143","0.09","0.18","29.5902","4.68402","25.62","0","SATNPRO1964","25.722","0.36028","5"],
    [54694,"HCEP03730563","2025-07-20 04:00:00","9.7404","3.25445","25.15","2.414","7.43","0.565","3.04","0.08","0.16","29.5899","4.68395","25.69","0","SATNPRO1964","25.746","0.36064","5"],
    [54695,"HCEP03730563","2025-07-20 04:15:00","9.7407","3.25451","24.956","2.424","7.43","0.696","3.306","0.26","0.48","29.5903","4.684","25.8","0","SATNPRO1964","25.89","0.36262","5"],
    [54696,"HCEP03730563","2025-07-20 04:30:00","9.7432","3.2548","24.765","2.381","7.43","0.596","3.747","0.06","0.23","29.5913","4.68408","25.35","0","SATNPRO1964","25.233999999999998","0.35342","5"],
    [54697,"HCEP03730563","2025-07-20 04:45:00","9.7442","3.25488","24.582","2.361","7.43","0.649","3.313","0.16","0.15","29.5913","4.68405","25.13","0","SATNPRO1964","25.456","0.35654","5"],
    [54698,"HCEP03730563","2025-07-20 05:00:00","9.744","3.25437","24.446","2.458","7.43","0.587","2.827","0.12","0.23","29.5864","4.68335","26.16","0","SATNPRO1964","26.056","0.36496","5"],
    [54699,"HCEP03730563","2025-07-20 05:15:00","9.7437","3.25474","24.31","2.459","7.44","0.784","3.936","0.28","0.22","29.5905","4.68393","26.18","0","SATNPRO1964","25.428","0.35618","5"],
    [54700,"HCEP03730563","2025-07-20 05:30:00","9.7434","3.25469","24.209","2.436","7.43","0.574","2.921","0.14","0.11","29.5903","4.6839","25.93","0","SATNPRO1964","25.733999999999998","0.36046","5"],
    [54701,"HCEP03730563","2025-07-20 05:45:00","9.7437","3.25476","24.134","2.464","7.44","0.625","2.964","0.12","0.21","29.5907","4.68394","26.22","0","SATNPRO1964","25.758","0.36076","5"],
    [54702,"HCEP03730563","2025-07-20 06:00:00","9.748","3.25514","24.096","2.511","7.44","0.573","2.893","0.12","0.26","29.5911","4.68393","26.73","0","SATNPRO1964","26.058","0.36498","5"],
    [54703,"HCEP03730563","2025-07-20 06:15:00","9.7567","3.25598","24.056","2.482","7.44","1.164","5.426","0.48","0.78","29.5923","4.68395","26.43","0","SATNPRO1964","25.254","0.35374","5"],
    [54704,"HCEP03730563","2025-07-20 06:30:00","9.7607","3.25627","24.03","2.485","7.44","0.697","3.861","0.13","0.26","29.592","4.68383","26.46","0","SATNPRO1964","25.512","0.3573","5"],
    [54705,"HCEP03730563","2025-07-20 06:45:00","9.7618","3.2565","23.996","2.492","7.44","0.677","4.051","0.09","0.24","29.5934","4.68401","26.53","0","SATNPRO1964","25.354","0.35514","5"],
    [54706,"HCEP03730563","2025-07-20 07:00:00","9.7646","3.25681","23.998","2.509","7.44","0.705","4.516","0.11","0.3","29.5943","4.68409","26.72","0","SATNPRO1964","25.458","0.35658","5"],
    [54707,"HCEP03730563","2025-07-20 07:15:00","9.7682","3.2567","24.043","2.604","7.45","0.729","3.746","0.21","0.3","29.5901","4.68344","27.73","0","SATNPRO1964","25.762","0.36084","5"],
    [54708,"HCEP03730563","2025-07-20 07:30:00","9.7676","3.25694","24.108","2.632","7.45","0.778","4.667","0.1","0.31","29.593","4.68386","28.03","0","SATNPRO1964","25.46","0.35662","5"],
    [54709,"HCEP03730563","2025-07-20 07:45:00","9.7803","3.25829","24.206","2.649","7.45","0.784","4.699","0.09","0.31","29.5961","4.68409","28.22","0","SATNPRO1964","25.538","0.3577","5"],
    [54710,"HCEP03730563","2025-07-20 08:00:00","9.7934","3.2596","24.33","2.745","7.46","0.778","4.236","0.12","0.26","29.5985","4.68421","29.25","0","SATNPRO1964","25.497999999999998","0.35712","5"],
    [54711,"HCEP03730563","2025-07-20 08:15:00","9.8037","3.26029","24.456","2.834","7.47","0.785","3.428","0.15","0.33","29.5969","4.68382","30.21","0","SATNPRO1964","26.112","0.36576","5"],
    [54712,"HCEP03730563","2025-07-20 08:30:00","9.8085","3.26055","24.589","2.912","7.47","0.916","3.824","1.06","0.37","29.5956","4.68355","31.04","0","SATNPRO1964","25.84","0.36188","5"],
    [54713,"HCEP03730563","2025-07-20 08:45:00","9.8169","3.26135","24.737","2.995","7.48","0.869","5.985","0.32","4.36","29.5967","4.68358","31.93","0","SATNPRO1964","26.142","0.36614","5"],
    [54714,"HCEP03730563","2025-07-20 09:00:00","9.8435","3.26391","24.9","3.203","7.49","0.809","3.97","0.27","0.4","29.6005","4.68367","34.17","0","SATNPRO1964","26.698","0.3739","5"],
    [54715,"HCEP03730563","2025-07-20 09:15:00","9.8608","3.26517","24.977","3.419","7.51","0.719","3.058","0.09","0.27","29.5989","4.68315","36.48","0","SATNPRO1964","26.768","0.37494","5"],
    [54716,"HCEP03730563","2025-07-20 09:30:00","9.8582","3.26486","25.197","3.498","7.52","0.932","3.624","0.1","0.21","29.5979","4.68306","37.33","0","SATNPRO1964","26.808","0.37552","5"],
    [54717,"HCEP03730563","2025-07-20 09:45:00","9.8087","3.26059","25.427","3.236","7.51","0.897","4.558","0.17","0.58","29.5955","4.68358","34.5","0","SATNPRO1964","26.01","0.36432","5"],
    [54718,"HCEP03730563","2025-07-20 10:00:00","9.7933","3.25944","25.591","2.887","7.49","1.241","6.359","1.18","0.89","29.5965","4.684","30.77","0","SATNPRO1964","25.508","0.3573","5"],
    [54719,"HCEP03730563","2025-07-20 10:15:00","9.787","3.25891","25.751","2.733","7.48","1.075","6.618","0.28","0.62","29.5963","4.6841","29.12","0","SATNPRO1964","25.578","0.35826","5"],
    [54720,"HCEP03730563","2025-07-20 10:30:00","9.7794","3.2581","25.92","2.672","7.47","0.854","6.108","0.14","0.54","29.5943","4.68395","28.46","0","SATNPRO1964","25.580000000000002","0.35828","5"],
    [54721,"HCEP03730563","2025-07-20 10:45:00","9.7842","3.25855","26.08","2.666","7.46","0.826","5.823","0.13","0.46","29.5948","4.68395","28.4","0","SATNPRO1964","25.536","0.35768","5"],
    [54722,"HCEP03730563","2025-07-20 11:00:00","9.7859","3.25859","26.253","2.681","7.46","0.775","6.077","0.1","0.33","29.5938","4.68379","28.57","0","SATNPRO1964","25.556","0.35798","5"],
    [54723,"HCEP03730563","2025-07-20 11:15:00","9.7923","3.25917","26.424","2.706","7.46","0.881","6.252","0.22","0.63","29.5942","4.68374","28.83","0","SATNPRO1964","25.554000000000002","0.35794","5"],
    [54724,"HCEP03730563","2025-07-20 11:30:00","9.792","3.25909","26.554","2.722","7.46","0.803","5.774","0.14","0.36","29.5936","4.68367","29.01","0","SATNPRO1964","25.636","0.3591","5"],
    [54725,"HCEP03730563","2025-07-20 11:45:00","9.789","3.25879","26.684","2.718","7.46","0.788","5.126","0.22","0.22","29.5931","4.68365","28.96","0","SATNPRO1964","25.588","0.3584","5"],
    [54726,"HCEP03730563","2025-07-20 12:00:00","9.7856","3.25853","26.815","2.686","7.46","0.717","5.462","0.09","0.27","29.5932","4.68373","28.62","0","SATNPRO1964","25.646","0.35922","5"],
    [54727,"HCEP03730563","2025-07-20 12:15:00","9.7842","3.25837","26.914","2.662","7.46","0.737","5.288","0.09","0.41","29.5927","4.68369","28.36","0","SATNPRO1964","25.486","0.35698","5"],
    [54728,"HCEP03730563","2025-07-20 12:30:00","9.7826","3.25819","27.022","2.651","7.46","0.721","4.777","0.09","0.35","29.5921","4.68365","28.24","0","SATNPRO1964","25.558","0.35802","5"],
    [54729,"HCEP03730563","2025-07-20 12:45:00","9.778","3.2578","27.118","2.624","7.46","0.667","4.355","0.22","0.19","29.5919","4.6837","27.95","0","SATNPRO1964","25.448","0.35644","5"],
    [54730,"HCEP03730563","2025-07-20 13:00:00","9.7768","3.25756","27.178","2.609","7.45","0.648","3.704","0.17","0.35","29.5905","4.68352","27.79","0","SATNPRO1964","25.52","0.35742","5"],
    [54731,"HCEP03730563","2025-07-20 13:15:00","9.782","3.25731","27.244","2.682","7.46","0.624","2.712","0.14","0.18","29.5837","4.68246","28.57","0","SATNPRO1964","25.992","0.36408","5"],
    [54732,"HCEP03730563","2025-07-20 13:30:00","9.7655","3.25656","27.259","2.612","7.45","0.584","3.764","0.18","0.24","29.5897","4.68361","27.82","0","SATNPRO1964","25.724","0.36034","5"],
    [54733,"HCEP03730563","2025-07-20 13:45:00","9.7626","3.25626","27.306","2.509","7.45","0.591","3.474","0.08","0.14","29.589","4.68356","26.71","0","SATNPRO1964","25.62","0.35886","5"],
    [54734,"HCEP03730563","2025-07-20 14:00:00","9.765","3.25652","27.291","2.491","7.44","0.603","3.985","0.1","0.28","29.5897","4.68362","26.52","0","SATNPRO1964","25.264","0.35388","5"],
    [54735,"HCEP03730563","2025-07-20 14:15:00","9.7692","3.25685","27.334","2.485","7.44","0.607","4.69","0.06","0.26","29.5895","4.68353","26.47","0","SATNPRO1964","25.436","0.35626","5"],
    [54736,"HCEP03730563","2025-07-20 14:30:00","9.7646","3.25652","27.345","2.47","7.44","0.545","4.201","0.06","0.45","29.59","4.68368","26.31","0","SATNPRO1964","25.422","0.35606","5"],
    [54737,"HCEP03730563","2025-07-20 14:45:00","9.7569","3.25586","27.333","2.431","7.44","0.615","3.503","0.13","0.14","29.5897","4.68376","25.88","0","SATNPRO1964","25.358","0.35516","5"],
    [54738,"HCEP03730563","2025-07-20 15:00:00","9.753","3.25543","27.316","2.393","7.44","0.597","3.966","0.13","0.33","29.5885","4.68366","25.47","0","SATNPRO1964","25.490000000000002","0.357","5"],
    [54739,"HCEP03730563","2025-07-20 15:15:00","9.7497","3.25512","27.319","2.35","7.43","0.586","3.926","0.05","0.25","29.5882","4.68367","25.02","0","SATNPRO1964","25.532","0.3576","5"],
    [54740,"HCEP03730563","2025-07-20 15:30:00","9.7459","3.25471","27.326","2.319","7.43","0.555","3.729","0.08","0.19","29.5872","4.68359","24.68","0","SATNPRO1964","25.326","0.35474","5"],
    [54741,"HCEP03730563","2025-07-20 15:45:00","9.7427","3.25426","27.288","2.265","7.43","0.607","4.344","0.09","0.29","29.5852","4.68336","24.11","0","SATNPRO1964","25.26","0.35378","5"],
    [54742,"HCEP03730563","2025-07-20 16:00:00","9.7403","3.25391","27.282","2.213","7.42","0.578","4.269","0.08","0.46","29.5837","4.68319","23.55","0","SATNPRO1964","25.282","0.35416","5"],
    [54743,"HCEP03730563","2025-07-20 16:15:00","9.7409","3.25398","27.212","2.226","7.42","0.647","4.166","0.11","0.26","29.584","4.68322","23.69","0","SATNPRO1964","24.93","0.3492","5"],
    [54744,"HCEP03730563","2025-07-20 16:30:00","9.7411","3.25393","27.201","2.23","7.42","0.585","4.402","0.09","0.46","29.5834","4.68312","23.73","0","SATNPRO1964","25.2","0.35298","5"],
    [54745,"HCEP03730563","2025-07-20 16:45:00","9.74","3.25373","27.144","2.22","7.42","0.606","4.015","0.09","0.37","29.5822","4.68298","23.63","0","SATNPRO1964","25.194","0.3529","5"],
    [54746,"HCEP03730563","2025-07-20 17:00:00","9.7398","3.25358","27.108","2.2","7.42","0.606","4.18","0.11","0.53","29.5808","4.68278","23.41","0","SATNPRO1964","25.132","0.35202","5"],
    [54747,"HCEP03730563","2025-07-20 17:15:00","9.7381","3.25338","27.065","2.178","7.42","0.67","4.405","0.27","0.59","29.5803","4.68273","23.18","0","SATNPRO1964","24.87","0.34836","5"],
    [54748,"HCEP03730563","2025-07-20 17:30:00","9.7393","3.25373","27.021","2.143","7.41","0.549","4.535","0.05","0.23","29.5829","4.68307","22.8","0","SATNPRO1964","24.996","0.35008","5"],
    [54749,"HCEP03730563","2025-07-20 17:45:00","9.7392","3.25377","26.991","2.111","7.41","0.658","4.777","0.18","0.25","29.5833","4.68314","22.47","0","SATNPRO1964","24.986","0.34996","5"],
    [54750,"HCEP03730563","2025-07-20 18:00:00","9.7402","3.25391","26.953","2.091","7.41","0.617","5.14","0.08","0.38","29.5839","4.68321","22.26","0","SATNPRO1964","24.766","0.34692","5"],
    [54751,"HCEP03730563","2025-07-20 18:15:00","9.7409","3.25407","26.913","2.092","7.41","0.667","5.067","0.21","0.31","29.5849","4.68334","22.26","0","SATNPRO1964","24.82","0.34764","5"],
    [54752,"HCEP03730563","2025-07-20 18:30:00","9.7445","3.25437","26.869","2.109","7.41","0.59","4.588","0.1","0.19","29.585","4.68328","22.44","0","SATNPRO1964","25.046","0.35084","5"],
    [54753,"HCEP03730563","2025-07-20 18:45:00","9.748","3.25473","26.864","2.115","7.41","0.669","5.503","0.13","0.3","29.5858","4.68333","22.51","0","SATNPRO1964","24.704","0.346","5"],
    [54754,"HCEP03730563","2025-07-20 19:00:00","9.7532","3.25521","26.813","2.146","7.41","0.634","5.038","0.09","0.27","29.5864","4.68333","22.84","0","SATNPRO1964","24.772","0.347","5"],
    [54755,"HCEP03730563","2025-07-20 19:15:00","9.7524","3.25513","26.822","2.181","7.41","0.644","5.014","0.07","0.29","29.5863","4.68332","23.22","0","SATNPRO1964","25.026","0.35054","5"],
    [54756,"HCEP03730563","2025-07-20 19:30:00","9.7487","3.25483","26.843","2.157","7.41","0.648","5.099","0.07","0.49","29.5862","4.68338","22.96","0","SATNPRO1964","24.878","0.3484","5"],
    [54757,"HCEP03730563","2025-07-20 19:45:00","9.7456","3.25446","26.894","2.133","7.41","0.653","4.976","0.08","0.19","29.5851","4.68328","22.7","0","SATNPRO1964","24.83","0.3478","5"],
    [54758,"HCEP03730563","2025-07-20 20:00:00","9.7447","3.25432","26.939","2.118","7.41","0.753","4.413","0.6","0.2","29.5844","4.68319","22.54","0","SATNPRO1964","24.96","0.3496","5"],
    [54759,"HCEP03730563","2025-07-20 20:15:00","9.7461","3.25451","26.962","2.128","7.41","0.598","4.362","0.07","0.46","29.5851","4.68328","22.65","0","SATNPRO1964","24.848","0.34804","5"],
    [54760,"HCEP03730563","2025-07-20 20:30:00","9.7483","3.25473","27.011","2.143","7.41","0.648","4.671","0.28","0.51","29.5855","4.68329","22.81","0","SATNPRO1964","24.968","0.3497","5"],
    [54761,"HCEP03730563","2025-07-20 20:45:00","9.75","3.25493","27.064","2.152","7.41","0.645","4.693","0.11","0.51","29.586","4.68334","22.91","0","SATNPRO1964","24.96","0.34958","5"],
    [54762,"HCEP03730563","2025-07-20 21:00:00","9.7553","3.25547","27.114","2.177","7.41","0.622","4.604","0.08","0.33","29.5872","4.68342","23.18","0","SATNPRO1964","24.988","0.35002","5"],
    [54763,"HCEP03730563","2025-07-20 21:15:00","9.7647","3.25637","27.183","2.232","7.41","0.647","4.756","0.07","0.53","29.5885","4.68345","23.77","0","SATNPRO1964","24.93","0.34916","5"],
    [54764,"HCEP03730563","2025-07-20 21:30:00","9.7905","3.25868","27.229","2.397","7.42","0.672","4.2","0.1","0.45","29.5905","4.68328","25.54","0","SATNPRO1964","25.618000000000002","0.35882","5"],
    [54765,"HCEP03730563","2025-07-20 21:45:00","9.8065","3.26","27.284","2.598","7.44","0.635","4.185","0.08","1.14","29.5906","4.68303","27.69","0","SATNPRO1964","25.652","0.3593","5"],
    [54766,"HCEP03730563","2025-07-20 22:00:00","9.7927","3.25887","27.347","2.61","7.44","0.664","4.727","0.07","0.61","29.5906","4.68327","27.81","0","SATNPRO1964","25.256","0.35376","5"],
    [54767,"HCEP03730563","2025-07-20 22:15:00","9.8037","3.25994","27.397","2.599","7.45","0.674","4.328","0.09","0.57","29.5923","4.68332","27.7","0","SATNPRO1964","25.252","0.3537","5"],
    [54768,"HCEP03730563","2025-07-20 22:30:00","9.8139","3.26081","27.457","2.701","7.45","0.622","4.115","0.06","0.33","29.5926","4.6832","28.79","0","SATNPRO1964","25.572","0.35816","5"],
    [54769,"HCEP03730563","2025-07-20 22:45:00","9.8102","3.26052","27.514","2.682","7.45","0.678","4.703","0.08","0.68","29.5928","4.6833","28.59","0","SATNPRO1964","25.07","0.3512","1"],
    [54770,"HCEP03730563","2025-07-20 23:00:00","9.8164","3.2611","27.556","2.698","7.46","0.688","4.536","0.08","0.64","29.5934","4.68328","28.76","0","SATNPRO1964","24.84","0.348","1"],
    [54771,"HCEP03730563","2025-07-20 23:15:00","9.8275","3.26225","27.615","2.785","7.46","0.647","4.16","0.08","0.71","29.5959","4.68344","29.7","0","NA",null,null,null],
    [54772,"HCEP03730563","2025-07-20 23:30:00","9.8452","3.26348","27.665","3.032","7.47","0.572","3.477","0.07","1.01","29.5937","4.68282","32.35","0","NA",null,null,null],
    [54773,"HCEP03730563","2025-07-20 23:45:00","9.8553","3.26395","27.711","3.135","7.49","0.68","3.749","0.09","0.49","29.5901","4.68215","33.45","0","NA",null,null,null],
    [54774,"HCEP03730563","2025-07-21 00:00:00","9.8426","3.26313","27.703","3.081","7.49","0.674","3.981","0.12","0.46","29.5922","4.68267","32.86","0","NA",null,null,null],
    [54775,"HCEP03730563","2025-07-21 00:15:00","9.8533","3.26402","27.705","3.015","7.49","0.669","3.861","0.08","0.53","29.5925","4.68252","32.17","0","NA",null,null,null],
    [54776,"HCEP03730563","2025-07-21 00:30:00","9.8413","3.26318","27.692","3.009","7.49","0.618","4.208","0.05","0.74","29.5938","4.68292","32.1","0","SATNPRO1964","25.282","0.3541","5"],
    [54777,"HCEP03730563","2025-07-21 00:45:00","9.8427","3.26326","27.651","2.901","7.48","0.658","4.527","0.07","0.52","29.5935","4.68285","30.95","0","SATNPRO1964","25.21","0.35312","5"],
    [54778,"HCEP03730563","2025-07-21 01:00:00","9.8591","3.26439","27.609","2.972","7.48","0.716","4.926","0.13","1.15","29.5914","4.68225","31.71","0","SATNPRO1964","25.7","0.35998","5"],
    [54779,"HCEP03730563","2025-07-21 01:15:00","9.8652","3.26478","27.561","3.081","7.49","0.677","4.266","0.08","0.74","29.5904","4.68201","32.88","0","SATNPRO1964","25.792","0.36122","5"],
    [54780,"HCEP03730563","2025-07-21 01:30:00","9.8712","3.2652","27.494","3.136","7.49","0.656","3.948","0.11","1.09","29.5897","4.6818","33.47","0","SATNPRO1964","25.988","0.36398","5"],
    [54781,"HCEP03730563","2025-07-21 01:45:00","9.8697","3.26507","27.414","3.157","7.5","0.646","4.067","0.05","0.59","29.5897","4.68182","33.69","0","SATNPRO1964","25.748","0.36066","5"],
    [54782,"HCEP03730563","2025-07-21 02:00:00","9.8732","3.26541","27.323","3.154","7.5","0.606","4.005","0.05","0.81","29.5902","4.68183","33.67","0","SATNPRO1964","26.032","0.36462","5"],
    [54783,"HCEP03730563","2025-07-21 02:15:00","9.8748","3.26567","27.178","3.196","7.5","0.664","3.765","0.11","0.27","29.5915","4.68198","34.12","0","SATNPRO1964","26.062","0.36502","5"],
    [54784,"HCEP03730563","2025-07-21 02:30:00","9.8782","3.266","27.022","3.251","7.51","0.621","4.016","0.07","1","29.5922","4.68201","34.71","0","SATNPRO1964","26.156","0.36634","5"],
    [54785,"HCEP03730563","2025-07-21 02:45:00","9.8806","3.26635","26.873","3.298","7.51","0.693","3.665","0.21","0.67","29.5938","4.68219","35.21","0","SATNPRO1964","26.42","0.37006","5"],
    [54786,"HCEP03730563","2025-07-21 03:00:00","9.8814","3.26636","26.688","3.339","7.51","0.626","3.908","0.06","1.1","29.5933","4.68209","35.65","0","SATNPRO1964","26.28","0.36808","5"],
    [54787,"HCEP03730563","2025-07-21 03:15:00","9.8818","3.26635","26.522","3.34","7.52","0.642","3.684","0.07","0.6","29.5929","4.68202","35.66","0","SATNPRO1964","26.166","0.3665","5"],
    [54788,"HCEP03730563","2025-07-21 03:30:00","9.8839","3.2665","26.305","3.349","7.52","0.662","3.413","0.11","0.62","29.5928","4.68196","35.75","0","SATNPRO1964","26.334","0.36884","5"],
    [54789,"HCEP03730563","2025-07-21 03:45:00","9.8838","3.26658","26.093","3.37","7.52","0.697","3.165","0.21","0.13","29.5938","4.68209","35.98","0","SATNPRO1964","26.436","0.37026","5"],
    [54790,"HCEP03730563","2025-07-21 04:00:00","9.8836","3.26655","25.875","3.402","7.52","0.592","3.137","0.13","0.1","29.5937","4.68207","36.33","0","SATNPRO1964","26.512","0.37134","5"],
    [54791,"HCEP03730563","2025-07-21 04:15:00","9.8796","3.26632","25.656","3.363","7.52","0.611","3.386","0.06","0.41","29.5948","4.68228","35.91","0","SATNPRO1964","26.204","0.36706","5"],
    [54792,"HCEP03730563","2025-07-21 04:30:00","9.8759","3.26644","25.47","3.368","7.52","0.599","2.821","0.12","0.17","29.5991","4.68295","35.96","0","SATNPRO1964","26.622","0.3729","5"],
    [54793,"HCEP03730563","2025-07-21 04:45:00","9.8645","3.26549","25.235","3.364","7.52","0.598","3.592","0.05","0.41","29.5991","4.68313","35.9","0","SATNPRO1964","26.426000000000002","0.37012","5"],
    [54794,"HCEP03730563","2025-07-21 05:00:00","9.8581","3.26481","24.979","3.195","7.51","0.693","4.27","0.17","0.39","29.5976","4.68301","34.09","0","SATNPRO1964","25.898","0.36274","5"],
    [54795,"HCEP03730563","2025-07-21 05:15:00","9.8578","3.26487","24.759","3.116","7.5","0.654","3.911","0.11","0.46","29.5985","4.68313","33.25","0","SATNPRO1964","25.746","0.36062","5"],
    [54796,"HCEP03730563","2025-07-21 05:30:00","9.8557","3.26456","24.557","3.089","7.5","0.615","4.529","0.07","0.67","29.5972","4.68297","32.96","0","SATNPRO1964","25.73","0.36038","5"],
    [54797,"HCEP03730563","2025-07-21 05:45:00","9.8518","3.26425","24.377","3.035","7.5","0.764","3.832","0.36","0.24","29.5973","4.68305","32.39","0","SATNPRO1964","25.686","0.35976","5"],
    [54798,"HCEP03730563","2025-07-21 06:00:00","9.8494","3.26403","24.206","3.021","7.49","0.601","3.749","0.06","0.19","29.5971","4.68305","32.23","0","SATNPRO1964","25.828","0.36174","5"],
    [54799,"HCEP03730563","2025-07-21 06:15:00","9.8472","3.26385","24.069","2.998","7.49","0.766","3.728","0.43","0.34","29.5972","4.68308","31.98","0","SATNPRO1964","25.7","0.35998","5"],
    [54800,"HCEP03730563","2025-07-21 06:30:00","9.8502","3.26411","23.955","2.987","7.49","0.722","3.985","0.17","0.19","29.5974","4.68305","31.87","0","SATNPRO1964","25.614","0.3588","5"],
    [54801,"HCEP03730563","2025-07-21 06:45:00","9.8506","3.26417","23.858","2.997","7.49","0.646","3.624","0.11","0.21","29.5977","4.68309","31.98","0","SATNPRO1964","25.94","0.3633","5"],
    [54802,"HCEP03730563","2025-07-21 07:00:00","9.853","3.26442","23.799","3.043","7.49","0.573","3.585","0.05","0.21","29.5983","4.68313","32.46","0","SATNPRO1964","25.858","0.36218","5"],
    [54803,"HCEP03730563","2025-07-21 07:15:00","9.8549","3.26462","23.787","3.127","7.5","0.597","2.717","0.26","0.16","29.5987","4.68316","33.37","0","SATNPRO1964","26.256","0.36774","5"],
    [54804,"HCEP03730563","2025-07-21 07:30:00","9.8632","3.26549","23.779","3.247","7.5","0.509","2.492","0.08","0.17","29.6007","4.68329","34.66","0","SATNPRO1964","26.552","0.37192","5"],
    [54805,"HCEP03730563","2025-07-21 07:45:00","9.8748","3.26657","23.783","3.386","7.51","0.575","2.844","0.14","0.17","29.602","4.68328","36.14","0","SATNPRO1964","26.97","0.37778","5"],
    [54806,"HCEP03730563","2025-07-21 08:00:00","9.8815","3.26709","23.815","3.49","7.52","0.711","6.269","0.25","2.52","29.6016","4.68312","37.27","0","SATNPRO1964","26.906000000000002","0.37684","5"],
    [54807,"HCEP03730563","2025-07-21 08:15:00","9.8823","3.26704","23.833","3.529","7.53","0.557","2.721","0.14","0.15","29.6005","4.68295","37.68","0","SATNPRO1964","26.762","0.37488","5"],
    [54808,"HCEP03730563","2025-07-21 08:30:00","9.8833","3.26679","23.907","3.5","7.53","0.571","2.773","0.2","0.37","29.5972","4.68246","37.37","0","SATNPRO1964","26.634","0.37302","5"],
    [54809,"HCEP03730563","2025-07-21 08:45:00","9.8987","3.26815","24.01","3.491","7.53","0.671","4.881","0.09","0.24","29.5982","4.68235","37.29","0","SATNPRO1964","26.152","0.36628","5"],
    [54810,"HCEP03730563","2025-07-21 09:00:00","9.9169","3.27061","24.173","3.686","7.54","0.604","3.771","0.08","0.3","29.6078","4.68341","39.38","0","SATNPRO1964","27.09","0.37942","5"],
    [54811,"HCEP03730563","2025-07-21 09:15:00","9.9446","3.27323","24.348","3.926","7.56","0.671","3.99","0.16","1.03","29.6113","4.68346","41.98","0","SATNPRO1964","27.318","0.38264","5"],
    [54812,"HCEP03730563","2025-07-21 09:30:00","9.9287","3.271","24.472","3.911","7.57","0.612","4.256","0.14","0.56","29.6019","4.68239","41.8","0","SATNPRO1964","27.003999999999998","0.37824","5"],
    [54813,"HCEP03730563","2025-07-21 09:45:00","9.9608","3.27371","24.67","3.906","7.57","0.797","5.007","0.32","0.65","29.6027","4.68197","41.77","0","SATNPRO1964","27.074","0.37926","5"],
    [54814,"HCEP03730563","2025-07-21 10:00:00","9.9318","3.27112","24.829","3.916","7.57","0.549","3.487","0.05","0.2","29.6005","4.68215","41.85","0","SATNPRO1964","27.214","0.38118","5"],
    [54815,"HCEP03730563","2025-07-21 10:15:00","9.9256","3.2709","25.007","3.842","7.57","0.677","4.006","0.13","0.38","29.6032","4.68266","41.06","0","SATNPRO1964","27.188","0.3808","5"],
    [54816,"HCEP03730563","2025-07-21 10:30:00","9.9108","3.26933","25.168","3.76","7.56","0.618","4.72","0.18","0.34","29.5995","4.68239","40.17","0","SATNPRO1964","27.126","0.37998","5"],
    [54817,"HCEP03730563","2025-07-21 10:45:00","9.8908","3.26724","25.348","3.578","7.55","0.727","5.599","0.32","0.31","29.5949","4.68209","38.2","0","SATNPRO1964","26.483999999999998","0.37096","5"],
    [54818,"HCEP03730563","2025-07-21 11:00:00","9.8778","3.26595","25.535","3.336","7.53","0.707","7.488","0.07","0.49","29.5926","4.68199","35.61","0","SATNPRO1964","25.888","0.36258","5"],
    [54819,"HCEP03730563","2025-07-21 11:15:00","9.8775","3.26594","25.737","3.23","7.52","0.674","6.749","0.1","0.57","29.5927","4.68202","34.48","0","SATNPRO1964","26.018","0.36444","5"],
    [54820,"HCEP03730563","2025-07-21 11:30:00","9.866","3.26502","25.924","3.121","7.51","0.663","7.607","0.08","0.34","29.5928","4.68225","33.31","0","SATNPRO1964","25.652","0.3593","5"],
    [54821,"HCEP03730563","2025-07-21 11:45:00","9.8586","3.26442","26.124","2.993","7.5","0.678","7.16","0.08","0.41","29.5928","4.68238","31.94","0","SATNPRO1964","25.634","0.35904","5"],
    [54822,"HCEP03730563","2025-07-21 12:00:00","9.8554","3.26407","26.32","2.938","7.49","0.633","6.666","0.11","0.37","29.5917","4.6823","31.35","0","SATNPRO1964","25.524","0.35748","5"],
    [54823,"HCEP03730563","2025-07-21 12:15:00","9.8468","3.26343","26.492","2.888","7.49","0.668","6.774","0.08","0.56","29.5923","4.68254","30.81","0","SATNPRO1964","25.564","0.35808","5"],
    [54824,"HCEP03730563","2025-07-21 12:30:00","9.845","3.26318","26.652","2.847","7.48","0.65","6.2","0.16","0.46","29.5912","4.68242","30.37","0","SATNPRO1964","25.598","0.35854","5"],
    [54825,"HCEP03730563","2025-07-21 12:45:00","9.8524","3.26343","26.827","2.882","7.48","0.638","5.985","0.06","0.27","29.5876","4.68178","30.75","0","SATNPRO1964","25.686","0.35978","5"],
    [54826,"HCEP03730563","2025-07-21 13:00:00","9.8501","3.26314","26.957","2.892","7.48","1.096","21.262","0.46","14.15","29.5865","4.68167","30.85","0","SATNPRO1964","25.522","0.35744","5"],
    [54827,"HCEP03730563","2025-07-21 13:15:00","9.8416","3.26246","27.096","2.844","7.48","0.63","5.736","0.09","0.23","29.5865","4.68183","30.34","0","SATNPRO1964","25.538","0.35774","5"],
    [54828,"HCEP03730563","2025-07-21 13:30:00","9.8337","3.26195","27.209","2.801","7.47","0.6","5.302","0.07","0.28","29.5879","4.68217","29.87","0","SATNPRO1964","25.534","0.35764","5"],
    [54829,"HCEP03730563","2025-07-21 13:45:00","9.8391","3.26249","27.288","2.857","7.47","0.595","4.58","0.25","0.34","29.5889","4.68222","30.47","0","SATNPRO1964","25.796","0.3613","5"],
    [54830,"HCEP03730563","2025-07-21 14:00:00","9.8301","3.26165","27.371","2.857","7.47","0.564","5.103","0.07","0.26","29.5877","4.68222","30.47","0","SATNPRO1964","25.69","0.35986","5"],
    [54831,"HCEP03730563","2025-07-21 14:15:00","9.8067","3.25951","27.416","2.659","7.47","0.606","6.259","0.06","0.55","29.5855","4.6823","28.34","0","SATNPRO1964","25.188","0.35278","5"],
    [54832,"HCEP03730563","2025-07-21 14:30:00","9.7763","3.2565","27.504","2.368","7.45","0.591","4.862","0.12","1.04","29.5801","4.68207","25.22","0","SATNPRO1964","24.936","0.34926","5"],
    [54833,"HCEP03730563","2025-07-21 14:45:00","9.7609","3.25493","27.541","2.132","7.43","0.638","5.686","0.14","0.82","29.577","4.68189","22.7","0","SATNPRO1964","24.698","0.34598","5"],
    [54834,"HCEP03730563","2025-07-21 15:00:00","9.7561","3.25437","27.548","2.031","7.42","0.656","5.69","0.17","0.54","29.5752","4.68172","21.63","0","SATNPRO1964","24.986","0.34996","5"],
    [54835,"HCEP03730563","2025-07-21 15:15:00","9.7511","3.25395","27.554","1.96","7.41","0.653","5.551","0.13","0.53","29.5752","4.6818","20.86","0","SATNPRO1964","24.764","0.34684","5"],
    [54836,"HCEP03730563","2025-07-21 15:30:00","9.7503","3.25391","27.589","1.908","7.4","0.617","5.671","0.1","0.78","29.5754","4.68184","20.31","0","SATNPRO1964","24.494","0.34308","5"],
    [54837,"HCEP03730563","2025-07-21 15:45:00","9.7463","3.25347","27.59","1.87","7.4","0.659","5.007","0.14","0.29","29.5742","4.68175","19.91","0","SATNPRO1964","24.422","0.34208","5"],
    [54838,"HCEP03730563","2025-07-21 16:00:00","9.7511","3.25401","27.573","1.851","7.39","0.655","6.631","0.1","0.53","29.5757","4.68187","19.7","0","SATNPRO1964","24.490000000000002","0.343","5"],
    [54839,"HCEP03730563","2025-07-21 16:15:00","9.7472","3.25372","27.56","1.826","7.39","0.608","5.439","0.08","0.35","29.576","4.68199","19.43","0","SATNPRO1964","24.404","0.34188","5"],
    [54840,"HCEP03730563","2025-07-21 16:30:00","9.7442","3.25344","27.563","1.779","7.39","0.584","5.061","0.13","0.33","29.5757","4.682","18.93","0","SATNPRO1964","24.264","0.33988","5"],
    [54841,"HCEP03730563","2025-07-21 16:45:00","9.7393","3.253","27.524","1.725","7.38","0.564","4.942","0.1","0.5","29.5753","4.68202","18.36","0","SATNPRO1964","24.13","0.33796","5"],
    [54842,"HCEP03730563","2025-07-21 17:00:00","9.7321","3.25191","27.47","1.687","7.38","0.634","5.19","0.2","2.8","29.5702","4.68142","17.95","0","SATNPRO1964","24.158","0.3384","5"],
    [54843,"HCEP03730563","2025-07-21 17:15:00","9.7349","3.25244","27.425","1.677","7.38","0.631","4.872","0.16","0.7","29.5733","4.68181","17.84","0","SATNPRO1964","24.172","0.3386","5"],
    [54844,"HCEP03730563","2025-07-21 17:30:00","9.7368","3.25271","27.436","1.664","7.37","0.524","4.254","0.08","0.3","29.5744","4.68194","17.71","0","SATNPRO1964","23.916","0.33496","5"],
    [54845,"HCEP03730563","2025-07-21 17:45:00","9.7364","3.25262","27.353","1.649","7.37","0.574","4.413","0.15","0.28","29.5739","4.68186","17.55","0","SATNPRO1964","23.882","0.33452","5"],
    [54846,"HCEP03730563","2025-07-21 18:00:00","9.735900000000001","3.25246","27.332","1.642","7.37","0.496","4.049","0.08","0.2","29.5727","4.6817","17.47","0","SATNPRO1964","23.932","0.33522","5"],
    [54847,"HCEP03730563","2025-07-21 18:15:00","9.7362","3.25258","27.231","1.64","7.37","0.567","4.406","0.09","0.72","29.5738","4.68184","17.46","0","SATNPRO1964","23.926000000000002","0.3351","5"],
    [54848,"HCEP03730563","2025-07-21 18:30:00","9.7381","3.25275","27.176","1.639","7.37","0.542","4.265","0.14","0.26","29.5739","4.68182","17.44","0","SATNPRO1964","23.88","0.3345","5"],
    [54849,"HCEP03730563","2025-07-21 18:45:00","9.735","3.25224","27.116","1.65","7.37","0.536","4.239","0.07","0.22","29.5713","4.6815","17.56","0","SATNPRO1964","24.036","0.33666","5"],
    [54850,"HCEP03730563","2025-07-21 19:00:00","9.7352","3.25221","27.08","1.672","7.37","0.466","3.874","0.06","0.23","29.5708","4.68143","17.79","0","SATNPRO1964","24.132","0.338","5"],
    [54851,"HCEP03730563","2025-07-21 19:15:00","9.7365","3.25225","27.002","1.695","7.37","0.679","6.227","0.13","2.94","29.5702","4.68131","18.04","0","SATNPRO1964","24.048","0.33684","5"],
    [54852,"HCEP03730563","2025-07-21 19:30:00","9.7368","3.25238","26.981","1.702","7.37","4.097","120.448","0.86","51.11","29.5713","4.68146","18.11","0","SATNPRO1964","24.048","0.33682","5"],
    [54853,"HCEP03730563","2025-07-21 19:45:00","9.7358","3.2525","26.941","1.642","7.37","0.816","20.451","0.72","27.24","29.5734","4.68177","17.47","0","SATNPRO1964","23.85","0.33406","5"],
    [54854,"HCEP03730563","2025-07-21 20:00:00","9.7286","3.25164","26.904","1.574","7.37","0.46","3.475","0.06","0.15","29.5706","4.6815","16.75","0","SATNPRO1964","23.896","0.3347","5"],
    [54855,"HCEP03730563","2025-07-21 20:15:00","9.7258","3.25122","26.906","1.531","7.36","0.631","9.082","0.32","12.52","29.5687","4.68128","16.29","0","SATNPRO1964","23.896","0.33474","5"],
    [54856,"HCEP03730563","2025-07-21 20:30:00","9.7253","3.25106","26.918","1.529","7.36","0.471","2.849","0.07","0.25","29.5674","4.6811","16.27","0","SATNPRO1964","24.152","0.33826","5"],
    [54857,"HCEP03730563","2025-07-21 20:45:00","9.7263","3.25118","26.917","1.554","7.36","0.499","3.417","0.07","0.29","29.5679","4.68115","16.53","0","SATNPRO1964","24.154","0.3383","5"],
    [54858,"HCEP03730563","2025-07-21 21:00:00","9.7292","3.25145","26.956","1.586","7.36","0.492","3.265","0.08","0.33","29.5682","4.68115","16.87","0","SATNPRO1964","23.924","0.3351","5"],
    [54859,"HCEP03730563","2025-07-21 21:15:00","9.7322","3.25188","26.984","1.622","7.36","0.492","2.984","0.09","0.5","29.57","4.68136","17.26","0","SATNPRO1964","24.298","0.34034","5"],
    [54860,"HCEP03730563","2025-07-21 21:30:00","9.7412","3.25267","26.99","1.68","7.37","0.465","2.686","0.06","0.14","29.5707","4.6813","17.88","0","SATNPRO1964","24.424","0.34208","5"],
    [54861,"HCEP03730563","2025-07-21 21:45:00","9.7361","3.25233","27.053","1.706","7.37","0.463","2.795","0.08","0.12","29.5714","4.68149","18.16","0","SATNPRO1964","24.21","0.33908","5"],
    [54862,"HCEP03730563","2025-07-21 22:00:00","9.7362","3.25243","27.08","1.657","7.37","0.478","3.427","0.08","0.34","29.5722","4.68161","17.63","0","SATNPRO1964","23.98","0.33588","5"],
    [54863,"HCEP03730563","2025-07-21 22:15:00","9.7368","3.25249","27.154","1.624","7.37","0.504","3.403","0.07","0.19","29.5723","4.68161","17.28","0","SATNPRO1964","24.104","0.3376","5"],
    [54864,"HCEP03730563","2025-07-21 22:30:00","9.7385","3.25263","27.218","1.635","7.37","0.468","3.287","0.05","0.18","29.5723","4.68159","17.4","0","SATNPRO1964","24.201999999999998","0.33898","5"],
    [54865,"HCEP03730563","2025-07-21 22:45:00","9.74","3.25274","27.265","1.676","7.37","0.502","3.132","0.06","0.27","29.5722","4.68156","17.84","0","SATNPRO1964","24.131999999999998","0.33802","5"],
    [54866,"HCEP03730563","2025-07-21 23:00:00","9.7418","3.25283","27.289","1.699","7.37","0.471","2.88","0.08","0.16","29.5716","4.68144","18.08","0","SATNPRO1964","24.246","0.3396","5"],
    [54867,"HCEP03730563","2025-07-21 23:15:00","9.744","3.25317","27.346","1.703","7.37","0.483","3.01","0.09","0.34","29.5731","4.68162","18.12","0","SATNPRO1964","24.306","0.34046","5"],
    [54868,"HCEP03730563","2025-07-21 23:30:00","9.7466","3.2534","27.413","1.742","7.37","0.454","3.067","0.05","0.17","29.5733","4.6816","18.54","0","SATNPRO1964","24.438000000000002","0.34228","5"],
    [54869,"HCEP03730563","2025-07-21 23:45:00","9.7468","3.25345","27.482","1.73","7.37","0.488","3.308","0.05","0.12","29.5736","4.68165","18.41","0","SATNPRO1964","24.648","0.34524","5"],
    [54870,"HCEP03730563","2025-07-22 00:00:00","9.8286","3.26079","27.512","2.124","7.39","0.531","3.235","0.09","0.21","29.5803","4.68119","22.65","0","SATNPRO1964","25.37","0.35532","5"],
    [54871,"HCEP03730563","2025-07-22 00:15:00","9.7958","3.25767","27.552","2.347","7.41","0.586","3.593","0.12","0.17","29.5758","4.68112","25.01","0","SATNPRO1964","24.704","0.34602","5"],
    [54872,"HCEP03730563","2025-07-22 00:30:00","9.7987","3.25798","27.616","2.194","7.41","0.539","3.75","0.11","0.25","29.5766","4.68119","23.38","0","SATNPRO1964","24.664","0.34548","5"],
    [54873,"HCEP03730563","2025-07-22 00:45:00","9.7928","3.25753","27.638","2.155","7.41","0.574","3.918","0.1","0.21","29.5769","4.68133","22.97","0","SATNPRO1964","24.554","0.34388","5"],
    [54874,"HCEP03730563","2025-07-22 01:00:00","9.8053","3.25847","27.644","2.191","7.41","0.518","3.84","0.09","0.27","29.576","4.68099","23.35","0","SATNPRO1964","24.686","0.34574","5"],
    [54875,"HCEP03730563","2025-07-22 01:15:00","9.799","3.25814","27.636","2.198","7.41","0.58","3.709","0.13","0.17","29.5779","4.68137","23.42","0","SATNPRO1964","24.864","0.34826","5"],
    [54876,"HCEP03730563","2025-07-22 01:30:00","9.8079","3.25893","27.611","2.252","7.41","0.571","3.508","0.1","0.15","29.5786","4.68131","24","0","SATNPRO1964","24.952","0.34948","5"],
    [54877,"HCEP03730563","2025-07-22 01:45:00","9.8169","3.25975","27.57","2.33","7.42","0.567","3.648","0.15","0.24","29.5795","4.68128","24.84","0","SATNPRO1964","24.976","0.34984","5"],
    [54878,"HCEP03730563","2025-07-22 02:00:00","9.8318","3.26105","27.541","2.434","7.43","0.588","3.715","0.15","0.3","29.5804","4.68115","25.96","0","SATNPRO1964","25.272","0.35396","5"],
    [54879,"HCEP03730563","2025-07-22 02:15:00","9.8453","3.26224","27.497","2.556","7.44","0.567","3.649","0.09","0.33","29.5812","4.68103","27.26","0","SATNPRO1964","25.496","0.3571","5"],
    [54880,"HCEP03730563","2025-07-22 02:30:00","9.8677","3.2642","27.414","2.699","7.45","0.588","3.537","0.16","0.16","29.5826","4.68084","28.8","0","SATNPRO1964","25.578","0.35826","5"],
    [54881,"HCEP03730563","2025-07-22 02:45:00","9.8905","3.26625","27.348","2.871","7.46","0.635","3.894","0.13","0.12","29.5844","4.68071","30.66","0","SATNPRO1964","25.744","0.36058","5"],
    [54882,"HCEP03730563","2025-07-22 03:00:00","9.9082","3.26785","27.229","3.015","7.47","0.558","3.709","0.1","0.23","29.586","4.68063","32.2","0","SATNPRO1964","25.896","0.36266","5"],
    [54883,"HCEP03730563","2025-07-22 03:15:00","9.9214","3.26901","27.099","3.124","7.48","0.643","3.879","0.11","0.23","29.587","4.68053","33.38","0","SATNPRO1964","26.08","0.36532","5"],
    [54884,"HCEP03730563","2025-07-22 03:30:00","9.9254","3.26928","26.949","3.205","7.49","0.567","3.716","0.08","0.21","29.5864","4.68037","34.24","0","SATNPRO1964","26.242","0.36758","5"],
    [54885,"HCEP03730563","2025-07-22 03:45:00","9.9402","3.27048","26.778","3.322","7.5","0.597","2.977","0.17","0.16","29.5864","4.6801","35.51","0","SATNPRO1964","26.406000000000002","0.36988","5"],
    [54886,"HCEP03730563","2025-07-22 04:00:00","9.9479","3.27103","26.604","3.424","7.51","0.808","4.957","0.24","1.85","29.5857","4.67987","36.61","0","SATNPRO1964","26.588","0.3724","5"],
    [54887,"HCEP03730563","2025-07-22 04:15:00","9.9648","3.27256","26.393","3.527","7.52","0.92","7.406","0.2","2.84","29.5873","4.6798","37.72","0","SATNPRO1964","26.776","0.37504","5"],
    [54888,"HCEP03730563","2025-07-22 04:30:00","9.9549","3.27184","26.183","3.538","7.53","0.674","3.886","0.15","1.11","29.5882","4.68008","37.83","0","SATNPRO1964","26.374","0.36938","5"],
    [54889,"HCEP03730563","2025-07-22 04:45:00","9.985","3.27431","25.964","3.567","7.53","0.609","3.696","0.19","0.75","29.5884","4.6796","38.17","0","SATNPRO1964","26.252","0.36772","5"],
    [54890,"HCEP03730563","2025-07-22 05:00:00","10.0365","3.27828","25.721","3.756","7.55","0.679","2.875","0.2","0.25","29.5861","4.67838","40.23","0","SATNPRO1964","26.972","0.3778","5"],
    [54891,"HCEP03730563","2025-07-22 05:15:00","10.0388","3.27833","25.503","3.92","7.56","0.656","2.775","0.18","0.19","29.5848","4.67814","41.99","0","SATNPRO1964","27.046","0.3788","5"],
    [54892,"HCEP03730563","2025-07-22 05:30:00","10.0202","3.27696","25.283","3.912","7.57","0.73","5.521","0.14","2.21","29.5864","4.67867","41.89","0","SATNPRO1964","27.144000000000002","0.3802","5"],
    [54893,"HCEP03730563","2025-07-22 05:45:00","10.0153","3.27637","25.052","3.902","7.57","1.533","32","1.42","33.97","29.5846","4.67848","41.78","0","SATNPRO1964","26.996","0.3781","5"],
    [54894,"HCEP03730563","2025-07-22 06:00:00","10.0106","3.2759","24.817","3.881","7.57","0.565","3.257","0.09","0.28","29.5839","4.67845","41.54","0","SATNPRO1964","26.546","0.3718","5"],
    [54895,"HCEP03730563","2025-07-22 06:15:00","10.0013","3.27547","24.604","3.821","7.56","0.618","2.568","0.17","0.07","29.5873","4.67908","40.9","0","SATNPRO1964","26.904","0.37684","5"],
    [54896,"HCEP03730563","2025-07-22 06:30:00","9.9978","3.27524","24.394","3.753","7.56","0.66","2.994","0.25","0.37","29.5879","4.67921","40.17","0","SATNPRO1964","26.738","0.3745","5"],
    [54897,"HCEP03730563","2025-07-22 06:45:00","10.0016","3.27557","24.169","3.763","7.56","0.586","2.266","0.22","0.12","29.5881","4.67917","40.28","0","SATNPRO1964","26.974","0.37782","5"],
    [54898,"HCEP03730563","2025-07-22 07:00:00","9.9712","3.27295","23.987","3.701","7.56","0.571","2.327","0.18","0.13","29.5869","4.6795","39.59","0","SATNPRO1964","26.759999999999998","0.37478","5"],
    [54899,"HCEP03730563","2025-07-22 07:15:00","9.9962","3.27495","23.839","3.733","7.56","0.607","2.401","0.13","0.31","29.5865","4.67901","39.95","0","SATNPRO1964","27.462","0.38468","5"],
    [54900,"HCEP03730563","2025-07-22 07:30:00","9.9449","3.27051","23.708","3.6","7.55","0.675","4.029","0.16","0.34","29.5841","4.67953","38.49","0","SATNPRO1964","26.432","0.37022","5"],
    [54901,"HCEP03730563","2025-07-22 07:45:00","9.9095","3.26756","23.62","3.249","7.53","0.608","3.878","0.17","0.18","29.5836","4.68005","34.71","0","SATNPRO1964","25.784","0.3612","5"],
    [54902,"HCEP03730563","2025-07-22 08:00:00","9.9095","3.2675","23.573","3.109","7.51","0.62","3.78","0.14","0.22","29.5829","4.67995","33.21","0","SATNPRO1964","25.332","0.3548","5"],
    [54903,"HCEP03730563","2025-07-22 08:15:00","9.8988","3.26671","23.535","3.047","7.5","0.657","3.847","0.25","0.11","29.5838","4.68026","32.54","0","SATNPRO1964","25.37","0.35532","5"],
    [54904,"NA","2025-07-22 08:30:00",null,null,null,null,null,null,null,null,null,null,null,null,null,"SATNPRO1964","25.7","0.35996","5"],
    [54905,"HCEP03730563","2025-07-22 08:30:01","9.8895","3.26606","23.533","2.954","7.49","0.686","3.992","0.44","1","29.5849","4.68058","31.54","0","NA",null,null,null],
    [54906,"HCEP03730563","2025-07-22 08:45:00","9.8835","3.26551","23.547","2.895","7.49","0.809","4.027","0.5","0.47","29.5843","4.6806","30.9","0","SATNPRO1964","25.662","0.35946","5"],
    [54907,"HCEP03730563","2025-07-22 09:00:00","9.8871","3.26587","23.551","2.899","7.48","0.602","3.426","0.17","0.15","29.5849","4.68062","30.96","0","SATNPRO1964","25.874","0.36246","5"],
    [54908,"HCEP03730563","2025-07-22 09:15:00","9.8897","3.26611","23.605","2.928","7.48","4.046","48.938","3.68","33.73","29.5852","4.68062","31.26","0","SATNPRO1964","25.894","0.3627","5"],
    [54909,"HCEP03730563","2025-07-22 09:30:00","9.8827","3.26554","23.717","2.923","7.48","0.585","4.136","0.13","0.25","29.5853","4.68076","31.2","0","SATNPRO1964","26.136","0.36612","5"],
    [54910,"HCEP03730563","2025-07-22 09:45:00","9.8959","3.26672","23.862","2.871","7.48","0.682","4.58","0.17","0.35","29.5862","4.68067","30.65","0","SATNPRO1964","25.512","0.35732","5"],
    [54911,"HCEP03730563","2025-07-22 10:00:00","9.9126","3.26839","24.017","2.957","7.48","0.615","5.184","0.12","0.27","29.5891","4.68082","31.59","0","SATNPRO1964","25.878","0.36248","5"],
    [54912,"HCEP03730563","2025-07-22 10:15:00","9.9373","3.27083","24.187","3.092","7.49","0.583","4.295","0.09","0.26","29.5933","4.68101","33.05","0","SATNPRO1964","26.006","0.36424","5"],
    [54913,"HCEP03730563","2025-07-22 10:30:00","9.9677","3.27374","24.366","3.35","7.51","0.535","3.625","0.09","0.23","29.5975","4.68109","35.83","0","SATNPRO1964","26.298000000000002","0.36834","5"],
    [54914,"HCEP03730563","2025-07-22 10:45:00","9.9903","3.27569","24.557","3.573","7.53","0.547","2.962","0.12","0.21","29.5984","4.68085","38.24","0","SATNPRO1964","26.788","0.37522","5"],
    [54915,"HCEP03730563","2025-07-22 11:00:00","9.9862","3.2751","24.709","3.657","7.54","0.543","2.921","0.15","0.11","29.5958","4.68055","39.13","0","SATNPRO1964","26.908","0.3769","5"],
    [54916,"HCEP03730563","2025-07-22 11:15:00","9.9712","3.27353","24.954","3.609","7.54","0.571","3.44","0.17","0.22","29.5924","4.68033","38.6","0","SATNPRO1964","26.778","0.37512","5"],
    [54917,"HCEP03730563","2025-07-22 11:30:00","9.9208","3.26893","25.131","3.341","7.53","0.592","4.049","0.17","0.23","29.5874","4.68048","35.7","0","SATNPRO1964","25.868","0.36238","5"],
    [54918,"HCEP03730563","2025-07-22 11:45:00","9.8899","3.26495","25.346","2.971","7.5","0.594","5.814","0.06","0.35","29.5727","4.67893","31.72","0","SATNPRO1964","25.134","0.35202","5"],
    [54919,"HCEP03730563","2025-07-22 12:00:00","9.8884","3.26594","25.581","2.758","7.48","0.618","6.142","0.07","0.37","29.5838","4.68055","29.44","0","SATNPRO1964","25.012","0.35028","5"],
    [54920,"HCEP03730563","2025-07-22 12:15:00","9.8934","3.26626","25.818","2.7","7.47","0.649","6.895","0.11","0.43","29.5828","4.68034","28.84","0","SATNPRO1964","24.866","0.34828","5"],
    [54921,"HCEP03730563","2025-07-22 12:30:00","9.9132","3.26795","26.038","2.732","7.47","0.581","6.934","0.05","0.42","29.5835","4.68012","29.19","0","SATNPRO1964","25.09","0.35146","5"],
    [54922,"HCEP03730563","2025-07-22 12:45:00","9.9308","3.26912","26.266","2.84","7.47","0.653","6.767","0.09","0.35","29.5806","4.67942","30.35","0","SATNPRO1964","25.316","0.35458","5"],
    [54923,"HCEP03730563","2025-07-22 13:00:00","9.954","3.27122","26.463","2.994","7.48","0.596","6.304","0.06","0.29","29.5826","4.67932","32.02","0","SATNPRO1964","25.55","0.35788","5"],
    [54924,"HCEP03730563","2025-07-22 13:15:00","9.9619","3.2717","26.585","3.108","7.49","0.604","6.641","0.05","0.45","29.5809","4.67894","33.24","0","SATNPRO1964","26.034","0.36468","5"],
    [54925,"HCEP03730563","2025-07-22 13:30:00","10.0042","3.27521","26.763","3.273","7.5","0.569","5.731","0.05","0.22","29.5813","4.6783","35.04","0","SATNPRO1964","25.906","0.36284","5"],
    [54926,"HCEP03730563","2025-07-22 13:45:00","10.0033","3.27484","26.926","3.38","7.51","0.654","5.623","0.11","0.32","29.5784","4.67791","36.18","0","SATNPRO1964","25.808","0.36146","5"],
    [54927,"HCEP03730563","2025-07-22 14:00:00","10.0235","3.27651","27.101","3.398","7.52","0.684","4.932","0.26","0.32","29.5784","4.67758","36.39","0","SATNPRO1964","26.014","0.36438","5"],
    [54928,"HCEP03730563","2025-07-22 14:15:00","10.0192","3.27543","27.231","3.406","7.52","0.675","5.443","0.09","0.39","29.5711","4.67662","36.47","0","SATNPRO1964","25.992","0.36402","5"],
    [54929,"HCEP03730563","2025-07-22 14:30:00","10.0058","3.27434","27.356","3.348","7.52","0.626","5.677","0.1","0.42","29.5711","4.67685","35.84","0","SATNPRO1964","25.598","0.35854","5"],
    [54930,"HCEP03730563","2025-07-22 14:45:00","9.9018","3.26579","27.461","2.939","7.5","0.615","5.715","0.15","0.36","29.5705","4.67854","31.39","0","SATNPRO1964","24.782","0.3471","5"],
    [54931,"HCEP03730563","2025-07-22 15:00:00","9.8329","3.26016","27.531","2.388","7.46","0.52","5.216","0.08","0.24","29.5705","4.67971","25.47","0","SATNPRO1964","24.35","0.34104","5"],
    [54932,"HCEP03730563","2025-07-22 15:15:00","9.8022","3.25744","27.601","2.039","7.43","0.603","5.097","0.13","0.49","29.5683","4.67994","21.73","0","SATNPRO1964","24.078","0.33726","5"],
    [54933,"HCEP03730563","2025-07-22 15:30:00","9.7856","3.25585","27.64","1.856","7.41","0.496","4.348","0.1","0.23","29.5659","4.67988","19.77","0","SATNPRO1964","24.14","0.33816","5"],
    [54934,"HCEP03730563","2025-07-22 15:45:00","9.7982","3.25697","27.653","1.833","7.4","0.542","4.949","0.12","0.26","29.5668","4.6798","19.53","0","SATNPRO1964","23.926","0.3351","5"],
    [54935,"HCEP03730563","2025-07-22 16:00:00","9.8082","3.25763","27.708","1.899","7.4","0.623","5.126","0.61","0.59","29.5652","4.6794","20.24","0","SATNPRO1964","24.538","0.34372","5"],
    [54936,"HCEP03730563","2025-07-22 16:15:00","9.8037","3.25712","27.72","1.935","7.4","0.562","5.251","0.11","0.31","29.5638","4.67927","20.62","0","SATNPRO1964","24.282","0.34014","5"],
    [54937,"HCEP03730563","2025-07-22 16:30:00","9.795","3.2563","27.763","1.887","7.39","0.493","5.019","0.07","0.27","29.5626","4.67926","20.11","0","SATNPRO1964","24.35","0.34104","5"],
    [54938,"HCEP03730563","2025-07-22 16:45:00","9.7859","3.2554","27.736","1.84","7.39","0.673","5.262","0.84","0.65","29.5611","4.67919","19.6","0","SATNPRO1964","24.446","0.34242","5"],
    [54939,"HCEP03730563","2025-07-22 17:00:00","9.7709","3.25388","27.737","1.78","7.39","0.51","4.3","0.09","0.21","29.5581","4.67902","18.95","0","SATNPRO1964","24.338","0.34092","5"],
    [54940,"HCEP03730563","2025-07-22 17:15:00","9.762","3.25309","27.67","1.715","7.38","0.526","4.485","0.08","0.23","29.5575","4.67909","18.26","0","SATNPRO1964","24.344","0.34102","5"],
    [54941,"HCEP03730563","2025-07-22 17:30:00","9.754","3.25225","27.621","1.624","7.37","0.51","4.308","0.12","0.28","29.5557","4.67897","17.28","0","SATNPRO1964","24.128","0.33794","5"],
    [54942,"HCEP03730563","2025-07-22 17:45:00","9.7527","3.25205","27.593","1.578","7.37","0.542","4.323","0.09","0.33","29.5547","4.67885","16.8","0","SATNPRO1964","24","0.33618","5"],
    [54943,"HCEP03730563","2025-07-22 18:00:00","9.7496","3.25152","27.561","1.57","7.37","0.513","3.81","0.1","0.18","29.5519","4.6785","16.71","0","SATNPRO1964","24.154","0.33834","5"],
    [54944,"HCEP03730563","2025-07-22 18:15:00","9.7482","3.25138","27.485","1.546","7.36","0.587","4.256","0.16","0.33","29.5517","4.67849","16.45","0","SATNPRO1964","23.992","0.33602","5"],
    [54945,"HCEP03730563","2025-07-22 18:30:00","9.7472","3.25126","27.411","1.527","7.36","0.521","4.153","0.09","0.28","29.5513","4.67845","16.25","0","SATNPRO1964","24.035999999999998","0.3366","5"],
    [54946,"HCEP03730563","2025-07-22 18:45:00","9.7467","3.25122","27.365","1.506","7.36","0.582","4.532","0.1","0.39","29.5514","4.67846","16.02","0","SATNPRO1964","23.9","0.33476","5"],
    [54947,"HCEP03730563","2025-07-22 19:00:00","9.7456","3.25111","27.295","1.49","7.36","0.589","4.642","0.12","0.33","29.5512","4.67845","15.86","0","SATNPRO1964","23.89","0.33466","5"],
    [54948,"HCEP03730563","2025-07-22 19:15:00","9.7462","3.2511","27.25","1.488","7.36","0.632","4.801","0.14","0.34","29.5506","4.67835","15.83","0","SATNPRO1964","23.936","0.33526","5"],
    [54949,"HCEP03730563","2025-07-22 19:30:00","9.7474","3.25116","27.203","1.49","7.36","0.65","4.29","0.3","0.32","29.5502","4.67828","15.85","0","SATNPRO1964","23.972","0.33578","5"],
    [54950,"HCEP03730563","2025-07-22 19:45:00","9.7478","3.25118","27.141","1.486","7.36","0.591","4.093","0.11","0.33","29.5501","4.67824","15.82","0","SATNPRO1964","23.774","0.33298","5"],
    [54951,"HCEP03730563","2025-07-22 20:00:00","9.7478","3.25114","27.082","1.482","7.36","1.94","34.682","1.45","32.52","29.5498","4.6782","15.77","0","SATNPRO1964","24.004","0.3362","5"],
    [54952,"HCEP03730563","2025-07-22 20:15:00","9.7476","3.25116","27.048","1.477","7.36","1.67","35.54","2.29","35.23","29.5501","4.67825","15.71","0","SATNPRO1964","23.87","0.33434","5"],
    [54953,"HCEP03730563","2025-07-22 20:30:00","9.7478","3.25112","26.962","1.477","7.36","0.519","3.846","0.11","0.2","29.5496","4.67817","15.72","0","SATNPRO1964","23.756","0.33268","5"],
    [54954,"HCEP03730563","2025-07-22 20:45:00","9.748","3.25112","26.933","1.484","7.36","0.53","3.612","0.15","0.18","29.5494","4.67814","15.79","0","SATNPRO1964","23.838","0.3339","5"],
    [54955,"HCEP03730563","2025-07-22 21:00:00","9.7488","3.25112","26.863","1.492","7.36","0.482","3.726","0.09","0.81","29.5488","4.67803","15.88","0","SATNPRO1964","23.788","0.33318","5"],
    [54956,"HCEP03730563","2025-07-22 21:15:00","9.7496","3.25109","26.875","1.504","7.36","0.524","3.649","0.15","0.98","29.5479","4.67789","16.01","0","SATNPRO1964","24.004","0.33622","5"],
    [54957,"HCEP03730563","2025-07-22 21:30:00","9.7487","3.251","26.842","1.499","7.36","0.563","3.63","0.13","0.25","29.5477","4.67787","15.95","0","SATNPRO1964","23.812","0.33354","5"],
    [54958,"HCEP03730563","2025-07-22 21:45:00","9.7466","3.25088","26.839","1.465","7.35","0.541","3.921","0.09","0.28","29.5482","4.67797","15.59","0","SATNPRO1964","23.566","0.33008","5"],
    [54959,"HCEP03730563","2025-07-22 22:00:00","9.7451","3.25076","26.837","1.417","7.35","0.494","4.218","0.06","0.28","29.5482","4.67801","15.08","0","SATNPRO1964","23.448","0.32844","5"],
    [54960,"HCEP03730563","2025-07-22 22:15:00","9.7447","3.25073","26.886","1.397","7.35","0.52","4.016","0.08","0.4","29.5483","4.67803","14.86","0","SATNPRO1964","23.618","0.33082","5"],
    [54961,"HCEP03730563","2025-07-22 22:30:00","9.7442","3.25068","26.914","1.399","7.35","0.479","4.286","0.05","0.2","29.5481","4.67802","14.89","0","SATNPRO1964","23.7","0.33194","5"],
    [54962,"HCEP03730563","2025-07-22 22:45:00","9.7444","3.25069","26.947","1.406","7.35","0.526","3.648","0.1","0.19","29.5481","4.67801","14.96","0","SATNPRO1964","23.556","0.32994","5"],
    [54963,"HCEP03730563","2025-07-22 23:00:00","9.7443","3.25076","27.009","1.402","7.35","0.528","3.712","0.1","0.19","29.5488","4.67812","14.92","0","SATNPRO1964","23.732","0.33242","5"],
    [54964,"HCEP03730563","2025-07-22 23:15:00","9.7441","3.25079","27.069","1.399","7.35","0.555","3.572","0.14","0.23","29.5492","4.67818","14.88","0","SATNPRO1964","23.592000000000002","0.33042","5"],
    [54965,"HCEP03730563","2025-07-22 23:30:00","9.7442","3.25085","27.124","1.397","7.35","0.46","3.718","0.07","0.14","29.5498","4.67826","14.87","0","SATNPRO1964","23.572","0.33016","5"],
    [54966,"HCEP03730563","2025-07-22 23:45:00","9.7449","3.25094","27.17","1.39","7.35","0.538","3.644","0.11","0.15","29.5501","4.6783","14.79","0","SATNPRO1964","23.554","0.3299","5"],
    [54967,"HCEP03730563","2025-07-23 00:00:00","9.7457","3.25104","27.241","1.373","7.35","0.5","4.344","0.11","0.27","29.5504","4.67833","14.62","0","SATNPRO1964","23.218","0.32516","5"],
    [54968,"HCEP03730563","2025-07-23 00:15:00","9.7456","3.25104","27.281","1.372","7.35","0.534","3.691","0.12","0.13","29.5505","4.67835","14.6","0","SATNPRO1964","23.72","0.33224","5"],
    [54969,"HCEP03730563","2025-07-23 00:30:00","9.7468","3.25116","27.351","1.377","7.35","0.584","3.957","0.16","0.23","29.5507","4.67836","14.66","0","SATNPRO1964","23.758","0.33276","5"],
    [54970,"HCEP03730563","2025-07-23 00:45:00","9.7492","3.25135","27.416","1.389","7.35","0.522","3.699","0.1","0.19","29.5505","4.6783","14.78","0","SATNPRO1964","23.636","0.33106","5"],
    [54971,"HCEP03730563","2025-07-23 01:00:00","9.7538","3.2517","27.451","1.426","7.35","0.518","3.89","0.12","0.21","29.5503","4.6782","15.17","0","SATNPRO1964","23.824","0.33368","5"],
    [54972,"HCEP03730563","2025-07-23 01:15:00","9.7617","3.25247","27.517","1.478","7.35","0.538","4.154","0.08","0.21","29.5515","4.67824","15.73","0","SATNPRO1964","24.112000000000002","0.33776","5"],
    [54973,"HCEP03730563","2025-07-23 01:30:00","9.7738","3.25348","27.579","1.559","7.36","0.528","4.562","0.09","0.36","29.5518","4.67807","16.6","0","SATNPRO1964","23.978","0.33584","5"],
    [54974,"HCEP03730563","2025-07-23 01:45:00","9.7943","3.2554","27.601","1.685","7.36","0.545","4.399","0.09","0.39","29.5542","4.67806","17.96","0","SATNPRO1964","24.224","0.33928","5"],
    [54975,"HCEP03730563","2025-07-23 02:00:00","9.8124","3.25694","27.628","1.811","7.37","0.541","4.48","0.08","0.25","29.5549","4.67784","19.3","0","SATNPRO1964","24.36","0.34116","5"],
    [54976,"HCEP03730563","2025-07-23 02:15:00","9.8421","3.25975","27.625","1.953","7.38","0.565","4.433","0.09","0.38","29.5588","4.67789","20.83","0","SATNPRO1964","24.268","0.33988","5"],
    [54977,"HCEP03730563","2025-07-23 02:30:00","9.8634","3.26169","27.634","2.08","7.39","0.55","4.533","0.08","0.2","29.5607","4.67781","22.2","0","SATNPRO1964","24.506","0.34324","5"],
    [54978,"HCEP03730563","2025-07-23 02:45:00","9.8856","3.26398","27.601","2.207","7.4","0.536","4.299","0.04","0.19","29.5656","4.67812","23.56","0","SATNPRO1964","24.544","0.3438","5"],
    [54979,"HCEP03730563","2025-07-23 03:00:00","9.9057","3.26606","27.559","2.344","7.41","0.594","4.272","0.14","0.58","29.57","4.6784","25.04","0","SATNPRO1964","24.695999999999998","0.34592","5"],
    [54980,"HCEP03730563","2025-07-23 03:15:00","9.9311","3.26852","27.519","2.519","7.43","0.537","4.026","0.06","0.2","29.5739","4.67853","26.92","0","SATNPRO1964","24.842","0.34798","5"],
    [54981,"HCEP03730563","2025-07-23 03:30:00","9.9381","3.26898","27.442","2.634","7.44","0.545","4.352","0.08","0.2","29.5728","4.67824","28.15","0","SATNPRO1964","25.046","0.35082","5"],
    [54982,"HCEP03730563","2025-07-23 03:45:00","9.95","3.27001","27.354","2.673","7.45","0.583","4.749","0.08","0.17","29.5735","4.67813","28.57","0","SATNPRO1964","25.034","0.3506","5"],
    [54983,"HCEP03730563","2025-07-23 04:00:00","9.9688","3.27182","27.252","2.76","7.45","0.575","4.514","0.1","0.23","29.5762","4.6782","29.52","0","SATNPRO1964","25.108","0.35166","5"],
    [54984,"HCEP03730563","2025-07-23 04:15:00","10.0049","3.27513","27.102","2.952","7.47","0.531","4.222","0.03","0.14","29.5799","4.6781","31.59","0","SATNPRO1964","25.472","0.35678","5"],
    [54985,"HCEP03730563","2025-07-23 04:30:00","10.0301","3.27743","26.956","3.139","7.48","0.563","4.541","0.07","0.18","29.5823","4.67802","33.62","0","SATNPRO1964","25.5","0.35712","5"],
    [54986,"HCEP03730563","2025-07-23 04:45:00","10.0539","3.2797","26.768","3.344","7.5","0.571","4.315","0.06","0.3","29.5856","4.67808","35.84","0","SATNPRO1964","25.902","0.36282","5"],
    [54987,"HCEP03730563","2025-07-23 05:00:00","10.0811","3.2821","26.56","3.534","7.52","0.609","4.195","0.16","0.22","29.5875","4.67788","37.89","0","SATNPRO1964","26.146","0.36624","5"],
    [54988,"HCEP03730563","2025-07-23 05:15:00","10.118","3.28553","26.369","3.691","7.54","0.649","4.203","0.1","0.31","29.5915","4.67783","39.61","0","SATNPRO1964","26.184","0.36678","5"],
    [54989,"HCEP03730563","2025-07-23 05:30:00","10.1432","3.28773","26.143","3.817","7.55","0.61","3.671","0.09","0.12","29.5931","4.67762","40.98","0","SATNPRO1964","26.268","0.36792","5"],
    [54990,"HCEP03730563","2025-07-23 05:45:00","10.1726","3.29043","25.906","3.941","7.56","0.577","3.013","0.11","0.13","29.5961","4.67755","42.34","0","SATNPRO1964","26.492","0.37106","5"],
    [54991,"HCEP03730563","2025-07-23 06:00:00","10.1765","3.29024","25.672","4.054","7.58","0.544","2.609","0.06","0.15","29.5911","4.67676","43.56","0","SATNPRO1964","26.574","0.3722","5"],
    [54992,"HCEP03730563","2025-07-23 06:15:00","10.168","3.28985","25.435","4.031","7.58","0.605","3.071","0.15","0.13","29.5943","4.67733","43.31","0","SATNPRO1964","26.334","0.36886","5"],
    [54993,"HCEP03730563","2025-07-23 06:30:00","10.1573","3.28891","25.198","3.946","7.58","0.519","3.417","0.06","0.16","29.5937","4.67742","42.39","0","SATNPRO1964","26.27","0.36794","5"],
    [54994,"HCEP03730563","2025-07-23 06:45:00","10.1483","3.28812","24.962","3.9","7.58","0.616","3.58","0.11","0.13","29.5933","4.6775","41.88","0","SATNPRO1964","26.246","0.3676","5"],
    [54995,"HCEP03730563","2025-07-23 07:00:00","10.1341","3.28685","24.715","3.841","7.57","0.582","4.016","0.09","0.16","29.5923","4.67758","41.23","0","SATNPRO1964","26.132","0.36602","5"],
    [54996,"HCEP03730563","2025-07-23 07:15:00","10.1548","3.28879","24.427","3.853","7.57","0.676","3.249","0.17","0.15","29.5949","4.67758","41.38","0","SATNPRO1964","26.196","0.3669","5"],
    [54997,"HCEP03730563","2025-07-23 07:30:00","10.1494","3.28839","24.211","3.893","7.57","0.543","3.619","0.06","0.29","29.5953","4.67773","41.81","0","SATNPRO1964","26.31","0.36852","5"],
    [54998,"HCEP03730563","2025-07-23 07:45:00","10.1362","3.28702","24.009","3.859","7.57","0.65","4.224","0.24","0.27","29.5926","4.67755","41.43","0","SATNPRO1964","26.088","0.36538","5"],
    [54999,"HCEP03730563","2025-07-23 08:00:00","10.1216","3.28574","23.829","3.802","7.57","0.642","4.671","0.29","1.08","29.5918","4.67766","40.8","0","SATNPRO1964","26.07","0.36514","5"],
    [55000,"HCEP03730563","2025-07-23 08:15:00","10.0986","3.28358","23.691","3.734","7.56","2.105","12.732","1.37","6.49","29.5891","4.67765","40.05","0","SATNPRO1964","26.05","0.36486","5"],
    [55001,"HCEP03730563","2025-07-23 08:30:00","10.083","3.2824","23.586","3.666","7.56","0.721","3.915","0.86","0.26","29.59","4.67804","39.31","0","SATNPRO1964","26.088","0.36538","5"],
    [55002,"HCEP03730563","2025-07-23 08:45:00","10.0882","3.28328","23.513","3.658","7.55","0.532","4.054","0.1","0.75","29.5947","4.67861","39.23","0","SATNPRO1964","26.174","0.36662","5"],
    [55003,"HCEP03730563","2025-07-23 09:00:00","10.0961","3.2842","23.459","3.699","7.56","0.466","2.791","0.09","0.26","29.5974","4.67887","39.68","0","SATNPRO1964","26.218","0.36722","5"],
    [55004,"HCEP03730563","2025-07-23 09:15:00","10.1126","3.28571","23.449","3.732","7.56","0.51","2.719","0.07","0.15","29.599","4.67883","40.05","0","SATNPRO1964","26.166","0.36648","5"],
    [55005,"HCEP03730563","2025-07-23 09:30:00","10.107","3.28514","23.458","3.783","7.56","0.572","2.893","0.12","0.14","29.5979","4.67876","40.59","0","SATNPRO1964","26.44","0.37034","5"],
    [55006,"HCEP03730563","2025-07-23 09:45:00","10.1085","3.2851","23.483","3.751","7.56","0.555","3.012","0.12","0.12","29.5963","4.6785","40.25","0","SATNPRO1964","26.236","0.36748","5"],
    [55007,"HCEP03730563","2025-07-23 10:00:00","10.1076","3.28494","23.564","3.75","7.56","0.535","3.128","0.1","0.22","29.5953","4.67838","40.23","0","SATNPRO1964","26.23","0.36742","5"],
    [55008,"HCEP03730563","2025-07-23 10:15:00","10.0735","3.28141","23.662","3.638","7.56","0.599","4.004","0.19","0.2","29.588","4.67792","39","0","SATNPRO1964","26.078","0.36528","5"],
    [55009,"HCEP03730563","2025-07-23 10:30:00","10.0778","3.28215","23.796","3.504","7.55","0.512","4.481","0.06","0.26","29.5917","4.67838","37.57","0","SATNPRO1964","25.756","0.36074","5"],
    [55010,"HCEP03730563","2025-07-23 10:45:00","10.1204","3.28645","23.952","3.616","7.55","0.558","3.721","0.08","0.8","29.5998","4.67883","38.81","0","SATNPRO1964","26.202","0.36698","5"],
    [55011,"HCEP03730563","2025-07-23 11:00:00","10.1648","3.29122","24.145","3.828","7.56","0.515","3.501","0.08","0.27","29.611","4.6797","41.12","0","SATNPRO1964","26.382","0.36952","5"],
    [55012,"HCEP03730563","2025-07-23 11:15:00","10.1928","3.29321","24.32","3.964","7.57","0.593","3.157","0.28","0.36","29.6079","4.67881","42.61","0","SATNPRO1964","26.346","0.369","5"],
    [55013,"HCEP03730563","2025-07-23 11:30:00","10.2397","3.29704","24.515","4.086","7.59","0.517","2.716","0.1","0.08","29.6077","4.67802","43.97","0","SATNPRO1964","26.298000000000002","0.36838","5"],
    [55014,"HCEP03730563","2025-07-23 11:45:00","10.2271","3.29593","24.692","4.153","7.6","0.586","2.976","0.19","0.14","29.6068","4.67811","44.67","0","SATNPRO1964","26.592","0.37242","5"],
    [55015,"HCEP03730563","2025-07-23 12:00:00","10.1952","3.29317","24.908","4.131","7.6","0.591","4.781","0.12","0.58","29.6053","4.67843","44.42","0","SATNPRO1964","26.738","0.3745","5"],
    [55016,"HCEP03730563","2025-07-23 12:15:00","10.0656","3.28118","25.086","3.761","7.58","0.625","6.497","0.09","0.45","29.5915","4.67863","40.32","0","SATNPRO1964","25.48","0.35686","5"],
    [55017,"HCEP03730563","2025-07-23 12:30:00","10.0243","3.27743","25.266","3.304","7.54","0.614","6.555","0.06","0.28","29.5878","4.6788","35.39","0","SATNPRO1964","25.318","0.3546","5"],
    [55018,"HCEP03730563","2025-07-23 12:45:00","9.9839","3.27347","25.471","3.068","7.52","0.581","6.063","0.08","0.93","29.5811","4.67855","32.83","0","SATNPRO1964","25.168","0.35248","5"],
    [55019,"HCEP03730563","2025-07-23 13:00:00","9.9815","3.27302","25.689","2.944","7.5","0.561","6.478","0.09","0.41","29.5784","4.67821","31.49","0","SATNPRO1964","25.198","0.35292","5"],
    [55020,"HCEP03730563","2025-07-23 13:15:00","9.9953","3.27409","25.915","2.995","7.5","0.592","5.011","0.11","0.62","29.5778","4.6779","32.05","0","SATNPRO1964","25.556","0.35798","5"],
    [55021,"HCEP03730563","2025-07-23 13:30:00","10.0534","3.2795","26.159","3.244","7.51","0.581","5.388","0.1","0.17","29.5843","4.67786","34.76","0","SATNPRO1964","25.658","0.35938","5"],
    [55022,"HCEP03730563","2025-07-23 13:45:00","10.0414","3.27843","26.416","3.307","7.51","0.559","5.649","0.07","0.37","29.5833","4.67794","35.43","0","SATNPRO1964","25.588","0.35846","5"],
    [55023,"HCEP03730563","2025-07-23 14:00:00","10.0496","3.27899","26.596","3.268","7.51","1.154","27.296","0.58","20.12","29.5821","4.67764","35.02","0","SATNPRO1964","25.262","0.35382","5"],
    [55024,"HCEP03730563","2025-07-23 14:15:00","10.0283","3.27704","26.788","3.193","7.51","0.603","6.142","0.09","0.34","29.58","4.67771","34.2","0","SATNPRO1964","25.27","0.35392","5"],
    [55025,"HCEP03730563","2025-07-23 14:30:00","10.014","3.27569","27.004","3.058","7.5","0.577","5.786","0.07","0.38","29.5781","4.67769","32.74","0","SATNPRO1964","25.068","0.3511","5"],
    [55026,"HCEP03730563","2025-07-23 14:45:00","9.9939","3.27388","27.151","2.94","7.49","0.582","5.902","0.08","0.74","29.5763","4.67778","31.47","0","SATNPRO1964","24.888","0.34858","5"],
    [55027,"HCEP03730563","2025-07-23 15:00:00","9.982","3.27276","27.321","2.837","7.48","0.547","5.42","0.1","0.31","29.5748","4.67778","30.36","0","SATNPRO1964","24.742","0.34656","5"],
    [55028,"HCEP03730563","2025-07-23 15:15:00","9.9637","3.27101","27.457","2.741","7.47","0.531","4.871","0.07","0.13","29.5722","4.67772","29.31","0","SATNPRO1964","24.698","0.34596","5"],
    [55029,"HCEP03730563","2025-07-23 15:30:00","9.9105","3.26611","27.566","2.547","7.46","0.497","4.928","0.06","0.17","29.5665","4.67783","27.21","0","SATNPRO1964","24.404","0.34186","5"],
    [55030,"HCEP03730563","2025-07-23 15:45:00","9.8884","3.26406","27.649","2.33","7.44","0.559","4.716","0.11","0.32","29.5641","4.67786","24.88","0","SATNPRO1964","24.224","0.3393","5"],
    [55031,"HCEP03730563","2025-07-23 16:00:00","9.8791","3.26314","27.75","2.205","7.43","0.541","5.129","0.12","0.38","29.5624","4.67778","23.54","0","SATNPRO1964","24.262","0.33984","5"],
    [55032,"HCEP03730563","2025-07-23 16:15:00","9.8781","3.26305","27.8","2.144","7.42","0.544","5.225","0.08","0.45","29.5623","4.67779","22.89","0","SATNPRO1964","24.476","0.34282","5"],
    [55033,"HCEP03730563","2025-07-23 16:30:00","9.8752","3.26266","27.843","2.125","7.42","0.517","4.486","0.09","0.2","29.5608","4.67762","22.68","0","SATNPRO1964","24.174","0.3386","5"],
    [55034,"HCEP03730563","2025-07-23 16:45:00","9.8641","3.26159","27.828","2.081","7.41","0.55","4.767","0.13","0.23","29.5591","4.67757","22.21","0","SATNPRO1964","24.080000000000002","0.33728","5"],
    [55035,"HCEP03730563","2025-07-23 17:00:00","9.8522","3.26044","27.86","1.997","7.41","0.572","4.433","0.14","0.2","29.5574","4.67753","21.31","0","SATNPRO1964","23.962","0.33564","5"],
    [55036,"HCEP03730563","2025-07-23 17:15:00","9.8377","3.25913","27.868","1.903","7.4","0.586","4.465","0.15","0.2","29.5561","4.67759","20.3","0","SATNPRO1964","23.934","0.33522","5"],
    [55037,"HCEP03730563","2025-07-23 17:30:00","9.8271","3.25801","27.865","1.801","7.39","0.48","4.585","0.09","0.35","29.5536","4.67742","19.2","0","SATNPRO1964","23.75","0.33268","5"],
    [55038,"HCEP03730563","2025-07-23 17:45:00","9.817","3.25692","27.857","1.718","7.38","0.556","4.441","0.14","0.32","29.5509","4.67721","18.31","0","SATNPRO1964","23.85","0.33406","5"],
    [55039,"HCEP03730563","2025-07-23 18:00:00","9.8029","3.25538","27.792","1.625","7.38","0.529","4.442","0.1","0.23","29.5469","4.67688","17.31","0","SATNPRO1964","23.514","0.32938","5"],
    [55040,"HCEP03730563","2025-07-23 18:15:00","9.7961","3.25437","27.759","1.519","7.37","0.548","4.593","0.09","0.22","29.5423","4.67634","16.18","0","SATNPRO1964","23.266000000000002","0.32586","5"],
    [55041,"HCEP03730563","2025-07-23 18:30:00","9.7843","3.25346","27.717","1.41","7.36","0.541","4.542","0.18","0.61","29.5429","4.67663","15.02","0","SATNPRO1964","23.036","0.32264","5"],
    [55042,"HCEP03730563","2025-07-23 18:45:00","9.7828","3.25333","27.68","1.359","7.35","0.521","4.714","0.07","0.49","29.5428","4.67663","14.48","0","SATNPRO1964","23.052","0.32286","5"],
    [55043,"HCEP03730563","2025-07-23 19:00:00","9.7748","3.25255","27.565","1.317","7.35","0.495","4.02","0.1","0.23","29.5416","4.67659","14.02","0","SATNPRO1964","22.956","0.32152","5"],
    [55044,"HCEP03730563","2025-07-23 19:15:00","9.7712","3.25217","27.517","1.281","7.34","0.586","4.303","0.18","0.81","29.5408","4.67653","13.64","0","SATNPRO1964","22.964000000000002","0.32162","5"],
    [55045,"HCEP03730563","2025-07-23 19:30:00","9.7739","3.25235","27.457","1.271","7.34","0.515","4.221","0.13","0.26","29.5403","4.67642","13.53","0","SATNPRO1964","22.866","0.32026","5"],
    [55046,"HCEP03730563","2025-07-23 19:45:00","9.7755","3.25265","27.367","1.292","7.34","0.524","3.817","0.09","0.26","29.5421","4.67664","13.76","0","SATNPRO1964","23.104","0.32362","5"],
    [55047,"HCEP03730563","2025-07-23 20:00:00","9.7907","3.25407","27.32","1.363","7.34","0.499","4.222","0.06","0.15","29.544","4.67664","14.52","0","SATNPRO1964","23.108","0.32364","5"],
    [55048,"HCEP03730563","2025-07-23 20:15:00","9.7997","3.25509","27.221","1.451","7.35","0.508","3.97","0.06","0.13","29.5469","4.6769","15.45","0","SATNPRO1964","23.355999999999998","0.32716","5"],
    [55049,"HCEP03730563","2025-07-23 20:30:00","9.8165","3.257","27.182","1.554","7.35","0.531","4.102","0.12","0.18","29.5523","4.67738","16.56","0","SATNPRO1964","23.642","0.33116","5"],
    [55050,"HCEP03730563","2025-07-23 20:45:00","9.8357","3.25868","27.09","1.729","7.36","0.509","3.916","0.07","0.52","29.5535","4.67722","18.44","0","SATNPRO1964","23.982","0.3359","5"],
    [55051,"HCEP03730563","2025-07-23 21:00:00","9.8965","3.26436","26.999","2.005","7.38","0.468","3.478","0.04","0.11","29.5607","4.67719","21.4","0","SATNPRO1964","24.376","0.34138","5"],
    [55052,"HCEP03730563","2025-07-23 21:15:00","9.8662","3.26169","26.947","2.085","7.39","0.503","4.392","0.06","0.14","29.5589","4.67745","22.25","0","SATNPRO1964","23.7","0.33196","5"],
    [55053,"HCEP03730563","2025-07-23 21:30:00","9.8536","3.26047","26.851","1.926","7.39","0.501","4.302","0.06","0.1","29.5569","4.67738","20.54","0","SATNPRO1964","23.762","0.33284","5"],
    [55054,"HCEP03730563","2025-07-23 21:45:00","9.8582","3.26089","26.832","1.895","7.39","0.53","4.575","0.06","0.19","29.5574","4.67737","20.22","0","SATNPRO1964","23.503999999999998","0.32924","5"],
    [55055,"HCEP03730563","2025-07-23 22:00:00","9.8596","3.26116","26.786","1.873","7.39","0.518","4.813","0.07","0.2","29.5589","4.67756","19.98","0","SATNPRO1964","23.67","0.33154","5"],
    [55056,"HCEP03730563","2025-07-23 22:15:00","9.8703","3.26219","26.745","1.916","7.39","0.549","4.619","0.08","0.14","29.5605","4.67761","20.44","0","SATNPRO1964","23.666","0.3315","5"],
    [55057,"HCEP03730563","2025-07-23 22:30:00","9.8772","3.26285","26.775","1.971","7.39","0.538","4.863","0.08","0.2","29.5615","4.67763","21.03","0","SATNPRO1964","23.782","0.33312","5"],
    [55058,"HCEP03730563","2025-07-23 22:45:00","9.8839","3.26353","26.778","2.006","7.39","0.623","4.891","0.21","0.2","29.5628","4.67769","21.42","0","SATNPRO1964","23.78","0.33308","5"],
    [55059,"HCEP03730563","2025-07-23 23:00:00","9.8847","3.26366","26.803","2.032","7.4","0.547","4.978","0.06","0.14","29.5634","4.67777","21.7","0","SATNPRO1964","23.848","0.33406","5"],
    [55060,"HCEP03730563","2025-07-23 23:15:00","9.8821","3.26336","26.837","2.029","7.4","0.556","4.815","0.08","0.22","29.5626","4.6777","21.66","0","SATNPRO1964","23.678","0.33166","5"],
    [55061,"HCEP03730563","2025-07-23 23:30:00","9.8731","3.26252","26.882","1.991","7.4","0.569","4.919","0.11","0.33","29.5614","4.67769","21.25","0","SATNPRO1964","23.694","0.33182","5"],
    [55062,"HCEP03730563","2025-07-23 23:45:00","9.8745","3.26264","26.918","1.974","7.4","0.537","4.683","0.06","0.15","29.5616","4.67769","21.06","0","SATNPRO1964","23.742","0.33254","5"],
    [55063,"HCEP03730563","2025-07-24 00:00:00","9.8862","3.2637","26.993","2.019","7.4","0.571","4.53","0.23","0.17","29.5625","4.67763","21.56","0","SATNPRO1964","23.778","0.33304","5"],
    [55064,"HCEP03730563","2025-07-24 00:15:00","9.8777","3.26291","27.067","2.037","7.4","0.566","4.431","0.07","0.14","29.5616","4.67765","21.74","0","SATNPRO1964","23.9","0.33476","5"],
    [55065,"HCEP03730563","2025-07-24 00:30:00","9.8872","3.26385","27.121","2.054","7.4","0.539","4.48","0.07","0.25","29.5632","4.67772","21.93","0","SATNPRO1964","24.018","0.3364","5"],
    [55066,"HCEP03730563","2025-07-24 00:45:00","9.8864","3.26376","27.184","2.09","7.4","0.558","4.488","0.07","0.19","29.563","4.67771","22.31","0","SATNPRO1964","23.94","0.33532","5"],
    [55067,"HCEP03730563","2025-07-24 01:00:00","9.8882","3.264","27.249","2.103","7.4","0.541","4.314","0.14","0.14","29.5639","4.67781","22.46","0","SATNPRO1964","24.092","0.33742","5"],
    [55068,"HCEP03730563","2025-07-24 01:15:00","9.9013","3.26531","27.335","2.165","7.41","0.594","4.85","0.12","0.33","29.5662","4.67792","23.12","0","SATNPRO1964","24.166","0.3385","5"],
    [55069,"HCEP03730563","2025-07-24 01:30:00","9.9282","3.26799","27.407","2.297","7.42","0.561","4.516","0.09","0.13","29.571","4.67815","24.55","0","SATNPRO1964","24.36","0.3412","5"],
    [55070,"HCEP03730563","2025-07-24 01:45:00","9.9499","3.27019","27.471","2.466","7.43","0.627","4.722","0.16","0.25","29.5752","4.67839","26.36","0","SATNPRO1964","24.612000000000002","0.34474","5"],
    [55071,"HCEP03730563","2025-07-24 02:00:00","9.9792","3.27303","27.539","2.631","7.44","0.544","4.574","0.07","0.17","29.5798","4.67855","28.15","0","SATNPRO1964","24.695999999999998","0.34594","5"],
    [55072,"HCEP03730563","2025-07-24 02:15:00","9.9952","3.27446","27.613","2.787","7.45","0.592","4.838","0.09","0.11","29.5808","4.67843","29.83","0","SATNPRO1964","24.996000000000002","0.35016","5"],
    [55073,"HCEP03730563","2025-07-24 02:30:00","9.9981","3.27467","27.635","2.863","7.46","0.551","4.678","0.06","0.39","29.5806","4.67836","30.65","0","SATNPRO1964","24.932","0.3492","5"],
    [55074,"HCEP03730563","2025-07-24 02:45:00","9.9983","3.27449","27.684","2.895","7.47","0.577","4.354","0.09","0.23","29.5786","4.67807","30.99","0","SATNPRO1964","24.992","0.35006","5"],
    [55075,"HCEP03730563","2025-07-24 03:00:00","9.9982","3.27453","27.694","2.905","7.47","0.546","4.251","0.06","0.23","29.5791","4.67814","31.1","0","SATNPRO1964","25.058","0.35098","5"],
    [55076,"HCEP03730563","2025-07-24 03:15:00","9.9988","3.27461","27.71","2.91","7.47","0.574","4.144","0.09","0.18","29.5794","4.67817","31.15","0","SATNPRO1964","25.088","0.3514","5"],
    [55077,"HCEP03730563","2025-07-24 03:30:00","9.9983","3.27463","27.687","2.918","7.48","0.546","3.796","0.08","0.18","29.5801","4.67828","31.23","0","SATNPRO1964","25.032","0.3506","5"],
    [55078,"HCEP03730563","2025-07-24 03:45:00","10.0025","3.27516","27.667","2.922","7.48","0.55","4.427","0.07","0.18","29.5819","4.67847","31.28","0","SATNPRO1964","25.07","0.35112","5"],
    [55079,"HCEP03730563","2025-07-24 04:00:00","10.0019","3.27518","27.62","2.926","7.48","0.548","4.184","0.1","0.23","29.5827","4.67858","31.32","0","SATNPRO1964","25.041999999999998","0.35078","5"],
    [55080,"HCEP03730563","2025-07-24 04:15:00","10.0126","3.27623","27.543","2.944","7.48","0.583","4.637","0.09","0.21","29.5843","4.67864","31.52","0","SATNPRO1964","25.118","0.35184","5"],
    [55081,"HCEP03730563","2025-07-24 04:30:00","10.0007","3.27538","27.461","2.938","7.48","0.631","5.629","0.2","0.22","29.5857","4.67903","31.45","0","SATNPRO1964","25.08","0.35126","5"],
    [55082,"HCEP03730563","2025-07-24 04:45:00","9.9737","3.27272","27.353","2.875","7.48","0.582","4.314","0.1","0.18","29.5811","4.67883","30.76","0","SATNPRO1964","25.052","0.35086","5"],
    [55083,"HCEP03730563","2025-07-24 05:00:00","9.9622","3.27187","27.244","2.814","7.47","0.501","3.878","0.07","0.43","29.5821","4.67915","30.09","0","SATNPRO1964","25.034","0.35064","5"],
    [55084,"HCEP03730563","2025-07-24 05:15:00","9.9596","3.27163","27.083","2.782","7.47","0.522","3.821","0.08","0.17","29.5819","4.67916","29.75","0","SATNPRO1964","25.066","0.3511","5"],
    [55085,"HCEP03730563","2025-07-24 05:30:00","9.9595","3.27162","26.886","2.769","7.47","0.558","3.744","0.1","0.18","29.582","4.67916","29.61","0","SATNPRO1964","25.134","0.35208","5"],
    [55086,"HCEP03730563","2025-07-24 05:45:00","9.9579","3.27164","26.71","2.773","7.47","0.574","3.29","0.11","0.32","29.5836","4.67941","29.65","0","SATNPRO1964","25.108","0.35166","5"],
    [55087,"HCEP03730563","2025-07-24 06:00:00","9.9617","3.27212","26.509","2.794","7.47","0.527","3.479","0.11","0.39","29.5853","4.67957","29.88","0","SATNPRO1964","25.2","0.353","5"],
    [55088,"HCEP03730563","2025-07-24 06:15:00","9.9723","3.27351","26.282","2.856","7.47","0.527","3.661","0.07","0.26","29.5906","4.68014","30.56","0","SATNPRO1964","25.398","0.35576","5"],
    [55089,"HCEP03730563","2025-07-24 06:30:00","9.9718","3.27333","26.052","2.915","7.47","0.529","3.195","0.09","0.24","29.5893","4.67995","31.18","0","SATNPRO1964","25.346","0.35504","5"],
    [55090,"HCEP03730563","2025-07-24 06:45:00","9.9815","3.27454","25.817","2.964","7.48","0.576","3.021","0.1","0.22","29.5935","4.68038","31.72","0","SATNPRO1964","25.458","0.35656","5"],
    [55091,"HCEP03730563","2025-07-24 07:00:00","9.9812","3.27476","25.565","3.031","7.48","0.504","3.052","0.09","0.23","29.5962","4.68074","32.43","0","SATNPRO1964","25.61","0.35872","5"],
    [55092,"HCEP03730563","2025-07-24 07:15:00","9.9755","3.27384","25.32","3.013","7.48","0.516","2.876","0.11","0.1","29.5917","4.68019","32.23","0","SATNPRO1964","25.474","0.35684","5"],
    [55093,"HCEP03730563","2025-07-24 07:30:00","9.9872","3.27487","25.074","3.019","7.49","0.542","2.624","0.22","0.18","29.5925","4.68009","32.31","0","SATNPRO1964","25.622","0.35888","5"],
    [55094,"HCEP03730563","2025-07-24 07:45:00","9.9847","3.27467","24.843","3.031","7.49","0.521","2.725","0.12","0.27","29.5928","4.68016","32.44","0","SATNPRO1964","25.490000000000002","0.35706","5"],
    [55095,"HCEP03730563","2025-07-24 08:00:00","9.9946","3.27554","24.611","3.057","7.49","0.494","2.509","0.11","0.26","29.5934","4.68007","32.72","0","SATNPRO1964","25.754","0.36072","5"],
    [55096,"HCEP03730563","2025-07-24 08:15:00","9.9721","3.2733","24.373","3.021","7.49","0.498","2.724","0.07","0.42","29.5895","4.67987","32.32","0","SATNPRO1964","25.556","0.35794","5"],
    [55097,"HCEP03730563","2025-07-24 08:30:00","9.9919","3.27441","24.115","2.963","7.48","0.506","2.832","0.09","0.35","29.5845","4.67881","31.71","0","SATNPRO1964","25.436","0.35626","5"],
    [55098,"HCEP03730563","2025-07-24 08:45:00","10.0078","3.27624","23.898","2.94","7.48","0.52","2.848","0.12","0.23","29.5899","4.6793","31.48","0","SATNPRO1964","25.3","0.35436","5"],
    [55099,"HCEP03730563","2025-07-24 09:00:00","10.0692","3.28185","23.719","3.173","7.5","0.48","2.436","0.09","0.12","29.5958","4.67911","34.02","0","SATNPRO1964","26.156","0.36636","5"],
    [55100,"HCEP03730563","2025-07-24 09:15:00","10.0546","3.28058","23.615","3.37","7.51","0.493","1.994","0.18","0.07","29.5951","4.67924","36.11","0","SATNPRO1964","26.224","0.36732","5"],
    [55101,"HCEP03730563","2025-07-24 09:30:00","10.0595","3.28138","23.531","3.488","7.52","0.613","2.084","0.3","0.61","29.5991","4.67973","37.39","0","SATNPRO1964","27.022","0.37848","5"],
    [55102,"HCEP03730563","2025-07-24 09:45:00","10.0448","3.28011","23.492","3.514","7.53","0.85","2.459","0.38","1.15","29.5985","4.67989","37.65","0","SATNPRO1964","26.22","0.36726","5"],
    [55103,"HCEP03730563","2025-07-24 10:00:00","10.046","3.28019","23.471","3.469","7.53","0.56","2.714","0.36","0.19","29.5983","4.67983","37.17","0","SATNPRO1964","26.372","0.36936","5"],
    [55104,"HCEP03730563","2025-07-24 10:15:00","10.0646","3.28129","23.481","3.585","7.54","0.498","2.045","0.12","0.05","29.5941","4.67892","38.43","0","SATNPRO1964","27.234","0.38148","5"],
    [55105,"HCEP03730563","2025-07-24 10:30:00","10.0181","3.27739","23.515","3.459","7.53","0.514","3.38","0.1","0.15","29.593","4.67955","37.05","0","SATNPRO1964","25.568","0.35806","5"],
    [55106,"HCEP03730563","2025-07-24 10:45:00","10.0086","3.27657","23.537","3.102","7.51","0.573","5.013","0.11","1.39","29.5927","4.67966","33.21","0","SATNPRO1964","25.242","0.35354","5"],
    [55107,"HCEP03730563","2025-07-24 11:00:00","9.9946","3.27546","23.603","2.913","7.49","0.59","5.977","0.11","0.4","29.593","4.67995","31.18","0","SATNPRO1964","25.02","0.35044","5"],
    [55108,"HCEP03730563","2025-07-24 11:15:00","9.9998","3.27607","23.754","2.89","7.49","0.51","4.148","0.07","0.31","29.5948","4.68012","30.94","0","SATNPRO1964","25.206","0.35304","5"],
    [55109,"HCEP03730563","2025-07-24 11:30:00","10.0073","3.27655","23.901","2.944","7.49","0.525","4.557","0.1","0.47","29.5934","4.67982","31.51","0","SATNPRO1964","25.16","0.35238","5"],
    [55110,"HCEP03730563","2025-07-24 11:45:00","9.9971","3.27603","24.085","2.938","7.48","0.505","5.017","0.06","0.26","29.5964","4.68043","31.44","0","SATNPRO1964","24.89","0.34864","5"],
    [55111,"HCEP03730563","2025-07-24 12:00:00","10.0103","3.27703","24.294","2.93","7.48","0.565","5.71","0.09","0.21","29.5956","4.68009","31.37","0","SATNPRO1964","25.062","0.35102","5"],
    [55112,"HCEP03730563","2025-07-24 12:15:00","10.1317","3.28994","24.511","3.094","7.49","0.55","5.066","0.06","0.34","29.6251","4.68229","33.22","0","SATNPRO1964","25.2","0.35296","5"],
    [55113,"HCEP03730563","2025-07-24 12:30:00","10.1855","3.29421","24.699","3.583","7.52","0.516","3.713","0.09","0.21","29.6237","4.68121","38.52","0","SATNPRO1964","25.734","0.36042","5"],
    [55114,"HCEP03730563","2025-07-24 12:45:00","10.1357","3.28995","24.897","3.602","7.54","0.506","3.854","0.06","0.78","29.6218","4.68177","38.68","0","SATNPRO1964","25.468","0.35672","5"],
    [55115,"HCEP03730563","2025-07-24 13:00:00","10.2049","3.29603","25.112","3.617","7.54","0.508","3.792","0.11","0.18","29.6258","4.68121","38.9","0","SATNPRO1964","25.486","0.35696","5"],
    [55116,"HCEP03730563","2025-07-24 13:15:00","10.1512","3.29013","25.308","3.559","7.54","0.515","4.139","0.09","0.23","29.6109","4.67998","38.23","0","SATNPRO1964","25.358","0.3552","5"],
    [55117,"HCEP03730563","2025-07-24 13:30:00","10.0219","3.27786","25.552","3.227","7.53","0.557","6.976","0.06","0.28","29.5939","4.67973","34.56","0","SATNPRO1964","24.836","0.34788","5"],
    [55118,"HCEP03730563","2025-07-24 13:45:00","10.0077","3.2767","25.776","2.917","7.5","0.559","6.199","0.09","0.26","29.5938","4.67997","31.24","0","SATNPRO1964","25.026","0.35056","5"],
    [55119,"HCEP03730563","2025-07-24 14:00:00","10.0058","3.27668","26.01","2.922","7.49","0.515","5.962","0.05","0.29","29.5951","4.6802","31.28","0","SATNPRO1964","25.382","0.35554","5"],
    [55120,"HCEP03730563","2025-07-24 14:15:00","10.0047","3.27682","26.236","3.018","7.49","0.537","6.101","0.05","0.16","29.5973","4.68054","32.31","0","SATNPRO1964","25.504","0.35724","5"],
    [55121,"HCEP03730563","2025-07-24 14:30:00","10.0038","3.27687","26.491","3.098","7.5","0.488","4.945","0.05","0.5","29.5983","4.68072","33.17","0","SATNPRO1964","25.886","0.36254","5"],
    [55122,"HCEP03730563","2025-07-24 14:45:00","9.9904","3.27542","26.709","3.056","7.49","0.544","6.992","0.06","0.39","29.5947","4.68045","32.7","0","SATNPRO1964","25.426000000000002","0.35614","5"],
    [55123,"HCEP03730563","2025-07-24 15:00:00","9.977","3.27383","26.929","2.895","7.48","0.527","6.898","0.07","0.25","29.5897","4.67997","30.97","0","SATNPRO1964","25.156","0.35236","5"],
    [55124,"HCEP03730563","2025-07-24 15:15:00","9.9927","3.27601","27.056","2.946","7.48","0.485","5.287","0.05","0.2","29.5986","4.68098","31.53","0","SATNPRO1964","25.806","0.36146","5"],
    [55125,"HCEP03730563","2025-07-24 15:30:00","9.9827","3.2749","27.208","3.08","7.49","0.489","5.137","0.08","0.3","29.5957","4.68074","32.96","0","SATNPRO1964","25.788","0.3612","5"],
    [55126,"HCEP03730563","2025-07-24 15:45:00","9.9737","3.27336","27.373","2.945","7.48","0.523","5.989","0.09","0.71","29.5876","4.67975","31.5","0","SATNPRO1964","25.242","0.35356","5"],
    [55127,"HCEP03730563","2025-07-24 16:00:00","9.9921","3.27465","27.543","2.843","7.48","0.513","5.438","0.09","0.38","29.5854","4.67913","30.43","0","SATNPRO1964","25.162","0.35248","5"],
    [55128,"HCEP03730563","2025-07-24 16:15:00","9.9877","3.27413","27.697","2.831","7.47","0.512","5.422","0.04","0.17","29.5837","4.67897","30.29","0","SATNPRO1964","25.062","0.35102","5"],
    [55129,"HCEP03730563","2025-07-24 16:30:00","9.9831","3.2738","27.756","2.813","7.47","0.507","5.503","0.05","0.16","29.5841","4.67911","30.09","0","SATNPRO1964","25.112000000000002","0.3517","5"],
    [55130,"HCEP03730563","2025-07-24 16:45:00","9.9686","3.2726","27.834","2.789","7.47","0.511","4.831","0.06","0.14","29.5839","4.67934","29.83","0","SATNPRO1964","25.244","0.35358","5"],
    [55131,"HCEP03730563","2025-07-24 17:00:00","9.9438","3.27016","27.881","2.717","7.47","0.511","4.839","0.09","0.18","29.5797","4.67916","29.05","0","SATNPRO1964","24.95","0.34946","5"],
    [55132,"HCEP03730563","2025-07-24 17:15:00","9.9225","3.26799","27.878","2.561","7.46","0.537","5.531","0.06","0.23","29.5754","4.67891","27.37","0","SATNPRO1964","24.69","0.34584","5"],
    [55133,"HCEP03730563","2025-07-24 17:30:00","9.9124","3.26706","27.913","2.424","7.44","0.535","5.423","0.1","0.21","29.5744","4.67893","25.89","0","SATNPRO1964","24.35","0.34108","5"],
    [55134,"HCEP03730563","2025-07-24 17:45:00","9.9065","3.26649","27.925","2.332","7.44","0.541","6.644","0.08","0.76","29.5735","4.67891","24.91","0","SATNPRO1964","24.204","0.33902","5"],
    [55135,"HCEP03730563","2025-07-24 18:00:00","9.895","3.26493","27.918","2.239","7.43","0.528","5.228","0.16","0.27","29.5673","4.67822","23.91","0","SATNPRO1964","24.116","0.3378","5"],
    [55136,"HCEP03730563","2025-07-24 18:15:00","9.8923","3.26419","27.893","2.148","7.42","0.523","5.157","0.09","0.25","29.5621","4.67753","22.94","0","SATNPRO1964","23.96","0.33558","5"],
    [55137,"HCEP03730563","2025-07-24 18:30:00","9.8968","3.26504","27.909","2.134","7.41","0.472","5.46","0.06","0.39","29.567","4.67814","22.79","0","SATNPRO1964","24.012","0.33632","5"],
    [55138,"HCEP03730563","2025-07-24 18:45:00","9.8905","3.26408","27.79","2.115","7.41","0.479","5.103","0.07","0.36","29.5625","4.6776","22.58","0","SATNPRO1964","24.19","0.33886","5"],
    [55139,"HCEP03730563","2025-07-24 19:00:00","9.8747","3.26238","27.768","2.016","7.41","0.483","5.036","0.08","0.22","29.5585","4.67729","21.52","0","SATNPRO1964","23.788","0.33322","5"],
    [55140,"HCEP03730563","2025-07-24 19:15:00","9.8705","3.26172","27.714","1.892","7.4","0.488","5.216","0.05","0.19","29.5553","4.6769","20.19","0","SATNPRO1964","23.482","0.32886","5"],
    [55141,"HCEP03730563","2025-07-24 19:30:00","9.8659","3.26115","27.662","1.802","7.39","0.481","5.142","0.06","0.16","29.5533","4.6767","19.23","0","SATNPRO1964","23.362","0.32728","5"],
    [55142,"HCEP03730563","2025-07-24 19:45:00","9.8584","3.26012","27.605","1.695","7.38","0.521","5.2","0.12","0.53","29.5491","4.67622","18.08","0","SATNPRO1964","22.87","0.32036","5"],
    [55143,"HCEP03730563","2025-07-24 20:00:00","9.8579","3.26026","27.51","1.621","7.37","0.483","5.774","0.09","0.27","29.551","4.6765","17.3","0","SATNPRO1964","22.918","0.321","5"],
    [55144,"HCEP03730563","2025-07-24 20:15:00","9.8561","3.25987","27.454","1.595","7.37","0.515","5.499","0.09","0.36","29.5485","4.67617","17.01","0","SATNPRO1964","22.764","0.31882","5"],
    [55145,"HCEP03730563","2025-07-24 20:30:00","9.8528","3.25942","27.352","1.56","7.37","0.468","5.156","0.06","0.12","29.5468","4.67598","16.64","0","SATNPRO1964","22.79","0.31918","5"],
    [55146,"HCEP03730563","2025-07-24 20:45:00","9.856","3.25964","27.26","1.55","7.36","0.509","5.146","0.07","0.23","29.5464","4.67587","16.53","0","SATNPRO1964","22.79","0.3192","5"],
    [55147,"HCEP03730563","2025-07-24 21:00:00","9.8539","3.2592","27.172","1.553","7.36","0.477","4.316","0.07","0.45","29.5438","4.67553","16.56","0","SATNPRO1964","22.82","0.31964","5"],
    [55148,"HCEP03730563","2025-07-24 21:15:00","9.8556","3.2594","27.065","1.559","7.36","0.5","4.212","0.1","0.26","29.5444","4.67557","16.63","0","SATNPRO1964","22.776","0.31902","5"],
    [55149,"HCEP03730563","2025-07-24 21:30:00","9.8589","3.25977","27.041","1.567","7.36","0.449","4.143","0.07","0.35","29.5455","4.67567","16.71","0","SATNPRO1964","22.874","0.3204","5"],
    [55150,"HCEP03730563","2025-07-24 21:45:00","9.8769","3.26151","26.881","1.668","7.37","0.487","4.143","0.08","0.2","29.5482","4.67574","17.8","0","SATNPRO1964","22.990000000000002","0.32202","5"],
    [55151,"HCEP03730563","2025-07-24 22:00:00","9.8814","3.26216","26.781","1.772","7.37","0.467","4.31","0.05","0.14","29.551","4.67606","18.91","0","SATNPRO1964","23.236","0.32544","5"],
    [55152,"HCEP03730563","2025-07-24 22:15:00","9.8811","3.2623","26.687","1.81","7.38","0.513","4.834","0.05","0.16","29.5528","4.67631","19.32","0","SATNPRO1964","23.226","0.3253","5"],
    [55153,"HCEP03730563","2025-07-24 22:30:00","9.888","3.26298","26.664","1.824","7.38","0.501","4.797","0.05","0.17","29.5539","4.67636","19.47","0","SATNPRO1964","23.366","0.32728","5"],
    [55154,"HCEP03730563","2025-07-24 22:45:00","9.8973","3.26383","26.578","1.871","7.38","0.524","4.822","0.08","0.09","29.5549","4.67634","19.97","0","SATNPRO1964","23.292","0.32626","5"],
    [55155,"HCEP03730563","2025-07-24 23:00:00","9.8865","3.26295","26.566","1.86","7.38","0.481","5.064","0.04","0.19","29.555","4.67653","19.85","0","SATNPRO1964","23.226","0.3253","5"],
    [55156,"HCEP03730563","2025-07-24 23:15:00","9.8823","3.26255","26.54","1.812","7.38","0.483","5.27","0.04","0.15","29.5544","4.67651","19.34","0","SATNPRO1964","23.242","0.32554","5"],
    [55157,"HCEP03730563","2025-07-24 23:30:00","9.8777","3.26203","26.589","1.767","7.38","0.495","4.774","0.08","0.26","29.553","4.6764","18.86","0","SATNPRO1964","23.218","0.32522","5"],
    [55158,"HCEP03730563","2025-07-24 23:45:00","9.8809","3.26241","26.598","1.764","7.38","0.509","4.852","0.08","0.15","29.5541","4.67649","18.83","0","SATNPRO1964","23.168","0.32452","5"],
    [55159,"HCEP03730563","2025-07-25 00:00:00","9.886","3.26306","26.632","1.792","7.38","0.501","4.727","0.09","0.54","29.5564","4.67674","19.13","0","SATNPRO1964","23.238","0.32548","5"],
    [55160,"HCEP03730563","2025-07-25 00:15:00","9.8852","3.26308","26.715","1.819","7.38","0.532","4.974","0.13","0.12","29.5573","4.67688","19.42","0","SATNPRO1964","23.118","0.32382","5"],
    [55161,"HCEP03730563","2025-07-25 00:30:00","9.8882","3.2635","26.801","1.854","7.38","0.473","5.083","0.05","0.18","29.559","4.67709","19.8","0","SATNPRO1964","23.372","0.32734","5"],
    [55162,"HCEP03730563","2025-07-25 00:45:00","9.897","3.26436","26.853","1.91","7.39","0.473","4.616","0.05","0.1","29.5604","4.67713","20.39","0","SATNPRO1964","23.368","0.32732","5"],
    [55163,"HCEP03730563","2025-07-25 01:00:00","9.8982","3.26461","26.89","1.932","7.39","0.474","4.606","0.08","0.17","29.5619","4.67733","20.63","0","SATNPRO1964","23.412","0.32796","5"],
    [55164,"HCEP03730563","2025-07-25 01:15:00","9.8984","3.2645","26.966","1.965","7.39","0.496","4.738","0.06","0.15","29.5606","4.67714","20.99","0","SATNPRO1964","23.442","0.32834","5"],
    [55165,"HCEP03730563","2025-07-25 01:30:00","9.8979","3.26451","27.064","1.973","7.39","0.47","4.75","0.03","0.17","29.5611","4.67723","21.06","0","SATNPRO1964","23.486","0.32898","5"],
    [55166,"HCEP03730563","2025-07-25 01:45:00","9.9149","3.26711","27.133","2.067","7.4","0.473","4.488","0.06","0.17","29.5732","4.67868","22.09","0","SATNPRO1964","23.878","0.33446","5"],
    [55167,"HCEP03730563","2025-07-25 02:00:00","9.9214","3.26793","27.184","2.198","7.41","0.462","4.156","0.08","0.15","29.5761","4.67898","23.49","0","SATNPRO1964","24.016000000000002","0.33636","5"],
    [55168,"HCEP03730563","2025-07-25 02:15:00","9.9286","3.26887","27.289","2.27","7.41","0.491","4.306","0.09","0.13","29.5796","4.67937","24.25","0","SATNPRO1964","24.168","0.3385","5"],
    [55169,"HCEP03730563","2025-07-25 02:30:00","9.9307","3.26898","27.397","2.321","7.42","0.471","4.333","0.04","0.1","29.5789","4.67924","24.81","0","SATNPRO1964","24.326","0.34074","5"],
    [55170,"HCEP03730563","2025-07-25 02:45:00","9.9399","3.26991","27.437","2.386","7.42","0.466","4.098","0.06","0.11","29.5806","4.67933","25.51","0","SATNPRO1964","24.354","0.3411","5"],
    [55171,"HCEP03730563","2025-07-25 03:00:00","9.9458","3.27081","27.495","2.467","7.43","0.466","4.553","0.05","0.25","29.5849","4.67984","26.37","0","SATNPRO1964","24.572","0.34416","5"],
    [55172,"HCEP03730563","2025-07-25 03:15:00","9.9611","3.27261","27.545","2.573","7.44","0.454","4.166","0.05","0.17","29.5904","4.68037","27.52","0","SATNPRO1964","24.8","0.34736","5"],
    [55173,"HCEP03730563","2025-07-25 03:30:00","9.9673","3.27342","27.604","2.657","7.45","0.479","4.666","0.07","0.22","29.5934","4.68069","28.42","0","SATNPRO1964","24.996000000000002","0.3501","5"],
    [55174,"HCEP03730563","2025-07-25 03:45:00","9.976","3.27432","27.652","2.718","7.45","0.497","4.612","0.06","0.22","29.5952","4.68081","29.07","0","SATNPRO1964","25.208000000000002","0.3531","5"],
    [55175,"HCEP03730563","2025-07-25 04:00:00","9.982","3.27504","27.669","2.777","7.46","0.551","4.5","0.37","0.21","29.5975","4.68104","29.72","0","SATNPRO1964","25.234","0.35346","5"],
    [55176,"HCEP03730563","2025-07-25 04:15:00","9.9895","3.27555","27.676","2.813","7.46","0.47","4.464","0.05","0.24","29.5964","4.68076","30.1","0","SATNPRO1964","25.06","0.35098","5"],
    [55177,"HCEP03730563","2025-07-25 04:30:00","9.9946","3.27586","27.654","2.828","7.47","0.503","4.708","0.12","0.62","29.5954","4.68052","30.26","0","SATNPRO1964","25.112","0.35172","5"],
    [55178,"HCEP03730563","2025-07-25 04:45:00","10.0058","3.27685","27.617","2.861","7.47","0.5","4.554","0.07","0.2","29.5962","4.68045","30.63","0","SATNPRO1964","25.396","0.35572","5"],
    [55179,"HCEP03730563","2025-07-25 05:00:00","10.0163","3.27777","27.571","2.905","7.47","0.475","4.357","0.07","0.19","29.596800000000002","4.68035","31.1","0","SATNPRO1964","25.254","0.35374","5"],
    [55180,"HCEP03730563","2025-07-25 05:15:00","10.0248","3.27852","27.493","2.943","7.48","0.502","4.486","0.07","0.18","29.5974","4.68029","31.52","0","SATNPRO1964","25.208","0.35308","5"],
    [55181,"HCEP03730563","2025-07-25 05:30:00","10.0292","3.27895","27.392","2.989","7.48","0.445","3.921","0.06","0.16","29.598","4.6803","32.01","0","SATNPRO1964","25.378","0.35548","5"],
    [55182,"HCEP03730563","2025-07-25 05:45:00","10.0346","3.2794","27.272","3.031","7.49","0.504","4.114","0.07","0.21","29.5982","4.68023","32.47","0","SATNPRO1964","25.46","0.3566","5"],
    [55183,"HCEP03730563","2025-07-25 06:00:00","10.0393","3.27984","27.142","3.087","7.49","0.465","3.435","0.06","0.18","29.5988","4.68023","33.08","0","SATNPRO1964","25.452","0.35652","5"],
    [55184,"HCEP03730563","2025-07-25 06:15:00","10.0519","3.28081","26.964","3.124","7.49","0.468","3.714","0.05","0.21","29.5982","4.67993","33.48","0","SATNPRO1964","25.218","0.35322","5"],
    [55185,"HCEP03730563","2025-07-25 06:30:00","10.0612","3.28173","26.798","3.142","7.5","0.467","3.267","0.07","0.29","29.6","4.68001","33.68","0","SATNPRO1964","25.412","0.35594","5"],
    [55186,"HCEP03730563","2025-07-25 06:45:00","10.0717","3.28261","26.6","3.171","7.5","0.493","3.443","0.07","0.16","29.6002","4.67985","34","0","SATNPRO1964","25.54","0.35774","5"],
    [55187,"HCEP03730563","2025-07-25 07:00:00","10.0822","3.28364","26.382","3.2","7.5","0.489","3.216","0.08","0.17","29.602","4.67992","34.32","0","SATNPRO1964","25.352","0.3551","5"],
    [55188,"HCEP03730563","2025-07-25 07:15:00","10.0904","3.28425","26.152","3.224","7.51","0.486","3.342","0.06","0.28","29.6015","4.6797","34.58","0","SATNPRO1964","25.396","0.35574","5"],
    [55189,"HCEP03730563","2025-07-25 07:30:00","10.0893","3.28394","25.933","3.276","7.51","0.79","2.767","1.56","0.6","29.5993","4.6794","35.14","0","SATNPRO1964","25.702","0.36","5"],
    [55190,"HCEP03730563","2025-07-25 07:45:00","10.1027","3.28525","25.693","3.306","7.51","0.547","2.978","0.16","0.63","29.6016","4.67948","35.47","0","SATNPRO1964","25.5","0.35716","5"],
    [55191,"HCEP03730563","2025-07-25 08:00:00","10.1121","3.28624","25.445","3.279","7.51","0.5","3.208","0.11","0.09","29.6039","4.67965","35.19","0","SATNPRO1964","25.334","0.3548","5"],
    [55192,"HCEP03730563","2025-07-25 08:15:00","10.1089","3.28604","25.193","3.226","7.51","0.504","3.519","0.08","0.17","29.6046","4.67977","34.62","0","SATNPRO1964","25.296000000000003","0.3543","5"],
    [55193,"HCEP03730563","2025-07-25 08:30:00","10.1114","3.28613","24.959","3.215","7.51","0.489","3.218","0.07","0.19","29.6036","4.67958","34.5","0","SATNPRO1964","25.252","0.35368","5"],
    [55194,"HCEP03730563","2025-07-25 08:45:00","10.1144","3.28626","24.718","3.249","7.51","0.556","3.16","0.13","0.15","29.6025","4.67936","34.87","0","SATNPRO1964","25.291999999999998","0.35426","5"],
    [55195,"HCEP03730563","2025-07-25 09:00:00","10.1193","3.28708","24.472","3.289","7.51","0.471","2.687","0.13","0.17","29.6068","4.67988","35.3","0","SATNPRO1964","25.386","0.3556","5"],
    [55196,"HCEP03730563","2025-07-25 09:15:00","10.1473","3.28934","24.265","3.351","7.52","0.523","2.624","0.18","0.15","29.6066","4.67937","35.99","0","SATNPRO1964","25.364","0.35524","5"],
    [55197,"HCEP03730563","2025-07-25 09:30:00","10.1274","3.28735","24.082","3.386","7.52","0.467","2.499","0.09","0.44","29.6031","4.67919","36.34","0","SATNPRO1964","25.338","0.3549","5"],
    [55198,"HCEP03730563","2025-07-25 09:45:00","10.0788","3.28296","23.835","3.338","7.52","0.539","2.858","0.13","0.2","29.599","4.67941","35.8","0","SATNPRO1964","25.648","0.35924","5"],
    [55199,"HCEP03730563","2025-07-25 10:00:00","10.0509","3.28065","23.669","3.238","7.51","0.505","3.636","0.12","0.2","29.5988","4.67983","34.7","0","SATNPRO1964","25.866","0.36234","5"],
    [55200,"HCEP03730563","2025-07-25 10:15:00","10.0403","3.27986","23.603","3.144","7.51","0.433","3.268","0.08","0.21","29.5996","4.68013","33.68","0","SATNPRO1964","25.626","0.35894","5"],
    [55201,"HCEP03730563","2025-07-25 10:30:00","10.0443","3.28022","23.572","3.151","7.5","0.392","2.715","0.08","0.22","29.5999","4.6801","33.77","0","SATNPRO1964","25.698","0.35998","5"],
    [55202,"HCEP03730563","2025-07-25 10:45:00","10.0499","3.28046","23.553","3.187","7.51","0.462","2.397","0.17","0.37","29.5977","4.67969","34.15","0","SATNPRO1964","25.774","0.36098","5"],
    [55203,"HCEP03730563","2025-07-25 11:00:00","10.0365","3.27903","23.555","3.174","7.51","0.457","2.661","0.15","0.09","29.5945","4.67945","34","0","SATNPRO1964","25.744","0.36056","5"],
    [55204,"HCEP03730563","2025-07-25 11:15:00","10.0467","3.28","23.613","3.171","7.5","0.422","2.409","0.15","0.09","29.5957","4.67946","33.98","0","SATNPRO1964","25.844","0.36204","5"],
    [55205,"HCEP03730563","2025-07-25 11:30:00","10.0302","3.27906","23.634","3.169","7.5","0.546","3.508","0.19","0.4","29.5999","4.68033","33.95","0","SATNPRO1964","25.482","0.35688","5"],
    [55206,"HCEP03730563","2025-07-25 11:45:00","10.0262","3.27869","23.74","3.096","7.5","0.515","3.975","0.14","0.26","29.5994","4.68033","33.16","0","SATNPRO1964","25.356","0.35514","5"],
    [55207,"HCEP03730563","2025-07-25 12:00:00","10.0275","3.27708","23.832","3.038","7.5","0.497","4.17","0.22","0.25","29.5822","4.67787","32.54","0","SATNPRO1964","25.468","0.3567","5"],
    [55208,"HCEP03730563","2025-07-25 12:15:00","10.029","3.27898","23.972","3.026","7.49","0.505","3.853","0.13","0.21","29.5999","4.68038","32.42","0","SATNPRO1964","25.348","0.35506","5"],
    [55209,"HCEP03730563","2025-07-25 12:30:00","10.0344","3.2795","24.18","3.018","7.49","0.459","4.09","0.09","0.35","29.6006","4.6804","32.33","0","SATNPRO1964","25.42","0.3561","5"],
    [55210,"HCEP03730563","2025-07-25 12:45:00","10.0387","3.28004","24.354","2.979","7.49","0.494","5.686","0.04","0.47","29.6024","4.6806","31.91","0","SATNPRO1964","25.05","0.35088","5"],
    [55211,"HCEP03730563","2025-07-25 13:00:00","10.0425","3.28066","24.563","2.931","7.49","0.526","6.021","0.13","0.19","29.6054","4.68098","31.41","0","SATNPRO1964","24.936","0.34926","5"],
    [55212,"HCEP03730563","2025-07-25 13:15:00","10.0453","3.28112","24.793","2.975","7.49","0.481","4.661","0.06","0.52","29.6077","4.68126","31.88","0","SATNPRO1964","25.041999999999998","0.35078","5"],
    [55213,"HCEP03730563","2025-07-25 13:30:00","10.0616","3.28236","24.972","3.047","7.49","0.463","4.273","0.06","0.36","29.6066","4.68085","32.66","0","SATNPRO1964","25.27","0.35396","5"],
    [55214,"HCEP03730563","2025-07-25 13:45:00","10.0674","3.28275","25.19","3.085","7.49","0.492","4.729","0.07","0.33","29.6056","4.68062","33.08","0","SATNPRO1964","25.234","0.35342","5"],
    [55215,"HCEP03730563","2025-07-25 14:00:00","10.0621","3.28224","25.384","3.081","7.5","0.488","6.146","0.05","0.46","29.6048","4.68061","33.02","0","SATNPRO1964","25.242","0.35358","5"],
    [55216,"HCEP03730563","2025-07-25 14:15:00","10.0408","3.28037","25.6","3.07","7.5","0.558","6.053","0.07","0.58","29.6035","4.68079","32.9","0","SATNPRO1964","25.096","0.35154","5"],
    [55217,"HCEP03730563","2025-07-25 14:30:00","10.0198","3.27895","25.851","2.974","7.49","0.523","6.307","0.08","0.54","29.6064","4.68157","31.86","0","SATNPRO1964","25.028","0.3506","5"],
    [55218,"HCEP03730563","2025-07-25 14:45:00","10.0123","3.27834","26.09","2.906","7.48","0.518","6.863","0.06","0.29","29.6063","4.68169","31.12","0","SATNPRO1964","25.1","0.35152","5"],
    [55219,"HCEP03730563","2025-07-25 15:00:00","10.0049","3.27767","26.327","2.871","7.48","0.474","6.806","0.05","0.46","29.6056","4.68174","30.74","0","SATNPRO1964","25.136","0.35206","5"],
    [55220,"HCEP03730563","2025-07-25 15:15:00","10.0007","3.27698","26.585","2.843","7.48","0.491","6.687","0.06","0.28","29.6021","4.68131","30.43","0","SATNPRO1964","25.082","0.35136","5"],
    [55221,"HCEP03730563","2025-07-25 15:30:00","9.9942","3.27598","26.774","2.787","7.47","0.495","6.795","0.08","0.36","29.5972","4.68075","29.83","0","SATNPRO1964","24.972","0.34978","5"],
    [55222,"HCEP03730563","2025-07-25 15:45:00","9.9968","3.27588","26.97","2.755","7.47","0.495","6.207","0.05","0.29","29.5941","4.68026","29.49","0","SATNPRO1964","25.018","0.35044","5"],
    [55223,"HCEP03730563","2025-07-25 16:00:00","10.0074","3.27643","27.153","2.779","7.47","0.496","6.374","0.13","3.16","29.5908","4.67963","29.75","0","SATNPRO1964","25.102","0.35158","5"],
    [55224,"HCEP03730563","2025-07-25 16:15:00","10.016","3.27693","27.334","2.851","7.47","0.468","4.594","0.07","0.54","29.5886","4.67918","30.53","0","SATNPRO1964","25.32","0.35466","5"],
    [55225,"HCEP03730563","2025-07-25 16:30:00","10.0136","3.27645","27.48","2.869","7.47","0.448","4.559","0.06","0.29","29.5859","4.67883","30.72","0","SATNPRO1964","25.112","0.3517","5"],
    [55226,"HCEP03730563","2025-07-25 16:45:00","9.9938","3.2744","27.633","2.777","7.47","0.496","5.347","0.08","0.36","29.5815","4.67855","29.72","0","SATNPRO1964","25.041999999999998","0.3507","5"],
    [55227,"HCEP03730563","2025-07-25 17:00:00","10.0237","3.27711","27.755","2.764","7.47","0.575","5.511","0.11","0.39","29.584","4.67841","29.6","0","SATNPRO1964","25.048000000000002","0.35084","5"],
    [55228,"HCEP03730563","2025-07-25 17:15:00","10.0354","3.27817","27.842","2.844","7.47","0.531","5.575","0.07","0.22","29.585","4.67837","30.47","0","SATNPRO1964","24.992","0.35004","5"],
    [55229,"HCEP03730563","2025-07-25 17:30:00","10.021","3.27673","27.872","2.821","7.47","0.493","4.686","0.09","0.22","29.5824","4.67823","30.21","0","SATNPRO1964","24.922","0.34904","5"],
    [55230,"HCEP03730563","2025-07-25 17:45:00","9.9842","3.27314","27.903","2.695","7.46","0.485","4.594","0.08","0.21","29.5765","4.67802","28.83","0","SATNPRO1964","24.446","0.34242","5"],
    [55231,"HCEP03730563","2025-07-25 18:00:00","9.9484","3.2695","27.885","2.466","7.45","0.545","4.897","0.16","0.19","29.5694","4.67761","26.36","0","SATNPRO1964","24.036","0.33668","5"],
    [55232,"HCEP03730563","2025-07-25 18:15:00","9.9339","3.26784","27.874","2.262","7.44","0.511","4.883","0.11","0.2","29.5647","4.67718","24.17","0","SATNPRO1964","23.85","0.33404","5"],
    [55233,"HCEP03730563","2025-07-25 18:30:00","9.9272","3.26708","27.882","2.129","7.42","0.48","5.244","0.07","0.18","29.5625","4.67698","22.74","0","SATNPRO1964","23.676","0.33166","5"],
    [55234,"HCEP03730563","2025-07-25 18:45:00","9.9207","3.26642","27.828","2.053","7.41","0.5","5.427","0.08","0.26","29.5612","4.6769","21.93","0","SATNPRO1964","23.532","0.32966","5"],
    [55235,"HCEP03730563","2025-07-25 19:00:00","9.9148","3.26592","27.806","1.982","7.41","0.478","5.836","0.06","0.41","29.5611","4.67699","21.17","0","SATNPRO1964","23.506","0.32922","5"],
    [55236,"HCEP03730563","2025-07-25 19:15:00","9.9161","3.266","27.787","1.945","7.4","0.501","5.81","0.09","0.55","29.5609","4.67693","20.78","0","SATNPRO1964","23.58","0.33024","5"],
    [55237,"HCEP03730563","2025-07-25 19:30:00","9.9224","3.2667","27.793","1.949","7.4","0.494","5.211","0.14","0.35","29.5627","4.67708","20.82","0","SATNPRO1964","23.541999999999998","0.32972","5"],
    [55238,"HCEP03730563","2025-07-25 19:45:00","9.9198","3.26651","27.744","1.964","7.4","0.461","5.53","0.04","0.39","29.5629","4.67716","20.98","0","SATNPRO1964","23.504","0.32918","5"],
    [55239,"HCEP03730563","2025-07-25 20:00:00","9.9221","3.26656","27.659","1.949","7.4","0.457","5.72","0.07","0.37","29.5616","4.67693","20.83","0","SATNPRO1964","23.728","0.33236","5"],
    [55240,"HCEP03730563","2025-07-25 20:15:00","9.9158","3.26592","27.545","1.906","7.39","0.486","5.932","0.07","0.3","29.5603","4.67685","20.36","0","SATNPRO1964","23.836000000000002","0.33382","5"],
    [55241,"HCEP03730563","2025-07-25 20:30:00","9.9139","3.26567","27.463","1.868","7.39","0.449","5.65","0.08","0.23","29.5594","4.67675","19.95","0","SATNPRO1964","23.244","0.3256","5"],
    [55242,"HCEP03730563","2025-07-25 20:45:00","9.9104","3.26494","27.385","1.826","7.39","0.462","5.329","0.06","0.3","29.5549","4.67616","19.5","0","SATNPRO1964","23.116","0.3238","5"],
    [55243,"HCEP03730563","2025-07-25 21:00:00","9.9025","3.26359","27.301","1.752","7.38","0.43","5.196","0.05","1.45","29.548","4.6753","18.7","0","SATNPRO1964","22.964000000000002","0.32164","5"],
    [55244,"HCEP03730563","2025-07-25 21:15:00","9.9001","3.26317","27.223","1.675","7.38","0.477","5.281","0.09","0.58","29.5457","4.675","17.88","0","SATNPRO1964","22.721999999999998","0.3183","5"],
    [55245,"HCEP03730563","2025-07-25 21:30:00","9.9016","3.26301","27.108","1.639","7.37","0.487","5","0.11","0.56","29.5431","4.6746","17.5","0","SATNPRO1964","22.686","0.31774","5"],
    [55246,"HCEP03730563","2025-07-25 21:45:00","9.9079","3.26325","27.015","1.636","7.37","0.513","4.303","0.1","0.27","29.5403","4.67409","17.47","0","SATNPRO1964","22.7","0.31792","5"],
    [55247,"HCEP03730563","2025-07-25 22:00:00","9.9101","3.26366","26.891","1.654","7.37","0.49","4.395","0.08","0.22","29.5427","4.67439","17.67","0","SATNPRO1964","22.632","0.31706","5"],
    [55248,"HCEP03730563","2025-07-25 22:15:00","9.9116","3.26411","26.798","1.672","7.37","0.503","4.785","0.08","0.26","29.546","4.67482","17.86","0","SATNPRO1964","22.792","0.31924","5"],
    [55249,"HCEP03730563","2025-07-25 22:30:00","9.9161","3.26456","26.689","1.691","7.37","0.495","5.068","0.11","0.44","29.5468","4.67486","18.06","0","SATNPRO1964","22.784","0.3191","5"],
    [55250,"HCEP03730563","2025-07-25 22:45:00","9.9168","3.26462","26.584","1.698","7.37","0.502","5.073","0.09","0.85","29.5469","4.67485","18.14","0","SATNPRO1964","22.79","0.31924","5"],
    [55251,"HCEP03730563","2025-07-25 23:00:00","9.9196","3.26476","26.478","1.702","7.37","0.481","4.395","0.1","0.48","29.5461","4.67468","18.18","0","SATNPRO1964","22.88","0.32048","5"],
    [55252,"HCEP03730563","2025-07-25 23:15:00","9.9196","3.26464","26.394","1.702","7.37","0.488","4.977","0.06","0.55","29.5448","4.6745","18.18","0","SATNPRO1964","23.212","0.3251","5"],
    [55253,"HCEP03730563","2025-07-25 23:30:00","9.9248","3.26517","26.304","1.706","7.37","0.476","4.237","0.08","0.19","29.546","4.67457","18.22","0","SATNPRO1964","23.1","0.32354","5"],
    [55254,"HCEP03730563","2025-07-25 23:45:00","9.9335","3.26587","26.255","1.737","7.38","0.489","4.115","0.08","0.16","29.5459","4.67441","18.56","0","SATNPRO1964","22.912","0.32092","5"],
    [55255,"HCEP03730563","2025-07-26 00:00:00","9.9304","3.26551","26.281","1.745","7.38","0.47","3.991","0.09","0.15","29.5448","4.67431","18.64","0","SATNPRO1964","22.828","0.31976","5"],
    [55256,"HCEP03730563","2025-07-26 00:15:00","9.9235","3.26464","26.295","1.702","7.38","0.481","3.973","0.14","0.41","29.5417","4.67398","18.18","0","SATNPRO1964","22.648","0.31718","5"],
    [55257,"HCEP03730563","2025-07-26 00:30:00","9.9243","3.26461","26.305","1.671","7.37","0.425","3.76","0.05","0.51","29.5407","4.67382","17.85","0","SATNPRO1964","22.682","0.31772","5"],
    [55258,"HCEP03730563","2025-07-26 00:45:00","9.9262","3.26473","26.388","1.68","7.37","0.432","3.479","0.05","0.2","29.5404","4.67375","17.95","0","SATNPRO1964","22.524","0.3155","5"],
    [55259,"HCEP03730563","2025-07-26 01:00:00","9.9228","3.26425","26.445","1.675","7.37","0.447","3.459","0.09","0.29","29.5383","4.67352","17.89","0","SATNPRO1964","22.688","0.31778","5"],
    [55260,"HCEP03730563","2025-07-26 01:15:00","9.9135","3.26301","26.513","1.633","7.37","0.482","3.524","0.11","0.14","29.5335","4.673","17.45","0","SATNPRO1964","22.554000000000002","0.31592","5"],
    [55261,"HCEP03730563","2025-07-26 01:30:00","9.9106","3.26253","26.579","1.589","7.37","0.467","3.365","0.1","0.13","29.531","4.67269","16.97","0","SATNPRO1964","22.658","0.31734","5"],
    [55262,"HCEP03730563","2025-07-26 01:45:00","9.9118","3.26282","26.646","1.572","7.37","0.465","3.934","0.08","0.69","29.5329","4.67295","16.79","0","SATNPRO1964","22.462","0.3146","5"],
    [55263,"HCEP03730563","2025-07-26 02:00:00","9.9156","3.26328","26.697","1.577","7.36","0.511","4.057","0.13","0.29","29.5345","4.67311","16.85","0","SATNPRO1964","22.466","0.3147","5"],
    [55264,"HCEP03730563","2025-07-26 02:15:00","9.9159","3.2632","26.776","1.591","7.36","0.459","3.9","0.06","0.54","29.5333","4.67294","17","0","SATNPRO1964","22.52","0.31544","5"],
    [55265,"HCEP03730563","2025-07-26 02:30:00","9.9171","3.26339","26.881","1.599","7.37","0.454","3.833","0.08","0.33","29.5342","4.67306","17.08","0","SATNPRO1964","22.454","0.31452","5"],
    [55266,"HCEP03730563","2025-07-26 02:45:00","9.9193","3.26377","26.945","1.606","7.37","0.453","3.7","0.08","0.18","29.5362","4.67331","17.15","0","SATNPRO1964","22.330000000000002","0.31278","5"],
    [55267,"HCEP03730563","2025-07-26 03:00:00","9.9207","3.26395","27.03","1.609","7.37","0.484","4.052","0.13","0.17","29.5369","4.67338","17.19","0","SATNPRO1964","22.342","0.31292","5"],
    [55268,"HCEP03730563","2025-07-26 03:15:00","9.9224","3.26414","27.121","1.613","7.37","0.465","4.114","0.05","0.17","29.5372","4.67341","17.23","0","SATNPRO1964","22.452","0.31446","5"],
    [55269,"HCEP03730563","2025-07-26 03:30:00","9.9243","3.26434","27.214","1.625","7.37","0.482","4.071","0.07","0.2","29.5377","4.67345","17.36","0","SATNPRO1964","22.554","0.31592","5"],
    [55270,"HCEP03730563","2025-07-26 03:45:00","9.9254","3.26455","27.298","1.628","7.37","0.488","4.518","0.06","0.23","29.5389","4.67361","17.39","0","SATNPRO1964","22.496","0.3151","5"],
    [55271,"HCEP03730563","2025-07-26 04:00:00","9.9305","3.26527","27.36","1.649","7.37","0.466","4.383","0.06","0.17","29.5419","4.67395","17.62","0","SATNPRO1964","22.637999999999998","0.3171","5"],
    [55272,"HCEP03730563","2025-07-26 04:15:00","9.9363","3.26603","27.445","1.696","7.37","0.495","4.371","0.1","0.24","29.5447","4.67426","18.13","0","SATNPRO1964","22.69","0.31782","5"],
    [55273,"HCEP03730563","2025-07-26 04:30:00","9.9408","3.26663","27.487","1.75","7.37","0.468","4.081","0.07","0.24","29.5471","4.67453","18.71","0","SATNPRO1964","22.742","0.31854","5"],
    [55274,"HCEP03730563","2025-07-26 04:45:00","9.9435","3.26709","27.52","1.799","7.38","0.505","4.458","0.11","0.34","29.5494","4.67481","19.23","0","SATNPRO1964","22.872","0.32038","5"],
    [55275,"HCEP03730563","2025-07-26 05:00:00","9.9468","3.26775","27.549","1.835","7.38","0.475","4.967","0.06","0.16","29.5534","4.67533","19.62","0","SATNPRO1964","22.954","0.32152","5"],
    [55276,"HCEP03730563","2025-07-26 05:15:00","9.9515","3.26839","27.537","1.871","7.38","0.478","4.954","0.06","0.24","29.5559","4.67561","20","0","SATNPRO1964","23.122","0.3238","5"],
    [55277,"HCEP03730563","2025-07-26 05:30:00","9.9536","3.26873","27.507","1.902","7.39","0.482","4.898","0.07","0.24","29.5577","4.67582","20.33","0","SATNPRO1964","23.212","0.32514","5"],
    [55278,"HCEP03730563","2025-07-26 05:45:00","9.9548","3.2689","27.466","1.922","7.39","0.527","4.805","0.12","0.19","29.5583","4.6759","20.55","0","SATNPRO1964","23.386","0.32752","5"],
    [55279,"HCEP03730563","2025-07-26 06:00:00","9.9555","3.26912","27.406","1.935","7.39","0.473","5.053","0.07","0.6","29.5599","4.67611","20.69","0","SATNPRO1964","23.216","0.32516","5"],
    [55280,"HCEP03730563","2025-07-26 06:15:00","9.9582","3.26952","27.329","1.952","7.39","0.503","5.078","0.05","0.2","29.5618","4.67633","20.87","0","SATNPRO1964","23.376","0.32742","5"],
    [55281,"HCEP03730563","2025-07-26 06:30:00","9.9651","3.27051","27.231","1.997","7.39","0.48","5.297","0.05","0.46","29.5661","4.67682","21.36","0","SATNPRO1964","23.496","0.32908","5"],
    [55282,"HCEP03730563","2025-07-26 06:45:00","9.98","3.27264","27.106","2.095","7.4","0.531","6.441","0.09","0.4","29.5753","4.67788","22.41","0","SATNPRO1964","23.804000000000002","0.33342","5"],
    [55283,"HCEP03730563","2025-07-26 07:00:00","9.9902","3.27407","26.957","2.225","7.41","0.493","5.547","0.06","0.39","29.5813","4.67855","23.81","0","SATNPRO1964","24.086000000000002","0.33736","5"],
    [55284,"HCEP03730563","2025-07-26 07:15:00","9.9983","3.27505","26.787","2.346","7.42","0.497","5.123","0.05","0.28","29.5846","4.67887","25.11","0","SATNPRO1964","24.318","0.34058","5"],
    [55285,"HCEP03730563","2025-07-26 07:30:00","10.0078","3.27607","26.602","2.452","7.43","0.46","4.702","0.06","0.28","29.5871","4.67905","26.25","0","SATNPRO1964","24.45","0.34246","5"],
    [55286,"HCEP03730563","2025-07-26 07:45:00","10.0286","3.27809","26.4","2.549","7.44","0.49","4.363","0.06","0.24","29.5904","4.67917","27.3","0","SATNPRO1964","24.592","0.3445","5"],
    [55287,"HCEP03730563","2025-07-26 08:00:00","10.0307","3.27801","26.195","2.603","7.44","0.46","4.248","0.09","0.34","29.5879","4.67877","27.88","0","SATNPRO1964","24.562","0.344","5"],
    [55288,"HCEP03730563","2025-07-26 08:15:00","10.0526","3.28028","25.988","2.656","7.45","0.478","4.438","0.09","0.35","29.5928","4.67909","28.46","0","SATNPRO1964","24.71","0.3461","5"],
    [55289,"HCEP03730563","2025-07-26 08:30:00","10.076","3.28253","25.773","2.754","7.46","0.514","5.727","0.1","0.84","29.5962","4.67917","29.53","0","SATNPRO1964","24.748","0.34664","5"],
    [55290,"HCEP03730563","2025-07-26 08:45:00","10.1082","3.28569","25.538","2.861","7.47","0.502","4.34","0.05","0.16","29.6015","4.67937","30.7","0","SATNPRO1964","24.72","0.34626","5"],
    [55291,"HCEP03730563","2025-07-26 09:00:00","10.1157","3.28642","25.311","2.943","7.48","0.49","4.754","0.06","0.26","29.6029","4.67943","31.58","0","SATNPRO1964","24.77","0.34696","5"],
    [55292,"HCEP03730563","2025-07-26 09:15:00","10.1276","3.28757","25.084","2.994","7.48","0.504","4.322","0.09","0.2","29.6046","4.67947","32.14","0","SATNPRO1964","24.84","0.34792","5"],
    [55293,"HCEP03730563","2025-07-26 09:30:00","10.1366","3.28842","24.869","3.05","7.49","0.479","4.202","0.08","0.18","29.6058","4.67947","32.75","0","SATNPRO1964","24.878","0.34844","5"],
    [55294,"HCEP03730563","2025-07-26 09:45:00","10.1193","3.28662","24.632","3.059","7.49","0.485","3.343","0.11","0.13","29.6021","4.67922","32.84","0","SATNPRO1964","24.92","0.34904","5"],
    [55295,"HCEP03730563","2025-07-26 10:00:00","10.123","3.28711","24.441","3.031","7.49","0.508","4.23","0.06","0.23","29.6041","4.67943","32.53","0","SATNPRO1964","24.874","0.34842","5"],
    [55296,"HCEP03730563","2025-07-26 10:15:00","10.0789","3.28278","24.17","2.926","7.49","0.498","4.545","0.1","0.24","29.5969","4.67912","31.37","0","SATNPRO1964","24.636","0.34504","5"],
    [55297,"HCEP03730563","2025-07-26 10:30:00","9.9763","3.27174","24.009","2.576","7.47","0.43","4.038","0.05","0.35","29.5706","4.67708","27.56","0","SATNPRO1964","23.934","0.3352","5"],
    [55298,"HCEP03730563","2025-07-26 10:45:00","10.0052","3.275","23.849","2.399","7.45","0.503","4.985","0.12","0.39","29.5796","4.67787","25.68","0","SATNPRO1964","24.032","0.33656","5"],
    [55299,"HCEP03730563","2025-07-26 11:00:00","10.0073","3.27564","23.771","2.441","7.44","0.492","5.073","0.08","0.39","29.5843","4.67851","26.13","0","SATNPRO1964","24.264","0.33984","5"],
    [55300,"HCEP03730563","2025-07-26 11:15:00","10.0112","3.27604","23.772","2.457","7.44","0.589","5.318","0.25","0.73","29.5851","4.67855","26.3","0","SATNPRO1964","24.422","0.34208","5"],
    [55301,"HCEP03730563","2025-07-26 11:30:00","10.0202","3.27679","23.774","2.494","7.44","0.588","9.152","0.08","1.83","29.5853","4.67843","26.71","0","SATNPRO1964","24.278000000000002","0.34008","5"],
    [55302,"HCEP03730563","2025-07-26 11:45:00","10.0134","3.27704","23.792","2.541","7.45","0.493","4.474","0.15","0.22","29.5933","4.67969","27.21","0","SATNPRO1964","24.454","0.34256","5"],
    [55303,"HCEP03730563","2025-07-26 12:00:00","10.007","3.27646","23.822","2.543","7.45","0.423","4.678","0.04","0.27","29.5928","4.67972","27.23","0","SATNPRO1964","24.4","0.34176","5"],
    [55304,"HCEP03730563","2025-07-26 12:15:00","10.0267","3.27821","23.878","2.557","7.45","0.502","5.377","0.11","0.53","29.5941","4.67958","27.39","0","SATNPRO1964","24.608","0.34464","5"],
    [55305,"HCEP03730563","2025-07-26 12:30:00","10.0154","3.27734","23.966","2.579","7.45","0.427","4.961","0.04","0.31","29.5946","4.67984","27.61","0","SATNPRO1964","24.434","0.34224","5"],
    [55306,"HCEP03730563","2025-07-26 12:45:00","9.9649","3.27001","24.046","2.376","7.44","0.412","3.203","0.07","0.11","29.5626","4.67613","25.41","0","SATNPRO1964","23.662","0.33144","5"],
    [55307,"HCEP03730563","2025-07-26 13:00:00","10.0032","3.276","24.236","2.326","7.43","0.449","4.839","0.07","0.29","29.5912","4.67958","24.89","0","SATNPRO1964","24.388","0.3416","5"],
    [55308,"HCEP03730563","2025-07-26 13:15:00","10.0065","3.27647","24.396","2.49","7.44","0.481","5.717","0.04","0.23","29.593","4.6798","26.65","0","SATNPRO1964","24.35","0.34106","5"],
    [55309,"HCEP03730563","2025-07-26 13:30:00","10.0083","3.27657","24.584","2.527","7.44","0.424","5.207","0.03","0.66","29.5925","4.67971","27.05","0","SATNPRO1964","24.516","0.34334","5"],
    [55310,"HCEP03730563","2025-07-26 13:45:00","10.0161","3.27745","24.783","2.559","7.45","0.452","5.466","0.03","0.18","29.5948","4.67992","27.41","0","SATNPRO1964","24.358","0.34114","5"],
    [55311,"HCEP03730563","2025-07-26 14:00:00","10.0225","3.27788","24.981","2.567","7.45","0.431","5.237","0.04","0.4","29.5938","4.67967","27.49","0","SATNPRO1964","24.386","0.34156","5"],
    [55312,"HCEP03730563","2025-07-26 14:15:00","10.0244","3.27785","25.175","2.595","7.45","0.466","5.174","0.07","0.31","29.5919","4.67938","27.79","0","SATNPRO1964","24.548000000000002","0.34386","5"],
    [55313,"HCEP03730563","2025-07-26 14:30:00","10.0349","3.27916","25.369","2.631","7.45","0.484","5.417","0.13","0.33","29.5964","4.67986","28.19","0","SATNPRO1964","24.702","0.34598","5"],
    [55314,"HCEP03730563","2025-07-26 14:45:00","10.072","3.28289","25.563","2.691","7.46","0.479","5.814","0.06","0.89","29.6031","4.68021","28.85","0","SATNPRO1964","24.604","0.34458","5"],
    [55315,"HCEP03730563","2025-07-26 15:00:00","10.0791","3.2836","25.786","2.769","7.46","0.515","5.428","0.27","0.27","29.6043","4.68027","29.69","0","SATNPRO1964","24.488","0.343","5"],
    [55316,"HCEP03730563","2025-07-26 15:15:00","10.039","3.27965","26.008","2.736","7.46","0.448","4.699","0.05","0.15","29.5976","4.68","29.32","0","SATNPRO1964","24.602","0.34458","5"],
    [55317,"HCEP03730563","2025-07-26 15:30:00","10.0223","3.27793","26.268","2.669","7.46","0.418","4.07","0.07","0.21","29.594","4.67977","28.59","0","SATNPRO1964","24.502000000000002","0.34318","5"],
    [55318,"HCEP03730563","2025-07-26 15:45:00","10.0183","3.2777","26.488","2.626","7.46","0.461","5.134","0.06","0.1","29.5949","4.67998","28.12","0","SATNPRO1964","24.44","0.34232","5"],
    [55319,"HCEP03730563","2025-07-26 16:00:00","10.0175","3.27758","26.724","2.578","7.45","0.436","5.479","0.05","0.25","29.5943","4.67992","27.61","0","SATNPRO1964","24.35","0.34108","5"],
    [55320,"HCEP03730563","2025-07-26 16:15:00","10.0194","3.27753","26.917","2.531","7.45","0.463","6.195","0.03","0.33","29.592","4.67959","27.1","0","SATNPRO1964","24.394000000000002","0.34166","5"],
    [55321,"HCEP03730563","2025-07-26 16:30:00","10.0292","3.27828","27.139","2.515","7.45","0.44","5.798","0.03","0.28","29.5915","4.67935","26.94","0","SATNPRO1964","24.266000000000002","0.3399","5"],
    [55322,"HCEP03730563","2025-07-26 16:45:00","10.0994","3.28518","27.318","2.707","7.46","0.47","5.287","0.04","0.33","29.6029","4.67982","29.04","0","SATNPRO1964","24.658","0.3454","5"],
    [55323,"HCEP03730563","2025-07-26 17:00:00","10.1682","3.29172","27.459","2.973","7.48","0.448","4.878","0.04","0.2","29.6119","4.67997","31.94","0","SATNPRO1964","24.706","0.34606","5"],
    [55324,"HCEP03730563","2025-07-26 17:15:00","10.2515","3.29996","27.627","3.264","7.5","0.462","3.185","0.08","0.12","29.6259","4.68059","35.13","0","SATNPRO1964","25.21","0.35316","5"],
    [55325,"HCEP03730563","2025-07-26 17:30:00","10.2294","3.29717","27.726","3.394","7.51","0.443","3.368","0.07","0.18","29.6161","4.67957","36.52","0","SATNPRO1964","25.06","0.351","5"],
    [55326,"HCEP03730563","2025-07-26 17:45:00","10.1848","3.29192","27.82","3.271","7.51","0.439","2.726","0.08","0.3","29.6002","4.67805","35.16","0","SATNPRO1964","24.948","0.34942","5"],
    [55327,"HCEP03730563","2025-07-26 18:00:00","10.15","3.28996","27.88","3.112","7.51","0.445","4.329","0.05","0.19","29.6091","4.67989","33.42","0","SATNPRO1964","24.616","0.34474","5"],
    [55328,"HCEP03730563","2025-07-26 18:15:00","10.0439","3.27893","27.919","2.824","7.49","0.44","4.378","0.06","0.17","29.5857","4.67832","30.25","0","SATNPRO1964","24.11","0.33768","5"],
    [55329,"HCEP03730563","2025-07-26 18:30:00","10.0286","3.27743","27.935","2.554","7.47","0.414","4.433","0.06","0.19","29.5832","4.67823","27.36","0","SATNPRO1964","24.072","0.33718","5"],
    [55330,"HCEP03730563","2025-07-26 18:45:00","10.0066","3.27509","27.92","2.439","7.45","0.483","3.991","0.34","0.19","29.5777","4.67782","26.11","0","SATNPRO1964","23.766","0.33288","5"],
    [55331,"HCEP03730563","2025-07-26 19:00:00","9.9858","3.2721","27.919","2.311","7.44","0.392","4.141","0.03","0.25","29.5648","4.67633","24.73","0","SATNPRO1964","24.06","0.337","5"],
    [55332,"HCEP03730563","2025-07-26 19:15:00","10.0076","3.27604","27.879","2.304","7.43","0.445","5.717","0.03","0.34","29.5864","4.67904","24.67","0","SATNPRO1964","24","0.33616","5"],
    [55333,"HCEP03730563","2025-07-26 19:30:00","10.0013","3.27543","27.861","2.356","7.43","0.44","6.178","0.04","0.25","29.5855","4.679","25.22","0","SATNPRO1964","23.938","0.3353","5"],
    [55334,"HCEP03730563","2025-07-26 19:45:00","10.0013","3.27544","27.862","2.337","7.43","0.465","5.936","0.05","0.53","29.5856","4.67902","25.02","0","SATNPRO1964","23.932","0.33522","5"],
    [55335,"HCEP03730563","2025-07-26 20:00:00","10.0019","3.2755","27.784","2.337","7.43","0.455","5.641","0.17","0.27","29.5857","4.67903","25.02","0","SATNPRO1964","24.009999999999998","0.3363","5"],
    [55336,"HCEP03730563","2025-07-26 20:15:00","10.0024","3.2755","27.741","2.336","7.43","0.469","5.562","0.09","0.21","29.5854","4.67897","25.01","0","SATNPRO1964","24.15","0.33822","5"],
    [55337,"HCEP03730563","2025-07-26 20:30:00","10.0025","3.27546","27.637","2.329","7.43","0.44","5.447","0.1","0.22","29.5849","4.67889","24.93","0","SATNPRO1964","23.982","0.33592","5"],
    [55338,"HCEP03730563","2025-07-26 20:45:00","10.0025","3.27556","27.529","2.311","7.43","0.47","5.991","0.07","0.2","29.586","4.67904","24.74","0","SATNPRO1964","23.908","0.33488","5"],
    [55339,"HCEP03730563","2025-07-26 21:00:00","10.0014","3.27558","27.427","2.296","7.43","0.444","6.137","0.07","0.35","29.5871","4.67921","24.58","0","SATNPRO1964","23.855999999999998","0.33416","5"],
    [55340,"HCEP03730563","2025-07-26 21:15:00","10.0016","3.27569","27.347","2.3","7.43","0.858","29.794","0.57","28.62","29.5881","4.67935","24.62","0","SATNPRO1964","23.988","0.336","5"],
    [55341,"HCEP03730563","2025-07-26 21:30:00","10.0074","3.27651","27.26","2.324","7.43","0.46","7.417","0.07","0.45","29.5916","4.67974","24.88","0","SATNPRO1964","24.164","0.33844","5"],
    [55342,"HCEP03730563","2025-07-26 21:45:00","10.0306","3.2795","27.132","2.464","7.43","0.479","7.58","0.06","0.37","29.6025","4.68091","26.39","0","SATNPRO1964","24.738","0.34648","5"],
    [55343,"HCEP03730563","2025-07-26 22:00:00","10.0538","3.28215","27.037","2.772","7.45","0.466","6.805","0.07","0.37","29.6101","4.6816","29.71","0","SATNPRO1964","25.444","0.35638","5"],
    [55344,"HCEP03730563","2025-07-26 22:15:00","10.0593","3.2826","26.918","2.954","7.47","0.445","7.288","0.04","0.31","29.6101","4.6815","31.67","0","SATNPRO1964","25.498","0.35714","5"],
    [55345,"HCEP03730563","2025-07-26 22:30:00","10.0678","3.28352","26.843","3.015","7.48","0.419","6.251","0.04","0.31","29.6124","4.68168","32.33","0","SATNPRO1964","25.538","0.3577","5"],
    [55346,"HCEP03730563","2025-07-26 22:45:00","10.09","3.28467","26.695","3.252","7.5","0.39","3.518","0.05","0.3","29.6058","4.68036","34.88","0","SATNPRO1964","26.43","0.3702","5"],
    [55347,"HCEP03730563","2025-07-26 23:00:00","10.1121","3.28727","26.542","3.484","7.52","0.383","4.058","0.04","0.45","29.6137","4.68111","37.39","0","SATNPRO1964","26.854","0.37612","5"],
    [55348,"HCEP03730563","2025-07-26 23:15:00","10.0822","3.28418","26.428","3.397","7.52","0.42","4.325","0.05","0.18","29.6073","4.68068","36.43","0","SATNPRO1964","25.83","0.36178","5"],
    [55349,"HCEP03730563","2025-07-26 23:30:00","10.0635","3.28159","26.308","3.163","7.51","0.379","4.227","0.05","0.19","29.596800000000002","4.67949","33.9","0","SATNPRO1964","25.298","0.35434","5"],
    [55350,"HCEP03730563","2025-07-26 23:45:00","10.0847","3.28466","26.208","3.132","7.5","0.433","4.766","0.08","0.33","29.6103","4.68105","33.59","0","SATNPRO1964","25.992","0.36404","5"],
    [55351,"HCEP03730563","2025-07-27 00:00:00","10.0865","3.28487","26.111","3.248","7.51","0.371","4.633","0.04","0.24","29.6109","4.6811","34.83","0","SATNPRO1964","26.184","0.36676","5"],
    [55352,"HCEP03730563","2025-07-27 00:15:00","10.0823","3.28373","26.037","3.24","7.51","0.425","4.204","0.09","1.03","29.6029","4.68004","34.74","0","SATNPRO1964","25.904","0.3628","5"],
    [55353,"HCEP03730563","2025-07-27 00:30:00","10.0816","3.28412","25.996","3.216","7.51","0.404","4.3","0.06","0.5","29.6074","4.68069","34.48","0","SATNPRO1964","26.056","0.36492","5"],
    [55354,"HCEP03730563","2025-07-27 00:45:00","10.0702","3.28306","25.988","3.154","7.5","0.44","4.762","0.1","0.67","29.6061","4.68069","33.82","0","SATNPRO1964","25.518","0.35742","5"],
    [55355,"HCEP03730563","2025-07-27 01:00:00","10.0561","3.28127","26.026","3.025","7.5","0.417","4.352","0.12","0.32","29.5998","4.68002","32.42","0","SATNPRO1964","25.34","0.35496","5"],
    [55356,"HCEP03730563","2025-07-27 01:15:00","10.0591","3.28004","26.115","3.005","7.49","0.468","2.538","0.19","0.13","29.585","4.67787","32.21","0","SATNPRO1964","25.74","0.3605","5"],
    [55357,"HCEP03730563","2025-07-27 01:30:00","10.0422","3.27888","26.177","2.93","7.49","0.38","3.395","0.09","0.39","29.5873","4.67848","31.4","0","SATNPRO1964","24.95","0.3495","5"],
    [55358,"HCEP03730563","2025-07-27 01:45:00","10.0248","3.27704","26.239","2.764","7.48","0.502","3.919","0.08","0.36","29.5831","4.67818","29.6","0","SATNPRO1964","25.864","0.36228","5"],
    [55359,"HCEP03730563","2025-07-27 02:00:00","10.037","3.27923","26.327","2.668","7.47","0.4","4.375","0.06","0.15","29.5949","4.67967","28.58","0","SATNPRO1964","24.634","0.345","5"],
    [55360,"HCEP03730563","2025-07-27 02:15:00","10.0605","3.28217","26.403","2.78","7.47","0.444","5.378","0.06","0.21","29.6051","4.68072","29.8","0","SATNPRO1964","25.274","0.354","5"],
    [55361,"HCEP03730563","2025-07-27 02:30:00","10.0647","3.28308","26.488","2.936","7.48","0.413","5.515","0.07","0.24","29.6107","4.68146","31.48","0","SATNPRO1964","25.528","0.35756","5"],
    [55362,"HCEP03730563","2025-07-27 02:45:00","10.0753","3.28454","26.56","3.05","7.49","0.46","5.189","0.13","0.25","29.6166","4.68213","32.71","0","SATNPRO1964","25.652","0.3593","5"],
    [55363,"HCEP03730563","2025-07-27 03:00:00","10.0783","3.28498","26.633","3.145","7.5","0.442","4.615","0.09","0.26","29.6184","4.68235","33.73","0","SATNPRO1964","25.844","0.36198","5"],
    [55364,"HCEP03730563","2025-07-27 03:15:00","10.0725","3.28443","26.693","3.154","7.5","0.422","4.92","0.05","0.36","29.6177","4.68234","33.82","0","SATNPRO1964","25.73","0.36038","5"],
    [55365,"HCEP03730563","2025-07-27 03:30:00","10.0727","3.2846","26.782","3.132","7.5","0.438","4.775","0.09","0.28","29.6192","4.68256","33.59","0","SATNPRO1964","25.532","0.3576","5"],
    [55366,"HCEP03730563","2025-07-27 03:45:00","10.0735","3.28476","26.893","3.129","7.5","0.426","4.93","0.05","0.19","29.6201","4.68269","33.55","0","SATNPRO1964","25.728","0.36036","5"],
    [55367,"HCEP03730563","2025-07-27 04:00:00","10.0734","3.28479","26.995","3.123","7.5","0.59","9.637","0.61","14.57","29.6204","4.68274","33.49","0","SATNPRO1964","25.558","0.35796","5"],
    [55368,"HCEP03730563","2025-07-27 04:15:00","10.0755","3.28513","27.095","3.14","7.5","0.429","4.924","0.08","0.72","29.6221","4.68294","33.67","0","SATNPRO1964","25.637999999999998","0.35912","5"],
    [55369,"HCEP03730563","2025-07-27 04:30:00","10.0726","3.28477","27.179","3.141","7.5","0.4","4.417","0.05","0.19","29.6208","4.68282","33.68","0","SATNPRO1964","25.498","0.3572","5"],
    [55370,"HCEP03730563","2025-07-27 04:45:00","10.058","3.28232","27.232","3.076","7.5","0.454","3.77","0.23","0.16","29.6083","4.68128","32.97","0","SATNPRO1964","25.4","0.35576","5"],
    [55371,"HCEP03730563","2025-07-27 05:00:00","10.0467","3.28123","27.293","2.909","7.49","0.5","5.046","0.16","1.74","29.6065","4.68122","31.17","0","SATNPRO1964","24.932","0.34924","5"],
    [55372,"HCEP03730563","2025-07-27 05:15:00","10.0375","3.28021","27.368","2.799","7.48","0.422","3.93","0.08","0.45","29.6038","4.68099","29.98","0","SATNPRO1964","24.662","0.34546","5"],
    [55373,"HCEP03730563","2025-07-27 05:30:00","10.0064","3.27546","27.404","2.596","7.47","0.381","3.185","0.05","0.16","29.5819","4.67838","27.79","0","SATNPRO1964","24.158","0.3384","5"],
    [55374,"HCEP03730563","2025-07-27 05:45:00","10.0217","3.27734","27.431","2.504","7.45","0.479","3.43","0.13","0.14","29.5881","4.67901","26.82","0","SATNPRO1964","24.222","0.33926","5"],
    [55375,"HCEP03730563","2025-07-27 06:00:00","10.0309","3.27916","27.422","2.545","7.45","0.406","5.764","0.05","0.56","29.5988","4.68038","27.26","0","SATNPRO1964","24.64","0.34512","5"],
    [55376,"HCEP03730563","2025-07-27 06:15:00","10.0437","3.28125","27.382","2.67","7.46","0.533","6.16","0.09","1.04","29.6092","4.68165","28.61","0","SATNPRO1964","24.972","0.34976","5"],
    [55377,"HCEP03730563","2025-07-27 06:30:00","10.0383","3.28032","27.355","2.716","7.46","0.401","4.449","0.04","0.27","29.6043","4.68105","29.1","0","SATNPRO1964","24.616","0.34476","5"],
    [55378,"HCEP03730563","2025-07-27 06:45:00","10.0363","3.27986","27.309","2.677","7.46","0.437","4.736","0.1","0.28","29.6014","4.68066","28.68","0","SATNPRO1964","24.82","0.34766","5"],
    [55379,"HCEP03730563","2025-07-27 07:00:00","10.0332","3.27942","27.24","2.609","7.46","0.39","4.635","0.03","0.28","29.5996","4.68045","27.95","0","SATNPRO1964","24.504","0.34322","5"],
    [55380,"HCEP03730563","2025-07-27 07:15:00","10.0348","3.27938","27.148","2.549","7.45","0.424","4.821","0.04","0.22","29.5979","4.68017","27.31","0","SATNPRO1964","24.264","0.33982","5"],
    [55381,"HCEP03730563","2025-07-27 07:30:00","10.0382","3.27943","27.034","2.502","7.45","0.4","4.54","0.03","0.34","29.5956","4.67978","26.81","0","SATNPRO1964","24.026","0.3365","5"],
    [55382,"HCEP03730563","2025-07-27 07:45:00","10.0425","3.27966","26.905","2.465","7.45","0.431","4.647","0.06","0.3","29.5945","4.67955","26.41","0","SATNPRO1964","23.817999999999998","0.33364","5"],
    [55383,"HCEP03730563","2025-07-27 08:00:00","10.0497","3.28028","26.741","2.454","7.44","0.418","4.431","0.05","0.15","29.5949","4.67947","26.3","0","SATNPRO1964","24.076","0.33722","5"],
    [55384,"HCEP03730563","2025-07-27 08:15:00","10.0555","3.28083","26.577","2.455","7.44","0.445","4.542","0.06","0.29","29.5957","4.67948","26.31","0","SATNPRO1964","24.05","0.33684","5"],
    [55385,"HCEP03730563","2025-07-27 08:30:00","10.0698","3.28222","26.398","2.481","7.44","0.444","4.178","0.05","0.17","29.598","4.67955","26.6","0","SATNPRO1964","24.022","0.33648","5"],
    [55386,"HCEP03730563","2025-07-27 08:45:00","10.0915","3.28438","26.207","2.527","7.45","0.446","4.521","0.05","0.24","29.6018","4.67973","27.1","0","SATNPRO1964","23.924","0.3351","5"],
    [55387,"HCEP03730563","2025-07-27 09:00:00","10.106","3.28581","26.041","2.597","7.45","0.456","5.162","0.06","0.31","29.6043","4.67984","27.87","0","SATNPRO1964","24.274","0.34","5"],
    [55388,"HCEP03730563","2025-07-27 09:15:00","10.1147","3.28664","25.827","2.634","7.46","0.443","4.614","0.05","0.25","29.6056","4.67987","28.26","0","SATNPRO1964","24.024","0.33652","5"],
    [55389,"HCEP03730563","2025-07-27 09:30:00","10.1255","3.28763","25.604","2.668","7.46","0.433","4.405","0.05","0.2","29.6068","4.67985","28.64","0","SATNPRO1964","24.004","0.3362","5"],
    [55390,"HCEP03730563","2025-07-27 09:45:00","10.1306","3.28815","25.394","2.706","7.46","0.441","4.074","0.08","0.29","29.6078","4.67988","29.05","0","SATNPRO1964","24.208000000000002","0.33906","5"],
    [55391,"HCEP03730563","2025-07-27 10:00:00","10.1358","3.28574","25.187","2.748","7.47","0.454","3.709","0.1","0.18","29.5797","4.67577","29.5","0","SATNPRO1964","24.22","0.33924","5"],
    [55392,"HCEP03730563","2025-07-27 10:15:00","10.1215","3.28711","25.01","2.769","7.47","0.445","3.707","0.07","0.13","29.6051","4.67963","29.72","0","SATNPRO1964","24.318","0.34064","5"],
    [55393,"HCEP03730563","2025-07-27 10:30:00","10.1059","3.28541","24.826","2.709","7.47","0.423","3.919","0.08","0.25","29.6009","4.67929","29.06","0","SATNPRO1964","24.099999999999998","0.33758","5"],
    [55394,"HCEP03730563","2025-07-27 10:45:00","10.0953","3.28443","24.592","2.652","7.46","0.439","3.988","0.06","0.26","29.5999","4.67931","28.45","0","SATNPRO1964","24.104","0.33764","5"],
    [55395,"HCEP03730563","2025-07-27 11:00:00","10.0755","3.28247","24.468","2.533","7.45","0.468","5.78","0.06","0.3","29.5966","4.67915","27.16","0","SATNPRO1964","23.716","0.3322","5"],
    [55396,"HCEP03730563","2025-07-27 11:15:00","10.0713","3.28202","24.307","2.417","7.45","0.454","6.064","0.05","0.4","29.5956","4.67907","25.91","0","SATNPRO1964","23.72","0.33224","5"],
    [55397,"HCEP03730563","2025-07-27 11:30:00","10.065","3.28144","24.182","2.396","7.44","0.504","4.93","0.26","0.19","29.5949","4.67908","25.68","0","SATNPRO1964","23.822","0.33366","5"],
    [55398,"HCEP03730563","2025-07-27 11:45:00","10.0621","3.28116","24.117","2.384","7.44","0.475","5.49","0.07","0.42","29.5945","4.67906","25.55","0","SATNPRO1964","23.646","0.33124","5"],
    [55399,"HCEP03730563","2025-07-27 12:00:00","10.0533","3.28035","24.112","2.362","7.44","0.456","5.509","0.06","0.3","29.5936","4.67908","25.32","0","SATNPRO1964","23.75","0.33266","5"],
    [55400,"HCEP03730563","2025-07-27 12:15:00","10.0424","3.27948","24.11","2.347","7.43","0.431","5.677","0.04","0.3","29.5939","4.6793","25.15","0","SATNPRO1964","23.832","0.33382","5"],
    [55401,"HCEP03730563","2025-07-27 12:30:00","10.0382","3.27931","24.109","2.336","7.43","0.444","5.979","0.07","0.42","29.5956","4.67961","25.02","0","SATNPRO1964","23.928","0.33514","5"],
    [55402,"HCEP03730563","2025-07-27 12:45:00","10.0396","3.27967","24.15","2.406","7.44","0.409","4.506","0.04","0.16","29.5981","4.67995","25.78","0","SATNPRO1964","24.336","0.34088","5"],
    [55403,"HCEP03730563","2025-07-27 13:00:00","10.0407","3.2798","24.248","2.482","7.44","0.417","4.999","0.07","0.21","29.5985","4.67999","26.59","0","SATNPRO1964","24.238","0.33952","5"],
    [55404,"HCEP03730563","2025-07-27 13:15:00","10.0478","3.28054","24.322","2.54","7.44","0.396","4.05","0.05","0.15","29.6","4.6801","27.22","0","SATNPRO1964","24.742","0.34654","5"],
    [55405,"HCEP03730563","2025-07-27 13:30:00","10.0426","3.28008","24.418","2.567","7.45","0.404","5.53","0.03","0.35","29.5997","4.68014","27.5","0","SATNPRO1964","24.37","0.34136","5"],
    [55406,"HCEP03730563","2025-07-27 13:45:00","10.047","3.28061","24.533","2.568","7.45","0.426","5.449","0.04","0.24","29.6013","4.68031","27.51","0","SATNPRO1964","24.408","0.34188","5"],
    [55407,"HCEP03730563","2025-07-27 14:00:00","10.0583","3.28203","24.648","2.705","7.46","0.412","4.351","0.05","0.26","29.6061","4.68081","29","0","SATNPRO1964","24.942","0.34938","5"],
    [55408,"HCEP03730563","2025-07-27 14:15:00","10.0623","3.28243","24.796","2.852","7.47","0.417","3.775","0.06","0.17","29.6068","4.68085","30.58","0","SATNPRO1964","25.246","0.3536","5"],
    [55409,"HCEP03730563","2025-07-27 14:30:00","10.072","3.28377","24.96","2.954","7.48","0.426","4.28","0.07","0.19","29.6122","4.68147","31.67","0","SATNPRO1964","25.558","0.358","5"],
    [55410,"HCEP03730563","2025-07-27 14:45:00","10.0663","3.28309","25.175","2.979","7.48","0.412","4.32","0.05","0.21","29.61","4.68127","31.94","0","SATNPRO1964","25.330000000000002","0.35478","5"],
    [55411,"HCEP03730563","2025-07-27 15:00:00","10.048400000000001","3.2806","25.405","2.793","7.47","0.422","5.184","0.04","0.28","29.5997","4.6801","29.93","0","SATNPRO1964","24.503999999999998","0.3432","5"],
    [55412,"HCEP03730563","2025-07-27 15:15:00","10.0514","3.2806","25.65","2.516","7.46","0.45","5.713","0.04","0.29","29.5972","4.67971","26.96","0","SATNPRO1964","23.902","0.33478","5"],
    [55413,"HCEP03730563","2025-07-27 15:30:00","10.0765","3.28311","25.869","2.423","7.45","0.438","5.255","0.1","0.33","29.6016","4.67993","25.99","0","SATNPRO1964","23.814","0.33354","5"],
    [55414,"HCEP03730563","2025-07-27 15:45:00","10.1002","3.28551","26.094","2.517","7.45","0.422","4.871","0.03","0.19","29.606","4.68018","27","0","SATNPRO1964","24.055999999999997","0.33694","5"],
    [55415,"HCEP03730563","2025-07-27 16:00:00","10.1288","3.28808","26.313","2.673","7.46","0.41","4.467","0.04","0.24","29.6082","4.68003","28.7","0","SATNPRO1964","24.25","0.33968","5"],
    [55416,"HCEP03730563","2025-07-27 16:15:00","10.14","3.28943","26.537","2.776","7.47","0.41","4.316","0.03","0.18","29.6125","4.68047","29.81","0","SATNPRO1964","24.266","0.3399","5"],
    [55417,"HCEP03730563","2025-07-27 16:30:00","10.1394","3.28944","26.751","2.816","7.47","0.433","4.65","0.06","0.24","29.613","4.68056","30.24","0","SATNPRO1964","24.282","0.34012","5"],
    [55418,"HCEP03730563","2025-07-27 16:45:00","10.1365","3.28928","26.976","2.755","7.47","0.45","5.625","0.03","0.14","29.6136","4.68071","29.58","0","SATNPRO1964","23.928","0.33514","5"],
    [55419,"HCEP03730563","2025-07-27 17:00:00","10.1245","3.28797","27.169","2.682","7.47","0.454","6.412","0.09","1.33","29.6104","4.68046","28.79","0","SATNPRO1964","23.962","0.33564","5"],
    [55420,"HCEP03730563","2025-07-27 17:15:00","10.1129","3.2868","27.35","2.622","7.46","0.433","5.361","0.03","0.14","29.6081","4.68033","28.14","0","SATNPRO1964","23.816","0.3336","5"],
    [55421,"HCEP03730563","2025-07-27 17:30:00","10.0958","3.28506","27.493","2.562","7.46","0.43","4.988","0.08","0.17","29.6046","4.68012","27.49","0","SATNPRO1964","23.85","0.33408","5"],
    [55422,"HCEP03730563","2025-07-27 17:45:00","10.0667","3.28215","27.648","2.476","7.45","0.45","6.257","0.03","0.23","29.5993","4.67987","26.54","0","SATNPRO1964","23.736","0.33248","5"],
    [55423,"HCEP03730563","2025-07-27 18:00:00","10.0553","3.28151","27.744","2.511","7.45","0.416","5.848","0.03","0.24","29.6022","4.68048","26.91","0","SATNPRO1964","24.642","0.34512","5"],
    [55424,"HCEP03730563","2025-07-27 18:15:00","10.0577","3.28199","27.851","2.639","7.45","0.438","5.734","0.03","0.25","29.6049","4.68084","28.29","0","SATNPRO1964","24.68","0.3457","5"],
    [55425,"HCEP03730563","2025-07-27 18:30:00","10.0567","3.28184","27.931","2.697","7.46","0.402","5.09","0.04","0.22","29.6043","4.68077","28.91","0","SATNPRO1964","24.772","0.34694","5"],
    [55426,"HCEP03730563","2025-07-27 18:45:00","10.0512","3.281","27.967","2.637","7.46","0.442","5.273","0.06","0.28","29.6003","4.68029","28.26","0","SATNPRO1964","24.384","0.34154","5"],
    [55427,"HCEP03730563","2025-07-27 19:00:00","10.0498","3.28074","27.968","2.508","7.45","0.426","6.365","0.03","0.78","29.5989","4.68011","26.87","0","SATNPRO1964","23.976","0.33584","5"],
    [55428,"HCEP03730563","2025-07-27 19:15:00","10.0533","3.28093","27.994","2.398","7.44","0.526","6.041","0.13","0.49","29.5979","4.67991","25.7","0","SATNPRO1964","23.84","0.33392","5"],
    [55429,"HCEP03730563","2025-07-27 19:30:00","10.0526","3.28087","27.977","2.38","7.44","0.407","5.511","0.03","0.36","29.5979","4.67992","25.5","0","SATNPRO1964","23.936","0.33524","5"],
    [55430,"HCEP03730563","2025-07-27 19:45:00","10.0578","3.28126","27.945","2.396","7.44","1.177","17.264","2.38","24.4","29.5975","4.67978","25.68","0","SATNPRO1964","23.846","0.33398","5"],
    [55431,"HCEP03730563","2025-07-27 20:00:00","10.0623","3.28168","27.957","2.39","7.44","0.414","5.138","0.07","0.8","29.5981","4.67979","25.62","0","SATNPRO1964","23.624000000000002","0.3309","5"],
    [55432,"HCEP03730563","2025-07-27 20:15:00","10.0778","3.28296","27.926","2.382","7.44","0.422","5.577","0.03","0.19","29.5982","4.67954","25.54","0","SATNPRO1964","23.578","0.33022","5"],
    [55433,"HCEP03730563","2025-07-27 20:30:00","10.0977","3.28313","27.862","2.442","7.44","0.384","4.47","0.03","0.14","29.5837","4.67713","26.2","0","SATNPRO1964","23.776","0.33302","5"],
    [55434,"HCEP03730563","2025-07-27 20:45:00","10.0803","3.28461","27.747","2.528","7.44","0.408","4.191","0.02","0.14","29.6127","4.68156","27.12","0","SATNPRO1964","23.89","0.3346","5"],
    [55435,"HCEP03730563","2025-07-27 21:00:00","10.0792","3.28303","27.657","2.562","7.45","0.365","3.2","0.04","0.11","29.5979","4.67946","27.48","0","SATNPRO1964","24.214","0.33912","5"],
    [55436,"HCEP03730563","2025-07-27 21:15:00","10.0918","3.28465","27.565","2.57","7.45","0.413","4.312","0.05","0.15","29.6038","4.68009","27.57","0","SATNPRO1964","23.904","0.33478","5"],
    [55437,"HCEP03730563","2025-07-27 21:30:00","10.0857","3.28386","27.462","2.584","7.45","0.385","3.638","0.07","0.11","29.6009","4.67977","27.71","0","SATNPRO1964","23.972","0.3358","5"],
    [55438,"HCEP03730563","2025-07-27 21:45:00","10.0825","3.28354","27.391","2.593","7.45","0.386","3.551","0.03","0.48","29.6004","4.67974","27.81","0","SATNPRO1964","24.038","0.3367","5"],
    [55439,"HCEP03730563","2025-07-27 22:00:00","10.0972","3.28529","27.28","2.592","7.45","0.392","4.531","0.03","0.14","29.6059","4.68027","27.8","0","SATNPRO1964","23.994","0.33608","5"],
    [55440,"HCEP03730563","2025-07-27 22:15:00","10.0916","3.28462","27.146","2.55","7.45","0.426","5.394","0.03","0.14","29.6038","4.68007","27.36","0","SATNPRO1964","23.654","0.33128","5"],
    [55441,"HCEP03730563","2025-07-27 22:30:00","10.0923","3.28468","27.026","2.49","7.45","0.398","4.793","0.09","0.16","29.6039","4.68006","26.7","0","SATNPRO1964","23.7","0.33196","5"],
    [55442,"HCEP03730563","2025-07-27 22:45:00","10.0637","3.28176","26.89","2.498","7.45","0.404","3.658","0.07","0.12","29.5982","4.67972","26.77","0","SATNPRO1964","23.928","0.33514","5"],
    [55443,"HCEP03730563","2025-07-27 23:00:00","10.0633","3.28173","26.74","2.514","7.45","0.395","4.14","0.06","0.24","29.5982","4.67972","26.95","0","SATNPRO1964","23.962","0.33564","5"],
    [55444,"HCEP03730563","2025-07-27 23:15:00","10.0505","3.28085","26.618","2.369","7.44","0.456","7.694","0.03","0.28","29.5999","4.68017","25.39","0","SATNPRO1964","23.336","0.32686","5"],
    [55445,"HCEP03730563","2025-07-27 23:30:00","10.0542","3.28094","26.484","2.28","7.43","0.446","5.866","0.1","0.3","29.5979","4.67981","24.43","0","SATNPRO1964","23.762","0.33282","5"],
    [55446,"HCEP03730563","2025-07-27 23:45:00","10.0651","3.28181","26.337","2.416","7.44","0.383","3.089","0.06","0.14","29.5977","4.6796","25.9","0","SATNPRO1964","24.302","0.34038","5"],
    [55447,"HCEP03730563","2025-07-28 00:00:00","10.2577","3.29947","26.21","2.794","7.46","0.355","2.161","0.06","0.24","29.6165","4.67908","30.08","0","SATNPRO1964","24.702","0.34598","5"],
    [55448,"HCEP03730563","2025-07-28 00:15:00","10.1184","3.28654","26.075","2.871","7.47","0.383","3.092","0.04","0.17","29.6015","4.67922","30.81","0","SATNPRO1964","24.128","0.33792","5"],
    [55449,"HCEP03730563","2025-07-28 00:30:00","10.1267","3.28727","26.002","2.641","7.46","0.392","3.044","0.07","0.28","29.6021","4.67917","28.35","0","SATNPRO1964","24.074","0.33716","5"],
    [55450,"HCEP03730563","2025-07-28 00:45:00","10.1436","3.28845","25.915","2.687","7.46","0.505","2.972","0.38","0.67","29.6","4.67859","28.85","0","SATNPRO1964","24.46","0.34262","5"],
    [55451,"HCEP03730563","2025-07-28 01:00:00","10.152","3.28746","25.872","2.729","7.46","0.419","3.241","0.2","0.26","29.5833","4.67607","29.3","0","SATNPRO1964","24.082","0.33728","5"],
    [55452,"HCEP03730563","2025-07-28 01:15:00","10.0716","3.28229","25.853","2.52","7.45","0.419","4.567","0.06","0.27","29.5975","4.67942","27.01","0","SATNPRO1964","23.516000000000002","0.3294","5"],
    [55453,"HCEP03730563","2025-07-28 01:30:00","10.1091","3.28557","25.86","2.404","7.44","0.392","3.526","0.05","0.3","29.5994","4.67908","25.79","0","SATNPRO1964","23.652","0.33128","5"],
    [55454,"HCEP03730563","2025-07-28 01:45:00","10.1706","3.29146","25.852","2.572","7.45","0.42","3.147","0.06","0.17","29.608","4.67928","27.63","0","SATNPRO1964","23.934","0.3352","5"],
    [55455,"HCEP03730563","2025-07-28 02:00:00","10.1694","3.29083","25.901","2.724","7.46","0.417","2.88","0.09","0.15","29.6027","4.67854","29.27","0","SATNPRO1964","23.504","0.32922","5"],
    [55456,"HCEP03730563","2025-07-28 02:15:00","10.1169","3.28493","25.947","2.609","7.46","0.399","3.386","0.05","0.19","29.5867","4.67714","28","0","SATNPRO1964","23.348","0.327","5"],
    [55457,"HCEP03730563","2025-07-28 02:30:00","10.1021","3.28377","26.005","2.425","7.45","0.385","3.817","0.06","0.41","29.5872","4.67746","26.01","0","SATNPRO1964","23.1","0.32356","5"],
    [55458,"HCEP03730563","2025-07-28 02:45:00","10.0808","3.28301","26.101","2.315","7.44","0.447","6.058","0.07","1.68","29.597","4.67922","24.83","0","SATNPRO1964","23.306","0.32646","5"],
    [55459,"HCEP03730563","2025-07-28 03:00:00","10.0801","3.28321","26.171","2.268","7.43","0.409","5.413","0.08","0.49","29.5995","4.67959","24.32","0","SATNPRO1964","23.452","0.32846","5"],
    [55460,"HCEP03730563","2025-07-28 03:15:00","10.073","3.28243","26.25","2.261","7.43","0.439","5.263","0.06","0.23","29.5975","4.67943","24.24","0","SATNPRO1964","23.368","0.3273","5"],
    [55461,"HCEP03730563","2025-07-28 03:30:00","10.0684","3.27288","26.335","2.285","7.43","0.372","4.849","0.02","0.25","29.5059","4.66643","24.48","0","SATNPRO1964","23.55","0.32986","5"],
    [55462,"HCEP03730563","2025-07-28 03:45:00","10.0666","3.27594","26.422","2.34","7.43","0.427","5.511","0.08","0.27","29.5379","4.67104","25.08","0","SATNPRO1964","23.922","0.33508","5"],
    [55463,"HCEP03730563","2025-07-28 04:00:00","10.0677","3.27604","26.521","2.465","7.43","0.385","4.862","0.04","0.25","29.5379","4.67102","26.42","0","SATNPRO1964","24.132","0.33804","5"],
    [55464,"HCEP03730563","2025-07-28 04:15:00","10.0941","3.28174","26.617","2.664","7.45","0.441","5.836","0.06","0.23","29.5733","4.67564","28.57","0","SATNPRO1964","24.79","0.34722","5"],
    [55465,"HCEP03730563","2025-07-28 04:30:00","10.1004","3.28781","26.686","2.971","7.47","0.397","5.238","0.04","0.36","29.6286","4.68343","31.88","0","SATNPRO1964","25.578","0.3583","5"],
    [55466,"HCEP03730563","2025-07-28 04:45:00","10.112","3.28919","26.77","3.132","7.49","0.452","5.139","0.09","0.71","29.6329","4.68386","33.62","0","SATNPRO1964","25.94","0.36332","5"],
    [55467,"HCEP03730563","2025-07-28 05:00:00","10.1105","3.28879","26.862","3.214","7.5","0.432","4.48","0.12","0.3","29.63","4.68348","34.49","0","SATNPRO1964","25.838","0.36194","5"],
    [55468,"HCEP03730563","2025-07-28 05:15:00","10.1091","3.28865","26.951","3.22","7.5","0.426","4.891","0.05","0.29","29.6298","4.68347","34.56","0","SATNPRO1964","25.82","0.36166","5"],
    [55469,"HCEP03730563","2025-07-28 05:30:00","10.1093","3.2887","27.021","3.213","7.5","0.446","4.476","0.08","0.3","29.6301","4.68352","34.48","0","SATNPRO1964","25.872","0.36238","5"],
    [55470,"HCEP03730563","2025-07-28 05:45:00","10.1056","3.2881","27.094","3.192","7.5","0.445","4.449","0.11","0.27","29.6271","4.68315","34.25","0","SATNPRO1964","25.708000000000002","0.36008","5"],
    [55471,"HCEP03730563","2025-07-28 06:00:00","10.0997","3.28736","27.169","3.138","7.5","0.405","4.104","0.08","0.15","29.6245","4.68289","33.67","0","SATNPRO1964","25.32","0.35466","5"],
    [55472,"HCEP03730563","2025-07-28 06:15:00","10.0956","3.2869","27.201","3.064","7.5","0.423","4.442","0.06","0.72","29.6233","4.68279","32.87","0","SATNPRO1964","25.166","0.3525","5"],
    [55473,"HCEP03730563","2025-07-28 06:30:00","10.0895","3.28586","27.239","2.972","7.49","0.478","4.257","0.2","0.31","29.6178","4.6821","31.88","0","SATNPRO1964","24.936","0.34922","5"],
    [55474,"HCEP03730563","2025-07-28 06:45:00","10.0875","3.28558","27.253","2.878","7.48","0.417","4.253","0.06","0.17","29.6167","4.68198","30.87","0","SATNPRO1964","24.92","0.34908","5"],
    [55475,"HCEP03730563","2025-07-28 07:00:00","10.0919","3.28578","27.25","2.812","7.48","0.38","4.258","0.03","0.21","29.6151","4.68168","30.17","0","SATNPRO1964","24.746","0.3466","5"],
    [55476,"HCEP03730563","2025-07-28 07:15:00","10.0893","3.28532","27.208","2.753","7.47","0.407","4.2","0.05","0.19","29.6126","4.68136","29.53","0","SATNPRO1964","24.454","0.3425","5"],
    [55477,"HCEP03730563","2025-07-28 07:30:00","10.08","3.2844","27.159","2.667","7.47","0.439","4.755","0.1","0.39","29.6111","4.6813","28.6","0","SATNPRO1964","24.464","0.34266","5"],
    [55478,"HCEP03730563","2025-07-28 07:45:00","10.0841","3.28463","27.088","2.593","7.46","0.445","4.312","0.07","0.29","29.61","4.68108","27.82","0","SATNPRO1964","24.2","0.339","5"],
    [55479,"HCEP03730563","2025-07-28 08:00:00","10.0894","3.28507","27.008","2.567","7.46","0.401","4.11","0.04","0.15","29.6101","4.681","27.54","0","SATNPRO1964","24.638","0.34514","5"],
    [55480,"HCEP03730563","2025-07-28 08:15:00","10.0965","3.28545","26.915","2.567","7.45","0.408","3.49","0.06","0.11","29.6082","4.6806","27.54","0","SATNPRO1964","24.084","0.33734","5"],
    [55481,"HCEP03730563","2025-07-28 08:30:00","10.1021","3.28597","26.795","2.597","7.46","1.034","18.163","1.43","29.61","29.6089","4.68059","27.87","0","SATNPRO1964","24.068","0.33712","5"],
    [55482,"HCEP03730563","2025-07-28 08:45:00","10.104","3.28576","26.671","2.555","7.45","0.414","3.563","0.05","0.11","29.6052","4.68004","27.42","0","SATNPRO1964","23.722","0.33226","5"],
    [55483,"HCEP03730563","2025-07-28 09:00:00","10.1079","3.28633","26.513","2.482","7.45","0.415","3.566","0.08","0.09","29.6078","4.68033","26.63","0","SATNPRO1964","23.666","0.33148","5"],
    [55484,"HCEP03730563","2025-07-28 09:15:00","10.0992","3.28536","26.355","2.497","7.45","0.399","3.522","0.04","0.15","29.6053","4.6801","26.78","0","SATNPRO1964","24.028","0.33652","5"],
    [55485,"HCEP03730563","2025-07-28 09:30:00","10.0891","3.28465","26.194","2.482","7.45","0.416","4.495","0.07","0.25","29.6065","4.68044","26.62","0","SATNPRO1964","23.808","0.33346","5"],
    [55486,"HCEP03730563","2025-07-28 09:45:00","10.0887","3.2846","26.042","2.51","7.45","0.464","3.763","0.11","0.36","29.6063","4.68041","26.92","0","SATNPRO1964","24.244","0.33954","5"],
    [55487,"HCEP03730563","2025-07-28 10:00:00","10.0827","3.28403","25.87","2.487","7.45","0.427","5.093","0.04","0.29","29.6057","4.68041","26.67","0","SATNPRO1964","23.732","0.3324","5"],
    [55488,"HCEP03730563","2025-07-28 10:15:00","10.0747","3.28322","25.714","2.526","7.45","0.372","3.008","0.04","0.11","29.6041","4.68031","27.08","0","SATNPRO1964","24.416","0.34198","5"],
    [55489,"HCEP03730563","2025-07-28 10:30:00","10.0598","3.28156","25.528","2.677","7.45","0.371","2.235","0.08","0.13","29.5999","4.67995","28.69","0","SATNPRO1964","25.294","0.35426","5"],
    [55490,"HCEP03730563","2025-07-28 10:45:00","10.0789","3.2824","25.353","2.925","7.47","0.429","2.91","0.09","0.19","29.5927","4.67858","31.37","0","SATNPRO1964","25.39","0.35566","5"],
    [55491,"HCEP03730563","2025-07-28 11:00:00","10.0745","3.28332","25.197","2.932","7.48","0.391","4.241","0.08","0.21","29.6056","4.68049","31.43","0","SATNPRO1964","24.492","0.34302","5"],
    [55492,"HCEP03730563","2025-07-28 11:15:00","10.0808","3.28207","25.032","2.781","7.47","0.434","5.688","0.05","0.28","29.5881","4.67788","29.82","0","SATNPRO1964","24.768","0.34692","5"],
    [55493,"HCEP03730563","2025-07-28 11:30:00","10.0845","3.28524","24.863","2.706","7.47","0.418","5.631","0.09","0.47","29.6167","4.6819","29.02","0","SATNPRO1964","24.678","0.34566","5"],
    [55494,"HCEP03730563","2025-07-28 11:45:00","10.0823","3.28493","24.734","2.673","7.46","0.434","5.574","0.07","0.21","29.6155","4.68175","28.67","0","SATNPRO1964","24.628","0.34494","5"],
    [55495,"HCEP03730563","2025-07-28 12:00:00","10.0824","3.28468","24.622","2.693","7.46","0.391","5.285","0.06","0.27","29.6129","4.68137","28.88","0","SATNPRO1964","24.776","0.34702","5"],
    [55496,"HCEP03730563","2025-07-28 12:15:00","10.0831","3.28529","24.499","2.703","7.46","0.389","4.79","0.06","0.34","29.6185","4.68216","28.99","0","SATNPRO1964","24.642","0.34512","5"],
    [55497,"HCEP03730563","2025-07-28 12:30:00","10.0642","3.28228","24.433","2.65","7.46","0.333","3.519","0.04","0.18","29.6039","4.68039","28.4","0","SATNPRO1964","24.446","0.3424","5"],
    [55498,"HCEP03730563","2025-07-28 12:45:00","10.0715","3.28341","24.407","2.618","7.46","0.38","4.184","0.08","0.38","29.6092","4.68101","28.08","0","SATNPRO1964","24.614","0.34476","5"],
    [55499,"HCEP03730563","2025-07-28 13:00:00","10.0795","3.28471","24.418","2.626","7.46","0.391","5.286","0.06","0.41","29.6157","4.68181","28.16","0","SATNPRO1964","24.368","0.34132","5"],
    [55500,"HCEP03730563","2025-07-28 13:15:00","10.0783","3.28451","24.445","2.604","7.46","0.437","5.202","0.12","0.54","29.6147","4.68168","27.92","0","SATNPRO1964","24.404","0.34182","5"],
    [55501,"HCEP03730563","2025-07-28 13:30:00","10.07","3.28301","24.485","2.571","7.45","0.398","5.83","0.06","0.94","29.6064","4.68065","27.56","0","SATNPRO1964","24.616","0.3448","5"],
    [55502,"HCEP03730563","2025-07-28 13:45:00","10.0735","3.28358","24.543","2.582","7.45","0.398","4.091","0.07","0.22","29.6092","4.68099","27.68","0","SATNPRO1964","24.502","0.34318","5"],
    [55503,"HCEP03730563","2025-07-28 14:00:00","10.071","3.28303","24.639","2.589","7.45","0.365","3.53","0.07","0.19","29.6057","4.68054","27.76","0","SATNPRO1964","24.526","0.3435","5"],
    [55504,"HCEP03730563","2025-07-28 14:15:00","10.0684","3.28258","24.783","2.579","7.45","0.396","3.927","0.06","0.18","29.6034","4.68026","27.65","0","SATNPRO1964","24.39","0.3416","5"],
    [55505,"HCEP03730563","2025-07-28 14:30:00","10.07","3.28291","24.906","2.57","7.45","0.398","4.092","0.11","0.16","29.6052","4.68051","27.56","0","SATNPRO1964","24.328","0.34074","5"],
    [55506,"HCEP03730563","2025-07-28 14:45:00","10.07","3.28281","25.047","2.569","7.45","0.42","4.838","0.08","0.25","29.6042","4.68037","27.55","0","SATNPRO1964","24.34","0.34092","5"],
    [55507,"HCEP03730563","2025-07-28 15:00:00","10.071","3.28287","25.207","2.561","7.45","0.406","4.777","0.06","0.17","29.604","4.68033","27.45","0","SATNPRO1964","24.664","0.3455","5"],
    [55508,"HCEP03730563","2025-07-28 15:15:00","10.0764","3.28351","25.406","2.568","7.45","0.429","4.934","0.05","0.29","29.6058","4.68051","27.54","0","SATNPRO1964","24.438","0.3423","5"],
    [55509,"HCEP03730563","2025-07-28 15:30:00","10.0854","3.28443","25.55","2.577","7.45","0.44","5.203","0.06","0.3","29.6076","4.68062","27.64","0","SATNPRO1964","24.332","0.3408","5"],
    [55510,"HCEP03730563","2025-07-28 15:45:00","10.0956","3.28556","25.778","2.586","7.45","0.465","4.971","0.09","0.32","29.6104","4.68086","27.74","0","SATNPRO1964","24.26","0.33978","5"],
    [55511,"HCEP03730563","2025-07-28 16:00:00","10.1047","3.28647","25.982","2.579","7.45","0.452","5.437","0.06","0.43","29.612","4.68095","27.68","0","SATNPRO1964","24.086","0.33736","5"],
    [55512,"HCEP03730563","2025-07-28 16:15:00","10.1126","3.28719","26.196","2.559","7.45","0.453","5.136","0.07","0.46","29.6127","4.68093","27.47","0","SATNPRO1964","23.98","0.33586","5"],
    [55513,"HCEP03730563","2025-07-28 16:30:00","10.1136","3.28691","26.418","2.507","7.45","0.459","5.593","0.06","0.28","29.609","4.6804","26.9","0","SATNPRO1964","23.726","0.33236","5"],
    [55514,"HCEP03730563","2025-07-28 16:45:00","10.1397","3.28929","26.62","2.445","7.45","0.467","6.211","0.03","0.38","29.6112","4.6803","26.26","0","SATNPRO1964","23.51","0.32932","5"],
    [55515,"HCEP03730563","2025-07-28 17:00:00","10.1556","3.29043","26.772","2.417","7.44","0.486","6.277","0.07","0.43","29.6096","4.67981","25.96","0","SATNPRO1964","23.466","0.32868","5"],
    [55516,"HCEP03730563","2025-07-28 17:15:00","10.1663","3.29194","26.975","2.409","7.44","0.521","6.285","0.11","0.68","29.6159","4.68054","25.89","0","SATNPRO1964","23.188000000000002","0.3248","5"],
    [55517,"HCEP03730563","2025-07-28 17:30:00","10.1631","3.29123","27.135","2.402","7.44","0.526","6.404","0.16","0.31","29.6113","4.67995","25.8","0","SATNPRO1964","23.21","0.3251","5"],
    [55518,"HCEP03730563","2025-07-28 17:45:00","10.1659","3.29153","27.309","2.398","7.44","0.494","5.99","0.05","0.27","29.612","4.68001","25.77","0","SATNPRO1964","23.157999999999998","0.32436","5"],
    [55519,"HCEP03730563","2025-07-28 18:00:00","10.1541","3.29041","27.47","2.405","7.44","0.448","5.714","0.04","0.36","29.6103","4.67998","25.83","0","SATNPRO1964","23.402","0.32778","5"],
    [55520,"HCEP03730563","2025-07-28 18:15:00","10.1252","3.28765","27.621","2.394","7.44","0.451","5.434","0.04","0.23","29.6063","4.6799","25.7","0","SATNPRO1964","23.426","0.32812","5"],
    [55521,"HCEP03730563","2025-07-28 18:30:00","10.119","3.28726","27.74","2.38","7.44","0.433","5.198","0.04","0.16","29.6075","4.68018","25.54","0","SATNPRO1964","23.462","0.32864","5"],
    [55522,"HCEP03730563","2025-07-28 18:45:00","10.1261","3.28799","27.848","2.375","7.44","0.431","5.002","0.04","0.14","29.609","4.68028","25.5","0","SATNPRO1964","23.472","0.32876","5"],
    [55523,"HCEP03730563","2025-07-28 19:00:00","10.135","3.28878","27.892","2.379","7.44","1.17","16.036","0.5","11.53","29.6096","4.68021","25.55","0","SATNPRO1964","23.314","0.32656","5"],
    [55524,"HCEP03730563","2025-07-28 19:15:00","10.1358","3.28886","27.938","2.39","7.44","1.52","26.048","1.75","31.41","29.6097","4.68021","25.66","0","SATNPRO1964","23.402","0.3278","5"],
    [55525,"HCEP03730563","2025-07-28 19:30:00","10.1383","3.28942","27.993","2.401","7.44","0.435","4.472","0.09","0.13","29.6132","4.68068","25.78","0","SATNPRO1964","23.39","0.3276","5"],
    [55526,"HCEP03730563","2025-07-28 19:45:00","10.1417","3.28941","27.988","2.42","7.44","0.433","4.355","0.03","0.2","29.6103","4.6802","25.98","0","SATNPRO1964","23.464","0.3287","5"],
    [55527,"HCEP03730563","2025-07-28 20:00:00","10.153","3.28507","27.956","2.425","7.44","0.44","4.744","0.11","0.45","29.5579","4.67254","26.04","0","SATNPRO1964","23.288","0.3262","5"],
    [55528,"HCEP03730563","2025-07-28 20:15:00","10.1255","3.28762","27.909","2.433","7.44","0.446","4.979","0.06","0.46","29.6057","4.67982","26.12","0","SATNPRO1964","23.402","0.32778","5"],
    [55529,"HCEP03730563","2025-07-28 20:30:00","10.1378","3.28876","27.859","2.408","7.44","0.469","4.567","0.1","0.26","29.6071","4.67981","25.86","0","SATNPRO1964","23.348","0.32698","5"],
    [55530,"HCEP03730563","2025-07-28 20:45:00","10.1306","3.28822","27.808","2.386","7.44","0.477","5.137","0.08","0.41","29.6075","4.67998","25.61","0","SATNPRO1964","23.32","0.32664","5"],
    [55531,"HCEP03730563","2025-07-28 21:00:00","10.1114","3.28619","27.769","2.366","7.44","0.547","5.246","0.38","0.26","29.6031","4.67967","25.39","0","SATNPRO1964","23.326","0.32672","5"],
    [55532,"HCEP03730563","2025-07-28 21:15:00","10.098","3.28523","27.684","2.328","7.43","0.545","5.183","0.33","0.35","29.6044","4.68008","24.98","0","SATNPRO1964","23.438","0.3283","5"],
    [55533,"HCEP03730563","2025-07-28 21:30:00","10.0941","3.28044","27.602","2.312","7.43","0.422","5.312","0.05","0.55","29.5598","4.67377","24.79","0","SATNPRO1964","23.48","0.32884","5"],
    [55534,"HCEP03730563","2025-07-28 21:45:00","10.0903","3.27602","27.512","2.313","7.43","0.433","4.97","0.05","0.23","29.5189","4.66799","24.79","0","SATNPRO1964","23.516000000000002","0.32942","5"],
    [55535,"HCEP03730563","2025-07-28 22:00:00","10.093","3.28498","27.412","2.365","7.43","0.408","4.6","0.05","0.19","29.6062","4.6804","25.37","0","SATNPRO1964","23.722","0.33222","5"],
    [55536,"HCEP03730563","2025-07-28 22:15:00","10.143","3.14691","27.298","2.456","7.44","0.421","3.72","0.06","0.2","28.1936","4.47729","26.13","0","SATNPRO1964","23.516","0.3294","5"],
    [55537,"HCEP03730563","2025-07-28 22:30:00","10.1224","3.07812","27.169","2.446","7.44","0.429","4.49","0.1","0.23","27.5289","4.38199","25.91","0","SATNPRO1964","23.408","0.32784","5"],
    [55538,"HCEP03730563","2025-07-28 22:45:00","10.1118","3.28614","27.057","2.39","7.43","0.429","4.555","0.06","0.25","29.6025","4.67954","25.64","0","SATNPRO1964","23.544","0.32978","5"],
    [55539,"HCEP03730563","2025-07-28 23:00:00","10.0993","3.28503","26.92","2.368","7.43","0.417","4.723","0.04","0.17","29.6016","4.67962","25.4","0","SATNPRO1964","23.349999999999998","0.32706","5"],
    [55540,"HCEP03730563","2025-07-28 23:15:00","10.1563","3.2901","26.767","2.38","7.43","0.458","4.352","0.06","0.24","29.6058","4.67925","25.56","0","SATNPRO1964","23.413999999999998","0.32794","5"],
    [55541,"HCEP03730563","2025-07-28 23:30:00","10.1753","3.28695","26.616","2.459","7.44","0.425","4.373","0.07","0.14","29.559","4.67225","26.41","0","SATNPRO1964","23.41","0.3279","5"],
    [55542,"HCEP03730563","2025-07-28 23:45:00","10.1092","3.28578","26.456","2.404","7.44","0.455","4.894","0.04","0.19","29.6013","4.67937","25.79","0","SATNPRO1964","24.536","0.34366","5"],
    [55543,"HCEP03730563","2025-07-29 00:00:00","10.1822","3.29197","26.324","2.399","7.44","0.412","4.039","0.03","0.5","29.6034","4.67846","25.78","0","SATNPRO1964","24.77","0.34698","5"],
    [55544,"HCEP03730563","2025-07-29 00:15:00","10.1874","3.2926","26.171","2.602","7.45","0.423","3.491","0.03","0.43","29.6055","4.67866","27.96","0","SATNPRO1964","25.2","0.35296","5"],
    [55545,"HCEP03730563","2025-07-29 00:30:00","10.1601","3.29066","26.021","2.759","7.46","0.406","2.217","0.06","0.14","29.6086","4.67954","29.63","0","SATNPRO1964","25.498","0.35716","5"],
    [55546,"HCEP03730563","2025-07-29 00:45:00","10.1022","3.28503","25.879","2.765","7.46","0.413","2.656","0.06","0.34","29.5997","4.67924","29.67","0","SATNPRO1964","25.259999999999998","0.3538","5"],
    [55547,"HCEP03730563","2025-07-29 01:00:00","10.0832","3.28371","25.753","2.657","7.46","0.394","3.49","0.07","0.38","29.6021","4.67989","28.49","0","SATNPRO1964","25.21","0.35312","5"],
    [55548,"HCEP03730563","2025-07-29 01:15:00","10.0769","3.28157","25.688","2.632","7.46","0.406","3.702","0.05","0.46","29.5859","4.67767","28.22","0","SATNPRO1964","25.328","0.35474","5"],
    [55549,"HCEP03730563","2025-07-29 01:30:00","10.0968","3.28568","25.615","2.732","7.46","0.397","4.01","0.07","0.21","29.6107","4.68088","29.31","0","SATNPRO1964","25.326","0.35474","5"],
    [55550,"HCEP03730563","2025-07-29 01:45:00","10.091","3.28525","25.601","2.727","7.46","0.433","5.553","0.06","0.62","29.6111","4.68104","29.25","0","SATNPRO1964","24.934","0.34926","5"],
    [55551,"HCEP03730563","2025-07-29 02:00:00","10.0937","3.28078","25.589","2.69","7.46","0.383","4.573","0.06","0.23","29.5644","4.67432","28.85","0","SATNPRO1964","25.512","0.35736","5"],
    [55552,"HCEP03730563","2025-07-29 02:15:00","10.094","3.28574","25.623","2.771","7.46","0.398","4.404","0.05","0.21","29.6136","4.68134","29.73","0","SATNPRO1964","25.830000000000002","0.36176","5"],
    [55553,"HCEP03730563","2025-07-29 02:30:00","10.0966","3.27431","25.643","2.737","7.46","0.375","4.861","0.05","0.15","29.4975","4.66471","29.34","0","SATNPRO1964","25.518","0.35746","5"],
    [55554,"HCEP03730563","2025-07-29 02:45:00","10.0948","3.28615","25.673","2.672","7.46","0.486","5.117","0.23","0.33","29.617","4.68181","28.66","0","SATNPRO1964","25.772","0.361","5"],
    [55555,"HCEP03730563","2025-07-29 03:00:00","10.0941","3.28479","25.742","2.647","7.46","0.423","3.862","0.13","0.16","29.604","4.67998","28.4","0","SATNPRO1964","25.642","0.35916","5"],
    [55556,"HCEP03730563","2025-07-29 03:15:00","10.0946","3.2021","25.796","2.626","7.46","0.383","3.438","0.04","0.19","28.7798","4.56209","28.02","0","SATNPRO1964","25.328","0.35472","5"],
    [55557,"HCEP03730563","2025-07-29 03:30:00","10.0977","3.28658","25.851","2.674","7.46","0.399","3.833","0.06","0.16","29.6189","4.68205","28.69","0","SATNPRO1964","25.286","0.35418","5"],
    [55558,"HCEP03730563","2025-07-29 03:45:00","10.104","3.28765","25.922","2.707","7.46","0.387","4.63","0.05","0.21","29.6244","4.68274","29.04","0","SATNPRO1964","25.294","0.35432","5"],
    [55559,"HCEP03730563","2025-07-29 04:00:00","10.106","3.28798","25.985","2.721","7.46","0.382","5.45","0.04","0.47","29.626","4.68293","29.2","0","SATNPRO1964","25.108","0.3517","5"],
    [55560,"HCEP03730563","2025-07-29 04:15:00","10.1024","3.28699","26.067","2.684","7.46","0.402","5.768","0.04","0.27","29.6191","4.682","28.8","0","SATNPRO1964","24.924","0.34912","5"],
    [55561,"HCEP03730563","2025-07-29 04:30:00","10.1045","3.28757","26.151","2.631","7.46","0.791","5.874","1.11","0.39","29.6232","4.68256","28.23","0","SATNPRO1964","24.842","0.348","5"],
    [55562,"HCEP03730563","2025-07-29 04:45:00","10.1061","3.28787","26.225","2.595","7.46","0.435","6.432","0.04","0.42","29.6248","4.68277","27.84","0","SATNPRO1964","24.7","0.34598","5"],
    [55563,"HCEP03730563","2025-07-29 05:00:00","10.1088","3.28837","26.293","2.593","7.46","0.396","5.962","0.04","0.26","29.6275","4.68311","27.83","0","SATNPRO1964","25.092","0.35144","5"],
    [55564,"HCEP03730563","2025-07-29 05:15:00","10.1049","3.28721","26.379","2.653","7.46","0.436","4.568","0.11","0.34","29.6191","4.68199","28.47","0","SATNPRO1964","25.014","0.35034","5"],
    [55565,"HCEP03730563","2025-07-29 05:30:00","10.1065","3.28705","26.483","2.694","7.46","0.417","3.805","0.19","0.24","29.6161","4.68154","28.91","0","SATNPRO1964","24.983999999999998","0.34992","5"],
    [55566,"HCEP03730563","2025-07-29 05:45:00","10.1114","3.28759","26.561","2.711","7.46","0.372","3.393","0.06","0.33","29.6175","4.68166","29.1","0","SATNPRO1964","25.046","0.35082","5"],
    [55567,"HCEP03730563","2025-07-29 06:00:00","10.1158","3.28815","26.669","2.748","7.46","0.387","3.343","0.12","0.17","29.6194","4.68187","29.49","0","SATNPRO1964","25.252","0.35372","5"],
    [55568,"HCEP03730563","2025-07-29 06:15:00","10.1232","3.28872","26.758","2.771","7.47","0.357","2.929","0.03","0.18","29.619","4.68169","29.75","0","SATNPRO1964","25.076","0.3512","5"],
    [55569,"HCEP03730563","2025-07-29 06:30:00","10.1282","3.28924","26.847","2.758","7.47","0.383","3.68","0.06","0.17","29.6201","4.68176","29.61","0","SATNPRO1964","24.828","0.34778","5"],
    [55570,"HCEP03730563","2025-07-29 06:45:00","10.1307","3.28939","26.933","2.723","7.47","0.424","3.593","0.11","0.32","29.6195","4.68164","29.23","0","SATNPRO1964","24.622","0.3449","5"],
    [55571,"HCEP03730563","2025-07-29 07:00:00","10.1266","3.28911","27.024","2.691","7.46","0.423","3.603","0.08","0.32","29.6201","4.6818","28.89","0","SATNPRO1964","24.733999999999998","0.34646","5"],
    [55572,"HCEP03730563","2025-07-29 07:15:00","10.123","3.28883","27.049","2.592","7.46","0.447","4.454","0.07","0.39","29.6202","4.68187","27.82","0","SATNPRO1964","23.95","0.33548","5"],
    [55573,"HCEP03730563","2025-07-29 07:30:00","10.1137","3.28799","27.076","2.441","7.45","2.882","5.838","3.17","0.83","29.6194","4.68192","26.2","0","SATNPRO1964","23.76","0.33282","5"],
    [55574,"HCEP03730563","2025-07-29 07:45:00","10.1108","3.28701","27.074","2.343","7.44","0.447","4.748","0.06","0.19","29.612","4.68091","25.14","0","SATNPRO1964","23.43","0.32818","5"],
    [55575,"HCEP03730563","2025-07-29 08:00:00","10.1079","3.2864","27.04","2.302","7.44","0.421","4.762","0.04","0.25","29.6083","4.68043","24.71","0","SATNPRO1964","23.744","0.33254","5"],
    [55576,"HCEP03730563","2025-07-29 08:15:00","10.1157","3.28689","27","2.273","7.43","0.492","5.011","0.08","0.28","29.6068","4.68008","24.4","0","SATNPRO1964","23.454","0.32854","5"],
    [55577,"HCEP03730563","2025-07-29 08:30:00","10.1312","3.28803","26.937","2.223","7.43","0.464","5.128","0.05","0.79","29.6056","4.67965","23.87","0","SATNPRO1964","23.096","0.32348","5"],
    [55578,"HCEP03730563","2025-07-29 08:45:00","10.1385","3.28853","26.879","2.175","7.42","0.489","5.144","0.09","0.27","29.6046","4.67938","23.36","0","SATNPRO1964","22.772","0.3189","5"],
    [55579,"HCEP03730563","2025-07-29 09:00:00","10.1593","3.29054","26.787","2.126","7.42","0.56","5.589","0.15","0.28","29.6077","4.67948","22.84","0","SATNPRO1964","22.382","0.31348","5"],
    [55580,"HCEP03730563","2025-07-29 09:15:00","10.1932","3.29371","26.711","2.126","7.42","0.553","5.434","0.1","0.44","29.6116","4.67947","22.86","0","SATNPRO1964","22.494","0.31506","5"],
    [55581,"HCEP03730563","2025-07-29 09:30:00","10.211","3.29561","26.607","2.15","7.42","0.54","6.099","0.1","0.26","29.6161","4.67981","23.12","0","SATNPRO1964","22.426","0.31414","5"],
    [55582,"HCEP03730563","2025-07-29 09:45:00","10.1973","3.29397","26.496","2.17","7.42","0.582","6.114","0.07","0.35","29.611","4.6793","23.34","0","SATNPRO1964","22.53","0.31556","5"],
    [55583,"HCEP03730563","2025-07-29 10:00:00","10.1873","3.29292","26.37","2.173","7.42","0.549","5.857","0.08","0.41","29.6087","4.67913","23.36","0","SATNPRO1964","22.624","0.3169","5"],
    [55584,"HCEP03730563","2025-07-29 10:15:00","10.1805","3.29144","26.263","2.246","7.42","0.492","4.591","0.04","0.16","29.5996","4.67794","24.14","0","SATNPRO1964","23.26","0.32582","5"],
    [55585,"HCEP03730563","2025-07-29 10:30:00","10.1588","3.28969","26.142","2.296","7.43","0.459","4.395","0.05","0.22","29.5999","4.67833","24.66","0","SATNPRO1964","23.01","0.32228","5"],
    [55586,"HCEP03730563","2025-07-29 10:45:00","10.1563","3.28956","26.028","2.229","7.42","0.45","4.524","0.04","0.29","29.6006","4.67847","23.94","0","SATNPRO1964","23.05","0.32284","5"],
    [55587,"HCEP03730563","2025-07-29 11:00:00","10.1596","3.2822","25.877","2.245","7.42","0.45","4.426","0.06","0.25","29.5247","4.66757","24.11","0","SATNPRO1964","23.33","0.32678","5"],
    [55588,"HCEP03730563","2025-07-29 11:15:00","10.1658","3.2909","25.743","2.365","7.43","0.441","3.597","0.05","0.18","29.6063","4.67911","25.41","0","SATNPRO1964","23.97","0.33578","5"],
    [55589,"HCEP03730563","2025-07-29 11:30:00","10.1551","3.28902","25.602","2.497","7.44","0.415","3.477","0.06","0.22","29.5964","4.67786","26.83","0","SATNPRO1964","23.932","0.33524","5"],
    [55590,"HCEP03730563","2025-07-29 11:45:00","10.133","3.28765","25.494","2.545","7.44","0.546","3.33","0.61","0.35","29.6009","4.67886","27.33","0","SATNPRO1964","24.64","0.34512","5"],
    [55591,"HCEP03730563","2025-07-29 12:00:00","10.1095","3.28635","25.353","2.551","7.45","0.402","4.382","0.05","0.24","29.6072","4.68015","27.38","0","SATNPRO1964","23.982","0.3359","5"],
    [55592,"HCEP03730563","2025-07-29 12:15:00","10.1057","3.28611","25.234","2.469","7.44","0.435","4.849","0.05","0.24","29.6079","4.68031","26.49","0","SATNPRO1964","24.134","0.33802","5"],
    [55593,"HCEP03730563","2025-07-29 12:30:00","10.1127","3.28701","25.106","2.497","7.44","0.407","4.418","0.09","0.23","29.6112","4.68065","26.79","0","SATNPRO1964","24.488","0.34296","5"],
    [55594,"HCEP03730563","2025-07-29 12:45:00","10.1516","3.29086","25.026","2.671","7.45","0.398","2.664","0.05","0.32","29.6179","4.68095","28.69","0","SATNPRO1964","24.878","0.34848","5"],
    [55595,"HCEP03730563","2025-07-29 13:00:00","10.1385","3.28908","24.974","2.887","7.47","0.367","3.075","0.06","0.31","29.6109","4.68017","31","0","SATNPRO1964","25.31","0.35452","5"],
    [55596,"HCEP03730563","2025-07-29 13:15:00","10.135","3.28867","24.929","2.92","7.47","0.414","3.406","0.08","0.27","29.6096","4.68005","31.35","0","SATNPRO1964","24.69","0.34582","5"],
    [55597,"HCEP03730563","2025-07-29 13:30:00","10.1393","3.28897","24.916","2.925","7.48","0.415","3.701","0.07","0.49","29.609","4.67989","31.41","0","SATNPRO1964","25.256","0.3538","5"],
    [55598,"HCEP03730563","2025-07-29 13:45:00","10.1471","3.28981","24.923","2.911","7.48","0.388","2.788","0.07","0.19","29.6111","4.68006","31.27","0","SATNPRO1964","25.248","0.35362","5"],
    [55599,"HCEP03730563","2025-07-29 14:00:00","10.1563","3.29097","24.961","2.893","7.48","0.616","5.313","0.09","0.83","29.6152","4.68049","31.08","0","SATNPRO1964","24.804","0.34744","5"],
    [55600,"HCEP03730563","2025-07-29 14:15:00","10.1265","3.28824","24.98","2.727","7.47","0.82","3.864","1.81","0.24","29.6123","4.68057","29.28","0","SATNPRO1964","23.816","0.33358","5"],
    [55601,"HCEP03730563","2025-07-29 14:30:00","10.1259","3.28831","25.062","2.538","7.46","0.371","3.702","0.04","0.27","29.6134","4.68075","27.25","0","SATNPRO1964","24.072","0.3372","5"],
    [55602,"HCEP03730563","2025-07-29 14:45:00","10.119","3.28768","25.133","2.453","7.45","0.448","4.719","0.07","0.12","29.6127","4.68077","26.33","0","SATNPRO1964","23.64","0.3311","5"],
    [55603,"HCEP03730563","2025-07-29 15:00:00","10.1239","3.28808","25.261","2.396","7.44","0.413","4.626","0.05","0.13","29.6127","4.68069","25.72","0","SATNPRO1964","23.492","0.329","5"],
    [55604,"HCEP03730563","2025-07-29 15:15:00","10.1174","3.28749","25.346","2.356","7.44","0.445","4.806","0.06","0.12","29.6121","4.68071","25.29","0","SATNPRO1964","23.532","0.32958","5"],
    [55605,"HCEP03730563","2025-07-29 15:30:00","10.1289","3.28854","25.474","2.352","7.44","0.422","4.04","0.07","0.4","29.6131","4.68068","25.25","0","SATNPRO1964","23.622","0.33088","5"],
    [55606,"HCEP03730563","2025-07-29 15:45:00","10.1427","3.28969","25.58","2.463","7.44","0.413","3.398","0.05","0.14","29.6133","4.68047","26.45","0","SATNPRO1964","24.066","0.33708","5"],
    [55607,"HCEP03730563","2025-07-29 16:00:00","10.1671","3.29176","25.707","2.568","7.45","0.415","2.588","0.08","0.26","29.6139","4.68017","27.59","0","SATNPRO1964","24.35","0.34108","5"],
    [55608,"HCEP03730563","2025-07-29 16:15:00","10.136","3.28904","25.853","2.488","7.45","0.558","5.382","0.22","1.13","29.6122","4.68045","26.71","0","SATNPRO1964","23.844","0.33398","5"],
    [55609,"HCEP03730563","2025-07-29 16:30:00","10.1424","3.28917","26.013","2.28","7.44","0.626","20.324","0.27","8.24","29.6082","4.67978","24.49","0","SATNPRO1964","23.354","0.3271","5"],
    [55610,"HCEP03730563","2025-07-29 16:45:00","10.1572","3.29039","26.212","2.159","7.43","0.583","4.681","0.61","0.17","29.6081","4.67954","23.2","0","SATNPRO1964","23.096","0.3235","5"],
    [55611,"HCEP03730563","2025-07-29 17:00:00","10.1597","3.29083","26.444","2.09","7.42","0.454","5.027","0.05","0.19","29.6103","4.67982","22.45","0","SATNPRO1964","22.862000000000002","0.32022","5"],
    [55612,"HCEP03730563","2025-07-29 17:15:00","10.1673","3.29174","26.574","2.047","7.41","0.51","5.24","0.05","0.41","29.6132","4.68012","22","0","SATNPRO1964","22.694","0.31782","5"],
    [55613,"HCEP03730563","2025-07-29 17:30:00","10.1927","3.29429","26.724","2.063","7.41","0.527","5.304","0.09","0.21","29.6178","4.68035","22.17","0","SATNPRO1964","22.494","0.31508","5"],
    [55614,"HCEP03730563","2025-07-29 17:45:00","10.2145","3.29634","26.896","2.112","7.42","0.566","5.611","0.07","0.24","29.6203","4.68037","22.72","0","SATNPRO1964","22.584","0.31636","5"],
    [55615,"HCEP03730563","2025-07-29 18:00:00","10.2321","3.29828","27.086","2.147","7.42","0.885","7.556","0.73","6.97","29.6252","4.68079","23.11","0","SATNPRO1964","22.576","0.3162","5"],
    [55616,"HCEP03730563","2025-07-29 18:15:00","10.2564","3.30064","27.345","2.213","7.42","0.697","5.766","0.45","0.38","29.6287","4.6809","23.82","0","SATNPRO1964","22.483999999999998","0.31498","5"],
    [55617,"HCEP03730563","2025-07-29 18:30:00","10.2749","3.30235","27.474","2.286","7.43","0.575","5.944","0.06","0.28","29.6306","4.68088","24.62","0","SATNPRO1964","22.616","0.3168","5"],
    [55618,"HCEP03730563","2025-07-29 18:45:00","10.2981","3.30448","27.584","2.386","7.44","0.633","5.828","0.13","0.29","29.6328","4.68081","25.71","0","SATNPRO1964","22.65","0.31726","5"],
    [55619,"HCEP03730563","2025-07-29 19:00:00","10.3094","3.30571","27.706","2.496","7.44","0.577","6.014","0.04","0.26","29.6357","4.68106","26.91","0","SATNPRO1964","23.042","0.32272","5"],
    [55620,"HCEP03730563","2025-07-29 19:15:00","10.3392","3.30846","27.802","2.665","7.46","0.574","5.306","0.06","0.2","29.6388","4.68101","28.74","0","SATNPRO1964","23.798000000000002","0.33334","5"],
    [55621,"HCEP03730563","2025-07-29 19:30:00","10.3466","3.30937","27.879","2.844","7.47","0.607","5.199","0.1","0.2","29.6417","4.68132","30.68","0","SATNPRO1964","23.998","0.33614","5"],
    [55622,"HCEP03730563","2025-07-29 19:45:00","10.342","3.30896","27.869","2.904","7.48","0.585","5.22","0.06","0.28","29.6414","4.68135","31.33","0","SATNPRO1964","24.124","0.3379","5"],
    [55623,"HCEP03730563","2025-07-29 20:00:00","10.3448","3.30927","27.944","2.918","7.48","0.562","4.855","0.07","0.29","29.6421","4.6814","31.48","0","SATNPRO1964","23.984","0.33592","5"],
    [55624,"HCEP03730563","2025-07-29 20:15:00","10.3384","3.3086","27.921","2.926","7.49","0.565","5.134","0.05","0.2","29.6407","4.6813","31.57","0","SATNPRO1964","23.855999999999998","0.33414","5"],
    [55625,"HCEP03730563","2025-07-29 20:30:00","10.3448","3.3093","27.902","2.933","7.49","0.531","4.722","0.06","0.24","29.6425","4.68145","31.64","0","SATNPRO1964","24.098","0.33754","5"],
    [55626,"HCEP03730563","2025-07-29 20:45:00","10.3535","3.30994","27.838","3.042","7.5","0.587","4.352","0.14","0.17","29.6417","4.6812","32.83","0","SATNPRO1964","24.59","0.3444","5"],
    [55627,"HCEP03730563","2025-07-29 21:00:00","10.3582","3.31047","27.817","3.158","7.5","0.558","4.249","0.11","0.19","29.6432","4.68134","34.08","0","SATNPRO1964","24.61","0.34466","5"],
    [55628,"HCEP03730563","2025-07-29 21:15:00","10.3487","3.30969","27.797","3.178","7.51","0.546","4.512","0.07","0.36","29.6432","4.68149","34.29","0","SATNPRO1964","24.03","0.33658","5"],
    [55629,"HCEP03730563","2025-07-29 21:30:00","10.3513","3.30984","27.767","3.109","7.51","0.507","4.129","0.05","0.14","29.6425","4.68135","33.55","0","SATNPRO1964","24.208","0.33908","5"],
    [55630,"HCEP03730563","2025-07-29 21:45:00","10.3356","3.30829","27.639","3.043","7.5","0.555","4.444","0.1","0.16","29.64","4.68123","32.82","0","SATNPRO1964","23.694","0.33188","5"],
    [55631,"HCEP03730563","2025-07-29 22:00:00","10.323","3.30715","27.556","2.87","7.49","0.523","4.597","0.06","0.36","29.6391","4.6813","30.95","0","SATNPRO1964","23.492","0.32906","5"],
    [55632,"HCEP03730563","2025-07-29 22:15:00","10.307","3.30568","27.445","2.759","7.48","0.526","4.518","0.06","0.12","29.6375","4.68134","29.74","0","SATNPRO1964","23.11","0.3237","5"],
    [55633,"HCEP03730563","2025-07-29 22:30:00","10.2796","3.3031","27.359","2.589","7.47","0.557","4.938","0.09","0.37","29.6343","4.68132","27.9","0","SATNPRO1964","22.734","0.31844","5"],
    [55634,"HCEP03730563","2025-07-29 22:45:00","10.262","3.30143","27.224","2.415","7.46","0.563","5.632","0.1","0.28","29.6321","4.68128","26.01","0","SATNPRO1964","22.451999999999998","0.31446","5"],
    [55635,"HCEP03730563","2025-07-29 23:00:00","10.2513","3.28684","27.098","2.297","7.45","0.537","5.882","0.07","0.23","29.4958","4.66201","24.71","0","SATNPRO1964","22.278","0.31206","5"],
    [55636,"HCEP03730563","2025-07-29 23:15:00","10.2416","3.29916","26.963","2.212","7.44","0.538","6.129","0.06","0.4","29.6263","4.68078","23.81","0","SATNPRO1964","22.236","0.31142","5"],
    [55637,"HCEP03730563","2025-07-29 23:30:00","10.2357","3.2985","26.834","2.184","7.43","0.555","6.1","0.09","0.78","29.6246","4.68062","23.5","0","SATNPRO1964","22.214000000000002","0.31114","5"],
    [55638,"HCEP03730563","2025-07-29 23:45:00","10.2384","3.29872","26.676","2.195","7.43","0.496","5.264","0.05","0.26","29.6246","4.68057","23.62","0","SATNPRO1964","22.354","0.3131","5"],
    [55639,"HCEP03730563","2025-07-30 00:00:00","10.2453","3.29922","26.524","2.235","7.43","0.475","5.081","0.04","0.3","29.624","4.68037","24.06","0","SATNPRO1964","22.456","0.31454","5"],
    [55640,"HCEP03730563","2025-07-30 00:15:00","10.2581","3.30038","26.354","2.308","7.43","0.504","5.063","0.05","0.2","29.6252","4.68031","24.86","0","SATNPRO1964","22.898","0.32068","5"],
    [55641,"HCEP03730563","2025-07-30 00:30:00","10.2652","3.30082","26.187","2.375","7.44","0.495","5.338","0.05","0.37","29.6238","4.67999","25.58","0","SATNPRO1964","22.722","0.31826","5"],
    [55642,"HCEP03730563","2025-07-30 00:45:00","10.2705","3.30085","26.032","2.387","7.44","0.512","5.29","0.08","0.18","29.6198","4.67932","25.7","0","SATNPRO1964","22.676000000000002","0.31758","5"],
    [55643,"HCEP03730563","2025-07-30 01:00:00","10.2775","3.30189","25.871","2.434","7.44","0.491","5.067","0.05","0.28","29.6245","4.67987","26.22","0","SATNPRO1964","23.072","0.32316","5"],
    [55644,"HCEP03730563","2025-07-30 01:15:00","10.2763","3.29993","25.704","2.524","7.45","4.366","179.037","2.54","82.33","29.6061","4.67726","27.19","0","SATNPRO1964","23.168","0.32448","5"],
    [55645,"HCEP03730563","2025-07-30 01:30:00","10.2639","3.3001","25.557","2.548","7.45","0.466","4.578","0.13","0.23","29.618","4.67915","27.43","0","SATNPRO1964","23.312","0.32652","5"],
    [55646,"HCEP03730563","2025-07-30 01:45:00","10.2387","3.2976","25.454","2.496","7.45","0.504","4.802","0.09","0.29","29.6137","4.67895","26.86","0","SATNPRO1964","23.114","0.32378","5"],
    [55647,"HCEP03730563","2025-07-30 02:00:00","10.2222","3.29587","25.402","2.434","7.44","0.459","4.486","0.06","0.37","29.61","4.67868","26.18","0","SATNPRO1964","23.052","0.32292","5"],
    [55648,"HCEP03730563","2025-07-30 02:15:00","10.1917","3.29311","25.36","2.373","7.44","0.454","4.218","0.07","0.25","29.6074","4.67881","25.51","0","SATNPRO1964","23.238","0.3255","5"],
    [55649,"HCEP03730563","2025-07-30 02:30:00","10.1815","3.29234","25.322","2.334","7.44","0.447","4.244","0.1","0.16","29.6081","4.67908","25.08","0","SATNPRO1964","23.418","0.32798","5"],
    [55650,"HCEP03730563","2025-07-30 02:45:00","10.1865","3.29299","25.322","2.426","7.44","0.442","3.53","0.09","0.32","29.6104","4.67933","26.07","0","SATNPRO1964","23.796","0.33326","5"],
    [55651,"HCEP03730563","2025-07-30 03:00:00","10.1735","3.29186","25.333","2.492","7.44","0.443","3.525","0.11","0.21","29.6099","4.67946","26.78","0","SATNPRO1964","23.486","0.32898","5"],
    [55652,"HCEP03730563","2025-07-30 03:15:00","10.1674","3.29147","25.36","2.444","7.44","0.443","4.811","0.14","1.75","29.6109","4.67972","26.26","0","SATNPRO1964","23.586000000000002","0.33034","5"],
    [55653,"HCEP03730563","2025-07-30 03:30:00","10.1588","3.29062","25.412","2.404","7.44","0.387","4.365","0.04","0.28","29.6094","4.67964","25.83","0","SATNPRO1964","23.59","0.3304","5"],
    [55654,"HCEP03730563","2025-07-30 03:45:00","10.152","3.29018","25.465","2.378","7.44","0.447","4.665","0.11","0.39","29.6105","4.67992","25.54","0","SATNPRO1964","23.628","0.33094","5"],
    [55655,"HCEP03730563","2025-07-30 04:00:00","10.1498","3.2901","25.502","2.366","7.44","0.429","4.198","0.11","0.21","29.6116","4.68012","25.41","0","SATNPRO1964","23.562","0.33002","5"],
    [55656,"HCEP03730563","2025-07-30 04:15:00","10.1502","3.2902","25.58","2.369","7.44","0.401","4.202","0.03","0.22","29.6122","4.6802","25.45","0","SATNPRO1964","23.498","0.32908","5"],
    [55657,"HCEP03730563","2025-07-30 04:30:00","10.1523","3.29049","25.611","2.395","7.44","0.421","4.168","0.1","0.42","29.6133","4.68033","25.73","0","SATNPRO1964","23.718","0.33222","5"],
    [55658,"HCEP03730563","2025-07-30 04:45:00","10.1641","3.2915","25.692","2.407","7.44","0.47","4.672","0.11","0.22","29.6137","4.68019","25.86","0","SATNPRO1964","23.445999999999998","0.3284","5"],
    [55659,"HCEP03730563","2025-07-30 05:00:00","10.156","3.29107","25.766","2.363","7.44","0.422","4.913","0.11","0.26","29.6161","4.68067","25.38","0","SATNPRO1964","23.490000000000002","0.32904","5"],
    [55660,"HCEP03730563","2025-07-30 05:15:00","10.1542","3.29106","25.877","2.328","7.43","0.402","4.946","0.04","0.35","29.6175","4.6809","25.01","0","SATNPRO1964","23.386","0.32756","5"],
    [55661,"HCEP03730563","2025-07-30 05:30:00","10.1512","3.29089","25.966","2.297","7.43","0.412","5.657","0.07","0.26","29.6181","4.68105","24.68","0","SATNPRO1964","23.278","0.32602","5"],
    [55662,"HCEP03730563","2025-07-30 05:45:00","10.1466","3.29064","26.004","2.267","7.43","0.417","5.107","0.06","0.31","29.6193","4.6813","24.35","0","SATNPRO1964","23.466","0.32866","5"],
    [55663,"HCEP03730563","2025-07-30 06:00:00","10.1452","3.29057","26.122","2.27","7.43","0.414","5.472","0.1","0.24","29.6198","4.68139","24.38","0","SATNPRO1964","23.862000000000002","0.33424","5"],
    [55664,"HCEP03730563","2025-07-30 06:15:00","10.142","3.29041","26.198","2.281","7.43","0.414","5.093","0.05","0.25","29.6208","4.68159","24.49","0","SATNPRO1964","23.486","0.32902","5"],
    [55665,"HCEP03730563","2025-07-30 06:30:00","10.1445","3.2906","26.331","2.281","7.43","0.412","5.437","0.07","0.23","29.6206","4.68154","24.5","0","SATNPRO1964","23.52","0.32944","5"],
    [55666,"HCEP03730563","2025-07-30 06:45:00","10.1513","3.29086","26.483","2.246","7.43","0.454","6.099","0.09","0.24","29.6175","4.68099","24.13","0","SATNPRO1964","23.189999999999998","0.32486","5"],
    [55667,"HCEP03730563","2025-07-30 07:00:00","10.1517","3.29086","26.586","2.197","7.42","0.434","5.993","0.05","0.49","29.6171","4.68093","23.6","0","SATNPRO1964","23.076","0.32322","5"],
    [55668,"HCEP03730563","2025-07-30 07:15:00","10.1534","3.29095","26.623","2.201","7.42","0.472","5.391","0.12","0.21","29.6167","4.68084","23.64","0","SATNPRO1964","23.154","0.3243","5"],
    [55669,"HCEP03730563","2025-07-30 07:30:00","10.155","3.29107","26.692","2.228","7.42","0.452","5.225","0.13","0.15","29.6165","4.6808","23.93","0","SATNPRO1964","23.246","0.32566","5"],
    [55670,"HCEP03730563","2025-07-30 07:45:00","10.1564","3.29119","26.791","2.247","7.42","0.434","4.861","0.07","0.24","29.6166","4.68079","24.14","0","SATNPRO1964","23.3","0.32638","5"],
    [55671,"HCEP03730563","2025-07-30 08:00:00","10.1551","3.29116","26.843","2.27","7.43","0.414","4.856","0.05","0.2","29.6173","4.68092","24.39","0","SATNPRO1964","23.192","0.32486","5"],
    [55672,"HCEP03730563","2025-07-30 08:15:00","10.1559","3.29119","26.88","2.295","7.43","0.426","4.834","0.06","0.22","29.6169","4.68085","24.65","0","SATNPRO1964","23.482","0.32888","5"],
    [55673,"HCEP03730563","2025-07-30 08:30:00","10.1621","3.29155","26.864","2.293","7.43","0.411","5.179","0.08","0.16","29.6154","4.68054","24.64","0","SATNPRO1964","23.272","0.32596","5"],
    [55674,"HCEP03730563","2025-07-30 08:45:00","10.1607","3.29128","26.896","2.267","7.43","0.423","5.821","0.05","0.9","29.6139","4.68034","24.35","0","SATNPRO1964","23.192","0.32482","5"],
    [55675,"HCEP03730563","2025-07-30 09:00:00","10.1477","3.29007","26.873","2.319","7.43","0.353","3.638","0.03","0.22","29.6125","4.68036","24.91","0","SATNPRO1964","24.018","0.33646","5"],
    [55676,"HCEP03730563","2025-07-30 09:15:00","10.1447","3.28993","26.839","2.437","7.43","0.418","4.335","0.07","0.3","29.6136","4.68056","26.18","0","SATNPRO1964","24.004","0.3362","5"],
    [55677,"HCEP03730563","2025-07-30 09:30:00","10.1438","3.28995","26.793","2.473","7.44","0.38","3.635","0.08","0.14","29.6145","4.6807","26.56","0","SATNPRO1964","24.07","0.33714","5"],
    [55678,"HCEP03730563","2025-07-30 09:45:00","10.1465","3.29016","26.712","2.481","7.44","0.406","4.119","0.05","0.51","29.6144","4.68064","26.64","0","SATNPRO1964","24.182000000000002","0.33872","5"],
    [55679,"HCEP03730563","2025-07-30 10:00:00","10.1496","3.29056","26.67","2.455","7.44","0.469","4.834","0.17","0.28","29.6159","4.6808","26.37","0","SATNPRO1964","23.926","0.33514","5"],
    [55680,"HCEP03730563","2025-07-30 10:15:00","10.15","3.29083","26.609","2.415","7.44","0.452","5.246","0.11","0.26","29.6182","4.68112","25.94","0","SATNPRO1964","23.54","0.32972","5"],
    [55681,"HCEP03730563","2025-07-30 10:30:00","10.1407","3.28754","26.53","2.368","7.44","0.392","6.103","0.04","0.35","29.593","4.67768","25.42","0","SATNPRO1964","23.736","0.3325","5"],
    [55682,"HCEP03730563","2025-07-30 10:45:00","10.1496","3.29065","26.476","2.471","7.44","0.426","7.055","0.1","12.4","29.6169","4.68093","26.54","0","SATNPRO1964","24.63","0.34498","5"],
    [55683,"HCEP03730563","2025-07-30 11:00:00","10.1239","3.28917","26.356","2.441","7.44","0.549","6.179","0.09","0.2","29.6231","4.68224","26.21","0","SATNPRO1964","23.542","0.32972","5"],
    [55684,"HCEP03730563","2025-07-30 11:15:00","10.1204","3.28881","26.307","2.227","7.43","0.667","6.459","0.09","0.41","29.6225","4.6822","23.9","0","SATNPRO1964","23.68","0.33166","5"],
    [55685,"HCEP03730563","2025-07-30 11:30:00","10.1186","3.28856","26.229","2.255","7.43","0.387","5.707","0.06","0.29","29.6215","4.68209","24.21","0","SATNPRO1964","23.664","0.3314","5"],
    [55686,"HCEP03730563","2025-07-30 11:45:00","10.1155","3.28825","26.15","2.24","7.42","0.405","6.035","0.04","0.3","29.6209","4.68205","24.04","0","SATNPRO1964","23.344","0.32696","5"],
    [55687,"HCEP03730563","2025-07-30 12:00:00","10.113","3.28796","26.011","2.175","7.42","0.381","5.553","0.04","0.2","29.62","4.68196","23.34","0","SATNPRO1964","23.434","0.32826","5"],
    [55688,"HCEP03730563","2025-07-30 12:15:00","10.1125","3.28738","25.899","2.163","7.42","0.406","5.167","0.09","0.15","29.6148","4.68121","23.21","0","SATNPRO1964","23.358","0.3272","5"],
    [55689,"HCEP03730563","2025-07-30 12:30:00","10.1136","3.28637","25.813","2.222","7.42","0.395","4.595","0.09","0.16","29.6038","4.67962","23.85","0","SATNPRO1964","23.582","0.3303","5"],
    [55690,"HCEP03730563","2025-07-30 12:45:00","10.1151","3.28702","25.737","2.246","7.42","0.407","4.691","0.07","0.18","29.6091","4.68035","24.1","0","SATNPRO1964","23.536","0.32968","5"],
    [55691,"HCEP03730563","2025-07-30 13:00:00","10.1153","3.28716","25.685","2.287","7.42","0.384","4.609","0.05","0.19","29.6104","4.68053","24.55","0","SATNPRO1964","23.497999999999998","0.32914","5"],
    [55692,"HCEP03730563","2025-07-30 13:15:00","10.1121","3.28617","25.603","2.34","7.43","0.393","4.912","0.05","1.73","29.6031","4.67954","25.11","0","SATNPRO1964","23.874","0.3344","5"],
    [55693,"HCEP03730563","2025-07-30 13:30:00","10.110900000000001","3.28713","25.506","2.317","7.43","0.38","4.437","0.05","0.14","29.6137","4.68107","24.86","0","SATNPRO1964","23.49","0.32898","5"],
    [55694,"HCEP03730563","2025-07-30 13:45:00","10.1092","3.2861","25.435","2.231","7.42","0.369","4.324","0.04","0.14","29.6048","4.67982","23.94","0","SATNPRO1964","23.442","0.32836","5"],
    [55695,"HCEP03730563","2025-07-30 14:00:00","10.1072","3.28671","25.428","2.207","7.42","0.405","4.1","0.14","0.12","29.6126","4.68096","23.69","0","SATNPRO1964","23.3","0.32636","5"],
    [55696,"HCEP03730563","2025-07-30 14:15:00","10.119","3.2862","25.44","2.347","7.43","0.395","2.619","0.07","0.18","29.5979","4.67867","25.19","0","SATNPRO1964","24.094","0.33746","5"],
    [55697,"HCEP03730563","2025-07-30 14:30:00","10.1134","3.28635","25.411","2.46","7.43","0.373","4.148","0.05","0.15","29.604","4.67963","26.4","0","SATNPRO1964","23.302","0.32638","5"],
    [55698,"HCEP03730563","2025-07-30 14:45:00","10.1086","3.2866","25.468","2.343","7.43","0.382","3.9","0.04","0.14","29.6103","4.68062","25.14","0","SATNPRO1964","23.55","0.32986","5"],
    [55699,"HCEP03730563","2025-07-30 15:00:00","10.1093","3.28664","25.495","2.283","7.43","0.378","4.154","0.08","0.16","29.6101","4.68058","24.5","0","SATNPRO1964","23.436","0.32826","5"],
    [55700,"HCEP03730563","2025-07-30 15:15:00","10.1115","3.28647","25.552","2.295","7.43","0.376","4.25","0.03","0.24","29.6067","4.68006","24.63","0","SATNPRO1964","23.506","0.32924","5"],
    [55701,"HCEP03730563","2025-07-30 15:30:00","10.1118","3.28667","25.602","2.343","7.43","0.373","3.165","0.09","0.18","29.6084","4.68029","25.14","0","SATNPRO1964","24.334","0.34088","5"],
    [55702,"HCEP03730563","2025-07-30 15:45:00","10.1296","3.28713","25.648","2.418","7.43","0.404","2.812","0.1","0.68","29.5984","4.67857","25.96","0","SATNPRO1964","24.516","0.34342","5"],
    [55703,"HCEP03730563","2025-07-30 16:00:00","10.1291","3.28735","25.743","2.529","7.44","0.435","3.293","0.29","0.19","29.601","4.67896","27.15","0","SATNPRO1964","24.228","0.33932","5"],
    [55704,"HCEP03730563","2025-07-30 16:15:00","10.1181","3.28739","25.857","2.44","7.44","0.388","3.583","0.12","0.16","29.6103","4.68047","26.19","0","SATNPRO1964","23.676","0.33164","5"],
    [55705,"HCEP03730563","2025-07-30 16:30:00","10.1186","3.28762","25.97","2.343","7.43","0.343","3.563","0.04","0.16","29.6121","4.68074","25.15","0","SATNPRO1964","23.624","0.3309","5"],
    [55706,"HCEP03730563","2025-07-30 16:45:00","10.1195","3.28509","26.12","2.298","7.43","0.386","3.93","0.04","0.17","29.5861","4.67702","24.66","0","SATNPRO1964","23.753999999999998","0.33272","5"],
    [55707,"HCEP03730563","2025-07-30 17:00:00","10.1269","3.28832","26.232","2.325","7.43","0.389","3.654","0.06","0.2","29.6123","4.68063","24.96","0","SATNPRO1964","24.066","0.33706","5"],
    [55708,"HCEP03730563","2025-07-30 17:15:00","10.1289","3.28884","26.344","2.374","7.43","0.488","5.082","0.3","1.28","29.6158","4.6811","25.49","0","SATNPRO1964","23.768","0.33292","5"],
    [55709,"HCEP03730563","2025-07-30 17:30:00","10.1392","3.28922","26.482","2.479","7.44","0.384","2.795","0.09","0.17","29.6111","4.68028","26.62","0","SATNPRO1964","24.686","0.34578","5"],
    [55710,"HCEP03730563","2025-07-30 17:45:00","10.1339","3.22033","26.621","2.531","7.44","0.405","3.876","0.05","0.43","28.9295","4.58295","27.06","0","SATNPRO1964","24.004","0.33624","5"],
    [55711,"HCEP03730563","2025-07-30 18:00:00","10.132","3.28281","26.781","2.357","7.44","0.414","4.592","0.05","0.2","29.553","4.67212","25.3","0","SATNPRO1964","23.45","0.32848","5"],
    [55712,"HCEP03730563","2025-07-30 18:15:00","10.1352","3.26622","26.943","2.285","7.43","0.439","4.709","0.07","0.69","29.385","4.64808","24.5","0","SATNPRO1964","23.442","0.32836","5"],
    [55713,"HCEP03730563","2025-07-30 18:30:00","10.1497","3.29063","27.091","2.361","7.43","0.462","3.366","0.22","0.19","29.6163","4.68088","25.36","0","SATNPRO1964","24.068","0.33708","5"],
    [55714,"HCEP03730563","2025-07-30 18:45:00","10.1454","3.29065","27.187","2.364","7.43","0.429","4.806","0.04","0.24","29.62","4.68148","25.39","0","SATNPRO1964","23.3","0.32636","5"],
    [55715,"HCEP03730563","2025-07-30 19:00:00","10.148","3.29078","27.303","2.201","7.43","0.436","5.052","0.09","0.17","29.6191","4.68132","23.64","0","SATNPRO1964","23.006","0.32226","5"],
    [55716,"HCEP03730563","2025-07-30 19:15:00","10.1551","3.2911","27.431","2.103","7.42","0.447","5.238","0.04","0.21","29.6165","4.68083","22.59","0","SATNPRO1964","22.72","0.3182","5"],
    [55717,"HCEP03730563","2025-07-30 19:30:00","10.1667","3.29189","27.578","2.046","7.41","0.509","5.57","0.12","0.24","29.6148","4.6804","21.99","0","SATNPRO1964","22.47","0.3147","5"],
    [55718,"HCEP03730563","2025-07-30 19:45:00","10.1933","3.2942","27.667","2.011","7.41","0.491","5.19","0.08","0.2","29.616","4.68014","21.63","0","SATNPRO1964","22.176","0.31064","5"],
    [55719,"HCEP03730563","2025-07-30 20:00:00","10.2196","3.29671","27.742","2.012","7.41","0.479","5.161","0.04","0.16","29.6195","4.68022","21.65","0","SATNPRO1964","21.912","0.3069","5"],
    [55720,"HCEP03730563","2025-07-30 20:15:00","10.2436","3.29908","27.806","2.024","7.41","3.773","68.034","2.32","17.52","29.6236","4.68041","21.78","0","SATNPRO1964","21.817999999999998","0.3056","5"],
    [55721,"HCEP03730563","2025-07-30 20:30:00","10.2691","3.30151","27.807","2.132","7.41","1.98","41.111","0.6","24.14","29.6268","4.68045","22.96","0","SATNPRO1964","22.31","0.31246","5"],
    [55722,"HCEP03730563","2025-07-30 20:45:00","10.2979","3.3044","27.804","2.352","7.43","0.669","14.324","0.24","11.89","29.6322","4.68074","25.35","0","SATNPRO1964","23.16","0.32438","5"],
    [55723,"HCEP03730563","2025-07-30 21:00:00","10.3227","3.30685","27.822","2.617","7.45","0.486","4.452","0.04","0.13","29.6362","4.68092","28.21","0","SATNPRO1964","23.842","0.33396","5"],
    [55724,"HCEP03730563","2025-07-30 21:15:00","10.3347","3.30807","27.808","2.848","7.47","0.486","4.14","0.04","0.12","29.6385","4.68104","30.72","0","SATNPRO1964","24.066","0.3371","5"],
    [55725,"HCEP03730563","2025-07-30 21:30:00","10.3522","3.30957","27.778","3.039","7.48","0.458","3.547","0.05","0.08","29.6392","4.68086","32.8","0","SATNPRO1964","24.916","0.34904","5"],
    [55726,"HCEP03730563","2025-07-30 21:45:00","10.3592","3.31026","27.71","3.19","7.5","0.465","3.441","0.04","0.3","29.6404","4.68091","34.42","0","SATNPRO1964","24.87","0.34836","5"],
    [55727,"HCEP03730563","2025-07-30 22:00:00","10.3738","3.31157","27.656","3.349","7.51","0.452","3.126","0.06","0.14","29.6415","4.68083","36.15","0","SATNPRO1964","25.566","0.35812","5"],
    [55728,"HCEP03730563","2025-07-30 22:15:00","10.3518","3.30964","27.557","3.391","7.52","0.552","3.652","0.18","0.16","29.6402","4.681","36.59","0","SATNPRO1964","24.798","0.34738","5"],
    [55729,"HCEP03730563","2025-07-30 22:30:00","10.3106","3.30561","27.465","3.181","7.51","0.466","3.524","0.09","0.13","29.6339","4.68076","34.3","0","SATNPRO1964","24.422","0.34206","5"],
    [55730,"HCEP03730563","2025-07-30 22:45:00","10.3135","3.3055","27.384","3.035","7.5","0.583","5.236","0.51","7.31","29.6304","4.68022","32.72","0","SATNPRO1964","24.166","0.33848","5"],
    [55731,"HCEP03730563","2025-07-30 23:00:00","10.3261","3.30728","27.268","2.946","7.5","0.482","4.403","0.07","0.14","29.638","4.68108","31.76","0","SATNPRO1964","23.868000000000002","0.33434","5"],
    [55732,"HCEP03730563","2025-07-30 23:15:00","10.3321","3.30788","27.213","2.879","7.49","0.507","4.548","0.07","0.11","29.6391","4.68113","31.05","0","SATNPRO1964","23.98","0.33586","5"],
    [55733,"HCEP03730563","2025-07-30 23:30:00","10.3421","3.30877","27.05","2.902","7.49","1.004","15.365","1.2","25.6","29.6398","4.68107","31.3","0","SATNPRO1964","24.092","0.33746","5"],
    [55734,"HCEP03730563","2025-07-30 23:45:00","10.3474","3.30914","26.961","2.937","7.49","0.483","4.175","0.04","0.13","29.6392","4.68088","31.68","0","SATNPRO1964","24.201999999999998","0.33896","5"],
    [55735,"HCEP03730563","2025-07-31 00:00:00","10.353","3.30523","26.774","2.952","7.49","0.501","4.369","0.08","0.14","29.5959","4.67461","31.84","0","SATNPRO1964","24.014","0.33636","5"],
    [55736,"HCEP03730563","2025-07-31 00:15:00","10.3643","3.31072","26.589","3.015","7.5","0.508","3.981","0.05","0.15","29.6411","4.68087","32.54","0","SATNPRO1964","24.474","0.34278","5"],
    [55737,"HCEP03730563","2025-07-31 00:30:00","10.3547","3.30956","26.407","3.099","7.5","0.45","3.668","0.03","0.11","29.6376","4.68051","33.45","0","SATNPRO1964","24.492","0.34304","5"],
    [55738,"HCEP03730563","2025-07-31 00:45:00","10.3434","3.30864","26.231","3.1","7.5","0.492","3.824","0.05","0.14","29.6377","4.6807","33.45","0","SATNPRO1964","24.426","0.34212","5"],
    [55739,"HCEP03730563","2025-07-31 01:00:00","10.3594","3.31032","26.053","3.072","7.5","0.498","4.218","0.1","0.13","29.6414","4.68095","33.15","0","SATNPRO1964","24.268","0.3399","5"],
    [55740,"HCEP03730563","2025-07-31 01:15:00","10.3569","3.31011","25.9","3.044","7.5","0.526","4.181","0.15","0.17","29.6415","4.681","32.85","0","SATNPRO1964","24.23","0.33938","5"],
    [55741,"HCEP03730563","2025-07-31 01:30:00","10.3482","3.30933","25.752","2.987","7.5","0.486","4.707","0.04","0.13","29.6409","4.68105","32.23","0","SATNPRO1964","23.916","0.33498","5"],
    [55742,"HCEP03730563","2025-07-31 01:45:00","10.3336","3.30805","25.577","2.919","7.49","0.499","4.294","0.05","0.12","29.6402","4.68117","31.49","0","SATNPRO1964","23.938","0.3353","5"],
    [55743,"HCEP03730563","2025-07-31 02:00:00","10.3242","3.30729","25.423","2.891","7.49","0.467","4.055","0.05","0.14","29.6403","4.68134","31.18","0","SATNPRO1964","23.958","0.3355","5"],
    [55744,"HCEP03730563","2025-07-31 02:15:00","10.3091","3.30582","25.326","2.836","7.49","0.487","3.983","0.09","0.22","29.638","4.68125","30.57","0","SATNPRO1964","23.672","0.33158","5"],
    [55745,"HCEP03730563","2025-07-31 02:30:00","10.2869","3.30358","25.293","2.724","7.48","0.43","3.76","0.03","0.12","29.634","4.68104","29.35","0","SATNPRO1964","23.366","0.32726","5"],
    [55746,"HCEP03730563","2025-07-31 02:45:00","10.2627","3.30137","25.155","2.602","7.47","0.465","4.089","0.07","0.47","29.6318","4.68111","28.02","0","SATNPRO1964","23.228","0.32538","5"],
    [55747,"HCEP03730563","2025-07-31 03:00:00","10.2567","3.30075","25.141","2.5","7.46","0.461","4.344","0.05","0.15","29.6305","4.68103","26.92","0","SATNPRO1964","22.96","0.32158","5"],
    [55748,"HCEP03730563","2025-07-31 03:15:00","10.2502","3.30013","25.112","2.443","7.45","0.472","4.72","0.04","0.27","29.6297","4.68101","26.3","0","SATNPRO1964","22.918","0.32104","5"],
    [55749,"HCEP03730563","2025-07-31 03:30:00","10.2479","3.29997","25.131","2.415","7.45","0.474","4.976","0.13","0.55","29.6299","4.68109","25.99","0","SATNPRO1964","22.944","0.32142","5"],
    [55750,"HCEP03730563","2025-07-31 03:45:00","10.2288","3.29792","25.097","2.371","7.44","0.482","4.52","0.05","0.21","29.6252","4.68072","25.51","0","SATNPRO1964","22.658","0.3174","5"],
    [55751,"HCEP03730563","2025-07-31 04:00:00","10.2298","3.29825","25.143","2.313","7.44","0.449","5.135","0.04","0.32","29.6276","4.68105","24.88","0","SATNPRO1964","22.59","0.31638","5"],
    [55752,"HCEP03730563","2025-07-31 04:15:00","10.2093","3.29618","25.151","2.275","7.43","0.468","4.818","0.04","0.38","29.6237","4.68084","24.47","0","SATNPRO1964","22.61","0.3167","5"],
    [55753,"HCEP03730563","2025-07-31 04:30:00","10.2152","3.29699","25.234","2.236","7.43","0.458","5.439","0.06","0.49","29.6269","4.6812","24.06","0","SATNPRO1964","22.624","0.31688","5"],
    [55754,"HCEP03730563","2025-07-31 04:45:00","10.212","3.29675","25.286","2.226","7.43","0.532","5","0.25","0.36","29.6271","4.68129","23.94","0","SATNPRO1964","22.458","0.31452","5"],
    [55755,"HCEP03730563","2025-07-31 05:00:00","10.2172","3.29735","25.309","2.231","7.43","0.461","5.208","0.05","0.44","29.6288","4.68144","24","0","SATNPRO1964","22.518","0.31542","5"],
    [55756,"HCEP03730563","2025-07-31 05:15:00","10.2235","3.29809","25.424","2.232","7.43","0.505","4.897","0.11","0.17","29.6309","4.68165","24.02","0","SATNPRO1964","22.472","0.31476","5"],
    [55757,"HCEP03730563","2025-07-31 05:30:00","10.2281","3.29869","25.494","2.23","7.43","0.452","4.887","0.03","0.11","29.6332","4.6819","24","0","SATNPRO1964","22.524","0.31546","5"],
    [55758,"HCEP03730563","2025-07-31 05:45:00","10.2385","3.29982","25.548","2.251","7.43","0.502","5.323","0.06","0.37","29.6359","4.68212","24.22","0","SATNPRO1964","22.432000000000002","0.3142","5"],
    [55759,"HCEP03730563","2025-07-31 06:00:00","10.2389","3.29991","25.62","2.26","7.43","0.473","5.388","0.04","0.21","29.6365","4.6822","24.32","0","SATNPRO1964","22.552","0.31588","5"],
    [55760,"HCEP03730563","2025-07-31 06:15:00","10.2328","3.29943","25.743","2.242","7.43","0.531","9.521","0.06","4.16","29.6366","4.68233","24.13","0","SATNPRO1964","22.482","0.31488","5"],
    [55761,"HCEP03730563","2025-07-31 06:30:00","10.2425","3.30042","25.85","2.241","7.43","0.506","5.183","0.08","0.17","29.6385","4.68245","24.12","0","SATNPRO1964","22.408","0.3139","5"],
    [55762,"HCEP03730563","2025-07-31 06:45:00","10.2462","3.30095","25.958","2.256","7.43","0.475","5.209","0.04","0.18","29.6407","4.68271","24.28","0","SATNPRO1964","22.496","0.3151","5"],
    [55763,"HCEP03730563","2025-07-31 07:00:00","10.2547","3.30211","26.059","2.275","7.43","0.469","5.411","0.03","0.21","29.6453","4.68322","24.5","0","SATNPRO1964","22.48","0.31486","5"],
    [55764,"HCEP03730563","2025-07-31 07:15:00","10.266","3.30327","26.153","2.324","7.43","0.526","6.06","0.05","0.27","29.6476","4.68337","25.03","0","SATNPRO1964","22.864","0.32024","5"],
    [55765,"HCEP03730563","2025-07-31 07:30:00","10.2893","3.30617","26.225","2.457","7.44","0.513","5.388","0.07","0.25","29.6574","4.68439","26.48","0","SATNPRO1964","23.29","0.32622","5"],
    [55766,"HCEP03730563","2025-07-31 07:45:00","10.2939","3.30679","26.314","2.621","7.45","0.563","7.057","0.06","0.9","29.6596","4.68464","28.25","0","SATNPRO1964","23.616","0.33076","5"],
    [55767,"HCEP03730563","2025-07-31 08:00:00","10.2971","3.30726","26.437","2.73","7.46","0.514","5.418","0.05","0.37","29.6617","4.68489","29.43","0","SATNPRO1964","24.002","0.33618","5"],
    [55768,"HCEP03730563","2025-07-31 08:15:00","10.2997","3.30769","26.499","2.882","7.47","0.537","5.691","0.05","0.43","29.6638","4.68515","31.06","0","SATNPRO1964","24.808","0.34748","5"],
    [55769,"HCEP03730563","2025-07-31 08:30:00","10.303","3.30832","26.604","3.101","7.49","0.456","4.49","0.04","0.63","29.6674","4.68561","33.43","0","SATNPRO1964","25.344","0.355","5"],
    [55770,"HCEP03730563","2025-07-31 08:45:00","10.2978","3.30813","26.635","3.303","7.51","0.477","4.392","0.05","0.14","29.6697","4.68602","35.61","0","SATNPRO1964","25.746","0.36064","5"],
    [55771,"HCEP03730563","2025-07-31 09:00:00","10.294","3.30793","26.709","3.376","7.52","0.462","4.604","0.04","0.19","29.6708","4.68625","36.39","0","SATNPRO1964","25.816","0.36158","5"],
    [55772,"HCEP03730563","2025-07-31 09:15:00","10.2913","3.30778","26.762","3.403","7.52","0.506","5.782","0.04","0.46","29.6715","4.6864","36.68","0","SATNPRO1964","25.824","0.3617","5"],
    [55773,"HCEP03730563","2025-07-31 09:30:00","10.2928","3.30792","26.795","3.414","7.53","0.476","4.873","0.08","0.37","29.6716","4.68639","36.8","0","SATNPRO1964","25.804","0.36146","5"],
    [55774,"HCEP03730563","2025-07-31 09:45:00","10.2924","3.308","26.799","3.439","7.53","0.472","4.45","0.06","0.26","29.6727","4.68656","37.07","0","SATNPRO1964","26.048","0.36482","5"],
    [55775,"HCEP03730563","2025-07-31 10:00:00","10.2924","3.30802","26.783","3.476","7.54","0.473","4.778","0.05","0.38","29.6729","4.68659","37.47","0","SATNPRO1964","26.014","0.36436","5"],
    [55776,"HCEP03730563","2025-07-31 10:15:00","10.2945","3.30823","26.748","3.497","7.54","0.51","4.183","0.23","0.26","29.6733","4.68661","37.69","0","SATNPRO1964","26.078","0.36526","5"],
    [55777,"HCEP03730563","2025-07-31 10:30:00","10.2979","3.30848","26.735","3.509","7.54","0.444","3.873","0.04","0.09","29.6731","4.68651","37.82","0","SATNPRO1964","26.01","0.36436","5"],
    [55778,"HCEP03730563","2025-07-31 10:45:00","10.3503","3.31225","26.803","3.768","7.56","0.403","2.561","0.04","0.24","29.6677","4.68489","40.66","0","SATNPRO1964","27.678","0.3877","5"],
    [55779,"HCEP03730563","2025-07-31 11:00:00","10.3842","3.31434","26.777","4.065","7.58","0.384","2.084","0.05","0.14","29.6607","4.68335","43.89","0","SATNPRO1964","27.288","0.3822","5"],
    [55780,"HCEP03730563","2025-07-31 11:15:00","10.3785","3.31363","26.755","4.247","7.61","0.453","1.609","0.05","0.38","29.6584","4.68311","45.88","0","SATNPRO1964","27.998","0.39216","5"],
    [55781,"HCEP03730563","2025-07-31 11:30:00","10.351","3.31116","26.631","4.169","7.6","0.535","3.202","0.13","0.36","29.6563","4.68325","45","0","SATNPRO1964","27.172","0.38058","5"],
    [55782,"HCEP03730563","2025-07-31 11:45:00","10.3278","3.31046","26.544","3.978","7.59","0.513","5.785","0.07","0.34","29.6684","4.68535","42.91","0","SATNPRO1964","26.912","0.37694","5"],
    [55783,"HCEP03730563","2025-07-31 12:00:00","10.2888","3.30742","26.509","3.613","7.57","0.468","5.403","0.06","0.35","29.6701","4.68622","38.94","0","SATNPRO1964","26.291999999999998","0.36828","5"],
    [55784,"HCEP03730563","2025-07-31 12:15:00","10.2905","3.30726","26.482","3.466","7.55","0.438","4.039","0.05","0.32","29.667","4.68576","37.36","0","SATNPRO1964","25.98","0.36394","5"],
    [55785,"HCEP03730563","2025-07-31 12:30:00","10.2797","3.30666","26.449","3.378","7.54","0.462","4.682","0.07","0.23","29.67","4.68635","36.4","0","SATNPRO1964","25.61","0.35872","5"],
    [55786,"HCEP03730563","2025-07-31 12:45:00","10.3134","3.30832","26.465","3.423","7.54","0.439","2.64","0.12","0.06","29.6589","4.68422","36.91","0","SATNPRO1964","26.426","0.37016","5"],
    [55787,"HCEP03730563","2025-07-31 13:00:00","10.2736","3.30583","26.309","3.325","7.53","0.498","6.674","0.08","0.72","29.6667","4.68598","35.83","0","SATNPRO1964","25.21","0.35312","5"],
    [55788,"HCEP03730563","2025-07-31 13:15:00","10.2762","3.30607","26.215","3.143","7.52","0.519","5.745","0.1","0.34","29.667","4.68598","33.87","0","SATNPRO1964","27.22","0.38126","5"],
    [55789,"HCEP03730563","2025-07-31 13:30:00","10.2854","3.29798","26.138","3.154","7.52","0.495","5.276","0.12","0.33","29.5792","4.67329","33.96","0","SATNPRO1964","25.416","0.35598","5"],
    [55790,"HCEP03730563","2025-07-31 13:45:00","10.2913","3.29685","26.091","3.207","7.52","0.473","4.814","0.07","0.39","29.5632","4.67092","34.54","0","SATNPRO1964","25.228","0.35338","5"],
    [55791,"HCEP03730563","2025-07-31 14:00:00","10.2891","3.30715","26.053","3.224","7.52","0.423","5.194","0.03","0.24","29.6673","4.6858","34.74","0","SATNPRO1964","25.398","0.35578","5"],
    [55792,"HCEP03730563","2025-07-31 14:15:00","10.2891","3.30717","25.997","3.225","7.52","0.477","5.009","0.09","0.34","29.6675","4.68582","34.76","0","SATNPRO1964","25.538","0.3577","5"],
    [55793,"HCEP03730563","2025-07-31 14:30:00","10.2874","3.30709","25.952","3.219","7.52","0.443","4.89","0.05","0.36","29.6681","4.68593","34.69","0","SATNPRO1964","25.528","0.35758","5"],
    [55794,"HCEP03730563","2025-07-31 14:45:00","10.2862","3.30693","25.926","3.202","7.52","0.473","5.014","0.09","0.83","29.6676","4.68587","34.51","0","SATNPRO1964","25.428","0.35618","5"],
    [55795,"HCEP03730563","2025-07-31 15:00:00","10.2845","3.30676","25.934","3.178","7.52","0.478","5.223","0.2","0.54","29.6673","4.68586","34.25","0","SATNPRO1964","25.342","0.35496","5"],
    [55796,"HCEP03730563","2025-07-31 15:15:00","10.2824","3.30654","25.934","3.145","7.51","0.48","5.257","0.06","0.27","29.6667","4.68581","33.89","0","SATNPRO1964","25.08","0.3513","5"],
    [55797,"HCEP03730563","2025-07-31 15:30:00","10.2809","3.30633","25.959","3.109","7.51","0.467","5.329","0.08","0.17","29.6659","4.68572","33.5","0","SATNPRO1964","25.176000000000002","0.35266","5"],
    [55798,"HCEP03730563","2025-07-31 15:45:00","10.2819","3.30636","25.969","3.086","7.51","0.514","5.13","0.14","0.73","29.6653","4.68563","33.25","0","SATNPRO1964","24.564","0.34406","5"],
    [55799,"HCEP03730563","2025-07-31 16:00:00","10.2802","3.30622","26.013","3.078","7.51","0.485","5.179","0.11","0.29","29.6654","4.68566","33.16","0","SATNPRO1964","25.43","0.35616","5"],
    [55800,"HCEP03730563","2025-07-31 16:15:00","10.2784","3.30612","26.091","3.064","7.51","0.523","4.947","0.15","0.6","29.6658","4.68575","33.01","0","SATNPRO1964","25.316","0.35462","5"],
    [55801,"HCEP03730563","2025-07-31 16:30:00","10.2782","3.30612","26.173","3.059","7.5","0.419","4.473","0.04","0.23","29.6659","4.68579","32.96","0","SATNPRO1964","25.238","0.35354","5"],
    [55802,"HCEP03730563","2025-07-31 16:45:00","10.2837","3.30657","26.229","3.081","7.51","0.477","4.485","0.08","0.2","29.6659","4.6857","33.2","0","SATNPRO1964","25.376","0.35544","5"],
    [55803,"HCEP03730563","2025-07-31 17:00:00","10.2846","3.30667","26.302","3.105","7.51","0.444","4.774","0.04","0.36","29.6661","4.68572","33.46","0","SATNPRO1964","25.312","0.35452","5"],
    [55804,"HCEP03730563","2025-07-31 17:15:00","10.2839","3.3066","26.379","3.111","7.51","0.502","4.697","0.14","0.24","29.6659","4.6857","33.52","0","SATNPRO1964","25.222","0.35328","5"],
    [55805,"HCEP03730563","2025-07-31 17:30:00","10.2816","3.30648","26.48","3.095","7.51","0.458","4.788","0.08","0.25","29.6666","4.68584","33.35","0","SATNPRO1964","25.114","0.35172","5"],
    [55806,"HCEP03730563","2025-07-31 17:45:00","10.2781","3.30607","26.581","3.065","7.5","0.47","4.748","0.07","0.31","29.6653","4.68572","33.02","0","SATNPRO1964","25.1","0.35154","5"],
    [55807,"HCEP03730563","2025-07-31 18:00:00","10.271","3.30548","26.711","3.003","7.5","0.432","4.959","0.07","0.19","29.6652","4.68584","32.35","0","SATNPRO1964","24.746","0.3466","5"],
    [55808,"HCEP03730563","2025-07-31 18:15:00","10.269","3.30519","26.802","2.946","7.5","0.457","4.989","0.05","0.18","29.6639","4.68569","31.74","0","SATNPRO1964","24.75","0.34668","5"],
    [55809,"HCEP03730563","2025-07-31 18:30:00","10.272","3.30535","26.886","2.933","7.49","0.443","4.664","0.07","0.2","29.663","4.68552","31.59","0","SATNPRO1964","24.936","0.34928","5"],
    [55810,"HCEP03730563","2025-07-31 18:45:00","10.2649","3.30475","26.998","2.911","7.49","0.449","4.659","0.06","0.15","29.6629","4.68562","31.36","0","SATNPRO1964","24.63","0.34498","5"],
    [55811,"HCEP03730563","2025-07-31 19:00:00","10.2682","3.305","27.118","2.889","7.49","0.444","4.653","0.05","0.2","29.6626","4.68553","31.12","0","SATNPRO1964","24.732","0.34642","5"],
    [55812,"HCEP03730563","2025-07-31 19:15:00","10.2697","3.3052","27.182","2.917","7.49","0.475","4.512","0.09","0.22","29.6633","4.6856","31.42","0","SATNPRO1964","24.518","0.34338","5"],
    [55813,"HCEP03730563","2025-07-31 19:30:00","10.2661","3.30502","27.317","2.929","7.49","0.494","4.631","0.29","0.21","29.6644","4.68583","31.54","0","SATNPRO1964","24.484","0.34292","5"],
    [55814,"HCEP03730563","2025-07-31 19:45:00","10.269","3.30533","27.439","2.94","7.49","0.463","4.481","0.05","0.13","29.6651","4.68589","31.67","0","SATNPRO1964","24.786","0.34714","5"],
    [55815,"HCEP03730563","2025-07-31 20:00:00","10.2737","3.30585","27.464","2.985","7.49","0.421","4.465","0.04","0.12","29.6664","4.686","32.16","0","SATNPRO1964","24.76","0.34682","5"],
    [55816,"HCEP03730563","2025-07-31 20:15:00","10.2646","3.30483","27.541","3.006","7.5","0.491","4.287","0.16","0.1","29.6636","4.68575","32.38","0","SATNPRO1964","24.715999999999998","0.34622","5"],
    [55817,"HCEP03730563","2025-07-31 20:30:00","10.2593","3.30461","27.608","2.972","7.49","1.841","34.613","2.23","34.47","29.6658","4.68616","32.01","0","SATNPRO1964","24.864","0.34826","5"],
    [55818,"HCEP03730563","2025-07-31 20:45:00","10.2567","3.30444","27.648","2.972","7.49","0.444","3.842","0.05","0.16","29.6662","4.68626","32.01","0","SATNPRO1964","25.024","0.3505","5"],
    [55819,"HCEP03730563","2025-07-31 21:00:00","10.2385","3.30278","27.655","2.938","7.49","0.891","23.607","0.62","25.49","29.6645","4.68633","31.63","0","SATNPRO1964","24.662","0.34546","5"],
    [55820,"HCEP03730563","2025-07-31 21:15:00","10.2166","3.30099","27.669","2.783","7.48","0.5","6.762","0.05","0.15","29.6647","4.68671","29.94","0","SATNPRO1964","24.060000000000002","0.33702","5"],
    [55821,"HCEP03730563","2025-07-31 21:30:00","10.2085","3.29652","27.653","2.727","7.48","0.43","5.131","0.04","0.18","29.6267","4.68142","29.33","0","SATNPRO1964","24.804","0.34742","5"],
    [55822,"HCEP03730563","2025-07-31 21:45:00","10.2061","3.30061","27.626","2.936","7.48","0.427","4.659","0.02","0.29","29.6694","4.68755","31.58","0","SATNPRO1964","25.374000000000002","0.35542","5"],
    [55823,"HCEP03730563","2025-07-31 22:00:00","10.2065","3.29962","27.64","3.039","7.49","0.417","4.787","0.04","0.17","29.6592","4.68609","32.7","0","SATNPRO1964","25.384","0.35552","5"],
    [55824,"HCEP03730563","2025-07-31 22:15:00","10.2057","3.30061","27.596","3.057","7.5","0.445","4.701","0.04","0.21","29.6697","4.68761","32.89","0","SATNPRO1964","25.355999999999998","0.3552","5"],
    [55825,"HCEP03730563","2025-07-31 22:30:00","10.2095","3.30082","27.54","3.072","7.5","0.404","3.623","0.04","0.1","29.6688","4.6874","33.05","0","SATNPRO1964","25.472","0.35676","5"],
    [55826,"HCEP03730563","2025-07-31 22:45:00","10.2132","3.30106","27.498","3.057","7.5","0.413","3.247","0.04","0.09","29.6681","4.68725","32.9","0","SATNPRO1964","25.472","0.35678","5"],
    [55827,"HCEP03730563","2025-07-31 23:00:00","10.2236","3.3019","27.434","3.036","7.5","0.399","3.309","0.07","0.11","29.6681","4.68706","32.68","0","SATNPRO1964","25.17","0.35254","5"],
    [55828,"HCEP03730563","2025-07-31 23:15:00","10.2058","3.30058","27.329","3.038","7.5","0.44","3.841","0.07","0.12","29.6696","4.68756","32.68","0","SATNPRO1964","25.364","0.35528","5"],
    [55829,"HCEP03730563","2025-07-31 23:30:00","10.2041","3.30049","27.204","3.023","7.5","0.403","4.644","0.03","0.17","29.67","4.68765","32.52","0","SATNPRO1964","25.23","0.3534","5"],
    [55830,"HCEP03730563","2025-07-31 23:45:00","10.2053","3.30057","27.077","2.991","7.49","0.438","4.663","0.06","0.15","29.6699","4.68761","32.17","0","SATNPRO1964","25.483999999999998","0.35694","5"],
    [55831,"HCEP03730563","2025-08-01 00:00:00","10.2076","3.30053","26.937","3.023","7.5","0.4","3.891","0.05","0.14","29.6677","4.68724","32.52","0","SATNPRO1964","25.508","0.35726","5"],
    [55832,"HCEP03730563","2025-08-01 00:15:00","10.2058","3.30054","26.814","2.986","7.49","0.443","4.661","0.05","0.18","29.6693","4.68749","32.13","0","SATNPRO1964","25.21","0.3531","5"],
    [55833,"HCEP03730563","2025-08-01 00:30:00","10.2101","3.30068","26.67","2.952","7.49","0.401","3.768","0.04","0.18","29.6672","4.68711","31.76","0","SATNPRO1964","25.374","0.3554","5"],
    [55834,"HCEP03730563","2025-08-01 00:45:00","10.2199","3.30144","26.483","2.944","7.49","0.453","4.534","0.07","0.19","29.6669","4.6869","31.68","0","SATNPRO1964","24.87","0.34834","5"],
    [55835,"HCEP03730563","2025-08-01 01:00:00","10.2166","3.30117","26.34","2.938","7.49","0.429","4.575","0.05","0.16","29.6669","4.68695","31.61","0","SATNPRO1964","24.824","0.34774","5"],
    [55836,"HCEP03730563","2025-08-01 01:15:00","10.2122","3.30087","26.181","2.917","7.49","0.461","4.138","0.13","0.13","29.6676","4.68712","31.39","0","SATNPRO1964","24.97","0.34978","5"],
    [55837,"HCEP03730563","2025-08-01 01:30:00","10.2176","3.30123","26.016","2.919","7.49","0.425","4.283","0.07","0.14","29.6668","4.6869","31.41","0","SATNPRO1964","24.71","0.34606","5"],
    [55838,"HCEP03730563","2025-08-01 01:45:00","10.2252","3.30112","25.851","2.851","7.48","0.447","4.281","0.04","0.16","29.6596","4.68573","30.68","0","SATNPRO1964","24.632","0.34504","5"],
    [55839,"HCEP03730563","2025-08-01 02:00:00","10.2386","3.30283","25.702","2.788","7.48","0.483","4.675","0.14","0.39","29.6657","4.68638","30.02","0","SATNPRO1964","24.382","0.3415","5"],
    [55840,"HCEP03730563","2025-08-01 02:15:00","10.2449","3.30338","25.525","2.735","7.48","0.47","5.271","0.05","0.35","29.6661","4.68632","29.45","0","SATNPRO1964","24.148","0.33824","5"],
    [55841,"HCEP03730563","2025-08-01 02:30:00","10.2504","3.30388","25.411","2.743","7.47","0.438","5.19","0.05","0.29","29.6666","4.68629","29.53","0","SATNPRO1964","24.298000000000002","0.34034","5"],
    [55842,"HCEP03730563","2025-08-01 02:45:00","10.244","3.30321","25.305","2.745","7.47","0.47","5.131","0.09","0.11","29.6652","4.6862","29.56","0","SATNPRO1964","24.254","0.33974","5"],
    [55843,"HCEP03730563","2025-08-01 03:00:00","10.2601","3.30468","25.2","2.766","7.48","0.434","5.215","0.04","0.4","29.6668","4.68615","29.78","0","SATNPRO1964","24.3","0.34038","5"],
    [55844,"HCEP03730563","2025-08-01 03:15:00","10.2498","3.30382","25.123","2.812","7.48","0.443","4.8","0.05","0.23","29.6666","4.68629","30.27","0","SATNPRO1964","24.316","0.34058","5"],
    [55845,"HCEP03730563","2025-08-01 03:30:00","10.2633","3.30491","25.028","2.81","7.48","0.483","4.619","0.16","0.2","29.6665","4.68605","30.26","0","SATNPRO1964","24.544","0.3438","5"],
    [55846,"HCEP03730563","2025-08-01 03:45:00","10.2727","3.30581","24.967","2.87","7.48","0.471","4.183","0.11","0.47","29.6678","4.68607","30.92","0","SATNPRO1964","24.994","0.35008","5"],
    [55847,"HCEP03730563","2025-08-01 04:00:00","10.2856","3.30682","24.949","2.942","7.49","0.437","4.345","0.06","0.21","29.6673","4.68579","31.71","0","SATNPRO1964","24.982","0.34994","5"],
    [55848,"HCEP03730563","2025-08-01 04:15:00","10.2752","3.30602","24.955","2.955","7.49","0.505","4.436","0.24","0.13","29.6679","4.68604","31.84","0","SATNPRO1964","24.474","0.3428","5"],
    [55849,"HCEP03730563","2025-08-01 04:30:00","10.2757","3.30537","24.96","2.937","7.49","0.425","4.476","0.06","0.24","29.661","4.68506","31.64","0","SATNPRO1964","24.791999999999998","0.34724","5"],
    [55850,"HCEP03730563","2025-08-01 04:45:00","10.272","3.30567","24.979","2.888","7.49","0.484","4.398","0.1","0.19","29.667","4.68597","31.11","0","SATNPRO1964","24.784","0.34716","5"],
    [55851,"HCEP03730563","2025-08-01 05:00:00","10.2665","3.305","25.009","2.903","7.49","2.485","18.241","1.71","13.21","29.6648","4.68575","31.27","0","SATNPRO1964","24.614","0.34472","5"],
    [55852,"HCEP03730563","2025-08-01 05:15:00","10.2591","3.30437","25.027","2.871","7.49","0.465","4.386","0.08","0.25","29.6646","4.68584","30.92","0","SATNPRO1964","24.644","0.3452","5"],
    [55853,"HCEP03730563","2025-08-01 05:30:00","10.2276","3.30176","25.065","2.833","7.48","0.514","4.162","0.23","0.2","29.6644","4.68633","30.49","0","SATNPRO1964","24.84","0.34794","5"],
    [55854,"HCEP03730563","2025-08-01 05:45:00","10.2854","3.3069","25.146","2.965","7.49","0.443","3.405","0.04","0.27","29.6682","4.68593","31.95","0","SATNPRO1964","25.536","0.35768","5"],
    [55855,"HCEP03730563","2025-08-01 06:00:00","10.2315","3.3023","25.234","3.047","7.5","0.445","3.565","0.08","0.23","29.6665","4.68658","32.79","0","SATNPRO1964","24.916","0.34904","5"],
    [55856,"HCEP03730563","2025-08-01 06:15:00","10.2244","3.30189","25.281","2.911","7.49","0.491","4.686","0.07","0.23","29.6682","4.68694","31.33","0","SATNPRO1964","24.822","0.34768","5"],
    [55857,"HCEP03730563","2025-08-01 06:30:00","10.216","3.30142","25.355","2.889","7.49","0.44","5.74","0.06","0.49","29.6703","4.68739","31.09","0","SATNPRO1964","31.184","0.43678","5"],
    [55858,"HCEP03730563","2025-08-01 06:45:00","10.2002","3.30061","25.424","2.914","7.49","0.478","5.381","0.06","0.22","29.6752","4.68835","31.34","0","SATNPRO1964","24.144","0.33814","5"],
    [55859,"HCEP03730563","2025-08-01 07:00:00","10.1974","3.30053","25.516","2.944","7.49","0.451","5.344","0.06","0.28","29.6766","4.6886","31.67","0","SATNPRO1964","16.722","0.23426","5"],
    [55860,"HCEP03730563","2025-08-01 07:15:00","10.1956","3.30054","25.627","3.02","7.49","0.44","4.735","0.05","0.22","29.678","4.68884","32.48","0","SATNPRO1964","24.508","0.34332","5"],
    [55861,"HCEP03730563","2025-08-01 07:30:00","10.1931","3.3005","25.728","3.09","7.5","0.445","5.045","0.06","0.27","29.6797","4.68913","33.23","0","SATNPRO1964","21.942","0.30732","5"],
    [55862,"HCEP03730563","2025-08-01 07:45:00","10.1923","3.30033","25.795","3.066","7.5","0.477","5.629","0.08","0.29","29.6786","4.68899","32.98","0","SATNPRO1964","26.166","0.36652","5"],
    [55863,"HCEP03730563","2025-08-01 08:00:00","10.1929","3.30039","25.939","3.046","7.5","0.43","5.215","0.04","0.34","29.6787","4.689","32.76","0","SATNPRO1964","24.562","0.34402","5"],
    [55864,"HCEP03730563","2025-08-01 08:15:00","10.195","3.30092","26.055","3.097","7.5","0.419","4.935","0.04","0.47","29.6822","4.68947","33.31","0","SATNPRO1964","25.572","0.3582","5"],
    [55865,"HCEP03730563","2025-08-01 08:30:00","10.1962","3.30115","26.148","3.165","7.51","0.418","4.358","0.05","0.24","29.6834","4.68963","34.05","0","SATNPRO1964","26.51","0.37132","5"],
    [55866,"HCEP03730563","2025-08-01 08:45:00","10.1944","3.3009","26.246","3.154","7.51","0.451","5.167","0.08","0.28","29.6825","4.68953","33.93","0","SATNPRO1964","26.168","0.36654","5"],
    [55867,"HCEP03730563","2025-08-01 09:00:00","10.1954","3.30094","26.366","3.11","7.5","0.413","5.116","0.03","0.17","29.682","4.68945","33.45","0","SATNPRO1964","23.094","0.32348","5"],
    [55868,"HCEP03730563","2025-08-01 09:15:00","10.1979","3.30092","26.467","3.049","7.5","0.438","5.029","0.03","0.24","29.6797","4.68909","32.79","0","SATNPRO1964","26.07","0.36514","5"],
    [55869,"HCEP03730563","2025-08-01 09:30:00","10.204","3.30155","26.539","3.051","7.5","0.411","5.638","0.05","0.81","29.6809","4.68916","32.82","0","SATNPRO1964","26.428","0.37016","5"],
    [55870,"HCEP03730563","2025-08-01 09:45:00","10.2113","3.30184","26.616","3.054","7.5","0.443","4.596","0.06","0.15","29.6778","4.68861","32.86","0","SATNPRO1964","25.806","0.36146","5"],
    [55871,"HCEP03730563","2025-08-01 10:00:00","10.2218","3.30263","26.683","3.055","7.5","0.413","4.618","0.05","0.22","29.6771","4.68834","32.88","0","SATNPRO1964","26.362","0.36924","5"],
    [55872,"HCEP03730563","2025-08-01 10:15:00","10.2433","3.30389","26.771","3.145","7.5","0.508","5.002","0.06","0.51","29.672","4.68725","33.86","0","SATNPRO1964","25.842","0.36194","5"],
    [55873,"HCEP03730563","2025-08-01 10:30:00","10.235","3.30335","26.779","3.037","7.5","0.447","6.009","0.05","0.3","29.6734","4.68759","32.7","0","SATNPRO1964","26.518","0.37142","5"],
    [55874,"HCEP03730563","2025-08-01 10:45:00","10.2402","3.30382","26.807","3.002","7.5","0.49","5.743","0.09","0.27","29.6738","4.68756","32.32","0","SATNPRO1964","25.652","0.35932","5"],
    [55875,"HCEP03730563","2025-08-01 11:00:00","10.2644","3.30619","26.795","3.027","7.5","0.448","5.324","0.04","0.42","29.6777","4.68772","32.61","0","SATNPRO1964","25.482","0.3569","5"],
    [55876,"HCEP03730563","2025-08-01 11:15:00","10.2581","3.30539","26.808","3.034","7.5","0.482","5.714","0.03","0.21","29.6748","4.68741","32.68","0","SATNPRO1964","25.372","0.35536","5"],
    [55877,"HCEP03730563","2025-08-01 11:30:00","10.2475","3.30455","26.803","2.99","7.5","0.432","5.467","0.03","0.19","29.6751","4.68764","32.2","0","SATNPRO1964","25.252","0.35372","5"],
    [55878,"HCEP03730563","2025-08-01 11:45:00","10.2371","3.30349","26.789","2.948","7.49","0.472","5.865","0.06","0.21","29.6731","4.68752","31.74","0","SATNPRO1964","25.304000000000002","0.35442","5"],
    [55879,"HCEP03730563","2025-08-01 12:00:00","10.236","3.30344","26.786","2.917","7.49","0.445","5.826","0.05","0.24","29.6735","4.6876","31.4","0","SATNPRO1964","25.318","0.3546","5"],
    [55880,"HCEP03730563","2025-08-01 12:15:00","10.2373","3.27739","26.77","2.923","7.49","0.467","5.77","0.12","0.26","29.4135","4.65046","31.41","0","SATNPRO1964","25.232","0.35342","5"],
    [55881,"HCEP03730563","2025-08-01 12:30:00","10.2378","3.30353","26.743","2.925","7.49","0.462","5.469","0.1","0.19","29.673","4.68748","31.49","0","SATNPRO1964","25.514","0.35738","5"],
    [55882,"HCEP03730563","2025-08-01 12:45:00","10.2399","3.30372","26.713","2.939","7.49","0.436","5.118","0.04","0.21","29.6732","4.68748","31.64","0","SATNPRO1964","26.328","0.36876","5"],
    [55883,"HCEP03730563","2025-08-01 13:00:00","10.2372","3.3035","26.695","2.957","7.49","0.769","5.913","1.07","3.22","29.6732","4.68753","31.83","0","SATNPRO1964","25.904","0.36286","5"],
    [55884,"HCEP03730563","2025-08-01 13:15:00","10.2184","3.3023","26.654","2.991","7.49","0.422","4.797","0.06","0.3","29.6766","4.68832","32.18","0","SATNPRO1964","26.105999999999998","0.36566","5"],
    [55885,"HCEP03730563","2025-08-01 13:30:00","10.2159","3.30208","26.627","3.017","7.5","0.38","4.493","0.03","0.16","29.6765","4.68834","32.46","0","SATNPRO1964","26.316","0.36862","5"],
    [55886,"HCEP03730563","2025-08-01 13:45:00","10.2069","3.3017","26.602","3.032","7.5","0.426","4.956","0.05","0.39","29.68","4.689","32.62","0","SATNPRO1964","26.474","0.37082","5"],
    [55887,"HCEP03730563","2025-08-01 14:00:00","10.2029","3.30161","26.538","3.068","7.5","0.413","4.905","0.04","0.19","29.6825","4.68941","33","0","SATNPRO1964","26.596","0.37254","5"],
    [55888,"HCEP03730563","2025-08-01 14:15:00","10.2028","3.30211","26.534","3.136","7.5","0.453","5.498","0.04","0.26","29.6875","4.69013","33.74","0","SATNPRO1964","26.694","0.37392","5"],
    [55889,"HCEP03730563","2025-08-01 14:30:00","10.2036","3.30278","26.49","3.231","7.51","1.081","8.51","0.57","1.31","29.6935","4.69097","34.76","0","SATNPRO1964","27.346","0.38302","5"],
    [55890,"HCEP03730563","2025-08-01 14:45:00","10.2047","3.30282","26.452","3.31","7.52","0.392","4.18","0.04","0.29","29.693","4.69087","35.61","0","SATNPRO1964","27.304","0.38246","5"],
    [55891,"HCEP03730563","2025-08-01 15:00:00","10.2048","3.30323","26.452","3.36","7.52","0.408","4.618","0.03","0.24","29.697","4.69145","36.15","0","SATNPRO1964","27.35","0.3831","5"],
    [55892,"HCEP03730563","2025-08-01 15:15:00","10.2046","3.30333","26.412","3.395","7.53","0.421","4.647","0.05","0.54","29.6982","4.69162","36.53","0","SATNPRO1964","27.34","0.3829","5"],
    [55893,"HCEP03730563","2025-08-01 15:30:00","10.2046","3.3033","26.419","3.403","7.53","0.379","3.893","0.03","0.2","29.6979","4.69158","36.61","0","SATNPRO1964","27.432","0.38422","5"],
    [55894,"HCEP03730563","2025-08-01 15:45:00","10.2054","3.3032","26.384","3.436","7.53","0.419","3.727","0.08","0.19","29.6962","4.69132","36.98","0","SATNPRO1964","27.44","0.38436","5"],
    [55895,"HCEP03730563","2025-08-01 16:00:00","10.2048","3.30338","26.392","3.437","7.53","0.428","4.255","0.12","0.25","29.6985","4.69165","36.98","0","SATNPRO1964","27.77","0.389","5"],
    [55896,"HCEP03730563","2025-08-01 16:15:00","10.2047","3.30347","26.406","3.409","7.53","0.41","4.386","0.04","0.18","29.6996","4.69181","36.68","0","SATNPRO1964","27.55","0.38588","5"],
    [55897,"HCEP03730563","2025-08-01 16:30:00","10.205","3.30342","26.42","3.387","7.53","0.396","4.373","0.04","0.28","29.6988","4.6917","36.44","0","SATNPRO1964","27.291999999999998","0.38228","5"],
    [55898,"HCEP03730563","2025-08-01 16:45:00","10.2045","3.30308","26.462","3.375","7.53","0.4","4.267","0.02","0.19","29.6958","4.69128","36.32","0","SATNPRO1964","27.35","0.38308","5"],
    [55899,"HCEP03730563","2025-08-01 17:00:00","10.2048","3.303","26.488","3.346","7.53","0.394","4.353","0.03","0.21","29.6948","4.69113","36.01","0","SATNPRO1964","27.144","0.3802","5"],
    [55900,"HCEP03730563","2025-08-01 17:15:00","10.2058","3.29507","26.534","3.317","7.53","0.436","4.287","0.05","0.61","29.6149","4.67972","35.67","0","SATNPRO1964","27.216","0.3812","5"],
    [55901,"HCEP03730563","2025-08-01 17:30:00","10.2069","3.30226","26.576","3.279","7.52","0.453","3.391","0.17","0.31","29.6856","4.6898","35.28","0","SATNPRO1964","27.068","0.37914","5"],
    [55902,"HCEP03730563","2025-08-01 17:45:00","10.2048","3.30295","26.661","3.285","7.52","0.398","4.155","0.03","0.18","29.6942","4.69105","35.35","0","SATNPRO1964","27.381999999999998","0.3835","5"],
    [55903,"HCEP03730563","2025-08-01 18:00:00","10.2047","3.30319","26.681","3.311","7.52","0.395","6.605","0.04","2.22","29.6967","4.69141","35.62","0","SATNPRO1964","27.322","0.38272","5"],
    [55904,"HCEP03730563","2025-08-01 18:15:00","10.2048","3.30322","26.717","3.323","7.53","0.463","4.406","0.07","0.26","29.6969","4.69144","35.76","0","SATNPRO1964","27.401999999999997","0.3838","5"],
    [55905,"HCEP03730563","2025-08-01 18:30:00","10.2052","3.30123","26.812","3.336","7.53","0.388","3.911","0.05","0.23","29.6767","4.68856","35.89","0","SATNPRO1964","27.306","0.38248","5"],
    [55906,"HCEP03730563","2025-08-01 18:45:00","10.2061","3.30306","26.88","3.351","7.53","0.429","3.514","0.1","0.42","29.6941","4.69103","36.05","0","SATNPRO1964","27.468","0.38474","5"],
    [55907,"HCEP03730563","2025-08-01 19:00:00","10.2069","3.30288","26.948","3.362","7.53","0.391","3.469","0.05","0.36","29.6916","4.69067","36.18","0","SATNPRO1964","27.35","0.38308","5"],
    [55908,"HCEP03730563","2025-08-01 19:15:00","10.2073","3.30266","27.012","3.373","7.53","0.409","3.264","0.07","0.45","29.6891","4.6903","36.3","0","SATNPRO1964","27.408","0.38388","5"],
    [55909,"HCEP03730563","2025-08-01 19:30:00","10.2123","3.3026","27.104","3.365","7.53","0.382","2.976","0.06","0.23","29.6843","4.68955","36.21","0","SATNPRO1964","27.208","0.38106","5"],
    [55910,"HCEP03730563","2025-08-01 19:45:00","10.2149","3.30275","27.226","3.366","7.53","0.386","2.661","0.04","0.28","29.6837","4.68942","36.22","0","SATNPRO1964","27.17","0.38056","5"],
    [55911,"HCEP03730563","2025-08-01 20:00:00","10.2108","3.3027","27.24","3.388","7.53","0.433","3.302","0.1","1.08","29.6865","4.68989","36.45","0","SATNPRO1964","26.938","0.37734","5"],
    [55912,"HCEP03730563","2025-08-01 20:15:00","10.2182","3.30269","27.251","3.274","7.52","0.417","3.21","0.04","0.13","29.6804","4.68889","35.24","0","SATNPRO1964","26.69","0.37382","5"],
    [55913,"HCEP03730563","2025-08-01 20:30:00","10.222","3.27059","27.341","3.194","7.52","0.374","3.112","0.03","0.12","29.358","4.64282","34.31","0","SATNPRO1964","26.534","0.37162","5"],
    [55914,"HCEP03730563","2025-08-01 20:45:00","10.2238","3.2794","27.374","3.189","7.51","0.398","3.139","0.02","0.09","29.4441","4.6551","34.27","0","SATNPRO1964","26.716","0.3742","5"],
    [55915,"HCEP03730563","2025-08-01 21:00:00","10.2203","3.24464","27.408","3.19","7.51","0.37","3.421","0.03","0.44","29.1015","4.6062","34.2","0","SATNPRO1964","26.445999999999998","0.37044","5"],
    [55916,"HCEP03730563","2025-08-01 21:15:00","10.2308","3.30339","27.435","3.154","7.51","0.416","3.445","0.04","0.15","29.6769","4.68821","33.95","0","SATNPRO1964","26.074","0.36522","5"],
    [55917,"HCEP03730563","2025-08-01 21:30:00","10.2425","3.30426","27.475","3.108","7.51","0.399","3.248","0.03","0.08","29.676","4.68788","33.47","0","SATNPRO1964","26.088","0.3654","5"],
    [55918,"HCEP03730563","2025-08-01 21:45:00","10.2321","3.30363","27.491","3.115","7.51","0.442","3.672","0.05","0.1","29.6783","4.68838","33.53","0","SATNPRO1964","26.352","0.3691","5"],
    [55919,"HCEP03730563","2025-08-01 22:00:00","10.2435","3.30444","27.49","3.132","7.51","0.433","3.725","0.04","0.28","29.677","4.68801","33.73","0","SATNPRO1964","26.381999999999998","0.36952","5"],
    [55920,"HCEP03730563","2025-08-01 22:15:00","10.2189","3.30296","27.488","3.125","7.51","0.484","4.538","0.05","0.12","29.6824","4.68919","33.63","0","SATNPRO1964","26.432","0.3702","5"],
    [55921,"HCEP03730563","2025-08-01 22:30:00","10.2157","3.30285","27.437","3.095","7.51","0.452","4.441","0.12","0.1","29.6839","4.68945","33.3","0","SATNPRO1964","26.188","0.36682","5"],
    [55922,"HCEP03730563","2025-08-01 22:45:00","10.2147","3.24857","27.442","3.094","7.5","0.465","4.529","0.04","0.14","29.1451","4.61253","33.18","0","SATNPRO1964","26.284","0.36814","5"],
    [55923,"HCEP03730563","2025-08-01 23:00:00","10.2166","3.30288","27.408","3.059","7.5","0.516","28.978","0.06","10.59","29.6836","4.68938","32.92","0","SATNPRO1964","26.036","0.3647","5"],
    [55924,"HCEP03730563","2025-08-01 23:15:00","10.2169","3.30292","27.353","3.02","7.5","0.462","4.982","0.05","0.14","29.6836","4.68938","32.5","0","SATNPRO1964","25.91","0.36286","5"],
    [55925,"HCEP03730563","2025-08-01 23:30:00","10.2203","3.30314","27.282","3.001","7.5","0.468","4.694","0.18","0.09","29.6831","4.68925","32.3","0","SATNPRO1964","25.748","0.36064","5"],
    [55926,"HCEP03730563","2025-08-01 23:45:00","10.2193","3.30313","27.195","3.003","7.5","0.485","5.36","0.06","0.98","29.6839","4.68938","32.32","0","SATNPRO1964","25.984","0.36396","5"],
    [55927,"HCEP03730563","2025-08-02 00:00:00","10.219","3.30311","27.092","2.996","7.5","0.459","4.757","0.04","0.13","29.684","4.68939","32.25","0","SATNPRO1964","25.926","0.36316","5"],
    [55928,"HCEP03730563","2025-08-02 00:15:00","10.2184","3.30308","26.978","3.007","7.5","0.473","5.148","0.04","0.61","29.6842","4.68942","32.36","0","SATNPRO1964","25.94","0.36338","5"],
    [55929,"HCEP03730563","2025-08-02 00:30:00","10.2198","3.30319","26.871","3.028","7.5","0.48","5.727","0.09","1.35","29.6842","4.6894","32.59","0","SATNPRO1964","26.006","0.36424","5"],
    [55930,"HCEP03730563","2025-08-02 00:45:00","10.2199","3.30322","26.718","3.065","7.5","0.449","4.382","0.05","0.22","29.6844","4.68941","32.98","0","SATNPRO1964","26.216","0.36722","5"],
    [55931,"HCEP03730563","2025-08-02 01:00:00","10.2209","3.3033","26.576","3.09","7.5","0.43","4.017","0.05","0.13","29.6845","4.6894","33.26","0","SATNPRO1964","26.118","0.36578","5"],
    [55932,"HCEP03730563","2025-08-02 01:15:00","10.219","3.3032","26.462","3.091","7.5","0.465","4.39","0.09","0.23","29.6851","4.68952","33.27","0","SATNPRO1964","26.05","0.36486","5"],
    [55933,"HCEP03730563","2025-08-02 01:30:00","10.2203","3.30325","26.293","3.088","7.5","0.414","3.88","0.03","0.12","29.6846","4.68941","33.23","0","SATNPRO1964","26.09","0.36542","5"],
    [55934,"HCEP03730563","2025-08-02 01:45:00","10.2209","3.30329","26.138","3.098","7.5","0.426","3.641","0.03","0.12","29.6846","4.68939","33.34","0","SATNPRO1964","26.148","0.36626","5"],
    [55935,"HCEP03730563","2025-08-02 02:00:00","10.2193","3.3032","25.999","3.091","7.5","0.432","4","0.04","0.12","29.6851","4.68948","33.27","0","SATNPRO1964","25.908","0.36288","5"],
    [55936,"HCEP03730563","2025-08-02 02:15:00","10.218","3.30307","25.866","3.073","7.5","0.446","4.425","0.03","0.37","29.6849","4.68946","33.07","0","SATNPRO1964","25.838","0.36192","5"],
    [55937,"HCEP03730563","2025-08-02 02:30:00","10.2167","3.303","25.69","3.036","7.5","0.421","4.379","0.03","0.37","29.6853","4.68954","32.67","0","SATNPRO1964","25.864","0.3623","5"],
    [55938,"HCEP03730563","2025-08-02 02:45:00","10.215","3.30289","25.54","3.024","7.5","0.449","4.727","0.04","0.4","29.6857","4.68961","32.54","0","SATNPRO1964","26.116","0.36576","5"],
    [55939,"HCEP03730563","2025-08-02 03:00:00","10.2142","3.30284","25.415","2.991","7.5","0.433","5.374","0.03","0.32","29.6859","4.68964","32.19","0","SATNPRO1964","25.708","0.36006","5"],
    [55940,"HCEP03730563","2025-08-02 03:15:00","10.2104","3.30272","25.28","3.001","7.5","0.44","4.666","0.04","0.23","29.6879","4.68998","32.3","0","SATNPRO1964","25.988","0.36402","5"],
    [55941,"HCEP03730563","2025-08-02 03:30:00","10.2041","3.30258","25.187","3.038","7.5","0.453","4.327","0.09","0.13","29.6916","4.69062","32.68","0","SATNPRO1964","26.064","0.36502","5"],
    [55942,"HCEP03730563","2025-08-02 03:45:00","10.203","3.30262","25.075","3.06","7.5","0.573","3.805","0.2","0.24","29.693","4.69083","32.92","0","SATNPRO1964","26.172","0.3666","5"],
    [55943,"HCEP03730563","2025-08-02 04:00:00","10.1997","3.30244","24.992","3.101","7.5","0.432","3.879","0.05","0.23","29.6939","4.69101","33.36","0","SATNPRO1964","26.618","0.37284","5"],
    [55944,"HCEP03730563","2025-08-02 04:15:00","10.2045","3.30249","24.939","3.141","7.51","2.807","65.25","0.77","18.01","29.6905","4.69043","33.79","0","SATNPRO1964","26.253999999999998","0.36772","5"],
    [55945,"HCEP03730563","2025-08-02 04:30:00","10.2052","3.30256","24.871","3.115","7.51","0.407","3.603","0.04","0.14","29.6907","4.69044","33.51","0","SATNPRO1964","26.1","0.36554","5"],
    [55946,"HCEP03730563","2025-08-02 04:45:00","10.2028","3.30247","24.863","3.073","7.5","0.458","4.171","0.09","0.16","29.6918","4.69064","33.06","0","SATNPRO1964","26.088","0.36542","5"],
    [55947,"HCEP03730563","2025-08-02 05:00:00","10.1966","3.30216","24.868","3.123","7.51","0.423","4.151","0.04","0.19","29.6937","4.69102","33.59","0","SATNPRO1964","26.86","0.37618","5"],
    [55948,"HCEP03730563","2025-08-02 05:15:00","10.195","3.30216","24.875","3.217","7.51","0.443","4.151","0.03","0.15","29.695","4.69122","34.61","0","SATNPRO1964","26.79","0.37522","5"],
    [55949,"HCEP03730563","2025-08-02 05:30:00","10.1931","3.30236","24.848","3.227","7.51","0.423","3.889","0.06","0.11","29.6986","4.69177","34.71","0","SATNPRO1964","26.428","0.37016","5"],
    [55950,"HCEP03730563","2025-08-02 05:45:00","10.1937","3.30276","24.894","3.224","7.51","0.438","5.086","0.02","0.41","29.702","4.69225","34.68","0","SATNPRO1964","26.718","0.37426","5"],
    [55951,"HCEP03730563","2025-08-02 06:00:00","10.1956","3.30333","24.902","3.21","7.51","0.417","4.205","0.05","0.14","29.7062","4.69281","34.54","0","SATNPRO1964","26.68","0.3737","5"],
    [55952,"HCEP03730563","2025-08-02 06:15:00","10.2004","3.30418","24.938","3.253","7.52","0.448","4.313","0.06","0.24","29.7107","4.69339","35.01","0","SATNPRO1964","26.912","0.37692","5"],
    [55953,"HCEP03730563","2025-08-02 06:30:00","10.2059","3.30489","24.986","3.325","7.52","0.434","4.577","0.05","0.2","29.7133","4.69367","35.79","0","SATNPRO1964","27.16","0.38038","5"],
    [55954,"HCEP03730563","2025-08-02 06:45:00","10.2135","3.30597","25.05","3.401","7.53","0.408","4.108","0.03","0.26","29.7178","4.69419","36.6","0","SATNPRO1964","27.61","0.3867","5"],
    [55955,"HCEP03730563","2025-08-02 07:00:00","10.2127","3.30575","25.098","3.481","7.53","0.406","4.449","0.04","0.27","29.7161","4.69396","37.46","0","SATNPRO1964","27.278","0.38206","5"],
    [55956,"HCEP03730563","2025-08-02 07:15:00","10.2037","3.30462","25.177","3.428","7.53","0.442","4.661","0.05","0.21","29.7123","4.69357","36.89","0","SATNPRO1964","27.14","0.38014","5"],
    [55957,"HCEP03730563","2025-08-02 07:30:00","10.1961","3.30338","25.257","3.298","7.53","0.439","4.822","0.05","0.35","29.7061","4.69281","35.49","0","SATNPRO1964","26.69","0.37382","5"],
    [55958,"HCEP03730563","2025-08-02 07:45:00","10.193","3.30301","25.366","3.203","7.52","0.514","7.329","0.09","3.72","29.7049","4.69271","34.46","0","SATNPRO1964","26.722","0.3743","5"],
    [55959,"HCEP03730563","2025-08-02 08:00:00","10.1927","3.30233","25.45","3.21","7.52","0.432","3.617","0.06","0.14","29.6984","4.69179","34.53","0","SATNPRO1964","26.73","0.37438","5"],
    [55960,"HCEP03730563","2025-08-02 08:15:00","10.1975","3.30183","25.567","3.312","7.52","0.458","4.258","0.04","0.36","29.6894","4.69042","35.63","0","SATNPRO1964","26.682","0.37372","5"],
    [55961,"HCEP03730563","2025-08-02 08:30:00","10.2098","3.30278","25.694","3.319","7.52","0.501","5.171","0.09","0.37","29.6888","4.69014","35.72","0","SATNPRO1964","26.408","0.36988","5"],
    [55962,"HCEP03730563","2025-08-02 08:45:00","10.2169","3.30334","25.824","3.261","7.52","0.503","4.875","0.05","0.22","29.6885","4.68999","35.09","0","SATNPRO1964","26.772","0.37496","5"],
    [55963,"HCEP03730563","2025-08-02 09:00:00","10.2292","3.30425","25.948","3.367","7.53","0.445","4.237","0.04","0.29","29.6875","4.68965","36.24","0","SATNPRO1964","27.216","0.38122","5"],
    [55964,"HCEP03730563","2025-08-02 09:15:00","10.2414","3.30548","26.026","3.471","7.53","0.493","4.538","0.06","0.32","29.6897","4.68977","37.37","0","SATNPRO1964","27.14","0.38012","5"],
    [55965,"HCEP03730563","2025-08-02 09:30:00","10.2496","3.3062","26.131","3.516","7.54","0.467","4.131","0.05","0.27","29.69","4.68969","37.86","0","SATNPRO1964","27.32","0.38268","5"],
    [55966,"HCEP03730563","2025-08-02 09:45:00","10.2436","3.30587","26.244","3.531","7.54","0.487","4.216","0.1","0.3","29.6917","4.69004","38.02","0","SATNPRO1964","27.272000000000002","0.38196","5"],
    [55967,"HCEP03730563","2025-08-02 10:00:00","10.2414","3.30576","26.372","3.533","7.54","0.452","4.616","0.06","0.45","29.6924","4.69018","38.04","0","SATNPRO1964","27.31","0.3825","5"],
    [55968,"HCEP03730563","2025-08-02 10:15:00","10.2383","3.3056","26.497","3.52","7.54","0.488","5.056","0.07","0.35","29.6932","4.69035","37.9","0","SATNPRO1964","27.214000000000002","0.38118","5"],
    [55969,"HCEP03730563","2025-08-02 10:30:00","10.2279","3.30486","26.6","3.505","7.54","0.468","4.474","0.06","0.21","29.6942","4.69068","37.73","0","SATNPRO1964","27.414","0.384","5"],
    [55970,"HCEP03730563","2025-08-02 10:45:00","10.2034","3.30346","26.724","3.412","7.54","0.476","5.19","0.04","0.33","29.7004","4.69196","36.71","0","SATNPRO1964","27.214000000000002","0.38114","5"],
    [55971,"HCEP03730563","2025-08-02 11:00:00","10.2045","3.30402","26.798","3.321","7.53","0.443","5.131","0.03","0.24","29.705","4.69261","35.74","0","SATNPRO1964","27.074","0.37922","5"],
    [55972,"HCEP03730563","2025-08-02 11:15:00","10.2051","3.30363","26.842","3.35","7.53","0.425","3.891","0.03","0.18","29.7007","4.69198","36.04","0","SATNPRO1964","27.282","0.38212","5"],
    [55973,"HCEP03730563","2025-08-02 11:30:00","10.2028","3.30369","26.847","3.378","7.53","0.449","5.022","0.04","0.27","29.7032","4.69238","36.34","0","SATNPRO1964","27.068","0.37916","5"],
    [55974,"HCEP03730563","2025-08-02 11:45:00","10.2033","3.30376","26.914","3.343","7.53","0.457","4.77","0.04","0.26","29.7033","4.69239","35.97","0","SATNPRO1964","27.221999999999998","0.38132","5"],
    [55975,"HCEP03730563","2025-08-02 12:00:00","10.2028","3.30376","26.954","3.331","7.53","0.484","5.097","0.15","0.26","29.7037","4.69247","35.83","0","SATNPRO1964","27.184","0.38074","5"],
    [55976,"HCEP03730563","2025-08-02 12:15:00","10.2023","3.30369","26.968","3.314","7.53","0.468","4.651","0.04","0.19","29.7035","4.69244","35.66","0","SATNPRO1964","27.086","0.37942","5"],
    [55977,"HCEP03730563","2025-08-02 12:30:00","10.2017","3.3037","27.008","3.307","7.53","0.454","4.978","0.08","0.26","29.704","4.69253","35.58","0","SATNPRO1964","27.044","0.37876","5"],
    [55978,"HCEP03730563","2025-08-02 12:45:00","10.2019","3.3037","26.985","3.293","7.52","0.468","4.828","0.06","0.18","29.7039","4.6925","35.43","0","SATNPRO1964","27.258","0.38178","5"],
    [55979,"HCEP03730563","2025-08-02 13:00:00","10.2021","3.30379","27.018","3.292","7.52","0.487","5.164","0.11","0.27","29.7045","4.69259","35.42","0","SATNPRO1964","27.222","0.38124","5"],
    [55980,"HCEP03730563","2025-08-02 13:15:00","10.2068","3.30434","27.03","3.335","7.53","0.45","4.709","0.05","0.4","29.7063","4.69276","35.89","0","SATNPRO1964","27.43","0.38422","5"],
    [55981,"HCEP03730563","2025-08-02 13:30:00","10.2083","3.30466","27.019","3.395","7.53","0.443","5.065","0.05","0.18","29.7082","4.69301","36.53","0","SATNPRO1964","27.546","0.3858","5"],
    [55982,"HCEP03730563","2025-08-02 13:45:00","10.2123","3.30556","26.981","3.431","7.53","0.494","4.959","0.3","0.26","29.7138","4.69375","36.93","0","SATNPRO1964","27.63","0.38702","5"],
    [55983,"HCEP03730563","2025-08-02 14:00:00","10.2171","3.30631","26.988","3.468","7.54","0.415","5.474","0.04","0.28","29.7174","4.69419","37.33","0","SATNPRO1964","27.752","0.3887","5"],
    [55984,"HCEP03730563","2025-08-02 14:15:00","10.2243","3.30746","26.955","3.507","7.54","0.466","5.731","0.05","0.38","29.723","4.69486","37.76","0","SATNPRO1964","27.896","0.39072","5"],
    [55985,"HCEP03730563","2025-08-02 14:30:00","10.2307","3.30836","26.921","3.558","7.55","0.426","4.873","0.12","0.25","29.7268","4.69529","38.32","0","SATNPRO1964","28.114","0.39378","5"],
    [55986,"HCEP03730563","2025-08-02 14:45:00","10.2328","3.30873","26.901","3.603","7.55","0.412","5.285","0.04","0.57","29.7287","4.69553","38.79","0","SATNPRO1964","28.34","0.39696","5"],
    [55987,"HCEP03730563","2025-08-02 15:00:00","10.239","3.30976","26.878","3.644","7.55","0.372","4.329","0.02","0.32","29.7338","4.69615","39.25","0","SATNPRO1964","28.21","0.39514","5"],
    [55988,"HCEP03730563","2025-08-02 15:15:00","10.2412","3.30995","26.857","3.713","7.56","0.371","3.014","0.03","0.09","29.734","4.69613","39.99","0","SATNPRO1964","28.448","0.39846","5"],
    [55989,"HCEP03730563","2025-08-02 15:30:00","10.2288","3.30776","26.813","3.713","7.56","0.387","3.251","0.11","0.83","29.7223","4.69468","39.98","0","SATNPRO1964","28.364","0.39726","5"],
    [55990,"HCEP03730563","2025-08-02 15:45:00","10.215","3.30571","26.77","3.625","7.56","0.404","3.88","0.06","0.41","29.7133","4.69361","39.02","0","SATNPRO1964","28.504","0.39926","5"],
    [55991,"HCEP03730563","2025-08-02 16:00:00","10.2161","3.30608","26.749","3.562","7.55","0.393","3.753","0.11","0.11","29.716","4.69398","38.33","0","SATNPRO1964","28.054","0.39296","5"],
    [55992,"HCEP03730563","2025-08-02 16:15:00","10.2137","3.30565","26.751","3.534","7.55","0.376","3.827","0.03","0.21","29.7137","4.6937","38.04","0","SATNPRO1964","27.894","0.3907","5"],
    [55993,"HCEP03730563","2025-08-02 16:30:00","10.21","3.3051","26.747","3.5","7.55","0.373","3.851","0.05","0.16","29.7113","4.69342","37.67","0","SATNPRO1964","27.848","0.39004","5"],
    [55994,"HCEP03730563","2025-08-02 16:45:00","10.2045","3.30422","26.746","3.462","7.54","0.406","3.681","0.08","0.18","29.707","4.6929","37.26","0","SATNPRO1964","27.612","0.38676","5"],
    [55995,"HCEP03730563","2025-08-02 17:00:00","10.2027","3.30389","26.717","3.43","7.54","1.417","18.624","2.31","27.29","29.7052","4.69267","36.9","0","SATNPRO1964","27.508","0.3853","5"],
    [55996,"HCEP03730563","2025-08-02 17:15:00","10.2088","3.30439","26.767","3.469","7.54","1.735","51.386","1.16","29.56","29.7051","4.69255","37.33","0","SATNPRO1964","27.818","0.38964","5"],
    [55997,"HCEP03730563","2025-08-02 17:30:00","10.2132","3.30475","26.743","3.569","7.55","0.353","3.103","0.03","0.42","29.7052","4.69249","38.41","0","SATNPRO1964","28.157999999999998","0.39438","5"],
    [55998,"HCEP03730563","2025-08-02 17:45:00","10.2198","3.30524","26.761","3.643","7.55","0.375","2.331","0.1","0.06","29.7047","4.69231","39.21","0","SATNPRO1964","28.32","0.39668","5"],
    [55999,"HCEP03730563","2025-08-02 18:00:00","10.2175","3.30498","26.778","3.668","7.55","0.566","4.15","0.1","1.13","29.7039","4.69224","39.48","0","SATNPRO1964","28.056","0.39302","5"],
    [56000,"HCEP03730563","2025-08-02 18:15:00","10.221","3.30561","26.807","3.662","7.56","0.355","2.635","0.03","0.58","29.7073","4.69267","39.42","0","SATNPRO1964","28.67","0.40156","5"],
    [56001,"HCEP03730563","2025-08-02 18:30:00","10.236","3.30661","26.831","3.813","7.57","0.363","1.973","0.07","0.08","29.705","4.69209","41.06","0","SATNPRO1964","28.458","0.39862","5"],
    [56002,"HCEP03730563","2025-08-02 18:45:00","10.2418","3.30693","26.855","3.979","7.58","0.369","1.676","0.08","0.09","29.7035","4.69178","42.84","0","SATNPRO1964","29.349999999999998","0.41108","5"],
    [56003,"HCEP03730563","2025-08-02 19:00:00","10.2367","3.30554","26.874","4.019","7.59","0.318","1.217","0.06","0.05","29.6937","4.69048","43.28","0","SATNPRO1964","29.206","0.4091","5"],
    [56004,"HCEP03730563","2025-08-02 19:15:00","10.233","3.30483","26.918","3.955","7.58","0.319","1.266","0.04","0.05","29.6897","4.68997","42.58","0","SATNPRO1964","28.876","0.40448","5"],
    [56005,"HCEP03730563","2025-08-02 19:30:00","10.2393","3.30598","26.965","3.965","7.58","0.341","1.339","0.09","0.11","29.696","4.69076","42.69","0","SATNPRO1964","29.322","0.41072","5"],
    [56006,"HCEP03730563","2025-08-02 19:45:00","10.2348","3.30538","26.996","3.985","7.59","0.348","1.299","0.1","0.11","29.6937","4.69051","42.9","0","SATNPRO1964","29.012","0.40636","5"],
    [56007,"HCEP03730563","2025-08-02 20:00:00","10.2343","3.30558","27.03","3.942","7.58","0.322","1.223","0.1","0.07","29.6961","4.69086","42.44","0","SATNPRO1964","28.95","0.40548","5"],
    [56008,"HCEP03730563","2025-08-02 20:15:00","10.2268","3.30439","27.057","3.901","7.58","0.347","1.649","0.08","0.69","29.6903","4.69016","41.99","0","SATNPRO1964","28.766000000000002","0.40292","5"],
    [56009,"HCEP03730563","2025-08-02 20:30:00","10.231","3.30517","27.106","3.852","7.58","0.362","1.627","0.19","0.31","29.6947","4.69071","41.47","0","SATNPRO1964","28.824","0.40374","5"],
    [56010,"HCEP03730563","2025-08-02 20:45:00","10.2306","3.30548","27.119","3.856","7.58","0.369","1.857","0.08","0.24","29.6981","4.69121","41.51","0","SATNPRO1964","28.74","0.40256","5"],
    [56011,"HCEP03730563","2025-08-02 21:00:00","10.2279","3.30529","27.169","3.853","7.58","0.34","2.091","0.06","0.11","29.6984","4.69129","41.47","0","SATNPRO1964","28.672","0.4016","5"],
    [56012,"HCEP03730563","2025-08-02 21:15:00","10.2276","3.30504","27.182","3.825","7.57","0.342","1.85","0.03","0.12","29.6961","4.69098","41.18","0","SATNPRO1964","28.706","0.40208","5"],
    [56013,"HCEP03730563","2025-08-02 21:30:00","10.2287","3.30546","27.193","3.83","7.57","0.352","1.971","0.11","0.06","29.6994","4.69143","41.23","0","SATNPRO1964","28.55","0.39986","5"],
    [56014,"HCEP03730563","2025-08-02 21:45:00","10.2262","3.30537","27.266","3.838","7.57","0.36","2.024","0.06","0.17","29.7004","4.69163","41.31","0","SATNPRO1964","28.552","0.3999","5"],
    [56015,"HCEP03730563","2025-08-02 22:00:00","10.2196","3.305","27.235","3.774","7.57","0.37","2.096","0.06","0.07","29.7022","4.69198","40.62","0","SATNPRO1964","28.316","0.3966","5"],
    [56016,"HCEP03730563","2025-08-02 22:15:00","10.2292","3.3084","27.274","3.415","7.55","0.528","8.503","0.04","0.79","29.7282","4.69553","36.77","0","SATNPRO1964","26.852","0.37612","5"],
    [56017,"HCEP03730563","2025-08-02 22:30:00","10.2404","3.31012","27.293","3.282","7.54","0.492","6.376","0.12","0.34","29.7361","4.69648","35.35","0","SATNPRO1964","27.95","0.39146","5"],
    [56018,"HCEP03730563","2025-08-02 22:45:00","10.2438","3.31063","27.295","3.453","7.54","0.446","5.702","0.04","0.3","29.7384","4.69675","37.19","0","SATNPRO1964","28.02","0.3925","5"],
    [56019,"HCEP03730563","2025-08-02 23:00:00","10.2447","3.31098","27.27","3.514","7.55","0.433","5.621","0.05","0.2","29.7412","4.69713","37.86","0","SATNPRO1964","27.956","0.39156","5"],
    [56020,"HCEP03730563","2025-08-02 23:15:00","10.2463","3.3112","27.238","3.503","7.55","0.739","16.07","0.67","23.47","29.7421","4.69723","37.74","0","SATNPRO1964","28.178","0.39474","5"],
    [56021,"HCEP03730563","2025-08-02 23:30:00","10.2497","3.31175","27.206","3.557","7.55","0.402","4.338","0.05","0.18","29.7448","4.69756","38.32","0","SATNPRO1964","28.586","0.40036","5"],
    [56022,"HCEP03730563","2025-08-02 23:45:00","10.2477","3.31142","27.163","3.599","7.55","0.44","5.303","0.03","0.16","29.7432","4.69735","38.77","0","SATNPRO1964","28.252","0.39574","5"],
    [56023,"HCEP03730563","2025-08-03 00:00:00","10.2483","3.31151","27.108","3.556","7.55","0.398","5.126","0.03","0.18","29.7435","4.69739","38.31","0","SATNPRO1964","28.372","0.39744","5"],
    [56024,"HCEP03730563","2025-08-03 00:15:00","10.2487","3.31156","27.05","3.582","7.55","0.407","4.871","0.03","0.28","29.7438","4.69743","38.59","0","SATNPRO1964","28.456","0.39864","5"],
    [56025,"HCEP03730563","2025-08-03 00:30:00","10.2498","3.3117","26.964","3.598","7.55","0.394","4.609","0.04","0.68","29.7443","4.69747","38.77","0","SATNPRO1964","28.466","0.39874","5"],
    [56026,"HCEP03730563","2025-08-03 00:45:00","10.2489","3.31149","26.864","3.615","7.56","0.4","3.919","0.05","0.17","29.7429","4.69729","38.95","0","SATNPRO1964","28.81","0.40354","5"],
    [56027,"HCEP03730563","2025-08-03 01:00:00","10.2482","3.31132","26.768","3.602","7.56","0.376","4.3","0.03","0.23","29.7419","4.69715","38.81","0","SATNPRO1964","28.578","0.40026","5"],
    [56028,"HCEP03730563","2025-08-03 01:15:00","10.2502","3.31157","26.669","3.635","7.56","0.383","3.911","0.04","0.13","29.7428","4.69723","39.16","0","SATNPRO1964","28.669999999999998","0.4016","5"],
    [56029,"HCEP03730563","2025-08-03 01:30:00","10.2516","3.31163","26.515","3.719","7.56","0.394","3.13","0.17","0.14","29.7424","4.69715","40.07","0","SATNPRO1964","29.198","0.40898","5"],
    [56030,"HCEP03730563","2025-08-03 01:45:00","10.2468","3.31033","26.383","3.793","7.57","0.375","2.983","0.04","0.13","29.7334","4.69594","40.85","0","SATNPRO1964","29.174","0.40864","5"],
    [56031,"NA","2025-08-03 02:00:00",null,null,null,null,null,null,null,null,null,null,null,null,null,"SATNPRO1964","29.146","0.40826","5"],
    [56032,"HCEP03730563","2025-08-03 02:00:01","10.252","3.31029","26.245","3.831","7.57","0.351","2.968","0.04","0.18","29.7287","4.69518","41.27","0","NA",null,null,null],
    [56033,"HCEP03730563","2025-08-03 02:15:00","10.2529","3.31042","26.085","3.862","7.58","0.359","2.624","0.04","0.1","29.7294","4.69524","41.6","0","SATNPRO1964","29.31","0.4105","5"],
    [56034,"HCEP03730563","2025-08-03 02:30:00","10.2545","3.31038","25.965","3.908","7.58","0.347","2.702","0.06","0.15","29.7278","4.69498","42.1","0","SATNPRO1964","29.358","0.41124","5"],
    [56035,"HCEP03730563","2025-08-03 02:45:00","10.2531","3.31044","25.807","3.922","7.58","0.355","2.748","0.03","0.14","29.7296","4.69526","42.26","0","SATNPRO1964","29.291999999999998","0.41026","5"],
    [56036,"HCEP03730563","2025-08-03 03:00:00","10.255","3.30988","25.678","3.949","7.59","0.329","1.975","0.04","0.22","29.7225","4.6942","42.54","0","SATNPRO1964","29.74","0.41656","5"],
    [56037,"HCEP03730563","2025-08-03 03:15:00","10.2525","3.30446","25.527","4.053","7.59","0.341","1.722","0.05","0.16","29.6707","4.68685","43.65","0","SATNPRO1964","29.566","0.4141","5"],
    [56038,"HCEP03730563","2025-08-03 03:30:00","10.2531","3.30868","25.401","4.058","7.59","0.311","1.679","0.04","0.09","29.7121","4.69274","43.71","0","SATNPRO1964","29.696","0.41594","5"],
    [56039,"HCEP03730563","2025-08-03 03:45:00","10.2546","3.30929","25.253","4.057","7.6","0.334","1.834","0.05","0.12","29.7171","4.69341","43.71","0","SATNPRO1964","29.684","0.41578","5"],
    [56040,"HCEP03730563","2025-08-03 04:00:00","10.253","3.3111","25.146","4.01","7.59","0.344","2.313","0.05","0.16","29.7365","4.6962","43.2","0","SATNPRO1964","29.512","0.4134","5"],
    [56041,"HCEP03730563","2025-08-03 04:15:00","10.2517","3.31087","25.05","3.937","7.59","0.368","2.461","0.08","0.1","29.7353","4.69604","42.41","0","SATNPRO1964","29.3","0.4104","5"],
    [56042,"HCEP03730563","2025-08-03 04:30:00","10.2486","3.31063","24.966","3.839","7.58","0.368","3.605","0.04","0.18","29.7355","4.69612","41.35","0","SATNPRO1964","28.766","0.40294","5"],
    [56043,"HCEP03730563","2025-08-03 04:45:00","10.2456","3.31022","24.86","3.741","7.57","0.395","3.379","0.07","0.15","29.7339","4.69594","40.29","0","SATNPRO1964","28.528","0.39958","5"],
    [56044,"HCEP03730563","2025-08-03 05:00:00","10.2453","3.30991","24.772","3.745","7.57","0.386","2.706","0.05","0.16","29.731","4.69552","40.33","0","SATNPRO1964","29.02","0.40648","5"],
    [56045,"HCEP03730563","2025-08-03 05:15:00","10.2403","3.30856","24.689","3.823","7.58","0.614","4.728","0.08","0.62","29.7217","4.69428","41.18","0","SATNPRO1964","28.381999999999998","0.39754","5"],
    [56046,"HCEP03730563","2025-08-03 05:30:00","10.2389","3.30831","24.653","3.847","7.58","0.369","2.938","0.05","0.17","29.7204","4.69411","41.43","0","SATNPRO1964","28.982","0.40594","5"],
    [56047,"HCEP03730563","2025-08-03 05:45:00","10.2407","3.30841","24.624","3.859","7.58","0.386","2.503","0.08","0.1","29.72","4.69402","41.56","0","SATNPRO1964","28.919999999999998","0.4051","5"],
    [56048,"HCEP03730563","2025-08-03 06:00:00","10.2409","3.3083","24.611","3.894","7.58","0.381","2.326","0.1","0.15","29.7187","4.69383","41.94","0","SATNPRO1964","29.112","0.40778","5"],
    [56049,"HCEP03730563","2025-08-03 06:15:00","10.2419","3.30821","24.61","3.917","7.58","0.435","2.264","0.3","0.16","29.717","4.69358","42.18","0","SATNPRO1964","28.992","0.40606","5"],
    [56050,"HCEP03730563","2025-08-03 06:30:00","10.2332","3.30732","24.639","3.878","7.58","0.373","2.633","0.13","0.19","29.7152","4.69347","41.76","0","SATNPRO1964","28.96","0.40562","5"],
    [56051,"HCEP03730563","2025-08-03 06:45:00","10.2317","3.30724","24.63","3.786","7.58","0.373","2.239","0.07","0.07","29.7157","4.69355","40.77","0","SATNPRO1964","28.754","0.40272","5"],
    [56052,"HCEP03730563","2025-08-03 07:00:00","10.2387","3.30763","24.668","3.835","7.58","0.316","1.828","0.04","0.18","29.7138","4.69318","41.3","0","SATNPRO1964","28.976","0.40588","5"],
    [56053,"HCEP03730563","2025-08-03 07:15:00","10.2268","3.30535","24.719","3.788","7.57","0.383","2.475","0.1","0.15","29.7008","4.69152","40.78","0","SATNPRO1964","28.983999999999998","0.40602","5"],
    [56054,"HCEP03730563","2025-08-03 07:30:00","10.2216","3.30602","24.785","3.607","7.56","0.351","2.991","0.03","0.23","29.7118","4.69318","38.83","0","SATNPRO1964","28.372","0.39738","5"],
    [56055,"HCEP03730563","2025-08-03 07:45:00","10.2229","3.30613","24.846","3.554","7.56","0.372","2.232","0.08","0.1","29.7118","4.69316","38.26","0","SATNPRO1964","28.618000000000002","0.40084","5"],
    [56056,"HCEP03730563","2025-08-03 08:00:00","10.2219","3.30579","24.937","3.605","7.56","0.345","2.81","0.04","0.21","29.7091","4.69281","38.8","0","SATNPRO1964","28.338","0.39692","5"],
    [56057,"HCEP03730563","2025-08-03 08:15:00","10.2138","3.30501","25.052","3.514","7.55","0.444","3.404","0.15","0.22","29.708","4.69278","37.82","0","SATNPRO1964","27.788","0.38922","5"],
    [56058,"HCEP03730563","2025-08-03 08:30:00","10.2104","3.30437","25.174","3.435","7.54","0.415","2.753","0.1","0.27","29.7043","4.69232","36.97","0","SATNPRO1964","28.08","0.39332","5"],
    [56059,"HCEP03730563","2025-08-03 08:45:00","10.2111","3.30354","25.281","3.42","7.54","0.415","3.296","0.06","0.26","29.6955","4.69106","36.8","0","SATNPRO1964","27.756","0.38878","5"],
    [56060,"HCEP03730563","2025-08-03 09:00:00","10.2111","3.3049","25.388","3.21","7.53","0.406","4.822","0.03","0.12","29.709","4.69298","34.55","0","SATNPRO1964","27.198","0.38094","5"],
    [56061,"HCEP03730563","2025-08-03 09:15:00","10.2102","3.30457","25.498","3.089","7.52","0.494","5.522","0.09","0.31","29.7064","4.69263","33.24","0","SATNPRO1964","27.674","0.38762","5"],
    [56062,"HCEP03730563","2025-08-03 09:30:00","10.2079","3.30414","25.621","3.239","7.52","0.417","3.575","0.12","0.13","29.704","4.69233","34.85","0","SATNPRO1964","27.849999999999998","0.39008","5"],
    [56063,"HCEP03730563","2025-08-03 09:45:00","10.2123","3.30458","25.752","3.338","7.53","0.405","3.15","0.11","0.29","29.7046","4.69236","35.93","0","SATNPRO1964","27.264","0.38188","5"],
    [56064,"HCEP03730563","2025-08-03 10:00:00","10.2266","3.30619","25.89","3.5","7.54","0.355","2.165","0.06","0.09","29.709","4.69275","37.68","0","SATNPRO1964","28.254","0.39574","5"],
    [56065,"HCEP03730563","2025-08-03 10:15:00","10.2195","3.30609","26.052","3.456","7.54","0.427","4.633","0.08","0.22","29.7137","4.69355","37.2","0","SATNPRO1964","26.89","0.37662","5"],
    [56066,"HCEP03730563","2025-08-03 10:30:00","10.2312","3.30753","26.182","3.43","7.53","0.369","3.263","0.04","0.1","29.7184","4.69404","36.93","0","SATNPRO1964","28.112","0.39378","5"],
    [56067,"HCEP03730563","2025-08-03 10:45:00","10.2338","3.30844","26.323","3.429","7.54","0.464","6.4","0.04","0.29","29.7252","4.69498","36.92","0","SATNPRO1964","27.42","0.38406","5"],
    [56068,"HCEP03730563","2025-08-03 11:00:00","10.2374","3.30824","26.461","3.459","7.54","0.408","4.529","0.05","0.63","29.7202","4.69421","37.25","0","SATNPRO1964","28.602","0.40064","5"],
    [56069,"HCEP03730563","2025-08-03 11:15:00","10.2401","3.30821","26.55","3.695","7.55","0.421","3.821","0.06","0.2","29.7177","4.69382","39.8","0","SATNPRO1964","28.896","0.40478","5"],
    [56070,"HCEP03730563","2025-08-03 11:30:00","10.2427","3.30808","26.649","3.853","7.57","0.354","1.732","0.08","0.06","29.7142","4.69328","41.49","0","SATNPRO1964","29.534","0.41368","5"],
    [56071,"HCEP03730563","2025-08-03 11:45:00","10.2462","3.30847","26.739","3.928","7.58","0.399","1.792","0.14","0.3","29.7151","4.69336","42.31","0","SATNPRO1964","29.598","0.41454","5"],
    [56072,"HCEP03730563","2025-08-03 12:00:00","10.2431","3.30865","26.833","3.883","7.58","0.406","3.091","0.1","0.17","29.7195","4.69404","41.82","0","SATNPRO1964","28.716","0.4022","5"],
    [56073,"HCEP03730563","2025-08-03 12:15:00","10.2283","3.30695","26.899","3.59","7.56","0.437","4.78","0.13","0.23","29.7147","4.6936","38.65","0","SATNPRO1964","27.09","0.37946","5"],
    [56074,"HCEP03730563","2025-08-03 12:30:00","10.2509","3.30878","26.983","3.661","7.56","0.354","1.462","0.11","0.14","29.7143","4.69319","39.43","0","SATNPRO1964","29.802","0.41742","5"],
    [56075,"HCEP03730563","2025-08-03 12:45:00","10.2526","3.30867","27.041","4.004","7.58","0.419","2.275","0.17","0.25","29.7119","4.69281","43.13","0","SATNPRO1964","29.864","0.41832","5"],
    [56076,"HCEP03730563","2025-08-03 13:00:00","10.2242","3.30615","27.064","3.759","7.57","0.434","4.002","0.13","0.23","29.71","4.69302","40.46","0","SATNPRO1964","27.478","0.3849","5"],
    [56077,"HCEP03730563","2025-08-03 13:15:00","10.2222","3.30608","27.109","3.345","7.54","0.442","4.097","0.06","0.18","29.7109","4.69317","36","0","SATNPRO1964","27.996","0.39212","5"],
    [56078,"HCEP03730563","2025-08-03 13:30:00","10.2268","3.30613","27.126","3.445","7.54","0.403","3.275","0.07","0.32","29.7076","4.69263","37.09","0","SATNPRO1964","28.172","0.39458","5"],
    [56079,"HCEP03730563","2025-08-03 13:45:00","10.2169","3.30491","27.142","3.418","7.54","0.405","3.737","0.03","0.2","29.7036","4.69223","36.79","0","SATNPRO1964","27.382","0.38352","5"],
    [56080,"HCEP03730563","2025-08-03 14:00:00","10.2191","3.30454","27.154","3.397","7.54","0.388","2.724","0.07","0.26","29.6981","4.6914","36.56","0","SATNPRO1964","28.330000000000002","0.3968","5"],
    [56081,"HCEP03730563","2025-08-03 14:15:00","10.2156","3.3035","27.178","3.341","7.53","0.442","3.025","0.07","0.27","29.6906","4.69039","35.95","0","SATNPRO1964","26.722","0.37428","5"],
    [56082,"HCEP03730563","2025-08-03 14:30:00","10.2151","3.30036","27.179","3.091","7.52","0.463","3.677","0.16","0.43","29.6598","4.68601","33.26","0","SATNPRO1964","26.392","0.36962","5"],
    [56083,"HCEP03730563","2025-08-03 14:45:00","10.2131","3.30185","27.189","2.978","7.5","0.48","4.434","0.08","0.23","29.6762","4.68838","32.04","0","SATNPRO1964","26.102","0.3656","5"],
    [56084,"HCEP03730563","2025-08-03 15:00:00","10.2142","3.30534","27.171","2.834","7.49","0.462","6.002","0.04","0.28","29.7101","4.6932","30.5","0","SATNPRO1964","25.662","0.35946","5"],
    [56085,"HCEP03730563","2025-08-03 15:15:00","10.218","3.30599","27.169","2.776","7.48","0.465","5.469","0.05","0.23","29.7135","4.69362","29.88","0","SATNPRO1964","26.048","0.36484","5"],
    [56086,"HCEP03730563","2025-08-03 15:30:00","10.2167","3.30569","27.157","2.82","7.48","0.437","4.84","0.05","0.3","29.7115","4.69336","30.36","0","SATNPRO1964","26.14","0.36616","5"],
    [56087,"HCEP03730563","2025-08-03 15:45:00","10.2179","3.30577","27.126","2.899","7.49","0.409","3.881","0.04","0.12","29.7114","4.69331","31.21","0","SATNPRO1964","26.598","0.37252","5"],
    [56088,"HCEP03730563","2025-08-03 16:00:00","10.2273","3.30703","27.102","3.094","7.5","0.38","3.601","0.05","0.17","29.7162","4.69384","33.31","0","SATNPRO1964","27.644","0.38722","5"],
    [56089,"HCEP03730563","2025-08-03 16:15:00","10.2321","3.30759","27.084","3.314","7.52","0.378","3.247","0.06","0.11","29.7179","4.694","35.68","0","SATNPRO1964","27.824","0.3897","5"],
    [56090,"HCEP03730563","2025-08-03 16:30:00","10.2366","3.30803","27.058","3.484","7.53","0.341","2.491","0.05","0.09","29.7185","4.69402","37.51","0","SATNPRO1964","28.462","0.39868","5"],
    [56091,"HCEP03730563","2025-08-03 16:45:00","10.2482","3.30962","27.03","3.621","7.54","0.341","2.447","0.04","0.25","29.7249","4.69474","39","0","SATNPRO1964","28.762","0.40282","5"],
    [56092,"HCEP03730563","2025-08-03 17:00:00","10.2509","3.31009","27.008","3.714","7.55","0.34","2.405","0.05","0.09","29.7274","4.69504","40.01","0","SATNPRO1964","28.830000000000002","0.40384","5"],
    [56093,"HCEP03730563","2025-08-03 17:15:00","10.2491","3.30986","26.976","3.732","7.56","0.42","9.184","0.09","3.96","29.7266","4.69496","40.2","0","SATNPRO1964","28.454","0.39854","5"],
    [56094,"HCEP03730563","2025-08-03 17:30:00","10.2469","3.30973","26.952","3.676","7.56","2.023","30.238","2.34","33.7","29.727","4.69506","39.59","0","SATNPRO1964","28.522000000000002","0.3995","5"],
    [56095,"HCEP03730563","2025-08-03 17:45:00","10.2489","3.30978","26.925","3.661","7.56","0.464","2.655","0.29","0.33","29.7259","4.69487","39.44","0","SATNPRO1964","28.458000000000002","0.39864","5"],
    [56096,"HCEP03730563","2025-08-03 18:00:00","10.2477","3.30981","26.9","3.676","7.56","0.421","2.578","0.23","0.06","29.7273","4.69508","39.6","0","SATNPRO1964","28.346","0.39704","5"],
    [56097,"HCEP03730563","2025-08-03 18:15:00","10.2466","3.31007","26.87","3.631","7.56","0.359","2.62","0.04","0.18","29.7308","4.69559","39.11","0","SATNPRO1964","28.286","0.39618","5"],
    [56098,"HCEP03730563","2025-08-03 18:30:00","10.248","3.31027","26.86","3.604","7.55","0.386","2.616","0.11","0.08","29.7316","4.69568","38.83","0","SATNPRO1964","28.4","0.39782","5"],
    [56099,"HCEP03730563","2025-08-03 18:45:00","10.2467","3.31019","26.864","3.563","7.55","0.495","3.67","0.35","0.4","29.7318","4.69574","38.38","0","SATNPRO1964","28.274","0.396","5"],
    [56100,"HCEP03730563","2025-08-03 19:00:00","10.2432","3.30987","26.857","3.43","7.54","0.387","3.856","0.05","0.15","29.7315","4.69575","36.95","0","SATNPRO1964","28.088","0.39342","5"],
    [56101,"HCEP03730563","2025-08-03 19:15:00","10.2433","3.30996","26.841","3.335","7.54","0.396","3.897","0.05","0.16","29.7324","4.69588","35.92","0","SATNPRO1964","27.844","0.38996","5"],
    [56102,"HCEP03730563","2025-08-03 19:30:00","10.246","3.31039","26.852","3.353","7.53","0.394","3.915","0.07","0.46","29.7344","4.69612","36.12","0","SATNPRO1964","27.637999999999998","0.38712","5"],
    [56103,"HCEP03730563","2025-08-03 19:45:00","10.2457","3.31034","26.871","3.404","7.54","0.433","3.556","0.11","0.18","29.7342","4.69609","36.67","0","SATNPRO1964","27.958","0.3916","5"],
    [56104,"HCEP03730563","2025-08-03 20:00:00","10.2449","3.31023","26.896","3.392","7.54","0.404","3.876","0.07","0.15","29.7337","4.69604","36.53","0","SATNPRO1964","27.75","0.38868","5"],
    [56105,"HCEP03730563","2025-08-03 20:15:00","10.2446","3.31023","26.922","3.37","7.53","0.397","3.736","0.06","0.24","29.734","4.69608","36.3","0","SATNPRO1964","27.776","0.38908","5"],
    [56106,"HCEP03730563","2025-08-03 20:30:00","10.2448","3.31031","26.937","3.366","7.53","0.379","3.906","0.06","0.15","29.7346","4.69617","36.26","0","SATNPRO1964","27.662","0.38746","5"],
    [56107,"HCEP03730563","2025-08-03 20:45:00","10.2461","3.31052","26.961","3.372","7.53","0.477","4.189","0.13","0.3","29.7356","4.69629","36.32","0","SATNPRO1964","27.84","0.39","5"],
    [56108,"HCEP03730563","2025-08-03 21:00:00","10.2464","3.31062","26.973","3.373","7.53","0.399","3.915","0.06","0.16","29.7363","4.69639","36.33","0","SATNPRO1964","27.674","0.38764","5"],
    [56109,"HCEP03730563","2025-08-03 21:15:00","10.2452","3.31037","27.015","3.364","7.53","0.397","3.651","0.05","0.15","29.7349","4.6962","36.24","0","SATNPRO1964","27.71","0.38812","5"],
    [56110,"HCEP03730563","2025-08-03 21:30:00","10.2445","3.31027","27.078","3.327","7.53","0.394","3.904","0.05","0.21","29.7344","4.69616","35.84","0","SATNPRO1964","27.41","0.3839","5"],
    [56111,"HCEP03730563","2025-08-03 21:45:00","10.2464","3.31054","27.098","3.325","7.53","0.413","4.043","0.06","0.24","29.7354","4.69627","35.82","0","SATNPRO1964","27.894","0.3907","5"],
    [56112,"HCEP03730563","2025-08-03 22:00:00","10.2462","3.3104","27.121","3.378","7.53","0.366","3.702","0.05","0.16","29.7343","4.69611","36.39","0","SATNPRO1964","27.88","0.39052","5"],
    [56113,"HCEP03730563","2025-08-03 22:15:00","10.2459","3.3103","27.114","3.37","7.53","0.423","4.143","0.07","0.33","29.7335","4.696","36.3","0","SATNPRO1964","27.664","0.38748","5"],
    [56114,"HCEP03730563","2025-08-03 22:30:00","10.2466","3.31025","27.125","3.379","7.53","0.418","3.908","0.09","0.18","29.7325","4.69585","36.4","0","SATNPRO1964","27.762","0.38886","5"],
    [56115,"HCEP03730563","2025-08-03 22:45:00","10.2539","3.31118","27.136","3.455","7.54","0.451","3.083","0.17","0.11","29.7357","4.69619","37.22","0","SATNPRO1964","28.372","0.3974","5"],
    [56116,"HCEP03730563","2025-08-03 23:00:00","10.2547","3.311","27.11","3.605","7.55","0.375","3.334","0.07","0.28","29.7332","4.69582","38.84","0","SATNPRO1964","28.738","0.40256","5"],
    [56117,"HCEP03730563","2025-08-03 23:15:00","10.2543","3.31091","27.133","3.691","7.56","0.426","2.281","0.33","0.19","29.7326","4.69575","39.77","0","SATNPRO1964","29.156","0.40838","5"],
    [56118,"HCEP03730563","2025-08-03 23:30:00","10.2542","3.31037","27.14","3.795","7.56","0.335","2.251","0.04","0.16","29.7274","4.695","40.88","0","SATNPRO1964","29.034","0.40668","5"],
    [56119,"HCEP03730563","2025-08-03 23:45:00","10.2485","3.30917","27.099","3.81","7.57","0.396","2.012","0.08","0.11","29.7201","4.69405","41.04","0","SATNPRO1964","28.876","0.40448","5"],
    [56120,"HCEP03730563","2025-08-04 00:00:00","10.2472","3.30889","27.097","3.787","7.57","0.338","1.853","0.05","0.1","29.7184","4.69384","40.79","0","SATNPRO1964","29.02","0.40648","5"],
    [56121,"HCEP03730563","2025-08-04 00:15:00","10.2461","3.30867","27.014","3.794","7.57","0.356","1.725","0.05","0.09","29.7172","4.69367","40.86","0","SATNPRO1964","29.062","0.40708","5"],
    [56122,"HCEP03730563","2025-08-04 00:30:00","10.2493","3.30911","27.02","3.825","7.57","0.356","1.55","0.13","0.08","29.7189","4.69386","41.2","0","SATNPRO1964","29.166","0.40856","5"],
    [56123,"HCEP03730563","2025-08-04 00:45:00","10.2485","3.3087","26.967","3.874","7.58","0.394","1.474","0.16","0.07","29.7155","4.69338","41.73","0","SATNPRO1964","29.216","0.4092","5"],
    [56124,"HCEP03730563","2025-08-04 01:00:00","10.2523","3.30923","26.899","3.91","7.58","0.351","1.609","0.08","0.15","29.7177","4.69364","42.12","0","SATNPRO1964","29.334","0.41086","5"],
    [56125,"HCEP03730563","2025-08-04 01:15:00","10.2488","3.30918","26.853","3.903","7.58","0.422","1.816","0.35","0.15","29.72","4.69402","42.04","0","SATNPRO1964","29.222","0.40934","5"],
    [56126,"HCEP03730563","2025-08-04 01:30:00","10.2436","3.30839","26.752","3.813","7.57","0.366","2.022","0.05","0.15","29.7165","4.6936","41.07","0","SATNPRO1964","28.822","0.40372","5"],
    [56127,"HCEP03730563","2025-08-04 01:45:00","10.2427","3.30765","26.679","3.836","7.57","0.495","1.62","0.4","0.11","29.7099","4.69266","41.31","0","SATNPRO1964","29.186","0.40878","5"],
    [56128,"HCEP03730563","2025-08-04 02:00:00","10.2402","3.30702","26.561","3.886","7.58","0.36","1.348","0.16","0.11","29.7058","4.69211","41.84","0","SATNPRO1964","29.496","0.41316","5"],
    [56129,"HCEP03730563","2025-08-04 02:15:00","10.2357","3.30713","26.445","3.828","7.57","0.463","3.24","0.07","0.29","29.7106","4.69287","41.22","0","SATNPRO1964","28.168","0.39452","5"],
    [56130,"HCEP03730563","2025-08-04 02:30:00","10.2375","3.30681","26.329","3.746","7.57","0.391","2.22","0.06","0.23","29.706","4.69218","40.34","0","SATNPRO1964","29.062","0.40706","5"],
    [56131,"HCEP03730563","2025-08-04 02:45:00","10.2287","3.30667","26.207","3.64","7.56","0.506","4.64","0.05","0.16","29.7118","4.69315","39.19","0","SATNPRO1964","27.042","0.37878","5"],
    [56132,"HCEP03730563","2025-08-04 03:00:00","10.2257","3.3066","26.059","3.244","7.54","0.511","5.35","0.07","0.21","29.7136","4.69344","34.92","0","SATNPRO1964","26.067999999999998","0.36514","5"],
    [56133,"HCEP03730563","2025-08-04 03:15:00","10.2242","3.30672","25.898","2.957","7.51","0.527","5.176","0.11","0.71","29.7162","4.69382","31.83","0","SATNPRO1964","25.848","0.36208","5"],
    [56134,"HCEP03730563","2025-08-04 03:30:00","10.2249","3.30661","25.744","2.858","7.5","0.465","4.22","0.05","0.18","29.7145","4.69356","30.77","0","SATNPRO1964","26.276","0.36802","5"],
    [56135,"HCEP03730563","2025-08-04 03:45:00","10.226","3.3066","25.604","2.93","7.5","0.443","3.671","0.06","0.22","29.7136","4.69341","31.54","0","SATNPRO1964","26.612","0.37278","5"],
    [56136,"HCEP03730563","2025-08-04 04:00:00","10.2274","3.30665","25.457","3.021","7.5","0.443","3.208","0.08","0.29","29.713","4.69329","32.52","0","SATNPRO1964","26.784","0.37514","5"],
    [56137,"HCEP03730563","2025-08-04 04:15:00","10.2292","3.30669","25.32","3.123","7.51","0.496","2.772","0.15","0.17","29.712","4.69312","33.62","0","SATNPRO1964","27.258","0.38176","5"],
    [56138,"HCEP03730563","2025-08-04 04:30:00","10.2303","3.30665","25.18","3.209","7.51","0.404","2.722","0.07","0.13","29.7107","4.6929","34.55","0","SATNPRO1964","27.52","0.38548","5"],
    [56139,"HCEP03730563","2025-08-04 04:45:00","10.2283","3.30679","25.036","3.187","7.51","0.473","3.603","0.07","0.15","29.7138","4.69337","34.32","0","SATNPRO1964","26.88","0.37652","5"],
    [56140,"HCEP03730563","2025-08-04 05:00:00","10.226","3.30669","24.936","3.057","7.51","0.478","3.837","0.06","0.14","29.7148","4.69355","32.91","0","SATNPRO1964","26.498","0.37114","5"],
    [56141,"HCEP03730563","2025-08-04 05:15:00","10.2255","3.30651","24.83","3.021","7.5","0.485","3.887","0.06","0.18","29.7134","4.69335","32.52","0","SATNPRO1964","26.67","0.37358","5"],
    [56142,"HCEP03730563","2025-08-04 05:30:00","10.225","3.30633","24.707","3.008","7.5","0.466","3.863","0.09","0.31","29.712","4.69315","32.38","0","SATNPRO1964","26.452","0.3705","5"],
    [56143,"HCEP03730563","2025-08-04 05:45:00","10.2272","3.30695","24.612","2.989","7.5","0.506","3.803","0.11","0.22","29.7165","4.69375","32.19","0","SATNPRO1964","26.564","0.37204","5"],
    [56144,"HCEP03730563","2025-08-04 06:00:00","10.23","3.30748","24.55","2.954","7.5","0.461","3.736","0.04","0.41","29.7195","4.69412","31.81","0","SATNPRO1964","26.43","0.37018","5"],
    [56145,"HCEP03730563","2025-08-04 06:15:00","10.2304","3.30766","24.505","2.889","7.49","0.552","4.036","0.08","0.22","29.721","4.69432","31.1","0","SATNPRO1964","26.124","0.36588","5"],
    [56146,"HCEP03730563","2025-08-04 06:30:00","10.2314","3.30779","24.466","2.847","7.49","0.562","4.11","0.1","0.19","29.7214","4.69437","30.66","0","SATNPRO1964","26.188","0.36686","5"],
    [56147,"HCEP03730563","2025-08-04 06:45:00","10.2341","3.30809","24.447","2.875","7.49","0.501","4.156","0.05","0.41","29.7222","4.69444","30.95","0","SATNPRO1964","26.374","0.36942","5"],
    [56148,"HCEP03730563","2025-08-04 07:00:00","10.2322","3.30715","24.436","2.958","7.49","0.459","3.179","0.09","0.16","29.7145","4.69337","31.85","0","SATNPRO1964","26.886","0.37662","5"],
    [56149,"HCEP03730563","2025-08-04 07:15:00","10.2313","3.30708","24.443","3.015","7.5","0.52","3.226","0.15","0.17","29.7145","4.69338","32.47","0","SATNPRO1964","26.924","0.3771","5"],
    [56150,"HCEP03730563","2025-08-04 07:30:00","10.2343","3.30774","24.467","3.012","7.5","0.911","3.635","1.7","0.6","29.7185","4.69391","32.43","0","SATNPRO1964","27.12","0.37986","5"],
    [56151,"HCEP03730563","2025-08-04 07:45:00","10.2334","3.30741","24.477","3.015","7.5","0.462","3.111","0.08","0.12","29.716","4.69357","32.47","0","SATNPRO1964","27.112000000000002","0.37974","5"],
    [56152,"HCEP03730563","2025-08-04 08:00:00","10.236","2.97642","24.52","3.033","7.5","0.467","3.267","0.06","0.13","26.4448","4.22355","31.99","0","SATNPRO1964","26.560000000000002","0.37196","5"],
    [56153,"HCEP03730563","2025-08-04 08:15:00","10.2396","3.3085","24.581","2.845","7.5","0.619","4.626","0.18","0.32","29.721800000000002","4.69429","30.64","0","SATNPRO1964","26.71","0.37412","5"],
    [56154,"HCEP03730563","2025-08-04 08:30:00","10.2384","3.30845","24.66","2.88","7.49","0.596","4.296","0.16","0.25","29.7222","4.69438","31.01","0","SATNPRO1964","26.74","0.3745","5"],
    [56155,"HCEP03730563","2025-08-04 08:45:00","10.2408","3.30853","24.742","2.868","7.49","0.646","4.154","0.18","0.2","29.7211","4.69419","30.89","0","SATNPRO1964","26.278000000000002","0.36804","5"],
    [56156,"HCEP03730563","2025-08-04 09:00:00","10.2412","3.30864","24.838","2.865","7.49","0.585","4.323","0.12","0.27","29.721800000000002","4.69428","30.85","0","SATNPRO1964","26.316000000000003","0.3686","5"],
    [56157,"HCEP03730563","2025-08-04 09:15:00","10.2427","3.30875","24.948","2.852","7.49","0.627","4.491","0.24","0.23","29.7216","4.69423","30.71","0","SATNPRO1964","26.396","0.36972","5"],
    [56158,"HCEP03730563","2025-08-04 09:30:00","10.2408","3.30865","25.062","2.834","7.48","0.59","4.494","0.1","0.32","29.7221","4.69434","30.52","0","SATNPRO1964","25.726","0.36032","5"],
    [56159,"HCEP03730563","2025-08-04 09:45:00","10.2409","3.30853","25.187","2.813","7.48","0.61","4.533","0.13","0.41","29.7207","4.69415","30.3","0","SATNPRO1964","25.988","0.36402","5"],
    [56160,"HCEP03730563","2025-08-04 10:00:00","10.244","3.30843","25.326","2.808","7.48","0.571","4.449","0.09","0.2","29.7173","4.69362","30.24","0","SATNPRO1964","25.672","0.35958","5"],
    [56161,"HCEP03730563","2025-08-04 10:15:00","10.2385","3.30812","25.464","2.768","7.48","0.642","4.984","0.14","0.24","29.7185","4.6939","29.81","0","SATNPRO1964","25.652","0.35926","5"],
    [56162,"HCEP03730563","2025-08-04 10:30:00","10.2419","3.30827","25.603","2.731","7.48","0.804","4.974","0.54","0.47","29.7172","4.69367","29.41","0","SATNPRO1964","25.906","0.36286","5"],
    [56163,"HCEP03730563","2025-08-04 10:45:00","10.2469","3.30866","25.778","2.808","7.48","0.648","4.108","0.13","0.19","29.7168","4.69354","30.24","0","SATNPRO1964","26.204","0.36704","5"],
    [56164,"HCEP03730563","2025-08-04 11:00:00","10.2519","3.30875","25.955","2.935","7.49","0.564","4.281","0.07","0.27","29.7137","4.69301","31.62","0","SATNPRO1964","26.444","0.37036","5"],
    [56165,"HCEP03730563","2025-08-04 11:15:00","10.2514","3.30843","26.12","3.003","7.49","0.655","3.721","0.16","0.21","29.7108","4.69263","32.34","0","SATNPRO1964","26.206","0.36704","5"],
    [56166,"HCEP03730563","2025-08-04 11:30:00","10.2488","3.30813","26.275","2.974","7.49","0.607","4.002","0.28","0.23","29.7099","4.69254","32.04","0","SATNPRO1964","26.580000000000002","0.37234","5"],
    [56167,"HCEP03730563","2025-08-04 11:45:00","10.2451","3.30783","26.391","2.894","7.49","0.631","4.453","0.1","0.23","29.7099","4.69261","31.17","0","SATNPRO1964","25.846","0.362","5"],
    [56168,"HCEP03730563","2025-08-04 12:00:00","10.2466","3.30786","26.566","2.858","7.49","0.601","4.567","0.11","0.33","29.7089","4.69246","30.78","0","SATNPRO1964","26.132","0.36602","5"],
    [56169,"HCEP03730563","2025-08-04 12:15:00","10.2479","3.30791","26.684","2.883","7.49","0.56","3.823","0.09","0.68","29.7083","4.69236","31.05","0","SATNPRO1964","25.983999999999998","0.36392","5"],
    [56170,"HCEP03730563","2025-08-04 12:30:00","10.246","3.30783","26.797","2.885","7.49","0.632","4.35","0.22","0.65","29.709","4.69249","31.07","0","SATNPRO1964","26.168","0.36656","5"],
    [56171,"HCEP03730563","2025-08-04 12:45:00","10.2459","3.30791","26.912","2.865","7.48","0.587","4.015","0.13","0.35","29.7099","4.69263","30.86","0","SATNPRO1964","26.112000000000002","0.36574","5"],
    [56172,"HCEP03730563","2025-08-04 13:00:00","10.244","3.30773","27.029","2.847","7.48","0.543","4.088","0.06","0.2","29.7095","4.69261","30.66","0","SATNPRO1964","26.208000000000002","0.36708","5"],
    [56173,"HCEP03730563","2025-08-04 13:15:00","10.2443","3.3077","27.093","2.821","7.48","0.564","3.986","0.07","0.14","29.709","4.69254","30.38","0","SATNPRO1964","26.048000000000002","0.36482","5"],
    [56174,"HCEP03730563","2025-08-04 13:30:00","10.2437","3.30778","27.168","2.812","7.48","0.572","4.647","0.07","0.18","29.7102","4.69272","30.29","0","SATNPRO1964","25.856","0.36212","5"],
    [56175,"HCEP03730563","2025-08-04 13:45:00","10.2484","3.30847","27.215","2.824","7.48","0.583","4.622","0.07","0.19","29.7132","4.69308","30.42","0","SATNPRO1964","26.102","0.3656","5"],
    [56176,"HCEP03730563","2025-08-04 14:00:00","10.2518","3.30905","27.271","2.859","7.48","0.571","4.182","0.08","0.53","29.7161","4.69344","30.79","0","SATNPRO1964","26.164","0.3665","5"],
    [56177,"HCEP03730563","2025-08-04 14:15:00","10.2544","3.30951","27.27","2.898","7.49","0.59","3.961","0.07","0.25","29.7187","4.69376","31.22","0","SATNPRO1964","26.114","0.3658","5"],
    [56178,"HCEP03730563","2025-08-04 14:30:00","10.2534","3.30947","27.305","2.908","7.49","0.57","4","0.09","0.24","29.7191","4.69383","31.33","0","SATNPRO1964","26.154","0.36634","5"],
    [56179,"HCEP03730563","2025-08-04 14:45:00","10.2541","3.30954","27.321","2.892","7.49","0.589","3.846","0.08","0.19","29.7191","4.69383","31.15","0","SATNPRO1964","26.134","0.36606","5"],
    [56180,"HCEP03730563","2025-08-04 15:00:00","10.2564","3.31007","27.344","2.899","7.49","0.53","3.747","0.06","0.17","29.7225","4.69428","31.23","0","SATNPRO1964","25.81","0.36152","5"],
    [56181,"HCEP03730563","2025-08-04 15:15:00","10.255","3.3098","27.355","2.925","7.49","0.595","3.833","0.11","0.19","29.721","4.69408","31.51","0","SATNPRO1964","26.080000000000002","0.36526","5"],
    [56182,"HCEP03730563","2025-08-04 15:30:00","10.258","3.31024","27.359","2.921","7.49","0.545","3.265","0.08","0.16","29.7229","4.6943","31.47","0","SATNPRO1964","26.492","0.37104","5"],
    [56183,"HCEP03730563","2025-08-04 15:45:00","10.2597","3.31045","27.381","2.961","7.49","0.573","3.438","0.14","0.41","29.7236","4.69438","31.9","0","SATNPRO1964","26.35","0.36912","5"],
    [56184,"HCEP03730563","2025-08-04 16:00:00","10.257","3.31014","27.374","2.948","7.49","0.615","3.862","0.11","0.22","29.7227","4.6943","31.76","0","SATNPRO1964","26.168","0.36654","5"],
    [56185,"HCEP03730563","2025-08-04 16:15:00","10.2592","3.31058","27.366","2.947","7.49","0.588","3.755","0.09","0.28","29.7253","4.69463","31.75","0","SATNPRO1964","26.386","0.36956","5"],
    [56186,"HCEP03730563","2025-08-04 16:30:00","10.262","3.31111","27.356","2.989","7.5","0.58","3.773","0.13","0.31","29.7282","4.695","32.21","0","SATNPRO1964","26.34","0.3689","5"],
    [56187,"HCEP03730563","2025-08-04 16:45:00","10.2628","3.31125","27.32","3.037","7.5","0.592","3.638","0.1","0.15","29.7291","4.69511","32.73","0","SATNPRO1964","26.876","0.37646","5"],
    [56188,"HCEP03730563","2025-08-04 17:00:00","10.2629","3.31132","27.302","3.055","7.5","0.683","3.595","0.56","0.24","29.7296","4.69518","32.92","0","SATNPRO1964","26.846","0.37604","5"],
    [56189,"HCEP03730563","2025-08-04 17:15:00","10.2643","3.31139","27.275","3.082","7.5","0.534","3.557","0.07","0.12","29.7292","4.6951","33.21","0","SATNPRO1964","26.79","0.37524","5"],
    [56190,"HCEP03730563","2025-08-04 17:30:00","10.2634","3.31132","27.22","3.084","7.5","0.527","3.248","0.09","0.21","29.7293","4.69512","33.23","0","SATNPRO1964","26.644","0.37318","5"],
    [56191,"HCEP03730563","2025-08-04 17:45:00","10.2715","3.31242","27.164","3.178","7.51","0.525","2.769","0.12","0.13","29.7336","4.69561","34.25","0","SATNPRO1964","27.592","0.38646","5"],
    [56192,"HCEP03730563","2025-08-04 18:00:00","10.2681","3.3121","27.148","3.256","7.52","0.556","3.469","0.12","0.42","29.7332","4.6956","35.09","0","SATNPRO1964","27.36","0.38324","5"],
    [56193,"HCEP03730563","2025-08-04 18:15:00","10.2662","3.31196","27.117","3.201","7.52","0.553","3.278","0.09","0.16","29.7334","4.69565","34.49","0","SATNPRO1964","27.168","0.38056","5"],
    [56194,"HCEP03730563","2025-08-04 18:30:00","10.2663","3.31195","27.069","3.177","7.51","0.545","3.324","0.11","0.23","29.7332","4.69563","34.24","0","SATNPRO1964","27.12","0.37986","5"],
    [56195,"HCEP03730563","2025-08-04 18:45:00","10.2664","3.31206","27.011","3.182","7.51","0.521","3.238","0.06","0.13","29.7343","4.69578","34.29","0","SATNPRO1964","27.17","0.38058","5"],
    [56196,"HCEP03730563","2025-08-04 19:00:00","10.2674","3.31222","27.005","3.187","7.52","0.511","3.354","0.06","0.1","29.7351","4.69587","34.35","0","SATNPRO1964","27.2","0.38098","5"],
    [56197,"HCEP03730563","2025-08-04 19:15:00","10.2631","3.31154","26.96","3.147","7.51","0.557","3.515","0.1","0.22","29.7319","4.69548","33.91","0","SATNPRO1964","26.762","0.37486","5"],
    [56198,"HCEP03730563","2025-08-04 19:30:00","10.2622","3.31157","26.91","3.073","7.51","0.548","4.439","0.07","0.23","29.7329","4.69564","33.11","0","SATNPRO1964","26.75","0.3747","5"],
    [56199,"HCEP03730563","2025-08-04 19:45:00","10.261","3.31147","26.877","3.03","7.5","0.585","5.043","0.07","0.25","29.7328","4.69565","32.65","0","SATNPRO1964","26.556","0.372","5"],
    [56200,"HCEP03730563","2025-08-04 20:00:00","10.2653","3.31217","26.931","3.088","7.51","0.494","4.236","0.07","0.19","29.7363","4.69608","33.27","0","SATNPRO1964","27.214","0.38116","5"],
    [56201,"HCEP03730563","2025-08-04 20:15:00","10.2648","3.31198","26.867","3.18","7.51","0.546","4.369","0.07","0.17","29.7349","4.69588","34.27","0","SATNPRO1964","27.394000000000002","0.38368","5"],
    [56202,"HCEP03730563","2025-08-04 20:30:00","10.2647","3.31189","26.93","3.239","7.52","0.471","3.178","0.06","0.15","29.7339","4.69575","34.9","0","SATNPRO1964","27.492","0.38506","5"],
    [56203,"HCEP03730563","2025-08-04 20:45:00","10.2626","3.31149","26.88","3.224","7.52","0.572","4.155","0.13","0.19","29.7318","4.69547","34.74","0","SATNPRO1964","27.108","0.37968","5"],
    [56204,"HCEP03730563","2025-08-04 21:00:00","10.2634","3.31146","26.924","3.22","7.52","0.5","3.119","0.13","0.16","29.7307","4.69531","34.7","0","SATNPRO1964","27.248","0.38164","5"],
    [56205,"HCEP03730563","2025-08-04 21:15:00","10.2602","3.31024","26.908","3.141","7.51","0.619","5.125","0.26","0.23","29.7213","4.69403","33.85","0","SATNPRO1964","26.548000000000002","0.37188","5"],
    [56206,"HCEP03730563","2025-08-04 21:30:00","10.2595","3.31029","26.948","2.998","7.5","0.555","5.405","0.08","0.37","29.7223","4.69417","32.3","0","SATNPRO1964","26.406","0.3699","5"],
    [56207,"HCEP03730563","2025-08-04 21:45:00","10.2593","3.31037","26.971","2.95","7.5","0.55","5.134","0.11","0.23","29.7233","4.69432","31.79","0","SATNPRO1964","26.47","0.37078","5"],
    [56208,"HCEP03730563","2025-08-04 22:00:00","10.2604","3.31197","26.992","2.948","7.5","0.489","4.838","0.09","0.21","29.7383","4.69644","31.77","0","SATNPRO1964","26.348","0.36908","5"],
    [56209,"HCEP03730563","2025-08-04 22:15:00","10.2677","3.31316","27.012","3.044","7.5","0.501","4.072","0.07","0.22","29.7442","4.69716","32.8","0","SATNPRO1964","27.148","0.38026","5"],
    [56210,"HCEP03730563","2025-08-04 22:30:00","10.2676","3.31304","27.054","3.133","7.51","0.478","3.772","0.08","0.21","29.743","4.697","33.77","0","SATNPRO1964","26.972","0.37774","5"],
    [56211,"HCEP03730563","2025-08-04 22:45:00","10.2684","3.31306","27.043","3.191","7.51","0.562","3.485","0.22","0.3","29.7426","4.69693","34.39","0","SATNPRO1964","27.542","0.38576","5"],
    [56212,"HCEP03730563","2025-08-04 23:00:00","10.2656","3.31246","27.048","3.209","7.51","0.458","3.04","0.07","0.13","29.7389","4.69645","34.58","0","SATNPRO1964","27.332","0.38286","5"],
    [56213,"HCEP03730563","2025-08-04 23:15:00","10.268","3.31292","27.076","3.247","7.52","0.467","2.888","0.06","0.2","29.7415","4.69678","35","0","SATNPRO1964","28.174","0.39462","5"],
    [56214,"HCEP03730563","2025-08-04 23:30:00","10.2761","3.31438","27.085","3.297","7.52","0.576","4.278","0.06","0.23","29.7494","4.69777","35.54","0","SATNPRO1964","27.43","0.38422","5"],
    [56215,"HCEP03730563","2025-08-04 23:45:00","10.2732","3.3142","27.096","3.244","7.52","0.647","4.561","0.08","0.19","29.7499","4.6979","34.97","0","SATNPRO1964","26.726","0.37434","5"],
    [56216,"HCEP03730563","2025-08-05 00:00:00","10.2799","3.31509","27.12","3.252","7.52","0.526","3.314","0.08","0.16","29.7533","4.69827","35.06","0","SATNPRO1964","28.06","0.39304","5"],
    [56217,"HCEP03730563","2025-08-05 00:15:00","10.2842","3.31563","27.108","3.397","7.53","0.531","3.003","0.12","0.3","29.7551","4.69845","36.62","0","SATNPRO1964","28.228","0.39538","5"],
    [56218,"HCEP03730563","2025-08-05 00:30:00","10.287","3.31617","27.104","3.47","7.54","0.498","3.156","0.11","0.17","29.7582","4.69885","37.42","0","SATNPRO1964","28.18","0.3947","5"],
    [56219,"HCEP03730563","2025-08-05 00:45:00","10.2855","3.31587","27.069","3.483","7.54","0.569","2.966","0.16","0.15","29.7565","4.69864","37.56","0","SATNPRO1964","28.082","0.39332","5"],
    [56220,"HCEP03730563","2025-08-05 01:00:00","10.2853","3.31566","27.061","3.475","7.54","0.437","2.702","0.09","0.1","29.7546","4.69837","37.47","0","SATNPRO1964","28.24","0.39558","5"],
    [56221,"HCEP03730563","2025-08-05 01:15:00","10.2847","3.3156","27.011","3.469","7.54","0.5","2.776","0.15","0.11","29.7544","4.69835","37.4","0","SATNPRO1964","28.348","0.39704","5"],
    [56222,"HCEP03730563","2025-08-05 01:30:00","10.2818","3.31529","26.982","3.428","7.54","0.517","3.183","0.11","0.15","29.7538","4.6983","36.96","0","SATNPRO1964","27.936","0.3913","5"],
    [56223,"HCEP03730563","2025-08-05 01:45:00","10.2799","3.31491","26.92","3.364","7.53","0.633","3.15","0.23","0.33","29.7516","4.69802","36.27","0","SATNPRO1964","27.582","0.38636","5"],
    [56224,"HCEP03730563","2025-08-05 02:00:00","10.2799","3.31515","26.857","3.343","7.53","0.522","3.292","0.07","0.16","29.754","4.69835","36.04","0","SATNPRO1964","28.044","0.39278","5"],
    [56225,"HCEP03730563","2025-08-05 02:15:00","10.2773","3.31488","26.776","3.289","7.53","0.588","3.595","0.22","0.2","29.7535","4.69831","35.46","0","SATNPRO1964","27.412","0.38394","5"],
    [56226,"HCEP03730563","2025-08-05 02:30:00","10.2761","3.31471","26.691","3.226","7.52","0.626","3.586","0.12","0.15","29.7528","4.69823","34.78","0","SATNPRO1964","27.306","0.3825","5"],
    [56227,"HCEP03730563","2025-08-05 02:45:00","10.2765","3.31463","26.596","3.219","7.52","0.55","3.421","0.1","0.12","29.7517","4.69807","34.7","0","SATNPRO1964","27.172","0.38062","5"],
    [56228,"HCEP03730563","2025-08-05 03:00:00","10.2757","3.3144","26.483","3.233","7.52","0.574","3.373","0.11","0.09","29.7502","4.69786","34.85","0","SATNPRO1964","27.396","0.3837","5"],
    [56229,"HCEP03730563","2025-08-05 03:15:00","10.2742","3.31422","26.351","3.205","7.52","0.62","3.423","0.15","0.12","29.7497","4.6978","34.55","0","SATNPRO1964","27.164","0.38048","5"],
    [56230,"HCEP03730563","2025-08-05 03:30:00","10.2722","3.31393","26.207","3.149","7.52","0.542","3.156","0.07","0.09","29.7484","4.69765","33.94","0","SATNPRO1964","27.204","0.38102","5"],
    [56231,"HCEP03730563","2025-08-05 03:45:00","10.2745","3.31411","26.067","3.154","7.51","0.586","3.833","0.1","0.12","29.7484","4.6976","34","0","SATNPRO1964","27.718","0.38824","5"],
    [56232,"HCEP03730563","2025-08-05 04:00:00","10.274","3.31409","25.903","3.202","7.52","0.505","3.858","0.05","0.08","29.7487","4.69764","34.51","0","SATNPRO1964","27.594","0.38652","5"],
    [56233,"HCEP03730563","2025-08-05 04:15:00","10.2753","3.3143","25.751","3.205","7.52","0.616","3.525","0.25","0.24","29.7498","4.69777","34.55","0","SATNPRO1964","27.604","0.38664","5"],
    [56234,"HCEP03730563","2025-08-05 04:30:00","10.2759","3.31434","25.582","3.261","7.52","0.536","3.578","0.09","0.25","29.7497","4.69773","35.15","0","SATNPRO1964","27.588","0.3864","5"],
    [56235,"HCEP03730563","2025-08-05 04:45:00","10.2779","3.3146","25.423","3.293","7.52","0.544","3.202","0.08","0.35","29.7508","4.69785","35.5","0","SATNPRO1964","27.886","0.39062","5"],
    [56236,"HCEP03730563","2025-08-05 05:00:00","10.2793","3.31474","25.27","3.354","7.53","0.586","3.519","0.28","0.32","29.7511","4.69785","36.16","0","SATNPRO1964","27.974","0.3918","5"],
    [56237,"HCEP03730563","2025-08-05 05:15:00","10.2753","3.31446","25.115","3.307","7.53","0.542","3.664","0.07","0.2","29.7516","4.69799","35.64","0","SATNPRO1964","27.386","0.3836","5"],
    [56238,"HCEP03730563","2025-08-05 05:30:00","10.2771","3.31436","24.972","3.224","7.52","0.516","4.133","0.07","0.22","29.7492","4.69761","34.76","0","SATNPRO1964","27.368","0.38334","5"],
    [56239,"HCEP03730563","2025-08-05 05:45:00","10.275","3.31444","24.837","3.191","7.52","0.519","4.254","0.09","0.44","29.7518","4.698","34.4","0","SATNPRO1964","27.758","0.38882","5"],
    [56240,"HCEP03730563","2025-08-05 06:00:00","10.2701","3.31357","24.709","3.141","7.51","0.608","4.304","0.14","0.4","29.7472","4.69742","33.86","0","SATNPRO1964","26.622","0.37288","5"],
    [56241,"HCEP03730563","2025-08-05 06:15:00","10.2797","3.31483","24.588","3.131","7.51","0.549","3.436","0.13","0.29","29.752","4.69794","33.76","0","SATNPRO1964","27.528","0.38562","5"],
    [56242,"HCEP03730563","2025-08-05 06:30:00","10.2748","3.31415","24.486","3.26","7.52","0.483","3.238","0.07","0.14","29.7492","4.69761","35.14","0","SATNPRO1964","27.406000000000002","0.3839","5"],
    [56243,"HCEP03730563","2025-08-05 06:45:00","10.2759","3.31422","24.395","3.233","7.52","0.466","3.216","0.05","0.09","29.749","4.69756","34.85","0","SATNPRO1964","27.468","0.38472","5"],
    [56244,"HCEP03730563","2025-08-05 07:00:00","10.2766","3.31333","24.324","3.242","7.52","0.52","3.548","0.1","0.14","29.7397","4.69622","34.95","0","SATNPRO1964","27.448","0.38444","5"],
    [56245,"HCEP03730563","2025-08-05 07:15:00","10.2775","3.31442","24.283","3.266","7.52","0.54","3.215","0.12","0.11","29.7497","4.69764","35.21","0","SATNPRO1964","27.554","0.38592","5"],
    [56246,"HCEP03730563","2025-08-05 07:30:00","10.2771","3.31435","24.251","3.26","7.52","0.502","3.698","0.07","0.29","29.7495","4.6976","35.15","0","SATNPRO1964","27.614","0.38678","5"],
    [56247,"HCEP03730563","2025-08-05 07:45:00","10.2743","3.31411","24.262","3.22","7.52","0.57","4.084","0.14","0.2","29.7493","4.69763","34.71","0","SATNPRO1964","27.330000000000002","0.38284","5"],
    [56248,"HCEP03730563","2025-08-05 08:00:00","10.2742","3.31401","24.239","3.164","7.52","0.592","4.039","0.14","0.12","29.7484","4.6975","34.1","0","SATNPRO1964","27.396","0.38374","5"],
    [56249,"HCEP03730563","2025-08-05 08:15:00","10.271","3.31365","24.285","3.093","7.51","0.637","4.822","0.08","0.53","29.7474","4.69742","33.34","0","SATNPRO1964","26.682","0.3737","5"],
    [56250,"HCEP03730563","2025-08-05 08:30:00","10.2709","3.31358","24.319","3.036","7.51","0.548","4.085","0.1","0.19","29.7467","4.69732","32.73","0","SATNPRO1964","27.026","0.37856","5"],
    [56251,"HCEP03730563","2025-08-05 08:45:00","10.2705","3.31368","24.352","3.022","7.5","0.586","4.223","0.1","0.32","29.7481","4.69753","32.58","0","SATNPRO1964","26.756","0.37476","5"],
    [56252,"HCEP03730563","2025-08-05 09:00:00","10.2699","3.31356","24.432","2.961","7.5","0.619","4.017","0.11","0.19","29.7474","4.69744","31.91","0","SATNPRO1964","26.692","0.37386","5"],
    [56253,"HCEP03730563","2025-08-05 09:15:00","10.2692","3.31344","24.519","2.947","7.5","0.622","4.058","0.11","0.19","29.7467","4.69736","31.77","0","SATNPRO1964","26.854","0.37614","5"],
    [56254,"HCEP03730563","2025-08-05 09:30:00","10.2726","3.31398","24.613","2.995","7.5","0.678","4.595","0.28","0.31","29.7493","4.69767","32.29","0","SATNPRO1964","26.826","0.37574","5"],
    [56255,"HCEP03730563","2025-08-05 09:45:00","10.279","3.31535","24.739","3.024","7.5","0.692","5.09","0.1","0.27","29.7576","4.69877","32.6","0","SATNPRO1964","26.726","0.37436","5"],
    [56256,"HCEP03730563","2025-08-05 10:00:00","10.2752","3.31459","24.858","3.02","7.5","0.684","4.666","0.1","0.28","29.7531","4.69819","32.56","0","SATNPRO1964","26.85","0.3761","5"],
    [56257,"HCEP03730563","2025-08-05 10:15:00","10.2811","3.31564","25.001","3.047","7.5","0.628","4.419","0.09","0.51","29.7586","4.69889","32.85","0","SATNPRO1964","27.27","0.38198","5"],
    [56258,"HCEP03730563","2025-08-05 10:30:00","10.2778","3.3151","25.123","3.107","7.51","0.618","4.296","0.08","0.36","29.7559","4.69856","33.5","0","SATNPRO1964","27.21","0.38112","5"],
    [56259,"HCEP03730563","2025-08-05 10:45:00","10.2777","3.3151","25.317","3.127","7.51","0.703","4.421","0.2","0.65","29.7559","4.69857","33.71","0","SATNPRO1964","27.276","0.38206","5"],
    [56260,"HCEP03730563","2025-08-05 11:00:00","10.2769","3.31403","25.426","3.162","7.51","0.646","3.892","0.17","0.2","29.7459","4.69717","34.08","0","SATNPRO1964","27.288","0.3822","5"],
    [56261,"HCEP03730563","2025-08-05 11:15:00","10.2749","3.31412","25.605","3.189","7.51","0.612","3.091","0.29","0.35","29.7483","4.69755","34.37","0","SATNPRO1964","27.72","0.3883","5"],
    [56262,"HCEP03730563","2025-08-05 11:30:00","10.2795","3.31458","25.763","3.258","7.52","0.483","2.623","0.1","0.11","29.7491","4.69761","35.12","0","SATNPRO1964","28.073999999999998","0.3932","5"],
    [56263,"HCEP03730563","2025-08-05 11:45:00","10.2843","3.31505","25.97","3.375","7.53","0.527","2.611","0.1","0.12","29.7497","4.69762","36.39","0","SATNPRO1964","28.712","0.40212","5"],
    [56264,"HCEP03730563","2025-08-05 12:00:00","10.2955","3.31635","26.129","3.532","7.54","0.491","2.21","0.15","0.2","29.7534","4.69797","38.09","0","SATNPRO1964","29.266000000000002","0.40996","5"],
    [56265,"HCEP03730563","2025-08-05 12:15:00","10.3183","3.31945","26.315","3.732","7.55","0.473","2.196","0.07","0.1","29.7655","4.69933","40.27","0","SATNPRO1964","30.148","0.42228","5"],
    [56266,"HCEP03730563","2025-08-05 12:30:00","10.3092","3.31886","26.496","3.748","7.56","0.572","3.542","0.12","0.21","29.767","4.6997","40.44","0","SATNPRO1964","28.598","0.40058","5"],
    [56267,"HCEP03730563","2025-08-05 12:45:00","10.3042","3.31835","26.664","3.58","7.55","0.6","3.681","0.13","0.22","29.766","4.69966","38.62","0","SATNPRO1964","28.646","0.40124","5"],
    [56268,"HCEP03730563","2025-08-05 13:00:00","10.3144","3.31952","26.8","3.564","7.55","0.557","3.666","0.11","0.22","29.7692","4.69995","38.45","0","SATNPRO1964","29.166","0.40854","5"],
    [56269,"HCEP03730563","2025-08-05 13:15:00","10.3232","3.32002","26.933","3.732","7.56","0.559","3.356","0.17","0.25","29.7669","4.69949","40.27","0","SATNPRO1964","29.878","0.4185","5"],
    [56270,"HCEP03730563","2025-08-05 13:30:00","10.3108","3.29995","27.036","3.758","7.56","0.506","3.575","0.06","0.2","29.5777","4.67272","40.5","0","SATNPRO1964","28.844","0.404","5"],
    [56271,"HCEP03730563","2025-08-05 13:45:00","10.2968","3.31718","27.147","3.557","7.56","0.541","3.628","0.1","0.39","29.7602","4.69898","38.37","0","SATNPRO1964","28.652","0.4013","5"],
    [56272,"HCEP03730563","2025-08-05 14:00:00","10.2979","3.31717","27.235","3.469","7.55","0.591","3.241","0.24","0.12","29.7592","4.69882","37.41","0","SATNPRO1964","28.416","0.39802","5"],
    [56273,"HCEP03730563","2025-08-05 14:15:00","10.2869","3.31564","27.312","3.45","7.54","0.589","3.245","0.13","0.22","29.753","4.69813","37.2","0","SATNPRO1964","28.824","0.40376","5"],
    [56274,"HCEP03730563","2025-08-05 14:30:00","10.279","3.31363","27.365","3.366","7.54","0.566","3.329","0.08","0.24","29.7395","4.69633","36.29","0","SATNPRO1964","27.944","0.39136","5"],
    [56275,"HCEP03730563","2025-08-05 14:45:00","10.2692","3.31139","27.428","3.214","7.53","0.579","2.635","0.1","0.1","29.7251","4.69444","34.63","0","SATNPRO1964","26.46","0.37062","5"],
    [56276,"HCEP03730563","2025-08-05 15:00:00","10.2776","3.31208","27.469","3.026","7.51","0.59","2.55","0.15","0.09","29.7251","4.69431","32.62","0","SATNPRO1964","27.022","0.37846","5"],
    [56277,"HCEP03730563","2025-08-05 15:15:00","10.2823","3.31232","27.535","3.073","7.51","0.579","2.518","0.11","0.17","29.7236","4.69402","33.12","0","SATNPRO1964","27.126","0.37994","5"],
    [56278,"HCEP03730563","2025-08-05 15:30:00","10.2684","3.31304","27.576","3.01","7.51","0.791","5.009","0.22","0.26","29.7422","4.6969","32.45","0","SATNPRO1964","26.586","0.37236","5"],
    [56279,"HCEP03730563","2025-08-05 15:45:00","10.2689","3.31326","27.583","2.89","7.5","0.721","5.36","0.09","0.32","29.744","4.69714","31.14","0","SATNPRO1964","26.358","0.36916","5"],
    [56280,"HCEP03730563","2025-08-05 16:00:00","10.2698","3.3135","27.594","2.835","7.49","0.758","4.95","0.17","0.24","29.7456","4.69737","30.56","0","SATNPRO1964","26.344","0.36904","5"],
    [56281,"HCEP03730563","2025-08-05 16:15:00","10.2711","3.31385","27.6","2.823","7.49","0.694","5.15","0.07","0.33","29.748","4.69769","30.43","0","SATNPRO1964","26.432","0.37024","5"],
    [56282,"HCEP03730563","2025-08-05 16:30:00","10.2717","3.31399","27.584","2.818","7.49","0.728","4.865","0.1","0.26","29.7489","4.69781","30.37","0","SATNPRO1964","26.419999999999998","0.37006","5"],
    [56283,"HCEP03730563","2025-08-05 16:45:00","10.2708","3.31378","27.579","2.817","7.48","0.831","5.08","0.22","0.33","29.7476","4.69763","30.37","0","SATNPRO1964","26.38","0.3695","5"],
    [56284,"HCEP03730563","2025-08-05 17:00:00","10.2683","3.31316","27.518","2.834","7.48","0.779","4.782","0.19","0.16","29.7434","4.69708","30.55","0","SATNPRO1964","26.37","0.36938","5"],
    [56285,"HCEP03730563","2025-08-05 17:15:00","10.2701","3.31353","27.491","2.839","7.48","0.695","4.534","0.09","0.2","29.7456","4.69736","30.6","0","SATNPRO1964","26.506","0.3713","5"],
    [56286,"HCEP03730563","2025-08-05 17:30:00","10.2707","3.31366","27.439","2.842","7.48","0.681","4.571","0.18","0.22","29.7464","4.69746","30.63","0","SATNPRO1964","26.462","0.37064","5"],
    [56287,"HCEP03730563","2025-08-05 17:45:00","10.2744","3.31444","27.387","2.864","7.49","0.717","4.65","0.15","0.24","29.7512","4.69808","30.88","0","SATNPRO1964","26.834","0.37584","5"],
    [56288,"HCEP03730563","2025-08-05 18:00:00","10.2752","3.3144","27.349","2.896","7.49","0.605","4.32","0.1","0.2","29.7502","4.69792","31.22","0","SATNPRO1964","26.81","0.3755","5"],
    [56289,"HCEP03730563","2025-08-05 18:15:00","10.2841","3.31575","27.293","2.93","7.49","0.702","6","0.08","0.27","29.7564","4.69865","31.59","0","SATNPRO1964","26.938000000000002","0.37734","5"],
    [56290,"HCEP03730563","2025-08-05 18:30:00","10.2899","3.31646","27.24","3.013","7.5","0.674","5.831","0.13","0.54","29.7587","4.69889","32.49","0","SATNPRO1964","27.286","0.3822","5"],
    [56291,"HCEP03730563","2025-08-05 18:45:00","10.2795","3.31498","27.205","3.036","7.5","0.892","5.139","0.85","0.54","29.7525","4.69816","32.73","0","SATNPRO1964","27.022000000000002","0.3785","5"],
    [56292,"HCEP03730563","2025-08-05 19:00:00","10.2831","3.31541","27.119","2.997","7.5","0.671","4.611","0.2","0.29","29.7539","4.69829","32.32","0","SATNPRO1964","27.099999999999998","0.37962","5"],
    [56293,"HCEP03730563","2025-08-05 19:15:00","10.272","3.31365","27.091","2.974","7.5","0.555","3.825","0.1","0.16","29.7455","4.69728","32.06","0","SATNPRO1964","26.74","0.37456","5"],
    [56294,"HCEP03730563","2025-08-05 19:30:00","10.2711","3.31334","27.036","2.972","7.5","0.579","3.578","0.12","0.15","29.7432","4.69696","32.03","0","SATNPRO1964","27.176000000000002","0.38066","5"],
    [56295,"HCEP03730563","2025-08-05 19:45:00","10.2739","3.31304","26.986","3.084","7.5","0.536","2.294","0.12","0.14","29.7379","4.69616","33.24","0","SATNPRO1964","27.54","0.38574","5"],
    [56296,"HCEP03730563","2025-08-05 20:00:00","10.2834","3.31515","26.931","3.19","7.51","0.565","3.855","0.1","0.31","29.7511","4.69788","34.39","0","SATNPRO1964","27.704","0.38802","5"],
    [56297,"HCEP03730563","2025-08-05 20:15:00","10.2884","3.31588","26.882","3.242","7.51","0.589","3.535","0.27","0.25","29.7543","4.69826","34.96","0","SATNPRO1964","28.018","0.39244","5"],
    [56298,"HCEP03730563","2025-08-05 20:30:00","10.2937","3.31689","26.851","3.257","7.52","0.88","4.659","1.35","0.34","29.7601","4.69899","35.13","0","SATNPRO1964","27.732","0.38846","5"],
    [56299,"HCEP03730563","2025-08-05 20:45:00","10.2961","3.31672","26.838","3.327","7.52","0.514","2.91","0.1","0.1","29.7563","4.69841","35.88","0","SATNPRO1964","28.008","0.39232","5"],
    [56300,"HCEP03730563","2025-08-05 21:00:00","10.295","3.31683","26.826","3.382","7.53","0.507","3.583","0.12","0.24","29.7584","4.69874","36.47","0","SATNPRO1964","27.954","0.39156","5"],
    [56301,"HCEP03730563","2025-08-05 21:15:00","10.2943","3.31678","26.812","3.345","7.53","0.53","3.585","0.19","0.17","29.7584","4.69875","36.08","0","SATNPRO1964","27.948","0.39142","5"],
    [56302,"HCEP03730563","2025-08-05 21:30:00","10.2972","3.31682","26.816","3.375","7.53","0.408","3.079","0.06","0.72","29.7564","4.69841","36.4","0","SATNPRO1964","28.604","0.40064","5"],
    [56303,"HCEP03730563","2025-08-05 21:45:00","10.3023","3.31644","26.825","3.48","7.54","0.458","2.339","0.11","0.03","29.7485","4.6972","37.54","0","SATNPRO1964","28.89","0.40464","5"],
    [56304,"HCEP03730563","2025-08-05 22:00:00","10.304","3.31688","26.834","3.547","7.54","0.435","2.881","0.05","0.1","29.7515","4.6976","38.26","0","SATNPRO1964","28.554","0.39994","5"],
    [56305,"HCEP03730563","2025-08-05 22:15:00","10.3103","3.31724","26.844","3.664","7.55","0.444","2.487","0.08","0.1","29.7499","4.69727","39.53","0","SATNPRO1964","29.242","0.4096","5"],
    [56306,"HCEP03730563","2025-08-05 22:30:00","10.2928","3.31694","26.862","3.564","7.55","0.58","3.728","0.19","0.16","29.7613","4.69918","38.44","0","SATNPRO1964","27.94","0.39132","5"],
    [56307,"HCEP03730563","2025-08-05 22:45:00","10.2904","3.31704","26.882","3.208","7.53","0.693","4.636","0.16","1.01","29.7642","4.69964","34.6","0","SATNPRO1964","27.194","0.38092","5"],
    [56308,"HCEP03730563","2025-08-05 23:00:00","10.2948","3.31704","26.91","3.209","7.52","0.666","3.781","0.25","0.23","29.7606","4.69905","34.61","0","SATNPRO1964","28.618","0.40082","5"],
    [56309,"HCEP03730563","2025-08-05 23:15:00","10.2973","3.31803","26.936","3.213","7.52","0.852","4.398","0.66","0.1","29.7684","4.70012","34.65","0","SATNPRO1964","27.09","0.37944","5"],
    [56310,"HCEP03730563","2025-08-05 23:30:00","10.2994","3.31825","26.969","3.039","7.51","0.687","4.776","0.1","0.07","29.7688","4.70015","32.78","0","SATNPRO1964","26.962","0.37766","5"],
    [56311,"HCEP03730563","2025-08-05 23:45:00","10.3019","3.31851","27.004","3.036","7.51","0.739","5.15","0.22","0.21","29.7693","4.70019","32.75","0","SATNPRO1964","27.032","0.3786","5"],
    [56312,"HCEP03730563","2025-08-06 00:00:00","10.3029","3.31859","27.028","3.047","7.51","0.807","5.246","0.2","0.51","29.7693","4.70016","32.87","0","SATNPRO1964","26.96","0.37764","5"],
    [56313,"HCEP03730563","2025-08-06 00:15:00","10.3034","3.31866","27.058","3.04","7.51","0.854","5.352","0.32","0.3","29.7695","4.70019","32.8","0","SATNPRO1964","27.116","0.37982","5"],
    [56314,"HCEP03730563","2025-08-06 00:30:00","10.3063","3.3189","27.08","3.055","7.51","0.624","4.881","0.09","0.32","29.7695","4.70015","32.96","0","SATNPRO1964","27.096","0.3795","5"],
    [56315,"HCEP03730563","2025-08-06 00:45:00","10.307","3.31903","27.094","3.076","7.51","0.836","4.173","0.21","0.08","29.7703","4.70025","33.18","0","SATNPRO1964","27.352","0.38312","5"],
    [56316,"HCEP03730563","2025-08-06 01:00:00","10.3057","3.31883","27.095","3.102","7.51","0.734","4.529","0.13","0.19","29.7694","4.70013","33.46","0","SATNPRO1964","27.22","0.38126","5"],
    [56317,"HCEP03730563","2025-08-06 01:15:00","10.3086","3.31919","27.097","3.109","7.51","0.973","4.305","0.91","1.29","29.7706","4.70026","33.55","0","SATNPRO1964","28.11","0.39376","5"],
    [56318,"HCEP03730563","2025-08-06 01:30:00","10.3099","3.31923","27.085","3.16","7.51","0.753","3.749","0.2","0.2","29.7699","4.70015","34.09","0","SATNPRO1964","27.497999999999998","0.38514","5"],
    [56319,"HCEP03730563","2025-08-06 01:45:00","10.3066","3.31891","27.072","3.137","7.51","0.664","4.291","0.17","0.48","29.7694","4.70013","33.84","0","SATNPRO1964","27.216","0.3812","5"],
    [56320,"HCEP03730563","2025-08-06 02:00:00","10.3087","3.31913","27.05","3.126","7.51","0.614","4.144","0.05","0.1","29.7699","4.70016","33.72","0","SATNPRO1964","27.324","0.38268","5"],
    [56321,"HCEP03730563","2025-08-06 02:15:00","10.3052","3.31873","27.011","3.115","7.51","0.772","3.982","0.14","0.13","29.7688","4.70006","33.6","0","SATNPRO1964","27.434","0.38424","5"],
    [56322,"HCEP03730563","2025-08-06 02:30:00","10.3065","3.31885","26.965","3.095","7.51","0.665","3.905","0.17","0.15","29.7689","4.70005","33.39","0","SATNPRO1964","28.504","0.39926","5"],
    [56323,"HCEP03730563","2025-08-06 02:45:00","10.3299","3.32073","26.92","3.381","7.53","0.554","2.845","0.08","0.24","29.7685","4.69961","36.5","0","SATNPRO1964","29.32","0.41068","5"],
    [56324,"HCEP03730563","2025-08-06 03:00:00","10.3417","3.32126","26.867","3.84","7.56","0.461","2.486","0.06","0.17","29.7641","4.69878","41.45","0","SATNPRO1964","29.312","0.41056","5"],
    [56325,"HCEP03730563","2025-08-06 03:15:00","10.3426","3.32116","26.775","4.054","7.58","0.527","1.888","0.11","0.19","29.7625","4.69853","43.77","0","SATNPRO1964","29.936","0.41928","5"],
    [56326,"HCEP03730563","2025-08-06 03:30:00","10.341","3.32086","26.659","4.201","7.6","0.552","2.169","0.15","0.23","29.7609","4.69832","45.35","0","SATNPRO1964","30.233999999999998","0.4235","5"],
    [56327,"HCEP03730563","2025-08-06 03:45:00","10.3346","3.32039","26.575","4.168","7.6","0.5","1.768","0.07","0.12","29.7614","4.6985","44.99","0","SATNPRO1964","30.204","0.42304","5"],
    [56328,"HCEP03730563","2025-08-06 04:00:00","10.3262","3.31919","26.483","4.08","7.6","0.475","1.973","0.08","0.37","29.7565","4.69793","44.04","0","SATNPRO1964","29.868","0.41838","5"],
    [56329,"HCEP03730563","2025-08-06 04:15:00","10.3106","3.31637","26.353","3.957","7.59","4.771","55.869","3.77","30.1","29.7412","4.696","42.68","0","SATNPRO1964","29.753999999999998","0.41676","5"],
    [56330,"HCEP03730563","2025-08-06 04:30:00","10.2937","3.31504","26.184","3.757","7.58","10.051","226.783","4.06","184.67","29.7419","4.69636","40.51","0","SATNPRO1964","28.848","0.40402","5"],
    [56331,"HCEP03730563","2025-08-06 04:45:00","10.2836","3.3138","26.035","3.507","7.56","0.544","2.472","0.06","0.3","29.7379","4.69595","37.81","0","SATNPRO1964","28.163999999999998","0.3945","5"],
    [56332,"HCEP03730563","2025-08-06 05:00:00","10.2926","3.31429","25.838","3.431","7.55","0.504","2.209","0.06","0.29","29.7355","4.69544","36.99","0","SATNPRO1964","28.856","0.4042","5"],
    [56333,"HCEP03730563","2025-08-06 05:15:00","10.2911","3.31385","25.7","3.509","7.55","0.551","2.939","0.07","0.98","29.7324","4.69503","37.83","0","SATNPRO1964","28.446","0.39842","5"],
    [56334,"HCEP03730563","2025-08-06 05:30:00","10.2741","3.31248","25.512","3.325","7.54","0.571","3.451","0.1","0.95","29.7327","4.69534","35.84","0","SATNPRO1964","27.504","0.38526","5"],
    [56335,"HCEP03730563","2025-08-06 05:45:00","10.2809","3.31255","25.348","3.18","7.53","0.602","3.413","0.09","0.71","29.728","4.69454","34.28","0","SATNPRO1964","27.68","0.38774","5"],
    [56336,"HCEP03730563","2025-08-06 06:00:00","10.2762","3.31181","25.205","3.185","7.52","0.642","2.294","0.35","0.2","29.7245","4.69412","34.33","0","SATNPRO1964","27.276","0.38206","5"],
    [56337,"HCEP03730563","2025-08-06 06:15:00","10.2755","3.31097","25.013","3.15","7.52","0.52","2.028","0.07","0.11","29.7167","4.69301","33.94","0","SATNPRO1964","27.374","0.38344","5"],
    [56338,"HCEP03730563","2025-08-06 06:30:00","10.2823","3.31158","24.844","3.167","7.52","0.572","2.306","0.11","0.1","29.7174","4.69298","34.14","0","SATNPRO1964","27.226","0.38138","5"],
    [56339,"HCEP03730563","2025-08-06 06:45:00","10.2655","3.31079","24.728","3.082","7.51","0.719","4.452","0.11","0.21","29.7233","4.69409","33.21","0","SATNPRO1964","25.976","0.36388","5"],
    [56340,"HCEP03730563","2025-08-06 07:00:00","10.2645","3.30785","24.577","2.899","7.5","0.666","4.175","0.07","0.15","29.6949","4.69005","31.24","0","SATNPRO1964","26.344","0.36902","5"],
    [56341,"HCEP03730563","2025-08-06 07:15:00","10.2596","3.30988","24.417","2.827","7.49","0.668","3.448","0.09","0.21","29.7192","4.69359","30.46","0","SATNPRO1964","26.208","0.36706","5"],
    [56342,"HCEP03730563","2025-08-06 07:30:00","10.2569","3.30959","24.288","2.738","7.48","0.661","3.173","0.13","0.17","29.7186","4.69354","29.5","0","SATNPRO1964","26.372","0.36942","5"],
    [56343,"HCEP03730563","2025-08-06 07:45:00","10.2575","3.30935","24.191","2.711","7.48","0.682","3.233","0.43","0.24","29.7157","4.69311","29.21","0","SATNPRO1964","26.562","0.37206","5"],
    [56344,"HCEP03730563","2025-08-06 08:00:00","10.2574","3.30876","24.129","2.767","7.48","0.495","2.386","0.06","0.16","29.71","4.69229","29.81","0","SATNPRO1964","26.862","0.37624","5"],
    [56345,"HCEP03730563","2025-08-06 08:15:00","10.2658","3.30947","24.103","2.913","7.49","0.575","1.912","0.19","0.11","29.7101","4.69217","31.38","0","SATNPRO1964","27.566","0.38612","5"],
    [56346,"HCEP03730563","2025-08-06 08:30:00","10.2759","3.3103","24.089","3.136","7.5","0.554","2.559","0.16","0.92","29.7101","4.692","33.8","0","SATNPRO1964","27.874","0.39042","5"],
    [56347,"HCEP03730563","2025-08-06 08:45:00","10.275","3.3105","24.101","3.173","7.51","0.779","2.456","0.33","0.31","29.713","4.69243","34.2","0","SATNPRO1964","27.854","0.39014","5"],
    [56348,"HCEP03730563","2025-08-06 09:00:00","10.2643","3.3099","24.119","3.083","7.5","0.6","3.144","0.17","0.21","29.7157","4.693","33.21","0","SATNPRO1964","27.132","0.37998","5"],
    [56349,"HCEP03730563","2025-08-06 09:15:00","10.2666","3.31083","24.147","2.938","7.49","0.837","2.649","0.51","0.35","29.723","4.694","31.66","0","SATNPRO1964","26.982","0.37792","5"],
    [56350,"HCEP03730563","2025-08-06 09:30:00","10.266","3.31088","24.208","2.904","7.49","0.579","2.303","0.19","0.11","29.7241","4.69417","31.29","0","SATNPRO1964","27.202","0.381","5"],
    [56351,"HCEP03730563","2025-08-06 09:45:00","10.2678","3.31111","24.283","2.874","7.49","0.626","2.658","0.2","0.13","29.7248","4.69424","30.97","0","SATNPRO1964","26.756","0.3748","5"],
    [56352,"HCEP03730563","2025-08-06 10:00:00","10.2811","3.31249","24.385","2.966","7.49","0.621","2.505","0.2","0.2","29.7275","4.69442","31.97","0","SATNPRO1964","27.616","0.3868","5"],
    [56353,"HCEP03730563","2025-08-06 10:15:00","10.2791","3.31191","24.495","3.173","7.51","0.62","2.576","0.15","0.16","29.7234","4.69387","34.2","0","SATNPRO1964","28.294","0.39632","5"],
    [56354,"HCEP03730563","2025-08-06 10:30:00","10.2784","3.31212","24.637","3.158","7.51","0.686","3.415","0.19","0.38","29.726","4.69426","34.04","0","SATNPRO1964","27.848","0.39004","5"],
    [56355,"HCEP03730563","2025-08-06 10:45:00","10.2802","3.31163","24.8","3.092","7.51","0.538","1.945","0.12","0.11","29.7196","4.69333","33.33","0","SATNPRO1964","27.764","0.38892","5"],
    [56356,"HCEP03730563","2025-08-06 11:00:00","10.271","3.3091","24.942","3.036","7.5","0.537","3.045","0.14","0.59","29.7019","4.69096","32.71","0","SATNPRO1964","27.606","0.38668","5"],
    [56357,"HCEP03730563","2025-08-06 11:15:00","10.2739","3.31003","25.12","3.021","7.5","0.756","4.701","0.3","1.48","29.7087","4.69189","32.56","0","SATNPRO1964","27.572","0.38618","5"],
    [56358,"HCEP03730563","2025-08-06 11:30:00","10.2713","3.31068","25.277","3.027","7.5","0.992","4.498","0.81","0.34","29.7172","4.69316","32.62","0","SATNPRO1964","27.354","0.38318","5"],
    [56359,"HCEP03730563","2025-08-06 11:45:00","10.2655","3.30961","25.445","2.939","7.49","0.787","4.619","0.12","0.26","29.7113","4.69242","31.67","0","SATNPRO1964","27.428","0.3842","5"],
    [56360,"HCEP03730563","2025-08-06 12:00:00","10.2672","3.20712","25.657","3.079","7.5","0.645","3.144","0.06","0.48","28.6931","4.54689","32.97","0","SATNPRO1964","27.886","0.39056","5"],
    [56361,"HCEP03730563","2025-08-06 12:15:00","10.2589","3.27952","25.829","2.821","7.48","0.806","5.353","0.07","0.17","29.4175","4.65063","30.33","0","SATNPRO1964","24.594","0.34448","5"],
    [56362,"HCEP03730563","2025-08-06 12:30:00","10.2592","3.31059","26.022","2.329","7.45","0.819","5.809","0.08","0.16","29.7259","4.69464","25.1","0","SATNPRO1964","24.418","0.342","5"],
    [56363,"HCEP03730563","2025-08-06 12:45:00","10.2628","3.31138","26.264","2.189","7.44","0.798","5.192","0.08","0.16","29.7307","4.69528","23.59","0","SATNPRO1964","24.646","0.34522","5"],
    [56364,"HCEP03730563","2025-08-06 13:00:00","10.259","3.31031","26.43","2.184","7.43","0.788","4.865","0.14","0.4","29.7232","4.69428","23.53","0","SATNPRO1964","24.398","0.34172","5"],
    [56365,"HCEP03730563","2025-08-06 13:15:00","10.2676","3.31232","26.616","2.279","7.43","0.859","5.867","0.17","0.28","29.736","4.69598","24.56","0","SATNPRO1964","25.74","0.36052","5"],
    [56366,"HCEP03730563","2025-08-06 13:30:00","10.2664","3.31223","26.791","2.375","7.44","0.809","5.59","0.11","0.5","29.7361","4.69601","25.59","0","SATNPRO1964","25.088","0.35142","5"],
    [56367,"HCEP03730563","2025-08-06 13:45:00","10.2663","3.31218","26.912","2.327","7.44","0.852","6.266","0.11","0.44","29.7356","4.69595","25.07","0","SATNPRO1964","25.186","0.35274","5"],
    [56368,"HCEP03730563","2025-08-06 14:00:00","10.2663","3.31182","27.061","2.379","7.44","0.815","5.503","0.13","0.27","29.7319","4.69544","25.63","0","SATNPRO1964","25.66","0.35944","5"],
    [56369,"HCEP03730563","2025-08-06 14:15:00","10.2681","3.31215","27.202","2.423","7.44","0.825","5.33","0.15","0.43","29.7337","4.69567","26.11","0","SATNPRO1964","25.586000000000002","0.35842","5"],
    [56370,"HCEP03730563","2025-08-06 14:30:00","10.2708","3.31195","27.315","2.55","7.45","0.694","4.462","0.09","0.24","29.7295","4.69504","27.48","0","SATNPRO1964","26.314","0.36858","5"],
    [56371,"HCEP03730563","2025-08-06 14:45:00","10.2775","3.3135","27.399","2.695","7.46","0.802","4.92","0.21","0.35","29.7394","4.69634","29.05","0","SATNPRO1964","26.578","0.37228","5"],
    [56372,"HCEP03730563","2025-08-06 15:00:00","10.301","3.31652","27.475","2.939","7.48","0.701","4.673","0.09","0.34","29.7501","4.69749","31.7","0","SATNPRO1964","27.95","0.39148","5"],
    [56373,"HCEP03730563","2025-08-06 15:15:00","10.3208","3.31789","27.526","3.435","7.51","0.642","2.784","0.11","0.18","29.7476","4.6968","37.06","0","SATNPRO1964","29.764","0.41688","5"],
    [56374,"HCEP03730563","2025-08-06 15:30:00","10.3257","3.31869","27.557","3.794","7.54","0.769","4.584","0.13","0.64","29.7514","4.69727","40.94","0","SATNPRO1964","29.442","0.41242","5"],
    [56375,"HCEP03730563","2025-08-06 15:45:00","10.3149","3.31854","27.585","3.623","7.54","0.82","5.398","0.12","0.37","29.7587","4.6985","39.09","0","SATNPRO1964","28.444","0.3984","5"],
    [56376,"HCEP03730563","2025-08-06 16:00:00","10.3007","3.31691","27.598","3.306","7.53","0.793","5.979","0.21","0.54","29.7541","4.69807","35.66","0","SATNPRO1964","27.166","0.38052","5"],
    [56377,"HCEP03730563","2025-08-06 16:15:00","10.283","3.31483","27.615","3.01","7.51","0.708","4.998","0.11","0.36","29.748","4.6975","32.45","0","SATNPRO1964","25.791999999999998","0.36124","5"],
    [56378,"HCEP03730563","2025-08-06 16:30:00","10.2743","3.31383","27.589","2.727","7.49","0.72","5.171","0.1","0.74","29.7452","4.69724","29.39","0","SATNPRO1964","24.506","0.34322","5"],
    [56379,"HCEP03730563","2025-08-06 16:45:00","10.271","3.31358","27.585","2.622","7.48","0.83","5.776","0.22","0.36","29.7454","4.69731","28.26","0","SATNPRO1964","28.02","0.39248","5"],
    [56380,"HCEP03730563","2025-08-06 17:00:00","10.267","3.31268","27.554","2.625","7.47","0.705","4.713","0.16","0.22","29.7398","4.69658","28.29","0","SATNPRO1964","26.668","0.3735","5"],
    [56381,"HCEP03730563","2025-08-06 17:15:00","10.2667","3.3125","27.529","2.661","7.47","0.758","5.012","0.19","0.71","29.7382","4.69636","28.67","0","SATNPRO1964","26.548","0.37186","5"],
    [56382,"HCEP03730563","2025-08-06 17:30:00","10.2643","3.3125","27.493","2.626","7.47","0.832","5.717","0.43","0.32","29.7402","4.69668","28.3","0","SATNPRO1964","26.259999999999998","0.36778","5"],
    [56383,"HCEP03730563","2025-08-06 17:45:00","10.2607","3.31202","27.438","2.541","7.46","0.798","5.588","0.12","0.66","29.7384","4.69647","27.38","0","SATNPRO1964","26.084","0.36534","5"],
    [56384,"HCEP03730563","2025-08-06 18:00:00","10.2592","3.31144","27.393","2.506","7.46","0.721","6.027","0.12","0.51","29.7338","4.69584","27","0","SATNPRO1964","26.348","0.36904","5"],
    [56385,"HCEP03730563","2025-08-06 18:15:00","10.2598","3.31054","27.352","2.603","7.46","0.679","5.967","0.06","0.69","29.7245","4.6945","28.05","0","SATNPRO1964","26.746","0.3746","5"],
    [56386,"HCEP03730563","2025-08-06 18:30:00","10.2596","3.31009","27.315","2.73","7.47","0.724","5.297","0.09","0.59","29.7201","4.69388","29.41","0","SATNPRO1964","27.116","0.37982","5"],
    [56387,"HCEP03730563","2025-08-06 18:45:00","10.2591","3.30994","27.288","2.792","7.47","0.723","5.478","0.09","0.57","29.7191","4.69374","30.08","0","SATNPRO1964","27.114","0.3798","5"],
    [56388,"HCEP03730563","2025-08-06 19:00:00","10.2547","3.30909","27.244","2.795","7.47","0.72","4.918","0.13","0.54","29.7142","4.69312","30.11","0","SATNPRO1964","27.062","0.37902","5"],
    [56389,"HCEP03730563","2025-08-06 19:15:00","10.2501","3.30852","27.19","2.756","7.47","0.749","5.179","0.14","0.44","29.7124","4.69293","29.69","0","SATNPRO1964","26.843999999999998","0.376","5"],
    [56390,"HCEP03730563","2025-08-06 19:30:00","10.2462","3.30787","27.136","2.704","7.47","0.705","5.473","0.13","0.72","29.709","4.69251","29.12","0","SATNPRO1964","26.68","0.37372","5"],
    [56391,"HCEP03730563","2025-08-06 19:45:00","10.2409","3.30709","27.094","2.615","7.46","0.75","5.071","0.12","0.88","29.7057","4.69212","28.16","0","SATNPRO1964","26.176","0.36666","5"],
    [56392,"HCEP03730563","2025-08-06 20:00:00","10.2421","3.30708","27.075","2.518","7.46","0.729","4.228","0.2","0.46","29.7046","4.69194","27.12","0","SATNPRO1964","25.913999999999998","0.36296","5"],
    [56393,"HCEP03730563","2025-08-06 20:15:00","10.2431","3.30702","27.017","2.516","7.46","0.765","4.737","0.15","0.71","29.7032","4.69172","27.09","0","SATNPRO1964","26.09","0.3655","5"],
    [56394,"HCEP03730563","2025-08-06 20:30:00","10.245","3.30706","26.941","2.53","7.46","0.786","4.603","0.37","0.71","29.702","4.69152","27.24","0","SATNPRO1964","26.132","0.36606","5"],
    [56395,"HCEP03730563","2025-08-06 20:45:00","10.2481","3.30717","26.862","2.57","7.46","0.779","4.598","0.13","0.3","29.7007","4.69128","27.68","0","SATNPRO1964","26.384","0.36954","5"],
    [56396,"HCEP03730563","2025-08-06 21:00:00","10.2493","3.30717","26.791","2.603","7.46","0.752","4.441","0.11","0.32","29.6997","4.69111","28.03","0","SATNPRO1964","26.352","0.36912","5"],
    [56397,"HCEP03730563","2025-08-06 21:15:00","10.2477","3.30719","26.75","2.602","7.46","0.72","3.882","0.07","0.3","29.7012","4.69136","28.03","0","SATNPRO1964","26.308","0.36848","5"],
    [56398,"HCEP03730563","2025-08-06 21:30:00","10.2464","3.30719","26.725","2.587","7.46","0.699","3.55","0.06","0.11","29.7024","4.69153","27.86","0","SATNPRO1964","26.304","0.36848","5"],
    [56399,"HCEP03730563","2025-08-06 21:45:00","10.2463","3.30723","26.705","2.582","7.46","0.768","3.079","0.16","0.1","29.7029","4.69161","27.81","0","SATNPRO1964","26.292","0.36824","5"],
    [56400,"HCEP03730563","2025-08-06 22:00:00","10.2469","3.30731","26.702","2.591","7.46","0.715","2.858","0.11","0.19","29.7031","4.69164","27.9","0","SATNPRO1964","26.308","0.36846","5"],
    [56401,"HCEP03730563","2025-08-06 22:15:00","10.246","3.30721","26.705","2.557","7.46","0.73","3.412","0.11","0.24","29.7028","4.69161","27.54","0","SATNPRO1964","26.114","0.36578","5"],
    [56402,"HCEP03730563","2025-08-06 22:30:00","10.2458","3.30722","26.748","2.515","7.45","0.765","3.384","0.13","0.39","29.7031","4.69165","27.08","0","SATNPRO1964","25.938","0.36332","5"],
    [56403,"HCEP03730563","2025-08-06 22:45:00","10.2456","3.30723","26.752","2.468","7.45","0.779","3.382","0.11","0.22","29.7033","4.69169","26.58","0","SATNPRO1964","25.86","0.36222","5"],
    [56404,"HCEP03730563","2025-08-06 23:00:00","10.2455","3.3073","26.81","2.426","7.45","0.712","3.488","0.12","0.19","29.7041","4.69181","26.13","0","SATNPRO1964","25.886","0.36258","5"],
    [56405,"HCEP03730563","2025-08-06 23:15:00","10.246","3.30752","26.845","2.431","7.45","0.715","3.346","0.08","0.19","29.7058","4.69204","26.18","0","SATNPRO1964","25.942","0.36336","5"],
    [56406,"HCEP03730563","2025-08-06 23:30:00","10.2467","3.30787","26.856","2.436","7.45","0.726","3.817","0.09","0.2","29.7088","4.69245","26.23","0","SATNPRO1964","25.772","0.361","5"],
    [56407,"HCEP03730563","2025-08-06 23:45:00","10.2475","3.30814","26.919","2.424","7.45","0.778","3.576","0.12","0.23","29.7107","4.69272","26.11","0","SATNPRO1964","25.82","0.36166","5"],
    [56408,"HCEP03730563","2025-08-07 00:00:00","10.2493","3.30837","26.987","2.448","7.45","0.812","3.47","0.26","0.21","29.7116","4.69282","26.36","0","SATNPRO1964","26.192","0.36686","5"],
    [56409,"HCEP03730563","2025-08-07 00:15:00","10.2504","3.30865","27.011","2.474","7.45","0.813","4.077","0.08","0.24","29.7135","4.69307","26.65","0","SATNPRO1964","25.944","0.36338","5"],
    [56410,"HCEP03730563","2025-08-07 00:30:00","10.2533","3.30902","27.037","2.528","7.45","0.819","3.54","0.15","0.43","29.7148","4.69321","27.23","0","SATNPRO1964","26.306","0.36848","5"],
    [56411,"HCEP03730563","2025-08-07 00:45:00","10.255","3.30931","27.08","2.588","7.46","0.929","3.736","0.11","0.32","29.7162","4.69339","27.88","0","SATNPRO1964","26.378","0.36948","5"],
    [56412,"HCEP03730563","2025-08-07 01:00:00","10.2574","3.30953","27.14","2.612","7.46","0.842","3.372","0.21","0.21","29.7165","4.69339","28.14","0","SATNPRO1964","26.506","0.37126","5"],
    [56413,"HCEP03730563","2025-08-07 01:15:00","10.2581","3.30957","27.172","2.621","7.46","0.881","3.514","0.15","0.38","29.7162","4.69335","28.24","0","SATNPRO1964","26.394","0.3697","5"],
    [56414,"HCEP03730563","2025-08-07 01:30:00","10.2583","3.30959","27.199","2.611","7.46","0.968","3.254","0.46","0.17","29.7162","4.69334","28.13","0","SATNPRO1964","26.244","0.3676","5"],
    [56415,"HCEP03730563","2025-08-07 01:45:00","10.261","3.30997","27.228","2.617","7.46","0.881","3.24","0.11","0.25","29.7178","4.69352","28.2","0","SATNPRO1964","26.426000000000002","0.37012","5"],
    [56416,"HCEP03730563","2025-08-07 02:00:00","10.2668","3.31084","27.219","2.686","7.46","0.949","3.534","0.11","0.22","29.7217","4.69399","28.94","0","SATNPRO1964","26.698","0.37396","5"],
    [56417,"HCEP03730563","2025-08-07 02:15:00","10.2676","3.31108","27.228","2.73","7.47","0.885","3.651","0.09","0.72","29.7235","4.69422","29.42","0","SATNPRO1964","26.669999999999998","0.37356","5"],
    [56418,"HCEP03730563","2025-08-07 02:30:00","10.2679","3.31119","27.235","2.728","7.47","0.876","3.564","0.08","0.15","29.7243","4.69434","29.4","0","SATNPRO1964","26.674","0.37362","5"],
    [56419,"HCEP03730563","2025-08-07 02:45:00","10.2725","3.31193","27.197","2.728","7.47","0.925","3.923","0.16","0.24","29.7279","4.69478","29.4","0","SATNPRO1964","26.822","0.37568","5"],
    [56420,"HCEP03730563","2025-08-07 03:00:00","10.2876","3.31373","27.14","2.856","7.48","0.938","3.965","0.09","0.21","29.7335","4.69532","30.79","0","SATNPRO1964","27.744","0.3886","5"],
    [56421,"HCEP03730563","2025-08-07 03:15:00","10.3024","3.31508","27.136","3.101","7.49","1.093","4.052","0.16","0.35","29.7348","4.69526","33.45","0","SATNPRO1964","28.258","0.39574","5"],
    [56422,"HCEP03730563","2025-08-07 03:30:00","10.3021","3.31433","27.096","3.233","7.51","0.967","3.906","0.07","0.21","29.7276","4.69424","34.87","0","SATNPRO1964","28.124000000000002","0.39396","5"],
    [56423,"HCEP03730563","2025-08-07 03:45:00","10.2978","3.31339","26.996","3.208","7.51","1.042","3.97","0.13","0.19","29.721800000000002","4.69347","34.59","0","SATNPRO1964","27.852","0.3901","5"],
    [56424,"HCEP03730563","2025-08-07 04:00:00","10.2936","3.31268","26.915","3.111","7.5","1.019","3.828","0.23","0.18","29.7182","4.69303","33.54","0","SATNPRO1964","27.4","0.38378","5"],
    [56425,"HCEP03730563","2025-08-07 04:15:00","10.2888","3.31217","26.807","2.989","7.5","0.988","3.402","0.21","0.27","29.7171","4.69294","32.22","0","SATNPRO1964","27.008","0.3783","5"],
    [56426,"HCEP03730563","2025-08-07 04:30:00","10.286","3.31192","26.69","2.874","7.49","0.963","3.983","0.13","0.51","29.717","4.69297","30.98","0","SATNPRO1964","26.884","0.37656","5"],
    [56427,"HCEP03730563","2025-08-07 04:45:00","10.2832","3.31161","26.546","2.774","7.48","0.959","3.836","0.12","0.52","29.7163","4.6929","29.91","0","SATNPRO1964","26.462","0.37068","5"],
    [56428,"HCEP03730563","2025-08-07 05:00:00","10.2819","3.31145","26.411","2.695","7.47","0.967","3.84","0.13","0.25","29.7158","4.69284","29.05","0","SATNPRO1964","26.26","0.36782","5"],
    [56429,"HCEP03730563","2025-08-07 05:15:00","10.2837","3.31149","26.242","2.646","7.47","0.952","3.917","0.08","0.23","29.7148","4.69266","28.52","0","SATNPRO1964","26.14","0.36612","5"],
    [56430,"HCEP03730563","2025-08-07 05:30:00","10.2872","3.31189","26.087","2.606","7.47","1.107","4.37","0.34","0.37","29.7159","4.69276","28.1","0","SATNPRO1964","25.89","0.36264","5"],
    [56431,"HCEP03730563","2025-08-07 05:45:00","10.3034","3.31357","25.914","2.495","7.46","1.058","4.736","0.08","0.23","29.7194","4.69299","26.91","0","SATNPRO1964","25.384","0.35556","5"],
    [56432,"HCEP03730563","2025-08-07 06:00:00","10.3173","3.3151","25.721","2.396","7.45","1.043","4.234","0.09","0.32","29.7234","4.69331","25.85","0","SATNPRO1964","25.14","0.35212","5"],
    [56433,"HCEP03730563","2025-08-07 06:15:00","10.3232","3.31569","25.491","2.371","7.45","1.074","4.116","0.16","0.16","29.7246","4.69337","25.58","0","SATNPRO1964","25.136","0.3521","5"],
    [56434,"HCEP03730563","2025-08-07 06:30:00","10.3362","3.31713","25.299","2.411","7.45","1.021","4.025","0.09","0.27","29.7282","4.69367","26.02","0","SATNPRO1964","25.524","0.35752","5"],
    [56435,"HCEP03730563","2025-08-07 06:45:00","10.3448","3.31801","25.131","2.494","7.45","1.089","4.082","0.15","0.3","29.73","4.69377","26.92","0","SATNPRO1964","25.708","0.36008","5"],
    [56436,"HCEP03730563","2025-08-07 07:00:00","10.3438","3.31798","24.948","2.551","7.46","1.189","3.935","0.59","1.68","29.7306","4.69387","27.54","0","SATNPRO1964","25.772","0.36102","5"],
    [56437,"HCEP03730563","2025-08-07 07:15:00","10.3466","3.31827","24.742","2.575","7.46","1.012","3.622","0.13","0.18","29.7313","4.6939","27.79","0","SATNPRO1964","25.804000000000002","0.36148","5"],
    [56438,"HCEP03730563","2025-08-07 07:30:00","10.3476","3.31835","24.575","2.595","7.46","1.022","3.665","0.13","0.17","29.7314","4.69389","28.02","0","SATNPRO1964","25.964","0.36364","5"],
    [56439,"HCEP03730563","2025-08-07 07:45:00","10.3487","3.31846","24.431","2.608","7.46","1.048","3.732","0.15","0.34","29.7316","4.69389","28.16","0","SATNPRO1964","26","0.3642","5"],
    [56440,"HCEP03730563","2025-08-07 08:00:00","10.3485","3.31845","24.277","2.62","7.46","0.964","3.806","0.1","0.17","29.7317","4.6939","28.28","0","SATNPRO1964","26.112000000000002","0.36576","5"],
    [56441,"HCEP03730563","2025-08-07 08:15:00","10.349","3.3185","24.136","2.629","7.47","0.999","3.46","0.09","0.14","29.7319","4.69391","28.39","0","SATNPRO1964","25.938","0.36332","5"],
    [56442,"HCEP03730563","2025-08-07 08:30:00","10.3535","3.31899","24.036","2.664","7.47","0.965","3.319","0.13","0.28","29.7331","4.694","28.76","0","SATNPRO1964","26.162","0.36642","5"],
    [56443,"HCEP03730563","2025-08-07 08:45:00","10.3527","3.31888","23.969","2.686","7.47","1.136","3.431","0.21","0.12","29.7327","4.69396","29.01","0","SATNPRO1964","26.188","0.36682","5"],
    [56444,"HCEP03730563","2025-08-07 09:00:00","10.3513","3.3188","23.955","2.657","7.47","1.12","3.487","0.24","0.29","29.733","4.69402","28.69","0","SATNPRO1964","25.928","0.36312","5"],
    [56445,"HCEP03730563","2025-08-07 09:15:00","10.345","3.31811","23.914","2.589","7.47","1.083","3.899","0.13","0.41","29.7314","4.6939","27.95","0","SATNPRO1964","25.8","0.36138","5"],
    [56446,"HCEP03730563","2025-08-07 09:30:00","10.3381","3.31743","23.929","2.509","7.46","1.101","3.569","0.13","0.19","29.7302","4.69385","27.08","0","SATNPRO1964","25.552","0.35792","5"],
    [56447,"HCEP03730563","2025-08-07 09:45:00","10.3367","3.31724","23.966","2.457","7.45","1.075","3.488","0.17","0.16","29.7295","4.69377","26.52","0","SATNPRO1964","25.509999999999998","0.35732","5"],
    [56448,"HCEP03730563","2025-08-07 10:00:00","10.3322","3.31684","24.028","2.439","7.45","1.102","3.83","0.15","0.36","29.7292","4.6938","26.32","0","SATNPRO1964","25.494","0.35706","5"],
    [56449,"HCEP03730563","2025-08-07 10:15:00","10.3345","3.31706","24.119","2.439","7.45","1.011","3.502","0.1","0.2","29.7294","4.6938","26.32","0","SATNPRO1964","25.584","0.35836","5"],
    [56450,"HCEP03730563","2025-08-07 10:30:00","10.3308","3.31668","24.206","2.442","7.45","0.98","3.449","0.17","0.17","29.7286","4.69375","26.36","0","SATNPRO1964","25.508","0.3573","5"],
    [56451,"HCEP03730563","2025-08-07 10:45:00","10.3277","3.31641","24.358","2.452","7.45","2.804","29.592","1.35","15.9","29.7284","4.69378","26.46","0","SATNPRO1964","25.59","0.35842","5"],
    [56452,"HCEP03730563","2025-08-07 11:00:00","10.3294","3.31656","24.498","2.468","7.45","0.92","3.281","0.11","0.15","29.7285","4.69377","26.64","0","SATNPRO1964","25.568","0.3581","5"],
    [56453,"HCEP03730563","2025-08-07 11:15:00","10.3297","3.31665","24.67","2.498","7.45","0.907","3.038","0.08","0.12","29.729","4.69386","26.96","0","SATNPRO1964","25.796","0.36134","5"],
    [56454,"HCEP03730563","2025-08-07 11:30:00","10.3282","3.31654","24.828","2.501","7.45","1.032","3.225","0.33","0.1","29.7292","4.69391","26.99","0","SATNPRO1964","25.637999999999998","0.3591","5"],
    [56455,"HCEP03730563","2025-08-07 11:45:00","10.3057","3.31397","24.986","2.479","7.45","0.948","2.992","0.11","0.18","29.722","4.69326","26.74","0","SATNPRO1964","25.762","0.36086","5"],
    [56456,"HCEP03730563","2025-08-07 12:00:00","10.3051","3.30775","25.115","2.46","7.45","0.992","3.847","0.11","0.29","29.6606","4.68452","26.52","0","SATNPRO1964","26.355999999999998","0.36916","5"],
    [56457,"HCEP03730563","2025-08-07 12:15:00","10.3028","3.1378","25.303","2.415","7.45","0.932","3.726","0.1","0.47","27.9808","4.44412","25.75","0","SATNPRO1964","26.304","0.36846","5"],
    [56458,"HCEP03730563","2025-08-07 12:30:00","10.3033","3.07101","25.478","2.35","7.44","0.95","3.622","0.13","0.34","27.3229","4.34946","24.96","0","SATNPRO1964","26.704","0.37402","5"],
    [56459,"HCEP03730563","2025-08-07 12:45:00","10.3026","3.06936","25.68","2.276","7.44","1.106","5.187","0.19","1.85","27.3072","4.34722","24.17","0","SATNPRO1964","26.53","0.37164","5"],
    [56460,"HCEP03730563","2025-08-07 13:00:00","10.3027","3.06824","25.9","2.2","7.43","0.987","5.834","0.15","2.87","27.2961","4.34562","23.36","0","SATNPRO1964","26.798","0.37536","5"],
    [56461,"HCEP03730563","2025-08-07 13:15:00","10.3091","3.10612","26.096","2.117","7.43","1.039","4.991","0.13","0.4","27.6636","4.39847","22.54","0","SATNPRO1964","26.093999999999998","0.36546","5"],
    [56462,"HCEP03730563","2025-08-07 13:30:00","10.3105","3.08288","26.299","2.026","7.42","0.917","4.38","0.07","0.34","27.4339","4.36538","21.54","0","SATNPRO1964","26.637999999999998","0.37308","5"],
    [56463,"HCEP03730563","2025-08-07 13:45:00","10.3062","3.00416","26.486","1.917","7.42","0.956","4.392","0.11","0.21","26.6647","4.25444","20.28","0","SATNPRO1964","27.244","0.38158","5"],
    [56464,"HCEP03730563","2025-08-07 14:00:00","10.3028","3.3135","26.713","2.078","7.42","0.916","4.712","0.11","0.49","29.7189","4.69297","22.41","0","SATNPRO1964","26.964","0.3777","5"],
    [56465,"HCEP03730563","2025-08-07 14:15:00","10.3049","3.29959","26.876","2.585","7.45","1.53","13.811","1.15","19.41","29.579","4.67299","27.85","0","SATNPRO1964","26.732","0.37444","5"],
    [56466,"HCEP03730563","2025-08-07 14:30:00","10.3057","3.31377","27.022","2.683","7.46","0.94","5.055","0.11","0.28","29.7192","4.69297","28.93","0","SATNPRO1964","26.914","0.37694","5"],
    [56467,"HCEP03730563","2025-08-07 14:45:00","10.3059","3.31393","27.168","2.757","7.47","0.928","4.293","0.08","0.19","29.7204","4.69316","29.73","0","SATNPRO1964","27.002","0.37824","5"],
    [56468,"HCEP03730563","2025-08-07 15:00:00","10.3057","3.31391","27.291","2.809","7.47","0.913","4.397","0.1","0.26","29.7205","4.69318","30.3","0","SATNPRO1964","27.21","0.38116","5"],
    [56469,"HCEP03730563","2025-08-07 15:15:00","10.3035","3.31394","27.411","2.841","7.48","0.99","4.34","0.12","0.32","29.7224","4.6935","30.64","0","SATNPRO1964","27.37","0.38336","5"],
    [56470,"HCEP03730563","2025-08-07 15:30:00","10.3033","3.31407","27.488","2.879","7.48","0.988","4.194","0.12","0.52","29.7239","4.69371","31.04","0","SATNPRO1964","27.486","0.38498","5"],
    [56471,"HCEP03730563","2025-08-07 15:45:00","10.3033","3.31432","27.557","2.92","7.48","1.088","5.196","0.13","1.05","29.7263","4.69406","31.49","0","SATNPRO1964","27.802","0.38942","5"],
    [56472,"HCEP03730563","2025-08-07 16:00:00","10.3024","3.31428","27.605","2.949","7.49","1.024","4.617","0.1","0.15","29.7267","4.69414","31.8","0","SATNPRO1964","27.656","0.38734","5"],
    [56473,"HCEP03730563","2025-08-07 16:15:00","10.2989","3.31396","27.643","2.956","7.49","1.035","4.72","0.17","0.48","29.7263","4.69414","31.87","0","SATNPRO1964","27.654","0.38734","5"],
    [56474,"HCEP03730563","2025-08-07 16:30:00","10.2934","3.31328","27.657","2.931","7.49","1.044","4.359","0.16","0.36","29.7241","4.69392","31.61","0","SATNPRO1964","27.436","0.3843","5"],
    [56475,"HCEP03730563","2025-08-07 16:45:00","10.2888","3.31283","27.676","2.895","7.49","1.126","4.637","0.27","1.57","29.7233","4.69388","31.21","0","SATNPRO1964","27.292","0.38226","5"],
    [56476,"HCEP03730563","2025-08-07 17:00:00","10.2863","3.31269","27.693","2.853","7.48","1.077","4.339","0.26","0.39","29.724","4.69402","30.76","0","SATNPRO1964","27.3","0.3824","5"],
    [56477,"HCEP03730563","2025-08-07 17:15:00","10.2828","3.31228","27.704","2.806","7.48","1.099","4.634","0.21","0.86","29.7228","4.6939","30.25","0","SATNPRO1964","26.986","0.378","5"],
    [56478,"HCEP03730563","2025-08-07 17:30:00","10.2764","3.31135","27.717","2.734","7.47","1.116","5.86","0.3","5.31","29.7187","4.69343","29.47","0","SATNPRO1964","26.944","0.37738","5"],
    [56479,"HCEP03730563","2025-08-07 17:45:00","10.2712","3.31047","27.724","2.632","7.47","1.073","4.881","0.15","1.16","29.7142","4.69288","28.37","0","SATNPRO1964","26.504","0.37122","5"],
    [56480,"HCEP03730563","2025-08-07 18:00:00","10.2737","3.31066","27.714","2.563","7.46","1.123","3.993","0.24","0.34","29.7141","4.69282","27.62","0","SATNPRO1964","26.54","0.37172","5"],
    [56481,"HCEP03730563","2025-08-07 18:15:00","10.2752","3.31043","27.661","2.54","7.46","1.075","4.29","0.21","0.46","29.7106","4.69229","27.37","0","SATNPRO1964","26.476","0.37084","5"],
    [56482,"HCEP03730563","2025-08-07 18:30:00","10.2744","3.31018","27.62","2.514","7.46","0.918","4.216","0.13","0.28","29.7087","4.69204","27.1","0","SATNPRO1964","26.368","0.3693","5"],
    [56483,"HCEP03730563","2025-08-07 18:45:00","10.2736","3.30996","27.58","2.481","7.45","1.037","4.517","0.21","0.53","29.7073","4.69184","26.74","0","SATNPRO1964","26.27","0.36798","5"],
    [56484,"HCEP03730563","2025-08-07 19:00:00","10.2731","3.30977","27.518","2.448","7.45","0.95","4.788","0.14","0.51","29.7058","4.69164","26.38","0","SATNPRO1964","26.056","0.36498","5"],
    [56485,"HCEP03730563","2025-08-07 19:15:00","10.2718","3.30961","27.427","2.405","7.45","1.054","5.435","0.13","0.96","29.7053","4.69157","25.92","0","SATNPRO1964","26.03","0.36456","5"],
    [56486,"HCEP03730563","2025-08-07 19:30:00","10.2707","3.30943","27.335","2.373","7.44","1.016","4.583","0.13","0.5","29.7044","4.69147","25.57","0","SATNPRO1964","25.922","0.3631","5"],
    [56487,"HCEP03730563","2025-08-07 19:45:00","10.27","3.30942","27.262","2.368","7.44","1.029","4.51","0.17","1.75","29.7049","4.69155","25.51","0","SATNPRO1964","25.884","0.36256","5"],
    [56488,"HCEP03730563","2025-08-07 20:00:00","10.2708","3.3095","27.175","2.368","7.44","1.04","4.039","0.21","0.37","29.7052","4.69156","25.52","0","SATNPRO1964","25.92","0.36306","5"],
    [56489,"HCEP03730563","2025-08-07 20:15:00","10.2707","3.3095","27.092","2.371","7.44","1.013","4.284","0.16","0.32","29.7053","4.69158","25.55","0","SATNPRO1964","26","0.36416","5"],
    [56490,"HCEP03730563","2025-08-07 20:30:00","10.2717","3.30962","27.012","2.367","7.44","1.016","4.199","0.18","0.39","29.7057","4.6916","25.51","0","SATNPRO1964","26.218","0.36728","5"],
    [56491,"HCEP03730563","2025-08-07 20:45:00","10.2766","3.31005","26.922","2.396","7.44","1.027","3.58","0.26","0.25","29.706","4.69157","25.82","0","SATNPRO1964","26.158","0.36642","5"],
    [56492,"HCEP03730563","2025-08-07 21:00:00","10.2786","3.31029","26.813","2.431","7.44","0.915","3.46","0.15","0.26","29.7068","4.69164","26.2","0","SATNPRO1964","26.194","0.36688","5"],
    [56493,"HCEP03730563","2025-08-07 21:15:00","10.2777","3.31019","26.746","2.442","7.44","0.974","3.975","0.11","0.36","29.7066","4.69163","26.32","0","SATNPRO1964","26.114","0.3658","5"],
    [56494,"HCEP03730563","2025-08-07 21:30:00","10.2775","3.31025","26.706","2.434","7.44","0.88","3.96","0.09","0.14","29.7073","4.69173","26.23","0","SATNPRO1964","26.158","0.36634","5"],
    [56495,"HCEP03730563","2025-08-07 21:45:00","10.2786","3.31037","26.655","2.441","7.45","0.944","4.243","0.13","0.59","29.7076","4.69175","26.3","0","SATNPRO1964","26.214","0.36712","5"],
    [56496,"HCEP03730563","2025-08-07 22:00:00","10.2799","3.31057","26.601","2.471","7.45","0.942","4.03","0.23","0.47","29.7086","4.69186","26.63","0","SATNPRO1964","26.324","0.3687","5"],
    [56497,"HCEP03730563","2025-08-07 22:15:00","10.2777","3.31022","26.581","2.459","7.45","0.986","3.925","0.19","0.34","29.707","4.69167","26.51","0","SATNPRO1964","26.009999999999998","0.36428","5"],
    [56498,"HCEP03730563","2025-08-07 22:30:00","10.2734","3.30968","26.575","2.398","7.44","1.054","4.173","0.32","0.26","29.7051","4.69147","25.84","0","SATNPRO1964","25.924","0.36306","5"],
    [56499,"HCEP03730563","2025-08-07 22:45:00","10.2722","3.30958","26.588","2.339","7.44","0.983","3.869","0.13","0.18","29.7051","4.69149","25.21","0","SATNPRO1964","25.84","0.36192","5"],
    [56500,"HCEP03730563","2025-08-07 23:00:00","10.2745","3.30989","26.624","2.353","7.44","0.946","3.516","0.13","0.16","29.7062","4.69162","25.36","0","SATNPRO1964","25.894","0.36272","5"],
    [56501,"HCEP03730563","2025-08-07 23:15:00","10.2705","3.30938","26.674","2.347","7.44","1.045","3.845","0.14","0.22","29.7044","4.69143","25.29","0","SATNPRO1964","25.86","0.36218","5"],
    [56502,"HCEP03730563","2025-08-07 23:30:00","10.2708","3.30945","26.702","2.303","7.44","0.936","3.648","0.08","0.16","29.7048","4.69148","24.82","0","SATNPRO1964","25.822","0.36164","5"],
    [56503,"HCEP03730563","2025-08-07 23:45:00","10.2717","3.30956","26.784","2.305","7.43","0.927","3.439","0.09","0.17","29.7052","4.69153","24.84","0","SATNPRO1964","25.81","0.36148","5"],
    [56504,"HCEP03730563","2025-08-08 00:00:00","10.2723","3.30966","26.826","2.311","7.43","0.965","3.532","0.09","0.24","29.7056","4.69158","24.91","0","SATNPRO1964","25.796","0.36132","5"],
    [56505,"HCEP03730563","2025-08-08 00:15:00","10.2732","3.3098","26.883","2.323","7.44","0.988","3.497","0.12","0.25","29.7063","4.69166","25.04","0","SATNPRO1964","25.78","0.36108","5"],
    [56506,"HCEP03730563","2025-08-08 00:30:00","10.274","3.30986","26.926","2.342","7.44","1.041","3.391","0.27","0.31","29.7062","4.69164","25.24","0","SATNPRO1964","25.902","0.36282","5"],
    [56507,"HCEP03730563","2025-08-08 00:45:00","10.2744","3.30994","26.985","2.353","7.44","1.001","3.452","0.08","0.11","29.7067","4.69171","25.36","0","SATNPRO1964","25.958000000000002","0.36358","5"],
    [56508,"HCEP03730563","2025-08-08 01:00:00","10.275","3.31008","27","2.366","7.44","0.983","3.493","0.09","0.13","29.7076","4.69183","25.5","0","SATNPRO1964","26.058","0.365","5"],
    [56509,"HCEP03730563","2025-08-08 01:15:00","10.277","3.31037","27.068","2.383","7.44","1.089","3.723","0.14","0.14","29.7088","4.69197","25.68","0","SATNPRO1964","25.98","0.36392","5"],
    [56510,"HCEP03730563","2025-08-08 01:30:00","10.2774","3.31049","27.13","2.4","7.44","1.069","3.782","0.15","0.38","29.7096","4.69208","25.87","0","SATNPRO1964","26.154","0.36632","5"],
    [56511,"HCEP03730563","2025-08-08 01:45:00","10.2785","3.31068","27.179","2.414","7.44","1.121","4.027","0.15","0.38","29.7107","4.69222","26.02","0","SATNPRO1964","26.246","0.36764","5"],
    [56512,"HCEP03730563","2025-08-08 02:00:00","10.2797","3.31081","27.217","2.435","7.44","1.061","3.755","0.1","0.17","29.7109","4.69223","26.24","0","SATNPRO1964","26.258","0.36778","5"],
    [56513,"HCEP03730563","2025-08-08 02:15:00","10.2816","3.3111","27.262","2.465","7.45","1.113","3.635","0.15","0.3","29.7122","4.69238","26.56","0","SATNPRO1964","26.34","0.36898","5"],
    [56514,"HCEP03730563","2025-08-08 02:30:00","10.2856","3.31179","27.288","2.512","7.45","1.111","3.612","0.14","0.26","29.7158","4.69284","27.08","0","SATNPRO1964","26.426","0.37018","5"],
    [56515,"HCEP03730563","2025-08-08 02:45:00","10.2892","3.31243","27.323","2.572","7.45","1.157","3.502","0.13","0.24","29.7192","4.69327","27.73","0","SATNPRO1964","26.786","0.37516","5"],
    [56516,"HCEP03730563","2025-08-08 03:00:00","10.2934","3.31315","27.311","2.636","7.46","1.134","3.542","0.17","0.2","29.7229","4.69372","28.42","0","SATNPRO1964","26.91","0.37694","5"],
    [56517,"HCEP03730563","2025-08-08 03:15:00","10.299","3.31403","27.322","2.701","7.46","1.288","3.713","0.23","1.02","29.7271","4.69424","29.13","0","SATNPRO1964","27.09","0.37944","5"],
    [56518,"HCEP03730563","2025-08-08 03:30:00","10.305","3.31491","27.307","2.77","7.47","1.214","3.72","0.22","0.75","29.7309","4.69468","29.87","0","SATNPRO1964","27.34","0.38296","5"],
    [56519,"HCEP03730563","2025-08-08 03:45:00","10.3102","3.31572","27.292","2.838","7.48","1.26","3.708","0.14","0.59","29.7347","4.69513","30.62","0","SATNPRO1964","27.362","0.38326","5"],
    [56520,"HCEP03730563","2025-08-08 04:00:00","10.3129","3.31605","27.26","2.887","7.48","1.219","3.668","0.15","0.38","29.7358","4.69525","31.14","0","SATNPRO1964","27.712","0.3882","5"],
    [56521,"HCEP03730563","2025-08-08 04:15:00","10.3143","3.3162","27.186","2.924","7.48","1.353","3.367","0.27","0.23","29.7362","4.69527","31.55","0","SATNPRO1964","27.698","0.38798","5"],
    [56522,"HCEP03730563","2025-08-08 04:30:00","10.3177","3.31659","27.11","2.944","7.49","1.159","3.494","0.13","0.27","29.7373","4.69537","31.77","0","SATNPRO1964","27.636","0.38708","5"],
    [56523,"HCEP03730563","2025-08-08 04:45:00","10.3208","3.31704","27.011","2.977","7.49","1.211","3.078","0.19","0.21","29.7393","4.69559","32.12","0","SATNPRO1964","27.71","0.38812","5"],
    [56524,"HCEP03730563","2025-08-08 05:00:00","10.3202","3.31692","26.897","2.997","7.49","1.23","3.5","0.22","0.41","29.7386","4.6955","32.34","0","SATNPRO1964","27.8","0.3894","5"],
    [56525,"HCEP03730563","2025-08-08 05:15:00","10.3226","3.31718","26.765","3.01","7.49","1.156","3.484","0.11","0.51","29.7393","4.69555","32.48","0","SATNPRO1964","27.918","0.39104","5"],
    [56526,"HCEP03730563","2025-08-08 05:30:00","10.3225","3.31708","26.598","3.024","7.5","1.228","3.221","0.41","0.41","29.7384","4.69542","32.63","0","SATNPRO1964","27.858","0.39018","5"],
    [56527,"HCEP03730563","2025-08-08 05:45:00","10.3192","3.31661","26.433","3.001","7.5","1.148","3.746","0.18","0.47","29.7364","4.69518","32.38","0","SATNPRO1964","27.962","0.39168","5"],
    [56528,"HCEP03730563","2025-08-08 06:00:00","10.3185","3.31637","26.248","2.958","7.49","1.142","3.624","0.19","0.34","29.7348","4.69495","31.92","0","SATNPRO1964","27.6","0.38656","5"],
    [56529,"HCEP03730563","2025-08-08 06:15:00","10.3178","3.31626","26.055","2.926","7.49","1.201","3.947","0.25","0.23","29.7343","4.69488","31.57","0","SATNPRO1964","27.572","0.38616","5"],
    [56530,"HCEP03730563","2025-08-08 06:30:00","10.3187","3.3163","25.851","2.908","7.49","1.213","3.737","0.21","0.45","29.7341","4.69483","31.38","0","SATNPRO1964","27.504","0.38528","5"],
    [56531,"HCEP03730563","2025-08-08 06:45:00","10.3184","3.31632","25.64","2.904","7.49","1.189","3.297","0.2","0.16","29.7346","4.69488","31.33","0","SATNPRO1964","27.636","0.38708","5"],
    [56532,"HCEP03730563","2025-08-08 07:00:00","10.3185","3.31634","25.442","2.901","7.49","1.129","3.486","0.21","0.39","29.7349","4.69491","31.3","0","SATNPRO1964","27.439999999999998","0.38438","5"],
    [56533,"HCEP03730563","2025-08-08 07:15:00","10.3193","3.31651","25.235","2.899","7.49","1.153","3.449","0.15","0.37","29.736","4.69504","31.28","0","SATNPRO1964","27.64","0.38716","5"],
    [56534,"HCEP03730563","2025-08-08 07:30:00","10.3214","3.31686","25.032","2.917","7.49","1.143","3.483","0.23","0.39","29.7378","4.69527","31.47","0","SATNPRO1964","27.776","0.38908","5"],
    [56535,"HCEP03730563","2025-08-08 07:45:00","10.3227","3.31714","24.82","2.926","7.49","1.156","4.019","0.16","0.23","29.7396","4.69547","31.58","0","SATNPRO1964","27.695999999999998","0.38796","5"],
    [56536,"HCEP03730563","2025-08-08 08:00:00","10.3283","3.31815","24.633","2.952","7.49","1.112","3.322","0.17","0.13","29.7451","4.69616","31.86","0","SATNPRO1964","27.702","0.38806","5"],
    [56537,"HCEP03730563","2025-08-08 08:15:00","10.3313","3.31868","24.443","2.995","7.49","1.132","3.256","0.12","0.26","29.748","4.69652","32.33","0","SATNPRO1964","27.84","0.38996","5"],
    [56538,"HCEP03730563","2025-08-08 08:30:00","10.3336","3.31917","24.25","3.019","7.5","1.283","3.286","0.47","0.32","29.751","4.6969","32.59","0","SATNPRO1964","27.934","0.39128","5"],
    [56539,"HCEP03730563","2025-08-08 08:45:00","10.3355","3.31972","24.098","3.016","7.5","1.284","3.769","0.23","0.27","29.7549","4.69742","32.56","0","SATNPRO1964","28.224","0.39534","5"],
    [56540,"HCEP03730563","2025-08-08 09:00:00","10.3399","3.3201","23.961","3.069","7.5","1.116","2.358","0.24","0.19","29.7552","4.69737","33.13","0","SATNPRO1964","28.234","0.39546","5"],
    [56541,"HCEP03730563","2025-08-08 09:15:00","10.3557","3.32237","23.846","3.194","7.51","1.089","2.523","0.17","0.19","29.765","4.6985","34.49","0","SATNPRO1964","28.79","0.40324","5"],
    [56542,"HCEP03730563","2025-08-08 09:30:00","10.3661","3.32379","23.779","3.312","7.52","1.141","2.972","0.25","0.25","29.7705","4.69912","35.78","0","SATNPRO1964","29.436","0.41228","5"],
    [56543,"HCEP03730563","2025-08-08 09:45:00","10.3671","3.32418","23.743","3.334","7.52","1.148","3.282","0.18","0.13","29.7736","4.69954","36.01","0","SATNPRO1964","28.75","0.40272","5"],
    [56544,"HCEP03730563","2025-08-08 10:00:00","10.3785","3.32579","23.757","3.355","7.53","1.059","3.466","0.27","0.27","29.7802","4.70029","36.26","0","SATNPRO1964","28.714","0.4022","5"],
    [56545,"HCEP03730563","2025-08-08 10:15:00","10.388","3.32707","23.773","3.438","7.54","1.026","3.226","0.15","0.24","29.7851","4.70085","37.16","0","SATNPRO1964","29.34","0.41094","5"],
    [56546,"HCEP03730563","2025-08-08 10:30:00","10.3947","3.32792","23.828","3.519","7.54","1.01","3.089","0.25","0.35","29.788","4.70115","38.04","0","SATNPRO1964","29.16","0.40844","5"],
    [56547,"HCEP03730563","2025-08-08 10:45:00","10.3986","3.32852","23.87","3.563","7.55","1.029","3.15","0.17","0.21","29.7909","4.7015","38.52","0","SATNPRO1964","29.372","0.4114","5"],
    [56548,"HCEP03730563","2025-08-08 11:00:00","10.399","3.32878","23.963","3.574","7.55","0.958","3.383","0.1","0.85","29.7929","4.70179","38.64","0","SATNPRO1964","29.218","0.40922","5"],
    [56549,"HCEP03730563","2025-08-08 11:15:00","10.3995","3.32883","24.08","3.561","7.55","1.068","3.346","0.23","0.21","29.793","4.7018","38.5","0","SATNPRO1964","29.306","0.4105","5"],
    [56550,"HCEP03730563","2025-08-08 11:30:00","10.4031","3.32935","24.238","3.564","7.55","1.035","3.426","0.2","0.29","29.7952","4.70206","38.53","0","SATNPRO1964","29.378","0.4115","5"],
    [56551,"HCEP03730563","2025-08-08 11:45:00","10.4065","3.32981","24.381","3.586","7.56","0.99","3.028","0.17","0.16","29.7969","4.70225","38.78","0","SATNPRO1964","29.612000000000002","0.41476","5"],
    [56552,"HCEP03730563","2025-08-08 12:00:00","10.4075","3.33009","24.538","3.618","7.56","0.986","3.162","0.19","0.45","29.7988","4.70252","39.13","0","SATNPRO1964","29.704","0.41604","5"],
    [56553,"HCEP03730563","2025-08-08 12:15:00","10.4095","3.33034","24.712","3.62","7.56","0.945","3.119","0.09","0.17","29.7996","4.7026","39.15","0","SATNPRO1964","29.586000000000002","0.4144","5"],
    [56554,"HCEP03730563","2025-08-08 12:30:00","10.4091","3.33029","24.885","3.62","7.56","0.986","3.225","0.19","0.21","29.7993","4.70259","39.15","0","SATNPRO1964","29.458000000000002","0.4126","5"],
    [56555,"HCEP03730563","2025-08-08 12:45:00","10.4077","3.33011","25.112","3.603","7.56","0.972","3.219","0.15","0.25","29.7986","4.70252","38.97","0","SATNPRO1964","29.512","0.4134","5"],
    [56556,"HCEP03730563","2025-08-08 13:00:00","10.4079","3.33013","25.322","3.588","7.56","0.975","3.732","0.16","0.24","29.7986","4.70252","38.8","0","SATNPRO1964","29.524","0.41354","5"],
    [56557,"HCEP03730563","2025-08-08 13:15:00","10.4083","3.33017","25.553","3.593","7.56","0.922","3.478","0.08","0.27","29.7985","4.70253","38.86","0","SATNPRO1964","29.606","0.41468","5"],
    [56558,"HCEP03730563","2025-08-08 13:30:00","10.4123","3.33065","25.759","3.614","7.56","0.861","3.191","0.07","0.13","29.7999","4.70268","39.08","0","SATNPRO1964","29.46","0.41264","5"],
    [56559,"HCEP03730563","2025-08-08 13:45:00","10.4131","3.33074","25.957","3.643","7.56","0.894","2.936","0.12","0.12","29.8","4.70268","39.4","0","SATNPRO1964","29.604","0.41466","5"],
    [56560,"HCEP03730563","2025-08-08 14:00:00","10.4119","3.33061","26.195","3.643","7.56","0.873","3.076","0.09","0.11","29.7997","4.70267","39.4","0","SATNPRO1964","29.68","0.4157","5"],
    [56561,"HCEP03730563","2025-08-08 14:15:00","10.4117","3.33062","26.415","3.623","7.56","0.896","3.313","0.11","0.13","29.7999","4.70271","39.19","0","SATNPRO1964","29.451999999999998","0.41254","5"],
    [56562,"HCEP03730563","2025-08-08 14:30:00","10.4139","3.33092","26.623","3.633","7.56","0.853","2.963","0.08","0.12","29.801","4.70285","39.3","0","SATNPRO1964","29.66","0.41544","5"],
    [56563,"HCEP03730563","2025-08-08 14:45:00","10.4135","3.33082","26.813","3.654","7.56","0.868","2.77","0.08","0.15","29.8002","4.70276","39.52","0","SATNPRO1964","29.68","0.41572","5"],
    [56564,"HCEP03730563","2025-08-08 15:00:00","10.4112","3.33052","26.963","3.639","7.56","0.871","3.1","0.09","0.21","29.7991","4.70264","39.36","0","SATNPRO1964","29.542","0.41378","5"],
    [56565,"HCEP03730563","2025-08-08 15:15:00","10.4095","3.33027","27.126","3.618","7.56","0.93","2.823","0.09","0.16","29.7979","4.7025","39.13","0","SATNPRO1964","29.464","0.4127","5"],
    [56566,"HCEP03730563","2025-08-08 15:30:00","10.4114","3.3304","27.291","3.616","7.56","0.933","2.759","0.13","0.35","29.7975","4.70243","39.11","0","SATNPRO1964","29.594","0.41452","5"],
    [56567,"HCEP03730563","2025-08-08 15:45:00","10.4129","3.33066","27.398","3.634","7.56","0.941","3.51","0.15","0.15","29.7989","4.7026","39.3","0","SATNPRO1964","29.642","0.4152","5"],
    [56568,"HCEP03730563","2025-08-08 16:00:00","10.4094","3.33023","27.515","3.619","7.56","0.869","3.475","0.11","0.59","29.7975","4.70247","39.13","0","SATNPRO1964","29.328","0.41076","5"],
    [56569,"HCEP03730563","2025-08-08 16:15:00","10.4107","3.33038","27.609","3.596","7.56","0.946","2.832","0.14","0.14","29.7978","4.7025","38.89","0","SATNPRO1964","29.478","0.41286","5"],
    [56570,"HCEP03730563","2025-08-08 16:30:00","10.4106","3.33047","27.667","3.597","7.56","0.931","2.877","0.16","0.16","29.7987","4.70264","38.9","0","SATNPRO1964","29.496000000000002","0.41314","5"],
    [56571,"HCEP03730563","2025-08-08 16:45:00","10.4122","3.33058","27.725","3.608","7.56","0.926","2.514","0.13","0.15","29.7985","4.70259","39.02","0","SATNPRO1964","29.636","0.41508","5"],
    [56572,"HCEP03730563","2025-08-08 17:00:00","10.412","3.33057","27.735","3.63","7.56","0.891","2.494","0.1","0.14","29.7986","4.70259","39.26","0","SATNPRO1964","29.508","0.41336","5"],
    [56573,"HCEP03730563","2025-08-08 17:15:00","10.4124","3.33058","27.744","3.633","7.56","0.886","2.478","0.13","0.15","29.7984","4.70256","39.3","0","SATNPRO1964","29.742","0.4166","5"],
    [56574,"HCEP03730563","2025-08-08 17:30:00","10.4134","3.33057","27.762","3.646","7.56","0.876","2.268","0.13","0.1","29.7975","4.70242","39.44","0","SATNPRO1964","29.594","0.41448","5"],
    [56575,"HCEP03730563","2025-08-08 17:45:00","10.4098","3.32955","27.793","3.652","7.56","0.977","2.328","0.25","0.12","29.7903","4.70146","39.5","0","SATNPRO1964","29.648","0.41526","5"],
    [56576,"HCEP03730563","2025-08-08 18:00:00","10.4124","3.33039","27.76","3.651","7.56","0.879","2.435","0.11","0.15","29.7964","4.70229","39.49","0","SATNPRO1964","29.624","0.41494","5"],
    [56577,"HCEP03730563","2025-08-08 18:15:00","10.4107","3.33012","27.718","3.642","7.56","0.851","2.883","0.07","0.13","29.7953","4.70214","39.38","0","SATNPRO1964","29.622","0.41484","5"],
    [56578,"HCEP03730563","2025-08-08 18:30:00","10.3995","3.32846","27.661","3.602","7.56","0.856","2.903","0.16","0.15","29.788","4.70129","38.95","0","SATNPRO1964","29.444","0.41238","5"],
    [56579,"HCEP03730563","2025-08-08 18:45:00","10.4076","3.32951","27.62","3.583","7.56","0.904","2.897","0.14","0.32","29.7917","4.70168","38.74","0","SATNPRO1964","29.552","0.41394","5"],
    [56580,"HCEP03730563","2025-08-08 19:00:00","10.3995","3.32821","27.551","3.604","7.56","0.846","2.453","0.12","0.27","29.7855","4.70092","38.96","0","SATNPRO1964","29.49","0.41304","5"],
    [56581,"HCEP03730563","2025-08-08 19:15:00","10.4105","3.33017","27.515","3.599","7.56","0.886","3.304","0.09","0.25","29.796","4.70224","38.92","0","SATNPRO1964","29.518","0.41342","5"],
    [56582,"HCEP03730563","2025-08-08 19:30:00","10.4108","3.33014","27.439","3.627","7.56","0.839","2.251","0.1","0.13","29.7955","4.70215","39.23","0","SATNPRO1964","29.678","0.41566","5"],
    [56583,"HCEP03730563","2025-08-08 19:45:00","10.4099","3.32982","27.359","3.633","7.56","0.9","2.223","0.18","0.18","29.7931","4.70183","39.29","0","SATNPRO1964","29.722","0.41626","5"],
    [56584,"HCEP03730563","2025-08-08 20:00:00","10.4108","3.33015","27.252","3.637","7.56","0.825","2.385","0.1","0.23","29.7956","4.70216","39.33","0","SATNPRO1964","29.604","0.41466","5"],
    [56585,"HCEP03730563","2025-08-08 20:15:00","10.4124","3.33018","27.144","3.639","7.56","0.86","2.427","0.13","0.12","29.7947","4.70201","39.35","0","SATNPRO1964","29.738","0.41652","5"],
    [56586,"HCEP03730563","2025-08-08 20:30:00","10.4105","3.33016","27.081","3.607","7.56","1.014","4.81","0.26","0.5","29.7961","4.70223","39.01","0","SATNPRO1964","29.578","0.41434","5"],
    [56587,"HCEP03730563","2025-08-08 20:45:00","10.4094","3.3301","27","3.52","7.55","0.897","4.945","0.08","0.28","29.7964","4.70228","38.06","0","SATNPRO1964","29.332","0.41086","5"],
    [56588,"HCEP03730563","2025-08-08 21:00:00","10.4059","3.32977","26.901","3.422","7.55","0.881","5.815","0.1","0.38","29.796","4.70228","37.01","0","SATNPRO1964","28.855999999999998","0.40412","5"],
    [56589,"HCEP03730563","2025-08-08 21:15:00","10.4056","3.32973","26.828","3.338","7.54","0.906","6.134","0.1","0.33","29.7958","4.70226","36.1","0","SATNPRO1964","28.836","0.4039","5"],
    [56590,"HCEP03730563","2025-08-08 21:30:00","10.4076","3.32991","26.726","3.37","7.54","0.853","5.039","0.08","0.33","29.7961","4.70225","36.44","0","SATNPRO1964","29.106","0.4077","5"],
    [56591,"HCEP03730563","2025-08-08 21:45:00","10.4042","3.32948","26.678","3.401","7.54","0.869","5.079","0.08","0.38","29.7946","4.70209","36.78","0","SATNPRO1964","29.084","0.4074","5"],
    [56592,"HCEP03730563","2025-08-08 22:00:00","10.403","3.32915","26.602","3.345","7.54","0.866","5.094","0.14","0.33","29.7923","4.70179","36.17","0","SATNPRO1964","28.872","0.40436","5"],
    [56593,"HCEP03730563","2025-08-08 22:15:00","10.4027","3.32914","26.51","3.34","7.54","0.902","5.182","0.1","0.65","29.7925","4.70182","36.11","0","SATNPRO1964","29.112","0.40778","5"],
    [56594,"HCEP03730563","2025-08-08 22:30:00","10.4026","3.32922","26.47","3.333","7.53","0.851","5.561","0.07","0.48","29.7935","4.70195","36.03","0","SATNPRO1964","28.996","0.40618","5"],
    [56595,"HCEP03730563","2025-08-08 22:45:00","10.4028","3.32905","26.441","3.322","7.53","0.877","4.794","0.17","0.5","29.7915","4.70167","35.92","0","SATNPRO1964","28.762","0.40284","5"],
    [56596,"HCEP03730563","2025-08-08 23:00:00","10.4028","3.32919","26.408","3.337","7.53","0.789","4.51","0.08","0.25","29.793","4.70187","36.08","0","SATNPRO1964","29.122","0.40788","5"],
    [56597,"HCEP03730563","2025-08-08 23:15:00","10.403","3.3292","26.407","3.329","7.53","0.855","4.747","0.11","0.27","29.7929","4.70185","35.99","0","SATNPRO1964","28.791999999999998","0.40326","5"],
    [56598,"HCEP03730563","2025-08-08 23:30:00","10.4033","3.32914","26.433","3.326","7.53","1.018","4.572","0.88","0.67","29.7921","4.70174","35.97","0","SATNPRO1964","28.916","0.40502","5"],
    [56599,"HCEP03730563","2025-08-08 23:45:00","10.4032","3.32918","26.48","3.333","7.53","0.834","4.22","0.1","0.31","29.7925","4.70181","36.04","0","SATNPRO1964","28.796","0.40332","5"],
    [56600,"HCEP03730563","2025-08-09 00:00:00","10.4033","3.32911","26.545","3.339","7.53","0.821","4.551","0.08","0.22","29.7918","4.7017","36.11","0","SATNPRO1964","28.866","0.4043","5"],
    [56601,"HCEP03730563","2025-08-09 00:15:00","10.404","3.32946","26.612","3.326","7.53","5.439","274.82","1.28","84.26","29.7946","4.70209","35.96","0","SATNPRO1964","28.984","0.406","5"],
    [56602,"HCEP03730563","2025-08-09 00:30:00","10.405","3.32967","26.69","3.306","7.53","4.428","195.349","1.67","71.53","29.7959","4.70226","35.75","0","SATNPRO1964","28.918","0.405","5"],
    [56603,"HCEP03730563","2025-08-09 00:45:00","10.4052","3.32983","26.749","3.3","7.53","0.857","4.467","0.11","0.21","29.7972","4.70246","35.68","0","SATNPRO1964","29.056","0.40696","5"],
    [56604,"HCEP03730563","2025-08-09 01:00:00","10.4059","3.32996","26.79","3.304","7.53","0.874","4.888","0.18","0.39","29.7979","4.70255","35.73","0","SATNPRO1964","28.874","0.40444","5"],
    [56605,"HCEP03730563","2025-08-09 01:15:00","10.4065","3.33007","26.869","3.311","7.53","0.913","4.763","0.11","0.2","29.7985","4.70262","35.8","0","SATNPRO1964","28.81","0.4035","5"],
    [56606,"HCEP03730563","2025-08-09 01:30:00","10.407","3.33018","26.941","3.31","7.53","0.967","4.729","0.2","0.35","29.7991","4.70271","35.8","0","SATNPRO1964","28.994","0.4061","5"],
    [56607,"HCEP03730563","2025-08-09 01:45:00","10.4081","3.33034","26.953","3.31","7.53","0.918","4.515","0.11","0.37","29.7998","4.70279","35.8","0","SATNPRO1964","28.986","0.40598","5"],
    [56608,"HCEP03730563","2025-08-09 02:00:00","10.4086","3.33042","27.03","3.315","7.53","0.927","4.194","0.2","0.28","29.8002","4.70284","35.85","0","SATNPRO1964","28.996","0.40612","5"],
    [56609,"HCEP03730563","2025-08-09 02:15:00","10.4094","3.33055","27.115","3.325","7.53","0.927","3.883","0.1","0.22","29.8008","4.70292","35.96","0","SATNPRO1964","29.028","0.4066","5"],
    [56610,"HCEP03730563","2025-08-09 02:30:00","10.4102","3.33063","27.206","3.348","7.53","0.903","3.698","0.1","0.26","29.8008","4.70291","36.21","0","SATNPRO1964","29.068","0.40714","5"],
    [56611,"HCEP03730563","2025-08-09 02:45:00","10.4108","3.33069","27.264","3.366","7.54","0.942","3.76","0.11","0.2","29.801","4.70293","36.4","0","SATNPRO1964","29.05","0.40688","5"],
    [56612,"HCEP03730563","2025-08-09 03:00:00","10.4117","3.33085","27.307","3.385","7.54","0.899","3.514","0.11","0.13","29.8018","4.70303","36.61","0","SATNPRO1964","29.092","0.40752","5"],
    [56613,"HCEP03730563","2025-08-09 03:15:00","10.4123","3.33097","27.362","3.399","7.54","0.955","3.47","0.11","0.17","29.8025","4.70313","36.76","0","SATNPRO1964","29.138","0.4081","5"],
    [56614,"HCEP03730563","2025-08-09 03:30:00","10.4121","3.33096","27.395","3.402","7.54","0.927","3.442","0.13","0.19","29.8025","4.70314","36.8","0","SATNPRO1964","29.044","0.40678","5"],
    [56615,"HCEP03730563","2025-08-09 03:45:00","10.4131","3.33117","27.419","3.399","7.53","0.941","3.374","0.19","0.25","29.8038","4.70331","36.76","0","SATNPRO1964","29.226","0.40934","5"],
    [56616,"HCEP03730563","2025-08-09 04:00:00","10.4124","3.33109","27.417","3.404","7.54","1.111","3.625","0.57","0.22","29.8035","4.70328","36.81","0","SATNPRO1964","29.298000000000002","0.4104","5"],
    [56617,"HCEP03730563","2025-08-09 04:15:00","10.4138","3.33114","27.399","3.407","7.54","1.024","3.541","0.23","0.3","29.8029","4.70317","36.85","0","SATNPRO1964","29.244","0.40958","5"],
    [56618,"HCEP03730563","2025-08-09 04:30:00","10.4128","3.33104","27.381","3.423","7.54","0.891","3.35","0.13","0.16","29.8028","4.70316","37.02","0","SATNPRO1964","29.240000000000002","0.40954","5"],
    [56619,"HCEP03730563","2025-08-09 04:45:00","10.4128","3.33101","27.332","3.413","7.54","0.848","2.802","0.08","0.17","29.8024","4.70311","36.91","0","SATNPRO1964","29.102","0.4076","5"],
    [56620,"HCEP03730563","2025-08-09 05:00:00","10.4119","3.33084","27.24","3.409","7.54","0.885","3.331","0.12","0.17","29.8015","4.70299","36.87","0","SATNPRO1964","29.134","0.40808","5"],
    [56621,"HCEP03730563","2025-08-09 05:15:00","10.4112","3.33075","27.165","3.388","7.54","0.895","3.32","0.1","0.18","29.8013","4.70296","36.64","0","SATNPRO1964","29.112000000000002","0.40776","5"],
    [56622,"HCEP03730563","2025-08-09 05:30:00","10.4115","3.33067","27.069","3.391","7.54","0.872","3.222","0.15","0.14","29.8002","4.7028","36.68","0","SATNPRO1964","29.122","0.40792","5"],
    [56623,"HCEP03730563","2025-08-09 05:45:00","10.4099","3.3305","26.932","3.381","7.54","0.848","3.206","0.16","0.15","29.7999","4.70277","36.57","0","SATNPRO1964","29.116","0.40782","5"],
    [56624,"HCEP03730563","2025-08-09 06:00:00","10.4091","3.33029","26.795","3.352","7.54","0.893","3.795","0.13","0.14","29.7986","4.70259","36.25","0","SATNPRO1964","28.838","0.40392","5"],
    [56625,"HCEP03730563","2025-08-09 06:15:00","10.4063","3.32996","26.625","3.303","7.53","0.946","4.498","0.09","0.23","29.7977","4.7025","35.71","0","SATNPRO1964","28.614","0.40078","5"],
    [56626,"HCEP03730563","2025-08-09 06:30:00","10.404","3.32968","26.449","3.212","7.53","0.933","4.953","0.09","0.21","29.7969","4.70241","34.74","0","SATNPRO1964","28.446","0.39848","5"],
    [56627,"HCEP03730563","2025-08-09 06:45:00","10.403","3.32953","26.257","3.16","7.52","0.938","5.303","0.12","0.22","29.7962","4.70231","34.17","0","SATNPRO1964","28.342","0.397","5"],
    [56628,"HCEP03730563","2025-08-09 07:00:00","10.4026","3.3294","26.05","3.151","7.52","0.945","5.363","0.09","0.52","29.7954","4.7022","34.07","0","SATNPRO1964","28.486","0.399","5"],
    [56629,"HCEP03730563","2025-08-09 07:15:00","10.4022","3.32929","25.833","3.155","7.52","0.914","4.502","0.11","0.35","29.7947","4.70209","34.12","0","SATNPRO1964","28.452","0.39854","5"],
    [56630,"HCEP03730563","2025-08-09 07:30:00","10.4021","3.32911","25.606","3.206","7.52","0.916","4.551","0.13","0.3","29.7931","4.70185","34.66","0","SATNPRO1964","28.444","0.39842","5"],
    [56631,"HCEP03730563","2025-08-09 07:45:00","10.3962","3.32794","25.394","3.29","7.52","1.049","3.548","0.74","0.64","29.7864","4.70098","35.57","0","SATNPRO1964","28.988","0.40604","5"],
    [56632,"HCEP03730563","2025-08-09 08:00:00","10.3813","3.32547","25.185","3.301","7.53","0.845","2.808","0.19","0.17","29.7741","4.69947","35.67","0","SATNPRO1964","28.791999999999998","0.40326","5"],
    [56633,"HCEP03730563","2025-08-09 08:15:00","10.3793","3.32522","24.964","3.259","7.52","0.928","2.732","0.29","0.22","29.7734","4.69938","35.22","0","SATNPRO1964","28.754","0.40276","5"],
    [56634,"HCEP03730563","2025-08-09 08:30:00","10.3966","3.32821","24.772","3.274","7.52","0.921","4.105","0.35","0.51","29.789","4.70131","35.39","0","SATNPRO1964","28.882","0.4045","5"],
    [56635,"HCEP03730563","2025-08-09 08:45:00","10.4001","3.32899","24.529","3.257","7.52","0.944","4.482","0.13","0.45","29.794","4.70196","35.22","0","SATNPRO1964","28.814","0.4036","5"],
    [56636,"HCEP03730563","2025-08-09 09:00:00","10.3978","3.32854","24.279","3.197","7.52","1.171","4.828","0.48","0.32","29.7915","4.70162","34.56","0","SATNPRO1964","28.862","0.40426","5"],
    [56637,"HCEP03730563","2025-08-09 09:15:00","10.3998","3.32895","24.102","3.147","7.52","0.993","5.047","0.13","0.33","29.794","4.70194","34.03","0","SATNPRO1964","28.508000000000003","0.3993","5"],
    [56638,"HCEP03730563","2025-08-09 09:30:00","10.3877","3.32632","23.945","3.173","7.52","1.007","3.836","0.2","0.23","29.7778","4.69982","34.29","0","SATNPRO1964","29.098","0.40756","5"],
    [56639,"HCEP03730563","2025-08-09 09:45:00","10.3958","3.32812","23.836","3.185","7.52","0.93","4.484","0.11","0.25","29.7891","4.70129","34.44","0","SATNPRO1964","28.384","0.39756","5"],
    [56640,"HCEP03730563","2025-08-09 10:00:00","10.3925","3.32709","23.768","3.196","7.52","0.968","3.374","0.46","0.16","29.7816","4.70027","34.55","0","SATNPRO1964","28.648","0.40128","5"],
    [56641,"HCEP03730563","2025-08-09 10:15:00","10.3948","3.3273","23.722","3.296","7.52","0.89","3.019","0.26","0.23","29.7818","4.70026","35.63","0","SATNPRO1964","28.966","0.4057","5"],
    [56642,"HCEP03730563","2025-08-09 10:30:00","10.394","3.3273","23.715","3.308","7.53","0.929","2.693","0.31","0.12","29.7824","4.70036","35.76","0","SATNPRO1964","29.282","0.41012","5"],
    [56643,"HCEP03730563","2025-08-09 10:45:00","10.3886","3.32615","23.729","3.308","7.53","0.802","2.718","0.14","0.63","29.7756","4.69947","35.76","0","SATNPRO1964","29.228","0.4094","5"],
    [56644,"HCEP03730563","2025-08-09 11:00:00","10.3821","3.32534","23.764","3.286","7.53","0.844","3.073","0.15","0.14","29.7728","4.69918","35.51","0","SATNPRO1964","28.646","0.40122","5"],
    [56645,"HCEP03730563","2025-08-09 11:15:00","10.3912","3.32764","23.836","3.177","7.52","0.848","3.87","0.1","0.45","29.7881","4.70122","34.35","0","SATNPRO1964","28.512","0.39938","5"],
    [56646,"HCEP03730563","2025-08-09 11:30:00","10.3888","3.32709","23.911","3.11","7.51","0.835","3.577","0.11","0.18","29.7847","4.70078","33.62","0","SATNPRO1964","28.408","0.39794","5"],
    [56647,"HCEP03730563","2025-08-09 11:45:00","10.3714","3.3231","24.016","3.081","7.51","0.824","3.354","0.09","0.17","29.7593","4.69744","33.28","0","SATNPRO1964","28.344","0.397","5"],
    [56648,"HCEP03730563","2025-08-09 12:00:00","10.3752","3.32475","24.154","3.054","7.51","0.801","3.291","0.12","0.21","29.7725","4.69928","33","0","SATNPRO1964","28.268","0.3959","5"],
    [56649,"HCEP03730563","2025-08-09 12:15:00","10.3683","3.32361","24.308","3.048","7.51","0.825","3.145","0.08","0.2","29.7667","4.69857","32.93","0","SATNPRO1964","28.262","0.39588","5"],
    [56650,"HCEP03730563","2025-08-09 12:30:00","10.3766","3.32512","24.428","2.98","7.5","0.957","5.215","0.13","0.34","29.7749","4.69961","32.2","0","SATNPRO1964","27.76","0.3888","5"],
    [56651,"HCEP03730563","2025-08-09 12:45:00","10.3774","3.325","24.615","2.891","7.49","0.976","5.614","0.08","0.33","29.7729","4.69933","31.24","0","SATNPRO1964","27.58","0.3863","5"],
    [56652,"HCEP03730563","2025-08-09 13:00:00","10.3774","3.32504","24.826","2.883","7.49","0.898","4.755","0.1","0.25","29.7732","4.69938","31.15","0","SATNPRO1964","28.034","0.39268","5"],
    [56653,"HCEP03730563","2025-08-09 13:15:00","10.3753","3.32476","25.02","2.901","7.49","0.96","4.104","0.14","0.21","29.7721","4.69927","31.34","0","SATNPRO1964","27.784","0.38916","5"],
    [56654,"HCEP03730563","2025-08-09 13:30:00","10.3719","3.3243","25.211","2.878","7.49","0.905","4.241","0.15","0.22","29.7702","4.69907","31.09","0","SATNPRO1964","27.392","0.38366","5"],
    [56655,"HCEP03730563","2025-08-09 13:45:00","10.3658","3.32337","25.445","2.787","7.48","0.912","4.546","0.1","0.62","29.7659","4.69856","30.11","0","SATNPRO1964","27.16","0.38042","5"],
    [56656,"HCEP03730563","2025-08-09 14:00:00","10.3622","3.32268","25.716","2.676","7.48","0.921","5.413","0.08","0.31","29.7619","4.69806","28.9","0","SATNPRO1964","26.802","0.37538","5"],
    [56657,"HCEP03730563","2025-08-09 14:15:00","10.3602","3.32237","25.9","2.577","7.47","0.947","5.417","0.13","0.39","29.7604","4.69789","27.83","0","SATNPRO1964","26.746","0.37462","5"],
    [56658,"HCEP03730563","2025-08-09 14:30:00","10.3637","3.32307","26.133","2.557","7.46","0.905","5.378","0.09","0.2","29.7644","4.69843","27.62","0","SATNPRO1964","27.298000000000002","0.38234","5"],
    [56659,"HCEP03730563","2025-08-09 14:45:00","10.3725","3.32442","26.388","2.685","7.47","0.931","4.126","0.16","0.18","29.7705","4.69916","29.01","0","SATNPRO1964","27.762","0.38884","5"],
    [56660,"HCEP03730563","2025-08-09 15:00:00","10.3774","3.3251","26.577","2.857","7.48","0.834","3.447","0.08","0.16","29.7732","4.69948","30.87","0","SATNPRO1964","28.114","0.3938","5"],
    [56661,"HCEP03730563","2025-08-09 15:15:00","10.3893","3.32658","26.773","2.978","7.49","0.912","3.729","0.1","0.31","29.778","4.69998","32.19","0","SATNPRO1964","28.41","0.39798","5"],
    [56662,"HCEP03730563","2025-08-09 15:30:00","10.3856","3.32606","26.935","3.04","7.5","0.848","4.766","0.08","0.3","29.7758","4.69973","32.86","0","SATNPRO1964","28.358","0.39718","5"],
    [56663,"HCEP03730563","2025-08-09 15:45:00","10.3673","3.32291","27.119","2.999","7.5","0.86","3.941","0.19","0.46","29.7595","4.69772","32.39","0","SATNPRO1964","28.07","0.39316","5"],
    [56664,"HCEP03730563","2025-08-09 16:00:00","10.3692","3.32404","27.248","2.852","7.49","0.935","5.027","0.16","0.21","29.7691","4.69907","30.81","0","SATNPRO1964","27.436","0.3843","5"],
    [56665,"HCEP03730563","2025-08-09 16:15:00","10.3654","3.32346","27.389","2.733","7.48","1.305","13.029","0.2","5.08","29.7664","4.69875","29.52","0","SATNPRO1964","27.096","0.37952","5"],
    [56666,"HCEP03730563","2025-08-09 16:30:00","10.364","3.32319","27.478","2.675","7.47","1.043","7.3","0.15","2.16","29.7648","4.69855","28.9","0","SATNPRO1964","27.47","0.3848","5"],
    [56667,"HCEP03730563","2025-08-09 16:45:00","10.3638","3.3232","27.604","2.666","7.47","0.996","4.858","0.16","0.36","29.765","4.69859","28.79","0","SATNPRO1964","27.092","0.37948","5"],
    [56668,"HCEP03730563","2025-08-09 17:00:00","10.3671","3.32374","27.679","2.676","7.47","0.991","4.948","0.16","0.36","29.7677","4.69892","28.91","0","SATNPRO1964","27.252","0.38172","5"],
    [56669,"HCEP03730563","2025-08-09 17:15:00","10.3583","3.3221","27.758","2.695","7.47","0.911","3.653","0.19","0.21","29.7586","4.69777","29.11","0","SATNPRO1964","27.326","0.38272","5"],
    [56670,"HCEP03730563","2025-08-09 17:30:00","10.3452","3.31962","27.785","2.701","7.47","0.907","2.68","0.42","0.23","29.7446","4.696","29.16","0","SATNPRO1964","27.355999999999998","0.38318","5"],
    [56671,"HCEP03730563","2025-08-09 17:45:00","10.3614","3.32296","27.792","2.692","7.47","0.872","3.894","0.08","0.16","29.7645","4.69857","29.08","0","SATNPRO1964","27.374","0.38342","5"],
    [56672,"HCEP03730563","2025-08-09 18:00:00","10.373","3.32467","27.752","2.712","7.47","0.878","4.656","0.1","0.26","29.772","4.69945","29.31","0","SATNPRO1964","27.662","0.38746","5"],
    [56673,"HCEP03730563","2025-08-09 18:15:00","10.3868","3.32661","27.716","2.774","7.48","1.003","4.637","0.6","0.16","29.7799","4.70035","29.98","0","SATNPRO1964","27.88","0.3905","5"],
    [56674,"HCEP03730563","2025-08-09 18:30:00","10.3937","3.32775","27.675","2.862","7.48","0.93","5.03","0.13","0.38","29.7856","4.70105","30.94","0","SATNPRO1964","27.900000000000002","0.3908","5"],
    [56675,"HCEP03730563","2025-08-09 18:45:00","10.384","3.32608","27.695","2.877","7.48","0.841","4.406","0.07","0.55","29.777","4.69997","31.09","0","SATNPRO1964","27.748","0.38868","5"],
    [56676,"HCEP03730563","2025-08-09 19:00:00","10.3619","3.32254","27.639","2.809","7.48","0.816","3.244","0.11","0.21","29.76","4.69791","30.34","0","SATNPRO1964","27.498","0.3852","5"],
    [56677,"HCEP03730563","2025-08-09 19:15:00","10.373","3.32452","27.577","2.788","7.48","0.887","3.54","0.23","0.18","29.7705","4.69922","30.12","0","SATNPRO1964","28.022000000000002","0.3925","5"],
    [56678,"HCEP03730563","2025-08-09 19:30:00","10.3713","3.3242","27.509","2.829","7.48","0.798","3.703","0.1","0.24","29.7688","4.699","30.56","0","SATNPRO1964","27.826","0.38974","5"],
    [56679,"HCEP03730563","2025-08-09 19:45:00","10.3701","3.32401","27.416","2.804","7.48","0.859","4.068","0.11","0.3","29.7679","4.6989","30.29","0","SATNPRO1964","27.59","0.38648","5"],
    [56680,"HCEP03730563","2025-08-09 20:00:00","10.3741","3.32466","27.321","2.779","7.48","0.942","3.895","0.43","0.32","29.7712","4.69929","30.03","0","SATNPRO1964","27.912","0.39094","5"],
    [56681,"HCEP03730563","2025-08-09 20:15:00","10.3797","3.32548","27.233","2.801","7.48","0.857","4.384","0.1","0.28","29.7748","4.6997","30.26","0","SATNPRO1964","28","0.39218","5"],
    [56682,"HCEP03730563","2025-08-09 20:30:00","10.3803","3.32538","27.151","2.866","7.48","0.782","4.041","0.1","0.24","29.7733","4.69948","30.97","0","SATNPRO1964","28.105999999999998","0.39364","5"],
    [56683,"HCEP03730563","2025-08-09 20:45:00","10.4056","3.32914","27.019","2.951","7.49","0.874","6.248","0.08","0.29","29.7899","4.70142","31.91","0","SATNPRO1964","28.22","0.39528","5"],
    [56684,"HCEP03730563","2025-08-09 21:00:00","10.4085","3.32972","26.876","2.976","7.49","0.861","8.208","0.07","0.36","29.7934","4.70187","32.18","0","SATNPRO1964","28.092","0.39346","5"],
    [56685,"HCEP03730563","2025-08-09 21:15:00","10.4085","3.32949","26.764","2.999","7.5","0.79","5.692","0.05","0.77","29.7912","4.70155","32.43","0","SATNPRO1964","28.35","0.39712","5"],
    [56686,"HCEP03730563","2025-08-09 21:30:00","10.3986","3.32786","26.689","3.036","7.5","0.789","6.014","0.06","0.27","29.7831","4.70054","32.83","0","SATNPRO1964","28.422","0.39812","5"],
    [56687,"HCEP03730563","2025-08-09 21:45:00","10.3983","3.32814","26.568","2.953","7.5","0.864","6.939","0.12","0.53","29.7862","4.70098","31.92","0","SATNPRO1964","27.96","0.3916","5"],
    [56688,"HCEP03730563","2025-08-09 22:00:00","10.3929","3.327","26.452","2.867","7.49","0.799","6.12","0.08","0.32","29.7793","4.70009","30.99","0","SATNPRO1964","27.952","0.3915","5"],
    [56689,"HCEP03730563","2025-08-09 22:15:00","10.3904","3.32626","26.286","2.888","7.49","0.813","5.314","0.08","0.39","29.7741","4.69938","31.22","0","SATNPRO1964","27.988","0.39202","5"],
    [56690,"HCEP03730563","2025-08-09 22:30:00","10.387","3.32603","26.172","2.88","7.49","0.748","4.722","0.07","0.46","29.7747","4.69951","31.13","0","SATNPRO1964","27.868","0.39032","5"],
    [56691,"HCEP03730563","2025-08-09 22:45:00","10.3749","3.32459","26.093","2.812","7.48","0.824","5.223","0.13","0.38","29.7704","4.69909","30.38","0","SATNPRO1964","27.532","0.38564","5"],
    [56692,"HCEP03730563","2025-08-09 23:00:00","10.3732","3.3245","26.048","2.71","7.48","0.765","5.27","0.08","0.53","29.7709","4.69919","29.28","0","SATNPRO1964","27.294","0.3823","5"],
    [56693,"HCEP03730563","2025-08-09 23:15:00","10.3717","3.32441","26.05","2.648","7.47","0.817","5.563","0.09","0.49","29.7711","4.69925","28.61","0","SATNPRO1964","27.18","0.38072","5"],
    [56694,"HCEP03730563","2025-08-09 23:30:00","10.3713","3.32439","26.057","2.622","7.47","0.778","4.628","0.1","0.25","29.7713","4.69927","28.33","0","SATNPRO1964","27.324","0.3827","5"],
    [56695,"HCEP03730563","2025-08-09 23:45:00","10.3699","3.32412","26.073","2.605","7.47","0.829","5.466","0.09","0.56","29.7698","4.69909","28.14","0","SATNPRO1964","26.828","0.37578","5"],
    [56696,"HCEP03730563","2025-08-10 00:00:00","10.3673","3.32375","26.107","2.584","7.46","0.778","4.862","0.08","0.43","29.7682","4.6989","27.92","0","SATNPRO1964","27.174","0.3806","5"],
    [56697,"HCEP03730563","2025-08-10 00:15:00","10.3642","3.32331","26.17","2.562","7.46","0.836","4.837","0.13","0.31","29.7663","4.69869","27.67","0","SATNPRO1964","26.994","0.37812","5"],
    [56698,"HCEP03730563","2025-08-10 00:30:00","10.3631","3.3231","26.225","2.544","7.46","0.775","4.549","0.13","0.25","29.7652","4.69855","27.48","0","SATNPRO1964","27.116","0.37982","5"],
    [56699,"HCEP03730563","2025-08-10 00:45:00","10.3626","3.32305","26.299","2.532","7.46","0.777","4.792","0.08","0.28","29.765","4.69854","27.35","0","SATNPRO1964","26.678","0.37368","5"],
    [56700,"HCEP03730563","2025-08-10 01:00:00","10.360900000000001","3.3228","26.384","2.515","7.46","0.819","4.245","0.13","0.27","29.7638","4.6984","27.16","0","SATNPRO1964","26.87","0.37636","5"],
    [56701,"HCEP03730563","2025-08-10 01:15:00","10.36","3.32269","26.47","2.495","7.45","0.77","4.524","0.11","0.29","29.7635","4.69838","26.95","0","SATNPRO1964","26.744","0.37458","5"],
    [56702,"HCEP03730563","2025-08-10 01:30:00","10.3604","3.3227","26.541","2.473","7.45","0.906","4.622","0.22","0.26","29.7633","4.69835","26.71","0","SATNPRO1964","26.85","0.37612","5"],
    [56703,"HCEP03730563","2025-08-10 01:45:00","10.3575","3.32229","26.63","2.453","7.45","1.878","24.363","1.81","32.02","29.7616","4.69815","26.49","0","SATNPRO1964","26.9","0.37678","5"],
    [56704,"HCEP03730563","2025-08-10 02:00:00","10.3557","3.3219","26.726","2.438","7.45","0.882","4.004","0.54","0.2","29.7591","4.69783","26.33","0","SATNPRO1964","26.786","0.37518","5"],
    [56705,"HCEP03730563","2025-08-10 02:15:00","10.355","3.32192","26.81","2.431","7.45","0.795","3.969","0.12","0.26","29.7598","4.69795","26.25","0","SATNPRO1964","26.868","0.37632","5"],
    [56706,"HCEP03730563","2025-08-10 02:30:00","10.3561","3.32207","26.9","2.442","7.45","0.803","4.222","0.14","0.37","29.7603","4.69801","26.37","0","SATNPRO1964","26.882","0.37652","5"],
    [56707,"HCEP03730563","2025-08-10 02:45:00","10.3582","3.3223","26.997","2.457","7.45","0.779","4.458","0.09","0.23","29.7609","4.69806","26.53","0","SATNPRO1964","26.88","0.3765","5"],
    [56708,"HCEP03730563","2025-08-10 03:00:00","10.3613","3.32261","27.086","2.483","7.45","0.776","4.464","0.1","0.27","29.7615","4.6981","26.82","0","SATNPRO1964","26.898","0.37674","5"],
    [56709,"HCEP03730563","2025-08-10 03:15:00","10.3678","3.32329","27.165","2.51","7.45","0.819","5.394","0.14","0.37","29.7628","4.69819","27.11","0","SATNPRO1964","26.858","0.3762","5"],
    [56710,"HCEP03730563","2025-08-10 03:30:00","10.3788","3.32475","27.248","2.572","7.46","0.841","5.198","0.08","0.32","29.7682","4.69878","27.79","0","SATNPRO1964","27.368000000000002","0.38338","5"],
    [56711,"HCEP03730563","2025-08-10 03:45:00","10.3846","3.32539","27.321","2.654","7.46","0.896","4.79","0.22","0.28","29.7698","4.69893","28.68","0","SATNPRO1964","27.288","0.38218","5"],
    [56712,"HCEP03730563","2025-08-10 04:00:00","10.3895","3.32625","27.399","2.722","7.47","1.19","4.48","1.86","0.28","29.7743","4.69949","29.42","0","SATNPRO1964","27.716","0.3882","5"],
    [56713,"HCEP03730563","2025-08-10 04:15:00","10.3933","3.32679","27.446","2.793","7.47","0.861","4.007","0.11","0.2","29.7765","4.69974","30.2","0","SATNPRO1964","27.988","0.39204","5"],
    [56714,"HCEP03730563","2025-08-10 04:30:00","10.3956","3.32724","27.477","2.851","7.48","0.807","4.024","0.15","0.17","29.779","4.70007","30.82","0","SATNPRO1964","28.068","0.39312","5"],
    [56715,"HCEP03730563","2025-08-10 04:45:00","10.3971","3.32744","27.475","2.876","7.48","0.843","4.02","0.12","0.26","29.7799","4.70016","31.09","0","SATNPRO1964","27.924","0.39114","5"],
    [56716,"HCEP03730563","2025-08-10 05:00:00","10.3964","3.32749","27.47","2.859","7.48","0.888","4.851","0.14","0.21","29.781","4.70033","30.91","0","SATNPRO1964","27.756","0.38876","5"],
    [56717,"HCEP03730563","2025-08-10 05:15:00","10.3969","3.3276","27.43","2.809","7.48","0.873","5.155","0.11","0.38","29.7816","4.70041","30.37","0","SATNPRO1964","27.662","0.38744","5"],
    [56718,"HCEP03730563","2025-08-10 05:30:00","10.3976","3.32778","27.374","2.817","7.48","0.823","4.614","0.11","0.22","29.7828","4.70056","30.45","0","SATNPRO1964","27.65","0.38726","5"],
    [56719,"HCEP03730563","2025-08-10 05:45:00","10.3969","3.32763","27.32","2.832","7.48","0.925","4.729","0.12","0.3","29.782","4.70045","30.62","0","SATNPRO1964","27.822","0.38974","5"],
    [56720,"HCEP03730563","2025-08-10 06:00:00","10.3958","3.32744","27.235","2.829","7.48","0.868","5.605","0.17","0.42","29.781","4.70033","30.58","0","SATNPRO1964","27.526","0.38558","5"],
    [56721,"HCEP03730563","2025-08-10 06:15:00","10.3943","3.32722","27.077","2.812","7.48","0.884","4.933","0.08","0.24","29.7801","4.70022","30.4","0","SATNPRO1964","27.828","0.38978","5"],
    [56722,"HCEP03730563","2025-08-10 06:30:00","10.3924","3.32697","26.931","2.792","7.48","0.945","5.517","0.29","0.52","29.7793","4.70013","30.18","0","SATNPRO1964","27.564","0.38608","5"],
    [56723,"HCEP03730563","2025-08-10 06:45:00","10.3904","3.32666","26.775","2.762","7.48","0.886","5.652","0.09","1.49","29.7778","4.69994","29.86","0","SATNPRO1964","27.496000000000002","0.3851","5"],
    [56724,"HCEP03730563","2025-08-10 07:00:00","10.389","3.32639","26.595","2.74","7.48","0.977","5.208","0.13","0.35","29.7764","4.69975","29.62","0","SATNPRO1964","29.418","0.41202","5"],
    [56725,"HCEP03730563","2025-08-10 07:15:00","10.3829","3.32531","26.421","2.697","7.47","0.967","4.966","0.13","0.37","29.7708","4.69904","29.14","0","SATNPRO1964","27.126","0.37998","5"],
    [56726,"HCEP03730563","2025-08-10 07:30:00","10.3797","3.32453","26.235","2.601","7.47","0.928","5.092","0.11","0.48","29.7657","4.69836","28.11","0","SATNPRO1964","26.902","0.3768","5"],
    [56727,"HCEP03730563","2025-08-10 07:45:00","10.3764","3.32389","26.061","2.512","7.46","0.918","4.21","0.11","0.23","29.7622","4.6979","27.14","0","SATNPRO1964","26.53","0.37162","5"],
    [56728,"HCEP03730563","2025-08-10 08:00:00","10.3741","3.32356","25.832","2.443","7.45","0.946","4.649","0.11","0.36","29.7608","4.69773","26.39","0","SATNPRO1964","26.48","0.37092","5"],
    [56729,"HCEP03730563","2025-08-10 08:15:00","10.3753","3.32353","25.611","2.408","7.45","0.957","4.385","0.16","0.39","29.7597","4.69753","26.02","0","SATNPRO1964","26.324","0.3687","5"],
    [56730,"HCEP03730563","2025-08-10 08:30:00","10.3728","3.3231","25.38","2.383","7.45","0.878","3.925","0.08","0.28","29.7575","4.69724","25.74","0","SATNPRO1964","26.316","0.3686","5"],
    [56731,"HCEP03730563","2025-08-10 08:45:00","10.3723","3.32285","25.15","2.367","7.44","0.909","3.855","0.09","0.18","29.7555","4.69696","25.57","0","SATNPRO1964","26.401999999999997","0.3698","5"],
    [56732,"HCEP03730563","2025-08-10 09:00:00","10.374","3.3233","24.955","2.4","7.44","0.878","3.734","0.13","0.29","29.7587","4.69738","25.93","0","SATNPRO1964","26.776","0.37502","5"],
    [56733,"HCEP03730563","2025-08-10 09:15:00","10.3729","3.32299","24.742","2.436","7.45","0.91","4.715","0.12","1.28","29.7566","4.69709","26.32","0","SATNPRO1964","26.736","0.37448","5"],
    [56734,"HCEP03730563","2025-08-10 09:30:00","10.3769","3.32431","24.537","2.482","7.45","0.89","3.64","0.36","0.36","29.7665","4.69842","26.82","0","SATNPRO1964","27.12","0.37988","5"],
    [56735,"HCEP03730563","2025-08-10 09:45:00","10.3798","3.32484","24.362","2.556","7.45","0.86","3.682","0.13","0.42","29.7695","4.69878","27.62","0","SATNPRO1964","27.334","0.38284","5"],
    [56736,"HCEP03730563","2025-08-10 10:00:00","10.3871","3.32607","24.158","2.614","7.46","0.937","5.553","0.2","0.45","29.7757","4.69955","28.26","0","SATNPRO1964","27.387999999999998","0.38362","5"],
    [56737,"HCEP03730563","2025-08-10 10:15:00","10.3862","3.3259","24.025","2.65","7.46","0.898","4.882","0.1","0.27","29.7749","4.69943","28.65","0","SATNPRO1964","27.406","0.38388","5"],
    [56738,"HCEP03730563","2025-08-10 10:30:00","10.3885","3.3262","23.961","2.655","7.46","0.887","5.214","0.08","0.33","29.776","4.69954","28.7","0","SATNPRO1964","27.688","0.38782","5"],
    [56739,"HCEP03730563","2025-08-10 10:45:00","10.3886","3.32616","23.894","2.676","7.47","0.956","5.052","0.15","1.3","29.7756","4.69948","28.92","0","SATNPRO1964","27.532","0.38564","5"],
    [56740,"HCEP03730563","2025-08-10 11:00:00","10.388","3.32599","23.858","2.695","7.47","0.8","4.092","0.07","0.32","29.7744","4.69932","29.13","0","SATNPRO1964","27.326","0.38274","5"],
    [56741,"HCEP03730563","2025-08-10 11:15:00","10.3881","3.3257","23.83","2.784","7.47","0.88","3.43","0.15","0.19","29.7714","4.6989","30.09","0","SATNPRO1964","27.218","0.38126","5"],
    [56742,"HCEP03730563","2025-08-10 11:30:00","10.3834","3.32542","23.86","2.707","7.47","0.899","4.654","0.1","0.27","29.7725","4.69913","29.25","0","SATNPRO1964","27.154","0.38032","5"],
    [56743,"HCEP03730563","2025-08-10 11:45:00","10.3821","3.32527","23.892","2.584","7.46","0.851","4.39","0.08","0.23","29.772","4.69908","27.92","0","SATNPRO1964","26.832","0.37582","5"],
    [56744,"HCEP03730563","2025-08-10 12:00:00","10.3784","3.32464","23.965","2.489","7.46","0.912","5.233","0.12","0.45","29.7688","4.69869","26.9","0","SATNPRO1964","26.528","0.37154","5"],
    [56745,"HCEP03730563","2025-08-10 12:15:00","10.3762","3.32431","24.076","2.417","7.45","0.919","5.009","0.09","0.27","29.7673","4.69851","26.12","0","SATNPRO1964","26.96","0.3776","5"],
    [56746,"HCEP03730563","2025-08-10 12:30:00","10.3773","3.32445","24.208","2.419","7.45","0.832","4.832","0.11","0.22","29.7678","4.69857","26.14","0","SATNPRO1964","26.904","0.37682","5"],
    [56747,"HCEP03730563","2025-08-10 12:45:00","10.3715","3.32264","24.353","2.504","7.45","0.814","2.768","0.13","0.2","29.7545","4.69678","27.05","0","SATNPRO1964","27.184","0.38078","5"],
    [56748,"HCEP03730563","2025-08-10 13:00:00","10.3781","3.32455","24.544","2.568","7.46","0.821","3.956","0.08","0.35","29.7679","4.69859","27.74","0","SATNPRO1964","27.076","0.37928","5"],
    [56749,"HCEP03730563","2025-08-10 13:15:00","10.3782","3.32477","24.725","2.478","7.45","0.934","5.097","0.1","0.24","29.7699","4.6989","26.78","0","SATNPRO1964","26.65","0.3733","5"],
    [56750,"HCEP03730563","2025-08-10 13:30:00","10.377","3.32464","24.924","2.405","7.45","0.857","4.602","0.08","0.3","29.7696","4.69888","25.99","0","SATNPRO1964","26.624000000000002","0.37292","5"],
    [56751,"HCEP03730563","2025-08-10 13:45:00","10.3754","3.3244","25.114","2.383","7.44","3.936","54.209","2.43","21.41","29.7685","4.69876","25.74","0","SATNPRO1964","26.616","0.37282","5"],
    [56752,"HCEP03730563","2025-08-10 14:00:00","10.3728","3.32398","25.32","2.389","7.44","0.853","4.678","0.09","0.42","29.7662","4.69849","25.81","0","SATNPRO1964","26.948","0.3775","5"],
    [56753,"HCEP03730563","2025-08-10 14:15:00","10.372","3.32328","25.516","2.433","7.45","0.897","3.631","0.15","0.31","29.7599","4.69761","26.29","0","SATNPRO1964","27.105999999999998","0.37972","5"],
    [56754,"HCEP03730563","2025-08-10 14:30:00","10.3675","3.32245","25.758","2.541","7.45","0.831","3.547","0.1","0.22","29.7553","4.69705","27.45","0","SATNPRO1964","27.106","0.37966","5"],
    [56755,"HCEP03730563","2025-08-10 14:45:00","10.3644","3.32191","25.97","2.466","7.45","0.865","4.152","0.09","0.44","29.7524","4.69669","26.64","0","SATNPRO1964","26.818","0.37562","5"],
    [56756,"HCEP03730563","2025-08-10 15:00:00","10.3614","3.32136","26.157","2.421","7.45","0.85","3.712","0.12","0.2","29.7493","4.69631","26.15","0","SATNPRO1964","26.704","0.37402","5"],
    [56757,"HCEP03730563","2025-08-10 15:15:00","10.3597","3.32095","26.356","2.362","7.44","0.84","3.221","0.11","0.15","29.7465","4.69596","25.5","0","SATNPRO1964","26.536","0.3717","5"],
    [56758,"HCEP03730563","2025-08-10 15:30:00","10.3618","3.32119","26.597","2.359","7.44","0.837","3.009","0.15","0.16","29.7471","4.69602","25.48","0","SATNPRO1964","26.93","0.3772","5"],
    [56759,"HCEP03730563","2025-08-10 15:45:00","10.3725","3.32191","26.792","2.501","7.45","0.906","2.352","0.21","0.15","29.7454","4.69561","27.01","0","SATNPRO1964","27.784","0.38916","5"],
    [56760,"HCEP03730563","2025-08-10 16:00:00","10.3703","3.321","26.985","2.682","7.46","0.811","1.693","0.12","0.07","29.7382","4.69462","28.97","0","SATNPRO1964","27.802","0.38942","5"],
    [56761,"HCEP03730563","2025-08-10 16:15:00","10.3685","3.32094","27.161","2.706","7.46","0.941","3.306","0.18","1.01","29.7389","4.69477","29.23","0","SATNPRO1964","27.63","0.387","5"],
    [56762,"HCEP03730563","2025-08-10 16:30:00","10.3665","3.32218","27.321","2.616","7.46","0.846","4.023","0.13","0.49","29.7528","4.69679","28.25","0","SATNPRO1964","27.016000000000002","0.37842","5"],
    [56763,"HCEP03730563","2025-08-10 16:45:00","10.3658","3.3222","27.473","2.503","7.45","0.806","2.972","0.09","0.1","29.7534","4.6969","27.04","0","SATNPRO1964","27.018","0.37844","5"],
    [56764,"HCEP03730563","2025-08-10 17:00:00","10.3653","3.32202","27.592","2.478","7.45","0.777","2.671","0.12","0.11","29.7521","4.69673","26.76","0","SATNPRO1964","27.326","0.38274","5"],
    [56765,"HCEP03730563","2025-08-10 17:15:00","10.3613","3.32","27.651","2.52","7.45","0.913","2.306","0.49","0.17","29.7353","4.6944","27.22","0","SATNPRO1964","27.904","0.39086","5"],
    [56766,"HCEP03730563","2025-08-10 17:30:00","10.3615","3.31966","27.701","2.578","7.46","0.755","2.221","0.11","0.09","29.7318","4.6939","27.84","0","SATNPRO1964","27.924","0.39112","5"],
    [56767,"HCEP03730563","2025-08-10 17:45:00","10.3636","3.32091","27.746","2.554","7.46","0.83","2.556","0.14","0.85","29.7424","4.69538","27.59","0","SATNPRO1964","27.266","0.3819","5"],
    [56768,"HCEP03730563","2025-08-10 18:00:00","10.3657","3.32083","27.762","2.452","7.45","0.839","2.645","0.24","0.11","29.7398","4.69498","26.48","0","SATNPRO1964","26.69","0.37384","5"],
    [56769,"HCEP03730563","2025-08-10 18:15:00","10.3692","3.32066","27.772","2.311","7.44","1.61","22.895","0.51","11.78","29.7353","4.69428","24.96","0","SATNPRO1964","26.016000000000002","0.3644","5"],
    [56770,"HCEP03730563","2025-08-10 18:30:00","10.3692","3.32064","27.747","2.215","7.43","0.853","3.373","0.18","0.18","29.7351","4.69425","23.93","0","SATNPRO1964","25.962","0.36366","5"],
    [56771,"HCEP03730563","2025-08-10 18:45:00","10.369","3.32094","27.713","2.162","7.43","0.969","4.204","0.19","0.12","29.7383","4.6947","23.35","0","SATNPRO1964","26.158","0.3664","5"],
    [56772,"HCEP03730563","2025-08-10 19:00:00","10.367","3.32124","27.676","2.116","7.42","0.827","4.115","0.07","0.17","29.7429","4.69539","22.85","0","SATNPRO1964","25.779999999999998","0.3611","5"],
    [56773,"HCEP03730563","2025-08-10 19:15:00","10.3676","3.32104","27.629","2.102","7.42","0.869","3.711","0.21","0.17","29.7404","4.69502","22.71","0","SATNPRO1964","26.358","0.36918","5"],
    [56774,"HCEP03730563","2025-08-10 19:30:00","10.368","3.32102","27.559","2.113","7.42","0.855","3.693","0.15","0.11","29.74","4.69495","22.83","0","SATNPRO1964","26.11","0.3657","5"],
    [56775,"HCEP03730563","2025-08-10 19:45:00","10.3689","3.32101","27.483","2.115","7.42","0.801","3.614","0.11","0.2","29.7392","4.69482","22.84","0","SATNPRO1964","25.834","0.36182","5"],
    [56776,"HCEP03730563","2025-08-10 20:00:00","10.3689","3.32123","27.395","2.1","7.42","0.816","4.004","0.15","0.33","29.7414","4.69513","22.68","0","SATNPRO1964","25.71","0.3601","5"],
    [56777,"HCEP03730563","2025-08-10 20:15:00","10.3695","3.32134","27.31","2.107","7.42","0.786","3.636","0.1","0.17","29.742","4.6952","22.76","0","SATNPRO1964","26.113999999999997","0.3658","5"],
    [56778,"HCEP03730563","2025-08-10 20:30:00","10.3692","3.32162","27.2","2.121","7.42","0.755","4.465","0.06","0.37","29.7451","4.69564","22.91","0","SATNPRO1964","25.936","0.36326","5"],
    [56779,"HCEP03730563","2025-08-10 20:45:00","10.3727","3.32194","27.076","2.126","7.42","0.851","4.087","0.16","0.29","29.7454","4.69562","22.96","0","SATNPRO1964","25.966","0.36368","5"],
    [56780,"HCEP03730563","2025-08-10 21:00:00","10.3705","3.32198","26.98","2.209","7.42","0.842","4.995","0.1","0.36","29.7477","4.69598","23.86","0","SATNPRO1964","26.624","0.37294","5"],
    [56781,"HCEP03730563","2025-08-10 21:15:00","10.373","3.32226","26.878","2.375","7.43","0.793","4.891","0.07","1.01","29.7485","4.69605","25.65","0","SATNPRO1964","27.182000000000002","0.38072","5"],
    [56782,"HCEP03730563","2025-08-10 21:30:00","10.3773","3.32362","26.725","2.402","7.44","0.8","5.838","0.08","0.38","29.7585","4.69739","25.95","0","SATNPRO1964","26.826","0.37574","5"],
    [56783,"HCEP03730563","2025-08-10 21:45:00","10.3792","3.32415","26.596","2.391","7.44","0.794","6.478","0.05","0.52","29.7622","4.69789","25.84","0","SATNPRO1964","27.12","0.3799","5"],
    [56784,"HCEP03730563","2025-08-10 22:00:00","10.3778","3.32415","26.459","2.405","7.44","0.792","6.644","0.13","0.34","29.7635","4.69808","25.99","0","SATNPRO1964","27.036","0.37868","5"],
    [56785,"HCEP03730563","2025-08-10 22:15:00","10.3744","3.32396","26.335","2.384","7.44","0.771","6.987","0.12","0.46","29.7644","4.69826","25.75","0","SATNPRO1964","26.98","0.37788","5"],
    [56786,"HCEP03730563","2025-08-10 22:30:00","10.3694","3.32316","26.187","2.327","7.44","0.747","6.066","0.09","0.29","29.7606","4.69779","25.14","0","SATNPRO1964","26.642","0.3732","5"],
    [56787,"HCEP03730563","2025-08-10 22:45:00","10.3643","3.32238","26.025","2.262","7.43","0.762","5.71","0.09","0.31","29.757","4.69736","24.43","0","SATNPRO1964","26.542","0.37176","5"],
    [56788,"HCEP03730563","2025-08-10 23:00:00","10.360900000000001","3.32204","25.913","2.228","7.43","0.734","5.546","0.11","0.44","29.7565","4.69733","24.07","0","SATNPRO1964","26.492","0.37106","5"],
    [56789,"HCEP03730563","2025-08-10 23:15:00","10.3596","3.3218","25.825","2.214","7.43","0.794","5.425","0.11","0.36","29.7552","4.69716","23.91","0","SATNPRO1964","26.414","0.36998","5"],
    [56790,"HCEP03730563","2025-08-10 23:30:00","10.3592","3.32174","25.77","2.205","7.43","0.72","4.852","0.11","0.27","29.755","4.69714","23.81","0","SATNPRO1964","26.38","0.3695","5"],
    [56791,"HCEP03730563","2025-08-10 23:45:00","10.3566","3.32131","25.748","2.192","7.43","0.757","5.641","0.08","2.22","29.7529","4.69688","23.67","0","SATNPRO1964","26.486","0.37098","5"],
    [56792,"HCEP03730563","2025-08-11 00:00:00","10.3548","3.32104","25.74","2.179","7.43","0.757","5.017","0.11","0.28","29.7516","4.69672","23.53","0","SATNPRO1964","26.46","0.37062","5"],
    [56793,"HCEP03730563","2025-08-11 00:15:00","10.3531","3.32076","25.755","2.167","7.42","0.889","23.421","0.13","7.33","29.7502","4.69656","23.4","0","SATNPRO1964","26.088","0.3654","5"],
    [56794,"HCEP03730563","2025-08-11 00:30:00","10.3508","3.3204","25.785","2.152","7.42","0.716","4.288","0.09","0.28","29.7486","4.69636","23.24","0","SATNPRO1964","26.296","0.36834","5"],
    [56795,"HCEP03730563","2025-08-11 00:45:00","10.3488","3.32008","25.868","2.138","7.42","0.781","4.473","0.15","0.31","29.747","4.69617","23.08","0","SATNPRO1964","26.336","0.3689","5"],
    [56796,"HCEP03730563","2025-08-11 01:00:00","10.3477","3.31998","25.906","2.126","7.42","0.719","4.696","0.16","0.28","29.7469","4.69617","22.96","0","SATNPRO1964","26.552","0.37186","5"],
    [56797,"HCEP03730563","2025-08-11 01:15:00","10.3492","3.32012","25.969","2.099","7.42","0.718","4.674","0.1","0.28","29.747","4.69617","22.66","0","SATNPRO1964","26.221999999999998","0.3673","5"],
    [56798,"HCEP03730563","2025-08-11 01:30:00","10.3493","3.32021","26.065","2.088","7.42","0.744","4.735","0.16","0.28","29.7478","4.69629","22.54","0","SATNPRO1964","26.328","0.36876","5"],
    [56799,"HCEP03730563","2025-08-11 01:45:00","10.3494","3.32012","26.146","2.08","7.42","0.697","4.601","0.06","0.21","29.7468","4.69614","22.46","0","SATNPRO1964","26.188","0.3668","5"],
    [56800,"HCEP03730563","2025-08-11 02:00:00","10.3522","3.32057","26.263","2.075","7.42","0.697","4.96","0.06","0.55","29.7489","4.69641","22.4","0","SATNPRO1964","26.122","0.36586","5"],
    [56801,"HCEP03730563","2025-08-11 02:15:00","10.3546","3.32088","26.357","2.053","7.41","0.817","5.242","0.25","0.2","29.7499","4.69652","22.17","0","SATNPRO1964","26.086","0.3654","5"],
    [56802,"HCEP03730563","2025-08-11 02:30:00","10.3577","3.32139","26.454","2.059","7.41","0.804","5.84","0.17","0.32","29.7524","4.69683","22.24","0","SATNPRO1964","26.178","0.36666","5"],
    [56803,"HCEP03730563","2025-08-11 02:45:00","10.3606","3.32184","26.569","2.097","7.42","0.805","5.527","0.07","0.22","29.7546","4.6971","22.65","0","SATNPRO1964","26.364","0.3693","5"],
    [56804,"HCEP03730563","2025-08-11 03:00:00","10.3628","3.32208","26.678","2.16","7.42","0.734","4.993","0.1","0.28","29.7551","4.69714","23.33","0","SATNPRO1964","26.56","0.37202","5"],
    [56805,"HCEP03730563","2025-08-11 03:15:00","10.3648","3.32236","26.777","2.215","7.42","0.754","4.606","0.08","0.27","29.7561","4.69727","23.93","0","SATNPRO1964","26.648","0.37322","5"],
    [56806,"HCEP03730563","2025-08-11 03:30:00","10.3667","3.32258","26.882","2.277","7.43","0.771","4.251","0.21","0.22","29.7567","4.69732","24.6","0","SATNPRO1964","26.846","0.37602","5"],
    [56807,"HCEP03730563","2025-08-11 03:45:00","10.369","3.32282","26.981","2.308","7.43","0.798","4.571","0.12","0.3","29.7571","4.69735","24.94","0","SATNPRO1964","26.982","0.37794","5"],
    [56808,"HCEP03730563","2025-08-11 04:00:00","10.3713","3.32314","27.079","2.336","7.43","0.743","4.848","0.1","0.35","29.7585","4.6975","25.23","0","SATNPRO1964","26.798000000000002","0.37534","5"],
    [56809,"HCEP03730563","2025-08-11 04:15:00","10.3728","3.32331","27.171","2.343","7.44","0.836","4.91","0.12","0.37","29.7589","4.69755","25.31","0","SATNPRO1964","26.884","0.3766","5"],
    [56810,"HCEP03730563","2025-08-11 04:30:00","10.3731","3.32331","27.26","2.348","7.44","0.843","4.611","0.22","0.35","29.7587","4.69752","25.36","0","SATNPRO1964","26.894000000000002","0.37672","5"],
    [56811,"HCEP03730563","2025-08-11 04:45:00","10.3723","3.32315","27.318","2.331","7.44","0.824","4.545","0.1","0.52","29.7576","4.69739","25.18","0","SATNPRO1964","26.704","0.37404","5"],
    [56812,"HCEP03730563","2025-08-11 05:00:00","10.3718","3.32291","27.374","2.318","7.43","0.779","4.193","0.1","0.31","29.7557","4.69713","25.04","0","SATNPRO1964","26.663999999999998","0.3735","5"],
    [56813,"HCEP03730563","2025-08-11 05:15:00","10.3708","3.32267","27.418","2.3","7.43","0.814","4.483","0.1","0.29","29.7541","4.6969","24.85","0","SATNPRO1964","26.538","0.3717","5"],
    [56814,"HCEP03730563","2025-08-11 05:30:00","10.3683","3.3222","27.426","2.254","7.43","0.789","4.017","0.12","0.26","29.7515","4.69658","24.35","0","SATNPRO1964","26.404","0.36982","5"],
    [56815,"HCEP03730563","2025-08-11 05:45:00","10.3684","3.32206","27.432","2.222","7.43","0.94","4.489","0.2","0.31","29.75","4.69636","24","0","SATNPRO1964","26.404","0.36984","5"],
    [56816,"HCEP03730563","2025-08-11 06:00:00","10.3683","3.32182","27.405","2.198","7.43","0.841","4.275","0.09","0.35","29.7477","4.69605","23.75","0","SATNPRO1964","26.162","0.36644","5"],
    [56817,"HCEP03730563","2025-08-11 06:15:00","10.3678","3.32144","27.365","2.177","7.42","0.921","4.17","0.2","0.21","29.7444","4.69557","23.51","0","SATNPRO1964","26.024","0.36448","5"],
    [56818,"HCEP03730563","2025-08-11 06:30:00","10.3674","3.32126","27.296","2.16","7.42","0.852","3.835","0.14","0.18","29.743","4.69538","23.33","0","SATNPRO1964","26.13","0.366","5"],
    [56819,"HCEP03730563","2025-08-11 06:45:00","10.3661","3.32037","27.201","2.169","7.42","0.918","3.597","0.17","0.3","29.7352","4.69428","23.42","0","SATNPRO1964","26.4","0.36978","5"],
    [56820,"HCEP03730563","2025-08-11 07:00:00","10.3669","3.32105","27.097","2.163","7.42","0.878","4.504","0.12","0.28","29.7413","4.69514","23.36","0","SATNPRO1964","25.812","0.36156","5"],
    [56821,"HCEP03730563","2025-08-11 07:15:00","10.3665","3.32097","26.963","2.08","7.42","1","5.092","0.15","0.27","29.741","4.69509","22.46","0","SATNPRO1964","25.47","0.35678","5"],
    [56822,"HCEP03730563","2025-08-11 07:30:00","10.3663","3.32078","26.813","2.035","7.41","0.895","4.825","0.13","0.23","29.7393","4.69484","21.98","0","SATNPRO1964","25.27","0.35396","5"],
    [56823,"HCEP03730563","2025-08-11 07:45:00","10.3657","3.32065","26.633","2.013","7.41","0.93","5.096","0.23","0.22","29.7385","4.69473","21.74","0","SATNPRO1964","25.304","0.35446","5"],
    [56824,"HCEP03730563","2025-08-11 08:00:00","10.3658","3.32059","26.456","1.988","7.41","0.829","4.883","0.09","0.44","29.7379","4.69462","21.47","0","SATNPRO1964","25.336","0.35488","5"],
    [56825,"HCEP03730563","2025-08-11 08:15:00","10.3678","3.32061","26.274","1.989","7.41","0.884","4.847","0.1","0.38","29.7365","4.69439","21.48","0","SATNPRO1964","25.328","0.35476","5"],
    [56826,"HCEP03730563","2025-08-11 08:30:00","10.3686","3.32069","26.081","2.003","7.41","0.862","4.264","0.18","0.26","29.7368","4.6944","21.64","0","SATNPRO1964","25.566","0.3581","5"],
    [56827,"HCEP03730563","2025-08-11 08:45:00","10.3698","3.32089","25.892","2.026","7.41","0.785","3.719","0.08","0.18","29.7379","4.69453","21.89","0","SATNPRO1964","25.636","0.35906","5"],
    [56828,"HCEP03730563","2025-08-11 09:00:00","10.3759","3.32123","25.682","2.092","7.41","0.795","3.326","0.12","0.55","29.7363","4.69419","22.6","0","SATNPRO1964","25.848","0.36206","5"],
    [56829,"HCEP03730563","2025-08-11 09:15:00","10.3777","3.32155","25.483","2.17","7.42","0.794","3.153","0.16","0.17","29.7381","4.69441","23.44","0","SATNPRO1964","26.406","0.36986","5"],
    [56830,"HCEP03730563","2025-08-11 09:30:00","10.3744","3.32138","25.305","2.198","7.42","0.774","3.994","0.08","0.26","29.7392","4.69461","23.74","0","SATNPRO1964","26.14","0.36614","5"],
    [56831,"HCEP03730563","2025-08-11 09:45:00","10.3743","3.32154","25.077","2.159","7.42","0.78","3.816","0.07","0.14","29.741","4.69485","23.32","0","SATNPRO1964","26.11","0.36568","5"],
    [56832,"HCEP03730563","2025-08-11 10:00:00","10.3735","3.32162","24.868","2.161","7.42","0.851","4.448","0.12","0.43","29.7425","4.69507","23.34","0","SATNPRO1964","26.14","0.36612","5"],
    [56833,"HCEP03730563","2025-08-11 10:15:00","10.3879","3.32329","24.663","2.254","7.42","0.896","4.209","0.2","0.59","29.7473","4.69551","24.35","0","SATNPRO1964","26.65","0.37326","5"],
    [56834,"HCEP03730563","2025-08-11 10:30:00","10.3908","3.32386","24.473","2.357","7.43","0.79","4.054","0.15","0.26","29.7508","4.69594","25.47","0","SATNPRO1964","26.666","0.3735","5"],
    [56835,"HCEP03730563","2025-08-11 10:45:00","10.393","3.32421","24.307","2.385","7.44","0.797","4.265","0.07","0.23","29.7524","4.69614","25.77","0","SATNPRO1964","26.662","0.37342","5"],
    [56836,"HCEP03730563","2025-08-11 11:00:00","10.3959","3.32428","24.187","2.441","7.44","0.787","4.152","0.13","0.2","29.7508","4.69585","26.39","0","SATNPRO1964","26.878","0.37646","5"],
    [56837,"HCEP03730563","2025-08-11 11:15:00","10.405","3.32572","24.067","2.493","7.44","0.833","4.064","0.27","0.74","29.7577","4.69668","26.95","0","SATNPRO1964","27.376","0.38348","5"],
    [56838,"HCEP03730563","2025-08-11 11:30:00","10.4042","3.32593","24.011","2.552","7.45","0.725","4.233","0.07","0.35","29.7604","4.69708","27.59","0","SATNPRO1964","27.352","0.38308","5"],
    [56839,"HCEP03730563","2025-08-11 11:45:00","10.4112","3.32685","24.005","2.585","7.45","0.75","4.037","0.1","0.29","29.7638","4.69745","27.95","0","SATNPRO1964","27.562","0.38602","5"],
    [56840,"HCEP03730563","2025-08-11 12:00:00","10.4125","3.32723","24.021","2.618","7.46","0.743","3.838","0.13","0.18","29.7665","4.69781","28.31","0","SATNPRO1964","27.354","0.38314","5"],
    [56841,"HCEP03730563","2025-08-11 12:15:00","10.4179","3.32797","24.064","2.661","7.46","0.775","3.549","0.18","0.19","29.7695","4.69815","28.78","0","SATNPRO1964","27.56","0.38602","5"],
    [56842,"HCEP03730563","2025-08-11 12:30:00","10.4194","3.32816","24.111","2.712","7.47","0.698","3.481","0.11","0.21","29.7701","4.69821","29.33","0","SATNPRO1964","27.534","0.38566","5"],
    [56843,"HCEP03730563","2025-08-11 12:45:00","10.4198","3.32816","24.201","2.723","7.47","0.721","3.717","0.06","0.32","29.7697","4.69816","29.45","0","SATNPRO1964","27.546","0.38586","5"],
    [56844,"HCEP03730563","2025-08-11 13:00:00","10.4218","3.32829","24.284","2.726","7.47","0.743","3.723","0.12","0.16","29.7694","4.69808","29.49","0","SATNPRO1964","27.6","0.38662","5"],
    [56845,"HCEP03730563","2025-08-11 13:15:00","10.4215","3.32821","24.408","2.752","7.47","0.784","3.547","0.15","0.12","29.7687","4.698","29.76","0","SATNPRO1964","27.656","0.38738","5"],
    [56846,"HCEP03730563","2025-08-11 13:30:00","10.4222","3.32836","24.566","2.742","7.47","0.876","3.95","0.43","0.28","29.7697","4.69814","29.66","0","SATNPRO1964","27.724","0.38834","5"],
    [56847,"HCEP03730563","2025-08-11 13:45:00","10.4247","3.32874","24.759","2.772","7.47","0.722","3.704","0.07","0.21","29.7712","4.69833","29.99","0","SATNPRO1964","27.946","0.3914","5"],
    [56848,"HCEP03730563","2025-08-11 14:00:00","10.4246","3.32881","24.94","2.787","7.48","0.684","3.642","0.09","0.19","29.7719","4.69844","30.15","0","SATNPRO1964","27.776","0.38908","5"],
    [56849,"HCEP03730563","2025-08-11 14:15:00","10.4398","3.32985","25.116","2.911","7.48","0.737","3.165","0.29","0.25","29.7698","4.6979","31.49","0","SATNPRO1964","28.442","0.39836","5"],
    [56850,"HCEP03730563","2025-08-11 14:30:00","10.4358","3.33015","25.302","3.024","7.49","0.735","3.521","0.27","0.26","29.7759","4.69885","32.72","0","SATNPRO1964","28.292","0.39628","5"],
    [56851,"HCEP03730563","2025-08-11 14:45:00","10.438","3.33002","25.527","3.026","7.5","0.736","3.612","0.24","0.28","29.7727","4.69836","32.74","0","SATNPRO1964","28.236","0.39552","5"],
    [56852,"HCEP03730563","2025-08-11 15:00:00","10.4323","3.32928","25.779","2.995","7.49","0.712","4.701","0.07","0.43","29.77","4.69808","32.4","0","SATNPRO1964","28.288","0.39626","5"],
    [56853,"HCEP03730563","2025-08-11 15:15:00","10.4279","3.32859","26.003","2.906","7.49","0.707","4.488","0.05","0.31","29.7667","4.6977","31.43","0","SATNPRO1964","27.802","0.3894","5"],
    [56854,"HCEP03730563","2025-08-11 15:30:00","10.4298","3.32864","26.239","2.861","7.49","0.75","4.763","0.1","0.54","29.7655","4.69752","30.95","0","SATNPRO1964","27.852","0.3901","5"],
    [56855,"HCEP03730563","2025-08-11 15:45:00","10.4245","3.3279","26.473","2.835","7.48","0.725","4.373","0.05","0.27","29.7625","4.69718","30.67","0","SATNPRO1964","27.69","0.38788","5"],
    [56856,"HCEP03730563","2025-08-11 16:00:00","10.4233","3.32744","26.662","2.778","7.48","0.697","3.51","0.18","0.24","29.7588","4.69668","30.05","0","SATNPRO1964","27.852","0.39008","5"],
    [56857,"HCEP03730563","2025-08-11 16:15:00","10.4409","3.32887","26.819","2.869","7.48","0.65","2.867","0.1","0.22","29.7585","4.69637","31.04","0","SATNPRO1964","29.066","0.4071","5"],
    [56858,"HCEP03730563","2025-08-11 16:30:00","10.4961","3.3327","27.047","3.303","7.51","0.683","1.983","0.16","0.13","29.7512","4.69445","35.78","0","SATNPRO1964","28.951999999999998","0.40552","5"],
    [56859,"HCEP03730563","2025-08-11 16:45:00","10.4806","3.33155","27.229","3.664","7.54","0.717","1.584","0.19","0.18","29.7525","4.69489","39.67","0","SATNPRO1964","29.68","0.41572","5"],
    [56860,"HCEP03730563","2025-08-11 17:00:00","10.4388","3.32857","27.431","3.421","7.53","0.731","3.148","0.14","0.16","29.757","4.69623","37.01","0","SATNPRO1964","28.14","0.39414","5"],
    [56861,"HCEP03730563","2025-08-11 17:15:00","10.4299","3.32833","27.555","3.026","7.51","0.778","4.035","0.16","0.4","29.7619","4.69707","32.73","0","SATNPRO1964","27.774","0.38906","5"],
    [56862,"HCEP03730563","2025-08-11 17:30:00","10.4297","3.32899","27.656","2.855","7.49","0.813","7.153","0.07","0.51","29.7684","4.69801","30.88","0","SATNPRO1964","27.648","0.38726","5"],
    [56863,"HCEP03730563","2025-08-11 17:45:00","10.4326","3.32938","27.734","2.826","7.49","0.865","5.358","0.27","0.32","29.77","4.69819","30.57","0","SATNPRO1964","27.916","0.391","5"],
    [56864,"HCEP03730563","2025-08-11 18:00:00","10.4379","3.32979","27.76","2.9","7.49","0.663","3.651","0.06","0.26","29.7697","4.69807","31.38","0","SATNPRO1964","28.306","0.3965","5"],
    [56865,"HCEP03730563","2025-08-11 18:15:00","10.438","3.32926","27.83","2.971","7.49","1.258","8.848","0.46","4.83","29.7644","4.69731","32.14","0","SATNPRO1964","28.028","0.39258","5"],
    [56866,"HCEP03730563","2025-08-11 18:30:00","10.4328","3.32832","27.883","2.935","7.49","0.653","3.857","0.08","0.52","29.7592","4.69666","31.75","0","SATNPRO1964","27.756","0.38876","5"],
    [56867,"HCEP03730563","2025-08-11 18:45:00","10.4292","3.32787","27.87","2.846","7.49","0.716","3.962","0.12","0.26","29.7577","4.69651","30.79","0","SATNPRO1964","27.768","0.38892","5"],
    [56868,"HCEP03730563","2025-08-11 19:00:00","10.4342","3.32891","27.832","2.828","7.48","0.891","4.68","0.3","0.47","29.7639","4.69731","30.6","0","SATNPRO1964","28.04","0.39276","5"],
    [56869,"HCEP03730563","2025-08-11 19:15:00","10.4395","3.32968","27.809","2.909","7.49","0.671","3.669","0.05","0.25","29.7673","4.6977","31.47","0","SATNPRO1964","28.424","0.39812","5"],
    [56870,"HCEP03730563","2025-08-11 19:30:00","10.4626","3.3323","27.773","3.15","7.5","0.59","1.741","0.1","0.15","29.7743","4.69833","34.1","0","SATNPRO1964","29.94","0.41934","5"],
    [56871,"HCEP03730563","2025-08-11 19:45:00","10.4747","3.33317","27.713","3.465","7.53","0.658","1.512","0.17","0.29","29.7732","4.69796","37.52","0","SATNPRO1964","28.488","0.39902","5"],
    [56872,"HCEP03730563","2025-08-11 20:00:00","10.4825","3.33403","27.634","3.597","7.54","0.655","1.907","0.15","0.28","29.7753","4.69814","38.96","0","SATNPRO1964","30.53","0.42762","5"],
    [56873,"HCEP03730563","2025-08-11 20:15:00","10.4877","3.33469","27.53","3.677","7.55","0.644","1.311","0.12","0.23","29.7776","4.69837","39.83","0","SATNPRO1964","30.682","0.42978","5"],
    [56874,"HCEP03730563","2025-08-11 20:30:00","10.4851","3.33455","27.414","3.744","7.56","0.619","3.088","0.11","0.42","29.7783","4.69851","40.55","0","SATNPRO1964","30.344","0.42504","5"],
    [56875,"HCEP03730563","2025-08-11 20:45:00","10.4725","3.33335","27.292","3.637","7.56","0.768","3.437","0.22","0.3","29.7768","4.6985","39.38","0","SATNPRO1964","29.492","0.41306","5"],
    [56876,"HCEP03730563","2025-08-11 21:00:00","10.4671","3.33298","27.166","3.462","7.55","0.701","4.08","0.16","0.33","29.7777","4.6987","37.48","0","SATNPRO1964","29.394","0.41174","5"],
    [56877,"HCEP03730563","2025-08-11 21:15:00","10.4572","3.33184","27.044","3.466","7.54","0.632","3.996","0.1","0.24","29.7745","4.6984","37.52","0","SATNPRO1964","29.036","0.40672","5"],
    [56878,"HCEP03730563","2025-08-11 21:30:00","10.449","3.33077","26.913","3.278","7.53","0.638","4.333","0.05","0.27","29.7707","4.69798","35.48","0","SATNPRO1964","28.746","0.40266","5"],
    [56879,"HCEP03730563","2025-08-11 21:45:00","10.4556","3.3309","26.776","3.224","7.52","0.658","3.146","0.09","0.27","29.7666","4.69729","34.9","0","SATNPRO1964","28.914","0.405","5"],
    [56880,"HCEP03730563","2025-08-11 22:00:00","10.4432","3.33029","26.651","3.184","7.52","0.646","5.473","0.06","0.23","29.7708","4.69807","34.45","0","SATNPRO1964","28.182","0.39474","5"],
    [56881,"HCEP03730563","2025-08-11 22:15:00","10.4411","3.32999","26.496","3.021","7.51","0.688","5.825","0.1","0.25","29.7696","4.69792","32.69","0","SATNPRO1964","28.12","0.39386","5"],
    [56882,"HCEP03730563","2025-08-11 22:30:00","10.435","3.32973","26.321","2.916","7.5","0.693","6.34","0.07","0.42","29.772","4.69837","31.55","0","SATNPRO1964","27.952","0.39152","5"],
    [56883,"HCEP03730563","2025-08-11 22:45:00","10.4376","3.33005","26.165","2.885","7.49","0.698","6.3","0.08","0.28","29.7732","4.69848","31.21","0","SATNPRO1964","28.154","0.39436","5"],
    [56884,"HCEP03730563","2025-08-11 23:00:00","10.4401","3.3305","25.987","2.908","7.49","0.664","6.136","0.05","0.42","29.7757","4.69878","31.46","0","SATNPRO1964","28.074","0.39324","5"],
    [56885,"HCEP03730563","2025-08-11 23:15:00","10.4441","3.33067","25.83","2.946","7.49","0.7","4.692","0.15","0.25","29.7741","4.69848","31.88","0","SATNPRO1964","28.408","0.3979","5"],
    [56886,"HCEP03730563","2025-08-11 23:30:00","10.4497","3.33073","25.691","3.039","7.5","0.641","4.555","0.08","0.39","29.7702","4.69783","32.89","0","SATNPRO1964","28.434","0.39826","5"],
    [56887,"HCEP03730563","2025-08-11 23:45:00","10.4298","3.32902","25.536","2.944","7.5","0.677","4.826","0.1","0.29","29.7695","4.69805","31.85","0","SATNPRO1964","27.758","0.38882","5"],
    [56888,"HCEP03730563","2025-08-12 00:00:00","10.425","3.3287","25.388","2.759","7.48","0.754","4.992","0.23","0.36","29.7704","4.69824","29.85","0","SATNPRO1964","27.56","0.38602","5"],
    [56889,"HCEP03730563","2025-08-12 00:15:00","10.4172","3.32782","25.334","2.651","7.48","0.676","4.953","0.13","0.37","29.7681","4.69803","28.67","0","SATNPRO1964","27.364","0.38326","5"],
    [56890,"HCEP03730563","2025-08-12 00:30:00","10.4096","3.32701","25.334","2.546","7.47","0.666","5.301","0.07","0.79","29.7663","4.6979","27.52","0","SATNPRO1964","27.034","0.37868","5"],
    [56891,"HCEP03730563","2025-08-12 00:45:00","10.401","3.32594","25.367","2.451","7.46","0.723","5.084","0.09","0.37","29.7627","4.69753","26.5","0","SATNPRO1964","26.734","0.37448","5"],
    [56892,"HCEP03730563","2025-08-12 01:00:00","10.3938","3.32502","25.398","2.366","7.45","0.688","5.517","0.23","0.99","29.7594","4.69718","25.57","0","SATNPRO1964","26.772","0.375","5"],
    [56893,"HCEP03730563","2025-08-12 01:15:00","10.3922","3.32493","25.448","2.295","7.44","0.782","4.918","0.38","0.3","29.7598","4.69726","24.81","0","SATNPRO1964","26.104","0.36562","5"],
    [56894,"HCEP03730563","2025-08-12 01:30:00","10.3904","3.32483","25.501","2.252","7.44","0.662","5.447","0.09","0.44","29.7603","4.69736","24.34","0","SATNPRO1964","26.558","0.37198","5"],
    [56895,"HCEP03730563","2025-08-12 01:45:00","10.385","3.32408","25.593","2.213","7.43","0.773","5.467","0.12","0.34","29.7572","4.69701","23.91","0","SATNPRO1964","26.31","0.36848","5"],
    [56896,"HCEP03730563","2025-08-12 02:00:00","10.3843","3.32404","25.685","2.174","7.43","0.686","5.721","0.12","0.43","29.7574","4.69706","23.49","0","SATNPRO1964","26.498","0.37114","5"],
    [56897,"HCEP03730563","2025-08-12 02:15:00","10.3741","3.32254","25.789","2.13","7.43","0.759","4.883","0.17","0.29","29.7507","4.69628","23.01","0","SATNPRO1964","26.058","0.365","5"],
    [56898,"HCEP03730563","2025-08-12 02:30:00","10.3716","3.32223","25.889","2.084","7.42","0.678","4.5","0.15","0.24","29.7497","4.69619","22.51","0","SATNPRO1964","25.802","0.36144","5"],
    [56899,"HCEP03730563","2025-08-12 02:45:00","10.3632","3.32114","25.996","2.037","7.42","0.658","4.322","0.1","0.22","29.7458","4.69577","22","0","SATNPRO1964","26.266000000000002","0.3679","5"],
    [56900,"HCEP03730563","2025-08-12 03:00:00","10.36","3.32073","26.119","1.984","7.41","0.725","4.175","0.14","0.21","29.7443","4.69561","21.43","0","SATNPRO1964","25.916","0.36298","5"],
    [56901,"HCEP03730563","2025-08-12 03:15:00","10.3578","3.32053","26.231","1.947","7.41","0.676","4.057","0.12","0.21","29.7439","4.69561","21.03","0","SATNPRO1964","25.766","0.3609","5"],
    [56902,"HCEP03730563","2025-08-12 03:30:00","10.3538","3.31993","26.345","1.914","7.41","0.763","4.199","0.14","0.28","29.7412","4.69529","20.67","0","SATNPRO1964","25.896","0.3627","5"],
    [56903,"HCEP03730563","2025-08-12 03:45:00","10.3547","3.32025","26.461","1.896","7.4","0.757","3.761","0.18","0.22","29.7436","4.69563","20.47","0","SATNPRO1964","25.774","0.36102","5"],
    [56904,"HCEP03730563","2025-08-12 04:00:00","10.354","3.10041","26.589","1.923","7.4","0.731","3.773","0.27","0.25","27.5732","4.3848","20.48","0","SATNPRO1964","25.948","0.36344","5"],
    [56905,"HCEP03730563","2025-08-12 04:15:00","10.3512","3.31957","26.718","1.881","7.4","0.796","3.594","0.35","0.2","29.7397","4.69513","20.31","0","SATNPRO1964","26.032","0.3646","5"],
    [56906,"HCEP03730563","2025-08-12 04:30:00","10.3499","3.31941","26.848","1.873","7.4","0.852","3.974","0.46","0.69","29.7391","4.69508","20.22","0","SATNPRO1964","26.105999999999998","0.36564","5"],
    [56907,"HCEP03730563","2025-08-12 04:45:00","10.3665","3.32181","26.973","1.899","7.4","0.758","4.516","0.15","0.26","29.7493","4.69627","20.51","0","SATNPRO1964","26.466","0.37068","5"],
    [56908,"HCEP03730563","2025-08-12 05:00:00","10.3691","3.32198","27.095","1.959","7.4","0.756","4.532","0.23","1.15","29.7488","4.69616","21.17","0","SATNPRO1964","26.072","0.36518","5"],
    [56909,"HCEP03730563","2025-08-12 05:15:00","10.3722","3.32275","27.209","1.984","7.4","0.738","4.208","0.14","0.2","29.7539","4.69685","21.43","0","SATNPRO1964","26.216","0.36718","5"],
    [56910,"HCEP03730563","2025-08-12 05:30:00","10.3691","3.3223","27.302","2.012","7.41","0.665","4.347","0.07","0.36","29.7518","4.69661","21.74","0","SATNPRO1964","26.16","0.36644","5"],
    [56911,"HCEP03730563","2025-08-12 05:45:00","10.3874","3.32467","27.373","2.051","7.41","0.804","6.036","0.21","3.66","29.7604","4.69754","22.16","0","SATNPRO1964","26.23","0.3674","5"],
    [56912,"HCEP03730563","2025-08-12 06:00:00","10.3921","3.32528","27.422","2.127","7.42","0.648","4.281","0.09","0.17","29.7626","4.69777","22.98","0","SATNPRO1964","26.43","0.37022","5"],
    [56913,"HCEP03730563","2025-08-12 06:15:00","10.3851","3.32422","27.446","2.151","7.42","0.717","4.721","0.11","0.33","29.7578","4.6972","23.24","0","SATNPRO1964","26.402","0.36978","5"],
    [56914,"HCEP03730563","2025-08-12 06:30:00","10.3952","3.3256","27.448","2.17","7.42","0.648","4.922","0.08","0.21","29.7632","4.69782","23.45","0","SATNPRO1964","26.926","0.37714","5"],
    [56915,"HCEP03730563","2025-08-12 06:45:00","10.4032","3.32663","27.419","2.218","7.42","0.695","4.428","0.08","0.24","29.7669","4.69821","23.98","0","SATNPRO1964","26.785999999999998","0.3752","5"],
    [56916,"HCEP03730563","2025-08-12 07:00:00","10.4055","3.3269","27.377","2.266","7.43","0.672","4.177","0.14","0.18","29.7677","4.69828","24.49","0","SATNPRO1964","26.768","0.3749","5"],
    [56917,"HCEP03730563","2025-08-12 07:15:00","10.4073","3.32714","27.307","2.3","7.43","0.672","4.147","0.08","0.27","29.7686","4.69838","24.87","0","SATNPRO1964","26.614","0.37278","5"],
    [56918,"HCEP03730563","2025-08-12 07:30:00","10.4103","3.3275","27.223","2.317","7.43","0.73","5.238","0.17","0.26","29.7697","4.69848","25.05","0","SATNPRO1964","26.718","0.37424","5"],
    [56919,"HCEP03730563","2025-08-12 07:45:00","10.4112","3.32747","27.106","2.336","7.44","0.744","4.558","0.1","0.15","29.7688","4.69833","25.26","0","SATNPRO1964","26.634","0.37304","5"],
    [56920,"HCEP03730563","2025-08-12 08:00:00","10.4114","3.32751","26.982","2.361","7.44","0.726","4.513","0.17","0.25","29.769","4.69836","25.53","0","SATNPRO1964","26.586000000000002","0.37238","5"],
    [56921,"HCEP03730563","2025-08-12 08:15:00","10.4124","3.32757","26.835","2.377","7.44","0.729","4.104","0.17","0.18","29.7689","4.69831","25.7","0","SATNPRO1964","27.044","0.3788","5"],
    [56922,"HCEP03730563","2025-08-12 08:30:00","10.414","3.32771","26.688","2.401","7.44","0.843","5.341","0.15","0.48","29.769","4.69829","25.96","0","SATNPRO1964","27.502","0.38522","5"],
    [56923,"HCEP03730563","2025-08-12 08:45:00","10.4166","3.32796","26.518","2.422","7.44","0.695","4.176","0.12","0.35","29.7695","4.69831","26.2","0","SATNPRO1964","26.884","0.37654","5"],
    [56924,"HCEP03730563","2025-08-12 09:00:00","10.4194","3.32822","26.342","2.453","7.45","0.648","3.905","0.09","0.18","29.7698","4.6983","26.53","0","SATNPRO1964","27.067999999999998","0.37912","5"],
    [56925,"HCEP03730563","2025-08-12 09:15:00","10.4253","3.32875","26.171","2.509","7.45","0.663","4.01","0.08","0.22","29.7703","4.69827","27.14","0","SATNPRO1964","27.338","0.38288","5"],
    [56926,"HCEP03730563","2025-08-12 09:30:00","10.4274","3.32887","25.999","2.588","7.46","0.683","3.904","0.19","0.23","29.7699","4.69816","28","0","SATNPRO1964","27.528","0.38558","5"],
    [56927,"HCEP03730563","2025-08-12 09:45:00","10.429","3.32898","25.824","2.625","7.46","0.656","3.483","0.09","0.15","29.7697","4.6981","28.39","0","SATNPRO1964","27.636","0.3871","5"],
    [56928,"HCEP03730563","2025-08-12 10:00:00","10.4291","3.32898","25.642","2.645","7.46","0.638","3.398","0.11","0.2","29.7697","4.69809","28.61","0","SATNPRO1964","27.548","0.38582","5"],
    [56929,"HCEP03730563","2025-08-12 10:15:00","10.4302","3.32898","25.449","2.658","7.46","0.68","4.093","0.08","0.36","29.7689","4.69794","28.75","0","SATNPRO1964","27.478","0.38488","5"],
    [56930,"HCEP03730563","2025-08-12 10:30:00","10.4273","3.32884","25.253","2.646","7.46","0.648","3.542","0.11","0.22","29.7699","4.69813","28.62","0","SATNPRO1964","27.504","0.38522","5"],
    [56931,"HCEP03730563","2025-08-12 10:45:00","10.4281","3.32893","25.081","2.614","7.46","0.666","3.461","0.11","0.29","29.7702","4.69814","28.27","0","SATNPRO1964","27.7","0.388","5"],
    [56932,"HCEP03730563","2025-08-12 11:00:00","10.4284","3.32901","24.895","2.612","7.46","0.611","3.812","0.07","0.32","29.7709","4.69823","28.25","0","SATNPRO1964","27.744","0.38862","5"],
    [56933,"HCEP03730563","2025-08-12 11:15:00","10.4346","3.32964","24.714","2.649","7.46","0.616","3.582","0.06","0.27","29.772","4.69828","28.65","0","SATNPRO1964","27.782","0.38916","5"],
    [56934,"HCEP03730563","2025-08-12 11:30:00","10.4276","3.32917","24.573","2.669","7.47","0.662","3.761","0.16","0.25","29.7733","4.69856","28.87","0","SATNPRO1964","27.488","0.38502","5"],
    [56935,"HCEP03730563","2025-08-12 11:45:00","10.4269","3.3291","24.47","2.615","7.46","0.672","3.99","0.08","0.34","29.7731","4.69854","28.29","0","SATNPRO1964","27.42","0.38402","5"],
    [56936,"HCEP03730563","2025-08-12 12:00:00","10.4326","3.32986","24.398","2.637","7.46","0.621","3.699","0.11","0.16","29.776","4.69885","28.53","0","SATNPRO1964","27.974","0.39186","5"],
    [56937,"HCEP03730563","2025-08-12 12:15:00","10.4278","3.32942","24.364","2.636","7.47","1.831","5.207","1.09","2.62","29.7756","4.69888","28.52","0","SATNPRO1964","27.634","0.38706","5"],
    [56938,"HCEP03730563","2025-08-12 12:30:00","10.4278","3.32946","24.359","2.608","7.46","0.6","3.7","0.08","0.29","29.7761","4.69895","28.21","0","SATNPRO1964","27.354","0.38308","5"],
    [56939,"HCEP03730563","2025-08-12 12:45:00","10.4284","3.32964","24.399","2.618","7.46","0.724","3.382","0.3","0.45","29.7773","4.69912","28.33","0","SATNPRO1964","27.532","0.38564","5"],
    [56940,"HCEP03730563","2025-08-12 13:00:00","10.4186","3.32844","24.455","2.603","7.46","0.6","3.284","0.17","0.17","29.7734","4.69872","28.15","0","SATNPRO1964","27.366","0.38334","5"],
    [56941,"HCEP03730563","2025-08-12 13:15:00","10.4227","3.32903","24.529","2.51","7.46","0.696","4.279","0.11","0.21","29.7759","4.69901","27.15","0","SATNPRO1964","27.258","0.38178","5"],
    [56942,"HCEP03730563","2025-08-12 13:30:00","10.4226","3.32898","24.646","2.471","7.45","0.654","4.174","0.07","0.5","29.7755","4.69896","26.73","0","SATNPRO1964","27.25","0.38168","5"],
    [56943,"HCEP03730563","2025-08-12 13:45:00","10.4243","3.32919","24.77","2.463","7.45","0.707","4.836","0.06","0.32","29.7761","4.69902","26.64","0","SATNPRO1964","27.184","0.38078","5"],
    [56944,"HCEP03730563","2025-08-12 14:00:00","10.4271","3.32949","24.913","2.485","7.45","0.71","4.057","0.15","0.27","29.7767","4.69908","26.89","0","SATNPRO1964","27.414","0.384","5"],
    [56945,"HCEP03730563","2025-08-12 14:15:00","10.4313","3.32989","25.068","2.544","7.46","0.699","3.654","0.1","0.12","29.7772","4.69908","27.52","0","SATNPRO1964","27.468","0.38478","5"],
    [56946,"HCEP03730563","2025-08-12 14:30:00","10.4362","3.33038","25.249","2.619","7.46","0.667","4.057","0.08","0.2","29.778","4.69913","28.33","0","SATNPRO1964","27.752","0.3887","5"],
    [56947,"HCEP03730563","2025-08-12 14:45:00","10.4391","3.33051","25.43","2.699","7.47","0.7","3.555","0.11","0.45","29.7768","4.69893","29.21","0","SATNPRO1964","27.849999999999998","0.3901","5"],
    [56948,"HCEP03730563","2025-08-12 15:00:00","10.4417","3.33064","25.611","2.802","7.47","0.613","3.626","0.12","0.3","29.7759","4.69876","30.32","0","SATNPRO1964","28.492","0.3991","5"],
    [56949,"HCEP03730563","2025-08-12 15:15:00","10.438","3.33021","25.804","2.805","7.48","0.758","4.553","0.1","0.29","29.7746","4.69865","30.34","0","SATNPRO1964","27.53","0.3856","5"],
    [56950,"HCEP03730563","2025-08-12 15:30:00","10.4364","3.33","25.993","2.659","7.47","0.828","5.669","0.13","0.59","29.7737","4.69856","28.77","0","SATNPRO1964","27.28","0.3821","5"],
    [56951,"HCEP03730563","2025-08-12 15:45:00","10.4379","3.33002","26.181","2.646","7.47","0.751","4.178","0.2","0.2","29.7726","4.69839","28.63","0","SATNPRO1964","27.604","0.38666","5"],
    [56952,"HCEP03730563","2025-08-12 16:00:00","10.4371","3.32979","26.398","2.646","7.47","0.694","4.976","0.08","0.3","29.7709","4.69817","28.63","0","SATNPRO1964","27.35","0.38308","5"],
    [56953,"HCEP03730563","2025-08-12 16:15:00","10.4379","3.32976","26.607","2.644","7.46","0.699","4.664","0.07","0.2","29.7699","4.69803","28.6","0","SATNPRO1964","27.602","0.38662","5"],
    [56954,"HCEP03730563","2025-08-12 16:30:00","10.4396","3.32976","26.817","2.656","7.47","0.664","4.198","0.08","0.3","29.7683","4.69779","28.74","0","SATNPRO1964","27.862000000000002","0.39024","5"],
    [56955,"HCEP03730563","2025-08-12 16:45:00","10.44","3.32981","27.009","2.667","7.47","0.719","4.808","0.08","0.35","29.7685","4.69781","28.86","0","SATNPRO1964","27.386","0.38358","5"],
    [56956,"HCEP03730563","2025-08-12 17:00:00","10.4453","3.33039","27.197","2.689","7.47","0.672","4.396","0.12","0.24","29.7698","4.69793","29.09","0","SATNPRO1964","27.87","0.39036","5"],
    [56957,"HCEP03730563","2025-08-12 17:15:00","10.4476","3.33067","27.366","2.759","7.47","0.719","4.506","0.06","0.19","29.7707","4.69803","29.86","0","SATNPRO1964","27.906","0.39086","5"],
    [56958,"HCEP03730563","2025-08-12 17:30:00","10.4479","3.33066","27.534","2.778","7.47","0.717","4.044","0.12","0.24","29.7702","4.69797","30.06","0","SATNPRO1964","27.791999999999998","0.38934","5"],
    [56959,"HCEP03730563","2025-08-12 17:45:00","10.4511","3.33086","27.668","2.785","7.48","0.702","3.648","0.08","0.2","29.7695","4.69782","30.14","0","SATNPRO1964","27.772","0.38898","5"],
    [56960,"HCEP03730563","2025-08-12 18:00:00","10.4473","3.33039","27.785","2.782","7.48","0.701","4.57","0.1","0.35","29.7679","4.69766","30.11","0","SATNPRO1964","27.526","0.38552","5"],
    [56961,"HCEP03730563","2025-08-12 18:15:00","10.4501","3.3305","27.884","2.75","7.47","0.739","3.971","0.13","0.27","29.7666","4.69744","29.76","0","SATNPRO1964","27.872","0.39038","5"],
    [56962,"HCEP03730563","2025-08-12 18:30:00","10.4487","3.33026","27.934","2.76","7.48","0.703","4.261","0.14","0.43","29.7654","4.69729","29.87","0","SATNPRO1964","27.958000000000002","0.39156","5"],
    [56963,"HCEP03730563","2025-08-12 18:45:00","10.4477","3.33009","27.966","2.754","7.47","0.723","4.415","0.08","0.29","29.7646","4.69719","29.8","0","SATNPRO1964","27.59","0.38642","5"],
    [56964,"HCEP03730563","2025-08-12 19:00:00","10.4451","3.32984","27.997","2.726","7.47","0.734","4.972","0.08","0.4","29.7643","4.69719","29.5","0","SATNPRO1964","27.47","0.38478","5"],
    [56965,"HCEP03730563","2025-08-12 19:15:00","10.4429","3.32967","28.002","2.664","7.47","0.774","5.971","0.08","0.39","29.7642","4.69722","28.82","0","SATNPRO1964","27.246","0.38164","5"],
    [56966,"HCEP03730563","2025-08-12 19:30:00","10.4438","3.32972","27.968","2.649","7.47","0.718","4.85","0.09","0.23","29.7641","4.69718","28.66","0","SATNPRO1964","27.48","0.38486","5"],
    [56967,"HCEP03730563","2025-08-12 19:45:00","10.4469","3.33005","27.898","2.688","7.47","0.756","4.137","0.27","0.38","29.7648","4.69723","29.08","0","SATNPRO1964","27.508","0.38526","5"],
    [56968,"HCEP03730563","2025-08-12 20:00:00","10.4448","3.32979","27.847","2.713","7.47","0.628","4.169","0.07","0.87","29.764","4.69715","29.36","0","SATNPRO1964","27.534","0.38568","5"],
    [56969,"HCEP03730563","2025-08-12 20:15:00","10.4458","3.32993","27.791","2.708","7.47","0.718","3.944","0.07","0.21","29.7646","4.69721","29.31","0","SATNPRO1964","27.56","0.38602","5"],
    [56970,"HCEP03730563","2025-08-12 20:30:00","10.4498","3.3304","27.73","2.741","7.47","0.661","3.598","0.09","0.18","29.766","4.69734","29.66","0","SATNPRO1964","27.822","0.38972","5"],
    [56971,"HCEP03730563","2025-08-12 20:45:00","10.448","3.33026","27.59","2.762","7.47","0.646","3.781","0.08","0.91","29.7662","4.6974","29.89","0","SATNPRO1964","27.706","0.38808","5"],
    [56972,"HCEP03730563","2025-08-12 21:00:00","10.4501","3.33031","27.477","2.772","7.47","0.596","3.32","0.06","0.23","29.7649","4.69717","30","0","SATNPRO1964","27.586","0.38642","5"],
    [56973,"HCEP03730563","2025-08-12 21:15:00","10.4498","3.33025","27.355","2.788","7.48","0.621","3.1","0.06","0.14","29.7647","4.69714","30.17","0","SATNPRO1964","27.898","0.3908","5"],
    [56974,"HCEP03730563","2025-08-12 21:30:00","10.4482","3.32993","27.223","2.79","7.48","0.587","3.103","0.06","0.08","29.7629","4.6969","30.19","0","SATNPRO1964","27.712","0.38816","5"],
    [56975,"HCEP03730563","2025-08-12 21:45:00","10.446","3.32955","27.093","2.782","7.48","0.616","3.071","0.07","0.27","29.7609","4.69664","30.1","0","SATNPRO1964","27.618000000000002","0.38684","5"],
    [56976,"HCEP03730563","2025-08-12 22:00:00","10.4461","3.32947","26.968","2.777","7.48","0.607","3.028","0.2","0.42","29.7601","4.69652","30.05","0","SATNPRO1964","27.676","0.38766","5"],
    [56977,"HCEP03730563","2025-08-12 22:15:00","10.4416","3.32872","26.796","2.784","7.48","0.635","2.758","0.14","0.15","29.7565","4.69607","30.12","0","SATNPRO1964","27.727999999999998","0.38838","5"],
    [56978,"HCEP03730563","2025-08-12 22:30:00","10.4423","3.32882","26.64","2.765","7.48","0.639","2.856","0.14","0.52","29.7569","4.69611","29.92","0","SATNPRO1964","27.81","0.38954","5"],
    [56979,"HCEP03730563","2025-08-12 22:45:00","10.4421","3.32885","26.507","2.767","7.48","0.632","3.161","0.15","0.19","29.7574","4.69617","29.93","0","SATNPRO1964","27.834","0.38986","5"],
    [56980,"HCEP03730563","2025-08-12 23:00:00","10.4406","3.32897","26.286","2.715","7.47","0.55","3.221","0.04","0.19","29.7599","4.69654","29.38","0","SATNPRO1964","27.79","0.38926","5"],
    [56981,"HCEP03730563","2025-08-12 23:15:00","10.4372","3.32853","26.085","2.711","7.47","0.654","3.397","0.13","0.15","29.7584","4.69638","29.33","0","SATNPRO1964","27.756","0.38878","5"],
    [56982,"HCEP03730563","2025-08-12 23:30:00","10.4346","3.32884","25.947","2.645","7.47","0.627","5.785","0.06","0.64","29.7637","4.69716","28.62","0","SATNPRO1964","27.348","0.38306","5"],
    [56983,"HCEP03730563","2025-08-12 23:45:00","10.4359","3.32922","25.775","2.483","7.46","0.65","5.822","0.04","0.39","29.7665","4.69752","26.86","0","SATNPRO1964","27.382","0.38354","5"],
    [56984,"HCEP03730563","2025-08-13 00:00:00","10.4351","3.32916","25.572","2.549","7.46","0.654","5.814","0.09","0.36","29.7667","4.69756","27.57","0","SATNPRO1964","27.38","0.38352","5"],
    [56985,"HCEP03730563","2025-08-13 00:15:00","10.4349","3.32938","25.406","2.525","7.46","0.622","5.524","0.04","0.28","29.769","4.69788","27.31","0","SATNPRO1964","27.386","0.38356","5"],
    [56986,"HCEP03730563","2025-08-13 00:30:00","10.429","3.32897","25.32","2.531","7.46","0.598","5.439","0.08","0.37","29.7698","4.69809","27.37","0","SATNPRO1964","27.272","0.38196","5"],
    [56987,"HCEP03730563","2025-08-13 00:45:00","10.4229","3.32844","25.196","2.443","7.45","0.636","5.765","0.19","1.66","29.7696","4.69815","26.42","0","SATNPRO1964","27","0.37816","5"],
    [56988,"HCEP03730563","2025-08-13 01:00:00","10.4192","3.32814","25.143","2.331","7.44","0.63","6.009","0.12","0.44","29.7697","4.69822","25.21","0","SATNPRO1964","27.078","0.37926","5"],
    [56989,"HCEP03730563","2025-08-13 01:15:00","10.4138","3.32762","25.098","2.244","7.44","0.633","5.785","0.08","0.38","29.7689","4.69819","24.27","0","SATNPRO1964","26.866","0.37628","5"],
    [56990,"HCEP03730563","2025-08-13 01:30:00","10.4077","3.32685","25.105","2.182","7.43","0.576","5.229","0.07","0.25","29.7663","4.69792","23.59","0","SATNPRO1964","26.774","0.37502","5"],
    [56991,"HCEP03730563","2025-08-13 01:45:00","10.4111","3.32719","25.127","2.152","7.43","0.636","5.268","0.12","0.24","29.7668","4.69794","23.27","0","SATNPRO1964","26.716","0.3742","5"],
    [56992,"HCEP03730563","2025-08-13 02:00:00","10.4076","3.32684","25.148","2.137","7.42","0.581","5.244","0.05","0.3","29.7662","4.69791","23.11","0","SATNPRO1964","26.756","0.37474","5"],
    [56993,"HCEP03730563","2025-08-13 02:15:00","10.4053","3.32658","25.219","2.101","7.42","0.669","5.159","0.36","0.25","29.7655","4.69786","22.72","0","SATNPRO1964","26.522000000000002","0.3715","5"],
    [56994,"HCEP03730563","2025-08-13 02:30:00","10.404","3.32643","25.299","2.059","7.42","0.6","5.018","0.08","0.24","29.7651","4.69782","22.26","0","SATNPRO1964","26.378","0.36948","5"],
    [56995,"HCEP03730563","2025-08-13 02:45:00","10.4092","3.32709","25.418","2.066","7.42","0.634","5.452","0.09","0.47","29.7673","4.69806","22.34","0","SATNPRO1964","26.704","0.374","5"],
    [56996,"HCEP03730563","2025-08-13 03:00:00","10.4049","3.32667","25.482","2.066","7.42","0.646","5.868","0.16","0.36","29.7666","4.69803","22.33","0","SATNPRO1964","26.462","0.37064","5"],
    [56997,"HCEP03730563","2025-08-13 03:15:00","10.4036","3.32636","25.613","2.049","7.41","0.623","5.053","0.07","0.26","29.7646","4.69778","22.15","0","SATNPRO1964","26.748","0.37466","5"],
    [56998,"HCEP03730563","2025-08-13 03:30:00","10.4124","3.32723","25.735","2.142","7.42","0.602","4.741","0.13","0.41","29.766","4.69783","23.16","0","SATNPRO1964","27.3","0.38236","5"],
    [56999,"HCEP03730563","2025-08-13 03:45:00","10.4212","3.32817","25.865","2.297","7.43","0.626","4.711","0.08","0.33","29.7681","4.698","24.84","0","SATNPRO1964","27.656000000000002","0.3874","5"],
    [57000,"HCEP03730563","2025-08-13 04:00:00","10.4306","3.32925","25.97","2.436","7.44","0.636","4.567","0.12","0.43","29.771","4.69827","26.35","0","SATNPRO1964","27.778","0.38906","5"],
    [57001,"HCEP03730563","2025-08-13 04:15:00","10.4347","3.32968","26.12","2.537","7.45","0.763","4.367","0.49","0.54","29.7718","4.69833","27.45","0","SATNPRO1964","27.796","0.38934","5"],
    [57002,"HCEP03730563","2025-08-13 04:30:00","10.438","3.33012","26.25","2.592","7.45","0.655","4.521","0.13","0.25","29.7735","4.69852","28.05","0","SATNPRO1964","27.712","0.38816","5"],
    [57003,"HCEP03730563","2025-08-13 04:45:00","10.4401","3.33043","26.365","2.616","7.46","0.686","4.453","0.12","0.3","29.7748","4.69868","28.3","0","SATNPRO1964","27.684","0.38774","5"],
    [57004,"HCEP03730563","2025-08-13 05:00:00","10.4425","3.33075","26.506","2.636","7.46","0.634","4.106","0.1","0.23","29.7759","4.69881","28.53","0","SATNPRO1964","27.902","0.39084","5"],
    [57005,"HCEP03730563","2025-08-13 05:15:00","10.4439","3.33097","26.639","2.659","7.46","0.671","4.436","0.08","0.34","29.777","4.69894","28.78","0","SATNPRO1964","28.128","0.39394","5"],
    [57006,"HCEP03730563","2025-08-13 05:30:00","10.4453","3.33118","26.788","2.68","7.47","0.721","4.775","0.15","0.39","29.7778","4.69905","29.01","0","SATNPRO1964","27.701999999999998","0.388","5"],
    [57007,"HCEP03730563","2025-08-13 05:45:00","10.4468","3.33134","26.906","2.706","7.47","0.717","4.225","0.09","0.27","29.7781","4.69907","29.29","0","SATNPRO1964","28.014","0.3924","5"],
    [57008,"HCEP03730563","2025-08-13 06:00:00","10.4483","3.33151","27.032","2.736","7.47","0.747","4.726","0.3","0.36","29.7785","4.69911","29.61","0","SATNPRO1964","28.028","0.39256","5"],
    [57009,"HCEP03730563","2025-08-13 06:15:00","10.4494","3.3316","27.131","2.767","7.47","0.765","4.632","0.17","0.32","29.7784","4.69909","29.95","0","SATNPRO1964","28.014","0.39238","5"],
    [57010,"HCEP03730563","2025-08-13 06:30:00","10.448","3.33114","27.244","2.76","7.47","0.73","4.877","0.14","0.31","29.775","4.69864","29.87","0","SATNPRO1964","27.904","0.39082","5"],
    [57011,"HCEP03730563","2025-08-13 06:45:00","10.4473","3.33088","27.269","2.73","7.47","0.7","4.943","0.08","0.36","29.773","4.69836","29.54","0","SATNPRO1964","27.942","0.39136","5"],
    [57012,"HCEP03730563","2025-08-13 07:00:00","10.4507","3.33119","27.358","2.725","7.47","0.692","4.124","0.33","0.27","29.7732","4.69834","29.49","0","SATNPRO1964","28.088","0.39342","5"],
    [57013,"HCEP03730563","2025-08-13 07:15:00","10.4491","3.33069","27.339","2.718","7.47","0.709","4.761","0.09","0.19","29.7697","4.69786","29.41","0","SATNPRO1964","27.664","0.38748","5"],
    [57014,"HCEP03730563","2025-08-13 07:30:00","10.4452","3.33005","27.369","2.665","7.47","0.66","5.005","0.05","0.13","29.7665","4.69747","28.83","0","SATNPRO1964","27.506","0.3853","5"],
    [57015,"HCEP03730563","2025-08-13 07:45:00","10.4446","3.32999","27.323","2.593","7.46","0.681","4.929","0.04","0.18","29.7664","4.69746","28.05","0","SATNPRO1964","27.48","0.38494","5"],
    [57016,"HCEP03730563","2025-08-13 08:00:00","10.4447","3.32997","27.259","2.592","7.46","0.724","4.757","0.11","0.33","29.7661","4.69741","28.05","0","SATNPRO1964","27.402","0.3838","5"],
    [57017,"HCEP03730563","2025-08-13 08:15:00","10.4475","3.3302","27.215","2.61","7.46","0.67","3.928","0.1","0.17","29.7661","4.69737","28.25","0","SATNPRO1964","27.578","0.38628","5"],
    [57018,"HCEP03730563","2025-08-13 08:30:00","10.4486","3.33031","27.136","2.632","7.46","0.654","3.983","0.14","0.21","29.7664","4.69738","28.48","0","SATNPRO1964","27.516","0.38542","5"],
    [57019,"HCEP03730563","2025-08-13 08:45:00","10.4467","3.33019","27.018","2.628","7.46","0.689","4.589","0.07","0.29","29.7667","4.69746","28.44","0","SATNPRO1964","27.028","0.37856","5"],
    [57020,"HCEP03730563","2025-08-13 09:00:00","10.4475","3.33001","26.901","2.627","7.46","0.716","4.328","0.11","0.38","29.7644","4.69711","28.43","0","SATNPRO1964","27.408","0.38392","5"],
    [57021,"HCEP03730563","2025-08-13 09:15:00","10.4467","3.33003","26.777","2.606","7.46","0.725","4.394","0.16","0.21","29.7653","4.69724","28.2","0","SATNPRO1964","27.468","0.38472","5"],
    [57022,"HCEP03730563","2025-08-13 09:30:00","10.4451","3.32991","26.652","2.589","7.46","0.67","4.151","0.08","0.21","29.7654","4.69727","28.01","0","SATNPRO1964","27.362","0.38322","5"],
    [57023,"HCEP03730563","2025-08-13 09:45:00","10.4437","3.32962","26.516","2.561","7.46","0.755","4.833","0.14","0.29","29.7637","4.69705","27.71","0","SATNPRO1964","27.23","0.38142","5"],
    [57024,"HCEP03730563","2025-08-13 10:00:00","10.4452","3.32982","26.394","2.557","7.46","0.692","4.596","0.1","0.53","29.7645","4.69714","27.67","0","SATNPRO1964","27.392","0.38366","5"],
    [57025,"HCEP03730563","2025-08-13 10:15:00","10.4453","3.32979","26.261","2.568","7.46","0.66","4.078","0.07","0.19","29.7642","4.69708","27.79","0","SATNPRO1964","27.332","0.38284","5"],
    [57026,"HCEP03730563","2025-08-13 10:30:00","10.4419","3.3294","26.127","2.55","7.46","0.766","4.344","0.33","0.49","29.7632","4.69698","27.6","0","SATNPRO1964","27.236","0.3815","5"],
    [57027,"HCEP03730563","2025-08-13 10:45:00","10.4402","3.32931","25.972","2.523","7.46","0.667","4.364","0.17","0.35","29.7638","4.69708","27.29","0","SATNPRO1964","27.208","0.38112","5"],
    [57028,"HCEP03730563","2025-08-13 11:00:00","10.4408","3.32925","25.831","2.522","7.45","0.701","4.183","0.42","0.27","29.7628","4.69692","27.29","0","SATNPRO1964","27.36","0.3832","5"],
    [57029,"HCEP03730563","2025-08-13 11:15:00","10.4388","3.32908","25.673","2.529","7.45","0.641","4.105","0.05","0.24","29.7628","4.69695","27.36","0","SATNPRO1964","27.364","0.38324","5"],
    [57030,"HCEP03730563","2025-08-13 11:30:00","10.438","3.329","25.53","2.522","7.45","0.688","4.14","0.22","0.73","29.7627","4.69694","27.29","0","SATNPRO1964","27.268","0.38192","5"],
    [57031,"HCEP03730563","2025-08-13 11:45:00","10.4376","3.32893","25.368","2.524","7.45","0.638","3.693","0.09","0.13","29.7624","4.69689","27.31","0","SATNPRO1964","27.366","0.3833","5"],
    [57032,"HCEP03730563","2025-08-13 12:00:00","10.4424","3.32949","25.244","2.544","7.46","0.595","3.332","0.1","0.13","29.764","4.69704","27.53","0","SATNPRO1964","27.452","0.3845","5"],
    [57033,"HCEP03730563","2025-08-13 12:15:00","10.4424","3.32927","25.119","2.603","7.46","0.603","3.089","0.1","0.11","29.762","4.69674","28.17","0","SATNPRO1964","27.462","0.38462","5"],
    [57034,"HCEP03730563","2025-08-13 12:30:00","10.4417","3.32914","25.014","2.594","7.46","0.626","3.105","0.21","0.12","29.7612","4.69664","28.06","0","SATNPRO1964","27.496","0.38514","5"],
    [57035,"HCEP03730563","2025-08-13 12:45:00","10.4413","3.32916","24.975","2.58","7.46","0.618","4.05","0.05","0.22","29.7617","4.69672","27.92","0","SATNPRO1964","27.286","0.3822","5"],
    [57036,"HCEP03730563","2025-08-13 13:00:00","10.4413","3.32914","24.927","2.566","7.46","0.643","3.632","0.16","0.23","29.7617","4.69671","27.76","0","SATNPRO1964","27.45","0.38446","5"],
    [57037,"HCEP03730563","2025-08-13 13:15:00","10.4441","3.32941","24.931","2.593","7.46","0.618","3.081","0.08","0.18","29.762","4.6967","28.06","0","SATNPRO1964","27.524","0.38552","5"],
    [57038,"HCEP03730563","2025-08-13 13:30:00","10.445","3.32945","24.943","2.625","7.46","0.572","2.915","0.08","0.13","29.7617","4.69665","28.41","0","SATNPRO1964","27.608","0.38668","5"],
    [57039,"HCEP03730563","2025-08-13 13:45:00","10.4471","3.32976","24.982","2.642","7.46","0.631","2.995","0.15","0.22","29.763","4.6968","28.59","0","SATNPRO1964","27.494","0.3851","5"],
    [57040,"HCEP03730563","2025-08-13 14:00:00","10.4469","3.32991","25.075","2.66","7.46","0.605","3.195","0.11","0.25","29.7645","4.69703","28.78","0","SATNPRO1964","27.774","0.38902","5"],
    [57041,"HCEP03730563","2025-08-13 14:15:00","10.4477","3.33007","25.183","2.661","7.47","0.648","2.771","0.17","0.09","29.7655","4.69716","28.8","0","SATNPRO1964","27.682","0.38772","5"],
    [57042,"HCEP03730563","2025-08-13 14:30:00","10.4482","3.33021","25.212","2.647","7.46","0.643","4.089","0.1","0.8","29.7665","4.69729","28.65","0","SATNPRO1964","27.644","0.3872","5"],
    [57043,"HCEP03730563","2025-08-13 14:45:00","10.4452","3.33002","25.363","2.598","7.46","0.674","4.799","0.05","0.52","29.7669","4.69742","28.11","0","SATNPRO1964","27.298000000000002","0.38236","5"],
    [57044,"HCEP03730563","2025-08-13 15:00:00","10.4509","3.33068","25.514","2.576","7.46","0.721","4.651","0.19","0.99","29.7688","4.69759","27.88","0","SATNPRO1964","27.518","0.38546","5"],
    [57045,"HCEP03730563","2025-08-13 15:15:00","10.4516","3.33088","25.652","2.6","7.46","0.694","4.754","0.05","0.51","29.7702","4.69779","28.14","0","SATNPRO1964","27.216","0.38116","5"],
    [57046,"HCEP03730563","2025-08-13 15:30:00","10.4536","3.33129","25.809","2.568","7.46","0.715","5.177","0.07","0.28","29.7725","4.6981","27.8","0","SATNPRO1964","27.212","0.38112","5"],
    [57047,"HCEP03730563","2025-08-13 15:45:00","10.4562","3.33165","25.952","2.573","7.46","0.75","5.793","0.05","0.56","29.7738","4.69826","27.85","0","SATNPRO1964","27.442","0.38436","5"],
    [57048,"HCEP03730563","2025-08-13 16:00:00","10.4594","3.33212","26.151","2.601","7.46","0.743","5.459","0.07","0.4","29.7758","4.6985","28.16","0","SATNPRO1964","27.404","0.38388","5"],
    [57049,"HCEP03730563","2025-08-13 16:15:00","10.4622","3.33242","26.301","2.663","7.46","0.723","4.687","0.05","0.23","29.7765","4.69856","28.83","0","SATNPRO1964","27.712","0.38814","5"],
    [57050,"HCEP03730563","2025-08-13 16:30:00","10.4634","3.33257","26.472","2.707","7.47","0.722","4.998","0.07","0.27","29.7768","4.69859","29.3","0","SATNPRO1964","27.782","0.3891","5"],
    [57051,"HCEP03730563","2025-08-13 16:45:00","10.4646","3.33278","26.673","2.716","7.47","0.736","4.756","0.07","0.21","29.7779","4.69875","29.41","0","SATNPRO1964","27.852","0.39014","5"],
    [57052,"HCEP03730563","2025-08-13 17:00:00","10.4662","3.33303","26.824","2.757","7.47","0.709","4.944","0.06","0.37","29.779","4.69888","29.85","0","SATNPRO1964","28.026","0.39254","5"],
    [57053,"HCEP03730563","2025-08-13 17:15:00","10.4688","3.3332","26.983","2.83","7.48","0.688","4.249","0.06","0.22","29.7786","4.69878","30.64","0","SATNPRO1964","28.148","0.39426","5"],
    [57054,"HCEP03730563","2025-08-13 17:30:00","10.4729","3.33336","27.147","2.907","7.48","0.617","3.846","0.08","0.18","29.7766","4.69845","31.47","0","SATNPRO1964","28.308","0.3965","5"],
    [57055,"HCEP03730563","2025-08-13 17:45:00","10.4753","3.33338","27.357","2.964","7.49","0.639","3.858","0.06","0.14","29.7748","4.69817","32.09","0","SATNPRO1964","28.418","0.39802","5"],
    [57056,"HCEP03730563","2025-08-13 18:00:00","10.4775","3.33328","27.574","3.034","7.5","0.596","3.644","0.08","0.24","29.772","4.69774","32.86","0","SATNPRO1964","28.808","0.40354","5"],
    [57057,"HCEP03730563","2025-08-13 18:15:00","10.4819","3.33365","27.692","3.098","7.5","0.616","3.841","0.05","0.19","29.7719","4.69767","33.56","0","SATNPRO1964","28.842","0.404","5"],
    [57058,"HCEP03730563","2025-08-13 18:30:00","10.4883","3.33435","27.821","3.118","7.5","0.565","3.634","0.04","0.07","29.7736","4.69781","33.78","0","SATNPRO1964","28.828","0.40376","5"],
    [57059,"HCEP03730563","2025-08-13 18:45:00","10.4907","3.33459","27.94","3.126","7.51","0.6","3.328","0.05","0.11","29.774","4.69783","33.86","0","SATNPRO1964","28.83","0.40382","5"],
    [57060,"HCEP03730563","2025-08-13 19:00:00","10.4896","3.3345","28.025","3.106","7.51","0.601","3.904","0.03","0.16","29.7739","4.69785","33.64","0","SATNPRO1964","28.53","0.39966","5"],
    [57061,"HCEP03730563","2025-08-13 19:15:00","10.485","3.33416","28.08","3.063","7.5","0.612","3.87","0.04","0.32","29.7744","4.698","33.18","0","SATNPRO1964","28.386","0.3976","5"],
    [57062,"HCEP03730563","2025-08-13 19:30:00","10.4882","3.33434","28.07","3.035","7.5","0.587","4.377","0.03","0.14","29.7736","4.69783","32.88","0","SATNPRO1964","28.362","0.3973","5"],
    [57063,"HCEP03730563","2025-08-13 19:45:00","10.4856","3.33412","28.083","3.023","7.5","0.648","5.318","0.05","0.9","29.7734","4.69784","32.74","0","SATNPRO1964","28.294","0.39632","5"],
    [57064,"HCEP03730563","2025-08-13 20:00:00","10.4794","3.33372","28.041","2.957","7.5","1.798","15.854","2.9","25.48","29.7746","4.6981","32.03","0","SATNPRO1964","28.09","0.39344","5"],
    [57065,"HCEP03730563","2025-08-13 20:15:00","10.4785","3.3336","28.009","2.9","7.49","0.622","4.324","0.05","0.16","29.7741","4.69806","31.41","0","SATNPRO1964","27.808","0.38948","5"],
    [57066,"HCEP03730563","2025-08-13 20:30:00","10.4778","3.33358","27.951","2.86","7.49","0.569","3.762","0.03","0.09","29.7745","4.69812","30.98","0","SATNPRO1964","27.904","0.39082","5"],
    [57067,"HCEP03730563","2025-08-13 20:45:00","10.4753","3.33338","27.85","2.823","7.49","0.607","3.438","0.04","0.09","29.7746","4.69817","30.57","0","SATNPRO1964","27.644","0.38724","5"],
    [57068,"HCEP03730563","2025-08-13 21:00:00","10.4788","3.33356","27.751","2.8","7.48","0.585","4.461","0.03","0.09","29.7736","4.69796","30.33","0","SATNPRO1964","27.724","0.38832","5"],
    [57069,"HCEP03730563","2025-08-13 21:15:00","10.4748","3.33319","27.665","2.775","7.48","0.613","4.31","0.06","0.09","29.7732","4.69797","30.05","0","SATNPRO1964","27.524","0.38552","5"],
    [57070,"HCEP03730563","2025-08-13 21:30:00","10.4601","3.33184","27.503","2.702","7.48","0.543","3.224","0.06","0.11","29.7719","4.69801","29.25","0","SATNPRO1964","27.544","0.3858","5"],
    [57071,"HCEP03730563","2025-08-13 21:45:00","10.4624","3.33209","27.382","2.641","7.47","0.595","3.783","0.07","0.17","29.7726","4.69807","28.59","0","SATNPRO1964","27.46","0.38464","5"],
    [57072,"HCEP03730563","2025-08-13 22:00:00","10.46","3.33204","27.242","2.616","7.47","0.545","3.557","0.05","0.1","29.7741","4.6983","28.32","0","SATNPRO1964","27.138","0.38012","5"],
    [57073,"HCEP03730563","2025-08-13 22:15:00","10.4614","3.33231","27.045","2.593","7.46","0.56","3.773","0.03","0.09","29.7757","4.6985","28.07","0","SATNPRO1964","27.412","0.38396","5"],
    [57074,"HCEP03730563","2025-08-13 22:30:00","10.4596","3.3323","26.906","2.586","7.46","0.542","3.831","0.04","0.21","29.7771","4.69872","28","0","SATNPRO1964","27.218","0.38122","5"],
    [57075,"HCEP03730563","2025-08-13 22:45:00","10.4574","3.33197","26.744","2.541","7.46","0.604","4.614","0.04","0.09","29.7757","4.69855","27.5","0","SATNPRO1964","26.934","0.37724","5"],
    [57076,"HCEP03730563","2025-08-13 23:00:00","10.4539","3.33196","26.537","2.518","7.46","0.535","3.631","0.04","0.1","29.7786","4.69901","27.25","0","SATNPRO1964","27.064","0.3791","5"],
    [57077,"HCEP03730563","2025-08-13 23:15:00","10.4613","3.33308","26.348","2.553","7.46","0.55","3.407","0.05","0.08","29.7837","4.6996","27.64","0","SATNPRO1964","27.41","0.38394","5"],
    [57078,"HCEP03730563","2025-08-13 23:30:00","10.4663","3.33364","26.136","2.64","7.46","0.52","3.327","0.04","0.11","29.7852","4.69973","28.58","0","SATNPRO1964","27.562","0.38604","5"],
    [57079,"HCEP03730563","2025-08-13 23:45:00","10.4722","3.33467","25.962","2.717","7.47","0.508","2.663","0.03","0.11","29.7907","4.70041","29.42","0","SATNPRO1964","27.678","0.38768","5"],
    [57080,"HCEP03730563","2025-08-14 00:00:00","10.4699","3.33436","25.761","2.786","7.47","0.587","3.185","0.36","0.1","29.7896","4.70027","30.16","0","SATNPRO1964","27.486","0.38496","5"],
    [57081,"HCEP03730563","2025-08-14 00:15:00","10.4532","3.33226","25.532","2.672","7.47","0.543","3.532","0.05","0.11","29.7825","4.69952","28.92","0","SATNPRO1964","27.2","0.38104","5"],
    [57082,"HCEP03730563","2025-08-14 00:30:00","10.4519","3.33231","25.363","2.552","7.46","0.518","3.33","0.03","0.08","29.7841","4.69975","27.62","0","SATNPRO1964","27.528","0.38556","5"],
    [57083,"HCEP03730563","2025-08-14 00:45:00","10.4632","3.33349","25.203","2.573","7.46","0.527","2.761","0.07","0.12","29.7867","4.69993","27.86","0","SATNPRO1964","27.646","0.38726","5"],
    [57084,"HCEP03730563","2025-08-14 01:00:00","10.4662","3.33375","25.061","2.665","7.47","0.504","2.848","0.06","0.1","29.7869","4.6999","28.86","0","SATNPRO1964","27.582","0.3863","5"],
    [57085,"HCEP03730563","2025-08-14 01:15:00","10.4579","3.33275","24.937","2.628","7.47","0.532","3.451","0.03","0.15","29.7838","4.69959","28.44","0","SATNPRO1964","27.38","0.3835","5"],
    [57086,"HCEP03730563","2025-08-14 01:30:00","10.4929","3.33638","24.851","2.721","7.47","0.513","3.292","0.05","0.16","29.7911","4.70006","29.48","0","SATNPRO1964","27.332","0.38282","5"],
    [57087,"HCEP03730563","2025-08-14 01:45:00","10.4708","3.3344","24.835","2.799","7.48","0.516","2.657","0.1","0.14","29.7896","4.7002","30.31","0","SATNPRO1964","28.51","0.39934","5"],
    [57088,"HCEP03730563","2025-08-14 02:00:00","10.471","3.33462","24.802","2.752","7.48","0.482","2.538","0.04","0.15","29.7916","4.70048","29.8","0","SATNPRO1964","27.922","0.39112","5"],
    [57089,"HCEP03730563","2025-08-14 02:15:00","10.4612","3.33403","24.847","2.736","7.47","0.502","2.394","0.06","0.07","29.7938","4.70095","29.62","0","SATNPRO1964","27.776","0.38904","5"],
    [57090,"HCEP03730563","2025-08-14 02:30:00","10.4392","3.33155","24.791","2.601","7.47","0.534","3.604","0.04","0.18","29.7872","4.70036","28.14","0","SATNPRO1964","27.18","0.3807","5"],
    [57091,"HCEP03730563","2025-08-14 02:45:00","10.4517","3.33328","24.838","2.526","7.46","0.522","2.634","0.07","0.26","29.7942","4.70116","27.35","0","SATNPRO1964","27.876","0.3904","5"],
    [57092,"HCEP03730563","2025-08-14 03:00:00","10.4422","3.33219","24.874","2.607","7.46","0.492","3.028","0.06","0.32","29.7911","4.70088","28.22","0","SATNPRO1964","27.528","0.38556","5"],
    [57093,"HCEP03730563","2025-08-14 03:15:00","10.4508","3.33313","24.934","2.64","7.47","0.724","2.489","0.97","0.15","29.7933","4.70105","28.57","0","SATNPRO1964","27.616","0.3868","5"],
    [57094,"HCEP03730563","2025-08-14 03:30:00","10.4457","3.33239","25.016","2.618","7.46","0.533","4.075","0.06","0.29","29.7902","4.7007","28.33","0","SATNPRO1964","27.518","0.38548","5"],
    [57095,"HCEP03730563","2025-08-14 03:45:00","10.4494","3.33273","25.106","2.555","7.46","0.523","3.536","0.05","0.15","29.7904","4.70068","27.65","0","SATNPRO1964","27.714","0.38818","5"],
    [57096,"HCEP03730563","2025-08-14 04:00:00","10.4475","3.33261","25.228","2.524","7.46","0.544","3.836","0.05","0.17","29.7908","4.70077","27.32","0","SATNPRO1964","27.09","0.37944","5"],
    [57097,"HCEP03730563","2025-08-14 04:15:00","10.4527","3.33317","25.368","2.522","7.46","0.566","3.84","0.09","0.21","29.792","4.70087","27.3","0","SATNPRO1964","27.477999999999998","0.38486","5"],
    [57098,"HCEP03730563","2025-08-14 04:30:00","10.4702","3.33514","25.486","2.641","7.46","0.499","3.387","0.05","0.29","29.7972","4.70133","28.59","0","SATNPRO1964","27.932","0.39122","5"],
    [57099,"HCEP03730563","2025-08-14 04:45:00","10.477","3.33598","25.625","2.781","7.47","0.547","3.468","0.05","0.15","29.7998","4.70161","30.12","0","SATNPRO1964","28.024","0.39252","5"],
    [57100,"HCEP03730563","2025-08-14 05:00:00","10.4805","3.33639","25.766","2.851","7.48","0.544","5.397","0.07","5.44","29.801","4.70172","30.88","0","SATNPRO1964","28.198","0.39496","5"],
    [57101,"HCEP03730563","2025-08-14 05:15:00","10.4809","3.33639","25.887","2.869","7.48","0.586","3.964","0.08","0.25","29.8006","4.70167","31.08","0","SATNPRO1964","28.118","0.39386","5"],
    [57102,"HCEP03730563","2025-08-14 05:30:00","10.4876","3.33709","26.021","2.894","7.49","0.531","3.604","0.07","0.22","29.802","4.70177","31.35","0","SATNPRO1964","28.206","0.39506","5"],
    [57103,"HCEP03730563","2025-08-14 05:45:00","10.488","3.33715","26.187","2.944","7.49","0.6","4.189","0.08","0.22","29.8023","4.70181","31.9","0","SATNPRO1964","28.364","0.39724","5"],
    [57104,"HCEP03730563","2025-08-14 06:00:00","10.5035","3.33895","26.32","3.028","7.5","0.525","3.497","0.07","0.19","29.8073","4.70228","32.81","0","SATNPRO1964","28.71","0.4021","5"],
    [57105,"HCEP03730563","2025-08-14 06:15:00","10.5155","3.3401","26.462","3.156","7.51","0.549","2.964","0.07","0.19","29.8089","4.70232","34.21","0","SATNPRO1964","29.062","0.40706","5"],
    [57106,"HCEP03730563","2025-08-14 06:30:00","10.5124","3.3398","26.589","3.207","7.51","0.515","2.989","0.05","0.2","29.8083","4.7023","34.76","0","SATNPRO1964","29","0.40616","5"],
    [57107,"HCEP03730563","2025-08-14 06:45:00","10.5078","3.33916","26.729","3.158","7.51","0.545","3.873","0.05","0.2","29.8057","4.70201","34.23","0","SATNPRO1964","28.733999999999998","0.40246","5"],
    [57108,"HCEP03730563","2025-08-14 07:00:00","10.51","3.33949","26.844","3.13","7.51","0.505","3.267","0.05","0.24","29.8071","4.70217","33.93","0","SATNPRO1964","28.842","0.404","5"],
    [57109,"HCEP03730563","2025-08-14 07:15:00","10.4943","3.33758","26.935","3.089","7.51","0.55","3.953","0.06","0.25","29.8011","4.70158","33.47","0","SATNPRO1964","28.34","0.3969","5"],
    [57110,"HCEP03730563","2025-08-14 07:30:00","10.4948","3.33815","27.011","3.01","7.5","0.508","3.344","0.05","0.35","29.8062","4.7023","32.61","0","SATNPRO1964","28.684","0.40176","5"],
    [57111,"HCEP03730563","2025-08-14 07:45:00","10.4655","3.33507","27.067","2.919","7.5","0.552","4.388","0.05","0.49","29.7997","4.70185","31.61","0","SATNPRO1964","27.68","0.38772","5"],
    [57112,"HCEP03730563","2025-08-14 08:00:00","10.4595","3.33451","27.111","2.716","7.48","0.527","4.36","0.04","0.32","29.7991","4.70186","29.4","0","SATNPRO1964","27.552","0.38592","5"],
    [57113,"HCEP03730563","2025-08-14 08:15:00","10.4478","3.33312","27.1","2.601","7.47","0.564","4.476","0.07","0.31","29.7948","4.70144","28.16","0","SATNPRO1964","27.288","0.3822","5"],
    [57114,"HCEP03730563","2025-08-14 08:30:00","10.4496","3.33354","27.101","2.528","7.46","0.551","5.286","0.05","0.3","29.7975","4.7018","27.36","0","SATNPRO1964","27.284","0.38214","5"],
    [57115,"HCEP03730563","2025-08-14 08:45:00","10.4585","3.33442","27.058","2.552","7.46","0.585","5.727","0.04","0.36","29.799","4.70186","27.62","0","SATNPRO1964","27.43","0.38416","5"],
    [57116,"HCEP03730563","2025-08-14 09:00:00","10.458","3.33383","27.016","2.584","7.46","0.542","5.55","0.05","0.49","29.7936","4.7011","27.97","0","SATNPRO1964","27.328","0.38278","5"],
    [57117,"HCEP03730563","2025-08-14 09:15:00","10.4584","3.33302","26.937","2.565","7.46","0.597","5.437","0.06","0.39","29.7852","4.69989","27.76","0","SATNPRO1964","27.326","0.38276","5"],
    [57118,"HCEP03730563","2025-08-14 09:30:00","10.4658","3.33297","26.884","2.603","7.46","0.587","4.87","0.19","0.3","29.7787","4.69885","28.18","0","SATNPRO1964","27.598","0.38656","5"],
    [57119,"HCEP03730563","2025-08-14 09:45:00","10.4709","3.33296","26.887","2.692","7.47","0.551","4.665","0.04","0.51","29.7745","4.69816","29.15","0","SATNPRO1964","27.689999999999998","0.38784","5"],
    [57120,"HCEP03730563","2025-08-14 10:00:00","10.4715","3.33286","26.821","2.75","7.47","0.53","4.611","0.05","0.29","29.773","4.69794","29.77","0","SATNPRO1964","27.89","0.39062","5"],
    [57121,"HCEP03730563","2025-08-14 10:15:00","10.4725","3.33292","26.728","2.787","7.48","0.572","5.479","0.05","0.32","29.7728","4.69788","30.18","0","SATNPRO1964","28.014","0.39238","5"],
    [57122,"HCEP03730563","2025-08-14 10:30:00","10.4742","3.33305","26.652","2.823","7.48","0.53","4.62","0.05","0.42","29.7728","4.69786","30.56","0","SATNPRO1964","28.32","0.39664","5"],
    [57123,"HCEP03730563","2025-08-14 10:45:00","10.4785","3.33341","26.554","2.873","7.48","0.624","4.716","0.16","0.32","29.7728","4.69779","31.11","0","SATNPRO1964","28.396","0.39774","5"],
    [57124,"HCEP03730563","2025-08-14 11:00:00","10.4802","3.33387","26.443","2.921","7.49","0.542","4.604","0.09","0.39","29.7761","4.69822","31.63","0","SATNPRO1964","28.418","0.39802","5"],
    [57125,"HCEP03730563","2025-08-14 11:15:00","10.4793","3.3338","26.264","2.91","7.49","0.584","4.816","0.08","0.62","29.7761","4.69822","31.52","0","SATNPRO1964","28.154","0.39438","5"],
    [57126,"HCEP03730563","2025-08-14 11:30:00","10.4799","3.33357","26.151","2.86","7.49","0.552","4.842","0.07","0.91","29.7734","4.69783","30.97","0","SATNPRO1964","27.887999999999998","0.39064","5"],
    [57127,"HCEP03730563","2025-08-14 11:45:00","10.4799","3.33377","26.051","2.842","7.48","0.57","5.189","0.05","0.35","29.7755","4.69811","30.78","0","SATNPRO1964","28.112","0.39376","5"],
    [57128,"HCEP03730563","2025-08-14 12:00:00","10.48","3.33399","25.916","2.835","7.48","0.569","5.273","0.1","0.3","29.7776","4.6984","30.7","0","SATNPRO1964","28.052","0.39292","5"],
    [57129,"HCEP03730563","2025-08-14 12:15:00","10.479","3.33394","25.793","2.821","7.48","0.583","5.986","0.06","0.41","29.7779","4.69846","30.56","0","SATNPRO1964","28.124000000000002","0.39394","5"],
    [57130,"HCEP03730563","2025-08-14 12:30:00","10.4727","3.33314","25.659","2.765","7.48","0.562","5.612","0.13","0.57","29.7753","4.69818","29.94","0","SATNPRO1964","27.786","0.38918","5"],
    [57131,"HCEP03730563","2025-08-14 12:45:00","10.4662","3.33232","25.585","2.681","7.47","0.571","5.828","0.06","0.28","29.7724","4.69788","29.03","0","SATNPRO1964","27.762","0.38882","5"],
    [57132,"HCEP03730563","2025-08-14 13:00:00","10.4622","3.33153","25.506","2.614","7.47","0.546","5.095","0.06","0.32","29.768","4.6973","28.29","0","SATNPRO1964","27.436","0.38432","5"],
    [57133,"HCEP03730563","2025-08-14 13:15:00","10.4613","3.33111","25.466","2.586","7.46","0.594","5.151","0.06","0.39","29.7645","4.69682","27.99","0","SATNPRO1964","27.452","0.38452","5"],
    [57134,"HCEP03730563","2025-08-14 13:30:00","10.4607","3.33093","25.428","2.568","7.46","0.611","6.102","0.12","0.88","29.7633","4.69665","27.8","0","SATNPRO1964","27.504","0.38526","5"],
    [57135,"HCEP03730563","2025-08-14 13:45:00","10.4637","3.33083","25.416","2.569","7.46","0.611","5.077","0.11","0.43","29.7598","4.69611","27.81","0","SATNPRO1964","27.47","0.38478","5"],
    [57136,"HCEP03730563","2025-08-14 14:00:00","10.4648","3.33082","25.438","2.583","7.46","0.583","4.989","0.05","0.34","29.7589","4.69596","27.96","0","SATNPRO1964","27.34","0.38298","5"],
    [57137,"HCEP03730563","2025-08-14 14:15:00","10.4663","3.33077","25.444","2.585","7.46","0.608","4.591","0.09","0.26","29.7571","4.69568","27.99","0","SATNPRO1964","27.43","0.38418","5"],
    [57138,"HCEP03730563","2025-08-14 14:30:00","10.4649","3.33072","25.504","2.589","7.46","0.585","4.995","0.08","0.52","29.7577","4.69579","28.03","0","SATNPRO1964","27.504","0.38524","5"],
    [57139,"HCEP03730563","2025-08-14 14:45:00","10.4623","3.33049","25.553","2.577","7.46","0.685","4.886","0.45","0.85","29.7576","4.69582","27.9","0","SATNPRO1964","27.2","0.38096","5"],
    [57140,"HCEP03730563","2025-08-14 15:00:00","10.4582","3.33","25.631","2.549","7.46","0.614","4.74","0.12","0.51","29.756","4.69567","27.59","0","SATNPRO1964","27.394","0.38372","5"],
    [57141,"HCEP03730563","2025-08-14 15:15:00","10.4557","3.32959","25.722","2.528","7.46","0.608","4.348","0.09","0.24","29.7539","4.69541","27.36","0","SATNPRO1964","27.23","0.3814","5"],
    [57142,"HCEP03730563","2025-08-14 15:30:00","10.4537","3.32918","25.822","2.52","7.46","0.558","4.055","0.06","0.22","29.7515","4.69511","27.27","0","SATNPRO1964","27.44","0.38434","5"],
    [57143,"HCEP03730563","2025-08-14 15:45:00","10.4532","3.32897","25.933","2.52","7.45","0.577","3.815","0.08","0.3","29.7498","4.69488","27.27","0","SATNPRO1964","27.408","0.3839","5"],
    [57144,"HCEP03730563","2025-08-14 16:00:00","10.4506","3.32848","26.062","2.52","7.45","0.633","3.546","0.16","0.47","29.7471","4.69454","27.27","0","SATNPRO1964","27.326","0.38274","5"],
    [57145,"HCEP03730563","2025-08-14 16:15:00","10.4377","3.32704","26.198","2.441","7.45","0.65","3.795","0.14","0.18","29.7432","4.69421","26.41","0","SATNPRO1964","26.828","0.3758","5"],
    [57146,"HCEP03730563","2025-08-14 16:30:00","10.4217","3.32518","26.342","2.272","7.44","0.619","4.338","0.1","0.45","29.7378","4.69371","24.57","0","SATNPRO1964","26.36","0.3692","5"],
    [57147,"HCEP03730563","2025-08-14 16:45:00","10.4115","3.32402","26.486","2.106","7.43","0.668","4.234","0.11","0.3","29.7346","4.69343","22.77","0","SATNPRO1964","26.084","0.36538","5"],
    [57148,"HCEP03730563","2025-08-14 17:00:00","10.3993","3.32254","26.642","1.962","7.42","0.693","3.515","0.3","0.3","29.7298","4.69294","21.2","0","SATNPRO1964","25.874","0.3624","5"],
    [57149,"HCEP03730563","2025-08-14 17:15:00","10.4011","3.32285","26.784","1.872","7.41","0.655","3.739","0.14","0.15","29.7314","4.69315","20.23","0","SATNPRO1964","25.534","0.35764","5"],
    [57150,"HCEP03730563","2025-08-14 17:30:00","10.3947","3.32211","26.937","1.829","7.4","0.605","3.618","0.11","0.21","29.7292","4.69294","19.77","0","SATNPRO1964","25.424","0.3561","5"],
    [57151,"HCEP03730563","2025-08-14 17:45:00","10.3989","3.32264","27.102","1.807","7.4","0.697","3.763","0.13","0.23","29.731","4.69314","19.53","0","SATNPRO1964","25.536","0.3577","5"],
    [57152,"HCEP03730563","2025-08-14 18:00:00","10.4012","3.32288","27.25","1.822","7.4","0.717","3.821","0.29","0.36","29.7314","4.69317","19.69","0","SATNPRO1964","25.62","0.35886","5"],
    [57153,"HCEP03730563","2025-08-14 18:15:00","10.4038","3.3232","27.404","1.858","7.4","0.636","3.463","0.14","0.17","29.7324","4.69329","20.09","0","SATNPRO1964","25.88","0.36252","5"],
    [57154,"HCEP03730563","2025-08-14 18:30:00","10.4031","3.32311","27.529","1.876","7.4","0.603","3.482","0.14","0.17","29.732","4.69325","20.28","0","SATNPRO1964","25.746","0.3606","5"],
    [57155,"HCEP03730563","2025-08-14 18:45:00","10.3983","3.32258","27.655","1.845","7.4","0.667","3.404","0.13","0.23","29.7306","4.69313","19.94","0","SATNPRO1964","25.57","0.3582","5"],
    [57156,"HCEP03730563","2025-08-14 19:00:00","10.3937","3.32205","27.76","1.795","7.39","0.603","3.165","0.18","0.24","29.7291","4.693","19.39","0","SATNPRO1964","25.574","0.3582","5"],
    [57157,"HCEP03730563","2025-08-14 19:15:00","10.3906","3.3218","27.845","1.749","7.39","0.64","3.45","0.13","0.24","29.7291","4.69306","18.9","0","SATNPRO1964","25.53","0.3576","5"],
    [57158,"HCEP03730563","2025-08-14 19:30:00","10.4004","3.32291","27.921","1.744","7.39","0.6","4.675","0.14","0.25","29.732","4.69331","18.84","0","SATNPRO1964","24.976","0.34986","5"],
    [57159,"HCEP03730563","2025-08-14 19:45:00","10.4043","3.32377","27.954","1.809","7.39","0.785","6.291","0.19","0.21","29.7375","4.69403","19.56","0","SATNPRO1964","25.496","0.35706","5"],
    [57160,"HCEP03730563","2025-08-14 20:00:00","10.4108","3.32405","27.977","1.842","7.39","0.599","4.974","0.07","0.22","29.7349","4.69356","19.91","0","SATNPRO1964","25.62","0.35884","5"],
    [57161,"HCEP03730563","2025-08-14 20:15:00","10.4362","3.32735","27.982","1.961","7.4","0.691","5.838","0.07","0.21","29.7468","4.69484","21.21","0","SATNPRO1964","26.386","0.36958","5"],
    [57162,"HCEP03730563","2025-08-14 20:30:00","10.4262","3.32587","27.966","2.06","7.41","0.654","4.709","0.1","0.28","29.7403","4.69408","22.28","0","SATNPRO1964","26.312","0.36852","5"],
    [57163,"HCEP03730563","2025-08-14 20:45:00","10.4304","3.32645","27.93","2.07","7.41","0.65","4.971","0.08","0.53","29.7427","4.69435","22.39","0","SATNPRO1964","26.174","0.36662","5"],
    [57164,"HCEP03730563","2025-08-14 21:00:00","10.4287","3.32616","27.875","2.072","7.41","0.611","46.758","0.08","15.6","29.7412","4.69416","22.41","0","SATNPRO1964","26.24","0.36754","5"],
    [57165,"HCEP03730563","2025-08-14 21:15:00","10.4337","3.32658","27.809","2.097","7.41","6.809","181.2","1.44","21.11","29.7413","4.69409","22.68","0","SATNPRO1964","26.388","0.36964","5"],
    [57166,"HCEP03730563","2025-08-14 21:30:00","10.4421","3.32809","27.711","2.128","7.42","0.602","4.6","0.09","0.23","29.7494","4.6951","23.02","0","SATNPRO1964","26.073999999999998","0.36522","5"],
    [57167,"HCEP03730563","2025-08-14 21:45:00","10.4399","3.32766","27.596","2.184","7.42","0.609","4.383","0.09","0.13","29.7471","4.6948","23.63","0","SATNPRO1964","26.658","0.3734","5"],
    [57168,"HCEP03730563","2025-08-14 22:00:00","10.4409","3.32797","27.47","2.178","7.42","0.588","4.699","0.1","0.67","29.7493","4.69509","23.57","0","SATNPRO1964","26.322","0.36868","5"],
    [57169,"HCEP03730563","2025-08-14 22:15:00","10.4368","3.32728","27.323","2.164","7.42","0.619","3.963","0.13","0.18","29.7459","4.69467","23.4","0","SATNPRO1964","26.419999999999998","0.37004","5"],
    [57170,"HCEP03730563","2025-08-14 22:30:00","10.4406","3.32792","27.161","2.163","7.42","0.572","4.107","0.12","0.19","29.7492","4.69506","23.4","0","SATNPRO1964","26.554000000000002","0.3719","5"],
    [57171,"HCEP03730563","2025-08-14 22:45:00","10.4422","3.32821","26.976","2.184","7.42","0.588","4.167","0.06","0.38","29.7509","4.69527","23.63","0","SATNPRO1964","26.608","0.37268","5"],
    [57172,"HCEP03730563","2025-08-14 23:00:00","10.4422","3.32813","26.83","2.188","7.42","0.544","3.814","0.06","0.19","29.7501","4.69515","23.67","0","SATNPRO1964","26.684","0.37376","5"],
    [57173,"HCEP03730563","2025-08-14 23:15:00","10.4511","3.32973","26.669","2.192","7.42","0.68","5.306","0.27","1.82","29.7588","4.69624","23.72","0","SATNPRO1964","26.586000000000002","0.37238","5"],
    [57174,"HCEP03730563","2025-08-14 23:30:00","10.4499","3.32962","26.459","2.204","7.42","0.625","5.009","0.1","0.18","29.7587","4.69623","23.85","0","SATNPRO1964","26.476","0.37086","5"],
    [57175,"HCEP03730563","2025-08-14 23:45:00","10.456","3.33063","26.265","2.198","7.42","0.613","5.165","0.05","0.32","29.7638","4.69684","23.79","0","SATNPRO1964","26.382","0.36956","5"],
    [57176,"HCEP03730563","2025-08-15 00:00:00","10.4357","3.32776","26.056","2.146","7.42","0.571","4.258","0.06","0.41","29.752","4.69548","23.21","0","SATNPRO1964","26.02","0.36444","5"],
    [57177,"HCEP03730563","2025-08-15 00:15:00","10.4545","3.33053","25.809","2.1","7.42","0.605","4.689","0.06","0.25","29.7642","4.6969","22.73","0","SATNPRO1964","26.562","0.37206","5"],
    [57178,"HCEP03730563","2025-08-15 00:30:00","10.4607","3.33133","25.635","2.203","7.42","0.621","4.955","0.1","0.48","29.7671","4.69721","23.85","0","SATNPRO1964","26.562","0.37204","5"],
    [57179,"HCEP03730563","2025-08-15 00:45:00","10.4656","3.33197","25.436","2.273","7.43","0.622","4.712","0.06","0.18","29.7696","4.69747","24.61","0","SATNPRO1964","26.572","0.3722","5"],
    [57180,"HCEP03730563","2025-08-15 01:00:00","10.4664","3.33208","25.242","2.31","7.43","0.625","5.174","0.1","0.22","29.7701","4.69752","25","0","SATNPRO1964","26.68","0.37372","5"],
    [57181,"HCEP03730563","2025-08-15 01:15:00","10.4671","3.33225","25.027","2.323","7.43","0.643","4.78","0.13","0.34","29.7712","4.69766","25.15","0","SATNPRO1964","26.650000000000002","0.3733","5"],
    [57182,"HCEP03730563","2025-08-15 01:30:00","10.4673","3.33223","24.901","2.337","7.43","0.595","4.844","0.07","0.24","29.771","4.69761","25.3","0","SATNPRO1964","26.622","0.3729","5"],
    [57183,"HCEP03730563","2025-08-15 01:45:00","10.4623","3.33161","24.748","2.315","7.43","0.669","4.912","0.15","0.28","29.769","4.6974","25.06","0","SATNPRO1964","26.508","0.37128","5"],
    [57184,"HCEP03730563","2025-08-15 02:00:00","10.459","3.33126","24.604","2.269","7.43","0.591","4.852","0.12","0.24","29.7682","4.69734","24.56","0","SATNPRO1964","26.462","0.37066","5"],
    [57185,"HCEP03730563","2025-08-15 02:15:00","10.4624","3.33172","24.529","2.258","7.43","0.592","4.656","0.05","0.25","29.77","4.69754","24.45","0","SATNPRO1964","26.574","0.3722","5"],
    [57186,"HCEP03730563","2025-08-15 02:30:00","10.4643","3.33188","24.497","2.298","7.43","0.632","4.584","0.23","0.43","29.7701","4.69751","24.87","0","SATNPRO1964","26.662","0.37344","5"],
    [57187,"HCEP03730563","2025-08-15 02:45:00","10.4667","3.33238","24.472","2.316","7.43","0.616","5.245","0.06","0.27","29.7731","4.6979","25.08","0","SATNPRO1964","26.732","0.3744","5"],
    [57188,"HCEP03730563","2025-08-15 03:00:00","10.4661","3.33246","24.466","2.343","7.44","0.606","4.671","0.09","0.35","29.7744","4.6981","25.36","0","SATNPRO1964","26.834","0.37584","5"],
    [57189,"HCEP03730563","2025-08-15 03:15:00","10.4682","3.33265","24.468","2.352","7.44","0.626","5.032","0.08","0.31","29.7745","4.69808","25.46","0","SATNPRO1964","26.736","0.3745","5"],
    [57190,"HCEP03730563","2025-08-15 03:30:00","10.4667","3.33261","24.496","2.351","7.44","0.573","4.801","0.08","0.22","29.7753","4.69822","25.45","0","SATNPRO1964","26.608","0.37266","5"],
    [57191,"HCEP03730563","2025-08-15 03:45:00","10.4657","3.33276","24.53","2.334","7.44","0.581","4.598","0.06","0.29","29.7777","4.69857","25.26","0","SATNPRO1964","26.596","0.37252","5"],
    [57192,"HCEP03730563","2025-08-15 04:00:00","10.4613","3.33179","24.578","2.312","7.44","0.646","4.311","0.43","0.19","29.7716","4.69778","25.03","0","SATNPRO1964","26.558","0.372","5"],
    [57193,"HCEP03730563","2025-08-15 04:15:00","10.4608","3.33178","24.669","2.261","7.43","0.587","4.442","0.07","0.35","29.7719","4.69784","24.47","0","SATNPRO1964","26.492","0.37104","5"],
    [57194,"HCEP03730563","2025-08-15 04:30:00","10.4618","3.33209","24.777","2.237","7.43","0.55","4.526","0.05","0.24","29.7741","4.69814","24.22","0","SATNPRO1964","26.163999999999998","0.36648","5"],
    [57195,"HCEP03730563","2025-08-15 04:45:00","10.4622","3.33274","24.898","2.253","7.43","0.607","4.602","0.06","0.38","29.7802","4.69901","24.39","0","SATNPRO1964","26.342","0.36896","5"],
    [57196,"HCEP03730563","2025-08-15 05:00:00","10.4509","3.33073","25.018","2.242","7.43","0.566","4.285","0.06","0.27","29.7695","4.69766","24.26","0","SATNPRO1964","26.278","0.36806","5"],
    [57197,"HCEP03730563","2025-08-15 05:15:00","10.469","3.33322","25.15","2.243","7.43","0.626","5.039","0.1","0.57","29.7793","4.69878","24.29","0","SATNPRO1964","26.558","0.372","5"],
    [57198,"HCEP03730563","2025-08-15 05:30:00","10.4665","3.33314","25.296","2.322","7.43","0.595","4.965","0.1","0.38","29.7804","4.69899","25.15","0","SATNPRO1964","26.644000000000002","0.37318","5"],
    [57199,"HCEP03730563","2025-08-15 05:45:00","10.4735","3.33384","25.44","2.379","7.44","0.616","5.316","0.05","0.25","29.7816","4.69906","25.76","0","SATNPRO1964","26.708","0.37414","5"],
    [57200,"HCEP03730563","2025-08-15 06:00:00","10.4765","3.33415","25.608","2.413","7.44","0.587","4.954","0.08","0.26","29.7822","4.6991","26.13","0","SATNPRO1964","26.81","0.3755","5"],
    [57201,"HCEP03730563","2025-08-15 06:15:00","10.4771","3.33405","25.774","2.424","7.44","0.61","5.106","0.08","0.27","29.7807","4.69888","26.25","0","SATNPRO1964","26.864","0.37624","5"],
    [57202,"HCEP03730563","2025-08-15 06:30:00","10.4787","3.33448","25.942","2.436","7.44","0.567","5.212","0.04","0.3","29.7835","4.69926","26.38","0","SATNPRO1964","26.986","0.37798","5"],
    [57203,"HCEP03730563","2025-08-15 06:45:00","10.4775","3.33434","26.053","2.462","7.45","0.603","4.787","0.05","0.32","29.783","4.69923","26.66","0","SATNPRO1964","27.002","0.37822","5"],
    [57204,"HCEP03730563","2025-08-15 07:00:00","10.476","3.33427","26.2","2.474","7.45","0.583","4.866","0.09","0.24","29.7835","4.69933","26.79","0","SATNPRO1964","27.009999999999998","0.37836","5"],
    [57205,"HCEP03730563","2025-08-15 07:15:00","10.4779","3.33451","26.345","2.471","7.45","0.6","4.837","0.04","0.23","29.784300000000002","4.69942","26.77","0","SATNPRO1964","27.002","0.37822","5"],
    [57206,"HCEP03730563","2025-08-15 07:30:00","10.4851","3.33537","26.483","2.485","7.45","0.609","4.821","0.07","0.21","29.7869","4.69968","26.92","0","SATNPRO1964","27.150000000000002","0.38028","5"],
    [57207,"HCEP03730563","2025-08-15 07:45:00","10.4887","3.33574","26.618","2.537","7.45","0.587","4.783","0.04","0.23","29.7876","4.69973","27.48","0","SATNPRO1964","27.212","0.38116","5"],
    [57208,"HCEP03730563","2025-08-15 08:00:00","10.488","3.33567","26.753","2.56","7.45","0.582","4.767","0.06","0.12","29.7874","4.69972","27.73","0","SATNPRO1964","27.134","0.38004","5"],
    [57209,"HCEP03730563","2025-08-15 08:15:00","10.4914","3.33605","26.825","2.563","7.46","0.58","4.607","0.06","0.38","29.7883","4.69981","27.77","0","SATNPRO1964","27.192","0.38092","5"],
    [57210,"HCEP03730563","2025-08-15 08:30:00","10.4915","3.33596","26.91","2.582","7.46","0.541","3.938","0.04","0.12","29.7873","4.69966","27.97","0","SATNPRO1964","27.146","0.38024","5"],
    [57211,"HCEP03730563","2025-08-15 08:45:00","10.4879","3.33538","26.955","2.572","7.46","0.52","3.557","0.03","0.09","29.7845","4.69932","27.87","0","SATNPRO1964","27.216","0.38122","5"],
    [57212,"HCEP03730563","2025-08-15 09:00:00","10.4856","3.33504","27.004","2.549","7.46","0.509","3.343","0.05","0.12","29.783","4.69915","27.61","0","SATNPRO1964","27.232","0.38144","5"],
    [57213,"HCEP03730563","2025-08-15 09:15:00","10.4876","3.33542","27.018","2.505","7.45","0.642","5.751","0.06","0.16","29.7851","4.69942","27.13","0","SATNPRO1964","27.124","0.37994","5"],
    [57214,"HCEP03730563","2025-08-15 09:30:00","10.4873","3.33518","27.06","2.489","7.45","0.55","3.595","0.08","0.47","29.783","4.69912","26.96","0","SATNPRO1964","27.174","0.3806","5"],
    [57215,"HCEP03730563","2025-08-15 09:45:00","10.4872","3.33523","27.062","2.507","7.45","0.559","3.621","0.06","0.11","29.7836","4.69921","27.16","0","SATNPRO1964","27.08","0.37932","5"],
    [57216,"HCEP03730563","2025-08-15 10:00:00","10.4874","3.33512","27.077","2.501","7.45","0.527","3.346","0.07","0.12","29.7822","4.69901","27.09","0","SATNPRO1964","27.066","0.37914","5"],
    [57217,"HCEP03730563","2025-08-15 10:15:00","10.4899","3.33542","27.027","2.503","7.45","0.66","3.453","0.43","0.18","29.7832","4.69911","27.12","0","SATNPRO1964","26.992","0.37806","5"],
    [57218,"HCEP03730563","2025-08-15 10:30:00","10.489","3.33531","26.987","2.506","7.45","0.562","4.466","0.05","1.72","29.7829","4.69908","27.15","0","SATNPRO1964","27.014","0.3784","5"],
    [57219,"HCEP03730563","2025-08-15 10:45:00","10.4876","3.33521","26.965","2.508","7.45","0.702","5.847","0.17","1.82","29.7831","4.69912","27.17","0","SATNPRO1964","27.132","0.38002","5"],
    [57220,"HCEP03730563","2025-08-15 11:00:00","10.4867","3.33398","26.936","2.509","7.45","0.511","3.008","0.07","0.14","29.7716","4.6975","27.18","0","SATNPRO1964","27.16","0.38042","5"],
    [57221,"HCEP03730563","2025-08-15 11:15:00","10.4853","3.33499","26.881","2.513","7.46","0.528","3.505","0.06","0.71","29.7828","4.69912","27.22","0","SATNPRO1964","27.44","0.38434","5"],
    [57222,"HCEP03730563","2025-08-15 11:30:00","10.485","3.33498","26.82","2.548","7.46","0.491","2.923","0.06","0.16","29.7829","4.69914","27.6","0","SATNPRO1964","27.355999999999998","0.38318","5"],
    [57223,"HCEP03730563","2025-08-15 11:45:00","10.4847","3.33487","26.738","2.544","7.46","0.52","2.841","0.06","0.1","29.7821","4.69902","27.56","0","SATNPRO1964","27.419999999999998","0.38408","5"],
    [57224,"HCEP03730563","2025-08-15 12:00:00","10.4846","3.33475","26.692","2.542","7.46","0.489","2.868","0.05","0.12","29.7811","4.69888","27.53","0","SATNPRO1964","27.33","0.38286","5"],
    [57225,"HCEP03730563","2025-08-15 12:15:00","10.4809","3.33411","26.624","2.511","7.45","0.516","3.243","0.05","0.17","29.7778","4.69846","27.19","0","SATNPRO1964","27.212","0.38114","5"],
    [57226,"HCEP03730563","2025-08-15 12:30:00","10.4805","3.334","26.586","2.453","7.45","0.53","4.365","0.05","0.24","29.7771","4.69836","26.57","0","SATNPRO1964","26.946","0.37746","5"],
    [57227,"HCEP03730563","2025-08-15 12:45:00","10.4765","3.3332","26.463","2.401","7.45","0.553","4.29","0.06","0.15","29.7724","4.69776","26","0","SATNPRO1964","26.974","0.3778","5"],
    [57228,"HCEP03730563","2025-08-15 13:00:00","10.4657","3.33152","26.4","2.317","7.44","0.546","5.028","0.06","0.2","29.7647","4.69683","25.08","0","SATNPRO1964","26.632","0.37306","5"],
    [57229,"HCEP03730563","2025-08-15 13:15:00","10.4564","3.33006","26.378","2.176","7.43","0.618","5.41","0.14","0.24","29.7578","4.696","23.55","0","SATNPRO1964","26.276","0.36802","5"],
    [57230,"HCEP03730563","2025-08-15 13:30:00","10.4482","3.32864","26.273","2.068","7.42","0.554","5.015","0.07","0.16","29.7505","4.69508","22.38","0","SATNPRO1964","26.23","0.36738","5"],
    [57231,"HCEP03730563","2025-08-15 13:45:00","10.4461","3.32849","26.247","2.033","7.42","0.576","5.285","0.07","0.2","29.7507","4.69513","22","0","SATNPRO1964","26.058","0.36496","5"],
    [57232,"HCEP03730563","2025-08-15 14:00:00","10.4454","3.32848","26.18","2.018","7.41","0.541","5.25","0.07","0.24","29.7512","4.69522","21.84","0","SATNPRO1964","26.221999999999998","0.36728","5"],
    [57233,"HCEP03730563","2025-08-15 14:15:00","10.443","3.32825","26.162","2.007","7.41","0.58","5.433","0.07","0.2","29.7509","4.69522","21.71","0","SATNPRO1964","26.026","0.36452","5"],
    [57234,"HCEP03730563","2025-08-15 14:30:00","10.4353","3.32734","26.082","1.967","7.41","0.528","5.212","0.05","0.24","29.7482","4.69495","21.28","0","SATNPRO1964","26.028","0.3646","5"],
    [57235,"HCEP03730563","2025-08-15 14:45:00","10.4256","3.32609","26.052","1.896","7.4","0.55","5.121","0.05","0.22","29.7437","4.69446","20.51","0","SATNPRO1964","25.754","0.36072","5"],
    [57236,"HCEP03730563","2025-08-15 15:00:00","10.4168","3.32487","26.05","1.809","7.4","0.532","4.929","0.06","0.23","29.7389","4.69392","19.56","0","SATNPRO1964","25.498","0.35716","5"],
    [57237,"HCEP03730563","2025-08-15 15:15:00","10.414","3.32447","26.123","1.745","7.39","0.578","4.91","0.07","0.21","29.7371","4.69371","18.87","0","SATNPRO1964","25.522","0.35746","5"],
    [57238,"HCEP03730563","2025-08-15 15:30:00","10.4222","3.32538","26.094","1.757","7.39","0.531","4.527","0.06","0.52","29.7395","4.69392","18.99","0","SATNPRO1964","25.631999999999998","0.35902","5"],
    [57239,"HCEP03730563","2025-08-15 15:45:00","10.4252","3.32575","26.2","1.803","7.39","0.578","4.957","0.09","0.94","29.7407","4.69405","19.5","0","SATNPRO1964","25.634","0.35904","5"],
    [57240,"HCEP03730563","2025-08-15 16:00:00","10.4279","3.32603","26.267","1.828","7.39","0.537","4.607","0.05","0.72","29.7413","4.69409","19.76","0","SATNPRO1964","25.736","0.36048","5"],
    [57241,"HCEP03730563","2025-08-15 16:15:00","10.4328","3.32652","26.336","1.849","7.39","0.577","5.306","0.08","2.07","29.742","4.69413","20","0","SATNPRO1964","25.59","0.35844","5"],
    [57242,"HCEP03730563","2025-08-15 16:30:00","10.436","3.3268","26.431","1.873","7.4","0.549","4.452","0.06","0.92","29.7422","4.6941","20.26","0","SATNPRO1964","25.722","0.36028","5"],
    [57243,"HCEP03730563","2025-08-15 16:45:00","10.4365","3.32685","26.525","1.884","7.4","0.603","4.607","0.12","0.81","29.7422","4.6941","20.38","0","SATNPRO1964","25.662","0.35944","5"],
    [57244,"HCEP03730563","2025-08-15 17:00:00","10.4377","3.32695","26.601","1.882","7.4","0.549","4.258","0.05","0.33","29.7421","4.69407","20.36","0","SATNPRO1964","25.66","0.35944","5"],
    [57245,"HCEP03730563","2025-08-15 17:15:00","10.4391","3.32706","26.718","1.889","7.4","0.557","4.107","0.09","0.66","29.7421","4.69406","20.43","0","SATNPRO1964","25.644","0.35922","5"],
    [57246,"HCEP03730563","2025-08-15 17:30:00","10.4397","3.32713","26.8","1.896","7.4","0.558","3.673","0.08","0.24","29.7423","4.69408","20.51","0","SATNPRO1964","25.746","0.3606","5"],
    [57247,"HCEP03730563","2025-08-15 17:45:00","10.437","3.3269","26.913","1.893","7.4","0.601","4.565","0.12","0.94","29.7422","4.69412","20.48","0","SATNPRO1964","25.7","0.35998","5"],
    [57248,"HCEP03730563","2025-08-15 18:00:00","10.4357","3.32681","27.009","1.88","7.4","0.604","3.936","0.16","0.54","29.7423","4.69415","20.33","0","SATNPRO1964","25.608","0.35872","5"],
    [57249,"HCEP03730563","2025-08-15 18:15:00","10.4357","3.32685","27.195","1.872","7.4","0.608","4.702","0.16","1.19","29.7426","4.6942","20.25","0","SATNPRO1964","25.766000000000002","0.36088","5"],
    [57250,"HCEP03730563","2025-08-15 18:30:00","10.434","3.32663","27.312","1.877","7.4","0.547","5.35","0.09","1.34","29.7417","4.69412","20.3","0","SATNPRO1964","25.672","0.35956","5"],
    [57251,"HCEP03730563","2025-08-15 18:45:00","10.4314","3.32633","27.397","1.859","7.4","0.559","3.381","0.16","0.36","29.7409","4.69405","20.11","0","SATNPRO1964","25.684","0.35974","5"],
    [57252,"HCEP03730563","2025-08-15 19:00:00","10.4283","3.32602","27.508","1.829","7.39","0.589","4.232","0.09","0.56","29.7403","4.69402","19.78","0","SATNPRO1964","25.674","0.3596","5"],
    [57253,"HCEP03730563","2025-08-15 19:15:00","10.4271","3.32587","27.647","1.8","7.39","0.575","3.976","0.08","0.32","29.7397","4.69395","19.47","0","SATNPRO1964","25.632","0.35902","5"],
    [57254,"HCEP03730563","2025-08-15 19:30:00","10.4231","3.32545","27.71","1.778","7.39","0.567","4.36","0.06","0.45","29.7388","4.6939","19.22","0","SATNPRO1964","25.386","0.35554","5"],
    [57255,"HCEP03730563","2025-08-15 19:45:00","10.4225","3.32549","27.839","1.726","7.39","3.779","52.442","3.71","28.85","29.7397","4.69404","18.67","0","SATNPRO1964","25.402","0.35578","5"],
    [57256,"HCEP03730563","2025-08-15 20:00:00","10.4218","3.32543","27.827","1.717","7.39","0.575","4.191","0.07","0.21","29.7396","4.69405","18.56","0","SATNPRO1964","25.45","0.35644","5"],
    [57257,"HCEP03730563","2025-08-15 20:15:00","10.4211","3.3254","27.924","1.717","7.38","0.573","4.262","0.06","0.34","29.7398","4.69409","18.56","0","SATNPRO1964","25.483999999999998","0.35698","5"],
    [57258,"HCEP03730563","2025-08-15 20:30:00","10.4224","3.32558","27.993","1.713","7.38","0.554","3.825","0.11","0.36","29.7406","4.69418","18.52","0","SATNPRO1964","25.48","0.35692","5"],
    [57259,"HCEP03730563","2025-08-15 20:45:00","10.4239","3.32583","27.915","1.728","7.38","0.56","4.181","0.05","0.26","29.7419","4.69433","18.69","0","SATNPRO1964","25.386","0.35558","5"],
    [57260,"HCEP03730563","2025-08-15 21:00:00","10.428","3.32639","27.94","1.721","7.38","0.563","4.491","0.08","0.25","29.744","4.69457","18.62","0","SATNPRO1964","25.098","0.35154","5"],
    [57261,"HCEP03730563","2025-08-15 21:15:00","10.4329","3.32697","27.94","1.742","7.38","0.593","4.607","0.06","0.23","29.7458","4.69475","18.85","0","SATNPRO1964","25.446","0.35642","5"],
    [57262,"HCEP03730563","2025-08-15 21:30:00","10.4391","3.32773","27.872","1.778","7.39","0.59","4.702","0.08","0.26","29.7482","4.69499","19.24","0","SATNPRO1964","25.49","0.35702","5"],
    [57263,"HCEP03730563","2025-08-15 21:45:00","10.4472","3.32881","27.845","1.829","7.39","0.621","4.145","0.1","0.2","29.7523","4.69544","19.79","0","SATNPRO1964","25.802","0.36142","5"],
    [57264,"HCEP03730563","2025-08-15 22:00:00","10.458","3.33035","27.762","1.898","7.39","0.643","4.479","0.26","0.35","29.7588","4.6962","20.54","0","SATNPRO1964","25.828","0.36178","5"],
    [57265,"HCEP03730563","2025-08-15 22:15:00","10.4718","3.33209","27.699","1.996","7.4","0.624","3.944","0.38","0.36","29.7648","4.69682","21.61","0","SATNPRO1964","26.096","0.36552","5"],
    [57266,"HCEP03730563","2025-08-15 22:30:00","10.4781","3.33285","27.584","2.094","7.41","0.515","3.413","0.08","0.15","29.7672","4.69705","22.68","0","SATNPRO1964","26.264","0.36786","5"],
    [57267,"HCEP03730563","2025-08-15 22:45:00","10.4843","3.33384","27.477","2.158","7.42","0.562","3.541","0.11","0.26","29.772","4.69762","23.37","0","SATNPRO1964","26.376","0.36942","5"],
    [57268,"HCEP03730563","2025-08-15 23:00:00","10.4819","3.33341","27.343","2.179","7.42","0.511","3.671","0.05","0.48","29.7698","4.69734","23.59","0","SATNPRO1964","26.112","0.36578","5"],
    [57269,"HCEP03730563","2025-08-15 23:15:00","10.485","3.33375","27.198","2.189","7.42","0.549","3.56","0.08","0.21","29.7706","4.69741","23.71","0","SATNPRO1964","26.332","0.36884","5"],
    [57270,"HCEP03730563","2025-08-15 23:30:00","10.4864","3.33393","27.033","2.229","7.42","0.56","3.101","0.14","0.13","29.7714","4.69748","24.14","0","SATNPRO1964","26.192","0.36686","5"],
    [57271,"HCEP03730563","2025-08-15 23:45:00","10.4857","3.33381","26.854","2.255","7.43","0.594","3.636","0.16","0.77","29.7708","4.6974","24.42","0","SATNPRO1964","26.636","0.37308","5"],
    [57272,"HCEP03730563","2025-08-16 00:00:00","10.4781","3.33285","26.678","2.226","7.43","0.579","4.006","0.06","0.3","29.7676","4.69705","24.1","0","SATNPRO1964","26.316","0.36858","5"],
    [57273,"HCEP03730563","2025-08-16 00:15:00","10.4781","3.33292","26.481","2.179","7.42","0.613","3.588","0.12","0.24","29.7683","4.69715","23.6","0","SATNPRO1964","26.238","0.36754","5"],
    [57274,"HCEP03730563","2025-08-16 00:30:00","10.4782","3.33291","26.274","2.188","7.42","0.549","3.537","0.07","0.2","29.7682","4.69712","23.7","0","SATNPRO1964","26.326","0.36876","5"],
    [57275,"HCEP03730563","2025-08-16 00:45:00","10.4782","3.33285","26.092","2.197","7.42","0.549","3.309","0.06","0.17","29.7678","4.69704","23.79","0","SATNPRO1964","26.43","0.37022","5"],
    [57276,"HCEP03730563","2025-08-16 01:00:00","10.4765","3.33238","25.891","2.199","7.42","0.547","3.509","0.11","0.51","29.7645","4.6966","23.81","0","SATNPRO1964","26.394","0.3697","5"],
    [57277,"HCEP03730563","2025-08-16 01:15:00","10.4758","3.33241","25.681","2.184","7.42","0.569","3.779","0.08","0.22","29.7654","4.69673","23.65","0","SATNPRO1964","26.152","0.3663","5"],
    [57278,"HCEP03730563","2025-08-16 01:30:00","10.4701","3.33115","25.479","2.145","7.42","0.534","4.075","0.06","0.19","29.7578","4.69572","23.22","0","SATNPRO1964","26.046","0.3648","5"],
    [57279,"HCEP03730563","2025-08-16 01:45:00","10.471","3.33156","25.266","2.106","7.42","0.581","4.467","0.06","0.2","29.7612","4.69618","22.81","0","SATNPRO1964","26.080000000000002","0.36532","5"],
    [57280,"HCEP03730563","2025-08-16 02:00:00","10.4685","3.3312","25.064","2.091","7.42","0.569","4.287","0.1","0.4","29.7597","4.69599","22.64","0","SATNPRO1964","26.004","0.36422","5"],
    [57281,"HCEP03730563","2025-08-16 02:15:00","10.4573","3.32959","24.872","2.043","7.41","0.565","4.196","0.08","0.27","29.753","4.69521","22.11","0","SATNPRO1964","25.936","0.36328","5"],
    [57282,"HCEP03730563","2025-08-16 02:30:00","10.4545","3.32918","24.711","1.973","7.41","0.606","4.206","0.2","0.47","29.7513","4.695","21.35","0","SATNPRO1964","25.566","0.3581","5"],
    [57283,"HCEP03730563","2025-08-16 02:45:00","10.4524","3.32863","24.593","1.933","7.41","0.553","4","0.06","0.31","29.7477","4.69451","20.92","0","SATNPRO1964","25.688","0.35984","5"],
    [57284,"HCEP03730563","2025-08-16 03:00:00","10.4571","3.32891","24.493","1.913","7.4","0.574","4.126","0.11","0.31","29.7466","4.69428","20.71","0","SATNPRO1964","25.604","0.35862","5"],
    [57285,"HCEP03730563","2025-08-16 03:15:00","10.4583","3.32922","24.419","1.909","7.4","0.667","4.405","0.21","0.56","29.7487","4.69456","20.66","0","SATNPRO1964","25.662","0.35942","5"],
    [57286,"HCEP03730563","2025-08-16 03:30:00","10.4602","3.32932","24.37","1.912","7.4","0.593","4.525","0.09","0.31","29.7481","4.69444","20.69","0","SATNPRO1964","26.174","0.36662","5"],
    [57287,"HCEP03730563","2025-08-16 03:45:00","10.464","3.32968","24.325","1.916","7.4","0.648","4.035","0.3","0.22","29.7486","4.69445","20.74","0","SATNPRO1964","25.51","0.35732","5"],
    [57288,"HCEP03730563","2025-08-16 04:00:00","10.4659","3.33002","24.306","1.929","7.4","0.569","4.343","0.08","0.29","29.7505","4.69468","20.88","0","SATNPRO1964","25.348","0.35506","5"],
    [57289,"HCEP03730563","2025-08-16 04:15:00","10.4673","3.33024","24.305","1.937","7.4","0.622","4.542","0.1","0.88","29.7515","4.69481","20.97","0","SATNPRO1964","25.747999999999998","0.36062","5"],
    [57290,"HCEP03730563","2025-08-16 04:30:00","10.4689","3.33017","24.315","1.948","7.4","0.602","4.153","0.11","0.36","29.7495","4.69449","21.09","0","SATNPRO1964","25.638","0.35908","5"],
    [57291,"HCEP03730563","2025-08-16 04:45:00","10.4701","3.3301","24.37","1.95","7.4","0.59","4.169","0.07","0.35","29.7479","4.69424","21.11","0","SATNPRO1964","25.7","0.36004","5"],
    [57292,"HCEP03730563","2025-08-16 05:00:00","10.472","3.33026","24.406","1.942","7.4","0.625","4.692","0.09","1.18","29.7478","4.69421","21.03","0","SATNPRO1964","25.614","0.35876","5"],
    [57293,"HCEP03730563","2025-08-16 05:15:00","10.4795","3.33085","24.456","1.947","7.4","0.703","4.877","0.07","0.46","29.7475","4.69405","21.08","0","SATNPRO1964","25.43","0.3562","5"],
    [57294,"HCEP03730563","2025-08-16 05:30:00","10.4894","3.33175","24.574","1.978","7.41","0.668","4.675","0.09","0.23","29.7483","4.69401","21.42","0","SATNPRO1964","25.654","0.35932","5"],
    [57295,"HCEP03730563","2025-08-16 05:45:00","10.4942","3.33206","24.692","2.01","7.41","0.743","5.149","0.12","0.25","29.7474","4.69381","21.77","0","SATNPRO1964","25.554","0.35794","5"],
    [57296,"HCEP03730563","2025-08-16 06:00:00","10.4849","3.33117","24.831","1.998","7.41","0.684","5.304","0.08","0.46","29.7462","4.69379","21.64","0","SATNPRO1964","25.612","0.35872","5"],
    [57297,"HCEP03730563","2025-08-16 06:15:00","10.4651","3.32919","24.975","1.918","7.4","0.657","5.287","0.1","0.27","29.7426","4.69362","20.77","0","SATNPRO1964","25.306","0.35442","5"],
    [57298,"HCEP03730563","2025-08-16 06:30:00","10.4557","3.32825","25.108","1.825","7.4","0.619","5.014","0.1","0.24","29.741","4.69354","19.76","0","SATNPRO1964","25.202","0.35298","5"],
    [57299,"HCEP03730563","2025-08-16 06:45:00","10.4562","3.32814","25.224","1.789","7.39","1.19","37.074","0.45","8.54","29.7394","4.69331","19.36","0","SATNPRO1964","25.152","0.35232","5"],
    [57300,"HCEP03730563","2025-08-16 07:00:00","10.4503","3.32755","25.352","1.771","7.39","4.351","130.476","2.92","70.56","29.7383","4.69326","19.17","0","SATNPRO1964","25.264","0.35388","5"],
    [57301,"HCEP03730563","2025-08-16 07:15:00","10.4467","3.32717","25.417","1.743","7.39","5.705","58.54","3.66","15.09","29.7374","4.69319","18.86","0","SATNPRO1964","25.13","0.35196","5"],
    [57302,"HCEP03730563","2025-08-16 07:30:00","10.447","3.32696","25.557","1.72","7.39","3.64","61.503","2.55","19.13","29.7351","4.69287","18.6","0","SATNPRO1964","25.168","0.35254","5"],
    [57303,"HCEP03730563","2025-08-16 07:45:00","10.4593","3.32787","25.651","1.713","7.39","1.128","20.348","0.87","29.89","29.734","4.69252","18.54","0","SATNPRO1964","25.208000000000002","0.35306","5"],
    [57304,"HCEP03730563","2025-08-16 08:00:00","10.4598","3.32771","25.834","1.72","7.38","0.679","5.732","0.09","0.32","29.732","4.69223","18.61","0","SATNPRO1964","25.032","0.35064","5"],
    [57305,"HCEP03730563","2025-08-16 08:15:00","10.488","3.32941","25.992","1.757","7.39","0.779","5.029","0.1","0.2","29.7257","4.69089","19.02","0","SATNPRO1964","25.152","0.35226","5"],
    [57306,"HCEP03730563","2025-08-16 08:30:00","10.5059","3.33001","26.158","1.852","7.39","0.77","5.368","0.11","0.23","29.717","4.68938","20.07","0","SATNPRO1964","24.916","0.34898","5"],
    [57307,"HCEP03730563","2025-08-16 08:45:00","10.5134","3.3302","26.318","1.816","7.39","0.762","5.318","0.07","0.24","29.7127","4.68865","19.68","0","SATNPRO1964","24.614","0.34474","5"],
    [57308,"HCEP03730563","2025-08-16 09:00:00","10.5098","3.32941","26.44","1.801","7.39","0.748","5.354","0.1","0.2","29.7078","4.68802","19.51","0","SATNPRO1964","24.452","0.34248","5"],
    [57309,"HCEP03730563","2025-08-16 09:15:00","10.5038","3.32887","26.526","1.743","7.39","0.806","5.642","0.13","0.35","29.7073","4.68805","18.88","0","SATNPRO1964","24.37","0.34134","5"],
    [57310,"HCEP03730563","2025-08-16 09:30:00","10.4891","3.328","26.702","1.71","7.39","0.779","6.073","0.12","0.52","29.7106","4.68877","18.51","0","SATNPRO1964","24.41","0.34192","5"],
    [57311,"HCEP03730563","2025-08-16 09:45:00","10.5005","3.32901","26.812","1.701","7.38","0.789","5.58","0.07","0.31","29.7113","4.68869","18.42","0","SATNPRO1964","24.576","0.3442","5"],
    [57312,"HCEP03730563","2025-08-16 10:00:00","10.501","3.329","26.892","1.735","7.39","0.837","6.462","0.18","1.01","29.7107","4.6886","18.8","0","SATNPRO1964","24.472","0.34274","5"],
    [57313,"HCEP03730563","2025-08-16 10:15:00","10.505","3.30258","26.949","1.723","7.39","0.839","5.299","0.15","0.31","29.4464","4.65087","18.63","0","SATNPRO1964","24.244","0.33958","5"],
    [57314,"HCEP03730563","2025-08-16 10:30:00","10.518","3.32936","26.984","1.707","7.38","0.819","5.705","0.19","0.85","29.7004","4.68686","18.5","0","SATNPRO1964","24.154","0.33836","5"],
    [57315,"HCEP03730563","2025-08-16 10:45:00","10.5227","3.32962","27.065","1.697","7.38","0.853","5.261","0.12","0.42","29.6991","4.6866","18.38","0","SATNPRO1964","23.992","0.33606","5"],
    [57316,"HCEP03730563","2025-08-16 11:00:00","10.54","3.33038","27.085","1.706","7.38","0.864","5.74","0.21","1.03","29.6925","4.6854","18.49","0","SATNPRO1964","23.906","0.33486","5"],
    [57317,"HCEP03730563","2025-08-16 11:15:00","10.5388","3.3305","27.149","1.722","7.39","0.848","5.453","0.11","0.21","29.6947","4.68572","18.66","0","SATNPRO1964","23.958000000000002","0.3356","5"],
    [57318,"HCEP03730563","2025-08-16 11:30:00","10.54","3.33096","27.161","1.741","7.39","0.963","5.308","0.27","0.3","29.6982","4.68621","18.87","0","SATNPRO1964","24.138","0.3381","5"],
    [57319,"HCEP03730563","2025-08-16 11:45:00","10.559","3.33217","27.161","1.806","7.39","1.205","4.747","0.33","0.27","29.6948","4.68542","19.59","0","SATNPRO1964","24.606","0.34464","5"],
    [57320,"HCEP03730563","2025-08-16 12:00:00","10.5445","3.33128","27.2","1.823","7.39","0.959","5.183","0.15","0.26","29.6978","4.68608","19.77","0","SATNPRO1964","24.424","0.3421","5"],
    [57321,"HCEP03730563","2025-08-16 12:15:00","10.5615","3.33185","27.2","1.824","7.39","1.052","5.051","0.19","0.52","29.6895","4.68462","19.77","0","SATNPRO1964","24.348","0.34106","5"],
    [57322,"HCEP03730563","2025-08-16 12:30:00","10.5381","3.33074","27.194","1.813","7.39","0.914","5.187","0.12","0.48","29.6976","4.68615","19.65","0","SATNPRO1964","24.352","0.34108","5"],
    [57323,"HCEP03730563","2025-08-16 12:45:00","10.5375","3.33074","27.162","1.791","7.39","0.926","5.096","0.12","0.34","29.6981","4.68623","19.41","0","SATNPRO1964","24.456","0.34254","5"],
    [57324,"HCEP03730563","2025-08-16 13:00:00","10.5508","3.33121","27.169","1.788","7.39","0.97","4.941","0.2","0.8","29.6919","4.68514","19.38","0","SATNPRO1964","24.366","0.34126","5"],
    [57325,"HCEP03730563","2025-08-16 13:15:00","10.5581","3.33155","27.117","1.821","7.39","1.035","5.01","0.15","0.35","29.6893","4.68465","19.74","0","SATNPRO1964","24.272000000000002","0.33992","5"],
    [57326,"HCEP03730563","2025-08-16 13:30:00","10.6162","3.33518","27.044","1.96","7.4","1.135","5.352","0.11","0.42","29.6779","4.68211","21.27","0","SATNPRO1964","24.548","0.34384","5"],
    [57327,"HCEP03730563","2025-08-16 13:45:00","10.7119","3.34483","26.99","2.248","7.42","1.612","6.714","0.17","0.71","29.6953","4.68307","24.45","0","SATNPRO1964","25.352","0.3551","5"],
    [57328,"HCEP03730563","2025-08-16 14:00:00","10.677","3.34332","26.871","2.601","7.44","1.447","6.337","0.13","0.44","29.7088","4.68554","28.28","0","SATNPRO1964","25.716","0.3602","5"],
    [57329,"HCEP03730563","2025-08-16 14:15:00","10.6413","3.34091","26.754","2.531","7.45","1.773","6.428","0.91","0.51","29.7141","4.68684","27.5","0","SATNPRO1964","25.612","0.35874","5"],
    [57330,"HCEP03730563","2025-08-16 14:30:00","10.6036","3.33791","26.713","2.322","7.44","1.368","5.291","0.18","0.3","29.7152","4.6876","25.21","0","SATNPRO1964","25.318","0.35462","5"],
    [57331,"HCEP03730563","2025-08-16 14:45:00","10.5902","3.33687","26.668","2.218","7.43","1.393","5.693","0.13","0.52","29.7159","4.68791","24.07","0","SATNPRO1964","25.21","0.35314","5"],
    [57332,"HCEP03730563","2025-08-16 15:00:00","10.5707","3.33482","26.612","2.134","7.43","1.175","4.285","0.2","0.28","29.7116","4.6876","23.15","0","SATNPRO1964","25.152","0.35228","5"],
    [57333,"HCEP03730563","2025-08-16 15:15:00","10.5637","3.33451","26.594","2.056","7.42","1.127","4.079","0.25","0.53","29.7143","4.68809","22.3","0","SATNPRO1964","25.412","0.35596","5"],
    [57334,"HCEP03730563","2025-08-16 15:30:00","10.5563","3.33405","26.591","2.033","7.42","1.145","4.154","0.24","0.24","29.7156","4.6884","22.05","0","SATNPRO1964","25.326","0.3547","5"],
    [57335,"HCEP03730563","2025-08-16 15:45:00","10.5487","3.33315","26.546","2.003","7.41","1.085","3.941","0.16","0.25","29.713","4.68814","21.71","0","SATNPRO1964","25.148","0.35228","5"],
    [57336,"HCEP03730563","2025-08-16 16:00:00","10.5496","3.33369","26.51","1.974","7.41","1.098","4.226","0.15","0.3","29.7176","4.68879","21.4","0","SATNPRO1964","25.226","0.35332","5"],
    [57337,"HCEP03730563","2025-08-16 16:15:00","10.5377","3.33169","26.49","1.951","7.41","0.988","3.845","0.1","0.15","29.7076","4.68754","21.14","0","SATNPRO1964","24.7","0.34596","5"],
    [57338,"HCEP03730563","2025-08-16 16:30:00","10.529","3.32954","26.518","1.788","7.4","0.928","3.38","0.23","0.27","29.6934","4.68566","19.37","0","SATNPRO1964","24.022000000000002","0.3365","5"],
    [57339,"HCEP03730563","2025-08-16 16:45:00","10.526","3.32918","26.516","1.638","7.39","0.941","3.276","0.11","0.18","29.6923","4.68555","17.75","0","SATNPRO1964","24.024","0.33652","5"],
    [57340,"HCEP03730563","2025-08-16 17:00:00","10.5282","3.33002","26.568","1.634","7.38","0.955","3.576","0.1","0.34","29.6988","4.68645","17.71","0","SATNPRO1964","23.928","0.33514","5"],
    [57341,"HCEP03730563","2025-08-16 17:15:00","10.5258","3.32976","26.601","1.638","7.38","1.098","3.228","0.23","0.16","29.6981","4.68639","17.74","0","SATNPRO1964","23.592","0.33046","5"],
    [57342,"HCEP03730563","2025-08-16 17:30:00","10.5286","3.33029","26.645","1.651","7.38","1.018","3.586","0.13","0.28","29.7011","4.68678","17.89","0","SATNPRO1964","24.074","0.3372","5"],
    [57343,"HCEP03730563","2025-08-16 17:45:00","10.5327","3.33086","26.74","1.693","7.38","1.06","3.923","0.13","0.44","29.7034","4.68704","18.35","0","SATNPRO1964","24.032","0.3366","5"],
    [57344,"HCEP03730563","2025-08-16 18:00:00","10.5372","3.33124","26.796","1.723","7.39","1.045","3.642","0.17","0.21","29.7035","4.68698","18.67","0","SATNPRO1964","24.318","0.34062","5"],
    [57345,"HCEP03730563","2025-08-16 18:15:00","10.5834","3.33625","26.855","1.852","7.39","1.049","3.539","0.2","0.22","29.7153","4.68793","20.09","0","SATNPRO1964","25.21","0.35312","5"],
    [57346,"HCEP03730563","2025-08-16 18:30:00","10.6593","3.34454","26.943","2.283","7.42","1.073","2.762","0.52","0.35","29.7352","4.68958","24.81","0","SATNPRO1964","26.084","0.3654","5"],
    [57347,"HCEP03730563","2025-08-16 18:45:00","10.652","3.34381","27.018","2.624","7.45","0.979","3.099","0.17","0.29","29.7339","4.68951","28.51","0","SATNPRO1964","26.414","0.36998","5"],
    [57348,"HCEP03730563","2025-08-16 19:00:00","10.5693","3.335","27.078","2.434","7.44","0.835","2.763","0.18","0.23","29.7143","4.68803","26.4","0","SATNPRO1964","24.862","0.34826","5"],
    [57349,"HCEP03730563","2025-08-16 19:15:00","10.545","3.33224","27.159","2.024","7.42","0.924","3.31","0.1","0.18","29.7068","4.68736","21.94","0","SATNPRO1964","24.2","0.339","5"],
    [57350,"HCEP03730563","2025-08-16 19:30:00","10.5301","3.33045","27.239","1.778","7.4","0.945","3.717","0.14","0.32","29.7012","4.6868","19.26","0","SATNPRO1964","23.678","0.33164","5"],
    [57351,"HCEP03730563","2025-08-16 19:45:00","10.5281","3.33009","27.315","1.659","7.39","1.02","3.96","0.18","0.26","29.6993","4.68656","17.98","0","SATNPRO1964","23.646","0.3312","5"],
    [57352,"HCEP03730563","2025-08-16 20:00:00","10.516","3.32964","27.375","1.627","7.39","0.978","3.771","0.11","0.24","29.7047","4.68752","17.62","0","SATNPRO1964","23.982","0.33588","5"],
    [57353,"HCEP03730563","2025-08-16 20:15:00","10.51","3.32951","27.438","1.612","7.38","1.034","3.859","0.17","0.19","29.7082","4.68813","17.46","0","SATNPRO1964","24.236","0.33946","5"],
    [57354,"HCEP03730563","2025-08-16 20:30:00","10.5183","3.33089","27.509","1.646","7.38","1.107","4.259","0.18","0.34","29.7151","4.68899","17.83","0","SATNPRO1964","24.516","0.3434","5"],
    [57355,"HCEP03730563","2025-08-16 20:45:00","10.5176","3.33112","27.543","1.705","7.38","1.182","4.614","0.17","0.41","29.7179","4.6894","18.47","0","SATNPRO1964","24.664","0.34542","5"],
    [57356,"HCEP03730563","2025-08-16 21:00:00","10.5139","3.33105","27.575","1.723","7.39","1.107","3.885","0.28","0.32","29.7202","4.68978","18.66","0","SATNPRO1964","24.588","0.3444","5"],
    [57357,"HCEP03730563","2025-08-16 21:15:00","10.5241","3.33365","27.588","1.805","7.39","1.074","3.788","0.12","0.49","29.7375","4.69209","19.56","0","SATNPRO1964","25.32","0.35466","5"],
    [57358,"HCEP03730563","2025-08-16 21:30:00","10.5635","3.33999","27.618","2.184","7.41","0.921","3.472","0.1","0.42","29.7681","4.69582","23.7","0","SATNPRO1964","27.526","0.38556","5"],
    [57359,"HCEP03730563","2025-08-16 21:45:00","10.5745","3.34224","27.629","2.66","7.44","0.936","3.392","0.21","0.48","29.7813","4.69752","28.86","0","SATNPRO1964","28.344","0.397","5"],
    [57360,"HCEP03730563","2025-08-16 22:00:00","10.5754","3.34273","27.638","2.902","7.47","0.992","3.929","0.16","0.31","29.7855","4.6981","31.5","0","SATNPRO1964","28.598","0.40052","5"],
    [57361,"HCEP03730563","2025-08-16 22:15:00","10.5728","3.3431","27.63","2.943","7.48","0.922","4.147","0.16","0.83","29.7913","4.69897","31.94","0","SATNPRO1964","28.492","0.39904","5"],
    [57362,"HCEP03730563","2025-08-16 22:30:00","10.5656","3.34373","27.587","2.917","7.48","0.782","2.867","0.09","0.35","29.8033","4.70078","31.65","0","SATNPRO1964","28.482","0.39892","5"],
    [57363,"HCEP03730563","2025-08-16 22:45:00","10.5649","3.34389","27.548","2.884","7.48","0.822","2.68","0.12","0.17","29.8054","4.7011","31.29","0","SATNPRO1964","28.452","0.39852","5"],
    [57364,"HCEP03730563","2025-08-16 23:00:00","10.5628","3.34429","27.486","2.874","7.49","0.873","3.533","0.14","0.42","29.8111","4.70194","31.18","0","SATNPRO1964","28.452","0.39854","5"],
    [57365,"HCEP03730563","2025-08-16 23:15:00","10.5615","3.3447","27.415","2.859","7.49","0.897","3.291","0.16","0.29","29.8163","4.70269","31.03","0","SATNPRO1964","28.522","0.3995","5"],
    [57366,"HCEP03730563","2025-08-16 23:30:00","10.562","3.345","27.326","2.866","7.49","0.902","3.862","0.21","0.26","29.8189","4.70305","31.1","0","SATNPRO1964","28.478","0.39888","5"],
    [57367,"HCEP03730563","2025-08-16 23:45:00","10.5625","3.34535","27.21","2.883","7.49","0.83","3.545","0.22","0.42","29.822","4.70348","31.29","0","SATNPRO1964","28.802","0.40344","5"],
    [57368,"HCEP03730563","2025-08-17 00:00:00","10.563","3.34574","27.074","2.911","7.49","0.751","3.314","0.11","0.3","29.8255","4.70397","31.6","0","SATNPRO1964","28.78","0.40316","5"],
    [57369,"HCEP03730563","2025-08-17 00:15:00","10.5627","3.34562","26.935","2.931","7.49","0.812","3.395","0.13","0.35","29.8246","4.70382","31.81","0","SATNPRO1964","28.898","0.40476","5"],
    [57370,"HCEP03730563","2025-08-17 00:30:00","10.5615","3.34594","26.776","2.938","7.5","0.778","3.799","0.09","0.25","29.8288","4.70443","31.88","0","SATNPRO1964","28.888","0.40464","5"],
    [57371,"HCEP03730563","2025-08-17 00:45:00","10.5619","3.34646","26.611","2.971","7.5","0.764","3.531","0.08","0.39","29.8337","4.70511","32.24","0","SATNPRO1964","29.176","0.4087","5"],
    [57372,"HCEP03730563","2025-08-17 01:00:00","10.5624","3.34646","26.437","2.995","7.5","0.808","3.369","0.19","0.27","29.8334","4.70506","32.51","0","SATNPRO1964","29.112","0.40776","5"],
    [57373,"HCEP03730563","2025-08-17 01:15:00","10.5616","3.34608","26.252","2.982","7.5","0.87","4.391","0.16","0.3","29.8303","4.70461","32.36","0","SATNPRO1964","28.87","0.40438","5"],
    [57374,"HCEP03730563","2025-08-17 01:30:00","10.5613","3.34666","26.069","2.958","7.5","0.795","4.29","0.11","0.3","29.8363","4.70548","32.11","0","SATNPRO1964","29.124","0.40792","5"],
    [57375,"HCEP03730563","2025-08-17 01:45:00","10.5618","3.34685","25.824","2.979","7.5","0.837","4.647","0.1","0.33","29.8379","4.70568","32.34","0","SATNPRO1964","29.172","0.40862","5"],
    [57376,"HCEP03730563","2025-08-17 02:00:00","10.5707","3.34809","25.602","3.025","7.51","0.781","3.776","0.12","0.18","29.843","4.70625","32.83","0","SATNPRO1964","29.382","0.41156","5"],
    [57377,"HCEP03730563","2025-08-17 02:15:00","10.6123","3.35303","25.386","3.157","7.52","0.655","2.855","0.08","0.33","29.8578","4.70768","34.3","0","SATNPRO1964","29.848","0.41804","5"],
    [57378,"HCEP03730563","2025-08-17 02:30:00","10.5821","3.34963","25.161","3.279","7.52","0.81","3.401","0.35","0.29","29.8491","4.7069","35.61","0","SATNPRO1964","29.968","0.41974","5"],
    [57379,"HCEP03730563","2025-08-17 02:45:00","10.5781","3.34915","24.96","3.196","7.52","0.699","3.723","0.06","0.28","29.8477","4.70676","34.7","0","SATNPRO1964","29.68","0.41574","5"],
    [57380,"HCEP03730563","2025-08-17 03:00:00","10.5763","3.34861","24.783","3.142","7.52","0.761","4.231","0.13","0.41","29.8439","4.70624","34.11","0","SATNPRO1964","29.68","0.4157","5"],
    [57381,"HCEP03730563","2025-08-17 03:15:00","10.5777","3.3485","24.623","3.104","7.52","0.749","4.325","0.09","0.32","29.8417","4.70589","33.7","0","SATNPRO1964","29.598","0.41458","5"],
    [57382,"HCEP03730563","2025-08-17 03:30:00","10.5796","3.34835","24.486","3.092","7.52","0.71","4.527","0.07","0.53","29.8387","4.70543","33.57","0","SATNPRO1964","29.509999999999998","0.41328","5"],
    [57383,"HCEP03730563","2025-08-17 03:45:00","10.5779","3.34814","24.371","3.074","7.51","0.798","4.497","0.17","0.29","29.8381","4.70537","33.38","0","SATNPRO1964","29.226","0.40938","5"],
    [57384,"HCEP03730563","2025-08-17 04:00:00","10.5764","3.34793","24.288","3.052","7.51","0.74","4.737","0.12","0.26","29.8373","4.70527","33.13","0","SATNPRO1964","29.284","0.4102","5"],
    [57385,"HCEP03730563","2025-08-17 04:15:00","10.5757","3.3475","24.225","3.024","7.51","0.922","4.194","0.37","0.26","29.8337","4.70476","32.83","0","SATNPRO1964","29.09","0.40746","5"],
    [57386,"HCEP03730563","2025-08-17 04:30:00","10.5804","3.34793","24.185","3.009","7.51","0.748","4.284","0.16","0.32","29.8341","4.70475","32.67","0","SATNPRO1964","29.298","0.41038","5"],
    [57387,"HCEP03730563","2025-08-17 04:45:00","10.5794","3.34797","24.142","3.01","7.51","0.826","4.323","0.31","0.23","29.8353","4.70493","32.68","0","SATNPRO1964","29.292","0.4103","5"],
    [57388,"HCEP03730563","2025-08-17 05:00:00","10.5806","3.34798","24.169","3.007","7.51","0.72","4.569","0.12","0.69","29.8345","4.70479","32.65","0","SATNPRO1964","29.186","0.40884","5"],
    [57389,"HCEP03730563","2025-08-17 05:15:00","10.58","3.34795","24.188","3.003","7.51","0.79","4.732","0.25","0.34","29.8345","4.70481","32.6","0","SATNPRO1964","29.172","0.40862","5"],
    [57390,"HCEP03730563","2025-08-17 05:30:00","10.5801","3.34777","24.226","2.99","7.51","1.075","4.431","0.87","0.79","29.8327","4.70455","32.47","0","SATNPRO1964","29.052","0.40692","5"],
    [57391,"HCEP03730563","2025-08-17 05:45:00","10.5824","3.34772","24.256","2.988","7.51","0.856","3.822","0.56","0.25","29.8303","4.70418","32.45","0","SATNPRO1964","29.112","0.40776","5"],
    [57392,"HCEP03730563","2025-08-17 06:00:00","10.5817","3.3477","24.329","2.988","7.51","0.841","3.861","0.5","0.23","29.8307","4.70425","32.44","0","SATNPRO1964","29.104","0.40766","5"],
    [57393,"HCEP03730563","2025-08-17 06:15:00","10.5823","3.34766","24.405","2.977","7.5","0.756","4.094","0.12","0.26","29.8298","4.70411","32.33","0","SATNPRO1964","28.93","0.40522","5"],
    [57394,"HCEP03730563","2025-08-17 06:30:00","10.5829","3.34772","24.514","2.971","7.5","0.83","4.218","0.27","0.43","29.8298","4.70412","32.26","0","SATNPRO1964","29.008","0.4063","5"],
    [57395,"HCEP03730563","2025-08-17 06:45:00","10.5917","3.34779","24.615","3.002","7.51","0.722","2.731","0.33","0.16","29.8232","4.70304","32.6","0","SATNPRO1964","29.116","0.40782","5"],
    [57396,"HCEP03730563","2025-08-17 07:00:00","10.5892","3.34775","24.755","3.027","7.51","0.693","3.85","0.1","0.23","29.8249","4.70332","32.87","0","SATNPRO1964","28.996","0.40614","5"],
    [57397,"HCEP03730563","2025-08-17 07:15:00","10.5861","3.34771","24.883","3.006","7.51","0.676","3.62","0.1","0.27","29.827","4.70368","32.64","0","SATNPRO1964","29.006","0.4063","5"],
    [57398,"HCEP03730563","2025-08-17 07:30:00","10.5897","3.34764","25.013","3.008","7.51","0.651","3.379","0.11","0.49","29.8233","4.70311","32.67","0","SATNPRO1964","28.916","0.40504","5"],
    [57399,"HCEP03730563","2025-08-17 07:45:00","10.5905","3.34754","25.151","3.009","7.51","0.615","2.914","0.07","0.14","29.8216","4.70286","32.68","0","SATNPRO1964","28.992","0.40604","5"],
    [57400,"HCEP03730563","2025-08-17 08:00:00","10.5998","3.34763","25.295","3.022","7.51","0.635","2.386","0.1","0.17","29.8148","4.70175","32.82","0","SATNPRO1964","28.848","0.40404","5"],
    [57401,"HCEP03730563","2025-08-17 08:15:00","10.5984","3.34745","25.43","3.014","7.51","0.752","3.674","0.17","0.47","29.8141","4.70168","32.73","0","SATNPRO1964","28.576","0.40024","5"],
    [57402,"HCEP03730563","2025-08-17 08:30:00","10.5939","3.34734","25.534","2.945","7.5","0.676","4.112","0.1","0.28","29.8166","4.70212","31.98","0","SATNPRO1964","28.356","0.39722","5"],
    [57403,"HCEP03730563","2025-08-17 08:45:00","10.6145","3.34734","25.679","2.889","7.5","0.805","4.259","0.23","0.4","29.7998","4.69941","31.39","0","SATNPRO1964","27.974","0.39184","5"],
    [57404,"HCEP03730563","2025-08-17 09:00:00","10.6105","3.34601","25.837","2.819","7.49","0.763","4.397","0.15","0.24","29.7899","4.69807","30.61","0","SATNPRO1964","27.624","0.3869","5"],
    [57405,"HCEP03730563","2025-08-17 09:15:00","10.6099","3.34561","26.002","2.752","7.49","0.748","4.326","0.08","0.22","29.7863","4.69758","29.89","0","SATNPRO1964","27.25","0.38168","5"],
    [57406,"HCEP03730563","2025-08-17 09:30:00","10.6102","3.34546","26.18","2.718","7.48","0.768","4.572","0.11","0.52","29.7845","4.69733","29.52","0","SATNPRO1964","27.258","0.3818","5"],
    [57407,"HCEP03730563","2025-08-17 09:45:00","10.6163","3.34611","26.331","2.692","7.48","0.816","4.888","0.12","0.41","29.786","4.69745","29.24","0","SATNPRO1964","27.242","0.38154","5"],
    [57408,"HCEP03730563","2025-08-17 10:00:00","10.6168","3.34551","26.43","2.669","7.48","0.798","4.772","0.1","0.23","29.7796","4.69653","28.99","0","SATNPRO1964","26.856","0.3762","5"],
    [57409,"HCEP03730563","2025-08-17 10:15:00","10.6177","3.3442","26.561","2.582","7.47","0.828","4.941","0.12","0.2","29.7659","4.69458","28.05","0","SATNPRO1964","26.63","0.37302","5"],
    [57410,"HCEP03730563","2025-08-17 10:30:00","10.6256","3.34351","26.651","2.478","7.46","0.857","5.274","0.09","0.37","29.7526","4.69256","26.92","0","SATNPRO1964","26.172","0.36658","5"],
    [57411,"HCEP03730563","2025-08-17 10:45:00","10.633","3.34277","26.734","2.426","7.46","0.874","5.29","0.09","0.37","29.7393","4.69056","26.35","0","SATNPRO1964","25.884","0.36256","5"],
    [57412,"HCEP03730563","2025-08-17 11:00:00","10.6377","3.3423","26.822","2.379","7.45","0.902","5.911","0.13","0.38","29.7307","4.68927","25.84","0","SATNPRO1964","25.448","0.35642","5"],
    [57413,"HCEP03730563","2025-08-17 11:15:00","10.6299","3.34065","26.881","2.302","7.45","0.884","5.447","0.11","0.42","29.7208","4.68799","25","0","SATNPRO1964","25.208000000000002","0.35308","5"],
    [57414,"HCEP03730563","2025-08-17 11:30:00","10.6369","3.34142","26.95","2.261","7.44","0.971","5.762","0.34","0.34","29.7227","4.68815","24.56","0","SATNPRO1964","25.316000000000003","0.35458","5"],
    [57415,"HCEP03730563","2025-08-17 11:45:00","10.648","3.34256","27.009","2.306","7.44","0.956","5.531","0.11","0.35","29.7248","4.68827","25.06","0","SATNPRO1964","25.37","0.35536","5"],
    [57416,"HCEP03730563","2025-08-17 12:00:00","10.6526","3.34243","27.061","2.33","7.44","0.972","5.472","0.19","0.46","29.7197","4.68749","25.32","0","SATNPRO1964","25.12","0.35184","5"],
    [57417,"HCEP03730563","2025-08-17 12:15:00","10.6538","3.34222","27.103","2.308","7.44","1.019","5.359","0.14","0.27","29.7167","4.68704","25.08","0","SATNPRO1964","25.206","0.35304","5"],
    [57418,"HCEP03730563","2025-08-17 12:30:00","10.6534","3.3418","27.148","2.269","7.44","1.064","5.492","0.13","0.92","29.713","4.68652","24.66","0","SATNPRO1964","24.784","0.34712","5"],
    [57419,"HCEP03730563","2025-08-17 12:45:00","10.6523","3.34131","27.177","2.225","7.44","1.08","5.2","0.17","0.3","29.709","4.68596","24.18","0","SATNPRO1964","24.652","0.34528","5"],
    [57420,"HCEP03730563","2025-08-17 13:00:00","10.6491","3.34082","27.224","2.176","7.43","1.128","5.245","0.3","0.53","29.7068","4.6857","23.64","0","SATNPRO1964","24.518","0.34348","5"],
    [57421,"HCEP03730563","2025-08-17 13:15:00","10.6476","3.34058","27.245","2.134","7.43","1.152","4.961","0.24","0.47","29.7055","4.68555","23.18","0","SATNPRO1964","24.472","0.3428","5"],
    [57422,"HCEP03730563","2025-08-17 13:30:00","10.6468","3.3405","27.257","2.109","7.43","1.198","4.896","0.43","1.05","29.7055","4.68556","22.91","0","SATNPRO1964","24.433999999999997","0.34226","5"],
    [57423,"HCEP03730563","2025-08-17 13:45:00","10.6458","3.34037","27.278","2.094","7.42","1.087","4.309","0.18","0.37","29.7049","4.68549","22.75","0","SATNPRO1964","24.434","0.34224","5"],
    [57424,"HCEP03730563","2025-08-17 14:00:00","10.6453","3.34027","27.303","2.079","7.42","1.119","4.316","0.33","0.3","29.7044","4.68543","22.59","0","SATNPRO1964","24.144","0.3382","5"],
    [57425,"HCEP03730563","2025-08-17 14:15:00","10.6535","3.34037","27.286","2.062","7.42","1.038","3.991","0.14","0.73","29.6987","4.68449","22.4","0","SATNPRO1964","24.116","0.33778","5"],
    [57426,"HCEP03730563","2025-08-17 14:30:00","10.7217","3.34353","27.285","2.121","7.42","1.182","3.779","0.18","0.49","29.6744","4.67997","23.07","0","SATNPRO1964","24.518","0.34342","5"],
    [57427,"HCEP03730563","2025-08-17 14:45:00","10.6729","3.34189","27.261","2.172","7.43","1.08","5.35","0.12","0.34","29.6979","4.68407","23.61","0","SATNPRO1964","24.572","0.34418","5"],
    [57428,"HCEP03730563","2025-08-17 15:00:00","10.6704","3.34205","27.251","2.138","7.42","1.115","4.617","0.21","0.61","29.7015","4.68461","23.24","0","SATNPRO1964","24.754","0.34672","5"],
    [57429,"HCEP03730563","2025-08-17 15:15:00","10.6628","3.34172","27.203","2.158","7.43","1.059","4.685","0.11","0.21","29.7045","4.68517","23.46","0","SATNPRO1964","24.72","0.34622","5"],
    [57430,"HCEP03730563","2025-08-17 15:30:00","10.6586","3.34154","27.162","2.149","7.42","1.026","4.433","0.12","0.27","29.7061","4.68545","23.35","0","SATNPRO1964","24.722","0.3463","5"],
    [57431,"HCEP03730563","2025-08-17 15:45:00","10.6525","3.34143","27.084","2.142","7.42","1.159","5.129","0.17","0.32","29.71","4.6861","23.28","0","SATNPRO1964","24.746","0.34662","5"],
    [57432,"HCEP03730563","2025-08-17 16:00:00","10.6529","3.34182","27.005","2.168","7.43","1.018","4.57","0.19","0.34","29.7136","4.6866","23.56","0","SATNPRO1964","24.904","0.34882","5"],
    [57433,"HCEP03730563","2025-08-17 16:15:00","10.6332","3.34284","26.969","2.224","7.43","1.183","5.838","0.15","0.52","29.7397","4.69063","24.16","0","SATNPRO1964","25.57","0.3582","5"],
    [57434,"HCEP03730563","2025-08-17 16:30:00","10.6239","3.3434","26.939","2.313","7.43","1.201","5.502","0.23","0.3","29.7528","4.69263","25.12","0","SATNPRO1964","26.3","0.36838","5"],
    [57435,"HCEP03730563","2025-08-17 16:45:00","10.6179","3.34357","26.919","2.382","7.44","1.11","4.73","0.15","0.28","29.7594","4.69367","25.87","0","SATNPRO1964","26.154","0.36638","5"],
    [57436,"HCEP03730563","2025-08-17 17:00:00","10.6312","3.34249","26.869","2.35","7.44","0.965","3.808","0.12","0.28","29.7379","4.69041","25.53","0","SATNPRO1964","25.794","0.36128","5"],
    [57437,"HCEP03730563","2025-08-17 17:15:00","10.6395","3.34215","26.788","2.27","7.44","0.945","3.511","0.11","0.15","29.7279","4.68883","24.66","0","SATNPRO1964","25.528","0.35756","5"],
    [57438,"HCEP03730563","2025-08-17 17:30:00","10.6341","3.34277","26.77","2.263","7.44","0.933","3.903","0.11","0.17","29.7383","4.6904","24.58","0","SATNPRO1964","25.736","0.3605","5"],
    [57439,"HCEP03730563","2025-08-17 17:45:00","10.6327","3.34294","26.758","2.318","7.44","0.986","4.022","0.11","0.2","29.7411","4.69083","25.18","0","SATNPRO1964","25.928","0.36314","5"],
    [57440,"HCEP03730563","2025-08-17 18:00:00","10.6213","3.34368","26.747","2.371","7.44","1.016","4.414","0.14","0.27","29.7578","4.69338","25.75","0","SATNPRO1964","26.5","0.37118","5"],
    [57441,"HCEP03730563","2025-08-17 18:15:00","10.6131","3.34391","26.784","2.435","7.45","1.07","4.131","0.15","0.23","29.7667","4.69478","26.44","0","SATNPRO1964","26.772","0.375","5"],
    [57442,"HCEP03730563","2025-08-17 18:30:00","10.6072","3.34391","26.809","2.475","7.45","1.086","4.369","0.13","0.28","29.7714","4.69555","26.88","0","SATNPRO1964","26.724","0.37432","5"],
    [57443,"HCEP03730563","2025-08-17 18:45:00","10.6091","3.34362","26.858","2.477","7.45","1.054","4.41","0.13","0.27","29.767","4.6949","26.9","0","SATNPRO1964","26.722","0.37434","5"],
    [57444,"HCEP03730563","2025-08-17 19:00:00","10.6054","3.34376","26.893","2.473","7.45","0.979","4.486","0.11","0.33","29.7714","4.69558","26.85","0","SATNPRO1964","26.812","0.37558","5"],
    [57445,"HCEP03730563","2025-08-17 19:15:00","10.6013","3.34379","26.945","2.488","7.45","1.037","4.609","0.11","0.24","29.7751","4.69617","27.02","0","SATNPRO1964","27.064","0.37908","5"],
    [57446,"HCEP03730563","2025-08-17 19:30:00","10.5998","3.34376","26.984","2.494","7.45","1.027","4.831","0.11","0.26","29.776","4.69633","27.08","0","SATNPRO1964","26.894","0.3767","5"],
    [57447,"HCEP03730563","2025-08-17 19:45:00","10.5975","3.34365","27.038","2.491","7.46","1.039","4.553","0.13","0.2","29.7767","4.69647","27.04","0","SATNPRO1964","26.874","0.37642","5"],
    [57448,"HCEP03730563","2025-08-17 20:00:00","10.5972","3.34362","27.088","2.487","7.46","0.995","4.191","0.14","0.19","29.7767","4.69647","27.01","0","SATNPRO1964","26.887999999999998","0.3766","5"],
    [57449,"HCEP03730563","2025-08-17 20:15:00","10.5967","3.34374","27.122","2.49","7.46","0.989","4.459","0.11","0.26","29.7783","4.6967","27.04","0","SATNPRO1964","27.092","0.37944","5"],
    [57450,"HCEP03730563","2025-08-17 20:30:00","10.5948","3.34371","27.162","2.503","7.46","0.988","4.592","0.18","0.31","29.7795","4.69692","27.17","0","SATNPRO1964","26.966","0.37772","5"],
    [57451,"HCEP03730563","2025-08-17 20:45:00","10.5942","3.34373","27.217","2.503","7.46","0.929","4.367","0.09","0.26","29.7801","4.69701","27.18","0","SATNPRO1964","27.14","0.38012","5"],
    [57452,"HCEP03730563","2025-08-17 21:00:00","10.5934","3.34377","27.257","2.508","7.46","0.867","4.255","0.11","0.29","29.7811","4.69717","27.23","0","SATNPRO1964","27.144","0.38018","5"],
    [57453,"HCEP03730563","2025-08-17 21:15:00","10.5919","3.34394","27.31","2.515","7.46","0.917","4.055","0.19","0.28","29.7841","4.69762","27.3","0","SATNPRO1964","27.169999999999998","0.38056","5"],
    [57454,"HCEP03730563","2025-08-17 21:30:00","10.59","3.34407","27.369","2.528","7.46","0.816","3.849","0.12","0.26","29.7869","4.69805","27.45","0","SATNPRO1964","27.422","0.3841","5"],
    [57455,"HCEP03730563","2025-08-17 21:45:00","10.5892","3.3442","27.41","2.541","7.46","0.929","3.946","0.15","0.27","29.7888","4.69833","27.59","0","SATNPRO1964","27.458","0.38458","5"],
    [57456,"HCEP03730563","2025-08-17 22:00:00","10.5876","3.34438","27.428","2.553","7.46","0.858","3.983","0.13","0.21","29.7918","4.69879","27.71","0","SATNPRO1964","27.396","0.38372","5"],
    [57457,"HCEP03730563","2025-08-17 22:15:00","10.5862","3.34446","27.456","2.56","7.46","0.906","4.096","0.1","0.55","29.7938","4.6991","27.79","0","SATNPRO1964","27.562","0.38606","5"],
    [57458,"HCEP03730563","2025-08-17 22:30:00","10.5861","3.3444","27.454","2.563","7.46","0.88","4.028","0.15","0.3","29.7933","4.69903","27.82","0","SATNPRO1964","27.428","0.38416","5"],
    [57459,"HCEP03730563","2025-08-17 22:45:00","10.5842","3.34439","27.464","2.56","7.46","0.923","3.952","0.19","0.38","29.7947","4.69927","27.79","0","SATNPRO1964","27.56","0.38602","5"],
    [57460,"HCEP03730563","2025-08-17 23:00:00","10.5835","3.34437","27.461","2.559","7.46","0.837","3.817","0.12","0.29","29.7951","4.69933","27.78","0","SATNPRO1964","27.526","0.38552","5"],
    [57461,"HCEP03730563","2025-08-17 23:15:00","10.583","3.34439","27.43","2.563","7.46","0.857","3.77","0.12","0.25","29.7957","4.69942","27.82","0","SATNPRO1964","27.446","0.3844","5"],
    [57462,"HCEP03730563","2025-08-17 23:30:00","10.582","3.34463","27.385","2.569","7.46","0.836","3.428","0.12","0.25","29.7989","4.69989","27.89","0","SATNPRO1964","27.558","0.38598","5"],
    [57463,"HCEP03730563","2025-08-17 23:45:00","10.5804","3.34461","27.346","2.578","7.46","0.853","3.88","0.1","0.38","29.8001","4.70008","27.99","0","SATNPRO1964","27.666","0.38752","5"],
    [57464,"HCEP03730563","2025-08-18 00:00:00","10.5796","3.34472","27.289","2.574","7.46","0.813","3.728","0.08","0.39","29.8018","4.70033","27.94","0","SATNPRO1964","27.576","0.38622","5"],
    [57465,"HCEP03730563","2025-08-18 00:15:00","10.5786","3.34486","27.223","2.58","7.46","0.981","3.549","0.53","0.33","29.804","4.70066","28","0","SATNPRO1964","27.79","0.38926","5"],
    [57466,"HCEP03730563","2025-08-18 00:30:00","10.5779","3.3451","27.128","2.594","7.47","0.803","3.161","0.14","0.17","29.8071","4.7011","28.16","0","SATNPRO1964","27.906","0.39084","5"],
    [57467,"HCEP03730563","2025-08-18 00:45:00","10.5781","3.34521","27.021","2.61","7.47","0.845","3.304","0.24","0.32","29.808","4.70122","28.33","0","SATNPRO1964","28.006","0.39228","5"],
    [57468,"HCEP03730563","2025-08-18 01:00:00","10.5772","3.34522","26.909","2.617","7.47","0.812","3.243","0.21","0.29","29.8088","4.70135","28.41","0","SATNPRO1964","27.688","0.38782","5"],
    [57469,"HCEP03730563","2025-08-18 01:15:00","10.5773","3.3453","26.779","2.621","7.47","0.804","2.932","0.25","0.15","29.8096","4.70145","28.45","0","SATNPRO1964","28.05","0.3929","5"],
    [57470,"HCEP03730563","2025-08-18 01:30:00","10.5768","3.34523","26.614","2.625","7.47","0.838","3.193","0.2","0.33","29.8094","4.70142","28.49","0","SATNPRO1964","28.182000000000002","0.3947","5"],
    [57471,"HCEP03730563","2025-08-18 01:45:00","10.5768","3.34531","26.469","2.62","7.47","0.792","3.245","0.2","0.29","29.8102","4.70153","28.44","0","SATNPRO1964","28.068","0.39312","5"],
    [57472,"HCEP03730563","2025-08-18 02:00:00","10.5769","3.34534","26.321","2.623","7.47","0.769","3.113","0.33","0.26","29.8105","4.70156","28.47","0","SATNPRO1964","27.855999999999998","0.39018","5"],
    [57473,"HCEP03730563","2025-08-18 02:15:00","10.5764","3.34532","26.141","2.619","7.47","0.773","3.18","0.23","0.7","29.8108","4.70161","28.43","0","SATNPRO1964","28.174","0.39462","5"],
    [57474,"HCEP03730563","2025-08-18 02:30:00","10.576","3.3452","25.963","2.612","7.47","0.826","3.193","0.16","0.2","29.81","4.70149","28.35","0","SATNPRO1964","27.998","0.39216","5"],
    [57475,"HCEP03730563","2025-08-18 02:45:00","10.5749","3.34494","25.778","2.602","7.47","0.788","3.361","0.11","0.47","29.8084","4.70127","28.25","0","SATNPRO1964","28.008","0.39232","5"],
    [57476,"HCEP03730563","2025-08-18 03:00:00","10.5746","3.3448","25.549","2.596","7.47","0.873","3.068","0.23","0.21","29.8073","4.7011","28.17","0","SATNPRO1964","28.166","0.39448","5"],
    [57477,"HCEP03730563","2025-08-18 03:15:00","10.5746","3.34476","25.346","2.595","7.47","0.714","2.582","0.15","0.07","29.807","4.70105","28.16","0","SATNPRO1964","28","0.3922","5"],
    [57478,"HCEP03730563","2025-08-18 03:30:00","10.5746","3.3447","25.132","2.59","7.47","1.101","2.784","1.05","0.13","29.8065","4.70097","28.11","0","SATNPRO1964","27.792","0.38928","5"],
    [57479,"HCEP03730563","2025-08-18 03:45:00","10.5744","3.34469","24.944","2.578","7.47","0.904","3.138","0.28","0.16","29.8066","4.70097","27.98","0","SATNPRO1964","27.682","0.38772","5"],
    [57480,"HCEP03730563","2025-08-18 04:00:00","10.5746","3.34465","24.748","2.555","7.47","0.795","3.385","0.21","0.17","29.8062","4.7009","27.73","0","SATNPRO1964","28.062","0.39308","5"],
    [57481,"HCEP03730563","2025-08-18 04:15:00","10.5746","3.34457","24.581","2.548","7.46","0.725","2.936","0.09","0.21","29.8055","4.70079","27.65","0","SATNPRO1964","28.132","0.39402","5"],
    [57482,"HCEP03730563","2025-08-18 04:30:00","10.5748","3.34456","24.426","2.555","7.46","0.776","2.789","0.2","0.11","29.8052","4.70074","27.73","0","SATNPRO1964","27.854","0.39016","5"],
    [57483,"HCEP03730563","2025-08-18 04:45:00","10.5747","3.34451","24.308","2.564","7.47","0.821","2.716","0.19","0.09","29.8048","4.70068","27.84","0","SATNPRO1964","27.858","0.39022","5"],
    [57484,"HCEP03730563","2025-08-18 05:00:00","10.575","3.34448","24.19","2.568","7.47","0.75","2.79","0.12","0.07","29.8045","4.70061","27.88","0","SATNPRO1964","28.006","0.39228","5"],
    [57485,"HCEP03730563","2025-08-18 05:15:00","10.575","3.34454","24.097","2.576","7.47","0.75","2.892","0.1","0.15","29.805","4.70069","27.96","0","SATNPRO1964","27.828","0.38974","5"],
    [57486,"HCEP03730563","2025-08-18 05:30:00","10.5763","3.34443","24.011","2.572","7.47","0.704","2.347","0.15","0.07","29.8029","4.70036","27.92","0","SATNPRO1964","27.938","0.39132","5"],
    [57487,"HCEP03730563","2025-08-18 05:45:00","10.5754","3.34452","23.976","2.577","7.47","0.869","2.769","0.41","0.12","29.8046","4.70061","27.97","0","SATNPRO1964","28.392","0.39766","5"],
    [57488,"HCEP03730563","2025-08-18 06:00:00","10.5741","3.34461","23.959","2.581","7.47","0.709","2.792","0.14","0.14","29.8066","4.70091","28.01","0","SATNPRO1964","28.04","0.39276","5"],
    [57489,"HCEP03730563","2025-08-18 06:15:00","10.5741","3.3447","23.962","2.567","7.47","0.728","2.611","0.11","0.11","29.8074","4.70103","27.86","0","SATNPRO1964","27.736","0.3885","5"],
    [57490,"HCEP03730563","2025-08-18 06:30:00","10.574","3.34479","24.002","2.566","7.47","0.701","2.991","0.24","0.26","29.8084","4.70117","27.85","0","SATNPRO1964","28.008","0.39232","5"],
    [57491,"HCEP03730563","2025-08-18 06:45:00","10.574","3.34485","24.053","2.553","7.46","0.713","3.154","0.11","0.13","29.809","4.70126","27.71","0","SATNPRO1964","27.87","0.39034","5"],
    [57492,"HCEP03730563","2025-08-18 07:00:00","10.5735","3.34484","24.128","2.526","7.46","0.751","3.018","0.19","0.16","29.8093","4.70132","27.42","0","SATNPRO1964","27.742","0.38862","5"],
    [57493,"HCEP03730563","2025-08-18 07:15:00","10.5735","3.34479","24.247","2.518","7.46","0.765","3.362","0.15","0.2","29.8087","4.70124","27.33","0","SATNPRO1964","27.830000000000002","0.38982","5"],
    [57494,"HCEP03730563","2025-08-18 07:30:00","10.5744","3.34477","24.363","2.546","7.46","0.853","3.004","0.41","0.2","29.8077","4.7011","27.64","0","SATNPRO1964","27.86","0.39022","5"],
    [57495,"HCEP03730563","2025-08-18 07:45:00","10.576","3.3452","24.469","2.563","7.46","0.848","3.778","0.16","0.21","29.8106","4.70148","27.82","0","SATNPRO1964","27.548","0.38586","5"],
    [57496,"HCEP03730563","2025-08-18 08:00:00","10.5816","3.34601","24.596","2.555","7.46","0.819","4.33","0.12","0.3","29.8139","4.70188","27.73","0","SATNPRO1964","27.694","0.3879","5"],
    [57497,"HCEP03730563","2025-08-18 08:15:00","10.5872","3.3466","24.709","2.559","7.46","0.846","4.045","0.18","0.31","29.8152","4.70197","27.79","0","SATNPRO1964","27.76","0.38888","5"],
    [57498,"HCEP03730563","2025-08-18 08:30:00","10.5859","3.34648","24.837","2.565","7.46","0.736","4.487","0.1","0.23","29.8149","4.70197","27.85","0","SATNPRO1964","27.758","0.38882","5"],
    [57499,"HCEP03730563","2025-08-18 08:45:00","10.5997","3.34824","24.978","2.567","7.47","0.806","5.455","0.13","0.43","29.821","4.70261","27.88","0","SATNPRO1964","28.008","0.39228","5"],
    [57500,"HCEP03730563","2025-08-18 09:00:00","10.6173","3.35073","25.103","2.658","7.47","0.69","4.246","0.17","0.28","29.8311","4.70379","28.88","0","SATNPRO1964","28.654","0.40138","5"],
    [57501,"HCEP03730563","2025-08-18 09:15:00","10.6247","3.35182","25.252","2.789","7.48","0.705","4.048","0.08","0.26","29.8358","4.70434","30.31","0","SATNPRO1964","28.733999999999998","0.40242","5"],
    [57502,"HCEP03730563","2025-08-18 09:30:00","10.623","3.35188","25.414","2.861","7.49","0.626","4.05","0.08","0.46","29.8377","4.70465","31.09","0","SATNPRO1964","28.616","0.4008","5"],
    [57503,"HCEP03730563","2025-08-18 09:45:00","10.6243","3.35226","25.608","2.867","7.49","0.644","4.254","0.06","0.3","29.8404","4.70502","31.16","0","SATNPRO1964","28.77","0.40294","5"],
    [57504,"HCEP03730563","2025-08-18 10:00:00","10.6272","3.35263","25.772","2.88","7.49","0.647","4.157","0.07","0.44","29.8416","4.70515","31.3","0","SATNPRO1964","28.854","0.40416","5"],
    [57505,"HCEP03730563","2025-08-18 10:15:00","10.6283","3.35284","25.949","2.902","7.49","0.698","4.529","0.12","0.53","29.8427","4.70531","31.54","0","SATNPRO1964","29.096","0.40752","5"],
    [57506,"HCEP03730563","2025-08-18 10:30:00","10.6302","3.35324","26.139","2.929","7.5","0.617","3.855","0.09","0.53","29.845","4.70561","31.84","0","SATNPRO1964","29.072","0.40722","5"],
    [57507,"HCEP03730563","2025-08-18 10:45:00","10.6312","3.35325","26.322","2.96","7.5","0.646","3.532","0.08","0.24","29.8442","4.7055","32.18","0","SATNPRO1964","28.971999999999998","0.40582","5"],
    [57508,"HCEP03730563","2025-08-18 11:00:00","10.6311","3.35317","26.484","2.976","7.5","0.643","3.489","0.13","0.24","29.8434","4.70539","32.34","0","SATNPRO1964","29.162","0.40848","5"],
    [57509,"HCEP03730563","2025-08-18 11:15:00","10.6307","3.35256","26.643","2.986","7.5","0.648","3.194","0.07","0.23","29.8377","4.70459","32.46","0","SATNPRO1964","28.976","0.40586","5"],
    [57510,"HCEP03730563","2025-08-18 11:30:00","10.6321","3.35305","26.77","2.992","7.5","0.606","3.361","0.11","0.19","29.8413","4.70509","32.53","0","SATNPRO1964","29.178","0.4087","5"],
    [57511,"HCEP03730563","2025-08-18 11:45:00","10.6325","3.35322","26.895","2.991","7.51","0.668","3.68","0.08","0.32","29.8426","4.70528","32.51","0","SATNPRO1964","29.206","0.40906","5"],
    [57512,"HCEP03730563","2025-08-18 12:00:00","10.6326","3.35322","27.008","2.985","7.51","0.664","3.91","0.13","0.6","29.8425","4.70526","32.45","0","SATNPRO1964","29.17","0.40856","5"],
    [57513,"HCEP03730563","2025-08-18 12:15:00","10.6339","3.3533","27.127","2.98","7.51","0.686","3.438","0.2","0.33","29.8421","4.7052","32.39","0","SATNPRO1964","29.26","0.40984","5"],
    [57514,"HCEP03730563","2025-08-18 12:30:00","10.6345","3.3534","27.215","2.977","7.5","0.597","3.511","0.06","0.17","29.8426","4.70527","32.36","0","SATNPRO1964","29.044","0.4068","5"],
    [57515,"HCEP03730563","2025-08-18 12:45:00","10.6357","3.35351","27.286","2.972","7.5","0.657","3.553","0.1","0.24","29.8427","4.70527","32.31","0","SATNPRO1964","29.04","0.40674","5"],
    [57516,"HCEP03730563","2025-08-18 13:00:00","10.6368","3.35356","27.343","2.967","7.5","0.618","3.484","0.07","0.19","29.8423","4.70519","32.26","0","SATNPRO1964","28.99","0.40608","5"],
    [57517,"HCEP03730563","2025-08-18 13:15:00","10.6376","3.3536","27.381","2.967","7.5","0.66","3.552","0.11","0.26","29.842","4.70514","32.25","0","SATNPRO1964","29.034","0.40668","5"],
    [57518,"HCEP03730563","2025-08-18 13:30:00","10.6378","3.35345","27.411","2.969","7.5","0.618","3.428","0.1","0.48","29.8404","4.70491","32.28","0","SATNPRO1964","29.108","0.40768","5"],
    [57519,"HCEP03730563","2025-08-18 13:45:00","10.6381","3.35305","27.449","2.961","7.5","0.599","3.019","0.06","0.16","29.8361","4.7043","32.19","0","SATNPRO1964","29.118","0.4078","5"],
    [57520,"HCEP03730563","2025-08-18 14:00:00","10.6433","3.35343","27.475","2.96","7.5","0.591","2.973","0.09","0.25","29.8357","4.70416","32.19","0","SATNPRO1964","29.038","0.40674","5"],
    [57521,"HCEP03730563","2025-08-18 14:15:00","10.6487","3.35403","27.474","2.982","7.5","0.607","3.027","0.06","0.47","29.8371","4.70428","32.42","0","SATNPRO1964","28.93","0.40524","5"],
    [57522,"HCEP03730563","2025-08-18 14:30:00","10.6473","3.35379","27.488","2.995","7.51","0.605","3.053","0.1","0.22","29.8359","4.70412","32.56","0","SATNPRO1964","29.078","0.40732","5"],
    [57523,"HCEP03730563","2025-08-18 14:45:00","10.6506","3.35447","27.487","2.993","7.51","0.677","3.188","0.15","0.17","29.8399","4.70464","32.55","0","SATNPRO1964","29.072","0.4072","5"],
    [57524,"HCEP03730563","2025-08-18 15:00:00","10.657","3.35501","27.466","3.005","7.51","0.619","3.399","0.09","0.21","29.84","4.70456","32.68","0","SATNPRO1964","29.116","0.40786","5"],
    [57525,"HCEP03730563","2025-08-18 15:15:00","10.6604","3.35528","27.487","3.007","7.51","0.62","3.386","0.1","0.25","29.8399","4.70449","32.71","0","SATNPRO1964","28.998","0.40616","5"],
    [57526,"HCEP03730563","2025-08-18 15:30:00","10.663","3.35532","27.46","3.027","7.51","0.626","3.333","0.12","0.19","29.8382","4.7042","32.92","0","SATNPRO1964","28.982","0.40594","5"],
    [57527,"HCEP03730563","2025-08-18 15:45:00","10.6617","3.35529","27.434","3.032","7.51","0.655","4.023","0.08","0.42","29.839","4.70433","32.97","0","SATNPRO1964","29.116","0.40784","5"],
    [57528,"HCEP03730563","2025-08-18 16:00:00","10.6634","3.35581","27.4","3.004","7.51","0.677","4.71","0.14","1.88","29.8427","4.70483","32.67","0","SATNPRO1964","28.942","0.40534","5"],
    [57529,"HCEP03730563","2025-08-18 16:15:00","10.6722","3.35634","27.366","3.016","7.51","0.61","2.903","0.09","0.13","29.8408","4.70442","32.81","0","SATNPRO1964","29.196","0.40896","5"],
    [57530,"HCEP03730563","2025-08-18 16:30:00","10.6753","3.35664","27.329","3.05","7.51","0.667","3.66","0.16","0.22","29.8412","4.70443","33.19","0","SATNPRO1964","29.16","0.40842","5"],
    [57531,"HCEP03730563","2025-08-18 16:45:00","10.6771","3.35644","27.296","3.056","7.51","0.646","3.147","0.13","0.32","29.8378","4.70391","33.25","0","SATNPRO1964","29.144","0.4082","5"],
    [57532,"HCEP03730563","2025-08-18 17:00:00","10.6766","3.356","27.241","3.066","7.51","0.616","2.629","0.12","0.14","29.8338","4.70336","33.35","0","SATNPRO1964","28.982","0.40594","5"],
    [57533,"HCEP03730563","2025-08-18 17:15:00","10.6733","3.35592","27.191","3.056","7.51","0.684","3.549","0.11","0.18","29.8357","4.70368","33.25","0","SATNPRO1964","28.994","0.40614","5"],
    [57534,"HCEP03730563","2025-08-18 17:30:00","10.6732","3.35593","27.156","3.037","7.51","0.636","2.888","0.11","0.17","29.836","4.70371","33.04","0","SATNPRO1964","28.945999999999998","0.40544","5"],
    [57535,"HCEP03730563","2025-08-18 17:45:00","10.6719","3.35566","27.099","3.035","7.51","0.773","3.845","0.27","0.38","29.8344","4.7035","33.02","0","SATNPRO1964","29.096","0.40752","5"],
    [57536,"HCEP03730563","2025-08-18 18:00:00","10.6709","3.35622","27.041","3.001","7.51","0.71","4.001","0.19","0.5","29.8409","4.70443","32.65","0","SATNPRO1964","28.892","0.40468","5"],
    [57537,"HCEP03730563","2025-08-18 18:15:00","10.6739","3.35619","26.974","2.984","7.51","0.622","3.419","0.08","0.24","29.8381","4.70399","32.46","0","SATNPRO1964","29.04","0.40676","5"],
    [57538,"HCEP03730563","2025-08-18 18:30:00","10.6702","3.35547","26.934","3.013","7.51","0.612","2.68","0.17","0.39","29.834","4.70346","32.78","0","SATNPRO1964","28.919999999999998","0.40508","5"],
    [57539,"HCEP03730563","2025-08-18 18:45:00","10.6633","3.35485","26.919","3.003","7.51","0.663","2.621","0.33","0.24","29.8336","4.70351","32.66","0","SATNPRO1964","28.754","0.40276","5"],
    [57540,"HCEP03730563","2025-08-18 19:00:00","10.6646","3.35489","26.885","2.986","7.51","0.559","2.501","0.1","0.22","29.8329","4.70339","32.48","0","SATNPRO1964","29.392","0.4117","5"],
    [57541,"HCEP03730563","2025-08-18 19:15:00","10.6653","3.35483","26.869","2.989","7.51","0.627","2.43","0.22","0.22","29.8317","4.7032","32.52","0","SATNPRO1964","28.656","0.40138","5"],
    [57542,"HCEP03730563","2025-08-18 19:30:00","10.66","3.35415","26.877","2.977","7.51","0.568","2.339","0.1","0.14","29.8294","4.70296","32.38","0","SATNPRO1964","28.808","0.40356","5"],
    [57543,"HCEP03730563","2025-08-18 19:45:00","10.653","3.35318","26.871","2.937","7.5","0.564","2.36","0.18","0.19","29.8255","4.70252","31.93","0","SATNPRO1964","28.692","0.4019","5"],
    [57544,"HCEP03730563","2025-08-18 20:00:00","10.6526","3.35313","26.892","2.905","7.5","0.585","2.347","0.18","0.26","29.8253","4.7025","31.59","0","SATNPRO1964","28.428","0.3982","5"],
    [57545,"HCEP03730563","2025-08-18 20:15:00","10.6495","3.3528","26.91","2.887","7.5","0.569","2.251","0.09","0.09","29.8246","4.70244","31.39","0","SATNPRO1964","28.848","0.40412","5"],
    [57546,"HCEP03730563","2025-08-18 20:30:00","10.6483","3.35311","26.932","2.879","7.5","0.557","2.343","0.13","0.18","29.8287","4.70305","31.31","0","SATNPRO1964","28.442","0.3984","5"],
    [57547,"HCEP03730563","2025-08-18 20:45:00","10.651","3.35332","26.955","2.892","7.5","0.561","2.295","0.06","0.08","29.8285","4.70298","31.45","0","SATNPRO1964","28.726","0.40234","5"],
    [57548,"HCEP03730563","2025-08-18 21:00:00","10.6539","3.35385","26.982","2.897","7.5","0.728","2.746","0.54","0.24","29.8313","4.70333","31.51","0","SATNPRO1964","28.718","0.40224","5"],
    [57549,"HCEP03730563","2025-08-18 21:15:00","10.657","3.35454","27.019","2.89","7.5","0.601","3.011","0.07","0.17","29.8356","4.7039","31.43","0","SATNPRO1964","28.59","0.40046","5"],
    [57550,"HCEP03730563","2025-08-18 21:30:00","10.6501","3.35366","27.055","2.862","7.5","0.676","3.152","0.29","0.16","29.8325","4.70357","31.13","0","SATNPRO1964","28.436","0.39832","5"],
    [57551,"HCEP03730563","2025-08-18 21:45:00","10.6413","3.3525","27.092","2.82","7.49","0.586","2.935","0.1","0.17","29.8283","4.70311","30.66","0","SATNPRO1964","28.384","0.39758","5"],
    [57552,"HCEP03730563","2025-08-18 22:00:00","10.6343","3.35155","27.129","2.77","7.49","0.537","2.893","0.06","0.16","29.8246","4.7027","30.11","0","SATNPRO1964","28.336","0.39694","5"],
    [57553,"HCEP03730563","2025-08-18 22:15:00","10.6189","3.34936","27.162","2.677","7.48","0.767","3.578","0.69","0.75","29.8155","4.70166","29.09","0","SATNPRO1964","27.82","0.38966","5"],
    [57554,"HCEP03730563","2025-08-18 22:30:00","10.6188","3.34913","27.188","2.567","7.47","0.645","4.095","0.08","0.31","29.8133","4.70135","27.9","0","SATNPRO1964","27.442","0.38438","5"],
    [57555,"HCEP03730563","2025-08-18 22:45:00","10.6206","3.34874","27.222","2.488","7.47","0.726","4.728","0.12","0.58","29.808","4.70056","27.04","0","SATNPRO1964","27.18","0.38068","5"],
    [57556,"HCEP03730563","2025-08-18 23:00:00","10.6248","3.34871","27.244","2.433","7.46","0.71","4.888","0.07","0.29","29.8043","4.69997","26.44","0","SATNPRO1964","27.038","0.3787","5"],
    [57557,"HCEP03730563","2025-08-18 23:15:00","10.6237","3.34877","27.275","2.398","7.46","0.789","5.288","0.28","0.45","29.8057","4.70019","26.06","0","SATNPRO1964","27.032","0.37864","5"],
    [57558,"HCEP03730563","2025-08-18 23:30:00","10.6235","3.34817","27.289","2.367","7.45","0.717","5.159","0.05","0.23","29.8001","4.69939","25.72","0","SATNPRO1964","26.854","0.37612","5"],
    [57559,"HCEP03730563","2025-08-18 23:45:00","10.6263","3.34769","27.301","2.337","7.45","0.723","4.698","0.07","0.18","29.7931","4.69835","25.39","0","SATNPRO1964","26.669999999999998","0.37356","5"],
    [57560,"HCEP03730563","2025-08-19 00:00:00","10.6291","3.34745","27.296","2.311","7.45","0.748","4.672","0.12","0.51","29.7884","4.69764","25.11","0","SATNPRO1964","26.454","0.37052","5"],
    [57561,"HCEP03730563","2025-08-19 00:15:00","10.6341","3.34721","27.277","2.283","7.44","0.773","4.463","0.08","0.26","29.7819","4.69663","24.81","0","SATNPRO1964","26.328","0.36876","5"],
    [57562,"HCEP03730563","2025-08-19 00:30:00","10.6396","3.34681","27.251","2.28","7.44","0.767","4.089","0.14","0.32","29.7735","4.69536","24.78","0","SATNPRO1964","26.218","0.36722","5"],
    [57563,"HCEP03730563","2025-08-19 00:45:00","10.6456","3.34688","27.226","2.295","7.44","0.805","4.064","0.21","0.35","29.7693","4.69466","24.94","0","SATNPRO1964","26.324","0.3687","5"],
    [57564,"HCEP03730563","2025-08-19 01:00:00","10.645","3.34702","27.185","2.298","7.44","1.798","38.274","1.52","20.63","29.7712","4.69494","24.97","0","SATNPRO1964","26.232","0.36744","5"],
    [57565,"HCEP03730563","2025-08-19 01:15:00","10.6388","3.34705","27.122","2.28","7.44","2.084","19.752","3.01","28.86","29.7765","4.69579","24.78","0","SATNPRO1964","26.25","0.36768","5"],
    [57566,"HCEP03730563","2025-08-19 01:30:00","10.6402","3.34722","27.057","2.268","7.44","0.734","4.272","0.08","0.3","29.7771","4.69585","24.64","0","SATNPRO1964","26.34","0.36896","5"],
    [57567,"HCEP03730563","2025-08-19 01:45:00","10.6434","3.34741","26.983","2.303","7.44","0.804","3.991","0.07","0.35","29.7765","4.6957","25.02","0","SATNPRO1964","26.498","0.37114","5"],
    [57568,"HCEP03730563","2025-08-19 02:00:00","10.6432","3.34752","26.893","2.336","7.44","0.79","4.23","0.11","0.71","29.7777","4.69588","25.39","0","SATNPRO1964","26.631999999999998","0.37302","5"],
    [57569,"HCEP03730563","2025-08-19 02:15:00","10.643","3.34758","26.799","2.355","7.44","0.857","3.787","0.24","0.31","29.7785","4.69599","25.6","0","SATNPRO1964","26.616","0.37278","5"],
    [57570,"HCEP03730563","2025-08-19 02:30:00","10.6412","3.34748","26.653","2.353","7.44","0.822","3.803","0.18","0.28","29.7791","4.69609","25.58","0","SATNPRO1964","26.668","0.37354","5"],
    [57571,"HCEP03730563","2025-08-19 02:45:00","10.6403","3.34745","26.514","2.348","7.44","0.922","3.738","0.44","0.22","29.7796","4.69617","25.52","0","SATNPRO1964","26.654","0.37336","5"],
    [57572,"HCEP03730563","2025-08-19 03:00:00","10.633","3.34704","26.346","2.344","7.44","0.741","3.766","0.08","0.47","29.7815","4.69654","25.47","0","SATNPRO1964","26.586","0.37232","5"],
    [57573,"HCEP03730563","2025-08-19 03:15:00","10.6329","3.34712","26.188","2.332","7.44","0.746","3.658","0.11","0.34","29.7824","4.69666","25.34","0","SATNPRO1964","26.74","0.37456","5"],
    [57574,"HCEP03730563","2025-08-19 03:30:00","10.6304","3.347","25.993","2.327","7.44","0.775","3.538","0.18","0.2","29.7833","4.69683","25.29","0","SATNPRO1964","26.652","0.37334","5"],
    [57575,"HCEP03730563","2025-08-19 03:45:00","10.6292","3.34696","25.815","2.321","7.44","0.86","3.54","0.28","0.28","29.784","4.69693","25.22","0","SATNPRO1964","26.972","0.37778","5"],
    [57576,"HCEP03730563","2025-08-19 04:00:00","10.6305","3.347","25.611","2.33","7.44","0.711","3.344","0.1","0.3","29.7835","4.69683","25.32","0","SATNPRO1964","26.936","0.3773","5"],
    [57577,"HCEP03730563","2025-08-19 04:15:00","10.6286","3.34693","25.409","2.345","7.44","0.896","3.173","0.35","0.46","29.7844","4.69697","25.48","0","SATNPRO1964","26.744","0.3746","5"],
    [57578,"HCEP03730563","2025-08-19 04:30:00","10.6346","3.34727","25.198","2.375","7.45","0.779","2.838","0.2","0.15","29.7829","4.69665","25.81","0","SATNPRO1964","26.992","0.37804","5"],
    [57579,"HCEP03730563","2025-08-19 04:45:00","10.6383","3.34744","24.984","2.412","7.45","0.725","2.884","0.11","0.24","29.7817","4.69641","26.22","0","SATNPRO1964","27.08","0.3793","5"],
    [57580,"HCEP03730563","2025-08-19 05:00:00","10.6232","3.3466","24.791","2.39","7.45","0.699","3.658","0.12","0.47","29.7858","4.69723","25.97","0","SATNPRO1964","26.844","0.376","5"],
    [57581,"HCEP03730563","2025-08-19 05:15:00","10.6212","3.34652","24.576","2.317","7.44","0.717","3.527","0.09","0.18","29.7867","4.69738","25.17","0","SATNPRO1964","26.604","0.37262","5"],
    [57582,"HCEP03730563","2025-08-19 05:30:00","10.6181","3.34668","24.401","2.273","7.44","0.69","3.374","0.13","0.18","29.7909","4.69801","24.7","0","SATNPRO1964","26.624","0.3729","5"],
    [57583,"HCEP03730563","2025-08-19 05:45:00","10.6164","3.34671","24.249","2.262","7.44","0.682","3.514","0.07","0.14","29.7926","4.69827","24.57","0","SATNPRO1964","26.604","0.37268","5"],
    [57584,"HCEP03730563","2025-08-19 06:00:00","10.6153","3.34684","24.103","2.269","7.44","0.686","3.412","0.09","0.2","29.7948","4.69859","24.65","0","SATNPRO1964","26.718","0.37424","5"],
    [57585,"HCEP03730563","2025-08-19 06:15:00","10.6162","3.34702","24.002","2.272","7.44","0.937","4.306","0.38","1.19","29.7959","4.69873","24.68","0","SATNPRO1964","26.604","0.37266","5"],
    [57586,"HCEP03730563","2025-08-19 06:30:00","10.6164","3.34694","23.922","2.282","7.44","0.712","3.3","0.22","0.16","29.7951","4.6986","24.78","0","SATNPRO1964","26.954","0.37756","5"],
    [57587,"HCEP03730563","2025-08-19 06:45:00","10.6169","3.34706","23.883","2.276","7.44","0.666","3.271","0.11","0.18","29.7958","4.69869","24.72","0","SATNPRO1964","26.998","0.3781","5"],
    [57588,"HCEP03730563","2025-08-19 07:00:00","10.6176","3.34703","23.881","2.26","7.44","0.885","3.153","0.34","0.08","29.7949","4.69856","24.55","0","SATNPRO1964","26.785999999999998","0.3752","5"],
    [57589,"HCEP03730563","2025-08-19 07:15:00","10.6177","3.34707","23.86","2.241","7.44","0.75","3.782","0.11","0.21","29.7952","4.6986","24.35","0","SATNPRO1964","26.06","0.36502","5"],
    [57590,"HCEP03730563","2025-08-19 07:30:00","10.618","3.34699","23.875","2.211","7.43","0.701","4.207","0.1","0.32","29.7943","4.69846","24.02","0","SATNPRO1964","26.344","0.36898","5"],
    [57591,"HCEP03730563","2025-08-19 07:45:00","10.6195","3.34683","23.89","2.188","7.43","0.715","3.904","0.22","0.17","29.7914","4.69803","23.77","0","SATNPRO1964","26.541999999999998","0.37176","5"],
    [57592,"HCEP03730563","2025-08-19 08:00:00","10.6203","3.34663","23.922","2.203","7.43","0.663","3.562","0.09","0.31","29.7887","4.69764","23.93","0","SATNPRO1964","26.636","0.37306","5"],
    [57593,"HCEP03730563","2025-08-19 08:15:00","10.6234","3.3467","24.002","2.233","7.43","0.696","3.18","0.14","0.24","29.7869","4.69733","24.26","0","SATNPRO1964","26.387999999999998","0.3696","5"],
    [57594,"HCEP03730563","2025-08-19 08:30:00","10.6258","3.34671","24.084","2.261","7.44","0.91","14.888","0.23","8.19","29.785","4.69703","24.57","0","SATNPRO1964","26.44","0.37034","5"],
    [57595,"HCEP03730563","2025-08-19 08:45:00","10.6269","3.34689","24.22","2.254","7.44","0.648","3.069","0.04","0.25","29.7859","4.69715","24.49","0","SATNPRO1964","26.648","0.37326","5"],
    [57596,"HCEP03730563","2025-08-19 09:00:00","10.6287","3.34698","24.395","2.238","7.43","0.69","3.859","0.09","0.26","29.7852","4.69703","24.32","0","SATNPRO1964","26.568","0.37212","5"],
    [57597,"HCEP03730563","2025-08-19 09:15:00","10.6255","3.34669","24.524","2.255","7.44","0.752","2.865","0.24","0.29","29.7849","4.69704","24.5","0","SATNPRO1964","26.64","0.37316","5"],
    [57598,"HCEP03730563","2025-08-19 09:30:00","10.6291","3.34689","24.727","2.277","7.44","0.617","2.687","0.05","0.15","29.7838","4.69684","24.74","0","SATNPRO1964","26.702","0.374","5"],
    [57599,"HCEP03730563","2025-08-19 09:45:00","10.6277","3.34678","24.843","2.296","7.44","0.68","2.679","0.12","0.13","29.7838","4.69687","24.95","0","SATNPRO1964","26.626","0.37292","5"],
    [57600,"HCEP03730563","2025-08-19 10:00:00","10.6282","3.3468","24.991","2.303","7.44","0.576","2.624","0.06","0.11","29.7836","4.69684","25.02","0","SATNPRO1964","26.63","0.373","5"],
    [57601,"HCEP03730563","2025-08-19 10:15:00","10.6269","3.34699","25.175","2.287","7.44","0.668","4.03","0.06","0.37","29.7864","4.69728","24.84","0","SATNPRO1964","26.148","0.36626","5"],
    [57602,"HCEP03730563","2025-08-19 10:30:00","10.6223","3.34758","25.373","2.258","7.44","0.629","3.895","0.11","0.44","29.796","4.69872","24.53","0","SATNPRO1964","26.678","0.37372","5"],
    [57603,"HCEP03730563","2025-08-19 10:45:00","10.6168","3.34817","25.582","2.247","7.44","0.667","4.856","0.06","0.24","29.8061","4.70027","24.41","0","SATNPRO1964","26.634","0.37304","5"],
    [57604,"HCEP03730563","2025-08-19 11:00:00","10.6171","3.34899","25.785","2.215","7.43","0.606","5.115","0.08","0.16","29.8139","4.70138","24.06","0","SATNPRO1964","26.606","0.37266","5"],
    [57605,"HCEP03730563","2025-08-19 11:15:00","10.6212","3.35003","25.995","2.23","7.43","0.611","4.864","0.06","0.22","29.8208","4.70231","24.23","0","SATNPRO1964","26.826","0.37574","5"],
    [57606,"HCEP03730563","2025-08-19 11:30:00","10.6217","3.34999","26.191","2.29","7.44","0.612","4.818","0.1","0.29","29.8199","4.70218","24.88","0","SATNPRO1964","27.204","0.38104","5"],
    [57607,"HCEP03730563","2025-08-19 11:45:00","10.6236","3.35029","26.383","2.312","7.44","0.576","4.702","0.04","0.26","29.8212","4.70235","25.12","0","SATNPRO1964","27.312","0.38258","5"],
    [57608,"HCEP03730563","2025-08-19 12:00:00","10.6254","3.35065","26.558","2.315","7.44","0.593","5.38","0.05","0.4","29.8232","4.70261","25.16","0","SATNPRO1964","27.264","0.38186","5"],
    [57609,"HCEP03730563","2025-08-19 12:15:00","10.6306","3.35129","26.72","2.357","7.44","0.606","4.518","0.13","0.23","29.8252","4.70282","25.62","0","SATNPRO1964","27.602","0.38662","5"],
    [57610,"HCEP03730563","2025-08-19 12:30:00","10.6308","3.35138","26.88","2.402","7.45","0.591","5.037","0.08","0.29","29.8259","4.70293","26.11","0","SATNPRO1964","27.376","0.38346","5"],
    [57611,"HCEP03730563","2025-08-19 12:45:00","10.6347","3.3518","27.018","2.434","7.45","0.595","4.379","0.07","0.2","29.8268","4.70301","26.46","0","SATNPRO1964","27.754","0.38876","5"],
    [57612,"HCEP03730563","2025-08-19 13:00:00","10.6412","3.35231","27.149","2.489","7.45","0.552","3.536","0.13","0.23","29.8265","4.70287","27.06","0","SATNPRO1964","28.03","0.39258","5"],
    [57613,"HCEP03730563","2025-08-19 13:15:00","10.6506","3.3528","27.278","2.595","7.46","0.616","4.157","0.24","0.6","29.8235","4.7023","28.21","0","SATNPRO1964","27.926000000000002","0.39116","5"],
    [57614,"HCEP03730563","2025-08-19 13:30:00","10.6399","3.35221","27.37","2.584","7.46","0.558","4.143","0.07","0.29","29.8265","4.7029","28.09","0","SATNPRO1964","27.812","0.38956","5"],
    [57615,"HCEP03730563","2025-08-19 13:45:00","10.6389","3.35189","27.473","2.518","7.46","0.615","4.505","0.08","0.27","29.8241","4.70258","27.37","0","SATNPRO1964","27.66","0.38742","5"],
    [57616,"HCEP03730563","2025-08-19 14:00:00","10.6379","3.35148","27.528","2.483","7.46","0.555","4.447","0.05","0.28","29.8208","4.70212","26.99","0","SATNPRO1964","27.574","0.38622","5"],
    [57617,"HCEP03730563","2025-08-19 14:15:00","10.6367","3.35097","27.579","2.462","7.46","0.601","4.559","0.06","0.24","29.8168","4.70158","26.76","0","SATNPRO1964","27.352","0.38312","5"],
    [57618,"HCEP03730563","2025-08-19 14:30:00","10.6367","3.3514","27.599","2.437","7.45","0.609","4.95","0.09","0.23","29.821","4.70217","26.49","0","SATNPRO1964","27.488","0.38502","5"],
    [57619,"HCEP03730563","2025-08-19 14:45:00","10.6424","3.35196","27.619","2.437","7.45","0.585","4.775","0.04","0.84","29.8218","4.7022","26.5","0","SATNPRO1964","27.544","0.38578","5"],
    [57620,"HCEP03730563","2025-08-19 15:00:00","10.6486","3.35231","27.63","2.449","7.45","0.612","4.742","0.1","0.33","29.8203","4.70189","26.62","0","SATNPRO1964","27.42","0.38402","5"],
    [57621,"HCEP03730563","2025-08-19 15:15:00","10.6611","3.3523","27.639","2.478","7.46","0.626","4.2","0.18","0.31","29.8099","4.70022","26.95","0","SATNPRO1964","27.483999999999998","0.38498","5"],
    [57622,"HCEP03730563","2025-08-19 15:30:00","10.6637","3.35244","27.654","2.527","7.46","0.581","4.336","0.08","0.26","29.8092","4.70007","27.48","0","SATNPRO1964","27.396","0.38376","5"],
    [57623,"HCEP03730563","2025-08-19 15:45:00","10.666","3.35301","27.63","2.539","7.46","0.585","4.141","0.06","0.2","29.8129","4.70057","27.61","0","SATNPRO1964","27.482","0.38496","5"],
    [57624,"HCEP03730563","2025-08-19 16:00:00","10.6684","3.35327","27.625","2.534","7.46","0.539","3.742","0.07","0.13","29.8135","4.70062","27.56","0","SATNPRO1964","27.354","0.38314","5"],
    [57625,"HCEP03730563","2025-08-19 16:15:00","10.6707","3.35321","27.623","2.545","7.46","0.568","3.524","0.06","0.19","29.811","4.70023","27.68","0","SATNPRO1964","27.426","0.38418","5"],
    [57626,"HCEP03730563","2025-08-19 16:30:00","10.6706","3.35254","27.613","2.564","7.46","0.545","3.402","0.07","0.14","29.8046","4.69931","27.89","0","SATNPRO1964","27.482","0.38494","5"],
    [57627,"HCEP03730563","2025-08-19 16:45:00","10.6698","3.35228","27.599","2.569","7.46","0.548","3.264","0.05","0.2","29.8026","4.69904","27.95","0","SATNPRO1964","27.448","0.38446","5"],
    [57628,"HCEP03730563","2025-08-19 17:00:00","10.7086","3.34784","27.56","2.498","7.46","0.545","2.378","0.06","0.17","29.7273","4.68772","27.18","0","SATNPRO1964","26.122","0.36586","5"],
    [57629,"HCEP03730563","2025-08-19 17:15:00","10.7242","3.34772","27.488","2.424","7.45","0.613","1.773","0.09","0.3","29.7135","4.6855","26.38","0","SATNPRO1964","26.056","0.365","5"],
    [57630,"HCEP03730563","2025-08-19 17:30:00","10.7364","3.34805","27.43","2.45","7.45","0.626","2.437","0.07","0.32","29.7069","4.68437","26.66","0","SATNPRO1964","25.89","0.36262","5"],
    [57631,"HCEP03730563","2025-08-19 17:45:00","10.873","3.35454","27.341","2.579","7.46","0.699","1.85","0.1","0.65","29.66","4.67558","28.14","0","SATNPRO1964","25.822","0.3617","5"],
    [57632,"HCEP03730563","2025-08-19 18:00:00","10.8813","3.35491","27.274","2.807","7.47","0.662","1.767","0.08","0.83","29.6569","4.67501","30.64","0","SATNPRO1964","25.688","0.3598","5"],
    [57633,"HCEP03730563","2025-08-19 18:15:00","10.675","3.35104","27.235","2.618","7.47","0.706","5.361","0.12","0.19","29.7863","4.69661","28.48","0","SATNPRO1964","25.986","0.36398","5"],
    [57634,"HCEP03730563","2025-08-19 18:30:00","10.6826","3.35072","27.16","2.321","7.45","0.623","4.759","0.07","0.15","29.777","4.69517","25.25","0","SATNPRO1964","26.188","0.36682","5"],
    [57635,"HCEP03730563","2025-08-19 18:45:00","10.6656","3.35264","27.089","2.301","7.45","0.611","5.047","0.06","0.71","29.8098","4.7001","25.02","0","SATNPRO1964","27.068","0.37912","5"],
    [57636,"HCEP03730563","2025-08-19 19:00:00","10.668","3.35337","27.043","2.369","7.45","0.552","4.846","0.05","0.26","29.8151","4.70082","25.77","0","SATNPRO1964","26.854","0.37612","5"],
    [57637,"HCEP03730563","2025-08-19 19:15:00","10.6676","3.35277","26.985","2.351","7.45","0.58","4.88","0.04","0.2","29.8096","4.70003","25.57","0","SATNPRO1964","26.894000000000002","0.37668","5"],
    [57638,"HCEP03730563","2025-08-19 19:30:00","10.6646","3.35226","26.903","2.344","7.45","0.572","5.142","0.06","0.44","29.807","4.69971","25.49","0","SATNPRO1964","26.856","0.37618","5"],
    [57639,"HCEP03730563","2025-08-19 19:45:00","10.6632","3.35198","26.867","2.343","7.45","0.565","5.056","0.04","0.23","29.8054","4.69949","25.48","0","SATNPRO1964","26.764","0.37488","5"],
    [57640,"HCEP03730563","2025-08-19 20:00:00","10.6631","3.35239","26.823","2.321","7.44","0.574","6.362","0.04","0.21","29.8095","4.70009","25.25","0","SATNPRO1964","26.626","0.37292","5"],
    [57641,"HCEP03730563","2025-08-19 20:15:00","10.6634","3.35258","26.801","2.268","7.44","0.586","6.237","0.05","0.19","29.8111","4.70031","24.67","0","SATNPRO1964","26.49","0.37106","5"],
    [57642,"HCEP03730563","2025-08-19 20:30:00","10.6623","3.35229","26.765","2.241","7.44","0.545","5.949","0.04","0.35","29.8092","4.70006","24.37","0","SATNPRO1964","26.518","0.37146","5"],
    [57643,"HCEP03730563","2025-08-19 20:45:00","10.6586","3.35114","26.778","2.279","7.44","0.544","4.414","0.12","0.45","29.8009","4.69892","24.78","0","SATNPRO1964","26.816","0.37562","5"],
    [57644,"HCEP03730563","2025-08-19 21:00:00","10.6611","3.35155","26.77","2.325","7.44","0.54","5.234","0.05","0.16","29.8029","4.69917","25.28","0","SATNPRO1964","26.62","0.3729","5"],
    [57645,"HCEP03730563","2025-08-19 21:15:00","10.6591","3.35024","26.798","2.355","7.44","0.507","3.977","0.05","0.16","29.7915","4.69759","25.61","0","SATNPRO1964","26.983999999999998","0.37798","5"],
    [57646,"HCEP03730563","2025-08-19 21:30:00","10.6567","3.35022","26.823","2.385","7.45","0.455","3.146","0.03","0.16","29.7933","4.69788","25.93","0","SATNPRO1964","27.12","0.37986","5"],
    [57647,"HCEP03730563","2025-08-19 21:45:00","10.6563","3.35013","26.836","2.397","7.45","0.495","3.09","0.07","0.14","29.7928","4.69781","26.07","0","SATNPRO1964","27.232","0.38144","5"],
    [57648,"HCEP03730563","2025-08-19 22:00:00","10.6564","3.35026","26.888","2.39","7.45","0.474","3.828","0.05","0.18","29.7939","4.69797","25.99","0","SATNPRO1964","27.105999999999998","0.37968","5"],
    [57649,"HCEP03730563","2025-08-19 22:15:00","10.6589","3.35098","26.96","2.364","7.45","0.509","3.957","0.05","0.14","29.7989","4.69865","25.7","0","SATNPRO1964","26.753999999999998","0.37472","5"],
    [57650,"HCEP03730563","2025-08-19 22:30:00","10.6566","3.3504","26.944","2.353","7.45","0.442","3.109","0.02","0.16","29.7951","4.69815","25.59","0","SATNPRO1964","26.802","0.37544","5"],
    [57651,"HCEP03730563","2025-08-19 22:45:00","10.6563","3.34989","26.996","2.386","7.45","7.158","69.711","2.75","22.05","29.7903","4.69747","25.95","0","SATNPRO1964","26.974","0.3778","5"],
    [57652,"HCEP03730563","2025-08-19 23:00:00","10.651","3.34856","27.063","2.394","7.45","0.479","4.78","0.09","7.23","29.7815","4.6963","26.02","0","SATNPRO1964","27.032","0.37862","5"],
    [57653,"HCEP03730563","2025-08-19 23:15:00","10.6538","3.34915","27.11","2.394","7.45","0.457","2.154","0.05","0.2","29.785","4.69676","26.02","0","SATNPRO1964","26.95","0.37746","5"],
    [57654,"HCEP03730563","2025-08-19 23:30:00","10.6547","3.34946","27.18","2.399","7.45","0.454","2.362","0.05","0.22","29.7874","4.69709","26.08","0","SATNPRO1964","26.98","0.37788","5"],
    [57655,"HCEP03730563","2025-08-19 23:45:00","10.6611","3.35143","27.199","2.364","7.45","0.521","4.148","0.05","0.3","29.8015","4.69899","25.7","0","SATNPRO1964","26.698","0.37396","5"],
    [57656,"HCEP03730563","2025-08-20 00:00:00","10.662","3.35235","27.247","2.286","7.44","0.574","9.795","0.05","3.63","29.8098","4.70017","24.86","0","SATNPRO1964","26.326","0.36876","5"],
    [57657,"HCEP03730563","2025-08-20 00:15:00","10.6689","3.35139","27.29","2.257","7.44","0.644","9.496","0.09","4.13","29.7947","4.69792","24.55","0","SATNPRO1964","26.656","0.37338","5"],
    [57658,"HCEP03730563","2025-08-20 00:30:00","10.6967","3.35107","27.326","2.319","7.44","0.531","9.844","0.08","3.38","29.769","4.69381","25.23","0","SATNPRO1964","26.624","0.3729","5"],
    [57659,"HCEP03730563","2025-08-20 00:45:00","10.6965","3.35135","27.354","2.368","7.44","0.58","6.352","0.06","4.23","29.7718","4.69422","25.76","0","SATNPRO1964","26.54","0.37174","5"],
    [57660,"HCEP03730563","2025-08-20 01:00:00","10.6921","3.35201","27.364","2.343","7.44","0.593","11.824","0.09","4.74","29.7819","4.69573","25.5","0","SATNPRO1964","26.198","0.36694","5"],
    [57661,"HCEP03730563","2025-08-20 01:15:00","10.688","3.35196","27.373","2.276","7.44","0.606","6.386","0.04","2.83","29.7847","4.69619","24.77","0","SATNPRO1964","26.224","0.3673","5"],
    [57662,"HCEP03730563","2025-08-20 01:30:00","10.6826","3.35149","27.357","2.249","7.44","0.609","11.979","0.06","3.52","29.7846","4.69626","24.47","0","SATNPRO1964","26.336","0.36888","5"],
    [57663,"HCEP03730563","2025-08-20 01:45:00","10.6787","3.35136","27.346","2.243","7.44","0.707","5.704","0.06","1.56","29.7864","4.69658","24.39","0","SATNPRO1964","26.262","0.36784","5"],
    [57664,"HCEP03730563","2025-08-20 02:00:00","10.6742","3.35105","27.298","2.221","7.43","0.645","9.298","0.1","5.36","29.787","4.69674","24.16","0","SATNPRO1964","26.216","0.3672","5"],
    [57665,"HCEP03730563","2025-08-20 02:15:00","10.6714","3.35079","27.249","2.213","7.43","0.62","6.152","0.04","2.7","29.7868","4.69675","24.07","0","SATNPRO1964","26.154","0.36632","5"],
    [57666,"HCEP03730563","2025-08-20 02:30:00","10.6656","3.35032","27.191","2.197","7.43","0.607","7.998","0.05","3.33","29.787","4.69686","23.89","0","SATNPRO1964","26.112","0.36574","5"],
    [57667,"HCEP03730563","2025-08-20 02:45:00","10.6665","3.35035","27.149","2.183","7.43","0.632","5.549","0.05","1.82","29.7865","4.69678","23.74","0","SATNPRO1964","26.216","0.36718","5"],
    [57668,"HCEP03730563","2025-08-20 03:00:00","10.6691","3.35032","27.041","2.187","7.43","0.627","7.522","0.06","2.17","29.7841","4.69638","23.79","0","SATNPRO1964","26.03","0.3646","5"],
    [57669,"HCEP03730563","2025-08-20 03:15:00","10.6745","3.3505","26.918","2.165","7.43","0.683","5.899","0.08","1.96","29.7815","4.69593","23.54","0","SATNPRO1964","25.804","0.36144","5"],
    [57670,"HCEP03730563","2025-08-20 03:30:00","10.6748","3.35047","26.811","2.144","7.43","0.661","6.097","0.04","1.31","29.781","4.69585","23.32","0","SATNPRO1964","25.714","0.36018","5"],
    [57671,"HCEP03730563","2025-08-20 03:45:00","10.676","3.35067","26.666","2.142","7.43","0.687","4.612","0.07","1.15","29.7821","4.69597","23.3","0","SATNPRO1964","25.968","0.36376","5"],
    [57672,"HCEP03730563","2025-08-20 04:00:00","10.6837","3.35126","26.528","2.173","7.43","0.674","14.601","0.07","1.75","29.7817","4.69579","23.63","0","SATNPRO1964","26.002","0.36422","5"],
    [57673,"HCEP03730563","2025-08-20 04:15:00","10.6963","3.35251","26.326","2.23","7.43","0.714","4.987","0.1","1.13","29.7839","4.69589","24.26","0","SATNPRO1964","26.378","0.36948","5"],
    [57674,"HCEP03730563","2025-08-20 04:30:00","10.7095","3.35369","26.145","2.324","7.44","0.734","10.485","0.05","3.24","29.7848","4.69579","25.3","0","SATNPRO1964","26.54","0.37174","5"],
    [57675,"HCEP03730563","2025-08-20 04:45:00","10.7254","3.35552","25.94","2.432","7.45","0.722","4.176","0.06","0.13","29.7899","4.69627","26.48","0","SATNPRO1964","27.032","0.37862","5"],
    [57676,"HCEP03730563","2025-08-20 05:00:00","10.7266","3.3558","25.722","2.54","7.45","0.717","4.489","0.05","0.14","29.7918","4.69651","27.65","0","SATNPRO1964","27.002","0.37822","5"],
    [57677,"HCEP03730563","2025-08-20 05:15:00","10.7229","3.35548","25.518","2.55","7.46","0.754","4.878","0.08","0.62","29.7917","4.69653","27.76","0","SATNPRO1964","26.906","0.37682","5"],
    [57678,"HCEP03730563","2025-08-20 05:30:00","10.7039","3.35368","25.324","2.48","7.46","0.75","5.71","0.07","0.2","29.7895","4.69651","26.99","0","SATNPRO1964","26.208","0.3671","5"],
    [57679,"HCEP03730563","2025-08-20 05:45:00","10.6774","3.35159","25.137","2.309","7.45","0.742","4.821","0.17","0.3","29.7906","4.69708","25.11","0","SATNPRO1964","26.532","0.37164","5"],
    [57680,"HCEP03730563","2025-08-20 06:00:00","10.7039","3.35421","24.95","2.327","7.44","0.723","4.476","0.11","0.21","29.7949","4.69726","25.32","0","SATNPRO1964","26.38","0.36948","5"],
    [57681,"HCEP03730563","2025-08-20 06:15:00","10.6726","3.35125","24.751","2.355","7.45","0.704","4.161","0.1","0.18","29.7913","4.69723","25.62","0","SATNPRO1964","26.216","0.36722","5"],
    [57682,"HCEP03730563","2025-08-20 06:30:00","10.6558","3.34981","24.564","2.196","7.44","0.642","3.645","0.08","0.26","29.7909","4.69742","23.88","0","SATNPRO1964","26.168","0.36654","5"],
    [57683,"HCEP03730563","2025-08-20 06:45:00","10.6359","3.34881","24.407","2.113","7.43","0.643","4.133","0.07","0.24","29.7974","4.69865","22.97","0","SATNPRO1964","26.246","0.36762","5"],
    [57684,"HCEP03730563","2025-08-20 07:00:00","10.6381","3.34921","24.239","2.118","7.43","0.591","3.688","0.05","0.18","29.7996","4.69892","23.02","0","SATNPRO1964","26.482","0.37094","5"],
    [57685,"HCEP03730563","2025-08-20 07:15:00","10.6474","3.35","24.054","2.192","7.43","0.585","3.196","0.05","0.17","29.7999","4.6988","23.83","0","SATNPRO1964","26.652","0.37328","5"],
    [57686,"HCEP03730563","2025-08-20 07:30:00","10.6472","3.35009","23.928","2.285","7.44","0.552","3.491","0.05","0.18","29.8009","4.69895","24.84","0","SATNPRO1964","26.872","0.37638","5"],
    [57687,"HCEP03730563","2025-08-20 07:45:00","10.657","3.35029","23.871","2.285","7.44","0.602","2.447","0.11","0.17","29.7949","4.69794","24.85","0","SATNPRO1964","26.68","0.37368","5"],
    [57688,"HCEP03730563","2025-08-20 08:00:00","10.6512","3.35071","23.794","2.3","7.44","0.602","3.188","0.19","0.48","29.8039","4.6993","25","0","SATNPRO1964","26.76","0.37478","5"],
    [57689,"HCEP03730563","2025-08-20 08:15:00","10.6656","3.35107","23.802","2.285","7.44","0.648","2.991","0.11","0.18","29.7956","4.6979","24.85","0","SATNPRO1964","26.372","0.36936","5"],
    [57690,"HCEP03730563","2025-08-20 08:30:00","10.6678","3.35131","23.818","2.252","7.44","0.643","3.252","0.09","0.22","29.7962","4.69795","24.5","0","SATNPRO1964","26.546","0.37182","5"],
    [57691,"HCEP03730563","2025-08-20 08:45:00","10.6391","3.34981","23.838","2.225","7.43","0.656","3.699","0.1","0.18","29.8048","4.69963","24.18","0","SATNPRO1964","26.58","0.37228","5"],
    [57692,"HCEP03730563","2025-08-20 09:00:00","10.6431","3.34979","23.908","2.203","7.43","0.661","3.316","0.28","0.17","29.8013","4.69907","23.94","0","SATNPRO1964","26.504","0.37126","5"],
    [57693,"HCEP03730563","2025-08-20 09:15:00","10.6499","3.34974","24.008","2.2","7.43","0.591","3.061","0.07","0.14","29.7952","4.6981","23.92","0","SATNPRO1964","26.174","0.3666","5"],
    [57694,"HCEP03730563","2025-08-20 09:30:00","10.6405","3.34931","24.129","2.177","7.43","0.6","3.792","0.08","0.46","29.7986","4.69874","23.66","0","SATNPRO1964","26.342","0.36892","5"],
    [57695,"HCEP03730563","2025-08-20 09:45:00","10.6393","3.34933","24.268","2.146","7.43","0.616","3.868","0.05","0.24","29.7998","4.69893","23.32","0","SATNPRO1964","26.22","0.36722","5"],
    [57696,"HCEP03730563","2025-08-20 10:00:00","10.641","3.3493","24.405","2.109","7.43","0.607","3.558","0.07","0.13","29.7981","4.69867","22.93","0","SATNPRO1964","26.066","0.36514","5"],
    [57697,"HCEP03730563","2025-08-20 10:15:00","10.6614","3.35093","24.587","2.125","7.43","0.61","3.287","0.05","0.17","29.7974","4.69827","23.11","0","SATNPRO1964","26.468","0.37074","5"],
    [57698,"HCEP03730563","2025-08-20 10:30:00","10.6575","3.35047","24.726","2.175","7.43","0.635","4.461","0.04","0.15","29.796","4.69813","23.65","0","SATNPRO1964","26.23","0.3674","5"],
    [57699,"HCEP03730563","2025-08-20 10:45:00","10.6674","3.35126","24.901","2.137","7.43","0.662","4.415","0.09","0.16","29.7956","4.69793","23.24","0","SATNPRO1964","25.978","0.3639","5"],
    [57700,"HCEP03730563","2025-08-20 11:00:00","10.6874","3.35269","25.11","2.249","7.43","0.638","4.031","0.08","0.19","29.7933","4.6973","24.47","0","SATNPRO1964","26.64","0.37314","5"],
    [57701,"HCEP03730563","2025-08-20 11:15:00","10.6555","3.35056","25.25","2.252","7.43","0.644","5.092","0.07","0.23","29.7983","4.69851","24.48","0","SATNPRO1964","26.184","0.36676","5"],
    [57702,"HCEP03730563","2025-08-20 11:30:00","10.6476","3.35064","25.447","2.157","7.43","0.612","6.613","0.09","0.32","29.8055","4.69967","23.45","0","SATNPRO1964","26.182","0.36668","5"],
    [57703,"HCEP03730563","2025-08-20 11:45:00","10.6502","3.35053","25.67","2.145","7.43","0.596","6.293","0.03","0.3","29.8021","4.69916","23.32","0","SATNPRO1964","26.374","0.36946","5"],
    [57704,"HCEP03730563","2025-08-20 12:00:00","10.6563","3.35074","25.84","2.157","7.43","0.528","4.972","0.04","0.21","29.7992","4.69867","23.46","0","SATNPRO1964","26.472","0.37078","5"],
    [57705,"HCEP03730563","2025-08-20 12:15:00","10.6592","3.35091","26.051","2.206","7.43","0.552","4.688","0.05","0.42","29.7983","4.69851","23.99","0","SATNPRO1964","26.55","0.37184","5"],
    [57706,"HCEP03730563","2025-08-20 12:30:00","10.6559","3.35083","26.273","2.218","7.43","0.538","4.796","0.06","0.22","29.8002","4.69885","24.12","0","SATNPRO1964","26.626","0.37294","5"],
    [57707,"HCEP03730563","2025-08-20 12:45:00","10.657","3.35098","26.49","2.213","7.43","0.573","5.224","0.04","0.34","29.8007","4.69891","24.06","0","SATNPRO1964","26.528000000000002","0.37156","5"],
    [57708,"HCEP03730563","2025-08-20 13:00:00","10.6579","3.35086","26.647","2.216","7.43","0.528","4.953","0.03","0.23","29.7988","4.69863","24.09","0","SATNPRO1964","26.508","0.3713","5"],
    [57709,"HCEP03730563","2025-08-20 13:15:00","10.6713","3.35143","26.822","2.222","7.43","0.628","5.251","0.1","0.28","29.7934","4.69766","24.16","0","SATNPRO1964","26.381999999999998","0.36952","5"],
    [57710,"HCEP03730563","2025-08-20 13:30:00","10.6758","3.35142","26.998","2.217","7.43","0.599","5.783","0.04","0.28","29.7895","4.69704","24.12","0","SATNPRO1964","25.988","0.36404","5"],
    [57711,"HCEP03730563","2025-08-20 13:45:00","10.6839","3.35162","27.16","2.181","7.43","0.682","5.945","0.06","0.31","29.7849","4.69627","23.72","0","SATNPRO1964","25.842","0.36196","5"],
    [57712,"HCEP03730563","2025-08-20 14:00:00","10.6824","3.3515","27.31","2.161","7.43","0.627","5.82","0.05","0.33","29.7848","4.69629","23.51","0","SATNPRO1964","26.034","0.36464","5"],
    [57713,"HCEP03730563","2025-08-20 14:15:00","10.6702","3.35119","27.407","2.161","7.43","0.61","5.593","0.03","0.21","29.7917","4.69747","23.5","0","SATNPRO1964","26.246000000000002","0.36762","5"],
    [57714,"HCEP03730563","2025-08-20 14:30:00","10.6703","3.35155","27.516","2.19","7.43","0.603","5.346","0.09","0.34","29.7951","4.69796","23.81","0","SATNPRO1964","26.488","0.371","5"],
    [57715,"HCEP03730563","2025-08-20 14:45:00","10.6667","3.35172","27.583","2.232","7.43","0.562","5.174","0.04","0.23","29.7997","4.69867","24.27","0","SATNPRO1964","26.648","0.3732","5"],
    [57716,"HCEP03730563","2025-08-20 15:00:00","10.6653","3.35186","27.669","2.248","7.43","0.545","5.314","0.06","0.3","29.8021","4.69905","24.45","0","SATNPRO1964","26.792","0.37528","5"],
    [57717,"HCEP03730563","2025-08-20 15:15:00","10.6654","3.35187","27.648","2.245","7.43","0.566","5.278","0.05","0.26","29.8022","4.69906","24.41","0","SATNPRO1964","26.568","0.37214","5"],
    [57718,"HCEP03730563","2025-08-20 15:30:00","10.666","3.35187","27.649","2.234","7.43","0.56","5.431","0.07","0.33","29.8017","4.69898","24.3","0","SATNPRO1964","26.672","0.37356","5"],
    [57719,"HCEP03730563","2025-08-20 15:45:00","10.6678","3.35189","27.713","2.224","7.43","0.557","5.667","0.04","0.39","29.8004","4.69876","24.19","0","SATNPRO1964","26.38","0.36946","5"],
    [57720,"HCEP03730563","2025-08-20 16:00:00","10.6668","3.35169","27.74","2.207","7.43","0.527","5.428","0.05","0.23","29.7992","4.69861","24","0","SATNPRO1964","26.349999999999998","0.36908","5"],
    [57721,"HCEP03730563","2025-08-20 16:15:00","10.6674","3.35129","27.75","2.169","7.43","0.554","5.399","0.06","0.38","29.7948","4.69797","23.59","0","SATNPRO1964","26.196","0.36694","5"],
    [57722,"HCEP03730563","2025-08-20 16:30:00","10.6668","3.35119","27.761","2.128","7.43","0.53","5.274","0.05","0.28","29.7943","4.69791","23.15","0","SATNPRO1964","26.164","0.36644","5"],
    [57723,"HCEP03730563","2025-08-20 16:45:00","10.6697","3.35082","27.741","2.115","7.43","0.545","5.001","0.06","0.72","29.7882","4.697","23","0","SATNPRO1964","25.93","0.3632","5"],
    [57724,"HCEP03730563","2025-08-20 17:00:00","10.6682","3.35057","27.694","2.096","7.42","0.498","4.51","0.05","0.35","29.7871","4.69686","22.8","0","SATNPRO1964","26.02","0.36448","5"],
    [57725,"HCEP03730563","2025-08-20 17:15:00","10.6699","3.35043","27.67","2.064","7.42","0.537","4.357","0.12","0.44","29.784300000000002","4.69643","22.45","0","SATNPRO1964","25.898","0.36272","5"],
    [57726,"HCEP03730563","2025-08-20 17:30:00","10.6668","3.35013","27.597","2.054","7.42","0.505","4.591","0.08","0.41","29.7839","4.69643","22.34","0","SATNPRO1964","25.898","0.36274","5"],
    [57727,"HCEP03730563","2025-08-20 17:45:00","10.666","3.34998","27.51","2.01","7.42","0.52","4.607","0.04","0.19","29.7831","4.69632","21.86","0","SATNPRO1964","25.634","0.35908","5"],
    [57728,"HCEP03730563","2025-08-20 18:00:00","10.6677","3.34998","27.472","2.001","7.42","0.52","5.725","0.07","0.49","29.7818","4.6961","21.76","0","SATNPRO1964","25.556","0.35798","5"],
    [57729,"HCEP03730563","2025-08-20 18:15:00","10.6703","3.35022","27.423","2.026","7.42","0.504","5.308","0.03","0.34","29.7821","4.6961","22.03","0","SATNPRO1964","25.774","0.36102","5"],
    [57730,"HCEP03730563","2025-08-20 18:30:00","10.6698","3.35024","27.369","2.041","7.42","0.492","4.278","0.07","0.28","29.7826","4.69618","22.2","0","SATNPRO1964","25.650000000000002","0.3593","5"],
    [57731,"HCEP03730563","2025-08-20 18:45:00","10.6691","3.35012","27.272","2.036","7.42","0.488","4.147","0.03","0.21","29.782","4.6961","22.14","0","SATNPRO1964","25.868","0.3623","5"],
    [57732,"HCEP03730563","2025-08-20 19:00:00","10.6664","3.34974","27.143","2.011","7.42","0.485","4.089","0.06","0.24","29.7806","4.69593","21.87","0","SATNPRO1964","25.63","0.35898","5"],
    [57733,"HCEP03730563","2025-08-20 19:15:00","10.6628","3.34931","27.077","1.954","7.41","0.534","4.427","0.08","0.68","29.7794","4.69581","21.24","0","SATNPRO1964","25.436","0.35628","5"],
    [57734,"HCEP03730563","2025-08-20 19:30:00","10.6617","3.3491","26.981","1.895","7.41","0.498","4.445","0.05","0.32","29.7782","4.69565","20.6","0","SATNPRO1964","25.172","0.35256","5"],
    [57735,"HCEP03730563","2025-08-20 19:45:00","10.6589","3.34866","26.873","1.854","7.4","0.521","4.516","0.04","0.2","29.7761","4.6954","20.16","0","SATNPRO1964","24.894","0.34868","5"],
    [57736,"HCEP03730563","2025-08-20 20:00:00","10.6592","3.34857","26.81","1.812","7.4","0.493","4.341","0.04","0.26","29.7751","4.69525","19.7","0","SATNPRO1964","24.878","0.34848","5"],
    [57737,"HCEP03730563","2025-08-20 20:15:00","10.6643","3.34904","26.74","1.837","7.4","0.489","3.68","0.07","0.28","29.7755","4.69522","19.97","0","SATNPRO1964","25.221999999999998","0.35324","5"],
    [57738,"HCEP03730563","2025-08-20 20:30:00","10.6634","3.34883","26.637","1.876","7.4","0.481","3.887","0.05","0.36","29.7742","4.69505","20.39","0","SATNPRO1964","25.044","0.35078","5"],
    [57739,"HCEP03730563","2025-08-20 20:45:00","10.6662","3.34904","26.598","1.888","7.4","0.507","3.411","0.07","0.18","29.774","4.69497","20.53","0","SATNPRO1964","25.152","0.35232","5"],
    [57740,"HCEP03730563","2025-08-20 21:00:00","10.6669","3.34904","26.557","1.911","7.4","0.475","3.56","0.05","0.12","29.7735","4.69488","20.78","0","SATNPRO1964","25.226","0.35336","5"],
    [57741,"HCEP03730563","2025-08-20 21:15:00","10.6643","3.34874","26.539","1.904","7.4","0.506","4.285","0.03","0.28","29.7727","4.69481","20.71","0","SATNPRO1964","24.822","0.34766","5"],
    [57742,"HCEP03730563","2025-08-20 21:30:00","10.6649","3.34884","26.507","1.877","7.4","0.456","3.556","0.03","0.22","29.7731","4.69486","20.41","0","SATNPRO1964","24.924","0.3491","5"],
    [57743,"HCEP03730563","2025-08-20 21:45:00","10.6628","3.34863","26.548","1.866","7.4","0.506","4.038","0.03","0.17","29.7728","4.69484","20.28","0","SATNPRO1964","24.936","0.34928","5"],
    [57744,"HCEP03730563","2025-08-20 22:00:00","10.6632","3.34864","26.587","1.849","7.4","0.497","4.19","0.06","0.15","29.7726","4.69481","20.11","0","SATNPRO1964","24.794","0.34728","5"],
    [57745,"HCEP03730563","2025-08-20 22:15:00","10.662","3.34892","26.588","1.834","7.4","0.527","4.373","0.03","0.22","29.7763","4.69536","19.94","0","SATNPRO1964","24.692","0.34586","5"],
    [57746,"HCEP03730563","2025-08-20 22:30:00","10.6618","3.34915","26.635","1.812","7.4","0.499","4.204","0.04","0.26","29.7787","4.69571","19.7","0","SATNPRO1964","25.274","0.35402","5"],
    [57747,"HCEP03730563","2025-08-20 22:45:00","10.6653","3.3493","26.672","1.832","7.4","0.539","3.638","0.15","0.32","29.7773","4.69546","19.92","0","SATNPRO1964","25.038","0.35068","5"],
    [57748,"HCEP03730563","2025-08-20 23:00:00","10.6696","3.34974","26.715","1.899","7.4","0.483","3.543","0.08","0.17","29.7781","4.6955","20.65","0","SATNPRO1964","25.354","0.3551","5"],
    [57749,"HCEP03730563","2025-08-20 23:15:00","10.6615","3.35034","26.76","1.918","7.4","0.553","4.448","0.04","0.22","29.7906","4.69742","20.86","0","SATNPRO1964","25.144","0.35218","5"],
    [57750,"HCEP03730563","2025-08-20 23:30:00","10.6618","3.35064","26.815","1.891","7.4","0.528","4.535","0.04","0.17","29.7933","4.6978","20.56","0","SATNPRO1964","25.216","0.35318","5"],
    [57751,"HCEP03730563","2025-08-20 23:45:00","10.6628","3.35106","26.873","1.907","7.4","0.566","4.593","0.05","0.22","29.7966","4.69826","20.73","0","SATNPRO1964","25.358","0.35524","5"],
    [57752,"HCEP03730563","2025-08-21 00:00:00","10.6627","3.35132","26.921","1.93","7.4","0.558","4.717","0.08","0.19","29.7993","4.69864","20.99","0","SATNPRO1964","25.454","0.35652","5"],
    [57753,"HCEP03730563","2025-08-21 00:15:00","10.6661","3.35114","26.992","1.958","7.41","0.535","4.036","0.05","0.16","29.7946","4.69793","21.29","0","SATNPRO1964","25.636","0.35906","5"],
    [57754,"HCEP03730563","2025-08-21 00:30:00","10.6659","3.35134","27.048","2.003","7.41","0.514","3.772","0.07","0.17","29.7968","4.69824","21.78","0","SATNPRO1964","25.83","0.36184","5"],
    [57755,"HCEP03730563","2025-08-21 00:45:00","10.6649","3.35181","27.119","2.032","7.41","0.549","3.996","0.05","0.2","29.8022","4.69903","22.1","0","SATNPRO1964","25.878","0.36244","5"],
    [57756,"HCEP03730563","2025-08-21 01:00:00","10.6665","3.35222","27.178","2.049","7.41","0.552","4.329","0.1","0.3","29.8049","4.69939","22.28","0","SATNPRO1964","25.994","0.3641","5"],
    [57757,"HCEP03730563","2025-08-21 01:15:00","10.6686","3.35239","27.23","2.074","7.42","0.569","4.44","0.05","0.35","29.8049","4.69936","22.56","0","SATNPRO1964","26.02","0.36448","5"],
    [57758,"HCEP03730563","2025-08-21 01:30:00","10.67","3.35255","27.271","2.102","7.42","0.537","4.047","0.07","0.26","29.8052","4.69939","22.86","0","SATNPRO1964","26.01","0.3643","5"],
    [57759,"HCEP03730563","2025-08-21 01:45:00","10.6685","3.35255","27.336","2.122","7.42","0.576","4.48","0.08","0.27","29.8065","4.69959","23.08","0","SATNPRO1964","26.13","0.36598","5"],
    [57760,"HCEP03730563","2025-08-21 02:00:00","10.6671","3.35265","27.369","2.123","7.42","0.53","4.194","0.06","0.22","29.8086","4.69992","23.09","0","SATNPRO1964","26.182","0.36674","5"],
    [57761,"HCEP03730563","2025-08-21 02:15:00","10.6665","3.35271","27.405","2.127","7.42","0.805","4.429","0.85","0.27","29.8096","4.70007","23.13","0","SATNPRO1964","26.14","0.36614","5"],
    [57762,"HCEP03730563","2025-08-21 02:30:00","10.6658","3.35271","27.4","2.127","7.42","0.523","4.594","0.05","0.26","29.8103","4.70018","23.13","0","SATNPRO1964","26.224","0.3673","5"],
    [57763,"HCEP03730563","2025-08-21 02:45:00","10.6675","3.35687","27.393","2.269","7.43","0.635","4.045","0.09","0.19","29.8499","4.70579","24.69","0","SATNPRO1964","27.791999999999998","0.38928","5"],
    [57764,"HCEP03730563","2025-08-21 03:00:00","10.6644","3.35827","27.357","2.516","7.45","0.609","4.311","0.08","0.34","29.8662","4.70815","27.37","0","SATNPRO1964","28.412","0.39788","5"],
    [57765,"HCEP03730563","2025-08-21 03:15:00","10.6618","3.35903","27.292","2.641","7.46","0.635","4.207","0.11","0.29","29.8758","4.70957","28.73","0","SATNPRO1964","28.978","0.40588","5"],
    [57766,"HCEP03730563","2025-08-21 03:30:00","10.6714","3.35919","27.224","2.769","7.47","0.487","2.409","0.05","0.11","29.8696","4.70853","30.13","0","SATNPRO1964","29.594","0.41458","5"],
    [57767,"HCEP03730563","2025-08-21 03:45:00","10.679","3.35818","27.151","2.904","7.49","0.468","2.056","0.05","0.73","29.8535","4.70611","31.6","0","SATNPRO1964","29.354","0.41118","5"],
    [57768,"HCEP03730563","2025-08-21 04:00:00","10.6774","3.35926","27.061","2.973","7.49","0.545","1.93","0.39","0.18","29.8655","4.70783","32.35","0","SATNPRO1964","29.784","0.41716","5"],
    [57769,"HCEP03730563","2025-08-21 04:15:00","10.6834","3.35854","26.94","3.014","7.5","0.477","1.917","0.04","0.18","29.8535","4.70602","32.8","0","SATNPRO1964","29.142","0.40818","5"],
    [57770,"HCEP03730563","2025-08-21 04:30:00","10.6818","3.35934","26.796","3.029","7.5","0.442","1.692","0.05","0.09","29.8627","4.70735","32.97","0","SATNPRO1964","29.862","0.41824","5"],
    [57771,"HCEP03730563","2025-08-21 04:45:00","10.677","3.35864","26.641","3.016","7.5","0.482","2.214","0.05","0.14","29.8598","4.70701","32.82","0","SATNPRO1964","29.727999999999998","0.41636","5"],
    [57772,"HCEP03730563","2025-08-21 05:00:00","10.6856","3.35839","26.467","3.018","7.51","0.85","1.978","1.69","0.57","29.8504","4.70553","32.85","0","SATNPRO1964","29.798","0.41734","5"],
    [57773,"HCEP03730563","2025-08-21 05:15:00","10.6804","3.35881","26.288","3.031","7.51","0.5","2.394","0.05","0.25","29.8589","4.70681","32.98","0","SATNPRO1964","29.744","0.41662","5"],
    [57774,"HCEP03730563","2025-08-21 05:30:00","10.6736","3.35895","26.075","2.996","7.51","0.516","2.96","0.07","0.28","29.8659","4.70789","32.61","0","SATNPRO1964","29.254","0.40978","5"],
    [57775,"HCEP03730563","2025-08-21 05:45:00","10.6714","3.3591","25.879","2.935","7.5","0.558","3.939","0.06","0.32","29.8692","4.70839","31.93","0","SATNPRO1964","29.554","0.41396","5"],
    [57776,"HCEP03730563","2025-08-21 06:00:00","10.6732","3.35931","25.674","2.926","7.5","0.498","2.843","0.06","0.18","29.8699","4.70845","31.84","0","SATNPRO1964","29.372","0.4114","5"],
    [57777,"HCEP03730563","2025-08-21 06:15:00","10.673","3.35933","25.458","2.943","7.5","0.564","3.264","0.08","0.26","29.8703","4.7085","32.02","0","SATNPRO1964","29.626","0.41496","5"],
    [57778,"HCEP03730563","2025-08-21 06:30:00","10.67","3.35976","25.235","2.955","7.5","0.496","2.782","0.04","0.18","29.8771","4.70951","32.16","0","SATNPRO1964","29.608","0.41474","5"],
    [57779,"HCEP03730563","2025-08-21 06:45:00","10.6775","3.35859","25.017","2.975","7.51","0.504","2.268","0.08","0.55","29.8595","4.70687","32.37","0","SATNPRO1964","29.694","0.41592","5"],
    [57780,"HCEP03730563","2025-08-21 07:00:00","10.6681","3.35982","24.751","2.973","7.51","0.54","3.519","0.07","0.29","29.8795","4.70984","32.35","0","SATNPRO1964","29.486","0.41302","5"],
    [57781,"HCEP03730563","2025-08-21 07:15:00","10.6714","3.35999","24.541","2.948","7.5","0.573","3.275","0.11","0.34","29.8785","4.70964","32.08","0","SATNPRO1964","29.588","0.4144","5"],
    [57782,"HCEP03730563","2025-08-21 07:30:00","10.6624","3.3606","24.338","2.933","7.5","0.546","3.959","0.04","0.24","29.892","4.71168","31.91","0","SATNPRO1964","29.644","0.4152","5"],
    [57783,"HCEP03730563","2025-08-21 07:45:00","10.664","3.36098","24.169","2.927","7.5","0.552","3.717","0.04","0.61","29.8945","4.712","31.85","0","SATNPRO1964","29.922","0.41912","5"],
    [57784,"HCEP03730563","2025-08-21 08:00:00","10.6601","3.36116","23.985","2.926","7.5","0.51","3.329","0.05","0.39","29.8995","4.71277","31.84","0","SATNPRO1964","29.894000000000002","0.41868","5"],
    [57785,"HCEP03730563","2025-08-21 08:15:00","10.6633","3.36172","23.849","2.946","7.5","0.582","2.999","0.2","0.27","29.9025","4.71313","32.06","0","SATNPRO1964","30.132","0.42206","5"],
    [57786,"HCEP03730563","2025-08-21 08:30:00","10.6631","3.36185","23.749","3.004","7.51","0.51","2.935","0.05","0.17","29.904","4.71335","32.69","0","SATNPRO1964","30.298000000000002","0.42436","5"],
    [57787,"HCEP03730563","2025-08-21 08:45:00","10.6606","3.36165","23.692","2.995","7.51","0.58","3.608","0.06","0.31","29.9041","4.7134","32.59","0","SATNPRO1964","29.78","0.41716","5"],
    [57788,"HCEP03730563","2025-08-21 09:00:00","10.6584","3.36168","23.654","2.945","7.51","0.702","3.992","0.25","0.32","29.9062","4.71373","32.04","0","SATNPRO1964","29.908","0.41894","5"],
    [57789,"HCEP03730563","2025-08-21 09:15:00","10.6579","3.36186","23.676","2.91","7.5","0.615","4.204","0.07","0.36","29.9083","4.71404","31.66","0","SATNPRO1964","29.914","0.419","5"],
    [57790,"HCEP03730563","2025-08-21 09:30:00","10.6594","3.36233","23.699","2.936","7.51","0.534","3.282","0.05","0.18","29.9118","4.71451","31.95","0","SATNPRO1964","30.282","0.42412","5"],
    [57791,"HCEP03730563","2025-08-21 09:45:00","10.6588","3.36247","23.763","2.977","7.51","0.565","3.136","0.07","0.16","29.9136","4.71479","32.39","0","SATNPRO1964","30.336","0.42486","5"],
    [57792,"HCEP03730563","2025-08-21 10:00:00","10.6585","3.3626","23.884","2.981","7.51","0.591","3.515","0.2","0.36","29.9151","4.71501","32.44","0","SATNPRO1964","30.288","0.42428","5"],
    [57793,"HCEP03730563","2025-08-21 10:15:00","10.6558","3.36257","23.983","2.965","7.51","0.67","4.706","0.08","0.36","29.917","4.71532","32.26","0","SATNPRO1964","30.128","0.422","5"],
    [57794,"HCEP03730563","2025-08-21 10:30:00","10.6564","3.3631","24.116","2.955","7.51","0.557","3.751","0.07","0.48","29.9217","4.71599","32.16","0","SATNPRO1964","30.586","0.42842","5"],
    [57795,"HCEP03730563","2025-08-21 10:45:00","10.6581","3.36299","24.29","3.012","7.51","0.584","3.605","0.08","0.19","29.9191","4.71561","32.78","0","SATNPRO1964","30.396","0.42578","5"],
    [57796,"HCEP03730563","2025-08-21 11:00:00","10.6579","3.36323","24.464","3.036","7.51","0.552","3.87","0.06","0.29","29.9215","4.71597","33.04","0","SATNPRO1964","30.394000000000002","0.42572","5"],
    [57797,"HCEP03730563","2025-08-21 11:15:00","10.6555","3.36324","24.635","3","7.51","0.636","4.047","0.18","0.21","29.9235","4.7163","32.65","0","SATNPRO1964","30.264","0.42388","5"],
    [57798,"HCEP03730563","2025-08-21 11:30:00","10.6542","3.36275","24.862","2.952","7.51","0.715","4.366","0.56","0.18","29.9197","4.71579","32.12","0","SATNPRO1964","30.02","0.42052","5"],
    [57799,"HCEP03730563","2025-08-21 11:45:00","10.6559","3.36257","25.009","2.91","7.51","0.607","4.185","0.08","0.26","29.9164","4.71531","31.66","0","SATNPRO1964","30.105999999999998","0.4217","5"],
    [57800,"HCEP03730563","2025-08-21 12:00:00","10.6554","3.36244","25.204","2.925","7.51","0.577","4.012","0.07","0.24","29.9155","4.71519","31.83","0","SATNPRO1964","29.992","0.42012","5"],
    [57801,"HCEP03730563","2025-08-21 12:15:00","10.6545","3.36276","25.382","2.903","7.5","0.617","4.539","0.08","0.22","29.9193","4.71575","31.58","0","SATNPRO1964","29.948","0.4195","5"],
    [57802,"HCEP03730563","2025-08-21 12:30:00","10.6566","3.36415","25.602","2.932","7.51","0.55","3.674","0.05","0.15","29.9312","4.71743","31.91","0","SATNPRO1964","30.504","0.42726","5"],
    [57803,"HCEP03730563","2025-08-21 12:45:00","10.6557","3.36442","25.822","2.981","7.51","0.602","4.461","0.05","0.16","29.9346","4.71794","32.45","0","SATNPRO1964","30.54","0.42774","5"],
    [57804,"HCEP03730563","2025-08-21 13:00:00","10.6564","3.36457","26.031","2.994","7.51","0.522","3.11","0.09","0.17","29.9354","4.71805","32.58","0","SATNPRO1964","30.738","0.43054","5"],
    [57805,"HCEP03730563","2025-08-21 13:15:00","10.657","3.36451","26.271","3.028","7.51","0.507","3.057","0.03","0.21","29.9342","4.71789","32.95","0","SATNPRO1964","30.708","0.43012","5"],
    [57806,"HCEP03730563","2025-08-21 13:30:00","10.6577","3.36412","26.492","3.037","7.52","0.519","3.209","0.09","0.19","29.9297","4.71725","33.05","0","SATNPRO1964","30.706","0.43006","5"],
    [57807,"HCEP03730563","2025-08-21 13:45:00","10.6579","3.36382","26.679","3.024","7.51","0.54","3.652","0.05","0.15","29.9265","4.71681","32.91","0","SATNPRO1964","30.454","0.4266","5"],
    [57808,"HCEP03730563","2025-08-21 14:00:00","10.6583","3.36388","26.864","3.008","7.51","0.483","2.662","0.06","0.11","29.9266","4.71682","32.74","0","SATNPRO1964","30.646","0.42926","5"],
    [57809,"HCEP03730563","2025-08-21 14:15:00","10.6573","3.36379","27.039","3.012","7.51","0.531","3.828","0.03","0.11","29.9266","4.71684","32.78","0","SATNPRO1964","30.416","0.42604","5"],
    [57810,"HCEP03730563","2025-08-21 14:30:00","10.6577","3.36421","27.205","2.996","7.51","0.522","3.41","0.04","0.17","29.9303","4.71737","32.61","0","SATNPRO1964","30.698","0.43","5"],
    [57811,"HCEP03730563","2025-08-21 14:45:00","10.6587","3.36439","27.337","3.044","7.52","0.492","2.289","0.08","0.11","29.9312","4.71749","33.12","0","SATNPRO1964","30.86","0.43226","5"],
    [57812,"HCEP03730563","2025-08-21 15:00:00","10.6585","3.36415","27.45","3.069","7.52","0.458","2.501","0.03","0.12","29.9289","4.71718","33.4","0","SATNPRO1964","30.826","0.43172","5"],
    [57813,"HCEP03730563","2025-08-21 15:15:00","10.6578","3.3644","27.558","3.05","7.52","0.513","3.083","0.04","0.18","29.9319","4.71761","33.19","0","SATNPRO1964","30.676","0.42968","5"],
    [57814,"HCEP03730563","2025-08-21 15:30:00","10.6586","3.3642","27.636","3.042","7.52","0.496","2.52","0.18","0.19","29.9293","4.71724","33.1","0","SATNPRO1964","30.842","0.43202","5"],
    [57815,"HCEP03730563","2025-08-21 15:45:00","10.6622","3.36382","27.682","3.085","7.52","0.487","2.272","0.07","0.1","29.9225","4.71622","33.58","0","SATNPRO1964","30.814","0.43158","5"],
    [57816,"HCEP03730563","2025-08-21 16:00:00","10.6601","3.3642","27.739","3.119","7.52","0.475","2.321","0.03","0.18","29.9279","4.71703","33.95","0","SATNPRO1964","30.81","0.43154","5"],
    [57817,"HCEP03730563","2025-08-21 16:15:00","10.659","3.36434","27.734","3.103","7.52","0.489","2.149","0.07","0.15","29.9302","4.71737","33.77","0","SATNPRO1964","31.169999999999998","0.43662","5"],
    [57818,"HCEP03730563","2025-08-21 16:30:00","10.6586","3.36415","27.734","3.077","7.52","0.469","2.424","0.05","0.22","29.9287","4.71716","33.49","0","SATNPRO1964","30.664","0.42952","5"],
    [57819,"HCEP03730563","2025-08-21 16:45:00","10.6591","3.36402","27.722","3.054","7.52","0.522","2.682","0.07","0.12","29.9271","4.71693","33.24","0","SATNPRO1964","30.628","0.42902","5"],
    [57820,"HCEP03730563","2025-08-21 17:00:00","10.6589","3.36424","27.7","3.057","7.52","0.435","2.004","0.03","0.15","29.9294","4.71725","33.27","0","SATNPRO1964","30.826","0.43178","5"],
    [57821,"HCEP03730563","2025-08-21 17:15:00","10.66","3.36434","27.675","3.093","7.52","0.469","1.855","0.12","0.11","29.9295","4.71725","33.66","0","SATNPRO1964","30.92","0.43308","5"],
    [57822,"HCEP03730563","2025-08-21 17:30:00","10.6584","3.3639","27.652","3.085","7.52","0.485","2.822","0.06","0.11","29.9265","4.71685","33.57","0","SATNPRO1964","30.626","0.42898","5"],
    [57823,"HCEP03730563","2025-08-21 17:45:00","10.657","3.3646","27.608","3.034","7.52","0.557","3.852","0.07","0.17","29.9345","4.71801","33.02","0","SATNPRO1964","30.74","0.43054","5"],
    [57824,"HCEP03730563","2025-08-21 18:00:00","10.6575","3.36423","27.524","3.03","7.52","0.44","2.189","0.05","0.09","29.9305","4.71743","32.97","0","SATNPRO1964","30.892","0.43274","5"],
    [57825,"HCEP03730563","2025-08-21 18:15:00","10.6618","3.36376","27.473","3.074","7.52","0.483","2.041","0.14","0.36","29.9224","4.7162","33.45","0","SATNPRO1964","31.086","0.43544","5"],
    [57826,"HCEP03730563","2025-08-21 18:30:00","10.6612","3.36337","27.385","3.079","7.52","0.457","2.459","0.04","0.11","29.919","4.71573","33.51","0","SATNPRO1964","30.669999999999998","0.4296","5"],
    [57827,"HCEP03730563","2025-08-21 18:45:00","10.6598","3.36319","27.309","3.034","7.52","0.502","3.557","0.04","0.28","29.9185","4.71566","33.01","0","SATNPRO1964","30.296","0.42432","5"],
    [57828,"HCEP03730563","2025-08-21 19:00:00","10.6585","3.36329","27.219","2.979","7.51","0.489","4.314","0.03","0.38","29.9205","4.71597","32.41","0","SATNPRO1964","30.208000000000002","0.42312","5"],
    [57829,"HCEP03730563","2025-08-21 19:15:00","10.6612","3.36306","27.105","2.973","7.51","0.498","3.767","0.03","0.3","29.9161","4.71529","32.36","0","SATNPRO1964","30.57","0.42818","5"],
    [57830,"HCEP03730563","2025-08-21 19:30:00","10.6629","3.36313","27.003","3.005","7.51","0.491","4.03","0.07","0.45","29.9155","4.71517","32.7","0","SATNPRO1964","30.55","0.42792","5"],
    [57831,"HCEP03730563","2025-08-21 19:45:00","10.6586","3.36347","26.916","2.992","7.51","0.498","4.547","0.03","0.37","29.9224","4.71621","32.56","0","SATNPRO1964","30.62","0.42888","5"],
    [57832,"HCEP03730563","2025-08-21 20:00:00","10.6585","3.36339","26.808","2.941","7.51","0.487","4.306","0.05","0.17","29.9217","4.71612","32","0","SATNPRO1964","30.528","0.4276","5"],
    [57833,"HCEP03730563","2025-08-21 20:15:00","10.6608","3.36318","26.706","2.947","7.51","0.516","4.343","0.04","0.24","29.9178","4.71552","32.07","0","SATNPRO1964","30.352","0.42512","5"],
    [57834,"HCEP03730563","2025-08-21 20:30:00","10.6607","3.36294","26.611","2.953","7.51","0.465","3.775","0.04","0.41","29.9156","4.71519","32.13","0","SATNPRO1964","30.234","0.42348","5"],
    [57835,"HCEP03730563","2025-08-21 20:45:00","10.661","3.36278","26.503","2.944","7.51","0.501","3.857","0.06","0.37","29.9138","4.71493","32.04","0","SATNPRO1964","30.372","0.4254","5"],
    [57836,"HCEP03730563","2025-08-21 21:00:00","10.6602","3.36285","26.403","2.933","7.51","0.487","3.966","0.05","0.21","29.9151","4.71512","31.92","0","SATNPRO1964","30.154","0.42232","5"],
    [57837,"HCEP03730563","2025-08-21 21:15:00","10.6611","3.36268","26.345","2.93","7.51","0.488","3.795","0.03","0.15","29.9127","4.71477","31.88","0","SATNPRO1964","30.27","0.424","5"],
    [57838,"HCEP03730563","2025-08-21 21:30:00","10.6573","3.36345","26.27","2.9","7.5","0.541","5.909","0.05","0.26","29.9235","4.71636","31.56","0","SATNPRO1964","29.752","0.41672","5"],
    [57839,"HCEP03730563","2025-08-21 21:45:00","10.658","3.36319","26.219","2.852","7.5","0.557","5.601","0.05","0.44","29.9204","4.7159","31.03","0","SATNPRO1964","30.008","0.4203","5"],
    [57840,"HCEP03730563","2025-08-21 22:00:00","10.6564","3.36353","26.195","2.837","7.5","0.488","4.665","0.05","0.22","29.925","4.71659","30.87","0","SATNPRO1964","30.256","0.42376","5"],
    [57841,"HCEP03730563","2025-08-21 22:15:00","10.6526","3.36497","26.195","2.788","7.5","0.567","6.111","0.05","0.28","29.9423","4.7191","30.33","0","SATNPRO1964","29.406","0.41188","5"],
    [57842,"HCEP03730563","2025-08-21 22:30:00","10.6533","3.36529","26.211","2.731","7.49","0.545","5.568","0.05","0.41","29.945","4.71947","29.72","0","SATNPRO1964","29.994","0.42008","5"],
    [57843,"HCEP03730563","2025-08-21 22:45:00","10.652","3.36573","26.24","2.76","7.49","0.586","5.592","0.07","0.33","29.9502","4.72024","30.04","0","SATNPRO1964","29.868","0.41834","5"],
    [57844,"HCEP03730563","2025-08-21 23:00:00","10.6522","3.36595","26.295","2.774","7.49","0.511","4.744","0.04","0.3","29.9523","4.72054","30.19","0","SATNPRO1964","30.226","0.42336","5"],
    [57845,"HCEP03730563","2025-08-21 23:15:00","10.6521","3.36607","26.366","2.808","7.5","0.573","4.361","0.1","0.24","29.9535","4.72072","30.56","0","SATNPRO1964","30.32","0.42466","5"],
    [57846,"HCEP03730563","2025-08-21 23:30:00","10.6516","3.36617","26.438","2.803","7.5","0.536","4.713","0.06","0.43","29.9548","4.72092","30.5","0","SATNPRO1964","30.406000000000002","0.4259","5"],
    [57847,"HCEP03730563","2025-08-21 23:45:00","10.6525","3.36626","26.513","2.824","7.5","0.484","3.545","0.04","0.25","29.9549","4.72092","30.73","0","SATNPRO1964","30.648","0.42928","5"],
    [57848,"HCEP03730563","2025-08-22 00:00:00","10.6526","3.36607","26.595","2.865","7.5","0.482","3.798","0.04","0.34","29.953","4.72065","31.18","0","SATNPRO1964","30.708","0.43012","5"],
    [57849,"HCEP03730563","2025-08-22 00:15:00","10.6523","3.36614","26.68","2.869","7.5","0.51","3.981","0.02","0.21","29.9539","4.72079","31.22","0","SATNPRO1964","30.556","0.428","5"],
    [57850,"HCEP03730563","2025-08-22 00:30:00","10.6525","3.36604","26.76","2.864","7.5","0.494","3.666","0.05","0.22","29.9527","4.72062","31.17","0","SATNPRO1964","30.608","0.42868","5"],
    [57851,"HCEP03730563","2025-08-22 00:45:00","10.6537","3.36567","26.849","2.854","7.5","0.514","3.388","0.08","0.18","29.9481","4.71995","31.06","0","SATNPRO1964","30.6","0.42858","5"],
    [57852,"HCEP03730563","2025-08-22 01:00:00","10.6539","3.36513","26.936","2.857","7.5","0.518","4.478","0.05","0.22","29.9425","4.71915","31.09","0","SATNPRO1964","30.252","0.42374","5"],
    [57853,"HCEP03730563","2025-08-22 01:15:00","10.6579","3.36461","27.012","2.877","7.5","0.534","3.629","0.09","0.2","29.9341","4.7179","31.31","0","SATNPRO1964","30.628","0.42904","5"],
    [57854,"HCEP03730563","2025-08-22 01:30:00","10.6571","3.36443","27.081","2.885","7.5","0.494","4.485","0.04","0.36","29.933","4.71775","31.39","0","SATNPRO1964","30.348","0.4251","5"],
    [57855,"HCEP03730563","2025-08-22 01:45:00","10.6726","3.36297","27.144","2.945","7.51","0.476","2.572","0.06","0.15","29.9059","4.71367","32.05","0","SATNPRO1964","30.556","0.42796","5"],
    [57856,"HCEP03730563","2025-08-22 02:00:00","10.6597","3.36355","27.226","2.971","7.51","0.518","4.989","0.12","0.3","29.9221","4.71618","32.33","0","SATNPRO1964","30.128","0.422","5"],
    [57857,"HCEP03730563","2025-08-22 02:15:00","10.6585","3.36343","27.289","2.854","7.5","0.557","5.06","0.13","0.3","29.9219","4.71617","31.06","0","SATNPRO1964","30.072","0.42122","5"],
    [57858,"HCEP03730563","2025-08-22 02:30:00","10.6635","3.36292","27.341","2.842","7.5","0.517","3.926","0.09","0.33","29.9128","4.7148","30.93","0","SATNPRO1964","30.316","0.42464","5"],
    [57859,"HCEP03730563","2025-08-22 02:45:00","10.6642","3.36272","27.383","2.9","7.5","0.47","3.809","0.03","0.21","29.9102","4.71443","31.56","0","SATNPRO1964","30.11","0.42178","5"],
    [57860,"HCEP03730563","2025-08-22 03:00:00","10.6612","3.36257","27.425","2.861","7.5","0.537","4.298","0.25","0.24","29.9112","4.71461","31.13","0","SATNPRO1964","29.96","0.41966","5"],
    [57861,"HCEP03730563","2025-08-22 03:15:00","10.6611","3.3624","27.435","2.8","7.5","0.534","4.305","0.06","0.24","29.9095","4.71438","30.47","0","SATNPRO1964","29.552","0.41394","5"],
    [57862,"HCEP03730563","2025-08-22 03:30:00","10.6602","3.3622","27.414","2.751","7.49","0.513","5.169","0.05","0.25","29.9083","4.71422","29.93","0","SATNPRO1964","29.3","0.4104","5"],
    [57863,"HCEP03730563","2025-08-22 03:45:00","10.6602","3.36199","27.399","2.705","7.49","0.537","5.123","0.05","0.33","29.9062","4.71392","29.44","0","SATNPRO1964","28.954","0.40556","5"],
    [57864,"HCEP03730563","2025-08-22 04:00:00","10.6603","3.36167","27.365","2.666","7.48","0.496","4.892","0.06","0.27","29.903","4.71346","29.01","0","SATNPRO1964","29.162","0.4085","5"],
    [57865,"HCEP03730563","2025-08-22 04:15:00","10.6597","3.36157","27.323","2.635","7.48","0.527","4.875","0.05","0.23","29.9026","4.71341","28.68","0","SATNPRO1964","28.972","0.40578","5"],
    [57866,"HCEP03730563","2025-08-22 04:30:00","10.6604","3.36122","27.252","2.637","7.48","0.491","4.124","0.07","0.27","29.8986","4.71282","28.69","0","SATNPRO1964","29.062","0.40708","5"],
    [57867,"HCEP03730563","2025-08-22 04:45:00","10.6592","3.3613","27.167","2.636","7.48","0.555","4.657","0.08","0.25","29.9004","4.71309","28.68","0","SATNPRO1964","28.778000000000002","0.40306","5"],
    [57868,"HCEP03730563","2025-08-22 05:00:00","10.6591","3.36105","27.055","2.595","7.48","0.466","4.491","0.05","0.27","29.8981","4.71276","28.24","0","SATNPRO1964","28.694","0.40188","5"],
    [57869,"HCEP03730563","2025-08-22 05:15:00","10.6591","3.3607","26.917","2.577","7.47","0.53","4.636","0.13","0.45","29.8947","4.71227","28.04","0","SATNPRO1964","28.662","0.40146","5"],
    [57870,"HCEP03730563","2025-08-22 05:30:00","10.6588","3.36059","26.767","2.552","7.47","0.503","4.666","0.06","0.33","29.8939","4.71215","27.77","0","SATNPRO1964","28.384","0.39756","5"],
    [57871,"HCEP03730563","2025-08-22 05:45:00","10.6589","3.36043","26.602","2.523","7.47","0.519","4.325","0.05","0.2","29.8922","4.7119","27.45","0","SATNPRO1964","28.528","0.3996","5"],
    [57872,"HCEP03730563","2025-08-22 06:00:00","10.6586","3.36034","26.41","2.525","7.47","0.488","4.141","0.06","0.25","29.8917","4.71182","27.47","0","SATNPRO1964","28.56","0.40004","5"],
    [57873,"HCEP03730563","2025-08-22 06:15:00","10.66","3.3603","26.218","2.521","7.47","0.484","3.843","0.04","0.33","29.8902","4.71158","27.43","0","SATNPRO1964","28.496","0.39912","5"],
    [57874,"HCEP03730563","2025-08-22 06:30:00","10.6589","3.36024","26.006","2.522","7.47","0.491","4.442","0.05","0.28","29.8906","4.71164","27.43","0","SATNPRO1964","28.58","0.40032","5"],
    [57875,"HCEP03730563","2025-08-22 06:45:00","10.6592","3.36027","25.79","2.504","7.47","0.513","4.095","0.07","0.26","29.8908","4.71164","27.24","0","SATNPRO1964","28.428","0.3982","5"],
    [57876,"HCEP03730563","2025-08-22 07:00:00","10.6592","3.36039","25.574","2.513","7.47","0.467","3.902","0.05","0.16","29.892","4.71182","27.35","0","SATNPRO1964","28.892","0.4047","5"],
    [57877,"HCEP03730563","2025-08-22 07:15:00","10.6629","3.3612","25.365","2.531","7.47","0.51","4.09","0.06","0.32","29.8971","4.71246","27.54","0","SATNPRO1964","29.518","0.41346","5"],
    [57878,"HCEP03730563","2025-08-22 07:30:00","10.6619","3.36133","25.121","2.662","7.47","0.504","3.609","0.12","0.58","29.8993","4.71278","28.96","0","SATNPRO1964","28.866","0.40432","5"],
    [57879,"HCEP03730563","2025-08-22 07:45:00","10.6606","3.36144","24.917","2.643","7.47","0.493","3.606","0.06","0.19","29.9015","4.7131","28.76","0","SATNPRO1964","29.104","0.4076","5"],
    [57880,"HCEP03730563","2025-08-22 08:00:00","10.6611","3.36164","24.72","2.656","7.48","0.46","3.76","0.04","0.22","29.9031","4.7133","28.9","0","SATNPRO1964","28.932","0.40522","5"],
    [57881,"HCEP03730563","2025-08-22 08:15:00","10.6599","3.36144","24.507","2.643","7.48","0.5","4.452","0.04","0.28","29.9022","4.71319","28.76","0","SATNPRO1964","28.836","0.40394","5"],
    [57882,"HCEP03730563","2025-08-22 08:30:00","10.6599","3.36155","24.318","2.61","7.47","0.496","4.781","0.04","0.25","29.9034","4.71335","28.4","0","SATNPRO1964","28.988","0.40604","5"],
    [57883,"HCEP03730563","2025-08-22 08:45:00","10.66","3.36189","24.13","2.621","7.48","0.521","4.277","0.06","0.22","29.9068","4.71382","28.52","0","SATNPRO1964","29.038","0.40674","5"],
    [57884,"HCEP03730563","2025-08-22 09:00:00","10.6607","3.36214","23.923","2.663","7.48","0.527","3.764","0.18","0.16","29.9087","4.71407","28.98","0","SATNPRO1964","29.258","0.40982","5"],
    [57885,"HCEP03730563","2025-08-22 09:15:00","10.6644","3.36289","23.819","2.742","7.48","0.511","2.984","0.1","0.24","29.9132","4.71464","29.84","0","SATNPRO1964","28.862","0.40424","5"],
    [57886,"HCEP03730563","2025-08-22 09:30:00","10.6614","3.36245","23.749","2.779","7.49","0.486","3.761","0.05","0.19","29.9113","4.71441","30.24","0","SATNPRO1964","29.554","0.41394","5"],
    [57887,"HCEP03730563","2025-08-22 09:45:00","10.6629","3.36268","23.726","2.756","7.49","0.484","3.594","0.05","0.19","29.9123","4.71453","29.99","0","SATNPRO1964","29.09","0.40746","5"],
    [57888,"HCEP03730563","2025-08-22 10:00:00","10.6614","3.36229","23.71","2.748","7.49","0.475","4.012","0.07","0.26","29.9098","4.7142","29.9","0","SATNPRO1964","29.188000000000002","0.40884","5"],
    [57889,"HCEP03730563","2025-08-22 10:15:00","10.6613","3.36193","23.723","2.703","7.48","0.534","4.036","0.1","0.37","29.9062","4.71369","29.41","0","SATNPRO1964","29.16","0.40842","5"],
    [57890,"HCEP03730563","2025-08-22 10:30:00","10.6605","3.36168","23.764","2.662","7.48","2.444","40.213","1.74","27.43","29.9045","4.71346","28.96","0","SATNPRO1964","29.188","0.40884","5"],
    [57891,"HCEP03730563","2025-08-22 10:45:00","10.6604","3.36157","23.847","2.631","7.48","0.488","4.096","0.03","0.24","29.9034","4.71331","28.63","0","SATNPRO1964","29.078","0.40732","5"],
    [57892,"HCEP03730563","2025-08-22 11:00:00","10.6614","3.36165","23.951","2.621","7.48","0.466","3.623","0.06","0.24","29.9033","4.7133","28.52","0","SATNPRO1964","29.192","0.40888","5"],
    [57893,"HCEP03730563","2025-08-22 11:15:00","10.6615","3.36169","24.09","2.641","7.48","0.507","3.916","0.04","0.21","29.9036","4.71334","28.74","0","SATNPRO1964","29.204","0.40908","5"],
    [57894,"HCEP03730563","2025-08-22 11:30:00","10.6616","3.36186","24.249","2.641","7.48","0.472","3.717","0.05","0.21","29.905","4.71355","28.74","0","SATNPRO1964","29.368","0.41136","5"],
    [57895,"HCEP03730563","2025-08-22 11:45:00","10.6611","3.36192","24.411","2.653","7.48","0.524","4.151","0.07","0.22","29.9061","4.71371","28.87","0","SATNPRO1964","29.23","0.40942","5"],
    [57896,"HCEP03730563","2025-08-22 12:00:00","10.6612","3.36218","24.612","2.649","7.48","0.527","4.86","0.11","0.38","29.9085","4.71406","28.82","0","SATNPRO1964","29.224","0.40932","5"],
    [57897,"HCEP03730563","2025-08-22 12:15:00","10.6602","3.36212","24.789","2.624","7.48","0.544","4.921","0.05","0.21","29.9085","4.7141","28.55","0","SATNPRO1964","29.064","0.40712","5"],
    [57898,"HCEP03730563","2025-08-22 12:30:00","10.6591","3.36184","24.982","2.597","7.47","0.529","4.953","0.06","0.26","29.9066","4.71386","28.26","0","SATNPRO1964","28.902","0.40482","5"],
    [57899,"HCEP03730563","2025-08-22 12:45:00","10.6606","3.36185","25.165","2.574","7.47","0.554","5.189","0.06","0.34","29.9054","4.71367","28.01","0","SATNPRO1964","29.168","0.40854","5"],
    [57900,"HCEP03730563","2025-08-22 13:00:00","10.6613","3.36195","25.391","2.6","7.47","0.489","4.21","0.06","0.2","29.9058","4.71373","28.29","0","SATNPRO1964","29.282","0.41012","5"],
    [57901,"HCEP03730563","2025-08-22 13:15:00","10.6637","3.36196","25.623","2.64","7.48","0.509","3.895","0.05","0.16","29.9037","4.71341","28.73","0","SATNPRO1964","29.368","0.41134","5"],
    [57902,"HCEP03730563","2025-08-22 13:30:00","10.6662","3.36168","25.771","2.685","7.48","0.458","3.15","0.09","0.16","29.8989","4.71269","29.22","0","SATNPRO1964","29.308","0.41052","5"],
    [57903,"HCEP03730563","2025-08-22 13:45:00","10.6876","3.36048","26.015","2.797","7.49","0.397","1.873","0.04","0.15","29.8695","4.70818","30.45","0","SATNPRO1964","30.426","0.42614","5"],
    [57904,"HCEP03730563","2025-08-22 14:00:00","10.6984","3.36094","26.245","2.979","7.5","0.356","1.115","0.04","0.11","29.8652","4.70742","32.44","0","SATNPRO1964","30.32","0.4247","5"],
    [57905,"HCEP03730563","2025-08-22 14:15:00","10.662","3.36015","26.453","2.831","7.49","0.474","4.262","0.02","0.16","29.887","4.7111","30.81","0","SATNPRO1964","28.306","0.3965","5"],
    [57906,"HCEP03730563","2025-08-22 14:30:00","10.6604","3.35917","26.689","2.459","7.47","0.442","3.883","0.04","0.42","29.8786","4.70994","26.76","0","SATNPRO1964","28.008","0.39232","5"],
    [57907,"HCEP03730563","2025-08-22 14:45:00","10.6583","3.35854","26.922","2.348","7.46","0.483","4.117","0.03","0.22","29.8739","4.70933","25.54","0","SATNPRO1964","27.712","0.38816","5"],
    [57908,"HCEP03730563","2025-08-22 15:00:00","10.6593","3.35973","27.088","2.305","7.45","0.52","5.213","0.06","0.2","29.8848","4.71086","25.07","0","SATNPRO1964","27.91","0.39088","5"],
    [57909,"HCEP03730563","2025-08-22 15:15:00","10.6596","3.36015","27.249","2.326","7.45","0.522","4.801","0.04","0.21","29.8887","4.71143","25.31","0","SATNPRO1964","27.948","0.39146","5"],
    [57910,"HCEP03730563","2025-08-22 15:30:00","10.6605","3.36072","27.372","2.366","7.45","0.499","4.798","0.04","0.16","29.8935","4.71211","25.74","0","SATNPRO1964","28.276","0.39604","5"],
    [57911,"HCEP03730563","2025-08-22 15:45:00","10.6609","3.36125","27.481","2.416","7.46","0.56","5.399","0.04","0.28","29.8984","4.7128","26.29","0","SATNPRO1964","28.532","0.39964","5"],
    [57912,"HCEP03730563","2025-08-22 16:00:00","10.6608","3.36149","27.583","2.458","7.46","0.514","5.356","0.06","0.2","29.9008","4.71315","26.75","0","SATNPRO1964","28.47","0.39876","5"],
    [57913,"HCEP03730563","2025-08-22 16:15:00","10.661","3.36183","27.656","2.491","7.46","0.543","4.875","0.09","0.33","29.9039","4.71359","27.1","0","SATNPRO1964","28.898","0.40474","5"],
    [57914,"HCEP03730563","2025-08-22 16:30:00","10.6617","3.36219","27.677","2.547","7.46","0.472","4.51","0.05","0.49","29.9069","4.71401","27.71","0","SATNPRO1964","29.16","0.40846","5"],
    [57915,"HCEP03730563","2025-08-22 16:45:00","10.6646","3.36427","27.749","2.665","7.47","0.499","5.22","0.03","0.3","29.925","4.71654","29.01","0","SATNPRO1964","30.326","0.42478","5"],
    [57916,"HCEP03730563","2025-08-22 17:00:00","10.664","3.36479","27.772","2.827","7.48","0.479","5.967","0.04","0.37","29.9306","4.71735","30.77","0","SATNPRO1964","30.54","0.42778","5"],
    [57917,"HCEP03730563","2025-08-22 17:15:00","10.6637","3.36436","27.779","2.832","7.49","0.49","5.453","0.03","0.19","29.9265","4.71677","30.83","0","SATNPRO1964","30.122","0.42194","5"],
    [57918,"HCEP03730563","2025-08-22 17:30:00","10.6611","3.36355","27.738","2.75","7.49","0.483","5.923","0.03","0.35","29.9208","4.71599","29.93","0","SATNPRO1964","29.448","0.41246","5"],
    [57919,"HCEP03730563","2025-08-22 17:45:00","10.6606","3.36248","27.715","2.635","7.48","0.487","5.712","0.03","0.24","29.9106","4.71455","28.68","0","SATNPRO1964","28.96","0.40566","5"],
    [57920,"HCEP03730563","2025-08-22 18:00:00","10.6619","3.36083","27.664","2.552","7.47","0.455","5.032","0.04","0.26","29.8934","4.71208","27.77","0","SATNPRO1964","27.86","0.3902","5"],
    [57921,"HCEP03730563","2025-08-22 18:15:00","10.6607","3.36196","27.596","2.509","7.47","0.5","5.674","0.04","0.28","29.9055","4.71382","27.3","0","SATNPRO1964","28.744","0.40262","5"],
    [57922,"HCEP03730563","2025-08-22 18:30:00","10.6624","3.36059","27.525","2.496","7.47","0.489","5.548","0.05","0.27","29.8906","4.71168","27.16","0","SATNPRO1964","28.514","0.39938","5"],
    [57923,"HCEP03730563","2025-08-22 18:45:00","10.6635","3.35918","27.456","2.447","7.46","0.479","4.56","0.04","0.21","29.8758","4.70954","26.63","0","SATNPRO1964","28.206","0.39506","5"],
    [57924,"HCEP03730563","2025-08-22 19:00:00","10.6633","3.36","27.395","2.434","7.46","0.447","4.536","0.03","0.33","29.884","4.71072","26.49","0","SATNPRO1964","28.528","0.3996","5"],
    [57925,"HCEP03730563","2025-08-22 19:15:00","10.6637","3.36079","27.279","2.448","7.46","0.489","5.024","0.05","0.2","29.8916","4.71177","26.64","0","SATNPRO1964","28.418","0.39806","5"],
    [57926,"HCEP03730563","2025-08-22 19:30:00","10.6674","3.35952","27.179","2.469","7.46","0.44","4.781","0.04","0.3","29.8761","4.70952","26.87","0","SATNPRO1964","28.580000000000002","0.40032","5"],
    [57927,"HCEP03730563","2025-08-22 19:45:00","10.6632","3.36148","27.039","2.452","7.46","0.502","6.05","0.03","0.55","29.8989","4.71281","26.68","0","SATNPRO1964","28.55","0.3999","5"],
    [57928,"HCEP03730563","2025-08-22 20:00:00","10.662","3.36141","26.919","2.46","7.46","0.464","6.366","0.03","0.34","29.8993","4.71288","26.77","0","SATNPRO1964","28.637999999999998","0.40116","5"],
    [57929,"HCEP03730563","2025-08-22 20:15:00","10.669","3.36103","26.809","2.562","7.47","0.436","4.078","0.04","0.13","29.8898","4.71141","27.88","0","SATNPRO1964","29.314","0.41058","5"],
    [57930,"HCEP03730563","2025-08-22 20:30:00","10.6658","3.3622","26.693","2.673","7.47","0.406","4.498","0.02","0.26","29.9041","4.71349","29.09","0","SATNPRO1964","30.128","0.42202","5"],
    [57931,"HCEP03730563","2025-08-22 20:45:00","10.663","3.36279","26.591","2.645","7.47","0.451","4.775","0.04","0.48","29.9122","4.71468","28.78","0","SATNPRO1964","29.374","0.41146","5"],
    [57932,"HCEP03730563","2025-08-22 21:00:00","10.6581","3.36365","26.466","2.603","7.47","0.466","6.557","0.03","0.49","29.9247","4.71654","28.33","0","SATNPRO1964","29.451999999999998","0.41254","5"],
    [57933,"HCEP03730563","2025-08-22 21:15:00","10.6577","3.36428","26.339","2.563","7.47","0.453","6.018","0.02","0.36","29.9313","4.71747","27.9","0","SATNPRO1964","29.474","0.41284","5"],
    [57934,"HCEP03730563","2025-08-22 21:30:00","10.6575","3.36453","26.206","2.593","7.47","0.456","6.11","0.04","0.33","29.934","4.71785","28.22","0","SATNPRO1964","29.732","0.41644","5"],
    [57935,"HCEP03730563","2025-08-22 21:45:00","10.6584","3.36437","26.086","2.591","7.47","0.464","6.244","0.04","0.4","29.9318","4.71751","28.2","0","SATNPRO1964","29.56","0.41404","5"],
    [57936,"HCEP03730563","2025-08-22 22:00:00","10.6597","3.36403","25.964","2.59","7.47","0.438","6.065","0.04","0.3","29.9274","4.71685","28.19","0","SATNPRO1964","29.56","0.41404","5"],
    [57937,"HCEP03730563","2025-08-22 22:15:00","10.6608","3.36385","25.898","2.611","7.48","0.453","5.594","0.03","0.22","29.9248","4.71646","28.41","0","SATNPRO1964","29.646","0.41526","5"],
    [57938,"HCEP03730563","2025-08-22 22:30:00","10.6607","3.36382","25.875","2.614","7.48","0.449","5.916","0.05","0.38","29.9245","4.71642","28.45","0","SATNPRO1964","29.59","0.41446","5"],
    [57939,"HCEP03730563","2025-08-22 22:45:00","10.6615","3.36366","25.873","2.621","7.48","0.439","5.073","0.03","0.33","29.9222","4.71609","28.53","0","SATNPRO1964","29.644000000000002","0.4152","5"],
    [57940,"HCEP03730563","2025-08-22 23:00:00","10.6618","3.36366","25.892","2.635","7.48","0.431","5.398","0.05","0.29","29.922","4.71606","28.67","0","SATNPRO1964","29.544","0.41384","5"],
    [57941,"HCEP03730563","2025-08-22 23:15:00","10.6618","3.36363","25.932","2.632","7.48","0.427","5.003","0.03","0.27","29.9217","4.71601","28.64","0","SATNPRO1964","29.68","0.41572","5"],
    [57942,"HCEP03730563","2025-08-22 23:30:00","10.663","3.36347","25.976","2.643","7.48","0.43","5.051","0.04","0.42","29.9191","4.71563","28.76","0","SATNPRO1964","29.594","0.4145","5"],
    [57943,"HCEP03730563","2025-08-22 23:45:00","10.6633","3.36347","26.047","2.667","7.48","0.444","4.809","0.04","0.2","29.9188","4.71559","29.02","0","SATNPRO1964","30.04","0.42074","5"],
    [57944,"HCEP03730563","2025-08-23 00:00:00","10.661","3.36374","26.119","2.652","7.48","0.43","5.395","0.03","0.25","29.9233","4.71627","28.86","0","SATNPRO1964","29.334","0.41084","5"],
    [57945,"HCEP03730563","2025-08-23 00:15:00","10.6613","3.36374","26.202","2.621","7.48","0.418","5.197","0.03","0.31","29.923","4.71622","28.53","0","SATNPRO1964","29.376","0.41144","5"],
    [57946,"HCEP03730563","2025-08-23 00:30:00","10.6604","3.36394","26.302","2.604","7.48","0.419","5.113","0.04","0.17","29.9257","4.71662","28.34","0","SATNPRO1964","29.482","0.41292","5"],
    [57947,"HCEP03730563","2025-08-23 00:45:00","10.6597","3.36391","26.393","2.576","7.47","0.459","5.481","0.03","0.35","29.9259","4.71668","28.03","0","SATNPRO1964","29.444","0.41238","5"],
    [57948,"HCEP03730563","2025-08-23 01:00:00","10.6597","3.36391","26.496","2.562","7.47","0.452","5.597","0.06","0.34","29.926","4.71668","27.88","0","SATNPRO1964","29.036","0.40674","5"],
    [57949,"HCEP03730563","2025-08-23 01:15:00","10.6597","3.36389","26.596","2.541","7.47","0.469","5.557","0.05","0.38","29.9257","4.71666","27.65","0","SATNPRO1964","29.342","0.41098","5"],
    [57950,"HCEP03730563","2025-08-23 01:30:00","10.6596","3.36393","26.695","2.533","7.47","0.417","4.951","0.03","0.28","29.9261","4.71672","27.56","0","SATNPRO1964","29.38","0.41152","5"],
    [57951,"HCEP03730563","2025-08-23 01:45:00","10.6597","3.36401","26.795","2.542","7.47","0.434","4.767","0.03","0.23","29.9268","4.71682","27.66","0","SATNPRO1964","29.138","0.40814","5"],
    [57952,"HCEP03730563","2025-08-23 02:00:00","10.6593","3.36413","26.902","2.549","7.47","0.417","5.004","0.03","1.13","29.9282","4.71704","27.74","0","SATNPRO1964","29.424","0.41208","5"],
    [57953,"HCEP03730563","2025-08-23 02:15:00","10.6586","3.3643","27.004","2.548","7.47","0.463","4.549","0.06","0.22","29.9305","4.71738","27.73","0","SATNPRO1964","29.416","0.41204","5"],
    [57954,"HCEP03730563","2025-08-23 02:30:00","10.66","3.36421","27.105","2.566","7.47","0.389","4.315","0.02","0.21","29.9284","4.71706","27.92","0","SATNPRO1964","29.546","0.41386","5"],
    [57955,"HCEP03730563","2025-08-23 02:45:00","10.6588","3.36437","27.201","2.584","7.47","0.432","4.51","0.05","0.38","29.931","4.71746","28.12","0","SATNPRO1964","29.37","0.41138","5"],
    [57956,"HCEP03730563","2025-08-23 03:00:00","10.6592","3.36429","27.291","2.569","7.47","0.424","4.062","0.05","0.2","29.9298","4.71728","27.96","0","SATNPRO1964","29.542","0.41378","5"],
    [57957,"HCEP03730563","2025-08-23 03:15:00","10.661","3.36389","27.371","2.596","7.47","0.432","3.901","0.06","0.12","29.9244","4.71649","28.25","0","SATNPRO1964","29.712","0.41618","5"],
    [57958,"HCEP03730563","2025-08-23 03:30:00","10.663","3.3635","27.433","2.63","7.48","0.443","3.144","0.2","0.13","29.9189","4.71567","28.63","0","SATNPRO1964","29.844","0.41806","5"],
    [57959,"HCEP03730563","2025-08-23 03:45:00","10.6599","3.36395","27.485","2.627","7.48","0.538","4.39","0.28","0.35","29.9258","4.71671","28.59","0","SATNPRO1964","29.418","0.41204","5"],
    [57960,"HCEP03730563","2025-08-23 04:00:00","10.6646","3.36282","27.492","2.638","7.48","0.375","3.284","0.04","0.22","29.9108","4.71451","28.71","0","SATNPRO1964","29.512","0.41336","5"],
    [57961,"HCEP03730563","2025-08-23 04:15:00","10.6587","3.36392","27.503","2.621","7.48","0.44","4.697","0.03","0.23","29.9265","4.71683","28.52","0","SATNPRO1964","29.154","0.40834","5"],
    [57962,"HCEP03730563","2025-08-23 04:30:00","10.6582","3.36384","27.485","2.532","7.47","0.456","5.639","0.05","0.52","29.926","4.71677","27.55","0","SATNPRO1964","29.066","0.4071","5"],
    [57963,"HCEP03730563","2025-08-23 04:45:00","10.6584","3.36371","27.464","2.496","7.47","0.434","4.892","0.03","0.22","29.9247","4.71659","27.16","0","SATNPRO1964","29.02","0.40646","5"],
    [57964,"HCEP03730563","2025-08-23 05:00:00","10.6587","3.36349","27.394","2.488","7.47","0.428","4.446","0.06","0.17","29.9223","4.71623","27.08","0","SATNPRO1964","28.868","0.40438","5"],
    [57965,"HCEP03730563","2025-08-23 05:15:00","10.66","3.36317","27.32","2.481","7.47","0.445","4.464","0.03","0.33","29.9181","4.71561","26.99","0","SATNPRO1964","28.98","0.40592","5"],
    [57966,"HCEP03730563","2025-08-23 05:30:00","10.6604","3.36292","27.223","2.473","7.46","0.44","4.243","0.06","0.2","29.9154","4.7152","26.91","0","SATNPRO1964","28.936","0.4053","5"],
    [57967,"HCEP03730563","2025-08-23 05:45:00","10.6614","3.36261","27.111","2.465","7.46","0.446","4.219","0.04","0.38","29.9115","4.71464","26.82","0","SATNPRO1964","28.936","0.40528","5"],
    [57968,"HCEP03730563","2025-08-23 06:00:00","10.662","3.36223","26.997","2.458","7.46","0.421","4.128","0.03","0.27","29.9073","4.71402","26.75","0","SATNPRO1964","28.64","0.40118","5"],
    [57969,"HCEP03730563","2025-08-23 06:15:00","10.6628","3.36199","26.826","2.437","7.46","0.459","4.322","0.07","0.29","29.9044","4.71359","26.52","0","SATNPRO1964","28.528","0.3996","5"],
    [57970,"HCEP03730563","2025-08-23 06:30:00","10.6635","3.3616","26.653","2.413","7.46","0.458","4.935","0.04","0.41","29.9","4.71295","26.25","0","SATNPRO1964","28.27","0.39596","5"],
    [57971,"HCEP03730563","2025-08-23 06:45:00","10.6655","3.36094","26.443","2.385","7.46","0.457","4.148","0.04","0.2","29.892","4.71176","25.95","0","SATNPRO1964","28.074","0.39322","5"],
    [57972,"HCEP03730563","2025-08-23 07:00:00","10.6669","3.36082","26.268","2.361","7.45","0.448","4.009","0.09","0.14","29.8896","4.71139","25.69","0","SATNPRO1964","27.938000000000002","0.39134","5"],
    [57973,"HCEP03730563","2025-08-23 07:15:00","10.6671","3.36034","26.079","2.342","7.45","0.51","4.105","0.09","0.19","29.8848","4.7107","25.48","0","SATNPRO1964","27.59","0.38644","5"],
    [57974,"HCEP03730563","2025-08-23 07:30:00","10.6671","3.36026","25.858","2.302","7.45","0.452","3.972","0.06","0.15","29.8842","4.71059","25.05","0","SATNPRO1964","27.57","0.38614","5"],
    [57975,"HCEP03730563","2025-08-23 07:45:00","10.6662","3.36021","25.646","2.277","7.45","0.454","4.158","0.03","0.27","29.8845","4.71063","24.78","0","SATNPRO1964","27.672","0.38758","5"],
    [57976,"HCEP03730563","2025-08-23 08:00:00","10.6664","3.36027","25.44","2.264","7.44","0.461","3.963","0.09","0.3","29.885","4.7107","24.64","0","SATNPRO1964","27.492","0.38504","5"],
    [57977,"HCEP03730563","2025-08-23 08:15:00","10.6784","3.36059","25.218","2.374","7.45","0.446","3.538","0.04","0.2","29.8785","4.70957","25.84","0","SATNPRO1964","28.826","0.40376","5"],
    [57978,"HCEP03730563","2025-08-23 08:30:00","10.6953","3.36091","25.012","2.659","7.47","0.48","2.029","0.27","0.73","29.8679","4.70778","28.94","0","SATNPRO1964","29.89","0.41866","5"],
    [57979,"HCEP03730563","2025-08-23 08:45:00","10.6698","3.36077","24.815","2.69","7.47","0.441","3.721","0.04","0.17","29.8874","4.71094","29.28","0","SATNPRO1964","27.948","0.39148","5"],
    [57980,"HCEP03730563","2025-08-23 09:00:00","10.6712","3.36077","24.607","2.446","7.46","0.481","4.8","0.07","1.73","29.8864","4.71076","26.62","0","SATNPRO1964","28.076","0.39324","5"],
    [57981,"HCEP03730563","2025-08-23 09:15:00","10.6715","3.36085","24.43","2.457","7.46","0.43","2.851","0.05","0.09","29.887","4.71084","26.74","0","SATNPRO1964","28.6","0.4006","5"],
    [57982,"HCEP03730563","2025-08-23 09:30:00","10.669","3.36111","24.25","2.471","7.46","0.402","3.247","0.04","0.13","29.8916","4.71153","26.89","0","SATNPRO1964","28.78","0.40312","5"],
    [57983,"HCEP03730563","2025-08-23 09:45:00","10.6658","3.3611","24.104","2.422","7.46","0.493","4.24","0.08","0.15","29.8942","4.71194","26.35","0","SATNPRO1964","27.908","0.39092","5"],
    [57984,"HCEP03730563","2025-08-23 10:00:00","10.669","3.36159","23.965","2.394","7.46","0.415","3.314","0.04","0.26","29.8965","4.7122","26.05","0","SATNPRO1964","28.848","0.40404","5"],
    [57985,"HCEP03730563","2025-08-23 10:15:00","10.6657","3.36145","23.898","2.416","7.46","0.479","3.821","0.1","0.24","29.8978","4.71244","26.29","0","SATNPRO1964","28.330000000000002","0.39678","5"],
    [57986,"HCEP03730563","2025-08-23 10:30:00","10.6651","3.36154","23.889","2.382","7.45","0.418","3.675","0.03","0.11","29.8991","4.71264","25.92","0","SATNPRO1964","28.024","0.39256","5"],
    [57987,"HCEP03730563","2025-08-23 10:45:00","10.6648","3.36173","23.892","2.373","7.45","0.455","3.819","0.06","0.22","29.9014","4.71296","25.82","0","SATNPRO1964","28.378","0.39748","5"],
    [57988,"HCEP03730563","2025-08-23 11:00:00","10.666","3.36183","23.944","2.404","7.45","0.416","3.677","0.03","0.21","29.9013","4.71293","26.16","0","SATNPRO1964","28.964","0.4057","5"],
    [57989,"HCEP03730563","2025-08-23 11:15:00","10.6653","3.3617","24.003","2.421","7.45","0.481","3.97","0.06","0.17","29.9006","4.71285","26.35","0","SATNPRO1964","28.256","0.39576","5"],
    [57990,"HCEP03730563","2025-08-23 11:30:00","10.6648","3.36141","24.06","2.381","7.45","0.434","3.99","0.03","0.25","29.8981","4.7125","25.91","0","SATNPRO1964","28.6","0.40058","5"],
    [57991,"HCEP03730563","2025-08-23 11:45:00","10.6648","3.36134","24.137","2.353","7.45","0.488","4.182","0.06","0.25","29.8974","4.71241","25.61","0","SATNPRO1964","27.968","0.39176","5"],
    [57992,"HCEP03730563","2025-08-23 12:00:00","10.6742","3.36164","24.258","2.45","7.46","0.438","4.101","0.06","0.43","29.8926","4.71159","26.67","0","SATNPRO1964","27.958","0.39156","5"],
    [57993,"HCEP03730563","2025-08-23 12:15:00","10.6668","3.36167","24.405","2.516","7.46","0.48","4.004","0.06","0.24","29.8988","4.7126","27.38","0","SATNPRO1964","28.948","0.4055","5"],
    [57994,"HCEP03730563","2025-08-23 12:30:00","10.668","3.36157","24.587","2.507","7.46","0.414","3.501","0.03","0.19","29.8969","4.71231","27.29","0","SATNPRO1964","29.068","0.40714","5"],
    [57995,"HCEP03730563","2025-08-23 12:45:00","10.6655","3.36144","24.8","2.468","7.46","0.484","4.504","0.06","0.19","29.8976","4.71246","26.85","0","SATNPRO1964","28.432","0.39826","5"],
    [57996,"HCEP03730563","2025-08-23 13:00:00","10.6648","3.36149","25.012","2.389","7.45","0.524","4.544","0.16","0.24","29.8985","4.71261","26","0","SATNPRO1964","28.688","0.40184","5"],
    [57997,"HCEP03730563","2025-08-23 13:15:00","10.6736","3.36144","25.222","2.414","7.45","0.492","4.115","0.06","0.21","29.8907","4.71137","26.27","0","SATNPRO1964","28.588","0.4004","5"],
    [57998,"HCEP03730563","2025-08-23 13:30:00","10.6703","3.3613","25.449","2.456","7.46","0.464","4.281","0.04","0.3","29.892","4.71163","26.73","0","SATNPRO1964","28.576","0.40024","5"],
    [57999,"HCEP03730563","2025-08-23 13:45:00","10.6703","3.361","25.656","2.44","7.46","0.481","4.517","0.04","0.23","29.8889","4.7112","26.56","0","SATNPRO1964","28.354","0.39714","5"],
    [58000,"HCEP03730563","2025-08-23 14:00:00","10.6697","3.36081","25.831","2.407","7.45","0.485","4.287","0.06","0.19","29.8875","4.71101","26.19","0","SATNPRO1964","28.29","0.39626","5"],
    [58001,"HCEP03730563","2025-08-23 14:15:00","10.6723","3.36054","26.025","2.407","7.45","0.442","3.951","0.04","0.45","29.8827","4.7103","26.19","0","SATNPRO1964","28.26","0.39584","5"],
    [58002,"HCEP03730563","2025-08-23 14:30:00","10.6673","3.36011","26.235","2.355","7.45","0.477","4.625","0.06","0.21","29.8823","4.71034","25.62","0","SATNPRO1964","27.54","0.38574","5"],
    [58003,"HCEP03730563","2025-08-23 14:45:00","10.6653","3.35967","26.479","2.216","7.44","0.522","5.295","0.04","0.34","29.8796","4.71","24.11","0","SATNPRO1964","27.206","0.38108","5"],
    [58004,"HCEP03730563","2025-08-23 15:00:00","10.6664","3.35943","26.704","2.136","7.43","0.453","4.544","0.04","0.3","29.8763","4.70953","23.24","0","SATNPRO1964","26.972","0.37778","5"],
    [58005,"HCEP03730563","2025-08-23 15:15:00","10.6652","3.35944","26.869","2.112","7.43","0.505","4.785","0.06","0.63","29.8772","4.70969","22.98","0","SATNPRO1964","27.122","0.37988","5"],
    [58006,"HCEP03730563","2025-08-23 15:30:00","10.6646","3.35942","27.09","2.083","7.43","0.488","4.824","0.03","0.26","29.8775","4.70974","22.67","0","SATNPRO1964","26.978","0.37788","5"],
    [58007,"HCEP03730563","2025-08-23 15:45:00","10.6638","3.35936","27.231","2.052","7.42","0.535","4.694","0.09","0.23","29.8774","4.70976","22.33","0","SATNPRO1964","26.810000000000002","0.37554","5"],
    [58008,"HCEP03730563","2025-08-23 16:00:00","10.6629","3.35928","27.415","2.035","7.42","0.536","4.738","0.09","0.28","29.8773","4.70976","22.14","0","SATNPRO1964","26.602","0.3726","5"],
    [58009,"HCEP03730563","2025-08-23 16:15:00","10.6635","3.35958","27.529","2.031","7.42","0.543","5.485","0.06","1.46","29.8797","4.7101","22.09","0","SATNPRO1964","26.378","0.36948","5"],
    [58010,"HCEP03730563","2025-08-23 16:30:00","10.6652","3.36017","27.634","2.097","7.42","0.491","4.926","0.06","0.32","29.8842","4.71072","22.82","0","SATNPRO1964","27.582","0.3863","5"],
    [58011,"HCEP03730563","2025-08-23 16:45:00","10.6653","3.36022","27.693","2.17","7.43","0.874","5.191","0.9","0.77","29.8845","4.71077","23.61","0","SATNPRO1964","27.400000000000002","0.38384","5"],
    [58012,"HCEP03730563","2025-08-23 17:00:00","10.6657","3.36021","27.724","2.2","7.43","0.49","4.318","0.1","0.26","29.8841","4.7107","23.94","0","SATNPRO1964","27.862000000000002","0.39024","5"],
    [58013,"HCEP03730563","2025-08-23 17:15:00","10.6646","3.35968","27.761","2.174","7.43","0.484","3.885","0.07","0.2","29.8798","4.71011","23.65","0","SATNPRO1964","26.938","0.3773","5"],
    [58014,"HCEP03730563","2025-08-23 17:30:00","10.6659","3.36008","27.769","2.157","7.43","0.479","4.262","0.08","0.41","29.8826","4.71049","23.47","0","SATNPRO1964","27.588","0.3864","5"],
    [58015,"HCEP03730563","2025-08-23 17:45:00","10.668","3.36031","27.76","2.2","7.43","0.505","4.743","0.06","0.45","29.8832","4.71054","23.94","0","SATNPRO1964","27.564","0.38608","5"],
    [58016,"HCEP03730563","2025-08-23 18:00:00","10.6682","3.36034","27.738","2.235","7.43","0.454","4.346","0.04","0.21","29.8833","4.71055","24.32","0","SATNPRO1964","27.798","0.38936","5"],
    [58017,"HCEP03730563","2025-08-23 18:15:00","10.6684","3.36035","27.716","2.247","7.44","0.52","5.165","0.05","0.28","29.8833","4.71054","24.45","0","SATNPRO1964","27.528","0.38556","5"],
    [58018,"HCEP03730563","2025-08-23 18:30:00","10.6691","3.36024","27.673","2.224","7.44","0.465","4.715","0.05","0.19","29.8816","4.7103","24.2","0","SATNPRO1964","27.622","0.38688","5"],
    [58019,"HCEP03730563","2025-08-23 18:45:00","10.6681","3.36029","27.611","2.199","7.43","0.524","5.662","0.04","0.24","29.883","4.7105","23.93","0","SATNPRO1964","27.388","0.38364","5"],
    [58020,"HCEP03730563","2025-08-23 19:00:00","10.6681","3.3602","27.528","2.145","7.43","0.495","5.713","0.07","0.28","29.8821","4.71038","23.34","0","SATNPRO1964","27.112","0.37972","5"],
    [58021,"HCEP03730563","2025-08-23 19:15:00","10.6694","3.36003","27.442","2.127","7.43","0.494","5.64","0.03","0.32","29.8794","4.70997","23.14","0","SATNPRO1964","27.31","0.38248","5"],
    [58022,"HCEP03730563","2025-08-23 19:30:00","10.6724","3.35997","27.341","2.123","7.43","0.475","5.448","0.06","0.47","29.8764","4.70949","23.11","0","SATNPRO1964","27.422","0.3841","5"],
    [58023,"HCEP03730563","2025-08-23 19:45:00","10.6719","3.35997","27.246","2.146","7.43","0.524","6.014","0.06","0.27","29.8768","4.70954","23.36","0","SATNPRO1964","27.038","0.37868","5"],
    [58024,"HCEP03730563","2025-08-23 20:00:00","10.6728","3.36017","27.133","2.128","7.43","0.464","5.89","0.03","0.38","29.8782","4.70972","23.16","0","SATNPRO1964","27.355999999999998","0.38316","5"],
    [58025,"HCEP03730563","2025-08-23 20:15:00","10.6768","3.36053","27.022","2.202","7.43","0.508","5.931","0.08","0.27","29.8784","4.70967","23.96","0","SATNPRO1964","27.824","0.3897","5"],
    [58026,"HCEP03730563","2025-08-23 20:30:00","10.6768","3.36074","26.897","2.253","7.43","0.459","5.662","0.08","0.27","29.8805","4.70997","24.52","0","SATNPRO1964","28.16","0.3944","5"],
    [58027,"HCEP03730563","2025-08-23 20:45:00","10.6822","3.36146","26.806","2.293","7.44","0.437","4.579","0.03","0.28","29.8833","4.71028","24.96","0","SATNPRO1964","28.124","0.39392","5"],
    [58028,"HCEP03730563","2025-08-23 21:00:00","10.6765","3.36145","26.669","2.398","7.44","0.448","5.834","0.04","0.36","29.8879","4.71101","26.1","0","SATNPRO1964","28.468","0.39876","5"],
    [58029,"HCEP03730563","2025-08-23 21:15:00","10.6779","3.36183","26.53","2.373","7.45","0.469","5.498","0.04","0.33","29.8905","4.71135","25.82","0","SATNPRO1964","28.252","0.39574","5"],
    [58030,"HCEP03730563","2025-08-23 21:30:00","10.6811","3.36188","26.374","2.392","7.45","0.439","5.149","0.05","0.37","29.8885","4.71101","26.04","0","SATNPRO1964","28.44","0.39834","5"],
    [58031,"HCEP03730563","2025-08-23 21:45:00","10.6814","3.3618","26.225","2.404","7.45","0.45","5.229","0.09","0.35","29.8875","4.71086","26.17","0","SATNPRO1964","28.316","0.39666","5"],
    [58032,"HCEP03730563","2025-08-23 22:00:00","10.6762","3.36193","26.072","2.392","7.45","0.429","5.171","0.04","0.28","29.8931","4.71173","26.03","0","SATNPRO1964","28.24","0.39556","5"],
    [58033,"HCEP03730563","2025-08-23 22:15:00","10.6676","3.3626","25.924","2.35","7.45","0.456","6.183","0.03","0.28","29.9068","4.71381","25.58","0","SATNPRO1964","28.536","0.3997","5"],
    [58034,"HCEP03730563","2025-08-23 22:30:00","10.6648","3.36297","25.795","2.328","7.45","0.42","5.67","0.03","0.24","29.9128","4.71469","25.34","0","SATNPRO1964","28.406","0.39784","5"],
    [58035,"HCEP03730563","2025-08-23 22:45:00","10.6637","3.3633","25.706","2.334","7.45","0.431","5.529","0.03","0.51","29.917","4.7153","25.4","0","SATNPRO1964","28.914","0.405","5"],
    [58036,"HCEP03730563","2025-08-23 23:00:00","10.6649","3.36315","25.651","2.358","7.45","0.383","5.086","0.02","0.28","29.9145","4.71493","25.67","0","SATNPRO1964","28.823999999999998","0.4037","5"],
    [58037,"HCEP03730563","2025-08-23 23:15:00","10.6639","3.36313","25.624","2.36","7.45","0.425","5.362","0.03","0.15","29.9152","4.71504","25.68","0","SATNPRO1964","28.732","0.40244","5"],
    [58038,"HCEP03730563","2025-08-23 23:30:00","10.6638","3.36299","25.625","2.34","7.45","0.41","5.327","0.07","0.29","29.9139","4.71485","25.46","0","SATNPRO1964","28.605999999999998","0.40068","5"],
    [58039,"HCEP03730563","2025-08-23 23:45:00","10.6638","3.36295","25.643","2.331","7.45","0.426","5.273","0.06","0.17","29.9135","4.7148","25.37","0","SATNPRO1964","28.72","0.40226","5"],
    [58040,"HCEP03730563","2025-08-24 00:00:00","10.6648","3.36279","25.69","2.333","7.45","0.408","4.811","0.06","0.21","29.9111","4.71444","25.39","0","SATNPRO1964","28.548","0.39988","5"],
    [58041,"HCEP03730563","2025-08-24 00:15:00","10.6656","3.36275","25.76","2.355","7.45","0.384","4.271","0.03","0.15","29.91","4.71428","25.63","0","SATNPRO1964","28.714","0.40222","5"],
    [58042,"HCEP03730563","2025-08-24 00:30:00","10.6654","3.36279","25.87","2.35","7.45","0.389","4.887","0.04","0.29","29.9105","4.71436","25.58","0","SATNPRO1964","28.672","0.4016","5"],
    [58043,"HCEP03730563","2025-08-24 00:45:00","10.6653","3.36278","25.924","2.341","7.45","0.418","5.186","0.03","0.17","29.9104","4.71435","25.47","0","SATNPRO1964","28.848","0.40406","5"],
    [58044,"HCEP03730563","2025-08-24 01:00:00","10.6649","3.36275","26.026","2.33","7.45","0.389","4.803","0.04","0.19","29.9104","4.71436","25.36","0","SATNPRO1964","28.256","0.39578","5"],
    [58045,"HCEP03730563","2025-08-24 01:15:00","10.666","3.36265","26.126","2.321","7.45","0.419","5.064","0.04","0.22","29.9085","4.71408","25.26","0","SATNPRO1964","28.52","0.39946","5"],
    [58046,"HCEP03730563","2025-08-24 01:30:00","10.6653","3.36262","26.237","2.317","7.45","0.398","4.94","0.03","0.16","29.9087","4.71413","25.21","0","SATNPRO1964","28.724","0.4023","5"],
    [58047,"HCEP03730563","2025-08-24 01:45:00","10.6646","3.36269","26.354","2.315","7.45","0.442","5.073","0.05","0.28","29.91","4.71433","25.2","0","SATNPRO1964","28.612","0.40074","5"],
    [58048,"HCEP03730563","2025-08-24 02:00:00","10.6632","3.36278","26.464","2.269","7.45","0.421","5.445","0.05","0.28","29.912","4.71464","24.69","0","SATNPRO1964","28.552","0.39996","5"],
    [58049,"HCEP03730563","2025-08-24 02:15:00","10.6628","3.36281","26.576","2.235","7.44","0.442","5.487","0.03","0.36","29.9126","4.71473","24.32","0","SATNPRO1964","28.248","0.39568","5"],
    [58050,"HCEP03730563","2025-08-24 02:30:00","10.6624","3.36286","26.69","2.215","7.44","0.435","4.933","0.07","0.34","29.9133","4.71485","24.11","0","SATNPRO1964","26.926000000000002","0.37716","5"],
    [58051,"HCEP03730563","2025-08-24 02:45:00","10.6623","3.36284","26.802","2.211","7.44","0.437","5.097","0.04","0.25","29.9132","4.71485","24.06","0","SATNPRO1964","28.378","0.39746","5"],
    [58052,"HCEP03730563","2025-08-24 03:00:00","10.6624","3.36289","26.918","2.204","7.44","0.409","4.85","0.05","0.16","29.9135","4.7149","23.99","0","SATNPRO1964","28.29","0.39626","5"],
    [58053,"HCEP03730563","2025-08-24 03:15:00","10.6613","3.36307","27.031","2.193","7.44","0.47","5.299","0.13","0.66","29.9161","4.71529","23.86","0","SATNPRO1964","28.318","0.39666","5"],
    [58054,"HCEP03730563","2025-08-24 03:30:00","10.6609","3.36324","27.151","2.181","7.44","0.427","5.627","0.04","0.25","29.9181","4.71558","23.73","0","SATNPRO1964","28.194","0.3949","5"],
    [58055,"HCEP03730563","2025-08-24 03:45:00","10.661","3.36343","27.237","2.187","7.44","0.459","5.702","0.04","0.29","29.9199","4.71584","23.81","0","SATNPRO1964","28.436","0.39832","5"],
    [58056,"HCEP03730563","2025-08-24 04:00:00","10.662","3.36341","27.304","2.216","7.44","0.411","4.745","0.06","0.2","29.9188","4.71567","24.12","0","SATNPRO1964","28.428","0.39818","5"],
    [58057,"HCEP03730563","2025-08-24 04:15:00","10.6613","3.36352","27.387","2.224","7.44","0.446","5.299","0.03","0.22","29.9205","4.71593","24.21","0","SATNPRO1964","28.224","0.3953","5"],
    [58058,"HCEP03730563","2025-08-24 04:30:00","10.661","3.36357","27.448","2.206","7.44","0.423","5.215","0.03","0.19","29.9211","4.71603","24.01","0","SATNPRO1964","28.166","0.3945","5"],
    [58059,"HCEP03730563","2025-08-24 04:45:00","10.6619","3.36351","27.464","2.192","7.44","0.472","6.103","0.05","1.67","29.9198","4.71583","23.85","0","SATNPRO1964","28.072","0.3932","5"],
    [58060,"HCEP03730563","2025-08-24 05:00:00","10.6662","3.36344","27.474","2.219","7.44","0.464","5.39","0.09","0.41","29.9156","4.71516","24.15","0","SATNPRO1964","28.346","0.39704","5"],
    [58061,"HCEP03730563","2025-08-24 05:15:00","10.6709","3.36313","27.445","2.285","7.44","0.494","4.772","0.09","0.28","29.9088","4.71412","24.87","0","SATNPRO1964","28.414","0.39798","5"],
    [58062,"HCEP03730563","2025-08-24 05:30:00","10.6717","3.3628","27.409","2.329","7.44","0.454","5.595","0.05","0.35","29.9048","4.71354","25.34","0","SATNPRO1964","28.254","0.39576","5"],
    [58063,"HCEP03730563","2025-08-24 05:45:00","10.6727","3.36263","27.365","2.331","7.45","0.498","4.818","0.15","0.23","29.9023","4.71317","25.37","0","SATNPRO1964","28.328","0.3968","5"],
    [58064,"HCEP03730563","2025-08-24 06:00:00","10.6731","3.36259","27.314","2.328","7.45","0.474","5.28","0.08","0.32","29.9016","4.71306","25.34","0","SATNPRO1964","28.488","0.39904","5"],
    [58065,"HCEP03730563","2025-08-24 06:15:00","10.6736","3.36246","27.217","2.318","7.45","0.474","5.097","0.05","0.31","29.9","4.71281","25.23","0","SATNPRO1964","28.306","0.39648","5"],
    [58066,"HCEP03730563","2025-08-24 06:30:00","10.6754","3.36229","27.107","2.311","7.45","0.452","4.622","0.08","0.22","29.8969","4.71234","25.15","0","SATNPRO1964","28.067999999999998","0.39312","5"],
    [58067,"HCEP03730563","2025-08-24 06:45:00","10.6762","3.3621","26.966","2.306","7.44","0.476","4.827","0.04","0.29","29.8945","4.71197","25.1","0","SATNPRO1964","28.074","0.39326","5"],
    [58068,"HCEP03730563","2025-08-24 07:00:00","10.6773","3.36196","26.819","2.303","7.44","0.457","4.763","0.06","0.36","29.8921","4.71161","25.07","0","SATNPRO1964","28.124000000000002","0.39394","5"],
    [58069,"HCEP03730563","2025-08-24 07:15:00","10.6786","3.36181","26.635","2.302","7.44","0.487","4.438","0.09","0.23","29.8898","4.71125","25.06","0","SATNPRO1964","28.224","0.39532","5"],
    [58070,"HCEP03730563","2025-08-24 07:30:00","10.6783","3.36171","26.473","2.301","7.44","0.454","4.409","0.04","0.21","29.8891","4.71114","25.05","0","SATNPRO1964","27.88","0.39052","5"],
    [58071,"HCEP03730563","2025-08-24 07:45:00","10.6779","3.36166","26.278","2.297","7.44","0.507","4.364","0.1","0.18","29.889","4.71113","25","0","SATNPRO1964","27.998","0.39216","5"],
    [58072,"HCEP03730563","2025-08-24 08:00:00","10.6769","3.3617","26.102","2.295","7.44","0.462","4.673","0.04","0.47","29.8903","4.71131","24.97","0","SATNPRO1964","28.026","0.39258","5"],
    [58073,"HCEP03730563","2025-08-24 08:15:00","10.6751","3.3617","25.909","2.298","7.44","0.478","4.471","0.03","0.26","29.8917","4.71154","25.01","0","SATNPRO1964","28.006","0.39226","5"],
    [58074,"HCEP03730563","2025-08-24 08:30:00","10.675","3.36164","25.724","2.288","7.44","0.464","4.702","0.04","0.24","29.8913","4.71147","24.9","0","SATNPRO1964","28.05","0.39292","5"],
    [58075,"HCEP03730563","2025-08-24 08:45:00","10.6745","3.3617","25.515","2.278","7.44","0.498","4.556","0.06","0.21","29.8924","4.71163","24.79","0","SATNPRO1964","28.118","0.39386","5"],
    [58076,"HCEP03730563","2025-08-24 09:00:00","10.6741","3.362","25.313","2.301","7.44","0.459","3.919","0.06","0.21","29.8958","4.7121","25.04","0","SATNPRO1964","28.322","0.39668","5"],
    [58077,"HCEP03730563","2025-08-24 09:15:00","10.6747","3.36223","25.104","2.338","7.45","0.472","3.769","0.05","0.18","29.8976","4.71234","25.45","0","SATNPRO1964","28.494","0.39908","5"],
    [58078,"HCEP03730563","2025-08-24 09:30:00","10.6747","3.3625","24.915","2.374","7.45","0.456","3.482","0.09","0.25","29.9005","4.71274","25.84","0","SATNPRO1964","28.574","0.40022","5"],
    [58079,"HCEP03730563","2025-08-24 09:45:00","10.675","3.36254","24.729","2.412","7.45","0.473","3.619","0.1","0.58","29.9006","4.71274","26.25","0","SATNPRO1964","28.722","0.4023","5"],
    [58080,"HCEP03730563","2025-08-24 10:00:00","10.6746","3.36247","24.558","2.403","7.45","0.445","3.696","0.07","0.24","29.9004","4.7127","26.16","0","SATNPRO1964","28.588","0.40046","5"],
    [58081,"HCEP03730563","2025-08-24 10:15:00","10.6745","3.36254","24.374","2.388","7.45","0.479","3.569","0.09","0.17","29.9012","4.7128","25.99","0","SATNPRO1964","28.744","0.40262","5"],
    [58082,"HCEP03730563","2025-08-24 10:30:00","10.6742","3.36252","24.287","2.393","7.45","0.551","3.522","0.61","0.15","29.9012","4.71281","26.04","0","SATNPRO1964","28.776","0.40304","5"],
    [58083,"HCEP03730563","2025-08-24 10:45:00","10.6745","3.36266","24.226","2.405","7.45","0.432","3.011","0.07","0.08","29.9024","4.71298","26.18","0","SATNPRO1964","28.594","0.40052","5"],
    [58084,"HCEP03730563","2025-08-24 11:00:00","10.673400000000001","3.36223","24.196","2.397","7.45","0.445","3.637","0.07","0.11","29.899","4.71251","26.09","0","SATNPRO1964","28.56","0.40002","5"],
    [58085,"HCEP03730563","2025-08-24 11:15:00","10.6667","3.36141","24.142","2.322","7.45","0.431","3.349","0.03","0.19","29.8965","4.71225","25.27","0","SATNPRO1964","27.526","0.38554","5"],
    [58086,"HCEP03730563","2025-08-24 11:30:00","10.6622","3.36061","24.167","2.168","7.44","0.399","3.44","0.02","0.11","29.8923","4.71173","23.59","0","SATNPRO1964","27.314","0.38258","5"],
    [58087,"HCEP03730563","2025-08-24 11:45:00","10.6674","3.36027","24.216","2.069","7.43","1.588","18.976","2.24","23.09","29.8847","4.71056","22.51","0","SATNPRO1964","26.712","0.37416","5"],
    [58088,"HCEP03730563","2025-08-24 12:00:00","10.6723","3.36056","24.274","2.06","7.43","0.428","3.774","0.03","0.17","29.8835","4.71032","22.42","0","SATNPRO1964","26.948","0.37744","5"],
    [58089,"HCEP03730563","2025-08-24 12:15:00","10.6994","3.36202","24.325","2.266","7.44","0.38","1.943","0.03","0.2","29.8757","4.70879","24.67","0","SATNPRO1964","29.132","0.40804","5"],
    [58090,"HCEP03730563","2025-08-24 12:30:00","10.6653","3.36143","24.45","2.354","7.44","0.442","4.236","0.03","0.15","29.8977","4.71246","25.62","0","SATNPRO1964","27.54","0.38572","5"],
    [58091,"HCEP03730563","2025-08-24 12:45:00","10.6642","3.36133","24.601","2.183","7.44","0.455","3.928","0.04","0.12","29.8977","4.71248","23.75","0","SATNPRO1964","27.686","0.38778","5"],
    [58092,"HCEP03730563","2025-08-24 13:00:00","10.6599","3.36102","24.764","2.074","7.43","0.502","5.376","0.06","0.21","29.898","4.7126","22.56","0","SATNPRO1964","26.608","0.3727","5"],
    [58093,"HCEP03730563","2025-08-24 13:15:00","10.657","3.36093","24.948","1.916","7.42","0.484","4.984","0.03","0.37","29.8993","4.71285","20.84","0","SATNPRO1964","26.898","0.37672","5"],
    [58094,"HCEP03730563","2025-08-24 13:30:00","10.6592","3.36082","25.138","1.91","7.41","0.479","4.401","0.13","0.16","29.8964","4.71241","20.79","0","SATNPRO1964","26.669999999999998","0.3736","5"],
    [58095,"HCEP03730563","2025-08-24 13:45:00","10.6589","3.36116","25.326","1.95","7.41","0.505","5.101","0.12","0.24","29.8999","4.71293","21.22","0","SATNPRO1964","26.764","0.37488","5"],
    [58096,"HCEP03730563","2025-08-24 14:00:00","10.6563","3.36157","25.504","1.957","7.41","0.464","4.672","0.06","0.19","29.9061","4.71385","21.29","0","SATNPRO1964","27.134","0.38006","5"],
    [58097,"HCEP03730563","2025-08-24 14:15:00","10.6551","3.36186","25.703","1.969","7.42","0.529","5.423","0.07","0.18","29.9098","4.71442","21.43","0","SATNPRO1964","26.896","0.3767","5"],
    [58098,"HCEP03730563","2025-08-24 14:30:00","10.6549","3.36193","25.911","1.957","7.41","0.468","5.36","0.04","0.43","29.9105","4.71453","21.29","0","SATNPRO1964","27.112","0.37974","5"],
    [58099,"HCEP03730563","2025-08-24 14:45:00","10.6573","3.36184","26.113","1.964","7.41","0.504","5.349","0.03","0.22","29.9076","4.71409","21.37","0","SATNPRO1964","27.044","0.3788","5"],
    [58100,"HCEP03730563","2025-08-24 15:00:00","10.6586","3.36172","26.318","1.977","7.42","0.499","5.112","0.06","0.17","29.9053","4.71376","21.51","0","SATNPRO1964","27.142","0.38018","5"],
    [58101,"HCEP03730563","2025-08-24 15:15:00","10.6615","3.36143","26.516","1.976","7.42","0.515","5.31","0.04","0.35","29.9001","4.71297","21.5","0","SATNPRO1964","27.112","0.37974","5"],
    [58102,"HCEP03730563","2025-08-24 15:30:00","10.6731","3.36123","26.726","2.031","7.42","0.468","4.107","0.08","0.26","29.8885","4.71116","22.11","0","SATNPRO1964","27.668","0.3875","5"],
    [58103,"HCEP03730563","2025-08-24 15:45:00","10.6754","3.36109","26.923","2.174","7.43","0.461","3.693","0.07","0.18","29.8852","4.71066","23.66","0","SATNPRO1964","27.626","0.38696","5"],
    [58104,"HCEP03730563","2025-08-24 16:00:00","10.6719","3.36121","27.121","2.165","7.43","0.484","4.687","0.07","0.28","29.8891","4.71129","23.56","0","SATNPRO1964","27.342","0.38296","5"],
    [58105,"HCEP03730563","2025-08-24 16:15:00","10.6724","3.36124","27.27","2.125","7.43","0.517","4.572","0.06","0.17","29.8889","4.71126","23.12","0","SATNPRO1964","27.386","0.38358","5"],
    [58106,"HCEP03730563","2025-08-24 16:30:00","10.6725","3.36124","27.423","2.117","7.43","0.531","4.222","0.14","0.14","29.8888","4.71125","23.04","0","SATNPRO1964","27.402","0.38382","5"],
    [58107,"HCEP03730563","2025-08-24 16:45:00","10.6726","3.36124","27.546","2.113","7.43","0.528","5.464","0.06","0.4","29.8887","4.71124","22.99","0","SATNPRO1964","27.546","0.38584","5"],
    [58108,"HCEP03730563","2025-08-24 17:00:00","10.6723","3.36122","27.643","2.104","7.43","0.506","5.07","0.07","0.26","29.8887","4.71125","22.9","0","SATNPRO1964","27.656000000000002","0.38734","5"],
    [58109,"HCEP03730563","2025-08-24 17:15:00","10.6694","3.36124","27.714","2.083","7.43","0.528","5.607","0.05","0.34","29.8912","4.71165","22.66","0","SATNPRO1964","27.152","0.3803","5"],
    [58110,"HCEP03730563","2025-08-24 17:30:00","10.6592","3.36234","27.777","2.057","7.42","0.622","5.999","0.21","0.4","29.9104","4.71456","22.39","0","SATNPRO1964","27.514","0.3854","5"],
    [58111,"HCEP03730563","2025-08-24 17:45:00","10.6579","3.36279","27.808","2.083","7.42","0.544","5.616","0.1","0.48","29.9159","4.71535","22.67","0","SATNPRO1964","27.924","0.39114","5"],
    [58112,"HCEP03730563","2025-08-24 18:00:00","10.6581","3.36276","27.819","2.118","7.43","0.48","5.756","0.08","0.66","29.9154","4.71529","23.04","0","SATNPRO1964","28.074","0.39322","5"],
    [58113,"HCEP03730563","2025-08-24 18:15:00","10.6582","3.36278","27.788","2.133","7.43","0.545","4.85","0.3","0.45","29.9155","4.7153","23.21","0","SATNPRO1964","28.062","0.39306","5"],
    [58114,"HCEP03730563","2025-08-24 18:30:00","10.6575","3.36259","27.771","2.125","7.43","0.488","5.578","0.05","0.53","29.9142","4.71511","23.12","0","SATNPRO1964","27.913999999999998","0.391","5"],
    [58115,"HCEP03730563","2025-08-24 18:45:00","10.6599","3.3626","27.726","2.115","7.43","0.468","4.322","0.05","0.4","29.9124","4.71483","23.02","0","SATNPRO1964","28.192","0.39486","5"],
    [58116,"HCEP03730563","2025-08-24 19:00:00","10.6615","3.36234","27.677","2.148","7.43","0.451","4.171","0.04","0.19","29.9086","4.71425","23.37","0","SATNPRO1964","27.968","0.39176","5"],
    [58117,"HCEP03730563","2025-08-24 19:15:00","10.6611","3.36233","27.609","2.139","7.43","0.498","3.809","0.17","0.24","29.9087","4.71427","23.28","0","SATNPRO1964","27.724","0.38832","5"],
    [58118,"HCEP03730563","2025-08-24 19:30:00","10.6591","3.36207","27.509","2.113","7.43","0.435","4.276","0.04","0.21","29.9079","4.71419","22.99","0","SATNPRO1964","27.544","0.38578","5"],
    [58119,"HCEP03730563","2025-08-24 19:45:00","10.6589","3.36142","27.412","2.016","7.42","0.493","5.188","0.08","0.29","29.9017","4.7133","21.94","0","SATNPRO1964","26.882","0.3765","5"],
    [58120,"HCEP03730563","2025-08-24 20:00:00","10.6606","3.36131","27.315","1.915","7.42","0.478","6.108","0.11","0.24","29.8993","4.71293","20.84","0","SATNPRO1964","26.856","0.37618","5"],
    [58121,"HCEP03730563","2025-08-24 20:15:00","10.6606","3.36127","27.233","1.895","7.41","0.483","6.83","0.03","0.37","29.8988","4.71285","20.62","0","SATNPRO1964","26.674","0.37362","5"],
    [58122,"HCEP03730563","2025-08-24 20:30:00","10.6639","3.36102","27.085","1.877","7.41","0.473","7.84","0.04","0.46","29.8938","4.71207","20.42","0","SATNPRO1964","26.738","0.37452","5"],
    [58123,"HCEP03730563","2025-08-24 20:45:00","10.664","3.36105","26.974","1.88","7.41","0.493","6.503","0.08","0.41","29.894","4.7121","20.46","0","SATNPRO1964","26.856","0.37618","5"],
    [58124,"HCEP03730563","2025-08-24 21:00:00","10.6703","3.36116","26.853","1.914","7.41","0.45","5.836","0.04","0.44","29.89","4.71143","20.83","0","SATNPRO1964","26.996","0.37816","5"],
    [58125,"HCEP03730563","2025-08-24 21:15:00","10.6745","3.36133","26.724","1.986","7.41","0.474","5.785","0.03","0.24","29.8884","4.71112","21.62","0","SATNPRO1964","27.062","0.37904","5"],
    [58126,"HCEP03730563","2025-08-24 21:30:00","10.6766","3.36146","26.593","2.034","7.42","0.494","5.745","0.1","0.3","29.8879","4.71101","22.13","0","SATNPRO1964","27.282","0.38216","5"],
    [58127,"HCEP03730563","2025-08-24 21:45:00","10.677","3.36158","26.432","2.061","7.42","0.484","5.397","0.05","0.25","29.8889","4.71113","22.43","0","SATNPRO1964","27.346","0.38302","5"],
    [58128,"HCEP03730563","2025-08-24 22:00:00","10.676","3.3617","26.293","2.089","7.42","0.453","5.983","0.03","0.43","29.8909","4.71143","22.74","0","SATNPRO1964","27.564","0.3861","5"],
    [58129,"HCEP03730563","2025-08-24 22:15:00","10.6747","3.36176","26.104","2.097","7.42","0.5","5.8","0.04","0.31","29.8927","4.71169","22.82","0","SATNPRO1964","27.508","0.3853","5"],
    [58130,"HCEP03730563","2025-08-24 22:30:00","10.6767","3.36158","25.974","2.097","7.42","0.45","5.406","0.05","0.26","29.8893","4.71117","22.82","0","SATNPRO1964","27.6","0.38658","5"],
    [58131,"HCEP03730563","2025-08-24 22:45:00","10.6741","3.36142","25.768","2.101","7.42","0.461","5.221","0.05","0.38","29.8899","4.71129","22.87","0","SATNPRO1964","27.456","0.3846","5"],
    [58132,"HCEP03730563","2025-08-24 23:00:00","10.6725","3.36171","25.591","2.082","7.42","0.459","5.559","0.05","0.33","29.8941","4.7119","22.66","0","SATNPRO1964","27.596","0.3865","5"],
    [58133,"HCEP03730563","2025-08-24 23:15:00","10.6733","3.36233","25.46","2.129","7.43","0.472","5.711","0.06","0.29","29.8996","4.71266","23.17","0","SATNPRO1964","27.994","0.39214","5"],
    [58134,"HCEP03730563","2025-08-24 23:30:00","10.6738","3.36277","25.365","2.165","7.43","0.431","5.634","0.04","0.32","29.9036","4.71322","23.56","0","SATNPRO1964","28.238","0.39552","5"],
    [58135,"HCEP03730563","2025-08-24 23:45:00","10.6773","3.36304","25.316","2.211","7.43","0.42","4.536","0.02","0.27","29.9034","4.71313","24.06","0","SATNPRO1964","28.378","0.3975","5"],
    [58136,"HCEP03730563","2025-08-25 00:00:00","10.6782","3.36302","25.31","2.267","7.44","0.39","4.292","0.04","0.25","29.9025","4.71299","24.68","0","SATNPRO1964","28.428","0.39814","5"],
    [58137,"HCEP03730563","2025-08-25 00:15:00","10.6773","3.36289","25.346","2.28","7.44","0.424","3.975","0.04","0.15","29.9019","4.71293","24.82","0","SATNPRO1964","28.678","0.40168","5"],
    [58138,"HCEP03730563","2025-08-25 00:30:00","10.6767","3.36293","25.402","2.273","7.44","0.403","4.033","0.03","0.16","29.9029","4.71307","24.74","0","SATNPRO1964","28.36","0.39726","5"],
    [58139,"HCEP03730563","2025-08-25 00:45:00","10.6729","3.36311","25.467","2.237","7.44","0.439","4.537","0.05","0.18","29.9077","4.71382","24.35","0","SATNPRO1964","28.598","0.40058","5"],
    [58140,"HCEP03730563","2025-08-25 01:00:00","10.6701","3.3631","25.548","2.167","7.43","0.458","4.915","0.1","0.27","29.9098","4.71417","23.58","0","SATNPRO1964","27.926","0.39114","5"],
    [58141,"HCEP03730563","2025-08-25 01:15:00","10.6692","3.36295","25.658","2.102","7.43","0.452","5.452","0.04","0.31","29.9091","4.71408","22.88","0","SATNPRO1964","27.916","0.391","5"],
    [58142,"HCEP03730563","2025-08-25 01:30:00","10.6696","3.36286","25.756","2.063","7.43","0.481","5.279","0.09","0.17","29.9077","4.71389","22.45","0","SATNPRO1964","27.77","0.38894","5"],
    [58143,"HCEP03730563","2025-08-25 01:45:00","10.6694","3.36279","25.851","2.047","7.42","0.459","5.77","0.03","0.3","29.9073","4.71384","22.28","0","SATNPRO1964","27.564","0.38608","5"],
    [58144,"HCEP03730563","2025-08-25 02:00:00","10.6697","3.3627","25.96","2.05","7.42","0.448","5.616","0.05","0.32","29.906","4.71366","22.31","0","SATNPRO1964","27.282","0.38214","5"],
    [58145,"HCEP03730563","2025-08-25 02:15:00","10.6692","3.36268","26.074","2.052","7.42","0.499","5.413","0.05","0.19","29.9063","4.71371","22.33","0","SATNPRO1964","28.466","0.39872","5"],
    [58146,"HCEP03730563","2025-08-25 02:30:00","10.6699","3.3626","26.186","2.062","7.42","0.416","4.66","0.04","0.15","29.9048","4.71349","22.44","0","SATNPRO1964","27.662","0.38744","5"],
    [58147,"HCEP03730563","2025-08-25 02:45:00","10.6693","3.36241","26.293","2.054","7.42","0.483","4.943","0.05","0.24","29.9035","4.71332","22.36","0","SATNPRO1964","27.36","0.38324","5"],
    [58148,"HCEP03730563","2025-08-25 03:00:00","10.6686","3.36242","26.415","2.027","7.42","0.414","4.769","0.05","0.3","29.9041","4.71342","22.07","0","SATNPRO1964","27.48","0.38492","5"],
    [58149,"HCEP03730563","2025-08-25 03:15:00","10.6694","3.36224","26.541","2.009","7.42","0.419","4.587","0.04","0.7","29.9015","4.71306","21.87","0","SATNPRO1964","27.45","0.3845","5"],
    [58150,"HCEP03730563","2025-08-25 03:30:00","10.6698","3.36223","26.689","1.999","7.42","0.44","4.41","0.1","0.19","29.9011","4.71299","21.76","0","SATNPRO1964","27.628","0.38698","5"],
    [58151,"HCEP03730563","2025-08-25 03:45:00","10.6697","3.36231","26.821","2.007","7.42","0.452","4.506","0.08","0.16","29.9018","4.71311","21.84","0","SATNPRO1964","27.584","0.38636","5"],
    [58152,"HCEP03730563","2025-08-25 04:00:00","10.6683","3.3626","26.942","2.002","7.42","0.477","4.686","0.31","0.19","29.9059","4.71371","21.79","0","SATNPRO1964","27.646","0.38726","5"],
    [58153,"HCEP03730563","2025-08-25 04:15:00","10.6676","3.36276","27.073","1.977","7.42","0.452","5.078","0.04","0.29","29.9079","4.71402","21.52","0","SATNPRO1964","27.808","0.38946","5"],
    [58154,"HCEP03730563","2025-08-25 04:30:00","10.6678","3.36281","27.18","1.974","7.42","0.438","5.102","0.04","0.23","29.9082","4.71407","21.48","0","SATNPRO1964","27.468","0.38472","5"],
    [58155,"HCEP03730563","2025-08-25 04:45:00","10.6674","3.36288","27.27","1.968","7.42","0.482","5.18","0.05","0.23","29.9092","4.71422","21.42","0","SATNPRO1964","27.478","0.38488","5"],
    [58156,"HCEP03730563","2025-08-25 05:00:00","10.6677","3.36296","27.352","1.97","7.42","0.471","4.998","0.09","0.31","29.9097","4.71429","21.44","0","SATNPRO1964","27.529999999999998","0.3856","5"],
    [58157,"HCEP03730563","2025-08-25 05:15:00","10.6677","3.36296","27.41","1.976","7.42","0.486","4.828","0.07","0.21","29.9097","4.71429","21.5","0","SATNPRO1964","26.970000000000002","0.37776","5"],
    [58158,"HCEP03730563","2025-08-25 05:30:00","10.6672","3.36304","27.438","1.973","7.42","0.444","4.725","0.08","0.17","29.9108","4.71446","21.47","0","SATNPRO1964","27.39","0.38364","5"],
    [58159,"HCEP03730563","2025-08-25 05:45:00","10.6678","3.36313","27.448","1.965","7.42","0.5","4.868","0.13","0.18","29.9112","4.71451","21.38","0","SATNPRO1964","27.66","0.38742","5"],
    [58160,"HCEP03730563","2025-08-25 06:00:00","10.6685","3.36311","27.434","1.975","7.42","0.435","5.006","0.04","0.2","29.9105","4.7144","21.5","0","SATNPRO1964","27.508","0.38528","5"],
    [58161,"HCEP03730563","2025-08-25 06:15:00","10.669","3.36311","27.388","1.977","7.42","0.492","5.186","0.13","0.35","29.9101","4.71433","21.52","0","SATNPRO1964","27.614","0.3868","5"],
    [58162,"HCEP03730563","2025-08-25 06:30:00","10.6697","3.36309","27.332","1.978","7.42","0.591","5.133","0.42","0.24","29.9094","4.71421","21.53","0","SATNPRO1964","27.708000000000002","0.3881","5"],
    [58163,"HCEP03730563","2025-08-25 06:45:00","10.6703","3.3631","27.244","1.989","7.42","0.535","6.178","0.07","0.68","29.9091","4.71416","21.65","0","SATNPRO1964","27.394","0.38372","5"],
    [58164,"HCEP03730563","2025-08-25 07:00:00","10.6713","3.36299","27.154","2.006","7.42","0.433","4.716","0.04","0.22","29.9071","4.71386","21.84","0","SATNPRO1964","27.486","0.38498","5"],
    [58165,"HCEP03730563","2025-08-25 07:15:00","10.6718","3.36284","27.058","2.041","7.42","0.43","4.104","0.03","0.21","29.9053","4.71359","22.21","0","SATNPRO1964","27.57","0.3862","5"],
    [58166,"HCEP03730563","2025-08-25 07:30:00","10.6723","3.36274","26.93","2.051","7.42","0.45","4.448","0.06","0.19","29.9039","4.71338","22.32","0","SATNPRO1964","27.766000000000002","0.38892","5"],
    [58167,"HCEP03730563","2025-08-25 07:45:00","10.6721","3.36246","26.795","2.04","7.42","0.489","4.548","0.1","0.23","29.9014","4.71301","22.2","0","SATNPRO1964","26.896","0.37672","5"],
    [58168,"HCEP03730563","2025-08-25 08:00:00","10.6721","3.36224","26.652","2.024","7.42","0.435","4.293","0.04","0.15","29.8993","4.7127","22.03","0","SATNPRO1964","27.488","0.38504","5"],
    [58169,"HCEP03730563","2025-08-25 08:15:00","10.6718","3.36224","26.484","2.014","7.42","0.487","4.162","0.06","0.38","29.8996","4.71274","21.92","0","SATNPRO1964","27.35","0.38308","5"],
    [58170,"HCEP03730563","2025-08-25 08:30:00","10.6718","3.36202","26.333","2.008","7.42","0.464","4.223","0.07","0.25","29.8975","4.71244","21.86","0","SATNPRO1964","27.52","0.38548","5"],
    [58171,"HCEP03730563","2025-08-25 08:45:00","10.6727","3.36195","26.171","2.004","7.42","0.452","4.029","0.03","0.24","29.8961","4.71222","21.81","0","SATNPRO1964","27.27","0.38194","5"],
    [58172,"HCEP03730563","2025-08-25 09:00:00","10.6721","3.36199","26.005","1.998","7.42","0.453","3.781","0.1","0.2","29.8971","4.71235","21.74","0","SATNPRO1964","27.348","0.38306","5"],
    [58173,"HCEP03730563","2025-08-25 09:15:00","10.6723","3.36204","25.801","1.995","7.42","0.487","4.188","0.04","0.2","29.8975","4.7124","21.71","0","SATNPRO1964","27.334","0.38288","5"],
    [58174,"HCEP03730563","2025-08-25 09:30:00","10.6715","3.36205","25.615","1.991","7.42","0.439","3.939","0.06","0.17","29.8983","4.71251","21.67","0","SATNPRO1964","27.433999999999997","0.3843","5"],
    [58175,"HCEP03730563","2025-08-25 09:45:00","10.6713","3.36221","25.431","1.991","7.42","0.456","4.056","0.03","0.2","29.9001","4.71277","21.67","0","SATNPRO1964","27.442","0.38438","5"],
    [58176,"HCEP03730563","2025-08-25 10:00:00","10.6708","3.36233","25.252","1.992","7.42","0.438","4.03","0.04","0.24","29.9017","4.71299","21.68","0","SATNPRO1964","27.366","0.38332","5"],
    [58177,"HCEP03730563","2025-08-25 10:15:00","10.67","3.36179","25.06","1.986","7.42","0.49","3.786","0.23","0.12","29.8972","4.71234","21.61","0","SATNPRO1964","27.35","0.3831","5"],
    [58178,"HCEP03730563","2025-08-25 10:30:00","10.6692","3.36178","24.908","1.97","7.41","0.431","3.629","0.06","0.19","29.8979","4.71245","21.44","0","SATNPRO1964","27.136","0.38008","5"],
    [58179,"HCEP03730563","2025-08-25 10:45:00","10.669","3.36202","24.767","1.959","7.41","0.488","4.063","0.13","0.14","29.9003","4.71279","21.32","0","SATNPRO1964","27.112000000000002","0.37974","5"],
    [58180,"HCEP03730563","2025-08-25 11:00:00","10.6682","3.36201","24.649","1.941","7.41","0.569","4.387","0.5","0.16","29.9009","4.71288","21.12","0","SATNPRO1964","27.47","0.38476","5"],
    [58181,"HCEP03730563","2025-08-25 11:15:00","10.6671","3.36185","24.57","1.931","7.41","0.447","3.986","0.04","0.2","29.9004","4.71282","21.01","0","SATNPRO1964","27.282","0.38216","5"],
    [58182,"HCEP03730563","2025-08-25 11:30:00","10.6678","3.36179","24.547","1.94","7.41","0.466","3.831","0.06","0.22","29.8992","4.71264","21.11","0","SATNPRO1964","27.264","0.38188","5"],
    [58183,"HCEP03730563","2025-08-25 11:45:00","10.6671","3.36195","24.508","1.923","7.41","0.52","4.886","0.05","0.19","29.9014","4.71296","20.93","0","SATNPRO1964","27.182","0.3807","5"],
    [58184,"HCEP03730563","2025-08-25 12:00:00","10.6669","3.36183","24.5","1.899","7.41","0.479","4.118","0.06","0.19","29.9003","4.71281","20.66","0","SATNPRO1964","27.178","0.3807","5"],
    [58185,"HCEP03730563","2025-08-25 12:15:00","10.6679","3.36194","24.516","1.909","7.41","0.494","3.998","0.07","0.17","29.9006","4.71284","20.77","0","SATNPRO1964","27.276","0.382","5"],
    [58186,"HCEP03730563","2025-08-25 12:30:00","10.6681","3.3619","24.548","1.911","7.41","0.439","3.685","0.06","0.14","29.9","4.71275","20.8","0","SATNPRO1964","27.216","0.38124","5"],
    [58187,"HCEP03730563","2025-08-25 12:45:00","10.6673","3.36182","24.627","1.921","7.41","0.489","3.831","0.13","0.19","29.8999","4.71274","20.9","0","SATNPRO1964","26.976","0.37786","5"],
    [58188,"HCEP03730563","2025-08-25 13:00:00","10.6668","3.36176","24.71","1.902","7.41","0.519","4.404","0.11","0.17","29.8997","4.71273","20.7","0","SATNPRO1964","26.887999999999998","0.37664","5"],
    [58189,"HCEP03730563","2025-08-25 13:15:00","10.666","3.36178","24.824","1.872","7.41","0.53","4.732","0.05","0.21","29.9005","4.71286","20.37","0","SATNPRO1964","26.966","0.37774","5"],
    [58190,"HCEP03730563","2025-08-25 13:30:00","10.6651","3.36179","24.953","1.85","7.4","0.488","5.121","0.05","0.29","29.9013","4.713","20.14","0","SATNPRO1964","26.816","0.37556","5"],
    [58191,"HCEP03730563","2025-08-25 13:45:00","10.6646","3.36182","25.101","1.823","7.4","0.6","6.036","0.07","0.37","29.9019","4.71311","19.84","0","SATNPRO1964","26.844","0.37602","5"],
    [58192,"HCEP03730563","2025-08-25 14:00:00","10.6656","3.36205","25.255","1.829","7.4","0.505","5.464","0.05","0.23","29.9032","4.71329","19.91","0","SATNPRO1964","26.86","0.3762","5"],
    [58193,"HCEP03730563","2025-08-25 14:15:00","10.6667","3.36226","25.452","1.863","7.4","0.558","5.185","0.07","0.39","29.9043","4.71344","20.27","0","SATNPRO1964","26.928","0.37718","5"],
    [58194,"HCEP03730563","2025-08-25 14:30:00","10.6667","3.36228","25.644","1.907","7.41","0.505","4.585","0.09","0.32","29.9045","4.71347","20.76","0","SATNPRO1964","27.482","0.38492","5"],
    [58195,"HCEP03730563","2025-08-25 14:45:00","10.6669","3.36233","25.817","1.918","7.41","0.523","5.259","0.04","0.16","29.9048","4.71351","20.87","0","SATNPRO1964","27.288","0.38222","5"],
    [58196,"HCEP03730563","2025-08-25 15:00:00","10.6663","3.3623","26.008","1.918","7.41","0.47","4.979","0.04","0.2","29.9049","4.71355","20.87","0","SATNPRO1964","27.18","0.38068","5"],
    [58197,"HCEP03730563","2025-08-25 15:15:00","10.6667","3.36226","26.213","1.915","7.41","1.362","25.724","0.58","17.26","29.9041","4.71344","20.84","0","SATNPRO1964","27.478","0.38488","5"],
    [58198,"HCEP03730563","2025-08-25 15:30:00","10.6652","3.3622","26.438","1.932","7.41","0.482","4.568","0.07","0.21","29.9046","4.71356","21.02","0","SATNPRO1964","27.426","0.38412","5"],
    [58199,"HCEP03730563","2025-08-25 15:45:00","10.6649","3.36209","26.617","1.923","7.41","0.522","4.817","0.05","0.2","29.9037","4.71344","20.92","0","SATNPRO1964","27.406","0.38388","5"],
    [58200,"HCEP03730563","2025-08-25 16:00:00","10.6669","3.36205","26.801","1.935","7.41","0.731","4.117","0.7","0.42","29.9016","4.71313","21.06","0","SATNPRO1964","27.59","0.38646","5"],
    [58201,"HCEP03730563","2025-08-25 16:15:00","10.6678","3.36202","26.963","1.948","7.41","0.504","4.119","0.05","0.14","29.9005","4.71296","21.2","0","SATNPRO1964","27.406","0.38388","5"],
    [58202,"HCEP03730563","2025-08-25 16:30:00","10.6742","3.36201","27.137","1.979","7.41","0.443","3.361","0.04","0.11","29.8951","4.71209","21.54","0","SATNPRO1964","27.716","0.38824","5"],
    [58203,"HCEP03730563","2025-08-25 16:45:00","10.6711","3.36205","27.285","2.018","7.42","0.506","4.519","0.03","0.19","29.898","4.71257","21.96","0","SATNPRO1964","27.538","0.38574","5"],
    [58204,"HCEP03730563","2025-08-25 17:00:00","10.6745","3.3623","27.391","2.006","7.42","0.506","4.634","0.06","0.31","29.8976","4.71246","21.83","0","SATNPRO1964","27.594","0.38654","5"],
    [58205,"HCEP03730563","2025-08-25 17:15:00","10.6804","3.36231","27.553","2.061","7.42","0.597","3.733","0.26","0.26","29.8928","4.7117","22.43","0","SATNPRO1964","27.952","0.39152","5"],
    [58206,"HCEP03730563","2025-08-25 17:30:00","10.6777","3.36224","27.651","2.092","7.42","0.486","4.315","0.06","0.36","29.8943","4.71196","22.78","0","SATNPRO1964","27.712","0.38816","5"],
    [58207,"HCEP03730563","2025-08-25 17:45:00","10.6777","3.36205","27.698","2.037","7.42","0.543","4.242","0.2","1.26","29.8924","4.7117","22.17","0","SATNPRO1964","27.53","0.38564","5"],
    [58208,"HCEP03730563","2025-08-25 18:00:00","10.6765","3.36186","27.74","1.988","7.42","0.54","4.516","0.11","0.2","29.8915","4.71159","21.64","0","SATNPRO1964","27.006","0.37824","5"],
    [58209,"HCEP03730563","2025-08-25 18:15:00","10.6775","3.36182","27.746","1.939","7.41","0.526","4.666","0.06","0.2","29.8903","4.7114","21.11","0","SATNPRO1964","27.396","0.38374","5"],
    [58210,"HCEP03730563","2025-08-25 18:30:00","10.6764","3.36182","27.749","1.927","7.41","0.533","4.766","0.07","0.21","29.8912","4.71155","20.97","0","SATNPRO1964","27.066","0.37912","5"],
    [58211,"HCEP03730563","2025-08-25 18:45:00","10.6759","3.36182","27.736","1.911","7.41","0.557","4.894","0.11","0.23","29.8916","4.71162","20.8","0","SATNPRO1964","27.074","0.37926","5"],
    [58212,"HCEP03730563","2025-08-25 19:00:00","10.6757","3.36185","27.704","1.906","7.41","0.52","4.649","0.07","0.29","29.8921","4.71168","20.75","0","SATNPRO1964","27.098","0.37956","5"],
    [58213,"HCEP03730563","2025-08-25 19:15:00","10.6781","3.36175","27.631","1.902","7.41","0.514","4.509","0.06","0.21","29.8892","4.71123","20.7","0","SATNPRO1964","27.088","0.37944","5"],
    [58214,"HCEP03730563","2025-08-25 19:30:00","10.6797","3.36172","27.544","1.898","7.41","0.479","4.37","0.07","0.2","29.8875","4.71096","20.66","0","SATNPRO1964","27.03","0.3786","5"],
    [58215,"HCEP03730563","2025-08-25 19:45:00","10.6779","3.36175","27.507","1.902","7.41","0.5","4.374","0.11","0.18","29.8894","4.71125","20.7","0","SATNPRO1964","27.080000000000002","0.37934","5"],
    [58216,"HCEP03730563","2025-08-25 20:00:00","10.6808","3.36165","27.376","1.895","7.41","0.466","4.023","0.05","0.15","29.886","4.71072","20.63","0","SATNPRO1964","27.18","0.38066","5"],
    [58217,"HCEP03730563","2025-08-25 20:15:00","10.6875","3.36185","27.261","1.973","7.41","0.474","3.792","0.05","0.27","29.8826","4.71012","21.48","0","SATNPRO1964","27.988","0.39206","5"],
    [58218,"HCEP03730563","2025-08-25 20:30:00","10.6859","3.36188","27.159","2.099","7.42","0.395","2.571","0.05","0.12","29.8843","4.71038","22.85","0","SATNPRO1964","28.138","0.39408","5"],
    [58219,"HCEP03730563","2025-08-25 20:45:00","10.684","3.36186","27.023","2.117","7.42","0.493","3.593","0.08","0.25","29.8856","4.71059","23.04","0","SATNPRO1964","27.46","0.38466","5"],
    [58220,"HCEP03730563","2025-08-25 21:00:00","10.6809","3.36173","26.926","2.026","7.42","0.501","3.712","0.15","0.15","29.887","4.71083","22.05","0","SATNPRO1964","27.264","0.38184","5"],
    [58221,"HCEP03730563","2025-08-25 21:15:00","10.6791","3.36175","26.776","1.953","7.42","0.52","3.81","0.1","0.23","29.8887","4.71109","21.26","0","SATNPRO1964","27.34","0.38294","5"],
    [58222,"HCEP03730563","2025-08-25 21:30:00","10.6789","3.36172","26.639","1.935","7.41","0.456","3.838","0.06","0.3","29.8886","4.71107","21.06","0","SATNPRO1964","27.368000000000002","0.38334","5"],
    [58223,"HCEP03730563","2025-08-25 21:45:00","10.6775","3.36176","26.493","1.935","7.41","0.456","3.501","0.08","0.08","29.8902","4.71132","21.06","0","SATNPRO1964","27.334","0.38286","5"],
    [58224,"HCEP03730563","2025-08-25 22:00:00","10.6732","3.36166","26.33","1.905","7.41","0.473","5.284","0.04","0.26","29.8928","4.71174","20.73","0","SATNPRO1964","27.042","0.37874","5"],
    [58225,"HCEP03730563","2025-08-25 22:15:00","10.6777","3.36165","26.158","1.883","7.41","0.48","5.131","0.03","0.37","29.889","4.71113","20.49","0","SATNPRO1964","27.034","0.37868","5"],
    [58226,"HCEP03730563","2025-08-25 22:30:00","10.6725","3.36157","25.985","1.891","7.41","0.485","5.292","0.06","0.25","29.8926","4.71171","20.58","0","SATNPRO1964","26.68","0.3737","5"],
    [58227,"HCEP03730563","2025-08-25 22:45:00","10.6801","3.36148","25.805","1.807","7.4","0.489","5.059","0.05","0.44","29.8856","4.71058","19.67","0","SATNPRO1964","26.666","0.37352","5"],
    [58228,"HCEP03730563","2025-08-25 23:00:00","10.6709","3.36144","25.618","1.816","7.4","0.481","5.836","0.04","0.17","29.8928","4.71174","19.77","0","SATNPRO1964","26.524","0.37152","5"],
    [58229,"HCEP03730563","2025-08-25 23:15:00","10.6729","3.36147","25.459","1.766","7.4","0.649","5.794","0.83","0.42","29.8916","4.71153","19.22","0","SATNPRO1964","26.528","0.3716","5"],
    [58230,"HCEP03730563","2025-08-25 23:30:00","10.6731","3.36146","25.321","1.745","7.4","0.506","5.782","0.14","0.3","29.8914","4.71149","18.99","0","SATNPRO1964","26.552","0.37194","5"],
    [58231,"HCEP03730563","2025-08-25 23:45:00","10.6709","3.36152","25.195","1.731","7.39","0.484","5.711","0.03","0.23","29.8938","4.71186","18.84","0","SATNPRO1964","26.51","0.37132","5"],
    [58232,"HCEP03730563","2025-08-26 00:00:00","10.6703","3.36156","25.108","1.72","7.39","0.478","5.898","0.06","0.94","29.8946","4.71198","18.72","0","SATNPRO1964","26.486","0.371","5"],
    [58233,"HCEP03730563","2025-08-26 00:15:00","10.6707","3.3616","25.073","1.723","7.39","0.497","5.972","0.04","1.11","29.8947","4.71198","18.75","0","SATNPRO1964","26.541999999999998","0.37178","5"],
    [58234,"HCEP03730563","2025-08-26 00:30:00","10.6703","3.36167","25.069","1.74","7.39","0.448","5.124","0.03","0.28","29.8957","4.71213","18.94","0","SATNPRO1964","26.54","0.37174","5"],
    [58235,"HCEP03730563","2025-08-26 00:45:00","10.6697","3.36171","25.096","1.753","7.39","0.502","5.275","0.11","0.29","29.8966","4.71227","19.08","0","SATNPRO1964","26.812","0.37556","5"],
    [58236,"HCEP03730563","2025-08-26 01:00:00","10.6699","3.36178","25.146","1.765","7.4","0.445","5.158","0.03","0.48","29.8972","4.71235","19.21","0","SATNPRO1964","26.93","0.37722","5"],
    [58237,"HCEP03730563","2025-08-26 01:15:00","10.6696","3.36186","25.202","1.767","7.4","0.492","5.514","0.06","0.29","29.8981","4.71249","19.23","0","SATNPRO1964","26.996000000000002","0.37816","5"],
    [58238,"HCEP03730563","2025-08-26 01:30:00","10.6697","3.36199","25.284","1.771","7.4","0.634","4.925","0.56","0.3","29.8993","4.71267","19.27","0","SATNPRO1964","26.904","0.37686","5"],
    [58239,"HCEP03730563","2025-08-26 01:45:00","10.6694","3.36204","25.372","1.769","7.4","0.466","4.852","0.04","0.38","29.9","4.71278","19.26","0","SATNPRO1964","26.65","0.37326","5"],
    [58240,"HCEP03730563","2025-08-26 02:00:00","10.6692","3.36208","25.472","1.758","7.4","0.436","4.558","0.06","0.21","29.9006","4.71286","19.13","0","SATNPRO1964","26.844","0.37598","5"],
    [58241,"HCEP03730563","2025-08-26 02:15:00","10.6691","3.36212","25.576","1.748","7.39","0.441","4.191","0.04","0.13","29.9009","4.71292","19.02","0","SATNPRO1964","27.144000000000002","0.3802","5"],
    [58242,"HCEP03730563","2025-08-26 02:30:00","10.6683","3.36211","25.678","1.739","7.39","0.426","4.231","0.04","0.1","29.9015","4.71302","18.93","0","SATNPRO1964","26.942","0.37738","5"],
    [58243,"HCEP03730563","2025-08-26 02:45:00","10.6688","3.36211","25.799","1.728","7.39","0.476","4.531","0.12","0.33","29.901","4.71295","18.8","0","SATNPRO1964","26.908","0.37688","5"],
    [58244,"HCEP03730563","2025-08-26 03:00:00","10.6688","3.36209","25.915","1.733","7.39","0.44","4.571","0.04","0.25","29.9008","4.71293","18.86","0","SATNPRO1964","26.956","0.37758","5"],
    [58245,"HCEP03730563","2025-08-26 03:15:00","10.6687","3.36204","26.031","1.735","7.39","0.478","4.559","0.1","0.4","29.9003","4.71287","18.88","0","SATNPRO1964","26.838","0.3759","5"],
    [58246,"HCEP03730563","2025-08-26 03:30:00","10.6685","3.36197","26.157","1.727","7.39","0.445","4.54","0.08","0.13","29.8998","4.7128","18.8","0","SATNPRO1964","26.526","0.37156","5"],
    [58247,"HCEP03730563","2025-08-26 03:45:00","10.6668","3.36196","26.256","1.695","7.39","0.513","5.582","0.05","0.22","29.9009","4.713","18.44","0","SATNPRO1964","26.444","0.37038","5"],
    [58248,"HCEP03730563","2025-08-26 04:00:00","10.6669","3.36206","26.384","1.662","7.39","0.493","5.294","0.05","0.22","29.9019","4.71313","18.09","0","SATNPRO1964","26.39","0.36966","5"],
    [58249,"HCEP03730563","2025-08-26 04:15:00","10.6674","3.36212","26.514","1.668","7.39","0.493","5.043","0.05","0.21","29.9021","4.71316","18.16","0","SATNPRO1964","26.668","0.37356","5"],
    [58250,"HCEP03730563","2025-08-26 04:30:00","10.6681","3.36209","26.637","1.696","7.39","0.468","4.556","0.06","0.24","29.9011","4.71302","18.46","0","SATNPRO1964","26.576","0.37224","5"],
    [58251,"HCEP03730563","2025-08-26 04:45:00","10.6673","3.36202","26.784","1.71","7.39","0.609","4.602","0.38","0.21","29.901","4.71303","18.61","0","SATNPRO1964","26.644","0.37322","5"],
    [58252,"HCEP03730563","2025-08-26 05:00:00","10.6676","3.36196","26.915","1.703","7.39","0.596","4.815","0.15","0.3","29.9001","4.7129","18.53","0","SATNPRO1964","26.452","0.3705","5"],
    [58253,"HCEP03730563","2025-08-26 05:15:00","10.667","3.36186","27.021","1.702","7.39","0.546","4.847","0.06","0.23","29.8996","4.71285","18.52","0","SATNPRO1964","26.596","0.3725","5"],
    [58254,"HCEP03730563","2025-08-26 05:30:00","10.6667","3.36172","27.119","1.695","7.39","0.589","5.854","0.17","0.74","29.8984","4.71269","18.45","0","SATNPRO1964","26.406","0.36986","5"],
    [58255,"HCEP03730563","2025-08-26 05:45:00","10.6667","3.36169","27.199","1.687","7.39","0.568","5.052","0.09","0.21","29.8981","4.71265","18.36","0","SATNPRO1964","26.48","0.3709","5"],
    [58256,"HCEP03730563","2025-08-26 06:00:00","10.6674","3.36165","27.273","1.691","7.39","0.538","4.755","0.07","0.24","29.8971","4.7125","18.4","0","SATNPRO1964","26.39","0.36964","5"],
    [58257,"HCEP03730563","2025-08-26 06:15:00","10.6685","3.36156","27.273","1.688","7.39","0.565","5.006","0.09","0.21","29.8953","4.71223","18.37","0","SATNPRO1964","26.126","0.36594","5"],
    [58258,"HCEP03730563","2025-08-26 06:30:00","10.6701","3.36149","27.3","1.673","7.39","0.547","5.132","0.08","0.25","29.8933","4.71191","18.2","0","SATNPRO1964","26.312","0.36856","5"],
    [58259,"HCEP03730563","2025-08-26 06:45:00","10.6732","3.36147","27.29","1.666","7.39","0.558","5.23","0.05","0.34","29.8905","4.71147","18.13","0","SATNPRO1964","25.998","0.36412","5"],
    [58260,"HCEP03730563","2025-08-26 07:00:00","10.6724","3.36141","27.264","1.66","7.39","0.562","5.21","0.11","0.2","29.8907","4.71151","18.07","0","SATNPRO1964","25.82","0.36168","5"],
    [58261,"HCEP03730563","2025-08-26 07:15:00","10.6723","3.36138","27.216","1.641","7.39","0.568","5.855","0.12","0.72","29.8905","4.71148","17.86","0","SATNPRO1964","25.966","0.36366","5"],
    [58262,"HCEP03730563","2025-08-26 07:30:00","10.6733","3.36136","27.136","1.626","7.38","0.539","5.034","0.05","0.22","29.8895","4.71131","17.69","0","SATNPRO1964","25.902","0.3628","5"],
    [58263,"HCEP03730563","2025-08-26 07:45:00","10.673400000000001","3.36135","27.057","1.618","7.38","0.552","5.345","0.07","0.2","29.8892","4.71128","17.61","0","SATNPRO1964","25.854","0.36214","5"],
    [58264,"HCEP03730563","2025-08-26 08:00:00","10.6737","3.36134","26.967","1.617","7.38","0.516","5.301","0.08","0.35","29.8889","4.71122","17.6","0","SATNPRO1964","25.874","0.36242","5"],
    [58265,"HCEP03730563","2025-08-26 08:15:00","10.6728","3.36132","26.857","1.614","7.38","0.56","4.963","0.11","0.26","29.8896","4.71132","17.57","0","SATNPRO1964","26.046","0.36484","5"],
    [58266,"HCEP03730563","2025-08-26 08:30:00","10.6737","3.3613","26.723","1.607","7.38","0.538","4.979","0.09","0.26","29.8887","4.71117","17.49","0","SATNPRO1964","25.900000000000002","0.36278","5"],
    [58267,"HCEP03730563","2025-08-26 08:45:00","10.6731","3.36132","26.603","1.608","7.38","0.545","5.114","0.09","0.36","29.8894","4.71128","17.5","0","SATNPRO1964","25.98","0.36388","5"],
    [58268,"HCEP03730563","2025-08-26 09:00:00","10.6712","3.36141","26.459","1.617","7.38","0.478","4.789","0.07","0.34","29.8919","4.71165","17.59","0","SATNPRO1964","26.076","0.36526","5"],
    [58269,"HCEP03730563","2025-08-26 09:15:00","10.6681","3.36159","26.325","1.638","7.38","0.491","4.381","0.04","0.2","29.8962","4.71231","17.83","0","SATNPRO1964","26.458","0.37062","5"],
    [58270,"HCEP03730563","2025-08-26 09:30:00","10.6683","3.36162","26.185","1.658","7.38","0.644","4.278","0.84","0.73","29.8964","4.71233","18.04","0","SATNPRO1964","26.32","0.36866","5"],
    [58271,"HCEP03730563","2025-08-26 09:45:00","10.669","3.36159","26.055","1.665","7.39","0.481","4.337","0.05","0.33","29.8956","4.71219","18.12","0","SATNPRO1964","26.44","0.37034","5"],
    [58272,"HCEP03730563","2025-08-26 10:00:00","10.6688","3.36165","25.916","1.668","7.39","0.529","4.539","0.19","0.52","29.8964","4.71231","18.15","0","SATNPRO1964","26.382","0.36952","5"],
    [58273,"HCEP03730563","2025-08-26 10:15:00","10.6681","3.3612","25.765","1.651","7.39","0.512","4.767","0.06","0.33","29.8927","4.71178","17.97","0","SATNPRO1964","26.53","0.37162","5"],
    [58274,"HCEP03730563","2025-08-26 10:30:00","10.6689","3.36162","25.605","1.636","7.38","0.504","4.773","0.13","0.29","29.8961","4.71225","17.8","0","SATNPRO1964","26.157999999999998","0.3664","5"],
    [58275,"HCEP03730563","2025-08-26 10:45:00","10.6697","3.36164","25.457","1.652","7.39","0.654","4.85","0.48","0.27","29.8958","4.71217","17.98","0","SATNPRO1964","26.378","0.36944","5"],
    [58276,"HCEP03730563","2025-08-26 11:00:00","10.6713","3.3616","25.309","1.669","7.39","0.509","4.313","0.06","0.52","29.8942","4.71192","18.16","0","SATNPRO1964","26.492","0.37106","5"],
    [58277,"HCEP03730563","2025-08-26 11:15:00","10.6742","3.36147","25.156","1.685","7.39","0.5","3.701","0.11","0.24","29.8906","4.71135","18.34","0","SATNPRO1964","26.524","0.37152","5"],
    [58278,"HCEP03730563","2025-08-26 11:30:00","10.6771","3.36142","25.029","1.709","7.39","0.602","4.849","0.43","2.53","29.8878","4.71089","18.6","0","SATNPRO1964","26.468","0.37074","5"],
    [58279,"HCEP03730563","2025-08-26 11:45:00","10.6784","3.36144","24.957","1.743","7.39","0.454","3.272","0.05","0.43","29.8869","4.71075","18.97","0","SATNPRO1964","26.632","0.37304","5"],
    [58280,"HCEP03730563","2025-08-26 12:00:00","10.6789","3.36146","24.869","1.76","7.39","0.462","3.333","0.05","0.17","29.8868","4.71072","19.16","0","SATNPRO1964","26.698","0.37396","5"],
    [58281,"HCEP03730563","2025-08-26 12:15:00","10.6786","3.36145","24.863","1.765","7.39","0.483","3.2","0.06","0.12","29.8869","4.71074","19.21","0","SATNPRO1964","26.622","0.3729","5"],
    [58282,"HCEP03730563","2025-08-26 12:30:00","10.6765","3.36144","24.858","1.759","7.39","0.473","3.541","0.05","0.17","29.8885","4.711","19.15","0","SATNPRO1964","26.598","0.37258","5"],
    [58283,"HCEP03730563","2025-08-26 12:45:00","10.6741","3.36147","24.871","1.724","7.39","0.58","3.801","0.29","0.26","29.8908","4.71136","18.76","0","SATNPRO1964","26.482","0.37092","5"],
    [58284,"HCEP03730563","2025-08-26 13:00:00","10.67","3.36141","24.902","1.661","7.39","0.498","4.418","0.07","0.17","29.8935","4.71181","18.07","0","SATNPRO1964","25.974","0.3638","5"],
    [58285,"HCEP03730563","2025-08-26 13:15:00","10.6698","3.36137","24.969","1.599","7.38","0.551","4.828","0.09","0.17","29.8932","4.71178","17.4","0","SATNPRO1964","25.682","0.35974","5"],
    [58286,"HCEP03730563","2025-08-26 13:30:00","10.6663","3.36129","25.075","1.551","7.38","0.522","5.115","0.05","0.24","29.8953","4.71214","16.88","0","SATNPRO1964","25.494","0.35708","5"],
    [58287,"HCEP03730563","2025-08-26 13:45:00","10.6659","3.36125","25.185","1.501","7.38","0.573","5.386","0.09","0.2","29.8952","4.71213","16.33","0","SATNPRO1964","25.458000000000002","0.3566","5"],
    [58288,"HCEP03730563","2025-08-26 14:00:00","10.6665","3.36124","25.306","1.487","7.37","0.54","5.459","0.07","1.57","29.8946","4.71205","16.18","0","SATNPRO1964","25.25","0.35368","5"],
    [58289,"HCEP03730563","2025-08-26 14:15:00","10.6677","3.3613","25.428","1.51","7.37","0.565","4.506","0.11","0.29","29.8941","4.71197","16.43","0","SATNPRO1964","26.022","0.36446","5"],
    [58290,"HCEP03730563","2025-08-26 14:30:00","10.6684","3.36141","25.542","1.55","7.38","0.53","4.392","0.08","0.16","29.8946","4.71204","16.87","0","SATNPRO1964","26.462","0.37058","5"],
    [58291,"HCEP03730563","2025-08-26 14:45:00","10.6682","3.36148","25.718","1.594","7.38","0.643","4.518","0.35","0.34","29.8954","4.71216","17.35","0","SATNPRO1964","26.396","0.36974","5"],
    [58292,"HCEP03730563","2025-08-26 15:00:00","10.6689","3.36157","25.852","1.637","7.38","0.514","4.377","0.1","0.35","29.8956","4.71218","17.82","0","SATNPRO1964","26.568","0.37212","5"],
    [58293,"HCEP03730563","2025-08-26 15:15:00","10.6739","3.36173","26.012","1.723","7.39","0.456","3.225","0.08","0.18","29.8931","4.71176","18.75","0","SATNPRO1964","27.608","0.3867","5"],
    [58294,"HCEP03730563","2025-08-26 15:30:00","10.6755","3.36173","26.166","1.791","7.39","0.638","4.044","0.47","0.24","29.8916","4.71153","19.49","0","SATNPRO1964","26.814","0.37554","5"],
    [58295,"HCEP03730563","2025-08-26 15:45:00","10.6678","3.36152","26.32","1.77","7.39","0.532","4.262","0.07","0.17","29.8959","4.71227","19.26","0","SATNPRO1964","26.242","0.36754","5"],
    [58296,"HCEP03730563","2025-08-26 16:00:00","10.6676","3.36157","26.466","1.647","7.39","0.496","4.315","0.04","0.18","29.8965","4.71237","17.92","0","SATNPRO1964","26.366","0.3693","5"],
    [58297,"HCEP03730563","2025-08-26 16:15:00","10.6695","3.3617","26.65","1.637","7.39","0.523","4.334","0.06","0.27","29.8961","4.71229","17.81","0","SATNPRO1964","26.54","0.37174","5"],
    [58298,"HCEP03730563","2025-08-26 16:30:00","10.6768","3.36172","26.793","1.761","7.39","0.45","3.528","0.05","0.17","29.8903","4.71136","19.16","0","SATNPRO1964","27.51","0.3853","5"],
    [58299,"HCEP03730563","2025-08-26 16:45:00","10.6771","3.36178","26.985","1.852","7.4","0.485","4.038","0.03","0.27","29.8906","4.71141","20.16","0","SATNPRO1964","27.238","0.3815","5"],
    [58300,"HCEP03730563","2025-08-26 17:00:00","10.6833","3.36183","27.135","1.869","7.4","0.425","3.423","0.04","0.22","29.8859","4.71064","20.35","0","SATNPRO1964","27.592","0.38646","5"],
    [58301,"HCEP03730563","2025-08-26 17:15:00","10.6887","3.36193","27.279","1.924","7.4","0.511","3.747","0.1","0.29","29.8825","4.71008","20.95","0","SATNPRO1964","27.378","0.38348","5"],
    [58302,"HCEP03730563","2025-08-26 17:30:00","10.6871","3.36196","27.422","1.922","7.41","0.492","4.389","0.08","0.31","29.8839","4.71032","20.92","0","SATNPRO1964","27.28","0.38208","5"],
    [58303,"HCEP03730563","2025-08-26 17:45:00","10.6893","3.3621","27.551","1.882","7.4","0.529","4.076","0.11","0.19","29.8835","4.71023","20.49","0","SATNPRO1964","27.128","0.37998","5"],
    [58304,"HCEP03730563","2025-08-26 18:00:00","10.6901","3.3622","27.651","1.873","7.4","0.508","4.418","0.07","0.39","29.8838","4.71027","20.39","0","SATNPRO1964","26.968","0.37774","5"],
    [58305,"HCEP03730563","2025-08-26 18:15:00","10.689","3.36224","27.7","1.853","7.4","0.549","4.452","0.1","0.35","29.8851","4.71047","20.17","0","SATNPRO1964","27.312","0.38256","5"],
    [58306,"HCEP03730563","2025-08-26 18:30:00","10.6852","3.36212","27.73","1.83","7.4","0.494","4.514","0.04","0.3","29.887","4.71081","19.92","0","SATNPRO1964","26.982","0.37796","5"],
    [58307,"HCEP03730563","2025-08-26 18:45:00","10.6833","3.36206","27.751","1.809","7.4","0.545","4.337","0.15","0.22","29.888","4.71098","19.7","0","SATNPRO1964","27.258","0.3818","5"],
    [58308,"HCEP03730563","2025-08-26 19:00:00","10.6803","3.36196","27.727","1.79","7.4","0.536","5.654","0.12","2","29.8894","4.71123","19.49","0","SATNPRO1964","26.876","0.37648","5"],
    [58309,"HCEP03730563","2025-08-26 19:15:00","10.6787","3.3621","27.729","1.793","7.4","0.549","5.387","0.04","0.63","29.8922","4.71165","19.52","0","SATNPRO1964","26.836","0.37588","5"],
    [58310,"HCEP03730563","2025-08-26 19:30:00","10.6786","3.36228","27.682","1.793","7.4","0.526","4.336","0.08","0.28","29.894","4.7119","19.52","0","SATNPRO1964","27.242","0.38156","5"],
    [58311,"HCEP03730563","2025-08-26 19:45:00","10.6786","3.36231","27.614","1.837","7.4","0.475","3.655","0.06","0.16","29.8943","4.71195","19.99","0","SATNPRO1964","27.294","0.38228","5"],
    [58312,"HCEP03730563","2025-08-26 20:00:00","10.6759","3.36187","27.544","1.811","7.4","0.586","5.496","0.25","0.92","29.8922","4.71169","19.71","0","SATNPRO1964","27","0.37818","5"],
    [58313,"HCEP03730563","2025-08-26 20:15:00","10.675","3.36234","27.45","1.784","7.4","0.514","3.624","0.1","0.24","29.8977","4.71247","19.42","0","SATNPRO1964","27.428","0.3842","5"],
    [58314,"HCEP03730563","2025-08-26 20:30:00","10.673400000000001","3.3618","27.356","1.774","7.4","0.508","5.927","0.05","0.47","29.8936","4.71191","19.31","0","SATNPRO1964","26.836","0.37592","5"],
    [58315,"HCEP03730563","2025-08-26 20:45:00","10.6717","3.36196","27.226","1.723","7.39","0.521","4.976","0.07","0.29","29.8966","4.71236","18.76","0","SATNPRO1964","26.852","0.3761","5"],
    [58316,"HCEP03730563","2025-08-26 21:00:00","10.6714","3.36187","27.099","1.706","7.39","0.461","5.2","0.04","0.29","29.896","4.71227","18.57","0","SATNPRO1964","26.914","0.37694","5"],
    [58317,"HCEP03730563","2025-08-26 21:15:00","10.6713","3.36188","26.961","1.69","7.39","0.492","5.218","0.03","0.15","29.8963","4.71231","18.4","0","SATNPRO1964","26.598","0.37254","5"],
    [58318,"HCEP03730563","2025-08-26 21:30:00","10.6703","3.36183","26.831","1.694","7.39","0.457","4.402","0.05","0.25","29.8966","4.71237","18.43","0","SATNPRO1964","26.876","0.37644","5"],
    [58319,"HCEP03730563","2025-08-26 21:45:00","10.6702","3.3618","26.699","1.679","7.39","0.491","4.819","0.05","0.3","29.8965","4.71234","18.27","0","SATNPRO1964","27.044","0.37882","5"],
    [58320,"HCEP03730563","2025-08-26 22:00:00","10.6709","3.36172","26.542","1.67","7.39","0.429","4.66","0.03","0.47","29.8951","4.71212","18.18","0","SATNPRO1964","26.764","0.37488","5"],
    [58321,"HCEP03730563","2025-08-26 22:15:00","10.6718","3.36174","26.393","1.696","7.39","0.474","4.233","0.08","0.2","29.8947","4.71204","18.45","0","SATNPRO1964","27.052","0.37888","5"],
    [58322,"HCEP03730563","2025-08-26 22:30:00","10.6725","3.36159","26.201","1.702","7.39","0.437","4.584","0.03","0.21","29.8928","4.71174","18.52","0","SATNPRO1964","26.77","0.37496","5"],
    [58323,"HCEP03730563","2025-08-26 22:45:00","10.6729","3.36152","26.04","1.668","7.39","0.512","4.96","0.11","0.46","29.8918","4.71159","18.16","0","SATNPRO1964","26.558","0.37202","5"],
    [58324,"HCEP03730563","2025-08-26 23:00:00","10.6745","3.36159","25.843","1.662","7.39","0.437","4.581","0.03","0.42","29.8913","4.71148","18.09","0","SATNPRO1964","26.87","0.37634","5"],
    [58325,"HCEP03730563","2025-08-26 23:15:00","10.6749","3.3616","25.649","1.706","7.39","0.495","4.554","0.1","0.32","29.8911","4.71143","18.56","0","SATNPRO1964","26.674","0.37362","5"],
    [58326,"HCEP03730563","2025-08-26 23:30:00","10.6751","3.36154","25.487","1.711","7.39","0.415","4.125","0.03","0.21","29.8903","4.71131","18.62","0","SATNPRO1964","26.536","0.37168","5"],
    [58327,"HCEP03730563","2025-08-26 23:45:00","10.674","3.36141","25.318","1.672","7.39","0.478","4.446","0.08","0.23","29.89","4.71128","18.2","0","SATNPRO1964","26.62","0.37286","5"],
    [58328,"HCEP03730563","2025-08-27 00:00:00","10.6752","3.36143","25.177","1.637","7.39","0.482","4.982","0.21","0.35","29.8894","4.71116","17.81","0","SATNPRO1964","26.596","0.37254","5"],
    [58329,"HCEP03730563","2025-08-27 00:15:00","10.6732","3.36133","25.083","1.626","7.38","0.464","4.443","0.05","0.14","29.8901","4.71128","17.7","0","SATNPRO1964","26.214","0.36716","5"],
    [58330,"HCEP03730563","2025-08-27 00:30:00","10.6723","3.36128","25.008","1.579","7.38","0.459","4.725","0.06","0.2","29.8904","4.71134","17.19","0","SATNPRO1964","25.916","0.363","5"],
    [58331,"HCEP03730563","2025-08-27 00:45:00","10.672","3.36129","24.985","1.54","7.38","0.459","4.549","0.03","0.18","29.8906","4.71138","16.76","0","SATNPRO1964","25.896","0.36274","5"],
    [58332,"HCEP03730563","2025-08-27 01:00:00","10.6711","3.36131","24.952","1.537","7.38","0.446","4.697","0.05","0.25","29.8916","4.71153","16.73","0","SATNPRO1964","25.912","0.36296","5"],
    [58333,"HCEP03730563","2025-08-27 01:15:00","10.6696","3.36133","24.981","1.516","7.37","0.449","4.586","0.03","0.28","29.8931","4.71176","16.5","0","SATNPRO1964","25.704","0.36002","5"],
    [58334,"HCEP03730563","2025-08-27 01:30:00","10.6689","3.36134","25.02","1.483","7.37","0.517","4.621","0.21","0.16","29.8937","4.71187","16.14","0","SATNPRO1964","25.766","0.36092","5"],
    [58335,"HCEP03730563","2025-08-27 01:45:00","10.6681","3.36138","25.035","1.479","7.37","0.479","4.89","0.06","0.25","29.8947","4.71202","16.09","0","SATNPRO1964","25.5","0.35718","5"],
    [58336,"HCEP03730563","2025-08-27 02:00:00","10.6671","3.36147","25.095","1.487","7.37","0.455","4.787","0.04","0.19","29.8964","4.71228","16.18","0","SATNPRO1964","26.176000000000002","0.36658","5"],
    [58337,"HCEP03730563","2025-08-27 02:15:00","10.6674","3.36149","25.172","1.5","7.37","0.489","4.903","0.04","0.34","29.8963","4.71227","16.32","0","SATNPRO1964","26.052","0.36488","5"],
    [58338,"HCEP03730563","2025-08-27 02:30:00","10.6681","3.36152","25.248","1.511","7.37","0.482","4.641","0.13","0.14","29.896","4.71223","16.44","0","SATNPRO1964","25.956","0.36354","5"],
    [58339,"HCEP03730563","2025-08-27 02:45:00","10.6671","3.36163","25.345","1.522","7.37","0.486","4.894","0.05","0.16","29.8979","4.71251","16.57","0","SATNPRO1964","26.292","0.36832","5"],
    [58340,"HCEP03730563","2025-08-27 03:00:00","10.6658","3.36187","25.434","1.529","7.37","0.471","4.675","0.04","0.13","29.9013","4.71302","16.63","0","SATNPRO1964","26.386","0.36958","5"],
    [58341,"HCEP03730563","2025-08-27 03:15:00","10.6655","3.36207","25.539","1.542","7.37","0.548","5.256","0.15","0.51","29.9034","4.71333","16.78","0","SATNPRO1964","26.442","0.37034","5"],
    [58342,"HCEP03730563","2025-08-27 03:30:00","10.6652","3.36233","25.653","1.572","7.38","0.49","4.732","0.06","0.22","29.9062","4.71373","17.1","0","SATNPRO1964","26.518","0.37142","5"],
    [58343,"HCEP03730563","2025-08-27 03:45:00","10.6653","3.36252","25.774","1.602","7.38","0.617","4.684","0.18","0.26","29.908","4.71399","17.44","0","SATNPRO1964","26.622","0.37292","5"],
    [58344,"HCEP03730563","2025-08-27 04:00:00","10.6653","3.36271","25.898","1.625","7.38","0.546","4.668","0.07","0.23","29.9098","4.71426","17.68","0","SATNPRO1964","26.764","0.37488","5"],
    [58345,"HCEP03730563","2025-08-27 04:15:00","10.6653","3.36279","26.027","1.643","7.38","0.568","4.462","0.1","0.19","29.9105","4.71437","17.88","0","SATNPRO1964","26.696","0.37394","5"],
    [58346,"HCEP03730563","2025-08-27 04:30:00","10.6655","3.36291","26.159","1.653","7.38","0.504","4.663","0.05","0.27","29.9115","4.71451","17.99","0","SATNPRO1964","26.98","0.37788","5"],
    [58347,"HCEP03730563","2025-08-27 04:45:00","10.6658","3.36296","26.292","1.661","7.38","0.589","4.625","0.08","0.19","29.9117","4.71455","18.08","0","SATNPRO1964","26.824","0.37572","5"],
    [58348,"HCEP03730563","2025-08-27 05:00:00","10.6665","3.36308","26.408","1.674","7.39","0.516","4.494","0.06","0.26","29.9122","4.71461","18.22","0","SATNPRO1964","27.026","0.37852","5"],
    [58349,"HCEP03730563","2025-08-27 05:15:00","10.6676","3.36315","26.553","1.714","7.39","0.558","4.565","0.07","0.5","29.9119","4.71457","18.65","0","SATNPRO1964","27.178","0.38064","5"],
    [58350,"HCEP03730563","2025-08-27 05:30:00","10.6696","3.36283","26.697","1.738","7.39","0.668","3.996","0.54","0.25","29.9071","4.71386","18.92","0","SATNPRO1964","27.448","0.38442","5"],
    [58351,"HCEP03730563","2025-08-27 05:45:00","10.6688","3.36313","26.829","1.75","7.39","0.53","4.212","0.07","0.28","29.9107","4.71439","19.05","0","SATNPRO1964","27.137999999999998","0.3801","5"],
    [58352,"HCEP03730563","2025-08-27 06:00:00","10.6694","3.363","26.973","1.73","7.39","0.524","4.176","0.09","0.17","29.9088","4.71412","18.83","0","SATNPRO1964","26.964","0.37768","5"],
    [58353,"HCEP03730563","2025-08-27 06:15:00","10.6689","3.36246","27.045","1.69","7.39","0.663","4.578","0.48","0.19","29.9038","4.71342","18.4","0","SATNPRO1964","26.532","0.37164","5"],
    [58354,"HCEP03730563","2025-08-27 06:30:00","10.6689","3.36207","27.11","1.615","7.38","0.577","4.705","0.18","0.18","29.9","4.71289","17.58","0","SATNPRO1964","26.238","0.36748","5"],
    [58355,"HCEP03730563","2025-08-27 06:45:00","10.6695","3.36191","27.174","1.567","7.38","0.548","4.952","0.08","0.25","29.898","4.71259","17.05","0","SATNPRO1964","26.31","0.36846","5"],
    [58356,"HCEP03730563","2025-08-27 07:00:00","10.6713","3.36163","27.195","1.541","7.38","0.506","4.978","0.1","0.4","29.8937","4.71196","16.77","0","SATNPRO1964","25.898","0.36276","5"],
    [58357,"HCEP03730563","2025-08-27 07:15:00","10.6709","3.36161","27.185","1.519","7.38","0.549","4.99","0.1","0.37","29.8939","4.71198","16.53","0","SATNPRO1964","25.792","0.36122","5"],
    [58358,"HCEP03730563","2025-08-27 07:30:00","10.6716","3.36154","27.172","1.506","7.37","0.483","5.154","0.03","0.48","29.8926","4.71179","16.39","0","SATNPRO1964","26.04","0.36476","5"],
    [58359,"HCEP03730563","2025-08-27 07:45:00","10.6707","3.36154","27.143","1.497","7.37","0.532","4.994","0.08","0.16","29.8933","4.7119","16.29","0","SATNPRO1964","25.846","0.362","5"],
    [58360,"HCEP03730563","2025-08-27 08:00:00","10.6694","3.36164","27.087","1.492","7.37","0.483","4.974","0.06","0.27","29.8954","4.71221","16.24","0","SATNPRO1964","26.054000000000002","0.36492","5"],
    [58361,"HCEP03730563","2025-08-27 08:15:00","10.6695","3.36164","27.027","1.501","7.37","0.509","4.528","0.2","0.16","29.8954","4.71221","16.33","0","SATNPRO1964","26.016000000000002","0.3644","5"],
    [58362,"HCEP03730563","2025-08-27 08:30:00","10.669","3.36182","26.938","1.52","7.37","0.435","3.963","0.05","0.16","29.8976","4.71252","16.54","0","SATNPRO1964","26.298000000000002","0.36832","5"],
    [58363,"HCEP03730563","2025-08-27 08:45:00","10.6707","3.36206","26.853","1.582","7.38","0.519","3.253","0.43","0.14","29.8986","4.71264","17.22","0","SATNPRO1964","26.986","0.37796","5"],
    [58364,"HCEP03730563","2025-08-27 09:00:00","10.6709","3.36194","26.78","1.643","7.38","3.372","29.615","4.87","35.42","29.8973","4.71245","17.88","0","SATNPRO1964","26.506","0.37128","5"],
    [58365,"HCEP03730563","2025-08-27 09:15:00","10.67","3.36171","26.701","1.61","7.38","0.474","4.279","0.04","0.25","29.8958","4.71224","17.52","0","SATNPRO1964","26.328","0.3688","5"],
    [58366,"HCEP03730563","2025-08-27 09:30:00","10.6705","3.36158","26.612","1.568","7.38","0.475","3.977","0.11","0.5","29.8941","4.71199","17.06","0","SATNPRO1964","26.45","0.37044","5"],
    [58367,"HCEP03730563","2025-08-27 09:45:00","10.6715","3.36162","26.521","1.561","7.38","0.447","3.344","0.04","0.13","29.8937","4.71191","16.99","0","SATNPRO1964","26.664","0.37346","5"],
    [58368,"HCEP03730563","2025-08-27 10:00:00","10.6682","3.36147","26.414","1.551","7.38","0.449","4.113","0.09","0.26","29.895","4.71214","16.88","0","SATNPRO1964","26.27","0.36796","5"],
    [58369,"HCEP03730563","2025-08-27 10:15:00","10.6693","3.36143","26.312","1.5","7.37","0.457","3.952","0.04","0.19","29.8938","4.71194","16.33","0","SATNPRO1964","26.362","0.36924","5"],
    [58370,"HCEP03730563","2025-08-27 10:30:00","10.6674","3.36138","26.2","1.467","7.37","0.509","4.587","0.12","0.52","29.8948","4.71212","15.96","0","SATNPRO1964","25.704","0.36002","5"],
    [58371,"HCEP03730563","2025-08-27 10:45:00","10.6685","3.36135","26.089","1.428","7.37","0.472","4.13","0.05","0.23","29.8937","4.71193","15.54","0","SATNPRO1964","25.608","0.3587","5"],
    [58372,"HCEP03730563","2025-08-27 11:00:00","10.6678","3.3613","25.989","1.389","7.36","0.453","4.487","0.05","0.17","29.8938","4.71195","15.12","0","SATNPRO1964","25.564","0.35808","5"],
    [58373,"HCEP03730563","2025-08-27 11:15:00","10.6662","3.36128","25.889","1.358","7.36","0.515","4.605","0.07","0.27","29.895","4.71215","14.77","0","SATNPRO1964","25.462","0.35664","5"],
    [58374,"HCEP03730563","2025-08-27 11:30:00","10.6686","3.36124","25.747","1.332","7.36","0.456","4.545","0.03","0.26","29.8926","4.71175","14.5","0","SATNPRO1964","25.818","0.36164","5"],
    [58375,"HCEP03730563","2025-08-27 11:45:00","10.6674","3.36121","25.646","1.321","7.36","0.509","4.923","0.1","0.2","29.8934","4.71189","14.37","0","SATNPRO1964","24.954","0.34952","5"],
    [58376,"HCEP03730563","2025-08-27 12:00:00","10.6671","3.36119","25.522","1.289","7.36","0.467","4.79","0.04","0.27","29.8934","4.71189","14.03","0","SATNPRO1964","24.945999999999998","0.34942","5"],
    [58377,"HCEP03730563","2025-08-27 12:15:00","10.6664","3.3612","25.439","1.275","7.35","0.503","4.98","0.06","0.32","29.8943","4.71201","13.88","0","SATNPRO1964","25.16","0.35238","5"],
    [58378,"HCEP03730563","2025-08-27 12:30:00","10.6671","3.36121","25.354","1.283","7.35","0.496","4.638","0.14","0.32","29.8938","4.71193","13.96","0","SATNPRO1964","25.266000000000002","0.35386","5"],
    [58379,"HCEP03730563","2025-08-27 12:45:00","10.6655","3.36129","25.327","1.298","7.35","0.639","4.847","0.3","0.43","29.8959","4.71225","14.13","0","SATNPRO1964","25.535999999999998","0.35764","5"],
    [58380,"HCEP03730563","2025-08-27 13:00:00","10.6667","3.36133","25.294","1.317","7.36","0.456","4.252","0.08","0.25","29.8953","4.71214","14.33","0","SATNPRO1964","25.456","0.35656","5"],
    [58381,"HCEP03730563","2025-08-27 13:15:00","10.6655","3.36136","25.299","1.33","7.36","0.481","4.511","0.04","0.75","29.8966","4.71234","14.48","0","SATNPRO1964","25.704","0.36006","5"],
    [58382,"HCEP03730563","2025-08-27 13:30:00","10.6655","3.3614","25.334","1.337","7.36","0.444","4.162","0.05","0.16","29.897","4.7124","14.54","0","SATNPRO1964","25.602","0.35862","5"],
    [58383,"HCEP03730563","2025-08-27 13:45:00","10.6644","3.36146","25.387","1.335","7.36","0.53","4.497","0.12","1.01","29.8985","4.71263","14.53","0","SATNPRO1964","25.486","0.35702","5"],
    [58384,"HCEP03730563","2025-08-27 14:00:00","10.6646","3.36149","25.453","1.337","7.36","0.526","4.026","0.34","0.21","29.8985","4.71264","14.55","0","SATNPRO1964","25.446","0.3564","5"],
    [58385,"HCEP03730563","2025-08-27 14:15:00","10.6631","3.36156","25.544","1.342","7.36","0.506","4.315","0.09","0.17","29.9003","4.71293","14.6","0","SATNPRO1964","25.682","0.35976","5"],
    [58386,"HCEP03730563","2025-08-27 14:30:00","10.6642","3.36157","25.639","1.351","7.36","0.452","4.234","0.03","0.21","29.8996","4.71281","14.7","0","SATNPRO1964","25.616","0.35878","5"],
    [58387,"HCEP03730563","2025-08-27 14:45:00","10.6646","3.3616","25.748","1.368","7.36","0.527","4.137","0.11","0.23","29.8994","4.71279","14.89","0","SATNPRO1964","25.7","0.35994","5"],
    [58388,"HCEP03730563","2025-08-27 15:00:00","10.6646","3.36163","25.874","1.382","7.36","0.514","3.967","0.13","0.24","29.8997","4.71284","15.04","0","SATNPRO1964","25.832","0.36182","5"],
    [58389,"HCEP03730563","2025-08-27 15:15:00","10.6681","3.36144","25.988","1.39","7.36","0.501","3.345","0.16","0.35","29.895","4.71211","15.13","0","SATNPRO1964","25.478","0.35688","5"],
    [58390,"HCEP03730563","2025-08-27 15:30:00","10.6675","3.3615","26.14","1.396","7.36","0.438","3.22","0.06","0.13","29.896","4.71228","15.2","0","SATNPRO1964","25.631999999999998","0.35904","5"],
    [58391,"HCEP03730563","2025-08-27 15:45:00","10.6657","3.36164","26.266","1.414","7.36","0.448","3.286","0.05","0.1","29.8988","4.71271","15.39","0","SATNPRO1964","25.936","0.36328","5"],
    [58392,"HCEP03730563","2025-08-27 16:00:00","10.6632","3.36168","26.41","1.415","7.36","0.524","4.384","0.06","0.23","29.9011","4.71309","15.4","0","SATNPRO1964","25.650000000000002","0.35928","5"],
    [58393,"HCEP03730563","2025-08-27 16:15:00","10.6616","3.36166","26.548","1.385","7.36","0.577","4.679","0.09","0.24","29.9022","4.71327","15.07","0","SATNPRO1964","25.264","0.35382","5"],
    [58394,"HCEP03730563","2025-08-27 16:30:00","10.6611","3.36165","26.696","1.341","7.36","0.588","4.819","0.39","0.52","29.9025","4.71333","14.6","0","SATNPRO1964","25.448","0.35646","5"],
    [58395,"HCEP03730563","2025-08-27 16:45:00","10.6611","3.36166","26.832","1.325","7.36","0.57","4.807","0.11","0.22","29.9025","4.71334","14.42","0","SATNPRO1964","25.418","0.35598","5"],
    [58396,"HCEP03730563","2025-08-27 17:00:00","10.6613","3.36157","26.972","1.308","7.36","0.522","4.815","0.05","0.21","29.9014","4.71319","14.24","0","SATNPRO1964","25.084","0.35138","5"],
    [58397,"HCEP03730563","2025-08-27 17:15:00","10.6619","3.36156","27.115","1.283","7.35","0.53","5.136","0.03","0.31","29.9007","4.71309","13.96","0","SATNPRO1964","25.102","0.3516","5"],
    [58398,"HCEP03730563","2025-08-27 17:30:00","10.6633","3.36172","27.214","1.284","7.35","0.54","4.799","0.07","0.19","29.9011","4.71313","13.98","0","SATNPRO1964","25.442","0.35634","5"],
    [58399,"HCEP03730563","2025-08-27 17:45:00","10.6656","3.36193","27.35","1.327","7.36","0.526","4.939","0.06","0.2","29.9012","4.71312","14.44","0","SATNPRO1964","25.684","0.35972","5"],
    [58400,"HCEP03730563","2025-08-27 18:00:00","10.6689","3.36199","27.454","1.394","7.36","0.527","4.723","0.21","0.45","29.8991","4.71277","15.17","0","SATNPRO1964","26.066","0.36508","5"],
    [58401,"HCEP03730563","2025-08-27 18:15:00","10.6723","3.36191","27.54","1.46","7.36","0.513","4.438","0.1","0.18","29.8955","4.71221","15.89","0","SATNPRO1964","26.132","0.36602","5"],
    [58402,"HCEP03730563","2025-08-27 18:30:00","10.6838","3.36178","27.623","1.542","7.37","0.447","3.63","0.05","0.18","29.8849","4.71052","16.79","0","SATNPRO1964","26.464","0.37064","5"],
    [58403,"HCEP03730563","2025-08-27 18:45:00","10.676","3.36169","27.672","1.544","7.37","0.586","4.829","0.1","0.18","29.8903","4.71142","16.81","0","SATNPRO1964","25.932","0.36322","5"],
    [58404,"HCEP03730563","2025-08-27 19:00:00","10.6745","3.36161","27.698","1.454","7.37","0.5","4.956","0.07","0.19","29.8907","4.7115","15.82","0","SATNPRO1964","25.496","0.35712","5"],
    [58405,"HCEP03730563","2025-08-27 19:15:00","10.675","3.36162","27.696","1.409","7.36","0.582","5.542","0.2","0.37","29.8904","4.71145","15.33","0","SATNPRO1964","25.398","0.35576","5"],
    [58406,"HCEP03730563","2025-08-27 19:30:00","10.6754","3.36167","27.671","1.397","7.36","0.495","5.162","0.09","0.24","29.8906","4.71147","15.21","0","SATNPRO1964","25.666","0.3595","5"],
    [58407,"HCEP03730563","2025-08-27 19:45:00","10.6743","3.36175","27.657","1.398","7.36","0.516","5.45","0.04","0.51","29.8923","4.71173","15.22","0","SATNPRO1964","25.658","0.35938","5"],
    [58408,"HCEP03730563","2025-08-27 20:00:00","10.6738","3.3618","27.611","1.399","7.36","0.501","5.049","0.05","0.24","29.8931","4.71185","15.23","0","SATNPRO1964","25.622","0.35888","5"],
    [58409,"HCEP03730563","2025-08-27 20:15:00","10.6748","3.36182","27.563","1.395","7.36","0.533","4.819","0.06","0.26","29.8926","4.71175","15.19","0","SATNPRO1964","25.542","0.35776","5"],
    [58410,"HCEP03730563","2025-08-27 20:30:00","10.676","3.36184","27.481","1.396","7.36","0.546","4.69","0.14","0.6","29.8918","4.71162","15.19","0","SATNPRO1964","25.582","0.35828","5"],
    [58411,"HCEP03730563","2025-08-27 20:45:00","10.676","3.36193","27.395","1.402","7.36","0.502","4.744","0.05","0.32","29.8927","4.71175","15.26","0","SATNPRO1964","25.722","0.3603","5"],
    [58412,"HCEP03730563","2025-08-27 21:00:00","10.6736","3.36196","27.306","1.412","7.36","0.471","4.395","0.05","0.26","29.895","4.71211","15.37","0","SATNPRO1964","25.866","0.36232","5"],
    [58413,"HCEP03730563","2025-08-27 21:15:00","10.6714","3.36205","27.174","1.421","7.36","0.524","4.907","0.06","0.3","29.8978","4.71253","15.47","0","SATNPRO1964","26.174","0.36662","5"],
    [58414,"HCEP03730563","2025-08-27 21:30:00","10.6721","3.36205","27.046","1.435","7.36","0.458","4.173","0.04","0.2","29.8973","4.71244","15.62","0","SATNPRO1964","25.976","0.36384","5"],
    [58415,"HCEP03730563","2025-08-27 21:45:00","10.6744","3.36203","26.9","1.439","7.37","0.506","4.097","0.14","0.18","29.8952","4.7121","15.66","0","SATNPRO1964","25.736","0.3605","5"],
    [58416,"HCEP03730563","2025-08-27 22:00:00","10.672","3.36207","26.783","1.441","7.37","0.466","4.014","0.06","0.21","29.8977","4.71248","15.69","0","SATNPRO1964","26.02","0.36444","5"],
    [58417,"HCEP03730563","2025-08-27 22:15:00","10.6711","3.36209","26.608","1.446","7.37","0.488","4.127","0.06","0.28","29.8986","4.71262","15.74","0","SATNPRO1964","26.074","0.3652","5"],
    [58418,"HCEP03730563","2025-08-27 22:30:00","10.6722","3.36209","26.454","1.453","7.37","0.453","4.053","0.05","0.18","29.8978","4.71248","15.81","0","SATNPRO1964","26.222","0.36726","5"],
    [58419,"HCEP03730563","2025-08-27 22:45:00","10.6713","3.36205","26.272","1.462","7.37","0.487","4.097","0.09","0.24","29.8983","4.71255","15.91","0","SATNPRO1964","26.174","0.36664","5"],
    [58420,"HCEP03730563","2025-08-27 23:00:00","10.6704","3.36208","26.109","1.455","7.37","0.448","4.166","0.04","0.16","29.8993","4.7127","15.83","0","SATNPRO1964","26.218","0.3672","5"],
    [58421,"HCEP03730563","2025-08-27 23:15:00","10.6705","3.36208","25.938","1.46","7.37","0.449","3.859","0.03","0.1","29.8993","4.71269","15.88","0","SATNPRO1964","26.262","0.36782","5"],
    [58422,"HCEP03730563","2025-08-27 23:30:00","10.6683","3.36198","25.745","1.449","7.37","0.452","4.416","0.05","0.33","29.9002","4.71284","15.77","0","SATNPRO1964","26.156","0.36636","5"],
    [58423,"HCEP03730563","2025-08-27 23:45:00","10.6686","3.36206","25.56","1.444","7.37","0.469","4.198","0.06","0.32","29.9008","4.71291","15.71","0","SATNPRO1964","26.042","0.36476","5"],
    [58424,"HCEP03730563","2025-08-28 00:00:00","10.6678","3.36199","25.377","1.444","7.37","0.58","4.407","0.85","0.27","29.9008","4.71292","15.72","0","SATNPRO1964","26.312","0.3685","5"],
    [58425,"HCEP03730563","2025-08-28 00:15:00","10.6678","3.36201","25.239","1.438","7.37","0.464","3.899","0.07","0.17","29.9011","4.71294","15.65","0","SATNPRO1964","26.204","0.36702","5"],
    [58426,"HCEP03730563","2025-08-28 00:30:00","10.6677","3.36199","25.123","1.44","7.37","0.44","4.25","0.05","0.16","29.901","4.71293","15.67","0","SATNPRO1964","26.278","0.36806","5"],
    [58427,"HCEP03730563","2025-08-28 00:45:00","10.6702","3.36215","25.034","1.463","7.37","0.452","4.239","0.03","0.29","29.9006","4.71284","15.92","0","SATNPRO1964","26.688","0.3738","5"],
    [58428,"HCEP03730563","2025-08-28 01:00:00","10.6714","3.36222","24.927","1.534","7.37","0.461","3.578","0.21","0.32","29.9003","4.71276","16.69","0","SATNPRO1964","26.9","0.3768","5"],
    [58429,"HCEP03730563","2025-08-28 01:15:00","10.6666","3.36181","24.89","1.496","7.37","0.475","4.38","0.05","0.2","29.9003","4.71283","16.28","0","SATNPRO1964","25.864","0.36228","5"],
    [58430,"HCEP03730563","2025-08-28 01:30:00","10.6697","3.36197","24.844","1.427","7.37","0.417","3.711","0.04","0.18","29.8993","4.71265","15.53","0","SATNPRO1964","26.412","0.36994","5"],
    [58431,"HCEP03730563","2025-08-28 01:45:00","10.6681","3.36178","24.85","1.417","7.37","0.451","4.279","0.04","0.14","29.8988","4.7126","15.43","0","SATNPRO1964","25.764","0.36086","5"],
    [58432,"HCEP03730563","2025-08-28 02:00:00","10.671","3.36199","24.853","1.422","7.36","0.448","4.005","0.06","0.09","29.8984","4.71249","15.48","0","SATNPRO1964","26.534","0.37162","5"],
    [58433,"HCEP03730563","2025-08-28 02:15:00","10.6702","3.36188","24.883","1.443","7.37","0.475","3.797","0.09","0.12","29.898","4.71245","15.7","0","SATNPRO1964","25.778","0.36104","5"],
    [58434,"HCEP03730563","2025-08-28 02:30:00","10.6745","3.36217","24.926","1.453","7.37","0.398","3.493","0.04","0.15","29.8974","4.71229","15.82","0","SATNPRO1964","26.654","0.37332","5"],
    [58435,"HCEP03730563","2025-08-28 02:45:00","10.6764","3.3622","24.987","1.516","7.37","0.448","3.383","0.04","0.11","29.896","4.71208","16.5","0","SATNPRO1964","26.248","0.36764","5"],
    [58436,"HCEP03730563","2025-08-28 03:00:00","10.6784","3.36244","25.099","1.568","7.37","0.386","3.156","0.04","0.11","29.8967","4.71215","17.06","0","SATNPRO1964","26.972","0.37782","5"],
    [58437,"HCEP03730563","2025-08-28 03:15:00","10.6792","3.36239","25.179","1.612","7.38","0.437","2.939","0.11","0.07","29.8955","4.71197","17.55","0","SATNPRO1964","26.97","0.37774","5"],
    [58438,"HCEP03730563","2025-08-28 03:30:00","10.6824","3.36265","25.264","1.625","7.38","0.365","2.762","0.02","0.1","29.8955","4.71192","17.69","0","SATNPRO1964","27.328","0.38276","5"],
    [58439,"HCEP03730563","2025-08-28 03:45:00","10.6855","3.36295","25.363","1.676","7.38","0.406","2.698","0.08","0.13","29.8959","4.71194","18.25","0","SATNPRO1964","27.618000000000002","0.38682","5"],
    [58440,"HCEP03730563","2025-08-28 04:00:00","10.6876","3.36311","25.464","1.722","7.39","0.378","2.67","0.04","0.35","29.8957","4.71188","18.75","0","SATNPRO1964","27.752000000000002","0.3887","5"],
    [58441,"HCEP03730563","2025-08-28 04:15:00","10.6894","3.36322","25.565","1.741","7.39","0.386","2.508","0.02","0.07","29.8953","4.7118","18.96","0","SATNPRO1964","27.818","0.38962","5"],
    [58442,"HCEP03730563","2025-08-28 04:30:00","10.69","3.36324","25.699","1.747","7.39","0.443","2.817","0.18","0.13","29.8949","4.71174","19.02","0","SATNPRO1964","27.616","0.38682","5"],
    [58443,"HCEP03730563","2025-08-28 04:45:00","10.6863","3.36286","25.815","1.702","7.39","0.48","3.806","0.06","0.3","29.8941","4.71169","18.53","0","SATNPRO1964","27.16","0.38042","5"],
    [58444,"HCEP03730563","2025-08-28 05:00:00","10.6817","3.36257","25.938","1.612","7.38","0.456","3.959","0.09","0.16","29.895","4.7119","17.55","0","SATNPRO1964","26.424","0.37008","5"],
    [58445,"HCEP03730563","2025-08-28 05:15:00","10.6749","3.36191","26.075","1.507","7.38","0.518","4.349","0.15","0.13","29.894","4.71187","16.41","0","SATNPRO1964","25.866","0.3623","5"],
    [58446,"HCEP03730563","2025-08-28 05:30:00","10.6751","3.3619","26.207","1.356","7.37","0.454","4.567","0.06","0.28","29.8936","4.71183","14.76","0","SATNPRO1964","25.592","0.35848","5"],
    [58447,"HCEP03730563","2025-08-28 05:45:00","10.6777","3.36211","26.37","1.324","7.36","0.446","4.504","0.03","0.19","29.8936","4.71178","14.41","0","SATNPRO1964","25.346","0.35506","5"],
    [58448,"HCEP03730563","2025-08-28 06:00:00","10.6819","3.36244","26.492","1.348","7.36","0.445","4.598","0.09","0.17","29.8933","4.71169","14.67","0","SATNPRO1964","25.636","0.35908","5"],
    [58449,"HCEP03730563","2025-08-28 06:15:00","10.6852","3.36268","26.617","1.353","7.36","0.516","4.782","0.08","0.41","29.893","4.7116","14.73","0","SATNPRO1964","25.616","0.35882","5"],
    [58450,"HCEP03730563","2025-08-28 06:30:00","10.6845","3.36254","26.7","1.356","7.36","0.471","4.342","0.09","0.17","29.8921","4.71149","14.76","0","SATNPRO1964","25.616","0.3588","5"],
    [58451,"HCEP03730563","2025-08-28 06:45:00","10.6913","3.36289","26.817","1.352","7.36","0.512","4.869","0.07","0.25","29.8899","4.71108","14.72","0","SATNPRO1964","25.652","0.35932","5"],
    [58452,"HCEP03730563","2025-08-28 07:00:00","10.7048","3.36399","26.909","1.438","7.37","0.495","4.921","0.07","0.19","29.8897","4.71083","15.66","0","SATNPRO1964","25.939999999999998","0.36336","5"],
    [58453,"HCEP03730563","2025-08-28 07:15:00","10.7365","3.36627","26.987","1.77","7.39","0.537","4.13","0.1","0.53","29.8861","4.70984","19.29","0","SATNPRO1964","28.882","0.40456","5"],
    [58454,"HCEP03730563","2025-08-28 07:30:00","10.7083","3.36418","27.047","1.905","7.4","0.477","4.218","0.04","0.23","29.8887","4.71064","20.75","0","SATNPRO1964","25.560000000000002","0.35804","5"],
    [58455,"HCEP03730563","2025-08-28 07:45:00","10.6905","3.36272","27.044","1.599","7.38","0.524","4.786","0.07","0.16","29.8888","4.71094","17.41","0","SATNPRO1964","25.178","0.35266","5"],
    [58456,"HCEP03730563","2025-08-28 08:00:00","10.6907","3.3627","27.054","1.39","7.37","0.485","5.265","0.04","0.24","29.8885","4.7109","15.13","0","SATNPRO1964","25.202","0.35298","5"],
    [58457,"HCEP03730563","2025-08-28 08:15:00","10.6874","3.36244","27.076","1.333","7.36","0.535","5.781","0.08","0.3","29.8886","4.71097","14.51","0","SATNPRO1964","25.246","0.3536","5"],
    [58458,"HCEP03730563","2025-08-28 08:30:00","10.6867","3.36231","27.076","1.303","7.36","0.505","5.153","0.07","0.26","29.8878","4.71086","14.19","0","SATNPRO1964","25.328","0.35478","5"],
    [58459,"HCEP03730563","2025-08-28 08:45:00","10.6825","3.36216","27.031","1.304","7.36","0.506","5.943","0.04","0.31","29.8899","4.71122","14.2","0","SATNPRO1964","25.29","0.35424","5"],
    [58460,"HCEP03730563","2025-08-28 09:00:00","10.6694","3.36185","26.991","1.278","7.35","0.486","5.75","0.05","0.21","29.8975","4.71251","13.91","0","SATNPRO1964","24.926000000000002","0.34914","5"],
    [58461,"HCEP03730563","2025-08-28 09:15:00","10.6697","3.36188","26.945","1.239","7.35","0.512","5.223","0.04","0.29","29.8976","4.71252","13.49","0","SATNPRO1964","25.104","0.3516","5"],
    [58462,"HCEP03730563","2025-08-28 09:30:00","10.6654","3.36186","26.898","1.228","7.35","0.523","4.995","0.16","0.15","29.901","4.71306","13.36","0","SATNPRO1964","25.156","0.35236","5"],
    [58463,"HCEP03730563","2025-08-28 09:45:00","10.6659","3.36177","26.844","1.2","7.35","0.503","5.023","0.04","0.24","29.8997","4.71287","13.06","0","SATNPRO1964","25.150000000000002","0.35224","5"],
    [58464,"HCEP03730563","2025-08-28 10:00:00","10.6654","3.36166","26.782","1.187","7.35","0.504","5.396","0.05","0.37","29.899","4.71277","12.92","0","SATNPRO1964","25.018","0.35042","5"],
    [58465,"HCEP03730563","2025-08-28 10:15:00","10.6664","3.36159","26.708","1.169","7.34","0.516","4.957","0.06","0.17","29.8976","4.71255","12.72","0","SATNPRO1964","24.776","0.34702","5"],
    [58466,"HCEP03730563","2025-08-28 10:30:00","10.6669","3.36152","26.641","1.164","7.34","0.52","5.006","0.08","0.34","29.8965","4.71238","12.67","0","SATNPRO1964","24.886","0.3486","5"],
    [58467,"HCEP03730563","2025-08-28 10:45:00","10.6671","3.36151","26.556","1.163","7.34","0.522","4.809","0.06","0.26","29.8962","4.71234","12.66","0","SATNPRO1964","24.881999999999998","0.34852","5"],
    [58468,"HCEP03730563","2025-08-28 11:00:00","10.665","3.36155","26.496","1.161","7.34","0.507","4.894","0.05","0.23","29.8983","4.71267","12.64","0","SATNPRO1964","24.846","0.34796","5"],
    [58469,"HCEP03730563","2025-08-28 11:15:00","10.6645","3.36158","26.406","1.159","7.34","0.526","4.55","0.08","0.17","29.8991","4.71279","12.61","0","SATNPRO1964","25","0.35018","5"],
    [58470,"HCEP03730563","2025-08-28 11:30:00","10.6636","3.36165","26.312","1.164","7.34","0.499","4.814","0.11","0.83","29.9006","4.713","12.66","0","SATNPRO1964","25.102","0.35158","5"],
    [58471,"HCEP03730563","2025-08-28 11:45:00","10.663","3.36197","26.238","1.181","7.34","0.582","4.687","0.11","0.27","29.9042","4.71352","12.85","0","SATNPRO1964","25.238","0.35348","5"],
    [58472,"HCEP03730563","2025-08-28 12:00:00","10.6627","3.36195","26.128","1.203","7.34","0.555","4.615","0.17","0.23","29.9043","4.71354","13.09","0","SATNPRO1964","25.18","0.35266","5"],
    [58473,"HCEP03730563","2025-08-28 12:15:00","10.6622","3.36189","26.039","1.202","7.34","0.526","4.608","0.05","0.21","29.9042","4.71352","13.08","0","SATNPRO1964","25.152","0.35228","5"],
    [58474,"HCEP03730563","2025-08-28 12:30:00","10.6619","3.36194","25.949","1.195","7.34","0.52","4.767","0.06","0.31","29.9049","4.71362","13","0","SATNPRO1964","25.06","0.35102","5"],
    [58475,"HCEP03730563","2025-08-28 12:45:00","10.6622","3.36189","25.869","1.195","7.34","0.555","4.391","0.1","0.22","29.9043","4.71353","13","0","SATNPRO1964","25.142","0.35212","5"],
    [58476,"HCEP03730563","2025-08-28 13:00:00","10.6641","3.36199","25.822","1.213","7.34","0.504","4.019","0.08","0.5","29.9038","4.71342","13.2","0","SATNPRO1964","25.682","0.35972","5"],
    [58477,"HCEP03730563","2025-08-28 13:15:00","10.6717","3.35747","25.776","1.325","7.35","0.68","3.458","0.96","0.16","29.853","4.70607","14.41","0","SATNPRO1964","26.541999999999998","0.37174","5"],
    [58478,"HCEP03730563","2025-08-28 13:30:00","10.6637","3.36212","25.752","1.351","7.35","0.517","4.381","0.08","0.18","29.9054","4.71365","14.7","0","SATNPRO1964","25.184","0.35272","5"],
    [58479,"HCEP03730563","2025-08-28 13:45:00","10.6634","3.3623","25.754","1.281","7.35","0.539","4.14","0.15","0.18","29.9073","4.71393","13.94","0","SATNPRO1964","25.73","0.3604","5"],
    [58480,"HCEP03730563","2025-08-28 14:00:00","10.6653","3.36244","25.776","1.288","7.35","0.528","4.016","0.14","0.2","29.9072","4.71389","14.02","0","SATNPRO1964","25.804","0.36146","5"],
    [58481,"HCEP03730563","2025-08-28 14:15:00","10.6659","3.36267","25.81","1.322","7.35","0.5","4.254","0.05","0.21","29.9089","4.71412","14.38","0","SATNPRO1964","26.226","0.36736","5"],
    [58482,"HCEP03730563","2025-08-28 14:30:00","10.666","3.36281","25.86","1.342","7.36","0.506","4.382","0.09","0.27","29.9103","4.71431","14.61","0","SATNPRO1964","26.274","0.36802","5"],
    [58483,"HCEP03730563","2025-08-28 14:45:00","10.6677","3.36291","25.905","1.366","7.36","0.489","4.135","0.04","0.23","29.9098","4.71423","14.87","0","SATNPRO1964","26.272","0.36798","5"],
    [58484,"HCEP03730563","2025-08-28 15:00:00","10.6693","3.36291","25.993","1.395","7.36","0.471","3.441","0.05","0.09","29.9084","4.71401","15.18","0","SATNPRO1964","26.31","0.36856","5"],
    [58485,"HCEP03730563","2025-08-28 15:15:00","10.6699","3.36273","26.067","1.418","7.36","0.623","3.63","0.73","0.26","29.9062","4.71368","15.44","0","SATNPRO1964","26.414","0.36998","5"],
    [58486,"HCEP03730563","2025-08-28 15:30:00","10.6703","3.36271","26.174","1.425","7.36","0.502","3.595","0.09","0.14","29.9056","4.71359","15.51","0","SATNPRO1964","26.534","0.37166","5"],
    [58487,"HCEP03730563","2025-08-28 15:45:00","10.6701","3.36265","26.244","1.42","7.36","0.483","3.474","0.07","0.21","29.9051","4.71354","15.45","0","SATNPRO1964","26.288","0.3682","5"],
    [58488,"HCEP03730563","2025-08-28 16:00:00","10.6713","3.3626","26.338","1.427","7.36","0.445","3.346","0.05","0.19","29.9036","4.71332","15.54","0","SATNPRO1964","26.602","0.3726","5"],
    [58489,"HCEP03730563","2025-08-28 16:15:00","10.671","3.36287","26.446","1.454","7.37","0.49","3.514","0.07","0.18","29.9065","4.71373","15.83","0","SATNPRO1964","26.868","0.37634","5"],
    [58490,"HCEP03730563","2025-08-28 16:30:00","10.6707","3.36303","26.58","1.459","7.37","0.438","3.452","0.05","0.19","29.9083","4.714","15.88","0","SATNPRO1964","26.754","0.37474","5"],
    [58491,"HCEP03730563","2025-08-28 16:45:00","10.6699","3.36307","26.685","1.459","7.37","0.528","4.446","0.09","0.39","29.9092","4.71415","15.88","0","SATNPRO1964","26.738","0.37448","5"],
    [58492,"HCEP03730563","2025-08-28 17:00:00","10.6733","3.36315","26.779","1.485","7.37","0.437","3.292","0.07","0.5","29.9072","4.71382","16.16","0","SATNPRO1964","27.137999999999998","0.38012","5"],
    [58493,"HCEP03730563","2025-08-28 17:15:00","10.669","3.36302","26.901","1.493","7.37","0.468","3.922","0.04","0.21","29.9094","4.71421","16.25","0","SATNPRO1964","26.62","0.37286","5"],
    [58494,"HCEP03730563","2025-08-28 17:30:00","10.6636","3.36286","27.012","1.397","7.36","0.475","4.255","0.05","0.18","29.9122","4.71469","15.2","0","SATNPRO1964","25.602","0.3586","5"],
    [58495,"HCEP03730563","2025-08-28 17:45:00","10.663","3.3628","27.115","1.282","7.36","0.503","4.139","0.06","0.21","29.9121","4.71469","13.95","0","SATNPRO1964","25.554","0.35794","5"],
    [58496,"HCEP03730563","2025-08-28 18:00:00","10.663","3.36288","27.201","1.253","7.35","0.481","4.16","0.05","0.22","29.9128","4.7148","13.64","0","SATNPRO1964","25.508","0.35726","5"],
    [58497,"HCEP03730563","2025-08-28 18:15:00","10.6626","3.36269","27.293","1.255","7.35","0.509","4.539","0.04","0.26","29.9113","4.71459","13.66","0","SATNPRO1964","25.334","0.35486","5"],
    [58498,"HCEP03730563","2025-08-28 18:30:00","10.6646","3.36293","27.381","1.241","7.35","0.494","3.911","0.08","0.19","29.912","4.71467","13.51","0","SATNPRO1964","25.736","0.3605","5"],
    [58499,"HCEP03730563","2025-08-28 18:45:00","10.6648","3.36259","27.455","1.298","7.35","0.508","3.825","0.1","0.58","29.9084","4.71416","14.13","0","SATNPRO1964","25.686","0.35978","5"],
    [58500,"HCEP03730563","2025-08-28 19:00:00","10.6661","3.36255","27.492","1.294","7.35","0.438","3.538","0.05","0.31","29.907","4.71394","14.09","0","SATNPRO1964","26.066","0.36512","5"],
    [58501,"HCEP03730563","2025-08-28 19:15:00","10.6764","3.36231","27.566","1.383","7.36","0.398","2.062","0.04","0.23","29.8962","4.71224","15.06","0","SATNPRO1964","26.894000000000002","0.3767","5"],
    [58502,"HCEP03730563","2025-08-28 19:30:00","10.6714","3.36185","27.557","1.424","7.36","0.411","2.694","0.05","0.11","29.8956","4.71224","15.49","0","SATNPRO1964","25.462","0.35662","5"],
    [58503,"HCEP03730563","2025-08-28 19:45:00","10.6649","3.36233","27.557","1.294","7.35","0.471","4.026","0.04","0.31","29.9056","4.71377","14.08","0","SATNPRO1964","25.222","0.35324","5"],
    [58504,"HCEP03730563","2025-08-28 20:00:00","10.6643","3.36237","27.56","1.227","7.35","0.483","4.447","0.09","0.19","29.9066","4.71392","13.35","0","SATNPRO1964","25.17","0.35258","5"],
    [58505,"HCEP03730563","2025-08-28 20:15:00","10.6644","3.3623","27.526","1.197","7.35","0.515","4.592","0.07","0.22","29.9058","4.7138","13.03","0","SATNPRO1964","24.948","0.34942","5"],
    [58506,"HCEP03730563","2025-08-28 20:30:00","10.6651","3.36218","27.509","1.176","7.34","0.481","4.88","0.06","0.3","29.9041","4.71355","12.8","0","SATNPRO1964","25.152","0.35226","5"],
    [58507,"HCEP03730563","2025-08-28 20:45:00","10.6659","3.36207","27.465","1.159","7.34","0.546","4.821","0.2","0.22","29.9024","4.71329","12.61","0","SATNPRO1964","24.822","0.34772","5"],
    [58508,"HCEP03730563","2025-08-28 21:00:00","10.6664","3.36201","27.386","1.144","7.34","0.459","4.881","0.03","0.2","29.9014","4.71313","12.45","0","SATNPRO1964","24.81","0.34752","5"],
    [58509,"HCEP03730563","2025-08-28 21:15:00","10.6671","3.36191","27.312","1.125","7.34","0.482","4.579","0.04","0.36","29.8998","4.71289","12.25","0","SATNPRO1964","24.738","0.3465","5"],
    [58510,"HCEP03730563","2025-08-28 21:30:00","10.6678","3.36185","27.218","1.11","7.34","0.45","4.58","0.04","0.18","29.8987","4.71272","12.08","0","SATNPRO1964","24.538","0.34374","5"],
    [58511,"HCEP03730563","2025-08-28 21:45:00","10.6704","3.36191","27.114","1.1","7.34","0.5","4.882","0.08","0.52","29.8972","4.71246","11.97","0","SATNPRO1964","24.494","0.3431","5"],
    [58512,"HCEP03730563","2025-08-28 22:00:00","10.6727","3.36194","26.998","1.103","7.34","0.459","4.703","0.04","0.23","29.8957","4.71221","12.01","0","SATNPRO1964","24.458","0.34256","5"],
    [58513,"HCEP03730563","2025-08-28 22:15:00","10.6733","3.36193","26.85","1.098","7.34","0.527","4.585","0.16","0.19","29.8951","4.7121","11.95","0","SATNPRO1964","24.254","0.33966","5"],
    [58514,"HCEP03730563","2025-08-28 22:30:00","10.6756","3.36201","26.716","1.095","7.34","0.467","4.657","0.05","0.17","29.8942","4.71192","11.92","0","SATNPRO1964","24.464","0.34266","5"],
    [58515,"HCEP03730563","2025-08-28 22:45:00","10.6754","3.36207","26.563","1.092","7.34","0.45","4.455","0.04","0.22","29.895","4.71204","11.89","0","SATNPRO1964","24.381999999999998","0.34148","5"],
    [58516,"HCEP03730563","2025-08-28 23:00:00","10.6772","3.3622","26.392","1.103","7.34","0.448","4.656","0.06","0.31","29.8949","4.71198","12.01","0","SATNPRO1964","24.59","0.34442","5"],
    [58517,"HCEP03730563","2025-08-28 23:15:00","10.6764","3.36218","26.228","1.119","7.34","0.477","4.531","0.08","0.24","29.8954","4.71205","12.18","0","SATNPRO1964","24.534","0.34368","5"],
    [58518,"HCEP03730563","2025-08-28 23:30:00","10.6748","3.36211","26.064","1.124","7.34","0.43","4.26","0.04","0.15","29.896","4.71216","12.23","0","SATNPRO1964","24.444","0.3424","5"],
    [58519,"HCEP03730563","2025-08-28 23:45:00","10.6736","3.36208","25.912","1.119","7.34","0.488","4.578","0.09","0.27","29.8968","4.71228","12.17","0","SATNPRO1964","24.716","0.34622","5"],
    [58520,"HCEP03730563","2025-08-29 00:00:00","10.6729","3.36209","25.753","1.119","7.34","0.445","4.647","0.05","0.37","29.8974","4.71237","12.18","0","SATNPRO1964","24.76","0.34682","5"],
    [58521,"HCEP03730563","2025-08-29 00:15:00","10.672","3.36214","25.57","1.133","7.34","0.457","4.346","0.03","0.2","29.8987","4.71256","12.33","0","SATNPRO1964","24.988","0.35","5"],
    [58522,"HCEP03730563","2025-08-29 00:30:00","10.6722","3.36221","25.419","1.15","7.34","0.454","4.226","0.13","0.24","29.8995","4.71266","12.52","0","SATNPRO1964","24.866","0.34828","5"],
    [58523,"HCEP03730563","2025-08-29 00:45:00","10.6725","3.36239","25.264","1.171","7.34","0.451","4.093","0.05","0.15","29.901","4.71285","12.74","0","SATNPRO1964","25.105999999999998","0.35166","5"],
    [58524,"HCEP03730563","2025-08-29 01:00:00","10.6723","3.36237","25.099","1.19","7.34","0.431","4.009","0.06","0.14","29.901","4.71286","12.95","0","SATNPRO1964","25.59","0.35844","5"],
    [58525,"HCEP03730563","2025-08-29 01:15:00","10.6724","3.36247","24.984","1.199","7.34","0.871","4.415","1.27","0.28","29.902","4.71299","13.05","0","SATNPRO1964","25.33","0.35482","5"],
    [58526,"HCEP03730563","2025-08-29 01:30:00","10.6733","3.36263","24.89","1.214","7.34","0.452","4.25","0.06","0.17","29.9028","4.71308","13.21","0","SATNPRO1964","25.362","0.35526","5"],
    [58527,"HCEP03730563","2025-08-29 01:45:00","10.6746","3.36281","24.807","1.233","7.35","0.526","4.444","0.22","0.45","29.9036","4.71317","13.42","0","SATNPRO1964","25.701999999999998","0.36002","5"],
    [58528,"HCEP03730563","2025-08-29 02:00:00","10.6779","3.36321","24.76","1.263","7.35","0.438","4.273","0.04","0.18","29.9049","4.7133","13.75","0","SATNPRO1964","25.618000000000002","0.35882","5"],
    [58529,"HCEP03730563","2025-08-29 02:15:00","10.6797","3.36342","24.769","1.305","7.35","0.527","4.726","0.16","0.24","29.9054","4.71334","14.21","0","SATNPRO1964","25.886","0.36262","5"],
    [58530,"HCEP03730563","2025-08-29 02:30:00","10.6829","3.36382","24.777","1.342","7.35","0.437","4.418","0.04","0.16","29.9068","4.7135","14.61","0","SATNPRO1964","26.178","0.36664","5"],
    [58531,"HCEP03730563","2025-08-29 02:45:00","10.6862","3.36421","24.794","1.39","7.36","0.468","4.456","0.04","0.17","29.9079","4.7136","15.14","0","SATNPRO1964","26.192","0.3669","5"],
    [58532,"HCEP03730563","2025-08-29 03:00:00","10.69","3.36475","24.814","1.442","7.36","0.468","4.484","0.16","0.27","29.9101","4.71385","15.7","0","SATNPRO1964","27.208","0.38108","5"],
    [58533,"HCEP03730563","2025-08-29 03:15:00","10.6891","3.36461","24.849","1.478","7.37","0.471","4.587","0.05","0.32","29.9095","4.71379","16.09","0","SATNPRO1964","26.721999999999998","0.3743","5"],
    [58534,"HCEP03730563","2025-08-29 03:30:00","10.6891","3.36461","24.906","1.465","7.37","0.539","5.152","0.36","0.78","29.9094","4.71378","15.95","0","SATNPRO1964","26.497999999999998","0.37114","5"],
    [58535,"HCEP03730563","2025-08-29 03:45:00","10.6993","3.36593","24.982","1.505","7.37","0.475","4.743","0.03","0.27","29.914","4.71427","16.39","0","SATNPRO1964","27.248","0.38164","5"],
    [58536,"HCEP03730563","2025-08-29 04:00:00","10.7047","3.36667","25.088","1.624","7.38","0.448","4.916","0.03","0.25","29.9168","4.71459","17.69","0","SATNPRO1964","27.602","0.38662","5"],
    [58537,"HCEP03730563","2025-08-29 04:15:00","10.7097","3.36724","25.162","1.707","7.38","0.456","4.627","0.04","0.22","29.9184","4.71474","18.6","0","SATNPRO1964","28.162","0.39448","5"],
    [58538,"HCEP03730563","2025-08-29 04:30:00","10.7173","3.36826","25.273","1.801","7.39","0.438","4.474","0.09","0.25","29.9222","4.71517","19.62","0","SATNPRO1964","28.428","0.39818","5"],
    [58539,"HCEP03730563","2025-08-29 04:45:00","10.7232","3.36904","25.364","1.913","7.4","0.455","4.436","0.04","0.33","29.9249","4.71547","20.84","0","SATNPRO1964","28.55","0.3999","5"],
    [58540,"HCEP03730563","2025-08-29 05:00:00","10.7197","3.36855","25.477","1.946","7.41","0.443","4.839","0.08","0.25","29.923","4.71525","21.2","0","SATNPRO1964","28.304000000000002","0.39646","5"],
    [58541,"HCEP03730563","2025-08-29 05:15:00","10.72","3.36845","25.59","1.892","7.4","0.471","4.742","0.04","0.21","29.9217","4.71507","20.62","0","SATNPRO1964","27.92","0.39106","5"],
    [58542,"HCEP03730563","2025-08-29 05:30:00","10.7174","3.36805","25.705","1.827","7.4","0.481","5.194","0.04","0.36","29.9199","4.71486","19.91","0","SATNPRO1964","27.542","0.38572","5"],
    [58543,"HCEP03730563","2025-08-29 05:45:00","10.7162","3.36788","25.803","1.759","7.4","0.483","5.275","0.04","0.27","29.9191","4.71478","19.16","0","SATNPRO1964","27.311999999999998","0.38252","5"],
    [58544,"HCEP03730563","2025-08-29 06:00:00","10.7225","3.36853","25.945","1.736","7.4","0.481","6.069","0.04","0.51","29.9203","4.71485","18.92","0","SATNPRO1964","27.580000000000002","0.38632","5"],
    [58545,"HCEP03730563","2025-08-29 06:15:00","10.7284","3.3692","26.06","1.779","7.4","0.481","5.016","0.05","0.2","29.922","4.71501","19.38","0","SATNPRO1964","28.128","0.39398","5"],
    [58546,"HCEP03730563","2025-08-29 06:30:00","10.7333","3.36972","26.291","1.843","7.4","0.481","6.022","0.04","0.29","29.923","4.71509","20.09","0","SATNPRO1964","28.086000000000002","0.3934","5"],
    [58547,"HCEP03730563","2025-08-29 06:45:00","10.7444","3.3713","26.367","1.957","7.41","0.472","4.597","0.05","0.19","29.9295","4.71584","21.33","0","SATNPRO1964","28.81","0.40352","5"],
    [58548,"HCEP03730563","2025-08-29 07:00:00","10.7518","3.37236","26.51","2.117","7.42","0.438","4.583","0.03","0.2","29.9338","4.71634","23.08","0","SATNPRO1964","29.322","0.4107","5"],
    [58549,"HCEP03730563","2025-08-29 07:15:00","10.7588","3.37322","26.647","2.254","7.43","0.446","4.356","0.03","0.13","29.9365","4.71663","24.58","0","SATNPRO1964","29.878","0.4185","5"],
    [58550,"HCEP03730563","2025-08-29 07:30:00","10.7585","3.37291","26.744","2.363","7.44","0.448","4.287","0.05","0.16","29.9337","4.71624","25.77","0","SATNPRO1964","30.142","0.4222","5"],
    [58551,"HCEP03730563","2025-08-29 07:45:00","10.7511","3.37165","26.842","2.35","7.44","0.526","5.507","0.07","0.47","29.9273","4.71545","25.63","0","SATNPRO1964","29.524","0.41352","5"],
    [58552,"HCEP03730563","2025-08-29 08:00:00","10.7495","3.37088","26.902","2.286","7.44","0.454","4.789","0.03","0.2","29.921","4.71458","24.92","0","SATNPRO1964","29.846","0.41802","5"],
    [58553,"HCEP03730563","2025-08-29 08:15:00","10.7513","3.37012","26.985","2.294","7.45","0.497","3.989","0.15","0.16","29.912","4.71328","25.02","0","SATNPRO1964","29.876","0.41844","5"],
    [58554,"HCEP03730563","2025-08-29 08:30:00","10.7491","3.37075","27.06","2.384","7.45","0.472","4.415","0.08","0.18","29.9199","4.71445","25.99","0","SATNPRO1964","29.823999999999998","0.41772","5"],
    [58555,"HCEP03730563","2025-08-29 08:45:00","10.7499","3.37072","27.04","2.296","7.45","0.504","4.145","0.12","0.25","29.919","4.71431","25.03","0","SATNPRO1964","29.686","0.41582","5"],
    [58556,"HCEP03730563","2025-08-29 09:00:00","10.7526","3.37082","27.071","2.32","7.45","0.414","3.456","0.04","0.21","29.9178","4.71409","25.3","0","SATNPRO1964","30.532","0.42768","5"],
    [58557,"HCEP03730563","2025-08-29 09:15:00","10.7553","3.37238","27.077","2.337","7.45","0.61","4.536","0.37","0.25","29.9309","4.71591","25.48","0","SATNPRO1964","29.836","0.41788","5"],
    [58558,"HCEP03730563","2025-08-29 09:30:00","10.7591","3.37329","27.069","2.333","7.45","0.501","5.57","0.06","0.27","29.9368","4.71669","25.45","0","SATNPRO1964","30.064","0.42108","5"],
    [58559,"HCEP03730563","2025-08-29 09:45:00","10.7597","3.37343","27.076","2.329","7.45","0.586","6.049","0.14","0.4","29.9377","4.71681","25.4","0","SATNPRO1964","29.794","0.41732","5"],
    [58560,"HCEP03730563","2025-08-29 10:00:00","10.7628","3.37399","27.026","2.322","7.45","0.492","5.027","0.09","0.24","29.9407","4.71718","25.33","0","SATNPRO1964","29.59","0.41448","5"],
    [58561,"HCEP03730563","2025-08-29 10:15:00","10.7613","3.37388","26.995","2.32","7.45","0.547","5.112","0.08","0.37","29.9409","4.71723","25.31","0","SATNPRO1964","29.472","0.41278","5"],
    [58562,"HCEP03730563","2025-08-29 10:30:00","10.7629","3.37427","26.984","2.3","7.45","0.512","4.822","0.07","0.26","29.9434","4.71756","25.08","0","SATNPRO1964","29.22","0.40926","5"],
    [58563,"HCEP03730563","2025-08-29 10:45:00","10.7578","3.37365","26.958","2.283","7.45","0.523","4.743","0.05","0.21","29.9414","4.71737","24.9","0","SATNPRO1964","29.304","0.41044","5"],
    [58564,"HCEP03730563","2025-08-29 11:00:00","10.7581","3.37379","26.889","2.224","7.44","0.491","4.977","0.06","0.31","29.9426","4.71752","24.26","0","SATNPRO1964","29.322","0.41076","5"],
    [58565,"HCEP03730563","2025-08-29 11:15:00","10.7655","3.37466","26.852","2.253","7.44","0.524","3.725","0.31","0.21","29.9451","4.71776","24.58","0","SATNPRO1964","29.948","0.41946","5"],
    [58566,"HCEP03730563","2025-08-29 11:30:00","10.768","3.37493","26.787","2.333","7.45","0.471","3.69","0.12","0.15","29.9458","4.71781","25.45","0","SATNPRO1964","29.622","0.4149","5"],
    [58567,"HCEP03730563","2025-08-29 11:45:00","10.7646","3.37476","26.704","2.334","7.45","0.485","4.054","0.04","0.16","29.9469","4.71801","25.46","0","SATNPRO1964","29.733999999999998","0.41648","5"],
    [58568,"HCEP03730563","2025-08-29 12:00:00","10.7637","3.37477","26.696","2.294","7.45","0.479","4.107","0.07","0.16","29.9477","4.71814","25.02","0","SATNPRO1964","29.716","0.41624","5"],
    [58569,"HCEP03730563","2025-08-29 12:15:00","10.7644","3.37489","26.612","2.279","7.45","2.714","121.538","1.05","50.6","29.9484","4.71823","24.86","0","SATNPRO1964","29.752","0.41672","5"],
    [58570,"HCEP03730563","2025-08-29 12:30:00","10.7644","3.37486","26.557","2.271","7.45","0.477","3.987","0.07","0.2","29.948","4.71818","24.78","0","SATNPRO1964","29.922","0.41912","5"],
    [58571,"HCEP03730563","2025-08-29 12:45:00","10.7634","3.37473","26.504","2.264","7.45","0.5","4.16","0.05","0.21","29.9476","4.71813","24.7","0","SATNPRO1964","30.048000000000002","0.42084","5"],
    [58572,"HCEP03730563","2025-08-29 13:00:00","10.7602","3.37426","26.441","2.253","7.44","0.609","4.408","0.57","0.27","29.9457","4.7179","24.58","0","SATNPRO1964","29.718","0.4162","5"],
    [58573,"HCEP03730563","2025-08-29 13:15:00","10.7651","3.37453","26.377","2.297","7.45","0.534","4.107","0.24","0.27","29.9444","4.71763","25.06","0","SATNPRO1964","30.2","0.42302","5"],
    [58574,"HCEP03730563","2025-08-29 13:30:00","10.7583","3.37349","26.328","2.36","7.45","0.458","3.877","0.06","0.22","29.9396","4.71706","25.74","0","SATNPRO1964","30.176000000000002","0.42266","5"],
    [58575,"HCEP03730563","2025-08-29 13:45:00","10.7509","3.37233","26.292","2.311","7.45","0.478","3.694","0.04","0.18","29.9343","4.71642","25.2","0","SATNPRO1964","29.356","0.41116","5"],
    [58576,"HCEP03730563","2025-08-29 14:00:00","10.7485","3.37226","26.239","2.204","7.44","0.45","4.164","0.04","0.22","29.9357","4.71665","24.04","0","SATNPRO1964","29.14","0.40814","5"],
    [58577,"HCEP03730563","2025-08-29 14:15:00","10.749","3.37233","26.224","2.163","7.44","0.486","4.235","0.04","0.15","29.936","4.71668","23.59","0","SATNPRO1964","29.1","0.40758","5"],
    [58578,"HCEP03730563","2025-08-29 14:30:00","10.7521","3.37307","26.217","2.167","7.44","0.467","4.194","0.05","0.24","29.9407","4.7173","23.63","0","SATNPRO1964","29.508","0.4133","5"],
    [58579,"HCEP03730563","2025-08-29 14:45:00","10.7513","3.3727","26.203","2.174","7.44","0.468","3.869","0.05","0.19","29.9377","4.71689","23.7","0","SATNPRO1964","29.605999999999998","0.41466","5"],
    [58580,"HCEP03730563","2025-08-29 15:00:00","10.7504","3.37256","26.235","2.197","7.44","0.575","3.381","0.62","0.13","29.9371","4.71682","23.96","0","SATNPRO1964","29.408","0.4119","5"],
    [58581,"HCEP03730563","2025-08-29 15:15:00","10.748","3.37238","26.279","2.199","7.44","0.456","3.918","0.04","0.14","29.9372","4.71688","23.98","0","SATNPRO1964","29.61","0.41474","5"],
    [58582,"HCEP03730563","2025-08-29 15:30:00","10.7475","3.37248","26.318","2.193","7.44","0.463","4.077","0.15","0.23","29.9386","4.71708","23.92","0","SATNPRO1964","29.814","0.41758","5"],
    [58583,"HCEP03730563","2025-08-29 15:45:00","10.7473","3.37229","26.362","2.219","7.44","0.45","3.517","0.04","0.15","29.9369","4.71684","24.2","0","SATNPRO1964","30.073999999999998","0.42126","5"],
    [58584,"HCEP03730563","2025-08-29 16:00:00","10.7501","3.37247","26.41","2.304","7.44","0.534","2.798","0.33","0.14","29.9363","4.71673","25.12","0","SATNPRO1964","30.64","0.42916","5"],
    [58585,"HCEP03730563","2025-08-29 16:15:00","10.7455","3.37201","26.479","2.337","7.45","0.461","3.452","0.07","0.24","29.9355","4.71668","25.49","0","SATNPRO1964","29.92","0.4191","5"],
    [58586,"HCEP03730563","2025-08-29 16:30:00","10.7424","3.37158","26.559","2.286","7.44","0.389","3.266","0.03","0.3","29.9338","4.7165","24.93","0","SATNPRO1964","30.18","0.42272","5"],
    [58587,"HCEP03730563","2025-08-29 16:45:00","10.7412","3.37143","26.641","2.246","7.44","0.44","3.328","0.05","0.23","29.9333","4.71644","24.49","0","SATNPRO1964","30.072","0.42114","5"],
    [58588,"HCEP03730563","2025-08-29 17:00:00","10.7405","3.37148","26.699","2.215","7.44","0.601","3.519","0.8","0.33","29.9343","4.71661","24.15","0","SATNPRO1964","29.676","0.41566","5"],
    [58589,"HCEP03730563","2025-08-29 17:15:00","10.7402","3.37147","26.776","2.194","7.44","0.419","3.301","0.04","0.13","29.9344","4.71663","23.92","0","SATNPRO1964","29.704","0.41606","5"],
    [58590,"HCEP03730563","2025-08-29 17:30:00","10.7403","3.37162","26.855","2.18","7.44","0.413","3.774","0.03","0.19","29.9358","4.71682","23.76","0","SATNPRO1964","29.576","0.41426","5"],
    [58591,"HCEP03730563","2025-08-29 17:45:00","10.7411","3.37169","26.948","2.169","7.44","0.516","4.064","0.15","0.34","29.9358","4.71683","23.65","0","SATNPRO1964","29.756","0.41676","5"],
    [58592,"HCEP03730563","2025-08-29 18:00:00","10.7422","3.37196","27.032","2.152","7.43","0.431","4.343","0.04","0.19","29.9375","4.71706","23.47","0","SATNPRO1964","29.566","0.41416","5"],
    [58593,"HCEP03730563","2025-08-29 18:15:00","10.7442","3.37228","27.094","2.086","7.43","0.492","5.286","0.05","0.31","29.939","4.71724","22.75","0","SATNPRO1964","28.466","0.39874","5"],
    [58594,"HCEP03730563","2025-08-29 18:30:00","10.749","3.37308","27.181","2.024","7.43","0.476","5.562","0.06","0.6","29.9429","4.71772","22.07","0","SATNPRO1964","28.406","0.39788","5"],
    [58595,"HCEP03730563","2025-08-29 18:45:00","10.7501","3.37326","27.244","2.013","7.42","0.504","4.995","0.03","0.22","29.9438","4.71784","21.95","0","SATNPRO1964","28.494","0.39916","5"],
    [58596,"HCEP03730563","2025-08-29 19:00:00","10.7489","3.3732","27.34","2.002","7.42","0.483","5.06","0.06","0.21","29.9441","4.7179","21.83","0","SATNPRO1964","28.316","0.39662","5"],
    [58597,"HCEP03730563","2025-08-29 19:15:00","10.7477","3.37304","27.388","1.991","7.42","0.499","4.747","0.08","0.31","29.9435","4.71784","21.71","0","SATNPRO1964","28.666","0.4015","5"],
    [58598,"HCEP03730563","2025-08-29 19:30:00","10.7495","3.37331","27.435","1.99","7.42","0.483","4.564","0.07","0.2","29.9447","4.71798","21.7","0","SATNPRO1964","28.62","0.4009","5"],
    [58599,"HCEP03730563","2025-08-29 19:45:00","10.7466","3.3729","27.465","1.996","7.42","0.558","5.003","0.28","1.76","29.9429","4.71778","21.77","0","SATNPRO1964","28.436","0.39832","5"],
    [58600,"HCEP03730563","2025-08-29 20:00:00","10.7507","3.37353","27.456","1.998","7.42","0.502","4.828","0.06","0.27","29.9458","4.71813","21.79","0","SATNPRO1964","28.338","0.3969","5"],
    [58601,"HCEP03730563","2025-08-29 20:15:00","10.7541","3.37393","27.488","2.007","7.42","0.514","4.823","0.05","0.85","29.947","4.71824","21.89","0","SATNPRO1964","28.484","0.39896","5"],
    [58602,"HCEP03730563","2025-08-29 20:30:00","10.7516","3.37354","27.453","2.013","7.42","0.502","4.769","0.06","0.24","29.9452","4.71802","21.95","0","SATNPRO1964","28.666","0.40154","5"],
    [58603,"HCEP03730563","2025-08-29 20:45:00","10.7484","3.3732","27.431","2.005","7.42","0.485","4.496","0.04","0.16","29.9444","4.71796","21.86","0","SATNPRO1964","28.656","0.40138","5"],
    [58604,"HCEP03730563","2025-08-29 21:00:00","10.7462","3.37265","27.41","2.004","7.42","0.528","4.521","0.1","0.18","29.9408","4.71748","21.85","0","SATNPRO1964","28.738","0.40256","5"],
    [58605,"HCEP03730563","2025-08-29 21:15:00","10.7407","3.37172","27.362","2.07","7.42","0.51","4.246","0.06","0.22","29.9363","4.71692","22.57","0","SATNPRO1964","29.131999999999998","0.40802","5"],
    [58606,"HCEP03730563","2025-08-29 21:30:00","10.7437","3.37225","27.297","2.111","7.43","0.466","4.194","0.11","0.23","29.939","4.71726","23.02","0","SATNPRO1964","29.19","0.40882","5"],
    [58607,"HCEP03730563","2025-08-29 21:45:00","10.7484","3.37315","27.262","2.07","7.43","0.488","4.356","0.05","0.17","29.9441","4.7179","22.57","0","SATNPRO1964","28.786","0.4032","5"],
    [58608,"HCEP03730563","2025-08-29 22:00:00","10.7461","3.37262","27.153","2.032","7.42","0.466","4.252","0.06","0.19","29.9408","4.71747","22.16","0","SATNPRO1964","28.652","0.40138","5"],
    [58609,"HCEP03730563","2025-08-29 22:15:00","10.7476","3.37295","27.058","2.026","7.42","0.485","4.506","0.06","0.17","29.9429","4.71773","22.1","0","SATNPRO1964","28.736","0.40248","5"],
    [58610,"HCEP03730563","2025-08-29 22:30:00","10.7472","3.37271","26.961","2.01","7.42","0.454","4.304","0.08","0.23","29.9409","4.71745","21.92","0","SATNPRO1964","28.82","0.4037","5"],
    [58611,"HCEP03730563","2025-08-29 22:45:00","10.747","3.37273","26.814","2.017","7.42","0.454","4.088","0.03","0.17","29.9413","4.7175","21.99","0","SATNPRO1964","28.778","0.40306","5"],
    [58612,"HCEP03730563","2025-08-29 23:00:00","10.7451","3.37246","26.682","2.025","7.42","0.454","3.983","0.06","0.11","29.9402","4.71737","22.08","0","SATNPRO1964","28.992","0.40612","5"],
    [58613,"HCEP03730563","2025-08-29 23:15:00","10.7468","3.37276","26.524","2.03","7.42","0.457","3.999","0.05","0.17","29.9419","4.71758","22.14","0","SATNPRO1964","28.823999999999998","0.40368","5"],
    [58614,"HCEP03730563","2025-08-29 23:30:00","10.7494","3.3732","26.362","2.018","7.42","0.453","3.945","0.05","0.16","29.9441","4.71784","22.01","0","SATNPRO1964","28.794","0.40332","5"],
    [58615,"HCEP03730563","2025-08-29 23:45:00","10.7455","3.37252","26.186","2.013","7.42","0.462","3.896","0.07","0.17","29.9407","4.71741","21.95","0","SATNPRO1964","28.826","0.40378","5"],
    [58616,"HCEP03730563","2025-08-30 00:00:00","10.7452","3.37254","26.039","2.02","7.42","0.411","3.895","0.03","0.13","29.9412","4.71747","22.03","0","SATNPRO1964","28.834","0.40392","5"],
    [58617,"HCEP03730563","2025-08-30 00:15:00","10.7432","3.37219","25.876","2.019","7.42","0.528","4.012","0.13","0.49","29.9394","4.71724","22.01","0","SATNPRO1964","28.918","0.40504","5"],
    [58618,"HCEP03730563","2025-08-30 00:30:00","10.7402","3.37178","25.715","2.019","7.42","0.419","3.886","0.06","0.24","29.9379","4.71707","22.01","0","SATNPRO1964","29.09","0.40742","5"],
    [58619,"HCEP03730563","2025-08-30 00:45:00","10.7378","3.37129","25.565","2.013","7.42","0.463","3.762","0.11","0.19","29.9351","4.71671","21.94","0","SATNPRO1964","29.058","0.40702","5"],
    [58620,"HCEP03730563","2025-08-30 01:00:00","10.7374","3.3715","25.407","2.002","7.42","0.459","3.819","0.09","0.11","29.9376","4.71705","21.83","0","SATNPRO1964","28.96","0.4056","5"],
    [58621,"HCEP03730563","2025-08-30 01:15:00","10.7357","3.37134","25.264","1.971","7.42","0.458","3.79","0.05","0.22","29.9375","4.71705","21.49","0","SATNPRO1964","29.076","0.40726","5"],
    [58622,"HCEP03730563","2025-08-30 01:30:00","10.7296","3.3705","25.135","1.941","7.42","0.433","3.656","0.05","0.16","29.9342","4.71667","21.15","0","SATNPRO1964","28.922","0.4051","5"],
    [58623,"HCEP03730563","2025-08-30 01:45:00","10.7231","3.36942","25.013","1.888","7.41","0.765","3.438","1.38","0.23","29.9289","4.71602","20.58","0","SATNPRO1964","28.686","0.40178","5"],
    [58624,"HCEP03730563","2025-08-30 02:00:00","10.7288","3.37075","24.911","1.835","7.41","0.479","4.482","0.1","0.23","29.9374","4.71713","20","0","SATNPRO1964","28.228","0.3954","5"],
    [58625,"HCEP03730563","2025-08-30 02:15:00","10.7282","3.37097","24.821","1.766","7.4","0.547","5.88","0.13","0.37","29.9401","4.71752","19.25","0","SATNPRO1964","27.45","0.38448","5"],
    [58626,"HCEP03730563","2025-08-30 02:30:00","10.7209","3.36983","24.751","1.67","7.39","0.544","6.288","0.12","0.47","29.9349","4.7169","18.2","0","SATNPRO1964","27.282","0.3821","5"],
    [58627,"HCEP03730563","2025-08-30 02:45:00","10.7209","3.36985","24.728","1.599","7.39","0.558","6.49","0.07","0.33","29.9351","4.71692","17.42","0","SATNPRO1964","26.95","0.37748","5"],
    [58628,"HCEP03730563","2025-08-30 03:00:00","10.7223","3.36999","24.72","1.55","7.38","0.515","6.638","0.07","0.25","29.9354","4.71694","16.89","0","SATNPRO1964","26.508","0.37128","5"],
    [58629,"HCEP03730563","2025-08-30 03:15:00","10.7195","3.3697","24.718","1.528","7.38","0.609","8.469","0.08","0.29","29.9348","4.7169","16.65","0","SATNPRO1964","26.488","0.37096","5"],
    [58630,"HCEP03730563","2025-08-30 03:30:00","10.7217","3.36997","24.736","1.51","7.38","0.616","10.73","0.03","0.45","29.9356","4.71698","16.46","0","SATNPRO1964","26.69","0.37384","5"],
    [58631,"HCEP03730563","2025-08-30 03:45:00","10.7203","3.36978","24.753","1.505","7.38","0.526","5.883","0.08","0.16","29.9349","4.7169","16.4","0","SATNPRO1964","26.66","0.37344","5"],
    [58632,"HCEP03730563","2025-08-30 04:00:00","10.7223","3.37003","24.795","1.508","7.38","0.521","5.988","0.04","0.27","29.9357","4.71699","16.43","0","SATNPRO1964","26.954","0.3775","5"],
    [58633,"HCEP03730563","2025-08-30 04:15:00","10.7258","3.37047","24.828","1.539","7.38","0.611","5.876","0.27","0.43","29.9372","4.71714","16.77","0","SATNPRO1964","27.078","0.37928","5"],
    [58634,"HCEP03730563","2025-08-30 04:30:00","10.7361","3.37176","24.893","1.615","7.38","0.578","6.334","0.11","0.25","29.9414","4.71759","17.61","0","SATNPRO1964","27.612000000000002","0.38678","5"],
    [58635,"HCEP03730563","2025-08-30 04:45:00","10.745","3.37286","24.966","1.722","7.39","0.546","6.004","0.04","0.98","29.9449","4.71795","18.78","0","SATNPRO1964","27.804000000000002","0.38948","5"],
    [58636,"HCEP03730563","2025-08-30 05:00:00","10.7519","3.37368","25.056","1.823","7.4","6.78","51.462","5.6","37.22","29.9473","4.71818","19.88","0","SATNPRO1964","28.462","0.39866","5"],
    [58637,"HCEP03730563","2025-08-30 05:15:00","10.7583","3.37447","25.144","1.902","7.4","0.586","5.546","0.11","0.28","29.9498","4.71844","20.74","0","SATNPRO1964","28.586","0.40038","5"],
    [58638,"HCEP03730563","2025-08-30 05:30:00","10.7585","3.3743","25.247","1.978","7.41","0.543","4.243","0.18","0.16","29.948","4.71819","21.58","0","SATNPRO1964","28.908","0.4049","5"],
    [58639,"HCEP03730563","2025-08-30 05:45:00","10.7609","3.37455","25.348","2.051","7.42","0.513","3.937","0.05","0.07","29.9484","4.71821","22.37","0","SATNPRO1964","28.902","0.40486","5"],
    [58640,"HCEP03730563","2025-08-30 06:00:00","10.7658","3.37533","25.46","2.073","7.42","0.501","4.435","0.06","0.14","29.952","4.71865","22.61","0","SATNPRO1964","28.708","0.40214","5"],
    [58641,"HCEP03730563","2025-08-30 06:15:00","10.7688","3.37552","25.589","2.084","7.42","0.545","4.815","0.08","0.19","29.9514","4.71853","22.74","0","SATNPRO1964","29.36","0.41124","5"],
    [58642,"HCEP03730563","2025-08-30 06:30:00","10.7688","3.37537","25.708","2.129","7.43","0.505","4.389","0.04","0.18","29.9498","4.71832","23.23","0","SATNPRO1964","29.058","0.407","5"],
    [58643,"HCEP03730563","2025-08-30 06:45:00","10.7648","3.37503","25.837","2.1","7.43","0.583","5.111","0.11","0.32","29.9497","4.71837","22.91","0","SATNPRO1964","28.224","0.39534","5"],
    [58644,"HCEP03730563","2025-08-30 07:00:00","10.7625","3.37454","25.958","2.023","7.42","0.53","5.042","0.08","0.19","29.9467","4.71798","22.06","0","SATNPRO1964","28.462","0.39866","5"],
    [58645,"HCEP03730563","2025-08-30 07:15:00","10.762","3.37442","26.089","1.982","7.42","0.665","4.292","0.25","0.3","29.9459","4.71788","21.62","0","SATNPRO1964","28.428","0.39818","5"],
    [58646,"HCEP03730563","2025-08-30 07:30:00","10.7626","3.37426","26.201","1.964","7.42","0.605","4.867","0.16","0.27","29.9438","4.71758","21.42","0","SATNPRO1964","28.69","0.40186","5"],
    [58647,"HCEP03730563","2025-08-30 07:45:00","10.7581","3.37377","26.363","1.959","7.42","0.537","4.689","0.07","0.16","29.9426","4.71749","21.37","0","SATNPRO1964","28.336","0.39688","5"],
    [58648,"HCEP03730563","2025-08-30 08:00:00","10.7618","3.37375","26.467","1.942","7.42","0.552","4.509","0.13","0.39","29.9393","4.71697","21.18","0","SATNPRO1964","28.866","0.4043","5"],
    [58649,"HCEP03730563","2025-08-30 08:15:00","10.7587","3.37378","26.581","2.04","7.42","0.551","4.762","0.06","0.16","29.9421","4.71742","22.25","0","SATNPRO1964","28.37","0.39736","5"],
    [58650,"HCEP03730563","2025-08-30 08:30:00","10.7563","3.37362","26.676","1.956","7.42","0.539","4.953","0.05","0.18","29.9425","4.71752","21.33","0","SATNPRO1964","28.528","0.39962","5"],
    [58651,"HCEP03730563","2025-08-30 08:45:00","10.7563","3.37345","26.759","1.927","7.41","0.56","4.805","0.07","0.16","29.9407","4.71727","21.01","0","SATNPRO1964","28.138","0.39408","5"],
    [58652,"HCEP03730563","2025-08-30 09:00:00","10.7524","3.373","26.811","1.89","7.41","0.604","5.179","0.17","0.39","29.9395","4.71717","20.61","0","SATNPRO1964","27.752","0.38872","5"],
    [58653,"HCEP03730563","2025-08-30 09:15:00","10.7485","3.37269","26.864","1.808","7.41","0.605","5.436","0.1","0.24","29.9396","4.71724","19.71","0","SATNPRO1964","27.354","0.38316","5"],
    [58654,"HCEP03730563","2025-08-30 09:30:00","10.748","3.37254","26.93","1.751","7.4","0.664","5.501","0.37","0.19","29.9385","4.7171","19.09","0","SATNPRO1964","27.358","0.38322","5"],
    [58655,"HCEP03730563","2025-08-30 09:45:00","10.7482","3.37271","27","1.741","7.4","0.603","5.537","0.09","0.25","29.94","4.71731","18.98","0","SATNPRO1964","27.52","0.38546","5"],
    [58656,"HCEP03730563","2025-08-30 10:00:00","10.7504","3.37307","27.001","1.755","7.4","0.557","5.273","0.06","0.22","29.9418","4.71754","19.14","0","SATNPRO1964","27.846","0.39002","5"],
    [58657,"HCEP03730563","2025-08-30 10:15:00","10.75","3.37306","27.019","1.79","7.4","0.628","5.36","0.12","0.22","29.9419","4.71756","19.52","0","SATNPRO1964","27.766000000000002","0.3889","5"],
    [58658,"HCEP03730563","2025-08-30 10:30:00","10.7492","3.37296","27.023","1.805","7.4","0.58","5.147","0.08","0.33","29.9417","4.71754","19.68","0","SATNPRO1964","27.826","0.38976","5"],
    [58659,"HCEP03730563","2025-08-30 10:45:00","10.7455","3.3722","27.039","1.809","7.4","0.561","4.93","0.05","0.27","29.9371","4.71695","19.72","0","SATNPRO1964","27.874","0.39044","5"],
    [58660,"HCEP03730563","2025-08-30 11:00:00","10.743","3.37194","27.056","1.806","7.4","0.528","5.977","0.05","0.38","29.9367","4.71692","19.69","0","SATNPRO1964","28.004","0.39226","5"],
    [58661,"HCEP03730563","2025-08-30 11:15:00","10.7415","3.3718","27.029","1.799","7.4","0.558","4.462","0.26","0.27","29.9364","4.71691","19.61","0","SATNPRO1964","28.328","0.39678","5"],
    [58662,"HCEP03730563","2025-08-30 11:30:00","10.7397","3.37139","27.024","1.821","7.4","0.524","3.676","0.23","0.17","29.934","4.71659","19.85","0","SATNPRO1964","28.618","0.40084","5"],
    [58663,"HCEP03730563","2025-08-30 11:45:00","10.7351","3.37081","27.012","1.854","7.4","0.551","3.855","0.08","0.24","29.932","4.71638","20.21","0","SATNPRO1964","28.258","0.39578","5"],
    [58664,"HCEP03730563","2025-08-30 12:00:00","10.7252","3.36948","26.985","1.855","7.4","0.432","3.455","0.05","0.39","29.927","4.71583","20.22","0","SATNPRO1964","28.832","0.4038","5"],
    [58665,"HCEP03730563","2025-08-30 12:15:00","10.7344","3.37081","26.955","1.834","7.4","0.545","3.707","0.14","0.18","29.9327","4.71648","19.99","0","SATNPRO1964","28.78","0.40312","5"],
    [58666,"HCEP03730563","2025-08-30 12:30:00","10.7331","3.3707","26.928","1.824","7.4","0.521","3.997","0.14","0.16","29.9326","4.7165","19.88","0","SATNPRO1964","28.810000000000002","0.40354","5"],
    [58667,"HCEP03730563","2025-08-30 12:45:00","10.7112","3.36731","26.855","1.726","7.4","0.716","3.075","0.87","0.16","29.9172","4.71465","18.8","0","SATNPRO1964","27.468","0.38474","5"],
    [58668,"HCEP03730563","2025-08-30 13:00:00","10.7236","3.36954","26.798","1.65","7.39","0.568","4.111","0.18","0.27","29.929","4.71613","17.98","0","SATNPRO1964","28.45","0.39848","5"],
    [58669,"HCEP03730563","2025-08-30 13:15:00","10.722","3.36928","26.789","1.706","7.39","0.997","3.674","2.09","1.76","29.9278","4.71597","18.6","0","SATNPRO1964","28.83","0.40386","5"],
    [58670,"HCEP03730563","2025-08-30 13:30:00","10.7415","3.3721","26.736","1.744","7.39","0.505","4.391","0.1","0.23","29.9396","4.71734","19.01","0","SATNPRO1964","28.238","0.39554","5"],
    [58671,"HCEP03730563","2025-08-30 13:45:00","10.7449","3.37272","26.703","1.777","7.4","0.683","4.631","0.34","0.31","29.943","4.71777","19.38","0","SATNPRO1964","28.464000000000002","0.39868","5"],
    [58672,"HCEP03730563","2025-08-30 14:00:00","10.7396","3.37191","26.688","1.796","7.4","0.482","4.355","0.05","0.29","29.9394","4.71734","19.58","0","SATNPRO1964","28.626","0.40098","5"],
    [58673,"HCEP03730563","2025-08-30 14:15:00","10.7396","3.37208","26.66","1.792","7.4","0.574","4.73","0.22","0.47","29.941","4.71757","19.53","0","SATNPRO1964","28.506","0.39926","5"],
    [58674,"HCEP03730563","2025-08-30 14:30:00","10.7336","3.37138","26.615","1.719","7.39","0.517","5.116","0.05","0.31","29.9391","4.71739","18.74","0","SATNPRO1964","27.848","0.39006","5"],
    [58675,"HCEP03730563","2025-08-30 14:45:00","10.717","3.36872","26.607","1.624","7.39","0.482","3.808","0.05","0.22","29.9264","4.71584","17.7","0","SATNPRO1964","27.63","0.38704","5"],
    [58676,"HCEP03730563","2025-08-30 15:00:00","10.7177","3.36867","26.568","1.566","7.38","0.455","3.112","0.09","0.1","29.9254","4.71569","17.07","0","SATNPRO1964","28.168","0.39452","5"],
    [58677,"HCEP03730563","2025-08-30 15:15:00","10.711","3.36741","26.565","1.569","7.38","0.484","2.795","0.13","0.19","29.9185","4.71482","17.09","0","SATNPRO1964","27.75","0.3887","5"],
    [58678,"HCEP03730563","2025-08-30 15:30:00","10.7046","3.36694","26.571","1.51","7.38","0.443","2.778","0.09","0.21","29.919","4.71499","16.45","0","SATNPRO1964","27.432000000000002","0.38422","5"],
    [58679,"HCEP03730563","2025-08-30 15:45:00","10.7065","3.36717","26.59","1.461","7.37","0.444","2.894","0.03","0.07","29.9198","4.71508","15.92","0","SATNPRO1964","27.508","0.38526","5"],
    [58680,"HCEP03730563","2025-08-30 16:00:00","10.7065","3.36718","26.57","1.456","7.37","0.517","3.205","0.48","0.16","29.9199","4.71509","15.86","0","SATNPRO1964","27.36","0.38324","5"],
    [58681,"HCEP03730563","2025-08-30 16:15:00","10.7104","3.36704","26.58","1.483","7.37","0.551","3.122","0.24","0.22","29.9153","4.71437","16.15","0","SATNPRO1964","28.064","0.39308","5"],
    [58682,"HCEP03730563","2025-08-30 16:30:00","10.7064","3.36714","26.642","1.491","7.37","0.446","3.36","0.06","0.16","29.9196","4.71505","16.24","0","SATNPRO1964","27.536","0.38568","5"],
    [58683,"HCEP03730563","2025-08-30 16:45:00","10.7042","3.36623","26.67","1.42","7.37","0.477","3.534","0.05","0.18","29.9123","4.71405","15.47","0","SATNPRO1964","26.998","0.37816","5"],
    [58684,"HCEP03730563","2025-08-30 17:00:00","10.7046","3.3674","26.729","1.348","7.36","0.498","4.332","0.05","0.25","29.9235","4.71563","14.69","0","SATNPRO1964","26.464","0.37068","5"],
    [58685,"HCEP03730563","2025-08-30 17:15:00","10.7022","3.36695","26.781","1.303","7.36","0.541","3.852","0.11","0.18","29.921","4.71533","14.2","0","SATNPRO1964","26.344","0.369","5"],
    [58686,"HCEP03730563","2025-08-30 17:30:00","10.7006","3.36685","26.781","1.276","7.35","0.481","4.279","0.06","0.2","29.9213","4.71539","13.89","0","SATNPRO1964","26.196","0.3669","5"],
    [58687,"HCEP03730563","2025-08-30 17:45:00","10.6981","3.36654","26.819","1.254","7.35","0.486","3.639","0.13","0.19","29.9204","4.7153","13.66","0","SATNPRO1964","26.124","0.36594","5"],
    [58688,"HCEP03730563","2025-08-30 18:00:00","10.6983","3.36634","26.899","1.251","7.35","0.428","3.261","0.09","0.12","29.9181","4.71498","13.63","0","SATNPRO1964","26.314","0.36858","5"],
    [58689,"HCEP03730563","2025-08-30 18:15:00","10.6996","3.36674","26.948","1.251","7.35","0.448","3.486","0.04","0.21","29.921","4.71538","13.63","0","SATNPRO1964","26.268","0.36798","5"],
    [58690,"HCEP03730563","2025-08-30 18:30:00","10.6989","3.36665","26.994","1.238","7.35","0.451","3.918","0.08","0.55","29.9207","4.71535","13.48","0","SATNPRO1964","26.048","0.36486","5"],
    [58691,"HCEP03730563","2025-08-30 18:45:00","10.6991","3.36677","27.048","1.226","7.35","0.466","3.901","0.04","0.18","29.9217","4.71549","13.35","0","SATNPRO1964","26.206","0.36706","5"],
    [58692,"HCEP03730563","2025-08-30 19:00:00","10.6997","3.36689","27.092","1.22","7.35","0.418","3.816","0.04","0.1","29.9223","4.71557","13.28","0","SATNPRO1964","26.169999999999998","0.36656","5"],
    [58693,"HCEP03730563","2025-08-30 19:15:00","10.7028","3.36725","27.124","1.224","7.35","0.425","3.532","0.02","0.09","29.9233","4.71567","13.33","0","SATNPRO1964","26.202","0.36698","5"],
    [58694,"HCEP03730563","2025-08-30 19:30:00","10.707","3.36796","27.167","1.233","7.35","0.585","4.778","0.44","0.29","29.9269","4.71611","13.43","0","SATNPRO1964","26.05","0.36484","5"],
    [58695,"HCEP03730563","2025-08-30 19:45:00","10.7093","3.36822","27.204","1.233","7.35","0.541","5.138","0.06","0.25","29.9275","4.71616","13.44","0","SATNPRO1964","25.844","0.362","5"],
    [58696,"HCEP03730563","2025-08-30 20:00:00","10.7054","3.36752","27.229","1.227","7.35","0.444","4.097","0.04","0.11","29.9238","4.7157","13.36","0","SATNPRO1964","26.126","0.36594","5"],
    [58697,"HCEP03730563","2025-08-30 20:15:00","10.7043","3.36751","27.254","1.235","7.35","0.479","4.294","0.04","0.15","29.9246","4.71582","13.46","0","SATNPRO1964","25.732","0.36038","5"],
    [58698,"HCEP03730563","2025-08-30 20:30:00","10.7042","3.36749","27.273","1.241","7.35","0.463","3.902","0.09","0.16","29.9245","4.71582","13.52","0","SATNPRO1964","25.844","0.36196","5"],
    [58699,"HCEP03730563","2025-08-30 20:45:00","10.7026","3.36725","27.255","1.247","7.35","0.602","4.062","0.31","0.15","29.9234","4.71569","13.58","0","SATNPRO1964","25.951999999999998","0.36348","5"],
    [58700,"HCEP03730563","2025-08-30 21:00:00","10.6988","3.36667","27.239","1.248","7.35","0.44","3.453","0.07","0.12","29.9209","4.71539","13.6","0","SATNPRO1964","26.238","0.3675","5"],
    [58701,"HCEP03730563","2025-08-30 21:15:00","10.6995","3.36668","27.201","1.25","7.35","0.466","3.4","0.16","0.36","29.9204","4.71531","13.61","0","SATNPRO1964","26.276","0.36806","5"],
    [58702,"HCEP03730563","2025-08-30 21:30:00","10.7003","3.36681","27.195","1.259","7.35","0.418","3.24","0.04","0.19","29.9211","4.71539","13.71","0","SATNPRO1964","26.422","0.37008","5"],
    [58703,"HCEP03730563","2025-08-30 21:45:00","10.7012","3.36676","27.144","1.26","7.35","0.42","3.131","0.04","0.12","29.9198","4.71519","13.73","0","SATNPRO1964","26.352","0.3691","5"],
    [58704,"HCEP03730563","2025-08-30 22:00:00","10.7065","3.36635","27.107","1.296","7.35","0.438","3.001","0.14","0.14","29.9115","4.71393","14.12","0","SATNPRO1964","26.666","0.37346","5"],
    [58705,"HCEP03730563","2025-08-30 22:15:00","10.705","3.36649","27.055","1.333","7.35","0.41","2.892","0.03","0.1","29.9141","4.71431","14.52","0","SATNPRO1964","26.794","0.37528","5"],
    [58706,"HCEP03730563","2025-08-30 22:30:00","10.7035","3.36722","26.978","1.3","7.35","0.443","3.397","0.09","0.13","29.9226","4.71553","14.16","0","SATNPRO1964","26.354","0.36914","5"],
    [58707,"HCEP03730563","2025-08-30 22:45:00","10.7048","3.36704","26.882","1.273","7.35","0.524","3.718","0.21","0.2","29.9198","4.71512","13.86","0","SATNPRO1964","26.344","0.36902","5"],
    [58708,"HCEP03730563","2025-08-30 23:00:00","10.7081","3.36753","26.827","1.279","7.35","0.468","3.83","0.06","0.24","29.9219","4.71537","13.93","0","SATNPRO1964","26.598","0.37254","5"],
    [58709,"HCEP03730563","2025-08-30 23:15:00","10.7104","3.36745","26.714","1.311","7.35","0.505","3.6","0.06","0.12","29.9193","4.71495","14.28","0","SATNPRO1964","26.82","0.37564","5"],
    [58710,"HCEP03730563","2025-08-30 23:30:00","10.7144","3.36854","26.598","1.338","7.36","0.516","4.208","0.16","0.23","29.9268","4.71594","14.58","0","SATNPRO1964","26.766000000000002","0.37488","5"],
    [58711,"HCEP03730563","2025-08-30 23:45:00","10.7189","3.36935","26.469","1.356","7.36","0.519","4.382","0.06","0.34","29.9311","4.71648","14.77","0","SATNPRO1964","26.978","0.37786","5"],
    [58712,"HCEP03730563","2025-08-31 00:00:00","10.7252","3.37033","26.341","1.354","7.36","0.62","5.543","0.18","0.18","29.9357","4.71703","14.76","0","SATNPRO1964","26.253999999999998","0.3677","5"],
    [58713,"HCEP03730563","2025-08-31 00:15:00","10.7267","3.37047","26.196","1.341","7.36","0.532","5.204","0.05","0.18","29.936","4.71703","14.62","0","SATNPRO1964","26.622","0.37288","5"],
    [58714,"HCEP03730563","2025-08-31 00:30:00","10.7278","3.37059","26.069","1.367","7.36","0.494","4.863","0.04","0.13","29.9362","4.71703","14.9","0","SATNPRO1964","26.8","0.3754","5"],
    [58715,"HCEP03730563","2025-08-31 00:45:00","10.7292","3.37076","25.927","1.407","7.36","0.575","4.854","0.25","0.27","29.9368","4.7171","15.34","0","SATNPRO1964","26.77","0.37496","5"],
    [58716,"HCEP03730563","2025-08-31 01:00:00","10.7302","3.37089","25.775","1.422","7.36","0.52","4.917","0.09","0.18","29.9373","4.71714","15.5","0","SATNPRO1964","26.796","0.37536","5"],
    [58717,"HCEP03730563","2025-08-31 01:15:00","10.7321","3.37104","25.624","1.448","7.37","0.475","4.572","0.02","0.15","29.9372","4.7171","15.78","0","SATNPRO1964","26.919999999999998","0.37702","5"],
    [58718,"HCEP03730563","2025-08-31 01:30:00","10.735","3.3714","25.482","1.479","7.37","0.541","4.511","0.08","0.17","29.9385","4.71722","16.13","0","SATNPRO1964","27.162000000000003","0.38048","5"],
    [58719,"HCEP03730563","2025-08-31 01:45:00","10.7339","3.37088","25.354","1.501","7.37","0.507","3.936","0.12","0.23","29.9344","4.71664","16.37","0","SATNPRO1964","27.612","0.38676","5"],
    [58720,"HCEP03730563","2025-08-31 02:00:00","10.726","3.36858","25.213","1.5","7.37","0.478","3.252","0.15","0.33","29.9183","4.71447","16.34","0","SATNPRO1964","27.114","0.3798","5"],
    [58721,"HCEP03730563","2025-08-31 02:15:00","10.7282","3.36942","25.124","1.494","7.37","0.452","3.344","0.06","0.14","29.9247","4.71535","16.28","0","SATNPRO1964","27.48","0.38488","5"],
    [58722,"HCEP03730563","2025-08-31 02:30:00","10.7363","3.37102","25.019","1.529","7.37","0.503","4.017","0.07","0.36","29.9339","4.71653","16.67","0","SATNPRO1964","27.224","0.38132","5"],
    [58723,"HCEP03730563","2025-08-31 02:45:00","10.7393","3.37159","24.933","1.556","7.38","0.477","3.987","0.05","0.14","29.9371","4.71692","16.96","0","SATNPRO1964","27.768","0.38894","5"],
    [58724,"HCEP03730563","2025-08-31 03:00:00","10.7403","3.3718","24.866","1.583","7.38","0.449","4.034","0.03","0.16","29.9384","4.71708","17.26","0","SATNPRO1964","27.698","0.38796","5"],
    [58725,"HCEP03730563","2025-08-31 03:15:00","10.7416","3.37201","24.815","1.602","7.38","0.493","4.308","0.05","0.15","29.9394","4.7172","17.47","0","SATNPRO1964","27.564","0.38606","5"],
    [58726,"HCEP03730563","2025-08-31 03:30:00","10.7369","3.37099","24.756","1.639","7.38","0.43","3.531","0.05","0.16","29.9332","4.7164","17.87","0","SATNPRO1964","27.764","0.38888","5"],
    [58727,"HCEP03730563","2025-08-31 03:45:00","10.7442","3.37241","24.73","1.632","7.38","0.54","4.583","0.1","0.14","29.9413","4.71743","17.79","0","SATNPRO1964","27.258","0.3818","5"],
    [58728,"HCEP03730563","2025-08-31 04:00:00","10.7453","3.3725","24.726","1.586","7.38","0.48","4.277","0.07","0.21","29.9412","4.7174","17.29","0","SATNPRO1964","27.188","0.38082","5"],
    [58729,"HCEP03730563","2025-08-31 04:15:00","10.7467","3.37262","24.675","1.566","7.38","0.513","4.459","0.08","0.19","29.9413","4.71739","17.07","0","SATNPRO1964","26.906","0.37686","5"],
    [58730,"HCEP03730563","2025-08-31 04:30:00","10.7451","3.37239","24.696","1.5","7.38","0.578","5.421","0.07","0.31","29.9403","4.71727","16.36","0","SATNPRO1964","26.842","0.37596","5"],
    [58731,"HCEP03730563","2025-08-31 04:45:00","10.7458","3.37243","24.723","1.46","7.37","0.627","4.884","0.19","0.15","29.9402","4.71725","15.92","0","SATNPRO1964","27.364","0.3833","5"],
    [58732,"HCEP03730563","2025-08-31 05:00:00","10.7475","3.37262","24.768","1.458","7.37","0.606","5.265","0.09","0.28","29.9406","4.71728","15.9","0","SATNPRO1964","26.518","0.37142","5"],
    [58733,"HCEP03730563","2025-08-31 05:15:00","10.7491","3.37268","24.796","1.469","7.37","0.628","5.486","0.09","0.2","29.9399","4.71715","16.02","0","SATNPRO1964","27.18","0.38072","5"],
    [58734,"HCEP03730563","2025-08-31 05:30:00","10.7517","3.37238","24.884","1.642","7.38","0.514","4.024","0.08","0.33","29.9347","4.71638","17.9","0","SATNPRO1964","28.92","0.40508","5"],
    [58735,"HCEP03730563","2025-08-31 05:45:00","10.7574","3.37339","24.928","1.806","7.39","0.614","4.752","0.14","0.21","29.94","4.71705","19.7","0","SATNPRO1964","27.978","0.39188","5"],
    [58736,"HCEP03730563","2025-08-31 06:00:00","10.7591","3.37351","25.019","1.746","7.39","0.647","5.522","0.12","0.22","29.9397","4.71699","19.04","0","SATNPRO1964","27.936","0.39124","5"],
    [58737,"HCEP03730563","2025-08-31 06:15:00","10.7603","3.3736","25.099","1.722","7.39","0.645","5.149","0.12","0.21","29.9396","4.71695","18.78","0","SATNPRO1964","27.988","0.39202","5"],
    [58738,"HCEP03730563","2025-08-31 06:30:00","10.7616","3.37356","25.205","1.714","7.39","0.85","6.317","0.65","2.62","29.9381","4.71674","18.7","0","SATNPRO1964","28.09","0.39348","5"],
    [58739,"HCEP03730563","2025-08-31 06:45:00","10.7601","3.37313","25.304","1.698","7.39","0.669","5.295","0.09","0.44","29.9351","4.71633","18.52","0","SATNPRO1964","27.874","0.39042","5"],
    [58740,"HCEP03730563","2025-08-31 07:00:00","10.7601","3.37283","25.417","1.663","7.39","0.628","5.333","0.09","0.35","29.9321","4.71591","18.14","0","SATNPRO1964","27.438","0.38426","5"],
    [58741,"HCEP03730563","2025-08-31 07:15:00","10.7622","3.37292","25.542","1.647","7.39","0.612","4.807","0.09","0.5","29.9312","4.71576","17.97","0","SATNPRO1964","27.884","0.39054","5"],
    [58742,"HCEP03730563","2025-08-31 07:30:00","10.7665","3.37318","25.666","1.67","7.39","0.555","4.453","0.11","0.24","29.9303","4.71557","18.22","0","SATNPRO1964","27.736","0.38852","5"],
    [58743,"HCEP03730563","2025-08-31 07:45:00","10.7704","3.37352","25.822","1.695","7.39","0.55","4.393","0.08","0.28","29.9303","4.71552","18.49","0","SATNPRO1964","27.716","0.3882","5"],
    [58744,"HCEP03730563","2025-08-31 08:00:00","10.7696","3.37333","25.956","1.69","7.39","0.896","20.636","0.33","24.22","29.929","4.71536","18.44","0","SATNPRO1964","27.424","0.38414","5"],
    [58745,"HCEP03730563","2025-08-31 08:15:00","10.7694","3.37342","26.085","1.661","7.39","0.599","4.732","0.13","0.46","29.93","4.71551","18.12","0","SATNPRO1964","27.332","0.38278","5"],
    [58746,"HCEP03730563","2025-08-31 08:30:00","10.7682","3.3736","26.244","1.672","7.39","0.594","4.573","0.1","0.21","29.9327","4.71592","18.24","0","SATNPRO1964","27.68","0.38772","5"],
    [58747,"HCEP03730563","2025-08-31 08:45:00","10.7675","3.37364","26.363","1.692","7.39","0.628","4.905","0.08","0.27","29.9336","4.71607","18.46","0","SATNPRO1964","27.758","0.38884","5"],
    [58748,"HCEP03730563","2025-08-31 09:00:00","10.7677","3.37368","26.495","1.697","7.39","0.569","5.036","0.06","0.46","29.9338","4.7161","18.51","0","SATNPRO1964","27.826","0.38978","5"],
    [58749,"HCEP03730563","2025-08-31 09:15:00","10.7683","3.37375","26.596","1.697","7.39","0.602","4.651","0.11","0.27","29.9339","4.71611","18.51","0","SATNPRO1964","27.806","0.38946","5"],
    [58750,"HCEP03730563","2025-08-31 09:30:00","10.7685","3.37369","26.675","1.695","7.39","0.65","4.702","0.46","0.31","29.9332","4.71601","18.5","0","SATNPRO1964","27.932","0.39122","5"],
    [58751,"HCEP03730563","2025-08-31 09:45:00","10.771","3.37389","26.748","1.694","7.39","0.658","5.604","0.07","0.25","29.9331","4.71596","18.48","0","SATNPRO1964","27.692","0.38788","5"],
    [58752,"HCEP03730563","2025-08-31 10:00:00","10.7708","3.37385","26.81","1.694","7.39","0.61","4.499","0.22","0.24","29.9328","4.71593","18.48","0","SATNPRO1964","27.486","0.385","5"],
    [58753,"HCEP03730563","2025-08-31 10:15:00","10.7697","3.37371","26.904","1.682","7.39","0.599","4.578","0.11","0.32","29.9323","4.71588","18.35","0","SATNPRO1964","27.642","0.38718","5"],
    [58754,"HCEP03730563","2025-08-31 10:30:00","10.7696","3.37373","26.959","1.674","7.39","0.563","4.254","0.08","0.13","29.9326","4.71592","18.26","0","SATNPRO1964","27.642","0.38718","5"],
    [58755,"HCEP03730563","2025-08-31 10:45:00","10.7697","3.3738","27.001","1.676","7.39","0.628","4.283","0.18","0.34","29.9331","4.716","18.29","0","SATNPRO1964","27.806","0.38948","5"],
    [58756,"HCEP03730563","2025-08-31 11:00:00","10.7698","3.37383","27.021","1.684","7.39","0.582","3.996","0.26","0.17","29.9333","4.71603","18.37","0","SATNPRO1964","27.664","0.38746","5"],
    [58757,"HCEP03730563","2025-08-31 11:15:00","10.7703","3.37396","27.063","1.695","7.39","0.647","4.01","0.31","0.16","29.9342","4.71615","18.49","0","SATNPRO1964","27.834","0.38988","5"],
    [58758,"HCEP03730563","2025-08-31 11:30:00","10.7703","3.37398","27.072","1.702","7.39","0.497","4.014","0.04","0.21","29.9343","4.71616","18.57","0","SATNPRO1964","27.666","0.38752","5"],
    [58759,"HCEP03730563","2025-08-31 11:45:00","10.7707","3.37407","27.084","1.704","7.39","0.555","3.95","0.08","0.2","29.9349","4.71624","18.59","0","SATNPRO1964","27.788","0.3892","5"],
    [58760,"HCEP03730563","2025-08-31 12:00:00","10.7708","3.37415","27.104","1.712","7.39","0.564","4.017","0.16","0.17","29.9357","4.71635","18.67","0","SATNPRO1964","27.86","0.39022","5"],
    [58761,"HCEP03730563","2025-08-31 12:15:00","10.7704","3.37415","27.1","1.714","7.39","0.59","4.396","0.1","0.64","29.936","4.7164","18.7","0","SATNPRO1964","28.036","0.39264","5"],
    [58762,"HCEP03730563","2025-08-31 12:30:00","10.7703","3.3742","27.097","1.704","7.39","0.647","4.547","0.15","0.14","29.9366","4.71648","18.59","0","SATNPRO1964","27.696","0.38796","5"],
    [58763,"HCEP03730563","2025-08-31 12:45:00","10.7713","3.37424","27.098","1.713","7.39","0.794","4.633","0.97","0.45","29.9361","4.71641","18.69","0","SATNPRO1964","27.906","0.39092","5"],
    [58764,"HCEP03730563","2025-08-31 13:00:00","10.7689","3.37415","27.096","1.697","7.39","0.548","4.178","0.08","0.28","29.9373","4.71661","18.51","0","SATNPRO1964","27.856","0.39016","5"],
    [58765,"HCEP03730563","2025-08-31 13:15:00","10.7742","3.37466","27.083","1.722","7.39","0.981","4.082","1.34","0.76","29.9379","4.71662","18.79","0","SATNPRO1964","28.228","0.39538","5"],
    [58766,"HCEP03730563","2025-08-31 13:30:00","10.7733","3.37454","27.077","1.765","7.4","0.554","3.889","0.07","0.34","29.9374","4.71656","19.25","0","SATNPRO1964","28","0.39218","5"],
    [58767,"HCEP03730563","2025-08-31 13:45:00","10.7717","3.37434","27.07","1.754","7.4","0.565","4.097","0.06","0.27","29.9368","4.71649","19.13","0","SATNPRO1964","27.836000000000002","0.38986","5"],
    [58768,"HCEP03730563","2025-08-31 14:00:00","10.7683","3.37391","27.034","1.697","7.39","0.559","4.158","0.07","0.14","29.9354","4.71635","18.51","0","SATNPRO1964","27.728","0.38834","5"],
    [58769,"HCEP03730563","2025-08-31 14:15:00","10.7677","3.37369","27.001","1.637","7.39","0.553","4.382","0.06","0.33","29.9337","4.71611","17.85","0","SATNPRO1964","27.524","0.38554","5"],
    [58770,"HCEP03730563","2025-08-31 14:30:00","10.7681","3.3737","26.976","1.617","7.39","0.526","4.083","0.08","0.34","29.9335","4.71608","17.64","0","SATNPRO1964","27.496","0.38512","5"],
    [58771,"HCEP03730563","2025-08-31 14:45:00","10.768","3.3737","26.954","1.621","7.39","0.589","4.354","0.12","0.37","29.9336","4.7161","17.68","0","SATNPRO1964","27.55","0.38586","5"],
    [58772,"HCEP03730563","2025-08-31 15:00:00","10.7684","3.37393","26.933","1.618","7.39","0.541","4.329","0.05","0.37","29.9355","4.71635","17.66","0","SATNPRO1964","27.61","0.38672","5"],
    [58773,"HCEP03730563","2025-08-31 15:15:00","10.7708","3.37442","26.899","1.65","7.39","0.562","3.977","0.11","0.19","29.9384","4.71672","18","0","SATNPRO1964","28.26","0.3958","5"],
    [58774,"HCEP03730563","2025-08-31 15:30:00","10.7705","3.37434","26.875","1.694","7.39","0.499","3.931","0.05","0.15","29.9378","4.71665","18.48","0","SATNPRO1964","28.054000000000002","0.39294","5"],
    [58775,"HCEP03730563","2025-08-31 15:45:00","10.7722","3.37457","26.869","1.713","7.39","0.593","4.016","0.12","0.22","29.9387","4.71674","18.69","0","SATNPRO1964","28.206","0.39508","5"],
    [58776,"HCEP03730563","2025-08-31 16:00:00","10.7724","3.37468","26.857","1.747","7.4","0.514","3.792","0.07","0.13","29.9396","4.71687","19.06","0","SATNPRO1964","28.228","0.39538","5"],
    [58777,"HCEP03730563","2025-08-31 16:15:00","10.778","3.37551","26.841","1.826","7.4","0.556","3.395","0.13","0.23","29.9433","4.7173","19.92","0","SATNPRO1964","29.3","0.41042","5"],
    [58778,"HCEP03730563","2025-08-31 16:30:00","10.7813","3.37587","26.839","1.938","7.41","0.487","3.145","0.07","0.21","29.9441","4.71737","21.15","0","SATNPRO1964","29.616","0.41482","5"],
    [58779,"HCEP03730563","2025-08-31 16:45:00","10.7817","3.37586","26.844","2.015","7.42","0.584","4.885","0.09","0.61","29.9437","4.71731","21.99","0","SATNPRO1964","29.538","0.41374","5"],
    [58780,"HCEP03730563","2025-08-31 17:00:00","10.7758","3.37506","26.841","2.012","7.42","0.671","3.188","0.65","0.2","29.9406","4.71696","21.96","0","SATNPRO1964","28.918","0.40504","5"],
    [58781,"HCEP03730563","2025-08-31 17:15:00","10.7706","3.37452","26.858","1.907","7.41","0.549","3.768","0.05","0.19","29.9395","4.71688","20.81","0","SATNPRO1964","28.922","0.40512","5"],
    [58782,"HCEP03730563","2025-08-31 17:30:00","10.7727","3.37493","26.846","1.857","7.41","0.588","3.736","0.1","0.35","29.9418","4.71718","20.26","0","SATNPRO1964","29.302","0.41046","5"],
    [58783,"HCEP03730563","2025-08-31 17:45:00","10.7749","3.37523","26.857","1.89","7.41","0.539","3.368","0.05","0.12","29.9431","4.71733","20.62","0","SATNPRO1964","29.346","0.41104","5"],
    [58784,"HCEP03730563","2025-08-31 18:00:00","10.7738","3.37512","26.892","1.919","7.41","0.531","3.491","0.06","0.17","29.9429","4.71731","20.94","0","SATNPRO1964","29.27","0.40998","5"],
    [58785,"HCEP03730563","2025-08-31 18:15:00","10.7736","3.3752","26.918","1.904","7.41","0.565","3.32","0.15","0.12","29.9438","4.71745","20.78","0","SATNPRO1964","29.29","0.41024","5"],
    [58786,"HCEP03730563","2025-08-31 18:30:00","10.7857","3.37685","26.938","1.969","7.42","0.521","3.323","0.05","0.23","29.95","4.71815","21.49","0","SATNPRO1964","30.04","0.42078","5"],
    [58787,"HCEP03730563","2025-08-31 18:45:00","10.7953","3.37805","26.959","2.096","7.42","0.595","3.916","0.09","0.15","29.954","4.71856","22.88","0","SATNPRO1964","30.264","0.4239","5"],
    [58788,"HCEP03730563","2025-08-31 19:00:00","10.8064","3.37936","26.973","2.187","7.43","0.763","3.555","1.31","0.18","29.9579","4.71894","23.88","0","SATNPRO1964","30.656","0.4294","5"],
    [58789,"HCEP03730563","2025-08-31 19:15:00","10.7998","3.37854","27.022","2.275","7.44","0.516","2.776","0.21","0.27","29.9552","4.71867","24.84","0","SATNPRO1964","30.832","0.43186","5"],
    [58790,"HCEP03730563","2025-08-31 19:30:00","10.7884","3.3772","27.046","2.201","7.43","0.489","2.987","0.06","0.14","29.9513","4.71829","24.02","0","SATNPRO1964","30.08","0.42134","5"],
    [58791,"HCEP03730563","2025-08-31 19:45:00","10.7856","3.37694","27.06","2.117","7.43","0.52","3.076","0.08","0.13","29.951","4.7183","23.11","0","SATNPRO1964","30.062","0.42106","5"],
    [58792,"HCEP03730563","2025-08-31 20:00:00","10.7831","3.37666","27.069","2.094","7.43","0.481","3.038","0.04","0.14","29.9503","4.71824","22.86","0","SATNPRO1964","30.084","0.42138","5"],
    [58793,"HCEP03730563","2025-08-31 20:15:00","10.7823","3.37664","27.104","2.07","7.43","0.531","3.826","0.05","0.22","29.9507","4.7183","22.59","0","SATNPRO1964","29.978","0.41988","5"],
    [58794,"HCEP03730563","2025-08-31 20:30:00","10.7827","3.37662","27.125","2.068","7.43","0.673","3.717","0.48","0.53","29.9501","4.71822","22.56","0","SATNPRO1964","30.201999999999998","0.42304","5"],
    [58795,"HCEP03730563","2025-08-31 20:45:00","10.7794","3.37627","27.143","2.051","7.42","0.602","4.048","0.13","0.35","29.9495","4.71818","22.39","0","SATNPRO1964","30.314","0.42458","5"],
    [58796,"HCEP03730563","2025-08-31 21:00:00","10.7783","3.37611","27.164","2.035","7.42","0.615","3.9","0.37","0.22","29.9488","4.7181","22.21","0","SATNPRO1964","29.796","0.4173","5"],
    [58797,"HCEP03730563","2025-08-31 21:15:00","10.7776","3.37597","27.156","2.01","7.42","0.57","3.974","0.06","0.19","29.948","4.718","21.94","0","SATNPRO1964","29.714000000000002","0.4162","5"],
    [58798,"HCEP03730563","2025-08-31 21:30:00","10.7767","3.3759","27.11","1.999","7.42","0.744","4.332","0.25","0.35","29.948","4.71802","21.81","0","SATNPRO1964","29.392","0.41168","5"],
    [58799,"HCEP03730563","2025-08-31 21:45:00","10.7758","3.37585","27.088","1.983","7.42","0.746","3.765","0.75","0.23","29.9483","4.71806","21.64","0","SATNPRO1964","29.808","0.4175","5"],
    [58800,"HCEP03730563","2025-08-31 22:00:00","10.7766","3.37586","27.034","1.965","7.42","0.626","4.073","0.14","0.2","29.9477","4.71797","21.44","0","SATNPRO1964","29.904","0.41886","5"],
    [58801,"HCEP03730563","2025-08-31 22:15:00","10.7764","3.37581","27.05","1.978","7.42","0.592","3.875","0.14","0.15","29.9474","4.71793","21.59","0","SATNPRO1964","29.784","0.41714","5"],
    [58802,"HCEP03730563","2025-08-31 22:30:00","10.7748","3.37486","27.009","1.984","7.42","0.536","3.752","0.04","0.24","29.9394","4.71681","21.65","0","SATNPRO1964","29.66","0.41542","5"],
    [58803,"HCEP03730563","2025-08-31 22:45:00","10.7735","3.37551","26.982","1.986","7.42","0.669","3.63","0.33","0.19","29.9469","4.71789","21.67","0","SATNPRO1964","29.486","0.413","5"],
    [58804,"HCEP03730563","2025-08-31 23:00:00","10.7737","3.37532","26.907","2","7.42","0.484","2.792","0.07","0.29","29.9448","4.7176","21.82","0","SATNPRO1964","29.948","0.41944","5"],
    [58805,"HCEP03730563","2025-08-31 23:15:00","10.7744","3.37532","26.833","2.014","7.42","0.572","2.657","0.25","0.14","29.9443","4.71751","21.98","0","SATNPRO1964","29.946","0.41944","5"],
    [58806,"HCEP03730563","2025-08-31 23:30:00","10.7797","3.3753","26.76","2.052","7.42","0.545","2.528","0.21","0.09","29.9399","4.71679","22.39","0","SATNPRO1964","30.338","0.42492","5"],
    [58807,"HCEP03730563","2025-08-31 23:45:00","10.7744","3.37525","26.682","2.092","7.42","0.564","2.817","0.13","0.09","29.9437","4.7174","22.83","0","SATNPRO1964","29.946","0.41942","5"],
    [58808,"HCEP03730563","2025-09-01 00:00:00","10.7721","3.37507","26.582","2.03","7.42","0.454","2.881","0.04","0.17","29.9438","4.71746","22.15","0","SATNPRO1964","29.864","0.41832","5"],
    [58809,"HCEP03730563","2025-09-01 00:15:00","10.7706","3.3751","26.468","1.97","7.42","0.626","4.384","0.21","0.25","29.9454","4.71769","21.49","0","SATNPRO1964","28.818","0.40364","5"],
    [58810,"HCEP03730563","2025-09-01 00:30:00","10.7715","3.37512","26.358","1.925","7.41","0.546","3.17","0.19","0.21","29.9449","4.71761","21.01","0","SATNPRO1964","28.366","0.39732","5"],
    [58811,"HCEP03730563","2025-09-01 00:45:00","10.7698","3.37511","26.221","1.901","7.41","0.568","3.541","0.11","0.24","29.9463","4.71782","20.74","0","SATNPRO1964","28.916","0.40502","5"],
    [58812,"HCEP03730563","2025-09-01 01:00:00","10.7729","3.375","26.089","1.903","7.41","0.57","2.719","0.27","0.57","29.9427","4.71726","20.76","0","SATNPRO1964","29.838","0.4179","5"],
    [58813,"HCEP03730563","2025-09-01 01:15:00","10.7744","3.37495","25.977","1.998","7.42","0.497","2.507","0.05","0.06","29.9411","4.717","21.8","0","SATNPRO1964","30.818","0.43168","5"],
    [58814,"HCEP03730563","2025-09-01 01:30:00","10.7701","3.37489","25.864","1.982","7.42","0.495","3.029","0.04","0.16","29.944","4.71747","21.63","0","SATNPRO1964","29.364","0.41132","5"],
    [58815,"HCEP03730563","2025-09-01 01:45:00","10.7739","3.37477","25.724","1.964","7.42","0.564","2.395","0.13","0.1","29.9397","4.7168","21.43","0","SATNPRO1964","30.256","0.42378","5"],
    [58816,"HCEP03730563","2025-09-01 02:00:00","10.7719","3.37496","25.604","2.013","7.42","0.508","2.697","0.05","0.13","29.9434","4.71734","21.96","0","SATNPRO1964","30.082","0.42138","5"],
    [58817,"HCEP03730563","2025-09-01 02:15:00","10.7703","3.37489","25.474","1.995","7.42","0.558","3.61","0.09","0.47","29.944","4.71744","21.76","0","SATNPRO1964","29.708","0.41612","5"],
    [58818,"HCEP03730563","2025-09-01 02:30:00","10.7691","3.37475","25.345","1.964","7.42","0.564","3.111","0.14","0.21","29.9436","4.7174","21.43","0","SATNPRO1964","29.35","0.41108","5"],
    [58819,"HCEP03730563","2025-09-01 02:45:00","10.7688","3.37454","25.243","1.945","7.41","0.506","2.979","0.06","0.22","29.9419","4.71716","21.22","0","SATNPRO1964","29.058","0.40702","5"],
    [58820,"HCEP03730563","2025-09-01 03:00:00","10.7693","3.37454","25.114","1.958","7.41","0.488","2.945","0.05","0.11","29.9415","4.71709","21.36","0","SATNPRO1964","29.634","0.41508","5"],
    [58821,"HCEP03730563","2025-09-01 03:15:00","10.7684","3.37457","25.019","1.944","7.41","0.504","3.004","0.05","0.15","29.9425","4.71725","21.2","0","SATNPRO1964","29.933999999999997","0.41932","5"],
    [58822,"HCEP03730563","2025-09-01 03:30:00","10.7671","3.37475","24.919","1.829","7.41","0.594","4.519","0.09","0.15","29.9455","4.71767","19.95","0","SATNPRO1964","28.51","0.39936","5"],
    [58823,"HCEP03730563","2025-09-01 03:45:00","10.7667","3.37449","24.837","1.738","7.4","0.668","4.36","0.2","0.25","29.9433","4.71736","18.96","0","SATNPRO1964","28.868","0.40432","5"],
    [58824,"HCEP03730563","2025-09-01 04:00:00","10.7661","3.37441","24.771","1.766","7.4","0.747","4.434","0.71","0.23","29.9429","4.71732","19.27","0","SATNPRO1964","28.788","0.40326","5"],
    [58825,"HCEP03730563","2025-09-01 04:15:00","10.7665","3.37447","24.715","1.772","7.4","0.693","4.676","0.08","0.19","29.9433","4.71736","19.33","0","SATNPRO1964","28.758","0.4028","5"],
    [58826,"HCEP03730563","2025-09-01 04:30:00","10.7672","3.37464","24.676","1.739","7.4","0.592","4.435","0.07","0.15","29.9444","4.71751","18.97","0","SATNPRO1964","28.49","0.39906","5"],
    [58827,"HCEP03730563","2025-09-01 04:45:00","10.7674","3.37468","24.656","1.706","7.39","0.621","4.338","0.06","0.13","29.9447","4.71754","18.61","0","SATNPRO1964","28.204","0.39502","5"],
    [58828,"HCEP03730563","2025-09-01 05:00:00","10.7675","3.37473","24.64","1.679","7.39","0.601","4.167","0.1","0.23","29.945","4.71759","18.32","0","SATNPRO1964","28.406","0.3979","5"],
    [58829,"HCEP03730563","2025-09-01 05:15:00","10.7666","3.37438","24.63","1.695","7.39","0.592","3.593","0.09","0.11","29.9423","4.71721","18.49","0","SATNPRO1964","28.8","0.4034","5"],
    [58830,"HCEP03730563","2025-09-01 05:30:00","10.7681","3.37472","24.648","1.709","7.39","0.597","3.901","0.08","0.13","29.9444","4.7175","18.65","0","SATNPRO1964","28.468","0.39876","5"],
    [58831,"HCEP03730563","2025-09-01 05:45:00","10.7666","3.37444","24.696","1.682","7.39","0.651","4.132","0.08","0.36","29.9429","4.71731","18.35","0","SATNPRO1964","28.618","0.40088","5"],
    [58832,"HCEP03730563","2025-09-01 06:00:00","10.7672","3.37453","24.719","1.689","7.39","0.701","3.873","0.31","0.21","29.9433","4.71735","18.43","0","SATNPRO1964","28.988","0.40606","5"],
    [58833,"HCEP03730563","2025-09-01 06:15:00","10.7689","3.37486","24.765","1.685","7.39","0.653","4.031","0.05","0.72","29.9451","4.71759","18.39","0","SATNPRO1964","29.022000000000002","0.40652","5"],
    [58834,"HCEP03730563","2025-09-01 06:30:00","10.7685","3.37457","24.826","1.67","7.39","0.722","19.043","0.23","26.47","29.9426","4.71725","18.22","0","SATNPRO1964","29.004","0.40624","5"],
    [58835,"HCEP03730563","2025-09-01 06:45:00","10.7696","3.37492","24.89","1.676","7.39","0.661","4.01","0.1","0.23","29.9451","4.71758","18.29","0","SATNPRO1964","29.164","0.4085","5"],
    [58836,"HCEP03730563","2025-09-01 07:00:00","10.7703","3.37482","24.981","1.676","7.39","0.661","4.076","0.11","0.28","29.9435","4.71735","18.29","0","SATNPRO1964","29.62","0.41488","5"],
    [58837,"HCEP03730563","2025-09-01 07:15:00","10.7706","3.37497","25.067","1.665","7.39","0.756","4.903","0.12","0.34","29.9447","4.71751","18.16","0","SATNPRO1964","29.776","0.41706","5"],
    [58838,"HCEP03730563","2025-09-01 07:30:00","10.7723","3.3748","25.161","1.699","7.39","0.732","4.644","0.24","0.23","29.9416","4.71705","18.54","0","SATNPRO1964","28.688","0.40182","5"],
    [58839,"HCEP03730563","2025-09-01 07:45:00","10.7708","3.37472","25.266","1.722","7.39","0.87","4.941","0.3","0.28","29.9419","4.71713","18.79","0","SATNPRO1964","28.438","0.3983","5"],
    [58840,"HCEP03730563","2025-09-01 08:00:00","10.7692","3.37446","25.39","1.69","7.39","0.648","4.042","0.11","0.21","29.9407","4.717","18.44","0","SATNPRO1964","27.866","0.39032","5"],
    [58841,"HCEP03730563","2025-09-01 08:15:00","10.767","3.37384","25.505","1.667","7.39","0.624","3.909","0.07","0.17","29.9364","4.71643","18.19","0","SATNPRO1964","28.558","0.39998","5"],
    [58842,"HCEP03730563","2025-09-01 08:30:00","10.7655","3.37392","25.633","1.613","7.38","0.807","4.562","0.47","0.18","29.9383","4.71672","17.6","0","SATNPRO1964","27.202","0.38104","5"],
    [58843,"HCEP03730563","2025-09-01 08:45:00","10.7651","3.3738","25.763","1.483","7.38","0.814","4.887","0.17","0.22","29.9375","4.71662","16.18","0","SATNPRO1964","26.494","0.37108","5"],
    [58844,"HCEP03730563","2025-09-01 09:00:00","10.7643","3.37371","25.911","1.436","7.37","0.718","4.621","0.29","0.42","29.9371","4.71659","15.67","0","SATNPRO1964","26.876","0.37644","5"],
    [58845,"HCEP03730563","2025-09-01 09:15:00","10.7661","3.37369","26.031","1.415","7.37","0.685","4.468","0.09","0.14","29.9354","4.71633","15.44","0","SATNPRO1964","26.768","0.37496","5"],
    [58846,"HCEP03730563","2025-09-01 09:30:00","10.7771","3.37399","26.165","1.509","7.38","0.63","4.476","0.07","0.21","29.9293","4.71529","16.47","0","SATNPRO1964","28.356","0.39716","5"],
    [58847,"HCEP03730563","2025-09-01 09:45:00","10.7654","3.37371","26.298","1.555","7.38","0.7","4.699","0.15","0.21","29.9361","4.71645","16.97","0","SATNPRO1964","27.032","0.37866","5"],
    [58848,"HCEP03730563","2025-09-01 10:00:00","10.7643","3.37362","26.435","1.41","7.37","0.952","6.411","0.35","0.44","29.936","4.71646","15.38","0","SATNPRO1964","26.386","0.36962","5"],
    [58849,"HCEP03730563","2025-09-01 10:15:00","10.7653","3.37367","26.545","1.36","7.37","0.69","4.684","0.09","0.17","29.9356","4.7164","14.83","0","SATNPRO1964","26.664","0.37346","5"],
    [58850,"HCEP03730563","2025-09-01 10:30:00","10.765","3.37359","26.682","1.337","7.36","0.662","4.625","0.08","0.33","29.9351","4.71633","14.59","0","SATNPRO1964","26.492","0.37106","5"],
    [58851,"HCEP03730563","2025-09-01 10:45:00","10.7664","3.3737","26.787","1.328","7.36","0.925","5.262","0.52","0.59","29.935","4.71631","14.49","0","SATNPRO1964","26.394","0.36968","5"],
    [58852,"HCEP03730563","2025-09-01 11:00:00","10.7704","3.37401","26.878","1.33","7.36","0.74","4.594","0.16","0.17","29.9347","4.7162","14.51","0","SATNPRO1964","26.242","0.36756","5"],
    [58853,"HCEP03730563","2025-09-01 11:15:00","10.7756","3.3745","26.959","1.336","7.36","0.776","4.671","0.09","0.19","29.9353","4.71621","14.58","0","SATNPRO1964","26.492","0.37104","5"],
    [58854,"HCEP03730563","2025-09-01 11:30:00","10.7755","3.37448","27.021","1.347","7.36","0.681","4.452","0.09","0.26","29.9351","4.71619","14.69","0","SATNPRO1964","26.342","0.36896","5"],
    [58855,"HCEP03730563","2025-09-01 11:45:00","10.7731","3.37433","27.073","1.346","7.36","0.669","4.362","0.08","0.2","29.9355","4.71629","14.68","0","SATNPRO1964","26.132","0.36604","5"],
    [58856,"HCEP03730563","2025-09-01 12:00:00","10.7707","3.37412","27.134","1.355","7.36","0.603","3.968","0.12","0.11","29.9354","4.71631","14.78","0","SATNPRO1964","26.502","0.37116","5"],
    [58857,"HCEP03730563","2025-09-01 12:15:00","10.7691","3.37399","27.181","1.346","7.36","0.649","4.539","0.08","0.46","29.9355","4.71635","14.68","0","SATNPRO1964","26.644000000000002","0.37318","5"],
    [58858,"HCEP03730563","2025-09-01 12:30:00","10.7683","3.37389","27.208","1.34","7.36","0.599","4.035","0.07","0.18","29.9352","4.71632","14.62","0","SATNPRO1964","26.503999999999998","0.37124","5"],
    [58859,"HCEP03730563","2025-09-01 12:45:00","10.7658","3.37371","27.229","1.33","7.36","0.674","4.194","0.08","0.24","29.9353","4.71639","14.51","0","SATNPRO1964","26.356","0.36916","5"],
    [58860,"HCEP03730563","2025-09-01 13:00:00","10.7644","3.37367","27.251","1.307","7.36","0.65","4.295","0.1","0.25","29.9361","4.71652","14.25","0","SATNPRO1964","26.616","0.37282","5"],
    [58861,"HCEP03730563","2025-09-01 13:15:00","10.765","3.37383","27.271","1.319","7.36","0.619","4.135","0.1","0.16","29.9372","4.71667","14.39","0","SATNPRO1964","26.498","0.37112","5"],
    [58862,"HCEP03730563","2025-09-01 13:30:00","10.765","3.37398","27.278","1.344","7.36","0.619","4.255","0.25","0.19","29.9387","4.71687","14.66","0","SATNPRO1964","26.881999999999998","0.37652","5"],
    [58863,"HCEP03730563","2025-09-01 13:45:00","10.7658","3.37415","27.284","1.362","7.36","0.747","4.347","0.48","0.17","29.9396","4.717","14.85","0","SATNPRO1964","26.994","0.3781","5"],
    [58864,"HCEP03730563","2025-09-01 14:00:00","10.7653","3.37408","27.283","1.362","7.36","0.57","4.474","0.06","0.21","29.9394","4.71697","14.86","0","SATNPRO1964","26.898","0.37674","5"],
    [58865,"HCEP03730563","2025-09-01 14:15:00","10.7647","3.37394","27.297","1.346","7.36","0.688","4.823","0.09","0.3","29.9385","4.71686","14.69","0","SATNPRO1964","26.69","0.37382","5"],
    [58866,"HCEP03730563","2025-09-01 14:30:00","10.763","3.37375","27.282","1.338","7.36","0.586","4.496","0.06","0.25","29.938","4.71681","14.6","0","SATNPRO1964","26.624","0.3729","5"],
    [58867,"HCEP03730563","2025-09-01 14:45:00","10.7646","3.37372","27.262","1.344","7.36","0.669","3.96","0.37","0.2","29.9365","4.71657","14.66","0","SATNPRO1964","27.144","0.38022","5"],
    [58868,"HCEP03730563","2025-09-01 15:00:00","10.7636","3.37343","27.242","1.365","7.36","0.649","4.162","0.23","0.2","29.9344","4.71629","14.89","0","SATNPRO1964","26.674","0.3736","5"],
    [58869,"HCEP03730563","2025-09-01 15:15:00","10.7647","3.37336","27.226","1.322","7.36","0.635","3.881","0.1","0.19","29.9329","4.71605","14.42","0","SATNPRO1964","26.694","0.37388","5"],
    [58870,"HCEP03730563","2025-09-01 15:30:00","10.7653","3.37338","27.201","1.334","7.36","0.613","3.767","0.11","0.15","29.9325","4.716","14.56","0","SATNPRO1964","26.986","0.37798","5"],
    [58871,"HCEP03730563","2025-09-01 15:45:00","10.7653","3.37352","27.182","1.398","7.36","0.621","3.451","0.14","0.19","29.934","4.7162","15.25","0","SATNPRO1964","27.902","0.3908","5"],
    [58872,"HCEP03730563","2025-09-01 16:00:00","10.7653","3.37354","27.133","1.498","7.37","0.601","3.674","0.12","0.25","29.9342","4.71622","16.34","0","SATNPRO1964","27.944","0.3914","5"],
    [58873,"HCEP03730563","2025-09-01 16:15:00","10.7646","3.3736","27.101","1.524","7.37","0.626","3.797","0.07","0.19","29.9354","4.7164","16.62","0","SATNPRO1964","27.934","0.39128","5"],
    [58874,"HCEP03730563","2025-09-01 16:30:00","10.7635","3.37372","27.058","1.488","7.37","0.554","3.9","0.07","0.16","29.9375","4.71671","16.24","0","SATNPRO1964","27.352","0.38308","5"],
    [58875,"HCEP03730563","2025-09-01 16:45:00","10.7687","3.37433","27.037","1.508","7.37","0.525","3.267","0.08","0.16","29.9392","4.71688","16.45","0","SATNPRO1964","28.488","0.39906","5"],
    [58876,"HCEP03730563","2025-09-01 17:00:00","10.7713","3.37472","26.992","1.613","7.38","0.569","3.314","0.27","0.31","29.9409","4.71708","17.6","0","SATNPRO1964","29.016","0.40642","5"],
    [58877,"HCEP03730563","2025-09-01 17:15:00","10.7711","3.37472","26.984","1.67","7.38","0.545","3.261","0.13","0.17","29.9411","4.7171","18.22","0","SATNPRO1964","28.748","0.40264","5"],
    [58878,"HCEP03730563","2025-09-01 17:30:00","10.7726","3.37468","26.941","1.682","7.39","0.542","3.461","0.07","0.27","29.9395","4.71685","18.35","0","SATNPRO1964","28.758","0.4028","5"],
    [58879,"HCEP03730563","2025-09-01 17:45:00","10.7827","3.37535","26.93","1.764","7.39","0.548","2.807","0.26","0.25","29.9378","4.71645","19.25","0","SATNPRO1964","29.736","0.41654","5"],
    [58880,"HCEP03730563","2025-09-01 18:00:00","10.791","3.37608","26.918","1.869","7.4","0.518","2.866","0.1","0.37","29.9382","4.71638","20.4","0","SATNPRO1964","29.442","0.4124","5"],
    [58881,"HCEP03730563","2025-09-01 18:15:00","10.7961","3.37643","26.912","1.938","7.41","0.521","2.506","0.05","0.08","29.9374","4.71619","21.16","0","SATNPRO1964","30.018","0.42048","5"],
    [58882,"HCEP03730563","2025-09-01 18:30:00","10.8055","3.37753","26.905","1.993","7.41","0.586","2.395","0.34","0.11","29.9406","4.71649","21.76","0","SATNPRO1964","30.912","0.43296","5"],
    [58883,"HCEP03730563","2025-09-01 18:45:00","10.7883","3.37586","26.89","2.027","7.42","0.533","2.942","0.07","0.11","29.9382","4.71642","22.13","0","SATNPRO1964","29.726","0.41638","5"],
    [58884,"HCEP03730563","2025-09-01 19:00:00","10.7828","3.37532","26.895","1.924","7.41","0.557","3.431","0.1","0.36","29.9374","4.7164","20.99","0","SATNPRO1964","29.024","0.40652","5"],
    [58885,"HCEP03730563","2025-09-01 19:15:00","10.7864","3.37582","26.895","1.879","7.41","0.503","2.659","0.1","0.17","29.9394","4.71662","20.51","0","SATNPRO1964","30.004","0.42024","5"],
    [58886,"HCEP03730563","2025-09-01 19:30:00","10.7889","3.37617","26.908","1.952","7.41","0.535","2.457","0.1","0.09","29.9408","4.71679","21.31","0","SATNPRO1964","30.174","0.42264","5"],
    [58887,"HCEP03730563","2025-09-01 19:45:00","10.7844","3.37587","26.919","1.98","7.41","0.561","2.937","0.08","0.11","29.9416","4.71696","21.61","0","SATNPRO1964","29.898","0.41876","5"],
    [58888,"HCEP03730563","2025-09-01 20:00:00","10.7838","3.37599","26.931","1.934","7.41","0.523","3.495","0.11","0.8","29.9432","4.7172","21.11","0","SATNPRO1964","29.8","0.4174","5"],
    [58889,"HCEP03730563","2025-09-01 20:15:00","10.7787","3.37556","26.942","1.874","7.41","0.516","2.862","0.07","0.04","29.9431","4.71728","20.45","0","SATNPRO1964","28.98","0.40594","5"],
    [58890,"HCEP03730563","2025-09-01 20:30:00","10.7745","3.37534","26.938","1.73","7.4","0.545","3.477","0.07","0.06","29.9444","4.71752","18.87","0","SATNPRO1964","28.162","0.39448","5"],
    [58891,"HCEP03730563","2025-09-01 20:45:00","10.7849","3.37633","26.946","1.734","7.4","0.48","2.729","0.08","0.07","29.9457","4.71755","18.92","0","SATNPRO1964","29.291999999999998","0.41032","5"],
    [58892,"HCEP03730563","2025-09-01 21:00:00","10.7889","3.37667","26.958","1.893","7.41","0.51","2.811","0.06","0.08","29.9457","4.71749","20.66","0","SATNPRO1964","30.1","0.42162","5"],
    [58893,"HCEP03730563","2025-09-01 21:15:00","10.7821","3.37614","26.967","1.899","7.41","0.581","3.945","0.06","0.21","29.946","4.71764","20.72","0","SATNPRO1964","28.42","0.39804","5"],
    [58894,"HCEP03730563","2025-09-01 21:30:00","10.7761","3.3757","26.97","1.736","7.4","0.697","4.595","0.33","0.24","29.9466","4.71781","18.94","0","SATNPRO1964","27.806","0.38946","5"],
    [58895,"HCEP03730563","2025-09-01 21:45:00","10.7766","3.37577","26.977","1.593","7.39","0.669","4.802","0.1","0.34","29.9469","4.71785","17.38","0","SATNPRO1964","27.806","0.3895","5"],
    [58896,"HCEP03730563","2025-09-01 22:00:00","10.7806","3.37631","26.967","1.56","7.38","0.651","4.494","0.07","0.35","29.9489","4.71807","17.02","0","SATNPRO1964","27.746","0.38864","5"],
    [58897,"HCEP03730563","2025-09-01 22:15:00","10.7801","3.37624","26.968","1.567","7.38","0.661","4.413","0.11","0.18","29.9486","4.71804","17.11","0","SATNPRO1964","27.812","0.38956","5"],
    [58898,"HCEP03730563","2025-09-01 22:30:00","10.7776","3.37589","26.965","1.546","7.38","0.732","4.483","0.37","0.27","29.9473","4.71788","16.87","0","SATNPRO1964","28.124","0.39394","5"],
    [58899,"HCEP03730563","2025-09-01 22:45:00","10.7813","3.3764","26.952","1.557","7.38","0.642","4.029","0.07","0.18","29.9492","4.7181","16.99","0","SATNPRO1964","28.330000000000002","0.39684","5"],
    [58900,"HCEP03730563","2025-09-01 23:00:00","10.7803","3.37623","26.921","1.596","7.38","0.639","4.63","0.07","0.41","29.9484","4.718","17.42","0","SATNPRO1964","28.434","0.39826","5"],
    [58901,"HCEP03730563","2025-09-01 23:15:00","10.78","3.37624","26.874","1.581","7.38","0.585","4.089","0.05","0.18","29.9488","4.71806","17.26","0","SATNPRO1964","28.278","0.3961","5"],
    [58902,"HCEP03730563","2025-09-01 23:30:00","10.7847","3.37678","26.849","1.595","7.38","0.591","4.105","0.07","0.18","29.9503","4.71819","17.41","0","SATNPRO1964","28.252","0.3957","5"],
    [58903,"HCEP03730563","2025-09-01 23:45:00","10.7818","3.37643","26.852","1.63","7.38","0.603","3.926","0.08","0.16","29.9492","4.71809","17.79","0","SATNPRO1964","28.344","0.397","5"],
    [58904,"HCEP03730563","2025-09-02 00:00:00","10.7796","3.37622","26.811","1.584","7.38","1.021","17.847","0.35","21.58","29.949","4.71808","17.28","0","SATNPRO1964","28.38","0.39754","5"],
    [58905,"HCEP03730563","2025-09-02 00:15:00","10.7807","3.3763","26.751","1.554","7.38","0.593","4.056","0.07","0.39","29.9488","4.71804","16.95","0","SATNPRO1964","27.95","0.39146","5"],
    [58906,"HCEP03730563","2025-09-02 00:30:00","10.7864","3.37693","26.702","1.598","7.38","0.589","3.619","0.18","0.13","29.9503","4.71817","17.44","0","SATNPRO1964","27.552","0.38592","5"],
    [58907,"HCEP03730563","2025-09-02 00:45:00","10.7782","3.37594","26.634","1.62","7.38","0.527","3.819","0.06","0.21","29.9475","4.71788","17.68","0","SATNPRO1964","28.064","0.39306","5"],
    [58908,"HCEP03730563","2025-09-02 01:00:00","10.7819","3.37642","26.556","1.584","7.38","0.475","3.516","0.02","0.1","29.9491","4.71806","17.29","0","SATNPRO1964","27.596","0.38654","5"],
    [58909,"HCEP03730563","2025-09-02 01:15:00","10.7819","3.37634","26.466","1.623","7.38","0.58","3.522","0.08","0.05","29.9484","4.71794","17.71","0","SATNPRO1964","28.478","0.39888","5"],
    [58910,"HCEP03730563","2025-09-02 01:30:00","10.7792","3.376","26.367","1.624","7.38","0.464","3.34","0.04","0.07","29.9473","4.71783","17.72","0","SATNPRO1964","28.97","0.40576","5"],
    [58911,"HCEP03730563","2025-09-02 01:45:00","10.7794","3.37601","26.261","1.586","7.38","0.521","3.885","0.06","0.18","29.9472","4.71781","17.3","0","SATNPRO1964","28.689999999999998","0.40184","5"],
    [58912,"HCEP03730563","2025-09-02 02:00:00","10.782","3.37629","26.138","1.604","7.38","0.481","3.783","0.04","0.26","29.948","4.71787","17.5","0","SATNPRO1964","29.228","0.40936","5"],
    [58913,"HCEP03730563","2025-09-02 02:15:00","10.7856","3.37667","26.018","1.685","7.39","0.505","3.125","0.08","0.07","29.9487","4.71791","18.39","0","SATNPRO1964","29.512","0.41334","5"],
    [58914,"HCEP03730563","2025-09-02 02:30:00","10.7839","3.37644","25.894","1.743","7.39","0.488","3.142","0.04","0.14","29.948","4.71782","19.03","0","SATNPRO1964","28.554","0.39992","5"],
    [58915,"HCEP03730563","2025-09-02 02:45:00","10.7818","3.37625","25.77","1.718","7.39","0.495","3.346","0.02","0.07","29.9478","4.71783","18.75","0","SATNPRO1964","28.169999999999998","0.39456","5"],
    [58916,"HCEP03730563","2025-09-02 03:00:00","10.7785","3.37579","25.644","1.659","7.39","0.513","3.502","0.05","0.08","29.9461","4.71763","18.11","0","SATNPRO1964","28.03","0.39264","5"],
    [58917,"HCEP03730563","2025-09-02 03:15:00","10.7827","3.37624","25.511","1.648","7.39","0.759","3.446","0.87","0.15","29.9472","4.71771","17.98","0","SATNPRO1964","29.358","0.41122","5"],
    [58918,"HCEP03730563","2025-09-02 03:30:00","10.7845","3.37647","25.393","1.711","7.39","0.48","3.263","0.04","0.22","29.9479","4.71778","18.67","0","SATNPRO1964","29.896","0.4187","5"],
    [58919,"HCEP03730563","2025-09-02 03:45:00","10.7848","3.37659","25.272","1.769","7.39","0.512","3.277","0.05","0.12","29.9489","4.71791","19.31","0","SATNPRO1964","29.552","0.41394","5"],
    [58920,"HCEP03730563","2025-09-02 04:00:00","10.7881","3.37693","25.158","1.799","7.4","0.499","3.195","0.08","0.14","29.9495","4.71794","19.64","0","SATNPRO1964","29.736","0.41648","5"],
    [58921,"HCEP03730563","2025-09-02 04:15:00","10.7876","3.37678","25.049","1.85","7.4","0.462","2.767","0.04","0.12","29.9486","4.71781","20.19","0","SATNPRO1964","29.928","0.41922","5"],
    [58922,"HCEP03730563","2025-09-02 04:30:00","10.7876","3.37672","24.949","1.832","7.4","0.486","2.903","0.05","0.09","29.948","4.71771","20","0","SATNPRO1964","29.62","0.41488","5"],
    [58923,"HCEP03730563","2025-09-02 04:45:00","10.7866","3.37661","24.857","1.831","7.4","0.48","2.701","0.05","0.1","29.9479","4.71771","19.98","0","SATNPRO1964","29.854","0.41814","5"],
    [58924,"HCEP03730563","2025-09-02 05:00:00","10.7856","3.3765","24.793","1.822","7.4","0.572","4.48","0.11","0.39","29.9476","4.71768","19.88","0","SATNPRO1964","29.07","0.40718","5"],
    [58925,"HCEP03730563","2025-09-02 05:15:00","10.7848","3.37645","24.737","1.805","7.4","0.531","3.063","0.09","0.18","29.9478","4.71772","19.7","0","SATNPRO1964","29.332","0.41084","5"],
    [58926,"HCEP03730563","2025-09-02 05:30:00","10.7844","3.37647","24.667","1.766","7.4","0.634","4.464","0.12","0.96","29.9483","4.7178","19.28","0","SATNPRO1964","29.136","0.40814","5"],
    [58927,"HCEP03730563","2025-09-02 05:45:00","10.7848","3.37645","24.622","1.756","7.4","0.655","7.466","0.21","8.6","29.9478","4.71772","19.16","0","SATNPRO1964","29.366","0.4113","5"],
    [58928,"HCEP03730563","2025-09-02 06:00:00","10.7846","3.37642","24.594","1.762","7.4","0.621","4.058","0.25","1.25","29.9477","4.7177","19.23","0","SATNPRO1964","29.26","0.40986","5"],
    [58929,"HCEP03730563","2025-09-02 06:15:00","10.7794","3.37581","24.577","1.707","7.39","0.632","3.111","0.22","0.26","29.9459","4.71752","18.63","0","SATNPRO1964","28.982","0.40592","5"],
    [58930,"HCEP03730563","2025-09-02 06:30:00","10.7763","3.37543","24.573","1.62","7.39","2.501","26.1","2.89","26.02","29.9448","4.71742","17.68","0","SATNPRO1964","28.552","0.3999","5"],
    [58931,"HCEP03730563","2025-09-02 06:45:00","10.7764","3.37539","24.597","1.585","7.38","0.871","29.612","0.48","26.89","29.9442","4.71733","17.29","0","SATNPRO1964","28.43","0.39826","5"],
    [58932,"HCEP03730563","2025-09-02 07:00:00","10.7757","3.37535","24.623","1.564","7.38","0.657","3.645","0.13","0.28","29.9444","4.71737","17.07","0","SATNPRO1964","28.18","0.39472","5"],
    [58933,"HCEP03730563","2025-09-02 07:15:00","10.7757","3.37536","24.674","1.55","7.38","0.728","4.023","0.51","1.49","29.9445","4.71739","16.91","0","SATNPRO1964","28.724","0.40234","5"],
    [58934,"HCEP03730563","2025-09-02 07:30:00","10.7708","3.37485","24.732","1.466","7.37","0.858","4.202","0.38","0.18","29.9435","4.71732","16","0","SATNPRO1964","28.316","0.39658","5"],
    [58935,"HCEP03730563","2025-09-02 07:45:00","10.7699","3.37468","24.808","1.381","7.37","0.85","4.216","0.35","0.19","29.9425","4.71721","15.06","0","SATNPRO1964","27.658","0.3874","5"],
    [58936,"HCEP03730563","2025-09-02 08:00:00","10.7686","3.37451","24.893","1.309","7.36","0.886","4.462","0.24","0.35","29.9418","4.71714","14.28","0","SATNPRO1964","26.669999999999998","0.37356","5"],
    [58937,"HCEP03730563","2025-09-02 08:15:00","10.7661","3.37416","24.979","1.246","7.35","1.009","4.657","0.59","0.28","29.9404","4.71697","13.6","0","SATNPRO1964","26.32","0.36864","5"],
    [58938,"HCEP03730563","2025-09-02 08:30:00","10.7677","3.37431","25.105","1.166","7.35","0.902","4.798","0.27","0.37","29.9406","4.71698","12.72","0","SATNPRO1964","25.736","0.36048","5"],
    [58939,"HCEP03730563","2025-09-02 08:45:00","10.7696","3.37452","25.191","1.16","7.35","0.894","4.616","0.22","0.25","29.941","4.71702","12.65","0","SATNPRO1964","25.956","0.36356","5"],
    [58940,"HCEP03730563","2025-09-02 09:00:00","10.7706","3.37464","25.308","1.163","7.35","0.842","4.616","0.25","0.22","29.9413","4.71706","12.69","0","SATNPRO1964","25.876","0.3624","5"],
    [58941,"HCEP03730563","2025-09-02 09:15:00","10.7736","3.375","25.456","1.176","7.35","0.934","4.5","0.35","0.33","29.9424","4.71717","12.83","0","SATNPRO1964","26.247999999999998","0.36764","5"],
    [58942,"HCEP03730563","2025-09-02 09:30:00","10.7787","3.37551","25.572","1.245","7.35","1.171","3.965","0.9","0.21","29.9432","4.71721","13.58","0","SATNPRO1964","26.978","0.37788","5"],
    [58943,"NA","2025-09-02 09:45:00",null,null,null,null,null,null,null,null,null,null,null,null,null,"SATNPRO1964","27.137999999999998","0.3801","5"],
    [58944,"HCEP03730563","2025-09-02 09:45:01","10.7811","3.37576","25.724","1.316","7.36","0.936","4.012","0.33","0.2","29.9436","4.71724","14.36","0","NA",null,null,null],
    [58945,"HCEP03730563","2025-09-02 10:00:00","10.7834","3.37599","25.871","1.357","7.36","0.771","3.887","0.14","0.13","29.9439","4.71725","14.81","0","SATNPRO1964","26.938000000000002","0.37732","5"],
    [58946,"HCEP03730563","2025-09-02 10:15:00","10.7845","3.37613","26.013","1.36","7.36","0.894","4.182","0.26","0.79","29.9444","4.71731","14.85","0","SATNPRO1964","27.196","0.38092","5"],
    [58947,"HCEP03730563","2025-09-02 10:30:00","10.7859","3.37631","26.158","1.378","7.36","0.994","3.898","0.61","0.22","29.945","4.71738","15.04","0","SATNPRO1964","27.7","0.38802","5"],
    [58948,"HCEP03730563","2025-09-02 10:45:00","10.7872","3.37641","26.315","1.385","7.36","0.908","4.164","0.19","0.24","29.9448","4.71735","15.11","0","SATNPRO1964","27.262","0.38188","5"],
    [58949,"HCEP03730563","2025-09-02 11:00:00","10.7893","3.37664","26.466","1.387","7.36","0.824","4.014","0.14","0.21","29.9453","4.71739","15.14","0","SATNPRO1964","27.396","0.38372","5"],
    [58950,"HCEP03730563","2025-09-02 11:15:00","10.7919","3.37699","26.628","1.411","7.37","0.885","3.877","0.16","0.39","29.9466","4.71754","15.41","0","SATNPRO1964","27.788","0.38918","5"],
    [58951,"HCEP03730563","2025-09-02 11:30:00","10.7898","3.37678","26.726","1.433","7.37","0.818","3.824","0.28","0.33","29.9461","4.71751","15.64","0","SATNPRO1964","27.35","0.3831","5"],
    [58952,"HCEP03730563","2025-09-02 11:45:00","10.7914","3.37698","26.854","1.421","7.37","0.805","3.874","0.12","0.31","29.9467","4.71758","15.51","0","SATNPRO1964","27.706","0.3881","5"],
    [58953,"HCEP03730563","2025-09-02 12:00:00","10.7945","3.37737","26.96","1.451","7.37","0.686","3.62","0.1","0.15","29.9479","4.71771","15.84","0","SATNPRO1964","27.57","0.38616","5"],
    [58954,"HCEP03730563","2025-09-02 12:15:00","10.796","3.37756","27.07","1.491","7.37","0.682","3.44","0.13","0.16","29.9486","4.7178","16.28","0","SATNPRO1964","27.948","0.39146","5"],
    [58955,"HCEP03730563","2025-09-02 12:30:00","10.7943","3.37735","27.161","1.499","7.37","0.734","3.753","0.12","0.33","29.9479","4.71772","16.36","0","SATNPRO1964","27.646","0.38726","5"],
    [58956,"HCEP03730563","2025-09-02 12:45:00","10.7971","3.37777","27.24","1.482","7.37","0.88","3.571","0.37","0.2","29.9497","4.71794","16.18","0","SATNPRO1964","28.062","0.39304","5"],
    [58957,"HCEP03730563","2025-09-02 13:00:00","10.7963","3.37772","27.298","1.493","7.37","0.783","3.756","0.15","0.31","29.9498","4.71797","16.3","0","SATNPRO1964","27.634","0.38706","5"],
    [58958,"HCEP03730563","2025-09-02 13:15:00","10.7969","3.37787","27.34","1.487","7.37","0.736","3.795","0.13","0.13","29.9508","4.7181","16.23","0","SATNPRO1964","27.784","0.38916","5"],
    [58959,"HCEP03730563","2025-09-02 13:30:00","10.7972","3.37796","27.383","1.479","7.37","0.766","3.416","0.25","0.08","29.9514","4.71818","16.15","0","SATNPRO1964","27.734","0.38848","5"],
    [58960,"HCEP03730563","2025-09-02 13:45:00","10.7967","3.37789","27.415","1.467","7.37","0.709","3.481","0.11","0.22","29.9511","4.71816","16.01","0","SATNPRO1964","27.63","0.38702","5"],
    [58961,"HCEP03730563","2025-09-02 14:00:00","10.7957","3.37772","27.451","1.449","7.37","0.806","3.892","0.17","0.17","29.9503","4.71806","15.81","0","SATNPRO1964","27.734","0.38848","5"],
    [58962,"HCEP03730563","2025-09-02 14:15:00","10.7962","3.37776","27.473","1.438","7.37","0.805","3.722","0.24","0.17","29.9503","4.71805","15.7","0","SATNPRO1964","27.62","0.38688","5"],
    [58963,"HCEP03730563","2025-09-02 14:30:00","10.7965","3.37788","27.482","1.442","7.37","0.811","3.456","0.2","0.06","29.9512","4.71817","15.74","0","SATNPRO1964","27.672","0.3876","5"],
    [58964,"HCEP03730563","2025-09-02 14:45:00","10.7971","3.37792","27.492","1.444","7.37","0.632","3.185","0.1","0.07","29.951","4.71814","15.76","0","SATNPRO1964","27.764","0.38888","5"],
    [58965,"HCEP03730563","2025-09-02 15:00:00","10.7979","3.37761","27.491","1.446","7.37","0.829","3.254","0.18","0.12","29.9474","4.71761","15.79","0","SATNPRO1964","27.792","0.38932","5"],
    [58966,"HCEP03730563","2025-09-02 15:15:00","10.7985","3.378","27.481","1.452","7.37","0.744","3.38","0.34","0.2","29.9508","4.71808","15.85","0","SATNPRO1964","27.712","0.38816","5"],
    [58967,"HCEP03730563","2025-09-02 15:30:00","10.7971","3.37788","27.466","1.448","7.37","0.784","3.898","0.16","0.51","29.9507","4.7181","15.81","0","SATNPRO1964","27.612","0.38678","5"],
    [58968,"HCEP03730563","2025-09-02 15:45:00","10.7977","3.37787","27.446","1.433","7.37","0.56","3.258","0.07","0.21","29.9501","4.718","15.65","0","SATNPRO1964","27.632","0.38708","5"],
    [58969,"HCEP03730563","2025-09-02 16:00:00","10.7971","3.37779","27.425","1.433","7.37","0.733","3.699","0.13","0.18","29.9499","4.71797","15.64","0","SATNPRO1964","27.708000000000002","0.38808","5"],
    [58970,"HCEP03730563","2025-09-02 16:15:00","10.801","3.37822","27.391","1.448","7.37","0.737","3.904","0.13","0.17","29.9509","4.71805","15.8","0","SATNPRO1964","27.83","0.38978","5"],
    [58971,"HCEP03730563","2025-09-02 16:30:00","10.7985","3.37786","27.333","1.475","7.37","0.888","3.802","0.75","0.34","29.9494","4.71788","16.1","0","SATNPRO1964","27.784","0.38916","5"],
    [58972,"HCEP03730563","2025-09-02 16:45:00","10.7989","3.3779","27.251","1.468","7.37","0.726","3.623","0.14","0.13","29.9495","4.71789","16.03","0","SATNPRO1964","28.14","0.39418","5"],
    [58973,"HCEP03730563","2025-09-02 17:00:00","10.7977","3.37777","27.217","1.471","7.37","0.766","3.746","0.19","0.19","29.9492","4.71786","16.06","0","SATNPRO1964","27.932","0.3912","5"],
    [58974,"HCEP03730563","2025-09-02 17:15:00","10.7988","3.37783","27.167","1.484","7.37","0.72","3.449","0.15","0.18","29.9489","4.7178","16.2","0","SATNPRO1964","28.080000000000002","0.3933","5"],
    [58975,"HCEP03730563","2025-09-02 17:30:00","10.7957","3.37756","27.111","1.495","7.37","0.786","4.286","0.23","0.43","29.9488","4.71783","16.32","0","SATNPRO1964","28.012","0.39238","5"],
    [58976,"HCEP03730563","2025-09-02 17:45:00","10.7915","3.37722","27.056","1.475","7.37","0.719","3.747","0.2","0.22","29.9489","4.7179","16.1","0","SATNPRO1964","28.032","0.39266","5"],
    [58977,"HCEP03730563","2025-09-02 18:00:00","10.7883","3.37684","27.006","1.448","7.37","0.734","5.349","0.14","0.29","29.9478","4.7178","15.8","0","SATNPRO1964","28.006","0.39228","5"],
    [58978,"HCEP03730563","2025-09-02 18:15:00","10.7878","3.37677","26.961","1.428","7.37","1.308","4.174","2.06","0.52","29.9475","4.71776","15.58","0","SATNPRO1964","27.644","0.38722","5"],
    [58979,"HCEP03730563","2025-09-02 18:30:00","10.7874","3.37674","26.907","1.418","7.37","0.697","3.897","0.16","0.22","29.9477","4.71778","15.48","0","SATNPRO1964","27.77","0.38898","5"],
    [58980,"HCEP03730563","2025-09-02 18:45:00","10.7858","3.37654","26.885","1.419","7.36","0.964","8.763","0.29","3.39","29.947","4.71771","15.49","0","SATNPRO1964","27.874","0.39042","5"],
    [58981,"HCEP03730563","2025-09-02 19:00:00","10.786","3.37655","26.856","1.406","7.36","0.751","4.265","0.42","0.34","29.9469","4.7177","15.35","0","SATNPRO1964","27.802","0.38942","5"],
    [58982,"HCEP03730563","2025-09-02 19:15:00","10.7851","3.3764","26.827","1.401","7.36","0.675","4.578","0.11","0.83","29.9462","4.71761","15.29","0","SATNPRO1964","27.434","0.38428","5"],
    [58983,"HCEP03730563","2025-09-02 19:30:00","10.786","3.37648","26.806","1.391","7.36","0.715","4.719","0.13","0.37","29.9462","4.7176","15.18","0","SATNPRO1964","27.902","0.39082","5"],
    [58984,"HCEP03730563","2025-09-02 19:45:00","10.7867","3.37659","26.807","1.393","7.36","0.809","4.808","0.17","0.65","29.9467","4.71765","15.2","0","SATNPRO1964","27.842","0.38998","5"],
    [58985,"HCEP03730563","2025-09-02 20:00:00","10.7893","3.37695","26.813","1.418","7.36","0.627","4.298","0.06","0.32","29.9482","4.71782","15.48","0","SATNPRO1964","27.89","0.39066","5"],
    [58986,"HCEP03730563","2025-09-02 20:15:00","10.7974","3.37787","26.798","1.506","7.37","0.735","4.45","0.16","0.74","29.9505","4.71803","16.44","0","SATNPRO1964","28.764","0.40288","5"],
    [58987,"HCEP03730563","2025-09-02 20:30:00","10.7993","3.37814","26.802","1.602","7.38","0.649","4.351","0.13","0.29","29.9518","4.71818","17.49","0","SATNPRO1964","28.852","0.40414","5"],
    [58988,"HCEP03730563","2025-09-02 20:45:00","10.8009","3.37831","26.812","1.646","7.38","0.744","4.443","0.32","0.92","29.9521","4.71819","17.97","0","SATNPRO1964","28.884","0.40454","5"],
    [58989,"HCEP03730563","2025-09-02 21:00:00","10.8039","3.37874","26.804","1.678","7.38","0.689","4.542","0.11","0.32","29.9538","4.71839","18.33","0","SATNPRO1964","29.196","0.40896","5"],
    [58990,"HCEP03730563","2025-09-02 21:15:00","10.8064","3.37907","26.829","1.706","7.39","0.87","4.617","1.1","1.44","29.955","4.71852","18.63","0","SATNPRO1964","28.968","0.40578","5"],
    [58991,"HCEP03730563","2025-09-02 21:30:00","10.8093","3.37944","26.842","1.719","7.39","0.573","4.023","0.11","0.26","29.9562","4.71866","18.78","0","SATNPRO1964","29.208","0.40906","5"],
    [58992,"HCEP03730563","2025-09-02 21:45:00","10.8109","3.37968","26.836","1.727","7.39","0.594","3.989","0.08","0.21","29.9574","4.7188","18.86","0","SATNPRO1964","29.258","0.40982","5"],
    [58993,"HCEP03730563","2025-09-02 22:00:00","10.8124","3.37997","26.857","1.718","7.39","0.609","4.78","0.09","1.14","29.9589","4.71899","18.76","0","SATNPRO1964","29.046","0.40686","5"],
    [58994,"HCEP03730563","2025-09-02 22:15:00","10.814","3.38002","26.892","1.71","7.39","0.544","3.752","0.07","0.13","29.9581","4.71885","18.68","0","SATNPRO1964","29.414","0.41202","5"],
    [58995,"HCEP03730563","2025-09-02 22:30:00","10.8142","3.38011","26.912","1.725","7.39","0.599","4.255","0.19","0.26","29.9589","4.71896","18.84","0","SATNPRO1964","29.148","0.40828","5"],
    [58996,"HCEP03730563","2025-09-02 22:45:00","10.8143","3.38019","26.899","1.716","7.39","0.574","4.35","0.07","0.21","29.9596","4.71905","18.74","0","SATNPRO1964","29.304","0.41044","5"],
    [58997,"HCEP03730563","2025-09-02 23:00:00","10.8152","3.3802","26.909","1.709","7.39","0.66","3.95","0.18","0.3","29.9589","4.71894","18.67","0","SATNPRO1964","29.192","0.40886","5"],
    [58998,"HCEP03730563","2025-09-02 23:15:00","10.8158","3.38031","26.912","1.742","7.39","0.536","3.782","0.07","0.19","29.9595","4.71902","19.03","0","SATNPRO1964","29.502","0.4132","5"],
    [58999,"HCEP03730563","2025-09-02 23:30:00","10.8161","3.38031","26.921","1.753","7.39","0.513","3.876","0.13","0.26","29.9592","4.71897","19.15","0","SATNPRO1964","29.65","0.4153","5"],
    [59000,"HCEP03730563","2025-09-02 23:45:00","10.8162","3.38039","26.921","1.749","7.39","0.517","3.787","0.07","0.11","29.96","4.71908","19.1","0","SATNPRO1964","29.294","0.4103","5"],
    [59001,"HCEP03730563","2025-09-03 00:00:00","10.8144","3.38019","26.921","1.722","7.39","0.496","3.781","0.05","0.16","29.9595","4.71905","18.81","0","SATNPRO1964","29.456","0.4126","5"],
    [59002,"HCEP03730563","2025-09-03 00:15:00","10.8152","3.38031","26.91","1.708","7.39","0.888","4.154","1.15","0.22","29.96","4.7191","18.66","0","SATNPRO1964","29.426000000000002","0.4122","5"],
    [59003,"HCEP03730563","2025-09-03 00:30:00","10.8152","3.38034","26.888","1.693","7.39","0.5","3.856","0.07","0.1","29.9602","4.71913","18.49","0","SATNPRO1964","29.31","0.41054","5"],
    [59004,"HCEP03730563","2025-09-03 00:45:00","10.8146","3.38024","26.846","1.69","7.39","0.513","3.64","0.14","0.11","29.9598","4.71908","18.46","0","SATNPRO1964","29.242","0.4096","5"],
    [59005,"HCEP03730563","2025-09-03 01:00:00","10.8131","3.38002","26.799","1.708","7.39","0.477","3.488","0.09","0.26","29.9589","4.71897","18.65","0","SATNPRO1964","29.486","0.41302","5"],
    [59006,"HCEP03730563","2025-09-03 01:15:00","10.8127","3.37999","26.749","1.722","7.39","0.557","4.066","0.12","1","29.9589","4.71898","18.81","0","SATNPRO1964","29.532","0.41364","5"],
    [59007,"HCEP03730563","2025-09-03 01:30:00","10.8122","3.37961","26.677","1.761","7.4","0.774","3.485","1.01","1.46","29.9556","4.71852","19.23","0","SATNPRO1964","30.184","0.42276","5"],
    [59008,"HCEP03730563","2025-09-03 01:45:00","10.8121","3.37945","26.629","1.855","7.4","0.461","2.888","0.05","0.18","29.9541","4.7183","20.25","0","SATNPRO1964","30.562","0.42806","5"],
    [59009,"HCEP03730563","2025-09-03 02:00:00","10.8101","3.37927","26.543","1.898","7.4","0.623","2.858","1.05","0.27","29.9541","4.71832","20.73","0","SATNPRO1964","30.404","0.42582","5"],
    [59010,"HCEP03730563","2025-09-03 02:15:00","10.8105","3.37972","26.45","1.835","7.4","0.54","3.231","0.15","0.17","29.9582","4.7189","20.04","0","SATNPRO1964","29.692","0.41592","5"],
    [59011,"HCEP03730563","2025-09-03 02:30:00","10.8103","3.37947","26.361","1.789","7.4","0.457","2.815","0.07","0.11","29.956","4.71858","19.54","0","SATNPRO1964","30.156","0.4224","5"],
    [59012,"HCEP03730563","2025-09-03 02:45:00","10.8103","3.37951","26.238","1.823","7.4","0.566","3.085","0.28","0.15","29.9564","4.71862","19.9","0","SATNPRO1964","29.984","0.42002","5"],
    [59013,"HCEP03730563","2025-09-03 03:00:00","10.8146","3.37972","26.111","1.853","7.41","0.46","3.042","0.07","0.09","29.955","4.71835","20.24","0","SATNPRO1964","29.964","0.41966","5"],
    [59014,"HCEP03730563","2025-09-03 03:15:00","10.8127","3.37942","25.994","1.94","7.41","0.463","2.631","0.05","0.15","29.9537","4.71819","21.19","0","SATNPRO1964","30.42","0.42606","5"],
    [59015,"HCEP03730563","2025-09-03 03:30:00","10.8144","3.37993","25.839","1.955","7.41","0.483","2.692","0.15","0.12","29.9573","4.71868","21.35","0","SATNPRO1964","30.558","0.428","5"],
    [59016,"HCEP03730563","2025-09-03 03:45:00","10.8176","3.38006","25.699","1.941","7.41","0.465","2.313","0.05","0.16","29.9561","4.71844","21.2","0","SATNPRO1964","30.7","0.42998","5"],
    [59017,"HCEP03730563","2025-09-03 04:00:00","10.8112","3.37985","25.552","1.892","7.4","0.535","3.356","0.21","0.24","29.9593","4.71899","20.66","0","SATNPRO1964","29.456","0.4126","5"],
    [59018,"HCEP03730563","2025-09-03 04:15:00","10.8113","3.37984","25.416","1.728","7.39","0.508","3.673","0.1","0.12","29.9591","4.71895","18.87","0","SATNPRO1964","29.169999999999998","0.40854","5"],
    [59019,"HCEP03730563","2025-09-03 04:30:00","10.8105","3.37982","25.277","1.662","7.39","0.493","3.741","0.05","0.14","29.9597","4.71904","18.15","0","SATNPRO1964","28.888","0.40462","5"],
    [59020,"HCEP03730563","2025-09-03 04:45:00","10.81","3.3798","25.141","1.626","7.38","0.549","3.738","0.11","0.17","29.9599","4.71907","17.76","0","SATNPRO1964","29.038","0.40676","5"],
    [59021,"HCEP03730563","2025-09-03 05:00:00","10.8095","3.3797","25.008","1.575","7.38","0.541","3.667","0.12","0.17","29.9594","4.71899","17.2","0","SATNPRO1964","28.936","0.40528","5"],
    [59022,"HCEP03730563","2025-09-03 05:15:00","10.8088","3.37971","24.87","1.545","7.38","0.603","4.062","0.09","0.18","29.9601","4.71909","16.87","0","SATNPRO1964","28.296","0.39632","5"],
    [59023,"HCEP03730563","2025-09-03 05:30:00","10.8081","3.37966","24.755","1.495","7.37","0.598","4.698","0.08","0.2","29.9602","4.71913","16.32","0","SATNPRO1964","27.904","0.39084","5"],
    [59024,"HCEP03730563","2025-09-03 05:45:00","10.809","3.37972","24.649","1.491","7.37","0.579","4.278","0.04","0.09","29.9602","4.7191","16.28","0","SATNPRO1964","28.286","0.39624","5"],
    [59025,"HCEP03730563","2025-09-03 06:00:00","10.8088","3.37971","24.557","1.523","7.37","0.556","3.941","0.07","0.15","29.9602","4.7191","16.64","0","SATNPRO1964","28.078","0.39324","5"],
    [59026,"HCEP03730563","2025-09-03 06:15:00","10.8095","3.37938","24.486","1.545","7.38","0.644","3.625","0.23","0.12","29.9564","4.71854","16.87","0","SATNPRO1964","28.74","0.40256","5"],
    [59027,"HCEP03730563","2025-09-03 06:30:00","10.8112","3.37973","24.435","1.634","7.38","0.498","2.99","0.02","0.08","29.9585","4.71881","17.85","0","SATNPRO1964","29.74","0.41656","5"],
    [59028,"HCEP03730563","2025-09-03 06:45:00","10.8105","3.37966","24.385","1.716","7.39","0.554","2.781","0.06","0.07","29.9585","4.71881","18.74","0","SATNPRO1964","30.23","0.42342","5"],
    [59029,"HCEP03730563","2025-09-03 07:00:00","10.8126","3.37961","24.354","1.794","7.4","6.412","425.867","1.49","142.19","29.9562","4.71846","19.59","0","SATNPRO1964","30.567999999999998","0.42818","5"],
    [59030,"HCEP03730563","2025-09-03 07:15:00","10.8113","3.37954","24.356","1.861","7.4","0.532","2.427","0.07","0.12","29.9566","4.71853","20.32","0","SATNPRO1964","30.594","0.42848","5"],
    [59031,"HCEP03730563","2025-09-03 07:30:00","10.8108","3.37952","24.365","1.83","7.4","0.696","2.782","0.6","0.17","29.9568","4.71858","19.99","0","SATNPRO1964","30.354","0.42518","5"],
    [59032,"HCEP03730563","2025-09-03 07:45:00","10.8094","3.37959","24.392","1.749","7.39","0.606","3.453","0.09","0.17","29.9587","4.71887","19.1","0","SATNPRO1964","28.488","0.39906","5"],
    [59033,"HCEP03730563","2025-09-03 08:00:00","10.8096","3.37959","24.436","1.675","7.39","0.853","3.45","1.2","0.21","29.9584","4.71883","18.29","0","SATNPRO1964","30.072","0.4212","5"],
    [59034,"HCEP03730563","2025-09-03 08:15:00","10.811","3.37943","24.475","1.697","7.39","0.729","3.948","0.39","0.83","29.9558","4.71843","18.53","0","SATNPRO1964","29.056","0.40696","5"],
    [59035,"HCEP03730563","2025-09-03 08:30:00","10.8088","3.37927","24.534","1.738","7.39","0.613","3.748","0.09","0.29","29.9559","4.71849","18.98","0","SATNPRO1964","28.875999999999998","0.40448","5"],
    [59036,"HCEP03730563","2025-09-03 08:45:00","10.8083","3.37935","24.618","1.664","7.39","0.609","3.444","0.15","0.23","29.9571","4.71867","18.17","0","SATNPRO1964","29.534","0.41368","5"],
    [59037,"HCEP03730563","2025-09-03 09:00:00","10.809","3.37959","24.713","1.578","7.38","0.613","4.002","0.05","0.25","29.9589","4.71892","17.23","0","SATNPRO1964","28.041999999999998","0.39276","5"],
    [59038,"HCEP03730563","2025-09-03 09:15:00","10.8062","3.37912","24.832","1.52","7.38","0.644","3.788","0.07","0.17","29.9565","4.71863","16.6","0","SATNPRO1964","28.258","0.3958","5"],
    [59039,"HCEP03730563","2025-09-03 09:30:00","10.8066","3.37924","24.971","1.525","7.38","0.75","5.369","0.14","0.29","29.9572","4.71873","16.65","0","SATNPRO1964","28.19","0.39482","5"],
    [59040,"HCEP03730563","2025-09-03 09:45:00","10.8056","3.37904","25.094","1.524","7.38","0.606","3.562","0.07","0.21","29.9561","4.71859","16.64","0","SATNPRO1964","28.342","0.39698","5"],
    [59041,"HCEP03730563","2025-09-03 10:00:00","10.8064","3.37925","25.228","1.511","7.37","0.693","3.863","0.13","0.26","29.9574","4.71878","16.5","0","SATNPRO1964","28.218","0.39526","5"],
    [59042,"HCEP03730563","2025-09-03 10:15:00","10.8065","3.37924","25.364","1.476","7.37","0.675","4.075","0.1","0.18","29.9571","4.71874","16.12","0","SATNPRO1964","28.292","0.3963","5"],
    [59043,"HCEP03730563","2025-09-03 10:30:00","10.8057","3.37911","25.534","1.453","7.37","0.733","4.478","0.12","0.23","29.9565","4.71867","15.86","0","SATNPRO1964","27.96","0.39164","5"],
    [59044,"HCEP03730563","2025-09-03 10:45:00","10.8045","3.37901","25.712","1.436","7.37","0.736","4.533","0.13","0.24","29.9565","4.7187","15.68","0","SATNPRO1964","28.232","0.39542","5"],
    [59045,"HCEP03730563","2025-09-03 11:00:00","10.804","3.37897","25.904","1.413","7.36","0.86","6.694","0.12","0.86","29.9564","4.71871","15.43","0","SATNPRO1964","27.94","0.39136","5"],
    [59046,"HCEP03730563","2025-09-03 11:15:00","10.8038","3.37893","26.074","1.4","7.36","0.843","4.523","0.08","0.35","29.9561","4.71868","15.29","0","SATNPRO1964","28.34","0.39696","5"],
    [59047,"HCEP03730563","2025-09-03 11:30:00","10.8043","3.37899","26.222","1.413","7.36","0.634","3.906","0.1","0.29","29.9563","4.7187","15.43","0","SATNPRO1964","28.14","0.39414","5"],
    [59048,"HCEP03730563","2025-09-03 11:45:00","10.8045","3.37912","26.421","1.409","7.36","0.728","3.677","0.11","0.18","29.9572","4.71885","15.39","0","SATNPRO1964","28.408","0.39788","5"],
    [59049,"HCEP03730563","2025-09-03 12:00:00","10.8065","3.37933","26.558","1.421","7.37","0.604","3.317","0.06","0.22","29.9576","4.71888","15.52","0","SATNPRO1964","28.074","0.39324","5"],
    [59050,"HCEP03730563","2025-09-03 12:15:00","10.8069","3.37943","26.699","1.439","7.37","0.642","3.472","0.07","0.28","29.9582","4.71896","15.71","0","SATNPRO1964","27.984","0.392","5"],
    [59051,"HCEP03730563","2025-09-03 12:30:00","10.8057","3.37934","26.856","1.431","7.36","0.618","3.392","0.11","0.17","29.9582","4.71899","15.63","0","SATNPRO1964","27.784","0.38916","5"],
    [59052,"HCEP03730563","2025-09-03 12:45:00","10.8042","3.3791","27.003","1.407","7.36","0.606","3.464","0.11","0.37","29.9571","4.71886","15.37","0","SATNPRO1964","27.798000000000002","0.38936","5"],
    [59053,"HCEP03730563","2025-09-03 13:00:00","10.8019","3.37875","27.115","1.371","7.36","0.614","3.475","0.16","0.17","29.9554","4.71867","14.97","0","SATNPRO1964","27.44","0.38436","5"],
    [59054,"HCEP03730563","2025-09-03 13:15:00","10.8014","3.37868","27.214","1.343","7.36","0.675","3.58","0.11","0.29","29.9552","4.71865","14.66","0","SATNPRO1964","27.748","0.38866","5"],
    [59055,"HCEP03730563","2025-09-03 13:30:00","10.8007","3.37856","27.27","1.318","7.36","0.598","3.511","0.07","0.18","29.9545","4.71857","14.39","0","SATNPRO1964","27.248","0.38166","5"],
    [59056,"HCEP03730563","2025-09-03 13:45:00","10.7997","3.37844","27.347","1.297","7.35","0.648","3.469","0.16","0.17","29.9541","4.71853","14.16","0","SATNPRO1964","27.428","0.38418","5"],
    [59057,"HCEP03730563","2025-09-03 14:00:00","10.799","3.3783","27.365","1.268","7.35","0.663","3.991","0.07","0.29","29.9533","4.71842","13.84","0","SATNPRO1964","27.224","0.38128","5"],
    [59058,"HCEP03730563","2025-09-03 14:15:00","10.7982","3.37824","27.469","1.234","7.35","0.681","3.686","0.07","0.2","29.9533","4.71845","13.47","0","SATNPRO1964","26.834","0.37588","5"],
    [59059,"HCEP03730563","2025-09-03 14:30:00","10.7968","3.37805","27.472","1.203","7.35","0.677","3.516","0.14","0.2","29.9526","4.71837","13.13","0","SATNPRO1964","26.7","0.37396","5"],
    [59060,"HCEP03730563","2025-09-03 14:45:00","10.7986","3.37819","27.532","1.189","7.35","0.633","3.311","0.06","0.11","29.9525","4.71833","12.98","0","SATNPRO1964","27.062","0.37906","5"],
    [59061,"HCEP03730563","2025-09-03 15:00:00","10.7976","3.3781","27.544","1.189","7.34","0.685","3.67","0.21","0.11","29.9524","4.71834","12.98","0","SATNPRO1964","26.61","0.3727","5"],
    [59062,"HCEP03730563","2025-09-03 15:15:00","10.7986","3.37824","27.571","1.171","7.34","0.631","3.308","0.07","0.16","29.9529","4.71839","12.79","0","SATNPRO1964","26.76","0.3748","5"],
    [59063,"HCEP03730563","2025-09-03 15:30:00","10.7997","3.37838","27.532","1.182","7.34","0.669","3.656","0.09","0.18","29.9534","4.71845","12.9","0","SATNPRO1964","26.554","0.3719","5"],
    [59064,"HCEP03730563","2025-09-03 15:45:00","10.8007","3.37854","27.555","1.191","7.34","0.659","3.301","0.05","0.13","29.9542","4.71854","13.01","0","SATNPRO1964","26.919999999999998","0.37706","5"],
    [59065,"HCEP03730563","2025-09-03 16:00:00","10.8014","3.37868","27.507","1.193","7.34","0.712","3.547","0.1","0.17","29.9551","4.71865","13.02","0","SATNPRO1964","26.946","0.37742","5"],
    [59066,"HCEP03730563","2025-09-03 16:15:00","10.8013","3.37865","27.487","1.178","7.34","0.708","3.694","0.09","0.52","29.9548","4.71861","12.86","0","SATNPRO1964","26.504","0.37126","5"],
    [59067,"HCEP03730563","2025-09-03 16:30:00","10.801","3.37858","27.47","1.144","7.34","3.013","37.305","2","17.35","29.9544","4.71855","12.49","0","SATNPRO1964","26.328","0.36878","5"],
    [59068,"HCEP03730563","2025-09-03 16:45:00","10.8005","3.37855","27.444","1.094","7.34","3.793","44.847","1.76","18.13","29.9545","4.71858","11.94","0","SATNPRO1964","25.922","0.36306","5"],
    [59069,"HCEP03730563","2025-09-03 17:00:00","10.8034","3.37907","27.431","1.075","7.34","0.733","4.366","0.06","0.14","29.9572","4.71892","11.74","0","SATNPRO1964","25.994","0.3641","5"],
    [59070,"HCEP03730563","2025-09-03 17:15:00","10.8045","3.37937","27.334","1.083","7.34","0.756","4.551","0.1","0.15","29.9593","4.7192","11.83","0","SATNPRO1964","26.106","0.3657","5"],
    [59071,"HCEP03730563","2025-09-03 17:30:00","10.8014","3.37944","27.288","1.08","7.33","0.73","4.915","0.13","0.26","29.9626","4.7197","11.79","0","SATNPRO1964","25.954","0.3635","5"],
    [59072,"HCEP03730563","2025-09-03 17:45:00","10.8041","3.38013","27.191","1.076","7.33","0.715","4.839","0.1","0.39","29.9672","4.72032","11.75","0","SATNPRO1964","25.814","0.36156","5"],
    [59073,"HCEP03730563","2025-09-03 18:00:00","10.8047","3.38037","27.138","1.085","7.33","0.699","3.793","0.13","0.16","29.9691","4.72057","11.85","0","SATNPRO1964","25.984","0.36398","5"],
    [59074,"HCEP03730563","2025-09-03 18:15:00","10.8061","3.3805","27.089","1.084","7.34","0.709","3.917","0.07","0.16","29.9693","4.72057","11.84","0","SATNPRO1964","25.838","0.36192","5"],
    [59075,"HCEP03730563","2025-09-03 18:30:00","10.8052","3.38042","27.005","1.077","7.34","0.677","4.021","0.05","0.18","29.9692","4.72058","11.76","0","SATNPRO1964","26.014","0.36434","5"],
    [59076,"HCEP03730563","2025-09-03 18:45:00","10.804","3.38027","26.959","1.084","7.33","0.752","4.671","0.11","0.28","29.9687","4.72052","11.83","0","SATNPRO1964","25.816","0.3616","5"],
    [59077,"HCEP03730563","2025-09-03 19:00:00","10.8034","3.38021","26.878","1.079","7.33","0.692","5.016","0.08","0.42","29.9687","4.72052","11.78","0","SATNPRO1964","25.858","0.36218","5"],
    [59078,"HCEP03730563","2025-09-03 19:15:00","10.8073","3.38063","26.81","1.096","7.34","0.665","4.663","0.08","0.34","29.9696","4.72058","11.97","0","SATNPRO1964","26.276","0.36804","5"],
    [59079,"HCEP03730563","2025-09-03 19:30:00","10.8057","3.38048","26.754","1.12","7.34","0.64","4.503","0.08","0.5","29.9695","4.72059","12.23","0","SATNPRO1964","26.232","0.3674","5"],
    [59080,"HCEP03730563","2025-09-03 19:45:00","10.808","3.38074","26.717","1.124","7.34","0.645","4.252","0.09","1.07","29.9701","4.72064","12.27","0","SATNPRO1964","26.544","0.37182","5"],
    [59081,"HCEP03730563","2025-09-03 20:00:00","10.8091","3.38026","26.671","1.186","7.34","0.491","2.302","0.08","0.1","29.9646","4.71984","12.95","0","SATNPRO1964","27.374","0.38342","5"],
    [59082,"HCEP03730563","2025-09-03 20:15:00","10.8113","3.38056","26.664","1.264","7.35","0.524","2.356","0.07","0.13","29.9657","4.71996","13.81","0","SATNPRO1964","27.406000000000002","0.38388","5"],
    [59083,"HCEP03730563","2025-09-03 20:30:00","10.8077","3.37985","26.618","1.284","7.35","0.523","2.473","0.09","0.32","29.9617","4.71945","14.02","0","SATNPRO1964","27.426","0.38416","5"],
    [59084,"HCEP03730563","2025-09-03 20:45:00","10.8104","3.38061","26.636","1.27","7.35","0.615","2.47","0.12","0.11","29.967","4.72015","13.87","0","SATNPRO1964","27.132","0.38002","5"],
    [59085,"HCEP03730563","2025-09-03 21:00:00","10.8035","3.38029","26.621","1.184","7.34","0.607","3.454","0.08","0.38","29.9694","4.72061","12.93","0","SATNPRO1964","25.604","0.35862","5"],
    [59086,"HCEP03730563","2025-09-03 21:15:00","10.8034","3.38023","26.624","1.068","7.34","0.705","3.369","0.16","0.17","29.9689","4.72053","11.66","0","SATNPRO1964","25.39","0.35564","5"],
    [59087,"HCEP03730563","2025-09-03 21:30:00","10.8053","3.38021","26.64","1.058","7.34","0.656","2.979","0.14","0.13","29.9672","4.72026","11.56","0","SATNPRO1964","26.13","0.36602","5"],
    [59088,"HCEP03730563","2025-09-03 21:45:00","10.8061","3.38013","26.666","1.088","7.34","0.659","2.941","0.18","0.15","29.9657","4.72004","11.88","0","SATNPRO1964","26.144","0.3662","5"],
    [59089,"HCEP03730563","2025-09-03 22:00:00","10.8057","3.3799","26.696","1.098","7.34","0.599","2.956","0.09","0.13","29.9638","4.71978","11.99","0","SATNPRO1964","26.272","0.368","5"],
    [59090,"HCEP03730563","2025-09-03 22:15:00","10.8073","3.38021","26.694","1.107","7.34","0.654","2.957","0.18","0.18","29.9655","4.71999","12.09","0","SATNPRO1964","26.816","0.3756","5"],
    [59091,"HCEP03730563","2025-09-03 22:30:00","10.8137","3.38178","26.73","1.114","7.34","0.767","4.102","0.25","0.31","29.9758","4.72136","12.17","0","SATNPRO1964","25.578","0.35828","5"],
    [59092,"HCEP03730563","2025-09-03 22:45:00","10.8408","3.38518","26.745","1.213","7.35","0.813","4.352","0.1","0.31","29.9869","4.72251","13.25","0","SATNPRO1964","26.818","0.37566","5"],
    [59093,"HCEP03730563","2025-09-03 23:00:00","10.8601","3.38781","26.784","1.456","7.37","0.65","3.164","0.09","0.12","29.997","4.72365","15.92","0","SATNPRO1964","28.052","0.39292","5"],
    [59094,"HCEP03730563","2025-09-03 23:15:00","10.8652","3.38862","26.827","1.64","7.38","0.711","3.485","0.06","0.16","30.0007","4.7241","17.94","0","SATNPRO1964","28.094","0.39354","5"],
    [59095,"HCEP03730563","2025-09-03 23:30:00","10.8694","3.38928","26.876","1.702","7.38","0.733","4.016","0.13","0.43","30.0038","4.72447","18.61","0","SATNPRO1964","27.922","0.3911","5"],
    [59096,"HCEP03730563","2025-09-03 23:45:00","10.8756","3.39001","26.887","1.744","7.39","0.692","3.474","0.08","0.18","30.0058","4.72467","19.07","0","SATNPRO1964","28.336","0.3969","5"],
    [59097,"HCEP03730563","2025-09-04 00:00:00","10.881","3.39087","26.929","1.805","7.4","0.738","3.701","0.11","0.22","30.0098","4.72516","19.75","0","SATNPRO1964","28.664","0.40148","5"],
    [59098,"HCEP03730563","2025-09-04 00:15:00","10.8741","3.39009","26.92","1.827","7.39","0.729","3.809","0.11","0.18","30.0078","4.72498","19.98","0","SATNPRO1964","28.088","0.39346","5"],
    [59099,"HCEP03730563","2025-09-04 00:30:00","10.8721","3.38999","26.959","1.758","7.39","0.802","4.364","0.16","0.3","30.0084","4.7251","19.23","0","SATNPRO1964","27.878","0.39054","5"],
    [59100,"HCEP03730563","2025-09-04 00:45:00","10.8755","3.39062","26.97","1.742","7.39","0.826","3.844","0.34","0.52","30.0119","4.72555","19.06","0","SATNPRO1964","28.184","0.39474","5"],
    [59101,"HCEP03730563","2025-09-04 01:00:00","10.8766","3.39088","26.982","1.768","7.4","0.672","3.473","0.12","0.18","30.0135","4.72575","19.34","0","SATNPRO1964","28.5","0.3992","5"],
    [59102,"HCEP03730563","2025-09-04 01:15:00","10.8747","3.39061","26.977","1.763","7.39","0.703","4.046","0.06","0.16","30.0125","4.72563","19.29","0","SATNPRO1964","28.002","0.39224","5"],
    [59103,"HCEP03730563","2025-09-04 01:30:00","10.8751","3.3907","27.005","1.733","7.39","0.694","4.069","0.06","0.11","30.013","4.7257","18.96","0","SATNPRO1964","28.146","0.39418","5"],
    [59104,"HCEP03730563","2025-09-04 01:45:00","10.8808","3.39142","26.959","1.761","7.4","0.595","3.017","0.05","0.08","30.0154","4.72595","19.27","0","SATNPRO1964","28.598","0.40052","5"],
    [59105,"HCEP03730563","2025-09-04 02:00:00","10.8791","3.39122","26.925","1.802","7.4","0.664","4.396","0.15","0.88","30.0148","4.7259","19.72","0","SATNPRO1964","28.302","0.3964","5"],
    [59106,"HCEP03730563","2025-09-04 02:15:00","10.88","3.39122","26.941","1.805","7.4","0.656","3.568","0.05","0.2","30.0141","4.72578","19.74","0","SATNPRO1964","28.48","0.3989","5"],
    [59107,"HCEP03730563","2025-09-04 02:30:00","10.8866","3.39192","26.84","1.848","7.41","0.589","3.312","0.04","0.4","30.0156","4.7259","20.23","0","SATNPRO1964","28.874","0.40446","5"],
    [59108,"HCEP03730563","2025-09-04 02:45:00","10.899","3.39327","26.781","2","7.42","0.608","2.588","0.19","0.37","30.0187","4.72613","21.9","0","SATNPRO1964","29.65","0.41532","5"],
    [59109,"HCEP03730563","2025-09-04 03:00:00","10.8943","3.39283","26.688","2.115","7.42","0.542","3.262","0.06","0.82","30.0183","4.72614","23.14","0","SATNPRO1964","29.386","0.41166","5"],
    [59110,"HCEP03730563","2025-09-04 03:15:00","10.8882","3.39233","26.58","2.027","7.42","0.557","2.464","0.06","0.08","30.0184","4.72625","22.18","0","SATNPRO1964","29.291999999999998","0.41026","5"],
    [59111,"HCEP03730563","2025-09-04 03:30:00","10.894","3.3928","26.481","1.988","7.42","0.541","2.358","0.05","0.08","30.0183","4.72613","21.75","0","SATNPRO1964","29.512","0.41338","5"],
    [59112,"HCEP03730563","2025-09-04 03:45:00","10.8871","3.39215","26.328","2.005","7.42","0.728","3.291","0.16","0.08","30.0176","4.72613","21.94","0","SATNPRO1964","28.636","0.40106","5"],
    [59113,"HCEP03730563","2025-09-04 04:00:00","10.8851","3.39163","26.193","1.928","7.41","0.539","2.988","0.06","0.09","30.0142","4.72567","21.1","0","SATNPRO1964","28.94","0.40534","5"],
    [59114,"HCEP03730563","2025-09-04 04:15:00","10.8864","3.39198","26.092","1.909","7.41","0.582","3.05","0.06","0.1","30.0167","4.72601","20.89","0","SATNPRO1964","28.79","0.40322","5"],
    [59115,"HCEP03730563","2025-09-04 04:30:00","10.8885","3.39219","25.952","1.954","7.42","0.506","2.396","0.08","0.28","30.0171","4.72602","21.38","0","SATNPRO1964","29.498","0.41314","5"],
    [59116,"HCEP03730563","2025-09-04 04:45:00","10.8832","3.39158","25.755","1.953","7.41","0.614","2.891","0.12","0.11","30.0154","4.72585","21.37","0","SATNPRO1964","28.712","0.40216","5"],
    [59117,"HCEP03730563","2025-09-04 05:00:00","10.8828","3.39145","25.587","1.9","7.41","0.517","2.602","0.11","0.09","30.0145","4.72573","20.79","0","SATNPRO1964","28.834","0.40384","5"],
    [59118,"HCEP03730563","2025-09-04 05:15:00","10.8792","3.39078","25.417","1.871","7.41","0.582","2.881","0.08","0.1","30.011","4.72526","20.47","0","SATNPRO1964","28.494","0.39912","5"],
    [59119,"HCEP03730563","2025-09-04 05:30:00","10.8963","3.39158","25.255","1.95","7.42","0.57","3.119","0.09","0.36","30.005","4.72414","21.34","0","SATNPRO1964","29.844","0.41802","5"],
    [59120,"HCEP03730563","2025-09-04 05:45:00","10.8924","3.3921","25.075","2.099","7.42","0.504","2.584","0.05","0.1","30.0133","4.72538","22.97","0","SATNPRO1964","30.608","0.42874","5"],
    [59121,"HCEP03730563","2025-09-04 06:00:00","10.8893","3.39153","24.913","2.06","7.42","0.488","2.563","0.07","0.33","30.0103","4.72499","22.54","0","SATNPRO1964","30.086","0.42144","5"],
    [59122,"HCEP03730563","2025-09-04 06:15:00","10.9068","3.39313","24.755","2.183","7.44","0.472","2.182","0.06","0.21","30.0117","4.72491","23.9","0","SATNPRO1964","32.316","0.45268","5"],
    [59123,"HCEP03730563","2025-09-04 06:30:00","10.9218","3.39388","24.618","2.454","7.45","0.492","1.908","0.09","0.1","30.007","4.724","26.87","0","SATNPRO1964","32.812","0.45962","5"],
    [59124,"HCEP03730563","2025-09-04 06:45:00","10.935","3.39512","24.493","2.551","7.47","0.475","1.744","0.12","0.45","30.0083","4.72398","27.94","0","SATNPRO1964","32.694","0.45794","5"],
    [59125,"HCEP03730563","2025-09-04 07:00:00","10.9516","3.39656","24.381","2.794","7.49","0.499","1.296","0.1","0.17","30.009","4.7238","30.62","0","SATNPRO1964","32.664","0.45752","5"],
    [59126,"HCEP03730563","2025-09-04 07:15:00","10.8896","3.39156","24.29","2.604","7.46","0.58","2.546","0.13","0.16","30.0106","4.72499","28.49","0","SATNPRO1964","30.254","0.4238","5"],
    [59127,"HCEP03730563","2025-09-04 07:30:00","10.8828","3.39103","24.194","2.145","7.44","0.534","3.141","0.04","0.13","30.011","4.72515","23.47","0","SATNPRO1964","29.398","0.41176","5"],
    [59128,"HCEP03730563","2025-09-04 07:45:00","10.8846","3.39121","24.144","2.001","7.43","0.617","3.222","0.07","0.15","30.0113","4.72516","21.89","0","SATNPRO1964","29.184","0.40878","5"],
    [59129,"HCEP03730563","2025-09-04 08:00:00","10.8746","3.39065","24.192","1.892","7.41","0.712","4.764","0.06","0.51","30.014","4.72569","20.7","0","SATNPRO1964","27.788","0.38924","5"],
    [59130,"HCEP03730563","2025-09-04 08:15:00","10.8798","3.39108","24.182","1.789","7.41","0.608","3.62","0.06","0.23","30.014","4.72561","19.58","0","SATNPRO1964","28.148","0.39426","5"],
    [59131,"HCEP03730563","2025-09-04 08:30:00","10.8948","3.39203","24.182","1.968","7.42","0.558","2.696","0.09","0.11","30.011","4.72496","21.53","0","SATNPRO1964","29.758","0.41682","5"],
    [59132,"HCEP03730563","2025-09-04 08:45:00","10.9008","3.39249","24.213","2.165","7.43","0.57","2.727","0.07","0.17","30.0106","4.72481","23.69","0","SATNPRO1964","30.692","0.42992","5"],
    [59133,"HCEP03730563","2025-09-04 09:00:00","10.8818","3.39148","24.256","2.071","7.42","2.072","27.445","1.6","20.38","30.0163","4.72591","22.66","0","SATNPRO1964","29.02","0.40648","5"],
    [59134,"HCEP03730563","2025-09-04 09:15:00","10.8867","3.39194","24.336","1.856","7.41","0.674","3.81","0.07","0.24","30.0167","4.7259","20.31","0","SATNPRO1964","28.662","0.40144","5"],
    [59135,"HCEP03730563","2025-09-04 09:30:00","10.8848","3.39187","24.423","1.807","7.41","0.648","3.854","0.05","0.15","30.0175","4.72605","19.78","0","SATNPRO1964","27.954","0.3915","5"],
    [59136,"HCEP03730563","2025-09-04 09:45:00","10.8851","3.39193","24.548","1.758","7.4","0.668","3.741","0.07","0.18","30.0178","4.7261","19.24","0","SATNPRO1964","29.028","0.40652","5"],
    [59137,"HCEP03730563","2025-09-04 10:00:00","10.8904","3.39233","24.682","1.772","7.4","0.668","3.599","0.13","0.2","30.0173","4.72595","19.39","0","SATNPRO1964","28.67","0.40156","5"],
    [59138,"HCEP03730563","2025-09-04 10:15:00","10.8979","3.39296","24.827","1.975","7.42","0.64","3.343","0.11","0.24","30.0173","4.72585","21.62","0","SATNPRO1964","30.604","0.42864","5"],
    [59139,"HCEP03730563","2025-09-04 10:30:00","10.8943","3.39266","24.977","1.991","7.41","0.607","3.213","0.07","0.14","30.0172","4.7259","21.79","0","SATNPRO1964","29.442","0.4124","5"],
    [59140,"HCEP03730563","2025-09-04 10:45:00","10.9017","3.39309","25.141","1.984","7.42","0.627","3.203","0.07","0.17","30.0154","4.72553","21.72","0","SATNPRO1964","28.566","0.40008","5"],
    [59141,"HCEP03730563","2025-09-04 11:00:00","10.8914","3.39226","25.305","1.965","7.41","0.619","3.651","0.06","0.11","30.0156","4.72573","21.5","0","SATNPRO1964","29.306","0.41046","5"],
    [59142,"HCEP03730563","2025-09-04 11:15:00","10.8923","3.39225","25.457","1.827","7.41","1.11","3.969","1.56","0.48","30.0147","4.7256","20","0","SATNPRO1964","28.43","0.39822","5"],
    [59143,"HCEP03730563","2025-09-04 11:30:00","10.8935","3.39232","25.633","1.823","7.41","0.693","3.602","0.06","0.2","30.0143","4.72553","19.96","0","SATNPRO1964","28.93","0.40522","5"],
    [59144,"HCEP03730563","2025-09-04 11:45:00","10.8946","3.39232","25.824","1.823","7.4","0.759","4.32","0.08","0.18","30.0134","4.72539","19.95","0","SATNPRO1964","28.166","0.39448","5"],
    [59145,"HCEP03730563","2025-09-04 12:00:00","10.8972","3.39244","26.024","1.823","7.4","0.796","4.269","0.19","0.2","30.0123","4.72521","19.95","0","SATNPRO1964","28.318","0.39662","5"],
    [59146,"HCEP03730563","2025-09-04 12:15:00","10.8977","3.39234","26.221","1.83","7.4","0.793","4.075","0.15","0.19","30.0109","4.72502","20.03","0","SATNPRO1964","28.102","0.3936","5"],
    [59147,"HCEP03730563","2025-09-04 12:30:00","10.8972","3.39194","26.425","1.861","7.41","0.616","4.024","0.07","0.28","30.0072","4.72451","20.37","0","SATNPRO1964","28.698","0.40198","5"],
    [59148,"HCEP03730563","2025-09-04 12:45:00","10.9075","3.39325","26.641","1.928","7.41","0.667","3.308","0.12","0.11","30.0116","4.72498","21.1","0","SATNPRO1964","28.934","0.40526","5"],
    [59149,"HCEP03730563","2025-09-04 13:00:00","10.9243","3.39521","26.783","2.08","7.43","0.533","2.673","0.07","0.16","30.0171","4.72551","22.78","0","SATNPRO1964","29.868","0.4183","5"],
    [59150,"HCEP03730563","2025-09-04 13:15:00","10.9206","3.39499","26.942","2.217","7.43","0.588","3.067","0.04","0.13","30.0179","4.72569","24.27","0","SATNPRO1964","28.866","0.40434","5"],
    [59151,"HCEP03730563","2025-09-04 13:30:00","10.935","3.39625","27.094","2.281","7.45","0.503","2.973","0.08","0.84","30.0184","4.72556","24.98","0","SATNPRO1964","31.802","0.44548","5"],
    [59152,"HCEP03730563","2025-09-04 13:45:00","10.928","3.39547","27.211","2.441","7.45","0.508","3.333","0.07","0.33","30.0165","4.72539","26.74","0","SATNPRO1964","31.45","0.44054","5"],
    [59153,"HCEP03730563","2025-09-04 14:00:00","10.9167","3.39431","27.327","2.354","7.45","0.56","3.334","0.16","0.23","30.0142","4.72525","25.77","0","SATNPRO1964","30.02","0.42046","5"],
    [59154,"HCEP03730563","2025-09-04 14:15:00","10.93","3.39558","27.413","2.302","7.45","0.52","2.287","0.08","0.42","30.0158","4.72527","25.21","0","SATNPRO1964","31.598","0.44256","5"],
    [59155,"HCEP03730563","2025-09-04 14:30:00","10.9164","3.39424","27.467","2.345","7.45","0.509","2.58","0.06","0.33","30.0137","4.72519","25.68","0","SATNPRO1964","30.938","0.43334","5"],
    [59156,"HCEP03730563","2025-09-04 14:45:00","10.8963","3.39259","27.519","2.157","7.43","0.631","3.419","0.16","0.15","30.0139","4.72554","23.61","0","SATNPRO1964","28.798","0.40338","5"],
    [59157,"HCEP03730563","2025-09-04 15:00:00","10.8905","3.39234","27.542","1.888","7.41","0.646","4.402","0.12","0.25","30.0163","4.72596","20.66","0","SATNPRO1964","28.664","0.40148","5"],
    [59158,"HCEP03730563","2025-09-04 15:15:00","10.8878","3.3922","27.573","1.742","7.4","0.658","4.728","0.06","0.21","30.017","4.72611","19.06","0","SATNPRO1964","27.518","0.38544","5"],
    [59159,"HCEP03730563","2025-09-04 15:30:00","10.8893","3.39251","27.571","1.68","7.4","0.601","4.557","0.06","0.21","30.0188","4.72634","18.39","0","SATNPRO1964","27.772","0.38898","5"],
    [59160,"HCEP03730563","2025-09-04 15:45:00","10.9036","3.39397","27.604","1.749","7.4","0.59","3.71","0.07","0.21","30.0215","4.72651","19.14","0","SATNPRO1964","29.442","0.41238","5"],
    [59161,"HCEP03730563","2025-09-04 16:00:00","10.93","3.3965","27.533","1.865","7.42","0.488","2.862","0.07","0.2","30.0248","4.72656","20.43","0","SATNPRO1964","30.236","0.42348","5"],
    [59162,"HCEP03730563","2025-09-04 16:15:00","10.9191","3.39542","27.553","2.181","7.43","0.521","2.766","0.06","0.22","30.023","4.72648","23.89","0","SATNPRO1964","31.386","0.43962","5"],
    [59163,"HCEP03730563","2025-09-04 16:30:00","10.9203","3.39482","27.536","2.306","7.44","0.701","2.178","0.81","0.19","30.0162","4.72549","25.25","0","SATNPRO1964","32.528","0.45558","5"],
    [59164,"HCEP03730563","2025-09-04 16:45:00","10.9076","3.39386","27.52","2.315","7.44","0.499","2.631","0.04","0.15","30.0172","4.72583","25.34","0","SATNPRO1964","31.17","0.4366","5"],
    [59165,"HCEP03730563","2025-09-04 17:00:00","10.9192","3.39457","27.467","2.341","7.45","0.487","1.841","0.08","0.13","30.0147","4.72529","25.63","0","SATNPRO1964","32.461999999999996","0.4547","5"],
    [59166,"HCEP03730563","2025-09-04 17:15:00","10.9086","3.39114","27.435","2.393","7.45","0.564","2.323","0.16","0.38","29.9898","4.72191","26.19","0","SATNPRO1964","32.696","0.45794","5"],
    [59167,"HCEP03730563","2025-09-04 17:30:00","10.8953","3.39145","27.371","2.342","7.45","0.638","2.151","0.46","0.42","30.0037","4.72409","25.63","0","SATNPRO1964","31.976","0.44784","5"],
    [59168,"HCEP03730563","2025-09-04 17:45:00","10.8899","3.39072","27.305","2.234","7.44","0.549","2.084","0.07","0.12","30.0009","4.72378","24.44","0","SATNPRO1964","31.842","0.44602","5"],
    [59169,"HCEP03730563","2025-09-04 18:00:00","10.8932","3.39066","27.243","2.247","7.45","0.465","1.742","0.05","0.1","29.9977","4.72327","24.59","0","SATNPRO1964","32.366","0.45332","5"],
    [59170,"HCEP03730563","2025-09-04 18:15:00","10.8859","3.38981","27.175","2.262","7.44","1.597","13.946","2.38","19.99","29.9954","4.72304","24.74","0","SATNPRO1964","32.362","0.45326","5"],
    [59171,"HCEP03730563","2025-09-04 18:30:00","10.8936","3.39039","27.096","2.31","7.45","0.537","1.798","0.16","0.19","29.9948","4.72283","25.28","0","SATNPRO1964","32.77","0.459","5"],
    [59172,"HCEP03730563","2025-09-04 18:45:00","10.8872","3.38984","27.008","2.298","7.45","0.992","2.238","1.45","0.25","29.9946","4.72291","25.15","0","SATNPRO1964","31.912","0.44696","5"],
    [59173,"HCEP03730563","2025-09-04 19:00:00","10.9049","3.39112","26.9","2.346","7.46","0.484","1.554","0.09","0.09","29.9928","4.72237","25.68","0","SATNPRO1964","32.384","0.45356","5"],
    [59174,"HCEP03730563","2025-09-04 19:15:00","10.926","3.39379","26.828","2.535","7.47","0.509","1.56","0.08","0.11","30.0018","4.72331","27.76","0","SATNPRO1964","32.546","0.4559","5"],
    [59175,"HCEP03730563","2025-09-04 19:30:00","10.9166","3.39269","26.732","2.673","7.48","0.495","1.386","0.1","0.09","29.9987","4.72301","29.27","0","SATNPRO1964","32.33","0.45284","5"],
    [59176,"HCEP03730563","2025-09-04 19:45:00","10.8385","3.38299","26.647","2.239","7.43","0.639","1.585","0.4","0.26","29.9673","4.71976","24.47","0","SATNPRO1964","27.332","0.38282","5"],
    [59177,"HCEP03730563","2025-09-04 20:00:00","10.9053","3.39209","26.553","1.926","7.44","0.609","3.09","0.08","0.21","30.0021","4.72366","21.09","0","SATNPRO1964","32.074","0.44926","5"],
    [59178,"HCEP03730563","2025-09-04 20:15:00","10.8897","3.39031","26.473","2.279","7.45","0.77","3.29","0.31","2.11","29.9974","4.72324","24.94","0","SATNPRO1964","30.538","0.42776","5"],
    [59179,"HCEP03730563","2025-09-04 20:30:00","10.8831","3.39097","26.42","2.146","7.43","0.805","3.917","0.11","0.17","30.0093","4.72502","23.49","0","SATNPRO1964","31.782","0.44518","5"],
    [59180,"HCEP03730563","2025-09-04 20:45:00","10.871","3.39074","26.388","1.764","7.4","0.96","4.86","0.14","0.32","30.0169","4.72629","19.3","0","SATNPRO1964","27.032","0.37864","5"],
    [59181,"HCEP03730563","2025-09-04 21:00:00","10.868","3.39053","26.37","1.492","7.38","0.847","4.834","0.1","0.26","30.0173","4.7264","16.32","0","SATNPRO1964","27.291999999999998","0.38228","5"],
    [59182,"HCEP03730563","2025-09-04 21:15:00","10.8638","3.39004","26.355","1.401","7.37","0.787","4.592","0.09","0.24","30.016","4.72626","15.32","0","SATNPRO1964","26.72","0.37426","5"],
    [59183,"HCEP03730563","2025-09-04 21:30:00","10.8602","3.38941","26.359","1.366","7.37","0.746","5.007","0.07","0.33","30.0127","4.72586","14.94","0","SATNPRO1964","27.698","0.38792","5"],
    [59184,"HCEP03730563","2025-09-04 21:45:00","10.8569","3.389","26.381","1.382","7.37","0.762","4.632","0.09","0.2","30.0114","4.72573","15.11","0","SATNPRO1964","27.376","0.38348","5"],
    [59185,"HCEP03730563","2025-09-04 22:00:00","10.8548","3.38868","26.418","1.366","7.36","0.813","4.757","0.18","0.2","30.01","4.72556","14.94","0","SATNPRO1964","27.454","0.38454","5"],
    [59186,"HCEP03730563","2025-09-04 22:15:00","10.8512","3.38812","26.433","1.34","7.36","0.701","4.466","0.07","0.23","30.0075","4.72526","14.65","0","SATNPRO1964","27.354","0.3831","5"],
    [59187,"HCEP03730563","2025-09-04 22:30:00","10.8452","3.3871","26.473","1.323","7.36","0.673","4.268","0.11","0.16","30.0023","4.72462","14.47","0","SATNPRO1964","27.676","0.38764","5"],
    [59188,"HCEP03730563","2025-09-04 22:45:00","10.8495","3.38796","26.519","1.295","7.35","0.886","4.739","0.31","0.17","30.0072","4.72526","14.16","0","SATNPRO1964","27.830000000000002","0.3898","5"],
    [59189,"HCEP03730563","2025-09-04 23:00:00","10.8293","3.38434","26.566","1.254","7.35","0.591","3.389","0.06","0.09","29.9882","4.72287","13.7","0","SATNPRO1964","27.812","0.38954","5"],
    [59190,"HCEP03730563","2025-09-04 23:15:00","10.8302","3.38471","26.613","1.242","7.35","0.588","3.404","0.05","0.13","29.9911","4.72327","13.57","0","SATNPRO1964","27.414","0.38396","5"],
    [59191,"HCEP03730563","2025-09-04 23:30:00","10.8308","3.3847","26.664","1.206","7.35","0.632","3.699","0.06","0.26","29.9904","4.72317","13.18","0","SATNPRO1964","27.066","0.3791","5"],
    [59192,"HCEP03730563","2025-09-04 23:45:00","10.829","3.38435","26.722","1.173","7.34","0.483","3.177","0.02","0.06","29.9884","4.72292","12.82","0","SATNPRO1964","27.092000000000002","0.37948","5"],
    [59193,"HCEP03730563","2025-09-05 00:00:00","10.8315","3.385","26.8","1.151","7.34","0.539","3.424","0.06","0.06","29.9928","4.7235","12.58","0","SATNPRO1964","26.766","0.37492","5"],
    [59194,"HCEP03730563","2025-09-05 00:15:00","10.8328","3.38538","26.859","1.133","7.34","0.682","4.099","0.08","0.32","29.9954","4.72386","12.38","0","SATNPRO1964","26.922","0.3771","5"],
    [59195,"HCEP03730563","2025-09-05 00:30:00","10.8286","3.38447","26.901","1.117","7.34","0.709","4.027","0.06","0.15","29.9899","4.72314","12.21","0","SATNPRO1964","26.79","0.37526","5"],
    [59196,"HCEP03730563","2025-09-05 00:45:00","10.8215","3.38343","26.962","1.103","7.34","0.841","3.794","0.19","0.08","29.9855","4.72263","12.05","0","SATNPRO1964","26.83","0.37582","5"],
    [59197,"HCEP03730563","2025-09-05 01:00:00","10.8217","3.38338","27.005","1.089","7.33","0.641","3.189","0.06","0.12","29.9848","4.72253","11.9","0","SATNPRO1964","26.792","0.37528","5"],
    [59198,"HCEP03730563","2025-09-05 01:15:00","10.8194","3.38292","27.059","1.081","7.33","0.848","3.385","0.6","0.16","29.9821","4.72219","11.81","0","SATNPRO1964","27.166","0.38056","5"],
    [59199,"HCEP03730563","2025-09-05 01:30:00","10.818","3.38251","27.1","1.086","7.33","0.554","3.007","0.05","0.11","29.9793","4.72181","11.86","0","SATNPRO1964","26.97","0.37774","5"],
    [59200,"HCEP03730563","2025-09-05 01:45:00","10.8173","3.3824","27.123","1.1","7.33","0.533","2.832","0.06","0.1","29.9788","4.72175","12.01","0","SATNPRO1964","27.138","0.38006","5"],
    [59201,"HCEP03730563","2025-09-05 02:00:00","10.8164","3.38203","27.13","1.118","7.34","0.503","2.638","0.04","0.09","29.9758","4.72134","12.21","0","SATNPRO1964","27.408","0.38386","5"],
    [59202,"HCEP03730563","2025-09-05 02:15:00","10.8159","3.38188","27.115","1.145","7.34","0.543","2.56","0.05","0.13","29.9747","4.72119","12.51","0","SATNPRO1964","27.648","0.38728","5"],
    [59203,"HCEP03730563","2025-09-05 02:30:00","10.8195","3.38273","27.096","1.148","7.34","1.279","3.559","1.56","1.49","29.9802","4.72192","12.54","0","SATNPRO1964","27.006","0.37824","5"],
    [59204,"HCEP03730563","2025-09-05 02:45:00","10.8264","3.38417","27.092","1.12","7.34","0.833","3.391","0.52","0.29","29.9886","4.72301","12.24","0","SATNPRO1964","26.79","0.37526","5"],
    [59205,"HCEP03730563","2025-09-05 03:00:00","10.8169","3.38196","27.036","1.134","7.34","0.505","2.326","0.1","0.11","29.9747","4.72118","12.39","0","SATNPRO1964","27.782","0.38916","5"],
    [59206,"HCEP03730563","2025-09-05 03:15:00","10.8171","3.38195","26.993","1.182","7.34","0.6","2.31","0.1","0.12","29.9745","4.72114","12.92","0","SATNPRO1964","28.028","0.39262","5"],
    [59207,"HCEP03730563","2025-09-05 03:30:00","10.8177","3.3823","26.918","1.191","7.34","0.559","2.598","0.1","0.09","29.9775","4.72154","13.01","0","SATNPRO1964","27.567999999999998","0.38618","5"],
    [59208,"HCEP03730563","2025-09-05 03:45:00","10.8192","3.38241","26.832","1.167","7.34","0.548","2.604","0.06","0.17","29.9774","4.7215","12.75","0","SATNPRO1964","27.33","0.3828","5"],
    [59209,"HCEP03730563","2025-09-05 04:00:00","10.8317","3.38456","26.732","1.146","7.34","0.545","3.021","0.08","0.12","29.9883","4.72285","12.52","0","SATNPRO1964","27.254","0.38178","5"],
    [59210,"HCEP03730563","2025-09-05 04:15:00","10.8203","3.38275","26.613","1.134","7.34","0.571","2.527","0.06","0.06","29.9799","4.72184","12.39","0","SATNPRO1964","27.477999999999998","0.38486","5"],
    [59211,"HCEP03730563","2025-09-05 04:30:00","10.8246","3.3835","26.473","1.135","7.34","0.623","3.075","0.13","0.2","29.9838","4.72232","12.4","0","SATNPRO1964","27.378","0.38348","5"],
    [59212,"HCEP03730563","2025-09-05 04:45:00","10.838","3.38615","26.328","1.137","7.34","0.742","3.175","0.45","0.18","29.999","4.72425","12.43","0","SATNPRO1964","26.926","0.37714","5"],
    [59213,"HCEP03730563","2025-09-05 05:00:00","10.8466","3.38741","26.191","1.163","7.34","0.972","3.769","0.64","0.22","30.0043","4.72487","12.71","0","SATNPRO1964","26.866","0.37628","5"],
    [59214,"HCEP03730563","2025-09-05 05:15:00","10.8515","3.38791","26.025","1.22","7.35","0.867","3.375","0.57","0.28","30.0054","4.72493","13.34","0","SATNPRO1964","27.334","0.38286","5"],
    [59215,"HCEP03730563","2025-09-05 05:30:00","10.8471","3.38705","25.862","1.293","7.35","0.613","2.677","0.1","0.29","30.0005","4.7243","14.14","0","SATNPRO1964","27.91","0.39092","5"],
    [59216,"HCEP03730563","2025-09-05 05:45:00","10.8297","3.38417","25.666","1.315","7.35","0.608","2.231","0.06","0.14","29.9866","4.72258","14.37","0","SATNPRO1964","27.854","0.39016","5"],
    [59217,"HCEP03730563","2025-09-05 06:00:00","10.8173","3.3822","25.493","1.237","7.34","0.582","2.343","0.05","0.13","29.9774","4.72147","13.51","0","SATNPRO1964","27.546","0.38584","5"],
    [59218,"HCEP03730563","2025-09-05 06:15:00","10.8155","3.3818","25.304","1.16","7.34","0.634","2.344","0.11","0.12","29.975","4.72114","12.67","0","SATNPRO1964","27.776","0.38902","5"],
    [59219,"HCEP03730563","2025-09-05 06:30:00","10.8165","3.38205","25.122","1.141","7.34","0.562","2.402","0.07","0.1","29.9768","4.72137","12.46","0","SATNPRO1964","27.786","0.38924","5"],
    [59220,"HCEP03730563","2025-09-05 06:45:00","10.8262","3.38367","24.929","1.169","7.34","0.667","2.799","0.14","0.35","29.9848","4.72235","12.77","0","SATNPRO1964","27.994","0.39212","5"],
    [59221,"HCEP03730563","2025-09-05 07:00:00","10.8259","3.38381","24.749","1.19","7.34","0.69","3.313","0.12","0.17","29.9865","4.72258","13","0","SATNPRO1964","27.974","0.39182","5"],
    [59222,"HCEP03730563","2025-09-05 07:15:00","10.8315","3.3843","24.583","1.183","7.34","0.663","3.895","0.06","0.23","29.9868","4.72253","12.93","0","SATNPRO1964","26.572","0.3722","5"],
    [59223,"HCEP03730563","2025-09-05 07:30:00","10.8509","3.38713","24.425","1.172","7.34","0.826","4.551","0.16","0.2","29.9987","4.72391","12.81","0","SATNPRO1964","25.99","0.36404","5"],
    [59224,"HCEP03730563","2025-09-05 07:45:00","10.8602","3.3895","24.295","1.16","7.34","0.834","4.277","0.21","0.34","30.0144","4.72599","12.69","0","SATNPRO1964","26.176000000000002","0.36666","5"],
    [59225,"HCEP03730563","2025-09-05 08:00:00","10.8575","3.38872","24.188","1.207","7.35","0.636","3.63","0.15","0.18","30.009","4.72525","13.19","0","SATNPRO1964","27.924","0.3911","5"],
    [59226,"HCEP03730563","2025-09-05 08:15:00","10.8416","3.3859","24.103","1.304","7.35","1.051","2.333","1.49","1.15","29.9944","4.72342","14.26","0","SATNPRO1964","28.304000000000002","0.39642","5"],
    [59227,"HCEP03730563","2025-09-05 08:30:00","10.8422","3.38603","24.048","1.348","7.35","0.523","2.054","0.05","0.13","29.9952","4.72352","14.74","0","SATNPRO1964","28.412","0.39796","5"],
    [59228,"HCEP03730563","2025-09-05 08:45:00","10.8326","3.38459","24.047","1.357","7.35","0.621","2.329","0.09","0.08","29.9889","4.72278","14.83","0","SATNPRO1964","28.4","0.39778","5"],
    [59229,"HCEP03730563","2025-09-05 09:00:00","10.8296","3.38394","24.07","1.332","7.35","0.591","2.396","0.06","0.12","29.985","4.72228","14.55","0","SATNPRO1964","28.458","0.39858","5"],
    [59230,"HCEP03730563","2025-09-05 09:15:00","10.8282","3.38356","24.089","1.317","7.35","0.707","2.352","0.44","0.11","29.9823","4.72191","14.4","0","SATNPRO1964","28.636","0.40114","5"],
    [59231,"HCEP03730563","2025-09-05 09:30:00","10.8355","3.38496","24.126","1.338","7.36","0.583","2.443","0.07","0.16","29.9902","4.72292","14.62","0","SATNPRO1964","28.746","0.40264","5"],
    [59232,"HCEP03730563","2025-09-05 09:45:00","10.8369","3.3848","24.184","1.373","7.36","0.778","3.515","0.09","0.11","29.9874","4.72251","15.01","0","SATNPRO1964","29.006","0.4063","5"],
    [59233,"HCEP03730563","2025-09-05 10:00:00","10.841","3.38583","24.261","1.407","7.36","0.721","3.141","0.12","0.22","29.9942","4.7234","15.38","0","SATNPRO1964","29.52","0.41348","5"],
    [59234,"HCEP03730563","2025-09-05 10:15:00","10.8373","3.38455","24.346","1.428","7.36","0.667","2.816","0.15","0.16","29.9846","4.7221","15.6","0","SATNPRO1964","28.304","0.39646","5"],
    [59235,"HCEP03730563","2025-09-05 10:30:00","10.8359","3.38406","24.485","1.472","7.37","0.534","2.167","0.06","0.09","29.9809","4.7216","16.08","0","SATNPRO1964","30.584","0.42838","5"],
    [59236,"HCEP03730563","2025-09-05 10:45:00","10.8527","3.38727","24.615","1.479","7.37","0.7","4.56","0.09","0.21","29.9986","4.72387","16.18","0","SATNPRO1964","28.528000000000002","0.39954","5"],
    [59237,"HCEP03730563","2025-09-05 11:00:00","10.8734","3.39067","24.832","1.43","7.36","0.769","4.367","0.15","0.57","30.015","4.72589","15.64","0","SATNPRO1964","27.35","0.3831","5"],
    [59238,"HCEP03730563","2025-09-05 11:15:00","10.8786","3.39111","24.984","1.388","7.36","0.963","4.798","0.23","0.33","30.0149","4.72581","15.19","0","SATNPRO1964","27.482","0.38494","5"],
    [59239,"HCEP03730563","2025-09-05 11:30:00","10.8795","3.3903","25.159","1.487","7.37","0.787","3.228","0.32","0.21","30.0062","4.72457","16.27","0","SATNPRO1964","29.078","0.40728","5"],
    [59240,"HCEP03730563","2025-09-05 11:45:00","10.8854","3.39104","25.323","1.642","7.38","0.846","3.382","0.31","0.21","30.0086","4.72482","17.96","0","SATNPRO1964","29.036","0.4067","5"],
    [59241,"HCEP03730563","2025-09-05 12:00:00","10.8926","3.37715","25.531","1.717","7.38","0.823","3.987","0.18","0.19","29.8664","4.70452","18.77","0","SATNPRO1964","28.144","0.39422","5"],
    [59242,"HCEP03730563","2025-09-05 12:15:00","10.898","3.39227","25.757","1.725","7.39","0.81","4.04","0.1","0.31","30.0101","4.72487","18.88","0","SATNPRO1964","28.451999999999998","0.39852","5"],
    [59243,"HCEP03730563","2025-09-05 12:30:00","10.8932","3.39215","25.969","1.691","7.38","0.751","3.828","0.13","0.25","30.0128","4.72535","18.51","0","SATNPRO1964","27.843999999999998","0.39","5"],
    [59244,"HCEP03730563","2025-09-05 12:45:00","10.8926","3.39119","26.144","1.671","7.39","0.646","3.238","0.09","0.13","30.0038","4.72408","18.29","0","SATNPRO1964","28.372","0.39738","5"],
    [59245,"HCEP03730563","2025-09-05 13:00:00","10.8578","3.38683","26.382","1.556","7.37","0.581","3.371","0.09","0.22","29.9894","4.72259","17.01","0","SATNPRO1964","27.477999999999998","0.38486","5"],
    [59246,"HCEP03730563","2025-09-05 13:15:00","10.8491","3.38636","26.543","1.297","7.36","0.616","3.877","0.06","0.14","29.9918","4.72308","14.18","0","SATNPRO1964","25.686","0.35978","5"],
    [59247,"HCEP03730563","2025-09-05 13:30:00","10.8482","3.38603","26.791","1.162","7.35","0.668","4.06","0.13","0.2","29.9892","4.72273","12.7","0","SATNPRO1964","26.384","0.36952","5"],
    [59248,"HCEP03730563","2025-09-05 13:45:00","10.8431","3.3837","26.945","1.214","7.35","0.643","3.787","0.06","0.15","29.9704","4.72015","13.26","0","SATNPRO1964","27.346","0.38298","5"],
    [59249,"HCEP03730563","2025-09-05 14:00:00","10.8684","3.3851","27.048","1.501","7.37","0.575","3.256","0.1","0.36","29.9635","4.71877","16.42","0","SATNPRO1964","29.816","0.4176","5"],
    [59250,"HCEP03730563","2025-09-05 14:15:00","10.854","3.38627","27.21","1.533","7.36","0.71","3.964","0.1","0.21","29.9867","4.7223","16.76","0","SATNPRO1964","27.242","0.38156","5"],
    [59251,"HCEP03730563","2025-09-05 14:30:00","10.865","3.38835","27.363","1.362","7.36","0.728","4.295","0.19","0.29","29.9981","4.72376","14.9","0","SATNPRO1964","27.04","0.3787","5"],
    [59252,"HCEP03730563","2025-09-05 14:45:00","10.8653","3.38839","27.456","1.305","7.35","0.784","3.909","0.26","0.29","29.9981","4.72377","14.27","0","SATNPRO1964","27.188","0.38082","5"],
    [59253,"HCEP03730563","2025-09-05 15:00:00","10.8821","3.39038","27.523","1.353","7.36","0.749","3.913","0.12","0.36","30.0039","4.72433","14.81","0","SATNPRO1964","27.634","0.38706","5"],
    [59254,"HCEP03730563","2025-09-05 15:15:00","10.8711","3.38903","27.586","1.414","7.36","0.675","4.376","0.08","0.31","29.9997","4.72391","15.47","0","SATNPRO1964","27.561999999999998","0.3861","5"],
    [59255,"HCEP03730563","2025-09-05 15:30:00","10.8679","3.38841","27.616","1.374","7.36","0.641","3.935","0.05","0.26","29.9961","4.72346","15.03","0","SATNPRO1964","27.178","0.3807","5"],
    [59256,"HCEP03730563","2025-09-05 15:45:00","10.8652","3.38796","27.634","1.319","7.36","0.692","4.005","0.07","0.19","29.994","4.7232","14.43","0","SATNPRO1964","27.148","0.38024","5"],
    [59257,"HCEP03730563","2025-09-05 16:00:00","10.8567","3.38691","27.632","1.287","7.35","0.587","3.212","0.06","0.14","29.9905","4.72283","14.08","0","SATNPRO1964","26.852","0.3761","5"],
    [59258,"HCEP03730563","2025-09-05 16:15:00","10.8539","3.38615","27.617","1.243","7.35","0.83","5.74","0.13","1.31","29.9855","4.72216","13.59","0","SATNPRO1964","27.122","0.37986","5"],
    [59259,"HCEP03730563","2025-09-05 16:30:00","10.8453","3.38513","27.626","1.165","7.34","0.624","3.829","0.08","0.31","29.9824","4.72185","12.73","0","SATNPRO1964","25.566","0.3581","5"],
    [59260,"HCEP03730563","2025-09-05 16:45:00","10.8452","3.3852","27.605","1.035","7.33","0.661","4.097","0.06","0.48","29.9832","4.72197","11.31","0","SATNPRO1964","25.128","0.35194","5"],
    [59261,"HCEP03730563","2025-09-05 17:00:00","10.8473","3.38559","27.572","0.953","7.32","0.694","4.714","0.09","0.33","29.9854","4.72224","10.41","0","SATNPRO1964","24.782","0.34712","5"],
    [59262,"HCEP03730563","2025-09-05 17:15:00","10.8456","3.38534","27.539","0.939","7.32","0.724","3.639","0.21","0.16","29.9843","4.72211","10.26","0","SATNPRO1964","25.046","0.35086","5"],
    [59263,"HCEP03730563","2025-09-05 17:30:00","10.852","3.38652","27.471","0.977","7.32","0.705","3.719","0.14","0.15","29.9907","4.72293","10.68","0","SATNPRO1964","25.444","0.35634","5"],
    [59264,"HCEP03730563","2025-09-05 17:45:00","10.8608","3.38756","27.408","1.071","7.33","0.701","3.477","0.18","0.23","29.9937","4.72321","11.71","0","SATNPRO1964","27.034","0.3787","5"],
    [59265,"HCEP03730563","2025-09-05 18:00:00","10.8635","3.38763","27.36","1.215","7.34","0.635","3.089","0.1","0.13","29.9922","4.72295","13.29","0","SATNPRO1964","26.65","0.37326","5"],
    [59266,"HCEP03730563","2025-09-05 18:15:00","10.8676","3.38816","27.27","1.3","7.35","0.67","3.134","0.11","0.12","29.994","4.72314","14.22","0","SATNPRO1964","27.148","0.38022","5"],
    [59267,"HCEP03730563","2025-09-05 18:30:00","10.8715","3.38869","27.179","1.351","7.35","0.648","3.378","0.12","0.16","29.9961","4.72337","14.78","0","SATNPRO1964","27.148","0.38028","5"],
    [59268,"HCEP03730563","2025-09-05 18:45:00","10.8614","3.38765","27.085","1.339","7.35","0.786","3.475","0.26","0.2","29.9942","4.72325","14.64","0","SATNPRO1964","26.052","0.3649","5"],
    [59269,"HCEP03730563","2025-09-05 19:00:00","10.8625","3.38779","26.991","1.22","7.34","0.631","3.445","0.08","0.19","29.9946","4.72329","13.34","0","SATNPRO1964","26.646","0.37326","5"],
    [59270,"HCEP03730563","2025-09-05 19:15:00","10.8871","3.39036","26.926","1.322","7.36","0.75","3.288","0.29","0.26","29.9999","4.72366","14.47","0","SATNPRO1964","28.502","0.3992","5"],
    [59271,"HCEP03730563","2025-09-05 19:30:00","10.8872","3.39065","26.807","1.513","7.37","0.661","3.151","0.06","0.11","30.0026","4.72404","16.56","0","SATNPRO1964","28.728","0.40238","5"],
    [59272,"HCEP03730563","2025-09-05 19:45:00","10.8839","3.39018","26.695","1.563","7.37","0.767","3.329","0.12","0.13","30.0008","4.72382","17.1","0","SATNPRO1964","28.64","0.40112","5"],
    [59273,"HCEP03730563","2025-09-05 20:00:00","10.902","3.39225","26.582","1.609","7.38","0.791","2.984","0.15","0.14","30.0063","4.72432","17.61","0","SATNPRO1964","29.378","0.4115","5"],
    [59274,"HCEP03730563","2025-09-05 20:15:00","10.896","3.39163","26.482","1.718","7.38","0.804","3.136","0.13","0.32","30.0052","4.72424","18.81","0","SATNPRO1964","28.552","0.39988","5"],
    [59275,"HCEP03730563","2025-09-05 20:30:00","10.9003","3.39217","26.403","1.704","7.38","0.718","2.899","0.11","0.11","30.007","4.72443","18.65","0","SATNPRO1964","28.526","0.39958","5"],
    [59276,"HCEP03730563","2025-09-05 20:45:00","10.8951","3.39182","26.314","1.662","7.38","0.742","3.502","0.09","0.17","30.0078","4.72462","18.18","0","SATNPRO1964","28.456","0.39856","5"],
    [59277,"HCEP03730563","2025-09-05 21:00:00","10.8938","3.39156","26.251","1.592","7.38","0.947","3.89","0.53","0.25","30.0064","4.72443","17.42","0","SATNPRO1964","27.996","0.39212","5"],
    [59278,"HCEP03730563","2025-09-05 21:15:00","10.8906","3.39138","26.181","1.521","7.37","0.777","4.02","0.11","0.36","30.0073","4.72461","16.65","0","SATNPRO1964","27.484","0.38496","5"],
    [59279,"HCEP03730563","2025-09-05 21:30:00","10.8943","3.39181","26.128","1.508","7.37","0.768","3.812","0.13","0.28","30.0085","4.72472","16.51","0","SATNPRO1964","27.864","0.39026","5"],
    [59280,"HCEP03730563","2025-09-05 21:45:00","10.8875","3.39101","26.118","1.514","7.37","0.78","3.98","0.12","0.24","30.0063","4.72451","16.56","0","SATNPRO1964","27.808","0.38952","5"],
    [59281,"HCEP03730563","2025-09-05 22:00:00","10.8935","3.39163","26.118","1.503","7.37","0.865","3.682","0.24","0.4","30.0073","4.72456","16.45","0","SATNPRO1964","28.798000000000002","0.40338","5"],
    [59282,"HCEP03730563","2025-09-05 22:15:00","10.9007","3.39242","26.135","1.614","7.38","0.75","3.29","0.1","0.19","30.0092","4.72473","17.66","0","SATNPRO1964","29.6","0.41456","5"],
    [59283,"HCEP03730563","2025-09-05 22:30:00","10.9022","3.39249","26.181","1.709","7.39","1.025","3.184","0.98","0.14","30.0087","4.72462","18.7","0","SATNPRO1964","28.504","0.39922","5"],
    [59284,"HCEP03730563","2025-09-05 22:45:00","10.897","3.39203","26.239","1.709","7.39","1.513","3.304","3","0.47","30.0084","4.72467","18.7","0","SATNPRO1964","28.482","0.39894","5"],
    [59285,"HCEP03730563","2025-09-05 23:00:00","10.8914","3.39153","26.293","1.618","7.38","0.969","3.686","0.43","0.14","30.0081","4.72472","17.7","0","SATNPRO1964","27.624","0.38692","5"],
    [59286,"HCEP03730563","2025-09-05 23:15:00","10.9071","3.39393","26.372","1.564","7.38","0.963","4.007","0.3","0.21","30.0187","4.72598","17.12","0","SATNPRO1964","28.098","0.39352","5"],
    [59287,"HCEP03730563","2025-09-05 23:30:00","10.9245","3.39627","26.482","1.651","7.39","0.858","3.875","0.14","0.58","30.0274","4.72696","18.08","0","SATNPRO1964","28.138","0.3941","5"],
    [59288,"HCEP03730563","2025-09-05 23:45:00","10.936","3.39789","26.562","1.757","7.39","0.868","3.871","0.19","0.15","30.0338","4.7277","19.25","0","SATNPRO1964","28.554000000000002","0.39994","5"],
    [59289,"HCEP03730563","2025-09-06 00:00:00","10.9393","3.3985","26.639","1.807","7.4","0.919","4.605","0.27","0.29","30.037","4.72811","19.8","0","SATNPRO1964","28.282","0.39612","5"],
    [59290,"HCEP03730563","2025-09-06 00:15:00","10.9415","3.39889","26.73","1.822","7.4","0.786","5.399","0.14","0.29","30.039","4.72835","19.97","0","SATNPRO1964","28.254","0.39576","5"],
    [59291,"HCEP03730563","2025-09-06 00:30:00","10.9396","3.39864","26.79","1.858","7.4","0.866","4.699","0.41","0.25","30.0381","4.72826","20.35","0","SATNPRO1964","28.562","0.4001","5"],
    [59292,"HCEP03730563","2025-09-06 00:45:00","10.9425","3.39911","26.853","1.879","7.4","0.912","4.677","0.51","0.17","30.0403","4.72853","20.59","0","SATNPRO1964","28.826","0.40372","5"],
    [59293,"HCEP03730563","2025-09-06 01:00:00","10.9466","3.39964","26.956","1.902","7.41","0.712","4.468","0.08","0.23","30.0421","4.72874","20.85","0","SATNPRO1964","28.472","0.39878","5"],
    [59294,"HCEP03730563","2025-09-06 01:15:00","10.9547","3.40061","27.05","1.958","7.41","0.884","4.202","0.16","0.51","30.0449","4.72901","21.46","0","SATNPRO1964","29.362","0.41126","5"],
    [59295,"HCEP03730563","2025-09-06 01:30:00","10.9708","3.40236","27.116","2.083","7.43","0.807","3.335","0.27","0.2","30.049","4.72934","22.84","0","SATNPRO1964","29.714","0.41614","5"],
    [59296,"HCEP03730563","2025-09-06 01:45:00","10.991","3.40468","27.189","2.296","7.44","4.311","809.032","1.04","178.53","30.0551","4.72992","25.19","0","SATNPRO1964","30.568","0.42816","5"],
    [59297,"HCEP03730563","2025-09-06 02:00:00","10.9994","3.40524","27.259","2.545","7.46","1.006","13.985","0.57","9.74","30.0537","4.72959","27.92","0","SATNPRO1964","31.616","0.4428","5"],
    [59298,"HCEP03730563","2025-09-06 02:15:00","11.0014","3.40458","27.31","2.654","7.48","0.535","1.789","0.1","0.16","30.0455","4.7284","29.12","0","SATNPRO1964","31.906","0.44688","5"],
    [59299,"HCEP03730563","2025-09-06 02:30:00","10.9953","3.40458","27.374","2.734","7.48","0.768","2.541","0.28","0.26","30.0505","4.7292","30","0","SATNPRO1964","31.368","0.43938","5"],
    [59300,"HCEP03730563","2025-09-06 02:45:00","10.9879","3.40401","27.397","2.599","7.47","0.758","2.804","0.16","0.13","30.051","4.72939","28.51","0","SATNPRO1964","30.51","0.42734","5"],
    [59301,"HCEP03730563","2025-09-06 03:00:00","10.9814","3.40335","27.422","2.478","7.46","0.866","3.421","0.22","0.18","30.0498","4.72931","27.17","0","SATNPRO1964","30.168","0.42254","5"],
    [59302,"HCEP03730563","2025-09-06 03:15:00","10.9775","3.40289","27.394","2.393","7.46","0.775","3.198","0.09","0.17","30.0486","4.7292","26.24","0","SATNPRO1964","29.96","0.41964","5"],
    [59303,"HCEP03730563","2025-09-06 03:30:00","10.9765","3.40266","27.347","2.358","7.46","0.86","2.949","0.31","0.15","30.0471","4.729","25.86","0","SATNPRO1964","29.916","0.41902","5"],
    [59304,"HCEP03730563","2025-09-06 03:45:00","10.9724","3.40217","27.296","2.332","7.45","0.892","3.216","0.28","0.33","30.0457","4.72887","25.57","0","SATNPRO1964","29.846","0.41806","5"],
    [59305,"HCEP03730563","2025-09-06 04:00:00","10.9698","3.40187","27.25","2.277","7.45","1.054","4.046","0.27","0.48","30.0449","4.72879","24.96","0","SATNPRO1964","29.662","0.41544","5"],
    [59306,"HCEP03730563","2025-09-06 04:15:00","10.97","3.40181","27.19","2.253","7.45","0.907","3.57","0.19","0.38","30.0442","4.72868","24.71","0","SATNPRO1964","29.902","0.41882","5"],
    [59307,"HCEP03730563","2025-09-06 04:30:00","10.9692","3.40165","27.076","2.253","7.45","0.857","3.294","0.19","0.18","30.0433","4.72856","24.7","0","SATNPRO1964","29.846","0.41804","5"],
    [59308,"HCEP03730563","2025-09-06 04:45:00","10.9694","3.40156","26.964","2.265","7.45","0.777","2.884","0.12","0.15","30.0423","4.72841","24.83","0","SATNPRO1964","30.088","0.42142","5"],
    [59309,"HCEP03730563","2025-09-06 05:00:00","10.9687","3.40143","26.832","2.281","7.45","0.707","3.045","0.17","0.29","30.0416","4.72832","25.01","0","SATNPRO1964","30.038","0.42076","5"],
    [59310,"HCEP03730563","2025-09-06 05:15:00","10.972","3.40174","26.697","2.31","7.45","0.674","2.5","0.12","0.08","30.0421","4.72832","25.32","0","SATNPRO1964","30.218","0.42326","5"],
    [59311,"HCEP03730563","2025-09-06 05:30:00","10.9712","3.40162","26.527","2.335","7.45","0.68","2.696","0.08","0.12","30.0416","4.72825","25.61","0","SATNPRO1964","30.186","0.4228","5"],
    [59312,"HCEP03730563","2025-09-06 05:45:00","10.9735","3.40177","26.335","2.35","7.45","0.623","2.279","0.06","0.07","30.0413","4.72816","25.76","0","SATNPRO1964","30.44","0.42638","5"],
    [59313,"HCEP03730563","2025-09-06 06:00:00","10.9719","3.40156","26.167","2.362","7.45","0.561","2.348","0.07","0.11","30.0406","4.72809","25.9","0","SATNPRO1964","30.37","0.42544","5"],
    [59314,"HCEP03730563","2025-09-06 06:15:00","10.9776","3.40206","25.967","2.4","7.46","0.72","2.089","0.5","0.12","30.0408","4.72802","26.32","0","SATNPRO1964","30.66","0.42944","5"],
    [59315,"HCEP03730563","2025-09-06 06:30:00","10.975","3.40167","25.755","2.448","7.46","0.601","2.017","0.14","0.1","30.0393","4.72782","26.84","0","SATNPRO1964","30.822","0.43176","5"],
    [59316,"HCEP03730563","2025-09-06 06:45:00","10.9651","3.40073","25.548","2.39","7.46","0.709","2.809","0.26","0.21","30.0382","4.72781","26.2","0","SATNPRO1964","30.116","0.42184","5"],
    [59317,"HCEP03730563","2025-09-06 07:00:00","10.9754","3.40186","25.349","2.373","7.46","0.662","10.184","0.15","15.43","30.0409","4.72803","26.02","0","SATNPRO1964","30.752","0.43072","5"],
    [59318,"HCEP03730563","2025-09-06 07:15:00","10.9786","3.40211","25.147","2.446","7.46","0.686","2.054","0.34","0.16","30.0409","4.72797","26.83","0","SATNPRO1964","30.908","0.43288","5"],
    [59319,"HCEP03730563","2025-09-06 07:30:00","10.9781","3.40205","24.946","2.49","7.47","0.597","3.219","0.27","0.39","30.0408","4.72794","27.3","0","SATNPRO1964","30.898","0.43276","5"],
    [59320,"HCEP03730563","2025-09-06 07:45:00","10.9908","3.40333","24.749","2.562","7.48","0.515","1.539","0.17","0.12","30.043","4.72805","28.11","0","SATNPRO1964","31.566","0.44212","5"],
    [59321,"HCEP03730563","2025-09-06 08:00:00","10.9761","3.40219","24.554","2.599","7.47","0.555","2.169","0.1","0.24","30.044","4.7284","28.5","0","SATNPRO1964","30.605999999999998","0.42872","5"],
    [59322,"HCEP03730563","2025-09-06 08:15:00","10.9746","3.40226","24.385","2.389","7.46","0.82","2.905","0.35","0.18","30.0459","4.7287","26.19","0","SATNPRO1964","30.444","0.42642","5"],
    [59323,"HCEP03730563","2025-09-06 08:30:00","10.9858","3.40376","24.217","2.362","7.46","0.678","2.475","0.21","0.13","30.0515","4.7293","25.91","0","SATNPRO1964","30.57","0.42818","5"],
    [59324,"HCEP03730563","2025-09-06 08:45:00","10.9849","3.40385","24.093","2.402","7.46","1.008","5.273","0.4","3.84","30.0532","4.72955","26.34","0","SATNPRO1964","30.27","0.42398","5"],
    [59325,"HCEP03730563","2025-09-06 09:00:00","10.9807","3.4032","24.03","2.369","7.45","0.803","3.407","0.21","0.27","30.0503","4.7292","25.98","0","SATNPRO1964","29.866","0.4183","5"],
    [59326,"HCEP03730563","2025-09-06 09:15:00","10.9798","3.40306","23.975","2.29","7.45","0.762","3.535","0.13","0.2","30.0497","4.72913","25.11","0","SATNPRO1964","29.66","0.41542","5"],
    [59327,"HCEP03730563","2025-09-06 09:30:00","10.9946","3.405","23.95","2.305","7.46","0.648","3.153","0.07","0.25","30.0566","4.72988","25.29","0","SATNPRO1964","29.89","0.41866","5"],
    [59328,"HCEP03730563","2025-09-06 09:45:00","10.9908","3.40462","23.974","2.394","7.46","0.69","2.861","0.2","0.19","30.0559","4.72984","26.26","0","SATNPRO1964","30.052","0.4209","5"],
    [59329,"HCEP03730563","2025-09-06 10:00:00","10.9959","3.40507","24.038","2.42","7.46","0.579","2.476","0.09","0.13","30.0562","4.7298","26.55","0","SATNPRO1964","30.977999999999998","0.43392","5"],
    [59330,"HCEP03730563","2025-09-06 10:15:00","10.9972","3.40536","24.106","2.446","7.46","0.634","2.498","0.16","0.13","30.0579","4.73004","26.84","0","SATNPRO1964","30.194","0.42292","5"],
    [59331,"HCEP03730563","2025-09-06 10:30:00","10.9898","3.40434","24.193","2.431","7.46","0.677","3.156","0.16","0.2","30.0539","4.72959","26.67","0","SATNPRO1964","29.916","0.419","5"],
    [59332,"HCEP03730563","2025-09-06 10:45:00","10.9996","3.4054","24.287","2.399","7.47","0.596","2.47","0.15","0.16","30.0563","4.72978","26.32","0","SATNPRO1964","30.866","0.43236","5"],
    [59333,"HCEP03730563","2025-09-06 11:00:00","11.0179","3.40725","24.408","2.626","7.48","0.427","1.55","0.05","0.07","30.0593","4.72994","28.82","0","SATNPRO1964","32.162","0.45052","5"],
    [59334,"HCEP03730563","2025-09-06 11:15:00","10.9809","3.40282","24.533","2.668","7.47","0.769","2.222","0.36","0.17","30.0462","4.72865","29.26","0","SATNPRO1964","30.534","0.42768","5"],
    [59335,"HCEP03730563","2025-09-06 11:30:00","10.9865","3.40366","24.733","2.406","7.46","0.764","4.618","0.18","1.71","30.0497","4.72908","26.39","0","SATNPRO1964","30.478","0.42686","5"],
    [59336,"HCEP03730563","2025-09-06 11:45:00","10.9872","3.40415","24.92","2.387","7.46","0.696","2.839","0.19","0.16","30.0539","4.72967","26.19","0","SATNPRO1964","29.974","0.41982","5"],
    [59337,"HCEP03730563","2025-09-06 12:00:00","10.9853","3.40408","25.099","2.316","7.45","0.747","3.492","0.21","0.74","30.0546","4.72981","25.4","0","SATNPRO1964","29.668","0.41552","5"],
    [59338,"HCEP03730563","2025-09-06 12:15:00","10.985","3.40414","25.296","2.264","7.45","0.83","3.727","0.15","0.22","30.0555","4.72994","24.83","0","SATNPRO1964","29.658","0.4154","5"],
    [59339,"HCEP03730563","2025-09-06 12:30:00","10.9835","3.404","25.49","2.229","7.45","0.731","3.786","0.09","0.28","30.0553","4.72995","24.45","0","SATNPRO1964","29.582","0.41432","5"],
    [59340,"HCEP03730563","2025-09-06 12:45:00","10.9811","3.40362","25.706","2.199","7.44","0.828","3.681","0.35","0.25","30.0534","4.72974","24.11","0","SATNPRO1964","29.195999999999998","0.40894","5"],
    [59341,"HCEP03730563","2025-09-06 13:00:00","10.9766","3.403","25.913","2.15","7.44","0.763","3.705","0.12","0.5","30.0509","4.72947","23.57","0","SATNPRO1964","29.3","0.4104","5"],
    [59342,"HCEP03730563","2025-09-06 13:15:00","10.9718","3.40237","26.123","2.09","7.43","0.82","3.627","0.11","0.21","30.0486","4.72921","22.91","0","SATNPRO1964","28.848","0.40406","5"],
    [59343,"HCEP03730563","2025-09-06 13:30:00","10.962","3.40081","26.401","2.026","7.43","0.904","3.422","0.56","0.32","30.0412","4.72834","22.21","0","SATNPRO1964","28.381999999999998","0.39752","5"],
    [59344,"HCEP03730563","2025-09-06 13:45:00","10.9506","3.399","26.596","1.966","7.42","0.857","3.412","0.32","0.19","30.0327","4.72731","21.54","0","SATNPRO1964","28.632","0.40104","5"],
    [59345,"HCEP03730563","2025-09-06 14:00:00","10.946","3.39808","26.744","1.929","7.42","0.738","3.206","0.17","0.23","30.0275","4.72665","21.14","0","SATNPRO1964","29.378","0.4115","5"],
    [59346,"HCEP03730563","2025-09-06 14:15:00","10.9368","3.39674","26.944","1.961","7.42","0.674","3.146","0.23","0.13","30.0218","4.726","21.48","0","SATNPRO1964","29.47","0.41276","5"],
    [59347,"HCEP03730563","2025-09-06 14:30:00","10.9387","3.39682","27.135","1.955","7.42","0.564","2.668","0.09","0.13","30.021","4.72586","21.42","0","SATNPRO1964","29.704","0.41606","5"],
    [59348,"HCEP03730563","2025-09-06 14:45:00","10.9384","3.39671","27.304","2.025","7.42","0.682","2.839","0.07","0.29","30.02","4.72574","22.18","0","SATNPRO1964","29.46","0.41266","5"],
    [59349,"HCEP03730563","2025-09-06 15:00:00","10.9338","3.39647","27.433","1.978","7.42","4.214","44.276","1.74","16.65","30.0213","4.726","21.67","0","SATNPRO1964","28.892","0.40466","5"],
    [59350,"HCEP03730563","2025-09-06 15:15:00","10.9313","3.39616","27.542","1.911","7.41","0.734","3.59","0.12","1.2","30.0203","4.72591","20.93","0","SATNPRO1964","28.896","0.40474","5"],
    [59351,"HCEP03730563","2025-09-06 15:30:00","10.9334","3.3964","27.631","1.858","7.41","0.681","4.925","0.22","0.5","30.0209","4.72597","20.35","0","SATNPRO1964","28.849999999999998","0.40412","5"],
    [59352,"HCEP03730563","2025-09-06 15:45:00","10.9327","3.39629","27.693","1.868","7.41","0.699","3.383","0.11","0.32","30.0204","4.72591","20.46","0","SATNPRO1964","28.962","0.40564","5"],
    [59353,"HCEP03730563","2025-09-06 16:00:00","10.9326","3.39638","27.732","1.857","7.41","0.666","3.255","0.16","0.2","30.0214","4.72606","20.34","0","SATNPRO1964","28.736","0.40248","5"],
    [59354,"HCEP03730563","2025-09-06 16:15:00","10.936","3.39681","27.731","1.859","7.41","0.647","3.045","0.08","0.12","30.0228","4.72619","20.37","0","SATNPRO1964","29.078","0.4073","5"],
    [59355,"HCEP03730563","2025-09-06 16:30:00","10.9411","3.39753","27.715","1.902","7.41","0.615","2.886","0.11","0.2","30.0257","4.72653","20.83","0","SATNPRO1964","29.194","0.4089","5"],
    [59356,"HCEP03730563","2025-09-06 16:45:00","10.9411","3.39718","27.692","1.961","7.41","0.704","2.791","0.41","0.15","30.0223","4.72605","21.48","0","SATNPRO1964","29.702","0.41602","5"],
    [59357,"HCEP03730563","2025-09-06 17:00:00","10.953","3.39881","27.676","2.018","7.42","0.618","2.815","0.25","0.29","30.0285","4.72674","22.11","0","SATNPRO1964","29.726","0.41638","5"],
    [59358,"HCEP03730563","2025-09-06 17:15:00","10.9548","3.39892","27.629","2.083","7.42","0.716","3.22","0.27","0.19","30.0281","4.72666","22.83","0","SATNPRO1964","29.541999999999998","0.41376","5"],
    [59359,"HCEP03730563","2025-09-06 17:30:00","10.9565","3.399","27.603","2.111","7.43","0.759","3.57","0.45","0.51","30.0275","4.72654","23.13","0","SATNPRO1964","29.712","0.41618","5"],
    [59360,"HCEP03730563","2025-09-06 17:45:00","10.9602","3.39975","27.545","2.135","7.43","0.713","3.823","0.21","0.25","30.0319","4.7271","23.4","0","SATNPRO1964","29.756","0.41682","5"],
    [59361,"HCEP03730563","2025-09-06 18:00:00","10.9585","3.39944","27.468","2.106","7.43","1.003","6.818","0.74","6.58","30.0302","4.72689","23.08","0","SATNPRO1964","29.738","0.41654","5"],
    [59362,"HCEP03730563","2025-09-06 18:15:00","10.9678","3.39982","27.377","2.237","7.44","0.56","2.405","0.1","0.19","30.0264","4.7262","24.52","0","SATNPRO1964","31.12","0.43588","5"],
    [59363,"HCEP03730563","2025-09-06 18:30:00","10.9654","3.39943","27.268","2.412","7.45","0.506","2.442","0.06","0.28","30.0246","4.72598","26.44","0","SATNPRO1964","31.468","0.44074","5"],
    [59364,"HCEP03730563","2025-09-06 18:45:00","10.9724","3.39974","27.174","2.488","7.47","0.576","1.303","0.36","0.05","30.022","4.72549","27.27","0","SATNPRO1964","31.958000000000002","0.44766","5"],
    [59365,"HCEP03730563","2025-09-06 19:00:00","10.9615","3.39971","27.078","2.468","7.45","0.692","4.167","0.27","0.61","30.0306","4.72688","27.05","0","SATNPRO1964","29.616","0.41484","5"],
    [59366,"HCEP03730563","2025-09-06 19:15:00","10.9647","3.40006","26.984","2.243","7.44","0.709","3.811","0.19","0.37","30.0314","4.72694","24.59","0","SATNPRO1964","30.016","0.4204","5"],
    [59367,"HCEP03730563","2025-09-06 19:30:00","10.9667","3.39963","26.898","2.317","7.45","0.586","2.755","0.16","0.18","30.0256","4.72608","25.39","0","SATNPRO1964","31.132","0.43602","5"],
    [59368,"HCEP03730563","2025-09-06 19:45:00","10.9656","3.39966","26.766","2.397","7.45","0.544","2.908","0.07","0.11","30.0269","4.72626","26.28","0","SATNPRO1964","31.542","0.44178","5"],
    [59369,"HCEP03730563","2025-09-06 20:00:00","10.9722","3.39945","26.641","2.507","7.47","0.634","1.405","1.09","0.09","30.0196","4.72512","27.48","0","SATNPRO1964","32.098","0.4496","5"],
    [59370,"HCEP03730563","2025-09-06 20:15:00","10.9682","3.3998","26.505","2.576","7.47","0.508","2.717","0.04","0.08","30.0262","4.72612","28.24","0","SATNPRO1964","30.752","0.43072","5"],
    [59371,"HCEP03730563","2025-09-06 20:30:00","10.9755","3.4018","26.365","2.385","7.45","0.631","4.601","0.12","0.34","30.0399","4.72794","26.15","0","SATNPRO1964","29.5","0.41318","5"],
    [59372,"HCEP03730563","2025-09-06 20:45:00","10.98","3.40276","26.218","2.219","7.44","0.634","5.055","0.15","0.27","30.0457","4.72869","24.34","0","SATNPRO1964","29.768","0.41694","5"],
    [59373,"HCEP03730563","2025-09-06 21:00:00","10.9881","3.40381","26.048","2.17","7.44","0.522","4.283","0.05","0.34","30.0494","4.72907","23.8","0","SATNPRO1964","30.126","0.42198","5"],
    [59374,"HCEP03730563","2025-09-06 21:15:00","10.9875","3.40378","25.931","2.228","7.44","0.557","4.684","0.06","0.21","30.0497","4.72912","24.44","0","SATNPRO1964","29.72","0.41624","5"],
    [59375,"HCEP03730563","2025-09-06 21:30:00","10.9897","3.40375","25.828","2.179","7.44","0.546","4.713","0.09","0.26","30.0476","4.72878","23.9","0","SATNPRO1964","29.848","0.41804","5"],
    [59376,"HCEP03730563","2025-09-06 21:45:00","10.9929","3.38129","25.759","1.996","7.44","0.519","4.312","0.07","0.31","29.8253","4.69717","21.87","0","SATNPRO1964","30.124","0.42194","5"],
    [59377,"HCEP03730563","2025-09-06 22:00:00","10.9947","3.40517","25.764","2.034","7.43","0.544","4.527","0.12","0.3","30.0574","4.7301","22.32","0","SATNPRO1964","29.562","0.41408","5"],
    [59378,"HCEP03730563","2025-09-06 22:15:00","10.9962","3.40536","25.761","2.116","7.44","3.518","5.343","9.35","2.95","30.0581","4.73017","23.21","0","SATNPRO1964","29.51","0.4133","5"],
    [59379,"HCEP03730563","2025-09-06 22:30:00","10.9981","3.4057","25.784","2.147","7.44","0.645","4.362","0.36","0.28","30.0598","4.73039","23.56","0","SATNPRO1964","29.748","0.41668","5"],
    [59380,"HCEP03730563","2025-09-06 22:45:00","10.9986","3.40585","25.833","2.153","7.44","0.572","4.204","0.07","0.38","30.0609","4.73053","23.62","0","SATNPRO1964","29.634","0.4151","5"],
    [59381,"HCEP03730563","2025-09-06 23:00:00","11.0009","3.40624","25.881","2.144","7.44","0.525","4.624","0.07","0.23","30.0628","4.73077","23.52","0","SATNPRO1964","29.356","0.41116","5"],
    [59382,"HCEP03730563","2025-09-06 23:15:00","11.0019","3.40654","25.95","2.132","7.43","0.617","4.301","0.2","0.22","30.0649","4.73106","23.39","0","SATNPRO1964","29.514","0.4134","5"],
    [59383,"HCEP03730563","2025-09-06 23:30:00","11.0033","3.40687","26.01","2.117","7.43","0.538","4.319","0.03","0.23","30.0669","4.73133","23.23","0","SATNPRO1964","29.478","0.4129","5"],
    [59384,"HCEP03730563","2025-09-06 23:45:00","11.0042","3.40698","26.122","2.107","7.43","0.564","4.403","0.06","0.3","30.0673","4.73137","23.12","0","SATNPRO1964","29.38","0.41152","5"],
    [59385,"HCEP03730563","2025-09-07 00:00:00","11.0042","3.40706","26.22","2.115","7.43","0.548","4.125","0.06","0.23","30.0679","4.73147","23.21","0","SATNPRO1964","29.072","0.40724","5"],
    [59386,"HCEP03730563","2025-09-07 00:15:00","11.0031","3.40678","26.323","2.136","7.44","0.576","3.494","0.18","0.15","30.0661","4.73123","23.44","0","SATNPRO1964","29.908","0.41886","5"],
    [59387,"HCEP03730563","2025-09-07 00:30:00","11.0022","3.40678","26.421","2.152","7.43","0.461","3.728","0.02","0.12","30.0668","4.73135","23.61","0","SATNPRO1964","29.596","0.41454","5"],
    [59388,"HCEP03730563","2025-09-07 00:45:00","11.0023","3.40686","26.521","2.123","7.43","0.831","3.879","0.48","0.2","30.0675","4.73146","23.29","0","SATNPRO1964","29.178","0.4087","5"],
    [59389,"HCEP03730563","2025-09-07 01:00:00","10.9999","3.40651","26.612","2.11","7.43","0.537","3.836","0.05","0.12","30.0659","4.73127","23.15","0","SATNPRO1964","29.544","0.41384","5"],
    [59390,"HCEP03730563","2025-09-07 01:15:00","10.9921","3.40522","26.735","2.153","7.44","1.018","3.709","0.77","0.29","30.0596","4.7305","23.62","0","SATNPRO1964","29.804","0.41742","5"],
    [59391,"HCEP03730563","2025-09-07 01:30:00","11.0047","3.40708","26.845","2.185","7.44","0.484","3.657","0.07","0.51","30.0675","4.73144","23.98","0","SATNPRO1964","29.4","0.4118","5"],
    [59392,"HCEP03730563","2025-09-07 01:45:00","11.0067","3.40733","26.958","2.165","7.44","0.555","4.3","0.07","0.27","30.0683","4.73152","23.76","0","SATNPRO1964","29.22","0.40928","5"],
    [59393,"HCEP03730563","2025-09-07 02:00:00","11.0066","3.40729","27.063","2.166","7.44","0.508","3.829","0.04","0.19","30.0679","4.73148","23.77","0","SATNPRO1964","28.93","0.4052","5"],
    [59394,"HCEP03730563","2025-09-07 02:15:00","11.0052","3.40716","27.197","2.144","7.43","0.593","4.279","0.08","0.24","30.0678","4.73149","23.53","0","SATNPRO1964","29.17","0.40856","5"],
    [59395,"HCEP03730563","2025-09-07 02:30:00","11.0066","3.40735","27.287","2.116","7.43","0.597","4.081","0.18","0.31","30.0684","4.73156","23.23","0","SATNPRO1964","29.222","0.4093","5"],
    [59396,"HCEP03730563","2025-09-07 02:45:00","11.0097","3.40786","27.407","2.127","7.43","0.609","3.772","0.11","0.17","30.0708","4.73186","23.35","0","SATNPRO1964","29.238","0.40952","5"],
    [59397,"HCEP03730563","2025-09-07 03:00:00","11.0099","3.40789","27.507","2.153","7.44","0.645","3.879","0.26","0.49","30.0709","4.73188","23.63","0","SATNPRO1964","28.977999999999998","0.40586","5"],
    [59398,"HCEP03730563","2025-09-07 03:15:00","11.0091","3.40773","27.58","2.16","7.44","0.707","3.939","0.13","0.22","30.0699","4.73176","23.7","0","SATNPRO1964","29.502000000000002","0.4132","5"],
    [59399,"HCEP03730563","2025-09-07 03:30:00","11.0058","3.40718","27.609","2.151","7.44","0.657","3.806","0.26","0.24","30.0672","4.73142","23.61","0","SATNPRO1964","29.246","0.40968","5"],
    [59400,"HCEP03730563","2025-09-07 03:45:00","11.0024","3.40677","27.625","2.128","7.43","0.725","4.162","0.16","0.21","30.066","4.73131","23.36","0","SATNPRO1964","29.03","0.40662","5"],
    [59401,"HCEP03730563","2025-09-07 04:00:00","10.9973","3.40602","27.59","2.092","7.43","0.825","4.523","0.35","0.23","30.0629","4.73094","22.95","0","SATNPRO1964","29.182","0.40874","5"],
    [59402,"HCEP03730563","2025-09-07 04:15:00","10.9957","3.40523","27.564","2.127","7.44","0.607","3.346","0.05","0.13","30.0566","4.73006","23.33","0","SATNPRO1964","29.542","0.41378","5"],
    [59403,"HCEP03730563","2025-09-07 04:30:00","10.993","3.40493","27.503","2.178","7.44","0.744","3.696","0.35","0.19","30.0557","4.72998","23.89","0","SATNPRO1964","29.67","0.41558","5"],
    [59404,"HCEP03730563","2025-09-07 04:45:00","10.9905","3.4046","27.442","2.157","7.43","0.616","3.552","0.08","0.2","30.0546","4.72985","23.66","0","SATNPRO1964","30.01","0.42032","5"],
    [59405,"HCEP03730563","2025-09-07 05:00:00","10.9879","3.40416","27.363","2.116","7.43","0.639","3.672","0.1","0.15","30.0525","4.72959","23.21","0","SATNPRO1964","29.52","0.4135","5"],
    [59406,"HCEP03730563","2025-09-07 05:15:00","10.9895","3.40403","27.259","2.178","7.44","0.677","2.766","0.33","0.2","30.0499","4.7292","23.89","0","SATNPRO1964","29.8","0.41738","5"],
    [59407,"HCEP03730563","2025-09-07 05:30:00","10.9839","3.40327","27.139","2.24","7.44","0.72","3.036","0.58","0.19","30.0472","4.72889","24.57","0","SATNPRO1964","29.88","0.41856","5"],
    [59408,"HCEP03730563","2025-09-07 05:45:00","10.9808","3.40289","26.987","2.208","7.44","0.641","3.731","0.06","0.53","30.046","4.72876","24.21","0","SATNPRO1964","30.158","0.42242","5"],
    [59409,"HCEP03730563","2025-09-07 06:00:00","10.9787","3.40257","26.827","2.147","7.43","0.622","3.387","0.12","0.24","30.0446","4.72859","23.55","0","SATNPRO1964","30.092","0.4215","5"],
    [59410,"HCEP03730563","2025-09-07 06:15:00","10.977","3.40236","26.648","2.111","7.43","0.708","3.565","0.14","0.33","30.044","4.72852","23.15","0","SATNPRO1964","29.458","0.41264","5"],
    [59411,"HCEP03730563","2025-09-07 06:30:00","10.9762","3.40225","26.475","2.077","7.43","0.657","3.592","0.1","0.39","30.0437","4.72847","22.77","0","SATNPRO1964","29.716","0.41622","5"],
    [59412,"HCEP03730563","2025-09-07 06:45:00","10.9763","3.40221","26.298","2.053","7.43","0.685","3.653","0.1","0.24","30.0432","4.7284","22.52","0","SATNPRO1964","29.332","0.4108","5"],
    [59413,"HCEP03730563","2025-09-07 07:00:00","10.9764","3.40212","26.097","2.057","7.43","0.616","3.319","0.1","0.12","30.0423","4.72826","22.55","0","SATNPRO1964","29.502","0.41322","5"],
    [59414,"HCEP03730563","2025-09-07 07:15:00","10.9763","3.40207","25.888","2.058","7.43","0.639","3.433","0.11","0.12","30.0421","4.72821","22.57","0","SATNPRO1964","29.302","0.4104","5"],
    [59415,"HCEP03730563","2025-09-07 07:30:00","10.9758","3.40199","25.69","2.042","7.42","0.72","3.727","0.26","0.42","30.0418","4.72817","22.39","0","SATNPRO1964","28.996","0.40612","5"],
    [59416,"HCEP03730563","2025-09-07 07:45:00","10.975","3.40205","25.481","2.01","7.42","0.627","3.822","0.05","0.21","30.0431","4.72836","22.04","0","SATNPRO1964","28.91","0.4049","5"],
    [59417,"HCEP03730563","2025-09-07 08:00:00","10.9742","3.4019","25.268","1.972","7.42","0.599","3.528","0.11","0.43","30.0424","4.72826","21.63","0","SATNPRO1964","28.852","0.4041","5"],
    [59418,"HCEP03730563","2025-09-07 08:15:00","10.9819","3.40359","25.077","1.948","7.42","0.615","3.847","0.08","0.32","30.0527","4.72959","21.37","0","SATNPRO1964","28.542","0.39976","5"],
    [59419,"HCEP03730563","2025-09-07 08:30:00","10.9867","3.40459","24.865","1.91","7.41","0.609","3.613","0.22","0.23","30.0586","4.73034","20.95","0","SATNPRO1964","28.478","0.39888","5"],
    [59420,"HCEP03730563","2025-09-07 08:45:00","10.9904","3.40522","24.678","1.891","7.41","0.716","3.805","0.33","0.25","30.0618","4.73072","20.75","0","SATNPRO1964","28.192","0.3949","5"],
    [59421,"HCEP03730563","2025-09-07 09:00:00","10.9899","3.40518","24.529","1.865","7.41","0.612","3.588","0.11","0.13","30.062","4.73075","20.46","0","SATNPRO1964","28.17","0.39456","5"],
    [59422,"HCEP03730563","2025-09-07 09:15:00","10.9906","3.40552","24.37","1.84","7.41","0.629","3.785","0.06","0.11","30.0647","4.73112","20.18","0","SATNPRO1964","27.932","0.39124","5"],
    [59423,"HCEP03730563","2025-09-07 09:30:00","10.9923","3.40569","24.254","1.808","7.4","0.795","3.868","0.55","0.18","30.065","4.73113","19.83","0","SATNPRO1964","27.848","0.39006","5"],
    [59424,"HCEP03730563","2025-09-07 09:45:00","10.9928","3.40581","24.18","1.8","7.4","0.643","3.51","0.11","0.16","30.0659","4.73124","19.74","0","SATNPRO1964","27.913999999999998","0.39098","5"],
    [59425,"HCEP03730563","2025-09-07 10:00:00","10.9858","3.40374","24.146","1.932","7.42","0.453","1.965","0.11","0.08","30.0513","4.72928","21.2","0","SATNPRO1964","30.112000000000002","0.42178","5"],
    [59426,"HCEP03730563","2025-09-07 10:15:00","11.0013","3.40689","24.152","2.071","7.42","0.601","3.357","0.1","0.17","30.0695","4.73162","22.73","0","SATNPRO1964","28.11","0.39372","5"],
    [59427,"HCEP03730563","2025-09-07 10:30:00","11.0213","3.40601","24.192","1.978","7.43","0.576","3.399","0.1","0.33","30.0446","4.72778","21.71","0","SATNPRO1964","28.714","0.4022","5"],
    [59428,"HCEP03730563","2025-09-07 10:45:00","11.022","3.40939","24.246","2.231","7.43","0.602","3.065","0.11","0.14","30.077","4.73237","24.49","0","SATNPRO1964","28.818","0.40364","5"],
    [59429,"HCEP03730563","2025-09-07 11:00:00","11.0325","3.41083","24.299","2.183","7.44","0.652","3.022","0.25","0.12","30.0825","4.733","23.97","0","SATNPRO1964","28.996","0.4061","5"],
    [59430,"HCEP03730563","2025-09-07 11:15:00","11.0258","3.4105","24.372","2.208","7.44","0.686","3.228","0.19","0.13","30.0847","4.73341","24.25","0","SATNPRO1964","29.098","0.40754","5"],
    [59431,"HCEP03730563","2025-09-07 11:30:00","11.0164","3.40892","24.469","2.148","7.43","0.614","3.397","0.11","0.15","30.0769","4.73245","23.58","0","SATNPRO1964","28.256","0.39576","5"],
    [59432,"HCEP03730563","2025-09-07 11:45:00","11.0184","3.40932","24.614","2.051","7.43","0.761","3.326","0.27","0.16","30.0791","4.73275","22.52","0","SATNPRO1964","28.61","0.40074","5"],
    [59433,"HCEP03730563","2025-09-07 12:00:00","11.0423","3.41207","24.771","2.11","7.44","0.585","2.91","0.06","0.28","30.0864","4.73343","23.17","0","SATNPRO1964","30.296","0.42438","5"],
    [59434,"HCEP03730563","2025-09-07 12:15:00","11.0311","3.40965","24.955","2.306","7.44","0.684","3.022","0.15","0.28","30.0718","4.73154","25.32","0","SATNPRO1964","29.142","0.40818","5"],
    [59435,"HCEP03730563","2025-09-07 12:30:00","11.0339","3.41224","25.168","2.209","7.45","0.62","3.061","0.11","0.15","30.0947","4.73476","24.26","0","SATNPRO1964","29.264","0.40988","5"],
    [59436,"HCEP03730563","2025-09-07 12:45:00","11.0445","3.4121","25.335","2.424","7.46","0.671","2.66","0.19","0.2","30.0846","4.73317","26.62","0","SATNPRO1964","30.63","0.42902","5"],
    [59437,"HCEP03730563","2025-09-07 13:00:00","11.0321","3.41098","25.53","2.542","7.47","0.636","2.445","0.21","0.11","30.0838","4.73325","27.92","0","SATNPRO1964","30.366","0.42532","5"],
    [59438,"HCEP03730563","2025-09-07 13:15:00","11.0426","3.41228","25.751","2.555","7.46","0.778","3.117","0.24","0.18","30.0878","4.73368","28.07","0","SATNPRO1964","29.636","0.41512","5"],
    [59439,"HCEP03730563","2025-09-07 13:30:00","11.0382","3.41168","25.972","2.397","7.46","0.72","3.516","0.32","0.17","30.0855","4.73343","26.33","0","SATNPRO1964","29.566","0.4141","5"],
    [59440,"HCEP03730563","2025-09-07 13:45:00","11.0336","3.41117","26.174","2.293","7.45","0.784","3.855","0.23","0.26","30.0842","4.73333","25.18","0","SATNPRO1964","28.849999999999998","0.4041","5"],
    [59441,"HCEP03730563","2025-09-07 14:00:00","11.0329","3.41116","26.383","2.235","7.45","0.71","3.319","0.15","0.22","30.0845","4.73339","24.54","0","SATNPRO1964","28.956","0.4056","5"],
    [59442,"HCEP03730563","2025-09-07 14:15:00","11.0436","3.41234","26.587","2.279","7.45","0.686","3.118","0.13","0.32","30.0872","4.73363","25.04","0","SATNPRO1964","29.236","0.40948","5"],
    [59443,"HCEP03730563","2025-09-07 14:30:00","11.0399","3.41197","26.777","2.352","7.45","0.709","3.176","0.2","0.23","30.0865","4.7336","25.84","0","SATNPRO1964","29.276","0.41004","5"],
    [59444,"HCEP03730563","2025-09-07 14:45:00","11.0341","3.41088","26.988","2.339","7.45","0.656","2.916","0.19","0.28","30.0805","4.73284","25.69","0","SATNPRO1964","29.55","0.4139","5"],
    [59445,"HCEP03730563","2025-09-07 15:00:00","11.0294","3.40985","27.175","2.269","7.45","0.765","3.21","0.63","1.23","30.0742","4.73203","24.92","0","SATNPRO1964","28.746","0.40266","5"],
    [59446,"HCEP03730563","2025-09-07 15:15:00","11.0026","3.4061","27.331","2.174","7.43","0.694","3.3","0.16","0.3","30.0594","4.73035","23.86","0","SATNPRO1964","28.38","0.3975","5"],
    [59447,"HCEP03730563","2025-09-07 15:30:00","10.9803","3.40325","27.472","1.955","7.42","0.606","3.099","0.17","0.15","30.0497","4.72931","21.44","0","SATNPRO1964","27.896","0.39072","5"],
    [59448,"HCEP03730563","2025-09-07 15:45:00","10.9785","3.40311","27.599","1.82","7.41","0.607","3.202","0.05","0.16","30.0498","4.72936","19.96","0","SATNPRO1964","26.782","0.37516","5"],
    [59449,"HCEP03730563","2025-09-07 16:00:00","10.9897","3.40416","27.702","1.845","7.41","0.777","2.939","0.67","0.14","30.0509","4.72936","20.24","0","SATNPRO1964","28.39","0.39768","5"],
    [59450,"HCEP03730563","2025-09-07 16:15:00","10.9968","3.40545","27.776","1.94","7.42","0.775","3.232","0.19","0.34","30.0576","4.73021","21.28","0","SATNPRO1964","28.094","0.39352","5"],
    [59451,"HCEP03730563","2025-09-07 16:30:00","11.0133","3.40809","27.818","1.981","7.42","0.63","3.117","0.14","0.22","30.07","4.73172","21.75","0","SATNPRO1964","28.576","0.40024","5"],
    [59452,"HCEP03730563","2025-09-07 16:45:00","11.0183","3.40856","27.826","2.048","7.42","0.681","3.111","0.12","0.17","30.0705","4.73171","22.48","0","SATNPRO1964","28.788","0.40322","5"],
    [59453,"HCEP03730563","2025-09-07 17:00:00","11.0209","3.40861","27.807","2.114","7.43","0.589","2.906","0.08","0.11","30.0688","4.73143","23.21","0","SATNPRO1964","29.288","0.41022","5"],
    [59454,"HCEP03730563","2025-09-07 17:15:00","11.0249","3.40886","27.771","2.175","7.44","0.724","3.276","0.21","0.25","30.068","4.73125","23.87","0","SATNPRO1964","28.804","0.40346","5"],
    [59455,"HCEP03730563","2025-09-07 17:30:00","11.0166","3.40852","27.73","2.164","7.43","0.611","4.311","0.09","0.26","30.0715","4.73187","23.76","0","SATNPRO1964","28.522","0.3995","5"],
    [59456,"HCEP03730563","2025-09-07 17:45:00","11.0211","3.40846","27.682","2.121","7.43","0.598","2.934","0.11","0.17","30.0673","4.73121","23.28","0","SATNPRO1964","29.172","0.40858","5"],
    [59457,"HCEP03730563","2025-09-07 18:00:00","11.0208","3.40848","27.62","2.173","7.44","0.606","2.969","0.26","0.16","30.0677","4.73127","23.86","0","SATNPRO1964","30.016","0.42044","5"],
    [59458,"HCEP03730563","2025-09-07 18:15:00","11.0211","3.4084","27.536","2.2","7.44","0.656","2.387","0.62","0.16","30.0668","4.73112","24.15","0","SATNPRO1964","29.71","0.41614","5"],
    [59459,"HCEP03730563","2025-09-07 18:30:00","11.0213","3.40856","27.44","2.231","7.44","0.513","2.54","0.1","0.13","30.0681","4.7313","24.49","0","SATNPRO1964","29.954","0.41954","5"],
    [59460,"HCEP03730563","2025-09-07 18:45:00","11.0279","3.40884","27.343","2.311","7.45","0.667","2.555","0.44","0.1","30.0656","4.73084","25.37","0","SATNPRO1964","29.98","0.4199","5"],
    [59461,"HCEP03730563","2025-09-07 19:00:00","11.0418","3.41012","27.232","2.472","7.46","0.519","2.133","0.08","0.41","30.0667","4.73078","27.15","0","SATNPRO1964","30.962","0.43364","5"],
    [59462,"HCEP03730563","2025-09-07 19:15:00","11.0471","3.41072","27.107","2.586","7.47","1.378","8.669","2.7","20.2","30.0683","4.73092","28.4","0","SATNPRO1964","31.238","0.43754","5"],
    [59463,"HCEP03730563","2025-09-07 19:30:00","11.0211","3.40882","26.986","2.489","7.46","0.515","3.471","0.05","0.18","30.0711","4.7317","27.32","0","SATNPRO1964","29.394000000000002","0.41174","5"],
    [59464,"HCEP03730563","2025-09-07 19:45:00","11.0248","3.40968","26.883","2.249","7.44","0.564","4.087","0.08","0.2","30.0765","4.73241","24.7","0","SATNPRO1964","28.854","0.40414","5"],
    [59465,"HCEP03730563","2025-09-07 20:00:00","11.0286","3.41027","26.736","2.161","7.44","0.584","4.661","0.12","0.74","30.0792","4.73273","23.73","0","SATNPRO1964","28.766000000000002","0.40296","5"],
    [59466,"HCEP03730563","2025-09-07 20:15:00","11.0176","3.40804","26.595","2.171","7.44","0.551","3.667","0.09","0.23","30.0665","4.73108","23.83","0","SATNPRO1964","29.464000000000002","0.41266","5"],
    [59467,"HCEP03730563","2025-09-07 20:30:00","11.0234","3.40922","26.429","2.217","7.44","0.475","2.464","0.16","0.13","30.0733","4.73195","24.34","0","SATNPRO1964","29.756","0.41682","5"],
    [59468,"HCEP03730563","2025-09-07 20:45:00","11.0475","3.41243","26.279","2.369","7.46","0.521","3.215","0.06","0.33","30.0851","4.73325","26.02","0","SATNPRO1964","30.364","0.4253","5"],
    [59469,"HCEP03730563","2025-09-07 21:00:00","11.0489","3.41277","26.201","2.504","7.46","0.514","3.607","0.09","0.23","30.0872","4.73352","27.5","0","SATNPRO1964","31.006","0.43428","5"],
    [59470,"HCEP03730563","2025-09-07 21:15:00","11.0586","3.41251","25.834","2.576","7.48","0.53","2.259","0.28","0.24","30.0769","4.73189","28.3","0","SATNPRO1964","31.502","0.4412","5"],
    [59471,"HCEP03730563","2025-09-07 21:30:00","11.0592","3.41268","25.663","2.757","7.49","0.468","2.413","0.05","0.24","30.0782","4.73205","30.29","0","SATNPRO1964","30.976","0.43386","5"],
    [59472,"HCEP03730563","2025-09-07 21:45:00","11.0595","3.41474","25.523","2.651","7.48","0.517","4.938","0.05","0.43","30.0982","4.73488","29.13","0","SATNPRO1964","29.612000000000002","0.4148","5"],
    [59473,"HCEP03730563","2025-09-07 22:00:00","11.0658","3.416","25.438","2.473","7.47","0.563","5.215","0.2","0.31","30.1052","4.73578","27.18","0","SATNPRO1964","29.74","0.41658","5"],
    [59474,"HCEP03730563","2025-09-07 22:15:00","11.0634","3.41574","25.355","2.409","7.46","0.516","5.372","0.06","0.55","30.1048","4.73575","26.48","0","SATNPRO1964","29.522","0.4135","5"],
    [59475,"HCEP03730563","2025-09-07 22:30:00","11.0564","3.41488","25.332","2.355","7.46","0.444","4.648","0.04","0.39","30.1021","4.73548","25.88","0","SATNPRO1964","29.214","0.40918","5"],
    [59476,"HCEP03730563","2025-09-07 22:45:00","11.0497","3.41389","25.331","2.297","7.45","0.479","4.589","0.05","0.38","30.0979","4.73498","25.24","0","SATNPRO1964","29.36","0.41122","5"],
    [59477,"HCEP03730563","2025-09-07 23:00:00","11.0466","3.41335","25.351","2.26","7.45","0.446","4.295","0.06","0.25","30.0951","4.73463","24.82","0","SATNPRO1964","29.272","0.40998","5"],
    [59478,"HCEP03730563","2025-09-07 23:15:00","11.0459","3.41319","25.39","2.238","7.45","0.477","4.428","0.05","0.18","30.0941","4.73451","24.59","0","SATNPRO1964","29.24","0.40958","5"],
    [59479,"HCEP03730563","2025-09-07 23:30:00","11.0438","3.41288","25.461","2.215","7.44","0.457","4.234","0.05","0.24","30.0928","4.73436","24.33","0","SATNPRO1964","28.972","0.40578","5"],
    [59480,"HCEP03730563","2025-09-07 23:45:00","11.04","3.41229","25.525","2.18","7.44","0.583","4.479","0.16","0.17","30.0901","4.73404","23.95","0","SATNPRO1964","28.866","0.40432","5"],
    [59481,"HCEP03730563","2025-09-08 00:00:00","11.0284","3.41065","25.601","2.117","7.43","0.461","4.274","0.06","0.15","30.0836","4.73329","23.24","0","SATNPRO1964","28.82","0.40364","5"],
    [59482,"HCEP03730563","2025-09-08 00:15:00","11.0206","3.40952","25.724","2.049","7.43","0.428","4.331","0.03","0.23","30.0788","4.73274","22.49","0","SATNPRO1964","28.64","0.40118","5"],
    [59483,"HCEP03730563","2025-09-08 00:30:00","11.0121","3.4084","25.841","1.985","7.42","0.396","3.914","0.05","0.28","30.0747","4.7323","21.79","0","SATNPRO1964","28.404","0.39784","5"],
    [59484,"HCEP03730563","2025-09-08 00:45:00","11.0071","3.4077","25.961","1.934","7.42","0.433","3.917","0.03","0.2","30.0719","4.73198","21.23","0","SATNPRO1964","28.166","0.39452","5"],
    [59485,"HCEP03730563","2025-09-08 01:00:00","11.0123","3.40859","26.084","1.901","7.41","0.5","4.46","0.24","0.44","30.0764","4.73254","20.86","0","SATNPRO1964","28.284","0.39612","5"],
    [59486,"HCEP03730563","2025-09-08 01:15:00","11.0089","3.40813","26.211","1.872","7.41","0.457","4.182","0.05","0.14","30.0747","4.73235","20.55","0","SATNPRO1964","28.156000000000002","0.39436","5"],
    [59487,"HCEP03730563","2025-09-08 01:30:00","11.0109","3.4086","26.339","1.838","7.41","0.426","4.418","0.08","0.26","30.0775","4.73273","20.17","0","SATNPRO1964","27.858","0.39018","5"],
    [59488,"HCEP03730563","2025-09-08 01:45:00","11.0044","3.40764","26.461","1.804","7.4","0.507","4.233","0.19","0.17","30.0734","4.73226","19.79","0","SATNPRO1964","27.446","0.3844","5"],
    [59489,"HCEP03730563","2025-09-08 02:00:00","11.0137","3.40897","26.603","1.783","7.4","0.444","4.599","0.07","0.25","30.0787","4.73287","19.57","0","SATNPRO1964","27.83","0.38978","5"],
    [59490,"HCEP03730563","2025-09-08 02:15:00","11.0068","3.40788","26.734","1.792","7.4","0.436","4.243","0.04","0.23","30.0737","4.73227","19.67","0","SATNPRO1964","27.554","0.38596","5"],
    [59491,"HCEP03730563","2025-09-08 02:30:00","11.0151","3.40939","26.878","1.789","7.4","0.424","4.212","0.07","0.23","30.0815","4.73327","19.64","0","SATNPRO1964","27.738","0.38852","5"],
    [59492,"HCEP03730563","2025-09-08 02:45:00","11.0233","3.41039","27.014","1.843","7.41","0.465","4.637","0.06","0.8","30.0845","4.73358","20.24","0","SATNPRO1964","28.258","0.39584","5"],
    [59493,"HCEP03730563","2025-09-08 03:00:00","11.0284","3.41117","27.142","1.901","7.41","0.436","4.147","0.12","0.37","30.088","4.734","20.88","0","SATNPRO1964","28.022","0.39252","5"],
    [59494,"HCEP03730563","2025-09-08 03:15:00","11.0305","3.41151","27.27","1.947","7.41","0.455","4.058","0.06","0.25","30.0896","4.7342","21.38","0","SATNPRO1964","28.384","0.39754","5"],
    [59495,"HCEP03730563","2025-09-08 03:30:00","11.037","3.41244","27.405","2.002","7.42","0.422","4.007","0.04","0.28","30.0932","4.73462","21.99","0","SATNPRO1964","28.794","0.40332","5"],
    [59496,"HCEP03730563","2025-09-08 03:45:00","11.0396","3.41272","27.514","2.036","7.42","0.468","4.287","0.06","0.54","30.0938","4.73468","22.36","0","SATNPRO1964","28.546","0.39984","5"],
    [59497,"HCEP03730563","2025-09-08 04:00:00","11.0437","3.41328","27.567","2.069","7.43","0.453","4.079","0.06","0.22","30.096","4.73493","22.73","0","SATNPRO1964","28.849999999999998","0.40408","5"],
    [59498,"HCEP03730563","2025-09-08 04:15:00","11.0466","3.4137","27.61","2.098","7.43","0.481","4.498","0.04","0.18","30.0977","4.73512","23.05","0","SATNPRO1964","28.855999999999998","0.40418","5"],
    [59499,"HCEP03730563","2025-09-08 04:30:00","11.0491","3.41398","27.627","2.13","7.43","0.434","3.662","0.1","0.29","30.0983","4.73518","23.4","0","SATNPRO1964","28.818","0.40364","5"],
    [59500,"HCEP03730563","2025-09-08 04:45:00","11.0508","3.41421","27.613","2.165","7.43","0.487","3.581","0.07","0.2","30.0993","4.73528","23.79","0","SATNPRO1964","29.048","0.40682","5"],
    [59501,"HCEP03730563","2025-09-08 05:00:00","11.0514","3.41432","27.597","2.177","7.44","0.535","3.731","0.22","0.16","30.0998","4.73534","23.92","0","SATNPRO1964","29.048","0.40688","5"],
    [59502,"HCEP03730563","2025-09-08 05:15:00","11.0519","3.41441","27.563","2.179","7.44","0.503","3.886","0.04","0.15","30.1003","4.73541","23.94","0","SATNPRO1964","29.036","0.40672","5"],
    [59503,"HCEP03730563","2025-09-08 05:30:00","11.0523","3.41445","27.491","2.172","7.44","0.494","4.184","0.08","0.24","30.1004","4.73541","23.86","0","SATNPRO1964","28.78","0.40312","5"],
    [59504,"HCEP03730563","2025-09-08 05:45:00","11.0518","3.41442","27.405","2.163","7.44","0.505","4.594","0.07","0.53","30.1005","4.73544","23.76","0","SATNPRO1964","28.742","0.40254","5"],
    [59505,"HCEP03730563","2025-09-08 06:00:00","11.0508","3.41427","27.29","2.145","7.43","0.443","3.579","0.03","0.13","30.0999","4.73536","23.57","0","SATNPRO1964","28.602","0.40066","5"],
    [59506,"HCEP03730563","2025-09-08 06:15:00","11.0517","3.41437","27.167","2.127","7.43","0.533","3.904","0.1","0.11","30.1003","4.73539","23.37","0","SATNPRO1964","29.322","0.41068","5"],
    [59507,"HCEP03730563","2025-09-08 06:30:00","11.0516","3.41434","27.017","2.127","7.43","0.535","3.916","0.12","0.12","30.1001","4.73536","23.37","0","SATNPRO1964","28.634","0.40106","5"],
    [59508,"HCEP03730563","2025-09-08 06:45:00","11.0541","3.41463","26.864","2.135","7.44","1.009","18.354","0.6","9.8","30.1009","4.73543","23.46","0","SATNPRO1964","29.868","0.41836","5"],
    [59509,"HCEP03730563","2025-09-08 07:00:00","11.057","3.41496","26.692","2.189","7.44","0.473","3.35","0.08","0.16","30.1018","4.7355","24.05","0","SATNPRO1964","29.39","0.41168","5"],
    [59510,"HCEP03730563","2025-09-08 07:15:00","11.0584","3.41501","26.519","2.251","7.45","0.484","3.007","0.09","0.06","30.1012","4.73538","24.73","0","SATNPRO1964","29.516000000000002","0.4134","5"],
    [59511,"HCEP03730563","2025-09-08 07:30:00","11.0584","3.41487","26.38","2.297","7.45","0.495","3.476","0.09","0.26","30.0999","4.73519","25.24","0","SATNPRO1964","29.336","0.4109","5"],
    [59512,"HCEP03730563","2025-09-08 07:45:00","11.0586","3.41474","26.185","2.325","7.45","0.441","2.865","0.06","0.14","30.0986","4.73499","25.55","0","SATNPRO1964","29.858","0.41824","5"],
    [59513,"HCEP03730563","2025-09-08 08:00:00","11.0539","3.41375","26.013","2.359","7.45","0.407","3.073","0.05","0.43","30.0928","4.73423","25.92","0","SATNPRO1964","29.928","0.41914","5"],
    [59514,"HCEP03730563","2025-09-08 08:15:00","11.0573","3.4145","25.823","2.367","7.45","0.435","2.825","0.05","0.13","30.0975","4.73484","26.01","0","SATNPRO1964","30.056","0.42102","5"],
    [59515,"HCEP03730563","2025-09-08 08:30:00","11.056","3.414","25.629","2.356","7.46","0.488","3.184","0.1","0.31","30.0937","4.73431","25.89","0","SATNPRO1964","29.98","0.41992","5"],
    [59516,"HCEP03730563","2025-09-08 08:45:00","11.0558","3.41383","25.413","2.387","7.46","0.411","2.589","0.04","0.11","30.0923","4.7341","26.23","0","SATNPRO1964","29.974","0.41978","5"],
    [59517,"HCEP03730563","2025-09-08 09:00:00","11.0528","3.4134","25.217","2.398","7.46","0.405","2.917","0.04","0.2","30.0906","4.73389","26.35","0","SATNPRO1964","30.184","0.42278","5"],
    [59518,"HCEP03730563","2025-09-08 09:15:00","11.0582","3.41435","25.004","2.406","7.46","0.392","2.52","0.04","0.11","30.0956","4.7345","26.44","0","SATNPRO1964","30.128","0.42194","5"],
    [59519,"HCEP03730563","2025-09-08 09:30:00","11.0525","3.41339","24.8","2.41","7.46","0.384","2.943","0.03","0.97","30.091","4.73392","26.48","0","SATNPRO1964","29.986","0.42","5"],
    [59520,"HCEP03730563","2025-09-08 09:45:00","11.0361","3.41053","24.618","2.369","7.46","0.401","2.352","0.02","0.08","30.0765","4.7321","26.02","0","SATNPRO1964","30.156","0.4224","5"],
    [59521,"HCEP03730563","2025-09-08 10:00:00","11.0455","3.41203","24.47","2.334","7.45","0.352","2.167","0.03","0.05","30.0835","4.73296","25.64","0","SATNPRO1964","29.994","0.42012","5"],
    [59522,"HCEP03730563","2025-09-08 10:15:00","11.0562","3.41411","24.389","2.351","7.46","0.441","2.685","0.05","0.25","30.0952","4.73444","25.83","0","SATNPRO1964","30.224","0.42332","5"],
    [59523,"HCEP03730563","2025-09-08 10:30:00","11.0598","3.41462","24.34","2.389","7.46","0.378","2.667","0.04","0.15","30.0972","4.73467","26.25","0","SATNPRO1964","30.068","0.42116","5"],
    [59524,"HCEP03730563","2025-09-08 10:45:00","11.0632","3.40556","24.341","2.421","7.46","0.393","2.586","0.04","0.09","30.0058","4.72165","26.59","0","SATNPRO1964","30.358","0.42522","5"],
    [59525,"HCEP03730563","2025-09-08 11:00:00","11.0658","3.4098","24.368","2.439","7.46","0.387","2.37","0.12","0.09","30.0452","4.7272","26.8","0","SATNPRO1964","30.152","0.42234","5"],
    [59526,"HCEP03730563","2025-09-08 11:15:00","11.0625","3.41533","24.442","2.422","7.46","0.484","3.24","0.15","0.13","30.1018","4.73529","26.62","0","SATNPRO1964","29.201999999999998","0.40906","5"],
    [59527,"HCEP03730563","2025-09-08 11:30:00","11.0644","3.41559","24.511","2.274","7.45","0.478","3.371","0.21","0.2","30.1028","4.73541","24.99","0","SATNPRO1964","29.366","0.41132","5"],
    [59528,"HCEP03730563","2025-09-08 11:45:00","11.0656","3.41576","24.598","2.254","7.45","0.506","3.682","0.07","0.18","30.1034","4.73548","24.78","0","SATNPRO1964","29.192","0.40888","5"],
    [59529,"HCEP03730563","2025-09-08 12:00:00","11.066","3.41572","24.704","2.258","7.45","0.44","3.18","0.05","0.17","30.1027","4.73537","24.82","0","SATNPRO1964","29.602","0.41462","5"],
    [59530,"HCEP03730563","2025-09-08 12:15:00","11.0668","3.41601","24.857","2.267","7.45","0.558","3.429","0.2","0.13","30.1048","4.73567","24.91","0","SATNPRO1964","29.372","0.41138","5"],
    [59531,"HCEP03730563","2025-09-08 12:30:00","11.069","3.41613","24.986","2.295","7.45","0.469","3.341","0.04","0.13","30.1041","4.73555","25.22","0","SATNPRO1964","29.150000000000002","0.4083","5"],
    [59532,"HCEP03730563","2025-09-08 12:45:00","11.0667","3.41594","25.146","2.313","7.45","0.543","3.824","0.06","0.27","30.104","4.73558","25.42","0","SATNPRO1964","29.314","0.41058","5"],
    [59533,"HCEP03730563","2025-09-08 13:00:00","11.0673","3.41586","25.31","2.29","7.45","0.52","3.607","0.07","0.24","30.1028","4.7354","25.17","0","SATNPRO1964","29.36","0.41122","5"],
    [59534,"HCEP03730563","2025-09-08 13:15:00","11.0675","3.41576","25.494","2.31","7.45","0.558","3.292","0.3","0.1","30.1015","4.73522","25.39","0","SATNPRO1964","29.272000000000002","0.41002","5"],
    [59535,"HCEP03730563","2025-09-08 13:30:00","11.0693","3.41587","25.694","2.306","7.45","0.502","3.107","0.09","0.16","30.1011","4.73515","25.35","0","SATNPRO1964","29.554","0.41396","5"],
    [59536,"HCEP03730563","2025-09-08 13:45:00","11.0675","3.41563","25.877","2.322","7.45","0.555","3.555","0.08","0.3","30.1001","4.73506","25.52","0","SATNPRO1964","29.236","0.40948","5"],
    [59537,"HCEP03730563","2025-09-08 14:00:00","11.0678","3.41553","26.082","2.302","7.45","0.598","3.332","0.07","0.21","30.0988","4.73487","25.3","0","SATNPRO1964","29.308","0.41052","5"],
    [59538,"HCEP03730563","2025-09-08 14:15:00","11.0679","3.41537","26.276","2.331","7.45","0.549","3.146","0.07","0.17","30.097","4.73463","25.62","0","SATNPRO1964","29.774","0.41704","5"],
    [59539,"HCEP03730563","2025-09-08 14:30:00","11.0662","3.41491","26.476","2.38","7.46","0.512","3.024","0.13","0.36","30.0939","4.73422","26.15","0","SATNPRO1964","29.748","0.41666","5"],
    [59540,"HCEP03730563","2025-09-08 14:45:00","11.0644","3.41442","26.689","2.402","7.46","0.51","3.097","0.06","0.23","30.0905","4.73378","26.4","0","SATNPRO1964","29.828","0.4178","5"],
    [59541,"HCEP03730563","2025-09-08 15:00:00","11.0595","3.41375","26.923","2.395","7.46","0.5","3.534","0.04","0.23","30.0879","4.73349","26.32","0","SATNPRO1964","29.566","0.41416","5"],
    [59542,"HCEP03730563","2025-09-08 15:15:00","11.0552","3.41315","27.116","2.35","7.45","0.576","3.809","0.16","0.46","30.0855","4.73323","25.82","0","SATNPRO1964","29.448","0.41248","5"],
    [59543,"HCEP03730563","2025-09-08 15:30:00","11.0535","3.41272","27.294","2.314","7.45","0.522","4.732","0.07","0.33","30.0825","4.73285","25.42","0","SATNPRO1964","29.262","0.40984","5"],
    [59544,"HCEP03730563","2025-09-08 15:45:00","11.0517","3.41243","27.482","2.311","7.45","0.55","3.69","0.06","0.19","30.0812","4.7327","25.38","0","SATNPRO1964","29.408","0.4119","5"],
    [59545,"HCEP03730563","2025-09-08 16:00:00","11.0496","3.41194","27.631","2.306","7.45","0.516","3.034","0.1","0.2","30.078","4.73228","25.33","0","SATNPRO1964","29.398","0.41178","5"],
    [59546,"HCEP03730563","2025-09-08 16:15:00","11.0475","3.41152","27.768","2.311","7.45","0.578","3.561","0.07","0.22","30.0756","4.73198","25.39","0","SATNPRO1964","29.436","0.41226","5"],
    [59547,"HCEP03730563","2025-09-08 16:30:00","11.0434","3.41087","27.879","2.303","7.45","0.531","3.237","0.07","0.21","30.0725","4.73162","25.29","0","SATNPRO1964","29.55","0.41394","5"],
    [59548,"HCEP03730563","2025-09-08 16:45:00","11.0415","3.41058","27.91","2.28","7.45","0.623","3.973","0.11","0.34","30.0713","4.73147","25.04","0","SATNPRO1964","29.188","0.40884","5"],
    [59549,"HCEP03730563","2025-09-08 17:00:00","11.0373","3.40993","27.954","2.249","7.45","0.567","3.611","0.08","0.2","30.0683","4.73111","24.69","0","SATNPRO1964","29.233999999999998","0.40948","5"],
    [59550,"HCEP03730563","2025-09-08 17:15:00","11.034","3.40946","27.969","2.21","7.44","0.569","3.398","0.09","0.18","30.0664","4.7309","24.26","0","SATNPRO1964","29.198","0.40898","5"],
    [59551,"HCEP03730563","2025-09-08 17:30:00","11.0296","3.4088","27.956","2.176","7.44","0.591","3.486","0.15","0.16","30.0635","4.73056","23.89","0","SATNPRO1964","28.848","0.40406","5"],
    [59552,"HCEP03730563","2025-09-08 17:45:00","11.0236","3.40784","27.924","2.144","7.44","0.539","3.181","0.06","0.12","30.0591","4.73002","23.54","0","SATNPRO1964","29.041999999999998","0.4068","5"],
    [59553,"HCEP03730563","2025-09-08 18:00:00","11.0211","3.4074","27.869","2.124","7.43","0.498","2.901","0.06","0.12","30.0568","4.72972","23.32","0","SATNPRO1964","29.198","0.40898","5"],
    [59554,"HCEP03730563","2025-09-08 18:15:00","11.018","3.40704","27.794","2.117","7.43","0.509","2.953","0.04","0.13","30.0558","4.72963","23.23","0","SATNPRO1964","29.088","0.40742","5"],
    [59555,"HCEP03730563","2025-09-08 18:30:00","11.0166","3.40675","27.746","2.11","7.43","0.554","3.053","0.18","0.22","30.0541","4.72941","23.16","0","SATNPRO1964","29.202","0.40902","5"],
    [59556,"HCEP03730563","2025-09-08 18:45:00","11.0143","3.40623","27.617","2.115","7.43","0.517","2.781","0.07","0.15","30.051","4.729","23.21","0","SATNPRO1964","29.296","0.41034","5"],
    [59557,"HCEP03730563","2025-09-08 19:00:00","11.0145","3.40647","27.483","2.121","7.43","0.49","3.099","0.07","0.27","30.0533","4.72931","23.27","0","SATNPRO1964","29.114","0.40782","5"],
    [59558,"HCEP03730563","2025-09-08 19:15:00","11.0154","3.40644","27.335","2.111","7.43","0.477","2.822","0.06","0.17","30.0523","4.72915","23.17","0","SATNPRO1964","29.078","0.40728","5"],
    [59559,"HCEP03730563","2025-09-08 19:30:00","11.0179","3.40701","27.214","2.113","7.43","0.433","2.767","0.03","0.16","30.0559","4.72961","23.2","0","SATNPRO1964","29.326","0.41076","5"],
    [59560,"HCEP03730563","2025-09-08 19:45:00","11.0155","3.40662","27.098","2.123","7.43","0.455","2.991","0.05","0.49","30.0541","4.72938","23.3","0","SATNPRO1964","29.25","0.40968","5"],
    [59561,"HCEP03730563","2025-09-08 20:00:00","11.0188","3.40708","26.967","2.134","7.43","0.496","2.562","0.13","0.14","30.0559","4.72958","23.42","0","SATNPRO1964","29.258","0.40978","5"],
    [59562,"HCEP03730563","2025-09-08 20:15:00","11.0227","3.40758","26.833","2.157","7.43","0.444","2.453","0.05","0.1","30.0577","4.72978","23.68","0","SATNPRO1964","29.628","0.41502","5"],
    [59563,"HCEP03730563","2025-09-08 20:30:00","11.0374","3.4105","26.674","2.194","7.44","0.47","4.378","0.04","0.2","30.0743","4.73189","24.09","0","SATNPRO1964","29.404","0.4119","5"],
    [59564,"HCEP03730563","2025-09-08 20:45:00","11.0378","3.41019","26.522","2.199","7.44","0.463","4.283","0.04","0.45","30.071","4.73141","24.15","0","SATNPRO1964","29.642","0.4152","5"],
    [59565,"HCEP03730563","2025-09-08 21:00:00","11.0272","3.4078","26.343","2.224","7.44","0.44","4.01","0.05","0.24","30.0563","4.72948","24.41","0","SATNPRO1964","29.676","0.41568","5"],
    [59566,"HCEP03730563","2025-09-08 21:15:00","11.0248","3.40727","26.146","2.241","7.44","0.444","3.116","0.06","0.33","30.0532","4.72906","24.6","0","SATNPRO1964","30.036","0.4207","5"],
    [59567,"HCEP03730563","2025-09-08 21:30:00","11.0352","3.4107","25.953","2.218","7.44","0.457","4.539","0.09","0.28","30.0784","4.73246","24.35","0","SATNPRO1964","29.44","0.41236","5"],
    [59568,"HCEP03730563","2025-09-08 21:45:00","11.0442","3.41145","25.751","2.126","7.43","0.463","5.146","0.04","0.26","30.0784","4.73232","23.36","0","SATNPRO1964","28.65","0.4013","5"],
    [59569,"HCEP03730563","2025-09-08 22:00:00","11.0477","3.41225","25.62","2.102","7.43","0.451","5.381","0.06","0.28","30.0833","4.73296","23.09","0","SATNPRO1964","28.62","0.40084","5"],
    [59570,"HCEP03730563","2025-09-08 22:15:00","11.0421","3.41097","25.453","2.128","7.44","0.418","4.173","0.03","0.37","30.0756","4.73193","23.37","0","SATNPRO1964","29.242","0.4096","5"],
    [59571,"HCEP03730563","2025-09-08 22:30:00","11.0459","3.41136","25.254","2.194","7.44","0.426","3.966","0.09","0.17","30.0763","4.73197","24.1","0","SATNPRO1964","29.366","0.4113","5"],
    [59572,"HCEP03730563","2025-09-08 22:45:00","11.0388","3.41052","25.109","2.228","7.44","0.424","3.913","0.05","0.21","30.0739","4.73173","24.47","0","SATNPRO1964","29.416","0.41204","5"],
    [59573,"HCEP03730563","2025-09-08 23:00:00","11.0374","3.41052","25.017","2.186","7.44","0.392","4.037","0.04","0.25","30.0752","4.73192","24.01","0","SATNPRO1964","29.16","0.40848","5"],
    [59574,"HCEP03730563","2025-09-08 23:15:00","11.0486","3.412","24.952","2.204","7.44","0.418","3.676","0.05","0.28","30.0805","4.7325","24.21","0","SATNPRO1964","29.434","0.41224","5"],
    [59575,"HCEP03730563","2025-09-08 23:30:00","11.062","3.41412","24.962","2.26","7.44","0.381","3.684","0.03","0.33","30.0903","4.73369","24.84","0","SATNPRO1964","29.494","0.41308","5"],
    [59576,"HCEP03730563","2025-09-08 23:45:00","11.0625","3.41463","25.057","2.269","7.44","0.444","4.386","0.04","0.28","30.0948","4.73432","24.94","0","SATNPRO1964","29.246","0.40966","5"],
    [59577,"HCEP03730563","2025-09-09 00:00:00","11.0616","3.41471","25.099","2.225","7.44","0.424","4.609","0.03","0.2","30.0963","4.73455","24.46","0","SATNPRO1964","28.904","0.40482","5"],
    [59578,"HCEP03730563","2025-09-09 00:15:00","11.0614","3.41479","25.174","2.183","7.44","0.464","4.439","0.07","0.18","30.0971","4.73468","23.99","0","SATNPRO1964","28.852","0.40414","5"],
    [59579,"HCEP03730563","2025-09-09 00:30:00","11.0641","3.41474","25.289","2.183","7.44","0.415","4.062","0.07","0.15","30.0945","4.73428","23.99","0","SATNPRO1964","29.148","0.40826","5"],
    [59580,"HCEP03730563","2025-09-09 00:45:00","11.0638","3.41486","25.39","2.208","7.44","0.415","3.781","0.05","0.18","30.0958","4.73446","24.26","0","SATNPRO1964","29.288","0.41022","5"],
    [59581,"HCEP03730563","2025-09-09 01:00:00","11.0573","3.41302","25.488","2.225","7.44","0.398","3.761","0.04","0.16","30.0831","4.73278","24.45","0","SATNPRO1964","29.772000000000002","0.41702","5"],
    [59582,"HCEP03730563","2025-09-09 01:15:00","11.0634","3.41455","25.615","2.251","7.44","0.417","3.561","0.03","0.06","30.093","4.73409","24.74","0","SATNPRO1964","29.706","0.41608","5"],
    [59583,"HCEP03730563","2025-09-09 01:30:00","11.0637","3.41412","25.738","2.258","7.45","0.391","3.695","0.03","0.24","30.0886","4.73347","24.82","0","SATNPRO1964","29.334","0.41088","5"],
    [59584,"HCEP03730563","2025-09-09 01:45:00","11.0649","3.41359","25.877","2.287","7.45","0.566","3.126","0.29","0.11","30.0823","4.73256","25.13","0","SATNPRO1964","29.736","0.41648","5"],
    [59585,"HCEP03730563","2025-09-09 02:00:00","11.0645","3.41523","26.015","2.259","7.44","0.401","3.976","0.04","0.13","30.0986","4.7349","24.83","0","SATNPRO1964","29.098","0.40754","5"],
    [59586,"HCEP03730563","2025-09-09 02:15:00","11.0665","3.41465","26.157","2.217","7.44","0.409","2.682","0.04","0.15","30.0912","4.73382","24.37","0","SATNPRO1964","30.13","0.42202","5"],
    [59587,"HCEP03730563","2025-09-09 02:30:00","11.0645","3.41537","26.31","2.177","7.44","0.415","4.578","0.03","0.23","30.0998","4.73508","23.92","0","SATNPRO1964","28.806","0.4035","5"],
    [59588,"HCEP03730563","2025-09-09 02:45:00","11.0652","3.41548","26.464","2.084","7.43","0.461","4.183","0.03","0.06","30.1003","4.73515","22.9","0","SATNPRO1964","28.496","0.39916","5"],
    [59589,"HCEP03730563","2025-09-09 03:00:00","11.066","3.41557","26.617","2.064","7.43","0.442","4.77","0.03","0.18","30.1005","4.73517","22.69","0","SATNPRO1964","28.336000000000002","0.39692","5"],
    [59590,"HCEP03730563","2025-09-09 03:15:00","11.0673","3.41572","26.778","2.071","7.43","0.462","4.319","0.04","0.15","30.1008","4.7352","22.76","0","SATNPRO1964","28.54","0.39976","5"],
    [59591,"HCEP03730563","2025-09-09 03:30:00","11.0682","3.41579","26.933","2.094","7.43","0.436","4.215","0.04","0.2","30.1007","4.73519","23.02","0","SATNPRO1964","28.778","0.40306","5"],
    [59592,"HCEP03730563","2025-09-09 03:45:00","11.0679","3.41566","27.104","2.122","7.43","0.41","3.876","0.03","0.17","30.0996","4.73504","23.33","0","SATNPRO1964","28.838","0.40394","5"],
    [59593,"HCEP03730563","2025-09-09 04:00:00","11.0687","3.41564","27.254","2.139","7.44","0.414","4.555","0.05","0.22","30.0987","4.73491","23.51","0","SATNPRO1964","29.17","0.40858","5"],
    [59594,"HCEP03730563","2025-09-09 04:15:00","11.0667","3.41532","27.379","2.18","7.44","0.408","3.584","0.05","0.22","30.0971","4.73472","23.96","0","SATNPRO1964","29.302","0.41044","5"],
    [59595,"HCEP03730563","2025-09-09 04:30:00","11.0637","3.41479","27.488","2.135","7.43","0.415","4.546","0.06","0.24","30.0944","4.73439","23.47","0","SATNPRO1964","28.616","0.4008","5"],
    [59596,"HCEP03730563","2025-09-09 04:45:00","11.0598","3.4142","27.553","2.095","7.43","0.465","5.161","0.04","0.21","30.0918","4.73408","23.03","0","SATNPRO1964","28.572","0.40022","5"],
    [59597,"HCEP03730563","2025-09-09 05:00:00","11.0519","3.41273","27.612","2.074","7.43","0.438","4.469","0.08","0.24","30.0838","4.73308","22.79","0","SATNPRO1964","28.976","0.4059","5"],
    [59598,"HCEP03730563","2025-09-09 05:15:00","11.0396","3.41079","27.638","2.066","7.43","0.521","4.908","0.06","0.2","30.0749","4.732","22.69","0","SATNPRO1964","28.46","0.39864","5"],
    [59599,"HCEP03730563","2025-09-09 05:30:00","11.0163","3.40726","27.646","1.988","7.42","0.419","4.156","0.05","0.17","30.0595","4.73017","21.82","0","SATNPRO1964","28.336","0.3969","5"],
    [59600,"HCEP03730563","2025-09-09 05:45:00","11.0134","3.40683","27.62","1.88","7.41","0.466","4.768","0.05","0.2","30.0576","4.72995","20.63","0","SATNPRO1964","27.818","0.38964","5"],
    [59601,"HCEP03730563","2025-09-09 06:00:00","11.0092","3.4065","27.589","1.81","7.41","0.49","5.136","0.05","0.27","30.0579","4.73005","19.86","0","SATNPRO1964","27.634","0.38706","5"],
    [59602,"HCEP03730563","2025-09-09 06:15:00","11.0105","3.40656","27.535","1.793","7.4","0.47","4.737","0.05","0.19","30.0574","4.72995","19.68","0","SATNPRO1964","27.904","0.39086","5"],
    [59603,"HCEP03730563","2025-09-09 06:30:00","11.0242","3.40878","27.455","1.824","7.41","0.427","4.327","0.05","0.23","30.068","4.73124","20.02","0","SATNPRO1964","28.240000000000002","0.39558","5"],
    [59604,"HCEP03730563","2025-09-09 06:45:00","11.032","3.40979","27.345","1.898","7.41","0.452","4.479","0.04","0.18","30.0715","4.73161","20.85","0","SATNPRO1964","28.452","0.3985","5"],
    [59605,"HCEP03730563","2025-09-09 07:00:00","11.0405","3.41206","27.22","1.931","7.41","0.427","5.25","0.03","0.22","30.0868","4.73365","21.21","0","SATNPRO1964","28.148","0.39426","5"],
    [59606,"HCEP03730563","2025-09-09 07:15:00","11.0427","3.41178","27.091","1.924","7.41","0.456","5.126","0.06","0.15","30.0823","4.73297","21.13","0","SATNPRO1964","28.195999999999998","0.39494","5"],
    [59607,"HCEP03730563","2025-09-09 07:30:00","11.0501","3.41317","26.945","1.92","7.41","0.487","5.443","0.33","0.28","30.0899","4.73393","21.09","0","SATNPRO1964","28.184","0.39476","5"],
    [59608,"HCEP03730563","2025-09-09 07:45:00","11.0511","3.41295","26.788","1.928","7.41","0.424","5.063","0.03","0.24","30.087","4.7335","21.18","0","SATNPRO1964","28.362","0.39728","5"],
    [59609,"HCEP03730563","2025-09-09 08:00:00","11.0535","3.4137","26.633","1.94","7.41","0.396","5.376","0.03","0.31","30.0924","4.73422","21.31","0","SATNPRO1964","27.992","0.39206","5"],
    [59610,"HCEP03730563","2025-09-09 08:15:00","11.0549","3.41401","26.475","1.952","7.41","0.414","5.266","0.03","0.25","30.0943","4.73445","21.44","0","SATNPRO1964","28.034","0.39268","5"],
    [59611,"HCEP03730563","2025-09-09 08:30:00","11.0557","3.41422","26.317","1.929","7.41","0.369","5.258","0.02","0.28","30.0958","4.73465","21.2","0","SATNPRO1964","27.98","0.39196","5"],
    [59612,"HCEP03730563","2025-09-09 08:45:00","11.056","3.41424","26.141","1.892","7.41","0.426","5.073","0.12","0.21","30.0958","4.73464","20.79","0","SATNPRO1964","28.028000000000002","0.39258","5"],
    [59613,"HCEP03730563","2025-09-09 09:00:00","11.0546","3.4142","25.975","1.865","7.41","0.376","5.466","0.05","0.54","30.0966","4.73476","20.49","0","SATNPRO1964","27.842","0.38998","5"],
    [59614,"HCEP03730563","2025-09-09 09:15:00","11.0522","3.41365","25.787","1.871","7.41","0.36","4.234","0.02","0.21","30.0933","4.73431","20.55","0","SATNPRO1964","28.816","0.40362","5"],
    [59615,"HCEP03730563","2025-09-09 09:30:00","11.0204","3.40873","25.623","1.963","7.41","0.323","3.553","0.02","0.57","30.0712","4.73166","21.55","0","SATNPRO1964","27.93","0.3912","5"],
    [59616,"HCEP03730563","2025-09-09 09:45:00","11.0014","3.40686","25.426","1.734","7.39","0.331","3.303","0.03","0.3","30.0686","4.73157","19.03","0","SATNPRO1964","26.932000000000002","0.37726","5"],
    [59617,"HCEP03730563","2025-09-09 10:00:00","10.9743","3.40326","25.245","1.454","7.37","0.317","3.398","0.03","0.33","30.0557","4.73014","15.94","0","SATNPRO1964","26.032","0.36466","5"],
    [59618,"HCEP03730563","2025-09-09 10:15:00","10.9732","3.40316","25.087","1.285","7.36","0.55","3.418","1.07","0.28","30.0557","4.73014","14.09","0","SATNPRO1964","26.58","0.37232","5"],
    [59619,"HCEP03730563","2025-09-09 10:30:00","11.0109","3.40849","24.935","1.362","7.37","0.353","4.17","0.03","0.24","30.077","4.73258","14.95","0","SATNPRO1964","26.98","0.37786","5"],
    [59620,"HCEP03730563","2025-09-09 10:45:00","10.9791","3.40345","24.801","1.449","7.37","0.344","3.521","0.04","0.2","30.0537","4.72976","15.9","0","SATNPRO1964","27.016","0.3784","5"],
    [59621,"HCEP03730563","2025-09-09 11:00:00","10.9818","3.40408","24.718","1.421","7.36","0.318","3.403","0.06","0.15","30.0577","4.73028","15.58","0","SATNPRO1964","27.13","0.38004","5"],
    [59622,"HCEP03730563","2025-09-09 11:15:00","11.0116","3.40843","24.666","1.404","7.37","0.356","3.909","0.03","0.1","30.0759","4.73241","15.41","0","SATNPRO1964","26.912","0.37696","5"],
    [59623,"HCEP03730563","2025-09-09 11:30:00","10.9775","3.40334","24.663","1.423","7.36","0.295","3.183","0.02","0.13","30.054","4.72981","15.61","0","SATNPRO1964","27.324","0.38276","5"],
    [59624,"HCEP03730563","2025-09-09 11:45:00","10.9861","3.40487","24.706","1.366","7.36","0.36","3.358","0.05","0.2","30.0619","4.73081","14.98","0","SATNPRO1964","26.896","0.3767","5"],
    [59625,"HCEP03730563","2025-09-09 12:00:00","11.0005","3.4069","24.802","1.376","7.36","0.296","2.9","0.03","0.08","30.0699","4.73173","15.1","0","SATNPRO1964","26.584","0.37234","5"],
    [59626,"HCEP03730563","2025-09-09 12:15:00","11.0032","3.40703","24.889","1.413","7.36","0.349","3.289","0.04","0.08","30.069","4.73157","15.5","0","SATNPRO1964","27.041999999999998","0.37878","5"],
    [59627,"HCEP03730563","2025-09-09 12:30:00","11.0256","3.41027","25.016","1.491","7.37","0.35","3.574","0.12","0.14","30.0823","4.73312","16.37","0","SATNPRO1964","27.25","0.3817","5"],
    [59628,"HCEP03730563","2025-09-09 12:45:00","11.0201","3.40958","25.109","1.6","7.38","0.407","3.429","0.33","0.09","30.0801","4.73289","17.57","0","SATNPRO1964","27.562","0.38608","5"],
    [59629,"HCEP03730563","2025-09-09 13:00:00","11.0294","3.41077","25.226","1.646","7.38","0.335","3.752","0.02","0.19","30.084","4.73332","18.07","0","SATNPRO1964","27.574","0.38618","5"],
    [59630,"HCEP03730563","2025-09-09 13:15:00","11.0401","3.41232","25.387","1.69","7.39","0.405","4.831","0.06","0.2","30.0904","4.73406","18.56","0","SATNPRO1964","27.288","0.3822","5"],
    [59631,"HCEP03730563","2025-09-09 13:30:00","11.0486","3.41331","25.553","1.725","7.39","0.397","4.567","0.07","0.54","30.093","4.73431","18.96","0","SATNPRO1964","27.624","0.38694","5"],
    [59632,"HCEP03730563","2025-09-09 13:45:00","11.0522","3.41364","25.721","1.775","7.4","0.405","4.587","0.05","0.33","30.0932","4.7343","19.5","0","SATNPRO1964","27.954","0.39154","5"],
    [59633,"HCEP03730563","2025-09-09 14:00:00","11.0569","3.41412","25.895","1.862","7.4","0.385","4.602","0.06","0.24","30.0941","4.73436","20.45","0","SATNPRO1964","27.824","0.38972","5"],
    [59634,"HCEP03730563","2025-09-09 14:15:00","11.0567","3.41409","26.084","1.886","7.4","0.461","4.829","0.15","0.3","30.0938","4.73434","20.73","0","SATNPRO1964","27.804","0.38948","5"],
    [59635,"HCEP03730563","2025-09-09 14:30:00","11.0562","3.41398","26.274","1.887","7.4","0.383","4.549","0.04","0.29","30.093","4.73424","20.73","0","SATNPRO1964","27.834","0.38986","5"],
    [59636,"HCEP03730563","2025-09-09 14:45:00","11.0552","3.41368","26.458","1.902","7.41","0.459","4.369","0.21","0.26","30.0909","4.73396","20.9","0","SATNPRO1964","28.701999999999998","0.40204","5"],
    [59637,"HCEP03730563","2025-09-09 15:00:00","11.0527","3.41298","26.649","1.929","7.41","0.371","4.042","0.04","0.18","30.0861","4.73333","21.19","0","SATNPRO1964","28.332","0.39682","5"],
    [59638,"HCEP03730563","2025-09-09 15:15:00","11.0544","3.41349","26.836","1.947","7.41","0.404","4.108","0.04","0.25","30.0895","4.73379","21.39","0","SATNPRO1964","28.154","0.39434","5"],
    [59639,"HCEP03730563","2025-09-09 15:30:00","11.0543","3.4135","27.05","1.936","7.41","0.426","4.071","0.15","0.55","30.0896","4.73383","21.27","0","SATNPRO1964","28.252","0.39572","5"],
    [59640,"HCEP03730563","2025-09-09 15:45:00","11.052","3.41324","27.245","1.923","7.41","0.393","3.897","0.03","0.33","30.089","4.73378","21.12","0","SATNPRO1964","28.594","0.4005","5"],
    [59641,"HCEP03730563","2025-09-09 16:00:00","11.0513","3.41313","27.433","1.911","7.41","0.458","4.237","0.31","0.26","30.0883","4.73371","20.99","0","SATNPRO1964","28.402","0.39782","5"],
    [59642,"HCEP03730563","2025-09-09 16:15:00","11.049","3.41271","27.599","1.892","7.41","0.467","4.168","0.21","0.75","30.0861","4.73344","20.79","0","SATNPRO1964","28.11","0.39372","5"],
    [59643,"HCEP03730563","2025-09-09 16:30:00","11.0478","3.41264","27.743","1.885","7.41","0.367","4.326","0.04","0.37","30.0863","4.7335","20.71","0","SATNPRO1964","27.792","0.3893","5"],
    [59644,"HCEP03730563","2025-09-09 16:45:00","11.0462","3.41246","27.866","1.866","7.41","0.424","4.581","0.03","0.28","30.0858","4.73346","20.5","0","SATNPRO1964","27.946","0.39144","5"],
    [59645,"HCEP03730563","2025-09-09 17:00:00","11.042","3.4119","27.962","1.839","7.4","0.465","5.071","0.1","0.52","30.0838","4.73324","20.2","0","SATNPRO1964","27.724","0.38834","5"],
    [59646,"HCEP03730563","2025-09-09 17:15:00","11.0373","3.41123","28.021","1.796","7.4","0.464","5.139","0.08","0.19","30.081","4.73291","19.73","0","SATNPRO1964","27.506","0.38526","5"],
    [59647,"HCEP03730563","2025-09-09 17:30:00","11.0311","3.41018","28.042","1.749","7.4","0.375","4.172","0.03","0.19","30.0757","4.73227","19.21","0","SATNPRO1964","26.934","0.37722","5"],
    [59648,"HCEP03730563","2025-09-09 17:45:00","11.0273","3.40949","28.056","1.718","7.39","0.417","4.196","0.03","0.19","30.0722","4.73182","18.86","0","SATNPRO1964","27.594","0.38648","5"],
    [59649,"HCEP03730563","2025-09-09 18:00:00","11.0254","3.40898","28.02","1.717","7.39","0.44","4.277","0.08","0.41","30.0687","4.73136","18.85","0","SATNPRO1964","27.784","0.38918","5"],
    [59650,"HCEP03730563","2025-09-09 18:15:00","11.0161","3.4073","27.965","1.718","7.39","0.411","3.537","0.05","0.12","30.0598","4.73024","18.85","0","SATNPRO1964","27.834","0.38988","5"],
    [59651,"HCEP03730563","2025-09-09 18:30:00","10.974","3.4002","27.925","1.646","7.38","0.355","2.872","0.04","0.13","30.0249","4.72592","18.05","0","SATNPRO1964","27.826","0.38978","5"],
    [59652,"HCEP03730563","2025-09-09 18:45:00","10.9518","3.39765","27.853","1.515","7.38","0.366","2.742","0.05","0.17","30.018","4.72528","16.6","0","SATNPRO1964","28.172","0.39458","5"],
    [59653,"HCEP03730563","2025-09-09 19:00:00","10.9507","3.39774","27.744","1.459","7.37","0.354","2.951","0.03","0.23","30.0198","4.72555","15.99","0","SATNPRO1964","28.18","0.39478","5"],
    [59654,"HCEP03730563","2025-09-09 19:15:00","11.0142","3.40811","27.609","1.526","7.38","0.498","4.315","0.2","1.76","30.0695","4.73162","16.75","0","SATNPRO1964","27.648","0.38728","5"],
    [59655,"HCEP03730563","2025-09-09 19:30:00","11.0214","3.40873","27.481","1.643","7.38","0.397","4.345","0.05","0.39","30.0697","4.73153","18.04","0","SATNPRO1964","26.992","0.37806","5"],
    [59656,"HCEP03730563","2025-09-09 19:45:00","11.0184","3.40809","27.342","1.616","7.38","0.438","4.518","0.04","0.72","30.0659","4.73103","17.74","0","SATNPRO1964","27.066","0.37912","5"],
    [59657,"HCEP03730563","2025-09-09 20:00:00","11.0158","3.40732","27.194","1.61","7.38","0.417","4.055","0.07","0.18","30.0606","4.73031","17.67","0","SATNPRO1964","27.58","0.38634","5"],
    [59658,"HCEP03730563","2025-09-09 20:15:00","11.0101","3.40634","27.042","1.632","7.38","0.446","3.716","0.06","0.69","30.0558","4.72971","17.91","0","SATNPRO1964","27.366","0.38334","5"],
    [59659,"HCEP03730563","2025-09-09 20:30:00","11.0075","3.40591","26.885","1.626","7.38","0.386","3.493","0.04","0.21","30.0538","4.72945","17.85","0","SATNPRO1964","27.198","0.38094","5"],
    [59660,"HCEP03730563","2025-09-09 20:45:00","11.0041","3.40535","26.728","1.613","7.38","0.405","3.455","0.06","0.31","30.0511","4.72912","17.7","0","SATNPRO1964","27.298000000000002","0.38232","5"],
    [59661,"HCEP03730563","2025-09-09 21:00:00","11.0086","3.40611","26.539","1.611","7.38","0.363","3.361","0.06","0.21","30.0549","4.72957","17.68","0","SATNPRO1964","27.42","0.3841","5"],
    [59662,"HCEP03730563","2025-09-09 21:15:00","10.9884","3.40331","26.355","1.609","7.38","0.371","3.141","0.04","0.13","30.0441","4.72834","17.64","0","SATNPRO1964","28.06","0.39302","5"],
    [59663,"HCEP03730563","2025-09-09 21:30:00","10.9879","3.40348","26.162","1.604","7.38","0.337","3.08","0.04","0.12","30.0463","4.72865","17.6","0","SATNPRO1964","28.586","0.4004","5"],
    [59664,"HCEP03730563","2025-09-09 21:45:00","10.9913","3.40416","25.947","1.633","7.38","0.392","3.148","0.22","0.18","30.0502","4.72914","17.92","0","SATNPRO1964","28.744","0.40262","5"],
    [59665,"HCEP03730563","2025-09-09 22:00:00","10.9959","3.4048","25.726","1.613","7.38","0.315","2.857","0.03","0.14","30.0529","4.72943","17.7","0","SATNPRO1964","28.19","0.39482","5"],
    [59666,"HCEP03730563","2025-09-09 22:15:00","11.0014","3.40548","25.509","1.592","7.38","0.355","2.99","0.04","0.1","30.0551","4.72965","17.46","0","SATNPRO1964","27.456","0.38456","5"],
    [59667,"HCEP03730563","2025-09-09 22:30:00","10.9943","3.40449","25.307","1.533","7.37","0.34","3.403","0.03","1.02","30.0513","4.72921","16.82","0","SATNPRO1964","27.220000000000002","0.38126","5"],
    [59668,"HCEP03730563","2025-09-09 22:45:00","10.9953","3.40461","25.1","1.497","7.37","0.37","3.55","0.02","0.23","30.0517","4.72924","16.43","0","SATNPRO1964","27.212","0.38118","5"],
    [59669,"HCEP03730563","2025-09-09 23:00:00","10.9909","3.40396","24.931","1.493","7.37","0.335","3.059","0.04","0.14","30.049","4.72892","16.38","0","SATNPRO1964","27.573999999999998","0.38624","5"],
    [59670,"HCEP03730563","2025-09-09 23:15:00","10.9828","3.40299","24.814","1.505","7.37","0.329","2.466","0.04","0.2","30.0462","4.72863","16.51","0","SATNPRO1964","28.06","0.39304","5"],
    [59671,"HCEP03730563","2025-09-09 23:30:00","10.9586","3.39954","24.687","1.497","7.37","0.325","1.893","0.17","0.32","30.0322","4.72702","16.41","0","SATNPRO1964","27.912","0.39092","5"],
    [59672,"HCEP03730563","2025-09-09 23:45:00","10.9727","3.40182","24.662","1.482","7.37","0.341","2.6","0.04","0.38","30.043","4.72833","16.25","0","SATNPRO1964","28.008","0.39232","5"],
    [59673,"HCEP03730563","2025-09-10 00:00:00","10.9778","3.40227","24.619","1.495","7.37","0.347","2.823","0.03","0.12","30.0433","4.72829","16.39","0","SATNPRO1964","27.63","0.38704","5"],
    [59674,"HCEP03730563","2025-09-10 00:15:00","10.9549","3.39882","24.677","1.476","7.37","0.344","2.328","0.04","0.2","30.0283","4.72651","16.17","0","SATNPRO1964","27.58","0.38628","5"],
    [59675,"HCEP03730563","2025-09-10 00:30:00","10.9554","3.39833","24.725","1.47","7.37","0.314","2.221","0.02","0.22","30.0231","4.72577","16.11","0","SATNPRO1964","27.976","0.39184","5"],
    [59676,"HCEP03730563","2025-09-10 00:45:00","10.9669","3.4005","24.766","1.468","7.37","0.35","2.725","0.04","0.23","30.0348","4.72726","16.09","0","SATNPRO1964","28.126","0.39396","5"],
    [59677,"HCEP03730563","2025-09-10 01:00:00","10.9591","3.39937","24.824","1.465","7.37","0.323","2.429","0.03","0.22","30.0301","4.72671","16.06","0","SATNPRO1964","28.18","0.39472","5"],
    [59678,"HCEP03730563","2025-09-10 01:15:00","10.9705","3.40106","24.869","1.464","7.37","2.535","68.3","1.67","27.41","30.0373","4.72756","16.05","0","SATNPRO1964","27.834","0.38988","5"],
    [59679,"HCEP03730563","2025-09-10 01:30:00","10.9943","3.40452","25.014","1.467","7.37","0.378","4.287","0.03","0.4","30.0517","4.72925","16.09","0","SATNPRO1964","26.908","0.3769","5"],
    [59680,"HCEP03730563","2025-09-10 01:45:00","11.0098","3.40719","25.127","1.472","7.37","0.429","4.39","0.06","0.32","30.0651","4.73093","16.16","0","SATNPRO1964","26.936","0.37726","5"],
    [59681,"HCEP03730563","2025-09-10 02:00:00","11.0245","3.40934","25.263","1.506","7.37","0.435","4.973","0.03","0.29","30.074","4.73197","16.54","0","SATNPRO1964","26.732","0.37444","5"],
    [59682,"HCEP03730563","2025-09-10 02:15:00","11.0294","3.41006","25.434","1.539","7.37","3.885","58.468","3.77","28.64","30.0771","4.73234","16.9","0","SATNPRO1964","26.73","0.3744","5"],
    [59683,"HCEP03730563","2025-09-10 02:30:00","11.0341","3.41075","25.645","1.567","7.38","0.403","4.382","0.05","0.21","30.0798","4.73267","17.21","0","SATNPRO1964","26.964","0.3777","5"],
    [59684,"HCEP03730563","2025-09-10 02:45:00","11.0352","3.4108","25.764","1.607","7.38","0.428","4.233","0.06","0.17","30.0794","4.7326","17.65","0","SATNPRO1964","27.056","0.37892","5"],
    [59685,"HCEP03730563","2025-09-10 03:00:00","11.036","3.41092","25.929","1.627","7.38","0.383","4.126","0.04","0.13","30.0798","4.73266","17.87","0","SATNPRO1964","26.948","0.37746","5"],
    [59686,"HCEP03730563","2025-09-10 03:15:00","11.0364","3.41091","26.096","1.636","7.38","0.408","4.227","0.03","0.22","30.0794","4.7326","17.96","0","SATNPRO1964","27.164","0.38048","5"],
    [59687,"HCEP03730563","2025-09-10 03:30:00","11.0345","3.41057","26.252","1.643","7.38","0.483","10.942","0.22","15.04","30.0774","4.73236","18.04","0","SATNPRO1964","27.276","0.38202","5"],
    [59688,"HCEP03730563","2025-09-10 03:45:00","11.0329","3.41031","26.423","1.643","7.38","0.446","5.2","0.09","2.77","30.0762","4.73222","18.04","0","SATNPRO1964","27.248","0.38166","5"],
    [59689,"HCEP03730563","2025-09-10 04:00:00","11.0168","3.40788","26.598","1.633","7.38","0.357","3.945","0.04","0.23","30.0655","4.73096","17.92","0","SATNPRO1964","27.53","0.38564","5"],
    [59690,"HCEP03730563","2025-09-10 04:15:00","11.0245","3.40923","26.783","1.615","7.38","0.413","4.778","0.03","0.32","30.0724","4.73183","17.73","0","SATNPRO1964","26.952","0.37752","5"],
    [59691,"HCEP03730563","2025-09-10 04:30:00","11.028","3.4096","26.957","1.601","7.38","0.415","4.936","0.06","0.23","30.0731","4.73189","17.57","0","SATNPRO1964","26.508","0.37128","5"],
    [59692,"HCEP03730563","2025-09-10 04:45:00","11.0244","3.40908","27.135","1.574","7.38","0.415","4.487","0.03","0.18","30.0708","4.73162","17.28","0","SATNPRO1964","26.758","0.37478","5"],
    [59693,"HCEP03730563","2025-09-10 05:00:00","11.0148","3.40733","27.314","1.539","7.37","0.939","19.744","0.63","19.28","30.0615","4.73046","16.89","0","SATNPRO1964","26.638","0.37312","5"],
    [59694,"HCEP03730563","2025-09-10 05:15:00","11.0091","3.40615","27.364","1.51","7.37","0.384","4.003","0.02","0.15","30.0546","4.72957","16.57","0","SATNPRO1964","26.887999999999998","0.37658","5"],
    [59695,"HCEP03730563","2025-09-10 05:30:00","11.0114","3.40617","27.474","1.525","7.37","0.39","4.121","0.05","0.2","30.0529","4.7293","16.73","0","SATNPRO1964","26.842","0.37598","5"],
    [59696,"HCEP03730563","2025-09-10 05:45:00","11.0084","3.40538","27.525","1.553","7.37","0.466","5.2","0.07","0.34","30.0476","4.72859","17.04","0","SATNPRO1964","26.868","0.37634","5"],
    [59697,"HCEP03730563","2025-09-10 06:00:00","11.0057","3.40483","27.574","1.56","7.38","0.448","5.183","0.09","2.55","30.0443","4.72817","17.11","0","SATNPRO1964","26.9","0.37674","5"],
    [59698,"HCEP03730563","2025-09-10 06:15:00","11.0049","3.40482","27.6","1.557","7.37","0.466","4.987","0.11","1.66","30.0449","4.72827","17.08","0","SATNPRO1964","26.8","0.3754","5"],
    [59699,"HCEP03730563","2025-09-10 06:30:00","11.0015","3.40426","27.605","1.526","7.37","0.437","4.319","0.06","0.19","30.0422","4.72794","16.74","0","SATNPRO1964","26.824","0.37572","5"],
    [59700,"HCEP03730563","2025-09-10 06:45:00","10.9969","3.40338","27.569","1.494","7.37","0.471","4.069","0.18","0.28","30.0373","4.72732","16.39","0","SATNPRO1964","26.404","0.3698","5"],
    [59701,"HCEP03730563","2025-09-10 07:00:00","10.9948","3.40318","27.516","1.467","7.37","0.525","7.038","0.18","6.1","30.0372","4.72733","16.09","0","SATNPRO1964","26.438","0.3703","5"],
    [59702,"HCEP03730563","2025-09-10 07:15:00","10.9898","3.40226","27.457","1.424","7.36","0.433","4.265","0.05","0.18","30.0323","4.7267","15.62","0","SATNPRO1964","26.358","0.3692","5"],
    [59703,"HCEP03730563","2025-09-10 07:30:00","10.99","3.40259","27.37","1.386","7.36","0.423","4.533","0.06","0.43","30.0354","4.72714","15.21","0","SATNPRO1964","26.292","0.36826","5"],
    [59704,"HCEP03730563","2025-09-10 07:45:00","10.985900000000001","3.40179","27.277","1.369","7.36","0.436","4.503","0.09","0.23","30.0309","4.72656","15.02","0","SATNPRO1964","26.046","0.3648","5"],
    [59705,"HCEP03730563","2025-09-10 08:00:00","10.9795","3.40054","27.162","1.303","7.35","0.417","3.898","0.04","0.16","30.024","4.72567","14.28","0","SATNPRO1964","25.394","0.35564","5"],
    [59706,"HCEP03730563","2025-09-10 08:15:00","10.9775","3.39995","27.037","1.226","7.35","0.452","4.043","0.07","0.26","30.0198","4.7251","13.44","0","SATNPRO1964","25.526","0.35752","5"],
    [59707,"HCEP03730563","2025-09-10 08:30:00","10.979","3.4003","26.924","1.196","7.35","0.428","4.177","0.07","0.18","30.0221","4.7254","13.11","0","SATNPRO1964","25.698","0.35994","5"],
    [59708,"HCEP03730563","2025-09-10 08:45:00","10.9815","3.40079","26.8","1.199","7.34","0.466","4.818","0.06","0.39","30.025","4.72575","13.15","0","SATNPRO1964","25.39","0.3556","5"],
    [59709,"HCEP03730563","2025-09-10 09:00:00","10.9813","3.40097","26.69","1.207","7.34","0.39","4.429","0.05","0.24","30.0269","4.72602","13.24","0","SATNPRO1964","25.588","0.35842","5"],
    [59710,"HCEP03730563","2025-09-10 09:15:00","10.9784","3.40002","26.556","1.204","7.34","0.444","3.955","0.12","0.12","30.0201","4.7251","13.2","0","SATNPRO1964","25.596","0.35854","5"],
    [59711,"HCEP03730563","2025-09-10 09:30:00","10.979","3.40018","26.415","1.202","7.34","0.394","4.103","0.05","0.11","30.0212","4.72523","13.18","0","SATNPRO1964","25.898","0.36272","5"],
    [59712,"HCEP03730563","2025-09-10 09:45:00","10.9795","3.40035","26.271","1.225","7.34","0.392","4.078","0.03","0.18","30.0224","4.72539","13.43","0","SATNPRO1964","25.99","0.36402","5"],
    [59713,"HCEP03730563","2025-09-10 10:00:00","10.9816","3.40089","26.128","1.244","7.35","0.386","4.183","0.07","0.15","30.026","4.72586","13.64","0","SATNPRO1964","25.892","0.36268","5"],
    [59714,"HCEP03730563","2025-09-10 10:15:00","10.9813","3.40069","25.966","1.255","7.35","0.405","4.526","0.05","0.28","30.0244","4.72563","13.76","0","SATNPRO1964","25.94","0.36332","5"],
    [59715,"HCEP03730563","2025-09-10 10:30:00","10.9918","3.40346","25.818","1.24","7.35","0.395","5.008","0.08","0.24","30.043","4.7281","13.6","0","SATNPRO1964","25.944","0.36336","5"],
    [59716,"HCEP03730563","2025-09-10 10:45:00","10.9959","3.40447","25.695","1.23","7.34","0.402","5.641","0.03","0.31","30.0496","4.72896","13.5","0","SATNPRO1964","25.724","0.36034","5"],
    [59717,"HCEP03730563","2025-09-10 11:00:00","10.9941","3.40409","25.546","1.22","7.34","0.392","5.651","0.03","0.58","30.0474","4.72868","13.39","0","SATNPRO1964","25.538","0.3577","5"],
    [59718,"HCEP03730563","2025-09-10 11:15:00","10.992","3.4036","25.425","1.202","7.34","0.397","5.092","0.04","0.22","30.0445","4.72828","13.18","0","SATNPRO1964","25.503999999999998","0.35722","5"],
    [59719,"HCEP03730563","2025-09-10 11:30:00","10.9882","3.4031","25.297","1.199","7.34","0.367","4.554","0.04","0.21","30.0427","4.72808","13.15","0","SATNPRO1964","25.733999999999998","0.36044","5"],
    [59720,"HCEP03730563","2025-09-10 11:45:00","10.9878","3.40311","25.199","1.212","7.34","0.38","4.602","0.05","0.22","30.0431","4.72814","13.3","0","SATNPRO1964","25.638","0.35914","5"],
    [59721,"HCEP03730563","2025-09-10 12:00:00","10.9886","3.40327","25.166","1.209","7.34","0.366","4.677","0.03","0.19","30.044","4.72826","13.26","0","SATNPRO1964","25.682","0.35976","5"],
    [59722,"HCEP03730563","2025-09-10 12:15:00","10.9976","3.40505","25.173","1.197","7.34","0.397","5.32","0.04","0.34","30.0541","4.72955","13.14","0","SATNPRO1964","25.416","0.356","5"],
    [59723,"HCEP03730563","2025-09-10 12:30:00","11.001","3.40574","25.199","1.2","7.34","0.377","4.748","0.11","0.26","30.0581","4.73006","13.17","0","SATNPRO1964","25.872","0.36236","5"],
    [59724,"HCEP03730563","2025-09-10 12:45:00","10.987","3.4036","25.257","1.261","7.35","0.409","5.071","0.05","0.61","30.0485","4.72892","13.83","0","SATNPRO1964","27.582","0.38632","5"],
    [59725,"HCEP03730563","2025-09-10 13:00:00","10.9901","3.40424","25.346","1.305","7.35","0.35","4.216","0.03","0.2","30.0523","4.72941","14.32","0","SATNPRO1964","26.478","0.37088","5"],
    [59726,"HCEP03730563","2025-09-10 13:15:00","11.0038","3.40634","25.456","1.29","7.35","0.387","5.011","0.03","0.2","30.0616","4.73053","14.16","0","SATNPRO1964","25.858","0.36218","5"],
    [59727,"HCEP03730563","2025-09-10 13:30:00","11.0061","3.40663","25.576","1.283","7.35","0.349","4.581","0.03","0.24","30.0624","4.73062","14.08","0","SATNPRO1964","25.922","0.36308","5"],
    [59728,"HCEP03730563","2025-09-10 13:45:00","11.0063","3.40671","25.718","1.286","7.35","0.355","4.218","0.03","0.16","30.063","4.73071","14.11","0","SATNPRO1964","25.74","0.3605","5"],
    [59729,"HCEP03730563","2025-09-10 14:00:00","11.0075","3.40689","25.861","1.289","7.35","0.339","4.476","0.04","0.33","30.0638","4.73081","14.14","0","SATNPRO1964","26.056","0.36494","5"],
    [59730,"HCEP03730563","2025-09-10 14:15:00","11.0075","3.40688","26.004","1.293","7.35","0.382","4.351","0.05","0.13","30.0636","4.73079","14.19","0","SATNPRO1964","26.034","0.36464","5"],
    [59731,"HCEP03730563","2025-09-10 14:30:00","11.0069","3.4067","26.155","1.312","7.35","0.345","4.235","0.04","0.23","30.0622","4.73062","14.4","0","SATNPRO1964","26.128","0.366","5"],
    [59732,"HCEP03730563","2025-09-10 14:45:00","11.0068","3.40652","26.319","1.343","7.35","0.373","4.376","0.03","0.15","30.0605","4.73038","14.74","0","SATNPRO1964","26.552","0.37194","5"],
    [59733,"HCEP03730563","2025-09-10 15:00:00","11.0075","3.40657","26.492","1.369","7.36","0.344","4.646","0.04","0.41","30.0604","4.73036","15.02","0","SATNPRO1964","26.594","0.37254","5"],
    [59734,"HCEP03730563","2025-09-10 15:15:00","11.0042","3.40603","26.661","1.388","7.36","0.36","3.942","0.03","0.16","30.0577","4.73005","15.23","0","SATNPRO1964","26.926","0.37718","5"],
    [59735,"HCEP03730563","2025-09-10 15:30:00","10.9989","3.40511","26.835","1.406","7.36","0.324","3.812","0.02","0.16","30.053","4.72947","15.42","0","SATNPRO1964","26.826","0.37574","5"],
    [59736,"HCEP03730563","2025-09-10 15:45:00","11.0063","3.40629","27.014","1.409","7.36","0.371","4.14","0.04","0.16","30.0584","4.73013","15.46","0","SATNPRO1964","26.504","0.37122","5"],
    [59737,"HCEP03730563","2025-09-10 16:00:00","11.0092","3.4068","27.192","1.392","7.36","0.367","4.478","0.04","0.24","30.0609","4.73045","15.27","0","SATNPRO1964","25.984","0.36398","5"],
    [59738,"HCEP03730563","2025-09-10 16:15:00","11.0077","3.40634","27.364","1.368","7.36","0.449","4.789","0.27","0.36","30.0576","4.73002","15.01","0","SATNPRO1964","26.168","0.36652","5"],
    [59739,"HCEP03730563","2025-09-10 16:30:00","11.0078","3.40665","27.509","1.362","7.36","0.406","5.006","0.08","0.35","30.0605","4.73043","14.94","0","SATNPRO1964","26.308","0.36848","5"],
    [59740,"HCEP03730563","2025-09-10 16:45:00","10.999","3.40459","27.662","1.364","7.36","0.435","4.99","0.04","0.39","30.0475","4.72873","14.96","0","SATNPRO1964","26.588","0.37242","5"],
    [59741,"HCEP03730563","2025-09-10 17:00:00","11.0071","3.40623","27.818","1.356","7.36","0.421","4.889","0.05","0.4","30.0569","4.72995","14.88","0","SATNPRO1964","26.182","0.36672","5"],
    [59742,"HCEP03730563","2025-09-10 17:15:00","11.009","3.40653","27.931","1.337","7.35","0.499","5.238","0.12","0.3","30.0582","4.73011","14.67","0","SATNPRO1964","25.828","0.3618","5"],
    [59743,"HCEP03730563","2025-09-10 17:30:00","11.0074","3.40613","27.99","1.31","7.35","0.444","5.073","0.07","0.33","30.0556","4.72977","14.38","0","SATNPRO1964","25.728","0.36036","5"],
    [59744,"HCEP03730563","2025-09-10 17:45:00","11.0057","3.40576","28.063","1.294","7.35","0.449","5.022","0.06","0.29","30.0533","4.72947","14.2","0","SATNPRO1964","25.566","0.35808","5"],
    [59745,"HCEP03730563","2025-09-10 18:00:00","11.0062","3.4057","28.079","1.292","7.35","0.402","4.675","0.03","0.33","30.0523","4.72933","14.18","0","SATNPRO1964","25.656","0.35938","5"],
    [59746,"HCEP03730563","2025-09-10 18:15:00","11.0061","3.4055","28.085","1.31","7.35","0.438","4.884","0.07","0.36","30.0503","4.72905","14.38","0","SATNPRO1964","25.706","0.36006","5"],
    [59747,"HCEP03730563","2025-09-10 18:30:00","11.0061","3.40545","28.082","1.318","7.35","0.431","5.235","0.07","1.53","30.05","4.729","14.46","0","SATNPRO1964","25.748","0.36062","5"],
    [59748,"HCEP03730563","2025-09-10 18:45:00","11.0069","3.40549","28.049","1.325","7.35","0.493","4.735","0.2","0.37","30.0497","4.72894","14.54","0","SATNPRO1964","25.868","0.36234","5"],
    [59749,"HCEP03730563","2025-09-10 19:00:00","11.0076","3.4056","27.981","1.342","7.35","0.402","4.72","0.04","0.31","30.0502","4.72901","14.73","0","SATNPRO1964","25.762","0.36084","5"],
    [59750,"HCEP03730563","2025-09-10 19:15:00","11.0085","3.40574","27.906","1.366","7.36","0.442","4.762","0.06","0.35","30.0508","4.72907","14.99","0","SATNPRO1964","26.068","0.36512","5"],
    [59751,"HCEP03730563","2025-09-10 19:30:00","11.0087","3.40576","27.793","1.399","7.36","0.413","4.698","0.04","0.31","30.0509","4.72908","15.35","0","SATNPRO1964","25.982","0.3639","5"],
    [59752,"HCEP03730563","2025-09-10 19:45:00","11.0088","3.40575","27.667","1.4","7.36","0.403","4.357","0.02","0.21","30.0508","4.72906","15.36","0","SATNPRO1964","26.146","0.36618","5"],
    [59753,"HCEP03730563","2025-09-10 20:00:00","11.0083","3.40571","27.53","1.39","7.36","0.39","4.474","0.05","0.62","30.0509","4.72907","15.26","0","SATNPRO1964","25.902","0.36284","5"],
    [59754,"HCEP03730563","2025-09-10 20:15:00","11.0088","3.40579","27.389","1.368","7.36","0.413","4.305","0.05","0.15","30.0514","4.72911","15.01","0","SATNPRO1964","26.02","0.36448","5"],
    [59755,"HCEP03730563","2025-09-10 20:30:00","11.0087","3.40581","27.217","1.364","7.36","0.409","5.115","0.04","0.36","30.0517","4.72915","14.97","0","SATNPRO1964","25.866","0.3623","5"],
    [59756,"HCEP03730563","2025-09-10 20:45:00","11.008","3.40572","27.038","1.362","7.36","0.404","4.527","0.05","0.26","30.0514","4.72912","14.94","0","SATNPRO1964","25.844","0.36196","5"],
    [59757,"HCEP03730563","2025-09-10 21:00:00","11.0072","3.40558","26.858","1.355","7.36","0.391","4.725","0.03","0.34","30.0507","4.72902","14.87","0","SATNPRO1964","25.906","0.36284","5"],
    [59758,"HCEP03730563","2025-09-10 21:15:00","11.0069","3.40554","26.675","1.337","7.35","0.396","4.49","0.03","0.2","30.0507","4.72901","14.67","0","SATNPRO1964","25.884","0.36256","5"],
    [59759,"HCEP03730563","2025-09-10 21:30:00","11.0063","3.40551","26.499","1.331","7.35","0.39","4.692","0.05","0.22","30.051","4.72905","14.6","0","SATNPRO1964","25.812","0.36156","5"],
    [59760,"HCEP03730563","2025-09-10 21:45:00","11.0057","3.40538","26.303","1.332","7.35","0.387","4.56","0.03","0.23","30.0503","4.72895","14.62","0","SATNPRO1964","25.704","0.36004","5"],
    [59761,"HCEP03730563","2025-09-10 22:00:00","11.0051","3.40529","26.086","1.31","7.35","0.373","4.475","0.04","0.12","30.05","4.7289","14.38","0","SATNPRO1964","25.663999999999998","0.35944","5"],
    [59762,"HCEP03730563","2025-09-10 22:15:00","11.0052","3.4054","25.861","1.307","7.35","0.406","4.2","0.05","0.25","30.0511","4.72904","14.34","0","SATNPRO1964","25.658","0.3594","5"],
    [59763,"HCEP03730563","2025-09-10 22:30:00","11.0048","3.40546","25.633","1.32","7.35","0.364","4.173","0.04","0.26","30.052","4.72917","14.48","0","SATNPRO1964","26.022","0.36446","5"],
    [59764,"HCEP03730563","2025-09-10 22:45:00","11.0029","3.40512","25.375","1.301","7.35","0.404","4.862","0.05","0.48","30.0504","4.72895","14.27","0","SATNPRO1964","25.416","0.35598","5"],
    [59765,"HCEP03730563","2025-09-10 23:00:00","11.0004","3.40471","25.114","1.227","7.35","0.365","4.642","0.03","0.19","30.0485","4.72871","13.46","0","SATNPRO1964","25.212","0.35318","5"],
    [59766,"HCEP03730563","2025-09-10 23:15:00","10.9942","3.4038","24.919","1.159","7.34","0.389","4.886","0.04","0.17","30.0448","4.72826","12.71","0","SATNPRO1964","24.572","0.3442","5"],
    [59767,"HCEP03730563","2025-09-10 23:30:00","10.9948","3.4039","24.722","1.089","7.33","0.368","5.052","0.03","0.23","30.0453","4.72832","11.95","0","SATNPRO1964","24.612","0.3447","5"],
    [59768,"HCEP03730563","2025-09-10 23:45:00","10.9901","3.40307","24.582","1.07","7.33","0.399","4.995","0.05","0.22","30.041","4.72778","11.74","0","SATNPRO1964","24.672","0.34558","5"],
    [59769,"HCEP03730563","2025-09-11 00:00:00","10.9912","3.40312","24.461","1.062","7.33","0.367","4.843","0.04","0.18","30.0407","4.72771","11.65","0","SATNPRO1964","24.71","0.3461","5"],
    [59770,"NA","2025-09-11 00:15:00",null,null,null,null,null,null,null,null,null,null,null,null,null,"SATNPRO1964","24.636","0.34504","5"],
    [59771,"HCEP03730563","2025-09-11 00:15:01","10.9936","3.40371","24.388","1.061","7.33","0.38","4.556","0.04","0.24","30.0445","4.72821","11.64","0","NA",null,null,null],
    [59772,"HCEP03730563","2025-09-11 00:30:00","10.9959","3.40412","24.34","1.068","7.33","0.357","4.827","0.04","0.3","30.0468","4.72849","11.72","0","SATNPRO1964","24.624","0.34494","5"],
    [59773,"HCEP03730563","2025-09-11 00:45:00","10.9982","3.4045","24.365","1.088","7.33","0.417","4.84","0.08","0.36","30.0486","4.72872","11.94","0","SATNPRO1964","24.934","0.34922","5"],
    [59774,"HCEP03730563","2025-09-11 01:00:00","11.0009","3.40489","24.369","1.13","7.34","0.363","4.454","0.04","0.31","30.0502","4.7289","12.39","0","SATNPRO1964","25.258","0.3538","5"],
    [59775,"HCEP03730563","2025-09-11 01:15:00","11.0024","3.40514","24.403","1.173","7.34","0.393","4.648","0.03","0.3","30.0513","4.72904","12.87","0","SATNPRO1964","25.454","0.35652","5"],
    [59776,"HCEP03730563","2025-09-11 01:30:00","11.0045","3.4055","24.444","1.198","7.34","0.368","4.672","0.04","0.25","30.0532","4.72928","13.15","0","SATNPRO1964","25.444","0.35638","5"],
    [59777,"HCEP03730563","2025-09-11 01:45:00","11.0059","3.40569","24.498","1.217","7.34","0.406","4.805","0.06","0.25","30.0539","4.72936","13.36","0","SATNPRO1964","25.332","0.35488","5"],
    [59778,"HCEP03730563","2025-09-11 02:00:00","11.0076","3.4059","24.589","1.248","7.34","0.365","4.369","0.03","0.17","30.0545","4.72942","13.69","0","SATNPRO1964","25.818","0.3616","5"],
    [59779,"HCEP03730563","2025-09-11 02:15:00","11.0072","3.40572","24.716","1.283","7.35","0.363","3.999","0.03","0.22","30.053","4.72922","14.08","0","SATNPRO1964","25.906","0.36288","5"],
    [59780,"HCEP03730563","2025-09-11 02:30:00","11.0125","3.40665","24.87","1.313","7.35","0.383","4.985","0.04","1.06","30.0577","4.72981","14.41","0","SATNPRO1964","25.817999999999998","0.3616","5"],
    [59781,"HCEP03730563","2025-09-11 02:45:00","11.0157","3.40704","25.022","1.34","7.35","0.396","4.599","0.05","0.22","30.0589","4.72995","14.71","0","SATNPRO1964","25.990000000000002","0.364","5"],
    [59782,"HCEP03730563","2025-09-11 03:00:00","11.0172","3.40727","25.18","1.378","7.36","4.699","197.915","1.28","37.82","30.0598","4.73007","15.12","0","SATNPRO1964","26.15","0.36628","5"],
    [59783,"HCEP03730563","2025-09-11 03:15:00","11.0201","3.40765","25.359","1.391","7.36","0.427","4.704","0.03","0.29","30.0611","4.73021","15.27","0","SATNPRO1964","26.216","0.36722","5"],
    [59784,"HCEP03730563","2025-09-11 03:30:00","11.0224","3.40789","25.513","1.423","7.36","0.376","4.333","0.08","0.22","30.0615","4.73024","15.62","0","SATNPRO1964","26.330000000000002","0.36878","5"],
    [59785,"HCEP03730563","2025-09-11 03:45:00","11.0238","3.40799","25.633","1.454","7.36","0.418","5.122","0.03","0.34","30.0613","4.7302","15.97","0","SATNPRO1964","26.366","0.36928","5"],
    [59786,"HCEP03730563","2025-09-11 04:00:00","11.027","3.40836","25.793","1.479","7.37","0.403","4.783","0.06","0.3","30.0621","4.73028","16.24","0","SATNPRO1964","26.56","0.372","5"],
    [59787,"HCEP03730563","2025-09-11 04:15:00","11.0294","3.40866","25.962","1.518","7.37","0.415","4.728","0.04","0.29","30.0631","4.73038","16.67","0","SATNPRO1964","26.61","0.37268","5"],
    [59788,"HCEP03730563","2025-09-11 04:30:00","11.0306","3.40889","26.125","1.534","7.37","0.393","4.651","0.06","0.28","30.0643","4.73054","16.85","0","SATNPRO1964","26.412","0.36994","5"],
    [59789,"HCEP03730563","2025-09-11 04:45:00","11.0305","3.40909","26.292","1.497","7.37","0.399","4.169","0.03","0.2","30.0662","4.73083","16.44","0","SATNPRO1964","25.79","0.36126","5"],
    [59790,"HCEP03730563","2025-09-11 05:00:00","11.029","3.40899","26.479","1.426","7.36","0.366","4.099","0.03","0.17","30.0665","4.7309","15.66","0","SATNPRO1964","25.5","0.35716","5"],
    [59791,"HCEP03730563","2025-09-11 05:15:00","11.0237","3.40835","26.683","1.354","7.36","0.394","4.04","0.03","0.16","30.0644","4.73071","14.86","0","SATNPRO1964","25.106","0.35166","5"],
    [59792,"HCEP03730563","2025-09-11 05:30:00","11.0182","3.40763","26.863","1.283","7.35","0.353","4.149","0.02","0.27","30.0619","4.73044","14.08","0","SATNPRO1964","24.75","0.34666","5"],
    [59793,"HCEP03730563","2025-09-11 05:45:00","11.0123","3.40693","27.06","1.211","7.34","0.38","4.069","0.03","0.18","30.0597","4.73022","13.29","0","SATNPRO1964","24.306","0.34046","5"],
    [59794,"HCEP03730563","2025-09-11 06:00:00","11.009","3.40641","27.222","1.126","7.34","0.361","4.293","0.04","0.24","30.0572","4.72994","12.36","0","SATNPRO1964","23.99","0.33602","5"],
    [59795,"HCEP03730563","2025-09-11 06:15:00","11.0076","3.40605","27.288","1.075","7.33","0.402","4.427","0.04","0.34","30.0549","4.72964","11.8","0","SATNPRO1964","23.824","0.3337","5"],
    [59796,"HCEP03730563","2025-09-11 06:30:00","11.0101","3.40621","27.36","1.063","7.33","0.383","4.391","0.04","0.39","30.0544","4.72953","11.67","0","SATNPRO1964","23.942","0.33532","5"],
    [59797,"HCEP03730563","2025-09-11 06:45:00","11.0141","3.40657","27.418","1.075","7.33","0.403","3.957","0.04","0.15","30.0546","4.72949","11.8","0","SATNPRO1964","24.092","0.33744","5"],
    [59798,"HCEP03730563","2025-09-11 07:00:00","11.0201","3.40709","27.5","1.109","7.34","0.372","3.607","0.04","0.16","30.0548","4.72944","12.17","0","SATNPRO1964","24.47","0.34278","5"],
    [59799,"HCEP03730563","2025-09-11 07:15:00","11.015","3.40654","27.481","1.13","7.34","0.399","4.253","0.04","0.28","30.0536","4.72934","12.4","0","SATNPRO1964","24.304","0.34038","5"],
    [59800,"HCEP03730563","2025-09-11 07:30:00","11.0121","3.40638","27.509","1.103","7.33","0.395","4.174","0.07","0.19","30.0543","4.72949","12.1","0","SATNPRO1964","24.330000000000002","0.34078","5"],
    [59801,"HCEP03730563","2025-09-11 07:45:00","11.0113","3.40634","27.465","1.103","7.33","0.413","4.458","0.06","0.35","30.0546","4.72954","12.11","0","SATNPRO1964","24.322","0.34064","5"],
    [59802,"HCEP03730563","2025-09-11 08:00:00","11.0113","3.40633","27.435","1.11","7.33","0.391","4.648","0.03","0.16","30.0546","4.72954","12.18","0","SATNPRO1964","24.282","0.34012","5"],
    [59803,"HCEP03730563","2025-09-11 08:15:00","11.011","3.40639","27.368","1.119","7.33","0.422","4.891","0.1","0.9","30.0553","4.72964","12.28","0","SATNPRO1964","24.408","0.34186","5"],
    [59804,"HCEP03730563","2025-09-11 08:30:00","11.0117","3.40636","27.335","1.131","7.33","0.396","4.5","0.05","0.25","30.0545","4.72951","12.41","0","SATNPRO1964","24.446","0.34244","5"],
    [59805,"HCEP03730563","2025-09-11 08:45:00","11.012","3.40629","27.274","1.14","7.34","0.476","4.409","0.18","0.17","30.0537","4.72938","12.52","0","SATNPRO1964","24.248","0.33962","5"],
    [59806,"HCEP03730563","2025-09-11 09:00:00","11.0139","3.40618","27.19","1.151","7.34","0.399","4.091","0.06","0.2","30.0511","4.72899","12.63","0","SATNPRO1964","24.808","0.34746","5"],
    [59807,"HCEP03730563","2025-09-11 09:15:00","11.0154","3.40626","27.093","1.168","7.34","0.403","4.045","0.05","0.29","30.0506","4.72888","12.82","0","SATNPRO1964","24.788","0.3472","5"],
    [59808,"HCEP03730563","2025-09-11 09:30:00","11.0178","3.40641","26.993","1.18","7.34","0.414","4.428","0.16","0.25","30.0502","4.72879","12.95","0","SATNPRO1964","24.642","0.34514","5"],
    [59809,"HCEP03730563","2025-09-11 09:45:00","11.0158","3.40641","26.904","1.208","7.34","0.411","4.358","0.02","0.09","30.0518","4.72904","13.26","0","SATNPRO1964","24.924","0.34914","5"],
    [59810,"HCEP03730563","2025-09-11 10:00:00","11.0141","3.40647","26.808","1.203","7.34","0.386","4.513","0.03","0.27","30.0539","4.72936","13.2","0","SATNPRO1964","24.904","0.34884","5"],
    [59811,"HCEP03730563","2025-09-11 10:15:00","11.0162","3.40694","26.712","1.215","7.34","0.381","4.419","0.02","0.32","30.0568","4.72973","13.33","0","SATNPRO1964","25.244","0.3536","5"],
    [59812,"HCEP03730563","2025-09-11 10:30:00","11.0176","3.40711","26.609","1.254","7.35","0.356","4.126","0.06","0.19","30.0573","4.72978","13.77","0","SATNPRO1964","25.576","0.35822","5"],
    [59813,"HCEP03730563","2025-09-11 10:45:00","11.0254","3.40838","26.497","1.306","7.35","0.382","4.771","0.03","0.2","30.0634","4.73052","14.33","0","SATNPRO1964","25.84","0.36196","5"],
    [59814,"HCEP03730563","2025-09-11 11:00:00","11.0305","3.40913","26.376","1.358","7.35","0.359","5.554","0.03","0.31","30.0666","4.73088","14.91","0","SATNPRO1964","26.166","0.36646","5"],
    [59815,"HCEP03730563","2025-09-11 11:15:00","11.0162","3.40658","26.243","1.366","7.35","0.367","3.715","0.04","0.35","30.0534","4.72923","15","0","SATNPRO1964","26.072","0.36516","5"],
    [59816,"HCEP03730563","2025-09-11 11:30:00","11.0097","3.40554","26.124","1.332","7.35","0.341","3.631","0.03","0.12","30.0487","4.72865","14.62","0","SATNPRO1964","25.35","0.35504","5"],
    [59817,"HCEP03730563","2025-09-11 11:45:00","11.0068","3.40477","26.014","1.27","7.35","0.362","3.555","0.03","0.17","30.0435","4.72795","13.94","0","SATNPRO1964","25.419999999999998","0.35604","5"],
    [59818,"HCEP03730563","2025-09-11 12:00:00","11.0085","3.40531","25.909","1.258","7.35","0.348","4.063","0.02","0.33","30.0474","4.72847","13.8","0","SATNPRO1964","25.816","0.36158","5"],
    [59819,"HCEP03730563","2025-09-11 12:15:00","11.0107","3.40581","25.804","1.311","7.35","6.438","63.163","3.05","18.13","30.0506","4.72889","14.38","0","SATNPRO1964","25.986","0.36398","5"],
    [59820,"HCEP03730563","2025-09-11 12:30:00","11.013","3.40608","25.729","1.343","7.35","0.374","4.355","0.05","0.27","30.0514","4.72896","14.74","0","SATNPRO1964","26.242","0.36754","5"],
    [59821,"HCEP03730563","2025-09-11 12:45:00","11.0081","3.40528","25.695","1.344","7.35","0.382","4.355","0.05","0.18","30.0475","4.72849","14.75","0","SATNPRO1964","26.332","0.3688","5"],
    [59822,"HCEP03730563","2025-09-11 13:00:00","11.005","3.40472","25.68","1.326","7.35","0.374","4.532","0.07","0.18","30.0446","4.72812","14.55","0","SATNPRO1964","25.91","0.36294","5"],
    [59823,"HCEP03730563","2025-09-11 13:15:00","11.0179","3.40715","25.729","1.315","7.35","0.407","5.061","0.05","0.16","30.0578","4.7298","14.43","0","SATNPRO1964","25.896","0.36276","5"],
    [59824,"HCEP03730563","2025-09-11 13:30:00","11.0097","3.40593","25.774","1.312","7.35","0.386","5.031","0.05","0.16","30.0525","4.72918","14.4","0","SATNPRO1964","25.908","0.36286","5"],
    [59825,"HCEP03730563","2025-09-11 13:45:00","11.0097","3.40601","25.922","1.295","7.35","0.401","4.813","0.04","0.21","30.0533","4.72929","14.22","0","SATNPRO1964","25.862000000000002","0.36224","5"],
    [59826,"HCEP03730563","2025-09-11 14:00:00","11.0103","3.40614","25.987","1.292","7.35","0.368","4.689","0.02","0.54","30.0541","4.7294","14.18","0","SATNPRO1964","25.894","0.36268","5"],
    [59827,"HCEP03730563","2025-09-11 14:15:00","11.0132","3.40656","26.079","1.284","7.35","0.395","4.907","0.06","0.57","30.0558","4.72961","14.09","0","SATNPRO1964","25.881999999999998","0.3625","5"],
    [59828,"HCEP03730563","2025-09-11 14:30:00","11.0136","3.40675","26.152","1.262","7.35","0.37","5.2","0.05","0.71","30.0573","4.72981","13.85","0","SATNPRO1964","25.722","0.36026","5"],
    [59829,"HCEP03730563","2025-09-11 14:45:00","11.0145","3.40699","26.275","1.242","7.35","0.388","4.907","0.04","0.39","30.0588","4.73002","13.63","0","SATNPRO1964","25.686","0.3598","5"],
    [59830,"HCEP03730563","2025-09-11 15:00:00","11.0142","3.40698","26.417","1.223","7.34","0.345","4.788","0.03","0.22","30.0589","4.73005","13.42","0","SATNPRO1964","25.49","0.35704","5"],
    [59831,"HCEP03730563","2025-09-11 15:15:00","11.013","3.4069","26.543","1.205","7.34","0.49","15.467","0.16","14.68","30.0591","4.7301","13.23","0","SATNPRO1964","25.471999999999998","0.3568","5"],
    [59832,"HCEP03730563","2025-09-11 15:30:00","11.0092","3.40633","26.675","1.185","7.34","0.362","4.702","0.04","0.65","30.0566","4.72981","13","0","SATNPRO1964","25.322","0.35466","5"],
    [59833,"HCEP03730563","2025-09-11 15:45:00","11.0029","3.4049","26.83","1.157","7.34","0.358","4.332","0.02","0.2","30.0476","4.72864","12.69","0","SATNPRO1964","25.298000000000002","0.35432","5"],
    [59834,"HCEP03730563","2025-09-11 16:00:00","11.0083","3.40618","26.953","1.132","7.34","0.346","4.442","0.03","0.14","30.0558","4.72972","12.43","0","SATNPRO1964","25.332","0.35482","5"],
    [59835,"HCEP03730563","2025-09-11 16:15:00","11.0068","3.40595","27.118","1.14","7.34","0.368","4.692","0.02","0.19","30.0546","4.72959","12.51","0","SATNPRO1964","25.2","0.35294","5"],
    [59836,"HCEP03730563","2025-09-11 16:30:00","11.0042","3.40552","27.241","1.128","7.33","0.36","4.443","0.03","0.14","30.0525","4.72934","12.37","0","SATNPRO1964","24.976","0.3498","5"],
    [59837,"HCEP03730563","2025-09-11 16:45:00","11.0068","3.40586","27.392","1.119","7.33","0.409","5.13","0.03","0.29","30.0536","4.72946","12.28","0","SATNPRO1964","24.878","0.34846","5"],
    [59838,"HCEP03730563","2025-09-11 17:00:00","11.0097","3.40626","27.53","1.129","7.33","0.382","5.189","0.04","0.46","30.0551","4.72964","12.39","0","SATNPRO1964","24.962","0.34964","5"],
    [59839,"HCEP03730563","2025-09-11 17:15:00","11.0143","3.4068","27.651","1.158","7.34","0.402","4.754","0.04","0.24","30.0567","4.7298","12.71","0","SATNPRO1964","25.174","0.35258","5"],
    [59840,"HCEP03730563","2025-09-11 17:30:00","11.0214","3.40775","27.762","1.21","7.34","0.413","5.067","0.08","0.31","30.0601","4.73018","13.28","0","SATNPRO1964","25.478","0.35684","5"],
    [59841,"HCEP03730563","2025-09-11 17:45:00","11.0269","3.40861","27.86","1.276","7.35","0.413","4.852","0.03","0.27","30.0639","4.73064","14.01","0","SATNPRO1964","25.616","0.35882","5"],
    [59842,"HCEP03730563","2025-09-11 18:00:00","11.0288","3.40887","27.941","1.325","7.35","0.414","4.961","0.06","0.42","30.0649","4.73076","14.55","0","SATNPRO1964","25.62","0.35884","5"],
    [59843,"HCEP03730563","2025-09-11 18:15:00","11.0309","3.40916","28.032","1.343","7.35","0.394","4.456","0.02","0.24","30.066","4.73089","14.75","0","SATNPRO1964","25.694","0.3599","5"],
    [59844,"HCEP03730563","2025-09-11 18:30:00","11.0311","3.40919","28.064","1.349","7.35","0.4","4.305","0.07","0.17","30.0661","4.7309","14.81","0","SATNPRO1964","25.59","0.35844","5"],
    [59845,"HCEP03730563","2025-09-11 18:45:00","11.0314","3.40926","28.076","1.342","7.35","0.397","4.523","0.04","0.25","30.0665","4.73096","14.73","0","SATNPRO1964","25.592","0.35848","5"],
    [59846,"HCEP03730563","2025-09-11 19:00:00","11.0316","3.40928","28.077","1.337","7.35","0.373","4.591","0.05","0.1","30.0666","4.73096","14.68","0","SATNPRO1964","25.772","0.36096","5"],
    [59847,"HCEP03730563","2025-09-11 19:15:00","11.0322","3.40941","28.058","1.334","7.35","0.391","4.018","0.02","0.03","30.0673","4.73106","14.65","0","SATNPRO1964","25.552","0.35788","5"],
    [59848,"HCEP03730563","2025-09-11 19:30:00","11.0339","3.40959","28.011","1.342","7.35","0.356","4.054","0.03","0.06","30.0677","4.73108","14.74","0","SATNPRO1964","25.71","0.36014","5"],
    [59849,"HCEP03730563","2025-09-11 19:45:00","11.0327","3.40944","27.945","1.35","7.35","0.375","4.156","0.05","0.16","30.0673","4.73105","14.82","0","SATNPRO1964","25.412","0.35592","5"],
    [59850,"HCEP03730563","2025-09-11 20:00:00","11.0339","3.40954","27.849","1.36","7.35","0.334","3.723","0.04","0.13","30.0673","4.73102","14.94","0","SATNPRO1964","25.872","0.3624","5"],
    [59851,"HCEP03730563","2025-09-11 20:15:00","11.0323","3.4093","27.746","1.378","7.36","0.373","4.107","0.04","0.33","30.0663","4.73089","15.13","0","SATNPRO1964","25.732","0.36042","5"],
    [59852,"HCEP03730563","2025-09-11 20:30:00","11.0265","3.40857","27.609","1.348","7.35","0.357","4.745","0.05","0.17","30.0639","4.73064","14.8","0","SATNPRO1964","25.176","0.35262","5"],
    [59853,"HCEP03730563","2025-09-11 20:45:00","11.032","3.40931","27.438","1.318","7.35","0.356","4.025","0.02","0.19","30.0667","4.73094","14.47","0","SATNPRO1964","25.45","0.35646","5"],
    [59854,"HCEP03730563","2025-09-11 21:00:00","11.0296","3.40893","27.272","1.349","7.35","0.345","4.231","0.04","0.22","30.0651","4.73075","14.81","0","SATNPRO1964","25.747999999999998","0.36066","5"],
    [59855,"HCEP03730563","2025-09-11 21:15:00","11.0322","3.40921","27.104","1.349","7.35","0.348","3.899","0.03","0.19","30.0658","4.73079","14.82","0","SATNPRO1964","25.65","0.35928","5"],
    [59856,"HCEP03730563","2025-09-11 21:30:00","11.0282","3.40866","26.912","1.369","7.36","0.321","3.882","0.02","0.18","30.0638","4.73055","15.03","0","SATNPRO1964","25.852","0.3621","5"],
    [59857,"HCEP03730563","2025-09-11 21:45:00","11.0251","3.40831","26.716","1.339","7.35","0.535","9.874","0.52","16.84","30.0629","4.73047","14.7","0","SATNPRO1964","25.988","0.36398","5"],
    [59858,"HCEP03730563","2025-09-11 22:00:00","11.0225","3.40794","26.516","1.301","7.35","0.335","4.362","0.03","0.27","30.0615","4.7303","14.29","0","SATNPRO1964","25.698","0.35994","5"],
    [59859,"HCEP03730563","2025-09-11 22:15:00","11.0211","3.40794","26.281","1.264","7.35","0.355","4.139","0.02","0.19","30.0627","4.73047","13.88","0","SATNPRO1964","25.488","0.35702","5"],
    [59860,"HCEP03730563","2025-09-11 22:30:00","11.0174","3.4074","26.08","1.237","7.34","0.373","4.731","0.05","0.31","30.0606","4.73022","13.58","0","SATNPRO1964","25.166","0.3525","5"],
    [59861,"HCEP03730563","2025-09-11 22:45:00","11.0141","3.40702","25.843","1.166","7.34","0.374","4.443","0.03","0.17","30.0596","4.73012","12.79","0","SATNPRO1964","25.018","0.35046","5"],
    [59862,"HCEP03730563","2025-09-11 23:00:00","11.0127","3.40688","25.623","1.126","7.34","0.326","4.233","0.02","0.16","30.0596","4.73012","12.36","0","SATNPRO1964","25.024","0.35052","5"],
    [59863,"HCEP03730563","2025-09-11 23:15:00","11.012","3.4067","25.371","1.113","7.34","0.378","4.446","0.03","0.25","30.0584","4.72995","12.21","0","SATNPRO1964","24.544","0.34378","5"],
    [59864,"HCEP03730563","2025-09-11 23:30:00","11.0122","3.40666","25.126","1.134","7.34","0.366","4.433","0.03","0.19","30.0579","4.72987","12.45","0","SATNPRO1964","24.466","0.3427","5"],
    [59865,"HCEP03730563","2025-09-11 23:45:00","11.0094","3.40646","24.899","1.123","7.33","0.357","4.531","0.02","0.25","30.0583","4.72996","12.32","0","SATNPRO1964","24.733999999999998","0.34646","5"],
    [59866,"HCEP03730563","2025-09-12 00:00:00","11.012","3.40661","24.692","1.108","7.33","0.336","4.129","0.02","0.13","30.0578","4.72982","12.16","0","SATNPRO1964","24.556","0.34396","5"],
    [59867,"HCEP03730563","2025-09-12 00:15:00","11.0111","3.40654","24.506","1.139","7.33","0.432","4.687","0.14","0.21","30.0579","4.72984","12.5","0","SATNPRO1964","24.808","0.34754","5"],
    [59868,"HCEP03730563","2025-09-12 00:30:00","11.0107","3.40649","24.339","1.107","7.33","0.362","4.701","0.03","0.14","30.0578","4.72982","12.15","0","SATNPRO1964","24.666","0.3455","5"],
    [59869,"HCEP03730563","2025-09-12 00:45:00","11.0116","3.40659","24.221","1.116","7.33","0.404","4.327","0.05","0.13","30.0581","4.72986","12.25","0","SATNPRO1964","25.093999999999998","0.35146","5"],
    [59870,"HCEP03730563","2025-09-12 01:00:00","11.011","3.40656","24.162","1.114","7.33","0.37","4.622","0.04","0.37","30.0583","4.72988","12.22","0","SATNPRO1964","24.727999999999998","0.34636","5"],
    [59871,"HCEP03730563","2025-09-12 01:15:00","11.0115","3.40667","24.133","1.089","7.33","0.387","4.575","0.03","0.24","30.059","4.72997","11.96","0","SATNPRO1964","24.972","0.3498","5"],
    [59872,"HCEP03730563","2025-09-12 01:30:00","11.0118","3.40663","24.128","1.083","7.33","0.398","4.827","0.03","0.15","30.0583","4.72988","11.89","0","SATNPRO1964","24.768","0.34694","5"],
    [59873,"HCEP03730563","2025-09-12 01:45:00","11.0119","3.40664","24.134","1.08","7.33","0.38","4.734","0.02","0.15","30.0584","4.72989","11.86","0","SATNPRO1964","24.704","0.346","5"],
    [59874,"HCEP03730563","2025-09-12 02:00:00","11.0125","3.40659","24.162","1.081","7.33","0.342","4.402","0.02","0.23","30.0574","4.72973","11.86","0","SATNPRO1964","24.746000000000002","0.34662","5"],
    [59875,"HCEP03730563","2025-09-12 02:15:00","11.0138","3.40669","24.211","1.102","7.33","0.355","4.217","0.03","0.13","30.0573","4.7297","12.1","0","SATNPRO1964","25.02","0.35046","5"],
    [59876,"HCEP03730563","2025-09-12 02:30:00","11.0132","3.40653","24.281","1.14","7.33","0.332","4.116","0.03","0.23","30.0562","4.72956","12.51","0","SATNPRO1964","25.474","0.3568","5"],
    [59877,"HCEP03730563","2025-09-12 02:45:00","11.0125","3.40618","24.365","1.176","7.34","0.36","3.744","0.04","0.28","30.0533","4.72917","12.9","0","SATNPRO1964","25.733999999999998","0.36044","5"],
    [59878,"HCEP03730563","2025-09-12 03:00:00","11.0172","3.40716","24.481","1.192","7.34","0.361","4.919","0.07","0.28","30.059","4.72991","13.08","0","SATNPRO1964","25.296","0.3543","5"],
    [59879,"HCEP03730563","2025-09-12 03:15:00","11.0185","3.40737","24.644","1.16","7.33","0.368","4.832","0.04","0.23","30.0599","4.73003","12.73","0","SATNPRO1964","24.778","0.34704","5"],
    [59880,"HCEP03730563","2025-09-12 03:30:00","11.0206","3.40778","24.804","1.133","7.33","0.368","4.658","0.08","0.24","30.0622","4.73033","12.44","0","SATNPRO1964","24.198","0.33894","5"],
    [59881,"HCEP03730563","2025-09-12 03:45:00","11.0226","3.40819","24.961","1.094","7.33","0.384","4.713","0.09","0.29","30.0645","4.73063","12.01","0","SATNPRO1964","24.02","0.33646","5"],
    [59882,"HCEP03730563","2025-09-12 04:00:00","11.0249","3.40866","25.107","1.076","7.33","0.337","4.383","0.03","0.24","30.0672","4.73098","11.82","0","SATNPRO1964","23.928","0.33514","5"],
    [59883,"HCEP03730563","2025-09-12 04:15:00","11.0262","3.40892","25.268","1.069","7.33","0.388","4.347","0.15","0.22","30.0685","4.73116","11.73","0","SATNPRO1964","23.796","0.33328","5"],
    [59884,"HCEP03730563","2025-09-12 04:30:00","11.0258","3.40896","25.432","1.06","7.33","0.331","4.243","0.05","0.22","30.0692","4.73128","11.63","0","SATNPRO1964","23.91","0.33488","5"],
    [59885,"HCEP03730563","2025-09-12 04:45:00","11.0255","3.40895","25.612","1.039","7.33","0.361","4.251","0.05","0.25","30.0693","4.73131","11.41","0","SATNPRO1964","23.818","0.33362","5"],
    [59886,"HCEP03730563","2025-09-12 05:00:00","11.024","3.40879","25.808","1.017","7.32","0.349","4.239","0.06","0.23","30.0689","4.73128","11.16","0","SATNPRO1964","23.628","0.33092","5"],
    [59887,"HCEP03730563","2025-09-12 05:15:00","11.0203","3.40825","26.015","0.979","7.32","0.352","4.976","0.03","2.84","30.0665","4.73101","10.74","0","SATNPRO1964","23.330000000000002","0.32678","5"],
    [59888,"HCEP03730563","2025-09-12 05:30:00","11.0161","3.40759","26.204","0.933","7.32","0.341","4.032","0.06","0.15","30.0634","4.73064","10.24","0","SATNPRO1964","23.058","0.32296","5"],
    [59889,"HCEP03730563","2025-09-12 05:45:00","11.0158","3.40736","26.32","0.912","7.32","0.366","4.425","0.03","0.35","30.0614","4.73037","10.01","0","SATNPRO1964","23.226","0.3253","5"],
    [59890,"HCEP03730563","2025-09-12 06:00:00","11.0441","3.40978","26.508","1.041","7.34","0.47","3.929","0.35","0.75","30.0619","4.73002","11.43","0","SATNPRO1964","27.48","0.38488","5"],
    [59891,"HCEP03730563","2025-09-12 06:15:00","11.0452","3.40973","26.67","1.433","7.36","0.402","3.918","0.04","0.22","30.0604","4.7298","15.74","0","SATNPRO1964","26.244","0.36762","5"],
    [59892,"HCEP03730563","2025-09-12 06:30:00","11.0579","3.41039","26.812","1.596","7.38","0.372","3.386","0.03","0.22","30.0564","4.72905","17.53","0","SATNPRO1964","28.102","0.39364","5"],
    [59893,"HCEP03730563","2025-09-12 06:45:00","11.0532","3.41019","26.958","1.786","7.39","0.448","3.584","0.05","0.13","30.0583","4.7294","19.62","0","SATNPRO1964","29.652","0.41534","5"],
    [59894,"HCEP03730563","2025-09-12 07:00:00","11.0284","3.40809","27.07","1.606","7.37","0.4","4.537","0.02","0.18","30.058","4.72974","17.64","0","SATNPRO1964","23.822","0.33366","5"],
    [59895,"HCEP03730563","2025-09-12 07:15:00","11.016","3.40714","27.232","1.176","7.34","0.4","4.973","0.04","0.17","30.0587","4.73003","12.91","0","SATNPRO1964","22.928","0.32118","5"],
    [59896,"HCEP03730563","2025-09-12 07:30:00","11.0173","3.40718","27.287","0.981","7.33","0.334","4.202","0.03","0.13","30.058","4.72992","10.77","0","SATNPRO1964","23.342","0.32696","5"],
    [59897,"HCEP03730563","2025-09-12 07:45:00","11.0136","3.40683","27.376","0.928","7.32","0.38","5.234","0.03","0.63","30.0576","4.72993","10.19","0","SATNPRO1964","22.944","0.32134","5"],
    [59898,"HCEP03730563","2025-09-12 08:00:00","11.0124","3.40661","27.424","0.893","7.32","0.346","5.114","0.03","0.55","30.0564","4.72978","9.8","0","SATNPRO1964","23.04","0.3227","5"],
    [59899,"HCEP03730563","2025-09-12 08:15:00","11.0117","3.40651","27.42","0.888","7.32","0.371","4.995","0.03","0.28","30.0559","4.72971","9.75","0","SATNPRO1964","23.222","0.32524","5"],
    [59900,"HCEP03730563","2025-09-12 08:30:00","11.0109","3.40638","27.407","0.894","7.31","0.348","4.93","0.04","0.23","30.0554","4.72966","9.82","0","SATNPRO1964","23.08","0.3233","5"],
    [59901,"HCEP03730563","2025-09-12 08:45:00","11.01","3.40594","27.395","0.898","7.31","0.382","4.705","0.07","0.46","30.0518","4.72916","9.85","0","SATNPRO1964","23.402","0.32778","5"],
    [59902,"HCEP03730563","2025-09-12 09:00:00","11.0097","3.4058","27.376","0.901","7.31","0.394","4.627","0.05","0.21","30.0507","4.72901","9.88","0","SATNPRO1964","23.404","0.32782","5"],
    [59903,"HCEP03730563","2025-09-12 09:15:00","11.0106","3.4057","27.342","0.905","7.31","0.43","5.372","0.03","0.15","30.049","4.72875","9.93","0","SATNPRO1964","23.612","0.33074","5"],
    [59904,"HCEP03730563","2025-09-12 09:30:00","11.0137","3.40559","27.31","0.936","7.32","0.469","4.873","0.08","0.32","30.0453","4.72818","10.27","0","SATNPRO1964","24.168","0.33852","5"],
    [59905,"HCEP03730563","2025-09-12 09:45:00","11.0144","3.40546","27.258","1.004","7.32","0.375","3.873","0.04","0.14","30.0436","4.72792","11.02","0","SATNPRO1964","24.258","0.33976","5"],
    [59906,"HCEP03730563","2025-09-12 10:00:00","11.012","3.40579","27.206","1.009","7.32","0.364","4.226","0.04","0.13","30.0488","4.72869","11.07","0","SATNPRO1964","23.438","0.32832","5"],
    [59907,"HCEP03730563","2025-09-12 10:15:00","11.0114","3.40615","27.145","0.955","7.32","0.394","4.352","0.05","0.22","30.0528","4.72927","10.48","0","SATNPRO1964","23.044","0.32274","5"],
    [59908,"HCEP03730563","2025-09-12 10:30:00","11.0113","3.40623","27.069","0.933","7.32","0.376","4.366","0.04","0.17","30.0537","4.72939","10.24","0","SATNPRO1964","23.48","0.32892","5"],
    [59909,"HCEP03730563","2025-09-12 10:45:00","11.0116","3.40628","27.003","0.937","7.32","0.396","4.642","0.03","0.29","30.054","4.72943","10.28","0","SATNPRO1964","23.74","0.33254","5"],
    [59910,"HCEP03730563","2025-09-12 11:00:00","11.0142","3.40682","26.937","0.951","7.32","0.408","4.923","0.06","0.15","30.0572","4.72983","10.44","0","SATNPRO1964","23.79","0.3332","5"],
    [59911,"HCEP03730563","2025-09-12 11:15:00","11.0158","3.40712","26.869","0.963","7.32","0.41","4.709","0.08","0.23","30.0589","4.73004","10.57","0","SATNPRO1964","23.824","0.33368","5"],
    [59912,"HCEP03730563","2025-09-12 11:30:00","11.0169","3.40738","26.787","0.964","7.32","0.381","4.833","0.05","0.14","30.0605","4.73025","10.59","0","SATNPRO1964","23.87","0.33436","5"],
    [59913,"HCEP03730563","2025-09-12 11:45:00","11.0164","3.40727","26.71","0.96","7.32","0.369","4.312","0.04","0.1","30.0598","4.73016","10.53","0","SATNPRO1964","23.53","0.3296","5"],
    [59914,"HCEP03730563","2025-09-12 12:00:00","11.0157","3.40709","26.623","0.955","7.32","0.348","4.566","0.02","0.27","30.0587","4.73001","10.48","0","SATNPRO1964","23.628","0.33098","5"],
    [59915,"HCEP03730563","2025-09-12 12:15:00","11.015","3.40696","26.55","0.952","7.32","0.412","5.457","0.07","0.53","30.058","4.72991","10.45","0","SATNPRO1964","23.718","0.33216","5"],
    [59916,"HCEP03730563","2025-09-12 12:30:00","11.0148","3.4069","26.464","0.954","7.32","0.376","5.018","0.09","0.83","30.0576","4.72986","10.47","0","SATNPRO1964","23.72","0.33224","5"],
    [59917,"HCEP03730563","2025-09-12 12:45:00","11.017","3.40727","26.362","0.958","7.32","0.381","4.64","0.07","0.19","30.0595","4.73009","10.52","0","SATNPRO1964","23.902","0.33476","5"],
    [59918,"HCEP03730563","2025-09-12 13:00:00","11.0231","3.40822","26.287","0.984","7.32","0.36","4.619","0.03","0.14","30.0638","4.73061","10.8","0","SATNPRO1964","24.284","0.34016","5"],
    [59919,"HCEP03730563","2025-09-12 13:15:00","11.028","3.40896","26.227","1.043","7.32","0.366","4.767","0.04","0.24","30.0671","4.73099","11.45","0","SATNPRO1964","25.052","0.35084","5"],
    [59920,"HCEP03730563","2025-09-12 13:30:00","11.0316","3.40926","26.185","1.12","7.33","0.378","4.804","0.11","0.64","30.0671","4.73094","12.29","0","SATNPRO1964","25.256","0.35372","5"],
    [59921,"HCEP03730563","2025-09-12 13:45:00","11.0331","3.40938","26.156","1.194","7.34","0.366","4.806","0.03","0.2","30.067","4.7309","13.11","0","SATNPRO1964","25.49","0.35702","5"],
    [59922,"HCEP03730563","2025-09-12 14:00:00","11.004","3.40497","26.159","1.201","7.34","0.304","3.496","0.02","0.3","30.0477","4.72859","13.18","0","SATNPRO1964","25.766000000000002","0.36086","5"],
    [59923,"HCEP03730563","2025-09-12 14:15:00","11.0009","3.40434","26.204","1.149","7.33","0.35","4.232","0.02","0.29","30.0441","4.72814","12.6","0","SATNPRO1964","25.201999999999998","0.353","5"],
    [59924,"HCEP03730563","2025-09-12 14:30:00","10.9912","3.39881","26.255","1.078","7.33","0.337","3.76","0.05","0.2","29.9978","4.72172","11.82","0","SATNPRO1964","25.102","0.35158","5"],
    [59925,"HCEP03730563","2025-09-12 14:45:00","10.9797","3.39637","26.319","1","7.32","0.345","3.593","0.03","0.25","29.9834","4.71985","10.96","0","SATNPRO1964","24.908","0.3489","5"],
    [59926,"HCEP03730563","2025-09-12 15:00:00","10.9907","3.40378","26.389","0.965","7.32","0.342","3.603","0.11","0.13","30.0469","4.7287","10.58","0","SATNPRO1964","26.346","0.36902","5"],
    [59927,"HCEP03730563","2025-09-12 15:15:00","10.9785","3.40163","26.474","0.992","7.32","0.352","3.404","0.03","0.18","30.0357","4.72731","10.87","0","SATNPRO1964","25.05","0.3509","5"],
    [59928,"HCEP03730563","2025-09-12 15:30:00","10.9817","3.40221","26.553","0.962","7.32","0.364","3.206","0.09","0.27","30.0387","4.72769","10.55","0","SATNPRO1964","25.046","0.35084","5"],
    [59929,"HCEP03730563","2025-09-12 15:45:00","10.9946","3.40396","26.66","0.983","7.32","0.384","3.519","0.11","0.19","30.0453","4.72842","10.78","0","SATNPRO1964","30.314","0.4246","5"],
    [59930,"HCEP03730563","2025-09-12 16:00:00","11.0057","3.40579","26.764","1.027","7.32","0.356","3.993","0.07","0.28","30.0541","4.72951","11.27","0","SATNPRO1964","25.272","0.35396","5"],
    [59931,"HCEP03730563","2025-09-12 16:15:00","11.0059","3.40571","26.86","1.057","7.33","0.348","3.866","0.03","0.15","30.0531","4.72938","11.6","0","SATNPRO1964","25.518","0.35744","5"],
    [59932,"HCEP03730563","2025-09-12 16:30:00","11.009","3.40608","26.944","1.069","7.33","0.32","3.792","0.03","0.13","30.0542","4.72949","11.73","0","SATNPRO1964","25.544","0.3578","5"],
    [59933,"HCEP03730563","2025-09-12 16:45:00","11.0102","3.40629","27.045","1.08","7.33","0.367","4.062","0.05","0.21","30.0552","4.72962","11.86","0","SATNPRO1964","25.338","0.35488","5"],
    [59934,"HCEP03730563","2025-09-12 17:00:00","11.0123","3.40658","27.157","1.091","7.33","0.32","4.044","0.02","0.14","30.0563","4.72975","11.97","0","SATNPRO1964","25.272","0.35396","5"],
    [59935,"HCEP03730563","2025-09-12 17:15:00","11.0155","3.40704","27.274","1.105","7.33","0.351","4.243","0.04","0.18","30.0582","4.72997","12.13","0","SATNPRO1964","25.222","0.35326","5"],
    [59936,"HCEP03730563","2025-09-12 17:30:00","11.0161","3.40708","27.379","1.121","7.33","0.299","4.113","0.01","0.16","30.058","4.72994","12.31","0","SATNPRO1964","25.124","0.35192","5"],
    [59937,"HCEP03730563","2025-09-12 17:45:00","11.0188","3.40745","27.477","1.136","7.33","0.351","3.715","0.03","0.12","30.0593","4.7301","12.47","0","SATNPRO1964","25.362000000000002","0.35524","5"],
    [59938,"HCEP03730563","2025-09-12 18:00:00","11.0185","3.4074","27.563","1.151","7.33","0.352","4.001","0.07","0.25","30.0591","4.73007","12.63","0","SATNPRO1964","25.406","0.35586","5"],
    [59939,"HCEP03730563","2025-09-12 18:15:00","11.0191","3.40751","27.644","1.144","7.33","0.372","4.258","0.03","0.2","30.0596","4.73014","12.56","0","SATNPRO1964","25.264","0.35384","5"],
    [59940,"HCEP03730563","2025-09-12 18:30:00","11.0217","3.40781","27.721","1.142","7.33","0.369","3.981","0.07","0.11","30.0604","4.73022","12.53","0","SATNPRO1964","25.216","0.35316","5"],
    [59941,"HCEP03730563","2025-09-12 18:45:00","11.0253","3.40835","27.799","1.166","7.34","0.336","3.564","0.03","0.14","30.0627","4.7305","12.8","0","SATNPRO1964","25.596","0.3585","5"],
    [59942,"HCEP03730563","2025-09-12 19:00:00","11.0149","3.40652","27.801","1.186","7.34","0.327","3.191","0.07","0.31","30.0533","4.72932","13.02","0","SATNPRO1964","26.032","0.36462","5"],
    [59943,"HCEP03730563","2025-09-12 19:15:00","11.0143","3.40623","27.838","1.184","7.34","0.344","3.399","0.03","0.27","30.0509","4.729","13","0","SATNPRO1964","25.626","0.35892","5"],
    [59944,"HCEP03730563","2025-09-12 19:30:00","11.0137","3.40633","27.835","1.154","7.34","0.365","3.687","0.09","0.35","30.0524","4.72921","12.66","0","SATNPRO1964","25.382","0.35554","5"],
    [59945,"HCEP03730563","2025-09-12 19:45:00","11.0161","3.40657","27.816","1.131","7.33","0.36","3.869","0.03","0.2","30.0529","4.72924","12.41","0","SATNPRO1964","25.518","0.35744","5"],
    [59946,"HCEP03730563","2025-09-12 20:00:00","11.0287","3.409","27.821","1.121","7.33","0.351","4.614","0.04","0.22","30.0662","4.73094","12.31","0","SATNPRO1964","24.64","0.3451","5"],
    [59947,"HCEP03730563","2025-09-12 20:15:00","11.0277","3.40896","27.775","1.092","7.33","0.374","4.521","0.04","0.15","30.0667","4.73102","11.99","0","SATNPRO1964","24.426","0.3421","5"],
    [59948,"HCEP03730563","2025-09-12 20:30:00","11.0265","3.40888","27.722","1.046","7.33","0.336","4.465","0.02","0.14","30.0669","4.73107","11.49","0","SATNPRO1964","23.994","0.33608","5"],
    [59949,"HCEP03730563","2025-09-12 20:45:00","11.0251","3.40887","27.63","0.992","7.32","0.361","4.056","0.06","0.14","30.068","4.73124","10.89","0","SATNPRO1964","23.598","0.3305","5"],
    [59950,"HCEP03730563","2025-09-12 21:00:00","11.0245","3.40887","27.547","0.941","7.32","0.332","4.197","0.03","0.2","30.0685","4.73132","10.33","0","SATNPRO1964","23.334","0.32682","5"],
    [59951,"HCEP03730563","2025-09-12 21:15:00","11.0239","3.40886","27.437","0.906","7.31","0.362","4.127","0.03","0.11","30.069","4.73138","9.94","0","SATNPRO1964","23.266","0.32588","5"],
    [59952,"HCEP03730563","2025-09-12 21:30:00","11.0233","3.40879","27.302","0.88","7.31","0.364","4.11","0.03","0.17","30.0689","4.73138","9.66","0","SATNPRO1964","23.137999999999998","0.32408","5"],
    [59953,"HCEP03730563","2025-09-12 21:45:00","11.0219","3.40855","27.134","0.861","7.31","0.389","4.42","0.03","0.22","30.0677","4.73122","9.45","0","SATNPRO1964","22.922","0.32108","5"],
    [59954,"HCEP03730563","2025-09-12 22:00:00","11.0229","3.40866","26.961","0.851","7.31","0.356","4.203","0.04","0.2","30.0681","4.73125","9.34","0","SATNPRO1964","23.13","0.324","5"],
    [59955,"HCEP03730563","2025-09-12 22:15:00","11.0242","3.409","26.791","0.848","7.31","0.358","4.134","0.03","0.18","30.0703","4.73153","9.31","0","SATNPRO1964","22.990000000000002","0.322","5"],
    [59956,"HCEP03730563","2025-09-12 22:30:00","11.0248","3.40909","26.582","0.847","7.31","0.353","4.134","0.04","0.16","30.0708","4.73159","9.3","0","SATNPRO1964","22.951999999999998","0.32148","5"],
    [59957,"HCEP03730563","2025-09-12 22:45:00","11.0252","3.40906","26.389","0.847","7.31","0.363","4.069","0.03","0.11","30.0703","4.7315","9.3","0","SATNPRO1964","23.056","0.32296","5"],
    [59958,"HCEP03730563","2025-09-12 23:00:00","11.0258","3.40917","26.183","0.851","7.31","0.34","4.034","0.03","0.14","30.0709","4.73157","9.34","0","SATNPRO1964","23.093999999999998","0.32344","5"],
    [59959,"HCEP03730563","2025-09-12 23:15:00","11.0263","3.40922","25.965","0.854","7.31","0.399","4.246","0.06","1.1","30.0711","4.73157","9.37","0","SATNPRO1964","22.970000000000002","0.32174","5"],
    [59960,"HCEP03730563","2025-09-12 23:30:00","11.0265","3.40922","25.747","0.854","7.31","0.358","4.214","0.03","0.27","30.071","4.73154","9.38","0","SATNPRO1964","23.13","0.32398","5"],
    [59961,"HCEP03730563","2025-09-12 23:45:00","11.0269","3.40919","25.513","0.862","7.31","0.374","3.964","0.04","0.19","30.0705","4.73145","9.47","0","SATNPRO1964","23.148","0.3242","5"],
    [59962,"HCEP03730563","2025-09-13 00:00:00","11.0286","3.4093","25.284","0.875","7.31","0.349","3.992","0.03","0.53","30.0703","4.73138","9.6","0","SATNPRO1964","23.416","0.32798","5"],
    [59963,"HCEP03730563","2025-09-13 00:15:00","11.0301","3.40951","25.088","0.893","7.31","0.36","4.033","0.02","0.15","30.0712","4.73148","9.81","0","SATNPRO1964","23.636","0.3311","5"],
    [59964,"HCEP03730563","2025-09-13 00:30:00","11.0324","3.40978","24.851","0.917","7.32","0.349","3.799","0.07","0.15","30.0721","4.73155","10.07","0","SATNPRO1964","23.654","0.33136","5"],
    [59965,"HCEP03730563","2025-09-13 00:45:00","11.031","3.40978","24.669","0.915","7.31","0.341","3.624","0.03","0.28","30.0732","4.73173","10.05","0","SATNPRO1964","23.366","0.32726","5"],
    [59966,"HCEP03730563","2025-09-13 01:00:00","11.0294","3.40964","24.51","0.892","7.31","0.335","3.731","0.03","0.23","30.0732","4.73174","9.79","0","SATNPRO1964","23.168","0.32452","5"],
    [59967,"HCEP03730563","2025-09-13 01:15:00","11.0291","3.40979","24.383","0.868","7.31","0.349","4.083","0.02","0.2","30.075","4.73199","9.53","0","SATNPRO1964","23.012","0.32232","5"],
    [59968,"HCEP03730563","2025-09-13 01:30:00","11.0308","3.41011","24.278","0.858","7.31","0.375","4.528","0.06","0.64","30.0769","4.73222","9.42","0","SATNPRO1964","23.14","0.32412","5"],
    [59969,"HCEP03730563","2025-09-13 01:45:00","11.0302","3.40993","24.198","0.862","7.31","0.361","4.31","0.02","0.12","30.0756","4.73205","9.47","0","SATNPRO1964","22.994","0.32206","5"],
    [59970,"HCEP03730563","2025-09-13 02:00:00","11.031","3.40997","24.134","0.865","7.31","0.358","4.298","0.05","0.27","30.0754","4.732","9.5","0","SATNPRO1964","23.39","0.3276","5"],
    [59971,"HCEP03730563","2025-09-13 02:15:00","11.0323","3.41002","24.131","0.881","7.31","0.406","4.358","0.13","0.27","30.0748","4.73189","9.67","0","SATNPRO1964","23.528","0.32954","5"],
    [59972,"HCEP03730563","2025-09-13 02:30:00","11.0356","3.41024","24.111","0.918","7.32","0.359","4.485","0.02","0.31","30.0742","4.73177","10.08","0","SATNPRO1964","24.163999999999998","0.33844","5"],
    [59973,"HCEP03730563","2025-09-13 02:45:00","11.04","3.41057","24.109","0.99","7.32","0.409","4.668","0.05","0.25","30.0738","4.73165","10.87","0","SATNPRO1964","24.702","0.34598","5"],
    [59974,"HCEP03730563","2025-09-13 03:00:00","11.0443","3.41096","24.136","1.079","7.33","0.347","4.245","0.03","0.22","30.0741","4.73161","11.85","0","SATNPRO1964","25.038","0.3507","5"],
    [59975,"HCEP03730563","2025-09-13 03:15:00","11.0579","3.41212","24.151","1.253","7.35","0.361","3.893","0.02","0.21","30.0743","4.73144","13.76","0","SATNPRO1964","27.599999999999998","0.3866","5"],
    [59976,"HCEP03730563","2025-09-13 03:30:00","11.0539","3.41171","24.22","1.409","7.36","0.374","4.491","0.03","0.18","30.0736","4.73141","15.48","0","SATNPRO1964","26.224","0.3673","5"],
    [59977,"HCEP03730563","2025-09-13 03:45:00","11.0544","3.41172","24.29","1.395","7.36","8.175","235.438","3.56","106.77","30.0732","4.73134","15.33","0","SATNPRO1964","26.272","0.368","5"],
    [59978,"HCEP03730563","2025-09-13 04:00:00","11.0547","3.41179","24.4","1.395","7.36","0.386","4.768","0.04","0.26","30.0736","4.73141","15.33","0","SATNPRO1964","26.268","0.36794","5"],
    [59979,"HCEP03730563","2025-09-13 04:15:00","11.0549","3.41194","24.51","1.396","7.36","0.411","4.862","0.09","0.18","30.0748","4.73158","15.34","0","SATNPRO1964","25.94","0.36336","5"],
    [59980,"HCEP03730563","2025-09-13 04:30:00","11.0567","3.41223","24.67","1.396","7.36","0.397","5.997","0.05","1.83","30.0761","4.73175","15.34","0","SATNPRO1964","26.381999999999998","0.36956","5"],
    [59981,"HCEP03730563","2025-09-13 04:45:00","11.0594","3.41261","24.832","1.428","7.36","0.387","4.774","0.03","0.14","30.0776","4.73193","15.69","0","SATNPRO1964","26.632","0.37302","5"],
    [59982,"HCEP03730563","2025-09-13 05:00:00","11.0615","3.41296","24.989","1.463","7.37","0.358","4.277","0.03","0.25","30.0794","4.73215","16.07","0","SATNPRO1964","26.942","0.37738","5"],
    [59983,"HCEP03730563","2025-09-13 05:15:00","11.0609","3.41296","25.154","1.483","7.37","0.391","4.565","0.08","0.27","30.0797","4.73222","16.29","0","SATNPRO1964","26.651999999999997","0.3733","5"],
    [59984,"HCEP03730563","2025-09-13 05:30:00","11.0606","3.41297","25.32","1.47","7.37","0.38","4.788","0.05","0.45","30.08","4.73227","16.15","0","SATNPRO1964","26.606","0.37266","5"],
    [59985,"HCEP03730563","2025-09-13 05:45:00","11.0611","3.41314","25.493","1.453","7.37","0.374","4.835","0.02","0.41","30.0811","4.73244","15.97","0","SATNPRO1964","26.58","0.37232","5"],
    [59986,"HCEP03730563","2025-09-13 06:00:00","11.0656","3.41373","25.689","1.474","7.37","0.458","4.728","0.37","0.21","30.0831","4.73266","16.2","0","SATNPRO1964","26.872","0.3764","5"],
    [59987,"HCEP03730563","2025-09-13 06:15:00","11.0668","3.41401","25.89","1.52","7.37","0.434","4.458","0.16","0.2","30.0849","4.7329","16.7","0","SATNPRO1964","27.428","0.38418","5"],
    [59988,"HCEP03730563","2025-09-13 06:30:00","11.0728","3.41466","26.101","1.567","7.38","0.408","4.761","0.08","0.3","30.0862","4.733","17.22","0","SATNPRO1964","27.364","0.3833","5"],
    [59989,"HCEP03730563","2025-09-13 06:45:00","11.0759","3.41477","26.302","1.658","7.39","0.45","4.82","0.08","0.25","30.0847","4.73276","18.23","0","SATNPRO1964","28.408","0.39792","5"],
    [59990,"HCEP03730563","2025-09-13 07:00:00","11.0844","3.41636","26.501","1.751","7.4","0.418","4.35","0.09","0.39","30.0932","4.73384","19.25","0","SATNPRO1964","28.64","0.40114","5"],
    [59991,"HCEP03730563","2025-09-13 07:15:00","11.0848","3.41636","26.643","1.813","7.4","0.387","4.175","0.06","0.24","30.0928","4.73379","19.93","0","SATNPRO1964","28.624","0.40092","5"],
    [59992,"HCEP03730563","2025-09-13 07:30:00","11.0852","3.41631","26.818","1.835","7.41","0.414","4.445","0.08","0.21","30.0919","4.73367","20.17","0","SATNPRO1964","28.738","0.4025","5"],
    [59993,"HCEP03730563","2025-09-13 07:45:00","11.0847","3.41625","26.929","1.841","7.41","0.434","4.381","0.05","0.28","30.0917","4.73366","20.24","0","SATNPRO1964","28.696","0.40196","5"],
    [59994,"HCEP03730563","2025-09-13 08:00:00","11.083","3.41599","27.049","1.829","7.41","0.446","4.755","0.22","0.28","30.0904","4.73351","20.11","0","SATNPRO1964","28.674","0.40164","5"],
    [59995,"HCEP03730563","2025-09-13 08:15:00","11.0826","3.41587","27.144","1.81","7.41","0.467","5.109","0.14","0.42","30.0896","4.73341","19.9","0","SATNPRO1964","28.45","0.3985","5"],
    [59996,"HCEP03730563","2025-09-13 08:30:00","11.0718","3.41435","27.235","1.741","7.4","0.452","6.099","0.13","0.47","30.0835","4.73271","19.14","0","SATNPRO1964","27.142","0.3802","5"],
    [59997,"HCEP03730563","2025-09-13 08:45:00","11.0678","3.4139","27.31","1.618","7.39","0.418","5.314","0.08","0.28","30.0823","4.7326","17.78","0","SATNPRO1964","26.936","0.37728","5"],
    [59998,"HCEP03730563","2025-09-13 09:00:00","11.0687","3.41409","27.341","1.574","7.39","0.361","4.613","0.03","0.22","30.0835","4.73275","17.29","0","SATNPRO1964","27.412","0.38396","5"],
    [59999,"HCEP03730563","2025-09-13 09:15:00","11.0608","3.41322","27.365","1.524","7.38","0.383","4.852","0.03","0.22","30.0815","4.73259","16.75","0","SATNPRO1964","26.348000000000003","0.36902","5"],
    [60000,"HCEP03730563","2025-09-13 09:30:00","11.0571","3.41305","27.379","1.414","7.37","0.343","5.133","0.03","0.96","30.0828","4.73284","15.53","0","SATNPRO1964","25.922","0.36306","5"],
    [60001,"HCEP03730563","2025-09-13 09:45:00","11.0569","3.41327","27.413","1.325","7.36","0.381","4.837","0.04","0.27","30.0851","4.73317","14.56","0","SATNPRO1964","25.89","0.36262","5"],
    [60002,"HCEP03730563","2025-09-13 10:00:00","11.0577","3.41339","27.403","1.282","7.36","0.353","4.652","0.03","0.21","30.0857","4.73324","14.09","0","SATNPRO1964","25.908","0.36288","5"],
    [60003,"HCEP03730563","2025-09-13 10:15:00","11.0598","3.41367","27.391","1.277","7.36","0.369","4.335","0.07","0.37","30.0867","4.73335","14.04","0","SATNPRO1964","26.056","0.36496","5"],
    [60004,"HCEP03730563","2025-09-13 10:30:00","11.06","3.41362","27.387","1.289","7.36","0.327","4.18","0.02","0.39","30.086","4.73325","14.16","0","SATNPRO1964","26.169999999999998","0.36658","5"],
    [60005,"HCEP03730563","2025-09-13 10:45:00","11.0603","3.41369","27.364","1.289","7.36","0.349","4.279","0.02","0.2","30.0864","4.73331","14.17","0","SATNPRO1964","25.884","0.36256","5"],
    [60006,"HCEP03730563","2025-09-13 11:00:00","11.0615","3.41383","27.327","1.289","7.36","0.328","3.989","0.03","0.23","30.0869","4.73335","14.16","0","SATNPRO1964","26.148","0.36626","5"],
    [60007,"HCEP03730563","2025-09-13 11:15:00","11.0656","3.4141","27.298","1.307","7.36","0.361","3.901","0.06","0.63","30.0862","4.73318","14.36","0","SATNPRO1964","26.451999999999998","0.37052","5"],
    [60008,"HCEP03730563","2025-09-13 11:30:00","11.065","3.41404","27.266","1.36","7.36","0.325","3.716","0.03","0.32","30.086","4.73317","14.95","0","SATNPRO1964","26.262","0.36786","5"],
    [60009,"HCEP03730563","2025-09-13 11:45:00","11.0646","3.41375","27.202","1.378","7.36","0.35","3.439","0.05","0.36","30.0836","4.73283","15.15","0","SATNPRO1964","26.646","0.37322","5"],
    [60010,"HCEP03730563","2025-09-13 12:00:00","11.0613","3.41314","27.157","1.395","7.36","0.325","3.382","0.05","0.3","30.0803","4.73241","15.33","0","SATNPRO1964","26.63","0.373","5"],
    [60011,"HCEP03730563","2025-09-13 12:15:00","11.0613","3.41344","27.104","1.372","7.36","0.345","3.745","0.04","0.46","30.0833","4.73283","15.07","0","SATNPRO1964","26.322","0.36872","5"],
    [60012,"HCEP03730563","2025-09-13 12:30:00","11.0601","3.41327","27.046","1.336","7.36","0.325","3.794","0.04","0.4","30.0826","4.73275","14.68","0","SATNPRO1964","26.372","0.36942","5"],
    [60013,"HCEP03730563","2025-09-13 12:45:00","11.0591","3.41301","26.976","1.314","7.36","0.361","3.889","0.03","0.17","30.081","4.73254","14.43","0","SATNPRO1964","26.186","0.3668","5"],
    [60014,"HCEP03730563","2025-09-13 13:00:00","11.0576","3.41276","26.919","1.315","7.36","0.365","4.349","0.03","0.39","30.0798","4.73238","14.45","0","SATNPRO1964","26.332","0.36884","5"],
    [60015,"HCEP03730563","2025-09-13 13:15:00","11.0579","3.41263","26.858","1.329","7.36","0.357","3.878","0.03","0.35","30.0782","4.73215","14.6","0","SATNPRO1964","26.62","0.37282","5"],
    [60016,"HCEP03730563","2025-09-13 13:30:00","11.0567","3.41251","26.781","1.329","7.36","0.36","3.976","0.06","0.24","30.0781","4.73214","14.6","0","SATNPRO1964","26.094","0.3655","5"],
    [60017,"HCEP03730563","2025-09-13 13:45:00","11.0556","3.41244","26.709","1.306","7.36","0.379","3.771","0.05","0.22","30.0784","4.7322","14.35","0","SATNPRO1964","26.064","0.36508","5"],
    [60018,"HCEP03730563","2025-09-13 14:00:00","11.0551","3.41276","26.656","1.273","7.35","0.34","3.862","0.02","0.13","30.0819","4.7327","13.98","0","SATNPRO1964","25.716","0.36018","5"],
    [60019,"HCEP03730563","2025-09-13 14:15:00","11.0582","3.41334","26.587","1.231","7.35","0.371","4.133","0.04","0.21","30.0851","4.7331","13.53","0","SATNPRO1964","25.71","0.36014","5"],
    [60020,"HCEP03730563","2025-09-13 14:30:00","11.063","3.41424","26.534","1.221","7.35","0.342","4.513","0.02","0.22","30.09","4.73372","13.41","0","SATNPRO1964","25.672","0.35956","5"],
    [60021,"HCEP03730563","2025-09-13 14:45:00","11.0684","3.41491","26.538","1.226","7.35","0.386","4.642","0.05","0.2","30.0921","4.73394","13.47","0","SATNPRO1964","25.738","0.36054","5"],
    [60022,"HCEP03730563","2025-09-13 15:00:00","11.0717","3.41525","26.544","1.249","7.35","0.371","4.502","0.05","0.29","30.0926","4.73396","13.73","0","SATNPRO1964","25.616","0.35878","5"],
    [60023,"HCEP03730563","2025-09-13 15:15:00","11.0727","3.41526","26.558","1.26","7.35","0.377","4.537","0.04","0.23","30.0919","4.73385","13.85","0","SATNPRO1964","25.484","0.35696","5"],
    [60024,"HCEP03730563","2025-09-13 15:30:00","11.0704","3.41493","26.586","1.25","7.35","0.372","4.535","0.04","0.18","30.0905","4.73369","13.74","0","SATNPRO1964","25.346","0.355","5"],
    [60025,"HCEP03730563","2025-09-13 15:45:00","11.0654","3.41419","26.615","1.222","7.35","0.363","4.122","0.03","0.28","30.0875","4.73333","13.43","0","SATNPRO1964","25.1","0.35158","5"],
    [60026,"HCEP03730563","2025-09-13 16:00:00","11.0612","3.41348","26.704","1.18","7.34","0.313","3.974","0.02","0.41","30.0839","4.7329","12.96","0","SATNPRO1964","25.038","0.3507","5"],
    [60027,"HCEP03730563","2025-09-13 16:15:00","11.0565","3.41288","26.755","1.141","7.34","0.367","3.922","0.07","0.28","30.0819","4.73269","12.53","0","SATNPRO1964","25.076","0.35124","5"],
    [60028,"HCEP03730563","2025-09-13 16:30:00","11.0598","3.41344","26.806","1.124","7.34","0.331","3.743","0.04","0.15","30.0847","4.73303","12.35","0","SATNPRO1964","24.814","0.34756","5"],
    [60029,"HCEP03730563","2025-09-13 16:45:00","11.059","3.41328","26.841","1.12","7.34","0.337","3.718","0.02","0.18","30.0837","4.73291","12.31","0","SATNPRO1964","24.782","0.34712","5"],
    [60030,"HCEP03730563","2025-09-13 17:00:00","11.0583","3.41323","26.92","1.11","7.34","0.335","3.74","0.03","0.17","30.0837","4.73293","12.19","0","SATNPRO1964","24.919999999999998","0.34906","5"],
    [60031,"HCEP03730563","2025-09-13 17:15:00","11.0587","3.41329","26.983","1.103","7.34","0.344","3.654","0.02","0.18","30.084","4.73297","12.12","0","SATNPRO1964","24.663999999999998","0.34544","5"],
    [60032,"HCEP03730563","2025-09-13 17:30:00","11.0615","3.41375","27.054","1.104","7.34","0.351","3.801","0.03","0.25","30.0862","4.73323","12.13","0","SATNPRO1964","24.868000000000002","0.34832","5"],
    [60033,"HCEP03730563","2025-09-13 17:45:00","11.0645","3.41409","27.13","1.124","7.34","0.353","3.918","0.02","0.2","30.087","4.73331","12.35","0","SATNPRO1964","25.146","0.35222","5"],
    [60034,"HCEP03730563","2025-09-13 18:00:00","11.0625","3.41383","27.188","1.135","7.34","0.372","3.96","0.03","0.31","30.086","4.7332","12.47","0","SATNPRO1964","24.884","0.34856","5"],
    [60035,"HCEP03730563","2025-09-13 18:15:00","11.0571","3.41297","27.257","1.126","7.34","0.377","3.77","0.04","0.34","30.0821","4.73273","12.37","0","SATNPRO1964","24.916","0.34896","5"],
    [60036,"HCEP03730563","2025-09-13 18:30:00","11.0562","3.41277","27.329","1.106","7.34","0.34","3.361","0.04","0.1","30.0809","4.73257","12.16","0","SATNPRO1964","24.972","0.3498","5"],
    [60037,"HCEP03730563","2025-09-13 18:45:00","11.0544","3.41246","27.395","1.105","7.33","0.364","3.318","0.03","0.11","30.0793","4.73239","12.14","0","SATNPRO1964","25.105999999999998","0.35164","5"],
    [60038,"HCEP03730563","2025-09-13 19:00:00","11.0641","3.41379","27.452","1.119","7.34","0.401","4.368","0.09","0.16","30.0843","4.73294","12.3","0","SATNPRO1964","25.284","0.35412","5"],
    [60039,"HCEP03730563","2025-09-13 19:15:00","11.0739","3.41543","27.483","1.15","7.34","0.427","5.198","0.03","0.18","30.0923","4.73394","12.64","0","SATNPRO1964","25.32","0.35466","5"],
    [60040,"HCEP03730563","2025-09-13 19:30:00","11.0755","3.41552","27.526","1.19","7.34","0.406","4.818","0.05","0.16","30.0918","4.73384","13.09","0","SATNPRO1964","25.392","0.35562","5"],
    [60041,"HCEP03730563","2025-09-13 19:45:00","11.079","3.41617","27.571","1.233","7.35","0.402","5.072","0.03","0.15","30.0952","4.73428","13.56","0","SATNPRO1964","25.478","0.35684","5"],
    [60042,"HCEP03730563","2025-09-13 20:00:00","11.0804","3.41628","27.594","1.262","7.35","0.366","4.947","0.03","0.2","30.0952","4.73426","13.88","0","SATNPRO1964","25.59","0.3584","5"],
    [60043,"HCEP03730563","2025-09-13 20:15:00","11.0822","3.41651","27.596","1.282","7.35","0.4","4.986","0.04","0.26","30.096","4.73434","14.09","0","SATNPRO1964","25.674","0.35958","5"],
    [60044,"HCEP03730563","2025-09-13 20:30:00","11.0832","3.41666","27.59","1.301","7.35","0.383","4.78","0.03","0.2","30.0967","4.73442","14.3","0","SATNPRO1964","25.852","0.36208","5"],
    [60045,"HCEP03730563","2025-09-13 20:45:00","11.0836","3.41649","27.571","1.326","7.35","0.449","4.394","0.15","0.21","30.0947","4.73413","14.57","0","SATNPRO1964","26.080000000000002","0.3653","5"],
    [60046,"HCEP03730563","2025-09-13 21:00:00","11.0874","3.4172","27.537","1.356","7.36","0.397","4.423","0.03","0.2","30.0985","4.73461","14.91","0","SATNPRO1964","26.33","0.36878","5"],
    [60047,"HCEP03730563","2025-09-13 21:15:00","11.0898","3.41761","27.502","1.387","7.36","0.409","4.832","0.06","0.17","30.1006","4.73488","15.25","0","SATNPRO1964","26.384","0.36954","5"],
    [60048,"HCEP03730563","2025-09-13 21:30:00","11.0906","3.41775","27.445","1.4","7.36","0.408","4.641","0.05","0.26","30.1013","4.73496","15.4","0","SATNPRO1964","26.398","0.36974","5"],
    [60049,"HCEP03730563","2025-09-13 21:45:00","11.0898","3.41761","27.352","1.409","7.36","0.405","4.494","0.03","0.23","30.1007","4.73488","15.5","0","SATNPRO1964","26.244","0.3676","5"],
    [60050,"HCEP03730563","2025-09-13 22:00:00","11.0864","3.41733","27.256","1.389","7.36","0.366","4.578","0.04","0.23","30.1007","4.73492","15.28","0","SATNPRO1964","26.056","0.365","5"],
    [60051,"HCEP03730563","2025-09-13 22:15:00","11.084","3.41701","27.133","1.354","7.36","0.41","4.5","0.06","0.35","30.0996","4.7348","14.89","0","SATNPRO1964","26.22","0.36722","5"],
    [60052,"HCEP03730563","2025-09-13 22:30:00","11.0797","3.41651","26.979","1.331","7.36","0.365","4.461","0.05","0.24","30.0983","4.73468","14.64","0","SATNPRO1964","25.91","0.36292","5"],
    [60053,"HCEP03730563","2025-09-13 22:45:00","11.0747","3.41583","26.846","1.289","7.35","0.377","4.535","0.03","0.27","30.0958","4.73438","14.17","0","SATNPRO1964","25.419999999999998","0.35604","5"],
    [60054,"HCEP03730563","2025-09-13 23:00:00","11.0688","3.41498","26.671","1.236","7.35","0.351","4.345","0.03","0.28","30.0924","4.73399","13.58","0","SATNPRO1964","25.242","0.35354","5"],
    [60055,"HCEP03730563","2025-09-13 23:15:00","11.0673","3.4145","26.501","1.214","7.35","0.395","4.023","0.06","0.23","30.089","4.73352","13.34","0","SATNPRO1964","25.986","0.364","5"],
    [60056,"HCEP03730563","2025-09-13 23:30:00","11.0641","3.414","26.316","1.234","7.35","0.359","4.03","0.04","0.24","30.0868","4.73323","13.56","0","SATNPRO1964","25.488","0.35696","5"],
    [60057,"HCEP03730563","2025-09-13 23:45:00","11.0619","3.41381","26.144","1.204","7.35","0.387","4.492","0.04","0.29","30.0869","4.73328","13.23","0","SATNPRO1964","24.992","0.35004","5"],
    [60058,"HCEP03730563","2025-09-14 00:00:00","11.0607","3.41362","25.942","1.168","7.34","0.375","4.33","0.03","0.41","30.086","4.73316","12.84","0","SATNPRO1964","25.298","0.35434","5"],
    [60059,"HCEP03730563","2025-09-14 00:15:00","11.0645","3.41273","25.731","1.249","7.36","0.373","3.368","0.03","0.3","30.0742","4.73142","13.73","0","SATNPRO1964","27.868","0.39036","5"],
    [60060,"HCEP03730563","2025-09-14 00:30:00","11.0645","3.41295","25.542","1.43","7.36","0.368","3.122","0.08","0.24","30.0766","4.73174","15.71","0","SATNPRO1964","28.214","0.39518","5"],
    [60061,"HCEP03730563","2025-09-14 00:45:00","11.0638","3.41304","25.332","1.416","7.36","0.411","4.295","0.07","0.33","30.078","4.73194","15.56","0","SATNPRO1964","26.282","0.36812","5"],
    [60062,"HCEP03730563","2025-09-14 01:00:00","11.0627","3.41311","25.143","1.362","7.36","0.404","3.67","0.12","0.36","30.0797","4.73219","14.97","0","SATNPRO1964","26.414","0.36998","5"],
    [60063,"HCEP03730563","2025-09-14 01:15:00","11.0638","3.41323","24.95","1.313","7.36","0.377","3.828","0.05","0.26","30.08","4.73221","14.43","0","SATNPRO1964","26.29","0.36826","5"],
    [60064,"HCEP03730563","2025-09-14 01:30:00","11.0643","3.41323","24.78","1.309","7.36","0.373","3.953","0.05","0.26","30.0797","4.73215","14.39","0","SATNPRO1964","26.396","0.36972","5"],
    [60065,"HCEP03730563","2025-09-14 01:45:00","11.0661","3.41343","24.628","1.331","7.36","0.401","4.109","0.07","0.3","30.0802","4.73218","14.63","0","SATNPRO1964","26.79","0.37524","5"],
    [60066,"HCEP03730563","2025-09-14 02:00:00","11.0718","3.41391","24.477","1.395","7.37","0.467","3.908","0.2","0.21","30.0804","4.73211","15.34","0","SATNPRO1964","27.606","0.38666","5"],
    [60067,"HCEP03730563","2025-09-14 02:15:00","11.0729","3.41384","24.345","1.483","7.37","0.454","4.193","0.07","0.22","30.0788","4.73186","16.3","0","SATNPRO1964","27.81","0.3895","5"],
    [60068,"HCEP03730563","2025-09-14 02:30:00","11.0719","3.41381","24.262","1.506","7.37","0.408","4.531","0.06","0.25","30.0794","4.73196","16.55","0","SATNPRO1964","27.322","0.3827","5"],
    [60069,"HCEP03730563","2025-09-14 02:45:00","11.0731","3.41399","24.199","1.499","7.37","0.396","4.711","0.04","0.49","30.0802","4.73205","16.48","0","SATNPRO1964","27.483999999999998","0.38492","5"],
    [60070,"HCEP03730563","2025-09-14 03:00:00","11.0735","3.41352","24.16","1.522","7.38","0.329","3.407","0.03","0.2","30.0753","4.73134","16.73","0","SATNPRO1964","27.924","0.39114","5"],
    [60071,"HCEP03730563","2025-09-14 03:15:00","11.0771","3.41451","24.152","1.564","7.38","0.362","3.872","0.02","0.27","30.082","4.73224","17.19","0","SATNPRO1964","28.098","0.3936","5"],
    [60072,"HCEP03730563","2025-09-14 03:30:00","11.0782","3.4146","24.144","1.609","7.39","0.355","3.919","0.04","0.21","30.082","4.73222","17.69","0","SATNPRO1964","28.544","0.39986","5"],
    [60073,"HCEP03730563","2025-09-14 03:45:00","11.0768","3.41405","24.169","1.637","7.39","0.43","5.22","0.09","3.94","30.0777","4.73164","17.99","0","SATNPRO1964","28.332","0.39686","5"],
    [60074,"HCEP03730563","2025-09-14 04:00:00","11.079","3.41456","24.192","1.645","7.39","0.348","3.619","0.02","0.32","30.081","4.73207","18.08","0","SATNPRO1964","28.322","0.39674","5"],
    [60075,"HCEP03730563","2025-09-14 04:15:00","11.0771","3.41459","24.232","1.637","7.39","0.398","4.182","0.03","0.16","30.0828","4.73235","17.99","0","SATNPRO1964","27.908","0.39088","5"],
    [60076,"HCEP03730563","2025-09-14 04:30:00","11.078","3.41471","24.289","1.589","7.38","0.386","4.332","0.04","0.16","30.0832","4.7324","17.47","0","SATNPRO1964","27.844","0.39002","5"],
    [60077,"HCEP03730563","2025-09-14 04:45:00","11.0783","3.41482","24.342","1.575","7.38","0.408","4.55","0.06","0.29","30.084","4.73252","17.31","0","SATNPRO1964","27.58","0.38632","5"],
    [60078,"HCEP03730563","2025-09-14 05:00:00","11.0779","3.41477","24.441","1.57","7.38","0.392","5.213","0.03","0.3","30.0837","4.73249","17.25","0","SATNPRO1964","27.608","0.38668","5"],
    [60079,"HCEP03730563","2025-09-14 05:15:00","11.0774","3.4148","24.566","1.557","7.38","0.413","5.131","0.04","0.19","30.0845","4.73261","17.12","0","SATNPRO1964","27.412","0.3839","5"],
    [60080,"HCEP03730563","2025-09-14 05:30:00","11.077","3.41475","24.687","1.533","7.38","0.406","5.613","0.05","0.28","30.0842","4.73259","16.85","0","SATNPRO1964","27.216","0.38124","5"],
    [60081,"HCEP03730563","2025-09-14 05:45:00","11.0783","3.4151","24.788","1.522","7.38","0.434","5.78","0.04","0.81","30.0865","4.73289","16.73","0","SATNPRO1964","27.21","0.38112","5"],
    [60082,"HCEP03730563","2025-09-14 06:00:00","11.08","3.41546","24.949","1.544","7.38","0.388","5.175","0.04","0.24","30.0886","4.73318","16.98","0","SATNPRO1964","27.554","0.3859","5"],
    [60083,"HCEP03730563","2025-09-14 06:15:00","11.0817","3.41589","25.081","1.567","7.38","0.414","5.304","0.02","0.28","30.0914","4.73355","17.23","0","SATNPRO1964","27.77","0.38898","5"],
    [60084,"HCEP03730563","2025-09-14 06:30:00","11.082","3.416","25.236","1.585","7.38","0.377","5.07","0.03","0.15","30.0922","4.73367","17.43","0","SATNPRO1964","27.734","0.38846","5"],
    [60085,"HCEP03730563","2025-09-14 06:45:00","11.0824","3.41618","25.387","1.587","7.38","0.44","5.127","0.09","0.22","30.0936","4.73387","17.45","0","SATNPRO1964","27.474","0.38484","5"],
    [60086,"HCEP03730563","2025-09-14 07:00:00","11.0839","3.41643","25.576","1.589","7.39","0.441","5.47","0.04","0.31","30.0946","4.734","17.47","0","SATNPRO1964","27.582","0.38632","5"],
    [60087,"HCEP03730563","2025-09-14 07:15:00","11.0846","3.41664","25.871","1.594","7.39","0.471","8.017","0.05","1.03","30.096","4.73421","17.53","0","SATNPRO1964","27.742","0.38858","5"],
    [60088,"HCEP03730563","2025-09-14 07:30:00","11.0836","3.41653","26.009","1.601","7.39","0.406","4.549","0.04","0.2","30.0956","4.73418","17.6","0","SATNPRO1964","27.73","0.3884","5"],
    [60089,"HCEP03730563","2025-09-14 07:45:00","11.0842","3.41659","26.177","1.604","7.39","0.388","4.487","0.04","0.29","30.0957","4.73419","17.63","0","SATNPRO1964","28.086000000000002","0.39338","5"],
    [60090,"HCEP03730563","2025-09-14 08:00:00","11.0848","3.41665","26.406","1.609","7.39","0.363","4.36","0.03","0.15","30.0957","4.73419","17.69","0","SATNPRO1964","27.926000000000002","0.39114","5"],
    [60091,"HCEP03730563","2025-09-14 08:15:00","11.0858","3.41676","26.59","1.609","7.39","0.398","5.023","0.03","0.31","30.0959","4.73422","17.69","0","SATNPRO1964","27.8","0.38938","5"],
    [60092,"HCEP03730563","2025-09-14 08:30:00","11.0854","3.41674","26.707","1.611","7.39","0.392","4.804","0.05","0.39","30.096","4.73424","17.71","0","SATNPRO1964","27.714","0.38818","5"],
    [60093,"HCEP03730563","2025-09-14 08:45:00","11.0869","3.417","26.853","1.613","7.39","0.414","4.183","0.05","0.2","30.0972","4.7344","17.73","0","SATNPRO1964","28.118","0.39382","5"],
    [60094,"HCEP03730563","2025-09-14 09:00:00","11.0867","3.41695","27.012","1.63","7.39","0.401","4.454","0.06","0.28","30.0969","4.73437","17.92","0","SATNPRO1964","27.716","0.3882","5"],
    [60095,"HCEP03730563","2025-09-14 09:15:00","11.0861","3.41684","27.113","1.628","7.39","0.404","4.298","0.06","0.19","30.0962","4.73429","17.9","0","SATNPRO1964","27.768","0.3889","5"],
    [60096,"HCEP03730563","2025-09-14 09:30:00","11.0856","3.41676","27.218","1.61","7.39","0.44","4.691","0.18","0.6","30.0957","4.73423","17.7","0","SATNPRO1964","27.73","0.38842","5"],
    [60097,"HCEP03730563","2025-09-14 09:45:00","11.0853","3.41669","27.287","1.596","7.39","0.389","4.411","0.06","0.24","30.0953","4.73418","17.55","0","SATNPRO1964","27.934","0.39126","5"],
    [60098,"HCEP03730563","2025-09-14 10:00:00","11.0857","3.41677","27.358","1.603","7.39","0.36","4.303","0.04","0.18","30.0958","4.73425","17.63","0","SATNPRO1964","28.046","0.3928","5"],
    [60099,"HCEP03730563","2025-09-14 10:15:00","11.0858","3.41669","27.415","1.624","7.39","0.363","3.685","0.02","0.11","30.0949","4.73413","17.85","0","SATNPRO1964","28.468","0.3987","5"],
    [60100,"HCEP03730563","2025-09-14 10:30:00","11.0877","3.41693","27.436","1.657","7.39","0.387","3.628","0.05","0.15","30.0956","4.7342","18.22","0","SATNPRO1964","28.27","0.39596","5"],
    [60101,"HCEP03730563","2025-09-14 10:45:00","11.0876","3.41697","27.469","1.677","7.39","0.461","3.664","0.14","0.13","30.0962","4.73428","18.44","0","SATNPRO1964","28.233999999999998","0.39546","5"],
    [60102,"HCEP03730563","2025-09-14 11:00:00","11.0881","3.41706","27.47","1.671","7.39","0.362","3.762","0.04","0.22","30.0966","4.73433","18.38","0","SATNPRO1964","28.282","0.39618","5"],
    [60103,"HCEP03730563","2025-09-14 11:15:00","11.088","3.41709","27.488","1.664","7.39","0.43","3.975","0.18","0.54","30.0969","4.73438","18.3","0","SATNPRO1964","27.938","0.39136","5"],
    [60104,"HCEP03730563","2025-09-14 11:30:00","11.0883","3.41723","27.488","1.651","7.39","0.354","3.902","0.02","0.13","30.0981","4.73454","18.16","0","SATNPRO1964","27.87","0.39036","5"],
    [60105,"HCEP03730563","2025-09-14 11:45:00","11.0874","3.41721","27.492","1.63","7.39","0.396","3.715","0.04","0.06","30.0986","4.73462","17.93","0","SATNPRO1964","27.784","0.38912","5"],
    [60106,"HCEP03730563","2025-09-14 12:00:00","11.0885","3.41726","27.48","1.625","7.39","0.376","3.524","0.07","0.06","30.0983","4.73457","17.87","0","SATNPRO1964","27.96","0.3916","5"],
    [60107,"HCEP03730563","2025-09-14 12:15:00","11.0886","3.41736","27.48","1.642","7.39","0.395","4.18","0.03","0.17","30.0992","4.73469","18.05","0","SATNPRO1964","27.644000000000002","0.3872","5"],
    [60108,"HCEP03730563","2025-09-14 12:30:00","11.089","3.4174","27.454","1.65","7.39","0.342","3.745","0.03","0.15","30.0992","4.73468","18.15","0","SATNPRO1964","27.896","0.39072","5"],
    [60109,"HCEP03730563","2025-09-14 12:45:00","11.0902","3.4175","27.417","1.637","7.39","0.417","3.857","0.06","0.15","30.0992","4.73466","18","0","SATNPRO1964","28.13","0.39404","5"],
    [60110,"HCEP03730563","2025-09-14 13:00:00","11.0874","3.41728","27.403","1.612","7.39","0.375","4.597","0.04","0.23","30.0994","4.73473","17.72","0","SATNPRO1964","27.878","0.39044","5"],
    [60111,"HCEP03730563","2025-09-14 13:15:00","11.0874","3.41721","27.366","1.57","7.39","0.398","4.834","0.04","0.61","30.0986","4.73462","17.26","0","SATNPRO1964","27.69","0.38782","5"],
    [60112,"HCEP03730563","2025-09-14 13:30:00","11.0854","3.41699","27.33","1.553","7.38","0.375","4.948","0.03","0.3","30.0982","4.73458","17.08","0","SATNPRO1964","27.52","0.38552","5"],
    [60113,"HCEP03730563","2025-09-14 13:45:00","11.0844","3.41671","27.249","1.517","7.38","0.394","5.061","0.05","0.18","30.0962","4.73432","16.67","0","SATNPRO1964","27.422","0.38408","5"],
    [60114,"HCEP03730563","2025-09-14 14:00:00","11.0847","3.41674","27.197","1.529","7.38","0.356","4.532","0.04","0.18","30.0964","4.73434","16.81","0","SATNPRO1964","27.977999999999998","0.39186","5"],
    [60115,"HCEP03730563","2025-09-14 14:15:00","11.0836","3.41636","27.125","1.558","7.38","0.374","4.626","0.05","0.24","30.0936","4.73395","17.13","0","SATNPRO1964","27.892","0.39066","5"],
    [60116,"HCEP03730563","2025-09-14 14:30:00","11.073","3.41509","27.093","1.491","7.37","0.348","4.984","0.03","0.26","30.0898","4.73357","16.39","0","SATNPRO1964","26.451999999999998","0.37052","5"],
    [60117,"HCEP03730563","2025-09-14 14:45:00","11.0711","3.41468","27.085","1.329","7.36","0.372","5.126","0.03","0.22","30.0873","4.73325","14.61","0","SATNPRO1964","26.592","0.37244","5"],
    [60118,"HCEP03730563","2025-09-14 15:00:00","11.0947","3.41656","27.019","1.416","7.38","0.372","3.654","0.14","0.35","30.0865","4.73278","15.58","0","SATNPRO1964","29.144","0.4082","5"],
    [60119,"HCEP03730563","2025-09-14 15:15:00","11.0746","3.41456","26.987","1.617","7.38","0.375","4.676","0.04","0.32","30.0834","4.73264","17.77","0","SATNPRO1964","26.966","0.3777","5"],
    [60120,"HCEP03730563","2025-09-14 15:30:00","11.0713","3.41405","26.927","1.403","7.37","0.332","3.926","0.03","0.24","30.0812","4.73237","15.42","0","SATNPRO1964","26.962","0.37758","5"],
    [60121,"HCEP03730563","2025-09-14 15:45:00","11.0711","3.41491","26.891","1.332","7.36","0.328","4.202","0.02","0.18","30.0898","4.73359","14.64","0","SATNPRO1964","26.028","0.36456","5"],
    [60122,"HCEP03730563","2025-09-14 16:00:00","11.0795","3.41626","26.875","1.266","7.36","0.312","3.895","0.03","0.23","30.0961","4.73435","13.92","0","SATNPRO1964","26.006","0.36424","5"],
    [60123,"HCEP03730563","2025-09-14 16:15:00","11.086","3.41741","26.874","1.256","7.35","0.338","4.461","0.04","0.25","30.102","4.73509","13.81","0","SATNPRO1964","26.058","0.36498","5"],
    [60124,"HCEP03730563","2025-09-14 16:30:00","11.0888","3.41774","26.867","1.251","7.35","0.315","4.461","0.04","0.21","30.1028","4.73517","13.76","0","SATNPRO1964","26.002","0.36422","5"],
    [60125,"HCEP03730563","2025-09-14 16:45:00","11.0897","3.41792","26.839","1.261","7.35","0.338","4.488","0.04","0.31","30.1039","4.73531","13.87","0","SATNPRO1964","26.080000000000002","0.36528","5"],
    [60126,"HCEP03730563","2025-09-14 17:00:00","11.091","3.418","26.873","1.262","7.35","0.311","4.297","0.02","0.18","30.1036","4.73524","13.88","0","SATNPRO1964","26.131999999999998","0.36604","5"],
    [60127,"HCEP03730563","2025-09-14 17:15:00","11.0911","3.41786","26.825","1.279","7.35","0.335","3.794","0.04","0.23","30.1022","4.73505","14.06","0","SATNPRO1964","26.3","0.36838","5"],
    [60128,"HCEP03730563","2025-09-14 17:30:00","11.0898","3.41778","26.865","1.285","7.35","0.313","4.315","0.02","0.25","30.1025","4.7351","14.13","0","SATNPRO1964","25.964","0.3637","5"],
    [60129,"HCEP03730563","2025-09-14 17:45:00","11.0874","3.41733","26.955","1.261","7.35","0.346","4.051","0.09","0.46","30.1","4.7348","13.87","0","SATNPRO1964","25.932","0.36322","5"],
    [60130,"HCEP03730563","2025-09-14 18:00:00","11.0837","3.41676","26.943","1.234","7.35","0.311","3.972","0.07","0.43","30.0974","4.73449","13.57","0","SATNPRO1964","25.708000000000002","0.3601","5"],
    [60131,"HCEP03730563","2025-09-14 18:15:00","11.079","3.41594","26.973","1.203","7.35","0.352","3.964","0.04","0.32","30.0933","4.73397","13.22","0","SATNPRO1964","25.422","0.35608","5"],
    [60132,"HCEP03730563","2025-09-14 18:30:00","11.0739","3.41517","26.995","1.171","7.34","0.34","3.959","0.04","0.13","30.0899","4.73358","12.88","0","SATNPRO1964","25.316","0.35458","5"],
    [60133,"HCEP03730563","2025-09-14 18:45:00","11.0775","3.41577","27.078","1.153","7.34","0.353","3.593","0.03","0.19","30.0928","4.73393","12.67","0","SATNPRO1964","25.596","0.35854","5"],
    [60134,"HCEP03730563","2025-09-14 19:00:00","11.0808","3.41636","27.08","1.169","7.34","0.345","3.742","0.06","0.18","30.0958","4.73431","12.86","0","SATNPRO1964","26.002","0.36422","5"],
    [60135,"HCEP03730563","2025-09-14 19:15:00","11.0835","3.41682","27.151","1.193","7.35","0.355","3.617","0.04","0.22","30.0982","4.73461","13.12","0","SATNPRO1964","25.992","0.3641","5"],
    [60136,"HCEP03730563","2025-09-14 19:30:00","11.0869","3.41721","27.169","1.218","7.35","0.319","3.598","0.03","0.2","30.0992","4.7347","13.39","0","SATNPRO1964","25.96","0.36362","5"],
    [60137,"HCEP03730563","2025-09-14 19:45:00","11.0868","3.41715","27.194","1.238","7.35","0.335","3.44","0.03","0.45","30.0986","4.73462","13.61","0","SATNPRO1964","26.132","0.36604","5"],
    [60138,"HCEP03730563","2025-09-14 20:00:00","11.0896","3.41772","27.215","1.256","7.35","0.313","3.657","0.03","0.85","30.1019","4.73504","13.81","0","SATNPRO1964","26.28","0.36808","5"],
    [60139,"HCEP03730563","2025-09-14 20:15:00","11.0938","3.41828","27.258","1.285","7.35","0.346","3.595","0.03","0.14","30.104","4.73528","14.13","0","SATNPRO1964","26.206","0.36704","5"],
    [60140,"HCEP03730563","2025-09-14 20:30:00","11.0916","3.41818","27.305","1.295","7.35","0.338","4.256","0.02","0.21","30.1048","4.73543","14.24","0","SATNPRO1964","26.11","0.36572","5"],
    [60141,"HCEP03730563","2025-09-14 20:45:00","11.0899","3.41796","27.289","1.268","7.35","0.366","4.144","0.05","0.19","30.104","4.73534","13.94","0","SATNPRO1964","26.2","0.36694","5"],
    [60142,"HCEP03730563","2025-09-14 21:00:00","11.0875","3.41754","27.322","1.258","7.35","0.325","4.122","0.02","0.18","30.1019","4.73508","13.83","0","SATNPRO1964","25.928","0.36318","5"],
    [60143,"HCEP03730563","2025-09-14 21:15:00","11.0859","3.41736","27.32","1.243","7.35","0.35","4.159","0.03","0.15","30.1014","4.73504","13.67","0","SATNPRO1964","25.968","0.36374","5"],
    [60144,"HCEP03730563","2025-09-14 21:30:00","11.0824","3.41679","27.314","1.23","7.35","0.316","4.057","0.02","0.56","30.0987","4.73471","13.52","0","SATNPRO1964","25.846","0.36202","5"],
    [60145,"HCEP03730563","2025-09-14 21:45:00","11.0826","3.41685","27.291","1.209","7.35","0.355","4.065","0.02","0.16","30.0992","4.73477","13.29","0","SATNPRO1964","25.913999999999998","0.36294","5"],
    [60146,"HCEP03730563","2025-09-14 22:00:00","11.0821","3.41677","27.319","1.2","7.35","0.347","4.61","0.03","0.36","30.0988","4.73472","13.19","0","SATNPRO1964","25.78","0.3611","5"],
    [60147,"HCEP03730563","2025-09-14 22:15:00","11.0802","3.41649","27.267","1.187","7.35","0.342","3.92","0.03","0.2","30.0975","4.73457","13.05","0","SATNPRO1964","25.742","0.36056","5"],
    [60148,"HCEP03730563","2025-09-14 22:30:00","11.0771","3.41602","27.214","1.172","7.34","0.345","4.303","0.04","0.52","30.0955","4.73433","12.89","0","SATNPRO1964","25.634","0.35904","5"],
    [60149,"HCEP03730563","2025-09-14 22:45:00","11.075","3.41569","27.141","1.14","7.34","0.37","4.347","0.04","0.56","30.0941","4.73415","12.53","0","SATNPRO1964","25.708000000000002","0.3601","5"],
    [60150,"HCEP03730563","2025-09-14 23:00:00","11.0736","3.41542","27.066","1.127","7.34","0.335","3.879","0.04","0.29","30.0925","4.73395","12.39","0","SATNPRO1964","25.77","0.36096","5"],
    [60151,"HCEP03730563","2025-09-14 23:15:00","11.0716","3.41496","26.957","1.133","7.34","0.331","3.625","0.02","0.15","30.0897","4.73358","12.46","0","SATNPRO1964","25.914","0.36296","5"],
    [60152,"HCEP03730563","2025-09-14 23:30:00","11.0722","3.41463","26.851","1.171","7.35","0.312","3.296","0.03","0.09","30.0861","4.73305","12.87","0","SATNPRO1964","26.368","0.36932","5"],
    [60153,"HCEP03730563","2025-09-14 23:45:00","11.0722","3.41461","26.716","1.222","7.35","0.349","3.335","0.03","0.19","30.086","4.73302","13.43","0","SATNPRO1964","26.46","0.37062","5"],
    [60154,"HCEP03730563","2025-09-15 00:00:00","11.0732","3.41471","26.578","1.248","7.35","0.335","3.334","0.04","0.12","30.0862","4.73303","13.72","0","SATNPRO1964","26.626","0.37294","5"],
    [60155,"HCEP03730563","2025-09-15 00:15:00","11.0717","3.41468","26.427","1.253","7.35","0.347","3.911","0.02","0.21","30.0872","4.73319","13.77","0","SATNPRO1964","26.036","0.3647","5"],
    [60156,"HCEP03730563","2025-09-15 00:30:00","11.0723","3.41468","26.266","1.227","7.35","0.33","4.017","0.03","0.53","30.0868","4.73311","13.49","0","SATNPRO1964","25.982","0.36394","5"],
    [60157,"HCEP03730563","2025-09-15 00:45:00","11.0742","3.41491","26.099","1.236","7.35","0.361","4.101","0.02","0.12","30.0876","4.73318","13.58","0","SATNPRO1964","26.45","0.37048","5"],
    [60158,"HCEP03730563","2025-09-15 01:00:00","11.0776","3.41522","25.937","1.269","7.35","0.352","4.287","0.03","0.18","30.0878","4.73316","13.94","0","SATNPRO1964","26.704","0.37406","5"],
    [60159,"HCEP03730563","2025-09-15 01:15:00","11.0795","3.41548","25.756","1.306","7.36","0.371","4.136","0.03","0.21","30.0889","4.73328","14.36","0","SATNPRO1964","26.778","0.37512","5"],
    [60160,"HCEP03730563","2025-09-15 01:30:00","11.0841","3.41591","25.59","1.346","7.36","0.384","4.304","0.04","0.21","30.0894","4.73327","14.8","0","SATNPRO1964","27.004","0.37822","5"],
    [60161,"HCEP03730563","2025-09-15 01:45:00","11.0851","3.41603","25.405","1.371","7.36","0.403","4.176","0.05","0.13","30.0898","4.7333","15.08","0","SATNPRO1964","27.188","0.38084","5"],
    [60162,"HCEP03730563","2025-09-15 02:00:00","11.0931","3.41674","25.237","1.414","7.37","0.406","4.025","0.14","0.2","30.0903","4.73324","15.55","0","SATNPRO1964","27.188","0.38082","5"],
    [60163,"HCEP03730563","2025-09-15 02:15:00","11.0892","3.41633","25.077","1.466","7.37","0.381","4.484","0.04","0.37","30.0895","4.73318","16.12","0","SATNPRO1964","27.172","0.3806","5"],
    [60164,"HCEP03730563","2025-09-15 02:30:00","11.092","3.41667","24.914","1.455","7.37","0.354","3.988","0.03","0.4","30.0906","4.73328","16","0","SATNPRO1964","27.354","0.3831","5"],
    [60165,"HCEP03730563","2025-09-15 02:45:00","11.0907","3.41646","24.78","1.471","7.37","0.373","3.952","0.04","0.14","30.0897","4.73317","16.17","0","SATNPRO1964","27.080000000000002","0.3793","5"],
    [60166,"HCEP03730563","2025-09-15 03:00:00","11.0888","3.41633","24.641","1.452","7.37","0.357","3.952","0.03","0.2","30.09","4.73323","15.96","0","SATNPRO1964","27.26","0.38186","5"],
    [60167,"HCEP03730563","2025-09-15 03:15:00","11.0899","3.41647","24.529","1.439","7.37","0.359","3.998","0.02","0.12","30.0905","4.73328","15.82","0","SATNPRO1964","27.13","0.38","5"],
    [60168,"HCEP03730563","2025-09-15 03:30:00","11.0921","3.41671","24.416","1.455","7.37","0.371","4.35","0.09","0.41","30.0911","4.73331","15.99","0","SATNPRO1964","27.234","0.38146","5"],
    [60169,"HCEP03730563","2025-09-15 03:45:00","11.0912","3.41642","24.348","1.476","7.37","0.382","4.1","0.06","0.18","30.0891","4.73304","16.23","0","SATNPRO1964","27.124","0.37992","5"],
    [60170,"HCEP03730563","2025-09-15 04:00:00","11.0947","3.41697","24.268","1.478","7.38","0.361","3.998","0.03","0.2","30.0916","4.73334","16.25","0","SATNPRO1964","27.306","0.38248","5"],
    [60171,"HCEP03730563","2025-09-15 04:15:00","11.0983","3.41699","24.25","1.529","7.38","0.391","4.244","0.03","0.2","30.0889","4.7329","16.82","0","SATNPRO1964","27.324","0.38274","5"],
    [60172,"HCEP03730563","2025-09-15 04:30:00","11.1054","3.41764","24.217","1.565","7.38","0.354","4.035","0.02","0.18","30.0894","4.73287","17.21","0","SATNPRO1964","27.82","0.38968","5"],
    [60173,"HCEP03730563","2025-09-15 04:45:00","11.1111","3.41818","24.206","1.634","7.39","0.386","3.561","0.06","0.17","30.0901","4.73287","17.97","0","SATNPRO1964","28.016000000000002","0.39244","5"],
    [60174,"HCEP03730563","2025-09-15 05:00:00","11.1152","3.41875","24.208","1.689","7.39","0.343","3.187","0.02","0.11","30.0922","4.73311","18.58","0","SATNPRO1964","28.434","0.39828","5"],
    [60175,"HCEP03730563","2025-09-15 05:15:00","11.1165","3.41897","24.216","1.739","7.4","0.398","4.047","0.04","0.16","30.0933","4.73325","19.13","0","SATNPRO1964","28.62","0.40086","5"],
    [60176,"HCEP03730563","2025-09-15 05:30:00","11.1208","3.41937","24.244","1.778","7.4","0.385","3.655","0.09","0.17","30.0936","4.73323","19.56","0","SATNPRO1964","28.782","0.40316","5"],
    [60177,"HCEP03730563","2025-09-15 05:45:00","11.1243","3.41976","24.294","1.823","7.4","0.377","3.241","0.05","0.07","30.0946","4.73333","20.06","0","SATNPRO1964","29.084","0.4074","5"],
    [60178,"HCEP03730563","2025-09-15 06:00:00","11.1414","3.4212","24.343","1.913","7.41","0.323","2.425","0.03","0.1","30.0947","4.73308","21.05","0","SATNPRO1964","30.048000000000002","0.42088","5"],
    [60179,"HCEP03730563","2025-09-15 06:15:00","11.1487","3.4211","24.453","2.033","7.42","0.4","3.007","0.04","0.16","30.0877","4.73199","22.38","0","SATNPRO1964","29.796","0.41734","5"],
    [60180,"HCEP03730563","2025-09-15 06:30:00","11.1327","3.41982","24.591","2.016","7.42","0.398","3.279","0.04","0.31","30.0882","4.73231","22.18","0","SATNPRO1964","28.992","0.40614","5"],
    [60181,"HCEP03730563","2025-09-15 06:45:00","11.1373","3.41996","24.727","1.924","7.42","0.444","3.512","0.08","0.2","30.0858","4.7319","21.18","0","SATNPRO1964","29.086","0.40742","5"],
    [60182,"HCEP03730563","2025-09-15 07:00:00","11.1262","3.41907","24.868","1.873","7.41","0.445","4.312","0.08","0.17","30.0862","4.73213","20.61","0","SATNPRO1964","27.594","0.3865","5"],
    [60183,"HCEP03730563","2025-09-15 07:15:00","11.1236","3.4188","25.036","1.768","7.4","0.457","4.285","0.06","0.28","30.0855","4.73208","19.45","0","SATNPRO1964","27.506","0.38528","5"],
    [60184,"HCEP03730563","2025-09-15 07:30:00","11.1249","3.41868","25.2","1.708","7.4","0.429","4.275","0.07","0.22","30.0833","4.73175","18.8","0","SATNPRO1964","27.598","0.38658","5"],
    [60185,"HCEP03730563","2025-09-15 07:45:00","11.1259","3.4186","25.393","1.698","7.4","0.479","4.785","0.09","0.41","30.0816","4.73151","18.68","0","SATNPRO1964","27.498","0.38516","5"],
    [60186,"HCEP03730563","2025-09-15 08:00:00","11.1318","3.41892","25.572","1.711","7.4","0.404","4.174","0.03","0.43","30.0798","4.73118","18.83","0","SATNPRO1964","28.258","0.39582","5"],
    [60187,"HCEP03730563","2025-09-15 08:15:00","11.1328","3.41903","25.719","1.752","7.4","0.461","4.253","0.06","0.16","30.08","4.7312","19.28","0","SATNPRO1964","27.95","0.39148","5"],
    [60188,"HCEP03730563","2025-09-15 08:30:00","11.1342","3.4192","25.89","1.789","7.4","0.449","4.07","0.08","0.16","30.0805","4.73126","19.69","0","SATNPRO1964","28.402","0.39778","5"],
    [60189,"HCEP03730563","2025-09-15 08:45:00","11.1305","3.41885","26.064","1.792","7.4","0.498","6.75","0.07","3.36","30.08","4.73125","19.72","0","SATNPRO1964","28.182","0.39476","5"],
    [60190,"HCEP03730563","2025-09-15 09:00:00","11.1247","3.41868","26.22","1.753","7.4","0.407","4.764","0.03","0.28","30.083","4.73177","19.29","0","SATNPRO1964","28","0.3922","5"],
    [60191,"HCEP03730563","2025-09-15 09:15:00","11.1231","3.41903","26.405","1.711","7.4","0.429","5.516","0.05","0.19","30.0877","4.73248","18.83","0","SATNPRO1964","28.22","0.39528","5"],
    [60192,"HCEP03730563","2025-09-15 09:30:00","11.1263","3.41928","26.617","1.723","7.4","0.403","5.454","0.06","0.36","30.0874","4.73239","18.96","0","SATNPRO1964","28.176","0.39466","5"],
    [60193,"HCEP03730563","2025-09-15 09:45:00","11.122","3.41899","26.778","1.722","7.4","0.471","7.055","0.05","0.97","30.088","4.73256","18.95","0","SATNPRO1964","27.696","0.3879","5"],
    [60194,"HCEP03730563","2025-09-15 10:00:00","11.1187","3.41872","26.913","1.681","7.39","0.385","5.219","0.1","0.24","30.0881","4.73263","18.5","0","SATNPRO1964","27.52","0.38544","5"],
    [60195,"HCEP03730563","2025-09-15 10:15:00","11.11","3.41825","27.033","1.649","7.39","0.437","6.329","0.08","0.63","30.0905","4.7331","18.14","0","SATNPRO1964","27.456","0.38456","5"],
    [60196,"HCEP03730563","2025-09-15 10:30:00","11.0981","3.41715","27.147","1.566","7.38","0.362","5.353","0.03","0.2","30.0894","4.73313","17.23","0","SATNPRO1964","27.19","0.38086","5"],
    [60197,"HCEP03730563","2025-09-15 10:45:00","11.0974","3.41703","27.23","1.49","7.38","0.382","5.121","0.03","0.33","30.0888","4.73307","16.39","0","SATNPRO1964","27.408","0.38388","5"],
    [60198,"HCEP03730563","2025-09-15 11:00:00","11.0994","3.41715","27.303","1.486","7.38","0.365","5.092","0.04","0.37","30.0883","4.73297","16.34","0","SATNPRO1964","27.406","0.3839","5"],
    [60199,"HCEP03730563","2025-09-15 11:15:00","11.101","3.41713","27.338","1.504","7.38","0.373","4.629","0.03","0.19","30.0868","4.73274","16.54","0","SATNPRO1964","27.61","0.38676","5"],
    [60200,"HCEP03730563","2025-09-15 11:30:00","11.1017","3.41706","27.416","1.522","7.38","0.369","5.569","0.03","0.65","30.0855","4.73255","16.74","0","SATNPRO1964","27.524","0.38552","5"],
    [60201,"HCEP03730563","2025-09-15 11:45:00","11.103","3.41684","27.469","1.553","7.38","0.371","4.369","0.02","0.41","30.0823","4.73208","17.08","0","SATNPRO1964","27.78","0.38908","5"],
    [60202,"HCEP03730563","2025-09-15 12:00:00","11.1016","3.41659","27.515","1.585","7.38","2.231","36.273","1.36","19.54","30.081","4.73191","17.43","0","SATNPRO1964","27.874","0.3904","5"],
    [60203,"HCEP03730563","2025-09-15 12:15:00","11.0962","3.41627","27.553","1.571","7.38","0.349","3.898","0.02","0.2","30.0822","4.73217","17.28","0","SATNPRO1964","27.972","0.3918","5"],
    [60204,"HCEP03730563","2025-09-15 12:30:00","11.0931","3.41591","27.582","1.525","7.38","0.329","3.746","0.04","0.19","30.0812","4.73207","16.76","0","SATNPRO1964","27.794","0.3893","5"],
    [60205,"HCEP03730563","2025-09-15 12:45:00","11.0906","3.41576","27.584","1.508","7.38","0.361","4.268","0.03","0.29","30.0819","4.73221","16.58","0","SATNPRO1964","27.676000000000002","0.38762","5"],
    [60206,"HCEP03730563","2025-09-15 13:00:00","11.0909","3.41571","27.589","1.481","7.38","0.323","3.852","0.03","0.36","30.081","4.73209","16.29","0","SATNPRO1964","27.676000000000002","0.38766","5"],
    [60207,"HCEP03730563","2025-09-15 13:15:00","11.0898","3.41565","27.589","1.474","7.37","0.364","3.751","0.06","0.23","30.0814","4.73215","16.2","0","SATNPRO1964","27.52","0.38544","5"],
    [60208,"HCEP03730563","2025-09-15 13:30:00","11.0946","3.41581","27.581","1.476","7.38","0.346","3.793","0.05","0.22","30.079","4.73174","16.23","0","SATNPRO1964","27.872","0.39044","5"],
    [60209,"HCEP03730563","2025-09-15 13:45:00","11.089","3.41568","27.548","1.483","7.37","0.365","4.368","0.04","0.29","30.0823","4.73229","16.31","0","SATNPRO1964","27.454","0.38454","5"],
    [60210,"HCEP03730563","2025-09-15 14:00:00","11.0848","3.41552","27.507","1.413","7.37","0.317","3.927","0.02","0.38","30.0842","4.73262","15.54","0","SATNPRO1964","26.944","0.37742","5"],
    [60211,"HCEP03730563","2025-09-15 14:15:00","11.0824","3.41535","27.453","1.348","7.36","0.336","3.862","0.03","0.15","30.0846","4.73271","14.81","0","SATNPRO1964","26.722","0.37428","5"],
    [60212,"HCEP03730563","2025-09-15 14:30:00","11.0797","3.4151","27.421","1.3","7.36","0.322","4.44","0.02","0.43","30.0844","4.73272","14.3","0","SATNPRO1964","26.578","0.37226","5"],
    [60213,"HCEP03730563","2025-09-15 14:45:00","11.0793","3.41524","27.393","1.259","7.35","0.365","4.771","0.03","0.32","30.086","4.73296","13.84","0","SATNPRO1964","26.368","0.36932","5"],
    [60214,"HCEP03730563","2025-09-15 15:00:00","11.0798","3.41504","27.325","1.241","7.35","0.33","4.211","0.03","0.47","30.0837","4.73262","13.64","0","SATNPRO1964","26.376","0.36948","5"],
    [60215,"HCEP03730563","2025-09-15 15:15:00","11.0791","3.41507","27.282","1.241","7.35","0.359","4.489","0.03","0.2","30.0846","4.73275","13.65","0","SATNPRO1964","26.356","0.36916","5"],
    [60216,"HCEP03730563","2025-09-15 15:30:00","11.0775","3.41501","27.213","1.205","7.35","0.337","4.38","0.08","0.18","30.0853","4.73288","13.25","0","SATNPRO1964","25.986","0.36398","5"],
    [60217,"HCEP03730563","2025-09-15 15:45:00","11.0764","3.41497","27.17","1.168","7.35","0.36","4.907","0.05","0.33","30.0859","4.73298","12.84","0","SATNPRO1964","26.224","0.3673","5"],
    [60218,"HCEP03730563","2025-09-15 16:00:00","11.0764","3.41506","27.096","1.157","7.34","0.287","3.77","0.02","0.22","30.0868","4.73309","12.72","0","SATNPRO1964","26.052","0.36488","5"],
    [60219,"HCEP03730563","2025-09-15 16:15:00","11.0717","3.41447","27.026","1.132","7.34","0.323","3.931","0.05","0.45","30.0849","4.73289","12.44","0","SATNPRO1964","25.742","0.36056","5"],
    [60220,"HCEP03730563","2025-09-15 16:30:00","11.071","3.41435","26.992","1.079","7.34","0.306","4.199","0.04","0.3","30.0843","4.73282","11.86","0","SATNPRO1964","25.536","0.35766","5"],
    [60221,"HCEP03730563","2025-09-15 16:45:00","11.069","3.41415","26.933","1.065","7.34","0.313","3.956","0.02","0.56","30.084","4.7328","11.71","0","SATNPRO1964","25.568","0.35814","5"],
    [60222,"HCEP03730563","2025-09-15 17:00:00","11.068","3.41394","26.868","1.05","7.33","0.294","3.959","0.02","0.22","30.0828","4.73264","11.54","0","SATNPRO1964","25.134","0.35206","5"],
    [60223,"HCEP03730563","2025-09-15 17:15:00","11.0663","3.41376","26.816","1.031","7.33","0.317","4.071","0.02","0.29","30.0825","4.73262","11.33","0","SATNPRO1964","25.3","0.35436","5"],
    [60224,"HCEP03730563","2025-09-15 17:30:00","11.0627","3.41331","26.779","1.004","7.33","0.307","4.203","0.05","0.6","30.081","4.73246","11.03","0","SATNPRO1964","24.918","0.34902","5"],
    [60225,"HCEP03730563","2025-09-15 17:45:00","11.0596","3.4128","26.766","0.967","7.33","0.325","3.724","0.05","0.17","30.0785","4.73216","10.63","0","SATNPRO1964","24.504","0.34322","5"],
    [60226,"HCEP03730563","2025-09-15 18:00:00","11.0571","3.41257","26.744","0.937","7.32","0.328","3.784","0.05","0.29","30.0784","4.73218","10.29","0","SATNPRO1964","24.526","0.34354","5"],
    [60227,"HCEP03730563","2025-09-15 18:15:00","11.0559","3.4123","26.742","0.916","7.32","0.324","3.611","0.04","0.19","30.0767","4.73196","10.06","0","SATNPRO1964","24.51","0.34328","5"],
    [60228,"HCEP03730563","2025-09-15 18:30:00","11.0547","3.41214","26.74","0.905","7.32","0.336","3.418","0.08","0.16","30.0761","4.73189","9.94","0","SATNPRO1964","24.546","0.3438","5"],
    [60229,"HCEP03730563","2025-09-15 18:45:00","11.0526","3.41178","26.744","0.894","7.32","0.324","3.222","0.03","0.05","30.0743","4.73167","9.82","0","SATNPRO1964","24.419999999999998","0.34202","5"],
    [60230,"HCEP03730563","2025-09-15 19:00:00","11.051","3.41153","26.751","0.884","7.32","0.317","3.471","0.04","0.26","30.0731","4.73152","9.71","0","SATNPRO1964","23.998","0.33616","5"],
    [60231,"HCEP03730563","2025-09-15 19:15:00","11.0497","3.41133","26.769","0.873","7.32","0.305","3.128","0.01","0.12","30.0722","4.73142","9.58","0","SATNPRO1964","23.984","0.33594","5"],
    [60232,"HCEP03730563","2025-09-15 19:30:00","11.0483","3.41116","26.78","0.862","7.31","0.293","3.266","0.03","0.22","30.0718","4.73138","9.47","0","SATNPRO1964","24","0.33616","5"],
    [60233,"HCEP03730563","2025-09-15 19:45:00","11.0466","3.41088","26.799","0.851","7.31","0.314","3.138","0.03","0.13","30.0704","4.73121","9.34","0","SATNPRO1964","24.28","0.3401","5"],
    [60234,"HCEP03730563","2025-09-15 20:00:00","11.0451","3.41065","26.831","0.845","7.31","0.292","3.063","0.03","0.14","30.0694","4.73108","9.29","0","SATNPRO1964","24.23","0.3394","5"],
    [60235,"HCEP03730563","2025-09-15 20:15:00","11.0422","3.41027","26.86","0.828","7.31","0.327","3.127","0.06","0.05","30.0681","4.73095","9.09","0","SATNPRO1964","23.774","0.333","5"],
    [60236,"HCEP03730563","2025-09-15 20:30:00","11.0419","3.41003","26.873","0.822","7.31","0.295","2.849","0.05","0.1","30.066","4.73065","9.03","0","SATNPRO1964","24.434","0.34224","5"],
    [60237,"HCEP03730563","2025-09-15 20:45:00","11.0426","3.41016","26.913","0.848","7.31","0.298","2.804","0.02","0.09","30.0666","4.73074","9.32","0","SATNPRO1964","24.606","0.34466","5"],
    [60238,"HCEP03730563","2025-09-15 21:00:00","11.0435","3.41031","26.952","0.855","7.31","0.301","3.09","0.11","0.76","30.0674","4.73083","9.39","0","SATNPRO1964","24.396","0.34172","5"],
    [60239,"HCEP03730563","2025-09-15 21:15:00","11.0455","3.4107","26.986","0.854","7.31","0.309","3.229","0.03","0.16","30.0695","4.73111","9.38","0","SATNPRO1964","24.542","0.34376","5"],
    [60240,"HCEP03730563","2025-09-15 21:30:00","11.0481","3.41107","27.015","0.856","7.31","0.271","2.921","0.02","0.14","30.071","4.73128","9.4","0","SATNPRO1964","24.6","0.34458","5"],
    [60241,"HCEP03730563","2025-09-15 21:45:00","11.0498","3.41153","27.041","0.845","7.31","0.32","3.645","0.03","0.15","30.0741","4.73169","9.28","0","SATNPRO1964","23.912","0.3349","5"],
    [60242,"HCEP03730563","2025-09-15 22:00:00","11.0518","3.41187","27.061","0.817","7.31","0.297","3.819","0.03","0.13","30.0758","4.7319","8.98","0","SATNPRO1964","23.84","0.33392","5"],
    [60243,"HCEP03730563","2025-09-15 22:15:00","11.0542","3.4122","27.046","0.812","7.31","0.311","3.827","0.02","0.19","30.077","4.73204","8.92","0","SATNPRO1964","23.96","0.33556","5"],
    [60244,"HCEP03730563","2025-09-15 22:30:00","11.0577","3.41268","27.052","0.827","7.31","0.317","3.915","0.06","0.24","30.0789","4.73225","9.09","0","SATNPRO1964","24.11","0.33772","5"],
    [60245,"HCEP03730563","2025-09-15 22:45:00","11.0608","3.41308","27.049","0.858","7.31","0.326","3.706","0.02","0.15","30.0803","4.73241","9.43","0","SATNPRO1964","24.464000000000002","0.34268","5"],
    [60246,"HCEP03730563","2025-09-15 23:00:00","11.063","3.41335","27.036","0.891","7.32","0.297","3.817","0.03","0.2","30.081","4.73248","9.79","0","SATNPRO1964","24.82","0.34766","5"],
    [60247,"HCEP03730563","2025-09-15 23:15:00","11.0655","3.41362","27.002","0.924","7.32","0.377","3.7","0.2","0.22","30.0817","4.73253","10.16","0","SATNPRO1964","25.2","0.353","5"],
    [60248,"HCEP03730563","2025-09-15 23:30:00","11.0679","3.41383","26.963","0.961","7.32","0.3","3.871","0.02","0.22","30.0818","4.73251","10.57","0","SATNPRO1964","25.446","0.35644","5"],
    [60249,"HCEP03730563","2025-09-15 23:45:00","11.0696","3.41395","26.916","0.999","7.32","0.331","4.1","0.02","0.3","30.0816","4.73245","10.97","0","SATNPRO1964","25.546","0.35784","5"],
    [60250,"HCEP03730563","2025-09-16 00:00:00","11.0705","3.41407","26.864","1.023","7.33","0.317","4.118","0.06","0.29","30.082","4.73249","11.25","0","SATNPRO1964","25.704","0.36008","5"],
    [60251,"HCEP03730563","2025-09-16 00:15:00","11.0728","3.41429","26.803","1.047","7.33","0.336","3.929","0.02","0.24","30.0822","4.73249","11.51","0","SATNPRO1964","25.762","0.36086","5"],
    [60252,"HCEP03730563","2025-09-16 00:30:00","11.075","3.41443","26.737","1.083","7.33","0.315","3.889","0.05","0.25","30.082","4.73241","11.91","0","SATNPRO1964","25.922","0.36306","5"],
    [60253,"HCEP03730563","2025-09-16 00:45:00","11.0757","3.4145","26.652","1.104","7.33","0.34","4.113","0.05","0.22","30.082","4.7324","12.14","0","SATNPRO1964","25.996","0.3641","5"],
    [60254,"HCEP03730563","2025-09-16 01:00:00","11.0769","3.4146","26.552","1.119","7.34","0.328","3.797","0.05","0.17","30.0821","4.73239","12.3","0","SATNPRO1964","25.983999999999998","0.36392","5"],
    [60255,"HCEP03730563","2025-09-16 01:15:00","11.0776","3.41464","26.449","1.132","7.34","0.327","3.774","0.02","0.13","30.0819","4.73235","12.44","0","SATNPRO1964","25.874","0.3624","5"],
    [60256,"HCEP03730563","2025-09-16 01:30:00","11.0783","3.41473","26.315","1.14","7.34","0.329","3.645","0.04","0.13","30.0823","4.73238","12.53","0","SATNPRO1964","25.77","0.361","5"],
    [60257,"HCEP03730563","2025-09-16 01:45:00","11.0796","3.4148","26.19","1.155","7.34","0.344","3.959","0.05","0.53","30.082","4.73232","12.7","0","SATNPRO1964","26.080000000000002","0.36528","5"],
    [60258,"HCEP03730563","2025-09-16 02:00:00","11.0802","3.41486","26.058","1.167","7.34","0.308","3.739","0.03","0.15","30.0821","4.73231","12.83","0","SATNPRO1964","26.062","0.36506","5"],
    [60259,"HCEP03730563","2025-09-16 02:15:00","11.0812","3.41494","25.899","1.177","7.34","0.333","3.914","0.04","0.31","30.0822","4.73231","12.94","0","SATNPRO1964","26.36","0.36922","5"],
    [60260,"HCEP03730563","2025-09-16 02:30:00","11.0813","3.41498","25.738","1.184","7.34","0.309","3.99","0.02","0.41","30.0825","4.73234","13.02","0","SATNPRO1964","26.244","0.3676","5"],
    [60261,"HCEP03730563","2025-09-16 02:45:00","11.0824","3.41508","25.581","1.188","7.34","0.332","3.971","0.02","0.15","30.0827","4.73234","13.06","0","SATNPRO1964","26.168","0.3665","5"],
    [60262,"HCEP03730563","2025-09-16 03:00:00","11.083","3.41514","25.419","1.197","7.34","0.319","3.946","0.03","0.39","30.0828","4.73234","13.16","0","SATNPRO1964","26.356","0.36916","5"],
    [60263,"HCEP03730563","2025-09-16 03:15:00","11.084","3.41522","25.252","1.207","7.35","0.332","3.79","0.02","0.08","30.0829","4.73232","13.27","0","SATNPRO1964","26.5","0.37118","5"],
    [60264,"HCEP03730563","2025-09-16 03:30:00","11.0839","3.41525","25.113","1.217","7.35","0.317","3.865","0.06","0.25","30.0833","4.73238","13.38","0","SATNPRO1964","26.456","0.3706","5"],
    [60265,"HCEP03730563","2025-09-16 03:45:00","11.0838","3.41525","24.958","1.217","7.35","0.349","3.919","0.02","0.11","30.0834","4.73238","13.38","0","SATNPRO1964","26.272","0.368","5"],
    [60266,"HCEP03730563","2025-09-16 04:00:00","11.0842","3.41528","24.813","1.211","7.35","0.324","4.097","0.05","0.16","30.0835","4.73238","13.32","0","SATNPRO1964","26.346","0.369","5"],
    [60267,"HCEP03730563","2025-09-16 04:15:00","11.0847","3.41532","24.668","1.208","7.35","0.34","3.946","0.05","0.15","30.0835","4.73237","13.28","0","SATNPRO1964","26.488","0.371","5"],
    [60268,"HCEP03730563","2025-09-16 04:30:00","11.0845","3.41538","24.546","1.209","7.35","0.32","3.973","0.02","0.17","30.0842","4.73247","13.29","0","SATNPRO1964","26.376","0.36944","5"],
    [60269,"HCEP03730563","2025-09-16 04:45:00","11.0851","3.4154","24.414","1.208","7.35","0.351","4.195","0.03","0.17","30.084","4.73241","13.28","0","SATNPRO1964","26.342","0.36892","5"],
    [60270,"HCEP03730563","2025-09-16 05:00:00","11.0859","3.41552","24.338","1.21","7.35","0.342","4.215","0.07","0.26","30.0846","4.73248","13.31","0","SATNPRO1964","26.5","0.37114","5"],
    [60271,"HCEP03730563","2025-09-16 05:15:00","11.0868","3.41564","24.258","1.216","7.35","0.341","4.326","0.02","0.47","30.085","4.73253","13.37","0","SATNPRO1964","26.56","0.372","5"],
    [60272,"HCEP03730563","2025-09-16 05:30:00","11.0869","3.41569","24.212","1.223","7.35","0.324","4.27","0.03","0.44","30.0856","4.7326","13.45","0","SATNPRO1964","26.548","0.37184","5"],
    [60273,"HCEP03730563","2025-09-16 05:45:00","11.0866","3.41568","24.189","1.23","7.35","0.35","4.204","0.03","0.19","30.0857","4.73262","13.53","0","SATNPRO1964","26.398","0.3698","5"],
    [60274,"HCEP03730563","2025-09-16 06:00:00","11.0868","3.41576","24.178","1.227","7.35","0.312","4.246","0.02","0.17","30.0863","4.7327","13.49","0","SATNPRO1964","26.608","0.3727","5"],
    [60275,"HCEP03730563","2025-09-16 06:15:00","11.0766","3.41355","24.153","1.243","7.35","0.323","2.993","0.04","0.55","30.0731","4.73098","13.67","0","SATNPRO1964","27.164","0.3805","5"],
    [60276,"HCEP03730563","2025-09-16 06:30:00","11.0743","3.4126","24.195","1.276","7.35","0.328","3.138","0.04","0.16","30.0656","4.72996","14.03","0","SATNPRO1964","27.344","0.38304","5"],
    [60277,"HCEP03730563","2025-09-16 06:45:00","11.0856","3.41544","24.257","1.283","7.35","0.338","4.509","0.03","0.35","30.0841","4.73242","14.11","0","SATNPRO1964","26.644","0.3732","5"],
    [60278,"HCEP03730563","2025-09-16 07:00:00","11.0865","3.41591","24.309","1.258","7.35","0.354","4.358","0.09","0.17","30.088","4.73295","13.83","0","SATNPRO1964","26.726","0.37434","5"],
    [60279,"HCEP03730563","2025-09-16 07:15:00","11.086","3.41595","24.404","1.244","7.35","0.356","4.736","0.04","0.26","30.0886","4.73306","13.67","0","SATNPRO1964","26.492","0.37104","5"],
    [60280,"HCEP03730563","2025-09-16 07:30:00","11.084","3.41594","24.532","1.224","7.35","0.321","4.448","0.03","0.91","30.0902","4.73332","13.46","0","SATNPRO1964","26.476","0.37086","5"],
    [60281,"HCEP03730563","2025-09-16 07:45:00","11.0842","3.41612","24.657","1.21","7.35","0.342","4.347","0.02","0.19","30.0917","4.73353","13.3","0","SATNPRO1964","26.668","0.3735","5"],
    [60282,"HCEP03730563","2025-09-16 08:00:00","11.0883","3.41663","24.783","1.222","7.35","0.314","4.073","0.05","0.14","30.0933","4.73371","13.44","0","SATNPRO1964","26.558","0.37198","5"],
    [60283,"HCEP03730563","2025-09-16 08:15:00","11.0929","3.41718","24.884","1.274","7.35","0.411","3.728","0.45","0.39","30.0948","4.73386","14.01","0","SATNPRO1964","27.25","0.38168","5"],
    [60284,"HCEP03730563","2025-09-16 08:30:00","11.0923","3.41718","25.007","1.314","7.36","0.313","3.875","0.02","0.19","30.0953","4.73395","14.45","0","SATNPRO1964","26.96","0.37766","5"],
    [60285,"HCEP03730563","2025-09-16 08:45:00","11.0953","3.41757","25.151","1.322","7.36","0.331","4.027","0.02","0.21","30.0966","4.73409","14.53","0","SATNPRO1964","27.284","0.38218","5"],
    [60286,"HCEP03730563","2025-09-16 09:00:00","11.0922","3.41729","25.317","1.33","7.36","0.318","4.161","0.02","0.21","30.0963","4.73411","14.63","0","SATNPRO1964","26.742","0.37456","5"],
    [60287,"HCEP03730563","2025-09-16 09:15:00","11.0923","3.41734","25.489","1.309","7.36","0.36","4.01","0.07","0.21","30.0967","4.73417","14.4","0","SATNPRO1964","27.21","0.38112","5"],
    [60288,"HCEP03730563","2025-09-16 09:30:00","11.0925","3.41752","25.693","1.293","7.35","0.336","4.355","0.03","0.78","30.0982","4.7344","14.22","0","SATNPRO1964","26.87","0.37636","5"],
    [60289,"HCEP03730563","2025-09-16 09:45:00","11.0952","3.41789","25.909","1.304","7.36","0.372","3.934","0.08","0.35","30.0995","4.73455","14.34","0","SATNPRO1964","26.884","0.37652","5"],
    [60290,"HCEP03730563","2025-09-16 10:00:00","11.0948","3.41788","26.161","1.305","7.36","0.325","4.098","0.03","0.55","30.0997","4.73459","14.35","0","SATNPRO1964","26.814","0.37558","5"],
    [60291,"HCEP03730563","2025-09-16 10:15:00","11.0979","3.41845","26.335","1.306","7.36","0.332","3.775","0.03","0.12","30.1026","4.73496","14.36","0","SATNPRO1964","27.022","0.3785","5"],
    [60292,"HCEP03730563","2025-09-16 10:30:00","11.1025","3.41911","26.527","1.323","7.36","1.086","26.822","1.23","23.2","30.1052","4.73528","14.55","0","SATNPRO1964","27.150000000000002","0.38026","5"],
    [60293,"HCEP03730563","2025-09-16 10:45:00","11.1423","3.42503","26.705","1.447","7.37","0.367","3.833","0.06","0.18","30.1304","4.73826","15.93","0","SATNPRO1964","28.596","0.40054","5"],
    [60294,"HCEP03730563","2025-09-16 11:00:00","11.1728","3.42993","26.852","1.783","7.39","0.337","4.22","0.03","0.24","30.1531","4.74103","19.65","0","SATNPRO1964","29.3","0.41038","5"],
    [60295,"HCEP03730563","2025-09-16 11:15:00","11.178","3.43078","26.969","1.934","7.41","0.354","3.756","0.03","0.34","30.1571","4.74153","21.32","0","SATNPRO1964","29.564","0.41412","5"],
    [60296,"HCEP03730563","2025-09-16 11:30:00","11.1779","3.43081","27.101","1.959","7.41","0.336","4.266","0.03","0.33","30.1575","4.74158","21.6","0","SATNPRO1964","29.42","0.41208","5"],
    [60297,"HCEP03730563","2025-09-16 11:45:00","11.1776","3.43085","27.197","1.954","7.41","0.373","4.134","0.03","0.21","30.1581","4.74168","21.53","0","SATNPRO1964","29.348","0.41104","5"],
    [60298,"HCEP03730563","2025-09-16 12:00:00","11.1786","3.43103","27.313","1.95","7.42","0.342","3.663","0.03","0.2","30.1589","4.74179","21.49","0","SATNPRO1964","29.428","0.41214","5"],
    [60299,"HCEP03730563","2025-09-16 12:15:00","11.1818","3.43152","27.397","1.967","7.42","0.367","3.433","0.04","0.19","30.1611","4.74205","21.68","0","SATNPRO1964","29.766000000000002","0.41694","5"],
    [60300,"HCEP03730563","2025-09-16 12:30:00","11.181","3.43139","27.471","1.981","7.42","0.355","3.668","0.03","0.2","30.1604","4.74197","21.83","0","SATNPRO1964","29.604","0.41464","5"],
    [60301,"HCEP03730563","2025-09-16 12:45:00","11.1842","3.43185","27.539","1.983","7.42","0.352","3.268","0.03","0.2","30.1623","4.7422","21.85","0","SATNPRO1964","29.646","0.41524","5"],
    [60302,"HCEP03730563","2025-09-16 13:00:00","11.182","3.4315","27.575","1.987","7.42","0.338","4.139","0.03","1.22","30.1606","4.74199","21.9","0","SATNPRO1964","29.514","0.4134","5"],
    [60303,"HCEP03730563","2025-09-16 13:15:00","11.1835","3.43178","27.598","1.984","7.42","0.361","3.505","0.03","0.22","30.1621","4.74218","21.86","0","SATNPRO1964","29.824","0.4177","5"],
    [60304,"HCEP03730563","2025-09-16 13:30:00","11.1845","3.43191","27.629","1.994","7.43","0.356","3.607","0.04","0.25","30.1626","4.74225","21.98","0","SATNPRO1964","29.712","0.41616","5"],
    [60305,"HCEP03730563","2025-09-16 13:45:00","11.1864","3.43206","27.633","2.009","7.43","0.337","3.025","0.02","0.1","30.1625","4.7422","22.14","0","SATNPRO1964","29.676","0.41562","5"],
    [60306,"HCEP03730563","2025-09-16 14:00:00","11.187","3.43221","27.637","2.024","7.43","0.329","3.094","0.02","0.15","30.1634","4.74231","22.32","0","SATNPRO1964","29.69","0.41584","5"],
    [60307,"HCEP03730563","2025-09-16 14:15:00","11.1875","3.4323","27.636","2.025","7.43","0.36","3.277","0.03","0.28","30.1639","4.74238","22.32","0","SATNPRO1964","29.692","0.41592","5"],
    [60308,"HCEP03730563","2025-09-16 14:30:00","11.188","3.43234","27.622","2.021","7.43","0.313","3.171","0.02","0.18","30.1639","4.74238","22.28","0","SATNPRO1964","29.794","0.41734","5"],
    [60309,"HCEP03730563","2025-09-16 14:45:00","11.186","3.43214","27.595","2.015","7.43","0.384","3.455","0.17","0.13","30.1636","4.74236","22.22","0","SATNPRO1964","29.77","0.417","5"],
    [60310,"HCEP03730563","2025-09-16 15:00:00","11.186","3.43212","27.559","2.008","7.43","0.363","3.659","0.03","0.39","30.1634","4.74233","22.13","0","SATNPRO1964","29.814","0.41762","5"],
    [60311,"HCEP03730563","2025-09-16 15:15:00","11.1875","3.43224","27.541","2.01","7.43","0.337","3.186","0.02","0.27","30.1634","4.7423","22.16","0","SATNPRO1964","29.874","0.41842","5"],
    [60312,"HCEP03730563","2025-09-16 15:30:00","11.19","3.43218","27.498","2.038","7.43","0.32","3.008","0.02","0.15","30.1607","4.74189","22.46","0","SATNPRO1964","30.382","0.42558","5"],
    [60313,"HCEP03730563","2025-09-16 15:45:00","11.1904","3.43173","27.438","2.076","7.43","0.336","2.595","0.07","0.15","30.156","4.74121","22.89","0","SATNPRO1964","30.58","0.42836","5"],
    [60314,"HCEP03730563","2025-09-16 16:00:00","11.1896","3.43045","27.37","2.136","7.44","0.305","2.298","0.01","0.13","30.1443","4.73956","23.55","0","SATNPRO1964","30.572","0.42822","5"],
    [60315,"HCEP03730563","2025-09-16 16:15:00","11.1892","3.43183","27.307","2.153","7.44","0.354","2.809","0.06","0.19","30.1581","4.74152","23.73","0","SATNPRO1964","30.07","0.42114","5"],
    [60316,"HCEP03730563","2025-09-16 16:30:00","11.1882","3.43151","27.237","2.106","7.44","0.308","2.446","0.02","0.11","30.1558","4.7412","23.22","0","SATNPRO1964","30.196","0.42294","5"],
    [60317,"HCEP03730563","2025-09-16 16:45:00","11.1866","3.43171","27.159","2.087","7.44","0.337","2.859","0.02","0.26","30.1591","4.74169","23.01","0","SATNPRO1964","29.94","0.41936","5"],
    [60318,"HCEP03730563","2025-09-16 17:00:00","11.1847","3.43165","27.091","2.052","7.43","0.322","3.025","0.02","0.22","30.1601","4.74185","22.62","0","SATNPRO1964","29.928","0.41918","5"],
    [60319,"HCEP03730563","2025-09-16 17:15:00","11.1847","3.4318","27.001","2.022","7.43","0.344","3.283","0.03","0.2","30.1615","4.74205","22.29","0","SATNPRO1964","29.758","0.4168","5"],
    [60320,"HCEP03730563","2025-09-16 17:30:00","11.1828","3.43159","26.933","1.993","7.43","0.351","4.021","0.04","0.42","30.1611","4.74202","21.96","0","SATNPRO1964","29.73","0.4164","5"],
    [60321,"HCEP03730563","2025-09-16 17:45:00","11.1807","3.43129","26.84","1.962","7.43","0.357","3.949","0.02","0.14","30.1599","4.74187","21.62","0","SATNPRO1964","29.624","0.41492","5"],
    [60322,"HCEP03730563","2025-09-16 18:00:00","11.1806","3.43151","26.76","1.944","7.42","0.352","4.891","0.02","0.2","30.1622","4.74219","21.43","0","SATNPRO1964","29.44","0.4123","5"],
    [60323,"HCEP03730563","2025-09-16 18:15:00","11.1793","3.43144","26.682","1.901","7.42","0.392","5.004","0.03","0.17","30.1626","4.74227","20.95","0","SATNPRO1964","29.05","0.40688","5"],
    [60324,"HCEP03730563","2025-09-16 18:30:00","11.1788","3.43139","26.63","1.868","7.42","0.382","5.466","0.03","0.28","30.1625","4.74226","20.59","0","SATNPRO1964","29.131999999999998","0.40806","5"],
    [60325,"HCEP03730563","2025-09-16 18:45:00","11.1792","3.43139","26.59","1.856","7.42","0.412","7.19","0.03","1.08","30.1623","4.74222","20.46","0","SATNPRO1964","29.16","0.40846","5"],
    [60326,"HCEP03730563","2025-09-16 19:00:00","11.1787","3.43137","26.55","1.846","7.42","0.373","5.48","0.05","0.21","30.1625","4.74226","20.35","0","SATNPRO1964","28.914","0.40498","5"],
    [60327,"HCEP03730563","2025-09-16 19:15:00","11.1759","3.43083","26.528","1.838","7.41","0.369","5.105","0.02","0.26","30.1595","4.74187","20.26","0","SATNPRO1964","28.928","0.40516","5"],
    [60328,"HCEP03730563","2025-09-16 19:30:00","11.171","3.42971","26.527","1.826","7.41","0.343","4.602","0.01","0.23","30.1526","4.74097","20.12","0","SATNPRO1964","29.104","0.40764","5"],
    [60329,"HCEP03730563","2025-09-16 19:45:00","11.176","3.4309","26.527","1.808","7.41","0.381","4.8","0.03","0.23","30.1601","4.74196","19.93","0","SATNPRO1964","28.736","0.40252","5"],
    [60330,"HCEP03730563","2025-09-16 20:00:00","11.1723","3.43005","26.528","1.798","7.41","0.351","4.431","0.02","0.11","30.1548","4.74126","19.82","0","SATNPRO1964","29.116","0.40784","5"],
    [60331,"HCEP03730563","2025-09-16 20:15:00","11.164","3.42758","26.548","1.806","7.41","0.353","3.825","0.03","0.13","30.1376","4.73894","19.9","0","SATNPRO1964","29.2","0.40902","5"],
    [60332,"HCEP03730563","2025-09-16 20:30:00","11.173400000000001","3.43023","26.578","1.835","7.41","0.318","3.768","0.01","0.12","30.1557","4.74137","20.22","0","SATNPRO1964","29.136","0.40808","5"],
    [60333,"HCEP03730563","2025-09-16 20:45:00","11.1784","3.43123","26.615","1.852","7.41","0.368","3.514","0.07","0.07","30.1613","4.74209","20.42","0","SATNPRO1964","29.224","0.40936","5"],
    [60334,"HCEP03730563","2025-09-16 21:00:00","11.1817","3.43198","26.644","1.861","7.41","0.31","3.795","0.02","0.13","30.1659","4.7427","20.52","0","SATNPRO1964","28.758","0.40282","5"],
    [60335,"HCEP03730563","2025-09-16 21:15:00","11.1822","3.43223","26.677","1.85","7.41","0.33","3.929","0.02","0.15","30.168","4.74299","20.39","0","SATNPRO1964","28.962","0.40564","5"],
    [60336,"HCEP03730563","2025-09-16 21:30:00","11.182","3.4322","26.72","1.834","7.41","0.307","4","0.01","0.18","30.1678","4.74296","20.22","0","SATNPRO1964","28.89","0.40466","5"],
    [60337,"HCEP03730563","2025-09-16 21:45:00","11.1819","3.43238","26.755","1.814","7.41","0.378","3.861","0.18","0.15","30.1696","4.74322","20","0","SATNPRO1964","28.664","0.40148","5"],
    [60338,"HCEP03730563","2025-09-16 22:00:00","11.184","3.4328","26.796","1.809","7.41","0.322","3.881","0.08","0.18","30.172","4.74353","19.94","0","SATNPRO1964","28.747999999999998","0.40266","5"],
    [60339,"HCEP03730563","2025-09-16 22:15:00","11.1873","3.43323","26.835","1.813","7.41","0.332","4.114","0.02","0.3","30.1734","4.74369","19.98","0","SATNPRO1964","28.694","0.4019","5"],
    [60340,"HCEP03730563","2025-09-16 22:30:00","11.1897","3.43335","26.875","1.852","7.41","0.302","3.688","0.03","0.18","30.1727","4.74355","20.42","0","SATNPRO1964","29.418","0.41204","5"],
    [60341,"HCEP03730563","2025-09-16 22:45:00","11.1933","3.43346","26.91","1.917","7.42","0.307","3.143","0.01","0.14","30.1707","4.74322","21.13","0","SATNPRO1964","29.678","0.41566","5"],
    [60342,"HCEP03730563","2025-09-16 23:00:00","11.1958","3.43296","26.947","1.973","7.43","0.284","2.702","0.01","0.12","30.1638","4.7422","21.76","0","SATNPRO1964","30.126","0.42194","5"],
    [60343,"HCEP03730563","2025-09-16 23:15:00","11.1944","3.43316","26.977","2.031","7.43","0.314","3.338","0.02","0.09","30.1669","4.74266","22.4","0","SATNPRO1964","29.98","0.41994","5"],
    [60344,"HCEP03730563","2025-09-16 23:30:00","11.1953","3.4329","27.015","2.023","7.43","0.34","3.092","0.1","0.08","30.1636","4.74218","22.3","0","SATNPRO1964","29.678","0.4157","5"],
    [60345,"HCEP03730563","2025-09-16 23:45:00","11.1909","3.43295","27.014","2.026","7.43","0.336","3.357","0.02","0.1","30.1677","4.74284","22.34","0","SATNPRO1964","29.512","0.41334","5"],
    [60346,"HCEP03730563","2025-09-17 00:00:00","11.1871","3.43301","27.018","1.945","7.42","0.335","4.239","0.03","0.17","30.1714","4.74341","21.44","0","SATNPRO1964","28.442","0.39842","5"],
    [60347,"HCEP03730563","2025-09-17 00:15:00","11.1846","3.43285","27.03","1.887","7.42","0.339","4.113","0.02","0.35","30.1719","4.74352","20.81","0","SATNPRO1964","29.294","0.41028","5"],
    [60348,"HCEP03730563","2025-09-17 00:30:00","11.183","3.43259","27.034","1.846","7.41","0.338","4.104","0.03","0.22","30.1706","4.74337","20.35","0","SATNPRO1964","28.951999999999998","0.40556","5"],
    [60349,"HCEP03730563","2025-09-17 00:45:00","11.1812","3.43232","27.023","1.816","7.41","0.362","4.408","0.04","0.25","30.1694","4.74323","20.02","0","SATNPRO1964","28.832","0.40382","5"],
    [60350,"HCEP03730563","2025-09-17 01:00:00","11.1863","3.43195","27.005","1.838","7.42","0.308","3.743","0.02","0.36","30.1618","4.74206","20.26","0","SATNPRO1964","29.292","0.4103","5"],
    [60351,"HCEP03730563","2025-09-17 01:15:00","11.1798","3.43151","26.976","1.892","7.42","0.36","3.967","0.06","0.14","30.1628","4.7423","20.85","0","SATNPRO1964","28.56","0.40002","5"],
    [60352,"HCEP03730563","2025-09-17 01:30:00","11.1799","3.43132","26.923","1.839","7.41","0.323","4.284","0.03","0.21","30.1608","4.74202","20.27","0","SATNPRO1964","28.708","0.4021","5"],
    [60353,"HCEP03730563","2025-09-17 01:45:00","11.1828","3.4312","26.856","1.854","7.41","0.33","3.782","0.02","0.2","30.1574","4.74148","20.43","0","SATNPRO1964","29.022","0.40652","5"],
    [60354,"HCEP03730563","2025-09-17 02:00:00","11.1844","3.43106","26.791","1.897","7.42","0.32","3.774","0.04","0.36","30.1547","4.74108","20.91","0","SATNPRO1964","29.456","0.41258","5"],
    [60355,"HCEP03730563","2025-09-17 02:15:00","11.1823","3.43086","26.7","1.921","7.42","0.348","4.207","0.03","0.24","30.1545","4.74108","21.18","0","SATNPRO1964","29.018","0.40646","5"],
    [60356,"HCEP03730563","2025-09-17 02:30:00","11.1805","3.43066","26.575","1.875","7.41","0.336","4.662","0.03","0.25","30.1541","4.74104","20.67","0","SATNPRO1964","28.594","0.40048","5"],
    [60357,"HCEP03730563","2025-09-17 02:45:00","11.1792","3.43051","26.452","1.836","7.41","0.363","4.636","0.02","0.24","30.1537","4.74099","20.23","0","SATNPRO1964","28.68","0.40168","5"],
    [60358,"HCEP03730563","2025-09-17 03:00:00","11.1783","3.43013","26.315","1.823","7.41","0.339","4.792","0.02","0.39","30.1508","4.74059","20.09","0","SATNPRO1964","28.788","0.40322","5"],
    [60359,"HCEP03730563","2025-09-17 03:15:00","11.1814","3.43024","26.177","1.841","7.41","0.338","3.548","0.02","0.12","30.1494","4.74033","20.29","0","SATNPRO1964","28.938","0.40534","5"],
    [60360,"HCEP03730563","2025-09-17 03:30:00","11.1833","3.43035","26.038","1.906","7.42","0.309","3.412","0.02","0.17","30.1489","4.74023","21.01","0","SATNPRO1964","29.378","0.41148","5"],
    [60361,"HCEP03730563","2025-09-17 03:45:00","11.1876","3.43056","25.857","1.976","7.42","0.334","3.31","0.02","0.37","30.1476","4.73996","21.78","0","SATNPRO1964","29.598","0.41456","5"],
    [60362,"HCEP03730563","2025-09-17 04:00:00","11.1847","3.43032","25.667","2.005","7.42","0.307","2.97","0.02","0.19","30.1476","4.74001","22.1","0","SATNPRO1964","29.696","0.41592","5"],
    [60363,"HCEP03730563","2025-09-17 04:15:00","11.1845","3.43015","25.48","1.979","7.42","0.329","2.985","0.04","0.14","30.1463","4.73981","21.81","0","SATNPRO1964","29.518","0.41344","5"],
    [60364,"HCEP03730563","2025-09-17 04:30:00","11.1806","3.42997","25.332","1.944","7.42","0.414","8.872","0.03","1.05","30.1478","4.74007","21.42","0","SATNPRO1964","29.946","0.41942","5"],
    [60365,"HCEP03730563","2025-09-17 04:45:00","11.1819","3.43001","25.187","1.903","7.42","0.359","4.71","0.03","0.4","30.1471","4.73995","20.98","0","SATNPRO1964","29.324","0.41076","5"],
    [60366,"HCEP03730563","2025-09-17 05:00:00","11.189","3.43047","25.026","1.956","7.42","0.305","4.758","0.02","0.37","30.1459","4.73966","21.56","0","SATNPRO1964","30.1","0.42164","5"],
    [60367,"HCEP03730563","2025-09-17 05:15:00","11.1791","3.42974","24.897","2.003","7.42","0.348","4.95","0.03","0.26","30.1469","4.73995","22.07","0","SATNPRO1964","28.962","0.40564","5"],
    [60368,"HCEP03730563","2025-09-17 05:30:00","11.185","3.43023","24.752","1.924","7.42","0.307","4.242","0.02","0.68","30.1469","4.73985","21.21","0","SATNPRO1964","29.582","0.41436","5"],
    [60369,"HCEP03730563","2025-09-17 05:45:00","11.1859","3.43036","24.589","1.976","7.42","0.31","2.743","0.03","0.17","30.1475","4.73992","21.78","0","SATNPRO1964","30.282","0.42414","5"],
    [60370,"HCEP03730563","2025-09-17 06:00:00","11.1932","3.43039","24.448","2.057","7.43","0.264","1.541","0.02","0.14","30.1419","4.739","22.68","0","SATNPRO1964","30.648","0.42928","5"],
    [60371,"HCEP03730563","2025-09-17 06:15:00","11.194","3.43054","24.344","2.148","7.44","0.315","1.939","0.03","0.2","30.1428","4.7391","23.68","0","SATNPRO1964","30.302","0.4244","5"],
    [60372,"HCEP03730563","2025-09-17 06:30:00","11.1967","3.43036","24.265","2.173","7.44","0.311","1.606","0.07","0.19","30.1388","4.73849","23.96","0","SATNPRO1964","30.695999999999998","0.42998","5"],
    [60373,"HCEP03730563","2025-09-17 06:45:00","11.1947","3.43039","24.232","2.195","7.44","0.314","1.607","0.02","0.09","30.1407","4.7388","24.2","0","SATNPRO1964","30.656","0.4294","5"],
    [60374,"HCEP03730563","2025-09-17 07:00:00","11.1936","3.43014","24.201","2.19","7.44","0.449","10.029","0.32","14.78","30.1392","4.7386","24.14","0","SATNPRO1964","30.58","0.42836","5"],
    [60375,"HCEP03730563","2025-09-17 07:15:00","11.1913","3.43022","24.203","2.18","7.44","0.348","1.803","0.13","0.11","30.1419","4.73901","24.03","0","SATNPRO1964","30.676","0.4297","5"],
    [60376,"HCEP03730563","2025-09-17 07:30:00","11.1912","3.43042","24.218","2.172","7.44","0.289","1.852","0.01","0.07","30.1439","4.7393","23.94","0","SATNPRO1964","30.528000000000002","0.42764","5"],
    [60377,"HCEP03730563","2025-09-17 07:45:00","11.1917","3.43074","24.281","2.155","7.44","0.35","2.31","0.04","0.44","30.1466","4.73968","23.75","0","SATNPRO1964","30.566","0.42814","5"],
    [60378,"HCEP03730563","2025-09-17 08:00:00","11.1925","3.43069","24.308","2.145","7.44","0.425","7.299","0.21","12.98","30.1455","4.7395","23.64","0","SATNPRO1964","30.778","0.43108","5"],
    [60379,"HCEP03730563","2025-09-17 08:15:00","11.1927","3.43048","24.389","2.156","7.44","1.817","8.802","1.45","9.16","30.1432","4.73919","23.77","0","SATNPRO1964","30.778000000000002","0.43106","5"],
    [60380,"HCEP03730563","2025-09-17 08:30:00","11.1933","3.43054","24.478","2.17","7.44","0.309","2.008","0.06","0.2","30.1433","4.7392","23.92","0","SATNPRO1964","30.834","0.43188","5"],
    [60381,"HCEP03730563","2025-09-17 08:45:00","11.1943","3.43042","24.595","2.184","7.44","0.321","1.805","0.05","0.17","30.1412","4.73889","24.08","0","SATNPRO1964","30.796","0.43134","5"],
    [60382,"HCEP03730563","2025-09-17 09:00:00","11.1945","3.4304","24.738","2.201","7.44","0.286","1.587","0.02","0.04","30.1408","4.73884","24.26","0","SATNPRO1964","30.866","0.43234","5"],
    [60383,"HCEP03730563","2025-09-17 09:15:00","11.1959","3.42991","24.881","2.208","7.45","0.469","1.687","0.77","0.16","30.1348","4.73798","24.34","0","SATNPRO1964","30.84","0.432","5"],
    [60384,"HCEP03730563","2025-09-17 09:30:00","11.1918","3.42972","25.016","2.213","7.45","0.286","1.551","0.03","0.05","30.1362","4.73825","24.39","0","SATNPRO1964","30.854","0.4322","5"],
    [60385,"HCEP03730563","2025-09-17 09:45:00","11.1912","3.42935","25.152","2.203","7.44","0.324","1.577","0.1","0.08","30.1332","4.73783","24.28","0","SATNPRO1964","30.936","0.4333","5"],
    [60386,"HCEP03730563","2025-09-17 10:00:00","11.1918","3.4294","25.308","2.198","7.44","0.282","1.512","0.04","0.05","30.133","4.73781","24.23","0","SATNPRO1964","30.87","0.4324","5"],
    [60387,"HCEP03730563","2025-09-17 10:15:00","11.1964","3.43015","25.481","2.209","7.45","0.297","1.496","0.03","0.04","30.1365","4.73825","24.35","0","SATNPRO1964","31.03","0.43462","5"],
    [60388,"HCEP03730563","2025-09-17 10:30:00","11.1904","3.43001","25.663","2.206","7.44","0.355","3.149","0.03","0.2","30.1399","4.73883","24.31","0","SATNPRO1964","29.968","0.41976","5"],
    [60389,"HCEP03730563","2025-09-17 10:45:00","11.1839","3.42987","25.829","2.101","7.43","0.378","3.685","0.04","0.24","30.1439","4.73949","23.16","0","SATNPRO1964","29.184","0.4088","5"],
    [60390,"HCEP03730563","2025-09-17 11:00:00","11.1813","3.42971","26.034","1.947","7.43","0.32","3.419","0.02","0.13","30.1444","4.73962","21.45","0","SATNPRO1964","28.86","0.4042","5"],
    [60391,"HCEP03730563","2025-09-17 11:15:00","11.1778","3.42937","26.268","1.862","7.42","0.36","4.653","0.03","0.82","30.1438","4.73961","20.52","0","SATNPRO1964","28.662","0.40144","5"],
    [60392,"HCEP03730563","2025-09-17 11:30:00","11.1712","3.42865","26.462","1.781","7.41","0.35","4.711","0.02","0.28","30.1421","4.73948","19.62","0","SATNPRO1964","28.066","0.39312","5"],
    [60393,"HCEP03730563","2025-09-17 11:45:00","11.162","3.4276","26.666","1.691","7.4","0.394","4.462","0.08","0.24","30.1393","4.73922","18.62","0","SATNPRO1964","27.54","0.38574","5"],
    [60394,"HCEP03730563","2025-09-17 12:00:00","11.1508","3.42608","26.845","1.575","7.39","0.358","5.05","0.02","0.39","30.1336","4.73859","17.34","0","SATNPRO1964","27.064","0.37906","5"],
    [60395,"HCEP03730563","2025-09-17 12:15:00","11.1351","3.42363","26.989","1.441","7.38","0.396","4.745","0.02","0.34","30.1225","4.73727","15.87","0","SATNPRO1964","26.36","0.36924","5"],
    [60396,"HCEP03730563","2025-09-17 12:30:00","11.1276","3.42264","27.18","1.29","7.37","0.341","4.661","0.02","0.14","30.1189","4.73688","14.2","0","SATNPRO1964","25.592","0.35848","5"],
    [60397,"HCEP03730563","2025-09-17 12:45:00","11.1233","3.42204","27.305","1.186","7.36","0.396","4.716","0.17","0.39","30.1165","4.73661","13.05","0","SATNPRO1964","25.594","0.3585","5"],
    [60398,"HCEP03730563","2025-09-17 13:00:00","11.1235","3.42208","27.442","1.16","7.36","0.331","4.39","0.02","0.18","30.1167","4.73664","12.76","0","SATNPRO1964","25.666","0.35948","5"],
    [60399,"HCEP03730563","2025-09-17 13:15:00","11.1238","3.42221","27.478","1.162","7.35","0.366","4.699","0.02","0.28","30.1177","4.73678","12.79","0","SATNPRO1964","25.786","0.3612","5"],
    [60400,"HCEP03730563","2025-09-17 13:30:00","11.1272","3.42269","27.592","1.18","7.35","0.367","4.311","0.06","0.25","30.1196","4.737","12.99","0","SATNPRO1964","25.922","0.36308","5"],
    [60401,"HCEP03730563","2025-09-17 13:45:00","11.1346","3.42387","27.617","1.225","7.36","0.381","4.608","0.03","0.47","30.125","4.73766","13.48","0","SATNPRO1964","26.404","0.3698","5"],
    [60402,"HCEP03730563","2025-09-17 14:00:00","11.1421","3.42492","27.666","1.307","7.36","0.341","4.432","0.03","0.39","30.1291","4.73813","14.39","0","SATNPRO1964","27.058","0.37898","5"],
    [60403,"HCEP03730563","2025-09-17 14:15:00","11.1505","3.42604","27.712","1.418","7.37","0.353","4.067","0.02","0.38","30.1332","4.73858","15.61","0","SATNPRO1964","27.424","0.38412","5"],
    [60404,"HCEP03730563","2025-09-17 14:30:00","11.1522","3.42623","27.694","1.485","7.37","0.333","3.715","0.03","0.16","30.1336","4.73862","16.35","0","SATNPRO1964","27.546","0.3858","5"],
    [60405,"HCEP03730563","2025-09-17 14:45:00","11.1472","3.42538","27.718","1.494","7.38","0.345","3.729","0.02","0.13","30.1294","4.7381","16.45","0","SATNPRO1964","27.378","0.38348","5"],
    [60406,"HCEP03730563","2025-09-17 15:00:00","11.1499","3.42575","27.746","1.494","7.38","0.322","3.965","0.02","0.22","30.1308","4.73826","16.45","0","SATNPRO1964","27.69","0.38782","5"],
    [60407,"HCEP03730563","2025-09-17 15:15:00","11.1498","3.42563","27.698","1.518","7.38","0.338","3.76","0.03","0.23","30.1297","4.73811","16.71","0","SATNPRO1964","27.68","0.38768","5"],
    [60408,"HCEP03730563","2025-09-17 15:30:00","11.1602","3.4269","27.654","1.565","7.38","0.317","3.685","0.03","0.15","30.1336","4.73849","17.23","0","SATNPRO1964","27.94","0.3913","5"],
    [60409,"HCEP03730563","2025-09-17 15:45:00","11.1615","3.42709","27.637","1.632","7.39","0.329","3.482","0.03","0.11","30.1344","4.73858","17.98","0","SATNPRO1964","28.016","0.3924","5"],
    [60410,"HCEP03730563","2025-09-17 16:00:00","11.1633","3.42719","27.575","1.65","7.39","0.302","3.485","0.02","0.11","30.1338","4.73848","18.17","0","SATNPRO1964","27.926","0.39114","5"],
    [60411,"HCEP03730563","2025-09-17 16:15:00","11.1631","3.42716","27.553","1.666","7.39","0.338","3.643","0.03","0.31","30.1338","4.73847","18.35","0","SATNPRO1964","28.482","0.39892","5"],
    [60412,"HCEP03730563","2025-09-17 16:30:00","11.16","3.42647","27.495","1.667","7.39","0.292","3.423","0.02","0.25","30.1296","4.73793","18.36","0","SATNPRO1964","28.419999999999998","0.39806","5"],
    [60413,"HCEP03730563","2025-09-17 16:45:00","11.1631","3.42706","27.383","1.673","7.39","0.322","3.199","0.02","0.21","30.1329","4.73833","18.43","0","SATNPRO1964","28.580000000000002","0.4003","5"],
    [60414,"HCEP03730563","2025-09-17 17:00:00","11.1646","3.42721","27.334","1.697","7.4","0.287","2.916","0.01","0.13","30.1332","4.73835","18.69","0","SATNPRO1964","28.558","0.39998","5"],
    [60415,"HCEP03730563","2025-09-17 17:15:00","11.1589","3.42651","27.255","1.688","7.39","0.318","3.04","0.03","0.14","30.131","4.73813","18.59","0","SATNPRO1964","28.602","0.40064","5"],
    [60416,"HCEP03730563","2025-09-17 17:30:00","11.1549","3.4261","27.18","1.658","7.39","0.293","2.985","0.02","0.23","30.1304","4.73809","18.26","0","SATNPRO1964","28.382","0.39758","5"],
    [60417,"HCEP03730563","2025-09-17 17:45:00","11.1517","3.42542","27.043","1.617","7.39","0.315","3.055","0.02","0.21","30.1264","4.73757","17.81","0","SATNPRO1964","28.323999999999998","0.3967","5"],
    [60418,"HCEP03730563","2025-09-17 18:00:00","11.1573","3.42615","27.006","1.616","7.39","0.298","3.754","0.01","0.31","30.1289","4.73784","17.8","0","SATNPRO1964","28.562","0.40008","5"],
    [60419,"HCEP03730563","2025-09-17 18:15:00","11.1537","3.42571","26.899","1.657","7.39","0.304","3.007","0.01","0.21","30.1276","4.73771","18.25","0","SATNPRO1964","28.538","0.39972","5"],
    [60420,"HCEP03730563","2025-09-17 18:30:00","11.1585","3.42609","26.824","1.662","7.39","0.28","2.356","0.02","0.05","30.1274","4.7376","18.31","0","SATNPRO1964","28.852","0.40412","5"],
    [60421,"HCEP03730563","2025-09-17 18:45:00","11.1701","3.42811","26.689","1.656","7.39","0.322","3.318","0.02","0.29","30.1377","4.73888","18.24","0","SATNPRO1964","27.864","0.39032","5"],
    [60422,"HCEP03730563","2025-09-17 19:00:00","11.168","3.42756","26.588","1.72","7.4","0.314","3.74","0.02","0.27","30.1341","4.7384","18.95","0","SATNPRO1964","28.384","0.39754","5"],
    [60423,"HCEP03730563","2025-09-17 19:15:00","11.1661","3.42683","26.478","1.76","7.4","0.313","2.411","0.02","0.1","30.1286","4.73763","19.38","0","SATNPRO1964","29.078","0.40728","5"],
    [60424,"HCEP03730563","2025-09-17 19:30:00","11.1739","3.42742","26.407","1.804","7.41","0.279","2.156","0.02","0.11","30.128","4.73743","19.88","0","SATNPRO1964","29.736","0.41652","5"],
    [60425,"HCEP03730563","2025-09-17 19:45:00","11.1768","3.42807","26.345","1.883","7.41","0.331","2.343","0.11","0.15","30.1319","4.73793","20.75","0","SATNPRO1964","29.834","0.41788","5"],
    [60426,"HCEP03730563","2025-09-17 20:00:00","11.1773","3.42809","26.291","1.922","7.41","0.283","2.568","0.02","0.29","30.1318","4.73791","21.18","0","SATNPRO1964","29.566","0.41412","5"],
    [60427,"HCEP03730563","2025-09-17 20:15:00","11.1747","3.42772","26.284","1.894","7.41","0.291","2","0.02","0.09","30.1303","4.73774","20.87","0","SATNPRO1964","29.656","0.41538","5"],
    [60428,"HCEP03730563","2025-09-17 20:30:00","11.1811","3.42879","26.271","1.912","7.42","0.289","2.298","0.03","0.23","30.1355","4.73838","21.07","0","SATNPRO1964","29.69","0.41586","5"],
    [60429,"HCEP03730563","2025-09-17 20:45:00","11.1695","3.42791","26.279","1.852","7.41","0.324","4.061","0.03","0.16","30.1364","4.73868","20.41","0","SATNPRO1964","27.308","0.38252","5"],
    [60430,"HCEP03730563","2025-09-17 21:00:00","11.1661","3.42829","26.286","1.638","7.39","0.317","4.415","0.02","0.46","30.1429","4.73965","18.04","0","SATNPRO1964","26.704","0.37404","5"],
    [60431,"HCEP03730563","2025-09-17 21:15:00","11.1652","3.42807","26.295","1.495","7.38","0.358","4.366","0.04","0.15","30.1415","4.73946","16.47","0","SATNPRO1964","26.654","0.37332","5"],
    [60432,"HCEP03730563","2025-09-17 21:30:00","11.1648","3.42807","26.333","1.441","7.38","0.329","4.356","0.03","0.2","30.1418","4.73952","15.88","0","SATNPRO1964","26.364","0.36928","5"],
    [60433,"HCEP03730563","2025-09-17 21:45:00","11.1644","3.4281","26.398","1.395","7.37","0.354","5.048","0.02","0.23","30.1424","4.73961","15.36","0","SATNPRO1964","25.97","0.36374","5"],
    [60434,"HCEP03730563","2025-09-17 22:00:00","11.1651","3.42824","26.433","1.385","7.37","0.33","4.855","0.01","0.14","30.1431","4.73971","15.26","0","SATNPRO1964","26.248","0.36766","5"],
    [60435,"HCEP03730563","2025-09-17 22:15:00","11.1665","3.42809","26.486","1.414","7.37","0.337","4.373","0.02","0.14","30.1404","4.73931","15.57","0","SATNPRO1964","26.918","0.37704","5"],
    [60436,"HCEP03730563","2025-09-17 22:30:00","11.1685","3.42767","26.558","1.511","7.38","0.31","3.936","0.02","0.23","30.1347","4.73847","16.65","0","SATNPRO1964","27.644","0.38718","5"],
    [60437,"HCEP03730563","2025-09-17 22:45:00","11.1673","3.42827","26.59","1.562","7.38","0.333","4.145","0.02","0.16","30.1416","4.73946","17.21","0","SATNPRO1964","27.332","0.3828","5"],
    [60438,"HCEP03730563","2025-09-17 23:00:00","11.1692","3.42778","26.655","1.549","7.39","0.321","3.572","0.09","0.15","30.1352","4.73854","17.07","0","SATNPRO1964","28.522","0.39952","5"],
    [60439,"HCEP03730563","2025-09-17 23:15:00","11.172","3.42792","26.718","1.66","7.39","0.307","2.922","0.02","0.07","30.1343","4.73837","18.29","0","SATNPRO1964","28.918","0.40508","5"],
    [60440,"HCEP03730563","2025-09-17 23:30:00","11.1691","3.42769","26.746","1.696","7.39","0.296","3.374","0.02","0.33","30.1344","4.73843","18.68","0","SATNPRO1964","28.276","0.39604","5"],
    [60441,"HCEP03730563","2025-09-17 23:45:00","11.1654","3.427","26.813","1.67","7.39","0.33","2.936","0.02","0.06","30.1307","4.73796","18.39","0","SATNPRO1964","27.990000000000002","0.39206","5"],
    [60442,"HCEP03730563","2025-09-18 00:00:00","11.1638","3.4266","26.89","1.675","7.39","0.327","2.862","0.05","0.13","30.128","4.73761","18.45","0","SATNPRO1964","28.366","0.3973","5"],
    [60443,"HCEP03730563","2025-09-18 00:15:00","11.1701","3.42729","26.931","1.714","7.4","0.308","2.567","0.02","0.11","30.1296","4.73774","18.88","0","SATNPRO1964","28.876","0.40444","5"],
    [60444,"HCEP03730563","2025-09-18 00:30:00","11.1774","3.42817","26.995","1.797","7.4","0.281","2.188","0.02","0.09","30.1321","4.738","19.8","0","SATNPRO1964","29.444","0.41242","5"],
    [60445,"HCEP03730563","2025-09-18 00:45:00","11.1768","3.42823","27.029","1.85","7.41","0.31","2.64","0.03","0.09","30.1332","4.73815","20.39","0","SATNPRO1964","28.727999999999998","0.40238","5"],
    [60446,"HCEP03730563","2025-09-18 01:00:00","11.1717","3.42908","27.078","1.784","7.4","0.312","3.928","0.02","0.23","30.1457","4.74","19.66","0","SATNPRO1964","28.366","0.39732","5"],
    [60447,"HCEP03730563","2025-09-18 01:15:00","11.1691","3.42969","27.112","1.557","7.38","0.342","4.716","0.02","0.11","30.1537","4.74119","17.16","0","SATNPRO1964","26.816","0.37564","5"],
    [60448,"HCEP03730563","2025-09-18 01:30:00","11.1694","3.43044","27.119","1.382","7.37","0.327","4.707","0.02","0.2","30.1608","4.74218","15.23","0","SATNPRO1964","26.748","0.37468","5"],
    [60449,"HCEP03730563","2025-09-18 01:45:00","11.1689","3.43118","27.114","1.286","7.37","0.372","5.501","0.08","0.16","30.1685","4.74328","14.17","0","SATNPRO1964","25.212","0.35314","5"],
    [60450,"HCEP03730563","2025-09-18 02:00:00","11.1689","3.43143","27.111","1.193","7.36","0.328","5.89","0.02","0.32","30.1709","4.74362","13.14","0","SATNPRO1964","25.266000000000002","0.35388","5"],
    [60451,"HCEP03730563","2025-09-18 02:15:00","11.1697","3.43159","27.076","1.163","7.35","0.35","5.716","0.02","0.42","30.1718","4.74374","12.81","0","SATNPRO1964","25.448","0.35642","5"],
    [60452,"HCEP03730563","2025-09-18 02:30:00","11.1728","3.43135","27.019","1.205","7.36","0.336","5.166","0.06","0.3","30.167","4.74301","13.28","0","SATNPRO1964","25.734","0.36046","5"],
    [60453,"HCEP03730563","2025-09-18 02:45:00","11.1717","3.43072","26.943","1.298","7.36","0.337","4.879","0.02","0.44","30.1617","4.74227","14.3","0","SATNPRO1964","25.759999999999998","0.36082","5"],
    [60454,"HCEP03730563","2025-09-18 03:00:00","11.1735","3.43128","26.863","1.313","7.36","0.317","5.37","0.02","0.44","30.1658","4.74281","14.47","0","SATNPRO1964","25.842","0.36194","5"],
    [60455,"HCEP03730563","2025-09-18 03:15:00","11.173","3.43058","26.78","1.337","7.37","0.324","4.705","0.02","0.34","30.1594","4.74191","14.74","0","SATNPRO1964","25.778000000000002","0.36108","5"],
    [60456,"HCEP03730563","2025-09-18 03:30:00","11.1741","3.43096","26.677","1.378","7.37","0.333","5.522","0.09","0.34","30.1622","4.74229","15.18","0","SATNPRO1964","25.728","0.36038","5"],
    [60457,"HCEP03730563","2025-09-18 03:45:00","11.1689","3.42846","26.555","1.536","7.38","0.32","4.211","0.02","0.32","30.1421","4.73951","16.93","0","SATNPRO1964","26.226","0.36734","5"],
    [60458,"HCEP03730563","2025-09-18 04:00:00","11.1701","3.42856","26.412","1.657","7.39","0.327","4.258","0.11","0.22","30.1421","4.73949","18.25","0","SATNPRO1964","26.79","0.37526","5"],
    [60459,"HCEP03730563","2025-09-18 04:15:00","11.1749","3.42965","26.273","1.753","7.39","0.304","3.188","0.02","0.24","30.1489","4.74038","19.32","0","SATNPRO1964","28.142","0.39418","5"],
    [60460,"HCEP03730563","2025-09-18 04:30:00","11.1726","3.42868","26.107","1.801","7.4","0.313","4.033","0.03","0.35","30.1415","4.73934","19.85","0","SATNPRO1964","28.19","0.39482","5"],
    [60461,"HCEP03730563","2025-09-18 04:45:00","11.1719","3.42868","25.921","1.704","7.39","0.351","4.568","0.02","0.25","30.142","4.73941","18.78","0","SATNPRO1964","28.012","0.39236","5"],
    [60462,"HCEP03730563","2025-09-18 05:00:00","11.1698","3.42887","25.71","1.678","7.39","0.314","4.211","0.02","0.26","30.1457","4.73996","18.49","0","SATNPRO1964","28.11","0.39374","5"],
    [60463,"HCEP03730563","2025-09-18 05:15:00","11.1695","3.42866","25.535","1.637","7.39","0.338","3.871","0.03","0.22","30.144","4.73971","18.03","0","SATNPRO1964","28.436","0.3983","5"],
    [60464,"HCEP03730563","2025-09-18 05:30:00","11.1703","3.4291","25.372","1.655","7.39","0.31","3.712","0.1","0.36","30.1477","4.74022","18.23","0","SATNPRO1964","28.16","0.3944","5"],
    [60465,"HCEP03730563","2025-09-18 05:45:00","11.1748","3.43082","25.194","1.591","7.39","0.314","4.266","0.03","0.29","30.1609","4.742","17.53","0","SATNPRO1964","27.882","0.39058","5"],
    [60466,"HCEP03730563","2025-09-18 06:00:00","11.1776","3.4317","25.031","1.497","7.38","0.292","4.404","0.02","0.22","30.1671","4.74284","16.5","0","SATNPRO1964","27.496","0.3851","5"],
    [60467,"HCEP03730563","2025-09-18 06:15:00","11.178","3.43191","24.863","1.461","7.38","0.318","4.402","0.03","0.28","30.169","4.7431","16.11","0","SATNPRO1964","27.286","0.3822","5"],
    [60468,"HCEP03730563","2025-09-18 06:30:00","11.1782","3.43177","24.686","1.451","7.38","0.292","4.401","0.03","0.28","30.1675","4.74287","15.99","0","SATNPRO1964","28.206","0.3951","5"],
    [60469,"HCEP03730563","2025-09-18 06:45:00","11.1764","3.43133","24.537","1.487","7.38","0.33","4.392","0.05","0.4","30.1648","4.74251","16.39","0","SATNPRO1964","27.768","0.3889","5"],
    [60470,"HCEP03730563","2025-09-18 07:00:00","11.1748","3.43063","24.395","1.493","7.38","0.282","3.718","0.03","0.2","30.159300000000002","4.74174","16.46","0","SATNPRO1964","27.88","0.39048","5"],
    [60471,"HCEP03730563","2025-09-18 07:15:00","11.1754","3.43094","24.332","1.504","7.38","0.303","4.02","0.01","0.2","30.1619","4.74209","16.58","0","SATNPRO1964","27.602","0.38662","5"],
    [60472,"HCEP03730563","2025-09-18 07:30:00","11.1747","3.43081","24.256","1.478","7.38","0.274","3.816","0.01","0.15","30.1612","4.742","16.29","0","SATNPRO1964","27.638","0.38712","5"],
    [60473,"HCEP03730563","2025-09-18 07:45:00","11.1738","3.43058","24.209","1.464","7.38","0.306","4.122","0.02","0.23","30.1597","4.7418","16.13","0","SATNPRO1964","27.672","0.38758","5"],
    [60474,"HCEP03730563","2025-09-18 08:00:00","11.1729","3.43038","24.18","1.447","7.38","0.279","3.958","0.02","0.11","30.1586","4.74165","15.94","0","SATNPRO1964","27.206","0.38104","5"],
    [60475,"HCEP03730563","2025-09-18 08:15:00","11.1724","3.4303","24.194","1.428","7.38","0.303","4.127","0.02","0.15","30.1581","4.74159","15.74","0","SATNPRO1964","27.404","0.3838","5"],
    [60476,"HCEP03730563","2025-09-18 08:30:00","11.1716","3.4301","24.21","1.418","7.37","0.277","3.735","0.02","0.16","30.1568","4.74142","15.63","0","SATNPRO1964","27.66","0.38742","5"],
    [60477,"HCEP03730563","2025-09-18 08:45:00","11.1712","3.43009","24.273","1.408","7.37","0.32","4.314","0.02","0.21","30.157","4.74146","15.52","0","SATNPRO1964","27.128","0.37998","5"],
    [60478,"HCEP03730563","2025-09-18 09:00:00","11.1706","3.42989","24.346","1.39","7.37","0.297","4.136","0.02","0.22","30.1555","4.74127","15.32","0","SATNPRO1964","26.916","0.37702","5"],
    [60479,"HCEP03730563","2025-09-18 09:15:00","11.1697","3.42971","24.453","1.371","7.37","0.308","3.898","0.01","0.12","30.1545","4.74114","15.11","0","SATNPRO1964","26.582","0.37234","5"],
    [60480,"HCEP03730563","2025-09-18 09:30:00","11.1695","3.42963","24.568","1.364","7.37","0.296","3.921","0.02","0.16","30.1539","4.74106","15.03","0","SATNPRO1964","26.798","0.37536","5"],
    [60481,"HCEP03730563","2025-09-18 09:45:00","11.1689","3.42951","24.716","1.365","7.37","0.311","4.227","0.02","0.13","30.1531","4.74096","15.04","0","SATNPRO1964","27.166","0.38048","5"],
    [60482,"HCEP03730563","2025-09-18 10:00:00","11.1678","3.42922","24.848","1.374","7.37","0.301","4.389","0.02","0.33","30.1511","4.74071","15.14","0","SATNPRO1964","27.224","0.3813","5"],
    [60483,"HCEP03730563","2025-09-18 10:15:00","11.1668","3.42881","25.027","1.389","7.37","0.324","4.244","0.02","0.29","30.1478","4.74027","15.3","0","SATNPRO1964","27.192","0.38084","5"],
    [60484,"HCEP03730563","2025-09-18 10:30:00","11.1667","3.42879","25.187","1.411","7.37","0.303","4.439","0.04","0.41","30.1477","4.74026","15.55","0","SATNPRO1964","27.262","0.38186","5"],
    [60485,"HCEP03730563","2025-09-18 10:45:00","11.1665","3.42874","25.349","1.419","7.37","1.419","31.133","1.27","29.82","30.1472","4.74021","15.63","0","SATNPRO1964","27.55","0.3859","5"],
    [60486,"HCEP03730563","2025-09-18 11:00:00","11.166","3.42848","25.544","1.424","7.37","0.315","5.122","0.02","0.84","30.1451","4.73992","15.69","0","SATNPRO1964","27.652","0.3873","5"],
    [60487,"HCEP03730563","2025-09-18 11:15:00","11.165","3.42828","25.715","1.435","7.37","0.309","3.709","0.01","0.19","30.1438","4.73977","15.8","0","SATNPRO1964","27.614","0.3868","5"],
    [60488,"HCEP03730563","2025-09-18 11:30:00","11.1648","3.42812","25.896","1.439","7.37","0.3","4.022","0.02","0.25","30.1424","4.73958","15.85","0","SATNPRO1964","27.352","0.38308","5"],
    [60489,"HCEP03730563","2025-09-18 11:45:00","11.164","3.42784","26.09","1.442","7.38","0.317","3.049","0.04","0.13","30.1403","4.7393","15.89","0","SATNPRO1964","27.638","0.3871","5"],
    [60490,"HCEP03730563","2025-09-18 12:00:00","11.1585","3.42695","26.298","1.447","7.38","0.271","2.977","0.01","0.17","30.136","4.73878","15.94","0","SATNPRO1964","27.47","0.38476","5"],
    [60491,"HCEP03730563","2025-09-18 12:15:00","11.1592","3.4269","26.497","1.442","7.38","0.296","3.103","0.02","0.15","30.1349","4.73863","15.88","0","SATNPRO1964","27.606","0.38666","5"],
    [60492,"HCEP03730563","2025-09-18 12:30:00","11.1523","3.42564","26.703","1.437","7.37","0.274","2.846","0.02","0.18","30.1282","4.7378","15.83","0","SATNPRO1964","27.394000000000002","0.38372","5"],
    [60493,"HCEP03730563","2025-09-18 12:45:00","11.1508","3.4254","26.888","1.408","7.37","0.303","2.961","0.02","0.16","30.127","4.73766","15.51","0","SATNPRO1964","27.416","0.384","5"],
    [60494,"HCEP03730563","2025-09-18 13:00:00","11.1446","3.42433","27.062","1.39","7.37","0.327","2.925","0.26","0.1","30.1215","4.73699","15.3","0","SATNPRO1964","27.266000000000002","0.38188","5"],
    [60495,"HCEP03730563","2025-09-18 13:15:00","11.1476","3.42494","27.219","1.36","7.37","0.311","3.216","0.01","0.1","30.125","4.73744","14.97","0","SATNPRO1964","27.368000000000002","0.38332","5"],
    [60496,"HCEP03730563","2025-09-18 13:30:00","11.1484","3.42476","27.354","1.369","7.37","0.276","2.816","0.02","0.1","30.1225","4.73708","15.08","0","SATNPRO1964","27.34","0.38296","5"],
    [60497,"HCEP03730563","2025-09-18 13:45:00","11.1569","3.42696","27.476","1.372","7.37","0.394","7.966","0.04","1.58","30.1369","4.73901","15.11","0","SATNPRO1964","27.266","0.38192","5"],
    [60498,"HCEP03730563","2025-09-18 14:00:00","11.1443","3.42417","27.57","1.353","7.37","0.325","6.918","0.04","2.18","30.12","4.73681","14.9","0","SATNPRO1964","27.396","0.38374","5"],
    [60499,"HCEP03730563","2025-09-18 14:15:00","11.1554","3.42668","27.642","1.349","7.37","0.329","4.087","0.02","0.11","30.1354","4.73882","14.85","0","SATNPRO1964","26.838","0.37594","5"],
    [60500,"HCEP03730563","2025-09-18 14:30:00","11.1517","3.42566","27.708","1.341","7.37","0.274","3.338","0.01","0.14","30.1285","4.73791","14.77","0","SATNPRO1964","27.232","0.38144","5"],
    [60501,"HCEP03730563","2025-09-18 14:45:00","11.1528","3.42577","27.732","1.375","7.37","0.337","3.376","0.18","0.15","30.1286","4.7379","15.14","0","SATNPRO1964","27.362000000000002","0.38324","5"],
    [60502,"HCEP03730563","2025-09-18 15:00:00","11.1543","3.42655","27.749","1.369","7.37","0.282","3.547","0.03","0.27","30.1349","4.73878","15.07","0","SATNPRO1964","27.156","0.38038","5"],
    [60503,"HCEP03730563","2025-09-18 15:15:00","11.163","3.42832","27.761","1.332","7.37","0.32","4.227","0.02","0.29","30.1451","4.7401","14.68","0","SATNPRO1964","26.822","0.37566","5"],
    [60504,"HCEP03730563","2025-09-18 15:30:00","11.1634","3.42835","27.743","1.336","7.37","0.325","4.037","0.02","0.55","30.1451","4.74009","14.72","0","SATNPRO1964","26.978","0.37786","5"],
    [60505,"HCEP03730563","2025-09-18 15:45:00","11.1575","3.42678","27.723","1.363","7.37","0.293","2.962","0.02","0.18","30.1346","4.73868","15.02","0","SATNPRO1964","27.304","0.38242","5"],
    [60506,"HCEP03730563","2025-09-18 16:00:00","11.1602","3.42742","27.698","1.389","7.37","0.295","3.5","0.02","0.13","30.1386","4.73921","15.3","0","SATNPRO1964","27.09","0.37948","5"],
    [60507,"HCEP03730563","2025-09-18 16:15:00","11.162","3.42786","27.664","1.364","7.37","0.315","3.602","0.02","0.14","30.1414","4.73958","15.02","0","SATNPRO1964","26.631999999999998","0.37308","5"],
    [60508,"HCEP03730563","2025-09-18 16:30:00","11.1613","3.42774","27.6","1.334","7.37","0.287","3.403","0.02","0.21","30.1409","4.73952","14.7","0","SATNPRO1964","26.522","0.37144","5"],
    [60509,"HCEP03730563","2025-09-18 16:45:00","11.1611","3.42756","27.537","1.325","7.37","0.328","3.496","0.03","0.19","30.1393","4.73929","14.6","0","SATNPRO1964","26.732","0.3744","5"],
    [60510,"HCEP03730563","2025-09-18 17:00:00","11.1609","3.42755","27.459","1.325","7.37","0.315","3.639","0.02","0.17","30.1395","4.73931","14.6","0","SATNPRO1964","26.906","0.37688","5"],
    [60511,"HCEP03730563","2025-09-18 17:15:00","11.1611","3.42764","27.358","1.324","7.37","0.36","4.055","0.02","0.7","30.1402","4.73941","14.59","0","SATNPRO1964","26.912","0.37696","5"],
    [60512,"HCEP03730563","2025-09-18 17:30:00","11.1589","3.42717","27.259","1.333","7.37","0.31","3.593","0.04","0.35","30.1374","4.73904","14.69","0","SATNPRO1964","27.126","0.37992","5"],
    [60513,"HCEP03730563","2025-09-18 17:45:00","11.1559","3.42638","27.154","1.35","7.37","0.328","3.401","0.02","0.18","30.1323","4.73834","14.87","0","SATNPRO1964","27.158","0.38038","5"],
    [60514,"HCEP03730563","2025-09-18 18:00:00","11.1598","3.42754","27.047","1.345","7.37","0.298","3.773","0.02","0.24","30.1404","4.73944","14.82","0","SATNPRO1964","27.024","0.3785","5"],
    [60515,"HCEP03730563","2025-09-18 18:15:00","11.1555","3.42683","26.944","1.315","7.36","0.327","4.532","0.01","0.13","30.137","4.73902","14.49","0","SATNPRO1964","26.844","0.37602","5"],
    [60516,"HCEP03730563","2025-09-18 18:30:00","11.1238","3.42134","26.82","1.209","7.35","0.303","3.968","0.08","0.13","30.1094","4.73557","13.3","0","SATNPRO1964","25.59","0.35844","5"],
    [60517,"HCEP03730563","2025-09-18 18:45:00","11.0876","3.41591","26.723","1.025","7.34","0.288","3.019","0.02","0.41","30.0861","4.7328","11.27","0","SATNPRO1964","24.968","0.34974","5"],
    [60518,"HCEP03730563","2025-09-18 19:00:00","11.0796","3.41468","26.573","0.866","7.33","0.264","3.421","0.01","0.41","30.0807","4.73216","9.52","0","SATNPRO1964","24.708","0.34612","5"],
    [60519,"HCEP03730563","2025-09-18 19:15:00","11.0653","3.41286","26.437","0.777","7.32","0.274","2.216","0.02","0.07","30.0746","4.7315","8.53","0","SATNPRO1964","24.310000000000002","0.34052","5"],
    [60520,"HCEP03730563","2025-09-18 19:30:00","11.0775","3.41459","26.346","0.739","7.31","0.27","3.341","0.02","0.22","30.0815","4.73229","8.12","0","SATNPRO1964","24.106","0.33762","5"],
    [60521,"HCEP03730563","2025-09-18 19:45:00","11.0968","3.4172","26.252","0.734","7.31","0.308","3.75","0.03","0.12","30.0913","4.73338","8.08","0","SATNPRO1964","23.756","0.33274","5"],
    [60522,"HCEP03730563","2025-09-18 20:00:00","11.0854","3.41541","26.141","0.728","7.31","0.268","3.593","0.01","0.2","30.0832","4.73239","8","0","SATNPRO1964","23.588","0.33038","5"],
    [60523,"HCEP03730563","2025-09-18 20:15:00","11.0774","3.41436","26.041","0.694","7.31","0.3","3.574","0.02","0.13","30.0796","4.732","7.63","0","SATNPRO1964","23.77","0.33294","5"],
    [60524,"HCEP03730563","2025-09-18 20:30:00","11.0796","3.4147","25.965","0.683","7.3","0.33","3.539","0.09","0.09","30.0811","4.73218","7.51","0","SATNPRO1964","24.39","0.34164","5"],
    [60525,"HCEP03730563","2025-09-18 20:45:00","11.137","3.42439","25.927","0.78","7.32","0.304","3.75","0.02","0.26","30.1288","4.73807","8.59","0","SATNPRO1964","24.948","0.3494","5"],
    [60526,"HCEP03730563","2025-09-18 21:00:00","11.1194","3.42173","25.915","0.958","7.32","0.288","3.573","0.04","0.1","30.1172","4.73669","10.55","0","SATNPRO1964","24.774","0.347","5"],
    [60527,"HCEP03730563","2025-09-18 21:15:00","11.1161","3.42019","25.92","0.941","7.32","0.3","3.51","0.02","0.16","30.1049","4.735","10.36","0","SATNPRO1964","24.656","0.3453","5"],
    [60528,"HCEP03730563","2025-09-18 21:30:00","11.126","3.42211","25.932","0.935","7.33","0.294","3.783","0.05","0.23","30.1155","4.73635","10.29","0","SATNPRO1964","25.215999999999998","0.3532","5"],
    [60529,"HCEP03730563","2025-09-18 21:45:00","11.1094","3.41892","25.964","0.948","7.32","0.344","3.178","0.07","0.09","30.098","4.73412","10.43","0","SATNPRO1964","25.05","0.35086","5"],
    [60530,"HCEP03730563","2025-09-18 22:00:00","11.1412","3.42498","25.999","0.958","7.33","0.303","4.278","0.02","0.67","30.131","4.73833","10.55","0","SATNPRO1964","25.366","0.35528","5"],
    [60531,"HCEP03730563","2025-09-18 22:15:00","11.1431","3.42489","26.06","1.045","7.33","0.316","4.449","0.02","0.28","30.1287","4.73797","11.51","0","SATNPRO1964","25.695999999999998","0.3599","5"],
    [60532,"HCEP03730563","2025-09-18 22:30:00","11.136","3.42355","26.129","1.069","7.34","0.292","4.095","0.01","0.3","30.1212","4.73703","11.77","0","SATNPRO1964","25.27","0.35396","5"],
    [60533,"HCEP03730563","2025-09-18 22:45:00","11.1327","3.42345","26.202","1.052","7.33","0.314","3.989","0.02","0.1","30.1231","4.73734","11.58","0","SATNPRO1964","25.538","0.3577","5"],
    [60534,"HCEP03730563","2025-09-18 23:00:00","11.1323","3.42304","26.281","1.041","7.33","0.312","4.151","0.04","0.18","30.1193","4.73681","11.45","0","SATNPRO1964","25.082","0.35134","5"],
    [60535,"HCEP03730563","2025-09-18 23:15:00","11.1317","3.42297","26.364","1.025","7.33","0.329","3.985","0.03","0.13","30.1191","4.7368","11.28","0","SATNPRO1964","25.09","0.3514","5"],
    [60536,"HCEP03730563","2025-09-18 23:30:00","11.1253","3.42183","26.443","1.013","7.33","0.297","3.563","0.06","0.14","30.1131","4.73606","11.14","0","SATNPRO1964","24.75","0.34664","5"],
    [60537,"HCEP03730563","2025-09-18 23:45:00","11.1276","3.42194","26.529","1.009","7.33","0.315","4.055","0.02","0.2","30.1124","4.73592","11.11","0","SATNPRO1964","24.804","0.34742","5"],
    [60538,"HCEP03730563","2025-09-19 00:00:00","11.1327","3.42314","26.613","1.015","7.33","0.299","4.123","0.02","0.1","30.1198","4.7369","11.18","0","SATNPRO1964","24.736","0.34648","5"],
    [60539,"HCEP03730563","2025-09-19 00:15:00","11.1349","3.42302","26.716","1.02","7.33","0.326","4.369","0.02","0.24","30.1168","4.73644","11.23","0","SATNPRO1964","24.832","0.3478","5"],
    [60540,"HCEP03730563","2025-09-19 00:30:00","11.1364","3.42322","26.809","1.035","7.33","0.301","4.472","0.02","0.25","30.1175","4.73653","11.39","0","SATNPRO1964","25.48","0.3569","5"],
    [60541,"HCEP03730563","2025-09-19 00:45:00","11.1334","3.42235","26.904","1.059","7.34","0.336","4.496","0.07","0.15","30.1115","4.73573","11.66","0","SATNPRO1964","25.252","0.3537","5"],
    [60542,"HCEP03730563","2025-09-19 01:00:00","11.1206","3.41991","26.994","1.09","7.34","0.284","2.696","0.02","0.09","30.098","4.73401","12","0","SATNPRO1964","25.994","0.36406","5"],
    [60543,"HCEP03730563","2025-09-19 01:15:00","11.1334","3.42237","27.056","1.121","7.34","0.329","3.875","0.02","0.33","30.1116","4.73575","12.33","0","SATNPRO1964","25.59","0.35842","5"],
    [60544,"HCEP03730563","2025-09-19 01:30:00","11.133","3.42188","27.118","1.138","7.34","0.311","3.647","0.03","0.16","30.107","4.73511","12.52","0","SATNPRO1964","26.998","0.37818","5"],
    [60545,"HCEP03730563","2025-09-19 01:45:00","11.1391","3.42394","27.185","1.149","7.34","0.409","5.506","0.03","0.39","30.1222","4.73718","12.65","0","SATNPRO1964","25.638","0.35914","5"],
    [60546,"HCEP03730563","2025-09-19 02:00:00","11.1337","3.42243","27.24","1.132","7.34","0.331","3.691","0.06","0.17","30.1119","4.7358","12.46","0","SATNPRO1964","25.966","0.36372","5"],
    [60547,"HCEP03730563","2025-09-19 02:15:00","11.133","3.42207","27.24","1.148","7.34","0.346","3.253","0.06","0.11","30.1089","4.73538","12.64","0","SATNPRO1964","26.306","0.36846","5"],
    [60548,"HCEP03730563","2025-09-19 02:30:00","11.1198","3.4195","27.253","1.155","7.34","0.34","3.23","0.03","0.11","30.0946","4.73355","12.7","0","SATNPRO1964","26.454","0.37052","5"],
    [60549,"HCEP03730563","2025-09-19 02:45:00","11.1197","3.41947","27.245","1.159","7.34","0.321","3.247","0.06","0.9","30.0944","4.73353","12.75","0","SATNPRO1964","26.618","0.37284","5"],
    [60550,"HCEP03730563","2025-09-19 03:00:00","11.1257","3.42108","27.227","1.166","7.35","0.334","3.251","0.03","0.16","30.1052","4.73497","12.83","0","SATNPRO1964","26.758","0.37482","5"],
    [60551,"HCEP03730563","2025-09-19 03:15:00","11.125","3.42085","27.182","1.175","7.35","0.311","2.839","0.03","0.19","30.1035","4.73473","12.94","0","SATNPRO1964","26.81","0.3755","5"],
    [60552,"HCEP03730563","2025-09-19 03:30:00","11.1306","3.42193","27.132","1.185","7.35","0.287","2.879","0.03","0.14","30.1095","4.7355","13.04","0","SATNPRO1964","26.96","0.37764","5"],
    [60553,"HCEP03730563","2025-09-19 03:45:00","11.1373","3.42304","27.039","1.201","7.35","0.322","3.41","0.04","0.16","30.1149","4.73616","13.22","0","SATNPRO1964","26.916","0.377","5"],
    [60554,"HCEP03730563","2025-09-19 04:00:00","11.1415","3.42397","26.962","1.225","7.35","0.321","3.862","0.02","0.2","30.1206","4.7369","13.49","0","SATNPRO1964","27.056","0.37896","5"],
    [60555,"HCEP03730563","2025-09-19 04:15:00","11.142","3.42399","26.837","1.246","7.35","0.375","3.999","0.06","0.09","30.1204","4.73685","13.72","0","SATNPRO1964","27.276","0.38202","5"],
    [60556,"HCEP03730563","2025-09-19 04:30:00","11.1443","3.42425","26.714","1.261","7.35","0.36","4.27","0.05","0.2","30.1212","4.73693","13.88","0","SATNPRO1964","27.006","0.37828","5"],
    [60557,"HCEP03730563","2025-09-19 04:45:00","11.1479","3.42483","26.564","1.278","7.36","0.348","4.167","0.03","0.14","30.1239","4.73724","14.08","0","SATNPRO1964","27.12","0.37984","5"],
    [60558,"HCEP03730563","2025-09-19 05:00:00","11.1505","3.42537","26.436","1.293","7.36","0.384","4.071","0.28","0.19","30.1271","4.73766","14.24","0","SATNPRO1964","27.124","0.37994","5"],
    [60559,"HCEP03730563","2025-09-19 05:15:00","11.1531","3.4258","26.272","1.304","7.36","0.345","4.701","0.02","0.29","30.1292","4.7379","14.37","0","SATNPRO1964","27.184","0.38072","5"],
    [60560,"HCEP03730563","2025-09-19 05:30:00","11.1548","3.42625","26.094","1.309","7.36","0.313","4.241","0.02","0.49","30.1323","4.73831","14.42","0","SATNPRO1964","27.21","0.38114","5"],
    [60561,"HCEP03730563","2025-09-19 05:45:00","11.1538","3.42631","25.932","1.292","7.36","0.347","4.663","0.02","0.15","30.1337","4.73851","14.23","0","SATNPRO1964","26.382","0.3695","5"],
    [60562,"HCEP03730563","2025-09-19 06:00:00","11.1571","3.42673","25.743","1.277","7.36","0.321","3.934","0.03","0.19","30.1352","4.73867","14.06","0","SATNPRO1964","26.874","0.37646","5"],
    [60563,"HCEP03730563","2025-09-19 06:15:00","11.1562","3.42675","25.572","1.275","7.36","0.32","3.833","0.02","0.17","30.1363","4.73882","14.05","0","SATNPRO1964","26.594","0.37248","5"],
    [60564,"HCEP03730563","2025-09-19 06:30:00","11.1569","3.42692","25.377","1.248","7.36","0.294","3.807","0.02","0.24","30.1374","4.73896","13.75","0","SATNPRO1964","26.349999999999998","0.3691","5"],
    [60565,"HCEP03730563","2025-09-19 06:45:00","11.168","3.42879","25.192","1.229","7.36","0.34","4.96","0.02","0.23","30.1467","4.7401","13.54","0","SATNPRO1964","26.23","0.36742","5"],
    [60566,"HCEP03730563","2025-09-19 07:00:00","11.1685","3.42862","25.011","1.261","7.36","0.295","4.028","0.02","0.13","30.1446","4.73978","13.9","0","SATNPRO1964","26.126","0.36594","5"],
    [60567,"HCEP03730563","2025-09-19 07:15:00","11.1718","3.42912","24.833","1.277","7.36","0.352","4.014","0.09","0.44","30.1468","4.74004","14.08","0","SATNPRO1964","26.374","0.36942","5"],
    [60568,"HCEP03730563","2025-09-19 07:30:00","11.1689","3.42873","24.686","1.289","7.36","0.295","3.83","0.02","0.14","30.1455","4.73988","14.2","0","SATNPRO1964","26.354","0.36912","5"],
    [60569,"HCEP03730563","2025-09-19 07:45:00","11.1667","3.42835","24.54","1.278","7.36","0.313","3.678","0.02","0.17","30.1437","4.73966","14.09","0","SATNPRO1964","26.262","0.36782","5"],
    [60570,"HCEP03730563","2025-09-19 08:00:00","11.165","3.42807","24.411","1.267","7.36","0.294","3.793","0.02","0.18","30.1424","4.73949","13.96","0","SATNPRO1964","26.232","0.36742","5"],
    [60571,"HCEP03730563","2025-09-19 08:15:00","11.1644","3.42805","24.329","1.261","7.36","0.319","3.764","0.03","0.21","30.1427","4.73954","13.89","0","SATNPRO1964","26.37","0.36942","5"],
    [60572,"HCEP03730563","2025-09-19 08:30:00","11.163","3.42792","24.269","1.263","7.36","0.365","3.676","0.17","0.16","30.1426","4.73955","13.92","0","SATNPRO1964","26.416","0.37002","5"],
    [60573,"HCEP03730563","2025-09-19 08:45:00","11.1636","3.42798","24.251","1.265","7.36","0.33","3.892","0.02","0.2","30.1427","4.73954","13.94","0","SATNPRO1964","26.55","0.37192","5"],
    [60574,"HCEP03730563","2025-09-19 09:00:00","11.1656","3.42833","24.254","1.272","7.36","0.293","3.407","0.03","0.18","30.1445","4.73977","14.02","0","SATNPRO1964","26.566","0.37212","5"],
    [60575,"HCEP03730563","2025-09-19 09:15:00","11.1737","3.4294","24.264","1.325","7.36","0.305","3.465","0.02","0.09","30.1482","4.74018","14.6","0","SATNPRO1964","28.096","0.39356","5"],
    [60576,"HCEP03730563","2025-09-19 09:30:00","11.19","3.43113","24.322","1.43","7.37","0.301","3.439","0.03","0.1","30.1518","4.74044","15.77","0","SATNPRO1964","27.434","0.38426","5"],
    [60577,"HCEP03730563","2025-09-19 09:45:00","11.1672","3.42873","24.372","1.446","7.37","0.301","3.529","0.02","0.09","30.147","4.74011","15.93","0","SATNPRO1964","26.724","0.37428","5"],
    [60578,"HCEP03730563","2025-09-19 10:00:00","11.169","3.42907","24.459","1.33","7.36","0.283","3.529","0.02","0.12","30.1489","4.74035","14.65","0","SATNPRO1964","26.858","0.37618","5"],
    [60579,"HCEP03730563","2025-09-19 10:15:00","11.19","3.43229","24.579","1.361","7.37","0.338","4.463","0.03","0.14","30.1629","4.74203","15","0","SATNPRO1964","27.674","0.38762","5"],
    [60580,"HCEP03730563","2025-09-19 10:30:00","11.2032","3.43431","24.702","1.462","7.37","0.351","5.047","0.04","0.25","30.1718","4.7431","16.12","0","SATNPRO1964","27.638","0.38716","5"],
    [60581,"HCEP03730563","2025-09-19 10:45:00","11.2106","3.43552","24.842","1.517","7.38","0.368","4.579","0.03","0.24","30.1775","4.74381","16.74","0","SATNPRO1964","27.744","0.3886","5"],
    [60582,"HCEP03730563","2025-09-19 11:00:00","11.2306","3.43833","25.014","1.607","7.39","0.351","3.996","0.12","0.37","30.1884","4.74507","17.73","0","SATNPRO1964","29.078","0.40728","5"],
    [60583,"HCEP03730563","2025-09-19 11:15:00","11.2617","3.44245","25.153","1.777","7.4","0.384","3.51","0.15","0.36","30.203","4.74667","19.63","0","SATNPRO1964","29.476","0.41286","5"],
    [60584,"HCEP03730563","2025-09-19 11:30:00","11.2644","3.44278","25.33","1.962","7.41","0.316","3.605","0.03","0.21","30.2039","4.74677","21.67","0","SATNPRO1964","29.908","0.4189","5"],
    [60585,"HCEP03730563","2025-09-19 11:45:00","11.2729","3.44402","25.503","2.004","7.42","0.331","3.27","0.02","0.14","30.209","4.74737","22.14","0","SATNPRO1964","30.05","0.4209","5"],
    [60586,"HCEP03730563","2025-09-19 12:00:00","11.2747","3.44455","25.701","2.042","7.43","0.325","3.563","0.03","0.22","30.2125","4.74786","22.56","0","SATNPRO1964","30.004","0.42028","5"],
    [60587,"HCEP03730563","2025-09-19 12:15:00","11.2797","3.44565","25.889","2.061","7.43","0.343","3.531","0.03","0.17","30.2191","4.74873","22.77","0","SATNPRO1964","30.214000000000002","0.4232","5"],
    [60588,"HCEP03730563","2025-09-19 12:30:00","11.2794","3.44541","26.114","2.083","7.43","0.329","3.963","0.02","0.21","30.2169","4.74843","23.02","0","SATNPRO1964","30.323999999999998","0.42476","5"],
    [60589,"HCEP03730563","2025-09-19 12:45:00","11.2823","3.44587","26.35","2.071","7.44","0.346","3.964","0.02","0.22","30.2189","4.74869","22.89","0","SATNPRO1964","30.116","0.42182","5"],
    [60590,"HCEP03730563","2025-09-19 13:00:00","11.2845","3.44611","26.537","2.085","7.44","0.341","3.804","0.09","0.18","30.2194","4.74874","23.04","0","SATNPRO1964","30.372","0.42542","5"],
    [60591,"HCEP03730563","2025-09-19 13:15:00","11.2844","3.44611","26.737","2.1","7.44","0.371","3.621","0.13","0.26","30.2194","4.74875","23.21","0","SATNPRO1964","30.512","0.42736","5"],
    [60592,"HCEP03730563","2025-09-19 13:30:00","11.288","3.44587","26.935","2.115","7.44","0.329","3.032","0.07","0.23","30.2141","4.74795","23.38","0","SATNPRO1964","30.762","0.43088","5"],
    [60593,"HCEP03730563","2025-09-19 13:45:00","11.2869","3.44609","27.095","2.162","7.44","0.332","2.757","0.06","0.12","30.217","4.74839","23.89","0","SATNPRO1964","30.74","0.43056","5"],
    [60594,"HCEP03730563","2025-09-19 14:00:00","11.2878","3.44548","27.277","2.163","7.45","0.31","2.584","0.06","0.13","30.2103","4.74744","23.9","0","SATNPRO1964","30.73","0.43042","5"],
    [60595,"HCEP03730563","2025-09-19 14:15:00","11.29","3.44501","27.378","2.218","7.45","0.324","2.236","0.04","0.09","30.2039","4.7465","24.51","0","SATNPRO1964","30.968","0.43378","5"],
    [60596,"HCEP03730563","2025-09-19 14:30:00","11.2905","3.44463","27.51","2.268","7.45","0.419","1.774","0.74","0.07","30.1997","4.74591","25.06","0","SATNPRO1964","31.228","0.4374","5"],
    [60597,"HCEP03730563","2025-09-19 14:45:00","11.289","3.4446","27.595","2.292","7.45","0.336","2.356","0.04","0.12","30.2007","4.74607","25.33","0","SATNPRO1964","30.828","0.43182","5"],
    [60598,"HCEP03730563","2025-09-19 15:00:00","11.2892","3.44534","27.667","2.273","7.45","0.297","2.067","0.06","0.07","30.2076","4.74706","25.12","0","SATNPRO1964","31.164","0.43652","5"],
    [60599,"HCEP03730563","2025-09-19 15:15:00","11.2897","3.44494","27.703","2.262","7.45","0.322","2.093","0.05","0.11","30.2033","4.74644","24.99","0","SATNPRO1964","30.966","0.43374","5"],
    [60600,"HCEP03730563","2025-09-19 15:30:00","11.2949","3.44595","27.718","2.279","7.46","0.289","2.175","0.02","0.1","30.2089","4.74715","25.19","0","SATNPRO1964","30.477999999999998","0.42692","5"],
    [60601,"HCEP03730563","2025-09-19 15:45:00","11.2805","3.44488","27.709","2.246","7.45","0.319","2.758","0.03","0.13","30.2103","4.74756","24.81","0","SATNPRO1964","30.378","0.4255","5"],
    [60602,"HCEP03730563","2025-09-19 16:00:00","11.273","3.44356","27.696","2.142","7.44","0.305","2.522","0.01","0.12","30.2035","4.74672","23.67","0","SATNPRO1964","29.838","0.41792","5"],
    [60603,"HCEP03730563","2025-09-19 16:15:00","11.2617","3.4424","27.708","2.036","7.43","0.402","3.87","0.05","0.18","30.2015","4.7466","22.49","0","SATNPRO1964","29.338","0.41096","5"],
    [60604,"HCEP03730563","2025-09-19 16:30:00","11.2563","3.44151","27.675","1.944","7.43","0.367","3.957","0.05","0.19","30.1974","4.7461","21.46","0","SATNPRO1964","29.372","0.4114","5"],
    [60605,"HCEP03730563","2025-09-19 16:45:00","11.2588","3.44209","27.644","1.904","7.42","0.394","4.506","0.05","0.23","30.201","4.74657","21.03","0","SATNPRO1964","29.022000000000002","0.40652","5"],
    [60606,"HCEP03730563","2025-09-19 17:00:00","11.2613","3.44233","27.552","1.896","7.42","0.334","3.904","0.04","0.3","30.2013","4.74657","20.94","0","SATNPRO1964","29.142","0.40816","5"],
    [60607,"HCEP03730563","2025-09-19 17:15:00","11.2559","3.4415","27.458","1.899","7.42","0.342","3.637","0.03","0.18","30.1976","4.74613","20.97","0","SATNPRO1964","29.258","0.40978","5"],
    [60608,"HCEP03730563","2025-09-19 17:30:00","11.2565","3.44157","27.361","1.898","7.42","0.323","3.457","0.06","0.19","30.1979","4.74615","20.95","0","SATNPRO1964","28.78","0.4031","5"],
    [60609,"HCEP03730563","2025-09-19 17:45:00","11.2203","3.43543","27.268","1.813","7.41","0.346","3.22","0.03","0.85","30.1677","4.74241","20","0","SATNPRO1964","28.872","0.4044","5"],
    [60610,"HCEP03730563","2025-09-19 18:00:00","11.1958","3.43231","27.164","1.627","7.4","0.291","2.743","0.03","0.19","30.1573","4.7413","17.94","0","SATNPRO1964","28.432000000000002","0.39828","5"],
    [60611,"HCEP03730563","2025-09-19 18:15:00","11.2701","3.44092","27.06","1.691","7.42","0.33","1.838","0.09","0.08","30.1806","4.74348","18.68","0","SATNPRO1964","30.55","0.4279","5"],
    [60612,"HCEP03730563","2025-09-19 18:30:00","11.2762","3.44177","26.949","2.057","7.43","0.326","1.561","0.14","0.05","30.1838","4.74384","22.72","0","SATNPRO1964","31.122","0.43588","5"],
    [60613,"HCEP03730563","2025-09-19 18:45:00","11.2759","3.44153","26.833","2.197","7.44","0.313","1.564","0.04","0.05","30.1818","4.74354","24.26","0","SATNPRO1964","31.098","0.43556","5"],
    [60614,"HCEP03730563","2025-09-19 19:00:00","11.2778","3.44187","26.708","2.238","7.45","0.274","1.548","0.03","0.18","30.1836","4.74377","24.72","0","SATNPRO1964","31.084","0.43536","5"],
    [60615,"HCEP03730563","2025-09-19 19:15:00","11.2804","3.4428","26.593","2.254","7.45","0.326","1.585","0.06","0.06","30.1906","4.74471","24.9","0","SATNPRO1964","31.156","0.43638","5"],
    [60616,"HCEP03730563","2025-09-19 19:30:00","11.2875","3.44451","26.436","2.259","7.45","0.35","3.069","0.1","0.26","30.2014","4.74613","24.97","0","SATNPRO1964","30.928","0.4332","5"],
    [60617,"HCEP03730563","2025-09-19 19:45:00","11.2893","3.4453","26.295","2.248","7.45","0.335","2.925","0.05","0.26","30.2077","4.74699","24.84","0","SATNPRO1964","30.962","0.43366","5"],
    [60618,"HCEP03730563","2025-09-19 20:00:00","11.2861","3.44526","26.146","2.212","7.45","0.328","3.866","0.07","0.41","30.21","4.74735","24.45","0","SATNPRO1964","30.624","0.42892","5"],
    [60619,"HCEP03730563","2025-09-19 20:15:00","11.2751","3.44433","26.003","2.121","7.44","0.365","4.914","0.03","0.57","30.21","4.74751","23.44","0","SATNPRO1964","29.72","0.41626","5"],
    [60620,"HCEP03730563","2025-09-19 20:30:00","11.2753","3.44441","25.875","1.952","7.43","0.35","4.81","0.07","0.21","30.2107","4.7476","21.56","0","SATNPRO1964","29.58","0.41432","5"],
    [60621,"HCEP03730563","2025-09-19 20:45:00","11.2778","3.44487","25.748","1.961","7.43","0.357","4.898","0.02","0.23","30.2132","4.74791","21.67","0","SATNPRO1964","29.838","0.41798","5"],
    [60622,"HCEP03730563","2025-09-19 21:00:00","11.2818","3.44567","25.601","1.955","7.43","0.342","4.495","0.04","0.21","30.2178","4.74849","21.61","0","SATNPRO1964","29.622","0.41494","5"],
    [60623,"HCEP03730563","2025-09-19 21:15:00","11.2808","3.44573","25.547","1.97","7.43","0.37","4.806","0.04","0.28","30.2191","4.74869","21.77","0","SATNPRO1964","29.702","0.416","5"],
    [60624,"HCEP03730563","2025-09-19 21:30:00","11.2821","3.44603","25.522","1.951","7.43","0.362","4.789","0.02","0.29","30.2211","4.74895","21.56","0","SATNPRO1964","29.832","0.41786","5"],
    [60625,"HCEP03730563","2025-09-19 21:45:00","11.2808","3.44601","25.522","1.938","7.43","0.384","4.323","0.05","0.11","30.2219","4.74908","21.41","0","SATNPRO1964","29.483999999999998","0.41296","5"],
    [60626,"HCEP03730563","2025-09-19 22:00:00","11.2793","3.4458","25.517","1.925","7.43","0.349","4.756","0.04","0.33","30.221","4.74898","21.27","0","SATNPRO1964","29.528","0.4136","5"],
    [60627,"HCEP03730563","2025-09-19 22:15:00","11.2763","3.44545","25.556","1.911","7.43","0.365","4.848","0.03","0.18","30.2201","4.7489","21.11","0","SATNPRO1964","29.442","0.41242","5"],
    [60628,"HCEP03730563","2025-09-19 22:30:00","11.2745","3.44525","25.617","1.897","7.42","0.423","4.669","0.13","0.18","30.2196","4.74886","20.96","0","SATNPRO1964","29.202","0.40908","5"],
    [60629,"HCEP03730563","2025-09-19 22:45:00","11.2736","3.44509","25.69","1.882","7.42","0.341","4.371","0.02","0.14","30.2188","4.74876","20.8","0","SATNPRO1964","29.516","0.4134","5"],
    [60630,"HCEP03730563","2025-09-19 23:00:00","11.2725","3.44491","25.771","1.868","7.42","0.376","4.384","0.12","0.27","30.2179","4.74865","20.64","0","SATNPRO1964","29.216","0.40924","5"],
    [60631,"HCEP03730563","2025-09-19 23:15:00","11.2716","3.44481","25.867","1.857","7.42","0.372","4.303","0.04","0.16","30.2176","4.74863","20.51","0","SATNPRO1964","29.476","0.41286","5"],
    [60632,"HCEP03730563","2025-09-19 23:30:00","11.2708","3.44471","25.96","1.845","7.42","0.359","4.388","0.1","0.32","30.2173","4.7486","20.39","0","SATNPRO1964","29.378","0.41154","5"],
    [60633,"HCEP03730563","2025-09-19 23:45:00","11.2699","3.44457","26.046","1.838","7.42","0.334","3.933","0.02","0.08","30.2166","4.74852","20.3","0","SATNPRO1964","29.132","0.40806","5"],
    [60634,"HCEP03730563","2025-09-20 00:00:00","11.2694","3.4445","26.159","1.834","7.42","0.319","4.601","0.03","0.86","30.2163","4.7485","20.26","0","SATNPRO1964","29.106","0.4077","5"],
    [60635,"HCEP03730563","2025-09-20 00:15:00","11.27","3.44456","26.275","1.836","7.42","0.336","4.166","0.03","0.15","30.2163","4.7485","20.28","0","SATNPRO1964","29.09","0.40742","5"],
    [60636,"HCEP03730563","2025-09-20 00:30:00","11.2699","3.44447","26.398","1.835","7.42","0.326","4.101","0.04","0.22","30.2155","4.74839","20.27","0","SATNPRO1964","29.066","0.40714","5"],
    [60637,"HCEP03730563","2025-09-20 00:45:00","11.2735","3.44501","26.509","1.832","7.42","0.342","4.025","0.02","0.23","30.2177","4.74866","20.24","0","SATNPRO1964","28.548","0.39988","5"],
    [60638,"HCEP03730563","2025-09-20 01:00:00","11.275","3.44541","26.614","1.831","7.42","0.321","4.083","0.02","0.17","30.2204","4.74902","20.23","0","SATNPRO1964","29.316","0.41064","5"],
    [60639,"HCEP03730563","2025-09-20 01:15:00","11.278","3.44567","26.724","1.849","7.42","0.337","3.997","0.03","0.33","30.2203","4.74897","20.43","0","SATNPRO1964","28.988","0.40602","5"],
    [60640,"HCEP03730563","2025-09-20 01:30:00","11.2799","3.44596","26.839","1.859","7.42","0.334","3.84","0.04","0.18","30.2216","4.74913","20.54","0","SATNPRO1964","29.224","0.40936","5"],
    [60641,"HCEP03730563","2025-09-20 01:45:00","11.281","3.44608","26.969","1.883","7.42","0.344","3.832","0.03","0.19","30.221800000000002","4.74914","20.81","0","SATNPRO1964","29.192","0.40892","5"],
    [60642,"HCEP03730563","2025-09-20 02:00:00","11.2807","3.44602","27.144","1.893","7.42","0.345","4.275","0.02","0.19","30.2213","4.7491","20.92","0","SATNPRO1964","29.306","0.41046","5"],
    [60643,"HCEP03730563","2025-09-20 02:15:00","11.282","3.44618","27.249","1.901","7.42","0.404","4.505","0.05","0.39","30.2219","4.74916","21","0","SATNPRO1964","29.352","0.41114","5"],
    [60644,"HCEP03730563","2025-09-20 02:30:00","11.2831","3.44643","27.348","1.913","7.42","0.357","4.405","0.02","0.26","30.2234","4.74937","21.14","0","SATNPRO1964","29.498","0.41318","5"],
    [60645,"HCEP03730563","2025-09-20 02:45:00","11.2831","3.44639","27.422","1.922","7.42","0.363","3.81","0.05","0.15","30.2229","4.7493","21.24","0","SATNPRO1964","29.704","0.41606","5"],
    [60646,"HCEP03730563","2025-09-20 03:00:00","11.2816","3.44621","27.463","1.917","7.42","0.344","4.449","0.04","0.23","30.2224","4.74926","21.18","0","SATNPRO1964","29.3","0.4104","5"],
    [60647,"HCEP03730563","2025-09-20 03:15:00","11.2824","3.44631","27.481","1.897","7.42","1.181","4.943","2.94","0.34","30.2227","4.74929","20.96","0","SATNPRO1964","29.352","0.41108","5"],
    [60648,"HCEP03730563","2025-09-20 03:30:00","11.2825","3.44632","27.471","1.895","7.42","0.362","4.744","0.07","0.39","30.2227","4.74928","20.94","0","SATNPRO1964","29.483999999999998","0.41296","5"],
    [60649,"HCEP03730563","2025-09-20 03:45:00","11.2832","3.44633","27.462","1.898","7.42","0.365","4.582","0.03","0.33","30.2222","4.7492","20.97","0","SATNPRO1964","29.332","0.41086","5"],
    [60650,"HCEP03730563","2025-09-20 04:00:00","11.2827","3.44621","27.415","1.904","7.42","0.364","4.707","0.03","0.43","30.2215","4.74911","21.04","0","SATNPRO1964","29.43","0.41224","5"],
    [60651,"HCEP03730563","2025-09-20 04:15:00","11.2823","3.44605","27.362","1.905","7.42","0.391","4.628","0.05","0.41","30.2203","4.74895","21.05","0","SATNPRO1964","29.076","0.40726","5"],
    [60652,"HCEP03730563","2025-09-20 04:30:00","11.2812","3.44581","27.272","1.906","7.42","0.351","4.47","0.04","0.22","30.2189","4.74875","21.06","0","SATNPRO1964","29.3","0.4104","5"],
    [60653,"HCEP03730563","2025-09-20 04:45:00","11.2794","3.44535","27.187","1.906","7.42","0.381","4.737","0.04","0.29","30.2159","4.74835","21.05","0","SATNPRO1964","29.464","0.4127","5"],
    [60654,"HCEP03730563","2025-09-20 05:00:00","11.2798","3.44539","27.046","1.913","7.42","0.367","4.503","0.03","0.27","30.2161","4.74836","21.14","0","SATNPRO1964","29.386","0.4116","5"],
    [60655,"HCEP03730563","2025-09-20 05:15:00","11.2794","3.44534","26.92","1.91","7.42","0.371","4.597","0.03","0.15","30.216","4.74835","21.1","0","SATNPRO1964","29.59","0.41446","5"],
    [60656,"HCEP03730563","2025-09-20 05:30:00","11.2774","3.44501","26.767","1.9","7.42","0.347","4.363","0.03","0.31","30.2144","4.74814","20.99","0","SATNPRO1964","29.418","0.41208","5"],
    [60657,"HCEP03730563","2025-09-20 05:45:00","11.2771","3.44491","26.622","1.892","7.42","0.391","4.344","0.08","0.29","30.2138","4.74805","20.91","0","SATNPRO1964","29.355999999999998","0.41122","5"],
    [60658,"HCEP03730563","2025-09-20 06:00:00","11.2767","3.44477","26.455","1.888","7.42","0.361","4.42","0.04","0.3","30.2128","4.74791","20.86","0","SATNPRO1964","29.364","0.4113","5"],
    [60659,"HCEP03730563","2025-09-20 06:15:00","11.2776","3.44493","26.277","1.89","7.42","0.366","4.385","0.06","0.27","30.2137","4.74801","20.88","0","SATNPRO1964","29.476","0.41288","5"],
    [60660,"HCEP03730563","2025-09-20 06:30:00","11.2776","3.44488","26.116","1.899","7.42","0.333","3.934","0.03","0.3","30.2133","4.74795","20.98","0","SATNPRO1964","29.304","0.41048","5"],
    [60661,"HCEP03730563","2025-09-20 06:45:00","11.2806","3.4454","25.928","1.915","7.42","0.356","3.791","0.07","0.13","30.216","4.74827","21.16","0","SATNPRO1964","29.696","0.41598","5"],
    [60662,"HCEP03730563","2025-09-20 07:00:00","11.2829","3.44577","25.745","1.934","7.43","0.339","3.592","0.03","0.28","30.2177","4.74848","21.37","0","SATNPRO1964","29.6","0.4146","5"],
    [60663,"HCEP03730563","2025-09-20 07:15:00","11.2841","3.44598","25.567","1.952","7.43","0.363","3.69","0.04","0.13","30.2188","4.7486","21.57","0","SATNPRO1964","29.712","0.41616","5"],
    [60664,"HCEP03730563","2025-09-20 07:30:00","11.2853","3.44611","25.375","1.958","7.43","0.361","3.589","0.06","0.24","30.2193","4.74864","21.64","0","SATNPRO1964","29.882","0.41852","5"],
    [60665,"HCEP03730563","2025-09-20 07:45:00","11.2859","3.44604","25.192","1.978","7.43","0.349","3.417","0.03","0.12","30.2181","4.74845","21.86","0","SATNPRO1964","30.12","0.42186","5"],
    [60666,"HCEP03730563","2025-09-20 08:00:00","11.2853","3.44602","24.996","1.992","7.43","0.354","3.307","0.07","0.13","30.2185","4.74851","22.01","0","SATNPRO1964","30.376","0.42548","5"],
    [60667,"HCEP03730563","2025-09-20 08:15:00","11.2842","3.44605","24.823","1.978","7.43","0.388","3.746","0.05","0.15","30.2197","4.74868","21.86","0","SATNPRO1964","29.55","0.41386","5"],
    [60668,"HCEP03730563","2025-09-20 08:30:00","11.2837","3.44604","24.666","1.955","7.43","0.344","3.474","0.03","0.15","30.2201","4.74874","21.6","0","SATNPRO1964","29.762","0.41686","5"],
    [60669,"HCEP03730563","2025-09-20 08:45:00","11.2801","3.4451","24.544","1.948","7.43","0.345","3.229","0.03","0.16","30.214","4.74792","21.53","0","SATNPRO1964","29.87","0.41836","5"],
    [60670,"HCEP03730563","2025-09-20 09:00:00","11.2816","3.44595","24.455","1.954","7.43","0.344","3.805","0.04","0.54","30.221","4.74889","21.59","0","SATNPRO1964","29.672","0.41562","5"],
    [60671,"HCEP03730563","2025-09-20 09:15:00","11.2807","3.44592","24.389","1.919","7.42","0.369","3.776","0.05","0.11","30.2215","4.74897","21.21","0","SATNPRO1964","29.762","0.41686","5"],
    [60672,"HCEP03730563","2025-09-20 09:30:00","11.2796","3.4458","24.382","1.902","7.42","0.406","3.712","0.16","0.23","30.2213","4.74895","21.02","0","SATNPRO1964","29.772","0.417","5"],
    [60673,"HCEP03730563","2025-09-20 09:45:00","11.2787","3.44568","24.389","1.896","7.42","0.392","3.642","0.1","0.16","30.2208","4.7489","20.94","0","SATNPRO1964","29.808","0.41752","5"],
    [60674,"HCEP03730563","2025-09-20 10:00:00","11.2781","3.44558","24.425","1.893","7.42","0.372","3.785","0.06","0.25","30.2203","4.74884","20.92","0","SATNPRO1964","29.514","0.41338","5"],
    [60675,"HCEP03730563","2025-09-20 10:15:00","11.2775","3.44554","24.482","1.886","7.42","0.386","3.742","0.05","0.19","30.2204","4.74887","20.84","0","SATNPRO1964","29.852","0.4181","5"],
    [60676,"HCEP03730563","2025-09-20 10:30:00","11.277","3.44545","24.565","1.88","7.42","0.392","4.128","0.07","0.2","30.2199","4.74881","20.77","0","SATNPRO1964","29.604","0.41466","5"],
    [60677,"HCEP03730563","2025-09-20 10:45:00","11.2772","3.44559","24.654","1.874","7.42","0.426","4.117","0.12","0.28","30.2211","4.74898","20.71","0","SATNPRO1964","29.644","0.41522","5"],
    [60678,"HCEP03730563","2025-09-20 11:00:00","11.2782","3.4457","24.769","1.872","7.42","0.427","4.391","0.13","0.26","30.2213","4.749","20.69","0","SATNPRO1964","29.552","0.41392","5"],
    [60679,"HCEP03730563","2025-09-20 11:15:00","11.2834","3.44634","24.92","1.882","7.42","0.452","4.26","0.15","0.35","30.2232","4.7492","20.79","0","SATNPRO1964","29.848","0.41808","5"],
    [60680,"HCEP03730563","2025-09-20 11:30:00","11.2831","3.44636","25.077","1.913","7.42","0.453","4.457","0.19","0.3","30.2236","4.74926","21.14","0","SATNPRO1964","29.762","0.41688","5"],
    [60681,"HCEP03730563","2025-09-20 11:45:00","11.2871","3.44671","25.244","1.928","7.43","0.424","4.324","0.07","0.35","30.2237","4.74923","21.31","0","SATNPRO1964","29.912","0.41896","5"],
    [60682,"HCEP03730563","2025-09-20 12:00:00","11.2991","3.44751","25.38","1.976","7.43","0.538","3.54","0.56","0.3","30.2215","4.74876","21.85","0","SATNPRO1964","29.94","0.41936","5"],
    [60683,"HCEP03730563","2025-09-20 12:15:00","11.2934","3.44704","25.575","2.05","7.43","0.43","3.953","0.09","0.21","30.2215","4.74884","22.66","0","SATNPRO1964","29.89","0.41866","5"],
    [60684,"HCEP03730563","2025-09-20 12:30:00","11.2841","3.44608","25.725","2.008","7.43","0.421","3.799","0.09","0.23","30.2198","4.74875","22.18","0","SATNPRO1964","29.618","0.41486","5"],
    [60685,"HCEP03730563","2025-09-20 12:45:00","11.2832","3.44597","25.923","1.941","7.43","0.444","4.017","0.11","0.3","30.2193","4.74871","21.45","0","SATNPRO1964","29.608","0.41472","5"],
    [60686,"HCEP03730563","2025-09-20 13:00:00","11.2922","3.44677","26.086","1.939","7.43","0.437","4.197","0.1","0.69","30.2197","4.74863","21.44","0","SATNPRO1964","29.582","0.41434","5"],
    [60687,"HCEP03730563","2025-09-20 13:15:00","11.297","3.44719","26.3","2.004","7.43","0.494","3.871","0.12","0.31","30.2198","4.7486","22.15","0","SATNPRO1964","29.786","0.41716","5"],
    [60688,"HCEP03730563","2025-09-20 13:30:00","11.2899","3.44626","26.46","2.026","7.43","0.434","4.306","0.08","0.3","30.2165","4.74823","22.39","0","SATNPRO1964","29.5","0.4132","5"],
    [60689,"HCEP03730563","2025-09-20 13:45:00","11.2933","3.4465","26.641","2.002","7.43","0.478","3.851","0.06","0.23","30.216","4.74812","22.13","0","SATNPRO1964","29.806","0.41748","5"],
    [60690,"HCEP03730563","2025-09-20 14:00:00","11.2955","3.44651","26.818","2.048","7.44","0.487","3.586","0.14","0.23","30.2142","4.74786","22.64","0","SATNPRO1964","29.926","0.41918","5"],
    [60691,"HCEP03730563","2025-09-20 14:15:00","11.2968","3.44651","26.997","2.071","7.44","0.474","4.112","0.05","0.22","30.213","4.74767","22.89","0","SATNPRO1964","29.992","0.4201","5"],
    [60692,"HCEP03730563","2025-09-20 14:30:00","11.2986","3.44626","27.245","2.107","7.44","0.423","3.238","0.09","0.24","30.2091","4.7471","23.29","0","SATNPRO1964","30.002","0.42016","5"],
    [60693,"HCEP03730563","2025-09-20 14:45:00","11.2931","3.44558","27.357","2.118","7.44","0.44","3.439","0.05","0.2","30.2069","4.74688","23.41","0","SATNPRO1964","29.948","0.41944","5"],
    [60694,"HCEP03730563","2025-09-20 15:00:00","11.288","3.4448","27.482","2.084","7.44","0.426","3.503","0.09","0.29","30.2034","4.74647","23.03","0","SATNPRO1964","29.986","0.42002","5"],
    [60695,"HCEP03730563","2025-09-20 15:15:00","11.276","3.44344","27.615","2.034","7.43","0.453","3.671","0.08","0.21","30.2","4.74617","22.47","0","SATNPRO1964","29.642","0.41516","5"],
    [60696,"HCEP03730563","2025-09-20 15:30:00","11.2701","3.44265","27.683","1.941","7.43","0.536","3.851","0.26","0.37","30.1971","4.74586","21.44","0","SATNPRO1964","29.636","0.41512","5"],
    [60697,"HCEP03730563","2025-09-20 15:45:00","11.2677","3.44222","27.744","1.899","7.42","0.45","3.9","0.08","0.38","30.1949","4.74558","20.98","0","SATNPRO1964","29.562","0.41404","5"],
    [60698,"HCEP03730563","2025-09-20 16:00:00","11.2675","3.44214","27.765","1.886","7.42","0.403","3.688","0.03","0.19","30.1942","4.74548","20.83","0","SATNPRO1964","29.668","0.41556","5"],
    [60699,"HCEP03730563","2025-09-20 16:15:00","11.2664","3.44183","27.78","1.887","7.42","0.456","3.676","0.2","0.31","30.1921","4.74521","20.84","0","SATNPRO1964","29.774","0.41704","5"],
    [60700,"HCEP03730563","2025-09-20 16:30:00","11.2672","3.44193","27.794","1.894","7.42","0.629","3.505","1.03","0.15","30.1924","4.74523","20.92","0","SATNPRO1964","29.524","0.41352","5"],
    [60701,"HCEP03730563","2025-09-20 16:45:00","11.268","3.44219","27.732","1.892","7.42","0.39","3.317","0.06","0.13","30.1943","4.74549","20.9","0","SATNPRO1964","29.496","0.41316","5"],
    [60702,"HCEP03730563","2025-09-20 17:00:00","11.2722","3.44292","27.678","1.888","7.42","0.349","3.515","0.03","0.22","30.198","4.74594","20.85","0","SATNPRO1964","29.548000000000002","0.41388","5"],
    [60703,"HCEP03730563","2025-09-20 17:15:00","11.2776","3.44376","27.645","1.903","7.42","0.431","3.824","0.08","0.28","30.2018","4.7464","21.02","0","SATNPRO1964","29.573999999999998","0.41424","5"],
    [60704,"HCEP03730563","2025-09-20 17:30:00","11.2789","3.44372","27.578","1.932","7.42","0.444","3.607","0.43","0.26","30.2003","4.74617","21.34","0","SATNPRO1964","29.646","0.41524","5"],
    [60705,"HCEP03730563","2025-09-20 17:45:00","11.2818","3.44427","27.487","1.947","7.43","0.388","3.537","0.08","0.21","30.2033","4.74654","21.51","0","SATNPRO1964","29.73","0.41638","5"],
    [60706,"HCEP03730563","2025-09-20 18:00:00","11.2812","3.44418","27.383","1.961","7.43","0.384","3.509","0.08","0.18","30.203","4.7465","21.66","0","SATNPRO1964","29.842","0.41796","5"],
    [60707,"HCEP03730563","2025-09-20 18:15:00","11.2846","3.44431","27.266","1.967","7.43","0.383","3.244","0.06","0.13","30.2015","4.74624","21.73","0","SATNPRO1964","29.626","0.41494","5"],
    [60708,"HCEP03730563","2025-09-20 18:30:00","11.2761","3.44341","27.156","1.958","7.43","0.371","3.191","0.07","0.11","30.1998","4.74612","21.63","0","SATNPRO1964","29.902","0.41884","5"],
    [60709,"HCEP03730563","2025-09-20 18:45:00","11.2782","3.44382","27.04","1.944","7.43","0.372","3.159","0.06","0.16","30.2021","4.7464","21.47","0","SATNPRO1964","29.872","0.4184","5"],
    [60710,"HCEP03730563","2025-09-20 19:00:00","11.2831","3.44441","26.92","1.956","7.43","0.412","3.158","0.25","0.26","30.2039","4.74658","21.62","0","SATNPRO1964","30.028","0.42058","5"],
    [60711,"HCEP03730563","2025-09-20 19:15:00","11.28","3.4439","26.802","1.972","7.43","0.401","3.085","0.09","0.11","30.2015","4.74628","21.79","0","SATNPRO1964","29.944","0.41942","5"],
    [60712,"HCEP03730563","2025-09-20 19:30:00","11.2755","3.44307","26.653","1.969","7.43","0.415","2.655","0.14","0.09","30.1972","4.74573","21.75","0","SATNPRO1964","30.088","0.42142","5"],
    [60713,"HCEP03730563","2025-09-20 19:45:00","11.278","3.44303","26.489","1.988","7.43","0.716","2.791","1.26","0.23","30.1948","4.74534","21.96","0","SATNPRO1964","30.076","0.42128","5"],
    [60714,"HCEP03730563","2025-09-20 20:00:00","11.2841","3.4444","26.339","1.977","7.43","0.429","4.424","0.09","0.26","30.2032","4.74643","21.84","0","SATNPRO1964","29.682","0.41572","5"],
    [60715,"HCEP03730563","2025-09-20 20:15:00","11.2901","3.44513","26.193","1.972","7.43","0.553","5.21","0.28","0.28","30.2054","4.74665","21.79","0","SATNPRO1964","29.87","0.41838","5"],
    [60716,"HCEP03730563","2025-09-20 20:30:00","11.2966","3.44596","26.054","2.023","7.43","0.496","4.76","0.34","0.49","30.2082","4.74694","22.36","0","SATNPRO1964","29.752","0.4167","5"],
    [60717,"HCEP03730563","2025-09-20 20:45:00","11.2946","3.44583","25.88","2.004","7.43","0.398","4.877","0.05","0.34","30.2087","4.74704","22.15","0","SATNPRO1964","29.558","0.41402","5"],
    [60718,"HCEP03730563","2025-09-20 21:00:00","11.29","3.44539","25.723","1.966","7.43","0.416","5.225","0.18","0.5","30.2082","4.74701","21.73","0","SATNPRO1964","29.422","0.41208","5"],
    [60719,"HCEP03730563","2025-09-20 21:15:00","11.2869","3.44483","25.578","1.928","7.43","0.438","4.529","0.14","0.22","30.2054","4.74666","21.3","0","SATNPRO1964","29.114","0.4078","5"],
    [60720,"HCEP03730563","2025-09-20 21:30:00","11.2856","3.44458","25.423","1.933","7.43","0.403","4.525","0.13","0.29","30.2041","4.74648","21.36","0","SATNPRO1964","29.144","0.40822","5"],
    [60721,"HCEP03730563","2025-09-20 21:45:00","11.2871","3.44476","25.31","1.922","7.42","0.423","4.756","0.09","0.2","30.2047","4.74654","21.24","0","SATNPRO1964","29.282","0.41016","5"],
    [60722,"HCEP03730563","2025-09-20 22:00:00","11.287","3.44489","25.267","1.928","7.42","0.365","4.297","0.06","0.61","30.206","4.74673","21.31","0","SATNPRO1964","29.496","0.41316","5"],
    [60723,"HCEP03730563","2025-09-20 22:15:00","11.2871","3.44497","25.196","1.92","7.42","0.442","4.946","0.08","0.38","30.2067","4.74683","21.22","0","SATNPRO1964","29.582","0.41434","5"],
    [60724,"HCEP03730563","2025-09-20 22:30:00","11.287","3.44512","25.22","1.902","7.42","0.384","4.298","0.05","0.23","30.2083","4.74705","21.02","0","SATNPRO1964","29.426000000000002","0.41218","5"],
    [60725,"HCEP03730563","2025-09-20 22:45:00","11.2862","3.44519","25.245","1.892","7.42","0.545","4.858","0.37","0.49","30.2095","4.74724","20.9","0","SATNPRO1964","29.32","0.41066","5"],
    [60726,"HCEP03730563","2025-09-20 23:00:00","11.2867","3.44539","25.319","1.877","7.42","0.401","4.579","0.07","0.23","30.2111","4.74745","20.74","0","SATNPRO1964","29.32","0.41068","5"],
    [60727,"HCEP03730563","2025-09-20 23:15:00","11.2878","3.44557","25.426","1.872","7.42","0.41","4.803","0.07","0.29","30.2119","4.74756","20.68","0","SATNPRO1964","29.312","0.41058","5"],
    [60728,"HCEP03730563","2025-09-20 23:30:00","11.2865","3.4455","25.523","1.865","7.42","0.401","5.247","0.04","0.58","30.2122","4.74763","20.61","0","SATNPRO1964","29.162","0.4085","5"],
    [60729,"HCEP03730563","2025-09-20 23:45:00","11.2854","3.44553","25.652","1.831","7.42","0.417","4.905","0.07","0.89","30.2134","4.74782","20.23","0","SATNPRO1964","29.196","0.40888","5"],
    [60730,"HCEP03730563","2025-09-21 00:00:00","11.2853","3.44568","25.718","1.804","7.42","0.347","4.404","0.03","0.4","30.2149","4.74804","19.94","0","SATNPRO1964","29.105999999999998","0.40766","5"],
    [60731,"HCEP03730563","2025-09-21 00:15:00","11.2866","3.44592","25.853","1.803","7.42","0.373","4.583","0.03","0.49","30.2161","4.74819","19.93","0","SATNPRO1964","29.238","0.40954","5"],
    [60732,"HCEP03730563","2025-09-21 00:30:00","11.2879","3.44606","25.988","1.816","7.42","0.342","3.967","0.03","0.15","30.2163","4.74822","20.07","0","SATNPRO1964","29.322","0.4107","5"],
    [60733,"HCEP03730563","2025-09-21 00:45:00","11.288","3.44608","26.158","1.826","7.42","0.373","4.321","0.05","0.15","30.2165","4.74825","20.18","0","SATNPRO1964","29.34","0.41096","5"],
    [60734,"HCEP03730563","2025-09-21 01:00:00","11.2886","3.44618","26.259","1.82","7.42","0.338","4.034","0.02","0.21","30.2168","4.74829","20.11","0","SATNPRO1964","29.36","0.41126","5"],
    [60735,"HCEP03730563","2025-09-21 01:15:00","11.2899","3.44631","26.383","1.819","7.42","0.359","3.947","0.03","0.09","30.217","4.74831","20.11","0","SATNPRO1964","29.268","0.40996","5"],
    [60736,"HCEP03730563","2025-09-21 01:30:00","11.2911","3.44644","26.519","1.83","7.42","0.356","3.975","0.06","0.1","30.2172","4.74832","20.23","0","SATNPRO1964","29.248","0.40968","5"],
    [60737,"HCEP03730563","2025-09-21 01:45:00","11.2916","3.44649","26.722","1.814","7.42","0.356","4.015","0.02","0.12","30.2173","4.74834","20.05","0","SATNPRO1964","29.246","0.40968","5"],
    [60738,"HCEP03730563","2025-09-21 02:00:00","11.2921","3.44658","26.782","1.812","7.42","0.348","3.835","0.02","0.12","30.2177","4.74839","20.03","0","SATNPRO1964","29.195999999999998","0.40896","5"],
    [60739,"HCEP03730563","2025-09-21 02:15:00","11.2941","3.44673","26.863","1.825","7.42","0.401","4.155","0.05","0.16","30.2174","4.74833","20.17","0","SATNPRO1964","29.084","0.40736","5"],
    [60740,"HCEP03730563","2025-09-21 02:30:00","11.2944","3.44692","27.051","1.827","7.42","0.383","4.006","0.05","0.15","30.219","4.74855","20.19","0","SATNPRO1964","29.148","0.40824","5"],
    [60741,"HCEP03730563","2025-09-21 02:45:00","11.296","3.4471","27.2","1.833","7.42","0.431","4.128","0.05","0.22","30.2194","4.7486","20.26","0","SATNPRO1964","29.012","0.40638","5"],
    [60742,"HCEP03730563","2025-09-21 03:00:00","11.2966","3.44707","27.269","1.862","7.42","0.394","3.36","0.06","0.1","30.2186","4.74848","20.58","0","SATNPRO1964","29.34","0.41098","5"],
    [60743,"HCEP03730563","2025-09-21 03:15:00","11.297","3.4472","27.341","1.867","7.42","0.472","3.731","0.11","0.14","30.2195","4.74861","20.63","0","SATNPRO1964","29.23","0.40944","5"],
    [60744,"HCEP03730563","2025-09-21 03:30:00","11.2974","3.44725","27.449","1.859","7.42","0.409","3.623","0.05","0.14","30.2195","4.74861","20.55","0","SATNPRO1964","29.47","0.41276","5"],
    [60745,"HCEP03730563","2025-09-21 03:45:00","11.297","3.44709","27.463","1.862","7.42","0.428","3.777","0.06","0.14","30.2184","4.74846","20.59","0","SATNPRO1964","29.246","0.40966","5"],
    [60746,"HCEP03730563","2025-09-21 04:00:00","11.2964","3.44709","27.517","1.861","7.42","0.453","3.844","0.14","0.13","30.2188","4.74853","20.57","0","SATNPRO1964","29.164","0.4085","5"],
    [60747,"HCEP03730563","2025-09-21 04:15:00","11.2954","3.44692","27.485","1.845","7.42","0.497","3.958","0.18","0.17","30.218","4.74842","20.39","0","SATNPRO1964","29.076","0.4073","5"],
    [60748,"HCEP03730563","2025-09-21 04:30:00","11.2939","3.44672","27.458","1.831","7.42","0.49","3.962","0.28","0.2","30.2173","4.74835","20.24","0","SATNPRO1964","29.076","0.40724","5"],
    [60749,"HCEP03730563","2025-09-21 04:45:00","11.2927","3.4466","27.38","1.823","7.42","0.429","4.018","0.12","0.14","30.2171","4.74833","20.14","0","SATNPRO1964","29.073999999999998","0.40722","5"],
    [60750,"HCEP03730563","2025-09-21 05:00:00","11.2906","3.44644","27.328","1.8","7.41","0.399","4.607","0.09","0.22","30.2173","4.74838","19.89","0","SATNPRO1964","28.936","0.40528","5"],
    [60751,"HCEP03730563","2025-09-21 05:15:00","11.29","3.44651","27.264","1.761","7.41","0.543","5.198","0.21","0.37","30.2186","4.74857","19.46","0","SATNPRO1964","28.966","0.4057","5"],
    [60752,"HCEP03730563","2025-09-21 05:30:00","11.2889","3.44653","27.14","1.74","7.41","0.465","4.99","0.08","0.25","30.2196","4.74873","19.23","0","SATNPRO1964","29.048000000000002","0.40686","5"],
    [60753,"HCEP03730563","2025-09-21 05:45:00","11.2815","3.44575","27.027","1.693","7.4","0.483","5.553","0.08","0.26","30.2181","4.74863","18.71","0","SATNPRO1964","28.488","0.39902","5"],
    [60754,"HCEP03730563","2025-09-21 06:00:00","11.2765","3.44519","26.923","1.6","7.4","0.438","5.037","0.11","0.32","30.2168","4.74851","17.68","0","SATNPRO1964","28.102","0.39364","5"],
    [60755,"HCEP03730563","2025-09-21 06:15:00","11.274","3.4449","26.811","1.55","7.4","0.466","5.417","0.05","0.22","30.2162","4.74845","17.13","0","SATNPRO1964","28.392","0.3977","5"],
    [60756,"HCEP03730563","2025-09-21 06:30:00","11.2721","3.44465","26.697","1.524","7.39","0.958","5.179","1.16","0.51","30.2153","4.74835","16.83","0","SATNPRO1964","28.252000000000002","0.39572","5"],
    [60757,"HCEP03730563","2025-09-21 06:45:00","11.2703","3.44439","26.559","1.496","7.39","0.499","4.599","0.12","0.34","30.2143","4.74822","16.53","0","SATNPRO1964","28.002","0.39224","5"],
    [60758,"HCEP03730563","2025-09-21 07:00:00","11.2688","3.44418","26.418","1.487","7.39","0.669","4.541","0.62","0.39","30.2136","4.74814","16.42","0","SATNPRO1964","28.276","0.39604","5"],
    [60759,"HCEP03730563","2025-09-21 07:15:00","11.268","3.44411","26.293","1.481","7.39","0.691","4.924","0.61","0.66","30.2136","4.74814","16.35","0","SATNPRO1964","28.302","0.3964","5"],
    [60760,"HCEP03730563","2025-09-21 07:30:00","11.2676","3.44404","26.158","1.47","7.39","0.458","4.905","0.14","0.88","30.2133","4.74809","16.24","0","SATNPRO1964","27.956","0.39158","5"],
    [60761,"HCEP03730563","2025-09-21 07:45:00","11.2676","3.44398","25.966","1.462","7.39","0.511","5.227","0.1","0.62","30.2128","4.74801","16.15","0","SATNPRO1964","28.066","0.39314","5"],
    [60762,"HCEP03730563","2025-09-21 08:00:00","11.2671","3.44389","25.818","1.461","7.38","0.451","4.559","0.08","0.32","30.2124","4.74796","16.14","0","SATNPRO1964","27.778","0.3891","5"],
    [60763,"HCEP03730563","2025-09-21 08:15:00","11.2672","3.44389","25.645","1.468","7.38","0.547","4.333","0.13","0.37","30.2123","4.74794","16.21","0","SATNPRO1964","27.766","0.3889","5"],
    [60764,"HCEP03730563","2025-09-21 08:30:00","11.2678","3.44387","25.469","1.476","7.39","0.472","4.05","0.18","0.39","30.2118","4.74784","16.3","0","SATNPRO1964","28.034","0.39268","5"],
    [60765,"HCEP03730563","2025-09-21 08:45:00","11.2683","3.44401","25.306","1.487","7.39","0.434","3.978","0.06","0.18","30.2128","4.74797","16.43","0","SATNPRO1964","28.028","0.39262","5"],
    [60766,"HCEP03730563","2025-09-21 09:00:00","11.2673","3.44392","25.159","1.473","7.38","0.453","4.287","0.11","0.23","30.2127","4.74796","16.28","0","SATNPRO1964","28.084","0.39334","5"],
    [60767,"HCEP03730563","2025-09-21 09:15:00","11.2643","3.44341","25.044","1.453","7.38","0.464","4.185","0.05","0.26","30.2103","4.74766","16.04","0","SATNPRO1964","27.772","0.38896","5"],
    [60768,"HCEP03730563","2025-09-21 09:30:00","11.2594","3.44267","24.939","1.413","7.38","0.743","4.103","0.71","0.39","30.2071","4.74728","15.61","0","SATNPRO1964","27.152","0.3803","5"],
    [60769,"HCEP03730563","2025-09-21 09:45:00","11.2523","3.44162","24.798","1.343","7.37","0.662","4.612","0.15","0.3","30.2028","4.74677","14.83","0","SATNPRO1964","26.498","0.37114","5"],
    [60770,"HCEP03730563","2025-09-21 10:00:00","11.2431","3.44026","24.775","1.258","7.37","0.632","4.136","0.15","0.23","30.1971","4.74609","13.89","0","SATNPRO1964","26.04","0.36472","5"],
    [60771,"HCEP03730563","2025-09-21 10:15:00","11.2334","3.43872","24.696","1.195","7.36","0.582","3.982","0.12","0.4","30.19","4.74523","13.19","0","SATNPRO1964","25.652","0.3593","5"],
    [60772,"HCEP03730563","2025-09-21 10:30:00","11.2341","3.43855","24.716","1.158","7.36","0.614","3.573","0.1","0.2","30.1879","4.74491","12.78","0","SATNPRO1964","25.674","0.3596","5"],
    [60773,"HCEP03730563","2025-09-21 10:45:00","11.2363","3.43927","24.815","1.159","7.36","0.788","3.835","0.14","0.22","30.193","4.74562","12.79","0","SATNPRO1964","25.828","0.36176","5"],
    [60774,"HCEP03730563","2025-09-21 11:00:00","11.2374","3.43905","24.881","1.171","7.36","0.633","3.542","0.13","0.17","30.19","4.74517","12.92","0","SATNPRO1964","26.146","0.3662","5"],
    [60775,"HCEP03730563","2025-09-21 11:15:00","11.2399","3.43956","24.953","1.205","7.36","0.597","3.191","0.11","0.2","30.1928","4.74554","13.3","0","SATNPRO1964","26.592","0.37246","5"],
    [60776,"HCEP03730563","2025-09-21 11:30:00","11.2502","3.44091","25.073","1.282","7.37","0.558","3.309","0.08","0.26","30.1975","4.74606","14.16","0","SATNPRO1964","27.192","0.38086","5"],
    [60777,"HCEP03730563","2025-09-21 11:45:00","11.2577","3.44251","25.179","1.35","7.37","0.585","4.043","0.07","0.2","30.2068","4.74728","14.91","0","SATNPRO1964","27.422","0.38408","5"],
    [60778,"HCEP03730563","2025-09-21 12:00:00","11.2696","3.44428","25.333","1.395","7.37","0.582","4.617","0.07","0.28","30.2143","4.74817","15.41","0","SATNPRO1964","27.642","0.38716","5"],
    [60779,"HCEP03730563","2025-09-21 12:15:00","11.2718","3.4442","25.483","1.455","7.38","0.555","4.02","0.11","0.23","30.2116","4.74777","16.08","0","SATNPRO1964","28.444","0.39842","5"],
    [60780,"HCEP03730563","2025-09-21 12:30:00","11.2562","3.44092","25.531","1.552","7.39","0.419","2.614","0.05","0.16","30.1924","4.74528","17.13","0","SATNPRO1964","28.924","0.4051","5"],
    [60781,"HCEP03730563","2025-09-21 12:45:00","11.2746","3.44473","25.729","1.582","7.39","0.578","4.67","0.06","0.16","30.2144","4.74813","17.48","0","SATNPRO1964","28.19","0.39484","5"],
    [60782,"HCEP03730563","2025-09-21 13:00:00","11.276","3.44475","25.901","1.527","7.39","0.488","4.455","0.06","0.23","30.2133","4.74797","16.87","0","SATNPRO1964","28.094","0.39352","5"],
    [60783,"HCEP03730563","2025-09-21 13:15:00","11.2736","3.44399","26.065","1.531","7.39","0.538","4.287","0.11","0.18","30.2079","4.74724","16.91","0","SATNPRO1964","28.2","0.39494","5"],
    [60784,"HCEP03730563","2025-09-21 13:30:00","11.2743","3.44423","26.184","1.543","7.39","0.527","4.625","0.13","0.18","30.2096","4.74748","17.05","0","SATNPRO1964","28.088","0.3934","5"],
    [60785,"HCEP03730563","2025-09-21 13:45:00","11.2762","3.44446","26.405","1.543","7.39","0.533","4.707","0.12","0.24","30.2103","4.74756","17.04","0","SATNPRO1964","28.148","0.39428","5"],
    [60786,"HCEP03730563","2025-09-21 14:00:00","11.2765","3.44413","26.61","1.56","7.39","0.503","4.371","0.11","0.24","30.2067","4.74706","17.24","0","SATNPRO1964","28.066","0.39312","5"],
    [60787,"HCEP03730563","2025-09-21 14:15:00","11.273","3.44295","26.805","1.564","7.39","0.499","4.794","0.1","0.33","30.198","4.74588","17.28","0","SATNPRO1964","28.052","0.39292","5"],
    [60788,"HCEP03730563","2025-09-21 14:30:00","11.2662","3.44053","26.943","1.559","7.39","0.547","4.257","0.37","0.27","30.1799","4.74344","17.22","0","SATNPRO1964","27.944","0.39142","5"],
    [60789,"HCEP03730563","2025-09-21 14:45:00","11.2615","3.43904","27.081","1.614","7.39","0.458","3.113","0.08","0.17","30.1692","4.742","17.82","0","SATNPRO1964","28.560000000000002","0.40002","5"],
    [60790,"HCEP03730563","2025-09-21 15:00:00","11.2571","3.43872","27.258","1.64","7.39","0.464","3.13","0.11","0.28","30.1697","4.74214","18.11","0","SATNPRO1964","28.306","0.3965","5"],
    [60791,"HCEP03730563","2025-09-21 15:15:00","11.2607","3.4398","27.409","1.62","7.39","0.608","3.581","0.36","0.22","30.1772","4.74316","17.89","0","SATNPRO1964","28.17","0.39454","5"],
    [60792,"HCEP03730563","2025-09-21 15:30:00","11.2619","3.44064","27.546","1.598","7.39","0.462","3.759","0.12","0.46","30.1843","4.74416","17.65","0","SATNPRO1964","28.296","0.39634","5"],
    [60793,"HCEP03730563","2025-09-21 15:45:00","11.2617","3.44046","27.626","1.586","7.39","0.503","3.421","0.1","0.19","30.1827","4.74393","17.52","0","SATNPRO1964","28.212","0.39516","5"],
    [60794,"HCEP03730563","2025-09-21 16:00:00","11.2608","3.44044","27.725","1.6","7.39","0.426","3.03","0.1","0.19","30.1832","4.74403","17.67","0","SATNPRO1964","28.314","0.3966","5"],
    [60795,"HCEP03730563","2025-09-21 16:15:00","11.2596","3.44012","27.752","1.606","7.39","0.466","3.154","0.09","0.14","30.181","4.74372","17.74","0","SATNPRO1964","28.288","0.39624","5"],
    [60796,"HCEP03730563","2025-09-21 16:30:00","11.2556","3.4394","27.818","1.607","7.39","0.564","2.791","0.29","0.28","30.1773","4.74326","17.74","0","SATNPRO1964","28.392","0.39764","5"],
    [60797,"HCEP03730563","2025-09-21 16:45:00","11.2551","3.4391","27.788","1.607","7.39","0.609","2.812","0.6","0.14","30.1748","4.74292","17.74","0","SATNPRO1964","28.41","0.39792","5"],
    [60798,"HCEP03730563","2025-09-21 17:00:00","11.2484","3.43784","27.784","1.602","7.39","1.048","7.94","1.66","16.78","30.168","4.74206","17.69","0","SATNPRO1964","28.306","0.39652","5"],
    [60799,"HCEP03730563","2025-09-21 17:15:00","11.245","3.4372","27.746","1.589","7.39","0.606","2.517","0.48","0.14","30.1646","4.74162","17.54","0","SATNPRO1964","28.3","0.39642","5"],
    [60800,"HCEP03730563","2025-09-21 17:30:00","11.2419","3.43668","27.701","1.572","7.39","0.498","2.603","0.12","0.22","30.1621","4.74132","17.34","0","SATNPRO1964","28.248","0.39566","5"],
    [60801,"HCEP03730563","2025-09-21 17:45:00","11.2421","3.43656","27.625","1.54","7.39","0.62","2.582","0.2","0.23","30.1608","4.74112","17","0","SATNPRO1964","28.076","0.3933","5"],
    [60802,"HCEP03730563","2025-09-21 18:00:00","11.2478","3.43695","27.532","1.514","7.39","0.591","3.451","0.19","0.16","30.1599","4.74091","16.71","0","SATNPRO1964","27.66","0.3874","5"],
    [60803,"HCEP03730563","2025-09-21 18:15:00","11.25","3.43751","27.441","1.5","7.38","0.724","4.221","0.52","0.26","30.1637","4.7414","16.56","0","SATNPRO1964","27.508","0.3853","5"],
    [60804,"HCEP03730563","2025-09-21 18:30:00","11.2459","3.43729","27.342","1.465","7.38","0.785","4.775","0.24","0.35","30.1648","4.74162","16.17","0","SATNPRO1964","27.142","0.38018","5"],
    [60805,"HCEP03730563","2025-09-21 18:45:00","11.2302","3.43471","27.194","1.423","7.38","0.739","3.957","0.15","0.27","30.1527","4.74013","15.7","0","SATNPRO1964","27.472","0.3848","5"],
    [60806,"HCEP03730563","2025-09-21 19:00:00","11.2372","3.43612","27.037","1.399","7.38","0.757","4.856","0.22","0.32","30.1607","4.74115","15.43","0","SATNPRO1964","27.258","0.3818","5"],
    [60807,"HCEP03730563","2025-09-21 19:15:00","11.231","3.43497","26.927","1.359","7.37","0.627","4.451","0.09","0.22","30.1546","4.74037","14.99","0","SATNPRO1964","26.944","0.3774","5"],
    [60808,"HCEP03730563","2025-09-21 19:30:00","11.2349","3.4358","26.795","1.335","7.37","0.621","4.556","0.08","0.3","30.1596","4.74101","14.73","0","SATNPRO1964","27.086","0.37938","5"],
    [60809,"HCEP03730563","2025-09-21 19:45:00","11.2343","3.4358","26.684","1.343","7.37","0.616","4.145","0.09","0.19","30.1602","4.7411","14.82","0","SATNPRO1964","27.044","0.3788","5"],
    [60810,"HCEP03730563","2025-09-21 20:00:00","11.237","3.43672","26.463","1.346","7.37","0.605","4.216","0.19","0.15","30.1669","4.742","14.85","0","SATNPRO1964","27.282","0.38212","5"],
    [60811,"HCEP03730563","2025-09-21 20:15:00","11.2426","3.43786","26.328","1.36","7.37","0.641","4.714","0.11","0.29","30.1736","4.74285","15.01","0","SATNPRO1964","27.304","0.38246","5"],
    [60812,"HCEP03730563","2025-09-21 20:30:00","11.2444","3.43855","26.178","1.365","7.37","0.589","4.506","0.12","0.3","30.1789","4.74357","15.07","0","SATNPRO1964","27.354","0.38316","5"],
    [60813,"HCEP03730563","2025-09-21 20:45:00","11.2422","3.4375","25.987","1.354","7.37","0.638","4.359","0.22","0.45","30.1705","4.74241","14.95","0","SATNPRO1964","27.224","0.38134","5"],
    [60814,"HCEP03730563","2025-09-21 21:00:00","11.2469","3.43934","25.821","1.337","7.37","0.581","4.785","0.11","0.38","30.1846","4.74433","14.76","0","SATNPRO1964","27.236","0.38144","5"],
    [60815,"HCEP03730563","2025-09-21 21:15:00","11.249","3.44","25.643","1.337","7.37","0.573","4.741","0.11","0.47","30.1893","4.74495","14.76","0","SATNPRO1964","27.538","0.38572","5"],
    [60816,"HCEP03730563","2025-09-21 21:30:00","11.2499","3.44028","25.485","1.336","7.37","0.554","4.889","0.09","0.63","30.1914","4.74522","14.75","0","SATNPRO1964","27.394","0.38372","5"],
    [60817,"HCEP03730563","2025-09-21 21:45:00","11.2497","3.44041","25.376","1.329","7.37","0.517","4.591","0.08","0.3","30.1929","4.74543","14.67","0","SATNPRO1964","27.24","0.38156","5"],
    [60818,"HCEP03730563","2025-09-21 22:00:00","11.2482","3.44038","25.232","1.307","7.37","0.438","4.274","0.1","0.53","30.1938","4.74558","14.43","0","SATNPRO1964","27.23","0.38138","5"],
    [60819,"HCEP03730563","2025-09-21 22:15:00","11.247","3.44029","25.137","1.292","7.37","0.455","4.606","0.08","0.31","30.194","4.74561","14.27","0","SATNPRO1964","27.178","0.38066","5"],
    [60820,"HCEP03730563","2025-09-21 22:30:00","11.2459","3.44026","25.069","1.272","7.37","0.497","4.124","0.15","0.27","30.1947","4.74573","14.05","0","SATNPRO1964","27.174","0.38062","5"],
    [60821,"HCEP03730563","2025-09-21 22:45:00","11.2427","3.43978","25.064","1.244","7.36","0.525","3.904","0.21","0.2","30.1927","4.74549","13.73","0","SATNPRO1964","26.748","0.37464","5"],
    [60822,"HCEP03730563","2025-09-21 23:00:00","11.2394","3.43934","25.072","1.209","7.36","0.51","3.724","0.2","0.23","30.1911","4.74531","13.35","0","SATNPRO1964","26.91","0.37694","5"],
    [60823,"HCEP03730563","2025-09-21 23:15:00","11.2354","3.43873","25.106","1.18","7.36","0.539","3.389","0.35","0.19","30.1883","4.74498","13.03","0","SATNPRO1964","26.556","0.372","5"],
    [60824,"HCEP03730563","2025-09-21 23:30:00","11.2313","3.43802","25.181","1.154","7.36","0.528","3.405","0.26","0.47","30.1848","4.74454","12.74","0","SATNPRO1964","26.472","0.37084","5"],
    [60825,"HCEP03730563","2025-09-21 23:45:00","11.228","3.43759","25.242","1.131","7.35","0.52","3.54","0.15","0.2","30.1833","4.74439","12.48","0","SATNPRO1964","26.14","0.36608","5"],
    [60826,"HCEP03730563","2025-09-22 00:00:00","11.2271","3.43739","25.314","1.112","7.35","0.465","3.528","0.13","0.43","30.182","4.74423","12.27","0","SATNPRO1964","26.13","0.36602","5"],
    [60827,"HCEP03730563","2025-09-22 00:15:00","11.2244","3.43697","25.408","1.098","7.35","0.462","3.362","0.06","0.14","30.1801","4.744","12.12","0","SATNPRO1964","26.308","0.3685","5"],
    [60828,"HCEP03730563","2025-09-22 00:30:00","11.2263","3.43728","25.522","1.09","7.35","0.448","3.799","0.18","0.71","30.1815","4.74417","12.03","0","SATNPRO1964","26.188","0.36684","5"],
    [60829,"HCEP03730563","2025-09-22 00:45:00","11.2291","3.43774","25.661","1.096","7.35","0.453","3.408","0.18","0.17","30.1836","4.74444","12.09","0","SATNPRO1964","26.318","0.36862","5"],
    [60830,"HCEP03730563","2025-09-22 01:00:00","11.2279","3.43765","25.8","1.104","7.35","0.422","3.378","0.11","0.32","30.1837","4.74448","12.19","0","SATNPRO1964","26.416","0.37","5"],
    [60831,"HCEP03730563","2025-09-22 01:15:00","11.2308","3.43776","25.936","1.11","7.35","0.55","3.381","0.23","0.19","30.1823","4.74425","12.25","0","SATNPRO1964","26.33","0.36882","5"],
    [60832,"HCEP03730563","2025-09-22 01:30:00","11.2317","3.43826","26.074","1.113","7.35","0.49","3.325","0.26","0.11","30.1864","4.74481","12.28","0","SATNPRO1964","26.674","0.37362","5"],
    [60833,"HCEP03730563","2025-09-22 01:45:00","11.2388","3.43904","26.217","1.122","7.35","0.522","3.919","0.09","0.28","30.1882","4.74497","12.38","0","SATNPRO1964","26.37","0.36938","5"],
    [60834,"HCEP03730563","2025-09-22 02:00:00","11.2404","3.43948","26.364","1.132","7.35","0.609","3.597","0.38","0.13","30.1911","4.74537","12.49","0","SATNPRO1964","26.529999999999998","0.37162","5"],
    [60835,"HCEP03730563","2025-09-22 02:15:00","11.243","3.43992","26.509","1.145","7.35","0.569","4.529","0.11","0.13","30.1931","4.74563","12.64","0","SATNPRO1964","26.404","0.36982","5"],
    [60836,"HCEP03730563","2025-09-22 02:30:00","11.2458","3.44026","26.658","1.16","7.35","0.489","4.096","0.07","0.22","30.1942","4.74575","12.81","0","SATNPRO1964","26.476","0.37082","5"],
    [60837,"HCEP03730563","2025-09-22 02:45:00","11.2488","3.44067","26.784","1.179","7.35","0.663","4.502","0.55","0.26","30.1956","4.7459","13.02","0","SATNPRO1964","26.580000000000002","0.37228","5"],
    [60838,"HCEP03730563","2025-09-22 03:00:00","11.2512","3.44097","26.944","1.199","7.36","0.549","4.419","0.28","0.4","30.1965","4.746","13.24","0","SATNPRO1964","27.018","0.37844","5"],
    [60839,"HCEP03730563","2025-09-22 03:15:00","11.252","3.4411","27.068","1.225","7.36","0.481","4.289","0.05","0.11","30.197","4.74608","13.52","0","SATNPRO1964","27.056","0.37892","5"],
    [60840,"HCEP03730563","2025-09-22 03:30:00","11.2524","3.44109","27.188","1.247","7.36","0.473","4.14","0.09","0.2","30.1967","4.74603","13.77","0","SATNPRO1964","26.983999999999998","0.37792","5"],
    [60841,"HCEP03730563","2025-09-22 03:45:00","11.2524","3.44107","27.304","1.254","7.36","0.447","3.8","0.05","0.07","30.1964","4.746","13.85","0","SATNPRO1964","27.108","0.37968","5"],
    [60842,"HCEP03730563","2025-09-22 04:00:00","11.2516","3.44097","27.408","1.25","7.36","0.455","3.742","0.07","0.1","30.196","4.74595","13.8","0","SATNPRO1964","26.716","0.3742","5"],
    [60843,"HCEP03730563","2025-09-22 04:15:00","11.2514","3.44092","27.477","1.25","7.36","0.497","4.364","0.11","0.5","30.1956","4.74591","13.8","0","SATNPRO1964","27.204","0.38104","5"],
    [60844,"HCEP03730563","2025-09-22 04:30:00","11.2502","3.44077","27.517","1.243","7.36","0.463","4.07","0.06","0.17","30.1951","4.74585","13.72","0","SATNPRO1964","26.822","0.37566","5"],
    [60845,"HCEP03730563","2025-09-22 04:45:00","11.2484","3.44048","27.552","1.23","7.36","0.432","3.835","0.04","0.13","30.1937","4.74569","13.58","0","SATNPRO1964","26.82","0.37564","5"],
    [60846,"HCEP03730563","2025-09-22 05:00:00","11.2465","3.44013","27.542","1.229","7.36","0.442","3.509","0.16","0.45","30.192","4.74547","13.57","0","SATNPRO1964","27.466","0.3847","5"],
    [60847,"HCEP03730563","2025-09-22 05:15:00","11.2443","3.43971","27.516","1.25","7.36","0.403","3.23","0.13","0.42","30.1896","4.74516","13.8","0","SATNPRO1964","27.41","0.38394","5"],
    [60848,"HCEP03730563","2025-09-22 05:30:00","11.2432","3.43923","27.481","1.27","7.36","0.351","2.74","0.05","0.08","30.1858","4.74465","14.02","0","SATNPRO1964","27.392","0.38368","5"],
    [60849,"HCEP03730563","2025-09-22 05:45:00","11.2431","3.43865","27.429","1.285","7.36","0.414","3.059","0.15","0.17","30.1804","4.74388","14.19","0","SATNPRO1964","27.21","0.38112","5"],
    [60850,"HCEP03730563","2025-09-22 06:00:00","11.2423","3.43885","27.363","1.283","7.36","0.52","3.327","0.28","0.18","30.1829","4.74424","14.16","0","SATNPRO1964","27.166","0.3805","5"],
    [60851,"HCEP03730563","2025-09-22 06:15:00","11.2422","3.43845","27.272","1.272","7.36","0.615","3.76","0.47","0.24","30.1792","4.74371","14.03","0","SATNPRO1964","26.938","0.37732","5"],
    [60852,"HCEP03730563","2025-09-22 06:30:00","11.2426","3.43865","27.176","1.249","7.36","0.51","4.175","0.14","0.2","30.1808","4.74393","13.78","0","SATNPRO1964","26.808","0.3755","5"],
    [60853,"HCEP03730563","2025-09-22 06:45:00","11.2284","3.43609","27.061","1.209","7.36","0.597","4.061","0.27","0.22","30.1676","4.74227","13.34","0","SATNPRO1964","25.892","0.36264","5"],
    [60854,"HCEP03730563","2025-09-22 07:00:00","11.2172","3.43434","26.936","1.174","7.35","0.624","4.043","0.54","1.27","30.1598","4.74132","12.96","0","SATNPRO1964","25.358","0.35518","5"],
    [60855,"HCEP03730563","2025-09-22 07:15:00","11.2004","3.43153","26.804","1.136","7.35","1.103","3.613","1.83","0.73","30.1462","4.73963","12.53","0","SATNPRO1964","25.478","0.35688","5"],
    [60856,"HCEP03730563","2025-09-22 07:30:00","11.2048","3.43247","26.68","1.088","7.35","0.568","3.141","0.36","0.11","30.1518","4.74035","12","0","SATNPRO1964","25.792","0.3613","5"],
    [60857,"HCEP03730563","2025-09-22 07:45:00","11.2126","3.43391","26.554","1.091","7.35","0.72","3.501","0.56","0.14","30.1595","4.74132","12.03","0","SATNPRO1964","26.068","0.36512","5"],
    [60858,"HCEP03730563","2025-09-22 08:00:00","11.2276","3.43628","26.41","1.119","7.35","0.666","3.656","0.62","0.12","30.1703","4.74262","12.35","0","SATNPRO1964","26.68","0.37376","5"],
    [60859,"HCEP03730563","2025-09-22 08:15:00","11.2327","3.4373","26.263","1.149","7.35","0.496","3.931","0.21","0.18","30.1762","4.74338","12.68","0","SATNPRO1964","26.828","0.3758","5"],
    [60860,"HCEP03730563","2025-09-22 08:30:00","11.2161","3.43498","26.108","1.164","7.35","0.572","3.71","0.27","0.25","30.1673","4.74235","12.84","0","SATNPRO1964","26.51","0.3713","5"],
    [60861,"HCEP03730563","2025-09-22 08:45:00","11.2335","3.43796","25.931","1.136","7.35","0.66","3.978","0.78","0.15","30.1821","4.74417","12.54","0","SATNPRO1964","26.476","0.37082","5"],
    [60862,"HCEP03730563","2025-09-22 09:00:00","11.2327","3.43792","25.763","1.114","7.35","0.505","3.998","0.13","0.16","30.1824","4.74423","12.3","0","SATNPRO1964","26.222","0.36728","5"],
    [60863,"HCEP03730563","2025-09-22 09:15:00","11.2306","3.43787","25.604","1.083","7.35","0.633","4.238","0.4","0.22","30.1837","4.74443","11.95","0","SATNPRO1964","25.912","0.36294","5"],
    [60864,"HCEP03730563","2025-09-22 09:30:00","11.2293","3.43777","25.446","1.035","7.34","0.603","4.137","0.22","0.24","30.1838","4.74446","11.43","0","SATNPRO1964","25.842","0.36196","5"],
    [60865,"HCEP03730563","2025-09-22 09:45:00","11.2259","3.4372","25.288","1.001","7.34","0.927","4.466","0.99","0.39","30.1812","4.74412","11.04","0","SATNPRO1964","25.69","0.35982","5"],
    [60866,"HCEP03730563","2025-09-22 10:00:00","11.2233","3.43684","25.16","0.988","7.34","0.63","4.233","0.34","0.39","30.1799","4.74397","10.9","0","SATNPRO1964","25.46","0.35662","5"],
    [60867,"HCEP03730563","2025-09-22 10:15:00","11.2216","3.43663","25.06","0.953","7.34","0.572","3.847","0.14","0.17","30.1792","4.74389","10.52","0","SATNPRO1964","25.466","0.35668","5"],
    [60868,"HCEP03730563","2025-09-22 10:30:00","11.2191","3.43633","24.985","0.924","7.33","0.52","3.511","0.17","0.16","30.1783","4.7438","10.19","0","SATNPRO1964","25.066","0.35108","5"],
    [60869,"HCEP03730563","2025-09-22 10:45:00","11.2186","3.43623","24.977","0.902","7.33","0.523","3.557","0.07","0.15","30.1778","4.74374","9.95","0","SATNPRO1964","25.221999999999998","0.35326","5"],
    [60870,"HCEP03730563","2025-09-22 11:00:00","11.2174","3.43592","24.992","0.887","7.33","0.61","3.532","0.18","0.15","30.1757","4.74346","9.78","0","SATNPRO1964","25.078","0.35126","5"],
    [60871,"HCEP03730563","2025-09-22 11:15:00","11.2137","3.43549","25.022","0.877","7.33","0.591","3.17","0.08","0.09","30.1747","4.74337","9.68","0","SATNPRO1964","25.372","0.35538","5"],
    [60872,"HCEP03730563","2025-09-22 11:30:00","11.2176","3.43614","25.076","0.868","7.33","0.471","3.264","0.05","0.13","30.1777","4.74375","9.58","0","SATNPRO1964","24.654","0.34532","5"],
    [60873,"HCEP03730563","2025-09-22 11:45:00","11.2183","3.43634","25.165","0.86","7.33","0.604","3.281","0.25","0.19","30.179","4.74393","9.49","0","SATNPRO1964","25.17","0.35254","5"],
    [60874,"HCEP03730563","2025-09-22 12:00:00","11.2173","3.43611","25.258","0.859","7.33","0.515","3.158","0.09","0.24","30.1776","4.74374","9.48","0","SATNPRO1964","24.938","0.3493","5"],
    [60875,"HCEP03730563","2025-09-22 12:15:00","11.2181","3.43626","25.365","0.857","7.33","0.619","3.115","0.41","0.13","30.1784","4.74384","9.46","0","SATNPRO1964","25.02","0.35042","5"],
    [60876,"HCEP03730563","2025-09-22 12:30:00","11.2153","3.43571","25.485","0.861","7.33","0.631","2.97","0.26","0.12","30.1752","4.74345","9.5","0","SATNPRO1964","25.086","0.35134","5"],
    [60877,"HCEP03730563","2025-09-22 12:45:00","11.2144","3.43554","25.628","0.865","7.33","0.538","3.152","0.1","0.19","30.1743","4.74334","9.54","0","SATNPRO1964","25.291999999999998","0.35424","5"],
    [60878,"HCEP03730563","2025-09-22 13:00:00","11.2178","3.43615","25.765","0.876","7.33","0.55","2.99","0.14","0.12","30.1774","4.74374","9.66","0","SATNPRO1964","25.15","0.35226","5"],
    [60879,"HCEP03730563","2025-09-22 13:15:00","11.2175","3.43604","25.911","0.886","7.33","0.539","3.083","0.1","0.09","30.1765","4.74362","9.78","0","SATNPRO1964","25.296","0.35426","5"],
    [60880,"HCEP03730563","2025-09-22 13:30:00","11.217","3.43594","26.06","0.897","7.33","0.593","2.99","0.16","0.15","30.1759","4.74355","9.89","0","SATNPRO1964","25.402","0.3558","5"],
    [60881,"HCEP03730563","2025-09-22 13:45:00","11.2157","3.43601","26.237","0.891","7.33","0.739","3.306","0.36","0.14","30.1775","4.74381","9.82","0","SATNPRO1964","24.998","0.35014","5"],
    [60882,"HCEP03730563","2025-09-22 14:00:00","11.2166","3.43575","26.372","0.863","7.33","0.823","3.295","0.8","0.19","30.1742","4.74333","9.52","0","SATNPRO1964","24.928","0.34914","5"],
    [60883,"HCEP03730563","2025-09-22 14:15:00","11.2153","3.43547","26.545","0.843","7.32","0.756","3.349","0.13","0.12","30.1725","4.74312","9.3","0","SATNPRO1964","24.748","0.34668","5"],
    [60884,"HCEP03730563","2025-09-22 14:30:00","11.2099","3.43471","26.703","0.827","7.32","0.944","3.287","0.8","0.25","30.1694","4.74278","9.12","0","SATNPRO1964","24.416","0.34206","5"],
    [60885,"HCEP03730563","2025-09-22 14:45:00","11.2113","3.43502","26.886","0.817","7.32","0.742","3.246","0.2","0.17","30.1712","4.74302","9.02","0","SATNPRO1964","24.582","0.34434","5"],
    [60886,"HCEP03730563","2025-09-22 15:00:00","11.213","3.43523","27.031","0.83","7.32","0.841","3.37","0.69","0.23","30.1718","4.74309","9.16","0","SATNPRO1964","25.464","0.35666","5"],
    [60887,"HCEP03730563","2025-09-22 15:15:00","11.2155","3.43533","27.2","0.855","7.32","0.71","3.532","0.14","0.27","30.1706","4.74289","9.44","0","SATNPRO1964","27.574","0.3862","5"],
    [60888,"HCEP03730563","2025-09-22 15:30:00","11.2113","3.43378","27.331","0.882","7.33","0.728","3.584","0.24","0.23","30.1589","4.7413","9.73","0","SATNPRO1964","40.6175","0.568925","5"],
    [60889,"HCEP03730563","2025-09-22 15:45:00","11.2199","3.43616","27.449","0.897","7.33","0.7","3.492","0.23","0.17","30.1751","4.74347","9.9","0","SATNPRO1964","50.21","0.703275","5"],
    [60890,"HCEP03730563","2025-09-22 16:00:00","11.2175","3.4355","27.567","0.933","7.33","0.625","3.351","0.17","0.23","30.1706","4.74287","10.3","0","SATNPRO1964","13.625","0.19085","5"],
    [60891,"HCEP03730563","2025-09-22 16:15:00","11.2076","3.43365","27.662","0.94","7.33","0.627","3.202","0.25","0.31","30.1606","4.74161","10.37","0","SATNPRO1964","26.624","0.37292","5"],
    [60892,"HCEP03730563","2025-09-22 16:30:00","11.1757","3.42778","27.725","0.909","7.33","0.455","2.45","0.17","0.18","30.1295","4.73769","10.02","0","SATNPRO1964","25.17","0.35254","5"],
    [60893,"HCEP03730563","2025-09-22 16:45:00","11.1748","3.42726","27.755","0.85","7.32","0.433","2.411","0.08","0.1","30.1251","4.73708","9.36","0","SATNPRO1964","25.826","0.36176","5"],
    [60894,"HCEP03730563","2025-09-22 17:00:00","11.1729","3.42739","27.75","0.838","7.32","0.485","2.725","0.16","0.16","30.128","4.73751","9.24","0","SATNPRO1964","26.36","0.3692","5"],
    [60895,"HCEP03730563","2025-09-22 17:15:00","11.1759","3.42814","27.711","0.847","7.32","0.566","2.885","0.15","0.33","30.1328","4.73815","9.33","0","SATNPRO1964","26.162","0.36644","5"],
    [60896,"HCEP03730563","2025-09-22 17:30:00","11.2157","3.43514","27.671","0.908","7.33","0.739","3.663","0.59","0.23","30.1685","4.74261","10.02","0","SATNPRO1964","27.326","0.38278","5"],
    [60897,"HCEP03730563","2025-09-22 17:45:00","11.2231","3.43523","27.621","0.997","7.33","0.667","3.805","0.12","0.26","30.1633","4.74177","11","0","SATNPRO1964","27.33","0.38282","5"],
    [60898,"HCEP03730563","2025-09-22 18:00:00","11.2299","3.43697","27.584","1.017","7.34","0.949","3.948","0.98","0.51","30.1748","4.74328","11.23","0","SATNPRO1964","27.828","0.38978","5"],
    [60899,"HCEP03730563","2025-09-22 18:15:00","11.2379","3.43799","27.495","1.049","7.34","0.555","4.017","0.08","0.22","30.1782","4.74364","11.58","0","SATNPRO1964","27.366","0.38328","5"],
    [60900,"HCEP03730563","2025-09-22 18:30:00","11.2395","3.43806","27.389","1.062","7.34","0.653","4.54","0.13","0.22","30.1776","4.74353","11.72","0","SATNPRO1964","27.246","0.38164","5"],
    [60901,"HCEP03730563","2025-09-22 18:45:00","11.2354","3.43737","27.264","1.069","7.34","0.543","3.93","0.07","0.24","30.1743","4.74311","11.8","0","SATNPRO1964","27.332","0.38282","5"],
    [60902,"HCEP03730563","2025-09-22 19:00:00","11.2159","3.43351","27.135","1.061","7.34","0.507","3.36","0.12","0.17","30.1526","4.74033","11.7","0","SATNPRO1964","26.738","0.37448","5"],
    [60903,"HCEP03730563","2025-09-22 19:15:00","11.1917","3.43062","26.996","1.003","7.34","0.457","2.791","0.08","0.15","30.1444","4.73951","11.05","0","SATNPRO1964","26.432","0.3702","5"],
    [60904,"HCEP03730563","2025-09-22 19:30:00","11.2147","3.43406","26.858","0.989","7.34","0.525","4.125","0.09","0.29","30.1591","4.74125","10.91","0","SATNPRO1964","26.782","0.37512","5"],
    [60905,"HCEP03730563","2025-09-22 19:45:00","11.2419","3.43817","26.729","1.035","7.34","0.614","4.55","0.14","0.17","30.1769","4.74336","11.42","0","SATNPRO1964","26.43","0.37016","5"],
    [60906,"HCEP03730563","2025-09-22 20:00:00","11.2388","3.43738","26.574","1.064","7.34","0.57","4.775","0.16","0.62","30.1718","4.74267","11.74","0","SATNPRO1964","27.088","0.37942","5"],
    [60907,"HCEP03730563","2025-09-22 20:15:00","11.2411","3.43758","26.419","1.081","7.34","0.685","4.42","0.25","0.21","30.172","4.74266","11.93","0","SATNPRO1964","26.483999999999998","0.37096","5"],
    [60908,"HCEP03730563","2025-09-22 20:30:00","11.2445","3.43834","26.251","1.082","7.34","0.665","5.152","0.12","0.29","30.1766","4.74325","11.94","0","SATNPRO1964","26.296","0.36834","5"],
    [60909,"HCEP03730563","2025-09-22 20:45:00","11.2438","3.43854","26.074","1.074","7.34","0.664","4.635","0.17","0.24","30.1792","4.74361","11.86","0","SATNPRO1964","26.312","0.36856","5"],
    [60910,"HCEP03730563","2025-09-22 21:00:00","11.2441","3.43881","25.885","1.075","7.34","0.635","4.447","0.18","0.35","30.1817","4.74396","11.87","0","SATNPRO1964","26.47","0.37074","5"],
    [60911,"HCEP03730563","2025-09-22 21:15:00","11.2468","3.43941","25.708","1.091","7.35","0.511","3.931","0.04","0.24","30.1855","4.74444","12.04","0","SATNPRO1964","26.792","0.37524","5"],
    [60912,"HCEP03730563","2025-09-22 21:30:00","11.2469","3.4395","25.528","1.11","7.35","0.6","4.107","0.24","0.23","30.1863","4.74455","12.25","0","SATNPRO1964","26.964","0.3777","5"],
    [60913,"HCEP03730563","2025-09-22 21:45:00","11.2488","3.43985","25.349","1.127","7.35","0.519","3.982","0.07","0.23","30.1882","4.74478","12.44","0","SATNPRO1964","27.176","0.38068","5"],
    [60914,"HCEP03730563","2025-09-22 22:00:00","11.2515","3.44033","25.179","1.147","7.35","0.486","3.615","0.05","0.1","30.1907","4.74508","12.67","0","SATNPRO1964","27.104","0.37964","5"],
    [60915,"HCEP03730563","2025-09-22 22:15:00","11.2574","3.44115","25.025","1.18","7.35","0.855","3.97","1.39","0.27","30.194","4.74545","13.03","0","SATNPRO1964","27.282","0.38216","5"],
    [60916,"HCEP03730563","2025-09-22 22:30:00","11.2613","3.44148","24.9","1.222","7.36","0.531","3.673","0.08","0.24","30.194","4.74538","13.5","0","SATNPRO1964","28.158","0.3944","5"],
    [60917,"HCEP03730563","2025-09-22 22:45:00","11.2629","3.44165","24.813","1.261","7.36","0.684","3.791","0.29","0.45","30.1943","4.7454","13.93","0","SATNPRO1964","27.983999999999998","0.39196","5"],
    [60918,"HCEP03730563","2025-09-22 23:00:00","11.2667","3.44194","24.768","1.27","7.36","0.61","3.57","0.38","0.15","30.1942","4.74532","14.02","0","SATNPRO1964","28.104","0.3936","5"],
    [60919,"HCEP03730563","2025-09-22 23:15:00","11.2834","3.44366","24.749","1.31","7.37","0.801","3.632","0.94","0.13","30.1972","4.74551","14.47","0","SATNPRO1964","28.404","0.39784","5"],
    [60920,"HCEP03730563","2025-09-22 23:30:00","11.3141","3.44661","24.767","1.462","7.38","0.595","3.354","0.28","0.37","30.2008","4.74556","16.17","0","SATNPRO1964","28.53","0.3996","5"],
    [60921,"HCEP03730563","2025-09-22 23:45:00","11.3244","3.44747","24.806","1.661","7.39","0.606","2.964","0.47","0.08","30.2007","4.7454","18.37","0","SATNPRO1964","28.966","0.4057","5"],
    [60922,"HCEP03730563","2025-09-23 00:00:00","11.2557","3.43722","24.861","1.655","7.39","1.064","3.26","0.8","0.15","30.1572","4.74025","18.28","0","SATNPRO1964","29.572","0.41424","5"],
    [60923,"HCEP03730563","2025-09-23 00:15:00","11.2998","3.44411","24.941","1.563","7.39","0.686","3.334","0.24","0.12","30.1881","4.74398","17.27","0","SATNPRO1964","29.252","0.40972","5"],
    [60924,"HCEP03730563","2025-09-23 00:30:00","11.2749","3.44255","25.039","1.535","7.38","0.442","3.326","0.1","0.18","30.1932","4.74508","16.96","0","SATNPRO1964","27.464","0.38466","5"],
    [60925,"HCEP03730563","2025-09-23 00:45:00","11.2694","3.44168","25.171","1.372","7.37","0.601","4.064","0.28","0.22","30.1892","4.7446","15.15","0","SATNPRO1964","27.092","0.37944","5"],
    [60926,"HCEP03730563","2025-09-23 01:00:00","11.2621","3.44141","25.31","1.272","7.37","0.539","3.928","0.1","0.29","30.1925","4.74519","14.04","0","SATNPRO1964","26.758","0.37476","5"],
    [60927,"HCEP03730563","2025-09-23 01:15:00","11.2574","3.44105","25.455","1.212","7.36","0.58","6.128","0.13","2.62","30.1928","4.74531","13.38","0","SATNPRO1964","26.542","0.37174","5"],
    [60928,"HCEP03730563","2025-09-23 01:30:00","11.2658","3.44196","25.605","1.179","7.36","0.557","3.739","0.18","0.27","30.1947","4.74545","13.03","0","SATNPRO1964","26.95","0.3775","5"],
    [60929,"HCEP03730563","2025-09-23 01:45:00","11.2905","3.44594","25.724","1.263","7.37","0.556","3.783","0.11","0.2","30.2131","4.74771","13.96","0","SATNPRO1964","28.028","0.39254","5"],
    [60930,"HCEP03730563","2025-09-23 02:00:00","11.3224","3.44904","25.878","1.472","7.38","0.543","3.448","0.09","0.17","30.2172","4.74782","16.28","0","SATNPRO1964","28.284","0.39618","5"],
    [60931,"HCEP03730563","2025-09-23 02:15:00","11.3369","3.45016","26.034","1.645","7.39","0.573","3.46","0.09","0.21","30.2161","4.74746","18.2","0","SATNPRO1964","28.716","0.40224","5"],
    [60932,"HCEP03730563","2025-09-23 02:30:00","11.3301","3.44968","26.184","1.716","7.4","0.592","3.816","0.09","0.19","30.217","4.74769","18.99","0","SATNPRO1964","28.666","0.40154","5"],
    [60933,"HCEP03730563","2025-09-23 02:45:00","11.3351","3.45033","26.338","1.708","7.4","0.678","4.004","0.23","0.38","30.2191","4.74793","18.89","0","SATNPRO1964","28.674","0.40164","5"],
    [60934,"HCEP03730563","2025-09-23 03:00:00","11.3478","3.45175","26.491","1.743","7.4","0.692","3.729","0.11","0.28","30.2224","4.74822","19.28","0","SATNPRO1964","28.726","0.40232","5"],
    [60935,"HCEP03730563","2025-09-23 03:15:00","11.3492","3.45197","26.655","1.79","7.41","0.816","3.965","0.45","0.28","30.2234","4.74834","19.81","0","SATNPRO1964","29.224","0.40936","5"],
    [60936,"HCEP03730563","2025-09-23 03:30:00","11.3515","3.45227","26.812","1.8","7.41","0.89","3.872","0.43","0.3","30.2244","4.74846","19.92","0","SATNPRO1964","29.022","0.40648","5"],
    [60937,"HCEP03730563","2025-09-23 03:45:00","11.3535","3.45245","26.945","1.813","7.41","0.719","4.202","0.13","0.38","30.2245","4.74845","20.07","0","SATNPRO1964","29.105999999999998","0.40768","5"],
    [60938,"HCEP03730563","2025-09-23 04:00:00","11.3524","3.45237","27.08","1.818","7.41","0.804","4.121","0.22","0.42","30.2244","4.74846","20.13","0","SATNPRO1964","29.128","0.40802","5"],
    [60939,"HCEP03730563","2025-09-23 04:15:00","11.3514","3.4522","27.194","1.818","7.41","0.874","4.188","0.3","0.41","30.2236","4.74837","20.12","0","SATNPRO1964","29.25","0.40968","5"],
    [60940,"HCEP03730563","2025-09-23 04:30:00","11.3472","3.45155","27.311","1.809","7.41","0.91","5.025","0.19","0.87","30.2207","4.74803","20.02","0","SATNPRO1964","29.05","0.4069","5"],
    [60941,"HCEP03730563","2025-09-23 04:45:00","11.3394","3.4506","27.415","1.779","7.41","0.782","4.108","0.16","0.23","30.2178","4.74773","19.68","0","SATNPRO1964","28.612","0.40074","5"],
    [60942,"HCEP03730563","2025-09-23 05:00:00","11.34","3.45067","27.488","1.748","7.41","0.832","4.281","0.24","0.32","30.218","4.74776","19.34","0","SATNPRO1964","28.89","0.4046","5"],
    [60943,"HCEP03730563","2025-09-23 05:15:00","11.3438","3.45115","27.523","1.748","7.41","0.755","4.163","0.13","0.25","30.2195","4.74792","19.34","0","SATNPRO1964","28.876","0.40442","5"],
    [60944,"HCEP03730563","2025-09-23 05:30:00","11.3436","3.4512","27.553","1.761","7.41","0.683","3.837","0.16","0.25","30.2201","4.74801","19.49","0","SATNPRO1964","28.876","0.4045","5"],
    [60945,"HCEP03730563","2025-09-23 05:45:00","11.3443","3.45127","27.538","1.758","7.41","0.97","3.854","1.48","0.36","30.2202","4.74802","19.46","0","SATNPRO1964","28.748","0.40264","5"],
    [60946,"HCEP03730563","2025-09-23 06:00:00","11.345","3.45133","27.504","1.763","7.41","0.685","3.568","0.19","0.2","30.2203","4.74802","19.5","0","SATNPRO1964","28.976","0.40584","5"],
    [60947,"HCEP03730563","2025-09-23 06:15:00","11.3471","3.45159","27.457","1.768","7.41","0.688","3.519","0.09","0.09","30.2211","4.7481","19.57","0","SATNPRO1964","29.1","0.40764","5"],
    [60948,"HCEP03730563","2025-09-23 06:30:00","11.3458","3.45136","27.399","1.766","7.41","0.634","3.337","0.1","0.2","30.2199","4.74795","19.54","0","SATNPRO1964","28.98","0.40594","5"],
    [60949,"HCEP03730563","2025-09-23 06:45:00","11.3456","3.45125","27.331","1.772","7.41","0.785","4.354","0.13","0.26","30.2191","4.74783","19.6","0","SATNPRO1964","28.992","0.4061","5"],
    [60950,"HCEP03730563","2025-09-23 07:00:00","11.3439","3.45115","27.243","1.77","7.41","0.441","2.816","0.06","0.11","30.2195","4.7479","19.58","0","SATNPRO1964","28.982","0.40592","5"],
    [60951,"HCEP03730563","2025-09-23 07:15:00","11.3426","3.45094","27.162","1.758","7.41","0.601","3.275","0.12","0.12","30.2186","4.74779","19.45","0","SATNPRO1964","28.954","0.40556","5"],
    [60952,"HCEP03730563","2025-09-23 07:30:00","11.3434","3.45113","27.053","1.751","7.41","0.51","2.677","0.05","0.13","30.2198","4.74795","19.37","0","SATNPRO1964","29.076","0.40726","5"],
    [60953,"HCEP03730563","2025-09-23 07:45:00","11.3354","3.45007","26.953","1.735","7.41","1.082","3.159","0.98","0.12","30.2161","4.74753","19.2","0","SATNPRO1964","28.6","0.40062","5"],
    [60954,"HCEP03730563","2025-09-23 08:00:00","11.3352","3.45007","26.827","1.71","7.4","0.516","3.124","0.08","0.22","30.2163","4.74755","18.92","0","SATNPRO1964","28.72","0.40224","5"],
    [60955,"HCEP03730563","2025-09-23 08:15:00","11.3359","3.45012","26.705","1.704","7.4","0.52","2.963","0.07","0.08","30.2163","4.74754","18.85","0","SATNPRO1964","28.636","0.40106","5"],
    [60956,"HCEP03730563","2025-09-23 08:30:00","11.3299","3.44935","26.588","1.697","7.4","0.44","3.034","0.05","0.06","30.2137","4.74726","18.77","0","SATNPRO1964","28.404","0.39786","5"],
    [60957,"HCEP03730563","2025-09-23 08:45:00","11.3277","3.44903","26.463","1.679","7.4","0.571","3.159","0.29","0.6","30.2125","4.7471","18.57","0","SATNPRO1964","28.578","0.40026","5"],
    [60958,"HCEP03730563","2025-09-23 09:00:00","11.3286","3.44908","26.336","1.67","7.4","0.548","2.84","0.19","0.2","30.2124","4.74707","18.47","0","SATNPRO1964","28.584","0.40034","5"],
    [60959,"HCEP03730563","2025-09-23 09:15:00","11.3323","3.44963","26.189","1.674","7.4","0.489","2.913","0.08","0.07","30.2147","4.74734","18.52","0","SATNPRO1964","28.618000000000002","0.40084","5"],
    [60960,"HCEP03730563","2025-09-23 09:30:00","11.3321","3.4496","26.037","1.686","7.4","0.496","2.847","0.09","0.25","30.2146","4.74732","18.65","0","SATNPRO1964","28.536","0.39972","5"],
    [60961,"HCEP03730563","2025-09-23 09:45:00","11.341","3.45079","25.893","1.704","7.4","0.616","2.912","0.29","0.19","30.2189","4.74779","18.85","0","SATNPRO1964","28.918","0.40506","5"],
    [60962,"HCEP03730563","2025-09-23 10:00:00","11.3419","3.45082","25.761","1.737","7.41","0.673","2.858","0.8","0.1","30.2185","4.74772","19.22","0","SATNPRO1964","28.68","0.40172","5"],
    [60963,"HCEP03730563","2025-09-23 10:15:00","11.3438","3.45107","25.609","1.75","7.41","1.549","3.128","3.8","0.67","30.2195","4.74781","19.36","0","SATNPRO1964","28.976","0.40586","5"],
    [60964,"HCEP03730563","2025-09-23 10:30:00","11.3473","3.45159","25.49","1.762","7.41","0.585","3.072","0.22","0.16","30.2217","4.74806","19.5","0","SATNPRO1964","29.056","0.40698","5"],
    [60965,"HCEP03730563","2025-09-23 10:45:00","11.3533","3.4522","25.394","1.784","7.41","0.69","2.777","0.19","0.13","30.2227","4.74812","19.74","0","SATNPRO1964","29.3","0.4104","5"],
    [60966,"HCEP03730563","2025-09-23 11:00:00","11.3593","3.45291","25.311","1.826","7.41","0.718","2.755","0.38","0.21","30.2248","4.74832","20.21","0","SATNPRO1964","29.35","0.41108","5"],
    [60967,"HCEP03730563","2025-09-23 11:15:00","11.3581","3.45291","25.292","1.848","7.41","0.783","3.007","0.83","0.19","30.2258","4.74848","20.45","0","SATNPRO1964","29.746000000000002","0.41662","5"],
    [60968,"HCEP03730563","2025-09-23 11:30:00","11.401","3.45802","25.274","1.918","7.43","0.732","2.566","0.15","0.28","30.2402","4.74989","21.25","0","SATNPRO1964","30.508","0.42734","5"],
    [60969,"HCEP03730563","2025-09-23 11:45:00","11.4094","3.4585","25.3","2.105","7.44","0.996","2.958","0.59","0.76","30.2381","4.74946","23.32","0","SATNPRO1964","30.336000000000002","0.4249","5"],
    [60970,"HCEP03730563","2025-09-23 12:00:00","11.398","3.45685","25.347","2.14","7.44","0.697","2.889","0.22","0.47","30.2314","4.74868","23.71","0","SATNPRO1964","30.316","0.42464","5"],
    [60971,"HCEP03730563","2025-09-23 12:15:00","11.3649","3.45357","25.417","2.024","7.43","0.922","3.511","0.33","0.14","30.2266","4.7485","22.41","0","SATNPRO1964","29.169999999999998","0.40858","5"],
    [60972,"HCEP03730563","2025-09-23 12:30:00","11.3654","3.45391","25.517","1.861","7.42","0.761","3.405","0.13","0.24","30.2294","4.74889","20.6","0","SATNPRO1964","29.1","0.4076","5"],
    [60973,"HCEP03730563","2025-09-23 12:45:00","11.3872","3.45624","25.605","1.882","7.42","0.705","2.997","0.12","0.16","30.2342","4.74926","20.85","0","SATNPRO1964","29.572","0.4142","5"],
    [60974,"HCEP03730563","2025-09-23 13:00:00","11.3659","3.45384","25.747","1.908","7.42","0.79","3.216","0.23","0.2","30.2282","4.74873","21.13","0","SATNPRO1964","28.92","0.40508","5"],
    [60975,"HCEP03730563","2025-09-23 13:15:00","11.3841","3.45583","25.853","1.885","7.42","0.748","2.865","0.13","0.22","30.2326","4.74909","20.87","0","SATNPRO1964","30.24","0.42354","5"],
    [60976,"HCEP03730563","2025-09-23 13:30:00","11.3845","3.45591","25.964","1.931","7.43","0.699","3.152","0.13","0.24","30.233","4.74914","21.39","0","SATNPRO1964","28.964","0.40568","5"],
    [60977,"HCEP03730563","2025-09-23 13:45:00","11.3656","3.45377","26.092","1.907","7.42","0.855","3.918","0.18","0.16","30.2277","4.74867","21.11","0","SATNPRO1964","28.47","0.3988","5"],
    [60978,"HCEP03730563","2025-09-23 14:00:00","11.3489","3.4519","26.252","1.79","7.41","0.949","3.859","0.3","0.18","30.2231","4.74829","19.81","0","SATNPRO1964","28.456","0.39854","5"],
    [60979,"HCEP03730563","2025-09-23 14:15:00","11.3434","3.45143","26.384","1.641","7.4","0.978","4.172","0.27","0.31","30.223","4.74836","18.16","0","SATNPRO1964","28.008","0.39232","5"],
    [60980,"HCEP03730563","2025-09-23 14:30:00","11.3425","3.4513","26.515","1.597","7.4","0.998","4.065","0.68","0.29","30.2223","4.74829","17.67","0","SATNPRO1964","27.938","0.39128","5"],
    [60981,"HCEP03730563","2025-09-23 14:45:00","11.3398","3.45096","26.654","1.577","7.4","0.751","3.905","0.18","0.19","30.2212","4.74818","17.45","0","SATNPRO1964","27.776","0.38904","5"],
    [60982,"HCEP03730563","2025-09-23 15:00:00","11.3382","3.45079","26.793","1.555","7.39","0.79","4.03","0.18","0.4","30.2208","4.74815","17.2","0","SATNPRO1964","27.678","0.3877","5"],
    [60983,"HCEP03730563","2025-09-23 15:15:00","11.3379","3.45075","26.893","1.544","7.39","0.769","3.741","0.13","0.26","30.2207","4.74815","17.09","0","SATNPRO1964","27.718","0.38826","5"],
    [60984,"HCEP03730563","2025-09-23 15:30:00","11.3373","3.4506","27.041","1.549","7.39","0.787","3.741","0.25","0.37","30.2196","4.74801","17.14","0","SATNPRO1964","27.618","0.38682","5"],
    [60985,"HCEP03730563","2025-09-23 15:45:00","11.3379","3.45087","27.183","1.554","7.39","0.802","3.765","0.15","0.23","30.2217","4.7483","17.19","0","SATNPRO1964","27.796","0.3893","5"],
    [60986,"HCEP03730563","2025-09-23 16:00:00","11.34","3.45099","27.323","1.558","7.39","1.001","4.228","0.92","0.97","30.2212","4.7482","17.24","0","SATNPRO1964","27.804000000000002","0.38944","5"],
    [60987,"HCEP03730563","2025-09-23 16:15:00","11.3473","3.45202","27.435","1.567","7.39","0.861","3.914","0.42","0.39","30.2251","4.74866","17.34","0","SATNPRO1964","28.384","0.39756","5"],
    [60988,"HCEP03730563","2025-09-23 16:30:00","11.3584","3.4534","27.53","1.638","7.4","0.828","3.858","0.55","0.67","30.2294","4.74911","18.13","0","SATNPRO1964","28.894","0.40474","5"],
    [60989,"HCEP03730563","2025-09-23 16:45:00","11.3654","3.45392","27.609","1.749","7.41","0.659","3.394","0.25","0.33","30.2287","4.74891","19.37","0","SATNPRO1964","28.848000000000003","0.4041","5"],
    [60990,"HCEP03730563","2025-09-23 17:00:00","11.3645","3.45384","27.66","1.816","7.41","0.645","3.395","0.15","0.26","30.2286","4.74892","20.1","0","SATNPRO1964","29.642","0.41518","5"],
    [60991,"HCEP03730563","2025-09-23 17:15:00","11.37","3.45439","27.693","1.836","7.41","1.678","3.296","3.9","0.7","30.2295","4.74896","20.32","0","SATNPRO1964","29.584","0.41438","5"],
    [60992,"HCEP03730563","2025-09-23 17:30:00","11.3654","3.45382","27.677","1.854","7.41","0.601","3.436","0.07","0.16","30.2277","4.74877","20.52","0","SATNPRO1964","29.546","0.41384","5"],
    [60993,"HCEP03730563","2025-09-23 17:45:00","11.3707","3.45444","27.673","1.851","7.42","0.702","3.55","0.3","0.62","30.2294","4.74893","20.5","0","SATNPRO1964","29.306","0.41046","5"],
    [60994,"HCEP03730563","2025-09-23 18:00:00","11.3583","3.4529","27.632","1.854","7.41","0.602","3.548","0.09","0.23","30.2246","4.74843","20.53","0","SATNPRO1964","29.45","0.41248","5"],
    [60995,"HCEP03730563","2025-09-23 18:15:00","11.359","3.4529","27.579","1.825","7.41","0.523","3.081","0.06","0.05","30.224","4.74834","20.2","0","SATNPRO1964","29.04","0.40674","5"],
    [60996,"HCEP03730563","2025-09-23 18:30:00","11.36","3.45297","27.509","1.843","7.42","0.473","2.608","0.05","0.04","30.2239","4.7483","20.4","0","SATNPRO1964","29.376","0.41144","5"],
    [60997,"HCEP03730563","2025-09-23 18:45:00","11.3568","3.45268","27.418","1.832","7.41","0.538","2.913","0.18","0.05","30.2237","4.74832","20.27","0","SATNPRO1964","29.092000000000002","0.40748","5"],
    [60998,"HCEP03730563","2025-09-23 19:00:00","11.3458","3.45152","27.315","1.772","7.41","0.581","2.967","0.22","0.06","30.2215","4.74817","19.61","0","SATNPRO1964","28.26","0.39584","5"],
    [60999,"HCEP03730563","2025-09-23 19:15:00","11.3416","3.45104","27.2","1.667","7.4","0.619","3.142","0.09","0.05","30.2203","4.74805","18.44","0","SATNPRO1964","28.009999999999998","0.3923","5"],
    [61000,"HCEP03730563","2025-09-23 19:30:00","11.3323","3.44983","27.063","1.589","7.39","0.535","3.466","0.06","0.09","30.2162","4.7476","17.58","0","SATNPRO1964","27.73","0.38836","5"],
    [61001,"HCEP03730563","2025-09-23 19:45:00","11.3257","3.44902","26.918","1.515","7.39","0.604","3.653","0.02","0.24","30.2138","4.74735","16.76","0","SATNPRO1964","27.438000000000002","0.38432","5"],
    [61002,"HCEP03730563","2025-09-23 20:00:00","11.3208","3.4484","26.764","1.459","7.38","0.72","4.26","0.1","0.18","30.2119","4.74714","16.13","0","SATNPRO1964","28.036","0.3927","5"],
    [61003,"HCEP03730563","2025-09-23 20:15:00","11.3179","3.44798","26.606","1.417","7.38","0.745","4.433","0.1","0.29","30.2103","4.74695","15.67","0","SATNPRO1964","27.088","0.3794","5"],
    [61004,"HCEP03730563","2025-09-23 20:30:00","11.3147","3.44756","26.435","1.392","7.37","0.594","4.089","0.07","0.19","30.2088","4.74678","15.39","0","SATNPRO1964","26.954","0.3775","5"],
    [61005,"HCEP03730563","2025-09-23 20:45:00","11.3138","3.44742","26.262","1.377","7.37","0.58","4.039","0.07","0.19","30.2082","4.7467","15.22","0","SATNPRO1964","27.102","0.37962","5"],
    [61006,"HCEP03730563","2025-09-23 21:00:00","11.3136","3.44738","26.102","1.369","7.37","0.537","3.832","0.16","0.18","30.2081","4.74668","15.14","0","SATNPRO1964","27.008","0.37828","5"],
    [61007,"HCEP03730563","2025-09-23 21:15:00","11.3123","3.44735","25.912","1.364","7.37","0.653","3.857","0.46","0.17","30.209","4.74681","15.08","0","SATNPRO1964","27.05","0.37892","5"],
    [61008,"HCEP03730563","2025-09-23 21:30:00","11.3107","3.44698","25.71","1.356","7.37","0.6","4.038","0.23","0.19","30.2068","4.74651","14.99","0","SATNPRO1964","27.094","0.37952","5"],
    [61009,"HCEP03730563","2025-09-23 21:45:00","11.312","3.44718","25.517","1.342","7.37","0.555","4.009","0.04","0.1","30.2078","4.74662","14.84","0","SATNPRO1964","26.945999999999998","0.3774","5"],
    [61010,"HCEP03730563","2025-09-23 22:00:00","11.3087","3.44676","25.339","1.318","7.37","0.528","3.726","0.03","0.09","30.2065","4.74647","14.58","0","SATNPRO1964","26.759999999999998","0.37478","5"],
    [61011,"HCEP03730563","2025-09-23 22:15:00","11.307","3.44657","25.15","1.304","7.36","0.607","3.949","0.14","0.12","30.206","4.74643","14.41","0","SATNPRO1964","26.728","0.37434","5"],
    [61012,"HCEP03730563","2025-09-23 22:30:00","11.306","3.44642","24.981","1.297","7.36","0.542","3.815","0.1","0.11","30.2054","4.74635","14.34","0","SATNPRO1964","26.85","0.37608","5"],
    [61013,"HCEP03730563","2025-09-23 22:45:00","11.3055","3.4463","24.84","1.294","7.36","0.603","3.586","0.18","0.07","30.2048","4.74625","14.31","0","SATNPRO1964","26.785999999999998","0.37518","5"],
    [61014,"HCEP03730563","2025-09-23 23:00:00","11.3072","3.44657","24.72","1.292","7.36","0.5","3.735","0.06","0.13","30.2061","4.74641","14.28","0","SATNPRO1964","26.776","0.37508","5"],
    [61015,"HCEP03730563","2025-09-23 23:15:00","11.3042","3.44603","24.649","1.301","7.36","0.498","3.542","0.06","0.11","30.2033","4.74606","14.38","0","SATNPRO1964","26.887999999999998","0.37662","5"],
    [61016,"HCEP03730563","2025-09-23 23:30:00","11.3039","3.44598","24.614","1.33","7.37","0.535","3.327","0.21","0.1","30.203","4.74601","14.71","0","SATNPRO1964","27.114","0.37978","5"],
    [61017,"HCEP03730563","2025-09-23 23:45:00","11.306","3.44627","24.614","1.356","7.37","0.53","3.366","0.28","0.21","30.2041","4.74614","14.99","0","SATNPRO1964","27.282","0.38214","5"],
    [61018,"HCEP03730563","2025-09-24 00:00:00","11.3194","3.44826","24.651","1.357","7.37","0.674","3.945","0.19","0.2","30.2125","4.74714","15.01","0","SATNPRO1964","27.134","0.38004","5"],
    [61019,"HCEP03730563","2025-09-24 00:15:00","11.314","3.44734","24.69","1.367","7.37","0.644","3.561","0.31","0.14","30.208","4.74658","15.11","0","SATNPRO1964","27.086","0.37944","5"],
    [61020,"HCEP03730563","2025-09-24 00:30:00","11.3145","3.44742","24.737","1.383","7.37","0.686","3.248","0.42","0.08","30.2083","4.74661","15.29","0","SATNPRO1964","27.204","0.38104","5"],
    [61021,"HCEP03730563","2025-09-24 00:45:00","11.3216","3.44845","24.818","1.392","7.37","1.547","3.72","1.01","0.62","30.2125","4.74711","15.39","0","SATNPRO1964","27.33","0.3828","5"],
    [61022,"HCEP03730563","2025-09-24 01:00:00","11.3224","3.44857","24.914","1.386","7.37","0.534","3.629","0.04","0.13","30.2129","4.74716","15.33","0","SATNPRO1964","27.09","0.3794","5"],
    [61023,"HCEP03730563","2025-09-24 01:15:00","11.322","3.44851","25.026","1.386","7.37","0.624","3.748","0.1","0.61","30.2127","4.74714","15.33","0","SATNPRO1964","27.356","0.3832","5"],
    [61024,"HCEP03730563","2025-09-24 01:30:00","11.3298","3.44972","25.142","1.392","7.37","0.69","3.603","0.25","0.08","30.218","4.74779","15.4","0","SATNPRO1964","27.158","0.38038","5"],
    [61025,"HCEP03730563","2025-09-24 01:45:00","11.3401","3.45127","25.274","1.415","7.37","0.769","3.741","0.28","0.21","30.2246","4.74858","15.66","0","SATNPRO1964","27.637999999999998","0.3871","5"],
    [61026,"HCEP03730563","2025-09-24 02:00:00","11.347","3.45235","25.415","1.461","7.37","0.923","3.702","0.31","0.24","30.2293","4.74915","16.17","0","SATNPRO1964","27.698","0.38794","5"],
    [61027,"HCEP03730563","2025-09-24 02:15:00","11.3557","3.45376","25.558","1.496","7.38","0.831","3.788","0.15","0.28","30.2359","4.74996","16.56","0","SATNPRO1964","27.692","0.3879","5"],
    [61028,"HCEP03730563","2025-09-24 02:30:00","11.3599","3.45448","25.703","1.532","7.38","0.827","3.902","0.22","0.16","30.2394","4.7504","16.96","0","SATNPRO1964","27.976","0.39186","5"],
    [61029,"HCEP03730563","2025-09-24 02:45:00","11.3633","3.4553","25.852","1.552","7.38","0.876","3.644","0.2","0.19","30.2445","4.75108","17.18","0","SATNPRO1964","28.11","0.39372","5"],
    [61030,"HCEP03730563","2025-09-24 03:00:00","11.3659","3.45544","26.004","1.569","7.39","0.961","3.903","0.64","0.28","30.2437","4.75093","17.37","0","SATNPRO1964","28.1","0.3936","5"],
    [61031,"HCEP03730563","2025-09-24 03:15:00","11.3649","3.45592","26.175","1.593","7.39","0.954","3.906","0.28","0.21","30.2491","4.75173","17.64","0","SATNPRO1964","28.238","0.39554","5"],
    [61032,"HCEP03730563","2025-09-24 03:30:00","11.3654","3.45602","26.34","1.58","7.39","0.837","4.001","0.17","0.24","30.2497","4.75181","17.49","0","SATNPRO1964","28.302","0.39642","5"],
    [61033,"HCEP03730563","2025-09-24 03:45:00","11.3671","3.45626","26.502","1.602","7.39","1.061","3.854","0.43","0.19","30.2504","4.7519","17.74","0","SATNPRO1964","28.54","0.39974","5"],
    [61034,"HCEP03730563","2025-09-24 04:00:00","11.373","3.45649","26.635","1.678","7.4","1.472","4.047","1.83","0.4","30.2478","4.75145","18.58","0","SATNPRO1964","29.356","0.4112","5"],
    [61035,"HCEP03730563","2025-09-24 04:15:00","11.3641","3.45564","26.812","1.715","7.4","0.773","3.81","0.12","0.25","30.2468","4.75145","18.98","0","SATNPRO1964","29.13","0.40802","5"],
    [61036,"HCEP03730563","2025-09-24 04:30:00","11.3627","3.45516","26.954","1.662","7.39","1.431","4.011","2.31","0.41","30.2432","4.75097","18.4","0","SATNPRO1964","28.516","0.3994","5"],
    [61037,"HCEP03730563","2025-09-24 04:45:00","11.3642","3.45503","27.085","1.671","7.4","1.075","3.319","0.94","0.12","30.2406","4.75059","18.5","0","SATNPRO1964","29.400000000000002","0.4118","5"],
    [61038,"HCEP03730563","2025-09-24 05:00:00","11.3645","3.45464","27.253","1.725","7.4","0.709","3.012","0.17","0.11","30.2365","4.75001","19.1","0","SATNPRO1964","29.704","0.41606","5"],
    [61039,"HCEP03730563","2025-09-24 05:15:00","11.3656","3.45457","27.317","1.784","7.4","0.898","2.968","0.71","0.19","30.235","4.74978","19.75","0","SATNPRO1964","29.232","0.40946","5"],
    [61040,"HCEP03730563","2025-09-24 05:30:00","11.3655","3.45457","27.398","1.801","7.4","1.729","3.761","5.15","0.95","30.235","4.74979","19.94","0","SATNPRO1964","29.818","0.41766","5"],
    [61041,"HCEP03730563","2025-09-24 05:45:00","11.3621","3.45488","27.444","1.719","7.4","0.84","4.01","0.23","0.18","30.2409","4.75067","19.03","0","SATNPRO1964","28.302","0.39646","5"],
    [61042,"HCEP03730563","2025-09-24 06:00:00","11.3612","3.4545","27.476","1.618","7.39","2.057","4.056","3.52","0.78","30.2378","4.75026","17.91","0","SATNPRO1964","28.268","0.39598","5"],
    [61043,"HCEP03730563","2025-09-24 06:15:00","11.3531","3.45372","27.503","1.566","7.39","0.953","4.598","0.35","0.28","30.2368","4.75023","17.33","0","SATNPRO1964","27.54","0.38576","5"],
    [61044,"HCEP03730563","2025-09-24 06:30:00","11.3481","3.45279","27.488","1.468","7.38","0.871","4.961","0.23","0.41","30.2319","4.74961","16.24","0","SATNPRO1964","27.46","0.38462","5"],
    [61045,"HCEP03730563","2025-09-24 06:45:00","11.3433","3.45192","27.461","1.433","7.38","0.76","4.204","0.14","0.28","30.2274","4.74904","15.86","0","SATNPRO1964","27.23","0.3814","5"],
    [61046,"HCEP03730563","2025-09-24 07:00:00","11.3358","3.45073","27.437","1.417","7.37","0.939","4.251","0.87","0.32","30.2219","4.74838","15.68","0","SATNPRO1964","27.242","0.38158","5"],
    [61047,"HCEP03730563","2025-09-24 07:15:00","11.3323","3.45018","27.382","1.392","7.37","0.817","3.704","0.17","0.16","30.2196","4.74809","15.4","0","SATNPRO1964","27.104","0.37966","5"],
    [61048,"HCEP03730563","2025-09-24 07:30:00","11.3273","3.44937","27.315","1.378","7.37","0.724","3.797","0.12","0.17","30.2158","4.74763","15.24","0","SATNPRO1964","27.022000000000002","0.3785","5"],
    [61049,"HCEP03730563","2025-09-24 07:45:00","11.3249","3.44901","27.255","1.367","7.37","0.906","3.779","0.46","0.31","30.2143","4.74744","15.12","0","SATNPRO1964","27.126","0.37992","5"],
    [61050,"HCEP03730563","2025-09-24 08:00:00","11.3286","3.44946","27.178","1.37","7.37","0.776","3.931","0.31","0.32","30.2157","4.74758","15.15","0","SATNPRO1964","27.066","0.37912","5"],
    [61051,"HCEP03730563","2025-09-24 08:15:00","11.3296","3.4497","27.089","1.359","7.37","1.828","3.906","3.83","0.4","30.2172","4.74778","15.03","0","SATNPRO1964","26.992","0.37806","5"],
    [61052,"HCEP03730563","2025-09-24 08:30:00","11.3318","3.45001","26.997","1.36","7.37","0.899","3.481","0.28","0.22","30.2185","4.74793","15.04","0","SATNPRO1964","27.144","0.3802","5"],
    [61053,"HCEP03730563","2025-09-24 08:45:00","11.3286","3.44948","26.909","1.368","7.37","0.874","3.455","0.33","0.16","30.216","4.74761","15.14","0","SATNPRO1964","27.544","0.3858","5"],
    [61054,"HCEP03730563","2025-09-24 09:00:00","11.3304","3.44948","26.816","1.383","7.37","0.834","3.422","0.24","0.13","30.2146","4.74738","15.3","0","SATNPRO1964","27.514","0.3854","5"],
    [61055,"HCEP03730563","2025-09-24 09:15:00","11.3241","3.44859","26.705","1.413","7.37","1.05","4.207","0.44","0.34","30.2111","4.74698","15.63","0","SATNPRO1964","26.794","0.3753","5"],
    [61056,"HCEP03730563","2025-09-24 09:30:00","11.3056","3.44597","26.605","1.403","7.37","1.013","3.765","0.4","0.3","30.2007","4.74578","15.51","0","SATNPRO1964","26.976","0.37782","5"],
    [61057,"HCEP03730563","2025-09-24 09:45:00","11.2971","3.44511","26.488","1.29","7.36","0.894","3.648","0.3","0.22","30.1994","4.74572","14.26","0","SATNPRO1964","26.572","0.37216","5"],
    [61058,"HCEP03730563","2025-09-24 10:00:00","11.2929","3.44443","26.357","1.22","7.36","0.865","3.419","0.32","0.17","30.1962","4.74532","13.48","0","SATNPRO1964","26.366","0.36932","5"],
    [61059,"HCEP03730563","2025-09-24 10:15:00","11.2928","3.44438","26.23","1.187","7.35","0.725","3.615","0.2","0.21","30.1959","4.74527","13.12","0","SATNPRO1964","26.426","0.37012","5"],
    [61060,"HCEP03730563","2025-09-24 10:30:00","11.2844","3.44327","26.109","1.179","7.35","0.98","3.636","0.34","0.54","30.192","4.74484","13.03","0","SATNPRO1964","26.49","0.37106","5"],
    [61061,"HCEP03730563","2025-09-24 10:45:00","11.2863","3.44341","25.965","1.191","7.35","0.728","3.05","0.19","0.4","30.1919","4.74477","13.15","0","SATNPRO1964","27.004","0.37824","5"],
    [61062,"HCEP03730563","2025-09-24 11:00:00","11.2965","3.44376","25.848","1.273","7.36","0.752","2.275","0.24","0.22","30.187","4.74393","14.07","0","SATNPRO1964","27.906","0.39086","5"],
    [61063,"HCEP03730563","2025-09-24 11:15:00","11.3352","3.45075","25.745","1.369","7.36","0.991","4.342","0.43","0.18","30.2233","4.74849","15.15","0","SATNPRO1964","27.108","0.37974","5"],
    [61064,"HCEP03730563","2025-09-24 11:30:00","11.360900000000001","3.45498","25.697","1.351","7.36","1.134","4.846","0.27","0.58","30.2435","4.75096","14.96","0","SATNPRO1964","27.23","0.38142","5"],
    [61065,"HCEP03730563","2025-09-24 11:45:00","11.3571","3.45359","25.659","1.391","7.37","1.157","5.088","0.21","1.08","30.233","4.74954","15.39","0","SATNPRO1964","27.534","0.38568","5"],
    [61066,"HCEP03730563","2025-09-24 12:00:00","11.3355","3.45016","25.589","1.423","7.37","0.841","3.204","0.22","0.17","30.2174","4.74764","15.74","0","SATNPRO1964","27.318","0.38264","5"],
    [61067,"HCEP03730563","2025-09-24 12:15:00","11.3289","3.44905","25.607","1.385","7.37","0.875","2.95","0.24","0.24","30.212","4.74698","15.32","0","SATNPRO1964","27.878","0.3905","5"],
    [61068,"HCEP03730563","2025-09-24 12:30:00","11.3649","3.45525","25.649","1.412","7.37","0.969","3.412","0.14","0.12","30.2428","4.7508","15.64","0","SATNPRO1964","28.073999999999998","0.39324","5"],
    [61069,"HCEP03730563","2025-09-24 12:45:00","11.3719","3.45641","25.72","1.456","7.37","1.3","6.41","0.13","0.77","30.2482","4.75147","16.12","0","SATNPRO1964","27.928","0.3912","5"],
    [61070,"HCEP03730563","2025-09-24 13:00:00","11.3734","3.45644","25.782","1.452","7.38","1.154","3.317","0.26","0.13","30.2473","4.75133","16.08","0","SATNPRO1964","27.946","0.39142","5"],
    [61071,"HCEP03730563","2025-09-24 13:15:00","11.3734","3.45667","25.866","1.444","7.37","1.005","3.445","0.14","0.18","30.2495","4.75164","15.99","0","SATNPRO1964","27.638","0.38712","5"],
    [61072,"HCEP03730563","2025-09-24 13:30:00","11.373","3.4568","25.95","1.426","7.37","1.022","3.415","0.23","0.19","30.251","4.75187","15.79","0","SATNPRO1964","27.916","0.391","5"],
    [61073,"HCEP03730563","2025-09-24 13:45:00","11.3733","3.45698","26.054","1.409","7.37","0.991","3.445","0.14","0.19","30.2526","4.75209","15.6","0","SATNPRO1964","28.284","0.39618","5"],
    [61074,"HCEP03730563","2025-09-24 14:00:00","11.3745","3.45718","26.166","1.411","7.37","1.031","3.21","0.16","0.24","30.2535","4.75221","15.63","0","SATNPRO1964","27.898","0.39072","5"],
    [61075,"HCEP03730563","2025-09-24 14:15:00","11.3731","3.4569","26.286","1.422","7.37","1.333","3.337","0.24","0.31","30.2518","4.752","15.75","0","SATNPRO1964","27.976","0.39184","5"],
    [61076,"HCEP03730563","2025-09-24 14:30:00","11.3674","3.45591","26.396","1.432","7.37","1.239","3.112","0.44","0.26","30.2468","4.75138","15.85","0","SATNPRO1964","28.062","0.39306","5"],
    [61077,"HCEP03730563","2025-09-24 14:45:00","11.3605","3.45441","26.509","1.438","7.37","1.258","2.863","0.27","0.17","30.2379","4.75022","15.92","0","SATNPRO1964","27.830000000000002","0.3898","5"],
    [61078,"HCEP03730563","2025-09-24 15:00:00","11.3716","3.45706","26.641","1.442","7.38","1.465","2.96","0.39","0.14","30.2545","4.75241","15.97","0","SATNPRO1964","27.89","0.39064","5"],
    [61079,"HCEP03730563","2025-09-24 15:15:00","11.3678","3.45697","26.773","1.426","7.37","1.931","3.317","0.32","0.22","30.2567","4.75279","15.79","0","SATNPRO1964","26.928","0.37718","5"],
    [61080,"HCEP03730563","2025-09-24 15:30:00","11.3727","3.45763","26.896","1.38","7.37","2.145","3.224","0.39","0.26","30.259","4.75306","15.28","0","SATNPRO1964","27.774","0.38904","5"],
    [61081,"HCEP03730563","2025-09-24 15:45:00","11.3768","3.45816","27.018","1.414","7.37","2.815","3.862","0.84","0.95","30.2607","4.75324","15.66","0","SATNPRO1964","28.016000000000002","0.39236","5"],
    [61082,"HCEP03730563","2025-09-24 16:00:00","11.3783","3.45747","27.139","1.485","7.38","2.714","3.706","0.44","0.38","30.2528","4.7521","16.44","0","SATNPRO1964","28.406","0.39784","5"],
    [61083,"HCEP03730563","2025-09-24 16:15:00","11.3763","3.45727","27.244","1.594","7.38","2.796","3.424","0.9","0.35","30.2524","4.75209","17.65","0","SATNPRO1964","28.994","0.4061","5"],
    [61084,"HCEP03730563","2025-09-24 16:30:00","11.3651","3.45511","27.334","1.591","7.39","2.466","3.523","0.57","0.33","30.2406","4.75059","17.61","0","SATNPRO1964","28.424","0.39816","5"],
    [61085,"HCEP03730563","2025-09-24 16:45:00","11.3343","3.44965","27.425","1.593","7.39","1.804","3.017","0.5","0.25","30.2127","4.7471","17.62","0","SATNPRO1964","28.574","0.40024","5"],
    [61086,"HCEP03730563","2025-09-24 17:00:00","11.3607","3.45515","27.501","1.565","7.38","1.705","2.879","0.47","0.22","30.2445","4.75121","17.32","0","SATNPRO1964","28.542","0.3998","5"],
    [61087,"HCEP03730563","2025-09-24 17:15:00","11.3467","3.4525","27.566","1.51","7.38","1.782","2.842","1.23","0.55","30.2302","4.74939","16.71","0","SATNPRO1964","28.364","0.39728","5"],
    [61088,"HCEP03730563","2025-09-24 17:30:00","11.3452","3.45233","27.614","1.484","7.38","1.744","3.403","0.54","0.31","30.2298","4.74936","16.42","0","SATNPRO1964","27.66","0.38744","5"],
    [61089,"HCEP03730563","2025-09-24 17:45:00","11.3455","3.45295","27.616","1.395","7.37","1.489","3.981","0.27","0.38","30.2356","4.75018","15.44","0","SATNPRO1964","26.976","0.37782","5"],
    [61090,"HCEP03730563","2025-09-24 18:00:00","11.3368","3.45168","27.597","1.296","7.36","1.549","4.162","0.24","0.31","30.2303","4.74956","14.34","0","SATNPRO1964","26.638","0.37314","5"],
    [61091,"HCEP03730563","2025-09-24 18:15:00","11.3301","3.45062","27.593","1.236","7.36","1.603","3.885","0.46","0.25","30.2255","4.74898","13.68","0","SATNPRO1964","26.516000000000002","0.37138","5"],
    [61092,"HCEP03730563","2025-09-24 18:30:00","11.3226","3.44939","27.569","1.189","7.35","1.279","3.715","0.18","0.14","30.2197","4.74827","13.14","0","SATNPRO1964","26.01","0.3643","5"],
    [61093,"HCEP03730563","2025-09-24 18:45:00","11.3191","3.44888","27.521","1.137","7.35","1.338","3.781","0.21","0.28","30.2176","4.74803","12.57","0","SATNPRO1964","25.818","0.36164","5"],
    [61094,"HCEP03730563","2025-09-24 19:00:00","11.317","3.44851","27.43","1.109","7.35","1.575","3.761","1.03","0.16","30.2157","4.74778","12.26","0","SATNPRO1964","25.632","0.35902","5"],
    [61095,"HCEP03730563","2025-09-24 19:15:00","11.3145","3.44808","27.346","1.089","7.35","1.194","3.605","0.19","0.12","30.2136","4.74751","12.04","0","SATNPRO1964","25.759999999999998","0.36084","5"],
    [61096,"HCEP03730563","2025-09-24 19:30:00","11.3127","3.4478","27.263","1.066","7.34","1.23","3.813","0.21","0.17","30.2125","4.74737","11.79","0","SATNPRO1964","25.624","0.35892","5"],
    [61097,"HCEP03730563","2025-09-24 19:45:00","11.311","3.44753","27.149","1.05","7.34","1.67","4.603","0.6","1.44","30.2112","4.74722","11.61","0","SATNPRO1964","25.524","0.3575","5"],
    [61098,"HCEP03730563","2025-09-24 20:00:00","11.3066","3.44677","26.974","1.041","7.34","1.351","3.887","0.19","0.51","30.2075","4.74675","11.51","0","SATNPRO1964","25.436","0.3563","5"],
    [61099,"HCEP03730563","2025-09-24 20:15:00","11.3053","3.44655","26.825","1.039","7.34","1.638","4.462","0.58","0.68","30.2066","4.74662","11.48","0","SATNPRO1964","25.55","0.35788","5"],
    [61100,"HCEP03730563","2025-09-24 20:30:00","11.3038","3.44641","26.676","1.02","7.34","0.982","3.428","0.2","0.17","30.2065","4.74662","11.27","0","SATNPRO1964","25.366","0.35532","5"],
    [61101,"HCEP03730563","2025-09-24 20:45:00","11.3029","3.44622","26.526","0.991","7.33","1.024","3.683","0.18","0.57","30.2055","4.74649","10.96","0","SATNPRO1964","25.056","0.35096","5"],
    [61102,"HCEP03730563","2025-09-24 21:00:00","11.302","3.4462","26.351","0.969","7.33","0.799","3.184","0.15","0.21","30.206","4.74657","10.71","0","SATNPRO1964","25.2","0.35294","5"],
    [61103,"HCEP03730563","2025-09-24 21:15:00","11.3011","3.44602","26.181","0.953","7.33","0.892","3.413","0.18","0.43","30.2051","4.74644","10.54","0","SATNPRO1964","25.034","0.35066","5"],
    [61104,"HCEP03730563","2025-09-24 21:30:00","11.3001","3.44582","25.968","0.954","7.33","0.924","3.224","0.19","0.33","30.204","4.74629","10.54","0","SATNPRO1964","25.074","0.3512","5"],
    [61105,"HCEP03730563","2025-09-24 21:45:00","11.299","3.44567","25.779","0.953","7.33","0.808","2.769","0.16","0.14","30.2036","4.74623","10.53","0","SATNPRO1964","25.056","0.35096","5"],
    [61106,"HCEP03730563","2025-09-24 22:00:00","11.2982","3.44552","25.59","0.949","7.33","0.711","2.821","0.19","0.14","30.2028","4.74612","10.49","0","SATNPRO1964","25.137999999999998","0.35208","5"],
    [61107,"HCEP03730563","2025-09-24 22:15:00","11.2967","3.44524","25.382","0.945","7.33","0.968","2.874","0.5","0.15","30.2014","4.74594","10.45","0","SATNPRO1964","25.126","0.35194","5"],
    [61108,"HCEP03730563","2025-09-24 22:30:00","11.2964","3.4452","25.204","0.944","7.33","0.761","3.394","0.22","1.91","30.2014","4.74593","10.44","0","SATNPRO1964","25.12","0.35182","5"],
    [61109,"HCEP03730563","2025-09-24 22:45:00","11.2964","3.44516","25.019","0.947","7.33","0.649","2.88","0.1","0.1","30.2011","4.74588","10.47","0","SATNPRO1964","25.224","0.3533","5"],
    [61110,"HCEP03730563","2025-09-24 23:00:00","11.3004","3.44556","24.843","0.967","7.33","0.731","2.974","0.18","0.44","30.2017","4.7459","10.68","0","SATNPRO1964","26.066","0.36508","5"],
    [61111,"HCEP03730563","2025-09-24 23:15:00","11.3021","3.44584","24.692","1.005","7.33","0.755","2.803","0.27","0.16","30.2031","4.74606","11.11","0","SATNPRO1964","26.032","0.3646","5"],
    [61112,"HCEP03730563","2025-09-24 23:30:00","11.3055","3.44611","24.606","1.045","7.34","1.049","2.805","0.5","0.14","30.203","4.746","11.55","0","SATNPRO1964","25.823999999999998","0.36172","5"],
    [61113,"HCEP03730563","2025-09-24 23:45:00","11.3069","3.44682","24.529","1.041","7.33","0.74","3.044","0.16","0.18","30.2087","4.74678","11.51","0","SATNPRO1964","25.39","0.35566","5"],
    [61114,"HCEP03730563","2025-09-25 00:00:00","11.3037","3.44634","24.475","0.995","7.33","0.71","2.802","0.14","0.08","30.2068","4.74654","11","0","SATNPRO1964","25.366","0.3553","5"],
    [61115,"HCEP03730563","2025-09-25 00:15:00","11.3041","3.44636","24.48","0.985","7.33","0.819","3.065","0.12","0.12","30.2066","4.74652","10.89","0","SATNPRO1964","25.424","0.3561","5"],
    [61116,"HCEP03730563","2025-09-25 00:30:00","11.305","3.44646","24.478","0.985","7.33","0.829","2.924","0.13","0.1","30.2069","4.74654","10.89","0","SATNPRO1964","25.368","0.3553","5"],
    [61117,"HCEP03730563","2025-09-25 00:45:00","11.3079","3.44689","24.514","0.992","7.33","0.67","2.857","0.1","0.11","30.2086","4.74675","10.96","0","SATNPRO1964","25.636","0.35908","5"],
    [61118,"HCEP03730563","2025-09-25 01:00:00","11.3092","3.44711","24.557","1.013","7.33","0.762","2.851","0.16","0.08","30.2097","4.74689","11.2","0","SATNPRO1964","25.59","0.35842","5"],
    [61119,"HCEP03730563","2025-09-25 01:15:00","11.3093","3.44712","24.635","1.021","7.34","1.006","2.842","0.5","0.07","30.2097","4.74689","11.28","0","SATNPRO1964","25.978","0.36388","5"],
    [61120,"HCEP03730563","2025-09-25 01:30:00","11.3153","3.44774","24.731","1.06","7.34","0.829","3.213","0.37","1.43","30.2108","4.74695","11.72","0","SATNPRO1964","26.194","0.36686","5"],
    [61121,"HCEP03730563","2025-09-25 01:45:00","11.3152","3.44786","24.837","1.103","7.34","1.089","2.913","0.72","0.26","30.212","4.74713","12.19","0","SATNPRO1964","26.14","0.36616","5"],
    [61122,"HCEP03730563","2025-09-25 02:00:00","11.3179","3.44856","24.931","1.084","7.34","1.278","3.573","0.45","0.26","30.2166","4.74775","11.98","0","SATNPRO1964","25.708000000000002","0.36006","5"],
    [61123,"HCEP03730563","2025-09-25 02:15:00","11.3221","3.44916","25.068","1.035","7.34","1.126","3.567","0.19","0.15","30.2189","4.74803","11.45","0","SATNPRO1964","25.4","0.35576","5"],
    [61124,"HCEP03730563","2025-09-25 02:30:00","11.3273","3.44998","25.204","1.048","7.34","1.379","3.604","0.48","0.45","30.2226","4.74847","11.59","0","SATNPRO1964","26.386","0.36962","5"],
    [61125,"HCEP03730563","2025-09-25 02:45:00","11.3326","3.45083","25.327","1.115","7.34","1.347","3.667","0.32","0.25","30.2264","4.74894","12.34","0","SATNPRO1964","26.332","0.3688","5"],
    [61126,"HCEP03730563","2025-09-25 03:00:00","11.3375","3.45151","25.469","1.2","7.35","1.44","3.21","0.6","0.31","30.2289","4.74923","13.28","0","SATNPRO1964","27.24","0.38156","5"],
    [61127,"HCEP03730563","2025-09-25 03:15:00","11.3459","3.45252","25.619","1.293","7.36","1.426","3.252","0.24","0.24","30.2318","4.74953","14.31","0","SATNPRO1964","27.834","0.38988","5"],
    [61128,"HCEP03730563","2025-09-25 03:30:00","11.3529","3.4533","25.755","1.391","7.37","1.443","3.172","1.01","0.38","30.2336","4.74969","15.39","0","SATNPRO1964","28.082","0.39332","5"],
    [61129,"HCEP03730563","2025-09-25 03:45:00","11.3494","3.45275","25.929","1.462","7.37","1.596","3.365","0.42","0.29","30.2311","4.74939","16.18","0","SATNPRO1964","28.64","0.40118","5"],
    [61130,"HCEP03730563","2025-09-25 04:00:00","11.3477","3.45246","26.137","1.465","7.37","1.711","3.531","0.48","0.53","30.2296","4.74922","16.21","0","SATNPRO1964","28.376","0.39742","5"],
    [61131,"HCEP03730563","2025-09-25 04:15:00","11.3447","3.45188","26.323","1.479","7.37","1.755","3.43","0.45","0.58","30.2263","4.74881","16.36","0","SATNPRO1964","28.69","0.40186","5"],
    [61132,"HCEP03730563","2025-09-25 04:30:00","11.3413","3.45126","26.523","1.473","7.37","1.661","3.47","0.48","0.76","30.223","4.7484","16.29","0","SATNPRO1964","28.26","0.39582","5"],
    [61133,"HCEP03730563","2025-09-25 04:45:00","11.3265","3.44929","26.739","1.423","7.37","1.423","2.901","0.26","0.23","30.2159","4.74762","15.74","0","SATNPRO1964","27.562","0.38606","5"],
    [61134,"HCEP03730563","2025-09-25 05:00:00","11.3191","3.44793","26.854","1.316","7.36","1.251","2.939","0.18","0.17","30.2087","4.74672","14.56","0","SATNPRO1964","27.126","0.37994","5"],
    [61135,"HCEP03730563","2025-09-25 05:15:00","11.3081","3.44632","26.953","1.278","7.36","1.754","3.194","0.3","0.22","30.202","4.74594","14.13","0","SATNPRO1964","26.844","0.376","5"],
    [61136,"HCEP03730563","2025-09-25 05:30:00","11.3033","3.44583","27.077","1.212","7.35","1.896","3.226","0.64","0.22","30.2011","4.74588","13.4","0","SATNPRO1964","26.438","0.3703","5"],
    [61137,"HCEP03730563","2025-09-25 05:45:00","11.2961","3.44495","27.187","1.155","7.35","2.059","3.564","0.97","0.73","30.1984","4.74562","12.77","0","SATNPRO1964","25.94","0.36336","5"],
    [61138,"HCEP03730563","2025-09-25 06:00:00","11.3022","3.44582","27.287","1.114","7.35","2.188","3.578","1.08","0.21","30.2018","4.74602","12.32","0","SATNPRO1964","26.326","0.3688","5"],
    [61139,"HCEP03730563","2025-09-25 06:15:00","11.3066","3.44634","27.363","1.129","7.35","1.871","3.816","0.51","0.4","30.2032","4.74616","12.48","0","SATNPRO1964","26.462","0.37068","5"],
    [61140,"HCEP03730563","2025-09-25 06:30:00","11.3125","3.44714","27.406","1.159","7.35","1.728","3.745","0.32","0.25","30.2062","4.74649","12.81","0","SATNPRO1964","26.776","0.37504","5"],
    [61141,"HCEP03730563","2025-09-25 06:45:00","11.3296","3.44975","27.416","1.213","7.35","1.807","4.376","0.3","0.59","30.2176","4.74786","13.42","0","SATNPRO1964","27.522","0.38548","5"],
    [61142,"HCEP03730563","2025-09-25 07:00:00","11.3404","3.45141","27.426","1.285","7.36","1.586","3.902","0.3","0.41","30.2249","4.74873","14.21","0","SATNPRO1964","27.855999999999998","0.39014","5"],
    [61143,"HCEP03730563","2025-09-25 07:15:00","11.3416","3.4516","27.402","1.353","7.36","1.768","3.89","0.46","0.43","30.2257","4.74882","14.97","0","SATNPRO1964","27.562","0.38606","5"],
    [61144,"HCEP03730563","2025-09-25 07:30:00","11.3398","3.45134","27.442","1.342","7.36","1.568","3.745","0.32","0.35","30.2246","4.7487","14.85","0","SATNPRO1964","27.426","0.38416","5"],
    [61145,"HCEP03730563","2025-09-25 07:45:00","11.3313","3.45003","27.387","1.305","7.36","1.397","3.394","0.33","0.21","30.2189","4.74801","14.44","0","SATNPRO1964","27.14","0.38016","5"],
    [61146,"HCEP03730563","2025-09-25 08:00:00","11.3322","3.45039","27.326","1.258","7.36","1.173","3.471","0.25","0.44","30.2217","4.7484","13.92","0","SATNPRO1964","26.966","0.3777","5"],
    [61147,"HCEP03730563","2025-09-25 08:15:00","11.3275","3.44956","27.268","1.221","7.35","1.165","3.537","0.25","0.42","30.2175","4.74787","13.5","0","SATNPRO1964","26.824","0.3757","5"],
    [61148,"HCEP03730563","2025-09-25 08:30:00","11.3311","3.45029","27.29","1.192","7.35","1.05","3.217","0.16","0.2","30.2215","4.74839","13.18","0","SATNPRO1964","26.628","0.37298","5"],
    [61149,"HCEP03730563","2025-09-25 08:45:00","11.3275","3.44962","27.144","1.17","7.35","0.954","2.86","0.17","0.15","30.2181","4.74794","12.94","0","SATNPRO1964","26.732","0.37444","5"],
    [61150,"HCEP03730563","2025-09-25 09:00:00","11.3271","3.44956","27.1","1.187","7.35","1.02","2.817","0.36","0.1","30.2178","4.74791","13.13","0","SATNPRO1964","26.556","0.37196","5"],
    [61151,"HCEP03730563","2025-09-25 09:15:00","11.3234","3.44894","27.043","1.153","7.35","0.895","2.771","0.18","0.22","30.2149","4.74755","12.75","0","SATNPRO1964","26.334","0.36886","5"],
    [61152,"HCEP03730563","2025-09-25 09:30:00","11.3258","3.44966","26.923","1.066","7.34","0.909","2.9","0.12","0.13","30.22","4.74822","11.8","0","SATNPRO1964","25.738","0.36052","5"],
    [61153,"HCEP03730563","2025-09-25 09:45:00","11.3277","3.44948","26.873","0.997","7.34","1.065","3.109","0.17","0.13","30.2167","4.74773","11.03","0","SATNPRO1964","25.538","0.35772","5"],
    [61154,"HCEP03730563","2025-09-25 10:00:00","11.3236","3.44924","26.768","0.964","7.33","0.923","2.937","0.11","0.1","30.2178","4.74793","10.66","0","SATNPRO1964","25.349999999999998","0.35504","5"],
    [61155,"HCEP03730563","2025-09-25 10:15:00","11.3192","3.44849","26.674","0.937","7.33","1.135","2.858","0.47","0.13","30.2141","4.74748","10.36","0","SATNPRO1964","25.178","0.35266","5"],
    [61156,"HCEP03730563","2025-09-25 10:30:00","11.3161","3.44836","26.596","0.908","7.33","0.945","2.825","0.17","0.13","30.2154","4.7477","10.04","0","SATNPRO1964","25.164","0.35248","5"],
    [61157,"HCEP03730563","2025-09-25 10:45:00","11.306","3.44602","26.5","0.906","7.33","0.967","2.555","0.23","0.09","30.201","4.7458","10.02","0","SATNPRO1964","25.488","0.357","5"],
    [61158,"HCEP03730563","2025-09-25 11:00:00","11.3063","3.44634","26.4","0.961","7.33","0.953","2.74","0.27","0.13","30.2038","4.74619","10.62","0","SATNPRO1964","25.596","0.35852","5"],
    [61159,"HCEP03730563","2025-09-25 11:15:00","11.3018","3.44552","26.301","0.941","7.33","0.968","2.53","0.33","0.22","30.1996","4.74566","10.4","0","SATNPRO1964","25.478","0.35684","5"],
    [61160,"HCEP03730563","2025-09-25 11:30:00","11.3083","3.44624","26.19","0.932","7.33","0.897","2.69","0.21","0.14","30.2014","4.74581","10.3","0","SATNPRO1964","24.830000000000002","0.3478","5"],
    [61161,"HCEP03730563","2025-09-25 11:45:00","11.3168","3.4484","26.087","0.879","7.32","1.045","3.023","0.59","0.17","30.2154","4.74766","9.72","0","SATNPRO1964","24.546","0.3438","5"],
    [61162,"HCEP03730563","2025-09-25 12:00:00","11.321","3.44903","26.016","0.842","7.32","0.845","2.992","0.16","0.13","30.2182","4.74799","9.31","0","SATNPRO1964","24.7","0.34594","5"],
    [61163,"HCEP03730563","2025-09-25 12:15:00","11.3173","3.44844","25.958","0.838","7.32","0.823","2.856","0.14","0.15","30.2154","4.74765","9.26","0","SATNPRO1964","24.848","0.34804","5"],
    [61164,"HCEP03730563","2025-09-25 12:30:00","11.2987","3.445","25.942","0.838","7.32","1.056","2.788","0.9","0.61","30.1973","4.74535","9.26","0","SATNPRO1964","25.066","0.35114","5"],
    [61165,"HCEP03730563","2025-09-25 12:45:00","11.2974","3.44448","25.947","0.879","7.32","1.008","2.816","0.37","0.18","30.1933","4.74481","9.72","0","SATNPRO1964","25.648","0.35924","5"],
    [61166,"HCEP03730563","2025-09-25 13:00:00","11.3235","3.44936","25.967","0.934","7.32","0.89","2.97","0.16","0.18","30.2194","4.74812","10.33","0","SATNPRO1964","25.692","0.35982","5"],
    [61167,"HCEP03730563","2025-09-25 13:15:00","11.3227","3.44893","25.995","0.949","7.33","1.081","2.929","0.64","0.19","30.2158","4.74763","10.49","0","SATNPRO1964","25.616","0.3588","5"],
    [61168,"HCEP03730563","2025-09-25 13:30:00","11.3004","3.44572","26.03","0.94","7.33","0.897","2.746","0.17","0.1","30.2028","4.74612","10.39","0","SATNPRO1964","25.387999999999998","0.35562","5"],
    [61169,"HCEP03730563","2025-09-25 13:45:00","11.3149","3.44775","26.098","0.912","7.32","1.081","2.976","0.36","0.23","30.2107","4.74703","10.09","0","SATNPRO1964","25.362000000000002","0.35526","5"],
    [61170,"HCEP03730563","2025-09-25 14:00:00","11.3176","3.44818","26.161","0.915","7.32","1.037","2.968","0.41","0.32","30.2126","4.74725","10.12","0","SATNPRO1964","25.49","0.35702","5"],
    [61171,"HCEP03730563","2025-09-25 14:15:00","11.3207","3.44864","26.239","0.915","7.32","1.044","2.939","0.25","0.16","30.2145","4.74749","10.12","0","SATNPRO1964","25.328","0.3548","5"],
    [61172,"HCEP03730563","2025-09-25 14:30:00","11.3262","3.44934","26.337","0.921","7.32","1.18","3.248","0.59","0.14","30.2168","4.74773","10.19","0","SATNPRO1964","25.362000000000002","0.35522","5"],
    [61173,"HCEP03730563","2025-09-25 14:45:00","11.3297","3.44979","26.432","0.942","7.33","0.955","3.039","0.29","0.25","30.2183","4.7479","10.42","0","SATNPRO1964","25.542","0.35778","5"],
    [61174,"HCEP03730563","2025-09-25 15:00:00","11.3435","3.452","26.525","0.971","7.33","1.043","2.875","0.33","0.16","30.2284","4.74913","10.74","0","SATNPRO1964","25.758","0.36078","5"],
    [61175,"HCEP03730563","2025-09-25 15:15:00","11.3579","3.45396","26.615","1.012","7.33","1.027","2.909","0.36","0.17","30.2356","4.74995","11.21","0","SATNPRO1964","26.136","0.36608","5"],
    [61176,"HCEP03730563","2025-09-25 15:30:00","11.3681","3.45521","26.689","1.07","7.34","0.972","2.918","0.23","0.12","30.2394","4.75033","11.84","0","SATNPRO1964","26.178","0.3667","5"],
    [61177,"HCEP03730563","2025-09-25 15:45:00","11.3707","3.45563","26.772","1.118","7.34","1.036","3.345","0.17","0.24","30.2413","4.75057","12.37","0","SATNPRO1964","26.188","0.36684","5"],
    [61178,"HCEP03730563","2025-09-25 16:00:00","11.3716","3.45574","26.908","1.117","7.34","1.049","2.959","0.2","0.12","30.2416","4.75061","12.37","0","SATNPRO1964","26.36","0.36922","5"],
    [61179,"HCEP03730563","2025-09-25 16:15:00","11.3763","3.4563","26.975","1.115","7.34","0.993","2.891","0.24","0.08","30.2432","4.75077","12.35","0","SATNPRO1964","26.396","0.36978","5"],
    [61180,"HCEP03730563","2025-09-25 16:30:00","11.3745","3.45609","27.115","1.125","7.34","0.893","2.899","0.13","0.16","30.2425","4.7507","12.46","0","SATNPRO1964","26.233999999999998","0.36742","5"],
    [61181,"HCEP03730563","2025-09-25 16:45:00","11.375","3.45622","27.16","1.117","7.34","0.901","2.872","0.07","0.11","30.2433","4.75082","12.37","0","SATNPRO1964","26.34","0.36894","5"],
    [61182,"HCEP03730563","2025-09-25 17:00:00","11.3748","3.45617","27.265","1.118","7.34","0.929","2.745","0.3","0.17","30.243","4.75078","12.38","0","SATNPRO1964","26.378","0.36944","5"],
    [61183,"HCEP03730563","2025-09-25 17:15:00","11.3725","3.45593","27.336","1.117","7.34","0.948","2.725","0.1","0.14","30.2424","4.75074","12.37","0","SATNPRO1964","26.474","0.37084","5"],
    [61184,"HCEP03730563","2025-09-25 17:30:00","11.373","3.45597","27.385","1.113","7.34","0.943","2.557","0.26","0.09","30.2425","4.75074","12.33","0","SATNPRO1964","26.476","0.37084","5"],
    [61185,"HCEP03730563","2025-09-25 17:45:00","11.3663","3.45515","27.459","1.115","7.34","0.928","2.611","0.13","0.1","30.24","4.75049","12.34","0","SATNPRO1964","26.13","0.36598","5"],
    [61186,"HCEP03730563","2025-09-25 18:00:00","11.3627","3.45467","27.492","1.085","7.34","0.851","2.576","0.11","0.11","30.2382","4.75029","12.02","0","SATNPRO1964","25.66","0.35944","5"],
    [61187,"HCEP03730563","2025-09-25 18:15:00","11.3558","3.45384","27.524","1.052","7.34","0.924","2.6","0.14","0.09","30.2358","4.75005","11.64","0","SATNPRO1964","25.791999999999998","0.36124","5"],
    [61188,"HCEP03730563","2025-09-25 18:30:00","11.3502","3.45204","27.521","1.012","7.34","0.893","2.477","0.34","0.09","30.223","4.74832","11.2","0","SATNPRO1964","26.176","0.36664","5"],
    [61189,"HCEP03730563","2025-09-25 18:45:00","11.3536","3.45359","27.514","1.007","7.33","0.855","2.576","0.08","0.1","30.2352","4.75","11.15","0","SATNPRO1964","25.817999999999998","0.36162","5"],
    [61190,"HCEP03730563","2025-09-25 19:00:00","11.3524","3.45337","27.46","1.015","7.33","0.834","2.418","0.16","0.13","30.2341","4.74985","11.23","0","SATNPRO1964","25.874","0.36242","5"],
    [61191,"HCEP03730563","2025-09-25 19:15:00","11.3499","3.45293","27.421","1.022","7.33","0.783","2.398","0.13","0.1","30.2319","4.74958","11.31","0","SATNPRO1964","26.052","0.36492","5"],
    [61192,"HCEP03730563","2025-09-25 19:30:00","11.3414","3.45189","27.336","1.003","7.33","0.838","2.388","0.16","0.11","30.2287","4.74926","11.1","0","SATNPRO1964","25.532","0.35768","5"],
    [61193,"HCEP03730563","2025-09-25 19:45:00","11.3369","3.45143","27.268","0.95","7.33","1.195","2.558","1.52","0.09","30.2279","4.7492","10.51","0","SATNPRO1964","25.412","0.35594","5"],
    [61194,"HCEP03730563","2025-09-25 20:00:00","11.3292","3.45026","27.166","0.908","7.33","0.686","2.407","0.1","0.15","30.223","4.74861","10.05","0","SATNPRO1964","25.208","0.35304","5"],
    [61195,"HCEP03730563","2025-09-25 20:15:00","11.3245","3.44979","27.042","0.865","7.32","0.734","2.452","0.14","0.11","30.2222","4.74857","9.56","0","SATNPRO1964","24.806","0.34742","5"],
    [61196,"HCEP03730563","2025-09-25 20:30:00","11.3206","3.44902","26.881","0.834","7.32","0.652","2.273","0.11","0.08","30.218","4.74801","9.22","0","SATNPRO1964","24.928","0.34916","5"],
    [61197,"HCEP03730563","2025-09-25 20:45:00","11.3185","3.44892","26.73","0.823","7.32","0.687","2.368","0.08","0.06","30.2188","4.74815","9.11","0","SATNPRO1964","24.796","0.34732","5"],
    [61198,"HCEP03730563","2025-09-25 21:00:00","11.3162","3.44839","26.566","0.802","7.32","0.843","2.836","0.24","0.6","30.2156","4.74773","8.87","0","SATNPRO1964","24.478","0.34286","5"],
    [61199,"HCEP03730563","2025-09-25 21:15:00","11.3145","3.44819","26.404","0.79","7.31","0.88","2.519","0.26","0.1","30.2151","4.74767","8.74","0","SATNPRO1964","25.092","0.35144","5"],
    [61200,"HCEP03730563","2025-09-25 21:30:00","11.3121","3.44771","26.225","0.803","7.32","0.779","2.373","0.12","0.1","30.2125","4.74732","8.88","0","SATNPRO1964","25.464","0.3567","5"],
    [61201,"HCEP03730563","2025-09-25 21:45:00","11.3144","3.44831","26.036","0.792","7.31","0.77","2.733","0.11","0.11","30.2166","4.74786","8.76","0","SATNPRO1964","24.008","0.33626","5"],
    [61202,"HCEP03730563","2025-09-25 22:00:00","11.3094","3.44729","25.85","0.784","7.31","0.658","2.666","0.11","0.07","30.2108","4.74711","8.67","0","SATNPRO1964","25.15","0.35226","5"],
    [61203,"HCEP03730563","2025-09-25 22:15:00","11.316","3.44875","25.673","0.776","7.31","0.788","3.419","0.08","0.15","30.2197","4.74826","8.58","0","SATNPRO1964","23.166","0.32448","5"],
    [61204,"HCEP03730563","2025-09-25 22:30:00","11.3334","3.451","25.48","0.718","7.31","0.67","3.43","0.05","0.22","30.2273","4.74907","7.94","0","SATNPRO1964","23.83","0.33372","5"],
    [61205,"HCEP03730563","2025-09-25 22:45:00","11.3474","3.45273","25.292","0.772","7.31","0.767","3.316","0.16","0.3","30.2328","4.74962","8.55","0","SATNPRO1964","24.524","0.34352","5"],
    [61206,"HCEP03730563","2025-09-25 23:00:00","11.3531","3.45358","25.137","0.842","7.32","0.886","3.721","0.21","0.2","30.2364","4.75004","9.32","0","SATNPRO1964","24.477999999999998","0.34286","5"],
    [61207,"HCEP03730563","2025-09-25 23:15:00","11.3619","3.45468","24.934","0.863","7.32","0.929","3.98","0.14","0.82","30.2399","4.7504","9.55","0","SATNPRO1964","24.72","0.3462","5"],
    [61208,"HCEP03730563","2025-09-25 23:30:00","11.3638","3.45483","24.783","0.902","7.32","0.932","3.454","0.12","0.18","30.24","4.75037","9.99","0","SATNPRO1964","24.636","0.34506","5"],
    [61209,"HCEP03730563","2025-09-25 23:45:00","11.3707","3.45587","24.653","0.92","7.32","0.846","3.01","0.53","0.21","30.2445","4.75091","10.18","0","SATNPRO1964","25.72","0.36026","5"],
    [61210,"HCEP03730563","2025-09-26 00:00:00","11.3697","3.45528","24.595","0.982","7.33","0.726","2.518","0.38","0.19","30.2396","4.75022","10.87","0","SATNPRO1964","26.25","0.36766","5"],
    [61211,"HCEP03730563","2025-09-26 00:15:00","11.3702","3.45551","24.487","1.036","7.33","1.078","3.139","0.27","0.24","30.2414","4.75046","11.47","0","SATNPRO1964","25.652","0.35932","5"],
    [61212,"HCEP03730563","2025-09-26 00:30:00","11.3699","3.45554","24.434","1.011","7.33","1.143","2.909","0.73","0.13","30.242","4.75055","11.19","0","SATNPRO1964","25.742","0.36058","5"],
    [61213,"HCEP03730563","2025-09-26 00:45:00","11.3681","3.4552","24.436","0.969","7.33","0.986","3.102","0.35","0.31","30.2402","4.75032","10.73","0","SATNPRO1964","25.804","0.36142","5"],
    [61214,"HCEP03730563","2025-09-26 01:00:00","11.3657","3.45491","24.44","0.958","7.33","1.062","3.816","0.3","0.48","30.2393","4.75023","10.6","0","SATNPRO1964","25.712","0.3601","5"],
    [61215,"HCEP03730563","2025-09-26 01:15:00","11.3583","3.45399","24.472","0.936","7.33","1.119","3.587","0.29","0.17","30.2364","4.74993","10.36","0","SATNPRO1964","25.138","0.35212","5"],
    [61216,"HCEP03730563","2025-09-26 01:30:00","11.3441","3.45212","24.51","0.897","7.32","1.025","3.275","0.59","0.25","30.2299","4.74922","9.93","0","SATNPRO1964","24.204","0.339","5"],
    [61217,"HCEP03730563","2025-09-26 01:45:00","11.3469","3.45252","24.56","0.855","7.32","0.79","3.193","0.09","0.19","30.2314","4.7494","9.46","0","SATNPRO1964","24.502","0.34318","5"],
    [61218,"HCEP03730563","2025-09-26 02:00:00","11.3409","3.45162","24.636","0.84","7.32","0.766","3.183","0.14","0.39","30.2276","4.74896","9.3","0","SATNPRO1964","24.338","0.34088","5"],
    [61219,"HCEP03730563","2025-09-26 02:15:00","11.3201","3.44872","24.712","0.807","7.31","0.71","2.9","0.23","0.14","30.2164","4.74768","8.92","0","SATNPRO1964","24.802","0.34734","5"],
    [61220,"HCEP03730563","2025-09-26 02:30:00","11.312","3.44739","24.812","0.843","7.32","0.646","2.304","0.19","0.13","30.2101","4.74691","9.32","0","SATNPRO1964","26.444000000000003","0.37042","5"],
    [61221,"HCEP03730563","2025-09-26 02:45:00","11.3217","3.4491","24.924","0.932","7.32","0.59","2.745","0.13","0.33","30.2186","4.74798","10.31","0","SATNPRO1964","24.592","0.34448","5"],
    [61222,"HCEP03730563","2025-09-26 03:00:00","11.3242","3.44958","25.057","0.867","7.32","0.68","2.876","0.2","0.13","30.2213","4.74833","9.59","0","SATNPRO1964","25.04","0.35072","5"],
    [61223,"HCEP03730563","2025-09-26 03:15:00","11.3283","3.45052","25.195","0.841","7.32","1.005","3.218","0.65","0.31","30.227","4.74908","9.3","0","SATNPRO1964","24.672","0.3456","5"],
    [61224,"HCEP03730563","2025-09-26 03:30:00","11.3332","3.45143","25.329","0.799","7.31","0.89","3.123","0.19","0.14","30.2318","4.7497","8.84","0","SATNPRO1964","24.75","0.3467","5"],
    [61225,"HCEP03730563","2025-09-26 03:45:00","11.3338","3.45058","25.484","0.884","7.33","0.766","2.572","0.23","0.33","30.223","4.74845","9.78","0","SATNPRO1964","27.332","0.3828","5"],
    [61226,"HCEP03730563","2025-09-26 04:00:00","11.3347","3.45108","25.654","1.075","7.33","0.87","2.822","0.32","0.17","30.227","4.74902","11.89","0","SATNPRO1964","26.866","0.37628","5"],
    [61227,"HCEP03730563","2025-09-26 04:15:00","11.3387","3.452","25.817","1.067","7.33","0.915","2.965","0.24","0.27","30.2326","4.74976","11.81","0","SATNPRO1964","26.312","0.36852","5"],
    [61228,"HCEP03730563","2025-09-26 04:30:00","11.3401","3.45234","26.012","1.036","7.33","0.999","3.034","0.19","0.19","30.2347","4.75004","11.46","0","SATNPRO1964","26.26","0.36782","5"],
    [61229,"HCEP03730563","2025-09-26 04:45:00","11.3404","3.45259","26.189","1.012","7.33","1.149","3.375","0.17","0.23","30.2368","4.75035","11.2","0","SATNPRO1964","25.894000000000002","0.36268","5"],
    [61230,"HCEP03730563","2025-09-26 05:00:00","11.3432","3.45295","26.381","1.009","7.33","1.085","3.129","0.2","0.22","30.2379","4.75048","11.16","0","SATNPRO1964","26.514","0.37136","5"],
    [61231,"HCEP03730563","2025-09-26 05:15:00","11.342","3.45291","26.563","1.064","7.34","1.093","2.994","0.2","0.11","30.2385","4.75058","11.77","0","SATNPRO1964","26.992","0.37802","5"],
    [61232,"HCEP03730563","2025-09-26 05:30:00","11.3391","3.45245","26.721","1.091","7.34","1.154","3.168","0.24","0.2","30.2363","4.75033","12.07","0","SATNPRO1964","27.137999999999998","0.38014","5"],
    [61233,"HCEP03730563","2025-09-26 05:45:00","11.3338","3.45158","26.822","1.068","7.34","1.249","3.18","0.18","0.3","30.2321","4.74982","11.81","0","SATNPRO1964","26.504","0.37128","5"],
    [61234,"HCEP03730563","2025-09-26 06:00:00","11.3222","3.44989","26.959","1.007","7.33","1.261","2.975","0.32","0.17","30.2252","4.74902","11.14","0","SATNPRO1964","25.608","0.3587","5"],
    [61235,"HCEP03730563","2025-09-26 06:15:00","11.316","3.44882","27.082","0.937","7.33","1.156","3.008","0.15","0.15","30.2197","4.74834","10.36","0","SATNPRO1964","25.788","0.3612","5"],
    [61236,"HCEP03730563","2025-09-26 06:30:00","11.3097","3.4479","27.175","0.919","7.33","1.165","3.285","0.13","0.18","30.2159","4.7479","10.16","0","SATNPRO1964","25.45","0.35648","5"],
    [61237,"HCEP03730563","2025-09-26 06:45:00","11.3055","3.44714","27.247","0.891","7.32","1.135","2.946","0.13","0.2","30.2119","4.7474","9.85","0","SATNPRO1964","25.474","0.35676","5"],
    [61238,"HCEP03730563","2025-09-26 07:00:00","11.3107","3.44793","27.322","0.896","7.32","1.128","2.604","0.21","0.34","30.2154","4.74781","9.91","0","SATNPRO1964","26.032","0.36464","5"],
    [61239,"HCEP03730563","2025-09-26 07:15:00","11.313","3.44823","27.377","0.935","7.33","1.05","2.648","0.26","0.13","30.2164","4.74793","10.33","0","SATNPRO1964","25.928","0.36316","5"],
    [61240,"HCEP03730563","2025-09-26 07:30:00","11.3168","3.44889","27.383","0.933","7.33","1.211","3.372","0.2","0.2","30.2197","4.74834","10.32","0","SATNPRO1964","25.578","0.35828","5"],
    [61241,"HCEP03730563","2025-09-26 07:45:00","11.3262","3.45024","27.403","0.92","7.32","1.242","3.47","0.25","0.17","30.2251","4.74897","10.17","0","SATNPRO1964","25.346","0.355","5"],
    [61242,"HCEP03730563","2025-09-26 08:00:00","11.3315","3.45107","27.41","0.907","7.32","1.062","3.738","0.17","0.49","30.2289","4.74943","10.03","0","SATNPRO1964","25.43","0.35618","5"],
    [61243,"HCEP03730563","2025-09-26 08:15:00","11.3353","3.4515","27.385","0.9","7.32","1.168","3.689","0.21","0.29","30.2298","4.7495","9.96","0","SATNPRO1964","25.582","0.35832","5"],
    [61244,"HCEP03730563","2025-09-26 08:30:00","11.3344","3.45133","27.369","0.896","7.32","1.247","3.279","0.39","0.13","30.229","4.7494","9.92","0","SATNPRO1964","25.688","0.3598","5"],
    [61245,"HCEP03730563","2025-09-26 08:45:00","11.3319","3.45094","27.348","0.882","7.32","1.265","3.468","0.36","0.19","30.2273","4.74919","9.75","0","SATNPRO1964","25.38","0.35548","5"],
    [61246,"HCEP03730563","2025-09-26 09:00:00","11.3307","3.45072","27.26","0.861","7.32","1.559","3.318","2.09","0.52","30.2261","4.74904","9.52","0","SATNPRO1964","25.308","0.35448","5"],
    [61247,"HCEP03730563","2025-09-26 09:15:00","11.3269","3.44993","27.221","0.851","7.32","1.065","2.989","0.15","0.12","30.2216","4.74846","9.42","0","SATNPRO1964","25.742","0.36052","5"],
    [61248,"HCEP03730563","2025-09-26 09:30:00","11.3171","3.44816","27.161","0.906","7.32","0.959","2.644","0.13","0.11","30.2124","4.74729","10.02","0","SATNPRO1964","26.31","0.3685","5"],
    [61249,"HCEP03730563","2025-09-26 09:45:00","11.3097","3.44721","27.123","0.981","7.33","1.175","3.307","0.27","0.69","30.2092","4.74695","10.85","0","SATNPRO1964","26.556","0.37196","5"],
    [61250,"HCEP03730563","2025-09-26 10:00:00","11.3002","3.44516","27.04","0.966","7.33","0.883","2.035","0.52","0.29","30.1971","4.74536","10.67","0","SATNPRO1964","26.580000000000002","0.37228","5"],
    [61251,"HCEP03730563","2025-09-26 10:15:00","11.3047","3.44602","27.004","0.962","7.33","0.934","2.423","0.1","0.34","30.2017","4.74596","10.64","0","SATNPRO1964","25.848","0.36204","5"],
    [61252,"HCEP03730563","2025-09-26 10:30:00","11.3062","3.44627","26.926","0.93","7.32","0.929","2.466","0.11","0.23","30.2031","4.74612","10.28","0","SATNPRO1964","25.852","0.36208","5"],
    [61253,"HCEP03730563","2025-09-26 10:45:00","11.3112","3.44692","26.891","0.899","7.32","0.937","2.575","0.11","0.29","30.2053","4.74636","9.94","0","SATNPRO1964","25.483999999999998","0.35698","5"],
    [61254,"HCEP03730563","2025-09-26 11:00:00","11.3145","3.4478","26.771","0.857","7.32","0.988","3.3","0.13","0.31","30.2112","4.74713","9.48","0","SATNPRO1964","24.798","0.34732","5"],
    [61255,"HCEP03730563","2025-09-26 11:15:00","11.3277","3.44998","26.7","0.779","7.31","0.955","3.243","0.13","0.21","30.2216","4.74842","8.62","0","SATNPRO1964","24.352","0.34106","5"],
    [61256,"HCEP03730563","2025-09-26 11:30:00","11.3441","3.45217","26.606","0.739","7.31","0.945","3.077","0.21","0.12","30.2295","4.74928","8.18","0","SATNPRO1964","24.674","0.34558","5"],
    [61257,"HCEP03730563","2025-09-26 11:45:00","11.3554","3.45348","26.516","0.764","7.31","0.987","3.108","0.13","0.14","30.233","4.74961","8.46","0","SATNPRO1964","25","0.35016","5"],
    [61258,"HCEP03730563","2025-09-26 12:00:00","11.3637","3.45436","26.416","0.837","7.32","0.93","2.958","0.11","0.15","30.2349","4.74974","9.26","0","SATNPRO1964","25.81","0.3615","5"],
    [61259,"HCEP03730563","2025-09-26 12:15:00","11.3681","3.45482","26.346","0.922","7.32","1.066","2.907","0.15","0.14","30.2357","4.74979","10.21","0","SATNPRO1964","26.262","0.36786","5"],
    [61260,"HCEP03730563","2025-09-26 12:30:00","11.3714","3.45515","26.3","0.993","7.33","0.91","2.938","0.14","0.23","30.2362","4.74982","11","0","SATNPRO1964","26.594","0.37246","5"],
    [61261,"HCEP03730563","2025-09-26 12:45:00","11.3731","3.45521","26.239","1.044","7.33","1.081","3.167","0.17","0.22","30.2355","4.74968","11.56","0","SATNPRO1964","26.792","0.37528","5"],
    [61262,"HCEP03730563","2025-09-26 13:00:00","11.3728","3.45478","26.2","1.109","7.34","1.161","2.834","0.38","0.2","30.2316","4.74913","12.28","0","SATNPRO1964","27.68","0.3877","5"],
    [61263,"HCEP03730563","2025-09-26 13:15:00","11.3728","3.45467","26.207","1.185","7.34","1.226","3.131","0.22","0.23","30.2305","4.74898","13.12","0","SATNPRO1964","27.66","0.38742","5"],
    [61264,"HCEP03730563","2025-09-26 13:30:00","11.374","3.45475","26.191","1.21","7.35","1.17","3.328","0.2","0.33","30.2303","4.74893","13.4","0","SATNPRO1964","27.688","0.38782","5"],
    [61265,"HCEP03730563","2025-09-26 13:45:00","11.3731","3.4546","26.211","1.221","7.35","1.148","3.315","0.14","0.24","30.2295","4.74883","13.52","0","SATNPRO1964","27.63","0.387","5"],
    [61266,"HCEP03730563","2025-09-26 14:00:00","11.3719","3.45447","26.263","1.218","7.35","1.131","3.352","0.2","0.24","30.2292","4.74881","13.48","0","SATNPRO1964","27.482","0.3849","5"],
    [61267,"HCEP03730563","2025-09-26 14:15:00","11.3704","3.45428","26.308","1.195","7.35","1.164","3.139","0.28","0.15","30.2286","4.74875","13.24","0","SATNPRO1964","27.308","0.38248","5"],
    [61268,"HCEP03730563","2025-09-26 14:30:00","11.3685","3.45404","26.369","1.169","7.35","1.119","3.215","0.31","0.27","30.2278","4.74867","12.94","0","SATNPRO1964","27.298000000000002","0.38234","5"],
    [61269,"HCEP03730563","2025-09-26 14:45:00","11.3654","3.45356","26.415","1.144","7.34","1.2","17.249","0.3","11.69","30.2257","4.74841","12.66","0","SATNPRO1964","26.944","0.37742","5"],
    [61270,"HCEP03730563","2025-09-26 15:00:00","11.3652","3.45359","26.513","1.125","7.34","0.981","2.891","0.15","0.14","30.2261","4.74849","12.45","0","SATNPRO1964","26.945999999999998","0.37742","5"],
    [61271,"HCEP03730563","2025-09-26 15:15:00","11.3634","3.45328","26.581","1.109","7.34","1.002","2.845","0.14","0.15","30.2245","4.74829","12.28","0","SATNPRO1964","27.058","0.37898","5"],
    [61272,"HCEP03730563","2025-09-26 15:30:00","11.3626","3.45305","26.636","1.104","7.34","0.955","2.796","0.12","0.19","30.2229","4.74808","12.22","0","SATNPRO1964","27.036","0.3787","5"],
    [61273,"HCEP03730563","2025-09-26 15:45:00","11.3634","3.45287","26.699","1.116","7.34","1.014","2.643","0.24","0.14","30.2205","4.74772","12.35","0","SATNPRO1964","27.15","0.3803","5"],
    [61274,"HCEP03730563","2025-09-26 16:00:00","11.3677","3.45314","26.782","1.146","7.34","1.077","2.714","0.25","0.16","30.2196","4.74754","12.68","0","SATNPRO1964","27.116","0.3798","5"],
    [61275,"HCEP03730563","2025-09-26 16:15:00","11.3673","3.45301","26.869","1.184","7.35","1.098","2.842","0.35","0.3","30.2186","4.74741","13.11","0","SATNPRO1964","27.472","0.38476","5"],
    [61276,"HCEP03730563","2025-09-26 16:30:00","11.3701","3.45325","26.934","1.204","7.35","1.256","2.94","0.43","0.28","30.2186","4.74737","13.33","0","SATNPRO1964","27.418","0.38402","5"],
    [61277,"HCEP03730563","2025-09-26 16:45:00","11.3727","3.45361","27.017","1.224","7.35","1.078","2.782","0.22","0.17","30.2199","4.74752","13.55","0","SATNPRO1964","27.334","0.38286","5"],
    [61278,"HCEP03730563","2025-09-26 17:00:00","11.3685","3.45316","27.07","1.213","7.35","0.939","2.969","0.17","0.49","30.2191","4.74747","13.43","0","SATNPRO1964","26.951999999999998","0.3775","5"],
    [61279,"HCEP03730563","2025-09-26 17:15:00","11.3661","3.45289","27.132","1.177","7.34","1.007","2.959","0.28","0.17","30.2183","4.74741","13.03","0","SATNPRO1964","26.756","0.37474","5"],
    [61280,"HCEP03730563","2025-09-26 17:30:00","11.3649","3.45278","27.19","1.155","7.34","0.988","2.869","0.36","0.16","30.2182","4.74741","12.78","0","SATNPRO1964","26.078","0.36524","5"],
    [61281,"HCEP03730563","2025-09-26 17:45:00","11.3615","3.45234","27.245","1.138","7.34","0.868","3.466","0.21","1.04","30.2166","4.74723","12.6","0","SATNPRO1964","26.748","0.37464","5"],
    [61282,"HCEP03730563","2025-09-26 18:00:00","11.3594","3.45212","27.305","1.117","7.34","0.904","3.199","0.24","0.72","30.2162","4.74721","12.37","0","SATNPRO1964","26.642","0.37318","5"],
    [61283,"HCEP03730563","2025-09-26 18:15:00","11.3595","3.45216","27.34","1.099","7.34","0.924","3.086","0.17","0.23","30.2165","4.74725","12.16","0","SATNPRO1964","26.356","0.3692","5"],
    [61284,"HCEP03730563","2025-09-26 18:30:00","11.3601","3.45225","27.361","1.086","7.34","0.8","3.023","0.14","0.13","30.2169","4.7473","12.02","0","SATNPRO1964","26.688","0.37384","5"],
    [61285,"HCEP03730563","2025-09-26 18:45:00","11.3589","3.4521","27.369","1.075","7.34","1.091","2.986","0.96","0.14","30.2164","4.74726","11.89","0","SATNPRO1964","27.56","0.38604","5"],
    [61286,"HCEP03730563","2025-09-26 19:00:00","11.3606","3.45232","27.35","1.073","7.34","0.729","2.941","0.1","0.08","30.2172","4.74735","11.87","0","SATNPRO1964","26.566","0.3721","5"],
    [61287,"HCEP03730563","2025-09-26 19:15:00","11.3622","3.45255","27.336","1.077","7.34","0.681","2.792","0.1","0.14","30.2182","4.74746","11.93","0","SATNPRO1964","26.524","0.3715","5"],
    [61288,"HCEP03730563","2025-09-26 19:30:00","11.3643","3.45285","27.306","1.08","7.34","0.739","2.762","0.18","0.08","30.2193","4.74758","11.96","0","SATNPRO1964","26.506","0.37128","5"],
    [61289,"HCEP03730563","2025-09-26 19:45:00","11.3673","3.45322","27.255","1.089","7.34","0.737","2.863","0.17","0.15","30.2205","4.7477","12.06","0","SATNPRO1964","26.624000000000002","0.37292","5"],
    [61290,"HCEP03730563","2025-09-26 20:00:00","11.3685","3.45338","27.186","1.102","7.34","0.699","2.805","0.14","0.1","30.2211","4.74777","12.2","0","SATNPRO1964","26.586","0.37238","5"],
    [61291,"HCEP03730563","2025-09-26 20:15:00","11.3687","3.45346","27.098","1.111","7.34","0.75","2.753","0.25","0.08","30.221800000000002","4.74785","12.3","0","SATNPRO1964","26.74","0.37454","5"],
    [61292,"HCEP03730563","2025-09-26 20:30:00","11.3718","3.4537","27.007","1.13","7.34","0.79","2.7","0.15","0.22","30.2216","4.74778","12.51","0","SATNPRO1964","26.968","0.37772","5"],
    [61293,"HCEP03730563","2025-09-26 20:45:00","11.3703","3.45344","26.893","1.168","7.34","0.812","2.794","0.11","0.1","30.2203","4.7476","12.93","0","SATNPRO1964","26.736","0.37452","5"],
    [61294,"HCEP03730563","2025-09-26 21:00:00","11.368","3.45321","26.767","1.154","7.34","0.946","3.159","0.19","0.16","30.2201","4.7476","12.78","0","SATNPRO1964","26.73","0.3744","5"],
    [61295,"HCEP03730563","2025-09-26 21:15:00","11.3642","3.45277","26.619","1.121","7.34","0.93","2.857","0.15","0.1","30.2188","4.74748","12.41","0","SATNPRO1964","26.492","0.37108","5"],
    [61296,"HCEP03730563","2025-09-26 21:30:00","11.3634","3.45263","26.489","1.112","7.34","0.817","2.783","0.1","0.08","30.2183","4.74741","12.31","0","SATNPRO1964","27.098","0.37956","5"],
    [61297,"HCEP03730563","2025-09-26 21:45:00","11.3632","3.45268","26.319","1.119","7.34","1.004","2.817","0.26","0.17","30.219","4.74749","12.38","0","SATNPRO1964","27.082","0.3793","5"],
    [61298,"HCEP03730563","2025-09-26 22:00:00","11.3622","3.45254","26.156","1.115","7.34","0.875","2.938","0.12","0.12","30.2185","4.74744","12.34","0","SATNPRO1964","27.008","0.37828","5"],
    [61299,"HCEP03730563","2025-09-26 22:15:00","11.3624","3.45259","25.973","1.104","7.34","0.935","2.952","0.31","0.21","30.2189","4.74747","12.22","0","SATNPRO1964","27.168","0.38052","5"],
    [61300,"HCEP03730563","2025-09-26 22:30:00","11.3633","3.45263","25.774","1.101","7.34","0.795","3.037","0.08","0.15","30.2186","4.74741","12.19","0","SATNPRO1964","27.09","0.37944","5"],
    [61301,"HCEP03730563","2025-09-26 22:45:00","11.3643","3.45277","25.597","1.113","7.34","0.799","2.819","0.09","0.3","30.2192","4.74747","12.32","0","SATNPRO1964","27.218","0.38118","5"],
    [61302,"HCEP03730563","2025-09-26 23:00:00","11.363","3.45265","25.421","1.125","7.34","0.752","2.672","0.1","0.19","30.2192","4.74748","12.45","0","SATNPRO1964","27.114","0.37974","5"],
    [61303,"HCEP03730563","2025-09-26 23:15:00","11.3638","3.4527","25.236","1.123","7.34","1.053","2.868","0.25","0.14","30.2191","4.74744","12.43","0","SATNPRO1964","27.128","0.38002","5"],
    [61304,"HCEP03730563","2025-09-26 23:30:00","11.3636","3.45262","25.066","1.118","7.34","0.895","2.949","0.18","0.11","30.2186","4.74736","12.37","0","SATNPRO1964","27.022","0.3785","5"],
    [61305,"HCEP03730563","2025-09-26 23:45:00","11.3655","3.45275","24.895","1.117","7.34","0.766","2.727","0.07","0.2","30.2183","4.74729","12.36","0","SATNPRO1964","27.258","0.3818","5"],
    [61306,"HCEP03730563","2025-09-27 00:00:00","11.3653","3.45273","24.759","1.138","7.34","0.916","2.672","0.68","0.06","30.2184","4.7473","12.6","0","SATNPRO1964","27.38","0.38352","5"],
    [61307,"HCEP03730563","2025-09-27 00:15:00","11.3658","3.45277","24.643","1.143","7.34","0.787","2.539","0.18","0.06","30.2184","4.74728","12.65","0","SATNPRO1964","27.35","0.38306","5"],
    [61308,"HCEP03730563","2025-09-27 00:30:00","11.3661","3.45273","24.55","1.156","7.34","0.713","2.413","0.06","0.04","30.2177","4.74718","12.8","0","SATNPRO1964","27.456","0.38458","5"],
    [61309,"HCEP03730563","2025-09-27 00:45:00","11.3652","3.45276","24.47","1.165","7.34","0.758","2.539","0.09","0.08","30.2188","4.74734","12.9","0","SATNPRO1964","27.392","0.38366","5"],
    [61310,"HCEP03730563","2025-09-27 01:00:00","11.365","3.45277","24.427","1.154","7.34","0.822","2.413","0.2","0.03","30.2191","4.74738","12.78","0","SATNPRO1964","27.442","0.38438","5"],
    [61311,"HCEP03730563","2025-09-27 01:15:00","11.3647","3.45272","24.4","1.15","7.34","0.85","2.503","0.13","0.07","30.2189","4.74735","12.73","0","SATNPRO1964","27.528","0.3856","5"],
    [61312,"HCEP03730563","2025-09-27 01:30:00","11.3638","3.45252","24.4","1.148","7.34","0.959","2.504","0.39","0.07","30.2176","4.74718","12.71","0","SATNPRO1964","27.434","0.38424","5"],
    [61313,"HCEP03730563","2025-09-27 01:45:00","11.3633","3.45285","24.423","1.132","7.34","0.937","2.799","0.21","0.3","30.2213","4.74771","12.53","0","SATNPRO1964","27.368","0.38338","5"],
    [61314,"HCEP03730563","2025-09-27 02:00:00","11.3634","3.45296","24.466","1.099","7.34","0.866","2.78","0.23","0.12","30.2223","4.74785","12.17","0","SATNPRO1964","26.317999999999998","0.3686","5"],
    [61315,"HCEP03730563","2025-09-27 02:15:00","11.3606","3.45181","24.508","1.121","7.34","0.89","2.444","0.2","0.09","30.2133","4.74663","12.4","0","SATNPRO1964","27.526","0.38556","5"],
    [61316,"HCEP03730563","2025-09-27 02:30:00","11.3619","3.45279","24.593","1.134","7.34","0.806","2.645","0.16","0.16","30.2217","4.74781","12.55","0","SATNPRO1964","27.098","0.37956","5"],
    [61317,"HCEP03730563","2025-09-27 02:45:00","11.3565","3.45101","24.662","1.108","7.34","0.614","2.075","0.17","0.06","30.2088","4.74606","12.26","0","SATNPRO1964","27.594","0.38648","5"],
    [61318,"HCEP03730563","2025-09-27 03:00:00","11.3364","3.44766","24.76","1.155","7.34","0.774","1.915","0.29","0.09","30.1928","4.7441","12.77","0","SATNPRO1964","26.976","0.37784","5"],
    [61319,"HCEP03730563","2025-09-27 03:15:00","11.3481","3.45059","24.905","1.124","7.34","0.783","2.456","0.11","0.16","30.2116","4.7466","12.43","0","SATNPRO1964","26.908","0.37688","5"],
    [61320,"HCEP03730563","2025-09-27 03:30:00","11.3523","3.45171","25.022","1.048","7.33","0.968","2.986","0.17","0.11","30.2189","4.74757","11.6","0","SATNPRO1964","26.376","0.36944","5"],
    [61321,"HCEP03730563","2025-09-27 03:45:00","11.3504","3.45151","25.143","1.001","7.33","1.221","3.169","0.31","0.15","30.2186","4.74756","11.08","0","SATNPRO1964","26.152","0.36628","5"],
    [61322,"HCEP03730563","2025-09-27 04:00:00","11.3512","3.45161","25.274","0.977","7.33","1.229","3.235","0.35","0.2","30.2188","4.74759","10.81","0","SATNPRO1964","26.168","0.3665","5"],
    [61323,"HCEP03730563","2025-09-27 04:15:00","11.3512","3.45123","25.408","0.973","7.33","1.141","3.072","0.23","0.2","30.215","4.74706","10.77","0","SATNPRO1964","26.328","0.36878","5"],
    [61324,"HCEP03730563","2025-09-27 04:30:00","11.35","3.45146","25.541","0.979","7.33","1.688","3.304","1.08","0.28","30.2183","4.74755","10.84","0","SATNPRO1964","26.106","0.36566","5"],
    [61325,"HCEP03730563","2025-09-27 04:45:00","11.3438","3.45017","25.706","0.969","7.33","1.26","3.212","0.28","0.2","30.2107","4.74657","10.72","0","SATNPRO1964","25.928","0.36312","5"],
    [61326,"HCEP03730563","2025-09-27 05:00:00","11.3359","3.44855","25.888","0.954","7.33","1.344","3.099","0.33","0.23","30.2013","4.74537","10.56","0","SATNPRO1964","25.674","0.35958","5"],
    [61327,"HCEP03730563","2025-09-27 05:15:00","11.3376","3.44921","26.054","0.934","7.32","1.451","3.265","0.41","0.36","30.2063","4.74607","10.33","0","SATNPRO1964","25.56","0.35802","5"],
    [61328,"HCEP03730563","2025-09-27 05:30:00","11.3367","3.44909","26.183","0.925","7.32","1.353","3.003","0.62","0.26","30.2058","4.74602","10.24","0","SATNPRO1964","25.724","0.36032","5"],
    [61329,"HCEP03730563","2025-09-27 05:45:00","11.3392","3.44959","26.341","0.922","7.32","1.234","3.412","0.2","0.17","30.2085","4.74637","10.2","0","SATNPRO1964","25.732","0.36042","5"],
    [61330,"HCEP03730563","2025-09-27 06:00:00","11.3439","3.4504","26.494","0.929","7.32","1.545","3.806","0.29","0.39","30.2125","4.74687","10.28","0","SATNPRO1964","25.958000000000002","0.36362","5"],
    [61331,"HCEP03730563","2025-09-27 06:15:00","11.3485","3.45118","26.64","0.942","7.32","1.134","3.297","0.33","0.45","30.2162","4.74734","10.42","0","SATNPRO1964","26.05","0.36488","5"],
    [61332,"HCEP03730563","2025-09-27 06:30:00","11.3504","3.45145","26.773","0.953","7.32","1.162","3.166","0.27","0.24","30.2173","4.74747","10.55","0","SATNPRO1964","26.382","0.36954","5"],
    [61333,"HCEP03730563","2025-09-27 06:45:00","11.3512","3.45152","26.902","0.959","7.33","1.241","2.947","0.51","0.2","30.2173","4.74746","10.61","0","SATNPRO1964","26.226","0.36732","5"],
    [61334,"HCEP03730563","2025-09-27 07:00:00","11.3485","3.45098","26.995","0.962","7.33","1.154","2.905","0.27","0.2","30.2142","4.74708","10.65","0","SATNPRO1964","26.15","0.36624","5"],
    [61335,"HCEP03730563","2025-09-27 07:15:00","11.3408","3.44991","27.091","0.953","7.32","1.383","3.131","0.56","0.37","30.2101","4.74661","10.54","0","SATNPRO1964","25.926","0.3631","5"],
    [61336,"HCEP03730563","2025-09-27 07:30:00","11.3365","3.44889","27.173","0.936","7.32","1.193","2.8","0.47","0.27","30.2036","4.74576","10.35","0","SATNPRO1964","26.156","0.36636","5"],
    [61337,"HCEP03730563","2025-09-27 07:45:00","11.3369","3.4491","27.229","0.922","7.32","1.235","2.882","0.39","0.13","30.2053","4.746","10.2","0","SATNPRO1964","25.802","0.3614","5"],
    [61338,"HCEP03730563","2025-09-27 08:00:00","11.3371","3.44859","27.279","0.918","7.32","0.981","2.877","0.51","0.34","30.2002","4.74527","10.16","0","SATNPRO1964","25.768","0.36088","5"],
    [61339,"HCEP03730563","2025-09-27 08:15:00","11.3443","3.45021","27.335","0.926","7.32","1.006","3.19","0.34","0.46","30.21","4.74655","10.25","0","SATNPRO1964","25.724","0.36032","5"],
    [61340,"HCEP03730563","2025-09-27 08:30:00","11.3441","3.44988","27.358","0.947","7.32","1.035","2.964","0.47","0.22","30.207","4.74613","10.48","0","SATNPRO1964","26.214","0.36718","5"],
    [61341,"HCEP03730563","2025-09-27 08:45:00","11.3495","3.45089","27.374","0.976","7.33","0.955","2.79","0.28","0.42","30.2124","4.74682","10.8","0","SATNPRO1964","26.82","0.37562","5"],
    [61342,"HCEP03730563","2025-09-27 09:00:00","11.3564","3.45194","27.377","1.004","7.33","0.723","2.523","0.15","0.19","30.2169","4.74737","11.11","0","SATNPRO1964","26.936","0.37724","5"],
    [61343,"HCEP03730563","2025-09-27 09:15:00","11.3473","3.44937","27.362","1.051","7.33","0.768","2.429","0.19","0.15","30.1993","4.74501","11.63","0","SATNPRO1964","27.284","0.38216","5"],
    [61344,"HCEP03730563","2025-09-27 09:30:00","11.3435","3.44827","27.342","1.102","7.33","1.365","3.186","0.22","0.45","30.1918","4.744","12.19","0","SATNPRO1964","27.31","0.3825","5"],
    [61345,"HCEP03730563","2025-09-27 09:45:00","11.3575","3.4514","27.319","1.136","7.34","0.835","2.273","0.37","0.17","30.2108","4.74648","12.58","0","SATNPRO1964","27.444","0.3844","5"],
    [61346,"HCEP03730563","2025-09-27 10:00:00","11.3571","3.45169","27.285","1.13","7.34","0.675","2.453","0.14","0.12","30.2139","4.74692","12.51","0","SATNPRO1964","27.224","0.38132","5"],
    [61347,"HCEP03730563","2025-09-27 10:15:00","11.3568","3.45182","27.264","1.085","7.33","0.727","2.411","0.21","0.05","30.2155","4.74715","12","0","SATNPRO1964","26.706","0.37404","5"],
    [61348,"HCEP03730563","2025-09-27 10:30:00","11.3564","3.45189","27.224","1.034","7.33","0.676","2.61","0.06","0.18","30.2165","4.74729","11.45","0","SATNPRO1964","26.598","0.37256","5"],
    [61349,"HCEP03730563","2025-09-27 10:45:00","11.355","3.45163","27.181","1.02","7.33","0.852","2.526","0.17","0.07","30.2151","4.74711","11.29","0","SATNPRO1964","26.806","0.37548","5"],
    [61350,"HCEP03730563","2025-09-27 11:00:00","11.3513","3.45087","27.121","1.013","7.33","0.706","2.403","0.19","0.12","30.2108","4.74655","11.21","0","SATNPRO1964","26.733999999999998","0.37448","5"],
    [61351,"HCEP03730563","2025-09-27 11:15:00","11.3478","3.45017","27.058","0.998","7.33","0.776","2.458","0.27","0.11","30.2068","4.74604","11.04","0","SATNPRO1964","26.592","0.37248","5"],
    [61352,"HCEP03730563","2025-09-27 11:30:00","11.351","3.45098","26.988","0.98","7.33","1.183","2.794","0.82","0.34","30.2122","4.74676","10.84","0","SATNPRO1964","26.532","0.37164","5"],
    [61353,"HCEP03730563","2025-09-27 11:45:00","11.354","3.45166","26.939","0.958","7.32","1.804","8.182","0.85","5.21","30.2163","4.74729","10.6","0","SATNPRO1964","26.344","0.36902","5"],
    [61354,"HCEP03730563","2025-09-27 12:00:00","11.3542","3.45164","26.882","0.941","7.32","0.978","2.846","0.38","0.3","30.216","4.74723","10.41","0","SATNPRO1964","26.438","0.3703","5"],
    [61355,"HCEP03730563","2025-09-27 12:15:00","11.3539","3.45158","26.813","0.932","7.32","0.781","2.883","0.12","0.12","30.2157","4.74719","10.31","0","SATNPRO1964","26.208000000000002","0.36708","5"],
    [61356,"HCEP03730563","2025-09-27 12:30:00","11.3538","3.45138","26.752","0.93","7.32","0.83","2.754","0.18","0.1","30.2138","4.74692","10.29","0","SATNPRO1964","26.362000000000002","0.36926","5"],
    [61357,"HCEP03730563","2025-09-27 12:45:00","11.3531","3.45133","26.677","0.927","7.32","0.987","3.297","0.61","0.85","30.2139","4.74694","10.26","0","SATNPRO1964","26.052","0.36488","5"],
    [61358,"HCEP03730563","2025-09-27 13:00:00","11.3532","3.45124","26.613","0.915","7.32","0.727","3.092","0.1","0.3","30.213","4.74681","10.13","0","SATNPRO1964","26.152","0.36634","5"],
    [61359,"HCEP03730563","2025-09-27 13:15:00","11.3527","3.45112","26.569","0.906","7.32","0.948","2.957","0.2","0.12","30.2123","4.74672","10.03","0","SATNPRO1964","26","0.36418","5"],
    [61360,"HCEP03730563","2025-09-27 13:30:00","11.3522","3.45108","26.521","0.896","7.32","0.694","2.825","0.25","0.14","30.2123","4.74673","9.92","0","SATNPRO1964","25.994","0.36408","5"],
    [61361,"HCEP03730563","2025-09-27 13:45:00","11.352","3.45106","26.498","0.884","7.32","0.908","3.023","0.5","0.25","30.2123","4.74673","9.78","0","SATNPRO1964","25.712","0.36012","5"],
    [61362,"HCEP03730563","2025-09-27 14:00:00","11.3518","3.45097","26.492","0.877","7.32","0.75","2.79","0.21","0.14","30.2116","4.74662","9.71","0","SATNPRO1964","25.932","0.36318","5"],
    [61363,"HCEP03730563","2025-09-27 14:15:00","11.3517","3.45098","26.485","0.882","7.32","0.695","2.861","0.14","0.11","30.2118","4.74665","9.76","0","SATNPRO1964","25.887999999999998","0.36256","5"],
    [61364,"HCEP03730563","2025-09-27 14:30:00","11.3518","3.45096","26.506","0.882","7.32","0.666","2.967","0.14","0.33","30.2115","4.74661","9.76","0","SATNPRO1964","25.736","0.36044","5"],
    [61365,"HCEP03730563","2025-09-27 14:45:00","11.3517","3.45102","26.531","0.882","7.32","0.672","2.887","0.12","0.1","30.2121","4.7467","9.76","0","SATNPRO1964","25.88","0.3625","5"],
    [61366,"HCEP03730563","2025-09-27 15:00:00","11.3514","3.45103","26.564","0.872","7.31","0.689","3.139","0.11","0.22","30.2125","4.74677","9.65","0","SATNPRO1964","25.806","0.36144","5"],
    [61367,"HCEP03730563","2025-09-27 15:15:00","11.3502","3.4509","26.611","0.87","7.31","0.716","3.026","0.1","0.14","30.2123","4.74675","9.62","0","SATNPRO1964","26.048000000000002","0.3648","5"],
    [61368,"HCEP03730563","2025-09-27 15:30:00","11.3504","3.45082","26.649","0.885","7.32","0.638","2.729","0.1","0.13","30.2112","4.7466","9.79","0","SATNPRO1964","26.104","0.36564","5"],
    [61369,"HCEP03730563","2025-09-27 15:45:00","11.3488","3.45065","26.696","0.894","7.31","0.814","2.992","0.72","0.43","30.2109","4.74658","9.89","0","SATNPRO1964","26.012","0.36432","5"],
    [61370,"HCEP03730563","2025-09-27 16:00:00","11.3471","3.45041","26.743","0.891","7.31","0.771","2.688","0.23","0.12","30.2099","4.74647","9.85","0","SATNPRO1964","26.47","0.37074","5"],
    [61371,"HCEP03730563","2025-09-27 16:15:00","11.3441","3.45012","26.775","0.88","7.31","0.838","3.05","0.17","0.11","30.2095","4.74646","9.73","0","SATNPRO1964","25.822","0.36168","5"],
    [61372,"HCEP03730563","2025-09-27 16:30:00","11.3452","3.4506","26.795","0.858","7.31","0.896","3.089","0.14","0.25","30.2134","4.74699","9.5","0","SATNPRO1964","25.75","0.36066","5"],
    [61373,"HCEP03730563","2025-09-27 16:45:00","11.3463","3.45073","26.791","0.845","7.31","1.236","3.542","0.2","0.3","30.2137","4.74702","9.35","0","SATNPRO1964","25.928","0.36318","5"],
    [61374,"HCEP03730563","2025-09-27 17:00:00","11.3901","3.45527","26.885","0.955","7.33","1.15","2.774","0.23","0.27","30.2219","4.74754","10.57","0","SATNPRO1964","26.936","0.37728","5"],
    [61375,"HCEP03730563","2025-09-27 17:15:00","11.4211","3.45877","26.945","1.343","7.35","1.419","2.799","0.25","0.36","30.2305","4.74831","14.88","0","SATNPRO1964","28.716","0.40224","5"],
    [61376,"HCEP03730563","2025-09-27 17:30:00","11.438","3.46096","26.962","1.586","7.37","1.856","3.627","0.42","0.42","30.2378","4.7491","17.58","0","SATNPRO1964","29.172","0.40856","5"],
    [61377,"HCEP03730563","2025-09-27 17:45:00","11.446","3.46207","27.055","1.723","7.38","1.609","3.033","0.22","0.26","30.2421","4.74959","19.11","0","SATNPRO1964","29.63","0.41504","5"],
    [61378,"HCEP03730563","2025-09-27 18:00:00","11.4442","3.46214","27.063","1.786","7.39","1.587","2.807","0.63","0.31","30.2442","4.74992","19.81","0","SATNPRO1964","29.814","0.41758","5"],
    [61379,"HCEP03730563","2025-09-27 18:15:00","11.4334","3.46137","27.119","1.775","7.39","1.487","3.061","0.47","0.39","30.2456","4.75027","19.68","0","SATNPRO1964","29.588","0.41446","5"],
    [61380,"HCEP03730563","2025-09-27 18:30:00","11.4308","3.46135","27.135","1.718","7.39","1.246","2.529","0.32","0.36","30.2475","4.75058","19.04","0","SATNPRO1964","29.742","0.41658","5"],
    [61381,"HCEP03730563","2025-09-27 18:45:00","11.4425","3.46286","27.135","1.712","7.39","1.542","2.953","0.4","0.64","30.2526","4.75113","18.98","0","SATNPRO1964","29.996","0.42014","5"],
    [61382,"HCEP03730563","2025-09-27 19:00:00","11.4529","3.46422","27.148","1.775","7.4","1.265","2.595","0.31","0.36","30.2573","4.75165","19.69","0","SATNPRO1964","30.042","0.42082","5"],
    [61383,"HCEP03730563","2025-09-27 19:15:00","11.4549","3.46439","27.142","1.822","7.4","1.397","2.96","0.44","0.26","30.2573","4.75161","20.21","0","SATNPRO1964","29.912","0.41896","5"],
    [61384,"HCEP03730563","2025-09-27 19:30:00","11.456","3.46439","27.128","1.837","7.4","1.433","2.886","0.51","0.32","30.2563","4.75146","20.38","0","SATNPRO1964","29.822","0.41776","5"],
    [61385,"HCEP03730563","2025-09-27 19:45:00","11.4603","3.46509","27.127","1.844","7.41","1.378","3.119","0.25","0.53","30.2597","4.75187","20.46","0","SATNPRO1964","29.972","0.41982","5"],
    [61386,"HCEP03730563","2025-09-27 20:00:00","11.4633","3.46557","27.083","1.86","7.41","1.294","3.174","0.22","0.68","30.2619","4.75214","20.64","0","SATNPRO1964","29.942","0.41936","5"],
    [61387,"HCEP03730563","2025-09-27 20:15:00","11.4617","3.46537","27.039","1.864","7.41","1.201","2.798","0.31","0.71","30.2612","4.75206","20.69","0","SATNPRO1964","29.972","0.41978","5"],
    [61388,"HCEP03730563","2025-09-27 20:30:00","11.4646","3.46588","26.988","1.864","7.41","1.178","2.668","0.33","0.26","30.2639","4.7524","20.68","0","SATNPRO1964","29.994","0.42012","5"],
    [61389,"HCEP03730563","2025-09-27 20:45:00","11.4636","3.46575","26.934","1.86","7.41","1.201","2.765","0.32","0.32","30.2633","4.75233","20.64","0","SATNPRO1964","29.768","0.41692","5"],
    [61390,"HCEP03730563","2025-09-27 21:00:00","11.4585","3.46512","26.846","1.842","7.41","0.983","2.491","0.24","0.23","30.2615","4.75214","20.44","0","SATNPRO1964","29.63","0.41502","5"],
    [61391,"HCEP03730563","2025-09-27 21:15:00","11.456","3.46472","26.748","1.811","7.41","1.153","2.532","0.46","0.17","30.2596","4.75191","20.09","0","SATNPRO1964","29.552","0.41394","5"],
    [61392,"HCEP03730563","2025-09-27 21:30:00","11.4561","3.4647","26.642","1.793","7.4","0.893","2.4","0.15","0.16","30.2594","4.75188","19.89","0","SATNPRO1964","29.48","0.4129","5"],
    [61393,"HCEP03730563","2025-09-27 21:45:00","11.4551","3.46436","26.518","1.793","7.4","0.856","2.229","0.25","0.3","30.2571","4.75155","19.89","0","SATNPRO1964","29.946","0.41944","5"],
    [61394,"HCEP03730563","2025-09-27 22:00:00","11.417","3.45991","26.384","1.702","7.39","1.07","2.558","0.51","0.11","30.2451","4.7504","18.87","0","SATNPRO1964","28.416","0.39802","5"],
    [61395,"HCEP03730563","2025-09-27 22:15:00","11.4198","3.46019","26.241","1.531","7.38","1.006","2.747","0.22","0.15","30.2456","4.75043","16.97","0","SATNPRO1964","28.41","0.39792","5"],
    [61396,"HCEP03730563","2025-09-27 22:30:00","11.417","3.46008","26.108","1.467","7.38","0.91","2.865","0.11","0.16","30.2469","4.75065","16.26","0","SATNPRO1964","27.918","0.391","5"],
    [61397,"HCEP03730563","2025-09-27 22:45:00","11.4162","3.46006","25.931","1.433","7.37","1.046","2.971","0.21","0.13","30.2474","4.75071","15.88","0","SATNPRO1964","27.998","0.39214","5"],
    [61398,"HCEP03730563","2025-09-27 23:00:00","11.4106","3.45946","25.783","1.398","7.37","0.9","3.22","0.21","0.25","30.2462","4.75063","15.5","0","SATNPRO1964","27.848","0.39008","5"],
    [61399,"HCEP03730563","2025-09-27 23:15:00","11.4006","3.45822","25.612","1.343","7.36","0.829","2.991","0.11","0.11","30.2424","4.75023","14.88","0","SATNPRO1964","27.24","0.38154","5"],
    [61400,"HCEP03730563","2025-09-27 23:30:00","11.4006","3.45827","25.459","1.285","7.36","0.828","3.188","0.11","0.49","30.2429","4.75029","14.23","0","SATNPRO1964","27.476","0.38484","5"],
    [61401,"HCEP03730563","2025-09-27 23:45:00","11.3994","3.45806","25.299","1.254","7.36","0.824","3.398","0.13","0.38","30.242","4.75016","13.9","0","SATNPRO1964","27.364","0.3833","5"],
    [61402,"HCEP03730563","2025-09-28 00:00:00","11.4437","3.46362","25.16","1.345","7.37","0.839","3.092","0.13","0.18","30.2597","4.75201","14.92","0","SATNPRO1964","29.201999999999998","0.409","5"],
    [61403,"HCEP03730563","2025-09-28 00:15:00","11.4494","3.46461","25.026","1.569","7.38","0.975","3.088","0.22","0.21","30.2647","4.75263","17.4","0","SATNPRO1964","29.252","0.40974","5"],
    [61404,"HCEP03730563","2025-09-28 00:30:00","11.4535","3.46532","24.901","1.642","7.39","0.953","3.289","0.21","0.47","30.2683","4.75308","18.22","0","SATNPRO1964","28.89","0.40464","5"],
    [61405,"HCEP03730563","2025-09-28 00:45:00","11.4593","3.46643","24.786","1.675","7.39","1.109","3.114","0.3","0.18","30.2743","4.75383","18.59","0","SATNPRO1964","29.134","0.40806","5"],
    [61406,"HCEP03730563","2025-09-28 01:00:00","11.4771","3.46887","24.671","1.734","7.4","1.274","3.175","1.07","0.35","30.2835","4.75487","19.25","0","SATNPRO1964","29.37","0.4114","5"],
    [61407,"HCEP03730563","2025-09-28 01:15:00","11.5021","3.47218","24.578","1.863","7.41","0.982","3.099","0.15","0.33","30.2951","4.75614","20.69","0","SATNPRO1964","29.972","0.41978","5"],
    [61408,"HCEP03730563","2025-09-28 01:30:00","11.5156","3.47407","24.495","1.992","7.42","1.093","2.687","0.68","0.2","30.3023","4.75696","22.13","0","SATNPRO1964","30.194","0.42292","5"],
    [61409,"HCEP03730563","2025-09-28 01:45:00","11.5301","3.47592","24.47","2.08","7.43","1.027","2.805","0.31","0.3","30.3084","4.75761","23.12","0","SATNPRO1964","30.25","0.42372","5"],
    [61410,"HCEP03730563","2025-09-28 02:00:00","11.5243","3.47524","24.462","2.129","7.43","1.131","2.786","0.65","0.28","30.3066","4.75744","23.66","0","SATNPRO1964","30.09","0.42146","5"],
    [61411,"HCEP03730563","2025-09-28 02:15:00","11.5309","3.47621","24.455","2.132","7.43","1.299","2.977","0.47","0.2","30.3106","4.7579","23.7","0","SATNPRO1964","30.362","0.42528","5"],
    [61412,"HCEP03730563","2025-09-28 02:30:00","11.5387","3.47741","24.461","2.162","7.44","1.04","2.749","0.23","0.17","30.3158","4.75853","24.04","0","SATNPRO1964","30.374","0.42544","5"],
    [61413,"HCEP03730563","2025-09-28 02:45:00","11.5477","3.47892","24.496","2.189","7.44","1.257","3.163","0.3","0.31","30.323","4.75942","24.34","0","SATNPRO1964","30.15","0.4223","5"],
    [61414,"HCEP03730563","2025-09-28 03:00:00","11.5663","3.48148","24.542","2.226","7.45","0.87","2.808","0.11","0.19","30.3326","4.76051","24.77","0","SATNPRO1964","30.794","0.43132","5"],
    [61415,"HCEP03730563","2025-09-28 03:15:00","11.5722","3.48237","24.607","2.282","7.45","1.203","3.143","0.6","0.47","30.3363","4.76095","25.39","0","SATNPRO1964","30.564","0.42812","5"],
    [61416,"HCEP03730563","2025-09-28 03:30:00","11.5734","3.48263","24.685","2.302","7.45","1.529","7.578","0.3","0.98","30.3379","4.76116","25.62","0","SATNPRO1964","30.47","0.42674","5"],
    [61417,"HCEP03730563","2025-09-28 03:45:00","11.5731","3.48279","24.78","2.3","7.46","1.141","4.223","0.31","0.24","30.3397","4.76142","25.59","0","SATNPRO1964","30.471999999999998","0.4268","5"],
    [61418,"HCEP03730563","2025-09-28 04:00:00","11.5831","3.4842","24.868","2.315","7.46","0.705","3.247","0.13","0.18","30.3449","4.76202","25.77","0","SATNPRO1964","30.656","0.42938","5"],
    [61419,"HCEP03730563","2025-09-28 04:15:00","11.5847","3.48468","24.985","2.348","7.46","0.747","3.122","0.13","0.28","30.3483","4.76248","26.13","0","SATNPRO1964","30.474","0.42684","5"],
    [61420,"HCEP03730563","2025-09-28 04:30:00","11.5858","3.48483","25.099","2.364","7.46","0.816","3.702","0.27","0.76","30.3488","4.76254","26.31","0","SATNPRO1964","30.578","0.4283","5"],
    [61421,"HCEP03730563","2025-09-28 04:45:00","11.5913","3.4857","25.231","2.378","7.47","0.817","3.037","0.25","0.18","30.3526","4.76302","26.47","0","SATNPRO1964","30.622","0.42892","5"],
    [61422,"HCEP03730563","2025-09-28 05:00:00","11.5921","3.48582","25.348","2.407","7.47","0.913","3.266","0.33","0.28","30.3531","4.76308","26.8","0","SATNPRO1964","30.962","0.4337","5"],
    [61423,"HCEP03730563","2025-09-28 05:15:00","11.5959","3.48623","25.497","2.413","7.47","0.826","3.306","0.18","0.2","30.354","4.76315","26.86","0","SATNPRO1964","30.666","0.42956","5"],
    [61424,"HCEP03730563","2025-09-28 05:30:00","11.5949","3.48625","25.644","2.422","7.47","0.778","3.066","0.2","0.18","30.3548","4.7633","26.97","0","SATNPRO1964","30.772000000000002","0.43102","5"],
    [61425,"HCEP03730563","2025-09-28 05:45:00","11.5985","3.48675","25.801","2.434","7.47","0.888","3.183","0.23","0.55","30.3567","4.76351","27.1","0","SATNPRO1964","30.596","0.42854","5"],
    [61426,"HCEP03730563","2025-09-28 06:00:00","11.5959","3.48634","25.95","2.444","7.47","0.833","3.344","0.2","0.24","30.3548","4.7633","27.21","0","SATNPRO1964","30.532","0.42766","5"],
    [61427,"HCEP03730563","2025-09-28 06:15:00","11.5909","3.48575","26.125","2.412","7.47","0.951","3.547","0.52","0.16","30.3531","4.76314","26.85","0","SATNPRO1964","30.599999999999998","0.42862","5"],
    [61428,"HCEP03730563","2025-09-28 06:30:00","11.5927","3.48603","26.276","2.385","7.47","0.685","3.377","0.05","0.17","30.3543","4.7633","26.55","0","SATNPRO1964","30.526","0.4276","5"],
    [61429,"HCEP03730563","2025-09-28 06:45:00","11.6031","3.48729","26.42","2.41","7.47","1.107","4.348","0.11","0.23","30.3578","4.76364","26.84","0","SATNPRO1964","30.77","0.43096","5"],
    [61430,"HCEP03730563","2025-09-28 07:00:00","11.6025","3.48737","26.55","2.457","7.47","0.739","2.952","0.27","0.18","30.3591","4.76384","27.36","0","SATNPRO1964","30.836000000000002","0.43192","5"],
    [61431,"HCEP03730563","2025-09-28 07:15:00","11.6005","3.48714","26.674","2.454","7.47","0.718","2.705","0.34","0.15","30.3584","4.76379","27.33","0","SATNPRO1964","30.694","0.42988","5"],
    [61432,"HCEP03730563","2025-09-28 07:30:00","11.5966","3.48662","26.782","2.432","7.47","0.745","3.341","0.22","0.44","30.3566","4.76359","27.08","0","SATNPRO1964","30.828","0.43178","5"],
    [61433,"HCEP03730563","2025-09-28 07:45:00","11.6019","3.48715","26.886","2.417","7.47","0.672","2.636","0.12","0.16","30.3573","4.76362","26.92","0","SATNPRO1964","30.648","0.42928","5"],
    [61434,"HCEP03730563","2025-09-28 08:00:00","11.5935","3.48625","26.982","2.42","7.47","0.949","4.073","0.09","0.3","30.3555","4.76348","26.94","0","SATNPRO1964","30.546","0.42784","5"],
    [61435,"HCEP03730563","2025-09-28 08:15:00","11.5911","3.48601","27.066","2.37","7.47","0.74","3.014","0.25","0.2","30.3551","4.76347","26.39","0","SATNPRO1964","30.21","0.42314","5"],
    [61436,"HCEP03730563","2025-09-28 08:30:00","11.5941","3.48639","27.126","2.343","7.47","0.657","2.547","0.11","0.13","30.3562","4.76359","26.09","0","SATNPRO1964","30.442","0.42636","5"],
    [61437,"HCEP03730563","2025-09-28 08:45:00","11.5899","3.48581","27.172","2.34","7.46","1.841","8.671","1.36","7.53","30.3541","4.76335","26.05","0","SATNPRO1964","30.358","0.4252","5"],
    [61438,"HCEP03730563","2025-09-28 09:00:00","11.586","3.48536","27.222","2.306","7.46","0.768","3.353","0.13","0.32","30.3529","4.76324","25.67","0","SATNPRO1964","30.118","0.42184","5"],
    [61439,"HCEP03730563","2025-09-28 09:15:00","11.5836","3.48507","27.25","2.269","7.46","0.833","3.424","0.3","0.24","30.352","4.76315","25.26","0","SATNPRO1964","30.28","0.42412","5"],
    [61440,"HCEP03730563","2025-09-28 09:30:00","11.5779","3.48422","27.271","2.234","7.45","0.861","3.387","0.18","0.3","30.3485","4.76275","24.86","0","SATNPRO1964","30.032","0.42064","5"],
    [61441,"HCEP03730563","2025-09-28 09:45:00","11.5724","3.4835","27.287","2.193","7.45","0.796","3.204","0.24","0.21","30.3461","4.76248","24.41","0","SATNPRO1964","30.136","0.42208","5"],
    [61442,"HCEP03730563","2025-09-28 10:00:00","11.5664","3.48242","27.286","2.169","7.45","0.928","3.524","0.4","0.2","30.3404","4.76177","24.14","0","SATNPRO1964","29.866","0.41828","5"],
    [61443,"HCEP03730563","2025-09-28 10:15:00","11.561","3.48161","27.305","2.146","7.45","0.809","2.818","0.09","0.16","30.3371","4.76138","23.87","0","SATNPRO1964","30.204","0.423","5"],
    [61444,"HCEP03730563","2025-09-28 10:30:00","11.5558","3.48071","27.3","2.137","7.45","0.831","2.72","0.26","0.21","30.3326","4.76082","23.77","0","SATNPRO1964","30.195999999999998","0.42292","5"],
    [61445,"HCEP03730563","2025-09-28 10:45:00","11.5536","3.48026","27.278","2.139","7.44","0.747","2.483","0.16","0.13","30.3301","4.76048","23.79","0","SATNPRO1964","30.318","0.42462","5"],
    [61446,"HCEP03730563","2025-09-28 11:00:00","11.5565","3.48073","27.254","2.139","7.44","0.781","2.533","0.24","0.13","30.3323","4.76076","23.79","0","SATNPRO1964","30.144000000000002","0.4222","5"],
    [61447,"HCEP03730563","2025-09-28 11:15:00","11.5618","3.48163","27.216","2.136","7.44","0.769","2.658","0.12","0.13","30.3366","4.76129","23.76","0","SATNPRO1964","30.03","0.42066","5"],
    [61448,"HCEP03730563","2025-09-28 11:30:00","11.5655","3.48243","27.196","2.134","7.44","0.717","2.861","0.11","0.19","30.3413","4.7619","23.74","0","SATNPRO1964","29.830000000000002","0.41784","5"],
    [61449,"HCEP03730563","2025-09-28 11:45:00","11.5652","3.48236","27.162","2.129","7.44","0.725","2.761","0.08","0.15","30.341","4.76186","23.69","0","SATNPRO1964","29.887999999999998","0.41864","5"],
    [61450,"HCEP03730563","2025-09-28 12:00:00","11.5649","3.48226","27.097","2.12","7.44","0.763","2.916","0.14","0.13","30.3402","4.76175","23.59","0","SATNPRO1964","30.056","0.42098","5"],
    [61451,"HCEP03730563","2025-09-28 12:15:00","11.5697","3.48274","27.077","2.127","7.44","0.749","3.062","0.15","0.18","30.341","4.76179","23.67","0","SATNPRO1964","30.11","0.42176","5"],
    [61452,"HCEP03730563","2025-09-28 12:30:00","11.5663","3.48272","27.005","2.127","7.44","0.766","3.702","0.08","0.71","30.3435","4.76219","23.66","0","SATNPRO1964","29.576","0.41428","5"],
    [61453,"HCEP03730563","2025-09-28 12:45:00","11.5591","3.48139","26.979","2.069","7.44","0.701","2.88","0.07","0.13","30.3367","4.76132","23.01","0","SATNPRO1964","29.94","0.4194","5"],
    [61454,"HCEP03730563","2025-09-28 13:00:00","11.5591","3.48164","26.957","2.053","7.44","0.728","3.421","0.08","0.17","30.3391","4.76167","22.83","0","SATNPRO1964","29.604","0.41464","5"],
    [61455,"HCEP03730563","2025-09-28 13:15:00","11.5583","3.48164","26.902","2.014","7.43","0.782","3.345","0.08","0.14","30.3397","4.76176","22.4","0","SATNPRO1964","29.456","0.41254","5"],
    [61456,"HCEP03730563","2025-09-28 13:30:00","11.5557","3.48107","26.816","1.983","7.43","0.653","3.201","0.06","0.19","30.3364","4.76132","22.06","0","SATNPRO1964","29.522","0.41354","5"],
    [61457,"HCEP03730563","2025-09-28 13:45:00","11.5537","3.48089","26.76","1.971","7.43","0.679","3.227","0.07","0.13","30.3363","4.76133","21.93","0","SATNPRO1964","29.506","0.41328","5"],
    [61458,"HCEP03730563","2025-09-28 14:00:00","11.5511","3.48053","26.725","1.945","7.43","0.706","3.471","0.09","0.26","30.3349","4.76118","21.63","0","SATNPRO1964","29.398","0.41176","5"],
    [61459,"HCEP03730563","2025-09-28 14:15:00","11.548400000000001","3.48005","26.742","1.925","7.42","0.726","3.46","0.14","0.22","30.3326","4.76088","21.41","0","SATNPRO1964","29.342","0.41098","5"],
    [61460,"HCEP03730563","2025-09-28 14:30:00","11.5431","3.47952","26.736","1.91","7.42","0.627","3.326","0.05","0.2","30.3317","4.76084","21.24","0","SATNPRO1964","29.426000000000002","0.41212","5"],
    [61461,"HCEP03730563","2025-09-28 14:45:00","11.5412","3.47884","26.727","1.9","7.42","0.639","3.2","0.06","0.16","30.3267","4.76016","21.12","0","SATNPRO1964","29.323999999999998","0.41076","5"],
    [61462,"HCEP03730563","2025-09-28 15:00:00","11.5384","3.47855","26.703","1.893","7.42","0.689","3.377","0.14","0.33","30.3262","4.76012","21.05","0","SATNPRO1964","29.418","0.41208","5"],
    [61463,"HCEP03730563","2025-09-28 15:15:00","11.522","3.47508","26.737","1.896","7.42","0.588","2.296","0.13","0.13","30.3061","4.75752","21.07","0","SATNPRO1964","29.894","0.4187","5"],
    [61464,"HCEP03730563","2025-09-28 15:30:00","11.5167","3.4746","26.746","1.915","7.42","0.595","2.212","0.1","0.11","30.3057","4.75755","21.28","0","SATNPRO1964","29.852","0.41814","5"],
    [61465,"HCEP03730563","2025-09-28 15:45:00","11.5061","3.47251","26.752","1.932","7.42","0.613","2.151","0.14","0.09","30.2941","4.75606","21.47","0","SATNPRO1964","29.968","0.41974","5"],
    [61466,"HCEP03730563","2025-09-28 16:00:00","11.519","3.47465","26.744","1.949","7.42","0.554","2.22","0.08","0.13","30.3044","4.75733","21.66","0","SATNPRO1964","30.108","0.42172","5"],
    [61467,"HCEP03730563","2025-09-28 16:15:00","11.5528","3.48128","26.754","1.957","7.42","0.749","3.266","0.15","0.25","30.3408","4.76199","21.77","0","SATNPRO1964","29.106","0.40768","5"],
    [61468,"HCEP03730563","2025-09-28 16:30:00","11.56","3.48217","26.788","1.924","7.42","0.944","3.533","0.21","0.16","30.3435","4.76227","21.4","0","SATNPRO1964","28.988","0.40604","5"],
    [61469,"HCEP03730563","2025-09-28 16:45:00","11.5641","3.48276","26.803","1.923","7.42","1.218","3.743","0.24","0.27","30.3459","4.76254","21.39","0","SATNPRO1964","29.054000000000002","0.40696","5"],
    [61470,"HCEP03730563","2025-09-28 17:00:00","11.5689","3.4835","26.843","1.943","7.42","1.033","3.211","0.2","0.23","30.349","4.76292","21.62","0","SATNPRO1964","29.038","0.4067","5"],
    [61471,"HCEP03730563","2025-09-28 17:15:00","11.5716","3.48392","26.861","1.968","7.43","0.952","3.245","0.19","0.19","30.3509","4.76314","21.9","0","SATNPRO1964","29.054","0.40692","5"],
    [61472,"HCEP03730563","2025-09-28 17:30:00","11.5746","3.48437","26.899","1.979","7.43","1.051","3.149","0.18","0.23","30.3528","4.76337","22.03","0","SATNPRO1964","29.018","0.40648","5"],
    [61473,"HCEP03730563","2025-09-28 17:45:00","11.576","3.48465","26.936","1.99","7.43","1.054","3.752","0.17","0.28","30.3543","4.76357","22.15","0","SATNPRO1964","28.974","0.40582","5"],
    [61474,"HCEP03730563","2025-09-28 18:00:00","11.5802","3.48517","26.959","2.003","7.43","1.049","3.525","0.18","0.16","30.3559","4.76373","22.3","0","SATNPRO1964","28.878","0.40454","5"],
    [61475,"HCEP03730563","2025-09-28 18:15:00","11.5825","3.48543","26.99","2.032","7.43","1.135","3.263","0.27","0.26","30.3565","4.7638","22.62","0","SATNPRO1964","29.381999999999998","0.41156","5"],
    [61476,"HCEP03730563","2025-09-28 18:30:00","11.5829","3.48536","27.015","2.07","7.44","0.943","3.234","0.32","0.36","30.3555","4.76364","23.04","0","SATNPRO1964","29.5","0.41318","5"],
    [61477,"HCEP03730563","2025-09-28 18:45:00","11.5853","3.48574","27.064","2.095","7.44","0.906","3.419","0.11","0.32","30.3571","4.76384","23.32","0","SATNPRO1964","29.536","0.41374","5"],
    [61478,"HCEP03730563","2025-09-28 19:00:00","11.5851","3.48571","27.115","2.105","7.44","0.839","2.819","0.1","0.16","30.3571","4.76384","23.43","0","SATNPRO1964","29.451999999999998","0.41254","5"],
    [61479,"HCEP03730563","2025-09-28 19:15:00","11.5821","3.48516","27.165","2.113","7.44","0.782","2.564","0.08","0.19","30.3542","4.76348","23.52","0","SATNPRO1964","29.882","0.41854","5"],
    [61480,"HCEP03730563","2025-09-28 19:30:00","11.5806","3.4851","27.104","2.125","7.44","0.779","2.735","0.11","0.08","30.3548","4.76358","23.66","0","SATNPRO1964","29.544","0.4138","5"],
    [61481,"HCEP03730563","2025-09-28 19:45:00","11.5814","3.48517","27.113","2.101","7.44","0.783","2.782","0.09","0.11","30.3549","4.76359","23.39","0","SATNPRO1964","29.66","0.41544","5"],
    [61482,"HCEP03730563","2025-09-28 20:00:00","11.5798","3.48501","27.149","2.105","7.44","0.741","2.677","0.08","0.08","30.3546","4.76357","23.43","0","SATNPRO1964","29.456","0.4126","5"],
    [61483,"HCEP03730563","2025-09-28 20:15:00","11.5776","3.48477","27.054","2.077","7.44","0.77","3.109","0.05","0.1","30.3541","4.76352","23.12","0","SATNPRO1964","29.492","0.41308","5"],
    [61484,"HCEP03730563","2025-09-28 20:30:00","11.579","3.48473","27.06","2.077","7.44","0.764","2.846","0.09","0.14","30.3526","4.76329","23.12","0","SATNPRO1964","29.48","0.4129","5"],
    [61485,"HCEP03730563","2025-09-28 20:45:00","11.5775","3.48445","27.039","2.09","7.44","0.813","2.882","0.06","0.08","30.3512","4.76312","23.26","0","SATNPRO1964","29.422","0.4121","5"],
    [61486,"HCEP03730563","2025-09-28 21:00:00","11.5761","3.48412","27.049","2.088","7.44","0.806","3.062","0.12","0.12","30.3491","4.76284","23.24","0","SATNPRO1964","29.386","0.41162","5"],
    [61487,"HCEP03730563","2025-09-28 21:15:00","11.5747","3.48392","26.916","2.078","7.44","0.81","3.127","0.06","0.14","30.3483","4.76274","23.12","0","SATNPRO1964","29.262","0.40984","5"],
    [61488,"HCEP03730563","2025-09-28 21:30:00","11.5728","3.48353","26.911","2.066","7.44","0.749","2.989","0.1","0.13","30.3461","4.76246","22.99","0","SATNPRO1964","29.396","0.41176","5"],
    [61489,"HCEP03730563","2025-09-28 21:45:00","11.5712","3.48327","26.818","2.055","7.43","0.795","3.28","0.14","0.1","30.345","4.76231","22.87","0","SATNPRO1964","29.288","0.4102","5"],
    [61490,"HCEP03730563","2025-09-28 22:00:00","11.5699","3.48295","26.697","2.043","7.43","0.754","2.988","0.07","0.09","30.3429","4.76204","22.73","0","SATNPRO1964","29.258","0.40984","5"],
    [61491,"HCEP03730563","2025-09-28 22:15:00","11.5618","3.48165","26.636","2.031","7.43","0.765","2.922","0.06","0.09","30.3371","4.76132","22.6","0","SATNPRO1964","29.124","0.40796","5"],
    [61492,"HCEP03730563","2025-09-28 22:30:00","11.5554","3.48054","26.506","2.004","7.43","0.752","2.84","0.07","0.1","30.3316","4.76064","22.29","0","SATNPRO1964","29.346","0.41102","5"],
    [61493,"HCEP03730563","2025-09-28 22:45:00","11.5453","3.47896","26.406","1.98","7.43","0.753","2.801","0.06","0.09","30.3246","4.75979","22.02","0","SATNPRO1964","29.084","0.40736","5"],
    [61494,"HCEP03730563","2025-09-28 23:00:00","11.5382","3.4778","26.21","1.957","7.42","0.706","2.604","0.09","0.09","30.3192","4.75912","21.76","0","SATNPRO1964","29.222","0.40934","5"],
    [61495,"HCEP03730563","2025-09-28 23:15:00","11.5345","3.47741","26.162","1.937","7.42","0.705","2.377","0.07","0.08","30.3186","4.75908","21.54","0","SATNPRO1964","29.522000000000002","0.41352","5"],
    [61496,"HCEP03730563","2025-09-28 23:30:00","11.5427","3.47874","25.965","1.93","7.42","0.766","3.012","0.09","0.16","30.3248","4.75983","21.46","0","SATNPRO1964","29.03","0.40662","5"],
    [61497,"HCEP03730563","2025-09-28 23:45:00","11.5497","3.47976","25.908","1.917","7.42","0.803","3.327","0.1","0.13","30.329","4.76031","21.32","0","SATNPRO1964","28.976","0.40588","5"],
    [61498,"HCEP03730563","2025-09-29 00:00:00","11.5497","3.47979","25.747","1.917","7.42","0.874","2.941","0.35","0.07","30.3293","4.76035","21.32","0","SATNPRO1964","29.044","0.40682","5"],
    [61499,"HCEP03730563","2025-09-29 00:15:00","11.551","3.47992","25.566","1.923","7.42","0.846","3.135","0.09","0.12","30.3296","4.76036","21.39","0","SATNPRO1964","28.98","0.4059","5"],
    [61500,"HCEP03730563","2025-09-29 00:30:00","11.5511","3.47991","25.491","1.923","7.42","0.87","3.27","0.1","0.11","30.3295","4.76034","21.38","0","SATNPRO1964","28.852","0.40412","5"],
    [61501,"HCEP03730563","2025-09-29 00:45:00","11.5486","3.47967","25.323","1.913","7.42","0.865","3.526","0.08","0.11","30.3293","4.76034","21.28","0","SATNPRO1964","28.828","0.40378","5"],
    [61502,"HCEP03730563","2025-09-29 01:00:00","11.5489","3.47963","25.213","1.902","7.42","0.805","2.993","0.08","0.1","30.3287","4.76024","21.15","0","SATNPRO1964","28.932000000000002","0.40522","5"],
    [61503,"HCEP03730563","2025-09-29 01:15:00","11.5497","3.47953","25.03","1.914","7.42","0.863","2.955","0.12","0.11","30.3271","4.76","21.28","0","SATNPRO1964","29.048","0.40684","5"],
    [61504,"HCEP03730563","2025-09-29 01:30:00","11.5462","3.47924","24.916","1.912","7.42","0.96","3.242","0.57","0.13","30.3272","4.76005","21.26","0","SATNPRO1964","28.784","0.40316","5"],
    [61505,"HCEP03730563","2025-09-29 01:45:00","11.5462","3.47925","24.868","1.88","7.42","0.918","3.057","0.18","0.12","30.3272","4.76006","20.91","0","SATNPRO1964","28.946","0.40544","5"],
    [61506,"HCEP03730563","2025-09-29 02:00:00","11.5635","3.48108","24.785","1.951","7.42","0.784","2.357","0.11","0.08","30.3309","4.76032","21.7","0","SATNPRO1964","29.614","0.4148","5"],
    [61507,"HCEP03730563","2025-09-29 02:15:00","11.5549","3.48041","24.768","2.04","7.42","0.807","2.523","0.11","0.12","30.3315","4.76053","22.69","0","SATNPRO1964","29.618","0.41486","5"],
    [61508,"HCEP03730563","2025-09-29 02:30:00","11.5615","3.48096","24.722","2.01","7.43","0.782","2.224","0.29","0.11","30.3314","4.76042","22.36","0","SATNPRO1964","29.668","0.41556","5"],
    [61509,"HCEP03730563","2025-09-29 02:45:00","11.5558","3.48033","24.692","2","7.42","0.893","3.055","0.28","0.19","30.33","4.76029","22.24","0","SATNPRO1964","29.346","0.41104","5"],
    [61510,"HCEP03730563","2025-09-29 03:00:00","11.5576","3.48082","24.674","1.934","7.42","0.781","2.719","0.12","0.08","30.3333","4.76074","21.52","0","SATNPRO1964","29.492","0.4131","5"],
    [61511,"HCEP03730563","2025-09-29 03:15:00","11.5648","3.4814","24.632","1.977","7.43","0.772","2.567","0.08","0.1","30.3329","4.76058","21.99","0","SATNPRO1964","29.672","0.41562","5"],
    [61512,"HCEP03730563","2025-09-29 03:30:00","11.5626","3.48121","24.636","2.041","7.43","0.7","2.354","0.08","0.27","30.333","4.76062","22.7","0","SATNPRO1964","30.008","0.42032","5"],
    [61513,"HCEP03730563","2025-09-29 03:45:00","11.5591","3.48099","24.697","1.999","7.43","0.737","2.672","0.09","0.12","30.3337","4.76078","22.23","0","SATNPRO1964","29.215999999999998","0.40922","5"],
    [61514,"HCEP03730563","2025-09-29 04:00:00","11.5627","3.48146","24.732","1.966","7.42","0.735","2.632","0.07","0.1","30.3353","4.76096","21.87","0","SATNPRO1964","29.32","0.41066","5"],
    [61515,"HCEP03730563","2025-09-29 04:15:00","11.5621","3.48148","24.821","1.975","7.42","0.82","3.164","0.09","0.26","30.3358","4.76104","21.98","0","SATNPRO1964","29.238","0.40954","5"],
    [61516,"HCEP03730563","2025-09-29 04:30:00","11.5587","3.48118","24.92","1.933","7.42","0.761","3.569","0.07","0.38","30.3357","4.76107","21.51","0","SATNPRO1964","28.762","0.40286","5"],
    [61517,"HCEP03730563","2025-09-29 04:45:00","11.5587","3.48118","24.968","1.879","7.42","0.771","3.194","0.07","0.15","30.3358","4.76109","20.91","0","SATNPRO1964","28.668","0.40154","5"],
    [61518,"HCEP03730563","2025-09-29 05:00:00","11.5569","3.48102","25.075","1.862","7.42","0.758","3.293","0.08","0.17","30.3356","4.7611","20.71","0","SATNPRO1964","28.96","0.40564","5"],
    [61519,"HCEP03730563","2025-09-29 05:15:00","11.5548","3.48081","25.171","1.844","7.41","0.733","3.516","0.09","0.54","30.3353","4.76109","20.51","0","SATNPRO1964","28.696","0.40196","5"],
    [61520,"HCEP03730563","2025-09-29 05:30:00","11.5526","3.48065","25.308","1.814","7.41","0.747","3.581","0.06","0.11","30.3354","4.76115","20.17","0","SATNPRO1964","28.676000000000002","0.40164","5"],
    [61521,"HCEP03730563","2025-09-29 05:45:00","11.5493","3.47999","25.391","1.803","7.41","0.723","2.849","0.11","0.07","30.3317","4.76068","20.05","0","SATNPRO1964","29.104","0.4077","5"],
    [61522,"HCEP03730563","2025-09-29 06:00:00","11.5472","3.47944","25.524","1.864","7.41","0.696","2.578","0.1","0.15","30.3281","4.7602","20.73","0","SATNPRO1964","29.434","0.41232","5"],
    [61523,"HCEP03730563","2025-09-29 06:15:00","11.5428","3.4787","25.594","1.894","7.41","0.777","2.87","0.17","0.17","30.3246","4.75977","21.06","0","SATNPRO1964","29.054","0.40696","5"],
    [61524,"HCEP03730563","2025-09-29 06:30:00","11.5441","3.47911","25.659","1.87","7.41","0.916","3.108","0.15","0.22","30.3274","4.76015","20.8","0","SATNPRO1964","29.46","0.41264","5"],
    [61525,"HCEP03730563","2025-09-29 06:45:00","11.5369","3.47816","25.807","1.83","7.41","0.815","3.235","0.09","0.13","30.3241","4.7598","20.35","0","SATNPRO1964","28.728","0.4024","5"],
    [61526,"HCEP03730563","2025-09-29 07:00:00","11.5377","3.47822","25.996","1.787","7.41","1.033","3.783","0.21","0.12","30.3239","4.75977","19.87","0","SATNPRO1964","29.146","0.40822","5"],
    [61527,"HCEP03730563","2025-09-29 07:15:00","11.5399","3.47866","26.086","1.765","7.41","0.917","3.705","0.1","0.15","30.3264","4.7601","19.63","0","SATNPRO1964","28.918","0.40498","5"],
    [61528,"HCEP03730563","2025-09-29 07:30:00","11.5507","3.48027","26.241","1.798","7.41","1.006","3.8","0.29","0.14","30.333","4.76088","20","0","SATNPRO1964","29.23","0.40942","5"],
    [61529,"HCEP03730563","2025-09-29 07:45:00","11.5535","3.48046","26.386","1.865","7.41","1.007","3.65","0.21","0.23","30.3324","4.76077","20.74","0","SATNPRO1964","29.78","0.41712","5"],
    [61530,"HCEP03730563","2025-09-29 08:00:00","11.5542","3.48003","26.448","1.93","7.42","0.868","3.299","0.16","0.17","30.3277","4.76009","21.47","0","SATNPRO1964","29.972","0.41982","5"],
    [61531,"HCEP03730563","2025-09-29 08:15:00","11.5543","3.47996","26.569","1.99","7.42","0.867","3.539","0.13","0.31","30.3269","4.75999","22.13","0","SATNPRO1964","29.796","0.41736","5"],
    [61532,"HCEP03730563","2025-09-29 08:30:00","11.5414","3.47815","26.711","1.983","7.42","0.757","3.228","0.11","0.18","30.3199","4.75919","22.05","0","SATNPRO1964","29.736","0.4165","5"],
    [61533,"HCEP03730563","2025-09-29 08:45:00","11.5317","3.47687","26.822","1.916","7.42","0.729","3.51","0.07","0.29","30.3153","4.75869","21.3","0","SATNPRO1964","29.398","0.41174","5"],
    [61534,"HCEP03730563","2025-09-29 09:00:00","11.5113","3.47401","26.877","1.777","7.41","0.685","3.265","0.08","0.24","30.3044","4.75745","19.75","0","SATNPRO1964","28.84","0.40392","5"],
    [61535,"HCEP03730563","2025-09-29 09:15:00","11.4954","3.47169","26.966","1.653","7.4","0.868","4.083","0.08","0.19","30.2949","4.75633","18.35","0","SATNPRO1964","28.55","0.3999","5"],
    [61536,"HCEP03730563","2025-09-29 09:30:00","11.4706","3.46764","27.061","1.514","7.39","1.033","4.155","0.12","0.27","30.2759","4.75401","16.81","0","SATNPRO1964","28.330000000000002","0.39678","5"],
    [61537,"HCEP03730563","2025-09-29 09:45:00","11.4556","3.46461","27.115","1.44","7.38","1.122","4.215","0.17","0.56","30.2589","4.75183","15.98","0","SATNPRO1964","28.386","0.39762","5"],
    [61538,"HCEP03730563","2025-09-29 10:00:00","11.4423","3.46202","27.17","1.416","7.37","1.147","4.26","0.1","0.23","30.2446","4.75001","15.71","0","SATNPRO1964","28.272","0.39596","5"],
    [61539,"HCEP03730563","2025-09-29 10:15:00","11.4368","3.46092","27.209","1.386","7.37","1.273","4.976","0.19","0.39","30.2384","4.74921","15.37","0","SATNPRO1964","28.244","0.3956","5"],
    [61540,"HCEP03730563","2025-09-29 10:30:00","11.4323","3.46011","27.229","1.362","7.36","1.205","4.684","0.12","0.3","30.2343","4.74869","15.1","0","SATNPRO1964","27.887999999999998","0.3906","5"],
    [61541,"HCEP03730563","2025-09-29 10:45:00","11.4247","3.45893","27.239","1.321","7.36","1.247","4.422","0.11","0.28","30.2289","4.74805","14.65","0","SATNPRO1964","27.668","0.38752","5"],
    [61542,"HCEP03730563","2025-09-29 11:00:00","11.4126","3.45713","27.237","1.279","7.36","1.113","4.317","0.09","0.28","30.2214","4.74716","14.18","0","SATNPRO1964","27.328","0.3828","5"],
    [61543,"HCEP03730563","2025-09-29 11:15:00","11.4052","3.45637","27.24","1.207","7.35","1.202","5.052","0.08","1.35","30.22","4.74708","13.37","0","SATNPRO1964","26.932","0.37726","5"],
    [61544,"HCEP03730563","2025-09-29 11:30:00","11.3982","3.45521","27.299","1.129","7.34","1.267","4.624","0.16","0.28","30.2146","4.74641","12.5","0","SATNPRO1964","26.45","0.37048","5"],
    [61545,"HCEP03730563","2025-09-29 11:45:00","11.4018","3.45581","27.3","1.087","7.34","1.275","4.302","0.24","0.36","30.2175","4.74677","12.04","0","SATNPRO1964","26.226","0.36736","5"],
    [61546,"HCEP03730563","2025-09-29 12:00:00","11.3936","3.45445","27.311","1.045","7.33","1.294","4.583","0.24","0.4","30.2109","4.74596","11.57","0","SATNPRO1964","25.912","0.36292","5"],
    [61547,"HCEP03730563","2025-09-29 12:15:00","11.3801","3.45255","27.261","0.957","7.33","1.154","4.734","0.14","0.52","30.2036","4.74512","10.59","0","SATNPRO1964","25.424","0.35612","5"],
    [61548,"HCEP03730563","2025-09-29 12:30:00","11.3705","3.4512","27.299","0.887","7.32","1.117","4.9","0.15","0.39","30.1982","4.7445","9.82","0","SATNPRO1964","24.92","0.34904","5"],
    [61549,"HCEP03730563","2025-09-29 12:45:00","11.3599","3.44941","27.251","0.829","7.31","1.112","4.87","0.16","0.3","30.1896","4.74344","9.18","0","SATNPRO1964","24.632","0.345","5"],
    [61550,"HCEP03730563","2025-09-29 13:00:00","11.3499","3.44765","27.182","0.778","7.31","1.12","4.935","0.13","0.29","30.1807","4.74232","8.61","0","SATNPRO1964","24.328","0.34076","5"],
    [61551,"HCEP03730563","2025-09-29 13:15:00","11.3409","3.44603","27.195","0.747","7.3","1.177","5.034","0.24","0.5","30.1723","4.74125","8.26","0","SATNPRO1964","24.024","0.3365","5"],
    [61552,"HCEP03730563","2025-09-29 13:30:00","11.3366","3.4454","27.193","0.727","7.3","1.382","4.985","0.38","0.46","30.1697","4.74096","8.05","0","SATNPRO1964","24.064","0.33704","5"],
    [61553,"HCEP03730563","2025-09-29 13:45:00","11.3348","3.44496","27.159","0.722","7.3","1.25","4.858","0.21","0.62","30.1668","4.74057","7.98","0","SATNPRO1964","23.862000000000002","0.33422","5"],
    [61554,"HCEP03730563","2025-09-29 14:00:00","11.3341","3.44474","27.071","0.72","7.3","1.177","4.641","0.24","0.51","30.1653","4.74037","7.97","0","SATNPRO1964","23.868","0.3343","5"],
    [61555,"HCEP03730563","2025-09-29 14:15:00","11.3328","3.44445","27.078","0.716","7.3","1.116","4.651","0.26","0.6","30.1636","4.74014","7.92","0","SATNPRO1964","23.85","0.33406","5"],
    [61556,"HCEP03730563","2025-09-29 14:30:00","11.3326","3.4444","27.003","0.708","7.3","1.07","4.53","0.3","0.29","30.1633","4.74009","7.83","0","SATNPRO1964","23.714","0.33216","5"],
    [61557,"HCEP03730563","2025-09-29 14:45:00","11.3325","3.44428","26.984","0.697","7.3","1.615","20.51","0.66","12.01","30.1622","4.73995","7.71","0","SATNPRO1964","23.792","0.33324","5"],
    [61558,"HCEP03730563","2025-09-29 15:00:00","11.3364","3.44483","26.986","0.686","7.3","2.051","23.025","0.75","5.45","30.1644","4.7402","7.59","0","SATNPRO1964","23.834","0.33386","5"],
    [61559,"HCEP03730563","2025-09-29 15:15:00","11.3474","3.44651","26.913","0.686","7.3","1.486","5.034","0.88","1.24","30.1718","4.74107","7.59","0","SATNPRO1964","23.924","0.3351","5"],
    [61560,"HCEP03730563","2025-09-29 15:30:00","11.3562","3.44783","26.865","0.704","7.3","1.306","4.352","0.46","0.26","30.1773","4.74173","7.79","0","SATNPRO1964","24.024","0.33648","5"],
    [61561,"HCEP03730563","2025-09-29 15:45:00","11.3627","3.44881","26.821","0.724","7.3","0.984","4.077","0.24","0.36","30.1816","4.74224","8.01","0","SATNPRO1964","23.826","0.33376","5"],
    [61562,"HCEP03730563","2025-09-29 16:00:00","11.3656","3.4494","26.823","0.738","7.3","2.371","20.291","0.82","7.33","30.1849","4.74266","8.17","0","SATNPRO1964","24.21","0.33908","5"],
    [61563,"HCEP03730563","2025-09-29 16:15:00","11.3702","3.45006","26.785","0.748","7.3","1.337","4.293","0.81","0.46","30.1876","4.74297","8.28","0","SATNPRO1964","24.274","0.34","5"],
    [61564,"HCEP03730563","2025-09-29 16:30:00","11.3778","3.45069","26.751","0.77","7.3","0.926","3.669","0.16","0.28","30.1876","4.74285","8.53","0","SATNPRO1964","24.478","0.34284","5"],
    [61565,"HCEP03730563","2025-09-29 16:45:00","11.3921","3.45177","26.735","0.805","7.31","1.032","3.432","0.2","0.17","30.1863","4.74247","8.92","0","SATNPRO1964","24.842000000000002","0.34792","5"],
    [61566,"HCEP03730563","2025-09-29 17:00:00","11.4012","3.4528","26.739","0.854","7.31","1.326","3.633","0.18","0.65","30.1888","4.74269","9.45","0","SATNPRO1964","25.17","0.35254","5"],
    [61567,"HCEP03730563","2025-09-29 17:15:00","11.4075","3.45339","26.721","0.892","7.31","2.452","4.009","0.43","0.43","30.1895","4.74269","9.88","0","SATNPRO1964","25.716","0.36024","5"],
    [61568,"HCEP03730563","2025-09-29 17:30:00","11.4269","3.45728","26.743","0.96","7.32","2.225","4.022","0.37","0.46","30.2113","4.7455","10.64","0","SATNPRO1964","26.152","0.3663","5"],
    [61569,"HCEP03730563","2025-09-29 17:45:00","11.4424","3.46043","26.712","1.096","7.33","1.527","3.409","0.18","0.23","30.2293","4.74781","12.15","0","SATNPRO1964","26.828","0.37572","5"],
    [61570,"HCEP03730563","2025-09-29 18:00:00","11.4434","3.46124","26.735","1.176","7.34","1.496","3.338","0.13","0.22","30.2362","4.74878","13.04","0","SATNPRO1964","27.018","0.37842","5"],
    [61571,"HCEP03730563","2025-09-29 18:15:00","11.4477","3.46234","26.76","1.211","7.34","1.435","3.681","0.17","0.34","30.2434","4.74974","13.43","0","SATNPRO1964","27.282","0.38218","5"],
    [61572,"HCEP03730563","2025-09-29 18:30:00","11.4498","3.46311","26.783","1.243","7.34","1.366","3.459","0.19","0.28","30.2492","4.75052","13.78","0","SATNPRO1964","27.509999999999998","0.3853","5"],
    [61573,"HCEP03730563","2025-09-29 18:45:00","11.4516","3.46353","26.783","1.261","7.35","1.385","3.775","0.15","0.38","30.2517","4.75085","13.99","0","SATNPRO1964","27.428","0.38416","5"],
    [61574,"HCEP03730563","2025-09-29 19:00:00","11.4535","3.46387","26.772","1.278","7.35","1.311","3.855","0.15","0.41","30.2535","4.75108","14.18","0","SATNPRO1964","27.656","0.38738","5"],
    [61575,"HCEP03730563","2025-09-29 19:15:00","11.4523","3.46378","26.753","1.291","7.35","1.372","3.822","0.25","0.26","30.2536","4.75112","14.32","0","SATNPRO1964","27.792","0.38928","5"],
    [61576,"HCEP03730563","2025-09-29 19:30:00","11.4532","3.46397","26.752","1.295","7.35","1.191","3.454","0.09","0.26","30.2547","4.75125","14.37","0","SATNPRO1964","27.89","0.39066","5"],
    [61577,"HCEP03730563","2025-09-29 19:45:00","11.4531","3.46396","26.788","1.311","7.35","1.173","3.361","0.14","0.23","30.2547","4.75126","14.54","0","SATNPRO1964","27.978","0.39188","5"],
    [61578,"HCEP03730563","2025-09-29 20:00:00","11.4525","3.46386","26.796","1.318","7.35","1.395","3.523","0.33","0.25","30.2542","4.75119","14.62","0","SATNPRO1964","28.224","0.39532","5"],
    [61579,"HCEP03730563","2025-09-29 20:15:00","11.4535","3.464","26.815","1.323","7.36","1.319","3.322","0.23","0.38","30.2547","4.75125","14.68","0","SATNPRO1964","28.084","0.39332","5"],
    [61580,"HCEP03730563","2025-09-29 20:30:00","11.4542","3.46408","26.811","1.333","7.36","1.257","3.043","0.27","0.18","30.2549","4.75127","14.79","0","SATNPRO1964","28.334","0.39686","5"],
    [61581,"HCEP03730563","2025-09-29 20:45:00","11.4536","3.46392","26.802","1.347","7.36","1.086","3.032","0.18","0.4","30.2538","4.75113","14.94","0","SATNPRO1964","28.242","0.39558","5"],
    [61582,"HCEP03730563","2025-09-29 21:00:00","11.451","3.46353","26.798","1.35","7.36","1.181","3.039","0.28","0.4","30.2523","4.75094","14.98","0","SATNPRO1964","28.098000000000003","0.39356","5"],
    [61583,"HCEP03730563","2025-09-29 21:15:00","11.4503","3.46345","26.774","1.338","7.36","1.171","3.044","0.27","0.25","30.252","4.75092","14.84","0","SATNPRO1964","27.968","0.39172","5"],
    [61584,"HCEP03730563","2025-09-29 21:30:00","11.4495","3.46353","26.757","1.333","7.36","1.244","3.105","0.21","0.31","30.2535","4.75114","14.79","0","SATNPRO1964","28.114","0.39376","5"],
    [61585,"HCEP03730563","2025-09-29 21:45:00","11.448","3.46338","26.72","1.328","7.36","1.247","3.172","0.27","0.43","30.2532","4.75112","14.73","0","SATNPRO1964","28.156","0.39438","5"],
    [61586,"HCEP03730563","2025-09-29 22:00:00","11.4469","3.46323","26.691","1.322","7.36","1.073","2.907","0.27","0.4","30.2528","4.75107","14.66","0","SATNPRO1964","28.258","0.39578","5"],
    [61587,"HCEP03730563","2025-09-29 22:15:00","11.4461","3.46316","26.613","1.319","7.36","1.128","2.855","0.3","0.3","30.2528","4.75108","14.63","0","SATNPRO1964","28.238","0.39552","5"],
    [61588,"HCEP03730563","2025-09-29 22:30:00","11.4435","3.46278","26.562","1.311","7.36","1.146","2.978","0.25","0.27","30.2511","4.75088","14.55","0","SATNPRO1964","28.038","0.39274","5"],
    [61589,"HCEP03730563","2025-09-29 22:45:00","11.4314","3.46119","26.502","1.273","7.35","1.051","2.789","0.25","0.33","30.2457","4.75028","14.12","0","SATNPRO1964","28.024","0.39256","5"],
    [61590,"HCEP03730563","2025-09-29 23:00:00","11.4169","3.45945","26.436","1.19","7.35","1.241","2.85","0.39","0.22","30.2407","4.74979","13.19","0","SATNPRO1964","27.386","0.38358","5"],
    [61591,"HCEP03730563","2025-09-29 23:15:00","11.3986","3.45743","26.353","1.082","7.34","1.136","3.135","0.26","1","30.2361","4.74939","11.99","0","SATNPRO1964","27.056","0.37896","5"],
    [61592,"HCEP03730563","2025-09-29 23:30:00","11.3943","3.45729","26.257","0.979","7.33","1.329","2.911","0.37","0.41","30.2383","4.74977","10.85","0","SATNPRO1964","27.068","0.37912","5"],
    [61593,"HCEP03730563","2025-09-29 23:45:00","11.3964","3.45758","26.163","0.95","7.33","1.318","2.917","0.46","0.37","30.2394","4.74989","10.53","0","SATNPRO1964","27.108","0.3797","5"],
    [61594,"HCEP03730563","2025-09-30 00:00:00","11.4024","3.45832","26.068","0.965","7.33","1.572","4.29","0.56","0.49","30.2417","4.75012","10.69","0","SATNPRO1964","27.28","0.38206","5"],
    [61595,"HCEP03730563","2025-09-30 00:15:00","11.407","3.45879","25.96","0.998","7.33","1.039","2.736","0.3","0.15","30.2426","4.75017","11.06","0","SATNPRO1964","27.358","0.38316","5"],
    [61596,"HCEP03730563","2025-09-30 00:30:00","11.409","3.4588","25.846","1.024","7.33","1.114","2.641","0.26","0.18","30.2411","4.74992","11.35","0","SATNPRO1964","27.348","0.38304","5"],
    [61597,"HCEP03730563","2025-09-30 00:45:00","11.4101","3.45879","25.733","1.04","7.33","1.11","2.824","0.22","0.15","30.2402","4.74977","11.52","0","SATNPRO1964","27.396","0.38374","5"],
    [61598,"HCEP03730563","2025-09-30 01:00:00","11.4103","3.45872","25.619","1.043","7.33","1.317","2.97","0.37","0.16","30.2393","4.74964","11.56","0","SATNPRO1964","27.446","0.38446","5"],
    [61599,"HCEP03730563","2025-09-30 01:15:00","11.4099","3.45858","25.494","1.037","7.33","1.124","3.05","0.18","0.23","30.2383","4.7495","11.5","0","SATNPRO1964","27.228","0.38138","5"],
    [61600,"HCEP03730563","2025-09-30 01:30:00","11.41","3.45839","25.381","1.032","7.33","1.065","2.927","0.2","0.19","30.2365","4.74924","11.43","0","SATNPRO1964","27.3","0.38238","5"],
    [61601,"HCEP03730563","2025-09-30 01:45:00","11.4089","3.45785","25.277","1.027","7.33","1.046","2.569","0.25","0.14","30.2322","4.74864","11.38","0","SATNPRO1964","27.246","0.38162","5"],
    [61602,"HCEP03730563","2025-09-30 02:00:00","11.409","3.45799","25.154","1.026","7.33","0.924","2.504","0.32","0.21","30.2335","4.74882","11.37","0","SATNPRO1964","27.02","0.37846","5"],
    [61603,"HCEP03730563","2025-09-30 02:15:00","11.4084","3.45756","25.042","1.02","7.33","1.558","2.604","2.39","0.39","30.2298","4.74829","11.31","0","SATNPRO1964","27.282","0.38216","5"],
    [61604,"HCEP03730563","2025-09-30 02:30:00","11.4083","3.45738","24.937","1.019","7.33","0.859","2.404","0.29","0.23","30.2282","4.74806","11.3","0","SATNPRO1964","27.292","0.38228","5"],
    [61605,"HCEP03730563","2025-09-30 02:45:00","11.4094","3.45741","24.873","1.024","7.33","1.195","2.41","0.53","0.1","30.2277","4.74796","11.34","0","SATNPRO1964","27.248","0.38166","5"],
    [61606,"HCEP03730563","2025-09-30 03:00:00","11.4118","3.45714","24.799","1.03","7.33","1.112","2.275","0.29","0.15","30.2231","4.74728","11.41","0","SATNPRO1964","27.456","0.38456","5"],
    [61607,"HCEP03730563","2025-09-30 03:15:00","11.4094","3.45715","24.807","1.032","7.33","1.087","2.537","0.29","0.23","30.2252","4.74762","11.43","0","SATNPRO1964","27.124","0.37992","5"],
    [61608,"HCEP03730563","2025-09-30 03:30:00","11.4095","3.45696","24.776","1.02","7.33","1.038","2.547","0.38","0.17","30.2233","4.74733","11.3","0","SATNPRO1964","27.05","0.37886","5"],
    [61609,"HCEP03730563","2025-09-30 03:45:00","11.41","3.45681","24.768","1.019","7.33","1.073","2.268","0.24","0.1","30.2214","4.74706","11.29","0","SATNPRO1964","27.150000000000002","0.38032","5"],
    [61610,"HCEP03730563","2025-09-30 04:00:00","11.4106","3.45624","24.782","1.024","7.33","0.97","2.171","0.44","0.2","30.2154","4.74621","11.35","0","SATNPRO1964","26.87","0.37636","5"],
    [61611,"HCEP03730563","2025-09-30 04:15:00","11.412","3.45777","24.78","1.023","7.33","0.915","2.264","0.27","0.17","30.229","4.74811","11.34","0","SATNPRO1964","27.358","0.38324","5"],
    [61612,"HCEP03730563","2025-09-30 04:30:00","11.4074","3.45874","24.818","1.033","7.33","0.828","2.275","0.14","0.06","30.2422","4.75005","11.45","0","SATNPRO1964","27.238","0.38148","5"],
    [61613,"HCEP03730563","2025-09-30 04:45:00","11.41","3.45936","24.791","1.002","7.33","0.818","2.344","0.14","0.08","30.2461","4.75057","11.1","0","SATNPRO1964","27.224","0.38136","5"],
    [61614,"HCEP03730563","2025-09-30 05:00:00","11.416","3.46003","24.816","1.017","7.33","0.781","2.179","0.09","0.08","30.2477","4.7507","11.27","0","SATNPRO1964","27.526","0.38556","5"],
    [61615,"HCEP03730563","2025-09-30 05:15:00","11.4194","3.46041","24.918","1.071","7.33","0.984","2.286","0.43","0.14","30.2485","4.75077","11.87","0","SATNPRO1964","27.448","0.38442","5"],
    [61616,"HCEP03730563","2025-09-30 05:30:00","11.4374","3.46219","24.983","1.127","7.34","0.804","2.138","0.14","0.07","30.2511","4.75087","12.5","0","SATNPRO1964","27.916","0.39102","5"],
    [61617,"HCEP03730563","2025-09-30 05:45:00","11.4319","3.46177","24.995","1.201","7.34","1","2.333","0.21","0.1","30.2514","4.75101","13.32","0","SATNPRO1964","27.8","0.38938","5"],
    [61618,"HCEP03730563","2025-09-30 06:00:00","11.4265","3.46121","25.089","1.138","7.34","0.999","2.318","0.19","0.11","30.2504","4.75095","12.62","0","SATNPRO1964","27.468","0.38476","5"],
    [61619,"HCEP03730563","2025-09-30 06:15:00","11.4278","3.4617","25.208","1.11","7.34","0.943","2.295","0.25","0.11","30.2541","4.75146","12.3","0","SATNPRO1964","27.978","0.3919","5"],
    [61620,"HCEP03730563","2025-09-30 06:30:00","11.4299","3.46163","25.27","1.104","7.34","1.002","2.322","0.22","0.12","30.2517","4.75108","12.24","0","SATNPRO1964","27.434","0.38426","5"],
    [61621,"HCEP03730563","2025-09-30 06:45:00","11.4263","3.4612","25.384","1.084","7.33","1.154","2.719","0.16","0.2","30.2504","4.75097","12.02","0","SATNPRO1964","27.25","0.38166","5"],
    [61622,"HCEP03730563","2025-09-30 07:00:00","11.4263","3.46114","25.508","1.056","7.33","1.253","2.777","0.19","0.13","30.2497","4.75087","11.7","0","SATNPRO1964","27.076","0.37926","5"],
    [61623,"HCEP03730563","2025-09-30 07:15:00","11.4301","3.46147","25.615","1.054","7.33","1.117","2.71","0.16","0.24","30.2498","4.75084","11.69","0","SATNPRO1964","27.206","0.38108","5"],
    [61624,"HCEP03730563","2025-09-30 07:30:00","11.4322","3.46172","25.769","1.078","7.33","1.419","2.892","0.24","0.13","30.2504","4.7509","11.95","0","SATNPRO1964","27.164","0.38052","5"],
    [61625,"HCEP03730563","2025-09-30 07:45:00","11.4415","3.46263","25.911","1.107","7.34","1.714","2.863","0.2","0.12","30.2516","4.75094","12.28","0","SATNPRO1964","27.478","0.38492","5"],
    [61626,"HCEP03730563","2025-09-30 08:00:00","11.4726","3.46596","26.009","1.202","7.35","1.444","2.627","0.18","0.19","30.2585","4.75146","13.34","0","SATNPRO1964","27.962","0.39162","5"],
    [61627,"HCEP03730563","2025-09-30 08:15:00","11.4711","3.46525","26.16","1.394","7.35","1.378","2.442","0.19","0.17","30.2527","4.75068","15.47","0","SATNPRO1964","28.202","0.39504","5"],
    [61628,"HCEP03730563","2025-09-30 08:30:00","11.4655","3.465","26.275","1.374","7.36","1.229","2.558","0.09","0.11","30.2548","4.75106","15.25","0","SATNPRO1964","28.202","0.395","5"],
    [61629,"HCEP03730563","2025-09-30 08:45:00","11.4692","3.46543","26.409","1.344","7.36","1.188","2.751","0.16","0.17","30.2559","4.75117","14.92","0","SATNPRO1964","27.962","0.39168","5"],
    [61630,"HCEP03730563","2025-09-30 09:00:00","11.4639","3.46477","26.53","1.328","7.35","1.236","3.045","0.19","0.17","30.2538","4.75095","14.74","0","SATNPRO1964","27.778","0.38906","5"],
    [61631,"HCEP03730563","2025-09-30 09:15:00","11.471","3.4653","26.616","1.291","7.35","1.235","2.842","0.2","0.22","30.2531","4.75075","14.32","0","SATNPRO1964","28.12","0.39388","5"],
    [61632,"HCEP03730563","2025-09-30 09:30:00","11.4779","3.46547","26.728","1.335","7.36","1.21","2.84","0.18","0.14","30.2491","4.75009","14.82","0","SATNPRO1964","28.146","0.39424","5"],
    [61633,"HCEP03730563","2025-09-30 09:45:00","11.4568","3.4627","26.815","1.341","7.35","1.087","2.7","0.23","0.17","30.2394","4.74905","14.88","0","SATNPRO1964","27.464000000000002","0.38468","5"],
    [61634,"HCEP03730563","2025-09-30 10:00:00","11.4396","3.46046","26.956","1.234","7.35","0.964","2.725","0.08","0.18","30.2318","4.74822","13.69","0","SATNPRO1964","27.316","0.38258","5"],
    [61635,"HCEP03730563","2025-09-30 10:15:00","11.4318","3.45932","27.071","1.154","7.34","1.04","2.896","0.16","0.2","30.227","4.74767","12.79","0","SATNPRO1964","26.996","0.37816","5"],
    [61636,"HCEP03730563","2025-09-30 10:30:00","11.4277","3.45876","27.147","1.102","7.34","0.972","2.99","0.13","0.17","30.2249","4.74743","12.21","0","SATNPRO1964","26.812","0.37552","5"],
    [61637,"HCEP03730563","2025-09-30 10:45:00","11.4224","3.45806","27.206","1.056","7.33","1.115","3.015","0.13","0.14","30.2224","4.74716","11.7","0","SATNPRO1964","26.646","0.3732","5"],
    [61638,"HCEP03730563","2025-09-30 11:00:00","11.4176","3.45736","27.293","1.01","7.33","1.131","2.925","0.19","0.31","30.2195","4.74683","11.2","0","SATNPRO1964","26.561999999999998","0.37204","5"],
    [61639,"HCEP03730563","2025-09-30 11:15:00","11.4143","3.45689","27.289","0.982","7.33","1.224","2.815","0.22","0.29","30.2177","4.74661","10.88","0","SATNPRO1964","26.400000000000002","0.36982","5"],
    [61640,"HCEP03730563","2025-09-30 11:30:00","11.4131","3.45678","27.339","0.964","7.32","1.179","2.726","0.21","0.15","30.2175","4.74661","10.68","0","SATNPRO1964","26.33","0.3688","5"],
    [61641,"HCEP03730563","2025-09-30 11:45:00","11.4138","3.45692","27.393","0.961","7.32","1.061","2.537","0.18","0.11","30.2182","4.74671","10.65","0","SATNPRO1964","26.364","0.3693","5"],
    [61642,"HCEP03730563","2025-09-30 12:00:00","11.4158","3.45739","27.414","0.96","7.32","1.1","2.608","0.15","0.13","30.2213","4.7471","10.63","0","SATNPRO1964","26.428","0.3702","5"],
    [61643,"HCEP03730563","2025-09-30 12:15:00","11.4161","3.45751","27.464","0.955","7.32","1.121","2.61","0.2","0.16","30.2221","4.74723","10.59","0","SATNPRO1964","26.564","0.37206","5"],
    [61644,"HCEP03730563","2025-09-30 12:30:00","11.4172","3.45768","27.479","0.953","7.32","1.144","2.658","0.17","0.15","30.2229","4.74732","10.56","0","SATNPRO1964","26.402","0.36982","5"],
    [61645,"HCEP03730563","2025-09-30 12:45:00","11.4176","3.4578","27.462","0.95","7.32","1.09","2.498","0.14","0.12","30.2237","4.74743","10.52","0","SATNPRO1964","26.432","0.37024","5"],
    [61646,"HCEP03730563","2025-09-30 13:00:00","11.4179","3.45787","27.453","0.949","7.32","1.127","2.65","0.22","0.19","30.2242","4.74749","10.52","0","SATNPRO1964","26.376","0.36944","5"],
    [61647,"HCEP03730563","2025-09-30 13:15:00","11.4181","3.45793","27.454","0.947","7.32","1.058","2.554","0.19","0.14","30.2245","4.74753","10.49","0","SATNPRO1964","26.4","0.36982","5"],
    [61648,"HCEP03730563","2025-09-30 13:30:00","11.4185","3.45796","27.404","0.945","7.32","1.088","2.684","0.37","0.25","30.2246","4.74753","10.47","0","SATNPRO1964","26.286","0.36818","5"],
    [61649,"HCEP03730563","2025-09-30 13:45:00","11.4184","3.45798","27.402","0.943","7.32","1.065","2.715","0.2","0.14","30.2248","4.74757","10.45","0","SATNPRO1964","26.112000000000002","0.36572","5"],
    [61650,"HCEP03730563","2025-09-30 14:00:00","11.4186","3.45794","27.37","0.941","7.32","1.087","2.681","0.21","0.15","30.2243","4.74749","10.43","0","SATNPRO1964","26.24","0.36752","5"],
    [61651,"HCEP03730563","2025-09-30 14:15:00","11.4182","3.45788","27.29","0.939","7.32","0.975","2.696","0.18","0.26","30.2241","4.74746","10.41","0","SATNPRO1964","26.252","0.3677","5"],
    [61652,"HCEP03730563","2025-09-30 14:30:00","11.4182","3.45786","27.32","0.938","7.32","0.873","2.552","0.1","0.19","30.2239","4.74744","10.4","0","SATNPRO1964","26.284","0.36816","5"],
    [61653,"HCEP03730563","2025-09-30 14:45:00","11.418","3.45783","27.3","0.936","7.32","0.934","2.81","0.16","0.24","30.2237","4.74742","10.37","0","SATNPRO1964","26.34","0.36892","5"],
    [61654,"HCEP03730563","2025-09-30 15:00:00","11.418","3.45781","27.265","0.932","7.32","0.859","2.616","0.17","0.17","30.2236","4.74739","10.32","0","SATNPRO1964","26.304","0.36842","5"],
    [61655,"HCEP03730563","2025-09-30 15:15:00","11.4182","3.45776","27.217","0.926","7.32","0.976","2.619","0.23","0.13","30.223","4.74731","10.26","0","SATNPRO1964","26.322","0.36864","5"],
    [61656,"HCEP03730563","2025-09-30 15:30:00","11.4175","3.45774","27.188","0.92","7.32","0.936","2.514","0.2","0.18","30.2234","4.74737","10.2","0","SATNPRO1964","26.03","0.3646","5"],
    [61657,"HCEP03730563","2025-09-30 15:45:00","11.4175","3.45773","27.149","0.914","7.32","0.995","2.653","0.36","0.42","30.2232","4.74734","10.13","0","SATNPRO1964","26.194","0.36684","5"],
    [61658,"HCEP03730563","2025-09-30 16:00:00","11.4173","3.45768","27.086","0.91","7.32","0.767","2.556","0.12","0.25","30.223","4.74731","10.09","0","SATNPRO1964","26.13","0.366","5"],
    [61659,"HCEP03730563","2025-09-30 16:15:00","11.4172","3.45767","27.044","0.904","7.32","1.051","2.483","0.34","0.12","30.223","4.7473","10.02","0","SATNPRO1964","26.074","0.36524","5"],
    [61660,"HCEP03730563","2025-09-30 16:30:00","11.4169","3.45763","26.981","0.902","7.32","0.875","2.647","0.13","0.2","30.2229","4.74729","9.99","0","SATNPRO1964","26.186","0.36678","5"],
    [61661,"HCEP03730563","2025-09-30 16:45:00","11.4174","3.45762","27.005","0.906","7.32","0.895","2.315","0.15","0.11","30.2223","4.74721","10.04","0","SATNPRO1964","26.238","0.3675","5"],
    [61662,"HCEP03730563","2025-09-30 17:00:00","11.4169","3.45761","26.914","0.91","7.32","0.863","2.225","0.31","0.08","30.2226","4.74725","10.08","0","SATNPRO1964","26.222","0.36726","5"],
    [61663,"HCEP03730563","2025-09-30 17:15:00","11.4171","3.45758","26.905","0.913","7.32","0.817","2.262","0.47","0.2","30.2222","4.74719","10.12","0","SATNPRO1964","26.258","0.36778","5"],
    [61664,"HCEP03730563","2025-09-30 17:30:00","11.4165","3.45748","26.928","0.909","7.32","0.859","2.43","0.23","0.2","30.221800000000002","4.74714","10.07","0","SATNPRO1964","26.28","0.36814","5"],
    [61665,"HCEP03730563","2025-09-30 17:45:00","11.416","3.45745","26.863","0.903","7.32","1.291","2.561","1.56","0.2","30.2219","4.74716","10","0","SATNPRO1964","26.086000000000002","0.3654","5"],
    [61666,"HCEP03730563","2025-09-30 18:00:00","11.4156","3.45737","26.813","0.895","7.32","1.201","2.573","0.26","0.17","30.2214","4.74709","9.92","0","SATNPRO1964","26.114","0.3658","5"],
    [61667,"HCEP03730563","2025-09-30 18:15:00","11.4149","3.45717","26.808","0.896","7.32","1.172","2.299","0.2","0.08","30.22","4.74691","9.93","0","SATNPRO1964","26.028","0.3646","5"],
    [61668,"HCEP03730563","2025-09-30 18:30:00","11.4146","3.4571","26.777","0.895","7.31","1.174","2.331","0.15","0.1","30.2197","4.74687","9.92","0","SATNPRO1964","25.932000000000002","0.36324","5"],
    [61669,"HCEP03730563","2025-09-30 18:45:00","11.413","3.45683","26.761","0.89","7.31","1.252","2.352","0.18","0.1","30.2183","4.74669","9.86","0","SATNPRO1964","25.998","0.36416","5"],
    [61670,"HCEP03730563","2025-09-30 19:00:00","11.4144","3.45693","26.815","0.882","7.31","1.253","2.432","0.16","0.11","30.2182","4.74666","9.77","0","SATNPRO1964","25.95","0.3635","5"],
    [61671,"HCEP03730563","2025-09-30 19:15:00","11.4151","3.45698","26.779","0.865","7.31","1.483","2.526","0.24","0.13","30.2181","4.74664","9.59","0","SATNPRO1964","26.044","0.36482","5"],
    [61672,"HCEP03730563","2025-09-30 19:30:00","11.4142","3.45684","26.763","0.874","7.31","1.412","2.394","0.16","0.09","30.2175","4.74656","9.68","0","SATNPRO1964","26.112000000000002","0.36576","5"],
    [61673,"HCEP03730563","2025-09-30 19:45:00","11.4158","3.45713","26.774","0.888","7.32","1.439","2.482","0.26","0.15","30.219","4.74675","9.85","0","SATNPRO1964","26.264","0.36786","5"],
    [61674,"HCEP03730563","2025-09-30 20:00:00","11.4192","3.45774","26.757","0.899","7.32","1.105","2.282","0.15","0.11","30.2222","4.74715","9.96","0","SATNPRO1964","26.334","0.36886","5"],
    [61675,"HCEP03730563","2025-09-30 20:15:00","11.4214","3.45811","26.824","0.908","7.32","1.366","2.551","0.18","0.24","30.2239","4.74737","10.06","0","SATNPRO1964","26.27","0.36798","5"],
    [61676,"HCEP03730563","2025-09-30 20:30:00","11.4226","3.45826","26.801","0.902","7.32","1.571","2.719","0.27","0.1","30.2244","4.74741","10","0","SATNPRO1964","26.106","0.36564","5"],
    [61677,"HCEP03730563","2025-09-30 20:45:00","11.4243","3.45842","26.805","0.903","7.32","1.533","2.698","0.22","0.16","30.2246","4.74742","10.01","0","SATNPRO1964","26.344","0.36898","5"],
    [61678,"HCEP03730563","2025-09-30 21:00:00","11.4281","3.45889","26.799","0.912","7.32","1.483","2.605","0.23","0.28","30.226","4.74755","10.11","0","SATNPRO1964","26.608","0.37268","5"],
    [61679,"HCEP03730563","2025-09-30 21:15:00","11.4341","3.45967","26.827","0.941","7.32","1.513","2.545","0.22","0.17","30.2286","4.74784","10.44","0","SATNPRO1964","26.758","0.37478","5"],
    [61680,"HCEP03730563","2025-09-30 21:30:00","11.4398","3.46043","26.885","0.986","7.32","1.526","2.653","0.22","0.13","30.2313","4.74814","10.93","0","SATNPRO1964","26.93","0.37722","5"],
    [61681,"HCEP03730563","2025-09-30 21:45:00","11.4475","3.46145","26.847","1.028","7.33","1.52","2.698","0.16","0.14","30.2349","4.74854","11.4","0","SATNPRO1964","26.988","0.37802","5"],
    [61682,"HCEP03730563","2025-09-30 22:00:00","11.4527","3.46213","26.885","1.07","7.33","1.525","2.736","0.23","0.18","30.2373","4.7488","11.87","0","SATNPRO1964","27.098","0.37952","5"],
    [61683,"HCEP03730563","2025-09-30 22:15:00","11.4589","3.46291","26.863","1.11","7.33","1.536","2.669","0.22","0.15","30.2398","4.74906","12.32","0","SATNPRO1964","27.274","0.38202","5"],
    [61684,"HCEP03730563","2025-09-30 22:30:00","11.462","3.46338","26.865","1.149","7.34","1.355","2.538","0.19","0.13","30.2418","4.74931","12.75","0","SATNPRO1964","27.328","0.38278","5"],
    [61685,"HCEP03730563","2025-09-30 22:45:00","11.4653","3.46377","26.827","1.171","7.34","1.516","2.84","0.2","0.12","30.2429","4.74941","12.99","0","SATNPRO1964","27.336000000000002","0.38286","5"],
    [61686,"HCEP03730563","2025-09-30 23:00:00","11.5035","3.46884","26.786","1.245","7.35","2.491","3.174","0.19","0.16","30.2607","4.75138","13.83","0","SATNPRO1964","27.918","0.39108","5"],
    [61687,"HCEP03730563","2025-09-30 23:15:00","11.5505","3.47617","26.705","1.533","7.37","3.33","4.288","0.25","0.12","30.2933","4.7553","17.04","0","SATNPRO1964","28.628","0.401","5"],
    [61688,"HCEP03730563","2025-09-30 23:30:00","11.5582","3.47799","26.673","1.657","7.38","2.992","3.87","0.16","0.11","30.3046","4.75679","18.43","0","SATNPRO1964","28.66","0.40142","5"],
    [61689,"HCEP03730563","2025-09-30 23:45:00","11.5494","3.47618","26.639","1.683","7.38","2.705","3.538","0.23","0.1","30.2943","4.75545","18.71","0","SATNPRO1964","28.64","0.40116","5"],
    [61690,"HCEP03730563","2025-10-01 00:00:00","11.5389","3.47429","26.583","1.648","7.38","2.623","3.593","0.16","0.07","30.2846","4.75423","18.31","0","SATNPRO1964","28.282","0.39612","5"],
    [61691,"HCEP03730563","2025-10-01 00:15:00","11.5235","3.4722","26.506","1.596","7.38","2.268","2.968","0.17","0.07","30.277","4.75337","17.73","0","SATNPRO1964","28.154","0.39432","5"],
    [61692,"HCEP03730563","2025-10-01 00:30:00","11.5209","3.47177","26.452","1.558","7.38","2.196","3.11","0.22","0.12","30.275","4.75313","17.31","0","SATNPRO1964","28.306","0.3965","5"],
    [61693,"HCEP03730563","2025-10-01 00:45:00","11.5199","3.47176","26.336","1.539","7.38","1.675","2.558","0.17","0.09","30.2758","4.75324","17.1","0","SATNPRO1964","28.238","0.3955","5"],
    [61694,"HCEP03730563","2025-10-01 01:00:00","11.5139","3.47073","26.285","1.524","7.38","1.742","2.791","0.21","0.2","30.2708","4.75262","16.93","0","SATNPRO1964","28","0.3922","5"],
    [61695,"HCEP03730563","2025-10-01 01:15:00","11.5084","3.47006","26.212","1.482","7.37","1.811","2.989","0.21","0.43","30.2689","4.75242","16.46","0","SATNPRO1964","28.048000000000002","0.39286","5"],
    [61696,"HCEP03730563","2025-10-01 01:30:00","11.5048","3.46935","26.161","1.448","7.37","1.679","3.367","0.2","0.57","30.2648","4.7519","16.09","0","SATNPRO1964","27.776","0.38908","5"],
    [61697,"HCEP03730563","2025-10-01 01:45:00","11.4949","3.46814","26.029","1.412","7.37","2.267","3.6","0.38","0.52","30.2613","4.75154","15.68","0","SATNPRO1964","27.695999999999998","0.3879","5"],
    [61698,"HCEP03730563","2025-10-01 02:00:00","11.4906","3.46737","25.947","1.363","7.36","1.734","2.976","0.21","0.24","30.2574","4.75104","15.13","0","SATNPRO1964","27.682","0.38774","5"],
    [61699,"HCEP03730563","2025-10-01 02:15:00","11.4818","3.46581","25.851","1.342","7.36","1.481","3.093","0.19","1.18","30.2496","4.75006","14.9","0","SATNPRO1964","27.686","0.38782","5"],
    [61700,"HCEP03730563","2025-10-01 02:30:00","11.4425","3.45839","25.687","1.244","7.35","1.348","2.416","0.2","0.48","30.2098","4.74499","13.8","0","SATNPRO1964","27.136","0.38006","5"],
    [61701,"HCEP03730563","2025-10-01 02:45:00","11.4657","3.46303","25.526","1.19","7.35","1.396","2.632","0.2","0.17","30.2359","4.74834","13.2","0","SATNPRO1964","27.438000000000002","0.38434","5"],
    [61702,"HCEP03730563","2025-10-01 03:00:00","11.4604","3.46216","25.39","1.191","7.35","1.426","2.54","0.15","0.13","30.2318","4.74784","13.21","0","SATNPRO1964","27.18","0.38064","5"],
    [61703,"HCEP03730563","2025-10-01 03:15:00","11.4599","3.46215","25.275","1.151","7.34","1.543","2.752","0.17","0.17","30.2322","4.74789","12.77","0","SATNPRO1964","27.09","0.37942","5"],
    [61704,"HCEP03730563","2025-10-01 03:30:00","11.4572","3.4616","25.118","1.118","7.34","1.752","2.846","0.67","0.29","30.2292","4.74749","12.41","0","SATNPRO1964","27.04","0.37876","5"],
    [61705,"HCEP03730563","2025-10-01 03:45:00","11.4584","3.46167","25.013","1.093","7.34","1.541","3.014","0.24","0.23","30.2289","4.74742","12.13","0","SATNPRO1964","26.882","0.37652","5"],
    [61706,"HCEP03730563","2025-10-01 04:00:00","11.4565","3.46093","24.901","1.092","7.34","1.56","2.719","0.35","0.19","30.2233","4.74666","12.11","0","SATNPRO1964","26.886","0.37658","5"],
    [61707,"HCEP03730563","2025-10-01 04:15:00","11.455","3.46081","24.855","1.092","7.34","1.621","2.751","0.3","0.12","30.2234","4.74669","12.11","0","SATNPRO1964","26.876","0.3764","5"],
    [61708,"HCEP03730563","2025-10-01 04:30:00","11.4705","3.46222","24.781","1.124","7.34","1.739","2.795","0.21","0.19","30.2244","4.7466","12.47","0","SATNPRO1964","27.288","0.38216","5"],
    [61709,"HCEP03730563","2025-10-01 04:45:00","11.5027","3.46607","24.746","1.307","7.35","1.96","2.978","0.24","0.18","30.2354","4.7477","14.51","0","SATNPRO1964","28.292","0.39626","5"],
    [61710,"HCEP03730563","2025-10-01 05:00:00","11.5108","3.46719","24.777","1.492","7.36","1.999","2.997","0.24","0.23","30.2396","4.74817","16.57","0","SATNPRO1964","27.97","0.39178","5"],
    [61711,"HCEP03730563","2025-10-01 05:15:00","11.4927","3.4658","24.709","1.413","7.36","2.361","3.948","0.18","0.22","30.241","4.74862","15.69","0","SATNPRO1964","27.52","0.38548","5"],
    [61712,"HCEP03730563","2025-10-01 05:30:00","11.4862","3.46485","24.719","1.335","7.36","2.265","3.626","0.19","0.19","30.2371","4.74816","14.82","0","SATNPRO1964","27.292","0.38224","5"],
    [61713,"HCEP03730563","2025-10-01 05:45:00","11.474","3.46326","24.7","1.25","7.35","2.676","4.236","0.25","0.4","30.2316","4.74757","13.87","0","SATNPRO1964","26.956","0.37758","5"],
    [61714,"HCEP03730563","2025-10-01 06:00:00","11.4703","3.46264","24.777","1.177","7.35","2.641","4.256","0.26","0.35","30.2286","4.7472","13.06","0","SATNPRO1964","26.846","0.37606","5"],
    [61715,"HCEP03730563","2025-10-01 06:15:00","11.4716","3.46183","24.756","1.17","7.34","2.756","4.406","0.25","0.32","30.2197","4.74592","12.98","0","SATNPRO1964","26.986","0.37798","5"],
    [61716,"HCEP03730563","2025-10-01 06:30:00","11.4618","3.45988","24.857","1.156","7.34","2.7","4.502","0.23","0.26","30.2088","4.74453","12.82","0","SATNPRO1964","26.584","0.37234","5"],
    [61717,"HCEP03730563","2025-10-01 06:45:00","11.4502","3.45832","24.86","1.072","7.33","2.843","5.005","0.23","0.33","30.2032","4.7439","11.89","0","SATNPRO1964","26.064","0.3651","5"],
    [61718,"HCEP03730563","2025-10-01 07:00:00","11.4476","3.45768","24.916","1.011","7.33","2.724","4.611","0.23","0.3","30.1991","4.74336","11.21","0","SATNPRO1964","25.908","0.36288","5"],
    [61719,"HCEP03730563","2025-10-01 07:15:00","11.443","3.45735","25.049","0.985","7.33","2.855","4.95","0.28","0.25","30.1995","4.74349","10.92","0","SATNPRO1964","25.752","0.36074","5"],
    [61720,"HCEP03730563","2025-10-01 07:30:00","11.4351","3.4564","25.142","0.948","7.32","2.573","4.41","0.16","0.35","30.1968","4.74323","10.51","0","SATNPRO1964","25.466","0.3567","5"],
    [61721,"HCEP03730563","2025-10-01 07:45:00","11.4295","3.45554","25.234","0.913","7.32","2.997","5.52","0.22","0.37","30.1929","4.74277","10.11","0","SATNPRO1964","25.308","0.35448","5"],
    [61722,"HCEP03730563","2025-10-01 08:00:00","11.4222","3.45426","25.34","0.869","7.31","3.302","7.005","0.27","0.43","30.1865","4.74197","9.63","0","SATNPRO1964","24.888","0.34858","5"],
    [61723,"HCEP03730563","2025-10-01 08:15:00","11.4168","3.45333","25.472","0.827","7.31","3.158","6.853","0.19","0.43","30.1818","4.74139","9.17","0","SATNPRO1964","24.602","0.34458","5"],
    [61724,"HCEP03730563","2025-10-01 08:30:00","11.4129","3.45258","25.6","0.805","7.31","3.252","7.505","0.2","0.54","30.1777","4.74088","8.92","0","SATNPRO1964","24.378","0.34146","5"],
    [61725,"HCEP03730563","2025-10-01 08:45:00","11.4109","3.45206","25.683","0.787","7.31","3.074","6.763","0.2","0.56","30.1743","4.74043","8.72","0","SATNPRO1964","24.296","0.34028","5"],
    [61726,"HCEP03730563","2025-10-01 09:00:00","11.407","3.45125","25.888","0.768","7.3","3.545","8.653","0.21","0.51","30.1695","4.73982","8.51","0","SATNPRO1964","23.876","0.33444","5"],
    [61727,"HCEP03730563","2025-10-01 09:15:00","11.4011","3.45037","26.023","0.739","7.3","3.888","9.738","0.28","0.86","30.1658","4.73938","8.19","0","SATNPRO1964","23.636","0.33106","5"],
    [61728,"HCEP03730563","2025-10-01 09:30:00","11.3952","3.44938","26.191","0.693","7.3","4.117","9.547","0.26","0.6","30.1609","4.73878","7.68","0","SATNPRO1964","23.248","0.32562","5"],
    [61729,"HCEP03730563","2025-10-01 09:45:00","11.3863","3.44778","26.3","0.633","7.29","4.793","10.089","0.26","0.54","30.1526","4.73775","7.01","0","SATNPRO1964","22.756","0.31876","5"],
    [61730,"HCEP03730563","2025-10-01 10:00:00","11.3821","3.44644","26.463","0.579","7.29","5.703","10.032","0.3","0.72","30.1429","4.73645","6.41","0","SATNPRO1964","22.492","0.31508","5"],
    [61731,"HCEP03730563","2025-10-01 10:15:00","11.3836","3.44573","26.652","0.536","7.28","6.727","10.779","0.57","1.1","30.1347","4.73528","5.93","0","SATNPRO1964","21.997999999999998","0.30812","5"],
    [61732,"HCEP03730563","2025-10-01 10:30:00","11.3877","3.44557","26.65","0.512","7.28","7.649","11.394","0.39","0.79","30.1298","4.73452","5.66","0","SATNPRO1964","21.914","0.30694","5"],
    [61733,"HCEP03730563","2025-10-01 10:45:00","11.394","3.44564","26.78","0.504","7.28","7.091","9.398","0.45","0.61","30.1253","4.7338","5.58","0","SATNPRO1964","21.848","0.30598","5"],
    [61734,"HCEP03730563","2025-10-01 11:00:00","11.3972","3.44571","26.968","0.503","7.28","7.958","10.608","0.56","1.01","30.1233","4.73348","5.57","0","SATNPRO1964","21.886","0.30656","5"],
    [61735,"HCEP03730563","2025-10-01 11:15:00","11.4008","3.44575","27.093","0.503","7.28","8.511","10.573","0.53","0.71","30.1208","4.73307","5.57","0","SATNPRO1964","21.834","0.30582","5"],
    [61736,"HCEP03730563","2025-10-01 11:30:00","11.4025","3.44577","27.184","0.505","7.28","6.583","7.422","0.41","0.39","30.1195","4.73287","5.59","0","SATNPRO1964","21.874","0.30642","5"],
    [61737,"HCEP03730563","2025-10-01 11:45:00","11.4059","3.44579","27.282","0.505","7.28","6.672","6.888","0.54","0.4","30.1169","4.73246","5.6","0","SATNPRO1964","21.84","0.30592","5"],
    [61738,"HCEP03730563","2025-10-01 12:00:00","11.4087","3.44585","27.347","0.507","7.28","4.637","4.349","0.3","0.23","30.1152","4.73218","5.61","0","SATNPRO1964","21.764","0.30482","5"],
    [61739,"HCEP03730563","2025-10-01 12:15:00","11.4114","3.44588","27.4","0.509","7.28","4.19","3.795","0.31","0.29","30.1133","4.73187","5.64","0","SATNPRO1964","21.75","0.30462","5"],
    [61740,"HCEP03730563","2025-10-01 12:30:00","11.4089","3.44575","27.51","0.511","7.28","4.388","3.66","0.43","0.31","30.1139","4.73201","5.66","0","SATNPRO1964","21.698","0.30392","5"],
    [61741,"HCEP03730563","2025-10-01 12:45:00","11.4088","3.44554","27.683","0.514","7.28","3.869","3.192","0.3","0.1","30.1119","4.73174","5.69","0","SATNPRO1964","21.722","0.30426","5"],
    [61742,"HCEP03730563","2025-10-01 13:00:00","11.4083","3.44541","27.586","0.51","7.28","3.722","2.957","0.24","0.07","30.1111","4.73162","5.65","0","SATNPRO1964","21.919999999999998","0.307","5"],
    [61743,"HCEP03730563","2025-10-01 13:15:00","11.424","3.44667","27.68","0.538","7.28","3.315","2.82","0.29","0.15","30.1105","4.73132","5.96","0","SATNPRO1964","22.048","0.3088","5"],
    [61744,"HCEP03730563","2025-10-01 13:30:00","11.4445","3.44735","27.674","0.585","7.28","3.086","2.697","0.25","0.07","30.1005","4.72959","6.48","0","SATNPRO1964","22.154","0.3103","5"],
    [61745,"HCEP03730563","2025-10-01 13:45:00","11.5679","3.45128","27.733","0.709","7.3","3.432","2.629","0.32","0.07","30.0383","4.719","7.87","0","SATNPRO1964","21.884","0.30654","5"],
    [61746,"HCEP03730563","2025-10-01 14:00:00","11.4663","3.44725","27.677","0.819","7.3","2.817","2.642","0.31","0.07","30.0818","4.72663","9.08","0","SATNPRO1964","21.656","0.3033","5"],
    [61747,"HCEP03730563","2025-10-01 14:15:00","11.4326","3.44618","27.644","0.651","7.29","2.706","2.726","0.44","0.24","30.0988","4.72953","7.21","0","SATNPRO1964","21.742","0.3045","5"],
    [61748,"HCEP03730563","2025-10-01 14:30:00","11.4821","3.44794","27.723","0.609","7.29","3.321","2.828","0.39","0.14","30.0755","4.72551","6.75","0","SATNPRO1964","22.176000000000002","0.31062","5"],
    [61749,"HCEP03730563","2025-10-01 14:45:00","11.5263","3.45268","27.625","0.748","7.3","7.606","6.604","0.87","0.86","30.0855","4.72629","8.3","0","SATNPRO1964","22.42","0.31406","5"],
    [61750,"HCEP03730563","2025-10-01 15:00:00","11.5477","3.46029","27.639","0.914","7.31","9.029","10.951","0.82","1.44","30.1417","4.73394","10.15","0","SATNPRO1964","24.944","0.34936","5"],
    [61751,"HCEP03730563","2025-10-01 15:15:00","11.5146","3.46197","27.606","1.018","7.32","7.227","8.818","0.86","1.47","30.1848","4.74052","11.3","0","SATNPRO1964","25.490000000000002","0.35704","5"],
    [61752,"HCEP03730563","2025-10-01 15:30:00","11.5039","3.46188","27.49","0.986","7.32","11.547","31.292","6.33","19.54","30.1928","4.74179","10.94","0","SATNPRO1964","25.668","0.35954","5"],
    [61753,"HCEP03730563","2025-10-01 15:45:00","11.5115","3.46227","27.458","0.986","7.32","5.872","5.516","0.58","0.52","30.1904","4.74135","10.94","0","SATNPRO1964","25.828","0.3618","5"],
    [61754,"HCEP03730563","2025-10-01 16:00:00","11.517","3.46269","27.358","1.058","7.33","4.645","4.063","0.53","0.41","30.19","4.74121","11.75","0","SATNPRO1964","26.278","0.36808","5"],
    [61755,"HCEP03730563","2025-10-01 16:15:00","11.5187","3.46254","27.349","1.09","7.33","4.447","4.026","0.59","0.54","30.1872","4.74077","12.11","0","SATNPRO1964","26.236","0.36746","5"],
    [61756,"HCEP03730563","2025-10-01 16:30:00","11.5178","3.46226","27.213","1.118","7.33","4.215","4.052","0.49","0.39","30.1852","4.74051","12.41","0","SATNPRO1964","26.266","0.36792","5"],
    [61757,"HCEP03730563","2025-10-01 16:45:00","11.5156","3.46209","27.181","1.129","7.34","3.544","3.412","0.44","0.33","30.1855","4.74057","12.53","0","SATNPRO1964","26.336000000000002","0.3689","5"],
    [61758,"HCEP03730563","2025-10-01 17:00:00","11.505","3.46185","27.146","1.121","7.34","3.166","3.191","0.39","0.31","30.1917","4.7416","12.44","0","SATNPRO1964","26.406","0.36984","5"],
    [61759,"HCEP03730563","2025-10-01 17:15:00","11.4988","3.46179","27.067","1.106","7.34","3.398","3.5","0.34","0.21","30.1962","4.74233","12.28","0","SATNPRO1964","26.612","0.37274","5"],
    [61760,"HCEP03730563","2025-10-01 17:30:00","11.4862","3.46099","27.051","1.078","7.33","2.793","2.737","0.37","0.17","30.1988","4.74287","11.96","0","SATNPRO1964","26.47","0.37072","5"],
    [61761,"HCEP03730563","2025-10-01 17:45:00","11.4857","3.46102","26.922","1.065","7.33","3.103","2.917","0.28","0.15","30.1996","4.74298","11.82","0","SATNPRO1964","26.322","0.3687","5"],
    [61762,"HCEP03730563","2025-10-01 18:00:00","11.4831","3.46085","26.914","1.049","7.33","3.338","3.104","0.34","0.26","30.2","4.74309","11.64","0","SATNPRO1964","26.228","0.36736","5"],
    [61763,"HCEP03730563","2025-10-01 18:15:00","11.4806","3.46083","26.8","1.033","7.33","3.213","3.125","0.35","0.23","30.2019","4.74338","11.46","0","SATNPRO1964","26.201999999999998","0.36702","5"],
    [61764,"HCEP03730563","2025-10-01 18:30:00","11.4737","3.46016","26.752","1.015","7.33","3.035","2.842","0.22","0.11","30.2011","4.74337","11.26","0","SATNPRO1964","26.158","0.3664","5"],
    [61765,"HCEP03730563","2025-10-01 18:45:00","11.4743","3.46038","26.742","1.002","7.33","3.139","2.901","0.4","0.26","30.2027","4.74359","11.11","0","SATNPRO1964","26.122","0.36588","5"],
    [61766,"HCEP03730563","2025-10-01 19:00:00","11.469","3.45982","26.673","0.984","7.33","2.806","2.661","0.23","0.14","30.2017","4.74351","10.91","0","SATNPRO1964","25.924","0.36312","5"],
    [61767,"HCEP03730563","2025-10-01 19:15:00","11.4694","3.46","26.694","0.972","7.33","2.841","2.685","0.34","0.14","30.2031","4.7437","10.78","0","SATNPRO1964","25.864","0.3623","5"],
    [61768,"HCEP03730563","2025-10-01 19:30:00","11.4656","3.45932","26.738","0.955","7.32","3.22","2.887","1.21","0.2","30.1995","4.74326","10.59","0","SATNPRO1964","25.806","0.36144","5"],
    [61769,"HCEP03730563","2025-10-01 19:45:00","11.4609","3.45888","26.666","0.939","7.32","2.547","2.674","0.3","0.14","30.1991","4.74327","10.41","0","SATNPRO1964","25.628","0.35896","5"],
    [61770,"HCEP03730563","2025-10-01 20:00:00","11.4619","3.45917","26.682","0.922","7.32","2.575","2.677","0.38","0.19","30.2011","4.74354","10.23","0","SATNPRO1964","25.624","0.35892","5"],
    [61771,"HCEP03730563","2025-10-01 20:15:00","11.466","3.46005","26.694","0.924","7.32","2.636","2.876","0.32","0.32","30.2063","4.74421","10.26","0","SATNPRO1964","25.524","0.3575","5"],
    [61772,"HCEP03730563","2025-10-01 20:30:00","11.4735","3.46124","26.697","0.95","7.32","2.494","2.644","0.24","0.14","30.2118","4.74488","10.54","0","SATNPRO1964","25.552","0.35792","5"],
    [61773,"HCEP03730563","2025-10-01 20:45:00","11.4806","3.46237","26.665","0.974","7.33","2.397","2.509","0.26","0.15","30.2169","4.74549","10.81","0","SATNPRO1964","25.714000000000002","0.36016","5"],
    [61774,"HCEP03730563","2025-10-01 21:00:00","11.4967","3.46373","26.74","1.034","7.33","2.301","2.426","0.27","0.17","30.2169","4.74527","11.48","0","SATNPRO1964","26.07","0.36518","5"],
    [61775,"HCEP03730563","2025-10-01 21:15:00","11.5085","3.46489","26.76","1.109","7.34","2.463","2.466","0.22","0.12","30.2185","4.74532","12.31","0","SATNPRO1964","26.35","0.36908","5"],
    [61776,"HCEP03730563","2025-10-01 21:30:00","11.5264","3.46621","26.755","1.173","7.34","2.658","2.516","0.24","0.14","30.2167","4.74481","13.03","0","SATNPRO1964","26.48","0.3709","5"],
    [61777,"HCEP03730563","2025-10-01 21:45:00","11.5191","3.46495","26.739","1.252","7.35","2.558","2.381","0.25","0.13","30.2104","4.74402","13.91","0","SATNPRO1964","26.782","0.37514","5"],
    [61778,"HCEP03730563","2025-10-01 22:00:00","11.4984","3.46233","26.78","1.19","7.34","2.975","2.757","0.27","0.13","30.2019","4.74312","13.21","0","SATNPRO1964","25.886","0.36254","5"],
    [61779,"HCEP03730563","2025-10-01 22:15:00","11.4914","3.46142","26.802","1.087","7.34","3.119","2.777","0.41","0.19","30.1989","4.74279","12.06","0","SATNPRO1964","25.662","0.35944","5"],
    [61780,"HCEP03730563","2025-10-01 22:30:00","11.4925","3.46108","26.841","1.044","7.33","3.125","2.75","0.29","0.3","30.1946","4.74218","11.58","0","SATNPRO1964","25.938","0.36328","5"],
    [61781,"HCEP03730563","2025-10-01 22:45:00","11.4815","3.45998","26.785","1.018","7.33","3.465","2.801","0.29","0.14","30.1929","4.74209","11.29","0","SATNPRO1964","25.596","0.35852","5"],
    [61782,"HCEP03730563","2025-10-01 23:00:00","11.474","3.45898","26.779","0.964","7.33","3.842","2.989","0.33","0.13","30.1894","4.74171","10.69","0","SATNPRO1964","25.384","0.3555","5"],
    [61783,"HCEP03730563","2025-10-01 23:15:00","11.4735","3.45859","26.796","0.921","7.32","3.648","2.796","0.51","0.26","30.186","4.74124","10.22","0","SATNPRO1964","25.286","0.3542","5"],
    [61784,"HCEP03730563","2025-10-01 23:30:00","11.4885","3.45927","26.891","0.924","7.32","3.235","2.539","0.37","0.17","30.1804","4.74022","10.25","0","SATNPRO1964","25.284","0.35412","5"],
    [61785,"HCEP03730563","2025-10-01 23:45:00","11.4918","3.45956","26.87","1.044","7.33","3.006","2.272","0.44","0.15","30.1805","4.7402","11.58","0","SATNPRO1964","25.332","0.35482","5"],
    [61786,"HCEP03730563","2025-10-02 00:00:00","11.5227","3.46171","26.836","1.115","7.34","2.308","1.969","0.36","0.11","30.1761","4.73912","12.38","0","SATNPRO1964","25.594","0.35848","5"],
    [61787,"HCEP03730563","2025-10-02 00:15:00","11.5169","3.46125","26.824","1.187","7.34","2.204","1.726","0.79","0.08","30.1764","4.73925","13.18","0","SATNPRO1964","25.951999999999998","0.3635","5"],
    [61788,"HCEP03730563","2025-10-02 00:30:00","11.5165","3.46044","26.754","1.228","7.34","2.013","1.853","0.46","0.18","30.169","4.73819","13.63","0","SATNPRO1964","25.580000000000002","0.35828","5"],
    [61789,"HCEP03730563","2025-10-02 00:45:00","11.582","3.46852","26.723","1.314","7.36","1.876","1.489","0.31","0.12","30.1937","4.74075","14.62","0","SATNPRO1964","27.39","0.38368","5"],
    [61790,"HCEP03730563","2025-10-02 01:00:00","11.59","3.47004","26.663","1.673","7.38","1.875","1.363","0.26","0.07","30.2019","4.74179","18.61","0","SATNPRO1964","27.806","0.3895","5"],
    [61791,"HCEP03730563","2025-10-02 01:15:00","11.5061","3.46253","26.587","1.53","7.36","2.746","2.298","0.26","0.1","30.1977","4.7424","16.99","0","SATNPRO1964","25.798","0.36136","5"],
    [61792,"HCEP03730563","2025-10-02 01:30:00","11.4977","3.46222","26.585","1.134","7.35","2.492","2.413","0.22","0.14","30.2015","4.74307","12.59","0","SATNPRO1964","25.666","0.3595","5"],
    [61793,"HCEP03730563","2025-10-02 01:45:00","11.5037","3.46292","26.556","1.068","7.34","2.139","2.122","0.23","0.1","30.2034","4.74325","11.86","0","SATNPRO1964","25.82","0.36166","5"],
    [61794,"HCEP03730563","2025-10-02 02:00:00","11.5099","3.46316","26.483","1.11","7.34","2.42","2.351","0.36","0.19","30.2008","4.74278","12.33","0","SATNPRO1964","26.076","0.36524","5"],
    [61795,"HCEP03730563","2025-10-02 02:15:00","11.5251","3.465","26.407","1.161","7.34","2.35","2.188","0.29","0.09","30.2061","4.74331","12.9","0","SATNPRO1964","26.476","0.37088","5"],
    [61796,"HCEP03730563","2025-10-02 02:30:00","11.5378","3.46627","26.323","1.29","7.35","2.404","2.269","0.27","0.11","30.2081","4.7434","14.33","0","SATNPRO1964","26.898","0.37676","5"],
    [61797,"HCEP03730563","2025-10-02 02:45:00","11.53","3.46555","26.197","1.326","7.35","2.703","2.455","0.3","0.1","30.2076","4.74344","14.73","0","SATNPRO1964","26.498","0.37114","5"],
    [61798,"HCEP03730563","2025-10-02 03:00:00","11.5437","3.46652","26.087","1.348","7.36","3.413","2.867","0.32","0.2","30.2059","4.74299","14.98","0","SATNPRO1964","26.686","0.37378","5"],
    [61799,"HCEP03730563","2025-10-02 03:15:00","11.5638","3.46876","25.898","1.484","7.37","4.255","3.254","0.35","0.29","30.2112","4.74344","16.5","0","SATNPRO1964","27.406","0.38384","5"],
    [61800,"HCEP03730563","2025-10-02 03:30:00","11.5696","3.4697","25.755","1.596","7.38","3.9","3.456","0.27","0.27","30.2155","4.74396","17.75","0","SATNPRO1964","27.567999999999998","0.38614","5"],
    [61801,"HCEP03730563","2025-10-02 03:45:00","11.5776","3.47146","25.597","1.645","7.38","3.698","3.191","0.3","0.29","30.2261","4.74533","18.3","0","SATNPRO1964","28.012","0.39232","5"],
    [61802,"HCEP03730563","2025-10-02 04:00:00","11.5786","3.47184","25.526","1.682","7.39","3.577","3.187","0.23","0.15","30.229","4.74573","18.7","0","SATNPRO1964","27.966","0.39172","5"],
    [61803,"HCEP03730563","2025-10-02 04:15:00","11.5749","3.47085","25.448","1.658","7.38","3.949","3.544","0.44","0.32","30.2225","4.74485","18.43","0","SATNPRO1964","27.634","0.38706","5"],
    [61804,"HCEP03730563","2025-10-02 04:30:00","11.5736","3.47026","25.309","1.615","7.38","4.426","3.58","0.39","0.24","30.2179","4.74422","17.96","0","SATNPRO1964","27.538","0.38572","5"],
    [61805,"HCEP03730563","2025-10-02 04:45:00","11.5753","3.47033","25.166","1.591","7.38","4.934","3.954","0.33","0.23","30.2172","4.74408","17.69","0","SATNPRO1964","27.392","0.3837","5"],
    [61806,"HCEP03730563","2025-10-02 05:00:00","11.5796","3.47112","25.055","1.608","7.38","4.418","3.594","0.28","0.2","30.2214","4.74461","17.88","0","SATNPRO1964","27.573999999999998","0.38626","5"],
    [61807,"HCEP03730563","2025-10-02 05:15:00","11.5795","3.47127","24.933","1.633","7.38","4.792","3.988","0.53","0.27","30.223","4.74484","18.16","0","SATNPRO1964","27.666","0.38756","5"],
    [61808,"HCEP03730563","2025-10-02 05:30:00","11.5795","3.47146","24.876","1.616","7.38","4.496","4.037","0.36","0.24","30.2248","4.74508","17.97","0","SATNPRO1964","27.604","0.38664","5"],
    [61809,"HCEP03730563","2025-10-02 05:45:00","11.5497","3.46748","24.846","1.503","7.37","4.454","4.579","0.35","0.46","30.2107","4.74352","16.71","0","SATNPRO1964","26.838","0.3759","5"],
    [61810,"HCEP03730563","2025-10-02 06:00:00","11.5249","3.46405","24.801","1.307","7.36","4.733","4.426","0.36","0.32","30.1978","4.74205","14.51","0","SATNPRO1964","25.9","0.36282","5"],
    [61811,"HCEP03730563","2025-10-02 06:15:00","11.5084","3.46218","24.81","1.133","7.35","5.622","4.816","0.48","0.36","30.1931","4.74161","12.57","0","SATNPRO1964","25.498","0.35714","5"],
    [61812,"HCEP03730563","2025-10-02 06:30:00","11.4908","3.45996","24.793","0.995","7.34","6.412","5.066","0.55","0.55","30.186","4.74087","11.05","0","SATNPRO1964","24.83","0.34778","5"],
    [61813,"HCEP03730563","2025-10-02 06:45:00","11.4794","3.45827","24.7","0.876","7.33","6.657","5.637","0.49","0.42","30.179","4.74004","9.72","0","SATNPRO1964","24.564","0.34406","5"],
    [61814,"HCEP03730563","2025-10-02 07:00:00","11.4763","3.45779","24.795","0.803","7.32","5.57","4.711","0.39","0.27","30.1768","4.73978","8.91","0","SATNPRO1964","24.612","0.34472","5"],
    [61815,"HCEP03730563","2025-10-02 07:15:00","11.4759","3.45761","24.838","0.784","7.31","5.059","4.062","0.66","0.19","30.1754","4.73958","8.7","0","SATNPRO1964","24.614","0.34476","5"],
    [61816,"HCEP03730563","2025-10-02 07:30:00","11.4751","3.45747","24.794","0.779","7.31","6.381","5.125","0.5","0.51","30.1746","4.73949","8.65","0","SATNPRO1964","24.386","0.34158","5"],
    [61817,"HCEP03730563","2025-10-02 07:45:00","11.4734","3.45721","24.914","0.764","7.31","7.028","4.819","0.56","0.21","30.1735","4.73936","8.47","0","SATNPRO1964","24.652","0.34528","5"],
    [61818,"HCEP03730563","2025-10-02 08:00:00","11.4752","3.45719","24.983","0.749","7.31","7.479","5.088","0.52","0.35","30.1718","4.73909","8.31","0","SATNPRO1964","24.56","0.34402","5"],
    [61819,"HCEP03730563","2025-10-02 08:15:00","11.4774","3.45736","25.065","0.745","7.31","8.839","5.849","0.64","0.47","30.1716","4.73905","8.26","0","SATNPRO1964","24.488","0.34298","5"],
    [61820,"HCEP03730563","2025-10-02 08:30:00","11.4817","3.45749","25.185","0.745","7.31","8.47","5.445","0.55","0.38","30.1694","4.73867","8.27","0","SATNPRO1964","24.504","0.34324","5"],
    [61821,"HCEP03730563","2025-10-02 08:45:00","11.485","3.4576","25.305","0.75","7.31","8.043","5.02","0.47","0.31","30.1677","4.73839","8.32","0","SATNPRO1964","24.416","0.34202","5"],
    [61822,"HCEP03730563","2025-10-02 09:00:00","11.4894","3.45761","25.439","0.757","7.31","7.143","4.154","0.83","0.26","30.1641","4.73783","8.4","0","SATNPRO1964","24.352","0.3411","5"],
    [61823,"HCEP03730563","2025-10-02 09:15:00","11.4959","3.45765","25.535","0.763","7.31","7.838","4.443","0.79","0.18","30.1592","4.73704","8.46","0","SATNPRO1964","24.338","0.34086","5"],
    [61824,"HCEP03730563","2025-10-02 09:30:00","11.4954","3.45768","25.707","0.76","7.31","8.041","4.471","0.52","0.25","30.1598","4.73714","8.44","0","SATNPRO1964","24.282","0.34008","5"],
    [61825,"HCEP03730563","2025-10-02 09:45:00","11.5009","3.45786","25.856","0.757","7.31","8.177","4.05","0.78","0.2","30.157","4.73668","8.4","0","SATNPRO1964","24.284","0.34016","5"],
    [61826,"HCEP03730563","2025-10-02 10:00:00","11.5053","3.45809","26.013","0.765","7.31","7.369","3.841","0.52","0.2","30.1556","4.73642","8.49","0","SATNPRO1964","24.408","0.34186","5"],
    [61827,"HCEP03730563","2025-10-02 10:15:00","11.5005","3.45808","26.232","0.769","7.31","7.695","3.72","0.49","0.18","30.159300000000002","4.73703","8.53","0","SATNPRO1964","24.392","0.34166","5"],
    [61828,"HCEP03730563","2025-10-02 10:30:00","11.5017","3.45817","26.363","0.76","7.31","7.554","3.581","0.68","0.16","30.1591","4.73699","8.43","0","SATNPRO1964","24.323999999999998","0.34066","5"],
    [61829,"HCEP03730563","2025-10-02 10:45:00","11.5018","3.45819","26.461","0.764","7.31","6.659","3.57","0.46","0.12","30.159300000000002","4.73702","8.48","0","SATNPRO1964","24.567999999999998","0.3441","5"],
    [61830,"HCEP03730563","2025-10-02 11:00:00","11.503","3.4582","26.652","0.762","7.31","6.409","3.12","0.46","0.07","30.1583","4.73688","8.45","0","SATNPRO1964","24.322","0.34064","5"],
    [61831,"HCEP03730563","2025-10-02 11:15:00","11.5051","3.45824","26.793","0.757","7.31","6.482","2.986","0.57","0.15","30.1569","4.73666","8.4","0","SATNPRO1964","24.352","0.34108","5"],
    [61832,"HCEP03730563","2025-10-02 11:30:00","11.5072","3.45829","26.979","0.755","7.31","6.347","3.007","0.59","0.1","30.1556","4.73646","8.38","0","SATNPRO1964","24.28","0.34006","5"],
    [61833,"HCEP03730563","2025-10-02 11:45:00","11.5061","3.45824","27.124","0.75","7.31","6.715","3.114","0.71","0.13","30.1559","4.73651","8.33","0","SATNPRO1964","24.336","0.34084","5"],
    [61834,"HCEP03730563","2025-10-02 12:00:00","11.5268","3.45871","27.235","0.763","7.31","6.26","2.989","0.49","0.18","30.1436","4.73448","8.47","0","SATNPRO1964","24.302","0.34044","5"],
    [61835,"HCEP03730563","2025-10-02 12:15:00","11.5276","3.45871","27.346","0.803","7.31","5.642","2.791","0.47","0.1","30.1429","4.73438","8.91","0","SATNPRO1964","24.342000000000002","0.34094","5"],
    [61836,"HCEP03730563","2025-10-02 12:30:00","11.5554","3.45918","27.441","0.828","7.31","5.093","2.62","0.35","0.09","30.1248","4.73142","9.2","0","SATNPRO1964","24.368","0.3413","5"],
    [61837,"HCEP03730563","2025-10-02 12:45:00","11.59","3.45984","27.536","0.916","7.32","5.372","2.638","0.56","0.08","30.1031","4.72786","10.18","0","SATNPRO1964","24.338","0.34088","5"],
    [61838,"HCEP03730563","2025-10-02 13:00:00","11.7244","3.46202","27.606","1.12","7.34","5.931","2.748","0.61","0.14","30.0152","4.71351","12.47","0","SATNPRO1964","24.042","0.33672","5"],
    [61839,"HCEP03730563","2025-10-02 13:15:00","12.0889","3.46609","27.61","1.616","7.39","9.116","2.85","0.88","0.16","29.762","4.67268","18.09","0","SATNPRO1964","22.074","0.30918","5"],
    [61840,"HCEP03730563","2025-10-02 13:30:00","12.0482","3.46622","27.682","2.312","7.43","9.216","2.793","1.01","0.12","29.7957","4.67799","25.89","0","SATNPRO1964","21.384","0.29952","5"],
    [61841,"HCEP03730563","2025-10-02 13:45:00","12.0068","3.46575","27.714","2.329","7.43","10.593","2.777","2.15","0.32","29.8242","4.68258","26.05","0","SATNPRO1964","20.944","0.29332","5"],
    [61842,"HCEP03730563","2025-10-02 14:00:00","12.035","3.46605","27.717","2.176","7.44","12.521","2.572","1.93","0.19","29.8045","4.67942","24.37","0","SATNPRO1964","20.504","0.28718","5"],
    [61843,"HCEP03730563","2025-10-02 14:15:00","11.9551","3.46519","27.756","2.176","7.43","13.21","2.281","4.43","0.53","29.8602","4.68838","24.33","0","SATNPRO1964","22.088","0.30936","5"],
    [61844,"HCEP03730563","2025-10-02 14:30:00","11.8144","3.46443","27.794","1.9","7.41","13.363","2.487","2.38","0.26","29.9658","4.70527","21.2","0","SATNPRO1964","23.09","0.3234","5"],
    [61845,"HCEP03730563","2025-10-02 14:45:00","11.7209","3.4636","27.798","1.531","7.39","9.502","2.412","2.28","0.17","30.0332","4.71612","17.06","0","SATNPRO1964","23.456","0.32856","5"],
    [61846,"HCEP03730563","2025-10-02 15:00:00","11.6404","3.4615","27.766","1.267","7.36","9.683","3.288","1.01","0.3","30.0782","4.72362","14.09","0","SATNPRO1964","23.568","0.33008","5"],
    [61847,"HCEP03730563","2025-10-02 15:15:00","11.6056","3.461","27.703","1.037","7.35","10.018","3.493","0.92","0.27","30.1016","4.72742","11.53","0","SATNPRO1964","23.644000000000002","0.33116","5"],
    [61848,"HCEP03730563","2025-10-02 15:30:00","11.6055","3.46153","27.489","1.007","7.34","9.053","3.588","0.73","0.19","30.1069","4.72817","11.19","0","SATNPRO1964","24.09","0.3374","5"],
    [61849,"HCEP03730563","2025-10-02 15:45:00","11.5885","3.46147","27.451","1.006","7.34","10.086","4.71","0.78","0.31","30.12","4.73026","11.18","0","SATNPRO1964","24.152","0.33828","5"],
    [61850,"HCEP03730563","2025-10-02 16:00:00","11.5752","3.46183","27.386","0.976","7.33","9.655","4.255","0.63","0.21","30.1344","4.73248","10.85","0","SATNPRO1964","24.53","0.34362","5"],
    [61851,"HCEP03730563","2025-10-02 16:15:00","11.5837","3.46281","27.341","0.979","7.33","12.037","5.053","0.79","0.27","30.1369","4.73272","10.88","0","SATNPRO1964","24.836","0.34786","5"],
    [61852,"HCEP03730563","2025-10-02 16:30:00","11.6033","3.46535","27.257","1.063","7.34","12.714","5.326","0.8","0.35","30.1456","4.73366","11.82","0","SATNPRO1964","26.046","0.36484","5"],
    [61853,"HCEP03730563","2025-10-02 16:45:00","11.6028","3.46627","27.169","1.189","7.35","9.752","4.08","0.56","0.25","30.1548","4.73497","13.23","0","SATNPRO1964","26.364","0.36926","5"],
    [61854,"HCEP03730563","2025-10-02 17:00:00","11.594","3.46585","27.103","1.218","7.35","10.889","4.652","0.84","0.32","30.158","4.73555","13.55","0","SATNPRO1964","26.428","0.37016","5"],
    [61855,"HCEP03730563","2025-10-02 17:15:00","11.5798","3.4649","27.031","1.196","7.35","10.099","4.637","0.79","0.44","30.1604","4.73609","13.3","0","SATNPRO1964","26.084","0.36536","5"],
    [61856,"HCEP03730563","2025-10-02 17:30:00","11.564","3.46417","26.965","1.167","7.35","9.538","3.997","0.97","0.35","30.1663","4.73714","12.97","0","SATNPRO1964","26.132","0.36604","5"],
    [61857,"HCEP03730563","2025-10-02 17:45:00","11.5576","3.46476","26.859","1.173","7.35","10.159","4.253","0.86","0.25","30.1772","4.73877","13.04","0","SATNPRO1964","26.382","0.3695","5"],
    [61858,"HCEP03730563","2025-10-02 18:00:00","11.555","3.46552","26.716","1.187","7.35","8.189","3.551","0.76","0.27","30.1867","4.74014","13.19","0","SATNPRO1964","26.308","0.3685","5"],
    [61859,"HCEP03730563","2025-10-02 18:15:00","11.5541","3.46626","26.651","1.203","7.35","7.486","3.4","0.29","0.14","30.1946","4.74127","13.36","0","SATNPRO1964","26.508","0.3713","5"],
    [61860,"HCEP03730563","2025-10-02 18:30:00","11.554","3.46659","26.581","1.207","7.35","9.035","3.955","0.96","0.35","30.1979","4.74174","13.41","0","SATNPRO1964","26.594","0.37248","5"],
    [61861,"HCEP03730563","2025-10-02 18:45:00","11.5565","3.46762","26.484","1.206","7.35","8.674","3.62","2.08","0.35","30.2058","4.74282","13.4","0","SATNPRO1964","26.762","0.37484","5"],
    [61862,"HCEP03730563","2025-10-02 19:00:00","11.5581","3.46812","26.415","1.223","7.35","8.591","3.369","1.09","0.29","30.2094","4.74329","13.59","0","SATNPRO1964","26.802","0.37542","5"],
    [61863,"HCEP03730563","2025-10-02 19:15:00","11.5571","3.46833","26.352","1.225","7.35","8.391","3.483","0.81","0.34","30.2123","4.74372","13.61","0","SATNPRO1964","26.752","0.37468","5"],
    [61864,"HCEP03730563","2025-10-02 19:30:00","11.5572","3.46854","26.313","1.221","7.35","8.383","3.487","0.79","0.31","30.2142","4.74399","13.57","0","SATNPRO1964","26.79","0.37526","5"],
    [61865,"HCEP03730563","2025-10-02 19:45:00","11.5576","3.46872","26.287","1.218","7.35","8.431","3.211","1.27","0.3","30.2156","4.74418","13.54","0","SATNPRO1964","26.858","0.37618","5"],
    [61866,"HCEP03730563","2025-10-02 20:00:00","11.5568","3.46842","26.288","1.211","7.35","8.008","3.191","0.99","0.25","30.2133","4.74387","13.46","0","SATNPRO1964","26.727999999999998","0.37438","5"],
    [61867,"HCEP03730563","2025-10-02 20:15:00","11.5563","3.4687","26.308","1.198","7.35","8.008","3.407","0.8","0.35","30.2164","4.74432","13.31","0","SATNPRO1964","26.71","0.37414","5"],
    [61868,"HCEP03730563","2025-10-02 20:30:00","11.5549","3.46871","26.332","1.188","7.35","8.155","3.494","0.55","0.29","30.2177","4.74452","13.2","0","SATNPRO1964","26.574","0.37218","5"],
    [61869,"HCEP03730563","2025-10-02 20:45:00","11.5555","3.46918","26.334","1.179","7.35","7.987","3.258","0.78","0.22","30.2219","4.74509","13.1","0","SATNPRO1964","26.69","0.37386","5"],
    [61870,"HCEP03730563","2025-10-02 21:00:00","11.5642","3.47094","26.371","1.185","7.35","7.296","3.048","0.64","0.21","30.2318","4.74637","13.18","0","SATNPRO1964","26.662","0.37344","5"],
    [61871,"HCEP03730563","2025-10-02 21:15:00","11.5731","3.47278","26.367","1.234","7.35","7.457","3.463","0.56","0.23","30.2422","4.74772","13.72","0","SATNPRO1964","27.064","0.37908","5"],
    [61872,"HCEP03730563","2025-10-02 21:30:00","11.5844","3.47468","26.4","1.296","7.36","6.715","3.07","0.7","0.39","30.2514","4.74886","14.42","0","SATNPRO1964","27.25","0.38168","5"],
    [61873,"HCEP03730563","2025-10-02 21:45:00","11.5884","3.47578","26.441","1.34","7.36","7.259","3.394","0.59","0.25","30.2586","4.74983","14.91","0","SATNPRO1964","27.416","0.384","5"],
    [61874,"HCEP03730563","2025-10-02 22:00:00","11.5917","3.4763","26.448","1.376","7.36","7.435","3.334","1.28","0.34","30.261","4.75011","15.3","0","SATNPRO1964","27.518","0.38544","5"],
    [61875,"HCEP03730563","2025-10-02 22:15:00","11.6062","3.47828","26.487","1.408","7.37","7.399","3.788","0.99","1.52","30.2683","4.75094","15.67","0","SATNPRO1964","27.868","0.39036","5"],
    [61876,"HCEP03730563","2025-10-02 22:30:00","11.6085","3.47866","26.512","1.472","7.37","6.284","3.04","1.01","0.29","30.2701","4.75117","16.38","0","SATNPRO1964","27.974","0.39178","5"],
    [61877,"HCEP03730563","2025-10-02 22:45:00","11.6034","3.47782","26.55","1.489","7.37","7.26","3.169","0.82","0.43","30.2661","4.75068","16.57","0","SATNPRO1964","27.832","0.38984","5"],
    [61878,"HCEP03730563","2025-10-02 23:00:00","11.6034","3.47807","26.597","1.461","7.37","7.475","3.247","1.03","0.3","30.2685","4.75102","16.26","0","SATNPRO1964","27.548000000000002","0.38588","5"],
    [61879,"HCEP03730563","2025-10-02 23:15:00","11.5999","3.47771","26.645","1.439","7.37","8.129","3.522","1.08","0.48","30.2679","4.75099","16.02","0","SATNPRO1964","27.483999999999998","0.38496","5"],
    [61880,"HCEP03730563","2025-10-02 23:30:00","11.5981","3.47755","26.68","1.418","7.37","9.932","3.473","1.56","0.28","30.2678","4.75099","15.78","0","SATNPRO1964","27.652","0.38728","5"],
    [61881,"HCEP03730563","2025-10-02 23:45:00","11.5972","3.47741","26.734","1.41","7.37","9.144","3.56","1.26","0.31","30.2671","4.75093","15.69","0","SATNPRO1964","28.058","0.393","5"],
    [61882,"HCEP03730563","2025-10-03 00:00:00","11.5954","3.47718","26.783","1.404","7.37","8.844","3.344","1.19","0.49","30.2663","4.75084","15.63","0","SATNPRO1964","27.742","0.38858","5"],
    [61883,"HCEP03730563","2025-10-03 00:15:00","11.5942","3.47698","26.821","1.4","7.37","8.943","3.418","1.57","0.63","30.2654","4.75073","15.57","0","SATNPRO1964","27.69","0.38784","5"],
    [61884,"HCEP03730563","2025-10-03 00:30:00","11.5934","3.47681","26.853","1.393","7.37","9.457","3.267","2.04","0.54","30.2645","4.75061","15.5","0","SATNPRO1964","27.43","0.3842","5"],
    [61885,"HCEP03730563","2025-10-03 00:45:00","11.5927","3.47675","26.868","1.386","7.37","8.106","3.107","1.8","0.91","30.2644","4.7506","15.43","0","SATNPRO1964","27.454","0.38452","5"],
    [61886,"HCEP03730563","2025-10-03 01:00:00","11.5907","3.4764","26.871","1.381","7.37","9.028","2.978","1.75","0.48","30.2626","4.75038","15.36","0","SATNPRO1964","27.778000000000002","0.38908","5"],
    [61887,"HCEP03730563","2025-10-03 01:15:00","11.5893","3.47625","26.871","1.365","7.37","8.18","2.919","1.35","0.35","30.2624","4.75037","15.18","0","SATNPRO1964","27.498","0.38516","5"],
    [61888,"HCEP03730563","2025-10-03 01:30:00","11.5885","3.47604","26.848","1.355","7.37","7.931","2.944","1.56","0.79","30.261","4.75019","15.08","0","SATNPRO1964","27.352","0.38312","5"],
    [61889,"HCEP03730563","2025-10-03 01:45:00","11.5886","3.476","26.831","1.351","7.37","9.541","2.903","2.1","0.58","30.2605","4.75011","15.03","0","SATNPRO1964","27.78","0.38912","5"],
    [61890,"HCEP03730563","2025-10-03 02:00:00","11.5874","3.47577","26.803","1.348","7.37","7.932","2.289","2.21","0.19","30.2592","4.74994","14.99","0","SATNPRO1964","27.494","0.3851","5"],
    [61891,"HCEP03730563","2025-10-03 02:15:00","11.5863","3.47547","26.746","1.341","7.37","7.748","2.67","2.02","0.34","30.2573","4.74969","14.92","0","SATNPRO1964","27.413999999999998","0.38398","5"],
    [61892,"HCEP03730563","2025-10-03 02:30:00","11.5863","3.47561","26.697","1.327","7.36","8.115","2.567","3.29","0.44","30.2587","4.74988","14.77","0","SATNPRO1964","27.38","0.38354","5"],
    [61893,"HCEP03730563","2025-10-03 02:45:00","11.5873","3.47579","26.625","1.317","7.36","6.375","2.411","1.56","0.28","30.2596","4.75","14.65","0","SATNPRO1964","27.328","0.3828","5"],
    [61894,"HCEP03730563","2025-10-03 03:00:00","11.589","3.47646","26.528","1.314","7.36","7.555","2.417","3.7","0.39","30.2648","4.7507","14.62","0","SATNPRO1964","27.324","0.3827","5"],
    [61895,"HCEP03730563","2025-10-03 03:15:00","11.5967","3.47814","26.437","1.316","7.36","8","2.961","4.13","0.48","30.2747","4.75198","14.65","0","SATNPRO1964","27.588","0.3864","5"],
    [61896,"HCEP03730563","2025-10-03 03:30:00","11.6092","3.48073","26.335","1.361","7.37","5.403","2.572","1.09","0.85","30.2896","4.75391","15.15","0","SATNPRO1964","28.026","0.39256","5"],
    [61897,"HCEP03730563","2025-10-03 03:45:00","11.6162","3.48211","26.221","1.446","7.38","5.692","2.529","1.25","0.38","30.2972","4.75488","16.1","0","SATNPRO1964","28.310000000000002","0.39658","5"],
    [61898,"HCEP03730563","2025-10-03 04:00:00","11.6252","3.48418","26.115","1.522","7.38","7.566","2.839","5.51","0.67","30.3099","4.75654","16.95","0","SATNPRO1964","28.732","0.40246","5"],
    [61899,"HCEP03730563","2025-10-03 04:15:00","11.6318","3.48568","25.982","1.605","7.39","5.938","2.741","1.14","0.57","30.319","4.75773","17.88","0","SATNPRO1964","29.014","0.40636","5"],
    [61900,"HCEP03730563","2025-10-03 04:30:00","11.6176","3.48283","25.851","1.621","7.39","4.806","2.337","0.77","0.16","30.3031","4.75567","18.05","0","SATNPRO1964","28.096","0.39354","5"],
    [61901,"HCEP03730563","2025-10-03 04:45:00","11.6262","3.48476","25.718","1.56","7.39","6.019","2.667","3.57","0.74","30.3148","4.75719","17.37","0","SATNPRO1964","28.834","0.40386","5"],
    [61902,"HCEP03730563","2025-10-03 05:00:00","11.6251","3.4844","25.571","1.57","7.39","7.457","3.307","1.54","0.49","30.3123","4.75685","17.49","0","SATNPRO1964","28.438","0.3983","5"],
    [61903,"HCEP03730563","2025-10-03 05:15:00","11.6248","3.48441","25.414","1.553","7.39","9.048","3.671","0.85","0.29","30.3127","4.7569","17.3","0","SATNPRO1964","28.564","0.40008","5"],
    [61904,"HCEP03730563","2025-10-03 05:30:00","11.6282","3.48518","25.274","1.551","7.39","8.529","3.709","1.28","0.64","30.3174","4.75751","17.28","0","SATNPRO1964","28.684","0.40176","5"],
    [61905,"HCEP03730563","2025-10-03 05:45:00","11.6262","3.48471","25.15","1.558","7.39","7.779","3.603","1.1","0.44","30.3146","4.75713","17.35","0","SATNPRO1964","28.488","0.39904","5"],
    [61906,"HCEP03730563","2025-10-03 06:00:00","11.6283","3.48516","25.031","1.532","7.39","6.922","3.681","0.73","0.5","30.3172","4.75746","17.06","0","SATNPRO1964","28.404","0.39782","5"],
    [61907,"HCEP03730563","2025-10-03 06:15:00","11.6341","3.48635","24.904","1.55","7.39","7.29","3.447","0.98","0.33","30.324","4.75834","17.27","0","SATNPRO1964","28.986","0.406","5"],
    [61908,"HCEP03730563","2025-10-03 06:30:00","11.6339","3.48643","24.789","1.603","7.39","6.459","3.597","1.08","1.02","30.325","4.75848","17.85","0","SATNPRO1964","28.87","0.40436","5"],
    [61909,"HCEP03730563","2025-10-03 06:45:00","11.6337","3.48633","24.707","1.599","7.39","6.621","3.43","2.29","0.42","30.3242","4.75836","17.81","0","SATNPRO1964","28.862000000000002","0.40428","5"],
    [61910,"HCEP03730563","2025-10-03 07:00:00","11.6343","3.48655","24.631","1.589","7.39","6.029","2.872","1.25","0.22","30.3258","4.75858","17.71","0","SATNPRO1964","28.992","0.4061","5"],
    [61911,"HCEP03730563","2025-10-03 07:15:00","11.6345","3.48655","24.619","1.583","7.39","5.123","2.866","0.78","0.21","30.3258","4.75857","17.64","0","SATNPRO1964","28.966","0.4057","5"],
    [61912,"HCEP03730563","2025-10-03 07:30:00","11.6348","3.48665","24.644","1.591","7.39","6.218","3.031","3.09","0.48","30.3265","4.75866","17.72","0","SATNPRO1964","29.036","0.40668","5"],
    [61913,"HCEP03730563","2025-10-03 07:45:00","11.6351","3.4867","24.662","1.592","7.39","5.41","2.735","1.5","0.36","30.3267","4.75869","17.74","0","SATNPRO1964","29.1","0.4076","5"],
    [61914,"HCEP03730563","2025-10-03 08:00:00","11.6358","3.48682","24.694","1.6","7.39","6.818","3.405","4.74","1.23","30.3273","4.75877","17.82","0","SATNPRO1964","29.058","0.40696","5"],
    [61915,"HCEP03730563","2025-10-03 08:15:00","11.6359","3.487","24.75","1.603","7.39","5.106","3.129","0.99","0.66","30.3289","4.75899","17.86","0","SATNPRO1964","28.94","0.40534","5"],
    [61916,"HCEP03730563","2025-10-03 08:30:00","11.6366","3.48705","24.831","1.599","7.39","5.347","2.376","1.12","0.15","30.3288","4.75897","17.82","0","SATNPRO1964","29.214","0.4092","5"],
    [61917,"HCEP03730563","2025-10-03 08:45:00","11.6375","3.48697","24.919","1.616","7.39","4.546","2.429","0.81","0.26","30.3272","4.75873","18","0","SATNPRO1964","29.256","0.40978","5"],
    [61918,"HCEP03730563","2025-10-03 09:00:00","11.6371","3.48693","25.034","1.626","7.39","5.107","3.477","2.28","2.55","30.3272","4.75874","18.12","0","SATNPRO1964","29.214","0.40918","5"],
    [61919,"HCEP03730563","2025-10-03 09:15:00","11.6367","3.48655","25.15","1.622","7.4","4.715","2.483","1.24","0.25","30.3237","4.75827","18.07","0","SATNPRO1964","29.268","0.40998","5"],
    [61920,"HCEP03730563","2025-10-03 09:30:00","11.6364","3.48645","25.249","1.628","7.4","4.331","2.317","1.21","0.21","30.3231","4.75819","18.14","0","SATNPRO1964","29.236","0.4095","5"],
    [61921,"HCEP03730563","2025-10-03 09:45:00","11.6358","3.48637","25.395","1.62","7.39","4.767","2.27","0.95","0.19","30.3226","4.75814","18.05","0","SATNPRO1964","29.186","0.4088","5"],
    [61922,"HCEP03730563","2025-10-03 10:00:00","11.6357","3.48636","25.542","1.601","7.39","4.474","2.259","1.32","0.15","30.3226","4.75815","17.84","0","SATNPRO1964","29.008","0.40626","5"],
    [61923,"HCEP03730563","2025-10-03 10:15:00","11.6347","3.48572","25.691","1.594","7.39","4.44","1.889","3.2","0.18","30.3172","4.75741","17.76","0","SATNPRO1964","29.102","0.40766","5"],
    [61924,"HCEP03730563","2025-10-03 10:30:00","11.6349","3.48568","25.844","1.597","7.39","3.518","1.914","0.77","0.16","30.3166","4.75733","17.8","0","SATNPRO1964","29.064","0.40708","5"],
    [61925,"HCEP03730563","2025-10-03 10:45:00","11.6337","3.48519","26.002","1.593","7.39","3.695","1.878","0.73","0.12","30.3128","4.75681","17.75","0","SATNPRO1964","28.983999999999998","0.40604","5"],
    [61926,"HCEP03730563","2025-10-03 11:00:00","11.6343","3.48596","26.163","1.577","7.39","4.152","2.118","0.65","0.33","30.3196","4.75777","17.57","0","SATNPRO1964","29.182","0.40874","5"],
    [61927,"HCEP03730563","2025-10-03 11:15:00","11.631","3.4836","26.328","1.57","7.39","3.589","1.847","0.82","0.16","30.2995","4.75499","17.49","0","SATNPRO1964","29.073999999999998","0.40726","5"],
    [61928,"HCEP03730563","2025-10-03 11:30:00","11.6313","3.48466","26.511","1.576","7.39","4.283","2.258","0.99","0.18","30.3094","4.7564","17.56","0","SATNPRO1964","28.928","0.40518","5"],
    [61929,"HCEP03730563","2025-10-03 11:45:00","11.6312","3.4848","26.697","1.555","7.39","3.935","2.022","0.67","0.15","30.3107","4.7566","17.33","0","SATNPRO1964","29.014","0.40638","5"],
    [61930,"HCEP03730563","2025-10-03 12:00:00","11.6245","3.48156","26.873","1.554","7.39","2.596","1.54","0.52","0.06","30.2849","4.75305","17.3","0","SATNPRO1964","29.064","0.40706","5"],
    [61931,"HCEP03730563","2025-10-03 12:15:00","11.6265","3.48178","27.058","1.587","7.39","2.55","1.524","0.57","0.15","30.2853","4.75309","17.68","0","SATNPRO1964","29.078","0.40728","5"],
    [61932,"HCEP03730563","2025-10-03 12:30:00","11.6292","3.48329","27.209","1.584","7.39","3.222","1.949","0.66","0.14","30.2976","4.7548","17.64","0","SATNPRO1964","28.968","0.40576","5"],
    [61933,"HCEP03730563","2025-10-03 12:45:00","11.6299","3.48438","27.342","1.559","7.39","4.826","2.71","0.97","0.29","30.3075","4.7562","17.36","0","SATNPRO1964","28.954","0.40558","5"],
    [61934,"HCEP03730563","2025-10-03 13:00:00","11.6291","3.48458","27.478","1.493","7.38","5.643","2.84","1.45","0.29","30.31","4.75658","16.63","0","SATNPRO1964","28.75","0.40266","5"],
    [61935,"HCEP03730563","2025-10-03 13:15:00","11.6284","3.48462","27.596","1.44","7.38","5.556","2.903","1.03","0.16","30.311","4.75672","16.04","0","SATNPRO1964","28.082","0.39334","5"],
    [61936,"HCEP03730563","2025-10-03 13:30:00","11.6275","3.48453","27.686","1.4","7.38","6.072","3.016","1.09","0.22","30.3107","4.75671","15.6","0","SATNPRO1964","28.31","0.39654","5"],
    [61937,"HCEP03730563","2025-10-03 13:45:00","11.6268","3.48392","27.754","1.378","7.38","5.308","2.56","0.85","0.14","30.3054","4.75597","15.35","0","SATNPRO1964","28.227999999999998","0.3954","5"],
    [61938,"HCEP03730563","2025-10-03 14:00:00","11.6263","3.48368","27.796","1.379","7.37","5.59","2.806","1.19","0.44","30.3036","4.75572","15.36","0","SATNPRO1964","28.37","0.39738","5"],
    [61939,"HCEP03730563","2025-10-03 14:15:00","11.6248","3.48227","27.829","1.398","7.38","4.872","2.37","0.9","0.17","30.2911","4.75398","15.57","0","SATNPRO1964","28.596","0.40052","5"],
    [61940,"HCEP03730563","2025-10-03 14:30:00","11.6253","3.48256","27.843","1.433","7.38","4.347","2.044","0.82","0.14","30.2935","4.75431","15.96","0","SATNPRO1964","28.726","0.40238","5"],
    [61941,"HCEP03730563","2025-10-03 14:45:00","11.6242","3.48178","27.84","1.445","7.38","4.074","2.031","0.83","0.24","30.2869","4.75339","16.1","0","SATNPRO1964","28.744","0.40266","5"],
    [61942,"HCEP03730563","2025-10-03 15:00:00","11.6262","3.48325","27.829","1.455","7.38","7.043","2.488","6.67","0.46","30.2995","4.75514","16.21","0","SATNPRO1964","28.394000000000002","0.3977","5"],
    [61943,"HCEP03730563","2025-10-03 15:15:00","11.6275","3.48375","27.809","1.425","7.38","4.976","2.301","0.57","0.09","30.3031","4.75564","15.88","0","SATNPRO1964","28.552","0.39992","5"],
    [61944,"HCEP03730563","2025-10-03 15:30:00","11.6284","3.4845","27.773","1.415","7.38","6.405","2.667","1.07","0.16","30.3097","4.75655","15.76","0","SATNPRO1964","28.344","0.397","5"],
    [61945,"HCEP03730563","2025-10-03 15:45:00","11.6282","3.48491","27.717","1.391","7.37","6.439","2.857","0.95","0.3","30.3139","4.75714","15.5","0","SATNPRO1964","28.31","0.39654","5"],
    [61946,"HCEP03730563","2025-10-03 16:00:00","11.6281","3.48528","27.658","1.373","7.37","7.269","2.873","1.24","0.34","30.3175","4.75766","15.29","0","SATNPRO1964","28.304","0.39646","5"],
    [61947,"HCEP03730563","2025-10-03 16:15:00","11.6283","3.48555","27.584","1.36","7.37","8.147","3.232","0.94","0.28","30.32","4.758","15.15","0","SATNPRO1964","28.242","0.39558","5"],
    [61948,"HCEP03730563","2025-10-03 16:30:00","11.6297","3.48578","27.498","1.369","7.37","7.676","3.044","1.91","0.44","30.3211","4.75813","15.26","0","SATNPRO1964","28.572","0.40024","5"],
    [61949,"HCEP03730563","2025-10-03 16:45:00","11.6295","3.48522","27.393","1.41","7.38","6.713","2.777","0.7","0.26","30.3159","4.7574","15.71","0","SATNPRO1964","28.562","0.40002","5"],
    [61950,"HCEP03730563","2025-10-03 17:00:00","11.6292","3.48521","27.308","1.437","7.38","7.705","3.07","0.96","0.2","30.3161","4.75742","16.01","0","SATNPRO1964","28.573999999999998","0.40018","5"],
    [61951,"HCEP03730563","2025-10-03 17:15:00","11.6286","3.48504","27.21","1.433","7.38","7.769","3.238","1.62","0.27","30.315","4.75727","15.97","0","SATNPRO1964","28.428","0.39816","5"],
    [61952,"HCEP03730563","2025-10-03 17:30:00","11.627","3.48471","27.117","1.424","7.38","6.708","3.112","0.97","0.44","30.3132","4.75703","15.87","0","SATNPRO1964","28.57","0.40018","5"],
    [61953,"HCEP03730563","2025-10-03 17:45:00","11.6266","3.48487","27.007","1.417","7.38","7.187","3.475","1.3","0.47","30.3151","4.75729","15.78","0","SATNPRO1964","28.372","0.39738","5"],
    [61954,"HCEP03730563","2025-10-03 18:00:00","11.6266","3.48487","26.892","1.407","7.38","9.516","4.001","2.71","0.89","30.3151","4.75729","15.68","0","SATNPRO1964","28.3","0.39634","5"],
    [61955,"HCEP03730563","2025-10-03 18:15:00","11.6262","3.48481","26.72","1.404","7.38","7.704","3.433","1.59","0.58","30.315","4.75727","15.64","0","SATNPRO1964","28.46","0.39866","5"],
    [61956,"HCEP03730563","2025-10-03 18:30:00","11.6267","3.48513","26.597","1.402","7.38","6.424","2.918","0.83","0.24","30.3176","4.75764","15.61","0","SATNPRO1964","28.446","0.39842","5"],
    [61957,"HCEP03730563","2025-10-03 18:45:00","11.6259","3.48525","26.489","1.389","7.37","8.005","3.258","1.46","0.93","30.3195","4.7579","15.47","0","SATNPRO1964","28.19","0.39484","5"],
    [61958,"HCEP03730563","2025-10-03 19:00:00","11.6241","3.48503","26.386","1.364","7.37","7.028","2.774","1.13","0.26","30.3189","4.75784","15.2","0","SATNPRO1964","28.262","0.39584","5"],
    [61959,"HCEP03730563","2025-10-03 19:15:00","11.6221","3.48467","26.286","1.331","7.37","8.921","3.463","1.4","0.46","30.3171","4.75761","14.82","0","SATNPRO1964","27.94","0.39132","5"],
    [61960,"HCEP03730563","2025-10-03 19:30:00","11.6196","3.48425","26.201","1.298","7.37","7.283","2.816","1.17","0.16","30.3151","4.75735","14.46","0","SATNPRO1964","27.832","0.38982","5"],
    [61961,"HCEP03730563","2025-10-03 19:45:00","11.6169","3.48369","26.119","1.262","7.37","8.762","3.156","1.28","0.19","30.3119","4.75694","14.05","0","SATNPRO1964","27.662","0.3875","5"],
    [61962,"HCEP03730563","2025-10-03 20:00:00","11.6149","3.4832","26.071","1.227","7.36","8.437","2.937","1","0.19","30.3088","4.75653","13.66","0","SATNPRO1964","27.318","0.38266","5"],
    [61963,"HCEP03730563","2025-10-03 20:15:00","11.612","3.48244","26.015","1.2","7.36","7.661","2.75","1.18","0.14","30.3039","4.75587","13.36","0","SATNPRO1964","27.354","0.38314","5"],
    [61964,"HCEP03730563","2025-10-03 20:30:00","11.6086","3.48047","25.99","1.192","7.36","5.695","2.243","0.96","0.16","30.2877","4.75363","13.27","0","SATNPRO1964","27.492","0.38506","5"],
    [61965,"HCEP03730563","2025-10-03 20:45:00","11.6025","3.47825","25.98","1.182","7.36","5.98","2.308","1.32","0.16","30.2712","4.75138","13.16","0","SATNPRO1964","27.064","0.37906","5"],
    [61966,"HCEP03730563","2025-10-03 21:00:00","11.5993","3.47537","25.999","1.173","7.36","2.993","1.619","0.71","0.07","30.246","4.74786","13.05","0","SATNPRO1964","27.344","0.38298","5"],
    [61967,"HCEP03730563","2025-10-03 21:15:00","11.5926","3.47222","26.05","1.175","7.35","3.746","1.818","0.56","0.15","30.2211","4.74444","13.07","0","SATNPRO1964","26.912","0.37696","5"],
    [61968,"HCEP03730563","2025-10-03 21:30:00","11.5876","3.47522","26.111","1.156","7.35","5.81","2.34","0.59","0.2","30.2541","4.74918","12.86","0","SATNPRO1964","27.081999999999997","0.37928","5"],
    [61969,"HCEP03730563","2025-10-03 21:45:00","11.5896","3.47545","26.173","1.105","7.35","7.325","2.733","0.91","0.26","30.2546","4.74923","12.29","0","SATNPRO1964","26.886","0.37658","5"],
    [61970,"HCEP03730563","2025-10-03 22:00:00","11.5948","3.47713","26.243","1.105","7.35","8.819","3.331","0.74","0.28","30.2666","4.75085","12.29","0","SATNPRO1964","27.102","0.3796","5"],
    [61971,"HCEP03730563","2025-10-03 22:15:00","11.6011","3.47906","26.299","1.147","7.35","9.908","4.127","0.67","0.28","30.2801","4.75268","12.76","0","SATNPRO1964","27.733999999999998","0.38848","5"],
    [61972,"HCEP03730563","2025-10-03 22:30:00","11.6053","3.48039","26.388","1.195","7.36","10.488","4.67","0.59","0.37","30.2894","4.75394","13.3","0","SATNPRO1964","27.724","0.38832","5"],
    [61973,"HCEP03730563","2025-10-03 22:45:00","11.6089","3.48143","26.444","1.256","7.36","8.47","3.948","0.48","0.32","30.2965","4.7549","13.98","0","SATNPRO1964","28.094","0.39354","5"],
    [61974,"HCEP03730563","2025-10-03 23:00:00","11.6091","3.48149","26.508","1.301","7.36","10.349","4.811","2.03","1.27","30.2969","4.75495","14.49","0","SATNPRO1964","27.990000000000002","0.39206","5"],
    [61975,"HCEP03730563","2025-10-03 23:15:00","11.6091","3.48171","26.544","1.284","7.36","8.754","3.678","0.91","0.32","30.299","4.75525","14.29","0","SATNPRO1964","27.9","0.3908","5"],
    [61976,"HCEP03730563","2025-10-03 23:30:00","11.613","3.48265","26.586","1.278","7.36","8.633","3.872","0.72","0.28","30.3048","4.75602","14.23","0","SATNPRO1964","27.836","0.38986","5"],
    [61977,"HCEP03730563","2025-10-03 23:45:00","11.6202","3.48417","26.634","1.299","7.37","8.537","3.719","0.97","0.32","30.3137","4.75717","14.47","0","SATNPRO1964","28.201999999999998","0.395","5"],
    [61978,"HCEP03730563","2025-10-04 00:00:00","11.6297","3.48575","26.685","1.369","7.37","7.91","3.916","0.66","0.34","30.3212","4.7581","15.26","0","SATNPRO1964","28.444","0.3984","5"],
    [61979,"HCEP03730563","2025-10-04 00:15:00","11.6349","3.48665","26.739","1.462","7.38","7.205","3.79","1.01","0.53","30.3256","4.75865","16.28","0","SATNPRO1964","28.808","0.4035","5"],
    [61980,"HCEP03730563","2025-10-04 00:30:00","11.6342","3.48653","26.823","1.5","7.38","9.847","4.854","1.36","0.46","30.325","4.75858","16.71","0","SATNPRO1964","28.798","0.40338","5"],
    [61981,"HCEP03730563","2025-10-04 00:45:00","11.6369","3.48717","26.899","1.51","7.38","8.516","4.608","0.88","0.45","30.3288","4.75909","16.82","0","SATNPRO1964","28.848","0.40406","5"],
    [61982,"HCEP03730563","2025-10-04 01:00:00","11.6414","3.48812","26.968","1.534","7.39","7.773","4.138","0.85","0.35","30.3344","4.75982","17.09","0","SATNPRO1964","29.066","0.40714","5"],
    [61983,"HCEP03730563","2025-10-04 01:15:00","11.644","3.48881","27.027","1.557","7.39","7.219","3.615","0.65","0.58","30.3389","4.76041","17.35","0","SATNPRO1964","29.056","0.40698","5"],
    [61984,"HCEP03730563","2025-10-04 01:30:00","11.6444","3.48885","27.076","1.562","7.39","8.357","3.972","1.26","0.35","30.3389","4.76042","17.41","0","SATNPRO1964","28.954","0.40554","5"],
    [61985,"HCEP03730563","2025-10-04 01:45:00","11.6437","3.48874","27.131","1.554","7.39","9.763","4.878","0.97","0.45","30.3383","4.76035","17.32","0","SATNPRO1964","29.07","0.40718","5"],
    [61986,"HCEP03730563","2025-10-04 02:00:00","11.6458","3.48924","27.146","1.55","7.39","8.455","4.223","0.94","0.6","30.3415","4.76076","17.27","0","SATNPRO1964","29.061999999999998","0.40704","5"],
    [61987,"HCEP03730563","2025-10-04 02:15:00","11.6482","3.48964","27.138","1.556","7.39","7.075","3.164","1.48","0.33","30.3433","4.76099","17.35","0","SATNPRO1964","28.936","0.40528","5"],
    [61988,"HCEP03730563","2025-10-04 02:30:00","11.6482","3.48966","27.135","1.561","7.39","5.232","2.743","1.53","0.48","30.3436","4.76102","17.4","0","SATNPRO1964","29.014","0.40642","5"],
    [61989,"HCEP03730563","2025-10-04 02:45:00","11.6457","3.48916","27.098","1.557","7.39","5.717","3.029","1.42","0.33","30.3408","4.76067","17.35","0","SATNPRO1964","28.774","0.403","5"],
    [61990,"HCEP03730563","2025-10-04 03:00:00","11.6452","3.48905","27.05","1.55","7.39","4.697","2.637","1.39","0.42","30.3402","4.76058","17.28","0","SATNPRO1964","28.988","0.40606","5"],
    [61991,"HCEP03730563","2025-10-04 03:15:00","11.6602","3.49223","26.985","1.56","7.39","4.881","2.831","1.4","0.51","30.3586","4.76297","17.39","0","SATNPRO1964","29.012","0.40634","5"],
    [61992,"HCEP03730563","2025-10-04 03:30:00","11.663","3.49263","26.898","1.593","7.39","4.729","2.571","1.42","0.52","30.3602","4.76315","17.76","0","SATNPRO1964","29.116","0.4078","5"],
    [61993,"HCEP03730563","2025-10-04 03:45:00","11.6821","3.4964","26.794","1.636","7.4","4.487","2.54","1.17","0.33","30.381","4.76582","18.25","0","SATNPRO1964","29.332","0.41088","5"],
    [61994,"HCEP03730563","2025-10-04 04:00:00","11.6923","3.49795","26.687","1.71","7.41","4.638","2.241","4.17","0.26","30.3876","4.7666","19.08","0","SATNPRO1964","29.582","0.41434","5"],
    [61995,"HCEP03730563","2025-10-04 04:15:00","11.6971","3.49881","26.573","1.759","7.41","5.149","3.217","1.02","0.35","30.3921","4.76715","19.63","0","SATNPRO1964","29.46","0.41264","5"],
    [61996,"HCEP03730563","2025-10-04 04:30:00","11.6963","3.49837","26.449","1.779","7.41","4.973","2.178","4.93","0.49","30.3885","4.76665","19.85","0","SATNPRO1964","29.654","0.41536","5"],
    [61997,"HCEP03730563","2025-10-04 04:45:00","11.7183","3.50133","26.309","1.869","7.42","2.309","1.528","1.27","0.13","30.3991","4.76783","20.87","0","SATNPRO1964","30.426","0.42616","5"],
    [61998,"HCEP03730563","2025-10-04 05:00:00","11.7236","3.50269","26.164","1.994","7.43","3.166","2.05","1.44","0.22","30.408","4.76899","22.27","0","SATNPRO1964","30.31","0.42452","5"],
    [61999,"HCEP03730563","2025-10-04 05:15:00","11.7114","3.50107","26.015","1.991","7.43","3.541","2.5","0.8","0.3","30.4024","4.76837","22.23","0","SATNPRO1964","29.97","0.41976","5"],
    [62000,"HCEP03730563","2025-10-04 05:30:00","11.7066","3.50037","25.865","1.913","7.42","3.934","2.545","1.56","0.39","30.3995","4.76803","21.36","0","SATNPRO1964","29.632","0.41506","5"],
    [62001,"HCEP03730563","2025-10-04 05:45:00","11.7078","3.50008","25.708","1.886","7.42","2.48","1.892","0.42","0.13","30.3959","4.7675","21.06","0","SATNPRO1964","30.13","0.42206","5"],
    [62002,"HCEP03730563","2025-10-04 06:00:00","11.7018","3.4997","25.567","1.884","7.42","3.469","2.86","0.4","0.42","30.3971","4.76774","21.04","0","SATNPRO1964","29.458","0.4126","5"],
    [62003,"HCEP03730563","2025-10-04 06:15:00","11.7089","3.50029","25.406","1.859","7.42","3.385","2.665","1.38","1.99","30.3972","4.76764","20.75","0","SATNPRO1964","30.068","0.42118","5"],
    [62004,"HCEP03730563","2025-10-04 06:30:00","11.7001","3.49896","25.235","1.912","7.42","3.434","2.191","1.03","0.23","30.3915","4.76695","21.34","0","SATNPRO1964","30.398","0.42574","5"],
    [62005,"HCEP03730563","2025-10-04 06:45:00","11.6974","3.49814","25.058","1.896","7.42","3.597","2.608","0.68","0.27","30.3859","4.76619","21.16","0","SATNPRO1964","30.096","0.42154","5"],
    [62006,"HCEP03730563","2025-10-04 07:00:00","11.7058","3.50042","24.917","1.867","7.42","4.311","2.651","0.7","0.48","30.4011","4.76821","20.84","0","SATNPRO1964","29.541999999999998","0.41378","5"],
    [62007,"HCEP03730563","2025-10-04 07:15:00","11.7086","3.50099","24.798","1.833","7.42","4.179","2.58","0.72","0.3","30.4043","4.76862","20.47","0","SATNPRO1964","29.592","0.41448","5"],
    [62008,"HCEP03730563","2025-10-04 07:30:00","11.7024","3.49972","24.703","1.815","7.42","3.863","2.357","0.79","0.19","30.3972","4.76769","20.26","0","SATNPRO1964","29.126","0.40796","5"],
    [62009,"HCEP03730563","2025-10-04 07:45:00","11.7148","3.50233","24.631","1.797","7.42","4.175","2.451","1.27","0.19","30.4123","4.76965","20.07","0","SATNPRO1964","29.474","0.41284","5"],
    [62010,"HCEP03730563","2025-10-04 08:00:00","11.7216","3.50346","24.62","1.82","7.42","4.856","2.821","0.55","0.17","30.4176","4.7703","20.33","0","SATNPRO1964","29.574","0.41424","5"],
    [62011,"HCEP03730563","2025-10-04 08:15:00","11.7234","3.50397","24.606","1.836","7.42","5.587","3.019","1.11","0.29","30.4211","4.77076","20.51","0","SATNPRO1964","29.384","0.41156","5"],
    [62012,"HCEP03730563","2025-10-04 08:30:00","11.7236","3.50402","24.614","1.828","7.42","4.587","2.869","0.54","0.33","30.4213","4.7708","20.42","0","SATNPRO1964","29.314","0.41058","5"],
    [62013,"HCEP03730563","2025-10-04 08:45:00","11.7235","3.50394","24.664","1.826","7.42","4.482","2.708","0.56","0.29","30.4207","4.77072","20.4","0","SATNPRO1964","29.62","0.41486","5"],
    [62014,"HCEP03730563","2025-10-04 09:00:00","11.7261","3.50456","24.715","1.826","7.42","5.357","3.139","0.72","0.32","30.4245","4.77121","20.4","0","SATNPRO1964","29.526","0.41356","5"],
    [62015,"HCEP03730563","2025-10-04 09:15:00","11.7237","3.50401","24.797","1.816","7.42","4.945","2.619","0.69","0.17","30.4211","4.77077","20.28","0","SATNPRO1964","29.56","0.41404","5"],
    [62016,"HCEP03730563","2025-10-04 09:30:00","11.7165","3.5024","24.873","1.82","7.42","3.862","2.176","0.66","0.14","30.4115","4.76952","20.32","0","SATNPRO1964","29.596","0.4145","5"],
    [62017,"HCEP03730563","2025-10-04 09:45:00","11.7164","3.50234","24.998","1.827","7.42","4.842","2.457","1.37","0.2","30.4109","4.76945","20.4","0","SATNPRO1964","29.684","0.41582","5"],
    [62018,"HCEP03730563","2025-10-04 10:00:00","11.7195","3.50337","25.142","1.82","7.42","4.811","3.09","0.51","0.24","30.4182","4.77045","20.32","0","SATNPRO1964","29.618","0.41486","5"],
    [62019,"HCEP03730563","2025-10-04 10:15:00","11.7165","3.50241","25.264","1.808","7.42","4.228","2.497","0.51","0.34","30.4114","4.76953","20.19","0","SATNPRO1964","29.632","0.41504","5"],
    [62020,"HCEP03730563","2025-10-04 10:30:00","11.7119","3.50152","25.386","1.803","7.42","4.622","2.326","1.96","0.19","30.4065","4.76891","20.13","0","SATNPRO1964","29.512","0.41338","5"],
    [62021,"HCEP03730563","2025-10-04 10:45:00","11.719","3.50324","25.541","1.781","7.42","5.644","3.134","0.93","0.38","30.4173","4.77035","19.89","0","SATNPRO1964","29.49","0.41304","5"],
    [62022,"HCEP03730563","2025-10-04 11:00:00","11.7207","3.50386","25.707","1.757","7.41","5.499","3.211","1.41","0.41","30.4218","4.77097","19.63","0","SATNPRO1964","29.074","0.40724","5"],
    [62023,"HCEP03730563","2025-10-04 11:15:00","11.7237","3.50437","25.873","1.749","7.41","5.833","3.47","1.12","0.25","30.4242","4.77127","19.53","0","SATNPRO1964","29.38","0.41152","5"],
    [62024,"HCEP03730563","2025-10-04 11:30:00","11.7267","3.50485","26.073","1.76","7.42","4.442","2.979","0.55","0.6","30.4263","4.77153","19.66","0","SATNPRO1964","29.332","0.41088","5"],
    [62025,"HCEP03730563","2025-10-04 11:45:00","11.7195","3.50351","26.256","1.763","7.41","4.544","2.676","0.87","0.24","30.4191","4.77064","19.69","0","SATNPRO1964","29.254","0.40974","5"],
    [62026,"HCEP03730563","2025-10-04 12:00:00","11.7208","3.50411","26.442","1.732","7.41","4.521","3.036","0.75","0.2","30.4238","4.77128","19.34","0","SATNPRO1964","29.074","0.40722","5"],
    [62027,"HCEP03730563","2025-10-04 12:15:00","11.7145","3.50241","26.629","1.693","7.41","4.826","2.972","0.82","0.24","30.4125","4.76979","18.91","0","SATNPRO1964","28.93","0.40522","5"],
    [62028,"HCEP03730563","2025-10-04 12:30:00","11.7077","3.50159","26.822","1.662","7.41","3.899","2.67","0.92","0.16","30.4101","4.76956","18.56","0","SATNPRO1964","28.986","0.406","5"],
    [62029,"HCEP03730563","2025-10-04 12:45:00","11.6949","3.49857","26.998","1.644","7.41","3.551","2.36","0.48","0.16","30.3914","4.7671","18.34","0","SATNPRO1964","29.212","0.40916","5"],
    [62030,"HCEP03730563","2025-10-04 13:00:00","11.6995","3.49973","27.163","1.641","7.4","3.914","2.606","0.55","0.17","30.3988","4.76809","18.32","0","SATNPRO1964","28.983999999999998","0.40598","5"],
    [62031,"HCEP03730563","2025-10-04 13:15:00","11.6946","3.4989","27.308","1.612","7.4","4.502","2.922","1.24","0.27","30.3947","4.7676","17.99","0","SATNPRO1964","29.032","0.40664","5"],
    [62032,"HCEP03730563","2025-10-04 13:30:00","11.6839","3.49679","27.458","1.57","7.4","3.59","2.683","0.34","0.14","30.383","4.76611","17.52","0","SATNPRO1964","29.082","0.40736","5"],
    [62033,"HCEP03730563","2025-10-04 13:45:00","11.678","3.49553","27.591","1.543","7.4","3.659","2.379","0.93","0.11","30.3757","4.76517","17.21","0","SATNPRO1964","29.146","0.40826","5"],
    [62034,"HCEP03730563","2025-10-04 14:00:00","11.6745","3.49488","27.696","1.539","7.39","3.374","2.338","0.34","0.14","30.3722","4.76473","17.17","0","SATNPRO1964","29.218","0.40922","5"],
    [62035,"HCEP03730563","2025-10-04 14:15:00","11.6741","3.49476","27.777","1.523","7.39","3.484","2.572","0.56","0.38","30.3714","4.76462","16.99","0","SATNPRO1964","28.94","0.40532","5"],
    [62036,"HCEP03730563","2025-10-04 14:30:00","11.664","3.49232","27.842","1.516","7.39","3.589","2.293","0.79","0.23","30.356","4.7626","16.91","0","SATNPRO1964","29.34","0.41096","5"],
    [62037,"HCEP03730563","2025-10-04 14:45:00","11.6619","3.4922","27.875","1.525","7.39","3.225","2.267","0.53","0.25","30.3566","4.76271","17","0","SATNPRO1964","29.184","0.40874","5"],
    [62038,"HCEP03730563","2025-10-04 15:00:00","11.6588","3.49173","27.899","1.502","7.39","3.41","2.313","0.84","0.09","30.3545","4.76246","16.75","0","SATNPRO1964","28.984","0.40598","5"],
    [62039,"HCEP03730563","2025-10-04 15:15:00","11.6491","3.48985","27.907","1.452","7.38","4.051","2.064","2.36","0.13","30.3444","4.76117","16.18","0","SATNPRO1964","28.482","0.39896","5"],
    [62040,"HCEP03730563","2025-10-04 15:30:00","11.6396","3.48817","27.853","1.384","7.38","3.554","2.172","0.77","0.25","30.3359","4.76011","15.42","0","SATNPRO1964","28.352","0.39712","5"],
    [62041,"HCEP03730563","2025-10-04 15:45:00","11.6395","3.48801","27.835","1.322","7.37","3.437","2.133","0.83","0.14","30.3345","4.7599","14.73","0","SATNPRO1964","28.326","0.39678","5"],
    [62042,"HCEP03730563","2025-10-04 16:00:00","11.6506","3.4906","27.759","1.311","7.37","3.201","2.193","1.07","0.13","30.3504","4.76199","14.61","0","SATNPRO1964","28.398","0.39778","5"],
    [62043,"HCEP03730563","2025-10-04 16:15:00","11.6558","3.49153","27.691","1.318","7.37","3.037","2.113","0.62","0.13","30.3553","4.7626","14.69","0","SATNPRO1964","28.296","0.39636","5"],
    [62044,"HCEP03730563","2025-10-04 16:30:00","11.6401","3.48807","27.607","1.309","7.37","2.815","2.076","0.43","0.16","30.3346","4.7599","14.58","0","SATNPRO1964","28.566","0.40014","5"],
    [62045,"HCEP03730563","2025-10-04 16:45:00","11.6466","3.4896","27.507","1.308","7.37","3.02","2.125","0.65","0.16","30.3442","4.76115","14.58","0","SATNPRO1964","28.362","0.39724","5"],
    [62046,"HCEP03730563","2025-10-04 17:00:00","11.6558","3.49178","27.402","1.299","7.37","3.227","2.277","1.16","0.17","30.3577","4.76293","14.48","0","SATNPRO1964","28.078","0.3933","5"],
    [62047,"HCEP03730563","2025-10-04 17:15:00","11.6551","3.49121","27.279","1.29","7.37","3.036","2.323","0.56","0.21","30.3529","4.76225","14.38","0","SATNPRO1964","28.072","0.39314","5"],
    [62048,"HCEP03730563","2025-10-04 17:30:00","11.6561","3.49156","27.188","1.287","7.37","3.164","2.446","0.44","0.23","30.3555","4.7626","14.34","0","SATNPRO1964","28.11","0.3937","5"],
    [62049,"HCEP03730563","2025-10-04 17:45:00","11.6535","3.49101","27.072","1.278","7.37","2.709","2.255","0.65","0.16","30.3523","4.76217","14.24","0","SATNPRO1964","28.166","0.3945","5"],
    [62050,"HCEP03730563","2025-10-04 18:00:00","11.6519","3.49069","26.961","1.277","7.37","2.845","2.096","0.75","0.17","30.3506","4.76196","14.24","0","SATNPRO1964","28.16","0.3944","5"],
    [62051,"HCEP03730563","2025-10-04 18:15:00","11.6507","3.49051","26.834","1.271","7.37","2.785","2.137","0.69","0.1","30.3499","4.76187","14.17","0","SATNPRO1964","28.23","0.3954","5"],
    [62052,"HCEP03730563","2025-10-04 18:30:00","11.6534","3.49101","26.685","1.253","7.36","3.009","2.247","0.81","0.16","30.3526","4.7622","13.97","0","SATNPRO1964","27.756","0.3888","5"],
    [62053,"HCEP03730563","2025-10-04 18:45:00","11.6491","3.49017","26.532","1.239","7.36","3.193","2.087","2.12","0.12","30.348","4.76161","13.81","0","SATNPRO1964","28.136","0.39406","5"],
    [62054,"HCEP03730563","2025-10-04 19:00:00","11.6473","3.48968","26.375","1.247","7.36","2.43","2.153","0.37","0.17","30.3448","4.76117","13.9","0","SATNPRO1964","28.286","0.3962","5"],
    [62055,"HCEP03730563","2025-10-04 19:15:00","11.6411","3.48791","26.215","1.295","7.37","2.388","1.739","0.58","0.1","30.3328","4.75956","14.43","0","SATNPRO1964","28.868","0.4043","5"],
    [62056,"HCEP03730563","2025-10-04 19:30:00","11.6388","3.4873","26.058","1.364","7.37","2.309","1.667","0.55","0.15","30.3289","4.75902","15.2","0","SATNPRO1964","28.856","0.4042","5"],
    [62057,"HCEP03730563","2025-10-04 19:45:00","11.6336","3.4865","25.908","1.362","7.37","2.35","1.645","0.4","0.1","30.3255","4.75861","15.17","0","SATNPRO1964","28.672","0.40162","5"],
    [62058,"HCEP03730563","2025-10-04 20:00:00","11.6325","3.48623","25.773","1.334","7.37","2.311","1.765","0.43","0.09","30.3238","4.75838","14.86","0","SATNPRO1964","28.63","0.401","5"],
    [62059,"HCEP03730563","2025-10-04 20:15:00","11.6345","3.48674","25.675","1.317","7.37","2.267","1.706","0.39","0.1","30.3272","4.75883","14.67","0","SATNPRO1964","28.196","0.3949","5"],
    [62060,"HCEP03730563","2025-10-04 20:30:00","11.6321","3.48611","25.59","1.307","7.37","3.257","1.736","2.57","0.31","30.3231","4.75827","14.56","0","SATNPRO1964","28.712","0.40216","5"],
    [62061,"HCEP03730563","2025-10-04 20:45:00","11.6296","3.48539","25.526","1.306","7.37","1.94","1.522","0.33","0.07","30.3182","4.75762","14.55","0","SATNPRO1964","28.454","0.39856","5"],
    [62062,"HCEP03730563","2025-10-04 21:00:00","11.6238","3.48385","25.523","1.26","7.36","4.118","3.025","1.86","1.33","30.3081","4.75627","14.03","0","SATNPRO1964","27.89","0.39064","5"],
    [62063,"HCEP03730563","2025-10-04 21:15:00","11.6216","3.48287","25.542","1.196","7.36","3.519","2.044","0.47","0.09","30.3004","4.75521","13.32","0","SATNPRO1964","27.956","0.39154","5"],
    [62064,"HCEP03730563","2025-10-04 21:30:00","11.6211","3.48251","25.565","1.208","7.36","2.315","1.76","0.51","0.09","30.2974","4.75479","13.46","0","SATNPRO1964","28.074","0.39324","5"],
    [62065,"HCEP03730563","2025-10-04 21:45:00","11.6252","3.48265","25.592","1.181","7.35","3.412","2.076","1.1","0.13","30.2952","4.75443","13.16","0","SATNPRO1964","27.57","0.38618","5"],
    [62066,"HCEP03730563","2025-10-04 22:00:00","11.6252","3.48259","25.654","1.116","7.35","3.081","2.225","0.62","0.18","30.2947","4.75436","12.43","0","SATNPRO1964","27.79","0.38928","5"],
    [62067,"HCEP03730563","2025-10-04 22:15:00","11.6289","3.48438","25.718","1.11","7.35","2.79","2.236","0.83","0.22","30.3089","4.75632","12.36","0","SATNPRO1964","27.478","0.38492","5"],
    [62068,"HCEP03730563","2025-10-04 22:30:00","11.6238","3.4831","25.757","1.127","7.35","3.651","2.297","0.88","0.13","30.3007","4.75524","12.55","0","SATNPRO1964","27.740000000000002","0.38852","5"],
    [62069,"HCEP03730563","2025-10-04 22:45:00","11.6299","3.48165","25.871","1.124","7.35","2.994","2.04","0.6","0.09","30.2818","4.75248","12.52","0","SATNPRO1964","27.28","0.38208","5"],
    [62070,"HCEP03730563","2025-10-04 23:00:00","11.6279","3.48356","25.951","1.095","7.35","2.539","2.092","0.38","0.11","30.3018","4.75535","12.19","0","SATNPRO1964","27.166","0.38048","5"],
    [62071,"HCEP03730563","2025-10-04 23:15:00","11.6286","3.4842","26.064","1.102","7.35","3.023","2.281","0.42","0.13","30.3073","4.75612","12.28","0","SATNPRO1964","27.328","0.38278","5"],
    [62072,"HCEP03730563","2025-10-04 23:30:00","11.6339","3.48409","26.114","1.096","7.35","2.752","2.159","0.36","0.2","30.302","4.75529","12.21","0","SATNPRO1964","26.968","0.37774","5"],
    [62073,"HCEP03730563","2025-10-04 23:45:00","11.6371","3.4847","26.209","1.07","7.34","3.05","2.266","0.52","0.17","30.3051","4.7557","11.92","0","SATNPRO1964","27.062","0.379","5"],
    [62074,"HCEP03730563","2025-10-05 00:00:00","11.642","3.48482","26.316","1.054","7.34","3.184","2.134","0.39","0.07","30.3023","4.75523","11.74","0","SATNPRO1964","26.91","0.3769","5"],
    [62075,"HCEP03730563","2025-10-05 00:15:00","11.6597","3.49279","26.416","1.047","7.34","5.237","3.788","1.52","0.52","30.3647","4.7638","11.68","0","SATNPRO1964","26.284","0.36812","5"],
    [62076,"HCEP03730563","2025-10-05 00:30:00","11.6581","3.49219","26.535","1.015","7.34","5.731","3.894","0.73","0.53","30.3601","4.76319","11.32","0","SATNPRO1964","26.352","0.3691","5"],
    [62077,"HCEP03730563","2025-10-05 00:45:00","11.652","3.48921","26.632","0.999","7.34","6.126","3.643","0.64","0.21","30.3364","4.75992","11.13","0","SATNPRO1964","26.732","0.37444","5"],
    [62078,"HCEP03730563","2025-10-05 01:00:00","11.6493","3.48689","26.761","1.024","7.34","5.918","3.208","0.8","0.26","30.3161","4.75711","11.41","0","SATNPRO1964","27.266000000000002","0.38194","5"],
    [62079,"HCEP03730563","2025-10-05 01:15:00","11.6517","3.48632","26.865","1.071","7.35","6.394","3.105","0.78","0.21","30.3086","4.75602","11.93","0","SATNPRO1964","27.106","0.37964","5"],
    [62080,"HCEP03730563","2025-10-05 01:30:00","11.6521","3.48612","26.985","1.108","7.35","6.455","3.433","0.84","0.27","30.3063","4.75569","12.35","0","SATNPRO1964","27.326","0.38272","5"],
    [62081,"HCEP03730563","2025-10-05 01:45:00","11.6521","3.48678","27.101","1.123","7.35","7.255","3.723","0.7","0.29","30.3126","4.75659","12.52","0","SATNPRO1964","27.41","0.38396","5"],
    [62082,"HCEP03730563","2025-10-05 02:00:00","11.6537","3.48734","27.212","1.126","7.35","9.739","4.28","1.75","0.43","30.3167","4.75715","12.55","0","SATNPRO1964","27.624000000000002","0.3869","5"],
    [62083,"HCEP03730563","2025-10-05 02:15:00","11.6641","3.48889","27.286","1.153","7.35","16.374","7.568","1.71","0.7","30.3231","4.75791","12.85","0","SATNPRO1964","27.792","0.38922","5"],
    [62084,"HCEP03730563","2025-10-05 02:30:00","11.669","3.49064","27.346","1.199","7.36","16.904","7.495","1.36","0.64","30.3359","4.75965","13.36","0","SATNPRO1964","27.951999999999998","0.39154","5"],
    [62085,"HCEP03730563","2025-10-05 02:45:00","11.6749","3.4927","27.384","1.246","7.36","16.434","7.514","1.66","0.83","30.351","4.7617","13.89","0","SATNPRO1964","27.98","0.39188","5"],
    [62086,"HCEP03730563","2025-10-05 03:00:00","11.675","3.49289","27.372","1.278","7.36","12.126","4.649","1.81","0.58","30.3527","4.76194","14.25","0","SATNPRO1964","27.97","0.3918","5"],
    [62087,"HCEP03730563","2025-10-05 03:15:00","11.6729","3.49237","27.36","1.276","7.36","15.085","6.331","1.68","0.57","30.3494","4.7615","14.22","0","SATNPRO1964","27.746","0.38866","5"],
    [62088,"HCEP03730563","2025-10-05 03:30:00","11.6728","3.4907","27.32","1.272","7.37","7.356","2.612","1.75","0.33","30.3334","4.75925","14.19","0","SATNPRO1964","28.008","0.39226","5"],
    [62089,"HCEP03730563","2025-10-05 03:45:00","11.678","3.49222","27.26","1.288","7.37","8.784","3.674","1.49","0.31","30.3438","4.76064","14.37","0","SATNPRO1964","28.06","0.39302","5"],
    [62090,"HCEP03730563","2025-10-05 04:00:00","11.6829","3.49358","27.192","1.307","7.37","8.817","3.587","0.93","0.3","30.353","4.76186","14.58","0","SATNPRO1964","28.106","0.39368","5"],
    [62091,"HCEP03730563","2025-10-05 04:15:00","11.6829","3.49408","27.113","1.343","7.37","5.996","2.9","0.73","0.33","30.3579","4.76255","14.98","0","SATNPRO1964","28.546","0.39988","5"],
    [62092,"HCEP03730563","2025-10-05 04:30:00","11.6851","3.49457","27.007","1.369","7.37","6.916","3.18","0.93","0.3","30.3609","4.76294","15.28","0","SATNPRO1964","28.38","0.39748","5"],
    [62093,"HCEP03730563","2025-10-05 04:45:00","11.6887","3.4957","26.895","1.377","7.38","8.363","3.577","1.32","0.33","30.3688","4.764","15.36","0","SATNPRO1964","28.272","0.39596","5"],
    [62094,"HCEP03730563","2025-10-05 05:00:00","11.6943","3.49737","26.778","1.375","7.38","7.806","3.293","2.83","0.69","30.3804","4.76554","15.35","0","SATNPRO1964","28.366","0.39732","5"],
    [62095,"HCEP03730563","2025-10-05 05:15:00","11.6989","3.49863","26.626","1.387","7.38","7.82","3.345","1.05","0.38","30.3888","4.76667","15.48","0","SATNPRO1964","28.71","0.40214","5"],
    [62096,"HCEP03730563","2025-10-05 05:30:00","11.6979","3.49883","26.504","1.383","7.38","8.804","4.433","1.06","0.55","30.3917","4.76708","15.44","0","SATNPRO1964","28.214","0.3952","5"],
    [62097,"HCEP03730563","2025-10-05 05:45:00","11.7009","3.49943","26.343","1.371","7.38","7.941","3.245","1.77","0.28","30.3951","4.76751","15.3","0","SATNPRO1964","28.18","0.39468","5"],
    [62098,"HCEP03730563","2025-10-05 06:00:00","11.7062","3.50014","26.18","1.386","7.38","5.577","2.607","0.53","0.21","30.3976","4.76778","15.47","0","SATNPRO1964","28.442","0.39836","5"],
    [62099,"HCEP03730563","2025-10-05 06:15:00","11.7084","3.50102","26.027","1.425","7.38","4.318","2.317","0.31","0.14","30.4043","4.76869","15.91","0","SATNPRO1964","28.5","0.39924","5"],
    [62100,"HCEP03730563","2025-10-05 06:30:00","11.7036","3.50056","25.867","1.421","7.38","5.566","2.651","0.52","0.17","30.4039","4.76869","15.87","0","SATNPRO1964","28.168","0.39454","5"],
    [62101,"HCEP03730563","2025-10-05 06:45:00","11.7015","3.5003","25.7","1.373","7.38","5.822","2.86","0.64","0.29","30.4032","4.76861","15.32","0","SATNPRO1964","28.116","0.3938","5"],
    [62102,"HCEP03730563","2025-10-05 07:00:00","11.6997","3.50005","25.532","1.342","7.38","6.02","3.125","0.91","0.2","30.4023","4.76849","14.98","0","SATNPRO1964","27.954","0.39154","5"],
    [62103,"HCEP03730563","2025-10-05 07:15:00","11.7008","3.50045","25.359","1.33","7.38","5.77","2.943","1.73","0.25","30.4053","4.7689","14.85","0","SATNPRO1964","27.902","0.39084","5"],
    [62104,"HCEP03730563","2025-10-05 07:30:00","11.7017","3.50062","25.194","1.33","7.38","5.244","3.134","0.77","0.33","30.4063","4.76902","14.84","0","SATNPRO1964","27.913999999999998","0.391","5"],
    [62105,"HCEP03730563","2025-10-05 07:45:00","11.7013","3.50044","25.051","1.328","7.38","4.84","3.15","2.68","0.64","30.4049","4.76882","14.83","0","SATNPRO1964","27.95","0.39148","5"],
    [62106,"HCEP03730563","2025-10-05 08:00:00","11.6989","3.49989","24.924","1.329","7.38","5.119","3.062","0.78","0.32","30.4017","4.76839","14.84","0","SATNPRO1964","28.128","0.39394","5"],
    [62107,"HCEP03730563","2025-10-05 08:15:00","11.6983","3.49973","24.794","1.315","7.37","5.517","2.787","1.03","0.18","30.4007","4.76825","14.67","0","SATNPRO1964","27.716","0.38822","5"],
    [62108,"HCEP03730563","2025-10-05 08:30:00","11.6997","3.50021","24.717","1.302","7.37","6.028","3.735","1.07","0.53","30.4042","4.76872","14.54","0","SATNPRO1964","27.922","0.39108","5"],
    [62109,"HCEP03730563","2025-10-05 08:45:00","11.7007","3.50033","24.683","1.298","7.37","4.452","2.563","0.7","0.15","30.4046","4.76876","14.49","0","SATNPRO1964","27.976","0.39186","5"],
    [62110,"HCEP03730563","2025-10-05 09:00:00","11.6989","3.4998","24.67","1.305","7.37","4.706","2.597","0.78","0.16","30.4008","4.76825","14.57","0","SATNPRO1964","28.1","0.39358","5"],
    [62111,"HCEP03730563","2025-10-05 09:15:00","11.7014","3.5005","24.703","1.315","7.37","3.992","2.297","0.58","0.16","30.4056","4.76889","14.67","0","SATNPRO1964","27.97","0.3918","5"],
    [62112,"HCEP03730563","2025-10-05 09:30:00","11.713","3.50218","24.768","1.355","7.38","3.13","2","0.58","0.14","30.4122","4.76966","15.13","0","SATNPRO1964","28.534000000000002","0.39972","5"],
    [62113,"HCEP03730563","2025-10-05 09:45:00","11.7089","3.50212","24.821","1.399","7.38","3.887","2.486","1.63","0.14","30.415","4.77013","15.62","0","SATNPRO1964","28.036","0.39268","5"],
    [62114,"HCEP03730563","2025-10-05 10:00:00","11.7139","3.5033","24.905","1.361","7.38","4.672","3.079","0.7","0.67","30.4222","4.77108","15.2","0","SATNPRO1964","27.958","0.39162","5"],
    [62115,"HCEP03730563","2025-10-05 10:15:00","11.7163","3.50393","25.001","1.338","7.38","4.656","3.129","0.59","0.19","30.4262","4.77162","14.94","0","SATNPRO1964","27.924","0.3911","5"],
    [62116,"HCEP03730563","2025-10-05 10:30:00","11.7218","3.50491","25.118","1.345","7.38","4.575","2.989","0.57","0.22","30.4312","4.77225","15.02","0","SATNPRO1964","28.114","0.39378","5"],
    [62117,"HCEP03730563","2025-10-05 10:45:00","11.724","3.5053","25.263","1.366","7.38","5.181","3.23","0.73","0.27","30.4331","4.77249","15.26","0","SATNPRO1964","28.044","0.39282","5"],
    [62118,"HCEP03730563","2025-10-05 11:00:00","11.7257","3.50562","25.419","1.372","7.38","5.729","3.236","1.26","0.26","30.4347","4.77271","15.32","0","SATNPRO1964","28.036","0.39272","5"],
    [62119,"HCEP03730563","2025-10-05 11:15:00","11.7314","3.50675","25.551","1.381","7.38","5.756","3.593","0.62","0.34","30.4409","4.7735","15.42","0","SATNPRO1964","28.29","0.39626","5"],
    [62120,"HCEP03730563","2025-10-05 11:30:00","11.7419","3.50859","25.742","1.433","7.39","4.728","2.832","0.54","0.17","30.45","4.77465","16.02","0","SATNPRO1964","28.784","0.40322","5"],
    [62121,"HCEP03730563","2025-10-05 11:45:00","11.7431","3.50812","25.912","1.513","7.39","4.556","2.623","0.74","0.13","30.4444","4.77385","16.91","0","SATNPRO1964","29.08","0.40732","5"],
    [62122,"HCEP03730563","2025-10-05 12:00:00","11.7466","3.50812","26.106","1.588","7.4","3.531","2.448","0.68","0.27","30.4415","4.77339","17.75","0","SATNPRO1964","29.384","0.41156","5"],
    [62123,"HCEP03730563","2025-10-05 12:15:00","11.7405","3.50536","26.286","1.687","7.41","2.45","1.489","0.71","0.1","30.4198","4.77043","18.85","0","SATNPRO1964","29.906","0.41888","5"],
    [62124,"HCEP03730563","2025-10-05 12:30:00","11.7455","3.50542","26.47","1.755","7.41","3.043","1.614","1.12","0.34","30.4162","4.76986","19.61","0","SATNPRO1964","30.106","0.42166","5"],
    [62125,"HCEP03730563","2025-10-05 12:45:00","11.7446","3.50786","26.638","1.725","7.41","5.313","3.129","2.09","0.48","30.4404","4.7733","19.28","0","SATNPRO1964","28.924","0.40514","5"],
    [62126,"HCEP03730563","2025-10-05 13:00:00","11.7372","3.50584","26.834","1.581","7.4","4.533","3.042","1.08","0.33","30.4269","4.77151","17.67","0","SATNPRO1964","28.884","0.40456","5"],
    [62127,"HCEP03730563","2025-10-05 13:15:00","11.728","3.50388","27.018","1.52","7.4","4.277","2.913","0.4","0.18","30.4154","4.77003","16.97","0","SATNPRO1964","28.488","0.399","5"],
    [62128,"HCEP03730563","2025-10-05 13:30:00","11.7198","3.49753","27.194","1.553","7.4","2.664","1.402","1.24","0.1","30.3609","4.76245","17.33","0","SATNPRO1964","30.136","0.4221","5"],
    [62129,"HCEP03730563","2025-10-05 13:45:00","11.7331","3.50381","27.389","1.648","7.4","4.303","2.708","0.92","0.42","30.4105","4.76929","18.41","0","SATNPRO1964","29.248","0.40968","5"],
    [62130,"HCEP03730563","2025-10-05 14:00:00","11.7325","3.50458","27.552","1.568","7.4","3.896","2.892","0.45","0.17","30.4184","4.77042","17.51","0","SATNPRO1964","28.752","0.4027","5"],
    [62131,"HCEP03730563","2025-10-05 14:15:00","11.7327","3.50473","27.648","1.502","7.4","4.176","2.836","0.41","0.16","30.4196","4.77059","16.78","0","SATNPRO1964","28.704","0.40204","5"],
    [62132,"HCEP03730563","2025-10-05 14:30:00","11.7397","3.50647","27.744","1.488","7.39","3.74","2.701","0.27","0.16","30.4306","4.77205","16.63","0","SATNPRO1964","28.748","0.40266","5"],
    [62133,"HCEP03730563","2025-10-05 14:45:00","11.7411","3.50688","27.825","1.507","7.4","3.993","2.757","0.56","0.3","30.4333","4.77242","16.84","0","SATNPRO1964","28.958000000000002","0.4056","5"],
    [62134,"HCEP03730563","2025-10-05 15:00:00","11.7393","3.50659","27.889","1.51","7.4","3.547","2.499","0.38","0.16","30.432","4.77226","16.88","0","SATNPRO1964","28.826","0.40376","5"],
    [62135,"HCEP03730563","2025-10-05 15:15:00","11.7188","3.50176","27.954","1.465","7.39","3.963","2.963","0.56","0.22","30.4023","4.76836","16.36","0","SATNPRO1964","28.22","0.39528","5"],
    [62136,"HCEP03730563","2025-10-05 15:30:00","11.7014","3.49909","27.952","1.371","7.38","3.933","2.805","0.4","0.15","30.3907","4.76697","15.3","0","SATNPRO1964","27.68","0.38772","5"],
    [62137,"HCEP03730563","2025-10-05 15:45:00","11.7045","3.49874","27.901","1.272","7.38","3.823","2.608","0.68","0.17","30.3849","4.7661","14.2","0","SATNPRO1964","28.076","0.39322","5"],
    [62138,"HCEP03730563","2025-10-05 16:00:00","11.6997","3.49834","27.832","1.283","7.37","3.724","2.889","0.41","0.28","30.3849","4.76616","14.32","0","SATNPRO1964","27.552","0.3859","5"],
    [62139,"HCEP03730563","2025-10-05 16:15:00","11.7006","3.49903","27.804","1.239","7.37","3.881","2.762","0.44","0.25","30.3909","4.76699","13.82","0","SATNPRO1964","27.654","0.38734","5"],
    [62140,"HCEP03730563","2025-10-05 16:30:00","11.7164","3.50102","27.739","1.274","7.38","3.116","2.329","0.41","0.36","30.3971","4.76765","14.22","0","SATNPRO1964","28.796","0.40336","5"],
    [62141,"HCEP03730563","2025-10-05 16:45:00","11.7385","3.50442","27.656","1.464","7.39","2.44","1.85","0.28","0.12","30.4118","4.76941","16.36","0","SATNPRO1964","29.71","0.4162","5"],
    [62142,"HCEP03730563","2025-10-05 17:00:00","11.7403","3.50515","27.565","1.627","7.4","2.694","2.002","0.57","0.12","30.4174","4.77017","18.18","0","SATNPRO1964","29.626","0.41498","5"],
    [62143,"HCEP03730563","2025-10-05 17:15:00","11.7391","3.5054","27.441","1.624","7.4","2.429","1.712","0.28","0.08","30.4209","4.77067","18.14","0","SATNPRO1964","29.552","0.4139","5"],
    [62144,"HCEP03730563","2025-10-05 17:30:00","11.74","3.50494","27.322","1.642","7.4","2.444","1.48","0.73","0.14","30.4158","4.76993","18.34","0","SATNPRO1964","29.958000000000002","0.41956","5"],
    [62145,"HCEP03730563","2025-10-05 17:45:00","11.7413","3.50544","27.191","1.719","7.41","2.001","1.365","1.15","0.21","30.4195","4.77043","19.2","0","SATNPRO1964","30.29","0.42422","5"],
    [62146,"HCEP03730563","2025-10-05 18:00:00","11.7396","3.50507","27.067","1.741","7.41","2.074","1.471","0.43","0.08","30.4175","4.77016","19.45","0","SATNPRO1964","29.914","0.41904","5"],
    [62147,"HCEP03730563","2025-10-05 18:15:00","11.7351","3.50465","26.913","1.695","7.41","2.607","1.841","1.09","0.23","30.4171","4.77016","18.94","0","SATNPRO1964","29.366","0.41132","5"],
    [62148,"HCEP03730563","2025-10-05 18:30:00","11.7344","3.50502","26.767","1.606","7.4","2.514","2.224","0.28","0.33","30.4213","4.77076","17.94","0","SATNPRO1964","28.974","0.40582","5"],
    [62149,"HCEP03730563","2025-10-05 18:45:00","11.7328","3.50476","26.598","1.552","7.4","2.675","2.075","0.42","0.26","30.4201","4.77061","17.34","0","SATNPRO1964","29.074","0.40726","5"],
    [62150,"HCEP03730563","2025-10-05 19:00:00","11.7319","3.50448","26.414","1.526","7.4","2.771","2.054","0.64","0.22","30.4182","4.77034","17.05","0","SATNPRO1964","28.94","0.40534","5"],
    [62151,"HCEP03730563","2025-10-05 19:15:00","11.7341","3.50574","26.226","1.506","7.39","2.547","2.384","0.35","0.09","30.4286","4.77177","16.83","0","SATNPRO1964","28.974","0.40582","5"],
    [62152,"HCEP03730563","2025-10-05 19:30:00","11.7323","3.50566","26.032","1.456","7.39","2.767","2.545","0.63","0.21","30.4295","4.77191","16.26","0","SATNPRO1964","28.462","0.39862","5"],
    [62153,"HCEP03730563","2025-10-05 19:45:00","11.7288","3.50468","25.879","1.414","7.39","2.464","2.168","0.36","0.11","30.423","4.77103","15.8","0","SATNPRO1964","28.552","0.39996","5"],
    [62154,"HCEP03730563","2025-10-05 20:00:00","11.7361","3.50544","25.691","1.456","7.39","2.194","1.795","0.58","0.16","30.4244","4.77111","16.26","0","SATNPRO1964","29.32","0.41068","5"],
    [62155,"HCEP03730563","2025-10-05 20:15:00","11.7214","3.50337","25.527","1.472","7.39","2.232","2.398","0.25","0.16","30.4165","4.7702","16.44","0","SATNPRO1964","27.732","0.38844","5"],
    [62156,"HCEP03730563","2025-10-05 20:30:00","11.7237","3.50443","25.34","1.331","7.38","3.22","2.981","1.04","0.69","30.4249","4.77135","14.86","0","SATNPRO1964","27.828","0.38976","5"],
    [62157,"HCEP03730563","2025-10-05 20:45:00","11.7218","3.50428","25.223","1.295","7.38","2.732","3.119","0.36","0.21","30.425","4.77138","14.46","0","SATNPRO1964","27.712","0.38812","5"],
    [62158,"HCEP03730563","2025-10-05 21:00:00","11.7277","3.50504","25.111","1.274","7.38","2.647","3.087","0.27","0.36","30.4277","4.77166","14.24","0","SATNPRO1964","28.532","0.39966","5"],
    [62159,"HCEP03730563","2025-10-05 21:15:00","11.7229","3.50522","25.041","1.311","7.37","3.431","3.864","1.11","0.78","30.4333","4.77252","14.64","0","SATNPRO1964","27.428","0.38418","5"],
    [62160,"HCEP03730563","2025-10-05 21:30:00","11.7196","3.50512","25.014","1.203","7.37","3.393","4.082","0.41","0.6","30.4351","4.77282","13.43","0","SATNPRO1964","27.176","0.38062","5"],
    [62161,"HCEP03730563","2025-10-05 21:45:00","11.7187","3.50492","25.034","1.132","7.36","3.024","3.536","0.58","0.21","30.4339","4.77266","12.65","0","SATNPRO1964","27.492","0.38506","5"],
    [62162,"HCEP03730563","2025-10-05 22:00:00","11.7182","3.5045","25.068","1.122","7.36","2.865","3.287","0.61","0.2","30.4302","4.77215","12.54","0","SATNPRO1964","28.532","0.3996","5"],
    [62163,"HCEP03730563","2025-10-05 22:15:00","11.7091","3.50175","25.1","1.183","7.37","2.43","2.616","0.39","0.11","30.4112","4.7696","13.21","0","SATNPRO1964","28.934","0.40526","5"],
    [62164,"HCEP03730563","2025-10-05 22:30:00","11.6992","3.49945","25.166","1.238","7.37","2.132","2.351","0.81","0.35","30.397","4.76774","13.82","0","SATNPRO1964","28.44","0.39834","5"],
    [62165,"HCEP03730563","2025-10-05 22:45:00","11.71","3.50253","25.249","1.209","7.36","2.313","2.896","0.42","0.11","30.4178","4.77053","13.49","0","SATNPRO1964","27.744","0.3886","5"],
    [62166,"HCEP03730563","2025-10-05 23:00:00","11.71","3.5028","25.343","1.183","7.36","2.605","4.808","0.59","0.12","30.4204","4.7709","13.21","0","SATNPRO1964","27.682","0.38772","5"],
    [62167,"HCEP03730563","2025-10-05 23:15:00","11.7111","3.50299","25.461","1.142","7.36","2.514","4.648","0.63","0.35","30.4214","4.77103","12.75","0","SATNPRO1964","27.508","0.38528","5"],
    [62168,"HCEP03730563","2025-10-05 23:30:00","11.7143","3.50368","25.575","1.124","7.36","2.358","3.24","0.49","0.54","30.4253","4.77155","12.55","0","SATNPRO1964","27.532","0.38564","5"],
    [62169,"HCEP03730563","2025-10-05 23:45:00","11.7052","3.50119","25.691","1.132","7.36","2.285","3.392","0.71","0.19","30.4087","4.76933","12.64","0","SATNPRO1964","27.588","0.38642","5"],
    [62170,"HCEP03730563","2025-10-06 00:00:00","11.6755","3.49349","25.83","1.137","7.36","1.862","3.149","0.38","0.33","30.3587","4.7627","12.68","0","SATNPRO1964","27.652","0.38728","5"],
    [62171,"HCEP03730563","2025-10-06 00:15:00","11.6745","3.49328","25.961","1.113","7.36","2.222","3.391","1.01","0.29","30.3575","4.76255","12.42","0","SATNPRO1964","27.866","0.3903","5"],
    [62172,"HCEP03730563","2025-10-06 00:30:00","11.6742","3.49357","26.104","1.096","7.35","1.93","3.194","0.4","0.56","30.3605","4.76298","12.23","0","SATNPRO1964","27.372","0.3834","5"],
    [62173,"HCEP03730563","2025-10-06 00:45:00","11.7109","3.50243","26.263","1.111","7.36","3.688","3.477","4.9","0.42","30.4158","4.77028","12.4","0","SATNPRO1964","27.472","0.3848","5"],
    [62174,"HCEP03730563","2025-10-06 01:00:00","11.687","3.49703","26.433","1.135","7.35","1.865","3.013","0.38","0.32","30.3833","4.76604","12.66","0","SATNPRO1964","27.288","0.38222","5"],
    [62175,"HCEP03730563","2025-10-06 01:15:00","11.7115","3.50226","26.58","1.114","7.36","2.545","3.827","0.49","0.29","30.4135","4.76998","12.44","0","SATNPRO1964","27.608","0.38672","5"],
    [62176,"HCEP03730563","2025-10-06 01:30:00","11.7136","3.50223","26.742","1.174","7.36","2.733","3.61","1.68","0.18","30.4115","4.76967","13.11","0","SATNPRO1964","27.038","0.37872","5"],
    [62177,"HCEP03730563","2025-10-06 01:45:00","11.72","3.50497","26.9","1.175","7.36","2.85","4.196","0.59","0.4","30.4325","4.77256","13.13","0","SATNPRO1964","27.026","0.37854","5"],
    [62178,"HCEP03730563","2025-10-06 02:00:00","11.7219","3.50497","27.062","1.14","7.36","2.962","5.027","0.71","0.52","30.4309","4.77231","12.73","0","SATNPRO1964","27.092","0.37946","5"],
    [62179,"HCEP03730563","2025-10-06 02:15:00","11.7058","3.4993","27.203","1.17","7.36","3.118","3.632","1.32","0.99","30.3894","4.76667","13.06","0","SATNPRO1964","27.36","0.38326","5"],
    [62180,"HCEP03730563","2025-10-06 02:30:00","11.7068","3.5007","27.293","1.198","7.36","2.673","3.512","0.6","0.25","30.4021","4.76847","13.38","0","SATNPRO1964","27.666","0.38752","5"],
    [62181,"HCEP03730563","2025-10-06 02:45:00","11.6902","3.49737","27.389","1.176","7.36","2.288","3.698","0.97","0.86","30.3835","4.76608","13.13","0","SATNPRO1964","26.96","0.37764","5"],
    [62182,"HCEP03730563","2025-10-06 03:00:00","11.7065","3.50051","27.511","1.139","7.36","1.889","2.936","0.37","0.17","30.4004","4.76825","12.72","0","SATNPRO1964","27.912","0.39096","5"],
    [62183,"HCEP03730563","2025-10-06 03:15:00","11.6972","3.49836","27.554","1.17","7.36","2.258","2.9","0.84","0.11","30.3873","4.76653","13.06","0","SATNPRO1964","27.752","0.38872","5"],
    [62184,"HCEP03730563","2025-10-06 03:30:00","11.7194","3.50418","27.585","1.171","7.36","2.433","3.128","0.39","0.26","30.4251","4.77156","13.08","0","SATNPRO1964","27.78","0.3891","5"],
    [62185,"HCEP03730563","2025-10-06 03:45:00","11.7245","3.50527","27.581","1.209","7.36","2.097","3.054","0.44","0.15","30.4315","4.77239","13.5","0","SATNPRO1964","27.934","0.39128","5"],
    [62186,"HCEP03730563","2025-10-06 04:00:00","11.7259","3.50571","27.56","1.235","7.36","2.437","3.168","0.48","0.2","30.4346","4.77281","13.8","0","SATNPRO1964","28.076","0.39324","5"],
    [62187,"HCEP03730563","2025-10-06 04:15:00","11.7278","3.5047","27.52","1.284","7.37","1.98","2.445","0.32","0.12","30.4234","4.77119","14.34","0","SATNPRO1964","29.014","0.4064","5"],
    [62188,"HCEP03730563","2025-10-06 04:30:00","11.7266","3.50494","27.454","1.336","7.37","2.155","2.74","0.41","0.24","30.4267","4.77167","14.92","0","SATNPRO1964","28.16","0.39442","5"],
    [62189,"HCEP03730563","2025-10-06 04:45:00","11.7158","3.50087","27.37","1.33","7.37","2.179","2.366","0.81","0.1","30.3963","4.76752","14.86","0","SATNPRO1964","29.12","0.40786","5"],
    [62190,"HCEP03730563","2025-10-06 05:00:00","11.7207","3.50248","27.279","1.345","7.37","2.772","2.921","0.86","0.2","30.4079","4.76908","15.02","0","SATNPRO1964","28.91","0.40492","5"],
    [62191,"HCEP03730563","2025-10-06 05:15:00","11.7214","3.50277","27.167","1.355","7.38","2.514","2.454","0.32","0.06","30.4101","4.76938","15.13","0","SATNPRO1964","28.152","0.39426","5"],
    [62192,"HCEP03730563","2025-10-06 05:30:00","11.7145","3.49903","27.045","1.384","7.38","1.703","2.094","0.32","0.1","30.3798","4.7652","15.45","0","SATNPRO1964","28.68","0.4017","5"],
    [62193,"HCEP03730563","2025-10-06 05:45:00","11.7185","3.50045","26.904","1.453","7.38","2.714","3.266","1.09","0.99","30.3902","4.7666","16.22","0","SATNPRO1964","29.354","0.41118","5"],
    [62194,"HCEP03730563","2025-10-06 06:00:00","11.7178","3.49935","26.754","1.476","7.39","2.025","1.976","0.64","0.08","30.3802","4.76519","16.48","0","SATNPRO1964","29.3","0.4104","5"],
    [62195,"HCEP03730563","2025-10-06 06:15:00","11.6804","3.49175","26.611","1.447","7.38","1.477","1.852","0.21","0.09","30.3376","4.75969","16.14","0","SATNPRO1964","29.102","0.40762","5"],
    [62196,"HCEP03730563","2025-10-06 06:30:00","11.7093","3.49858","26.474","1.392","7.38","1.948","2.549","0.8","0.11","30.3798","4.76524","15.54","0","SATNPRO1964","29.366","0.4113","5"],
    [62197,"HCEP03730563","2025-10-06 06:45:00","11.7153","3.50079","26.335","1.398","7.38","1.923","2.671","0.42","0.24","30.3963","4.76748","15.61","0","SATNPRO1964","29.258","0.40976","5"],
    [62198,"HCEP03730563","2025-10-06 07:00:00","11.7171","3.50129","26.182","1.362","7.38","1.613","2.245","0.16","0.25","30.3997","4.76792","15.2","0","SATNPRO1964","29.216","0.40922","5"],
    [62199,"HCEP03730563","2025-10-06 07:15:00","11.7195","3.50098","26.024","1.388","7.38","1.677","2.224","0.25","0.1","30.3949","4.7672","15.5","0","SATNPRO1964","28.714","0.4022","5"],
    [62200,"HCEP03730563","2025-10-06 07:30:00","11.7217","3.50133","25.854","1.459","7.39","1.795","2.093","0.33","0.2","30.3965","4.76738","16.29","0","SATNPRO1964","29.566","0.4141","5"],
    [62201,"HCEP03730563","2025-10-06 07:45:00","11.718","3.50181","25.676","1.441","7.38","1.634","2.841","0.3","0.12","30.4042","4.76852","16.09","0","SATNPRO1964","27.688","0.38782","5"],
    [62202,"HCEP03730563","2025-10-06 08:00:00","11.7161","3.50192","25.501","1.353","7.38","1.571","2.609","0.22","0.15","30.4069","4.76891","15.11","0","SATNPRO1964","28.918","0.40506","5"],
    [62203,"HCEP03730563","2025-10-06 08:15:00","11.7097","3.49981","25.33","1.361","7.38","1.7","3.155","0.41","0.1","30.3919","4.76687","15.19","0","SATNPRO1964","28.422","0.3981","5"],
    [62204,"HCEP03730563","2025-10-06 08:30:00","11.7116","3.50046","25.176","1.433","7.38","1.511","2.36","0.39","0.17","30.3966","4.76751","16","0","SATNPRO1964","29.336","0.41088","5"],
    [62205,"HCEP03730563","2025-10-06 08:45:00","11.6977","3.49832","25.035","1.413","7.38","2.216","2.246","2.66","0.25","30.3874","4.7664","15.77","0","SATNPRO1964","29.212","0.40916","5"],
    [62206,"HCEP03730563","2025-10-06 09:00:00","11.6989","3.49767","24.932","1.393","7.38","1.667","2.387","0.4","0.9","30.3802","4.76536","15.54","0","SATNPRO1964","29.266","0.4099","5"],
    [62207,"HCEP03730563","2025-10-06 09:15:00","11.7003","3.49762","24.863","1.386","7.38","1.469","2.764","0.25","0.13","30.3787","4.76511","15.46","0","SATNPRO1964","28.846","0.40404","5"],
    [62208,"HCEP03730563","2025-10-06 09:30:00","11.7063","3.49881","24.869","1.368","7.38","1.458","2.349","0.29","0.08","30.3852","4.76595","15.27","0","SATNPRO1964","28.756","0.40282","5"],
    [62209,"HCEP03730563","2025-10-06 09:45:00","11.7058","3.49824","24.88","1.364","7.38","1.541","2.159","0.61","0.09","30.3802","4.76525","15.22","0","SATNPRO1964","28.896","0.40476","5"],
    [62210,"HCEP03730563","2025-10-06 10:00:00","11.7005","3.49717","24.933","1.37","7.38","1.38","2.588","0.31","0.61","30.3741","4.76446","15.29","0","SATNPRO1964","29.009999999999998","0.40634","5"],
    [62211,"HCEP03730563","2025-10-06 10:15:00","11.6781","3.49256","25.004","1.381","7.38","1.328","1.989","0.27","0.29","30.348","4.7611","15.4","0","SATNPRO1964","29.702","0.41604","5"],
    [62212,"HCEP03730563","2025-10-06 10:30:00","11.6689","3.49074","25.092","1.379","7.38","1.485","2.164","0.48","1.04","30.338","4.75982","15.37","0","SATNPRO1964","29.426000000000002","0.41216","5"],
    [62213,"HCEP03730563","2025-10-06 10:45:00","11.6591","3.48929","25.183","1.356","7.37","1.183","1.357","0.22","0.09","30.3318","4.7591","15.11","0","SATNPRO1964","29.146","0.40822","5"],
    [62214,"HCEP03730563","2025-10-06 11:00:00","11.6768","3.49095","25.274","1.329","7.37","2.087","1.624","1.11","0.27","30.3334","4.75907","14.82","0","SATNPRO1964","29.192","0.40888","5"],
    [62215,"HCEP03730563","2025-10-06 11:15:00","11.6972","3.49661","25.411","1.301","7.37","2.342","2.909","0.32","0.15","30.3712","4.76414","14.51","0","SATNPRO1964","27.442","0.38434","5"],
    [62216,"HCEP03730563","2025-10-06 11:30:00","11.693","3.49656","25.557","1.146","7.36","2.242","3.055","0.35","0.17","30.3741","4.76461","12.79","0","SATNPRO1964","27.006","0.37828","5"],
    [62217,"HCEP03730563","2025-10-06 11:45:00","11.6918","3.4964","25.721","1.034","7.35","2.29","3.257","0.5","0.22","30.3735","4.76456","11.54","0","SATNPRO1964","26.616","0.37278","5"],
    [62218,"HCEP03730563","2025-10-06 12:00:00","11.6888","3.49561","25.908","1.003","7.35","2.349","3.712","0.34","1.42","30.3683","4.76386","11.19","0","SATNPRO1964","26.78","0.37514","5"],
    [62219,"HCEP03730563","2025-10-06 12:15:00","11.6908","3.49572","26.07","0.98","7.34","2.555","3.515","0.32","0.26","30.3676","4.76375","10.94","0","SATNPRO1964","26.346","0.369","5"],
    [62220,"HCEP03730563","2025-10-06 12:30:00","11.7017","3.49647","26.249","0.971","7.34","2.492","3.279","0.32","0.26","30.3658","4.76335","10.83","0","SATNPRO1964","26.814","0.3756","5"],
    [62221,"HCEP03730563","2025-10-06 12:45:00","11.7099","3.49754","26.412","1.006","7.34","3.024","4.017","0.57","0.42","30.3694","4.76376","11.23","0","SATNPRO1964","26.624","0.3729","5"],
    [62222,"HCEP03730563","2025-10-06 13:00:00","11.7262","3.49923","26.604","1.085","7.35","2.555","3.246","0.16","0.27","30.3723","4.76394","12.11","0","SATNPRO1964","27.594","0.3865","5"],
    [62223,"HCEP03730563","2025-10-06 13:15:00","11.731","3.49995","26.799","1.225","7.36","2.947","3.548","0.58","0.38","30.3753","4.76431","13.68","0","SATNPRO1964","27.844","0.39","5"],
    [62224,"HCEP03730563","2025-10-06 13:30:00","11.7357","3.50142","26.984","1.279","7.36","3.014","3.611","0.43","0.63","30.3854","4.76568","14.29","0","SATNPRO1964","28.002","0.3922","5"],
    [62225,"HCEP03730563","2025-10-06 13:45:00","11.7356","3.50202","27.155","1.372","7.37","3.265","3.549","0.6","0.4","30.3913","4.76652","15.33","0","SATNPRO1964","28.366","0.39728","5"],
    [62226,"HCEP03730563","2025-10-06 14:00:00","11.7402","3.50333","27.329","1.453","7.38","3.21","3.326","0.48","0.42","30.4001","4.76771","16.23","0","SATNPRO1964","28.804","0.40344","5"],
    [62227,"HCEP03730563","2025-10-06 14:15:00","11.7434","3.50404","27.492","1.582","7.39","3.274","2.808","0.7","0.3","30.4042","4.76826","17.67","0","SATNPRO1964","29.308","0.4105","5"],
    [62228,"HCEP03730563","2025-10-06 14:30:00","11.7447","3.5045","27.644","1.682","7.4","3.185","3.023","0.79","0.29","30.4075","4.76871","18.79","0","SATNPRO1964","29.354","0.41116","5"],
    [62229,"HCEP03730563","2025-10-06 14:45:00","11.748","3.5055","27.777","1.727","7.4","2.852","2.808","0.69","0.47","30.4145","4.76966","19.3","0","SATNPRO1964","29.91","0.41898","5"],
    [62230,"HCEP03730563","2025-10-06 15:00:00","11.7482","3.5057","27.897","1.778","7.41","2.834","2.65","0.55","0.21","30.4161","4.76989","19.87","0","SATNPRO1964","30","0.4202","5"],
    [62231,"HCEP03730563","2025-10-06 15:15:00","11.7497","3.50619","27.918","1.773","7.41","3.17","3.957","0.57","0.86","30.4197","4.77037","19.81","0","SATNPRO1964","29.862000000000002","0.41824","5"],
    [62232,"HCEP03730563","2025-10-06 15:30:00","11.7501","3.50648","28.015","1.771","7.41","2.79","3.153","0.68","0.66","30.422","4.77071","19.79","0","SATNPRO1964","30.07","0.42122","5"],
    [62233,"HCEP03730563","2025-10-06 15:45:00","11.7524","3.50692","28.035","1.772","7.41","2.229","2.442","0.34","0.18","30.4243","4.771","19.8","0","SATNPRO1964","29.838","0.4179","5"],
    [62234,"HCEP03730563","2025-10-06 16:00:00","11.7522","3.50687","28.024","1.782","7.41","2.304","2.124","0.3","0.08","30.4241","4.77097","19.91","0","SATNPRO1964","29.946","0.41942","5"],
    [62235,"HCEP03730563","2025-10-06 16:15:00","11.7515","3.50667","27.966","1.789","7.41","2.381","2.719","0.32","0.37","30.4227","4.77078","20","0","SATNPRO1964","29.964","0.4197","5"],
    [62236,"HCEP03730563","2025-10-06 16:30:00","11.7488","3.50593","27.933","1.789","7.41","2.016","2.25","0.57","0.27","30.4178","4.77013","20","0","SATNPRO1964","30.126","0.42202","5"],
    [62237,"HCEP03730563","2025-10-06 16:45:00","11.7462","3.50507","27.869","1.778","7.41","2.057","1.99","0.39","0.11","30.4117","4.76929","19.86","0","SATNPRO1964","29.77","0.41698","5"],
    [62238,"HCEP03730563","2025-10-06 17:00:00","11.7471","3.50532","27.775","1.752","7.41","1.692","1.845","0.27","0.08","30.4134","4.76952","19.57","0","SATNPRO1964","29.722","0.41628","5"],
    [62239,"HCEP03730563","2025-10-06 17:15:00","11.749","3.50569","27.657","1.747","7.41","2.219","2.081","0.43","0.15","30.4155","4.76978","19.52","0","SATNPRO1964","29.718","0.41628","5"],
    [62240,"HCEP03730563","2025-10-06 17:30:00","11.7443","3.50451","27.533","1.74","7.41","2.215","1.898","1.07","0.1","30.408","4.76877","19.44","0","SATNPRO1964","29.916","0.41902","5"],
    [62241,"HCEP03730563","2025-10-06 17:45:00","11.7333","3.50226","27.391","1.688","7.41","1.525","1.785","0.17","0.08","30.3954","4.76715","18.85","0","SATNPRO1964","29.634","0.41504","5"],
    [62242,"HCEP03730563","2025-10-06 18:00:00","11.7506","3.50593","27.237","1.679","7.41","2.454","2.587","0.84","0.2","30.4166","4.76989","18.77","0","SATNPRO1964","30.04","0.42078","5"],
    [62243,"HCEP03730563","2025-10-06 18:15:00","11.7664","3.50927","27.081","1.745","7.41","1.859","2.514","0.34","0.17","30.4359","4.77238","19.51","0","SATNPRO1964","30.06","0.42106","5"],
    [62244,"HCEP03730563","2025-10-06 18:30:00","11.7632","3.50847","26.911","1.796","7.42","1.713","2.14","0.36","0.3","30.4309","4.77172","20.07","0","SATNPRO1964","30.349999999999998","0.42506","5"],
    [62245,"HCEP03730563","2025-10-06 18:45:00","11.7519","3.50599","26.751","1.817","7.42","1.861","1.862","0.62","0.08","30.4163","4.76981","20.31","0","SATNPRO1964","30.137999999999998","0.42212","5"],
    [62246,"HCEP03730563","2025-10-06 19:00:00","11.7487","3.50549","26.56","1.788","7.41","1.317","2.05","0.19","0.38","30.4142","4.76954","19.98","0","SATNPRO1964","30.038","0.42072","5"],
    [62247,"HCEP03730563","2025-10-06 19:15:00","11.7476","3.50518","26.362","1.776","7.41","1.632","1.786","0.52","0.06","30.4123","4.76928","19.85","0","SATNPRO1964","30.008","0.42032","5"],
    [62248,"HCEP03730563","2025-10-06 19:30:00","11.7432","3.50453","26.162","1.756","7.41","1.434","1.845","0.36","0.07","30.4096","4.76895","19.62","0","SATNPRO1964","30.080000000000002","0.4213","5"],
    [62249,"HCEP03730563","2025-10-06 19:45:00","11.7428","3.50442","25.947","1.732","7.41","1.514","1.842","0.42","0.09","30.409","4.76885","19.35","0","SATNPRO1964","29.83","0.41784","5"],
    [62250,"HCEP03730563","2025-10-06 20:00:00","11.746","3.50521","25.737","1.723","7.41","1.678","1.774","0.67","0.05","30.4141","4.76952","19.25","0","SATNPRO1964","29.802","0.41746","5"],
    [62251,"HCEP03730563","2025-10-06 20:15:00","11.75","3.50623","25.526","1.753","7.41","1.523","1.952","0.16","0.18","30.4206","4.77037","19.59","0","SATNPRO1964","29.992","0.42006","5"],
    [62252,"HCEP03730563","2025-10-06 20:30:00","11.7518","3.50643","25.297","1.784","7.41","1.753","1.958","1.45","0.22","30.4212","4.77042","19.94","0","SATNPRO1964","29.95","0.41948","5"],
    [62253,"HCEP03730563","2025-10-06 20:45:00","11.7584","3.5078","25.087","1.802","7.42","1.534","1.995","0.26","0.12","30.4291","4.77143","20.15","0","SATNPRO1964","30.204","0.42306","5"],
    [62254,"HCEP03730563","2025-10-06 21:00:00","11.7583","3.50803","24.888","1.807","7.42","2.309","2.049","1.64","0.14","30.4315","4.77175","20.2","0","SATNPRO1964","29.908","0.4189","5"],
    [62255,"HCEP03730563","2025-10-06 21:15:00","11.7457","3.50615","24.728","1.745","7.41","1.619","2.729","0.28","0.08","30.4237","4.77083","19.5","0","SATNPRO1964","29.428","0.41218","5"],
    [62256,"HCEP03730563","2025-10-06 21:30:00","11.7428","3.5041","24.603","1.654","7.41","1.795","2.17","1.23","0.08","30.4064","4.76842","18.48","0","SATNPRO1964","29.322000000000003","0.41074","5"],
    [62257,"HCEP03730563","2025-10-06 21:45:00","11.7427","3.50438","24.521","1.642","7.4","1.516","2.21","0.23","0.04","30.409300000000002","4.76881","18.35","0","SATNPRO1964","29.79","0.41724","5"],
    [62258,"HCEP03730563","2025-10-06 22:00:00","11.7444","3.5052","24.514","1.62","7.4","1.912","2.329","0.3","0.12","30.4157","4.7697","18.1","0","SATNPRO1964","29.442","0.4124","5"],
    [62259,"HCEP03730563","2025-10-06 22:15:00","11.7591","3.50939","24.526","1.624","7.4","1.671","2.281","0.42","0.14","30.444","4.7735","18.16","0","SATNPRO1964","29.81","0.41754","5"],
    [62260,"HCEP03730563","2025-10-06 22:30:00","11.7623","3.50886","24.563","1.676","7.41","1.619","2.583","0.38","0.15","30.4364","4.77237","18.74","0","SATNPRO1964","29.768","0.41696","5"],
    [62261,"HCEP03730563","2025-10-06 22:45:00","11.7604","3.50832","24.615","1.757","7.41","2.009","2.802","1.03","0.84","30.4327","4.77188","19.64","0","SATNPRO1964","29.85","0.4181","5"],
    [62262,"HCEP03730563","2025-10-06 23:00:00","11.7568","3.50751","24.683","1.784","7.41","1.642","2.028","0.55","0.11","30.4278","4.77124","19.94","0","SATNPRO1964","29.988","0.42004","5"],
    [62263,"HCEP03730563","2025-10-06 23:15:00","11.7577","3.50779","24.778","1.782","7.41","1.377","2.276","0.27","0.97","30.4297","4.7715","19.92","0","SATNPRO1964","29.86","0.41818","5"],
    [62264,"HCEP03730563","2025-10-06 23:30:00","11.7577","3.50863","24.877","1.739","7.41","1.263","2.501","0.32","0.28","30.4378","4.77265","19.44","0","SATNPRO1964","28.324","0.39676","5"],
    [62265,"HCEP03730563","2025-10-06 23:45:00","11.753","3.50888","24.999","1.592","7.4","1.865","3.002","0.66","0.22","30.4439","4.77359","17.8","0","SATNPRO1964","27.516000000000002","0.3854","5"],
    [62266,"HCEP03730563","2025-10-07 00:00:00","11.7537","3.50856","25.144","1.447","7.39","2.278","3.179","0.51","0.35","30.4402","4.77306","16.18","0","SATNPRO1964","29.242","0.4096","5"],
    [62267,"HCEP03730563","2025-10-07 00:15:00","11.7559","3.50947","25.307","1.449","7.39","1.947","2.682","0.5","0.19","30.4472","4.77403","16.19","0","SATNPRO1964","28.348","0.39704","5"],
    [62268,"HCEP03730563","2025-10-07 00:30:00","11.7617","3.51043","25.496","1.417","7.39","1.539","2.592","0.22","0.29","30.4516","4.77458","15.84","0","SATNPRO1964","29.28","0.41012","5"],
    [62269,"HCEP03730563","2025-10-07 00:45:00","11.7645","3.51077","25.648","1.514","7.39","1.559","2.502","0.32","0.4","30.4525","4.77467","16.93","0","SATNPRO1964","28.984","0.40598","5"],
    [62270,"HCEP03730563","2025-10-07 01:00:00","11.7668","3.50997","25.819","1.59","7.4","1.766","2.212","0.68","0.14","30.4429","4.77329","17.77","0","SATNPRO1964","29.631999999999998","0.41504","5"],
    [62271,"HCEP03730563","2025-10-07 01:15:00","11.7588","3.50905","25.983","1.635","7.4","1.56","2.305","0.28","0.19","30.4405","4.77307","18.27","0","SATNPRO1964","29.616","0.41484","5"],
    [62272,"HCEP03730563","2025-10-07 01:30:00","11.7578","3.50874","26.158","1.571","7.39","1.614","2.566","0.3","0.26","30.4382","4.77279","17.57","0","SATNPRO1964","29.452","0.41252","5"],
    [62273,"HCEP03730563","2025-10-07 01:45:00","11.7596","3.50915","26.344","1.565","7.39","1.81","2.493","0.52","0.27","30.4406","4.7731","17.5","0","SATNPRO1964","29.358","0.41118","5"],
    [62274,"HCEP03730563","2025-10-07 02:00:00","11.7582","3.50916","26.509","1.567","7.39","1.702","2.784","0.44","0.5","30.4418","4.7733","17.51","0","SATNPRO1964","29.054","0.40694","5"],
    [62275,"HCEP03730563","2025-10-07 02:15:00","11.7598","3.50964","26.692","1.537","7.39","1.671","2.761","0.33","0.39","30.445","4.77374","17.19","0","SATNPRO1964","29.126","0.40794","5"],
    [62276,"HCEP03730563","2025-10-07 02:30:00","11.7585","3.50929","26.88","1.53","7.39","2.247","2.723","1.2","0.52","30.4427","4.77344","17.1","0","SATNPRO1964","28.93","0.40522","5"],
    [62277,"HCEP03730563","2025-10-07 02:45:00","11.7547","3.50828","27.038","1.524","7.39","2.035","2.808","0.4","0.79","30.436","4.77256","17.04","0","SATNPRO1964","29.04","0.40672","5"],
    [62278,"HCEP03730563","2025-10-07 03:00:00","11.7537","3.50678","27.194","1.545","7.39","1.573","2.2","0.51","0.13","30.4224","4.77066","17.27","0","SATNPRO1964","29.206","0.40914","5"],
    [62279,"HCEP03730563","2025-10-07 03:15:00","11.7533","3.50627","27.328","1.619","7.4","1.679","2.462","0.37","0.15","30.4177","4.77001","18.09","0","SATNPRO1964","29.258","0.40982","5"],
    [62280,"HCEP03730563","2025-10-07 03:30:00","11.7565","3.50737","27.441","1.683","7.4","1.407","2.313","0.46","0.21","30.4256","4.77109","18.81","0","SATNPRO1964","29.47","0.41276","5"],
    [62281,"HCEP03730563","2025-10-07 03:45:00","11.7586","3.50869","27.532","1.647","7.4","2.181","5.665","1.33","12.34","30.4365","4.7726","18.41","0","SATNPRO1964","29.6","0.4146","5"],
    [62282,"HCEP03730563","2025-10-07 04:00:00","11.7613","3.50957","27.601","1.597","7.4","1.494","2.141","0.91","0.11","30.4428","4.77346","17.85","0","SATNPRO1964","29.386","0.41164","5"],
    [62283,"HCEP03730563","2025-10-07 04:15:00","11.762","3.50982","27.637","1.577","7.4","1.493","2.449","0.35","0.43","30.4446","4.77371","17.63","0","SATNPRO1964","29.74","0.41652","5"],
    [62284,"HCEP03730563","2025-10-07 04:30:00","11.7648","3.51024","27.642","1.562","7.4","1.397","2.261","0.46","0.1","30.4463","4.77391","17.47","0","SATNPRO1964","29.768","0.41696","5"],
    [62285,"HCEP03730563","2025-10-07 04:45:00","11.7679","3.51073","27.626","1.577","7.4","1.619","2.922","0.37","0.32","30.4485","4.77418","17.63","0","SATNPRO1964","29.69","0.41586","5"],
    [62286,"HCEP03730563","2025-10-07 05:00:00","11.7636","3.50994","27.59","1.601","7.4","1.285","2.357","0.24","0.12","30.4445","4.77366","17.9","0","SATNPRO1964","29.158","0.40836","5"],
    [62287,"HCEP03730563","2025-10-07 05:15:00","11.7665","3.51034","27.531","1.58","7.4","1.511","2.266","0.6","0.32","30.4459","4.77382","17.66","0","SATNPRO1964","29.532","0.41364","5"],
    [62288,"HCEP03730563","2025-10-07 05:30:00","11.7624","3.50977","27.459","1.574","7.39","1.791","2.711","1.32","0.32","30.4439","4.77359","17.6","0","SATNPRO1964","29.208","0.40908","5"],
    [62289,"HCEP03730563","2025-10-07 05:45:00","11.7615","3.50948","27.373","1.541","7.39","1.338","2.229","0.33","0.13","30.4418","4.7733","17.23","0","SATNPRO1964","29.448","0.41246","5"],
    [62290,"HCEP03730563","2025-10-07 06:00:00","11.7602","3.50907","27.278","1.534","7.39","1.3","2.19","0.38","0.14","30.439","4.77293","17.15","0","SATNPRO1964","29.068","0.40716","5"],
    [62291,"HCEP03730563","2025-10-07 06:15:00","11.7553","3.50778","27.17","1.536","7.39","1.355","2.901","0.37","1.73","30.4307","4.77181","17.17","0","SATNPRO1964","29.102","0.40762","5"],
    [62292,"HCEP03730563","2025-10-07 06:30:00","11.754","3.5069","27.071","1.562","7.39","1.215","2.098","0.24","0.21","30.4232","4.77077","17.46","0","SATNPRO1964","29.068","0.40716","5"],
    [62293,"HCEP03730563","2025-10-07 06:45:00","11.7517","3.50619","26.944","1.596","7.4","1.144","1.996","0.3","0.15","30.4183","4.7701","17.84","0","SATNPRO1964","29.662","0.41544","5"],
    [62294,"HCEP03730563","2025-10-07 07:00:00","11.7514","3.50618","26.806","1.603","7.4","1.167","1.974","0.18","0.12","30.4185","4.77012","17.91","0","SATNPRO1964","29.568","0.41416","5"],
    [62295,"HCEP03730563","2025-10-07 07:15:00","11.7509","3.50681","26.698","1.578","7.39","1.548","2.588","0.39","0.23","30.425","4.77105","17.63","0","SATNPRO1964","29.182","0.40872","5"],
    [62296,"HCEP03730563","2025-10-07 07:30:00","11.7528","3.50702","26.568","1.524","7.39","1.579","2.828","0.39","0.48","30.4256","4.77109","17.03","0","SATNPRO1964","29.032","0.40666","5"],
    [62297,"HCEP03730563","2025-10-07 07:45:00","11.7533","3.50732","26.43","1.515","7.39","1.703","2.683","0.42","0.23","30.4282","4.77144","16.93","0","SATNPRO1964","28.958","0.40562","5"],
    [62298,"HCEP03730563","2025-10-07 08:00:00","11.7525","3.50708","26.276","1.498","7.39","1.705","2.86","0.47","0.51","30.4266","4.77122","16.74","0","SATNPRO1964","28.638","0.40108","5"],
    [62299,"HCEP03730563","2025-10-07 08:15:00","11.7514","3.50646","26.125","1.498","7.39","1.658","2.615","0.51","0.29","30.4215","4.7705","16.74","0","SATNPRO1964","28.976","0.40588","5"],
    [62300,"HCEP03730563","2025-10-07 08:30:00","11.7524","3.50695","25.975","1.503","7.39","1.479","2.487","0.24","0.22","30.4255","4.77105","16.8","0","SATNPRO1964","29.326","0.41076","5"],
    [62301,"HCEP03730563","2025-10-07 08:45:00","11.7554","3.50799","25.807","1.481","7.39","1.57","2.732","0.36","0.17","30.4331","4.77208","16.56","0","SATNPRO1964","28.855999999999998","0.40418","5"],
    [62302,"HCEP03730563","2025-10-07 09:00:00","11.7546","3.50742","25.646","1.478","7.39","1.6","2.355","0.48","0.17","30.4283","4.7714","16.52","0","SATNPRO1964","29.172","0.40862","5"],
    [62303,"HCEP03730563","2025-10-07 09:15:00","11.7584","3.50858","25.496","1.499","7.39","1.463","2.636","0.34","0.53","30.4364","4.77248","16.76","0","SATNPRO1964","28.98","0.40588","5"],
    [62304,"HCEP03730563","2025-10-07 09:30:00","11.7599","3.50919","25.354","1.485","7.39","1.401","2.538","0.3","0.16","30.4411","4.77312","16.6","0","SATNPRO1964","29.066","0.40714","5"],
    [62305,"HCEP03730563","2025-10-07 09:45:00","11.7575","3.50805","25.251","1.483","7.39","1.263","2.251","0.25","0.13","30.4321","4.77188","16.58","0","SATNPRO1964","29.316","0.41058","5"],
    [62306,"HCEP03730563","2025-10-07 10:00:00","11.7616","3.50883","25.162","1.518","7.39","1.483","2.268","0.27","0.11","30.4364","4.77241","16.97","0","SATNPRO1964","29.288","0.41018","5"],
    [62307,"HCEP03730563","2025-10-07 10:15:00","11.7612","3.50864","25.138","1.533","7.39","1.285","2.156","0.23","0.13","30.4349","4.77221","17.14","0","SATNPRO1964","29.47","0.4128","5"],
    [62308,"HCEP03730563","2025-10-07 10:30:00","11.761","3.50833","25.16","1.563","7.39","1.098","1.991","0.2","0.08","30.432","4.77181","17.48","0","SATNPRO1964","29.614","0.41484","5"],
    [62309,"HCEP03730563","2025-10-07 10:45:00","11.7596","3.51001","25.215","1.515","7.39","1.749","3.29","0.35","0.33","30.4493","4.77428","16.94","0","SATNPRO1964","28.080000000000002","0.3933","5"],
    [62310,"HCEP03730563","2025-10-07 11:00:00","11.7614","3.50957","25.277","1.416","7.38","2.072","2.305","1.2","0.12","30.4435","4.77343","15.83","0","SATNPRO1964","29.3","0.41036","5"],
    [62311,"HCEP03730563","2025-10-07 11:15:00","11.7623","3.50888","25.375","1.483","7.39","1.476","1.917","0.41","0.07","30.4362","4.77239","16.58","0","SATNPRO1964","29.7","0.416","5"],
    [62312,"HCEP03730563","2025-10-07 11:30:00","11.7633","3.50928","25.489","1.55","7.39","1.155","2.167","0.29","0.61","30.4392","4.77281","17.33","0","SATNPRO1964","29.722","0.4163","5"],
    [62313,"HCEP03730563","2025-10-07 11:45:00","11.7627","3.51029","25.601","1.523","7.39","1.437","2.608","0.3","0.16","30.4494","4.77426","17.03","0","SATNPRO1964","29.548000000000002","0.41384","5"],
    [62314,"HCEP03730563","2025-10-07 12:00:00","11.7593","3.51031","25.741","1.424","7.38","1.271","2.657","0.31","0.1","30.4522","4.77471","15.92","0","SATNPRO1964","27.918","0.39106","5"],
    [62315,"HCEP03730563","2025-10-07 12:15:00","11.7614","3.50927","25.88","1.383","7.38","1.498","2.742","0.44","0.15","30.4404","4.77302","15.46","0","SATNPRO1964","29.632","0.41502","5"],
    [62316,"HCEP03730563","2025-10-07 12:30:00","11.7637","3.50884","26.035","1.52","7.39","1.242","2.281","0.34","0.14","30.4344","4.77215","16.99","0","SATNPRO1964","30.398","0.42576","5"],
    [62317,"HCEP03730563","2025-10-07 12:45:00","11.7651","3.51004","26.186","1.592","7.39","1.268","2.393","0.32","0.13","30.4447","4.77359","17.8","0","SATNPRO1964","29.582","0.41434","5"],
    [62318,"HCEP03730563","2025-10-07 13:00:00","11.7587","3.51022","26.352","1.489","7.38","1.521","3.272","0.25","0.17","30.4517","4.77469","16.65","0","SATNPRO1964","27.966","0.3917","5"],
    [62319,"HCEP03730563","2025-10-07 13:15:00","11.7592","3.51032","26.53","1.352","7.37","1.645","3.446","0.2","0.29","30.4521","4.77474","15.11","0","SATNPRO1964","27.836","0.38988","5"],
    [62320,"HCEP03730563","2025-10-07 13:30:00","11.7607","3.51054","26.706","1.297","7.37","1.861","3.569","0.27","0.29","30.453","4.77486","14.5","0","SATNPRO1964","27.992","0.3921","5"],
    [62321,"HCEP03730563","2025-10-07 13:45:00","11.7638","3.51065","26.886","1.316","7.37","1.736","3.131","0.57","0.16","30.4514","4.77459","14.72","0","SATNPRO1964","28.138","0.3941","5"],
    [62322,"HCEP03730563","2025-10-07 14:00:00","11.7636","3.51072","27.056","1.372","7.38","1.71","3.199","0.29","0.25","30.4522","4.77473","15.34","0","SATNPRO1964","28.606","0.4007","5"],
    [62323,"HCEP03730563","2025-10-07 14:15:00","11.7645","3.51068","27.213","1.386","7.38","1.858","3.247","0.32","0.22","30.451","4.77455","15.49","0","SATNPRO1964","28.694","0.40194","5"],
    [62324,"HCEP03730563","2025-10-07 14:30:00","11.7656","3.51046","27.382","1.421","7.38","1.75","3.094","0.27","0.21","30.448","4.77412","15.89","0","SATNPRO1964","29.002","0.40624","5"],
    [62325,"HCEP03730563","2025-10-07 14:45:00","11.7662","3.51045","27.509","1.469","7.38","1.872","3.075","0.37","0.35","30.4473","4.77401","16.43","0","SATNPRO1964","28.884","0.40458","5"],
    [62326,"HCEP03730563","2025-10-07 15:00:00","11.7664","3.51035","27.701","1.485","7.38","1.884","3.31","0.26","0.29","30.4461","4.77386","16.6","0","SATNPRO1964","29.122","0.40788","5"],
    [62327,"HCEP03730563","2025-10-07 15:15:00","11.7675","3.51024","27.816","1.5","7.39","2.072","3.351","0.43","0.55","30.444","4.77356","16.77","0","SATNPRO1964","29.266000000000002","0.4099","5"],
    [62328,"HCEP03730563","2025-10-07 15:30:00","11.768","3.51006","27.909","1.537","7.39","2.326","3.649","0.65","0.67","30.4418","4.77324","17.18","0","SATNPRO1964","29.612","0.41472","5"],
    [62329,"HCEP03730563","2025-10-07 15:45:00","11.7679","3.50977","27.987","1.57","7.39","1.878","2.524","0.4","0.27","30.4391","4.77286","17.55","0","SATNPRO1964","29.546","0.41384","5"],
    [62330,"HCEP03730563","2025-10-07 16:00:00","11.766","3.50939","28.019","1.583","7.39","1.968","2.607","0.49","0.22","30.437","4.7726","17.7","0","SATNPRO1964","29.536","0.41374","5"],
    [62331,"HCEP03730563","2025-10-07 16:15:00","11.7649","3.50917","28.024","1.566","7.39","2.674","4.488","0.73","1.17","30.4359","4.77245","17.51","0","SATNPRO1964","29.3","0.4104","5"],
    [62332,"HCEP03730563","2025-10-07 16:30:00","11.7646","3.50907","27.997","1.551","7.39","1.98","2.657","0.58","0.26","30.4351","4.77235","17.34","0","SATNPRO1964","29.2","0.40902","5"],
    [62333,"HCEP03730563","2025-10-07 16:45:00","11.7643","3.50901","27.991","1.548","7.39","1.876","2.793","0.35","0.26","30.4348","4.77231","17.3","0","SATNPRO1964","29.372","0.4114","5"],
    [62334,"HCEP03730563","2025-10-07 17:00:00","11.7654","3.50929","27.925","1.543","7.39","1.937","3.292","0.34","0.37","30.4366","4.77254","17.25","0","SATNPRO1964","29.337999999999997","0.41092","5"],
    [62335,"HCEP03730563","2025-10-07 17:15:00","11.7681","3.5097","27.847","1.548","7.39","1.811","3.265","0.31","0.5","30.4384","4.77275","17.31","0","SATNPRO1964","29.478","0.41288","5"],
    [62336,"HCEP03730563","2025-10-07 17:30:00","11.7675","3.50967","27.772","1.567","7.39","1.78","2.557","1.1","0.2","30.4386","4.77279","17.52","0","SATNPRO1964","29.532","0.41368","5"],
    [62337,"HCEP03730563","2025-10-07 17:45:00","11.7679","3.5096","27.677","1.568","7.39","1.598","2.396","0.52","0.16","30.4376","4.77263","17.53","0","SATNPRO1964","29.274","0.41004","5"],
    [62338,"HCEP03730563","2025-10-07 18:00:00","11.7696","3.50982","27.536","1.583","7.4","1.31","2.17","0.18","0.19","30.4385","4.77273","17.7","0","SATNPRO1964","29.69","0.4159","5"],
    [62339,"HCEP03730563","2025-10-07 18:15:00","11.7654","3.50917","27.351","1.589","7.39","1.409","2.253","0.19","0.08","30.4357","4.77238","17.76","0","SATNPRO1964","29.242","0.40956","5"],
    [62340,"HCEP03730563","2025-10-07 18:30:00","11.768","3.50946","27.185","1.566","7.39","1.247","1.978","0.16","0.13","30.4364","4.77243","17.51","0","SATNPRO1964","29.858","0.41822","5"],
    [62341,"HCEP03730563","2025-10-07 18:45:00","11.765","3.50895","27.011","1.584","7.39","1.274","2.043","0.16","0.05","30.4339","4.77212","17.71","0","SATNPRO1964","29.332","0.41084","5"],
    [62342,"HCEP03730563","2025-10-07 19:00:00","11.766","3.50905","26.84","1.565","7.39","1.185","2.013","0.15","0.08","30.4342","4.77214","17.49","0","SATNPRO1964","29.444","0.41242","5"],
    [62343,"HCEP03730563","2025-10-07 19:15:00","11.7647","3.50885","26.652","1.561","7.39","1.247","2.083","0.18","0.1","30.4334","4.77203","17.45","0","SATNPRO1964","29.302","0.41044","5"],
    [62344,"HCEP03730563","2025-10-07 19:30:00","11.767","3.5091","26.447","1.559","7.39","1.182","1.996","0.18","0.06","30.4341","4.77208","17.43","0","SATNPRO1964","29.442","0.4124","5"],
    [62345,"HCEP03730563","2025-10-07 19:45:00","11.7669","3.50892","26.245","1.596","7.4","1.181","1.781","0.27","0.04","30.4325","4.77185","17.84","0","SATNPRO1964","29.594","0.41454","5"],
    [62346,"HCEP03730563","2025-10-07 20:00:00","11.7677","3.50893","26.013","1.619","7.4","1.176","1.903","0.23","0.06","30.4321","4.77176","18.1","0","SATNPRO1964","29.6","0.41458","5"],
    [62347,"HCEP03730563","2025-10-07 20:15:00","11.7668","3.50883","25.787","1.631","7.4","1.098","1.869","0.14","0.05","30.4319","4.77175","18.23","0","SATNPRO1964","29.742","0.41656","5"],
    [62348,"HCEP03730563","2025-10-07 20:30:00","11.7667","3.50874","25.56","1.64","7.4","0.991","1.862","0.15","0.07","30.4312","4.77164","18.34","0","SATNPRO1964","30.014","0.42038","5"],
    [62349,"HCEP03730563","2025-10-07 20:45:00","11.7654","3.50862","25.333","1.627","7.4","1.182","2.092","0.2","0.15","30.4312","4.77163","18.19","0","SATNPRO1964","29.604","0.41464","5"],
    [62350,"HCEP03730563","2025-10-07 21:00:00","11.7649","3.50867","25.125","1.6","7.4","1.111","1.987","0.17","0.11","30.4321","4.77176","17.88","0","SATNPRO1964","29.626","0.41494","5"],
    [62351,"HCEP03730563","2025-10-07 21:15:00","11.7752","3.50999","24.884","1.639","7.4","0.972","1.471","0.33","0.08","30.4365","4.77222","18.33","0","SATNPRO1964","30.714","0.4302","5"],
    [62352,"HCEP03730563","2025-10-07 21:30:00","11.7768","3.5105","24.676","1.774","7.41","0.99","1.696","0.23","0.14","30.4402","4.77272","19.84","0","SATNPRO1964","30.626","0.42896","5"],
    [62353,"HCEP03730563","2025-10-07 21:45:00","11.7739","3.51062","24.515","1.749","7.41","1.107","2.129","0.18","0.28","30.4438","4.77325","19.55","0","SATNPRO1964","30.498","0.42714","5"],
    [62354,"HCEP03730563","2025-10-07 22:00:00","11.774","3.51083","24.378","1.673","7.4","1.103","2.388","0.13","0.21","30.4458","4.77352","18.71","0","SATNPRO1964","29.256","0.4098","5"],
    [62355,"HCEP03730563","2025-10-07 22:15:00","11.7708","3.51075","24.267","1.592","7.4","1.304","2.839","0.14","0.18","30.4477","4.77383","17.8","0","SATNPRO1964","28.704","0.40204","5"],
    [62356,"HCEP03730563","2025-10-07 22:30:00","11.7748","3.51143","24.198","1.529","7.4","1.155","2.388","0.19","0.19","30.4509","4.77423","17.09","0","SATNPRO1964","29.284","0.41014","5"],
    [62357,"HCEP03730563","2025-10-07 22:45:00","11.7687","3.51075","24.193","1.547","7.39","1.429","2.879","0.21","0.2","30.4495","4.77411","17.29","0","SATNPRO1964","28.48","0.39888","5"],
    [62358,"HCEP03730563","2025-10-07 23:00:00","11.775","3.5112","24.172","1.497","7.39","1.17","2.261","0.21","0.13","30.4486","4.7739","16.74","0","SATNPRO1964","30.018","0.42044","5"],
    [62359,"HCEP03730563","2025-10-07 23:15:00","11.778","3.51115","24.172","1.632","7.4","1.004","1.713","0.28","0.11","30.4457","4.77345","18.25","0","SATNPRO1964","30.59","0.42844","5"],
    [62360,"HCEP03730563","2025-10-07 23:30:00","11.7793","3.51104","24.227","1.751","7.41","0.798","1.424","0.15","0.08","30.4435","4.77312","19.58","0","SATNPRO1964","30.758","0.4308","5"],
    [62361,"HCEP03730563","2025-10-07 23:45:00","11.7753","3.51058","24.257","1.778","7.41","0.889","1.708","0.11","0.1","30.4423","4.773","19.89","0","SATNPRO1964","30.216","0.42322","5"],
    [62362,"HCEP03730563","2025-10-08 00:00:00","11.7725","3.51014","24.383","1.714","7.41","0.995","2.098","0.14","0.42","30.4404","4.77278","19.16","0","SATNPRO1964","29.7","0.41602","5"],
    [62363,"HCEP03730563","2025-10-08 00:15:00","11.7704","3.51022","24.528","1.646","7.4","1.252","2.292","0.29","0.25","30.4428","4.77316","18.41","0","SATNPRO1964","29.358","0.4112","5"],
    [62364,"HCEP03730563","2025-10-08 00:30:00","11.7678","3.50966","24.687","1.545","7.4","1.309","2.574","0.37","0.15","30.4395","4.77274","17.28","0","SATNPRO1964","29.24","0.40954","5"],
    [62365,"HCEP03730563","2025-10-08 00:45:00","11.7722","3.51033","24.875","1.548","7.4","1.267","2.553","0.25","0.18","30.4423","4.77308","17.31","0","SATNPRO1964","29.498","0.4132","5"],
    [62366,"HCEP03730563","2025-10-08 01:00:00","11.7708","3.51029","25.054","1.575","7.4","1.468","2.652","0.48","0.44","30.443","4.77321","17.61","0","SATNPRO1964","29.118","0.40784","5"],
    [62367,"HCEP03730563","2025-10-08 01:15:00","11.7731","3.51036","25.202","1.545","7.4","1.399","2.526","0.3","0.21","30.4417","4.773","17.28","0","SATNPRO1964","29.842","0.41798","5"],
    [62368,"HCEP03730563","2025-10-08 01:30:00","11.7737","3.51036","25.403","1.602","7.4","1.314","2.521","0.24","0.25","30.4411","4.77292","17.92","0","SATNPRO1964","29.906","0.41888","5"],
    [62369,"HCEP03730563","2025-10-08 01:45:00","11.7755","3.51002","25.545","1.617","7.4","1.122","2.394","0.21","0.61","30.4363","4.77223","18.08","0","SATNPRO1964","29.810000000000002","0.41752","5"],
    [62370,"HCEP03730563","2025-10-08 02:00:00","11.7698","3.51009","25.788","1.636","7.4","1.253","2.484","0.24","0.17","30.4416","4.77306","18.29","0","SATNPRO1964","29.272","0.41004","5"],
    [62371,"HCEP03730563","2025-10-08 02:15:00","11.7733","3.51066","25.954","1.543","7.39","1.436","2.53","0.25","0.17","30.4441","4.77339","17.25","0","SATNPRO1964","29.25","0.4097","5"],
    [62372,"HCEP03730563","2025-10-08 02:30:00","11.7749","3.51117","26.154","1.551","7.39","1.474","2.517","0.24","0.37","30.4476","4.77387","17.35","0","SATNPRO1964","29.458","0.41262","5"],
    [62373,"HCEP03730563","2025-10-08 02:45:00","11.7761","3.51152","26.343","1.55","7.39","1.831","2.785","0.28","0.57","30.4499","4.77418","17.33","0","SATNPRO1964","29.316","0.41066","5"],
    [62374,"HCEP03730563","2025-10-08 03:00:00","11.7773","3.51182","26.495","1.56","7.39","1.819","2.775","0.34","0.41","30.4518","4.77444","17.45","0","SATNPRO1964","29.536","0.41374","5"],
    [62375,"HCEP03730563","2025-10-08 03:15:00","11.7791","3.51206","26.71","1.582","7.4","1.765","2.94","0.37","0.42","30.4526","4.77454","17.7","0","SATNPRO1964","29.714","0.4162","5"],
    [62376,"HCEP03730563","2025-10-08 03:30:00","11.7762","3.51166","26.957","1.595","7.4","1.912","2.666","0.61","0.46","30.4509","4.77436","17.84","0","SATNPRO1964","29.27","0.40992","5"],
    [62377,"HCEP03730563","2025-10-08 03:45:00","11.7763","3.51142","27.108","1.581","7.4","1.72","2.668","0.41","0.37","30.4485","4.77403","17.68","0","SATNPRO1964","29.44","0.41234","5"],
    [62378,"HCEP03730563","2025-10-08 04:00:00","11.7733","3.51073","27.255","1.569","7.39","1.456","2.641","0.18","0.41","30.4443","4.77348","17.55","0","SATNPRO1964","29.204","0.40908","5"],
    [62379,"HCEP03730563","2025-10-08 04:15:00","11.7758","3.51112","27.384","1.552","7.39","1.395","2.51","0.19","1.49","30.4459","4.77368","17.35","0","SATNPRO1964","29.948","0.41948","5"],
    [62380,"HCEP03730563","2025-10-08 04:30:00","11.7786","3.51173","27.466","1.598","7.4","1.503","2","0.46","0.22","30.4495","4.77415","17.87","0","SATNPRO1964","29.78","0.41712","5"],
    [62381,"HCEP03730563","2025-10-08 04:45:00","11.7832","3.51262","27.602","1.647","7.4","1.323","2.195","0.21","0.15","30.4542","4.77476","18.43","0","SATNPRO1964","30.156","0.4224","5"],
    [62382,"HCEP03730563","2025-10-08 05:00:00","11.7844","3.51293","27.66","1.7","7.41","1.667","2.618","0.52","0.2","30.4562","4.77502","19.02","0","SATNPRO1964","30.36","0.42526","5"],
    [62383,"HCEP03730563","2025-10-08 05:15:00","11.7831","3.51283","27.663","1.689","7.4","1.995","2.63","1.59","0.25","30.4564","4.77507","18.9","0","SATNPRO1964","29.852","0.41814","5"],
    [62384,"HCEP03730563","2025-10-08 05:30:00","11.7856","3.51331","27.667","1.679","7.41","1.68","2.705","0.6","0.32","30.4588","4.77538","18.78","0","SATNPRO1964","30.288","0.42424","5"],
    [62385,"HCEP03730563","2025-10-08 05:45:00","11.7875","3.51374","27.644","1.702","7.41","1.502","2.45","0.27","0.18","30.4615","4.77573","19.04","0","SATNPRO1964","30.418","0.42608","5"],
    [62386,"HCEP03730563","2025-10-08 06:00:00","11.79","3.51408","27.6","1.728","7.41","1.416","2.29","0.23","0.38","30.4628","4.77587","19.34","0","SATNPRO1964","30.436","0.4263","5"],
    [62387,"HCEP03730563","2025-10-08 06:15:00","11.7869","3.51356","27.571","1.75","7.41","1.585","2.617","0.61","0.43","30.4602","4.77556","19.58","0","SATNPRO1964","30.502","0.42722","5"],
    [62388,"HCEP03730563","2025-10-08 06:30:00","11.7848","3.51298","27.515","1.717","7.41","1.378","2.579","0.29","0.39","30.4564","4.77504","19.2","0","SATNPRO1964","30.258","0.42382","5"],
    [62389,"HCEP03730563","2025-10-08 06:45:00","11.7826","3.51245","27.459","1.693","7.41","1.305","2.557","0.1","0.14","30.4532","4.77461","18.94","0","SATNPRO1964","30.054","0.42098","5"],
    [62390,"HCEP03730563","2025-10-08 07:00:00","11.7804","3.51193","27.357","1.666","7.41","1.448","2.723","0.39","0.26","30.45","4.77419","18.63","0","SATNPRO1964","29.912","0.41898","5"],
    [62391,"HCEP03730563","2025-10-08 07:15:00","11.7773","3.51132","27.259","1.629","7.4","1.63","3.175","0.62","1.14","30.4467","4.77376","18.22","0","SATNPRO1964","29.7","0.416","5"],
    [62392,"HCEP03730563","2025-10-08 07:30:00","11.7739","3.51061","27.157","1.586","7.4","1.476","2.88","0.41","0.35","30.4427","4.77324","17.74","0","SATNPRO1964","29.304000000000002","0.41048","5"],
    [62393,"HCEP03730563","2025-10-08 07:45:00","11.774","3.51075","27.041","1.542","7.4","1.441","2.869","0.32","0.36","30.444","4.77342","17.24","0","SATNPRO1964","29.3","0.41038","5"],
    [62394,"HCEP03730563","2025-10-08 08:00:00","11.7743","3.5107","26.935","1.526","7.39","1.304","2.878","0.31","0.43","30.4432","4.7733","17.07","0","SATNPRO1964","29.512","0.41338","5"],
    [62395,"HCEP03730563","2025-10-08 08:15:00","11.777","3.51127","26.812","1.524","7.39","1.439","2.594","0.34","0.28","30.4465","4.77372","17.04","0","SATNPRO1964","29.407999999999998","0.41188","5"],
    [62396,"HCEP03730563","2025-10-08 08:30:00","11.7802","3.51172","26.699","1.553","7.4","1.438","2.637","0.52","0.3","30.4484","4.77393","17.37","0","SATNPRO1964","29.772","0.417","5"],
    [62397,"HCEP03730563","2025-10-08 08:45:00","11.7841","3.51248","26.582","1.62","7.4","1.267","2.379","0.38","0.13","30.4525","4.77445","18.12","0","SATNPRO1964","30.474","0.42684","5"],
    [62398,"HCEP03730563","2025-10-08 09:00:00","11.7861","3.51272","26.482","1.673","7.41","1.224","2.227","0.37","0.28","30.4532","4.77452","18.72","0","SATNPRO1964","30.166","0.42254","5"],
    [62399,"HCEP03730563","2025-10-08 09:15:00","11.7857","3.51276","26.328","1.713","7.41","1.221","2.606","0.32","0.26","30.454","4.77463","19.16","0","SATNPRO1964","30.664","0.42954","5"],
    [62400,"HCEP03730563","2025-10-08 09:30:00","11.7874","3.51287","26.181","1.697","7.41","1.208","2.69","0.27","0.29","30.4538","4.77456","18.99","0","SATNPRO1964","30.454","0.42658","5"],
    [62401,"HCEP03730563","2025-10-08 09:45:00","11.7858","3.51231","26.037","1.696","7.41","1.311","2.892","0.57","0.45","30.4498","4.77401","18.97","0","SATNPRO1964","30.178","0.42272","5"],
    [62402,"HCEP03730563","2025-10-08 10:00:00","11.7839","3.51231","25.922","1.675","7.41","1.155","2.724","0.28","0.23","30.4513","4.77425","18.74","0","SATNPRO1964","30.234","0.4235","5"],
    [62403,"HCEP03730563","2025-10-08 10:15:00","11.7866","3.51289","25.799","1.655","7.41","1.115","2.857","0.15","0.19","30.4547","4.77469","18.52","0","SATNPRO1964","30.248","0.42366","5"],
    [62404,"HCEP03730563","2025-10-08 10:30:00","11.7867","3.51348","25.699","1.639","7.4","1.371","3.168","0.65","0.21","30.4603","4.77547","18.34","0","SATNPRO1964","29.95","0.4195","5"],
    [62405,"HCEP03730563","2025-10-08 10:45:00","11.7852","3.51374","25.595","1.576","7.4","1.304","3.116","0.2","0.22","30.4641","4.77602","17.63","0","SATNPRO1964","29.724","0.41636","5"],
    [62406,"HCEP03730563","2025-10-08 11:00:00","11.7852","3.51373","25.549","1.503","7.39","1.333","3.303","0.22","0.28","30.4641","4.77601","16.82","0","SATNPRO1964","29.582","0.41434","5"],
    [62407,"HCEP03730563","2025-10-08 11:15:00","11.7837","3.51361","25.501","1.501","7.39","1.449","3.586","1.29","0.44","30.4642","4.77604","16.79","0","SATNPRO1964","29.516","0.4134","5"],
    [62408,"HCEP03730563","2025-10-08 11:30:00","11.7815","3.51335","25.507","1.465","7.39","1.599","3.194","0.48","0.18","30.4635","4.77598","16.39","0","SATNPRO1964","29.214","0.40916","5"],
    [62409,"HCEP03730563","2025-10-08 11:45:00","11.7808","3.51328","25.617","1.427","7.39","1.413","3.476","0.32","0.14","30.4633","4.77597","15.96","0","SATNPRO1964","29.052","0.4069","5"],
    [62410,"HCEP03730563","2025-10-08 12:00:00","11.7792","3.51308","25.697","1.4","7.38","1.433","3.649","0.42","0.44","30.4627","4.77591","15.66","0","SATNPRO1964","28.774","0.40308","5"],
    [62411,"HCEP03730563","2025-10-08 12:15:00","11.7776","3.51281","25.809","1.371","7.38","1.344","3.26","0.22","0.16","30.4614","4.77575","15.34","0","SATNPRO1964","28.66","0.4014","5"],
    [62412,"HCEP03730563","2025-10-08 12:30:00","11.7764","3.51272","25.926","1.345","7.38","1.538","3.277","0.52","0.18","30.4614","4.77579","15.04","0","SATNPRO1964","28.488","0.39906","5"],
    [62413,"HCEP03730563","2025-10-08 12:45:00","11.775","3.51247","26.045","1.322","7.38","1.418","3.403","0.25","0.15","30.4601","4.77563","14.78","0","SATNPRO1964","28.37","0.39738","5"],
    [62414,"HCEP03730563","2025-10-08 13:00:00","11.7736","3.51222","26.179","1.291","7.37","1.5","3.577","0.44","0.26","30.4588","4.77546","14.44","0","SATNPRO1964","28.354","0.39718","5"],
    [62415,"HCEP03730563","2025-10-08 13:15:00","11.7707","3.51178","26.331","1.261","7.37","1.378","3.235","0.66","0.21","30.4569","4.77525","14.1","0","SATNPRO1964","28.074","0.39322","5"],
    [62416,"HCEP03730563","2025-10-08 13:30:00","11.7686","3.51153","26.478","1.224","7.37","1.346","3.603","0.45","0.36","30.4561","4.77518","13.68","0","SATNPRO1964","27.992","0.39208","5"],
    [62417,"HCEP03730563","2025-10-08 13:45:00","11.768","3.51145","26.625","1.196","7.36","1.354","4.369","0.21","0.7","30.4558","4.77515","13.37","0","SATNPRO1964","27.716","0.3882","5"],
    [62418,"HCEP03730563","2025-10-08 14:00:00","11.7673","3.51133","26.78","1.171","7.36","0.998","3.196","0.22","0.14","30.4552","4.77508","13.1","0","SATNPRO1964","27.842","0.38994","5"],
    [62419,"HCEP03730563","2025-10-08 14:15:00","11.766","3.51113","26.941","1.164","7.36","1.323","3.129","0.31","0.18","30.4543","4.77498","13.01","0","SATNPRO1964","27.708","0.3881","5"],
    [62420,"HCEP03730563","2025-10-08 14:30:00","11.7669","3.51129","27.114","1.157","7.36","1.066","3.047","0.18","0.16","30.4549","4.77507","12.94","0","SATNPRO1964","27.786","0.38918","5"],
    [62421,"HCEP03730563","2025-10-08 14:45:00","11.7683","3.51152","27.274","1.166","7.36","1.323","3.112","0.6","0.14","30.4559","4.77519","13.03","0","SATNPRO1964","27.874","0.3904","5"],
    [62422,"HCEP03730563","2025-10-08 15:00:00","11.7692","3.51166","27.427","1.178","7.36","1.103","3.08","0.14","0.14","30.4565","4.77528","13.17","0","SATNPRO1964","27.926","0.39118","5"],
    [62423,"HCEP03730563","2025-10-08 15:15:00","11.7715","3.51209","27.567","1.19","7.36","1.227","2.983","0.24","0.1","30.4587","4.77556","13.31","0","SATNPRO1964","28.036","0.39268","5"],
    [62424,"HCEP03730563","2025-10-08 15:30:00","11.7712","3.51198","27.724","1.214","7.36","1.198","2.869","0.35","0.19","30.4578","4.77545","13.58","0","SATNPRO1964","28.124","0.3939","5"],
    [62425,"HCEP03730563","2025-10-08 15:45:00","11.7737","3.5125","27.842","1.237","7.36","1.284","3.186","0.37","0.27","30.4607","4.77583","13.84","0","SATNPRO1964","28.316","0.3966","5"],
    [62426,"HCEP03730563","2025-10-08 16:00:00","11.7747","3.51246","27.951","1.25","7.37","1.136","3.075","0.21","0.38","30.4595","4.77565","13.98","0","SATNPRO1964","28.752","0.40272","5"],
    [62427,"HCEP03730563","2025-10-08 16:15:00","11.7769","3.513","28.04","1.28","7.37","1.766","3.122","1.19","0.24","30.4628","4.77609","14.32","0","SATNPRO1964","28.616","0.40082","5"],
    [62428,"HCEP03730563","2025-10-08 16:30:00","11.7775","3.51311","28.107","1.278","7.37","1.303","3.134","0.2","0.28","30.4634","4.77617","14.29","0","SATNPRO1964","28.514","0.39938","5"],
    [62429,"HCEP03730563","2025-10-08 16:45:00","11.7786","3.51325","28.13","1.272","7.37","1.314","3.13","0.26","0.21","30.4639","4.77622","14.23","0","SATNPRO1964","28.666","0.40152","5"],
    [62430,"HCEP03730563","2025-10-08 17:00:00","11.7787","3.51319","28.129","1.296","7.37","1.648","2.956","0.9","0.35","30.4632","4.77613","14.49","0","SATNPRO1964","28.942","0.40538","5"],
    [62431,"HCEP03730563","2025-10-08 17:15:00","11.7778","3.5131","28.107","1.297","7.37","1.387","3.171","0.27","0.2","30.463","4.77611","14.51","0","SATNPRO1964","28.766000000000002","0.40292","5"],
    [62432,"HCEP03730563","2025-10-08 17:30:00","11.7774","3.51229","28.06","1.315","7.37","0.98","2.647","0.17","0.52","30.4556","4.77506","14.7","0","SATNPRO1964","29.216","0.40924","5"],
    [62433,"HCEP03730563","2025-10-08 17:45:00","11.7773","3.51231","27.997","1.387","7.38","1.072","2.474","0.32","0.05","30.4559","4.77511","15.51","0","SATNPRO1964","29.254","0.40974","5"],
    [62434,"HCEP03730563","2025-10-08 18:00:00","11.7786","3.5126","27.905","1.405","7.38","1.103","2.68","0.2","0.15","30.4577","4.77533","15.71","0","SATNPRO1964","28.85","0.40408","5"],
    [62435,"HCEP03730563","2025-10-08 18:15:00","11.7784","3.51285","27.782","1.381","7.38","1.076","2.813","0.18","0.19","30.4603","4.7757","15.45","0","SATNPRO1964","28.526","0.39956","5"],
    [62436,"HCEP03730563","2025-10-08 18:30:00","11.7774","3.51289","27.634","1.323","7.37","1.203","3.13","0.25","0.18","30.4615","4.77587","14.8","0","SATNPRO1964","28.49","0.39904","5"],
    [62437,"HCEP03730563","2025-10-08 18:45:00","11.778","3.51288","27.473","1.282","7.37","1.722","2.871","1.66","0.28","30.461","4.77579","14.33","0","SATNPRO1964","28.064","0.39308","5"],
    [62438,"HCEP03730563","2025-10-08 19:00:00","11.7764","3.51281","27.284","1.263","7.37","1.227","3.03","0.29","0.12","30.4617","4.7759","14.13","0","SATNPRO1964","28.052","0.39292","5"],
    [62439,"HCEP03730563","2025-10-08 19:15:00","11.7755","3.51272","27.091","1.231","7.37","1.232","3.116","0.36","0.16","30.4617","4.77591","13.77","0","SATNPRO1964","27.946","0.39144","5"],
    [62440,"HCEP03730563","2025-10-08 19:30:00","11.7768","3.51277","26.891","1.225","7.37","0.987","2.901","0.18","0.11","30.4612","4.7758","13.7","0","SATNPRO1964","28.374","0.39742","5"],
    [62441,"HCEP03730563","2025-10-08 19:45:00","11.7769","3.51275","26.681","1.249","7.37","1.035","3.176","0.25","0.57","30.4609","4.77575","13.97","0","SATNPRO1964","28.17","0.3945","5"],
    [62442,"HCEP03730563","2025-10-08 20:00:00","11.7774","3.51273","26.464","1.267","7.37","0.956","2.916","0.12","0.24","30.4605","4.77567","14.17","0","SATNPRO1964","28.506","0.39926","5"],
    [62443,"HCEP03730563","2025-10-08 20:15:00","11.7766","3.51238","26.224","1.287","7.37","1.067","2.814","0.31","0.15","30.4579","4.77529","14.39","0","SATNPRO1964","28.804","0.40346","5"],
    [62444,"HCEP03730563","2025-10-08 20:30:00","11.7734","3.51129","25.971","1.297","7.37","0.937","2.642","0.22","0.31","30.4501","4.77422","14.51","0","SATNPRO1964","28.058","0.393","5"],
    [62445,"HCEP03730563","2025-10-08 20:45:00","11.7767","3.5125","25.727","1.295","7.37","0.999","2.878","0.21","0.13","30.4591","4.77544","14.48","0","SATNPRO1964","28.733999999999998","0.40248","5"],
    [62446,"HCEP03730563","2025-10-08 21:00:00","11.7767","3.51243","25.476","1.308","7.37","2.38","2.561","0.6","0.12","30.4586","4.77535","14.62","0","SATNPRO1964","28.834","0.4039","5"],
    [62447,"HCEP03730563","2025-10-08 21:15:00","11.7782","3.51252","25.214","1.326","7.37","0.898","2.523","0.25","0.37","30.4583","4.77528","14.83","0","SATNPRO1964","28.94","0.40542","5"],
    [62448,"HCEP03730563","2025-10-08 21:30:00","11.7772","3.51233","24.944","1.353","7.38","7.709","2.602","2.59","0.19","30.4574","4.77515","15.14","0","SATNPRO1964","29.046","0.40682","5"],
    [62449,"HCEP03730563","2025-10-08 21:45:00","11.777","3.51212","24.685","1.374","7.38","0.858","2.415","0.18","0.49","30.4556","4.77489","15.37","0","SATNPRO1964","29.414","0.41198","5"],
    [62450,"HCEP03730563","2025-10-08 22:00:00","11.7779","3.51243","24.456","1.393","7.38","0.875","2.283","0.23","0.1","30.4579","4.77519","15.58","0","SATNPRO1964","29.366","0.41134","5"],
    [62451,"HCEP03730563","2025-10-08 22:15:00","11.7752","3.51253","24.262","1.344","7.37","0.913","2.969","0.14","0.13","30.4612","4.77568","15.03","0","SATNPRO1964","28.4","0.39778","5"],
    [62452,"HCEP03730563","2025-10-08 22:30:00","11.7755","3.51255","24.097","1.255","7.37","0.898","3.186","0.12","0.09","30.4612","4.77567","14.03","0","SATNPRO1964","28.364","0.39728","5"],
    [62453,"HCEP03730563","2025-10-08 22:45:00","11.7738","3.51234","23.978","1.223","7.37","1.021","3.349","0.16","0.1","30.4607","4.77561","13.68","0","SATNPRO1964","28.038","0.39272","5"],
    [62454,"HCEP03730563","2025-10-08 23:00:00","11.7733","3.51226","23.901","1.205","7.36","1.036","3.377","0.22","0.11","30.4604","4.77557","13.48","0","SATNPRO1964","28.23","0.39538","5"],
    [62455,"HCEP03730563","2025-10-08 23:15:00","11.7734","3.51221","23.836","1.207","7.36","1.109","3.536","0.38","0.1","30.4598","4.77548","13.49","0","SATNPRO1964","28.238","0.39552","5"],
    [62456,"HCEP03730563","2025-10-08 23:30:00","11.7732","3.51227","23.824","1.205","7.36","1.174","3.438","0.25","0.07","30.4605","4.77558","13.48","0","SATNPRO1964","28.338","0.39694","5"],
    [62457,"HCEP03730563","2025-10-08 23:45:00","11.7734","3.51231","23.827","1.204","7.36","1.076","3.522","0.19","0.64","30.4608","4.77562","13.47","0","SATNPRO1964","28.406","0.39786","5"],
    [62458,"HCEP03730563","2025-10-09 00:00:00","11.7737","3.51236","23.859","1.208","7.36","0.992","3.13","0.15","0.1","30.461","4.77565","13.51","0","SATNPRO1964","28.189999999999998","0.39484","5"],
    [62459,"HCEP03730563","2025-10-09 00:15:00","11.7734","3.51239","23.92","1.198","7.36","1.057","3.449","0.13","0.25","30.4614","4.77571","13.4","0","SATNPRO1964","27.832","0.38986","5"],
    [62460,"HCEP03730563","2025-10-09 00:30:00","11.773","3.51241","24.006","1.186","7.36","1.198","3.262","0.24","0.14","30.462","4.77581","13.27","0","SATNPRO1964","28.072","0.3932","5"],
    [62461,"HCEP03730563","2025-10-09 00:45:00","11.7731","3.5124","24.123","1.169","7.36","1.151","3.745","0.34","0.21","30.4618","4.77578","13.07","0","SATNPRO1964","27.754","0.3887","5"],
    [62462,"HCEP03730563","2025-10-09 01:00:00","11.7737","3.51243","24.275","1.176","7.36","1.039","3.674","0.11","0.47","30.4615","4.77574","13.16","0","SATNPRO1964","28.152","0.39436","5"],
    [62463,"HCEP03730563","2025-10-09 01:15:00","11.7744","3.51254","24.458","1.2","7.36","1.047","3.447","0.27","0.31","30.4619","4.77579","13.42","0","SATNPRO1964","28.36","0.39722","5"],
    [62464,"HCEP03730563","2025-10-09 01:30:00","11.7753","3.513","24.69","1.231","7.36","1.164","3.68","0.12","0.23","30.4655","4.77631","13.77","0","SATNPRO1964","27.78","0.38914","5"],
    [62465,"HCEP03730563","2025-10-09 01:45:00","11.7788","3.51347","24.899","1.215","7.36","1.312","3.574","0.34","0.29","30.4671","4.77649","13.59","0","SATNPRO1964","28.358","0.39724","5"],
    [62466,"HCEP03730563","2025-10-09 02:00:00","11.782","3.5138","25.118","1.264","7.37","1.115","3.262","0.12","0.19","30.4675","4.77652","14.14","0","SATNPRO1964","29.012","0.40636","5"],
    [62467,"HCEP03730563","2025-10-09 02:15:00","11.7865","3.5137","25.313","1.344","7.38","1.255","2.957","0.59","0.14","30.4628","4.7758","15.04","0","SATNPRO1964","29.276","0.41004","5"],
    [62468,"HCEP03730563","2025-10-09 02:30:00","11.7823","3.51383","25.498","1.439","7.38","1.111","3.533","0.13","0.2","30.4674","4.77653","16.1","0","SATNPRO1964","28.582","0.40028","5"],
    [62469,"HCEP03730563","2025-10-09 02:45:00","11.779","3.51298","25.721","1.326","7.37","1.21","3.888","0.18","0.59","30.4619","4.7758","14.83","0","SATNPRO1964","28.37","0.39736","5"],
    [62470,"HCEP03730563","2025-10-09 03:00:00","11.7774","3.51223","25.932","1.302","7.37","1.221","3.556","0.24","0.3","30.4559","4.77499","14.56","0","SATNPRO1964","28.7","0.40204","5"],
    [62471,"HCEP03730563","2025-10-09 03:15:00","11.7712","3.51064","26.07","1.312","7.37","1.168","3.534","0.15","0.4","30.4455","4.77362","14.67","0","SATNPRO1964","28.184","0.39476","5"],
    [62472,"HCEP03730563","2025-10-09 03:30:00","11.7631","3.50855","26.256","1.262","7.37","1.222","4.067","0.14","0.25","30.4321","4.77184","14.1","0","SATNPRO1964","27.474","0.38482","5"],
    [62473,"HCEP03730563","2025-10-09 03:45:00","11.7585","3.50726","26.519","1.183","7.36","1.975","3.967","2.86","0.23","30.4232","4.77068","13.23","0","SATNPRO1964","26.784","0.37518","5"],
    [62474,"HCEP03730563","2025-10-09 04:00:00","11.7564","3.50675","26.724","1.119","7.35","1.083","3.942","0.18","0.34","30.42","4.77025","12.51","0","SATNPRO1964","26.92","0.37708","5"],
    [62475,"HCEP03730563","2025-10-09 04:15:00","11.7589","3.50752","26.935","1.104","7.35","1.206","3.543","0.29","0.31","30.4252","4.77097","12.34","0","SATNPRO1964","27.386","0.38354","5"],
    [62476,"HCEP03730563","2025-10-09 04:30:00","11.7632","3.50865","27.083","1.154","7.36","1.267","3.671","0.46","0.31","30.4326","4.77196","12.9","0","SATNPRO1964","28.024","0.3925","5"],
    [62477,"HCEP03730563","2025-10-09 04:45:00","11.7682","3.50977","27.215","1.201","7.36","1.243","3.513","0.28","0.2","30.4392","4.77283","13.43","0","SATNPRO1964","28.221999999999998","0.3953","5"],
    [62478,"HCEP03730563","2025-10-09 05:00:00","11.772","3.51104","27.381","1.233","7.36","1.429","4.071","0.6","0.22","30.4483","4.77407","13.78","0","SATNPRO1964","28.01","0.39232","5"],
    [62479,"HCEP03730563","2025-10-09 05:15:00","11.7716","3.51085","27.505","1.236","7.36","1.582","3.855","0.58","0.26","30.4467","4.77385","13.83","0","SATNPRO1964","27.992","0.39208","5"],
    [62480,"HCEP03730563","2025-10-09 05:30:00","11.7709","3.51062","27.587","1.227","7.36","1.618","3.744","1.38","0.21","30.4451","4.77364","13.72","0","SATNPRO1964","28.137999999999998","0.39412","5"],
    [62481,"HCEP03730563","2025-10-09 05:45:00","11.7711","3.51068","27.657","1.224","7.36","1.265","3.492","0.44","0.12","30.4454","4.77369","13.68","0","SATNPRO1964","28.152","0.3943","5"],
    [62482,"HCEP03730563","2025-10-09 06:00:00","11.7711","3.51058","27.697","1.223","7.36","1.623","5.564","0.34","0.99","30.4444","4.77356","13.68","0","SATNPRO1964","28.24","0.39556","5"],
    [62483,"HCEP03730563","2025-10-09 06:15:00","11.7708","3.51054","27.732","1.227","7.36","1.132","3.703","0.26","0.29","30.4443","4.77354","13.72","0","SATNPRO1964","28.13","0.394","5"],
    [62484,"HCEP03730563","2025-10-09 06:30:00","11.7712","3.5107","27.753","1.231","7.36","1.228","3.643","0.44","1.09","30.4454","4.7737","13.76","0","SATNPRO1964","28.338","0.3969","5"],
    [62485,"HCEP03730563","2025-10-09 06:45:00","11.7732","3.5113","27.779","1.235","7.36","1.124","3.249","0.18","0.21","30.4497","4.77427","13.82","0","SATNPRO1964","28.212","0.39518","5"],
    [62486,"HCEP03730563","2025-10-09 07:00:00","11.7744","3.51177","27.764","1.242","7.36","1.553","3.343","2.29","0.23","30.4531","4.77474","13.89","0","SATNPRO1964","28.282","0.39612","5"],
    [62487,"HCEP03730563","2025-10-09 07:15:00","11.7757","3.51226","27.713","1.243","7.36","1.215","3.379","0.24","0.24","30.4568","4.77524","13.9","0","SATNPRO1964","28.47","0.39876","5"],
    [62488,"HCEP03730563","2025-10-09 07:30:00","11.7766","3.51258","27.666","1.246","7.36","1.111","3.412","0.2","0.19","30.4592","4.77556","13.94","0","SATNPRO1964","28.34","0.39696","5"],
    [62489,"HCEP03730563","2025-10-09 07:45:00","11.7785","3.51304","27.594","1.247","7.36","1.441","3.831","0.37","0.82","30.4621","4.77594","13.95","0","SATNPRO1964","28.242","0.3956","5"],
    [62490,"HCEP03730563","2025-10-09 08:00:00","11.782","3.51358","27.521","1.283","7.37","1.246","3.145","0.39","0.27","30.4645","4.77622","14.36","0","SATNPRO1964","29.308","0.41048","5"],
    [62491,"HCEP03730563","2025-10-09 08:15:00","11.7819","3.51377","27.444","1.319","7.37","1.614","3.58","0.46","0.24","30.4664","4.77649","14.75","0","SATNPRO1964","28.904","0.40486","5"],
    [62492,"HCEP03730563","2025-10-09 08:30:00","11.7824","3.51393","27.341","1.308","7.37","1.277","3.443","0.24","0.3","30.4675","4.77664","14.63","0","SATNPRO1964","28.682","0.40172","5"],
    [62493,"HCEP03730563","2025-10-09 08:45:00","11.7825","3.51388","27.161","1.298","7.37","1.811","4.674","0.43","0.68","30.4671","4.77657","14.52","0","SATNPRO1964","28.918","0.40506","5"],
    [62494,"HCEP03730563","2025-10-09 09:00:00","11.7814","3.51375","27.113","1.283","7.37","1.363","5.338","0.27","2.26","30.4668","4.77653","14.35","0","SATNPRO1964","28.764","0.4029","5"],
    [62495,"HCEP03730563","2025-10-09 09:15:00","11.7823","3.51383","27.047","1.287","7.37","1.375","3.166","1.02","0.2","30.4668","4.77652","14.39","0","SATNPRO1964","28.768","0.40294","5"],
    [62496,"HCEP03730563","2025-10-09 09:30:00","11.7812","3.51361","26.944","1.302","7.37","1.279","3.048","0.38","0.3","30.4656","4.77636","14.57","0","SATNPRO1964","28.654","0.40136","5"],
    [62497,"HCEP03730563","2025-10-09 09:45:00","11.7823","3.51369","26.808","1.295","7.37","1.219","3.047","0.38","0.33","30.4656","4.77634","14.49","0","SATNPRO1964","28.902","0.40484","5"],
    [62498,"HCEP03730563","2025-10-09 10:00:00","11.7813","3.51357","26.691","1.302","7.37","1.233","3.283","0.39","0.33","30.4653","4.77631","14.56","0","SATNPRO1964","28.782","0.40316","5"],
    [62499,"HCEP03730563","2025-10-09 10:15:00","11.7804","3.51351","26.558","1.285","7.37","1.295","3.459","0.23","0.16","30.4655","4.77634","14.37","0","SATNPRO1964","28.904","0.40482","5"],
    [62500,"HCEP03730563","2025-10-09 10:30:00","11.7807","3.51361","26.407","1.257","7.37","1.412","3.361","0.32","0.22","30.4663","4.77643","14.06","0","SATNPRO1964","28.848","0.40406","5"],
    [62501,"HCEP03730563","2025-10-09 10:45:00","11.7844","3.51423","26.272","1.279","7.37","1.268","3.159","0.43","0.25","30.4692","4.77679","14.31","0","SATNPRO1964","29.266000000000002","0.40994","5"],
    [62502,"HCEP03730563","2025-10-09 11:00:00","11.7818","3.51396","26.17","1.296","7.37","1.366","3.696","0.29","0.29","30.4688","4.77676","14.49","0","SATNPRO1964","28.56","0.40006","5"],
    [62503,"HCEP03730563","2025-10-09 11:15:00","11.7806","3.51366","26.04","1.262","7.37","1.513","3.678","0.37","0.25","30.4669","4.7765","14.12","0","SATNPRO1964","28.842","0.404","5"],
    [62504,"HCEP03730563","2025-10-09 11:30:00","11.7781","3.51325","25.987","1.222","7.36","1.684","4.877","0.53","1.72","30.4651","4.77628","13.66","0","SATNPRO1964","28.04","0.39272","5"],
    [62505,"HCEP03730563","2025-10-09 11:45:00","11.778","3.51319","25.968","1.178","7.36","1.376","3.744","0.28","0.39","30.4647","4.77622","13.17","0","SATNPRO1964","28.394000000000002","0.39768","5"],
    [62506,"HCEP03730563","2025-10-09 12:00:00","11.7788","3.51322","25.962","1.177","7.36","1.402","3.253","0.28","0.18","30.4642","4.77614","13.17","0","SATNPRO1964","28.442","0.39838","5"],
    [62507,"HCEP03730563","2025-10-09 12:15:00","11.7786","3.51319","25.988","1.205","7.36","1.334","3.196","0.24","0.1","30.4641","4.77614","13.48","0","SATNPRO1964","28.45","0.39848","5"],
    [62508,"HCEP03730563","2025-10-09 12:30:00","11.7784","3.51315","26.048","1.206","7.36","1.878","2.964","2.01","0.1","30.4638","4.7761","13.49","0","SATNPRO1964","28.226","0.39534","5"],
    [62509,"HCEP03730563","2025-10-09 12:45:00","11.778","3.51312","26.096","1.192","7.36","1.374","3.205","0.41","0.13","30.4638","4.77611","13.33","0","SATNPRO1964","28.384","0.39758","5"],
    [62510,"HCEP03730563","2025-10-09 13:00:00","11.7775","3.51315","26.193","1.177","7.36","1.31","3.198","0.3","0.12","30.4646","4.77623","13.17","0","SATNPRO1964","28.302","0.39648","5"],
    [62511,"HCEP03730563","2025-10-09 13:15:00","11.7778","3.51325","26.303","1.161","7.36","1.354","3.491","0.4","0.15","30.4652","4.77632","12.99","0","SATNPRO1964","28.061999999999998","0.39308","5"],
    [62512,"HCEP03730563","2025-10-09 13:30:00","11.7789","3.51344","26.412","1.168","7.36","1.469","3.307","0.31","0.2","30.4661","4.77643","13.07","0","SATNPRO1964","28.406","0.39784","5"],
    [62513,"HCEP03730563","2025-10-09 13:45:00","11.7817","3.51413","26.527","1.195","7.36","1.456","3.366","0.49","0.18","30.4704","4.77702","13.37","0","SATNPRO1964","28.59","0.40044","5"],
    [62514,"HCEP03730563","2025-10-09 14:00:00","11.7835","3.5144","26.644","1.244","7.36","1.513","3.378","0.52","0.11","30.4715","4.77714","13.92","0","SATNPRO1964","28.75","0.40276","5"],
    [62515,"HCEP03730563","2025-10-09 14:15:00","11.7867","3.51499","26.757","1.295","7.37","1.323","3.318","0.28","0.2","30.4744","4.77752","14.49","0","SATNPRO1964","29.104","0.40766","5"],
    [62516,"HCEP03730563","2025-10-09 14:30:00","11.789","3.51554","26.923","1.358","7.37","1.374","3.664","0.19","0.27","30.4778","4.77798","15.2","0","SATNPRO1964","29.132","0.40804","5"],
    [62517,"HCEP03730563","2025-10-09 14:45:00","11.7916","3.51609","27.071","1.373","7.38","1.579","3.303","1.69","0.39","30.481","4.77839","15.36","0","SATNPRO1964","29.406","0.41186","5"],
    [62518,"HCEP03730563","2025-10-09 15:00:00","11.7922","3.51629","27.21","1.415","7.38","1.264","3.202","0.25","0.2","30.4823","4.77858","15.83","0","SATNPRO1964","29.724","0.4163","5"],
    [62519,"HCEP03730563","2025-10-09 15:15:00","11.7932","3.51645","27.345","1.391","7.38","1.172","3.234","0.17","0.44","30.483","4.77867","15.57","0","SATNPRO1964","29.854","0.41816","5"],
    [62520,"HCEP03730563","2025-10-09 15:30:00","11.7935","3.51666","27.486","1.383","7.38","1.344","3.422","0.21","0.28","30.4847","4.77891","15.47","0","SATNPRO1964","29.46","0.4126","5"],
    [62521,"HCEP03730563","2025-10-09 15:45:00","11.7923","3.51644","27.624","1.378","7.38","1.303","3.335","0.43","0.25","30.4835","4.77877","15.41","0","SATNPRO1964","29.372","0.41142","5"],
    [62522,"HCEP03730563","2025-10-09 16:00:00","11.7912","3.51629","27.767","1.35","7.38","1.221","3.656","0.11","0.14","30.4829","4.77871","15.1","0","SATNPRO1964","29.118","0.40784","5"],
    [62523,"HCEP03730563","2025-10-09 16:15:00","11.7915","3.51647","27.861","1.333","7.37","1.554","3.859","0.27","0.38","30.4844","4.77892","14.92","0","SATNPRO1964","28.878","0.40444","5"],
    [62524,"HCEP03730563","2025-10-09 16:30:00","11.7946","3.51692","27.931","1.335","7.37","1.441","3.856","0.32","0.53","30.4861","4.77913","14.94","0","SATNPRO1964","29.138","0.40808","5"],
    [62525,"HCEP03730563","2025-10-09 16:45:00","11.7935","3.51683","28.003","1.336","7.37","1.509","3.901","0.31","0.3","30.4861","4.77914","14.95","0","SATNPRO1964","29.414","0.412","5"],
    [62526,"HCEP03730563","2025-10-09 17:00:00","11.7944","3.51682","28.055","1.342","7.38","1.396","3.677","0.3","0.28","30.4852","4.77901","15.02","0","SATNPRO1964","29.428","0.41222","5"],
    [62527,"HCEP03730563","2025-10-09 17:15:00","11.7953","3.51667","28.072","1.372","7.38","1.372","3.251","0.26","0.26","30.4831","4.77869","15.35","0","SATNPRO1964","29.726","0.41634","5"],
    [62528,"HCEP03730563","2025-10-09 17:30:00","11.7941","3.51646","27.99","1.407","7.38","1.401","3.625","0.21","0.26","30.4821","4.77856","15.74","0","SATNPRO1964","29.764","0.4169","5"],
    [62529,"HCEP03730563","2025-10-09 17:45:00","11.7978","3.5169","27.97","1.408","7.38","1.437","3.495","0.34","0.31","30.4833","4.77868","15.75","0","SATNPRO1964","29.71","0.41614","5"],
    [62530,"HCEP03730563","2025-10-09 18:00:00","11.7947","3.5164","27.919","1.417","7.38","1.476","3.773","0.29","0.17","30.4811","4.77841","15.86","0","SATNPRO1964","29.898","0.41876","5"],
    [62531,"HCEP03730563","2025-10-09 18:15:00","11.7955","3.5164","27.866","1.405","7.38","1.58","3.677","0.96","0.56","30.4804","4.77829","15.73","0","SATNPRO1964","29.704","0.41606","5"],
    [62532,"HCEP03730563","2025-10-09 18:30:00","11.7954","3.51618","27.808","1.408","7.38","1.678","3.487","0.68","0.17","30.4784","4.77802","15.76","0","SATNPRO1964","29.42","0.41204","5"],
    [62533,"HCEP03730563","2025-10-09 18:45:00","11.7953","3.51607","27.711","1.412","7.38","1.569","3.265","0.77","0.16","30.4775","4.77789","15.8","0","SATNPRO1964","29.652","0.41534","5"],
    [62534,"HCEP03730563","2025-10-09 19:00:00","11.793","3.51574","27.6","1.403","7.38","1.289","3.417","0.23","0.2","30.4762","4.77772","15.7","0","SATNPRO1964","29.528","0.41356","5"],
    [62535,"HCEP03730563","2025-10-09 19:15:00","11.7936","3.51575","27.446","1.388","7.38","1.501","3.594","0.37","0.3","30.4759","4.77766","15.53","0","SATNPRO1964","29.526","0.41358","5"],
    [62536,"HCEP03730563","2025-10-09 19:30:00","11.7929","3.51585","27.288","1.379","7.38","1.615","3.578","0.48","0.17","30.4774","4.77789","15.43","0","SATNPRO1964","29.292","0.41026","5"],
    [62537,"HCEP03730563","2025-10-09 19:45:00","11.7953","3.51677","27.094","1.352","7.38","1.569","4.045","0.66","0.49","30.4845","4.77884","15.13","0","SATNPRO1964","29.041999999999998","0.40678","5"],
    [62538,"HCEP03730563","2025-10-09 20:00:00","11.7983","3.51788","26.902","1.318","7.38","1.524","3.998","0.37","0.34","30.4927","4.77995","14.76","0","SATNPRO1964","29.044","0.40682","5"],
    [62539,"HCEP03730563","2025-10-09 20:15:00","11.8005","3.51842","26.676","1.293","7.37","1.343","3.915","0.18","0.72","30.4963","4.7804","14.47","0","SATNPRO1964","29.05","0.4069","5"],
    [62540,"HCEP03730563","2025-10-09 20:30:00","11.8026","3.51888","26.462","1.297","7.37","1.492","4.109","0.6","0.93","30.499","4.78075","14.52","0","SATNPRO1964","29.233999999999998","0.40946","5"],
    [62541,"HCEP03730563","2025-10-09 20:45:00","11.8041","3.5191","26.237","1.306","7.38","1.524","3.778","0.46","0.3","30.4999","4.78085","14.61","0","SATNPRO1964","29.502","0.41324","5"],
    [62542,"HCEP03730563","2025-10-09 21:00:00","11.8084","3.51972","25.996","1.322","7.38","1.264","3.353","0.25","0.13","30.5026","4.78115","14.8","0","SATNPRO1964","29.632","0.41504","5"],
    [62543,"HCEP03730563","2025-10-09 21:15:00","11.8159","3.52101","25.743","1.364","7.38","1.176","3.161","0.34","0.22","30.5089","4.78192","15.27","0","SATNPRO1964","30.024","0.42056","5"],
    [62544,"HCEP03730563","2025-10-09 21:30:00","11.817","3.52137","25.497","1.41","7.38","1.386","3.492","0.64","0.39","30.5115","4.78225","15.79","0","SATNPRO1964","30.384","0.42556","5"],
    [62545,"HCEP03730563","2025-10-09 21:45:00","11.8213","3.52219","25.25","1.437","7.39","1.03","3.042","0.2","0.26","30.516","4.78282","16.1","0","SATNPRO1964","31.208000000000002","0.4371","5"],
    [62546,"HCEP03730563","2025-10-09 22:00:00","11.825","3.52281","25.006","1.481","7.39","0.995","2.56","0.21","0.11","30.519","4.78318","16.59","0","SATNPRO1964","31.042","0.43482","5"],
    [62547,"HCEP03730563","2025-10-09 22:15:00","11.8254","3.52308","24.744","1.511","7.39","1.134","2.873","0.21","0.42","30.5214","4.78349","16.92","0","SATNPRO1964","30.618","0.42888","5"],
    [62548,"HCEP03730563","2025-10-09 22:30:00","11.8295","3.52384","24.52","1.511","7.39","1.119","2.716","0.57","0.24","30.5255","4.784","16.92","0","SATNPRO1964","30.919999999999998","0.43308","5"],
    [62549,"HCEP03730563","2025-10-09 22:45:00","11.8281","3.52377","24.312","1.518","7.39","1.196","3.322","0.32","0.78","30.5259","4.78407","17","0","SATNPRO1964","30.552","0.42792","5"],
    [62550,"HCEP03730563","2025-10-09 23:00:00","11.8287","3.52383","24.13","1.499","7.39","1.207","2.722","0.98","0.16","30.5262","4.78409","16.8","0","SATNPRO1964","30.574","0.42828","5"],
    [62551,"HCEP03730563","2025-10-09 23:15:00","11.8284","3.5238","23.985","1.494","7.39","1.362","2.975","0.76","0.15","30.5261","4.78407","16.73","0","SATNPRO1964","30.406","0.42584","5"],
    [62552,"HCEP03730563","2025-10-09 23:30:00","11.8303","3.52402","23.862","1.5","7.4","1.018","2.648","0.2","0.1","30.5268","4.78414","16.81","0","SATNPRO1964","30.948","0.4335","5"],
    [62553,"HCEP03730563","2025-10-09 23:45:00","11.8287","3.52377","23.776","1.51","7.4","1.171","3.063","0.29","0.21","30.5257","4.784","16.91","0","SATNPRO1964","30.748","0.4307","5"],
    [62554,"HCEP03730563","2025-10-10 00:00:00","11.8327","3.52429","23.717","1.524","7.4","1.117","2.596","0.32","0.14","30.5274","4.78418","17.07","0","SATNPRO1964","30.996","0.43412","5"],
    [62555,"HCEP03730563","2025-10-10 00:15:00","11.8338","3.52438","23.683","1.575","7.4","0.993","2.52","0.14","0.26","30.5274","4.78416","17.64","0","SATNPRO1964","31.316","0.43862","5"],
    [62556,"HCEP03730563","2025-10-10 00:30:00","11.8327","3.52412","23.699","1.602","7.4","0.976","2.484","0.18","0.13","30.5259","4.78396","17.95","0","SATNPRO1964","31.208","0.4371","5"],
    [62557,"HCEP03730563","2025-10-10 00:45:00","11.8307","3.52389","23.726","1.6","7.4","1.217","2.963","0.24","0.19","30.5253","4.78391","17.92","0","SATNPRO1964","31.076","0.4353","5"],
    [62558,"HCEP03730563","2025-10-10 01:00:00","11.8285","3.52347","23.775","1.561","7.4","1.104","3.096","0.22","0.14","30.5229","4.78361","17.48","0","SATNPRO1964","30.972","0.43384","5"],
    [62559,"HCEP03730563","2025-10-10 01:15:00","11.8281","3.52332","23.842","1.538","7.4","1.224","3.129","0.35","0.24","30.5218","4.78347","17.23","0","SATNPRO1964","30.974","0.43386","5"],
    [62560,"HCEP03730563","2025-10-10 01:30:00","11.8275","3.52333","23.983","1.533","7.4","1.09","2.927","0.17","0.09","30.5224","4.78357","17.17","0","SATNPRO1964","30.752","0.43076","5"],
    [62561,"HCEP03730563","2025-10-10 01:45:00","11.8286","3.52365","24.17","1.518","7.4","1.081","3.184","0.09","0.21","30.5245","4.78385","17","0","SATNPRO1964","30.622","0.42894","5"],
    [62562,"HCEP03730563","2025-10-10 02:00:00","11.8329","3.52437","24.433","1.529","7.4","1.032","2.902","0.18","0.25","30.5277","4.78426","17.13","0","SATNPRO1964","30.874","0.43244","5"],
    [62563,"HCEP03730563","2025-10-10 02:15:00","11.8366","3.52562","24.616","1.57","7.4","1.018","2.724","0.12","0.21","30.5366","4.78548","17.59","0","SATNPRO1964","31.078","0.43534","5"],
    [62564,"HCEP03730563","2025-10-10 02:30:00","11.8434","3.52609","24.814","1.634","7.41","1.024","2.797","0.19","0.16","30.5355","4.78524","18.31","0","SATNPRO1964","31.562","0.44204","5"],
    [62565,"HCEP03730563","2025-10-10 02:45:00","11.8477","3.527","25.006","1.66","7.41","1.058","2.602","0.38","0.16","30.5407","4.78592","18.6","0","SATNPRO1964","31.448","0.44048","5"],
    [62566,"HCEP03730563","2025-10-10 03:00:00","11.8486","3.52717","25.191","1.678","7.41","1.009","2.649","0.3","0.25","30.5416","4.78604","18.8","0","SATNPRO1964","31.628","0.44302","5"],
    [62567,"HCEP03730563","2025-10-10 03:15:00","11.8491","3.5271","25.425","1.683","7.41","0.9","2.506","0.12","0.19","30.5403","4.78587","18.86","0","SATNPRO1964","31.701999999999998","0.44404","5"],
    [62568,"HCEP03730563","2025-10-10 03:30:00","11.8469","3.52675","25.604","1.692","7.41","0.998","2.717","0.19","0.2","30.5387","4.78567","18.96","0","SATNPRO1964","31.578","0.44232","5"],
    [62569,"HCEP03730563","2025-10-10 03:45:00","11.8441","3.52614","25.824","1.671","7.41","1.13","2.896","0.15","0.21","30.535","4.78521","18.73","0","SATNPRO1964","31.564","0.4421","5"],
    [62570,"HCEP03730563","2025-10-10 04:00:00","11.8436","3.52593","25.947","1.655","7.41","1.514","5.593","0.35","1.45","30.5334","4.78499","18.55","0","SATNPRO1964","31.482","0.4409","5"],
    [62571,"HCEP03730563","2025-10-10 04:15:00","11.8449","3.526","26.166","1.662","7.41","1.064","3.627","0.16","0.57","30.533","4.78493","18.62","0","SATNPRO1964","31.642","0.44318","5"],
    [62572,"HCEP03730563","2025-10-10 04:30:00","11.8449","3.52611","26.425","1.681","7.41","1.087","3.693","0.15","0.37","30.5338","4.78507","18.83","0","SATNPRO1964","31.524","0.44154","5"],
    [62573,"HCEP03730563","2025-10-10 04:45:00","11.8476","3.52671","26.636","1.686","7.41","1.036","2.678","0.24","0.24","30.5373","4.78554","18.89","0","SATNPRO1964","31.46","0.44068","5"],
    [62574,"HCEP03730563","2025-10-10 05:00:00","11.8492","3.52701","26.844","1.691","7.41","1.17","2.74","0.35","0.2","30.5388","4.78573","18.96","0","SATNPRO1964","31.47","0.4408","5"],
    [62575,"HCEP03730563","2025-10-10 05:15:00","11.8501","3.5272","27.017","1.681","7.41","0.965","2.889","0.13","0.2","30.5399","4.78588","18.84","0","SATNPRO1964","31.5","0.4412","5"],
    [62576,"HCEP03730563","2025-10-10 05:30:00","11.8506","3.52734","27.173","1.679","7.41","1.03","2.953","0.27","0.22","30.5408","4.78601","18.82","0","SATNPRO1964","31.56","0.44208","5"],
    [62577,"HCEP03730563","2025-10-10 05:45:00","11.8516","3.52756","27.341","1.684","7.41","0.975","2.764","0.1","0.16","30.5419","4.78617","18.87","0","SATNPRO1964","31.622","0.44294","5"],
    [62578,"HCEP03730563","2025-10-10 06:00:00","11.8519","3.52769","27.488","1.671","7.41","1.13","3.187","0.25","0.21","30.5429","4.78631","18.73","0","SATNPRO1964","31.66","0.44348","5"],
    [62579,"HCEP03730563","2025-10-10 06:15:00","11.8521","3.52776","27.564","1.651","7.41","1.218","3.792","0.25","0.25","30.5433","4.78637","18.5","0","SATNPRO1964","31.396","0.43976","5"],
    [62580,"HCEP03730563","2025-10-10 06:30:00","11.855","3.52843","27.629","1.642","7.41","1.146","3.367","0.38","0.82","30.5474","4.78691","18.41","0","SATNPRO1964","31.648","0.4433","5"],
    [62581,"HCEP03730563","2025-10-10 06:45:00","11.8559","3.52852","27.749","1.656","7.41","1.092","2.915","0.14","0.43","30.5475","4.78691","18.57","0","SATNPRO1964","32.088","0.44942","5"],
    [62582,"HCEP03730563","2025-10-10 07:00:00","11.8553","3.52856","27.781","1.659","7.41","1.053","3.022","0.18","0.39","30.5483","4.78703","18.6","0","SATNPRO1964","31.616","0.44284","5"],
    [62583,"HCEP03730563","2025-10-10 07:15:00","11.8553","3.52862","27.806","1.645","7.41","1.101","3.007","0.18","0.26","30.5489","4.78713","18.44","0","SATNPRO1964","31.478","0.4409","5"],
    [62584,"HCEP03730563","2025-10-10 07:30:00","11.8555","3.52869","27.785","1.633","7.41","1.187","3.382","0.23","0.62","30.5494","4.7872","18.3","0","SATNPRO1964","31.418","0.44006","5"],
    [62585,"HCEP03730563","2025-10-10 07:45:00","11.8557","3.52888","27.805","1.622","7.41","1.01","2.871","0.19","0.31","30.551","4.78742","18.18","0","SATNPRO1964","31.63","0.44306","5"],
    [62586,"HCEP03730563","2025-10-10 08:00:00","11.8556","3.52882","27.79","1.617","7.41","1.086","2.889","0.24","0.27","30.5506","4.78736","18.13","0","SATNPRO1964","31.362000000000002","0.4393","5"],
    [62587,"HCEP03730563","2025-10-10 08:15:00","11.8559","3.52901","27.761","1.612","7.41","0.998","2.812","0.22","0.47","30.5521","4.78757","18.07","0","SATNPRO1964","31.524","0.44154","5"],
    [62588,"HCEP03730563","2025-10-10 08:30:00","11.8553","3.52879","27.71","1.602","7.41","0.943","2.856","0.16","0.23","30.5506","4.78736","17.96","0","SATNPRO1964","31.483999999999998","0.44098","5"],
    [62589,"HCEP03730563","2025-10-10 08:45:00","11.8551","3.52873","27.68","1.604","7.41","1.056","2.641","0.23","0.23","30.5502","4.7873","17.98","0","SATNPRO1964","30.832","0.43184","5"],
    [62590,"HCEP03730563","2025-10-10 09:00:00","11.8539","3.52828","27.621","1.614","7.41","0.918","2.623","0.16","0.14","30.5469","4.78685","18.09","0","SATNPRO1964","31.72","0.44426","5"],
    [62591,"HCEP03730563","2025-10-10 09:15:00","11.8546","3.52857","27.531","1.619","7.41","1.029","2.699","0.15","0.15","30.5491","4.78715","18.15","0","SATNPRO1964","31.514","0.44142","5"],
    [62592,"HCEP03730563","2025-10-10 09:30:00","11.854","3.52859","27.457","1.601","7.41","1.036","3.033","0.3","0.22","30.5498","4.78725","17.95","0","SATNPRO1964","31.396","0.43976","5"],
    [62593,"HCEP03730563","2025-10-10 09:45:00","11.8538","3.52834","27.37","1.588","7.41","0.959","2.693","0.13","0.16","30.5477","4.78695","17.8","0","SATNPRO1964","31.544","0.44186","5"],
    [62594,"HCEP03730563","2025-10-10 10:00:00","11.8544","3.52866","27.277","1.586","7.41","1.312","2.837","0.41","0.15","30.5503","4.7873","17.77","0","SATNPRO1964","31.29","0.43828","5"],
    [62595,"HCEP03730563","2025-10-10 10:15:00","11.8546","3.52901","27.185","1.571","7.41","1.005","2.802","0.18","0.12","30.5535","4.78775","17.61","0","SATNPRO1964","31.098","0.4356","5"],
    [62596,"HCEP03730563","2025-10-10 10:30:00","11.8553","3.52917","27.065","1.551","7.4","1.104","3.102","0.14","0.27","30.5545","4.78788","17.39","0","SATNPRO1964","31.34","0.43896","5"],
    [62597,"HCEP03730563","2025-10-10 10:45:00","11.8544","3.52905","26.969","1.536","7.4","1.12","3.291","0.27","0.35","30.5541","4.78782","17.22","0","SATNPRO1964","31.082","0.43538","5"],
    [62598,"HCEP03730563","2025-10-10 11:00:00","11.8537","3.52903","26.869","1.51","7.4","1.178","3.52","0.31","0.48","30.5545","4.78789","16.92","0","SATNPRO1964","30.83","0.43186","5"],
    [62599,"HCEP03730563","2025-10-10 11:15:00","11.8531","3.52892","26.781","1.485","7.4","1.312","4.23","0.24","0.46","30.554","4.78782","16.64","0","SATNPRO1964","30.826","0.4318","5"],
    [62600,"HCEP03730563","2025-10-10 11:30:00","11.852","3.52879","26.706","1.46","7.4","1.1","3.38","0.17","0.22","30.5536","4.78778","16.37","0","SATNPRO1964","30.733999999999998","0.43048","5"],
    [62601,"HCEP03730563","2025-10-10 11:45:00","11.8493","3.52845","26.62","1.432","7.39","1.108","4.206","0.11","0.68","30.5527","4.78769","16.05","0","SATNPRO1964","30.572","0.4282","5"],
    [62602,"HCEP03730563","2025-10-10 12:00:00","11.8475","3.52819","26.499","1.403","7.39","1.026","3.673","0.18","0.54","30.5517","4.78756","15.72","0","SATNPRO1964","30.53","0.42766","5"],
    [62603,"HCEP03730563","2025-10-10 12:15:00","11.8456","3.52782","26.449","1.398","7.39","1.07","3.697","0.14","1.09","30.5497","4.7873","15.67","0","SATNPRO1964","30.674","0.42968","5"],
    [62604,"HCEP03730563","2025-10-10 12:30:00","11.8445","3.52759","26.405","1.388","7.39","1.073","3.751","0.18","0.29","30.5485","4.78714","15.56","0","SATNPRO1964","30.5","0.4272","5"],
    [62605,"HCEP03730563","2025-10-10 12:45:00","11.8434","3.52731","26.372","1.373","7.39","1.111","3.484","0.2","0.22","30.5466","4.78689","15.38","0","SATNPRO1964","30.406","0.42588","5"],
    [62606,"HCEP03730563","2025-10-10 13:00:00","11.8419","3.52674","26.349","1.373","7.39","1.076","3.487","0.32","0.43","30.5424","4.78631","15.39","0","SATNPRO1964","30.694","0.42994","5"],
    [62607,"HCEP03730563","2025-10-10 13:15:00","11.8391","3.52605","26.366","1.405","7.39","1.235","3.366","0.34","0.35","30.5381","4.78575","15.74","0","SATNPRO1964","31.07","0.4352","5"],
    [62608,"HCEP03730563","2025-10-10 13:30:00","11.8386","3.5263","26.404","1.43","7.39","0.947","2.768","0.17","0.1","30.5409","4.78615","16.03","0","SATNPRO1964","31.056","0.435","5"],
    [62609,"HCEP03730563","2025-10-10 13:45:00","11.8359","3.52473","26.462","1.445","7.39","0.824","2.258","0.11","0.07","30.5279","4.78436","16.19","0","SATNPRO1964","31.562","0.44208","5"],
    [62610,"HCEP03730563","2025-10-10 14:00:00","11.8311","3.52352","26.532","1.499","7.4","0.888","2.284","0.19","0.12","30.5202","4.78335","16.79","0","SATNPRO1964","30.971999999999998","0.43382","5"],
    [62611,"HCEP03730563","2025-10-10 14:15:00","11.8278","3.52285","26.604","1.489","7.39","0.753","2.009","0.14","0.23","30.5165","4.78287","16.68","0","SATNPRO1964","30.772","0.431","5"],
    [62612,"HCEP03730563","2025-10-10 14:30:00","11.84","3.52656","26.694","1.441","7.39","1.062","2.999","0.21","0.18","30.5421","4.78631","16.15","0","SATNPRO1964","30.855999999999998","0.43218","5"],
    [62613,"HCEP03730563","2025-10-10 14:45:00","11.841","3.52688","26.784","1.361","7.39","1.17","3.412","0.3","0.26","30.5444","4.78663","15.25","0","SATNPRO1964","30.786","0.43122","5"],
    [62614,"HCEP03730563","2025-10-10 15:00:00","11.8408","3.5269","26.897","1.322","7.38","0.978","3.127","0.17","0.18","30.5446","4.78668","14.82","0","SATNPRO1964","30.524","0.42754","5"],
    [62615,"HCEP03730563","2025-10-10 15:15:00","11.8416","3.52716","27.041","1.319","7.38","1.173","3.448","0.33","0.37","30.5465","4.78693","14.78","0","SATNPRO1964","30.198","0.42296","5"],
    [62616,"HCEP03730563","2025-10-10 15:30:00","11.8406","3.52676","27.145","1.337","7.38","0.981","2.94","0.18","0.23","30.5434","4.78651","14.98","0","SATNPRO1964","30.44","0.42636","5"],
    [62617,"HCEP03730563","2025-10-10 15:45:00","11.8412","3.52693","27.255","1.371","7.39","1.046","3.166","0.18","0.19","30.5444","4.78666","15.36","0","SATNPRO1964","30.63","0.42906","5"],
    [62618,"HCEP03730563","2025-10-10 16:00:00","11.8404","3.52658","27.343","1.375","7.39","0.955","2.99","0.17","0.26","30.5417","4.78629","15.41","0","SATNPRO1964","30.77","0.43098","5"],
    [62619,"HCEP03730563","2025-10-10 16:15:00","11.8406","3.52695","27.443","1.377","7.38","1.061","3.243","0.21","0.15","30.5451","4.78678","15.43","0","SATNPRO1964","30.188","0.42284","5"],
    [62620,"HCEP03730563","2025-10-10 16:30:00","11.8402","3.52702","27.542","1.329","7.38","1.349","3.396","0.85","0.28","30.546","4.78691","14.89","0","SATNPRO1964","29.916","0.41898","5"],
    [62621,"HCEP03730563","2025-10-10 16:45:00","11.8414","3.52705","27.633","1.317","7.38","1.101","3.228","0.27","0.24","30.5453","4.7868","14.76","0","SATNPRO1964","30.224","0.42336","5"],
    [62622,"HCEP03730563","2025-10-10 17:00:00","11.8415","3.52721","27.708","1.336","7.38","1.154","3.336","0.26","0.25","30.5467","4.787","14.98","0","SATNPRO1964","29.836000000000002","0.41794","5"],
    [62623,"HCEP03730563","2025-10-10 17:15:00","11.8427","3.52728","27.775","1.322","7.38","1.162","3.396","0.22","0.41","30.5464","4.78694","14.82","0","SATNPRO1964","30.32","0.42472","5"],
    [62624,"HCEP03730563","2025-10-10 17:30:00","11.8428","3.5274","27.848","1.364","7.38","1.218","3.276","0.7","0.36","30.5474","4.7871","15.28","0","SATNPRO1964","30.26","0.42384","5"],
    [62625,"HCEP03730563","2025-10-10 17:45:00","11.8442","3.52766","27.904","1.342","7.38","1.02","3.114","0.21","0.14","30.5488","4.78727","15.04","0","SATNPRO1964","30.18","0.42272","5"],
    [62626,"HCEP03730563","2025-10-10 18:00:00","11.8446","3.52769","27.913","1.341","7.38","1.186","3.682","0.16","0.22","30.5487","4.78726","15.03","0","SATNPRO1964","30.272","0.42402","5"],
    [62627,"HCEP03730563","2025-10-10 18:15:00","11.8451","3.52785","27.914","1.347","7.38","1.179","3.911","0.18","0.46","30.5499","4.78741","15.1","0","SATNPRO1964","30.404","0.4259","5"],
    [62628,"HCEP03730563","2025-10-10 18:30:00","11.8462","3.5279","27.884","1.35","7.38","1.109","3.537","0.16","0.19","30.5494","4.78733","15.13","0","SATNPRO1964","30.626","0.42902","5"],
    [62629,"HCEP03730563","2025-10-10 18:45:00","11.8464","3.5281","27.84","1.363","7.38","1.223","3.607","0.4","0.24","30.5512","4.78758","15.27","0","SATNPRO1964","30.364","0.42528","5"],
    [62630,"HCEP03730563","2025-10-10 19:00:00","11.847","3.52819","27.752","1.349","7.38","1.133","3.814","0.39","0.34","30.5517","4.78763","15.12","0","SATNPRO1964","30.268","0.42398","5"],
    [62631,"HCEP03730563","2025-10-10 19:15:00","11.8473","3.52823","27.651","1.343","7.38","1.083","3.611","0.29","0.09","30.5519","4.78765","15.05","0","SATNPRO1964","30.226","0.42336","5"],
    [62632,"HCEP03730563","2025-10-10 19:30:00","11.8477","3.52825","27.569","1.343","7.38","1.025","3.569","0.13","0.23","30.5517","4.78761","15.05","0","SATNPRO1964","30.516000000000002","0.4274","5"],
    [62633,"HCEP03730563","2025-10-10 19:45:00","11.8474","3.5282","27.467","1.343","7.38","1.251","3.609","0.32","0.36","30.5515","4.78759","15.05","0","SATNPRO1964","30.312","0.42454","5"],
    [62634,"HCEP03730563","2025-10-10 20:00:00","11.8482","3.52818","27.323","1.348","7.38","0.969","3.296","0.14","0.19","30.5507","4.78745","15.11","0","SATNPRO1964","30.56","0.42808","5"],
    [62635,"HCEP03730563","2025-10-10 20:15:00","11.8476","3.52804","27.167","1.36","7.38","1.01","3.225","0.23","0.22","30.5499","4.78734","15.24","0","SATNPRO1964","30.514","0.4274","5"],
    [62636,"HCEP03730563","2025-10-10 20:30:00","11.8462","3.52782","26.971","1.354","7.38","0.967","3.253","0.2","0.18","30.549","4.78722","15.18","0","SATNPRO1964","30.294","0.42432","5"],
    [62637,"HCEP03730563","2025-10-10 20:45:00","11.8458","3.52759","26.77","1.349","7.38","1.064","3.134","0.27","0.1","30.5472","4.78696","15.12","0","SATNPRO1964","30.212","0.42314","5"],
    [62638,"HCEP03730563","2025-10-10 21:00:00","11.8432","3.5269","26.568","1.352","7.38","0.998","3.012","0.23","0.14","30.5427","4.78635","15.15","0","SATNPRO1964","30.406000000000002","0.42588","5"],
    [62639,"HCEP03730563","2025-10-10 21:15:00","11.8344","3.52482","26.364","1.358","7.38","0.945","2.903","0.16","0.17","30.5301","4.78468","15.21","0","SATNPRO1964","30.066","0.42112","5"],
    [62640,"HCEP03730563","2025-10-10 21:30:00","11.8297","3.52406","26.128","1.334","7.38","1.011","3.053","0.24","0.13","30.5267","4.78427","14.94","0","SATNPRO1964","29.906","0.41888","5"],
    [62641,"HCEP03730563","2025-10-10 21:45:00","11.8317","3.52436","25.897","1.314","7.38","1.053","2.899","0.18","0.16","30.5281","4.78442","14.72","0","SATNPRO1964","29.992","0.4201","5"],
    [62642,"HCEP03730563","2025-10-10 22:00:00","11.8293","3.5238","25.657","1.311","7.38","0.959","2.871","0.31","0.12","30.5247","4.78396","14.69","0","SATNPRO1964","30.024","0.42052","5"],
    [62643,"HCEP03730563","2025-10-10 22:15:00","11.8271","3.52334","25.405","1.299","7.38","1.044","2.955","0.27","0.13","30.5222","4.78362","14.55","0","SATNPRO1964","29.458000000000002","0.4126","5"],
    [62644,"HCEP03730563","2025-10-10 22:30:00","11.8252","3.52293","25.167","1.277","7.38","0.937","2.908","0.16","0.06","30.5199","4.78331","14.31","0","SATNPRO1964","29.522","0.4135","5"],
    [62645,"HCEP03730563","2025-10-10 22:45:00","11.8233","3.52225","24.924","1.268","7.38","0.807","3.022","0.12","0.11","30.5151","4.78264","14.2","0","SATNPRO1964","29.664","0.41552","5"],
    [62646,"HCEP03730563","2025-10-10 23:00:00","11.8264","3.52329","24.684","1.255","7.37","1.087","3.743","0.25","0.13","30.5226","4.78365","14.05","0","SATNPRO1964","29.388","0.4116","5"],
    [62647,"HCEP03730563","2025-10-10 23:15:00","11.8322","3.52456","24.485","1.24","7.37","1.227","3.833","0.63","0.62","30.5302","4.78462","13.9","0","SATNPRO1964","29.412","0.41194","5"],
    [62648,"HCEP03730563","2025-10-10 23:30:00","11.8344","3.52494","24.274","1.24","7.37","1.256","3.669","1.37","0.15","30.5321","4.78485","13.89","0","SATNPRO1964","29.57","0.41416","5"],
    [62649,"HCEP03730563","2025-10-10 23:45:00","11.8342","3.52456","24.105","1.27","7.38","0.896","3.119","0.23","0.15","30.5287","4.78436","14.22","0","SATNPRO1964","30.48","0.42692","5"],
    [62650,"HCEP03730563","2025-10-11 00:00:00","11.8361","3.52514","23.967","1.313","7.38","1.014","3.428","0.28","0.17","30.5327","4.7849","14.71","0","SATNPRO1964","30.445999999999998","0.42646","5"],
    [62651,"HCEP03730563","2025-10-11 00:15:00","11.8374","3.52554","23.847","1.326","7.38","0.92","3.245","0.15","0.12","30.5355","4.78527","14.85","0","SATNPRO1964","30.343999999999998","0.42502","5"],
    [62652,"HCEP03730563","2025-10-11 00:30:00","11.8391","3.52575","23.759","1.337","7.38","0.747","2.89","0.15","0.07","30.5362","4.78534","14.98","0","SATNPRO1964","30.37","0.4254","5"],
    [62653,"HCEP03730563","2025-10-11 00:45:00","11.8416","3.52629","23.708","1.365","7.38","0.864","3.084","0.15","0.49","30.5393","4.78573","15.3","0","SATNPRO1964","30.514","0.42742","5"],
    [62654,"HCEP03730563","2025-10-11 01:00:00","11.842","3.52647","23.705","1.369","7.38","0.849","3.271","0.15","0.15","30.5408","4.78594","15.34","0","SATNPRO1964","30.338","0.42496","5"],
    [62655,"HCEP03730563","2025-10-11 01:15:00","11.8425","3.52664","23.693","1.361","7.38","0.839","3.081","0.19","0.27","30.542","4.78611","15.25","0","SATNPRO1964","30.692","0.4299","5"],
    [62656,"HCEP03730563","2025-10-11 01:30:00","11.8453","3.52675","23.728","1.38","7.39","0.804","2.753","0.2","0.1","30.5408","4.78589","15.46","0","SATNPRO1964","31.066","0.43514","5"],
    [62657,"HCEP03730563","2025-10-11 01:45:00","11.8446","3.52653","23.762","1.429","7.39","0.767","2.773","0.13","0.09","30.5392","4.78568","16.01","0","SATNPRO1964","31.016","0.43444","5"],
    [62658,"HCEP03730563","2025-10-11 02:00:00","11.8472","3.52637","23.817","1.469","7.39","0.836","2.808","0.24","0.26","30.5355","4.78513","16.46","0","SATNPRO1964","31.852","0.44612","5"],
    [62659,"HCEP03730563","2025-10-11 02:15:00","11.84","3.52576","23.904","1.494","7.39","0.836","3.067","0.13","0.17","30.5356","4.78524","16.75","0","SATNPRO1964","30.648","0.42928","5"],
    [62660,"HCEP03730563","2025-10-11 02:30:00","11.84","3.52558","24.043","1.404","7.39","0.915","3.226","0.24","0.19","30.5338","4.785","15.73","0","SATNPRO1964","30.362000000000002","0.42528","5"],
    [62661,"HCEP03730563","2025-10-11 02:45:00","11.8383","3.52544","24.211","1.384","7.39","0.915","3.402","0.13","0.14","30.5338","4.78503","15.51","0","SATNPRO1964","29.828","0.41782","5"],
    [62662,"HCEP03730563","2025-10-11 03:00:00","11.8386","3.52559","24.392","1.347","7.38","0.907","3.597","0.15","0.27","30.5348","4.78518","15.1","0","SATNPRO1964","30.098","0.4216","5"],
    [62663,"HCEP03730563","2025-10-11 03:15:00","11.8424","3.52585","24.564","1.373","7.39","0.88","3.196","0.09","0.18","30.5341","4.78503","15.39","0","SATNPRO1964","30.654","0.42936","5"],
    [62664,"HCEP03730563","2025-10-11 03:30:00","11.8425","3.52575","24.744","1.437","7.39","1.065","3.138","0.49","0.24","30.5331","4.7849","16.1","0","SATNPRO1964","30.374","0.42542","5"],
    [62665,"HCEP03730563","2025-10-11 03:45:00","11.841","3.52556","24.926","1.449","7.39","0.966","3.507","0.15","0.23","30.5324","4.78483","16.24","0","SATNPRO1964","30.386","0.4256","5"],
    [62666,"HCEP03730563","2025-10-11 04:00:00","11.8396","3.52531","25.138","1.431","7.39","0.972","3.478","0.19","0.19","30.531","4.78467","16.03","0","SATNPRO1964","30.496","0.42714","5"],
    [62667,"HCEP03730563","2025-10-11 04:15:00","11.8392","3.52498","25.387","1.431","7.39","0.905","3.003","0.13","0.23","30.5281","4.78428","16.04","0","SATNPRO1964","30.652","0.42934","5"],
    [62668,"HCEP03730563","2025-10-11 04:30:00","11.8415","3.52468","25.642","1.451","7.39","0.953","3.415","0.18","0.59","30.5232","4.78357","16.26","0","SATNPRO1964","31.25","0.43774","5"],
    [62669,"HCEP03730563","2025-10-11 04:45:00","11.8392","3.52433","25.701","1.513","7.39","0.895","2.814","0.23","0.31","30.5217","4.78339","16.95","0","SATNPRO1964","31.067999999999998","0.43518","5"],
    [62670,"HCEP03730563","2025-10-11 05:00:00","11.8365","3.52396","25.987","1.493","7.39","1.128","3.41","0.37","0.3","30.5203","4.78325","16.73","0","SATNPRO1964","30.246","0.42366","5"],
    [62671,"HCEP03730563","2025-10-11 05:15:00","11.8351","3.52341","26.212","1.464","7.39","1.447","3.79","0.45","0.36","30.516","4.78268","16.4","0","SATNPRO1964","30.516","0.42744","5"],
    [62672,"HCEP03730563","2025-10-11 05:30:00","11.8314","3.52256","26.46","1.455","7.39","1.064","3.49","0.2","0.28","30.5107","4.782","16.29","0","SATNPRO1964","30.732","0.43044","5"],
    [62673,"HCEP03730563","2025-10-11 05:45:00","11.8368","3.52403","26.756","1.448","7.39","1.131","3.545","0.21","0.16","30.5204","4.7833","16.22","0","SATNPRO1964","30.484","0.42694","5"],
    [62674,"HCEP03730563","2025-10-11 06:00:00","11.8388","3.52485","26.807","1.435","7.39","1.324","3.914","0.31","0.3","30.5266","4.78416","16.08","0","SATNPRO1964","30.416","0.42604","5"],
    [62675,"HCEP03730563","2025-10-11 06:15:00","11.841","3.52536","26.983","1.413","7.39","1.521","3.848","0.47","0.32","30.5296","4.78456","15.83","0","SATNPRO1964","30.184","0.42276","5"],
    [62676,"HCEP03730563","2025-10-11 06:30:00","11.8412","3.52541","27.155","1.403","7.39","1.207","4.256","0.22","0.41","30.53","4.78461","15.72","0","SATNPRO1964","30.576","0.42824","5"],
    [62677,"HCEP03730563","2025-10-11 06:45:00","11.8411","3.5255","27.296","1.392","7.39","1.309","4.292","0.26","0.29","30.5308","4.78474","15.59","0","SATNPRO1964","31.227999999999998","0.43736","5"],
    [62678,"HCEP03730563","2025-10-11 07:00:00","11.8412","3.52561","27.432","1.382","7.39","1.232","4.6","0.21","2.43","30.5318","4.78489","15.48","0","SATNPRO1964","30.172","0.42258","5"],
    [62679,"HCEP03730563","2025-10-11 07:15:00","11.8409","3.52552","27.557","1.382","7.39","1.17","3.447","0.24","0.43","30.531","4.78479","15.48","0","SATNPRO1964","30.514","0.4274","5"],
    [62680,"HCEP03730563","2025-10-11 07:30:00","11.841","3.52539","27.673","1.393","7.39","1.027","3.171","0.19","0.27","30.5297","4.7846","15.6","0","SATNPRO1964","30.82","0.4317","5"],
    [62681,"HCEP03730563","2025-10-11 07:45:00","11.8411","3.52553","27.735","1.403","7.39","1.082","3.211","0.21","0.28","30.5309","4.78478","15.71","0","SATNPRO1964","30.536","0.4277","5"],
    [62682,"HCEP03730563","2025-10-11 08:00:00","11.8417","3.52562","27.773","1.393","7.39","1.173","3.076","0.46","0.26","30.5313","4.78482","15.61","0","SATNPRO1964","30.486","0.427","5"],
    [62683,"HCEP03730563","2025-10-11 08:15:00","11.8418","3.52563","27.782","1.387","7.39","1.182","3.108","0.23","0.19","30.5312","4.78482","15.55","0","SATNPRO1964","30.556","0.428","5"],
    [62684,"HCEP03730563","2025-10-11 08:30:00","11.8422","3.52563","27.796","1.384","7.39","1.345","24.997","0.2","12.26","30.531","4.78477","15.51","0","SATNPRO1964","30.580000000000002","0.4283","5"],
    [62685,"HCEP03730563","2025-10-11 08:45:00","11.842","3.52556","27.84","1.385","7.39","1.284","3.566","0.46","0.3","30.5304","4.7847","15.52","0","SATNPRO1964","31.082","0.43536","5"],
    [62686,"HCEP03730563","2025-10-11 09:00:00","11.8416","3.52544","27.816","1.396","7.39","1.448","4.546","0.5","1.66","30.5296","4.7846","15.64","0","SATNPRO1964","30.654","0.42936","5"],
    [62687,"HCEP03730563","2025-10-11 09:15:00","11.8412","3.52511","27.804","1.413","7.39","1.192","3.233","0.26","0.35","30.5268","4.7842","15.83","0","SATNPRO1964","30.918","0.43304","5"],
    [62688,"HCEP03730563","2025-10-11 09:30:00","11.8431","3.52516","27.779","1.439","7.39","1.455","3.055","0.48","0.31","30.5256","4.78401","16.13","0","SATNPRO1964","30.938","0.43332","5"],
    [62689,"HCEP03730563","2025-10-11 09:45:00","11.8416","3.52475","27.741","1.46","7.39","1.244","2.563","0.29","0.3","30.5229","4.78365","16.36","0","SATNPRO1964","31.11","0.43576","5"],
    [62690,"HCEP03730563","2025-10-11 10:00:00","11.845","3.52533","27.712","1.473","7.39","1.228","2.666","0.25","0.2","30.5257","4.78399","16.5","0","SATNPRO1964","30.922","0.43312","5"],
    [62691,"HCEP03730563","2025-10-11 10:15:00","11.844","3.52534","27.641","1.472","7.39","1.179","3.048","0.21","0.37","30.5268","4.78415","16.49","0","SATNPRO1964","30.913999999999998","0.43306","5"],
    [62692,"HCEP03730563","2025-10-11 10:30:00","11.8422","3.52538","27.568","1.442","7.39","1.225","3.138","0.34","0.25","30.5287","4.78444","16.16","0","SATNPRO1964","30.566","0.42812","5"],
    [62693,"HCEP03730563","2025-10-11 10:45:00","11.8422","3.52533","27.503","1.417","7.39","1.137","2.816","0.24","0.12","30.5282","4.78436","15.87","0","SATNPRO1964","30.53","0.4276","5"],
    [62694,"HCEP03730563","2025-10-11 11:00:00","11.841","3.52526","27.43","1.41","7.39","0.97","2.621","0.18","0.12","30.5284","4.78442","15.8","0","SATNPRO1964","30.727999999999998","0.4304","5"],
    [62695,"HCEP03730563","2025-10-11 11:15:00","11.8407","3.52533","27.349","1.407","7.39","1.147","2.758","0.78","0.11","30.5294","4.78455","15.76","0","SATNPRO1964","30.648","0.42922","5"],
    [62696,"HCEP03730563","2025-10-11 11:30:00","11.8393","3.52538","27.263","1.366","7.38","1.067","3.365","0.21","0.21","30.5311","4.78481","15.31","0","SATNPRO1964","29.742","0.41656","5"],
    [62697,"HCEP03730563","2025-10-11 11:45:00","11.8383","3.52538","27.174","1.28","7.38","1.139","3.998","0.26","0.61","30.532","4.78494","14.34","0","SATNPRO1964","29.674","0.41564","5"],
    [62698,"HCEP03730563","2025-10-11 12:00:00","11.8384","3.52553","27.084","1.227","7.37","1.138","3.89","0.16","0.17","30.5334","4.78513","13.75","0","SATNPRO1964","29.528","0.4136","5"],
    [62699,"HCEP03730563","2025-10-11 12:15:00","11.8386","3.52592","26.953","1.194","7.37","1.213","4.34","0.36","0.45","30.537","4.78563","13.37","0","SATNPRO1964","29.442","0.41238","5"],
    [62700,"HCEP03730563","2025-10-11 12:30:00","11.8376","3.52617","26.866","1.149","7.37","1.07","3.904","0.18","0.28","30.5402","4.78609","12.87","0","SATNPRO1964","29.074","0.40722","5"],
    [62701,"HCEP03730563","2025-10-11 12:45:00","11.8372","3.52606","26.761","1.091","7.36","0.909","3.726","0.11","0.19","30.5396","4.78601","12.23","0","SATNPRO1964","29.11","0.40772","5"],
    [62702,"HCEP03730563","2025-10-11 13:00:00","11.8361","3.52584","26.702","1.086","7.36","0.919","3.787","0.21","0.19","30.5384","4.78585","12.17","0","SATNPRO1964","29.176","0.40866","5"],
    [62703,"HCEP03730563","2025-10-11 13:15:00","11.8358","3.52577","26.647","1.082","7.36","0.919","3.76","0.16","0.2","30.5379","4.78579","12.13","0","SATNPRO1964","29.114","0.40778","5"],
    [62704,"HCEP03730563","2025-10-11 13:30:00","11.8355","3.52569","26.613","1.079","7.36","0.849","3.712","0.12","0.3","30.5375","4.78572","12.09","0","SATNPRO1964","29.12","0.40786","5"],
    [62705,"HCEP03730563","2025-10-11 13:45:00","11.835","3.52565","26.617","1.075","7.36","1.014","4.217","0.28","0.51","30.5375","4.78573","12.05","0","SATNPRO1964","28.912","0.40492","5"],
    [62706,"HCEP03730563","2025-10-11 14:00:00","11.8339","3.52523","26.611","1.065","7.36","0.898","3.549","0.17","0.22","30.5344","4.78531","11.94","0","SATNPRO1964","29.384","0.41156","5"],
    [62707,"HCEP03730563","2025-10-11 14:15:00","11.8323","3.52473","26.63","1.08","7.36","0.872","3.49","0.13","0.33","30.5308","4.78483","12.1","0","SATNPRO1964","29.114","0.40782","5"],
    [62708,"HCEP03730563","2025-10-11 14:30:00","11.8327","3.52489","26.673","1.097","7.36","0.868","3.508","0.15","0.2","30.5321","4.78501","12.28","0","SATNPRO1964","29.384","0.41158","5"],
    [62709,"HCEP03730563","2025-10-11 14:45:00","11.8328","3.52492","26.718","1.098","7.36","0.911","3.483","0.15","0.46","30.5322","4.78503","12.3","0","SATNPRO1964","29.406","0.41186","5"],
    [62710,"HCEP03730563","2025-10-11 15:00:00","11.8333","3.52505","26.774","1.098","7.36","0.921","3.119","0.2","0.17","30.5331","4.78515","12.3","0","SATNPRO1964","29.614","0.4148","5"],
    [62711,"HCEP03730563","2025-10-11 15:15:00","11.8335","3.52506","26.842","1.1","7.36","0.899","3.392","0.17","0.26","30.533","4.78513","12.33","0","SATNPRO1964","29.349999999999998","0.41106","5"],
    [62712,"HCEP03730563","2025-10-11 15:30:00","11.8329","3.52484","26.912","1.108","7.36","0.855","3.396","0.24","0.31","30.5313","4.7849","12.42","0","SATNPRO1964","29.294","0.41034","5"],
    [62713,"HCEP03730563","2025-10-11 15:45:00","11.8337","3.5253","26.971","1.109","7.36","0.979","3.656","0.25","0.2","30.535","4.78542","12.42","0","SATNPRO1964","28.758","0.40276","5"],
    [62714,"HCEP03730563","2025-10-11 16:00:00","11.833","3.52528","26.973","1.067","7.36","1.052","4.119","0.52","0.33","30.5354","4.78549","11.95","0","SATNPRO1964","29.064","0.4071","5"],
    [62715,"HCEP03730563","2025-10-11 16:15:00","11.8329","3.52521","27.078","1.038","7.36","0.933","3.764","0.14","0.23","30.5348","4.78541","11.63","0","SATNPRO1964","28.886","0.40456","5"],
    [62716,"HCEP03730563","2025-10-11 16:30:00","11.8329","3.52522","27.131","1.03","7.35","0.987","3.968","0.15","0.23","30.5349","4.78542","11.54","0","SATNPRO1964","28.872","0.40438","5"],
    [62717,"HCEP03730563","2025-10-11 16:45:00","11.8327","3.52517","27.165","1.038","7.36","1.135","4.522","0.32","1.24","30.5346","4.78539","11.63","0","SATNPRO1964","29.084","0.40736","5"],
    [62718,"HCEP03730563","2025-10-11 17:00:00","11.8329","3.52517","27.226","1.048","7.36","0.98","5.113","0.12","0.58","30.534300000000002","4.78535","11.74","0","SATNPRO1964","28.868","0.40436","5"],
    [62719,"HCEP03730563","2025-10-11 17:15:00","11.8335","3.52526","27.296","1.057","7.36","1.054","3.868","0.2","0.31","30.5348","4.78541","11.84","0","SATNPRO1964","29.216","0.40922","5"],
    [62720,"HCEP03730563","2025-10-11 17:30:00","11.8337","3.52506","27.368","1.066","7.36","0.952","3.72","0.08","0.12","30.5326","4.7851","11.94","0","SATNPRO1964","28.922","0.40514","5"],
    [62721,"HCEP03730563","2025-10-11 17:45:00","11.8333","3.52504","27.416","1.081","7.36","0.989","3.5","0.17","0.24","30.5327","4.78512","12.11","0","SATNPRO1964","28.97","0.40578","5"],
    [62722,"HCEP03730563","2025-10-11 18:00:00","11.834","3.5251","27.474","1.08","7.36","1.013","3.486","0.17","0.16","30.5327","4.78512","12.1","0","SATNPRO1964","29.054","0.40694","5"],
    [62723,"HCEP03730563","2025-10-11 18:15:00","11.8355","3.52526","27.517","1.098","7.36","1.081","3.424","0.22","0.16","30.533","4.78514","12.3","0","SATNPRO1964","29.096","0.40754","5"],
    [62724,"HCEP03730563","2025-10-11 18:30:00","11.8375","3.5253","27.552","1.139","7.36","1.045","3.33","0.14","0.14","30.5317","4.78494","12.76","0","SATNPRO1964","29.464","0.4127","5"],
    [62725,"HCEP03730563","2025-10-11 18:45:00","11.8376","3.52525","27.581","1.18","7.36","1.11","3.309","0.18","0.18","30.5311","4.78485","13.22","0","SATNPRO1964","29.572","0.4142","5"],
    [62726,"HCEP03730563","2025-10-11 19:00:00","11.8378","3.52518","27.572","1.192","7.37","1.004","3.186","0.14","0.13","30.5303","4.78474","13.35","0","SATNPRO1964","29.688","0.4158","5"],
    [62727,"HCEP03730563","2025-10-11 19:15:00","11.8376","3.52502","27.576","1.205","7.37","1.056","3.176","0.15","0.12","30.529","4.78455","13.51","0","SATNPRO1964","29.818","0.41764","5"],
    [62728,"HCEP03730563","2025-10-11 19:30:00","11.8361","3.52474","27.553","1.218","7.37","1.022","3.078","0.25","0.12","30.5275","4.78436","13.64","0","SATNPRO1964","29.466","0.41274","5"],
    [62729,"HCEP03730563","2025-10-11 19:45:00","11.8354","3.52456","27.536","1.207","7.37","0.975","3.198","0.13","0.1","30.5264","4.78421","13.52","0","SATNPRO1964","29.558","0.414","5"],
    [62730,"HCEP03730563","2025-10-11 20:00:00","11.8347","3.52415","27.483","1.201","7.37","0.952","3.057","0.2","0.15","30.5229","4.78373","13.46","0","SATNPRO1964","29.684","0.41576","5"],
    [62731,"HCEP03730563","2025-10-11 20:15:00","11.834","3.52383","27.397","1.219","7.37","0.979","3.345","0.1","0.19","30.5205","4.7834","13.65","0","SATNPRO1964","29.526","0.41354","5"],
    [62732,"HCEP03730563","2025-10-11 20:30:00","11.8326","3.52355","27.314","1.211","7.37","1.049","3.18","0.26","0.11","30.5191","4.7832","13.57","0","SATNPRO1964","29.458","0.41264","5"],
    [62733,"HCEP03730563","2025-10-11 20:45:00","11.8322","3.52345","27.208","1.192","7.37","0.962","3.56","0.08","0.17","30.5184","4.78311","13.35","0","SATNPRO1964","29.396","0.41174","5"],
    [62734,"HCEP03730563","2025-10-11 21:00:00","11.8317","3.52331","27.076","1.184","7.37","1.038","3.729","0.34","0.11","30.5175","4.78298","13.26","0","SATNPRO1964","29.088","0.40742","5"],
    [62735,"HCEP03730563","2025-10-11 21:15:00","11.832","3.52314","26.914","1.19","7.37","1.003","3.394","0.12","0.15","30.5157","4.78272","13.33","0","SATNPRO1964","29.414","0.41198","5"],
    [62736,"HCEP03730563","2025-10-11 21:30:00","11.8362","3.52321","26.731","1.249","7.37","0.908","2.991","0.14","0.17","30.513","4.78227","13.99","0","SATNPRO1964","29.726","0.41638","5"],
    [62737,"HCEP03730563","2025-10-11 21:45:00","11.8384","3.52337","26.541","1.327","7.38","0.966","2.652","0.18","0.12","30.5128","4.78219","14.86","0","SATNPRO1964","30.282","0.42414","5"],
    [62738,"HCEP03730563","2025-10-11 22:00:00","11.8406","3.52345","26.346","1.393","7.38","1.034","2.558","0.19","0.11","30.5119","4.78203","15.61","0","SATNPRO1964","30.414","0.42602","5"],
    [62739,"HCEP03730563","2025-10-11 22:15:00","11.8378","3.523","26.144","1.423","7.38","0.958","2.781","0.14","0.2","30.5099","4.78178","15.94","0","SATNPRO1964","30.308","0.42452","5"],
    [62740,"HCEP03730563","2025-10-11 22:30:00","11.8367","3.5228","25.936","1.4","7.38","0.916","2.97","0.12","0.1","30.5089","4.78164","15.69","0","SATNPRO1964","30.038","0.42072","5"],
    [62741,"HCEP03730563","2025-10-11 22:45:00","11.8357","3.52265","25.703","1.383","7.38","1.013","3.22","0.11","0.18","30.5084","4.78157","15.49","0","SATNPRO1964","30.018","0.42048","5"],
    [62742,"HCEP03730563","2025-10-11 23:00:00","11.8356","3.5226","25.494","1.369","7.38","1.027","3.236","0.19","0.31","30.5081","4.78151","15.34","0","SATNPRO1964","29.97","0.4198","5"],
    [62743,"HCEP03730563","2025-10-11 23:15:00","11.8367","3.52256","25.262","1.37","7.38","1","3.217","0.11","0.17","30.5069","4.78132","15.34","0","SATNPRO1964","29.951999999999998","0.41954","5"],
    [62744,"HCEP03730563","2025-10-11 23:30:00","11.8347","3.52235","25.047","1.372","7.38","1.08","3.352","0.21","0.41","30.5066","4.78129","15.37","0","SATNPRO1964","29.78","0.41714","5"],
    [62745,"HCEP03730563","2025-10-11 23:45:00","11.8362","3.52254","24.843","1.36","7.38","1.043","3.385","0.13","0.49","30.5073","4.78136","15.23","0","SATNPRO1964","30.026","0.42058","5"],
    [62746,"HCEP03730563","2025-10-12 00:00:00","11.8369","3.52259","24.65","1.367","7.38","0.988","2.977","0.1","0.25","30.5073","4.78134","15.32","0","SATNPRO1964","29.898","0.41876","5"],
    [62747,"HCEP03730563","2025-10-12 00:15:00","11.8354","3.52244","24.455","1.368","7.38","0.968","2.965","0.11","0.21","30.5071","4.78132","15.32","0","SATNPRO1964","29.996","0.42016","5"],
    [62748,"HCEP03730563","2025-10-12 00:30:00","11.8349","3.52228","24.276","1.351","7.38","1.029","2.959","0.23","0.1","30.5061","4.78118","15.13","0","SATNPRO1964","29.796","0.41736","5"],
    [62749,"HCEP03730563","2025-10-12 00:45:00","11.8367","3.52234","24.118","1.368","7.38","1.021","2.823","0.13","0.13","30.5052","4.78102","15.33","0","SATNPRO1964","30.006","0.42028","5"],
    [62750,"HCEP03730563","2025-10-12 01:00:00","11.8372","3.52244","24.004","1.398","7.38","0.973","2.94","0.15","0.1","30.5059","4.78109","15.66","0","SATNPRO1964","30.536","0.42772","5"],
    [62751,"HCEP03730563","2025-10-12 01:15:00","11.8362","3.52246","23.922","1.389","7.38","1.09","3.044","0.2","0.13","30.5069","4.78124","15.56","0","SATNPRO1964","29.974","0.41982","5"],
    [62752,"HCEP03730563","2025-10-12 01:30:00","11.8366","3.52271","23.86","1.372","7.38","0.998","2.935","0.15","0.09","30.5089","4.78152","15.36","0","SATNPRO1964","30.018","0.42046","5"],
    [62753,"HCEP03730563","2025-10-12 01:45:00","11.8391","3.5232","23.835","1.373","7.38","1.073","3.1","0.17","0.44","30.5117","4.78188","15.38","0","SATNPRO1964","30.169999999999998","0.42258","5"],
    [62754,"HCEP03730563","2025-10-12 02:00:00","11.8385","3.52326","23.788","1.368","7.38","1.029","3.206","0.19","0.2","30.5127","4.78203","15.33","0","SATNPRO1964","30.152","0.42234","5"],
    [62755,"HCEP03730563","2025-10-12 02:15:00","11.8384","3.5233","23.817","1.338","7.38","1.116","3.631","0.16","0.32","30.5132","4.7821","14.98","0","SATNPRO1964","29.73","0.4164","5"],
    [62756,"HCEP03730563","2025-10-12 02:30:00","11.8381","3.5234","23.838","1.321","7.38","1.089","3.166","0.28","0.25","30.5144","4.78228","14.8","0","SATNPRO1964","29.830000000000002","0.4178","5"],
    [62757,"HCEP03730563","2025-10-12 02:45:00","11.838","3.52348","23.887","1.316","7.38","1.217","3.459","0.51","0.3","30.5152","4.78239","14.74","0","SATNPRO1964","29.488","0.41308","5"],
    [62758,"HCEP03730563","2025-10-12 03:00:00","11.8381","3.52353","23.971","1.316","7.38","1.147","3.277","0.21","0.12","30.5156","4.78245","14.75","0","SATNPRO1964","29.98","0.41992","5"],
    [62759,"HCEP03730563","2025-10-12 03:15:00","11.8375","3.5234","24.083","1.324","7.38","1.127","3.53","0.29","0.15","30.5147","4.78235","14.84","0","SATNPRO1964","29.8","0.41738","5"],
    [62760,"HCEP03730563","2025-10-12 03:30:00","11.8378","3.52359","24.206","1.319","7.38","1.009","3.327","0.23","0.24","30.5164","4.78258","14.78","0","SATNPRO1964","30.308","0.42456","5"],
    [62761,"HCEP03730563","2025-10-12 03:45:00","11.8392","3.5242","24.356","1.315","7.38","0.976","3.009","0.17","0.21","30.521","4.78322","14.74","0","SATNPRO1964","30.172","0.4226","5"],
    [62762,"HCEP03730563","2025-10-12 04:00:00","11.8396","3.52434","24.517","1.329","7.38","0.917","2.766","0.15","0.13","30.522","4.78337","14.89","0","SATNPRO1964","29.618","0.41484","5"],
    [62763,"HCEP03730563","2025-10-12 04:15:00","11.8393","3.52456","24.672","1.309","7.38","0.994","3.165","0.24","0.16","30.5243","4.7837","14.67","0","SATNPRO1964","29.316","0.4106","5"],
    [62764,"HCEP03730563","2025-10-12 04:30:00","11.8396","3.52485","24.843","1.274","7.38","0.963","3.517","0.2","0.2","30.5267","4.78405","14.27","0","SATNPRO1964","29.242","0.40958","5"],
    [62765,"HCEP03730563","2025-10-12 04:45:00","11.8397","3.52505","25.045","1.245","7.37","0.982","3.672","0.19","0.26","30.5285","4.78431","13.95","0","SATNPRO1964","29.104","0.40766","5"],
    [62766,"HCEP03730563","2025-10-12 05:00:00","11.8391","3.52494","25.242","1.231","7.37","0.954","3.666","0.16","0.24","30.5278","4.78424","13.79","0","SATNPRO1964","29.214","0.40918","5"],
    [62767,"HCEP03730563","2025-10-12 05:15:00","11.8379","3.5247","25.446","1.211","7.37","0.95","3.393","0.18","0.22","30.5264","4.78407","13.56","0","SATNPRO1964","29.23","0.4094","5"],
    [62768,"HCEP03730563","2025-10-12 05:30:00","11.8374","3.52451","25.643","1.213","7.37","1.123","5.955","0.18","0.66","30.5249","4.78387","13.59","0","SATNPRO1964","29.418","0.41204","5"],
    [62769,"HCEP03730563","2025-10-12 05:45:00","11.8376","3.52451","25.822","1.217","7.37","0.885","3.232","0.06","0.15","30.5247","4.78385","13.64","0","SATNPRO1964","29.342","0.41102","5"],
    [62770,"HCEP03730563","2025-10-12 06:00:00","11.8397","3.52519","26.013","1.231","7.37","0.928","3.265","0.22","0.29","30.5295","4.7845","13.8","0","SATNPRO1964","29.47","0.41278","5"],
    [62771,"HCEP03730563","2025-10-12 06:15:00","11.8388","3.5249","26.18","1.237","7.37","0.877","3.618","0.1","0.34","30.5273","4.78422","13.86","0","SATNPRO1964","29.654","0.41536","5"],
    [62772,"HCEP03730563","2025-10-12 06:30:00","11.8394","3.52496","26.402","1.238","7.37","0.978","3.711","0.17","0.25","30.5274","4.78423","13.88","0","SATNPRO1964","29.554000000000002","0.41394","5"],
    [62773,"HCEP03730563","2025-10-12 06:45:00","11.8406","3.52499","26.559","1.238","7.37","1.085","4.189","0.21","0.32","30.5266","4.78411","13.87","0","SATNPRO1964","29.91","0.41894","5"],
    [62774,"HCEP03730563","2025-10-12 07:00:00","11.8433","3.52507","26.743","1.264","7.37","0.863","3.58","0.08","0.18","30.525","4.78387","14.17","0","SATNPRO1964","30.032","0.42064","5"],
    [62775,"HCEP03730563","2025-10-12 07:15:00","11.8449","3.52507","26.888","1.324","7.38","0.878","3.988","0.08","0.19","30.5237","4.78367","14.83","0","SATNPRO1964","30.052","0.42092","5"],
    [62776,"HCEP03730563","2025-10-12 07:30:00","11.8477","3.52547","27.035","1.359","7.38","0.873","4.11","0.11","0.31","30.5251","4.78383","15.22","0","SATNPRO1964","30.19","0.42288","5"],
    [62777,"HCEP03730563","2025-10-12 07:45:00","11.8516","3.52639","27.169","1.397","7.38","0.993","8.722","0.19","1.53","30.5308","4.78458","15.66","0","SATNPRO1964","30.348","0.42508","5"],
    [62778,"HCEP03730563","2025-10-12 08:00:00","11.8528","3.52657","27.283","1.431","7.39","0.84","4.999","0.14","0.39","30.5315","4.78467","16.03","0","SATNPRO1964","30.802","0.43144","5"],
    [62779,"HCEP03730563","2025-10-12 08:15:00","11.8573","3.52749","27.401","1.466","7.39","0.872","3.864","0.11","0.21","30.5366","4.78534","16.43","0","SATNPRO1964","30.631999999999998","0.42902","5"],
    [62780,"HCEP03730563","2025-10-12 08:30:00","11.8574","3.52743","27.511","1.468","7.39","0.942","4.098","0.25","0.25","30.5359","4.78524","16.45","0","SATNPRO1964","30.652","0.42932","5"],
    [62781,"HCEP03730563","2025-10-12 08:45:00","11.8509","3.52639","27.558","1.434","7.39","0.85","4.18","0.1","0.35","30.5312","4.78467","16.07","0","SATNPRO1964","30.038","0.42072","5"],
    [62782,"HCEP03730563","2025-10-12 09:00:00","11.8466","3.52555","27.615","1.362","7.38","0.894","4.197","0.11","0.47","30.5266","4.78409","15.27","0","SATNPRO1964","29.73","0.4164","5"],
    [62783,"HCEP03730563","2025-10-12 09:15:00","11.8445","3.52507","27.65","1.325","7.38","0.895","4.234","0.12","0.26","30.5238","4.78373","14.84","0","SATNPRO1964","29.85","0.4181","5"],
    [62784,"HCEP03730563","2025-10-12 09:30:00","11.8436","3.52487","27.689","1.308","7.38","0.89","3.816","0.27","0.28","30.5225","4.78355","14.65","0","SATNPRO1964","29.846","0.41806","5"],
    [62785,"HCEP03730563","2025-10-12 09:45:00","11.8426","3.52436","27.719","1.302","7.38","0.886","3.515","0.16","0.18","30.5184","4.78299","14.59","0","SATNPRO1964","29.936","0.41932","5"],
    [62786,"HCEP03730563","2025-10-12 10:00:00","11.8415","3.52399","27.728","1.317","7.38","0.814","3.297","0.14","0.18","30.5158","4.78264","14.75","0","SATNPRO1964","30.244","0.42362","5"],
    [62787,"HCEP03730563","2025-10-12 10:15:00","11.8413","3.52393","27.729","1.336","7.38","0.882","3.275","0.2","0.21","30.5153","4.78257","14.96","0","SATNPRO1964","30.1","0.4216","5"],
    [62788,"HCEP03730563","2025-10-12 10:30:00","11.8421","3.52408","27.731","1.343","7.38","0.845","3.348","0.2","0.17","30.5162","4.78268","15.05","0","SATNPRO1964","30.098","0.42158","5"],
    [62789,"HCEP03730563","2025-10-12 10:45:00","11.8426","3.52429","27.721","1.339","7.38","0.748","2.918","0.11","0.1","30.5178","4.78291","15","0","SATNPRO1964","30.126","0.42196","5"],
    [62790,"HCEP03730563","2025-10-12 11:00:00","11.8439","3.5247","27.702","1.325","7.38","0.929","3.309","0.2","0.17","30.5207","4.78329","14.85","0","SATNPRO1964","29.908","0.4189","5"],
    [62791,"HCEP03730563","2025-10-12 11:15:00","11.8468","3.52551","27.614","1.32","7.38","0.882","3.545","0.14","0.13","30.5261","4.78401","14.79","0","SATNPRO1964","30.09","0.42144","5"],
    [62792,"HCEP03730563","2025-10-12 11:30:00","11.8476","3.52582","27.535","1.307","7.38","0.907","3.768","0.36","0.14","30.5284","4.78432","14.65","0","SATNPRO1964","29.56","0.41402","5"],
    [62793,"HCEP03730563","2025-10-12 11:45:00","11.8455","3.52546","27.47","1.265","7.38","0.98","4.083","0.21","0.22","30.5267","4.78411","14.18","0","SATNPRO1964","29.256","0.40978","5"],
    [62794,"HCEP03730563","2025-10-12 12:00:00","11.8429","3.52508","27.408","1.226","7.37","0.944","4.068","0.18","0.24","30.5252","4.78394","13.74","0","SATNPRO1964","29.368","0.41136","5"],
    [62795,"HCEP03730563","2025-10-12 12:15:00","11.8408","3.52467","27.31","1.198","7.37","0.922","3.68","0.25","0.28","30.5231","4.78366","13.42","0","SATNPRO1964","29.182000000000002","0.40874","5"],
    [62796,"HCEP03730563","2025-10-12 12:30:00","11.8378","3.52415","27.243","1.178","7.37","0.855","3.881","0.19","0.37","30.5205","4.78333","13.19","0","SATNPRO1964","29.174","0.40862","5"],
    [62797,"HCEP03730563","2025-10-12 12:45:00","11.8348","3.52374","27.163","1.143","7.36","0.88","3.869","0.19","0.24","30.5191","4.78317","12.8","0","SATNPRO1964","28.856","0.40418","5"],
    [62798,"HCEP03730563","2025-10-12 13:00:00","11.829","3.523","27.104","1.086","7.36","0.837","4.006","0.15","0.22","30.5167","4.7829","12.16","0","SATNPRO1964","28.406","0.39788","5"],
    [62799,"HCEP03730563","2025-10-12 13:15:00","11.8236","3.52235","27.043","1.01","7.35","1.878","3.85","4.22","0.24","30.5149","4.78273","11.32","0","SATNPRO1964","27.786","0.38916","5"],
    [62800,"HCEP03730563","2025-10-12 13:30:00","11.8212","3.52205","26.972","0.934","7.35","0.717","3.731","0.09","0.3","30.514","4.78263","10.46","0","SATNPRO1964","27.666","0.38748","5"],
    [62801,"HCEP03730563","2025-10-12 13:45:00","11.8191","3.5218","26.891","0.886","7.34","0.779","4.173","0.12","1.4","30.5134","4.78258","9.92","0","SATNPRO1964","27.51","0.38532","5"],
    [62802,"HCEP03730563","2025-10-12 14:00:00","11.8182","3.52164","26.847","0.859","7.34","0.812","4.085","0.28","0.94","30.5126","4.78247","9.62","0","SATNPRO1964","27.534","0.38566","5"],
    [62803,"HCEP03730563","2025-10-12 14:15:00","11.8185","3.52162","26.817","0.85","7.34","0.751","3.908","0.1","0.25","30.5122","4.7824","9.52","0","SATNPRO1964","27.39","0.38364","5"],
    [62804,"HCEP03730563","2025-10-12 14:30:00","11.819","3.5217","26.784","0.851","7.34","0.805","3.801","0.17","0.22","30.5126","4.78246","9.53","0","SATNPRO1964","27.594","0.38652","5"],
    [62805,"HCEP03730563","2025-10-12 14:45:00","11.8196","3.52167","26.755","0.856","7.34","0.874","4.058","0.16","0.27","30.5118","4.78233","9.59","0","SATNPRO1964","27.586","0.38636","5"],
    [62806,"HCEP03730563","2025-10-12 15:00:00","11.8193","3.52163","26.735","0.862","7.34","0.894","3.996","0.18","0.46","30.5116","4.78231","9.65","0","SATNPRO1964","27.538","0.38572","5"],
    [62807,"HCEP03730563","2025-10-12 15:15:00","11.8188","3.52148","26.728","0.857","7.34","0.978","6.491","0.12","0.54","30.5106","4.78217","9.6","0","SATNPRO1964","27.968","0.39176","5"],
    [62808,"HCEP03730563","2025-10-12 15:30:00","11.8178","3.52133","26.739","0.851","7.34","0.736","3.75","0.11","0.4","30.51","4.7821","9.53","0","SATNPRO1964","27.560000000000002","0.38602","5"],
    [62809,"HCEP03730563","2025-10-12 15:45:00","11.8168","3.52113","26.763","0.837","7.34","0.841","4.127","0.13","0.45","30.5089","4.78196","9.37","0","SATNPRO1964","27.354","0.3831","5"],
    [62810,"HCEP03730563","2025-10-12 16:00:00","11.8156","3.52094","26.761","0.825","7.34","0.803","3.676","0.16","0.16","30.508","4.78185","9.24","0","SATNPRO1964","27.422","0.3841","5"],
    [62811,"HCEP03730563","2025-10-12 16:15:00","11.8148","3.52075","26.806","0.817","7.33","0.717","3.658","0.06","0.13","30.5068","4.7817","9.14","0","SATNPRO1964","27.314","0.38256","5"],
    [62812,"HCEP03730563","2025-10-12 16:30:00","11.8136","3.52057","26.834","0.815","7.33","0.683","3.422","0.13","0.12","30.5061","4.78162","9.13","0","SATNPRO1964","27.336","0.38288","5"],
    [62813,"HCEP03730563","2025-10-12 16:45:00","11.8133","3.5205","26.852","0.812","7.33","0.687","3.361","0.06","0.12","30.5057","4.78156","9.09","0","SATNPRO1964","27.158","0.38038","5"],
    [62814,"HCEP03730563","2025-10-12 17:00:00","11.8134","3.52045","26.922","0.807","7.33","0.697","3.141","0.15","0.15","30.505","4.78147","9.04","0","SATNPRO1964","27.358","0.3832","5"],
    [62815,"HCEP03730563","2025-10-12 17:15:00","11.8125","3.52031","26.976","0.812","7.33","0.673","3.102","0.12","0.26","30.5045","4.78142","9.1","0","SATNPRO1964","27.22","0.38128","5"],
    [62816,"HCEP03730563","2025-10-12 17:30:00","11.8113","3.52003","27.031","0.81","7.33","0.636","3.035","0.08","0.17","30.5027","4.78118","9.06","0","SATNPRO1964","27.4","0.38376","5"],
    [62817,"HCEP03730563","2025-10-12 17:45:00","11.8105","3.51989","27.056","0.806","7.33","0.651","3.031","0.11","0.54","30.502","4.78109","9.03","0","SATNPRO1964","27.066","0.37914","5"],
    [62818,"HCEP03730563","2025-10-12 18:00:00","11.8114","3.52005","27.091","0.81","7.33","0.651","2.93","0.15","0.09","30.5027","4.78118","9.07","0","SATNPRO1964","26.994","0.37808","5"],
    [62819,"HCEP03730563","2025-10-12 18:15:00","11.8117","3.52005","27.126","0.815","7.33","0.704","2.929","0.2","0.15","30.5025","4.78115","9.12","0","SATNPRO1964","27.47","0.38476","5"],
    [62820,"HCEP03730563","2025-10-12 18:30:00","11.8121","3.52032","27.163","0.813","7.33","0.705","3.182","0.21","0.13","30.5048","4.78147","9.11","0","SATNPRO1964","27.346","0.38304","5"],
    [62821,"HCEP03730563","2025-10-12 18:45:00","11.8127","3.52025","27.207","0.802","7.33","0.676","3.145","0.09","0.22","30.5035","4.78129","8.98","0","SATNPRO1964","27.34","0.38292","5"],
    [62822,"HCEP03730563","2025-10-12 19:00:00","11.813","3.52035","27.255","0.814","7.33","0.653","3.161","0.25","0.1","30.5043","4.7814","9.11","0","SATNPRO1964","27.291999999999998","0.38226","5"],
    [62823,"HCEP03730563","2025-10-12 19:15:00","11.8138","3.52072","27.264","0.808","7.33","0.743","3.59","0.1","0.22","30.5073","4.7818","9.05","0","SATNPRO1964","26.916","0.377","5"],
    [62824,"HCEP03730563","2025-10-12 19:30:00","11.8143","3.52069","27.289","0.786","7.33","0.819","3.558","0.29","0.33","30.5065","4.78169","8.8","0","SATNPRO1964","26.994","0.37806","5"],
    [62825,"HCEP03730563","2025-10-12 19:45:00","11.8154","3.52102","27.296","0.788","7.33","0.719","3.583","0.13","0.18","30.5088","4.782","8.82","0","SATNPRO1964","26.79","0.37526","5"],
    [62826,"HCEP03730563","2025-10-12 20:00:00","11.8159","3.52102","27.289","0.781","7.33","0.751","3.336","0.18","0.18","30.5084","4.78193","8.74","0","SATNPRO1964","27.102","0.37956","5"],
    [62827,"HCEP03730563","2025-10-12 20:15:00","11.8159","3.52098","27.266","0.807","7.33","0.78","3.484","0.2","0.2","30.508","4.78187","9.04","0","SATNPRO1964","27.169999999999998","0.38058","5"],
    [62828,"HCEP03730563","2025-10-12 20:30:00","11.8188","3.52145","27.241","0.818","7.33","0.694","3.314","0.12","0.13","30.5101","4.78213","9.16","0","SATNPRO1964","27.328","0.3828","5"],
    [62829,"HCEP03730563","2025-10-12 20:45:00","11.8199","3.52163","27.201","0.839","7.33","0.779","3.478","0.47","0.22","30.511","4.78223","9.4","0","SATNPRO1964","27.372","0.38342","5"],
    [62830,"HCEP03730563","2025-10-12 21:00:00","11.821","3.52177","27.146","0.848","7.33","0.738","3.303","0.13","0.1","30.5115","4.78229","9.5","0","SATNPRO1964","27.566","0.38608","5"],
    [62831,"HCEP03730563","2025-10-12 21:15:00","11.8207","3.52178","27.071","0.857","7.33","0.764","3.892","0.16","0.92","30.5119","4.78235","9.6","0","SATNPRO1964","27.644000000000002","0.38722","5"],
    [62832,"HCEP03730563","2025-10-12 21:30:00","11.8222","3.5219","26.973","0.865","7.34","0.771","3.369","0.25","0.13","30.5118","4.78231","9.69","0","SATNPRO1964","27.946","0.39142","5"],
    [62833,"HCEP03730563","2025-10-12 21:45:00","11.8238","3.5221","26.872","0.884","7.34","0.725","3.561","0.15","0.08","30.5124","4.78237","9.9","0","SATNPRO1964","27.934","0.39126","5"],
    [62834,"HCEP03730563","2025-10-12 22:00:00","11.8251","3.52229","26.74","0.908","7.34","0.907","3.713","0.35","0.21","30.5132","4.78246","10.17","0","SATNPRO1964","28.266","0.3959","5"],
    [62835,"HCEP03730563","2025-10-12 22:15:00","11.8278","3.52262","26.587","0.937","7.34","0.775","3.717","0.15","0.11","30.5143","4.78256","10.49","0","SATNPRO1964","28.222","0.39532","5"],
    [62836,"HCEP03730563","2025-10-12 22:30:00","11.8294","3.52287","26.454","0.972","7.34","0.821","3.584","0.14","0.16","30.5154","4.78269","10.89","0","SATNPRO1964","28.482","0.39894","5"],
    [62837,"HCEP03730563","2025-10-12 22:45:00","11.8304","3.523","26.27","0.99","7.35","0.73","3.758","0.14","0.16","30.5159","4.78273","11.09","0","SATNPRO1964","28.286","0.3962","5"],
    [62838,"HCEP03730563","2025-10-12 23:00:00","11.8315","3.52322","26.102","1.002","7.35","0.812","3.795","0.2","0.23","30.5172","4.78289","11.23","0","SATNPRO1964","28.556","0.4","5"],
    [62839,"HCEP03730563","2025-10-12 23:15:00","11.8326","3.52341","25.929","1.016","7.35","0.91","3.748","0.31","0.11","30.5182","4.78301","11.38","0","SATNPRO1964","28.358","0.39724","5"],
    [62840,"HCEP03730563","2025-10-12 23:30:00","11.8349","3.52374","25.747","1.031","7.35","0.835","3.648","0.22","0.19","30.5196","4.78316","11.54","0","SATNPRO1964","28.676","0.40166","5"],
    [62841,"HCEP03730563","2025-10-12 23:45:00","11.837","3.52403","25.545","1.053","7.35","0.691","3.968","0.08","0.09","30.5207","4.78328","11.8","0","SATNPRO1964","28.862","0.40426","5"],
    [62842,"HCEP03730563","2025-10-13 00:00:00","11.8376","3.5241","25.348","1.08","7.35","0.82","3.574","0.23","0.12","30.521","4.78329","12.1","0","SATNPRO1964","28.842","0.40398","5"],
    [62843,"HCEP03730563","2025-10-13 00:15:00","11.8387","3.52431","25.167","1.1","7.36","0.78","4.587","0.21","0.11","30.5222","4.78344","12.33","0","SATNPRO1964","29.082","0.40734","5"],
    [62844,"HCEP03730563","2025-10-13 00:30:00","11.8403","3.52458","24.986","1.119","7.36","0.808","4.654","0.17","0.11","30.5235","4.7836","12.54","0","SATNPRO1964","29.108","0.4077","5"],
    [62845,"HCEP03730563","2025-10-13 00:45:00","11.8422","3.52488","24.83","1.135","7.36","0.824","5.509","0.19","0.16","30.5249","4.78375","12.72","0","SATNPRO1964","29.362","0.41126","5"],
    [62846,"HCEP03730563","2025-10-13 01:00:00","11.8434","3.52509","24.686","1.157","7.36","0.844","4.232","0.33","0.15","30.526","4.78388","12.96","0","SATNPRO1964","29.456","0.41254","5"],
    [62847,"HCEP03730563","2025-10-13 01:15:00","11.8432","3.52498","24.526","1.178","7.36","0.876","9.146","0.15","0.14","30.5251","4.78375","13.2","0","SATNPRO1964","29.541999999999998","0.41378","5"],
    [62848,"HCEP03730563","2025-10-13 01:30:00","11.8425","3.52483","24.392","1.189","7.36","0.708","3.277","0.15","0.12","30.5244","4.78365","13.32","0","SATNPRO1964","29.66","0.41542","5"],
    [62849,"HCEP03730563","2025-10-13 01:45:00","11.8408","3.52433","24.264","1.189","7.37","0.874","3.581","0.23","0.09","30.521","4.7832","13.32","0","SATNPRO1964","29.580000000000002","0.41436","5"],
    [62850,"HCEP03730563","2025-10-13 02:00:00","11.8442","3.52512","24.154","1.194","7.37","0.835","3.859","0.22","1.27","30.5258","4.78381","13.38","0","SATNPRO1964","29.522","0.4135","5"],
    [62851,"HCEP03730563","2025-10-13 02:15:00","11.8435","3.52494","24.08","1.209","7.37","0.875","4.345","0.17","0.13","30.5246","4.78366","13.55","0","SATNPRO1964","29.163999999999998","0.4085","5"],
    [62852,"HCEP03730563","2025-10-13 02:30:00","11.8437","3.52491","24.03","1.217","7.37","0.991","3.726","0.96","0.31","30.5243","4.7836","13.64","0","SATNPRO1964","29.676000000000002","0.41562","5"],
    [62853,"HCEP03730563","2025-10-13 02:45:00","11.8426","3.52482","24.015","1.218","7.37","0.897","3.533","0.2","0.14","30.5243","4.78362","13.65","0","SATNPRO1964","29.532","0.41364","5"],
    [62854,"HCEP03730563","2025-10-13 03:00:00","11.8422","3.5247","24.021","1.207","7.37","0.969","4.012","0.35","0.25","30.5235","4.78351","13.53","0","SATNPRO1964","29.55","0.4139","5"],
    [62855,"HCEP03730563","2025-10-13 03:15:00","11.8408","3.52441","23.998","1.201","7.37","0.934","3.809","0.23","0.25","30.5218","4.7833","13.45","0","SATNPRO1964","29.282","0.41014","5"],
    [62856,"HCEP03730563","2025-10-13 03:30:00","11.8392","3.52402","24.036","1.192","7.37","0.886","3.487","0.19","0.17","30.5194","4.78298","13.35","0","SATNPRO1964","29.25","0.40966","5"],
    [62857,"HCEP03730563","2025-10-13 03:45:00","11.8391","3.52399","24.059","1.19","7.37","0.845","3.561","0.21","0.23","30.5192","4.78295","13.33","0","SATNPRO1964","29.3","0.41042","5"],
    [62858,"HCEP03730563","2025-10-13 04:00:00","11.84","3.52421","24.125","1.196","7.37","0.747","3.756","0.11","0.5","30.5205","4.78313","13.4","0","SATNPRO1964","29.454","0.4125","5"],
    [62859,"HCEP03730563","2025-10-13 04:15:00","11.8407","3.52445","24.226","1.205","7.37","0.842","3.815","0.12","0.18","30.5222","4.78336","13.5","0","SATNPRO1964","29.534","0.41368","5"],
    [62860,"HCEP03730563","2025-10-13 04:30:00","11.8438","3.52513","24.308","1.207","7.37","0.811","3.838","0.12","0.65","30.5262","4.78388","13.53","0","SATNPRO1964","29.46","0.41258","5"],
    [62861,"HCEP03730563","2025-10-13 04:45:00","11.8459","3.52556","24.473","1.215","7.37","0.924","3.564","0.22","0.29","30.5286","4.7842","13.62","0","SATNPRO1964","29.402","0.4118","5"],
    [62862,"HCEP03730563","2025-10-13 05:00:00","11.8461","3.52565","24.612","1.212","7.37","0.812","3.748","0.13","0.42","30.5291","4.78429","13.59","0","SATNPRO1964","29.422","0.4121","5"],
    [62863,"HCEP03730563","2025-10-13 05:15:00","11.8454","3.52549","24.748","1.211","7.37","0.856","3.448","0.14","0.14","30.5282","4.78417","13.57","0","SATNPRO1964","29.446","0.4124","5"],
    [62864,"HCEP03730563","2025-10-13 05:30:00","11.8438","3.52517","24.929","1.208","7.37","1.038","3.791","0.31","0.29","30.5263","4.78394","13.54","0","SATNPRO1964","29.608","0.41472","5"],
    [62865,"HCEP03730563","2025-10-13 05:45:00","11.8413","3.52474","25.162","1.198","7.37","1.009","3.97","0.18","0.34","30.5242","4.78368","13.43","0","SATNPRO1964","29.486","0.41302","5"],
    [62866,"HCEP03730563","2025-10-13 06:00:00","11.8402","3.52455","25.278","1.182","7.37","0.925","3.669","0.24","0.3","30.5231","4.78355","13.24","0","SATNPRO1964","29.19","0.40886","5"],
    [62867,"HCEP03730563","2025-10-13 06:15:00","11.8373","3.52407","25.466","1.153","7.36","0.948","3.67","0.17","0.28","30.5209","4.7833","12.92","0","SATNPRO1964","28.948","0.40544","5"],
    [62868,"HCEP03730563","2025-10-13 06:30:00","11.8384","3.52438","25.683","1.126","7.36","0.934","3.937","0.19","0.53","30.5228","4.78356","12.62","0","SATNPRO1964","29.206","0.4091","5"],
    [62869,"HCEP03730563","2025-10-13 06:45:00","11.8378","3.52446","25.826","1.119","7.36","1.008","4.515","0.16","0.5","30.524","4.78375","12.53","0","SATNPRO1964","28.92","0.40508","5"],
    [62870,"HCEP03730563","2025-10-13 07:00:00","11.8393","3.5247","26.055","1.109","7.36","0.974","3.942","0.15","0.2","30.5251","4.78389","12.43","0","SATNPRO1964","28.876","0.40448","5"],
    [62871,"HCEP03730563","2025-10-13 07:15:00","11.8391","3.52472","26.247","1.108","7.36","0.981","3.766","0.16","0.15","30.5253","4.78394","12.42","0","SATNPRO1964","28.63","0.40098","5"],
    [62872,"HCEP03730563","2025-10-13 07:30:00","11.8398","3.52482","26.434","1.101","7.36","0.941","3.186","0.17","0.17","30.5257","4.78399","12.33","0","SATNPRO1964","29.05","0.40692","5"],
    [62873,"HCEP03730563","2025-10-13 07:45:00","11.8408","3.52496","26.612","1.102","7.36","0.953","3.261","0.24","0.17","30.5261","4.78405","12.35","0","SATNPRO1964","29.038","0.40672","5"],
    [62874,"HCEP03730563","2025-10-13 08:00:00","11.8418","3.52511","26.766","1.106","7.36","1.126","3.342","0.42","0.37","30.5267","4.78412","12.39","0","SATNPRO1964","29.08","0.40732","5"],
    [62875,"HCEP03730563","2025-10-13 08:15:00","11.8418","3.52512","26.92","1.111","7.36","0.864","3.281","0.11","0.18","30.5267","4.78413","12.45","0","SATNPRO1964","29.128","0.40798","5"],
    [62876,"HCEP03730563","2025-10-13 08:30:00","11.8422","3.52516","27.072","1.108","7.36","0.904","3.387","0.1","0.32","30.5267","4.78413","12.42","0","SATNPRO1964","29.572","0.41424","5"],
    [62877,"HCEP03730563","2025-10-13 08:45:00","11.8416","3.52512","27.194","1.106","7.36","0.95","3.747","0.15","0.42","30.5268","4.78417","12.39","0","SATNPRO1964","29.094","0.40752","5"],
    [62878,"HCEP03730563","2025-10-13 09:00:00","11.8441","3.52531","27.33","1.123","7.36","0.944","3.459","0.15","0.47","30.5265","4.78409","12.58","0","SATNPRO1964","29.334","0.41086","5"],
    [62879,"HCEP03730563","2025-10-13 09:15:00","11.8471","3.52612","27.447","1.129","7.36","0.896","3.242","0.18","0.16","30.5318","4.7848","12.65","0","SATNPRO1964","28.886","0.40458","5"],
    [62880,"HCEP03730563","2025-10-13 09:30:00","11.8465","3.52608","27.536","1.15","7.36","0.88","3.439","0.21","0.23","30.5319","4.78483","12.89","0","SATNPRO1964","30.678","0.42972","5"],
    [62881,"HCEP03730563","2025-10-13 09:45:00","11.8482","3.52636","27.595","1.149","7.36","0.915","3.309","0.21","0.21","30.533","4.78497","12.88","0","SATNPRO1964","29.086","0.40742","5"],
    [62882,"HCEP03730563","2025-10-13 10:00:00","11.8488","3.52644","27.657","1.152","7.36","1.014","3.57","0.34","0.26","30.5334","4.78502","12.92","0","SATNPRO1964","28.904","0.40486","5"],
    [62883,"HCEP03730563","2025-10-13 10:15:00","11.8494","3.52659","27.716","1.146","7.36","0.914","3.271","0.23","0.19","30.5342","4.78513","12.85","0","SATNPRO1964","29.116","0.40784","5"],
    [62884,"HCEP03730563","2025-10-13 10:30:00","11.8502","3.52677","27.708","1.14","7.36","0.954","3.715","0.2","0.29","30.5354","4.78529","12.77","0","SATNPRO1964","28.938","0.40528","5"],
    [62885,"HCEP03730563","2025-10-13 10:45:00","11.8514","3.527","27.702","1.138","7.36","0.83","4.599","0.09","0.5","30.5366","4.78543","12.76","0","SATNPRO1964","28.946","0.40542","5"],
    [62886,"HCEP03730563","2025-10-13 11:00:00","11.8508","3.52686","27.738","1.145","7.36","0.833","4.129","0.13","0.34","30.5358","4.78533","12.84","0","SATNPRO1964","29.07","0.40718","5"],
    [62887,"HCEP03730563","2025-10-13 11:15:00","11.8502","3.52673","27.737","1.145","7.36","0.789","3.166","0.09","0.11","30.535","4.78523","12.84","0","SATNPRO1964","29.152","0.40832","5"],
    [62888,"HCEP03730563","2025-10-13 11:30:00","11.8511","3.52696","27.709","1.146","7.36","0.806","3.351","0.13","0.19","30.5365","4.78542","12.85","0","SATNPRO1964","28.912","0.40498","5"],
    [62889,"HCEP03730563","2025-10-13 11:45:00","11.8513","3.52692","27.716","1.149","7.36","0.802","3.044","0.11","0.13","30.5359","4.78534","12.87","0","SATNPRO1964","29.132","0.40804","5"],
    [62890,"HCEP03730563","2025-10-13 12:00:00","11.8523","3.52715","27.679","1.157","7.36","0.76","3.314","0.12","0.28","30.5373","4.78552","12.97","0","SATNPRO1964","29.038","0.4067","5"],
    [62891,"HCEP03730563","2025-10-13 12:15:00","11.8524","3.52702","27.641","1.17","7.37","0.716","2.933","0.07","0.15","30.5359","4.78532","13.11","0","SATNPRO1964","29.136","0.40806","5"],
    [62892,"HCEP03730563","2025-10-13 12:30:00","11.8531","3.52734","27.575","1.167","7.36","0.836","3.336","0.2","0.14","30.5385","4.78567","13.08","0","SATNPRO1964","28.938000000000002","0.4053","5"],
    [62893,"HCEP03730563","2025-10-13 12:45:00","11.8528","3.52732","27.535","1.146","7.36","0.83","3.738","0.13","0.17","30.5386","4.78569","12.85","0","SATNPRO1964","28.53","0.39962","5"],
    [62894,"HCEP03730563","2025-10-13 13:00:00","11.8535","3.52743","27.489","1.131","7.36","0.813","3.3","0.11","0.1","30.5391","4.78575","12.67","0","SATNPRO1964","28.84","0.40394","5"],
    [62895,"HCEP03730563","2025-10-13 13:15:00","11.8518","3.52729","27.432","1.126","7.36","0.819","3.445","0.1","0.13","30.5391","4.78577","12.62","0","SATNPRO1964","28.458000000000002","0.3986","5"],
    [62896,"HCEP03730563","2025-10-13 13:30:00","11.8511","3.5271","27.349","1.112","7.36","0.778","3.469","0.13","0.09","30.538","4.78562","12.46","0","SATNPRO1964","28.32","0.39668","5"],
    [62897,"HCEP03730563","2025-10-13 13:45:00","11.8517","3.52704","27.286","1.108","7.36","0.782","3.308","0.09","0.14","30.5369","4.78545","12.42","0","SATNPRO1964","28.694","0.4019","5"],
    [62898,"HCEP03730563","2025-10-13 14:00:00","11.8486","3.52661","27.181","1.108","7.36","0.842","3.917","0.15","0.17","30.5354","4.78528","12.41","0","SATNPRO1964","28.696","0.40194","5"],
    [62899,"HCEP03730563","2025-10-13 14:15:00","11.8474","3.52634","27.133","1.06","7.36","0.829","3.532","0.12","0.11","30.5337","4.78505","11.88","0","SATNPRO1964","28.272000000000002","0.39598","5"],
    [62900,"HCEP03730563","2025-10-13 14:30:00","11.8472","3.52617","27.049","1.052","7.36","0.781","3.461","0.1","0.15","30.5324","4.78486","11.79","0","SATNPRO1964","28.291999999999998","0.39628","5"],
    [62901,"HCEP03730563","2025-10-13 14:45:00","11.8461","3.52602","26.981","1.045","7.35","0.952","3.728","0.2","0.17","30.5318","4.7848","11.71","0","SATNPRO1964","27.944","0.39138","5"],
    [62902,"HCEP03730563","2025-10-13 15:00:00","11.847","3.52614","26.918","1.024","7.35","0.825","4.073","0.13","0.53","30.5322","4.78483","11.48","0","SATNPRO1964","27.838","0.38992","5"],
    [62903,"HCEP03730563","2025-10-13 15:15:00","11.8478","3.52623","26.847","1.015","7.35","0.895","4.15","0.19","0.37","30.5325","4.78485","11.37","0","SATNPRO1964","27.936","0.3913","5"],
    [62904,"HCEP03730563","2025-10-13 15:30:00","11.8474","3.52612","26.793","1.019","7.35","0.9","3.762","0.17","0.29","30.5317","4.78475","11.42","0","SATNPRO1964","28.2","0.395","5"],
    [62905,"HCEP03730563","2025-10-13 15:45:00","11.8472","3.52602","26.73","1.022","7.35","0.864","3.965","0.16","0.33","30.531","4.78465","11.45","0","SATNPRO1964","28.102","0.39364","5"],
    [62906,"HCEP03730563","2025-10-13 16:00:00","11.8467","3.52592","26.748","1.017","7.35","0.786","3.661","0.14","0.16","30.5304","4.78458","11.4","0","SATNPRO1964","28.188000000000002","0.39484","5"],
    [62907,"HCEP03730563","2025-10-13 16:15:00","11.8474","3.5261","26.72","1.017","7.35","0.871","3.851","0.24","0.2","30.5316","4.78473","11.39","0","SATNPRO1964","28.094","0.3935","5"],
    [62908,"HCEP03730563","2025-10-13 16:30:00","11.8489","3.52636","26.661","1.018","7.35","0.798","3.946","0.14","0.46","30.5329","4.7849","11.41","0","SATNPRO1964","28.178","0.39468","5"],
    [62909,"HCEP03730563","2025-10-13 16:45:00","11.8505","3.52692","26.652","1.02","7.35","0.899","7.874","0.12","5.57","30.5369","4.78544","11.43","0","SATNPRO1964","27.728","0.38836","5"],
    [62910,"HCEP03730563","2025-10-13 17:00:00","11.8546","3.52785","26.662","1.018","7.35","0.864","4.004","0.18","0.22","30.5426","4.78618","11.41","0","SATNPRO1964","27.856","0.3902","5"],
    [62911,"HCEP03730563","2025-10-13 17:15:00","11.8567","3.52798","26.683","1.04","7.35","0.831","3.973","0.19","0.47","30.542","4.78607","11.66","0","SATNPRO1964","28.134","0.39406","5"],
    [62912,"HCEP03730563","2025-10-13 17:30:00","11.8575","3.52816","26.68","1.064","7.36","0.84","3.652","0.35","0.24","30.5431","4.78621","11.92","0","SATNPRO1964","28.33","0.39684","5"],
    [62913,"HCEP03730563","2025-10-13 17:45:00","11.8588","3.52833","26.694","1.087","7.36","0.823","3.514","0.2","0.12","30.5437","4.78627","12.18","0","SATNPRO1964","28.518","0.3994","5"],
    [62914,"HCEP03730563","2025-10-13 18:00:00","11.8618","3.5291","26.709","1.107","7.36","0.852","3.636","0.15","0.14","30.5487","4.78694","12.41","0","SATNPRO1964","28.282","0.39616","5"],
    [62915,"HCEP03730563","2025-10-13 18:15:00","11.8621","3.52931","26.738","1.11","7.36","0.814","4.094","0.11","0.26","30.5504","4.78718","12.45","0","SATNPRO1964","28.516000000000002","0.39944","5"],
    [62916,"HCEP03730563","2025-10-13 18:30:00","11.8629","3.5296","26.763","1.112","7.36","0.874","4.176","0.16","0.24","30.5525","4.78747","12.47","0","SATNPRO1964","28.268","0.39596","5"],
    [62917,"HCEP03730563","2025-10-13 18:45:00","11.866","3.53011","26.796","1.119","7.36","0.788","4.035","0.12","0.23","30.5549","4.78777","12.55","0","SATNPRO1964","28.754","0.4027","5"],
    [62918,"HCEP03730563","2025-10-13 19:00:00","11.8681","3.53038","26.831","1.147","7.36","0.854","4.142","0.4","0.16","30.5558","4.78786","12.86","0","SATNPRO1964","28.916","0.40508","5"],
    [62919,"HCEP03730563","2025-10-13 19:15:00","11.87","3.53075","26.881","1.171","7.36","0.87","4.047","0.21","0.17","30.5578","4.78812","13.13","0","SATNPRO1964","29.086000000000002","0.40742","5"],
    [62920,"HCEP03730563","2025-10-13 19:30:00","11.8698","3.5307","26.881","1.19","7.37","0.749","3.766","0.22","0.15","30.5574","4.78807","13.35","0","SATNPRO1964","29.196","0.40894","5"],
    [62921,"HCEP03730563","2025-10-13 19:45:00","11.8686","3.5306","26.911","1.19","7.37","0.779","3.768","0.15","0.28","30.5574","4.78808","13.34","0","SATNPRO1964","29.016","0.40646","5"],
    [62922,"HCEP03730563","2025-10-13 20:00:00","11.8667","3.53042","26.935","1.17","7.37","0.865","3.743","0.16","0.2","30.5571","4.78808","13.12","0","SATNPRO1964","28.822","0.40368","5"],
    [62923,"HCEP03730563","2025-10-13 20:15:00","11.8633","3.53004","26.96","1.135","7.36","0.911","4.102","0.2","0.23","30.5564","4.78802","12.73","0","SATNPRO1964","28.506","0.39928","5"],
    [62924,"HCEP03730563","2025-10-13 20:30:00","11.8604","3.52966","27.004","1.095","7.36","0.896","4.02","0.19","0.3","30.555","4.78788","12.27","0","SATNPRO1964","28.226","0.39536","5"],
    [62925,"HCEP03730563","2025-10-13 20:45:00","11.8551","3.52898","27.008","1.044","7.36","1.018","3.773","0.24","0.17","30.5529","4.78764","11.7","0","SATNPRO1964","27.89","0.39062","5"],
    [62926,"HCEP03730563","2025-10-13 21:00:00","11.8491","3.52824","27.019","0.974","7.35","0.841","3.935","0.21","0.13","30.5507","4.78742","10.92","0","SATNPRO1964","27.266","0.38188","5"],
    [62927,"HCEP03730563","2025-10-13 21:15:00","11.8449","3.52766","27.022","0.901","7.35","0.819","4.045","0.16","0.28","30.5485","4.78717","10.1","0","SATNPRO1964","26.904","0.37682","5"],
    [62928,"HCEP03730563","2025-10-13 21:30:00","11.8428","3.5274","27.002","0.849","7.34","0.887","4.024","0.23","0.32","30.5478","4.7871","9.51","0","SATNPRO1964","26.828","0.37574","5"],
    [62929,"HCEP03730563","2025-10-13 21:45:00","11.8408","3.52703","26.973","0.823","7.34","0.946","3.877","0.24","0.15","30.5459","4.78686","9.23","0","SATNPRO1964","26.91","0.37694","5"],
    [62930,"HCEP03730563","2025-10-13 22:00:00","11.8383","3.52675","26.925","0.793","7.34","0.883","3.948","0.22","0.31","30.5453","4.7868","8.89","0","SATNPRO1964","26.396","0.36972","5"],
    [62931,"HCEP03730563","2025-10-13 22:15:00","11.8369","3.52657","26.878","0.76","7.33","0.882","3.975","0.14","0.37","30.5447","4.78673","8.51","0","SATNPRO1964","26.274","0.36802","5"],
    [62932,"HCEP03730563","2025-10-13 22:30:00","11.836","3.52639","26.819","0.739","7.33","0.866","3.756","0.16","0.28","30.5437","4.78661","8.28","0","SATNPRO1964","26.364","0.36928","5"],
    [62933,"HCEP03730563","2025-10-13 22:45:00","11.8348","3.52629","26.764","0.719","7.33","0.814","3.751","0.13","0.34","30.5437","4.78662","8.06","0","SATNPRO1964","26.114","0.36576","5"],
    [62934,"HCEP03730563","2025-10-13 23:00:00","11.8343","3.5261","26.682","0.701","7.33","0.789","3.485","0.18","0.15","30.5424","4.78645","7.85","0","SATNPRO1964","26.012","0.36436","5"],
    [62935,"HCEP03730563","2025-10-13 23:15:00","11.8317","3.52566","26.59","0.683","7.32","0.817","3.706","0.15","0.12","30.5403","4.78618","7.65","0","SATNPRO1964","25.672","0.35956","5"],
    [62936,"HCEP03730563","2025-10-13 23:30:00","11.8329","3.52578","26.48","0.661","7.32","0.764","3.965","0.15","0.24","30.5405","4.78618","7.41","0","SATNPRO1964","25.516","0.35742","5"],
    [62937,"HCEP03730563","2025-10-13 23:45:00","11.8348","3.52617","26.368","0.665","7.32","1.041","4.015","0.41","0.18","30.5427","4.78646","7.45","0","SATNPRO1964","26.044","0.36478","5"],
    [62938,"HCEP03730563","2025-10-14 00:00:00","11.8392","3.5269","26.247","0.681","7.32","1.019","3.799","0.52","0.16","30.5463","4.78689","7.63","0","SATNPRO1964","26.734","0.37446","5"],
    [62939,"HCEP03730563","2025-10-14 00:15:00","11.844","3.52761","26.103","0.725","7.33","0.787","3.738","0.16","0.21","30.5492","4.78723","8.12","0","SATNPRO1964","26.816","0.37558","5"],
    [62940,"HCEP03730563","2025-10-14 00:30:00","11.8463","3.52805","25.956","0.769","7.33","0.727","3.478","0.15","0.14","30.5516","4.78753","8.62","0","SATNPRO1964","26.928","0.3772","5"],
    [62941,"HCEP03730563","2025-10-14 00:45:00","11.8445","3.5279","25.8","0.785","7.33","0.773","4.027","0.11","0.23","30.5516","4.78755","8.8","0","SATNPRO1964","26.712","0.37418","5"],
    [62942,"HCEP03730563","2025-10-14 01:00:00","11.8442","3.52805","25.644","0.768","7.33","0.721","3.766","0.21","0.14","30.5534","4.78779","8.61","0","SATNPRO1964","26.74","0.37456","5"],
    [62943,"HCEP03730563","2025-10-14 01:15:00","11.8449","3.52815","25.477","0.765","7.33","0.715","3.469","0.13","0.11","30.5538","4.78784","8.57","0","SATNPRO1964","27.016000000000002","0.37846","5"],
    [62944,"HCEP03730563","2025-10-14 01:30:00","11.8457","3.52828","25.314","0.757","7.33","0.642","3.496","0.1","0.09","30.5545","4.78791","8.48","0","SATNPRO1964","26.872","0.37638","5"],
    [62945,"HCEP03730563","2025-10-14 01:45:00","11.8479","3.52846","25.148","0.774","7.33","0.702","3.476","0.15","0.12","30.5545","4.78787","8.67","0","SATNPRO1964","27.178","0.38066","5"],
    [62946,"HCEP03730563","2025-10-14 02:00:00","11.8463","3.52838","25.003","0.802","7.33","0.713","3.396","0.15","0.09","30.5552","4.78798","8.98","0","SATNPRO1964","27.148","0.38028","5"],
    [62947,"HCEP03730563","2025-10-14 02:15:00","11.8486","3.52899","24.857","0.798","7.33","0.911","3.793","0.46","0.39","30.5591","4.7885","8.94","0","SATNPRO1964","27.224","0.3813","5"],
    [62948,"HCEP03730563","2025-10-14 02:30:00","11.8493","3.52898","24.715","0.806","7.33","0.735","3.525","0.13","0.14","30.5586","4.7884","9.04","0","SATNPRO1964","27.456","0.38458","5"],
    [62949,"HCEP03730563","2025-10-14 02:45:00","11.8498","3.52906","24.586","0.814","7.33","0.707","3.349","0.14","0.17","30.5589","4.78844","9.12","0","SATNPRO1964","27.642","0.38716","5"],
    [62950,"HCEP03730563","2025-10-14 03:00:00","11.8524","3.52953","24.484","0.821","7.34","0.681","3.442","0.11","0.16","30.5614","4.78875","9.2","0","SATNPRO1964","27.738","0.3885","5"],
    [62951,"HCEP03730563","2025-10-14 03:15:00","11.8527","3.52969","24.364","0.83","7.34","0.717","3.994","0.1","0.14","30.5627","4.78891","9.3","0","SATNPRO1964","27.366","0.38332","5"],
    [62952,"HCEP03730563","2025-10-14 03:30:00","11.852","3.5297","24.288","0.823","7.34","0.596","3.624","0.14","0.18","30.5633","4.78901","9.22","0","SATNPRO1964","27.464","0.38464","5"],
    [62953,"HCEP03730563","2025-10-14 03:45:00","11.8526","3.52975","24.234","0.813","7.34","0.758","3.613","0.15","0.2","30.5634","4.78902","9.11","0","SATNPRO1964","27.494","0.38504","5"],
    [62954,"HCEP03730563","2025-10-14 04:00:00","11.8528","3.52984","24.227","0.802","7.33","0.631","3.688","0.19","0.09","30.564","4.7891","8.99","0","SATNPRO1964","27.422","0.38406","5"],
    [62955,"HCEP03730563","2025-10-14 04:15:00","11.8528","3.5299","24.221","0.802","7.33","0.909","3.785","0.33","0.1","30.5648","4.7892","8.99","0","SATNPRO1964","27.178","0.38068","5"],
    [62956,"HCEP03730563","2025-10-14 04:30:00","11.8529","3.52995","24.238","0.816","7.34","0.739","3.533","0.14","0.07","30.5651","4.78925","9.15","0","SATNPRO1964","27.822","0.38972","5"],
    [62957,"HCEP03730563","2025-10-14 04:45:00","11.8546","3.53015","24.274","0.824","7.34","0.737","3.612","0.14","0.11","30.5656","4.78929","9.24","0","SATNPRO1964","27.07","0.37918","5"],
    [62958,"HCEP03730563","2025-10-14 05:00:00","11.8546","3.53007","24.328","0.845","7.34","0.769","3.581","0.32","0.13","30.5648","4.78919","9.47","0","SATNPRO1964","27.368000000000002","0.3833","5"],
    [62959,"HCEP03730563","2025-10-14 05:15:00","11.8502","3.52981","24.409","0.819","7.33","0.754","4.145","0.14","0.2","30.5659","4.78941","9.18","0","SATNPRO1964","26.726000000000003","0.37436","5"],
    [62960,"HCEP03730563","2025-10-14 05:30:00","11.8524","3.53028","24.493","0.773","7.33","0.624","4.088","0.08","0.1","30.5685","4.78975","8.66","0","SATNPRO1964","26.796","0.37534","5"],
    [62961,"HCEP03730563","2025-10-14 05:45:00","11.8585","3.53155","24.604","0.779","7.33","0.836","4.08","0.3","0.13","30.5757","4.79068","8.73","0","SATNPRO1964","27.002","0.3782","5"],
    [62962,"HCEP03730563","2025-10-14 06:00:00","11.8601","3.53192","24.733","0.809","7.33","0.681","3.935","0.12","0.14","30.5779","4.79098","9.07","0","SATNPRO1964","27.222","0.3813","5"],
    [62963,"HCEP03730563","2025-10-14 06:15:00","11.8639","3.53274","24.869","0.83","7.34","0.733","4.137","0.13","0.13","30.5826","4.7916","9.3","0","SATNPRO1964","27.45","0.38448","5"],
    [62964,"HCEP03730563","2025-10-14 06:30:00","11.8697","3.53371","25.009","0.866","7.34","0.739","4.35","0.16","0.28","30.5871","4.79216","9.71","0","SATNPRO1964","27.676","0.38762","5"],
    [62965,"HCEP03730563","2025-10-14 06:45:00","11.8988","3.53733","25.176","1.007","7.35","0.952","3.922","1.37","0.19","30.598","4.79329","11.3","0","SATNPRO1964","29.248","0.40968","5"],
    [62966,"HCEP03730563","2025-10-14 07:00:00","11.9058","3.53831","25.307","1.269","7.37","0.671","3.875","0.1","0.63","30.6016","4.79371","14.24","0","SATNPRO1964","29.834","0.41788","5"],
    [62967,"HCEP03730563","2025-10-14 07:15:00","11.9068","3.5384","25.459","1.352","7.37","0.702","3.935","0.13","0.65","30.6015","4.79369","15.17","0","SATNPRO1964","29.562","0.41406","5"],
    [62968,"HCEP03730563","2025-10-14 07:30:00","11.9041","3.53817","25.629","1.362","7.38","0.63","3.801","0.07","0.14","30.6015","4.79374","15.28","0","SATNPRO1964","29.534","0.41368","5"],
    [62969,"HCEP03730563","2025-10-14 07:45:00","11.9087","3.53875","25.831","1.357","7.38","0.697","3.95","0.09","0.29","30.6031","4.79392","15.23","0","SATNPRO1964","29.762","0.41686","5"],
    [62970,"HCEP03730563","2025-10-14 08:00:00","11.9142","3.53951","26.032","1.405","7.39","0.611","3.821","0.08","0.32","30.6059","4.79425","15.78","0","SATNPRO1964","29.823999999999998","0.4177","5"],
    [62971,"HCEP03730563","2025-10-14 08:15:00","11.9162","3.53941","26.165","1.491","7.39","0.593","3.285","0.08","0.2","30.6032","4.79384","16.74","0","SATNPRO1964","31.456","0.44058","5"],
    [62972,"HCEP03730563","2025-10-14 08:30:00","11.9133","3.53879","26.339","1.51","7.39","0.612","3.524","0.05","0.29","30.5996","4.79338","16.95","0","SATNPRO1964","30.508","0.4273","5"],
    [62973,"HCEP03730563","2025-10-14 08:45:00","11.9202","3.53943","26.54","1.539","7.4","0.6","3.317","0.07","0.24","30.6","4.79335","17.28","0","SATNPRO1964","30.86","0.43226","5"],
    [62974,"HCEP03730563","2025-10-14 09:00:00","11.9137","3.53727","26.74","1.617","7.4","0.502","1.886","0.08","0.14","30.5845","4.79127","18.15","0","SATNPRO1964","30.974","0.43382","5"],
    [62975,"HCEP03730563","2025-10-14 09:15:00","11.9186","3.53915","26.92","1.618","7.41","0.666","3.375","0.13","0.19","30.5985","4.79318","18.17","0","SATNPRO1964","30.726","0.43036","5"],
    [62976,"HCEP03730563","2025-10-14 09:30:00","11.9126","3.53835","27.082","1.597","7.4","0.641","3.2","0.14","0.13","30.5956","4.79288","17.92","0","SATNPRO1964","31.016","0.43444","5"],
    [62977,"HCEP03730563","2025-10-14 09:45:00","11.9127","3.53832","27.19","1.552","7.4","0.591","2.834","0.1","0.14","30.5952","4.79282","17.42","0","SATNPRO1964","30.701999999999998","0.43","5"],
    [62978,"HCEP03730563","2025-10-14 10:00:00","11.8922","3.53525","27.325","1.479","7.4","0.544","2.431","0.1","0.13","30.5825","4.79132","16.6","0","SATNPRO1964","30.392","0.42568","5"],
    [62979,"HCEP03730563","2025-10-14 10:15:00","11.9052","3.5371","27.469","1.374","7.39","0.633","2.536","0.14","0.11","30.5896","4.79214","15.42","0","SATNPRO1964","30.78","0.43114","5"],
    [62980,"HCEP03730563","2025-10-14 10:30:00","11.9269","3.54005","27.567","1.536","7.4","0.623","2.671","0.11","0.16","30.6","4.79332","17.25","0","SATNPRO1964","31.4","0.43978","5"],
    [62981,"HCEP03730563","2025-10-14 10:45:00","11.9162","3.53909","27.636","1.658","7.41","0.761","3.341","0.16","0.14","30.5995","4.7934","18.62","0","SATNPRO1964","30.36","0.42524","5"],
    [62982,"HCEP03730563","2025-10-14 11:00:00","11.9064","3.53816","27.709","1.53","7.4","0.698","4.375","0.13","0.36","30.5986","4.79341","17.17","0","SATNPRO1964","29.548000000000002","0.41388","5"],
    [62983,"HCEP03730563","2025-10-14 11:15:00","11.9059","3.53809","27.755","1.398","7.39","0.742","4.514","0.09","0.2","30.5984","4.79339","15.69","0","SATNPRO1964","29.494","0.4131","5"],
    [62984,"HCEP03730563","2025-10-14 11:30:00","11.9029","3.5376","27.77","1.351","7.39","0.664","4.223","0.17","0.36","30.5962","4.79312","15.17","0","SATNPRO1964","29.574","0.41422","5"],
    [62985,"HCEP03730563","2025-10-14 11:45:00","11.9029","3.5375","27.798","1.338","7.39","0.805","3.837","0.32","0.18","30.5952","4.79299","15.02","0","SATNPRO1964","30.064","0.4211","5"],
    [62986,"HCEP03730563","2025-10-14 12:00:00","11.8979","3.53668","27.811","1.339","7.39","0.679","3.145","0.18","0.09","30.5914","4.79253","15.03","0","SATNPRO1964","30.008","0.42032","5"],
    [62987,"HCEP03730563","2025-10-14 12:15:00","11.8901","3.53582","27.826","1.307","7.38","0.654","3.628","0.13","0.54","30.5895","4.79236","14.67","0","SATNPRO1964","29.604","0.41464","5"],
    [62988,"HCEP03730563","2025-10-14 12:30:00","11.9012","3.53668","27.783","1.312","7.39","0.706","3.081","0.24","0.21","30.5887","4.79209","14.72","0","SATNPRO1964","29.951999999999998","0.41956","5"],
    [62989,"HCEP03730563","2025-10-14 12:45:00","11.9198","3.53877","27.756","1.464","7.4","0.554","2.229","0.08","0.23","30.5935","4.7925","16.44","0","SATNPRO1964","31.348","0.4391","5"],
    [62990,"HCEP03730563","2025-10-14 13:00:00","11.9135","3.53795","27.697","1.655","7.41","0.637","2.373","0.19","0.21","30.5908","4.79221","18.58","0","SATNPRO1964","30.998","0.43416","5"],
    [62991,"HCEP03730563","2025-10-14 13:15:00","11.9016","3.53643","27.655","1.603","7.4","0.575","2.677","0.08","0.24","30.586","4.7917","18","0","SATNPRO1964","30.508","0.42732","5"],
    [62992,"HCEP03730563","2025-10-14 13:30:00","11.9006","3.53614","27.626","1.498","7.4","0.6","2.704","0.11","0.14","30.5841","4.79144","16.81","0","SATNPRO1964","30.548000000000002","0.42786","5"],
    [62993,"HCEP03730563","2025-10-14 13:45:00","11.891","3.53509","27.576","1.401","7.39","0.6","2.7","0.1","0.1","30.5819","4.79126","15.72","0","SATNPRO1964","29.948","0.41946","5"],
    [62994,"HCEP03730563","2025-10-14 14:00:00","11.9084","3.53685","27.525","1.408","7.4","0.597","2.627","0.1","0.19","30.5845","4.79138","15.8","0","SATNPRO1964","30.298","0.42436","5"],
    [62995,"HCEP03730563","2025-10-14 14:15:00","11.8922","3.53542","27.482","1.46","7.39","0.626","2.608","0.11","0.15","30.5841","4.79156","16.38","0","SATNPRO1964","30.172","0.42264","5"],
    [62996,"HCEP03730563","2025-10-14 14:30:00","11.8978","3.53628","27.397","1.356","7.39","0.55","2.405","0.1","0.14","30.5878","4.79199","15.21","0","SATNPRO1964","30.63","0.42902","5"],
    [62997,"HCEP03730563","2025-10-14 14:45:00","11.9003","3.5365","27.32","1.381","7.39","0.555","2.814","0.07","0.15","30.5879","4.79197","15.49","0","SATNPRO1964","30.892","0.43268","5"],
    [62998,"HCEP03730563","2025-10-14 15:00:00","11.8764","3.53368","27.242","1.295","7.38","0.635","3.577","0.24","0.14","30.5805","4.79125","14.52","0","SATNPRO1964","28.586","0.4004","5"],
    [62999,"HCEP03730563","2025-10-14 15:15:00","11.8659","3.53265","27.135","1.03","7.36","0.641","3.813","0.14","0.16","30.5792","4.79121","11.55","0","SATNPRO1964","27.176","0.38064","5"],
    [63000,"HCEP03730563","2025-10-14 15:30:00","11.8647","3.53267","27.045","0.852","7.35","0.598","3.863","0.1","0.11","30.5804","4.79139","9.55","0","SATNPRO1964","26.732","0.37444","5"],
    [63001,"HCEP03730563","2025-10-14 15:45:00","11.8587","3.53162","26.963","0.762","7.34","0.671","3.989","0.13","0.17","30.5753","4.79075","8.54","0","SATNPRO1964","26.734","0.37446","5"],
    [63002,"HCEP03730563","2025-10-14 16:00:00","11.8714","3.53324","26.883","0.753","7.34","0.692","4.237","0.1","0.16","30.5805","4.7913","8.45","0","SATNPRO1964","26.74","0.37456","5"],
    [63003,"HCEP03730563","2025-10-14 16:15:00","11.8606","3.53189","26.808","0.767","7.34","0.735","4.11","0.18","0.35","30.5764","4.79087","8.6","0","SATNPRO1964","26.992","0.3781","5"],
    [63004,"HCEP03730563","2025-10-14 16:30:00","11.8683","3.53277","26.718","0.759","7.34","0.675","4.373","0.09","0.21","30.5786","4.79107","8.51","0","SATNPRO1964","27.066","0.37916","5"],
    [63005,"HCEP03730563","2025-10-14 16:45:00","11.8661","3.53253","26.653","0.793","7.34","0.658","4.313","0.06","0.18","30.5781","4.79104","8.89","0","SATNPRO1964","26.794","0.3753","5"],
    [63006,"HCEP03730563","2025-10-14 17:00:00","11.8679","3.53316","26.588","0.776","7.34","0.66","4.419","0.09","0.36","30.5827","4.79165","8.71","0","SATNPRO1964","26.624","0.3729","5"],
    [63007,"HCEP03730563","2025-10-14 17:15:00","11.8707","3.53339","26.513","0.795","7.34","0.708","4.309","0.15","0.2","30.5826","4.7916","8.91","0","SATNPRO1964","27.146","0.38022","5"],
    [63008,"HCEP03730563","2025-10-14 17:30:00","11.8667","3.53272","26.464","0.805","7.34","0.663","3.98","0.16","0.17","30.5795","4.79121","9.03","0","SATNPRO1964","27.048000000000002","0.37884","5"],
    [63009,"HCEP03730563","2025-10-14 17:45:00","11.8666","3.53222","26.423","0.794","7.34","1.51","4.039","4.65","0.95","30.5748","4.79054","8.9","0","SATNPRO1964","27.398","0.38376","5"],
    [63010,"HCEP03730563","2025-10-14 18:00:00","11.8687","3.53279","26.392","0.795","7.34","0.61","3.849","0.09","0.44","30.5786","4.79105","8.91","0","SATNPRO1964","27.446","0.38442","5"],
    [63011,"HCEP03730563","2025-10-14 18:15:00","11.8678","3.53273","26.384","0.804","7.34","0.654","3.989","0.11","0.31","30.5787","4.79108","9.02","0","SATNPRO1964","27.336000000000002","0.38292","5"],
    [63012,"HCEP03730563","2025-10-14 18:30:00","11.8676","3.53268","26.387","0.794","7.34","0.621","3.676","0.09","0.21","30.5784","4.79104","8.91","0","SATNPRO1964","27.834","0.38984","5"],
    [63013,"HCEP03730563","2025-10-14 18:45:00","11.8677","3.5328","26.395","0.787","7.34","0.674","3.73","0.13","0.16","30.5795","4.79119","8.83","0","SATNPRO1964","27.392","0.38366","5"],
    [63014,"HCEP03730563","2025-10-14 19:00:00","11.8681","3.53291","26.414","0.78","7.33","0.601","3.879","0.14","0.25","30.5802","4.79129","8.75","0","SATNPRO1964","27.532","0.38568","5"],
    [63015,"HCEP03730563","2025-10-14 19:15:00","11.8695","3.53321","26.438","0.776","7.33","0.646","3.811","0.1","0.1","30.582","4.79151","8.71","0","SATNPRO1964","27.628","0.38696","5"],
    [63016,"HCEP03730563","2025-10-14 19:30:00","11.8715","3.53355","26.463","0.773","7.33","0.65","3.702","0.18","0.16","30.5836","4.79171","8.66","0","SATNPRO1964","27.476","0.38484","5"],
    [63017,"HCEP03730563","2025-10-14 19:45:00","11.8705","3.53333","26.486","0.773","7.33","0.582","4.241","0.12","0.71","30.5822","4.79154","8.67","0","SATNPRO1964","27.406","0.38388","5"],
    [63018,"HCEP03730563","2025-10-14 20:00:00","11.8732","3.53383","26.51","0.779","7.33","0.624","3.7","0.16","0.09","30.5848","4.79187","8.74","0","SATNPRO1964","27.376","0.38344","5"],
    [63019,"HCEP03730563","2025-10-14 20:15:00","11.8732","3.53373","26.541","0.787","7.34","0.668","3.538","0.11","0.04","30.5838","4.79173","8.82","0","SATNPRO1964","27.61","0.38674","5"],
    [63020,"HCEP03730563","2025-10-14 20:30:00","11.8781","3.53453","26.581","0.797","7.34","0.646","3.179","0.12","0.07","30.5875","4.79218","8.94","0","SATNPRO1964","28.34","0.39692","5"],
    [63021,"HCEP03730563","2025-10-14 20:45:00","11.8786","3.53458","26.62","0.829","7.34","0.571","3.276","0.06","0.17","30.5875","4.79217","9.3","0","SATNPRO1964","29.042","0.40682","5"],
    [63022,"HCEP03730563","2025-10-14 21:00:00","11.8812","3.53493","26.662","0.853","7.34","0.486","3.45","0.06","0.08","30.5887","4.79231","9.57","0","SATNPRO1964","27.98","0.39192","5"],
    [63023,"HCEP03730563","2025-10-14 21:15:00","11.8857","3.53564","26.698","0.894","7.34","0.75","3.726","0.18","0.14","30.5918","4.79269","10.03","0","SATNPRO1964","28.244","0.39558","5"],
    [63024,"HCEP03730563","2025-10-14 21:30:00","11.8862","3.53573","26.734","0.934","7.35","0.726","3.728","0.24","0.11","30.5923","4.79275","10.48","0","SATNPRO1964","28.548000000000002","0.39988","5"],
    [63025,"HCEP03730563","2025-10-14 21:45:00","11.8857","3.53545","26.781","0.943","7.35","0.709","3.525","0.17","0.13","30.59","4.79244","10.58","0","SATNPRO1964","28.494","0.39912","5"],
    [63026,"HCEP03730563","2025-10-14 22:00:00","11.8833","3.53503","26.819","0.946","7.35","0.686","3.642","0.12","0.24","30.5879","4.79218","10.62","0","SATNPRO1964","28.582","0.40032","5"],
    [63027,"HCEP03730563","2025-10-14 22:15:00","11.8848","3.53537","26.842","0.951","7.35","0.709","3.855","0.23","0.1","30.5899","4.79245","10.67","0","SATNPRO1964","28.414","0.39802","5"],
    [63028,"HCEP03730563","2025-10-14 22:30:00","11.8863","3.53554","26.838","0.958","7.35","0.666","3.832","0.13","0.19","30.5903","4.79248","10.75","0","SATNPRO1964","28.492","0.39908","5"],
    [63029,"HCEP03730563","2025-10-14 22:45:00","11.8856","3.53553","26.843","0.952","7.35","0.668","3.326","0.2","0.09","30.5909","4.79257","10.68","0","SATNPRO1964","28.584","0.40036","5"],
    [63030,"HCEP03730563","2025-10-14 23:00:00","11.8858","3.53565","26.838","0.943","7.35","0.569","3.605","0.1","0.31","30.5918","4.7927","10.58","0","SATNPRO1964","28.422","0.39808","5"],
    [63031,"HCEP03730563","2025-10-14 23:15:00","11.8849","3.53534","26.815","0.946","7.35","0.603","3.363","0.16","0.23","30.5896","4.79239","10.62","0","SATNPRO1964","28.784","0.40318","5"],
    [63032,"HCEP03730563","2025-10-14 23:30:00","11.8849","3.53545","26.789","0.954","7.35","0.688","3.205","0.36","0.08","30.5906","4.79253","10.7","0","SATNPRO1964","28.602","0.40064","5"],
    [63033,"HCEP03730563","2025-10-14 23:45:00","11.8843","3.53532","26.748","0.958","7.35","0.557","3.066","0.17","0.1","30.5899","4.79244","10.75","0","SATNPRO1964","28.794","0.4033","5"],
    [63034,"HCEP03730563","2025-10-15 00:00:00","11.8751","3.53346","26.707","0.962","7.35","0.533","2.82","0.13","0.12","30.5797","4.79113","10.79","0","SATNPRO1964","29.336","0.41088","5"],
    [63035,"HCEP03730563","2025-10-15 00:15:00","11.8782","3.53413","26.64","0.974","7.35","0.758","3.018","0.35","0.18","30.5835","4.79162","10.93","0","SATNPRO1964","28.908","0.40488","5"],
    [63036,"HCEP03730563","2025-10-15 00:30:00","11.8734","3.53272","26.555","0.971","7.35","0.536","2.81","0.15","0.13","30.574","4.79034","10.89","0","SATNPRO1964","29.528","0.41358","5"],
    [63037,"HCEP03730563","2025-10-15 00:45:00","11.8738","3.53296","26.472","0.976","7.35","0.651","2.949","0.43","0.21","30.576","4.79061","10.94","0","SATNPRO1964","29.618","0.4148","5"],
    [63038,"HCEP03730563","2025-10-15 01:00:00","11.8739","3.53299","26.374","0.963","7.35","0.541","2.787","0.15","0.13","30.5762","4.79064","10.8","0","SATNPRO1964","29.098","0.40762","5"],
    [63039,"HCEP03730563","2025-10-15 01:15:00","11.8786","3.53426","26.262","0.939","7.35","0.706","3.657","0.2","0.48","30.5845","4.79174","10.53","0","SATNPRO1964","28.114","0.39378","5"],
    [63040,"HCEP03730563","2025-10-15 01:30:00","11.8726","3.5329","26.147","0.922","7.35","0.569","3.282","0.11","0.14","30.5765","4.79068","10.34","0","SATNPRO1964","28.509999999999998","0.3993","5"],
    [63041,"HCEP03730563","2025-10-15 01:45:00","11.8718","3.53294","26.026","0.922","7.35","0.622","3.137","0.17","0.08","30.5775","4.79084","10.34","0","SATNPRO1964","28.592","0.40048","5"],
    [63042,"HCEP03730563","2025-10-15 02:00:00","11.8788","3.53414","25.893","0.904","7.35","0.507","3.202","0.09","0.11","30.5834","4.79156","10.14","0","SATNPRO1964","27.806","0.38946","5"],
    [63043,"HCEP03730563","2025-10-15 02:15:00","11.8815","3.53504","25.772","0.89","7.34","0.766","3.636","0.18","0.1","30.5898","4.79242","9.98","0","SATNPRO1964","27.598","0.38656","5"],
    [63044,"HCEP03730563","2025-10-15 02:30:00","11.8795","3.53481","25.621","0.854","7.34","0.663","3.766","0.16","0.18","30.5893","4.79237","9.58","0","SATNPRO1964","26.834","0.37586","5"],
    [63045,"HCEP03730563","2025-10-15 02:45:00","11.8785","3.53457","25.484","0.818","7.34","0.664","3.575","0.08","0.11","30.588","4.79218","9.18","0","SATNPRO1964","27.354","0.38314","5"],
    [63046,"HCEP03730563","2025-10-15 03:00:00","11.8767","3.53437","25.339","0.809","7.34","0.523","3.481","0.07","0.06","30.5876","4.79214","9.08","0","SATNPRO1964","26.828","0.37576","5"],
    [63047,"HCEP03730563","2025-10-15 03:15:00","11.8751","3.53406","25.192","0.793","7.34","0.518","3.373","0.1","0.12","30.586","4.79193","8.9","0","SATNPRO1964","26.742","0.37456","5"],
    [63048,"HCEP03730563","2025-10-15 03:30:00","11.8736","3.53366","25.065","0.784","7.34","0.545","3.543","0.07","0.03","30.5835","4.79159","8.8","0","SATNPRO1964","27.401999999999997","0.3838","5"],
    [63049,"HCEP03730563","2025-10-15 03:45:00","11.8723","3.53364","24.95","0.782","7.34","0.671","3.557","0.19","0.05","30.5843","4.79172","8.77","0","SATNPRO1964","27.234","0.38144","5"],
    [63050,"HCEP03730563","2025-10-15 04:00:00","11.876","3.53425","24.828","0.765","7.34","0.553","3.756","0.12","0.43","30.5872","4.79208","8.59","0","SATNPRO1964","27.674","0.38762","5"],
    [63051,"HCEP03730563","2025-10-15 04:15:00","11.8775","3.53427","24.729","0.803","7.34","0.573","3.349","0.16","0.19","30.5862","4.7919","9.01","0","SATNPRO1964","28.532","0.39966","5"],
    [63052,"HCEP03730563","2025-10-15 04:30:00","11.8801","3.53463","24.628","0.864","7.34","0.53","3.406","0.08","0.31","30.5876","4.79206","9.69","0","SATNPRO1964","28.442","0.3984","5"],
    [63053,"HCEP03730563","2025-10-15 04:45:00","11.8824","3.53502","24.546","0.893","7.34","0.609","3.739","0.13","0.13","30.5894","4.79228","10.02","0","SATNPRO1964","28.63","0.40102","5"],
    [63054,"HCEP03730563","2025-10-15 05:00:00","11.8848","3.5353","24.488","0.916","7.35","0.484","3.39","0.08","0.12","30.5902","4.79235","10.27","0","SATNPRO1964","28.838","0.40392","5"],
    [63055,"HCEP03730563","2025-10-15 05:15:00","11.8854","3.53546","24.46","0.936","7.35","0.622","3.733","0.24","0.18","30.5913","4.7925","10.51","0","SATNPRO1964","28.134","0.39408","5"],
    [63056,"HCEP03730563","2025-10-15 05:30:00","11.8842","3.53528","24.451","0.937","7.35","0.563","3.698","0.1","0.16","30.5905","4.7924","10.52","0","SATNPRO1964","28.278","0.3961","5"],
    [63057,"HCEP03730563","2025-10-15 05:45:00","11.8839","3.53521","24.433","0.931","7.35","0.642","3.813","0.13","0.19","30.5901","4.79235","10.45","0","SATNPRO1964","28.666","0.40152","5"],
    [63058,"HCEP03730563","2025-10-15 06:00:00","11.8831","3.53465","24.46","0.96","7.35","0.711","3.386","0.21","0.44","30.5854","4.7917","10.78","0","SATNPRO1964","28.69","0.40188","5"],
    [63059,"HCEP03730563","2025-10-15 06:15:00","11.8851","3.53532","24.491","1.006","7.35","0.693","3.8","0.15","0.36","30.5902","4.79234","11.28","0","SATNPRO1964","28.86","0.40424","5"],
    [63060,"HCEP03730563","2025-10-15 06:30:00","11.8709","3.53213","24.553","0.96","7.35","0.67","3.075","0.22","0.18","30.5712","4.78987","10.77","0","SATNPRO1964","29.284","0.41016","5"],
    [63061,"HCEP03730563","2025-10-15 06:45:00","11.8675","3.53148","24.631","0.939","7.35","0.618","3.272","0.18","0.11","30.5676","4.78942","10.53","0","SATNPRO1964","29.112","0.40774","5"],
    [63062,"HCEP03730563","2025-10-15 07:00:00","11.8662","3.53146","24.732","0.905","7.35","0.533","3.199","0.08","0.26","30.5684","4.78956","10.15","0","SATNPRO1964","28.634","0.40108","5"],
    [63063,"HCEP03730563","2025-10-15 07:15:00","11.8867","3.53564","24.847","0.9","7.35","0.733","4.712","0.1","0.26","30.5918","4.79257","10.1","0","SATNPRO1964","27.62","0.38688","5"],
    [63064,"HCEP03730563","2025-10-15 07:30:00","11.8897","3.53595","24.973","0.929","7.35","0.812","4.583","0.32","0.2","30.5922","4.79259","10.42","0","SATNPRO1964","28.194","0.39492","5"],
    [63065,"HCEP03730563","2025-10-15 07:45:00","11.8899","3.53603","25.102","0.95","7.35","0.723","4.36","0.23","0.17","30.5928","4.79268","10.66","0","SATNPRO1964","27.726","0.38838","5"],
    [63066,"HCEP03730563","2025-10-15 08:00:00","11.8894","3.53595","25.254","0.957","7.35","0.634","4.275","0.08","0.14","30.5924","4.79264","10.73","0","SATNPRO1964","27.580000000000002","0.38628","5"],
    [63067,"HCEP03730563","2025-10-15 08:15:00","11.8736","3.53334","25.419","0.932","7.35","0.699","4.225","0.14","0.21","30.5801","4.79114","10.46","0","SATNPRO1964","27.736","0.38846","5"],
    [63068,"HCEP03730563","2025-10-15 08:30:00","11.872","3.53281","25.582","0.888","7.35","0.632","4.217","0.09","0.17","30.5764","4.79064","9.96","0","SATNPRO1964","27.522","0.3855","5"],
    [63069,"HCEP03730563","2025-10-15 08:45:00","11.8924","3.53643","25.762","0.9","7.35","0.686","4.722","0.22","0.39","30.5944","4.79291","10.1","0","SATNPRO1964","27.258","0.38176","5"],
    [63070,"HCEP03730563","2025-10-15 09:00:00","11.8893","3.53588","25.95","0.958","7.35","0.656","4.182","0.14","0.41","30.5915","4.79256","10.75","0","SATNPRO1964","27.3","0.38244","5"],
    [63071,"HCEP03730563","2025-10-15 09:15:00","11.8864","3.53555","26.153","0.956","7.35","0.628","4.341","0.08","0.17","30.5906","4.79247","10.73","0","SATNPRO1964","27.25","0.3817","5"],
    [63072,"HCEP03730563","2025-10-15 09:30:00","11.8801","3.53433","26.308","0.921","7.35","0.553","3.934","0.07","0.15","30.584","4.79165","10.33","0","SATNPRO1964","27.424","0.38412","5"],
    [63073,"HCEP03730563","2025-10-15 09:45:00","11.8713","3.53273","26.501","0.863","7.34","0.563","3.912","0.09","0.37","30.5758","4.79062","9.67","0","SATNPRO1964","26.77","0.37494","5"],
    [63074,"HCEP03730563","2025-10-15 10:00:00","11.8752","3.5336","26.701","0.828","7.34","0.667","4.35","0.2","0.52","30.5809","4.79129","9.29","0","SATNPRO1964","26.278","0.36806","5"],
    [63075,"HCEP03730563","2025-10-15 10:15:00","11.8745","3.53339","26.84","0.827","7.34","0.634","4.134","0.13","0.23","30.5795","4.79112","9.27","0","SATNPRO1964","26.529999999999998","0.37162","5"],
    [63076,"HCEP03730563","2025-10-15 10:30:00","11.872","3.53223","27.027","0.831","7.34","0.625","3.87","0.39","0.5","30.5702","4.78985","9.32","0","SATNPRO1964","27.68","0.38772","5"],
    [63077,"HCEP03730563","2025-10-15 10:45:00","11.8724","3.53247","27.168","0.843","7.34","0.634","4.029","0.22","0.63","30.5721","4.79012","9.46","0","SATNPRO1964","26.55","0.37186","5"],
    [63078,"HCEP03730563","2025-10-15 11:00:00","11.8671","3.53149","27.28","0.813","7.34","0.639","4.271","0.15","1.39","30.567","4.78948","9.12","0","SATNPRO1964","26.444","0.3704","5"],
    [63079,"HCEP03730563","2025-10-15 11:15:00","11.8659","3.53142","27.422","0.763","7.33","0.688","4.386","0.1","0.51","30.5673","4.78954","8.56","0","SATNPRO1964","26.054","0.36496","5"],
    [63080,"HCEP03730563","2025-10-15 11:30:00","11.8657","3.5313","27.524","0.741","7.33","0.664","3.988","0.14","0.1","30.5663","4.78941","8.31","0","SATNPRO1964","26.066","0.3651","5"],
    [63081,"HCEP03730563","2025-10-15 11:45:00","11.8675","3.53165","27.613","0.739","7.33","0.721","3.989","0.5","0.15","30.5681","4.78965","8.29","0","SATNPRO1964","26.2","0.36696","5"],
    [63082,"HCEP03730563","2025-10-15 12:00:00","11.8677","3.53165","27.695","0.74","7.33","0.599","3.955","0.12","0.28","30.5679","4.78963","8.3","0","SATNPRO1964","26.114","0.36576","5"]
]}
